<?xml version="1.0" encoding="UTF-8"?>
<TrainingCenterDatabase xmlns="http://www.garmin.com/xmlschemas/TrainingCenterDatabase/v2" xmlns:xsi="http://www.w3.org/2001/XMLSchema-instance" xsi:schemaLocation="http://www.garmin.com/xmlschemas/TrainingCenterDatabase/v2 http://www.garmin.com/xmlschemas/TrainingCenterDatabasev2.xsd">
  <Activities>
    <Activity Sport="Other">
      <Id>2019-10-04T09:00:36.000Z</Id>
      <Lap StartTime="2019-10-04T09:00:36.000Z">
        <TotalTimeSeconds>158396</TotalTimeSeconds>
        <DistanceMeters>838360</DistanceMeters>
        <Track>
          <Trackpoint>
            <Time>2019-10-04T09:00:36.000Z</Time>
            <Position>
              <LatitudeDegrees>43.516501374542713165283203125</LatitudeDegrees>
              <LongitudeDegrees>-5.677237026393413543701171875</LongitudeDegrees>
            </Position>
            <AltitudeMeters>39.200000762939453125</AltitudeMeters>
            <DistanceMeters>0</DistanceMeters>
          </Trackpoint>
          <Trackpoint>
            <Time>2019-10-04T09:00:37.000Z</Time>
            <Position>
              <LatitudeDegrees>43.516483604907989501953125</LatitudeDegrees>
              <LongitudeDegrees>-5.67726510576903820037841796875</LongitudeDegrees>
            </Position>
            <AltitudeMeters>39.200000762939453125</AltitudeMeters>
            <DistanceMeters>3.0080120672701</DistanceMeters>
          </Trackpoint>
          <Trackpoint>
            <Time>2019-10-04T09:00:44.000Z</Time>
            <Position>
              <LatitudeDegrees>43.51635980419814586639404296875</LatitudeDegrees>
              <LongitudeDegrees>-5.6774655170738697052001953125</LongitudeDegrees>
            </Position>
            <AltitudeMeters>38.40000152587890625</AltitudeMeters>
            <DistanceMeters>24.257481296027</DistanceMeters>
          </Trackpoint>
          <Trackpoint>
            <Time>2019-10-04T09:00:53.000Z</Time>
            <Position>
              <LatitudeDegrees>43.51619484834372997283935546875</LatitudeDegrees>
              <LongitudeDegrees>-5.67772007547318935394287109375</LongitudeDegrees>
            </Position>
            <AltitudeMeters>39.799999237060546875</AltitudeMeters>
            <DistanceMeters>51.811951485252</DistanceMeters>
          </Trackpoint>
          <Trackpoint>
            <Time>2019-10-04T09:00:58.000Z</Time>
            <Position>
              <LatitudeDegrees>43.51608823053538799285888671875</LatitudeDegrees>
              <LongitudeDegrees>-5.67786709405481815338134765625</LongitudeDegrees>
            </Position>
            <AltitudeMeters>40.40000152587890625</AltitudeMeters>
            <DistanceMeters>68.594325700097</DistanceMeters>
          </Trackpoint>
          <Trackpoint>
            <Time>2019-10-04T09:01:01.000Z</Time>
            <Position>
              <LatitudeDegrees>43.5160153917968273162841796875</LatitudeDegrees>
              <LongitudeDegrees>-5.6779454648494720458984375</LongitudeDegrees>
            </Position>
            <AltitudeMeters>40.40000152587890625</AltitudeMeters>
            <DistanceMeters>78.876989026409</DistanceMeters>
          </Trackpoint>
          <Trackpoint>
            <Time>2019-10-04T09:01:07.000Z</Time>
            <Position>
              <LatitudeDegrees>43.51586225442588329315185546875</LatitudeDegrees>
              <LongitudeDegrees>-5.67809340544044971466064453125</LongitudeDegrees>
            </Position>
            <AltitudeMeters>41.59999847412109375</AltitudeMeters>
            <DistanceMeters>99.688056428283</DistanceMeters>
          </Trackpoint>
          <Trackpoint>
            <Time>2019-10-04T09:01:10.000Z</Time>
            <Position>
              <LatitudeDegrees>43.51578145287930965423583984375</LatitudeDegrees>
              <LongitudeDegrees>-5.6781467981636524200439453125</LongitudeDegrees>
            </Position>
            <AltitudeMeters>42.200000762939453125</AltitudeMeters>
            <DistanceMeters>109.66088260514</DistanceMeters>
          </Trackpoint>
          <Trackpoint>
            <Time>2019-10-04T09:01:13.000Z</Time>
            <Position>
              <LatitudeDegrees>43.51568975485861301422119140625</LatitudeDegrees>
              <LongitudeDegrees>-5.67819180898368358612060546875</LongitudeDegrees>
            </Position>
            <AltitudeMeters>42.59999847412109375</AltitudeMeters>
            <DistanceMeters>120.49392804332</DistanceMeters>
          </Trackpoint>
          <Trackpoint>
            <Time>2019-10-04T09:01:18.000Z</Time>
            <Position>
              <LatitudeDegrees>43.5155248828232288360595703125</LatitudeDegrees>
              <LongitudeDegrees>-5.67825685255229473114013671875</LongitudeDegrees>
            </Position>
            <AltitudeMeters>43.200000762939453125</AltitudeMeters>
            <DistanceMeters>139.58081893877</DistanceMeters>
          </Trackpoint>
          <Trackpoint>
            <Time>2019-10-04T09:01:25.000Z</Time>
            <Position>
              <LatitudeDegrees>43.51528130471706390380859375</LatitudeDegrees>
              <LongitudeDegrees>-5.6783107481896877288818359375</LongitudeDegrees>
            </Position>
            <AltitudeMeters>43.59999847412109375</AltitudeMeters>
            <DistanceMeters>167.03844233023</DistanceMeters>
          </Trackpoint>
          <Trackpoint>
            <Time>2019-10-04T09:01:26.000Z</Time>
            <Position>
              <LatitudeDegrees>43.51524534635245800018310546875</LatitudeDegrees>
              <LongitudeDegrees>-5.678317286074161529541015625</LongitudeDegrees>
            </Position>
            <AltitudeMeters>44</AltitudeMeters>
            <DistanceMeters>171.07679819094</DistanceMeters>
          </Trackpoint>
          <Trackpoint>
            <Time>2019-10-04T09:01:30.000Z</Time>
            <Position>
              <LatitudeDegrees>43.5151017643511295318603515625</LatitudeDegrees>
              <LongitudeDegrees>-5.67834176123142242431640625</LongitudeDegrees>
            </Position>
            <AltitudeMeters>44.40000152587890625</AltitudeMeters>
            <DistanceMeters>187.17927051701</DistanceMeters>
          </Trackpoint>
          <Trackpoint>
            <Time>2019-10-04T09:01:35.000Z</Time>
            <Position>
              <LatitudeDegrees>43.514922559261322021484375</LatitudeDegrees>
              <LongitudeDegrees>-5.67835693247616291046142578125</LongitudeDegrees>
            </Position>
            <AltitudeMeters>45.200000762939453125</AltitudeMeters>
            <DistanceMeters>207.16269040905</DistanceMeters>
          </Trackpoint>
          <Trackpoint>
            <Time>2019-10-04T09:01:39.000Z</Time>
            <Position>
              <LatitudeDegrees>43.51476925425231456756591796875</LatitudeDegrees>
              <LongitudeDegrees>-5.678369589149951934814453125</LongitudeDegrees>
            </Position>
            <AltitudeMeters>45.59999847412109375</AltitudeMeters>
            <DistanceMeters>224.25640895048</DistanceMeters>
          </Trackpoint>
          <Trackpoint>
            <Time>2019-10-04T09:01:43.000Z</Time>
            <Position>
              <LatitudeDegrees>43.5146055556833744049072265625</LatitudeDegrees>
              <LongitudeDegrees>-5.67837528884410858154296875</LongitudeDegrees>
            </Position>
            <AltitudeMeters>46</AltitudeMeters>
            <DistanceMeters>242.48247331292</DistanceMeters>
          </Trackpoint>
          <Trackpoint>
            <Time>2019-10-04T09:01:44.000Z</Time>
            <Position>
              <LatitudeDegrees>43.5145669989287853240966796875</LatitudeDegrees>
              <LongitudeDegrees>-5.6783761270344257354736328125</LongitudeDegrees>
            </Position>
            <AltitudeMeters>46.40000152587890625</AltitudeMeters>
            <DistanceMeters>246.77553585872</DistanceMeters>
          </Trackpoint>
          <Trackpoint>
            <Time>2019-10-04T09:01:51.000Z</Time>
            <Position>
              <LatitudeDegrees>43.51433842442929744720458984375</LatitudeDegrees>
              <LongitudeDegrees>-5.67839314229786396026611328125</LongitudeDegrees>
            </Position>
            <AltitudeMeters>47.200000762939453125</AltitudeMeters>
            <DistanceMeters>272.25333040805</DistanceMeters>
          </Trackpoint>
          <Trackpoint>
            <Time>2019-10-04T09:01:54.000Z</Time>
            <Position>
              <LatitudeDegrees>43.51427690126001834869384765625</LatitudeDegrees>
              <LongitudeDegrees>-5.6783995963633060455322265625</LongitudeDegrees>
            </Position>
            <AltitudeMeters>47.59999847412109375</AltitudeMeters>
            <DistanceMeters>279.1202845502</DistanceMeters>
          </Trackpoint>
          <Trackpoint>
            <Time>2019-10-04T09:01:56.000Z</Time>
            <Position>
              <LatitudeDegrees>43.5142746381461620330810546875</LatitudeDegrees>
              <LongitudeDegrees>-5.67839951254427433013916015625</LongitudeDegrees>
            </Position>
            <AltitudeMeters>48</AltitudeMeters>
            <DistanceMeters>279.37170160433</DistanceMeters>
          </Trackpoint>
          <Trackpoint>
            <Time>2019-10-04T09:02:02.000Z</Time>
            <Position>
              <LatitudeDegrees>43.5142696090042591094970703125</LatitudeDegrees>
              <LongitudeDegrees>-5.678403116762638092041015625</LongitudeDegrees>
            </Position>
            <AltitudeMeters>48</AltitudeMeters>
            <DistanceMeters>280.00203751758</DistanceMeters>
          </Trackpoint>
          <Trackpoint>
            <Time>2019-10-04T09:02:06.000Z</Time>
            <Position>
              <LatitudeDegrees>43.5142696090042591094970703125</LatitudeDegrees>
              <LongitudeDegrees>-5.678403116762638092041015625</LongitudeDegrees>
            </Position>
            <AltitudeMeters>47.799999237060546875</AltitudeMeters>
            <DistanceMeters>280.00203751758</DistanceMeters>
          </Trackpoint>
          <Trackpoint>
            <Time>2019-10-04T09:02:10.000Z</Time>
            <Position>
              <LatitudeDegrees>43.5142696090042591094970703125</LatitudeDegrees>
              <LongitudeDegrees>-5.678403116762638092041015625</LongitudeDegrees>
            </Position>
            <AltitudeMeters>47.799999237060546875</AltitudeMeters>
            <DistanceMeters>280.00203751758</DistanceMeters>
          </Trackpoint>
          <Trackpoint>
            <Time>2019-10-04T09:02:13.000Z</Time>
            <Position>
              <LatitudeDegrees>43.5142696090042591094970703125</LatitudeDegrees>
              <LongitudeDegrees>-5.678403116762638092041015625</LongitudeDegrees>
            </Position>
            <AltitudeMeters>48.200000762939453125</AltitudeMeters>
            <DistanceMeters>280.00203751758</DistanceMeters>
          </Trackpoint>
          <Trackpoint>
            <Time>2019-10-04T09:02:16.000Z</Time>
            <Position>
              <LatitudeDegrees>43.5142696090042591094970703125</LatitudeDegrees>
              <LongitudeDegrees>-5.678403116762638092041015625</LongitudeDegrees>
            </Position>
            <AltitudeMeters>48</AltitudeMeters>
            <DistanceMeters>280.00203751758</DistanceMeters>
          </Trackpoint>
          <Trackpoint>
            <Time>2019-10-04T09:02:19.000Z</Time>
            <Position>
              <LatitudeDegrees>43.51426097564399242401123046875</LatitudeDegrees>
              <LongitudeDegrees>-5.67840403877198696136474609375</LongitudeDegrees>
            </Position>
            <AltitudeMeters>48</AltitudeMeters>
            <DistanceMeters>280.97112365935</DistanceMeters>
          </Trackpoint>
          <Trackpoint>
            <Time>2019-10-04T09:02:20.000Z</Time>
            <Position>
              <LatitudeDegrees>43.51424991153180599212646484375</LatitudeDegrees>
              <LongitudeDegrees>-5.6784012727439403533935546875</LongitudeDegrees>
            </Position>
            <AltitudeMeters>48</AltitudeMeters>
            <DistanceMeters>282.21738733465</DistanceMeters>
          </Trackpoint>
          <Trackpoint>
            <Time>2019-10-04T09:02:23.000Z</Time>
            <Position>
              <LatitudeDegrees>43.5141916573047637939453125</LatitudeDegrees>
              <LongitudeDegrees>-5.67840353585779666900634765625</LongitudeDegrees>
            </Position>
            <AltitudeMeters>47.799999237060546875</AltitudeMeters>
            <DistanceMeters>288.70291707985</DistanceMeters>
          </Trackpoint>
          <Trackpoint>
            <Time>2019-10-04T09:02:26.000Z</Time>
            <Position>
              <LatitudeDegrees>43.51409870199859142303466796875</LatitudeDegrees>
              <LongitudeDegrees>-5.6784099899232387542724609375</LongitudeDegrees>
            </Position>
            <AltitudeMeters>48.200000762939453125</AltitudeMeters>
            <DistanceMeters>299.06170071421</DistanceMeters>
          </Trackpoint>
          <Trackpoint>
            <Time>2019-10-04T09:02:33.000Z</Time>
            <Position>
              <LatitudeDegrees>43.5138116218149662017822265625</LatitudeDegrees>
              <LongitudeDegrees>-5.67843287251889705657958984375</LongitudeDegrees>
            </Position>
            <AltitudeMeters>48</AltitudeMeters>
            <DistanceMeters>331.06765175274</DistanceMeters>
          </Trackpoint>
          <Trackpoint>
            <Time>2019-10-04T09:02:37.000Z</Time>
            <Position>
              <LatitudeDegrees>43.51360785774886608123779296875</LatitudeDegrees>
              <LongitudeDegrees>-5.67844502627849578857421875</LongitudeDegrees>
            </Position>
            <AltitudeMeters>47</AltitudeMeters>
            <DistanceMeters>353.7682987133</DistanceMeters>
          </Trackpoint>
          <Trackpoint>
            <Time>2019-10-04T09:02:40.000Z</Time>
            <Position>
              <LatitudeDegrees>43.51343167014420032501220703125</LatitudeDegrees>
              <LongitudeDegrees>-5.67845516838133335113525390625</LongitudeDegrees>
            </Position>
            <AltitudeMeters>46.59999847412109375</AltitudeMeters>
            <DistanceMeters>373.39516884134</DistanceMeters>
          </Trackpoint>
          <Trackpoint>
            <Time>2019-10-04T09:02:44.000Z</Time>
            <Position>
              <LatitudeDegrees>43.5131742618978023529052734375</LatitudeDegrees>
              <LongitudeDegrees>-5.6784686632454395294189453125</LongitudeDegrees>
            </Position>
            <AltitudeMeters>45.200000762939453125</AltitudeMeters>
            <DistanceMeters>402.0658482664</DistanceMeters>
          </Trackpoint>
          <Trackpoint>
            <Time>2019-10-04T09:02:47.000Z</Time>
            <Position>
              <LatitudeDegrees>43.5129700787365436553955078125</LatitudeDegrees>
              <LongitudeDegrees>-5.67847796715795993804931640625</LongitudeDegrees>
            </Position>
            <AltitudeMeters>44.200000762939453125</AltitudeMeters>
            <DistanceMeters>424.80445237985</DistanceMeters>
          </Trackpoint>
          <Trackpoint>
            <Time>2019-10-04T09:02:48.000Z</Time>
            <Position>
              <LatitudeDegrees>43.5129003413021564483642578125</LatitudeDegrees>
              <LongitudeDegrees>-5.6784827448427677154541015625</LongitudeDegrees>
            </Position>
            <AltitudeMeters>44.200000762939453125</AltitudeMeters>
            <DistanceMeters>432.57517443</DistanceMeters>
          </Trackpoint>
          <Trackpoint>
            <Time>2019-10-04T09:02:51.000Z</Time>
            <Position>
              <LatitudeDegrees>43.51268568076193332672119140625</LatitudeDegrees>
              <LongitudeDegrees>-5.6784931384027004241943359375</LongitudeDegrees>
            </Position>
            <AltitudeMeters>43.799999237060546875</AltitudeMeters>
            <DistanceMeters>456.48190148101</DistanceMeters>
          </Trackpoint>
          <Trackpoint>
            <Time>2019-10-04T09:02:53.000Z</Time>
            <Position>
              <LatitudeDegrees>43.51253966800868511199951171875</LatitudeDegrees>
              <LongitudeDegrees>-5.678512416779994964599609375</LongitudeDegrees>
            </Position>
            <AltitudeMeters>43.200000762939453125</AltitudeMeters>
            <DistanceMeters>472.80770119557</DistanceMeters>
          </Trackpoint>
          <Trackpoint>
            <Time>2019-10-04T09:02:54.000Z</Time>
            <Position>
              <LatitudeDegrees>43.51246456615626811981201171875</LatitudeDegrees>
              <LongitudeDegrees>-5.67851836793124675750732421875</LongitudeDegrees>
            </Position>
            <AltitudeMeters>43.200000762939453125</AltitudeMeters>
            <DistanceMeters>481.18084358722</DistanceMeters>
          </Trackpoint>
          <Trackpoint>
            <Time>2019-10-04T09:02:56.000Z</Time>
            <Position>
              <LatitudeDegrees>43.51231184788048267364501953125</LatitudeDegrees>
              <LongitudeDegrees>-5.67852289415895938873291015625</LongitudeDegrees>
            </Position>
            <AltitudeMeters>42</AltitudeMeters>
            <DistanceMeters>498.18266046212</DistanceMeters>
          </Trackpoint>
          <Trackpoint>
            <Time>2019-10-04T09:02:57.000Z</Time>
            <Position>
              <LatitudeDegrees>43.51224160753190517425537109375</LatitudeDegrees>
              <LongitudeDegrees>-5.67852255888283252716064453125</LongitudeDegrees>
            </Position>
            <AltitudeMeters>41.40000152587890625</AltitudeMeters>
            <DistanceMeters>506.00145944442</DistanceMeters>
          </Trackpoint>
          <Trackpoint>
            <Time>2019-10-04T09:03:03.000Z</Time>
            <Position>
              <LatitudeDegrees>43.51181429810822010040283203125</LatitudeDegrees>
              <LongitudeDegrees>-5.67854887805879116058349609375</LongitudeDegrees>
            </Position>
            <AltitudeMeters>42.40000152587890625</AltitudeMeters>
            <DistanceMeters>553.60927431825</DistanceMeters>
          </Trackpoint>
          <Trackpoint>
            <Time>2019-10-04T09:03:06.000Z</Time>
            <Position>
              <LatitudeDegrees>43.51161614991724491119384765625</LatitudeDegrees>
              <LongitudeDegrees>-5.67856078036129474639892578125</LongitudeDegrees>
            </Position>
            <AltitudeMeters>42.200000762939453125</AltitudeMeters>
            <DistanceMeters>575.68453434786</DistanceMeters>
          </Trackpoint>
          <Trackpoint>
            <Time>2019-10-04T09:03:14.000Z</Time>
            <Position>
              <LatitudeDegrees>43.5111039318144321441650390625</LatitudeDegrees>
              <LongitudeDegrees>-5.67858316004276275634765625</LongitudeDegrees>
            </Position>
            <AltitudeMeters>42.200000762939453125</AltitudeMeters>
            <DistanceMeters>632.72399807669</DistanceMeters>
          </Trackpoint>
          <Trackpoint>
            <Time>2019-10-04T09:03:16.000Z</Time>
            <Position>
              <LatitudeDegrees>43.51097778417170047760009765625</LatitudeDegrees>
              <LongitudeDegrees>-5.678592883050441741943359375</LongitudeDegrees>
            </Position>
            <AltitudeMeters>42.200000762939453125</AltitudeMeters>
            <DistanceMeters>646.78634653085</DistanceMeters>
          </Trackpoint>
          <Trackpoint>
            <Time>2019-10-04T09:03:22.000Z</Time>
            <Position>
              <LatitudeDegrees>43.51060395129024982452392578125</LatitudeDegrees>
              <LongitudeDegrees>-5.678612329065799713134765625</LongitudeDegrees>
            </Position>
            <AltitudeMeters>42.200000762939453125</AltitudeMeters>
            <DistanceMeters>688.4244243787</DistanceMeters>
          </Trackpoint>
          <Trackpoint>
            <Time>2019-10-04T09:03:24.000Z</Time>
            <Position>
              <LatitudeDegrees>43.51048417389392852783203125</LatitudeDegrees>
              <LongitudeDegrees>-5.678619705140590667724609375</LongitudeDegrees>
            </Position>
            <AltitudeMeters>42</AltitudeMeters>
            <DistanceMeters>701.76882798001</DistanceMeters>
          </Trackpoint>
          <Trackpoint>
            <Time>2019-10-04T09:03:25.000Z</Time>
            <Position>
              <LatitudeDegrees>43.51042491383850574493408203125</LatitudeDegrees>
              <LongitudeDegrees>-5.67862532101571559906005859375</LongitudeDegrees>
            </Position>
            <AltitudeMeters>42.40000152587890625</AltitudeMeters>
            <DistanceMeters>708.37984681139</DistanceMeters>
          </Trackpoint>
          <Trackpoint>
            <Time>2019-10-04T09:03:31.000Z</Time>
            <Position>
              <LatitudeDegrees>43.51010221056640148162841796875</LatitudeDegrees>
              <LongitudeDegrees>-5.67864476703107357025146484375</LongitudeDegrees>
            </Position>
            <AltitudeMeters>43.200000762939453125</AltitudeMeters>
            <DistanceMeters>744.33160646074</DistanceMeters>
          </Trackpoint>
          <Trackpoint>
            <Time>2019-10-04T09:03:32.000Z</Time>
            <Position>
              <LatitudeDegrees>43.51005225442349910736083984375</LatitudeDegrees>
              <LongitudeDegrees>-5.6786456890404224395751953125</LongitudeDegrees>
            </Position>
            <AltitudeMeters>43.200000762939453125</AltitudeMeters>
            <DistanceMeters>749.89290233676</DistanceMeters>
          </Trackpoint>
          <Trackpoint>
            <Time>2019-10-04T09:03:36.000Z</Time>
            <Position>
              <LatitudeDegrees>43.50985142402350902557373046875</LatitudeDegrees>
              <LongitudeDegrees>-5.678661949932575225830078125</LongitudeDegrees>
            </Position>
            <AltitudeMeters>44</AltitudeMeters>
            <DistanceMeters>772.28435013269</DistanceMeters>
          </Trackpoint>
          <Trackpoint>
            <Time>2019-10-04T09:03:39.000Z</Time>
            <Position>
              <LatitudeDegrees>43.5097054950892925262451171875</LatitudeDegrees>
              <LongitudeDegrees>-5.6786728464066982269287109375</LongitudeDegrees>
            </Position>
            <AltitudeMeters>44.799999237060546875</AltitudeMeters>
            <DistanceMeters>788.55030352645</DistanceMeters>
          </Trackpoint>
          <Trackpoint>
            <Time>2019-10-04T09:03:41.000Z</Time>
            <Position>
              <LatitudeDegrees>43.5096116177737712860107421875</LatitudeDegrees>
              <LongitudeDegrees>-5.67867896519601345062255859375</LongitudeDegrees>
            </Position>
            <AltitudeMeters>44.799999237060546875</AltitudeMeters>
            <DistanceMeters>799.0101508578</DistanceMeters>
          </Trackpoint>
          <Trackpoint>
            <Time>2019-10-04T09:03:47.000Z</Time>
            <Position>
              <LatitudeDegrees>43.50932990200817584991455078125</LatitudeDegrees>
              <LongitudeDegrees>-5.678698159754276275634765625</LongitudeDegrees>
            </Position>
            <AltitudeMeters>44.59999847412109375</AltitudeMeters>
            <DistanceMeters>830.40379039271</DistanceMeters>
          </Trackpoint>
          <Trackpoint>
            <Time>2019-10-04T09:03:51.000Z</Time>
            <Position>
              <LatitudeDegrees>43.50916461087763309478759765625</LatitudeDegrees>
              <LongitudeDegrees>-5.67873202264308929443359375</LongitudeDegrees>
            </Position>
            <AltitudeMeters>46</AltitudeMeters>
            <DistanceMeters>849.00282715312</DistanceMeters>
          </Trackpoint>
          <Trackpoint>
            <Time>2019-10-04T09:03:52.000Z</Time>
            <Position>
              <LatitudeDegrees>43.50914030335843563079833984375</LatitudeDegrees>
              <LongitudeDegrees>-5.67875674925744533538818359375</LongitudeDegrees>
            </Position>
            <AltitudeMeters>46</AltitudeMeters>
            <DistanceMeters>852.36521554649</DistanceMeters>
          </Trackpoint>
          <Trackpoint>
            <Time>2019-10-04T09:03:57.000Z</Time>
            <Position>
              <LatitudeDegrees>43.50900434888899326324462890625</LatitudeDegrees>
              <LongitudeDegrees>-5.67891835235059261322021484375</LongitudeDegrees>
            </Position>
            <AltitudeMeters>46.59999847412109375</AltitudeMeters>
            <DistanceMeters>872.34389015158</DistanceMeters>
          </Trackpoint>
          <Trackpoint>
            <Time>2019-10-04T09:03:59.000Z</Time>
            <Position>
              <LatitudeDegrees>43.50893385708332061767578125</LatitudeDegrees>
              <LongitudeDegrees>-5.678944252431392669677734375</LongitudeDegrees>
            </Position>
            <AltitudeMeters>47</AltitudeMeters>
            <DistanceMeters>880.46353226914</DistanceMeters>
          </Trackpoint>
          <Trackpoint>
            <Time>2019-10-04T09:04:02.000Z</Time>
            <Position>
              <LatitudeDegrees>43.5088233835995197296142578125</LatitudeDegrees>
              <LongitudeDegrees>-5.6789212860167026519775390625</LongitudeDegrees>
            </Position>
            <AltitudeMeters>48</AltitudeMeters>
            <DistanceMeters>892.89860480718</DistanceMeters>
          </Trackpoint>
          <Trackpoint>
            <Time>2019-10-04T09:04:03.000Z</Time>
            <Position>
              <LatitudeDegrees>43.50878776051104068756103515625</LatitudeDegrees>
              <LongitudeDegrees>-5.67890443839132785797119140625</LongitudeDegrees>
            </Position>
            <AltitudeMeters>48.200000762939453125</AltitudeMeters>
            <DistanceMeters>897.09056482129</DistanceMeters>
          </Trackpoint>
          <Trackpoint>
            <Time>2019-10-04T09:04:06.000Z</Time>
            <Position>
              <LatitudeDegrees>43.50869455374777317047119140625</LatitudeDegrees>
              <LongitudeDegrees>-5.67882481031119823455810546875</LongitudeDegrees>
            </Position>
            <AltitudeMeters>49.200000762939453125</AltitudeMeters>
            <DistanceMeters>909.29474774628</DistanceMeters>
          </Trackpoint>
          <Trackpoint>
            <Time>2019-10-04T09:04:08.000Z</Time>
            <Position>
              <LatitudeDegrees>43.50863403640687465667724609375</LatitudeDegrees>
              <LongitudeDegrees>-5.6787767820060253143310546875</LongitudeDegrees>
            </Position>
            <AltitudeMeters>49.200000762939453125</AltitudeMeters>
            <DistanceMeters>917.06663177357</DistanceMeters>
          </Trackpoint>
          <Trackpoint>
            <Time>2019-10-04T09:04:12.000Z</Time>
            <Position>
              <LatitudeDegrees>43.50849933922290802001953125</LatitudeDegrees>
              <LongitudeDegrees>-5.67877217195928096771240234375</LongitudeDegrees>
            </Position>
            <AltitudeMeters>49.799999237060546875</AltitudeMeters>
            <DistanceMeters>932.06340088939</DistanceMeters>
          </Trackpoint>
          <Trackpoint>
            <Time>2019-10-04T09:04:14.000Z</Time>
            <Position>
              <LatitudeDegrees>43.50843069143593311309814453125</LatitudeDegrees>
              <LongitudeDegrees>-5.67877653054893016815185546875</LongitudeDegrees>
            </Position>
            <AltitudeMeters>50.40000152587890625</AltitudeMeters>
            <DistanceMeters>939.71290383774</DistanceMeters>
          </Trackpoint>
          <Trackpoint>
            <Time>2019-10-04T09:04:17.000Z</Time>
            <Position>
              <LatitudeDegrees>43.50832633674144744873046875</LatitudeDegrees>
              <LongitudeDegrees>-5.67878474481403827667236328125</LongitudeDegrees>
            </Position>
            <AltitudeMeters>50.200000762939453125</AltitudeMeters>
            <DistanceMeters>951.34659567405</DistanceMeters>
          </Trackpoint>
          <Trackpoint>
            <Time>2019-10-04T09:04:21.000Z</Time>
            <Position>
              <LatitudeDegrees>43.508193232119083404541015625</LatitudeDegrees>
              <LongitudeDegrees>-5.67879279144108295440673828125</LongitudeDegrees>
            </Position>
            <AltitudeMeters>51.200000762939453125</AltitudeMeters>
            <DistanceMeters>966.17563547989</DistanceMeters>
          </Trackpoint>
          <Trackpoint>
            <Time>2019-10-04T09:04:22.000Z</Time>
            <Position>
              <LatitudeDegrees>43.50816003978252410888671875</LatitudeDegrees>
              <LongitudeDegrees>-5.67879396490752696990966796875</LongitudeDegrees>
            </Position>
            <AltitudeMeters>51.40000152587890625</AltitudeMeters>
            <DistanceMeters>969.87191816114</DistanceMeters>
          </Trackpoint>
          <Trackpoint>
            <Time>2019-10-04T09:04:23.000Z</Time>
            <Position>
              <LatitudeDegrees>43.5081276856362819671630859375</LatitudeDegrees>
              <LongitudeDegrees>-5.6787972338497638702392578125</LongitudeDegrees>
            </Position>
            <AltitudeMeters>51.59999847412109375</AltitudeMeters>
            <DistanceMeters>973.4829333072</DistanceMeters>
          </Trackpoint>
          <Trackpoint>
            <Time>2019-10-04T09:04:31.000Z</Time>
            <Position>
              <LatitudeDegrees>43.5078604705631732940673828125</LatitudeDegrees>
              <LongitudeDegrees>-5.67881139926612377166748046875</LongitudeDegrees>
            </Position>
            <AltitudeMeters>52.59999847412109375</AltitudeMeters>
            <DistanceMeters>1003.2466291359</DistanceMeters>
          </Trackpoint>
          <Trackpoint>
            <Time>2019-10-04T09:04:40.000Z</Time>
            <Position>
              <LatitudeDegrees>43.50756685249507427215576171875</LatitudeDegrees>
              <LongitudeDegrees>-5.67883126437664031982421875</LongitudeDegrees>
            </Position>
            <AltitudeMeters>54</AltitudeMeters>
            <DistanceMeters>1035.9661912187</DistanceMeters>
          </Trackpoint>
          <Trackpoint>
            <Time>2019-10-04T09:04:45.000Z</Time>
            <Position>
              <LatitudeDegrees>43.50739963352680206298828125</LatitudeDegrees>
              <LongitudeDegrees>-5.67884844727814197540283203125</LongitudeDegrees>
            </Position>
            <AltitudeMeters>54.799999237060546875</AltitudeMeters>
            <DistanceMeters>1054.6294475978</DistanceMeters>
          </Trackpoint>
          <Trackpoint>
            <Time>2019-10-04T09:04:46.000Z</Time>
            <Position>
              <LatitudeDegrees>43.5073666088283061981201171875</LatitudeDegrees>
              <LongitudeDegrees>-5.67885096184909343719482421875</LongitudeDegrees>
            </Position>
            <AltitudeMeters>55</AltitudeMeters>
            <DistanceMeters>1058.3122691817</DistanceMeters>
          </Trackpoint>
          <Trackpoint>
            <Time>2019-10-04T09:04:47.000Z</Time>
            <Position>
              <LatitudeDegrees>43.50733383558690547943115234375</LatitudeDegrees>
              <LongitudeDegrees>-5.67885515280067920684814453125</LongitudeDegrees>
            </Position>
            <AltitudeMeters>55.40000152587890625</AltitudeMeters>
            <DistanceMeters>1061.975422686</DistanceMeters>
          </Trackpoint>
          <Trackpoint>
            <Time>2019-10-04T09:04:52.000Z</Time>
            <Position>
              <LatitudeDegrees>43.50716955028474330902099609375</LatitudeDegrees>
              <LongitudeDegrees>-5.6788600981235504150390625</LongitudeDegrees>
            </Position>
            <AltitudeMeters>56.40000152587890625</AltitudeMeters>
            <DistanceMeters>1080.265041375</DistanceMeters>
          </Trackpoint>
          <Trackpoint>
            <Time>2019-10-04T09:04:56.000Z</Time>
            <Position>
              <LatitudeDegrees>43.50703879259526729583740234375</LatitudeDegrees>
              <LongitudeDegrees>-5.67886789329349994659423828125</LongitudeDegrees>
            </Position>
            <AltitudeMeters>56.799999237060546875</AltitudeMeters>
            <DistanceMeters>1094.8323608413</DistanceMeters>
          </Trackpoint>
          <Trackpoint>
            <Time>2019-10-04T09:05:00.000Z</Time>
            <Position>
              <LatitudeDegrees>43.506905771791934967041015625</LatitudeDegrees>
              <LongitudeDegrees>-5.6788911111652851104736328125</LongitudeDegrees>
            </Position>
            <AltitudeMeters>57.40000152587890625</AltitudeMeters>
            <DistanceMeters>1109.7560937997</DistanceMeters>
          </Trackpoint>
          <Trackpoint>
            <Time>2019-10-04T09:05:07.000Z</Time>
            <Position>
              <LatitudeDegrees>43.50667099468410015106201171875</LatitudeDegrees>
              <LongitudeDegrees>-5.67889136262238025665283203125</LongitudeDegrees>
            </Position>
            <AltitudeMeters>58</AltitudeMeters>
            <DistanceMeters>1135.8872307926</DistanceMeters>
          </Trackpoint>
          <Trackpoint>
            <Time>2019-10-04T09:05:09.000Z</Time>
            <Position>
              <LatitudeDegrees>43.50660276599228382110595703125</LatitudeDegrees>
              <LongitudeDegrees>-5.67890167236328125</LongitudeDegrees>
            </Position>
            <AltitudeMeters>58.40000152587890625</AltitudeMeters>
            <DistanceMeters>1143.5266930811</DistanceMeters>
          </Trackpoint>
          <Trackpoint>
            <Time>2019-10-04T09:05:15.000Z</Time>
            <Position>
              <LatitudeDegrees>43.5064020194113254547119140625</LatitudeDegrees>
              <LongitudeDegrees>-5.67891080863773822784423828125</LongitudeDegrees>
            </Position>
            <AltitudeMeters>59.59999847412109375</AltitudeMeters>
            <DistanceMeters>1165.8822199322</DistanceMeters>
          </Trackpoint>
          <Trackpoint>
            <Time>2019-10-04T09:05:16.000Z</Time>
            <Position>
              <LatitudeDegrees>43.50636941380798816680908203125</LatitudeDegrees>
              <LongitudeDegrees>-5.6789159215986728668212890625</LongitudeDegrees>
            </Position>
            <AltitudeMeters>59.40000152587890625</AltitudeMeters>
            <DistanceMeters>1169.5354996894</DistanceMeters>
          </Trackpoint>
          <Trackpoint>
            <Time>2019-10-04T09:05:22.000Z</Time>
            <Position>
              <LatitudeDegrees>43.50617386400699615478515625</LatitudeDegrees>
              <LongitudeDegrees>-5.67893452942371368408203125</LongitudeDegrees>
            </Position>
            <AltitudeMeters>60.59999847412109375</AltitudeMeters>
            <DistanceMeters>1191.3523585229</DistanceMeters>
          </Trackpoint>
          <Trackpoint>
            <Time>2019-10-04T09:05:26.000Z</Time>
            <Position>
              <LatitudeDegrees>43.5060439445078372955322265625</LatitudeDegrees>
              <LongitudeDegrees>-5.67894903011620044708251953125</LongitudeDegrees>
            </Position>
            <AltitudeMeters>61</AltitudeMeters>
            <DistanceMeters>1205.8600468899</DistanceMeters>
          </Trackpoint>
          <Trackpoint>
            <Time>2019-10-04T09:05:30.000Z</Time>
            <Position>
              <LatitudeDegrees>43.5059143602848052978515625</LatitudeDegrees>
              <LongitudeDegrees>-5.67896596156060695648193359375</LongitudeDegrees>
            </Position>
            <AltitudeMeters>61.799999237060546875</AltitudeMeters>
            <DistanceMeters>1220.3478036819</DistanceMeters>
          </Trackpoint>
          <Trackpoint>
            <Time>2019-10-04T09:05:36.000Z</Time>
            <Position>
              <LatitudeDegrees>43.50571964867413043975830078125</LatitudeDegrees>
              <LongitudeDegrees>-5.67901893518865108489990234375</LongitudeDegrees>
            </Position>
            <AltitudeMeters>62.40000152587890625</AltitudeMeters>
            <DistanceMeters>1242.437784915</DistanceMeters>
          </Trackpoint>
          <Trackpoint>
            <Time>2019-10-04T09:05:38.000Z</Time>
            <Position>
              <LatitudeDegrees>43.5056556947529315948486328125</LatitudeDegrees>
              <LongitudeDegrees>-5.6790386326611042022705078125</LongitudeDegrees>
            </Position>
            <AltitudeMeters>63</AltitudeMeters>
            <DistanceMeters>1249.7313560795</DistanceMeters>
          </Trackpoint>
          <Trackpoint>
            <Time>2019-10-04T09:05:42.000Z</Time>
            <Position>
              <LatitudeDegrees>43.5055306367576122283935546875</LatitudeDegrees>
              <LongitudeDegrees>-5.67909814417362213134765625</LongitudeDegrees>
            </Position>
            <AltitudeMeters>64.1999969482421875</AltitudeMeters>
            <DistanceMeters>1264.4562046524</DistanceMeters>
          </Trackpoint>
          <Trackpoint>
            <Time>2019-10-04T09:05:48.000Z</Time>
            <Position>
              <LatitudeDegrees>43.5053485818207263946533203125</LatitudeDegrees>
              <LongitudeDegrees>-5.67918875254690647125244140625</LongitudeDegrees>
            </Position>
            <AltitudeMeters>64.59999847412109375</AltitudeMeters>
            <DistanceMeters>1285.999203024</DistanceMeters>
          </Trackpoint>
          <Trackpoint>
            <Time>2019-10-04T09:05:55.000Z</Time>
            <Position>
              <LatitudeDegrees>43.5051370225846767425537109375</LatitudeDegrees>
              <LongitudeDegrees>-5.67931816913187503814697265625</LongitudeDegrees>
            </Position>
            <AltitudeMeters>65.59999847412109375</AltitudeMeters>
            <DistanceMeters>1311.7600321618</DistanceMeters>
          </Trackpoint>
          <Trackpoint>
            <Time>2019-10-04T09:06:00.000Z</Time>
            <Position>
              <LatitudeDegrees>43.504987321794033050537109375</LatitudeDegrees>
              <LongitudeDegrees>-5.67940031178295612335205078125</LongitudeDegrees>
            </Position>
            <AltitudeMeters>65.8000030517578125</AltitudeMeters>
            <DistanceMeters>1329.6931619075</DistanceMeters>
          </Trackpoint>
          <Trackpoint>
            <Time>2019-10-04T09:06:03.000Z</Time>
            <Position>
              <LatitudeDegrees>43.5048969648778438568115234375</LatitudeDegrees>
              <LongitudeDegrees>-5.6794526986777782440185546875</LongitudeDegrees>
            </Position>
            <AltitudeMeters>66.8000030517578125</AltitudeMeters>
            <DistanceMeters>1340.6026260342</DistanceMeters>
          </Trackpoint>
          <Trackpoint>
            <Time>2019-10-04T09:06:10.000Z</Time>
            <Position>
              <LatitudeDegrees>43.50468699820339679718017578125</LatitudeDegrees>
              <LongitudeDegrees>-5.67957700230181217193603515625</LongitudeDegrees>
            </Position>
            <AltitudeMeters>67.59999847412109375</AltitudeMeters>
            <DistanceMeters>1366.0357232862</DistanceMeters>
          </Trackpoint>
          <Trackpoint>
            <Time>2019-10-04T09:06:11.000Z</Time>
            <Position>
              <LatitudeDegrees>43.50465632043778896331787109375</LatitudeDegrees>
              <LongitudeDegrees>-5.67959527485072612762451171875</LongitudeDegrees>
            </Position>
            <AltitudeMeters>67.8000030517578125</AltitudeMeters>
            <DistanceMeters>1369.7563559191</DistanceMeters>
          </Trackpoint>
          <Trackpoint>
            <Time>2019-10-04T09:06:18.000Z</Time>
            <Position>
              <LatitudeDegrees>43.50444274954497814178466796875</LatitudeDegrees>
              <LongitudeDegrees>-5.6797179020941257476806640625</LongitudeDegrees>
            </Position>
            <AltitudeMeters>69</AltitudeMeters>
            <DistanceMeters>1395.506316174</DistanceMeters>
          </Trackpoint>
          <Trackpoint>
            <Time>2019-10-04T09:06:22.000Z</Time>
            <Position>
              <LatitudeDegrees>43.50431769154965877532958984375</LatitudeDegrees>
              <LongitudeDegrees>-5.67978923209011554718017578125</LongitudeDegrees>
            </Position>
            <AltitudeMeters>69.8000030517578125</AltitudeMeters>
            <DistanceMeters>1410.5697739737</DistanceMeters>
          </Trackpoint>
          <Trackpoint>
            <Time>2019-10-04T09:06:25.000Z</Time>
            <Position>
              <LatitudeDegrees>43.50422699935734272003173828125</LatitudeDegrees>
              <LongitudeDegrees>-5.67984790541231632232666015625</LongitudeDegrees>
            </Position>
            <AltitudeMeters>70.40000152587890625</AltitudeMeters>
            <DistanceMeters>1421.7207449015</DistanceMeters>
          </Trackpoint>
          <Trackpoint>
            <Time>2019-10-04T09:06:32.000Z</Time>
            <Position>
              <LatitudeDegrees>43.5040260851383209228515625</LatitudeDegrees>
              <LongitudeDegrees>-5.67999861203134059906005859375</LongitudeDegrees>
            </Position>
            <AltitudeMeters>71.1999969482421875</AltitudeMeters>
            <DistanceMeters>1447.1785063204</DistanceMeters>
          </Trackpoint>
          <Trackpoint>
            <Time>2019-10-04T09:06:34.000Z</Time>
            <Position>
              <LatitudeDegrees>43.50397135131061077117919921875</LatitudeDegrees>
              <LongitudeDegrees>-5.68004454486072063446044921875</LongitudeDegrees>
            </Position>
            <AltitudeMeters>71.40000152587890625</AltitudeMeters>
            <DistanceMeters>1454.3105761888</DistanceMeters>
          </Trackpoint>
          <Trackpoint>
            <Time>2019-10-04T09:06:41.000Z</Time>
            <Position>
              <LatitudeDegrees>43.50378175266087055206298828125</LatitudeDegrees>
              <LongitudeDegrees>-5.68027052097022533416748046875</LongitudeDegrees>
            </Position>
            <AltitudeMeters>72.40000152587890625</AltitudeMeters>
            <DistanceMeters>1482.2058943875</DistanceMeters>
          </Trackpoint>
          <Trackpoint>
            <Time>2019-10-04T09:06:47.000Z</Time>
            <Position>
              <LatitudeDegrees>43.503663651645183563232421875</LatitudeDegrees>
              <LongitudeDegrees>-5.6804306991398334503173828125</LongitudeDegrees>
            </Position>
            <AltitudeMeters>73.59999847412109375</AltitudeMeters>
            <DistanceMeters>1500.6454849042</DistanceMeters>
          </Trackpoint>
          <Trackpoint>
            <Time>2019-10-04T09:06:49.000Z</Time>
            <Position>
              <LatitudeDegrees>43.5036286152899265289306640625</LatitudeDegrees>
              <LongitudeDegrees>-5.6804809905588626861572265625</LongitudeDegrees>
            </Position>
            <AltitudeMeters>74</AltitudeMeters>
            <DistanceMeters>1506.2753666363</DistanceMeters>
          </Trackpoint>
          <Trackpoint>
            <Time>2019-10-04T09:06:57.000Z</Time>
            <Position>
              <LatitudeDegrees>43.5034888051450252532958984375</LatitudeDegrees>
              <LongitudeDegrees>-5.6806798093020915985107421875</LongitudeDegrees>
            </Position>
            <AltitudeMeters>74.59999847412109375</AltitudeMeters>
            <DistanceMeters>1528.6310954517</DistanceMeters>
          </Trackpoint>
          <Trackpoint>
            <Time>2019-10-04T09:06:58.000Z</Time>
            <Position>
              <LatitudeDegrees>43.5034683533012866973876953125</LatitudeDegrees>
              <LongitudeDegrees>-5.6807086430490016937255859375</LongitudeDegrees>
            </Position>
            <AltitudeMeters>74.8000030517578125</AltitudeMeters>
            <DistanceMeters>1531.8870607073</DistanceMeters>
          </Trackpoint>
          <Trackpoint>
            <Time>2019-10-04T09:07:02.000Z</Time>
            <Position>
              <LatitudeDegrees>43.5033935867249965667724609375</LatitudeDegrees>
              <LongitudeDegrees>-5.680819451808929443359375</LongitudeDegrees>
            </Position>
            <AltitudeMeters>75.8000030517578125</AltitudeMeters>
            <DistanceMeters>1544.1045548701</DistanceMeters>
          </Trackpoint>
          <Trackpoint>
            <Time>2019-10-04T09:07:07.000Z</Time>
            <Position>
              <LatitudeDegrees>43.5033007152378559112548828125</LatitudeDegrees>
              <LongitudeDegrees>-5.6809554062783718109130859375</LongitudeDegrees>
            </Position>
            <AltitudeMeters>76</AltitudeMeters>
            <DistanceMeters>1559.1817941532</DistanceMeters>
          </Trackpoint>
          <Trackpoint>
            <Time>2019-10-04T09:07:10.000Z</Time>
            <Position>
              <LatitudeDegrees>43.503248579800128936767578125</LatitudeDegrees>
              <LongitudeDegrees>-5.68104014731943607330322265625</LongitudeDegrees>
            </Position>
            <AltitudeMeters>76.8000030517578125</AltitudeMeters>
            <DistanceMeters>1568.1526381084</DistanceMeters>
          </Trackpoint>
          <Trackpoint>
            <Time>2019-10-04T09:07:15.000Z</Time>
            <Position>
              <LatitudeDegrees>43.5031655989587306976318359375</LatitudeDegrees>
              <LongitudeDegrees>-5.68118515424430370330810546875</LongitudeDegrees>
            </Position>
            <AltitudeMeters>77.59999847412109375</AltitudeMeters>
            <DistanceMeters>1583.0642645239</DistanceMeters>
          </Trackpoint>
          <Trackpoint>
            <Time>2019-10-04T09:07:20.000Z</Time>
            <Position>
              <LatitudeDegrees>43.5030884854495525360107421875</LatitudeDegrees>
              <LongitudeDegrees>-5.6813634373247623443603515625</LongitudeDegrees>
            </Position>
            <AltitudeMeters>77.8000030517578125</AltitudeMeters>
            <DistanceMeters>1599.8224081385</DistanceMeters>
          </Trackpoint>
          <Trackpoint>
            <Time>2019-10-04T09:07:22.000Z</Time>
            <Position>
              <LatitudeDegrees>43.50306392647325992584228515625</LatitudeDegrees>
              <LongitudeDegrees>-5.6814348511397838592529296875</LongitudeDegrees>
            </Position>
            <AltitudeMeters>78.1999969482421875</AltitudeMeters>
            <DistanceMeters>1606.2026577112</DistanceMeters>
          </Trackpoint>
          <Trackpoint>
            <Time>2019-10-04T09:07:24.000Z</Time>
            <Position>
              <LatitudeDegrees>43.50303693674504756927490234375</LatitudeDegrees>
              <LongitudeDegrees>-5.6815122999250888824462890625</LongitudeDegrees>
            </Position>
            <AltitudeMeters>78.8000030517578125</AltitudeMeters>
            <DistanceMeters>1613.1389569617</DistanceMeters>
          </Trackpoint>
          <Trackpoint>
            <Time>2019-10-04T09:07:31.000Z</Time>
            <Position>
              <LatitudeDegrees>43.50296552293002605438232421875</LatitudeDegrees>
              <LongitudeDegrees>-5.681790411472320556640625</LongitudeDegrees>
            </Position>
            <AltitudeMeters>79.59999847412109375</AltitudeMeters>
            <DistanceMeters>1636.9569437037</DistanceMeters>
          </Trackpoint>
          <Trackpoint>
            <Time>2019-10-04T09:07:37.000Z</Time>
            <Position>
              <LatitudeDegrees>43.50293434225022792816162109375</LatitudeDegrees>
              <LongitudeDegrees>-5.6820266135036945343017578125</LongitudeDegrees>
            </Position>
            <AltitudeMeters>79.59999847412109375</AltitudeMeters>
            <DistanceMeters>1656.3391324403</DistanceMeters>
          </Trackpoint>
          <Trackpoint>
            <Time>2019-10-04T09:07:38.000Z</Time>
            <Position>
              <LatitudeDegrees>43.50292973220348358154296875</LatitudeDegrees>
              <LongitudeDegrees>-5.682073049247264862060546875</LongitudeDegrees>
            </Position>
            <AltitudeMeters>80</AltitudeMeters>
            <DistanceMeters>1660.1223415494</DistanceMeters>
          </Trackpoint>
          <Trackpoint>
            <Time>2019-10-04T09:07:44.000Z</Time>
            <Position>
              <LatitudeDegrees>43.5029185004532337188720703125</LatitudeDegrees>
              <LongitudeDegrees>-5.68237571977078914642333984375</LongitudeDegrees>
            </Position>
            <AltitudeMeters>79.8000030517578125</AltitudeMeters>
            <DistanceMeters>1684.5894600511</DistanceMeters>
          </Trackpoint>
          <Trackpoint>
            <Time>2019-10-04T09:07:54.000Z</Time>
            <Position>
              <LatitudeDegrees>43.50293685682117938995361328125</LatitudeDegrees>
              <LongitudeDegrees>-5.68291517905890941619873046875</LongitudeDegrees>
            </Position>
            <AltitudeMeters>80.59999847412109375</AltitudeMeters>
            <DistanceMeters>1728.1888101847</DistanceMeters>
          </Trackpoint>
          <Trackpoint>
            <Time>2019-10-04T09:08:00.000Z</Time>
            <Position>
              <LatitudeDegrees>43.5029329173266887664794921875</LatitudeDegrees>
              <LongitudeDegrees>-5.68323754705488681793212890625</LongitudeDegrees>
            </Position>
            <AltitudeMeters>81.1999969482421875</AltitudeMeters>
            <DistanceMeters>1754.2178050835</DistanceMeters>
          </Trackpoint>
          <Trackpoint>
            <Time>2019-10-04T09:08:01.000Z</Time>
            <Position>
              <LatitudeDegrees>43.5029285587370395660400390625</LatitudeDegrees>
              <LongitudeDegrees>-5.6832892633974552154541015625</LongitudeDegrees>
            </Position>
            <AltitudeMeters>81.40000152587890625</AltitudeMeters>
            <DistanceMeters>1758.4205220052</DistanceMeters>
          </Trackpoint>
          <Trackpoint>
            <Time>2019-10-04T09:08:04.000Z</Time>
            <Position>
              <LatitudeDegrees>43.5029077716171741485595703125</LatitudeDegrees>
              <LongitudeDegrees>-5.68342857062816619873046875</LongitudeDegrees>
            </Position>
            <AltitudeMeters>81.8000030517578125</AltitudeMeters>
            <DistanceMeters>1769.9026435897</DistanceMeters>
          </Trackpoint>
          <Trackpoint>
            <Time>2019-10-04T09:08:05.000Z</Time>
            <Position>
              <LatitudeDegrees>43.50289486348628997802734375</LatitudeDegrees>
              <LongitudeDegrees>-5.6834760122001171112060546875</LongitudeDegrees>
            </Position>
            <AltitudeMeters>81.8000030517578125</AltitudeMeters>
            <DistanceMeters>1773.993209767</DistanceMeters>
          </Trackpoint>
          <Trackpoint>
            <Time>2019-10-04T09:08:07.000Z</Time>
            <Position>
              <LatitudeDegrees>43.5028668679296970367431640625</LatitudeDegrees>
              <LongitudeDegrees>-5.683567710220813751220703125</LongitudeDegrees>
            </Position>
            <AltitudeMeters>82.1999969482421875</AltitudeMeters>
            <DistanceMeters>1782.0250754354</DistanceMeters>
          </Trackpoint>
          <Trackpoint>
            <Time>2019-10-04T09:08:12.000Z</Time>
            <Position>
              <LatitudeDegrees>43.50277558900415897369384765625</LatitudeDegrees>
              <LongitudeDegrees>-5.6838092766702175140380859375</LongitudeDegrees>
            </Position>
            <AltitudeMeters>83.1999969482421875</AltitudeMeters>
            <DistanceMeters>1804.0146760098</DistanceMeters>
          </Trackpoint>
          <Trackpoint>
            <Time>2019-10-04T09:08:13.000Z</Time>
            <Position>
              <LatitudeDegrees>43.50275664590299129486083984375</LatitudeDegrees>
              <LongitudeDegrees>-5.68385303020477294921875</LongitudeDegrees>
            </Position>
            <AltitudeMeters>83.40000152587890625</AltitudeMeters>
            <DistanceMeters>1808.1283560236</DistanceMeters>
          </Trackpoint>
          <Trackpoint>
            <Time>2019-10-04T09:08:20.000Z</Time>
            <Position>
              <LatitudeDegrees>43.50258397869765758514404296875</LatitudeDegrees>
              <LongitudeDegrees>-5.68415352143347263336181640625</LongitudeDegrees>
            </Position>
            <AltitudeMeters>84.40000152587890625</AltitudeMeters>
            <DistanceMeters>1839.0774642279</DistanceMeters>
          </Trackpoint>
          <Trackpoint>
            <Time>2019-10-04T09:08:21.000Z</Time>
            <Position>
              <LatitudeDegrees>43.50255782715976238250732421875</LatitudeDegrees>
              <LongitudeDegrees>-5.68419341929256916046142578125</LongitudeDegrees>
            </Position>
            <AltitudeMeters>84.40000152587890625</AltitudeMeters>
            <DistanceMeters>1843.4186356756</DistanceMeters>
          </Trackpoint>
          <Trackpoint>
            <Time>2019-10-04T09:08:25.000Z</Time>
            <Position>
              <LatitudeDegrees>43.502444922924041748046875</LatitudeDegrees>
              <LongitudeDegrees>-5.6843530945479869842529296875</LongitudeDegrees>
            </Position>
            <AltitudeMeters>84.59999847412109375</AltitudeMeters>
            <DistanceMeters>1861.421370847</DistanceMeters>
          </Trackpoint>
          <Trackpoint>
            <Time>2019-10-04T09:08:31.000Z</Time>
            <Position>
              <LatitudeDegrees>43.50225649774074554443359375</LatitudeDegrees>
              <LongitudeDegrees>-5.68456239067018032073974609375</LongitudeDegrees>
            </Position>
            <AltitudeMeters>84.8000030517578125</AltitudeMeters>
            <DistanceMeters>1888.3536919582</DistanceMeters>
          </Trackpoint>
          <Trackpoint>
            <Time>2019-10-04T09:08:33.000Z</Time>
            <Position>
              <LatitudeDegrees>43.50218583829700946807861328125</LatitudeDegrees>
              <LongitudeDegrees>-5.6846260093152523040771484375</LongitudeDegrees>
            </Position>
            <AltitudeMeters>84.8000030517578125</AltitudeMeters>
            <DistanceMeters>1897.7469276592</DistanceMeters>
          </Trackpoint>
          <Trackpoint>
            <Time>2019-10-04T09:08:37.000Z</Time>
            <Position>
              <LatitudeDegrees>43.50205994211137294769287109375</LatitudeDegrees>
              <LongitudeDegrees>-5.68476540036499500274658203125</LongitudeDegrees>
            </Position>
            <AltitudeMeters>85</AltitudeMeters>
            <DistanceMeters>1915.7187882821</DistanceMeters>
          </Trackpoint>
          <Trackpoint>
            <Time>2019-10-04T09:08:39.000Z</Time>
            <Position>
              <LatitudeDegrees>43.5019901208579540252685546875</LatitudeDegrees>
              <LongitudeDegrees>-5.68482256494462490081787109375</LongitudeDegrees>
            </Position>
            <AltitudeMeters>84.8000030517578125</AltitudeMeters>
            <DistanceMeters>1924.7578220615</DistanceMeters>
          </Trackpoint>
          <Trackpoint>
            <Time>2019-10-04T09:08:42.000Z</Time>
            <Position>
              <LatitudeDegrees>43.50188610143959522247314453125</LatitudeDegrees>
              <LongitudeDegrees>-5.68490655161440372467041015625</LongitudeDegrees>
            </Position>
            <AltitudeMeters>85.8000030517578125</AltitudeMeters>
            <DistanceMeters>1938.1744365313</DistanceMeters>
          </Trackpoint>
          <Trackpoint>
            <Time>2019-10-04T09:08:47.000Z</Time>
            <Position>
              <LatitudeDegrees>43.5017068125307559967041015625</LatitudeDegrees>
              <LongitudeDegrees>-5.68504401482641696929931640625</LongitudeDegrees>
            </Position>
            <AltitudeMeters>86</AltitudeMeters>
            <DistanceMeters>1961.0077563419</DistanceMeters>
          </Trackpoint>
          <Trackpoint>
            <Time>2019-10-04T09:08:56.000Z</Time>
            <Position>
              <LatitudeDegrees>43.50136122666299343109130859375</LatitudeDegrees>
              <LongitudeDegrees>-5.68530318327248096466064453125</LongitudeDegrees>
            </Position>
            <AltitudeMeters>86</AltitudeMeters>
            <DistanceMeters>2004.7947629864</DistanceMeters>
          </Trackpoint>
          <Trackpoint>
            <Time>2019-10-04T09:08:57.000Z</Time>
            <Position>
              <LatitudeDegrees>43.50132032297551631927490234375</LatitudeDegrees>
              <LongitudeDegrees>-5.68533285520970821380615234375</LongitudeDegrees>
            </Position>
            <AltitudeMeters>86.40000152587890625</AltitudeMeters>
            <DistanceMeters>2009.9402643356</DistanceMeters>
          </Trackpoint>
          <Trackpoint>
            <Time>2019-10-04T09:09:04.000Z</Time>
            <Position>
              <LatitudeDegrees>43.50102695636451244354248046875</LatitudeDegrees>
              <LongitudeDegrees>-5.68555329926311969757080078125</LongitudeDegrees>
            </Position>
            <AltitudeMeters>86</AltitudeMeters>
            <DistanceMeters>2047.1278978592</DistanceMeters>
          </Trackpoint>
          <Trackpoint>
            <Time>2019-10-04T09:09:07.000Z</Time>
            <Position>
              <LatitudeDegrees>43.50087893195450305938720703125</LatitudeDegrees>
              <LongitudeDegrees>-5.685660503804683685302734375</LongitudeDegrees>
            </Position>
            <AltitudeMeters>85.8000030517578125</AltitudeMeters>
            <DistanceMeters>2065.7383406806</DistanceMeters>
          </Trackpoint>
          <Trackpoint>
            <Time>2019-10-04T09:09:14.000Z</Time>
            <Position>
              <LatitudeDegrees>43.50061473436653614044189453125</LatitudeDegrees>
              <LongitudeDegrees>-5.685863681137561798095703125</LongitudeDegrees>
            </Position>
            <AltitudeMeters>85.8000030517578125</AltitudeMeters>
            <DistanceMeters>2099.4097264235</DistanceMeters>
          </Trackpoint>
          <Trackpoint>
            <Time>2019-10-04T09:09:17.000Z</Time>
            <Position>
              <LatitudeDegrees>43.50049428641796112060546875</LatitudeDegrees>
              <LongitudeDegrees>-5.68595211021602153778076171875</LongitudeDegrees>
            </Position>
            <AltitudeMeters>85.8000030517578125</AltitudeMeters>
            <DistanceMeters>2114.5982537686</DistanceMeters>
          </Trackpoint>
          <Trackpoint>
            <Time>2019-10-04T09:09:18.000Z</Time>
            <Position>
              <LatitudeDegrees>43.5004585795104503631591796875</LatitudeDegrees>
              <LongitudeDegrees>-5.685983709990978240966796875</LongitudeDegrees>
            </Position>
            <AltitudeMeters>85.8000030517578125</AltitudeMeters>
            <DistanceMeters>2119.3209954317</DistanceMeters>
          </Trackpoint>
          <Trackpoint>
            <Time>2019-10-04T09:09:23.000Z</Time>
            <Position>
              <LatitudeDegrees>43.500309884548187255859375</LatitudeDegrees>
              <LongitudeDegrees>-5.68608907051384449005126953125</LongitudeDegrees>
            </Position>
            <AltitudeMeters>86.40000152587890625</AltitudeMeters>
            <DistanceMeters>2137.929254655</DistanceMeters>
          </Trackpoint>
          <Trackpoint>
            <Time>2019-10-04T09:09:24.000Z</Time>
            <Position>
              <LatitudeDegrees>43.50028918124735355377197265625</LatitudeDegrees>
              <LongitudeDegrees>-5.6861039064824581146240234375</LongitudeDegrees>
            </Position>
            <AltitudeMeters>86.59999847412109375</AltitudeMeters>
            <DistanceMeters>2140.528196205</DistanceMeters>
          </Trackpoint>
          <Trackpoint>
            <Time>2019-10-04T09:09:28.000Z</Time>
            <Position>
              <LatitudeDegrees>43.50026587955653667449951171875</LatitudeDegrees>
              <LongitudeDegrees>-5.68612377159297466278076171875</LongitudeDegrees>
            </Position>
            <AltitudeMeters>86.59999847412109375</AltitudeMeters>
            <DistanceMeters>2143.5794269097</DistanceMeters>
          </Trackpoint>
          <Trackpoint>
            <Time>2019-10-04T09:09:29.000Z</Time>
            <Position>
              <LatitudeDegrees>43.5002668015658855438232421875</LatitudeDegrees>
              <LongitudeDegrees>-5.68612460978329181671142578125</LongitudeDegrees>
            </Position>
            <AltitudeMeters>87.1999969482421875</AltitudeMeters>
            <DistanceMeters>2143.7440180071</DistanceMeters>
          </Trackpoint>
          <Trackpoint>
            <Time>2019-10-04T09:09:31.000Z</Time>
            <Position>
              <LatitudeDegrees>43.50027300417423248291015625</LatitudeDegrees>
              <LongitudeDegrees>-5.68612008355557918548583984375</LongitudeDegrees>
            </Position>
            <AltitudeMeters>87</AltitudeMeters>
            <DistanceMeters>2144.521845187</DistanceMeters>
          </Trackpoint>
          <Trackpoint>
            <Time>2019-10-04T09:09:32.000Z</Time>
            <Position>
              <LatitudeDegrees>43.50027300417423248291015625</LatitudeDegrees>
              <LongitudeDegrees>-5.68612008355557918548583984375</LongitudeDegrees>
            </Position>
            <AltitudeMeters>86.8000030517578125</AltitudeMeters>
            <DistanceMeters>2144.521845187</DistanceMeters>
          </Trackpoint>
          <Trackpoint>
            <Time>2019-10-04T09:09:33.000Z</Time>
            <Position>
              <LatitudeDegrees>43.50027300417423248291015625</LatitudeDegrees>
              <LongitudeDegrees>-5.68612008355557918548583984375</LongitudeDegrees>
            </Position>
            <AltitudeMeters>86.59999847412109375</AltitudeMeters>
            <DistanceMeters>2144.521845187</DistanceMeters>
          </Trackpoint>
          <Trackpoint>
            <Time>2019-10-04T09:09:34.000Z</Time>
            <Position>
              <LatitudeDegrees>43.50027300417423248291015625</LatitudeDegrees>
              <LongitudeDegrees>-5.68612008355557918548583984375</LongitudeDegrees>
            </Position>
            <AltitudeMeters>86.59999847412109375</AltitudeMeters>
            <DistanceMeters>2144.521845187</DistanceMeters>
          </Trackpoint>
          <Trackpoint>
            <Time>2019-10-04T09:09:35.000Z</Time>
            <Position>
              <LatitudeDegrees>43.50027300417423248291015625</LatitudeDegrees>
              <LongitudeDegrees>-5.68612008355557918548583984375</LongitudeDegrees>
            </Position>
            <AltitudeMeters>86.59999847412109375</AltitudeMeters>
            <DistanceMeters>2144.521845187</DistanceMeters>
          </Trackpoint>
          <Trackpoint>
            <Time>2019-10-04T09:09:39.000Z</Time>
            <Position>
              <LatitudeDegrees>43.50027300417423248291015625</LatitudeDegrees>
              <LongitudeDegrees>-5.68612008355557918548583984375</LongitudeDegrees>
            </Position>
            <AltitudeMeters>86.59999847412109375</AltitudeMeters>
            <DistanceMeters>2144.521845187</DistanceMeters>
          </Trackpoint>
          <Trackpoint>
            <Time>2019-10-04T09:09:41.000Z</Time>
            <Position>
              <LatitudeDegrees>43.50027300417423248291015625</LatitudeDegrees>
              <LongitudeDegrees>-5.68612008355557918548583984375</LongitudeDegrees>
            </Position>
            <AltitudeMeters>86.59999847412109375</AltitudeMeters>
            <DistanceMeters>2144.521845187</DistanceMeters>
          </Trackpoint>
          <Trackpoint>
            <Time>2019-10-04T09:09:45.000Z</Time>
            <Position>
              <LatitudeDegrees>43.50027300417423248291015625</LatitudeDegrees>
              <LongitudeDegrees>-5.68612008355557918548583984375</LongitudeDegrees>
            </Position>
            <AltitudeMeters>87</AltitudeMeters>
            <DistanceMeters>2144.521845187</DistanceMeters>
          </Trackpoint>
          <Trackpoint>
            <Time>2019-10-04T09:09:49.000Z</Time>
            <Position>
              <LatitudeDegrees>43.50027300417423248291015625</LatitudeDegrees>
              <LongitudeDegrees>-5.68612008355557918548583984375</LongitudeDegrees>
            </Position>
            <AltitudeMeters>86.8000030517578125</AltitudeMeters>
            <DistanceMeters>2144.521845187</DistanceMeters>
          </Trackpoint>
          <Trackpoint>
            <Time>2019-10-04T09:09:52.000Z</Time>
            <Position>
              <LatitudeDegrees>43.50027300417423248291015625</LatitudeDegrees>
              <LongitudeDegrees>-5.68612008355557918548583984375</LongitudeDegrees>
            </Position>
            <AltitudeMeters>86.8000030517578125</AltitudeMeters>
            <DistanceMeters>2144.521845187</DistanceMeters>
          </Trackpoint>
          <Trackpoint>
            <Time>2019-10-04T09:09:55.000Z</Time>
            <Position>
              <LatitudeDegrees>43.50027300417423248291015625</LatitudeDegrees>
              <LongitudeDegrees>-5.68612008355557918548583984375</LongitudeDegrees>
            </Position>
            <AltitudeMeters>86.8000030517578125</AltitudeMeters>
            <DistanceMeters>2144.521845187</DistanceMeters>
          </Trackpoint>
          <Trackpoint>
            <Time>2019-10-04T09:10:02.000Z</Time>
            <Position>
              <LatitudeDegrees>43.50027300417423248291015625</LatitudeDegrees>
              <LongitudeDegrees>-5.68612008355557918548583984375</LongitudeDegrees>
            </Position>
            <AltitudeMeters>86.59999847412109375</AltitudeMeters>
            <DistanceMeters>2144.521845187</DistanceMeters>
          </Trackpoint>
          <Trackpoint>
            <Time>2019-10-04T09:10:08.000Z</Time>
            <Position>
              <LatitudeDegrees>43.5002141632139682769775390625</LatitudeDegrees>
              <LongitudeDegrees>-5.68617523647844791412353515625</LongitudeDegrees>
            </Position>
            <AltitudeMeters>86.40000152587890625</AltitudeMeters>
            <DistanceMeters>2152.4416249175</DistanceMeters>
          </Trackpoint>
          <Trackpoint>
            <Time>2019-10-04T09:10:11.000Z</Time>
            <Position>
              <LatitudeDegrees>43.5001279972493648529052734375</LatitudeDegrees>
              <LongitudeDegrees>-5.686226449906826019287109375</LongitudeDegrees>
            </Position>
            <AltitudeMeters>86</AltitudeMeters>
            <DistanceMeters>2162.8850565034</DistanceMeters>
          </Trackpoint>
          <Trackpoint>
            <Time>2019-10-04T09:10:13.000Z</Time>
            <Position>
              <LatitudeDegrees>43.50006555207073688507080078125</LatitudeDegrees>
              <LongitudeDegrees>-5.6862728856503963470458984375</LongitudeDegrees>
            </Position>
            <AltitudeMeters>86</AltitudeMeters>
            <DistanceMeters>2170.7819994513</DistanceMeters>
          </Trackpoint>
          <Trackpoint>
            <Time>2019-10-04T09:10:22.000Z</Time>
            <Position>
              <LatitudeDegrees>43.49974502809345722198486328125</LatitudeDegrees>
              <LongitudeDegrees>-5.686513446271419525146484375</LongitudeDegrees>
            </Position>
            <AltitudeMeters>87</AltitudeMeters>
            <DistanceMeters>2211.4011126532</DistanceMeters>
          </Trackpoint>
          <Trackpoint>
            <Time>2019-10-04T09:10:23.000Z</Time>
            <Position>
              <LatitudeDegrees>43.49970798008143901824951171875</LatitudeDegrees>
              <LongitudeDegrees>-5.6865397654473781585693359375</LongitudeDegrees>
            </Position>
            <AltitudeMeters>87</AltitudeMeters>
            <DistanceMeters>2216.0389615176</DistanceMeters>
          </Trackpoint>
          <Trackpoint>
            <Time>2019-10-04T09:10:25.000Z</Time>
            <Position>
              <LatitudeDegrees>43.49963790737092494964599609375</LatitudeDegrees>
              <LongitudeDegrees>-5.686598606407642364501953125</LongitudeDegrees>
            </Position>
            <AltitudeMeters>86.8000030517578125</AltitudeMeters>
            <DistanceMeters>2225.1709249407</DistanceMeters>
          </Trackpoint>
          <Trackpoint>
            <Time>2019-10-04T09:10:28.000Z</Time>
            <Position>
              <LatitudeDegrees>43.49952626042068004608154296875</LatitudeDegrees>
              <LongitudeDegrees>-5.6866867840290069580078125</LongitudeDegrees>
            </Position>
            <AltitudeMeters>87.40000152587890625</AltitudeMeters>
            <DistanceMeters>2239.4925574017</DistanceMeters>
          </Trackpoint>
          <Trackpoint>
            <Time>2019-10-04T09:10:33.000Z</Time>
            <Position>
              <LatitudeDegrees>43.49933154881000518798828125</LatitudeDegrees>
              <LongitudeDegrees>-5.68683438934385776519775390625</LongitudeDegrees>
            </Position>
            <AltitudeMeters>87.40000152587890625</AltitudeMeters>
            <DistanceMeters>2264.2247089086</DistanceMeters>
          </Trackpoint>
          <Trackpoint>
            <Time>2019-10-04T09:10:43.000Z</Time>
            <Position>
              <LatitudeDegrees>43.49891656078398227691650390625</LatitudeDegrees>
              <LongitudeDegrees>-5.68715306930243968963623046875</LongitudeDegrees>
            </Position>
            <AltitudeMeters>87.59999847412109375</AltitudeMeters>
            <DistanceMeters>2317.0962952709</DistanceMeters>
          </Trackpoint>
          <Trackpoint>
            <Time>2019-10-04T09:10:54.000Z</Time>
            <Position>
              <LatitudeDegrees>43.49841850809752941131591796875</LatitudeDegrees>
              <LongitudeDegrees>-5.68752623163163661956787109375</LongitudeDegrees>
            </Position>
            <AltitudeMeters>87.40000152587890625</AltitudeMeters>
            <DistanceMeters>2380.1888097896</DistanceMeters>
          </Trackpoint>
          <Trackpoint>
            <Time>2019-10-04T09:11:04.000Z</Time>
            <Position>
              <LatitudeDegrees>43.497989438474178314208984375</LatitudeDegrees>
              <LongitudeDegrees>-5.68785823881626129150390625</LongitudeDegrees>
            </Position>
            <AltitudeMeters>88</AltitudeMeters>
            <DistanceMeters>2434.9538026201</DistanceMeters>
          </Trackpoint>
          <Trackpoint>
            <Time>2019-10-04T09:11:06.000Z</Time>
            <Position>
              <LatitudeDegrees>43.4979057870805263519287109375</LatitudeDegrees>
              <LongitudeDegrees>-5.6879217736423015594482421875</LongitudeDegrees>
            </Position>
            <AltitudeMeters>88.1999969482421875</AltitudeMeters>
            <DistanceMeters>2445.584060219</DistanceMeters>
          </Trackpoint>
          <Trackpoint>
            <Time>2019-10-04T09:11:12.000Z</Time>
            <Position>
              <LatitudeDegrees>43.4976583532989025115966796875</LatitudeDegrees>
              <LongitudeDegrees>-5.68811179138720035552978515625</LongitudeDegrees>
            </Position>
            <AltitudeMeters>88.8000030517578125</AltitudeMeters>
            <DistanceMeters>2477.1088773179</DistanceMeters>
          </Trackpoint>
          <Trackpoint>
            <Time>2019-10-04T09:11:13.000Z</Time>
            <Position>
              <LatitudeDegrees>43.49761627614498138427734375</LatitudeDegrees>
              <LongitudeDegrees>-5.6881417147815227508544921875</LongitudeDegrees>
            </Position>
            <AltitudeMeters>89.1999969482421875</AltitudeMeters>
            <DistanceMeters>2482.3775066452</DistanceMeters>
          </Trackpoint>
          <Trackpoint>
            <Time>2019-10-04T09:11:15.000Z</Time>
            <Position>
              <LatitudeDegrees>43.4975389949977397918701171875</LatitudeDegrees>
              <LongitudeDegrees>-5.6881946884095668792724609375</LongitudeDegrees>
            </Position>
            <AltitudeMeters>89.40000152587890625</AltitudeMeters>
            <DistanceMeters>2491.9836687915</DistanceMeters>
          </Trackpoint>
          <Trackpoint>
            <Time>2019-10-04T09:11:20.000Z</Time>
            <Position>
              <LatitudeDegrees>43.4973512403666973114013671875</LatitudeDegrees>
              <LongitudeDegrees>-5.6883428804576396942138671875</LongitudeDegrees>
            </Position>
            <AltitudeMeters>90.1999969482421875</AltitudeMeters>
            <DistanceMeters>2516.0638957168</DistanceMeters>
          </Trackpoint>
          <Trackpoint>
            <Time>2019-10-04T09:11:25.000Z</Time>
            <Position>
              <LatitudeDegrees>43.4971628151834011077880859375</LatitudeDegrees>
              <LongitudeDegrees>-5.68847556598484516143798828125</LongitudeDegrees>
            </Position>
            <AltitudeMeters>91.40000152587890625</AltitudeMeters>
            <DistanceMeters>2539.6136552672</DistanceMeters>
          </Trackpoint>
          <Trackpoint>
            <Time>2019-10-04T09:11:28.000Z</Time>
            <Position>
              <LatitudeDegrees>43.49705058149993419647216796875</LatitudeDegrees>
              <LongitudeDegrees>-5.68855066783726215362548828125</LongitudeDegrees>
            </Position>
            <AltitudeMeters>91.59999847412109375</AltitudeMeters>
            <DistanceMeters>2553.4992662452</DistanceMeters>
          </Trackpoint>
          <Trackpoint>
            <Time>2019-10-04T09:11:33.000Z</Time>
            <Position>
              <LatitudeDegrees>43.4968511760234832763671875</LatitudeDegrees>
              <LongitudeDegrees>-5.688665919005870819091796875</LongitudeDegrees>
            </Position>
            <AltitudeMeters>92.1999969482421875</AltitudeMeters>
            <DistanceMeters>2577.5652389653</DistanceMeters>
          </Trackpoint>
          <Trackpoint>
            <Time>2019-10-04T09:11:34.000Z</Time>
            <Position>
              <LatitudeDegrees>43.496805913746356964111328125</LatitudeDegrees>
              <LongitudeDegrees>-5.68868972361087799072265625</LongitudeDegrees>
            </Position>
            <AltitudeMeters>92.40000152587890625</AltitudeMeters>
            <DistanceMeters>2582.9575340378</DistanceMeters>
          </Trackpoint>
          <Trackpoint>
            <Time>2019-10-04T09:11:38.000Z</Time>
            <Position>
              <LatitudeDegrees>43.49665193818509578704833984375</LatitudeDegrees>
              <LongitudeDegrees>-5.68877161480486392974853515625</LongitudeDegrees>
            </Position>
            <AltitudeMeters>90.1999969482421875</AltitudeMeters>
            <DistanceMeters>2601.3264707628</DistanceMeters>
          </Trackpoint>
          <Trackpoint>
            <Time>2019-10-04T09:11:39.000Z</Time>
            <Position>
              <LatitudeDegrees>43.49661220796406269073486328125</LatitudeDegrees>
              <LongitudeDegrees>-5.68879022262990474700927734375</LongitudeDegrees>
            </Position>
            <AltitudeMeters>92.59999847412109375</AltitudeMeters>
            <DistanceMeters>2605.9973020259</DistanceMeters>
          </Trackpoint>
          <Trackpoint>
            <Time>2019-10-04T09:11:45.000Z</Time>
            <Position>
              <LatitudeDegrees>43.4963764250278472900390625</LatitudeDegrees>
              <LongitudeDegrees>-5.68891712464392185211181640625</LongitudeDegrees>
            </Position>
            <AltitudeMeters>92.8000030517578125</AltitudeMeters>
            <DistanceMeters>2634.1697981696</DistanceMeters>
          </Trackpoint>
          <Trackpoint>
            <Time>2019-10-04T09:11:46.000Z</Time>
            <Position>
              <LatitudeDegrees>43.4963437356054782867431640625</LatitudeDegrees>
              <LongitudeDegrees>-5.68893874995410442352294921875</LongitudeDegrees>
            </Position>
            <AltitudeMeters>92.8000030517578125</AltitudeMeters>
            <DistanceMeters>2638.2070358368</DistanceMeters>
          </Trackpoint>
          <Trackpoint>
            <Time>2019-10-04T09:11:54.000Z</Time>
            <Position>
              <LatitudeDegrees>43.49600586108863353729248046875</LatitudeDegrees>
              <LongitudeDegrees>-5.68910990841686725616455078125</LongitudeDegrees>
            </Position>
            <AltitudeMeters>92.8000030517578125</AltitudeMeters>
            <DistanceMeters>2678.2719259372</DistanceMeters>
          </Trackpoint>
          <Trackpoint>
            <Time>2019-10-04T09:12:06.000Z</Time>
            <Position>
              <LatitudeDegrees>43.4954683296382427215576171875</LatitudeDegrees>
              <LongitudeDegrees>-5.68937678821384906768798828125</LongitudeDegrees>
            </Position>
            <AltitudeMeters>92.1999969482421875</AltitudeMeters>
            <DistanceMeters>2741.8624087339</DistanceMeters>
          </Trackpoint>
          <Trackpoint>
            <Time>2019-10-04T09:12:11.000Z</Time>
            <Position>
              <LatitudeDegrees>43.49521838128566741943359375</LatitudeDegrees>
              <LongitudeDegrees>-5.68950503133237361907958984375</LongitudeDegrees>
            </Position>
            <AltitudeMeters>91.59999847412109375</AltitudeMeters>
            <DistanceMeters>2771.5466614515</DistanceMeters>
          </Trackpoint>
          <Trackpoint>
            <Time>2019-10-04T09:12:13.000Z</Time>
            <Position>
              <LatitudeDegrees>43.495112769305706024169921875</LatitudeDegrees>
              <LongitudeDegrees>-5.68955867551267147064208984375</LongitudeDegrees>
            </Position>
            <AltitudeMeters>91</AltitudeMeters>
            <DistanceMeters>2784.0743399514</DistanceMeters>
          </Trackpoint>
          <Trackpoint>
            <Time>2019-10-04T09:12:14.000Z</Time>
            <Position>
              <LatitudeDegrees>43.4950619749724864959716796875</LatitudeDegrees>
              <LongitudeDegrees>-5.68958298303186893463134765625</LongitudeDegrees>
            </Position>
            <AltitudeMeters>90.8000030517578125</AltitudeMeters>
            <DistanceMeters>2790.0587599882</DistanceMeters>
          </Trackpoint>
          <Trackpoint>
            <Time>2019-10-04T09:12:18.000Z</Time>
            <Position>
              <LatitudeDegrees>43.49482753314077854156494140625</LatitudeDegrees>
              <LongitudeDegrees>-5.68969228304922580718994140625</LongitudeDegrees>
            </Position>
            <AltitudeMeters>90</AltitudeMeters>
            <DistanceMeters>2817.6045443001</DistanceMeters>
          </Trackpoint>
          <Trackpoint>
            <Time>2019-10-04T09:12:20.000Z</Time>
            <Position>
              <LatitudeDegrees>43.494711108505725860595703125</LatitudeDegrees>
              <LongitudeDegrees>-5.68975053727626800537109375</LongitudeDegrees>
            </Position>
            <AltitudeMeters>89.40000152587890625</AltitudeMeters>
            <DistanceMeters>2831.3902974112</DistanceMeters>
          </Trackpoint>
          <Trackpoint>
            <Time>2019-10-04T09:12:22.000Z</Time>
            <Position>
              <LatitudeDegrees>43.49459183402359485626220703125</LatitudeDegrees>
              <LongitudeDegrees>-5.68980820477008819580078125</LongitudeDegrees>
            </Position>
            <AltitudeMeters>89.1999969482421875</AltitudeMeters>
            <DistanceMeters>2845.4587449268</DistanceMeters>
          </Trackpoint>
          <Trackpoint>
            <Time>2019-10-04T09:12:23.000Z</Time>
            <Position>
              <LatitudeDegrees>43.49453500472009181976318359375</LatitudeDegrees>
              <LongitudeDegrees>-5.68983544595539569854736328125</LongitudeDegrees>
            </Position>
            <AltitudeMeters>89.1999969482421875</AltitudeMeters>
            <DistanceMeters>2852.1559375996</DistanceMeters>
          </Trackpoint>
          <Trackpoint>
            <Time>2019-10-04T09:12:24.000Z</Time>
            <Position>
              <LatitudeDegrees>43.49446929059922695159912109375</LatitudeDegrees>
              <LongitudeDegrees>-5.68986855447292327880859375</LongitudeDegrees>
            </Position>
            <AltitudeMeters>88.8000030517578125</AltitudeMeters>
            <DistanceMeters>2859.9434913489</DistanceMeters>
          </Trackpoint>
          <Trackpoint>
            <Time>2019-10-04T09:12:27.000Z</Time>
            <Position>
              <LatitudeDegrees>43.4942861460149288177490234375</LatitudeDegrees>
              <LongitudeDegrees>-5.6899636052548885345458984375</LongitudeDegrees>
            </Position>
            <AltitudeMeters>88.1999969482421875</AltitudeMeters>
            <DistanceMeters>2881.7247253867</DistanceMeters>
          </Trackpoint>
          <Trackpoint>
            <Time>2019-10-04T09:12:29.000Z</Time>
            <Position>
              <LatitudeDegrees>43.4941624291241168975830078125</LatitudeDegrees>
              <LongitudeDegrees>-5.69002672098577022552490234375</LongitudeDegrees>
            </Position>
            <AltitudeMeters>88</AltitudeMeters>
            <DistanceMeters>2896.4071984395</DistanceMeters>
          </Trackpoint>
          <Trackpoint>
            <Time>2019-10-04T09:12:32.000Z</Time>
            <Position>
              <LatitudeDegrees>43.49397358484566211700439453125</LatitudeDegrees>
              <LongitudeDegrees>-5.69012110121548175811767578125</LongitudeDegrees>
            </Position>
            <AltitudeMeters>87.8000030517578125</AltitudeMeters>
            <DistanceMeters>2918.7645429035</DistanceMeters>
          </Trackpoint>
          <Trackpoint>
            <Time>2019-10-04T09:12:33.000Z</Time>
            <Position>
              <LatitudeDegrees>43.49390887655317783355712890625</LatitudeDegrees>
              <LongitudeDegrees>-5.6901553831994533538818359375</LongitudeDegrees>
            </Position>
            <AltitudeMeters>87.40000152587890625</AltitudeMeters>
            <DistanceMeters>2926.4798694629</DistanceMeters>
          </Trackpoint>
          <Trackpoint>
            <Time>2019-10-04T09:12:36.000Z</Time>
            <Position>
              <LatitudeDegrees>43.4937426634132862091064453125</LatitudeDegrees>
              <LongitudeDegrees>-5.6902395375072956085205078125</LongitudeDegrees>
            </Position>
            <AltitudeMeters>87.59999847412109375</AltitudeMeters>
            <DistanceMeters>2946.1882359137</DistanceMeters>
          </Trackpoint>
          <Trackpoint>
            <Time>2019-10-04T09:12:43.000Z</Time>
            <Position>
              <LatitudeDegrees>43.49338249303400516510009765625</LatitudeDegrees>
              <LongitudeDegrees>-5.6904085166752338409423828125</LongitudeDegrees>
            </Position>
            <AltitudeMeters>88</AltitudeMeters>
            <DistanceMeters>2988.534127333</DistanceMeters>
          </Trackpoint>
          <Trackpoint>
            <Time>2019-10-04T09:12:48.000Z</Time>
            <Position>
              <LatitudeDegrees>43.49315081723034381866455078125</LatitudeDegrees>
              <LongitudeDegrees>-5.6904883123934268951416015625</LongitudeDegrees>
            </Position>
            <AltitudeMeters>88.59999847412109375</AltitudeMeters>
            <DistanceMeters>3015.1127443063</DistanceMeters>
          </Trackpoint>
          <Trackpoint>
            <Time>2019-10-04T09:12:50.000Z</Time>
            <Position>
              <LatitudeDegrees>43.49308275617659091949462890625</LatitudeDegrees>
              <LongitudeDegrees>-5.69050800986588001251220703125</LongitudeDegrees>
            </Position>
            <AltitudeMeters>88.8000030517578125</AltitudeMeters>
            <DistanceMeters>3022.8526103988</DistanceMeters>
          </Trackpoint>
          <Trackpoint>
            <Time>2019-10-04T09:12:52.000Z</Time>
            <Position>
              <LatitudeDegrees>43.49304168485105037689208984375</LatitudeDegrees>
              <LongitudeDegrees>-5.69052033126354217529296875</LongitudeDegrees>
            </Position>
            <AltitudeMeters>90</AltitudeMeters>
            <DistanceMeters>3027.5302032865</DistanceMeters>
          </Trackpoint>
          <Trackpoint>
            <Time>2019-10-04T09:12:54.000Z</Time>
            <Position>
              <LatitudeDegrees>43.4930315427482128143310546875</LatitudeDegrees>
              <LongitudeDegrees>-5.690526701509952545166015625</LongitudeDegrees>
            </Position>
            <AltitudeMeters>90</AltitudeMeters>
            <DistanceMeters>3028.7692000563</DistanceMeters>
          </Trackpoint>
          <Trackpoint>
            <Time>2019-10-04T09:12:56.000Z</Time>
            <Position>
              <LatitudeDegrees>43.4930315427482128143310546875</LatitudeDegrees>
              <LongitudeDegrees>-5.690526701509952545166015625</LongitudeDegrees>
            </Position>
            <AltitudeMeters>90</AltitudeMeters>
            <DistanceMeters>3028.7692000563</DistanceMeters>
          </Trackpoint>
          <Trackpoint>
            <Time>2019-10-04T09:12:58.000Z</Time>
            <Position>
              <LatitudeDegrees>43.4930328838527202606201171875</LatitudeDegrees>
              <LongitudeDegrees>-5.6905282102525234222412109375</LongitudeDegrees>
            </Position>
            <AltitudeMeters>89.8000030517578125</AltitudeMeters>
            <DistanceMeters>3028.9816862493</DistanceMeters>
          </Trackpoint>
          <Trackpoint>
            <Time>2019-10-04T09:13:03.000Z</Time>
            <Position>
              <LatitudeDegrees>43.49302659742534160614013671875</LatitudeDegrees>
              <LongitudeDegrees>-5.6905258633196353912353515625</LongitudeDegrees>
            </Position>
            <AltitudeMeters>89.8000030517578125</AltitudeMeters>
            <DistanceMeters>3029.7116002923</DistanceMeters>
          </Trackpoint>
          <Trackpoint>
            <Time>2019-10-04T09:13:04.000Z</Time>
            <Position>
              <LatitudeDegrees>43.49302659742534160614013671875</LatitudeDegrees>
              <LongitudeDegrees>-5.6905258633196353912353515625</LongitudeDegrees>
            </Position>
            <AltitudeMeters>90</AltitudeMeters>
            <DistanceMeters>3029.7116002923</DistanceMeters>
          </Trackpoint>
          <Trackpoint>
            <Time>2019-10-04T09:13:05.000Z</Time>
            <Position>
              <LatitudeDegrees>43.49302659742534160614013671875</LatitudeDegrees>
              <LongitudeDegrees>-5.6905258633196353912353515625</LongitudeDegrees>
            </Position>
            <AltitudeMeters>89.8000030517578125</AltitudeMeters>
            <DistanceMeters>3029.7116002923</DistanceMeters>
          </Trackpoint>
          <Trackpoint>
            <Time>2019-10-04T09:13:09.000Z</Time>
            <Position>
              <LatitudeDegrees>43.49302659742534160614013671875</LatitudeDegrees>
              <LongitudeDegrees>-5.6905258633196353912353515625</LongitudeDegrees>
            </Position>
            <AltitudeMeters>89.59999847412109375</AltitudeMeters>
            <DistanceMeters>3029.7116002923</DistanceMeters>
          </Trackpoint>
          <Trackpoint>
            <Time>2019-10-04T09:13:11.000Z</Time>
            <Position>
              <LatitudeDegrees>43.49302659742534160614013671875</LatitudeDegrees>
              <LongitudeDegrees>-5.6905258633196353912353515625</LongitudeDegrees>
            </Position>
            <AltitudeMeters>89.8000030517578125</AltitudeMeters>
            <DistanceMeters>3029.7116002923</DistanceMeters>
          </Trackpoint>
          <Trackpoint>
            <Time>2019-10-04T09:13:12.000Z</Time>
            <Position>
              <LatitudeDegrees>43.49302659742534160614013671875</LatitudeDegrees>
              <LongitudeDegrees>-5.6905258633196353912353515625</LongitudeDegrees>
            </Position>
            <AltitudeMeters>89.8000030517578125</AltitudeMeters>
            <DistanceMeters>3029.7116002923</DistanceMeters>
          </Trackpoint>
          <Trackpoint>
            <Time>2019-10-04T09:13:14.000Z</Time>
            <Position>
              <LatitudeDegrees>43.49302659742534160614013671875</LatitudeDegrees>
              <LongitudeDegrees>-5.6905258633196353912353515625</LongitudeDegrees>
            </Position>
            <AltitudeMeters>90</AltitudeMeters>
            <DistanceMeters>3029.7116002923</DistanceMeters>
          </Trackpoint>
          <Trackpoint>
            <Time>2019-10-04T09:13:16.000Z</Time>
            <Position>
              <LatitudeDegrees>43.49302659742534160614013671875</LatitudeDegrees>
              <LongitudeDegrees>-5.6905258633196353912353515625</LongitudeDegrees>
            </Position>
            <AltitudeMeters>90.1999969482421875</AltitudeMeters>
            <DistanceMeters>3029.7116002923</DistanceMeters>
          </Trackpoint>
          <Trackpoint>
            <Time>2019-10-04T09:13:20.000Z</Time>
            <Position>
              <LatitudeDegrees>43.49302659742534160614013671875</LatitudeDegrees>
              <LongitudeDegrees>-5.6905258633196353912353515625</LongitudeDegrees>
            </Position>
            <AltitudeMeters>89.8000030517578125</AltitudeMeters>
            <DistanceMeters>3029.7116002923</DistanceMeters>
          </Trackpoint>
          <Trackpoint>
            <Time>2019-10-04T09:13:27.000Z</Time>
            <Position>
              <LatitudeDegrees>43.49302659742534160614013671875</LatitudeDegrees>
              <LongitudeDegrees>-5.6905258633196353912353515625</LongitudeDegrees>
            </Position>
            <AltitudeMeters>89.8000030517578125</AltitudeMeters>
            <DistanceMeters>3029.7116002923</DistanceMeters>
          </Trackpoint>
          <Trackpoint>
            <Time>2019-10-04T09:13:35.000Z</Time>
            <Position>
              <LatitudeDegrees>43.49302659742534160614013671875</LatitudeDegrees>
              <LongitudeDegrees>-5.6905258633196353912353515625</LongitudeDegrees>
            </Position>
            <AltitudeMeters>89.8000030517578125</AltitudeMeters>
            <DistanceMeters>3029.7116002923</DistanceMeters>
          </Trackpoint>
          <Trackpoint>
            <Time>2019-10-04T09:13:40.000Z</Time>
            <Position>
              <LatitudeDegrees>43.49302575923502445220947265625</LatitudeDegrees>
              <LongitudeDegrees>-5.690527372062206268310546875</LongitudeDegrees>
            </Position>
            <AltitudeMeters>89.8000030517578125</AltitudeMeters>
            <DistanceMeters>3029.8761913897</DistanceMeters>
          </Trackpoint>
          <Trackpoint>
            <Time>2019-10-04T09:13:55.000Z</Time>
            <Position>
              <LatitudeDegrees>43.49302575923502445220947265625</LatitudeDegrees>
              <LongitudeDegrees>-5.690527372062206268310546875</LongitudeDegrees>
            </Position>
            <AltitudeMeters>90</AltitudeMeters>
            <DistanceMeters>3029.8761913897</DistanceMeters>
          </Trackpoint>
          <Trackpoint>
            <Time>2019-10-04T09:13:56.000Z</Time>
            <Position>
              <LatitudeDegrees>43.49302575923502445220947265625</LatitudeDegrees>
              <LongitudeDegrees>-5.690527372062206268310546875</LongitudeDegrees>
            </Position>
            <AltitudeMeters>90</AltitudeMeters>
            <DistanceMeters>3029.8761913897</DistanceMeters>
          </Trackpoint>
          <Trackpoint>
            <Time>2019-10-04T09:13:57.000Z</Time>
            <Position>
              <LatitudeDegrees>43.49302575923502445220947265625</LatitudeDegrees>
              <LongitudeDegrees>-5.690527372062206268310546875</LongitudeDegrees>
            </Position>
            <AltitudeMeters>90</AltitudeMeters>
            <DistanceMeters>3029.8761913897</DistanceMeters>
          </Trackpoint>
          <Trackpoint>
            <Time>2019-10-04T09:13:58.000Z</Time>
            <Position>
              <LatitudeDegrees>43.49302575923502445220947265625</LatitudeDegrees>
              <LongitudeDegrees>-5.690527372062206268310546875</LongitudeDegrees>
            </Position>
            <AltitudeMeters>90</AltitudeMeters>
            <DistanceMeters>3029.8761913897</DistanceMeters>
          </Trackpoint>
          <Trackpoint>
            <Time>2019-10-04T09:13:59.000Z</Time>
            <Position>
              <LatitudeDegrees>43.49302575923502445220947265625</LatitudeDegrees>
              <LongitudeDegrees>-5.690527372062206268310546875</LongitudeDegrees>
            </Position>
            <AltitudeMeters>89.8000030517578125</AltitudeMeters>
            <DistanceMeters>3029.8761913897</DistanceMeters>
          </Trackpoint>
          <Trackpoint>
            <Time>2019-10-04T09:14:01.000Z</Time>
            <Position>
              <LatitudeDegrees>43.49302575923502445220947265625</LatitudeDegrees>
              <LongitudeDegrees>-5.690527372062206268310546875</LongitudeDegrees>
            </Position>
            <AltitudeMeters>89.8000030517578125</AltitudeMeters>
            <DistanceMeters>3029.8761913897</DistanceMeters>
          </Trackpoint>
          <Trackpoint>
            <Time>2019-10-04T09:14:03.000Z</Time>
            <Position>
              <LatitudeDegrees>43.49302575923502445220947265625</LatitudeDegrees>
              <LongitudeDegrees>-5.690527372062206268310546875</LongitudeDegrees>
            </Position>
            <AltitudeMeters>90</AltitudeMeters>
            <DistanceMeters>3029.8761913897</DistanceMeters>
          </Trackpoint>
          <Trackpoint>
            <Time>2019-10-04T09:14:05.000Z</Time>
            <Position>
              <LatitudeDegrees>43.49302575923502445220947265625</LatitudeDegrees>
              <LongitudeDegrees>-5.690527372062206268310546875</LongitudeDegrees>
            </Position>
            <AltitudeMeters>89.8000030517578125</AltitudeMeters>
            <DistanceMeters>3029.8761913897</DistanceMeters>
          </Trackpoint>
          <Trackpoint>
            <Time>2019-10-04T09:14:07.000Z</Time>
            <Position>
              <LatitudeDegrees>43.49302542395889759063720703125</LatitudeDegrees>
              <LongitudeDegrees>-5.69052762351930141448974609375</LongitudeDegrees>
            </Position>
            <AltitudeMeters>89.8000030517578125</AltitudeMeters>
            <DistanceMeters>3029.8761913897</DistanceMeters>
          </Trackpoint>
          <Trackpoint>
            <Time>2019-10-04T09:14:08.000Z</Time>
            <Position>
              <LatitudeDegrees>43.49302290938794612884521484375</LatitudeDegrees>
              <LongitudeDegrees>-5.69052929989993572235107421875</LongitudeDegrees>
            </Position>
            <AltitudeMeters>90</AltitudeMeters>
            <DistanceMeters>3030.1766922457</DistanceMeters>
          </Trackpoint>
          <Trackpoint>
            <Time>2019-10-04T09:14:10.000Z</Time>
            <Position>
              <LatitudeDegrees>43.49302156828343868255615234375</LatitudeDegrees>
              <LongitudeDegrees>-5.690528713166713714599609375</LongitudeDegrees>
            </Position>
            <AltitudeMeters>89.8000030517578125</AltitudeMeters>
            <DistanceMeters>3030.3110803139</DistanceMeters>
          </Trackpoint>
          <Trackpoint>
            <Time>2019-10-04T09:14:11.000Z</Time>
            <Position>
              <LatitudeDegrees>43.49302056245505809783935546875</LatitudeDegrees>
              <LongitudeDegrees>-5.69052812643349170684814453125</LongitudeDegrees>
            </Position>
            <AltitudeMeters>89.8000030517578125</AltitudeMeters>
            <DistanceMeters>3030.4061070283</DistanceMeters>
          </Trackpoint>
          <Trackpoint>
            <Time>2019-10-04T09:14:13.000Z</Time>
            <Position>
              <LatitudeDegrees>43.4929916448891162872314453125</LatitudeDegrees>
              <LongitudeDegrees>-5.6905097700655460357666015625</LongitudeDegrees>
            </Position>
            <AltitudeMeters>89.59999847412109375</AltitudeMeters>
            <DistanceMeters>3033.9502340482</DistanceMeters>
          </Trackpoint>
          <Trackpoint>
            <Time>2019-10-04T09:14:17.000Z</Time>
            <Position>
              <LatitudeDegrees>43.49293892271816730499267578125</LatitudeDegrees>
              <LongitudeDegrees>-5.6904873065650463104248046875</LongitudeDegrees>
            </Position>
            <AltitudeMeters>90</AltitudeMeters>
            <DistanceMeters>3040.0917834705</DistanceMeters>
          </Trackpoint>
          <Trackpoint>
            <Time>2019-10-04T09:14:18.000Z</Time>
            <Position>
              <LatitudeDegrees>43.49292232654988765716552734375</LatitudeDegrees>
              <LongitudeDegrees>-5.69048051722347736358642578125</LongitudeDegrees>
            </Position>
            <AltitudeMeters>89.8000030517578125</AltitudeMeters>
            <DistanceMeters>3042.0182728731</DistanceMeters>
          </Trackpoint>
          <Trackpoint>
            <Time>2019-10-04T09:14:19.000Z</Time>
            <Position>
              <LatitudeDegrees>43.4929031319916248321533203125</LatitudeDegrees>
              <LongitudeDegrees>-5.690473057329654693603515625</LongitudeDegrees>
            </Position>
            <AltitudeMeters>90</AltitudeMeters>
            <DistanceMeters>3044.2366938571</DistanceMeters>
          </Trackpoint>
          <Trackpoint>
            <Time>2019-10-04T09:14:27.000Z</Time>
            <Position>
              <LatitudeDegrees>43.492705486714839935302734375</LatitudeDegrees>
              <LongitudeDegrees>-5.690430141985416412353515625</LongitudeDegrees>
            </Position>
            <AltitudeMeters>90.40000152587890625</AltitudeMeters>
            <DistanceMeters>3066.5062200824</DistanceMeters>
          </Trackpoint>
          <Trackpoint>
            <Time>2019-10-04T09:14:30.000Z</Time>
            <Position>
              <LatitudeDegrees>43.4926231764256954193115234375</LatitudeDegrees>
              <LongitudeDegrees>-5.69039963185787200927734375</LongitudeDegrees>
            </Position>
            <AltitudeMeters>91</AltitudeMeters>
            <DistanceMeters>3075.9931991547</DistanceMeters>
          </Trackpoint>
          <Trackpoint>
            <Time>2019-10-04T09:14:34.000Z</Time>
            <Position>
              <LatitudeDegrees>43.49251647479832172393798828125</LatitudeDegrees>
              <LongitudeDegrees>-5.69035478867590427398681640625</LongitudeDegrees>
            </Position>
            <AltitudeMeters>91.59999847412109375</AltitudeMeters>
            <DistanceMeters>3088.4090130617</DistanceMeters>
          </Trackpoint>
          <Trackpoint>
            <Time>2019-10-04T09:14:36.000Z</Time>
            <Position>
              <LatitudeDegrees>43.49246216006577014923095703125</LatitudeDegrees>
              <LongitudeDegrees>-5.6903213448822498321533203125</LongitudeDegrees>
            </Position>
            <AltitudeMeters>91.59999847412109375</AltitudeMeters>
            <DistanceMeters>3095.0295863797</DistanceMeters>
          </Trackpoint>
          <Trackpoint>
            <Time>2019-10-04T09:14:39.000Z</Time>
            <Position>
              <LatitudeDegrees>43.492380939424037933349609375</LatitudeDegrees>
              <LongitudeDegrees>-5.69027063436806201934814453125</LongitudeDegrees>
            </Position>
            <AltitudeMeters>92.1999969482421875</AltitudeMeters>
            <DistanceMeters>3104.9533968222</DistanceMeters>
          </Trackpoint>
          <Trackpoint>
            <Time>2019-10-04T09:14:43.000Z</Time>
            <Position>
              <LatitudeDegrees>43.492277003824710845947265625</LatitudeDegrees>
              <LongitudeDegrees>-5.690200813114643096923828125</LongitudeDegrees>
            </Position>
            <AltitudeMeters>92.8000030517578125</AltitudeMeters>
            <DistanceMeters>3117.8224139557</DistanceMeters>
          </Trackpoint>
          <Trackpoint>
            <Time>2019-10-04T09:14:45.000Z</Time>
            <Position>
              <LatitudeDegrees>43.4922248683869838714599609375</LatitudeDegrees>
              <LongitudeDegrees>-5.69016535766422748565673828125</LongitudeDegrees>
            </Position>
            <AltitudeMeters>92.59999847412109375</AltitudeMeters>
            <DistanceMeters>3124.2940053015</DistanceMeters>
          </Trackpoint>
          <Trackpoint>
            <Time>2019-10-04T09:14:48.000Z</Time>
            <Position>
              <LatitudeDegrees>43.49214632995426654815673828125</LatitudeDegrees>
              <LongitudeDegrees>-5.6901027448475360870361328125</LongitudeDegrees>
            </Position>
            <AltitudeMeters>93</AltitudeMeters>
            <DistanceMeters>3134.3919072224</DistanceMeters>
          </Trackpoint>
          <Trackpoint>
            <Time>2019-10-04T09:14:49.000Z</Time>
            <Position>
              <LatitudeDegrees>43.4921205975115299224853515625</LatitudeDegrees>
              <LongitudeDegrees>-5.69008170627057552337646484375</LongitudeDegrees>
            </Position>
            <AltitudeMeters>93.1999969482421875</AltitudeMeters>
            <DistanceMeters>3137.7205561671</DistanceMeters>
          </Trackpoint>
          <Trackpoint>
            <Time>2019-10-04T09:14:52.000Z</Time>
            <Position>
              <LatitudeDegrees>43.49204356782138347625732421875</LatitudeDegrees>
              <LongitudeDegrees>-5.6900159083306789398193359375</LongitudeDegrees>
            </Position>
            <AltitudeMeters>93.59999847412109375</AltitudeMeters>
            <DistanceMeters>3147.8068261029</DistanceMeters>
          </Trackpoint>
          <Trackpoint>
            <Time>2019-10-04T09:14:53.000Z</Time>
            <Position>
              <LatitudeDegrees>43.49201657809317111968994140625</LatitudeDegrees>
              <LongitudeDegrees>-5.68999201990664005279541015625</LongitudeDegrees>
            </Position>
            <AltitudeMeters>93.8000030517578125</AltitudeMeters>
            <DistanceMeters>3151.3750760641</DistanceMeters>
          </Trackpoint>
          <Trackpoint>
            <Time>2019-10-04T09:14:56.000Z</Time>
            <Position>
              <LatitudeDegrees>43.4919415600597858428955078125</LatitudeDegrees>
              <LongitudeDegrees>-5.68991607986390590667724609375</LongitudeDegrees>
            </Position>
            <AltitudeMeters>94.1999969482421875</AltitudeMeters>
            <DistanceMeters>3161.734295555</DistanceMeters>
          </Trackpoint>
          <Trackpoint>
            <Time>2019-10-04T09:14:57.000Z</Time>
            <Position>
              <LatitudeDegrees>43.49191700108349323272705078125</LatitudeDegrees>
              <LongitudeDegrees>-5.68988909013569355010986328125</LongitudeDegrees>
            </Position>
            <AltitudeMeters>94.40000152587890625</AltitudeMeters>
            <DistanceMeters>3165.2309687604</DistanceMeters>
          </Trackpoint>
          <Trackpoint>
            <Time>2019-10-04T09:15:02.000Z</Time>
            <Position>
              <LatitudeDegrees>43.49177953787147998809814453125</LatitudeDegrees>
              <LongitudeDegrees>-5.689758248627185821533203125</LongitudeDegrees>
            </Position>
            <AltitudeMeters>94.8000030517578125</AltitudeMeters>
            <DistanceMeters>3183.8241784505</DistanceMeters>
          </Trackpoint>
          <Trackpoint>
            <Time>2019-10-04T09:15:03.000Z</Time>
            <Position>
              <LatitudeDegrees>43.49175070412456989288330078125</LatitudeDegrees>
              <LongitudeDegrees>-5.68973218090832233428955078125</LongitudeDegrees>
            </Position>
            <AltitudeMeters>95.40000152587890625</AltitudeMeters>
            <DistanceMeters>3187.6630695347</DistanceMeters>
          </Trackpoint>
          <Trackpoint>
            <Time>2019-10-04T09:15:10.000Z</Time>
            <Position>
              <LatitudeDegrees>43.49155842326581478118896484375</LatitudeDegrees>
              <LongitudeDegrees>-5.6895394809544086456298828125</LongitudeDegrees>
            </Position>
            <AltitudeMeters>96</AltitudeMeters>
            <DistanceMeters>3214.1226775586</DistanceMeters>
          </Trackpoint>
          <Trackpoint>
            <Time>2019-10-04T09:15:13.000Z</Time>
            <Position>
              <LatitudeDegrees>43.491477705538272857666015625</LatitudeDegrees>
              <LongitudeDegrees>-5.68945591337978839874267578125</LongitudeDegrees>
            </Position>
            <AltitudeMeters>96</AltitudeMeters>
            <DistanceMeters>3225.3583559398</DistanceMeters>
          </Trackpoint>
          <Trackpoint>
            <Time>2019-10-04T09:15:16.000Z</Time>
            <Position>
              <LatitudeDegrees>43.4914010949432849884033203125</LatitudeDegrees>
              <LongitudeDegrees>-5.68937645293772220611572265625</LongitudeDegrees>
            </Position>
            <AltitudeMeters>96.59999847412109375</AltitudeMeters>
            <DistanceMeters>3236.0297332659</DistanceMeters>
          </Trackpoint>
          <Trackpoint>
            <Time>2019-10-04T09:15:22.000Z</Time>
            <Position>
              <LatitudeDegrees>43.49123932421207427978515625</LatitudeDegrees>
              <LongitudeDegrees>-5.6892166100442409515380859375</LongitudeDegrees>
            </Position>
            <AltitudeMeters>97.40000152587890625</AltitudeMeters>
            <DistanceMeters>3258.1833933411</DistanceMeters>
          </Trackpoint>
          <Trackpoint>
            <Time>2019-10-04T09:15:23.000Z</Time>
            <Position>
              <LatitudeDegrees>43.49121141247451305389404296875</LatitudeDegrees>
              <LongitudeDegrees>-5.689190290868282318115234375</LongitudeDegrees>
            </Position>
            <AltitudeMeters>97.59999847412109375</AltitudeMeters>
            <DistanceMeters>3261.9462592521</DistanceMeters>
          </Trackpoint>
          <Trackpoint>
            <Time>2019-10-04T09:15:24.000Z</Time>
            <Position>
              <LatitudeDegrees>43.49118274636566638946533203125</LatitudeDegrees>
              <LongitudeDegrees>-5.6891609542071819305419921875</LongitudeDegrees>
            </Position>
            <AltitudeMeters>97.8000030517578125</AltitudeMeters>
            <DistanceMeters>3265.9192396981</DistanceMeters>
          </Trackpoint>
          <Trackpoint>
            <Time>2019-10-04T09:15:33.000Z</Time>
            <Position>
              <LatitudeDegrees>43.490935899317264556884765625</LatitudeDegrees>
              <LongitudeDegrees>-5.6889118440449237823486328125</LongitudeDegrees>
            </Position>
            <AltitudeMeters>98.8000030517578125</AltitudeMeters>
            <DistanceMeters>3299.9703758841</DistanceMeters>
          </Trackpoint>
          <Trackpoint>
            <Time>2019-10-04T09:15:34.000Z</Time>
            <Position>
              <LatitudeDegrees>43.490905724465847015380859375</LatitudeDegrees>
              <LongitudeDegrees>-5.6888861954212188720703125</LongitudeDegrees>
            </Position>
            <AltitudeMeters>99</AltitudeMeters>
            <DistanceMeters>3303.9171317501</DistanceMeters>
          </Trackpoint>
          <Trackpoint>
            <Time>2019-10-04T09:15:42.000Z</Time>
            <Position>
              <LatitudeDegrees>43.4906594641506671905517578125</LatitudeDegrees>
              <LongitudeDegrees>-5.6886818446218967437744140625</LongitudeDegrees>
            </Position>
            <AltitudeMeters>100</AltitudeMeters>
            <DistanceMeters>3335.9099607086</DistanceMeters>
          </Trackpoint>
          <Trackpoint>
            <Time>2019-10-04T09:15:43.000Z</Time>
            <Position>
              <LatitudeDegrees>43.4906282834708690643310546875</LatitudeDegrees>
              <LongitudeDegrees>-5.6886635720729827880859375</LongitudeDegrees>
            </Position>
            <AltitudeMeters>100.1999969482421875</AltitudeMeters>
            <DistanceMeters>3339.6800191064</DistanceMeters>
          </Trackpoint>
          <Trackpoint>
            <Time>2019-10-04T09:15:48.000Z</Time>
            <Position>
              <LatitudeDegrees>43.49047397263348102569580078125</LatitudeDegrees>
              <LongitudeDegrees>-5.6885950081050395965576171875</LongitudeDegrees>
            </Position>
            <AltitudeMeters>101</AltitudeMeters>
            <DistanceMeters>3357.7250892523</DistanceMeters>
          </Trackpoint>
          <Trackpoint>
            <Time>2019-10-04T09:15:50.000Z</Time>
            <Position>
              <LatitudeDegrees>43.49042234010994434356689453125</LatitudeDegrees>
              <LongitudeDegrees>-5.68856525234878063201904296875</LongitudeDegrees>
            </Position>
            <AltitudeMeters>101.40000152587890625</AltitudeMeters>
            <DistanceMeters>3363.9535086668</DistanceMeters>
          </Trackpoint>
          <Trackpoint>
            <Time>2019-10-04T09:15:57.000Z</Time>
            <Position>
              <LatitudeDegrees>43.4901967830955982208251953125</LatitudeDegrees>
              <LongitudeDegrees>-5.68854781799018383026123046875</LongitudeDegrees>
            </Position>
            <AltitudeMeters>102</AltitudeMeters>
            <DistanceMeters>3389.0979076898</DistanceMeters>
          </Trackpoint>
          <Trackpoint>
            <Time>2019-10-04T09:16:00.000Z</Time>
            <Position>
              <LatitudeDegrees>43.49009913392364978790283203125</LatitudeDegrees>
              <LongitudeDegrees>-5.6885514222085475921630859375</LongitudeDegrees>
            </Position>
            <AltitudeMeters>102.1999969482421875</AltitudeMeters>
            <DistanceMeters>3399.9700602205</DistanceMeters>
          </Trackpoint>
          <Trackpoint>
            <Time>2019-10-04T09:16:06.000Z</Time>
            <Position>
              <LatitudeDegrees>43.489901237189769744873046875</LatitudeDegrees>
              <LongitudeDegrees>-5.68855251185595989227294921875</LongitudeDegrees>
            </Position>
            <AltitudeMeters>103.1999969482421875</AltitudeMeters>
            <DistanceMeters>3421.9965884803</DistanceMeters>
          </Trackpoint>
          <Trackpoint>
            <Time>2019-10-04T09:16:10.000Z</Time>
            <Position>
              <LatitudeDegrees>43.48977148532867431640625</LatitudeDegrees>
              <LongitudeDegrees>-5.688535831868648529052734375</LongitudeDegrees>
            </Position>
            <AltitudeMeters>105.1999969482421875</AltitudeMeters>
            <DistanceMeters>3436.5005417634</DistanceMeters>
          </Trackpoint>
          <Trackpoint>
            <Time>2019-10-04T09:16:11.000Z</Time>
            <Position>
              <LatitudeDegrees>43.48973996937274932861328125</LatitudeDegrees>
              <LongitudeDegrees>-5.688529796898365020751953125</LongitudeDegrees>
            </Position>
            <AltitudeMeters>104</AltitudeMeters>
            <DistanceMeters>3440.0408448725</DistanceMeters>
          </Trackpoint>
          <Trackpoint>
            <Time>2019-10-04T09:16:18.000Z</Time>
            <Position>
              <LatitudeDegrees>43.48951860330998897552490234375</LatitudeDegrees>
              <LongitudeDegrees>-5.68846349604427814483642578125</LongitudeDegrees>
            </Position>
            <AltitudeMeters>105</AltitudeMeters>
            <DistanceMeters>3465.2542814026</DistanceMeters>
          </Trackpoint>
          <Trackpoint>
            <Time>2019-10-04T09:16:22.000Z</Time>
            <Position>
              <LatitudeDegrees>43.4893978200852870941162109375</LatitudeDegrees>
              <LongitudeDegrees>-5.68840934894979000091552734375</LongitudeDegrees>
            </Position>
            <AltitudeMeters>105.8000030517578125</AltitudeMeters>
            <DistanceMeters>3479.3912418912</DistanceMeters>
          </Trackpoint>
          <Trackpoint>
            <Time>2019-10-04T09:16:27.000Z</Time>
            <Position>
              <LatitudeDegrees>43.4892471134662628173828125</LatitudeDegrees>
              <LongitudeDegrees>-5.6883355043828487396240234375</LongitudeDegrees>
            </Position>
            <AltitudeMeters>106.1999969482421875</AltitudeMeters>
            <DistanceMeters>3497.1939839</DistanceMeters>
          </Trackpoint>
          <Trackpoint>
            <Time>2019-10-04T09:16:32.000Z</Time>
            <Position>
              <LatitudeDegrees>43.4890960715711116790771484375</LatitudeDegrees>
              <LongitudeDegrees>-5.68825931288301944732666015625</LongitudeDegrees>
            </Position>
            <AltitudeMeters>107</AltitudeMeters>
            <DistanceMeters>3515.0958668455</DistanceMeters>
          </Trackpoint>
          <Trackpoint>
            <Time>2019-10-04T09:16:34.000Z</Time>
            <Position>
              <LatitudeDegrees>43.489036224782466888427734375</LatitudeDegrees>
              <LongitudeDegrees>-5.68823282606899738311767578125</LongitudeDegrees>
            </Position>
            <AltitudeMeters>107.1999969482421875</AltitudeMeters>
            <DistanceMeters>3522.0917952561</DistanceMeters>
          </Trackpoint>
          <Trackpoint>
            <Time>2019-10-04T09:16:42.000Z</Time>
            <Position>
              <LatitudeDegrees>43.48879055120050907135009765625</LatitudeDegrees>
              <LongitudeDegrees>-5.68815520964562892913818359375</LongitudeDegrees>
            </Position>
            <AltitudeMeters>108.1999969482421875</AltitudeMeters>
            <DistanceMeters>3550.1448015494</DistanceMeters>
          </Trackpoint>
          <Trackpoint>
            <Time>2019-10-04T09:16:49.000Z</Time>
            <Position>
              <LatitudeDegrees>43.4885784052312374114990234375</LatitudeDegrees>
              <LongitudeDegrees>-5.68821497261524200439453125</LongitudeDegrees>
            </Position>
            <AltitudeMeters>109.59999847412109375</AltitudeMeters>
            <DistanceMeters>3574.2452699479</DistanceMeters>
          </Trackpoint>
          <Trackpoint>
            <Time>2019-10-04T09:16:56.000Z</Time>
            <Position>
              <LatitudeDegrees>43.48839911632239818572998046875</LatitudeDegrees>
              <LongitudeDegrees>-5.6884087622165679931640625</LongitudeDegrees>
            </Position>
            <AltitudeMeters>110.59999847412109375</AltitudeMeters>
            <DistanceMeters>3599.6047648993</DistanceMeters>
          </Trackpoint>
          <Trackpoint>
            <Time>2019-10-04T09:16:57.000Z</Time>
            <Position>
              <LatitudeDegrees>43.488377071917057037353515625</LatitudeDegrees>
              <LongitudeDegrees>-5.68843918852508068084716796875</LongitudeDegrees>
            </Position>
            <AltitudeMeters>110.59999847412109375</AltitudeMeters>
            <DistanceMeters>3603.0755172639</DistanceMeters>
          </Trackpoint>
          <Trackpoint>
            <Time>2019-10-04T09:17:06.000Z</Time>
            <Position>
              <LatitudeDegrees>43.4881656803190708160400390625</LatitudeDegrees>
              <LongitudeDegrees>-5.6887126900255680084228515625</LongitudeDegrees>
            </Position>
            <AltitudeMeters>111.59999847412109375</AltitudeMeters>
            <DistanceMeters>3635.34544778</DistanceMeters>
          </Trackpoint>
          <Trackpoint>
            <Time>2019-10-04T09:17:07.000Z</Time>
            <Position>
              <LatitudeDegrees>43.48813860677182674407958984375</LatitudeDegrees>
              <LongitudeDegrees>-5.688736997544765472412109375</LongitudeDegrees>
            </Position>
            <AltitudeMeters>111.8000030517578125</AltitudeMeters>
            <DistanceMeters>3638.9414274056</DistanceMeters>
          </Trackpoint>
          <Trackpoint>
            <Time>2019-10-04T09:17:13.000Z</Time>
            <Position>
              <LatitudeDegrees>43.48795386962592601776123046875</LatitudeDegrees>
              <LongitudeDegrees>-5.68883364088833332061767578125</LongitudeDegrees>
            </Position>
            <AltitudeMeters>112.40000152587890625</AltitudeMeters>
            <DistanceMeters>3660.9339023571</DistanceMeters>
          </Trackpoint>
          <Trackpoint>
            <Time>2019-10-04T09:17:17.000Z</Time>
            <Position>
              <LatitudeDegrees>43.48782579414546489715576171875</LatitudeDegrees>
              <LongitudeDegrees>-5.6888330541551113128662109375</LongitudeDegrees>
            </Position>
            <AltitudeMeters>113</AltitudeMeters>
            <DistanceMeters>3675.18854301</DistanceMeters>
          </Trackpoint>
          <Trackpoint>
            <Time>2019-10-04T09:17:20.000Z</Time>
            <Position>
              <LatitudeDegrees>43.48772923462092876434326171875</LatitudeDegrees>
              <LongitudeDegrees>-5.68879776634275913238525390625</LongitudeDegrees>
            </Position>
            <AltitudeMeters>113.8000030517578125</AltitudeMeters>
            <DistanceMeters>3686.3070746809</DistanceMeters>
          </Trackpoint>
          <Trackpoint>
            <Time>2019-10-04T09:17:22.000Z</Time>
            <Position>
              <LatitudeDegrees>43.487665951251983642578125</LatitudeDegrees>
              <LongitudeDegrees>-5.6887629814445972442626953125</LongitudeDegrees>
            </Position>
            <AltitudeMeters>114</AltitudeMeters>
            <DistanceMeters>3693.8901826714</DistanceMeters>
          </Trackpoint>
          <Trackpoint>
            <Time>2019-10-04T09:17:29.000Z</Time>
            <Position>
              <LatitudeDegrees>43.48745648749172687530517578125</LatitudeDegrees>
              <LongitudeDegrees>-5.6886221654713153839111328125</LongitudeDegrees>
            </Position>
            <AltitudeMeters>114.59999847412109375</AltitudeMeters>
            <DistanceMeters>3719.8291686932</DistanceMeters>
          </Trackpoint>
          <Trackpoint>
            <Time>2019-10-04T09:17:33.000Z</Time>
            <Position>
              <LatitudeDegrees>43.48733863793313503265380859375</LatitudeDegrees>
              <LongitudeDegrees>-5.68853206001222133636474609375</LongitudeDegrees>
            </Position>
            <AltitudeMeters>115.1999969482421875</AltitudeMeters>
            <DistanceMeters>3734.8289481808</DistanceMeters>
          </Trackpoint>
          <Trackpoint>
            <Time>2019-10-04T09:17:37.000Z</Time>
            <Position>
              <LatitudeDegrees>43.4872212074697017669677734375</LatitudeDegrees>
              <LongitudeDegrees>-5.6884401105344295501708984375</LongitudeDegrees>
            </Position>
            <AltitudeMeters>116</AltitudeMeters>
            <DistanceMeters>3749.8612012699</DistanceMeters>
          </Trackpoint>
          <Trackpoint>
            <Time>2019-10-04T09:17:40.000Z</Time>
            <Position>
              <LatitudeDegrees>43.4871360473334789276123046875</LatitudeDegrees>
              <LongitudeDegrees>-5.68837665952742099761962890625</LongitudeDegrees>
            </Position>
            <AltitudeMeters>116.1999969482421875</AltitudeMeters>
            <DistanceMeters>3760.6361580141</DistanceMeters>
          </Trackpoint>
          <Trackpoint>
            <Time>2019-10-04T09:17:44.000Z</Time>
            <Position>
              <LatitudeDegrees>43.48702490329742431640625</LatitudeDegrees>
              <LongitudeDegrees>-5.688287727534770965576171875</LongitudeDegrees>
            </Position>
            <AltitudeMeters>116.59999847412109375</AltitudeMeters>
            <DistanceMeters>3774.9401250187</DistanceMeters>
          </Trackpoint>
          <Trackpoint>
            <Time>2019-10-04T09:17:49.000Z</Time>
            <Position>
              <LatitudeDegrees>43.486879728734493255615234375</LatitudeDegrees>
              <LongitudeDegrees>-5.6881829537451267242431640625</LongitudeDegrees>
            </Position>
            <AltitudeMeters>117.40000152587890625</AltitudeMeters>
            <DistanceMeters>3793.1793140411</DistanceMeters>
          </Trackpoint>
          <Trackpoint>
            <Time>2019-10-04T09:17:54.000Z</Time>
            <Position>
              <LatitudeDegrees>43.48672692663967609405517578125</LatitudeDegrees>
              <LongitudeDegrees>-5.68811195902526378631591796875</LongitudeDegrees>
            </Position>
            <AltitudeMeters>117.59999847412109375</AltitudeMeters>
            <DistanceMeters>3811.1265374129</DistanceMeters>
          </Trackpoint>
          <Trackpoint>
            <Time>2019-10-04T09:17:59.000Z</Time>
            <Position>
              <LatitudeDegrees>43.48656632937490940093994140625</LatitudeDegrees>
              <LongitudeDegrees>-5.68809368647634983062744140625</LongitudeDegrees>
            </Position>
            <AltitudeMeters>118.8000030517578125</AltitudeMeters>
            <DistanceMeters>3829.0621846897</DistanceMeters>
          </Trackpoint>
          <Trackpoint>
            <Time>2019-10-04T09:18:02.000Z</Time>
            <Position>
              <LatitudeDegrees>43.48646926693618297576904296875</LatitudeDegrees>
              <LongitudeDegrees>-5.68810634315013885498046875</LongitudeDegrees>
            </Position>
            <AltitudeMeters>119</AltitudeMeters>
            <DistanceMeters>3839.9135531209</DistanceMeters>
          </Trackpoint>
          <Trackpoint>
            <Time>2019-10-04T09:18:05.000Z</Time>
            <Position>
              <LatitudeDegrees>43.4863746352493762969970703125</LatitudeDegrees>
              <LongitudeDegrees>-5.6881316564977169036865234375</LongitudeDegrees>
            </Position>
            <AltitudeMeters>119.8000030517578125</AltitudeMeters>
            <DistanceMeters>3850.6427382953</DistanceMeters>
          </Trackpoint>
          <Trackpoint>
            <Time>2019-10-04T09:18:12.000Z</Time>
            <Position>
              <LatitudeDegrees>43.48616399802267551422119140625</LatitudeDegrees>
              <LongitudeDegrees>-5.68823249079287052154541015625</LongitudeDegrees>
            </Position>
            <AltitudeMeters>120.59999847412109375</AltitudeMeters>
            <DistanceMeters>3875.4612711769</DistanceMeters>
          </Trackpoint>
          <Trackpoint>
            <Time>2019-10-04T09:18:15.000Z</Time>
            <Position>
              <LatitudeDegrees>43.4860816039144992828369140625</LatitudeDegrees>
              <LongitudeDegrees>-5.68829116411507129669189453125</LongitudeDegrees>
            </Position>
            <AltitudeMeters>120.8000030517578125</AltitudeMeters>
            <DistanceMeters>3885.783814567</DistanceMeters>
          </Trackpoint>
          <Trackpoint>
            <Time>2019-10-04T09:18:21.000Z</Time>
            <Position>
              <LatitudeDegrees>43.48591874353587627410888671875</LatitudeDegrees>
              <LongitudeDegrees>-5.6884293816983699798583984375</LongitudeDegrees>
            </Position>
            <AltitudeMeters>121.8000030517578125</AltitudeMeters>
            <DistanceMeters>3907.071071227</DistanceMeters>
          </Trackpoint>
          <Trackpoint>
            <Time>2019-10-04T09:18:22.000Z</Time>
            <Position>
              <LatitudeDegrees>43.4858911670744419097900390625</LatitudeDegrees>
              <LongitudeDegrees>-5.68845276720821857452392578125</LongitudeDegrees>
            </Position>
            <AltitudeMeters>122</AltitudeMeters>
            <DistanceMeters>3910.6745764548</DistanceMeters>
          </Trackpoint>
          <Trackpoint>
            <Time>2019-10-04T09:18:30.000Z</Time>
            <Position>
              <LatitudeDegrees>43.48568019457161426544189453125</LatitudeDegrees>
              <LongitudeDegrees>-5.68864806555211544036865234375</LongitudeDegrees>
            </Position>
            <AltitudeMeters>122.8000030517578125</AltitudeMeters>
            <DistanceMeters>3938.9609504429</DistanceMeters>
          </Trackpoint>
          <Trackpoint>
            <Time>2019-10-04T09:18:32.000Z</Time>
            <Position>
              <LatitudeDegrees>43.485624790191650390625</LatitudeDegrees>
              <LongitudeDegrees>-5.6886972673237323760986328125</LongitudeDegrees>
            </Position>
            <AltitudeMeters>123</AltitudeMeters>
            <DistanceMeters>3946.2971112648</DistanceMeters>
          </Trackpoint>
          <Trackpoint>
            <Time>2019-10-04T09:18:40.000Z</Time>
            <Position>
              <LatitudeDegrees>43.4854013286530971527099609375</LatitudeDegrees>
              <LongitudeDegrees>-5.6888937391340732574462890625</LongitudeDegrees>
            </Position>
            <AltitudeMeters>124</AltitudeMeters>
            <DistanceMeters>3975.7984298412</DistanceMeters>
          </Trackpoint>
          <Trackpoint>
            <Time>2019-10-04T09:18:43.000Z</Time>
            <Position>
              <LatitudeDegrees>43.48532295785844326019287109375</LatitudeDegrees>
              <LongitudeDegrees>-5.688965655863285064697265625</LongitudeDegrees>
            </Position>
            <AltitudeMeters>124.40000152587890625</AltitudeMeters>
            <DistanceMeters>3986.2772527502</DistanceMeters>
          </Trackpoint>
          <Trackpoint>
            <Time>2019-10-04T09:18:47.000Z</Time>
            <Position>
              <LatitudeDegrees>43.4852135740220546722412109375</LatitudeDegrees>
              <LongitudeDegrees>-5.68906162865459918975830078125</LongitudeDegrees>
            </Position>
            <AltitudeMeters>125</AltitudeMeters>
            <DistanceMeters>4000.7091172583</DistanceMeters>
          </Trackpoint>
          <Trackpoint>
            <Time>2019-10-04T09:18:55.000Z</Time>
            <Position>
              <LatitudeDegrees>43.48499388433992862701416015625</LatitudeDegrees>
              <LongitudeDegrees>-5.68926497362554073333740234375</LongitudeDegrees>
            </Position>
            <AltitudeMeters>125.8000030517578125</AltitudeMeters>
            <DistanceMeters>4030.1634134522</DistanceMeters>
          </Trackpoint>
          <Trackpoint>
            <Time>2019-10-04T09:18:56.000Z</Time>
            <Position>
              <LatitudeDegrees>43.484967648983001708984375</LatitudeDegrees>
              <LongitudeDegrees>-5.689289532601833343505859375</LongitudeDegrees>
            </Position>
            <AltitudeMeters>126.1999969482421875</AltitudeMeters>
            <DistanceMeters>4033.693499215</DistanceMeters>
          </Trackpoint>
          <Trackpoint>
            <Time>2019-10-04T09:19:03.000Z</Time>
            <Position>
              <LatitudeDegrees>43.48478131927549839019775390625</LatitudeDegrees>
              <LongitudeDegrees>-5.68946764804422855377197265625</LongitudeDegrees>
            </Position>
            <AltitudeMeters>127.59999847412109375</AltitudeMeters>
            <DistanceMeters>4058.9321723662</DistanceMeters>
          </Trackpoint>
          <Trackpoint>
            <Time>2019-10-04T09:19:04.000Z</Time>
            <Position>
              <LatitudeDegrees>43.4847532398998737335205078125</LatitudeDegrees>
              <LongitudeDegrees>-5.689492709934711456298828125</LongitudeDegrees>
            </Position>
            <AltitudeMeters>127.40000152587890625</AltitudeMeters>
            <DistanceMeters>4062.6540183148</DistanceMeters>
          </Trackpoint>
          <Trackpoint>
            <Time>2019-10-04T09:19:12.000Z</Time>
            <Position>
              <LatitudeDegrees>43.48453581333160400390625</LatitudeDegrees>
              <LongitudeDegrees>-5.68969555199146270751953125</LongitudeDegrees>
            </Position>
            <AltitudeMeters>128.8000030517578125</AltitudeMeters>
            <DistanceMeters>4091.8768574874</DistanceMeters>
          </Trackpoint>
          <Trackpoint>
            <Time>2019-10-04T09:19:13.000Z</Time>
            <Position>
              <LatitudeDegrees>43.48450890742242336273193359375</LatitudeDegrees>
              <LongitudeDegrees>-5.6897205300629138946533203125</LongitudeDegrees>
            </Position>
            <AltitudeMeters>128.8000030517578125</AltitudeMeters>
            <DistanceMeters>4095.4878726335</DistanceMeters>
          </Trackpoint>
          <Trackpoint>
            <Time>2019-10-04T09:19:21.000Z</Time>
            <Position>
              <LatitudeDegrees>43.48426952026784420013427734375</LatitudeDegrees>
              <LongitudeDegrees>-5.6898915208876132965087890625</LongitudeDegrees>
            </Position>
            <AltitudeMeters>129.600006103515625</AltitudeMeters>
            <DistanceMeters>4125.4978145525</DistanceMeters>
          </Trackpoint>
          <Trackpoint>
            <Time>2019-10-04T09:19:22.000Z</Time>
            <Position>
              <LatitudeDegrees>43.48424068652093410491943359375</LatitudeDegrees>
              <LongitudeDegrees>-5.689912475645542144775390625</LongitudeDegrees>
            </Position>
            <AltitudeMeters>130</AltitudeMeters>
            <DistanceMeters>4129.1262923953</DistanceMeters>
          </Trackpoint>
          <Trackpoint>
            <Time>2019-10-04T09:19:30.000Z</Time>
            <Position>
              <LatitudeDegrees>43.4840052388608455657958984375</LatitudeDegrees>
              <LongitudeDegrees>-5.69006209261715412139892578125</LongitudeDegrees>
            </Position>
            <AltitudeMeters>131</AltitudeMeters>
            <DistanceMeters>4157.9834507708</DistanceMeters>
          </Trackpoint>
          <Trackpoint>
            <Time>2019-10-04T09:19:31.000Z</Time>
            <Position>
              <LatitudeDegrees>43.48397481255233287811279296875</LatitudeDegrees>
              <LongitudeDegrees>-5.69007852114737033843994140625</LongitudeDegrees>
            </Position>
            <AltitudeMeters>130.8000030517578125</AltitudeMeters>
            <DistanceMeters>4161.6206285215</DistanceMeters>
          </Trackpoint>
          <Trackpoint>
            <Time>2019-10-04T09:19:38.000Z</Time>
            <Position>
              <LatitudeDegrees>43.4838030673563480377197265625</LatitudeDegrees>
              <LongitudeDegrees>-5.690174996852874755859375</LongitudeDegrees>
            </Position>
            <AltitudeMeters>131.8000030517578125</AltitudeMeters>
            <DistanceMeters>4182.2630907593</DistanceMeters>
          </Trackpoint>
          <Trackpoint>
            <Time>2019-10-04T09:19:40.000Z</Time>
            <Position>
              <LatitudeDegrees>43.4837544523179531097412109375</LatitudeDegrees>
              <LongitudeDegrees>-5.69020089693367481231689453125</LongitudeDegrees>
            </Position>
            <AltitudeMeters>132.1999969482421875</AltitudeMeters>
            <DistanceMeters>4188.0636135659</DistanceMeters>
          </Trackpoint>
          <Trackpoint>
            <Time>2019-10-04T09:19:44.000Z</Time>
            <Position>
              <LatitudeDegrees>43.4836387820541858673095703125</LatitudeDegrees>
              <LongitudeDegrees>-5.690266191959381103515625</LongitudeDegrees>
            </Position>
            <AltitudeMeters>132.399993896484375</AltitudeMeters>
            <DistanceMeters>4201.9758620722</DistanceMeters>
          </Trackpoint>
          <Trackpoint>
            <Time>2019-10-04T09:19:49.000Z</Time>
            <Position>
              <LatitudeDegrees>43.48349352367222309112548828125</LatitudeDegrees>
              <LongitudeDegrees>-5.690346322953701019287109375</LongitudeDegrees>
            </Position>
            <AltitudeMeters>133.1999969482421875</AltitudeMeters>
            <DistanceMeters>4219.3903987383</DistanceMeters>
          </Trackpoint>
          <Trackpoint>
            <Time>2019-10-04T09:19:55.000Z</Time>
            <Position>
              <LatitudeDegrees>43.48331364803016185760498046875</LatitudeDegrees>
              <LongitudeDegrees>-5.690444894134998321533203125</LongitudeDegrees>
            </Position>
            <AltitudeMeters>133.8000030517578125</AltitudeMeters>
            <DistanceMeters>4240.9357023954</DistanceMeters>
          </Trackpoint>
          <Trackpoint>
            <Time>2019-10-04T09:19:58.000Z</Time>
            <Position>
              <LatitudeDegrees>43.48322127945721149444580078125</LatitudeDegrees>
              <LongitudeDegrees>-5.6904832832515239715576171875</LongitudeDegrees>
            </Position>
            <AltitudeMeters>134.399993896484375</AltitudeMeters>
            <DistanceMeters>4251.6741415832</DistanceMeters>
          </Trackpoint>
          <Trackpoint>
            <Time>2019-10-04T09:20:03.000Z</Time>
            <Position>
              <LatitudeDegrees>43.48306537605822086334228515625</LatitudeDegrees>
              <LongitudeDegrees>-5.690522007644176483154296875</LongitudeDegrees>
            </Position>
            <AltitudeMeters>135.1999969482421875</AltitudeMeters>
            <DistanceMeters>4269.306142939</DistanceMeters>
          </Trackpoint>
          <Trackpoint>
            <Time>2019-10-04T09:20:04.000Z</Time>
            <Position>
              <LatitudeDegrees>43.4830332733690738677978515625</LatitudeDegrees>
              <LongitudeDegrees>-5.690525360405445098876953125</LongitudeDegrees>
            </Position>
            <AltitudeMeters>135.399993896484375</AltitudeMeters>
            <DistanceMeters>4272.8895447729</DistanceMeters>
          </Trackpoint>
          <Trackpoint>
            <Time>2019-10-04T09:20:05.000Z</Time>
            <Position>
              <LatitudeDegrees>43.483002595603466033935546875</LatitudeDegrees>
              <LongitudeDegrees>-5.690527372062206268310546875</LongitudeDegrees>
            </Position>
            <AltitudeMeters>135.399993896484375</AltitudeMeters>
            <DistanceMeters>4276.3078658401</DistanceMeters>
          </Trackpoint>
          <Trackpoint>
            <Time>2019-10-04T09:20:12.000Z</Time>
            <Position>
              <LatitudeDegrees>43.48277905024588108062744140625</LatitudeDegrees>
              <LongitudeDegrees>-5.69049082696437835693359375</LongitudeDegrees>
            </Position>
            <AltitudeMeters>136</AltitudeMeters>
            <DistanceMeters>4301.3632228399</DistanceMeters>
          </Trackpoint>
          <Trackpoint>
            <Time>2019-10-04T09:20:15.000Z</Time>
            <Position>
              <LatitudeDegrees>43.48268165253102779388427734375</LatitudeDegrees>
              <LongitudeDegrees>-5.69045168347656726837158203125</LongitudeDegrees>
            </Position>
            <AltitudeMeters>136.600006103515625</AltitudeMeters>
            <DistanceMeters>4312.6554196795</DistanceMeters>
          </Trackpoint>
          <Trackpoint>
            <Time>2019-10-04T09:20:21.000Z</Time>
            <Position>
              <LatitudeDegrees>43.4824906289577484130859375</LatitudeDegrees>
              <LongitudeDegrees>-5.69035998545587062835693359375</LongitudeDegrees>
            </Position>
            <AltitudeMeters>137.1999969482421875</AltitudeMeters>
            <DistanceMeters>4335.1693320661</DistanceMeters>
          </Trackpoint>
          <Trackpoint>
            <Time>2019-10-04T09:20:26.000Z</Time>
            <Position>
              <LatitudeDegrees>43.482336737215518951416015625</LatitudeDegrees>
              <LongitudeDegrees>-5.690278597176074981689453125</LongitudeDegrees>
            </Position>
            <AltitudeMeters>137.8000030517578125</AltitudeMeters>
            <DistanceMeters>4353.5156414872</DistanceMeters>
          </Trackpoint>
          <Trackpoint>
            <Time>2019-10-04T09:20:31.000Z</Time>
            <Position>
              <LatitudeDegrees>43.482182510197162628173828125</LatitudeDegrees>
              <LongitudeDegrees>-5.6901805289089679718017578125</LongitudeDegrees>
            </Position>
            <AltitudeMeters>138.8000030517578125</AltitudeMeters>
            <DistanceMeters>4372.4204653557</DistanceMeters>
          </Trackpoint>
          <Trackpoint>
            <Time>2019-10-04T09:20:32.000Z</Time>
            <Position>
              <LatitudeDegrees>43.48215342499315738677978515625</LatitudeDegrees>
              <LongitudeDegrees>-5.69015982560813426971435546875</LongitudeDegrees>
            </Position>
            <AltitudeMeters>139.1999969482421875</AltitudeMeters>
            <DistanceMeters>4376.0638446075</DistanceMeters>
          </Trackpoint>
          <Trackpoint>
            <Time>2019-10-04T09:20:41.000Z</Time>
            <Position>
              <LatitudeDegrees>43.48189450800418853759765625</LatitudeDegrees>
              <LongitudeDegrees>-5.68997140042483806610107421875</LongitudeDegrees>
            </Position>
            <AltitudeMeters>140</AltitudeMeters>
            <DistanceMeters>4408.6526047953</DistanceMeters>
          </Trackpoint>
          <Trackpoint>
            <Time>2019-10-04T09:20:42.000Z</Time>
            <Position>
              <LatitudeDegrees>43.48186827264726161956787109375</LatitudeDegrees>
              <LongitudeDegrees>-5.68994910456240177154541015625</LongitudeDegrees>
            </Position>
            <AltitudeMeters>140.1999969482421875</AltitudeMeters>
            <DistanceMeters>4412.0841087925</DistanceMeters>
          </Trackpoint>
          <Trackpoint>
            <Time>2019-10-04T09:20:49.000Z</Time>
            <Position>
              <LatitudeDegrees>43.48167498596012592315673828125</LatitudeDegrees>
              <LongitudeDegrees>-5.68978448398411273956298828125</LongitudeDegrees>
            </Position>
            <AltitudeMeters>141.399993896484375</AltitudeMeters>
            <DistanceMeters>4437.3738937717</DistanceMeters>
          </Trackpoint>
          <Trackpoint>
            <Time>2019-10-04T09:20:52.000Z</Time>
            <Position>
              <LatitudeDegrees>43.48159569315612316131591796875</LatitudeDegrees>
              <LongitudeDegrees>-5.68970720283687114715576171875</LongitudeDegrees>
            </Position>
            <AltitudeMeters>141.8000030517578125</AltitudeMeters>
            <DistanceMeters>4448.1827387161</DistanceMeters>
          </Trackpoint>
          <Trackpoint>
            <Time>2019-10-04T09:20:56.000Z</Time>
            <Position>
              <LatitudeDegrees>43.48149443976581096649169921875</LatitudeDegrees>
              <LongitudeDegrees>-5.68959756754338741302490234375</LongitudeDegrees>
            </Position>
            <AltitudeMeters>142.399993896484375</AltitudeMeters>
            <DistanceMeters>4462.5144559473</DistanceMeters>
          </Trackpoint>
          <Trackpoint>
            <Time>2019-10-04T09:21:02.000Z</Time>
            <Position>
              <LatitudeDegrees>43.48134960047900676727294921875</LatitudeDegrees>
              <LongitudeDegrees>-5.68941484205424785614013671875</LongitudeDegrees>
            </Position>
            <AltitudeMeters>143.1999969482421875</AltitudeMeters>
            <DistanceMeters>4484.3697739175</DistanceMeters>
          </Trackpoint>
          <Trackpoint>
            <Time>2019-10-04T09:21:05.000Z</Time>
            <Position>
              <LatitudeDegrees>43.48128137178719043731689453125</LatitudeDegrees>
              <LongitudeDegrees>-5.68932004272937774658203125</LongitudeDegrees>
            </Position>
            <AltitudeMeters>143.600006103515625</AltitudeMeters>
            <DistanceMeters>4495.1531080201</DistanceMeters>
          </Trackpoint>
          <Trackpoint>
            <Time>2019-10-04T09:21:12.000Z</Time>
            <Position>
              <LatitudeDegrees>43.4811158291995525360107421875</LatitudeDegrees>
              <LongitudeDegrees>-5.689099095761775970458984375</LongitudeDegrees>
            </Position>
            <AltitudeMeters>144.600006103515625</AltitudeMeters>
            <DistanceMeters>4520.8024007848</DistanceMeters>
          </Trackpoint>
          <Trackpoint>
            <Time>2019-10-04T09:21:13.000Z</Time>
            <Position>
              <LatitudeDegrees>43.48109227605164051055908203125</LatitudeDegrees>
              <LongitudeDegrees>-5.6890690885484218597412109375</LongitudeDegrees>
            </Position>
            <AltitudeMeters>144.8000030517578125</AltitudeMeters>
            <DistanceMeters>4524.3719158586</DistanceMeters>
          </Trackpoint>
          <Trackpoint>
            <Time>2019-10-04T09:21:21.000Z</Time>
            <Position>
              <LatitudeDegrees>43.4809032641351222991943359375</LatitudeDegrees>
              <LongitudeDegrees>-5.68881310522556304931640625</LongitudeDegrees>
            </Position>
            <AltitudeMeters>145.600006103515625</AltitudeMeters>
            <DistanceMeters>4553.8672650643</DistanceMeters>
          </Trackpoint>
          <Trackpoint>
            <Time>2019-10-04T09:21:25.000Z</Time>
            <Position>
              <LatitudeDegrees>43.480807207524776458740234375</LatitudeDegrees>
              <LongitudeDegrees>-5.6886930763721466064453125</LongitudeDegrees>
            </Position>
            <AltitudeMeters>146.1999969482421875</AltitudeMeters>
            <DistanceMeters>4568.2991295724</DistanceMeters>
          </Trackpoint>
          <Trackpoint>
            <Time>2019-10-04T09:21:28.000Z</Time>
            <Position>
              <LatitudeDegrees>43.480730764567852020263671875</LatitudeDegrees>
              <LongitudeDegrees>-5.68860230036079883575439453125</LongitudeDegrees>
            </Position>
            <AltitudeMeters>146.8000030517578125</AltitudeMeters>
            <DistanceMeters>4579.5299847388</DistanceMeters>
          </Trackpoint>
          <Trackpoint>
            <Time>2019-10-04T09:21:33.000Z</Time>
            <Position>
              <LatitudeDegrees>43.4806045331060886383056640625</LatitudeDegrees>
              <LongitudeDegrees>-5.688454024493694305419921875</LongitudeDegrees>
            </Position>
            <AltitudeMeters>147.600006103515625</AltitudeMeters>
            <DistanceMeters>4597.9906208328</DistanceMeters>
          </Trackpoint>
          <Trackpoint>
            <Time>2019-10-04T09:21:36.000Z</Time>
            <Position>
              <LatitudeDegrees>43.480522893369197845458984375</LatitudeDegrees>
              <LongitudeDegrees>-5.68837548606097698211669921875</LongitudeDegrees>
            </Position>
            <AltitudeMeters>147.8000030517578125</AltitudeMeters>
            <DistanceMeters>4609.0725448371</DistanceMeters>
          </Trackpoint>
          <Trackpoint>
            <Time>2019-10-04T09:21:44.000Z</Time>
            <Position>
              <LatitudeDegrees>43.4802910499274730682373046875</LatitudeDegrees>
              <LongitudeDegrees>-5.68822209723293781280517578125</LongitudeDegrees>
            </Position>
            <AltitudeMeters>149</AltitudeMeters>
            <DistanceMeters>4637.696730173</DistanceMeters>
          </Trackpoint>
          <Trackpoint>
            <Time>2019-10-04T09:21:49.000Z</Time>
            <Position>
              <LatitudeDegrees>43.48013053648173809051513671875</LatitudeDegrees>
              <LongitudeDegrees>-5.68825788795948028564453125</LongitudeDegrees>
            </Position>
            <AltitudeMeters>149.8000030517578125</AltitudeMeters>
            <DistanceMeters>4655.7942679233</DistanceMeters>
          </Trackpoint>
          <Trackpoint>
            <Time>2019-10-04T09:21:51.000Z</Time>
            <Position>
              <LatitudeDegrees>43.48007605411112308502197265625</LatitudeDegrees>
              <LongitudeDegrees>-5.68830474279820919036865234375</LongitudeDegrees>
            </Position>
            <AltitudeMeters>150.1999969482421875</AltitudeMeters>
            <DistanceMeters>4662.9421468059</DistanceMeters>
          </Trackpoint>
          <Trackpoint>
            <Time>2019-10-04T09:21:55.000Z</Time>
            <Position>
              <LatitudeDegrees>43.4799993596971035003662109375</LatitudeDegrees>
              <LongitudeDegrees>-5.68843357264995574951171875</LongitudeDegrees>
            </Position>
            <AltitudeMeters>151</AltitudeMeters>
            <DistanceMeters>4676.4004257937</DistanceMeters>
          </Trackpoint>
          <Trackpoint>
            <Time>2019-10-04T09:21:57.000Z</Time>
            <Position>
              <LatitudeDegrees>43.4799715317785739898681640625</LatitudeDegrees>
              <LongitudeDegrees>-5.68851328454911708831787109375</LongitudeDegrees>
            </Position>
            <AltitudeMeters>151.1999969482421875</AltitudeMeters>
            <DistanceMeters>4683.5451456718</DistanceMeters>
          </Trackpoint>
          <Trackpoint>
            <Time>2019-10-04T09:22:03.000Z</Time>
            <Position>
              <LatitudeDegrees>43.4799014590680599212646484375</LatitudeDegrees>
              <LongitudeDegrees>-5.68875870667397975921630859375</LongitudeDegrees>
            </Position>
            <AltitudeMeters>152.1999969482421875</AltitudeMeters>
            <DistanceMeters>4704.8455485049</DistanceMeters>
          </Trackpoint>
          <Trackpoint>
            <Time>2019-10-04T09:22:04.000Z</Time>
            <Position>
              <LatitudeDegrees>43.4798907302320003509521484375</LatitudeDegrees>
              <LongitudeDegrees>-5.68879843689501285552978515625</LongitudeDegrees>
            </Position>
            <AltitudeMeters>152.399993896484375</AltitudeMeters>
            <DistanceMeters>4708.2691488356</DistanceMeters>
          </Trackpoint>
          <Trackpoint>
            <Time>2019-10-04T09:22:11.000Z</Time>
            <Position>
              <LatitudeDegrees>43.4797948412597179412841796875</LatitudeDegrees>
              <LongitudeDegrees>-5.689086355268955230712890625</LongitudeDegrees>
            </Position>
            <AltitudeMeters>153.399993896484375</AltitudeMeters>
            <DistanceMeters>4733.8544630134</DistanceMeters>
          </Trackpoint>
          <Trackpoint>
            <Time>2019-10-04T09:22:12.000Z</Time>
            <Position>
              <LatitudeDegrees>43.479780256748199462890625</LatitudeDegrees>
              <LongitudeDegrees>-5.68912566639482975006103515625</LongitudeDegrees>
            </Position>
            <AltitudeMeters>153.600006103515625</AltitudeMeters>
            <DistanceMeters>4737.4201814028</DistanceMeters>
          </Trackpoint>
          <Trackpoint>
            <Time>2019-10-04T09:22:17.000Z</Time>
            <Position>
              <LatitudeDegrees>43.4796904027462005615234375</LatitudeDegrees>
              <LongitudeDegrees>-5.68930302746593952178955078125</LongitudeDegrees>
            </Position>
            <AltitudeMeters>154</AltitudeMeters>
            <DistanceMeters>4754.8901133905</DistanceMeters>
          </Trackpoint>
          <Trackpoint>
            <Time>2019-10-04T09:22:21.000Z</Time>
            <Position>
              <LatitudeDegrees>43.47961689345538616180419921875</LatitudeDegrees>
              <LongitudeDegrees>-5.68944116123020648956298828125</LongitudeDegrees>
            </Position>
            <AltitudeMeters>154.600006103515625</AltitudeMeters>
            <DistanceMeters>4768.7249064972</DistanceMeters>
          </Trackpoint>
          <Trackpoint>
            <Time>2019-10-04T09:22:27.000Z</Time>
            <Position>
              <LatitudeDegrees>43.47948093898594379425048828125</LatitudeDegrees>
              <LongitudeDegrees>-5.6896229647099971771240234375</LongitudeDegrees>
            </Position>
            <AltitudeMeters>155.1999969482421875</AltitudeMeters>
            <DistanceMeters>4789.8099190314</DistanceMeters>
          </Trackpoint>
          <Trackpoint>
            <Time>2019-10-04T09:22:30.000Z</Time>
            <Position>
              <LatitudeDegrees>43.4794015623629093170166015625</LatitudeDegrees>
              <LongitudeDegrees>-5.68969915620982646942138671875</LongitudeDegrees>
            </Position>
            <AltitudeMeters>155.600006103515625</AltitudeMeters>
            <DistanceMeters>4800.5760725337</DistanceMeters>
          </Trackpoint>
          <Trackpoint>
            <Time>2019-10-04T09:22:36.000Z</Time>
            <Position>
              <LatitudeDegrees>43.47923266701400279998779296875</LatitudeDegrees>
              <LongitudeDegrees>-5.68981532938778400421142578125</LongitudeDegrees>
            </Position>
            <AltitudeMeters>157</AltitudeMeters>
            <DistanceMeters>4821.5860041568</DistanceMeters>
          </Trackpoint>
          <Trackpoint>
            <Time>2019-10-04T09:22:44.000Z</Time>
            <Position>
              <LatitudeDegrees>43.47898841835558414459228515625</LatitudeDegrees>
              <LongitudeDegrees>-5.68991289474070072174072265625</LongitudeDegrees>
            </Position>
            <AltitudeMeters>157.8000030517578125</AltitudeMeters>
            <DistanceMeters>4849.8904093269</DistanceMeters>
          </Trackpoint>
          <Trackpoint>
            <Time>2019-10-04T09:22:45.000Z</Time>
            <Position>
              <LatitudeDegrees>43.47895790822803974151611328125</LatitudeDegrees>
              <LongitudeDegrees>-5.6899210251867771148681640625</LongitudeDegrees>
            </Position>
            <AltitudeMeters>158</AltitudeMeters>
            <DistanceMeters>4853.3481284034</DistanceMeters>
          </Trackpoint>
          <Trackpoint>
            <Time>2019-10-04T09:22:50.000Z</Time>
            <Position>
              <LatitudeDegrees>43.47880057990550994873046875</LatitudeDegrees>
              <LongitudeDegrees>-5.68995245732367038726806640625</LongitudeDegrees>
            </Position>
            <AltitudeMeters>158.399993896484375</AltitudeMeters>
            <DistanceMeters>4871.0419903423</DistanceMeters>
          </Trackpoint>
          <Trackpoint>
            <Time>2019-10-04T09:22:55.000Z</Time>
            <Position>
              <LatitudeDegrees>43.47864325158298015594482421875</LatitudeDegrees>
              <LongitudeDegrees>-5.68999671377241611480712890625</LongitudeDegrees>
            </Position>
            <AltitudeMeters>159</AltitudeMeters>
            <DistanceMeters>4888.9140877003</DistanceMeters>
          </Trackpoint>
          <Trackpoint>
            <Time>2019-10-04T09:22:58.000Z</Time>
            <Position>
              <LatitudeDegrees>43.4785466082394123077392578125</LatitudeDegrees>
              <LongitudeDegrees>-5.6900162436068058013916015625</LongitudeDegrees>
            </Position>
            <AltitudeMeters>159.8000030517578125</AltitudeMeters>
            <DistanceMeters>4899.78540963</DistanceMeters>
          </Trackpoint>
          <Trackpoint>
            <Time>2019-10-04T09:23:01.000Z</Time>
            <Position>
              <LatitudeDegrees>43.47845457494258880615234375</LatitudeDegrees>
              <LongitudeDegrees>-5.69005362689495086669921875</LongitudeDegrees>
            </Position>
            <AltitudeMeters>160.1999969482421875</AltitudeMeters>
            <DistanceMeters>4910.4644000041</DistanceMeters>
          </Trackpoint>
          <Trackpoint>
            <Time>2019-10-04T09:23:05.000Z</Time>
            <Position>
              <LatitudeDegrees>43.4783394075930118560791015625</LatitudeDegrees>
              <LongitudeDegrees>-5.69012043066322803497314453125</LongitudeDegrees>
            </Position>
            <AltitudeMeters>160.8000030517578125</AltitudeMeters>
            <DistanceMeters>4924.3721042514</DistanceMeters>
          </Trackpoint>
          <Trackpoint>
            <Time>2019-10-04T09:23:09.000Z</Time>
            <Position>
              <LatitudeDegrees>43.4782351367175579071044921875</LatitudeDegrees>
              <LongitudeDegrees>-5.69020810537040233612060546875</LongitudeDegrees>
            </Position>
            <AltitudeMeters>161.1999969482421875</AltitudeMeters>
            <DistanceMeters>4937.9669037931</DistanceMeters>
          </Trackpoint>
          <Trackpoint>
            <Time>2019-10-04T09:23:11.000Z</Time>
            <Position>
              <LatitudeDegrees>43.47818098962306976318359375</LatitudeDegrees>
              <LongitudeDegrees>-5.690252445638179779052734375</LongitudeDegrees>
            </Position>
            <AltitudeMeters>161.600006103515625</AltitudeMeters>
            <DistanceMeters>4944.9770162036</DistanceMeters>
          </Trackpoint>
          <Trackpoint>
            <Time>2019-10-04T09:23:17.000Z</Time>
            <Position>
              <LatitudeDegrees>43.4780274331569671630859375</LatitudeDegrees>
              <LongitudeDegrees>-5.6904014758765697479248046875</LongitudeDegrees>
            </Position>
            <AltitudeMeters>162.399993896484375</AltitudeMeters>
            <DistanceMeters>4965.8807335554</DistanceMeters>
          </Trackpoint>
          <Trackpoint>
            <Time>2019-10-04T09:23:19.000Z</Time>
            <Position>
              <LatitudeDegrees>43.4779766388237476348876953125</LatitudeDegrees>
              <LongitudeDegrees>-5.69045193493366241455078125</LongitudeDegrees>
            </Position>
            <AltitudeMeters>162.600006103515625</AltitudeMeters>
            <DistanceMeters>4972.8501511201</DistanceMeters>
          </Trackpoint>
          <Trackpoint>
            <Time>2019-10-04T09:23:26.000Z</Time>
            <Position>
              <LatitudeDegrees>43.47780187614262104034423828125</LatitudeDegrees>
              <LongitudeDegrees>-5.69063692353665828704833984375</LongitudeDegrees>
            </Position>
            <AltitudeMeters>163.399993896484375</AltitudeMeters>
            <DistanceMeters>4997.3773542362</DistanceMeters>
          </Trackpoint>
          <Trackpoint>
            <Time>2019-10-04T09:23:29.000Z</Time>
            <Position>
              <LatitudeDegrees>43.477724678814411163330078125</LatitudeDegrees>
              <LongitudeDegrees>-5.69071655161678791046142578125</LongitudeDegrees>
            </Position>
            <AltitudeMeters>164</AltitudeMeters>
            <DistanceMeters>5008.1107467694</DistanceMeters>
          </Trackpoint>
          <Trackpoint>
            <Time>2019-10-04T09:23:31.000Z</Time>
            <Position>
              <LatitudeDegrees>43.477677404880523681640625</LatitudeDegrees>
              <LongitudeDegrees>-5.6907706148922443389892578125</LongitudeDegrees>
            </Position>
            <AltitudeMeters>164.399993896484375</AltitudeMeters>
            <DistanceMeters>5014.9473889038</DistanceMeters>
          </Trackpoint>
          <Trackpoint>
            <Time>2019-10-04T09:23:36.000Z</Time>
            <Position>
              <LatitudeDegrees>43.47754396498203277587890625</LatitudeDegrees>
              <LongitudeDegrees>-5.6908817589282989501953125</LongitudeDegrees>
            </Position>
            <AltitudeMeters>165</AltitudeMeters>
            <DistanceMeters>5032.3014109011</DistanceMeters>
          </Trackpoint>
          <Trackpoint>
            <Time>2019-10-04T09:23:42.000Z</Time>
            <Position>
              <LatitudeDegrees>43.4773684479296207427978515625</LatitudeDegrees>
              <LongitudeDegrees>-5.690998099744319915771484375</LongitudeDegrees>
            </Position>
            <AltitudeMeters>165.600006103515625</AltitudeMeters>
            <DistanceMeters>5053.9791685837</DistanceMeters>
          </Trackpoint>
          <Trackpoint>
            <Time>2019-10-04T09:23:46.000Z</Time>
            <Position>
              <LatitudeDegrees>43.47724414430558681488037109375</LatitudeDegrees>
              <LongitudeDegrees>-5.691062472760677337646484375</LongitudeDegrees>
            </Position>
            <AltitudeMeters>166.1999969482421875</AltitudeMeters>
            <DistanceMeters>5068.7588015013</DistanceMeters>
          </Trackpoint>
          <Trackpoint>
            <Time>2019-10-04T09:23:49.000Z</Time>
            <Position>
              <LatitudeDegrees>43.477159403264522552490234375</LatitudeDegrees>
              <LongitudeDegrees>-5.691123493015766143798828125</LongitudeDegrees>
            </Position>
            <AltitudeMeters>166.600006103515625</AltitudeMeters>
            <DistanceMeters>5079.4000964698</DistanceMeters>
          </Trackpoint>
          <Trackpoint>
            <Time>2019-10-04T09:23:54.000Z</Time>
            <Position>
              <LatitudeDegrees>43.47702705301344394683837890625</LatitudeDegrees>
              <LongitudeDegrees>-5.69123069755733013153076171875</LongitudeDegrees>
            </Position>
            <AltitudeMeters>167.1999969482421875</AltitudeMeters>
            <DistanceMeters>5096.4869461381</DistanceMeters>
          </Trackpoint>
          <Trackpoint>
            <Time>2019-10-04T09:23:57.000Z</Time>
            <Position>
              <LatitudeDegrees>43.47694759257137775421142578125</LatitudeDegrees>
              <LongitudeDegrees>-5.69129414856433868408203125</LongitudeDegrees>
            </Position>
            <AltitudeMeters>168</AltitudeMeters>
            <DistanceMeters>5106.7083934161</DistanceMeters>
          </Trackpoint>
          <Trackpoint>
            <Time>2019-10-04T09:24:01.000Z</Time>
            <Position>
              <LatitudeDegrees>43.47683276049792766571044921875</LatitudeDegrees>
              <LongitudeDegrees>-5.69137997925281524658203125</LongitudeDegrees>
            </Position>
            <AltitudeMeters>168.399993896484375</AltitudeMeters>
            <DistanceMeters>5121.2487228409</DistanceMeters>
          </Trackpoint>
          <Trackpoint>
            <Time>2019-10-04T09:24:08.000Z</Time>
            <Position>
              <LatitudeDegrees>43.47662807442247867584228515625</LatitudeDegrees>
              <LongitudeDegrees>-5.6915236450731754302978515625</LongitudeDegrees>
            </Position>
            <AltitudeMeters>169</AltitudeMeters>
            <DistanceMeters>5146.8153243646</DistanceMeters>
          </Trackpoint>
          <Trackpoint>
            <Time>2019-10-04T09:24:09.000Z</Time>
            <Position>
              <LatitudeDegrees>43.47660292871296405792236328125</LatitudeDegrees>
              <LongitudeDegrees>-5.69154602475464344024658203125</LongitudeDegrees>
            </Position>
            <AltitudeMeters>169</AltitudeMeters>
            <DistanceMeters>5150.148040078</DistanceMeters>
          </Trackpoint>
          <Trackpoint>
            <Time>2019-10-04T09:24:16.000Z</Time>
            <Position>
              <LatitudeDegrees>43.47639757208526134490966796875</LatitudeDegrees>
              <LongitudeDegrees>-5.69169086404144763946533203125</LongitudeDegrees>
            </Position>
            <AltitudeMeters>169.8000030517578125</AltitudeMeters>
            <DistanceMeters>5175.8244271115</DistanceMeters>
          </Trackpoint>
          <Trackpoint>
            <Time>2019-10-04T09:24:18.000Z</Time>
            <Position>
              <LatitudeDegrees>43.47633428871631622314453125</LatitudeDegrees>
              <LongitudeDegrees>-5.6917194463312625885009765625</LongitudeDegrees>
            </Position>
            <AltitudeMeters>170</AltitudeMeters>
            <DistanceMeters>5183.2365108324</DistanceMeters>
          </Trackpoint>
          <Trackpoint>
            <Time>2019-10-04T09:24:23.000Z</Time>
            <Position>
              <LatitudeDegrees>43.47618182189762592315673828125</LatitudeDegrees>
              <LongitudeDegrees>-5.691792033612728118896484375</LongitudeDegrees>
            </Position>
            <AltitudeMeters>171</AltitudeMeters>
            <DistanceMeters>5201.1907768685</DistanceMeters>
          </Trackpoint>
          <Trackpoint>
            <Time>2019-10-04T09:24:24.000Z</Time>
            <Position>
              <LatitudeDegrees>43.4761493839323520660400390625</LatitudeDegrees>
              <LongitudeDegrees>-5.691804103553295135498046875</LongitudeDegrees>
            </Position>
            <AltitudeMeters>171.1999969482421875</AltitudeMeters>
            <DistanceMeters>5204.9295678944</DistanceMeters>
          </Trackpoint>
          <Trackpoint>
            <Time>2019-10-04T09:24:32.000Z</Time>
            <Position>
              <LatitudeDegrees>43.47588174976408481597900390625</LatitudeDegrees>
              <LongitudeDegrees>-5.69187224842607975006103515625</LongitudeDegrees>
            </Position>
            <AltitudeMeters>172.1999969482421875</AltitudeMeters>
            <DistanceMeters>5235.2220812968</DistanceMeters>
          </Trackpoint>
          <Trackpoint>
            <Time>2019-10-04T09:24:33.000Z</Time>
            <Position>
              <LatitudeDegrees>43.47584989853203296661376953125</LatitudeDegrees>
              <LongitudeDegrees>-5.691879875957965850830078125</LongitudeDegrees>
            </Position>
            <AltitudeMeters>172.600006103515625</AltitudeMeters>
            <DistanceMeters>5238.8205712052</DistanceMeters>
          </Trackpoint>
          <Trackpoint>
            <Time>2019-10-04T09:24:38.000Z</Time>
            <Position>
              <LatitudeDegrees>43.47568712197244167327880859375</LatitudeDegrees>
              <LongitudeDegrees>-5.69190208800137042999267578125</LongitudeDegrees>
            </Position>
            <AltitudeMeters>173</AltitudeMeters>
            <DistanceMeters>5257.0265588453</DistanceMeters>
          </Trackpoint>
          <Trackpoint>
            <Time>2019-10-04T09:24:40.000Z</Time>
            <Position>
              <LatitudeDegrees>43.47562341950833797454833984375</LatitudeDegrees>
              <LongitudeDegrees>-5.6919092126190662384033203125</LongitudeDegrees>
            </Position>
            <AltitudeMeters>173.1999969482421875</AltitudeMeters>
            <DistanceMeters>5264.140880912</DistanceMeters>
          </Trackpoint>
          <Trackpoint>
            <Time>2019-10-04T09:24:45.000Z</Time>
            <Position>
              <LatitudeDegrees>43.4754640795290470123291015625</LatitudeDegrees>
              <LongitudeDegrees>-5.69192849099636077880859375</LongitudeDegrees>
            </Position>
            <AltitudeMeters>174</AltitudeMeters>
            <DistanceMeters>5281.9441301431</DistanceMeters>
          </Trackpoint>
          <Trackpoint>
            <Time>2019-10-04T09:24:49.000Z</Time>
            <Position>
              <LatitudeDegrees>43.47533927299082279205322265625</LatitudeDegrees>
              <LongitudeDegrees>-5.691936872899532318115234375</LongitudeDegrees>
            </Position>
            <AltitudeMeters>174.600006103515625</AltitudeMeters>
            <DistanceMeters>5295.8518343903</DistanceMeters>
          </Trackpoint>
          <Trackpoint>
            <Time>2019-10-04T09:24:53.000Z</Time>
            <Position>
              <LatitudeDegrees>43.4752111136913299560546875</LatitudeDegrees>
              <LongitudeDegrees>-5.6919430755078792572021484375</LongitudeDegrees>
            </Position>
            <AltitudeMeters>175</AltitudeMeters>
            <DistanceMeters>5310.1254668898</DistanceMeters>
          </Trackpoint>
          <Trackpoint>
            <Time>2019-10-04T09:25:00.000Z</Time>
            <Position>
              <LatitudeDegrees>43.47499192692339420318603515625</LatitudeDegrees>
              <LongitudeDegrees>-5.69198020733892917633056640625</LongitudeDegrees>
            </Position>
            <AltitudeMeters>175.600006103515625</AltitudeMeters>
            <DistanceMeters>5334.7048939459</DistanceMeters>
          </Trackpoint>
          <Trackpoint>
            <Time>2019-10-04T09:25:03.000Z</Time>
            <Position>
              <LatitudeDegrees>43.47490131855010986328125</LatitudeDegrees>
              <LongitudeDegrees>-5.69200493395328521728515625</LongitudeDegrees>
            </Position>
            <AltitudeMeters>176.399993896484375</AltitudeMeters>
            <DistanceMeters>5344.9862399109</DistanceMeters>
          </Trackpoint>
          <Trackpoint>
            <Time>2019-10-04T09:25:07.000Z</Time>
            <Position>
              <LatitudeDegrees>43.474774919450283050537109375</LatitudeDegrees>
              <LongitudeDegrees>-5.692036785185337066650390625</LongitudeDegrees>
            </Position>
            <AltitudeMeters>176.8000030517578125</AltitudeMeters>
            <DistanceMeters>5359.2883128938</DistanceMeters>
          </Trackpoint>
          <Trackpoint>
            <Time>2019-10-04T09:25:13.000Z</Time>
            <Position>
              <LatitudeDegrees>43.47457115538418292999267578125</LatitudeDegrees>
              <LongitudeDegrees>-5.6920758448541164398193359375</LongitudeDegrees>
            </Position>
            <AltitudeMeters>177.399993896484375</AltitudeMeters>
            <DistanceMeters>5382.1860048843</DistanceMeters>
          </Trackpoint>
          <Trackpoint>
            <Time>2019-10-04T09:25:19.000Z</Time>
            <Position>
              <LatitudeDegrees>43.4743804670870304107666015625</LatitudeDegrees>
              <LongitudeDegrees>-5.69212236441671848297119140625</LongitudeDegrees>
            </Position>
            <AltitudeMeters>177.8000030517578125</AltitudeMeters>
            <DistanceMeters>5403.7401082729</DistanceMeters>
          </Trackpoint>
          <Trackpoint>
            <Time>2019-10-04T09:25:21.000Z</Time>
            <Position>
              <LatitudeDegrees>43.47431751899421215057373046875</LatitudeDegrees>
              <LongitudeDegrees>-5.69214650429785251617431640625</LongitudeDegrees>
            </Position>
            <AltitudeMeters>178</AltitudeMeters>
            <DistanceMeters>5411.0132223109</DistanceMeters>
          </Trackpoint>
          <Trackpoint>
            <Time>2019-10-04T09:25:26.000Z</Time>
            <Position>
              <LatitudeDegrees>43.47416731528937816619873046875</LatitudeDegrees>
              <LongitudeDegrees>-5.69223283790051937103271484375</LongitudeDegrees>
            </Position>
            <AltitudeMeters>178.8000030517578125</AltitudeMeters>
            <DistanceMeters>5429.1272184925</DistanceMeters>
          </Trackpoint>
          <Trackpoint>
            <Time>2019-10-04T09:25:28.000Z</Time>
            <Position>
              <LatitudeDegrees>43.474117778241634368896484375</LatitudeDegrees>
              <LongitudeDegrees>-5.6922884099185466766357421875</LongitudeDegrees>
            </Position>
            <AltitudeMeters>178.8000030517578125</AltitudeMeters>
            <DistanceMeters>5436.2370966865</DistanceMeters>
          </Trackpoint>
          <Trackpoint>
            <Time>2019-10-04T09:25:36.000Z</Time>
            <Position>
              <LatitudeDegrees>43.47393102943897247314453125</LatitudeDegrees>
              <LongitudeDegrees>-5.692547746002674102783203125</LongitudeDegrees>
            </Position>
            <AltitudeMeters>180.1999969482421875</AltitudeMeters>
            <DistanceMeters>5465.7465255491</DistanceMeters>
          </Trackpoint>
          <Trackpoint>
            <Time>2019-10-04T09:25:44.000Z</Time>
            <Position>
              <LatitudeDegrees>43.47382374107837677001953125</LatitudeDegrees>
              <LongitudeDegrees>-5.69287606514990329742431640625</LongitudeDegrees>
            </Position>
            <AltitudeMeters>181.1999969482421875</AltitudeMeters>
            <DistanceMeters>5494.829668439</DistanceMeters>
          </Trackpoint>
          <Trackpoint>
            <Time>2019-10-04T09:25:45.000Z</Time>
            <Position>
              <LatitudeDegrees>43.4738115034997463226318359375</LatitudeDegrees>
              <LongitudeDegrees>-5.69291797466576099395751953125</LongitudeDegrees>
            </Position>
            <AltitudeMeters>181.1999969482421875</AltitudeMeters>
            <DistanceMeters>5498.4780013019</DistanceMeters>
          </Trackpoint>
          <Trackpoint>
            <Time>2019-10-04T09:25:50.000Z</Time>
            <Position>
              <LatitudeDegrees>43.4737310372292995452880859375</LatitudeDegrees>
              <LongitudeDegrees>-5.69310740567743778228759765625</LongitudeDegrees>
            </Position>
            <AltitudeMeters>182.399993896484375</AltitudeMeters>
            <DistanceMeters>5516.2065331279</DistanceMeters>
          </Trackpoint>
          <Trackpoint>
            <Time>2019-10-04T09:25:52.000Z</Time>
            <Position>
              <LatitudeDegrees>43.47368535585701465606689453125</LatitudeDegrees>
              <LongitudeDegrees>-5.69317664019763469696044921875</LongitudeDegrees>
            </Position>
            <AltitudeMeters>182.399993896484375</AltitudeMeters>
            <DistanceMeters>5523.7633977841</DistanceMeters>
          </Trackpoint>
          <Trackpoint>
            <Time>2019-10-04T09:25:58.000Z</Time>
            <Position>
              <LatitudeDegrees>43.4735228307545185089111328125</LatitudeDegrees>
              <LongitudeDegrees>-5.69331510923802852630615234375</LongitudeDegrees>
            </Position>
            <AltitudeMeters>183</AltitudeMeters>
            <DistanceMeters>5545.0307076498</DistanceMeters>
          </Trackpoint>
          <Trackpoint>
            <Time>2019-10-04T09:26:00.000Z</Time>
            <Position>
              <LatitudeDegrees>43.47346357069909572601318359375</LatitudeDegrees>
              <LongitudeDegrees>-5.69334897212684154510498046875</LongitudeDegrees>
            </Position>
            <AltitudeMeters>183.600006103515625</AltitudeMeters>
            <DistanceMeters>5552.1703702137</DistanceMeters>
          </Trackpoint>
          <Trackpoint>
            <Time>2019-10-04T09:26:05.000Z</Time>
            <Position>
              <LatitudeDegrees>43.47331822849810123443603515625</LatitudeDegrees>
              <LongitudeDegrees>-5.69342491216957569122314453125</LongitudeDegrees>
            </Position>
            <AltitudeMeters>184.8000030517578125</AltitudeMeters>
            <DistanceMeters>5569.4709746486</DistanceMeters>
          </Trackpoint>
          <Trackpoint>
            <Time>2019-10-04T09:26:07.000Z</Time>
            <Position>
              <LatitudeDegrees>43.47326584160327911376953125</LatitudeDegrees>
              <LongitudeDegrees>-5.693465732038021087646484375</LongitudeDegrees>
            </Position>
            <AltitudeMeters>184.8000030517578125</AltitudeMeters>
            <DistanceMeters>5576.1695155233</DistanceMeters>
          </Trackpoint>
          <Trackpoint>
            <Time>2019-10-04T09:26:12.000Z</Time>
            <Position>
              <LatitudeDegrees>43.47313667647540569305419921875</LatitudeDegrees>
              <LongitudeDegrees>-5.69358366541564464569091796875</LongitudeDegrees>
            </Position>
            <AltitudeMeters>185.8000030517578125</AltitudeMeters>
            <DistanceMeters>5593.4152279689</DistanceMeters>
          </Trackpoint>
          <Trackpoint>
            <Time>2019-10-04T09:26:16.000Z</Time>
            <Position>
              <LatitudeDegrees>43.47303056158125400543212890625</LatitudeDegrees>
              <LongitudeDegrees>-5.69367687217891216278076171875</LongitudeDegrees>
            </Position>
            <AltitudeMeters>185.8000030517578125</AltitudeMeters>
            <DistanceMeters>5607.4212759722</DistanceMeters>
          </Trackpoint>
          <Trackpoint>
            <Time>2019-10-04T09:26:21.000Z</Time>
            <Position>
              <LatitudeDegrees>43.4728844650089740753173828125</LatitudeDegrees>
              <LongitudeDegrees>-5.693764127790927886962890625</LongitudeDegrees>
            </Position>
            <AltitudeMeters>187</AltitudeMeters>
            <DistanceMeters>5625.1436945112</DistanceMeters>
          </Trackpoint>
          <Trackpoint>
            <Time>2019-10-04T09:26:24.000Z</Time>
            <Position>
              <LatitudeDegrees>43.4727892465889453887939453125</LatitudeDegrees>
              <LongitudeDegrees>-5.69377720355987548828125</LongitudeDegrees>
            </Position>
            <AltitudeMeters>187.600006103515625</AltitudeMeters>
            <DistanceMeters>5635.7943198585</DistanceMeters>
          </Trackpoint>
          <Trackpoint>
            <Time>2019-10-04T09:26:27.000Z</Time>
            <Position>
              <LatitudeDegrees>43.47269226796925067901611328125</LatitudeDegrees>
              <LongitudeDegrees>-5.6937555782496929168701171875</LongitudeDegrees>
            </Position>
            <AltitudeMeters>188</AltitudeMeters>
            <DistanceMeters>5646.7285876492</DistanceMeters>
          </Trackpoint>
          <Trackpoint>
            <Time>2019-10-04T09:26:32.000Z</Time>
            <Position>
              <LatitudeDegrees>43.4725317545235157012939453125</LatitudeDegrees>
              <LongitudeDegrees>-5.69368341006338596343994140625</LongitudeDegrees>
            </Position>
            <AltitudeMeters>188.600006103515625</AltitudeMeters>
            <DistanceMeters>5665.5208261952</DistanceMeters>
          </Trackpoint>
          <Trackpoint>
            <Time>2019-10-04T09:26:38.000Z</Time>
            <Position>
              <LatitudeDegrees>43.47235347144305706024169921875</LatitudeDegrees>
              <LongitudeDegrees>-5.6935661472380161285400390625</LongitudeDegrees>
            </Position>
            <AltitudeMeters>189.1999969482421875</AltitudeMeters>
            <DistanceMeters>5687.5087840997</DistanceMeters>
          </Trackpoint>
          <Trackpoint>
            <Time>2019-10-04T09:26:39.000Z</Time>
            <Position>
              <LatitudeDegrees>43.47232581116259098052978515625</LatitudeDegrees>
              <LongitudeDegrees>-5.6935426779091358184814453125</LongitudeDegrees>
            </Position>
            <AltitudeMeters>189.399993896484375</AltitudeMeters>
            <DistanceMeters>5691.124797193</DistanceMeters>
          </Trackpoint>
          <Trackpoint>
            <Time>2019-10-04T09:26:45.000Z</Time>
            <Position>
              <LatitudeDegrees>43.4721552394330501556396484375</LatitudeDegrees>
              <LongitudeDegrees>-5.69340127520263195037841796875</LongitudeDegrees>
            </Position>
            <AltitudeMeters>190</AltitudeMeters>
            <DistanceMeters>5713.2804952297</DistanceMeters>
          </Trackpoint>
          <Trackpoint>
            <Time>2019-10-04T09:26:47.000Z</Time>
            <Position>
              <LatitudeDegrees>43.47210100851953029632568359375</LatitudeDegrees>
              <LongitudeDegrees>-5.69334603846073150634765625</LongitudeDegrees>
            </Position>
            <AltitudeMeters>190.399993896484375</AltitudeMeters>
            <DistanceMeters>5720.787004206</DistanceMeters>
          </Trackpoint>
          <Trackpoint>
            <Time>2019-10-04T09:26:53.000Z</Time>
            <Position>
              <LatitudeDegrees>43.4719648025929927825927734375</LatitudeDegrees>
              <LongitudeDegrees>-5.693154595792293548583984375</LongitudeDegrees>
            </Position>
            <AltitudeMeters>191</AltitudeMeters>
            <DistanceMeters>5742.4418389949</DistanceMeters>
          </Trackpoint>
          <Trackpoint>
            <Time>2019-10-04T09:26:55.000Z</Time>
            <Position>
              <LatitudeDegrees>43.47192783840000629425048828125</LatitudeDegrees>
              <LongitudeDegrees>-5.693079493939876556396484375</LongitudeDegrees>
            </Position>
            <AltitudeMeters>191.600006103515625</AltitudeMeters>
            <DistanceMeters>5749.7718427358</DistanceMeters>
          </Trackpoint>
          <Trackpoint>
            <Time>2019-10-04T09:27:00.000Z</Time>
            <Position>
              <LatitudeDegrees>43.4718139283359050750732421875</LatitudeDegrees>
              <LongitudeDegrees>-5.69290976040065288543701171875</LongitudeDegrees>
            </Position>
            <AltitudeMeters>192.1999969482421875</AltitudeMeters>
            <DistanceMeters>5768.4454988309</DistanceMeters>
          </Trackpoint>
          <Trackpoint>
            <Time>2019-10-04T09:27:05.000Z</Time>
            <Position>
              <LatitudeDegrees>43.47166028805077075958251953125</LatitudeDegrees>
              <LongitudeDegrees>-5.69281906820833683013916015625</LongitudeDegrees>
            </Position>
            <AltitudeMeters>192.8000030517578125</AltitudeMeters>
            <DistanceMeters>5787.0489046963</DistanceMeters>
          </Trackpoint>
          <Trackpoint>
            <Time>2019-10-04T09:27:06.000Z</Time>
            <Position>
              <LatitudeDegrees>43.471627347171306610107421875</LatitudeDegrees>
              <LongitudeDegrees>-5.69281185977160930633544921875</LongitudeDegrees>
            </Position>
            <AltitudeMeters>192.8000030517578125</AltitudeMeters>
            <DistanceMeters>5790.7610330148</DistanceMeters>
          </Trackpoint>
          <Trackpoint>
            <Time>2019-10-04T09:27:09.000Z</Time>
            <Position>
              <LatitudeDegrees>43.4715316258370876312255859375</LatitudeDegrees>
              <LongitudeDegrees>-5.692828036844730377197265625</LongitudeDegrees>
            </Position>
            <AltitudeMeters>193.8000030517578125</AltitudeMeters>
            <DistanceMeters>5801.4952668219</DistanceMeters>
          </Trackpoint>
          <Trackpoint>
            <Time>2019-10-04T09:27:11.000Z</Time>
            <Position>
              <LatitudeDegrees>43.47147018648684024810791015625</LatitudeDegrees>
              <LongitudeDegrees>-5.692866928875446319580078125</LongitudeDegrees>
            </Position>
            <AltitudeMeters>193.8000030517578125</AltitudeMeters>
            <DistanceMeters>5809.0203986732</DistanceMeters>
          </Trackpoint>
          <Trackpoint>
            <Time>2019-10-04T09:27:17.000Z</Time>
            <Position>
              <LatitudeDegrees>43.4713314659893512725830078125</LatitudeDegrees>
              <LongitudeDegrees>-5.69305912591516971588134765625</LongitudeDegrees>
            </Position>
            <AltitudeMeters>194.8000030517578125</AltitudeMeters>
            <DistanceMeters>5830.9155517518</DistanceMeters>
          </Trackpoint>
          <Trackpoint>
            <Time>2019-10-04T09:27:22.000Z</Time>
            <Position>
              <LatitudeDegrees>43.4712560288608074188232421875</LatitudeDegrees>
              <LongitudeDegrees>-5.69325744174420833587646484375</LongitudeDegrees>
            </Position>
            <AltitudeMeters>196</AltitudeMeters>
            <DistanceMeters>5849.0013599734</DistanceMeters>
          </Trackpoint>
          <Trackpoint>
            <Time>2019-10-04T09:27:25.000Z</Time>
            <Position>
              <LatitudeDegrees>43.47123331390321254730224609375</LatitudeDegrees>
              <LongitudeDegrees>-5.6933948211371898651123046875</LongitudeDegrees>
            </Position>
            <AltitudeMeters>196</AltitudeMeters>
            <DistanceMeters>5860.3827679087</DistanceMeters>
          </Trackpoint>
          <Trackpoint>
            <Time>2019-10-04T09:27:30.000Z</Time>
            <Position>
              <LatitudeDegrees>43.47125426866114139556884765625</LatitudeDegrees>
              <LongitudeDegrees>-5.6936110742390155792236328125</LongitudeDegrees>
            </Position>
            <AltitudeMeters>196.8000030517578125</AltitudeMeters>
            <DistanceMeters>5878.0055483096</DistanceMeters>
          </Trackpoint>
          <Trackpoint>
            <Time>2019-10-04T09:27:31.000Z</Time>
            <Position>
              <LatitudeDegrees>43.47126147709786891937255859375</LatitudeDegrees>
              <LongitudeDegrees>-5.693652816116809844970703125</LongitudeDegrees>
            </Position>
            <AltitudeMeters>197.1999969482421875</AltitudeMeters>
            <DistanceMeters>5881.4710932409</DistanceMeters>
          </Trackpoint>
          <Trackpoint>
            <Time>2019-10-04T09:27:37.000Z</Time>
            <Position>
              <LatitudeDegrees>43.4712962619960308074951171875</LatitudeDegrees>
              <LongitudeDegrees>-5.693914331495761871337890625</LongitudeDegrees>
            </Position>
            <AltitudeMeters>198.399993896484375</AltitudeMeters>
            <DistanceMeters>5902.9467102122</DistanceMeters>
          </Trackpoint>
          <Trackpoint>
            <Time>2019-10-04T09:27:39.000Z</Time>
            <Position>
              <LatitudeDegrees>43.47129802219569683074951171875</LatitudeDegrees>
              <LongitudeDegrees>-5.69400259293615818023681640625</LongitudeDegrees>
            </Position>
            <AltitudeMeters>198.1999969482421875</AltitudeMeters>
            <DistanceMeters>5910.0787800807</DistanceMeters>
          </Trackpoint>
          <Trackpoint>
            <Time>2019-10-04T09:27:46.000Z</Time>
            <Position>
              <LatitudeDegrees>43.47124152816832065582275390625</LatitudeDegrees>
              <LongitudeDegrees>-5.69429730065166950225830078125</LongitudeDegrees>
            </Position>
            <AltitudeMeters>198.8000030517578125</AltitudeMeters>
            <DistanceMeters>5934.700053237</DistanceMeters>
          </Trackpoint>
          <Trackpoint>
            <Time>2019-10-04T09:27:49.000Z</Time>
            <Position>
              <LatitudeDegrees>43.47119291312992572784423828125</LatitudeDegrees>
              <LongitudeDegrees>-5.694408528506755828857421875</LongitudeDegrees>
            </Position>
            <AltitudeMeters>199.399993896484375</AltitudeMeters>
            <DistanceMeters>5945.1879205685</DistanceMeters>
          </Trackpoint>
          <Trackpoint>
            <Time>2019-10-04T09:27:53.000Z</Time>
            <Position>
              <LatitudeDegrees>43.47111160866916179656982421875</LatitudeDegrees>
              <LongitudeDegrees>-5.69453752599656581878662109375</LongitudeDegrees>
            </Position>
            <AltitudeMeters>199.600006103515625</AltitudeMeters>
            <DistanceMeters>5958.9887311373</DistanceMeters>
          </Trackpoint>
          <Trackpoint>
            <Time>2019-10-04T09:27:58.000Z</Time>
            <Position>
              <LatitudeDegrees>43.47099476493895053863525390625</LatitudeDegrees>
              <LongitudeDegrees>-5.69469108246266841888427734375</LongitudeDegrees>
            </Position>
            <AltitudeMeters>200.399993896484375</AltitudeMeters>
            <DistanceMeters>5976.9600892967</DistanceMeters>
          </Trackpoint>
          <Trackpoint>
            <Time>2019-10-04T09:28:04.000Z</Time>
            <Position>
              <LatitudeDegrees>43.47082444466650485992431640625</LatitudeDegrees>
              <LongitudeDegrees>-5.69481094367802143096923828125</LongitudeDegrees>
            </Position>
            <AltitudeMeters>201.1999969482421875</AltitudeMeters>
            <DistanceMeters>5998.2460733156</DistanceMeters>
          </Trackpoint>
          <Trackpoint>
            <Time>2019-10-04T09:28:07.000Z</Time>
            <Position>
              <LatitudeDegrees>43.47072855569422245025634765625</LatitudeDegrees>
              <LongitudeDegrees>-5.6948514282703399658203125</LongitudeDegrees>
            </Position>
            <AltitudeMeters>201.600006103515625</AltitudeMeters>
            <DistanceMeters>6009.4083757114</DistanceMeters>
          </Trackpoint>
          <Trackpoint>
            <Time>2019-10-04T09:28:10.000Z</Time>
            <Position>
              <LatitudeDegrees>43.4706293977797031402587890625</LatitudeDegrees>
              <LongitudeDegrees>-5.69489442743360996246337890625</LongitudeDegrees>
            </Position>
            <AltitudeMeters>202</AltitudeMeters>
            <DistanceMeters>6020.9786342773</DistanceMeters>
          </Trackpoint>
          <Trackpoint>
            <Time>2019-10-04T09:28:12.000Z</Time>
            <Position>
              <LatitudeDegrees>43.4705667011439800262451171875</LatitudeDegrees>
              <LongitudeDegrees>-5.694937594234943389892578125</LongitudeDegrees>
            </Position>
            <AltitudeMeters>202.1999969482421875</AltitudeMeters>
            <DistanceMeters>6028.7789326741</DistanceMeters>
          </Trackpoint>
          <Trackpoint>
            <Time>2019-10-04T09:28:16.000Z</Time>
            <Position>
              <LatitudeDegrees>43.47046720795333385467529296875</LatitudeDegrees>
              <LongitudeDegrees>-5.6950601376593112945556640625</LongitudeDegrees>
            </Position>
            <AltitudeMeters>202.600006103515625</AltitudeMeters>
            <DistanceMeters>6043.6317023661</DistanceMeters>
          </Trackpoint>
          <Trackpoint>
            <Time>2019-10-04T09:28:18.000Z</Time>
            <Position>
              <LatitudeDegrees>43.4704260528087615966796875</LatitudeDegrees>
              <LongitudeDegrees>-5.6951214931905269622802734375</LongitudeDegrees>
            </Position>
            <AltitudeMeters>202.600006103515625</AltitudeMeters>
            <DistanceMeters>6050.3806063945</DistanceMeters>
          </Trackpoint>
          <Trackpoint>
            <Time>2019-10-04T09:28:24.000Z</Time>
            <Position>
              <LatitudeDegrees>43.47030191682279109954833984375</LatitudeDegrees>
              <LongitudeDegrees>-5.6952911429107189178466796875</LongitudeDegrees>
            </Position>
            <AltitudeMeters>203.8000030517578125</AltitudeMeters>
            <DistanceMeters>6069.8404441572</DistanceMeters>
          </Trackpoint>
          <Trackpoint>
            <Time>2019-10-04T09:28:25.000Z</Time>
            <Position>
              <LatitudeDegrees>43.4702867455780506134033203125</LatitudeDegrees>
              <LongitudeDegrees>-5.69531922228634357452392578125</LongitudeDegrees>
            </Position>
            <AltitudeMeters>203.8000030517578125</AltitudeMeters>
            <DistanceMeters>6072.6689857831</DistanceMeters>
          </Trackpoint>
          <Trackpoint>
            <Time>2019-10-04T09:28:30.000Z</Time>
            <Position>
              <LatitudeDegrees>43.470183312892913818359375</LatitudeDegrees>
              <LongitudeDegrees>-5.6954467110335826873779296875</LongitudeDegrees>
            </Position>
            <AltitudeMeters>204.8000030517578125</AltitudeMeters>
            <DistanceMeters>6088.114846706</DistanceMeters>
          </Trackpoint>
          <Trackpoint>
            <Time>2019-10-04T09:28:31.000Z</Time>
            <Position>
              <LatitudeDegrees>43.470159508287906646728515625</LatitudeDegrees>
              <LongitudeDegrees>-5.6954738683998584747314453125</LongitudeDegrees>
            </Position>
            <AltitudeMeters>204.600006103515625</AltitudeMeters>
            <DistanceMeters>6091.5542362073</DistanceMeters>
          </Trackpoint>
          <Trackpoint>
            <Time>2019-10-04T09:28:36.000Z</Time>
            <Position>
              <LatitudeDegrees>43.47004526294767856597900390625</LatitudeDegrees>
              <LongitudeDegrees>-5.6956307776272296905517578125</LongitudeDegrees>
            </Position>
            <AltitudeMeters>205.1999969482421875</AltitudeMeters>
            <DistanceMeters>6109.5077478044</DistanceMeters>
          </Trackpoint>
          <Trackpoint>
            <Time>2019-10-04T09:28:41.000Z</Time>
            <Position>
              <LatitudeDegrees>43.4699306823313236236572265625</LatitudeDegrees>
              <LongitudeDegrees>-5.69577536545693874359130859375</LongitudeDegrees>
            </Position>
            <AltitudeMeters>205.8000030517578125</AltitudeMeters>
            <DistanceMeters>6126.8010433744</DistanceMeters>
          </Trackpoint>
          <Trackpoint>
            <Time>2019-10-04T09:28:47.000Z</Time>
            <Position>
              <LatitudeDegrees>43.46978366374969482421875</LatitudeDegrees>
              <LongitudeDegrees>-5.69595406763255596160888671875</LongitudeDegrees>
            </Position>
            <AltitudeMeters>206.600006103515625</AltitudeMeters>
            <DistanceMeters>6148.6212131855</DistanceMeters>
          </Trackpoint>
          <Trackpoint>
            <Time>2019-10-04T09:28:49.000Z</Time>
            <Position>
              <LatitudeDegrees>43.46973479725420475006103515625</LatitudeDegrees>
              <LongitudeDegrees>-5.69601793773472309112548828125</LongitudeDegrees>
            </Position>
            <AltitudeMeters>207</AltitudeMeters>
            <DistanceMeters>6156.1168876471</DistanceMeters>
          </Trackpoint>
          <Trackpoint>
            <Time>2019-10-04T09:28:55.000Z</Time>
            <Position>
              <LatitudeDegrees>43.46956950612366199493408203125</LatitudeDegrees>
              <LongitudeDegrees>-5.6961481086909770965576171875</LongitudeDegrees>
            </Position>
            <AltitudeMeters>207.1999969482421875</AltitudeMeters>
            <DistanceMeters>6177.3069926769</DistanceMeters>
          </Trackpoint>
          <Trackpoint>
            <Time>2019-10-04T09:29:00.000Z</Time>
            <Position>
              <LatitudeDegrees>43.46941896714270114898681640625</LatitudeDegrees>
              <LongitudeDegrees>-5.69619311951100826263427734375</LongitudeDegrees>
            </Position>
            <AltitudeMeters>208</AltitudeMeters>
            <DistanceMeters>6194.4524033911</DistanceMeters>
          </Trackpoint>
          <Trackpoint>
            <Time>2019-10-04T09:29:03.000Z</Time>
            <Position>
              <LatitudeDegrees>43.46932324580848217010498046875</LatitudeDegrees>
              <LongitudeDegrees>-5.6962057761847972869873046875</LongitudeDegrees>
            </Position>
            <AltitudeMeters>208.600006103515625</AltitudeMeters>
            <DistanceMeters>6205.155466026</DistanceMeters>
          </Trackpoint>
          <Trackpoint>
            <Time>2019-10-04T09:29:08.000Z</Time>
            <Position>
              <LatitudeDegrees>43.46916281618177890777587890625</LatitudeDegrees>
              <LongitudeDegrees>-5.69619898684322834014892578125</LongitudeDegrees>
            </Position>
            <AltitudeMeters>209.1999969482421875</AltitudeMeters>
            <DistanceMeters>6223.0199828592</DistanceMeters>
          </Trackpoint>
          <Trackpoint>
            <Time>2019-10-04T09:29:09.000Z</Time>
            <Position>
              <LatitudeDegrees>43.46913565881550312042236328125</LatitudeDegrees>
              <LongitudeDegrees>-5.6961913593113422393798828125</LongitudeDegrees>
            </Position>
            <AltitudeMeters>209.399993896484375</AltitudeMeters>
            <DistanceMeters>6226.1050599363</DistanceMeters>
          </Trackpoint>
          <Trackpoint>
            <Time>2019-10-04T09:29:16.000Z</Time>
            <Position>
              <LatitudeDegrees>43.46892393194139003753662109375</LatitudeDegrees>
              <LongitudeDegrees>-5.69613126106560230255126953125</LongitudeDegrees>
            </Position>
            <AltitudeMeters>210</AltitudeMeters>
            <DistanceMeters>6250.1657789784</DistanceMeters>
          </Trackpoint>
          <Trackpoint>
            <Time>2019-10-04T09:29:17.000Z</Time>
            <Position>
              <LatitudeDegrees>43.46889518201351165771484375</LatitudeDegrees>
              <LongitudeDegrees>-5.696117095649242401123046875</LongitudeDegrees>
            </Position>
            <AltitudeMeters>210.1999969482421875</AltitudeMeters>
            <DistanceMeters>6253.5655580666</DistanceMeters>
          </Trackpoint>
          <Trackpoint>
            <Time>2019-10-04T09:29:23.000Z</Time>
            <Position>
              <LatitudeDegrees>43.46872611902654170989990234375</LatitudeDegrees>
              <LongitudeDegrees>-5.69600083865225315093994140625</LongitudeDegrees>
            </Position>
            <AltitudeMeters>210.8000030517578125</AltitudeMeters>
            <DistanceMeters>6274.5958952981</DistanceMeters>
          </Trackpoint>
          <Trackpoint>
            <Time>2019-10-04T09:29:29.000Z</Time>
            <Position>
              <LatitudeDegrees>43.46857273019850254058837890625</LatitudeDegrees>
              <LongitudeDegrees>-5.69583537988364696502685546875</LongitudeDegrees>
            </Position>
            <AltitudeMeters>211.399993896484375</AltitudeMeters>
            <DistanceMeters>6296.277609935</DistanceMeters>
          </Trackpoint>
          <Trackpoint>
            <Time>2019-10-04T09:29:31.000Z</Time>
            <Position>
              <LatitudeDegrees>43.4685322456061840057373046875</LatitudeDegrees>
              <LongitudeDegrees>-5.69577452726662158966064453125</LongitudeDegrees>
            </Position>
            <AltitudeMeters>211.8000030517578125</AltitudeMeters>
            <DistanceMeters>6302.9457503362</DistanceMeters>
          </Trackpoint>
          <Trackpoint>
            <Time>2019-10-04T09:29:38.000Z</Time>
            <Position>
              <LatitudeDegrees>43.46841900609433650970458984375</LatitudeDegrees>
              <LongitudeDegrees>-5.695500858128070831298828125</LongitudeDegrees>
            </Position>
            <AltitudeMeters>212.399993896484375</AltitudeMeters>
            <DistanceMeters>6328.3926908556</DistanceMeters>
          </Trackpoint>
          <Trackpoint>
            <Time>2019-10-04T09:29:47.000Z</Time>
            <Position>
              <LatitudeDegrees>43.4682992286980152130126953125</LatitudeDegrees>
              <LongitudeDegrees>-5.69513364695012569427490234375</LongitudeDegrees>
            </Position>
            <AltitudeMeters>213.399993896484375</AltitudeMeters>
            <DistanceMeters>6360.913215036</DistanceMeters>
          </Trackpoint>
          <Trackpoint>
            <Time>2019-10-04T09:29:48.000Z</Time>
            <Position>
              <LatitudeDegrees>43.46828439272940158843994140625</LatitudeDegrees>
              <LongitudeDegrees>-5.695099532604217529296875</LongitudeDegrees>
            </Position>
            <AltitudeMeters>213.399993896484375</AltitudeMeters>
            <DistanceMeters>6364.1273101578</DistanceMeters>
          </Trackpoint>
          <Trackpoint>
            <Time>2019-10-04T09:29:55.000Z</Time>
            <Position>
              <LatitudeDegrees>43.4681533835828304290771484375</LatitudeDegrees>
              <LongitudeDegrees>-5.69486626423895359039306640625</LongitudeDegrees>
            </Position>
            <AltitudeMeters>214.1999969482421875</AltitudeMeters>
            <DistanceMeters>6387.953257267</DistanceMeters>
          </Trackpoint>
          <Trackpoint>
            <Time>2019-10-04T09:29:58.000Z</Time>
            <Position>
              <LatitudeDegrees>43.4680890105664730072021484375</LatitudeDegrees>
              <LongitudeDegrees>-5.69477842189371585845947265625</LongitudeDegrees>
            </Position>
            <AltitudeMeters>214.8000030517578125</AltitudeMeters>
            <DistanceMeters>6398.0372887443</DistanceMeters>
          </Trackpoint>
          <Trackpoint>
            <Time>2019-10-04T09:30:04.000Z</Time>
            <Position>
              <LatitudeDegrees>43.467965461313724517822265625</LatitudeDegrees>
              <LongitudeDegrees>-5.6945910863578319549560546875</LongitudeDegrees>
            </Position>
            <AltitudeMeters>215.1999969482421875</AltitudeMeters>
            <DistanceMeters>6418.4843792287</DistanceMeters>
          </Trackpoint>
          <Trackpoint>
            <Time>2019-10-04T09:30:08.000Z</Time>
            <Position>
              <LatitudeDegrees>43.46788222901523113250732421875</LatitudeDegrees>
              <LongitudeDegrees>-5.69446074776351451873779296875</LongitudeDegrees>
            </Position>
            <AltitudeMeters>215.8000030517578125</AltitudeMeters>
            <DistanceMeters>6432.5081460149</DistanceMeters>
          </Trackpoint>
          <Trackpoint>
            <Time>2019-10-04T09:30:13.000Z</Time>
            <Position>
              <LatitudeDegrees>43.46776002086699008941650390625</LatitudeDegrees>
              <LongitudeDegrees>-5.6943265534937381744384765625</LongitudeDegrees>
            </Position>
            <AltitudeMeters>216.600006103515625</AltitudeMeters>
            <DistanceMeters>6449.9014096829</DistanceMeters>
          </Trackpoint>
          <Trackpoint>
            <Time>2019-10-04T09:30:16.000Z</Time>
            <Position>
              <LatitudeDegrees>43.46767234615981578826904296875</LatitudeDegrees>
              <LongitudeDegrees>-5.69427282549440860748291015625</LongitudeDegrees>
            </Position>
            <AltitudeMeters>216.8000030517578125</AltitudeMeters>
            <DistanceMeters>6460.5816683708</DistanceMeters>
          </Trackpoint>
          <Trackpoint>
            <Time>2019-10-04T09:30:19.000Z</Time>
            <Position>
              <LatitudeDegrees>43.46758224070072174072265625</LatitudeDegrees>
              <LongitudeDegrees>-5.69426679052412509918212890625</LongitudeDegrees>
            </Position>
            <AltitudeMeters>217.600006103515625</AltitudeMeters>
            <DistanceMeters>6470.6221750024</DistanceMeters>
          </Trackpoint>
          <Trackpoint>
            <Time>2019-10-04T09:30:22.000Z</Time>
            <Position>
              <LatitudeDegrees>43.46750940196216106414794921875</LatitudeDegrees>
              <LongitudeDegrees>-5.69432060234248638153076171875</LongitudeDegrees>
            </Position>
            <AltitudeMeters>218</AltitudeMeters>
            <DistanceMeters>6479.8211339846</DistanceMeters>
          </Trackpoint>
          <Trackpoint>
            <Time>2019-10-04T09:30:23.000Z</Time>
            <Position>
              <LatitudeDegrees>43.4674871899187564849853515625</LatitudeDegrees>
              <LongitudeDegrees>-5.69434759207069873809814453125</LongitudeDegrees>
            </Position>
            <AltitudeMeters>218.399993896484375</AltitudeMeters>
            <DistanceMeters>6483.1156979749</DistanceMeters>
          </Trackpoint>
          <Trackpoint>
            <Time>2019-10-04T09:30:30.000Z</Time>
            <Position>
              <LatitudeDegrees>43.46734243445098400115966796875</LatitudeDegrees>
              <LongitudeDegrees>-5.6945645995438098907470703125</LongitudeDegrees>
            </Position>
            <AltitudeMeters>218.399993896484375</AltitudeMeters>
            <DistanceMeters>6506.9247735312</DistanceMeters>
          </Trackpoint>
          <Trackpoint>
            <Time>2019-10-04T09:30:37.000Z</Time>
            <Position>
              <LatitudeDegrees>43.46716783940792083740234375</LatitudeDegrees>
              <LongitudeDegrees>-5.69478143937885761260986328125</LongitudeDegrees>
            </Position>
            <AltitudeMeters>218.8000030517578125</AltitudeMeters>
            <DistanceMeters>6533.0866479699</DistanceMeters>
          </Trackpoint>
          <Trackpoint>
            <Time>2019-10-04T09:30:38.000Z</Time>
            <Position>
              <LatitudeDegrees>43.46714110113680362701416015625</LatitudeDegrees>
              <LongitudeDegrees>-5.69481186568737030029296875</LongitudeDegrees>
            </Position>
            <AltitudeMeters>219</AltitudeMeters>
            <DistanceMeters>6536.9466513549</DistanceMeters>
          </Trackpoint>
          <Trackpoint>
            <Time>2019-10-04T09:30:45.000Z</Time>
            <Position>
              <LatitudeDegrees>43.466979078948497772216796875</LatitudeDegrees>
              <LongitudeDegrees>-5.695051588118076324462890625</LongitudeDegrees>
            </Position>
            <AltitudeMeters>220</AltitudeMeters>
            <DistanceMeters>6563.4077950843</DistanceMeters>
          </Trackpoint>
          <Trackpoint>
            <Time>2019-10-04T09:30:47.000Z</Time>
            <Position>
              <LatitudeDegrees>43.46694043837487697601318359375</LatitudeDegrees>
              <LongitudeDegrees>-5.69512912072241306304931640625</LongitudeDegrees>
            </Position>
            <AltitudeMeters>220.1999969482421875</AltitudeMeters>
            <DistanceMeters>6571.0051794124</DistanceMeters>
          </Trackpoint>
          <Trackpoint>
            <Time>2019-10-04T09:30:53.000Z</Time>
            <Position>
              <LatitudeDegrees>43.4668458066880702972412109375</LatitudeDegrees>
              <LongitudeDegrees>-5.69538108073174953460693359375</LongitudeDegrees>
            </Position>
            <AltitudeMeters>220.600006103515625</AltitudeMeters>
            <DistanceMeters>6593.922187201</DistanceMeters>
          </Trackpoint>
          <Trackpoint>
            <Time>2019-10-04T09:31:00.000Z</Time>
            <Position>
              <LatitudeDegrees>43.4667272865772247314453125</LatitudeDegrees>
              <LongitudeDegrees>-5.69569054059684276580810546875</LongitudeDegrees>
            </Position>
            <AltitudeMeters>221</AltitudeMeters>
            <DistanceMeters>6622.1876433866</DistanceMeters>
          </Trackpoint>
          <Trackpoint>
            <Time>2019-10-04T09:31:01.000Z</Time>
            <Position>
              <LatitudeDegrees>43.466705493628978729248046875</LatitudeDegrees>
              <LongitudeDegrees>-5.69573312066495418548583984375</LongitudeDegrees>
            </Position>
            <AltitudeMeters>220.8000030517578125</AltitudeMeters>
            <DistanceMeters>6626.3968012576</DistanceMeters>
          </Trackpoint>
          <Trackpoint>
            <Time>2019-10-04T09:31:04.000Z</Time>
            <Position>
              <LatitudeDegrees>43.466619662940502166748046875</LatitudeDegrees>
              <LongitudeDegrees>-5.6958456896245479583740234375</LongitudeDegrees>
            </Position>
            <AltitudeMeters>221</AltitudeMeters>
            <DistanceMeters>6639.586016269</DistanceMeters>
          </Trackpoint>
          <Trackpoint>
            <Time>2019-10-04T09:31:06.000Z</Time>
            <Position>
              <LatitudeDegrees>43.46654397435486316680908203125</LatitudeDegrees>
              <LongitudeDegrees>-5.69589891470968723297119140625</LongitudeDegrees>
            </Position>
            <AltitudeMeters>220.8000030517578125</AltitudeMeters>
            <DistanceMeters>6649.043919697</DistanceMeters>
          </Trackpoint>
          <Trackpoint>
            <Time>2019-10-04T09:31:11.000Z</Time>
            <Position>
              <LatitudeDegrees>43.4663412161171436309814453125</LatitudeDegrees>
              <LongitudeDegrees>-5.6959224678575992584228515625</LongitudeDegrees>
            </Position>
            <AltitudeMeters>221.1999969482421875</AltitudeMeters>
            <DistanceMeters>6671.691399513</DistanceMeters>
          </Trackpoint>
          <Trackpoint>
            <Time>2019-10-04T09:31:12.000Z</Time>
            <Position>
              <LatitudeDegrees>43.46630257554352283477783203125</LatitudeDegrees>
              <LongitudeDegrees>-5.69591131992638111114501953125</LongitudeDegrees>
            </Position>
            <AltitudeMeters>221.399993896484375</AltitudeMeters>
            <DistanceMeters>6676.085293394</DistanceMeters>
          </Trackpoint>
          <Trackpoint>
            <Time>2019-10-04T09:31:16.000Z</Time>
            <Position>
              <LatitudeDegrees>43.4661531262099742889404296875</LatitudeDegrees>
              <LongitudeDegrees>-5.69581040181219577789306640625</LongitudeDegrees>
            </Position>
            <AltitudeMeters>221.399993896484375</AltitudeMeters>
            <DistanceMeters>6694.6094102385</DistanceMeters>
          </Trackpoint>
          <Trackpoint>
            <Time>2019-10-04T09:31:23.000Z</Time>
            <Position>
              <LatitudeDegrees>43.465935699641704559326171875</LatitudeDegrees>
              <LongitudeDegrees>-5.695553831756114959716796875</LongitudeDegrees>
            </Position>
            <AltitudeMeters>222</AltitudeMeters>
            <DistanceMeters>6726.4718548135</DistanceMeters>
          </Trackpoint>
          <Trackpoint>
            <Time>2019-10-04T09:31:28.000Z</Time>
            <Position>
              <LatitudeDegrees>43.4657863341271877288818359375</LatitudeDegrees>
              <LongitudeDegrees>-5.695344619452953338623046875</LongitudeDegrees>
            </Position>
            <AltitudeMeters>222.1999969482421875</AltitudeMeters>
            <DistanceMeters>6750.1786871139</DistanceMeters>
          </Trackpoint>
          <Trackpoint>
            <Time>2019-10-04T09:31:30.000Z</Time>
            <Position>
              <LatitudeDegrees>43.46572523005306720733642578125</LatitudeDegrees>
              <LongitudeDegrees>-5.69527060724794864654541015625</LongitudeDegrees>
            </Position>
            <AltitudeMeters>222.399993896484375</AltitudeMeters>
            <DistanceMeters>6759.2346881223</DistanceMeters>
          </Trackpoint>
          <Trackpoint>
            <Time>2019-10-04T09:31:31.000Z</Time>
            <Position>
              <LatitudeDegrees>43.4656914509832859039306640625</LatitudeDegrees>
              <LongitudeDegrees>-5.6952401809394359588623046875</LongitudeDegrees>
            </Position>
            <AltitudeMeters>222.600006103515625</AltitudeMeters>
            <DistanceMeters>6763.7261456558</DistanceMeters>
          </Trackpoint>
          <Trackpoint>
            <Time>2019-10-04T09:31:32.000Z</Time>
            <Position>
              <LatitudeDegrees>43.46565498970448970794677734375</LatitudeDegrees>
              <LongitudeDegrees>-5.6952170468866825103759765625</LongitudeDegrees>
            </Position>
            <AltitudeMeters>222.600006103515625</AltitudeMeters>
            <DistanceMeters>6768.1934120393</DistanceMeters>
          </Trackpoint>
          <Trackpoint>
            <Time>2019-10-04T09:31:36.000Z</Time>
            <Position>
              <LatitudeDegrees>43.46549908630549907684326171875</LatitudeDegrees>
              <LongitudeDegrees>-5.6952027976512908935546875</LongitudeDegrees>
            </Position>
            <AltitudeMeters>223</AltitudeMeters>
            <DistanceMeters>6785.5840796591</DistanceMeters>
          </Trackpoint>
          <Trackpoint>
            <Time>2019-10-04T09:31:37.000Z</Time>
            <Position>
              <LatitudeDegrees>43.46545784734189510345458984375</LatitudeDegrees>
              <LongitudeDegrees>-5.695207826793193817138671875</LongitudeDegrees>
            </Position>
            <AltitudeMeters>223.600006103515625</AltitudeMeters>
            <DistanceMeters>6790.1926303853</DistanceMeters>
          </Trackpoint>
          <Trackpoint>
            <Time>2019-10-04T09:31:38.000Z</Time>
            <Position>
              <LatitudeDegrees>43.46541845239698886871337890625</LatitudeDegrees>
              <LongitudeDegrees>-5.6952183879911899566650390625</LongitudeDegrees>
            </Position>
            <AltitudeMeters>223.399993896484375</AltitudeMeters>
            <DistanceMeters>6794.6598967688</DistanceMeters>
          </Trackpoint>
          <Trackpoint>
            <Time>2019-10-04T09:31:43.000Z</Time>
            <Position>
              <LatitudeDegrees>43.46522650681436061859130859375</LatitudeDegrees>
              <LongitudeDegrees>-5.695280916988849639892578125</LongitudeDegrees>
            </Position>
            <AltitudeMeters>223.8000030517578125</AltitudeMeters>
            <DistanceMeters>6816.61291888</DistanceMeters>
          </Trackpoint>
          <Trackpoint>
            <Time>2019-10-04T09:31:46.000Z</Time>
            <Position>
              <LatitudeDegrees>43.4651154465973377227783203125</LatitudeDegrees>
              <LongitudeDegrees>-5.6953092478215694427490234375</LongitudeDegrees>
            </Position>
            <AltitudeMeters>224.600006103515625</AltitudeMeters>
            <DistanceMeters>6829.1841307486</DistanceMeters>
          </Trackpoint>
          <Trackpoint>
            <Time>2019-10-04T09:31:49.000Z</Time>
            <Position>
              <LatitudeDegrees>43.465006649494171142578125</LatitudeDegrees>
              <LongitudeDegrees>-5.6953132711350917816162109375</LongitudeDegrees>
            </Position>
            <AltitudeMeters>224.600006103515625</AltitudeMeters>
            <DistanceMeters>6841.2980802405</DistanceMeters>
          </Trackpoint>
          <Trackpoint>
            <Time>2019-10-04T09:31:54.000Z</Time>
            <Position>
              <LatitudeDegrees>43.46483708359301090240478515625</LatitudeDegrees>
              <LongitudeDegrees>-5.6952073238790035247802734375</LongitudeDegrees>
            </Position>
            <AltitudeMeters>225.399993896484375</AltitudeMeters>
            <DistanceMeters>6862.0208772372</DistanceMeters>
          </Trackpoint>
          <Trackpoint>
            <Time>2019-10-04T09:31:55.000Z</Time>
            <Position>
              <LatitudeDegrees>43.46480741165578365325927734375</LatitudeDegrees>
              <LongitudeDegrees>-5.69517522118985652923583984375</LongitudeDegrees>
            </Position>
            <AltitudeMeters>225.600006103515625</AltitudeMeters>
            <DistanceMeters>6866.2203699798</DistanceMeters>
          </Trackpoint>
          <Trackpoint>
            <Time>2019-10-04T09:32:01.000Z</Time>
            <Position>
              <LatitudeDegrees>43.46465972252190113067626953125</LatitudeDegrees>
              <LongitudeDegrees>-5.6949625723063945770263671875</LongitudeDegrees>
            </Position>
            <AltitudeMeters>226.1999969482421875</AltitudeMeters>
            <DistanceMeters>6889.996616017</DistanceMeters>
          </Trackpoint>
          <Trackpoint>
            <Time>2019-10-04T09:32:03.000Z</Time>
            <Position>
              <LatitudeDegrees>43.46462418325245380401611328125</LatitudeDegrees>
              <LongitudeDegrees>-5.69487682543694972991943359375</LongitudeDegrees>
            </Position>
            <AltitudeMeters>226.8000030517578125</AltitudeMeters>
            <DistanceMeters>6897.9732016665</DistanceMeters>
          </Trackpoint>
          <Trackpoint>
            <Time>2019-10-04T09:32:07.000Z</Time>
            <Position>
              <LatitudeDegrees>43.4645696170628070831298828125</LatitudeDegrees>
              <LongitudeDegrees>-5.694682784378528594970703125</LongitudeDegrees>
            </Position>
            <AltitudeMeters>226.8000030517578125</AltitudeMeters>
            <DistanceMeters>6914.7840693535</DistanceMeters>
          </Trackpoint>
          <Trackpoint>
            <Time>2019-10-04T09:32:12.000Z</Time>
            <Position>
              <LatitudeDegrees>43.46451354213058948516845703125</LatitudeDegrees>
              <LongitudeDegrees>-5.6944371946156024932861328125</LongitudeDegrees>
            </Position>
            <AltitudeMeters>227.8000030517578125</AltitudeMeters>
            <DistanceMeters>6935.5821154593</DistanceMeters>
          </Trackpoint>
          <Trackpoint>
            <Time>2019-10-04T09:32:18.000Z</Time>
            <Position>
              <LatitudeDegrees>43.46445478498935699462890625</LatitudeDegrees>
              <LongitudeDegrees>-5.69414525292813777923583984375</LongitudeDegrees>
            </Position>
            <AltitudeMeters>228.399993896484375</AltitudeMeters>
            <DistanceMeters>6960.0558763172</DistanceMeters>
          </Trackpoint>
          <Trackpoint>
            <Time>2019-10-04T09:32:20.000Z</Time>
            <Position>
              <LatitudeDegrees>43.4644313156604766845703125</LatitudeDegrees>
              <LongitudeDegrees>-5.69405489601194858551025390625</LongitudeDegrees>
            </Position>
            <AltitudeMeters>229</AltitudeMeters>
            <DistanceMeters>6967.807983046</DistanceMeters>
          </Trackpoint>
          <Trackpoint>
            <Time>2019-10-04T09:32:26.000Z</Time>
            <Position>
              <LatitudeDegrees>43.4643320739269256591796875</LatitudeDegrees>
              <LongitudeDegrees>-5.69381408393383026123046875</LongitudeDegrees>
            </Position>
            <AltitudeMeters>229.399993896484375</AltitudeMeters>
            <DistanceMeters>6990.1786521581</DistanceMeters>
          </Trackpoint>
          <Trackpoint>
            <Time>2019-10-04T09:32:31.000Z</Time>
            <Position>
              <LatitudeDegrees>43.46419134177267551422119140625</LatitudeDegrees>
              <LongitudeDegrees>-5.69369045086205005645751953125</LongitudeDegrees>
            </Position>
            <AltitudeMeters>230</AltitudeMeters>
            <DistanceMeters>7008.7553418897</DistanceMeters>
          </Trackpoint>
          <Trackpoint>
            <Time>2019-10-04T09:32:32.000Z</Time>
            <Position>
              <LatitudeDegrees>43.46416016109287738800048828125</LatitudeDegrees>
              <LongitudeDegrees>-5.69367653690278530120849609375</LongitudeDegrees>
            </Position>
            <AltitudeMeters>229.8000030517578125</AltitudeMeters>
            <DistanceMeters>7012.4036747526</DistanceMeters>
          </Trackpoint>
          <Trackpoint>
            <Time>2019-10-04T09:32:39.000Z</Time>
            <Position>
              <LatitudeDegrees>43.463930077850818634033203125</LatitudeDegrees>
              <LongitudeDegrees>-5.69366513751447200775146484375</LongitudeDegrees>
            </Position>
            <AltitudeMeters>231</AltitudeMeters>
            <DistanceMeters>7038.0288400955</DistanceMeters>
          </Trackpoint>
          <Trackpoint>
            <Time>2019-10-04T09:32:50.000Z</Time>
            <Position>
              <LatitudeDegrees>43.4635510481894016265869140625</LatitudeDegrees>
              <LongitudeDegrees>-5.69369514472782611846923828125</LongitudeDegrees>
            </Position>
            <AltitudeMeters>232.1999969482421875</AltitudeMeters>
            <DistanceMeters>7080.285180282</DistanceMeters>
          </Trackpoint>
          <Trackpoint>
            <Time>2019-10-04T09:32:51.000Z</Time>
            <Position>
              <LatitudeDegrees>43.4635175205767154693603515625</LatitudeDegrees>
              <LongitudeDegrees>-5.6936975754797458648681640625</LongitudeDegrees>
            </Position>
            <AltitudeMeters>232.1999969482421875</AltitudeMeters>
            <DistanceMeters>7084.0215552876</DistanceMeters>
          </Trackpoint>
          <Trackpoint>
            <Time>2019-10-04T09:33:00.000Z</Time>
            <Position>
              <LatitudeDegrees>43.46321619115769863128662109375</LatitudeDegrees>
              <LongitudeDegrees>-5.69373671896755695343017578125</LongitudeDegrees>
            </Position>
            <AltitudeMeters>233.1999969482421875</AltitudeMeters>
            <DistanceMeters>7117.7087600821</DistanceMeters>
          </Trackpoint>
          <Trackpoint>
            <Time>2019-10-04T09:33:01.000Z</Time>
            <Position>
              <LatitudeDegrees>43.4631822444498538970947265625</LatitudeDegrees>
              <LongitudeDegrees>-5.693742334842681884765625</LongitudeDegrees>
            </Position>
            <AltitudeMeters>233.399993896484375</AltitudeMeters>
            <DistanceMeters>7121.5145770267</DistanceMeters>
          </Trackpoint>
          <Trackpoint>
            <Time>2019-10-04T09:33:09.000Z</Time>
            <Position>
              <LatitudeDegrees>43.4629170410335063934326171875</LatitudeDegrees>
              <LongitudeDegrees>-5.693784244358539581298828125</LongitudeDegrees>
            </Position>
            <AltitudeMeters>234.600006103515625</AltitudeMeters>
            <DistanceMeters>7151.2257396249</DistanceMeters>
          </Trackpoint>
          <Trackpoint>
            <Time>2019-10-04T09:33:17.000Z</Time>
            <Position>
              <LatitudeDegrees>43.46264722757041454315185546875</LatitudeDegrees>
              <LongitudeDegrees>-5.6938132457435131072998046875</LongitudeDegrees>
            </Position>
            <AltitudeMeters>234.8000030517578125</AltitudeMeters>
            <DistanceMeters>7181.3478590903</DistanceMeters>
          </Trackpoint>
          <Trackpoint>
            <Time>2019-10-04T09:33:26.000Z</Time>
            <Position>
              <LatitudeDegrees>43.46234790980815887451171875</LatitudeDegrees>
              <LongitudeDegrees>-5.69383478723466396331787109375</LongitudeDegrees>
            </Position>
            <AltitudeMeters>235.600006103515625</AltitudeMeters>
            <DistanceMeters>7214.7080560511</DistanceMeters>
          </Trackpoint>
          <Trackpoint>
            <Time>2019-10-04T09:33:27.000Z</Time>
            <Position>
              <LatitudeDegrees>43.4623142145574092864990234375</LatitudeDegrees>
              <LongitudeDegrees>-5.69382355548441410064697265625</LongitudeDegrees>
            </Position>
            <AltitudeMeters>235.8000030517578125</AltitudeMeters>
            <DistanceMeters>7218.5657193308</DistanceMeters>
          </Trackpoint>
          <Trackpoint>
            <Time>2019-10-04T09:33:31.000Z</Time>
            <Position>
              <LatitudeDegrees>43.4621898271143436431884765625</LatitudeDegrees>
              <LongitudeDegrees>-5.693741329014301300048828125</LongitudeDegrees>
            </Position>
            <AltitudeMeters>236.399993896484375</AltitudeMeters>
            <DistanceMeters>7233.9212836677</DistanceMeters>
          </Trackpoint>
          <Trackpoint>
            <Time>2019-10-04T09:33:36.000Z</Time>
            <Position>
              <LatitudeDegrees>43.46205965615808963775634765625</LatitudeDegrees>
              <LongitudeDegrees>-5.69358902983367443084716796875</LongitudeDegrees>
            </Position>
            <AltitudeMeters>236.8000030517578125</AltitudeMeters>
            <DistanceMeters>7252.9287645225</DistanceMeters>
          </Trackpoint>
          <Trackpoint>
            <Time>2019-10-04T09:33:38.000Z</Time>
            <Position>
              <LatitudeDegrees>43.46201757900416851043701171875</LatitudeDegrees>
              <LongitudeDegrees>-5.69351661019027233123779296875</LongitudeDegrees>
            </Position>
            <AltitudeMeters>237</AltitudeMeters>
            <DistanceMeters>7260.4232341823</DistanceMeters>
          </Trackpoint>
          <Trackpoint>
            <Time>2019-10-04T09:33:47.000Z</Time>
            <Position>
              <LatitudeDegrees>43.46182353794574737548828125</LatitudeDegrees>
              <LongitudeDegrees>-5.69319717586040496826171875</LongitudeDegrees>
            </Position>
            <AltitudeMeters>237.600006103515625</AltitudeMeters>
            <DistanceMeters>7294.0740977099</DistanceMeters>
          </Trackpoint>
          <Trackpoint>
            <Time>2019-10-04T09:33:50.000Z</Time>
            <Position>
              <LatitudeDegrees>43.4617640264332294464111328125</LatitudeDegrees>
              <LongitudeDegrees>-5.69308946840465068817138671875</LongitudeDegrees>
            </Position>
            <AltitudeMeters>238</AltitudeMeters>
            <DistanceMeters>7305.0096042069</DistanceMeters>
          </Trackpoint>
          <Trackpoint>
            <Time>2019-10-04T09:33:56.000Z</Time>
            <Position>
              <LatitudeDegrees>43.4616258926689624786376953125</LatitudeDegrees>
              <LongitudeDegrees>-5.6928853690624237060546875</LongitudeDegrees>
            </Position>
            <AltitudeMeters>238.600006103515625</AltitudeMeters>
            <DistanceMeters>7327.5539787286</DistanceMeters>
          </Trackpoint>
          <Trackpoint>
            <Time>2019-10-04T09:34:00.000Z</Time>
            <Position>
              <LatitudeDegrees>43.4615172632038593292236328125</LatitudeDegrees>
              <LongitudeDegrees>-5.69277338683605194091796875</LongitudeDegrees>
            </Position>
            <AltitudeMeters>239</AltitudeMeters>
            <DistanceMeters>7342.6545578685</DistanceMeters>
          </Trackpoint>
          <Trackpoint>
            <Time>2019-10-04T09:34:04.000Z</Time>
            <Position>
              <LatitudeDegrees>43.461395390331745147705078125</LatitudeDegrees>
              <LongitudeDegrees>-5.6926984526216983795166015625</LongitudeDegrees>
            </Position>
            <AltitudeMeters>239.1999969482421875</AltitudeMeters>
            <DistanceMeters>7357.508543456</DistanceMeters>
          </Trackpoint>
          <Trackpoint>
            <Time>2019-10-04T09:34:08.000Z</Time>
            <Position>
              <LatitudeDegrees>43.46126689575612545013427734375</LatitudeDegrees>
              <LongitudeDegrees>-5.6926676072180271148681640625</LongitudeDegrees>
            </Position>
            <AltitudeMeters>240.1999969482421875</AltitudeMeters>
            <DistanceMeters>7372.0255653286</DistanceMeters>
          </Trackpoint>
          <Trackpoint>
            <Time>2019-10-04T09:34:12.000Z</Time>
            <Position>
              <LatitudeDegrees>43.4611373953521251678466796875</LatitudeDegrees>
              <LongitudeDegrees>-5.69266282953321933746337890625</LongitudeDegrees>
            </Position>
            <AltitudeMeters>240.600006103515625</AltitudeMeters>
            <DistanceMeters>7386.4439709232</DistanceMeters>
          </Trackpoint>
          <Trackpoint>
            <Time>2019-10-04T09:34:17.000Z</Time>
            <Position>
              <LatitudeDegrees>43.46096917055547237396240234375</LatitudeDegrees>
              <LongitudeDegrees>-5.6926501728594303131103515625</LongitudeDegrees>
            </Position>
            <AltitudeMeters>241.399993896484375</AltitudeMeters>
            <DistanceMeters>7405.1958022132</DistanceMeters>
          </Trackpoint>
          <Trackpoint>
            <Time>2019-10-04T09:34:20.000Z</Time>
            <Position>
              <LatitudeDegrees>43.4608708508312702178955078125</LatitudeDegrees>
              <LongitudeDegrees>-5.69260868243873119354248046875</LongitudeDegrees>
            </Position>
            <AltitudeMeters>242</AltitudeMeters>
            <DistanceMeters>7416.6409011161</DistanceMeters>
          </Trackpoint>
          <Trackpoint>
            <Time>2019-10-04T09:34:23.000Z</Time>
            <Position>
              <LatitudeDegrees>43.4607776440680027008056640625</LatitudeDegrees>
              <LongitudeDegrees>-5.69253425113856792449951171875</LongitudeDegrees>
            </Position>
            <AltitudeMeters>241.8000030517578125</AltitudeMeters>
            <DistanceMeters>7428.6316007262</DistanceMeters>
          </Trackpoint>
          <Trackpoint>
            <Time>2019-10-04T09:34:26.000Z</Time>
            <Position>
              <LatitudeDegrees>43.46069692634046077728271484375</LatitudeDegrees>
              <LongitudeDegrees>-5.6924225203692913055419921875</LongitudeDegrees>
            </Position>
            <AltitudeMeters>242</AltitudeMeters>
            <DistanceMeters>7441.3673077379</DistanceMeters>
          </Trackpoint>
          <Trackpoint>
            <Time>2019-10-04T09:34:31.000Z</Time>
            <Position>
              <LatitudeDegrees>43.4605992771685123443603515625</LatitudeDegrees>
              <LongitudeDegrees>-5.69220232777297496795654296875</LongitudeDegrees>
            </Position>
            <AltitudeMeters>242.600006103515625</AltitudeMeters>
            <DistanceMeters>7462.2139251839</DistanceMeters>
          </Trackpoint>
          <Trackpoint>
            <Time>2019-10-04T09:34:33.000Z</Time>
            <Position>
              <LatitudeDegrees>43.46055862493813037872314453125</LatitudeDegrees>
              <LongitudeDegrees>-5.6921167485415935516357421875</LongitudeDegrees>
            </Position>
            <AltitudeMeters>242.600006103515625</AltitudeMeters>
            <DistanceMeters>7470.4763326972</DistanceMeters>
          </Trackpoint>
          <Trackpoint>
            <Time>2019-10-04T09:34:39.000Z</Time>
            <Position>
              <LatitudeDegrees>43.460387550294399261474609375</LatitudeDegrees>
              <LongitudeDegrees>-5.6919229589402675628662109375</LongitudeDegrees>
            </Position>
            <AltitudeMeters>243.600006103515625</AltitudeMeters>
            <DistanceMeters>7495.1272954415</DistanceMeters>
          </Trackpoint>
          <Trackpoint>
            <Time>2019-10-04T09:34:46.000Z</Time>
            <Position>
              <LatitudeDegrees>43.46013852395117282867431640625</LatitudeDegrees>
              <LongitudeDegrees>-5.69181877188384532928466796875</LongitudeDegrees>
            </Position>
            <AltitudeMeters>244.600006103515625</AltitudeMeters>
            <DistanceMeters>7524.094393386</DistanceMeters>
          </Trackpoint>
          <Trackpoint>
            <Time>2019-10-04T09:34:47.000Z</Time>
            <Position>
              <LatitudeDegrees>43.4601008892059326171875</LatitudeDegrees>
              <LongitudeDegrees>-5.691816508769989013671875</LongitudeDegrees>
            </Position>
            <AltitudeMeters>244.8000030517578125</AltitudeMeters>
            <DistanceMeters>7528.2863534001</DistanceMeters>
          </Trackpoint>
          <Trackpoint>
            <Time>2019-10-04T09:34:54.000Z</Time>
            <Position>
              <LatitudeDegrees>43.459843732416629791259765625</LatitudeDegrees>
              <LongitudeDegrees>-5.6917999126017093658447265625</LongitudeDegrees>
            </Position>
            <AltitudeMeters>245.399993896484375</AltitudeMeters>
            <DistanceMeters>7556.939704867</DistanceMeters>
          </Trackpoint>
          <Trackpoint>
            <Time>2019-10-04T09:34:58.000Z</Time>
            <Position>
              <LatitudeDegrees>43.45969512127339839935302734375</LatitudeDegrees>
              <LongitudeDegrees>-5.69176093675196170806884765625</LongitudeDegrees>
            </Position>
            <AltitudeMeters>245.8000030517578125</AltitudeMeters>
            <DistanceMeters>7573.7774089871</DistanceMeters>
          </Trackpoint>
          <Trackpoint>
            <Time>2019-10-04T09:35:02.000Z</Time>
            <Position>
              <LatitudeDegrees>43.4595525451004505157470703125</LatitudeDegrees>
              <LongitudeDegrees>-5.6916956417262554168701171875</LongitudeDegrees>
            </Position>
            <AltitudeMeters>246.1999969482421875</AltitudeMeters>
            <DistanceMeters>7590.5002208737</DistanceMeters>
          </Trackpoint>
          <Trackpoint>
            <Time>2019-10-04T09:35:07.000Z</Time>
            <Position>
              <LatitudeDegrees>43.459389768540859222412109375</LatitudeDegrees>
              <LongitudeDegrees>-5.69160335697233676910400390625</LongitudeDegrees>
            </Position>
            <AltitudeMeters>247</AltitudeMeters>
            <DistanceMeters>7610.0914017767</DistanceMeters>
          </Trackpoint>
          <Trackpoint>
            <Time>2019-10-04T09:35:11.000Z</Time>
            <Position>
              <LatitudeDegrees>43.45927082933485507965087890625</LatitudeDegrees>
              <LongitudeDegrees>-5.6915323622524738311767578125</LongitudeDegrees>
            </Position>
            <AltitudeMeters>247.600006103515625</AltitudeMeters>
            <DistanceMeters>7624.518572741</DistanceMeters>
          </Trackpoint>
          <Trackpoint>
            <Time>2019-10-04T09:35:16.000Z</Time>
            <Position>
              <LatitudeDegrees>43.45912515185773372650146484375</LatitudeDegrees>
              <LongitudeDegrees>-5.69145080633461475372314453125</LongitudeDegrees>
            </Position>
            <AltitudeMeters>248</AltitudeMeters>
            <DistanceMeters>7642.0205227218</DistanceMeters>
          </Trackpoint>
          <Trackpoint>
            <Time>2019-10-04T09:35:20.000Z</Time>
            <Position>
              <LatitudeDegrees>43.45900411717593669891357421875</LatitudeDegrees>
              <LongitudeDegrees>-5.69138643331825733184814453125</LongitudeDegrees>
            </Position>
            <AltitudeMeters>248.8000030517578125</AltitudeMeters>
            <DistanceMeters>7656.4608317643</DistanceMeters>
          </Trackpoint>
          <Trackpoint>
            <Time>2019-10-04T09:35:23.000Z</Time>
            <Position>
              <LatitudeDegrees>43.458911664783954620361328125</LatitudeDegrees>
              <LongitudeDegrees>-5.6913238205015659332275390625</LongitudeDegrees>
            </Position>
            <AltitudeMeters>249.1999969482421875</AltitudeMeters>
            <DistanceMeters>7667.9272136272</DistanceMeters>
          </Trackpoint>
          <Trackpoint>
            <Time>2019-10-04T09:35:28.000Z</Time>
            <Position>
              <LatitudeDegrees>43.45877529121935367584228515625</LatitudeDegrees>
              <LongitudeDegrees>-5.69118954241275787353515625</LongitudeDegrees>
            </Position>
            <AltitudeMeters>249.8000030517578125</AltitudeMeters>
            <DistanceMeters>7686.5839369892</DistanceMeters>
          </Trackpoint>
          <Trackpoint>
            <Time>2019-10-04T09:35:32.000Z</Time>
            <Position>
              <LatitudeDegrees>43.45867085270583629608154296875</LatitudeDegrees>
              <LongitudeDegrees>-5.691079236567020416259765625</LongitudeDegrees>
            </Position>
            <AltitudeMeters>250.1999969482421875</AltitudeMeters>
            <DistanceMeters>7701.2310034585</DistanceMeters>
          </Trackpoint>
          <Trackpoint>
            <Time>2019-10-04T09:35:37.000Z</Time>
            <Position>
              <LatitudeDegrees>43.45854051411151885986328125</LatitudeDegrees>
              <LongitudeDegrees>-5.69092794321477413177490234375</LongitudeDegrees>
            </Position>
            <AltitudeMeters>250.600006103515625</AltitudeMeters>
            <DistanceMeters>7720.200915856</DistanceMeters>
          </Trackpoint>
          <Trackpoint>
            <Time>2019-10-04T09:35:43.000Z</Time>
            <Position>
              <LatitudeDegrees>43.4583945013582706451416015625</LatitudeDegrees>
              <LongitudeDegrees>-5.69075326435267925262451171875</LongitudeDegrees>
            </Position>
            <AltitudeMeters>251.399993896484375</AltitudeMeters>
            <DistanceMeters>7741.7248337587</DistanceMeters>
          </Trackpoint>
          <Trackpoint>
            <Time>2019-10-04T09:35:45.000Z</Time>
            <Position>
              <LatitudeDegrees>43.4583432041108608245849609375</LatitudeDegrees>
              <LongitudeDegrees>-5.69069794379174709320068359375</LongitudeDegrees>
            </Position>
            <AltitudeMeters>251.8000030517578125</AltitudeMeters>
            <DistanceMeters>7748.975565105</DistanceMeters>
          </Trackpoint>
          <Trackpoint>
            <Time>2019-10-04T09:35:50.000Z</Time>
            <Position>
              <LatitudeDegrees>43.458224348723888397216796875</LatitudeDegrees>
              <LongitudeDegrees>-5.6905751489102840423583984375</LongitudeDegrees>
            </Position>
            <AltitudeMeters>252.399993896484375</AltitudeMeters>
            <DistanceMeters>7765.5107595269</DistanceMeters>
          </Trackpoint>
          <Trackpoint>
            <Time>2019-10-04T09:35:52.000Z</Time>
            <Position>
              <LatitudeDegrees>43.45817305147647857666015625</LatitudeDegrees>
              <LongitudeDegrees>-5.69052075035870075225830078125</LongitudeDegrees>
            </Position>
            <AltitudeMeters>252.600006103515625</AltitudeMeters>
            <DistanceMeters>7772.715263632</DistanceMeters>
          </Trackpoint>
          <Trackpoint>
            <Time>2019-10-04T09:36:00.000Z</Time>
            <Position>
              <LatitudeDegrees>43.45795805566012859344482421875</LatitudeDegrees>
              <LongitudeDegrees>-5.6902951933443546295166015625</LongitudeDegrees>
            </Position>
            <AltitudeMeters>253.8000030517578125</AltitudeMeters>
            <DistanceMeters>7802.7934329362</DistanceMeters>
          </Trackpoint>
          <Trackpoint>
            <Time>2019-10-04T09:36:01.000Z</Time>
            <Position>
              <LatitudeDegrees>43.45792972482740879058837890625</LatitudeDegrees>
              <LongitudeDegrees>-5.69026418030261993408203125</LongitudeDegrees>
            </Position>
            <AltitudeMeters>253.8000030517578125</AltitudeMeters>
            <DistanceMeters>7806.82059289</DistanceMeters>
          </Trackpoint>
          <Trackpoint>
            <Time>2019-10-04T09:36:06.000Z</Time>
            <Position>
              <LatitudeDegrees>43.45779175870120525360107421875</LatitudeDegrees>
              <LongitudeDegrees>-5.69012462161481380462646484375</LongitudeDegrees>
            </Position>
            <AltitudeMeters>254.600006103515625</AltitudeMeters>
            <DistanceMeters>7825.8714939824</DistanceMeters>
          </Trackpoint>
          <Trackpoint>
            <Time>2019-10-04T09:36:09.000Z</Time>
            <Position>
              <LatitudeDegrees>43.457706682384014129638671875</LatitudeDegrees>
              <LongitudeDegrees>-5.6900489330291748046875</LongitudeDegrees>
            </Position>
            <AltitudeMeters>254.8000030517578125</AltitudeMeters>
            <DistanceMeters>7837.1436812433</DistanceMeters>
          </Trackpoint>
          <Trackpoint>
            <Time>2019-10-04T09:36:10.000Z</Time>
            <Position>
              <LatitudeDegrees>43.4576790221035480499267578125</LatitudeDegrees>
              <LongitudeDegrees>-5.69002286531031131744384765625</LongitudeDegrees>
            </Position>
            <AltitudeMeters>255</AltitudeMeters>
            <DistanceMeters>7840.8752195154</DistanceMeters>
          </Trackpoint>
          <Trackpoint>
            <Time>2019-10-04T09:36:20.000Z</Time>
            <Position>
              <LatitudeDegrees>43.45739923417568206787109375</LatitudeDegrees>
              <LongitudeDegrees>-5.689770989120006561279296875</LongitudeDegrees>
            </Position>
            <AltitudeMeters>256</AltitudeMeters>
            <DistanceMeters>7878.0757205227</DistanceMeters>
          </Trackpoint>
          <Trackpoint>
            <Time>2019-10-04T09:36:29.000Z</Time>
            <Position>
              <LatitudeDegrees>43.45715389586985111236572265625</LatitudeDegrees>
              <LongitudeDegrees>-5.68951995112001895904541015625</LongitudeDegrees>
            </Position>
            <AltitudeMeters>257</AltitudeMeters>
            <DistanceMeters>7912.0907715261</DistanceMeters>
          </Trackpoint>
          <Trackpoint>
            <Time>2019-10-04T09:36:30.000Z</Time>
            <Position>
              <LatitudeDegrees>43.4571276605129241943359375</LatitudeDegrees>
              <LongitudeDegrees>-5.68948910571634769439697265625</LongitudeDegrees>
            </Position>
            <AltitudeMeters>257</AltitudeMeters>
            <DistanceMeters>7915.9296626104</DistanceMeters>
          </Trackpoint>
          <Trackpoint>
            <Time>2019-10-04T09:36:41.000Z</Time>
            <Position>
              <LatitudeDegrees>43.45686036162078380584716796875</LatitudeDegrees>
              <LongitudeDegrees>-5.68914846517145633697509765625</LongitudeDegrees>
            </Position>
            <AltitudeMeters>258</AltitudeMeters>
            <DistanceMeters>7956.4578600148</DistanceMeters>
          </Trackpoint>
          <Trackpoint>
            <Time>2019-10-04T09:36:43.000Z</Time>
            <Position>
              <LatitudeDegrees>43.45681023783981800079345703125</LatitudeDegrees>
              <LongitudeDegrees>-5.68909113295376300811767578125</LongitudeDegrees>
            </Position>
            <AltitudeMeters>258.399993896484375</AltitudeMeters>
            <DistanceMeters>7963.7085913612</DistanceMeters>
          </Trackpoint>
          <Trackpoint>
            <Time>2019-10-04T09:36:48.000Z</Time>
            <Position>
              <LatitudeDegrees>43.45668442547321319580078125</LatitudeDegrees>
              <LongitudeDegrees>-5.68894528783857822418212890625</LongitudeDegrees>
            </Position>
            <AltitudeMeters>259.399993896484375</AltitudeMeters>
            <DistanceMeters>7982.0095622454</DistanceMeters>
          </Trackpoint>
          <Trackpoint>
            <Time>2019-10-04T09:36:49.000Z</Time>
            <Position>
              <LatitudeDegrees>43.4566587768495082855224609375</LatitudeDegrees>
              <LongitudeDegrees>-5.68891662172973155975341796875</LongitudeDegrees>
            </Position>
            <AltitudeMeters>259.79998779296875</AltitudeMeters>
            <DistanceMeters>7985.6850206332</DistanceMeters>
          </Trackpoint>
          <Trackpoint>
            <Time>2019-10-04T09:36:56.000Z</Time>
            <Position>
              <LatitudeDegrees>43.4564703516662120819091796875</LatitudeDegrees>
              <LongitudeDegrees>-5.68871227093040943145751953125</LongitudeDegrees>
            </Position>
            <AltitudeMeters>260.399993896484375</AltitudeMeters>
            <DistanceMeters>8012.3760270004</DistanceMeters>
          </Trackpoint>
          <Trackpoint>
            <Time>2019-10-04T09:36:58.000Z</Time>
            <Position>
              <LatitudeDegrees>43.4564170427620410919189453125</LatitudeDegrees>
              <LongitudeDegrees>-5.68866080604493618011474609375</LongitudeDegrees>
            </Position>
            <AltitudeMeters>260.600006103515625</AltitudeMeters>
            <DistanceMeters>8019.6217750256</DistanceMeters>
          </Trackpoint>
          <Trackpoint>
            <Time>2019-10-04T09:37:07.000Z</Time>
            <Position>
              <LatitudeDegrees>43.45617237500846385955810546875</LatitudeDegrees>
              <LongitudeDegrees>-5.68840599618852138519287109375</LongitudeDegrees>
            </Position>
            <AltitudeMeters>261</AltitudeMeters>
            <DistanceMeters>8053.7599155107</DistanceMeters>
          </Trackpoint>
          <Trackpoint>
            <Time>2019-10-04T09:37:11.000Z</Time>
            <Position>
              <LatitudeDegrees>43.45607514493167400360107421875</LatitudeDegrees>
              <LongitudeDegrees>-5.6882800161838531494140625</LongitudeDegrees>
            </Position>
            <AltitudeMeters>261.399993896484375</AltitudeMeters>
            <DistanceMeters>8068.6163325904</DistanceMeters>
          </Trackpoint>
          <Trackpoint>
            <Time>2019-10-04T09:37:18.000Z</Time>
            <Position>
              <LatitudeDegrees>43.45590583048760890960693359375</LatitudeDegrees>
              <LongitudeDegrees>-5.68805479444563388824462890625</LongitudeDegrees>
            </Position>
            <AltitudeMeters>262</AltitudeMeters>
            <DistanceMeters>8094.8127004576</DistanceMeters>
          </Trackpoint>
          <Trackpoint>
            <Time>2019-10-04T09:37:26.000Z</Time>
            <Position>
              <LatitudeDegrees>43.45570282079279422760009765625</LatitudeDegrees>
              <LongitudeDegrees>-5.68780669011175632476806640625</LongitudeDegrees>
            </Position>
            <AltitudeMeters>262.600006103515625</AltitudeMeters>
            <DistanceMeters>8125.0183433699</DistanceMeters>
          </Trackpoint>
          <Trackpoint>
            <Time>2019-10-04T09:37:28.000Z</Time>
            <Position>
              <LatitudeDegrees>43.455652780830860137939453125</LatitudeDegrees>
              <LongitudeDegrees>-5.68774751387536525726318359375</LongitudeDegrees>
            </Position>
            <AltitudeMeters>262.79998779296875</AltitudeMeters>
            <DistanceMeters>8132.3581959614</DistanceMeters>
          </Trackpoint>
          <Trackpoint>
            <Time>2019-10-04T09:37:38.000Z</Time>
            <Position>
              <LatitudeDegrees>43.455393947660923004150390625</LatitudeDegrees>
              <LongitudeDegrees>-5.68742900155484676361083984375</LongitudeDegrees>
            </Position>
            <AltitudeMeters>263.20001220703125</AltitudeMeters>
            <DistanceMeters>8170.9872274301</DistanceMeters>
          </Trackpoint>
          <Trackpoint>
            <Time>2019-10-04T09:37:41.000Z</Time>
            <Position>
              <LatitudeDegrees>43.45531892962753772735595703125</LatitudeDegrees>
              <LongitudeDegrees>-5.6873269937932491302490234375</LongitudeDegrees>
            </Position>
            <AltitudeMeters>263.600006103515625</AltitudeMeters>
            <DistanceMeters>8182.7198522563</DistanceMeters>
          </Trackpoint>
          <Trackpoint>
            <Time>2019-10-04T09:37:48.000Z</Time>
            <Position>
              <LatitudeDegrees>43.4551396407186985015869140625</LatitudeDegrees>
              <LongitudeDegrees>-5.6870976649224758148193359375</LongitudeDegrees>
            </Position>
            <AltitudeMeters>264.600006103515625</AltitudeMeters>
            <DistanceMeters>8209.9509340825</DistanceMeters>
          </Trackpoint>
          <Trackpoint>
            <Time>2019-10-04T09:37:50.000Z</Time>
            <Position>
              <LatitudeDegrees>43.4550896845757961273193359375</LatitudeDegrees>
              <LongitudeDegrees>-5.6870292685925960540771484375</LongitudeDegrees>
            </Position>
            <AltitudeMeters>264.600006103515625</AltitudeMeters>
            <DistanceMeters>8217.7904940369</DistanceMeters>
          </Trackpoint>
          <Trackpoint>
            <Time>2019-10-04T09:37:57.000Z</Time>
            <Position>
              <LatitudeDegrees>43.45494140870869159698486328125</LatitudeDegrees>
              <LongitudeDegrees>-5.68677823059260845184326171875</LongitudeDegrees>
            </Position>
            <AltitudeMeters>265.600006103515625</AltitudeMeters>
            <DistanceMeters>8243.9392490424</DistanceMeters>
          </Trackpoint>
          <Trackpoint>
            <Time>2019-10-04T09:37:59.000Z</Time>
            <Position>
              <LatitudeDegrees>43.45490553416311740875244140625</LatitudeDegrees>
              <LongitudeDegrees>-5.68669776432216167449951171875</LongitudeDegrees>
            </Position>
            <AltitudeMeters>265.79998779296875</AltitudeMeters>
            <DistanceMeters>8251.568657457</DistanceMeters>
          </Trackpoint>
          <Trackpoint>
            <Time>2019-10-04T09:38:05.000Z</Time>
            <Position>
              <LatitudeDegrees>43.45483143813908100128173828125</LatitudeDegrees>
              <LongitudeDegrees>-5.68643666803836822509765625</LongitudeDegrees>
            </Position>
            <AltitudeMeters>266.79998779296875</AltitudeMeters>
            <DistanceMeters>8274.2189281637</DistanceMeters>
          </Trackpoint>
          <Trackpoint>
            <Time>2019-10-04T09:38:07.000Z</Time>
            <Position>
              <LatitudeDegrees>43.45481484197080135345458984375</LatitudeDegrees>
              <LongitudeDegrees>-5.686347149312496185302734375</LongitudeDegrees>
            </Position>
            <AltitudeMeters>266.79998779296875</AltitudeMeters>
            <DistanceMeters>8281.6838194379</DistanceMeters>
          </Trackpoint>
          <Trackpoint>
            <Time>2019-10-04T09:38:13.000Z</Time>
            <Position>
              <LatitudeDegrees>43.454760946333408355712890625</LatitudeDegrees>
              <LongitudeDegrees>-5.686082951724529266357421875</LongitudeDegrees>
            </Position>
            <AltitudeMeters>267.79998779296875</AltitudeMeters>
            <DistanceMeters>8303.8568325844</DistanceMeters>
          </Trackpoint>
          <Trackpoint>
            <Time>2019-10-04T09:38:19.000Z</Time>
            <Position>
              <LatitudeDegrees>43.4547078050673007965087890625</LatitudeDegrees>
              <LongitudeDegrees>-5.68581975996494293212890625</LongitudeDegrees>
            </Position>
            <AltitudeMeters>268.20001220703125</AltitudeMeters>
            <DistanceMeters>8325.928819902</DistanceMeters>
          </Trackpoint>
          <Trackpoint>
            <Time>2019-10-04T09:38:22.000Z</Time>
            <Position>
              <LatitudeDegrees>43.45468089915812015533447265625</LatitudeDegrees>
              <LongitudeDegrees>-5.685687325894832611083984375</LongitudeDegrees>
            </Position>
            <AltitudeMeters>268.79998779296875</AltitudeMeters>
            <DistanceMeters>8337.0400396884</DistanceMeters>
          </Trackpoint>
          <Trackpoint>
            <Time>2019-10-04T09:38:27.000Z</Time>
            <Position>
              <LatitudeDegrees>43.4546414203941822052001953125</LatitudeDegrees>
              <LongitudeDegrees>-5.685465373098850250244140625</LongitudeDegrees>
            </Position>
            <AltitudeMeters>269.399993896484375</AltitudeMeters>
            <DistanceMeters>8355.5036104675</DistanceMeters>
          </Trackpoint>
          <Trackpoint>
            <Time>2019-10-04T09:38:31.000Z</Time>
            <Position>
              <LatitudeDegrees>43.454599678516387939453125</LatitudeDegrees>
              <LongitudeDegrees>-5.68529362790286540985107421875</LongitudeDegrees>
            </Position>
            <AltitudeMeters>269.79998779296875</AltitudeMeters>
            <DistanceMeters>8370.1367988663</DistanceMeters>
          </Trackpoint>
          <Trackpoint>
            <Time>2019-10-04T09:38:36.000Z</Time>
            <Position>
              <LatitudeDegrees>43.454553075134754180908203125</LatitudeDegrees>
              <LongitudeDegrees>-5.68507385440170764923095703125</LongitudeDegrees>
            </Position>
            <AltitudeMeters>270.79998779296875</AltitudeMeters>
            <DistanceMeters>8388.6355495517</DistanceMeters>
          </Trackpoint>
          <Trackpoint>
            <Time>2019-10-04T09:38:38.000Z</Time>
            <Position>
              <LatitudeDegrees>43.454538993537425994873046875</LatitudeDegrees>
              <LongitudeDegrees>-5.68498483859002590179443359375</LongitudeDegrees>
            </Position>
            <AltitudeMeters>271</AltitudeMeters>
            <DistanceMeters>8395.9962871957</DistanceMeters>
          </Trackpoint>
          <Trackpoint>
            <Time>2019-10-04T09:38:46.000Z</Time>
            <Position>
              <LatitudeDegrees>43.454479984939098358154296875</LatitudeDegrees>
              <LongitudeDegrees>-5.68463732488453388214111328125</LongitudeDegrees>
            </Position>
            <AltitudeMeters>272.399993896484375</AltitudeMeters>
            <DistanceMeters>8424.8318457816</DistanceMeters>
          </Trackpoint>
          <Trackpoint>
            <Time>2019-10-04T09:38:56.000Z</Time>
            <Position>
              <LatitudeDegrees>43.45439792610704898834228515625</LatitudeDegrees>
              <LongitudeDegrees>-5.6842042319476604461669921875</LongitudeDegrees>
            </Position>
            <AltitudeMeters>273.399993896484375</AltitudeMeters>
            <DistanceMeters>8460.9964714791</DistanceMeters>
          </Trackpoint>
          <Trackpoint>
            <Time>2019-10-04T09:39:02.000Z</Time>
            <Position>
              <LatitudeDegrees>43.4543406777083873748779296875</LatitudeDegrees>
              <LongitudeDegrees>-5.683952271938323974609375</LongitudeDegrees>
            </Position>
            <AltitudeMeters>274.600006103515625</AltitudeMeters>
            <DistanceMeters>8482.3277994268</DistanceMeters>
          </Trackpoint>
          <Trackpoint>
            <Time>2019-10-04T09:39:07.000Z</Time>
            <Position>
              <LatitudeDegrees>43.454290889203548431396484375</LatitudeDegrees>
              <LongitudeDegrees>-5.68374297581613063812255859375</LongitudeDegrees>
            </Position>
            <AltitudeMeters>275.20001220703125</AltitudeMeters>
            <DistanceMeters>8500.1231850875</DistanceMeters>
          </Trackpoint>
          <Trackpoint>
            <Time>2019-10-04T09:39:08.000Z</Time>
            <Position>
              <LatitudeDegrees>43.454283177852630615234375</LatitudeDegrees>
              <LongitudeDegrees>-5.6837023235857486724853515625</LongitudeDegrees>
            </Position>
            <AltitudeMeters>275.600006103515625</AltitudeMeters>
            <DistanceMeters>8503.5203070599</DistanceMeters>
          </Trackpoint>
          <Trackpoint>
            <Time>2019-10-04T09:39:15.000Z</Time>
            <Position>
              <LatitudeDegrees>43.4542216546833515167236328125</LatitudeDegrees>
              <LongitudeDegrees>-5.68339915014803409576416015625</LongitudeDegrees>
            </Position>
            <AltitudeMeters>276.399993896484375</AltitudeMeters>
            <DistanceMeters>8528.9550019966</DistanceMeters>
          </Trackpoint>
          <Trackpoint>
            <Time>2019-10-04T09:39:18.000Z</Time>
            <Position>
              <LatitudeDegrees>43.45419759862124919891357421875</LatitudeDegrees>
              <LongitudeDegrees>-5.6832694821059703826904296875</LongitudeDegrees>
            </Position>
            <AltitudeMeters>276.79998779296875</AltitudeMeters>
            <DistanceMeters>8539.7684408516</DistanceMeters>
          </Trackpoint>
          <Trackpoint>
            <Time>2019-10-04T09:39:25.000Z</Time>
            <Position>
              <LatitudeDegrees>43.4541224129498004913330078125</LatitudeDegrees>
              <LongitudeDegrees>-5.68297938443720340728759765625</LongitudeDegrees>
            </Position>
            <AltitudeMeters>277.79998779296875</AltitudeMeters>
            <DistanceMeters>8564.6563709302</DistanceMeters>
          </Trackpoint>
          <Trackpoint>
            <Time>2019-10-04T09:39:26.000Z</Time>
            <Position>
              <LatitudeDegrees>43.4541100077331066131591796875</LatitudeDegrees>
              <LongitudeDegrees>-5.68294099532067775726318359375</LongitudeDegrees>
            </Position>
            <AltitudeMeters>278</AltitudeMeters>
            <DistanceMeters>8568.0521635651</DistanceMeters>
          </Trackpoint>
          <Trackpoint>
            <Time>2019-10-04T09:39:33.000Z</Time>
            <Position>
              <LatitudeDegrees>43.4540069103240966796875</LatitudeDegrees>
              <LongitudeDegrees>-5.6826760433614253997802734375</LongitudeDegrees>
            </Position>
            <AltitudeMeters>279.20001220703125</AltitudeMeters>
            <DistanceMeters>8592.3411107271</DistanceMeters>
          </Trackpoint>
          <Trackpoint>
            <Time>2019-10-04T09:39:36.000Z</Time>
            <Position>
              <LatitudeDegrees>43.4539572894573211669921875</LatitudeDegrees>
              <LongitudeDegrees>-5.68256531842052936553955078125</LongitudeDegrees>
            </Position>
            <AltitudeMeters>279.600006103515625</AltitudeMeters>
            <DistanceMeters>8602.8543469403</DistanceMeters>
          </Trackpoint>
          <Trackpoint>
            <Time>2019-10-04T09:39:42.000Z</Time>
            <Position>
              <LatitudeDegrees>43.453847654163837432861328125</LatitudeDegrees>
              <LongitudeDegrees>-5.6823525018990039825439453125</LongitudeDegrees>
            </Position>
            <AltitudeMeters>280.20001220703125</AltitudeMeters>
            <DistanceMeters>8623.9391453384</DistanceMeters>
          </Trackpoint>
          <Trackpoint>
            <Time>2019-10-04T09:39:47.000Z</Time>
            <Position>
              <LatitudeDegrees>43.4537499211728572845458984375</LatitudeDegrees>
              <LongitudeDegrees>-5.6821741349995136260986328125</LongitudeDegrees>
            </Position>
            <AltitudeMeters>281.20001220703125</AltitudeMeters>
            <DistanceMeters>8641.9952213222</DistanceMeters>
          </Trackpoint>
          <Trackpoint>
            <Time>2019-10-04T09:39:48.000Z</Time>
            <Position>
              <LatitudeDegrees>43.45373139716684818267822265625</LatitudeDegrees>
              <LongitudeDegrees>-5.68213817663490772247314453125</LongitudeDegrees>
            </Position>
            <AltitudeMeters>281.399993896484375</AltitudeMeters>
            <DistanceMeters>8645.5584063412</DistanceMeters>
          </Trackpoint>
          <Trackpoint>
            <Time>2019-10-04T09:39:57.000Z</Time>
            <Position>
              <LatitudeDegrees>43.4535571373999118804931640625</LatitudeDegrees>
              <LongitudeDegrees>-5.68181111477315425872802734375</LongitudeDegrees>
            </Position>
            <AltitudeMeters>282.600006103515625</AltitudeMeters>
            <DistanceMeters>8678.338077728</DistanceMeters>
          </Trackpoint>
          <Trackpoint>
            <Time>2019-10-04T09:39:59.000Z</Time>
            <Position>
              <LatitudeDegrees>43.45352075994014739990234375</LatitudeDegrees>
              <LongitudeDegrees>-5.681743137538433074951171875</LongitudeDegrees>
            </Position>
            <AltitudeMeters>283</AltitudeMeters>
            <DistanceMeters>8685.1621603932</DistanceMeters>
          </Trackpoint>
          <Trackpoint>
            <Time>2019-10-04T09:40:03.000Z</Time>
            <Position>
              <LatitudeDegrees>43.45344037748873233795166015625</LatitudeDegrees>
              <LongitudeDegrees>-5.6816038303077220916748046875</LongitudeDegrees>
            </Position>
            <AltitudeMeters>283.600006103515625</AltitudeMeters>
            <DistanceMeters>8699.5404276778</DistanceMeters>
          </Trackpoint>
          <Trackpoint>
            <Time>2019-10-04T09:40:09.000Z</Time>
            <Position>
              <LatitudeDegrees>43.45331951044499874114990234375</LatitudeDegrees>
              <LongitudeDegrees>-5.68140442483127117156982421875</LongitudeDegrees>
            </Position>
            <AltitudeMeters>284.600006103515625</AltitudeMeters>
            <DistanceMeters>8720.5299338546</DistanceMeters>
          </Trackpoint>
          <Trackpoint>
            <Time>2019-10-04T09:40:11.000Z</Time>
            <Position>
              <LatitudeDegrees>43.45327894203364849090576171875</LatitudeDegrees>
              <LongitudeDegrees>-5.68133250810205936431884765625</LongitudeDegrees>
            </Position>
            <AltitudeMeters>284.600006103515625</AltitudeMeters>
            <DistanceMeters>8727.8888310841</DistanceMeters>
          </Trackpoint>
          <Trackpoint>
            <Time>2019-10-04T09:40:21.000Z</Time>
            <Position>
              <LatitudeDegrees>43.4530572406947612762451171875</LatitudeDegrees>
              <LongitudeDegrees>-5.68101248703896999359130859375</LongitudeDegrees>
            </Position>
            <AltitudeMeters>285.79998779296875</AltitudeMeters>
            <DistanceMeters>8763.6307520528</DistanceMeters>
          </Trackpoint>
          <Trackpoint>
            <Time>2019-10-04T09:40:27.000Z</Time>
            <Position>
              <LatitudeDegrees>43.45293779857456684112548828125</LatitudeDegrees>
              <LongitudeDegrees>-5.6808417476713657379150390625</LongitudeDegrees>
            </Position>
            <AltitudeMeters>287</AltitudeMeters>
            <DistanceMeters>8782.7896553975</DistanceMeters>
          </Trackpoint>
          <Trackpoint>
            <Time>2019-10-04T09:40:30.000Z</Time>
            <Position>
              <LatitudeDegrees>43.45288549549877643585205078125</LatitudeDegrees>
              <LongitudeDegrees>-5.68074761889874935150146484375</LongitudeDegrees>
            </Position>
            <AltitudeMeters>287.399993896484375</AltitudeMeters>
            <DistanceMeters>8792.36757514</DistanceMeters>
          </Trackpoint>
          <Trackpoint>
            <Time>2019-10-04T09:40:34.000Z</Time>
            <Position>
              <LatitudeDegrees>43.45282875001430511474609375</LatitudeDegrees>
              <LongitudeDegrees>-5.68061049096286296844482421875</LongitudeDegrees>
            </Position>
            <AltitudeMeters>288.20001220703125</AltitudeMeters>
            <DistanceMeters>8805.1209957364</DistanceMeters>
          </Trackpoint>
          <Trackpoint>
            <Time>2019-10-04T09:40:38.000Z</Time>
            <Position>
              <LatitudeDegrees>43.452798239886760711669921875</LatitudeDegrees>
              <LongitudeDegrees>-5.68046070635318756103515625</LongitudeDegrees>
            </Position>
            <AltitudeMeters>288.79998779296875</AltitudeMeters>
            <DistanceMeters>8817.6911300879</DistanceMeters>
          </Trackpoint>
          <Trackpoint>
            <Time>2019-10-04T09:40:45.000Z</Time>
            <Position>
              <LatitudeDegrees>43.4527615271508693695068359375</LatitudeDegrees>
              <LongitudeDegrees>-5.6801846064627170562744140625</LongitudeDegrees>
            </Position>
            <AltitudeMeters>289.600006103515625</AltitudeMeters>
            <DistanceMeters>8840.3708834905</DistanceMeters>
          </Trackpoint>
          <Trackpoint>
            <Time>2019-10-04T09:40:47.000Z</Time>
            <Position>
              <LatitudeDegrees>43.4527551569044589996337890625</LatitudeDegrees>
              <LongitudeDegrees>-5.6801068224012851715087890625</LongitudeDegrees>
            </Position>
            <AltitudeMeters>290</AltitudeMeters>
            <DistanceMeters>8846.6956948432</DistanceMeters>
          </Trackpoint>
          <Trackpoint>
            <Time>2019-10-04T09:40:54.000Z</Time>
            <Position>
              <LatitudeDegrees>43.45273612998425960540771484375</LatitudeDegrees>
              <LongitudeDegrees>-5.67985310219228267669677734375</LongitudeDegrees>
            </Position>
            <AltitudeMeters>290.600006103515625</AltitudeMeters>
            <DistanceMeters>8867.3053221026</DistanceMeters>
          </Trackpoint>
          <Trackpoint>
            <Time>2019-10-04T09:40:56.000Z</Time>
            <Position>
              <LatitudeDegrees>43.4527276642620563507080078125</LatitudeDegrees>
              <LongitudeDegrees>-5.679786466062068939208984375</LongitudeDegrees>
            </Position>
            <AltitudeMeters>290.79998779296875</AltitudeMeters>
            <DistanceMeters>8872.7708040462</DistanceMeters>
          </Trackpoint>
          <Trackpoint>
            <Time>2019-10-04T09:41:02.000Z</Time>
            <Position>
              <LatitudeDegrees>43.4526939690113067626953125</LatitudeDegrees>
              <LongitudeDegrees>-5.67958152852952480316162109375</LongitudeDegrees>
            </Position>
            <AltitudeMeters>291.600006103515625</AltitudeMeters>
            <DistanceMeters>8889.748703509</DistanceMeters>
          </Trackpoint>
          <Trackpoint>
            <Time>2019-10-04T09:41:03.000Z</Time>
            <Position>
              <LatitudeDegrees>43.45268726348876953125</LatitudeDegrees>
              <LongitudeDegrees>-5.67954766564071178436279296875</LongitudeDegrees>
            </Position>
            <AltitudeMeters>291.79998779296875</AltitudeMeters>
            <DistanceMeters>8892.5836229144</DistanceMeters>
          </Trackpoint>
          <Trackpoint>
            <Time>2019-10-04T09:41:12.000Z</Time>
            <Position>
              <LatitudeDegrees>43.45261073671281337738037109375</LatitudeDegrees>
              <LongitudeDegrees>-5.6792632676661014556884765625</LongitudeDegrees>
            </Position>
            <AltitudeMeters>292.399993896484375</AltitudeMeters>
            <DistanceMeters>8917.0903843123</DistanceMeters>
          </Trackpoint>
          <Trackpoint>
            <Time>2019-10-04T09:41:13.000Z</Time>
            <Position>
              <LatitudeDegrees>43.45260201953351497650146484375</LatitudeDegrees>
              <LongitudeDegrees>-5.67922865040600299835205078125</LongitudeDegrees>
            </Position>
            <AltitudeMeters>292.600006103515625</AltitudeMeters>
            <DistanceMeters>8920.051499681</DistanceMeters>
          </Trackpoint>
          <Trackpoint>
            <Time>2019-10-04T09:41:22.000Z</Time>
            <Position>
              <LatitudeDegrees>43.45250956714153289794921875</LatitudeDegrees>
              <LongitudeDegrees>-5.67893947474658489227294921875</LongitudeDegrees>
            </Position>
            <AltitudeMeters>293.79998779296875</AltitudeMeters>
            <DistanceMeters>8945.5822264226</DistanceMeters>
          </Trackpoint>
          <Trackpoint>
            <Time>2019-10-04T09:41:23.000Z</Time>
            <Position>
              <LatitudeDegrees>43.45249858684837818145751953125</LatitudeDegrees>
              <LongitudeDegrees>-5.67890678532421588897705078125</LongitudeDegrees>
            </Position>
            <AltitudeMeters>293.79998779296875</AltitudeMeters>
            <DistanceMeters>8948.4925892358</DistanceMeters>
          </Trackpoint>
          <Trackpoint>
            <Time>2019-10-04T09:41:31.000Z</Time>
            <Position>
              <LatitudeDegrees>43.45241242088377475738525390625</LatitudeDegrees>
              <LongitudeDegrees>-5.6786493770778179168701171875</LongitudeDegrees>
            </Position>
            <AltitudeMeters>294.79998779296875</AltitudeMeters>
            <DistanceMeters>8971.3954074134</DistanceMeters>
          </Trackpoint>
          <Trackpoint>
            <Time>2019-10-04T09:41:32.000Z</Time>
            <Position>
              <LatitudeDegrees>43.4524007700383663177490234375</LatitudeDegrees>
              <LongitudeDegrees>-5.67861677147448062896728515625</LongitudeDegrees>
            </Position>
            <AltitudeMeters>295</AltitudeMeters>
            <DistanceMeters>8974.3304871274</DistanceMeters>
          </Trackpoint>
          <Trackpoint>
            <Time>2019-10-04T09:41:38.000Z</Time>
            <Position>
              <LatitudeDegrees>43.45235559158027172088623046875</LatitudeDegrees>
              <LongitudeDegrees>-5.678426921367645263671875</LongitudeDegrees>
            </Position>
            <AltitudeMeters>295.79998779296875</AltitudeMeters>
            <DistanceMeters>8990.4732857082</DistanceMeters>
          </Trackpoint>
          <Trackpoint>
            <Time>2019-10-04T09:41:46.000Z</Time>
            <Position>
              <LatitudeDegrees>43.45224805176258087158203125</LatitudeDegrees>
              <LongitudeDegrees>-5.6781585328280925750732421875</LongitudeDegrees>
            </Position>
            <AltitudeMeters>296.79998779296875</AltitudeMeters>
            <DistanceMeters>9015.243015499</DistanceMeters>
          </Trackpoint>
          <Trackpoint>
            <Time>2019-10-04T09:41:47.000Z</Time>
            <Position>
              <LatitudeDegrees>43.4522326290607452392578125</LatitudeDegrees>
              <LongitudeDegrees>-5.6781224906444549560546875</LongitudeDegrees>
            </Position>
            <AltitudeMeters>297.20001220703125</AltitudeMeters>
            <DistanceMeters>9018.622815301</DistanceMeters>
          </Trackpoint>
          <Trackpoint>
            <Time>2019-10-04T09:41:53.000Z</Time>
            <Position>
              <LatitudeDegrees>43.4521540068089962005615234375</LatitudeDegrees>
              <LongitudeDegrees>-5.67791839130222797393798828125</LongitudeDegrees>
            </Position>
            <AltitudeMeters>297.79998779296875</AltitudeMeters>
            <DistanceMeters>9037.2921187316</DistanceMeters>
          </Trackpoint>
          <Trackpoint>
            <Time>2019-10-04T09:41:58.000Z</Time>
            <Position>
              <LatitudeDegrees>43.452093489468097686767578125</LatitudeDegrees>
              <LongitudeDegrees>-5.67776097916066646575927734375</LongitudeDegrees>
            </Position>
            <AltitudeMeters>298.399993896484375</AltitudeMeters>
            <DistanceMeters>9051.6841961866</DistanceMeters>
          </Trackpoint>
          <Trackpoint>
            <Time>2019-10-04T09:41:59.000Z</Time>
            <Position>
              <LatitudeDegrees>43.4520799107849597930908203125</LatitudeDegrees>
              <LongitudeDegrees>-5.67772946320474147796630859375</LongitudeDegrees>
            </Position>
            <AltitudeMeters>298.399993896484375</AltitudeMeters>
            <DistanceMeters>9054.6453115554</DistanceMeters>
          </Trackpoint>
          <Trackpoint>
            <Time>2019-10-04T09:42:06.000Z</Time>
            <Position>
              <LatitudeDegrees>43.4519930742681026458740234375</LatitudeDegrees>
              <LongitudeDegrees>-5.67749024368822574615478515625</LongitudeDegrees>
            </Position>
            <AltitudeMeters>299.600006103515625</AltitudeMeters>
            <DistanceMeters>9076.2558990886</DistanceMeters>
          </Trackpoint>
          <Trackpoint>
            <Time>2019-10-04T09:42:07.000Z</Time>
            <Position>
              <LatitudeDegrees>43.4519803337752819061279296875</LatitudeDegrees>
              <LongitudeDegrees>-5.6774532794952392578125</LongitudeDegrees>
            </Position>
            <AltitudeMeters>299.600006103515625</AltitudeMeters>
            <DistanceMeters>9079.5614085043</DistanceMeters>
          </Trackpoint>
          <Trackpoint>
            <Time>2019-10-04T09:42:16.000Z</Time>
            <Position>
              <LatitudeDegrees>43.45186156220734119415283203125</LatitudeDegrees>
              <LongitudeDegrees>-5.67713837139308452606201171875</LongitudeDegrees>
            </Position>
            <AltitudeMeters>300.600006103515625</AltitudeMeters>
            <DistanceMeters>9108.2352373421</DistanceMeters>
          </Trackpoint>
          <Trackpoint>
            <Time>2019-10-04T09:42:20.000Z</Time>
            <Position>
              <LatitudeDegrees>43.451809175312519073486328125</LatitudeDegrees>
              <LongitudeDegrees>-5.6770061887800693511962890625</LongitudeDegrees>
            </Position>
            <AltitudeMeters>301.20001220703125</AltitudeMeters>
            <DistanceMeters>9120.4034814</DistanceMeters>
          </Trackpoint>
          <Trackpoint>
            <Time>2019-10-04T09:42:25.000Z</Time>
            <Position>
              <LatitudeDegrees>43.4517422877252101898193359375</LatitudeDegrees>
              <LongitudeDegrees>-5.67684014327824115753173828125</LongitudeDegrees>
            </Position>
            <AltitudeMeters>301.600006103515625</AltitudeMeters>
            <DistanceMeters>9135.7472799208</DistanceMeters>
          </Trackpoint>
          <Trackpoint>
            <Time>2019-10-04T09:42:29.000Z</Time>
            <Position>
              <LatitudeDegrees>43.451683111488819122314453125</LatitudeDegrees>
              <LongitudeDegrees>-5.676715336740016937255859375</LongitudeDegrees>
            </Position>
            <AltitudeMeters>302</AltitudeMeters>
            <DistanceMeters>9147.7920799668</DistanceMeters>
          </Trackpoint>
          <Trackpoint>
            <Time>2019-10-04T09:42:32.000Z</Time>
            <Position>
              <LatitudeDegrees>43.4516242705285549163818359375</LatitudeDegrees>
              <LongitudeDegrees>-5.676636882126331329345703125</LongitudeDegrees>
            </Position>
            <AltitudeMeters>302.600006103515625</AltitudeMeters>
            <DistanceMeters>9156.9067222135</DistanceMeters>
          </Trackpoint>
          <Trackpoint>
            <Time>2019-10-04T09:42:37.000Z</Time>
            <Position>
              <LatitudeDegrees>43.45150910317897796630859375</LatitudeDegrees>
              <LongitudeDegrees>-5.676542334258556365966796875</LongitudeDegrees>
            </Position>
            <AltitudeMeters>303</AltitudeMeters>
            <DistanceMeters>9171.8289423911</DistanceMeters>
          </Trackpoint>
          <Trackpoint>
            <Time>2019-10-04T09:42:40.000Z</Time>
            <Position>
              <LatitudeDegrees>43.45143425278365612030029296875</LatitudeDegrees>
              <LongitudeDegrees>-5.67650838755071163177490234375</LongitudeDegrees>
            </Position>
            <AltitudeMeters>303.600006103515625</AltitudeMeters>
            <DistanceMeters>9180.5992440478</DistanceMeters>
          </Trackpoint>
          <Trackpoint>
            <Time>2019-10-04T09:42:44.000Z</Time>
            <Position>
              <LatitudeDegrees>43.45133149065077304840087890625</LatitudeDegrees>
              <LongitudeDegrees>-5.676489360630512237548828125</LongitudeDegrees>
            </Position>
            <AltitudeMeters>304.20001220703125</AltitudeMeters>
            <DistanceMeters>9192.1398071828</DistanceMeters>
          </Trackpoint>
          <Trackpoint>
            <Time>2019-10-04T09:42:48.000Z</Time>
            <Position>
              <LatitudeDegrees>43.451215736567974090576171875</LatitudeDegrees>
              <LongitudeDegrees>-5.67649967037141323089599609375</LongitudeDegrees>
            </Position>
            <AltitudeMeters>304.79998779296875</AltitudeMeters>
            <DistanceMeters>9205.0501577204</DistanceMeters>
          </Trackpoint>
          <Trackpoint>
            <Time>2019-10-04T09:42:53.000Z</Time>
            <Position>
              <LatitudeDegrees>43.4510727412998676300048828125</LatitudeDegrees>
              <LongitudeDegrees>-5.67652196623384952545166015625</LongitudeDegrees>
            </Position>
            <AltitudeMeters>305</AltitudeMeters>
            <DistanceMeters>9221.067163426</DistanceMeters>
          </Trackpoint>
          <Trackpoint>
            <Time>2019-10-04T09:42:56.000Z</Time>
            <Position>
              <LatitudeDegrees>43.4509899280965328216552734375</LatitudeDegrees>
              <LongitudeDegrees>-5.67654945887625217437744140625</LongitudeDegrees>
            </Position>
            <AltitudeMeters>305.79998779296875</AltitudeMeters>
            <DistanceMeters>9230.5489059386</DistanceMeters>
          </Trackpoint>
          <Trackpoint>
            <Time>2019-10-04T09:43:03.000Z</Time>
            <Position>
              <LatitudeDegrees>43.4508098848164081573486328125</LatitudeDegrees>
              <LongitudeDegrees>-5.6766367144882678985595703125</LongitudeDegrees>
            </Position>
            <AltitudeMeters>307</AltitudeMeters>
            <DistanceMeters>9251.7922124206</DistanceMeters>
          </Trackpoint>
          <Trackpoint>
            <Time>2019-10-04T09:43:04.000Z</Time>
            <Position>
              <LatitudeDegrees>43.45078432001173496246337890625</LatitudeDegrees>
              <LongitudeDegrees>-5.67665171809494495391845703125</LongitudeDegrees>
            </Position>
            <AltitudeMeters>306.79998779296875</AltitudeMeters>
            <DistanceMeters>9254.8860580907</DistanceMeters>
          </Trackpoint>
          <Trackpoint>
            <Time>2019-10-04T09:43:12.000Z</Time>
            <Position>
              <LatitudeDegrees>43.45057971775531768798828125</LatitudeDegrees>
              <LongitudeDegrees>-5.6767490319907665252685546875</LongitudeDegrees>
            </Position>
            <AltitudeMeters>308.20001220703125</AltitudeMeters>
            <DistanceMeters>9278.9779072001</DistanceMeters>
          </Trackpoint>
          <Trackpoint>
            <Time>2019-10-04T09:43:15.000Z</Time>
            <Position>
              <LatitudeDegrees>43.4504972398281097412109375</LatitudeDegrees>
              <LongitudeDegrees>-5.67676856182515621185302734375</LongitudeDegrees>
            </Position>
            <AltitudeMeters>308.600006103515625</AltitudeMeters>
            <DistanceMeters>9288.2929490438</DistanceMeters>
          </Trackpoint>
          <Trackpoint>
            <Time>2019-10-04T09:43:21.000Z</Time>
            <Position>
              <LatitudeDegrees>43.45031912438571453094482421875</LatitudeDegrees>
              <LongitudeDegrees>-5.676785074174404144287109375</LongitudeDegrees>
            </Position>
            <AltitudeMeters>309.399993896484375</AltitudeMeters>
            <DistanceMeters>9308.1623964979</DistanceMeters>
          </Trackpoint>
          <Trackpoint>
            <Time>2019-10-04T09:43:25.000Z</Time>
            <Position>
              <LatitudeDegrees>43.45020228065550327301025390625</LatitudeDegrees>
              <LongitudeDegrees>-5.6767825596034526824951171875</LongitudeDegrees>
            </Position>
            <AltitudeMeters>310</AltitudeMeters>
            <DistanceMeters>9321.1689122535</DistanceMeters>
          </Trackpoint>
          <Trackpoint>
            <Time>2019-10-04T09:43:32.000Z</Time>
            <Position>
              <LatitudeDegrees>43.450002372264862060546875</LatitudeDegrees>
              <LongitudeDegrees>-5.67675045691430568695068359375</LongitudeDegrees>
            </Position>
            <AltitudeMeters>310.79998779296875</AltitudeMeters>
            <DistanceMeters>9343.5698351807</DistanceMeters>
          </Trackpoint>
          <Trackpoint>
            <Time>2019-10-04T09:43:35.000Z</Time>
            <Position>
              <LatitudeDegrees>43.44991662539541721343994140625</LatitudeDegrees>
              <LongitudeDegrees>-5.67674408666789531707763671875</LongitudeDegrees>
            </Position>
            <AltitudeMeters>311.20001220703125</AltitudeMeters>
            <DistanceMeters>9353.1274631975</DistanceMeters>
          </Trackpoint>
          <Trackpoint>
            <Time>2019-10-04T09:43:43.000Z</Time>
            <Position>
              <LatitudeDegrees>43.44969400204718112945556640625</LatitudeDegrees>
              <LongitudeDegrees>-5.67676068283617496490478515625</LongitudeDegrees>
            </Position>
            <AltitudeMeters>311.79998779296875</AltitudeMeters>
            <DistanceMeters>9377.9419934714</DistanceMeters>
          </Trackpoint>
          <Trackpoint>
            <Time>2019-10-04T09:43:45.000Z</Time>
            <Position>
              <LatitudeDegrees>43.44964069314301013946533203125</LatitudeDegrees>
              <LongitudeDegrees>-5.6767787039279937744140625</LongitudeDegrees>
            </Position>
            <AltitudeMeters>312.20001220703125</AltitudeMeters>
            <DistanceMeters>9384.0518491178</DistanceMeters>
          </Trackpoint>
          <Trackpoint>
            <Time>2019-10-04T09:43:47.000Z</Time>
            <Position>
              <LatitudeDegrees>43.44958872534334659576416015625</LatitudeDegrees>
              <LongitudeDegrees>-5.676795132458209991455078125</LongitudeDegrees>
            </Position>
            <AltitudeMeters>313</AltitudeMeters>
            <DistanceMeters>9389.9862655281</DistanceMeters>
          </Trackpoint>
          <Trackpoint>
            <Time>2019-10-04T09:43:55.000Z</Time>
            <Position>
              <LatitudeDegrees>43.44938881695270538330078125</LatitudeDegrees>
              <LongitudeDegrees>-5.67690946161746978759765625</LongitudeDegrees>
            </Position>
            <AltitudeMeters>313.600006103515625</AltitudeMeters>
            <DistanceMeters>9414.0781146376</DistanceMeters>
          </Trackpoint>
          <Trackpoint>
            <Time>2019-10-04T09:43:58.000Z</Time>
            <Position>
              <LatitudeDegrees>43.4493192471563816070556640625</LatitudeDegrees>
              <LongitudeDegrees>-5.67697341553866863250732421875</LongitudeDegrees>
            </Position>
            <AltitudeMeters>314.20001220703125</AltitudeMeters>
            <DistanceMeters>9423.387338216</DistanceMeters>
          </Trackpoint>
          <Trackpoint>
            <Time>2019-10-04T09:44:05.000Z</Time>
            <Position>
              <LatitudeDegrees>43.44917968846857547760009765625</LatitudeDegrees>
              <LongitudeDegrees>-5.6771573983132839202880859375</LongitudeDegrees>
            </Position>
            <AltitudeMeters>314.399993896484375</AltitudeMeters>
            <DistanceMeters>9444.8881692109</DistanceMeters>
          </Trackpoint>
          <Trackpoint>
            <Time>2019-10-04T09:44:10.000Z</Time>
            <Position>
              <LatitudeDegrees>43.44909553416073322296142578125</LatitudeDegrees>
              <LongitudeDegrees>-5.67730919457972049713134765625</LongitudeDegrees>
            </Position>
            <AltitudeMeters>315.20001220703125</AltitudeMeters>
            <DistanceMeters>9460.3211629673</DistanceMeters>
          </Trackpoint>
          <Trackpoint>
            <Time>2019-10-04T09:44:14.000Z</Time>
            <Position>
              <LatitudeDegrees>43.4490319155156612396240234375</LatitudeDegrees>
              <LongitudeDegrees>-5.677436180412769317626953125</LongitudeDegrees>
            </Position>
            <AltitudeMeters>315.600006103515625</AltitudeMeters>
            <DistanceMeters>9472.7885085481</DistanceMeters>
          </Trackpoint>
          <Trackpoint>
            <Time>2019-10-04T09:44:18.000Z</Time>
            <Position>
              <LatitudeDegrees>43.44896477647125720977783203125</LatitudeDegrees>
              <LongitudeDegrees>-5.67755629308521747589111328125</LongitudeDegrees>
            </Position>
            <AltitudeMeters>316.399993896484375</AltitudeMeters>
            <DistanceMeters>9485.0381118179</DistanceMeters>
          </Trackpoint>
          <Trackpoint>
            <Time>2019-10-04T09:44:23.000Z</Time>
            <Position>
              <LatitudeDegrees>43.4488723240792751312255859375</LatitudeDegrees>
              <LongitudeDegrees>-5.6777005456387996673583984375</LongitudeDegrees>
            </Position>
            <AltitudeMeters>317.20001220703125</AltitudeMeters>
            <DistanceMeters>9500.586526739</DistanceMeters>
          </Trackpoint>
          <Trackpoint>
            <Time>2019-10-04T09:44:25.000Z</Time>
            <Position>
              <LatitudeDegrees>43.44882898963987827301025390625</LatitudeDegrees>
              <LongitudeDegrees>-5.67775058560073375701904296875</LongitudeDegrees>
            </Position>
            <AltitudeMeters>317.399993896484375</AltitudeMeters>
            <DistanceMeters>9506.8798498106</DistanceMeters>
          </Trackpoint>
          <Trackpoint>
            <Time>2019-10-04T09:44:28.000Z</Time>
            <Position>
              <LatitudeDegrees>43.44875690527260303497314453125</LatitudeDegrees>
              <LongitudeDegrees>-5.67780942656099796295166015625</LongitudeDegrees>
            </Position>
            <AltitudeMeters>318.600006103515625</AltitudeMeters>
            <DistanceMeters>9516.2060331836</DistanceMeters>
          </Trackpoint>
          <Trackpoint>
            <Time>2019-10-04T09:44:31.000Z</Time>
            <Position>
              <LatitudeDegrees>43.4486775286495685577392578125</LatitudeDegrees>
              <LongitudeDegrees>-5.6778354942798614501953125</LongitudeDegrees>
            </Position>
            <AltitudeMeters>318.399993896484375</AltitudeMeters>
            <DistanceMeters>9525.2879227579</DistanceMeters>
          </Trackpoint>
          <Trackpoint>
            <Time>2019-10-04T09:44:36.000Z</Time>
            <Position>
              <LatitudeDegrees>43.4485491178929805755615234375</LatitudeDegrees>
              <LongitudeDegrees>-5.67778394557535648345947265625</LongitudeDegrees>
            </Position>
            <AltitudeMeters>319.20001220703125</AltitudeMeters>
            <DistanceMeters>9540.174396686</DistanceMeters>
          </Trackpoint>
          <Trackpoint>
            <Time>2019-10-04T09:44:41.000Z</Time>
            <Position>
              <LatitudeDegrees>43.448465131223201751708984375</LatitudeDegrees>
              <LongitudeDegrees>-5.67764296196401119232177734375</LongitudeDegrees>
            </Position>
            <AltitudeMeters>319.399993896484375</AltitudeMeters>
            <DistanceMeters>9554.9108924839</DistanceMeters>
          </Trackpoint>
          <Trackpoint>
            <Time>2019-10-04T09:44:47.000Z</Time>
            <Position>
              <LatitudeDegrees>43.448440991342067718505859375</LatitudeDegrees>
              <LongitudeDegrees>-5.67744581960141658782958984375</LongitudeDegrees>
            </Position>
            <AltitudeMeters>319</AltitudeMeters>
            <DistanceMeters>9571.0659928978</DistanceMeters>
          </Trackpoint>
          <Trackpoint>
            <Time>2019-10-04T09:44:52.000Z</Time>
            <Position>
              <LatitudeDegrees>43.4484300948679447174072265625</LatitudeDegrees>
              <LongitudeDegrees>-5.6773143075406551361083984375</LongitudeDegrees>
            </Position>
            <AltitudeMeters>318.600006103515625</AltitudeMeters>
            <DistanceMeters>9581.761881756</DistanceMeters>
          </Trackpoint>
          <Trackpoint>
            <Time>2019-10-04T09:44:54.000Z</Time>
            <Position>
              <LatitudeDegrees>43.44842229969799518585205078125</LatitudeDegrees>
              <LongitudeDegrees>-5.67726896144449710845947265625</LongitudeDegrees>
            </Position>
            <AltitudeMeters>318.79998779296875</AltitudeMeters>
            <DistanceMeters>9585.5271466892</DistanceMeters>
          </Trackpoint>
          <Trackpoint>
            <Time>2019-10-04T09:44:58.000Z</Time>
            <Position>
              <LatitudeDegrees>43.44842255115509033203125</LatitudeDegrees>
              <LongitudeDegrees>-5.67726552486419677734375</LongitudeDegrees>
            </Position>
            <AltitudeMeters>318.600006103515625</AltitudeMeters>
            <DistanceMeters>9585.7959228257</DistanceMeters>
          </Trackpoint>
          <Trackpoint>
            <Time>2019-10-04T09:45:09.000Z</Time>
            <Position>
              <LatitudeDegrees>43.44842255115509033203125</LatitudeDegrees>
              <LongitudeDegrees>-5.67726552486419677734375</LongitudeDegrees>
            </Position>
            <AltitudeMeters>318.600006103515625</AltitudeMeters>
            <DistanceMeters>9585.7959228257</DistanceMeters>
          </Trackpoint>
          <Trackpoint>
            <Time>2019-10-04T09:45:18.000Z</Time>
            <Position>
              <LatitudeDegrees>43.44842255115509033203125</LatitudeDegrees>
              <LongitudeDegrees>-5.67726552486419677734375</LongitudeDegrees>
            </Position>
            <AltitudeMeters>318.600006103515625</AltitudeMeters>
            <DistanceMeters>9585.7959228257</DistanceMeters>
          </Trackpoint>
          <Trackpoint>
            <Time>2019-10-04T09:45:20.000Z</Time>
            <Position>
              <LatitudeDegrees>43.44842255115509033203125</LatitudeDegrees>
              <LongitudeDegrees>-5.67726552486419677734375</LongitudeDegrees>
            </Position>
            <AltitudeMeters>318.79998779296875</AltitudeMeters>
            <DistanceMeters>9585.7959228257</DistanceMeters>
          </Trackpoint>
          <Trackpoint>
            <Time>2019-10-04T09:45:26.000Z</Time>
            <Position>
              <LatitudeDegrees>43.44842255115509033203125</LatitudeDegrees>
              <LongitudeDegrees>-5.67726552486419677734375</LongitudeDegrees>
            </Position>
            <AltitudeMeters>318.79998779296875</AltitudeMeters>
            <DistanceMeters>9585.7959228257</DistanceMeters>
          </Trackpoint>
          <Trackpoint>
            <Time>2019-10-04T09:45:29.000Z</Time>
            <Position>
              <LatitudeDegrees>43.44842255115509033203125</LatitudeDegrees>
              <LongitudeDegrees>-5.67726552486419677734375</LongitudeDegrees>
            </Position>
            <AltitudeMeters>318.600006103515625</AltitudeMeters>
            <DistanceMeters>9585.7959228257</DistanceMeters>
          </Trackpoint>
          <Trackpoint>
            <Time>2019-10-04T09:45:32.000Z</Time>
            <Position>
              <LatitudeDegrees>43.44842255115509033203125</LatitudeDegrees>
              <LongitudeDegrees>-5.67726552486419677734375</LongitudeDegrees>
            </Position>
            <AltitudeMeters>318.600006103515625</AltitudeMeters>
            <DistanceMeters>9585.7959228257</DistanceMeters>
          </Trackpoint>
          <Trackpoint>
            <Time>2019-10-04T09:45:40.000Z</Time>
            <Position>
              <LatitudeDegrees>43.4484223835170269012451171875</LatitudeDegrees>
              <LongitudeDegrees>-5.67726309411227703094482421875</LongitudeDegrees>
            </Position>
            <AltitudeMeters>318.79998779296875</AltitudeMeters>
            <DistanceMeters>9586.0084090187</DistanceMeters>
          </Trackpoint>
          <Trackpoint>
            <Time>2019-10-04T09:45:45.000Z</Time>
            <Position>
              <LatitudeDegrees>43.4484223835170269012451171875</LatitudeDegrees>
              <LongitudeDegrees>-5.67726309411227703094482421875</LongitudeDegrees>
            </Position>
            <AltitudeMeters>318.600006103515625</AltitudeMeters>
            <DistanceMeters>9586.142797087</DistanceMeters>
          </Trackpoint>
          <Trackpoint>
            <Time>2019-10-04T09:45:59.000Z</Time>
            <Position>
              <LatitudeDegrees>43.4484190307557582855224609375</LatitudeDegrees>
              <LongitudeDegrees>-5.67726091481745243072509765625</LongitudeDegrees>
            </Position>
            <AltitudeMeters>318.79998779296875</AltitudeMeters>
            <DistanceMeters>9586.567769473</DistanceMeters>
          </Trackpoint>
          <Trackpoint>
            <Time>2019-10-04T09:46:03.000Z</Time>
            <Position>
              <LatitudeDegrees>43.4484223835170269012451171875</LatitudeDegrees>
              <LongitudeDegrees>-5.67726309411227703094482421875</LongitudeDegrees>
            </Position>
            <AltitudeMeters>318.79998779296875</AltitudeMeters>
            <DistanceMeters>9586.992741859</DistanceMeters>
          </Trackpoint>
          <Trackpoint>
            <Time>2019-10-04T09:46:05.000Z</Time>
            <Position>
              <LatitudeDegrees>43.44842062331736087799072265625</LatitudeDegrees>
              <LongitudeDegrees>-5.6772137247025966644287109375</LongitudeDegrees>
            </Position>
            <AltitudeMeters>318.600006103515625</AltitudeMeters>
            <DistanceMeters>9590.9883863818</DistanceMeters>
          </Trackpoint>
          <Trackpoint>
            <Time>2019-10-04T09:46:06.000Z</Time>
            <Position>
              <LatitudeDegrees>43.4484223835170269012451171875</LatitudeDegrees>
              <LongitudeDegrees>-5.6771810352802276611328125</LongitudeDegrees>
            </Position>
            <AltitudeMeters>318.399993896484375</AltitudeMeters>
            <DistanceMeters>9593.6389333958</DistanceMeters>
          </Trackpoint>
          <Trackpoint>
            <Time>2019-10-04T09:46:08.000Z</Time>
            <Position>
              <LatitudeDegrees>43.4484193660318851470947265625</LatitudeDegrees>
              <LongitudeDegrees>-5.67712127231061458587646484375</LongitudeDegrees>
            </Position>
            <AltitudeMeters>318.600006103515625</AltitudeMeters>
            <DistanceMeters>9598.4806354156</DistanceMeters>
          </Trackpoint>
          <Trackpoint>
            <Time>2019-10-04T09:46:10.000Z</Time>
            <Position>
              <LatitudeDegrees>43.448398075997829437255859375</LatitudeDegrees>
              <LongitudeDegrees>-5.6770594976842403411865234375</LongitudeDegrees>
            </Position>
            <AltitudeMeters>318.600006103515625</AltitudeMeters>
            <DistanceMeters>9604.0052764339</DistanceMeters>
          </Trackpoint>
          <Trackpoint>
            <Time>2019-10-04T09:46:12.000Z</Time>
            <Position>
              <LatitudeDegrees>43.44837284646928310394287109375</LatitudeDegrees>
              <LongitudeDegrees>-5.6769894249737262725830078125</LongitudeDegrees>
            </Position>
            <AltitudeMeters>318.399993896484375</AltitudeMeters>
            <DistanceMeters>9610.3243743153</DistanceMeters>
          </Trackpoint>
          <Trackpoint>
            <Time>2019-10-04T09:46:13.000Z</Time>
            <Position>
              <LatitudeDegrees>43.44835893251001834869384765625</LatitudeDegrees>
              <LongitudeDegrees>-5.6769512034952640533447265625</LongitudeDegrees>
            </Position>
            <AltitudeMeters>318.20001220703125</AltitudeMeters>
            <DistanceMeters>9613.7794808345</DistanceMeters>
          </Trackpoint>
          <Trackpoint>
            <Time>2019-10-04T09:46:15.000Z</Time>
            <Position>
              <LatitudeDegrees>43.4483285062015056610107421875</LatitudeDegrees>
              <LongitudeDegrees>-5.67687585018575191497802734375</LongitudeDegrees>
            </Position>
            <AltitudeMeters>318</AltitudeMeters>
            <DistanceMeters>9620.7469546208</DistanceMeters>
          </Trackpoint>
          <Trackpoint>
            <Time>2019-10-04T09:46:17.000Z</Time>
            <Position>
              <LatitudeDegrees>43.44829539768397808074951171875</LatitudeDegrees>
              <LongitudeDegrees>-5.67679471336305141448974609375</LongitudeDegrees>
            </Position>
            <AltitudeMeters>318</AltitudeMeters>
            <DistanceMeters>9628.2678853375</DistanceMeters>
          </Trackpoint>
          <Trackpoint>
            <Time>2019-10-04T09:46:20.000Z</Time>
            <Position>
              <LatitudeDegrees>43.4482416696846485137939453125</LatitudeDegrees>
              <LongitudeDegrees>-5.676667056977748870849609375</LongitudeDegrees>
            </Position>
            <AltitudeMeters>317.79998779296875</AltitudeMeters>
            <DistanceMeters>9640.1913715531</DistanceMeters>
          </Trackpoint>
          <Trackpoint>
            <Time>2019-10-04T09:46:21.000Z</Time>
            <Position>
              <LatitudeDegrees>43.448216356337070465087890625</LatitudeDegrees>
              <LongitudeDegrees>-5.6766256503760814666748046875</LongitudeDegrees>
            </Position>
            <AltitudeMeters>318</AltitudeMeters>
            <DistanceMeters>9644.5656980138</DistanceMeters>
          </Trackpoint>
          <Trackpoint>
            <Time>2019-10-04T09:46:23.000Z</Time>
            <Position>
              <LatitudeDegrees>43.44816078431904315948486328125</LatitudeDegrees>
              <LongitudeDegrees>-5.67653889767825603485107421875</LongitudeDegrees>
            </Position>
            <AltitudeMeters>317.399993896484375</AltitudeMeters>
            <DistanceMeters>9653.91412461</DistanceMeters>
          </Trackpoint>
          <Trackpoint>
            <Time>2019-10-04T09:46:27.000Z</Time>
            <Position>
              <LatitudeDegrees>43.4480502270162105560302734375</LatitudeDegrees>
              <LongitudeDegrees>-5.67638232372701168060302734375</LongitudeDegrees>
            </Position>
            <AltitudeMeters>317.600006103515625</AltitudeMeters>
            <DistanceMeters>9671.563274361</DistanceMeters>
          </Trackpoint>
          <Trackpoint>
            <Time>2019-10-04T09:46:35.000Z</Time>
            <Position>
              <LatitudeDegrees>43.4478014521300792694091796875</LatitudeDegrees>
              <LongitudeDegrees>-5.67613899707794189453125</LongitudeDegrees>
            </Position>
            <AltitudeMeters>317.600006103515625</AltitudeMeters>
            <DistanceMeters>9705.5231950476</DistanceMeters>
          </Trackpoint>
          <Trackpoint>
            <Time>2019-10-04T09:46:42.000Z</Time>
            <Position>
              <LatitudeDegrees>43.44754219986498355865478515625</LatitudeDegrees>
              <LongitudeDegrees>-5.67597429268062114715576171875</LongitudeDegrees>
            </Position>
            <AltitudeMeters>317.399993896484375</AltitudeMeters>
            <DistanceMeters>9737.2999350963</DistanceMeters>
          </Trackpoint>
          <Trackpoint>
            <Time>2019-10-04T09:46:43.000Z</Time>
            <Position>
              <LatitudeDegrees>43.447498194873332977294921875</LatitudeDegrees>
              <LongitudeDegrees>-5.675954930484294891357421875</LongitudeDegrees>
            </Position>
            <AltitudeMeters>317.399993896484375</AltitudeMeters>
            <DistanceMeters>9742.4419253557</DistanceMeters>
          </Trackpoint>
          <Trackpoint>
            <Time>2019-10-04T09:46:46.000Z</Time>
            <Position>
              <LatitudeDegrees>43.44736039638519287109375</LatitudeDegrees>
              <LongitudeDegrees>-5.67590841092169284820556640625</LongitudeDegrees>
            </Position>
            <AltitudeMeters>317.20001220703125</AltitudeMeters>
            <DistanceMeters>9758.2329522673</DistanceMeters>
          </Trackpoint>
          <Trackpoint>
            <Time>2019-10-04T09:46:50.000Z</Time>
            <Position>
              <LatitudeDegrees>43.4471677802503108978271484375</LatitudeDegrees>
              <LongitudeDegrees>-5.67588879726827144622802734375</LongitudeDegrees>
            </Position>
            <AltitudeMeters>317</AltitudeMeters>
            <DistanceMeters>9779.730003044</DistanceMeters>
          </Trackpoint>
          <Trackpoint>
            <Time>2019-10-04T09:46:53.000Z</Time>
            <Position>
              <LatitudeDegrees>43.44702688045799732208251953125</LatitudeDegrees>
              <LongitudeDegrees>-5.67589349113404750823974609375</LongitudeDegrees>
            </Position>
            <AltitudeMeters>316.79998779296875</AltitudeMeters>
            <DistanceMeters>9795.4171839013</DistanceMeters>
          </Trackpoint>
          <Trackpoint>
            <Time>2019-10-04T09:46:54.000Z</Time>
            <Position>
              <LatitudeDegrees>43.446982540190219879150390625</LatitudeDegrees>
              <LongitudeDegrees>-5.67590354941785335540771484375</LongitudeDegrees>
            </Position>
            <AltitudeMeters>316.79998779296875</AltitudeMeters>
            <DistanceMeters>9800.419417585</DistanceMeters>
          </Trackpoint>
          <Trackpoint>
            <Time>2019-10-04T09:46:57.000Z</Time>
            <Position>
              <LatitudeDegrees>43.4468509443104267120361328125</LatitudeDegrees>
              <LongitudeDegrees>-5.67594663240015506744384765625</LongitudeDegrees>
            </Position>
            <AltitudeMeters>316.79998779296875</AltitudeMeters>
            <DistanceMeters>9815.4738806638</DistanceMeters>
          </Trackpoint>
          <Trackpoint>
            <Time>2019-10-04T09:46:59.000Z</Time>
            <Position>
              <LatitudeDegrees>43.44676435925066471099853515625</LatitudeDegrees>
              <LongitudeDegrees>-5.6760100834071636199951171875</LongitudeDegrees>
            </Position>
            <AltitudeMeters>316.399993896484375</AltitudeMeters>
            <DistanceMeters>9826.3899646116</DistanceMeters>
          </Trackpoint>
          <Trackpoint>
            <Time>2019-10-04T09:47:01.000Z</Time>
            <Position>
              <LatitudeDegrees>43.44667936675250530242919921875</LatitudeDegrees>
              <LongitudeDegrees>-5.676096417009830474853515625</LongitudeDegrees>
            </Position>
            <AltitudeMeters>315.79998779296875</AltitudeMeters>
            <DistanceMeters>9838.1437359007</DistanceMeters>
          </Trackpoint>
          <Trackpoint>
            <Time>2019-10-04T09:47:03.000Z</Time>
            <Position>
              <LatitudeDegrees>43.44660325907170772552490234375</LatitudeDegrees>
              <LongitudeDegrees>-5.676211751997470855712890625</LongitudeDegrees>
            </Position>
            <AltitudeMeters>315.20001220703125</AltitudeMeters>
            <DistanceMeters>9850.7375543312</DistanceMeters>
          </Trackpoint>
          <Trackpoint>
            <Time>2019-10-04T09:47:05.000Z</Time>
            <Position>
              <LatitudeDegrees>43.44653251580893993377685546875</LatitudeDegrees>
              <LongitudeDegrees>-5.6763522326946258544921875</LongitudeDegrees>
            </Position>
            <AltitudeMeters>314.79998779296875</AltitudeMeters>
            <DistanceMeters>9864.552752329</DistanceMeters>
          </Trackpoint>
          <Trackpoint>
            <Time>2019-10-04T09:47:06.000Z</Time>
            <Position>
              <LatitudeDegrees>43.4464999102056026458740234375</LatitudeDegrees>
              <LongitudeDegrees>-5.67643077112734317779541015625</LongitudeDegrees>
            </Position>
            <AltitudeMeters>314.399993896484375</AltitudeMeters>
            <DistanceMeters>9871.8630185619</DistanceMeters>
          </Trackpoint>
          <Trackpoint>
            <Time>2019-10-04T09:47:07.000Z</Time>
            <Position>
              <LatitudeDegrees>43.446469567716121673583984375</LatitudeDegrees>
              <LongitudeDegrees>-5.67651157267391681671142578125</LongitudeDegrees>
            </Position>
            <AltitudeMeters>313.600006103515625</AltitudeMeters>
            <DistanceMeters>9879.2145495261</DistanceMeters>
          </Trackpoint>
          <Trackpoint>
            <Time>2019-10-04T09:47:10.000Z</Time>
            <Position>
              <LatitudeDegrees>43.4463590942323207855224609375</LatitudeDegrees>
              <LongitudeDegrees>-5.676749534904956817626953125</LongitudeDegrees>
            </Position>
            <AltitudeMeters>312.600006103515625</AltitudeMeters>
            <DistanceMeters>9902.0387715293</DistanceMeters>
          </Trackpoint>
          <Trackpoint>
            <Time>2019-10-04T09:47:11.000Z</Time>
            <Position>
              <LatitudeDegrees>43.44630452804267406463623046875</LatitudeDegrees>
              <LongitudeDegrees>-5.6768123991787433624267578125</LongitudeDegrees>
            </Position>
            <AltitudeMeters>312.600006103515625</AltitudeMeters>
            <DistanceMeters>9909.9562705456</DistanceMeters>
          </Trackpoint>
          <Trackpoint>
            <Time>2019-10-04T09:47:13.000Z</Time>
            <Position>
              <LatitudeDegrees>43.44616756774485111236572265625</LatitudeDegrees>
              <LongitudeDegrees>-5.676879622042179107666015625</LongitudeDegrees>
            </Position>
            <AltitudeMeters>311.600006103515625</AltitudeMeters>
            <DistanceMeters>9926.139294893</DistanceMeters>
          </Trackpoint>
          <Trackpoint>
            <Time>2019-10-04T09:47:14.000Z</Time>
            <Position>
              <LatitudeDegrees>43.4460902027785778045654296875</LatitudeDegrees>
              <LongitudeDegrees>-5.67687635309994220733642578125</LongitudeDegrees>
            </Position>
            <AltitudeMeters>311.20001220703125</AltitudeMeters>
            <DistanceMeters>9934.7548174175</DistanceMeters>
          </Trackpoint>
          <Trackpoint>
            <Time>2019-10-04T09:47:17.000Z</Time>
            <Position>
              <LatitudeDegrees>43.445868082344532012939453125</LatitudeDegrees>
              <LongitudeDegrees>-5.67679270170629024505615234375</LongitudeDegrees>
            </Position>
            <AltitudeMeters>310.20001220703125</AltitudeMeters>
            <DistanceMeters>9960.3845634334</DistanceMeters>
          </Trackpoint>
          <Trackpoint>
            <Time>2019-10-04T09:47:20.000Z</Time>
            <Position>
              <LatitudeDegrees>43.4456395916640758514404296875</LatitudeDegrees>
              <LongitudeDegrees>-5.6767094694077968597412109375</LongitudeDegrees>
            </Position>
            <AltitudeMeters>309</AltitudeMeters>
            <DistanceMeters>9986.6903198006</DistanceMeters>
          </Trackpoint>
          <Trackpoint>
            <Time>2019-10-04T09:47:23.000Z</Time>
            <Position>
              <LatitudeDegrees>43.44539039768278598785400390625</LatitudeDegrees>
              <LongitudeDegrees>-5.67663679830729961395263671875</LongitudeDegrees>
            </Position>
            <AltitudeMeters>307.600006103515625</AltitudeMeters>
            <DistanceMeters>10015.040787947</DistanceMeters>
          </Trackpoint>
          <Trackpoint>
            <Time>2019-10-04T09:47:24.000Z</Time>
            <Position>
              <LatitudeDegrees>43.44529970549046993255615234375</LatitudeDegrees>
              <LongitudeDegrees>-5.676626823842525482177734375</LongitudeDegrees>
            </Position>
            <AltitudeMeters>306.79998779296875</AltitudeMeters>
            <DistanceMeters>10025.167265523</DistanceMeters>
          </Trackpoint>
          <Trackpoint>
            <Time>2019-10-04T09:47:25.000Z</Time>
            <Position>
              <LatitudeDegrees>43.44520683400332927703857421875</LatitudeDegrees>
              <LongitudeDegrees>-5.676631517708301544189453125</LongitudeDegrees>
            </Position>
            <AltitudeMeters>306.600006103515625</AltitudeMeters>
            <DistanceMeters>10035.511219109</DistanceMeters>
          </Trackpoint>
          <Trackpoint>
            <Time>2019-10-04T09:47:27.000Z</Time>
            <Position>
              <LatitudeDegrees>43.44502008520066738128662109375</LatitudeDegrees>
              <LongitudeDegrees>-5.6766678951680660247802734375</LongitudeDegrees>
            </Position>
            <AltitudeMeters>306.399993896484375</AltitudeMeters>
            <DistanceMeters>10056.5037366</DistanceMeters>
          </Trackpoint>
          <Trackpoint>
            <Time>2019-10-04T09:47:28.000Z</Time>
            <Position>
              <LatitudeDegrees>43.444923944771289825439453125</LatitudeDegrees>
              <LongitudeDegrees>-5.6766806356608867645263671875</LongitudeDegrees>
            </Position>
            <AltitudeMeters>306.20001220703125</AltitudeMeters>
            <DistanceMeters>10067.253942102</DistanceMeters>
          </Trackpoint>
          <Trackpoint>
            <Time>2019-10-04T09:47:30.000Z</Time>
            <Position>
              <LatitudeDegrees>43.4447293169796466827392578125</LatitudeDegrees>
              <LongitudeDegrees>-5.67666563205420970916748046875</LongitudeDegrees>
            </Position>
            <AltitudeMeters>305</AltitudeMeters>
            <DistanceMeters>10088.950644964</DistanceMeters>
          </Trackpoint>
          <Trackpoint>
            <Time>2019-10-04T09:47:32.000Z</Time>
            <Position>
              <LatitudeDegrees>43.44453862868249416351318359375</LatitudeDegrees>
              <LongitudeDegrees>-5.67658089101314544677734375</LongitudeDegrees>
            </Position>
            <AltitudeMeters>303.600006103515625</AltitudeMeters>
            <DistanceMeters>10111.25197946</DistanceMeters>
          </Trackpoint>
          <Trackpoint>
            <Time>2019-10-04T09:47:34.000Z</Time>
            <Position>
              <LatitudeDegrees>43.44436579383909702301025390625</LatitudeDegrees>
              <LongitudeDegrees>-5.67648089490830898284912109375</LongitudeDegrees>
            </Position>
            <AltitudeMeters>302.79998779296875</AltitudeMeters>
            <DistanceMeters>10132.116782008</DistanceMeters>
          </Trackpoint>
          <Trackpoint>
            <Time>2019-10-04T09:47:35.000Z</Time>
            <Position>
              <LatitudeDegrees>43.444275520741939544677734375</LatitudeDegrees>
              <LongitudeDegrees>-5.6764452718198299407958984375</LongitudeDegrees>
            </Position>
            <AltitudeMeters>302</AltitudeMeters>
            <DistanceMeters>10142.568856674</DistanceMeters>
          </Trackpoint>
          <Trackpoint>
            <Time>2019-10-04T09:47:36.000Z</Time>
            <Position>
              <LatitudeDegrees>43.4441801346838474273681640625</LatitudeDegrees>
              <LongitudeDegrees>-5.67644367925822734832763671875</LongitudeDegrees>
            </Position>
            <AltitudeMeters>301</AltitudeMeters>
            <DistanceMeters>10153.185939336</DistanceMeters>
          </Trackpoint>
          <Trackpoint>
            <Time>2019-10-04T09:47:38.000Z</Time>
            <Position>
              <LatitudeDegrees>43.44399615190923213958740234375</LatitudeDegrees>
              <LongitudeDegrees>-5.6765233911573886871337890625</LongitudeDegrees>
            </Position>
            <AltitudeMeters>299.600006103515625</AltitudeMeters>
            <DistanceMeters>10174.652724402</DistanceMeters>
          </Trackpoint>
          <Trackpoint>
            <Time>2019-10-04T09:47:39.000Z</Time>
            <Position>
              <LatitudeDegrees>43.443916775286197662353515625</LatitudeDegrees>
              <LongitudeDegrees>-5.67660025320947170257568359375</LongitudeDegrees>
            </Position>
            <AltitudeMeters>299.600006103515625</AltitudeMeters>
            <DistanceMeters>10185.452375663</DistanceMeters>
          </Trackpoint>
          <Trackpoint>
            <Time>2019-10-04T09:47:41.000Z</Time>
            <Position>
              <LatitudeDegrees>43.443775288760662078857421875</LatitudeDegrees>
              <LongitudeDegrees>-5.6767936237156391143798828125</LongitudeDegrees>
            </Position>
            <AltitudeMeters>298.79998779296875</AltitudeMeters>
            <DistanceMeters>10207.637399587</DistanceMeters>
          </Trackpoint>
          <Trackpoint>
            <Time>2019-10-04T09:47:42.000Z</Time>
            <Position>
              <LatitudeDegrees>43.4437166154384613037109375</LatitudeDegrees>
              <LongitudeDegrees>-5.6769062764942646026611328125</LongitudeDegrees>
            </Position>
            <AltitudeMeters>298.20001220703125</AltitudeMeters>
            <DistanceMeters>10218.840883981</DistanceMeters>
          </Trackpoint>
          <Trackpoint>
            <Time>2019-10-04T09:47:43.000Z</Time>
            <Position>
              <LatitudeDegrees>43.44366791658103466033935546875</LatitudeDegrees>
              <LongitudeDegrees>-5.67702722735702991485595703125</LongitudeDegrees>
            </Position>
            <AltitudeMeters>297</AltitudeMeters>
            <DistanceMeters>10230.016930571</DistanceMeters>
          </Trackpoint>
          <Trackpoint>
            <Time>2019-10-04T09:47:45.000Z</Time>
            <Position>
              <LatitudeDegrees>43.4435893781483173370361328125</LatitudeDegrees>
              <LongitudeDegrees>-5.67728723399341106414794921875</LongitudeDegrees>
            </Position>
            <AltitudeMeters>296</AltitudeMeters>
            <DistanceMeters>10252.773993521</DistanceMeters>
          </Trackpoint>
          <Trackpoint>
            <Time>2019-10-04T09:47:46.000Z</Time>
            <Position>
              <LatitudeDegrees>43.44355098903179168701171875</LatitudeDegrees>
              <LongitudeDegrees>-5.67741572856903076171875</LongitudeDegrees>
            </Position>
            <AltitudeMeters>295.600006103515625</AltitudeMeters>
            <DistanceMeters>10264.002838403</DistanceMeters>
          </Trackpoint>
          <Trackpoint>
            <Time>2019-10-04T09:47:48.000Z</Time>
            <Position>
              <LatitudeDegrees>43.44346457161009311676025390625</LatitudeDegrees>
              <LongitudeDegrees>-5.677669532597064971923828125</LongitudeDegrees>
            </Position>
            <AltitudeMeters>294.600006103515625</AltitudeMeters>
            <DistanceMeters>10286.656298278</DistanceMeters>
          </Trackpoint>
          <Trackpoint>
            <Time>2019-10-04T09:47:51.000Z</Time>
            <Position>
              <LatitudeDegrees>43.4433630667626857757568359375</LatitudeDegrees>
              <LongitudeDegrees>-5.67807027138769626617431640625</LongitudeDegrees>
            </Position>
            <AltitudeMeters>293.399993896484375</AltitudeMeters>
            <DistanceMeters>10320.954624019</DistanceMeters>
          </Trackpoint>
          <Trackpoint>
            <Time>2019-10-04T09:47:53.000Z</Time>
            <Position>
              <LatitudeDegrees>43.44336130656301975250244140625</LatitudeDegrees>
              <LongitudeDegrees>-5.678363554179668426513671875</LongitudeDegrees>
            </Position>
            <AltitudeMeters>291.20001220703125</AltitudeMeters>
            <DistanceMeters>10344.655932537</DistanceMeters>
          </Trackpoint>
          <Trackpoint>
            <Time>2019-10-04T09:47:54.000Z</Time>
            <Position>
              <LatitudeDegrees>43.4433853626251220703125</LatitudeDegrees>
              <LongitudeDegrees>-5.67850403487682342529296875</LongitudeDegrees>
            </Position>
            <AltitudeMeters>290.79998779296875</AltitudeMeters>
            <DistanceMeters>10356.319856907</DistanceMeters>
          </Trackpoint>
          <Trackpoint>
            <Time>2019-10-04T09:47:55.000Z</Time>
            <Position>
              <LatitudeDegrees>43.44341193325817584991455078125</LatitudeDegrees>
              <LongitudeDegrees>-5.67864208482205867767333984375</LongitudeDegrees>
            </Position>
            <AltitudeMeters>290.79998779296875</AltitudeMeters>
            <DistanceMeters>10367.860811268</DistanceMeters>
          </Trackpoint>
          <Trackpoint>
            <Time>2019-10-04T09:47:56.000Z</Time>
            <Position>
              <LatitudeDegrees>43.44342718832194805145263671875</LatitudeDegrees>
              <LongitudeDegrees>-5.67878508009016513824462890625</LongitudeDegrees>
            </Position>
            <AltitudeMeters>291.20001220703125</AltitudeMeters>
            <DistanceMeters>10379.540982282</DistanceMeters>
          </Trackpoint>
          <Trackpoint>
            <Time>2019-10-04T09:47:58.000Z</Time>
            <Position>
              <LatitudeDegrees>43.443405814468860626220703125</LatitudeDegrees>
              <LongitudeDegrees>-5.6790681369602680206298828125</LongitudeDegrees>
            </Position>
            <AltitudeMeters>289.79998779296875</AltitudeMeters>
            <DistanceMeters>10402.538625146</DistanceMeters>
          </Trackpoint>
          <Trackpoint>
            <Time>2019-10-04T09:48:00.000Z</Time>
            <Position>
              <LatitudeDegrees>43.44330556690692901611328125</LatitudeDegrees>
              <LongitudeDegrees>-5.67931297235190868377685546875</LongitudeDegrees>
            </Position>
            <AltitudeMeters>288.20001220703125</AltitudeMeters>
            <DistanceMeters>10425.25338924</DistanceMeters>
          </Trackpoint>
          <Trackpoint>
            <Time>2019-10-04T09:48:01.000Z</Time>
            <Position>
              <LatitudeDegrees>43.44322820194065570831298828125</LatitudeDegrees>
              <LongitudeDegrees>-5.67940123379230499267578125</LongitudeDegrees>
            </Position>
            <AltitudeMeters>287.79998779296875</AltitudeMeters>
            <DistanceMeters>10436.434686498</DistanceMeters>
          </Trackpoint>
          <Trackpoint>
            <Time>2019-10-04T09:48:04.000Z</Time>
            <Position>
              <LatitudeDegrees>43.44296283088624477386474609375</LatitudeDegrees>
              <LongitudeDegrees>-5.67962477914988994598388671875</LongitudeDegrees>
            </Position>
            <AltitudeMeters>287</AltitudeMeters>
            <DistanceMeters>10471.057549579</DistanceMeters>
          </Trackpoint>
          <Trackpoint>
            <Time>2019-10-04T09:48:05.000Z</Time>
            <Position>
              <LatitudeDegrees>43.4428770840167999267578125</LatitudeDegrees>
              <LongitudeDegrees>-5.6797048263251781463623046875</LongitudeDegrees>
            </Position>
            <AltitudeMeters>285.79998779296875</AltitudeMeters>
            <DistanceMeters>10482.586761402</DistanceMeters>
          </Trackpoint>
          <Trackpoint>
            <Time>2019-10-04T09:48:07.000Z</Time>
            <Position>
              <LatitudeDegrees>43.44270584173500537872314453125</LatitudeDegrees>
              <LongitudeDegrees>-5.679873637855052947998046875</LongitudeDegrees>
            </Position>
            <AltitudeMeters>284.79998779296875</AltitudeMeters>
            <DistanceMeters>10506.025442907</DistanceMeters>
          </Trackpoint>
          <Trackpoint>
            <Time>2019-10-04T09:48:10.000Z</Time>
            <Position>
              <LatitudeDegrees>43.44244264997541904449462890625</LatitudeDegrees>
              <LongitudeDegrees>-5.6801185570657253265380859375</LongitudeDegrees>
            </Position>
            <AltitudeMeters>283.79998779296875</AltitudeMeters>
            <DistanceMeters>10541.378829035</DistanceMeters>
          </Trackpoint>
          <Trackpoint>
            <Time>2019-10-04T09:48:11.000Z</Time>
            <Position>
              <LatitudeDegrees>43.44235396943986415863037109375</LatitudeDegrees>
              <LongitudeDegrees>-5.6802037172019481658935546875</LongitudeDegrees>
            </Position>
            <AltitudeMeters>283.600006103515625</AltitudeMeters>
            <DistanceMeters>10553.411627782</DistanceMeters>
          </Trackpoint>
          <Trackpoint>
            <Time>2019-10-04T09:48:13.000Z</Time>
            <Position>
              <LatitudeDegrees>43.4421768598258495330810546875</LatitudeDegrees>
              <LongitudeDegrees>-5.68037445656955242156982421875</LongitudeDegrees>
            </Position>
            <AltitudeMeters>282.20001220703125</AltitudeMeters>
            <DistanceMeters>10577.473285065</DistanceMeters>
          </Trackpoint>
          <Trackpoint>
            <Time>2019-10-04T09:48:15.000Z</Time>
            <Position>
              <LatitudeDegrees>43.44199673272669315338134765625</LatitudeDegrees>
              <LongitudeDegrees>-5.680545531213283538818359375</LongitudeDegrees>
            </Position>
            <AltitudeMeters>281</AltitudeMeters>
            <DistanceMeters>10601.82627935</DistanceMeters>
          </Trackpoint>
          <Trackpoint>
            <Time>2019-10-04T09:48:19.000Z</Time>
            <Position>
              <LatitudeDegrees>43.4416404180228710174560546875</LatitudeDegrees>
              <LongitudeDegrees>-5.6808913685381412506103515625</LongitudeDegrees>
            </Position>
            <AltitudeMeters>279</AltitudeMeters>
            <DistanceMeters>10650.343350026</DistanceMeters>
          </Trackpoint>
          <Trackpoint>
            <Time>2019-10-04T09:48:20.000Z</Time>
            <Position>
              <LatitudeDegrees>43.4415529109537601470947265625</LatitudeDegrees>
              <LongitudeDegrees>-5.680978037416934967041015625</LongitudeDegrees>
            </Position>
            <AltitudeMeters>278.20001220703125</AltitudeMeters>
            <DistanceMeters>10662.340072843</DistanceMeters>
          </Trackpoint>
          <Trackpoint>
            <Time>2019-10-04T09:48:21.000Z</Time>
            <Position>
              <LatitudeDegrees>43.44146548770368099212646484375</LatitudeDegrees>
              <LongitudeDegrees>-5.68106462247669696807861328125</LongitudeDegrees>
            </Position>
            <AltitudeMeters>277.79998779296875</AltitudeMeters>
            <DistanceMeters>10674.324746219</DistanceMeters>
          </Trackpoint>
          <Trackpoint>
            <Time>2019-10-04T09:48:26.000Z</Time>
            <Position>
              <LatitudeDegrees>43.44099945388734340667724609375</LatitudeDegrees>
              <LongitudeDegrees>-5.6814371980726718902587890625</LongitudeDegrees>
            </Position>
            <AltitudeMeters>277.20001220703125</AltitudeMeters>
            <DistanceMeters>10734.300757435</DistanceMeters>
          </Trackpoint>
          <Trackpoint>
            <Time>2019-10-04T09:48:27.000Z</Time>
            <Position>
              <LatitudeDegrees>43.440898954868316650390625</LatitudeDegrees>
              <LongitudeDegrees>-5.68149729631841182708740234375</LongitudeDegrees>
            </Position>
            <AltitudeMeters>276.399993896484375</AltitudeMeters>
            <DistanceMeters>10746.495317652</DistanceMeters>
          </Trackpoint>
          <Trackpoint>
            <Time>2019-10-04T09:48:29.000Z</Time>
            <Position>
              <LatitudeDegrees>43.44069552607834339141845703125</LatitudeDegrees>
              <LongitudeDegrees>-5.68160911090672016143798828125</LongitudeDegrees>
            </Position>
            <AltitudeMeters>275.20001220703125</AltitudeMeters>
            <DistanceMeters>10770.874068875</DistanceMeters>
          </Trackpoint>
          <Trackpoint>
            <Time>2019-10-04T09:48:34.000Z</Time>
            <Position>
              <LatitudeDegrees>43.4401712380349636077880859375</LatitudeDegrees>
              <LongitudeDegrees>-5.68185084499418735504150390625</LongitudeDegrees>
            </Position>
            <AltitudeMeters>274.399993896484375</AltitudeMeters>
            <DistanceMeters>10832.411625844</DistanceMeters>
          </Trackpoint>
          <Trackpoint>
            <Time>2019-10-04T09:48:36.000Z</Time>
            <Position>
              <LatitudeDegrees>43.43995993025600910186767578125</LatitudeDegrees>
              <LongitudeDegrees>-5.68193751387298107147216796875</LongitudeDegrees>
            </Position>
            <AltitudeMeters>274</AltitudeMeters>
            <DistanceMeters>10856.951343404</DistanceMeters>
          </Trackpoint>
          <Trackpoint>
            <Time>2019-10-04T09:48:41.000Z</Time>
            <Position>
              <LatitudeDegrees>43.43941125087440013885498046875</LatitudeDegrees>
              <LongitudeDegrees>-5.68211789242923259735107421875</LongitudeDegrees>
            </Position>
            <AltitudeMeters>273.79998779296875</AltitudeMeters>
            <DistanceMeters>10919.736249396</DistanceMeters>
          </Trackpoint>
          <Trackpoint>
            <Time>2019-10-04T09:48:43.000Z</Time>
            <Position>
              <LatitudeDegrees>43.43918326310813426971435546875</LatitudeDegrees>
              <LongitudeDegrees>-5.6821811757981777191162109375</LongitudeDegrees>
            </Position>
            <AltitudeMeters>274</AltitudeMeters>
            <DistanceMeters>10945.6219171</DistanceMeters>
          </Trackpoint>
          <Trackpoint>
            <Time>2019-10-04T09:48:44.000Z</Time>
            <Position>
              <LatitudeDegrees>43.439074717462062835693359375</LatitudeDegrees>
              <LongitudeDegrees>-5.68223088048398494720458984375</LongitudeDegrees>
            </Position>
            <AltitudeMeters>274</AltitudeMeters>
            <DistanceMeters>10958.353369184</DistanceMeters>
          </Trackpoint>
          <Trackpoint>
            <Time>2019-10-04T09:48:47.000Z</Time>
            <Position>
              <LatitudeDegrees>43.43876131810247898101806640625</LatitudeDegrees>
              <LongitudeDegrees>-5.68242735229432582855224609375</LongitudeDegrees>
            </Position>
            <AltitudeMeters>274</AltitudeMeters>
            <DistanceMeters>10996.679187566</DistanceMeters>
          </Trackpoint>
          <Trackpoint>
            <Time>2019-10-04T09:48:52.000Z</Time>
            <Position>
              <LatitudeDegrees>43.4383134730160236358642578125</LatitudeDegrees>
              <LongitudeDegrees>-5.68272993899881839752197265625</LongitudeDegrees>
            </Position>
            <AltitudeMeters>274</AltitudeMeters>
            <DistanceMeters>11052.200817371</DistanceMeters>
          </Trackpoint>
          <Trackpoint>
            <Time>2019-10-04T09:48:53.000Z</Time>
            <Position>
              <LatitudeDegrees>43.43824021518230438232421875</LatitudeDegrees>
              <LongitudeDegrees>-5.68281970918178558349609375</LongitudeDegrees>
            </Position>
            <AltitudeMeters>274.20001220703125</AltitudeMeters>
            <DistanceMeters>11063.115660408</DistanceMeters>
          </Trackpoint>
          <Trackpoint>
            <Time>2019-10-04T09:48:55.000Z</Time>
            <Position>
              <LatitudeDegrees>43.43815513886511325836181640625</LatitudeDegrees>
              <LongitudeDegrees>-5.68306152708828449249267578125</LongitudeDegrees>
            </Position>
            <AltitudeMeters>274.20001220703125</AltitudeMeters>
            <DistanceMeters>11084.83233148</DistanceMeters>
          </Trackpoint>
          <Trackpoint>
            <Time>2019-10-04T09:48:58.000Z</Time>
            <Position>
              <LatitudeDegrees>43.438130915164947509765625</LatitudeDegrees>
              <LongitudeDegrees>-5.6834713183343410491943359375</LongitudeDegrees>
            </Position>
            <AltitudeMeters>274.399993896484375</AltitudeMeters>
            <DistanceMeters>11118.060443776</DistanceMeters>
          </Trackpoint>
          <Trackpoint>
            <Time>2019-10-04T09:49:02.000Z</Time>
            <Position>
              <LatitudeDegrees>43.4380201064050197601318359375</LatitudeDegrees>
              <LongitudeDegrees>-5.683995522558689117431640625</LongitudeDegrees>
            </Position>
            <AltitudeMeters>274</AltitudeMeters>
            <DistanceMeters>11162.184367011</DistanceMeters>
          </Trackpoint>
          <Trackpoint>
            <Time>2019-10-04T09:49:03.000Z</Time>
            <Position>
              <LatitudeDegrees>43.43795330263674259185791015625</LatitudeDegrees>
              <LongitudeDegrees>-5.68410038016736507415771484375</LongitudeDegrees>
            </Position>
            <AltitudeMeters>273.600006103515625</AltitudeMeters>
            <DistanceMeters>11173.457755848</DistanceMeters>
          </Trackpoint>
          <Trackpoint>
            <Time>2019-10-04T09:49:04.000Z</Time>
            <Position>
              <LatitudeDegrees>43.43786998651921749114990234375</LatitudeDegrees>
              <LongitudeDegrees>-5.68417883478105068206787109375</LongitudeDegrees>
            </Position>
            <AltitudeMeters>273.600006103515625</AltitudeMeters>
            <DistanceMeters>11184.691022881</DistanceMeters>
          </Trackpoint>
          <Trackpoint>
            <Time>2019-10-04T09:49:05.000Z</Time>
            <Position>
              <LatitudeDegrees>43.437785245478153228759765625</LatitudeDegrees>
              <LongitudeDegrees>-5.684230886399745941162109375</LongitudeDegrees>
            </Position>
            <AltitudeMeters>272.79998779296875</AltitudeMeters>
            <DistanceMeters>11195.017939304</DistanceMeters>
          </Trackpoint>
          <Trackpoint>
            <Time>2019-10-04T09:49:06.000Z</Time>
            <Position>
              <LatitudeDegrees>43.4376901946961879730224609375</LatitudeDegrees>
              <LongitudeDegrees>-5.68424991331994533538818359375</LongitudeDegrees>
            </Position>
            <AltitudeMeters>272.399993896484375</AltitudeMeters>
            <DistanceMeters>11205.708339085</DistanceMeters>
          </Trackpoint>
          <Trackpoint>
            <Time>2019-10-04T09:49:07.000Z</Time>
            <Position>
              <LatitudeDegrees>43.437594138085842132568359375</LatitudeDegrees>
              <LongitudeDegrees>-5.6842310540378093719482421875</LongitudeDegrees>
            </Position>
            <AltitudeMeters>272.20001220703125</AltitudeMeters>
            <DistanceMeters>11216.507990345</DistanceMeters>
          </Trackpoint>
          <Trackpoint>
            <Time>2019-10-04T09:49:08.000Z</Time>
            <Position>
              <LatitudeDegrees>43.43750319443643093109130859375</LatitudeDegrees>
              <LongitudeDegrees>-5.68417749367654323577880859375</LongitudeDegrees>
            </Position>
            <AltitudeMeters>271.79998779296875</AltitudeMeters>
            <DistanceMeters>11227.516743951</DistanceMeters>
          </Trackpoint>
          <Trackpoint>
            <Time>2019-10-04T09:49:09.000Z</Time>
            <Position>
              <LatitudeDegrees>43.43742172233760356903076171875</LatitudeDegrees>
              <LongitudeDegrees>-5.68410540930926799774169921875</LongitudeDegrees>
            </Position>
            <AltitudeMeters>271.79998779296875</AltitudeMeters>
            <DistanceMeters>11238.294633511</DistanceMeters>
          </Trackpoint>
          <Trackpoint>
            <Time>2019-10-04T09:49:10.000Z</Time>
            <Position>
              <LatitudeDegrees>43.43735131435096263885498046875</LatitudeDegrees>
              <LongitudeDegrees>-5.6840131245553493499755859375</LongitudeDegrees>
            </Position>
            <AltitudeMeters>271.399993896484375</AltitudeMeters>
            <DistanceMeters>11249.113499019</DistanceMeters>
          </Trackpoint>
          <Trackpoint>
            <Time>2019-10-04T09:49:12.000Z</Time>
            <Position>
              <LatitudeDegrees>43.43722642399370670318603515625</LatitudeDegrees>
              <LongitudeDegrees>-5.6838060915470123291015625</LongitudeDegrees>
            </Position>
            <AltitudeMeters>270.79998779296875</AltitudeMeters>
            <DistanceMeters>11270.86652331</DistanceMeters>
          </Trackpoint>
          <Trackpoint>
            <Time>2019-10-04T09:49:13.000Z</Time>
            <Position>
              <LatitudeDegrees>43.43716456554830074310302734375</LatitudeDegrees>
              <LongitudeDegrees>-5.68369821645319461822509765625</LongitudeDegrees>
            </Position>
            <AltitudeMeters>270.600006103515625</AltitudeMeters>
            <DistanceMeters>11281.97611758</DistanceMeters>
          </Trackpoint>
          <Trackpoint>
            <Time>2019-10-04T09:49:15.000Z</Time>
            <Position>
              <LatitudeDegrees>43.4370379149913787841796875</LatitudeDegrees>
              <LongitudeDegrees>-5.68347282707691192626953125</LongitudeDegrees>
            </Position>
            <AltitudeMeters>270.20001220703125</AltitudeMeters>
            <DistanceMeters>11305.009464085</DistanceMeters>
          </Trackpoint>
          <Trackpoint>
            <Time>2019-10-04T09:49:19.000Z</Time>
            <Position>
              <LatitudeDegrees>43.43679006211459636688232421875</LatitudeDegrees>
              <LongitudeDegrees>-5.6830475293099880218505859375</LongitudeDegrees>
            </Position>
            <AltitudeMeters>270</AltitudeMeters>
            <DistanceMeters>11349.083116465</DistanceMeters>
          </Trackpoint>
          <Trackpoint>
            <Time>2019-10-04T09:49:21.000Z</Time>
            <Position>
              <LatitudeDegrees>43.436617814004421234130859375</LatitudeDegrees>
              <LongitudeDegrees>-5.68294837139546871185302734375</LongitudeDegrees>
            </Position>
            <AltitudeMeters>269.399993896484375</AltitudeMeters>
            <DistanceMeters>11369.862267197</DistanceMeters>
          </Trackpoint>
          <Trackpoint>
            <Time>2019-10-04T09:49:22.000Z</Time>
            <Position>
              <LatitudeDegrees>43.43651899136602878570556640625</LatitudeDegrees>
              <LongitudeDegrees>-5.682960189878940582275390625</LongitudeDegrees>
            </Position>
            <AltitudeMeters>269</AltitudeMeters>
            <DistanceMeters>11380.902555773</DistanceMeters>
          </Trackpoint>
          <Trackpoint>
            <Time>2019-10-04T09:49:24.000Z</Time>
            <Position>
              <LatitudeDegrees>43.43633894808590412139892578125</LatitudeDegrees>
              <LongitudeDegrees>-5.6830740161240100860595703125</LongitudeDegrees>
            </Position>
            <AltitudeMeters>269</AltitudeMeters>
            <DistanceMeters>11402.95243958</DistanceMeters>
          </Trackpoint>
          <Trackpoint>
            <Time>2019-10-04T09:49:25.000Z</Time>
            <Position>
              <LatitudeDegrees>43.43625378794968128204345703125</LatitudeDegrees>
              <LongitudeDegrees>-5.68314157426357269287109375</LongitudeDegrees>
            </Position>
            <AltitudeMeters>268.79998779296875</AltitudeMeters>
            <DistanceMeters>11413.890835847</DistanceMeters>
          </Trackpoint>
          <Trackpoint>
            <Time>2019-10-04T09:49:27.000Z</Time>
            <Position>
              <LatitudeDegrees>43.43607894144952297210693359375</LatitudeDegrees>
              <LongitudeDegrees>-5.68327358923852443695068359375</LongitudeDegrees>
            </Position>
            <AltitudeMeters>268</AltitudeMeters>
            <DistanceMeters>11436.084812729</DistanceMeters>
          </Trackpoint>
          <Trackpoint>
            <Time>2019-10-04T09:49:30.000Z</Time>
            <Position>
              <LatitudeDegrees>43.43581826426088809967041015625</LatitudeDegrees>
              <LongitudeDegrees>-5.68348699249327182769775390625</LongitudeDegrees>
            </Position>
            <AltitudeMeters>267</AltitudeMeters>
            <DistanceMeters>11469.838162558</DistanceMeters>
          </Trackpoint>
          <Trackpoint>
            <Time>2019-10-04T09:49:33.000Z</Time>
            <Position>
              <LatitudeDegrees>43.435585834085941314697265625</LatitudeDegrees>
              <LongitudeDegrees>-5.68363468162715435028076171875</LongitudeDegrees>
            </Position>
            <AltitudeMeters>266.79998779296875</AltitudeMeters>
            <DistanceMeters>11498.329225398</DistanceMeters>
          </Trackpoint>
          <Trackpoint>
            <Time>2019-10-04T09:49:34.000Z</Time>
            <Position>
              <LatitudeDegrees>43.43551182188093662261962890625</LatitudeDegrees>
              <LongitudeDegrees>-5.683646835386753082275390625</LongitudeDegrees>
            </Position>
            <AltitudeMeters>266.600006103515625</AltitudeMeters>
            <DistanceMeters>11506.625443974</DistanceMeters>
          </Trackpoint>
          <Trackpoint>
            <Time>2019-10-04T09:49:37.000Z</Time>
            <Position>
              <LatitudeDegrees>43.43530244193971157073974609375</LatitudeDegrees>
              <LongitudeDegrees>-5.683518759906291961669921875</LongitudeDegrees>
            </Position>
            <AltitudeMeters>266</AltitudeMeters>
            <DistanceMeters>11532.12520367</DistanceMeters>
          </Trackpoint>
          <Trackpoint>
            <Time>2019-10-04T09:49:39.000Z</Time>
            <Position>
              <LatitudeDegrees>43.4352014400064945220947265625</LatitudeDegrees>
              <LongitudeDegrees>-5.68335724063217639923095703125</LongitudeDegrees>
            </Position>
            <AltitudeMeters>265.600006103515625</AltitudeMeters>
            <DistanceMeters>11549.352579919</DistanceMeters>
          </Trackpoint>
          <Trackpoint>
            <Time>2019-10-04T09:49:40.000Z</Time>
            <Position>
              <LatitudeDegrees>43.43516414053738117218017578125</LatitudeDegrees>
              <LongitudeDegrees>-5.68325833417475223541259765625</LongitudeDegrees>
            </Position>
            <AltitudeMeters>265.399993896484375</AltitudeMeters>
            <DistanceMeters>11558.359588677</DistanceMeters>
          </Trackpoint>
          <Trackpoint>
            <Time>2019-10-04T09:49:41.000Z</Time>
            <Position>
              <LatitudeDegrees>43.4351276792585849761962890625</LatitudeDegrees>
              <LongitudeDegrees>-5.683158338069915771484375</LongitudeDegrees>
            </Position>
            <AltitudeMeters>265.600006103515625</AltitudeMeters>
            <DistanceMeters>11567.40311688</DistanceMeters>
          </Trackpoint>
          <Trackpoint>
            <Time>2019-10-04T09:49:46.000Z</Time>
            <Position>
              <LatitudeDegrees>43.43495727516710758209228515625</LatitudeDegrees>
              <LongitudeDegrees>-5.6826063059270381927490234375</LongitudeDegrees>
            </Position>
            <AltitudeMeters>265.600006103515625</AltitudeMeters>
            <DistanceMeters>11615.883507728</DistanceMeters>
          </Trackpoint>
          <Trackpoint>
            <Time>2019-10-04T09:49:48.000Z</Time>
            <Position>
              <LatitudeDegrees>43.43486457131803035736083984375</LatitudeDegrees>
              <LongitudeDegrees>-5.68238443695008754730224609375</LongitudeDegrees>
            </Position>
            <AltitudeMeters>265.399993896484375</AltitudeMeters>
            <DistanceMeters>11636.572069626</DistanceMeters>
          </Trackpoint>
          <Trackpoint>
            <Time>2019-10-04T09:49:50.000Z</Time>
            <Position>
              <LatitudeDegrees>43.434723503887653350830078125</LatitudeDegrees>
              <LongitudeDegrees>-5.6822234205901622772216796875</LongitudeDegrees>
            </Position>
            <AltitudeMeters>265.399993896484375</AltitudeMeters>
            <DistanceMeters>11656.965431308</DistanceMeters>
          </Trackpoint>
          <Trackpoint>
            <Time>2019-10-04T09:49:52.000Z</Time>
            <Position>
              <LatitudeDegrees>43.4345318935811519622802734375</LatitudeDegrees>
              <LongitudeDegrees>-5.68217522464692592620849609375</LongitudeDegrees>
            </Position>
            <AltitudeMeters>265.600006103515625</AltitudeMeters>
            <DistanceMeters>11678.645063427</DistanceMeters>
          </Trackpoint>
          <Trackpoint>
            <Time>2019-10-04T09:49:54.000Z</Time>
            <Position>
              <LatitudeDegrees>43.4343357570469379425048828125</LatitudeDegrees>
              <LongitudeDegrees>-5.68226491101086139678955078125</LongitudeDegrees>
            </Position>
            <AltitudeMeters>265.600006103515625</AltitudeMeters>
            <DistanceMeters>11701.647417636</DistanceMeters>
          </Trackpoint>
          <Trackpoint>
            <Time>2019-10-04T09:49:57.000Z</Time>
            <Position>
              <LatitudeDegrees>43.43407818116247653961181640625</LatitudeDegrees>
              <LongitudeDegrees>-5.68253179080784320831298828125</LongitudeDegrees>
            </Position>
            <AltitudeMeters>265.399993896484375</AltitudeMeters>
            <DistanceMeters>11737.524501638</DistanceMeters>
          </Trackpoint>
          <Trackpoint>
            <Time>2019-10-04T09:50:01.000Z</Time>
            <Position>
              <LatitudeDegrees>43.4337084554135799407958984375</LatitudeDegrees>
              <LongitudeDegrees>-5.6828825734555721282958984375</LongitudeDegrees>
            </Position>
            <AltitudeMeters>265.399993896484375</AltitudeMeters>
            <DistanceMeters>11787.496809172</DistanceMeters>
          </Trackpoint>
          <Trackpoint>
            <Time>2019-10-04T09:50:04.000Z</Time>
            <Position>
              <LatitudeDegrees>43.43341517262160778045654296875</LatitudeDegrees>
              <LongitudeDegrees>-5.683162026107311248779296875</LongitudeDegrees>
            </Position>
            <AltitudeMeters>265.600006103515625</AltitudeMeters>
            <DistanceMeters>11827.192050942</DistanceMeters>
          </Trackpoint>
          <Trackpoint>
            <Time>2019-10-04T09:50:05.000Z</Time>
            <Position>
              <LatitudeDegrees>43.4333168528974056243896484375</LatitudeDegrees>
              <LongitudeDegrees>-5.683254562318325042724609375</LongitudeDegrees>
            </Position>
            <AltitudeMeters>265.600006103515625</AltitudeMeters>
            <DistanceMeters>11840.447170608</DistanceMeters>
          </Trackpoint>
          <Trackpoint>
            <Time>2019-10-04T09:50:06.000Z</Time>
            <Position>
              <LatitudeDegrees>43.43321937136352062225341796875</LatitudeDegrees>
              <LongitudeDegrees>-5.68334450013935565948486328125</LongitudeDegrees>
            </Position>
            <AltitudeMeters>265.600006103515625</AltitudeMeters>
            <DistanceMeters>11853.507727412</DistanceMeters>
          </Trackpoint>
          <Trackpoint>
            <Time>2019-10-04T09:50:08.000Z</Time>
            <Position>
              <LatitudeDegrees>43.433013260364532470703125</LatitudeDegrees>
              <LongitudeDegrees>-5.6834967993199825286865234375</LongitudeDegrees>
            </Position>
            <AltitudeMeters>265.79998779296875</AltitudeMeters>
            <DistanceMeters>11879.542272499</DistanceMeters>
          </Trackpoint>
          <Trackpoint>
            <Time>2019-10-04T09:50:10.000Z</Time>
            <Position>
              <LatitudeDegrees>43.432784266769886016845703125</LatitudeDegrees>
              <LongitudeDegrees>-5.6835754215717315673828125</LongitudeDegrees>
            </Position>
            <AltitudeMeters>265.600006103515625</AltitudeMeters>
            <DistanceMeters>11905.809897841</DistanceMeters>
          </Trackpoint>
          <Trackpoint>
            <Time>2019-10-04T09:50:12.000Z</Time>
            <Position>
              <LatitudeDegrees>43.4325514174997806549072265625</LatitudeDegrees>
              <LongitudeDegrees>-5.6835474260151386260986328125</LongitudeDegrees>
            </Position>
            <AltitudeMeters>265.399993896484375</AltitudeMeters>
            <DistanceMeters>11931.825185642</DistanceMeters>
          </Trackpoint>
          <Trackpoint>
            <Time>2019-10-04T09:50:13.000Z</Time>
            <Position>
              <LatitudeDegrees>43.4324404411017894744873046875</LatitudeDegrees>
              <LongitudeDegrees>-5.68350124172866344451904296875</LongitudeDegrees>
            </Position>
            <AltitudeMeters>265.399993896484375</AltitudeMeters>
            <DistanceMeters>11944.728539837</DistanceMeters>
          </Trackpoint>
          <Trackpoint>
            <Time>2019-10-04T09:50:16.000Z</Time>
            <Position>
              <LatitudeDegrees>43.43214347027242183685302734375</LatitudeDegrees>
              <LongitudeDegrees>-5.6832589209079742431640625</LongitudeDegrees>
            </Position>
            <AltitudeMeters>265.399993896484375</AltitudeMeters>
            <DistanceMeters>11983.149193089</DistanceMeters>
          </Trackpoint>
          <Trackpoint>
            <Time>2019-10-04T09:50:17.000Z</Time>
            <Position>
              <LatitudeDegrees>43.432047329843044281005859375</LatitudeDegrees>
              <LongitudeDegrees>-5.6831665523350238800048828125</LongitudeDegrees>
            </Position>
            <AltitudeMeters>265.600006103515625</AltitudeMeters>
            <DistanceMeters>11996.196952713</DistanceMeters>
          </Trackpoint>
          <Trackpoint>
            <Time>2019-10-04T09:50:19.000Z</Time>
            <Position>
              <LatitudeDegrees>43.43184188939630985260009765625</LatitudeDegrees>
              <LongitudeDegrees>-5.68302548490464687347412109375</LongitudeDegrees>
            </Position>
            <AltitudeMeters>265.20001220703125</AltitudeMeters>
            <DistanceMeters>12021.748008791</DistanceMeters>
          </Trackpoint>
          <Trackpoint>
            <Time>2019-10-04T09:50:20.000Z</Time>
            <Position>
              <LatitudeDegrees>43.43172890134155750274658203125</LatitudeDegrees>
              <LongitudeDegrees>-5.68298877216875553131103515625</LongitudeDegrees>
            </Position>
            <AltitudeMeters>264.79998779296875</AltitudeMeters>
            <DistanceMeters>12034.669196174</DistanceMeters>
          </Trackpoint>
          <Trackpoint>
            <Time>2019-10-04T09:50:22.000Z</Time>
            <Position>
              <LatitudeDegrees>43.43149974010884761810302734375</LatitudeDegrees>
              <LongitudeDegrees>-5.68301442079246044158935546875</LongitudeDegrees>
            </Position>
            <AltitudeMeters>265.399993896484375</AltitudeMeters>
            <DistanceMeters>12060.259451032</DistanceMeters>
          </Trackpoint>
          <Trackpoint>
            <Time>2019-10-04T09:50:24.000Z</Time>
            <Position>
              <LatitudeDegrees>43.43128717504441738128662109375</LatitudeDegrees>
              <LongitudeDegrees>-5.68314752541482448577880859375</LongitudeDegrees>
            </Position>
            <AltitudeMeters>264.79998779296875</AltitudeMeters>
            <DistanceMeters>12086.249561427</DistanceMeters>
          </Trackpoint>
          <Trackpoint>
            <Time>2019-10-04T09:50:25.000Z</Time>
            <Position>
              <LatitudeDegrees>43.43119631521403789520263671875</LatitudeDegrees>
              <LongitudeDegrees>-5.6832497008144855499267578125</LongitudeDegrees>
            </Position>
            <AltitudeMeters>265</AltitudeMeters>
            <DistanceMeters>12099.305969168</DistanceMeters>
          </Trackpoint>
          <Trackpoint>
            <Time>2019-10-04T09:50:26.000Z</Time>
            <Position>
              <LatitudeDegrees>43.43111920170485973358154296875</LatitudeDegrees>
              <LongitudeDegrees>-5.683368556201457977294921875</LongitudeDegrees>
            </Position>
            <AltitudeMeters>265</AltitudeMeters>
            <DistanceMeters>12112.188311536</DistanceMeters>
          </Trackpoint>
          <Trackpoint>
            <Time>2019-10-04T09:50:27.000Z</Time>
            <Position>
              <LatitudeDegrees>43.43105047009885311126708984375</LatitudeDegrees>
              <LongitudeDegrees>-5.68349369801580905914306640625</LongitudeDegrees>
            </Position>
            <AltitudeMeters>265</AltitudeMeters>
            <DistanceMeters>12124.870017315</DistanceMeters>
          </Trackpoint>
          <Trackpoint>
            <Time>2019-10-04T09:50:28.000Z</Time>
            <Position>
              <LatitudeDegrees>43.43098659999668598175048828125</LatitudeDegrees>
              <LongitudeDegrees>-5.68362303078174591064453125</LongitudeDegrees>
            </Position>
            <AltitudeMeters>265.20001220703125</AltitudeMeters>
            <DistanceMeters>12137.511785107</DistanceMeters>
          </Trackpoint>
          <Trackpoint>
            <Time>2019-10-04T09:50:29.000Z</Time>
            <Position>
              <LatitudeDegrees>43.4309253282845020294189453125</LatitudeDegrees>
              <LongitudeDegrees>-5.683751441538333892822265625</LongitudeDegrees>
            </Position>
            <AltitudeMeters>265</AltitudeMeters>
            <DistanceMeters>12149.930871453</DistanceMeters>
          </Trackpoint>
          <Trackpoint>
            <Time>2019-10-04T09:50:31.000Z</Time>
            <Position>
              <LatitudeDegrees>43.43080789782106876373291015625</LatitudeDegrees>
              <LongitudeDegrees>-5.68401337601244449615478515625</LongitudeDegrees>
            </Position>
            <AltitudeMeters>264.399993896484375</AltitudeMeters>
            <DistanceMeters>12174.811906815</DistanceMeters>
          </Trackpoint>
          <Trackpoint>
            <Time>2019-10-04T09:50:32.000Z</Time>
            <Position>
              <LatitudeDegrees>43.430763892829418182373046875</LatitudeDegrees>
              <LongitudeDegrees>-5.68415276706218719482421875</LongitudeDegrees>
            </Position>
            <AltitudeMeters>264.600006103515625</AltitudeMeters>
            <DistanceMeters>12187.096843429</DistanceMeters>
          </Trackpoint>
          <Trackpoint>
            <Time>2019-10-04T09:50:33.000Z</Time>
            <Position>
              <LatitudeDegrees>43.4307251684367656707763671875</LatitudeDegrees>
              <LongitudeDegrees>-5.68429601378738880157470703125</LongitudeDegrees>
            </Position>
            <AltitudeMeters>264.79998779296875</AltitudeMeters>
            <DistanceMeters>12199.45141271</DistanceMeters>
          </Trackpoint>
          <Trackpoint>
            <Time>2019-10-04T09:50:35.000Z</Time>
            <Position>
              <LatitudeDegrees>43.43065417371690273284912109375</LatitudeDegrees>
              <LongitudeDegrees>-5.684582926332950592041015625</LongitudeDegrees>
            </Position>
            <AltitudeMeters>265</AltitudeMeters>
            <DistanceMeters>12223.950987834</DistanceMeters>
          </Trackpoint>
          <Trackpoint>
            <Time>2019-10-04T09:50:36.000Z</Time>
            <Position>
              <LatitudeDegrees>43.43062014319002628326416015625</LatitudeDegrees>
              <LongitudeDegrees>-5.68472768180072307586669921875</LongitudeDegrees>
            </Position>
            <AltitudeMeters>264.79998779296875</AltitudeMeters>
            <DistanceMeters>12236.248781143</DistanceMeters>
          </Trackpoint>
          <Trackpoint>
            <Time>2019-10-04T09:50:37.000Z</Time>
            <Position>
              <LatitudeDegrees>43.43058141879737377166748046875</LatitudeDegrees>
              <LongitudeDegrees>-5.68487050943076610565185546875</LongitudeDegrees>
            </Position>
            <AltitudeMeters>264.600006103515625</AltitudeMeters>
            <DistanceMeters>12248.571514829</DistanceMeters>
          </Trackpoint>
          <Trackpoint>
            <Time>2019-10-04T09:50:39.000Z</Time>
            <Position>
              <LatitudeDegrees>43.43049441464245319366455078125</LatitudeDegrees>
              <LongitudeDegrees>-5.6851513870060443878173828125</LongitudeDegrees>
            </Position>
            <AltitudeMeters>264.20001220703125</AltitudeMeters>
            <DistanceMeters>12273.253229053</DistanceMeters>
          </Trackpoint>
          <Trackpoint>
            <Time>2019-10-04T09:50:41.000Z</Time>
            <Position>
              <LatitudeDegrees>43.43041277490556240081787109375</LatitudeDegrees>
              <LongitudeDegrees>-5.68542740307748317718505859375</LongitudeDegrees>
            </Position>
            <AltitudeMeters>264.600006103515625</AltitudeMeters>
            <DistanceMeters>12297.342641718</DistanceMeters>
          </Trackpoint>
          <Trackpoint>
            <Time>2019-10-04T09:50:43.000Z</Time>
            <Position>
              <LatitudeDegrees>43.43032727949321269989013671875</LatitudeDegrees>
              <LongitudeDegrees>-5.68570467643439769744873046875</LongitudeDegrees>
            </Position>
            <AltitudeMeters>264.20001220703125</AltitudeMeters>
            <DistanceMeters>12321.690629695</DistanceMeters>
          </Trackpoint>
          <Trackpoint>
            <Time>2019-10-04T09:50:45.000Z</Time>
            <Position>
              <LatitudeDegrees>43.43023105524480342864990234375</LatitudeDegrees>
              <LongitudeDegrees>-5.685977675020694732666015625</LongitudeDegrees>
            </Position>
            <AltitudeMeters>264.399993896484375</AltitudeMeters>
            <DistanceMeters>12346.218569132</DistanceMeters>
          </Trackpoint>
          <Trackpoint>
            <Time>2019-10-04T09:50:47.000Z</Time>
            <Position>
              <LatitudeDegrees>43.43012116849422454833984375</LatitudeDegrees>
              <LongitudeDegrees>-5.6862400285899639129638671875</LongitudeDegrees>
            </Position>
            <AltitudeMeters>264.20001220703125</AltitudeMeters>
            <DistanceMeters>12370.698601671</DistanceMeters>
          </Trackpoint>
          <Trackpoint>
            <Time>2019-10-04T09:50:49.000Z</Time>
            <Position>
              <LatitudeDegrees>43.4300029836595058441162109375</LatitudeDegrees>
              <LongitudeDegrees>-5.68649542517960071563720703125</LongitudeDegrees>
            </Position>
            <AltitudeMeters>264</AltitudeMeters>
            <DistanceMeters>12395.176789765</DistanceMeters>
          </Trackpoint>
          <Trackpoint>
            <Time>2019-10-04T09:50:50.000Z</Time>
            <Position>
              <LatitudeDegrees>43.4299473278224468231201171875</LatitudeDegrees>
              <LongitudeDegrees>-5.686628110706806182861328125</LongitudeDegrees>
            </Position>
            <AltitudeMeters>264.20001220703125</AltitudeMeters>
            <DistanceMeters>12407.56165466</DistanceMeters>
          </Trackpoint>
          <Trackpoint>
            <Time>2019-10-04T09:50:54.000Z</Time>
            <Position>
              <LatitudeDegrees>43.429721854627132415771484375</LatitudeDegrees>
              <LongitudeDegrees>-5.68715550005435943603515625</LongitudeDegrees>
            </Position>
            <AltitudeMeters>264.399993896484375</AltitudeMeters>
            <DistanceMeters>12457.02869596</DistanceMeters>
          </Trackpoint>
          <Trackpoint>
            <Time>2019-10-04T09:50:58.000Z</Time>
            <Position>
              <LatitudeDegrees>43.42950761318206787109375</LatitudeDegrees>
              <LongitudeDegrees>-5.6877021677792072296142578125</LongitudeDegrees>
            </Position>
            <AltitudeMeters>264.399993896484375</AltitudeMeters>
            <DistanceMeters>12507.239232826</DistanceMeters>
          </Trackpoint>
          <Trackpoint>
            <Time>2019-10-04T09:50:59.000Z</Time>
            <Position>
              <LatitudeDegrees>43.4294150769710540771484375</LatitudeDegrees>
              <LongitudeDegrees>-5.6879291497170925140380859375</LongitudeDegrees>
            </Position>
            <AltitudeMeters>264.20001220703125</AltitudeMeters>
            <DistanceMeters>12528.279443556</DistanceMeters>
          </Trackpoint>
          <Trackpoint>
            <Time>2019-10-04T09:51:02.000Z</Time>
            <Position>
              <LatitudeDegrees>43.42929278500378131866455078125</LatitudeDegrees>
              <LongitudeDegrees>-5.68824070505797863006591796875</LongitudeDegrees>
            </Position>
            <AltitudeMeters>264.399993896484375</AltitudeMeters>
            <DistanceMeters>12556.905521651</DistanceMeters>
          </Trackpoint>
          <Trackpoint>
            <Time>2019-10-04T09:51:05.000Z</Time>
            <Position>
              <LatitudeDegrees>43.4291386418044567108154296875</LatitudeDegrees>
              <LongitudeDegrees>-5.688624344766139984130859375</LongitudeDegrees>
            </Position>
            <AltitudeMeters>264.20001220703125</AltitudeMeters>
            <DistanceMeters>12592.344753473</DistanceMeters>
          </Trackpoint>
          <Trackpoint>
            <Time>2019-10-04T09:51:06.000Z</Time>
            <Position>
              <LatitudeDegrees>43.42908575199544429779052734375</LatitudeDegrees>
              <LongitudeDegrees>-5.68874873220920562744140625</LongitudeDegrees>
            </Position>
            <AltitudeMeters>264.20001220703125</AltitudeMeters>
            <DistanceMeters>12603.995509204</DistanceMeters>
          </Trackpoint>
          <Trackpoint>
            <Time>2019-10-04T09:51:07.000Z</Time>
            <Position>
              <LatitudeDegrees>43.4290333651006221771240234375</LatitudeDegrees>
              <LongitudeDegrees>-5.68887035362422466278076171875</LongitudeDegrees>
            </Position>
            <AltitudeMeters>264</AltitudeMeters>
            <DistanceMeters>12615.425212433</DistanceMeters>
          </Trackpoint>
          <Trackpoint>
            <Time>2019-10-04T09:51:08.000Z</Time>
            <Position>
              <LatitudeDegrees>43.4289805591106414794921875</LatitudeDegrees>
              <LongitudeDegrees>-5.68898702971637248992919921875</LongitudeDegrees>
            </Position>
            <AltitudeMeters>264.20001220703125</AltitudeMeters>
            <DistanceMeters>12626.538057499</DistanceMeters>
          </Trackpoint>
          <Trackpoint>
            <Time>2019-10-04T09:51:11.000Z</Time>
            <Position>
              <LatitudeDegrees>43.42883110977709293365478515625</LatitudeDegrees>
              <LongitudeDegrees>-5.6893155165016651153564453125</LongitudeDegrees>
            </Position>
            <AltitudeMeters>264</AltitudeMeters>
            <DistanceMeters>12657.869937437</DistanceMeters>
          </Trackpoint>
          <Trackpoint>
            <Time>2019-10-04T09:51:13.000Z</Time>
            <Position>
              <LatitudeDegrees>43.42872440814971923828125</LatitudeDegrees>
              <LongitudeDegrees>-5.68950570188462734222412109375</LongitudeDegrees>
            </Position>
            <AltitudeMeters>264.20001220703125</AltitudeMeters>
            <DistanceMeters>12677.295870994</DistanceMeters>
          </Trackpoint>
          <Trackpoint>
            <Time>2019-10-04T09:51:16.000Z</Time>
            <Position>
              <LatitudeDegrees>43.4285522438585758209228515625</LatitudeDegrees>
              <LongitudeDegrees>-5.68975816480815410614013671875</LongitudeDegrees>
            </Position>
            <AltitudeMeters>264</AltitudeMeters>
            <DistanceMeters>12705.289263676</DistanceMeters>
          </Trackpoint>
          <Trackpoint>
            <Time>2019-10-04T09:51:19.000Z</Time>
            <Position>
              <LatitudeDegrees>43.42837127856910228729248046875</LatitudeDegrees>
              <LongitudeDegrees>-5.689976178109645843505859375</LongitudeDegrees>
            </Position>
            <AltitudeMeters>263.79998779296875</AltitudeMeters>
            <DistanceMeters>12732.051728869</DistanceMeters>
          </Trackpoint>
          <Trackpoint>
            <Time>2019-10-04T09:51:20.000Z</Time>
            <Position>
              <LatitudeDegrees>43.4283078275620937347412109375</LatitudeDegrees>
              <LongitudeDegrees>-5.6900316663086414337158203125</LongitudeDegrees>
            </Position>
            <AltitudeMeters>264</AltitudeMeters>
            <DistanceMeters>12740.418398015</DistanceMeters>
          </Trackpoint>
          <Trackpoint>
            <Time>2019-10-04T09:51:23.000Z</Time>
            <Position>
              <LatitudeDegrees>43.42811345122754573822021484375</LatitudeDegrees>
              <LongitudeDegrees>-5.690161921083927154541015625</LongitudeDegrees>
            </Position>
            <AltitudeMeters>264.20001220703125</AltitudeMeters>
            <DistanceMeters>12764.478929404</DistanceMeters>
          </Trackpoint>
          <Trackpoint>
            <Time>2019-10-04T09:51:30.000Z</Time>
            <Position>
              <LatitudeDegrees>43.427675329148769378662109375</LatitudeDegrees>
              <LongitudeDegrees>-5.6904692016541957855224609375</LongitudeDegrees>
            </Position>
            <AltitudeMeters>264.399993896484375</AltitudeMeters>
            <DistanceMeters>12819.204087356</DistanceMeters>
          </Trackpoint>
          <Trackpoint>
            <Time>2019-10-04T09:51:38.000Z</Time>
            <Position>
              <LatitudeDegrees>43.427163697779178619384765625</LatitudeDegrees>
              <LongitudeDegrees>-5.69082886911928653717041015625</LongitudeDegrees>
            </Position>
            <AltitudeMeters>264.20001220703125</AltitudeMeters>
            <DistanceMeters>12883.141744234</DistanceMeters>
          </Trackpoint>
          <Trackpoint>
            <Time>2019-10-04T09:51:40.000Z</Time>
            <Position>
              <LatitudeDegrees>43.42704123817384243011474609375</LatitudeDegrees>
              <LongitudeDegrees>-5.69092006422579288482666015625</LongitudeDegrees>
            </Position>
            <AltitudeMeters>264</AltitudeMeters>
            <DistanceMeters>12898.637510196</DistanceMeters>
          </Trackpoint>
          <Trackpoint>
            <Time>2019-10-04T09:51:47.000Z</Time>
            <Position>
              <LatitudeDegrees>43.42664946801960468292236328125</LatitudeDegrees>
              <LongitudeDegrees>-5.69123773835599422454833984375</LongitudeDegrees>
            </Position>
            <AltitudeMeters>263.79998779296875</AltitudeMeters>
            <DistanceMeters>12949.241711585</DistanceMeters>
          </Trackpoint>
          <Trackpoint>
            <Time>2019-10-04T09:51:52.000Z</Time>
            <Position>
              <LatitudeDegrees>43.42636666260659694671630859375</LatitudeDegrees>
              <LongitudeDegrees>-5.69146983325481414794921875</LongitudeDegrees>
            </Position>
            <AltitudeMeters>263.79998779296875</AltitudeMeters>
            <DistanceMeters>12985.885570105</DistanceMeters>
          </Trackpoint>
          <Trackpoint>
            <Time>2019-10-04T09:51:55.000Z</Time>
            <Position>
              <LatitudeDegrees>43.426198773086071014404296875</LatitudeDegrees>
              <LongitudeDegrees>-5.6916005909442901611328125</LongitudeDegrees>
            </Position>
            <AltitudeMeters>263.399993896484375</AltitudeMeters>
            <DistanceMeters>13007.354037719</DistanceMeters>
          </Trackpoint>
          <Trackpoint>
            <Time>2019-10-04T09:52:03.000Z</Time>
            <Position>
              <LatitudeDegrees>43.42569309286773204803466796875</LatitudeDegrees>
              <LongitudeDegrees>-5.69201222620904445648193359375</LongitudeDegrees>
            </Position>
            <AltitudeMeters>263.600006103515625</AltitudeMeters>
            <DistanceMeters>13072.73732029</DistanceMeters>
          </Trackpoint>
          <Trackpoint>
            <Time>2019-10-04T09:52:04.000Z</Time>
            <Position>
              <LatitudeDegrees>43.4256839565932750701904296875</LatitudeDegrees>
              <LongitudeDegrees>-5.69201968610286712646484375</LongitudeDegrees>
            </Position>
            <AltitudeMeters>263.600006103515625</AltitudeMeters>
            <DistanceMeters>13073.916570803</DistanceMeters>
          </Trackpoint>
          <Trackpoint>
            <Time>2019-10-04T09:52:12.000Z</Time>
            <Position>
              <LatitudeDegrees>43.42522772960364818572998046875</LatitudeDegrees>
              <LongitudeDegrees>-5.6923980452120304107666015625</LongitudeDegrees>
            </Position>
            <AltitudeMeters>262.600006103515625</AltitudeMeters>
            <DistanceMeters>13133.194963385</DistanceMeters>
          </Trackpoint>
          <Trackpoint>
            <Time>2019-10-04T09:52:17.000Z</Time>
            <Position>
              <LatitudeDegrees>43.4249518811702728271484375</LatitudeDegrees>
              <LongitudeDegrees>-5.69263952784240245819091796875</LongitudeDegrees>
            </Position>
            <AltitudeMeters>262.600006103515625</AltitudeMeters>
            <DistanceMeters>13169.577415002</DistanceMeters>
          </Trackpoint>
          <Trackpoint>
            <Time>2019-10-04T09:52:20.000Z</Time>
            <Position>
              <LatitudeDegrees>43.42480838298797607421875</LatitudeDegrees>
              <LongitudeDegrees>-5.69282233715057373046875</LongitudeDegrees>
            </Position>
            <AltitudeMeters>262.20001220703125</AltitudeMeters>
            <DistanceMeters>13191.336665175</DistanceMeters>
          </Trackpoint>
          <Trackpoint>
            <Time>2019-10-04T09:52:22.000Z</Time>
            <Position>
              <LatitudeDegrees>43.42472867108881473541259765625</LatitudeDegrees>
              <LongitudeDegrees>-5.6929603032767772674560546875</LongitudeDegrees>
            </Position>
            <AltitudeMeters>262.20001220703125</AltitudeMeters>
            <DistanceMeters>13205.58813806</DistanceMeters>
          </Trackpoint>
          <Trackpoint>
            <Time>2019-10-04T09:52:28.000Z</Time>
            <Position>
              <LatitudeDegrees>43.42455097474157810211181640625</LatitudeDegrees>
              <LongitudeDegrees>-5.6934266723692417144775390625</LongitudeDegrees>
            </Position>
            <AltitudeMeters>262.20001220703125</AltitudeMeters>
            <DistanceMeters>13248.160848487</DistanceMeters>
          </Trackpoint>
          <Trackpoint>
            <Time>2019-10-04T09:52:33.000Z</Time>
            <Position>
              <LatitudeDegrees>43.42450906522572040557861328125</LatitudeDegrees>
              <LongitudeDegrees>-5.693882815539836883544921875</LongitudeDegrees>
            </Position>
            <AltitudeMeters>262.20001220703125</AltitudeMeters>
            <DistanceMeters>13285.327714699</DistanceMeters>
          </Trackpoint>
          <Trackpoint>
            <Time>2019-10-04T09:52:40.000Z</Time>
            <Position>
              <LatitudeDegrees>43.4245173633098602294921875</LatitudeDegrees>
              <LongitudeDegrees>-5.6945498473942279815673828125</LongitudeDegrees>
            </Position>
            <AltitudeMeters>262</AltitudeMeters>
            <DistanceMeters>13339.256107684</DistanceMeters>
          </Trackpoint>
          <Trackpoint>
            <Time>2019-10-04T09:52:44.000Z</Time>
            <Position>
              <LatitudeDegrees>43.4244491346180438995361328125</LatitudeDegrees>
              <LongitudeDegrees>-5.69490817375481128692626953125</LongitudeDegrees>
            </Position>
            <AltitudeMeters>261.79998779296875</AltitudeMeters>
            <DistanceMeters>13369.200833278</DistanceMeters>
          </Trackpoint>
          <Trackpoint>
            <Time>2019-10-04T09:52:46.000Z</Time>
            <Position>
              <LatitudeDegrees>43.42440915293991565704345703125</LatitudeDegrees>
              <LongitudeDegrees>-5.69508234970271587371826171875</LongitudeDegrees>
            </Position>
            <AltitudeMeters>261.600006103515625</AltitudeMeters>
            <DistanceMeters>13383.967018493</DistanceMeters>
          </Trackpoint>
          <Trackpoint>
            <Time>2019-10-04T09:52:54.000Z</Time>
            <Position>
              <LatitudeDegrees>43.4242707677185535430908203125</LatitudeDegrees>
              <LongitudeDegrees>-5.69580201990902423858642578125</LongitudeDegrees>
            </Position>
            <AltitudeMeters>261.600006103515625</AltitudeMeters>
            <DistanceMeters>13444.147219881</DistanceMeters>
          </Trackpoint>
          <Trackpoint>
            <Time>2019-10-04T09:53:02.000Z</Time>
            <Position>
              <LatitudeDegrees>43.42414311133325099945068359375</LatitudeDegrees>
              <LongitudeDegrees>-5.69652688689529895782470703125</LongitudeDegrees>
            </Position>
            <AltitudeMeters>261.600006103515625</AltitudeMeters>
            <DistanceMeters>13504.441277011</DistanceMeters>
          </Trackpoint>
          <Trackpoint>
            <Time>2019-10-04T09:53:03.000Z</Time>
            <Position>
              <LatitudeDegrees>43.42412735335528850555419921875</LatitudeDegrees>
              <LongitudeDegrees>-5.69661556743085384368896484375</LongitudeDegrees>
            </Position>
            <AltitudeMeters>261.600006103515625</AltitudeMeters>
            <DistanceMeters>13511.821617187</DistanceMeters>
          </Trackpoint>
          <Trackpoint>
            <Time>2019-10-04T09:53:10.000Z</Time>
            <Position>
              <LatitudeDegrees>43.424026854336261749267578125</LatitudeDegrees>
              <LongitudeDegrees>-5.69718570448458194732666015625</LongitudeDegrees>
            </Position>
            <AltitudeMeters>261.600006103515625</AltitudeMeters>
            <DistanceMeters>13559.247850023</DistanceMeters>
          </Trackpoint>
          <Trackpoint>
            <Time>2019-10-04T09:53:14.000Z</Time>
            <Position>
              <LatitudeDegrees>43.42395686544477939605712890625</LatitudeDegrees>
              <LongitudeDegrees>-5.69745057262480258941650390625</LongitudeDegrees>
            </Position>
            <AltitudeMeters>261.600006103515625</AltitudeMeters>
            <DistanceMeters>13582.032077783</DistanceMeters>
          </Trackpoint>
          <Trackpoint>
            <Time>2019-10-04T09:53:16.000Z</Time>
            <Position>
              <LatitudeDegrees>43.42389844357967376708984375</LatitudeDegrees>
              <LongitudeDegrees>-5.69756037555634975433349609375</LongitudeDegrees>
            </Position>
            <AltitudeMeters>261.20001220703125</AltitudeMeters>
            <DistanceMeters>13593.034677694</DistanceMeters>
          </Trackpoint>
          <Trackpoint>
            <Time>2019-10-04T09:53:19.000Z</Time>
            <Position>
              <LatitudeDegrees>43.42378067784011363983154296875</LatitudeDegrees>
              <LongitudeDegrees>-5.6976870261132717132568359375</LongitudeDegrees>
            </Position>
            <AltitudeMeters>261.20001220703125</AltitudeMeters>
            <DistanceMeters>13609.666796073</DistanceMeters>
          </Trackpoint>
          <Trackpoint>
            <Time>2019-10-04T09:53:21.000Z</Time>
            <Position>
              <LatitudeDegrees>43.4236950986087322235107421875</LatitudeDegrees>
              <LongitudeDegrees>-5.69775651209056377410888671875</LongitudeDegrees>
            </Position>
            <AltitudeMeters>261</AltitudeMeters>
            <DistanceMeters>13620.725064256</DistanceMeters>
          </Trackpoint>
          <Trackpoint>
            <Time>2019-10-04T09:53:26.000Z</Time>
            <Position>
              <LatitudeDegrees>43.4234513528645038604736328125</LatitudeDegrees>
              <LongitudeDegrees>-5.6979176960885524749755859375</LongitudeDegrees>
            </Position>
            <AltitudeMeters>261.399993896484375</AltitudeMeters>
            <DistanceMeters>13650.821091366</DistanceMeters>
          </Trackpoint>
          <Trackpoint>
            <Time>2019-10-04T09:53:29.000Z</Time>
            <Position>
              <LatitudeDegrees>43.42328815720975399017333984375</LatitudeDegrees>
              <LongitudeDegrees>-5.698014087975025177001953125</LongitudeDegrees>
            </Position>
            <AltitudeMeters>261</AltitudeMeters>
            <DistanceMeters>13670.585734215</DistanceMeters>
          </Trackpoint>
          <Trackpoint>
            <Time>2019-10-04T09:53:36.000Z</Time>
            <Position>
              <LatitudeDegrees>43.4228471852838993072509765625</LatitudeDegrees>
              <LongitudeDegrees>-5.69823947735130786895751953125</LongitudeDegrees>
            </Position>
            <AltitudeMeters>261.20001220703125</AltitudeMeters>
            <DistanceMeters>13722.939503547</DistanceMeters>
          </Trackpoint>
          <Trackpoint>
            <Time>2019-10-04T09:53:41.000Z</Time>
            <Position>
              <LatitudeDegrees>43.4225005097687244415283203125</LatitudeDegrees>
              <LongitudeDegrees>-5.6984092108905315399169921875</LongitudeDegrees>
            </Position>
            <AltitudeMeters>261.399993896484375</AltitudeMeters>
            <DistanceMeters>13763.892158865</DistanceMeters>
          </Trackpoint>
          <Trackpoint>
            <Time>2019-10-04T09:53:46.000Z</Time>
            <Position>
              <LatitudeDegrees>43.42214955948293209075927734375</LatitudeDegrees>
              <LongitudeDegrees>-5.698575340211391448974609375</LongitudeDegrees>
            </Position>
            <AltitudeMeters>261.20001220703125</AltitudeMeters>
            <DistanceMeters>13805.197747753</DistanceMeters>
          </Trackpoint>
          <Trackpoint>
            <Time>2019-10-04T09:53:50.000Z</Time>
            <Position>
              <LatitudeDegrees>43.4218671731650829315185546875</LatitudeDegrees>
              <LongitudeDegrees>-5.69873727858066558837890625</LongitudeDegrees>
            </Position>
            <AltitudeMeters>261.399993896484375</AltitudeMeters>
            <DistanceMeters>13839.245171054</DistanceMeters>
          </Trackpoint>
          <Trackpoint>
            <Time>2019-10-04T09:53:52.000Z</Time>
            <Position>
              <LatitudeDegrees>43.42173582874238491058349609375</LatitudeDegrees>
              <LongitudeDegrees>-5.69885923527181148529052734375</LongitudeDegrees>
            </Position>
            <AltitudeMeters>261.20001220703125</AltitudeMeters>
            <DistanceMeters>13856.877684544</DistanceMeters>
          </Trackpoint>
          <Trackpoint>
            <Time>2019-10-04T09:53:58.000Z</Time>
            <Position>
              <LatitudeDegrees>43.4213867224752902984619140625</LatitudeDegrees>
              <LongitudeDegrees>-5.699305571615695953369140625</LongitudeDegrees>
            </Position>
            <AltitudeMeters>261.20001220703125</AltitudeMeters>
            <DistanceMeters>13909.903272353</DistanceMeters>
          </Trackpoint>
          <Trackpoint>
            <Time>2019-10-04T09:53:59.000Z</Time>
            <Position>
              <LatitudeDegrees>43.421340286731719970703125</LatitudeDegrees>
              <LongitudeDegrees>-5.6993986107409000396728515625</LongitudeDegrees>
            </Position>
            <AltitudeMeters>261.20001220703125</AltitudeMeters>
            <DistanceMeters>13919.02979552</DistanceMeters>
          </Trackpoint>
          <Trackpoint>
            <Time>2019-10-04T09:54:02.000Z</Time>
            <Position>
              <LatitudeDegrees>43.4212423861026763916015625</LatitudeDegrees>
              <LongitudeDegrees>-5.6997147761285305023193359375</LongitudeDegrees>
            </Position>
            <AltitudeMeters>261.20001220703125</AltitudeMeters>
            <DistanceMeters>13946.814670819</DistanceMeters>
          </Trackpoint>
          <Trackpoint>
            <Time>2019-10-04T09:54:04.000Z</Time>
            <Position>
              <LatitudeDegrees>43.42119838111102581024169921875</LatitudeDegrees>
              <LongitudeDegrees>-5.69993295706808567047119140625</LongitudeDegrees>
            </Position>
            <AltitudeMeters>261.399993896484375</AltitudeMeters>
            <DistanceMeters>13965.12008195</DistanceMeters>
          </Trackpoint>
          <Trackpoint>
            <Time>2019-10-04T09:54:07.000Z</Time>
            <Position>
              <LatitudeDegrees>43.4211473353207111358642578125</LatitudeDegrees>
              <LongitudeDegrees>-5.70024241693317890167236328125</LongitudeDegrees>
            </Position>
            <AltitudeMeters>261</AltitudeMeters>
            <DistanceMeters>13990.774127077</DistanceMeters>
          </Trackpoint>
          <Trackpoint>
            <Time>2019-10-04T09:54:15.000Z</Time>
            <Position>
              <LatitudeDegrees>43.42101330868899822235107421875</LatitudeDegrees>
              <LongitudeDegrees>-5.70103098638355731964111328125</LongitudeDegrees>
            </Position>
            <AltitudeMeters>260.79998779296875</AltitudeMeters>
            <DistanceMeters>14056.245050675</DistanceMeters>
          </Trackpoint>
          <Trackpoint>
            <Time>2019-10-04T09:54:20.000Z</Time>
            <Position>
              <LatitudeDegrees>43.42094491235911846160888671875</LatitudeDegrees>
              <LongitudeDegrees>-5.70151294581592082977294921875</LongitudeDegrees>
            </Position>
            <AltitudeMeters>261</AltitudeMeters>
            <DistanceMeters>14095.944045772</DistanceMeters>
          </Trackpoint>
          <Trackpoint>
            <Time>2019-10-04T09:54:21.000Z</Time>
            <Position>
              <LatitudeDegrees>43.42092982493340969085693359375</LatitudeDegrees>
              <LongitudeDegrees>-5.70160900242626667022705078125</LongitudeDegrees>
            </Position>
            <AltitudeMeters>261.20001220703125</AltitudeMeters>
            <DistanceMeters>14103.888870147</DistanceMeters>
          </Trackpoint>
          <Trackpoint>
            <Time>2019-10-04T09:54:27.000Z</Time>
            <Position>
              <LatitudeDegrees>43.42090115882456302642822265625</LatitudeDegrees>
              <LongitudeDegrees>-5.702187605202198028564453125</LongitudeDegrees>
            </Position>
            <AltitudeMeters>261.399993896484375</AltitudeMeters>
            <DistanceMeters>14150.772589579</DistanceMeters>
          </Trackpoint>
          <Trackpoint>
            <Time>2019-10-04T09:54:32.000Z</Time>
            <Position>
              <LatitudeDegrees>43.4209620952606201171875</LatitudeDegrees>
              <LongitudeDegrees>-5.70269881747663021087646484375</LongitudeDegrees>
            </Position>
            <AltitudeMeters>261.600006103515625</AltitudeMeters>
            <DistanceMeters>14192.652534755</DistanceMeters>
          </Trackpoint>
          <Trackpoint>
            <Time>2019-10-04T09:54:35.000Z</Time>
            <Position>
              <LatitudeDegrees>43.42103275470435619354248046875</LatitudeDegrees>
              <LongitudeDegrees>-5.7029444910585880279541015625</LongitudeDegrees>
            </Position>
            <AltitudeMeters>261.600006103515625</AltitudeMeters>
            <DistanceMeters>14214.01368624</DistanceMeters>
          </Trackpoint>
          <Trackpoint>
            <Time>2019-10-04T09:54:36.000Z</Time>
            <Position>
              <LatitudeDegrees>43.42106276191771030426025390625</LatitudeDegrees>
              <LongitudeDegrees>-5.7030269689857959747314453125</LongitudeDegrees>
            </Position>
            <AltitudeMeters>261.600006103515625</AltitudeMeters>
            <DistanceMeters>14221.470710495</DistanceMeters>
          </Trackpoint>
          <Trackpoint>
            <Time>2019-10-04T09:54:37.000Z</Time>
            <Position>
              <LatitudeDegrees>43.42109955847263336181640625</LatitudeDegrees>
              <LongitudeDegrees>-5.7031007297337055206298828125</LongitudeDegrees>
            </Position>
            <AltitudeMeters>261.600006103515625</AltitudeMeters>
            <DistanceMeters>14228.705233497</DistanceMeters>
          </Trackpoint>
          <Trackpoint>
            <Time>2019-10-04T09:54:41.000Z</Time>
            <Position>
              <LatitudeDegrees>43.4212388657033443450927734375</LatitudeDegrees>
              <LongitudeDegrees>-5.7033984549343585968017578125</LongitudeDegrees>
            </Position>
            <AltitudeMeters>262</AltitudeMeters>
            <DistanceMeters>14257.335727541</DistanceMeters>
          </Trackpoint>
          <Trackpoint>
            <Time>2019-10-04T09:54:43.000Z</Time>
            <Position>
              <LatitudeDegrees>43.42130474746227264404296875</LatitudeDegrees>
              <LongitudeDegrees>-5.703551508486270904541015625</LongitudeDegrees>
            </Position>
            <AltitudeMeters>262.20001220703125</AltitudeMeters>
            <DistanceMeters>14271.71839041</DistanceMeters>
          </Trackpoint>
          <Trackpoint>
            <Time>2019-10-04T09:54:50.000Z</Time>
            <Position>
              <LatitudeDegrees>43.42154589481651782989501953125</LatitudeDegrees>
              <LongitudeDegrees>-5.7040874473750591278076171875</LongitudeDegrees>
            </Position>
            <AltitudeMeters>262.79998779296875</AltitudeMeters>
            <DistanceMeters>14322.684079742</DistanceMeters>
          </Trackpoint>
          <Trackpoint>
            <Time>2019-10-04T09:54:57.000Z</Time>
            <Position>
              <LatitudeDegrees>43.4217568673193454742431640625</LatitudeDegrees>
              <LongitudeDegrees>-5.7046594284474849700927734375</LongitudeDegrees>
            </Position>
            <AltitudeMeters>262.79998779296875</AltitudeMeters>
            <DistanceMeters>14374.543945992</DistanceMeters>
          </Trackpoint>
          <Trackpoint>
            <Time>2019-10-04T09:55:03.000Z</Time>
            <Position>
              <LatitudeDegrees>43.42186239548027515411376953125</LatitudeDegrees>
              <LongitudeDegrees>-5.7051975466310977935791015625</LongitudeDegrees>
            </Position>
            <AltitudeMeters>262.399993896484375</AltitudeMeters>
            <DistanceMeters>14419.60324523</DistanceMeters>
          </Trackpoint>
          <Trackpoint>
            <Time>2019-10-04T09:55:10.000Z</Time>
            <Position>
              <LatitudeDegrees>43.42195895500481128692626953125</LatitudeDegrees>
              <LongitudeDegrees>-5.70577665232121944427490234375</LongitudeDegrees>
            </Position>
            <AltitudeMeters>262.399993896484375</AltitudeMeters>
            <DistanceMeters>14467.635841984</DistanceMeters>
          </Trackpoint>
          <Trackpoint>
            <Time>2019-10-04T09:55:11.000Z</Time>
            <Position>
              <LatitudeDegrees>43.42196716926991939544677734375</LatitudeDegrees>
              <LongitudeDegrees>-5.705860555171966552734375</LongitudeDegrees>
            </Position>
            <AltitudeMeters>262.20001220703125</AltitudeMeters>
            <DistanceMeters>14474.480404541</DistanceMeters>
          </Trackpoint>
          <Trackpoint>
            <Time>2019-10-04T09:55:18.000Z</Time>
            <Position>
              <LatitudeDegrees>43.4219680912792682647705078125</LatitudeDegrees>
              <LongitudeDegrees>-5.706482492387294769287109375</LongitudeDegrees>
            </Position>
            <AltitudeMeters>262.399993896484375</AltitudeMeters>
            <DistanceMeters>14524.757888759</DistanceMeters>
          </Trackpoint>
          <Trackpoint>
            <Time>2019-10-04T09:55:23.000Z</Time>
            <Position>
              <LatitudeDegrees>43.4219127707183361053466796875</LatitudeDegrees>
              <LongitudeDegrees>-5.706914328038692474365234375</LongitudeDegrees>
            </Position>
            <AltitudeMeters>261.399993896484375</AltitudeMeters>
            <DistanceMeters>14560.206292357</DistanceMeters>
          </Trackpoint>
          <Trackpoint>
            <Time>2019-10-04T09:55:24.000Z</Time>
            <Position>
              <LatitudeDegrees>43.42188854701817035675048828125</LatitudeDegrees>
              <LongitudeDegrees>-5.70699504576623439788818359375</LongitudeDegrees>
            </Position>
            <AltitudeMeters>261.20001220703125</AltitudeMeters>
            <DistanceMeters>14567.266463882</DistanceMeters>
          </Trackpoint>
          <Trackpoint>
            <Time>2019-10-04T09:55:28.000Z</Time>
            <Position>
              <LatitudeDegrees>43.421715795993804931640625</LatitudeDegrees>
              <LongitudeDegrees>-5.70724465884268283843994140625</LongitudeDegrees>
            </Position>
            <AltitudeMeters>260</AltitudeMeters>
            <DistanceMeters>14595.138950973</DistanceMeters>
          </Trackpoint>
          <Trackpoint>
            <Time>2019-10-04T09:55:31.000Z</Time>
            <Position>
              <LatitudeDegrees>43.4215240180492401123046875</LatitudeDegrees>
              <LongitudeDegrees>-5.70735655725002288818359375</LongitudeDegrees>
            </Position>
            <AltitudeMeters>258.79998779296875</AltitudeMeters>
            <DistanceMeters>14618.321963931</DistanceMeters>
          </Trackpoint>
          <Trackpoint>
            <Time>2019-10-04T09:55:32.000Z</Time>
            <Position>
              <LatitudeDegrees>43.4214569628238677978515625</LatitudeDegrees>
              <LongitudeDegrees>-5.7073882408440113067626953125</LongitudeDegrees>
            </Position>
            <AltitudeMeters>258.79998779296875</AltitudeMeters>
            <DistanceMeters>14626.212042955</DistanceMeters>
          </Trackpoint>
          <Trackpoint>
            <Time>2019-10-04T09:55:37.000Z</Time>
            <Position>
              <LatitudeDegrees>43.42112839221954345703125</LatitudeDegrees>
              <LongitudeDegrees>-5.7075434736907482147216796875</LongitudeDegrees>
            </Position>
            <AltitudeMeters>258</AltitudeMeters>
            <DistanceMeters>14664.875656015</DistanceMeters>
          </Trackpoint>
          <Trackpoint>
            <Time>2019-10-04T09:55:39.000Z</Time>
            <Position>
              <LatitudeDegrees>43.42100375331938266754150390625</LatitudeDegrees>
              <LongitudeDegrees>-5.707609020173549652099609375</LongitudeDegrees>
            </Position>
            <AltitudeMeters>257.600006103515625</AltitudeMeters>
            <DistanceMeters>14679.725689578</DistanceMeters>
          </Trackpoint>
          <Trackpoint>
            <Time>2019-10-04T09:55:40.000Z</Time>
            <Position>
              <LatitudeDegrees>43.42094407416880130767822265625</LatitudeDegrees>
              <LongitudeDegrees>-5.70764548145234584808349609375</LongitudeDegrees>
            </Position>
            <AltitudeMeters>257.600006103515625</AltitudeMeters>
            <DistanceMeters>14686.992593117</DistanceMeters>
          </Trackpoint>
          <Trackpoint>
            <Time>2019-10-04T09:55:47.000Z</Time>
            <Position>
              <LatitudeDegrees>43.4205498732626438140869140625</LatitudeDegrees>
              <LongitudeDegrees>-5.70794940926134586334228515625</LongitudeDegrees>
            </Position>
            <AltitudeMeters>257.600006103515625</AltitudeMeters>
            <DistanceMeters>14737.279056772</DistanceMeters>
          </Trackpoint>
          <Trackpoint>
            <Time>2019-10-04T09:55:55.000Z</Time>
            <Position>
              <LatitudeDegrees>43.42009431682527065277099609375</LatitudeDegrees>
              <LongitudeDegrees>-5.70833447389304637908935546875</LongitudeDegrees>
            </Position>
            <AltitudeMeters>257.399993896484375</AltitudeMeters>
            <DistanceMeters>14796.776708554</DistanceMeters>
          </Trackpoint>
          <Trackpoint>
            <Time>2019-10-04T09:55:59.000Z</Time>
            <Position>
              <LatitudeDegrees>43.41986867599189281463623046875</LatitudeDegrees>
              <LongitudeDegrees>-5.7085231505334377288818359375</LongitudeDegrees>
            </Position>
            <AltitudeMeters>257.600006103515625</AltitudeMeters>
            <DistanceMeters>14826.160253252</DistanceMeters>
          </Trackpoint>
          <Trackpoint>
            <Time>2019-10-04T09:56:07.000Z</Time>
            <Position>
              <LatitudeDegrees>43.4194099344313144683837890625</LatitudeDegrees>
              <LongitudeDegrees>-5.70891299284994602203369140625</LongitudeDegrees>
            </Position>
            <AltitudeMeters>257.399993896484375</AltitudeMeters>
            <DistanceMeters>14886.162381197</DistanceMeters>
          </Trackpoint>
          <Trackpoint>
            <Time>2019-10-04T09:56:09.000Z</Time>
            <Position>
              <LatitudeDegrees>43.4192932583391666412353515625</LatitudeDegrees>
              <LongitudeDegrees>-5.709011144936084747314453125</LongitudeDegrees>
            </Position>
            <AltitudeMeters>257.79998779296875</AltitudeMeters>
            <DistanceMeters>14901.380902828</DistanceMeters>
          </Trackpoint>
          <Trackpoint>
            <Time>2019-10-04T09:56:17.000Z</Time>
            <Position>
              <LatitudeDegrees>43.4188191778957843780517578125</LatitudeDegrees>
              <LongitudeDegrees>-5.70941255427896976470947265625</LongitudeDegrees>
            </Position>
            <AltitudeMeters>257.600006103515625</AltitudeMeters>
            <DistanceMeters>14963.32731576</DistanceMeters>
          </Trackpoint>
          <Trackpoint>
            <Time>2019-10-04T09:56:22.000Z</Time>
            <Position>
              <LatitudeDegrees>43.41853494755923748016357421875</LatitudeDegrees>
              <LongitudeDegrees>-5.70964925922453403472900390625</LongitudeDegrees>
            </Position>
            <AltitudeMeters>257.20001220703125</AltitudeMeters>
            <DistanceMeters>15000.30015758</DistanceMeters>
          </Trackpoint>
          <Trackpoint>
            <Time>2019-10-04T09:56:26.000Z</Time>
            <Position>
              <LatitudeDegrees>43.41832053847610950469970703125</LatitudeDegrees>
              <LongitudeDegrees>-5.7098173163831233978271484375</LongitudeDegrees>
            </Position>
            <AltitudeMeters>257</AltitudeMeters>
            <DistanceMeters>15027.760740671</DistanceMeters>
          </Trackpoint>
          <Trackpoint>
            <Time>2019-10-04T09:56:35.000Z</Time>
            <Position>
              <LatitudeDegrees>43.41781393624842166900634765625</LatitudeDegrees>
              <LongitudeDegrees>-5.7101827673614025115966796875</LongitudeDegrees>
            </Position>
            <AltitudeMeters>257.20001220703125</AltitudeMeters>
            <DistanceMeters>15091.418142946</DistanceMeters>
          </Trackpoint>
          <Trackpoint>
            <Time>2019-10-04T09:56:44.000Z</Time>
            <Position>
              <LatitudeDegrees>43.41729124076664447784423828125</LatitudeDegrees>
              <LongitudeDegrees>-5.71050991304218769073486328125</LongitudeDegrees>
            </Position>
            <AltitudeMeters>256.79998779296875</AltitudeMeters>
            <DistanceMeters>15155.325003719</DistanceMeters>
          </Trackpoint>
          <Trackpoint>
            <Time>2019-10-04T09:56:50.000Z</Time>
            <Position>
              <LatitudeDegrees>43.4169195033609867095947265625</LatitudeDegrees>
              <LongitudeDegrees>-5.710611082613468170166015625</LongitudeDegrees>
            </Position>
            <AltitudeMeters>257.20001220703125</AltitudeMeters>
            <DistanceMeters>15197.500810034</DistanceMeters>
          </Trackpoint>
          <Trackpoint>
            <Time>2019-10-04T09:56:57.000Z</Time>
            <Position>
              <LatitudeDegrees>43.4164829738438129425048828125</LatitudeDegrees>
              <LongitudeDegrees>-5.7106132619082927703857421875</LongitudeDegrees>
            </Position>
            <AltitudeMeters>257.20001220703125</AltitudeMeters>
            <DistanceMeters>15246.087812046</DistanceMeters>
          </Trackpoint>
          <Trackpoint>
            <Time>2019-10-04T09:57:00.000Z</Time>
            <Position>
              <LatitudeDegrees>43.41628759168088436126708984375</LatitudeDegrees>
              <LongitudeDegrees>-5.7105985097587108612060546875</LongitudeDegrees>
            </Position>
            <AltitudeMeters>257.20001220703125</AltitudeMeters>
            <DistanceMeters>15267.866973082</DistanceMeters>
          </Trackpoint>
          <Trackpoint>
            <Time>2019-10-04T09:57:02.000Z</Time>
            <Position>
              <LatitudeDegrees>43.41619689948856830596923828125</LatitudeDegrees>
              <LongitudeDegrees>-5.7105814106762409210205078125</LongitudeDegrees>
            </Position>
            <AltitudeMeters>257.20001220703125</AltitudeMeters>
            <DistanceMeters>15278.055680498</DistanceMeters>
          </Trackpoint>
          <Trackpoint>
            <Time>2019-10-04T09:57:04.000Z</Time>
            <Position>
              <LatitudeDegrees>43.41608441434800624847412109375</LatitudeDegrees>
              <LongitudeDegrees>-5.710554420948028564453125</LongitudeDegrees>
            </Position>
            <AltitudeMeters>257.20001220703125</AltitudeMeters>
            <DistanceMeters>15290.764415575</DistanceMeters>
          </Trackpoint>
          <Trackpoint>
            <Time>2019-10-04T09:57:10.000Z</Time>
            <Position>
              <LatitudeDegrees>43.41573111712932586669921875</LatitudeDegrees>
              <LongitudeDegrees>-5.7104657404124736785888671875</LongitudeDegrees>
            </Position>
            <AltitudeMeters>256.79998779296875</AltitudeMeters>
            <DistanceMeters>15330.735547974</DistanceMeters>
          </Trackpoint>
          <Trackpoint>
            <Time>2019-10-04T09:57:12.000Z</Time>
            <Position>
              <LatitudeDegrees>43.41561284847557544708251953125</LatitudeDegrees>
              <LongitudeDegrees>-5.71042626164853572845458984375</LongitudeDegrees>
            </Position>
            <AltitudeMeters>256.79998779296875</AltitudeMeters>
            <DistanceMeters>15344.280438639</DistanceMeters>
          </Trackpoint>
          <Trackpoint>
            <Time>2019-10-04T09:57:19.000Z</Time>
            <Position>
              <LatitudeDegrees>43.41522308997809886932373046875</LatitudeDegrees>
              <LongitudeDegrees>-5.71030220948159694671630859375</LongitudeDegrees>
            </Position>
            <AltitudeMeters>256.79998779296875</AltitudeMeters>
            <DistanceMeters>15388.805702285</DistanceMeters>
          </Trackpoint>
          <Trackpoint>
            <Time>2019-10-04T09:57:24.000Z</Time>
            <Position>
              <LatitudeDegrees>43.4149686992168426513671875</LatitudeDegrees>
              <LongitudeDegrees>-5.71016876958310604095458984375</LongitudeDegrees>
            </Position>
            <AltitudeMeters>256.399993896484375</AltitudeMeters>
            <DistanceMeters>15419.105667171</DistanceMeters>
          </Trackpoint>
          <Trackpoint>
            <Time>2019-10-04T09:57:27.000Z</Time>
            <Position>
              <LatitudeDegrees>43.41482008807361125946044921875</LatitudeDegrees>
              <LongitudeDegrees>-5.71007539518177509307861328125</LongitudeDegrees>
            </Position>
            <AltitudeMeters>256.600006103515625</AltitudeMeters>
            <DistanceMeters>15437.287583146</DistanceMeters>
          </Trackpoint>
          <Trackpoint>
            <Time>2019-10-04T09:57:35.000Z</Time>
            <Position>
              <LatitudeDegrees>43.41443217359483242034912109375</LatitudeDegrees>
              <LongitudeDegrees>-5.709839276969432830810546875</LongitudeDegrees>
            </Position>
            <AltitudeMeters>256.399993896484375</AltitudeMeters>
            <DistanceMeters>15484.495301646</DistanceMeters>
          </Trackpoint>
          <Trackpoint>
            <Time>2019-10-04T09:57:36.000Z</Time>
            <Position>
              <LatitudeDegrees>43.41438389383256435394287109375</LatitudeDegrees>
              <LongitudeDegrees>-5.7098163105547428131103515625</LongitudeDegrees>
            </Position>
            <AltitudeMeters>256.20001220703125</AltitudeMeters>
            <DistanceMeters>15490.181044664</DistanceMeters>
          </Trackpoint>
          <Trackpoint>
            <Time>2019-10-04T09:57:45.000Z</Time>
            <Position>
              <LatitudeDegrees>43.4139368869364261627197265625</LatitudeDegrees>
              <LongitudeDegrees>-5.7096196711063385009765625</LongitudeDegrees>
            </Position>
            <AltitudeMeters>256.399993896484375</AltitudeMeters>
            <DistanceMeters>15542.412035412</DistanceMeters>
          </Trackpoint>
          <Trackpoint>
            <Time>2019-10-04T09:57:53.000Z</Time>
            <Position>
              <LatitudeDegrees>43.41350932605564594268798828125</LatitudeDegrees>
              <LongitudeDegrees>-5.70953761227428913116455078125</LongitudeDegrees>
            </Position>
            <AltitudeMeters>256</AltitudeMeters>
            <DistanceMeters>15590.460609417</DistanceMeters>
          </Trackpoint>
          <Trackpoint>
            <Time>2019-10-04T09:57:58.000Z</Time>
            <Position>
              <LatitudeDegrees>43.41319148428738117218017578125</LatitudeDegrees>
              <LongitudeDegrees>-5.70959351956844329833984375</LongitudeDegrees>
            </Position>
            <AltitudeMeters>255.399993896484375</AltitudeMeters>
            <DistanceMeters>15626.124630327</DistanceMeters>
          </Trackpoint>
          <Trackpoint>
            <Time>2019-10-04T09:57:59.000Z</Time>
            <Position>
              <LatitudeDegrees>43.4131208248436450958251953125</LatitudeDegrees>
              <LongitudeDegrees>-5.709610283374786376953125</LongitudeDegrees>
            </Position>
            <AltitudeMeters>255.1999969482421875</AltitudeMeters>
            <DistanceMeters>15634.105177248</DistanceMeters>
          </Trackpoint>
          <Trackpoint>
            <Time>2019-10-04T09:58:06.000Z</Time>
            <Position>
              <LatitudeDegrees>43.41257692314684391021728515625</LatitudeDegrees>
              <LongitudeDegrees>-5.7097418792545795440673828125</LongitudeDegrees>
            </Position>
            <AltitudeMeters>254.8000030517578125</AltitudeMeters>
            <DistanceMeters>15695.57034838</DistanceMeters>
          </Trackpoint>
          <Trackpoint>
            <Time>2019-10-04T09:58:07.000Z</Time>
            <Position>
              <LatitudeDegrees>43.4124925173819065093994140625</LatitudeDegrees>
              <LongitudeDegrees>-5.709758810698986053466796875</LongitudeDegrees>
            </Position>
            <AltitudeMeters>254.8000030517578125</AltitudeMeters>
            <DistanceMeters>15705.06351239</DistanceMeters>
          </Trackpoint>
          <Trackpoint>
            <Time>2019-10-04T09:58:10.000Z</Time>
            <Position>
              <LatitudeDegrees>43.41223418712615966796875</LatitudeDegrees>
              <LongitudeDegrees>-5.70981170050799846649169921875</LongitudeDegrees>
            </Position>
            <AltitudeMeters>254.1999969482421875</AltitudeMeters>
            <DistanceMeters>15734.13236915</DistanceMeters>
          </Trackpoint>
          <Trackpoint>
            <Time>2019-10-04T09:58:12.000Z</Time>
            <Position>
              <LatitudeDegrees>43.41205523349344730377197265625</LatitudeDegrees>
              <LongitudeDegrees>-5.70983818732202053070068359375</LongitudeDegrees>
            </Position>
            <AltitudeMeters>254.1999969482421875</AltitudeMeters>
            <DistanceMeters>15754.164983239</DistanceMeters>
          </Trackpoint>
          <Trackpoint>
            <Time>2019-10-04T09:58:15.000Z</Time>
            <Position>
              <LatitudeDegrees>43.41177745722234249114990234375</LatitudeDegrees>
              <LongitudeDegrees>-5.70987037383019924163818359375</LongitudeDegrees>
            </Position>
            <AltitudeMeters>253.8000030517578125</AltitudeMeters>
            <DistanceMeters>15785.191460145</DistanceMeters>
          </Trackpoint>
          <Trackpoint>
            <Time>2019-10-04T09:58:20.000Z</Time>
            <Position>
              <LatitudeDegrees>43.4113123454153537750244140625</LatitudeDegrees>
              <LongitudeDegrees>-5.7098947651684284210205078125</LongitudeDegrees>
            </Position>
            <AltitudeMeters>253.600006103515625</AltitudeMeters>
            <DistanceMeters>15836.996883893</DistanceMeters>
          </Trackpoint>
          <Trackpoint>
            <Time>2019-10-04T09:58:23.000Z</Time>
            <Position>
              <LatitudeDegrees>43.4110401012003421783447265625</LatitudeDegrees>
              <LongitudeDegrees>-5.70987783372402191162109375</LongitudeDegrees>
            </Position>
            <AltitudeMeters>253.399993896484375</AltitudeMeters>
            <DistanceMeters>15867.32901815</DistanceMeters>
          </Trackpoint>
          <Trackpoint>
            <Time>2019-10-04T09:58:24.000Z</Time>
            <Position>
              <LatitudeDegrees>43.4109519235789775848388671875</LatitudeDegrees>
              <LongitudeDegrees>-5.7098655961453914642333984375</LongitudeDegrees>
            </Position>
            <AltitudeMeters>253.1999969482421875</AltitudeMeters>
            <DistanceMeters>15877.193047432</DistanceMeters>
          </Trackpoint>
          <Trackpoint>
            <Time>2019-10-04T09:58:29.000Z</Time>
            <Position>
              <LatitudeDegrees>43.41052419506013393402099609375</LatitudeDegrees>
              <LongitudeDegrees>-5.70973710156977176666259765625</LongitudeDegrees>
            </Position>
            <AltitudeMeters>253.600006103515625</AltitudeMeters>
            <DistanceMeters>15925.920537622</DistanceMeters>
          </Trackpoint>
          <Trackpoint>
            <Time>2019-10-04T09:58:30.000Z</Time>
            <Position>
              <LatitudeDegrees>43.41044188477098941802978515625</LatitudeDegrees>
              <LongitudeDegrees>-5.70970223285257816314697265625</LongitudeDegrees>
            </Position>
            <AltitudeMeters>253.399993896484375</AltitudeMeters>
            <DistanceMeters>15935.505525767</DistanceMeters>
          </Trackpoint>
          <Trackpoint>
            <Time>2019-10-04T09:58:31.000Z</Time>
            <Position>
              <LatitudeDegrees>43.41036133468151092529296875</LatitudeDegrees>
              <LongitudeDegrees>-5.70966853760182857513427734375</LongitudeDegrees>
            </Position>
            <AltitudeMeters>253.399993896484375</AltitudeMeters>
            <DistanceMeters>15944.876142787</DistanceMeters>
          </Trackpoint>
          <Trackpoint>
            <Time>2019-10-04T09:58:33.000Z</Time>
            <Position>
              <LatitudeDegrees>43.410200737416744232177734375</LatitudeDegrees>
              <LongitudeDegrees>-5.70961095392704010009765625</LongitudeDegrees>
            </Position>
            <AltitudeMeters>253.399993896484375</AltitudeMeters>
            <DistanceMeters>15963.347048239</DistanceMeters>
          </Trackpoint>
          <Trackpoint>
            <Time>2019-10-04T09:58:36.000Z</Time>
            <Position>
              <LatitudeDegrees>43.40996545739471912384033203125</LatitudeDegrees>
              <LongitudeDegrees>-5.70949888788163661956787109375</LongitudeDegrees>
            </Position>
            <AltitudeMeters>253.600006103515625</AltitudeMeters>
            <DistanceMeters>15991.057398658</DistanceMeters>
          </Trackpoint>
          <Trackpoint>
            <Time>2019-10-04T09:58:41.000Z</Time>
            <Position>
              <LatitudeDegrees>43.40957737527787685394287109375</LatitudeDegrees>
              <LongitudeDegrees>-5.7093137316405773162841796875</LongitudeDegrees>
            </Position>
            <AltitudeMeters>253.600006103515625</AltitudeMeters>
            <DistanceMeters>16036.772656197</DistanceMeters>
          </Trackpoint>
          <Trackpoint>
            <Time>2019-10-04T09:58:45.000Z</Time>
            <Position>
              <LatitudeDegrees>43.409276045858860015869140625</LatitudeDegrees>
              <LongitudeDegrees>-5.7091796211898326873779296875</LongitudeDegrees>
            </Position>
            <AltitudeMeters>253.600006103515625</AltitudeMeters>
            <DistanceMeters>16072.02065086</DistanceMeters>
          </Trackpoint>
          <Trackpoint>
            <Time>2019-10-04T09:58:52.000Z</Time>
            <Position>
              <LatitudeDegrees>43.408783860504627227783203125</LatitudeDegrees>
              <LongitudeDegrees>-5.7089464366436004638671875</LongitudeDegrees>
            </Position>
            <AltitudeMeters>253.399993896484375</AltitudeMeters>
            <DistanceMeters>16129.955781948</DistanceMeters>
          </Trackpoint>
          <Trackpoint>
            <Time>2019-10-04T09:58:58.000Z</Time>
            <Position>
              <LatitudeDegrees>43.40837918221950531005859375</LatitudeDegrees>
              <LongitudeDegrees>-5.70875055156648159027099609375</LongitudeDegrees>
            </Position>
            <AltitudeMeters>253.399993896484375</AltitudeMeters>
            <DistanceMeters>16177.701008704</DistanceMeters>
          </Trackpoint>
          <Trackpoint>
            <Time>2019-10-04T09:59:00.000Z</Time>
            <Position>
              <LatitudeDegrees>43.4082469157874584197998046875</LatitudeDegrees>
              <LongitudeDegrees>-5.7086857594549655914306640625</LongitudeDegrees>
            </Position>
            <AltitudeMeters>253.600006103515625</AltitudeMeters>
            <DistanceMeters>16193.326764269</DistanceMeters>
          </Trackpoint>
          <Trackpoint>
            <Time>2019-10-04T09:59:08.000Z</Time>
            <Position>
              <LatitudeDegrees>43.40772514231503009796142578125</LatitudeDegrees>
              <LongitudeDegrees>-5.70842701010406017303466796875</LongitudeDegrees>
            </Position>
            <AltitudeMeters>253</AltitudeMeters>
            <DistanceMeters>16255.05493593</DistanceMeters>
          </Trackpoint>
          <Trackpoint>
            <Time>2019-10-04T09:59:10.000Z</Time>
            <Position>
              <LatitudeDegrees>43.40759958140552043914794921875</LatitudeDegrees>
              <LongitudeDegrees>-5.70836079306900501251220703125</LongitudeDegrees>
            </Position>
            <AltitudeMeters>252.1999969482421875</AltitudeMeters>
            <DistanceMeters>16270.020964665</DistanceMeters>
          </Trackpoint>
          <Trackpoint>
            <Time>2019-10-04T09:59:11.000Z</Time>
            <Position>
              <LatitudeDegrees>43.40753587894141674041748046875</LatitudeDegrees>
              <LongitudeDegrees>-5.70832978002727031707763671875</LongitudeDegrees>
            </Position>
            <AltitudeMeters>253.1999969482421875</AltitudeMeters>
            <DistanceMeters>16277.541895382</DistanceMeters>
          </Trackpoint>
          <Trackpoint>
            <Time>2019-10-04T09:59:17.000Z</Time>
            <Position>
              <LatitudeDegrees>43.407162129878997802734375</LatitudeDegrees>
              <LongitudeDegrees>-5.70815040729939937591552734375</LongitudeDegrees>
            </Position>
            <AltitudeMeters>252.8000030517578125</AltitudeMeters>
            <DistanceMeters>16321.596899186</DistanceMeters>
          </Trackpoint>
          <Trackpoint>
            <Time>2019-10-04T09:59:25.000Z</Time>
            <Position>
              <LatitudeDegrees>43.406670950353145599365234375</LatitudeDegrees>
              <LongitudeDegrees>-5.70789023302495479583740234375</LongitudeDegrees>
            </Position>
            <AltitudeMeters>253</AltitudeMeters>
            <DistanceMeters>16380.174298051</DistanceMeters>
          </Trackpoint>
          <Trackpoint>
            <Time>2019-10-04T09:59:27.000Z</Time>
            <Position>
              <LatitudeDegrees>43.4065467305481433868408203125</LatitudeDegrees>
              <LongitudeDegrees>-5.707821585237979888916015625</LongitudeDegrees>
            </Position>
            <AltitudeMeters>252.8000030517578125</AltitudeMeters>
            <DistanceMeters>16395.072595906</DistanceMeters>
          </Trackpoint>
          <Trackpoint>
            <Time>2019-10-04T09:59:35.000Z</Time>
            <Position>
              <LatitudeDegrees>43.40606150217354297637939453125</LatitudeDegrees>
              <LongitudeDegrees>-5.707512460649013519287109375</LongitudeDegrees>
            </Position>
            <AltitudeMeters>253</AltitudeMeters>
            <DistanceMeters>16454.583450386</DistanceMeters>
          </Trackpoint>
          <Trackpoint>
            <Time>2019-10-04T09:59:43.000Z</Time>
            <Position>
              <LatitudeDegrees>43.40561239980161190032958984375</LatitudeDegrees>
              <LongitudeDegrees>-5.70712856948375701904296875</LongitudeDegrees>
            </Position>
            <AltitudeMeters>252</AltitudeMeters>
            <DistanceMeters>16513.423942815</DistanceMeters>
          </Trackpoint>
          <Trackpoint>
            <Time>2019-10-04T09:59:51.000Z</Time>
            <Position>
              <LatitudeDegrees>43.40519674122333526611328125</LatitudeDegrees>
              <LongitudeDegrees>-5.70660822093486785888671875</LongitudeDegrees>
            </Position>
            <AltitudeMeters>252</AltitudeMeters>
            <DistanceMeters>16575.959968723</DistanceMeters>
          </Trackpoint>
          <Trackpoint>
            <Time>2019-10-04T09:59:59.000Z</Time>
            <Position>
              <LatitudeDegrees>43.4048073180019855499267578125</LatitudeDegrees>
              <LongitudeDegrees>-5.70610262453556060791015625</LongitudeDegrees>
            </Position>
            <AltitudeMeters>251.399993896484375</AltitudeMeters>
            <DistanceMeters>16635.543158415</DistanceMeters>
          </Trackpoint>
          <Trackpoint>
            <Time>2019-10-04T10:00:00.000Z</Time>
            <Position>
              <LatitudeDegrees>43.40475954115390777587890625</LatitudeDegrees>
              <LongitudeDegrees>-5.70604420267045497894287109375</LongitudeDegrees>
            </Position>
            <AltitudeMeters>251.1999969482421875</AltitudeMeters>
            <DistanceMeters>16642.655576305</DistanceMeters>
          </Trackpoint>
          <Trackpoint>
            <Time>2019-10-04T10:00:05.000Z</Time>
            <Position>
              <LatitudeDegrees>43.40454672463238239288330078125</LatitudeDegrees>
              <LongitudeDegrees>-5.7057795859873294830322265625</LongitudeDegrees>
            </Position>
            <AltitudeMeters>251.1999969482421875</AltitudeMeters>
            <DistanceMeters>16674.576066677</DistanceMeters>
          </Trackpoint>
          <Trackpoint>
            <Time>2019-10-04T10:00:06.000Z</Time>
            <Position>
              <LatitudeDegrees>43.4045059047639369964599609375</LatitudeDegrees>
              <LongitudeDegrees>-5.705731473863124847412109375</LongitudeDegrees>
            </Position>
            <AltitudeMeters>251.1999969482421875</AltitudeMeters>
            <DistanceMeters>16680.557468091</DistanceMeters>
          </Trackpoint>
          <Trackpoint>
            <Time>2019-10-04T10:00:11.000Z</Time>
            <Position>
              <LatitudeDegrees>43.404301218688488006591796875</LatitudeDegrees>
              <LongitudeDegrees>-5.705475993454456329345703125</LongitudeDegrees>
            </Position>
            <AltitudeMeters>251.600006103515625</AltitudeMeters>
            <DistanceMeters>16711.311495579</DistanceMeters>
          </Trackpoint>
          <Trackpoint>
            <Time>2019-10-04T10:00:15.000Z</Time>
            <Position>
              <LatitudeDegrees>43.4041459858417510986328125</LatitudeDegrees>
              <LongitudeDegrees>-5.705269463360309600830078125</LongitudeDegrees>
            </Position>
            <AltitudeMeters>251.8000030517578125</AltitudeMeters>
            <DistanceMeters>16735.34123212</DistanceMeters>
          </Trackpoint>
          <Trackpoint>
            <Time>2019-10-04T10:00:16.000Z</Time>
            <Position>
              <LatitudeDegrees>43.40410734526813030242919921875</LatitudeDegrees>
              <LongitudeDegrees>-5.7052092812955379486083984375</LongitudeDegrees>
            </Position>
            <AltitudeMeters>251.8000030517578125</AltitudeMeters>
            <DistanceMeters>16741.836500947</DistanceMeters>
          </Trackpoint>
          <Trackpoint>
            <Time>2019-10-04T10:00:23.000Z</Time>
            <Position>
              <LatitudeDegrees>43.40385454706847667694091796875</LatitudeDegrees>
              <LongitudeDegrees>-5.7047139108180999755859375</LongitudeDegrees>
            </Position>
            <AltitudeMeters>252.600006103515625</AltitudeMeters>
            <DistanceMeters>16790.7884501</DistanceMeters>
          </Trackpoint>
          <Trackpoint>
            <Time>2019-10-04T10:00:32.000Z</Time>
            <Position>
              <LatitudeDegrees>43.4035827219486236572265625</LatitudeDegrees>
              <LongitudeDegrees>-5.70400245487689971923828125</LongitudeDegrees>
            </Position>
            <AltitudeMeters>251.8000030517578125</AltitudeMeters>
            <DistanceMeters>16855.790056914</DistanceMeters>
          </Trackpoint>
          <Trackpoint>
            <Time>2019-10-04T10:00:38.000Z</Time>
            <Position>
              <LatitudeDegrees>43.40334291569888591766357421875</LatitudeDegrees>
              <LongitudeDegrees>-5.70352041162550449371337890625</LongitudeDegrees>
            </Position>
            <AltitudeMeters>251.399993896484375</AltitudeMeters>
            <DistanceMeters>16903.032576256</DistanceMeters>
          </Trackpoint>
          <Trackpoint>
            <Time>2019-10-04T10:00:39.000Z</Time>
            <Position>
              <LatitudeDegrees>43.40330067090690135955810546875</LatitudeDegrees>
              <LongitudeDegrees>-5.70344765670597553253173828125</LongitudeDegrees>
            </Position>
            <AltitudeMeters>251</AltitudeMeters>
            <DistanceMeters>16910.563106122</DistanceMeters>
          </Trackpoint>
          <Trackpoint>
            <Time>2019-10-04T10:00:42.000Z</Time>
            <Position>
              <LatitudeDegrees>43.4031580947339534759521484375</LatitudeDegrees>
              <LongitudeDegrees>-5.7032559625804424285888671875</LongitudeDegrees>
            </Position>
            <AltitudeMeters>249.8000030517578125</AltitudeMeters>
            <DistanceMeters>16932.746705378</DistanceMeters>
          </Trackpoint>
          <Trackpoint>
            <Time>2019-10-04T10:00:44.000Z</Time>
            <Position>
              <LatitudeDegrees>43.4030618704855442047119140625</LatitudeDegrees>
              <LongitudeDegrees>-5.70312813855707645416259765625</LongitudeDegrees>
            </Position>
            <AltitudeMeters>249.399993896484375</AltitudeMeters>
            <DistanceMeters>16947.631056069</DistanceMeters>
          </Trackpoint>
          <Trackpoint>
            <Time>2019-10-04T10:00:45.000Z</Time>
            <Position>
              <LatitudeDegrees>43.40300864540040493011474609375</LatitudeDegrees>
              <LongitudeDegrees>-5.70307449437677860260009765625</LongitudeDegrees>
            </Position>
            <AltitudeMeters>249</AltitudeMeters>
            <DistanceMeters>16954.973368809</DistanceMeters>
          </Trackpoint>
          <Trackpoint>
            <Time>2019-10-04T10:00:46.000Z</Time>
            <Position>
              <LatitudeDegrees>43.40294628404080867767333984375</LatitudeDegrees>
              <LongitudeDegrees>-5.70303459651768207550048828125</LongitudeDegrees>
            </Position>
            <AltitudeMeters>248.600006103515625</AltitudeMeters>
            <DistanceMeters>16962.627592216</DistanceMeters>
          </Trackpoint>
          <Trackpoint>
            <Time>2019-10-04T10:00:48.000Z</Time>
            <Position>
              <LatitudeDegrees>43.40282843448221683502197265625</LatitudeDegrees>
              <LongitudeDegrees>-5.70295530371367931365966796875</LongitudeDegrees>
            </Position>
            <AltitudeMeters>247.8000030517578125</AltitudeMeters>
            <DistanceMeters>16977.228037915</DistanceMeters>
          </Trackpoint>
          <Trackpoint>
            <Time>2019-10-04T10:00:49.000Z</Time>
            <Position>
              <LatitudeDegrees>43.4027688391506671905517578125</LatitudeDegrees>
              <LongitudeDegrees>-5.7029186747968196868896484375</LongitudeDegrees>
            </Position>
            <AltitudeMeters>247.399993896484375</AltitudeMeters>
            <DistanceMeters>16984.492455768</DistanceMeters>
          </Trackpoint>
          <Trackpoint>
            <Time>2019-10-04T10:00:53.000Z</Time>
            <Position>
              <LatitudeDegrees>43.4025294519960880279541015625</LatitudeDegrees>
              <LongitudeDegrees>-5.702787078917026519775390625</LongitudeDegrees>
            </Position>
            <AltitudeMeters>246.1999969482421875</AltitudeMeters>
            <DistanceMeters>17013.182970722</DistanceMeters>
          </Trackpoint>
          <Trackpoint>
            <Time>2019-10-04T10:00:56.000Z</Time>
            <Position>
              <LatitudeDegrees>43.40234555304050445556640625</LatitudeDegrees>
              <LongitudeDegrees>-5.702704600989818572998046875</LongitudeDegrees>
            </Position>
            <AltitudeMeters>246.600006103515625</AltitudeMeters>
            <DistanceMeters>17034.710664125</DistanceMeters>
          </Trackpoint>
          <Trackpoint>
            <Time>2019-10-04T10:01:03.000Z</Time>
            <Position>
              <LatitudeDegrees>43.401923440396785736083984375</LatitudeDegrees>
              <LongitudeDegrees>-5.702514834702014923095703125</LongitudeDegrees>
            </Position>
            <AltitudeMeters>246.399993896484375</AltitudeMeters>
            <DistanceMeters>17084.135336299</DistanceMeters>
          </Trackpoint>
          <Trackpoint>
            <Time>2019-10-04T10:01:07.000Z</Time>
            <Position>
              <LatitudeDegrees>43.40167407877743244171142578125</LatitudeDegrees>
              <LongitudeDegrees>-5.70241048000752925872802734375</LongitudeDegrees>
            </Position>
            <AltitudeMeters>247</AltitudeMeters>
            <DistanceMeters>17113.144488026</DistanceMeters>
          </Trackpoint>
          <Trackpoint>
            <Time>2019-10-04T10:01:14.000Z</Time>
            <Position>
              <LatitudeDegrees>43.401228748261928558349609375</LatitudeDegrees>
              <LongitudeDegrees>-5.70225742645561695098876953125</LongitudeDegrees>
            </Position>
            <AltitudeMeters>247.399993896484375</AltitudeMeters>
            <DistanceMeters>17164.232726839</DistanceMeters>
          </Trackpoint>
          <Trackpoint>
            <Time>2019-10-04T10:01:20.000Z</Time>
            <Position>
              <LatitudeDegrees>43.400836475193500518798828125</LatitudeDegrees>
              <LongitudeDegrees>-5.70217260159552097320556640625</LongitudeDegrees>
            </Position>
            <AltitudeMeters>246.8000030517578125</AltitudeMeters>
            <DistanceMeters>17208.429037723</DistanceMeters>
          </Trackpoint>
          <Trackpoint>
            <Time>2019-10-04T10:01:28.000Z</Time>
            <Position>
              <LatitudeDegrees>43.4002834372222423553466796875</LatitudeDegrees>
              <LongitudeDegrees>-5.7020965777337551116943359375</LongitudeDegrees>
            </Position>
            <AltitudeMeters>247.399993896484375</AltitudeMeters>
            <DistanceMeters>17270.289531134</DistanceMeters>
          </Trackpoint>
          <Trackpoint>
            <Time>2019-10-04T10:01:29.000Z</Time>
            <Position>
              <LatitudeDegrees>43.40021244250237941741943359375</LatitudeDegrees>
              <LongitudeDegrees>-5.702089704573154449462890625</LongitudeDegrees>
            </Position>
            <AltitudeMeters>247.399993896484375</AltitudeMeters>
            <DistanceMeters>17278.21102097</DistanceMeters>
          </Trackpoint>
          <Trackpoint>
            <Time>2019-10-04T10:01:33.000Z</Time>
            <Position>
              <LatitudeDegrees>43.39992393739521503448486328125</LatitudeDegrees>
              <LongitudeDegrees>-5.70206313394010066986083984375</LongitudeDegrees>
            </Position>
            <AltitudeMeters>247.600006103515625</AltitudeMeters>
            <DistanceMeters>17310.394087451</DistanceMeters>
          </Trackpoint>
          <Trackpoint>
            <Time>2019-10-04T10:01:36.000Z</Time>
            <Position>
              <LatitudeDegrees>43.39970282278954982757568359375</LatitudeDegrees>
              <LongitudeDegrees>-5.70204335264861583709716796875</LongitudeDegrees>
            </Position>
            <AltitudeMeters>248</AltitudeMeters>
            <DistanceMeters>17335.05640342</DistanceMeters>
          </Trackpoint>
          <Trackpoint>
            <Time>2019-10-04T10:01:44.000Z</Time>
            <Position>
              <LatitudeDegrees>43.39909882284700870513916015625</LatitudeDegrees>
              <LongitudeDegrees>-5.70201552473008632659912109375</LongitudeDegrees>
            </Position>
            <AltitudeMeters>247.8000030517578125</AltitudeMeters>
            <DistanceMeters>17402.320484412</DistanceMeters>
          </Trackpoint>
          <Trackpoint>
            <Time>2019-10-04T10:01:48.000Z</Time>
            <Position>
              <LatitudeDegrees>43.39879430830478668212890625</LatitudeDegrees>
              <LongitudeDegrees>-5.70202273316681385040283203125</LongitudeDegrees>
            </Position>
            <AltitudeMeters>247.8000030517578125</AltitudeMeters>
            <DistanceMeters>17436.218526059</DistanceMeters>
          </Trackpoint>
          <Trackpoint>
            <Time>2019-10-04T10:01:54.000Z</Time>
            <Position>
              <LatitudeDegrees>43.3983458764851093292236328125</LatitudeDegrees>
              <LongitudeDegrees>-5.70205341093242168426513671875</LongitudeDegrees>
            </Position>
            <AltitudeMeters>247.8000030517578125</AltitudeMeters>
            <DistanceMeters>17486.191556394</DistanceMeters>
          </Trackpoint>
          <Trackpoint>
            <Time>2019-10-04T10:01:58.000Z</Time>
            <Position>
              <LatitudeDegrees>43.39804840274155139923095703125</LatitudeDegrees>
              <LongitudeDegrees>-5.70210269652307033538818359375</LongitudeDegrees>
            </Position>
            <AltitudeMeters>248.399993896484375</AltitudeMeters>
            <DistanceMeters>17519.539976516</DistanceMeters>
          </Trackpoint>
          <Trackpoint>
            <Time>2019-10-04T10:02:06.000Z</Time>
            <Position>
              <LatitudeDegrees>43.39746468700468540191650390625</LatitudeDegrees>
              <LongitudeDegrees>-5.7022360526025295257568359375</LongitudeDegrees>
            </Position>
            <AltitudeMeters>247.8000030517578125</AltitudeMeters>
            <DistanceMeters>17585.397740272</DistanceMeters>
          </Trackpoint>
          <Trackpoint>
            <Time>2019-10-04T10:02:14.000Z</Time>
            <Position>
              <LatitudeDegrees>43.39691064320504665374755859375</LatitudeDegrees>
              <LongitudeDegrees>-5.70241886191070079803466796875</LongitudeDegrees>
            </Position>
            <AltitudeMeters>247.8000030517578125</AltitudeMeters>
            <DistanceMeters>17648.811395759</DistanceMeters>
          </Trackpoint>
          <Trackpoint>
            <Time>2019-10-04T10:02:15.000Z</Time>
            <Position>
              <LatitudeDegrees>43.39684425853192806243896484375</LatitudeDegrees>
              <LongitudeDegrees>-5.70244752801954746246337890625</LongitudeDegrees>
            </Position>
            <AltitudeMeters>247.8000030517578125</AltitudeMeters>
            <DistanceMeters>17656.55476115</DistanceMeters>
          </Trackpoint>
          <Trackpoint>
            <Time>2019-10-04T10:02:22.000Z</Time>
            <Position>
              <LatitudeDegrees>43.3964026160538196563720703125</LatitudeDegrees>
              <LongitudeDegrees>-5.7026263140141963958740234375</LongitudeDegrees>
            </Position>
            <AltitudeMeters>248</AltitudeMeters>
            <DistanceMeters>17707.792932906</DistanceMeters>
          </Trackpoint>
          <Trackpoint>
            <Time>2019-10-04T10:02:25.000Z</Time>
            <Position>
              <LatitudeDegrees>43.39621528051793575286865234375</LatitudeDegrees>
              <LongitudeDegrees>-5.70269814692437648773193359375</LongitudeDegrees>
            </Position>
            <AltitudeMeters>247.8000030517578125</AltitudeMeters>
            <DistanceMeters>17729.438174559</DistanceMeters>
          </Trackpoint>
          <Trackpoint>
            <Time>2019-10-04T10:02:30.000Z</Time>
            <Position>
              <LatitudeDegrees>43.3959131129086017608642578125</LatitudeDegrees>
              <LongitudeDegrees>-5.7028149068355560302734375</LongitudeDegrees>
            </Position>
            <AltitudeMeters>247.399993896484375</AltitudeMeters>
            <DistanceMeters>17764.37067204</DistanceMeters>
          </Trackpoint>
          <Trackpoint>
            <Time>2019-10-04T10:02:35.000Z</Time>
            <Position>
              <LatitudeDegrees>43.39561463333666324615478515625</LatitudeDegrees>
              <LongitudeDegrees>-5.702918507158756256103515625</LongitudeDegrees>
            </Position>
            <AltitudeMeters>247.399993896484375</AltitudeMeters>
            <DistanceMeters>17798.632250481</DistanceMeters>
          </Trackpoint>
          <Trackpoint>
            <Time>2019-10-04T10:02:42.000Z</Time>
            <Position>
              <LatitudeDegrees>43.39519503526389598846435546875</LatitudeDegrees>
              <LongitudeDegrees>-5.7030148990452289581298828125</LongitudeDegrees>
            </Position>
            <AltitudeMeters>247.399993896484375</AltitudeMeters>
            <DistanceMeters>17845.980449268</DistanceMeters>
          </Trackpoint>
          <Trackpoint>
            <Time>2019-10-04T10:02:46.000Z</Time>
            <Position>
              <LatitudeDegrees>43.39495346881449222564697265625</LatitudeDegrees>
              <LongitudeDegrees>-5.70306594483554363250732421875</LongitudeDegrees>
            </Position>
            <AltitudeMeters>247</AltitudeMeters>
            <DistanceMeters>17873.182333834</DistanceMeters>
          </Trackpoint>
          <Trackpoint>
            <Time>2019-10-04T10:02:55.000Z</Time>
            <Position>
              <LatitudeDegrees>43.39441585354506969451904296875</LatitudeDegrees>
              <LongitudeDegrees>-5.70319712162017822265625</LongitudeDegrees>
            </Position>
            <AltitudeMeters>247.1999969482421875</AltitudeMeters>
            <DistanceMeters>17933.953162147</DistanceMeters>
          </Trackpoint>
          <Trackpoint>
            <Time>2019-10-04T10:02:56.000Z</Time>
            <Position>
              <LatitudeDegrees>43.39435349218547344207763671875</LatitudeDegrees>
              <LongitudeDegrees>-5.703206844627857208251953125</LongitudeDegrees>
            </Position>
            <AltitudeMeters>247.399993896484375</AltitudeMeters>
            <DistanceMeters>17940.938756832</DistanceMeters>
          </Trackpoint>
          <Trackpoint>
            <Time>2019-10-04T10:03:05.000Z</Time>
            <Position>
              <LatitudeDegrees>43.39380137622356414794921875</LatitudeDegrees>
              <LongitudeDegrees>-5.70333014242351055145263671875</LongitudeDegrees>
            </Position>
            <AltitudeMeters>247.600006103515625</AltitudeMeters>
            <DistanceMeters>18003.194237957</DistanceMeters>
          </Trackpoint>
          <Trackpoint>
            <Time>2019-10-04T10:03:07.000Z</Time>
            <Position>
              <LatitudeDegrees>43.39367799460887908935546875</LatitudeDegrees>
              <LongitudeDegrees>-5.70335914380848407745361328125</LongitudeDegrees>
            </Position>
            <AltitudeMeters>247.600006103515625</AltitudeMeters>
            <DistanceMeters>18017.12594507</DistanceMeters>
          </Trackpoint>
          <Trackpoint>
            <Time>2019-10-04T10:03:16.000Z</Time>
            <Position>
              <LatitudeDegrees>43.3931138925254344940185546875</LatitudeDegrees>
              <LongitudeDegrees>-5.703438185155391693115234375</LongitudeDegrees>
            </Position>
            <AltitudeMeters>247.1999969482421875</AltitudeMeters>
            <DistanceMeters>18080.236276057</DistanceMeters>
          </Trackpoint>
          <Trackpoint>
            <Time>2019-10-04T10:03:17.000Z</Time>
            <Position>
              <LatitudeDegrees>43.39305312372744083404541015625</LatitudeDegrees>
              <LongitudeDegrees>-5.703437514603137969970703125</LongitudeDegrees>
            </Position>
            <AltitudeMeters>247</AltitudeMeters>
            <DistanceMeters>18087.001217108</DistanceMeters>
          </Trackpoint>
          <Trackpoint>
            <Time>2019-10-04T10:03:22.000Z</Time>
            <Position>
              <LatitudeDegrees>43.3927477709949016571044921875</LatitudeDegrees>
              <LongitudeDegrees>-5.70334556512534618377685546875</LongitudeDegrees>
            </Position>
            <AltitudeMeters>247</AltitudeMeters>
            <DistanceMeters>18121.791767786</DistanceMeters>
          </Trackpoint>
          <Trackpoint>
            <Time>2019-10-04T10:03:29.000Z</Time>
            <Position>
              <LatitudeDegrees>43.39233512990176677703857421875</LatitudeDegrees>
              <LongitudeDegrees>-5.70311590097844600677490234375</LongitudeDegrees>
            </Position>
            <AltitudeMeters>246.8000030517578125</AltitudeMeters>
            <DistanceMeters>18171.333596957</DistanceMeters>
          </Trackpoint>
          <Trackpoint>
            <Time>2019-10-04T10:03:38.000Z</Time>
            <Position>
              <LatitudeDegrees>43.39181478135287761688232421875</LatitudeDegrees>
              <LongitudeDegrees>-5.7028175890445709228515625</LongitudeDegrees>
            </Position>
            <AltitudeMeters>246.8000030517578125</AltitudeMeters>
            <DistanceMeters>18234.074117064</DistanceMeters>
          </Trackpoint>
          <Trackpoint>
            <Time>2019-10-04T10:03:47.000Z</Time>
            <Position>
              <LatitudeDegrees>43.3912983722984790802001953125</LatitudeDegrees>
              <LongitudeDegrees>-5.702536292374134063720703125</LongitudeDegrees>
            </Position>
            <AltitudeMeters>246.600006103515625</AltitudeMeters>
            <DistanceMeters>18295.89051035</DistanceMeters>
          </Trackpoint>
          <Trackpoint>
            <Time>2019-10-04T10:03:48.000Z</Time>
            <Position>
              <LatitudeDegrees>43.3912407048046588897705078125</LatitudeDegrees>
              <LongitudeDegrees>-5.70250536315143108367919921875</LongitudeDegrees>
            </Position>
            <AltitudeMeters>246.8000030517578125</AltitudeMeters>
            <DistanceMeters>18302.779783301</DistanceMeters>
          </Trackpoint>
          <Trackpoint>
            <Time>2019-10-04T10:03:51.000Z</Time>
            <Position>
              <LatitudeDegrees>43.391059152781963348388671875</LatitudeDegrees>
              <LongitudeDegrees>-5.70242120884358882904052734375</LongitudeDegrees>
            </Position>
            <AltitudeMeters>246.399993896484375</AltitudeMeters>
            <DistanceMeters>18324.102643075</DistanceMeters>
          </Trackpoint>
          <Trackpoint>
            <Time>2019-10-04T10:03:55.000Z</Time>
            <Position>
              <LatitudeDegrees>43.39078900404274463653564453125</LatitudeDegrees>
              <LongitudeDegrees>-5.7023580931127071380615234375</LongitudeDegrees>
            </Position>
            <AltitudeMeters>246.600006103515625</AltitudeMeters>
            <DistanceMeters>18354.601037364</DistanceMeters>
          </Trackpoint>
          <Trackpoint>
            <Time>2019-10-04T10:04:02.000Z</Time>
            <Position>
              <LatitudeDegrees>43.39026714675128459930419921875</LatitudeDegrees>
              <LongitudeDegrees>-5.7023306004703044891357421875</LongitudeDegrees>
            </Position>
            <AltitudeMeters>246.399993896484375</AltitudeMeters>
            <DistanceMeters>18412.727411259</DistanceMeters>
          </Trackpoint>
          <Trackpoint>
            <Time>2019-10-04T10:04:07.000Z</Time>
            <Position>
              <LatitudeDegrees>43.38994025252759456634521484375</LatitudeDegrees>
              <LongitudeDegrees>-5.70231794379651546478271484375</LongitudeDegrees>
            </Position>
            <AltitudeMeters>246.600006103515625</AltitudeMeters>
            <DistanceMeters>18449.125744124</DistanceMeters>
          </Trackpoint>
          <Trackpoint>
            <Time>2019-10-04T10:04:10.000Z</Time>
            <Position>
              <LatitudeDegrees>43.38976456783711910247802734375</LatitudeDegrees>
              <LongitudeDegrees>-5.7023067958652973175048828125</LongitudeDegrees>
            </Position>
            <AltitudeMeters>246.600006103515625</AltitudeMeters>
            <DistanceMeters>18468.700785985</DistanceMeters>
          </Trackpoint>
          <Trackpoint>
            <Time>2019-10-04T10:04:15.000Z</Time>
            <Position>
              <LatitudeDegrees>43.38953607715666294097900390625</LatitudeDegrees>
              <LongitudeDegrees>-5.70229715667665004730224609375</LongitudeDegrees>
            </Position>
            <AltitudeMeters>246.8000030517578125</AltitudeMeters>
            <DistanceMeters>18494.144177666</DistanceMeters>
          </Trackpoint>
          <Trackpoint>
            <Time>2019-10-04T10:04:22.000Z</Time>
            <Position>
              <LatitudeDegrees>43.389273472130298614501953125</LatitudeDegrees>
              <LongitudeDegrees>-5.702274776995182037353515625</LongitudeDegrees>
            </Position>
            <AltitudeMeters>246.8000030517578125</AltitudeMeters>
            <DistanceMeters>18523.428444769</DistanceMeters>
          </Trackpoint>
          <Trackpoint>
            <Time>2019-10-04T10:04:27.000Z</Time>
            <Position>
              <LatitudeDegrees>43.38910407386720180511474609375</LatitudeDegrees>
              <LongitudeDegrees>-5.7022725977003574371337890625</LongitudeDegrees>
            </Position>
            <AltitudeMeters>246.8000030517578125</AltitudeMeters>
            <DistanceMeters>18542.283766025</DistanceMeters>
          </Trackpoint>
          <Trackpoint>
            <Time>2019-10-04T10:04:31.000Z</Time>
            <Position>
              <LatitudeDegrees>43.38897197507321834564208984375</LatitudeDegrees>
              <LongitudeDegrees>-5.70227469317615032196044921875</LongitudeDegrees>
            </Position>
            <AltitudeMeters>246.600006103515625</AltitudeMeters>
            <DistanceMeters>18556.987442103</DistanceMeters>
          </Trackpoint>
          <Trackpoint>
            <Time>2019-10-04T10:04:35.000Z</Time>
            <Position>
              <LatitudeDegrees>43.38883786462247371673583984375</LatitudeDegrees>
              <LongitudeDegrees>-5.702282823622226715087890625</LongitudeDegrees>
            </Position>
            <AltitudeMeters>246.600006103515625</AltitudeMeters>
            <DistanceMeters>18571.928712125</DistanceMeters>
          </Trackpoint>
          <Trackpoint>
            <Time>2019-10-04T10:04:40.000Z</Time>
            <Position>
              <LatitudeDegrees>43.3886778540909290313720703125</LatitudeDegrees>
              <LongitudeDegrees>-5.7023188658058643341064453125</LongitudeDegrees>
            </Position>
            <AltitudeMeters>247</AltitudeMeters>
            <DistanceMeters>18589.975283462</DistanceMeters>
          </Trackpoint>
          <Trackpoint>
            <Time>2019-10-04T10:04:47.000Z</Time>
            <Position>
              <LatitudeDegrees>43.38846252299845218658447265625</LatitudeDegrees>
              <LongitudeDegrees>-5.70240318775177001953125</LongitudeDegrees>
            </Position>
            <AltitudeMeters>247</AltitudeMeters>
            <DistanceMeters>18614.89349139</DistanceMeters>
          </Trackpoint>
          <Trackpoint>
            <Time>2019-10-04T10:04:57.000Z</Time>
            <Position>
              <LatitudeDegrees>43.38814719580113887786865234375</LatitudeDegrees>
              <LongitudeDegrees>-5.7024999149143695831298828125</LongitudeDegrees>
            </Position>
            <AltitudeMeters>246.8000030517578125</AltitudeMeters>
            <DistanceMeters>18650.851404228</DistanceMeters>
          </Trackpoint>
          <Trackpoint>
            <Time>2019-10-04T10:05:05.000Z</Time>
            <Position>
              <LatitudeDegrees>43.38788635097444057464599609375</LatitudeDegrees>
              <LongitudeDegrees>-5.70251843892037868499755859375</LongitudeDegrees>
            </Position>
            <AltitudeMeters>246.399993896484375</AltitudeMeters>
            <DistanceMeters>18679.922746036</DistanceMeters>
          </Trackpoint>
          <Trackpoint>
            <Time>2019-10-04T10:05:07.000Z</Time>
            <Position>
              <LatitudeDegrees>43.38782315142452716827392578125</LatitudeDegrees>
              <LongitudeDegrees>-5.70250972174108028411865234375</LongitudeDegrees>
            </Position>
            <AltitudeMeters>246.600006103515625</AltitudeMeters>
            <DistanceMeters>18686.991865008</DistanceMeters>
          </Trackpoint>
          <Trackpoint>
            <Time>2019-10-04T10:05:18.000Z</Time>
            <Position>
              <LatitudeDegrees>43.3874879591166973114013671875</LatitudeDegrees>
              <LongitudeDegrees>-5.702406205236911773681640625</LongitudeDegrees>
            </Position>
            <AltitudeMeters>246</AltitudeMeters>
            <DistanceMeters>18725.227573139</DistanceMeters>
          </Trackpoint>
          <Trackpoint>
            <Time>2019-10-04T10:05:25.000Z</Time>
            <Position>
              <LatitudeDegrees>43.38728453032672405242919921875</LatitudeDegrees>
              <LongitudeDegrees>-5.70228190161287784576416015625</LongitudeDegrees>
            </Position>
            <AltitudeMeters>245.600006103515625</AltitudeMeters>
            <DistanceMeters>18750.001677275</DistanceMeters>
          </Trackpoint>
          <Trackpoint>
            <Time>2019-10-04T10:05:29.000Z</Time>
            <Position>
              <LatitudeDegrees>43.3871691115200519561767578125</LatitudeDegrees>
              <LongitudeDegrees>-5.7022085599601268768310546875</LongitudeDegrees>
            </Position>
            <AltitudeMeters>245.399993896484375</AltitudeMeters>
            <DistanceMeters>18764.151407128</DistanceMeters>
          </Trackpoint>
          <Trackpoint>
            <Time>2019-10-04T10:05:38.000Z</Time>
            <Position>
              <LatitudeDegrees>43.38690097443759441375732421875</LatitudeDegrees>
              <LongitudeDegrees>-5.70206992328166961669921875</LongitudeDegrees>
            </Position>
            <AltitudeMeters>245.600006103515625</AltitudeMeters>
            <DistanceMeters>18796.032976014</DistanceMeters>
          </Trackpoint>
          <Trackpoint>
            <Time>2019-10-04T10:05:50.000Z</Time>
            <Position>
              <LatitudeDegrees>43.38654063642024993896484375</LatitudeDegrees>
              <LongitudeDegrees>-5.70191167294979095458984375</LongitudeDegrees>
            </Position>
            <AltitudeMeters>245.399993896484375</AltitudeMeters>
            <DistanceMeters>18838.132491735</DistanceMeters>
          </Trackpoint>
          <Trackpoint>
            <Time>2019-10-04T10:06:04.000Z</Time>
            <Position>
              <LatitudeDegrees>43.38610184378921985626220703125</LatitudeDegrees>
              <LongitudeDegrees>-5.70172928273677825927734375</LongitudeDegrees>
            </Position>
            <AltitudeMeters>245.399993896484375</AltitudeMeters>
            <DistanceMeters>18889.15059925</DistanceMeters>
          </Trackpoint>
          <Trackpoint>
            <Time>2019-10-04T10:06:14.000Z</Time>
            <Position>
              <LatitudeDegrees>43.3857378177344799041748046875</LatitudeDegrees>
              <LongitudeDegrees>-5.70155368186533451080322265625</LongitudeDegrees>
            </Position>
            <AltitudeMeters>245.600006103515625</AltitudeMeters>
            <DistanceMeters>18932.085115843</DistanceMeters>
          </Trackpoint>
          <Trackpoint>
            <Time>2019-10-04T10:06:20.000Z</Time>
            <Position>
              <LatitudeDegrees>43.38545945473015308380126953125</LatitudeDegrees>
              <LongitudeDegrees>-5.70142208598554134368896484375</LongitudeDegrees>
            </Position>
            <AltitudeMeters>245.600006103515625</AltitudeMeters>
            <DistanceMeters>18964.845222457</DistanceMeters>
          </Trackpoint>
          <Trackpoint>
            <Time>2019-10-04T10:06:29.000Z</Time>
            <Position>
              <LatitudeDegrees>43.384989313781261444091796875</LatitudeDegrees>
              <LongitudeDegrees>-5.70120683871209621429443359375</LongitudeDegrees>
            </Position>
            <AltitudeMeters>245.8000030517578125</AltitudeMeters>
            <DistanceMeters>19019.993393018</DistanceMeters>
          </Trackpoint>
          <Trackpoint>
            <Time>2019-10-04T10:06:34.000Z</Time>
            <Position>
              <LatitudeDegrees>43.38467105291783809661865234375</LatitudeDegrees>
              <LongitudeDegrees>-5.70106820203363895416259765625</LongitudeDegrees>
            </Position>
            <AltitudeMeters>246</AltitudeMeters>
            <DistanceMeters>19057.149202888</DistanceMeters>
          </Trackpoint>
          <Trackpoint>
            <Time>2019-10-04T10:06:35.000Z</Time>
            <Position>
              <LatitudeDegrees>43.38459444232285022735595703125</LatitudeDegrees>
              <LongitudeDegrees>-5.70103936828672885894775390625</LongitudeDegrees>
            </Position>
            <AltitudeMeters>245.8000030517578125</AltitudeMeters>
            <DistanceMeters>19065.989752171</DistanceMeters>
          </Trackpoint>
          <Trackpoint>
            <Time>2019-10-04T10:06:39.000Z</Time>
            <Position>
              <LatitudeDegrees>43.38430074043571949005126953125</LatitudeDegrees>
              <LongitudeDegrees>-5.70091330446302890777587890625</LongitudeDegrees>
            </Position>
            <AltitudeMeters>245.399993896484375</AltitudeMeters>
            <DistanceMeters>19100.232876248</DistanceMeters>
          </Trackpoint>
          <Trackpoint>
            <Time>2019-10-04T10:06:42.000Z</Time>
            <Position>
              <LatitudeDegrees>43.38406805880367755889892578125</LatitudeDegrees>
              <LongitudeDegrees>-5.7008161582052707672119140625</LongitudeDegrees>
            </Position>
            <AltitudeMeters>245.1999969482421875</AltitudeMeters>
            <DistanceMeters>19127.296644657</DistanceMeters>
          </Trackpoint>
          <Trackpoint>
            <Time>2019-10-04T10:06:43.000Z</Time>
            <Position>
              <LatitudeDegrees>43.3839876763522624969482421875</LatitudeDegrees>
              <LongitudeDegrees>-5.7007846422493457794189453125</LongitudeDegrees>
            </Position>
            <AltitudeMeters>245.1999969482421875</AltitudeMeters>
            <DistanceMeters>19136.599561008</DistanceMeters>
          </Trackpoint>
          <Trackpoint>
            <Time>2019-10-04T10:06:46.000Z</Time>
            <Position>
              <LatitudeDegrees>43.38373680599033832550048828125</LatitudeDegrees>
              <LongitudeDegrees>-5.700689256191253662109375</LongitudeDegrees>
            </Position>
            <AltitudeMeters>245.1999969482421875</AltitudeMeters>
            <DistanceMeters>19165.568529306</DistanceMeters>
          </Trackpoint>
          <Trackpoint>
            <Time>2019-10-04T10:06:49.000Z</Time>
            <Position>
              <LatitudeDegrees>43.383476547896862030029296875</LatitudeDegrees>
              <LongitudeDegrees>-5.70061122067272663116455078125</LongitudeDegrees>
            </Position>
            <AltitudeMeters>245.600006103515625</AltitudeMeters>
            <DistanceMeters>19195.215645873</DistanceMeters>
          </Trackpoint>
          <Trackpoint>
            <Time>2019-10-04T10:06:52.000Z</Time>
            <Position>
              <LatitudeDegrees>43.38322048075497150421142578125</LatitudeDegrees>
              <LongitudeDegrees>-5.700549781322479248046875</LongitudeDegrees>
            </Position>
            <AltitudeMeters>244.8000030517578125</AltitudeMeters>
            <DistanceMeters>19224.146559886</DistanceMeters>
          </Trackpoint>
          <Trackpoint>
            <Time>2019-10-04T10:06:57.000Z</Time>
            <Position>
              <LatitudeDegrees>43.382872380316257476806640625</LatitudeDegrees>
              <LongitudeDegrees>-5.700421370565891265869140625</LongitudeDegrees>
            </Position>
            <AltitudeMeters>245.1999969482421875</AltitudeMeters>
            <DistanceMeters>19264.259090859</DistanceMeters>
          </Trackpoint>
          <Trackpoint>
            <Time>2019-10-04T10:07:07.000Z</Time>
            <Position>
              <LatitudeDegrees>43.3823557198047637939453125</LatitudeDegrees>
              <LongitudeDegrees>-5.70021450519561767578125</LongitudeDegrees>
            </Position>
            <AltitudeMeters>244.8000030517578125</AltitudeMeters>
            <DistanceMeters>19324.149748267</DistanceMeters>
          </Trackpoint>
          <Trackpoint>
            <Time>2019-10-04T10:07:09.000Z</Time>
            <Position>
              <LatitudeDegrees>43.38224432431161403656005859375</LatitudeDegrees>
              <LongitudeDegrees>-5.70016999728977680206298828125</LongitudeDegrees>
            </Position>
            <AltitudeMeters>244.399993896484375</AltitudeMeters>
            <DistanceMeters>19337.060448523</DistanceMeters>
          </Trackpoint>
          <Trackpoint>
            <Time>2019-10-04T10:07:14.000Z</Time>
            <Position>
              <LatitudeDegrees>43.38192933239042758941650390625</LatitudeDegrees>
              <LongitudeDegrees>-5.7000664807856082916259765625</LongitudeDegrees>
            </Position>
            <AltitudeMeters>245.1999969482421875</AltitudeMeters>
            <DistanceMeters>19373.105773586</DistanceMeters>
          </Trackpoint>
          <Trackpoint>
            <Time>2019-10-04T10:07:17.000Z</Time>
            <Position>
              <LatitudeDegrees>43.38171173818409442901611328125</LatitudeDegrees>
              <LongitudeDegrees>-5.7000155188143253326416015625</LongitudeDegrees>
            </Position>
            <AltitudeMeters>244.8000030517578125</AltitudeMeters>
            <DistanceMeters>19397.672706427</DistanceMeters>
          </Trackpoint>
          <Trackpoint>
            <Time>2019-10-04T10:07:19.000Z</Time>
            <Position>
              <LatitudeDegrees>43.38155818171799182891845703125</LatitudeDegrees>
              <LongitudeDegrees>-5.7000594399869441986083984375</LongitudeDegrees>
            </Position>
            <AltitudeMeters>244.8000030517578125</AltitudeMeters>
            <DistanceMeters>19415.129194037</DistanceMeters>
          </Trackpoint>
          <Trackpoint>
            <Time>2019-10-04T10:07:22.000Z</Time>
            <Position>
              <LatitudeDegrees>43.38135969825088977813720703125</LatitudeDegrees>
              <LongitudeDegrees>-5.700009651482105255126953125</LongitudeDegrees>
            </Position>
            <AltitudeMeters>243.8000030517578125</AltitudeMeters>
            <DistanceMeters>19437.585275372</DistanceMeters>
          </Trackpoint>
          <Trackpoint>
            <Time>2019-10-04T10:07:24.000Z</Time>
            <Position>
              <LatitudeDegrees>43.38129381649196147918701171875</LatitudeDegrees>
              <LongitudeDegrees>-5.6998465396463871002197265625</LongitudeDegrees>
            </Position>
            <AltitudeMeters>243.600006103515625</AltitudeMeters>
            <DistanceMeters>19452.680471594</DistanceMeters>
          </Trackpoint>
          <Trackpoint>
            <Time>2019-10-04T10:07:25.000Z</Time>
            <Position>
              <LatitudeDegrees>43.38127705268561840057373046875</LatitudeDegrees>
              <LongitudeDegrees>-5.69975023157894611358642578125</LongitudeDegrees>
            </Position>
            <AltitudeMeters>243.399993896484375</AltitudeMeters>
            <DistanceMeters>19460.690947436</DistanceMeters>
          </Trackpoint>
          <Trackpoint>
            <Time>2019-10-04T10:07:26.000Z</Time>
            <Position>
              <LatitudeDegrees>43.38125157169997692108154296875</LatitudeDegrees>
              <LongitudeDegrees>-5.6996658258140087127685546875</LongitudeDegrees>
            </Position>
            <AltitudeMeters>243.1999969482421875</AltitudeMeters>
            <DistanceMeters>19468.084734205</DistanceMeters>
          </Trackpoint>
          <Trackpoint>
            <Time>2019-10-04T10:07:27.000Z</Time>
            <Position>
              <LatitudeDegrees>43.38120882399380207061767578125</LatitudeDegrees>
              <LongitudeDegrees>-5.69959734566509723663330078125</LongitudeDegrees>
            </Position>
            <AltitudeMeters>242.8000030517578125</AltitudeMeters>
            <DistanceMeters>19475.386348501</DistanceMeters>
          </Trackpoint>
          <Trackpoint>
            <Time>2019-10-04T10:07:29.000Z</Time>
            <Position>
              <LatitudeDegrees>43.38109348900616168975830078125</LatitudeDegrees>
              <LongitudeDegrees>-5.69951436482369899749755859375</LongitudeDegrees>
            </Position>
            <AltitudeMeters>242.399993896484375</AltitudeMeters>
            <DistanceMeters>19489.872546984</DistanceMeters>
          </Trackpoint>
          <Trackpoint>
            <Time>2019-10-04T10:07:30.000Z</Time>
            <Position>
              <LatitudeDegrees>43.3810307085514068603515625</LatitudeDegrees>
              <LongitudeDegrees>-5.69948703981935977935791015625</LongitudeDegrees>
            </Position>
            <AltitudeMeters>242</AltitudeMeters>
            <DistanceMeters>19497.201318688</DistanceMeters>
          </Trackpoint>
          <Trackpoint>
            <Time>2019-10-04T10:07:31.000Z</Time>
            <Position>
              <LatitudeDegrees>43.38096708990633487701416015625</LatitudeDegrees>
              <LongitudeDegrees>-5.69946189410984516143798828125</LongitudeDegrees>
            </Position>
            <AltitudeMeters>241.1999969482421875</AltitudeMeters>
            <DistanceMeters>19504.568187726</DistanceMeters>
          </Trackpoint>
          <Trackpoint>
            <Time>2019-10-04T10:07:38.000Z</Time>
            <Position>
              <LatitudeDegrees>43.38054648600518703460693359375</LatitudeDegrees>
              <LongitudeDegrees>-5.6992958486080169677734375</LongitudeDegrees>
            </Position>
            <AltitudeMeters>241</AltitudeMeters>
            <DistanceMeters>19553.271117104</DistanceMeters>
          </Trackpoint>
          <Trackpoint>
            <Time>2019-10-04T10:07:45.000Z</Time>
            <Position>
              <LatitudeDegrees>43.3801930211484432220458984375</LatitudeDegrees>
              <LongitudeDegrees>-5.69914874620735645294189453125</LongitudeDegrees>
            </Position>
            <AltitudeMeters>241</AltitudeMeters>
            <DistanceMeters>19594.372780101</DistanceMeters>
          </Trackpoint>
          <Trackpoint>
            <Time>2019-10-04T10:07:48.000Z</Time>
            <Position>
              <LatitudeDegrees>43.3800646103918552398681640625</LatitudeDegrees>
              <LongitudeDegrees>-5.6991085968911647796630859375</LongitudeDegrees>
            </Position>
            <AltitudeMeters>241</AltitudeMeters>
            <DistanceMeters>19609.029707425</DistanceMeters>
          </Trackpoint>
          <Trackpoint>
            <Time>2019-10-04T10:07:51.000Z</Time>
            <Position>
              <LatitudeDegrees>43.3799325115978717803955078125</LatitudeDegrees>
              <LongitudeDegrees>-5.69909560494124889373779296875</LongitudeDegrees>
            </Position>
            <AltitudeMeters>241.399993896484375</AltitudeMeters>
            <DistanceMeters>19623.770185688</DistanceMeters>
          </Trackpoint>
          <Trackpoint>
            <Time>2019-10-04T10:07:53.000Z</Time>
            <Position>
              <LatitudeDegrees>43.37985514663159847259521484375</LatitudeDegrees>
              <LongitudeDegrees>-5.6990666873753070831298828125</LongitudeDegrees>
            </Position>
            <AltitudeMeters>241.399993896484375</AltitudeMeters>
            <DistanceMeters>19632.693593898</DistanceMeters>
          </Trackpoint>
          <Trackpoint>
            <Time>2019-10-04T10:07:54.000Z</Time>
            <Position>
              <LatitudeDegrees>43.379815332591533660888671875</LatitudeDegrees>
              <LongitudeDegrees>-5.69903223775327205657958984375</LongitudeDegrees>
            </Position>
            <AltitudeMeters>241.600006103515625</AltitudeMeters>
            <DistanceMeters>19637.928694852</DistanceMeters>
          </Trackpoint>
          <Trackpoint>
            <Time>2019-10-04T10:07:56.000Z</Time>
            <Position>
              <LatitudeDegrees>43.37974215857684612274169921875</LatitudeDegrees>
              <LongitudeDegrees>-5.698974989354610443115234375</LongitudeDegrees>
            </Position>
            <AltitudeMeters>241.600006103515625</AltitudeMeters>
            <DistanceMeters>19647.298348164</DistanceMeters>
          </Trackpoint>
          <Trackpoint>
            <Time>2019-10-04T10:08:01.000Z</Time>
            <Position>
              <LatitudeDegrees>43.37954702787101268768310546875</LatitudeDegrees>
              <LongitudeDegrees>-5.698876082897186279296875</LongitudeDegrees>
            </Position>
            <AltitudeMeters>241.399993896484375</AltitudeMeters>
            <DistanceMeters>19670.443547558</DistanceMeters>
          </Trackpoint>
          <Trackpoint>
            <Time>2019-10-04T10:08:04.000Z</Time>
            <Position>
              <LatitudeDegrees>43.379429765045642852783203125</LatitudeDegrees>
              <LongitudeDegrees>-5.6988236121833324432373046875</LongitudeDegrees>
            </Position>
            <AltitudeMeters>241.600006103515625</AltitudeMeters>
            <DistanceMeters>19684.167918747</DistanceMeters>
          </Trackpoint>
          <Trackpoint>
            <Time>2019-10-04T10:08:09.000Z</Time>
            <Position>
              <LatitudeDegrees>43.37924477644264698028564453125</LatitudeDegrees>
              <LongitudeDegrees>-5.69874188862740993499755859375</LongitudeDegrees>
            </Position>
            <AltitudeMeters>241.600006103515625</AltitudeMeters>
            <DistanceMeters>19705.792917448</DistanceMeters>
          </Trackpoint>
          <Trackpoint>
            <Time>2019-10-04T10:08:12.000Z</Time>
            <Position>
              <LatitudeDegrees>43.37913882918655872344970703125</LatitudeDegrees>
              <LongitudeDegrees>-5.698700733482837677001953125</LongitudeDegrees>
            </Position>
            <AltitudeMeters>242</AltitudeMeters>
            <DistanceMeters>19718.046206028</DistanceMeters>
          </Trackpoint>
          <Trackpoint>
            <Time>2019-10-04T10:08:19.000Z</Time>
            <Position>
              <LatitudeDegrees>43.3788991905748844146728515625</LatitudeDegrees>
              <LongitudeDegrees>-5.69860090501606464385986328125</LongitudeDegrees>
            </Position>
            <AltitudeMeters>242</AltitudeMeters>
            <DistanceMeters>19745.914481085</DistanceMeters>
          </Trackpoint>
          <Trackpoint>
            <Time>2019-10-04T10:08:22.000Z</Time>
            <Position>
              <LatitudeDegrees>43.37879173457622528076171875</LatitudeDegrees>
              <LongitudeDegrees>-5.69858313538134098052978515625</LongitudeDegrees>
            </Position>
            <AltitudeMeters>242</AltitudeMeters>
            <DistanceMeters>19757.960780453</DistanceMeters>
          </Trackpoint>
          <Trackpoint>
            <Time>2019-10-04T10:08:27.000Z</Time>
            <Position>
              <LatitudeDegrees>43.37861143983900547027587890625</LatitudeDegrees>
              <LongitudeDegrees>-5.69855480454862117767333984375</LongitudeDegrees>
            </Position>
            <AltitudeMeters>242.399993896484375</AltitudeMeters>
            <DistanceMeters>19778.158372721</DistanceMeters>
          </Trackpoint>
          <Trackpoint>
            <Time>2019-10-04T10:08:30.000Z</Time>
            <Position>
              <LatitudeDegrees>43.37850331328809261322021484375</LatitudeDegrees>
              <LongitudeDegrees>-5.6985332630574703216552734375</LongitudeDegrees>
            </Position>
            <AltitudeMeters>242.1999969482421875</AltitudeMeters>
            <DistanceMeters>19790.318822213</DistanceMeters>
          </Trackpoint>
          <Trackpoint>
            <Time>2019-10-04T10:08:37.000Z</Time>
            <Position>
              <LatitudeDegrees>43.3782625012099742889404296875</LatitudeDegrees>
              <LongitudeDegrees>-5.69843343459069728851318359375</LongitudeDegrees>
            </Position>
            <AltitudeMeters>242.1999969482421875</AltitudeMeters>
            <DistanceMeters>19818.312053604</DistanceMeters>
          </Trackpoint>
          <Trackpoint>
            <Time>2019-10-04T10:08:38.000Z</Time>
            <Position>
              <LatitudeDegrees>43.3782323263585567474365234375</LatitudeDegrees>
              <LongitudeDegrees>-5.69841080345213413238525390625</LongitudeDegrees>
            </Position>
            <AltitudeMeters>242.1999969482421875</AltitudeMeters>
            <DistanceMeters>19822.136805078</DistanceMeters>
          </Trackpoint>
          <Trackpoint>
            <Time>2019-10-04T10:08:44.000Z</Time>
            <Position>
              <LatitudeDegrees>43.37803828530013561248779296875</LatitudeDegrees>
              <LongitudeDegrees>-5.69826127029955387115478515625</LongitudeDegrees>
            </Position>
            <AltitudeMeters>242.399993896484375</AltitudeMeters>
            <DistanceMeters>19846.890853784</DistanceMeters>
          </Trackpoint>
          <Trackpoint>
            <Time>2019-10-04T10:08:48.000Z</Time>
            <Position>
              <LatitudeDegrees>43.37790928781032562255859375</LatitudeDegrees>
              <LongitudeDegrees>-5.69817275740206241607666015625</LongitudeDegrees>
            </Position>
            <AltitudeMeters>242.399993896484375</AltitudeMeters>
            <DistanceMeters>19862.934898135</DistanceMeters>
          </Trackpoint>
          <Trackpoint>
            <Time>2019-10-04T10:08:56.000Z</Time>
            <Position>
              <LatitudeDegrees>43.37763863615691661834716796875</LatitudeDegrees>
              <LongitudeDegrees>-5.69802925921976566314697265625</LongitudeDegrees>
            </Position>
            <AltitudeMeters>242.399993896484375</AltitudeMeters>
            <DistanceMeters>19895.218397526</DistanceMeters>
          </Trackpoint>
          <Trackpoint>
            <Time>2019-10-04T10:09:04.000Z</Time>
            <Position>
              <LatitudeDegrees>43.37737209163606166839599609375</LatitudeDegrees>
              <LongitudeDegrees>-5.69787804968655109405517578125</LongitudeDegrees>
            </Position>
            <AltitudeMeters>242.8000030517578125</AltitudeMeters>
            <DistanceMeters>19927.308315373</DistanceMeters>
          </Trackpoint>
          <Trackpoint>
            <Time>2019-10-04T10:09:14.000Z</Time>
            <Position>
              <LatitudeDegrees>43.377019129693508148193359375</LatitudeDegrees>
              <LongitudeDegrees>-5.69767604582011699676513671875</LongitudeDegrees>
            </Position>
            <AltitudeMeters>243</AltitudeMeters>
            <DistanceMeters>19969.857262904</DistanceMeters>
          </Trackpoint>
          <Trackpoint>
            <Time>2019-10-04T10:09:23.000Z</Time>
            <Position>
              <LatitudeDegrees>43.3766404353082180023193359375</LatitudeDegrees>
              <LongitudeDegrees>-5.69745291955769062042236328125</LongitudeDegrees>
            </Position>
            <AltitudeMeters>243.1999969482421875</AltitudeMeters>
            <DistanceMeters>20015.709301986</DistanceMeters>
          </Trackpoint>
          <Trackpoint>
            <Time>2019-10-04T10:09:30.000Z</Time>
            <Position>
              <LatitudeDegrees>43.37630038149654865264892578125</LatitudeDegrees>
              <LongitudeDegrees>-5.697253011167049407958984375</LongitudeDegrees>
            </Position>
            <AltitudeMeters>243.1999969482421875</AltitudeMeters>
            <DistanceMeters>20056.868486394</DistanceMeters>
          </Trackpoint>
          <Trackpoint>
            <Time>2019-10-04T10:09:32.000Z</Time>
            <Position>
              <LatitudeDegrees>43.37619191966950893402099609375</LatitudeDegrees>
              <LongitudeDegrees>-5.6971914879977703094482421875</LongitudeDegrees>
            </Position>
            <AltitudeMeters>243</AltitudeMeters>
            <DistanceMeters>20069.926623072</DistanceMeters>
          </Trackpoint>
          <Trackpoint>
            <Time>2019-10-04T10:09:39.000Z</Time>
            <Position>
              <LatitudeDegrees>43.3757797814905643463134765625</LatitudeDegrees>
              <LongitudeDegrees>-5.6969504244625568389892578125</LongitudeDegrees>
            </Position>
            <AltitudeMeters>243</AltitudeMeters>
            <DistanceMeters>20119.772097823</DistanceMeters>
          </Trackpoint>
          <Trackpoint>
            <Time>2019-10-04T10:09:41.000Z</Time>
            <Position>
              <LatitudeDegrees>43.375653885304927825927734375</LatitudeDegrees>
              <LongitudeDegrees>-5.696872808039188385009765625</LongitudeDegrees>
            </Position>
            <AltitudeMeters>243</AltitudeMeters>
            <DistanceMeters>20135.127662159</DistanceMeters>
          </Trackpoint>
          <Trackpoint>
            <Time>2019-10-04T10:09:45.000Z</Time>
            <Position>
              <LatitudeDegrees>43.37540318258106708526611328125</LatitudeDegrees>
              <LongitudeDegrees>-5.6967244483530521392822265625</LongitudeDegrees>
            </Position>
            <AltitudeMeters>243.1999969482421875</AltitudeMeters>
            <DistanceMeters>20165.503230482</DistanceMeters>
          </Trackpoint>
          <Trackpoint>
            <Time>2019-10-04T10:09:46.000Z</Time>
            <Position>
              <LatitudeDegrees>43.375342749059200286865234375</LatitudeDegrees>
              <LongitudeDegrees>-5.6966862268745899200439453125</LongitudeDegrees>
            </Position>
            <AltitudeMeters>243.600006103515625</AltitudeMeters>
            <DistanceMeters>20172.90617138</DistanceMeters>
          </Trackpoint>
          <Trackpoint>
            <Time>2019-10-04T10:09:49.000Z</Time>
            <Position>
              <LatitudeDegrees>43.3751725964248180389404296875</LatitudeDegrees>
              <LongitudeDegrees>-5.69655789993703365325927734375</LongitudeDegrees>
            </Position>
            <AltitudeMeters>243.399993896484375</AltitudeMeters>
            <DistanceMeters>20194.503383437</DistanceMeters>
          </Trackpoint>
          <Trackpoint>
            <Time>2019-10-04T10:09:52.000Z</Time>
            <Position>
              <LatitudeDegrees>43.3750187046825885772705078125</LatitudeDegrees>
              <LongitudeDegrees>-5.69639344699680805206298828125</LongitudeDegrees>
            </Position>
            <AltitudeMeters>243.600006103515625</AltitudeMeters>
            <DistanceMeters>20216.192177137</DistanceMeters>
          </Trackpoint>
          <Trackpoint>
            <Time>2019-10-04T10:09:55.000Z</Time>
            <Position>
              <LatitudeDegrees>43.37487637996673583984375</LatitudeDegrees>
              <LongitudeDegrees>-5.69618406705558300018310546875</LongitudeDegrees>
            </Position>
            <AltitudeMeters>243.8000030517578125</AltitudeMeters>
            <DistanceMeters>20239.384536514</DistanceMeters>
          </Trackpoint>
          <Trackpoint>
            <Time>2019-10-04T10:09:57.000Z</Time>
            <Position>
              <LatitudeDegrees>43.37478225119411945343017578125</LatitudeDegrees>
              <LongitudeDegrees>-5.69603134877979755401611328125</LongitudeDegrees>
            </Position>
            <AltitudeMeters>243.8000030517578125</AltitudeMeters>
            <DistanceMeters>20255.584013405</DistanceMeters>
          </Trackpoint>
          <Trackpoint>
            <Time>2019-10-04T10:10:00.000Z</Time>
            <Position>
              <LatitudeDegrees>43.37463640607893466949462890625</LatitudeDegrees>
              <LongitudeDegrees>-5.695776455104351043701171875</LongitudeDegrees>
            </Position>
            <AltitudeMeters>244</AltitudeMeters>
            <DistanceMeters>20281.828251833</DistanceMeters>
          </Trackpoint>
          <Trackpoint>
            <Time>2019-10-04T10:10:02.000Z</Time>
            <Position>
              <LatitudeDegrees>43.374538756906986236572265625</LatitudeDegrees>
              <LongitudeDegrees>-5.69559280760586261749267578125</LongitudeDegrees>
            </Position>
            <AltitudeMeters>244</AltitudeMeters>
            <DistanceMeters>20300.236719415</DistanceMeters>
          </Trackpoint>
          <Trackpoint>
            <Time>2019-10-04T10:10:05.000Z</Time>
            <Position>
              <LatitudeDegrees>43.374386541545391082763671875</LatitudeDegrees>
              <LongitudeDegrees>-5.6953239999711513519287109375</LongitudeDegrees>
            </Position>
            <AltitudeMeters>244.1999969482421875</AltitudeMeters>
            <DistanceMeters>20327.80429518</DistanceMeters>
          </Trackpoint>
          <Trackpoint>
            <Time>2019-10-04T10:10:08.000Z</Time>
            <Position>
              <LatitudeDegrees>43.3741989545524120330810546875</LatitudeDegrees>
              <LongitudeDegrees>-5.6950775720179080963134765625</LongitudeDegrees>
            </Position>
            <AltitudeMeters>244.1999969482421875</AltitudeMeters>
            <DistanceMeters>20356.673029394</DistanceMeters>
          </Trackpoint>
          <Trackpoint>
            <Time>2019-10-04T10:10:09.000Z</Time>
            <Position>
              <LatitudeDegrees>43.3741238526999950408935546875</LatitudeDegrees>
              <LongitudeDegrees>-5.69501026533544063568115234375</LongitudeDegrees>
            </Position>
            <AltitudeMeters>244.399993896484375</AltitudeMeters>
            <DistanceMeters>20366.649476786</DistanceMeters>
          </Trackpoint>
          <Trackpoint>
            <Time>2019-10-04T10:10:11.000Z</Time>
            <Position>
              <LatitudeDegrees>43.37395378388464450836181640625</LatitudeDegrees>
              <LongitudeDegrees>-5.69490951485931873321533203125</LongitudeDegrees>
            </Position>
            <AltitudeMeters>244.1999969482421875</AltitudeMeters>
            <DistanceMeters>20387.259104046</DistanceMeters>
          </Trackpoint>
          <Trackpoint>
            <Time>2019-10-04T10:10:13.000Z</Time>
            <Position>
              <LatitudeDegrees>43.37376971729099750518798828125</LatitudeDegrees>
              <LongitudeDegrees>-5.694846399128437042236328125</LongitudeDegrees>
            </Position>
            <AltitudeMeters>244.1999969482421875</AltitudeMeters>
            <DistanceMeters>20408.373005009</DistanceMeters>
          </Trackpoint>
          <Trackpoint>
            <Time>2019-10-04T10:10:16.000Z</Time>
            <Position>
              <LatitudeDegrees>43.3734911866486072540283203125</LatitudeDegrees>
              <LongitudeDegrees>-5.694789402186870574951171875</LongitudeDegrees>
            </Position>
            <AltitudeMeters>244.399993896484375</AltitudeMeters>
            <DistanceMeters>20439.715114636</DistanceMeters>
          </Trackpoint>
          <Trackpoint>
            <Time>2019-10-04T10:10:21.000Z</Time>
            <Position>
              <LatitudeDegrees>43.37305272929370403289794921875</LatitudeDegrees>
              <LongitudeDegrees>-5.69470499642193317413330078125</LongitudeDegrees>
            </Position>
            <AltitudeMeters>244.600006103515625</AltitudeMeters>
            <DistanceMeters>20488.991757742</DistanceMeters>
          </Trackpoint>
          <Trackpoint>
            <Time>2019-10-04T10:10:23.000Z</Time>
            <Position>
              <LatitudeDegrees>43.3728897012770175933837890625</LatitudeDegrees>
              <LongitudeDegrees>-5.6946717202663421630859375</LongitudeDegrees>
            </Position>
            <AltitudeMeters>244.600006103515625</AltitudeMeters>
            <DistanceMeters>20507.335605992</DistanceMeters>
          </Trackpoint>
          <Trackpoint>
            <Time>2019-10-04T10:10:29.000Z</Time>
            <Position>
              <LatitudeDegrees>43.37239868938922882080078125</LatitudeDegrees>
              <LongitudeDegrees>-5.69457340054214000701904296875</LongitudeDegrees>
            </Position>
            <AltitudeMeters>244.600006103515625</AltitudeMeters>
            <DistanceMeters>20562.562071563</DistanceMeters>
          </Trackpoint>
          <Trackpoint>
            <Time>2019-10-04T10:10:31.000Z</Time>
            <Position>
              <LatitudeDegrees>43.37222007103264331817626953125</LatitudeDegrees>
              <LongitudeDegrees>-5.6945273838937282562255859375</LongitudeDegrees>
            </Position>
            <AltitudeMeters>244.8000030517578125</AltitudeMeters>
            <DistanceMeters>20582.788257145</DistanceMeters>
          </Trackpoint>
          <Trackpoint>
            <Time>2019-10-04T10:10:36.000Z</Time>
            <Position>
              <LatitudeDegrees>43.371735848486423492431640625</LatitudeDegrees>
              <LongitudeDegrees>-5.69431926123797893524169921875</LongitudeDegrees>
            </Position>
            <AltitudeMeters>245</AltitudeMeters>
            <DistanceMeters>20639.252519912</DistanceMeters>
          </Trackpoint>
          <Trackpoint>
            <Time>2019-10-04T10:10:39.000Z</Time>
            <Position>
              <LatitudeDegrees>43.37147575803101062774658203125</LatitudeDegrees>
              <LongitudeDegrees>-5.6941272318363189697265625</LongitudeDegrees>
            </Position>
            <AltitudeMeters>244.8000030517578125</AltitudeMeters>
            <DistanceMeters>20672.107035854</DistanceMeters>
          </Trackpoint>
          <Trackpoint>
            <Time>2019-10-04T10:10:40.000Z</Time>
            <Position>
              <LatitudeDegrees>43.3714014105498790740966796875</LatitudeDegrees>
              <LongitudeDegrees>-5.69405523128807544708251953125</LongitudeDegrees>
            </Position>
            <AltitudeMeters>245</AltitudeMeters>
            <DistanceMeters>20682.2272694</DistanceMeters>
          </Trackpoint>
          <Trackpoint>
            <Time>2019-10-04T10:10:45.000Z</Time>
            <Position>
              <LatitudeDegrees>43.37107912637293338775634765625</LatitudeDegrees>
              <LongitudeDegrees>-5.69370679557323455810546875</LongitudeDegrees>
            </Position>
            <AltitudeMeters>245.1999969482421875</AltitudeMeters>
            <DistanceMeters>20727.850286733</DistanceMeters>
          </Trackpoint>
          <Trackpoint>
            <Time>2019-10-04T10:10:48.000Z</Time>
            <Position>
              <LatitudeDegrees>43.37092213332653045654296875</LatitudeDegrees>
              <LongitudeDegrees>-5.69354158826172351837158203125</LongitudeDegrees>
            </Position>
            <AltitudeMeters>245.1999969482421875</AltitudeMeters>
            <DistanceMeters>20749.849945984</DistanceMeters>
          </Trackpoint>
          <Trackpoint>
            <Time>2019-10-04T10:10:50.000Z</Time>
            <Position>
              <LatitudeDegrees>43.37083102203905582427978515625</LatitudeDegrees>
              <LongitudeDegrees>-5.693440251052379608154296875</LongitudeDegrees>
            </Position>
            <AltitudeMeters>245.399993896484375</AltitudeMeters>
            <DistanceMeters>20762.890436757</DistanceMeters>
          </Trackpoint>
          <Trackpoint>
            <Time>2019-10-04T10:10:52.000Z</Time>
            <Position>
              <LatitudeDegrees>43.37074552662670612335205078125</LatitudeDegrees>
              <LongitudeDegrees>-5.6933482177555561065673828125</LongitudeDegrees>
            </Position>
            <AltitudeMeters>245.600006103515625</AltitudeMeters>
            <DistanceMeters>20774.973411389</DistanceMeters>
          </Trackpoint>
          <Trackpoint>
            <Time>2019-10-04T10:10:57.000Z</Time>
            <Position>
              <LatitudeDegrees>43.37054385803639888763427734375</LatitudeDegrees>
              <LongitudeDegrees>-5.69314696826040744781494140625</LongitudeDegrees>
            </Position>
            <AltitudeMeters>245.399993896484375</AltitudeMeters>
            <DistanceMeters>20802.703632983</DistanceMeters>
          </Trackpoint>
          <Trackpoint>
            <Time>2019-10-04T10:11:00.000Z</Time>
            <Position>
              <LatitudeDegrees>43.37042391300201416015625</LatitudeDegrees>
              <LongitudeDegrees>-5.69304152391850948333740234375</LongitudeDegrees>
            </Position>
            <AltitudeMeters>245.600006103515625</AltitudeMeters>
            <DistanceMeters>20818.546897637</DistanceMeters>
          </Trackpoint>
          <Trackpoint>
            <Time>2019-10-04T10:11:05.000Z</Time>
            <Position>
              <LatitudeDegrees>43.3702225796878337860107421875</LatitudeDegrees>
              <LongitudeDegrees>-5.69286064244806766510009765625</LongitudeDegrees>
            </Position>
            <AltitudeMeters>245.399993896484375</AltitudeMeters>
            <DistanceMeters>20845.311387248</DistanceMeters>
          </Trackpoint>
          <Trackpoint>
            <Time>2019-10-04T10:11:08.000Z</Time>
            <Position>
              <LatitudeDegrees>43.3700985275208950042724609375</LatitudeDegrees>
              <LongitudeDegrees>-5.6927497498691082000732421875</LongitudeDegrees>
            </Position>
            <AltitudeMeters>245.399993896484375</AltitudeMeters>
            <DistanceMeters>20861.777627721</DistanceMeters>
          </Trackpoint>
          <Trackpoint>
            <Time>2019-10-04T10:11:11.000Z</Time>
            <Position>
              <LatitudeDegrees>43.369970284402370452880859375</LatitudeDegrees>
              <LongitudeDegrees>-5.6926357559859752655029296875</LongitudeDegrees>
            </Position>
            <AltitudeMeters>245.600006103515625</AltitudeMeters>
            <DistanceMeters>20878.77200723</DistanceMeters>
          </Trackpoint>
          <Trackpoint>
            <Time>2019-10-04T10:11:13.000Z</Time>
            <Position>
              <LatitudeDegrees>43.36987464688718318939208984375</LatitudeDegrees>
              <LongitudeDegrees>-5.692553780972957611083984375</LongitudeDegrees>
            </Position>
            <AltitudeMeters>245.600006103515625</AltitudeMeters>
            <DistanceMeters>20891.314093646</DistanceMeters>
          </Trackpoint>
          <Trackpoint>
            <Time>2019-10-04T10:11:21.000Z</Time>
            <Position>
              <LatitudeDegrees>43.3694564737379550933837890625</LatitudeDegrees>
              <LongitudeDegrees>-5.69218774326145648956298828125</LongitudeDegrees>
            </Position>
            <AltitudeMeters>245</AltitudeMeters>
            <DistanceMeters>20946.481173176</DistanceMeters>
          </Trackpoint>
          <Trackpoint>
            <Time>2019-10-04T10:11:29.000Z</Time>
            <Position>
              <LatitudeDegrees>43.36905397474765777587890625</LatitudeDegrees>
              <LongitudeDegrees>-5.69183503277599811553955078125</LongitudeDegrees>
            </Position>
            <AltitudeMeters>244.8000030517578125</AltitudeMeters>
            <DistanceMeters>20999.597706518</DistanceMeters>
          </Trackpoint>
          <Trackpoint>
            <Time>2019-10-04T10:11:32.000Z</Time>
            <Position>
              <LatitudeDegrees>43.36891039274632930755615234375</LatitudeDegrees>
              <LongitudeDegrees>-5.6917043589055538177490234375</LongitudeDegrees>
            </Position>
            <AltitudeMeters>245.1999969482421875</AltitudeMeters>
            <DistanceMeters>21018.759673233</DistanceMeters>
          </Trackpoint>
          <Trackpoint>
            <Time>2019-10-04T10:11:42.000Z</Time>
            <Position>
              <LatitudeDegrees>43.36843446828424930572509765625</LatitudeDegrees>
              <LongitudeDegrees>-5.69128476083278656005859375</LongitudeDegrees>
            </Position>
            <AltitudeMeters>245.1999969482421875</AltitudeMeters>
            <DistanceMeters>21081.676831395</DistanceMeters>
          </Trackpoint>
          <Trackpoint>
            <Time>2019-10-04T10:11:44.000Z</Time>
            <Position>
              <LatitudeDegrees>43.36834310553967952728271484375</LatitudeDegrees>
              <LongitudeDegrees>-5.69119582884013652801513671875</LongitudeDegrees>
            </Position>
            <AltitudeMeters>245.399993896484375</AltitudeMeters>
            <DistanceMeters>21094.134395112</DistanceMeters>
          </Trackpoint>
          <Trackpoint>
            <Time>2019-10-04T10:11:53.000Z</Time>
            <Position>
              <LatitudeDegrees>43.36792317219078540802001953125</LatitudeDegrees>
              <LongitudeDegrees>-5.6908200681209564208984375</LongitudeDegrees>
            </Position>
            <AltitudeMeters>245.1999969482421875</AltitudeMeters>
            <DistanceMeters>21149.892326913</DistanceMeters>
          </Trackpoint>
          <Trackpoint>
            <Time>2019-10-04T10:11:59.000Z</Time>
            <Position>
              <LatitudeDegrees>43.36766702122986316680908203125</LatitudeDegrees>
              <LongitudeDegrees>-5.6906009651720523834228515625</LongitudeDegrees>
            </Position>
            <AltitudeMeters>245.399993896484375</AltitudeMeters>
            <DistanceMeters>21183.464741952</DistanceMeters>
          </Trackpoint>
          <Trackpoint>
            <Time>2019-10-04T10:12:05.000Z</Time>
            <Position>
              <LatitudeDegrees>43.36742159910500049591064453125</LatitudeDegrees>
              <LongitudeDegrees>-5.69039921276271343231201171875</LongitudeDegrees>
            </Position>
            <AltitudeMeters>245.600006103515625</AltitudeMeters>
            <DistanceMeters>21215.286917122</DistanceMeters>
          </Trackpoint>
          <Trackpoint>
            <Time>2019-10-04T10:12:09.000Z</Time>
            <Position>
              <LatitudeDegrees>43.367275334894657135009765625</LatitudeDegrees>
              <LongitudeDegrees>-5.69026552140712738037109375</LongitudeDegrees>
            </Position>
            <AltitudeMeters>245.600006103515625</AltitudeMeters>
            <DistanceMeters>21234.832644126</DistanceMeters>
          </Trackpoint>
          <Trackpoint>
            <Time>2019-10-04T10:12:10.000Z</Time>
            <Position>
              <LatitudeDegrees>43.3672387897968292236328125</LatitudeDegrees>
              <LongitudeDegrees>-5.69022738374769687652587890625</LongitudeDegrees>
            </Position>
            <AltitudeMeters>245.399993896484375</AltitudeMeters>
            <DistanceMeters>21239.937622149</DistanceMeters>
          </Trackpoint>
          <Trackpoint>
            <Time>2019-10-04T10:12:16.000Z</Time>
            <Position>
              <LatitudeDegrees>43.36699445731937885284423828125</LatitudeDegrees>
              <LongitudeDegrees>-5.68993770517408847808837890625</LongitudeDegrees>
            </Position>
            <AltitudeMeters>246</AltitudeMeters>
            <DistanceMeters>21275.839363771</DistanceMeters>
          </Trackpoint>
          <Trackpoint>
            <Time>2019-10-04T10:12:20.000Z</Time>
            <Position>
              <LatitudeDegrees>43.3668369613587856292724609375</LatitudeDegrees>
              <LongitudeDegrees>-5.68972916342318058013916015625</LongitudeDegrees>
            </Position>
            <AltitudeMeters>245.8000030517578125</AltitudeMeters>
            <DistanceMeters>21300.170656619</DistanceMeters>
          </Trackpoint>
          <Trackpoint>
            <Time>2019-10-04T10:12:24.000Z</Time>
            <Position>
              <LatitudeDegrees>43.3666837401688098907470703125</LatitudeDegrees>
              <LongitudeDegrees>-5.68951324559748172760009765625</LongitudeDegrees>
            </Position>
            <AltitudeMeters>245.8000030517578125</AltitudeMeters>
            <DistanceMeters>21324.584941084</DistanceMeters>
          </Trackpoint>
          <Trackpoint>
            <Time>2019-10-04T10:12:33.000Z</Time>
            <Position>
              <LatitudeDegrees>43.36635776795446872711181640625</LatitudeDegrees>
              <LongitudeDegrees>-5.68901804275810718536376953125</LongitudeDegrees>
            </Position>
            <AltitudeMeters>246.399993896484375</AltitudeMeters>
            <DistanceMeters>21378.639023028</DistanceMeters>
          </Trackpoint>
          <Trackpoint>
            <Time>2019-10-04T10:12:35.000Z</Time>
            <Position>
              <LatitudeDegrees>43.36629037745296955108642578125</LatitudeDegrees>
              <LongitudeDegrees>-5.6889128498733043670654296875</LongitudeDegrees>
            </Position>
            <AltitudeMeters>246.600006103515625</AltitudeMeters>
            <DistanceMeters>21389.983875586</DistanceMeters>
          </Trackpoint>
          <Trackpoint>
            <Time>2019-10-04T10:12:36.000Z</Time>
            <Position>
              <LatitudeDegrees>43.366256766021251678466796875</LatitudeDegrees>
              <LongitudeDegrees>-5.68886180408298969268798828125</LongitudeDegrees>
            </Position>
            <AltitudeMeters>246.600006103515625</AltitudeMeters>
            <DistanceMeters>21395.55571575</DistanceMeters>
          </Trackpoint>
          <Trackpoint>
            <Time>2019-10-04T10:12:38.000Z</Time>
            <Position>
              <LatitudeDegrees>43.3661905489861965179443359375</LatitudeDegrees>
              <LongitudeDegrees>-5.68876004777848720550537109375</LongitudeDegrees>
            </Position>
            <AltitudeMeters>246.399993896484375</AltitudeMeters>
            <DistanceMeters>21406.6062236</DistanceMeters>
          </Trackpoint>
          <Trackpoint>
            <Time>2019-10-04T10:12:42.000Z</Time>
            <Position>
              <LatitudeDegrees>43.36605920456349849700927734375</LatitudeDegrees>
              <LongitudeDegrees>-5.6885681860148906707763671875</LongitudeDegrees>
            </Position>
            <AltitudeMeters>246.399993896484375</AltitudeMeters>
            <DistanceMeters>21427.930353815</DistanceMeters>
          </Trackpoint>
          <Trackpoint>
            <Time>2019-10-04T10:12:50.000Z</Time>
            <Position>
              <LatitudeDegrees>43.36579869501292705535888671875</LatitudeDegrees>
              <LongitudeDegrees>-5.688216648995876312255859375</LongitudeDegrees>
            </Position>
            <AltitudeMeters>246.399993896484375</AltitudeMeters>
            <DistanceMeters>21468.548244288</DistanceMeters>
          </Trackpoint>
          <Trackpoint>
            <Time>2019-10-04T10:12:54.000Z</Time>
            <Position>
              <LatitudeDegrees>43.36567782796919345855712890625</LatitudeDegrees>
              <LongitudeDegrees>-5.6880568899214267730712890625</LongitudeDegrees>
            </Position>
            <AltitudeMeters>246.8000030517578125</AltitudeMeters>
            <DistanceMeters>21487.205451655</DistanceMeters>
          </Trackpoint>
          <Trackpoint>
            <Time>2019-10-04T10:12:56.000Z</Time>
            <Position>
              <LatitudeDegrees>43.3656192384660243988037109375</LatitudeDegrees>
              <LongitudeDegrees>-5.6879858113825321197509765625</LongitudeDegrees>
            </Position>
            <AltitudeMeters>246.600006103515625</AltitudeMeters>
            <DistanceMeters>21495.900266201</DistanceMeters>
          </Trackpoint>
          <Trackpoint>
            <Time>2019-10-04T10:13:02.000Z</Time>
            <Position>
              <LatitudeDegrees>43.3654202520847320556640625</LatitudeDegrees>
              <LongitudeDegrees>-5.6877945363521575927734375</LongitudeDegrees>
            </Position>
            <AltitudeMeters>247.1999969482421875</AltitudeMeters>
            <DistanceMeters>21522.919788593</DistanceMeters>
          </Trackpoint>
          <Trackpoint>
            <Time>2019-10-04T10:13:08.000Z</Time>
            <Position>
              <LatitudeDegrees>43.365235514938831329345703125</LatitudeDegrees>
              <LongitudeDegrees>-5.68759781308472156524658203125</LongitudeDegrees>
            </Position>
            <AltitudeMeters>247</AltitudeMeters>
            <DistanceMeters>21548.922751193</DistanceMeters>
          </Trackpoint>
          <Trackpoint>
            <Time>2019-10-04T10:13:11.000Z</Time>
            <Position>
              <LatitudeDegrees>43.3651401288807392120361328125</LatitudeDegrees>
              <LongitudeDegrees>-5.68749077618122100830078125</LongitudeDegrees>
            </Position>
            <AltitudeMeters>247.600006103515625</AltitudeMeters>
            <DistanceMeters>21562.62374492</DistanceMeters>
          </Trackpoint>
          <Trackpoint>
            <Time>2019-10-04T10:13:15.000Z</Time>
            <Position>
              <LatitudeDegrees>43.36499889381229877471923828125</LatitudeDegrees>
              <LongitudeDegrees>-5.687348954379558563232421875</LongitudeDegrees>
            </Position>
            <AltitudeMeters>247.8000030517578125</AltitudeMeters>
            <DistanceMeters>21582.086366703</DistanceMeters>
          </Trackpoint>
          <Trackpoint>
            <Time>2019-10-04T10:13:23.000Z</Time>
            <Position>
              <LatitudeDegrees>43.36469672620296478271484375</LatitudeDegrees>
              <LongitudeDegrees>-5.6870165280997753143310546875</LongitudeDegrees>
            </Position>
            <AltitudeMeters>248.1999969482421875</AltitudeMeters>
            <DistanceMeters>21625.151819451</DistanceMeters>
          </Trackpoint>
          <Trackpoint>
            <Time>2019-10-04T10:13:28.000Z</Time>
            <Position>
              <LatitudeDegrees>43.364519365131855010986328125</LatitudeDegrees>
              <LongitudeDegrees>-5.68679180927574634552001953125</LongitudeDegrees>
            </Position>
            <AltitudeMeters>248.600006103515625</AltitudeMeters>
            <DistanceMeters>21651.990936948</DistanceMeters>
          </Trackpoint>
          <Trackpoint>
            <Time>2019-10-04T10:13:32.000Z</Time>
            <Position>
              <LatitudeDegrees>43.36438466794788837432861328125</LatitudeDegrees>
              <LongitudeDegrees>-5.6866017915308475494384765625</LongitudeDegrees>
            </Position>
            <AltitudeMeters>248.600006103515625</AltitudeMeters>
            <DistanceMeters>21673.465923189</DistanceMeters>
          </Trackpoint>
          <Trackpoint>
            <Time>2019-10-04T10:13:42.000Z</Time>
            <Position>
              <LatitudeDegrees>43.36405961774289608001708984375</LatitudeDegrees>
              <LongitudeDegrees>-5.68612075410783290863037109375</LongitudeDegrees>
            </Position>
            <AltitudeMeters>248.399993896484375</AltitudeMeters>
            <DistanceMeters>21726.607101539</DistanceMeters>
          </Trackpoint>
          <Trackpoint>
            <Time>2019-10-04T10:13:53.000Z</Time>
            <Position>
              <LatitudeDegrees>43.3637068234384059906005859375</LatitudeDegrees>
              <LongitudeDegrees>-5.6855771876871585845947265625</LongitudeDegrees>
            </Position>
            <AltitudeMeters>248.600006103515625</AltitudeMeters>
            <DistanceMeters>21785.568708285</DistanceMeters>
          </Trackpoint>
          <Trackpoint>
            <Time>2019-10-04T10:14:03.000Z</Time>
            <Position>
              <LatitudeDegrees>43.36337112821638584136962890625</LatitudeDegrees>
              <LongitudeDegrees>-5.6850769557058811187744140625</LongitudeDegrees>
            </Position>
            <AltitudeMeters>248.8000030517578125</AltitudeMeters>
            <DistanceMeters>21840.654867603</DistanceMeters>
          </Trackpoint>
          <Trackpoint>
            <Time>2019-10-04T10:14:12.000Z</Time>
            <Position>
              <LatitudeDegrees>43.3630681224167346954345703125</LatitudeDegrees>
              <LongitudeDegrees>-5.68463346920907497406005859375</LongitudeDegrees>
            </Position>
            <AltitudeMeters>248.8000030517578125</AltitudeMeters>
            <DistanceMeters>21889.901264736</DistanceMeters>
          </Trackpoint>
          <Trackpoint>
            <Time>2019-10-04T10:14:23.000Z</Time>
            <Position>
              <LatitudeDegrees>43.3627217821776866912841796875</LatitudeDegrees>
              <LongitudeDegrees>-5.68411999382078647613525390625</LongitudeDegrees>
            </Position>
            <AltitudeMeters>248.399993896484375</AltitudeMeters>
            <DistanceMeters>21946.578944594</DistanceMeters>
          </Trackpoint>
          <Trackpoint>
            <Time>2019-10-04T10:14:28.000Z</Time>
            <Position>
              <LatitudeDegrees>43.36257099173963069915771484375</LatitudeDegrees>
              <LongitudeDegrees>-5.68389267660677433013916015625</LongitudeDegrees>
            </Position>
            <AltitudeMeters>248.399993896484375</AltitudeMeters>
            <DistanceMeters>21971.479207822</DistanceMeters>
          </Trackpoint>
          <Trackpoint>
            <Time>2019-10-04T10:14:33.000Z</Time>
            <Position>
              <LatitudeDegrees>43.3624290861189365386962890625</LatitudeDegrees>
              <LongitudeDegrees>-5.6836905889213085174560546875</LongitudeDegrees>
            </Position>
            <AltitudeMeters>248.1999969482421875</AltitudeMeters>
            <DistanceMeters>21994.214237526</DistanceMeters>
          </Trackpoint>
          <Trackpoint>
            <Time>2019-10-04T10:14:38.000Z</Time>
            <Position>
              <LatitudeDegrees>43.3623087219893932342529296875</LatitudeDegrees>
              <LongitudeDegrees>-5.6835236214101314544677734375</LongitudeDegrees>
            </Position>
            <AltitudeMeters>248.1999969482421875</AltitudeMeters>
            <DistanceMeters>22013.240712096</DistanceMeters>
          </Trackpoint>
          <Trackpoint>
            <Time>2019-10-04T10:14:45.000Z</Time>
            <Position>
              <LatitudeDegrees>43.36216664873063564300537109375</LatitudeDegrees>
              <LongitudeDegrees>-5.68329789675772190093994140625</LongitudeDegrees>
            </Position>
            <AltitudeMeters>248.8000030517578125</AltitudeMeters>
            <DistanceMeters>22037.400121259</DistanceMeters>
          </Trackpoint>
          <Trackpoint>
            <Time>2019-10-04T10:14:50.000Z</Time>
            <Position>
              <LatitudeDegrees>43.36205969564616680145263671875</LatitudeDegrees>
              <LongitudeDegrees>-5.68314752541482448577880859375</LongitudeDegrees>
            </Position>
            <AltitudeMeters>249.399993896484375</AltitudeMeters>
            <DistanceMeters>22054.422904612</DistanceMeters>
          </Trackpoint>
          <Trackpoint>
            <Time>2019-10-04T10:14:52.000Z</Time>
            <Position>
              <LatitudeDegrees>43.36201476864516735076904296875</LatitudeDegrees>
              <LongitudeDegrees>-5.6830934621393680572509765625</LongitudeDegrees>
            </Position>
            <AltitudeMeters>249.399993896484375</AltitudeMeters>
            <DistanceMeters>22061.067983529</DistanceMeters>
          </Trackpoint>
          <Trackpoint>
            <Time>2019-10-04T10:14:58.000Z</Time>
            <Position>
              <LatitudeDegrees>43.36187261156737804412841796875</LatitudeDegrees>
              <LongitudeDegrees>-5.68289623595774173736572265625</LongitudeDegrees>
            </Position>
            <AltitudeMeters>249.399993896484375</AltitudeMeters>
            <DistanceMeters>22083.541148536</DistanceMeters>
          </Trackpoint>
          <Trackpoint>
            <Time>2019-10-04T10:14:59.000Z</Time>
            <Position>
              <LatitudeDegrees>43.36184930987656116485595703125</LatitudeDegrees>
              <LongitudeDegrees>-5.6828587688505649566650390625</LongitudeDegrees>
            </Position>
            <AltitudeMeters>249.600006103515625</AltitudeMeters>
            <DistanceMeters>22087.530007357</DistanceMeters>
          </Trackpoint>
          <Trackpoint>
            <Time>2019-10-04T10:15:00.000Z</Time>
            <Position>
              <LatitudeDegrees>43.3618259243667125701904296875</LatitudeDegrees>
              <LongitudeDegrees>-5.6828218884766101837158203125</LongitudeDegrees>
            </Position>
            <AltitudeMeters>249.600006103515625</AltitudeMeters>
            <DistanceMeters>22091.489327085</DistanceMeters>
          </Trackpoint>
          <Trackpoint>
            <Time>2019-10-04T10:15:07.000Z</Time>
            <Position>
              <LatitudeDegrees>43.36164244450628757476806640625</LatitudeDegrees>
              <LongitudeDegrees>-5.6825553439557552337646484375</LongitudeDegrees>
            </Position>
            <AltitudeMeters>249.600006103515625</AltitudeMeters>
            <DistanceMeters>22121.192130467</DistanceMeters>
          </Trackpoint>
          <Trackpoint>
            <Time>2019-10-04T10:15:09.000Z</Time>
            <Position>
              <LatitudeDegrees>43.36158678866922855377197265625</LatitudeDegrees>
              <LongitudeDegrees>-5.68247236311435699462890625</LongitudeDegrees>
            </Position>
            <AltitudeMeters>249.600006103515625</AltitudeMeters>
            <DistanceMeters>22130.327554184</DistanceMeters>
          </Trackpoint>
          <Trackpoint>
            <Time>2019-10-04T10:15:18.000Z</Time>
            <Position>
              <LatitudeDegrees>43.3613126166164875030517578125</LatitudeDegrees>
              <LongitudeDegrees>-5.68210355937480926513671875</LongitudeDegrees>
            </Position>
            <AltitudeMeters>249.1999969482421875</AltitudeMeters>
            <DistanceMeters>22173.010947946</DistanceMeters>
          </Trackpoint>
          <Trackpoint>
            <Time>2019-10-04T10:15:25.000Z</Time>
            <Position>
              <LatitudeDegrees>43.36108068935573101043701171875</LatitudeDegrees>
              <LongitudeDegrees>-5.68177171982824802398681640625</LongitudeDegrees>
            </Position>
            <AltitudeMeters>249.1999969482421875</AltitudeMeters>
            <DistanceMeters>22210.259238179</DistanceMeters>
          </Trackpoint>
          <Trackpoint>
            <Time>2019-10-04T10:15:28.000Z</Time>
            <Position>
              <LatitudeDegrees>43.36098865605890750885009765625</LatitudeDegrees>
              <LongitudeDegrees>-5.681623108685016632080078125</LongitudeDegrees>
            </Position>
            <AltitudeMeters>249</AltitudeMeters>
            <DistanceMeters>22226.056554173</DistanceMeters>
          </Trackpoint>
          <Trackpoint>
            <Time>2019-10-04T10:15:35.000Z</Time>
            <Position>
              <LatitudeDegrees>43.36079679429531097412109375</LatitudeDegrees>
              <LongitudeDegrees>-5.6812538020312786102294921875</LongitudeDegrees>
            </Position>
            <AltitudeMeters>249</AltitudeMeters>
            <DistanceMeters>22262.786930035</DistanceMeters>
          </Trackpoint>
          <Trackpoint>
            <Time>2019-10-04T10:15:38.000Z</Time>
            <Position>
              <LatitudeDegrees>43.36072479374706745147705078125</LatitudeDegrees>
              <LongitudeDegrees>-5.68108591251075267791748046875</LongitudeDegrees>
            </Position>
            <AltitudeMeters>249</AltitudeMeters>
            <DistanceMeters>22278.560219679</DistanceMeters>
          </Trackpoint>
          <Trackpoint>
            <Time>2019-10-04T10:15:41.000Z</Time>
            <Position>
              <LatitudeDegrees>43.36066058836877346038818359375</LatitudeDegrees>
              <LongitudeDegrees>-5.6809171847999095916748046875</LongitudeDegrees>
            </Position>
            <AltitudeMeters>248.600006103515625</AltitudeMeters>
            <DistanceMeters>22293.971256002</DistanceMeters>
          </Trackpoint>
          <Trackpoint>
            <Time>2019-10-04T10:15:45.000Z</Time>
            <Position>
              <LatitudeDegrees>43.3605869114398956298828125</LatitudeDegrees>
              <LongitudeDegrees>-5.6806881912052631378173828125</LongitudeDegrees>
            </Position>
            <AltitudeMeters>247.1999969482421875</AltitudeMeters>
            <DistanceMeters>22314.235131893</DistanceMeters>
          </Trackpoint>
          <Trackpoint>
            <Time>2019-10-04T10:15:48.000Z</Time>
            <Position>
              <LatitudeDegrees>43.3605250529944896697998046875</LatitudeDegrees>
              <LongitudeDegrees>-5.68052516318857669830322265625</LongitudeDegrees>
            </Position>
            <AltitudeMeters>246.600006103515625</AltitudeMeters>
            <DistanceMeters>22329.116448861</DistanceMeters>
          </Trackpoint>
          <Trackpoint>
            <Time>2019-10-04T10:15:51.000Z</Time>
            <Position>
              <LatitudeDegrees>43.36046478711068630218505859375</LatitudeDegrees>
              <LongitudeDegrees>-5.68035735748708248138427734375</LongitudeDegrees>
            </Position>
            <AltitudeMeters>246</AltitudeMeters>
            <DistanceMeters>22344.261811248</DistanceMeters>
          </Trackpoint>
          <Trackpoint>
            <Time>2019-10-04T10:15:57.000Z</Time>
            <Position>
              <LatitudeDegrees>43.36032598279416561126708984375</LatitudeDegrees>
              <LongitudeDegrees>-5.680041946470737457275390625</LongitudeDegrees>
            </Position>
            <AltitudeMeters>245.600006103515625</AltitudeMeters>
            <DistanceMeters>22374.096870413</DistanceMeters>
          </Trackpoint>
          <Trackpoint>
            <Time>2019-10-04T10:16:03.000Z</Time>
            <Position>
              <LatitudeDegrees>43.3601351268589496612548828125</LatitudeDegrees>
              <LongitudeDegrees>-5.679785124957561492919921875</LongitudeDegrees>
            </Position>
            <AltitudeMeters>246</AltitudeMeters>
            <DistanceMeters>22403.814870622</DistanceMeters>
          </Trackpoint>
          <Trackpoint>
            <Time>2019-10-04T10:16:10.000Z</Time>
            <Position>
              <LatitudeDegrees>43.3598266728222370147705078125</LatitudeDegrees>
              <LongitudeDegrees>-5.67949502728879451751708984375</LongitudeDegrees>
            </Position>
            <AltitudeMeters>246.399993896484375</AltitudeMeters>
            <DistanceMeters>22445.405101003</DistanceMeters>
          </Trackpoint>
          <Trackpoint>
            <Time>2019-10-04T10:16:13.000Z</Time>
            <Position>
              <LatitudeDegrees>43.359664566814899444580078125</LatitudeDegrees>
              <LongitudeDegrees>-5.67937214858829975128173828125</LongitudeDegrees>
            </Position>
            <AltitudeMeters>246.399993896484375</AltitudeMeters>
            <DistanceMeters>22466.006620921</DistanceMeters>
          </Trackpoint>
          <Trackpoint>
            <Time>2019-10-04T10:16:15.000Z</Time>
            <Position>
              <LatitudeDegrees>43.35954545997083187103271484375</LatitudeDegrees>
              <LongitudeDegrees>-5.67934683524072170257568359375</LongitudeDegrees>
            </Position>
            <AltitudeMeters>246.1999969482421875</AltitudeMeters>
            <DistanceMeters>22479.421216083</DistanceMeters>
          </Trackpoint>
          <Trackpoint>
            <Time>2019-10-04T10:16:17.000Z</Time>
            <Position>
              <LatitudeDegrees>43.3594280295073986053466796875</LatitudeDegrees>
              <LongitudeDegrees>-5.67933476530015468597412109375</LongitudeDegrees>
            </Position>
            <AltitudeMeters>246.399993896484375</AltitudeMeters>
            <DistanceMeters>22492.528014864</DistanceMeters>
          </Trackpoint>
          <Trackpoint>
            <Time>2019-10-04T10:16:19.000Z</Time>
            <Position>
              <LatitudeDegrees>43.3593287877738475799560546875</LatitudeDegrees>
              <LongitudeDegrees>-5.67925111390650272369384765625</LongitudeDegrees>
            </Position>
            <AltitudeMeters>245.8000030517578125</AltitudeMeters>
            <DistanceMeters>22505.483052524</DistanceMeters>
          </Trackpoint>
          <Trackpoint>
            <Time>2019-10-04T10:16:23.000Z</Time>
            <Position>
              <LatitudeDegrees>43.3591822721064090728759765625</LatitudeDegrees>
              <LongitudeDegrees>-5.67901088856160640716552734375</LongitudeDegrees>
            </Position>
            <AltitudeMeters>244.8000030517578125</AltitudeMeters>
            <DistanceMeters>22530.856964725</DistanceMeters>
          </Trackpoint>
          <Trackpoint>
            <Time>2019-10-04T10:16:25.000Z</Time>
            <Position>
              <LatitudeDegrees>43.359091244637966156005859375</LatitudeDegrees>
              <LongitudeDegrees>-5.6789132393896579742431640625</LongitudeDegrees>
            </Position>
            <AltitudeMeters>244.399993896484375</AltitudeMeters>
            <DistanceMeters>22543.705616699</DistanceMeters>
          </Trackpoint>
          <Trackpoint>
            <Time>2019-10-04T10:16:27.000Z</Time>
            <Position>
              <LatitudeDegrees>43.3589931763708591461181640625</LatitudeDegrees>
              <LongitudeDegrees>-5.6788332760334014892578125</LongitudeDegrees>
            </Position>
            <AltitudeMeters>243.8000030517578125</AltitudeMeters>
            <DistanceMeters>22556.39515267</DistanceMeters>
          </Trackpoint>
          <Trackpoint>
            <Time>2019-10-04T10:16:28.000Z</Time>
            <Position>
              <LatitudeDegrees>43.35894313640892505645751953125</LatitudeDegrees>
              <LongitudeDegrees>-5.67879664711654186248779296875</LongitudeDegrees>
            </Position>
            <AltitudeMeters>243.399993896484375</AltitudeMeters>
            <DistanceMeters>22562.704239527</DistanceMeters>
          </Trackpoint>
          <Trackpoint>
            <Time>2019-10-04T10:16:29.000Z</Time>
            <Position>
              <LatitudeDegrees>43.358892090618610382080078125</LatitudeDegrees>
              <LongitudeDegrees>-5.67876580171287059783935546875</LongitudeDegrees>
            </Position>
            <AltitudeMeters>243.1999969482421875</AltitudeMeters>
            <DistanceMeters>22568.910146071</DistanceMeters>
          </Trackpoint>
          <Trackpoint>
            <Time>2019-10-04T10:16:33.000Z</Time>
            <Position>
              <LatitudeDegrees>43.35868346504867076873779296875</LatitudeDegrees>
              <LongitudeDegrees>-5.6786580942571163177490234375</LongitudeDegrees>
            </Position>
            <AltitudeMeters>242.399993896484375</AltitudeMeters>
            <DistanceMeters>22593.712482605</DistanceMeters>
          </Trackpoint>
          <Trackpoint>
            <Time>2019-10-04T10:16:34.000Z</Time>
            <Position>
              <LatitudeDegrees>43.35863015614449977874755859375</LatitudeDegrees>
              <LongitudeDegrees>-5.67863537929952144622802734375</LongitudeDegrees>
            </Position>
            <AltitudeMeters>242.8000030517578125</AltitudeMeters>
            <DistanceMeters>22599.924206734</DistanceMeters>
          </Trackpoint>
          <Trackpoint>
            <Time>2019-10-04T10:16:38.000Z</Time>
            <Position>
              <LatitudeDegrees>43.3584181778132915496826171875</LatitudeDegrees>
              <LongitudeDegrees>-5.678564049303531646728515625</LongitudeDegrees>
            </Position>
            <AltitudeMeters>242.8000030517578125</AltitudeMeters>
            <DistanceMeters>22624.213897439</DistanceMeters>
          </Trackpoint>
          <Trackpoint>
            <Time>2019-10-04T10:16:41.000Z</Time>
            <Position>
              <LatitudeDegrees>43.35826386697590351104736328125</LatitudeDegrees>
              <LongitudeDegrees>-5.67852859385311603546142578125</LongitudeDegrees>
            </Position>
            <AltitudeMeters>242.8000030517578125</AltitudeMeters>
            <DistanceMeters>22641.627137715</DistanceMeters>
          </Trackpoint>
          <Trackpoint>
            <Time>2019-10-04T10:16:43.000Z</Time>
            <Position>
              <LatitudeDegrees>43.358167894184589385986328125</LatitudeDegrees>
              <LongitudeDegrees>-5.678509064018726348876953125</LongitudeDegrees>
            </Position>
            <AltitudeMeters>243</AltitudeMeters>
            <DistanceMeters>22652.425116555</DistanceMeters>
          </Trackpoint>
          <Trackpoint>
            <Time>2019-10-04T10:16:45.000Z</Time>
            <Position>
              <LatitudeDegrees>43.3580802194774150848388671875</LatitudeDegrees>
              <LongitudeDegrees>-5.6784974969923496246337890625</LongitudeDegrees>
            </Position>
            <AltitudeMeters>243.1999969482421875</AltitudeMeters>
            <DistanceMeters>22662.22853961</DistanceMeters>
          </Trackpoint>
          <Trackpoint>
            <Time>2019-10-04T10:16:47.000Z</Time>
            <Position>
              <LatitudeDegrees>43.35798659361898899078369140625</LatitudeDegrees>
              <LongitudeDegrees>-5.67847109399735927581787109375</LongitudeDegrees>
            </Position>
            <AltitudeMeters>243.399993896484375</AltitudeMeters>
            <DistanceMeters>22672.865590792</DistanceMeters>
          </Trackpoint>
          <Trackpoint>
            <Time>2019-10-04T10:16:52.000Z</Time>
            <Position>
              <LatitudeDegrees>43.3577590249478816986083984375</LatitudeDegrees>
              <LongitudeDegrees>-5.67841258831322193145751953125</LongitudeDegrees>
            </Position>
            <AltitudeMeters>244</AltitudeMeters>
            <DistanceMeters>22698.633254459</DistanceMeters>
          </Trackpoint>
          <Trackpoint>
            <Time>2019-10-04T10:16:53.000Z</Time>
            <Position>
              <LatitudeDegrees>43.3577140979468822479248046875</LatitudeDegrees>
              <LongitudeDegrees>-5.67840655334293842315673828125</LongitudeDegrees>
            </Position>
            <AltitudeMeters>244.1999969482421875</AltitudeMeters>
            <DistanceMeters>22703.657103945</DistanceMeters>
          </Trackpoint>
          <Trackpoint>
            <Time>2019-10-04T10:16:58.000Z</Time>
            <Position>
              <LatitudeDegrees>43.3574944920837879180908203125</LatitudeDegrees>
              <LongitudeDegrees>-5.67834402434527873992919921875</LongitudeDegrees>
            </Position>
            <AltitudeMeters>244.600006103515625</AltitudeMeters>
            <DistanceMeters>22728.617856224</DistanceMeters>
          </Trackpoint>
          <Trackpoint>
            <Time>2019-10-04T10:17:01.000Z</Time>
            <Position>
              <LatitudeDegrees>43.35736566223204135894775390625</LatitudeDegrees>
              <LongitudeDegrees>-5.67830379121005535125732421875</LongitudeDegrees>
            </Position>
            <AltitudeMeters>244.8000030517578125</AltitudeMeters>
            <DistanceMeters>22743.321839368</DistanceMeters>
          </Trackpoint>
          <Trackpoint>
            <Time>2019-10-04T10:17:07.000Z</Time>
            <Position>
              <LatitudeDegrees>43.35711286403238773345947265625</LatitudeDegrees>
              <LongitudeDegrees>-5.6782165355980396270751953125</LongitudeDegrees>
            </Position>
            <AltitudeMeters>245.1999969482421875</AltitudeMeters>
            <DistanceMeters>22772.331302378</DistanceMeters>
          </Trackpoint>
          <Trackpoint>
            <Time>2019-10-04T10:17:09.000Z</Time>
            <Position>
              <LatitudeDegrees>43.35702954791486263275146484375</LatitudeDegrees>
              <LongitudeDegrees>-5.67819113843142986297607421875</LongitudeDegrees>
            </Position>
            <AltitudeMeters>245</AltitudeMeters>
            <DistanceMeters>22781.82969665</DistanceMeters>
          </Trackpoint>
          <Trackpoint>
            <Time>2019-10-04T10:17:13.000Z</Time>
            <Position>
              <LatitudeDegrees>43.35686492733657360076904296875</LatitudeDegrees>
              <LongitudeDegrees>-5.67814218811690807342529296875</LongitudeDegrees>
            </Position>
            <AltitudeMeters>245.399993896484375</AltitudeMeters>
            <DistanceMeters>22800.575748365</DistanceMeters>
          </Trackpoint>
          <Trackpoint>
            <Time>2019-10-04T10:17:16.000Z</Time>
            <Position>
              <LatitudeDegrees>43.35674640722572803497314453125</LatitudeDegrees>
              <LongitudeDegrees>-5.6781018711626529693603515625</LongitudeDegrees>
            </Position>
            <AltitudeMeters>245.399993896484375</AltitudeMeters>
            <DistanceMeters>22814.164900777</DistanceMeters>
          </Trackpoint>
          <Trackpoint>
            <Time>2019-10-04T10:17:17.000Z</Time>
            <Position>
              <LatitudeDegrees>43.3567065931856632232666015625</LatitudeDegrees>
              <LongitudeDegrees>-5.6780903041362762451171875</LongitudeDegrees>
            </Position>
            <AltitudeMeters>245.600006103515625</AltitudeMeters>
            <DistanceMeters>22818.69439674</DistanceMeters>
          </Trackpoint>
          <Trackpoint>
            <Time>2019-10-04T10:17:18.000Z</Time>
            <Position>
              <LatitudeDegrees>43.35666694678366184234619140625</LatitudeDegrees>
              <LongitudeDegrees>-5.67807731218636035919189453125</LongitudeDegrees>
            </Position>
            <AltitudeMeters>245.8000030517578125</AltitudeMeters>
            <DistanceMeters>22823.230864994</DistanceMeters>
          </Trackpoint>
          <Trackpoint>
            <Time>2019-10-04T10:17:27.000Z</Time>
            <Position>
              <LatitudeDegrees>43.356364779174327850341796875</LatitudeDegrees>
              <LongitudeDegrees>-5.6779781542718410491943359375</LongitudeDegrees>
            </Position>
            <AltitudeMeters>246.1999969482421875</AltitudeMeters>
            <DistanceMeters>22857.806749949</DistanceMeters>
          </Trackpoint>
          <Trackpoint>
            <Time>2019-10-04T10:17:36.000Z</Time>
            <Position>
              <LatitudeDegrees>43.3560833148658275604248046875</LatitudeDegrees>
              <LongitudeDegrees>-5.67788402549922466278076171875</LongitudeDegrees>
            </Position>
            <AltitudeMeters>246.8000030517578125</AltitudeMeters>
            <DistanceMeters>22890.0470049</DistanceMeters>
          </Trackpoint>
          <Trackpoint>
            <Time>2019-10-04T10:17:44.000Z</Time>
            <Position>
              <LatitudeDegrees>43.35583210922777652740478515625</LatitudeDegrees>
              <LongitudeDegrees>-5.6778158806264400482177734375</LongitudeDegrees>
            </Position>
            <AltitudeMeters>247</AltitudeMeters>
            <DistanceMeters>22918.545356524</DistanceMeters>
          </Trackpoint>
          <Trackpoint>
            <Time>2019-10-04T10:17:54.000Z</Time>
            <Position>
              <LatitudeDegrees>43.35554745979607105255126953125</LatitudeDegrees>
              <LongitudeDegrees>-5.6776981987059116363525390625</LongitudeDegrees>
            </Position>
            <AltitudeMeters>247.600006103515625</AltitudeMeters>
            <DistanceMeters>22951.627757661</DistanceMeters>
          </Trackpoint>
          <Trackpoint>
            <Time>2019-10-04T10:17:57.000Z</Time>
            <Position>
              <LatitudeDegrees>43.35546967573463916778564453125</LatitudeDegrees>
              <LongitudeDegrees>-5.6776660121977329254150390625</LongitudeDegrees>
            </Position>
            <AltitudeMeters>248.1999969482421875</AltitudeMeters>
            <DistanceMeters>22960.668789238</DistanceMeters>
          </Trackpoint>
          <Trackpoint>
            <Time>2019-10-04T10:18:01.000Z</Time>
            <Position>
              <LatitudeDegrees>43.35537412203848361968994140625</LatitudeDegrees>
              <LongitudeDegrees>-5.677622258663177490234375</LongitudeDegrees>
            </Position>
            <AltitudeMeters>248.1999969482421875</AltitudeMeters>
            <DistanceMeters>22971.877914255</DistanceMeters>
          </Trackpoint>
          <Trackpoint>
            <Time>2019-10-04T10:18:11.000Z</Time>
            <Position>
              <LatitudeDegrees>43.3551361598074436187744140625</LatitudeDegrees>
              <LongitudeDegrees>-5.67753349430859088897705078125</LongitudeDegrees>
            </Position>
            <AltitudeMeters>248.600006103515625</AltitudeMeters>
            <DistanceMeters>22999.320405309</DistanceMeters>
          </Trackpoint>
          <Trackpoint>
            <Time>2019-10-04T10:18:18.000Z</Time>
            <Position>
              <LatitudeDegrees>43.35492652840912342071533203125</LatitudeDegrees>
              <LongitudeDegrees>-5.677481107413768768310546875</LongitudeDegrees>
            </Position>
            <AltitudeMeters>248.8000030517578125</AltitudeMeters>
            <DistanceMeters>23023.035235288</DistanceMeters>
          </Trackpoint>
          <Trackpoint>
            <Time>2019-10-04T10:18:19.000Z</Time>
            <Position>
              <LatitudeDegrees>43.35489635355770587921142578125</LatitudeDegrees>
              <LongitudeDegrees>-5.67747247405350208282470703125</LongitudeDegrees>
            </Position>
            <AltitudeMeters>249.1999969482421875</AltitudeMeters>
            <DistanceMeters>23026.466739285</DistanceMeters>
          </Trackpoint>
          <Trackpoint>
            <Time>2019-10-04T10:18:25.000Z</Time>
            <Position>
              <LatitudeDegrees>43.3547173999249935150146484375</LatitudeDegrees>
              <LongitudeDegrees>-5.6774467416107654571533203125</LongitudeDegrees>
            </Position>
            <AltitudeMeters>249</AltitudeMeters>
            <DistanceMeters>23046.493041618</DistanceMeters>
          </Trackpoint>
          <Trackpoint>
            <Time>2019-10-04T10:18:32.000Z</Time>
            <Position>
              <LatitudeDegrees>43.354494608938694000244140625</LatitudeDegrees>
              <LongitudeDegrees>-5.6774427182972431182861328125</LongitudeDegrees>
            </Position>
            <AltitudeMeters>249.399993896484375</AltitudeMeters>
            <DistanceMeters>23071.292283265</DistanceMeters>
          </Trackpoint>
          <Trackpoint>
            <Time>2019-10-04T10:18:38.000Z</Time>
            <Position>
              <LatitudeDegrees>43.35431699641048908233642578125</LatitudeDegrees>
              <LongitudeDegrees>-5.67742402665317058563232421875</LongitudeDegrees>
            </Position>
            <AltitudeMeters>250</AltitudeMeters>
            <DistanceMeters>23091.118509018</DistanceMeters>
          </Trackpoint>
          <Trackpoint>
            <Time>2019-10-04T10:18:41.000Z</Time>
            <Position>
              <LatitudeDegrees>43.3542332611978054046630859375</LatitudeDegrees>
              <LongitudeDegrees>-5.6773977912962436676025390625</LongitudeDegrees>
            </Position>
            <AltitudeMeters>250.1999969482421875</AltitudeMeters>
            <DistanceMeters>23100.677081791</DistanceMeters>
          </Trackpoint>
          <Trackpoint>
            <Time>2019-10-04T10:18:44.000Z</Time>
            <Position>
              <LatitudeDegrees>43.35415371693670749664306640625</LatitudeDegrees>
              <LongitudeDegrees>-5.67737993784248828887939453125</LongitudeDegrees>
            </Position>
            <AltitudeMeters>250.600006103515625</AltitudeMeters>
            <DistanceMeters>23109.647925747</DistanceMeters>
          </Trackpoint>
          <Trackpoint>
            <Time>2019-10-04T10:18:49.000Z</Time>
            <Position>
              <LatitudeDegrees>43.35401793010532855987548828125</LatitudeDegrees>
              <LongitudeDegrees>-5.67733299918472766876220703125</LongitudeDegrees>
            </Position>
            <AltitudeMeters>251</AltitudeMeters>
            <DistanceMeters>23125.231437732</DistanceMeters>
          </Trackpoint>
          <Trackpoint>
            <Time>2019-10-04T10:18:50.000Z</Time>
            <Position>
              <LatitudeDegrees>43.3539901860058307647705078125</LatitudeDegrees>
              <LongitudeDegrees>-5.67733048461377620697021484375</LongitudeDegrees>
            </Position>
            <AltitudeMeters>251.1999969482421875</AltitudeMeters>
            <DistanceMeters>23128.328200749</DistanceMeters>
          </Trackpoint>
          <Trackpoint>
            <Time>2019-10-04T10:18:52.000Z</Time>
            <Position>
              <LatitudeDegrees>43.353932015597820281982421875</LatitudeDegrees>
              <LongitudeDegrees>-5.677326209843158721923828125</LongitudeDegrees>
            </Position>
            <AltitudeMeters>251.399993896484375</AltitudeMeters>
            <DistanceMeters>23134.811641645</DistanceMeters>
          </Trackpoint>
          <Trackpoint>
            <Time>2019-10-04T10:18:53.000Z</Time>
            <Position>
              <LatitudeDegrees>43.3539046905934810638427734375</LatitudeDegrees>
              <LongitudeDegrees>-5.67731757648289203643798828125</LongitudeDegrees>
            </Position>
            <AltitudeMeters>251.399993896484375</AltitudeMeters>
            <DistanceMeters>23137.931645236</DistanceMeters>
          </Trackpoint>
          <Trackpoint>
            <Time>2019-10-04T10:19:00.000Z</Time>
            <Position>
              <LatitudeDegrees>43.3537016808986663818359375</LatitudeDegrees>
              <LongitudeDegrees>-5.67720760591328144073486328125</LongitudeDegrees>
            </Position>
            <AltitudeMeters>252.1999969482421875</AltitudeMeters>
            <DistanceMeters>23162.216874341</DistanceMeters>
          </Trackpoint>
          <Trackpoint>
            <Time>2019-10-04T10:19:03.000Z</Time>
            <Position>
              <LatitudeDegrees>43.353616856038570404052734375</LatitudeDegrees>
              <LongitudeDegrees>-5.67715044133365154266357421875</LongitudeDegrees>
            </Position>
            <AltitudeMeters>252.399993896484375</AltitudeMeters>
            <DistanceMeters>23172.730969444</DistanceMeters>
          </Trackpoint>
          <Trackpoint>
            <Time>2019-10-04T10:19:09.000Z</Time>
            <Position>
              <LatitudeDegrees>43.35344309918582439422607421875</LatitudeDegrees>
              <LongitudeDegrees>-5.67701549269258975982666015625</LongitudeDegrees>
            </Position>
            <AltitudeMeters>252.1999969482421875</AltitudeMeters>
            <DistanceMeters>23194.941215187</DistanceMeters>
          </Trackpoint>
          <Trackpoint>
            <Time>2019-10-04T10:19:13.000Z</Time>
            <Position>
              <LatitudeDegrees>43.3533370681107044219970703125</LatitudeDegrees>
              <LongitudeDegrees>-5.67693552933633327484130859375</LongitudeDegrees>
            </Position>
            <AltitudeMeters>252.1999969482421875</AltitudeMeters>
            <DistanceMeters>23208.400836044</DistanceMeters>
          </Trackpoint>
          <Trackpoint>
            <Time>2019-10-04T10:19:16.000Z</Time>
            <Position>
              <LatitudeDegrees>43.3532462082803249359130859375</LatitudeDegrees>
              <LongitudeDegrees>-5.6768714077770709991455078125</LongitudeDegrees>
            </Position>
            <AltitudeMeters>252.399993896484375</AltitudeMeters>
            <DistanceMeters>23219.767556493</DistanceMeters>
          </Trackpoint>
          <Trackpoint>
            <Time>2019-10-04T10:19:23.000Z</Time>
            <Position>
              <LatitudeDegrees>43.353036157786846160888671875</LatitudeDegrees>
              <LongitudeDegrees>-5.6767289154231548309326171875</LongitudeDegrees>
            </Position>
            <AltitudeMeters>252.8000030517578125</AltitudeMeters>
            <DistanceMeters>23245.836070698</DistanceMeters>
          </Trackpoint>
          <Trackpoint>
            <Time>2019-10-04T10:19:25.000Z</Time>
            <Position>
              <LatitudeDegrees>43.35297589190304279327392578125</LatitudeDegrees>
              <LongitudeDegrees>-5.6766890175640583038330078125</LongitudeDegrees>
            </Position>
            <AltitudeMeters>252.8000030517578125</AltitudeMeters>
            <DistanceMeters>23253.280975615</DistanceMeters>
          </Trackpoint>
          <Trackpoint>
            <Time>2019-10-04T10:19:31.000Z</Time>
            <Position>
              <LatitudeDegrees>43.35280020721256732940673828125</LatitudeDegrees>
              <LongitudeDegrees>-5.67656622268259525299072265625</LongitudeDegrees>
            </Position>
            <AltitudeMeters>252.8000030517578125</AltitudeMeters>
            <DistanceMeters>23275.215479779</DistanceMeters>
          </Trackpoint>
          <Trackpoint>
            <Time>2019-10-04T10:19:39.000Z</Time>
            <Position>
              <LatitudeDegrees>43.352556712925434112548828125</LatitudeDegrees>
              <LongitudeDegrees>-5.6764130853116512298583984375</LongitudeDegrees>
            </Position>
            <AltitudeMeters>253</AltitudeMeters>
            <DistanceMeters>23305.01631799</DistanceMeters>
          </Trackpoint>
          <Trackpoint>
            <Time>2019-10-04T10:19:46.000Z</Time>
            <Position>
              <LatitudeDegrees>43.35233903490006923675537109375</LatitudeDegrees>
              <LongitudeDegrees>-5.676304288208484649658203125</LongitudeDegrees>
            </Position>
            <AltitudeMeters>253.1999969482421875</AltitudeMeters>
            <DistanceMeters>23330.794843076</DistanceMeters>
          </Trackpoint>
          <Trackpoint>
            <Time>2019-10-04T10:19:54.000Z</Time>
            <Position>
              <LatitudeDegrees>43.3520385436713695526123046875</LatitudeDegrees>
              <LongitudeDegrees>-5.67622994072735309600830078125</LongitudeDegrees>
            </Position>
            <AltitudeMeters>253.1999969482421875</AltitudeMeters>
            <DistanceMeters>23364.777225217</DistanceMeters>
          </Trackpoint>
          <Trackpoint>
            <Time>2019-10-04T10:19:57.000Z</Time>
            <Position>
              <LatitudeDegrees>43.35193200968205928802490234375</LatitudeDegrees>
              <LongitudeDegrees>-5.67622013390064239501953125</LongitudeDegrees>
            </Position>
            <AltitudeMeters>253.399993896484375</AltitudeMeters>
            <DistanceMeters>23376.661264748</DistanceMeters>
          </Trackpoint>
          <Trackpoint>
            <Time>2019-10-04T10:20:04.000Z</Time>
            <Position>
              <LatitudeDegrees>43.3516898564994335174560546875</LatitudeDegrees>
              <LongitudeDegrees>-5.676225833594799041748046875</LongitudeDegrees>
            </Position>
            <AltitudeMeters>252.8000030517578125</AltitudeMeters>
            <DistanceMeters>23403.617380776</DistanceMeters>
          </Trackpoint>
          <Trackpoint>
            <Time>2019-10-04T10:20:12.000Z</Time>
            <Position>
              <LatitudeDegrees>43.351441584527492523193359375</LatitudeDegrees>
              <LongitudeDegrees>-5.67624167539179325103759765625</LongitudeDegrees>
            </Position>
            <AltitudeMeters>253.399993896484375</AltitudeMeters>
            <DistanceMeters>23431.280112709</DistanceMeters>
          </Trackpoint>
          <Trackpoint>
            <Time>2019-10-04T10:20:13.000Z</Time>
            <Position>
              <LatitudeDegrees>43.35141518153250217437744140625</LatitudeDegrees>
              <LongitudeDegrees>-5.67623698152601718902587890625</LongitudeDegrees>
            </Position>
            <AltitudeMeters>253.399993896484375</AltitudeMeters>
            <DistanceMeters>23434.244276062</DistanceMeters>
          </Trackpoint>
          <Trackpoint>
            <Time>2019-10-04T10:20:18.000Z</Time>
            <Position>
              <LatitudeDegrees>43.35125206969678401947021484375</LatitudeDegrees>
              <LongitudeDegrees>-5.67620337009429931640625</LongitudeDegrees>
            </Position>
            <AltitudeMeters>253.399993896484375</AltitudeMeters>
            <DistanceMeters>23452.601902621</DistanceMeters>
          </Trackpoint>
          <Trackpoint>
            <Time>2019-10-04T10:20:24.000Z</Time>
            <Position>
              <LatitudeDegrees>43.3510897122323513031005859375</LatitudeDegrees>
              <LongitudeDegrees>-5.6761505641043186187744140625</LongitudeDegrees>
            </Position>
            <AltitudeMeters>253.600006103515625</AltitudeMeters>
            <DistanceMeters>23471.171299463</DistanceMeters>
          </Trackpoint>
          <Trackpoint>
            <Time>2019-10-04T10:20:30.000Z</Time>
            <Position>
              <LatitudeDegrees>43.35091863758862018585205078125</LatitudeDegrees>
              <LongitudeDegrees>-5.67612919025123119354248046875</LongitudeDegrees>
            </Position>
            <AltitudeMeters>254</AltitudeMeters>
            <DistanceMeters>23490.290806638</DistanceMeters>
          </Trackpoint>
          <Trackpoint>
            <Time>2019-10-04T10:20:32.000Z</Time>
            <Position>
              <LatitudeDegrees>43.35087169893085956573486328125</LatitudeDegrees>
              <LongitudeDegrees>-5.67611343227326869964599609375</LongitudeDegrees>
            </Position>
            <AltitudeMeters>254.399993896484375</AltitudeMeters>
            <DistanceMeters>23495.668008956</DistanceMeters>
          </Trackpoint>
          <Trackpoint>
            <Time>2019-10-04T10:20:35.000Z</Time>
            <Position>
              <LatitudeDegrees>43.35079089738428592681884765625</LatitudeDegrees>
              <LongitudeDegrees>-5.67611276172101497650146484375</LongitudeDegrees>
            </Position>
            <AltitudeMeters>254.600006103515625</AltitudeMeters>
            <DistanceMeters>23504.661974977</DistanceMeters>
          </Trackpoint>
          <Trackpoint>
            <Time>2019-10-04T10:20:40.000Z</Time>
            <Position>
              <LatitudeDegrees>43.35065276362001895904541015625</LatitudeDegrees>
              <LongitudeDegrees>-5.676069594919681549072265625</LongitudeDegrees>
            </Position>
            <AltitudeMeters>255</AltitudeMeters>
            <DistanceMeters>23520.428679592</DistanceMeters>
          </Trackpoint>
          <Trackpoint>
            <Time>2019-10-04T10:20:46.000Z</Time>
            <Position>
              <LatitudeDegrees>43.3504597283899784088134765625</LatitudeDegrees>
              <LongitudeDegrees>-5.67600765265524387359619140625</LongitudeDegrees>
            </Position>
            <AltitudeMeters>255.600006103515625</AltitudeMeters>
            <DistanceMeters>23542.491050511</DistanceMeters>
          </Trackpoint>
          <Trackpoint>
            <Time>2019-10-04T10:20:48.000Z</Time>
            <Position>
              <LatitudeDegrees>43.35039242170751094818115234375</LatitudeDegrees>
              <LongitudeDegrees>-5.67598317749798297882080078125</LongitudeDegrees>
            </Position>
            <AltitudeMeters>255.600006103515625</AltitudeMeters>
            <DistanceMeters>23550.240244557</DistanceMeters>
          </Trackpoint>
          <Trackpoint>
            <Time>2019-10-04T10:20:54.000Z</Time>
            <Position>
              <LatitudeDegrees>43.35019008256494998931884765625</LatitudeDegrees>
              <LongitudeDegrees>-5.67592349834740161895751953125</LongitudeDegrees>
            </Position>
            <AltitudeMeters>256</AltitudeMeters>
            <DistanceMeters>23573.273199015</DistanceMeters>
          </Trackpoint>
          <Trackpoint>
            <Time>2019-10-04T10:20:58.000Z</Time>
            <Position>
              <LatitudeDegrees>43.35007064044475555419921875</LatitudeDegrees>
              <LongitudeDegrees>-5.675869099795818328857421875</LongitudeDegrees>
            </Position>
            <AltitudeMeters>255.8000030517578125</AltitudeMeters>
            <DistanceMeters>23587.277957505</DistanceMeters>
          </Trackpoint>
          <Trackpoint>
            <Time>2019-10-04T10:21:03.000Z</Time>
            <Position>
              <LatitudeDegrees>43.349917419254779815673828125</LatitudeDegrees>
              <LongitudeDegrees>-5.67578469403088092803955078125</LongitudeDegrees>
            </Position>
            <AltitudeMeters>256</AltitudeMeters>
            <DistanceMeters>23605.649106274</DistanceMeters>
          </Trackpoint>
          <Trackpoint>
            <Time>2019-10-04T10:21:09.000Z</Time>
            <Position>
              <LatitudeDegrees>43.349737711250782012939453125</LatitudeDegrees>
              <LongitudeDegrees>-5.6756950914859771728515625</LongitudeDegrees>
            </Position>
            <AltitudeMeters>256.20001220703125</AltitudeMeters>
            <DistanceMeters>23626.924906423</DistanceMeters>
          </Trackpoint>
          <Trackpoint>
            <Time>2019-10-04T10:21:13.000Z</Time>
            <Position>
              <LatitudeDegrees>43.34962539374828338623046875</LatitudeDegrees>
              <LongitudeDegrees>-5.67561873234808444976806640625</LongitudeDegrees>
            </Position>
            <AltitudeMeters>256.600006103515625</AltitudeMeters>
            <DistanceMeters>23640.87054217</DistanceMeters>
          </Trackpoint>
          <Trackpoint>
            <Time>2019-10-04T10:21:14.000Z</Time>
            <Position>
              <LatitudeDegrees>43.349596224725246429443359375</LatitudeDegrees>
              <LongitudeDegrees>-5.6756012141704559326171875</LongitudeDegrees>
            </Position>
            <AltitudeMeters>257</AltitudeMeters>
            <DistanceMeters>23644.41594291</DistanceMeters>
          </Trackpoint>
          <Trackpoint>
            <Time>2019-10-04T10:21:20.000Z</Time>
            <Position>
              <LatitudeDegrees>43.34942313842475414276123046875</LatitudeDegrees>
              <LongitudeDegrees>-5.67548193968832492828369140625</LongitudeDegrees>
            </Position>
            <AltitudeMeters>257</AltitudeMeters>
            <DistanceMeters>23665.96418021</DistanceMeters>
          </Trackpoint>
          <Trackpoint>
            <Time>2019-10-04T10:21:29.000Z</Time>
            <Position>
              <LatitudeDegrees>43.34915474988520145416259765625</LatitudeDegrees>
              <LongitudeDegrees>-5.6752305664122104644775390625</LongitudeDegrees>
            </Position>
            <AltitudeMeters>257.399993896484375</AltitudeMeters>
            <DistanceMeters>23702.10682619</DistanceMeters>
          </Trackpoint>
          <Trackpoint>
            <Time>2019-10-04T10:21:33.000Z</Time>
            <Position>
              <LatitudeDegrees>43.34904067218303680419921875</LatitudeDegrees>
              <LongitudeDegrees>-5.67509553395211696624755859375</LongitudeDegrees>
            </Position>
            <AltitudeMeters>257.600006103515625</AltitudeMeters>
            <DistanceMeters>23718.859310955</DistanceMeters>
          </Trackpoint>
          <Trackpoint>
            <Time>2019-10-04T10:21:40.000Z</Time>
            <Position>
              <LatitudeDegrees>43.34884931333363056182861328125</LatitudeDegrees>
              <LongitudeDegrees>-5.6748403050005435943603515625</LongitudeDegrees>
            </Position>
            <AltitudeMeters>257</AltitudeMeters>
            <DistanceMeters>23748.530175665</DistanceMeters>
          </Trackpoint>
          <Trackpoint>
            <Time>2019-10-04T10:21:45.000Z</Time>
            <Position>
              <LatitudeDegrees>43.3487235009670257568359375</LatitudeDegrees>
              <LongitudeDegrees>-5.674652047455310821533203125</LongitudeDegrees>
            </Position>
            <AltitudeMeters>257</AltitudeMeters>
            <DistanceMeters>23769.22462916</DistanceMeters>
          </Trackpoint>
          <Trackpoint>
            <Time>2019-10-04T10:21:49.000Z</Time>
            <Position>
              <LatitudeDegrees>43.3486153744161128997802734375</LatitudeDegrees>
              <LongitudeDegrees>-5.67449656315147876739501953125</LongitudeDegrees>
            </Position>
            <AltitudeMeters>256.79998779296875</AltitudeMeters>
            <DistanceMeters>23786.637610146</DistanceMeters>
          </Trackpoint>
          <Trackpoint>
            <Time>2019-10-04T10:21:51.000Z</Time>
            <Position>
              <LatitudeDegrees>43.34856583736836910247802734375</LatitudeDegrees>
              <LongitudeDegrees>-5.674424059689044952392578125</LongitudeDegrees>
            </Position>
            <AltitudeMeters>256.600006103515625</AltitudeMeters>
            <DistanceMeters>23794.689687447</DistanceMeters>
          </Trackpoint>
          <Trackpoint>
            <Time>2019-10-04T10:21:58.000Z</Time>
            <Position>
              <LatitudeDegrees>43.34839451126754283905029296875</LatitudeDegrees>
              <LongitudeDegrees>-5.67418307997286319732666015625</LongitudeDegrees>
            </Position>
            <AltitudeMeters>256.20001220703125</AltitudeMeters>
            <DistanceMeters>23821.966824003</DistanceMeters>
          </Trackpoint>
          <Trackpoint>
            <Time>2019-10-04T10:22:08.000Z</Time>
            <Position>
              <LatitudeDegrees>43.34810466505587100982666015625</LatitudeDegrees>
              <LongitudeDegrees>-5.67384679801762104034423828125</LongitudeDegrees>
            </Position>
            <AltitudeMeters>256.20001220703125</AltitudeMeters>
            <DistanceMeters>23864.175268795</DistanceMeters>
          </Trackpoint>
          <Trackpoint>
            <Time>2019-10-04T10:22:16.000Z</Time>
            <Position>
              <LatitudeDegrees>43.34788623265922069549560546875</LatitudeDegrees>
              <LongitudeDegrees>-5.67359291017055511474609375</LongitudeDegrees>
            </Position>
            <AltitudeMeters>255.399993896484375</AltitudeMeters>
            <DistanceMeters>23896.008225277</DistanceMeters>
          </Trackpoint>
          <Trackpoint>
            <Time>2019-10-04T10:22:22.000Z</Time>
            <Position>
              <LatitudeDegrees>43.347740136086940765380859375</LatitudeDegrees>
              <LongitudeDegrees>-5.67343709059059619903564453125</LongitudeDegrees>
            </Position>
            <AltitudeMeters>255.399993896484375</AltitudeMeters>
            <DistanceMeters>23916.586501075</DistanceMeters>
          </Trackpoint>
          <Trackpoint>
            <Time>2019-10-04T10:22:28.000Z</Time>
            <Position>
              <LatitudeDegrees>43.3475942909717559814453125</LatitudeDegrees>
              <LongitudeDegrees>-5.6733191572129726409912109375</LongitudeDegrees>
            </Position>
            <AltitudeMeters>255.8000030517578125</AltitudeMeters>
            <DistanceMeters>23935.417621646</DistanceMeters>
          </Trackpoint>
          <Trackpoint>
            <Time>2019-10-04T10:22:36.000Z</Time>
            <Position>
              <LatitudeDegrees>43.347374014556407928466796875</LatitudeDegrees>
              <LongitudeDegrees>-5.67312712781131267547607421875</LongitudeDegrees>
            </Position>
            <AltitudeMeters>255.8000030517578125</AltitudeMeters>
            <DistanceMeters>23964.446377623</DistanceMeters>
          </Trackpoint>
          <Trackpoint>
            <Time>2019-10-04T10:22:42.000Z</Time>
            <Position>
              <LatitudeDegrees>43.347193300724029541015625</LatitudeDegrees>
              <LongitudeDegrees>-5.6730358488857746124267578125</LongitudeDegrees>
            </Position>
            <AltitudeMeters>255.8000030517578125</AltitudeMeters>
            <DistanceMeters>23985.874216921</DistanceMeters>
          </Trackpoint>
          <Trackpoint>
            <Time>2019-10-04T10:22:45.000Z</Time>
            <Position>
              <LatitudeDegrees>43.34710487164556980133056640625</LatitudeDegrees>
              <LongitudeDegrees>-5.67299888469278812408447265625</LongitudeDegrees>
            </Position>
            <AltitudeMeters>255.399993896484375</AltitudeMeters>
            <DistanceMeters>23996.160831318</DistanceMeters>
          </Trackpoint>
          <Trackpoint>
            <Time>2019-10-04T10:22:49.000Z</Time>
            <Position>
              <LatitudeDegrees>43.34699071012437343597412109375</LatitudeDegrees>
              <LongitudeDegrees>-5.67295462824404239654541015625</LongitudeDegrees>
            </Position>
            <AltitudeMeters>255.8000030517578125</AltitudeMeters>
            <DistanceMeters>24009.362364387</DistanceMeters>
          </Trackpoint>
          <Trackpoint>
            <Time>2019-10-04T10:22:53.000Z</Time>
            <Position>
              <LatitudeDegrees>43.3468709327280521392822265625</LatitudeDegrees>
              <LongitudeDegrees>-5.67291640676558017730712890625</LongitudeDegrees>
            </Position>
            <AltitudeMeters>256.20001220703125</AltitudeMeters>
            <DistanceMeters>24023.048190837</DistanceMeters>
          </Trackpoint>
          <Trackpoint>
            <Time>2019-10-04T10:22:54.000Z</Time>
            <Position>
              <LatitudeDegrees>43.346839584410190582275390625</LatitudeDegrees>
              <LongitudeDegrees>-5.67290685139596462249755859375</LongitudeDegrees>
            </Position>
            <AltitudeMeters>256.20001220703125</AltitudeMeters>
            <DistanceMeters>24026.620234791</DistanceMeters>
          </Trackpoint>
          <Trackpoint>
            <Time>2019-10-04T10:23:01.000Z</Time>
            <Position>
              <LatitudeDegrees>43.3466206490993499755859375</LatitudeDegrees>
              <LongitudeDegrees>-5.6729055941104888916015625</LongitudeDegrees>
            </Position>
            <AltitudeMeters>255.8000030517578125</AltitudeMeters>
            <DistanceMeters>24050.988241825</DistanceMeters>
          </Trackpoint>
          <Trackpoint>
            <Time>2019-10-04T10:23:08.000Z</Time>
            <Position>
              <LatitudeDegrees>43.34641923196613788604736328125</LatitudeDegrees>
              <LongitudeDegrees>-5.6729538738727569580078125</LongitudeDegrees>
            </Position>
            <AltitudeMeters>255.8000030517578125</AltitudeMeters>
            <DistanceMeters>24073.744312746</DistanceMeters>
          </Trackpoint>
          <Trackpoint>
            <Time>2019-10-04T10:23:15.000Z</Time>
            <Position>
              <LatitudeDegrees>43.34623835049569606781005859375</LatitudeDegrees>
              <LongitudeDegrees>-5.6729946099221706390380859375</LongitudeDegrees>
            </Position>
            <AltitudeMeters>255.8000030517578125</AltitudeMeters>
            <DistanceMeters>24094.145200553</DistanceMeters>
          </Trackpoint>
          <Trackpoint>
            <Time>2019-10-04T10:23:22.000Z</Time>
            <Position>
              <LatitudeDegrees>43.3460625819861888885498046875</LatitudeDegrees>
              <LongitudeDegrees>-5.67303366959095001220703125</LongitudeDegrees>
            </Position>
            <AltitudeMeters>256</AltitudeMeters>
            <DistanceMeters>24113.962314988</DistanceMeters>
          </Trackpoint>
          <Trackpoint>
            <Time>2019-10-04T10:23:29.000Z</Time>
            <Position>
              <LatitudeDegrees>43.3459029905498027801513671875</LatitudeDegrees>
              <LongitudeDegrees>-5.673022605478763580322265625</LongitudeDegrees>
            </Position>
            <AltitudeMeters>256.20001220703125</AltitudeMeters>
            <DistanceMeters>24131.747802832</DistanceMeters>
          </Trackpoint>
          <Trackpoint>
            <Time>2019-10-04T10:23:30.000Z</Time>
            <Position>
              <LatitudeDegrees>43.345878683030605316162109375</LatitudeDegrees>
              <LongitudeDegrees>-5.67301564849913120269775390625</LongitudeDegrees>
            </Position>
            <AltitudeMeters>256.20001220703125</AltitudeMeters>
            <DistanceMeters>24134.511757367</DistanceMeters>
          </Trackpoint>
          <Trackpoint>
            <Time>2019-10-04T10:23:33.000Z</Time>
            <Position>
              <LatitudeDegrees>43.345803581178188323974609375</LatitudeDegrees>
              <LongitudeDegrees>-5.6729785166680812835693359375</LongitudeDegrees>
            </Position>
            <AltitudeMeters>256.399993896484375</AltitudeMeters>
            <DistanceMeters>24143.395103473</DistanceMeters>
          </Trackpoint>
          <Trackpoint>
            <Time>2019-10-04T10:23:37.000Z</Time>
            <Position>
              <LatitudeDegrees>43.34571070969104766845703125</LatitudeDegrees>
              <LongitudeDegrees>-5.67292545922100543975830078125</LongitudeDegrees>
            </Position>
            <AltitudeMeters>256</AltitudeMeters>
            <DistanceMeters>24154.588104884</DistanceMeters>
          </Trackpoint>
          <Trackpoint>
            <Time>2019-10-04T10:23:43.000Z</Time>
            <Position>
              <LatitudeDegrees>43.345571570098400115966796875</LatitudeDegrees>
              <LongitudeDegrees>-5.67283543758094310760498046875</LongitudeDegrees>
            </Position>
            <AltitudeMeters>256.20001220703125</AltitudeMeters>
            <DistanceMeters>24171.703204935</DistanceMeters>
          </Trackpoint>
          <Trackpoint>
            <Time>2019-10-04T10:23:52.000Z</Time>
            <Position>
              <LatitudeDegrees>43.345312736928462982177734375</LatitudeDegrees>
              <LongitudeDegrees>-5.67266327328979969024658203125</LongitudeDegrees>
            </Position>
            <AltitudeMeters>256.399993896484375</AltitudeMeters>
            <DistanceMeters>24203.705205806</DistanceMeters>
          </Trackpoint>
          <Trackpoint>
            <Time>2019-10-04T10:23:59.000Z</Time>
            <Position>
              <LatitudeDegrees>43.345141746103763580322265625</LatitudeDegrees>
              <LongitudeDegrees>-5.67256034351885318756103515625</LongitudeDegrees>
            </Position>
            <AltitudeMeters>256.20001220703125</AltitudeMeters>
            <DistanceMeters>24224.480662332</DistanceMeters>
          </Trackpoint>
          <Trackpoint>
            <Time>2019-10-04T10:24:02.000Z</Time>
            <Position>
              <LatitudeDegrees>43.3450731821358203887939453125</LatitudeDegrees>
              <LongitudeDegrees>-5.67250669933855533599853515625</LongitudeDegrees>
            </Position>
            <AltitudeMeters>256</AltitudeMeters>
            <DistanceMeters>24233.261254151</DistanceMeters>
          </Trackpoint>
          <Trackpoint>
            <Time>2019-10-04T10:24:04.000Z</Time>
            <Position>
              <LatitudeDegrees>43.34502733312547206878662109375</LatitudeDegrees>
              <LongitudeDegrees>-5.6724683940410614013671875</LongitudeDegrees>
            </Position>
            <AltitudeMeters>256</AltitudeMeters>
            <DistanceMeters>24239.23359054</DistanceMeters>
          </Trackpoint>
          <Trackpoint>
            <Time>2019-10-04T10:24:07.000Z</Time>
            <Position>
              <LatitudeDegrees>43.3449484594166278839111328125</LatitudeDegrees>
              <LongitudeDegrees>-5.67241634242236614227294921875</LongitudeDegrees>
            </Position>
            <AltitudeMeters>256</AltitudeMeters>
            <DistanceMeters>24248.971394848</DistanceMeters>
          </Trackpoint>
          <Trackpoint>
            <Time>2019-10-04T10:24:10.000Z</Time>
            <Position>
              <LatitudeDegrees>43.34486573003232479095458984375</LatitudeDegrees>
              <LongitudeDegrees>-5.6723673082888126373291015625</LongitudeDegrees>
            </Position>
            <AltitudeMeters>255.8000030517578125</AltitudeMeters>
            <DistanceMeters>24258.998401935</DistanceMeters>
          </Trackpoint>
          <Trackpoint>
            <Time>2019-10-04T10:24:16.000Z</Time>
            <Position>
              <LatitudeDegrees>43.3447080664336681365966796875</LatitudeDegrees>
              <LongitudeDegrees>-5.6722724251449108123779296875</LongitudeDegrees>
            </Position>
            <AltitudeMeters>256</AltitudeMeters>
            <DistanceMeters>24278.153770014</DistanceMeters>
          </Trackpoint>
          <Trackpoint>
            <Time>2019-10-04T10:24:21.000Z</Time>
            <Position>
              <LatitudeDegrees>43.344554342329502105712890625</LatitudeDegrees>
              <LongitudeDegrees>-5.67219506017863750457763671875</LongitudeDegrees>
            </Position>
            <AltitudeMeters>256</AltitudeMeters>
            <DistanceMeters>24296.373640218</DistanceMeters>
          </Trackpoint>
          <Trackpoint>
            <Time>2019-10-04T10:24:29.000Z</Time>
            <Position>
              <LatitudeDegrees>43.34430581890046596527099609375</LatitudeDegrees>
              <LongitudeDegrees>-5.67210369743406772613525390625</LongitudeDegrees>
            </Position>
            <AltitudeMeters>256.399993896484375</AltitudeMeters>
            <DistanceMeters>24325.006184292</DistanceMeters>
          </Trackpoint>
          <Trackpoint>
            <Time>2019-10-04T10:24:39.000Z</Time>
            <Position>
              <LatitudeDegrees>43.344006501138210296630859375</LatitudeDegrees>
              <LongitudeDegrees>-5.67189163528382778167724609375</LongitudeDegrees>
            </Position>
            <AltitudeMeters>256</AltitudeMeters>
            <DistanceMeters>24362.482869975</DistanceMeters>
          </Trackpoint>
          <Trackpoint>
            <Time>2019-10-04T10:24:47.000Z</Time>
            <Position>
              <LatitudeDegrees>43.343836180865764617919921875</LatitudeDegrees>
              <LongitudeDegrees>-5.671607740223407745361328125</LongitudeDegrees>
            </Position>
            <AltitudeMeters>256.399993896484375</AltitudeMeters>
            <DistanceMeters>24392.272494553</DistanceMeters>
          </Trackpoint>
          <Trackpoint>
            <Time>2019-10-04T10:24:57.000Z</Time>
            <Position>
              <LatitudeDegrees>43.3437263779342174530029296875</LatitudeDegrees>
              <LongitudeDegrees>-5.67118302918970584869384765625</LongitudeDegrees>
            </Position>
            <AltitudeMeters>256</AltitudeMeters>
            <DistanceMeters>24428.758050725</DistanceMeters>
          </Trackpoint>
          <Trackpoint>
            <Time>2019-10-04T10:25:05.000Z</Time>
            <Position>
              <LatitudeDegrees>43.34362973459064960479736328125</LatitudeDegrees>
              <LongitudeDegrees>-5.67085948772728443145751953125</LongitudeDegrees>
            </Position>
            <AltitudeMeters>255.8000030517578125</AltitudeMeters>
            <DistanceMeters>24457.069952209</DistanceMeters>
          </Trackpoint>
          <Trackpoint>
            <Time>2019-10-04T10:25:10.000Z</Time>
            <Position>
              <LatitudeDegrees>43.34353887476027011871337890625</LatitudeDegrees>
              <LongitudeDegrees>-5.670659244060516357421875</LongitudeDegrees>
            </Position>
            <AltitudeMeters>255.8000030517578125</AltitudeMeters>
            <DistanceMeters>24476.174812582</DistanceMeters>
          </Trackpoint>
          <Trackpoint>
            <Time>2019-10-04T10:25:13.000Z</Time>
            <Position>
              <LatitudeDegrees>43.343453966081142425537109375</LatitudeDegrees>
              <LongitudeDegrees>-5.67055857740342617034912109375</LongitudeDegrees>
            </Position>
            <AltitudeMeters>256</AltitudeMeters>
            <DistanceMeters>24488.653379735</DistanceMeters>
          </Trackpoint>
          <Trackpoint>
            <Time>2019-10-04T10:25:18.000Z</Time>
            <Position>
              <LatitudeDegrees>43.34330166690051555633544921875</LatitudeDegrees>
              <LongitudeDegrees>-5.67044927738606929779052734375</LongitudeDegrees>
            </Position>
            <AltitudeMeters>256</AltitudeMeters>
            <DistanceMeters>24507.774303747</DistanceMeters>
          </Trackpoint>
          <Trackpoint>
            <Time>2019-10-04T10:25:19.000Z</Time>
            <Position>
              <LatitudeDegrees>43.3432687260210514068603515625</LatitudeDegrees>
              <LongitudeDegrees>-5.6704364530742168426513671875</LongitudeDegrees>
            </Position>
            <AltitudeMeters>256</AltitudeMeters>
            <DistanceMeters>24511.586047836</DistanceMeters>
          </Trackpoint>
          <Trackpoint>
            <Time>2019-10-04T10:25:28.000Z</Time>
            <Position>
              <LatitudeDegrees>43.34298960864543914794921875</LatitudeDegrees>
              <LongitudeDegrees>-5.67035741172730922698974609375</LongitudeDegrees>
            </Position>
            <AltitudeMeters>256</AltitudeMeters>
            <DistanceMeters>24543.304194323</DistanceMeters>
          </Trackpoint>
          <Trackpoint>
            <Time>2019-10-04T10:25:35.000Z</Time>
            <Position>
              <LatitudeDegrees>43.34277100861072540283203125</LatitudeDegrees>
              <LongitudeDegrees>-5.6703375466167926788330078125</LongitudeDegrees>
            </Position>
            <AltitudeMeters>255.8000030517578125</AltitudeMeters>
            <DistanceMeters>24567.687760372</DistanceMeters>
          </Trackpoint>
          <Trackpoint>
            <Time>2019-10-04T10:25:44.000Z</Time>
            <Position>
              <LatitudeDegrees>43.3425049670040607452392578125</LatitudeDegrees>
              <LongitudeDegrees>-5.67031282000243663787841796875</LongitudeDegrees>
            </Position>
            <AltitudeMeters>256</AltitudeMeters>
            <DistanceMeters>24597.366384777</DistanceMeters>
          </Trackpoint>
          <Trackpoint>
            <Time>2019-10-04T10:25:48.000Z</Time>
            <Position>
              <LatitudeDegrees>43.34239709191024303436279296875</LatitudeDegrees>
              <LongitudeDegrees>-5.670279376208782196044921875</LongitudeDegrees>
            </Position>
            <AltitudeMeters>256.399993896484375</AltitudeMeters>
            <DistanceMeters>24609.674453773</DistanceMeters>
          </Trackpoint>
          <Trackpoint>
            <Time>2019-10-04T10:25:51.000Z</Time>
            <Position>
              <LatitudeDegrees>43.34231712855398654937744140625</LatitudeDegrees>
              <LongitudeDegrees>-5.67022145725786685943603515625</LongitudeDegrees>
            </Position>
            <AltitudeMeters>256</AltitudeMeters>
            <DistanceMeters>24619.733829332</DistanceMeters>
          </Trackpoint>
          <Trackpoint>
            <Time>2019-10-04T10:25:57.000Z</Time>
            <Position>
              <LatitudeDegrees>43.34219458512961864471435546875</LatitudeDegrees>
              <LongitudeDegrees>-5.6700287573039531707763671875</LongitudeDegrees>
            </Position>
            <AltitudeMeters>256</AltitudeMeters>
            <DistanceMeters>24640.454229534</DistanceMeters>
          </Trackpoint>
          <Trackpoint>
            <Time>2019-10-04T10:26:03.000Z</Time>
            <Position>
              <LatitudeDegrees>43.34213842637836933135986328125</LatitudeDegrees>
              <LongitudeDegrees>-5.66979599185287952423095703125</LongitudeDegrees>
            </Position>
            <AltitudeMeters>256</AltitudeMeters>
            <DistanceMeters>24660.305262402</DistanceMeters>
          </Trackpoint>
          <Trackpoint>
            <Time>2019-10-04T10:26:11.000Z</Time>
            <Position>
              <LatitudeDegrees>43.34213004447519779205322265625</LatitudeDegrees>
              <LongitudeDegrees>-5.6694440357387065887451171875</LongitudeDegrees>
            </Position>
            <AltitudeMeters>256.399993896484375</AltitudeMeters>
            <DistanceMeters>24688.81010898</DistanceMeters>
          </Trackpoint>
          <Trackpoint>
            <Time>2019-10-04T10:26:19.000Z</Time>
            <Position>
              <LatitudeDegrees>43.34212166257202625274658203125</LatitudeDegrees>
              <LongitudeDegrees>-5.6690916605293750762939453125</LongitudeDegrees>
            </Position>
            <AltitudeMeters>256.20001220703125</AltitudeMeters>
            <DistanceMeters>24717.348832056</DistanceMeters>
          </Trackpoint>
          <Trackpoint>
            <Time>2019-10-04T10:26:26.000Z</Time>
            <Position>
              <LatitudeDegrees>43.34212124347686767578125</LatitudeDegrees>
              <LongitudeDegrees>-5.66879586316645145416259765625</LongitudeDegrees>
            </Position>
            <AltitudeMeters>256</AltitudeMeters>
            <DistanceMeters>24741.292547166</DistanceMeters>
          </Trackpoint>
          <Trackpoint>
            <Time>2019-10-04T10:26:35.000Z</Time>
            <Position>
              <LatitudeDegrees>43.342112861573696136474609375</LatitudeDegrees>
              <LongitudeDegrees>-5.6684102118015289306640625</LongitudeDegrees>
            </Position>
            <AltitudeMeters>255.8000030517578125</AltitudeMeters>
            <DistanceMeters>24772.523536215</DistanceMeters>
          </Trackpoint>
          <Trackpoint>
            <Time>2019-10-04T10:26:41.000Z</Time>
            <Position>
              <LatitudeDegrees>43.34209852851927280426025390625</LatitudeDegrees>
              <LongitudeDegrees>-5.66816939972341060638427734375</LongitudeDegrees>
            </Position>
            <AltitudeMeters>256.399993896484375</AltitudeMeters>
            <DistanceMeters>24792.08150232</DistanceMeters>
          </Trackpoint>
          <Trackpoint>
            <Time>2019-10-04T10:26:46.000Z</Time>
            <Position>
              <LatitudeDegrees>43.34209911525249481201171875</LatitudeDegrees>
              <LongitudeDegrees>-5.66796421073377132415771484375</LongitudeDegrees>
            </Position>
            <AltitudeMeters>256.600006103515625</AltitudeMeters>
            <DistanceMeters>24808.690801985</DistanceMeters>
          </Trackpoint>
          <Trackpoint>
            <Time>2019-10-04T10:26:51.000Z</Time>
            <Position>
              <LatitudeDegrees>43.34212191402912139892578125</LatitudeDegrees>
              <LongitudeDegrees>-5.66773907281458377838134765625</LongitudeDegrees>
            </Position>
            <AltitudeMeters>256.79998779296875</AltitudeMeters>
            <DistanceMeters>24827.090683127</DistanceMeters>
          </Trackpoint>
          <Trackpoint>
            <Time>2019-10-04T10:26:57.000Z</Time>
            <Position>
              <LatitudeDegrees>43.34219944663345813751220703125</LatitudeDegrees>
              <LongitudeDegrees>-5.66749163903295993804931640625</LongitudeDegrees>
            </Position>
            <AltitudeMeters>257.399993896484375</AltitudeMeters>
            <DistanceMeters>24848.899469347</DistanceMeters>
          </Trackpoint>
          <Trackpoint>
            <Time>2019-10-04T10:26:59.000Z</Time>
            <Position>
              <LatitudeDegrees>43.3422337286174297332763671875</LatitudeDegrees>
              <LongitudeDegrees>-5.66741066984832286834716796875</LongitudeDegrees>
            </Position>
            <AltitudeMeters>257.600006103515625</AltitudeMeters>
            <DistanceMeters>24856.483768059</DistanceMeters>
          </Trackpoint>
          <Trackpoint>
            <Time>2019-10-04T10:27:02.000Z</Time>
            <Position>
              <LatitudeDegrees>43.34229282103478908538818359375</LatitudeDegrees>
              <LongitudeDegrees>-5.66728795878589153289794921875</LongitudeDegrees>
            </Position>
            <AltitudeMeters>257.79998779296875</AltitudeMeters>
            <DistanceMeters>24868.396646863</DistanceMeters>
          </Trackpoint>
          <Trackpoint>
            <Time>2019-10-04T10:27:10.000Z</Time>
            <Position>
              <LatitudeDegrees>43.342460878193378448486328125</LatitudeDegrees>
              <LongitudeDegrees>-5.66699861548840999603271484375</LongitudeDegrees>
            </Position>
            <AltitudeMeters>257.79998779296875</AltitudeMeters>
            <DistanceMeters>24898.370458693</DistanceMeters>
          </Trackpoint>
          <Trackpoint>
            <Time>2019-10-04T10:27:19.000Z</Time>
            <Position>
              <LatitudeDegrees>43.34265609271824359893798828125</LatitudeDegrees>
              <LongitudeDegrees>-5.66670441068708896636962890625</LongitudeDegrees>
            </Position>
            <AltitudeMeters>257.79998779296875</AltitudeMeters>
            <DistanceMeters>24930.607772596</DistanceMeters>
          </Trackpoint>
          <Trackpoint>
            <Time>2019-10-04T10:27:28.000Z</Time>
            <Position>
              <LatitudeDegrees>43.34282599389553070068359375</LatitudeDegrees>
              <LongitudeDegrees>-5.6663631834089756011962890625</LongitudeDegrees>
            </Position>
            <AltitudeMeters>257.79998779296875</AltitudeMeters>
            <DistanceMeters>24964.082003368</DistanceMeters>
          </Trackpoint>
          <Trackpoint>
            <Time>2019-10-04T10:27:37.000Z</Time>
            <Position>
              <LatitudeDegrees>43.34295180626213550567626953125</LatitudeDegrees>
              <LongitudeDegrees>-5.666006617248058319091796875</LongitudeDegrees>
            </Position>
            <AltitudeMeters>258.20001220703125</AltitudeMeters>
            <DistanceMeters>24996.161929989</DistanceMeters>
          </Trackpoint>
          <Trackpoint>
            <Time>2019-10-04T10:27:43.000Z</Time>
            <Position>
              <LatitudeDegrees>43.34303788840770721435546875</LatitudeDegrees>
              <LongitudeDegrees>-5.66577821038663387298583984375</LongitudeDegrees>
            </Position>
            <AltitudeMeters>257.79998779296875</AltitudeMeters>
            <DistanceMeters>25016.985360081</DistanceMeters>
          </Trackpoint>
          <Trackpoint>
            <Time>2019-10-04T10:27:48.000Z</Time>
            <Position>
              <LatitudeDegrees>43.34310938604176044464111328125</LatitudeDegrees>
              <LongitudeDegrees>-5.66557855345308780670166015625</LongitudeDegrees>
            </Position>
            <AltitudeMeters>258.20001220703125</AltitudeMeters>
            <DistanceMeters>25034.999628236</DistanceMeters>
          </Trackpoint>
          <Trackpoint>
            <Time>2019-10-04T10:27:57.000Z</Time>
            <Position>
              <LatitudeDegrees>43.34321013651788234710693359375</LatitudeDegrees>
              <LongitudeDegrees>-5.66519784741103649139404296875</LongitudeDegrees>
            </Position>
            <AltitudeMeters>258</AltitudeMeters>
            <DistanceMeters>25067.792795264</DistanceMeters>
          </Trackpoint>
          <Trackpoint>
            <Time>2019-10-04T10:28:03.000Z</Time>
            <Position>
              <LatitudeDegrees>43.343209885060787200927734375</LatitudeDegrees>
              <LongitudeDegrees>-5.66494169645011425018310546875</LongitudeDegrees>
            </Position>
            <AltitudeMeters>257.79998779296875</AltitudeMeters>
            <DistanceMeters>25088.526918813</DistanceMeters>
          </Trackpoint>
          <Trackpoint>
            <Time>2019-10-04T10:28:12.000Z</Time>
            <Position>
              <LatitudeDegrees>43.34323058836162090301513671875</LatitudeDegrees>
              <LongitudeDegrees>-5.66455311141908168792724609375</LongitudeDegrees>
            </Position>
            <AltitudeMeters>258</AltitudeMeters>
            <DistanceMeters>25120.065195879</DistanceMeters>
          </Trackpoint>
          <Trackpoint>
            <Time>2019-10-04T10:28:21.000Z</Time>
            <Position>
              <LatitudeDegrees>43.343330919742584228515625</LatitudeDegrees>
              <LongitudeDegrees>-5.664165280759334564208984375</LongitudeDegrees>
            </Position>
            <AltitudeMeters>257</AltitudeMeters>
            <DistanceMeters>25153.385307503</DistanceMeters>
          </Trackpoint>
          <Trackpoint>
            <Time>2019-10-04T10:28:23.000Z</Time>
            <Position>
              <LatitudeDegrees>43.34334743209183216094970703125</LatitudeDegrees>
              <LongitudeDegrees>-5.6640581600368022918701171875</LongitudeDegrees>
            </Position>
            <AltitudeMeters>256.600006103515625</AltitudeMeters>
            <DistanceMeters>25162.248809354</DistanceMeters>
          </Trackpoint>
          <Trackpoint>
            <Time>2019-10-04T10:28:24.000Z</Time>
            <Position>
              <LatitudeDegrees>43.343350701034069061279296875</LatitudeDegrees>
              <LongitudeDegrees>-5.66399906761944293975830078125</LongitudeDegrees>
            </Position>
            <AltitudeMeters>256.20001220703125</AltitudeMeters>
            <DistanceMeters>25167.045541031</DistanceMeters>
          </Trackpoint>
          <Trackpoint>
            <Time>2019-10-04T10:28:26.000Z</Time>
            <Position>
              <LatitudeDegrees>43.34333829581737518310546875</LatitudeDegrees>
              <LongitudeDegrees>-5.66388105042278766632080078125</LongitudeDegrees>
            </Position>
            <AltitudeMeters>255</AltitudeMeters>
            <DistanceMeters>25176.698122486</DistanceMeters>
          </Trackpoint>
          <Trackpoint>
            <Time>2019-10-04T10:28:30.000Z</Time>
            <Position>
              <LatitudeDegrees>43.34323461167514324188232421875</LatitudeDegrees>
              <LongitudeDegrees>-5.66370352171361446380615234375</LongitudeDegrees>
            </Position>
            <AltitudeMeters>253.8000030517578125</AltitudeMeters>
            <DistanceMeters>25195.128406138</DistanceMeters>
          </Trackpoint>
          <Trackpoint>
            <Time>2019-10-04T10:28:32.000Z</Time>
            <Position>
              <LatitudeDegrees>43.34317057393491268157958984375</LatitudeDegrees>
              <LongitudeDegrees>-5.6636424176394939422607421875</LongitudeDegrees>
            </Position>
            <AltitudeMeters>253.399993896484375</AltitudeMeters>
            <DistanceMeters>25203.803986071</DistanceMeters>
          </Trackpoint>
          <Trackpoint>
            <Time>2019-10-04T10:28:35.000Z</Time>
            <Position>
              <LatitudeDegrees>43.3430635370314121246337890625</LatitudeDegrees>
              <LongitudeDegrees>-5.66358785144984722137451171875</LongitudeDegrees>
            </Position>
            <AltitudeMeters>252.600006103515625</AltitudeMeters>
            <DistanceMeters>25216.509878667</DistanceMeters>
          </Trackpoint>
          <Trackpoint>
            <Time>2019-10-04T10:28:38.000Z</Time>
            <Position>
              <LatitudeDegrees>43.34293269552290439605712890625</LatitudeDegrees>
              <LongitudeDegrees>-5.66360796801745891571044921875</LongitudeDegrees>
            </Position>
            <AltitudeMeters>251.600006103515625</AltitudeMeters>
            <DistanceMeters>25231.163725187</DistanceMeters>
          </Trackpoint>
          <Trackpoint>
            <Time>2019-10-04T10:28:39.000Z</Time>
            <Position>
              <LatitudeDegrees>43.3428925462067127227783203125</LatitudeDegrees>
              <LongitudeDegrees>-5.663629509508609771728515625</LongitudeDegrees>
            </Position>
            <AltitudeMeters>251.600006103515625</AltitudeMeters>
            <DistanceMeters>25235.960456864</DistanceMeters>
          </Trackpoint>
          <Trackpoint>
            <Time>2019-10-04T10:28:43.000Z</Time>
            <Position>
              <LatitudeDegrees>43.34276162087917327880859375</LatitudeDegrees>
              <LongitudeDegrees>-5.66374911926686763763427734375</LongitudeDegrees>
            </Position>
            <AltitudeMeters>250.600006103515625</AltitudeMeters>
            <DistanceMeters>25253.455698249</DistanceMeters>
          </Trackpoint>
          <Trackpoint>
            <Time>2019-10-04T10:28:44.000Z</Time>
            <Position>
              <LatitudeDegrees>43.3427282609045505523681640625</LatitudeDegrees>
              <LongitudeDegrees>-5.6637887656688690185546875</LongitudeDegrees>
            </Position>
            <AltitudeMeters>250.399993896484375</AltitudeMeters>
            <DistanceMeters>25258.363163367</DistanceMeters>
          </Trackpoint>
          <Trackpoint>
            <Time>2019-10-04T10:28:49.000Z</Time>
            <Position>
              <LatitudeDegrees>43.342576883733272552490234375</LatitudeDegrees>
              <LongitudeDegrees>-5.663986913859844207763671875</LongitudeDegrees>
            </Position>
            <AltitudeMeters>249.8000030517578125</AltitudeMeters>
            <DistanceMeters>25281.625501189</DistanceMeters>
          </Trackpoint>
          <Trackpoint>
            <Time>2019-10-04T10:28:50.000Z</Time>
            <Position>
              <LatitudeDegrees>43.34254746325314044952392578125</LatitudeDegrees>
              <LongitudeDegrees>-5.66402371041476726531982421875</LongitudeDegrees>
            </Position>
            <AltitudeMeters>249.600006103515625</AltitudeMeters>
            <DistanceMeters>25286.052155217</DistanceMeters>
          </Trackpoint>
          <Trackpoint>
            <Time>2019-10-04T10:28:57.000Z</Time>
            <Position>
              <LatitudeDegrees>43.34236197173595428466796875</LatitudeDegrees>
              <LongitudeDegrees>-5.6642526201903820037841796875</LongitudeDegrees>
            </Position>
            <AltitudeMeters>250</AltitudeMeters>
            <DistanceMeters>25313.793446371</DistanceMeters>
          </Trackpoint>
          <Trackpoint>
            <Time>2019-10-04T10:29:04.000Z</Time>
            <Position>
              <LatitudeDegrees>43.34218938834965229034423828125</LatitudeDegrees>
              <LongitudeDegrees>-5.6644648499786853790283203125</LongitudeDegrees>
            </Position>
            <AltitudeMeters>251.1999969482421875</AltitudeMeters>
            <DistanceMeters>25339.56373822</DistanceMeters>
          </Trackpoint>
          <Trackpoint>
            <Time>2019-10-04T10:29:06.000Z</Time>
            <Position>
              <LatitudeDegrees>43.342145048081874847412109375</LatitudeDegrees>
              <LongitudeDegrees>-5.66452838480472564697265625</LongitudeDegrees>
            </Position>
            <AltitudeMeters>251.600006103515625</AltitudeMeters>
            <DistanceMeters>25346.691375281</DistanceMeters>
          </Trackpoint>
          <Trackpoint>
            <Time>2019-10-04T10:29:12.000Z</Time>
            <Position>
              <LatitudeDegrees>43.3420117758214473724365234375</LatitudeDegrees>
              <LongitudeDegrees>-5.66473566927015781402587890625</LongitudeDegrees>
            </Position>
            <AltitudeMeters>252.399993896484375</AltitudeMeters>
            <DistanceMeters>25369.087057142</DistanceMeters>
          </Trackpoint>
          <Trackpoint>
            <Time>2019-10-04T10:29:14.000Z</Time>
            <Position>
              <LatitudeDegrees>43.34198319353163242340087890625</LatitudeDegrees>
              <LongitudeDegrees>-5.6648175604641437530517578125</LongitudeDegrees>
            </Position>
            <AltitudeMeters>252.8000030517578125</AltitudeMeters>
            <DistanceMeters>25376.439816329</DistanceMeters>
          </Trackpoint>
          <Trackpoint>
            <Time>2019-10-04T10:29:16.000Z</Time>
            <Position>
              <LatitudeDegrees>43.3419423736631870269775390625</LatitudeDegrees>
              <LongitudeDegrees>-5.6648836098611354827880859375</LongitudeDegrees>
            </Position>
            <AltitudeMeters>253.600006103515625</AltitudeMeters>
            <DistanceMeters>25383.456366534</DistanceMeters>
          </Trackpoint>
          <Trackpoint>
            <Time>2019-10-04T10:29:18.000Z</Time>
            <Position>
              <LatitudeDegrees>43.3418984524905681610107421875</LatitudeDegrees>
              <LongitudeDegrees>-5.66494655795395374298095703125</LongitudeDegrees>
            </Position>
            <AltitudeMeters>254</AltitudeMeters>
            <DistanceMeters>25390.51781696</DistanceMeters>
          </Trackpoint>
          <Trackpoint>
            <Time>2019-10-04T10:29:23.000Z</Time>
            <Position>
              <LatitudeDegrees>43.3417814411222934722900390625</LatitudeDegrees>
              <LongitudeDegrees>-5.66511151380836963653564453125</LongitudeDegrees>
            </Position>
            <AltitudeMeters>255.1999969482421875</AltitudeMeters>
            <DistanceMeters>25409.169699575</DistanceMeters>
          </Trackpoint>
          <Trackpoint>
            <Time>2019-10-04T10:29:31.000Z</Time>
            <Position>
              <LatitudeDegrees>43.34158572368323802947998046875</LatitudeDegrees>
              <LongitudeDegrees>-5.6653546728193759918212890625</LongitudeDegrees>
            </Position>
            <AltitudeMeters>256</AltitudeMeters>
            <DistanceMeters>25438.528648582</DistanceMeters>
          </Trackpoint>
          <Trackpoint>
            <Time>2019-10-04T10:29:33.000Z</Time>
            <Position>
              <LatitudeDegrees>43.3415316604077816009521484375</LatitudeDegrees>
              <LongitudeDegrees>-5.66540010273456573486328125</LongitudeDegrees>
            </Position>
            <AltitudeMeters>256.399993896484375</AltitudeMeters>
            <DistanceMeters>25445.579861308</DistanceMeters>
          </Trackpoint>
          <Trackpoint>
            <Time>2019-10-04T10:29:39.000Z</Time>
            <Position>
              <LatitudeDegrees>43.34135614335536956787109375</LatitudeDegrees>
              <LongitudeDegrees>-5.66549599170684814453125</LongitudeDegrees>
            </Position>
            <AltitudeMeters>256.79998779296875</AltitudeMeters>
            <DistanceMeters>25466.600749983</DistanceMeters>
          </Trackpoint>
          <Trackpoint>
            <Time>2019-10-04T10:29:46.000Z</Time>
            <Position>
              <LatitudeDegrees>43.3411450870335102081298828125</LatitudeDegrees>
              <LongitudeDegrees>-5.665505714714527130126953125</LongitudeDegrees>
            </Position>
            <AltitudeMeters>256.79998779296875</AltitudeMeters>
            <DistanceMeters>25490.105027185</DistanceMeters>
          </Trackpoint>
          <Trackpoint>
            <Time>2019-10-04T10:29:47.000Z</Time>
            <Position>
              <LatitudeDegrees>43.341115079820156097412109375</LatitudeDegrees>
              <LongitudeDegrees>-5.665494985878467559814453125</LongitudeDegrees>
            </Position>
            <AltitudeMeters>257.399993896484375</AltitudeMeters>
            <DistanceMeters>25493.55751917</DistanceMeters>
          </Trackpoint>
          <Trackpoint>
            <Time>2019-10-04T10:29:53.000Z</Time>
            <Position>
              <LatitudeDegrees>43.340948782861232757568359375</LatitudeDegrees>
              <LongitudeDegrees>-5.66536498256027698516845703125</LongitudeDegrees>
            </Position>
            <AltitudeMeters>257.600006103515625</AltitudeMeters>
            <DistanceMeters>25514.849017417</DistanceMeters>
          </Trackpoint>
          <Trackpoint>
            <Time>2019-10-04T10:30:00.000Z</Time>
            <Position>
              <LatitudeDegrees>43.3408369682729244232177734375</LatitudeDegrees>
              <LongitudeDegrees>-5.6651089154183864593505859375</LongitudeDegrees>
            </Position>
            <AltitudeMeters>257.79998779296875</AltitudeMeters>
            <DistanceMeters>25539.026174165</DistanceMeters>
          </Trackpoint>
          <Trackpoint>
            <Time>2019-10-04T10:30:03.000Z</Time>
            <Position>
              <LatitudeDegrees>43.34081542678177356719970703125</LatitudeDegrees>
              <LongitudeDegrees>-5.66498511470854282379150390625</LongitudeDegrees>
            </Position>
            <AltitudeMeters>258.399993896484375</AltitudeMeters>
            <DistanceMeters>25549.331206866</DistanceMeters>
          </Trackpoint>
          <Trackpoint>
            <Time>2019-10-04T10:30:10.000Z</Time>
            <Position>
              <LatitudeDegrees>43.3407588489353656768798828125</LatitudeDegrees>
              <LongitudeDegrees>-5.664693005383014678955078125</LongitudeDegrees>
            </Position>
            <AltitudeMeters>258.20001220703125</AltitudeMeters>
            <DistanceMeters>25573.801093235</DistanceMeters>
          </Trackpoint>
          <Trackpoint>
            <Time>2019-10-04T10:30:15.000Z</Time>
            <Position>
              <LatitudeDegrees>43.3407400734722614288330078125</LatitudeDegrees>
              <LongitudeDegrees>-5.6645156443119049072265625</LongitudeDegrees>
            </Position>
            <AltitudeMeters>258.79998779296875</AltitudeMeters>
            <DistanceMeters>25588.309715223</DistanceMeters>
          </Trackpoint>
          <Trackpoint>
            <Time>2019-10-04T10:30:22.000Z</Time>
            <Position>
              <LatitudeDegrees>43.34067075513303279876708984375</LatitudeDegrees>
              <LongitudeDegrees>-5.66428623162209987640380859375</LongitudeDegrees>
            </Position>
            <AltitudeMeters>258.600006103515625</AltitudeMeters>
            <DistanceMeters>25608.41926304</DistanceMeters>
          </Trackpoint>
          <Trackpoint>
            <Time>2019-10-04T10:30:27.000Z</Time>
            <Position>
              <LatitudeDegrees>43.3405700884759426116943359375</LatitudeDegrees>
              <LongitudeDegrees>-5.66414793021976947784423828125</LongitudeDegrees>
            </Position>
            <AltitudeMeters>258.79998779296875</AltitudeMeters>
            <DistanceMeters>25624.258252394</DistanceMeters>
          </Trackpoint>
          <Trackpoint>
            <Time>2019-10-04T10:30:32.000Z</Time>
            <Position>
              <LatitudeDegrees>43.34043622948229312896728515625</LatitudeDegrees>
              <LongitudeDegrees>-5.6640712358057498931884765625</LongitudeDegrees>
            </Position>
            <AltitudeMeters>259.20001220703125</AltitudeMeters>
            <DistanceMeters>25640.398533536</DistanceMeters>
          </Trackpoint>
          <Trackpoint>
            <Time>2019-10-04T10:30:37.000Z</Time>
            <Position>
              <LatitudeDegrees>43.340307734906673431396484375</LatitudeDegrees>
              <LongitudeDegrees>-5.6640427373349666595458984375</LongitudeDegrees>
            </Position>
            <AltitudeMeters>259</AltitudeMeters>
            <DistanceMeters>25654.884420337</DistanceMeters>
          </Trackpoint>
          <Trackpoint>
            <Time>2019-10-04T10:30:42.000Z</Time>
            <Position>
              <LatitudeDegrees>43.340183682739734649658203125</LatitudeDegrees>
              <LongitudeDegrees>-5.6640038453042507171630859375</LongitudeDegrees>
            </Position>
            <AltitudeMeters>258</AltitudeMeters>
            <DistanceMeters>25669.046270421</DistanceMeters>
          </Trackpoint>
          <Trackpoint>
            <Time>2019-10-04T10:30:44.000Z</Time>
            <Position>
              <LatitudeDegrees>43.34013632498681545257568359375</LatitudeDegrees>
              <LongitudeDegrees>-5.66398615948855876922607421875</LongitudeDegrees>
            </Position>
            <AltitudeMeters>257.600006103515625</AltitudeMeters>
            <DistanceMeters>25674.508446963</DistanceMeters>
          </Trackpoint>
          <Trackpoint>
            <Time>2019-10-04T10:30:45.000Z</Time>
            <Position>
              <LatitudeDegrees>43.34011369384825229644775390625</LatitudeDegrees>
              <LongitudeDegrees>-5.6639776937663555145263671875</LongitudeDegrees>
            </Position>
            <AltitudeMeters>257.399993896484375</AltitudeMeters>
            <DistanceMeters>25677.117791256</DistanceMeters>
          </Trackpoint>
          <Trackpoint>
            <Time>2019-10-04T10:30:50.000Z</Time>
            <Position>
              <LatitudeDegrees>43.3399974368512630462646484375</LatitudeDegrees>
              <LongitudeDegrees>-5.66393427550792694091796875</LongitudeDegrees>
            </Position>
            <AltitudeMeters>256.600006103515625</AltitudeMeters>
            <DistanceMeters>25690.525989939</DistanceMeters>
          </Trackpoint>
          <Trackpoint>
            <Time>2019-10-04T10:30:51.000Z</Time>
            <Position>
              <LatitudeDegrees>43.339975811541080474853515625</LatitudeDegrees>
              <LongitudeDegrees>-5.66391826607286930084228515625</LongitudeDegrees>
            </Position>
            <AltitudeMeters>256.20001220703125</AltitudeMeters>
            <DistanceMeters>25693.25873091</DistanceMeters>
          </Trackpoint>
          <Trackpoint>
            <Time>2019-10-04T10:30:55.000Z</Time>
            <Position>
              <LatitudeDegrees>43.33988620899617671966552734375</LatitudeDegrees>
              <LongitudeDegrees>-5.663832686841487884521484375</LongitudeDegrees>
            </Position>
            <AltitudeMeters>256.399993896484375</AltitudeMeters>
            <DistanceMeters>25705.401345463</DistanceMeters>
          </Trackpoint>
          <Trackpoint>
            <Time>2019-10-04T10:30:57.000Z</Time>
            <Position>
              <LatitudeDegrees>43.3398373425006866455078125</LatitudeDegrees>
              <LongitudeDegrees>-5.6637711636722087860107421875</LongitudeDegrees>
            </Position>
            <AltitudeMeters>256.399993896484375</AltitudeMeters>
            <DistanceMeters>25712.775565445</DistanceMeters>
          </Trackpoint>
          <Trackpoint>
            <Time>2019-10-04T10:31:04.000Z</Time>
            <Position>
              <LatitudeDegrees>43.33967682905495166778564453125</LatitudeDegrees>
              <LongitudeDegrees>-5.6635190360248088836669921875</LongitudeDegrees>
            </Position>
            <AltitudeMeters>257</AltitudeMeters>
            <DistanceMeters>25739.89999186</DistanceMeters>
          </Trackpoint>
          <Trackpoint>
            <Time>2019-10-04T10:31:10.000Z</Time>
            <Position>
              <LatitudeDegrees>43.33961932919919490814208984375</LatitudeDegrees>
              <LongitudeDegrees>-5.66326196305453777313232421875</LongitudeDegrees>
            </Position>
            <AltitudeMeters>257.20001220703125</AltitudeMeters>
            <DistanceMeters>25761.671688457</DistanceMeters>
          </Trackpoint>
          <Trackpoint>
            <Time>2019-10-04T10:31:11.000Z</Time>
            <Position>
              <LatitudeDegrees>43.33961631171405315399169921875</LatitudeDegrees>
              <LongitudeDegrees>-5.66321820951998233795166015625</LongitudeDegrees>
            </Position>
            <AltitudeMeters>257.399993896484375</AltitudeMeters>
            <DistanceMeters>25765.229801324</DistanceMeters>
          </Trackpoint>
          <Trackpoint>
            <Time>2019-10-04T10:31:17.000Z</Time>
            <Position>
              <LatitudeDegrees>43.33962905220687389373779296875</LatitudeDegrees>
              <LongitudeDegrees>-5.662974379956722259521484375</LongitudeDegrees>
            </Position>
            <AltitudeMeters>257.20001220703125</AltitudeMeters>
            <DistanceMeters>25785.018644016</DistanceMeters>
          </Trackpoint>
          <Trackpoint>
            <Time>2019-10-04T10:31:24.000Z</Time>
            <Position>
              <LatitudeDegrees>43.339597284793853759765625</LatitudeDegrees>
              <LongitudeDegrees>-5.66268444992601871490478515625</LongitudeDegrees>
            </Position>
            <AltitudeMeters>257.399993896484375</AltitudeMeters>
            <DistanceMeters>25808.753266171</DistanceMeters>
          </Trackpoint>
          <Trackpoint>
            <Time>2019-10-04T10:31:29.000Z</Time>
            <Position>
              <LatitudeDegrees>43.3394859731197357177734375</LatitudeDegrees>
              <LongitudeDegrees>-5.66252888180315494537353515625</LongitudeDegrees>
            </Position>
            <AltitudeMeters>257</AltitudeMeters>
            <DistanceMeters>25826.419036517</DistanceMeters>
          </Trackpoint>
          <Trackpoint>
            <Time>2019-10-04T10:31:34.000Z</Time>
            <Position>
              <LatitudeDegrees>43.3393456600606441497802734375</LatitudeDegrees>
              <LongitudeDegrees>-5.662443302571773529052734375</LongitudeDegrees>
            </Position>
            <AltitudeMeters>257.399993896484375</AltitudeMeters>
            <DistanceMeters>25843.50377213</DistanceMeters>
          </Trackpoint>
          <Trackpoint>
            <Time>2019-10-04T10:31:39.000Z</Time>
            <Position>
              <LatitudeDegrees>43.3391934446990489959716796875</LatitudeDegrees>
              <LongitudeDegrees>-5.66236459650099277496337890625</LongitudeDegrees>
            </Position>
            <AltitudeMeters>257.20001220703125</AltitudeMeters>
            <DistanceMeters>25861.603804544</DistanceMeters>
          </Trackpoint>
          <Trackpoint>
            <Time>2019-10-04T10:31:49.000Z</Time>
            <Position>
              <LatitudeDegrees>43.33885640837252140045166015625</LatitudeDegrees>
              <LongitudeDegrees>-5.6621873192489147186279296875</LongitudeDegrees>
            </Position>
            <AltitudeMeters>257.600006103515625</AltitudeMeters>
            <DistanceMeters>25901.76785459</DistanceMeters>
          </Trackpoint>
          <Trackpoint>
            <Time>2019-10-04T10:31:56.000Z</Time>
            <Position>
              <LatitudeDegrees>43.33867770619690418243408203125</LatitudeDegrees>
              <LongitudeDegrees>-5.66202982328832149505615234375</LongitudeDegrees>
            </Position>
            <AltitudeMeters>256</AltitudeMeters>
            <DistanceMeters>25925.393414587</DistanceMeters>
          </Trackpoint>
          <Trackpoint>
            <Time>2019-10-04T10:31:57.000Z</Time>
            <Position>
              <LatitudeDegrees>43.33865876309573650360107421875</LatitudeDegrees>
              <LongitudeDegrees>-5.66199696622788906097412109375</LongitudeDegrees>
            </Position>
            <AltitudeMeters>256.20001220703125</AltitudeMeters>
            <DistanceMeters>25928.787877364</DistanceMeters>
          </Trackpoint>
          <Trackpoint>
            <Time>2019-10-04T10:32:03.000Z</Time>
            <Position>
              <LatitudeDegrees>43.3385959826409816741943359375</LatitudeDegrees>
              <LongitudeDegrees>-5.66175573505461215972900390625</LongitudeDegrees>
            </Position>
            <AltitudeMeters>255</AltitudeMeters>
            <DistanceMeters>25949.528532648</DistanceMeters>
          </Trackpoint>
          <Trackpoint>
            <Time>2019-10-04T10:32:09.000Z</Time>
            <Position>
              <LatitudeDegrees>43.338586427271366119384765625</LatitudeDegrees>
              <LongitudeDegrees>-5.661487095057964324951171875</LongitudeDegrees>
            </Position>
            <AltitudeMeters>253.8000030517578125</AltitudeMeters>
            <DistanceMeters>25971.301473496</DistanceMeters>
          </Trackpoint>
          <Trackpoint>
            <Time>2019-10-04T10:32:13.000Z</Time>
            <Position>
              <LatitudeDegrees>43.33857829682528972625732421875</LatitudeDegrees>
              <LongitudeDegrees>-5.6613130867481231689453125</LongitudeDegrees>
            </Position>
            <AltitudeMeters>252.8000030517578125</AltitudeMeters>
            <DistanceMeters>25985.41637968</DistanceMeters>
          </Trackpoint>
          <Trackpoint>
            <Time>2019-10-04T10:32:21.000Z</Time>
            <Position>
              <LatitudeDegrees>43.33854879252612590789794921875</LatitudeDegrees>
              <LongitudeDegrees>-5.66097638569772243499755859375</LongitudeDegrees>
            </Position>
            <AltitudeMeters>251.8000030517578125</AltitudeMeters>
            <DistanceMeters>26012.869562924</DistanceMeters>
          </Trackpoint>
          <Trackpoint>
            <Time>2019-10-04T10:32:22.000Z</Time>
            <Position>
              <LatitudeDegrees>43.3385431766510009765625</LatitudeDegrees>
              <LongitudeDegrees>-5.66093279980123043060302734375</LongitudeDegrees>
            </Position>
            <AltitudeMeters>251.600006103515625</AltitudeMeters>
            <DistanceMeters>26016.452964758</DistanceMeters>
          </Trackpoint>
          <Trackpoint>
            <Time>2019-10-04T10:32:30.000Z</Time>
            <Position>
              <LatitudeDegrees>43.33851157687604427337646484375</LatitudeDegrees>
              <LongitudeDegrees>-5.6605796702206134796142578125</LongitudeDegrees>
            </Position>
            <AltitudeMeters>252.399993896484375</AltitudeMeters>
            <DistanceMeters>26045.25483922</DistanceMeters>
          </Trackpoint>
          <Trackpoint>
            <Time>2019-10-04T10:32:37.000Z</Time>
            <Position>
              <LatitudeDegrees>43.33852129988372325897216796875</LatitudeDegrees>
              <LongitudeDegrees>-5.66028789617121219635009765625</LongitudeDegrees>
            </Position>
            <AltitudeMeters>253</AltitudeMeters>
            <DistanceMeters>26068.899120403</DistanceMeters>
          </Trackpoint>
          <Trackpoint>
            <Time>2019-10-04T10:32:38.000Z</Time>
            <Position>
              <LatitudeDegrees>43.3385255746543407440185546875</LatitudeDegrees>
              <LongitudeDegrees>-5.66024866886436939239501953125</LongitudeDegrees>
            </Position>
            <AltitudeMeters>253</AltitudeMeters>
            <DistanceMeters>26072.110404772</DistanceMeters>
          </Trackpoint>
          <Trackpoint>
            <Time>2019-10-04T10:32:43.000Z</Time>
            <Position>
              <LatitudeDegrees>43.33855097182095050811767578125</LatitudeDegrees>
              <LongitudeDegrees>-5.6600552983582019805908203125</LongitudeDegrees>
            </Position>
            <AltitudeMeters>253.600006103515625</AltitudeMeters>
            <DistanceMeters>26088.017093364</DistanceMeters>
          </Trackpoint>
          <Trackpoint>
            <Time>2019-10-04T10:32:49.000Z</Time>
            <Position>
              <LatitudeDegrees>43.338620960712432861328125</LatitudeDegrees>
              <LongitudeDegrees>-5.659836195409297943115234375</LongitudeDegrees>
            </Position>
            <AltitudeMeters>254.1999969482421875</AltitudeMeters>
            <DistanceMeters>26107.388796613</DistanceMeters>
          </Trackpoint>
          <Trackpoint>
            <Time>2019-10-04T10:32:50.000Z</Time>
            <Position>
              <LatitudeDegrees>43.33863898180425167083740234375</LatitudeDegrees>
              <LongitudeDegrees>-5.659803338348865509033203125</LongitudeDegrees>
            </Position>
            <AltitudeMeters>254</AltitudeMeters>
            <DistanceMeters>26110.718801699</DistanceMeters>
          </Trackpoint>
          <Trackpoint>
            <Time>2019-10-04T10:32:55.000Z</Time>
            <Position>
              <LatitudeDegrees>43.3387133292853832244873046875</LatitudeDegrees>
              <LongitudeDegrees>-5.65963997505605220794677734375</LongitudeDegrees>
            </Position>
            <AltitudeMeters>254.8000030517578125</AltitudeMeters>
            <DistanceMeters>26126.318819653</DistanceMeters>
          </Trackpoint>
          <Trackpoint>
            <Time>2019-10-04T10:32:56.000Z</Time>
            <Position>
              <LatitudeDegrees>43.338737972080707550048828125</LatitudeDegrees>
              <LongitudeDegrees>-5.65962170250713825225830078125</LongitudeDegrees>
            </Position>
            <AltitudeMeters>254.8000030517578125</AltitudeMeters>
            <DistanceMeters>26129.435927649</DistanceMeters>
          </Trackpoint>
          <Trackpoint>
            <Time>2019-10-04T10:32:59.000Z</Time>
            <Position>
              <LatitudeDegrees>43.33876621909439563751220703125</LatitudeDegrees>
              <LongitudeDegrees>-5.65951022319495677947998046875</LongitudeDegrees>
            </Position>
            <AltitudeMeters>255</AltitudeMeters>
            <DistanceMeters>26138.992610815</DistanceMeters>
          </Trackpoint>
          <Trackpoint>
            <Time>2019-10-04T10:33:01.000Z</Time>
            <Position>
              <LatitudeDegrees>43.3387887664139270782470703125</LatitudeDegrees>
              <LongitudeDegrees>-5.65942891873419284820556640625</LongitudeDegrees>
            </Position>
            <AltitudeMeters>255</AltitudeMeters>
            <DistanceMeters>26146.036776491</DistanceMeters>
          </Trackpoint>
          <Trackpoint>
            <Time>2019-10-04T10:33:05.000Z</Time>
            <Position>
              <LatitudeDegrees>43.338811732828617095947265625</LatitudeDegrees>
              <LongitudeDegrees>-5.65925390459597110748291015625</LongitudeDegrees>
            </Position>
            <AltitudeMeters>255.1999969482421875</AltitudeMeters>
            <DistanceMeters>26160.433245313</DistanceMeters>
          </Trackpoint>
          <Trackpoint>
            <Time>2019-10-04T10:33:06.000Z</Time>
            <Position>
              <LatitudeDegrees>43.33881416358053684234619140625</LatitudeDegrees>
              <LongitudeDegrees>-5.6592134200036525726318359375</LongitudeDegrees>
            </Position>
            <AltitudeMeters>255.600006103515625</AltitudeMeters>
            <DistanceMeters>26163.723695382</DistanceMeters>
          </Trackpoint>
          <Trackpoint>
            <Time>2019-10-04T10:33:13.000Z</Time>
            <Position>
              <LatitudeDegrees>43.33876781165599822998046875</LatitudeDegrees>
              <LongitudeDegrees>-5.6589220650494098663330078125</LongitudeDegrees>
            </Position>
            <AltitudeMeters>255.8000030517578125</AltitudeMeters>
            <DistanceMeters>26187.86684005</DistanceMeters>
          </Trackpoint>
          <Trackpoint>
            <Time>2019-10-04T10:33:19.000Z</Time>
            <Position>
              <LatitudeDegrees>43.3386348746716976165771484375</LatitudeDegrees>
              <LongitudeDegrees>-5.6587383337318897247314453125</LongitudeDegrees>
            </Position>
            <AltitudeMeters>256.20001220703125</AltitudeMeters>
            <DistanceMeters>26208.846448865</DistanceMeters>
          </Trackpoint>
          <Trackpoint>
            <Time>2019-10-04T10:33:21.000Z</Time>
            <Position>
              <LatitudeDegrees>43.33858215250074863433837890625</LatitudeDegrees>
              <LongitudeDegrees>-5.6586947478353977203369140625</LongitudeDegrees>
            </Position>
            <AltitudeMeters>256.399993896484375</AltitudeMeters>
            <DistanceMeters>26215.694308893</DistanceMeters>
          </Trackpoint>
          <Trackpoint>
            <Time>2019-10-04T10:33:27.000Z</Time>
            <Position>
              <LatitudeDegrees>43.33840303122997283935546875</LatitudeDegrees>
              <LongitudeDegrees>-5.658587627112865447998046875</LongitudeDegrees>
            </Position>
            <AltitudeMeters>256.79998779296875</AltitudeMeters>
            <DistanceMeters>26237.434876072</DistanceMeters>
          </Trackpoint>
          <Trackpoint>
            <Time>2019-10-04T10:33:36.000Z</Time>
            <Position>
              <LatitudeDegrees>43.33813439123332500457763671875</LatitudeDegrees>
              <LongitudeDegrees>-5.658462904393672943115234375</LongitudeDegrees>
            </Position>
            <AltitudeMeters>257.399993896484375</AltitudeMeters>
            <DistanceMeters>26268.993761529</DistanceMeters>
          </Trackpoint>
          <Trackpoint>
            <Time>2019-10-04T10:33:38.000Z</Time>
            <Position>
              <LatitudeDegrees>43.33807454444468021392822265625</LatitudeDegrees>
              <LongitudeDegrees>-5.65843750722706317901611328125</LongitudeDegrees>
            </Position>
            <AltitudeMeters>257.399993896484375</AltitudeMeters>
            <DistanceMeters>26275.96512233</DistanceMeters>
          </Trackpoint>
          <Trackpoint>
            <Time>2019-10-04T10:33:45.000Z</Time>
            <Position>
              <LatitudeDegrees>43.3378815092146396636962890625</LatitudeDegrees>
              <LongitudeDegrees>-5.658298619091510772705078125</LongitudeDegrees>
            </Position>
            <AltitudeMeters>258.20001220703125</AltitudeMeters>
            <DistanceMeters>26300.214442897</DistanceMeters>
          </Trackpoint>
          <Trackpoint>
            <Time>2019-10-04T10:33:48.000Z</Time>
            <Position>
              <LatitudeDegrees>43.33782099187374114990234375</LatitudeDegrees>
              <LongitudeDegrees>-5.6582149676978588104248046875</LongitudeDegrees>
            </Position>
            <AltitudeMeters>258</AltitudeMeters>
            <DistanceMeters>26309.765455002</DistanceMeters>
          </Trackpoint>
          <Trackpoint>
            <Time>2019-10-04T10:33:49.000Z</Time>
            <Position>
              <LatitudeDegrees>43.33780364133417606353759765625</LatitudeDegrees>
              <LongitudeDegrees>-5.65818923525512218475341796875</LongitudeDegrees>
            </Position>
            <AltitudeMeters>258.600006103515625</AltitudeMeters>
            <DistanceMeters>26312.605148342</DistanceMeters>
          </Trackpoint>
          <Trackpoint>
            <Time>2019-10-04T10:33:50.000Z</Time>
            <Position>
              <LatitudeDegrees>43.3377846144139766693115234375</LatitudeDegrees>
              <LongitudeDegrees>-5.65815922804176807403564453125</LongitudeDegrees>
            </Position>
            <AltitudeMeters>258.600006103515625</AltitudeMeters>
            <DistanceMeters>26315.827661013</DistanceMeters>
          </Trackpoint>
          <Trackpoint>
            <Time>2019-10-04T10:33:55.000Z</Time>
            <Position>
              <LatitudeDegrees>43.3377061598002910614013671875</LatitudeDegrees>
              <LongitudeDegrees>-5.65799242816865444183349609375</LongitudeDegrees>
            </Position>
            <AltitudeMeters>258.600006103515625</AltitudeMeters>
            <DistanceMeters>26331.908247726</DistanceMeters>
          </Trackpoint>
          <Trackpoint>
            <Time>2019-10-04T10:34:01.000Z</Time>
            <Position>
              <LatitudeDegrees>43.33757012151181697845458984375</LatitudeDegrees>
              <LongitudeDegrees>-5.6578112952411174774169921875</LongitudeDegrees>
            </Position>
            <AltitudeMeters>259.600006103515625</AltitudeMeters>
            <DistanceMeters>26352.986192622</DistanceMeters>
          </Trackpoint>
          <Trackpoint>
            <Time>2019-10-04T10:34:07.000Z</Time>
            <Position>
              <LatitudeDegrees>43.337388150393962860107421875</LatitudeDegrees>
              <LongitudeDegrees>-5.657739378511905670166015625</LongitudeDegrees>
            </Position>
            <AltitudeMeters>259.600006103515625</AltitudeMeters>
            <DistanceMeters>26374.059852948</DistanceMeters>
          </Trackpoint>
          <Trackpoint>
            <Time>2019-10-04T10:34:15.000Z</Time>
            <Position>
              <LatitudeDegrees>43.33713929168879985809326171875</LatitudeDegrees>
              <LongitudeDegrees>-5.65778120420873165130615234375</LongitudeDegrees>
            </Position>
            <AltitudeMeters>259.399993896484375</AltitudeMeters>
            <DistanceMeters>26401.964557244</DistanceMeters>
          </Trackpoint>
          <Trackpoint>
            <Time>2019-10-04T10:34:21.000Z</Time>
            <Position>
              <LatitudeDegrees>43.33697802387177944183349609375</LatitudeDegrees>
              <LongitudeDegrees>-5.65790911205112934112548828125</LongitudeDegrees>
            </Position>
            <AltitudeMeters>259.399993896484375</AltitudeMeters>
            <DistanceMeters>26422.686482711</DistanceMeters>
          </Trackpoint>
          <Trackpoint>
            <Time>2019-10-04T10:34:27.000Z</Time>
            <Position>
              <LatitudeDegrees>43.336882553994655609130859375</LatitudeDegrees>
              <LongitudeDegrees>-5.6580842100083827972412109375</LongitudeDegrees>
            </Position>
            <AltitudeMeters>260</AltitudeMeters>
            <DistanceMeters>26440.40202128</DistanceMeters>
          </Trackpoint>
          <Trackpoint>
            <Time>2019-10-04T10:34:33.000Z</Time>
            <Position>
              <LatitudeDegrees>43.33680133335292339324951171875</LatitudeDegrees>
              <LongitudeDegrees>-5.658269785344600677490234375</LongitudeDegrees>
            </Position>
            <AltitudeMeters>260.79998779296875</AltitudeMeters>
            <DistanceMeters>26457.935415774</DistanceMeters>
          </Trackpoint>
          <Trackpoint>
            <Time>2019-10-04T10:34:36.000Z</Time>
            <Position>
              <LatitudeDegrees>43.336762525141239166259765625</LatitudeDegrees>
              <LongitudeDegrees>-5.6583561189472675323486328125</LongitudeDegrees>
            </Position>
            <AltitudeMeters>261.20001220703125</AltitudeMeters>
            <DistanceMeters>26466.151243268</DistanceMeters>
          </Trackpoint>
          <Trackpoint>
            <Time>2019-10-04T10:34:40.000Z</Time>
            <Position>
              <LatitudeDegrees>43.33669991232454776763916015625</LatitudeDegrees>
              <LongitudeDegrees>-5.65845980308949947357177734375</LongitudeDegrees>
            </Position>
            <AltitudeMeters>261.79998779296875</AltitudeMeters>
            <DistanceMeters>26477.060707395</DistanceMeters>
          </Trackpoint>
          <Trackpoint>
            <Time>2019-10-04T10:34:44.000Z</Time>
            <Position>
              <LatitudeDegrees>43.3366282470524311065673828125</LatitudeDegrees>
              <LongitudeDegrees>-5.65857245586812496185302734375</LongitudeDegrees>
            </Position>
            <AltitudeMeters>262.20001220703125</AltitudeMeters>
            <DistanceMeters>26489.176520313</DistanceMeters>
          </Trackpoint>
          <Trackpoint>
            <Time>2019-10-04T10:34:50.000Z</Time>
            <Position>
              <LatitudeDegrees>43.336515761911869049072265625</LatitudeDegrees>
              <LongitudeDegrees>-5.658757276833057403564453125</LongitudeDegrees>
            </Position>
            <AltitudeMeters>263</AltitudeMeters>
            <DistanceMeters>26508.685946807</DistanceMeters>
          </Trackpoint>
          <Trackpoint>
            <Time>2019-10-04T10:34:53.000Z</Time>
            <Position>
              <LatitudeDegrees>43.33646974526345729827880859375</LatitudeDegrees>
              <LongitudeDegrees>-5.65885777585208415985107421875</LongitudeDegrees>
            </Position>
            <AltitudeMeters>263.20001220703125</AltitudeMeters>
            <DistanceMeters>26518.299626248</DistanceMeters>
          </Trackpoint>
          <Trackpoint>
            <Time>2019-10-04T10:35:01.000Z</Time>
            <Position>
              <LatitudeDegrees>43.33642221987247467041015625</LatitudeDegrees>
              <LongitudeDegrees>-5.6591498851776123046875</LongitudeDegrees>
            </Position>
            <AltitudeMeters>263.399993896484375</AltitudeMeters>
            <DistanceMeters>26542.531252085</DistanceMeters>
          </Trackpoint>
          <Trackpoint>
            <Time>2019-10-04T10:35:06.000Z</Time>
            <Position>
              <LatitudeDegrees>43.33640671335160732269287109375</LatitudeDegrees>
              <LongitudeDegrees>-5.65932246856391429901123046875</LongitudeDegrees>
            </Position>
            <AltitudeMeters>263</AltitudeMeters>
            <DistanceMeters>26556.608682875</DistanceMeters>
          </Trackpoint>
          <Trackpoint>
            <Time>2019-10-04T10:35:07.000Z</Time>
            <Position>
              <LatitudeDegrees>43.3364059589803218841552734375</LatitudeDegrees>
              <LongitudeDegrees>-5.6593549065291881561279296875</LongitudeDegrees>
            </Position>
            <AltitudeMeters>263</AltitudeMeters>
            <DistanceMeters>26559.235273517</DistanceMeters>
          </Trackpoint>
          <Trackpoint>
            <Time>2019-10-04T10:35:16.000Z</Time>
            <Position>
              <LatitudeDegrees>43.33635784685611724853515625</LatitudeDegrees>
              <LongitudeDegrees>-5.65965539775788784027099609375</LongitudeDegrees>
            </Position>
            <AltitudeMeters>263</AltitudeMeters>
            <DistanceMeters>26584.143695029</DistanceMeters>
          </Trackpoint>
          <Trackpoint>
            <Time>2019-10-04T10:35:22.000Z</Time>
            <Position>
              <LatitudeDegrees>43.33627394400537014007568359375</LatitudeDegrees>
              <LongitudeDegrees>-5.65982923842966556549072265625</LongitudeDegrees>
            </Position>
            <AltitudeMeters>263</AltitudeMeters>
            <DistanceMeters>26601.03360755</DistanceMeters>
          </Trackpoint>
          <Trackpoint>
            <Time>2019-10-04T10:35:28.000Z</Time>
            <Position>
              <LatitudeDegrees>43.33615793846547603607177734375</LatitudeDegrees>
              <LongitudeDegrees>-5.6599939428269863128662109375</LongitudeDegrees>
            </Position>
            <AltitudeMeters>263.399993896484375</AltitudeMeters>
            <DistanceMeters>26619.594249143</DistanceMeters>
          </Trackpoint>
          <Trackpoint>
            <Time>2019-10-04T10:35:37.000Z</Time>
            <Position>
              <LatitudeDegrees>43.33595526404678821563720703125</LatitudeDegrees>
              <LongitudeDegrees>-5.6601987965404987335205078125</LongitudeDegrees>
            </Position>
            <AltitudeMeters>263.600006103515625</AltitudeMeters>
            <DistanceMeters>26647.592318826</DistanceMeters>
          </Trackpoint>
          <Trackpoint>
            <Time>2019-10-04T10:35:44.000Z</Time>
            <Position>
              <LatitudeDegrees>43.3357779867947101593017578125</LatitudeDegrees>
              <LongitudeDegrees>-5.660262666642665863037109375</LongitudeDegrees>
            </Position>
            <AltitudeMeters>264</AltitudeMeters>
            <DistanceMeters>26667.989665273</DistanceMeters>
          </Trackpoint>
          <Trackpoint>
            <Time>2019-10-04T10:35:45.000Z</Time>
            <Position>
              <LatitudeDegrees>43.33575795404613018035888671875</LatitudeDegrees>
              <LongitudeDegrees>-5.66027297638356685638427734375</LongitudeDegrees>
            </Position>
            <AltitudeMeters>263.79998779296875</AltitudeMeters>
            <DistanceMeters>26670.369131165</DistanceMeters>
          </Trackpoint>
          <Trackpoint>
            <Time>2019-10-04T10:35:52.000Z</Time>
            <Position>
              <LatitudeDegrees>43.33558914251625537872314453125</LatitudeDegrees>
              <LongitudeDegrees>-5.660254955291748046875</LongitudeDegrees>
            </Position>
            <AltitudeMeters>263.79998779296875</AltitudeMeters>
            <DistanceMeters>26689.214632128</DistanceMeters>
          </Trackpoint>
          <Trackpoint>
            <Time>2019-10-04T10:36:00.000Z</Time>
            <Position>
              <LatitudeDegrees>43.33539417944848537445068359375</LatitudeDegrees>
              <LongitudeDegrees>-5.66008522175252437591552734375</LongitudeDegrees>
            </Position>
            <AltitudeMeters>264</AltitudeMeters>
            <DistanceMeters>26714.898930922</DistanceMeters>
          </Trackpoint>
          <Trackpoint>
            <Time>2019-10-04T10:36:08.000Z</Time>
            <Position>
              <LatitudeDegrees>43.33521187305450439453125</LatitudeDegrees>
              <LongitudeDegrees>-5.6598179228603839874267578125</LongitudeDegrees>
            </Position>
            <AltitudeMeters>264.20001220703125</AltitudeMeters>
            <DistanceMeters>26744.563555975</DistanceMeters>
          </Trackpoint>
          <Trackpoint>
            <Time>2019-10-04T10:36:13.000Z</Time>
            <Position>
              <LatitudeDegrees>43.33509662188589572906494140625</LatitudeDegrees>
              <LongitudeDegrees>-5.65963737666606903076171875</LongitudeDegrees>
            </Position>
            <AltitudeMeters>264</AltitudeMeters>
            <DistanceMeters>26764.010396373</DistanceMeters>
          </Trackpoint>
          <Trackpoint>
            <Time>2019-10-04T10:36:20.000Z</Time>
            <Position>
              <LatitudeDegrees>43.334886319935321807861328125</LatitudeDegrees>
              <LongitudeDegrees>-5.65948490984737873077392578125</LongitudeDegrees>
            </Position>
            <AltitudeMeters>263.20001220703125</AltitudeMeters>
            <DistanceMeters>26790.472563857</DistanceMeters>
          </Trackpoint>
          <Trackpoint>
            <Time>2019-10-04T10:36:27.000Z</Time>
            <Position>
              <LatitudeDegrees>43.33466780371963977813720703125</LatitudeDegrees>
              <LongitudeDegrees>-5.6593921221792697906494140625</LongitudeDegrees>
            </Position>
            <AltitudeMeters>263.20001220703125</AltitudeMeters>
            <DistanceMeters>26815.927487452</DistanceMeters>
          </Trackpoint>
          <Trackpoint>
            <Time>2019-10-04T10:36:29.000Z</Time>
            <Position>
              <LatitudeDegrees>43.334606699645519256591796875</LatitudeDegrees>
              <LongitudeDegrees>-5.6593636237084865570068359375</LongitudeDegrees>
            </Position>
            <AltitudeMeters>263</AltitudeMeters>
            <DistanceMeters>26823.108766347</DistanceMeters>
          </Trackpoint>
          <Trackpoint>
            <Time>2019-10-04T10:36:40.000Z</Time>
            <Position>
              <LatitudeDegrees>43.33427100442349910736083984375</LatitudeDegrees>
              <LongitudeDegrees>-5.6592677347362041473388671875</LongitudeDegrees>
            </Position>
            <AltitudeMeters>262.600006103515625</AltitudeMeters>
            <DistanceMeters>26861.270127148</DistanceMeters>
          </Trackpoint>
          <Trackpoint>
            <Time>2019-10-04T10:36:48.000Z</Time>
            <Position>
              <LatitudeDegrees>43.334012590348720550537109375</LatitudeDegrees>
              <LongitudeDegrees>-5.6593215465545654296875</LongitudeDegrees>
            </Position>
            <AltitudeMeters>262.399993896484375</AltitudeMeters>
            <DistanceMeters>26890.360100055</DistanceMeters>
          </Trackpoint>
          <Trackpoint>
            <Time>2019-10-04T10:36:51.000Z</Time>
            <Position>
              <LatitudeDegrees>43.33392483182251453399658203125</LatitudeDegrees>
              <LongitudeDegrees>-5.65937778912484645843505859375</LongitudeDegrees>
            </Position>
            <AltitudeMeters>262</AltitudeMeters>
            <DistanceMeters>26901.13715175</DistanceMeters>
          </Trackpoint>
          <Trackpoint>
            <Time>2019-10-04T10:36:56.000Z</Time>
            <Position>
              <LatitudeDegrees>43.33379055373370647430419921875</LatitudeDegrees>
              <LongitudeDegrees>-5.65948608331382274627685546875</LongitudeDegrees>
            </Position>
            <AltitudeMeters>261.600006103515625</AltitudeMeters>
            <DistanceMeters>26918.464355263</DistanceMeters>
          </Trackpoint>
          <Trackpoint>
            <Time>2019-10-04T10:37:06.000Z</Time>
            <Position>
              <LatitudeDegrees>43.33355284295976161956787109375</LatitudeDegrees>
              <LongitudeDegrees>-5.6597793661057949066162109375</LongitudeDegrees>
            </Position>
            <AltitudeMeters>261.20001220703125</AltitudeMeters>
            <DistanceMeters>26954.013873241</DistanceMeters>
          </Trackpoint>
          <Trackpoint>
            <Time>2019-10-04T10:37:09.000Z</Time>
            <Position>
              <LatitudeDegrees>43.33348075859248638153076171875</LatitudeDegrees>
              <LongitudeDegrees>-5.65987433306872844696044921875</LongitudeDegrees>
            </Position>
            <AltitudeMeters>260.79998779296875</AltitudeMeters>
            <DistanceMeters>26965.126312009</DistanceMeters>
          </Trackpoint>
          <Trackpoint>
            <Time>2019-10-04T10:37:15.000Z</Time>
            <Position>
              <LatitudeDegrees>43.33334245719015598297119140625</LatitudeDegrees>
              <LongitudeDegrees>-5.66006259061396121978759765625</LongitudeDegrees>
            </Position>
            <AltitudeMeters>260</AltitudeMeters>
            <DistanceMeters>26986.788234646</DistanceMeters>
          </Trackpoint>
          <Trackpoint>
            <Time>2019-10-04T10:37:20.000Z</Time>
            <Position>
              <LatitudeDegrees>43.3332235179841518402099609375</LatitudeDegrees>
              <LongitudeDegrees>-5.66020374186336994171142578125</LongitudeDegrees>
            </Position>
            <AltitudeMeters>259.399993896484375</AltitudeMeters>
            <DistanceMeters>27004.276248512</DistanceMeters>
          </Trackpoint>
          <Trackpoint>
            <Time>2019-10-04T10:37:21.000Z</Time>
            <Position>
              <LatitudeDegrees>43.33320331759750843048095703125</LatitudeDegrees>
              <LongitudeDegrees>-5.6602390296757221221923828125</LongitudeDegrees>
            </Position>
            <AltitudeMeters>259.600006103515625</AltitudeMeters>
            <DistanceMeters>27007.912184694</DistanceMeters>
          </Trackpoint>
          <Trackpoint>
            <Time>2019-10-04T10:37:30.000Z</Time>
            <Position>
              <LatitudeDegrees>43.33302495069801807403564453125</LatitudeDegrees>
              <LongitudeDegrees>-5.660546980798244476318359375</LongitudeDegrees>
            </Position>
            <AltitudeMeters>259.79998779296875</AltitudeMeters>
            <DistanceMeters>27039.7821387</DistanceMeters>
          </Trackpoint>
          <Trackpoint>
            <Time>2019-10-04T10:37:37.000Z</Time>
            <Position>
              <LatitudeDegrees>43.33290358074009418487548828125</LatitudeDegrees>
              <LongitudeDegrees>-5.6608009524643421173095703125</LongitudeDegrees>
            </Position>
            <AltitudeMeters>259.399993896484375</AltitudeMeters>
            <DistanceMeters>27064.383965943</DistanceMeters>
          </Trackpoint>
          <Trackpoint>
            <Time>2019-10-04T10:37:47.000Z</Time>
            <Position>
              <LatitudeDegrees>43.3327605016529560089111328125</LatitudeDegrees>
              <LongitudeDegrees>-5.6611791439354419708251953125</LongitudeDegrees>
            </Position>
            <AltitudeMeters>259.399993896484375</AltitudeMeters>
            <DistanceMeters>27098.895805694</DistanceMeters>
          </Trackpoint>
          <Trackpoint>
            <Time>2019-10-04T10:37:57.000Z</Time>
            <Position>
              <LatitudeDegrees>43.33264005370438098907470703125</LatitudeDegrees>
              <LongitudeDegrees>-5.66157183609902858734130859375</LongitudeDegrees>
            </Position>
            <AltitudeMeters>260.20001220703125</AltitudeMeters>
            <DistanceMeters>27133.398748145</DistanceMeters>
          </Trackpoint>
          <Trackpoint>
            <Time>2019-10-04T10:37:59.000Z</Time>
            <Position>
              <LatitudeDegrees>43.3326113037765026092529296875</LatitudeDegrees>
              <LongitudeDegrees>-5.66164861433207988739013671875</LongitudeDegrees>
            </Position>
            <AltitudeMeters>260.399993896484375</AltitudeMeters>
            <DistanceMeters>27140.39015743</DistanceMeters>
          </Trackpoint>
          <Trackpoint>
            <Time>2019-10-04T10:38:05.000Z</Time>
            <Position>
              <LatitudeDegrees>43.3325390517711639404296875</LatitudeDegrees>
              <LongitudeDegrees>-5.6618845649063587188720703125</LongitudeDegrees>
            </Position>
            <AltitudeMeters>260.79998779296875</AltitudeMeters>
            <DistanceMeters>27161.116440179</DistanceMeters>
          </Trackpoint>
          <Trackpoint>
            <Time>2019-10-04T10:38:11.000Z</Time>
            <Position>
              <LatitudeDegrees>43.3324855752289295196533203125</LatitudeDegrees>
              <LongitudeDegrees>-5.66213292069733142852783203125</LongitudeDegrees>
            </Position>
            <AltitudeMeters>261</AltitudeMeters>
            <DistanceMeters>27182.085716331</DistanceMeters>
          </Trackpoint>
          <Trackpoint>
            <Time>2019-10-04T10:38:23.000Z</Time>
            <Position>
              <LatitudeDegrees>43.33233629353344440460205078125</LatitudeDegrees>
              <LongitudeDegrees>-5.662632398307323455810546875</LongitudeDegrees>
            </Position>
            <AltitudeMeters>261.20001220703125</AltitudeMeters>
            <DistanceMeters>27225.803582241</DistanceMeters>
          </Trackpoint>
          <Trackpoint>
            <Time>2019-10-04T10:38:27.000Z</Time>
            <Position>
              <LatitudeDegrees>43.33229698240756988525390625</LatitudeDegrees>
              <LongitudeDegrees>-5.66279240883886814117431640625</LongitudeDegrees>
            </Position>
            <AltitudeMeters>261.399993896484375</AltitudeMeters>
            <DistanceMeters>27239.476866509</DistanceMeters>
          </Trackpoint>
          <Trackpoint>
            <Time>2019-10-04T10:38:33.000Z</Time>
            <Position>
              <LatitudeDegrees>43.3322321064770221710205078125</LatitudeDegrees>
              <LongitudeDegrees>-5.6630258448421955108642578125</LongitudeDegrees>
            </Position>
            <AltitudeMeters>261</AltitudeMeters>
            <DistanceMeters>27259.708408839</DistanceMeters>
          </Trackpoint>
          <Trackpoint>
            <Time>2019-10-04T10:38:39.000Z</Time>
            <Position>
              <LatitudeDegrees>43.3321702480316162109375</LatitudeDegrees>
              <LongitudeDegrees>-5.66327252425253391265869140625</LongitudeDegrees>
            </Position>
            <AltitudeMeters>261</AltitudeMeters>
            <DistanceMeters>27280.832999195</DistanceMeters>
          </Trackpoint>
          <Trackpoint>
            <Time>2019-10-04T10:38:42.000Z</Time>
            <Position>
              <LatitudeDegrees>43.33213336765766143798828125</LatitudeDegrees>
              <LongitudeDegrees>-5.66336707212030887603759765625</LongitudeDegrees>
            </Position>
            <AltitudeMeters>261</AltitudeMeters>
            <DistanceMeters>27289.518461682</DistanceMeters>
          </Trackpoint>
          <Trackpoint>
            <Time>2019-10-04T10:38:43.000Z</Time>
            <Position>
              <LatitudeDegrees>43.33211618475615978240966796875</LatitudeDegrees>
              <LongitudeDegrees>-5.66336656920611858367919921875</LongitudeDegrees>
            </Position>
            <AltitudeMeters>261.20001220703125</AltitudeMeters>
            <DistanceMeters>27291.43083742</DistanceMeters>
          </Trackpoint>
          <Trackpoint>
            <Time>2019-10-04T10:38:45.000Z</Time>
            <Position>
              <LatitudeDegrees>43.33209447562694549560546875</LatitudeDegrees>
              <LongitudeDegrees>-5.66332348622381687164306640625</LongitudeDegrees>
            </Position>
            <AltitudeMeters>261</AltitudeMeters>
            <DistanceMeters>27295.674181906</DistanceMeters>
          </Trackpoint>
          <Trackpoint>
            <Time>2019-10-04T10:38:48.000Z</Time>
            <Position>
              <LatitudeDegrees>43.33208617754280567169189453125</LatitudeDegrees>
              <LongitudeDegrees>-5.66327336244285106658935546875</LongitudeDegrees>
            </Position>
            <AltitudeMeters>260.79998779296875</AltitudeMeters>
            <DistanceMeters>27299.835874665</DistanceMeters>
          </Trackpoint>
          <Trackpoint>
            <Time>2019-10-04T10:38:50.000Z</Time>
            <Position>
              <LatitudeDegrees>43.3320862613618373870849609375</LatitudeDegrees>
              <LongitudeDegrees>-5.66327537409961223602294921875</LongitudeDegrees>
            </Position>
            <AltitudeMeters>260.79998779296875</AltitudeMeters>
            <DistanceMeters>27300.000465762</DistanceMeters>
          </Trackpoint>
          <Trackpoint>
            <Time>2019-10-04T10:39:04.000Z</Time>
            <Position>
              <LatitudeDegrees>43.33208450116217136383056640625</LatitudeDegrees>
              <LongitudeDegrees>-5.66327252425253391265869140625</LongitudeDegrees>
            </Position>
            <AltitudeMeters>260.600006103515625</AltitudeMeters>
            <DistanceMeters>27300.300966618</DistanceMeters>
          </Trackpoint>
          <Trackpoint>
            <Time>2019-10-04T10:39:05.000Z</Time>
            <Position>
              <LatitudeDegrees>43.33208450116217136383056640625</LatitudeDegrees>
              <LongitudeDegrees>-5.66327252425253391265869140625</LongitudeDegrees>
            </Position>
            <AltitudeMeters>260.399993896484375</AltitudeMeters>
            <DistanceMeters>27300.300966618</DistanceMeters>
          </Trackpoint>
          <Trackpoint>
            <Time>2019-10-04T10:39:14.000Z</Time>
            <Position>
              <LatitudeDegrees>43.33208450116217136383056640625</LatitudeDegrees>
              <LongitudeDegrees>-5.66327252425253391265869140625</LongitudeDegrees>
            </Position>
            <AltitudeMeters>259.79998779296875</AltitudeMeters>
            <DistanceMeters>27300.300966618</DistanceMeters>
          </Trackpoint>
          <Trackpoint>
            <Time>2019-10-04T10:39:17.000Z</Time>
            <Position>
              <LatitudeDegrees>43.33208450116217136383056640625</LatitudeDegrees>
              <LongitudeDegrees>-5.66327252425253391265869140625</LongitudeDegrees>
            </Position>
            <AltitudeMeters>259.399993896484375</AltitudeMeters>
            <DistanceMeters>27300.300966618</DistanceMeters>
          </Trackpoint>
          <Trackpoint>
            <Time>2019-10-04T10:39:21.000Z</Time>
            <Position>
              <LatitudeDegrees>43.33208450116217136383056640625</LatitudeDegrees>
              <LongitudeDegrees>-5.66327252425253391265869140625</LongitudeDegrees>
            </Position>
            <AltitudeMeters>259.399993896484375</AltitudeMeters>
            <DistanceMeters>27300.300966618</DistanceMeters>
          </Trackpoint>
          <Trackpoint>
            <Time>2019-10-04T10:39:24.000Z</Time>
            <Position>
              <LatitudeDegrees>43.33208450116217136383056640625</LatitudeDegrees>
              <LongitudeDegrees>-5.66327252425253391265869140625</LongitudeDegrees>
            </Position>
            <AltitudeMeters>259.20001220703125</AltitudeMeters>
            <DistanceMeters>27300.300966618</DistanceMeters>
          </Trackpoint>
          <Trackpoint>
            <Time>2019-10-04T10:39:29.000Z</Time>
            <Position>
              <LatitudeDegrees>43.33208768628537654876708984375</LatitudeDegrees>
              <LongitudeDegrees>-5.6632632203400135040283203125</LongitudeDegrees>
            </Position>
            <AltitudeMeters>259.20001220703125</AltitudeMeters>
            <DistanceMeters>27301.134822652</DistanceMeters>
          </Trackpoint>
          <Trackpoint>
            <Time>2019-10-04T10:39:30.000Z</Time>
            <Position>
              <LatitudeDegrees>43.33209372125566005706787109375</LatitudeDegrees>
              <LongitudeDegrees>-5.663230530917644500732421875</LongitudeDegrees>
            </Position>
            <AltitudeMeters>258.79998779296875</AltitudeMeters>
            <DistanceMeters>27303.867563624</DistanceMeters>
          </Trackpoint>
          <Trackpoint>
            <Time>2019-10-04T10:39:34.000Z</Time>
            <Position>
              <LatitudeDegrees>43.3320865966379642486572265625</LatitudeDegrees>
              <LongitudeDegrees>-5.663184262812137603759765625</LongitudeDegrees>
            </Position>
            <AltitudeMeters>258.79998779296875</AltitudeMeters>
            <DistanceMeters>27307.697034103</DistanceMeters>
          </Trackpoint>
          <Trackpoint>
            <Time>2019-10-04T10:39:43.000Z</Time>
            <Position>
              <LatitudeDegrees>43.332087434828281402587890625</LatitudeDegrees>
              <LongitudeDegrees>-5.66316850483417510986328125</LongitudeDegrees>
            </Position>
            <AltitudeMeters>259</AltitudeMeters>
            <DistanceMeters>27308.975487792</DistanceMeters>
          </Trackpoint>
          <Trackpoint>
            <Time>2019-10-04T10:39:51.000Z</Time>
            <Position>
              <LatitudeDegrees>43.332087434828281402587890625</LatitudeDegrees>
              <LongitudeDegrees>-5.66316850483417510986328125</LongitudeDegrees>
            </Position>
            <AltitudeMeters>258.600006103515625</AltitudeMeters>
            <DistanceMeters>27308.975487792</DistanceMeters>
          </Trackpoint>
          <Trackpoint>
            <Time>2019-10-04T10:39:54.000Z</Time>
            <Position>
              <LatitudeDegrees>43.332087434828281402587890625</LatitudeDegrees>
              <LongitudeDegrees>-5.66316850483417510986328125</LongitudeDegrees>
            </Position>
            <AltitudeMeters>258.600006103515625</AltitudeMeters>
            <DistanceMeters>27308.975487792</DistanceMeters>
          </Trackpoint>
          <Trackpoint>
            <Time>2019-10-04T10:39:56.000Z</Time>
            <Position>
              <LatitudeDegrees>43.332087434828281402587890625</LatitudeDegrees>
              <LongitudeDegrees>-5.66316850483417510986328125</LongitudeDegrees>
            </Position>
            <AltitudeMeters>258.399993896484375</AltitudeMeters>
            <DistanceMeters>27308.975487792</DistanceMeters>
          </Trackpoint>
          <Trackpoint>
            <Time>2019-10-04T10:40:02.000Z</Time>
            <Position>
              <LatitudeDegrees>43.332087434828281402587890625</LatitudeDegrees>
              <LongitudeDegrees>-5.66316850483417510986328125</LongitudeDegrees>
            </Position>
            <AltitudeMeters>258</AltitudeMeters>
            <DistanceMeters>27308.975487792</DistanceMeters>
          </Trackpoint>
          <Trackpoint>
            <Time>2019-10-04T10:40:06.000Z</Time>
            <Position>
              <LatitudeDegrees>43.332087434828281402587890625</LatitudeDegrees>
              <LongitudeDegrees>-5.66316850483417510986328125</LongitudeDegrees>
            </Position>
            <AltitudeMeters>257.79998779296875</AltitudeMeters>
            <DistanceMeters>27308.975487792</DistanceMeters>
          </Trackpoint>
          <Trackpoint>
            <Time>2019-10-04T10:40:10.000Z</Time>
            <Position>
              <LatitudeDegrees>43.332087434828281402587890625</LatitudeDegrees>
              <LongitudeDegrees>-5.66316850483417510986328125</LongitudeDegrees>
            </Position>
            <AltitudeMeters>257.20001220703125</AltitudeMeters>
            <DistanceMeters>27308.975487792</DistanceMeters>
          </Trackpoint>
          <Trackpoint>
            <Time>2019-10-04T10:40:12.000Z</Time>
            <Position>
              <LatitudeDegrees>43.332087434828281402587890625</LatitudeDegrees>
              <LongitudeDegrees>-5.66316850483417510986328125</LongitudeDegrees>
            </Position>
            <AltitudeMeters>257</AltitudeMeters>
            <DistanceMeters>27308.975487792</DistanceMeters>
          </Trackpoint>
          <Trackpoint>
            <Time>2019-10-04T10:40:20.000Z</Time>
            <Position>
              <LatitudeDegrees>43.3320926316082477569580078125</LatitudeDegrees>
              <LongitudeDegrees>-5.6631599552929401397705078125</LongitudeDegrees>
            </Position>
            <AltitudeMeters>256.600006103515625</AltitudeMeters>
            <DistanceMeters>27309.87699036</DistanceMeters>
          </Trackpoint>
          <Trackpoint>
            <Time>2019-10-04T10:40:22.000Z</Time>
            <Position>
              <LatitudeDegrees>43.33212004043161869049072265625</LatitudeDegrees>
              <LongitudeDegrees>-5.66314411349594593048095703125</LongitudeDegrees>
            </Position>
            <AltitudeMeters>256</AltitudeMeters>
            <DistanceMeters>27313.185230474</DistanceMeters>
          </Trackpoint>
          <Trackpoint>
            <Time>2019-10-04T10:40:24.000Z</Time>
            <Position>
              <LatitudeDegrees>43.33214677870273590087890625</LatitudeDegrees>
              <LongitudeDegrees>-5.6631847657263278961181640625</LongitudeDegrees>
            </Position>
            <AltitudeMeters>256</AltitudeMeters>
            <DistanceMeters>27317.622072442</DistanceMeters>
          </Trackpoint>
          <Trackpoint>
            <Time>2019-10-04T10:40:25.000Z</Time>
            <Position>
              <LatitudeDegrees>43.33214116282761096954345703125</LatitudeDegrees>
              <LongitudeDegrees>-5.66321569494903087615966796875</LongitudeDegrees>
            </Position>
            <AltitudeMeters>255.8000030517578125</AltitudeMeters>
            <DistanceMeters>27320.203582933</DistanceMeters>
          </Trackpoint>
          <Trackpoint>
            <Time>2019-10-04T10:40:30.000Z</Time>
            <Position>
              <LatitudeDegrees>43.33210260607302188873291015625</LatitudeDegrees>
              <LongitudeDegrees>-5.66341702826321125030517578125</LongitudeDegrees>
            </Position>
            <AltitudeMeters>255.399993896484375</AltitudeMeters>
            <DistanceMeters>27337.058975692</DistanceMeters>
          </Trackpoint>
          <Trackpoint>
            <Time>2019-10-04T10:40:39.000Z</Time>
            <Position>
              <LatitudeDegrees>43.3320269174873828887939453125</LatitudeDegrees>
              <LongitudeDegrees>-5.6638549827039241790771484375</LongitudeDegrees>
            </Position>
            <AltitudeMeters>255.1999969482421875</AltitudeMeters>
            <DistanceMeters>27373.502680819</DistanceMeters>
          </Trackpoint>
          <Trackpoint>
            <Time>2019-10-04T10:40:42.000Z</Time>
            <Position>
              <LatitudeDegrees>43.33198861218988895416259765625</LatitudeDegrees>
              <LongitudeDegrees>-5.6640165857970714569091796875</LongitudeDegrees>
            </Position>
            <AltitudeMeters>254.8000030517578125</AltitudeMeters>
            <DistanceMeters>27387.262864062</DistanceMeters>
          </Trackpoint>
          <Trackpoint>
            <Time>2019-10-04T10:40:46.000Z</Time>
            <Position>
              <LatitudeDegrees>43.33191853947937488555908203125</LatitudeDegrees>
              <LongitudeDegrees>-5.66423191688954830169677734375</LongitudeDegrees>
            </Position>
            <AltitudeMeters>254.8000030517578125</AltitudeMeters>
            <DistanceMeters>27406.361106068</DistanceMeters>
          </Trackpoint>
          <Trackpoint>
            <Time>2019-10-04T10:40:52.000Z</Time>
            <Position>
              <LatitudeDegrees>43.33173179067671298980712890625</LatitudeDegrees>
              <LongitudeDegrees>-5.664564259350299835205078125</LongitudeDegrees>
            </Position>
            <AltitudeMeters>254.399993896484375</AltitudeMeters>
            <DistanceMeters>27440.361021746</DistanceMeters>
          </Trackpoint>
          <Trackpoint>
            <Time>2019-10-04T10:40:59.000Z</Time>
            <Position>
              <LatitudeDegrees>43.331434987485408782958984375</LatitudeDegrees>
              <LongitudeDegrees>-5.664969943463802337646484375</LongitudeDegrees>
            </Position>
            <AltitudeMeters>254.399993896484375</AltitudeMeters>
            <DistanceMeters>27486.944857897</DistanceMeters>
          </Trackpoint>
          <Trackpoint>
            <Time>2019-10-04T10:41:02.000Z</Time>
            <Position>
              <LatitudeDegrees>43.33136332221329212188720703125</LatitudeDegrees>
              <LongitudeDegrees>-5.66522617824375629425048828125</LongitudeDegrees>
            </Position>
            <AltitudeMeters>254.600006103515625</AltitudeMeters>
            <DistanceMeters>27509.170548028</DistanceMeters>
          </Trackpoint>
          <Trackpoint>
            <Time>2019-10-04T10:41:03.000Z</Time>
            <Position>
              <LatitudeDegrees>43.3313479833304882049560546875</LatitudeDegrees>
              <LongitudeDegrees>-5.6653255037963390350341796875</LongitudeDegrees>
            </Position>
            <AltitudeMeters>254.600006103515625</AltitudeMeters>
            <DistanceMeters>27517.391320017</DistanceMeters>
          </Trackpoint>
          <Trackpoint>
            <Time>2019-10-04T10:41:06.000Z</Time>
            <Position>
              <LatitudeDegrees>43.33130992949008941650390625</LatitudeDegrees>
              <LongitudeDegrees>-5.66563404165208339691162109375</LongitudeDegrees>
            </Position>
            <AltitudeMeters>254.399993896484375</AltitudeMeters>
            <DistanceMeters>27542.727124406</DistanceMeters>
          </Trackpoint>
          <Trackpoint>
            <Time>2019-10-04T10:41:08.000Z</Time>
            <Position>
              <LatitudeDegrees>43.33128201775252819061279296875</LatitudeDegrees>
              <LongitudeDegrees>-5.6658468581736087799072265625</LongitudeDegrees>
            </Position>
            <AltitudeMeters>254.600006103515625</AltitudeMeters>
            <DistanceMeters>27560.234490991</DistanceMeters>
          </Trackpoint>
          <Trackpoint>
            <Time>2019-10-04T10:41:11.000Z</Time>
            <Position>
              <LatitudeDegrees>43.3312142081558704376220703125</LatitudeDegrees>
              <LongitudeDegrees>-5.66616394557058811187744140625</LongitudeDegrees>
            </Position>
            <AltitudeMeters>254.8000030517578125</AltitudeMeters>
            <DistanceMeters>27586.99256942</DistanceMeters>
          </Trackpoint>
          <Trackpoint>
            <Time>2019-10-04T10:41:13.000Z</Time>
            <Position>
              <LatitudeDegrees>43.3311404474079608917236328125</LatitudeDegrees>
              <LongitudeDegrees>-5.6663645245134830474853515625</LongitudeDegrees>
            </Position>
            <AltitudeMeters>255</AltitudeMeters>
            <DistanceMeters>27605.18888259</DistanceMeters>
          </Trackpoint>
          <Trackpoint>
            <Time>2019-10-04T10:41:17.000Z</Time>
            <Position>
              <LatitudeDegrees>43.330903910100460052490234375</LatitudeDegrees>
              <LongitudeDegrees>-5.6667185761034488677978515625</LongitudeDegrees>
            </Position>
            <AltitudeMeters>255.600006103515625</AltitudeMeters>
            <DistanceMeters>27644.108790133</DistanceMeters>
          </Trackpoint>
          <Trackpoint>
            <Time>2019-10-04T10:41:22.000Z</Time>
            <Position>
              <LatitudeDegrees>43.33052077330648899078369140625</LatitudeDegrees>
              <LongitudeDegrees>-5.66708059050142765045166015625</LongitudeDegrees>
            </Position>
            <AltitudeMeters>255.8000030517578125</AltitudeMeters>
            <DistanceMeters>27695.853693811</DistanceMeters>
          </Trackpoint>
          <Trackpoint>
            <Time>2019-10-04T10:41:23.000Z</Time>
            <Position>
              <LatitudeDegrees>43.330449275672435760498046875</LatitudeDegrees>
              <LongitudeDegrees>-5.667155943810939788818359375</LongitudeDegrees>
            </Position>
            <AltitudeMeters>256.20001220703125</AltitudeMeters>
            <DistanceMeters>27705.881151176</DistanceMeters>
          </Trackpoint>
          <Trackpoint>
            <Time>2019-10-04T10:41:24.000Z</Time>
            <Position>
              <LatitudeDegrees>43.3303743414580821990966796875</LatitudeDegrees>
              <LongitudeDegrees>-5.66722928546369075775146484375</LongitudeDegrees>
            </Position>
            <AltitudeMeters>256</AltitudeMeters>
            <DistanceMeters>27716.119370131</DistanceMeters>
          </Trackpoint>
          <Trackpoint>
            <Time>2019-10-04T10:41:25.000Z</Time>
            <Position>
              <LatitudeDegrees>43.33029605448246002197265625</LatitudeDegrees>
              <LongitudeDegrees>-5.667298100888729095458984375</LongitudeDegrees>
            </Position>
            <AltitudeMeters>256</AltitudeMeters>
            <DistanceMeters>27726.462014162</DistanceMeters>
          </Trackpoint>
          <Trackpoint>
            <Time>2019-10-04T10:41:27.000Z</Time>
            <Position>
              <LatitudeDegrees>43.33012145943939685821533203125</LatitudeDegrees>
              <LongitudeDegrees>-5.66743581555783748626708984375</LongitudeDegrees>
            </Position>
            <AltitudeMeters>256</AltitudeMeters>
            <DistanceMeters>27748.866161751</DistanceMeters>
          </Trackpoint>
          <Trackpoint>
            <Time>2019-10-04T10:41:28.000Z</Time>
            <Position>
              <LatitudeDegrees>43.33002791740000247955322265625</LatitudeDegrees>
              <LongitudeDegrees>-5.6674675829708576202392578125</LongitudeDegrees>
            </Position>
            <AltitudeMeters>256.20001220703125</AltitudeMeters>
            <DistanceMeters>27759.590716925</DistanceMeters>
          </Trackpoint>
          <Trackpoint>
            <Time>2019-10-04T10:41:30.000Z</Time>
            <Position>
              <LatitudeDegrees>43.32982960157096385955810546875</LatitudeDegrees>
              <LongitudeDegrees>-5.6674955785274505615234375</LongitudeDegrees>
            </Position>
            <AltitudeMeters>256.399993896484375</AltitudeMeters>
            <DistanceMeters>27781.779810823</DistanceMeters>
          </Trackpoint>
          <Trackpoint>
            <Time>2019-10-04T10:41:32.000Z</Time>
            <Position>
              <LatitudeDegrees>43.3296280167996883392333984375</LatitudeDegrees>
              <LongitudeDegrees>-5.66746816970407962799072265625</LongitudeDegrees>
            </Position>
            <AltitudeMeters>256.600006103515625</AltitudeMeters>
            <DistanceMeters>27804.325987733</DistanceMeters>
          </Trackpoint>
          <Trackpoint>
            <Time>2019-10-04T10:41:33.000Z</Time>
            <Position>
              <LatitudeDegrees>43.329529948532581329345703125</LatitudeDegrees>
              <LongitudeDegrees>-5.667436905205249786376953125</LongitudeDegrees>
            </Position>
            <AltitudeMeters>256.79998779296875</AltitudeMeters>
            <DistanceMeters>27815.530681071</DistanceMeters>
          </Trackpoint>
          <Trackpoint>
            <Time>2019-10-04T10:41:35.000Z</Time>
            <Position>
              <LatitudeDegrees>43.329330794513225555419921875</LatitudeDegrees>
              <LongitudeDegrees>-5.6673488952219486236572265625</LongitudeDegrees>
            </Position>
            <AltitudeMeters>256.79998779296875</AltitudeMeters>
            <DistanceMeters>27838.813971415</DistanceMeters>
          </Trackpoint>
          <Trackpoint>
            <Time>2019-10-04T10:41:38.000Z</Time>
            <Position>
              <LatitudeDegrees>43.32903005182743072509765625</LatitudeDegrees>
              <LongitudeDegrees>-5.66720564849674701690673828125</LongitudeDegrees>
            </Position>
            <AltitudeMeters>257.20001220703125</AltitudeMeters>
            <DistanceMeters>27874.239441121</DistanceMeters>
          </Trackpoint>
          <Trackpoint>
            <Time>2019-10-04T10:41:43.000Z</Time>
            <Position>
              <LatitudeDegrees>43.32856091670691967010498046875</LatitudeDegrees>
              <LongitudeDegrees>-5.666963160037994384765625</LongitudeDegrees>
            </Position>
            <AltitudeMeters>257.79998779296875</AltitudeMeters>
            <DistanceMeters>27930.024088507</DistanceMeters>
          </Trackpoint>
          <Trackpoint>
            <Time>2019-10-04T10:41:44.000Z</Time>
            <Position>
              <LatitudeDegrees>43.32845949567854404449462890625</LatitudeDegrees>
              <LongitudeDegrees>-5.66693927161395549774169921875</LongitudeDegrees>
            </Position>
            <AltitudeMeters>257.600006103515625</AltitudeMeters>
            <DistanceMeters>27941.476680368</DistanceMeters>
          </Trackpoint>
          <Trackpoint>
            <Time>2019-10-04T10:41:47.000Z</Time>
            <Position>
              <LatitudeDegrees>43.32817166112363338470458984375</LatitudeDegrees>
              <LongitudeDegrees>-5.66688864491879940032958984375</LongitudeDegrees>
            </Position>
            <AltitudeMeters>257.600006103515625</AltitudeMeters>
            <DistanceMeters>27973.774302118</DistanceMeters>
          </Trackpoint>
          <Trackpoint>
            <Time>2019-10-04T10:41:50.000Z</Time>
            <Position>
              <LatitudeDegrees>43.3279010094702243804931640625</LatitudeDegrees>
              <LongitudeDegrees>-5.666707344353199005126953125</LongitudeDegrees>
            </Position>
            <AltitudeMeters>258</AltitudeMeters>
            <DistanceMeters>28007.284526769</DistanceMeters>
          </Trackpoint>
          <Trackpoint>
            <Time>2019-10-04T10:41:53.000Z</Time>
            <Position>
              <LatitudeDegrees>43.3276649750769138336181640625</LatitudeDegrees>
              <LongitudeDegrees>-5.66644272767007350921630859375</LongitudeDegrees>
            </Position>
            <AltitudeMeters>258</AltitudeMeters>
            <DistanceMeters>28041.184299902</DistanceMeters>
          </Trackpoint>
          <Trackpoint>
            <Time>2019-10-04T10:41:54.000Z</Time>
            <Position>
              <LatitudeDegrees>43.3275975845754146575927734375</LatitudeDegrees>
              <LongitudeDegrees>-5.66634214483201503753662109375</LongitudeDegrees>
            </Position>
            <AltitudeMeters>258</AltitudeMeters>
            <DistanceMeters>28052.255625824</DistanceMeters>
          </Trackpoint>
          <Trackpoint>
            <Time>2019-10-04T10:41:57.000Z</Time>
            <Position>
              <LatitudeDegrees>43.3274024538695812225341796875</LatitudeDegrees>
              <LongitudeDegrees>-5.66606931388378143310546875</LongitudeDegrees>
            </Position>
            <AltitudeMeters>258.20001220703125</AltitudeMeters>
            <DistanceMeters>28083.234043214</DistanceMeters>
          </Trackpoint>
          <Trackpoint>
            <Time>2019-10-04T10:41:58.000Z</Time>
            <Position>
              <LatitudeDegrees>43.32732282578945159912109375</LatitudeDegrees>
              <LongitudeDegrees>-5.66600301302969455718994140625</LongitudeDegrees>
            </Position>
            <AltitudeMeters>258.20001220703125</AltitudeMeters>
            <DistanceMeters>28093.595441712</DistanceMeters>
          </Trackpoint>
          <Trackpoint>
            <Time>2019-10-04T10:42:01.000Z</Time>
            <Position>
              <LatitudeDegrees>43.32704119384288787841796875</LatitudeDegrees>
              <LongitudeDegrees>-5.66595925949513912200927734375</LongitudeDegrees>
            </Position>
            <AltitudeMeters>258.399993896484375</AltitudeMeters>
            <DistanceMeters>28125.14116225</DistanceMeters>
          </Trackpoint>
          <Trackpoint>
            <Time>2019-10-04T10:42:03.000Z</Time>
            <Position>
              <LatitudeDegrees>43.32685050554573535919189453125</LatitudeDegrees>
              <LongitudeDegrees>-5.66602296195924282073974609375</LongitudeDegrees>
            </Position>
            <AltitudeMeters>258.399993896484375</AltitudeMeters>
            <DistanceMeters>28146.982841182</DistanceMeters>
          </Trackpoint>
          <Trackpoint>
            <Time>2019-10-04T10:42:04.000Z</Time>
            <Position>
              <LatitudeDegrees>43.32676316611468791961669921875</LatitudeDegrees>
              <LongitudeDegrees>-5.66609211266040802001953125</LongitudeDegrees>
            </Position>
            <AltitudeMeters>258.79998779296875</AltitudeMeters>
            <DistanceMeters>28158.200824304</DistanceMeters>
          </Trackpoint>
          <Trackpoint>
            <Time>2019-10-04T10:42:07.000Z</Time>
            <Position>
              <LatitudeDegrees>43.3265508525073528289794921875</LatitudeDegrees>
              <LongitudeDegrees>-5.6664024107158184051513671875</LongitudeDegrees>
            </Position>
            <AltitudeMeters>258.79998779296875</AltitudeMeters>
            <DistanceMeters>28192.691725578</DistanceMeters>
          </Trackpoint>
          <Trackpoint>
            <Time>2019-10-04T10:42:10.000Z</Time>
            <Position>
              <LatitudeDegrees>43.326390422880649566650390625</LatitudeDegrees>
              <LongitudeDegrees>-5.6667702086269855499267578125</LongitudeDegrees>
            </Position>
            <AltitudeMeters>259</AltitudeMeters>
            <DistanceMeters>28227.414336173</DistanceMeters>
          </Trackpoint>
          <Trackpoint>
            <Time>2019-10-04T10:42:11.000Z</Time>
            <Position>
              <LatitudeDegrees>43.3263439871370792388916015625</LatitudeDegrees>
              <LongitudeDegrees>-5.6668893992900848388671875</LongitudeDegrees>
            </Position>
            <AltitudeMeters>259.20001220703125</AltitudeMeters>
            <DistanceMeters>28238.361809605</DistanceMeters>
          </Trackpoint>
          <Trackpoint>
            <Time>2019-10-04T10:42:12.000Z</Time>
            <Position>
              <LatitudeDegrees>43.3262957073748111724853515625</LatitudeDegrees>
              <LongitudeDegrees>-5.66700750030577182769775390625</LongitudeDegrees>
            </Position>
            <AltitudeMeters>259.399993896484375</AltitudeMeters>
            <DistanceMeters>28249.330708299</DistanceMeters>
          </Trackpoint>
          <Trackpoint>
            <Time>2019-10-04T10:42:14.000Z</Time>
            <Position>
              <LatitudeDegrees>43.3261807076632976531982421875</LatitudeDegrees>
              <LongitudeDegrees>-5.6672285310924053192138671875</LongitudeDegrees>
            </Position>
            <AltitudeMeters>259.399993896484375</AltitudeMeters>
            <DistanceMeters>28271.333445817</DistanceMeters>
          </Trackpoint>
          <Trackpoint>
            <Time>2019-10-04T10:42:16.000Z</Time>
            <Position>
              <LatitudeDegrees>43.32602354697883129119873046875</LatitudeDegrees>
              <LongitudeDegrees>-5.66739524714648723602294921875</LongitudeDegrees>
            </Position>
            <AltitudeMeters>259.20001220703125</AltitudeMeters>
            <DistanceMeters>28293.428536285</DistanceMeters>
          </Trackpoint>
          <Trackpoint>
            <Time>2019-10-04T10:42:19.000Z</Time>
            <Position>
              <LatitudeDegrees>43.32573973573744297027587890625</LatitudeDegrees>
              <LongitudeDegrees>-5.66751879639923572540283203125</LongitudeDegrees>
            </Position>
            <AltitudeMeters>259.20001220703125</AltitudeMeters>
            <DistanceMeters>28326.563440004</DistanceMeters>
          </Trackpoint>
          <Trackpoint>
            <Time>2019-10-04T10:42:22.000Z</Time>
            <Position>
              <LatitudeDegrees>43.3254417590796947479248046875</LatitudeDegrees>
              <LongitudeDegrees>-5.66750186495482921600341796875</LongitudeDegrees>
            </Position>
            <AltitudeMeters>259.20001220703125</AltitudeMeters>
            <DistanceMeters>28359.757156841</DistanceMeters>
          </Trackpoint>
          <Trackpoint>
            <Time>2019-10-04T10:42:25.000Z</Time>
            <Position>
              <LatitudeDegrees>43.3251644857227802276611328125</LatitudeDegrees>
              <LongitudeDegrees>-5.66734177060425281524658203125</LongitudeDegrees>
            </Position>
            <AltitudeMeters>259.20001220703125</AltitudeMeters>
            <DistanceMeters>28393.230173662</DistanceMeters>
          </Trackpoint>
          <Trackpoint>
            <Time>2019-10-04T10:42:27.000Z</Time>
            <Position>
              <LatitudeDegrees>43.32498670555651187896728515625</LatitudeDegrees>
              <LongitudeDegrees>-5.66719374619424343109130859375</LongitudeDegrees>
            </Position>
            <AltitudeMeters>258.79998779296875</AltitudeMeters>
            <DistanceMeters>28416.364446304</DistanceMeters>
          </Trackpoint>
          <Trackpoint>
            <Time>2019-10-04T10:42:29.000Z</Time>
            <Position>
              <LatitudeDegrees>43.32479425705969333648681640625</LatitudeDegrees>
              <LongitudeDegrees>-5.6670686043798923492431640625</LongitudeDegrees>
            </Position>
            <AltitudeMeters>259.20001220703125</AltitudeMeters>
            <DistanceMeters>28440.060229753</DistanceMeters>
          </Trackpoint>
          <Trackpoint>
            <Time>2019-10-04T10:42:32.000Z</Time>
            <Position>
              <LatitudeDegrees>43.32447859458625316619873046875</LatitudeDegrees>
              <LongitudeDegrees>-5.66701035015285015106201171875</LongitudeDegrees>
            </Position>
            <AltitudeMeters>259</AltitudeMeters>
            <DistanceMeters>28475.509397559</DistanceMeters>
          </Trackpoint>
          <Trackpoint>
            <Time>2019-10-04T10:42:33.000Z</Time>
            <Position>
              <LatitudeDegrees>43.32437214441597461700439453125</LatitudeDegrees>
              <LongitudeDegrees>-5.6670337356626987457275390625</LongitudeDegrees>
            </Position>
            <AltitudeMeters>259.20001220703125</AltitudeMeters>
            <DistanceMeters>28487.508002009</DistanceMeters>
          </Trackpoint>
          <Trackpoint>
            <Time>2019-10-04T10:42:34.000Z</Time>
            <Position>
              <LatitudeDegrees>43.3242709748446941375732421875</LatitudeDegrees>
              <LongitudeDegrees>-5.6670692749321460723876953125</LongitudeDegrees>
            </Position>
            <AltitudeMeters>259.600006103515625</AltitudeMeters>
            <DistanceMeters>28499.130045007</DistanceMeters>
          </Trackpoint>
          <Trackpoint>
            <Time>2019-10-04T10:42:35.000Z</Time>
            <Position>
              <LatitudeDegrees>43.324169218540191650390625</LatitudeDegrees>
              <LongitudeDegrees>-5.66710322163999080657958984375</LongitudeDegrees>
            </Position>
            <AltitudeMeters>259.399993896484375</AltitudeMeters>
            <DistanceMeters>28510.784288002</DistanceMeters>
          </Trackpoint>
          <Trackpoint>
            <Time>2019-10-04T10:42:36.000Z</Time>
            <Position>
              <LatitudeDegrees>43.32406570203602313995361328125</LatitudeDegrees>
              <LongitudeDegrees>-5.6671269424259662628173828125</LongitudeDegrees>
            </Position>
            <AltitudeMeters>259.399993896484375</AltitudeMeters>
            <DistanceMeters>28522.465232102</DistanceMeters>
          </Trackpoint>
          <Trackpoint>
            <Time>2019-10-04T10:42:37.000Z</Time>
            <Position>
              <LatitudeDegrees>43.32396428100764751434326171875</LatitudeDegrees>
              <LongitudeDegrees>-5.6671321392059326171875</LongitudeDegrees>
            </Position>
            <AltitudeMeters>259.20001220703125</AltitudeMeters>
            <DistanceMeters>28533.761826293</DistanceMeters>
          </Trackpoint>
          <Trackpoint>
            <Time>2019-10-04T10:42:39.000Z</Time>
            <Position>
              <LatitudeDegrees>43.323765881359577178955078125</LatitudeDegrees>
              <LongitudeDegrees>-5.66703499294817447662353515625</LongitudeDegrees>
            </Position>
            <AltitudeMeters>259.20001220703125</AltitudeMeters>
            <DistanceMeters>28557.20320449</DistanceMeters>
          </Trackpoint>
          <Trackpoint>
            <Time>2019-10-04T10:42:42.000Z</Time>
            <Position>
              <LatitudeDegrees>43.3235414139926433563232421875</LatitudeDegrees>
              <LongitudeDegrees>-5.666732825338840484619140625</LongitudeDegrees>
            </Position>
            <AltitudeMeters>259.399993896484375</AltitudeMeters>
            <DistanceMeters>28592.171873347</DistanceMeters>
          </Trackpoint>
          <Trackpoint>
            <Time>2019-10-04T10:42:44.000Z</Time>
            <Position>
              <LatitudeDegrees>43.32339464686810970306396484375</LatitudeDegrees>
              <LongitudeDegrees>-5.66653375513851642608642578125</LongitudeDegrees>
            </Position>
            <AltitudeMeters>259</AltitudeMeters>
            <DistanceMeters>28615.121169165</DistanceMeters>
          </Trackpoint>
          <Trackpoint>
            <Time>2019-10-04T10:42:47.000Z</Time>
            <Position>
              <LatitudeDegrees>43.3231498114764690399169921875</LatitudeDegrees>
              <LongitudeDegrees>-5.66628531552851200103759765625</LongitudeDegrees>
            </Position>
            <AltitudeMeters>258.79998779296875</AltitudeMeters>
            <DistanceMeters>28648.992561404</DistanceMeters>
          </Trackpoint>
          <Trackpoint>
            <Time>2019-10-04T10:42:50.000Z</Time>
            <Position>
              <LatitudeDegrees>43.32290950231254100799560546875</LatitudeDegrees>
              <LongitudeDegrees>-5.66606755368411540985107421875</LongitudeDegrees>
            </Position>
            <AltitudeMeters>259.399993896484375</AltitudeMeters>
            <DistanceMeters>28681.028545986</DistanceMeters>
          </Trackpoint>
          <Trackpoint>
            <Time>2019-10-04T10:42:51.000Z</Time>
            <Position>
              <LatitudeDegrees>43.3228272758424282073974609375</LatitudeDegrees>
              <LongitudeDegrees>-5.666013658046722412109375</LongitudeDegrees>
            </Position>
            <AltitudeMeters>259.399993896484375</AltitudeMeters>
            <DistanceMeters>28691.167500086</DistanceMeters>
          </Trackpoint>
          <Trackpoint>
            <Time>2019-10-04T10:42:54.000Z</Time>
            <Position>
              <LatitudeDegrees>43.32257590256631374359130859375</LatitudeDegrees>
              <LongitudeDegrees>-5.66601592116057872772216796875</LongitudeDegrees>
            </Position>
            <AltitudeMeters>259.20001220703125</AltitudeMeters>
            <DistanceMeters>28719.146372953</DistanceMeters>
          </Trackpoint>
          <Trackpoint>
            <Time>2019-10-04T10:42:56.000Z</Time>
            <Position>
              <LatitudeDegrees>43.3224759064614772796630859375</LatitudeDegrees>
              <LongitudeDegrees>-5.66617735661566257476806640625</LongitudeDegrees>
            </Position>
            <AltitudeMeters>259</AltitudeMeters>
            <DistanceMeters>28736.314941772</DistanceMeters>
          </Trackpoint>
          <Trackpoint>
            <Time>2019-10-04T10:42:58.000Z</Time>
            <Position>
              <LatitudeDegrees>43.32241010852158069610595703125</LatitudeDegrees>
              <LongitudeDegrees>-5.66638958640396595001220703125</LongitudeDegrees>
            </Position>
            <AltitudeMeters>258.20001220703125</AltitudeMeters>
            <DistanceMeters>28754.995366663</DistanceMeters>
          </Trackpoint>
          <Trackpoint>
            <Time>2019-10-04T10:42:59.000Z</Time>
            <Position>
              <LatitudeDegrees>43.32238663919270038604736328125</LatitudeDegrees>
              <LongitudeDegrees>-5.666504837572574615478515625</LongitudeDegrees>
            </Position>
            <AltitudeMeters>257.79998779296875</AltitudeMeters>
            <DistanceMeters>28764.68622808</DistanceMeters>
          </Trackpoint>
          <Trackpoint>
            <Time>2019-10-04T10:43:00.000Z</Time>
            <Position>
              <LatitudeDegrees>43.3223627507686614990234375</LatitudeDegrees>
              <LongitudeDegrees>-5.66662092693150043487548828125</LongitudeDegrees>
            </Position>
            <AltitudeMeters>257.600006103515625</AltitudeMeters>
            <DistanceMeters>28774.455048268</DistanceMeters>
          </Trackpoint>
          <Trackpoint>
            <Time>2019-10-04T10:43:02.000Z</Time>
            <Position>
              <LatitudeDegrees>43.32231044769287109375</LatitudeDegrees>
              <LongitudeDegrees>-5.66684958525002002716064453125</LongitudeDegrees>
            </Position>
            <AltitudeMeters>257.20001220703125</AltitudeMeters>
            <DistanceMeters>28793.863774886</DistanceMeters>
          </Trackpoint>
          <Trackpoint>
            <Time>2019-10-04T10:43:06.000Z</Time>
            <Position>
              <LatitudeDegrees>43.3222036622464656829833984375</LatitudeDegrees>
              <LongitudeDegrees>-5.6673351489007472991943359375</LongitudeDegrees>
            </Position>
            <AltitudeMeters>255.8000030517578125</AltitudeMeters>
            <DistanceMeters>28834.938625616</DistanceMeters>
          </Trackpoint>
          <Trackpoint>
            <Time>2019-10-04T10:43:08.000Z</Time>
            <Position>
              <LatitudeDegrees>43.32214641384780406951904296875</LatitudeDegrees>
              <LongitudeDegrees>-5.66758065484464168548583984375</LongitudeDegrees>
            </Position>
            <AltitudeMeters>255.8000030517578125</AltitudeMeters>
            <DistanceMeters>28855.814028824</DistanceMeters>
          </Trackpoint>
          <Trackpoint>
            <Time>2019-10-04T10:43:10.000Z</Time>
            <Position>
              <LatitudeDegrees>43.3220784366130828857421875</LatitudeDegrees>
              <LongitudeDegrees>-5.66782540641725063323974609375</LongitudeDegrees>
            </Position>
            <AltitudeMeters>255.600006103515625</AltitudeMeters>
            <DistanceMeters>28877.027346092</DistanceMeters>
          </Trackpoint>
          <Trackpoint>
            <Time>2019-10-04T10:43:13.000Z</Time>
            <Position>
              <LatitudeDegrees>43.32195547409355640411376953125</LatitudeDegrees>
              <LongitudeDegrees>-5.6681820563971996307373046875</LongitudeDegrees>
            </Position>
            <AltitudeMeters>255.8000030517578125</AltitudeMeters>
            <DistanceMeters>28908.985156496</DistanceMeters>
          </Trackpoint>
          <Trackpoint>
            <Time>2019-10-04T10:43:15.000Z</Time>
            <Position>
              <LatitudeDegrees>43.3218536339700222015380859375</LatitudeDegrees>
              <LongitudeDegrees>-5.6684130616486072540283203125</LongitudeDegrees>
            </Position>
            <AltitudeMeters>256</AltitudeMeters>
            <DistanceMeters>28930.856995232</DistanceMeters>
          </Trackpoint>
          <Trackpoint>
            <Time>2019-10-04T10:43:17.000Z</Time>
            <Position>
              <LatitudeDegrees>43.32172363065183162689208984375</LatitudeDegrees>
              <LongitudeDegrees>-5.66862151958048343658447265625</LongitudeDegrees>
            </Position>
            <AltitudeMeters>255.8000030517578125</AltitudeMeters>
            <DistanceMeters>28953.089591221</DistanceMeters>
          </Trackpoint>
          <Trackpoint>
            <Time>2019-10-04T10:43:18.000Z</Time>
            <Position>
              <LatitudeDegrees>43.32165020518004894256591796875</LatitudeDegrees>
              <LongitudeDegrees>-5.66871120594441890716552734375</LongitudeDegrees>
            </Position>
            <AltitudeMeters>255.600006103515625</AltitudeMeters>
            <DistanceMeters>28964.022620165</DistanceMeters>
          </Trackpoint>
          <Trackpoint>
            <Time>2019-10-04T10:43:19.000Z</Time>
            <Position>
              <LatitudeDegrees>43.3215726725757122039794921875</LatitudeDegrees>
              <LongitudeDegrees>-5.66879334859549999237060546875</LongitudeDegrees>
            </Position>
            <AltitudeMeters>255.600006103515625</AltitudeMeters>
            <DistanceMeters>28974.918003817</DistanceMeters>
          </Trackpoint>
          <Trackpoint>
            <Time>2019-10-04T10:43:21.000Z</Time>
            <Position>
              <LatitudeDegrees>43.3214120753109455108642578125</LatitudeDegrees>
              <LongitudeDegrees>-5.66894137300550937652587890625</LongitudeDegrees>
            </Position>
            <AltitudeMeters>255.8000030517578125</AltitudeMeters>
            <DistanceMeters>28996.439404352</DistanceMeters>
          </Trackpoint>
          <Trackpoint>
            <Time>2019-10-04T10:43:22.000Z</Time>
            <Position>
              <LatitudeDegrees>43.3213285915553569793701171875</LatitudeDegrees>
              <LongitudeDegrees>-5.66901798360049724578857421875</LongitudeDegrees>
            </Position>
            <AltitudeMeters>255.600006103515625</AltitudeMeters>
            <DistanceMeters>29007.611814418</DistanceMeters>
          </Trackpoint>
          <Trackpoint>
            <Time>2019-10-04T10:43:27.000Z</Time>
            <Position>
              <LatitudeDegrees>43.3209143579006195068359375</LatitudeDegrees>
              <LongitudeDegrees>-5.66933616064488887786865234375</LongitudeDegrees>
            </Position>
            <AltitudeMeters>255.399993896484375</AltitudeMeters>
            <DistanceMeters>29060.427180119</DistanceMeters>
          </Trackpoint>
          <Trackpoint>
            <Time>2019-10-04T10:43:30.000Z</Time>
            <Position>
              <LatitudeDegrees>43.3206214942038059234619140625</LatitudeDegrees>
              <LongitudeDegrees>-5.66930405795574188232421875</LongitudeDegrees>
            </Position>
            <AltitudeMeters>255.1999969482421875</AltitudeMeters>
            <DistanceMeters>29093.127141465</DistanceMeters>
          </Trackpoint>
          <Trackpoint>
            <Time>2019-10-04T10:43:33.000Z</Time>
            <Position>
              <LatitudeDegrees>43.320370204746723175048828125</LatitudeDegrees>
              <LongitudeDegrees>-5.66909752786159515380859375</LongitudeDegrees>
            </Position>
            <AltitudeMeters>255</AltitudeMeters>
            <DistanceMeters>29125.714793267</DistanceMeters>
          </Trackpoint>
          <Trackpoint>
            <Time>2019-10-04T10:43:34.000Z</Time>
            <Position>
              <LatitudeDegrees>43.32029283978044986724853515625</LatitudeDegrees>
              <LongitudeDegrees>-5.6690135411918163299560546875</LongitudeDegrees>
            </Position>
            <AltitudeMeters>255</AltitudeMeters>
            <DistanceMeters>29136.687807406</DistanceMeters>
          </Trackpoint>
          <Trackpoint>
            <Time>2019-10-04T10:43:35.000Z</Time>
            <Position>
              <LatitudeDegrees>43.32021522335708141326904296875</LatitudeDegrees>
              <LongitudeDegrees>-5.66893131472170352935791015625</LongitudeDegrees>
            </Position>
            <AltitudeMeters>254.8000030517578125</AltitudeMeters>
            <DistanceMeters>29147.595202015</DistanceMeters>
          </Trackpoint>
          <Trackpoint>
            <Time>2019-10-04T10:43:38.000Z</Time>
            <Position>
              <LatitudeDegrees>43.320018164813518524169921875</LatitudeDegrees>
              <LongitudeDegrees>-5.6687231920659542083740234375</LongitudeDegrees>
            </Position>
            <AltitudeMeters>254.600006103515625</AltitudeMeters>
            <DistanceMeters>29175.255159114</DistanceMeters>
          </Trackpoint>
          <Trackpoint>
            <Time>2019-10-04T10:43:40.000Z</Time>
            <Position>
              <LatitudeDegrees>43.31984373740851879119873046875</LatitudeDegrees>
              <LongitudeDegrees>-5.6686980463564395904541015625</LongitudeDegrees>
            </Position>
            <AltitudeMeters>253.8000030517578125</AltitudeMeters>
            <DistanceMeters>29194.775691017</DistanceMeters>
          </Trackpoint>
          <Trackpoint>
            <Time>2019-10-04T10:43:42.000Z</Time>
            <Position>
              <LatitudeDegrees>43.31968196667730808258056640625</LatitudeDegrees>
              <LongitudeDegrees>-5.66880642436444759368896484375</LongitudeDegrees>
            </Position>
            <AltitudeMeters>253.1999969482421875</AltitudeMeters>
            <DistanceMeters>29214.806051136</DistanceMeters>
          </Trackpoint>
          <Trackpoint>
            <Time>2019-10-04T10:43:44.000Z</Time>
            <Position>
              <LatitudeDegrees>43.31955355592072010040283203125</LatitudeDegrees>
              <LongitudeDegrees>-5.6689868867397308349609375</LongitudeDegrees>
            </Position>
            <AltitudeMeters>252.600006103515625</AltitudeMeters>
            <DistanceMeters>29235.246736962</DistanceMeters>
          </Trackpoint>
          <Trackpoint>
            <Time>2019-10-04T10:43:45.000Z</Time>
            <Position>
              <LatitudeDegrees>43.31950284540653228759765625</LatitudeDegrees>
              <LongitudeDegrees>-5.66909342072904109954833984375</LongitudeDegrees>
            </Position>
            <AltitudeMeters>252.399993896484375</AltitudeMeters>
            <DistanceMeters>29245.556150124</DistanceMeters>
          </Trackpoint>
          <Trackpoint>
            <Time>2019-10-04T10:43:47.000Z</Time>
            <Position>
              <LatitudeDegrees>43.3194201998412609100341796875</LatitudeDegrees>
              <LongitudeDegrees>-5.66932107321918010711669921875</LongitudeDegrees>
            </Position>
            <AltitudeMeters>252.1999969482421875</AltitudeMeters>
            <DistanceMeters>29266.158327514</DistanceMeters>
          </Trackpoint>
          <Trackpoint>
            <Time>2019-10-04T10:43:48.000Z</Time>
            <Position>
              <LatitudeDegrees>43.3193774521350860595703125</LatitudeDegrees>
              <LongitudeDegrees>-5.66944043152034282684326171875</LongitudeDegrees>
            </Position>
            <AltitudeMeters>251.600006103515625</AltitudeMeters>
            <DistanceMeters>29276.9311889</DistanceMeters>
          </Trackpoint>
          <Trackpoint>
            <Time>2019-10-04T10:43:49.000Z</Time>
            <Position>
              <LatitudeDegrees>43.31933646462857723236083984375</LatitudeDegrees>
              <LongitudeDegrees>-5.66955761052668094635009765625</LongitudeDegrees>
            </Position>
            <AltitudeMeters>251.399993896484375</AltitudeMeters>
            <DistanceMeters>29287.459445563</DistanceMeters>
          </Trackpoint>
          <Trackpoint>
            <Time>2019-10-04T10:43:50.000Z</Time>
            <Position>
              <LatitudeDegrees>43.3192914538085460662841796875</LatitudeDegrees>
              <LongitudeDegrees>-5.66967160440981388092041015625</LongitudeDegrees>
            </Position>
            <AltitudeMeters>251</AltitudeMeters>
            <DistanceMeters>29297.962369624</DistanceMeters>
          </Trackpoint>
          <Trackpoint>
            <Time>2019-10-04T10:43:51.000Z</Time>
            <Position>
              <LatitudeDegrees>43.31923990510404109954833984375</LatitudeDegrees>
              <LongitudeDegrees>-5.66978241316974163055419921875</LongitudeDegrees>
            </Position>
            <AltitudeMeters>250.8000030517578125</AltitudeMeters>
            <DistanceMeters>29308.612994971</DistanceMeters>
          </Trackpoint>
          <Trackpoint>
            <Time>2019-10-04T10:43:52.000Z</Time>
            <Position>
              <LatitudeDegrees>43.31917234696447849273681640625</LatitudeDegrees>
              <LongitudeDegrees>-5.6698738597333431243896484375</LongitudeDegrees>
            </Position>
            <AltitudeMeters>250.399993896484375</AltitudeMeters>
            <DistanceMeters>29319.166523427</DistanceMeters>
          </Trackpoint>
          <Trackpoint>
            <Time>2019-10-04T10:43:53.000Z</Time>
            <Position>
              <LatitudeDegrees>43.3190896175801753997802734375</LatitudeDegrees>
              <LongitudeDegrees>-5.66994569264352321624755859375</LongitudeDegrees>
            </Position>
            <AltitudeMeters>250</AltitudeMeters>
            <DistanceMeters>29330.057762299</DistanceMeters>
          </Trackpoint>
          <Trackpoint>
            <Time>2019-10-04T10:43:55.000Z</Time>
            <Position>
              <LatitudeDegrees>43.31890068948268890380859375</LatitudeDegrees>
              <LongitudeDegrees>-5.66999749280512332916259765625</LongitudeDegrees>
            </Position>
            <AltitudeMeters>249.399993896484375</AltitudeMeters>
            <DistanceMeters>29351.500135587</DistanceMeters>
          </Trackpoint>
          <Trackpoint>
            <Time>2019-10-04T10:43:58.000Z</Time>
            <Position>
              <LatitudeDegrees>43.3186165429651737213134765625</LatitudeDegrees>
              <LongitudeDegrees>-5.6699010170996189117431640625</LongitudeDegrees>
            </Position>
            <AltitudeMeters>248.600006103515625</AltitudeMeters>
            <DistanceMeters>29384.076978651</DistanceMeters>
          </Trackpoint>
          <Trackpoint>
            <Time>2019-10-04T10:43:59.000Z</Time>
            <Position>
              <LatitudeDegrees>43.318520151078701019287109375</LatitudeDegrees>
              <LongitudeDegrees>-5.66986371763050556182861328125</LongitudeDegrees>
            </Position>
            <AltitudeMeters>248.399993896484375</AltitudeMeters>
            <DistanceMeters>29395.223089709</DistanceMeters>
          </Trackpoint>
          <Trackpoint>
            <Time>2019-10-04T10:44:00.000Z</Time>
            <Position>
              <LatitudeDegrees>43.3184207417070865631103515625</LatitudeDegrees>
              <LongitudeDegrees>-5.669849216938018798828125</LongitudeDegrees>
            </Position>
            <AltitudeMeters>248.399993896484375</AltitudeMeters>
            <DistanceMeters>29406.34974006</DistanceMeters>
          </Trackpoint>
          <Trackpoint>
            <Time>2019-10-04T10:44:02.000Z</Time>
            <Position>
              <LatitudeDegrees>43.31822267733514308929443359375</LatitudeDegrees>
              <LongitudeDegrees>-5.66987670958042144775390625</LongitudeDegrees>
            </Position>
            <AltitudeMeters>248.399993896484375</AltitudeMeters>
            <DistanceMeters>29428.506864558</DistanceMeters>
          </Trackpoint>
          <Trackpoint>
            <Time>2019-10-04T10:44:04.000Z</Time>
            <Position>
              <LatitudeDegrees>43.31803777255117893218994140625</LatitudeDegrees>
              <LongitudeDegrees>-5.6699590198695659637451171875</LongitudeDegrees>
            </Position>
            <AltitudeMeters>248.1999969482421875</AltitudeMeters>
            <DistanceMeters>29450.139587032</DistanceMeters>
          </Trackpoint>
          <Trackpoint>
            <Time>2019-10-04T10:44:06.000Z</Time>
            <Position>
              <LatitudeDegrees>43.31784331239759922027587890625</LatitudeDegrees>
              <LongitudeDegrees>-5.670013166964054107666015625</LongitudeDegrees>
            </Position>
            <AltitudeMeters>248.399993896484375</AltitudeMeters>
            <DistanceMeters>29472.22302672</DistanceMeters>
          </Trackpoint>
          <Trackpoint>
            <Time>2019-10-04T10:44:10.000Z</Time>
            <Position>
              <LatitudeDegrees>43.317435197532176971435546875</LatitudeDegrees>
              <LongitudeDegrees>-5.67000151611864566802978515625</LongitudeDegrees>
            </Position>
            <AltitudeMeters>248.1999969482421875</AltitudeMeters>
            <DistanceMeters>29517.656728909</DistanceMeters>
          </Trackpoint>
          <Trackpoint>
            <Time>2019-10-04T10:44:13.000Z</Time>
            <Position>
              <LatitudeDegrees>43.3171554096043109893798828125</LatitudeDegrees>
              <LongitudeDegrees>-5.67019664682447910308837890625</LongitudeDegrees>
            </Position>
            <AltitudeMeters>248.1999969482421875</AltitudeMeters>
            <DistanceMeters>29552.577333332</DistanceMeters>
          </Trackpoint>
          <Trackpoint>
            <Time>2019-10-04T10:44:16.000Z</Time>
            <Position>
              <LatitudeDegrees>43.3169280923902988433837890625</LatitudeDegrees>
              <LongitudeDegrees>-5.6704837270081043243408203125</LongitudeDegrees>
            </Position>
            <AltitudeMeters>248.600006103515625</AltitudeMeters>
            <DistanceMeters>29586.937211451</DistanceMeters>
          </Trackpoint>
          <Trackpoint>
            <Time>2019-10-04T10:44:17.000Z</Time>
            <Position>
              <LatitudeDegrees>43.316862545907497406005859375</LatitudeDegrees>
              <LongitudeDegrees>-5.670587830245494842529296875</LongitudeDegrees>
            </Position>
            <AltitudeMeters>248.399993896484375</AltitudeMeters>
            <DistanceMeters>29598.086562657</DistanceMeters>
          </Trackpoint>
          <Trackpoint>
            <Time>2019-10-04T10:44:22.000Z</Time>
            <Position>
              <LatitudeDegrees>43.316579572856426239013671875</LatitudeDegrees>
              <LongitudeDegrees>-5.6711660139262676239013671875</LongitudeDegrees>
            </Position>
            <AltitudeMeters>248.399993896484375</AltitudeMeters>
            <DistanceMeters>29654.515390803</DistanceMeters>
          </Trackpoint>
          <Trackpoint>
            <Time>2019-10-04T10:44:25.000Z</Time>
            <Position>
              <LatitudeDegrees>43.316432051360607147216796875</LatitudeDegrees>
              <LongitudeDegrees>-5.67151176743209362030029296875</LongitudeDegrees>
            </Position>
            <AltitudeMeters>248.399993896484375</AltitudeMeters>
            <DistanceMeters>29686.974073909</DistanceMeters>
          </Trackpoint>
          <Trackpoint>
            <Time>2019-10-04T10:44:27.000Z</Time>
            <Position>
              <LatitudeDegrees>43.31638016737997531890869140625</LatitudeDegrees>
              <LongitudeDegrees>-5.67177236080169677734375</LongitudeDegrees>
            </Position>
            <AltitudeMeters>248</AltitudeMeters>
            <DistanceMeters>29708.852930193</DistanceMeters>
          </Trackpoint>
          <Trackpoint>
            <Time>2019-10-04T10:44:30.000Z</Time>
            <Position>
              <LatitudeDegrees>43.31639952957630157470703125</LatitudeDegrees>
              <LongitudeDegrees>-5.672177039086818695068359375</LongitudeDegrees>
            </Position>
            <AltitudeMeters>248.399993896484375</AltitudeMeters>
            <DistanceMeters>29741.694800584</DistanceMeters>
          </Trackpoint>
          <Trackpoint>
            <Time>2019-10-04T10:44:31.000Z</Time>
            <Position>
              <LatitudeDegrees>43.316397182643413543701171875</LatitudeDegrees>
              <LongitudeDegrees>-5.6723153404891490936279296875</LongitudeDegrees>
            </Position>
            <AltitudeMeters>248.399993896484375</AltitudeMeters>
            <DistanceMeters>29752.897881967</DistanceMeters>
          </Trackpoint>
          <Trackpoint>
            <Time>2019-10-04T10:44:32.000Z</Time>
            <Position>
              <LatitudeDegrees>43.31637731753289699554443359375</LatitudeDegrees>
              <LongitudeDegrees>-5.6724544800817966461181640625</LongitudeDegrees>
            </Position>
            <AltitudeMeters>248.399993896484375</AltitudeMeters>
            <DistanceMeters>29764.380003552</DistanceMeters>
          </Trackpoint>
          <Trackpoint>
            <Time>2019-10-04T10:44:33.000Z</Time>
            <Position>
              <LatitudeDegrees>43.31632845103740692138671875</LatitudeDegrees>
              <LongitudeDegrees>-5.67257995717227458953857421875</LongitudeDegrees>
            </Position>
            <AltitudeMeters>248.1999969482421875</AltitudeMeters>
            <DistanceMeters>29775.90490678</DistanceMeters>
          </Trackpoint>
          <Trackpoint>
            <Time>2019-10-04T10:44:35.000Z</Time>
            <Position>
              <LatitudeDegrees>43.31617145799100399017333984375</LatitudeDegrees>
              <LongitudeDegrees>-5.672755055129528045654296875</LongitudeDegrees>
            </Position>
            <AltitudeMeters>247.399993896484375</AltitudeMeters>
            <DistanceMeters>29798.407786523</DistanceMeters>
          </Trackpoint>
          <Trackpoint>
            <Time>2019-10-04T10:44:36.000Z</Time>
            <Position>
              <LatitudeDegrees>43.31607523374259471893310546875</LatitudeDegrees>
              <LongitudeDegrees>-5.67280610091984272003173828125</LongitudeDegrees>
            </Position>
            <AltitudeMeters>247.1999969482421875</AltitudeMeters>
            <DistanceMeters>29809.887941823</DistanceMeters>
          </Trackpoint>
          <Trackpoint>
            <Time>2019-10-04T10:44:38.000Z</Time>
            <Position>
              <LatitudeDegrees>43.3158806897699832916259765625</LatitudeDegrees>
              <LongitudeDegrees>-5.67287114448845386505126953125</LongitudeDegrees>
            </Position>
            <AltitudeMeters>246.8000030517578125</AltitudeMeters>
            <DistanceMeters>29832.172466138</DistanceMeters>
          </Trackpoint>
          <Trackpoint>
            <Time>2019-10-04T10:44:40.000Z</Time>
            <Position>
              <LatitudeDegrees>43.3156842179596424102783203125</LatitudeDegrees>
              <LongitudeDegrees>-5.67289888858795166015625</LongitudeDegrees>
            </Position>
            <AltitudeMeters>245.600006103515625</AltitudeMeters>
            <DistanceMeters>29854.155289908</DistanceMeters>
          </Trackpoint>
          <Trackpoint>
            <Time>2019-10-04T10:44:43.000Z</Time>
            <Position>
              <LatitudeDegrees>43.3153861574828624725341796875</LatitudeDegrees>
              <LongitudeDegrees>-5.67292847670614719390869140625</LongitudeDegrees>
            </Position>
            <AltitudeMeters>245.1999969482421875</AltitudeMeters>
            <DistanceMeters>29887.416540418</DistanceMeters>
          </Trackpoint>
          <Trackpoint>
            <Time>2019-10-04T10:44:45.000Z</Time>
            <Position>
              <LatitudeDegrees>43.31519664265215396881103515625</LatitudeDegrees>
              <LongitudeDegrees>-5.67295747809112071990966796875</LongitudeDegrees>
            </Position>
            <AltitudeMeters>244.8000030517578125</AltitudeMeters>
            <DistanceMeters>29908.640284273</DistanceMeters>
          </Trackpoint>
          <Trackpoint>
            <Time>2019-10-04T10:44:46.000Z</Time>
            <Position>
              <LatitudeDegrees>43.31510561518371105194091796875</LatitudeDegrees>
              <LongitudeDegrees>-5.67299234680831432342529296875</LongitudeDegrees>
            </Position>
            <AltitudeMeters>244.600006103515625</AltitudeMeters>
            <DistanceMeters>29919.157814232</DistanceMeters>
          </Trackpoint>
          <Trackpoint>
            <Time>2019-10-04T10:44:48.000Z</Time>
            <Position>
              <LatitudeDegrees>43.314932696521282196044921875</LatitudeDegrees>
              <LongitudeDegrees>-5.6731143034994602203369140625</LongitudeDegrees>
            </Position>
            <AltitudeMeters>244.600006103515625</AltitudeMeters>
            <DistanceMeters>29940.790119275</DistanceMeters>
          </Trackpoint>
          <Trackpoint>
            <Time>2019-10-04T10:44:51.000Z</Time>
            <Position>
              <LatitudeDegrees>43.314711414277553558349609375</LatitudeDegrees>
              <LongitudeDegrees>-5.67337824963033199310302734375</LongitudeDegrees>
            </Position>
            <AltitudeMeters>244.600006103515625</AltitudeMeters>
            <DistanceMeters>29973.401316171</DistanceMeters>
          </Trackpoint>
          <Trackpoint>
            <Time>2019-10-04T10:44:52.000Z</Time>
            <Position>
              <LatitudeDegrees>43.31464544869959354400634765625</LatitudeDegrees>
              <LongitudeDegrees>-5.67347816191613674163818359375</LongitudeDegrees>
            </Position>
            <AltitudeMeters>244.8000030517578125</AltitudeMeters>
            <DistanceMeters>29984.326909085</DistanceMeters>
          </Trackpoint>
          <Trackpoint>
            <Time>2019-10-04T10:44:55.000Z</Time>
            <Position>
              <LatitudeDegrees>43.31446138210594654083251953125</LatitudeDegrees>
              <LongitudeDegrees>-5.67379784770309925079345703125</LongitudeDegrees>
            </Position>
            <AltitudeMeters>244.8000030517578125</AltitudeMeters>
            <DistanceMeters>30017.341547461</DistanceMeters>
          </Trackpoint>
          <Trackpoint>
            <Time>2019-10-04T10:44:57.000Z</Time>
            <Position>
              <LatitudeDegrees>43.31434655003249645233154296875</LatitudeDegrees>
              <LongitudeDegrees>-5.67402281798422336578369140625</LongitudeDegrees>
            </Position>
            <AltitudeMeters>244.8000030517578125</AltitudeMeters>
            <DistanceMeters>30039.596877001</DistanceMeters>
          </Trackpoint>
          <Trackpoint>
            <Time>2019-10-04T10:44:58.000Z</Time>
            <Position>
              <LatitudeDegrees>43.31430070102214813232421875</LatitudeDegrees>
              <LongitudeDegrees>-5.67414502613246440887451171875</LongitudeDegrees>
            </Position>
            <AltitudeMeters>244.8000030517578125</AltitudeMeters>
            <DistanceMeters>30050.732451065</DistanceMeters>
          </Trackpoint>
          <Trackpoint>
            <Time>2019-10-04T10:45:00.000Z</Time>
            <Position>
              <LatitudeDegrees>43.31424747593700885772705078125</LatitudeDegrees>
              <LongitudeDegrees>-5.67441659979522228240966796875</LongitudeDegrees>
            </Position>
            <AltitudeMeters>244.8000030517578125</AltitudeMeters>
            <DistanceMeters>30073.509543764</DistanceMeters>
          </Trackpoint>
          <Trackpoint>
            <Time>2019-10-04T10:45:01.000Z</Time>
            <Position>
              <LatitudeDegrees>43.31423875875771045684814453125</LatitudeDegrees>
              <LongitudeDegrees>-5.6745569966733455657958984375</LongitudeDegrees>
            </Position>
            <AltitudeMeters>245</AltitudeMeters>
            <DistanceMeters>30084.921061297</DistanceMeters>
          </Trackpoint>
          <Trackpoint>
            <Time>2019-10-04T10:45:04.000Z</Time>
            <Position>
              <LatitudeDegrees>43.3142643235623836517333984375</LatitudeDegrees>
              <LongitudeDegrees>-5.67498053424060344696044921875</LongitudeDegrees>
            </Position>
            <AltitudeMeters>244</AltitudeMeters>
            <DistanceMeters>30119.338577592</DistanceMeters>
          </Trackpoint>
          <Trackpoint>
            <Time>2019-10-04T10:45:05.000Z</Time>
            <Position>
              <LatitudeDegrees>43.3142750523984432220458984375</LatitudeDegrees>
              <LongitudeDegrees>-5.67512386478483676910400390625</LongitudeDegrees>
            </Position>
            <AltitudeMeters>243.600006103515625</AltitudeMeters>
            <DistanceMeters>30131.007146169</DistanceMeters>
          </Trackpoint>
          <Trackpoint>
            <Time>2019-10-04T10:45:07.000Z</Time>
            <Position>
              <LatitudeDegrees>43.31428402103483676910400390625</LatitudeDegrees>
              <LongitudeDegrees>-5.67540742456912994384765625</LongitudeDegrees>
            </Position>
            <AltitudeMeters>243.1999969482421875</AltitudeMeters>
            <DistanceMeters>30153.992417159</DistanceMeters>
          </Trackpoint>
          <Trackpoint>
            <Time>2019-10-04T10:45:10.000Z</Time>
            <Position>
              <LatitudeDegrees>43.31426407210528850555419921875</LatitudeDegrees>
              <LongitudeDegrees>-5.67581671290099620819091796875</LongitudeDegrees>
            </Position>
            <AltitudeMeters>242.600006103515625</AltitudeMeters>
            <DistanceMeters>30187.212375651</DistanceMeters>
          </Trackpoint>
          <Trackpoint>
            <Time>2019-10-04T10:45:12.000Z</Time>
            <Position>
              <LatitudeDegrees>43.31421227194368839263916015625</LatitudeDegrees>
              <LongitudeDegrees>-5.67608107812702655792236328125</LongitudeDegrees>
            </Position>
            <AltitudeMeters>242</AltitudeMeters>
            <DistanceMeters>30209.384370636</DistanceMeters>
          </Trackpoint>
          <Trackpoint>
            <Time>2019-10-04T10:45:14.000Z</Time>
            <Position>
              <LatitudeDegrees>43.31410984508693218231201171875</LatitudeDegrees>
              <LongitudeDegrees>-5.6763155199587345123291015625</LongitudeDegrees>
            </Position>
            <AltitudeMeters>241.1999969482421875</AltitudeMeters>
            <DistanceMeters>30231.52987699</DistanceMeters>
          </Trackpoint>
          <Trackpoint>
            <Time>2019-10-04T10:45:15.000Z</Time>
            <Position>
              <LatitudeDegrees>43.31403474323451519012451171875</LatitudeDegrees>
              <LongitudeDegrees>-5.6764070503413677215576171875</LongitudeDegrees>
            </Position>
            <AltitudeMeters>240.600006103515625</AltitudeMeters>
            <DistanceMeters>30242.701478779</DistanceMeters>
          </Trackpoint>
          <Trackpoint>
            <Time>2019-10-04T10:45:17.000Z</Time>
            <Position>
              <LatitudeDegrees>43.31386559642851352691650390625</LatitudeDegrees>
              <LongitudeDegrees>-5.6765606068074703216552734375</LongitudeDegrees>
            </Position>
            <AltitudeMeters>240.399993896484375</AltitudeMeters>
            <DistanceMeters>30265.264270929</DistanceMeters>
          </Trackpoint>
          <Trackpoint>
            <Time>2019-10-04T10:45:22.000Z</Time>
            <Position>
              <LatitudeDegrees>43.3134908415377140045166015625</LatitudeDegrees>
              <LongitudeDegrees>-5.677013061940670013427734375</LongitudeDegrees>
            </Position>
            <AltitudeMeters>238</AltitudeMeters>
            <DistanceMeters>30320.783867688</DistanceMeters>
          </Trackpoint>
          <Trackpoint>
            <Time>2019-10-04T10:45:25.000Z</Time>
            <Position>
              <LatitudeDegrees>43.31329830922186374664306640625</LatitudeDegrees>
              <LongitudeDegrees>-5.67732746712863445281982421875</LongitudeDegrees>
            </Position>
            <AltitudeMeters>238.600006103515625</AltitudeMeters>
            <DistanceMeters>30354.063303015</DistanceMeters>
          </Trackpoint>
          <Trackpoint>
            <Time>2019-10-04T10:45:28.000Z</Time>
            <Position>
              <LatitudeDegrees>43.31309647299349308013916015625</LatitudeDegrees>
              <LongitudeDegrees>-5.677637346088886260986328125</LongitudeDegrees>
            </Position>
            <AltitudeMeters>236.399993896484375</AltitudeMeters>
            <DistanceMeters>30387.744878151</DistanceMeters>
          </Trackpoint>
          <Trackpoint>
            <Time>2019-10-04T10:45:29.000Z</Time>
            <Position>
              <LatitudeDegrees>43.31301650963723659515380859375</LatitudeDegrees>
              <LongitudeDegrees>-5.67773080430924892425537109375</LongitudeDegrees>
            </Position>
            <AltitudeMeters>236.399993896484375</AltitudeMeters>
            <DistanceMeters>30399.428141202</DistanceMeters>
          </Trackpoint>
          <Trackpoint>
            <Time>2019-10-04T10:45:31.000Z</Time>
            <Position>
              <LatitudeDegrees>43.31285222433507442474365234375</LatitudeDegrees>
              <LongitudeDegrees>-5.6779043935239315032958984375</LongitudeDegrees>
            </Position>
            <AltitudeMeters>236.8000030517578125</AltitudeMeters>
            <DistanceMeters>30422.492829873</DistanceMeters>
          </Trackpoint>
          <Trackpoint>
            <Time>2019-10-04T10:45:32.000Z</Time>
            <Position>
              <LatitudeDegrees>43.312767483294010162353515625</LatitudeDegrees>
              <LongitudeDegrees>-5.67798762582242488861083984375</LongitudeDegrees>
            </Position>
            <AltitudeMeters>235.399993896484375</AltitudeMeters>
            <DistanceMeters>30434.086089026</DistanceMeters>
          </Trackpoint>
          <Trackpoint>
            <Time>2019-10-04T10:45:33.000Z</Time>
            <Position>
              <LatitudeDegrees>43.31268073059618473052978515625</LatitudeDegrees>
              <LongitudeDegrees>-5.67806683480739593505859375</LongitudeDegrees>
            </Position>
            <AltitudeMeters>235.1999969482421875</AltitudeMeters>
            <DistanceMeters>30445.678569246</DistanceMeters>
          </Trackpoint>
          <Trackpoint>
            <Time>2019-10-04T10:45:35.000Z</Time>
            <Position>
              <LatitudeDegrees>43.31250521354377269744873046875</LatitudeDegrees>
              <LongitudeDegrees>-5.678218714892864227294921875</LongitudeDegrees>
            </Position>
            <AltitudeMeters>235.399993896484375</AltitudeMeters>
            <DistanceMeters>30468.763607505</DistanceMeters>
          </Trackpoint>
          <Trackpoint>
            <Time>2019-10-04T10:45:38.000Z</Time>
            <Position>
              <LatitudeDegrees>43.31224151886999607086181640625</LatitudeDegrees>
              <LongitudeDegrees>-5.67845080979168415069580078125</LongitudeDegrees>
            </Position>
            <AltitudeMeters>234.1999969482421875</AltitudeMeters>
            <DistanceMeters>30503.616266271</DistanceMeters>
          </Trackpoint>
          <Trackpoint>
            <Time>2019-10-04T10:45:40.000Z</Time>
            <Position>
              <LatitudeDegrees>43.31206834875047206878662109375</LatitudeDegrees>
              <LongitudeDegrees>-5.6786148436367511749267578125</LongitudeDegrees>
            </Position>
            <AltitudeMeters>233.600006103515625</AltitudeMeters>
            <DistanceMeters>30527.025070787</DistanceMeters>
          </Trackpoint>
          <Trackpoint>
            <Time>2019-10-04T10:45:42.000Z</Time>
            <Position>
              <LatitudeDegrees>43.3119073323905467987060546875</LatitudeDegrees>
              <LongitudeDegrees>-5.67877049557864665985107421875</LongitudeDegrees>
            </Position>
            <AltitudeMeters>233</AltitudeMeters>
            <DistanceMeters>30548.935890355</DistanceMeters>
          </Trackpoint>
          <Trackpoint>
            <Time>2019-10-04T10:45:44.000Z</Time>
            <Position>
              <LatitudeDegrees>43.31176375038921833038330078125</LatitudeDegrees>
              <LongitudeDegrees>-5.67893855273723602294921875</LongitudeDegrees>
            </Position>
            <AltitudeMeters>232.399993896484375</AltitudeMeters>
            <DistanceMeters>30569.927117335</DistanceMeters>
          </Trackpoint>
          <Trackpoint>
            <Time>2019-10-04T10:45:46.000Z</Time>
            <Position>
              <LatitudeDegrees>43.31167356111109256744384765625</LatitudeDegrees>
              <LongitudeDegrees>-5.67915522493422031402587890625</LongitudeDegrees>
            </Position>
            <AltitudeMeters>231.8000030517578125</AltitudeMeters>
            <DistanceMeters>30590.143031851</DistanceMeters>
          </Trackpoint>
          <Trackpoint>
            <Time>2019-10-04T10:45:47.000Z</Time>
            <Position>
              <LatitudeDegrees>43.3116585575044155120849609375</LatitudeDegrees>
              <LongitudeDegrees>-5.6792857311666011810302734375</LongitudeDegrees>
            </Position>
            <AltitudeMeters>231.8000030517578125</AltitudeMeters>
            <DistanceMeters>30600.84314116</DistanceMeters>
          </Trackpoint>
          <Trackpoint>
            <Time>2019-10-04T10:45:50.000Z</Time>
            <Position>
              <LatitudeDegrees>43.31170105375349521636962890625</LatitudeDegrees>
              <LongitudeDegrees>-5.679673142731189727783203125</LongitudeDegrees>
            </Position>
            <AltitudeMeters>231.1999969482421875</AltitudeMeters>
            <DistanceMeters>30632.572958098</DistanceMeters>
          </Trackpoint>
          <Trackpoint>
            <Time>2019-10-04T10:45:52.000Z</Time>
            <Position>
              <LatitudeDegrees>43.31171848811209201812744140625</LatitudeDegrees>
              <LongitudeDegrees>-5.679941363632678985595703125</LongitudeDegrees>
            </Position>
            <AltitudeMeters>230.8000030517578125</AltitudeMeters>
            <DistanceMeters>30654.382158371</DistanceMeters>
          </Trackpoint>
          <Trackpoint>
            <Time>2019-10-04T10:45:53.000Z</Time>
            <Position>
              <LatitudeDegrees>43.31170910038053989410400390625</LatitudeDegrees>
              <LongitudeDegrees>-5.68007790483534336090087890625</LongitudeDegrees>
            </Position>
            <AltitudeMeters>230.600006103515625</AltitudeMeters>
            <DistanceMeters>30665.490126886</DistanceMeters>
          </Trackpoint>
          <Trackpoint>
            <Time>2019-10-04T10:45:54.000Z</Time>
            <Position>
              <LatitudeDegrees>43.31168680451810359954833984375</LatitudeDegrees>
              <LongitudeDegrees>-5.680216290056705474853515625</LongitudeDegrees>
            </Position>
            <AltitudeMeters>230.600006103515625</AltitudeMeters>
            <DistanceMeters>30676.969102252</DistanceMeters>
          </Trackpoint>
          <Trackpoint>
            <Time>2019-10-04T10:45:56.000Z</Time>
            <Position>
              <LatitudeDegrees>43.31162008456885814666748046875</LatitudeDegrees>
              <LongitudeDegrees>-5.68048082292079925537109375</LongitudeDegrees>
            </Position>
            <AltitudeMeters>230.600006103515625</AltitudeMeters>
            <DistanceMeters>30699.643479914</DistanceMeters>
          </Trackpoint>
          <Trackpoint>
            <Time>2019-10-04T10:45:58.000Z</Time>
            <Position>
              <LatitudeDegrees>43.3115489222109317779541015625</LatitudeDegrees>
              <LongitudeDegrees>-5.6807468645274639129638671875</LongitudeDegrees>
            </Position>
            <AltitudeMeters>230.600006103515625</AltitudeMeters>
            <DistanceMeters>30722.599070539</DistanceMeters>
          </Trackpoint>
          <Trackpoint>
            <Time>2019-10-04T10:46:04.000Z</Time>
            <Position>
              <LatitudeDegrees>43.3113973774015903472900390625</LatitudeDegrees>
              <LongitudeDegrees>-5.6815744936466217041015625</LongitudeDegrees>
            </Position>
            <AltitudeMeters>231.1999969482421875</AltitudeMeters>
            <DistanceMeters>30791.716227173</DistanceMeters>
          </Trackpoint>
          <Trackpoint>
            <Time>2019-10-04T10:46:07.000Z</Time>
            <Position>
              <LatitudeDegrees>43.3113289810717105865478515625</LatitudeDegrees>
              <LongitudeDegrees>-5.68199467845261096954345703125</LongitudeDegrees>
            </Position>
            <AltitudeMeters>231</AltitudeMeters>
            <DistanceMeters>30826.587017727</DistanceMeters>
          </Trackpoint>
          <Trackpoint>
            <Time>2019-10-04T10:46:10.000Z</Time>
            <Position>
              <LatitudeDegrees>43.31124424003064632415771484375</LatitudeDegrees>
              <LongitudeDegrees>-5.68241628818213939666748046875</LongitudeDegrees>
            </Position>
            <AltitudeMeters>230.399993896484375</AltitudeMeters>
            <DistanceMeters>30862.010957978</DistanceMeters>
          </Trackpoint>
          <Trackpoint>
            <Time>2019-10-04T10:46:11.000Z</Time>
            <Position>
              <LatitudeDegrees>43.3112143166363239288330078125</LatitudeDegrees>
              <LongitudeDegrees>-5.68255375139415264129638671875</LongitudeDegrees>
            </Position>
            <AltitudeMeters>230</AltitudeMeters>
            <DistanceMeters>30873.631446916</DistanceMeters>
          </Trackpoint>
          <Trackpoint>
            <Time>2019-10-04T10:46:12.000Z</Time>
            <Position>
              <LatitudeDegrees>43.3111828006803989410400390625</LatitudeDegrees>
              <LongitudeDegrees>-5.68268920294940471649169921875</LongitudeDegrees>
            </Position>
            <AltitudeMeters>229.1999969482421875</AltitudeMeters>
            <DistanceMeters>30885.148512205</DistanceMeters>
          </Trackpoint>
          <Trackpoint>
            <Time>2019-10-04T10:46:17.000Z</Time>
            <Position>
              <LatitudeDegrees>43.3110413141548633575439453125</LatitudeDegrees>
              <LongitudeDegrees>-5.683378614485263824462890625</LongitudeDegrees>
            </Position>
            <AltitudeMeters>227.399993896484375</AltitudeMeters>
            <DistanceMeters>30943.160745311</DistanceMeters>
          </Trackpoint>
          <Trackpoint>
            <Time>2019-10-04T10:46:19.000Z</Time>
            <Position>
              <LatitudeDegrees>43.31098205409944057464599609375</LatitudeDegrees>
              <LongitudeDegrees>-5.68365253508090972900390625</LongitudeDegrees>
            </Position>
            <AltitudeMeters>227.1999969482421875</AltitudeMeters>
            <DistanceMeters>30966.304579143</DistanceMeters>
          </Trackpoint>
          <Trackpoint>
            <Time>2019-10-04T10:46:23.000Z</Time>
            <Position>
              <LatitudeDegrees>43.3108787052333354949951171875</LatitudeDegrees>
              <LongitudeDegrees>-5.6842030584812164306640625</LongitudeDegrees>
            </Position>
            <AltitudeMeters>226.1999969482421875</AltitudeMeters>
            <DistanceMeters>31012.350293043</DistanceMeters>
          </Trackpoint>
          <Trackpoint>
            <Time>2019-10-04T10:46:26.000Z</Time>
            <Position>
              <LatitudeDegrees>43.31080804578959941864013671875</LatitudeDegrees>
              <LongitudeDegrees>-5.6845934875309467315673828125</LongitudeDegrees>
            </Position>
            <AltitudeMeters>225.1999969482421875</AltitudeMeters>
            <DistanceMeters>31044.933649494</DistanceMeters>
          </Trackpoint>
          <Trackpoint>
            <Time>2019-10-04T10:46:27.000Z</Time>
            <Position>
              <LatitudeDegrees>43.310786671936511993408203125</LatitudeDegrees>
              <LongitudeDegrees>-5.68472315557301044464111328125</LongitudeDegrees>
            </Position>
            <AltitudeMeters>225</AltitudeMeters>
            <DistanceMeters>31055.701480359</DistanceMeters>
          </Trackpoint>
          <Trackpoint>
            <Time>2019-10-04T10:46:29.000Z</Time>
            <Position>
              <LatitudeDegrees>43.3107529766857624053955078125</LatitudeDegrees>
              <LongitudeDegrees>-5.6849889457225799560546875</LongitudeDegrees>
            </Position>
            <AltitudeMeters>224.399993896484375</AltitudeMeters>
            <DistanceMeters>31077.551426391</DistanceMeters>
          </Trackpoint>
          <Trackpoint>
            <Time>2019-10-04T10:46:31.000Z</Time>
            <Position>
              <LatitudeDegrees>43.3107409067451953887939453125</LatitudeDegrees>
              <LongitudeDegrees>-5.68525917828083038330078125</LongitudeDegrees>
            </Position>
            <AltitudeMeters>223.8000030517578125</AltitudeMeters>
            <DistanceMeters>31099.478107171</DistanceMeters>
          </Trackpoint>
          <Trackpoint>
            <Time>2019-10-04T10:46:32.000Z</Time>
            <Position>
              <LatitudeDegrees>43.31074032001197338104248046875</LatitudeDegrees>
              <LongitudeDegrees>-5.68539655767381191253662109375</LongitudeDegrees>
            </Position>
            <AltitudeMeters>223.600006103515625</AltitudeMeters>
            <DistanceMeters>31110.604757522</DistanceMeters>
          </Trackpoint>
          <Trackpoint>
            <Time>2019-10-04T10:46:37.000Z</Time>
            <Position>
              <LatitudeDegrees>43.31073260866105556488037109375</LatitudeDegrees>
              <LongitudeDegrees>-5.68609057925641536712646484375</LongitudeDegrees>
            </Position>
            <AltitudeMeters>223.1999969482421875</AltitudeMeters>
            <DistanceMeters>31166.81890255</DistanceMeters>
          </Trackpoint>
          <Trackpoint>
            <Time>2019-10-04T10:46:39.000Z</Time>
            <Position>
              <LatitudeDegrees>43.31074065528810024261474609375</LatitudeDegrees>
              <LongitudeDegrees>-5.68636751733720302581787109375</LongitudeDegrees>
            </Position>
            <AltitudeMeters>223</AltitudeMeters>
            <DistanceMeters>31189.265733182</DistanceMeters>
          </Trackpoint>
          <Trackpoint>
            <Time>2019-10-04T10:46:41.000Z</Time>
            <Position>
              <LatitudeDegrees>43.3107536472380161285400390625</LatitudeDegrees>
              <LongitudeDegrees>-5.686652250587940216064453125</LongitudeDegrees>
            </Position>
            <AltitudeMeters>223</AltitudeMeters>
            <DistanceMeters>31212.371103107</DistanceMeters>
          </Trackpoint>
          <Trackpoint>
            <Time>2019-10-04T10:46:43.000Z</Time>
            <Position>
              <LatitudeDegrees>43.31076378934085369110107421875</LatitudeDegrees>
              <LongitudeDegrees>-5.68693262524902820587158203125</LongitudeDegrees>
            </Position>
            <AltitudeMeters>222.8000030517578125</AltitudeMeters>
            <DistanceMeters>31235.106331404</DistanceMeters>
          </Trackpoint>
          <Trackpoint>
            <Time>2019-10-04T10:46:44.000Z</Time>
            <Position>
              <LatitudeDegrees>43.31076554954051971435546875</LatitudeDegrees>
              <LongitudeDegrees>-5.68705852143466472625732421875</LongitudeDegrees>
            </Position>
            <AltitudeMeters>223</AltitudeMeters>
            <DistanceMeters>31245.304783271</DistanceMeters>
          </Trackpoint>
          <Trackpoint>
            <Time>2019-10-04T10:46:45.000Z</Time>
            <Position>
              <LatitudeDegrees>43.31076278351247310638427734375</LatitudeDegrees>
              <LongitudeDegrees>-5.6871838308870792388916015625</LongitudeDegrees>
            </Position>
            <AltitudeMeters>222.8000030517578125</AltitudeMeters>
            <DistanceMeters>31255.457977482</DistanceMeters>
          </Trackpoint>
          <Trackpoint>
            <Time>2019-10-04T10:46:47.000Z</Time>
            <Position>
              <LatitudeDegrees>43.31073311157524585723876953125</LatitudeDegrees>
              <LongitudeDegrees>-5.687417685985565185546875</LongitudeDegrees>
            </Position>
            <AltitudeMeters>223</AltitudeMeters>
            <DistanceMeters>31274.683222836</DistanceMeters>
          </Trackpoint>
          <Trackpoint>
            <Time>2019-10-04T10:46:49.000Z</Time>
            <Position>
              <LatitudeDegrees>43.31069338135421276092529296875</LatitudeDegrees>
              <LongitudeDegrees>-5.6876455061137676239013671875</LongitudeDegrees>
            </Position>
            <AltitudeMeters>223</AltitudeMeters>
            <DistanceMeters>31293.656705055</DistanceMeters>
          </Trackpoint>
          <Trackpoint>
            <Time>2019-10-04T10:46:51.000Z</Time>
            <Position>
              <LatitudeDegrees>43.31064007245004177093505859375</LatitudeDegrees>
              <LongitudeDegrees>-5.68787164986133575439453125</LongitudeDegrees>
            </Position>
            <AltitudeMeters>223</AltitudeMeters>
            <DistanceMeters>31312.908939152</DistanceMeters>
          </Trackpoint>
          <Trackpoint>
            <Time>2019-10-04T10:46:52.000Z</Time>
            <Position>
              <LatitudeDegrees>43.3106064610183238983154296875</LatitudeDegrees>
              <LongitudeDegrees>-5.68797935731709003448486328125</LongitudeDegrees>
            </Position>
            <AltitudeMeters>222.600006103515625</AltitudeMeters>
            <DistanceMeters>31322.399724816</DistanceMeters>
          </Trackpoint>
          <Trackpoint>
            <Time>2019-10-04T10:46:54.000Z</Time>
            <Position>
              <LatitudeDegrees>43.3105422556400299072265625</LatitudeDegrees>
              <LongitudeDegrees>-5.68819007836282253265380859375</LongitudeDegrees>
            </Position>
            <AltitudeMeters>223</AltitudeMeters>
            <DistanceMeters>31340.901404141</DistanceMeters>
          </Trackpoint>
          <Trackpoint>
            <Time>2019-10-04T10:46:57.000Z</Time>
            <Position>
              <LatitudeDegrees>43.3104485459625720977783203125</LatitudeDegrees>
              <LongitudeDegrees>-5.68845042027533054351806640625</LongitudeDegrees>
            </Position>
            <AltitudeMeters>223.399993896484375</AltitudeMeters>
            <DistanceMeters>31364.425074869</DistanceMeters>
          </Trackpoint>
          <Trackpoint>
            <Time>2019-10-04T10:46:58.000Z</Time>
            <Position>
              <LatitudeDegrees>43.31039381213486194610595703125</LatitudeDegrees>
              <LongitudeDegrees>-5.68850993178784847259521484375</LongitudeDegrees>
            </Position>
            <AltitudeMeters>223.399993896484375</AltitudeMeters>
            <DistanceMeters>31372.192891215</DistanceMeters>
          </Trackpoint>
          <Trackpoint>
            <Time>2019-10-04T10:47:02.000Z</Time>
            <Position>
              <LatitudeDegrees>43.3101699315011501312255859375</LatitudeDegrees>
              <LongitudeDegrees>-5.68872719071805477142333984375</LongitudeDegrees>
            </Position>
            <AltitudeMeters>223.399993896484375</AltitudeMeters>
            <DistanceMeters>31402.697502627</DistanceMeters>
          </Trackpoint>
          <Trackpoint>
            <Time>2019-10-04T10:47:03.000Z</Time>
            <Position>
              <LatitudeDegrees>43.31010513938963413238525390625</LatitudeDegrees>
              <LongitudeDegrees>-5.68875535391271114349365234375</LongitudeDegrees>
            </Position>
            <AltitudeMeters>223.8000030517578125</AltitudeMeters>
            <DistanceMeters>31410.261533586</DistanceMeters>
          </Trackpoint>
          <Trackpoint>
            <Time>2019-10-04T10:47:05.000Z</Time>
            <Position>
              <LatitudeDegrees>43.30997153185307979583740234375</LatitudeDegrees>
              <LongitudeDegrees>-5.68875485099852085113525390625</LongitudeDegrees>
            </Position>
            <AltitudeMeters>223.8000030517578125</AltitudeMeters>
            <DistanceMeters>31425.13253127</DistanceMeters>
          </Trackpoint>
          <Trackpoint>
            <Time>2019-10-04T10:47:06.000Z</Time>
            <Position>
              <LatitudeDegrees>43.309905230998992919921875</LatitudeDegrees>
              <LongitudeDegrees>-5.68875485099852085113525390625</LongitudeDegrees>
            </Position>
            <AltitudeMeters>223.399993896484375</AltitudeMeters>
            <DistanceMeters>31432.511647813</DistanceMeters>
          </Trackpoint>
          <Trackpoint>
            <Time>2019-10-04T10:47:08.000Z</Time>
            <Position>
              <LatitudeDegrees>43.30977170728147029876708984375</LatitudeDegrees>
              <LongitudeDegrees>-5.6887545995414257049560546875</LongitudeDegrees>
            </Position>
            <AltitudeMeters>223.8000030517578125</AltitudeMeters>
            <DistanceMeters>31447.372926684</DistanceMeters>
          </Trackpoint>
          <Trackpoint>
            <Time>2019-10-04T10:47:10.000Z</Time>
            <Position>
              <LatitudeDegrees>43.30963877029716968536376953125</LatitudeDegrees>
              <LongitudeDegrees>-5.688761137425899505615234375</LongitudeDegrees>
            </Position>
            <AltitudeMeters>224</AltitudeMeters>
            <DistanceMeters>31462.178503528</DistanceMeters>
          </Trackpoint>
          <Trackpoint>
            <Time>2019-10-04T10:47:11.000Z</Time>
            <Position>
              <LatitudeDegrees>43.30957288853824138641357421875</LatitudeDegrees>
              <LongitudeDegrees>-5.6887653283774852752685546875</LongitudeDegrees>
            </Position>
            <AltitudeMeters>223.8000030517578125</AltitudeMeters>
            <DistanceMeters>31469.519586296</DistanceMeters>
          </Trackpoint>
          <Trackpoint>
            <Time>2019-10-04T10:47:15.000Z</Time>
            <Position>
              <LatitudeDegrees>43.30930508673191070556640625</LatitudeDegrees>
              <LongitudeDegrees>-5.68876842968165874481201171875</LongitudeDegrees>
            </Position>
            <AltitudeMeters>224.1999969482421875</AltitudeMeters>
            <DistanceMeters>31499.327393019</DistanceMeters>
          </Trackpoint>
          <Trackpoint>
            <Time>2019-10-04T10:47:17.000Z</Time>
            <Position>
              <LatitudeDegrees>43.309169299900531768798828125</LatitudeDegrees>
              <LongitudeDegrees>-5.688769184052944183349609375</LongitudeDegrees>
            </Position>
            <AltitudeMeters>224.1999969482421875</AltitudeMeters>
            <DistanceMeters>31514.441122332</DistanceMeters>
          </Trackpoint>
          <Trackpoint>
            <Time>2019-10-04T10:47:19.000Z</Time>
            <Position>
              <LatitudeDegrees>43.3090423978865146636962890625</LatitudeDegrees>
              <LongitudeDegrees>-5.6887680105865001678466796875</LongitudeDegrees>
            </Position>
            <AltitudeMeters>224.8000030517578125</AltitudeMeters>
            <DistanceMeters>31528.565941231</DistanceMeters>
          </Trackpoint>
          <Trackpoint>
            <Time>2019-10-04T10:47:21.000Z</Time>
            <Position>
              <LatitudeDegrees>43.308943994343280792236328125</LatitudeDegrees>
              <LongitudeDegrees>-5.68878469057381153106689453125</LongitudeDegrees>
            </Position>
            <AltitudeMeters>224.8000030517578125</AltitudeMeters>
            <DistanceMeters>31539.601321194</DistanceMeters>
          </Trackpoint>
          <Trackpoint>
            <Time>2019-10-04T10:47:23.000Z</Time>
            <Position>
              <LatitudeDegrees>43.30884483642876148223876953125</LatitudeDegrees>
              <LongitudeDegrees>-5.68881402723491191864013671875</LongitudeDegrees>
            </Position>
            <AltitudeMeters>224.600006103515625</AltitudeMeters>
            <DistanceMeters>31550.890318885</DistanceMeters>
          </Trackpoint>
          <Trackpoint>
            <Time>2019-10-04T10:47:25.000Z</Time>
            <Position>
              <LatitudeDegrees>43.30873486585915088653564453125</LatitudeDegrees>
              <LongitudeDegrees>-5.6888367421925067901611328125</LongitudeDegrees>
            </Position>
            <AltitudeMeters>224.8000030517578125</AltitudeMeters>
            <DistanceMeters>31563.267525632</DistanceMeters>
          </Trackpoint>
          <Trackpoint>
            <Time>2019-10-04T10:47:28.000Z</Time>
            <Position>
              <LatitudeDegrees>43.30856387503445148468017578125</LatitudeDegrees>
              <LongitudeDegrees>-5.68886850960552692413330078125</LongitudeDegrees>
            </Position>
            <AltitudeMeters>224.600006103515625</AltitudeMeters>
            <DistanceMeters>31582.472093115</DistanceMeters>
          </Trackpoint>
          <Trackpoint>
            <Time>2019-10-04T10:47:30.000Z</Time>
            <Position>
              <LatitudeDegrees>43.308447115123271942138671875</LatitudeDegrees>
              <LongitudeDegrees>-5.688898265361785888671875</LongitudeDegrees>
            </Position>
            <AltitudeMeters>224.399993896484375</AltitudeMeters>
            <DistanceMeters>31595.689349218</DistanceMeters>
          </Trackpoint>
          <Trackpoint>
            <Time>2019-10-04T10:47:34.000Z</Time>
            <Position>
              <LatitudeDegrees>43.3082109130918979644775390625</LatitudeDegrees>
              <LongitudeDegrees>-5.6889586150646209716796875</LongitudeDegrees>
            </Position>
            <AltitudeMeters>224.399993896484375</AltitudeMeters>
            <DistanceMeters>31622.429535701</DistanceMeters>
          </Trackpoint>
          <Trackpoint>
            <Time>2019-10-04T10:47:36.000Z</Time>
            <Position>
              <LatitudeDegrees>43.30809750594198703765869140625</LatitudeDegrees>
              <LongitudeDegrees>-5.68897143937647342681884765625</LongitudeDegrees>
            </Position>
            <AltitudeMeters>224.399993896484375</AltitudeMeters>
            <DistanceMeters>31635.094853618</DistanceMeters>
          </Trackpoint>
          <Trackpoint>
            <Time>2019-10-04T10:47:39.000Z</Time>
            <Position>
              <LatitudeDegrees>43.30792567692697048187255859375</LatitudeDegrees>
              <LongitudeDegrees>-5.68897982127964496612548828125</LongitudeDegrees>
            </Position>
            <AltitudeMeters>224.399993896484375</AltitudeMeters>
            <DistanceMeters>31654.231827785</DistanceMeters>
          </Trackpoint>
          <Trackpoint>
            <Time>2019-10-04T10:47:44.000Z</Time>
            <Position>
              <LatitudeDegrees>43.3076590485870838165283203125</LatitudeDegrees>
              <LongitudeDegrees>-5.68897764198482036590576171875</LongitudeDegrees>
            </Position>
            <AltitudeMeters>224.1999969482421875</AltitudeMeters>
            <DistanceMeters>31683.908778702</DistanceMeters>
          </Trackpoint>
          <Trackpoint>
            <Time>2019-10-04T10:47:46.000Z</Time>
            <Position>
              <LatitudeDegrees>43.307557962834835052490234375</LatitudeDegrees>
              <LongitudeDegrees>-5.68897009827196598052978515625</LongitudeDegrees>
            </Position>
            <AltitudeMeters>224</AltitudeMeters>
            <DistanceMeters>31695.176158376</DistanceMeters>
          </Trackpoint>
          <Trackpoint>
            <Time>2019-10-04T10:47:51.000Z</Time>
            <Position>
              <LatitudeDegrees>43.307314552366733551025390625</LatitudeDegrees>
              <LongitudeDegrees>-5.6889544241130352020263671875</LongitudeDegrees>
            </Position>
            <AltitudeMeters>224</AltitudeMeters>
            <DistanceMeters>31722.297754882</DistanceMeters>
          </Trackpoint>
          <Trackpoint>
            <Time>2019-10-04T10:47:52.000Z</Time>
            <Position>
              <LatitudeDegrees>43.3072667755186557769775390625</LatitudeDegrees>
              <LongitudeDegrees>-5.688956268131732940673828125</LongitudeDegrees>
            </Position>
            <AltitudeMeters>223.8000030517578125</AltitudeMeters>
            <DistanceMeters>31727.617553711</DistanceMeters>
          </Trackpoint>
          <Trackpoint>
            <Time>2019-10-04T10:47:53.000Z</Time>
            <Position>
              <LatitudeDegrees>43.307220675051212310791015625</LatitudeDegrees>
              <LongitudeDegrees>-5.68895434029400348663330078125</LongitudeDegrees>
            </Position>
            <AltitudeMeters>223.8000030517578125</AltitudeMeters>
            <DistanceMeters>31732.751635239</DistanceMeters>
          </Trackpoint>
          <Trackpoint>
            <Time>2019-10-04T10:47:54.000Z</Time>
            <Position>
              <LatitudeDegrees>43.30717348493635654449462890625</LatitudeDegrees>
              <LongitudeDegrees>-5.6889534182846546173095703125</LongitudeDegrees>
            </Position>
            <AltitudeMeters>223.8000030517578125</AltitudeMeters>
            <DistanceMeters>31738.004816524</DistanceMeters>
          </Trackpoint>
          <Trackpoint>
            <Time>2019-10-04T10:47:57.000Z</Time>
            <Position>
              <LatitudeDegrees>43.30703602172434329986572265625</LatitudeDegrees>
              <LongitudeDegrees>-5.68893807940185070037841796875</LongitudeDegrees>
            </Position>
            <AltitudeMeters>224</AltitudeMeters>
            <DistanceMeters>31753.35508736</DistanceMeters>
          </Trackpoint>
          <Trackpoint>
            <Time>2019-10-04T10:48:00.000Z</Time>
            <Position>
              <LatitudeDegrees>43.30689805559813976287841796875</LatitudeDegrees>
              <LongitudeDegrees>-5.6889420188963413238525390625</LongitudeDegrees>
            </Position>
            <AltitudeMeters>224.1999969482421875</AltitudeMeters>
            <DistanceMeters>31768.714179684</DistanceMeters>
          </Trackpoint>
          <Trackpoint>
            <Time>2019-10-04T10:48:01.000Z</Time>
            <Position>
              <LatitudeDegrees>43.30685195513069629669189453125</LatitudeDegrees>
              <LongitudeDegrees>-5.68895534612238407135009765625</LongitudeDegrees>
            </Position>
            <AltitudeMeters>224</AltitudeMeters>
            <DistanceMeters>31773.957036987</DistanceMeters>
          </Trackpoint>
          <Trackpoint>
            <Time>2019-10-04T10:48:04.000Z</Time>
            <Position>
              <LatitudeDegrees>43.30669722519814968109130859375</LatitudeDegrees>
              <LongitudeDegrees>-5.6889765523374080657958984375</LongitudeDegrees>
            </Position>
            <AltitudeMeters>224.399993896484375</AltitudeMeters>
            <DistanceMeters>31791.264425461</DistanceMeters>
          </Trackpoint>
          <Trackpoint>
            <Time>2019-10-04T10:48:10.000Z</Time>
            <Position>
              <LatitudeDegrees>43.30640184693038463592529296875</LatitudeDegrees>
              <LongitudeDegrees>-5.6889879517257213592529296875</LongitudeDegrees>
            </Position>
            <AltitudeMeters>224.600006103515625</AltitudeMeters>
            <DistanceMeters>31824.153554319</DistanceMeters>
          </Trackpoint>
          <Trackpoint>
            <Time>2019-10-04T10:48:11.000Z</Time>
            <Position>
              <LatitudeDegrees>43.306352980434894561767578125</LatitudeDegrees>
              <LongitudeDegrees>-5.68898904137313365936279296875</LongitudeDegrees>
            </Position>
            <AltitudeMeters>224.399993896484375</AltitudeMeters>
            <DistanceMeters>31829.594196798</DistanceMeters>
          </Trackpoint>
          <Trackpoint>
            <Time>2019-10-04T10:48:19.000Z</Time>
            <Position>
              <LatitudeDegrees>43.30596649087965488433837890625</LatitudeDegrees>
              <LongitudeDegrees>-5.6889975070953369140625</LongitudeDegrees>
            </Position>
            <AltitudeMeters>224</AltitudeMeters>
            <DistanceMeters>31872.616853029</DistanceMeters>
          </Trackpoint>
          <Trackpoint>
            <Time>2019-10-04T10:48:21.000Z</Time>
            <Position>
              <LatitudeDegrees>43.30587026663124561309814453125</LatitudeDegrees>
              <LongitudeDegrees>-5.688995830714702606201171875</LongitudeDegrees>
            </Position>
            <AltitudeMeters>224</AltitudeMeters>
            <DistanceMeters>31883.327506191</DistanceMeters>
          </Trackpoint>
          <Trackpoint>
            <Time>2019-10-04T10:48:30.000Z</Time>
            <Position>
              <LatitudeDegrees>43.3054224215447902679443359375</LatitudeDegrees>
              <LongitudeDegrees>-5.6889993511140346527099609375</LongitudeDegrees>
            </Position>
            <AltitudeMeters>223</AltitudeMeters>
            <DistanceMeters>31933.174430212</DistanceMeters>
          </Trackpoint>
          <Trackpoint>
            <Time>2019-10-04T10:48:32.000Z</Time>
            <Position>
              <LatitudeDegrees>43.3053228445351123809814453125</LatitudeDegrees>
              <LongitudeDegrees>-5.68899088539183139801025390625</LongitudeDegrees>
            </Position>
            <AltitudeMeters>222.8000030517578125</AltitudeMeters>
            <DistanceMeters>31944.279146503</DistanceMeters>
          </Trackpoint>
          <Trackpoint>
            <Time>2019-10-04T10:48:40.000Z</Time>
            <Position>
              <LatitudeDegrees>43.304940126836299896240234375</LatitudeDegrees>
              <LongitudeDegrees>-5.68898485042154788970947265625</LongitudeDegrees>
            </Position>
            <AltitudeMeters>222.1999969482421875</AltitudeMeters>
            <DistanceMeters>31986.879104283</DistanceMeters>
          </Trackpoint>
          <Trackpoint>
            <Time>2019-10-04T10:48:47.000Z</Time>
            <Position>
              <LatitudeDegrees>43.3045929484069347381591796875</LatitudeDegrees>
              <LongitudeDegrees>-5.68897864781320095062255859375</LongitudeDegrees>
            </Position>
            <AltitudeMeters>221.600006103515625</AltitudeMeters>
            <DistanceMeters>32025.524028433</DistanceMeters>
          </Trackpoint>
          <Trackpoint>
            <Time>2019-10-04T10:48:50.000Z</Time>
            <Position>
              <LatitudeDegrees>43.304436542093753814697265625</LatitudeDegrees>
              <LongitudeDegrees>-5.6889688409864902496337890625</LongitudeDegrees>
            </Position>
            <AltitudeMeters>221.399993896484375</AltitudeMeters>
            <DistanceMeters>32042.950487362</DistanceMeters>
          </Trackpoint>
          <Trackpoint>
            <Time>2019-10-04T10:48:54.000Z</Time>
            <Position>
              <LatitudeDegrees>43.304236717522144317626953125</LatitudeDegrees>
              <LongitudeDegrees>-5.688968338072299957275390625</LongitudeDegrees>
            </Position>
            <AltitudeMeters>220.600006103515625</AltitudeMeters>
            <DistanceMeters>32065.191205144</DistanceMeters>
          </Trackpoint>
          <Trackpoint>
            <Time>2019-10-04T10:48:58.000Z</Time>
            <Position>
              <LatitudeDegrees>43.30404116772115230560302734375</LatitudeDegrees>
              <LongitudeDegrees>-5.68898200057446956634521484375</LongitudeDegrees>
            </Position>
            <AltitudeMeters>219.1999969482421875</AltitudeMeters>
            <DistanceMeters>32086.984665877</DistanceMeters>
          </Trackpoint>
          <Trackpoint>
            <Time>2019-10-04T10:49:01.000Z</Time>
            <Position>
              <LatitudeDegrees>43.30389448441565036773681640625</LatitudeDegrees>
              <LongitudeDegrees>-5.68897076882421970367431640625</LongitudeDegrees>
            </Position>
            <AltitudeMeters>218</AltitudeMeters>
            <DistanceMeters>32103.336441423</DistanceMeters>
          </Trackpoint>
          <Trackpoint>
            <Time>2019-10-04T10:49:02.000Z</Time>
            <Position>
              <LatitudeDegrees>43.303850479423999786376953125</LatitudeDegrees>
              <LongitudeDegrees>-5.68897596560418605804443359375</LongitudeDegrees>
            </Position>
            <AltitudeMeters>217.600006103515625</AltitudeMeters>
            <DistanceMeters>32108.254016508</DistanceMeters>
          </Trackpoint>
          <Trackpoint>
            <Time>2019-10-04T10:49:04.000Z</Time>
            <Position>
              <LatitudeDegrees>43.30377344973385334014892578125</LatitudeDegrees>
              <LongitudeDegrees>-5.688978731632232666015625</LongitudeDegrees>
            </Position>
            <AltitudeMeters>216.399993896484375</AltitudeMeters>
            <DistanceMeters>32116.829618094</DistanceMeters>
          </Trackpoint>
          <Trackpoint>
            <Time>2019-10-04T10:49:05.000Z</Time>
            <Position>
              <LatitudeDegrees>43.30374352633953094482421875</LatitudeDegrees>
              <LongitudeDegrees>-5.688990466296672821044921875</LongitudeDegrees>
            </Position>
            <AltitudeMeters>216.399993896484375</AltitudeMeters>
            <DistanceMeters>32120.292556372</DistanceMeters>
          </Trackpoint>
          <Trackpoint>
            <Time>2019-10-04T10:49:08.000Z</Time>
            <Position>
              <LatitudeDegrees>43.30368778668344020843505859375</LatitudeDegrees>
              <LongitudeDegrees>-5.68903815932571887969970703125</LongitudeDegrees>
            </Position>
            <AltitudeMeters>215.1999969482421875</AltitudeMeters>
            <DistanceMeters>32127.600969481</DistanceMeters>
          </Trackpoint>
          <Trackpoint>
            <Time>2019-10-04T10:49:09.000Z</Time>
            <Position>
              <LatitudeDegrees>43.3036779798567295074462890625</LatitudeDegrees>
              <LongitudeDegrees>-5.68904905579984188079833984375</LongitudeDegrees>
            </Position>
            <AltitudeMeters>215</AltitudeMeters>
            <DistanceMeters>32129.004022104</DistanceMeters>
          </Trackpoint>
          <Trackpoint>
            <Time>2019-10-04T10:49:12.000Z</Time>
            <Position>
              <LatitudeDegrees>43.30364755354821681976318359375</LatitudeDegrees>
              <LongitudeDegrees>-5.68911292590200901031494140625</LongitudeDegrees>
            </Position>
            <AltitudeMeters>214</AltitudeMeters>
            <DistanceMeters>32135.187333811</DistanceMeters>
          </Trackpoint>
          <Trackpoint>
            <Time>2019-10-04T10:49:13.000Z</Time>
            <Position>
              <LatitudeDegrees>43.30364688299596309661865234375</LatitudeDegrees>
              <LongitudeDegrees>-5.6891512311995029449462890625</LongitudeDegrees>
            </Position>
            <AltitudeMeters>213.600006103515625</AltitudeMeters>
            <DistanceMeters>32138.2913782</DistanceMeters>
          </Trackpoint>
          <Trackpoint>
            <Time>2019-10-04T10:49:16.000Z</Time>
            <Position>
              <LatitudeDegrees>43.3036457933485507965087890625</LatitudeDegrees>
              <LongitudeDegrees>-5.68925776518881320953369140625</LongitudeDegrees>
            </Position>
            <AltitudeMeters>212</AltitudeMeters>
            <DistanceMeters>32146.921038705</DistanceMeters>
          </Trackpoint>
          <Trackpoint>
            <Time>2019-10-04T10:49:19.000Z</Time>
            <Position>
              <LatitudeDegrees>43.3036565221846103668212890625</LatitudeDegrees>
              <LongitudeDegrees>-5.6893530674278736114501953125</LongitudeDegrees>
            </Position>
            <AltitudeMeters>211.399993896484375</AltitudeMeters>
            <DistanceMeters>32154.731749073</DistanceMeters>
          </Trackpoint>
          <Trackpoint>
            <Time>2019-10-04T10:49:20.000Z</Time>
            <Position>
              <LatitudeDegrees>43.30367605201900005340576171875</LatitudeDegrees>
              <LongitudeDegrees>-5.6893939711153507232666015625</LongitudeDegrees>
            </Position>
            <AltitudeMeters>211</AltitudeMeters>
            <DistanceMeters>32158.693348858</DistanceMeters>
          </Trackpoint>
          <Trackpoint>
            <Time>2019-10-04T10:49:22.000Z</Time>
            <Position>
              <LatitudeDegrees>43.30373271368443965911865234375</LatitudeDegrees>
              <LongitudeDegrees>-5.6894757784903049468994140625</LongitudeDegrees>
            </Position>
            <AltitudeMeters>209.8000030517578125</AltitudeMeters>
            <DistanceMeters>32167.840626504</DistanceMeters>
          </Trackpoint>
          <Trackpoint>
            <Time>2019-10-04T10:49:23.000Z</Time>
            <Position>
              <LatitudeDegrees>43.3037604577839374542236328125</LatitudeDegrees>
              <LongitudeDegrees>-5.68952120840549468994140625</LongitudeDegrees>
            </Position>
            <AltitudeMeters>209.8000030517578125</AltitudeMeters>
            <DistanceMeters>32172.643002503</DistanceMeters>
          </Trackpoint>
          <Trackpoint>
            <Time>2019-10-04T10:49:24.000Z</Time>
            <Position>
              <LatitudeDegrees>43.3037795685231685638427734375</LatitudeDegrees>
              <LongitudeDegrees>-5.6895803846418857574462890625</LongitudeDegrees>
            </Position>
            <AltitudeMeters>209.600006103515625</AltitudeMeters>
            <DistanceMeters>32177.885859806</DistanceMeters>
          </Trackpoint>
          <Trackpoint>
            <Time>2019-10-04T10:49:26.000Z</Time>
            <Position>
              <LatitudeDegrees>43.303779400885105133056640625</LatitudeDegrees>
              <LongitudeDegrees>-5.689712651073932647705078125</LongitudeDegrees>
            </Position>
            <AltitudeMeters>209.399993896484375</AltitudeMeters>
            <DistanceMeters>32188.599041948</DistanceMeters>
          </Trackpoint>
          <Trackpoint>
            <Time>2019-10-04T10:49:29.000Z</Time>
            <Position>
              <LatitudeDegrees>43.30368560738861560821533203125</LatitudeDegrees>
              <LongitudeDegrees>-5.68986184895038604736328125</LongitudeDegrees>
            </Position>
            <AltitudeMeters>209.1999969482421875</AltitudeMeters>
            <DistanceMeters>32204.568619867</DistanceMeters>
          </Trackpoint>
          <Trackpoint>
            <Time>2019-10-04T10:49:32.000Z</Time>
            <Position>
              <LatitudeDegrees>43.3035391755402088165283203125</LatitudeDegrees>
              <LongitudeDegrees>-5.6898491084575653076171875</LongitudeDegrees>
            </Position>
            <AltitudeMeters>209</AltitudeMeters>
            <DistanceMeters>32220.899396876</DistanceMeters>
          </Trackpoint>
          <Trackpoint>
            <Time>2019-10-04T10:49:35.000Z</Time>
            <Position>
              <LatitudeDegrees>43.3034332282841205596923828125</LatitudeDegrees>
              <LongitudeDegrees>-5.6897138245403766632080078125</LongitudeDegrees>
            </Position>
            <AltitudeMeters>209</AltitudeMeters>
            <DistanceMeters>32236.996821317</DistanceMeters>
          </Trackpoint>
          <Trackpoint>
            <Time>2019-10-04T10:49:37.000Z</Time>
            <Position>
              <LatitudeDegrees>43.30337606370449066162109375</LatitudeDegrees>
              <LongitudeDegrees>-5.68960578180849552154541015625</LongitudeDegrees>
            </Position>
            <AltitudeMeters>209</AltitudeMeters>
            <DistanceMeters>32247.816521452</DistanceMeters>
          </Trackpoint>
          <Trackpoint>
            <Time>2019-10-04T10:49:38.000Z</Time>
            <Position>
              <LatitudeDegrees>43.30333775840699672698974609375</LatitudeDegrees>
              <LongitudeDegrees>-5.6895703263580799102783203125</LongitudeDegrees>
            </Position>
            <AltitudeMeters>209.1999969482421875</AltitudeMeters>
            <DistanceMeters>32252.956755267</DistanceMeters>
          </Trackpoint>
          <Trackpoint>
            <Time>2019-10-04T10:49:40.000Z</Time>
            <Position>
              <LatitudeDegrees>43.30325075425207614898681640625</LatitudeDegrees>
              <LongitudeDegrees>-5.68952732719480991363525390625</LongitudeDegrees>
            </Position>
            <AltitudeMeters>209.1999969482421875</AltitudeMeters>
            <DistanceMeters>32263.247757966</DistanceMeters>
          </Trackpoint>
          <Trackpoint>
            <Time>2019-10-04T10:49:48.000Z</Time>
            <Position>
              <LatitudeDegrees>43.30289955250918865203857421875</LatitudeDegrees>
              <LongitudeDegrees>-5.689364634454250335693359375</LongitudeDegrees>
            </Position>
            <AltitudeMeters>209</AltitudeMeters>
            <DistanceMeters>32304.498766017</DistanceMeters>
          </Trackpoint>
          <Trackpoint>
            <Time>2019-10-04T10:49:50.000Z</Time>
            <Position>
              <LatitudeDegrees>43.3028166554868221282958984375</LatitudeDegrees>
              <LongitudeDegrees>-5.689310990273952484130859375</LongitudeDegrees>
            </Position>
            <AltitudeMeters>209</AltitudeMeters>
            <DistanceMeters>32314.697660592</DistanceMeters>
          </Trackpoint>
          <Trackpoint>
            <Time>2019-10-04T10:49:52.000Z</Time>
            <Position>
              <LatitudeDegrees>43.30273392610251903533935546875</LatitudeDegrees>
              <LongitudeDegrees>-5.68925030529499053955078125</LongitudeDegrees>
            </Position>
            <AltitudeMeters>208.600006103515625</AltitudeMeters>
            <DistanceMeters>32325.135470338</DistanceMeters>
          </Trackpoint>
          <Trackpoint>
            <Time>2019-10-04T10:49:55.000Z</Time>
            <Position>
              <LatitudeDegrees>43.30261238850653171539306640625</LatitudeDegrees>
              <LongitudeDegrees>-5.689150728285312652587890625</LongitudeDegrees>
            </Position>
            <AltitudeMeters>208.399993896484375</AltitudeMeters>
            <DistanceMeters>32340.884983659</DistanceMeters>
          </Trackpoint>
          <Trackpoint>
            <Time>2019-10-04T10:49:57.000Z</Time>
            <Position>
              <LatitudeDegrees>43.3025299943983554840087890625</LatitudeDegrees>
              <LongitudeDegrees>-5.689080320298671722412109375</LongitudeDegrees>
            </Position>
            <AltitudeMeters>208.600006103515625</AltitudeMeters>
            <DistanceMeters>32351.684216839</DistanceMeters>
          </Trackpoint>
          <Trackpoint>
            <Time>2019-10-04T10:50:04.000Z</Time>
            <Position>
              <LatitudeDegrees>43.30223386175930500030517578125</LatitudeDegrees>
              <LongitudeDegrees>-5.68884537555277347564697265625</LongitudeDegrees>
            </Position>
            <AltitudeMeters>208.600006103515625</AltitudeMeters>
            <DistanceMeters>32389.743572619</DistanceMeters>
          </Trackpoint>
          <Trackpoint>
            <Time>2019-10-04T10:50:15.000Z</Time>
            <Position>
              <LatitudeDegrees>43.3017821609973907470703125</LatitudeDegrees>
              <LongitudeDegrees>-5.688457377254962921142578125</LongitudeDegrees>
            </Position>
            <AltitudeMeters>207.8000030517578125</AltitudeMeters>
            <DistanceMeters>32449.033541406</DistanceMeters>
          </Trackpoint>
          <Trackpoint>
            <Time>2019-10-04T10:50:17.000Z</Time>
            <Position>
              <LatitudeDegrees>43.301707394421100616455078125</LatitudeDegrees>
              <LongitudeDegrees>-5.688391663134098052978515625</LongitudeDegrees>
            </Position>
            <AltitudeMeters>207.600006103515625</AltitudeMeters>
            <DistanceMeters>32458.911750052</DistanceMeters>
          </Trackpoint>
          <Trackpoint>
            <Time>2019-10-04T10:50:21.000Z</Time>
            <Position>
              <LatitudeDegrees>43.30156029202044010162353515625</LatitudeDegrees>
              <LongitudeDegrees>-5.68829250521957874298095703125</LongitudeDegrees>
            </Position>
            <AltitudeMeters>207.399993896484375</AltitudeMeters>
            <DistanceMeters>32477.148463446</DistanceMeters>
          </Trackpoint>
          <Trackpoint>
            <Time>2019-10-04T10:50:22.000Z</Time>
            <Position>
              <LatitudeDegrees>43.30152533948421478271484375</LatitudeDegrees>
              <LongitudeDegrees>-5.68827507086098194122314453125</LongitudeDegrees>
            </Position>
            <AltitudeMeters>207.399993896484375</AltitudeMeters>
            <DistanceMeters>32481.28731051</DistanceMeters>
          </Trackpoint>
          <Trackpoint>
            <Time>2019-10-04T10:50:28.000Z</Time>
            <Position>
              <LatitudeDegrees>43.30132727511227130889892578125</LatitudeDegrees>
              <LongitudeDegrees>-5.68815554492175579071044921875</LongitudeDegrees>
            </Position>
            <AltitudeMeters>207.1999969482421875</AltitudeMeters>
            <DistanceMeters>32505.364537251</DistanceMeters>
          </Trackpoint>
          <Trackpoint>
            <Time>2019-10-04T10:50:30.000Z</Time>
            <Position>
              <LatitudeDegrees>43.3012670092284679412841796875</LatitudeDegrees>
              <LongitudeDegrees>-5.6881190836429595947265625</LongitudeDegrees>
            </Position>
            <AltitudeMeters>207.1999969482421875</AltitudeMeters>
            <DistanceMeters>32512.693924999</DistanceMeters>
          </Trackpoint>
          <Trackpoint>
            <Time>2019-10-04T10:50:34.000Z</Time>
            <Position>
              <LatitudeDegrees>43.301158212125301361083984375</LatitudeDegrees>
              <LongitudeDegrees>-5.68805999122560024261474609375</LongitudeDegrees>
            </Position>
            <AltitudeMeters>206.399993896484375</AltitudeMeters>
            <DistanceMeters>32525.715012331</DistanceMeters>
          </Trackpoint>
          <Trackpoint>
            <Time>2019-10-04T10:50:37.000Z</Time>
            <Position>
              <LatitudeDegrees>43.301079757511615753173828125</LatitudeDegrees>
              <LongitudeDegrees>-5.68801573477685451507568359375</LongitudeDegrees>
            </Position>
            <AltitudeMeters>206.8000030517578125</AltitudeMeters>
            <DistanceMeters>32535.153801141</DistanceMeters>
          </Trackpoint>
          <Trackpoint>
            <Time>2019-10-04T10:50:45.000Z</Time>
            <Position>
              <LatitudeDegrees>43.300882615149021148681640625</LatitudeDegrees>
              <LongitudeDegrees>-5.6878972984850406646728515625</LongitudeDegrees>
            </Position>
            <AltitudeMeters>205.399993896484375</AltitudeMeters>
            <DistanceMeters>32559.101664406</DistanceMeters>
          </Trackpoint>
          <Trackpoint>
            <Time>2019-10-04T10:50:48.000Z</Time>
            <Position>
              <LatitudeDegrees>43.30080675892531871795654296875</LatitudeDegrees>
              <LongitudeDegrees>-5.68785446695983409881591796875</LongitudeDegrees>
            </Position>
            <AltitudeMeters>205.600006103515625</AltitudeMeters>
            <DistanceMeters>32568.229671601</DistanceMeters>
          </Trackpoint>
          <Trackpoint>
            <Time>2019-10-04T10:50:50.000Z</Time>
            <Position>
              <LatitudeDegrees>43.30075764097273349761962890625</LatitudeDegrees>
              <LongitudeDegrees>-5.6878201849758625030517578125</LongitudeDegrees>
            </Position>
            <AltitudeMeters>205.399993896484375</AltitudeMeters>
            <DistanceMeters>32574.360920106</DistanceMeters>
          </Trackpoint>
          <Trackpoint>
            <Time>2019-10-04T10:50:55.000Z</Time>
            <Position>
              <LatitudeDegrees>43.30063560046255588531494140625</LatitudeDegrees>
              <LongitudeDegrees>-5.68775002844631671905517578125</LongitudeDegrees>
            </Position>
            <AltitudeMeters>205</AltitudeMeters>
            <DistanceMeters>32589.084848769</DistanceMeters>
          </Trackpoint>
          <Trackpoint>
            <Time>2019-10-04T10:51:01.000Z</Time>
            <Position>
              <LatitudeDegrees>43.30048942007124423980712890625</LatitudeDegrees>
              <LongitudeDegrees>-5.687653385102748870849609375</LongitudeDegrees>
            </Position>
            <AltitudeMeters>204.1999969482421875</AltitudeMeters>
            <DistanceMeters>32607.139924499</DistanceMeters>
          </Trackpoint>
          <Trackpoint>
            <Time>2019-10-04T10:51:05.000Z</Time>
            <Position>
              <LatitudeDegrees>43.30038540065288543701171875</LatitudeDegrees>
              <LongitudeDegrees>-5.6875932030379772186279296875</LongitudeDegrees>
            </Position>
            <AltitudeMeters>204</AltitudeMeters>
            <DistanceMeters>32619.701794816</DistanceMeters>
          </Trackpoint>
          <Trackpoint>
            <Time>2019-10-04T10:51:11.000Z</Time>
            <Position>
              <LatitudeDegrees>43.300224803388118743896484375</LatitudeDegrees>
              <LongitudeDegrees>-5.68749790079891681671142578125</LongitudeDegrees>
            </Position>
            <AltitudeMeters>203</AltitudeMeters>
            <DistanceMeters>32639.172302495</DistanceMeters>
          </Trackpoint>
          <Trackpoint>
            <Time>2019-10-04T10:51:13.000Z</Time>
            <Position>
              <LatitudeDegrees>43.300163447856903076171875</LatitudeDegrees>
              <LongitudeDegrees>-5.687460936605930328369140625</LongitudeDegrees>
            </Position>
            <AltitudeMeters>203.399993896484375</AltitudeMeters>
            <DistanceMeters>32646.628721251</DistanceMeters>
          </Trackpoint>
          <Trackpoint>
            <Time>2019-10-04T10:51:21.000Z</Time>
            <Position>
              <LatitudeDegrees>43.2998903654515743255615234375</LatitudeDegrees>
              <LongitudeDegrees>-5.687300004065036773681640625</LongitudeDegrees>
            </Position>
            <AltitudeMeters>202.399993896484375</AltitudeMeters>
            <DistanceMeters>32679.700748392</DistanceMeters>
          </Trackpoint>
          <Trackpoint>
            <Time>2019-10-04T10:51:29.000Z</Time>
            <Position>
              <LatitudeDegrees>43.29959574155509471893310546875</LatitudeDegrees>
              <LongitudeDegrees>-5.68712054751813411712646484375</LongitudeDegrees>
            </Position>
            <AltitudeMeters>202.1999969482421875</AltitudeMeters>
            <DistanceMeters>32715.570532501</DistanceMeters>
          </Trackpoint>
          <Trackpoint>
            <Time>2019-10-04T10:51:31.000Z</Time>
            <Position>
              <LatitudeDegrees>43.2995222322642803192138671875</LatitudeDegrees>
              <LongitudeDegrees>-5.68707528524100780487060546875</LongitudeDegrees>
            </Position>
            <AltitudeMeters>202.1999969482421875</AltitudeMeters>
            <DistanceMeters>32724.53634203</DistanceMeters>
          </Trackpoint>
          <Trackpoint>
            <Time>2019-10-04T10:51:35.000Z</Time>
            <Position>
              <LatitudeDegrees>43.29937194474041461944580078125</LatitudeDegrees>
              <LongitudeDegrees>-5.68702046759426593780517578125</LongitudeDegrees>
            </Position>
            <AltitudeMeters>202</AltitudeMeters>
            <DistanceMeters>32741.842686979</DistanceMeters>
          </Trackpoint>
          <Trackpoint>
            <Time>2019-10-04T10:51:36.000Z</Time>
            <Position>
              <LatitudeDegrees>43.29933238215744495391845703125</LatitudeDegrees>
              <LongitudeDegrees>-5.6870175339281558990478515625</LongitudeDegrees>
            </Position>
            <AltitudeMeters>201.8000030517578125</AltitudeMeters>
            <DistanceMeters>32746.251967485</DistanceMeters>
          </Trackpoint>
          <Trackpoint>
            <Time>2019-10-04T10:51:37.000Z</Time>
            <Position>
              <LatitudeDegrees>43.2992955856025218963623046875</LatitudeDegrees>
              <LongitudeDegrees>-5.6870185397565364837646484375</LongitudeDegrees>
            </Position>
            <AltitudeMeters>201.8000030517578125</AltitudeMeters>
            <DistanceMeters>32750.348048787</DistanceMeters>
          </Trackpoint>
          <Trackpoint>
            <Time>2019-10-04T10:51:42.000Z</Time>
            <Position>
              <LatitudeDegrees>43.2991262711584568023681640625</LatitudeDegrees>
              <LongitudeDegrees>-5.68713865242898464202880859375</LongitudeDegrees>
            </Position>
            <AltitudeMeters>202</AltitudeMeters>
            <DistanceMeters>32771.556470175</DistanceMeters>
          </Trackpoint>
          <Trackpoint>
            <Time>2019-10-04T10:51:43.000Z</Time>
            <Position>
              <LatitudeDegrees>43.2990880496799945831298828125</LatitudeDegrees>
              <LongitudeDegrees>-5.68715809844434261322021484375</LongitudeDegrees>
            </Position>
            <AltitudeMeters>202</AltitudeMeters>
            <DistanceMeters>32776.092938428</DistanceMeters>
          </Trackpoint>
          <Trackpoint>
            <Time>2019-10-04T10:51:46.000Z</Time>
            <Position>
              <LatitudeDegrees>43.29897992312908172607421875</LatitudeDegrees>
              <LongitudeDegrees>-5.68725281395018100738525390625</LongitudeDegrees>
            </Position>
            <AltitudeMeters>202.600006103515625</AltitudeMeters>
            <DistanceMeters>32790.365305591</DistanceMeters>
          </Trackpoint>
          <Trackpoint>
            <Time>2019-10-04T10:51:47.000Z</Time>
            <Position>
              <LatitudeDegrees>43.2989442162215709686279296875</LatitudeDegrees>
              <LongitudeDegrees>-5.68728248588740825653076171875</LongitudeDegrees>
            </Position>
            <AltitudeMeters>202.8000030517578125</AltitudeMeters>
            <DistanceMeters>32795.008991901</DistanceMeters>
          </Trackpoint>
          <Trackpoint>
            <Time>2019-10-04T10:51:49.000Z</Time>
            <Position>
              <LatitudeDegrees>43.298863582313060760498046875</LatitudeDegrees>
              <LongitudeDegrees>-5.6873216293752193450927734375</LongitudeDegrees>
            </Position>
            <AltitudeMeters>203</AltitudeMeters>
            <DistanceMeters>32804.526855468</DistanceMeters>
          </Trackpoint>
          <Trackpoint>
            <Time>2019-10-04T10:51:52.000Z</Time>
            <Position>
              <LatitudeDegrees>43.29873039387166500091552734375</LatitudeDegrees>
              <LongitudeDegrees>-5.68734283559024333953857421875</LongitudeDegrees>
            </Position>
            <AltitudeMeters>202.600006103515625</AltitudeMeters>
            <DistanceMeters>32819.449983333</DistanceMeters>
          </Trackpoint>
          <Trackpoint>
            <Time>2019-10-04T10:51:54.000Z</Time>
            <Position>
              <LatitudeDegrees>43.29863919876515865325927734375</LatitudeDegrees>
              <LongitudeDegrees>-5.687367729842662811279296875</LongitudeDegrees>
            </Position>
            <AltitudeMeters>202.399993896484375</AltitudeMeters>
            <DistanceMeters>32829.798300904</DistanceMeters>
          </Trackpoint>
          <Trackpoint>
            <Time>2019-10-04T10:51:57.000Z</Time>
            <Position>
              <LatitudeDegrees>43.29853928647935390472412109375</LatitudeDegrees>
              <LongitudeDegrees>-5.68747493438422679901123046875</LongitudeDegrees>
            </Position>
            <AltitudeMeters>201.399993896484375</AltitudeMeters>
            <DistanceMeters>32843.907768126</DistanceMeters>
          </Trackpoint>
          <Trackpoint>
            <Time>2019-10-04T10:52:00.000Z</Time>
            <Position>
              <LatitudeDegrees>43.29849134199321269989013671875</LatitudeDegrees>
              <LongitudeDegrees>-5.687620528042316436767578125</LongitudeDegrees>
            </Position>
            <AltitudeMeters>200.600006103515625</AltitudeMeters>
            <DistanceMeters>32856.852346083</DistanceMeters>
          </Trackpoint>
          <Trackpoint>
            <Time>2019-10-04T10:52:01.000Z</Time>
            <Position>
              <LatitudeDegrees>43.298486061394214630126953125</LatitudeDegrees>
              <LongitudeDegrees>-5.6876740045845508575439453125</LongitudeDegrees>
            </Position>
            <AltitudeMeters>200.399993896484375</AltitudeMeters>
            <DistanceMeters>32861.223574944</DistanceMeters>
          </Trackpoint>
          <Trackpoint>
            <Time>2019-10-04T10:52:04.000Z</Time>
            <Position>
              <LatitudeDegrees>43.2984922640025615692138671875</LatitudeDegrees>
              <LongitudeDegrees>-5.68784541450440883636474609375</LongitudeDegrees>
            </Position>
            <AltitudeMeters>199.399993896484375</AltitudeMeters>
            <DistanceMeters>32875.12543439</DistanceMeters>
          </Trackpoint>
          <Trackpoint>
            <Time>2019-10-04T10:52:06.000Z</Time>
            <Position>
              <LatitudeDegrees>43.2985076867043972015380859375</LatitudeDegrees>
              <LongitudeDegrees>-5.687970221042633056640625</LongitudeDegrees>
            </Position>
            <AltitudeMeters>198.600006103515625</AltitudeMeters>
            <DistanceMeters>32885.379516997</DistanceMeters>
          </Trackpoint>
          <Trackpoint>
            <Time>2019-10-04T10:52:07.000Z</Time>
            <Position>
              <LatitudeDegrees>43.2985234446823596954345703125</LatitudeDegrees>
              <LongitudeDegrees>-5.6880344264209270477294921875</LongitudeDegrees>
            </Position>
            <AltitudeMeters>198.399993896484375</AltitudeMeters>
            <DistanceMeters>32890.866435519</DistanceMeters>
          </Trackpoint>
          <Trackpoint>
            <Time>2019-10-04T10:52:10.000Z</Time>
            <Position>
              <LatitudeDegrees>43.2985861413180828094482421875</LatitudeDegrees>
              <LongitudeDegrees>-5.6882262043654918670654296875</LongitudeDegrees>
            </Position>
            <AltitudeMeters>198.600006103515625</AltitudeMeters>
            <DistanceMeters>32907.896643833</DistanceMeters>
          </Trackpoint>
          <Trackpoint>
            <Time>2019-10-04T10:52:11.000Z</Time>
            <Position>
              <LatitudeDegrees>43.298625536262989044189453125</LatitudeDegrees>
              <LongitudeDegrees>-5.68828144110739231109619140625</LongitudeDegrees>
            </Position>
            <AltitudeMeters>198.1999969482421875</AltitudeMeters>
            <DistanceMeters>32914.161924537</DistanceMeters>
          </Trackpoint>
          <Trackpoint>
            <Time>2019-10-04T10:52:16.000Z</Time>
            <Position>
              <LatitudeDegrees>43.29885193146765232086181640625</LatitudeDegrees>
              <LongitudeDegrees>-5.688497610390186309814453125</LongitudeDegrees>
            </Position>
            <AltitudeMeters>198</AltitudeMeters>
            <DistanceMeters>32944.847167423</DistanceMeters>
          </Trackpoint>
          <Trackpoint>
            <Time>2019-10-04T10:52:17.000Z</Time>
            <Position>
              <LatitudeDegrees>43.2988905720412731170654296875</LatitudeDegrees>
              <LongitudeDegrees>-5.6885460577905178070068359375</LongitudeDegrees>
            </Position>
            <AltitudeMeters>197.600006103515625</AltitudeMeters>
            <DistanceMeters>32950.669444209</DistanceMeters>
          </Trackpoint>
          <Trackpoint>
            <Time>2019-10-04T10:52:19.000Z</Time>
            <Position>
              <LatitudeDegrees>43.29894782043993473052978515625</LatitudeDegrees>
              <LongitudeDegrees>-5.68866332061588764190673828125</LongitudeDegrees>
            </Position>
            <AltitudeMeters>197.600006103515625</AltitudeMeters>
            <DistanceMeters>32962.107439991</DistanceMeters>
          </Trackpoint>
          <Trackpoint>
            <Time>2019-10-04T10:52:20.000Z</Time>
            <Position>
              <LatitudeDegrees>43.29895846545696258544921875</LatitudeDegrees>
              <LongitudeDegrees>-5.688733644783496856689453125</LongitudeDegrees>
            </Position>
            <AltitudeMeters>197.8000030517578125</AltitudeMeters>
            <DistanceMeters>32967.926614045</DistanceMeters>
          </Trackpoint>
          <Trackpoint>
            <Time>2019-10-04T10:52:24.000Z</Time>
            <Position>
              <LatitudeDegrees>43.2989425398409366607666015625</LatitudeDegrees>
              <LongitudeDegrees>-5.689010918140411376953125</LongitudeDegrees>
            </Position>
            <AltitudeMeters>197.8000030517578125</AltitudeMeters>
            <DistanceMeters>32990.456564268</DistanceMeters>
          </Trackpoint>
          <Trackpoint>
            <Time>2019-10-04T10:52:27.000Z</Time>
            <Position>
              <LatitudeDegrees>43.2989524304866790771484375</LatitudeDegrees>
              <LongitudeDegrees>-5.68922289647161960601806640625</LongitudeDegrees>
            </Position>
            <AltitudeMeters>197.600006103515625</AltitudeMeters>
            <DistanceMeters>33007.662960936</DistanceMeters>
          </Trackpoint>
          <Trackpoint>
            <Time>2019-10-04T10:52:29.000Z</Time>
            <Position>
              <LatitudeDegrees>43.2989958487451076507568359375</LatitudeDegrees>
              <LongitudeDegrees>-5.68938148207962512969970703125</LongitudeDegrees>
            </Position>
            <AltitudeMeters>197.600006103515625</AltitudeMeters>
            <DistanceMeters>33021.388319029</DistanceMeters>
          </Trackpoint>
          <Trackpoint>
            <Time>2019-10-04T10:52:31.000Z</Time>
            <Position>
              <LatitudeDegrees>43.2990622334182262420654296875</LatitudeDegrees>
              <LongitudeDegrees>-5.68953051231801509857177734375</LongitudeDegrees>
            </Position>
            <AltitudeMeters>197.399993896484375</AltitudeMeters>
            <DistanceMeters>33035.542515438</DistanceMeters>
          </Trackpoint>
          <Trackpoint>
            <Time>2019-10-04T10:52:34.000Z</Time>
            <Position>
              <LatitudeDegrees>43.2991651631891727447509765625</LatitudeDegrees>
              <LongitudeDegrees>-5.68976570852100849151611328125</LongitudeDegrees>
            </Position>
            <AltitudeMeters>197.8000030517578125</AltitudeMeters>
            <DistanceMeters>33057.773689808</DistanceMeters>
          </Trackpoint>
          <Trackpoint>
            <Time>2019-10-04T10:52:40.000Z</Time>
            <Position>
              <LatitudeDegrees>43.29943195916712284088134765625</LatitudeDegrees>
              <LongitudeDegrees>-5.69022051058709621429443359375</LongitudeDegrees>
            </Position>
            <AltitudeMeters>198</AltitudeMeters>
            <DistanceMeters>33105.09203207</DistanceMeters>
          </Trackpoint>
          <Trackpoint>
            <Time>2019-10-04T10:52:41.000Z</Time>
            <Position>
              <LatitudeDegrees>43.29948912374675273895263671875</LatitudeDegrees>
              <LongitudeDegrees>-5.6902951933443546295166015625</LongitudeDegrees>
            </Position>
            <AltitudeMeters>198</AltitudeMeters>
            <DistanceMeters>33113.871595415</DistanceMeters>
          </Trackpoint>
          <Trackpoint>
            <Time>2019-10-04T10:52:45.000Z</Time>
            <Position>
              <LatitudeDegrees>43.2996835000813007354736328125</LatitudeDegrees>
              <LongitudeDegrees>-5.6905922479927539825439453125</LongitudeDegrees>
            </Position>
            <AltitudeMeters>198.1999969482421875</AltitudeMeters>
            <DistanceMeters>33146.229691677</DistanceMeters>
          </Trackpoint>
          <Trackpoint>
            <Time>2019-10-04T10:52:46.000Z</Time>
            <Position>
              <LatitudeDegrees>43.2997190393507480621337890625</LatitudeDegrees>
              <LongitudeDegrees>-5.69067279808223247528076171875</LongitudeDegrees>
            </Position>
            <AltitudeMeters>198.1999969482421875</AltitudeMeters>
            <DistanceMeters>33153.859100092</DistanceMeters>
          </Trackpoint>
          <Trackpoint>
            <Time>2019-10-04T10:52:47.000Z</Time>
            <Position>
              <LatitudeDegrees>43.2997421734035015106201171875</LatitudeDegrees>
              <LongitudeDegrees>-5.69074991159141063690185546875</LongitudeDegrees>
            </Position>
            <AltitudeMeters>198.1999969482421875</AltitudeMeters>
            <DistanceMeters>33160.615359147</DistanceMeters>
          </Trackpoint>
          <Trackpoint>
            <Time>2019-10-04T10:52:48.000Z</Time>
            <Position>
              <LatitudeDegrees>43.29976673237979412078857421875</LatitudeDegrees>
              <LongitudeDegrees>-5.69082434289157390594482421875</LongitudeDegrees>
            </Position>
            <AltitudeMeters>198.399993896484375</AltitudeMeters>
            <DistanceMeters>33167.235932465</DistanceMeters>
          </Trackpoint>
          <Trackpoint>
            <Time>2019-10-04T10:52:49.000Z</Time>
            <Position>
              <LatitudeDegrees>43.299793638288974761962890625</LatitudeDegrees>
              <LongitudeDegrees>-5.6908893026411533355712890625</LongitudeDegrees>
            </Position>
            <AltitudeMeters>198.600006103515625</AltitudeMeters>
            <DistanceMeters>33173.290856938</DistanceMeters>
          </Trackpoint>
          <Trackpoint>
            <Time>2019-10-04T10:52:51.000Z</Time>
            <Position>
              <LatitudeDegrees>43.29983999021351337432861328125</LatitudeDegrees>
              <LongitudeDegrees>-5.6909949146211147308349609375</LongitudeDegrees>
            </Position>
            <AltitudeMeters>198.8000030517578125</AltitudeMeters>
            <DistanceMeters>33183.280872196</DistanceMeters>
          </Trackpoint>
          <Trackpoint>
            <Time>2019-10-04T10:52:52.000Z</Time>
            <Position>
              <LatitudeDegrees>43.29986664466559886932373046875</LatitudeDegrees>
              <LongitudeDegrees>-5.6910301186144351959228515625</LongitudeDegrees>
            </Position>
            <AltitudeMeters>198.8000030517578125</AltitudeMeters>
            <DistanceMeters>33187.39564963</DistanceMeters>
          </Trackpoint>
          <Trackpoint>
            <Time>2019-10-04T10:52:56.000Z</Time>
            <Position>
              <LatitudeDegrees>43.29995968379080295562744140625</LatitudeDegrees>
              <LongitudeDegrees>-5.69112290628254413604736328125</LongitudeDegrees>
            </Position>
            <AltitudeMeters>199.399993896484375</AltitudeMeters>
            <DistanceMeters>33200.191482783</DistanceMeters>
          </Trackpoint>
          <Trackpoint>
            <Time>2019-10-04T10:52:57.000Z</Time>
            <Position>
              <LatitudeDegrees>43.29997795633971691131591796875</LatitudeDegrees>
              <LongitudeDegrees>-5.691144280135631561279296875</LongitudeDegrees>
            </Position>
            <AltitudeMeters>199.399993896484375</AltitudeMeters>
            <DistanceMeters>33202.862392813</DistanceMeters>
          </Trackpoint>
          <Trackpoint>
            <Time>2019-10-04T10:53:01.000Z</Time>
            <Position>
              <LatitudeDegrees>43.3000467717647552490234375</LatitudeDegrees>
              <LongitudeDegrees>-5.6912292726337909698486328125</LongitudeDegrees>
            </Position>
            <AltitudeMeters>199.399993896484375</AltitudeMeters>
            <DistanceMeters>33213.16128974</DistanceMeters>
          </Trackpoint>
          <Trackpoint>
            <Time>2019-10-04T10:53:05.000Z</Time>
            <Position>
              <LatitudeDegrees>43.30011927522718906402587890625</LatitudeDegrees>
              <LongitudeDegrees>-5.69130177609622478485107421875</LongitudeDegrees>
            </Position>
            <AltitudeMeters>199</AltitudeMeters>
            <DistanceMeters>33223.142261804</DistanceMeters>
          </Trackpoint>
          <Trackpoint>
            <Time>2019-10-04T10:53:08.000Z</Time>
            <Position>
              <LatitudeDegrees>43.30016604624688625335693359375</LatitudeDegrees>
              <LongitudeDegrees>-5.691362209618091583251953125</LongitudeDegrees>
            </Position>
            <AltitudeMeters>199.1999969482421875</AltitudeMeters>
            <DistanceMeters>33230.287613594</DistanceMeters>
          </Trackpoint>
          <Trackpoint>
            <Time>2019-10-04T10:53:11.000Z</Time>
            <Position>
              <LatitudeDegrees>43.3002162538468837738037109375</LatitudeDegrees>
              <LongitudeDegrees>-5.69142960011959075927734375</LongitudeDegrees>
            </Position>
            <AltitudeMeters>198.399993896484375</AltitudeMeters>
            <DistanceMeters>33238.099479992</DistanceMeters>
          </Trackpoint>
          <Trackpoint>
            <Time>2019-10-04T10:53:12.000Z</Time>
            <Position>
              <LatitudeDegrees>43.300233520567417144775390625</LatitudeDegrees>
              <LongitudeDegrees>-5.69145130924880504608154296875</LongitudeDegrees>
            </Position>
            <AltitudeMeters>198.1999969482421875</AltitudeMeters>
            <DistanceMeters>33240.705361318</DistanceMeters>
          </Trackpoint>
          <Trackpoint>
            <Time>2019-10-04T10:53:13.000Z</Time>
            <Position>
              <LatitudeDegrees>43.3002491109073162078857421875</LatitudeDegrees>
              <LongitudeDegrees>-5.6914770416915416717529296875</LongitudeDegrees>
            </Position>
            <AltitudeMeters>198.399993896484375</AltitudeMeters>
            <DistanceMeters>33243.416538594</DistanceMeters>
          </Trackpoint>
          <Trackpoint>
            <Time>2019-10-04T10:53:16.000Z</Time>
            <Position>
              <LatitudeDegrees>43.3002963848412036895751953125</LatitudeDegrees>
              <LongitudeDegrees>-5.6915541552007198333740234375</LongitudeDegrees>
            </Position>
            <AltitudeMeters>198.600006103515625</AltitudeMeters>
            <DistanceMeters>33251.583862189</DistanceMeters>
          </Trackpoint>
          <Trackpoint>
            <Time>2019-10-04T10:53:19.000Z</Time>
            <Position>
              <LatitudeDegrees>43.30035321414470672607421875</LatitudeDegrees>
              <LongitudeDegrees>-5.69162674248218536376953125</LongitudeDegrees>
            </Position>
            <AltitudeMeters>198.399993896484375</AltitudeMeters>
            <DistanceMeters>33260.219798811</DistanceMeters>
          </Trackpoint>
          <Trackpoint>
            <Time>2019-10-04T10:53:21.000Z</Time>
            <Position>
              <LatitudeDegrees>43.3003869093954563140869140625</LatitudeDegrees>
              <LongitudeDegrees>-5.6916622817516326904296875</LongitudeDegrees>
            </Position>
            <AltitudeMeters>198.600006103515625</AltitudeMeters>
            <DistanceMeters>33264.948273119</DistanceMeters>
          </Trackpoint>
          <Trackpoint>
            <Time>2019-10-04T10:53:25.000Z</Time>
            <Position>
              <LatitudeDegrees>43.300446756184101104736328125</LatitudeDegrees>
              <LongitudeDegrees>-5.6917496211826801300048828125</LongitudeDegrees>
            </Position>
            <AltitudeMeters>198.600006103515625</AltitudeMeters>
            <DistanceMeters>33274.665190289</DistanceMeters>
          </Trackpoint>
          <Trackpoint>
            <Time>2019-10-04T10:53:28.000Z</Time>
            <Position>
              <LatitudeDegrees>43.30049461685121059417724609375</LatitudeDegrees>
              <LongitudeDegrees>-5.691811479628086090087890625</LongitudeDegrees>
            </Position>
            <AltitudeMeters>198.600006103515625</AltitudeMeters>
            <DistanceMeters>33281.977926624</DistanceMeters>
          </Trackpoint>
          <Trackpoint>
            <Time>2019-10-04T10:53:37.000Z</Time>
            <Position>
              <LatitudeDegrees>43.3006346784532070159912109375</LatitudeDegrees>
              <LongitudeDegrees>-5.69200015626847743988037109375</LongitudeDegrees>
            </Position>
            <AltitudeMeters>198.1999969482421875</AltitudeMeters>
            <DistanceMeters>33303.808853644</DistanceMeters>
          </Trackpoint>
          <Trackpoint>
            <Time>2019-10-04T10:53:43.000Z</Time>
            <Position>
              <LatitudeDegrees>43.3007280528545379638671875</LatitudeDegrees>
              <LongitudeDegrees>-5.6921211071312427520751953125</LongitudeDegrees>
            </Position>
            <AltitudeMeters>198.399993896484375</AltitudeMeters>
            <DistanceMeters>33318.091340363</DistanceMeters>
          </Trackpoint>
          <Trackpoint>
            <Time>2019-10-04T10:53:48.000Z</Time>
            <Position>
              <LatitudeDegrees>43.30079955048859119415283203125</LatitudeDegrees>
              <LongitudeDegrees>-5.6922223605215549468994140625</LongitudeDegrees>
            </Position>
            <AltitudeMeters>198.1999969482421875</AltitudeMeters>
            <DistanceMeters>33329.519068288</DistanceMeters>
          </Trackpoint>
          <Trackpoint>
            <Time>2019-10-04T10:53:56.000Z</Time>
            <Position>
              <LatitudeDegrees>43.300914466381072998046875</LatitudeDegrees>
              <LongitudeDegrees>-5.69238270632922649383544921875</LongitudeDegrees>
            </Position>
            <AltitudeMeters>198.1999969482421875</AltitudeMeters>
            <DistanceMeters>33347.747857413</DistanceMeters>
          </Trackpoint>
          <Trackpoint>
            <Time>2019-10-04T10:53:58.000Z</Time>
            <Position>
              <LatitudeDegrees>43.3009427972137928009033203125</LatitudeDegrees>
              <LongitudeDegrees>-5.69242159835994243621826171875</LongitudeDegrees>
            </Position>
            <AltitudeMeters>198.600006103515625</AltitudeMeters>
            <DistanceMeters>33352.2050054</DistanceMeters>
          </Trackpoint>
          <Trackpoint>
            <Time>2019-10-04T10:54:08.000Z</Time>
            <Position>
              <LatitudeDegrees>43.3010494150221347808837890625</LatitudeDegrees>
              <LongitudeDegrees>-5.69266165606677532196044921875</LongitudeDegrees>
            </Position>
            <AltitudeMeters>197.8000030517578125</AltitudeMeters>
            <DistanceMeters>33374.985071313</DistanceMeters>
          </Trackpoint>
          <Trackpoint>
            <Time>2019-10-04T10:54:17.000Z</Time>
            <Position>
              <LatitudeDegrees>43.30112376250326633453369140625</LatitudeDegrees>
              <LongitudeDegrees>-5.6928862072527408599853515625</LongitudeDegrees>
            </Position>
            <AltitudeMeters>197.600006103515625</AltitudeMeters>
            <DistanceMeters>33394.968039322</DistanceMeters>
          </Trackpoint>
          <Trackpoint>
            <Time>2019-10-04T10:54:25.000Z</Time>
            <Position>
              <LatitudeDegrees>43.30117321573197841644287109375</LatitudeDegrees>
              <LongitudeDegrees>-5.69310204125940799713134765625</LongitudeDegrees>
            </Position>
            <AltitudeMeters>197.399993896484375</AltitudeMeters>
            <DistanceMeters>33413.29686727</DistanceMeters>
          </Trackpoint>
          <Trackpoint>
            <Time>2019-10-04T10:54:28.000Z</Time>
            <Position>
              <LatitudeDegrees>43.30118712969124317169189453125</LatitudeDegrees>
              <LongitudeDegrees>-5.693178735673427581787109375</LongitudeDegrees>
            </Position>
            <AltitudeMeters>197.1999969482421875</AltitudeMeters>
            <DistanceMeters>33419.699016673</DistanceMeters>
          </Trackpoint>
          <Trackpoint>
            <Time>2019-10-04T10:54:32.000Z</Time>
            <Position>
              <LatitudeDegrees>43.30120758153498172760009765625</LatitudeDegrees>
              <LongitudeDegrees>-5.69328644312918186187744140625</LongitudeDegrees>
            </Position>
            <AltitudeMeters>197.1999969482421875</AltitudeMeters>
            <DistanceMeters>33428.715544731</DistanceMeters>
          </Trackpoint>
          <Trackpoint>
            <Time>2019-10-04T10:54:40.000Z</Time>
            <Position>
              <LatitudeDegrees>43.30125669948756694793701171875</LatitudeDegrees>
              <LongitudeDegrees>-5.693534798920154571533203125</LongitudeDegrees>
            </Position>
            <AltitudeMeters>197</AltitudeMeters>
            <DistanceMeters>33449.562162177</DistanceMeters>
          </Trackpoint>
          <Trackpoint>
            <Time>2019-10-04T10:54:47.000Z</Time>
            <Position>
              <LatitudeDegrees>43.301321156322956085205078125</LatitudeDegrees>
              <LongitudeDegrees>-5.693721882998943328857421875</LongitudeDegrees>
            </Position>
            <AltitudeMeters>196.600006103515625</AltitudeMeters>
            <DistanceMeters>33466.328386549</DistanceMeters>
          </Trackpoint>
          <Trackpoint>
            <Time>2019-10-04T10:54:52.000Z</Time>
            <Position>
              <LatitudeDegrees>43.30137203447520732879638671875</LatitudeDegrees>
              <LongitudeDegrees>-5.69384970702230930328369140625</LongitudeDegrees>
            </Position>
            <AltitudeMeters>196.1999969482421875</AltitudeMeters>
            <DistanceMeters>33478.129694485</DistanceMeters>
          </Trackpoint>
          <Trackpoint>
            <Time>2019-10-04T10:54:56.000Z</Time>
            <Position>
              <LatitudeDegrees>43.30143003724515438079833984375</LatitudeDegrees>
              <LongitudeDegrees>-5.69392983801662921905517578125</LongitudeDegrees>
            </Position>
            <AltitudeMeters>195.8000030517578125</AltitudeMeters>
            <DistanceMeters>33487.284373042</DistanceMeters>
          </Trackpoint>
          <Trackpoint>
            <Time>2019-10-04T10:55:05.000Z</Time>
            <Position>
              <LatitudeDegrees>43.301546461880207061767578125</LatitudeDegrees>
              <LongitudeDegrees>-5.69412999786436557769775390625</LongitudeDegrees>
            </Position>
            <AltitudeMeters>195.399993896484375</AltitudeMeters>
            <DistanceMeters>33508.039390909</DistanceMeters>
          </Trackpoint>
          <Trackpoint>
            <Time>2019-10-04T10:55:07.000Z</Time>
            <Position>
              <LatitudeDegrees>43.30157336778938770294189453125</LatitudeDegrees>
              <LongitudeDegrees>-5.69417224265635013580322265625</LongitudeDegrees>
            </Position>
            <AltitudeMeters>195</AltitudeMeters>
            <DistanceMeters>33512.585801029</DistanceMeters>
          </Trackpoint>
          <Trackpoint>
            <Time>2019-10-04T10:55:15.000Z</Time>
            <Position>
              <LatitudeDegrees>43.30167688429355621337890625</LatitudeDegrees>
              <LongitudeDegrees>-5.69435295648872852325439453125</LongitudeDegrees>
            </Position>
            <AltitudeMeters>195.1999969482421875</AltitudeMeters>
            <DistanceMeters>33531.2139458</DistanceMeters>
          </Trackpoint>
          <Trackpoint>
            <Time>2019-10-04T10:55:22.000Z</Time>
            <Position>
              <LatitudeDegrees>43.301762044429779052734375</LatitudeDegrees>
              <LongitudeDegrees>-5.69450743496417999267578125</LongitudeDegrees>
            </Position>
            <AltitudeMeters>195.8000030517578125</AltitudeMeters>
            <DistanceMeters>33546.911484652</DistanceMeters>
          </Trackpoint>
          <Trackpoint>
            <Time>2019-10-04T10:55:25.000Z</Time>
            <Position>
              <LatitudeDegrees>43.3018017746508121490478515625</LatitudeDegrees>
              <LongitudeDegrees>-5.69457038305699825286865234375</LongitudeDegrees>
            </Position>
            <AltitudeMeters>196</AltitudeMeters>
            <DistanceMeters>33553.66038868</DistanceMeters>
          </Trackpoint>
          <Trackpoint>
            <Time>2019-10-04T10:55:30.000Z</Time>
            <Position>
              <LatitudeDegrees>43.3018760383129119873046875</LatitudeDegrees>
              <LongitudeDegrees>-5.69467683322727680206298828125</LongitudeDegrees>
            </Position>
            <AltitudeMeters>196.399993896484375</AltitudeMeters>
            <DistanceMeters>33565.604683458</DistanceMeters>
          </Trackpoint>
          <Trackpoint>
            <Time>2019-10-04T10:55:38.000Z</Time>
            <Position>
              <LatitudeDegrees>43.3019855059683322906494140625</LatitudeDegrees>
              <LongitudeDegrees>-5.6948636658489704132080078125</LongitudeDegrees>
            </Position>
            <AltitudeMeters>197</AltitudeMeters>
            <DistanceMeters>33585.033405894</DistanceMeters>
          </Trackpoint>
          <Trackpoint>
            <Time>2019-10-04T10:55:39.000Z</Time>
            <Position>
              <LatitudeDegrees>43.30200050957500934600830078125</LatitudeDegrees>
              <LongitudeDegrees>-5.6948871351778507232666015625</LongitudeDegrees>
            </Position>
            <AltitudeMeters>197.1999969482421875</AltitudeMeters>
            <DistanceMeters>33587.565471114</DistanceMeters>
          </Trackpoint>
          <Trackpoint>
            <Time>2019-10-04T10:55:47.000Z</Time>
            <Position>
              <LatitudeDegrees>43.30212104134261608123779296875</LatitudeDegrees>
              <LongitudeDegrees>-5.695071704685688018798828125</LongitudeDegrees>
            </Position>
            <AltitudeMeters>197.600006103515625</AltitudeMeters>
            <DistanceMeters>33607.652329396</DistanceMeters>
          </Trackpoint>
          <Trackpoint>
            <Time>2019-10-04T10:55:54.000Z</Time>
            <Position>
              <LatitudeDegrees>43.3022087998688220977783203125</LatitudeDegrees>
              <LongitudeDegrees>-5.695230960845947265625</LongitudeDegrees>
            </Position>
            <AltitudeMeters>197.8000030517578125</AltitudeMeters>
            <DistanceMeters>33623.832563519</DistanceMeters>
          </Trackpoint>
          <Trackpoint>
            <Time>2019-10-04T10:56:02.000Z</Time>
            <Position>
              <LatitudeDegrees>43.30228507518768310546875</LatitudeDegrees>
              <LongitudeDegrees>-5.69542483426630496978759765625</LongitudeDegrees>
            </Position>
            <AltitudeMeters>197.8000030517578125</AltitudeMeters>
            <DistanceMeters>33641.68393315</DistanceMeters>
          </Trackpoint>
          <Trackpoint>
            <Time>2019-10-04T10:56:05.000Z</Time>
            <Position>
              <LatitudeDegrees>43.3023016713559627532958984375</LatitudeDegrees>
              <LongitudeDegrees>-5.69550680927932262420654296875</LongitudeDegrees>
            </Position>
            <AltitudeMeters>198.1999969482421875</AltitudeMeters>
            <DistanceMeters>33648.575827091</DistanceMeters>
          </Trackpoint>
          <Trackpoint>
            <Time>2019-10-04T10:56:10.000Z</Time>
            <Position>
              <LatitudeDegrees>43.3023239672183990478515625</LatitudeDegrees>
              <LongitudeDegrees>-5.69564578123390674591064453125</LongitudeDegrees>
            </Position>
            <AltitudeMeters>198</AltitudeMeters>
            <DistanceMeters>33660.102688971</DistanceMeters>
          </Trackpoint>
          <Trackpoint>
            <Time>2019-10-04T10:56:18.000Z</Time>
            <Position>
              <LatitudeDegrees>43.30232597887516021728515625</LatitudeDegrees>
              <LongitudeDegrees>-5.695898830890655517578125</LongitudeDegrees>
            </Position>
            <AltitudeMeters>198.1999969482421875</AltitudeMeters>
            <DistanceMeters>33680.600724412</DistanceMeters>
          </Trackpoint>
          <Trackpoint>
            <Time>2019-10-04T10:56:27.000Z</Time>
            <Position>
              <LatitudeDegrees>43.30227543599903583526611328125</LatitudeDegrees>
              <LongitudeDegrees>-5.69618507288396358489990234375</LongitudeDegrees>
            </Position>
            <AltitudeMeters>198.1999969482421875</AltitudeMeters>
            <DistanceMeters>33704.459054167</DistanceMeters>
          </Trackpoint>
          <Trackpoint>
            <Time>2019-10-04T10:56:39.000Z</Time>
            <Position>
              <LatitudeDegrees>43.30216714181005954742431640625</LatitudeDegrees>
              <LongitudeDegrees>-5.6965413875877857208251953125</LongitudeDegrees>
            </Position>
            <AltitudeMeters>198</AltitudeMeters>
            <DistanceMeters>33735.736271139</DistanceMeters>
          </Trackpoint>
          <Trackpoint>
            <Time>2019-10-04T10:56:47.000Z</Time>
            <Position>
              <LatitudeDegrees>43.3020691573619842529296875</LatitudeDegrees>
              <LongitudeDegrees>-5.6967495940625667572021484375</LongitudeDegrees>
            </Position>
            <AltitudeMeters>197.8000030517578125</AltitudeMeters>
            <DistanceMeters>33755.819982315</DistanceMeters>
          </Trackpoint>
          <Trackpoint>
            <Time>2019-10-04T10:56:54.000Z</Time>
            <Position>
              <LatitudeDegrees>43.30199799500405788421630859375</LatitudeDegrees>
              <LongitudeDegrees>-5.6969408690929412841796875</LongitudeDegrees>
            </Position>
            <AltitudeMeters>198</AltitudeMeters>
            <DistanceMeters>33773.220512857</DistanceMeters>
          </Trackpoint>
          <Trackpoint>
            <Time>2019-10-04T10:57:05.000Z</Time>
            <Position>
              <LatitudeDegrees>43.30188668332993984222412109375</LatitudeDegrees>
              <LongitudeDegrees>-5.6972374208271503448486328125</LongitudeDegrees>
            </Position>
            <AltitudeMeters>198</AltitudeMeters>
            <DistanceMeters>33800.248054994</DistanceMeters>
          </Trackpoint>
          <Trackpoint>
            <Time>2019-10-04T10:57:13.000Z</Time>
            <Position>
              <LatitudeDegrees>43.30179230310022830963134765625</LatitudeDegrees>
              <LongitudeDegrees>-5.69744839332997798919677734375</LongitudeDegrees>
            </Position>
            <AltitudeMeters>198</AltitudeMeters>
            <DistanceMeters>33820.307471893</DistanceMeters>
          </Trackpoint>
          <Trackpoint>
            <Time>2019-10-04T10:57:22.000Z</Time>
            <Position>
              <LatitudeDegrees>43.30167160369455814361572265625</LatitudeDegrees>
              <LongitudeDegrees>-5.69768778048455715179443359375</LongitudeDegrees>
            </Position>
            <AltitudeMeters>198.8000030517578125</AltitudeMeters>
            <DistanceMeters>33843.897076188</DistanceMeters>
          </Trackpoint>
          <Trackpoint>
            <Time>2019-10-04T10:57:31.000Z</Time>
            <Position>
              <LatitudeDegrees>43.30153665505349636077880859375</LatitudeDegrees>
              <LongitudeDegrees>-5.69790151901543140411376953125</LongitudeDegrees>
            </Position>
            <AltitudeMeters>198.600006103515625</AltitudeMeters>
            <DistanceMeters>33866.81723603</DistanceMeters>
          </Trackpoint>
          <Trackpoint>
            <Time>2019-10-04T10:57:40.000Z</Time>
            <Position>
              <LatitudeDegrees>43.301413357257843017578125</LatitudeDegrees>
              <LongitudeDegrees>-5.69811894558370113372802734375</LongitudeDegrees>
            </Position>
            <AltitudeMeters>198.8000030517578125</AltitudeMeters>
            <DistanceMeters>33889.144267629</DistanceMeters>
          </Trackpoint>
          <Trackpoint>
            <Time>2019-10-04T10:57:43.000Z</Time>
            <Position>
              <LatitudeDegrees>43.3013753034174442291259765625</LatitudeDegrees>
              <LongitudeDegrees>-5.69819605909287929534912109375</LongitudeDegrees>
            </Position>
            <AltitudeMeters>199.399993896484375</AltitudeMeters>
            <DistanceMeters>33896.690968374</DistanceMeters>
          </Trackpoint>
          <Trackpoint>
            <Time>2019-10-04T10:57:49.000Z</Time>
            <Position>
              <LatitudeDegrees>43.301295675337314605712890625</LatitudeDegrees>
              <LongitudeDegrees>-5.69834123365581035614013671875</LongitudeDegrees>
            </Position>
            <AltitudeMeters>199.399993896484375</AltitudeMeters>
            <DistanceMeters>33911.415510317</DistanceMeters>
          </Trackpoint>
          <Trackpoint>
            <Time>2019-10-04T10:57:57.000Z</Time>
            <Position>
              <LatitudeDegrees>43.30119417048990726470947265625</LatitudeDegrees>
              <LongitudeDegrees>-5.69854374043643474578857421875</LongitudeDegrees>
            </Position>
            <AltitudeMeters>199.600006103515625</AltitudeMeters>
            <DistanceMeters>33931.333073379</DistanceMeters>
          </Trackpoint>
          <Trackpoint>
            <Time>2019-10-04T10:58:06.000Z</Time>
            <Position>
              <LatitudeDegrees>43.30109459348022937774658203125</LatitudeDegrees>
              <LongitudeDegrees>-5.6987780146300792694091796875</LongitudeDegrees>
            </Position>
            <AltitudeMeters>199.8000030517578125</AltitudeMeters>
            <DistanceMeters>33953.309118254</DistanceMeters>
          </Trackpoint>
          <Trackpoint>
            <Time>2019-10-04T10:58:14.000Z</Time>
            <Position>
              <LatitudeDegrees>43.3010433800518512725830078125</LatitudeDegrees>
              <LongitudeDegrees>-5.69902586750686168670654296875</LongitudeDegrees>
            </Position>
            <AltitudeMeters>199.600006103515625</AltitudeMeters>
            <DistanceMeters>33974.178680949</DistanceMeters>
          </Trackpoint>
          <Trackpoint>
            <Time>2019-10-04T10:58:21.000Z</Time>
            <Position>
              <LatitudeDegrees>43.300999291241168975830078125</LatitudeDegrees>
              <LongitudeDegrees>-5.69923407398164272308349609375</LongitudeDegrees>
            </Position>
            <AltitudeMeters>200</AltitudeMeters>
            <DistanceMeters>33991.742949554</DistanceMeters>
          </Trackpoint>
          <Trackpoint>
            <Time>2019-10-04T10:58:28.000Z</Time>
            <Position>
              <LatitudeDegrees>43.30096333287656307220458984375</LatitudeDegrees>
              <LongitudeDegrees>-5.69943859241902828216552734375</LongitudeDegrees>
            </Position>
            <AltitudeMeters>200.399993896484375</AltitudeMeters>
            <DistanceMeters>34008.785878847</DistanceMeters>
          </Trackpoint>
          <Trackpoint>
            <Time>2019-10-04T10:58:31.000Z</Time>
            <Position>
              <LatitudeDegrees>43.30093751661479473114013671875</LatitudeDegrees>
              <LongitudeDegrees>-5.69952006451785564422607421875</LongitudeDegrees>
            </Position>
            <AltitudeMeters>200.8000030517578125</AltitudeMeters>
            <DistanceMeters>34015.984113258</DistanceMeters>
          </Trackpoint>
          <Trackpoint>
            <Time>2019-10-04T10:58:39.000Z</Time>
            <Position>
              <LatitudeDegrees>43.300866521894931793212890625</LatitudeDegrees>
              <LongitudeDegrees>-5.69974176585674285888671875</LongitudeDegrees>
            </Position>
            <AltitudeMeters>201.399993896484375</AltitudeMeters>
            <DistanceMeters>34035.603620606</DistanceMeters>
          </Trackpoint>
          <Trackpoint>
            <Time>2019-10-04T10:58:40.000Z</Time>
            <Position>
              <LatitudeDegrees>43.30085344612598419189453125</LatitudeDegrees>
              <LongitudeDegrees>-5.6997680850327014923095703125</LongitudeDegrees>
            </Position>
            <AltitudeMeters>201.600006103515625</AltitudeMeters>
            <DistanceMeters>34038.181630742</DistanceMeters>
          </Trackpoint>
          <Trackpoint>
            <Time>2019-10-04T10:58:48.000Z</Time>
            <Position>
              <LatitudeDegrees>43.3007248677313327789306640625</LatitudeDegrees>
              <LongitudeDegrees>-5.69995005615055561065673828125</LongitudeDegrees>
            </Position>
            <AltitudeMeters>202.600006103515625</AltitudeMeters>
            <DistanceMeters>34058.725870154</DistanceMeters>
          </Trackpoint>
          <Trackpoint>
            <Time>2019-10-04T10:58:56.000Z</Time>
            <Position>
              <LatitudeDegrees>43.3005646057426929473876953125</LatitudeDegrees>
              <LongitudeDegrees>-5.70006765425205230712890625</LongitudeDegrees>
            </Position>
            <AltitudeMeters>203.1999969482421875</AltitudeMeters>
            <DistanceMeters>34078.947590696</DistanceMeters>
          </Trackpoint>
          <Trackpoint>
            <Time>2019-10-04T10:59:00.000Z</Time>
            <Position>
              <LatitudeDegrees>43.30047927796840667724609375</LatitudeDegrees>
              <LongitudeDegrees>-5.7001134194433689117431640625</LongitudeDegrees>
            </Position>
            <AltitudeMeters>203.8000030517578125</AltitudeMeters>
            <DistanceMeters>34089.142500203</DistanceMeters>
          </Trackpoint>
          <Trackpoint>
            <Time>2019-10-04T10:59:07.000Z</Time>
            <Position>
              <LatitudeDegrees>43.30032463185489177703857421875</LatitudeDegrees>
              <LongitudeDegrees>-5.70017552934587001800537109375</LongitudeDegrees>
            </Position>
            <AltitudeMeters>204.8000030517578125</AltitudeMeters>
            <DistanceMeters>34107.0751264</DistanceMeters>
          </Trackpoint>
          <Trackpoint>
            <Time>2019-10-04T10:59:14.000Z</Time>
            <Position>
              <LatitudeDegrees>43.300172500312328338623046875</LatitudeDegrees>
              <LongitudeDegrees>-5.70023789070546627044677734375</LongitudeDegrees>
            </Position>
            <AltitudeMeters>205.399993896484375</AltitudeMeters>
            <DistanceMeters>34124.745496608</DistanceMeters>
          </Trackpoint>
          <Trackpoint>
            <Time>2019-10-04T10:59:15.000Z</Time>
            <Position>
              <LatitudeDegrees>43.30015062354505062103271484375</LatitudeDegrees>
              <LongitudeDegrees>-5.700240992009639739990234375</LongitudeDegrees>
            </Position>
            <AltitudeMeters>205.399993896484375</AltitudeMeters>
            <DistanceMeters>34127.194163747</DistanceMeters>
          </Trackpoint>
          <Trackpoint>
            <Time>2019-10-04T10:59:19.000Z</Time>
            <Position>
              <LatitudeDegrees>43.3000650443136692047119140625</LatitudeDegrees>
              <LongitudeDegrees>-5.70026068948209285736083984375</LongitudeDegrees>
            </Position>
            <AltitudeMeters>205.8000030517578125</AltitudeMeters>
            <DistanceMeters>34136.852356625</DistanceMeters>
          </Trackpoint>
          <Trackpoint>
            <Time>2019-10-04T10:59:24.000Z</Time>
            <Position>
              <LatitudeDegrees>43.2999574206769466400146484375</LatitudeDegrees>
              <LongitudeDegrees>-5.700279884040355682373046875</LongitudeDegrees>
            </Position>
            <AltitudeMeters>206</AltitudeMeters>
            <DistanceMeters>34148.930846391</DistanceMeters>
          </Trackpoint>
          <Trackpoint>
            <Time>2019-10-04T10:59:32.000Z</Time>
            <Position>
              <LatitudeDegrees>43.2997830770909786224365234375</LatitudeDegrees>
              <LongitudeDegrees>-5.70031642913818359375</LongitudeDegrees>
            </Position>
            <AltitudeMeters>207</AltitudeMeters>
            <DistanceMeters>34168.560016822</DistanceMeters>
          </Trackpoint>
          <Trackpoint>
            <Time>2019-10-04T10:59:34.000Z</Time>
            <Position>
              <LatitudeDegrees>43.2997361384332180023193359375</LatitudeDegrees>
              <LongitudeDegrees>-5.700315423309803009033203125</LongitudeDegrees>
            </Position>
            <AltitudeMeters>207.399993896484375</AltitudeMeters>
            <DistanceMeters>34173.784758068</DistanceMeters>
          </Trackpoint>
          <Trackpoint>
            <Time>2019-10-04T10:59:41.000Z</Time>
            <Position>
              <LatitudeDegrees>43.29958065412938594818115234375</LatitudeDegrees>
              <LongitudeDegrees>-5.70030410774052143096923828125</LongitudeDegrees>
            </Position>
            <AltitudeMeters>208.1999969482421875</AltitudeMeters>
            <DistanceMeters>34191.114567137</DistanceMeters>
          </Trackpoint>
          <Trackpoint>
            <Time>2019-10-04T10:59:44.000Z</Time>
            <Position>
              <LatitudeDegrees>43.2995118387043476104736328125</LatitudeDegrees>
              <LongitudeDegrees>-5.700295977294445037841796875</LongitudeDegrees>
            </Position>
            <AltitudeMeters>208.399993896484375</AltitudeMeters>
            <DistanceMeters>34198.801752594</DistanceMeters>
          </Trackpoint>
          <Trackpoint>
            <Time>2019-10-04T10:59:52.000Z</Time>
            <Position>
              <LatitudeDegrees>43.299329280853271484375</LatitudeDegrees>
              <LongitudeDegrees>-5.700252391397953033447265625</LongitudeDegrees>
            </Position>
            <AltitudeMeters>209.399993896484375</AltitudeMeters>
            <DistanceMeters>34219.425176912</DistanceMeters>
          </Trackpoint>
          <Trackpoint>
            <Time>2019-10-04T10:59:54.000Z</Time>
            <Position>
              <LatitudeDegrees>43.2992841862142086029052734375</LatitudeDegrees>
              <LongitudeDegrees>-5.7002445124089717864990234375</LongitudeDegrees>
            </Position>
            <AltitudeMeters>209.1999969482421875</AltitudeMeters>
            <DistanceMeters>34224.483955089</DistanceMeters>
          </Trackpoint>
          <Trackpoint>
            <Time>2019-10-04T11:00:05.000Z</Time>
            <Position>
              <LatitudeDegrees>43.29901889897882938385009765625</LatitudeDegrees>
              <LongitudeDegrees>-5.700187347829341888427734375</LongitudeDegrees>
            </Position>
            <AltitudeMeters>209.8000030517578125</AltitudeMeters>
            <DistanceMeters>34254.371933979</DistanceMeters>
          </Trackpoint>
          <Trackpoint>
            <Time>2019-10-04T11:00:10.000Z</Time>
            <Position>
              <LatitudeDegrees>43.29890750348567962646484375</LatitudeDegrees>
              <LongitudeDegrees>-5.70016957819461822509765625</LongitudeDegrees>
            </Position>
            <AltitudeMeters>210.399993896484375</AltitudeMeters>
            <DistanceMeters>34266.853757118</DistanceMeters>
          </Trackpoint>
          <Trackpoint>
            <Time>2019-10-04T11:00:14.000Z</Time>
            <Position>
              <LatitudeDegrees>43.2988129556179046630859375</LatitudeDegrees>
              <LongitudeDegrees>-5.70017636753618717193603515625</LongitudeDegrees>
            </Position>
            <AltitudeMeters>210.399993896484375</AltitudeMeters>
            <DistanceMeters>34277.391015773</DistanceMeters>
          </Trackpoint>
          <Trackpoint>
            <Time>2019-10-04T11:00:24.000Z</Time>
            <Position>
              <LatitudeDegrees>43.29858639277517795562744140625</LatitudeDegrees>
              <LongitudeDegrees>-5.70025398395955562591552734375</LongitudeDegrees>
            </Position>
            <AltitudeMeters>211</AltitudeMeters>
            <DistanceMeters>34303.380083818</DistanceMeters>
          </Trackpoint>
          <Trackpoint>
            <Time>2019-10-04T11:00:32.000Z</Time>
            <Position>
              <LatitudeDegrees>43.29842629842460155487060546875</LatitudeDegrees>
              <LongitudeDegrees>-5.700374431908130645751953125</LongitudeDegrees>
            </Position>
            <AltitudeMeters>211.399993896484375</AltitudeMeters>
            <DistanceMeters>34323.695141872</DistanceMeters>
          </Trackpoint>
          <Trackpoint>
            <Time>2019-10-04T11:00:33.000Z</Time>
            <Position>
              <LatitudeDegrees>43.29840450547635555267333984375</LatitudeDegrees>
              <LongitudeDegrees>-5.7003910280764102935791015625</LongitudeDegrees>
            </Position>
            <AltitudeMeters>211.600006103515625</AltitudeMeters>
            <DistanceMeters>34326.467252089</DistanceMeters>
          </Trackpoint>
          <Trackpoint>
            <Time>2019-10-04T11:00:44.000Z</Time>
            <Position>
              <LatitudeDegrees>43.29818456433713436126708984375</LatitudeDegrees>
              <LongitudeDegrees>-5.7005338557064533233642578125</LongitudeDegrees>
            </Position>
            <AltitudeMeters>210.399993896484375</AltitudeMeters>
            <DistanceMeters>34353.543529829</DistanceMeters>
          </Trackpoint>
          <Trackpoint>
            <Time>2019-10-04T11:00:45.000Z</Time>
            <Position>
              <LatitudeDegrees>43.29816344194114208221435546875</LatitudeDegrees>
              <LongitudeDegrees>-5.700546093285083770751953125</LongitudeDegrees>
            </Position>
            <AltitudeMeters>210.399993896484375</AltitudeMeters>
            <DistanceMeters>34356.095134249</DistanceMeters>
          </Trackpoint>
          <Trackpoint>
            <Time>2019-10-04T11:00:51.000Z</Time>
            <Position>
              <LatitudeDegrees>43.298038803040981292724609375</LatitudeDegrees>
              <LongitudeDegrees>-5.7006354443728923797607421875</LongitudeDegrees>
            </Position>
            <AltitudeMeters>209.1999969482421875</AltitudeMeters>
            <DistanceMeters>34371.742545942</DistanceMeters>
          </Trackpoint>
          <Trackpoint>
            <Time>2019-10-04T11:00:56.000Z</Time>
            <Position>
              <LatitudeDegrees>43.297931514680385589599609375</LatitudeDegrees>
              <LongitudeDegrees>-5.7007018290460109710693359375</LongitudeDegrees>
            </Position>
            <AltitudeMeters>209.1999969482421875</AltitudeMeters>
            <DistanceMeters>34384.838661469</DistanceMeters>
          </Trackpoint>
          <Trackpoint>
            <Time>2019-10-04T11:01:05.000Z</Time>
            <Position>
              <LatitudeDegrees>43.29774887301027774810791015625</LatitudeDegrees>
              <LongitudeDegrees>-5.700845159590244293212890625</LongitudeDegrees>
            </Position>
            <AltitudeMeters>210.399993896484375</AltitudeMeters>
            <DistanceMeters>34408.24881609</DistanceMeters>
          </Trackpoint>
          <Trackpoint>
            <Time>2019-10-04T11:01:10.000Z</Time>
            <Position>
              <LatitudeDegrees>43.2976480387151241302490234375</LatitudeDegrees>
              <LongitudeDegrees>-5.70092202164232730865478515625</LongitudeDegrees>
            </Position>
            <AltitudeMeters>210.8000030517578125</AltitudeMeters>
            <DistanceMeters>34421.083404299</DistanceMeters>
          </Trackpoint>
          <Trackpoint>
            <Time>2019-10-04T11:01:16.000Z</Time>
            <Position>
              <LatitudeDegrees>43.29752222634851932525634765625</LatitudeDegrees>
              <LongitudeDegrees>-5.70101187564432621002197265625</LongitudeDegrees>
            </Position>
            <AltitudeMeters>211.399993896484375</AltitudeMeters>
            <DistanceMeters>34436.865278981</DistanceMeters>
          </Trackpoint>
          <Trackpoint>
            <Time>2019-10-04T11:01:23.000Z</Time>
            <Position>
              <LatitudeDegrees>43.2973804883658885955810546875</LatitudeDegrees>
              <LongitudeDegrees>-5.7011001370847225189208984375</LongitudeDegrees>
            </Position>
            <AltitudeMeters>212.399993896484375</AltitudeMeters>
            <DistanceMeters>34454.185706217</DistanceMeters>
          </Trackpoint>
          <Trackpoint>
            <Time>2019-10-04T11:01:28.000Z</Time>
            <Position>
              <LatitudeDegrees>43.29727412201464176177978515625</LatitudeDegrees>
              <LongitudeDegrees>-5.70114581845700740814208984375</LongitudeDegrees>
            </Position>
            <AltitudeMeters>213.399993896484375</AltitudeMeters>
            <DistanceMeters>34466.589513795</DistanceMeters>
          </Trackpoint>
          <Trackpoint>
            <Time>2019-10-04T11:01:31.000Z</Time>
            <Position>
              <LatitudeDegrees>43.29720857553184032440185546875</LatitudeDegrees>
              <LongitudeDegrees>-5.70116861723363399505615234375</LongitudeDegrees>
            </Position>
            <AltitudeMeters>213.399993896484375</AltitudeMeters>
            <DistanceMeters>34474.115245617</DistanceMeters>
          </Trackpoint>
          <Trackpoint>
            <Time>2019-10-04T11:01:35.000Z</Time>
            <Position>
              <LatitudeDegrees>43.2971226610243320465087890625</LatitudeDegrees>
              <LongitudeDegrees>-5.70119376294314861297607421875</LongitudeDegrees>
            </Position>
            <AltitudeMeters>214.1999969482421875</AltitudeMeters>
            <DistanceMeters>34483.891919855</DistanceMeters>
          </Trackpoint>
          <Trackpoint>
            <Time>2019-10-04T11:01:37.000Z</Time>
            <Position>
              <LatitudeDegrees>43.29707865603268146514892578125</LatitudeDegrees>
              <LongitudeDegrees>-5.7011956907808780670166015625</LongitudeDegrees>
            </Position>
            <AltitudeMeters>214.600006103515625</AltitudeMeters>
            <DistanceMeters>34488.792940498</DistanceMeters>
          </Trackpoint>
          <Trackpoint>
            <Time>2019-10-04T11:01:44.000Z</Time>
            <Position>
              <LatitudeDegrees>43.2969168014824390411376953125</LatitudeDegrees>
              <LongitudeDegrees>-5.701149590313434600830078125</LongitudeDegrees>
            </Position>
            <AltitudeMeters>215.600006103515625</AltitudeMeters>
            <DistanceMeters>34507.190858463</DistanceMeters>
          </Trackpoint>
          <Trackpoint>
            <Time>2019-10-04T11:01:45.000Z</Time>
            <Position>
              <LatitudeDegrees>43.29689391888678073883056640625</LatitudeDegrees>
              <LongitudeDegrees>-5.7011385262012481689453125</LongitudeDegrees>
            </Position>
            <AltitudeMeters>215.8000030517578125</AltitudeMeters>
            <DistanceMeters>34509.890353173</DistanceMeters>
          </Trackpoint>
          <Trackpoint>
            <Time>2019-10-04T11:01:50.000Z</Time>
            <Position>
              <LatitudeDegrees>43.29678453505039215087890625</LatitudeDegrees>
              <LongitudeDegrees>-5.70108328945934772491455078125</LongitudeDegrees>
            </Position>
            <AltitudeMeters>216.399993896484375</AltitudeMeters>
            <DistanceMeters>34522.861412663</DistanceMeters>
          </Trackpoint>
          <Trackpoint>
            <Time>2019-10-04T11:01:54.000Z</Time>
            <Position>
              <LatitudeDegrees>43.2967008836567401885986328125</LatitudeDegrees>
              <LongitudeDegrees>-5.701030232012271881103515625</LongitudeDegrees>
            </Position>
            <AltitudeMeters>217</AltitudeMeters>
            <DistanceMeters>34533.116375865</DistanceMeters>
          </Trackpoint>
          <Trackpoint>
            <Time>2019-10-04T11:01:57.000Z</Time>
            <Position>
              <LatitudeDegrees>43.29663776792585849761962890625</LatitudeDegrees>
              <LongitudeDegrees>-5.7009923458099365234375</LongitudeDegrees>
            </Position>
            <AltitudeMeters>217.399993896484375</AltitudeMeters>
            <DistanceMeters>34540.782976648</DistanceMeters>
          </Trackpoint>
          <Trackpoint>
            <Time>2019-10-04T11:02:01.000Z</Time>
            <Position>
              <LatitudeDegrees>43.29655378125607967376708984375</LatitudeDegrees>
              <LongitudeDegrees>-5.70093677379190921783447265625</LongitudeDegrees>
            </Position>
            <AltitudeMeters>218.1999969482421875</AltitudeMeters>
            <DistanceMeters>34551.158745119</DistanceMeters>
          </Trackpoint>
          <Trackpoint>
            <Time>2019-10-04T11:02:07.000Z</Time>
            <Position>
              <LatitudeDegrees>43.2964232750236988067626953125</LatitudeDegrees>
              <LongitudeDegrees>-5.70086100138723850250244140625</LongitudeDegrees>
            </Position>
            <AltitudeMeters>218.600006103515625</AltitudeMeters>
            <DistanceMeters>34566.928026812</DistanceMeters>
          </Trackpoint>
          <Trackpoint>
            <Time>2019-10-04T11:02:12.000Z</Time>
            <Position>
              <LatitudeDegrees>43.29632696695625782012939453125</LatitudeDegrees>
              <LongitudeDegrees>-5.7008121348917484283447265625</LongitudeDegrees>
            </Position>
            <AltitudeMeters>219</AltitudeMeters>
            <DistanceMeters>34578.35496452</DistanceMeters>
          </Trackpoint>
          <Trackpoint>
            <Time>2019-10-04T11:02:14.000Z</Time>
            <Position>
              <LatitudeDegrees>43.2962901704013347625732421875</LatitudeDegrees>
              <LongitudeDegrees>-5.7007947005331516265869140625</LongitudeDegrees>
            </Position>
            <AltitudeMeters>219.1999969482421875</AltitudeMeters>
            <DistanceMeters>34582.686765399</DistanceMeters>
          </Trackpoint>
          <Trackpoint>
            <Time>2019-10-04T11:02:20.000Z</Time>
            <Position>
              <LatitudeDegrees>43.296175338327884674072265625</LatitudeDegrees>
              <LongitudeDegrees>-5.70073057897388935089111328125</LongitudeDegrees>
            </Position>
            <AltitudeMeters>218.8000030517578125</AltitudeMeters>
            <DistanceMeters>34596.482667733</DistanceMeters>
          </Trackpoint>
          <Trackpoint>
            <Time>2019-10-04T11:02:22.000Z</Time>
            <Position>
              <LatitudeDegrees>43.29613083042204380035400390625</LatitudeDegrees>
              <LongitudeDegrees>-5.7007024995982646942138671875</LongitudeDegrees>
            </Position>
            <AltitudeMeters>217.8000030517578125</AltitudeMeters>
            <DistanceMeters>34601.933259581</DistanceMeters>
          </Trackpoint>
          <Trackpoint>
            <Time>2019-10-04T11:02:25.000Z</Time>
            <Position>
              <LatitudeDegrees>43.29605757258832454681396484375</LatitudeDegrees>
              <LongitudeDegrees>-5.700641982257366180419921875</LongitudeDegrees>
            </Position>
            <AltitudeMeters>219</AltitudeMeters>
            <DistanceMeters>34611.44732739</DistanceMeters>
          </Trackpoint>
          <Trackpoint>
            <Time>2019-10-04T11:02:27.000Z</Time>
            <Position>
              <LatitudeDegrees>43.29600878991186618804931640625</LatitudeDegrees>
              <LongitudeDegrees>-5.70061407051980495452880859375</LongitudeDegrees>
            </Position>
            <AltitudeMeters>218.1999969482421875</AltitudeMeters>
            <DistanceMeters>34617.329780359</DistanceMeters>
          </Trackpoint>
          <Trackpoint>
            <Time>2019-10-04T11:02:29.000Z</Time>
            <Position>
              <LatitudeDegrees>43.29596780240535736083984375</LatitudeDegrees>
              <LongitudeDegrees>-5.70059210993349552154541015625</LongitudeDegrees>
            </Position>
            <AltitudeMeters>218</AltitudeMeters>
            <DistanceMeters>34622.227114638</DistanceMeters>
          </Trackpoint>
          <Trackpoint>
            <Time>2019-10-04T11:02:35.000Z</Time>
            <Position>
              <LatitudeDegrees>43.2958328537642955780029296875</LatitudeDegrees>
              <LongitudeDegrees>-5.70050829090178012847900390625</LongitudeDegrees>
            </Position>
            <AltitudeMeters>217.399993896484375</AltitudeMeters>
            <DistanceMeters>34638.710346725</DistanceMeters>
          </Trackpoint>
          <Trackpoint>
            <Time>2019-10-04T11:02:36.000Z</Time>
            <Position>
              <LatitudeDegrees>43.29581064172089099884033203125</LatitudeDegrees>
              <LongitudeDegrees>-5.7004947960376739501953125</LongitudeDegrees>
            </Position>
            <AltitudeMeters>216.8000030517578125</AltitudeMeters>
            <DistanceMeters>34641.414854429</DistanceMeters>
          </Trackpoint>
          <Trackpoint>
            <Time>2019-10-04T11:02:40.000Z</Time>
            <Position>
              <LatitudeDegrees>43.29572380520403385162353515625</LatitudeDegrees>
              <LongitudeDegrees>-5.7004624418914318084716796875</LongitudeDegrees>
            </Position>
            <AltitudeMeters>217.1999969482421875</AltitudeMeters>
            <DistanceMeters>34651.429245523</DistanceMeters>
          </Trackpoint>
          <Trackpoint>
            <Time>2019-10-04T11:02:42.000Z</Time>
            <Position>
              <LatitudeDegrees>43.2956774532794952392578125</LatitudeDegrees>
              <LongitudeDegrees>-5.70044643245637416839599609375</LongitudeDegrees>
            </Position>
            <AltitudeMeters>218</AltitudeMeters>
            <DistanceMeters>34656.749044352</DistanceMeters>
          </Trackpoint>
          <Trackpoint>
            <Time>2019-10-04T11:02:47.000Z</Time>
            <Position>
              <LatitudeDegrees>43.295557089149951934814453125</LatitudeDegrees>
              <LongitudeDegrees>-5.7004141621291637420654296875</LongitudeDegrees>
            </Position>
            <AltitudeMeters>217.399993896484375</AltitudeMeters>
            <DistanceMeters>34670.398532884</DistanceMeters>
          </Trackpoint>
          <Trackpoint>
            <Time>2019-10-04T11:02:48.000Z</Time>
            <Position>
              <LatitudeDegrees>43.29553554765880107879638671875</LatitudeDegrees>
              <LongitudeDegrees>-5.70041525177657604217529296875</LongitudeDegrees>
            </Position>
            <AltitudeMeters>217.399993896484375</AltitudeMeters>
            <DistanceMeters>34672.798780532</DistanceMeters>
          </Trackpoint>
          <Trackpoint>
            <Time>2019-10-04T11:02:51.000Z</Time>
            <Position>
              <LatitudeDegrees>43.29546597786247730255126953125</LatitudeDegrees>
              <LongitudeDegrees>-5.70042732171714305877685546875</LongitudeDegrees>
            </Position>
            <AltitudeMeters>216.8000030517578125</AltitudeMeters>
            <DistanceMeters>34680.603129679</DistanceMeters>
          </Trackpoint>
          <Trackpoint>
            <Time>2019-10-04T11:02:52.000Z</Time>
            <Position>
              <LatitudeDegrees>43.29544200561940670013427734375</LatitudeDegrees>
              <LongitudeDegrees>-5.70043637417256832122802734375</LongitudeDegrees>
            </Position>
            <AltitudeMeters>217</AltitudeMeters>
            <DistanceMeters>34683.368717275</DistanceMeters>
          </Trackpoint>
          <Trackpoint>
            <Time>2019-10-04T11:02:58.000Z</Time>
            <Position>
              <LatitudeDegrees>43.29531879164278507232666015625</LatitudeDegrees>
              <LongitudeDegrees>-5.70053846575319766998291015625</LongitudeDegrees>
            </Position>
            <AltitudeMeters>216.600006103515625</AltitudeMeters>
            <DistanceMeters>34699.383467699</DistanceMeters>
          </Trackpoint>
          <Trackpoint>
            <Time>2019-10-04T11:03:02.000Z</Time>
            <Position>
              <LatitudeDegrees>43.29525743611156940460205078125</LatitudeDegrees>
              <LongitudeDegrees>-5.7006320916116237640380859375</LongitudeDegrees>
            </Position>
            <AltitudeMeters>216.8000030517578125</AltitudeMeters>
            <DistanceMeters>34709.589442997</DistanceMeters>
          </Trackpoint>
          <Trackpoint>
            <Time>2019-10-04T11:03:05.000Z</Time>
            <Position>
              <LatitudeDegrees>43.29522323794662952423095703125</LatitudeDegrees>
              <LongitudeDegrees>-5.70071180351078510284423828125</LongitudeDegrees>
            </Position>
            <AltitudeMeters>217.1999969482421875</AltitudeMeters>
            <DistanceMeters>34717.085719787</DistanceMeters>
          </Trackpoint>
          <Trackpoint>
            <Time>2019-10-04T11:03:11.000Z</Time>
            <Position>
              <LatitudeDegrees>43.29520781524479389190673828125</LatitudeDegrees>
              <LongitudeDegrees>-5.70088178850710391998291015625</LongitudeDegrees>
            </Position>
            <AltitudeMeters>218</AltitudeMeters>
            <DistanceMeters>34730.962548681</DistanceMeters>
          </Trackpoint>
          <Trackpoint>
            <Time>2019-10-04T11:03:12.000Z</Time>
            <Position>
              <LatitudeDegrees>43.29521401785314083099365234375</LatitudeDegrees>
              <LongitudeDegrees>-5.7009086944162845611572265625</LongitudeDegrees>
            </Position>
            <AltitudeMeters>218</AltitudeMeters>
            <DistanceMeters>34733.247145842</DistanceMeters>
          </Trackpoint>
          <Trackpoint>
            <Time>2019-10-04T11:03:16.000Z</Time>
            <Position>
              <LatitudeDegrees>43.29525391571223735809326171875</LatitudeDegrees>
              <LongitudeDegrees>-5.70102193392813205718994140625</LongitudeDegrees>
            </Position>
            <AltitudeMeters>219</AltitudeMeters>
            <DistanceMeters>34743.438954775</DistanceMeters>
          </Trackpoint>
          <Trackpoint>
            <Time>2019-10-04T11:03:20.000Z</Time>
            <Position>
              <LatitudeDegrees>43.295319043099880218505859375</LatitudeDegrees>
              <LongitudeDegrees>-5.70112201385200023651123046875</LongitudeDegrees>
            </Position>
            <AltitudeMeters>219.8000030517578125</AltitudeMeters>
            <DistanceMeters>34754.314429076</DistanceMeters>
          </Trackpoint>
          <Trackpoint>
            <Time>2019-10-04T11:03:23.000Z</Time>
            <Position>
              <LatitudeDegrees>43.29537008889019489288330078125</LatitudeDegrees>
              <LongitudeDegrees>-5.701187811791896820068359375</LongitudeDegrees>
            </Position>
            <AltitudeMeters>220.1999969482421875</AltitudeMeters>
            <DistanceMeters>34762.104301585</DistanceMeters>
          </Trackpoint>
          <Trackpoint>
            <Time>2019-10-04T11:03:27.000Z</Time>
            <Position>
              <LatitudeDegrees>43.29543211497366428375244140625</LatitudeDegrees>
              <LongitudeDegrees>-5.70126752369105815887451171875</LongitudeDegrees>
            </Position>
            <AltitudeMeters>221.399993896484375</AltitudeMeters>
            <DistanceMeters>34771.556474686</DistanceMeters>
          </Trackpoint>
          <Trackpoint>
            <Time>2019-10-04T11:03:28.000Z</Time>
            <Position>
              <LatitudeDegrees>43.29544745385646820068359375</LatitudeDegrees>
              <LongitudeDegrees>-5.7012865506112575531005859375</LongitudeDegrees>
            </Position>
            <AltitudeMeters>221.1999969482421875</AltitudeMeters>
            <DistanceMeters>34773.852899003</DistanceMeters>
          </Trackpoint>
          <Trackpoint>
            <Time>2019-10-04T11:03:35.000Z</Time>
            <Position>
              <LatitudeDegrees>43.29555080272257328033447265625</LatitudeDegrees>
              <LongitudeDegrees>-5.70142074488103389739990234375</LongitudeDegrees>
            </Position>
            <AltitudeMeters>222.399993896484375</AltitudeMeters>
            <DistanceMeters>34789.679911373</DistanceMeters>
          </Trackpoint>
          <Trackpoint>
            <Time>2019-10-04T11:03:40.000Z</Time>
            <Position>
              <LatitudeDegrees>43.29562984406948089599609375</LatitudeDegrees>
              <LongitudeDegrees>-5.70150925777852535247802734375</LongitudeDegrees>
            </Position>
            <AltitudeMeters>223.600006103515625</AltitudeMeters>
            <DistanceMeters>34801.029936507</DistanceMeters>
          </Trackpoint>
          <Trackpoint>
            <Time>2019-10-04T11:03:42.000Z</Time>
            <Position>
              <LatitudeDegrees>43.29566211439669132232666015625</LatitudeDegrees>
              <LongitudeDegrees>-5.7015403546392917633056640625</LongitudeDegrees>
            </Position>
            <AltitudeMeters>224</AltitudeMeters>
            <DistanceMeters>34805.41766063</DistanceMeters>
          </Trackpoint>
          <Trackpoint>
            <Time>2019-10-04T11:03:46.000Z</Time>
            <Position>
              <LatitudeDegrees>43.29573134891688823699951171875</LatitudeDegrees>
              <LongitudeDegrees>-5.701606571674346923828125</LongitudeDegrees>
            </Position>
            <AltitudeMeters>224.600006103515625</AltitudeMeters>
            <DistanceMeters>34814.806569312</DistanceMeters>
          </Trackpoint>
          <Trackpoint>
            <Time>2019-10-04T11:03:49.000Z</Time>
            <Position>
              <LatitudeDegrees>43.29577962867915630340576171875</LatitudeDegrees>
              <LongitudeDegrees>-5.7016623951494693756103515625</LongitudeDegrees>
            </Position>
            <AltitudeMeters>225.1999969482421875</AltitudeMeters>
            <DistanceMeters>34821.830194275</DistanceMeters>
          </Trackpoint>
          <Trackpoint>
            <Time>2019-10-04T11:03:50.000Z</Time>
            <Position>
              <LatitudeDegrees>43.2957953028380870819091796875</LatitudeDegrees>
              <LongitudeDegrees>-5.70167873986065387725830078125</LongitudeDegrees>
            </Position>
            <AltitudeMeters>225.399993896484375</AltitudeMeters>
            <DistanceMeters>34824.019936404</DistanceMeters>
          </Trackpoint>
          <Trackpoint>
            <Time>2019-10-04T11:03:51.000Z</Time>
            <Position>
              <LatitudeDegrees>43.29581047408282756805419921875</LatitudeDegrees>
              <LongitudeDegrees>-5.70168930105865001678466796875</LongitudeDegrees>
            </Position>
            <AltitudeMeters>225.8000030517578125</AltitudeMeters>
            <DistanceMeters>34825.913330274</DistanceMeters>
          </Trackpoint>
          <Trackpoint>
            <Time>2019-10-04T11:03:53.000Z</Time>
            <Position>
              <LatitudeDegrees>43.29583595506846904754638671875</LatitudeDegrees>
              <LongitudeDegrees>-5.70172182284295558929443359375</LongitudeDegrees>
            </Position>
            <AltitudeMeters>225.8000030517578125</AltitudeMeters>
            <DistanceMeters>34829.78501297</DistanceMeters>
          </Trackpoint>
          <Trackpoint>
            <Time>2019-10-04T11:03:58.000Z</Time>
            <Position>
              <LatitudeDegrees>43.2958973944187164306640625</LatitudeDegrees>
              <LongitudeDegrees>-5.701812095940113067626953125</LongitudeDegrees>
            </Position>
            <AltitudeMeters>226.8000030517578125</AltitudeMeters>
            <DistanceMeters>34839.797149535</DistanceMeters>
          </Trackpoint>
          <Trackpoint>
            <Time>2019-10-04T11:04:00.000Z</Time>
            <Position>
              <LatitudeDegrees>43.29591759480535984039306640625</LatitudeDegrees>
              <LongitudeDegrees>-5.70185526274144649505615234375</LongitudeDegrees>
            </Position>
            <AltitudeMeters>227.1999969482421875</AltitudeMeters>
            <DistanceMeters>34843.954500412</DistanceMeters>
          </Trackpoint>
          <Trackpoint>
            <Time>2019-10-04T11:04:05.000Z</Time>
            <Position>
              <LatitudeDegrees>43.295957408845424652099609375</LatitudeDegrees>
              <LongitudeDegrees>-5.70197361521422863006591796875</LongitudeDegrees>
            </Position>
            <AltitudeMeters>228</AltitudeMeters>
            <DistanceMeters>34854.516154369</DistanceMeters>
          </Trackpoint>
          <Trackpoint>
            <Time>2019-10-04T11:04:07.000Z</Time>
            <Position>
              <LatitudeDegrees>43.29596704803407192230224609375</LatitudeDegrees>
              <LongitudeDegrees>-5.70203765295445919036865234375</LongitudeDegrees>
            </Position>
            <AltitudeMeters>228.1999969482421875</AltitudeMeters>
            <DistanceMeters>34859.813840429</DistanceMeters>
          </Trackpoint>
          <Trackpoint>
            <Time>2019-10-04T11:04:13.000Z</Time>
            <Position>
              <LatitudeDegrees>43.295979201793670654296875</LatitudeDegrees>
              <LongitudeDegrees>-5.70221476256847381591796875</LongitudeDegrees>
            </Position>
            <AltitudeMeters>229.1999969482421875</AltitudeMeters>
            <DistanceMeters>34874.224728606</DistanceMeters>
          </Trackpoint>
          <Trackpoint>
            <Time>2019-10-04T11:04:16.000Z</Time>
            <Position>
              <LatitudeDegrees>43.2959797047078609466552734375</LatitudeDegrees>
              <LongitudeDegrees>-5.70230838842689990997314453125</LongitudeDegrees>
            </Position>
            <AltitudeMeters>229.1999969482421875</AltitudeMeters>
            <DistanceMeters>34881.809027318</DistanceMeters>
          </Trackpoint>
          <Trackpoint>
            <Time>2019-10-04T11:04:22.000Z</Time>
            <Position>
              <LatitudeDegrees>43.295960091054439544677734375</LatitudeDegrees>
              <LongitudeDegrees>-5.70249899290502071380615234375</LongitudeDegrees>
            </Position>
            <AltitudeMeters>230.1999969482421875</AltitudeMeters>
            <DistanceMeters>34897.402676618</DistanceMeters>
          </Trackpoint>
          <Trackpoint>
            <Time>2019-10-04T11:04:23.000Z</Time>
            <Position>
              <LatitudeDegrees>43.2959562353789806365966796875</LatitudeDegrees>
              <LongitudeDegrees>-5.70253067649900913238525390625</LongitudeDegrees>
            </Position>
            <AltitudeMeters>230</AltitudeMeters>
            <DistanceMeters>34900.003354848</DistanceMeters>
          </Trackpoint>
          <Trackpoint>
            <Time>2019-10-04T11:04:33.000Z</Time>
            <Position>
              <LatitudeDegrees>43.2958761043846607208251953125</LatitudeDegrees>
              <LongitudeDegrees>-5.702815912663936614990234375</LongitudeDegrees>
            </Position>
            <AltitudeMeters>231</AltitudeMeters>
            <DistanceMeters>34924.771261767</DistanceMeters>
          </Trackpoint>
          <Trackpoint>
            <Time>2019-10-04T11:04:35.000Z</Time>
            <Position>
              <LatitudeDegrees>43.2958549819886684417724609375</LatitudeDegrees>
              <LongitudeDegrees>-5.70287031121551990509033203125</LongitudeDegrees>
            </Position>
            <AltitudeMeters>231.399993896484375</AltitudeMeters>
            <DistanceMeters>34929.766269396</DistanceMeters>
          </Trackpoint>
          <Trackpoint>
            <Time>2019-10-04T11:04:39.000Z</Time>
            <Position>
              <LatitudeDegrees>43.29580376856029033660888671875</LatitudeDegrees>
              <LongitudeDegrees>-5.7029696367681026458740234375</LongitudeDegrees>
            </Position>
            <AltitudeMeters>231.8000030517578125</AltitudeMeters>
            <DistanceMeters>34939.627094065</DistanceMeters>
          </Trackpoint>
          <Trackpoint>
            <Time>2019-10-04T11:04:47.000Z</Time>
            <Position>
              <LatitudeDegrees>43.29563445411622524261474609375</LatitudeDegrees>
              <LongitudeDegrees>-5.70308689959347248077392578125</LongitudeDegrees>
            </Position>
            <AltitudeMeters>232.600006103515625</AltitudeMeters>
            <DistanceMeters>34960.731156005</DistanceMeters>
          </Trackpoint>
          <Trackpoint>
            <Time>2019-10-04T11:04:55.000Z</Time>
            <Position>
              <LatitudeDegrees>43.29546061344444751739501953125</LatitudeDegrees>
              <LongitudeDegrees>-5.70315755903720855712890625</LongitudeDegrees>
            </Position>
            <AltitudeMeters>233</AltitudeMeters>
            <DistanceMeters>34980.908843103</DistanceMeters>
          </Trackpoint>
          <Trackpoint>
            <Time>2019-10-04T11:04:58.000Z</Time>
            <Position>
              <LatitudeDegrees>43.29539406113326549530029296875</LatitudeDegrees>
              <LongitudeDegrees>-5.703187398612499237060546875</LongitudeDegrees>
            </Position>
            <AltitudeMeters>233.8000030517578125</AltitudeMeters>
            <DistanceMeters>34988.701033681</DistanceMeters>
          </Trackpoint>
          <Trackpoint>
            <Time>2019-10-04T11:05:03.000Z</Time>
            <Position>
              <LatitudeDegrees>43.295292891561985015869140625</LatitudeDegrees>
              <LongitudeDegrees>-5.7032306492328643798828125</LongitudeDegrees>
            </Position>
            <AltitudeMeters>234.1999969482421875</AltitudeMeters>
            <DistanceMeters>35000.493538811</DistanceMeters>
          </Trackpoint>
          <Trackpoint>
            <Time>2019-10-04T11:05:08.000Z</Time>
            <Position>
              <LatitudeDegrees>43.29519088380038738250732421875</LatitudeDegrees>
              <LongitudeDegrees>-5.7032837904989719390869140625</LongitudeDegrees>
            </Position>
            <AltitudeMeters>234.600006103515625</AltitudeMeters>
            <DistanceMeters>35012.636153364</DistanceMeters>
          </Trackpoint>
          <Trackpoint>
            <Time>2019-10-04T11:05:11.000Z</Time>
            <Position>
              <LatitudeDegrees>43.2951281033456325531005859375</LatitudeDegrees>
              <LongitudeDegrees>-5.70331983268260955810546875</LongitudeDegrees>
            </Position>
            <AltitudeMeters>235</AltitudeMeters>
            <DistanceMeters>35020.209728845</DistanceMeters>
          </Trackpoint>
          <Trackpoint>
            <Time>2019-10-04T11:05:17.000Z</Time>
            <Position>
              <LatitudeDegrees>43.29500354826450347900390625</LatitudeDegrees>
              <LongitudeDegrees>-5.70340700447559356689453125</LongitudeDegrees>
            </Position>
            <AltitudeMeters>235.399993896484375</AltitudeMeters>
            <DistanceMeters>35035.768303948</DistanceMeters>
          </Trackpoint>
          <Trackpoint>
            <Time>2019-10-04T11:05:23.000Z</Time>
            <Position>
              <LatitudeDegrees>43.29490874893963336944580078125</LatitudeDegrees>
              <LongitudeDegrees>-5.703534744679927825927734375</LongitudeDegrees>
            </Position>
            <AltitudeMeters>236.399993896484375</AltitudeMeters>
            <DistanceMeters>35050.547325872</DistanceMeters>
          </Trackpoint>
          <Trackpoint>
            <Time>2019-10-04T11:05:25.000Z</Time>
            <Position>
              <LatitudeDegrees>43.2948779873549938201904296875</LatitudeDegrees>
              <LongitudeDegrees>-5.7035818509757518768310546875</LongitudeDegrees>
            </Position>
            <AltitudeMeters>236.8000030517578125</AltitudeMeters>
            <DistanceMeters>35055.674367175</DistanceMeters>
          </Trackpoint>
          <Trackpoint>
            <Time>2019-10-04T11:05:33.000Z</Time>
            <Position>
              <LatitudeDegrees>43.294773884117603302001953125</LatitudeDegrees>
              <LongitudeDegrees>-5.703775472939014434814453125</LongitudeDegrees>
            </Position>
            <AltitudeMeters>237.600006103515625</AltitudeMeters>
            <DistanceMeters>35075.174997401</DistanceMeters>
          </Trackpoint>
          <Trackpoint>
            <Time>2019-10-04T11:05:39.000Z</Time>
            <Position>
              <LatitudeDegrees>43.294700123369693756103515625</LatitudeDegrees>
              <LongitudeDegrees>-5.703920312225818634033203125</LongitudeDegrees>
            </Position>
            <AltitudeMeters>238</AltitudeMeters>
            <DistanceMeters>35089.495368767</DistanceMeters>
          </Trackpoint>
          <Trackpoint>
            <Time>2019-10-04T11:05:43.000Z</Time>
            <Position>
              <LatitudeDegrees>43.29465528018772602081298828125</LatitudeDegrees>
              <LongitudeDegrees>-5.7040240801870822906494140625</LongitudeDegrees>
            </Position>
            <AltitudeMeters>238.600006103515625</AltitudeMeters>
            <DistanceMeters>35099.271581177</DistanceMeters>
          </Trackpoint>
          <Trackpoint>
            <Time>2019-10-04T11:05:49.000Z</Time>
            <Position>
              <LatitudeDegrees>43.294588141143321990966796875</LatitudeDegrees>
              <LongitudeDegrees>-5.70417000912129878997802734375</LongitudeDegrees>
            </Position>
            <AltitudeMeters>239.399993896484375</AltitudeMeters>
            <DistanceMeters>35113.2569827</DistanceMeters>
          </Trackpoint>
          <Trackpoint>
            <Time>2019-10-04T11:05:54.000Z</Time>
            <Position>
              <LatitudeDegrees>43.2945236004889011383056640625</LatitudeDegrees>
              <LongitudeDegrees>-5.70429121144115924835205078125</LongitudeDegrees>
            </Position>
            <AltitudeMeters>239.8000030517578125</AltitudeMeters>
            <DistanceMeters>35125.422629124</DistanceMeters>
          </Trackpoint>
          <Trackpoint>
            <Time>2019-10-04T11:05:58.000Z</Time>
            <Position>
              <LatitudeDegrees>43.29447490163147449493408203125</LatitudeDegrees>
              <LongitudeDegrees>-5.704385340213775634765625</LongitudeDegrees>
            </Position>
            <AltitudeMeters>240.1999969482421875</AltitudeMeters>
            <DistanceMeters>35134.7778149</DistanceMeters>
          </Trackpoint>
          <Trackpoint>
            <Time>2019-10-04T11:06:03.000Z</Time>
            <Position>
              <LatitudeDegrees>43.29442419111728668212890625</LatitudeDegrees>
              <LongitudeDegrees>-5.70451685227453708648681640625</LongitudeDegrees>
            </Position>
            <AltitudeMeters>240.8000030517578125</AltitudeMeters>
            <DistanceMeters>35146.833855313</DistanceMeters>
          </Trackpoint>
          <Trackpoint>
            <Time>2019-10-04T11:06:05.000Z</Time>
            <Position>
              <LatitudeDegrees>43.29440298490226268768310546875</LatitudeDegrees>
              <LongitudeDegrees>-5.70457083173096179962158203125</LongitudeDegrees>
            </Position>
            <AltitudeMeters>240.8000030517578125</AltitudeMeters>
            <DistanceMeters>35151.801671626</DistanceMeters>
          </Trackpoint>
          <Trackpoint>
            <Time>2019-10-04T11:06:11.000Z</Time>
            <Position>
              <LatitudeDegrees>43.29433492384850978851318359375</LatitudeDegrees>
              <LongitudeDegrees>-5.70471332408487796783447265625</LongitudeDegrees>
            </Position>
            <AltitudeMeters>241.1999969482421875</AltitudeMeters>
            <DistanceMeters>35165.608369773</DistanceMeters>
          </Trackpoint>
          <Trackpoint>
            <Time>2019-10-04T11:06:17.000Z</Time>
            <Position>
              <LatitudeDegrees>43.29422964714467525482177734375</LatitudeDegrees>
              <LongitudeDegrees>-5.7048428244888782501220703125</LongitudeDegrees>
            </Position>
            <AltitudeMeters>241.8000030517578125</AltitudeMeters>
            <DistanceMeters>35181.336080479</DistanceMeters>
          </Trackpoint>
          <Trackpoint>
            <Time>2019-10-04T11:06:19.000Z</Time>
            <Position>
              <LatitudeDegrees>43.29419176094233989715576171875</LatitudeDegrees>
              <LongitudeDegrees>-5.704877860844135284423828125</LongitudeDegrees>
            </Position>
            <AltitudeMeters>241.8000030517578125</AltitudeMeters>
            <DistanceMeters>35186.419787668</DistanceMeters>
          </Trackpoint>
          <Trackpoint>
            <Time>2019-10-04T11:06:23.000Z</Time>
            <Position>
              <LatitudeDegrees>43.2941056787967681884765625</LatitudeDegrees>
              <LongitudeDegrees>-5.7049212791025638580322265625</LongitudeDegrees>
            </Position>
            <AltitudeMeters>242</AltitudeMeters>
            <DistanceMeters>35196.626205348</DistanceMeters>
          </Trackpoint>
          <Trackpoint>
            <Time>2019-10-04T11:06:31.000Z</Time>
            <Position>
              <LatitudeDegrees>43.293929994106292724609375</LatitudeDegrees>
              <LongitudeDegrees>-5.70495338179171085357666015625</LongitudeDegrees>
            </Position>
            <AltitudeMeters>242.1999969482421875</AltitudeMeters>
            <DistanceMeters>35216.352432917</DistanceMeters>
          </Trackpoint>
          <Trackpoint>
            <Time>2019-10-04T11:06:38.000Z</Time>
            <Position>
              <LatitudeDegrees>43.29377735964953899383544921875</LatitudeDegrees>
              <LongitudeDegrees>-5.704977773129940032958984375</LongitudeDegrees>
            </Position>
            <AltitudeMeters>243</AltitudeMeters>
            <DistanceMeters>35233.455393662</DistanceMeters>
          </Trackpoint>
          <Trackpoint>
            <Time>2019-10-04T11:06:39.000Z</Time>
            <Position>
              <LatitudeDegrees>43.29375808127224445343017578125</LatitudeDegrees>
              <LongitudeDegrees>-5.70497718639671802520751953125</LongitudeDegrees>
            </Position>
            <AltitudeMeters>243</AltitudeMeters>
            <DistanceMeters>35235.601399018</DistanceMeters>
          </Trackpoint>
          <Trackpoint>
            <Time>2019-10-04T11:06:45.000Z</Time>
            <Position>
              <LatitudeDegrees>43.29363587312400341033935546875</LatitudeDegrees>
              <LongitudeDegrees>-5.7049846462905406951904296875</LongitudeDegrees>
            </Position>
            <AltitudeMeters>243.399993896484375</AltitudeMeters>
            <DistanceMeters>35249.216442508</DistanceMeters>
          </Trackpoint>
          <Trackpoint>
            <Time>2019-10-04T11:06:52.000Z</Time>
            <Position>
              <LatitudeDegrees>43.29347577877342700958251953125</LatitudeDegrees>
              <LongitudeDegrees>-5.70499596185982227325439453125</LongitudeDegrees>
            </Position>
            <AltitudeMeters>244.1999969482421875</AltitudeMeters>
            <DistanceMeters>35267.058704555</DistanceMeters>
          </Trackpoint>
          <Trackpoint>
            <Time>2019-10-04T11:06:59.000Z</Time>
            <Position>
              <LatitudeDegrees>43.293320797383785247802734375</LatitudeDegrees>
              <LongitudeDegrees>-5.70503904484212398529052734375</LongitudeDegrees>
            </Position>
            <AltitudeMeters>244.600006103515625</AltitudeMeters>
            <DistanceMeters>35284.65815489</DistanceMeters>
          </Trackpoint>
          <Trackpoint>
            <Time>2019-10-04T11:07:06.000Z</Time>
            <Position>
              <LatitudeDegrees>43.293184675276279449462890625</LatitudeDegrees>
              <LongitudeDegrees>-5.7051672041416168212890625</LongitudeDegrees>
            </Position>
            <AltitudeMeters>245.1999969482421875</AltitudeMeters>
            <DistanceMeters>35303.024879305</DistanceMeters>
          </Trackpoint>
          <Trackpoint>
            <Time>2019-10-04T11:07:13.000Z</Time>
            <Position>
              <LatitudeDegrees>43.29314234666526317596435546875</LatitudeDegrees>
              <LongitudeDegrees>-5.70537297986447811126708984375</LongitudeDegrees>
            </Position>
            <AltitudeMeters>245.600006103515625</AltitudeMeters>
            <DistanceMeters>35320.347913115</DistanceMeters>
          </Trackpoint>
          <Trackpoint>
            <Time>2019-10-04T11:07:20.000Z</Time>
            <Position>
              <LatitudeDegrees>43.29320554621517658233642578125</LatitudeDegrees>
              <LongitudeDegrees>-5.7055703736841678619384765625</LongitudeDegrees>
            </Position>
            <AltitudeMeters>245.399993896484375</AltitudeMeters>
            <DistanceMeters>35337.817845103</DistanceMeters>
          </Trackpoint>
          <Trackpoint>
            <Time>2019-10-04T11:07:28.000Z</Time>
            <Position>
              <LatitudeDegrees>43.29331870190799236297607421875</LatitudeDegrees>
              <LongitudeDegrees>-5.7057487405836582183837890625</LongitudeDegrees>
            </Position>
            <AltitudeMeters>246</AltitudeMeters>
            <DistanceMeters>35356.985937088</DistanceMeters>
          </Trackpoint>
          <Trackpoint>
            <Time>2019-10-04T11:07:30.000Z</Time>
            <Position>
              <LatitudeDegrees>43.29335155896842479705810546875</LatitudeDegrees>
              <LongitudeDegrees>-5.7057852856814861297607421875</LongitudeDegrees>
            </Position>
            <AltitudeMeters>246.1999969482421875</AltitudeMeters>
            <DistanceMeters>35361.691438914</DistanceMeters>
          </Trackpoint>
          <Trackpoint>
            <Time>2019-10-04T11:07:35.000Z</Time>
            <Position>
              <LatitudeDegrees>43.29342967830598354339599609375</LatitudeDegrees>
              <LongitudeDegrees>-5.70588125847280025482177734375</LongitudeDegrees>
            </Position>
            <AltitudeMeters>246.600006103515625</AltitudeMeters>
            <DistanceMeters>35373.355363284</DistanceMeters>
          </Trackpoint>
          <Trackpoint>
            <Time>2019-10-04T11:07:44.000Z</Time>
            <Position>
              <LatitudeDegrees>43.29358222894370555877685546875</LatitudeDegrees>
              <LongitudeDegrees>-5.70605040527880191802978515625</LongitudeDegrees>
            </Position>
            <AltitudeMeters>247.399993896484375</AltitudeMeters>
            <DistanceMeters>35395.173877669</DistanceMeters>
          </Trackpoint>
          <Trackpoint>
            <Time>2019-10-04T11:07:53.000Z</Time>
            <Position>
              <LatitudeDegrees>43.2937417365610599517822265625</LatitudeDegrees>
              <LongitudeDegrees>-5.70622290484607219696044921875</LongitudeDegrees>
            </Position>
            <AltitudeMeters>248.1999969482421875</AltitudeMeters>
            <DistanceMeters>35417.767465728</DistanceMeters>
          </Trackpoint>
          <Trackpoint>
            <Time>2019-10-04T11:07:57.000Z</Time>
            <Position>
              <LatitudeDegrees>43.2938017509877681732177734375</LatitudeDegrees>
              <LongitudeDegrees>-5.70631577633321285247802734375</LongitudeDegrees>
            </Position>
            <AltitudeMeters>248.399993896484375</AltitudeMeters>
            <DistanceMeters>35427.828636482</DistanceMeters>
          </Trackpoint>
          <Trackpoint>
            <Time>2019-10-04T11:08:03.000Z</Time>
            <Position>
              <LatitudeDegrees>43.29387391917407512664794921875</LatitudeDegrees>
              <LongitudeDegrees>-5.706478469073772430419921875</LongitudeDegrees>
            </Position>
            <AltitudeMeters>249</AltitudeMeters>
            <DistanceMeters>35443.263385484</DistanceMeters>
          </Trackpoint>
          <Trackpoint>
            <Time>2019-10-04T11:08:11.000Z</Time>
            <Position>
              <LatitudeDegrees>43.29391582868993282318115234375</LatitudeDegrees>
              <LongitudeDegrees>-5.706715844571590423583984375</LongitudeDegrees>
            </Position>
            <AltitudeMeters>249.399993896484375</AltitudeMeters>
            <DistanceMeters>35463.050859163</DistanceMeters>
          </Trackpoint>
          <Trackpoint>
            <Time>2019-10-04T11:08:12.000Z</Time>
            <Position>
              <LatitudeDegrees>43.29391666688024997711181640625</LatitudeDegrees>
              <LongitudeDegrees>-5.7067448459565639495849609375</LongitudeDegrees>
            </Position>
            <AltitudeMeters>249.399993896484375</AltitudeMeters>
            <DistanceMeters>35465.401690247</DistanceMeters>
          </Trackpoint>
          <Trackpoint>
            <Time>2019-10-04T11:08:20.000Z</Time>
            <Position>
              <LatitudeDegrees>43.293897807598114013671875</LatitudeDegrees>
              <LongitudeDegrees>-5.70697509683668613433837890625</LongitudeDegrees>
            </Position>
            <AltitudeMeters>250.1999969482421875</AltitudeMeters>
            <DistanceMeters>35484.172292866</DistanceMeters>
          </Trackpoint>
          <Trackpoint>
            <Time>2019-10-04T11:08:21.000Z</Time>
            <Position>
              <LatitudeDegrees>43.2938892580568790435791015625</LatitudeDegrees>
              <LongitudeDegrees>-5.7070009969174861907958984375</LongitudeDegrees>
            </Position>
            <AltitudeMeters>250.600006103515625</AltitudeMeters>
            <DistanceMeters>35486.474607977</DistanceMeters>
          </Trackpoint>
          <Trackpoint>
            <Time>2019-10-04T11:08:28.000Z</Time>
            <Position>
              <LatitudeDegrees>43.293808288872241973876953125</LatitudeDegrees>
              <LongitudeDegrees>-5.707174837589263916015625</LongitudeDegrees>
            </Position>
            <AltitudeMeters>251</AltitudeMeters>
            <DistanceMeters>35503.19444968</DistanceMeters>
          </Trackpoint>
          <Trackpoint>
            <Time>2019-10-04T11:08:36.000Z</Time>
            <Position>
              <LatitudeDegrees>43.293679542839527130126953125</LatitudeDegrees>
              <LongitudeDegrees>-5.70734943263232707977294921875</LongitudeDegrees>
            </Position>
            <AltitudeMeters>251.1999969482421875</AltitudeMeters>
            <DistanceMeters>35523.328679782</DistanceMeters>
          </Trackpoint>
          <Trackpoint>
            <Time>2019-10-04T11:08:39.000Z</Time>
            <Position>
              <LatitudeDegrees>43.29362564720213413238525390625</LatitudeDegrees>
              <LongitudeDegrees>-5.7074123807251453399658203125</LongitudeDegrees>
            </Position>
            <AltitudeMeters>251.600006103515625</AltitudeMeters>
            <DistanceMeters>35531.201572815</DistanceMeters>
          </Trackpoint>
          <Trackpoint>
            <Time>2019-10-04T11:08:44.000Z</Time>
            <Position>
              <LatitudeDegrees>43.29351735301315784454345703125</LatitudeDegrees>
              <LongitudeDegrees>-5.7074703834950923919677734375</LongitudeDegrees>
            </Position>
            <AltitudeMeters>252</AltitudeMeters>
            <DistanceMeters>35544.138474948</DistanceMeters>
          </Trackpoint>
          <Trackpoint>
            <Time>2019-10-04T11:08:50.000Z</Time>
            <Position>
              <LatitudeDegrees>43.293380476534366607666015625</LatitudeDegrees>
              <LongitudeDegrees>-5.707484968006610870361328125</LongitudeDegrees>
            </Position>
            <AltitudeMeters>252.399993896484375</AltitudeMeters>
            <DistanceMeters>35559.419172468</DistanceMeters>
          </Trackpoint>
          <Trackpoint>
            <Time>2019-10-04T11:08:55.000Z</Time>
            <Position>
              <LatitudeDegrees>43.2932626269757747650146484375</LatitudeDegrees>
              <LongitudeDegrees>-5.70750768296420574188232421875</LongitudeDegrees>
            </Position>
            <AltitudeMeters>252.8000030517578125</AltitudeMeters>
            <DistanceMeters>35572.664410297</DistanceMeters>
          </Trackpoint>
          <Trackpoint>
            <Time>2019-10-04T11:08:56.000Z</Time>
            <Position>
              <LatitudeDegrees>43.2932418398559093475341796875</LatitudeDegrees>
              <LongitudeDegrees>-5.70750617422163486480712890625</LongitudeDegrees>
            </Position>
            <AltitudeMeters>252.8000030517578125</AltitudeMeters>
            <DistanceMeters>35574.982361005</DistanceMeters>
          </Trackpoint>
          <Trackpoint>
            <Time>2019-10-04T11:09:03.000Z</Time>
            <Position>
              <LatitudeDegrees>43.2930913008749485015869140625</LatitudeDegrees>
              <LongitudeDegrees>-5.70752327330410480499267578125</LongitudeDegrees>
            </Position>
            <AltitudeMeters>252.8000030517578125</AltitudeMeters>
            <DistanceMeters>35591.794840086</DistanceMeters>
          </Trackpoint>
          <Trackpoint>
            <Time>2019-10-04T11:09:09.000Z</Time>
            <Position>
              <LatitudeDegrees>43.2929514907300472259521484375</LatitudeDegrees>
              <LongitudeDegrees>-5.7075696252286434173583984375</LongitudeDegrees>
            </Position>
            <AltitudeMeters>253.1999969482421875</AltitudeMeters>
            <DistanceMeters>35607.80254071</DistanceMeters>
          </Trackpoint>
          <Trackpoint>
            <Time>2019-10-04T11:09:15.000Z</Time>
            <Position>
              <LatitudeDegrees>43.29283221624791622161865234375</LatitudeDegrees>
              <LongitudeDegrees>-5.7076692022383213043212890625</LongitudeDegrees>
            </Position>
            <AltitudeMeters>253.399993896484375</AltitudeMeters>
            <DistanceMeters>35623.337010861</DistanceMeters>
          </Trackpoint>
          <Trackpoint>
            <Time>2019-10-04T11:09:17.000Z</Time>
            <Position>
              <LatitudeDegrees>43.29279282130300998687744140625</LatitudeDegrees>
              <LongitudeDegrees>-5.70771840400993824005126953125</LongitudeDegrees>
            </Position>
            <AltitudeMeters>253.8000030517578125</AltitudeMeters>
            <DistanceMeters>35629.262290366</DistanceMeters>
          </Trackpoint>
          <Trackpoint>
            <Time>2019-10-04T11:09:21.000Z</Time>
            <Position>
              <LatitudeDegrees>43.29273314215242862701416015625</LatitudeDegrees>
              <LongitudeDegrees>-5.70782703347504138946533203125</LongitudeDegrees>
            </Position>
            <AltitudeMeters>253.600006103515625</AltitudeMeters>
            <DistanceMeters>35640.28866553</DistanceMeters>
          </Trackpoint>
          <Trackpoint>
            <Time>2019-10-04T11:09:29.000Z</Time>
            <Position>
              <LatitudeDegrees>43.2926460541784763336181640625</LatitudeDegrees>
              <LongitudeDegrees>-5.70803959853947162628173828125</LongitudeDegrees>
            </Position>
            <AltitudeMeters>254.1999969482421875</AltitudeMeters>
            <DistanceMeters>35660.04988148</DistanceMeters>
          </Trackpoint>
          <Trackpoint>
            <Time>2019-10-04T11:09:38.000Z</Time>
            <Position>
              <LatitudeDegrees>43.292562402784824371337890625</LatitudeDegrees>
              <LongitudeDegrees>-5.70827513001859188079833984375</LongitudeDegrees>
            </Position>
            <AltitudeMeters>254.8000030517578125</AltitudeMeters>
            <DistanceMeters>35681.281282423</DistanceMeters>
          </Trackpoint>
          <Trackpoint>
            <Time>2019-10-04T11:09:46.000Z</Time>
            <Position>
              <LatitudeDegrees>43.29248855821788311004638671875</LatitudeDegrees>
              <LongitudeDegrees>-5.70847244001924991607666015625</LongitudeDegrees>
            </Position>
            <AltitudeMeters>255</AltitudeMeters>
            <DistanceMeters>35699.255152759</DistanceMeters>
          </Trackpoint>
          <Trackpoint>
            <Time>2019-10-04T11:09:53.000Z</Time>
            <Position>
              <LatitudeDegrees>43.2923945970833301544189453125</LatitudeDegrees>
              <LongitudeDegrees>-5.7086096517741680145263671875</LongitudeDegrees>
            </Position>
            <AltitudeMeters>255</AltitudeMeters>
            <DistanceMeters>35714.517519939</DistanceMeters>
          </Trackpoint>
          <Trackpoint>
            <Time>2019-10-04T11:10:03.000Z</Time>
            <Position>
              <LatitudeDegrees>43.29224045388400554656982421875</LatitudeDegrees>
              <LongitudeDegrees>-5.70878407917916774749755859375</LongitudeDegrees>
            </Position>
            <AltitudeMeters>254.8000030517578125</AltitudeMeters>
            <DistanceMeters>35736.744428907</DistanceMeters>
          </Trackpoint>
          <Trackpoint>
            <Time>2019-10-04T11:10:10.000Z</Time>
            <Position>
              <LatitudeDegrees>43.292110450565814971923828125</LatitudeDegrees>
              <LongitudeDegrees>-5.70886773057281970977783203125</LongitudeDegrees>
            </Position>
            <AltitudeMeters>255</AltitudeMeters>
            <DistanceMeters>35752.722203819</DistanceMeters>
          </Trackpoint>
          <Trackpoint>
            <Time>2019-10-04T11:10:17.000Z</Time>
            <Position>
              <LatitudeDegrees>43.29197407700121402740478515625</LatitudeDegrees>
              <LongitudeDegrees>-5.70892824791371822357177734375</LongitudeDegrees>
            </Position>
            <AltitudeMeters>254.600006103515625</AltitudeMeters>
            <DistanceMeters>35768.673110811</DistanceMeters>
          </Trackpoint>
          <Trackpoint>
            <Time>2019-10-04T11:10:26.000Z</Time>
            <Position>
              <LatitudeDegrees>43.29179830849170684814453125</LatitudeDegrees>
              <LongitudeDegrees>-5.708981640636920928955078125</LongitudeDegrees>
            </Position>
            <AltitudeMeters>254.399993896484375</AltitudeMeters>
            <DistanceMeters>35788.709105381</DistanceMeters>
          </Trackpoint>
          <Trackpoint>
            <Time>2019-10-04T11:10:34.000Z</Time>
            <Position>
              <LatitudeDegrees>43.29163997434079647064208984375</LatitudeDegrees>
              <LongitudeDegrees>-5.70901374332606792449951171875</LongitudeDegrees>
            </Position>
            <AltitudeMeters>254.1999969482421875</AltitudeMeters>
            <DistanceMeters>35806.523002944</DistanceMeters>
          </Trackpoint>
          <Trackpoint>
            <Time>2019-10-04T11:10:43.000Z</Time>
            <Position>
              <LatitudeDegrees>43.29146437346935272216796875</LatitudeDegrees>
              <LongitudeDegrees>-5.7090810500085353851318359375</LongitudeDegrees>
            </Position>
            <AltitudeMeters>254.1999969482421875</AltitudeMeters>
            <DistanceMeters>35826.814266225</DistanceMeters>
          </Trackpoint>
          <Trackpoint>
            <Time>2019-10-04T11:10:52.000Z</Time>
            <Position>
              <LatitudeDegrees>43.2912761159241199493408203125</LatitudeDegrees>
              <LongitudeDegrees>-5.70915003307163715362548828125</LongitudeDegrees>
            </Position>
            <AltitudeMeters>254.399993896484375</AltitudeMeters>
            <DistanceMeters>35848.500145297</DistanceMeters>
          </Trackpoint>
          <Trackpoint>
            <Time>2019-10-04T11:11:00.000Z</Time>
            <Position>
              <LatitudeDegrees>43.29111895523965358734130859375</LatitudeDegrees>
              <LongitudeDegrees>-5.709188841283321380615234375</LongitudeDegrees>
            </Position>
            <AltitudeMeters>254.1999969482421875</AltitudeMeters>
            <DistanceMeters>35866.272935568</DistanceMeters>
          </Trackpoint>
          <Trackpoint>
            <Time>2019-10-04T11:11:05.000Z</Time>
            <Position>
              <LatitudeDegrees>43.291023485362529754638671875</LatitudeDegrees>
              <LongitudeDegrees>-5.70919060148298740386962890625</LongitudeDegrees>
            </Position>
            <AltitudeMeters>253.8000030517578125</AltitudeMeters>
            <DistanceMeters>35876.900219609</DistanceMeters>
          </Trackpoint>
          <Trackpoint>
            <Time>2019-10-04T11:11:10.000Z</Time>
            <Position>
              <LatitudeDegrees>43.2909217290580272674560546875</LatitudeDegrees>
              <LongitudeDegrees>-5.7091749273240566253662109375</LongitudeDegrees>
            </Position>
            <AltitudeMeters>253.600006103515625</AltitudeMeters>
            <DistanceMeters>35888.297088458</DistanceMeters>
          </Trackpoint>
          <Trackpoint>
            <Time>2019-10-04T11:11:18.000Z</Time>
            <Position>
              <LatitudeDegrees>43.2907715253531932830810546875</LatitudeDegrees>
              <LongitudeDegrees>-5.70910577662289142608642578125</LongitudeDegrees>
            </Position>
            <AltitudeMeters>252.399993896484375</AltitudeMeters>
            <DistanceMeters>35905.928833742</DistanceMeters>
          </Trackpoint>
          <Trackpoint>
            <Time>2019-10-04T11:11:22.000Z</Time>
            <Position>
              <LatitudeDegrees>43.29070639796555042266845703125</LatitudeDegrees>
              <LongitudeDegrees>-5.70905582047998905181884765625</LongitudeDegrees>
            </Position>
            <AltitudeMeters>250.8000030517578125</AltitudeMeters>
            <DistanceMeters>35914.231036672</DistanceMeters>
          </Trackpoint>
          <Trackpoint>
            <Time>2019-10-04T11:11:23.000Z</Time>
            <Position>
              <LatitudeDegrees>43.29069080762565135955810546875</LatitudeDegrees>
              <LongitudeDegrees>-5.70904006250202655792236328125</LongitudeDegrees>
            </Position>
            <AltitudeMeters>250.8000030517578125</AltitudeMeters>
            <DistanceMeters>35916.385441298</DistanceMeters>
          </Trackpoint>
          <Trackpoint>
            <Time>2019-10-04T11:11:25.000Z</Time>
            <Position>
              <LatitudeDegrees>43.29065761528909206390380859375</LatitudeDegrees>
              <LongitudeDegrees>-5.7090119831264019012451171875</LongitudeDegrees>
            </Position>
            <AltitudeMeters>250.1999969482421875</AltitudeMeters>
            <DistanceMeters>35920.723491472</DistanceMeters>
          </Trackpoint>
          <Trackpoint>
            <Time>2019-10-04T11:11:27.000Z</Time>
            <Position>
              <LatitudeDegrees>43.29062618315219879150390625</LatitudeDegrees>
              <LongitudeDegrees>-5.708983652293682098388671875</LongitudeDegrees>
            </Position>
            <AltitudeMeters>248.1999969482421875</AltitudeMeters>
            <DistanceMeters>35924.908984071</DistanceMeters>
          </Trackpoint>
          <Trackpoint>
            <Time>2019-10-04T11:11:28.000Z</Time>
            <Position>
              <LatitudeDegrees>43.29061117954552173614501953125</LatitudeDegrees>
              <LongitudeDegrees>-5.7089650444686412811279296875</LongitudeDegrees>
            </Position>
            <AltitudeMeters>249.399993896484375</AltitudeMeters>
            <DistanceMeters>35927.159733476</DistanceMeters>
          </Trackpoint>
          <Trackpoint>
            <Time>2019-10-04T11:11:38.000Z</Time>
            <Position>
              <LatitudeDegrees>43.29043549485504627227783203125</LatitudeDegrees>
              <LongitudeDegrees>-5.70876798592507839202880859375</LongitudeDegrees>
            </Position>
            <AltitudeMeters>249.399993896484375</AltitudeMeters>
            <DistanceMeters>35952.403236294</DistanceMeters>
          </Trackpoint>
          <Trackpoint>
            <Time>2019-10-04T11:11:43.000Z</Time>
            <Position>
              <LatitudeDegrees>43.29036190174520015716552734375</LatitudeDegrees>
              <LongitudeDegrees>-5.708684585988521575927734375</LongitudeDegrees>
            </Position>
            <AltitudeMeters>248.1999969482421875</AltitudeMeters>
            <DistanceMeters>35963.021594664</DistanceMeters>
          </Trackpoint>
          <Trackpoint>
            <Time>2019-10-04T11:11:45.000Z</Time>
            <Position>
              <LatitudeDegrees>43.29033088870346546173095703125</LatitudeDegrees>
              <LongitudeDegrees>-5.70865667425096035003662109375</LongitudeDegrees>
            </Position>
            <AltitudeMeters>248</AltitudeMeters>
            <DistanceMeters>35967.148424461</DistanceMeters>
          </Trackpoint>
          <Trackpoint>
            <Time>2019-10-04T11:11:50.000Z</Time>
            <Position>
              <LatitudeDegrees>43.29024941660463809967041015625</LatitudeDegrees>
              <LongitudeDegrees>-5.70857637561857700347900390625</LongitudeDegrees>
            </Position>
            <AltitudeMeters>247.1999969482421875</AltitudeMeters>
            <DistanceMeters>35978.308299654</DistanceMeters>
          </Trackpoint>
          <Trackpoint>
            <Time>2019-10-04T11:11:53.000Z</Time>
            <Position>
              <LatitudeDegrees>43.2902030646800994873046875</LatitudeDegrees>
              <LongitudeDegrees>-5.708531029522418975830078125</LongitudeDegrees>
            </Position>
            <AltitudeMeters>246.399993896484375</AltitudeMeters>
            <DistanceMeters>35984.641671549</DistanceMeters>
          </Trackpoint>
          <Trackpoint>
            <Time>2019-10-04T11:11:56.000Z</Time>
            <Position>
              <LatitudeDegrees>43.2901601493358612060546875</LatitudeDegrees>
              <LongitudeDegrees>-5.70848098956048488616943359375</LongitudeDegrees>
            </Position>
            <AltitudeMeters>246</AltitudeMeters>
            <DistanceMeters>35990.906231568</DistanceMeters>
          </Trackpoint>
          <Trackpoint>
            <Time>2019-10-04T11:12:01.000Z</Time>
            <Position>
              <LatitudeDegrees>43.29007255844771862030029296875</LatitudeDegrees>
              <LongitudeDegrees>-5.7084188796579837799072265625</LongitudeDegrees>
            </Position>
            <AltitudeMeters>246.399993896484375</AltitudeMeters>
            <DistanceMeters>36001.877188177</DistanceMeters>
          </Trackpoint>
          <Trackpoint>
            <Time>2019-10-04T11:12:07.000Z</Time>
            <Position>
              <LatitudeDegrees>43.2899742387235164642333984375</LatitudeDegrees>
              <LongitudeDegrees>-5.70836045779287815093994140625</LongitudeDegrees>
            </Position>
            <AltitudeMeters>247.1999969482421875</AltitudeMeters>
            <DistanceMeters>36013.800674392</DistanceMeters>
          </Trackpoint>
          <Trackpoint>
            <Time>2019-10-04T11:12:13.000Z</Time>
            <Position>
              <LatitudeDegrees>43.28985563479363918304443359375</LatitudeDegrees>
              <LongitudeDegrees>-5.70832676254212856292724609375</LongitudeDegrees>
            </Position>
            <AltitudeMeters>248</AltitudeMeters>
            <DistanceMeters>36027.281077144</DistanceMeters>
          </Trackpoint>
          <Trackpoint>
            <Time>2019-10-04T11:12:14.000Z</Time>
            <Position>
              <LatitudeDegrees>43.2898344285786151885986328125</LatitudeDegrees>
              <LongitudeDegrees>-5.70832483470439910888671875</LongitudeDegrees>
            </Position>
            <AltitudeMeters>248.1999969482421875</AltitudeMeters>
            <DistanceMeters>36029.647223251</DistanceMeters>
          </Trackpoint>
          <Trackpoint>
            <Time>2019-10-04T11:12:18.000Z</Time>
            <Position>
              <LatitudeDegrees>43.289758153259754180908203125</LatitudeDegrees>
              <LongitudeDegrees>-5.70831268094480037689208984375</LongitudeDegrees>
            </Position>
            <AltitudeMeters>248.8000030517578125</AltitudeMeters>
            <DistanceMeters>36038.194346651</DistanceMeters>
          </Trackpoint>
          <Trackpoint>
            <Time>2019-10-04T11:12:20.000Z</Time>
            <Position>
              <LatitudeDegrees>43.28972554765641689300537109375</LatitudeDegrees>
              <LongitudeDegrees>-5.70831335149705410003662109375</LongitudeDegrees>
            </Position>
            <AltitudeMeters>249.1999969482421875</AltitudeMeters>
            <DistanceMeters>36041.825312309</DistanceMeters>
          </Trackpoint>
          <Trackpoint>
            <Time>2019-10-04T11:12:23.000Z</Time>
            <Position>
              <LatitudeDegrees>43.2896771840751171112060546875</LatitudeDegrees>
              <LongitudeDegrees>-5.7083266787230968475341796875</LongitudeDegrees>
            </Position>
            <AltitudeMeters>249.8000030517578125</AltitudeMeters>
            <DistanceMeters>36047.315521337</DistanceMeters>
          </Trackpoint>
          <Trackpoint>
            <Time>2019-10-04T11:12:26.000Z</Time>
            <Position>
              <LatitudeDegrees>43.28962362371385097503662109375</LatitudeDegrees>
              <LongitudeDegrees>-5.70834972895681858062744140625</LongitudeDegrees>
            </Position>
            <AltitudeMeters>250.399993896484375</AltitudeMeters>
            <DistanceMeters>36053.562759958</DistanceMeters>
          </Trackpoint>
          <Trackpoint>
            <Time>2019-10-04T11:12:30.000Z</Time>
            <Position>
              <LatitudeDegrees>43.28956805169582366943359375</LatitudeDegrees>
              <LongitudeDegrees>-5.7083940692245960235595703125</LongitudeDegrees>
            </Position>
            <AltitudeMeters>251</AltitudeMeters>
            <DistanceMeters>36060.715059103</DistanceMeters>
          </Trackpoint>
          <Trackpoint>
            <Time>2019-10-04T11:12:33.000Z</Time>
            <Position>
              <LatitudeDegrees>43.289531171321868896484375</LatitudeDegrees>
              <LongitudeDegrees>-5.70843346416950225830078125</LongitudeDegrees>
            </Position>
            <AltitudeMeters>251.600006103515625</AltitudeMeters>
            <DistanceMeters>36065.914679173</DistanceMeters>
          </Trackpoint>
          <Trackpoint>
            <Time>2019-10-04T11:12:37.000Z</Time>
            <Position>
              <LatitudeDegrees>43.28948599286377429962158203125</LatitudeDegrees>
              <LongitudeDegrees>-5.70850362069904804229736328125</LongitudeDegrees>
            </Position>
            <AltitudeMeters>252.1999969482421875</AltitudeMeters>
            <DistanceMeters>36073.503143938</DistanceMeters>
          </Trackpoint>
          <Trackpoint>
            <Time>2019-10-04T11:12:39.000Z</Time>
            <Position>
              <LatitudeDegrees>43.289465121924877166748046875</LatitudeDegrees>
              <LongitudeDegrees>-5.70852926932275295257568359375</LongitudeDegrees>
            </Position>
            <AltitudeMeters>252.600006103515625</AltitudeMeters>
            <DistanceMeters>36076.618803126</DistanceMeters>
          </Trackpoint>
          <Trackpoint>
            <Time>2019-10-04T11:12:40.000Z</Time>
            <Position>
              <LatitudeDegrees>43.28945347107946872711181640625</LatitudeDegrees>
              <LongitudeDegrees>-5.70855106227099895477294921875</LongitudeDegrees>
            </Position>
            <AltitudeMeters>252.600006103515625</AltitudeMeters>
            <DistanceMeters>36078.808545255</DistanceMeters>
          </Trackpoint>
          <Trackpoint>
            <Time>2019-10-04T11:12:42.000Z</Time>
            <Position>
              <LatitudeDegrees>43.28943067230284214019775390625</LatitudeDegrees>
              <LongitudeDegrees>-5.70859246887266635894775390625</LongitudeDegrees>
            </Position>
            <AltitudeMeters>253</AltitudeMeters>
            <DistanceMeters>36083.015557239</DistanceMeters>
          </Trackpoint>
          <Trackpoint>
            <Time>2019-10-04T11:12:45.000Z</Time>
            <Position>
              <LatitudeDegrees>43.2894022576510906219482421875</LatitudeDegrees>
              <LongitudeDegrees>-5.7086720131337642669677734375</LongitudeDegrees>
            </Position>
            <AltitudeMeters>253.8000030517578125</AltitudeMeters>
            <DistanceMeters>36090.1943208</DistanceMeters>
          </Trackpoint>
          <Trackpoint>
            <Time>2019-10-04T11:12:47.000Z</Time>
            <Position>
              <LatitudeDegrees>43.28937895596027374267578125</LatitudeDegrees>
              <LongitudeDegrees>-5.7087184488773345947265625</LongitudeDegrees>
            </Position>
            <AltitudeMeters>254</AltitudeMeters>
            <DistanceMeters>36094.762526866</DistanceMeters>
          </Trackpoint>
          <Trackpoint>
            <Time>2019-10-04T11:12:48.000Z</Time>
            <Position>
              <LatitudeDegrees>43.2893643714487552642822265625</LatitudeDegrees>
              <LongitudeDegrees>-5.70874351076781749725341796875</LongitudeDegrees>
            </Position>
            <AltitudeMeters>254</AltitudeMeters>
            <DistanceMeters>36097.361468416</DistanceMeters>
          </Trackpoint>
          <Trackpoint>
            <Time>2019-10-04T11:12:53.000Z</Time>
            <Position>
              <LatitudeDegrees>43.28929991461336612701416015625</LatitudeDegrees>
              <LongitudeDegrees>-5.7088698260486125946044921875</LongitudeDegrees>
            </Position>
            <AltitudeMeters>254.399993896484375</AltitudeMeters>
            <DistanceMeters>36109.859558763</DistanceMeters>
          </Trackpoint>
          <Trackpoint>
            <Time>2019-10-04T11:12:55.000Z</Time>
            <Position>
              <LatitudeDegrees>43.28928097151219844818115234375</LatitudeDegrees>
              <LongitudeDegrees>-5.70892036892473697662353515625</LongitudeDegrees>
            </Position>
            <AltitudeMeters>254.8000030517578125</AltitudeMeters>
            <DistanceMeters>36114.466149655</DistanceMeters>
          </Trackpoint>
          <Trackpoint>
            <Time>2019-10-04T11:12:59.000Z</Time>
            <Position>
              <LatitudeDegrees>43.28924325294792652130126953125</LatitudeDegrees>
              <LongitudeDegrees>-5.70902296341955661773681640625</LongitudeDegrees>
            </Position>
            <AltitudeMeters>255.600006103515625</AltitudeMeters>
            <DistanceMeters>36123.77828282</DistanceMeters>
          </Trackpoint>
          <Trackpoint>
            <Time>2019-10-04T11:13:00.000Z</Time>
            <Position>
              <LatitudeDegrees>43.2892332784831523895263671875</LatitudeDegrees>
              <LongitudeDegrees>-5.70904777385294437408447265625</LongitudeDegrees>
            </Position>
            <AltitudeMeters>255.8000030517578125</AltitudeMeters>
            <DistanceMeters>36126.074707137</DistanceMeters>
          </Trackpoint>
          <Trackpoint>
            <Time>2019-10-04T11:13:06.000Z</Time>
            <Position>
              <LatitudeDegrees>43.28918189741671085357666015625</LatitudeDegrees>
              <LongitudeDegrees>-5.70918322540819644927978515625</LongitudeDegrees>
            </Position>
            <AltitudeMeters>256.600006103515625</AltitudeMeters>
            <DistanceMeters>36138.449360115</DistanceMeters>
          </Trackpoint>
          <Trackpoint>
            <Time>2019-10-04T11:13:07.000Z</Time>
            <Position>
              <LatitudeDegrees>43.28917318023741245269775390625</LatitudeDegrees>
              <LongitudeDegrees>-5.70920518599450588226318359375</LongitudeDegrees>
            </Position>
            <AltitudeMeters>257</AltitudeMeters>
            <DistanceMeters>36140.476349208</DistanceMeters>
          </Trackpoint>
          <Trackpoint>
            <Time>2019-10-04T11:13:13.000Z</Time>
            <Position>
              <LatitudeDegrees>43.2891310192644596099853515625</LatitudeDegrees>
              <LongitudeDegrees>-5.709363520145416259765625</LongitudeDegrees>
            </Position>
            <AltitudeMeters>257.600006103515625</AltitudeMeters>
            <DistanceMeters>36154.135096564</DistanceMeters>
          </Trackpoint>
          <Trackpoint>
            <Time>2019-10-04T11:13:15.000Z</Time>
            <Position>
              <LatitudeDegrees>43.28911467455327510833740234375</LatitudeDegrees>
              <LongitudeDegrees>-5.7094176672399044036865234375</LongitudeDegrees>
            </Position>
            <AltitudeMeters>258</AltitudeMeters>
            <DistanceMeters>36158.884531368</DistanceMeters>
          </Trackpoint>
          <Trackpoint>
            <Time>2019-10-04T11:13:20.000Z</Time>
            <Position>
              <LatitudeDegrees>43.289058096706867218017578125</LatitudeDegrees>
              <LongitudeDegrees>-5.709539540112018585205078125</LongitudeDegrees>
            </Position>
            <AltitudeMeters>259</AltitudeMeters>
            <DistanceMeters>36170.595586019</DistanceMeters>
          </Trackpoint>
          <Trackpoint>
            <Time>2019-10-04T11:13:22.000Z</Time>
            <Position>
              <LatitudeDegrees>43.2890314422547817230224609375</LatitudeDegrees>
              <LongitudeDegrees>-5.70958203636109828948974609375</LongitudeDegrees>
            </Position>
            <AltitudeMeters>259.20001220703125</AltitudeMeters>
            <DistanceMeters>36175.141002931</DistanceMeters>
          </Trackpoint>
          <Trackpoint>
            <Time>2019-10-04T11:13:27.000Z</Time>
            <Position>
              <LatitudeDegrees>43.2889580167829990386962890625</LatitudeDegrees>
              <LongitudeDegrees>-5.70969401858747005462646484375</LongitudeDegrees>
            </Position>
            <AltitudeMeters>260</AltitudeMeters>
            <DistanceMeters>36187.351473526</DistanceMeters>
          </Trackpoint>
          <Trackpoint>
            <Time>2019-10-04T11:13:33.000Z</Time>
            <Position>
              <LatitudeDegrees>43.288864307105541229248046875</LatitudeDegrees>
              <LongitudeDegrees>-5.7097935117781162261962890625</LongitudeDegrees>
            </Position>
            <AltitudeMeters>260.20001220703125</AltitudeMeters>
            <DistanceMeters>36200.533155169</DistanceMeters>
          </Trackpoint>
          <Trackpoint>
            <Time>2019-10-04T11:13:34.000Z</Time>
            <Position>
              <LatitudeDegrees>43.28884745948016643524169921875</LatitudeDegrees>
              <LongitudeDegrees>-5.7098074257373809814453125</LongitudeDegrees>
            </Position>
            <AltitudeMeters>260.399993896484375</AltitudeMeters>
            <DistanceMeters>36202.720834422</DistanceMeters>
          </Trackpoint>
          <Trackpoint>
            <Time>2019-10-04T11:13:39.000Z</Time>
            <Position>
              <LatitudeDegrees>43.28876213170588016510009765625</LatitudeDegrees>
              <LongitudeDegrees>-5.70986936800181865692138671875</LongitudeDegrees>
            </Position>
            <AltitudeMeters>260.600006103515625</AltitudeMeters>
            <DistanceMeters>36213.462216397</DistanceMeters>
          </Trackpoint>
          <Trackpoint>
            <Time>2019-10-04T11:13:43.000Z</Time>
            <Position>
              <LatitudeDegrees>43.2886983454227447509765625</LatitudeDegrees>
              <LongitudeDegrees>-5.70990373380482196807861328125</LongitudeDegrees>
            </Position>
            <AltitudeMeters>261.20001220703125</AltitudeMeters>
            <DistanceMeters>36221.088073221</DistanceMeters>
          </Trackpoint>
          <Trackpoint>
            <Time>2019-10-04T11:13:48.000Z</Time>
            <Position>
              <LatitudeDegrees>43.2886224053800106048583984375</LatitudeDegrees>
              <LongitudeDegrees>-5.70993977598845958709716796875</LongitudeDegrees>
            </Position>
            <AltitudeMeters>261.79998779296875</AltitudeMeters>
            <DistanceMeters>36230.030687883</DistanceMeters>
          </Trackpoint>
          <Trackpoint>
            <Time>2019-10-04T11:13:50.000Z</Time>
            <Position>
              <LatitudeDegrees>43.2885856926441192626953125</LatitudeDegrees>
              <LongitudeDegrees>-5.7099603116512298583984375</LongitudeDegrees>
            </Position>
            <AltitudeMeters>262.20001220703125</AltitudeMeters>
            <DistanceMeters>36234.444062429</DistanceMeters>
          </Trackpoint>
          <Trackpoint>
            <Time>2019-10-04T11:13:56.000Z</Time>
            <Position>
              <LatitudeDegrees>43.28846373595297336578369140625</LatitudeDegrees>
              <LongitudeDegrees>-5.71002342738211154937744140625</LongitudeDegrees>
            </Position>
            <AltitudeMeters>262.399993896484375</AltitudeMeters>
            <DistanceMeters>36248.949260847</DistanceMeters>
          </Trackpoint>
          <Trackpoint>
            <Time>2019-10-04T11:14:03.000Z</Time>
            <Position>
              <LatitudeDegrees>43.28833214007318019866943359375</LatitudeDegrees>
              <LongitudeDegrees>-5.7101046480238437652587890625</LongitudeDegrees>
            </Position>
            <AltitudeMeters>262.600006103515625</AltitudeMeters>
            <DistanceMeters>36265.006245079</DistanceMeters>
          </Trackpoint>
          <Trackpoint>
            <Time>2019-10-04T11:14:04.000Z</Time>
            <Position>
              <LatitudeDegrees>43.28831219114363193511962890625</LatitudeDegrees>
              <LongitudeDegrees>-5.7101100124418735504150390625</LongitudeDegrees>
            </Position>
            <AltitudeMeters>262.79998779296875</AltitudeMeters>
            <DistanceMeters>36267.267002313</DistanceMeters>
          </Trackpoint>
          <Trackpoint>
            <Time>2019-10-04T11:14:10.000Z</Time>
            <Position>
              <LatitudeDegrees>43.28819300048053264617919921875</LatitudeDegrees>
              <LongitudeDegrees>-5.7101680152118206024169921875</LongitudeDegrees>
            </Position>
            <AltitudeMeters>263.20001220703125</AltitudeMeters>
            <DistanceMeters>36281.34058383</DistanceMeters>
          </Trackpoint>
          <Trackpoint>
            <Time>2019-10-04T11:14:16.000Z</Time>
            <Position>
              <LatitudeDegrees>43.2880819402635097503662109375</LatitudeDegrees>
              <LongitudeDegrees>-5.71021051146090030670166015625</LongitudeDegrees>
            </Position>
            <AltitudeMeters>263.20001220703125</AltitudeMeters>
            <DistanceMeters>36294.172709295</DistanceMeters>
          </Trackpoint>
          <Trackpoint>
            <Time>2019-10-04T11:14:19.000Z</Time>
            <Position>
              <LatitudeDegrees>43.28803625889122486114501953125</LatitudeDegrees>
              <LongitudeDegrees>-5.7102357409894466400146484375</LongitudeDegrees>
            </Position>
            <AltitudeMeters>263.399993896484375</AltitudeMeters>
            <DistanceMeters>36299.652216953</DistanceMeters>
          </Trackpoint>
          <Trackpoint>
            <Time>2019-10-04T11:14:21.000Z</Time>
            <Position>
              <LatitudeDegrees>43.2879994623363018035888671875</LatitudeDegrees>
              <LongitudeDegrees>-5.7102499902248382568359375</LongitudeDegrees>
            </Position>
            <AltitudeMeters>263.399993896484375</AltitudeMeters>
            <DistanceMeters>36303.908310625</DistanceMeters>
          </Trackpoint>
          <Trackpoint>
            <Time>2019-10-04T11:14:24.000Z</Time>
            <Position>
              <LatitudeDegrees>43.287940286099910736083984375</LatitudeDegrees>
              <LongitudeDegrees>-5.710289888083934783935546875</LongitudeDegrees>
            </Position>
            <AltitudeMeters>263.79998779296875</AltitudeMeters>
            <DistanceMeters>36311.245702244</DistanceMeters>
          </Trackpoint>
          <Trackpoint>
            <Time>2019-10-04T11:14:28.000Z</Time>
            <Position>
              <LatitudeDegrees>43.2878713868558406829833984375</LatitudeDegrees>
              <LongitudeDegrees>-5.71035283617675304412841796875</LongitudeDegrees>
            </Position>
            <AltitudeMeters>264</AltitudeMeters>
            <DistanceMeters>36320.45496269</DistanceMeters>
          </Trackpoint>
          <Trackpoint>
            <Time>2019-10-04T11:14:34.000Z</Time>
            <Position>
              <LatitudeDegrees>43.2877835445106029510498046875</LatitudeDegrees>
              <LongitudeDegrees>-5.71047328412532806396484375</LongitudeDegrees>
            </Position>
            <AltitudeMeters>264.600006103515625</AltitudeMeters>
            <DistanceMeters>36334.268853359</DistanceMeters>
          </Trackpoint>
          <Trackpoint>
            <Time>2019-10-04T11:14:40.000Z</Time>
            <Position>
              <LatitudeDegrees>43.2877148129045963287353515625</LatitudeDegrees>
              <LongitudeDegrees>-5.710618793964385986328125</LongitudeDegrees>
            </Position>
            <AltitudeMeters>265</AltitudeMeters>
            <DistanceMeters>36348.322530172</DistanceMeters>
          </Trackpoint>
          <Trackpoint>
            <Time>2019-10-04T11:14:41.000Z</Time>
            <Position>
              <LatitudeDegrees>43.2877057604491710662841796875</LatitudeDegrees>
              <LongitudeDegrees>-5.71064628660678863525390625</LongitudeDegrees>
            </Position>
            <AltitudeMeters>265.20001220703125</AltitudeMeters>
            <DistanceMeters>36350.767506779</DistanceMeters>
          </Trackpoint>
          <Trackpoint>
            <Time>2019-10-04T11:14:47.000Z</Time>
            <Position>
              <LatitudeDegrees>43.2876856438815593719482421875</LatitudeDegrees>
              <LongitudeDegrees>-5.71080696769058704376220703125</LongitudeDegrees>
            </Position>
            <AltitudeMeters>266</AltitudeMeters>
            <DistanceMeters>36363.977245504</DistanceMeters>
          </Trackpoint>
          <Trackpoint>
            <Time>2019-10-04T11:14:56.000Z</Time>
            <Position>
              <LatitudeDegrees>43.287713639438152313232421875</LatitudeDegrees>
              <LongitudeDegrees>-5.7110575027763843536376953125</LongitudeDegrees>
            </Position>
            <AltitudeMeters>267.20001220703125</AltitudeMeters>
            <DistanceMeters>36384.513131901</DistanceMeters>
          </Trackpoint>
          <Trackpoint>
            <Time>2019-10-04T11:14:57.000Z</Time>
            <Position>
              <LatitudeDegrees>43.2877198420464992523193359375</LatitudeDegrees>
              <LongitudeDegrees>-5.7110839895904064178466796875</LongitudeDegrees>
            </Position>
            <AltitudeMeters>267</AltitudeMeters>
            <DistanceMeters>36386.769891328</DistanceMeters>
          </Trackpoint>
          <Trackpoint>
            <Time>2019-10-04T11:15:04.000Z</Time>
            <Position>
              <LatitudeDegrees>43.28779787756502628326416015625</LatitudeDegrees>
              <LongitudeDegrees>-5.7112479396164417266845703125</LongitudeDegrees>
            </Position>
            <AltitudeMeters>267.600006103515625</AltitudeMeters>
            <DistanceMeters>36402.640490632</DistanceMeters>
          </Trackpoint>
          <Trackpoint>
            <Time>2019-10-04T11:15:12.000Z</Time>
            <Position>
              <LatitudeDegrees>43.28791321255266666412353515625</LatitudeDegrees>
              <LongitudeDegrees>-5.71140266954898834228515625</LongitudeDegrees>
            </Position>
            <AltitudeMeters>267.399993896484375</AltitudeMeters>
            <DistanceMeters>36420.583185117</DistanceMeters>
          </Trackpoint>
          <Trackpoint>
            <Time>2019-10-04T11:15:19.000Z</Time>
            <Position>
              <LatitudeDegrees>43.28800273127853870391845703125</LatitudeDegrees>
              <LongitudeDegrees>-5.711541809141635894775390625</LongitudeDegrees>
            </Position>
            <AltitudeMeters>267.399993896484375</AltitudeMeters>
            <DistanceMeters>36435.628348001</DistanceMeters>
          </Trackpoint>
          <Trackpoint>
            <Time>2019-10-04T11:15:26.000Z</Time>
            <Position>
              <LatitudeDegrees>43.28809057362377643585205078125</LatitudeDegrees>
              <LongitudeDegrees>-5.71167583577334880828857421875</LongitudeDegrees>
            </Position>
            <AltitudeMeters>267.20001220703125</AltitudeMeters>
            <DistanceMeters>36450.239922091</DistanceMeters>
          </Trackpoint>
          <Trackpoint>
            <Time>2019-10-04T11:15:31.000Z</Time>
            <Position>
              <LatitudeDegrees>43.2881369255483150482177734375</LatitudeDegrees>
              <LongitudeDegrees>-5.71179293096065521240234375</LongitudeDegrees>
            </Position>
            <AltitudeMeters>265.79998779296875</AltitudeMeters>
            <DistanceMeters>36461.03915527</DistanceMeters>
          </Trackpoint>
          <Trackpoint>
            <Time>2019-10-04T11:15:34.000Z</Time>
            <Position>
              <LatitudeDegrees>43.28816047869622707366943359375</LatitudeDegrees>
              <LongitudeDegrees>-5.71186811663210391998291015625</LongitudeDegrees>
            </Position>
            <AltitudeMeters>265.600006103515625</AltitudeMeters>
            <DistanceMeters>36467.670631146</DistanceMeters>
          </Trackpoint>
          <Trackpoint>
            <Time>2019-10-04T11:15:38.000Z</Time>
            <Position>
              <LatitudeDegrees>43.28818679787218570709228515625</LatitudeDegrees>
              <LongitudeDegrees>-5.71196752600371837615966796875</LongitudeDegrees>
            </Position>
            <AltitudeMeters>264.79998779296875</AltitudeMeters>
            <DistanceMeters>36476.240966133</DistanceMeters>
          </Trackpoint>
          <Trackpoint>
            <Time>2019-10-04T11:15:41.000Z</Time>
            <Position>
              <LatitudeDegrees>43.288195431232452392578125</LatitudeDegrees>
              <LongitudeDegrees>-5.71204782463610172271728515625</LongitudeDegrees>
            </Position>
            <AltitudeMeters>263.79998779296875</AltitudeMeters>
            <DistanceMeters>36482.816375323</DistanceMeters>
          </Trackpoint>
          <Trackpoint>
            <Time>2019-10-04T11:15:44.000Z</Time>
            <Position>
              <LatitudeDegrees>43.288199789822101593017578125</LatitudeDegrees>
              <LongitudeDegrees>-5.7121263630688190460205078125</LongitudeDegrees>
            </Position>
            <AltitudeMeters>263</AltitudeMeters>
            <DistanceMeters>36489.198040056</DistanceMeters>
          </Trackpoint>
          <Trackpoint>
            <Time>2019-10-04T11:15:46.000Z</Time>
            <Position>
              <LatitudeDegrees>43.28819853253662586212158203125</LatitudeDegrees>
              <LongitudeDegrees>-5.71217908523976802825927734375</LongitudeDegrees>
            </Position>
            <AltitudeMeters>262.600006103515625</AltitudeMeters>
            <DistanceMeters>36493.471073471</DistanceMeters>
          </Trackpoint>
          <Trackpoint>
            <Time>2019-10-04T11:15:51.000Z</Time>
            <Position>
              <LatitudeDegrees>43.28817355446517467498779296875</LatitudeDegrees>
              <LongitudeDegrees>-5.71231252513825893402099609375</LongitudeDegrees>
            </Position>
            <AltitudeMeters>261.600006103515625</AltitudeMeters>
            <DistanceMeters>36504.633375867</DistanceMeters>
          </Trackpoint>
          <Trackpoint>
            <Time>2019-10-04T11:15:52.000Z</Time>
            <Position>
              <LatitudeDegrees>43.28816601075232028961181640625</LatitudeDegrees>
              <LongitudeDegrees>-5.71233951486647129058837890625</LongitudeDegrees>
            </Position>
            <AltitudeMeters>261.399993896484375</AltitudeMeters>
            <DistanceMeters>36506.974584188</DistanceMeters>
          </Trackpoint>
          <Trackpoint>
            <Time>2019-10-04T11:16:01.000Z</Time>
            <Position>
              <LatitudeDegrees>43.288058973848819732666015625</LatitudeDegrees>
              <LongitudeDegrees>-5.71255777962505817413330078125</LongitudeDegrees>
            </Position>
            <AltitudeMeters>261.600006103515625</AltitudeMeters>
            <DistanceMeters>36528.296596959</DistanceMeters>
          </Trackpoint>
          <Trackpoint>
            <Time>2019-10-04T11:16:07.000Z</Time>
            <Position>
              <LatitudeDegrees>43.28795730136334896087646484375</LatitudeDegrees>
              <LongitudeDegrees>-5.71267244406044483184814453125</LongitudeDegrees>
            </Position>
            <AltitudeMeters>261.600006103515625</AltitudeMeters>
            <DistanceMeters>36542.937497022</DistanceMeters>
          </Trackpoint>
          <Trackpoint>
            <Time>2019-10-04T11:16:14.000Z</Time>
            <Position>
              <LatitudeDegrees>43.287821598351001739501953125</LatitudeDegrees>
              <LongitudeDegrees>-5.7127365656197071075439453125</LongitudeDegrees>
            </Position>
            <AltitudeMeters>261.79998779296875</AltitudeMeters>
            <DistanceMeters>36558.909901966</DistanceMeters>
          </Trackpoint>
          <Trackpoint>
            <Time>2019-10-04T11:16:21.000Z</Time>
            <Position>
              <LatitudeDegrees>43.2877047546207904815673828125</LatitudeDegrees>
              <LongitudeDegrees>-5.7127650640904903411865234375</LongitudeDegrees>
            </Position>
            <AltitudeMeters>262.79998779296875</AltitudeMeters>
            <DistanceMeters>36572.1179316</DistanceMeters>
          </Trackpoint>
          <Trackpoint>
            <Time>2019-10-04T11:16:27.000Z</Time>
            <Position>
              <LatitudeDegrees>43.28759604133665561676025390625</LatitudeDegrees>
              <LongitudeDegrees>-5.71276464499533176422119140625</LongitudeDegrees>
            </Position>
            <AltitudeMeters>263</AltitudeMeters>
            <DistanceMeters>36584.217709672</DistanceMeters>
          </Trackpoint>
          <Trackpoint>
            <Time>2019-10-04T11:16:33.000Z</Time>
            <Position>
              <LatitudeDegrees>43.2874828018248081207275390625</LatitudeDegrees>
              <LongitudeDegrees>-5.71274536661803722381591796875</LongitudeDegrees>
            </Position>
            <AltitudeMeters>263.399993896484375</AltitudeMeters>
            <DistanceMeters>36596.917915396</DistanceMeters>
          </Trackpoint>
          <Trackpoint>
            <Time>2019-10-04T11:16:37.000Z</Time>
            <Position>
              <LatitudeDegrees>43.28739822842180728912353515625</LatitudeDegrees>
              <LongitudeDegrees>-5.71273229084908962249755859375</LongitudeDegrees>
            </Position>
            <AltitudeMeters>264</AltitudeMeters>
            <DistanceMeters>36606.391082749</DistanceMeters>
          </Trackpoint>
          <Trackpoint>
            <Time>2019-10-04T11:16:42.000Z</Time>
            <Position>
              <LatitudeDegrees>43.28728624619543552398681640625</LatitudeDegrees>
              <LongitudeDegrees>-5.71272860281169414520263671875</LongitudeDegrees>
            </Position>
            <AltitudeMeters>264</AltitudeMeters>
            <DistanceMeters>36618.85842833</DistanceMeters>
          </Trackpoint>
          <Trackpoint>
            <Time>2019-10-04T11:16:48.000Z</Time>
            <Position>
              <LatitudeDegrees>43.2871453464031219482421875</LatitudeDegrees>
              <LongitudeDegrees>-5.71274737827479839324951171875</LongitudeDegrees>
            </Position>
            <AltitudeMeters>264.399993896484375</AltitudeMeters>
            <DistanceMeters>36634.613960737</DistanceMeters>
          </Trackpoint>
          <Trackpoint>
            <Time>2019-10-04T11:16:54.000Z</Time>
            <Position>
              <LatitudeDegrees>43.287015594542026519775390625</LatitudeDegrees>
              <LongitudeDegrees>-5.712797753512859344482421875</LongitudeDegrees>
            </Position>
            <AltitudeMeters>265</AltitudeMeters>
            <DistanceMeters>36649.621263513</DistanceMeters>
          </Trackpoint>
          <Trackpoint>
            <Time>2019-10-04T11:16:59.000Z</Time>
            <Position>
              <LatitudeDegrees>43.2869178615510463714599609375</LatitudeDegrees>
              <LongitudeDegrees>-5.7128374837338924407958984375</LongitudeDegrees>
            </Position>
            <AltitudeMeters>265</AltitudeMeters>
            <DistanceMeters>36660.964922064</DistanceMeters>
          </Trackpoint>
          <Trackpoint>
            <Time>2019-10-04T11:17:01.000Z</Time>
            <Position>
              <LatitudeDegrees>43.28690872527658939361572265625</LatitudeDegrees>
              <LongitudeDegrees>-5.71284125559031963348388671875</LongitudeDegrees>
            </Position>
            <AltitudeMeters>265.20001220703125</AltitudeMeters>
            <DistanceMeters>36662.031594287</DistanceMeters>
          </Trackpoint>
          <Trackpoint>
            <Time>2019-10-04T11:17:06.000Z</Time>
            <Position>
              <LatitudeDegrees>43.28681065700948238372802734375</LatitudeDegrees>
              <LongitudeDegrees>-5.7128931395709514617919921875</LongitudeDegrees>
            </Position>
            <AltitudeMeters>265.600006103515625</AltitudeMeters>
            <DistanceMeters>36673.727989378</DistanceMeters>
          </Trackpoint>
          <Trackpoint>
            <Time>2019-10-04T11:17:16.000Z</Time>
            <Position>
              <LatitudeDegrees>43.2866432704031467437744140625</LatitudeDegrees>
              <LongitudeDegrees>-5.7130503840744495391845703125</LongitudeDegrees>
            </Position>
            <AltitudeMeters>265.79998779296875</AltitudeMeters>
            <DistanceMeters>36696.297984335</DistanceMeters>
          </Trackpoint>
          <Trackpoint>
            <Time>2019-10-04T11:17:19.000Z</Time>
            <Position>
              <LatitudeDegrees>43.28659004531800746917724609375</LatitudeDegrees>
              <LongitudeDegrees>-5.71309112012386322021484375</LongitudeDegrees>
            </Position>
            <AltitudeMeters>266</AltitudeMeters>
            <DistanceMeters>36703.080256035</DistanceMeters>
          </Trackpoint>
          <Trackpoint>
            <Time>2019-10-04T11:17:25.000Z</Time>
            <Position>
              <LatitudeDegrees>43.286479152739048004150390625</LatitudeDegrees>
              <LongitudeDegrees>-5.713169910013675689697265625</LongitudeDegrees>
            </Position>
            <AltitudeMeters>266.20001220703125</AltitudeMeters>
            <DistanceMeters>36716.976268221</DistanceMeters>
          </Trackpoint>
          <Trackpoint>
            <Time>2019-10-04T11:17:32.000Z</Time>
            <Position>
              <LatitudeDegrees>43.28634805977344512939453125</LatitudeDegrees>
              <LongitudeDegrees>-5.71325741708278656005859375</LongitudeDegrees>
            </Position>
            <AltitudeMeters>266.399993896484375</AltitudeMeters>
            <DistanceMeters>36733.198305322</DistanceMeters>
          </Trackpoint>
          <Trackpoint>
            <Time>2019-10-04T11:17:39.000Z</Time>
            <Position>
              <LatitudeDegrees>43.2861852832138538360595703125</LatitudeDegrees>
              <LongitudeDegrees>-5.71326688863337039947509765625</LongitudeDegrees>
            </Position>
            <AltitudeMeters>266.79998779296875</AltitudeMeters>
            <DistanceMeters>36751.331733118</DistanceMeters>
          </Trackpoint>
          <Trackpoint>
            <Time>2019-10-04T11:17:42.000Z</Time>
            <Position>
              <LatitudeDegrees>43.28611630015075206756591796875</LatitudeDegrees>
              <LongitudeDegrees>-5.71325683034956455230712890625</LongitudeDegrees>
            </Position>
            <AltitudeMeters>267.20001220703125</AltitudeMeters>
            <DistanceMeters>36759.052909498</DistanceMeters>
          </Trackpoint>
          <Trackpoint>
            <Time>2019-10-04T11:17:47.000Z</Time>
            <Position>
              <LatitudeDegrees>43.28600565902888774871826171875</LatitudeDegrees>
              <LongitudeDegrees>-5.7132180221378803253173828125</LongitudeDegrees>
            </Position>
            <AltitudeMeters>267.20001220703125</AltitudeMeters>
            <DistanceMeters>36771.762355097</DistanceMeters>
          </Trackpoint>
          <Trackpoint>
            <Time>2019-10-04T11:17:55.000Z</Time>
            <Position>
              <LatitudeDegrees>43.2858325727283954620361328125</LatitudeDegrees>
              <LongitudeDegrees>-5.71316412650048732757568359375</LongitudeDegrees>
            </Position>
            <AltitudeMeters>267.79998779296875</AltitudeMeters>
            <DistanceMeters>36791.516029775</DistanceMeters>
          </Trackpoint>
          <Trackpoint>
            <Time>2019-10-04T11:18:02.000Z</Time>
            <Position>
              <LatitudeDegrees>43.28568949364125728607177734375</LatitudeDegrees>
              <LongitudeDegrees>-5.7131060399115085601806640625</LongitudeDegrees>
            </Position>
            <AltitudeMeters>268.20001220703125</AltitudeMeters>
            <DistanceMeters>36808.122067064</DistanceMeters>
          </Trackpoint>
          <Trackpoint>
            <Time>2019-10-04T11:18:03.000Z</Time>
            <Position>
              <LatitudeDegrees>43.28567004762589931488037109375</LatitudeDegrees>
              <LongitudeDegrees>-5.71309489198029041290283203125</LongitudeDegrees>
            </Position>
            <AltitudeMeters>268.20001220703125</AltitudeMeters>
            <DistanceMeters>36810.465203099</DistanceMeters>
          </Trackpoint>
          <Trackpoint>
            <Time>2019-10-04T11:18:08.000Z</Time>
            <Position>
              <LatitudeDegrees>43.2855707220733165740966796875</LatitudeDegrees>
              <LongitudeDegrees>-5.71305046789348125457763671875</LongitudeDegrees>
            </Position>
            <AltitudeMeters>268.20001220703125</AltitudeMeters>
            <DistanceMeters>36822.09113034</DistanceMeters>
          </Trackpoint>
          <Trackpoint>
            <Time>2019-10-04T11:18:17.000Z</Time>
            <Position>
              <LatitudeDegrees>43.2853886671364307403564453125</LatitudeDegrees>
              <LongitudeDegrees>-5.7129803113639354705810546875</LongitudeDegrees>
            </Position>
            <AltitudeMeters>268.20001220703125</AltitudeMeters>
            <DistanceMeters>36843.136490623</DistanceMeters>
          </Trackpoint>
          <Trackpoint>
            <Time>2019-10-04T11:18:23.000Z</Time>
            <Position>
              <LatitudeDegrees>43.28526939265429973602294921875</LatitudeDegrees>
              <LongitudeDegrees>-5.712940581142902374267578125</LongitudeDegrees>
            </Position>
            <AltitudeMeters>268.20001220703125</AltitudeMeters>
            <DistanceMeters>36856.796560155</DistanceMeters>
          </Trackpoint>
          <Trackpoint>
            <Time>2019-10-04T11:18:32.000Z</Time>
            <Position>
              <LatitudeDegrees>43.28507375903427600860595703125</LatitudeDegrees>
              <LongitudeDegrees>-5.7128720171749591827392578125</LongitudeDegrees>
            </Position>
            <AltitudeMeters>269.20001220703125</AltitudeMeters>
            <DistanceMeters>36879.268318762</DistanceMeters>
          </Trackpoint>
          <Trackpoint>
            <Time>2019-10-04T11:18:39.000Z</Time>
            <Position>
              <LatitudeDegrees>43.28492674045264720916748046875</LatitudeDegrees>
              <LongitudeDegrees>-5.71281795389950275421142578125</LongitudeDegrees>
            </Position>
            <AltitudeMeters>269.399993896484375</AltitudeMeters>
            <DistanceMeters>36896.207613585</DistanceMeters>
          </Trackpoint>
          <Trackpoint>
            <Time>2019-10-04T11:18:41.000Z</Time>
            <Position>
              <LatitudeDegrees>43.284883238375186920166015625</LatitudeDegrees>
              <LongitudeDegrees>-5.712807811796665191650390625</LongitudeDegrees>
            </Position>
            <AltitudeMeters>269.600006103515625</AltitudeMeters>
            <DistanceMeters>36901.119676722</DistanceMeters>
          </Trackpoint>
          <Trackpoint>
            <Time>2019-10-04T11:18:49.000Z</Time>
            <Position>
              <LatitudeDegrees>43.2847120799124240875244140625</LatitudeDegrees>
              <LongitudeDegrees>-5.71275626309216022491455078125</LongitudeDegrees>
            </Position>
            <AltitudeMeters>269.600006103515625</AltitudeMeters>
            <DistanceMeters>36920.622622139</DistanceMeters>
          </Trackpoint>
          <Trackpoint>
            <Time>2019-10-04T11:18:57.000Z</Time>
            <Position>
              <LatitudeDegrees>43.28454251401126384735107421875</LatitudeDegrees>
              <LongitudeDegrees>-5.712721981108188629150390625</LongitudeDegrees>
            </Position>
            <AltitudeMeters>269.79998779296875</AltitudeMeters>
            <DistanceMeters>36939.698865234</DistanceMeters>
          </Trackpoint>
          <Trackpoint>
            <Time>2019-10-04T11:19:05.000Z</Time>
            <Position>
              <LatitudeDegrees>43.28437152318656444549560546875</LatitudeDegrees>
              <LongitudeDegrees>-5.71273983456194400787353515625</LongitudeDegrees>
            </Position>
            <AltitudeMeters>269.79998779296875</AltitudeMeters>
            <DistanceMeters>36958.78528302</DistanceMeters>
          </Trackpoint>
          <Trackpoint>
            <Time>2019-10-04T11:19:12.000Z</Time>
            <Position>
              <LatitudeDegrees>43.28424847684800624847412109375</LatitudeDegrees>
              <LongitudeDegrees>-5.71279515512287616729736328125</LongitudeDegrees>
            </Position>
            <AltitudeMeters>270</AltitudeMeters>
            <DistanceMeters>36973.195544569</DistanceMeters>
          </Trackpoint>
          <Trackpoint>
            <Time>2019-10-04T11:19:18.000Z</Time>
            <Position>
              <LatitudeDegrees>43.28414521180093288421630859375</LatitudeDegrees>
              <LongitudeDegrees>-5.712901689112186431884765625</LongitudeDegrees>
            </Position>
            <AltitudeMeters>269.79998779296875</AltitudeMeters>
            <DistanceMeters>36987.569414926</DistanceMeters>
          </Trackpoint>
          <Trackpoint>
            <Time>2019-10-04T11:19:23.000Z</Time>
            <Position>
              <LatitudeDegrees>43.28406684100627899169921875</LatitudeDegrees>
              <LongitudeDegrees>-5.71299179457128047943115234375</LongitudeDegrees>
            </Position>
            <AltitudeMeters>270.600006103515625</AltitudeMeters>
            <DistanceMeters>36998.944076912</DistanceMeters>
          </Trackpoint>
          <Trackpoint>
            <Time>2019-10-04T11:19:24.000Z</Time>
            <Position>
              <LatitudeDegrees>43.28405150212347507476806640625</LatitudeDegrees>
              <LongitudeDegrees>-5.713010989129543304443359375</LongitudeDegrees>
            </Position>
            <AltitudeMeters>270.79998779296875</AltitudeMeters>
            <DistanceMeters>37001.25422305</DistanceMeters>
          </Trackpoint>
          <Trackpoint>
            <Time>2019-10-04T11:19:32.000Z</Time>
            <Position>
              <LatitudeDegrees>43.2839258573949337005615234375</LatitudeDegrees>
              <LongitudeDegrees>-5.71316764689981937408447265625</LongitudeDegrees>
            </Position>
            <AltitudeMeters>271.399993896484375</AltitudeMeters>
            <DistanceMeters>37020.140408994</DistanceMeters>
          </Trackpoint>
          <Trackpoint>
            <Time>2019-10-04T11:19:40.000Z</Time>
            <Position>
              <LatitudeDegrees>43.28377573750913143157958984375</LatitudeDegrees>
              <LongitudeDegrees>-5.7132830657064914703369140625</LongitudeDegrees>
            </Position>
            <AltitudeMeters>271.399993896484375</AltitudeMeters>
            <DistanceMeters>37039.28823299</DistanceMeters>
          </Trackpoint>
          <Trackpoint>
            <Time>2019-10-04T11:19:42.000Z</Time>
            <Position>
              <LatitudeDegrees>43.2837307266891002655029296875</LatitudeDegrees>
              <LongitudeDegrees>-5.71329630911350250244140625</LongitudeDegrees>
            </Position>
            <AltitudeMeters>271.600006103515625</AltitudeMeters>
            <DistanceMeters>37044.412631716</DistanceMeters>
          </Trackpoint>
          <Trackpoint>
            <Time>2019-10-04T11:19:48.000Z</Time>
            <Position>
              <LatitudeDegrees>43.283603154122829437255859375</LatitudeDegrees>
              <LongitudeDegrees>-5.71331508457660675048828125</LongitudeDegrees>
            </Position>
            <AltitudeMeters>271.20001220703125</AltitudeMeters>
            <DistanceMeters>37058.692905394</DistanceMeters>
          </Trackpoint>
          <Trackpoint>
            <Time>2019-10-04T11:19:56.000Z</Time>
            <Position>
              <LatitudeDegrees>43.28343727625906467437744140625</LatitudeDegrees>
              <LongitudeDegrees>-5.71325833909213542938232421875</LongitudeDegrees>
            </Position>
            <AltitudeMeters>271.20001220703125</AltitudeMeters>
            <DistanceMeters>37077.71914266</DistanceMeters>
          </Trackpoint>
          <Trackpoint>
            <Time>2019-10-04T11:20:06.000Z</Time>
            <Position>
              <LatitudeDegrees>43.28323828987777233123779296875</LatitudeDegrees>
              <LongitudeDegrees>-5.7131355442106723785400390625</LongitudeDegrees>
            </Position>
            <AltitudeMeters>271</AltitudeMeters>
            <DistanceMeters>37101.998793613</DistanceMeters>
          </Trackpoint>
          <Trackpoint>
            <Time>2019-10-04T11:20:11.000Z</Time>
            <Position>
              <LatitudeDegrees>43.283140473067760467529296875</LatitudeDegrees>
              <LongitudeDegrees>-5.71307913400232791900634765625</LongitudeDegrees>
            </Position>
            <AltitudeMeters>270.600006103515625</AltitudeMeters>
            <DistanceMeters>37113.806603753</DistanceMeters>
          </Trackpoint>
          <Trackpoint>
            <Time>2019-10-04T11:20:14.000Z</Time>
            <Position>
              <LatitudeDegrees>43.2830836437642574310302734375</LatitudeDegrees>
              <LongitudeDegrees>-5.71303747594356536865234375</LongitudeDegrees>
            </Position>
            <AltitudeMeters>270.399993896484375</AltitudeMeters>
            <DistanceMeters>37120.977186384</DistanceMeters>
          </Trackpoint>
          <Trackpoint>
            <Time>2019-10-04T11:20:22.000Z</Time>
            <Position>
              <LatitudeDegrees>43.28292748890817165374755859375</LatitudeDegrees>
              <LongitudeDegrees>-5.71291903965175151824951171875</LongitudeDegrees>
            </Position>
            <AltitudeMeters>270.20001220703125</AltitudeMeters>
            <DistanceMeters>37140.830948417</DistanceMeters>
          </Trackpoint>
          <Trackpoint>
            <Time>2019-10-04T11:20:32.000Z</Time>
            <Position>
              <LatitudeDegrees>43.282764963805675506591796875</LatitudeDegrees>
              <LongitudeDegrees>-5.71270580403506755828857421875</LongitudeDegrees>
            </Position>
            <AltitudeMeters>270</AltitudeMeters>
            <DistanceMeters>37165.845546497</DistanceMeters>
          </Trackpoint>
          <Trackpoint>
            <Time>2019-10-04T11:20:41.000Z</Time>
            <Position>
              <LatitudeDegrees>43.28263881616294384002685546875</LatitudeDegrees>
              <LongitudeDegrees>-5.71251176297664642333984375</LongitudeDegrees>
            </Position>
            <AltitudeMeters>269.79998779296875</AltitudeMeters>
            <DistanceMeters>37186.9245624</DistanceMeters>
          </Trackpoint>
          <Trackpoint>
            <Time>2019-10-04T11:20:49.000Z</Time>
            <Position>
              <LatitudeDegrees>43.28251157887279987335205078125</LatitudeDegrees>
              <LongitudeDegrees>-5.7123496569693088531494140625</LongitudeDegrees>
            </Position>
            <AltitudeMeters>269.79998779296875</AltitudeMeters>
            <DistanceMeters>37206.240013167</DistanceMeters>
          </Trackpoint>
          <Trackpoint>
            <Time>2019-10-04T11:20:56.000Z</Time>
            <Position>
              <LatitudeDegrees>43.2823809050023555755615234375</LatitudeDegrees>
              <LongitudeDegrees>-5.7122205756604671478271484375</LongitudeDegrees>
            </Position>
            <AltitudeMeters>270.399993896484375</AltitudeMeters>
            <DistanceMeters>37224.154502187</DistanceMeters>
          </Trackpoint>
          <Trackpoint>
            <Time>2019-10-04T11:20:57.000Z</Time>
            <Position>
              <LatitudeDegrees>43.2823624648153781890869140625</LatitudeDegrees>
              <LongitudeDegrees>-5.71220439858734607696533203125</LongitudeDegrees>
            </Position>
            <AltitudeMeters>270.20001220703125</AltitudeMeters>
            <DistanceMeters>37226.588373619</DistanceMeters>
          </Trackpoint>
          <Trackpoint>
            <Time>2019-10-04T11:21:00.000Z</Time>
            <Position>
              <LatitudeDegrees>43.28229281120002269744873046875</LatitudeDegrees>
              <LongitudeDegrees>-5.712170787155628204345703125</LongitudeDegrees>
            </Position>
            <AltitudeMeters>270.600006103515625</AltitudeMeters>
            <DistanceMeters>37234.805300147</DistanceMeters>
          </Trackpoint>
          <Trackpoint>
            <Time>2019-10-04T11:21:06.000Z</Time>
            <Position>
              <LatitudeDegrees>43.28218066133558750152587890625</LatitudeDegrees>
              <LongitudeDegrees>-5.71214773692190647125244140625</LongitudeDegrees>
            </Position>
            <AltitudeMeters>270.600006103515625</AltitudeMeters>
            <DistanceMeters>37247.426693832</DistanceMeters>
          </Trackpoint>
          <Trackpoint>
            <Time>2019-10-04T11:21:13.000Z</Time>
            <Position>
              <LatitudeDegrees>43.28204923309385776519775390625</LatitudeDegrees>
              <LongitudeDegrees>-5.712190568447113037109375</LongitudeDegrees>
            </Position>
            <AltitudeMeters>270.79998779296875</AltitudeMeters>
            <DistanceMeters>37262.461049271</DistanceMeters>
          </Trackpoint>
          <Trackpoint>
            <Time>2019-10-04T11:21:20.000Z</Time>
            <Position>
              <LatitudeDegrees>43.28191864304244518280029296875</LatitudeDegrees>
              <LongitudeDegrees>-5.71229140274226665496826171875</LongitudeDegrees>
            </Position>
            <AltitudeMeters>271.20001220703125</AltitudeMeters>
            <DistanceMeters>37279.134920853</DistanceMeters>
          </Trackpoint>
          <Trackpoint>
            <Time>2019-10-04T11:21:23.000Z</Time>
            <Position>
              <LatitudeDegrees>43.28187438659369945526123046875</LatitudeDegrees>
              <LongitudeDegrees>-5.71234052069485187530517578125</LongitudeDegrees>
            </Position>
            <AltitudeMeters>271.79998779296875</AltitudeMeters>
            <DistanceMeters>37285.468292749</DistanceMeters>
          </Trackpoint>
          <Trackpoint>
            <Time>2019-10-04T11:21:26.000Z</Time>
            <Position>
              <LatitudeDegrees>43.2818399369716644287109375</LatitudeDegrees>
              <LongitudeDegrees>-5.71239642798900604248046875</LongitudeDegrees>
            </Position>
            <AltitudeMeters>271.600006103515625</AltitudeMeters>
            <DistanceMeters>37291.403469933</DistanceMeters>
          </Trackpoint>
          <Trackpoint>
            <Time>2019-10-04T11:21:31.000Z</Time>
            <Position>
              <LatitudeDegrees>43.2817916572093963623046875</LatitudeDegrees>
              <LongitudeDegrees>-5.71251385845243930816650390625</LongitudeDegrees>
            </Position>
            <AltitudeMeters>272</AltitudeMeters>
            <DistanceMeters>37302.330715735</DistanceMeters>
          </Trackpoint>
          <Trackpoint>
            <Time>2019-10-04T11:21:41.000Z</Time>
            <Position>
              <LatitudeDegrees>43.281682692468166351318359375</LatitudeDegrees>
              <LongitudeDegrees>-5.7127685844898223876953125</LongitudeDegrees>
            </Position>
            <AltitudeMeters>272.79998779296875</AltitudeMeters>
            <DistanceMeters>37326.269904766</DistanceMeters>
          </Trackpoint>
          <Trackpoint>
            <Time>2019-10-04T11:21:49.000Z</Time>
            <Position>
              <LatitudeDegrees>43.28157347626984119415283203125</LatitudeDegrees>
              <LongitudeDegrees>-5.71295357309281826019287109375</LongitudeDegrees>
            </Position>
            <AltitudeMeters>273.600006103515625</AltitudeMeters>
            <DistanceMeters>37345.56898591</DistanceMeters>
          </Trackpoint>
          <Trackpoint>
            <Time>2019-10-04T11:21:56.000Z</Time>
            <Position>
              <LatitudeDegrees>43.2814508490264415740966796875</LatitudeDegrees>
              <LongitudeDegrees>-5.7130808942019939422607421875</LongitudeDegrees>
            </Position>
            <AltitudeMeters>273.399993896484375</AltitudeMeters>
            <DistanceMeters>37362.678017385</DistanceMeters>
          </Trackpoint>
          <Trackpoint>
            <Time>2019-10-04T11:21:58.000Z</Time>
            <Position>
              <LatitudeDegrees>43.28141220845282077789306640625</LatitudeDegrees>
              <LongitudeDegrees>-5.71310587227344512939453125</LongitudeDegrees>
            </Position>
            <AltitudeMeters>273.79998779296875</AltitudeMeters>
            <DistanceMeters>37367.431253257</DistanceMeters>
          </Trackpoint>
          <Trackpoint>
            <Time>2019-10-04T11:22:05.000Z</Time>
            <Position>
              <LatitudeDegrees>43.28125848434865474700927734375</LatitudeDegrees>
              <LongitudeDegrees>-5.713150463998317718505859375</LongitudeDegrees>
            </Position>
            <AltitudeMeters>274</AltitudeMeters>
            <DistanceMeters>37384.91849257</DistanceMeters>
          </Trackpoint>
          <Trackpoint>
            <Time>2019-10-04T11:22:14.000Z</Time>
            <Position>
              <LatitudeDegrees>43.28105949796736240386962890625</LatitudeDegrees>
              <LongitudeDegrees>-5.713104195892810821533203125</LongitudeDegrees>
            </Position>
            <AltitudeMeters>274</AltitudeMeters>
            <DistanceMeters>37407.38100693</DistanceMeters>
          </Trackpoint>
          <Trackpoint>
            <Time>2019-10-04T11:22:20.000Z</Time>
            <Position>
              <LatitudeDegrees>43.28093728981912136077880859375</LatitudeDegrees>
              <LongitudeDegrees>-5.7130448520183563232421875</LongitudeDegrees>
            </Position>
            <AltitudeMeters>274.20001220703125</AltitudeMeters>
            <DistanceMeters>37421.807551973</DistanceMeters>
          </Trackpoint>
          <Trackpoint>
            <Time>2019-10-04T11:22:30.000Z</Time>
            <Position>
              <LatitudeDegrees>43.28072749078273773193359375</LatitudeDegrees>
              <LongitudeDegrees>-5.7129176147282123565673828125</LongitudeDegrees>
            </Position>
            <AltitudeMeters>274.20001220703125</AltitudeMeters>
            <DistanceMeters>37447.33314963</DistanceMeters>
          </Trackpoint>
          <Trackpoint>
            <Time>2019-10-04T11:22:39.000Z</Time>
            <Position>
              <LatitudeDegrees>43.28055893070995807647705078125</LatitudeDegrees>
              <LongitudeDegrees>-5.7127586938440799713134765625</LongitudeDegrees>
            </Position>
            <AltitudeMeters>274.20001220703125</AltitudeMeters>
            <DistanceMeters>37470.088426896</DistanceMeters>
          </Trackpoint>
          <Trackpoint>
            <Time>2019-10-04T11:22:48.000Z</Time>
            <Position>
              <LatitudeDegrees>43.280421383678913116455078125</LatitudeDegrees>
              <LongitudeDegrees>-5.71255794726312160491943359375</LongitudeDegrees>
            </Position>
            <AltitudeMeters>274.20001220703125</AltitudeMeters>
            <DistanceMeters>37492.425971613</DistanceMeters>
          </Trackpoint>
          <Trackpoint>
            <Time>2019-10-04T11:22:56.000Z</Time>
            <Position>
              <LatitudeDegrees>43.28030998818576335906982421875</LatitudeDegrees>
              <LongitudeDegrees>-5.7123540155589580535888671875</LongitudeDegrees>
            </Position>
            <AltitudeMeters>274.600006103515625</AltitudeMeters>
            <DistanceMeters>37513.084613216</DistanceMeters>
          </Trackpoint>
          <Trackpoint>
            <Time>2019-10-04T11:23:03.000Z</Time>
            <Position>
              <LatitudeDegrees>43.2802274264395236968994140625</LatitudeDegrees>
              <LongitudeDegrees>-5.7121726311743259429931640625</LongitudeDegrees>
            </Position>
            <AltitudeMeters>275</AltitudeMeters>
            <DistanceMeters>37530.418329884</DistanceMeters>
          </Trackpoint>
          <Trackpoint>
            <Time>2019-10-04T11:23:10.000Z</Time>
            <Position>
              <LatitudeDegrees>43.28015710227191448211669921875</LatitudeDegrees>
              <LongitudeDegrees>-5.71197540499269962310791015625</LongitudeDegrees>
            </Position>
            <AltitudeMeters>275.20001220703125</AltitudeMeters>
            <DistanceMeters>37548.21295437</DistanceMeters>
          </Trackpoint>
          <Trackpoint>
            <Time>2019-10-04T11:23:16.000Z</Time>
            <Position>
              <LatitudeDegrees>43.28011066652834415435791015625</LatitudeDegrees>
              <LongitudeDegrees>-5.71180977858603000640869140625</LongitudeDegrees>
            </Position>
            <AltitudeMeters>275.20001220703125</AltitudeMeters>
            <DistanceMeters>37562.594361494</DistanceMeters>
          </Trackpoint>
          <Trackpoint>
            <Time>2019-10-04T11:23:23.000Z</Time>
            <Position>
              <LatitudeDegrees>43.28001427464187145233154296875</LatitudeDegrees>
              <LongitudeDegrees>-5.7116375304758548736572265625</LongitudeDegrees>
            </Position>
            <AltitudeMeters>275.399993896484375</AltitudeMeters>
            <DistanceMeters>37580.198685496</DistanceMeters>
          </Trackpoint>
          <Trackpoint>
            <Time>2019-10-04T11:23:26.000Z</Time>
            <Position>
              <LatitudeDegrees>43.27996985055506229400634765625</LatitudeDegrees>
              <LongitudeDegrees>-5.71156703867018222808837890625</LongitudeDegrees>
            </Position>
            <AltitudeMeters>275.600006103515625</AltitudeMeters>
            <DistanceMeters>37587.753159874</DistanceMeters>
          </Trackpoint>
          <Trackpoint>
            <Time>2019-10-04T11:23:35.000Z</Time>
            <Position>
              <LatitudeDegrees>43.27983699738979339599609375</LatitudeDegrees>
              <LongitudeDegrees>-5.7113565690815448760986328125</LongitudeDegrees>
            </Position>
            <AltitudeMeters>275.399993896484375</AltitudeMeters>
            <DistanceMeters>37610.325155202</DistanceMeters>
          </Trackpoint>
          <Trackpoint>
            <Time>2019-10-04T11:23:42.000Z</Time>
            <Position>
              <LatitudeDegrees>43.2797292061150074005126953125</LatitudeDegrees>
              <LongitudeDegrees>-5.7112127356231212615966796875</LongitudeDegrees>
            </Position>
            <AltitudeMeters>275.20001220703125</AltitudeMeters>
            <DistanceMeters>37627.051476627</DistanceMeters>
          </Trackpoint>
          <Trackpoint>
            <Time>2019-10-04T11:23:51.000Z</Time>
            <Position>
              <LatitudeDegrees>43.2795806787908077239990234375</LatitudeDegrees>
              <LongitudeDegrees>-5.7110347039997577667236328125</LongitudeDegrees>
            </Position>
            <AltitudeMeters>275.79998779296875</AltitudeMeters>
            <DistanceMeters>37648.992155176</DistanceMeters>
          </Trackpoint>
          <Trackpoint>
            <Time>2019-10-04T11:23:58.000Z</Time>
            <Position>
              <LatitudeDegrees>43.279461823403835296630859375</LatitudeDegrees>
              <LongitudeDegrees>-5.71089564822614192962646484375</LongitudeDegrees>
            </Position>
            <AltitudeMeters>275.79998779296875</AltitudeMeters>
            <DistanceMeters>37666.369317093</DistanceMeters>
          </Trackpoint>
          <Trackpoint>
            <Time>2019-10-04T11:24:07.000Z</Time>
            <Position>
              <LatitudeDegrees>43.27931840904057025909423828125</LatitudeDegrees>
              <LongitudeDegrees>-5.710710994899272918701171875</LongitudeDegrees>
            </Position>
            <AltitudeMeters>275.79998779296875</AltitudeMeters>
            <DistanceMeters>37688.247760643</DistanceMeters>
          </Trackpoint>
          <Trackpoint>
            <Time>2019-10-04T11:24:13.000Z</Time>
            <Position>
              <LatitudeDegrees>43.27921380288898944854736328125</LatitudeDegrees>
              <LongitudeDegrees>-5.710597671568393707275390625</LongitudeDegrees>
            </Position>
            <AltitudeMeters>275.600006103515625</AltitudeMeters>
            <DistanceMeters>37703.075582508</DistanceMeters>
          </Trackpoint>
          <Trackpoint>
            <Time>2019-10-04T11:24:20.000Z</Time>
            <Position>
              <LatitudeDegrees>43.27907969243824481964111328125</LatitudeDegrees>
              <LongitudeDegrees>-5.7104699313640594482421875</LongitudeDegrees>
            </Position>
            <AltitudeMeters>276</AltitudeMeters>
            <DistanceMeters>37721.239858797</DistanceMeters>
          </Trackpoint>
          <Trackpoint>
            <Time>2019-10-04T11:24:26.000Z</Time>
            <Position>
              <LatitudeDegrees>43.2789634354412555694580078125</LatitudeDegrees>
              <LongitudeDegrees>-5.7103467173874378204345703125</LongitudeDegrees>
            </Position>
            <AltitudeMeters>275.79998779296875</AltitudeMeters>
            <DistanceMeters>37737.583348669</DistanceMeters>
          </Trackpoint>
          <Trackpoint>
            <Time>2019-10-04T11:24:33.000Z</Time>
            <Position>
              <LatitudeDegrees>43.27882790006697177886962890625</LatitudeDegrees>
              <LongitudeDegrees>-5.7102605514228343963623046875</LongitudeDegrees>
            </Position>
            <AltitudeMeters>276.600006103515625</AltitudeMeters>
            <DistanceMeters>37754.206234676</DistanceMeters>
          </Trackpoint>
          <Trackpoint>
            <Time>2019-10-04T11:24:42.000Z</Time>
            <Position>
              <LatitudeDegrees>43.27864668332040309906005859375</LatitudeDegrees>
              <LongitudeDegrees>-5.71020632050931453704833984375</LongitudeDegrees>
            </Position>
            <AltitudeMeters>276.600006103515625</AltitudeMeters>
            <DistanceMeters>37774.84935308</DistanceMeters>
          </Trackpoint>
          <Trackpoint>
            <Time>2019-10-04T11:24:49.000Z</Time>
            <Position>
              <LatitudeDegrees>43.2785061188042163848876953125</LatitudeDegrees>
              <LongitudeDegrees>-5.71025208570063114166259765625</LongitudeDegrees>
            </Position>
            <AltitudeMeters>276.79998779296875</AltitudeMeters>
            <DistanceMeters>37790.928255051</DistanceMeters>
          </Trackpoint>
          <Trackpoint>
            <Time>2019-10-04T11:24:51.000Z</Time>
            <Position>
              <LatitudeDegrees>43.27846915461122989654541015625</LatitudeDegrees>
              <LongitudeDegrees>-5.71027069352567195892333984375</LongitudeDegrees>
            </Position>
            <AltitudeMeters>277.20001220703125</AltitudeMeters>
            <DistanceMeters>37795.309800728</DistanceMeters>
          </Trackpoint>
          <Trackpoint>
            <Time>2019-10-04T11:24:56.000Z</Time>
            <Position>
              <LatitudeDegrees>43.2783813960850238800048828125</LatitudeDegrees>
              <LongitudeDegrees>-5.71034965105354785919189453125</LongitudeDegrees>
            </Position>
            <AltitudeMeters>276.79998779296875</AltitudeMeters>
            <DistanceMeters>37806.986492222</DistanceMeters>
          </Trackpoint>
          <Trackpoint>
            <Time>2019-10-04T11:25:03.000Z</Time>
            <Position>
              <LatitudeDegrees>43.2782945595681667327880859375</LatitudeDegrees>
              <LongitudeDegrees>-5.7104965858161449432373046875</LongitudeDegrees>
            </Position>
            <AltitudeMeters>276.79998779296875</AltitudeMeters>
            <DistanceMeters>37822.3220493</DistanceMeters>
          </Trackpoint>
          <Trackpoint>
            <Time>2019-10-04T11:25:11.000Z</Time>
            <Position>
              <LatitudeDegrees>43.2782392390072345733642578125</LatitudeDegrees>
              <LongitudeDegrees>-5.71070286445319652557373046875</LongitudeDegrees>
            </Position>
            <AltitudeMeters>276.79998779296875</AltitudeMeters>
            <DistanceMeters>37840.135186479</DistanceMeters>
          </Trackpoint>
          <Trackpoint>
            <Time>2019-10-04T11:25:19.000Z</Time>
            <Position>
              <LatitudeDegrees>43.27821065671741962432861328125</LatitudeDegrees>
              <LongitudeDegrees>-5.71092448197305202484130859375</LongitudeDegrees>
            </Position>
            <AltitudeMeters>277</AltitudeMeters>
            <DistanceMeters>37858.372890165</DistanceMeters>
          </Trackpoint>
          <Trackpoint>
            <Time>2019-10-04T11:25:27.000Z</Time>
            <Position>
              <LatitudeDegrees>43.2782001793384552001953125</LatitudeDegrees>
              <LongitudeDegrees>-5.7111547328531742095947265625</LongitudeDegrees>
            </Position>
            <AltitudeMeters>277.399993896484375</AltitudeMeters>
            <DistanceMeters>37877.066845295</DistanceMeters>
          </Trackpoint>
          <Trackpoint>
            <Time>2019-10-04T11:25:33.000Z</Time>
            <Position>
              <LatitudeDegrees>43.27818819321691989898681640625</LatitudeDegrees>
              <LongitudeDegrees>-5.711305439472198486328125</LongitudeDegrees>
            </Position>
            <AltitudeMeters>277.399993896484375</AltitudeMeters>
            <DistanceMeters>37889.351414377</DistanceMeters>
          </Trackpoint>
          <Trackpoint>
            <Time>2019-10-04T11:25:41.000Z</Time>
            <Position>
              <LatitudeDegrees>43.27815164811909198760986328125</LatitudeDegrees>
              <LongitudeDegrees>-5.71151808835566043853759765625</LongitudeDegrees>
            </Position>
            <AltitudeMeters>278.20001220703125</AltitudeMeters>
            <DistanceMeters>37907.055990438</DistanceMeters>
          </Trackpoint>
          <Trackpoint>
            <Time>2019-10-04T11:25:49.000Z</Time>
            <Position>
              <LatitudeDegrees>43.27806615270674228668212890625</LatitudeDegrees>
              <LongitudeDegrees>-5.71171858347952365875244140625</LongitudeDegrees>
            </Position>
            <AltitudeMeters>278.79998779296875</AltitudeMeters>
            <DistanceMeters>37925.884233613</DistanceMeters>
          </Trackpoint>
          <Trackpoint>
            <Time>2019-10-04T11:25:52.000Z</Time>
            <Position>
              <LatitudeDegrees>43.27802659012377262115478515625</LatitudeDegrees>
              <LongitudeDegrees>-5.7117855548858642578125</LongitudeDegrees>
            </Position>
            <AltitudeMeters>279.399993896484375</AltitudeMeters>
            <DistanceMeters>37932.872413162</DistanceMeters>
          </Trackpoint>
          <Trackpoint>
            <Time>2019-10-04T11:25:57.000Z</Time>
            <Position>
              <LatitudeDegrees>43.2779623009264469146728515625</LatitudeDegrees>
              <LongitudeDegrees>-5.71188680827617645263671875</LongitudeDegrees>
            </Position>
            <AltitudeMeters>279.600006103515625</AltitudeMeters>
            <DistanceMeters>37943.759090953</DistanceMeters>
          </Trackpoint>
          <Trackpoint>
            <Time>2019-10-04T11:26:05.000Z</Time>
            <Position>
              <LatitudeDegrees>43.27784822322428226470947265625</LatitudeDegrees>
              <LongitudeDegrees>-5.7120385207235813140869140625</LongitudeDegrees>
            </Position>
            <AltitudeMeters>280</AltitudeMeters>
            <DistanceMeters>37961.43252707</DistanceMeters>
          </Trackpoint>
          <Trackpoint>
            <Time>2019-10-04T11:26:13.000Z</Time>
            <Position>
              <LatitudeDegrees>43.2777329720556735992431640625</LatitudeDegrees>
              <LongitudeDegrees>-5.71217539720237255096435546875</LongitudeDegrees>
            </Position>
            <AltitudeMeters>280.399993896484375</AltitudeMeters>
            <DistanceMeters>37978.390469588</DistanceMeters>
          </Trackpoint>
          <Trackpoint>
            <Time>2019-10-04T11:26:19.000Z</Time>
            <Position>
              <LatitudeDegrees>43.2776789925992488861083984375</LatitudeDegrees>
              <LongitudeDegrees>-5.71232803165912628173828125</LongitudeDegrees>
            </Position>
            <AltitudeMeters>280.79998779296875</AltitudeMeters>
            <DistanceMeters>37992.140805605</DistanceMeters>
          </Trackpoint>
          <Trackpoint>
            <Time>2019-10-04T11:26:26.000Z</Time>
            <Position>
              <LatitudeDegrees>43.27766281552612781524658203125</LatitudeDegrees>
              <LongitudeDegrees>-5.7125367410480976104736328125</LongitudeDegrees>
            </Position>
            <AltitudeMeters>280.79998779296875</AltitudeMeters>
            <DistanceMeters>38009.148729312</DistanceMeters>
          </Trackpoint>
          <Trackpoint>
            <Time>2019-10-04T11:26:34.000Z</Time>
            <Position>
              <LatitudeDegrees>43.27769500203430652618408203125</LatitudeDegrees>
              <LongitudeDegrees>-5.712785683572292327880859375</LongitudeDegrees>
            </Position>
            <AltitudeMeters>281.399993896484375</AltitudeMeters>
            <DistanceMeters>38029.636629971</DistanceMeters>
          </Trackpoint>
          <Trackpoint>
            <Time>2019-10-04T11:26:41.000Z</Time>
            <Position>
              <LatitudeDegrees>43.277743197977542877197265625</LatitudeDegrees>
              <LongitudeDegrees>-5.712992884218692779541015625</LongitudeDegrees>
            </Position>
            <AltitudeMeters>281.600006103515625</AltitudeMeters>
            <DistanceMeters>38047.262740717</DistanceMeters>
          </Trackpoint>
          <Trackpoint>
            <Time>2019-10-04T11:26:45.000Z</Time>
            <Position>
              <LatitudeDegrees>43.277783095836639404296875</LatitudeDegrees>
              <LongitudeDegrees>-5.71310495026409626007080078125</LongitudeDegrees>
            </Position>
            <AltitudeMeters>281.20001220703125</AltitudeMeters>
            <DistanceMeters>38057.371367975</DistanceMeters>
          </Trackpoint>
          <Trackpoint>
            <Time>2019-10-04T11:26:47.000Z</Time>
            <Position>
              <LatitudeDegrees>43.2778030447661876678466796875</LatitudeDegrees>
              <LongitudeDegrees>-5.71316831745207309722900390625</LongitudeDegrees>
            </Position>
            <AltitudeMeters>281.20001220703125</AltitudeMeters>
            <DistanceMeters>38062.965851415</DistanceMeters>
          </Trackpoint>
          <Trackpoint>
            <Time>2019-10-04T11:26:55.000Z</Time>
            <Position>
              <LatitudeDegrees>43.27789130620658397674560546875</LatitudeDegrees>
              <LongitudeDegrees>-5.71343402378261089324951171875</LongitudeDegrees>
            </Position>
            <AltitudeMeters>281.79998779296875</AltitudeMeters>
            <DistanceMeters>38086.631510104</DistanceMeters>
          </Trackpoint>
          <Trackpoint>
            <Time>2019-10-04T11:27:00.000Z</Time>
            <Position>
              <LatitudeDegrees>43.2779495604336261749267578125</LatitudeDegrees>
              <LongitudeDegrees>-5.71359939873218536376953125</LongitudeDegrees>
            </Position>
            <AltitudeMeters>282.20001220703125</AltitudeMeters>
            <DistanceMeters>38101.518287327</DistanceMeters>
          </Trackpoint>
          <Trackpoint>
            <Time>2019-10-04T11:27:02.000Z</Time>
            <Position>
              <LatitudeDegrees>43.2779740355908870697021484375</LatitudeDegrees>
              <LongitudeDegrees>-5.71366737596690654754638671875</LongitudeDegrees>
            </Position>
            <AltitudeMeters>282.600006103515625</AltitudeMeters>
            <DistanceMeters>38107.663511464</DistanceMeters>
          </Trackpoint>
          <Trackpoint>
            <Time>2019-10-04T11:27:09.000Z</Time>
            <Position>
              <LatitudeDegrees>43.2780607044696807861328125</LatitudeDegrees>
              <LongitudeDegrees>-5.7139449007809162139892578125</LongitudeDegrees>
            </Position>
            <AltitudeMeters>283</AltitudeMeters>
            <DistanceMeters>38132.133582347</DistanceMeters>
          </Trackpoint>
          <Trackpoint>
            <Time>2019-10-04T11:27:13.000Z</Time>
            <Position>
              <LatitudeDegrees>43.2781114988029003143310546875</LatitudeDegrees>
              <LongitudeDegrees>-5.7141182385385036468505859375</LongitudeDegrees>
            </Position>
            <AltitudeMeters>283.399993896484375</AltitudeMeters>
            <DistanceMeters>38147.274770568</DistanceMeters>
          </Trackpoint>
          <Trackpoint>
            <Time>2019-10-04T11:27:17.000Z</Time>
            <Position>
              <LatitudeDegrees>43.278164304792881011962890625</LatitudeDegrees>
              <LongitudeDegrees>-5.71429970674216747283935546875</LongitudeDegrees>
            </Position>
            <AltitudeMeters>283.399993896484375</AltitudeMeters>
            <DistanceMeters>38163.110338851</DistanceMeters>
          </Trackpoint>
          <Trackpoint>
            <Time>2019-10-04T11:27:18.000Z</Time>
            <Position>
              <LatitudeDegrees>43.27817578800022602081298828125</LatitudeDegrees>
              <LongitudeDegrees>-5.714348070323467254638671875</LongitudeDegrees>
            </Position>
            <AltitudeMeters>283.600006103515625</AltitudeMeters>
            <DistanceMeters>38167.232790048</DistanceMeters>
          </Trackpoint>
          <Trackpoint>
            <Time>2019-10-04T11:27:24.000Z</Time>
            <Position>
              <LatitudeDegrees>43.278179727494716644287109375</LatitudeDegrees>
              <LongitudeDegrees>-5.714641101658344268798828125</LongitudeDegrees>
            </Position>
            <AltitudeMeters>283.20001220703125</AltitudeMeters>
            <DistanceMeters>38190.981865286</DistanceMeters>
          </Trackpoint>
          <Trackpoint>
            <Time>2019-10-04T11:27:28.000Z</Time>
            <Position>
              <LatitudeDegrees>43.27812415547668933868408203125</LatitudeDegrees>
              <LongitudeDegrees>-5.71482919156551361083984375</LongitudeDegrees>
            </Position>
            <AltitudeMeters>282.600006103515625</AltitudeMeters>
            <DistanceMeters>38207.430547617</DistanceMeters>
          </Trackpoint>
          <Trackpoint>
            <Time>2019-10-04T11:27:30.000Z</Time>
            <Position>
              <LatitudeDegrees>43.2780742831528186798095703125</LatitudeDegrees>
              <LongitudeDegrees>-5.71490739472210407257080078125</LongitudeDegrees>
            </Position>
            <AltitudeMeters>281.79998779296875</AltitudeMeters>
            <DistanceMeters>38215.854225002</DistanceMeters>
          </Trackpoint>
          <Trackpoint>
            <Time>2019-10-04T11:27:32.000Z</Time>
            <Position>
              <LatitudeDegrees>43.27801317907869815826416015625</LatitudeDegrees>
              <LongitudeDegrees>-5.7149684987962245941162109375</LongitudeDegrees>
            </Position>
            <AltitudeMeters>281.399993896484375</AltitudeMeters>
            <DistanceMeters>38224.266102261</DistanceMeters>
          </Trackpoint>
          <Trackpoint>
            <Time>2019-10-04T11:27:35.000Z</Time>
            <Position>
              <LatitudeDegrees>43.2779158651828765869140625</LatitudeDegrees>
              <LongitudeDegrees>-5.7150345481932163238525390625</LongitudeDegrees>
            </Position>
            <AltitudeMeters>280.79998779296875</AltitudeMeters>
            <DistanceMeters>38236.347208401</DistanceMeters>
          </Trackpoint>
          <Trackpoint>
            <Time>2019-10-04T11:27:40.000Z</Time>
            <Position>
              <LatitudeDegrees>43.27773054130375385284423828125</LatitudeDegrees>
              <LongitudeDegrees>-5.71503798477351665496826171875</LongitudeDegrees>
            </Position>
            <AltitudeMeters>280.600006103515625</AltitudeMeters>
            <DistanceMeters>38256.975667441</DistanceMeters>
          </Trackpoint>
          <Trackpoint>
            <Time>2019-10-04T11:27:49.000Z</Time>
            <Position>
              <LatitudeDegrees>43.2773718796670436859130859375</LatitudeDegrees>
              <LongitudeDegrees>-5.7149104960262775421142578125</LongitudeDegrees>
            </Position>
            <AltitudeMeters>281.79998779296875</AltitudeMeters>
            <DistanceMeters>38298.210473296</DistanceMeters>
          </Trackpoint>
          <Trackpoint>
            <Time>2019-10-04T11:27:55.000Z</Time>
            <Position>
              <LatitudeDegrees>43.277122937142848968505859375</LatitudeDegrees>
              <LongitudeDegrees>-5.71491099894046783447265625</LongitudeDegrees>
            </Position>
            <AltitudeMeters>281.79998779296875</AltitudeMeters>
            <DistanceMeters>38325.918379554</DistanceMeters>
          </Trackpoint>
          <Trackpoint>
            <Time>2019-10-04T11:27:56.000Z</Time>
            <Position>
              <LatitudeDegrees>43.27708370983600616455078125</LatitudeDegrees>
              <LongitudeDegrees>-5.71492650546133518218994140625</LongitudeDegrees>
            </Position>
            <AltitudeMeters>282</AltitudeMeters>
            <DistanceMeters>38330.461809398</DistanceMeters>
          </Trackpoint>
          <Trackpoint>
            <Time>2019-10-04T11:27:59.000Z</Time>
            <Position>
              <LatitudeDegrees>43.27697969041764736175537109375</LatitudeDegrees>
              <LongitudeDegrees>-5.7150016911327838897705078125</LongitudeDegrees>
            </Position>
            <AltitudeMeters>282.399993896484375</AltitudeMeters>
            <DistanceMeters>38343.544472312</DistanceMeters>
          </Trackpoint>
          <Trackpoint>
            <Time>2019-10-04T11:28:01.000Z</Time>
            <Position>
              <LatitudeDegrees>43.27691967599093914031982421875</LatitudeDegrees>
              <LongitudeDegrees>-5.715059526264667510986328125</LongitudeDegrees>
            </Position>
            <AltitudeMeters>282.600006103515625</AltitudeMeters>
            <DistanceMeters>38351.704052793</DistanceMeters>
          </Trackpoint>
          <Trackpoint>
            <Time>2019-10-04T11:28:05.000Z</Time>
            <Position>
              <LatitudeDegrees>43.27684767544269561767578125</LatitudeDegrees>
              <LongitudeDegrees>-5.7151699997484683990478515625</LongitudeDegrees>
            </Position>
            <AltitudeMeters>282</AltitudeMeters>
            <DistanceMeters>38363.719578673</DistanceMeters>
          </Trackpoint>
          <Trackpoint>
            <Time>2019-10-04T11:28:10.000Z</Time>
            <Position>
              <LatitudeDegrees>43.2768429815769195556640625</LatitudeDegrees>
              <LongitudeDegrees>-5.71518064476549625396728515625</LongitudeDegrees>
            </Position>
            <AltitudeMeters>282.399993896484375</AltitudeMeters>
            <DistanceMeters>38364.72524689</DistanceMeters>
          </Trackpoint>
          <Trackpoint>
            <Time>2019-10-04T11:28:11.000Z</Time>
            <Position>
              <LatitudeDegrees>43.2768429815769195556640625</LatitudeDegrees>
              <LongitudeDegrees>-5.71518064476549625396728515625</LongitudeDegrees>
            </Position>
            <AltitudeMeters>282.20001220703125</AltitudeMeters>
            <DistanceMeters>38364.72524689</DistanceMeters>
          </Trackpoint>
          <Trackpoint>
            <Time>2019-10-04T11:28:18.000Z</Time>
            <Position>
              <LatitudeDegrees>43.27683837153017520904541015625</LatitudeDegrees>
              <LongitudeDegrees>-5.71518450044095516204833984375</LongitudeDegrees>
            </Position>
            <AltitudeMeters>282.600006103515625</AltitudeMeters>
            <DistanceMeters>38365.326248602</DistanceMeters>
          </Trackpoint>
          <Trackpoint>
            <Time>2019-10-04T11:28:20.000Z</Time>
            <Position>
              <LatitudeDegrees>43.27681540511548519134521484375</LatitudeDegrees>
              <LongitudeDegrees>-5.7152186147868633270263671875</LongitudeDegrees>
            </Position>
            <AltitudeMeters>282.399993896484375</AltitudeMeters>
            <DistanceMeters>38369.09391103</DistanceMeters>
          </Trackpoint>
          <Trackpoint>
            <Time>2019-10-04T11:28:25.000Z</Time>
            <Position>
              <LatitudeDegrees>43.276715911924839019775390625</LatitudeDegrees>
              <LongitudeDegrees>-5.71536957286298274993896484375</LongitudeDegrees>
            </Position>
            <AltitudeMeters>282</AltitudeMeters>
            <DistanceMeters>38385.594390867</DistanceMeters>
          </Trackpoint>
          <Trackpoint>
            <Time>2019-10-04T11:28:30.000Z</Time>
            <Position>
              <LatitudeDegrees>43.2765926979482173919677734375</LatitudeDegrees>
              <LongitudeDegrees>-5.71559269912540912628173828125</LongitudeDegrees>
            </Position>
            <AltitudeMeters>282</AltitudeMeters>
            <DistanceMeters>38408.287677531</DistanceMeters>
          </Trackpoint>
          <Trackpoint>
            <Time>2019-10-04T11:28:31.000Z</Time>
            <Position>
              <LatitudeDegrees>43.27656378038227558135986328125</LatitudeDegrees>
              <LongitudeDegrees>-5.71564567275345325469970703125</LongitudeDegrees>
            </Position>
            <AltitudeMeters>282</AltitudeMeters>
            <DistanceMeters>38413.653111689</DistanceMeters>
          </Trackpoint>
          <Trackpoint>
            <Time>2019-10-04T11:28:38.000Z</Time>
            <Position>
              <LatitudeDegrees>43.27633964829146862030029296875</LatitudeDegrees>
              <LongitudeDegrees>-5.7160893268883228302001953125</LongitudeDegrees>
            </Position>
            <AltitudeMeters>282.20001220703125</AltitudeMeters>
            <DistanceMeters>38457.411443348</DistanceMeters>
          </Trackpoint>
          <Trackpoint>
            <Time>2019-10-04T11:28:45.000Z</Time>
            <Position>
              <LatitudeDegrees>43.2760636322200298309326171875</LatitudeDegrees>
              <LongitudeDegrees>-5.716607831418514251708984375</LongitudeDegrees>
            </Position>
            <AltitudeMeters>283</AltitudeMeters>
            <DistanceMeters>38509.461279799</DistanceMeters>
          </Trackpoint>
          <Trackpoint>
            <Time>2019-10-04T11:28:46.000Z</Time>
            <Position>
              <LatitudeDegrees>43.276009149849414825439453125</LatitudeDegrees>
              <LongitudeDegrees>-5.71667614392936229705810546875</LongitudeDegrees>
            </Position>
            <AltitudeMeters>283.20001220703125</AltitudeMeters>
            <DistanceMeters>38517.672159821</DistanceMeters>
          </Trackpoint>
          <Trackpoint>
            <Time>2019-10-04T11:28:47.000Z</Time>
            <Position>
              <LatitudeDegrees>43.27594586648046970367431640625</LatitudeDegrees>
              <LongitudeDegrees>-5.716733895242214202880859375</LongitudeDegrees>
            </Position>
            <AltitudeMeters>283.399993896484375</AltitudeMeters>
            <DistanceMeters>38526.129003525</DistanceMeters>
          </Trackpoint>
          <Trackpoint>
            <Time>2019-10-04T11:28:48.000Z</Time>
            <Position>
              <LatitudeDegrees>43.2758775539696216583251953125</LatitudeDegrees>
              <LongitudeDegrees>-5.7167783193290233612060546875</LongitudeDegrees>
            </Position>
            <AltitudeMeters>283.399993896484375</AltitudeMeters>
            <DistanceMeters>38534.541417512</DistanceMeters>
          </Trackpoint>
          <Trackpoint>
            <Time>2019-10-04T11:28:51.000Z</Time>
            <Position>
              <LatitudeDegrees>43.2756448723375797271728515625</LatitudeDegrees>
              <LongitudeDegrees>-5.71682852692902088165283203125</LongitudeDegrees>
            </Position>
            <AltitudeMeters>283.399993896484375</AltitudeMeters>
            <DistanceMeters>38560.756909648</DistanceMeters>
          </Trackpoint>
          <Trackpoint>
            <Time>2019-10-04T11:28:53.000Z</Time>
            <Position>
              <LatitudeDegrees>43.27548108994960784912109375</LatitudeDegrees>
              <LongitudeDegrees>-5.716815702617168426513671875</LongitudeDegrees>
            </Position>
            <AltitudeMeters>283.79998779296875</AltitudeMeters>
            <DistanceMeters>38579.015891611</DistanceMeters>
          </Trackpoint>
          <Trackpoint>
            <Time>2019-10-04T11:28:56.000Z</Time>
            <Position>
              <LatitudeDegrees>43.27522301115095615386962890625</LatitudeDegrees>
              <LongitudeDegrees>-5.7168004475533962249755859375</LongitudeDegrees>
            </Position>
            <AltitudeMeters>283.79998779296875</AltitudeMeters>
            <DistanceMeters>38607.767087374</DistanceMeters>
          </Trackpoint>
          <Trackpoint>
            <Time>2019-10-04T11:28:57.000Z</Time>
            <Position>
              <LatitudeDegrees>43.2751332409679889678955078125</LatitudeDegrees>
              <LongitudeDegrees>-5.71680732071399688720703125</LongitudeDegrees>
            </Position>
            <AltitudeMeters>284.20001220703125</AltitudeMeters>
            <DistanceMeters>38617.773810998</DistanceMeters>
          </Trackpoint>
          <Trackpoint>
            <Time>2019-10-04T11:28:58.000Z</Time>
            <Position>
              <LatitudeDegrees>43.27504196204245090484619140625</LatitudeDegrees>
              <LongitudeDegrees>-5.71682869456708431243896484375</LongitudeDegrees>
            </Position>
            <AltitudeMeters>284.399993896484375</AltitudeMeters>
            <DistanceMeters>38628.079719941</DistanceMeters>
          </Trackpoint>
          <Trackpoint>
            <Time>2019-10-04T11:28:59.000Z</Time>
            <Position>
              <LatitudeDegrees>43.27495269477367401123046875</LatitudeDegrees>
              <LongitudeDegrees>-5.71686825715005397796630859375</LongitudeDegrees>
            </Position>
            <AltitudeMeters>284.600006103515625</AltitudeMeters>
            <DistanceMeters>38638.519692291</DistanceMeters>
          </Trackpoint>
          <Trackpoint>
            <Time>2019-10-04T11:29:00.000Z</Time>
            <Position>
              <LatitudeDegrees>43.2748646847903728485107421875</LatitudeDegrees>
              <LongitudeDegrees>-5.71691787801682949066162109375</LongitudeDegrees>
            </Position>
            <AltitudeMeters>285</AltitudeMeters>
            <DistanceMeters>38649.109096868</DistanceMeters>
          </Trackpoint>
          <Trackpoint>
            <Time>2019-10-04T11:29:01.000Z</Time>
            <Position>
              <LatitudeDegrees>43.27477608807384967803955078125</LatitudeDegrees>
              <LongitudeDegrees>-5.71697101928293704986572265625</LongitudeDegrees>
            </Position>
            <AltitudeMeters>285.20001220703125</AltitudeMeters>
            <DistanceMeters>38659.869377541</DistanceMeters>
          </Trackpoint>
          <Trackpoint>
            <Time>2019-10-04T11:29:04.000Z</Time>
            <Position>
              <LatitudeDegrees>43.27451474033296108245849609375</LatitudeDegrees>
              <LongitudeDegrees>-5.71715089492499828338623046875</LongitudeDegrees>
            </Position>
            <AltitudeMeters>285.600006103515625</AltitudeMeters>
            <DistanceMeters>38692.405725241</DistanceMeters>
          </Trackpoint>
          <Trackpoint>
            <Time>2019-10-04T11:29:05.000Z</Time>
            <Position>
              <LatitudeDegrees>43.27442622743546962738037109375</LatitudeDegrees>
              <LongitudeDegrees>-5.71721233427524566650390625</LongitudeDegrees>
            </Position>
            <AltitudeMeters>285.600006103515625</AltitudeMeters>
            <DistanceMeters>38703.443559783</DistanceMeters>
          </Trackpoint>
          <Trackpoint>
            <Time>2019-10-04T11:29:07.000Z</Time>
            <Position>
              <LatitudeDegrees>43.27424853108823299407958984375</LatitudeDegrees>
              <LongitudeDegrees>-5.717336721718311309814453125</LongitudeDegrees>
            </Position>
            <AltitudeMeters>286</AltitudeMeters>
            <DistanceMeters>38725.642011791</DistanceMeters>
          </Trackpoint>
          <Trackpoint>
            <Time>2019-10-04T11:29:09.000Z</Time>
            <Position>
              <LatitudeDegrees>43.27406756579875946044921875</LatitudeDegrees>
              <LongitudeDegrees>-5.71746446192264556884765625</LongitudeDegrees>
            </Position>
            <AltitudeMeters>286.399993896484375</AltitudeMeters>
            <DistanceMeters>38748.288295406</DistanceMeters>
          </Trackpoint>
          <Trackpoint>
            <Time>2019-10-04T11:29:11.000Z</Time>
            <Position>
              <LatitudeDegrees>43.273882158100605010986328125</LatitudeDegrees>
              <LongitudeDegrees>-5.71759664453566074371337890625</LongitudeDegrees>
            </Position>
            <AltitudeMeters>286</AltitudeMeters>
            <DistanceMeters>38771.538984781</DistanceMeters>
          </Trackpoint>
          <Trackpoint>
            <Time>2019-10-04T11:29:14.000Z</Time>
            <Position>
              <LatitudeDegrees>43.27365743927657604217529296875</LatitudeDegrees>
              <LongitudeDegrees>-5.7177670486271381378173828125</LongitudeDegrees>
            </Position>
            <AltitudeMeters>286</AltitudeMeters>
            <DistanceMeters>38800.109647885</DistanceMeters>
          </Trackpoint>
          <Trackpoint>
            <Time>2019-10-04T11:29:15.000Z</Time>
            <Position>
              <LatitudeDegrees>43.27358703128993511199951171875</LatitudeDegrees>
              <LongitudeDegrees>-5.71783670224249362945556640625</LongitudeDegrees>
            </Position>
            <AltitudeMeters>286.20001220703125</AltitudeMeters>
            <DistanceMeters>38809.767373269</DistanceMeters>
          </Trackpoint>
          <Trackpoint>
            <Time>2019-10-04T11:29:17.000Z</Time>
            <Position>
              <LatitudeDegrees>43.2734756357967853546142578125</LatitudeDegrees>
              <LongitudeDegrees>-5.71802697144448757171630859375</LongitudeDegrees>
            </Position>
            <AltitudeMeters>286.20001220703125</AltitudeMeters>
            <DistanceMeters>38829.553021451</DistanceMeters>
          </Trackpoint>
          <Trackpoint>
            <Time>2019-10-04T11:29:19.000Z</Time>
            <Position>
              <LatitudeDegrees>43.27341151423752307891845703125</LatitudeDegrees>
              <LongitudeDegrees>-5.7182659395039081573486328125</LongitudeDegrees>
            </Position>
            <AltitudeMeters>286.600006103515625</AltitudeMeters>
            <DistanceMeters>38850.19154625</DistanceMeters>
          </Trackpoint>
          <Trackpoint>
            <Time>2019-10-04T11:29:20.000Z</Time>
            <Position>
              <LatitudeDegrees>43.2733911462128162384033203125</LatitudeDegrees>
              <LongitudeDegrees>-5.71839116513729095458984375</LongitudeDegrees>
            </Position>
            <AltitudeMeters>286.79998779296875</AltitudeMeters>
            <DistanceMeters>38860.589918014</DistanceMeters>
          </Trackpoint>
          <Trackpoint>
            <Time>2019-10-04T11:29:22.000Z</Time>
            <Position>
              <LatitudeDegrees>43.27336440794169902801513671875</LatitudeDegrees>
              <LongitudeDegrees>-5.71864656172692775726318359375</LongitudeDegrees>
            </Position>
            <AltitudeMeters>286.79998779296875</AltitudeMeters>
            <DistanceMeters>38881.49968227</DistanceMeters>
          </Trackpoint>
          <Trackpoint>
            <Time>2019-10-04T11:29:26.000Z</Time>
            <Position>
              <LatitudeDegrees>43.2733180560171604156494140625</LatitudeDegrees>
              <LongitudeDegrees>-5.71916573680937290191650390625</LongitudeDegrees>
            </Position>
            <AltitudeMeters>287.20001220703125</AltitudeMeters>
            <DistanceMeters>38923.887775296</DistanceMeters>
          </Trackpoint>
          <Trackpoint>
            <Time>2019-10-04T11:29:32.000Z</Time>
            <Position>
              <LatitudeDegrees>43.27324152924120426177978515625</LatitudeDegrees>
              <LongitudeDegrees>-5.71995598264038562774658203125</LongitudeDegrees>
            </Position>
            <AltitudeMeters>288</AltitudeMeters>
            <DistanceMeters>38988.491825264</DistanceMeters>
          </Trackpoint>
          <Trackpoint>
            <Time>2019-10-04T11:29:33.000Z</Time>
            <Position>
              <LatitudeDegrees>43.2732315547764301300048828125</LatitudeDegrees>
              <LongitudeDegrees>-5.72008908726274967193603515625</LongitudeDegrees>
            </Position>
            <AltitudeMeters>287.79998779296875</AltitudeMeters>
            <DistanceMeters>38999.335701668</DistanceMeters>
          </Trackpoint>
          <Trackpoint>
            <Time>2019-10-04T11:29:37.000Z</Time>
            <Position>
              <LatitudeDegrees>43.2731655053794384002685546875</LatitudeDegrees>
              <LongitudeDegrees>-5.72059317491948604583740234375</LongitudeDegrees>
            </Position>
            <AltitudeMeters>288</AltitudeMeters>
            <DistanceMeters>39040.842147844</DistanceMeters>
          </Trackpoint>
          <Trackpoint>
            <Time>2019-10-04T11:29:38.000Z</Time>
            <Position>
              <LatitudeDegrees>43.2731256075203418731689453125</LatitudeDegrees>
              <LongitudeDegrees>-5.72071454487740993499755859375</LongitudeDegrees>
            </Position>
            <AltitudeMeters>287.79998779296875</AltitudeMeters>
            <DistanceMeters>39051.633434414</DistanceMeters>
          </Trackpoint>
          <Trackpoint>
            <Time>2019-10-04T11:29:41.000Z</Time>
            <Position>
              <LatitudeDegrees>43.27292905189096927642822265625</LatitudeDegrees>
              <LongitudeDegrees>-5.7209994457662105560302734375</LongitudeDegrees>
            </Position>
            <AltitudeMeters>288.20001220703125</AltitudeMeters>
            <DistanceMeters>39083.439998582</DistanceMeters>
          </Trackpoint>
          <Trackpoint>
            <Time>2019-10-04T11:29:43.000Z</Time>
            <Position>
              <LatitudeDegrees>43.27275973744690418243408203125</LatitudeDegrees>
              <LongitudeDegrees>-5.7211466319859027862548828125</LongitudeDegrees>
            </Position>
            <AltitudeMeters>288.20001220703125</AltitudeMeters>
            <DistanceMeters>39105.742345335</DistanceMeters>
          </Trackpoint>
          <Trackpoint>
            <Time>2019-10-04T11:29:44.000Z</Time>
            <Position>
              <LatitudeDegrees>43.2726719789206981658935546875</LatitudeDegrees>
              <LongitudeDegrees>-5.7212207280099391937255859375</LongitudeDegrees>
            </Position>
            <AltitudeMeters>288.600006103515625</AltitudeMeters>
            <DistanceMeters>39117.207939644</DistanceMeters>
          </Trackpoint>
          <Trackpoint>
            <Time>2019-10-04T11:29:46.000Z</Time>
            <Position>
              <LatitudeDegrees>43.2724989764392375946044921875</LatitudeDegrees>
              <LongitudeDegrees>-5.7213876955211162567138671875</LongitudeDegrees>
            </Position>
            <AltitudeMeters>288.20001220703125</AltitudeMeters>
            <DistanceMeters>39140.74235633</DistanceMeters>
          </Trackpoint>
          <Trackpoint>
            <Time>2019-10-04T11:29:49.000Z</Time>
            <Position>
              <LatitudeDegrees>43.2722451724112033843994140625</LatitudeDegrees>
              <LongitudeDegrees>-5.7216730155050754547119140625</LongitudeDegrees>
            </Position>
            <AltitudeMeters>288.600006103515625</AltitudeMeters>
            <DistanceMeters>39177.247583235</DistanceMeters>
          </Trackpoint>
          <Trackpoint>
            <Time>2019-10-04T11:29:51.000Z</Time>
            <Position>
              <LatitudeDegrees>43.27209387905895709991455078125</LatitudeDegrees>
              <LongitudeDegrees>-5.72189874015748500823974609375</LongitudeDegrees>
            </Position>
            <AltitudeMeters>288.79998779296875</AltitudeMeters>
            <DistanceMeters>39202.110828663</DistanceMeters>
          </Trackpoint>
          <Trackpoint>
            <Time>2019-10-04T11:29:54.000Z</Time>
            <Position>
              <LatitudeDegrees>43.271902687847614288330078125</LatitudeDegrees>
              <LongitudeDegrees>-5.72231196798384189605712890625</LongitudeDegrees>
            </Position>
            <AltitudeMeters>289</AltitudeMeters>
            <DistanceMeters>39241.787981245</DistanceMeters>
          </Trackpoint>
          <Trackpoint>
            <Time>2019-10-04T11:29:55.000Z</Time>
            <Position>
              <LatitudeDegrees>43.27185214497148990631103515625</LatitudeDegrees>
              <LongitudeDegrees>-5.72246720083057880401611328125</LongitudeDegrees>
            </Position>
            <AltitudeMeters>288.79998779296875</AltitudeMeters>
            <DistanceMeters>39255.568493123</DistanceMeters>
          </Trackpoint>
          <Trackpoint>
            <Time>2019-10-04T11:29:59.000Z</Time>
            <Position>
              <LatitudeDegrees>43.27170009724795818328857421875</LatitudeDegrees>
              <LongitudeDegrees>-5.7231234200298786163330078125</LongitudeDegrees>
            </Position>
            <AltitudeMeters>288.79998779296875</AltitudeMeters>
            <DistanceMeters>39311.376445477</DistanceMeters>
          </Trackpoint>
          <Trackpoint>
            <Time>2019-10-04T11:30:02.000Z</Time>
            <Position>
              <LatitudeDegrees>43.27162046916782855987548828125</LatitudeDegrees>
              <LongitudeDegrees>-5.7235425151884555816650390625</LongitudeDegrees>
            </Position>
            <AltitudeMeters>289.20001220703125</AltitudeMeters>
            <DistanceMeters>39346.47733806</DistanceMeters>
          </Trackpoint>
          <Trackpoint>
            <Time>2019-10-04T11:30:07.000Z</Time>
            <Position>
              <LatitudeDegrees>43.27154695987701416015625</LatitudeDegrees>
              <LongitudeDegrees>-5.724183060228824615478515625</LongitudeDegrees>
            </Position>
            <AltitudeMeters>289.600006103515625</AltitudeMeters>
            <DistanceMeters>39399.02805621</DistanceMeters>
          </Trackpoint>
          <Trackpoint>
            <Time>2019-10-04T11:30:08.000Z</Time>
            <Position>
              <LatitudeDegrees>43.27158023603260517120361328125</LatitudeDegrees>
              <LongitudeDegrees>-5.7243852317333221435546875</LongitudeDegrees>
            </Position>
            <AltitudeMeters>289.600006103515625</AltitudeMeters>
            <DistanceMeters>39415.825489602</DistanceMeters>
          </Trackpoint>
          <Trackpoint>
            <Time>2019-10-04T11:30:09.000Z</Time>
            <Position>
              <LatitudeDegrees>43.27159331180155277252197265625</LatitudeDegrees>
              <LongitudeDegrees>-5.72443979792296886444091796875</LongitudeDegrees>
            </Position>
            <AltitudeMeters>289.79998779296875</AltitudeMeters>
            <DistanceMeters>39420.480828845</DistanceMeters>
          </Trackpoint>
          <Trackpoint>
            <Time>2019-10-04T11:30:10.000Z</Time>
            <Position>
              <LatitudeDegrees>43.271641843020915985107421875</LatitudeDegrees>
              <LongitudeDegrees>-5.72456669993698596954345703125</LongitudeDegrees>
            </Position>
            <AltitudeMeters>289.79998779296875</AltitudeMeters>
            <DistanceMeters>39432.097431721</DistanceMeters>
          </Trackpoint>
          <Trackpoint>
            <Time>2019-10-04T11:30:12.000Z</Time>
            <Position>
              <LatitudeDegrees>43.27175122685730457305908203125</LatitudeDegrees>
              <LongitudeDegrees>-5.7247920893132686614990234375</LongitudeDegrees>
            </Position>
            <AltitudeMeters>289.79998779296875</AltitudeMeters>
            <DistanceMeters>39454.048808425</DistanceMeters>
          </Trackpoint>
          <Trackpoint>
            <Time>2019-10-04T11:30:15.000Z</Time>
            <Position>
              <LatitudeDegrees>43.27189925126731395721435546875</LatitudeDegrees>
              <LongitudeDegrees>-5.72514605708420276641845703125</LongitudeDegrees>
            </Position>
            <AltitudeMeters>290</AltitudeMeters>
            <DistanceMeters>39487.129162321</DistanceMeters>
          </Trackpoint>
          <Trackpoint>
            <Time>2019-10-04T11:30:16.000Z</Time>
            <Position>
              <LatitudeDegrees>43.27192992903292179107666015625</LatitudeDegrees>
              <LongitudeDegrees>-5.72527371346950531005859375</LongitudeDegrees>
            </Position>
            <AltitudeMeters>290</AltitudeMeters>
            <DistanceMeters>39498.02288825</DistanceMeters>
          </Trackpoint>
          <Trackpoint>
            <Time>2019-10-04T11:30:17.000Z</Time>
            <Position>
              <LatitudeDegrees>43.27194434590637683868408203125</LatitudeDegrees>
              <LongitudeDegrees>-5.72539952583611011505126953125</LongitudeDegrees>
            </Position>
            <AltitudeMeters>289.79998779296875</AltitudeMeters>
            <DistanceMeters>39508.344119369</DistanceMeters>
          </Trackpoint>
          <Trackpoint>
            <Time>2019-10-04T11:30:19.000Z</Time>
            <Position>
              <LatitudeDegrees>43.27194686047732830047607421875</LatitudeDegrees>
              <LongitudeDegrees>-5.7256819121539592742919921875</LongitudeDegrees>
            </Position>
            <AltitudeMeters>290</AltitudeMeters>
            <DistanceMeters>39531.230174599</DistanceMeters>
          </Trackpoint>
          <Trackpoint>
            <Time>2019-10-04T11:30:20.000Z</Time>
            <Position>
              <LatitudeDegrees>43.27192272059619426727294921875</LatitudeDegrees>
              <LongitudeDegrees>-5.72582297958433628082275390625</LongitudeDegrees>
            </Position>
            <AltitudeMeters>290</AltitudeMeters>
            <DistanceMeters>39542.973569656</DistanceMeters>
          </Trackpoint>
          <Trackpoint>
            <Time>2019-10-04T11:30:22.000Z</Time>
            <Position>
              <LatitudeDegrees>43.271864466369152069091796875</LatitudeDegrees>
              <LongitudeDegrees>-5.72608583606779575347900390625</LongitudeDegrees>
            </Position>
            <AltitudeMeters>290</AltitudeMeters>
            <DistanceMeters>39565.240257268</DistanceMeters>
          </Trackpoint>
          <Trackpoint>
            <Time>2019-10-04T11:30:25.000Z</Time>
            <Position>
              <LatitudeDegrees>43.27175910584628582000732421875</LatitudeDegrees>
              <LongitudeDegrees>-5.72646193206310272216796875</LongitudeDegrees>
            </Position>
            <AltitudeMeters>290</AltitudeMeters>
            <DistanceMeters>39597.897249142</DistanceMeters>
          </Trackpoint>
          <Trackpoint>
            <Time>2019-10-04T11:30:27.000Z</Time>
            <Position>
              <LatitudeDegrees>43.27162273228168487548828125</LatitudeDegrees>
              <LongitudeDegrees>-5.7266625948250293731689453125</LongitudeDegrees>
            </Position>
            <AltitudeMeters>290.399993896484375</AltitudeMeters>
            <DistanceMeters>39620.142026708</DistanceMeters>
          </Trackpoint>
          <Trackpoint>
            <Time>2019-10-04T11:30:28.000Z</Time>
            <Position>
              <LatitudeDegrees>43.2715317048132419586181640625</LatitudeDegrees>
              <LongitudeDegrees>-5.7267316617071628570556640625</LongitudeDegrees>
            </Position>
            <AltitudeMeters>290.20001220703125</AltitudeMeters>
            <DistanceMeters>39631.716576986</DistanceMeters>
          </Trackpoint>
          <Trackpoint>
            <Time>2019-10-04T11:30:31.000Z</Time>
            <Position>
              <LatitudeDegrees>43.271223418414592742919921875</LatitudeDegrees>
              <LongitudeDegrees>-5.72683434002101421356201171875</LongitudeDegrees>
            </Position>
            <AltitudeMeters>290.20001220703125</AltitudeMeters>
            <DistanceMeters>39667.024084874</DistanceMeters>
          </Trackpoint>
          <Trackpoint>
            <Time>2019-10-04T11:30:33.000Z</Time>
            <Position>
              <LatitudeDegrees>43.27099970541894435882568359375</LatitudeDegrees>
              <LongitudeDegrees>-5.7268533669412136077880859375</LongitudeDegrees>
            </Position>
            <AltitudeMeters>290.20001220703125</AltitudeMeters>
            <DistanceMeters>39691.971448034</DistanceMeters>
          </Trackpoint>
          <Trackpoint>
            <Time>2019-10-04T11:30:35.000Z</Time>
            <Position>
              <LatitudeDegrees>43.2707696221768856048583984375</LatitudeDegrees>
              <LongitudeDegrees>-5.72687365114688873291015625</LongitudeDegrees>
            </Position>
            <AltitudeMeters>290.600006103515625</AltitudeMeters>
            <DistanceMeters>39717.632708029</DistanceMeters>
          </Trackpoint>
          <Trackpoint>
            <Time>2019-10-04T11:30:38.000Z</Time>
            <Position>
              <LatitudeDegrees>43.27043727971613407135009765625</LatitudeDegrees>
              <LongitudeDegrees>-5.72689686901867389678955078125</LongitudeDegrees>
            </Position>
            <AltitudeMeters>290.79998779296875</AltitudeMeters>
            <DistanceMeters>39754.670703292</DistanceMeters>
          </Trackpoint>
          <Trackpoint>
            <Time>2019-10-04T11:30:40.000Z</Time>
            <Position>
              <LatitudeDegrees>43.27022622339427471160888671875</LatitudeDegrees>
              <LongitudeDegrees>-5.7269200868904590606689453125</LongitudeDegrees>
            </Position>
            <AltitudeMeters>290.600006103515625</AltitudeMeters>
            <DistanceMeters>39778.23694528</DistanceMeters>
          </Trackpoint>
          <Trackpoint>
            <Time>2019-10-04T11:30:43.000Z</Time>
            <Position>
              <LatitudeDegrees>43.26994928531348705291748046875</LatitudeDegrees>
              <LongitudeDegrees>-5.726990997791290283203125</LongitudeDegrees>
            </Position>
            <AltitudeMeters>289.79998779296875</AltitudeMeters>
            <DistanceMeters>39809.591729327</DistanceMeters>
          </Trackpoint>
          <Trackpoint>
            <Time>2019-10-04T11:30:44.000Z</Time>
            <Position>
              <LatitudeDegrees>43.2698680646717548370361328125</LatitudeDegrees>
              <LongitudeDegrees>-5.727045647799968719482421875</LongitudeDegrees>
            </Position>
            <AltitudeMeters>289.600006103515625</AltitudeMeters>
            <DistanceMeters>39819.658283745</DistanceMeters>
          </Trackpoint>
          <Trackpoint>
            <Time>2019-10-04T11:30:46.000Z</Time>
            <Position>
              <LatitudeDegrees>43.2697466947138309478759765625</LatitudeDegrees>
              <LongitudeDegrees>-5.72721873410046100616455078125</LongitudeDegrees>
            </Position>
            <AltitudeMeters>288.399993896484375</AltitudeMeters>
            <DistanceMeters>39839.132501328</DistanceMeters>
          </Trackpoint>
          <Trackpoint>
            <Time>2019-10-04T11:30:47.000Z</Time>
            <Position>
              <LatitudeDegrees>43.26971232891082763671875</LatitudeDegrees>
              <LongitudeDegrees>-5.727334320545196533203125</LongitudeDegrees>
            </Position>
            <AltitudeMeters>288.399993896484375</AltitudeMeters>
            <DistanceMeters>39849.250950158</DistanceMeters>
          </Trackpoint>
          <Trackpoint>
            <Time>2019-10-04T11:30:49.000Z</Time>
            <Position>
              <LatitudeDegrees>43.26971526257693767547607421875</LatitudeDegrees>
              <LongitudeDegrees>-5.7275866158306598663330078125</LongitudeDegrees>
            </Position>
            <AltitudeMeters>288.20001220703125</AltitudeMeters>
            <DistanceMeters>39869.700469471</DistanceMeters>
          </Trackpoint>
          <Trackpoint>
            <Time>2019-10-04T11:30:52.000Z</Time>
            <Position>
              <LatitudeDegrees>43.2698450982570648193359375</LatitudeDegrees>
              <LongitudeDegrees>-5.72795030660927295684814453125</LongitudeDegrees>
            </Position>
            <AltitudeMeters>287.600006103515625</AltitudeMeters>
            <DistanceMeters>39902.526938702</DistanceMeters>
          </Trackpoint>
          <Trackpoint>
            <Time>2019-10-04T11:30:53.000Z</Time>
            <Position>
              <LatitudeDegrees>43.2699116505682468414306640625</LatitudeDegrees>
              <LongitudeDegrees>-5.72805516421794891357421875</LongitudeDegrees>
            </Position>
            <AltitudeMeters>287.20001220703125</AltitudeMeters>
            <DistanceMeters>39913.799927028</DistanceMeters>
          </Trackpoint>
          <Trackpoint>
            <Time>2019-10-04T11:30:55.000Z</Time>
            <Position>
              <LatitudeDegrees>43.27004634775221347808837890625</LatitudeDegrees>
              <LongitudeDegrees>-5.72825071401894092559814453125</LongitudeDegrees>
            </Position>
            <AltitudeMeters>287</AltitudeMeters>
            <DistanceMeters>39935.615544116</DistanceMeters>
          </Trackpoint>
          <Trackpoint>
            <Time>2019-10-04T11:30:56.000Z</Time>
            <Position>
              <LatitudeDegrees>43.27010569162666797637939453125</LatitudeDegrees>
              <LongitudeDegrees>-5.72835112921893596649169921875</LongitudeDegrees>
            </Position>
            <AltitudeMeters>287</AltitudeMeters>
            <DistanceMeters>39946.096951942</DistanceMeters>
          </Trackpoint>
          <Trackpoint>
            <Time>2019-10-04T11:30:57.000Z</Time>
            <Position>
              <LatitudeDegrees>43.27015933580696582794189453125</LatitudeDegrees>
              <LongitudeDegrees>-5.7284576632082462310791015625</LongitudeDegrees>
            </Position>
            <AltitudeMeters>286.79998779296875</AltitudeMeters>
            <DistanceMeters>39956.594286025</DistanceMeters>
          </Trackpoint>
          <Trackpoint>
            <Time>2019-10-04T11:30:58.000Z</Time>
            <Position>
              <LatitudeDegrees>43.27019437216222286224365234375</LatitudeDegrees>
              <LongitudeDegrees>-5.72856637649238109588623046875</LongitudeDegrees>
            </Position>
            <AltitudeMeters>287</AltitudeMeters>
            <DistanceMeters>39966.229076414</DistanceMeters>
          </Trackpoint>
          <Trackpoint>
            <Time>2019-10-04T11:30:59.000Z</Time>
            <Position>
              <LatitudeDegrees>43.270218260586261749267578125</LatitudeDegrees>
              <LongitudeDegrees>-5.72867609560489654541015625</LongitudeDegrees>
            </Position>
            <AltitudeMeters>287</AltitudeMeters>
            <DistanceMeters>39975.509640466</DistanceMeters>
          </Trackpoint>
          <Trackpoint>
            <Time>2019-10-04T11:31:02.000Z</Time>
            <Position>
              <LatitudeDegrees>43.27018716372549533843994140625</LatitudeDegrees>
              <LongitudeDegrees>-5.72897650301456451416015625</LongitudeDegrees>
            </Position>
            <AltitudeMeters>286.600006103515625</AltitudeMeters>
            <DistanceMeters>40000.099902947</DistanceMeters>
          </Trackpoint>
          <Trackpoint>
            <Time>2019-10-04T11:31:04.000Z</Time>
            <Position>
              <LatitudeDegrees>43.27005171217024326324462890625</LatitudeDegrees>
              <LongitudeDegrees>-5.7291228510439395904541015625</LongitudeDegrees>
            </Position>
            <AltitudeMeters>286.20001220703125</AltitudeMeters>
            <DistanceMeters>40019.282122708</DistanceMeters>
          </Trackpoint>
          <Trackpoint>
            <Time>2019-10-04T11:31:05.000Z</Time>
            <Position>
              <LatitudeDegrees>43.26995867304503917694091796875</LatitudeDegrees>
              <LongitudeDegrees>-5.729171298444271087646484375</LongitudeDegrees>
            </Position>
            <AltitudeMeters>285.79998779296875</AltitudeMeters>
            <DistanceMeters>40030.356710658</DistanceMeters>
          </Trackpoint>
          <Trackpoint>
            <Time>2019-10-04T11:31:07.000Z</Time>
            <Position>
              <LatitudeDegrees>43.2697453536093235015869140625</LatitudeDegrees>
              <LongitudeDegrees>-5.72922335006296634674072265625</LongitudeDegrees>
            </Position>
            <AltitudeMeters>285.20001220703125</AltitudeMeters>
            <DistanceMeters>40054.471412871</DistanceMeters>
          </Trackpoint>
          <Trackpoint>
            <Time>2019-10-04T11:31:10.000Z</Time>
            <Position>
              <LatitudeDegrees>43.26941887848079204559326171875</LatitudeDegrees>
              <LongitudeDegrees>-5.72921245358884334564208984375</LongitudeDegrees>
            </Position>
            <AltitudeMeters>285.20001220703125</AltitudeMeters>
            <DistanceMeters>40090.819348499</DistanceMeters>
          </Trackpoint>
          <Trackpoint>
            <Time>2019-10-04T11:31:11.000Z</Time>
            <Position>
              <LatitudeDegrees>43.269307315349578857421875</LatitudeDegrees>
              <LongitudeDegrees>-5.72919778525829315185546875</LongitudeDegrees>
            </Position>
            <AltitudeMeters>284.600006103515625</AltitudeMeters>
            <DistanceMeters>40103.292849095</DistanceMeters>
          </Trackpoint>
          <Trackpoint>
            <Time>2019-10-04T11:31:16.000Z</Time>
            <Position>
              <LatitudeDegrees>43.2687583006918430328369140625</LatitudeDegrees>
              <LongitudeDegrees>-5.729150511324405670166015625</LongitudeDegrees>
            </Position>
            <AltitudeMeters>283.600006103515625</AltitudeMeters>
            <DistanceMeters>40164.519262467</DistanceMeters>
          </Trackpoint>
          <Trackpoint>
            <Time>2019-10-04T11:31:17.000Z</Time>
            <Position>
              <LatitudeDegrees>43.26865595765411853790283203125</LatitudeDegrees>
              <LongitudeDegrees>-5.7291407883167266845703125</LongitudeDegrees>
            </Position>
            <AltitudeMeters>283.600006103515625</AltitudeMeters>
            <DistanceMeters>40175.937504174</DistanceMeters>
          </Trackpoint>
          <Trackpoint>
            <Time>2019-10-04T11:31:18.000Z</Time>
            <Position>
              <LatitudeDegrees>43.26856367290019989013671875</LatitudeDegrees>
              <LongitudeDegrees>-5.7291433028876781463623046875</LongitudeDegrees>
            </Position>
            <AltitudeMeters>283.79998779296875</AltitudeMeters>
            <DistanceMeters>40186.211381902</DistanceMeters>
          </Trackpoint>
          <Trackpoint>
            <Time>2019-10-04T11:31:20.000Z</Time>
            <Position>
              <LatitudeDegrees>43.268378935754299163818359375</LatitudeDegrees>
              <LongitudeDegrees>-5.72912930510938167572021484375</LongitudeDegrees>
            </Position>
            <AltitudeMeters>283</AltitudeMeters>
            <DistanceMeters>40206.804352789</DistanceMeters>
          </Trackpoint>
          <Trackpoint>
            <Time>2019-10-04T11:31:22.000Z</Time>
            <Position>
              <LatitudeDegrees>43.26819478534162044525146484375</LatitudeDegrees>
              <LongitudeDegrees>-5.729170627892017364501953125</LongitudeDegrees>
            </Position>
            <AltitudeMeters>282.600006103515625</AltitudeMeters>
            <DistanceMeters>40227.572418931</DistanceMeters>
          </Trackpoint>
          <Trackpoint>
            <Time>2019-10-04T11:31:23.000Z</Time>
            <Position>
              <LatitudeDegrees>43.268106020987033843994140625</LatitudeDegrees>
              <LongitudeDegrees>-5.7292167283594608306884765625</LongitudeDegrees>
            </Position>
            <AltitudeMeters>282.20001220703125</AltitudeMeters>
            <DistanceMeters>40238.13535529</DistanceMeters>
          </Trackpoint>
          <Trackpoint>
            <Time>2019-10-04T11:31:26.000Z</Time>
            <Position>
              <LatitudeDegrees>43.2678763568401336669921875</LatitudeDegrees>
              <LongitudeDegrees>-5.72948989458382129669189453125</LongitudeDegrees>
            </Position>
            <AltitudeMeters>281.399993896484375</AltitudeMeters>
            <DistanceMeters>40271.951783557</DistanceMeters>
          </Trackpoint>
          <Trackpoint>
            <Time>2019-10-04T11:31:29.000Z</Time>
            <Position>
              <LatitudeDegrees>43.26770947314798831939697265625</LatitudeDegrees>
              <LongitudeDegrees>-5.72986565530300140380859375</LongitudeDegrees>
            </Position>
            <AltitudeMeters>280.600006103515625</AltitudeMeters>
            <DistanceMeters>40307.623146467</DistanceMeters>
          </Trackpoint>
          <Trackpoint>
            <Time>2019-10-04T11:31:30.000Z</Time>
            <Position>
              <LatitudeDegrees>43.26765817590057849884033203125</LatitudeDegrees>
              <LongitudeDegrees>-5.72999901138246059417724609375</LongitudeDegrees>
            </Position>
            <AltitudeMeters>280.20001220703125</AltitudeMeters>
            <DistanceMeters>40319.846552083</DistanceMeters>
          </Trackpoint>
          <Trackpoint>
            <Time>2019-10-04T11:31:35.000Z</Time>
            <Position>
              <LatitudeDegrees>43.26737218536436557769775390625</LatitudeDegrees>
              <LongitudeDegrees>-5.73067677207291126251220703125</LongitudeDegrees>
            </Position>
            <AltitudeMeters>279.79998779296875</AltitudeMeters>
            <DistanceMeters>40383.332789806</DistanceMeters>
          </Trackpoint>
          <Trackpoint>
            <Time>2019-10-04T11:31:36.000Z</Time>
            <Position>
              <LatitudeDegrees>43.26731217093765735626220703125</LatitudeDegrees>
              <LongitudeDegrees>-5.7308139838278293609619140625</LongitudeDegrees>
            </Position>
            <AltitudeMeters>279.600006103515625</AltitudeMeters>
            <DistanceMeters>40396.305241563</DistanceMeters>
          </Trackpoint>
          <Trackpoint>
            <Time>2019-10-04T11:31:41.000Z</Time>
            <Position>
              <LatitudeDegrees>43.26703389175236225128173828125</LatitudeDegrees>
              <LongitudeDegrees>-5.7314717955887317657470703125</LongitudeDegrees>
            </Position>
            <AltitudeMeters>279</AltitudeMeters>
            <DistanceMeters>40457.962569292</DistanceMeters>
          </Trackpoint>
          <Trackpoint>
            <Time>2019-10-04T11:31:42.000Z</Time>
            <Position>
              <LatitudeDegrees>43.26698795892298221588134765625</LatitudeDegrees>
              <LongitudeDegrees>-5.73158704675734043121337890625</LongitudeDegrees>
            </Position>
            <AltitudeMeters>278.600006103515625</AltitudeMeters>
            <DistanceMeters>40468.610650801</DistanceMeters>
          </Trackpoint>
          <Trackpoint>
            <Time>2019-10-04T11:31:43.000Z</Time>
            <Position>
              <LatitudeDegrees>43.26694923453032970428466796875</LatitudeDegrees>
              <LongitudeDegrees>-5.7317108474671840667724609375</LongitudeDegrees>
            </Position>
            <AltitudeMeters>278.79998779296875</AltitudeMeters>
            <DistanceMeters>40479.530870099</DistanceMeters>
          </Trackpoint>
          <Trackpoint>
            <Time>2019-10-04T11:31:45.000Z</Time>
            <Position>
              <LatitudeDegrees>43.26687480323016643524169921875</LatitudeDegrees>
              <LongitudeDegrees>-5.7319626398384571075439453125</LongitudeDegrees>
            </Position>
            <AltitudeMeters>277.79998779296875</AltitudeMeters>
            <DistanceMeters>40501.555348446</DistanceMeters>
          </Trackpoint>
          <Trackpoint>
            <Time>2019-10-04T11:31:46.000Z</Time>
            <Position>
              <LatitudeDegrees>43.266852088272571563720703125</LatitudeDegrees>
              <LongitudeDegrees>-5.73210270144045352935791015625</LongitudeDegrees>
            </Position>
            <AltitudeMeters>277.79998779296875</AltitudeMeters>
            <DistanceMeters>40513.185158632</DistanceMeters>
          </Trackpoint>
          <Trackpoint>
            <Time>2019-10-04T11:31:49.000Z</Time>
            <Position>
              <LatitudeDegrees>43.266893327236175537109375</LatitudeDegrees>
              <LongitudeDegrees>-5.7325311005115509033203125</LongitudeDegrees>
            </Position>
            <AltitudeMeters>276.79998779296875</AltitudeMeters>
            <DistanceMeters>40548.207498838</DistanceMeters>
          </Trackpoint>
          <Trackpoint>
            <Time>2019-10-04T11:31:52.000Z</Time>
            <Position>
              <LatitudeDegrees>43.267092145979404449462890625</LatitudeDegrees>
              <LongitudeDegrees>-5.7328905165195465087890625</LongitudeDegrees>
            </Position>
            <AltitudeMeters>275.79998779296875</AltitudeMeters>
            <DistanceMeters>40584.789081343</DistanceMeters>
          </Trackpoint>
          <Trackpoint>
            <Time>2019-10-04T11:31:53.000Z</Time>
            <Position>
              <LatitudeDegrees>43.26717806048691272735595703125</LatitudeDegrees>
              <LongitudeDegrees>-5.73299688287079334259033203125</LongitudeDegrees>
            </Position>
            <AltitudeMeters>275.600006103515625</AltitudeMeters>
            <DistanceMeters>40597.663710783</DistanceMeters>
          </Trackpoint>
          <Trackpoint>
            <Time>2019-10-04T11:31:54.000Z</Time>
            <Position>
              <LatitudeDegrees>43.2672629691660404205322265625</LatitudeDegrees>
              <LongitudeDegrees>-5.73310316540300846099853515625</LongitudeDegrees>
            </Position>
            <AltitudeMeters>275.20001220703125</AltitudeMeters>
            <DistanceMeters>40610.451072678</DistanceMeters>
          </Trackpoint>
          <Trackpoint>
            <Time>2019-10-04T11:31:56.000Z</Time>
            <Position>
              <LatitudeDegrees>43.26744091697037220001220703125</LatitudeDegrees>
              <LongitudeDegrees>-5.73328991420567035675048828125</LongitudeDegrees>
            </Position>
            <AltitudeMeters>275.20001220703125</AltitudeMeters>
            <DistanceMeters>40635.377795286</DistanceMeters>
          </Trackpoint>
          <Trackpoint>
            <Time>2019-10-04T11:31:59.000Z</Time>
            <Position>
              <LatitudeDegrees>43.26769270934164524078369140625</LatitudeDegrees>
              <LongitudeDegrees>-5.73357590474188327789306640625</LongitudeDegrees>
            </Position>
            <AltitudeMeters>274.79998779296875</AltitudeMeters>
            <DistanceMeters>40671.745724381</DistanceMeters>
          </Trackpoint>
          <Trackpoint>
            <Time>2019-10-04T11:32:00.000Z</Time>
            <Position>
              <LatitudeDegrees>43.2677628658711910247802734375</LatitudeDegrees>
              <LongitudeDegrees>-5.73368855752050876617431640625</LongitudeDegrees>
            </Position>
            <AltitudeMeters>274.600006103515625</AltitudeMeters>
            <DistanceMeters>40683.75937128</DistanceMeters>
          </Trackpoint>
          <Trackpoint>
            <Time>2019-10-04T11:32:01.000Z</Time>
            <Position>
              <LatitudeDegrees>43.26782212592661380767822265625</LatitudeDegrees>
              <LongitudeDegrees>-5.733813531696796417236328125</LongitudeDegrees>
            </Position>
            <AltitudeMeters>274.600006103515625</AltitudeMeters>
            <DistanceMeters>40695.846082028</DistanceMeters>
          </Trackpoint>
          <Trackpoint>
            <Time>2019-10-04T11:32:04.000Z</Time>
            <Position>
              <LatitudeDegrees>43.2679006643593311309814453125</LatitudeDegrees>
              <LongitudeDegrees>-5.734221227467060089111328125</LongitudeDegrees>
            </Position>
            <AltitudeMeters>274.600006103515625</AltitudeMeters>
            <DistanceMeters>40730.024801566</DistanceMeters>
          </Trackpoint>
          <Trackpoint>
            <Time>2019-10-04T11:32:05.000Z</Time>
            <Position>
              <LatitudeDegrees>43.26790007762610912322998046875</LatitudeDegrees>
              <LongitudeDegrees>-5.734353326261043548583984375</LongitudeDegrees>
            </Position>
            <AltitudeMeters>274.600006103515625</AltitudeMeters>
            <DistanceMeters>40740.730816712</DistanceMeters>
          </Trackpoint>
          <Trackpoint>
            <Time>2019-10-04T11:32:07.000Z</Time>
            <Position>
              <LatitudeDegrees>43.26785816811025142669677734375</LatitudeDegrees>
              <LongitudeDegrees>-5.7346205413341522216796875</LongitudeDegrees>
            </Position>
            <AltitudeMeters>274.20001220703125</AltitudeMeters>
            <DistanceMeters>40762.884069172</DistanceMeters>
          </Trackpoint>
          <Trackpoint>
            <Time>2019-10-04T11:32:10.000Z</Time>
            <Position>
              <LatitudeDegrees>43.26767594553530216217041015625</LatitudeDegrees>
              <LongitudeDegrees>-5.73498691432178020477294921875</LongitudeDegrees>
            </Position>
            <AltitudeMeters>274.20001220703125</AltitudeMeters>
            <DistanceMeters>40798.842735389</DistanceMeters>
          </Trackpoint>
          <Trackpoint>
            <Time>2019-10-04T11:32:12.000Z</Time>
            <Position>
              <LatitudeDegrees>43.26751249842345714569091796875</LatitudeDegrees>
              <LongitudeDegrees>-5.73520191013813018798828125</LongitudeDegrees>
            </Position>
            <AltitudeMeters>274.20001220703125</AltitudeMeters>
            <DistanceMeters>40824.033240185</DistanceMeters>
          </Trackpoint>
          <Trackpoint>
            <Time>2019-10-04T11:32:14.000Z</Time>
            <Position>
              <LatitudeDegrees>43.267361707985401153564453125</LatitudeDegrees>
              <LongitudeDegrees>-5.73539729230105876922607421875</LongitudeDegrees>
            </Position>
            <AltitudeMeters>274.399993896484375</AltitudeMeters>
            <DistanceMeters>40847.107714551</DistanceMeters>
          </Trackpoint>
          <Trackpoint>
            <Time>2019-10-04T11:32:17.000Z</Time>
            <Position>
              <LatitudeDegrees>43.2671543397009372711181640625</LatitudeDegrees>
              <LongitudeDegrees>-5.7356999628245830535888671875</LongitudeDegrees>
            </Position>
            <AltitudeMeters>274.600006103515625</AltitudeMeters>
            <DistanceMeters>40880.789289687</DistanceMeters>
          </Trackpoint>
          <Trackpoint>
            <Time>2019-10-04T11:32:18.000Z</Time>
            <Position>
              <LatitudeDegrees>43.2671038806438446044921875</LatitudeDegrees>
              <LongitudeDegrees>-5.73581789620220661163330078125</LongitudeDegrees>
            </Position>
            <AltitudeMeters>274.399993896484375</AltitudeMeters>
            <DistanceMeters>40891.87528718</DistanceMeters>
          </Trackpoint>
          <Trackpoint>
            <Time>2019-10-04T11:32:20.000Z</Time>
            <Position>
              <LatitudeDegrees>43.26705216430127620697021484375</LatitudeDegrees>
              <LongitudeDegrees>-5.73607522062957286834716796875</LongitudeDegrees>
            </Position>
            <AltitudeMeters>274</AltitudeMeters>
            <DistanceMeters>40913.510096687</DistanceMeters>
          </Trackpoint>
          <Trackpoint>
            <Time>2019-10-04T11:32:21.000Z</Time>
            <Position>
              <LatitudeDegrees>43.267046548426151275634765625</LatitudeDegrees>
              <LongitudeDegrees>-5.7362045533955097198486328125</LongitudeDegrees>
            </Position>
            <AltitudeMeters>274.399993896484375</AltitudeMeters>
            <DistanceMeters>40924.010441128</DistanceMeters>
          </Trackpoint>
          <Trackpoint>
            <Time>2019-10-04T11:32:22.000Z</Time>
            <Position>
              <LatitudeDegrees>43.2670738734304904937744140625</LatitudeDegrees>
              <LongitudeDegrees>-5.736331455409526824951171875</LongitudeDegrees>
            </Position>
            <AltitudeMeters>274.20001220703125</AltitudeMeters>
            <DistanceMeters>40934.735417293</DistanceMeters>
          </Trackpoint>
          <Trackpoint>
            <Time>2019-10-04T11:32:23.000Z</Time>
            <Position>
              <LatitudeDegrees>43.267121650278568267822265625</LatitudeDegrees>
              <LongitudeDegrees>-5.73645140044391155242919921875</LongitudeDegrees>
            </Position>
            <AltitudeMeters>274.600006103515625</AltitudeMeters>
            <DistanceMeters>40945.816118959</DistanceMeters>
          </Trackpoint>
          <Trackpoint>
            <Time>2019-10-04T11:32:26.000Z</Time>
            <Position>
              <LatitudeDegrees>43.26732289977371692657470703125</LatitudeDegrees>
              <LongitudeDegrees>-5.7367319427430629730224609375</LongitudeDegrees>
            </Position>
            <AltitudeMeters>274</AltitudeMeters>
            <DistanceMeters>40977.733214437</DistanceMeters>
          </Trackpoint>
          <Trackpoint>
            <Time>2019-10-04T11:32:28.000Z</Time>
            <Position>
              <LatitudeDegrees>43.26750445179641246795654296875</LatitudeDegrees>
              <LongitudeDegrees>-5.7368392311036586761474609375</LongitudeDegrees>
            </Position>
            <AltitudeMeters>274</AltitudeMeters>
            <DistanceMeters>40999.731847504</DistanceMeters>
          </Trackpoint>
          <Trackpoint>
            <Time>2019-10-04T11:32:29.000Z</Time>
            <Position>
              <LatitudeDegrees>43.2676022686064243316650390625</LatitudeDegrees>
              <LongitudeDegrees>-5.7368740998208522796630859375</LongitudeDegrees>
            </Position>
            <AltitudeMeters>274</AltitudeMeters>
            <DistanceMeters>41010.979574873</DistanceMeters>
          </Trackpoint>
          <Trackpoint>
            <Time>2019-10-04T11:32:30.000Z</Time>
            <Position>
              <LatitudeDegrees>43.26769924722611904144287109375</LatitudeDegrees>
              <LongitudeDegrees>-5.73690737597644329071044921875</LongitudeDegrees>
            </Position>
            <AltitudeMeters>274</AltitudeMeters>
            <DistanceMeters>41022.104601963</DistanceMeters>
          </Trackpoint>
          <Trackpoint>
            <Time>2019-10-04T11:32:32.000Z</Time>
            <Position>
              <LatitudeDegrees>43.26789043843746185302734375</LatitudeDegrees>
              <LongitudeDegrees>-5.73701080866158008575439453125</LongitudeDegrees>
            </Position>
            <AltitudeMeters>274</AltitudeMeters>
            <DistanceMeters>41044.976250972</DistanceMeters>
          </Trackpoint>
          <Trackpoint>
            <Time>2019-10-04T11:32:33.000Z</Time>
            <Position>
              <LatitudeDegrees>43.26797232963144779205322265625</LatitudeDegrees>
              <LongitudeDegrees>-5.73710083030164241790771484375</LongitudeDegrees>
            </Position>
            <AltitudeMeters>273.79998779296875</AltitudeMeters>
            <DistanceMeters>41056.651782394</DistanceMeters>
          </Trackpoint>
          <Trackpoint>
            <Time>2019-10-04T11:32:36.000Z</Time>
            <Position>
              <LatitudeDegrees>43.26817936263978481292724609375</LatitudeDegrees>
              <LongitudeDegrees>-5.737444572150707244873046875</LongitudeDegrees>
            </Position>
            <AltitudeMeters>273.600006103515625</AltitudeMeters>
            <DistanceMeters>41092.805419903</DistanceMeters>
          </Trackpoint>
          <Trackpoint>
            <Time>2019-10-04T11:32:40.000Z</Time>
            <Position>
              <LatitudeDegrees>43.2684129662811756134033203125</LatitudeDegrees>
              <LongitudeDegrees>-5.7379724644124507904052734375</LongitudeDegrees>
            </Position>
            <AltitudeMeters>273.399993896484375</AltitudeMeters>
            <DistanceMeters>41142.869439697</DistanceMeters>
          </Trackpoint>
          <Trackpoint>
            <Time>2019-10-04T11:32:41.000Z</Time>
            <Position>
              <LatitudeDegrees>43.2684743218123912811279296875</LatitudeDegrees>
              <LongitudeDegrees>-5.73810045607388019561767578125</LongitudeDegrees>
            </Position>
            <AltitudeMeters>273.79998779296875</AltitudeMeters>
            <DistanceMeters>41155.288526043</DistanceMeters>
          </Trackpoint>
          <Trackpoint>
            <Time>2019-10-04T11:32:44.000Z</Time>
            <Position>
              <LatitudeDegrees>43.26869166456162929534912109375</LatitudeDegrees>
              <LongitudeDegrees>-5.73845718987286090850830078125</LongitudeDegrees>
            </Position>
            <AltitudeMeters>273.399993896484375</AltitudeMeters>
            <DistanceMeters>41192.985277492</DistanceMeters>
          </Trackpoint>
          <Trackpoint>
            <Time>2019-10-04T11:32:45.000Z</Time>
            <Position>
              <LatitudeDegrees>43.26877246610820293426513671875</LatitudeDegrees>
              <LongitudeDegrees>-5.73856431059539318084716796875</LongitudeDegrees>
            </Position>
            <AltitudeMeters>273.399993896484375</AltitudeMeters>
            <DistanceMeters>41205.484812789</DistanceMeters>
          </Trackpoint>
          <Trackpoint>
            <Time>2019-10-04T11:32:46.000Z</Time>
            <Position>
              <LatitudeDegrees>43.26886131428182125091552734375</LatitudeDegrees>
              <LongitudeDegrees>-5.7386550866067409515380859375</LongitudeDegrees>
            </Position>
            <AltitudeMeters>273.399993896484375</AltitudeMeters>
            <DistanceMeters>41217.810111001</DistanceMeters>
          </Trackpoint>
          <Trackpoint>
            <Time>2019-10-04T11:32:48.000Z</Time>
            <Position>
              <LatitudeDegrees>43.26906013302505016326904296875</LatitudeDegrees>
              <LongitudeDegrees>-5.73879539966583251953125</LongitudeDegrees>
            </Position>
            <AltitudeMeters>273.600006103515625</AltitudeMeters>
            <DistanceMeters>41242.689876076</DistanceMeters>
          </Trackpoint>
          <Trackpoint>
            <Time>2019-10-04T11:32:50.000Z</Time>
            <Position>
              <LatitudeDegrees>43.26926498673856258392333984375</LatitudeDegrees>
              <LongitudeDegrees>-5.73889791034162044525146484375</LongitudeDegrees>
            </Position>
            <AltitudeMeters>273.399993896484375</AltitudeMeters>
            <DistanceMeters>41266.95687847</DistanceMeters>
          </Trackpoint>
          <Trackpoint>
            <Time>2019-10-04T11:32:52.000Z</Time>
            <Position>
              <LatitudeDegrees>43.2694744504988193511962890625</LatitudeDegrees>
              <LongitudeDegrees>-5.73895256035029888153076171875</LongitudeDegrees>
            </Position>
            <AltitudeMeters>273.399993896484375</AltitudeMeters>
            <DistanceMeters>41290.687505459</DistanceMeters>
          </Trackpoint>
          <Trackpoint>
            <Time>2019-10-04T11:32:57.000Z</Time>
            <Position>
              <LatitudeDegrees>43.2699740119278430938720703125</LatitudeDegrees>
              <LongitudeDegrees>-5.73904015123844146728515625</LongitudeDegrees>
            </Position>
            <AltitudeMeters>272.399993896484375</AltitudeMeters>
            <DistanceMeters>41346.740944323</DistanceMeters>
          </Trackpoint>
          <Trackpoint>
            <Time>2019-10-04T11:33:00.000Z</Time>
            <Position>
              <LatitudeDegrees>43.27018666081130504608154296875</LatitudeDegrees>
              <LongitudeDegrees>-5.7392622716724872589111328125</LongitudeDegrees>
            </Position>
            <AltitudeMeters>271.600006103515625</AltitudeMeters>
            <DistanceMeters>41376.476866797</DistanceMeters>
          </Trackpoint>
          <Trackpoint>
            <Time>2019-10-04T11:33:02.000Z</Time>
            <Position>
              <LatitudeDegrees>43.2702315039932727813720703125</LatitudeDegrees>
              <LongitudeDegrees>-5.739516913890838623046875</LongitudeDegrees>
            </Position>
            <AltitudeMeters>270.79998779296875</AltitudeMeters>
            <DistanceMeters>41397.708480397</DistanceMeters>
          </Trackpoint>
          <Trackpoint>
            <Time>2019-10-04T11:33:05.000Z</Time>
            <Position>
              <LatitudeDegrees>43.27014617621898651123046875</LatitudeDegrees>
              <LongitudeDegrees>-5.739895440638065338134765625</LongitudeDegrees>
            </Position>
            <AltitudeMeters>270</AltitudeMeters>
            <DistanceMeters>41429.821745883</DistanceMeters>
          </Trackpoint>
          <Trackpoint>
            <Time>2019-10-04T11:33:06.000Z</Time>
            <Position>
              <LatitudeDegrees>43.270068727433681488037109375</LatitudeDegrees>
              <LongitudeDegrees>-5.73998588137328624725341796875</LongitudeDegrees>
            </Position>
            <AltitudeMeters>269.600006103515625</AltitudeMeters>
            <DistanceMeters>41441.136710479</DistanceMeters>
          </Trackpoint>
          <Trackpoint>
            <Time>2019-10-04T11:33:07.000Z</Time>
            <Position>
              <LatitudeDegrees>43.2699746824800968170166015625</LatitudeDegrees>
              <LongitudeDegrees>-5.74005930684506893157958984375</LongitudeDegrees>
            </Position>
            <AltitudeMeters>269.20001220703125</AltitudeMeters>
            <DistanceMeters>41453.17701144</DistanceMeters>
          </Trackpoint>
          <Trackpoint>
            <Time>2019-10-04T11:33:08.000Z</Time>
            <Position>
              <LatitudeDegrees>43.269834704697132110595703125</LatitudeDegrees>
              <LongitudeDegrees>-5.74014849029481410980224609375</LongitudeDegrees>
            </Position>
            <AltitudeMeters>268.600006103515625</AltitudeMeters>
            <DistanceMeters>41470.351627798</DistanceMeters>
          </Trackpoint>
          <Trackpoint>
            <Time>2019-10-04T11:33:09.000Z</Time>
            <Position>
              <LatitudeDegrees>43.26976689510047435760498046875</LatitudeDegrees>
              <LongitudeDegrees>-5.7401836104691028594970703125</LongitudeDegrees>
            </Position>
            <AltitudeMeters>268.600006103515625</AltitudeMeters>
            <DistanceMeters>41478.417711159</DistanceMeters>
          </Trackpoint>
          <Trackpoint>
            <Time>2019-10-04T11:33:11.000Z</Time>
            <Position>
              <LatitudeDegrees>43.2695607841014862060546875</LatitudeDegrees>
              <LongitudeDegrees>-5.74030238203704357147216796875</LongitudeDegrees>
            </Position>
            <AltitudeMeters>268.20001220703125</AltitudeMeters>
            <DistanceMeters>41503.295842911</DistanceMeters>
          </Trackpoint>
          <Trackpoint>
            <Time>2019-10-04T11:33:13.000Z</Time>
            <Position>
              <LatitudeDegrees>43.26939222402870655059814453125</LatitudeDegrees>
              <LongitudeDegrees>-5.7404484786093235015869140625</LongitudeDegrees>
            </Position>
            <AltitudeMeters>267.79998779296875</AltitudeMeters>
            <DistanceMeters>41525.480866835</DistanceMeters>
          </Trackpoint>
          <Trackpoint>
            <Time>2019-10-04T11:33:14.000Z</Time>
            <Position>
              <LatitudeDegrees>43.26931276358664035797119140625</LatitudeDegrees>
              <LongitudeDegrees>-5.74053908698260784149169921875</LongitudeDegrees>
            </Position>
            <AltitudeMeters>267.79998779296875</AltitudeMeters>
            <DistanceMeters>41536.975957465</DistanceMeters>
          </Trackpoint>
          <Trackpoint>
            <Time>2019-10-04T11:33:16.000Z</Time>
            <Position>
              <LatitudeDegrees>43.26918569393455982208251953125</LatitudeDegrees>
              <LongitudeDegrees>-5.7407783903181552886962890625</LongitudeDegrees>
            </Position>
            <AltitudeMeters>267.79998779296875</AltitudeMeters>
            <DistanceMeters>41560.979374462</DistanceMeters>
          </Trackpoint>
          <Trackpoint>
            <Time>2019-10-04T11:33:17.000Z</Time>
            <Position>
              <LatitudeDegrees>43.2691425271332263946533203125</LatitudeDegrees>
              <LongitudeDegrees>-5.74091493152081966400146484375</LongitudeDegrees>
            </Position>
            <AltitudeMeters>267.600006103515625</AltitudeMeters>
            <DistanceMeters>41573.0432769</DistanceMeters>
          </Trackpoint>
          <Trackpoint>
            <Time>2019-10-04T11:33:20.000Z</Time>
            <Position>
              <LatitudeDegrees>43.2690828479826450347900390625</LatitudeDegrees>
              <LongitudeDegrees>-5.74129312299191951751708984375</LongitudeDegrees>
            </Position>
            <AltitudeMeters>267.600006103515625</AltitudeMeters>
            <DistanceMeters>41604.404972108</DistanceMeters>
          </Trackpoint>
          <Trackpoint>
            <Time>2019-10-04T11:33:21.000Z</Time>
            <Position>
              <LatitudeDegrees>43.26905912719666957855224609375</LatitudeDegrees>
              <LongitudeDegrees>-5.74140091426670551300048828125</LongitudeDegrees>
            </Position>
            <AltitudeMeters>267.399993896484375</AltitudeMeters>
            <DistanceMeters>41613.531000545</DistanceMeters>
          </Trackpoint>
          <Trackpoint>
            <Time>2019-10-04T11:33:22.000Z</Time>
            <Position>
              <LatitudeDegrees>43.26900380663573741912841796875</LatitudeDegrees>
              <LongitudeDegrees>-5.74149663560092449188232421875</LongitudeDegrees>
            </Position>
            <AltitudeMeters>267.600006103515625</AltitudeMeters>
            <DistanceMeters>41623.435683805</DistanceMeters>
          </Trackpoint>
          <Trackpoint>
            <Time>2019-10-04T11:33:23.000Z</Time>
            <Position>
              <LatitudeDegrees>43.2689276151359081268310546875</LatitudeDegrees>
              <LongitudeDegrees>-5.7415599189698696136474609375</LongitudeDegrees>
            </Position>
            <AltitudeMeters>267.399993896484375</AltitudeMeters>
            <DistanceMeters>41633.346746895</DistanceMeters>
          </Trackpoint>
          <Trackpoint>
            <Time>2019-10-04T11:33:25.000Z</Time>
            <Position>
              <LatitudeDegrees>43.26875888742506504058837890625</LatitudeDegrees>
              <LongitudeDegrees>-5.7415652833878993988037109375</LongitudeDegrees>
            </Position>
            <AltitudeMeters>267.20001220703125</AltitudeMeters>
            <DistanceMeters>41652.131776234</DistanceMeters>
          </Trackpoint>
          <Trackpoint>
            <Time>2019-10-04T11:33:27.000Z</Time>
            <Position>
              <LatitudeDegrees>43.26860080473124980926513671875</LatitudeDegrees>
              <LongitudeDegrees>-5.7414281554520130157470703125</LongitudeDegrees>
            </Position>
            <AltitudeMeters>267.20001220703125</AltitudeMeters>
            <DistanceMeters>41672.942843636</DistanceMeters>
          </Trackpoint>
          <Trackpoint>
            <Time>2019-10-04T11:33:30.000Z</Time>
            <Position>
              <LatitudeDegrees>43.2684320770204067230224609375</LatitudeDegrees>
              <LongitudeDegrees>-5.74110209941864013671875</LongitudeDegrees>
            </Position>
            <AltitudeMeters>267.399993896484375</AltitudeMeters>
            <DistanceMeters>41705.361301601</DistanceMeters>
          </Trackpoint>
          <Trackpoint>
            <Time>2019-10-04T11:33:31.000Z</Time>
            <Position>
              <LatitudeDegrees>43.2683765888214111328125</LatitudeDegrees>
              <LongitudeDegrees>-5.74098483659327030181884765625</LongitudeDegrees>
            </Position>
            <AltitudeMeters>267.20001220703125</AltitudeMeters>
            <DistanceMeters>41716.695403572</DistanceMeters>
          </Trackpoint>
          <Trackpoint>
            <Time>2019-10-04T11:33:36.000Z</Time>
            <Position>
              <LatitudeDegrees>43.26808364130556583404541015625</LatitudeDegrees>
              <LongitudeDegrees>-5.74041788466274738311767578125</LongitudeDegrees>
            </Position>
            <AltitudeMeters>267.399993896484375</AltitudeMeters>
            <DistanceMeters>41773.037190488</DistanceMeters>
          </Trackpoint>
          <Trackpoint>
            <Time>2019-10-04T11:33:37.000Z</Time>
            <Position>
              <LatitudeDegrees>43.26802127994596958160400390625</LatitudeDegrees>
              <LongitudeDegrees>-5.74031227268278598785400390625</LongitudeDegrees>
            </Position>
            <AltitudeMeters>267</AltitudeMeters>
            <DistanceMeters>41784.057012084</DistanceMeters>
          </Trackpoint>
          <Trackpoint>
            <Time>2019-10-04T11:33:39.000Z</Time>
            <Position>
              <LatitudeDegrees>43.26789915561676025390625</LatitudeDegrees>
              <LongitudeDegrees>-5.74010306037962436676025390625</LongitudeDegrees>
            </Position>
            <AltitudeMeters>267.20001220703125</AltitudeMeters>
            <DistanceMeters>41805.788439508</DistanceMeters>
          </Trackpoint>
          <Trackpoint>
            <Time>2019-10-04T11:33:43.000Z</Time>
            <Position>
              <LatitudeDegrees>43.26759262941777706146240234375</LatitudeDegrees>
              <LongitudeDegrees>-5.73972587473690509796142578125</LongitudeDegrees>
            </Position>
            <AltitudeMeters>267.600006103515625</AltitudeMeters>
            <DistanceMeters>41851.597229978</DistanceMeters>
          </Trackpoint>
          <Trackpoint>
            <Time>2019-10-04T11:33:46.000Z</Time>
            <Position>
              <LatitudeDegrees>43.26730613596737384796142578125</LatitudeDegrees>
              <LongitudeDegrees>-5.73950442485511302947998046875</LongitudeDegrees>
            </Position>
            <AltitudeMeters>268</AltitudeMeters>
            <DistanceMeters>41888.188438274</DistanceMeters>
          </Trackpoint>
          <Trackpoint>
            <Time>2019-10-04T11:33:47.000Z</Time>
            <Position>
              <LatitudeDegrees>43.267204128205776214599609375</LatitudeDegrees>
              <LongitudeDegrees>-5.7394443266093730926513671875</LongitudeDegrees>
            </Position>
            <AltitudeMeters>267.600006103515625</AltitudeMeters>
            <DistanceMeters>41900.542642096</DistanceMeters>
          </Trackpoint>
          <Trackpoint>
            <Time>2019-10-04T11:33:50.000Z</Time>
            <Position>
              <LatitudeDegrees>43.26688804663717746734619140625</LatitudeDegrees>
              <LongitudeDegrees>-5.739259757101535797119140625</LongitudeDegrees>
            </Position>
            <AltitudeMeters>268.600006103515625</AltitudeMeters>
            <DistanceMeters>41938.77126451</DistanceMeters>
          </Trackpoint>
          <Trackpoint>
            <Time>2019-10-04T11:33:52.000Z</Time>
            <Position>
              <LatitudeDegrees>43.2667080871760845184326171875</LatitudeDegrees>
              <LongitudeDegrees>-5.7391445897519588470458984375</LongitudeDegrees>
            </Position>
            <AltitudeMeters>268.20001220703125</AltitudeMeters>
            <DistanceMeters>41960.869419952</DistanceMeters>
          </Trackpoint>
          <Trackpoint>
            <Time>2019-10-04T11:33:53.000Z</Time>
            <Position>
              <LatitudeDegrees>43.2666182331740856170654296875</LatitudeDegrees>
              <LongitudeDegrees>-5.7390969805419445037841796875</LongitudeDegrees>
            </Position>
            <AltitudeMeters>268</AltitudeMeters>
            <DistanceMeters>41971.589343124</DistanceMeters>
          </Trackpoint>
          <Trackpoint>
            <Time>2019-10-04T11:33:56.000Z</Time>
            <Position>
              <LatitudeDegrees>43.26634255237877368927001953125</LatitudeDegrees>
              <LongitudeDegrees>-5.73896831832826137542724609375</LongitudeDegrees>
            </Position>
            <AltitudeMeters>268.20001220703125</AltitudeMeters>
            <DistanceMeters>42003.996657279</DistanceMeters>
          </Trackpoint>
          <Trackpoint>
            <Time>2019-10-04T11:33:57.000Z</Time>
            <Position>
              <LatitudeDegrees>43.26623962260782718658447265625</LatitudeDegrees>
              <LongitudeDegrees>-5.73894753120839595794677734375</LongitudeDegrees>
            </Position>
            <AltitudeMeters>268.600006103515625</AltitudeMeters>
            <DistanceMeters>42015.575887609</DistanceMeters>
          </Trackpoint>
          <Trackpoint>
            <Time>2019-10-04T11:34:00.000Z</Time>
            <Position>
              <LatitudeDegrees>43.265956901013851165771484375</LatitudeDegrees>
              <LongitudeDegrees>-5.73903637938201427459716796875</LongitudeDegrees>
            </Position>
            <AltitudeMeters>268.79998779296875</AltitudeMeters>
            <DistanceMeters>42047.856729629</DistanceMeters>
          </Trackpoint>
          <Trackpoint>
            <Time>2019-10-04T11:34:03.000Z</Time>
            <Position>
              <LatitudeDegrees>43.265698067843914031982421875</LatitudeDegrees>
              <LongitudeDegrees>-5.73927593417465686798095703125</LongitudeDegrees>
            </Position>
            <AltitudeMeters>268.600006103515625</AltitudeMeters>
            <DistanceMeters>42082.597149991</DistanceMeters>
          </Trackpoint>
          <Trackpoint>
            <Time>2019-10-04T11:34:08.000Z</Time>
            <Position>
              <LatitudeDegrees>43.2652880251407623291015625</LatitudeDegrees>
              <LongitudeDegrees>-5.73976141400635242462158203125</LongitudeDegrees>
            </Position>
            <AltitudeMeters>268.399993896484375</AltitudeMeters>
            <DistanceMeters>42142.855701824</DistanceMeters>
          </Trackpoint>
          <Trackpoint>
            <Time>2019-10-04T11:34:09.000Z</Time>
            <Position>
              <LatitudeDegrees>43.2652164436876773834228515625</LatitudeDegrees>
              <LongitudeDegrees>-5.73987624607980251312255859375</LongitudeDegrees>
            </Position>
            <AltitudeMeters>268.20001220703125</AltitudeMeters>
            <DistanceMeters>42155.107147888</DistanceMeters>
          </Trackpoint>
          <Trackpoint>
            <Time>2019-10-04T11:34:14.000Z</Time>
            <Position>
              <LatitudeDegrees>43.2648825086653232574462890625</LatitudeDegrees>
              <LongitudeDegrees>-5.74048695154488086700439453125</LongitudeDegrees>
            </Position>
            <AltitudeMeters>268.20001220703125</AltitudeMeters>
            <DistanceMeters>42217.005510182</DistanceMeters>
          </Trackpoint>
          <Trackpoint>
            <Time>2019-10-04T11:34:17.000Z</Time>
            <Position>
              <LatitudeDegrees>43.26466265134513378143310546875</LatitudeDegrees>
              <LongitudeDegrees>-5.74082382023334503173828125</LongitudeDegrees>
            </Position>
            <AltitudeMeters>267.399993896484375</AltitudeMeters>
            <DistanceMeters>42253.669693384</DistanceMeters>
          </Trackpoint>
          <Trackpoint>
            <Time>2019-10-04T11:34:20.000Z</Time>
            <Position>
              <LatitudeDegrees>43.2644386030733585357666015625</LatitudeDegrees>
              <LongitudeDegrees>-5.74115901254117488861083984375</LongitudeDegrees>
            </Position>
            <AltitudeMeters>267.20001220703125</AltitudeMeters>
            <DistanceMeters>42290.54667065</DistanceMeters>
          </Trackpoint>
          <Trackpoint>
            <Time>2019-10-04T11:34:25.000Z</Time>
            <Position>
              <LatitudeDegrees>43.26406753621995449066162109375</LatitudeDegrees>
              <LongitudeDegrees>-5.741738118231296539306640625</LongitudeDegrees>
            </Position>
            <AltitudeMeters>267</AltitudeMeters>
            <DistanceMeters>42353.066810762</DistanceMeters>
          </Trackpoint>
          <Trackpoint>
            <Time>2019-10-04T11:34:27.000Z</Time>
            <Position>
              <LatitudeDegrees>43.2639192603528499603271484375</LatitudeDegrees>
              <LongitudeDegrees>-5.74197222478687763214111328125</LongitudeDegrees>
            </Position>
            <AltitudeMeters>266.600006103515625</AltitudeMeters>
            <DistanceMeters>42378.214082651</DistanceMeters>
          </Trackpoint>
          <Trackpoint>
            <Time>2019-10-04T11:34:28.000Z</Time>
            <Position>
              <LatitudeDegrees>43.26385061256587505340576171875</LatitudeDegrees>
              <LongitudeDegrees>-5.74208823032677173614501953125</LongitudeDegrees>
            </Position>
            <AltitudeMeters>266.399993896484375</AltitudeMeters>
            <DistanceMeters>42390.329150233</DistanceMeters>
          </Trackpoint>
          <Trackpoint>
            <Time>2019-10-04T11:34:29.000Z</Time>
            <Position>
              <LatitudeDegrees>43.26378456316888332366943359375</LatitudeDegrees>
              <LongitudeDegrees>-5.74220540933310985565185546875</LongitudeDegrees>
            </Position>
            <AltitudeMeters>266</AltitudeMeters>
            <DistanceMeters>42402.338662337</DistanceMeters>
          </Trackpoint>
          <Trackpoint>
            <Time>2019-10-04T11:34:30.000Z</Time>
            <Position>
              <LatitudeDegrees>43.2637237943708896636962890625</LatitudeDegrees>
              <LongitudeDegrees>-5.7423077523708343505859375</LongitudeDegrees>
            </Position>
            <AltitudeMeters>266.20001220703125</AltitudeMeters>
            <DistanceMeters>42413.041724972</DistanceMeters>
          </Trackpoint>
          <Trackpoint>
            <Time>2019-10-04T11:34:32.000Z</Time>
            <Position>
              <LatitudeDegrees>43.263603262603282928466796875</LatitudeDegrees>
              <LongitudeDegrees>-5.74252023361623287200927734375</LongitudeDegrees>
            </Position>
            <AltitudeMeters>266.600006103515625</AltitudeMeters>
            <DistanceMeters>42434.872238351</DistanceMeters>
          </Trackpoint>
          <Trackpoint>
            <Time>2019-10-04T11:34:34.000Z</Time>
            <Position>
              <LatitudeDegrees>43.2634627819061279296875</LatitudeDegrees>
              <LongitudeDegrees>-5.74271016754209995269775390625</LongitudeDegrees>
            </Position>
            <AltitudeMeters>266</AltitudeMeters>
            <DistanceMeters>42456.81456311</DistanceMeters>
          </Trackpoint>
          <Trackpoint>
            <Time>2019-10-04T11:34:36.000Z</Time>
            <Position>
              <LatitudeDegrees>43.26329925097525119781494140625</LatitudeDegrees>
              <LongitudeDegrees>-5.74286422692239284515380859375</LongitudeDegrees>
            </Position>
            <AltitudeMeters>266</AltitudeMeters>
            <DistanceMeters>42478.886959544</DistanceMeters>
          </Trackpoint>
          <Trackpoint>
            <Time>2019-10-04T11:34:38.000Z</Time>
            <Position>
              <LatitudeDegrees>43.263131193816661834716796875</LatitudeDegrees>
              <LongitudeDegrees>-5.74300169013440608978271484375</LongitudeDegrees>
            </Position>
            <AltitudeMeters>266</AltitudeMeters>
            <DistanceMeters>42500.65865614</DistanceMeters>
          </Trackpoint>
          <Trackpoint>
            <Time>2019-10-04T11:34:41.000Z</Time>
            <Position>
              <LatitudeDegrees>43.26289591379463672637939453125</LatitudeDegrees>
              <LongitudeDegrees>-5.7432071305811405181884765625</LongitudeDegrees>
            </Position>
            <AltitudeMeters>265.79998779296875</AltitudeMeters>
            <DistanceMeters>42531.691535359</DistanceMeters>
          </Trackpoint>
          <Trackpoint>
            <Time>2019-10-04T11:34:42.000Z</Time>
            <Position>
              <LatitudeDegrees>43.262818045914173126220703125</LatitudeDegrees>
              <LongitudeDegrees>-5.743266306817531585693359375</LongitudeDegrees>
            </Position>
            <AltitudeMeters>265.79998779296875</AltitudeMeters>
            <DistanceMeters>42541.597130275</DistanceMeters>
          </Trackpoint>
          <Trackpoint>
            <Time>2019-10-04T11:34:43.000Z</Time>
            <Position>
              <LatitudeDegrees>43.26274218969047069549560546875</LatitudeDegrees>
              <LongitudeDegrees>-5.74332506395876407623291015625</LongitudeDegrees>
            </Position>
            <AltitudeMeters>265</AltitudeMeters>
            <DistanceMeters>42551.29078673</DistanceMeters>
          </Trackpoint>
          <Trackpoint>
            <Time>2019-10-04T11:34:49.000Z</Time>
            <Position>
              <LatitudeDegrees>43.26227649115025997161865234375</LatitudeDegrees>
              <LongitudeDegrees>-5.74361608363687992095947265625</LongitudeDegrees>
            </Position>
            <AltitudeMeters>265.399993896484375</AltitudeMeters>
            <DistanceMeters>42608.238751436</DistanceMeters>
          </Trackpoint>
          <Trackpoint>
            <Time>2019-10-04T11:34:54.000Z</Time>
            <Position>
              <LatitudeDegrees>43.26192612759768962860107421875</LatitudeDegrees>
              <LongitudeDegrees>-5.7439195923507213592529296875</LongitudeDegrees>
            </Position>
            <AltitudeMeters>265.20001220703125</AltitudeMeters>
            <DistanceMeters>42654.346101031</DistanceMeters>
          </Trackpoint>
          <Trackpoint>
            <Time>2019-10-04T11:34:58.000Z</Time>
            <Position>
              <LatitudeDegrees>43.2617292366921901702880859375</LatitudeDegrees>
              <LongitudeDegrees>-5.7442595623433589935302734375</LongitudeDegrees>
            </Position>
            <AltitudeMeters>264.79998779296875</AltitudeMeters>
            <DistanceMeters>42689.553466645</DistanceMeters>
          </Trackpoint>
          <Trackpoint>
            <Time>2019-10-04T11:35:05.000Z</Time>
            <Position>
              <LatitudeDegrees>43.26138063333928585052490234375</LatitudeDegrees>
              <LongitudeDegrees>-5.74480363167822360992431640625</LongitudeDegrees>
            </Position>
            <AltitudeMeters>264.20001220703125</AltitudeMeters>
            <DistanceMeters>42748.291507362</DistanceMeters>
          </Trackpoint>
          <Trackpoint>
            <Time>2019-10-04T11:35:09.000Z</Time>
            <Position>
              <LatitudeDegrees>43.2611552439630031585693359375</LatitudeDegrees>
              <LongitudeDegrees>-5.74506715871393680572509765625</LongitudeDegrees>
            </Position>
            <AltitudeMeters>263.600006103515625</AltitudeMeters>
            <DistanceMeters>42781.239339913</DistanceMeters>
          </Trackpoint>
          <Trackpoint>
            <Time>2019-10-04T11:35:13.000Z</Time>
            <Position>
              <LatitudeDegrees>43.26092549599707126617431640625</LatitudeDegrees>
              <LongitudeDegrees>-5.7453190349042415618896484375</LongitudeDegrees>
            </Position>
            <AltitudeMeters>263.20001220703125</AltitudeMeters>
            <DistanceMeters>42813.960833827</DistanceMeters>
          </Trackpoint>
          <Trackpoint>
            <Time>2019-10-04T11:35:15.000Z</Time>
            <Position>
              <LatitudeDegrees>43.26081166975200176239013671875</LatitudeDegrees>
              <LongitudeDegrees>-5.74545037932693958282470703125</LongitudeDegrees>
            </Position>
            <AltitudeMeters>262.600006103515625</AltitudeMeters>
            <DistanceMeters>42830.509129759</DistanceMeters>
          </Trackpoint>
          <Trackpoint>
            <Time>2019-10-04T11:35:20.000Z</Time>
            <Position>
              <LatitudeDegrees>43.260527439415454864501953125</LatitudeDegrees>
              <LongitudeDegrees>-5.74581381864845752716064453125</LongitudeDegrees>
            </Position>
            <AltitudeMeters>262.20001220703125</AltitudeMeters>
            <DistanceMeters>42873.736572185</DistanceMeters>
          </Trackpoint>
          <Trackpoint>
            <Time>2019-10-04T11:35:21.000Z</Time>
            <Position>
              <LatitudeDegrees>43.26047790236771106719970703125</LatitudeDegrees>
              <LongitudeDegrees>-5.7459050975739955902099609375</LongitudeDegrees>
            </Position>
            <AltitudeMeters>262</AltitudeMeters>
            <DistanceMeters>42882.963954847</DistanceMeters>
          </Trackpoint>
          <Trackpoint>
            <Time>2019-10-04T11:35:24.000Z</Time>
            <Position>
              <LatitudeDegrees>43.26035971753299236297607421875</LatitudeDegrees>
              <LongitudeDegrees>-5.7462058402597904205322265625</LongitudeDegrees>
            </Position>
            <AltitudeMeters>262</AltitudeMeters>
            <DistanceMeters>42910.663223341</DistanceMeters>
          </Trackpoint>
          <Trackpoint>
            <Time>2019-10-04T11:35:25.000Z</Time>
            <Position>
              <LatitudeDegrees>43.260328285396099090576171875</LatitudeDegrees>
              <LongitudeDegrees>-5.74631555937230587005615234375</LongitudeDegrees>
            </Position>
            <AltitudeMeters>261.79998779296875</AltitudeMeters>
            <DistanceMeters>42920.219906508</DistanceMeters>
          </Trackpoint>
          <Trackpoint>
            <Time>2019-10-04T11:35:26.000Z</Time>
            <Position>
              <LatitudeDegrees>43.26029383577406406402587890625</LatitudeDegrees>
              <LongitudeDegrees>-5.746424607932567596435546875</LongitudeDegrees>
            </Position>
            <AltitudeMeters>261.600006103515625</AltitudeMeters>
            <DistanceMeters>42929.854696897</DistanceMeters>
          </Trackpoint>
          <Trackpoint>
            <Time>2019-10-04T11:35:30.000Z</Time>
            <Position>
              <LatitudeDegrees>43.2601463980972766876220703125</LatitudeDegrees>
              <LongitudeDegrees>-5.7468613050878047943115234375</LongitudeDegrees>
            </Position>
            <AltitudeMeters>260.79998779296875</AltitudeMeters>
            <DistanceMeters>42968.870425474</DistanceMeters>
          </Trackpoint>
          <Trackpoint>
            <Time>2019-10-04T11:35:32.000Z</Time>
            <Position>
              <LatitudeDegrees>43.2600501738488674163818359375</LatitudeDegrees>
              <LongitudeDegrees>-5.74706423096358776092529296875</LongitudeDegrees>
            </Position>
            <AltitudeMeters>260.79998779296875</AltitudeMeters>
            <DistanceMeters>42988.497985722</DistanceMeters>
          </Trackpoint>
          <Trackpoint>
            <Time>2019-10-04T11:35:33.000Z</Time>
            <Position>
              <LatitudeDegrees>43.25999426655471324920654296875</LatitudeDegrees>
              <LongitudeDegrees>-5.747166238725185394287109375</LongitudeDegrees>
            </Position>
            <AltitudeMeters>260.399993896484375</AltitudeMeters>
            <DistanceMeters>42998.84673959</DistanceMeters>
          </Trackpoint>
          <Trackpoint>
            <Time>2019-10-04T11:35:35.000Z</Time>
            <Position>
              <LatitudeDegrees>43.2598711363971233367919921875</LatitudeDegrees>
              <LongitudeDegrees>-5.74735776521265506744384765625</LongitudeDegrees>
            </Position>
            <AltitudeMeters>260.20001220703125</AltitudeMeters>
            <DistanceMeters>43019.554715593</DistanceMeters>
          </Trackpoint>
          <Trackpoint>
            <Time>2019-10-04T11:35:40.000Z</Time>
            <Position>
              <LatitudeDegrees>43.25954918749630451202392578125</LatitudeDegrees>
              <LongitudeDegrees>-5.74783620424568653106689453125</LongitudeDegrees>
            </Position>
            <AltitudeMeters>259.20001220703125</AltitudeMeters>
            <DistanceMeters>43072.355888511</DistanceMeters>
          </Trackpoint>
          <Trackpoint>
            <Time>2019-10-04T11:35:44.000Z</Time>
            <Position>
              <LatitudeDegrees>43.259297646582126617431640625</LatitudeDegrees>
              <LongitudeDegrees>-5.748236440122127532958984375</LongitudeDegrees>
            </Position>
            <AltitudeMeters>259.20001220703125</AltitudeMeters>
            <DistanceMeters>43115.207774176</DistanceMeters>
          </Trackpoint>
          <Trackpoint>
            <Time>2019-10-04T11:35:46.000Z</Time>
            <Position>
              <LatitudeDegrees>43.25920452363789081573486328125</LatitudeDegrees>
              <LongitudeDegrees>-5.74847205542027950286865234375</LongitudeDegrees>
            </Position>
            <AltitudeMeters>258.79998779296875</AltitudeMeters>
            <DistanceMeters>43136.937123846</DistanceMeters>
          </Trackpoint>
          <Trackpoint>
            <Time>2019-10-04T11:35:47.000Z</Time>
            <Position>
              <LatitudeDegrees>43.2591752707958221435546875</LatitudeDegrees>
              <LongitudeDegrees>-5.74860130436718463897705078125</LongitudeDegrees>
            </Position>
            <AltitudeMeters>258.79998779296875</AltitudeMeters>
            <DistanceMeters>43147.908080456</DistanceMeters>
          </Trackpoint>
          <Trackpoint>
            <Time>2019-10-04T11:35:48.000Z</Time>
            <Position>
              <LatitudeDegrees>43.25915942899882793426513671875</LatitudeDegrees>
              <LongitudeDegrees>-5.74873373843729496002197265625</LongitudeDegrees>
            </Position>
            <AltitudeMeters>258.79998779296875</AltitudeMeters>
            <DistanceMeters>43158.786875512</DistanceMeters>
          </Trackpoint>
          <Trackpoint>
            <Time>2019-10-04T11:35:51.000Z</Time>
            <Position>
              <LatitudeDegrees>43.25914853252470493316650390625</LatitudeDegrees>
              <LongitudeDegrees>-5.7491348125040531158447265625</LongitudeDegrees>
            </Position>
            <AltitudeMeters>258.600006103515625</AltitudeMeters>
            <DistanceMeters>43191.319337447</DistanceMeters>
          </Trackpoint>
          <Trackpoint>
            <Time>2019-10-04T11:35:52.000Z</Time>
            <Position>
              <LatitudeDegrees>43.25915456749498844146728515625</LatitudeDegrees>
              <LongitudeDegrees>-5.7492675818502902984619140625</LongitudeDegrees>
            </Position>
            <AltitudeMeters>258</AltitudeMeters>
            <DistanceMeters>43202.102252836</DistanceMeters>
          </Trackpoint>
          <Trackpoint>
            <Time>2019-10-04T11:35:54.000Z</Time>
            <Position>
              <LatitudeDegrees>43.25916512869298458099365234375</LatitudeDegrees>
              <LongitudeDegrees>-5.749533958733081817626953125</LongitudeDegrees>
            </Position>
            <AltitudeMeters>257.79998779296875</AltitudeMeters>
            <DistanceMeters>43223.725998773</DistanceMeters>
          </Trackpoint>
          <Trackpoint>
            <Time>2019-10-04T11:35:56.000Z</Time>
            <Position>
              <LatitudeDegrees>43.25915406458079814910888671875</LatitudeDegrees>
              <LongitudeDegrees>-5.7497979886829853057861328125</LongitudeDegrees>
            </Position>
            <AltitudeMeters>258</AltitudeMeters>
            <DistanceMeters>43245.162896642</DistanceMeters>
          </Trackpoint>
          <Trackpoint>
            <Time>2019-10-04T11:35:58.000Z</Time>
            <Position>
              <LatitudeDegrees>43.2590795494616031646728515625</LatitudeDegrees>
              <LongitudeDegrees>-5.75004131533205509185791015625</LongitudeDegrees>
            </Position>
            <AltitudeMeters>257.399993896484375</AltitudeMeters>
            <DistanceMeters>43266.558895226</DistanceMeters>
          </Trackpoint>
          <Trackpoint>
            <Time>2019-10-04T11:36:01.000Z</Time>
            <Position>
              <LatitudeDegrees>43.25887679122388362884521484375</LatitudeDegrees>
              <LongitudeDegrees>-5.75032780878245830535888671875</LongitudeDegrees>
            </Position>
            <AltitudeMeters>257.20001220703125</AltitudeMeters>
            <DistanceMeters>43298.940564063</DistanceMeters>
          </Trackpoint>
          <Trackpoint>
            <Time>2019-10-04T11:36:02.000Z</Time>
            <Position>
              <LatitudeDegrees>43.25879699550569057464599609375</LatitudeDegrees>
              <LongitudeDegrees>-5.75040592812001705169677734375</LongitudeDegrees>
            </Position>
            <AltitudeMeters>257.20001220703125</AltitudeMeters>
            <DistanceMeters>43309.848372606</DistanceMeters>
          </Trackpoint>
          <Trackpoint>
            <Time>2019-10-04T11:36:04.000Z</Time>
            <Position>
              <LatitudeDegrees>43.258639164268970489501953125</LatitudeDegrees>
              <LongitudeDegrees>-5.750560574233531951904296875</LongitudeDegrees>
            </Position>
            <AltitudeMeters>257</AltitudeMeters>
            <DistanceMeters>43331.429062878</DistanceMeters>
          </Trackpoint>
          <Trackpoint>
            <Time>2019-10-04T11:36:06.000Z</Time>
            <Position>
              <LatitudeDegrees>43.258483596146106719970703125</LatitudeDegrees>
              <LongitudeDegrees>-5.75071656145155429840087890625</LongitudeDegrees>
            </Position>
            <AltitudeMeters>256.600006103515625</AltitudeMeters>
            <DistanceMeters>43352.868909223</DistanceMeters>
          </Trackpoint>
          <Trackpoint>
            <Time>2019-10-04T11:36:11.000Z</Time>
            <Position>
              <LatitudeDegrees>43.25811806134879589080810546875</LatitudeDegrees>
              <LongitudeDegrees>-5.7511535100638866424560546875</LongitudeDegrees>
            </Position>
            <AltitudeMeters>256.399993896484375</AltitudeMeters>
            <DistanceMeters>43406.810445092</DistanceMeters>
          </Trackpoint>
          <Trackpoint>
            <Time>2019-10-04T11:36:12.000Z</Time>
            <Position>
              <LatitudeDegrees>43.25805720873177051544189453125</LatitudeDegrees>
              <LongitudeDegrees>-5.75126121751964092254638671875</LongitudeDegrees>
            </Position>
            <AltitudeMeters>256.600006103515625</AltitudeMeters>
            <DistanceMeters>43417.859727129</DistanceMeters>
          </Trackpoint>
          <Trackpoint>
            <Time>2019-10-04T11:36:14.000Z</Time>
            <Position>
              <LatitudeDegrees>43.2579406164586544036865234375</LatitudeDegrees>
              <LongitudeDegrees>-5.75147981755435466766357421875</LongitudeDegrees>
            </Position>
            <AltitudeMeters>256</AltitudeMeters>
            <DistanceMeters>43439.822619094</DistanceMeters>
          </Trackpoint>
          <Trackpoint>
            <Time>2019-10-04T11:36:17.000Z</Time>
            <Position>
              <LatitudeDegrees>43.25776015408337116241455078125</LatitudeDegrees>
              <LongitudeDegrees>-5.7517985813319683074951171875</LongitudeDegrees>
            </Position>
            <AltitudeMeters>256</AltitudeMeters>
            <DistanceMeters>43472.549907817</DistanceMeters>
          </Trackpoint>
          <Trackpoint>
            <Time>2019-10-04T11:36:18.000Z</Time>
            <Position>
              <LatitudeDegrees>43.2576851360499858856201171875</LatitudeDegrees>
              <LongitudeDegrees>-5.75189061462879180908203125</LongitudeDegrees>
            </Position>
            <AltitudeMeters>255.8000030517578125</AltitudeMeters>
            <DistanceMeters>43483.746942306</DistanceMeters>
          </Trackpoint>
          <Trackpoint>
            <Time>2019-10-04T11:36:21.000Z</Time>
            <Position>
              <LatitudeDegrees>43.25742118991911411285400390625</LatitudeDegrees>
              <LongitudeDegrees>-5.75208616442978382110595703125</LongitudeDegrees>
            </Position>
            <AltitudeMeters>255.399993896484375</AltitudeMeters>
            <DistanceMeters>43517.12797544</DistanceMeters>
          </Trackpoint>
          <Trackpoint>
            <Time>2019-10-04T11:36:23.000Z</Time>
            <Position>
              <LatitudeDegrees>43.25725279748439788818359375</LatitudeDegrees>
              <LongitudeDegrees>-5.75221239589154720306396484375</LongitudeDegrees>
            </Position>
            <AltitudeMeters>255</AltitudeMeters>
            <DistanceMeters>43538.481304921</DistanceMeters>
          </Trackpoint>
          <Trackpoint>
            <Time>2019-10-04T11:36:25.000Z</Time>
            <Position>
              <LatitudeDegrees>43.2571212016046047210693359375</LatitudeDegrees>
              <LongitudeDegrees>-5.75240216217935085296630859375</LongitudeDegrees>
            </Position>
            <AltitudeMeters>255.399993896484375</AltitudeMeters>
            <DistanceMeters>43559.721423074</DistanceMeters>
          </Trackpoint>
          <Trackpoint>
            <Time>2019-10-04T11:36:27.000Z</Time>
            <Position>
              <LatitudeDegrees>43.25706638395786285400390625</LatitudeDegrees>
              <LongitudeDegrees>-5.752654708921909332275390625</LongitudeDegrees>
            </Position>
            <AltitudeMeters>255</AltitudeMeters>
            <DistanceMeters>43581.08257456</DistanceMeters>
          </Trackpoint>
          <Trackpoint>
            <Time>2019-10-04T11:36:30.000Z</Time>
            <Position>
              <LatitudeDegrees>43.2570913620293140411376953125</LatitudeDegrees>
              <LongitudeDegrees>-5.75304119847714900970458984375</LongitudeDegrees>
            </Position>
            <AltitudeMeters>254.8000030517578125</AltitudeMeters>
            <DistanceMeters>43612.534407324</DistanceMeters>
          </Trackpoint>
          <Trackpoint>
            <Time>2019-10-04T11:36:33.000Z</Time>
            <Position>
              <LatitudeDegrees>43.25712078250944614410400390625</LatitudeDegrees>
              <LongitudeDegrees>-5.75341880321502685546875</LongitudeDegrees>
            </Position>
            <AltitudeMeters>254.600006103515625</AltitudeMeters>
            <DistanceMeters>43643.317489721</DistanceMeters>
          </Trackpoint>
          <Trackpoint>
            <Time>2019-10-04T11:36:37.000Z</Time>
            <Position>
              <LatitudeDegrees>43.25715146027505397796630859375</LatitudeDegrees>
              <LongitudeDegrees>-5.75391165912151336669921875</LongitudeDegrees>
            </Position>
            <AltitudeMeters>254</AltitudeMeters>
            <DistanceMeters>43683.41380888</DistanceMeters>
          </Trackpoint>
          <Trackpoint>
            <Time>2019-10-04T11:36:42.000Z</Time>
            <Position>
              <LatitudeDegrees>43.257137127220630645751953125</LatitudeDegrees>
              <LongitudeDegrees>-5.7545113004744052886962890625</LongitudeDegrees>
            </Position>
            <AltitudeMeters>253.600006103515625</AltitudeMeters>
            <DistanceMeters>43732.046695101</DistanceMeters>
          </Trackpoint>
          <Trackpoint>
            <Time>2019-10-04T11:36:44.000Z</Time>
            <Position>
              <LatitudeDegrees>43.25711307115852832794189453125</LatitudeDegrees>
              <LongitudeDegrees>-5.75475010089576244354248046875</LongitudeDegrees>
            </Position>
            <AltitudeMeters>253.399993896484375</AltitudeMeters>
            <DistanceMeters>43751.588032636</DistanceMeters>
          </Trackpoint>
          <Trackpoint>
            <Time>2019-10-04T11:36:47.000Z</Time>
            <Position>
              <LatitudeDegrees>43.25705138035118579864501953125</LatitudeDegrees>
              <LongitudeDegrees>-5.755106247961521148681640625</LongitudeDegrees>
            </Position>
            <AltitudeMeters>253</AltitudeMeters>
            <DistanceMeters>43781.26254922</DistanceMeters>
          </Trackpoint>
          <Trackpoint>
            <Time>2019-10-04T11:36:52.000Z</Time>
            <Position>
              <LatitudeDegrees>43.25694006867706775665283203125</LatitudeDegrees>
              <LongitudeDegrees>-5.75569641776382923126220703125</LongitudeDegrees>
            </Position>
            <AltitudeMeters>252.600006103515625</AltitudeMeters>
            <DistanceMeters>43830.679912701</DistanceMeters>
          </Trackpoint>
          <Trackpoint>
            <Time>2019-10-04T11:36:53.000Z</Time>
            <Position>
              <LatitudeDegrees>43.256931938230991363525390625</LatitudeDegrees>
              <LongitudeDegrees>-5.7558185420930385589599609375</LongitudeDegrees>
            </Position>
            <AltitudeMeters>252.399993896484375</AltitudeMeters>
            <DistanceMeters>43840.620996978</DistanceMeters>
          </Trackpoint>
          <Trackpoint>
            <Time>2019-10-04T11:36:55.000Z</Time>
            <Position>
              <LatitudeDegrees>43.2569394819438457489013671875</LatitudeDegrees>
              <LongitudeDegrees>-5.7560622878372669219970703125</LongitudeDegrees>
            </Position>
            <AltitudeMeters>252.1999969482421875</AltitudeMeters>
            <DistanceMeters>43860.396830227</DistanceMeters>
          </Trackpoint>
          <Trackpoint>
            <Time>2019-10-04T11:36:57.000Z</Time>
            <Position>
              <LatitudeDegrees>43.25698918662965297698974609375</LatitudeDegrees>
              <LongitudeDegrees>-5.75630578212440013885498046875</LongitudeDegrees>
            </Position>
            <AltitudeMeters>251.8000030517578125</AltitudeMeters>
            <DistanceMeters>43880.895306197</DistanceMeters>
          </Trackpoint>
          <Trackpoint>
            <Time>2019-10-04T11:36:59.000Z</Time>
            <Position>
              <LatitudeDegrees>43.25706177391111850738525390625</LatitudeDegrees>
              <LongitudeDegrees>-5.75655003078281879425048828125</LongitudeDegrees>
            </Position>
            <AltitudeMeters>251.8000030517578125</AltitudeMeters>
            <DistanceMeters>43902.279061971</DistanceMeters>
          </Trackpoint>
          <Trackpoint>
            <Time>2019-10-04T11:37:02.000Z</Time>
            <Position>
              <LatitudeDegrees>43.25718146748840808868408203125</LatitudeDegrees>
              <LongitudeDegrees>-5.75692269019782543182373046875</LongitudeDegrees>
            </Position>
            <AltitudeMeters>251.1999969482421875</AltitudeMeters>
            <DistanceMeters>43935.293837105</DistanceMeters>
          </Trackpoint>
          <Trackpoint>
            <Time>2019-10-04T11:37:03.000Z</Time>
            <Position>
              <LatitudeDegrees>43.257201500236988067626953125</LatitudeDegrees>
              <LongitudeDegrees>-5.75705864466726779937744140625</LongitudeDegrees>
            </Position>
            <AltitudeMeters>251</AltitudeMeters>
            <DistanceMeters>43946.53754958</DistanceMeters>
          </Trackpoint>
          <Trackpoint>
            <Time>2019-10-04T11:37:05.000Z</Time>
            <Position>
              <LatitudeDegrees>43.25720719993114471435546875</LatitudeDegrees>
              <LongitudeDegrees>-5.75732066296041011810302734375</LongitudeDegrees>
            </Position>
            <AltitudeMeters>250.8000030517578125</AltitudeMeters>
            <DistanceMeters>43967.786168881</DistanceMeters>
          </Trackpoint>
          <Trackpoint>
            <Time>2019-10-04T11:37:08.000Z</Time>
            <Position>
              <LatitudeDegrees>43.25708038173615932464599609375</LatitudeDegrees>
              <LongitudeDegrees>-5.7576689310371875762939453125</LongitudeDegrees>
            </Position>
            <AltitudeMeters>250.600006103515625</AltitudeMeters>
            <DistanceMeters>43999.348630813</DistanceMeters>
          </Trackpoint>
          <Trackpoint>
            <Time>2019-10-04T11:37:10.000Z</Time>
            <Position>
              <LatitudeDegrees>43.25691743753850460052490234375</LatitudeDegrees>
              <LongitudeDegrees>-5.75788929127156734466552734375</LongitudeDegrees>
            </Position>
            <AltitudeMeters>250.1999969482421875</AltitudeMeters>
            <DistanceMeters>44024.804086524</DistanceMeters>
          </Trackpoint>
          <Trackpoint>
            <Time>2019-10-04T11:37:11.000Z</Time>
            <Position>
              <LatitudeDegrees>43.25683009810745716094970703125</LatitudeDegrees>
              <LongitudeDegrees>-5.75799674727022647857666015625</LongitudeDegrees>
            </Position>
            <AltitudeMeters>249.600006103515625</AltitudeMeters>
            <DistanceMeters>44037.857035706</DistanceMeters>
          </Trackpoint>
          <Trackpoint>
            <Time>2019-10-04T11:37:14.000Z</Time>
            <Position>
              <LatitudeDegrees>43.2565815746784210205078125</LatitudeDegrees>
              <LongitudeDegrees>-5.758326239883899688720703125</LongitudeDegrees>
            </Position>
            <AltitudeMeters>249</AltitudeMeters>
            <DistanceMeters>44076.308348379</DistanceMeters>
          </Trackpoint>
          <Trackpoint>
            <Time>2019-10-04T11:37:16.000Z</Time>
            <Position>
              <LatitudeDegrees>43.25644947588443756103515625</LatitudeDegrees>
              <LongitudeDegrees>-5.75856034643948078155517578125</LongitudeDegrees>
            </Position>
            <AltitudeMeters>249</AltitudeMeters>
            <DistanceMeters>44100.314586706</DistanceMeters>
          </Trackpoint>
          <Trackpoint>
            <Time>2019-10-04T11:37:18.000Z</Time>
            <Position>
              <LatitudeDegrees>43.2563772238790988922119140625</LatitudeDegrees>
              <LongitudeDegrees>-5.75882068835198879241943359375</LongitudeDegrees>
            </Position>
            <AltitudeMeters>249</AltitudeMeters>
            <DistanceMeters>44122.898180698</DistanceMeters>
          </Trackpoint>
          <Trackpoint>
            <Time>2019-10-04T11:37:19.000Z</Time>
            <Position>
              <LatitudeDegrees>43.2563695125281810760498046875</LatitudeDegrees>
              <LongitudeDegrees>-5.75895949266850948333740234375</LongitudeDegrees>
            </Position>
            <AltitudeMeters>249.1999969482421875</AltitudeMeters>
            <DistanceMeters>44134.182377963</DistanceMeters>
          </Trackpoint>
          <Trackpoint>
            <Time>2019-10-04T11:37:21.000Z</Time>
            <Position>
              <LatitudeDegrees>43.25638803653419017791748046875</LatitudeDegrees>
              <LongitudeDegrees>-5.7592326588928699493408203125</LongitudeDegrees>
            </Position>
            <AltitudeMeters>249.1999969482421875</AltitudeMeters>
            <DistanceMeters>44156.421471624</DistanceMeters>
          </Trackpoint>
          <Trackpoint>
            <Time>2019-10-04T11:37:22.000Z</Time>
            <Position>
              <LatitudeDegrees>43.25640295632183551788330078125</LatitudeDegrees>
              <LongitudeDegrees>-5.75936668552458286285400390625</LongitudeDegrees>
            </Position>
            <AltitudeMeters>249.1999969482421875</AltitudeMeters>
            <DistanceMeters>44167.412164623</DistanceMeters>
          </Trackpoint>
          <Trackpoint>
            <Time>2019-10-04T11:37:24.000Z</Time>
            <Position>
              <LatitudeDegrees>43.25643296353518962860107421875</LatitudeDegrees>
              <LongitudeDegrees>-5.7596266083419322967529296875</LongitudeDegrees>
            </Position>
            <AltitudeMeters>248.8000030517578125</AltitudeMeters>
            <DistanceMeters>44188.744762506</DistanceMeters>
          </Trackpoint>
          <Trackpoint>
            <Time>2019-10-04T11:37:25.000Z</Time>
            <Position>
              <LatitudeDegrees>43.25644855387508869171142578125</LatitudeDegrees>
              <LongitudeDegrees>-5.7597550190985202789306640625</LongitudeDegrees>
            </Position>
            <AltitudeMeters>248.600006103515625</AltitudeMeters>
            <DistanceMeters>44199.297007416</DistanceMeters>
          </Trackpoint>
          <Trackpoint>
            <Time>2019-10-04T11:37:27.000Z</Time>
            <Position>
              <LatitudeDegrees>43.256481327116489410400390625</LatitudeDegrees>
              <LongitudeDegrees>-5.760010667145252227783203125</LongitudeDegrees>
            </Position>
            <AltitudeMeters>248.600006103515625</AltitudeMeters>
            <DistanceMeters>44220.338720229</DistanceMeters>
          </Trackpoint>
          <Trackpoint>
            <Time>2019-10-04T11:37:29.000Z</Time>
            <Position>
              <LatitudeDegrees>43.256513178348541259765625</LatitudeDegrees>
              <LongitudeDegrees>-5.76025181449949741363525390625</LongitudeDegrees>
            </Position>
            <AltitudeMeters>248.1999969482421875</AltitudeMeters>
            <DistanceMeters>44240.204986136</DistanceMeters>
          </Trackpoint>
          <Trackpoint>
            <Time>2019-10-04T11:37:31.000Z</Time>
            <Position>
              <LatitudeDegrees>43.25655031017959117889404296875</LatitudeDegrees>
              <LongitudeDegrees>-5.76048466376960277557373046875</LongitudeDegrees>
            </Position>
            <AltitudeMeters>248</AltitudeMeters>
            <DistanceMeters>44259.52698087</DistanceMeters>
          </Trackpoint>
          <Trackpoint>
            <Time>2019-10-04T11:37:34.000Z</Time>
            <Position>
              <LatitudeDegrees>43.25658199377357959747314453125</LatitudeDegrees>
              <LongitudeDegrees>-5.76082262210547924041748046875</LongitudeDegrees>
            </Position>
            <AltitudeMeters>247.600006103515625</AltitudeMeters>
            <DistanceMeters>44287.148061017</DistanceMeters>
          </Trackpoint>
          <Trackpoint>
            <Time>2019-10-04T11:37:35.000Z</Time>
            <Position>
              <LatitudeDegrees>43.25657579116523265838623046875</LatitudeDegrees>
              <LongitudeDegrees>-5.76093259267508983612060546875</LongitudeDegrees>
            </Position>
            <AltitudeMeters>247.399993896484375</AltitudeMeters>
            <DistanceMeters>44296.08865589</DistanceMeters>
          </Trackpoint>
          <Trackpoint>
            <Time>2019-10-04T11:37:38.000Z</Time>
            <Position>
              <LatitudeDegrees>43.25647587887942790985107421875</LatitudeDegrees>
              <LongitudeDegrees>-5.76121791265904903411865234375</LongitudeDegrees>
            </Position>
            <AltitudeMeters>247</AltitudeMeters>
            <DistanceMeters>44321.751323427</DistanceMeters>
          </Trackpoint>
          <Trackpoint>
            <Time>2019-10-04T11:37:41.000Z</Time>
            <Position>
              <LatitudeDegrees>43.2562923990190029144287109375</LatitudeDegrees>
              <LongitudeDegrees>-5.7614122889935970306396484375</LongitudeDegrees>
            </Position>
            <AltitudeMeters>246.600006103515625</AltitudeMeters>
            <DistanceMeters>44347.544731734</DistanceMeters>
          </Trackpoint>
          <Trackpoint>
            <Time>2019-10-04T11:37:42.000Z</Time>
            <Position>
              <LatitudeDegrees>43.25622241012752056121826171875</LatitudeDegrees>
              <LongitudeDegrees>-5.7614525221288204193115234375</LongitudeDegrees>
            </Position>
            <AltitudeMeters>246.399993896484375</AltitudeMeters>
            <DistanceMeters>44355.989821654</DistanceMeters>
          </Trackpoint>
          <Trackpoint>
            <Time>2019-10-04T11:37:44.000Z</Time>
            <Position>
              <LatitudeDegrees>43.25607840903103351593017578125</LatitudeDegrees>
              <LongitudeDegrees>-5.76151932589709758758544921875</LongitudeDegrees>
            </Position>
            <AltitudeMeters>246.600006103515625</AltitudeMeters>
            <DistanceMeters>44372.907779657</DistanceMeters>
          </Trackpoint>
          <Trackpoint>
            <Time>2019-10-04T11:37:45.000Z</Time>
            <Position>
              <LatitudeDegrees>43.25600598938763141632080078125</LatitudeDegrees>
              <LongitudeDegrees>-5.7615504227578639984130859375</LongitudeDegrees>
            </Position>
            <AltitudeMeters>246.399993896484375</AltitudeMeters>
            <DistanceMeters>44381.352869576</DistanceMeters>
          </Trackpoint>
          <Trackpoint>
            <Time>2019-10-04T11:37:52.000Z</Time>
            <Position>
              <LatitudeDegrees>43.25552872382104396820068359375</LatitudeDegrees>
              <LongitudeDegrees>-5.7618625648319721221923828125</LongitudeDegrees>
            </Position>
            <AltitudeMeters>246</AltitudeMeters>
            <DistanceMeters>44440.191750579</DistanceMeters>
          </Trackpoint>
          <Trackpoint>
            <Time>2019-10-04T11:37:55.000Z</Time>
            <Position>
              <LatitudeDegrees>43.25543467886745929718017578125</LatitudeDegrees>
              <LongitudeDegrees>-5.76214872300624847412109375</LongitudeDegrees>
            </Position>
            <AltitudeMeters>245.8000030517578125</AltitudeMeters>
            <DistanceMeters>44465.640465332</DistanceMeters>
          </Trackpoint>
          <Trackpoint>
            <Time>2019-10-04T11:37:58.000Z</Time>
            <Position>
              <LatitudeDegrees>43.25546099804341793060302734375</LatitudeDegrees>
              <LongitudeDegrees>-5.7624519802629947662353515625</LongitudeDegrees>
            </Position>
            <AltitudeMeters>245.8000030517578125</AltitudeMeters>
            <DistanceMeters>44490.396885071</DistanceMeters>
          </Trackpoint>
          <Trackpoint>
            <Time>2019-10-04T11:37:59.000Z</Time>
            <Position>
              <LatitudeDegrees>43.2554791867733001708984375</LatitudeDegrees>
              <LongitudeDegrees>-5.76254543848335742950439453125</LongitudeDegrees>
            </Position>
            <AltitudeMeters>245.600006103515625</AltitudeMeters>
            <DistanceMeters>44498.238748408</DistanceMeters>
          </Trackpoint>
          <Trackpoint>
            <Time>2019-10-04T11:38:01.000Z</Time>
            <Position>
              <LatitudeDegrees>43.2555125467479228973388671875</LatitudeDegrees>
              <LongitudeDegrees>-5.7627300918102264404296875</LongitudeDegrees>
            </Position>
            <AltitudeMeters>245.399993896484375</AltitudeMeters>
            <DistanceMeters>44513.660913737</DistanceMeters>
          </Trackpoint>
          <Trackpoint>
            <Time>2019-10-04T11:38:04.000Z</Time>
            <Position>
              <LatitudeDegrees>43.25555856339633464813232421875</LatitudeDegrees>
              <LongitudeDegrees>-5.76299604959785938262939453125</LongitudeDegrees>
            </Position>
            <AltitudeMeters>245</AltitudeMeters>
            <DistanceMeters>44535.820279632</DistanceMeters>
          </Trackpoint>
          <Trackpoint>
            <Time>2019-10-04T11:38:12.000Z</Time>
            <Position>
              <LatitudeDegrees>43.25562964193522930145263671875</LatitudeDegrees>
              <LongitudeDegrees>-5.76371848583221435546875</LongitudeDegrees>
            </Position>
            <AltitudeMeters>244.399993896484375</AltitudeMeters>
            <DistanceMeters>44594.914137792</DistanceMeters>
          </Trackpoint>
          <Trackpoint>
            <Time>2019-10-04T11:38:13.000Z</Time>
            <Position>
              <LatitudeDegrees>43.2556178234517574310302734375</LatitudeDegrees>
              <LongitudeDegrees>-5.76380071230232715606689453125</LongitudeDegrees>
            </Position>
            <AltitudeMeters>244.399993896484375</AltitudeMeters>
            <DistanceMeters>44601.707717166</DistanceMeters>
          </Trackpoint>
          <Trackpoint>
            <Time>2019-10-04T11:38:16.000Z</Time>
            <Position>
              <LatitudeDegrees>43.2555464096367359161376953125</LatitudeDegrees>
              <LongitudeDegrees>-5.7640348188579082489013671875</LongitudeDegrees>
            </Position>
            <AltitudeMeters>243.600006103515625</AltitudeMeters>
            <DistanceMeters>44622.28226269</DistanceMeters>
          </Trackpoint>
          <Trackpoint>
            <Time>2019-10-04T11:38:19.000Z</Time>
            <Position>
              <LatitudeDegrees>43.255434930324554443359375</LatitudeDegrees>
              <LongitudeDegrees>-5.764245204627513885498046875</LongitudeDegrees>
            </Position>
            <AltitudeMeters>243.1999969482421875</AltitudeMeters>
            <DistanceMeters>44643.372627919</DistanceMeters>
          </Trackpoint>
          <Trackpoint>
            <Time>2019-10-04T11:38:21.000Z</Time>
            <Position>
              <LatitudeDegrees>43.2553361915051937103271484375</LatitudeDegrees>
              <LongitudeDegrees>-5.7643623836338520050048828125</LongitudeDegrees>
            </Position>
            <AltitudeMeters>243</AltitudeMeters>
            <DistanceMeters>44657.898355652</DistanceMeters>
          </Trackpoint>
          <Trackpoint>
            <Time>2019-10-04T11:38:25.000Z</Time>
            <Position>
              <LatitudeDegrees>43.25509806163609027862548828125</LatitudeDegrees>
              <LongitudeDegrees>-5.76452038250863552093505859375</LongitudeDegrees>
            </Position>
            <AltitudeMeters>242.600006103515625</AltitudeMeters>
            <DistanceMeters>44687.335171641</DistanceMeters>
          </Trackpoint>
          <Trackpoint>
            <Time>2019-10-04T11:38:28.000Z</Time>
            <Position>
              <LatitudeDegrees>43.254910223186016082763671875</LatitudeDegrees>
              <LongitudeDegrees>-5.764607302844524383544921875</LongitudeDegrees>
            </Position>
            <AltitudeMeters>242</AltitudeMeters>
            <DistanceMeters>44709.39754256</DistanceMeters>
          </Trackpoint>
          <Trackpoint>
            <Time>2019-10-04T11:38:32.000Z</Time>
            <Position>
              <LatitudeDegrees>43.25465633533895015716552734375</LatitudeDegrees>
              <LongitudeDegrees>-5.76475658454000949859619140625</LongitudeDegrees>
            </Position>
            <AltitudeMeters>241.8000030517578125</AltitudeMeters>
            <DistanceMeters>44740.137913567</DistanceMeters>
          </Trackpoint>
          <Trackpoint>
            <Time>2019-10-04T11:38:35.000Z</Time>
            <Position>
              <LatitudeDegrees>43.25450353324413299560546875</LatitudeDegrees>
              <LongitudeDegrees>-5.76498842798173427581787109375</LongitudeDegrees>
            </Position>
            <AltitudeMeters>241.600006103515625</AltitudeMeters>
            <DistanceMeters>44765.484586301</DistanceMeters>
          </Trackpoint>
          <Trackpoint>
            <Time>2019-10-04T11:38:38.000Z</Time>
            <Position>
              <LatitudeDegrees>43.2544460333883762359619140625</LatitudeDegrees>
              <LongitudeDegrees>-5.76528447680175304412841796875</LongitudeDegrees>
            </Position>
            <AltitudeMeters>241.600006103515625</AltitudeMeters>
            <DistanceMeters>44790.322031869</DistanceMeters>
          </Trackpoint>
          <Trackpoint>
            <Time>2019-10-04T11:38:40.000Z</Time>
            <Position>
              <LatitudeDegrees>43.2544356398284435272216796875</LatitudeDegrees>
              <LongitudeDegrees>-5.76548899523913860321044921875</LongitudeDegrees>
            </Position>
            <AltitudeMeters>241.1999969482421875</AltitudeMeters>
            <DistanceMeters>44806.941386495</DistanceMeters>
          </Trackpoint>
          <Trackpoint>
            <Time>2019-10-04T11:38:44.000Z</Time>
            <Position>
              <LatitudeDegrees>43.25441862456500530242919921875</LatitudeDegrees>
              <LongitudeDegrees>-5.76591211371123790740966796875</LongitudeDegrees>
            </Position>
            <AltitudeMeters>240.8000030517578125</AltitudeMeters>
            <DistanceMeters>44841.292985141</DistanceMeters>
          </Trackpoint>
          <Trackpoint>
            <Time>2019-10-04T11:38:51.000Z</Time>
            <Position>
              <LatitudeDegrees>43.254391886293888092041015625</LatitudeDegrees>
              <LongitudeDegrees>-5.7666863501071929931640625</LongitudeDegrees>
            </Position>
            <AltitudeMeters>240</AltitudeMeters>
            <DistanceMeters>44904.125623087</DistanceMeters>
          </Trackpoint>
          <Trackpoint>
            <Time>2019-10-04T11:38:53.000Z</Time>
            <Position>
              <LatitudeDegrees>43.25435123406350612640380859375</LatitudeDegrees>
              <LongitudeDegrees>-5.76690788380801677703857421875</LongitudeDegrees>
            </Position>
            <AltitudeMeters>240.1999969482421875</AltitudeMeters>
            <DistanceMeters>44922.645352121</DistanceMeters>
          </Trackpoint>
          <Trackpoint>
            <Time>2019-10-04T11:38:54.000Z</Time>
            <Position>
              <LatitudeDegrees>43.25431519187986850738525390625</LatitudeDegrees>
              <LongitudeDegrees>-5.76701148413121700286865234375</LongitudeDegrees>
            </Position>
            <AltitudeMeters>239.8000030517578125</AltitudeMeters>
            <DistanceMeters>44931.952150349</DistanceMeters>
          </Trackpoint>
          <Trackpoint>
            <Time>2019-10-04T11:38:55.000Z</Time>
            <Position>
              <LatitudeDegrees>43.25426892377436161041259765625</LatitudeDegrees>
              <LongitudeDegrees>-5.767114497721195220947265625</LongitudeDegrees>
            </Position>
            <AltitudeMeters>239.600006103515625</AltitudeMeters>
            <DistanceMeters>44941.762479331</DistanceMeters>
          </Trackpoint>
          <Trackpoint>
            <Time>2019-10-04T11:39:00.000Z</Time>
            <Position>
              <LatitudeDegrees>43.254004307091236114501953125</LatitudeDegrees>
              <LongitudeDegrees>-5.767653621733188629150390625</LongitudeDegrees>
            </Position>
            <AltitudeMeters>239</AltitudeMeters>
            <DistanceMeters>44994.463767382</DistanceMeters>
          </Trackpoint>
          <Trackpoint>
            <Time>2019-10-04T11:39:02.000Z</Time>
            <Position>
              <LatitudeDegrees>43.25390112586319446563720703125</LatitudeDegrees>
              <LongitudeDegrees>-5.76786912046372890472412109375</LongitudeDegrees>
            </Position>
            <AltitudeMeters>238.600006103515625</AltitudeMeters>
            <DistanceMeters>45015.369860512</DistanceMeters>
          </Trackpoint>
          <Trackpoint>
            <Time>2019-10-04T11:39:03.000Z</Time>
            <Position>
              <LatitudeDegrees>43.2538626529276371002197265625</LatitudeDegrees>
              <LongitudeDegrees>-5.76798831112682819366455078125</LongitudeDegrees>
            </Position>
            <AltitudeMeters>238.600006103515625</AltitudeMeters>
            <DistanceMeters>45025.937924926</DistanceMeters>
          </Trackpoint>
          <Trackpoint>
            <Time>2019-10-04T11:39:04.000Z</Time>
            <Position>
              <LatitudeDegrees>43.25384312309324741363525390625</LatitudeDegrees>
              <LongitudeDegrees>-5.76811521314084529876708984375</LongitudeDegrees>
            </Position>
            <AltitudeMeters>238.399993896484375</AltitudeMeters>
            <DistanceMeters>45036.452020029</DistanceMeters>
          </Trackpoint>
          <Trackpoint>
            <Time>2019-10-04T11:39:05.000Z</Time>
            <Position>
              <LatitudeDegrees>43.253838010132312774658203125</LatitudeDegrees>
              <LongitudeDegrees>-5.76824144460260868072509765625</LongitudeDegrees>
            </Position>
            <AltitudeMeters>238.399993896484375</AltitudeMeters>
            <DistanceMeters>45046.70081748</DistanceMeters>
          </Trackpoint>
          <Trackpoint>
            <Time>2019-10-04T11:39:08.000Z</Time>
            <Position>
              <LatitudeDegrees>43.253920488059520721435546875</LatitudeDegrees>
              <LongitudeDegrees>-5.76861108653247356414794921875</LongitudeDegrees>
            </Position>
            <AltitudeMeters>238</AltitudeMeters>
            <DistanceMeters>45078.040189912</DistanceMeters>
          </Trackpoint>
          <Trackpoint>
            <Time>2019-10-04T11:39:11.000Z</Time>
            <Position>
              <LatitudeDegrees>43.25397974811494350433349609375</LatitudeDegrees>
              <LongitudeDegrees>-5.76896094717085361480712890625</LongitudeDegrees>
            </Position>
            <AltitudeMeters>237.8000030517578125</AltitudeMeters>
            <DistanceMeters>45107.158242175</DistanceMeters>
          </Trackpoint>
          <Trackpoint>
            <Time>2019-10-04T11:39:12.000Z</Time>
            <Position>
              <LatitudeDegrees>43.25395594350993633270263671875</LatitudeDegrees>
              <LongitudeDegrees>-5.76907393522560596466064453125</LongitudeDegrees>
            </Position>
            <AltitudeMeters>237.600006103515625</AltitudeMeters>
            <DistanceMeters>45116.693167955</DistanceMeters>
          </Trackpoint>
          <Trackpoint>
            <Time>2019-10-04T11:39:13.000Z</Time>
            <Position>
              <LatitudeDegrees>43.253912441432476043701171875</LatitudeDegrees>
              <LongitudeDegrees>-5.7691836543381214141845703125</LongitudeDegrees>
            </Position>
            <AltitudeMeters>237.399993896484375</AltitudeMeters>
            <DistanceMeters>45126.819645531</DistanceMeters>
          </Trackpoint>
          <Trackpoint>
            <Time>2019-10-04T11:39:15.000Z</Time>
            <Position>
              <LatitudeDegrees>43.25381956994533538818359375</LatitudeDegrees>
              <LongitudeDegrees>-5.7693844847381114959716796875</LongitudeDegrees>
            </Position>
            <AltitudeMeters>237.1999969482421875</AltitudeMeters>
            <DistanceMeters>45146.104216262</DistanceMeters>
          </Trackpoint>
          <Trackpoint>
            <Time>2019-10-04T11:39:20.000Z</Time>
            <Position>
              <LatitudeDegrees>43.253624774515628814697265625</LatitudeDegrees>
              <LongitudeDegrees>-5.76990558765828609466552734375</LongitudeDegrees>
            </Position>
            <AltitudeMeters>237</AltitudeMeters>
            <DistanceMeters>45193.586014096</DistanceMeters>
          </Trackpoint>
          <Trackpoint>
            <Time>2019-10-04T11:39:21.000Z</Time>
            <Position>
              <LatitudeDegrees>43.25359904207289218902587890625</LatitudeDegrees>
              <LongitudeDegrees>-5.7700141333043575286865234375</LongitudeDegrees>
            </Position>
            <AltitudeMeters>237</AltitudeMeters>
            <DistanceMeters>45202.839293777</DistanceMeters>
          </Trackpoint>
          <Trackpoint>
            <Time>2019-10-04T11:39:22.000Z</Time>
            <Position>
              <LatitudeDegrees>43.25357305817306041717529296875</LatitudeDegrees>
              <LongitudeDegrees>-5.7701204158365726470947265625</LongitudeDegrees>
            </Position>
            <AltitudeMeters>236.399993896484375</AltitudeMeters>
            <DistanceMeters>45211.92814075</DistanceMeters>
          </Trackpoint>
          <Trackpoint>
            <Time>2019-10-04T11:39:26.000Z</Time>
            <Position>
              <LatitudeDegrees>43.25348555110394954681396484375</LatitudeDegrees>
              <LongitudeDegrees>-5.77053540386259555816650390625</LongitudeDegrees>
            </Position>
            <AltitudeMeters>236.600006103515625</AltitudeMeters>
            <DistanceMeters>45246.950609874</DistanceMeters>
          </Trackpoint>
          <Trackpoint>
            <Time>2019-10-04T11:39:28.000Z</Time>
            <Position>
              <LatitudeDegrees>43.25344808399677276611328125</LatitudeDegrees>
              <LongitudeDegrees>-5.77073539607226848602294921875</LongitudeDegrees>
            </Position>
            <AltitudeMeters>236</AltitudeMeters>
            <DistanceMeters>45263.69069238</DistanceMeters>
          </Trackpoint>
          <Trackpoint>
            <Time>2019-10-04T11:39:29.000Z</Time>
            <Position>
              <LatitudeDegrees>43.2534308172762393951416015625</LatitudeDegrees>
              <LongitudeDegrees>-5.77083078213036060333251953125</LongitudeDegrees>
            </Position>
            <AltitudeMeters>234.8000030517578125</AltitudeMeters>
            <DistanceMeters>45271.658216299</DistanceMeters>
          </Trackpoint>
          <Trackpoint>
            <Time>2019-10-04T11:39:30.000Z</Time>
            <Position>
              <LatitudeDegrees>43.2534127123653888702392578125</LatitudeDegrees>
              <LongitudeDegrees>-5.77092583291232585906982421875</LongitudeDegrees>
            </Position>
            <AltitudeMeters>233.8000030517578125</AltitudeMeters>
            <DistanceMeters>45279.622906313</DistanceMeters>
          </Trackpoint>
          <Trackpoint>
            <Time>2019-10-04T11:39:33.000Z</Time>
            <Position>
              <LatitudeDegrees>43.2533640973269939422607421875</LatitudeDegrees>
              <LongitudeDegrees>-5.77120344154536724090576171875</LongitudeDegrees>
            </Position>
            <AltitudeMeters>232.8000030517578125</AltitudeMeters>
            <DistanceMeters>45302.768885991</DistanceMeters>
          </Trackpoint>
          <Trackpoint>
            <Time>2019-10-04T11:39:36.000Z</Time>
            <Position>
              <LatitudeDegrees>43.25331623665988445281982421875</LatitudeDegrees>
              <LongitudeDegrees>-5.77144819311797618865966796875</LongitudeDegrees>
            </Position>
            <AltitudeMeters>231.8000030517578125</AltitudeMeters>
            <DistanceMeters>45323.312246297</DistanceMeters>
          </Trackpoint>
          <Trackpoint>
            <Time>2019-10-04T11:39:37.000Z</Time>
            <Position>
              <LatitudeDegrees>43.25329528190195560455322265625</LatitudeDegrees>
              <LongitudeDegrees>-5.771509967744350433349609375</LongitudeDegrees>
            </Position>
            <AltitudeMeters>231.600006103515625</AltitudeMeters>
            <DistanceMeters>45328.836070001</DistanceMeters>
          </Trackpoint>
          <Trackpoint>
            <Time>2019-10-04T11:39:38.000Z</Time>
            <Position>
              <LatitudeDegrees>43.25328488834202289581298828125</LatitudeDegrees>
              <LongitudeDegrees>-5.77156553976237773895263671875</LongitudeDegrees>
            </Position>
            <AltitudeMeters>231.1999969482421875</AltitudeMeters>
            <DistanceMeters>45333.487528176</DistanceMeters>
          </Trackpoint>
          <Trackpoint>
            <Time>2019-10-04T11:39:40.000Z</Time>
            <Position>
              <LatitudeDegrees>43.25326711870729923248291015625</LatitudeDegrees>
              <LongitudeDegrees>-5.7716703973710536956787109375</LongitudeDegrees>
            </Position>
            <AltitudeMeters>230.8000030517578125</AltitudeMeters>
            <DistanceMeters>45342.214478659</DistanceMeters>
          </Trackpoint>
          <Trackpoint>
            <Time>2019-10-04T11:39:42.000Z</Time>
            <Position>
              <LatitudeDegrees>43.253258652985095977783203125</LatitudeDegrees>
              <LongitudeDegrees>-5.771772824227809906005859375</LongitudeDegrees>
            </Position>
            <AltitudeMeters>230.1999969482421875</AltitudeMeters>
            <DistanceMeters>45350.571428534</DistanceMeters>
          </Trackpoint>
          <Trackpoint>
            <Time>2019-10-04T11:39:44.000Z</Time>
            <Position>
              <LatitudeDegrees>43.25323912315070629119873046875</LatitudeDegrees>
              <LongitudeDegrees>-5.77185773290693759918212890625</LongitudeDegrees>
            </Position>
            <AltitudeMeters>228.8000030517578125</AltitudeMeters>
            <DistanceMeters>45357.789706797</DistanceMeters>
          </Trackpoint>
          <Trackpoint>
            <Time>2019-10-04T11:39:45.000Z</Time>
            <Position>
              <LatitudeDegrees>43.2532333396375179290771484375</LatitudeDegrees>
              <LongitudeDegrees>-5.7718933559954166412353515625</LongitudeDegrees>
            </Position>
            <AltitudeMeters>228.8000030517578125</AltitudeMeters>
            <DistanceMeters>45360.749296997</DistanceMeters>
          </Trackpoint>
          <Trackpoint>
            <Time>2019-10-04T11:39:46.000Z</Time>
            <Position>
              <LatitudeDegrees>43.2532299868762493133544921875</LatitudeDegrees>
              <LongitudeDegrees>-5.771921016275882720947265625</LongitudeDegrees>
            </Position>
            <AltitudeMeters>228.399993896484375</AltitudeMeters>
            <DistanceMeters>45363.022005453</DistanceMeters>
          </Trackpoint>
          <Trackpoint>
            <Time>2019-10-04T11:39:48.000Z</Time>
            <Position>
              <LatitudeDegrees>43.25322185643017292022705078125</LatitudeDegrees>
              <LongitudeDegrees>-5.77196116559207439422607421875</LongitudeDegrees>
            </Position>
            <AltitudeMeters>227.600006103515625</AltitudeMeters>
            <DistanceMeters>45366.400469102</DistanceMeters>
          </Trackpoint>
          <Trackpoint>
            <Time>2019-10-04T11:39:50.000Z</Time>
            <Position>
              <LatitudeDegrees>43.25321498326957225799560546875</LatitudeDegrees>
              <LongitudeDegrees>-5.77198865823447704315185546875</LongitudeDegrees>
            </Position>
            <AltitudeMeters>227</AltitudeMeters>
            <DistanceMeters>45368.755138279</DistanceMeters>
          </Trackpoint>
          <Trackpoint>
            <Time>2019-10-04T11:39:52.000Z</Time>
            <Position>
              <LatitudeDegrees>43.2532159052789211273193359375</LatitudeDegrees>
              <LongitudeDegrees>-5.7719858922064304351806640625</LongitudeDegrees>
            </Position>
            <AltitudeMeters>226.399993896484375</AltitudeMeters>
            <DistanceMeters>45368.987905242</DistanceMeters>
          </Trackpoint>
          <Trackpoint>
            <Time>2019-10-04T11:39:54.000Z</Time>
            <Position>
              <LatitudeDegrees>43.2532182522118091583251953125</LatitudeDegrees>
              <LongitudeDegrees>-5.77198706567287445068359375</LongitudeDegrees>
            </Position>
            <AltitudeMeters>225.8000030517578125</AltitudeMeters>
            <DistanceMeters>45369.256681378</DistanceMeters>
          </Trackpoint>
          <Trackpoint>
            <Time>2019-10-04T11:39:56.000Z</Time>
            <Position>
              <LatitudeDegrees>43.2532182522118091583251953125</LatitudeDegrees>
              <LongitudeDegrees>-5.77198706567287445068359375</LongitudeDegrees>
            </Position>
            <AltitudeMeters>225.1999969482421875</AltitudeMeters>
            <DistanceMeters>45369.256681378</DistanceMeters>
          </Trackpoint>
          <Trackpoint>
            <Time>2019-10-04T11:40:00.000Z</Time>
            <Position>
              <LatitudeDegrees>43.2532182522118091583251953125</LatitudeDegrees>
              <LongitudeDegrees>-5.77198706567287445068359375</LongitudeDegrees>
            </Position>
            <AltitudeMeters>224</AltitudeMeters>
            <DistanceMeters>45369.256681378</DistanceMeters>
          </Trackpoint>
          <Trackpoint>
            <Time>2019-10-04T11:40:03.000Z</Time>
            <Position>
              <LatitudeDegrees>43.2532182522118091583251953125</LatitudeDegrees>
              <LongitudeDegrees>-5.77198706567287445068359375</LongitudeDegrees>
            </Position>
            <AltitudeMeters>223</AltitudeMeters>
            <DistanceMeters>45369.256681378</DistanceMeters>
          </Trackpoint>
          <Trackpoint>
            <Time>2019-10-04T11:40:04.000Z</Time>
            <Position>
              <LatitudeDegrees>43.2532182522118091583251953125</LatitudeDegrees>
              <LongitudeDegrees>-5.77198706567287445068359375</LongitudeDegrees>
            </Position>
            <AltitudeMeters>222.600006103515625</AltitudeMeters>
            <DistanceMeters>45369.256681378</DistanceMeters>
          </Trackpoint>
          <Trackpoint>
            <Time>2019-10-04T11:40:05.000Z</Time>
            <Position>
              <LatitudeDegrees>43.253215737640857696533203125</LatitudeDegrees>
              <LongitudeDegrees>-5.77199108898639678955078125</LongitudeDegrees>
            </Position>
            <AltitudeMeters>222.1999969482421875</AltitudeMeters>
            <DistanceMeters>45369.681653764</DistanceMeters>
          </Trackpoint>
          <Trackpoint>
            <Time>2019-10-04T11:40:07.000Z</Time>
            <Position>
              <LatitudeDegrees>43.2532091997563838958740234375</LatitudeDegrees>
              <LongitudeDegrees>-5.7720210961997509002685546875</LongitudeDegrees>
            </Position>
            <AltitudeMeters>221.399993896484375</AltitudeMeters>
            <DistanceMeters>45372.217282765</DistanceMeters>
          </Trackpoint>
          <Trackpoint>
            <Time>2019-10-04T11:40:08.000Z</Time>
            <Position>
              <LatitudeDegrees>43.2532061822712421417236328125</LatitudeDegrees>
              <LongitudeDegrees>-5.7720502652227878570556640625</LongitudeDegrees>
            </Position>
            <AltitudeMeters>221.1999969482421875</AltitudeMeters>
            <DistanceMeters>45374.606217321</DistanceMeters>
          </Trackpoint>
          <Trackpoint>
            <Time>2019-10-04T11:40:09.000Z</Time>
            <Position>
              <LatitudeDegrees>43.2531994767487049102783203125</LatitudeDegrees>
              <LongitudeDegrees>-5.7720864750444889068603515625</LongitudeDegrees>
            </Position>
            <AltitudeMeters>220.399993896484375</AltitudeMeters>
            <DistanceMeters>45377.63517055</DistanceMeters>
          </Trackpoint>
          <Trackpoint>
            <Time>2019-10-04T11:40:10.000Z</Time>
            <Position>
              <LatitudeDegrees>43.25319419614970684051513671875</LatitudeDegrees>
              <LongitudeDegrees>-5.7721230201423168182373046875</LongitudeDegrees>
            </Position>
            <AltitudeMeters>220.8000030517578125</AltitudeMeters>
            <DistanceMeters>45380.655166777</DistanceMeters>
          </Trackpoint>
          <Trackpoint>
            <Time>2019-10-04T11:40:12.000Z</Time>
            <Position>
              <LatitudeDegrees>43.25317449867725372314453125</LatitudeDegrees>
              <LongitudeDegrees>-5.77221647836267948150634765625</LongitudeDegrees>
            </Position>
            <AltitudeMeters>220</AltitudeMeters>
            <DistanceMeters>45388.542956499</DistanceMeters>
          </Trackpoint>
          <Trackpoint>
            <Time>2019-10-04T11:40:13.000Z</Time>
            <Position>
              <LatitudeDegrees>43.2531622610986232757568359375</LatitudeDegrees>
              <LongitudeDegrees>-5.77227012254297733306884765625</LongitudeDegrees>
            </Position>
            <AltitudeMeters>219</AltitudeMeters>
            <DistanceMeters>45393.100277622</DistanceMeters>
          </Trackpoint>
          <Trackpoint>
            <Time>2019-10-04T11:40:14.000Z</Time>
            <Position>
              <LatitudeDegrees>43.2531421445310115814208984375</LatitudeDegrees>
              <LongitudeDegrees>-5.77231991104781627655029296875</LongitudeDegrees>
            </Position>
            <AltitudeMeters>219.1999969482421875</AltitudeMeters>
            <DistanceMeters>45397.716659366</DistanceMeters>
          </Trackpoint>
          <Trackpoint>
            <Time>2019-10-04T11:40:15.000Z</Time>
            <Position>
              <LatitudeDegrees>43.253119178116321563720703125</LatitudeDegrees>
              <LongitudeDegrees>-5.77236718498170375823974609375</LongitudeDegrees>
            </Position>
            <AltitudeMeters>218.600006103515625</AltitudeMeters>
            <DistanceMeters>45402.323250258</DistanceMeters>
          </Trackpoint>
          <Trackpoint>
            <Time>2019-10-04T11:40:17.000Z</Time>
            <Position>
              <LatitudeDegrees>43.253071568906307220458984375</LatitudeDegrees>
              <LongitudeDegrees>-5.7724297977983951568603515625</LongitudeDegrees>
            </Position>
            <AltitudeMeters>218.399993896484375</AltitudeMeters>
            <DistanceMeters>45409.661872466</DistanceMeters>
          </Trackpoint>
          <Trackpoint>
            <Time>2019-10-04T11:40:18.000Z</Time>
            <Position>
              <LatitudeDegrees>43.25303904712200164794921875</LatitudeDegrees>
              <LongitudeDegrees>-5.77242317609488964080810546875</LongitudeDegrees>
            </Position>
            <AltitudeMeters>218.1999969482421875</AltitudeMeters>
            <DistanceMeters>45413.32256003</DistanceMeters>
          </Trackpoint>
          <Trackpoint>
            <Time>2019-10-04T11:40:21.000Z</Time>
            <Position>
              <LatitudeDegrees>43.25293486006557941436767578125</LatitudeDegrees>
              <LongitudeDegrees>-5.7723567076027393341064453125</LongitudeDegrees>
            </Position>
            <AltitudeMeters>218</AltitudeMeters>
            <DistanceMeters>45426.109568835</DistanceMeters>
          </Trackpoint>
          <Trackpoint>
            <Time>2019-10-04T11:40:22.000Z</Time>
            <Position>
              <LatitudeDegrees>43.2528947107493877410888671875</LatitudeDegrees>
              <LongitudeDegrees>-5.77233709394931793212890625</LongitudeDegrees>
            </Position>
            <AltitudeMeters>218.1999969482421875</AltitudeMeters>
            <DistanceMeters>45430.853296325</DistanceMeters>
          </Trackpoint>
          <Trackpoint>
            <Time>2019-10-04T11:40:25.000Z</Time>
            <Position>
              <LatitudeDegrees>43.25278314761817455291748046875</LatitudeDegrees>
              <LongitudeDegrees>-5.77227598987519741058349609375</LongitudeDegrees>
            </Position>
            <AltitudeMeters>218</AltitudeMeters>
            <DistanceMeters>45444.22203871</DistanceMeters>
          </Trackpoint>
          <Trackpoint>
            <Time>2019-10-04T11:40:28.000Z</Time>
            <Position>
              <LatitudeDegrees>43.2526794634759426116943359375</LatitudeDegrees>
              <LongitudeDegrees>-5.77225822024047374725341796875</LongitudeDegrees>
            </Position>
            <AltitudeMeters>218.600006103515625</AltitudeMeters>
            <DistanceMeters>45455.85223712</DistanceMeters>
          </Trackpoint>
          <Trackpoint>
            <Time>2019-10-04T11:40:30.000Z</Time>
            <Position>
              <LatitudeDegrees>43.252613581717014312744140625</LatitudeDegrees>
              <LongitudeDegrees>-5.772265009582042694091796875</LongitudeDegrees>
            </Position>
            <AltitudeMeters>218.399993896484375</AltitudeMeters>
            <DistanceMeters>45463.204996308</DistanceMeters>
          </Trackpoint>
          <Trackpoint>
            <Time>2019-10-04T11:40:34.000Z</Time>
            <Position>
              <LatitudeDegrees>43.2525007613003253936767578125</LatitudeDegrees>
              <LongitudeDegrees>-5.7722822763025760650634765625</LongitudeDegrees>
            </Position>
            <AltitudeMeters>218.8000030517578125</AltitudeMeters>
            <DistanceMeters>45475.839619032</DistanceMeters>
          </Trackpoint>
          <Trackpoint>
            <Time>2019-10-04T11:40:39.000Z</Time>
            <Position>
              <LatitudeDegrees>43.25232164002954959869384765625</LatitudeDegrees>
              <LongitudeDegrees>-5.77230482362210750579833984375</LongitudeDegrees>
            </Position>
            <AltitudeMeters>218.399993896484375</AltitudeMeters>
            <DistanceMeters>45495.859833143</DistanceMeters>
          </Trackpoint>
          <Trackpoint>
            <Time>2019-10-04T11:40:41.000Z</Time>
            <Position>
              <LatitudeDegrees>43.25224854983389377593994140625</LatitudeDegrees>
              <LongitudeDegrees>-5.772324688732624053955078125</LongitudeDegrees>
            </Position>
            <AltitudeMeters>218.600006103515625</AltitudeMeters>
            <DistanceMeters>45504.152785705</DistanceMeters>
          </Trackpoint>
          <Trackpoint>
            <Time>2019-10-04T11:40:46.000Z</Time>
            <Position>
              <LatitudeDegrees>43.252055682241916656494140625</LatitudeDegrees>
              <LongitudeDegrees>-5.772303231060504913330078125</LongitudeDegrees>
            </Position>
            <AltitudeMeters>218.8000030517578125</AltitudeMeters>
            <DistanceMeters>45525.689705322</DistanceMeters>
          </Trackpoint>
          <Trackpoint>
            <Time>2019-10-04T11:40:47.000Z</Time>
            <Position>
              <LatitudeDegrees>43.25201670639216899871826171875</LatitudeDegrees>
              <LongitudeDegrees>-5.7722886465489864349365234375</LongitudeDegrees>
            </Position>
            <AltitudeMeters>218.8000030517578125</AltitudeMeters>
            <DistanceMeters>45530.186186297</DistanceMeters>
          </Trackpoint>
          <Trackpoint>
            <Time>2019-10-04T11:40:48.000Z</Time>
            <Position>
              <LatitudeDegrees>43.25197932310402393341064453125</LatitudeDegrees>
              <LongitudeDegrees>-5.77226794324815273284912109375</LongitudeDegrees>
            </Position>
            <AltitudeMeters>218.8000030517578125</AltitudeMeters>
            <DistanceMeters>45534.673621029</DistanceMeters>
          </Trackpoint>
          <Trackpoint>
            <Time>2019-10-04T11:40:54.000Z</Time>
            <Position>
              <LatitudeDegrees>43.25174597091972827911376953125</LatitudeDegrees>
              <LongitudeDegrees>-5.7721459865570068359375</LongitudeDegrees>
            </Position>
            <AltitudeMeters>218.8000030517578125</AltitudeMeters>
            <DistanceMeters>45562.46418324</DistanceMeters>
          </Trackpoint>
          <Trackpoint>
            <Time>2019-10-04T11:40:56.000Z</Time>
            <Position>
              <LatitudeDegrees>43.2516655884683132171630859375</LatitudeDegrees>
              <LongitudeDegrees>-5.7721086032688617706298828125</LongitudeDegrees>
            </Position>
            <AltitudeMeters>218.8000030517578125</AltitudeMeters>
            <DistanceMeters>45571.909666567</DistanceMeters>
          </Trackpoint>
          <Trackpoint>
            <Time>2019-10-04T11:41:01.000Z</Time>
            <Position>
              <LatitudeDegrees>43.251469619572162628173828125</LatitudeDegrees>
              <LongitudeDegrees>-5.772050432860851287841796875</LongitudeDegrees>
            </Position>
            <AltitudeMeters>218.8000030517578125</AltitudeMeters>
            <DistanceMeters>45594.225370807</DistanceMeters>
          </Trackpoint>
          <Trackpoint>
            <Time>2019-10-04T11:41:08.000Z</Time>
            <Position>
              <LatitudeDegrees>43.2511848025023937225341796875</LatitudeDegrees>
              <LongitudeDegrees>-5.77203609980642795562744140625</LongitudeDegrees>
            </Position>
            <AltitudeMeters>218.399993896484375</AltitudeMeters>
            <DistanceMeters>45625.947218146</DistanceMeters>
          </Trackpoint>
          <Trackpoint>
            <Time>2019-10-04T11:41:11.000Z</Time>
            <Position>
              <LatitudeDegrees>43.25106628239154815673828125</LatitudeDegrees>
              <LongitudeDegrees>-5.772025287151336669921875</LongitudeDegrees>
            </Position>
            <AltitudeMeters>218.600006103515625</AltitudeMeters>
            <DistanceMeters>45639.167889825</DistanceMeters>
          </Trackpoint>
          <Trackpoint>
            <Time>2019-10-04T11:41:14.000Z</Time>
            <Position>
              <LatitudeDegrees>43.25094466097652912139892578125</LatitudeDegrees>
              <LongitudeDegrees>-5.7720335014164447784423828125</LongitudeDegrees>
            </Position>
            <AltitudeMeters>218.8000030517578125</AltitudeMeters>
            <DistanceMeters>45652.721111399</DistanceMeters>
          </Trackpoint>
          <Trackpoint>
            <Time>2019-10-04T11:41:15.000Z</Time>
            <Position>
              <LatitudeDegrees>43.25090325437486171722412109375</LatitudeDegrees>
              <LongitudeDegrees>-5.7720445655286312103271484375</LongitudeDegrees>
            </Position>
            <AltitudeMeters>218.600006103515625</AltitudeMeters>
            <DistanceMeters>45657.415084825</DistanceMeters>
          </Trackpoint>
          <Trackpoint>
            <Time>2019-10-04T11:41:19.000Z</Time>
            <Position>
              <LatitudeDegrees>43.2507338561117649078369140625</LatitudeDegrees>
              <LongitudeDegrees>-5.7720452360808849334716796875</LongitudeDegrees>
            </Position>
            <AltitudeMeters>218.8000030517578125</AltitudeMeters>
            <DistanceMeters>45676.269687696</DistanceMeters>
          </Trackpoint>
          <Trackpoint>
            <Time>2019-10-04T11:41:20.000Z</Time>
            <Position>
              <LatitudeDegrees>43.25069337151944637298583984375</LatitudeDegrees>
              <LongitudeDegrees>-5.7720539532601833343505859375</LongitudeDegrees>
            </Position>
            <AltitudeMeters>219</AltitudeMeters>
            <DistanceMeters>45680.830969986</DistanceMeters>
          </Trackpoint>
          <Trackpoint>
            <Time>2019-10-04T11:41:25.000Z</Time>
            <Position>
              <LatitudeDegrees>43.25053797103464603424072265625</LatitudeDegrees>
              <LongitudeDegrees>-5.77208572067320346832275390625</LongitudeDegrees>
            </Position>
            <AltitudeMeters>219</AltitudeMeters>
            <DistanceMeters>45698.317951106</DistanceMeters>
          </Trackpoint>
          <Trackpoint>
            <Time>2019-10-04T11:41:30.000Z</Time>
            <Position>
              <LatitudeDegrees>43.25046219862997531890869140625</LatitudeDegrees>
              <LongitudeDegrees>-5.77209209091961383819580078125</LongitudeDegrees>
            </Position>
            <AltitudeMeters>219.399993896484375</AltitudeMeters>
            <DistanceMeters>45706.767317021</DistanceMeters>
          </Trackpoint>
          <Trackpoint>
            <Time>2019-10-04T11:41:35.000Z</Time>
            <Position>
              <LatitudeDegrees>43.2504431717097759246826171875</LatitudeDegrees>
              <LongitudeDegrees>-5.7720744051039218902587890625</LongitudeDegrees>
            </Position>
            <AltitudeMeters>219.1999969482421875</AltitudeMeters>
            <DistanceMeters>45709.3242244</DistanceMeters>
          </Trackpoint>
          <Trackpoint>
            <Time>2019-10-04T11:41:40.000Z</Time>
            <Position>
              <LatitudeDegrees>43.2504431717097759246826171875</LatitudeDegrees>
              <LongitudeDegrees>-5.7720744051039218902587890625</LongitudeDegrees>
            </Position>
            <AltitudeMeters>219</AltitudeMeters>
            <DistanceMeters>45709.3242244</DistanceMeters>
          </Trackpoint>
          <Trackpoint>
            <Time>2019-10-04T11:41:43.000Z</Time>
            <Position>
              <LatitudeDegrees>43.25042062439024448394775390625</LatitudeDegrees>
              <LongitudeDegrees>-5.77207683585584163665771484375</LongitudeDegrees>
            </Position>
            <AltitudeMeters>219.399993896484375</AltitudeMeters>
            <DistanceMeters>45711.840190137</DistanceMeters>
          </Trackpoint>
          <Trackpoint>
            <Time>2019-10-04T11:41:48.000Z</Time>
            <Position>
              <LatitudeDegrees>43.25029204599559307098388671875</LatitudeDegrees>
              <LongitudeDegrees>-5.7720854692161083221435546875</LongitudeDegrees>
            </Position>
            <AltitudeMeters>219</AltitudeMeters>
            <DistanceMeters>45726.168126411</DistanceMeters>
          </Trackpoint>
          <Trackpoint>
            <Time>2019-10-04T11:41:52.000Z</Time>
            <Position>
              <LatitudeDegrees>43.2501469552516937255859375</LatitudeDegrees>
              <LongitudeDegrees>-5.77210265211760997772216796875</LongitudeDegrees>
            </Position>
            <AltitudeMeters>219</AltitudeMeters>
            <DistanceMeters>45742.377076844</DistanceMeters>
          </Trackpoint>
          <Trackpoint>
            <Time>2019-10-04T11:41:53.000Z</Time>
            <Position>
              <LatitudeDegrees>43.25011367909610271453857421875</LatitudeDegrees>
              <LongitudeDegrees>-5.772103406488895416259765625</LongitudeDegrees>
            </Position>
            <AltitudeMeters>219</AltitudeMeters>
            <DistanceMeters>45746.081900213</DistanceMeters>
          </Trackpoint>
          <Trackpoint>
            <Time>2019-10-04T11:41:56.000Z</Time>
            <Position>
              <LatitudeDegrees>43.24999800883233547210693359375</LatitudeDegrees>
              <LongitudeDegrees>-5.77209326438605785369873046875</LongitudeDegrees>
            </Position>
            <AltitudeMeters>219.1999969482421875</AltitudeMeters>
            <DistanceMeters>45758.982454808</DistanceMeters>
          </Trackpoint>
          <Trackpoint>
            <Time>2019-10-04T11:42:00.000Z</Time>
            <Position>
              <LatitudeDegrees>43.24984830804169178009033203125</LatitudeDegrees>
              <LongitudeDegrees>-5.77208789996802806854248046875</LongitudeDegrees>
            </Position>
            <AltitudeMeters>219.1999969482421875</AltitudeMeters>
            <DistanceMeters>45775.650097167</DistanceMeters>
          </Trackpoint>
          <Trackpoint>
            <Time>2019-10-04T11:42:08.000Z</Time>
            <Position>
              <LatitudeDegrees>43.2495198212563991546630859375</LatitudeDegrees>
              <LongitudeDegrees>-5.7720925100147724151611328125</LongitudeDegrees>
            </Position>
            <AltitudeMeters>219.1999969482421875</AltitudeMeters>
            <DistanceMeters>45812.213161414</DistanceMeters>
          </Trackpoint>
          <Trackpoint>
            <Time>2019-10-04T11:42:14.000Z</Time>
            <Position>
              <LatitudeDegrees>43.24926652014255523681640625</LatitudeDegrees>
              <LongitudeDegrees>-5.77208706177771091461181640625</LongitudeDegrees>
            </Position>
            <AltitudeMeters>219.1999969482421875</AltitudeMeters>
            <DistanceMeters>45840.409686917</DistanceMeters>
          </Trackpoint>
          <Trackpoint>
            <Time>2019-10-04T11:42:25.000Z</Time>
            <Position>
              <LatitudeDegrees>43.24875748716294765472412109375</LatitudeDegrees>
              <LongitudeDegrees>-5.77201749198138713836669921875</LongitudeDegrees>
            </Position>
            <AltitudeMeters>218.399993896484375</AltitudeMeters>
            <DistanceMeters>45897.346154344</DistanceMeters>
          </Trackpoint>
          <Trackpoint>
            <Time>2019-10-04T11:42:34.000Z</Time>
            <Position>
              <LatitudeDegrees>43.2483445107936859130859375</LatitudeDegrees>
              <LongitudeDegrees>-5.7719761691987514495849609375</LongitudeDegrees>
            </Position>
            <AltitudeMeters>218.600006103515625</AltitudeMeters>
            <DistanceMeters>45943.433131146</DistanceMeters>
          </Trackpoint>
          <Trackpoint>
            <Time>2019-10-04T11:42:41.000Z</Time>
            <Position>
              <LatitudeDegrees>43.24803731404244899749755859375</LatitudeDegrees>
              <LongitudeDegrees>-5.77192864380776882171630859375</LongitudeDegrees>
            </Position>
            <AltitudeMeters>218.600006103515625</AltitudeMeters>
            <DistanceMeters>45977.840938433</DistanceMeters>
          </Trackpoint>
          <Trackpoint>
            <Time>2019-10-04T11:42:44.000Z</Time>
            <Position>
              <LatitudeDegrees>43.2479059696197509765625</LatitudeDegrees>
              <LongitudeDegrees>-5.77192981727421283721923828125</LongitudeDegrees>
            </Position>
            <AltitudeMeters>218.600006103515625</AltitudeMeters>
            <DistanceMeters>45992.459617892</DistanceMeters>
          </Trackpoint>
          <Trackpoint>
            <Time>2019-10-04T11:42:47.000Z</Time>
            <Position>
              <LatitudeDegrees>43.24778635986149311065673828125</LatitudeDegrees>
              <LongitudeDegrees>-5.77194892801344394683837890625</LongitudeDegrees>
            </Position>
            <AltitudeMeters>218.600006103515625</AltitudeMeters>
            <DistanceMeters>46005.862090821</DistanceMeters>
          </Trackpoint>
          <Trackpoint>
            <Time>2019-10-04T11:42:48.000Z</Time>
            <Position>
              <LatitudeDegrees>43.2477455399930477142333984375</LatitudeDegrees>
              <LongitudeDegrees>-5.77194415032863616943359375</LongitudeDegrees>
            </Position>
            <AltitudeMeters>218.8000030517578125</AltitudeMeters>
            <DistanceMeters>46010.421392958</DistanceMeters>
          </Trackpoint>
          <Trackpoint>
            <Time>2019-10-04T11:42:52.000Z</Time>
            <Position>
              <LatitudeDegrees>43.247580416500568389892578125</LatitudeDegrees>
              <LongitudeDegrees>-5.771974660456180572509765625</LongitudeDegrees>
            </Position>
            <AltitudeMeters>218.600006103515625</AltitudeMeters>
            <DistanceMeters>46028.965485579</DistanceMeters>
          </Trackpoint>
          <Trackpoint>
            <Time>2019-10-04T11:42:55.000Z</Time>
            <Position>
              <LatitudeDegrees>43.24745225720107555389404296875</LatitudeDegrees>
              <LongitudeDegrees>-5.77198572456836700439453125</LongitudeDegrees>
            </Position>
            <AltitudeMeters>218.8000030517578125</AltitudeMeters>
            <DistanceMeters>46043.258084689</DistanceMeters>
          </Trackpoint>
          <Trackpoint>
            <Time>2019-10-04T11:42:58.000Z</Time>
            <Position>
              <LatitudeDegrees>43.24732367880642414093017578125</LatitudeDegrees>
              <LongitudeDegrees>-5.77201581560075283050537109375</LongitudeDegrees>
            </Position>
            <AltitudeMeters>218.600006103515625</AltitudeMeters>
            <DistanceMeters>46057.775728582</DistanceMeters>
          </Trackpoint>
          <Trackpoint>
            <Time>2019-10-04T11:43:07.000Z</Time>
            <Position>
              <LatitudeDegrees>43.24693190865218639373779296875</LatitudeDegrees>
              <LongitudeDegrees>-5.77212385833263397216796875</LongitudeDegrees>
            </Position>
            <AltitudeMeters>219</AltitudeMeters>
            <DistanceMeters>46102.251682598</DistanceMeters>
          </Trackpoint>
          <Trackpoint>
            <Time>2019-10-04T11:43:11.000Z</Time>
            <Position>
              <LatitudeDegrees>43.24676401913166046142578125</LatitudeDegrees>
              <LongitudeDegrees>-5.772124864161014556884765625</LongitudeDegrees>
            </Position>
            <AltitudeMeters>218.8000030517578125</AltitudeMeters>
            <DistanceMeters>46120.938390604</DistanceMeters>
          </Trackpoint>
          <Trackpoint>
            <Time>2019-10-04T11:43:14.000Z</Time>
            <Position>
              <LatitudeDegrees>43.246654383838176727294921875</LatitudeDegrees>
              <LongitudeDegrees>-5.77218110673129558563232421875</LongitudeDegrees>
            </Position>
            <AltitudeMeters>219</AltitudeMeters>
            <DistanceMeters>46133.965024725</DistanceMeters>
          </Trackpoint>
          <Trackpoint>
            <Time>2019-10-04T11:43:18.000Z</Time>
            <Position>
              <LatitudeDegrees>43.24649445712566375732421875</LatitudeDegrees>
              <LongitudeDegrees>-5.77224229462444782257080078125</LongitudeDegrees>
            </Position>
            <AltitudeMeters>219</AltitudeMeters>
            <DistanceMeters>46152.44350628</DistanceMeters>
          </Trackpoint>
          <Trackpoint>
            <Time>2019-10-04T11:43:19.000Z</Time>
            <Position>
              <LatitudeDegrees>43.24645196087658405303955078125</LatitudeDegrees>
              <LongitudeDegrees>-5.772259645164012908935546875</LongitudeDegrees>
            </Position>
            <AltitudeMeters>219.1999969482421875</AltitudeMeters>
            <DistanceMeters>46157.377580265</DistanceMeters>
          </Trackpoint>
          <Trackpoint>
            <Time>2019-10-04T11:43:20.000Z</Time>
            <Position>
              <LatitudeDegrees>43.2464124821126461029052734375</LatitudeDegrees>
              <LongitudeDegrees>-5.77228219248354434967041015625</LongitudeDegrees>
            </Position>
            <AltitudeMeters>219.1999969482421875</AltitudeMeters>
            <DistanceMeters>46162.136512049</DistanceMeters>
          </Trackpoint>
          <Trackpoint>
            <Time>2019-10-04T11:43:25.000Z</Time>
            <Position>
              <LatitudeDegrees>43.2461982406675815582275390625</LatitudeDegrees>
              <LongitudeDegrees>-5.77238537371158599853515625</LongitudeDegrees>
            </Position>
            <AltitudeMeters>219</AltitudeMeters>
            <DistanceMeters>46187.406829538</DistanceMeters>
          </Trackpoint>
          <Trackpoint>
            <Time>2019-10-04T11:43:35.000Z</Time>
            <Position>
              <LatitudeDegrees>43.24576782993972301483154296875</LatitudeDegrees>
              <LongitudeDegrees>-5.77258410863578319549560546875</LongitudeDegrees>
            </Position>
            <AltitudeMeters>219.399993896484375</AltitudeMeters>
            <DistanceMeters>46237.949429842</DistanceMeters>
          </Trackpoint>
          <Trackpoint>
            <Time>2019-10-04T11:43:38.000Z</Time>
            <Position>
              <LatitudeDegrees>43.24564151465892791748046875</LatitudeDegrees>
              <LongitudeDegrees>-5.77263440005481243133544921875</LongitudeDegrees>
            </Position>
            <AltitudeMeters>219.8000030517578125</AltitudeMeters>
            <DistanceMeters>46252.587862614</DistanceMeters>
          </Trackpoint>
          <Trackpoint>
            <Time>2019-10-04T11:43:41.000Z</Time>
            <Position>
              <LatitudeDegrees>43.24552291072905063629150390625</LatitudeDegrees>
              <LongitudeDegrees>-5.7726970128715038299560546875</LongitudeDegrees>
            </Position>
            <AltitudeMeters>219.600006103515625</AltitudeMeters>
            <DistanceMeters>46266.730889988</DistanceMeters>
          </Trackpoint>
          <Trackpoint>
            <Time>2019-10-04T11:43:47.000Z</Time>
            <Position>
              <LatitudeDegrees>43.2453104294836521148681640625</LatitudeDegrees>
              <LongitudeDegrees>-5.77280203811824321746826171875</LongitudeDegrees>
            </Position>
            <AltitudeMeters>220.1999969482421875</AltitudeMeters>
            <DistanceMeters>46291.866488817</DistanceMeters>
          </Trackpoint>
          <Trackpoint>
            <Time>2019-10-04T11:43:48.000Z</Time>
            <Position>
              <LatitudeDegrees>43.24527933262288570404052734375</LatitudeDegrees>
              <LongitudeDegrees>-5.7728220708668231964111328125</LongitudeDegrees>
            </Position>
            <AltitudeMeters>220</AltitudeMeters>
            <DistanceMeters>46295.691240291</DistanceMeters>
          </Trackpoint>
          <Trackpoint>
            <Time>2019-10-04T11:43:54.000Z</Time>
            <Position>
              <LatitudeDegrees>43.24508965015411376953125</LatitudeDegrees>
              <LongitudeDegrees>-5.77290513552725315093994140625</LongitudeDegrees>
            </Position>
            <AltitudeMeters>220.1999969482421875</AltitudeMeters>
            <DistanceMeters>46317.851828671</DistanceMeters>
          </Trackpoint>
          <Trackpoint>
            <Time>2019-10-04T11:44:02.000Z</Time>
            <Position>
              <LatitudeDegrees>43.24483592994511127471923828125</LatitudeDegrees>
              <LongitudeDegrees>-5.77301527373492717742919921875</LongitudeDegrees>
            </Position>
            <AltitudeMeters>219.8000030517578125</AltitudeMeters>
            <DistanceMeters>46347.46953817</DistanceMeters>
          </Trackpoint>
          <Trackpoint>
            <Time>2019-10-04T11:44:09.000Z</Time>
            <Position>
              <LatitudeDegrees>43.244616575539112091064453125</LatitudeDegrees>
              <LongitudeDegrees>-5.773106552660465240478515625</LongitudeDegrees>
            </Position>
            <AltitudeMeters>219.600006103515625</AltitudeMeters>
            <DistanceMeters>46372.980981282</DistanceMeters>
          </Trackpoint>
          <Trackpoint>
            <Time>2019-10-04T11:44:11.000Z</Time>
            <Position>
              <LatitudeDegrees>43.24455446563661098480224609375</LatitudeDegrees>
              <LongitudeDegrees>-5.77313161455094814300537109375</LongitudeDegrees>
            </Position>
            <AltitudeMeters>219.399993896484375</AltitudeMeters>
            <DistanceMeters>46380.185485387</DistanceMeters>
          </Trackpoint>
          <Trackpoint>
            <Time>2019-10-04T11:44:17.000Z</Time>
            <Position>
              <LatitudeDegrees>43.24438313953578472137451171875</LatitudeDegrees>
              <LongitudeDegrees>-5.77320990152657032012939453125</LongitudeDegrees>
            </Position>
            <AltitudeMeters>219.600006103515625</AltitudeMeters>
            <DistanceMeters>46400.282680693</DistanceMeters>
          </Trackpoint>
          <Trackpoint>
            <Time>2019-10-04T11:44:19.000Z</Time>
            <Position>
              <LatitudeDegrees>43.24432195164263248443603515625</LatitudeDegrees>
              <LongitudeDegrees>-5.7732428424060344696044921875</LongitudeDegrees>
            </Position>
            <AltitudeMeters>219.399993896484375</AltitudeMeters>
            <DistanceMeters>46407.597886296</DistanceMeters>
          </Trackpoint>
          <Trackpoint>
            <Time>2019-10-04T11:44:21.000Z</Time>
            <Position>
              <LatitudeDegrees>43.24425858445465564727783203125</LatitudeDegrees>
              <LongitudeDegrees>-5.773274190723896026611328125</LongitudeDegrees>
            </Position>
            <AltitudeMeters>219</AltitudeMeters>
            <DistanceMeters>46415.094163085</DistanceMeters>
          </Trackpoint>
          <Trackpoint>
            <Time>2019-10-04T11:44:25.000Z</Time>
            <Position>
              <LatitudeDegrees>43.2441081292927265167236328125</LatitudeDegrees>
              <LongitudeDegrees>-5.77334417961537837982177734375</LongitudeDegrees>
            </Position>
            <AltitudeMeters>219</AltitudeMeters>
            <DistanceMeters>46432.775517009</DistanceMeters>
          </Trackpoint>
          <Trackpoint>
            <Time>2019-10-04T11:44:27.000Z</Time>
            <Position>
              <LatitudeDegrees>43.24402523227035999298095703125</LatitudeDegrees>
              <LongitudeDegrees>-5.77338290400803089141845703125</LongitudeDegrees>
            </Position>
            <AltitudeMeters>218.8000030517578125</AltitudeMeters>
            <DistanceMeters>46442.522126891</DistanceMeters>
          </Trackpoint>
          <Trackpoint>
            <Time>2019-10-04T11:44:33.000Z</Time>
            <Position>
              <LatitudeDegrees>43.24373639188706874847412109375</LatitudeDegrees>
              <LongitudeDegrees>-5.7735023461282253265380859375</LongitudeDegrees>
            </Position>
            <AltitudeMeters>218.600006103515625</AltitudeMeters>
            <DistanceMeters>46476.097634977</DistanceMeters>
          </Trackpoint>
          <Trackpoint>
            <Time>2019-10-04T11:44:34.000Z</Time>
            <Position>
              <LatitudeDegrees>43.243685178458690643310546875</LatitudeDegrees>
              <LongitudeDegrees>-5.7735174335539340972900390625</LongitudeDegrees>
            </Position>
            <AltitudeMeters>218</AltitudeMeters>
            <DistanceMeters>46481.92766137</DistanceMeters>
          </Trackpoint>
          <Trackpoint>
            <Time>2019-10-04T11:44:38.000Z</Time>
            <Position>
              <LatitudeDegrees>43.243467919528484344482421875</LatitudeDegrees>
              <LongitudeDegrees>-5.77358658425509929656982421875</LongitudeDegrees>
            </Position>
            <AltitudeMeters>218.399993896484375</AltitudeMeters>
            <DistanceMeters>46506.750378106</DistanceMeters>
          </Trackpoint>
          <Trackpoint>
            <Time>2019-10-04T11:44:39.000Z</Time>
            <Position>
              <LatitudeDegrees>43.243412934243679046630859375</LatitudeDegrees>
              <LongitudeDegrees>-5.77361038886010646820068359375</LongitudeDegrees>
            </Position>
            <AltitudeMeters>218.399993896484375</AltitudeMeters>
            <DistanceMeters>46513.167320414</DistanceMeters>
          </Trackpoint>
          <Trackpoint>
            <Time>2019-10-04T11:44:43.000Z</Time>
            <Position>
              <LatitudeDegrees>43.243200369179248809814453125</LatitudeDegrees>
              <LongitudeDegrees>-5.77372371219098567962646484375</LongitudeDegrees>
            </Position>
            <AltitudeMeters>219</AltitudeMeters>
            <DistanceMeters>46538.547815547</DistanceMeters>
          </Trackpoint>
          <Trackpoint>
            <Time>2019-10-04T11:44:45.000Z</Time>
            <Position>
              <LatitudeDegrees>43.2431029714643955230712890625</LatitudeDegrees>
              <LongitudeDegrees>-5.77379730530083179473876953125</LongitudeDegrees>
            </Position>
            <AltitudeMeters>218.600006103515625</AltitudeMeters>
            <DistanceMeters>46550.922103658</DistanceMeters>
          </Trackpoint>
          <Trackpoint>
            <Time>2019-10-04T11:44:49.000Z</Time>
            <Position>
              <LatitudeDegrees>43.24292980134487152099609375</LatitudeDegrees>
              <LongitudeDegrees>-5.77395656146109104156494140625</LongitudeDegrees>
            </Position>
            <AltitudeMeters>218.399993896484375</AltitudeMeters>
            <DistanceMeters>46574.121859613</DistanceMeters>
          </Trackpoint>
          <Trackpoint>
            <Time>2019-10-04T11:44:52.000Z</Time>
            <Position>
              <LatitudeDegrees>43.24279971420764923095703125</LatitudeDegrees>
              <LongitudeDegrees>-5.7740686275064945220947265625</LongitudeDegrees>
            </Position>
            <AltitudeMeters>218.600006103515625</AltitudeMeters>
            <DistanceMeters>46591.216106415</DistanceMeters>
          </Trackpoint>
          <Trackpoint>
            <Time>2019-10-04T11:44:57.000Z</Time>
            <Position>
              <LatitudeDegrees>43.2425983808934688568115234375</LatitudeDegrees>
              <LongitudeDegrees>-5.77423282898962497711181640625</LongitudeDegrees>
            </Position>
            <AltitudeMeters>218.600006103515625</AltitudeMeters>
            <DistanceMeters>46617.281502853</DistanceMeters>
          </Trackpoint>
          <Trackpoint>
            <Time>2019-10-04T11:45:04.000Z</Time>
            <Position>
              <LatitudeDegrees>43.2423030026257038116455078125</LatitudeDegrees>
              <LongitudeDegrees>-5.77445310540497303009033203125</LongitudeDegrees>
            </Position>
            <AltitudeMeters>218.1999969482421875</AltitudeMeters>
            <DistanceMeters>46654.695729963</DistanceMeters>
          </Trackpoint>
          <Trackpoint>
            <Time>2019-10-04T11:45:11.000Z</Time>
            <Position>
              <LatitudeDegrees>43.24198591522872447967529296875</LatitudeDegrees>
              <LongitudeDegrees>-5.7746815122663974761962890625</LongitudeDegrees>
            </Position>
            <AltitudeMeters>217.8000030517578125</AltitudeMeters>
            <DistanceMeters>46694.551932335</DistanceMeters>
          </Trackpoint>
          <Trackpoint>
            <Time>2019-10-04T11:45:19.000Z</Time>
            <Position>
              <LatitudeDegrees>43.24162666685879230499267578125</LatitudeDegrees>
              <LongitudeDegrees>-5.7749302871525287628173828125</LongitudeDegrees>
            </Position>
            <AltitudeMeters>217.1999969482421875</AltitudeMeters>
            <DistanceMeters>46739.336642661</DistanceMeters>
          </Trackpoint>
          <Trackpoint>
            <Time>2019-10-04T11:45:24.000Z</Time>
            <Position>
              <LatitudeDegrees>43.24139884673058986663818359375</LatitudeDegrees>
              <LongitudeDegrees>-5.77508426271378993988037109375</LongitudeDegrees>
            </Position>
            <AltitudeMeters>217.399993896484375</AltitudeMeters>
            <DistanceMeters>46767.60002219</DistanceMeters>
          </Trackpoint>
          <Trackpoint>
            <Time>2019-10-04T11:45:26.000Z</Time>
            <Position>
              <LatitudeDegrees>43.24130631051957607269287109375</LatitudeDegrees>
              <LongitudeDegrees>-5.7751514017581939697265625</LongitudeDegrees>
            </Position>
            <AltitudeMeters>217.1999969482421875</AltitudeMeters>
            <DistanceMeters>46779.249615268</DistanceMeters>
          </Trackpoint>
          <Trackpoint>
            <Time>2019-10-04T11:45:29.000Z</Time>
            <Position>
              <LatitudeDegrees>43.24115761555731296539306640625</LatitudeDegrees>
              <LongitudeDegrees>-5.77525265514850616455078125</LongitudeDegrees>
            </Position>
            <AltitudeMeters>217.1999969482421875</AltitudeMeters>
            <DistanceMeters>46797.72394257</DistanceMeters>
          </Trackpoint>
          <Trackpoint>
            <Time>2019-10-04T11:45:30.000Z</Time>
            <Position>
              <LatitudeDegrees>43.24110631830990314483642578125</LatitudeDegrees>
              <LongitudeDegrees>-5.77528492547571659088134765625</LongitudeDegrees>
            </Position>
            <AltitudeMeters>217</AltitudeMeters>
            <DistanceMeters>46804.004338569</DistanceMeters>
          </Trackpoint>
          <Trackpoint>
            <Time>2019-10-04T11:45:32.000Z</Time>
            <Position>
              <LatitudeDegrees>43.241002969443798065185546875</LatitudeDegrees>
              <LongitudeDegrees>-5.77535466291010379791259765625</LongitudeDegrees>
            </Position>
            <AltitudeMeters>216.600006103515625</AltitudeMeters>
            <DistanceMeters>46816.822029891</DistanceMeters>
          </Trackpoint>
          <Trackpoint>
            <Time>2019-10-04T11:45:34.000Z</Time>
            <Position>
              <LatitudeDegrees>43.24089610017836093902587890625</LatitudeDegrees>
              <LongitudeDegrees>-5.7754194550216197967529296875</LongitudeDegrees>
            </Position>
            <AltitudeMeters>216.8000030517578125</AltitudeMeters>
            <DistanceMeters>46829.825073817</DistanceMeters>
          </Trackpoint>
          <Trackpoint>
            <Time>2019-10-04T11:45:39.000Z</Time>
            <Position>
              <LatitudeDegrees>43.24064061976969242095947265625</LatitudeDegrees>
              <LongitudeDegrees>-5.7755894400179386138916015625</LongitudeDegrees>
            </Position>
            <AltitudeMeters>216.399993896484375</AltitudeMeters>
            <DistanceMeters>46861.424564209</DistanceMeters>
          </Trackpoint>
          <Trackpoint>
            <Time>2019-10-04T11:45:42.000Z</Time>
            <Position>
              <LatitudeDegrees>43.24049477465450763702392578125</LatitudeDegrees>
              <LongitudeDegrees>-5.7756729237735271453857421875</LongitudeDegrees>
            </Position>
            <AltitudeMeters>215.600006103515625</AltitudeMeters>
            <DistanceMeters>46879.01195283</DistanceMeters>
          </Trackpoint>
          <Trackpoint>
            <Time>2019-10-04T11:45:46.000Z</Time>
            <Position>
              <LatitudeDegrees>43.24031188152730464935302734375</LatitudeDegrees>
              <LongitudeDegrees>-5.77576554380357265472412109375</LongitudeDegrees>
            </Position>
            <AltitudeMeters>214.1999969482421875</AltitudeMeters>
            <DistanceMeters>46900.709279977</DistanceMeters>
          </Trackpoint>
          <Trackpoint>
            <Time>2019-10-04T11:45:49.000Z</Time>
            <Position>
              <LatitudeDegrees>43.2401766814291477203369140625</LatitudeDegrees>
              <LongitudeDegrees>-5.77580141834914684295654296875</LongitudeDegrees>
            </Position>
            <AltitudeMeters>213.399993896484375</AltitudeMeters>
            <DistanceMeters>46916.035707432</DistanceMeters>
          </Trackpoint>
          <Trackpoint>
            <Time>2019-10-04T11:45:50.000Z</Time>
            <Position>
              <LatitudeDegrees>43.24013401754200458526611328125</LatitudeDegrees>
              <LongitudeDegrees>-5.7758066989481449127197265625</LongitudeDegrees>
            </Position>
            <AltitudeMeters>213</AltitudeMeters>
            <DistanceMeters>46920.804117281</DistanceMeters>
          </Trackpoint>
          <Trackpoint>
            <Time>2019-10-04T11:45:53.000Z</Time>
            <Position>
              <LatitudeDegrees>43.24000493623316287994384765625</LatitudeDegrees>
              <LongitudeDegrees>-5.77583662234246730804443359375</LongitudeDegrees>
            </Position>
            <AltitudeMeters>211.8000030517578125</AltitudeMeters>
            <DistanceMeters>46935.374535847</DistanceMeters>
          </Trackpoint>
          <Trackpoint>
            <Time>2019-10-04T11:45:56.000Z</Time>
            <Position>
              <LatitudeDegrees>43.23987853713333606719970703125</LatitudeDegrees>
              <LongitudeDegrees>-5.775868892669677734375</LongitudeDegrees>
            </Position>
            <AltitudeMeters>211.8000030517578125</AltitudeMeters>
            <DistanceMeters>46949.684183412</DistanceMeters>
          </Trackpoint>
          <Trackpoint>
            <Time>2019-10-04T11:46:00.000Z</Time>
            <Position>
              <LatitudeDegrees>43.2397113181650638580322265625</LatitudeDegrees>
              <LongitudeDegrees>-5.77591516077518463134765625</LongitudeDegrees>
            </Position>
            <AltitudeMeters>211.1999969482421875</AltitudeMeters>
            <DistanceMeters>46968.670273625</DistanceMeters>
          </Trackpoint>
          <Trackpoint>
            <Time>2019-10-04T11:46:04.000Z</Time>
            <Position>
              <LatitudeDegrees>43.2395567558705806732177734375</LatitudeDegrees>
              <LongitudeDegrees>-5.77597425319254398345947265625</LongitudeDegrees>
            </Position>
            <AltitudeMeters>211</AltitudeMeters>
            <DistanceMeters>46986.527965235</DistanceMeters>
          </Trackpoint>
          <Trackpoint>
            <Time>2019-10-04T11:46:06.000Z</Time>
            <Position>
              <LatitudeDegrees>43.2394816540181636810302734375</LatitudeDegrees>
              <LongitudeDegrees>-5.77600476332008838653564453125</LongitudeDegrees>
            </Position>
            <AltitudeMeters>210.8000030517578125</AltitudeMeters>
            <DistanceMeters>46995.245598133</DistanceMeters>
          </Trackpoint>
          <Trackpoint>
            <Time>2019-10-04T11:46:10.000Z</Time>
            <Position>
              <LatitudeDegrees>43.239331282675266265869140625</LatitudeDegrees>
              <LongitudeDegrees>-5.7760762609541416168212890625</LongitudeDegrees>
            </Position>
            <AltitudeMeters>210.600006103515625</AltitudeMeters>
            <DistanceMeters>47012.957823172</DistanceMeters>
          </Trackpoint>
          <Trackpoint>
            <Time>2019-10-04T11:46:12.000Z</Time>
            <Position>
              <LatitudeDegrees>43.23925358243286609649658203125</LatitudeDegrees>
              <LongitudeDegrees>-5.7761091180145740509033203125</LongitudeDegrees>
            </Position>
            <AltitudeMeters>210.399993896484375</AltitudeMeters>
            <DistanceMeters>47022.007340467</DistanceMeters>
          </Trackpoint>
          <Trackpoint>
            <Time>2019-10-04T11:46:19.000Z</Time>
            <Position>
              <LatitudeDegrees>43.238982595503330230712890625</LatitudeDegrees>
              <LongitudeDegrees>-5.77623258344829082489013671875</LongitudeDegrees>
            </Position>
            <AltitudeMeters>209.8000030517578125</AltitudeMeters>
            <DistanceMeters>47053.786637965</DistanceMeters>
          </Trackpoint>
          <Trackpoint>
            <Time>2019-10-04T11:46:23.000Z</Time>
            <Position>
              <LatitudeDegrees>43.23882199823856353759765625</LatitudeDegrees>
              <LongitudeDegrees>-5.7763240300118923187255859375</LongitudeDegrees>
            </Position>
            <AltitudeMeters>209.600006103515625</AltitudeMeters>
            <DistanceMeters>47073.138053162</DistanceMeters>
          </Trackpoint>
          <Trackpoint>
            <Time>2019-10-04T11:46:26.000Z</Time>
            <Position>
              <LatitudeDegrees>43.238700293004512786865234375</LatitudeDegrees>
              <LongitudeDegrees>-5.7764048315584659576416015625</LongitudeDegrees>
            </Position>
            <AltitudeMeters>208.8000030517578125</AltitudeMeters>
            <DistanceMeters>47088.185316593</DistanceMeters>
          </Trackpoint>
          <Trackpoint>
            <Time>2019-10-04T11:46:30.000Z</Time>
            <Position>
              <LatitudeDegrees>43.23853206820785999298095703125</LatitudeDegrees>
              <LongitudeDegrees>-5.77651069499552249908447265625</LongitudeDegrees>
            </Position>
            <AltitudeMeters>207.399993896484375</AltitudeMeters>
            <DistanceMeters>47108.782672042</DistanceMeters>
          </Trackpoint>
          <Trackpoint>
            <Time>2019-10-04T11:46:32.000Z</Time>
            <Position>
              <LatitudeDegrees>43.23844288475811481475830078125</LatitudeDegrees>
              <LongitudeDegrees>-5.7765520177781581878662109375</LongitudeDegrees>
            </Position>
            <AltitudeMeters>207.1999969482421875</AltitudeMeters>
            <DistanceMeters>47119.258909396</DistanceMeters>
          </Trackpoint>
          <Trackpoint>
            <Time>2019-10-04T11:46:35.000Z</Time>
            <Position>
              <LatitudeDegrees>43.238306678831577301025390625</LatitudeDegrees>
              <LongitudeDegrees>-5.77662033028900623321533203125</LongitudeDegrees>
            </Position>
            <AltitudeMeters>206.1999969482421875</AltitudeMeters>
            <DistanceMeters>47135.398910798</DistanceMeters>
          </Trackpoint>
          <Trackpoint>
            <Time>2019-10-04T11:46:40.000Z</Time>
            <Position>
              <LatitudeDegrees>43.2380796968936920166015625</LatitudeDegrees>
              <LongitudeDegrees>-5.776725523173809051513671875</LongitudeDegrees>
            </Position>
            <AltitudeMeters>204.8000030517578125</AltitudeMeters>
            <DistanceMeters>47162.063684546</DistanceMeters>
          </Trackpoint>
          <Trackpoint>
            <Time>2019-10-04T11:46:41.000Z</Time>
            <Position>
              <LatitudeDegrees>43.23803485371172428131103515625</LatitudeDegrees>
              <LongitudeDegrees>-5.7767555303871631622314453125</LongitudeDegrees>
            </Position>
            <AltitudeMeters>204.1999969482421875</AltitudeMeters>
            <DistanceMeters>47167.616042692</DistanceMeters>
          </Trackpoint>
          <Trackpoint>
            <Time>2019-10-04T11:46:44.000Z</Time>
            <Position>
              <LatitudeDegrees>43.23791096918284893035888671875</LatitudeDegrees>
              <LongitudeDegrees>-5.77687212266027927398681640625</LongitudeDegrees>
            </Position>
            <AltitudeMeters>204</AltitudeMeters>
            <DistanceMeters>47184.334264072</DistanceMeters>
          </Trackpoint>
          <Trackpoint>
            <Time>2019-10-04T11:46:45.000Z</Time>
            <Position>
              <LatitudeDegrees>43.23786520399153232574462890625</LatitudeDegrees>
              <LongitudeDegrees>-5.77689961530268192291259765625</LongitudeDegrees>
            </Position>
            <AltitudeMeters>203.8000030517578125</AltitudeMeters>
            <DistanceMeters>47189.893935974</DistanceMeters>
          </Trackpoint>
          <Trackpoint>
            <Time>2019-10-04T11:46:46.000Z</Time>
            <Position>
              <LatitudeDegrees>43.23781725950539112091064453125</LatitudeDegrees>
              <LongitudeDegrees>-5.776929371058940887451171875</LongitudeDegrees>
            </Position>
            <AltitudeMeters>203.1999969482421875</AltitudeMeters>
            <DistanceMeters>47195.751005242</DistanceMeters>
          </Trackpoint>
          <Trackpoint>
            <Time>2019-10-04T11:46:50.000Z</Time>
            <Position>
              <LatitudeDegrees>43.23764576576650142669677734375</LatitudeDegrees>
              <LongitudeDegrees>-5.7770354859530925750732421875</LongitudeDegrees>
            </Position>
            <AltitudeMeters>202.1999969482421875</AltitudeMeters>
            <DistanceMeters>47216.688390252</DistanceMeters>
          </Trackpoint>
          <Trackpoint>
            <Time>2019-10-04T11:46:54.000Z</Time>
            <Position>
              <LatitudeDegrees>43.2374673150479793548583984375</LatitudeDegrees>
              <LongitudeDegrees>-5.7771120965480804443359375</LongitudeDegrees>
            </Position>
            <AltitudeMeters>201</AltitudeMeters>
            <DistanceMeters>47237.499457654</DistanceMeters>
          </Trackpoint>
          <Trackpoint>
            <Time>2019-10-04T11:46:59.000Z</Time>
            <Position>
              <LatitudeDegrees>43.23727109469473361968994140625</LatitudeDegrees>
              <LongitudeDegrees>-5.777184851467609405517578125</LongitudeDegrees>
            </Position>
            <AltitudeMeters>199.8000030517578125</AltitudeMeters>
            <DistanceMeters>47260.122203123</DistanceMeters>
          </Trackpoint>
          <Trackpoint>
            <Time>2019-10-04T11:47:01.000Z</Time>
            <Position>
              <LatitudeDegrees>43.23720806278288364410400390625</LatitudeDegrees>
              <LongitudeDegrees>-5.77721142210066318511962890625</LongitudeDegrees>
            </Position>
            <AltitudeMeters>200</AltitudeMeters>
            <DistanceMeters>47267.460825331</DistanceMeters>
          </Trackpoint>
          <Trackpoint>
            <Time>2019-10-04T11:47:04.000Z</Time>
            <Position>
              <LatitudeDegrees>43.2371638901531696319580078125</LatitudeDegrees>
              <LongitudeDegrees>-5.7772366516292095184326171875</LongitudeDegrees>
            </Position>
            <AltitudeMeters>199.8000030517578125</AltitudeMeters>
            <DistanceMeters>47272.785714065</DistanceMeters>
          </Trackpoint>
          <Trackpoint>
            <Time>2019-10-04T11:47:05.000Z</Time>
            <Position>
              <LatitudeDegrees>43.237151987850666046142578125</LatitudeDegrees>
              <LongitudeDegrees>-5.7772467099130153656005859375</LongitudeDegrees>
            </Position>
            <AltitudeMeters>199.8000030517578125</AltitudeMeters>
            <DistanceMeters>47274.341368425</DistanceMeters>
          </Trackpoint>
          <Trackpoint>
            <Time>2019-10-04T11:47:09.000Z</Time>
            <Position>
              <LatitudeDegrees>43.2371534965932369232177734375</LatitudeDegrees>
              <LongitudeDegrees>-5.77723807655274868011474609375</LongitudeDegrees>
            </Position>
            <AltitudeMeters>199.8000030517578125</AltitudeMeters>
            <DistanceMeters>47275.065070321</DistanceMeters>
          </Trackpoint>
          <Trackpoint>
            <Time>2019-10-04T11:47:10.000Z</Time>
            <Position>
              <LatitudeDegrees>43.2371534965932369232177734375</LatitudeDegrees>
              <LongitudeDegrees>-5.77723807655274868011474609375</LongitudeDegrees>
            </Position>
            <AltitudeMeters>199.8000030517578125</AltitudeMeters>
            <DistanceMeters>47275.065070321</DistanceMeters>
          </Trackpoint>
          <Trackpoint>
            <Time>2019-10-04T11:47:20.000Z</Time>
            <Position>
              <LatitudeDegrees>43.2371534965932369232177734375</LatitudeDegrees>
              <LongitudeDegrees>-5.77723807655274868011474609375</LongitudeDegrees>
            </Position>
            <AltitudeMeters>199.8000030517578125</AltitudeMeters>
            <DistanceMeters>47275.065070321</DistanceMeters>
          </Trackpoint>
          <Trackpoint>
            <Time>2019-10-04T11:47:26.000Z</Time>
            <Position>
              <LatitudeDegrees>43.2371534965932369232177734375</LatitudeDegrees>
              <LongitudeDegrees>-5.77723807655274868011474609375</LongitudeDegrees>
            </Position>
            <AltitudeMeters>199.1999969482421875</AltitudeMeters>
            <DistanceMeters>47275.065070321</DistanceMeters>
          </Trackpoint>
          <Trackpoint>
            <Time>2019-10-04T11:47:27.000Z</Time>
            <Position>
              <LatitudeDegrees>43.2371534965932369232177734375</LatitudeDegrees>
              <LongitudeDegrees>-5.77723807655274868011474609375</LongitudeDegrees>
            </Position>
            <AltitudeMeters>199.1999969482421875</AltitudeMeters>
            <DistanceMeters>47275.065070321</DistanceMeters>
          </Trackpoint>
          <Trackpoint>
            <Time>2019-10-04T11:47:28.000Z</Time>
            <Position>
              <LatitudeDegrees>43.2371534965932369232177734375</LatitudeDegrees>
              <LongitudeDegrees>-5.77723807655274868011474609375</LongitudeDegrees>
            </Position>
            <AltitudeMeters>199</AltitudeMeters>
            <DistanceMeters>47275.065070321</DistanceMeters>
          </Trackpoint>
          <Trackpoint>
            <Time>2019-10-04T11:47:29.000Z</Time>
            <Position>
              <LatitudeDegrees>43.2371534965932369232177734375</LatitudeDegrees>
              <LongitudeDegrees>-5.77723807655274868011474609375</LongitudeDegrees>
            </Position>
            <AltitudeMeters>198.8000030517578125</AltitudeMeters>
            <DistanceMeters>47275.065070321</DistanceMeters>
          </Trackpoint>
          <Trackpoint>
            <Time>2019-10-04T11:47:34.000Z</Time>
            <Position>
              <LatitudeDegrees>43.2371534965932369232177734375</LatitudeDegrees>
              <LongitudeDegrees>-5.77723807655274868011474609375</LongitudeDegrees>
            </Position>
            <AltitudeMeters>198.600006103515625</AltitudeMeters>
            <DistanceMeters>47275.065070321</DistanceMeters>
          </Trackpoint>
          <Trackpoint>
            <Time>2019-10-04T11:47:36.000Z</Time>
            <Position>
              <LatitudeDegrees>43.2371534965932369232177734375</LatitudeDegrees>
              <LongitudeDegrees>-5.77723807655274868011474609375</LongitudeDegrees>
            </Position>
            <AltitudeMeters>198.399993896484375</AltitudeMeters>
            <DistanceMeters>47275.065070321</DistanceMeters>
          </Trackpoint>
          <Trackpoint>
            <Time>2019-10-04T11:47:37.000Z</Time>
            <Position>
              <LatitudeDegrees>43.2371534965932369232177734375</LatitudeDegrees>
              <LongitudeDegrees>-5.77723807655274868011474609375</LongitudeDegrees>
            </Position>
            <AltitudeMeters>198.1999969482421875</AltitudeMeters>
            <DistanceMeters>47275.065070321</DistanceMeters>
          </Trackpoint>
          <Trackpoint>
            <Time>2019-10-04T11:47:40.000Z</Time>
            <Position>
              <LatitudeDegrees>43.2371534965932369232177734375</LatitudeDegrees>
              <LongitudeDegrees>-5.77723807655274868011474609375</LongitudeDegrees>
            </Position>
            <AltitudeMeters>197.600006103515625</AltitudeMeters>
            <DistanceMeters>47275.065070321</DistanceMeters>
          </Trackpoint>
          <Trackpoint>
            <Time>2019-10-04T11:47:45.000Z</Time>
            <Position>
              <LatitudeDegrees>43.2371534965932369232177734375</LatitudeDegrees>
              <LongitudeDegrees>-5.77723807655274868011474609375</LongitudeDegrees>
            </Position>
            <AltitudeMeters>197.600006103515625</AltitudeMeters>
            <DistanceMeters>47275.065070321</DistanceMeters>
          </Trackpoint>
          <Trackpoint>
            <Time>2019-10-04T11:47:50.000Z</Time>
            <Position>
              <LatitudeDegrees>43.2371570169925689697265625</LatitudeDegrees>
              <LongitudeDegrees>-5.7772381603717803955078125</LongitudeDegrees>
            </Position>
            <AltitudeMeters>197</AltitudeMeters>
            <DistanceMeters>47275.456875501</DistanceMeters>
          </Trackpoint>
          <Trackpoint>
            <Time>2019-10-04T11:47:52.000Z</Time>
            <Position>
              <LatitudeDegrees>43.2371570169925689697265625</LatitudeDegrees>
              <LongitudeDegrees>-5.7772381603717803955078125</LongitudeDegrees>
            </Position>
            <AltitudeMeters>196.600006103515625</AltitudeMeters>
            <DistanceMeters>47275.456875501</DistanceMeters>
          </Trackpoint>
          <Trackpoint>
            <Time>2019-10-04T11:47:53.000Z</Time>
            <Position>
              <LatitudeDegrees>43.2371570169925689697265625</LatitudeDegrees>
              <LongitudeDegrees>-5.7772381603717803955078125</LongitudeDegrees>
            </Position>
            <AltitudeMeters>196.600006103515625</AltitudeMeters>
            <DistanceMeters>47275.456875501</DistanceMeters>
          </Trackpoint>
          <Trackpoint>
            <Time>2019-10-04T11:48:03.000Z</Time>
            <Position>
              <LatitudeDegrees>43.2371570169925689697265625</LatitudeDegrees>
              <LongitudeDegrees>-5.7772381603717803955078125</LongitudeDegrees>
            </Position>
            <AltitudeMeters>195.8000030517578125</AltitudeMeters>
            <DistanceMeters>47275.456875501</DistanceMeters>
          </Trackpoint>
          <Trackpoint>
            <Time>2019-10-04T11:48:06.000Z</Time>
            <Position>
              <LatitudeDegrees>43.2371570169925689697265625</LatitudeDegrees>
              <LongitudeDegrees>-5.7772381603717803955078125</LongitudeDegrees>
            </Position>
            <AltitudeMeters>195.399993896484375</AltitudeMeters>
            <DistanceMeters>47275.456875501</DistanceMeters>
          </Trackpoint>
          <Trackpoint>
            <Time>2019-10-04T11:48:10.000Z</Time>
            <Position>
              <LatitudeDegrees>43.2371570169925689697265625</LatitudeDegrees>
              <LongitudeDegrees>-5.7772381603717803955078125</LongitudeDegrees>
            </Position>
            <AltitudeMeters>194.8000030517578125</AltitudeMeters>
            <DistanceMeters>47275.456875501</DistanceMeters>
          </Trackpoint>
          <Trackpoint>
            <Time>2019-10-04T11:48:12.000Z</Time>
            <Position>
              <LatitudeDegrees>43.2371570169925689697265625</LatitudeDegrees>
              <LongitudeDegrees>-5.7772381603717803955078125</LongitudeDegrees>
            </Position>
            <AltitudeMeters>194.399993896484375</AltitudeMeters>
            <DistanceMeters>47275.456875501</DistanceMeters>
          </Trackpoint>
          <Trackpoint>
            <Time>2019-10-04T11:48:16.000Z</Time>
            <Position>
              <LatitudeDegrees>43.2371570169925689697265625</LatitudeDegrees>
              <LongitudeDegrees>-5.7772381603717803955078125</LongitudeDegrees>
            </Position>
            <AltitudeMeters>194.600006103515625</AltitudeMeters>
            <DistanceMeters>47275.456875501</DistanceMeters>
          </Trackpoint>
          <Trackpoint>
            <Time>2019-10-04T11:48:20.000Z</Time>
            <Position>
              <LatitudeDegrees>43.2371570169925689697265625</LatitudeDegrees>
              <LongitudeDegrees>-5.7772381603717803955078125</LongitudeDegrees>
            </Position>
            <AltitudeMeters>194</AltitudeMeters>
            <DistanceMeters>47275.456875501</DistanceMeters>
          </Trackpoint>
          <Trackpoint>
            <Time>2019-10-04T11:48:25.000Z</Time>
            <Position>
              <LatitudeDegrees>43.2371570169925689697265625</LatitudeDegrees>
              <LongitudeDegrees>-5.7772381603717803955078125</LongitudeDegrees>
            </Position>
            <AltitudeMeters>193.399993896484375</AltitudeMeters>
            <DistanceMeters>47275.456875501</DistanceMeters>
          </Trackpoint>
          <Trackpoint>
            <Time>2019-10-04T11:48:29.000Z</Time>
            <Position>
              <LatitudeDegrees>43.23716330341994762420654296875</LatitudeDegrees>
              <LongitudeDegrees>-5.7772497273981571197509765625</LongitudeDegrees>
            </Position>
            <AltitudeMeters>193.1999969482421875</AltitudeMeters>
            <DistanceMeters>47276.628443519</DistanceMeters>
          </Trackpoint>
          <Trackpoint>
            <Time>2019-10-04T11:48:33.000Z</Time>
            <Position>
              <LatitudeDegrees>43.23716330341994762420654296875</LatitudeDegrees>
              <LongitudeDegrees>-5.7772497273981571197509765625</LongitudeDegrees>
            </Position>
            <AltitudeMeters>192.600006103515625</AltitudeMeters>
            <DistanceMeters>47276.628443519</DistanceMeters>
          </Trackpoint>
          <Trackpoint>
            <Time>2019-10-04T11:48:34.000Z</Time>
            <Position>
              <LatitudeDegrees>43.23716330341994762420654296875</LatitudeDegrees>
              <LongitudeDegrees>-5.7772497273981571197509765625</LongitudeDegrees>
            </Position>
            <AltitudeMeters>192.1999969482421875</AltitudeMeters>
            <DistanceMeters>47276.628443519</DistanceMeters>
          </Trackpoint>
          <Trackpoint>
            <Time>2019-10-04T11:48:37.000Z</Time>
            <Position>
              <LatitudeDegrees>43.23716330341994762420654296875</LatitudeDegrees>
              <LongitudeDegrees>-5.7772497273981571197509765625</LongitudeDegrees>
            </Position>
            <AltitudeMeters>192.399993896484375</AltitudeMeters>
            <DistanceMeters>47276.628443519</DistanceMeters>
          </Trackpoint>
          <Trackpoint>
            <Time>2019-10-04T11:48:39.000Z</Time>
            <Position>
              <LatitudeDegrees>43.23716330341994762420654296875</LatitudeDegrees>
              <LongitudeDegrees>-5.7772497273981571197509765625</LongitudeDegrees>
            </Position>
            <AltitudeMeters>192.1999969482421875</AltitudeMeters>
            <DistanceMeters>47276.628443519</DistanceMeters>
          </Trackpoint>
          <Trackpoint>
            <Time>2019-10-04T11:48:43.000Z</Time>
            <Position>
              <LatitudeDegrees>43.23716330341994762420654296875</LatitudeDegrees>
              <LongitudeDegrees>-5.7772497273981571197509765625</LongitudeDegrees>
            </Position>
            <AltitudeMeters>191.399993896484375</AltitudeMeters>
            <DistanceMeters>47276.628443519</DistanceMeters>
          </Trackpoint>
          <Trackpoint>
            <Time>2019-10-04T11:48:44.000Z</Time>
            <Position>
              <LatitudeDegrees>43.23716330341994762420654296875</LatitudeDegrees>
              <LongitudeDegrees>-5.7772497273981571197509765625</LongitudeDegrees>
            </Position>
            <AltitudeMeters>191.1999969482421875</AltitudeMeters>
            <DistanceMeters>47276.628443519</DistanceMeters>
          </Trackpoint>
          <Trackpoint>
            <Time>2019-10-04T11:48:51.000Z</Time>
            <Position>
              <LatitudeDegrees>43.23716330341994762420654296875</LatitudeDegrees>
              <LongitudeDegrees>-5.7772497273981571197509765625</LongitudeDegrees>
            </Position>
            <AltitudeMeters>190.600006103515625</AltitudeMeters>
            <DistanceMeters>47276.628443519</DistanceMeters>
          </Trackpoint>
          <Trackpoint>
            <Time>2019-10-04T11:48:53.000Z</Time>
            <Position>
              <LatitudeDegrees>43.23716330341994762420654296875</LatitudeDegrees>
              <LongitudeDegrees>-5.7772497273981571197509765625</LongitudeDegrees>
            </Position>
            <AltitudeMeters>190.600006103515625</AltitudeMeters>
            <DistanceMeters>47276.628443519</DistanceMeters>
          </Trackpoint>
          <Trackpoint>
            <Time>2019-10-04T11:48:56.000Z</Time>
            <Position>
              <LatitudeDegrees>43.23716330341994762420654296875</LatitudeDegrees>
              <LongitudeDegrees>-5.7772497273981571197509765625</LongitudeDegrees>
            </Position>
            <AltitudeMeters>190</AltitudeMeters>
            <DistanceMeters>47276.628443519</DistanceMeters>
          </Trackpoint>
          <Trackpoint>
            <Time>2019-10-04T11:49:02.000Z</Time>
            <Position>
              <LatitudeDegrees>43.23716330341994762420654296875</LatitudeDegrees>
              <LongitudeDegrees>-5.7772497273981571197509765625</LongitudeDegrees>
            </Position>
            <AltitudeMeters>189.600006103515625</AltitudeMeters>
            <DistanceMeters>47276.628443519</DistanceMeters>
          </Trackpoint>
          <Trackpoint>
            <Time>2019-10-04T11:49:06.000Z</Time>
            <Position>
              <LatitudeDegrees>43.23716330341994762420654296875</LatitudeDegrees>
              <LongitudeDegrees>-5.7772497273981571197509765625</LongitudeDegrees>
            </Position>
            <AltitudeMeters>189</AltitudeMeters>
            <DistanceMeters>47276.628443519</DistanceMeters>
          </Trackpoint>
          <Trackpoint>
            <Time>2019-10-04T11:49:08.000Z</Time>
            <Position>
              <LatitudeDegrees>43.23716330341994762420654296875</LatitudeDegrees>
              <LongitudeDegrees>-5.7772497273981571197509765625</LongitudeDegrees>
            </Position>
            <AltitudeMeters>188.8000030517578125</AltitudeMeters>
            <DistanceMeters>47276.628443519</DistanceMeters>
          </Trackpoint>
          <Trackpoint>
            <Time>2019-10-04T11:49:19.000Z</Time>
            <Position>
              <LatitudeDegrees>43.23716439306735992431640625</LatitudeDegrees>
              <LongitudeDegrees>-5.777249224483966827392578125</LongitudeDegrees>
            </Position>
            <AltitudeMeters>187.8000030517578125</AltitudeMeters>
            <DistanceMeters>47276.628443519</DistanceMeters>
          </Trackpoint>
          <Trackpoint>
            <Time>2019-10-04T11:49:22.000Z</Time>
            <Position>
              <LatitudeDegrees>43.23716439306735992431640625</LatitudeDegrees>
              <LongitudeDegrees>-5.777249224483966827392578125</LongitudeDegrees>
            </Position>
            <AltitudeMeters>187.1999969482421875</AltitudeMeters>
            <DistanceMeters>47276.628443519</DistanceMeters>
          </Trackpoint>
          <Trackpoint>
            <Time>2019-10-04T11:49:24.000Z</Time>
            <Position>
              <LatitudeDegrees>43.23716439306735992431640625</LatitudeDegrees>
              <LongitudeDegrees>-5.777249224483966827392578125</LongitudeDegrees>
            </Position>
            <AltitudeMeters>187</AltitudeMeters>
            <DistanceMeters>47276.628443519</DistanceMeters>
          </Trackpoint>
          <Trackpoint>
            <Time>2019-10-04T11:49:26.000Z</Time>
            <Position>
              <LatitudeDegrees>43.23716439306735992431640625</LatitudeDegrees>
              <LongitudeDegrees>-5.777249224483966827392578125</LongitudeDegrees>
            </Position>
            <AltitudeMeters>186.8000030517578125</AltitudeMeters>
            <DistanceMeters>47276.628443519</DistanceMeters>
          </Trackpoint>
          <Trackpoint>
            <Time>2019-10-04T11:49:28.000Z</Time>
            <Position>
              <LatitudeDegrees>43.23716439306735992431640625</LatitudeDegrees>
              <LongitudeDegrees>-5.777249224483966827392578125</LongitudeDegrees>
            </Position>
            <AltitudeMeters>186.600006103515625</AltitudeMeters>
            <DistanceMeters>47276.628443519</DistanceMeters>
          </Trackpoint>
          <Trackpoint>
            <Time>2019-10-04T11:49:35.000Z</Time>
            <Position>
              <LatitudeDegrees>43.23716439306735992431640625</LatitudeDegrees>
              <LongitudeDegrees>-5.777249224483966827392578125</LongitudeDegrees>
            </Position>
            <AltitudeMeters>186.1999969482421875</AltitudeMeters>
            <DistanceMeters>47276.628443519</DistanceMeters>
          </Trackpoint>
          <Trackpoint>
            <Time>2019-10-04T11:49:37.000Z</Time>
            <Position>
              <LatitudeDegrees>43.23716439306735992431640625</LatitudeDegrees>
              <LongitudeDegrees>-5.777249224483966827392578125</LongitudeDegrees>
            </Position>
            <AltitudeMeters>186</AltitudeMeters>
            <DistanceMeters>47276.628443519</DistanceMeters>
          </Trackpoint>
          <Trackpoint>
            <Time>2019-10-04T11:49:40.000Z</Time>
            <Position>
              <LatitudeDegrees>43.23716439306735992431640625</LatitudeDegrees>
              <LongitudeDegrees>-5.777249224483966827392578125</LongitudeDegrees>
            </Position>
            <AltitudeMeters>185.600006103515625</AltitudeMeters>
            <DistanceMeters>47276.628443519</DistanceMeters>
          </Trackpoint>
          <Trackpoint>
            <Time>2019-10-04T11:49:48.000Z</Time>
            <Position>
              <LatitudeDegrees>43.23716439306735992431640625</LatitudeDegrees>
              <LongitudeDegrees>-5.777249224483966827392578125</LongitudeDegrees>
            </Position>
            <AltitudeMeters>185</AltitudeMeters>
            <DistanceMeters>47276.628443519</DistanceMeters>
          </Trackpoint>
          <Trackpoint>
            <Time>2019-10-04T11:49:53.000Z</Time>
            <Position>
              <LatitudeDegrees>43.23716648854315280914306640625</LatitudeDegrees>
              <LongitudeDegrees>-5.77724796719849109649658203125</LongitudeDegrees>
            </Position>
            <AltitudeMeters>184.600006103515625</AltitudeMeters>
            <DistanceMeters>47276.861210481</DistanceMeters>
          </Trackpoint>
          <Trackpoint>
            <Time>2019-10-04T11:49:56.000Z</Time>
            <Position>
              <LatitudeDegrees>43.23716648854315280914306640625</LatitudeDegrees>
              <LongitudeDegrees>-5.77724796719849109649658203125</LongitudeDegrees>
            </Position>
            <AltitudeMeters>184.399993896484375</AltitudeMeters>
            <DistanceMeters>NAN</DistanceMeters>
          </Trackpoint>
          <Trackpoint>
            <Time>2019-10-04T11:50:05.000Z</Time>
            <Position>
              <LatitudeDegrees>43.23716648854315280914306640625</LatitudeDegrees>
              <LongitudeDegrees>-5.77724796719849109649658203125</LongitudeDegrees>
            </Position>
            <AltitudeMeters>184.399993896484375</AltitudeMeters>
            <DistanceMeters>NAN</DistanceMeters>
          </Trackpoint>
          <Trackpoint>
            <Time>2019-10-04T11:50:06.000Z</Time>
            <Position>
              <LatitudeDegrees>43.23716648854315280914306640625</LatitudeDegrees>
              <LongitudeDegrees>-5.77724796719849109649658203125</LongitudeDegrees>
            </Position>
            <AltitudeMeters>184.1999969482421875</AltitudeMeters>
            <DistanceMeters>NAN</DistanceMeters>
          </Trackpoint>
          <Trackpoint>
            <Time>2019-10-04T11:50:08.000Z</Time>
            <Position>
              <LatitudeDegrees>43.23716648854315280914306640625</LatitudeDegrees>
              <LongitudeDegrees>-5.77724796719849109649658203125</LongitudeDegrees>
            </Position>
            <AltitudeMeters>184</AltitudeMeters>
            <DistanceMeters>NAN</DistanceMeters>
          </Trackpoint>
          <Trackpoint>
            <Time>2019-10-04T11:50:12.000Z</Time>
            <Position>
              <LatitudeDegrees>43.23716648854315280914306640625</LatitudeDegrees>
              <LongitudeDegrees>-5.77724796719849109649658203125</LongitudeDegrees>
            </Position>
            <AltitudeMeters>183.8000030517578125</AltitudeMeters>
            <DistanceMeters>NAN</DistanceMeters>
          </Trackpoint>
          <Trackpoint>
            <Time>2019-10-04T11:50:13.000Z</Time>
            <Position>
              <LatitudeDegrees>43.23716648854315280914306640625</LatitudeDegrees>
              <LongitudeDegrees>-5.77724796719849109649658203125</LongitudeDegrees>
            </Position>
            <AltitudeMeters>183.399993896484375</AltitudeMeters>
            <DistanceMeters>NAN</DistanceMeters>
          </Trackpoint>
          <Trackpoint>
            <Time>2019-10-04T11:50:25.000Z</Time>
            <Position>
              <LatitudeDegrees>43.23716648854315280914306640625</LatitudeDegrees>
              <LongitudeDegrees>-5.77724796719849109649658203125</LongitudeDegrees>
            </Position>
            <AltitudeMeters>183</AltitudeMeters>
            <DistanceMeters>NAN</DistanceMeters>
          </Trackpoint>
          <Trackpoint>
            <Time>2019-10-04T11:50:27.000Z</Time>
            <Position>
              <LatitudeDegrees>43.23716648854315280914306640625</LatitudeDegrees>
              <LongitudeDegrees>-5.77724796719849109649658203125</LongitudeDegrees>
            </Position>
            <AltitudeMeters>183.1999969482421875</AltitudeMeters>
            <DistanceMeters>NAN</DistanceMeters>
          </Trackpoint>
          <Trackpoint>
            <Time>2019-10-04T11:50:32.000Z</Time>
            <Position>
              <LatitudeDegrees>43.237168081104755401611328125</LatitudeDegrees>
              <LongitudeDegrees>-5.77724562026560306549072265625</LongitudeDegrees>
            </Position>
            <AltitudeMeters>182.399993896484375</AltitudeMeters>
            <DistanceMeters>NAN</DistanceMeters>
          </Trackpoint>
          <Trackpoint>
            <Time>2019-10-04T11:50:40.000Z</Time>
            <Position>
              <LatitudeDegrees>43.237168081104755401611328125</LatitudeDegrees>
              <LongitudeDegrees>-5.77724562026560306549072265625</LongitudeDegrees>
            </Position>
            <AltitudeMeters>182</AltitudeMeters>
            <DistanceMeters>NAN</DistanceMeters>
          </Trackpoint>
          <Trackpoint>
            <Time>2019-10-04T11:50:42.000Z</Time>
            <Position>
              <LatitudeDegrees>43.237168081104755401611328125</LatitudeDegrees>
              <LongitudeDegrees>-5.77724562026560306549072265625</LongitudeDegrees>
            </Position>
            <AltitudeMeters>181.8000030517578125</AltitudeMeters>
            <DistanceMeters>NAN</DistanceMeters>
          </Trackpoint>
          <Trackpoint>
            <Time>2019-10-04T11:50:49.000Z</Time>
            <Position>
              <LatitudeDegrees>43.237168081104755401611328125</LatitudeDegrees>
              <LongitudeDegrees>-5.77724562026560306549072265625</LongitudeDegrees>
            </Position>
            <AltitudeMeters>181.399993896484375</AltitudeMeters>
            <DistanceMeters>NAN</DistanceMeters>
          </Trackpoint>
          <Trackpoint>
            <Time>2019-10-04T11:50:58.000Z</Time>
            <Position>
              <LatitudeDegrees>43.237168081104755401611328125</LatitudeDegrees>
              <LongitudeDegrees>-5.77724562026560306549072265625</LongitudeDegrees>
            </Position>
            <AltitudeMeters>180.8000030517578125</AltitudeMeters>
            <DistanceMeters>NAN</DistanceMeters>
          </Trackpoint>
          <Trackpoint>
            <Time>2019-10-04T11:51:03.000Z</Time>
            <Position>
              <LatitudeDegrees>43.237168081104755401611328125</LatitudeDegrees>
              <LongitudeDegrees>-5.77724562026560306549072265625</LongitudeDegrees>
            </Position>
            <AltitudeMeters>180.1999969482421875</AltitudeMeters>
            <DistanceMeters>NAN</DistanceMeters>
          </Trackpoint>
          <Trackpoint>
            <Time>2019-10-04T11:51:05.000Z</Time>
            <Position>
              <LatitudeDegrees>43.237168081104755401611328125</LatitudeDegrees>
              <LongitudeDegrees>-5.77724562026560306549072265625</LongitudeDegrees>
            </Position>
            <AltitudeMeters>180.1999969482421875</AltitudeMeters>
            <DistanceMeters>NAN</DistanceMeters>
          </Trackpoint>
          <Trackpoint>
            <Time>2019-10-04T11:51:12.000Z</Time>
            <Position>
              <LatitudeDegrees>43.23716514743864536285400390625</LatitudeDegrees>
              <LongitudeDegrees>-5.7772500626742839813232421875</LongitudeDegrees>
            </Position>
            <AltitudeMeters>179.600006103515625</AltitudeMeters>
            <DistanceMeters>NAN</DistanceMeters>
          </Trackpoint>
          <Trackpoint>
            <Time>2019-10-04T11:51:14.000Z</Time>
            <Position>
              <LatitudeDegrees>43.23716514743864536285400390625</LatitudeDegrees>
              <LongitudeDegrees>-5.7772500626742839813232421875</LongitudeDegrees>
            </Position>
            <AltitudeMeters>179.399993896484375</AltitudeMeters>
            <DistanceMeters>NAN</DistanceMeters>
          </Trackpoint>
          <Trackpoint>
            <Time>2019-10-04T11:51:15.000Z</Time>
            <Position>
              <LatitudeDegrees>43.23716514743864536285400390625</LatitudeDegrees>
              <LongitudeDegrees>-5.7772500626742839813232421875</LongitudeDegrees>
            </Position>
            <AltitudeMeters>179.1999969482421875</AltitudeMeters>
            <DistanceMeters>NAN</DistanceMeters>
          </Trackpoint>
          <Trackpoint>
            <Time>2019-10-04T11:51:22.000Z</Time>
            <Position>
              <LatitudeDegrees>43.23716514743864536285400390625</LatitudeDegrees>
              <LongitudeDegrees>-5.7772500626742839813232421875</LongitudeDegrees>
            </Position>
            <AltitudeMeters>179</AltitudeMeters>
            <DistanceMeters>NAN</DistanceMeters>
          </Trackpoint>
          <Trackpoint>
            <Time>2019-10-04T11:51:24.000Z</Time>
            <Position>
              <LatitudeDegrees>43.23716514743864536285400390625</LatitudeDegrees>
              <LongitudeDegrees>-5.7772500626742839813232421875</LongitudeDegrees>
            </Position>
            <AltitudeMeters>178.600006103515625</AltitudeMeters>
            <DistanceMeters>NAN</DistanceMeters>
          </Trackpoint>
          <Trackpoint>
            <Time>2019-10-04T11:51:27.000Z</Time>
            <Position>
              <LatitudeDegrees>43.23716514743864536285400390625</LatitudeDegrees>
              <LongitudeDegrees>-5.7772500626742839813232421875</LongitudeDegrees>
            </Position>
            <AltitudeMeters>178.600006103515625</AltitudeMeters>
            <DistanceMeters>NAN</DistanceMeters>
          </Trackpoint>
          <Trackpoint>
            <Time>2019-10-04T11:51:28.000Z</Time>
            <Position>
              <LatitudeDegrees>43.23716514743864536285400390625</LatitudeDegrees>
              <LongitudeDegrees>-5.7772500626742839813232421875</LongitudeDegrees>
            </Position>
            <AltitudeMeters>178.600006103515625</AltitudeMeters>
            <DistanceMeters>NAN</DistanceMeters>
          </Trackpoint>
          <Trackpoint>
            <Time>2019-10-04T11:51:32.000Z</Time>
            <Position>
              <LatitudeDegrees>43.23716514743864536285400390625</LatitudeDegrees>
              <LongitudeDegrees>-5.7772500626742839813232421875</LongitudeDegrees>
            </Position>
            <AltitudeMeters>178.1999969482421875</AltitudeMeters>
            <DistanceMeters>NAN</DistanceMeters>
          </Trackpoint>
          <Trackpoint>
            <Time>2019-10-04T11:51:35.000Z</Time>
            <Position>
              <LatitudeDegrees>43.23716514743864536285400390625</LatitudeDegrees>
              <LongitudeDegrees>-5.7772500626742839813232421875</LongitudeDegrees>
            </Position>
            <AltitudeMeters>178.600006103515625</AltitudeMeters>
            <DistanceMeters>NAN</DistanceMeters>
          </Trackpoint>
          <Trackpoint>
            <Time>2019-10-04T11:51:37.000Z</Time>
            <Position>
              <LatitudeDegrees>43.23716514743864536285400390625</LatitudeDegrees>
              <LongitudeDegrees>-5.7772500626742839813232421875</LongitudeDegrees>
            </Position>
            <AltitudeMeters>178.399993896484375</AltitudeMeters>
            <DistanceMeters>NAN</DistanceMeters>
          </Trackpoint>
          <Trackpoint>
            <Time>2019-10-04T11:51:42.000Z</Time>
            <Position>
              <LatitudeDegrees>43.23716514743864536285400390625</LatitudeDegrees>
              <LongitudeDegrees>-5.7772500626742839813232421875</LongitudeDegrees>
            </Position>
            <AltitudeMeters>177.8000030517578125</AltitudeMeters>
            <DistanceMeters>NAN</DistanceMeters>
          </Trackpoint>
          <Trackpoint>
            <Time>2019-10-04T11:51:49.000Z</Time>
            <Position>
              <LatitudeDegrees>43.23716514743864536285400390625</LatitudeDegrees>
              <LongitudeDegrees>-5.7772500626742839813232421875</LongitudeDegrees>
            </Position>
            <AltitudeMeters>177.600006103515625</AltitudeMeters>
            <DistanceMeters>NAN</DistanceMeters>
          </Trackpoint>
          <Trackpoint>
            <Time>2019-10-04T11:51:51.000Z</Time>
            <Position>
              <LatitudeDegrees>43.23716749437153339385986328125</LatitudeDegrees>
              <LongitudeDegrees>-5.777252577245235443115234375</LongitudeDegrees>
            </Position>
            <AltitudeMeters>177.600006103515625</AltitudeMeters>
            <DistanceMeters>NAN</DistanceMeters>
          </Trackpoint>
          <Trackpoint>
            <Time>2019-10-04T11:51:53.000Z</Time>
            <Position>
              <LatitudeDegrees>43.23716749437153339385986328125</LatitudeDegrees>
              <LongitudeDegrees>-5.777252577245235443115234375</LongitudeDegrees>
            </Position>
            <AltitudeMeters>177.399993896484375</AltitudeMeters>
            <DistanceMeters>NAN</DistanceMeters>
          </Trackpoint>
          <Trackpoint>
            <Time>2019-10-04T11:51:56.000Z</Time>
            <Position>
              <LatitudeDegrees>43.23716749437153339385986328125</LatitudeDegrees>
              <LongitudeDegrees>-5.777252577245235443115234375</LongitudeDegrees>
            </Position>
            <AltitudeMeters>177.1999969482421875</AltitudeMeters>
            <DistanceMeters>NAN</DistanceMeters>
          </Trackpoint>
          <Trackpoint>
            <Time>2019-10-04T11:51:58.000Z</Time>
            <Position>
              <LatitudeDegrees>43.23716749437153339385986328125</LatitudeDegrees>
              <LongitudeDegrees>-5.777252577245235443115234375</LongitudeDegrees>
            </Position>
            <AltitudeMeters>177.1999969482421875</AltitudeMeters>
            <DistanceMeters>NAN</DistanceMeters>
          </Trackpoint>
          <Trackpoint>
            <Time>2019-10-04T11:52:01.000Z</Time>
            <Position>
              <LatitudeDegrees>43.23716749437153339385986328125</LatitudeDegrees>
              <LongitudeDegrees>-5.777252577245235443115234375</LongitudeDegrees>
            </Position>
            <AltitudeMeters>176.8000030517578125</AltitudeMeters>
            <DistanceMeters>NAN</DistanceMeters>
          </Trackpoint>
          <Trackpoint>
            <Time>2019-10-04T11:52:06.000Z</Time>
            <Position>
              <LatitudeDegrees>43.23716749437153339385986328125</LatitudeDegrees>
              <LongitudeDegrees>-5.777252577245235443115234375</LongitudeDegrees>
            </Position>
            <AltitudeMeters>176.600006103515625</AltitudeMeters>
            <DistanceMeters>NAN</DistanceMeters>
          </Trackpoint>
          <Trackpoint>
            <Time>2019-10-04T11:52:09.000Z</Time>
            <Position>
              <LatitudeDegrees>43.23716749437153339385986328125</LatitudeDegrees>
              <LongitudeDegrees>-5.777252577245235443115234375</LongitudeDegrees>
            </Position>
            <AltitudeMeters>176.399993896484375</AltitudeMeters>
            <DistanceMeters>NAN</DistanceMeters>
          </Trackpoint>
          <Trackpoint>
            <Time>2019-10-04T11:52:12.000Z</Time>
            <Position>
              <LatitudeDegrees>43.23716045357286930084228515625</LatitudeDegrees>
              <LongitudeDegrees>-5.77725266106426715850830078125</LongitudeDegrees>
            </Position>
            <AltitudeMeters>176.1999969482421875</AltitudeMeters>
            <DistanceMeters>NAN</DistanceMeters>
          </Trackpoint>
          <Trackpoint>
            <Time>2019-10-04T11:52:14.000Z</Time>
            <Position>
              <LatitudeDegrees>43.23716062121093273162841796875</LatitudeDegrees>
              <LongitudeDegrees>-5.7772534154355525970458984375</LongitudeDegrees>
            </Position>
            <AltitudeMeters>176.1999969482421875</AltitudeMeters>
            <DistanceMeters>NAN</DistanceMeters>
          </Trackpoint>
          <Trackpoint>
            <Time>2019-10-04T11:52:16.000Z</Time>
            <Position>
              <LatitudeDegrees>43.23716347105801105499267578125</LatitudeDegrees>
              <LongitudeDegrees>-5.77725064940750598907470703125</LongitudeDegrees>
            </Position>
            <AltitudeMeters>175.8000030517578125</AltitudeMeters>
            <DistanceMeters>NAN</DistanceMeters>
          </Trackpoint>
          <Trackpoint>
            <Time>2019-10-04T11:52:24.000Z</Time>
            <Position>
              <LatitudeDegrees>43.23716749437153339385986328125</LatitudeDegrees>
              <LongitudeDegrees>-5.777252577245235443115234375</LongitudeDegrees>
            </Position>
            <AltitudeMeters>175.600006103515625</AltitudeMeters>
            <DistanceMeters>NAN</DistanceMeters>
          </Trackpoint>
          <Trackpoint>
            <Time>2019-10-04T11:52:25.000Z</Time>
            <Position>
              <LatitudeDegrees>43.23716749437153339385986328125</LatitudeDegrees>
              <LongitudeDegrees>-5.777252577245235443115234375</LongitudeDegrees>
            </Position>
            <AltitudeMeters>175.8000030517578125</AltitudeMeters>
            <DistanceMeters>NAN</DistanceMeters>
          </Trackpoint>
          <Trackpoint>
            <Time>2019-10-04T11:52:33.000Z</Time>
            <Position>
              <LatitudeDegrees>43.23715358041226863861083984375</LatitudeDegrees>
              <LongitudeDegrees>-5.77721427194774150848388671875</LongitudeDegrees>
            </Position>
            <AltitudeMeters>175.399993896484375</AltitudeMeters>
            <DistanceMeters>NAN</DistanceMeters>
          </Trackpoint>
          <Trackpoint>
            <Time>2019-10-04T11:52:34.000Z</Time>
            <Position>
              <LatitudeDegrees>43.2371206395328044891357421875</LatitudeDegrees>
              <LongitudeDegrees>-5.777161382138729095458984375</LongitudeDegrees>
            </Position>
            <AltitudeMeters>175</AltitudeMeters>
            <DistanceMeters>NAN</DistanceMeters>
          </Trackpoint>
          <Trackpoint>
            <Time>2019-10-04T11:52:36.000Z</Time>
            <Position>
              <LatitudeDegrees>43.23713882826268672943115234375</LatitudeDegrees>
              <LongitudeDegrees>-5.77709323726594448089599609375</LongitudeDegrees>
            </Position>
            <AltitudeMeters>175</AltitudeMeters>
            <DistanceMeters>NAN</DistanceMeters>
          </Trackpoint>
          <Trackpoint>
            <Time>2019-10-04T11:52:37.000Z</Time>
            <Position>
              <LatitudeDegrees>43.2371665723621845245361328125</LatitudeDegrees>
              <LongitudeDegrees>-5.777089633047580718994140625</LongitudeDegrees>
            </Position>
            <AltitudeMeters>175.1999969482421875</AltitudeMeters>
            <DistanceMeters>NAN</DistanceMeters>
          </Trackpoint>
          <Trackpoint>
            <Time>2019-10-04T11:52:43.000Z</Time>
            <Position>
              <LatitudeDegrees>43.23735457845032215118408203125</LatitudeDegrees>
              <LongitudeDegrees>-5.77702316455543041229248046875</LongitudeDegrees>
            </Position>
            <AltitudeMeters>175</AltitudeMeters>
            <DistanceMeters>NAN</DistanceMeters>
          </Trackpoint>
          <Trackpoint>
            <Time>2019-10-04T11:52:47.000Z</Time>
            <Position>
              <LatitudeDegrees>43.23750696144998073577880859375</LatitudeDegrees>
              <LongitudeDegrees>-5.7769597135484218597412109375</LongitudeDegrees>
            </Position>
            <AltitudeMeters>175</AltitudeMeters>
            <DistanceMeters>NAN</DistanceMeters>
          </Trackpoint>
          <Trackpoint>
            <Time>2019-10-04T11:52:49.000Z</Time>
            <Position>
              <LatitudeDegrees>43.23758818209171295166015625</LatitudeDegrees>
              <LongitudeDegrees>-5.77692090533673763275146484375</LongitudeDegrees>
            </Position>
            <AltitudeMeters>175.399993896484375</AltitudeMeters>
            <DistanceMeters>NAN</DistanceMeters>
          </Trackpoint>
          <Trackpoint>
            <Time>2019-10-04T11:52:55.000Z</Time>
            <Position>
              <LatitudeDegrees>43.23782212100923061370849609375</LatitudeDegrees>
              <LongitudeDegrees>-5.77678243629634380340576171875</LongitudeDegrees>
            </Position>
            <AltitudeMeters>175.600006103515625</AltitudeMeters>
            <DistanceMeters>NAN</DistanceMeters>
          </Trackpoint>
          <Trackpoint>
            <Time>2019-10-04T11:52:57.000Z</Time>
            <Position>
              <LatitudeDegrees>43.2378988154232501983642578125</LatitudeDegrees>
              <LongitudeDegrees>-5.77674086205661296844482421875</LongitudeDegrees>
            </Position>
            <AltitudeMeters>176</AltitudeMeters>
            <DistanceMeters>NAN</DistanceMeters>
          </Trackpoint>
          <Trackpoint>
            <Time>2019-10-04T11:53:00.000Z</Time>
            <Position>
              <LatitudeDegrees>43.23801171965897083282470703125</LatitudeDegrees>
              <LongitudeDegrees>-5.77669979073107242584228515625</LongitudeDegrees>
            </Position>
            <AltitudeMeters>176.1999969482421875</AltitudeMeters>
            <DistanceMeters>NAN</DistanceMeters>
          </Trackpoint>
          <Trackpoint>
            <Time>2019-10-04T11:53:02.000Z</Time>
            <Position>
              <LatitudeDegrees>43.238091431558132171630859375</LatitudeDegrees>
              <LongitudeDegrees>-5.77666508965194225311279296875</LongitudeDegrees>
            </Position>
            <AltitudeMeters>176.600006103515625</AltitudeMeters>
            <DistanceMeters>NAN</DistanceMeters>
          </Trackpoint>
          <Trackpoint>
            <Time>2019-10-04T11:53:03.000Z</Time>
            <Position>
              <LatitudeDegrees>43.2381335087120532989501953125</LatitudeDegrees>
              <LongitudeDegrees>-5.7766452245414257049560546875</LongitudeDegrees>
            </Position>
            <AltitudeMeters>176.600006103515625</AltitudeMeters>
            <DistanceMeters>NAN</DistanceMeters>
          </Trackpoint>
          <Trackpoint>
            <Time>2019-10-04T11:53:05.000Z</Time>
            <Position>
              <LatitudeDegrees>43.23822109960019588470458984375</LatitudeDegrees>
              <LongitudeDegrees>-5.77664396725594997406005859375</LongitudeDegrees>
            </Position>
            <AltitudeMeters>176.399993896484375</AltitudeMeters>
            <DistanceMeters>NAN</DistanceMeters>
          </Trackpoint>
          <Trackpoint>
            <Time>2019-10-04T11:53:07.000Z</Time>
            <Position>
              <LatitudeDegrees>43.238297291100025177001953125</LatitudeDegrees>
              <LongitudeDegrees>-5.77671605162322521209716796875</LongitudeDegrees>
            </Position>
            <AltitudeMeters>176.1999969482421875</AltitudeMeters>
            <DistanceMeters>NAN</DistanceMeters>
          </Trackpoint>
          <Trackpoint>
            <Time>2019-10-04T11:53:10.000Z</Time>
            <Position>
              <LatitudeDegrees>43.23833442293107509613037109375</LatitudeDegrees>
              <LongitudeDegrees>-5.776881091296672821044921875</LongitudeDegrees>
            </Position>
            <AltitudeMeters>175.600006103515625</AltitudeMeters>
            <DistanceMeters>NAN</DistanceMeters>
          </Trackpoint>
          <Trackpoint>
            <Time>2019-10-04T11:53:13.000Z</Time>
            <Position>
              <LatitudeDegrees>43.23833257891237735748291015625</LatitudeDegrees>
              <LongitudeDegrees>-5.7770557701587677001953125</LongitudeDegrees>
            </Position>
            <AltitudeMeters>174.8000030517578125</AltitudeMeters>
            <DistanceMeters>NAN</DistanceMeters>
          </Trackpoint>
          <Trackpoint>
            <Time>2019-10-04T11:53:15.000Z</Time>
            <Position>
              <LatitudeDegrees>43.23832671158015727996826171875</LatitudeDegrees>
              <LongitudeDegrees>-5.77716641128063201904296875</LongitudeDegrees>
            </Position>
            <AltitudeMeters>174.600006103515625</AltitudeMeters>
            <DistanceMeters>NAN</DistanceMeters>
          </Trackpoint>
          <Trackpoint>
            <Time>2019-10-04T11:53:17.000Z</Time>
            <Position>
              <LatitudeDegrees>43.2383407093584537506103515625</LatitudeDegrees>
              <LongitudeDegrees>-5.77729054726660251617431640625</LongitudeDegrees>
            </Position>
            <AltitudeMeters>174.600006103515625</AltitudeMeters>
            <DistanceMeters>NAN</DistanceMeters>
          </Trackpoint>
          <Trackpoint>
            <Time>2019-10-04T11:53:19.000Z</Time>
            <Position>
              <LatitudeDegrees>43.23836929164826869964599609375</LatitudeDegrees>
              <LongitudeDegrees>-5.7773590274155139923095703125</LongitudeDegrees>
            </Position>
            <AltitudeMeters>174.1999969482421875</AltitudeMeters>
            <DistanceMeters>NAN</DistanceMeters>
          </Trackpoint>
          <Trackpoint>
            <Time>2019-10-04T11:53:22.000Z</Time>
            <Position>
              <LatitudeDegrees>43.23843550868332386016845703125</LatitudeDegrees>
              <LongitudeDegrees>-5.7775263302028179168701171875</LongitudeDegrees>
            </Position>
            <AltitudeMeters>174.1999969482421875</AltitudeMeters>
            <DistanceMeters>NAN</DistanceMeters>
          </Trackpoint>
          <Trackpoint>
            <Time>2019-10-04T11:53:24.000Z</Time>
            <Position>
              <LatitudeDegrees>43.238438107073307037353515625</LatitudeDegrees>
              <LongitudeDegrees>-5.77766404487192630767822265625</LongitudeDegrees>
            </Position>
            <AltitudeMeters>174.399993896484375</AltitudeMeters>
            <DistanceMeters>NAN</DistanceMeters>
          </Trackpoint>
          <Trackpoint>
            <Time>2019-10-04T11:53:27.000Z</Time>
            <Position>
              <LatitudeDegrees>43.2383554615080356597900390625</LatitudeDegrees>
              <LongitudeDegrees>-5.7778381370007991790771484375</LongitudeDegrees>
            </Position>
            <AltitudeMeters>174.600006103515625</AltitudeMeters>
            <DistanceMeters>NAN</DistanceMeters>
          </Trackpoint>
          <Trackpoint>
            <Time>2019-10-04T11:53:29.000Z</Time>
            <Position>
              <LatitudeDegrees>43.23827683925628662109375</LatitudeDegrees>
              <LongitudeDegrees>-5.77791902236640453338623046875</LongitudeDegrees>
            </Position>
            <AltitudeMeters>174.8000030517578125</AltitudeMeters>
            <DistanceMeters>NAN</DistanceMeters>
          </Trackpoint>
          <Trackpoint>
            <Time>2019-10-04T11:53:31.000Z</Time>
            <Position>
              <LatitudeDegrees>43.23821456171572208404541015625</LatitudeDegrees>
              <LongitudeDegrees>-5.7780213654041290283203125</LongitudeDegrees>
            </Position>
            <AltitudeMeters>174.8000030517578125</AltitudeMeters>
            <DistanceMeters>NAN</DistanceMeters>
          </Trackpoint>
          <Trackpoint>
            <Time>2019-10-04T11:53:34.000Z</Time>
            <Position>
              <LatitudeDegrees>43.2381915114820003509521484375</LatitudeDegrees>
              <LongitudeDegrees>-5.77821976505219936370849609375</LongitudeDegrees>
            </Position>
            <AltitudeMeters>175.399993896484375</AltitudeMeters>
            <DistanceMeters>NAN</DistanceMeters>
          </Trackpoint>
          <Trackpoint>
            <Time>2019-10-04T11:53:36.000Z</Time>
            <Position>
              <LatitudeDegrees>43.23819729499518871307373046875</LatitudeDegrees>
              <LongitudeDegrees>-5.77835622243583202362060546875</LongitudeDegrees>
            </Position>
            <AltitudeMeters>175.399993896484375</AltitudeMeters>
            <DistanceMeters>NAN</DistanceMeters>
          </Trackpoint>
          <Trackpoint>
            <Time>2019-10-04T11:53:40.000Z</Time>
            <Position>
              <LatitudeDegrees>43.238215148448944091796875</LatitudeDegrees>
              <LongitudeDegrees>-5.77861371450126171112060546875</LongitudeDegrees>
            </Position>
            <AltitudeMeters>175.8000030517578125</AltitudeMeters>
            <DistanceMeters>NAN</DistanceMeters>
          </Trackpoint>
          <Trackpoint>
            <Time>2019-10-04T11:53:42.000Z</Time>
            <Position>
              <LatitudeDegrees>43.23821992613375186920166015625</LatitudeDegrees>
              <LongitudeDegrees>-5.7787309773266315460205078125</LongitudeDegrees>
            </Position>
            <AltitudeMeters>176.1999969482421875</AltitudeMeters>
            <DistanceMeters>NAN</DistanceMeters>
          </Trackpoint>
          <Trackpoint>
            <Time>2019-10-04T11:53:48.000Z</Time>
            <Position>
              <LatitudeDegrees>43.23823752813041210174560546875</LatitudeDegrees>
              <LongitudeDegrees>-5.77906030230224132537841796875</LongitudeDegrees>
            </Position>
            <AltitudeMeters>177</AltitudeMeters>
            <DistanceMeters>NAN</DistanceMeters>
          </Trackpoint>
          <Trackpoint>
            <Time>2019-10-04T11:53:51.000Z</Time>
            <Position>
              <LatitudeDegrees>43.23824842460453510284423828125</LatitudeDegrees>
              <LongitudeDegrees>-5.77921100892126560211181640625</LongitudeDegrees>
            </Position>
            <AltitudeMeters>177.1999969482421875</AltitudeMeters>
            <DistanceMeters>NAN</DistanceMeters>
          </Trackpoint>
          <Trackpoint>
            <Time>2019-10-04T11:53:58.000Z</Time>
            <Position>
              <LatitudeDegrees>43.2382781803607940673828125</LatitudeDegrees>
              <LongitudeDegrees>-5.77957771718502044677734375</LongitudeDegrees>
            </Position>
            <AltitudeMeters>178</AltitudeMeters>
            <DistanceMeters>NAN</DistanceMeters>
          </Trackpoint>
          <Trackpoint>
            <Time>2019-10-04T11:54:02.000Z</Time>
            <Position>
              <LatitudeDegrees>43.238284550607204437255859375</LatitudeDegrees>
              <LongitudeDegrees>-5.779783912003040313720703125</LongitudeDegrees>
            </Position>
            <AltitudeMeters>178.399993896484375</AltitudeMeters>
            <DistanceMeters>NAN</DistanceMeters>
          </Trackpoint>
          <Trackpoint>
            <Time>2019-10-04T11:54:06.000Z</Time>
            <Position>
              <LatitudeDegrees>43.23829737491905689239501953125</LatitudeDegrees>
              <LongitudeDegrees>-5.7799946330487728118896484375</LongitudeDegrees>
            </Position>
            <AltitudeMeters>179.1999969482421875</AltitudeMeters>
            <DistanceMeters>NAN</DistanceMeters>
          </Trackpoint>
          <Trackpoint>
            <Time>2019-10-04T11:54:11.000Z</Time>
            <Position>
              <LatitudeDegrees>43.23830927722156047821044921875</LatitudeDegrees>
              <LongitudeDegrees>-5.7802611775696277618408203125</LongitudeDegrees>
            </Position>
            <AltitudeMeters>179.600006103515625</AltitudeMeters>
            <DistanceMeters>NAN</DistanceMeters>
          </Trackpoint>
          <Trackpoint>
            <Time>2019-10-04T11:54:12.000Z</Time>
            <Position>
              <LatitudeDegrees>43.23831480927765369415283203125</LatitudeDegrees>
              <LongitudeDegrees>-5.7803148217499256134033203125</LongitudeDegrees>
            </Position>
            <AltitudeMeters>180.399993896484375</AltitudeMeters>
            <DistanceMeters>NAN</DistanceMeters>
          </Trackpoint>
          <Trackpoint>
            <Time>2019-10-04T11:54:17.000Z</Time>
            <Position>
              <LatitudeDegrees>43.2383313216269016265869140625</LatitudeDegrees>
              <LongitudeDegrees>-5.78061279840767383575439453125</LongitudeDegrees>
            </Position>
            <AltitudeMeters>181.600006103515625</AltitudeMeters>
            <DistanceMeters>NAN</DistanceMeters>
          </Trackpoint>
          <Trackpoint>
            <Time>2019-10-04T11:54:18.000Z</Time>
            <Position>
              <LatitudeDegrees>43.23833827860653400421142578125</LatitudeDegrees>
              <LongitudeDegrees>-5.7806853018701076507568359375</LongitudeDegrees>
            </Position>
            <AltitudeMeters>181.8000030517578125</AltitudeMeters>
            <DistanceMeters>NAN</DistanceMeters>
          </Trackpoint>
          <Trackpoint>
            <Time>2019-10-04T11:54:20.000Z</Time>
            <Position>
              <LatitudeDegrees>43.238346911966800689697265625</LatitudeDegrees>
              <LongitudeDegrees>-5.7808215916156768798828125</LongitudeDegrees>
            </Position>
            <AltitudeMeters>181.600006103515625</AltitudeMeters>
            <DistanceMeters>NAN</DistanceMeters>
          </Trackpoint>
          <Trackpoint>
            <Time>2019-10-04T11:54:25.000Z</Time>
            <Position>
              <LatitudeDegrees>43.23835923336446285247802734375</LatitudeDegrees>
              <LongitudeDegrees>-5.78108721412718296051025390625</LongitudeDegrees>
            </Position>
            <AltitudeMeters>181.399993896484375</AltitudeMeters>
            <DistanceMeters>NAN</DistanceMeters>
          </Trackpoint>
          <Trackpoint>
            <Time>2019-10-04T11:54:30.000Z</Time>
            <Position>
              <LatitudeDegrees>43.23833911679685115814208984375</LatitudeDegrees>
              <LongitudeDegrees>-5.78118301928043365478515625</LongitudeDegrees>
            </Position>
            <AltitudeMeters>181.1999969482421875</AltitudeMeters>
            <DistanceMeters>NAN</DistanceMeters>
          </Trackpoint>
          <Trackpoint>
            <Time>2019-10-04T11:54:32.000Z</Time>
            <Position>
              <LatitudeDegrees>43.23829569853842258453369140625</LatitudeDegrees>
              <LongitudeDegrees>-5.78122953884303569793701171875</LongitudeDegrees>
            </Position>
            <AltitudeMeters>181</AltitudeMeters>
            <DistanceMeters>NAN</DistanceMeters>
          </Trackpoint>
          <Trackpoint>
            <Time>2019-10-04T11:54:34.000Z</Time>
            <Position>
              <LatitudeDegrees>43.2382340915501117706298828125</LatitudeDegrees>
              <LongitudeDegrees>-5.78124940395355224609375</LongitudeDegrees>
            </Position>
            <AltitudeMeters>181</AltitudeMeters>
            <DistanceMeters>NAN</DistanceMeters>
          </Trackpoint>
          <Trackpoint>
            <Time>2019-10-04T11:54:36.000Z</Time>
            <Position>
              <LatitudeDegrees>43.23816276155412197113037109375</LatitudeDegrees>
              <LongitudeDegrees>-5.78125543892383575439453125</LongitudeDegrees>
            </Position>
            <AltitudeMeters>180.600006103515625</AltitudeMeters>
            <DistanceMeters>NAN</DistanceMeters>
          </Trackpoint>
          <Trackpoint>
            <Time>2019-10-04T11:54:39.000Z</Time>
            <Position>
              <LatitudeDegrees>43.23802672326564788818359375</LatitudeDegrees>
              <LongitudeDegrees>-5.7812670059502124786376953125</LongitudeDegrees>
            </Position>
            <AltitudeMeters>179.8000030517578125</AltitudeMeters>
            <DistanceMeters>NAN</DistanceMeters>
          </Trackpoint>
          <Trackpoint>
            <Time>2019-10-04T11:54:41.000Z</Time>
            <Position>
              <LatitudeDegrees>43.237915746867656707763671875</LatitudeDegrees>
              <LongitudeDegrees>-5.78127865679562091827392578125</LongitudeDegrees>
            </Position>
            <AltitudeMeters>179.399993896484375</AltitudeMeters>
            <DistanceMeters>NAN</DistanceMeters>
          </Trackpoint>
          <Trackpoint>
            <Time>2019-10-04T11:54:44.000Z</Time>
            <Position>
              <LatitudeDegrees>43.23771919123828411102294921875</LatitudeDegrees>
              <LongitudeDegrees>-5.78130933456122875213623046875</LongitudeDegrees>
            </Position>
            <AltitudeMeters>179.1999969482421875</AltitudeMeters>
            <DistanceMeters>NAN</DistanceMeters>
          </Trackpoint>
          <Trackpoint>
            <Time>2019-10-04T11:54:49.000Z</Time>
            <Position>
              <LatitudeDegrees>43.23731769807636737823486328125</LatitudeDegrees>
              <LongitudeDegrees>-5.78138778917491436004638671875</LongitudeDegrees>
            </Position>
            <AltitudeMeters>179.399993896484375</AltitudeMeters>
            <DistanceMeters>NAN</DistanceMeters>
          </Trackpoint>
          <Trackpoint>
            <Time>2019-10-04T11:54:56.000Z</Time>
            <Position>
              <LatitudeDegrees>43.23676097206771373748779296875</LatitudeDegrees>
              <LongitudeDegrees>-5.78143539838492870330810546875</LongitudeDegrees>
            </Position>
            <AltitudeMeters>180</AltitudeMeters>
            <DistanceMeters>NAN</DistanceMeters>
          </Trackpoint>
          <Trackpoint>
            <Time>2019-10-04T11:55:02.000Z</Time>
            <Position>
              <LatitudeDegrees>43.23636048473417758941650390625</LatitudeDegrees>
              <LongitudeDegrees>-5.781470350921154022216796875</LongitudeDegrees>
            </Position>
            <AltitudeMeters>178.600006103515625</AltitudeMeters>
            <DistanceMeters>NAN</DistanceMeters>
          </Trackpoint>
          <Trackpoint>
            <Time>2019-10-04T11:55:04.000Z</Time>
            <Position>
              <LatitudeDegrees>43.2362422160804271697998046875</LatitudeDegrees>
              <LongitudeDegrees>-5.781482420861721038818359375</LongitudeDegrees>
            </Position>
            <AltitudeMeters>178.399993896484375</AltitudeMeters>
            <DistanceMeters>NAN</DistanceMeters>
          </Trackpoint>
          <Trackpoint>
            <Time>2019-10-04T11:55:09.000Z</Time>
            <Position>
              <LatitudeDegrees>43.2359527051448822021484375</LatitudeDegrees>
              <LongitudeDegrees>-5.7815030403435230255126953125</LongitudeDegrees>
            </Position>
            <AltitudeMeters>177.8000030517578125</AltitudeMeters>
            <DistanceMeters>NAN</DistanceMeters>
          </Trackpoint>
          <Trackpoint>
            <Time>2019-10-04T11:55:12.000Z</Time>
            <Position>
              <LatitudeDegrees>43.2357865758240222930908203125</LatitudeDegrees>
              <LongitudeDegrees>-5.78152474947273731231689453125</LongitudeDegrees>
            </Position>
            <AltitudeMeters>177.399993896484375</AltitudeMeters>
            <DistanceMeters>NAN</DistanceMeters>
          </Trackpoint>
          <Trackpoint>
            <Time>2019-10-04T11:55:13.000Z</Time>
            <Position>
              <LatitudeDegrees>43.2357309199869632720947265625</LatitudeDegrees>
              <LongitudeDegrees>-5.781530030071735382080078125</LongitudeDegrees>
            </Position>
            <AltitudeMeters>177.1999969482421875</AltitudeMeters>
            <DistanceMeters>NAN</DistanceMeters>
          </Trackpoint>
          <Trackpoint>
            <Time>2019-10-04T11:55:23.000Z</Time>
            <Position>
              <LatitudeDegrees>43.2351840846240520477294921875</LatitudeDegrees>
              <LongitudeDegrees>-5.781587697565555572509765625</LongitudeDegrees>
            </Position>
            <AltitudeMeters>178.1999969482421875</AltitudeMeters>
            <DistanceMeters>NAN</DistanceMeters>
          </Trackpoint>
          <Trackpoint>
            <Time>2019-10-04T11:55:24.000Z</Time>
            <Position>
              <LatitudeDegrees>43.23513261973857879638671875</LatitudeDegrees>
              <LongitudeDegrees>-5.78159398399293422698974609375</LongitudeDegrees>
            </Position>
            <AltitudeMeters>178.1999969482421875</AltitudeMeters>
            <DistanceMeters>NAN</DistanceMeters>
          </Trackpoint>
          <Trackpoint>
            <Time>2019-10-04T11:55:25.000Z</Time>
            <Position>
              <LatitudeDegrees>43.2350742816925048828125</LatitudeDegrees>
              <LongitudeDegrees>-5.78160052187740802764892578125</LongitudeDegrees>
            </Position>
            <AltitudeMeters>178.399993896484375</AltitudeMeters>
            <DistanceMeters>NAN</DistanceMeters>
          </Trackpoint>
          <Trackpoint>
            <Time>2019-10-04T11:55:30.000Z</Time>
            <Position>
              <LatitudeDegrees>43.2348082400858402252197265625</LatitudeDegrees>
              <LongitudeDegrees>-5.7816270925104618072509765625</LongitudeDegrees>
            </Position>
            <AltitudeMeters>179.399993896484375</AltitudeMeters>
            <DistanceMeters>NAN</DistanceMeters>
          </Trackpoint>
          <Trackpoint>
            <Time>2019-10-04T11:55:36.000Z</Time>
            <Position>
              <LatitudeDegrees>43.234479166567325592041015625</LatitudeDegrees>
              <LongitudeDegrees>-5.78166288323700428009033203125</LongitudeDegrees>
            </Position>
            <AltitudeMeters>180.600006103515625</AltitudeMeters>
            <DistanceMeters>NAN</DistanceMeters>
          </Trackpoint>
          <Trackpoint>
            <Time>2019-10-04T11:55:37.000Z</Time>
            <Position>
              <LatitudeDegrees>43.234426192939281463623046875</LatitudeDegrees>
              <LongitudeDegrees>-5.7816663198173046112060546875</LongitudeDegrees>
            </Position>
            <AltitudeMeters>180.8000030517578125</AltitudeMeters>
            <DistanceMeters>NAN</DistanceMeters>
          </Trackpoint>
          <Trackpoint>
            <Time>2019-10-04T11:55:42.000Z</Time>
            <Position>
              <LatitudeDegrees>43.234145902097225189208984375</LatitudeDegrees>
              <LongitudeDegrees>-5.78168819658458232879638671875</LongitudeDegrees>
            </Position>
            <AltitudeMeters>181.8000030517578125</AltitudeMeters>
            <DistanceMeters>NAN</DistanceMeters>
          </Trackpoint>
          <Trackpoint>
            <Time>2019-10-04T11:55:46.000Z</Time>
            <Position>
              <LatitudeDegrees>43.2339237816631793975830078125</LatitudeDegrees>
              <LongitudeDegrees>-5.7817092351615428924560546875</LongitudeDegrees>
            </Position>
            <AltitudeMeters>182.600006103515625</AltitudeMeters>
            <DistanceMeters>NAN</DistanceMeters>
          </Trackpoint>
          <Trackpoint>
            <Time>2019-10-04T11:55:47.000Z</Time>
            <Position>
              <LatitudeDegrees>43.2338677905499935150146484375</LatitudeDegrees>
              <LongitudeDegrees>-5.7817186228930950164794921875</LongitudeDegrees>
            </Position>
            <AltitudeMeters>182.8000030517578125</AltitudeMeters>
            <DistanceMeters>NAN</DistanceMeters>
          </Trackpoint>
          <Trackpoint>
            <Time>2019-10-04T11:55:48.000Z</Time>
            <Position>
              <LatitudeDegrees>43.2338144816458225250244140625</LatitudeDegrees>
              <LongitudeDegrees>-5.78172557987272739410400390625</LongitudeDegrees>
            </Position>
            <AltitudeMeters>182.8000030517578125</AltitudeMeters>
            <DistanceMeters>NAN</DistanceMeters>
          </Trackpoint>
          <Trackpoint>
            <Time>2019-10-04T11:55:55.000Z</Time>
            <Position>
              <LatitudeDegrees>43.23342581279575824737548828125</LatitudeDegrees>
              <LongitudeDegrees>-5.78178249299526214599609375</LongitudeDegrees>
            </Position>
            <AltitudeMeters>184</AltitudeMeters>
            <DistanceMeters>NAN</DistanceMeters>
          </Trackpoint>
          <Trackpoint>
            <Time>2019-10-04T11:55:56.000Z</Time>
            <Position>
              <LatitudeDegrees>43.23337317444384098052978515625</LatitudeDegrees>
              <LongitudeDegrees>-5.78178911469876766204833984375</LongitudeDegrees>
            </Position>
            <AltitudeMeters>184</AltitudeMeters>
            <DistanceMeters>NAN</DistanceMeters>
          </Trackpoint>
          <Trackpoint>
            <Time>2019-10-04T11:56:05.000Z</Time>
            <Position>
              <LatitudeDegrees>43.232875876128673553466796875</LatitudeDegrees>
              <LongitudeDegrees>-5.78189916908740997314453125</LongitudeDegrees>
            </Position>
            <AltitudeMeters>185.1999969482421875</AltitudeMeters>
            <DistanceMeters>NAN</DistanceMeters>
          </Trackpoint>
          <Trackpoint>
            <Time>2019-10-04T11:56:07.000Z</Time>
            <Position>
              <LatitudeDegrees>43.232765905559062957763671875</LatitudeDegrees>
              <LongitudeDegrees>-5.7819395698606967926025390625</LongitudeDegrees>
            </Position>
            <AltitudeMeters>185.399993896484375</AltitudeMeters>
            <DistanceMeters>NAN</DistanceMeters>
          </Trackpoint>
          <Trackpoint>
            <Time>2019-10-04T11:56:13.000Z</Time>
            <Position>
              <LatitudeDegrees>43.2324438728392124176025390625</LatitudeDegrees>
              <LongitudeDegrees>-5.782060436904430389404296875</LongitudeDegrees>
            </Position>
            <AltitudeMeters>186.1999969482421875</AltitudeMeters>
            <DistanceMeters>NAN</DistanceMeters>
          </Trackpoint>
          <Trackpoint>
            <Time>2019-10-04T11:56:18.000Z</Time>
            <Position>
              <LatitudeDegrees>43.23217757977545261383056640625</LatitudeDegrees>
              <LongitudeDegrees>-5.7821702398359775543212890625</LongitudeDegrees>
            </Position>
            <AltitudeMeters>186.600006103515625</AltitudeMeters>
            <DistanceMeters>NAN</DistanceMeters>
          </Trackpoint>
          <Trackpoint>
            <Time>2019-10-04T11:56:22.000Z</Time>
            <Position>
              <LatitudeDegrees>43.23196551762521266937255859375</LatitudeDegrees>
              <LongitudeDegrees>-5.782268308103084564208984375</LongitudeDegrees>
            </Position>
            <AltitudeMeters>187.399993896484375</AltitudeMeters>
            <DistanceMeters>NAN</DistanceMeters>
          </Trackpoint>
          <Trackpoint>
            <Time>2019-10-04T11:56:28.000Z</Time>
            <Position>
              <LatitudeDegrees>43.23164633475244045257568359375</LatitudeDegrees>
              <LongitudeDegrees>-5.7824270613491535186767578125</LongitudeDegrees>
            </Position>
            <AltitudeMeters>187.1999969482421875</AltitudeMeters>
            <DistanceMeters>NAN</DistanceMeters>
          </Trackpoint>
          <Trackpoint>
            <Time>2019-10-04T11:56:37.000Z</Time>
            <Position>
              <LatitudeDegrees>43.2311676442623138427734375</LatitudeDegrees>
              <LongitudeDegrees>-5.78270777128636837005615234375</LongitudeDegrees>
            </Position>
            <AltitudeMeters>188.399993896484375</AltitudeMeters>
            <DistanceMeters>NAN</DistanceMeters>
          </Trackpoint>
          <Trackpoint>
            <Time>2019-10-04T11:56:43.000Z</Time>
            <Position>
              <LatitudeDegrees>43.230854161083698272705078125</LatitudeDegrees>
              <LongitudeDegrees>-5.78290893696248531341552734375</LongitudeDegrees>
            </Position>
            <AltitudeMeters>189</AltitudeMeters>
            <DistanceMeters>NAN</DistanceMeters>
          </Trackpoint>
          <Trackpoint>
            <Time>2019-10-04T11:56:44.000Z</Time>
            <Position>
              <LatitudeDegrees>43.230803199112415313720703125</LatitudeDegrees>
              <LongitudeDegrees>-5.7829407043755054473876953125</LongitudeDegrees>
            </Position>
            <AltitudeMeters>189.399993896484375</AltitudeMeters>
            <DistanceMeters>NAN</DistanceMeters>
          </Trackpoint>
          <Trackpoint>
            <Time>2019-10-04T11:56:46.000Z</Time>
            <Position>
              <LatitudeDegrees>43.230698592960834503173828125</LatitudeDegrees>
              <LongitudeDegrees>-5.78300449065864086151123046875</LongitudeDegrees>
            </Position>
            <AltitudeMeters>189.600006103515625</AltitudeMeters>
            <DistanceMeters>NAN</DistanceMeters>
          </Trackpoint>
          <Trackpoint>
            <Time>2019-10-04T11:56:52.000Z</Time>
            <Position>
              <LatitudeDegrees>43.2303866185247898101806640625</LatitudeDegrees>
              <LongitudeDegrees>-5.78319123946130275726318359375</LongitudeDegrees>
            </Position>
            <AltitudeMeters>190.600006103515625</AltitudeMeters>
            <DistanceMeters>NAN</DistanceMeters>
          </Trackpoint>
          <Trackpoint>
            <Time>2019-10-04T11:56:55.000Z</Time>
            <Position>
              <LatitudeDegrees>43.23023633100092411041259765625</LatitudeDegrees>
              <LongitudeDegrees>-5.7832893915474414825439453125</LongitudeDegrees>
            </Position>
            <AltitudeMeters>190.8000030517578125</AltitudeMeters>
            <DistanceMeters>NAN</DistanceMeters>
          </Trackpoint>
          <Trackpoint>
            <Time>2019-10-04T11:57:03.000Z</Time>
            <Position>
              <LatitudeDegrees>43.2298297248780727386474609375</LatitudeDegrees>
              <LongitudeDegrees>-5.78353799879550933837890625</LongitudeDegrees>
            </Position>
            <AltitudeMeters>191.600006103515625</AltitudeMeters>
            <DistanceMeters>NAN</DistanceMeters>
          </Trackpoint>
          <Trackpoint>
            <Time>2019-10-04T11:57:06.000Z</Time>
            <Position>
              <LatitudeDegrees>43.2296775095164775848388671875</LatitudeDegrees>
              <LongitudeDegrees>-5.7836253382265567779541015625</LongitudeDegrees>
            </Position>
            <AltitudeMeters>191.600006103515625</AltitudeMeters>
            <DistanceMeters>NAN</DistanceMeters>
          </Trackpoint>
          <Trackpoint>
            <Time>2019-10-04T11:57:16.000Z</Time>
            <Position>
              <LatitudeDegrees>43.22917333804070949554443359375</LatitudeDegrees>
              <LongitudeDegrees>-5.78393354080617427825927734375</LongitudeDegrees>
            </Position>
            <AltitudeMeters>192.399993896484375</AltitudeMeters>
            <DistanceMeters>NAN</DistanceMeters>
          </Trackpoint>
          <Trackpoint>
            <Time>2019-10-04T11:57:17.000Z</Time>
            <Position>
              <LatitudeDegrees>43.229124136269092559814453125</LatitudeDegrees>
              <LongitudeDegrees>-5.783962793648242950439453125</LongitudeDegrees>
            </Position>
            <AltitudeMeters>192.600006103515625</AltitudeMeters>
            <DistanceMeters>NAN</DistanceMeters>
          </Trackpoint>
          <Trackpoint>
            <Time>2019-10-04T11:57:19.000Z</Time>
            <Position>
              <LatitudeDegrees>43.22902313433587551116943359375</LatitudeDegrees>
              <LongitudeDegrees>-5.78402104787528514862060546875</LongitudeDegrees>
            </Position>
            <AltitudeMeters>192.600006103515625</AltitudeMeters>
            <DistanceMeters>NAN</DistanceMeters>
          </Trackpoint>
          <Trackpoint>
            <Time>2019-10-04T11:57:25.000Z</Time>
            <Position>
              <LatitudeDegrees>43.2287268340587615966796875</LatitudeDegrees>
              <LongitudeDegrees>-5.78419522382318973541259765625</LongitudeDegrees>
            </Position>
            <AltitudeMeters>193.1999969482421875</AltitudeMeters>
            <DistanceMeters>NAN</DistanceMeters>
          </Trackpoint>
          <Trackpoint>
            <Time>2019-10-04T11:57:27.000Z</Time>
            <Position>
              <LatitudeDegrees>43.2286280952394008636474609375</LatitudeDegrees>
              <LongitudeDegrees>-5.78425339423120021820068359375</LongitudeDegrees>
            </Position>
            <AltitudeMeters>193.8000030517578125</AltitudeMeters>
            <DistanceMeters>NAN</DistanceMeters>
          </Trackpoint>
          <Trackpoint>
            <Time>2019-10-04T11:57:34.000Z</Time>
            <Position>
              <LatitudeDegrees>43.22827680967748165130615234375</LatitudeDegrees>
              <LongitudeDegrees>-5.7844340242445468902587890625</LongitudeDegrees>
            </Position>
            <AltitudeMeters>194.8000030517578125</AltitudeMeters>
            <DistanceMeters>NAN</DistanceMeters>
          </Trackpoint>
          <Trackpoint>
            <Time>2019-10-04T11:57:44.000Z</Time>
            <Position>
              <LatitudeDegrees>43.22776584886014461517333984375</LatitudeDegrees>
              <LongitudeDegrees>-5.7846589945256710052490234375</LongitudeDegrees>
            </Position>
            <AltitudeMeters>195.399993896484375</AltitudeMeters>
            <DistanceMeters>NAN</DistanceMeters>
          </Trackpoint>
          <Trackpoint>
            <Time>2019-10-04T11:57:45.000Z</Time>
            <Position>
              <LatitudeDegrees>43.22771488688886165618896484375</LatitudeDegrees>
              <LongitudeDegrees>-5.78467869199812412261962890625</LongitudeDegrees>
            </Position>
            <AltitudeMeters>195.600006103515625</AltitudeMeters>
            <DistanceMeters>NAN</DistanceMeters>
          </Trackpoint>
          <Trackpoint>
            <Time>2019-10-04T11:57:47.000Z</Time>
            <Position>
              <LatitudeDegrees>43.227610699832439422607421875</LatitudeDegrees>
              <LongitudeDegrees>-5.7847176678478717803955078125</LongitudeDegrees>
            </Position>
            <AltitudeMeters>196</AltitudeMeters>
            <DistanceMeters>NAN</DistanceMeters>
          </Trackpoint>
          <Trackpoint>
            <Time>2019-10-04T11:57:56.000Z</Time>
            <Position>
              <LatitudeDegrees>43.2271458394825458526611328125</LatitudeDegrees>
              <LongitudeDegrees>-5.78487969003617763519287109375</LongitudeDegrees>
            </Position>
            <AltitudeMeters>196.8000030517578125</AltitudeMeters>
            <DistanceMeters>NAN</DistanceMeters>
          </Trackpoint>
          <Trackpoint>
            <Time>2019-10-04T11:57:58.000Z</Time>
            <Position>
              <LatitudeDegrees>43.22703897021710872650146484375</LatitudeDegrees>
              <LongitudeDegrees>-5.78491372056305408477783203125</LongitudeDegrees>
            </Position>
            <AltitudeMeters>197</AltitudeMeters>
            <DistanceMeters>NAN</DistanceMeters>
          </Trackpoint>
          <Trackpoint>
            <Time>2019-10-04T11:58:03.000Z</Time>
            <Position>
              <LatitudeDegrees>43.22678214870393276214599609375</LatitudeDegrees>
              <LongitudeDegrees>-5.785003490746021270751953125</LongitudeDegrees>
            </Position>
            <AltitudeMeters>197.399993896484375</AltitudeMeters>
            <DistanceMeters>NAN</DistanceMeters>
          </Trackpoint>
          <Trackpoint>
            <Time>2019-10-04T11:58:04.000Z</Time>
            <Position>
              <LatitudeDegrees>43.226729929447174072265625</LatitudeDegrees>
              <LongitudeDegrees>-5.78502570278942584991455078125</LongitudeDegrees>
            </Position>
            <AltitudeMeters>197.399993896484375</AltitudeMeters>
            <DistanceMeters>NAN</DistanceMeters>
          </Trackpoint>
          <Trackpoint>
            <Time>2019-10-04T11:58:10.000Z</Time>
            <Position>
              <LatitudeDegrees>43.226471431553363800048828125</LatitudeDegrees>
              <LongitudeDegrees>-5.78517540358006954193115234375</LongitudeDegrees>
            </Position>
            <AltitudeMeters>198</AltitudeMeters>
            <DistanceMeters>NAN</DistanceMeters>
          </Trackpoint>
          <Trackpoint>
            <Time>2019-10-04T11:58:11.000Z</Time>
            <Position>
              <LatitudeDegrees>43.2264370657503604888916015625</LatitudeDegrees>
              <LongitudeDegrees>-5.7852070033550262451171875</LongitudeDegrees>
            </Position>
            <AltitudeMeters>198</AltitudeMeters>
            <DistanceMeters>NAN</DistanceMeters>
          </Trackpoint>
          <Trackpoint>
            <Time>2019-10-04T11:58:12.000Z</Time>
            <Position>
              <LatitudeDegrees>43.22640546597540378570556640625</LatitudeDegrees>
              <LongitudeDegrees>-5.78523826785385608673095703125</LongitudeDegrees>
            </Position>
            <AltitudeMeters>198</AltitudeMeters>
            <DistanceMeters>NAN</DistanceMeters>
          </Trackpoint>
          <Trackpoint>
            <Time>2019-10-04T11:58:19.000Z</Time>
            <Position>
              <LatitudeDegrees>43.22619558311998844146728515625</LatitudeDegrees>
              <LongitudeDegrees>-5.78545519150793552398681640625</LongitudeDegrees>
            </Position>
            <AltitudeMeters>198.8000030517578125</AltitudeMeters>
            <DistanceMeters>NAN</DistanceMeters>
          </Trackpoint>
          <Trackpoint>
            <Time>2019-10-04T11:58:28.000Z</Time>
            <Position>
              <LatitudeDegrees>43.225894086062908172607421875</LatitudeDegrees>
              <LongitudeDegrees>-5.78569449484348297119140625</LongitudeDegrees>
            </Position>
            <AltitudeMeters>199.1999969482421875</AltitudeMeters>
            <DistanceMeters>NAN</DistanceMeters>
          </Trackpoint>
          <Trackpoint>
            <Time>2019-10-04T11:58:29.000Z</Time>
            <Position>
              <LatitudeDegrees>43.22585812769830226898193359375</LatitudeDegrees>
              <LongitudeDegrees>-5.78571486286818981170654296875</LongitudeDegrees>
            </Position>
            <AltitudeMeters>199</AltitudeMeters>
            <DistanceMeters>NAN</DistanceMeters>
          </Trackpoint>
          <Trackpoint>
            <Time>2019-10-04T11:58:36.000Z</Time>
            <Position>
              <LatitudeDegrees>43.22559610940515995025634765625</LatitudeDegrees>
              <LongitudeDegrees>-5.78579532913863658905029296875</LongitudeDegrees>
            </Position>
            <AltitudeMeters>199.399993896484375</AltitudeMeters>
            <DistanceMeters>NAN</DistanceMeters>
          </Trackpoint>
          <Trackpoint>
            <Time>2019-10-04T11:58:43.000Z</Time>
            <Position>
              <LatitudeDegrees>43.22536426596343517303466796875</LatitudeDegrees>
              <LongitudeDegrees>-5.78581653535366058349609375</LongitudeDegrees>
            </Position>
            <AltitudeMeters>200</AltitudeMeters>
            <DistanceMeters>NAN</DistanceMeters>
          </Trackpoint>
          <Trackpoint>
            <Time>2019-10-04T11:58:44.000Z</Time>
            <Position>
              <LatitudeDegrees>43.22533451020717620849609375</LatitudeDegrees>
              <LongitudeDegrees>-5.78581787645816802978515625</LongitudeDegrees>
            </Position>
            <AltitudeMeters>200.1999969482421875</AltitudeMeters>
            <DistanceMeters>NAN</DistanceMeters>
          </Trackpoint>
          <Trackpoint>
            <Time>2019-10-04T11:58:50.000Z</Time>
            <Position>
              <LatitudeDegrees>43.22516796179115772247314453125</LatitudeDegrees>
              <LongitudeDegrees>-5.785818211734294891357421875</LongitudeDegrees>
            </Position>
            <AltitudeMeters>200.600006103515625</AltitudeMeters>
            <DistanceMeters>NAN</DistanceMeters>
          </Trackpoint>
          <Trackpoint>
            <Time>2019-10-04T11:58:52.000Z</Time>
            <Position>
              <LatitudeDegrees>43.22511180303990840911865234375</LatitudeDegrees>
              <LongitudeDegrees>-5.7858177088201045989990234375</LongitudeDegrees>
            </Position>
            <AltitudeMeters>200.8000030517578125</AltitudeMeters>
            <DistanceMeters>NAN</DistanceMeters>
          </Trackpoint>
          <Trackpoint>
            <Time>2019-10-04T11:58:57.000Z</Time>
            <Position>
              <LatitudeDegrees>43.2249802909791469573974609375</LatitudeDegrees>
              <LongitudeDegrees>-5.78581879846751689910888671875</LongitudeDegrees>
            </Position>
            <AltitudeMeters>201</AltitudeMeters>
            <DistanceMeters>NAN</DistanceMeters>
          </Trackpoint>
          <Trackpoint>
            <Time>2019-10-04T11:59:01.000Z</Time>
            <Position>
              <LatitudeDegrees>43.22488280944526195526123046875</LatitudeDegrees>
              <LongitudeDegrees>-5.7858190499246120452880859375</LongitudeDegrees>
            </Position>
            <AltitudeMeters>201</AltitudeMeters>
            <DistanceMeters>NAN</DistanceMeters>
          </Trackpoint>
          <Trackpoint>
            <Time>2019-10-04T11:59:08.000Z</Time>
            <Position>
              <LatitudeDegrees>43.22470779530704021453857421875</LatitudeDegrees>
              <LongitudeDegrees>-5.78580337576568126678466796875</LongitudeDegrees>
            </Position>
            <AltitudeMeters>201.1999969482421875</AltitudeMeters>
            <DistanceMeters>NAN</DistanceMeters>
          </Trackpoint>
          <Trackpoint>
            <Time>2019-10-04T11:59:11.000Z</Time>
            <Position>
              <LatitudeDegrees>43.22463990189135074615478515625</LatitudeDegrees>
              <LongitudeDegrees>-5.78579373657703399658203125</LongitudeDegrees>
            </Position>
            <AltitudeMeters>201.1999969482421875</AltitudeMeters>
            <DistanceMeters>NAN</DistanceMeters>
          </Trackpoint>
          <Trackpoint>
            <Time>2019-10-04T11:59:14.000Z</Time>
            <Position>
              <LatitudeDegrees>43.2245729304850101470947265625</LatitudeDegrees>
              <LongitudeDegrees>-5.78578443266451358795166015625</LongitudeDegrees>
            </Position>
            <AltitudeMeters>200</AltitudeMeters>
            <DistanceMeters>NAN</DistanceMeters>
          </Trackpoint>
          <Trackpoint>
            <Time>2019-10-04T11:59:16.000Z</Time>
            <Position>
              <LatitudeDegrees>43.22452976368367671966552734375</LatitudeDegrees>
              <LongitudeDegrees>-5.78578024171292781829833984375</LongitudeDegrees>
            </Position>
            <AltitudeMeters>199.600006103515625</AltitudeMeters>
            <DistanceMeters>NAN</DistanceMeters>
          </Trackpoint>
          <Trackpoint>
            <Time>2019-10-04T11:59:20.000Z</Time>
            <Position>
              <LatitudeDegrees>43.2244351319968700408935546875</LatitudeDegrees>
              <LongitudeDegrees>-5.78578107990324497222900390625</LongitudeDegrees>
            </Position>
            <AltitudeMeters>199</AltitudeMeters>
            <DistanceMeters>NAN</DistanceMeters>
          </Trackpoint>
          <Trackpoint>
            <Time>2019-10-04T11:59:25.000Z</Time>
            <Position>
              <LatitudeDegrees>43.22431770153343677520751953125</LatitudeDegrees>
              <LongitudeDegrees>-5.78578007407486438751220703125</LongitudeDegrees>
            </Position>
            <AltitudeMeters>197.600006103515625</AltitudeMeters>
            <DistanceMeters>NAN</DistanceMeters>
          </Trackpoint>
          <Trackpoint>
            <Time>2019-10-04T11:59:30.000Z</Time>
            <Position>
              <LatitudeDegrees>43.2241980917751789093017578125</LatitudeDegrees>
              <LongitudeDegrees>-5.7858089916408061981201171875</LongitudeDegrees>
            </Position>
            <AltitudeMeters>196.399993896484375</AltitudeMeters>
            <DistanceMeters>NAN</DistanceMeters>
          </Trackpoint>
          <Trackpoint>
            <Time>2019-10-04T11:59:32.000Z</Time>
            <Position>
              <LatitudeDegrees>43.22415995411574840545654296875</LatitudeDegrees>
              <LongitudeDegrees>-5.785846710205078125</LongitudeDegrees>
            </Position>
            <AltitudeMeters>196</AltitudeMeters>
            <DistanceMeters>NAN</DistanceMeters>
          </Trackpoint>
          <Trackpoint>
            <Time>2019-10-04T11:59:37.000Z</Time>
            <Position>
              <LatitudeDegrees>43.2241107523441314697265625</LatitudeDegrees>
              <LongitudeDegrees>-5.7860138453543186187744140625</LongitudeDegrees>
            </Position>
            <AltitudeMeters>196.1999969482421875</AltitudeMeters>
            <DistanceMeters>NAN</DistanceMeters>
          </Trackpoint>
          <Trackpoint>
            <Time>2019-10-04T11:59:42.000Z</Time>
            <Position>
              <LatitudeDegrees>43.2240737043321132659912109375</LatitudeDegrees>
              <LongitudeDegrees>-5.78623202629387378692626953125</LongitudeDegrees>
            </Position>
            <AltitudeMeters>196.600006103515625</AltitudeMeters>
            <DistanceMeters>NAN</DistanceMeters>
          </Trackpoint>
          <Trackpoint>
            <Time>2019-10-04T11:59:43.000Z</Time>
            <Position>
              <LatitudeDegrees>43.2240435294806957244873046875</LatitudeDegrees>
              <LongitudeDegrees>-5.78626957722008228302001953125</LongitudeDegrees>
            </Position>
            <AltitudeMeters>196.8000030517578125</AltitudeMeters>
            <DistanceMeters>NAN</DistanceMeters>
          </Trackpoint>
          <Trackpoint>
            <Time>2019-10-04T11:59:47.000Z</Time>
            <Position>
              <LatitudeDegrees>43.22387027554214000701904296875</LatitudeDegrees>
              <LongitudeDegrees>-5.78630628995597362518310546875</LongitudeDegrees>
            </Position>
            <AltitudeMeters>197</AltitudeMeters>
            <DistanceMeters>NAN</DistanceMeters>
          </Trackpoint>
          <Trackpoint>
            <Time>2019-10-04T11:59:48.000Z</Time>
            <Position>
              <LatitudeDegrees>43.22381998412311077117919921875</LatitudeDegrees>
              <LongitudeDegrees>-5.7862934656441211700439453125</LongitudeDegrees>
            </Position>
            <AltitudeMeters>197.1999969482421875</AltitudeMeters>
            <DistanceMeters>NAN</DistanceMeters>
          </Trackpoint>
          <Trackpoint>
            <Time>2019-10-04T11:59:51.000Z</Time>
            <Position>
              <LatitudeDegrees>43.2236579619348049163818359375</LatitudeDegrees>
              <LongitudeDegrees>-5.78625717200338840484619140625</LongitudeDegrees>
            </Position>
            <AltitudeMeters>197.399993896484375</AltitudeMeters>
            <DistanceMeters>NAN</DistanceMeters>
          </Trackpoint>
          <Trackpoint>
            <Time>2019-10-04T11:59:54.000Z</Time>
            <Position>
              <LatitudeDegrees>43.22347842156887054443359375</LatitudeDegrees>
              <LongitudeDegrees>-5.7862207107245922088623046875</LongitudeDegrees>
            </Position>
            <AltitudeMeters>198</AltitudeMeters>
            <DistanceMeters>NAN</DistanceMeters>
          </Trackpoint>
          <Trackpoint>
            <Time>2019-10-04T11:59:57.000Z</Time>
            <Position>
              <LatitudeDegrees>43.22328521870076656341552734375</LatitudeDegrees>
              <LongitudeDegrees>-5.78617771156132221221923828125</LongitudeDegrees>
            </Position>
            <AltitudeMeters>198.399993896484375</AltitudeMeters>
            <DistanceMeters>NAN</DistanceMeters>
          </Trackpoint>
          <Trackpoint>
            <Time>2019-10-04T12:00:03.000Z</Time>
            <Position>
              <LatitudeDegrees>43.22287852875888347625732421875</LatitudeDegrees>
              <LongitudeDegrees>-5.7860695011913776397705078125</LongitudeDegrees>
            </Position>
            <AltitudeMeters>199.1999969482421875</AltitudeMeters>
            <DistanceMeters>NAN</DistanceMeters>
          </Trackpoint>
          <Trackpoint>
            <Time>2019-10-04T12:00:05.000Z</Time>
            <Position>
              <LatitudeDegrees>43.22272312827408313751220703125</LatitudeDegrees>
              <LongitudeDegrees>-5.78602197580039501190185546875</LongitudeDegrees>
            </Position>
            <AltitudeMeters>199.600006103515625</AltitudeMeters>
            <DistanceMeters>NAN</DistanceMeters>
          </Trackpoint>
          <Trackpoint>
            <Time>2019-10-04T12:00:06.000Z</Time>
            <Position>
              <LatitudeDegrees>43.22264132089912891387939453125</LatitudeDegrees>
              <LongitudeDegrees>-5.78600755892693996429443359375</LongitudeDegrees>
            </Position>
            <AltitudeMeters>199.399993896484375</AltitudeMeters>
            <DistanceMeters>NAN</DistanceMeters>
          </Trackpoint>
          <Trackpoint>
            <Time>2019-10-04T12:00:08.000Z</Time>
            <Position>
              <LatitudeDegrees>43.2224720902740955352783203125</LatitudeDegrees>
              <LongitudeDegrees>-5.785995237529277801513671875</LongitudeDegrees>
            </Position>
            <AltitudeMeters>199.600006103515625</AltitudeMeters>
            <DistanceMeters>NAN</DistanceMeters>
          </Trackpoint>
          <Trackpoint>
            <Time>2019-10-04T12:00:12.000Z</Time>
            <Position>
              <LatitudeDegrees>43.22212130762636661529541015625</LatitudeDegrees>
              <LongitudeDegrees>-5.78595793806016445159912109375</LongitudeDegrees>
            </Position>
            <AltitudeMeters>200</AltitudeMeters>
            <DistanceMeters>NAN</DistanceMeters>
          </Trackpoint>
          <Trackpoint>
            <Time>2019-10-04T12:00:14.000Z</Time>
            <Position>
              <LatitudeDegrees>43.22194746695458889007568359375</LatitudeDegrees>
              <LongitudeDegrees>-5.785930193960666656494140625</LongitudeDegrees>
            </Position>
            <AltitudeMeters>200.600006103515625</AltitudeMeters>
            <DistanceMeters>NAN</DistanceMeters>
          </Trackpoint>
          <Trackpoint>
            <Time>2019-10-04T12:00:15.000Z</Time>
            <Position>
              <LatitudeDegrees>43.22186230681836605072021484375</LatitudeDegrees>
              <LongitudeDegrees>-5.7859139330685138702392578125</LongitudeDegrees>
            </Position>
            <AltitudeMeters>200.600006103515625</AltitudeMeters>
            <DistanceMeters>NAN</DistanceMeters>
          </Trackpoint>
          <Trackpoint>
            <Time>2019-10-04T12:00:19.000Z</Time>
            <Position>
              <LatitudeDegrees>43.2215292938053607940673828125</LatitudeDegrees>
              <LongitudeDegrees>-5.78585685230791568756103515625</LongitudeDegrees>
            </Position>
            <AltitudeMeters>201.1999969482421875</AltitudeMeters>
            <DistanceMeters>NAN</DistanceMeters>
          </Trackpoint>
          <Trackpoint>
            <Time>2019-10-04T12:00:23.000Z</Time>
            <Position>
              <LatitudeDegrees>43.22120600380003452301025390625</LatitudeDegrees>
              <LongitudeDegrees>-5.78580371104180812835693359375</LongitudeDegrees>
            </Position>
            <AltitudeMeters>201.600006103515625</AltitudeMeters>
            <DistanceMeters>NAN</DistanceMeters>
          </Trackpoint>
          <Trackpoint>
            <Time>2019-10-04T12:00:24.000Z</Time>
            <Position>
              <LatitudeDegrees>43.22112612426280975341796875</LatitudeDegrees>
              <LongitudeDegrees>-5.785788036882877349853515625</LongitudeDegrees>
            </Position>
            <AltitudeMeters>201.8000030517578125</AltitudeMeters>
            <DistanceMeters>NAN</DistanceMeters>
          </Trackpoint>
          <Trackpoint>
            <Time>2019-10-04T12:00:25.000Z</Time>
            <Position>
              <LatitudeDegrees>43.22104775346815586090087890625</LatitudeDegrees>
              <LongitudeDegrees>-5.78577236272394657135009765625</LongitudeDegrees>
            </Position>
            <AltitudeMeters>201.600006103515625</AltitudeMeters>
            <DistanceMeters>NAN</DistanceMeters>
          </Trackpoint>
          <Trackpoint>
            <Time>2019-10-04T12:00:27.000Z</Time>
            <Position>
              <LatitudeDegrees>43.22089654393494129180908203125</LatitudeDegrees>
              <LongitudeDegrees>-5.785744450986385345458984375</LongitudeDegrees>
            </Position>
            <AltitudeMeters>202</AltitudeMeters>
            <DistanceMeters>NAN</DistanceMeters>
          </Trackpoint>
          <Trackpoint>
            <Time>2019-10-04T12:00:30.000Z</Time>
            <Position>
              <LatitudeDegrees>43.22068582288920879364013671875</LatitudeDegrees>
              <LongitudeDegrees>-5.78570882789790630340576171875</LongitudeDegrees>
            </Position>
            <AltitudeMeters>202.399993896484375</AltitudeMeters>
            <DistanceMeters>NAN</DistanceMeters>
          </Trackpoint>
          <Trackpoint>
            <Time>2019-10-04T12:00:32.000Z</Time>
            <Position>
              <LatitudeDegrees>43.2205516286194324493408203125</LatitudeDegrees>
              <LongitudeDegrees>-5.78569114208221435546875</LongitudeDegrees>
            </Position>
            <AltitudeMeters>203</AltitudeMeters>
            <DistanceMeters>NAN</DistanceMeters>
          </Trackpoint>
          <Trackpoint>
            <Time>2019-10-04T12:00:36.000Z</Time>
            <Position>
              <LatitudeDegrees>43.22030578739941120147705078125</LatitudeDegrees>
              <LongitudeDegrees>-5.78565149568021297454833984375</LongitudeDegrees>
            </Position>
            <AltitudeMeters>203</AltitudeMeters>
            <DistanceMeters>NAN</DistanceMeters>
          </Trackpoint>
          <Trackpoint>
            <Time>2019-10-04T12:00:38.000Z</Time>
            <Position>
              <LatitudeDegrees>43.22019363753497600555419921875</LatitudeDegrees>
              <LongitudeDegrees>-5.785635821521282196044921875</LongitudeDegrees>
            </Position>
            <AltitudeMeters>203.399993896484375</AltitudeMeters>
            <DistanceMeters>NAN</DistanceMeters>
          </Trackpoint>
          <Trackpoint>
            <Time>2019-10-04T12:00:44.000Z</Time>
            <Position>
              <LatitudeDegrees>43.21990865282714366912841796875</LatitudeDegrees>
              <LongitudeDegrees>-5.78559315763413906097412109375</LongitudeDegrees>
            </Position>
            <AltitudeMeters>202.8000030517578125</AltitudeMeters>
            <DistanceMeters>NAN</DistanceMeters>
          </Trackpoint>
          <Trackpoint>
            <Time>2019-10-04T12:00:49.000Z</Time>
            <Position>
              <LatitudeDegrees>43.2197100855410099029541015625</LatitudeDegrees>
              <LongitudeDegrees>-5.7855779863893985748291015625</LongitudeDegrees>
            </Position>
            <AltitudeMeters>201.8000030517578125</AltitudeMeters>
            <DistanceMeters>NAN</DistanceMeters>
          </Trackpoint>
          <Trackpoint>
            <Time>2019-10-04T12:00:52.000Z</Time>
            <Position>
              <LatitudeDegrees>43.21959533728659152984619140625</LatitudeDegrees>
              <LongitudeDegrees>-5.78554672189056873321533203125</LongitudeDegrees>
            </Position>
            <AltitudeMeters>201.1999969482421875</AltitudeMeters>
            <DistanceMeters>NAN</DistanceMeters>
          </Trackpoint>
          <Trackpoint>
            <Time>2019-10-04T12:00:54.000Z</Time>
            <Position>
              <LatitudeDegrees>43.2195152901113033294677734375</LatitudeDegrees>
              <LongitudeDegrees>-5.78552694059908390045166015625</LongitudeDegrees>
            </Position>
            <AltitudeMeters>200.600006103515625</AltitudeMeters>
            <DistanceMeters>NAN</DistanceMeters>
          </Trackpoint>
          <Trackpoint>
            <Time>2019-10-04T12:00:57.000Z</Time>
            <Position>
              <LatitudeDegrees>43.21939609944820404052734375</LatitudeDegrees>
              <LongitudeDegrees>-5.7855213247239589691162109375</LongitudeDegrees>
            </Position>
            <AltitudeMeters>200.8000030517578125</AltitudeMeters>
            <DistanceMeters>NAN</DistanceMeters>
          </Trackpoint>
          <Trackpoint>
            <Time>2019-10-04T12:00:58.000Z</Time>
            <Position>
              <LatitudeDegrees>43.21935527957975864410400390625</LatitudeDegrees>
              <LongitudeDegrees>-5.78551503829658031463623046875</LongitudeDegrees>
            </Position>
            <AltitudeMeters>200.600006103515625</AltitudeMeters>
            <DistanceMeters>NAN</DistanceMeters>
          </Trackpoint>
          <Trackpoint>
            <Time>2019-10-04T12:01:02.000Z</Time>
            <Position>
              <LatitudeDegrees>43.2191942632198333740234375</LatitudeDegrees>
              <LongitudeDegrees>-5.7854945026338100433349609375</LongitudeDegrees>
            </Position>
            <AltitudeMeters>200.600006103515625</AltitudeMeters>
            <DistanceMeters>NAN</DistanceMeters>
          </Trackpoint>
          <Trackpoint>
            <Time>2019-10-04T12:01:04.000Z</Time>
            <Position>
              <LatitudeDegrees>43.21911312639713287353515625</LatitudeDegrees>
              <LongitudeDegrees>-5.78549039550125598907470703125</LongitudeDegrees>
            </Position>
            <AltitudeMeters>200.399993896484375</AltitudeMeters>
            <DistanceMeters>NAN</DistanceMeters>
          </Trackpoint>
          <Trackpoint>
            <Time>2019-10-04T12:01:07.000Z</Time>
            <Position>
              <LatitudeDegrees>43.21899033151566982269287109375</LatitudeDegrees>
              <LongitudeDegrees>-5.7854995317757129669189453125</LongitudeDegrees>
            </Position>
            <AltitudeMeters>200.8000030517578125</AltitudeMeters>
            <DistanceMeters>NAN</DistanceMeters>
          </Trackpoint>
          <Trackpoint>
            <Time>2019-10-04T12:01:11.000Z</Time>
            <Position>
              <LatitudeDegrees>43.21882747113704681396484375</LatitudeDegrees>
              <LongitudeDegrees>-5.78551252372562885284423828125</LongitudeDegrees>
            </Position>
            <AltitudeMeters>200.8000030517578125</AltitudeMeters>
            <DistanceMeters>NAN</DistanceMeters>
          </Trackpoint>
          <Trackpoint>
            <Time>2019-10-04T12:01:14.000Z</Time>
            <Position>
              <LatitudeDegrees>43.2187061011791229248046875</LatitudeDegrees>
              <LongitudeDegrees>-5.78556197695434093475341796875</LongitudeDegrees>
            </Position>
            <AltitudeMeters>200.8000030517578125</AltitudeMeters>
            <DistanceMeters>NAN</DistanceMeters>
          </Trackpoint>
          <Trackpoint>
            <Time>2019-10-04T12:01:23.000Z</Time>
            <Position>
              <LatitudeDegrees>43.21835313923656940460205078125</LatitudeDegrees>
              <LongitudeDegrees>-5.785729028284549713134765625</LongitudeDegrees>
            </Position>
            <AltitudeMeters>201</AltitudeMeters>
            <DistanceMeters>NAN</DistanceMeters>
          </Trackpoint>
          <Trackpoint>
            <Time>2019-10-04T12:01:30.000Z</Time>
            <Position>
              <LatitudeDegrees>43.21809531189501285552978515625</LatitudeDegrees>
              <LongitudeDegrees>-5.78587814234197139739990234375</LongitudeDegrees>
            </Position>
            <AltitudeMeters>201.1999969482421875</AltitudeMeters>
            <DistanceMeters>NAN</DistanceMeters>
          </Trackpoint>
          <Trackpoint>
            <Time>2019-10-04T12:01:33.000Z</Time>
            <Position>
              <LatitudeDegrees>43.21799439378082752227783203125</LatitudeDegrees>
              <LongitudeDegrees>-5.7859580218791961669921875</LongitudeDegrees>
            </Position>
            <AltitudeMeters>201.1999969482421875</AltitudeMeters>
            <DistanceMeters>NAN</DistanceMeters>
          </Trackpoint>
          <Trackpoint>
            <Time>2019-10-04T12:01:42.000Z</Time>
            <Position>
              <LatitudeDegrees>43.21771301329135894775390625</LatitudeDegrees>
              <LongitudeDegrees>-5.7862669788300991058349609375</LongitudeDegrees>
            </Position>
            <AltitudeMeters>201.1999969482421875</AltitudeMeters>
            <DistanceMeters>NAN</DistanceMeters>
          </Trackpoint>
          <Trackpoint>
            <Time>2019-10-04T12:01:44.000Z</Time>
            <Position>
              <LatitudeDegrees>43.21763682179152965545654296875</LatitudeDegrees>
              <LongitudeDegrees>-5.78633487224578857421875</LongitudeDegrees>
            </Position>
            <AltitudeMeters>201.600006103515625</AltitudeMeters>
            <DistanceMeters>NAN</DistanceMeters>
          </Trackpoint>
          <Trackpoint>
            <Time>2019-10-04T12:01:49.000Z</Time>
            <Position>
              <LatitudeDegrees>43.21741805411875247955322265625</LatitudeDegrees>
              <LongitudeDegrees>-5.786480717360973358154296875</LongitudeDegrees>
            </Position>
            <AltitudeMeters>201.1999969482421875</AltitudeMeters>
            <DistanceMeters>NAN</DistanceMeters>
          </Trackpoint>
          <Trackpoint>
            <Time>2019-10-04T12:01:58.000Z</Time>
            <Position>
              <LatitudeDegrees>43.217022679746150970458984375</LatitudeDegrees>
              <LongitudeDegrees>-5.7866961322724819183349609375</LongitudeDegrees>
            </Position>
            <AltitudeMeters>201.1999969482421875</AltitudeMeters>
            <DistanceMeters>NAN</DistanceMeters>
          </Trackpoint>
          <Trackpoint>
            <Time>2019-10-04T12:02:07.000Z</Time>
            <Position>
              <LatitudeDegrees>43.2166510261595249176025390625</LatitudeDegrees>
              <LongitudeDegrees>-5.78688648529350757598876953125</LongitudeDegrees>
            </Position>
            <AltitudeMeters>201.8000030517578125</AltitudeMeters>
            <DistanceMeters>NAN</DistanceMeters>
          </Trackpoint>
          <Trackpoint>
            <Time>2019-10-04T12:02:16.000Z</Time>
            <Position>
              <LatitudeDegrees>43.21628649719059467315673828125</LatitudeDegrees>
              <LongitudeDegrees>-5.78709418885409832000732421875</LongitudeDegrees>
            </Position>
            <AltitudeMeters>202</AltitudeMeters>
            <DistanceMeters>NAN</DistanceMeters>
          </Trackpoint>
          <Trackpoint>
            <Time>2019-10-04T12:02:22.000Z</Time>
            <Position>
              <LatitudeDegrees>43.2159972377121448516845703125</LatitudeDegrees>
              <LongitudeDegrees>-5.78723399899899959564208984375</LongitudeDegrees>
            </Position>
            <AltitudeMeters>202</AltitudeMeters>
            <DistanceMeters>NAN</DistanceMeters>
          </Trackpoint>
          <Trackpoint>
            <Time>2019-10-04T12:02:23.000Z</Time>
            <Position>
              <LatitudeDegrees>43.21593898348510265350341796875</LatitudeDegrees>
              <LongitudeDegrees>-5.78724036924540996551513671875</LongitudeDegrees>
            </Position>
            <AltitudeMeters>202.1999969482421875</AltitudeMeters>
            <DistanceMeters>NAN</DistanceMeters>
          </Trackpoint>
          <Trackpoint>
            <Time>2019-10-04T12:02:27.000Z</Time>
            <Position>
              <LatitudeDegrees>43.21567495353519916534423828125</LatitudeDegrees>
              <LongitudeDegrees>-5.7872610725462436676025390625</LongitudeDegrees>
            </Position>
            <AltitudeMeters>202</AltitudeMeters>
            <DistanceMeters>NAN</DistanceMeters>
          </Trackpoint>
          <Trackpoint>
            <Time>2019-10-04T12:02:32.000Z</Time>
            <Position>
              <LatitudeDegrees>43.21533498354256153106689453125</LatitudeDegrees>
              <LongitudeDegrees>-5.7874655909836292266845703125</LongitudeDegrees>
            </Position>
            <AltitudeMeters>202.1999969482421875</AltitudeMeters>
            <DistanceMeters>NAN</DistanceMeters>
          </Trackpoint>
          <Trackpoint>
            <Time>2019-10-04T12:02:37.000Z</Time>
            <Position>
              <LatitudeDegrees>43.21498746983706951141357421875</LatitudeDegrees>
              <LongitudeDegrees>-5.7877183891832828521728515625</LongitudeDegrees>
            </Position>
            <AltitudeMeters>202.8000030517578125</AltitudeMeters>
            <DistanceMeters>NAN</DistanceMeters>
          </Trackpoint>
          <Trackpoint>
            <Time>2019-10-04T12:02:39.000Z</Time>
            <Position>
              <LatitudeDegrees>43.2148422114551067352294921875</LatitudeDegrees>
              <LongitudeDegrees>-5.78780673444271087646484375</LongitudeDegrees>
            </Position>
            <AltitudeMeters>202.8000030517578125</AltitudeMeters>
            <DistanceMeters>NAN</DistanceMeters>
          </Trackpoint>
          <Trackpoint>
            <Time>2019-10-04T12:02:42.000Z</Time>
            <Position>
              <LatitudeDegrees>43.21462235413491725921630859375</LatitudeDegrees>
              <LongitudeDegrees>-5.78792802058160305023193359375</LongitudeDegrees>
            </Position>
            <AltitudeMeters>203</AltitudeMeters>
            <DistanceMeters>NAN</DistanceMeters>
          </Trackpoint>
          <Trackpoint>
            <Time>2019-10-04T12:02:46.000Z</Time>
            <Position>
              <LatitudeDegrees>43.2143476791679859161376953125</LatitudeDegrees>
              <LongitudeDegrees>-5.7880747877061367034912109375</LongitudeDegrees>
            </Position>
            <AltitudeMeters>203.399993896484375</AltitudeMeters>
            <DistanceMeters>NAN</DistanceMeters>
          </Trackpoint>
          <Trackpoint>
            <Time>2019-10-04T12:02:50.000Z</Time>
            <Position>
              <LatitudeDegrees>43.214079625904560089111328125</LatitudeDegrees>
              <LongitudeDegrees>-5.78819154761731624603271484375</LongitudeDegrees>
            </Position>
            <AltitudeMeters>203.600006103515625</AltitudeMeters>
            <DistanceMeters>NAN</DistanceMeters>
          </Trackpoint>
          <Trackpoint>
            <Time>2019-10-04T12:02:51.000Z</Time>
            <Position>
              <LatitudeDegrees>43.2140160910785198211669921875</LatitudeDegrees>
              <LongitudeDegrees>-5.78821367584168910980224609375</LongitudeDegrees>
            </Position>
            <AltitudeMeters>204</AltitudeMeters>
            <DistanceMeters>NAN</DistanceMeters>
          </Trackpoint>
          <Trackpoint>
            <Time>2019-10-04T12:02:52.000Z</Time>
            <Position>
              <LatitudeDegrees>43.21395280770957469940185546875</LatitudeDegrees>
              <LongitudeDegrees>-5.7882320322096347808837890625</LongitudeDegrees>
            </Position>
            <AltitudeMeters>203.8000030517578125</AltitudeMeters>
            <DistanceMeters>NAN</DistanceMeters>
          </Trackpoint>
          <Trackpoint>
            <Time>2019-10-04T12:03:01.000Z</Time>
            <Position>
              <LatitudeDegrees>43.2134005241096019744873046875</LatitudeDegrees>
              <LongitudeDegrees>-5.78833269886672496795654296875</LongitudeDegrees>
            </Position>
            <AltitudeMeters>204.1999969482421875</AltitudeMeters>
            <DistanceMeters>NAN</DistanceMeters>
          </Trackpoint>
          <Trackpoint>
            <Time>2019-10-04T12:03:09.000Z</Time>
            <Position>
              <LatitudeDegrees>43.21286869235336780548095703125</LatitudeDegrees>
              <LongitudeDegrees>-5.7884539850056171417236328125</LongitudeDegrees>
            </Position>
            <AltitudeMeters>204.399993896484375</AltitudeMeters>
            <DistanceMeters>NAN</DistanceMeters>
          </Trackpoint>
          <Trackpoint>
            <Time>2019-10-04T12:03:15.000Z</Time>
            <Position>
              <LatitudeDegrees>43.2124761678278446197509765625</LatitudeDegrees>
              <LongitudeDegrees>-5.7885552383959293365478515625</LongitudeDegrees>
            </Position>
            <AltitudeMeters>204.600006103515625</AltitudeMeters>
            <DistanceMeters>NAN</DistanceMeters>
          </Trackpoint>
          <Trackpoint>
            <Time>2019-10-04T12:03:16.000Z</Time>
            <Position>
              <LatitudeDegrees>43.21242277510464191436767578125</LatitudeDegrees>
              <LongitudeDegrees>-5.78857175074517726898193359375</LongitudeDegrees>
            </Position>
            <AltitudeMeters>204.399993896484375</AltitudeMeters>
            <DistanceMeters>NAN</DistanceMeters>
          </Trackpoint>
          <Trackpoint>
            <Time>2019-10-04T12:03:18.000Z</Time>
            <Position>
              <LatitudeDegrees>43.21233157999813556671142578125</LatitudeDegrees>
              <LongitudeDegrees>-5.7886080443859100341796875</LongitudeDegrees>
            </Position>
            <AltitudeMeters>204.399993896484375</AltitudeMeters>
            <DistanceMeters>NAN</DistanceMeters>
          </Trackpoint>
          <Trackpoint>
            <Time>2019-10-04T12:03:21.000Z</Time>
            <Position>
              <LatitudeDegrees>43.2122310809791088104248046875</LatitudeDegrees>
              <LongitudeDegrees>-5.788681469857692718505859375</LongitudeDegrees>
            </Position>
            <AltitudeMeters>204.600006103515625</AltitudeMeters>
            <DistanceMeters>NAN</DistanceMeters>
          </Trackpoint>
          <Trackpoint>
            <Time>2019-10-04T12:03:23.000Z</Time>
            <Position>
              <LatitudeDegrees>43.212169893085956573486328125</LatitudeDegrees>
              <LongitudeDegrees>-5.7887262292206287384033203125</LongitudeDegrees>
            </Position>
            <AltitudeMeters>204.600006103515625</AltitudeMeters>
            <DistanceMeters>NAN</DistanceMeters>
          </Trackpoint>
          <Trackpoint>
            <Time>2019-10-04T12:03:29.000Z</Time>
            <Position>
              <LatitudeDegrees>43.2119873352348804473876953125</LatitudeDegrees>
              <LongitudeDegrees>-5.78884416259825229644775390625</LongitudeDegrees>
            </Position>
            <AltitudeMeters>204.600006103515625</AltitudeMeters>
            <DistanceMeters>NAN</DistanceMeters>
          </Trackpoint>
          <Trackpoint>
            <Time>2019-10-04T12:03:32.000Z</Time>
            <Position>
              <LatitudeDegrees>43.21188733913004398345947265625</LatitudeDegrees>
              <LongitudeDegrees>-5.78887023031711578369140625</LongitudeDegrees>
            </Position>
            <AltitudeMeters>204.1999969482421875</AltitudeMeters>
            <DistanceMeters>NAN</DistanceMeters>
          </Trackpoint>
          <Trackpoint>
            <Time>2019-10-04T12:03:34.000Z</Time>
            <Position>
              <LatitudeDegrees>43.2118217088282108306884765625</LatitudeDegrees>
              <LongitudeDegrees>-5.78888037241995334625244140625</LongitudeDegrees>
            </Position>
            <AltitudeMeters>204.399993896484375</AltitudeMeters>
            <DistanceMeters>NAN</DistanceMeters>
          </Trackpoint>
          <Trackpoint>
            <Time>2019-10-04T12:03:37.000Z</Time>
            <Position>
              <LatitudeDegrees>43.21172255091369152069091796875</LatitudeDegrees>
              <LongitudeDegrees>-5.78888322226703166961669921875</LongitudeDegrees>
            </Position>
            <AltitudeMeters>204.8000030517578125</AltitudeMeters>
            <DistanceMeters>NAN</DistanceMeters>
          </Trackpoint>
          <Trackpoint>
            <Time>2019-10-04T12:03:39.000Z</Time>
            <Position>
              <LatitudeDegrees>43.2116547413170337677001953125</LatitudeDegrees>
              <LongitudeDegrees>-5.78886494971811771392822265625</LongitudeDegrees>
            </Position>
            <AltitudeMeters>204.399993896484375</AltitudeMeters>
            <DistanceMeters>NAN</DistanceMeters>
          </Trackpoint>
          <Trackpoint>
            <Time>2019-10-04T12:03:42.000Z</Time>
            <Position>
              <LatitudeDegrees>43.211541585624217987060546875</LatitudeDegrees>
              <LongitudeDegrees>-5.78880862332880496978759765625</LongitudeDegrees>
            </Position>
            <AltitudeMeters>204.1999969482421875</AltitudeMeters>
            <DistanceMeters>NAN</DistanceMeters>
          </Trackpoint>
          <Trackpoint>
            <Time>2019-10-04T12:03:46.000Z</Time>
            <Position>
              <LatitudeDegrees>43.21138056926429271697998046875</LatitudeDegrees>
              <LongitudeDegrees>-5.78871860168874263763427734375</LongitudeDegrees>
            </Position>
            <AltitudeMeters>204</AltitudeMeters>
            <DistanceMeters>NAN</DistanceMeters>
          </Trackpoint>
          <Trackpoint>
            <Time>2019-10-04T12:03:47.000Z</Time>
            <Position>
              <LatitudeDegrees>43.21133681572973728179931640625</LatitudeDegrees>
              <LongitudeDegrees>-5.78870334662497043609619140625</LongitudeDegrees>
            </Position>
            <AltitudeMeters>204</AltitudeMeters>
            <DistanceMeters>NAN</DistanceMeters>
          </Trackpoint>
          <Trackpoint>
            <Time>2019-10-04T12:03:48.000Z</Time>
            <Position>
              <LatitudeDegrees>43.2112852670252323150634765625</LatitudeDegrees>
              <LongitudeDegrees>-5.7886980660259723663330078125</LongitudeDegrees>
            </Position>
            <AltitudeMeters>203.8000030517578125</AltitudeMeters>
            <DistanceMeters>NAN</DistanceMeters>
          </Trackpoint>
          <Trackpoint>
            <Time>2019-10-04T12:03:51.000Z</Time>
            <Position>
              <LatitudeDegrees>43.21111368946731090545654296875</LatitudeDegrees>
              <LongitudeDegrees>-5.7887542247772216796875</LongitudeDegrees>
            </Position>
            <AltitudeMeters>203.8000030517578125</AltitudeMeters>
            <DistanceMeters>NAN</DistanceMeters>
          </Trackpoint>
          <Trackpoint>
            <Time>2019-10-04T12:03:52.000Z</Time>
            <Position>
              <LatitudeDegrees>43.21105434559285640716552734375</LatitudeDegrees>
              <LongitudeDegrees>-5.78878213651478290557861328125</LongitudeDegrees>
            </Position>
            <AltitudeMeters>203.600006103515625</AltitudeMeters>
            <DistanceMeters>NAN</DistanceMeters>
          </Trackpoint>
          <Trackpoint>
            <Time>2019-10-04T12:03:55.000Z</Time>
            <Position>
              <LatitudeDegrees>43.21087581105530261993408203125</LatitudeDegrees>
              <LongitudeDegrees>-5.7888898439705371856689453125</LongitudeDegrees>
            </Position>
            <AltitudeMeters>203.600006103515625</AltitudeMeters>
            <DistanceMeters>NAN</DistanceMeters>
          </Trackpoint>
          <Trackpoint>
            <Time>2019-10-04T12:03:57.000Z</Time>
            <Position>
              <LatitudeDegrees>43.21075737476348876953125</LatitudeDegrees>
              <LongitudeDegrees>-5.7890237867832183837890625</LongitudeDegrees>
            </Position>
            <AltitudeMeters>203.399993896484375</AltitudeMeters>
            <DistanceMeters>NAN</DistanceMeters>
          </Trackpoint>
          <Trackpoint>
            <Time>2019-10-04T12:04:02.000Z</Time>
            <Position>
              <LatitudeDegrees>43.21040935814380645751953125</LatitudeDegrees>
              <LongitudeDegrees>-5.7893823646008968353271484375</LongitudeDegrees>
            </Position>
            <AltitudeMeters>203.600006103515625</AltitudeMeters>
            <DistanceMeters>NAN</DistanceMeters>
          </Trackpoint>
          <Trackpoint>
            <Time>2019-10-04T12:04:06.000Z</Time>
            <Position>
              <LatitudeDegrees>43.21014650166034698486328125</LatitudeDegrees>
              <LongitudeDegrees>-5.7896747253835201263427734375</LongitudeDegrees>
            </Position>
            <AltitudeMeters>203.1999969482421875</AltitudeMeters>
            <DistanceMeters>NAN</DistanceMeters>
          </Trackpoint>
          <Trackpoint>
            <Time>2019-10-04T12:04:07.000Z</Time>
            <Position>
              <LatitudeDegrees>43.21008891798555850982666015625</LatitudeDegrees>
              <LongitudeDegrees>-5.78976030461490154266357421875</LongitudeDegrees>
            </Position>
            <AltitudeMeters>203.1999969482421875</AltitudeMeters>
            <DistanceMeters>NAN</DistanceMeters>
          </Trackpoint>
          <Trackpoint>
            <Time>2019-10-04T12:04:11.000Z</Time>
            <Position>
              <LatitudeDegrees>43.20984207093715667724609375</LatitudeDegrees>
              <LongitudeDegrees>-5.7901310361921787261962890625</LongitudeDegrees>
            </Position>
            <AltitudeMeters>203.399993896484375</AltitudeMeters>
            <DistanceMeters>NAN</DistanceMeters>
          </Trackpoint>
          <Trackpoint>
            <Time>2019-10-04T12:04:13.000Z</Time>
            <Position>
              <LatitudeDegrees>43.20970837958157062530517578125</LatitudeDegrees>
              <LongitudeDegrees>-5.79032591544091701507568359375</LongitudeDegrees>
            </Position>
            <AltitudeMeters>203.600006103515625</AltitudeMeters>
            <DistanceMeters>NAN</DistanceMeters>
          </Trackpoint>
          <Trackpoint>
            <Time>2019-10-04T12:04:15.000Z</Time>
            <Position>
              <LatitudeDegrees>43.20956789888441562652587890625</LatitudeDegrees>
              <LongitudeDegrees>-5.790516436100006103515625</LongitudeDegrees>
            </Position>
            <AltitudeMeters>203.8000030517578125</AltitudeMeters>
            <DistanceMeters>NAN</DistanceMeters>
          </Trackpoint>
          <Trackpoint>
            <Time>2019-10-04T12:04:17.000Z</Time>
            <Position>
              <LatitudeDegrees>43.2094228081405162811279296875</LatitudeDegrees>
              <LongitudeDegrees>-5.79069756902754306793212890625</LongitudeDegrees>
            </Position>
            <AltitudeMeters>204</AltitudeMeters>
            <DistanceMeters>NAN</DistanceMeters>
          </Trackpoint>
          <Trackpoint>
            <Time>2019-10-04T12:04:19.000Z</Time>
            <Position>
              <LatitudeDegrees>43.20926765911281108856201171875</LatitudeDegrees>
              <LongitudeDegrees>-5.790862776339054107666015625</LongitudeDegrees>
            </Position>
            <AltitudeMeters>203.8000030517578125</AltitudeMeters>
            <DistanceMeters>NAN</DistanceMeters>
          </Trackpoint>
          <Trackpoint>
            <Time>2019-10-04T12:04:21.000Z</Time>
            <Position>
              <LatitudeDegrees>43.20910706184804439544677734375</LatitudeDegrees>
              <LongitudeDegrees>-5.7910165004432201385498046875</LongitudeDegrees>
            </Position>
            <AltitudeMeters>203.399993896484375</AltitudeMeters>
            <DistanceMeters>NAN</DistanceMeters>
          </Trackpoint>
          <Trackpoint>
            <Time>2019-10-04T12:04:24.000Z</Time>
            <Position>
              <LatitudeDegrees>43.2088551856577396392822265625</LatitudeDegrees>
              <LongitudeDegrees>-5.79121674410998821258544921875</LongitudeDegrees>
            </Position>
            <AltitudeMeters>203.600006103515625</AltitudeMeters>
            <DistanceMeters>NAN</DistanceMeters>
          </Trackpoint>
          <Trackpoint>
            <Time>2019-10-04T12:04:25.000Z</Time>
            <Position>
              <LatitudeDegrees>43.20876784622669219970703125</LatitudeDegrees>
              <LongitudeDegrees>-5.79126946628093719482421875</LongitudeDegrees>
            </Position>
            <AltitudeMeters>204</AltitudeMeters>
            <DistanceMeters>NAN</DistanceMeters>
          </Trackpoint>
          <Trackpoint>
            <Time>2019-10-04T12:04:27.000Z</Time>
            <Position>
              <LatitudeDegrees>43.20859475992619991302490234375</LatitudeDegrees>
              <LongitudeDegrees>-5.79134565778076648712158203125</LongitudeDegrees>
            </Position>
            <AltitudeMeters>204</AltitudeMeters>
            <DistanceMeters>NAN</DistanceMeters>
          </Trackpoint>
          <Trackpoint>
            <Time>2019-10-04T12:04:29.000Z</Time>
            <Position>
              <LatitudeDegrees>43.2084225118160247802734375</LatitudeDegrees>
              <LongitudeDegrees>-5.79138270579278469085693359375</LongitudeDegrees>
            </Position>
            <AltitudeMeters>203.8000030517578125</AltitudeMeters>
            <DistanceMeters>NAN</DistanceMeters>
          </Trackpoint>
          <Trackpoint>
            <Time>2019-10-04T12:04:35.000Z</Time>
            <Position>
              <LatitudeDegrees>43.207925297319889068603515625</LatitudeDegrees>
              <LongitudeDegrees>-5.79139293171465396881103515625</LongitudeDegrees>
            </Position>
            <AltitudeMeters>204</AltitudeMeters>
            <DistanceMeters>NAN</DistanceMeters>
          </Trackpoint>
          <Trackpoint>
            <Time>2019-10-04T12:04:37.000Z</Time>
            <Position>
              <LatitudeDegrees>43.2077719084918498992919921875</LatitudeDegrees>
              <LongitudeDegrees>-5.79137918539345264434814453125</LongitudeDegrees>
            </Position>
            <AltitudeMeters>204.1999969482421875</AltitudeMeters>
            <DistanceMeters>NAN</DistanceMeters>
          </Trackpoint>
          <Trackpoint>
            <Time>2019-10-04T12:04:39.000Z</Time>
            <Position>
              <LatitudeDegrees>43.2076220400631427764892578125</LatitudeDegrees>
              <LongitudeDegrees>-5.79134297557175159454345703125</LongitudeDegrees>
            </Position>
            <AltitudeMeters>204.1999969482421875</AltitudeMeters>
            <DistanceMeters>NAN</DistanceMeters>
          </Trackpoint>
          <Trackpoint>
            <Time>2019-10-04T12:04:40.000Z</Time>
            <Position>
              <LatitudeDegrees>43.2075506262481212615966796875</LatitudeDegrees>
              <LongitudeDegrees>-5.7913202606141567230224609375</LongitudeDegrees>
            </Position>
            <AltitudeMeters>204.1999969482421875</AltitudeMeters>
            <DistanceMeters>NAN</DistanceMeters>
          </Trackpoint>
          <Trackpoint>
            <Time>2019-10-04T12:04:48.000Z</Time>
            <Position>
              <LatitudeDegrees>43.20702818222343921661376953125</LatitudeDegrees>
              <LongitudeDegrees>-5.791139714419841766357421875</LongitudeDegrees>
            </Position>
            <AltitudeMeters>204.399993896484375</AltitudeMeters>
            <DistanceMeters>NAN</DistanceMeters>
          </Trackpoint>
          <Trackpoint>
            <Time>2019-10-04T12:04:51.000Z</Time>
            <Position>
              <LatitudeDegrees>43.2068512402474880218505859375</LatitudeDegrees>
              <LongitudeDegrees>-5.79106427729129791259765625</LongitudeDegrees>
            </Position>
            <AltitudeMeters>205</AltitudeMeters>
            <DistanceMeters>NAN</DistanceMeters>
          </Trackpoint>
          <Trackpoint>
            <Time>2019-10-04T12:04:54.000Z</Time>
            <Position>
              <LatitudeDegrees>43.20668485946953296661376953125</LatitudeDegrees>
              <LongitudeDegrees>-5.79096679575741291046142578125</LongitudeDegrees>
            </Position>
            <AltitudeMeters>205</AltitudeMeters>
            <DistanceMeters>NAN</DistanceMeters>
          </Trackpoint>
          <Trackpoint>
            <Time>2019-10-04T12:04:59.000Z</Time>
            <Position>
              <LatitudeDegrees>43.20645184256136417388916015625</LatitudeDegrees>
              <LongitudeDegrees>-5.79081474803388118743896484375</LongitudeDegrees>
            </Position>
            <AltitudeMeters>204.8000030517578125</AltitudeMeters>
            <DistanceMeters>NAN</DistanceMeters>
          </Trackpoint>
          <Trackpoint>
            <Time>2019-10-04T12:05:00.000Z</Time>
            <Position>
              <LatitudeDegrees>43.20641160942614078521728515625</LatitudeDegrees>
              <LongitudeDegrees>-5.790787674486637115478515625</LongitudeDegrees>
            </Position>
            <AltitudeMeters>205</AltitudeMeters>
            <DistanceMeters>NAN</DistanceMeters>
          </Trackpoint>
          <Trackpoint>
            <Time>2019-10-04T12:05:05.000Z</Time>
            <Position>
              <LatitudeDegrees>43.206234164535999298095703125</LatitudeDegrees>
              <LongitudeDegrees>-5.79067259095609188079833984375</LongitudeDegrees>
            </Position>
            <AltitudeMeters>205.1999969482421875</AltitudeMeters>
            <DistanceMeters>NAN</DistanceMeters>
          </Trackpoint>
          <Trackpoint>
            <Time>2019-10-04T12:05:06.000Z</Time>
            <Position>
              <LatitudeDegrees>43.20620407350361347198486328125</LatitudeDegrees>
              <LongitudeDegrees>-5.79065348021686077117919921875</LongitudeDegrees>
            </Position>
            <AltitudeMeters>205.1999969482421875</AltitudeMeters>
            <DistanceMeters>NAN</DistanceMeters>
          </Trackpoint>
          <Trackpoint>
            <Time>2019-10-04T12:05:09.000Z</Time>
            <Position>
              <LatitudeDegrees>43.20610080845654010772705078125</LatitudeDegrees>
              <LongitudeDegrees>-5.79061609692871570587158203125</LongitudeDegrees>
            </Position>
            <AltitudeMeters>205.399993896484375</AltitudeMeters>
            <DistanceMeters>NAN</DistanceMeters>
          </Trackpoint>
          <Trackpoint>
            <Time>2019-10-04T12:05:11.000Z</Time>
            <Position>
              <LatitudeDegrees>43.20603040046989917755126953125</LatitudeDegrees>
              <LongitudeDegrees>-5.790628083050251007080078125</LongitudeDegrees>
            </Position>
            <AltitudeMeters>205.399993896484375</AltitudeMeters>
            <DistanceMeters>NAN</DistanceMeters>
          </Trackpoint>
          <Trackpoint>
            <Time>2019-10-04T12:05:13.000Z</Time>
            <Position>
              <LatitudeDegrees>43.205963931977748870849609375</LatitudeDegrees>
              <LongitudeDegrees>-5.790664292871952056884765625</LongitudeDegrees>
            </Position>
            <AltitudeMeters>205.399993896484375</AltitudeMeters>
            <DistanceMeters>NAN</DistanceMeters>
          </Trackpoint>
          <Trackpoint>
            <Time>2019-10-04T12:05:15.000Z</Time>
            <Position>
              <LatitudeDegrees>43.20590768940746784210205078125</LatitudeDegrees>
              <LongitudeDegrees>-5.79071500338613986968994140625</LongitudeDegrees>
            </Position>
            <AltitudeMeters>205.1999969482421875</AltitudeMeters>
            <DistanceMeters>NAN</DistanceMeters>
          </Trackpoint>
          <Trackpoint>
            <Time>2019-10-04T12:05:16.000Z</Time>
            <Position>
              <LatitudeDegrees>43.20587499998509883880615234375</LatitudeDegrees>
              <LongitudeDegrees>-5.79074366949498653411865234375</LongitudeDegrees>
            </Position>
            <AltitudeMeters>205.600006103515625</AltitudeMeters>
            <DistanceMeters>NAN</DistanceMeters>
          </Trackpoint>
          <Trackpoint>
            <Time>2019-10-04T12:05:18.000Z</Time>
            <Position>
              <LatitudeDegrees>43.20580928586423397064208984375</LatitudeDegrees>
              <LongitudeDegrees>-5.79079999588429927825927734375</LongitudeDegrees>
            </Position>
            <AltitudeMeters>205.600006103515625</AltitudeMeters>
            <DistanceMeters>NAN</DistanceMeters>
          </Trackpoint>
          <Trackpoint>
            <Time>2019-10-04T12:05:21.000Z</Time>
            <Position>
              <LatitudeDegrees>43.20571457035839557647705078125</LatitudeDegrees>
              <LongitudeDegrees>-5.79087962396442890167236328125</LongitudeDegrees>
            </Position>
            <AltitudeMeters>205.1999969482421875</AltitudeMeters>
            <DistanceMeters>NAN</DistanceMeters>
          </Trackpoint>
          <Trackpoint>
            <Time>2019-10-04T12:05:23.000Z</Time>
            <Position>
              <LatitudeDegrees>43.20564575493335723876953125</LatitudeDegrees>
              <LongitudeDegrees>-5.790936537086963653564453125</LongitudeDegrees>
            </Position>
            <AltitudeMeters>205.399993896484375</AltitudeMeters>
            <DistanceMeters>NAN</DistanceMeters>
          </Trackpoint>
          <Trackpoint>
            <Time>2019-10-04T12:05:28.000Z</Time>
            <Position>
              <LatitudeDegrees>43.20545540191233158111572265625</LatitudeDegrees>
              <LongitudeDegrees>-5.791073329746723175048828125</LongitudeDegrees>
            </Position>
            <AltitudeMeters>205.399993896484375</AltitudeMeters>
            <DistanceMeters>NAN</DistanceMeters>
          </Trackpoint>
          <Trackpoint>
            <Time>2019-10-04T12:05:30.000Z</Time>
            <Position>
              <LatitudeDegrees>43.20536789484322071075439453125</LatitudeDegrees>
              <LongitudeDegrees>-5.791137032210826873779296875</LongitudeDegrees>
            </Position>
            <AltitudeMeters>205.600006103515625</AltitudeMeters>
            <DistanceMeters>NAN</DistanceMeters>
          </Trackpoint>
          <Trackpoint>
            <Time>2019-10-04T12:05:39.000Z</Time>
            <Position>
              <LatitudeDegrees>43.2049482129514217376708984375</LatitudeDegrees>
              <LongitudeDegrees>-5.79136879183351993560791015625</LongitudeDegrees>
            </Position>
            <AltitudeMeters>205.399993896484375</AltitudeMeters>
            <DistanceMeters>NAN</DistanceMeters>
          </Trackpoint>
          <Trackpoint>
            <Time>2019-10-04T12:05:46.000Z</Time>
            <Position>
              <LatitudeDegrees>43.20460195653140544891357421875</LatitudeDegrees>
              <LongitudeDegrees>-5.79148261807858943939208984375</LongitudeDegrees>
            </Position>
            <AltitudeMeters>205.399993896484375</AltitudeMeters>
            <DistanceMeters>NAN</DistanceMeters>
          </Trackpoint>
          <Trackpoint>
            <Time>2019-10-04T12:05:49.000Z</Time>
            <Position>
              <LatitudeDegrees>43.2044530101120471954345703125</LatitudeDegrees>
              <LongitudeDegrees>-5.79152620397508144378662109375</LongitudeDegrees>
            </Position>
            <AltitudeMeters>205.399993896484375</AltitudeMeters>
            <DistanceMeters>NAN</DistanceMeters>
          </Trackpoint>
          <Trackpoint>
            <Time>2019-10-04T12:05:55.000Z</Time>
            <Position>
              <LatitudeDegrees>43.20413324050605297088623046875</LatitudeDegrees>
              <LongitudeDegrees>-5.79156576655805110931396484375</LongitudeDegrees>
            </Position>
            <AltitudeMeters>205</AltitudeMeters>
            <DistanceMeters>NAN</DistanceMeters>
          </Trackpoint>
          <Trackpoint>
            <Time>2019-10-04T12:05:59.000Z</Time>
            <Position>
              <LatitudeDegrees>43.20391179062426090240478515625</LatitudeDegrees>
              <LongitudeDegrees>-5.791525281965732574462890625</LongitudeDegrees>
            </Position>
            <AltitudeMeters>205.1999969482421875</AltitudeMeters>
            <DistanceMeters>NAN</DistanceMeters>
          </Trackpoint>
          <Trackpoint>
            <Time>2019-10-04T12:06:01.000Z</Time>
            <Position>
              <LatitudeDegrees>43.20380466990172863006591796875</LatitudeDegrees>
              <LongitudeDegrees>-5.79146862030029296875</LongitudeDegrees>
            </Position>
            <AltitudeMeters>205.1999969482421875</AltitudeMeters>
            <DistanceMeters>NAN</DistanceMeters>
          </Trackpoint>
          <Trackpoint>
            <Time>2019-10-04T12:06:03.000Z</Time>
            <Position>
              <LatitudeDegrees>43.203700482845306396484375</LatitudeDegrees>
              <LongitudeDegrees>-5.7914084382355213165283203125</LongitudeDegrees>
            </Position>
            <AltitudeMeters>204.600006103515625</AltitudeMeters>
            <DistanceMeters>NAN</DistanceMeters>
          </Trackpoint>
          <Trackpoint>
            <Time>2019-10-04T12:06:06.000Z</Time>
            <Position>
              <LatitudeDegrees>43.20354986004531383514404296875</LatitudeDegrees>
              <LongitudeDegrees>-5.7913169078528881072998046875</LongitudeDegrees>
            </Position>
            <AltitudeMeters>204.600006103515625</AltitudeMeters>
            <DistanceMeters>NAN</DistanceMeters>
          </Trackpoint>
          <Trackpoint>
            <Time>2019-10-04T12:06:09.000Z</Time>
            <Position>
              <LatitudeDegrees>43.20340183563530445098876953125</LatitudeDegrees>
              <LongitudeDegrees>-5.79122864641249179840087890625</LongitudeDegrees>
            </Position>
            <AltitudeMeters>204.600006103515625</AltitudeMeters>
            <DistanceMeters>NAN</DistanceMeters>
          </Trackpoint>
          <Trackpoint>
            <Time>2019-10-04T12:06:10.000Z</Time>
            <Position>
              <LatitudeDegrees>43.20335422642529010772705078125</LatitudeDegrees>
              <LongitudeDegrees>-5.791192688047885894775390625</LongitudeDegrees>
            </Position>
            <AltitudeMeters>204.600006103515625</AltitudeMeters>
            <DistanceMeters>NAN</DistanceMeters>
          </Trackpoint>
          <Trackpoint>
            <Time>2019-10-04T12:06:14.000Z</Time>
            <Position>
              <LatitudeDegrees>43.20319530554115772247314453125</LatitudeDegrees>
              <LongitudeDegrees>-5.79100258648395538330078125</LongitudeDegrees>
            </Position>
            <AltitudeMeters>204.399993896484375</AltitudeMeters>
            <DistanceMeters>NAN</DistanceMeters>
          </Trackpoint>
          <Trackpoint>
            <Time>2019-10-04T12:06:23.000Z</Time>
            <Position>
              <LatitudeDegrees>43.20285818539559841156005859375</LatitudeDegrees>
              <LongitudeDegrees>-5.790595896542072296142578125</LongitudeDegrees>
            </Position>
            <AltitudeMeters>204.399993896484375</AltitudeMeters>
            <DistanceMeters>NAN</DistanceMeters>
          </Trackpoint>
          <Trackpoint>
            <Time>2019-10-04T12:06:31.000Z</Time>
            <Position>
              <LatitudeDegrees>43.202581666409969329833984375</LatitudeDegrees>
              <LongitudeDegrees>-5.790296159684658050537109375</LongitudeDegrees>
            </Position>
            <AltitudeMeters>204.1999969482421875</AltitudeMeters>
            <DistanceMeters>NAN</DistanceMeters>
          </Trackpoint>
          <Trackpoint>
            <Time>2019-10-04T12:06:32.000Z</Time>
            <Position>
              <LatitudeDegrees>43.20254688151180744171142578125</LatitudeDegrees>
              <LongitudeDegrees>-5.79026271589100360870361328125</LongitudeDegrees>
            </Position>
            <AltitudeMeters>204.399993896484375</AltitudeMeters>
            <DistanceMeters>NAN</DistanceMeters>
          </Trackpoint>
          <Trackpoint>
            <Time>2019-10-04T12:06:40.000Z</Time>
            <Position>
              <LatitudeDegrees>43.2022351585328578948974609375</LatitudeDegrees>
              <LongitudeDegrees>-5.79004461877048015594482421875</LongitudeDegrees>
            </Position>
            <AltitudeMeters>204</AltitudeMeters>
            <DistanceMeters>NAN</DistanceMeters>
          </Trackpoint>
          <Trackpoint>
            <Time>2019-10-04T12:06:47.000Z</Time>
            <Position>
              <LatitudeDegrees>43.20192226208746433258056640625</LatitudeDegrees>
              <LongitudeDegrees>-5.789924673736095428466796875</LongitudeDegrees>
            </Position>
            <AltitudeMeters>203.600006103515625</AltitudeMeters>
            <DistanceMeters>NAN</DistanceMeters>
          </Trackpoint>
          <Trackpoint>
            <Time>2019-10-04T12:06:48.000Z</Time>
            <Position>
              <LatitudeDegrees>43.20187515579164028167724609375</LatitudeDegrees>
              <LongitudeDegrees>-5.789921991527080535888671875</LongitudeDegrees>
            </Position>
            <AltitudeMeters>203.600006103515625</AltitudeMeters>
            <DistanceMeters>NAN</DistanceMeters>
          </Trackpoint>
          <Trackpoint>
            <Time>2019-10-04T12:06:50.000Z</Time>
            <Position>
              <LatitudeDegrees>43.20178329013288021087646484375</LatitudeDegrees>
              <LongitudeDegrees>-5.78993163071572780609130859375</LongitudeDegrees>
            </Position>
            <AltitudeMeters>203.399993896484375</AltitudeMeters>
            <DistanceMeters>NAN</DistanceMeters>
          </Trackpoint>
          <Trackpoint>
            <Time>2019-10-04T12:06:52.000Z</Time>
            <Position>
              <LatitudeDegrees>43.20169276557862758636474609375</LatitudeDegrees>
              <LongitudeDegrees>-5.78995526768267154693603515625</LongitudeDegrees>
            </Position>
            <AltitudeMeters>203.399993896484375</AltitudeMeters>
            <DistanceMeters>NAN</DistanceMeters>
          </Trackpoint>
          <Trackpoint>
            <Time>2019-10-04T12:06:54.000Z</Time>
            <Position>
              <LatitudeDegrees>43.201610706746578216552734375</LatitudeDegrees>
              <LongitudeDegrees>-5.79001159407198429107666015625</LongitudeDegrees>
            </Position>
            <AltitudeMeters>203.399993896484375</AltitudeMeters>
            <DistanceMeters>NAN</DistanceMeters>
          </Trackpoint>
          <Trackpoint>
            <Time>2019-10-04T12:06:56.000Z</Time>
            <Position>
              <LatitudeDegrees>43.2015515305101871490478515625</LatitudeDegrees>
              <LongitudeDegrees>-5.79009088687598705291748046875</LongitudeDegrees>
            </Position>
            <AltitudeMeters>203.1999969482421875</AltitudeMeters>
            <DistanceMeters>NAN</DistanceMeters>
          </Trackpoint>
          <Trackpoint>
            <Time>2019-10-04T12:07:00.000Z</Time>
            <Position>
              <LatitudeDegrees>43.2014217786490917205810546875</LatitudeDegrees>
              <LongitudeDegrees>-5.7901960797607898712158203125</LongitudeDegrees>
            </Position>
            <AltitudeMeters>203.1999969482421875</AltitudeMeters>
            <DistanceMeters>NAN</DistanceMeters>
          </Trackpoint>
          <Trackpoint>
            <Time>2019-10-04T12:07:01.000Z</Time>
            <Position>
              <LatitudeDegrees>43.20138229988515377044677734375</LatitudeDegrees>
              <LongitudeDegrees>-5.7902198843657970428466796875</LongitudeDegrees>
            </Position>
            <AltitudeMeters>202.8000030517578125</AltitudeMeters>
            <DistanceMeters>NAN</DistanceMeters>
          </Trackpoint>
          <Trackpoint>
            <Time>2019-10-04T12:07:02.000Z</Time>
            <Position>
              <LatitudeDegrees>43.201338462531566619873046875</LatitudeDegrees>
              <LongitudeDegrees>-5.79023874364793300628662109375</LongitudeDegrees>
            </Position>
            <AltitudeMeters>203</AltitudeMeters>
            <DistanceMeters>NAN</DistanceMeters>
          </Trackpoint>
          <Trackpoint>
            <Time>2019-10-04T12:07:07.000Z</Time>
            <Position>
              <LatitudeDegrees>43.20109748281538486480712890625</LatitudeDegrees>
              <LongitudeDegrees>-5.7903409190475940704345703125</LongitudeDegrees>
            </Position>
            <AltitudeMeters>202.399993896484375</AltitudeMeters>
            <DistanceMeters>NAN</DistanceMeters>
          </Trackpoint>
          <Trackpoint>
            <Time>2019-10-04T12:07:16.000Z</Time>
            <Position>
              <LatitudeDegrees>43.20064544677734375</LatitudeDegrees>
              <LongitudeDegrees>-5.7904944755136966705322265625</LongitudeDegrees>
            </Position>
            <AltitudeMeters>202</AltitudeMeters>
            <DistanceMeters>NAN</DistanceMeters>
          </Trackpoint>
          <Trackpoint>
            <Time>2019-10-04T12:07:22.000Z</Time>
            <Position>
              <LatitudeDegrees>43.20034126751124858856201171875</LatitudeDegrees>
              <LongitudeDegrees>-5.79057670198380947113037109375</LongitudeDegrees>
            </Position>
            <AltitudeMeters>201.600006103515625</AltitudeMeters>
            <DistanceMeters>NAN</DistanceMeters>
          </Trackpoint>
          <Trackpoint>
            <Time>2019-10-04T12:07:24.000Z</Time>
            <Position>
              <LatitudeDegrees>43.20024034939706325531005859375</LatitudeDegrees>
              <LongitudeDegrees>-5.79060805030167102813720703125</LongitudeDegrees>
            </Position>
            <AltitudeMeters>201.399993896484375</AltitudeMeters>
            <DistanceMeters>NAN</DistanceMeters>
          </Trackpoint>
          <Trackpoint>
            <Time>2019-10-04T12:07:34.000Z</Time>
            <Position>
              <LatitudeDegrees>43.1997360102832317352294921875</LatitudeDegrees>
              <LongitudeDegrees>-5.79074920155107975006103515625</LongitudeDegrees>
            </Position>
            <AltitudeMeters>201.1999969482421875</AltitudeMeters>
            <DistanceMeters>NAN</DistanceMeters>
          </Trackpoint>
          <Trackpoint>
            <Time>2019-10-04T12:07:39.000Z</Time>
            <Position>
              <LatitudeDegrees>43.19948916323482990264892578125</LatitudeDegrees>
              <LongitudeDegrees>-5.79082363285124301910400390625</LongitudeDegrees>
            </Position>
            <AltitudeMeters>201.1999969482421875</AltitudeMeters>
            <DistanceMeters>NAN</DistanceMeters>
          </Trackpoint>
          <Trackpoint>
            <Time>2019-10-04T12:07:42.000Z</Time>
            <Position>
              <LatitudeDegrees>43.1993326731026172637939453125</LatitudeDegrees>
              <LongitudeDegrees>-5.7908262312412261962890625</LongitudeDegrees>
            </Position>
            <AltitudeMeters>201.1999969482421875</AltitudeMeters>
            <DistanceMeters>NAN</DistanceMeters>
          </Trackpoint>
          <Trackpoint>
            <Time>2019-10-04T12:07:52.000Z</Time>
            <Position>
              <LatitudeDegrees>43.198807798326015472412109375</LatitudeDegrees>
              <LongitudeDegrees>-5.790757834911346435546875</LongitudeDegrees>
            </Position>
            <AltitudeMeters>201.399993896484375</AltitudeMeters>
            <DistanceMeters>NAN</DistanceMeters>
          </Trackpoint>
          <Trackpoint>
            <Time>2019-10-04T12:07:53.000Z</Time>
            <Position>
              <LatitudeDegrees>43.19875759072601795196533203125</LatitudeDegrees>
              <LongitudeDegrees>-5.79074450768530368804931640625</LongitudeDegrees>
            </Position>
            <AltitudeMeters>201.1999969482421875</AltitudeMeters>
            <DistanceMeters>NAN</DistanceMeters>
          </Trackpoint>
          <Trackpoint>
            <Time>2019-10-04T12:08:03.000Z</Time>
            <Position>
              <LatitudeDegrees>43.1982577778398990631103515625</LatitudeDegrees>
              <LongitudeDegrees>-5.79064694233238697052001953125</LongitudeDegrees>
            </Position>
            <AltitudeMeters>201.600006103515625</AltitudeMeters>
            <DistanceMeters>NAN</DistanceMeters>
          </Trackpoint>
          <Trackpoint>
            <Time>2019-10-04T12:08:12.000Z</Time>
            <Position>
              <LatitudeDegrees>43.1978165544569492340087890625</LatitudeDegrees>
              <LongitudeDegrees>-5.7906840741634368896484375</LongitudeDegrees>
            </Position>
            <AltitudeMeters>201</AltitudeMeters>
            <DistanceMeters>NAN</DistanceMeters>
          </Trackpoint>
          <Trackpoint>
            <Time>2019-10-04T12:08:20.000Z</Time>
            <Position>
              <LatitudeDegrees>43.19745353423058986663818359375</LatitudeDegrees>
              <LongitudeDegrees>-5.790792368352413177490234375</LongitudeDegrees>
            </Position>
            <AltitudeMeters>201.1999969482421875</AltitudeMeters>
            <DistanceMeters>NAN</DistanceMeters>
          </Trackpoint>
          <Trackpoint>
            <Time>2019-10-04T12:08:26.000Z</Time>
            <Position>
              <LatitudeDegrees>43.19722018204629421234130859375</LatitudeDegrees>
              <LongitudeDegrees>-5.7909521274268627166748046875</LongitudeDegrees>
            </Position>
            <AltitudeMeters>201.399993896484375</AltitudeMeters>
            <DistanceMeters>NAN</DistanceMeters>
          </Trackpoint>
          <Trackpoint>
            <Time>2019-10-04T12:08:35.000Z</Time>
            <Position>
              <LatitudeDegrees>43.19689764641225337982177734375</LatitudeDegrees>
              <LongitudeDegrees>-5.79127625562250614166259765625</LongitudeDegrees>
            </Position>
            <AltitudeMeters>201.1999969482421875</AltitudeMeters>
            <DistanceMeters>NAN</DistanceMeters>
          </Trackpoint>
          <Trackpoint>
            <Time>2019-10-04T12:08:44.000Z</Time>
            <Position>
              <LatitudeDegrees>43.196565806865692138671875</LatitudeDegrees>
              <LongitudeDegrees>-5.79168789088726043701171875</LongitudeDegrees>
            </Position>
            <AltitudeMeters>201.1999969482421875</AltitudeMeters>
            <DistanceMeters>NAN</DistanceMeters>
          </Trackpoint>
          <Trackpoint>
            <Time>2019-10-04T12:08:53.000Z</Time>
            <Position>
              <LatitudeDegrees>43.1961715221405029296875</LatitudeDegrees>
              <LongitudeDegrees>-5.7921507395803928375244140625</LongitudeDegrees>
            </Position>
            <AltitudeMeters>201</AltitudeMeters>
            <DistanceMeters>NAN</DistanceMeters>
          </Trackpoint>
          <Trackpoint>
            <Time>2019-10-04T12:08:57.000Z</Time>
            <Position>
              <LatitudeDegrees>43.1959862820804119110107421875</LatitudeDegrees>
              <LongitudeDegrees>-5.79233036376535892486572265625</LongitudeDegrees>
            </Position>
            <AltitudeMeters>201.1999969482421875</AltitudeMeters>
            <DistanceMeters>NAN</DistanceMeters>
          </Trackpoint>
          <Trackpoint>
            <Time>2019-10-04T12:09:00.000Z</Time>
            <Position>
              <LatitudeDegrees>43.19584236480295658111572265625</LatitudeDegrees>
              <LongitudeDegrees>-5.7924355566501617431640625</LongitudeDegrees>
            </Position>
            <AltitudeMeters>201.600006103515625</AltitudeMeters>
            <DistanceMeters>NAN</DistanceMeters>
          </Trackpoint>
          <Trackpoint>
            <Time>2019-10-04T12:09:05.000Z</Time>
            <Position>
              <LatitudeDegrees>43.1956060789525508880615234375</LatitudeDegrees>
              <LongitudeDegrees>-5.79263269901275634765625</LongitudeDegrees>
            </Position>
            <AltitudeMeters>201.600006103515625</AltitudeMeters>
            <DistanceMeters>NAN</DistanceMeters>
          </Trackpoint>
          <Trackpoint>
            <Time>2019-10-04T12:09:07.000Z</Time>
            <Position>
              <LatitudeDegrees>43.19550876505672931671142578125</LatitudeDegrees>
              <LongitudeDegrees>-5.79271526075899600982666015625</LongitudeDegrees>
            </Position>
            <AltitudeMeters>201.600006103515625</AltitudeMeters>
            <DistanceMeters>NAN</DistanceMeters>
          </Trackpoint>
          <Trackpoint>
            <Time>2019-10-04T12:09:10.000Z</Time>
            <Position>
              <LatitudeDegrees>43.19534515030682086944580078125</LatitudeDegrees>
              <LongitudeDegrees>-5.79282355494797229766845703125</LongitudeDegrees>
            </Position>
            <AltitudeMeters>201.399993896484375</AltitudeMeters>
            <DistanceMeters>NAN</DistanceMeters>
          </Trackpoint>
          <Trackpoint>
            <Time>2019-10-04T12:09:13.000Z</Time>
            <Position>
              <LatitudeDegrees>43.19516099989414215087890625</LatitudeDegrees>
              <LongitudeDegrees>-5.79289111308753490447998046875</LongitudeDegrees>
            </Position>
            <AltitudeMeters>201.1999969482421875</AltitudeMeters>
            <DistanceMeters>NAN</DistanceMeters>
          </Trackpoint>
          <Trackpoint>
            <Time>2019-10-04T12:09:17.000Z</Time>
            <Position>
              <LatitudeDegrees>43.19492152892053127288818359375</LatitudeDegrees>
              <LongitudeDegrees>-5.79295984469354152679443359375</LongitudeDegrees>
            </Position>
            <AltitudeMeters>201.399993896484375</AltitudeMeters>
            <DistanceMeters>NAN</DistanceMeters>
          </Trackpoint>
          <Trackpoint>
            <Time>2019-10-04T12:09:21.000Z</Time>
            <Position>
              <LatitudeDegrees>43.194699995219707489013671875</LatitudeDegrees>
              <LongitudeDegrees>-5.7930147461593151092529296875</LongitudeDegrees>
            </Position>
            <AltitudeMeters>201.399993896484375</AltitudeMeters>
            <DistanceMeters>NAN</DistanceMeters>
          </Trackpoint>
          <Trackpoint>
            <Time>2019-10-04T12:09:30.000Z</Time>
            <Position>
              <LatitudeDegrees>43.19424225948750972747802734375</LatitudeDegrees>
              <LongitudeDegrees>-5.7931180112063884735107421875</LongitudeDegrees>
            </Position>
            <AltitudeMeters>202</AltitudeMeters>
            <DistanceMeters>NAN</DistanceMeters>
          </Trackpoint>
          <Trackpoint>
            <Time>2019-10-04T12:09:34.000Z</Time>
            <Position>
              <LatitudeDegrees>43.19404779933393001556396484375</LatitudeDegrees>
              <LongitudeDegrees>-5.7931746728718280792236328125</LongitudeDegrees>
            </Position>
            <AltitudeMeters>202</AltitudeMeters>
            <DistanceMeters>NAN</DistanceMeters>
          </Trackpoint>
          <Trackpoint>
            <Time>2019-10-04T12:09:37.000Z</Time>
            <Position>
              <LatitudeDegrees>43.19390312768518924713134765625</LatitudeDegrees>
              <LongitudeDegrees>-5.79320736229419708251953125</LongitudeDegrees>
            </Position>
            <AltitudeMeters>202.1999969482421875</AltitudeMeters>
            <DistanceMeters>NAN</DistanceMeters>
          </Trackpoint>
          <Trackpoint>
            <Time>2019-10-04T12:09:45.000Z</Time>
            <Position>
              <LatitudeDegrees>43.193518817424774169921875</LatitudeDegrees>
              <LongitudeDegrees>-5.793279446661472320556640625</LongitudeDegrees>
            </Position>
            <AltitudeMeters>202.1999969482421875</AltitudeMeters>
            <DistanceMeters>NAN</DistanceMeters>
          </Trackpoint>
          <Trackpoint>
            <Time>2019-10-04T12:09:47.000Z</Time>
            <Position>
              <LatitudeDegrees>43.19341949187219142913818359375</LatitudeDegrees>
              <LongitudeDegrees>-5.79329109750688076019287109375</LongitudeDegrees>
            </Position>
            <AltitudeMeters>202.1999969482421875</AltitudeMeters>
            <DistanceMeters>NAN</DistanceMeters>
          </Trackpoint>
          <Trackpoint>
            <Time>2019-10-04T12:09:49.000Z</Time>
            <Position>
              <LatitudeDegrees>43.19332075305283069610595703125</LatitudeDegrees>
              <LongitudeDegrees>-5.79330534674227237701416015625</LongitudeDegrees>
            </Position>
            <AltitudeMeters>202.600006103515625</AltitudeMeters>
            <DistanceMeters>NAN</DistanceMeters>
          </Trackpoint>
          <Trackpoint>
            <Time>2019-10-04T12:09:52.000Z</Time>
            <Position>
              <LatitudeDegrees>43.193177841603755950927734375</LatitudeDegrees>
              <LongitudeDegrees>-5.79333250410854816436767578125</LongitudeDegrees>
            </Position>
            <AltitudeMeters>202.600006103515625</AltitudeMeters>
            <DistanceMeters>NAN</DistanceMeters>
          </Trackpoint>
          <Trackpoint>
            <Time>2019-10-04T12:09:53.000Z</Time>
            <Position>
              <LatitudeDegrees>43.19313048385083675384521484375</LatitudeDegrees>
              <LongitudeDegrees>-5.79333887435495853424072265625</LongitudeDegrees>
            </Position>
            <AltitudeMeters>202.600006103515625</AltitudeMeters>
            <DistanceMeters>NAN</DistanceMeters>
          </Trackpoint>
          <Trackpoint>
            <Time>2019-10-04T12:09:54.000Z</Time>
            <Position>
              <LatitudeDegrees>43.193081282079219818115234375</LatitudeDegrees>
              <LongitudeDegrees>-5.79334683716297149658203125</LongitudeDegrees>
            </Position>
            <AltitudeMeters>202.600006103515625</AltitudeMeters>
            <DistanceMeters>NAN</DistanceMeters>
          </Trackpoint>
          <Trackpoint>
            <Time>2019-10-04T12:09:57.000Z</Time>
            <Position>
              <LatitudeDegrees>43.19294541142880916595458984375</LatitudeDegrees>
              <LongitudeDegrees>-5.79336737282574176788330078125</LongitudeDegrees>
            </Position>
            <AltitudeMeters>202.1999969482421875</AltitudeMeters>
            <DistanceMeters>NAN</DistanceMeters>
          </Trackpoint>
          <Trackpoint>
            <Time>2019-10-04T12:09:59.000Z</Time>
            <Position>
              <LatitudeDegrees>43.1928630173206329345703125</LatitudeDegrees>
              <LongitudeDegrees>-5.79338748939335346221923828125</LongitudeDegrees>
            </Position>
            <AltitudeMeters>202.399993896484375</AltitudeMeters>
            <DistanceMeters>NAN</DistanceMeters>
          </Trackpoint>
          <Trackpoint>
            <Time>2019-10-04T12:10:02.000Z</Time>
            <Position>
              <LatitudeDegrees>43.192729242146015167236328125</LatitudeDegrees>
              <LongitudeDegrees>-5.79342998564243316650390625</LongitudeDegrees>
            </Position>
            <AltitudeMeters>202.600006103515625</AltitudeMeters>
            <DistanceMeters>NAN</DistanceMeters>
          </Trackpoint>
          <Trackpoint>
            <Time>2019-10-04T12:10:06.000Z</Time>
            <Position>
              <LatitudeDegrees>43.19254006259143352508544921875</LatitudeDegrees>
              <LongitudeDegrees>-5.793476589024066925048828125</LongitudeDegrees>
            </Position>
            <AltitudeMeters>203.1999969482421875</AltitudeMeters>
            <DistanceMeters>NAN</DistanceMeters>
          </Trackpoint>
          <Trackpoint>
            <Time>2019-10-04T12:10:10.000Z</Time>
            <Position>
              <LatitudeDegrees>43.19235767237842082977294921875</LatitudeDegrees>
              <LongitudeDegrees>-5.7935245335102081298828125</LongitudeDegrees>
            </Position>
            <AltitudeMeters>203</AltitudeMeters>
            <DistanceMeters>NAN</DistanceMeters>
          </Trackpoint>
          <Trackpoint>
            <Time>2019-10-04T12:10:13.000Z</Time>
            <Position>
              <LatitudeDegrees>43.19221518002450466156005859375</LatitudeDegrees>
              <LongitudeDegrees>-5.79356518574059009552001953125</LongitudeDegrees>
            </Position>
            <AltitudeMeters>203</AltitudeMeters>
            <DistanceMeters>NAN</DistanceMeters>
          </Trackpoint>
          <Trackpoint>
            <Time>2019-10-04T12:10:16.000Z</Time>
            <Position>
              <LatitudeDegrees>43.19206430576741695404052734375</LatitudeDegrees>
              <LongitudeDegrees>-5.7936157286167144775390625</LongitudeDegrees>
            </Position>
            <AltitudeMeters>203</AltitudeMeters>
            <DistanceMeters>NAN</DistanceMeters>
          </Trackpoint>
          <Trackpoint>
            <Time>2019-10-04T12:10:25.000Z</Time>
            <Position>
              <LatitudeDegrees>43.19159911014139652252197265625</LatitudeDegrees>
              <LongitudeDegrees>-5.79380339942872524261474609375</LongitudeDegrees>
            </Position>
            <AltitudeMeters>203</AltitudeMeters>
            <DistanceMeters>NAN</DistanceMeters>
          </Trackpoint>
          <Trackpoint>
            <Time>2019-10-04T12:10:28.000Z</Time>
            <Position>
              <LatitudeDegrees>43.191458545625209808349609375</LatitudeDegrees>
              <LongitudeDegrees>-5.7938780821859836578369140625</LongitudeDegrees>
            </Position>
            <AltitudeMeters>202.8000030517578125</AltitudeMeters>
            <DistanceMeters>NAN</DistanceMeters>
          </Trackpoint>
          <Trackpoint>
            <Time>2019-10-04T12:10:31.000Z</Time>
            <Position>
              <LatitudeDegrees>43.19132602773606777191162109375</LatitudeDegrees>
              <LongitudeDegrees>-5.79395611770451068878173828125</LongitudeDegrees>
            </Position>
            <AltitudeMeters>202.8000030517578125</AltitudeMeters>
            <DistanceMeters>NAN</DistanceMeters>
          </Trackpoint>
          <Trackpoint>
            <Time>2019-10-04T12:10:32.000Z</Time>
            <Position>
              <LatitudeDegrees>43.1912793405354022979736328125</LatitudeDegrees>
              <LongitudeDegrees>-5.7939743064343929290771484375</LongitudeDegrees>
            </Position>
            <AltitudeMeters>202.8000030517578125</AltitudeMeters>
            <DistanceMeters>NAN</DistanceMeters>
          </Trackpoint>
          <Trackpoint>
            <Time>2019-10-04T12:10:40.000Z</Time>
            <Position>
              <LatitudeDegrees>43.19089762866497039794921875</LatitudeDegrees>
              <LongitudeDegrees>-5.794070698320865631103515625</LongitudeDegrees>
            </Position>
            <AltitudeMeters>203</AltitudeMeters>
            <DistanceMeters>NAN</DistanceMeters>
          </Trackpoint>
          <Trackpoint>
            <Time>2019-10-04T12:10:49.000Z</Time>
            <Position>
              <LatitudeDegrees>43.19044827483594417572021484375</LatitudeDegrees>
              <LongitudeDegrees>-5.79415979795157909393310546875</LongitudeDegrees>
            </Position>
            <AltitudeMeters>203.1999969482421875</AltitudeMeters>
            <DistanceMeters>NAN</DistanceMeters>
          </Trackpoint>
          <Trackpoint>
            <Time>2019-10-04T12:10:57.000Z</Time>
            <Position>
              <LatitudeDegrees>43.1900267489254474639892578125</LatitudeDegrees>
              <LongitudeDegrees>-5.79423171468079090118408203125</LongitudeDegrees>
            </Position>
            <AltitudeMeters>202.8000030517578125</AltitudeMeters>
            <DistanceMeters>NAN</DistanceMeters>
          </Trackpoint>
          <Trackpoint>
            <Time>2019-10-04T12:11:02.000Z</Time>
            <Position>
              <LatitudeDegrees>43.18977051414549350738525390625</LatitudeDegrees>
              <LongitudeDegrees>-5.79427831806242465972900390625</LongitudeDegrees>
            </Position>
            <AltitudeMeters>202.600006103515625</AltitudeMeters>
            <DistanceMeters>NAN</DistanceMeters>
          </Trackpoint>
          <Trackpoint>
            <Time>2019-10-04T12:11:05.000Z</Time>
            <Position>
              <LatitudeDegrees>43.18962089717388153076171875</LatitudeDegrees>
              <LongitudeDegrees>-5.7943001948297023773193359375</LongitudeDegrees>
            </Position>
            <AltitudeMeters>203.399993896484375</AltitudeMeters>
            <DistanceMeters>NAN</DistanceMeters>
          </Trackpoint>
          <Trackpoint>
            <Time>2019-10-04T12:11:14.000Z</Time>
            <Position>
              <LatitudeDegrees>43.1891895644366741180419921875</LatitudeDegrees>
              <LongitudeDegrees>-5.7943622209131717681884765625</LongitudeDegrees>
            </Position>
            <AltitudeMeters>203.1999969482421875</AltitudeMeters>
            <DistanceMeters>NAN</DistanceMeters>
          </Trackpoint>
          <Trackpoint>
            <Time>2019-10-04T12:11:19.000Z</Time>
            <Position>
              <LatitudeDegrees>43.1889525242149829864501953125</LatitudeDegrees>
              <LongitudeDegrees>-5.79440974630415439605712890625</LongitudeDegrees>
            </Position>
            <AltitudeMeters>202.8000030517578125</AltitudeMeters>
            <DistanceMeters>NAN</DistanceMeters>
          </Trackpoint>
          <Trackpoint>
            <Time>2019-10-04T12:11:22.000Z</Time>
            <Position>
              <LatitudeDegrees>43.1888184137642383575439453125</LatitudeDegrees>
              <LongitudeDegrees>-5.794491469860076904296875</LongitudeDegrees>
            </Position>
            <AltitudeMeters>202.8000030517578125</AltitudeMeters>
            <DistanceMeters>NAN</DistanceMeters>
          </Trackpoint>
          <Trackpoint>
            <Time>2019-10-04T12:11:23.000Z</Time>
            <Position>
              <LatitudeDegrees>43.1887754984200000762939453125</LatitudeDegrees>
              <LongitudeDegrees>-5.79452290199697017669677734375</LongitudeDegrees>
            </Position>
            <AltitudeMeters>202.8000030517578125</AltitudeMeters>
            <DistanceMeters>NAN</DistanceMeters>
          </Trackpoint>
          <Trackpoint>
            <Time>2019-10-04T12:11:27.000Z</Time>
            <Position>
              <LatitudeDegrees>43.188630156219005584716796875</LatitudeDegrees>
              <LongitudeDegrees>-5.794666819274425506591796875</LongitudeDegrees>
            </Position>
            <AltitudeMeters>202.8000030517578125</AltitudeMeters>
            <DistanceMeters>NAN</DistanceMeters>
          </Trackpoint>
          <Trackpoint>
            <Time>2019-10-04T12:11:28.000Z</Time>
            <Position>
              <LatitudeDegrees>43.1885981373488903045654296875</LatitudeDegrees>
              <LongitudeDegrees>-5.79470277763903141021728515625</LongitudeDegrees>
            </Position>
            <AltitudeMeters>202.8000030517578125</AltitudeMeters>
            <DistanceMeters>NAN</DistanceMeters>
          </Trackpoint>
          <Trackpoint>
            <Time>2019-10-04T12:11:33.000Z</Time>
            <Position>
              <LatitudeDegrees>43.18845539353787899017333984375</LatitudeDegrees>
              <LongitudeDegrees>-5.7948839105665683746337890625</LongitudeDegrees>
            </Position>
            <AltitudeMeters>202.600006103515625</AltitudeMeters>
            <DistanceMeters>NAN</DistanceMeters>
          </Trackpoint>
          <Trackpoint>
            <Time>2019-10-04T12:11:36.000Z</Time>
            <Position>
              <LatitudeDegrees>43.18837928585708141326904296875</LatitudeDegrees>
              <LongitudeDegrees>-5.7949878461658954620361328125</LongitudeDegrees>
            </Position>
            <AltitudeMeters>202.399993896484375</AltitudeMeters>
            <DistanceMeters>NAN</DistanceMeters>
          </Trackpoint>
          <Trackpoint>
            <Time>2019-10-04T12:11:42.000Z</Time>
            <Position>
              <LatitudeDegrees>43.1882672198116779327392578125</LatitudeDegrees>
              <LongitudeDegrees>-5.79517216421663761138916015625</LongitudeDegrees>
            </Position>
            <AltitudeMeters>202.1999969482421875</AltitudeMeters>
            <DistanceMeters>NAN</DistanceMeters>
          </Trackpoint>
          <Trackpoint>
            <Time>2019-10-04T12:11:46.000Z</Time>
            <Position>
              <LatitudeDegrees>43.18820142187178134918212890625</LatitudeDegrees>
              <LongitudeDegrees>-5.7952939532697200775146484375</LongitudeDegrees>
            </Position>
            <AltitudeMeters>202</AltitudeMeters>
            <DistanceMeters>NAN</DistanceMeters>
          </Trackpoint>
          <Trackpoint>
            <Time>2019-10-04T12:11:50.000Z</Time>
            <Position>
              <LatitudeDegrees>43.188143670558929443359375</LatitudeDegrees>
              <LongitudeDegrees>-5.79541373066604137420654296875</LongitudeDegrees>
            </Position>
            <AltitudeMeters>202</AltitudeMeters>
            <DistanceMeters>NAN</DistanceMeters>
          </Trackpoint>
          <Trackpoint>
            <Time>2019-10-04T12:11:52.000Z</Time>
            <Position>
              <LatitudeDegrees>43.188115172088146209716796875</LatitudeDegrees>
              <LongitudeDegrees>-5.79547843895852565765380859375</LongitudeDegrees>
            </Position>
            <AltitudeMeters>202</AltitudeMeters>
            <DistanceMeters>NAN</DistanceMeters>
          </Trackpoint>
          <Trackpoint>
            <Time>2019-10-04T12:11:55.000Z</Time>
            <Position>
              <LatitudeDegrees>43.188082315027713775634765625</LatitudeDegrees>
              <LongitudeDegrees>-5.795585811138153076171875</LongitudeDegrees>
            </Position>
            <AltitudeMeters>201.600006103515625</AltitudeMeters>
            <DistanceMeters>NAN</DistanceMeters>
          </Trackpoint>
          <Trackpoint>
            <Time>2019-10-04T12:11:58.000Z</Time>
            <Position>
              <LatitudeDegrees>43.18806345574557781219482421875</LatitudeDegrees>
              <LongitudeDegrees>-5.7957065105438232421875</LongitudeDegrees>
            </Position>
            <AltitudeMeters>201.399993896484375</AltitudeMeters>
            <DistanceMeters>NAN</DistanceMeters>
          </Trackpoint>
          <Trackpoint>
            <Time>2019-10-04T12:11:59.000Z</Time>
            <Position>
              <LatitudeDegrees>43.188058845698833465576171875</LatitudeDegrees>
              <LongitudeDegrees>-5.79574984498322010040283203125</LongitudeDegrees>
            </Position>
            <AltitudeMeters>201.600006103515625</AltitudeMeters>
            <DistanceMeters>NAN</DistanceMeters>
          </Trackpoint>
          <Trackpoint>
            <Time>2019-10-04T12:12:05.000Z</Time>
            <Position>
              <LatitudeDegrees>43.18803369998931884765625</LatitudeDegrees>
              <LongitudeDegrees>-5.79602762125432491302490234375</LongitudeDegrees>
            </Position>
            <AltitudeMeters>201</AltitudeMeters>
            <DistanceMeters>NAN</DistanceMeters>
          </Trackpoint>
          <Trackpoint>
            <Time>2019-10-04T12:12:07.000Z</Time>
            <Position>
              <LatitudeDegrees>43.188014589250087738037109375</LatitudeDegrees>
              <LongitudeDegrees>-5.79614278860390186309814453125</LongitudeDegrees>
            </Position>
            <AltitudeMeters>200.8000030517578125</AltitudeMeters>
            <DistanceMeters>NAN</DistanceMeters>
          </Trackpoint>
          <Trackpoint>
            <Time>2019-10-04T12:12:08.000Z</Time>
            <Position>
              <LatitudeDegrees>43.18800126202404499053955078125</LatitudeDegrees>
              <LongitudeDegrees>-5.79620297066867351531982421875</LongitudeDegrees>
            </Position>
            <AltitudeMeters>201.1999969482421875</AltitudeMeters>
            <DistanceMeters>NAN</DistanceMeters>
          </Trackpoint>
          <Trackpoint>
            <Time>2019-10-04T12:12:10.000Z</Time>
            <Position>
              <LatitudeDegrees>43.187966309487819671630859375</LatitudeDegrees>
              <LongitudeDegrees>-5.7963269390165805816650390625</LongitudeDegrees>
            </Position>
            <AltitudeMeters>200.600006103515625</AltitudeMeters>
            <DistanceMeters>NAN</DistanceMeters>
          </Trackpoint>
          <Trackpoint>
            <Time>2019-10-04T12:12:13.000Z</Time>
            <Position>
              <LatitudeDegrees>43.187905959784984588623046875</LatitudeDegrees>
              <LongitudeDegrees>-5.79653061926364898681640625</LongitudeDegrees>
            </Position>
            <AltitudeMeters>200.399993896484375</AltitudeMeters>
            <DistanceMeters>NAN</DistanceMeters>
          </Trackpoint>
          <Trackpoint>
            <Time>2019-10-04T12:12:21.000Z</Time>
            <Position>
              <LatitudeDegrees>43.1877096556127071380615234375</LatitudeDegrees>
              <LongitudeDegrees>-5.7970811426639556884765625</LongitudeDegrees>
            </Position>
            <AltitudeMeters>200.1999969482421875</AltitudeMeters>
            <DistanceMeters>NAN</DistanceMeters>
          </Trackpoint>
          <Trackpoint>
            <Time>2019-10-04T12:12:22.000Z</Time>
            <Position>
              <LatitudeDegrees>43.18768442608416080474853515625</LatitudeDegrees>
              <LongitudeDegrees>-5.79714953899383544921875</LongitudeDegrees>
            </Position>
            <AltitudeMeters>200.1999969482421875</AltitudeMeters>
            <DistanceMeters>NAN</DistanceMeters>
          </Trackpoint>
          <Trackpoint>
            <Time>2019-10-04T12:12:27.000Z</Time>
            <Position>
              <LatitudeDegrees>43.1875728629529476165771484375</LatitudeDegrees>
              <LongitudeDegrees>-5.7974993996322154998779296875</LongitudeDegrees>
            </Position>
            <AltitudeMeters>200</AltitudeMeters>
            <DistanceMeters>NAN</DistanceMeters>
          </Trackpoint>
          <Trackpoint>
            <Time>2019-10-04T12:12:31.000Z</Time>
            <Position>
              <LatitudeDegrees>43.18752047605812549591064453125</LatitudeDegrees>
              <LongitudeDegrees>-5.7977917604148387908935546875</LongitudeDegrees>
            </Position>
            <AltitudeMeters>200.399993896484375</AltitudeMeters>
            <DistanceMeters>NAN</DistanceMeters>
          </Trackpoint>
          <Trackpoint>
            <Time>2019-10-04T12:12:35.000Z</Time>
            <Position>
              <LatitudeDegrees>43.18748409859836101531982421875</LatitudeDegrees>
              <LongitudeDegrees>-5.79806542955338954925537109375</LongitudeDegrees>
            </Position>
            <AltitudeMeters>199.8000030517578125</AltitudeMeters>
            <DistanceMeters>NAN</DistanceMeters>
          </Trackpoint>
          <Trackpoint>
            <Time>2019-10-04T12:12:39.000Z</Time>
            <Position>
              <LatitudeDegrees>43.1874434463679790496826171875</LatitudeDegrees>
              <LongitudeDegrees>-5.7983225025236606597900390625</LongitudeDegrees>
            </Position>
            <AltitudeMeters>200.1999969482421875</AltitudeMeters>
            <DistanceMeters>NAN</DistanceMeters>
          </Trackpoint>
          <Trackpoint>
            <Time>2019-10-04T12:12:50.000Z</Time>
            <Position>
              <LatitudeDegrees>43.1872920691967010498046875</LatitudeDegrees>
              <LongitudeDegrees>-5.799020044505596160888671875</LongitudeDegrees>
            </Position>
            <AltitudeMeters>200</AltitudeMeters>
            <DistanceMeters>NAN</DistanceMeters>
          </Trackpoint>
          <Trackpoint>
            <Time>2019-10-04T12:12:58.000Z</Time>
            <Position>
              <LatitudeDegrees>43.18714060820639133453369140625</LatitudeDegrees>
              <LongitudeDegrees>-5.7995097152888774871826171875</LongitudeDegrees>
            </Position>
            <AltitudeMeters>199.8000030517578125</AltitudeMeters>
            <DistanceMeters>NAN</DistanceMeters>
          </Trackpoint>
          <Trackpoint>
            <Time>2019-10-04T12:13:05.000Z</Time>
            <Position>
              <LatitudeDegrees>43.18697280250489711761474609375</LatitudeDegrees>
              <LongitudeDegrees>-5.7999177463352680206298828125</LongitudeDegrees>
            </Position>
            <AltitudeMeters>200</AltitudeMeters>
            <DistanceMeters>NAN</DistanceMeters>
          </Trackpoint>
          <Trackpoint>
            <Time>2019-10-04T12:13:06.000Z</Time>
            <Position>
              <LatitudeDegrees>43.18694262765347957611083984375</LatitudeDegrees>
              <LongitudeDegrees>-5.79997180961072444915771484375</LongitudeDegrees>
            </Position>
            <AltitudeMeters>200</AltitudeMeters>
            <DistanceMeters>NAN</DistanceMeters>
          </Trackpoint>
          <Trackpoint>
            <Time>2019-10-04T12:13:08.000Z</Time>
            <Position>
              <LatitudeDegrees>43.1868751533329486846923828125</LatitudeDegrees>
              <LongitudeDegrees>-5.80006518401205539703369140625</LongitudeDegrees>
            </Position>
            <AltitudeMeters>199.8000030517578125</AltitudeMeters>
            <DistanceMeters>NAN</DistanceMeters>
          </Trackpoint>
          <Trackpoint>
            <Time>2019-10-04T12:13:10.000Z</Time>
            <Position>
              <LatitudeDegrees>43.18680248223245143890380859375</LatitudeDegrees>
              <LongitudeDegrees>-5.80013995058834552764892578125</LongitudeDegrees>
            </Position>
            <AltitudeMeters>199.8000030517578125</AltitudeMeters>
            <DistanceMeters>NAN</DistanceMeters>
          </Trackpoint>
          <Trackpoint>
            <Time>2019-10-04T12:13:11.000Z</Time>
            <Position>
              <LatitudeDegrees>43.18676610477268695831298828125</LatitudeDegrees>
              <LongitudeDegrees>-5.800175406038761138916015625</LongitudeDegrees>
            </Position>
            <AltitudeMeters>200</AltitudeMeters>
            <DistanceMeters>NAN</DistanceMeters>
          </Trackpoint>
          <Trackpoint>
            <Time>2019-10-04T12:13:17.000Z</Time>
            <Position>
              <LatitudeDegrees>43.1865804456174373626708984375</LatitudeDegrees>
              <LongitudeDegrees>-5.80041588284075260162353515625</LongitudeDegrees>
            </Position>
            <AltitudeMeters>199.8000030517578125</AltitudeMeters>
            <DistanceMeters>NAN</DistanceMeters>
          </Trackpoint>
          <Trackpoint>
            <Time>2019-10-04T12:13:18.000Z</Time>
            <Position>
              <LatitudeDegrees>43.18655320443212985992431640625</LatitudeDegrees>
              <LongitudeDegrees>-5.80045812763273715972900390625</LongitudeDegrees>
            </Position>
            <AltitudeMeters>199.8000030517578125</AltitudeMeters>
            <DistanceMeters>NAN</DistanceMeters>
          </Trackpoint>
          <Trackpoint>
            <Time>2019-10-04T12:13:19.000Z</Time>
            <Position>
              <LatitudeDegrees>43.1865268014371395111083984375</LatitudeDegrees>
              <LongitudeDegrees>-5.800501964986324310302734375</LongitudeDegrees>
            </Position>
            <AltitudeMeters>199.600006103515625</AltitudeMeters>
            <DistanceMeters>NAN</DistanceMeters>
          </Trackpoint>
          <Trackpoint>
            <Time>2019-10-04T12:13:25.000Z</Time>
            <Position>
              <LatitudeDegrees>43.18637651391327381134033203125</LatitudeDegrees>
              <LongitudeDegrees>-5.8007854409515857696533203125</LongitudeDegrees>
            </Position>
            <AltitudeMeters>199.600006103515625</AltitudeMeters>
            <DistanceMeters>NAN</DistanceMeters>
          </Trackpoint>
          <Trackpoint>
            <Time>2019-10-04T12:13:26.000Z</Time>
            <Position>
              <LatitudeDegrees>43.18635874427855014801025390625</LatitudeDegrees>
              <LongitudeDegrees>-5.8008467964828014373779296875</LongitudeDegrees>
            </Position>
            <AltitudeMeters>200</AltitudeMeters>
            <DistanceMeters>NAN</DistanceMeters>
          </Trackpoint>
          <Trackpoint>
            <Time>2019-10-04T12:13:30.000Z</Time>
            <Position>
              <LatitudeDegrees>43.186338208615779876708984375</LatitudeDegrees>
              <LongitudeDegrees>-5.801115520298480987548828125</LongitudeDegrees>
            </Position>
            <AltitudeMeters>199.600006103515625</AltitudeMeters>
            <DistanceMeters>NAN</DistanceMeters>
          </Trackpoint>
          <Trackpoint>
            <Time>2019-10-04T12:13:37.000Z</Time>
            <Position>
              <LatitudeDegrees>43.1863631866872310638427734375</LatitudeDegrees>
              <LongitudeDegrees>-5.80156378448009490966796875</LongitudeDegrees>
            </Position>
            <AltitudeMeters>199.8000030517578125</AltitudeMeters>
            <DistanceMeters>NAN</DistanceMeters>
          </Trackpoint>
          <Trackpoint>
            <Time>2019-10-04T12:13:46.000Z</Time>
            <Position>
              <LatitudeDegrees>43.18638305179774761199951171875</LatitudeDegrees>
              <LongitudeDegrees>-5.80207130871713161468505859375</LongitudeDegrees>
            </Position>
            <AltitudeMeters>200</AltitudeMeters>
            <DistanceMeters>NAN</DistanceMeters>
          </Trackpoint>
          <Trackpoint>
            <Time>2019-10-04T12:13:54.000Z</Time>
            <Position>
              <LatitudeDegrees>43.18638506345450878143310546875</LatitudeDegrees>
              <LongitudeDegrees>-5.80257338471710681915283203125</LongitudeDegrees>
            </Position>
            <AltitudeMeters>199.600006103515625</AltitudeMeters>
            <DistanceMeters>NAN</DistanceMeters>
          </Trackpoint>
          <Trackpoint>
            <Time>2019-10-04T12:13:57.000Z</Time>
            <Position>
              <LatitudeDegrees>43.18640585057437419891357421875</LatitudeDegrees>
              <LongitudeDegrees>-5.80280791036784648895263671875</LongitudeDegrees>
            </Position>
            <AltitudeMeters>200</AltitudeMeters>
            <DistanceMeters>NAN</DistanceMeters>
          </Trackpoint>
          <Trackpoint>
            <Time>2019-10-04T12:13:59.000Z</Time>
            <Position>
              <LatitudeDegrees>43.18644708953797817230224609375</LatitudeDegrees>
              <LongitudeDegrees>-5.80296481959521770477294921875</LongitudeDegrees>
            </Position>
            <AltitudeMeters>199.600006103515625</AltitudeMeters>
            <DistanceMeters>NAN</DistanceMeters>
          </Trackpoint>
          <Trackpoint>
            <Time>2019-10-04T12:14:02.000Z</Time>
            <Position>
              <LatitudeDegrees>43.186554126441478729248046875</LatitudeDegrees>
              <LongitudeDegrees>-5.80318945460021495819091796875</LongitudeDegrees>
            </Position>
            <AltitudeMeters>199.8000030517578125</AltitudeMeters>
            <DistanceMeters>NAN</DistanceMeters>
          </Trackpoint>
          <Trackpoint>
            <Time>2019-10-04T12:14:03.000Z</Time>
            <Position>
              <LatitudeDegrees>43.18659410811960697174072265625</LatitudeDegrees>
              <LongitudeDegrees>-5.803267322480678558349609375</LongitudeDegrees>
            </Position>
            <AltitudeMeters>199.600006103515625</AltitudeMeters>
            <DistanceMeters>NAN</DistanceMeters>
          </Trackpoint>
          <Trackpoint>
            <Time>2019-10-04T12:14:05.000Z</Time>
            <Position>
              <LatitudeDegrees>43.1866625882685184478759765625</LatitudeDegrees>
              <LongitudeDegrees>-5.8034418337047100067138671875</LongitudeDegrees>
            </Position>
            <AltitudeMeters>199.1999969482421875</AltitudeMeters>
            <DistanceMeters>NAN</DistanceMeters>
          </Trackpoint>
          <Trackpoint>
            <Time>2019-10-04T12:14:07.000Z</Time>
            <Position>
              <LatitudeDegrees>43.1867169030010700225830078125</LatitudeDegrees>
              <LongitudeDegrees>-5.80364693887531757354736328125</LongitudeDegrees>
            </Position>
            <AltitudeMeters>199</AltitudeMeters>
            <DistanceMeters>NAN</DistanceMeters>
          </Trackpoint>
          <Trackpoint>
            <Time>2019-10-04T12:14:09.000Z</Time>
            <Position>
              <LatitudeDegrees>43.18675001151859760284423828125</LatitudeDegrees>
              <LongitudeDegrees>-5.803836286067962646484375</LongitudeDegrees>
            </Position>
            <AltitudeMeters>199</AltitudeMeters>
            <DistanceMeters>NAN</DistanceMeters>
          </Trackpoint>
          <Trackpoint>
            <Time>2019-10-04T12:14:10.000Z</Time>
            <Position>
              <LatitudeDegrees>43.18675973452627658843994140625</LatitudeDegrees>
              <LongitudeDegrees>-5.803933180868625640869140625</LongitudeDegrees>
            </Position>
            <AltitudeMeters>199</AltitudeMeters>
            <DistanceMeters>NAN</DistanceMeters>
          </Trackpoint>
          <Trackpoint>
            <Time>2019-10-04T12:14:12.000Z</Time>
            <Position>
              <LatitudeDegrees>43.18676157854497432708740234375</LatitudeDegrees>
              <LongitudeDegrees>-5.80412085168063640594482421875</LongitudeDegrees>
            </Position>
            <AltitudeMeters>199.399993896484375</AltitudeMeters>
            <DistanceMeters>NAN</DistanceMeters>
          </Trackpoint>
          <Trackpoint>
            <Time>2019-10-04T12:14:15.000Z</Time>
            <Position>
              <LatitudeDegrees>43.18674095906317234039306640625</LatitudeDegrees>
              <LongitudeDegrees>-5.80437197349965572357177734375</LongitudeDegrees>
            </Position>
            <AltitudeMeters>199</AltitudeMeters>
            <DistanceMeters>NAN</DistanceMeters>
          </Trackpoint>
          <Trackpoint>
            <Time>2019-10-04T12:14:17.000Z</Time>
            <Position>
              <LatitudeDegrees>43.18672235123813152313232421875</LatitudeDegrees>
              <LongitudeDegrees>-5.8045204170048236846923828125</LongitudeDegrees>
            </Position>
            <AltitudeMeters>199</AltitudeMeters>
            <DistanceMeters>NAN</DistanceMeters>
          </Trackpoint>
          <Trackpoint>
            <Time>2019-10-04T12:14:22.000Z</Time>
            <Position>
              <LatitudeDegrees>43.18669267930090427398681640625</LatitudeDegrees>
              <LongitudeDegrees>-5.804844461381435394287109375</LongitudeDegrees>
            </Position>
            <AltitudeMeters>199</AltitudeMeters>
            <DistanceMeters>NAN</DistanceMeters>
          </Trackpoint>
          <Trackpoint>
            <Time>2019-10-04T12:14:23.000Z</Time>
            <Position>
              <LatitudeDegrees>43.18669016472995281219482421875</LatitudeDegrees>
              <LongitudeDegrees>-5.8049022965133190155029296875</LongitudeDegrees>
            </Position>
            <AltitudeMeters>199</AltitudeMeters>
            <DistanceMeters>NAN</DistanceMeters>
          </Trackpoint>
          <Trackpoint>
            <Time>2019-10-04T12:14:27.000Z</Time>
            <Position>
              <LatitudeDegrees>43.18669385276734828948974609375</LatitudeDegrees>
              <LongitudeDegrees>-5.80513020046055316925048828125</LongitudeDegrees>
            </Position>
            <AltitudeMeters>199</AltitudeMeters>
            <DistanceMeters>NAN</DistanceMeters>
          </Trackpoint>
          <Trackpoint>
            <Time>2019-10-04T12:14:30.000Z</Time>
            <Position>
              <LatitudeDegrees>43.1867179088294506072998046875</LatitudeDegrees>
              <LongitudeDegrees>-5.80529565922915935516357421875</LongitudeDegrees>
            </Position>
            <AltitudeMeters>199.8000030517578125</AltitudeMeters>
            <DistanceMeters>NAN</DistanceMeters>
          </Trackpoint>
          <Trackpoint>
            <Time>2019-10-04T12:14:34.000Z</Time>
            <Position>
              <LatitudeDegrees>43.18676526658236980438232421875</LatitudeDegrees>
              <LongitudeDegrees>-5.80550621263682842254638671875</LongitudeDegrees>
            </Position>
            <AltitudeMeters>199.399993896484375</AltitudeMeters>
            <DistanceMeters>NAN</DistanceMeters>
          </Trackpoint>
          <Trackpoint>
            <Time>2019-10-04T12:14:38.000Z</Time>
            <Position>
              <LatitudeDegrees>43.18681396543979644775390625</LatitudeDegrees>
              <LongitudeDegrees>-5.805757082998752593994140625</LongitudeDegrees>
            </Position>
            <AltitudeMeters>199.600006103515625</AltitudeMeters>
            <DistanceMeters>NAN</DistanceMeters>
          </Trackpoint>
          <Trackpoint>
            <Time>2019-10-04T12:14:46.000Z</Time>
            <Position>
              <LatitudeDegrees>43.18691764958202838897705078125</LatitudeDegrees>
              <LongitudeDegrees>-5.806358568370342254638671875</LongitudeDegrees>
            </Position>
            <AltitudeMeters>199.600006103515625</AltitudeMeters>
            <DistanceMeters>NAN</DistanceMeters>
          </Trackpoint>
          <Trackpoint>
            <Time>2019-10-04T12:14:53.000Z</Time>
            <Position>
              <LatitudeDegrees>43.1870587170124053955078125</LatitudeDegrees>
              <LongitudeDegrees>-5.80689224414527416229248046875</LongitudeDegrees>
            </Position>
            <AltitudeMeters>199.600006103515625</AltitudeMeters>
            <DistanceMeters>NAN</DistanceMeters>
          </Trackpoint>
          <Trackpoint>
            <Time>2019-10-04T12:14:59.000Z</Time>
            <Position>
              <LatitudeDegrees>43.1871701963245868682861328125</LatitudeDegrees>
              <LongitudeDegrees>-5.8073437772691249847412109375</LongitudeDegrees>
            </Position>
            <AltitudeMeters>199.8000030517578125</AltitudeMeters>
            <DistanceMeters>NAN</DistanceMeters>
          </Trackpoint>
          <Trackpoint>
            <Time>2019-10-04T12:15:02.000Z</Time>
            <Position>
              <LatitudeDegrees>43.18718947470188140869140625</LatitudeDegrees>
              <LongitudeDegrees>-5.80758090130984783172607421875</LongitudeDegrees>
            </Position>
            <AltitudeMeters>199.600006103515625</AltitudeMeters>
            <DistanceMeters>NAN</DistanceMeters>
          </Trackpoint>
          <Trackpoint>
            <Time>2019-10-04T12:15:04.000Z</Time>
            <Position>
              <LatitudeDegrees>43.1871795840561389923095703125</LatitudeDegrees>
              <LongitudeDegrees>-5.8077494613826274871826171875</LongitudeDegrees>
            </Position>
            <AltitudeMeters>199.399993896484375</AltitudeMeters>
            <DistanceMeters>NAN</DistanceMeters>
          </Trackpoint>
          <Trackpoint>
            <Time>2019-10-04T12:15:11.000Z</Time>
            <Position>
              <LatitudeDegrees>43.18708377890288829803466796875</LatitudeDegrees>
              <LongitudeDegrees>-5.8083613403141498565673828125</LongitudeDegrees>
            </Position>
            <AltitudeMeters>199.399993896484375</AltitudeMeters>
            <DistanceMeters>NAN</DistanceMeters>
          </Trackpoint>
          <Trackpoint>
            <Time>2019-10-04T12:15:14.000Z</Time>
            <Position>
              <LatitudeDegrees>43.18703122437000274658203125</LatitudeDegrees>
              <LongitudeDegrees>-5.8086138032376766204833984375</LongitudeDegrees>
            </Position>
            <AltitudeMeters>199.600006103515625</AltitudeMeters>
            <DistanceMeters>NAN</DistanceMeters>
          </Trackpoint>
          <Trackpoint>
            <Time>2019-10-04T12:15:17.000Z</Time>
            <Position>
              <LatitudeDegrees>43.1869626604020595550537109375</LatitudeDegrees>
              <LongitudeDegrees>-5.8088324032723903656005859375</LongitudeDegrees>
            </Position>
            <AltitudeMeters>199.600006103515625</AltitudeMeters>
            <DistanceMeters>NAN</DistanceMeters>
          </Trackpoint>
          <Trackpoint>
            <Time>2019-10-04T12:15:18.000Z</Time>
            <Position>
              <LatitudeDegrees>43.18693592213094234466552734375</LatitudeDegrees>
              <LongitudeDegrees>-5.80890071578323841094970703125</LongitudeDegrees>
            </Position>
            <AltitudeMeters>199.600006103515625</AltitudeMeters>
            <DistanceMeters>NAN</DistanceMeters>
          </Trackpoint>
          <Trackpoint>
            <Time>2019-10-04T12:15:19.000Z</Time>
            <Position>
              <LatitudeDegrees>43.1869039870798587799072265625</LatitudeDegrees>
              <LongitudeDegrees>-5.80896693281829357147216796875</LongitudeDegrees>
            </Position>
            <AltitudeMeters>199.600006103515625</AltitudeMeters>
            <DistanceMeters>NAN</DistanceMeters>
          </Trackpoint>
          <Trackpoint>
            <Time>2019-10-04T12:15:23.000Z</Time>
            <Position>
              <LatitudeDegrees>43.18679116666316986083984375</LatitudeDegrees>
              <LongitudeDegrees>-5.809239931404590606689453125</LongitudeDegrees>
            </Position>
            <AltitudeMeters>199.8000030517578125</AltitudeMeters>
            <DistanceMeters>NAN</DistanceMeters>
          </Trackpoint>
          <Trackpoint>
            <Time>2019-10-04T12:15:25.000Z</Time>
            <Position>
              <LatitudeDegrees>43.186737857758998870849609375</LatitudeDegrees>
              <LongitudeDegrees>-5.80936792306602001190185546875</LongitudeDegrees>
            </Position>
            <AltitudeMeters>199.8000030517578125</AltitudeMeters>
            <DistanceMeters>NAN</DistanceMeters>
          </Trackpoint>
          <Trackpoint>
            <Time>2019-10-04T12:15:31.000Z</Time>
            <Position>
              <LatitudeDegrees>43.18658388219773769378662109375</LatitudeDegrees>
              <LongitudeDegrees>-5.809720717370510101318359375</LongitudeDegrees>
            </Position>
            <AltitudeMeters>200.1999969482421875</AltitudeMeters>
            <DistanceMeters>NAN</DistanceMeters>
          </Trackpoint>
          <Trackpoint>
            <Time>2019-10-04T12:15:34.000Z</Time>
            <Position>
              <LatitudeDegrees>43.186512887477874755859375</LatitudeDegrees>
              <LongitudeDegrees>-5.8098821528255939483642578125</LongitudeDegrees>
            </Position>
            <AltitudeMeters>200</AltitudeMeters>
            <DistanceMeters>NAN</DistanceMeters>
          </Trackpoint>
          <Trackpoint>
            <Time>2019-10-04T12:15:38.000Z</Time>
            <Position>
              <LatitudeDegrees>43.1864175014197826385498046875</LatitudeDegrees>
              <LongitudeDegrees>-5.81009346060454845428466796875</LongitudeDegrees>
            </Position>
            <AltitudeMeters>200.1999969482421875</AltitudeMeters>
            <DistanceMeters>NAN</DistanceMeters>
          </Trackpoint>
          <Trackpoint>
            <Time>2019-10-04T12:15:40.000Z</Time>
            <Position>
              <LatitudeDegrees>43.18637383170425891876220703125</LatitudeDegrees>
              <LongitudeDegrees>-5.81020309589803218841552734375</LongitudeDegrees>
            </Position>
            <AltitudeMeters>200</AltitudeMeters>
            <DistanceMeters>NAN</DistanceMeters>
          </Trackpoint>
          <Trackpoint>
            <Time>2019-10-04T12:15:45.000Z</Time>
            <Position>
              <LatitudeDegrees>43.1862781941890716552734375</LatitudeDegrees>
              <LongitudeDegrees>-5.81046226434409618377685546875</LongitudeDegrees>
            </Position>
            <AltitudeMeters>199</AltitudeMeters>
            <DistanceMeters>NAN</DistanceMeters>
          </Trackpoint>
          <Trackpoint>
            <Time>2019-10-04T12:15:47.000Z</Time>
            <Position>
              <LatitudeDegrees>43.1862364523112773895263671875</LatitudeDegrees>
              <LongitudeDegrees>-5.81056100316345691680908203125</LongitudeDegrees>
            </Position>
            <AltitudeMeters>198.399993896484375</AltitudeMeters>
            <DistanceMeters>NAN</DistanceMeters>
          </Trackpoint>
          <Trackpoint>
            <Time>2019-10-04T12:15:48.000Z</Time>
            <Position>
              <LatitudeDegrees>43.186215497553348541259765625</LatitudeDegrees>
              <LongitudeDegrees>-5.81060894764959812164306640625</LongitudeDegrees>
            </Position>
            <AltitudeMeters>198.1999969482421875</AltitudeMeters>
            <DistanceMeters>NAN</DistanceMeters>
          </Trackpoint>
          <Trackpoint>
            <Time>2019-10-04T12:15:52.000Z</Time>
            <Position>
              <LatitudeDegrees>43.18612539209425449371337890625</LatitudeDegrees>
              <LongitudeDegrees>-5.8107872307300567626953125</LongitudeDegrees>
            </Position>
            <AltitudeMeters>197.1999969482421875</AltitudeMeters>
            <DistanceMeters>NAN</DistanceMeters>
          </Trackpoint>
          <Trackpoint>
            <Time>2019-10-04T12:15:57.000Z</Time>
            <Position>
              <LatitudeDegrees>43.18600871600210666656494140625</LatitudeDegrees>
              <LongitudeDegrees>-5.8109831996262073516845703125</LongitudeDegrees>
            </Position>
            <AltitudeMeters>196.1999969482421875</AltitudeMeters>
            <DistanceMeters>NAN</DistanceMeters>
          </Trackpoint>
          <Trackpoint>
            <Time>2019-10-04T12:16:03.000Z</Time>
            <Position>
              <LatitudeDegrees>43.18585499189794063568115234375</LatitudeDegrees>
              <LongitudeDegrees>-5.81120607443153858184814453125</LongitudeDegrees>
            </Position>
            <AltitudeMeters>196.600006103515625</AltitudeMeters>
            <DistanceMeters>NAN</DistanceMeters>
          </Trackpoint>
          <Trackpoint>
            <Time>2019-10-04T12:16:07.000Z</Time>
            <Position>
              <LatitudeDegrees>43.18574300967156887054443359375</LatitudeDegrees>
              <LongitudeDegrees>-5.8113489858806133270263671875</LongitudeDegrees>
            </Position>
            <AltitudeMeters>196.600006103515625</AltitudeMeters>
            <DistanceMeters>NAN</DistanceMeters>
          </Trackpoint>
          <Trackpoint>
            <Time>2019-10-04T12:16:14.000Z</Time>
            <Position>
              <LatitudeDegrees>43.18554871715605258941650390625</LatitudeDegrees>
              <LongitudeDegrees>-5.811580158770084381103515625</LongitudeDegrees>
            </Position>
            <AltitudeMeters>196.8000030517578125</AltitudeMeters>
            <DistanceMeters>NAN</DistanceMeters>
          </Trackpoint>
          <Trackpoint>
            <Time>2019-10-04T12:16:16.000Z</Time>
            <Position>
              <LatitudeDegrees>43.18548954091966152191162109375</LatitudeDegrees>
              <LongitudeDegrees>-5.81164754927158355712890625</LongitudeDegrees>
            </Position>
            <AltitudeMeters>196.8000030517578125</AltitudeMeters>
            <DistanceMeters>NAN</DistanceMeters>
          </Trackpoint>
          <Trackpoint>
            <Time>2019-10-04T12:16:24.000Z</Time>
            <Position>
              <LatitudeDegrees>43.18526993505656719207763671875</LatitudeDegrees>
              <LongitudeDegrees>-5.8119169436395168304443359375</LongitudeDegrees>
            </Position>
            <AltitudeMeters>197.399993896484375</AltitudeMeters>
            <DistanceMeters>NAN</DistanceMeters>
          </Trackpoint>
          <Trackpoint>
            <Time>2019-10-04T12:16:32.000Z</Time>
            <Position>
              <LatitudeDegrees>43.18506089039146900177001953125</LatitudeDegrees>
              <LongitudeDegrees>-5.81220754422247409820556640625</LongitudeDegrees>
            </Position>
            <AltitudeMeters>197.399993896484375</AltitudeMeters>
            <DistanceMeters>NAN</DistanceMeters>
          </Trackpoint>
          <Trackpoint>
            <Time>2019-10-04T12:16:33.000Z</Time>
            <Position>
              <LatitudeDegrees>43.1850334815680980682373046875</LatitudeDegrees>
              <LongitudeDegrees>-5.8122408203780651092529296875</LongitudeDegrees>
            </Position>
            <AltitudeMeters>197.8000030517578125</AltitudeMeters>
            <DistanceMeters>NAN</DistanceMeters>
          </Trackpoint>
          <Trackpoint>
            <Time>2019-10-04T12:16:41.000Z</Time>
            <Position>
              <LatitudeDegrees>43.18481949158012866973876953125</LatitudeDegrees>
              <LongitudeDegrees>-5.81251968629658222198486328125</LongitudeDegrees>
            </Position>
            <AltitudeMeters>197.8000030517578125</AltitudeMeters>
            <DistanceMeters>NAN</DistanceMeters>
          </Trackpoint>
          <Trackpoint>
            <Time>2019-10-04T12:16:43.000Z</Time>
            <Position>
              <LatitudeDegrees>43.184765763580799102783203125</LatitudeDegrees>
              <LongitudeDegrees>-5.81259168684482574462890625</LongitudeDegrees>
            </Position>
            <AltitudeMeters>197.8000030517578125</AltitudeMeters>
            <DistanceMeters>NAN</DistanceMeters>
          </Trackpoint>
          <Trackpoint>
            <Time>2019-10-04T12:16:52.000Z</Time>
            <Position>
              <LatitudeDegrees>43.18451807834208011627197265625</LatitudeDegrees>
              <LongitudeDegrees>-5.8129033260047435760498046875</LongitudeDegrees>
            </Position>
            <AltitudeMeters>198</AltitudeMeters>
            <DistanceMeters>NAN</DistanceMeters>
          </Trackpoint>
          <Trackpoint>
            <Time>2019-10-04T12:16:57.000Z</Time>
            <Position>
              <LatitudeDegrees>43.18438748829066753387451171875</LatitudeDegrees>
              <LongitudeDegrees>-5.8130749873816967010498046875</LongitudeDegrees>
            </Position>
            <AltitudeMeters>198.600006103515625</AltitudeMeters>
            <DistanceMeters>NAN</DistanceMeters>
          </Trackpoint>
          <Trackpoint>
            <Time>2019-10-04T12:17:00.000Z</Time>
            <Position>
              <LatitudeDegrees>43.184306435286998748779296875</LatitudeDegrees>
              <LongitudeDegrees>-5.8131752349436283111572265625</LongitudeDegrees>
            </Position>
            <AltitudeMeters>198.1999969482421875</AltitudeMeters>
            <DistanceMeters>NAN</DistanceMeters>
          </Trackpoint>
          <Trackpoint>
            <Time>2019-10-04T12:17:05.000Z</Time>
            <Position>
              <LatitudeDegrees>43.1842157430946826934814453125</LatitudeDegrees>
              <LongitudeDegrees>-5.81340028904378414154052734375</LongitudeDegrees>
            </Position>
            <AltitudeMeters>198.1999969482421875</AltitudeMeters>
            <DistanceMeters>NAN</DistanceMeters>
          </Trackpoint>
          <Trackpoint>
            <Time>2019-10-04T12:17:12.000Z</Time>
            <Position>
              <LatitudeDegrees>43.184102587401866912841796875</LatitudeDegrees>
              <LongitudeDegrees>-5.813723243772983551025390625</LongitudeDegrees>
            </Position>
            <AltitudeMeters>198.1999969482421875</AltitudeMeters>
            <DistanceMeters>NAN</DistanceMeters>
          </Trackpoint>
          <Trackpoint>
            <Time>2019-10-04T12:17:20.000Z</Time>
            <Position>
              <LatitudeDegrees>43.1838700734078884124755859375</LatitudeDegrees>
              <LongitudeDegrees>-5.81412565894424915313720703125</LongitudeDegrees>
            </Position>
            <AltitudeMeters>198.399993896484375</AltitudeMeters>
            <DistanceMeters>NAN</DistanceMeters>
          </Trackpoint>
          <Trackpoint>
            <Time>2019-10-04T12:17:28.000Z</Time>
            <Position>
              <LatitudeDegrees>43.18359523080289363861083984375</LatitudeDegrees>
              <LongitudeDegrees>-5.81461214460432529449462890625</LongitudeDegrees>
            </Position>
            <AltitudeMeters>198.399993896484375</AltitudeMeters>
            <DistanceMeters>NAN</DistanceMeters>
          </Trackpoint>
          <Trackpoint>
            <Time>2019-10-04T12:17:34.000Z</Time>
            <Position>
              <LatitudeDegrees>43.183368332684040069580078125</LatitudeDegrees>
              <LongitudeDegrees>-5.8150108717381954193115234375</LongitudeDegrees>
            </Position>
            <AltitudeMeters>198.1999969482421875</AltitudeMeters>
            <DistanceMeters>NAN</DistanceMeters>
          </Trackpoint>
          <Trackpoint>
            <Time>2019-10-04T12:17:35.000Z</Time>
            <Position>
              <LatitudeDegrees>43.183330781757831573486328125</LatitudeDegrees>
              <LongitudeDegrees>-5.815079770982265472412109375</LongitudeDegrees>
            </Position>
            <AltitudeMeters>198.399993896484375</AltitudeMeters>
            <DistanceMeters>NAN</DistanceMeters>
          </Trackpoint>
          <Trackpoint>
            <Time>2019-10-04T12:17:39.000Z</Time>
            <Position>
              <LatitudeDegrees>43.1831750459969043731689453125</LatitudeDegrees>
              <LongitudeDegrees>-5.815350674092769622802734375</LongitudeDegrees>
            </Position>
            <AltitudeMeters>198.600006103515625</AltitudeMeters>
            <DistanceMeters>NAN</DistanceMeters>
          </Trackpoint>
          <Trackpoint>
            <Time>2019-10-04T12:17:43.000Z</Time>
            <Position>
              <LatitudeDegrees>43.18302190862596035003662109375</LatitudeDegrees>
              <LongitudeDegrees>-5.81561612896621227264404296875</LongitudeDegrees>
            </Position>
            <AltitudeMeters>198.600006103515625</AltitudeMeters>
            <DistanceMeters>NAN</DistanceMeters>
          </Trackpoint>
          <Trackpoint>
            <Time>2019-10-04T12:17:48.000Z</Time>
            <Position>
              <LatitudeDegrees>43.1828468106687068939208984375</LatitudeDegrees>
              <LongitudeDegrees>-5.81592123024165630340576171875</LongitudeDegrees>
            </Position>
            <AltitudeMeters>198.8000030517578125</AltitudeMeters>
            <DistanceMeters>NAN</DistanceMeters>
          </Trackpoint>
          <Trackpoint>
            <Time>2019-10-04T12:17:49.000Z</Time>
            <Position>
              <LatitudeDegrees>43.1828126125037670135498046875</LatitudeDegrees>
              <LongitudeDegrees>-5.815980322659015655517578125</LongitudeDegrees>
            </Position>
            <AltitudeMeters>198.8000030517578125</AltitudeMeters>
            <DistanceMeters>NAN</DistanceMeters>
          </Trackpoint>
          <Trackpoint>
            <Time>2019-10-04T12:17:53.000Z</Time>
            <Position>
              <LatitudeDegrees>43.182675652205944061279296875</LatitudeDegrees>
              <LongitudeDegrees>-5.816222727298736572265625</LongitudeDegrees>
            </Position>
            <AltitudeMeters>198.8000030517578125</AltitudeMeters>
            <DistanceMeters>NAN</DistanceMeters>
          </Trackpoint>
          <Trackpoint>
            <Time>2019-10-04T12:17:56.000Z</Time>
            <Position>
              <LatitudeDegrees>43.182578422129154205322265625</LatitudeDegrees>
              <LongitudeDegrees>-5.81639966927468776702880859375</LongitudeDegrees>
            </Position>
            <AltitudeMeters>198.8000030517578125</AltitudeMeters>
            <DistanceMeters>NAN</DistanceMeters>
          </Trackpoint>
          <Trackpoint>
            <Time>2019-10-04T12:17:58.000Z</Time>
            <Position>
              <LatitudeDegrees>43.1825155578553676605224609375</LatitudeDegrees>
              <LongitudeDegrees>-5.81650561653077602386474609375</LongitudeDegrees>
            </Position>
            <AltitudeMeters>199</AltitudeMeters>
            <DistanceMeters>NAN</DistanceMeters>
          </Trackpoint>
          <Trackpoint>
            <Time>2019-10-04T12:18:00.000Z</Time>
            <Position>
              <LatitudeDegrees>43.18245135247707366943359375</LatitudeDegrees>
              <LongitudeDegrees>-5.8166000805795192718505859375</LongitudeDegrees>
            </Position>
            <AltitudeMeters>198.8000030517578125</AltitudeMeters>
            <DistanceMeters>NAN</DistanceMeters>
          </Trackpoint>
          <Trackpoint>
            <Time>2019-10-04T12:18:05.000Z</Time>
            <Position>
              <LatitudeDegrees>43.1822895817458629608154296875</LatitudeDegrees>
              <LongitudeDegrees>-5.81681742332875728607177734375</LongitudeDegrees>
            </Position>
            <AltitudeMeters>199</AltitudeMeters>
            <DistanceMeters>NAN</DistanceMeters>
          </Trackpoint>
          <Trackpoint>
            <Time>2019-10-04T12:18:13.000Z</Time>
            <Position>
              <LatitudeDegrees>43.1820403039455413818359375</LatitudeDegrees>
              <LongitudeDegrees>-5.817145071923732757568359375</LongitudeDegrees>
            </Position>
            <AltitudeMeters>198.600006103515625</AltitudeMeters>
            <DistanceMeters>NAN</DistanceMeters>
          </Trackpoint>
          <Trackpoint>
            <Time>2019-10-04T12:18:21.000Z</Time>
            <Position>
              <LatitudeDegrees>43.18180091679096221923828125</LatitudeDegrees>
              <LongitudeDegrees>-5.8174463175237178802490234375</LongitudeDegrees>
            </Position>
            <AltitudeMeters>198.600006103515625</AltitudeMeters>
            <DistanceMeters>NAN</DistanceMeters>
          </Trackpoint>
          <Trackpoint>
            <Time>2019-10-04T12:18:22.000Z</Time>
            <Position>
              <LatitudeDegrees>43.1817699037492275238037109375</LatitudeDegrees>
              <LongitudeDegrees>-5.81748194061219692230224609375</LongitudeDegrees>
            </Position>
            <AltitudeMeters>198.8000030517578125</AltitudeMeters>
            <DistanceMeters>NAN</DistanceMeters>
          </Trackpoint>
          <Trackpoint>
            <Time>2019-10-04T12:18:23.000Z</Time>
            <Position>
              <LatitudeDegrees>43.1817390583455562591552734375</LatitudeDegrees>
              <LongitudeDegrees>-5.81751898862421512603759765625</LongitudeDegrees>
            </Position>
            <AltitudeMeters>198.8000030517578125</AltitudeMeters>
            <DistanceMeters>NAN</DistanceMeters>
          </Trackpoint>
          <Trackpoint>
            <Time>2019-10-04T12:18:28.000Z</Time>
            <Position>
              <LatitudeDegrees>43.18159304559230804443359375</LatitudeDegrees>
              <LongitudeDegrees>-5.81770707853138446807861328125</LongitudeDegrees>
            </Position>
            <AltitudeMeters>199</AltitudeMeters>
            <DistanceMeters>NAN</DistanceMeters>
          </Trackpoint>
          <Trackpoint>
            <Time>2019-10-04T12:18:31.000Z</Time>
            <Position>
              <LatitudeDegrees>43.18150428123772144317626953125</LatitudeDegrees>
              <LongitudeDegrees>-5.8178218267858028411865234375</LongitudeDegrees>
            </Position>
            <AltitudeMeters>199.1999969482421875</AltitudeMeters>
            <DistanceMeters>NAN</DistanceMeters>
          </Trackpoint>
          <Trackpoint>
            <Time>2019-10-04T12:18:35.000Z</Time>
            <Position>
              <LatitudeDegrees>43.18138592876493930816650390625</LatitudeDegrees>
              <LongitudeDegrees>-5.81797446124255657196044921875</LongitudeDegrees>
            </Position>
            <AltitudeMeters>199</AltitudeMeters>
            <DistanceMeters>NAN</DistanceMeters>
          </Trackpoint>
          <Trackpoint>
            <Time>2019-10-04T12:18:37.000Z</Time>
            <Position>
              <LatitudeDegrees>43.181327842175960540771484375</LatitudeDegrees>
              <LongitudeDegrees>-5.81804838962852954864501953125</LongitudeDegrees>
            </Position>
            <AltitudeMeters>199</AltitudeMeters>
            <DistanceMeters>NAN</DistanceMeters>
          </Trackpoint>
          <Trackpoint>
            <Time>2019-10-04T12:18:38.000Z</Time>
            <Position>
              <LatitudeDegrees>43.1812973320484161376953125</LatitudeDegrees>
              <LongitudeDegrees>-5.8180850185453891754150390625</LongitudeDegrees>
            </Position>
            <AltitudeMeters>199</AltitudeMeters>
            <DistanceMeters>NAN</DistanceMeters>
          </Trackpoint>
          <Trackpoint>
            <Time>2019-10-04T12:18:40.000Z</Time>
            <Position>
              <LatitudeDegrees>43.1812418438494205474853515625</LatitudeDegrees>
              <LongitudeDegrees>-5.81816556863486766815185546875</LongitudeDegrees>
            </Position>
            <AltitudeMeters>199</AltitudeMeters>
            <DistanceMeters>NAN</DistanceMeters>
          </Trackpoint>
          <Trackpoint>
            <Time>2019-10-04T12:18:45.000Z</Time>
            <Position>
              <LatitudeDegrees>43.18109281361103057861328125</LatitudeDegrees>
              <LongitudeDegrees>-5.8183589391410350799560546875</LongitudeDegrees>
            </Position>
            <AltitudeMeters>199</AltitudeMeters>
            <DistanceMeters>NAN</DistanceMeters>
          </Trackpoint>
          <Trackpoint>
            <Time>2019-10-04T12:18:52.000Z</Time>
            <Position>
              <LatitudeDegrees>43.1808710284531116485595703125</LatitudeDegrees>
              <LongitudeDegrees>-5.81866730935871601104736328125</LongitudeDegrees>
            </Position>
            <AltitudeMeters>199.1999969482421875</AltitudeMeters>
            <DistanceMeters>NAN</DistanceMeters>
          </Trackpoint>
          <Trackpoint>
            <Time>2019-10-04T12:18:58.000Z</Time>
            <Position>
              <LatitudeDegrees>43.18073750473558902740478515625</LatitudeDegrees>
              <LongitudeDegrees>-5.81903359852731227874755859375</LongitudeDegrees>
            </Position>
            <AltitudeMeters>199.1999969482421875</AltitudeMeters>
            <DistanceMeters>NAN</DistanceMeters>
          </Trackpoint>
          <Trackpoint>
            <Time>2019-10-04T12:19:04.000Z</Time>
            <Position>
              <LatitudeDegrees>43.1805441342294216156005859375</LatitudeDegrees>
              <LongitudeDegrees>-5.81936099566519260406494140625</LongitudeDegrees>
            </Position>
            <AltitudeMeters>199.1999969482421875</AltitudeMeters>
            <DistanceMeters>NAN</DistanceMeters>
          </Trackpoint>
          <Trackpoint>
            <Time>2019-10-04T12:19:10.000Z</Time>
            <Position>
              <LatitudeDegrees>43.18026191554963588714599609375</LatitudeDegrees>
              <LongitudeDegrees>-5.81961161457002162933349609375</LongitudeDegrees>
            </Position>
            <AltitudeMeters>199.1999969482421875</AltitudeMeters>
            <DistanceMeters>NAN</DistanceMeters>
          </Trackpoint>
          <Trackpoint>
            <Time>2019-10-04T12:19:14.000Z</Time>
            <Position>
              <LatitudeDegrees>43.18005421198904514312744140625</LatitudeDegrees>
              <LongitudeDegrees>-5.8197738043963909149169921875</LongitudeDegrees>
            </Position>
            <AltitudeMeters>199.600006103515625</AltitudeMeters>
            <DistanceMeters>NAN</DistanceMeters>
          </Trackpoint>
          <Trackpoint>
            <Time>2019-10-04T12:19:17.000Z</Time>
            <Position>
              <LatitudeDegrees>43.17989177070558071136474609375</LatitudeDegrees>
              <LongitudeDegrees>-5.819891989231109619140625</LongitudeDegrees>
            </Position>
            <AltitudeMeters>199.399993896484375</AltitudeMeters>
            <DistanceMeters>NAN</DistanceMeters>
          </Trackpoint>
          <Trackpoint>
            <Time>2019-10-04T12:19:20.000Z</Time>
            <Position>
              <LatitudeDegrees>43.17972899414598941802978515625</LatitudeDegrees>
              <LongitudeDegrees>-5.82001478411257266998291015625</LongitudeDegrees>
            </Position>
            <AltitudeMeters>199.399993896484375</AltitudeMeters>
            <DistanceMeters>NAN</DistanceMeters>
          </Trackpoint>
          <Trackpoint>
            <Time>2019-10-04T12:19:22.000Z</Time>
            <Position>
              <LatitudeDegrees>43.1796263158321380615234375</LatitudeDegrees>
              <LongitudeDegrees>-5.82010111771523952484130859375</LongitudeDegrees>
            </Position>
            <AltitudeMeters>199.600006103515625</AltitudeMeters>
            <DistanceMeters>NAN</DistanceMeters>
          </Trackpoint>
          <Trackpoint>
            <Time>2019-10-04T12:19:26.000Z</Time>
            <Position>
              <LatitudeDegrees>43.1794340349733829498291015625</LatitudeDegrees>
              <LongitudeDegrees>-5.82026070915162563323974609375</LongitudeDegrees>
            </Position>
            <AltitudeMeters>200</AltitudeMeters>
            <DistanceMeters>NAN</DistanceMeters>
          </Trackpoint>
          <Trackpoint>
            <Time>2019-10-04T12:19:29.000Z</Time>
            <Position>
              <LatitudeDegrees>43.17929833196103572845458984375</LatitudeDegrees>
              <LongitudeDegrees>-5.82036498002707958221435546875</LongitudeDegrees>
            </Position>
            <AltitudeMeters>200.1999969482421875</AltitudeMeters>
            <DistanceMeters>NAN</DistanceMeters>
          </Trackpoint>
          <Trackpoint>
            <Time>2019-10-04T12:19:31.000Z</Time>
            <Position>
              <LatitudeDegrees>43.17920998670160770416259765625</LatitudeDegrees>
              <LongitudeDegrees>-5.8204285986721515655517578125</LongitudeDegrees>
            </Position>
            <AltitudeMeters>200.1999969482421875</AltitudeMeters>
            <DistanceMeters>NAN</DistanceMeters>
          </Trackpoint>
          <Trackpoint>
            <Time>2019-10-04T12:19:33.000Z</Time>
            <Position>
              <LatitudeDegrees>43.17912315018475055694580078125</LatitudeDegrees>
              <LongitudeDegrees>-5.820488445460796356201171875</LongitudeDegrees>
            </Position>
            <AltitudeMeters>200.1999969482421875</AltitudeMeters>
            <DistanceMeters>NAN</DistanceMeters>
          </Trackpoint>
          <Trackpoint>
            <Time>2019-10-04T12:19:35.000Z</Time>
            <Position>
              <LatitudeDegrees>43.17903933115303516387939453125</LatitudeDegrees>
              <LongitudeDegrees>-5.82055424340069293975830078125</LongitudeDegrees>
            </Position>
            <AltitudeMeters>200.399993896484375</AltitudeMeters>
            <DistanceMeters>NAN</DistanceMeters>
          </Trackpoint>
          <Trackpoint>
            <Time>2019-10-04T12:19:38.000Z</Time>
            <Position>
              <LatitudeDegrees>43.178913183510303497314453125</LatitudeDegrees>
              <LongitudeDegrees>-5.82064912654459476470947265625</LongitudeDegrees>
            </Position>
            <AltitudeMeters>200.600006103515625</AltitudeMeters>
            <DistanceMeters>NAN</DistanceMeters>
          </Trackpoint>
          <Trackpoint>
            <Time>2019-10-04T12:19:43.000Z</Time>
            <Position>
              <LatitudeDegrees>43.17870522849261760711669921875</LatitudeDegrees>
              <LongitudeDegrees>-5.820800252258777618408203125</LongitudeDegrees>
            </Position>
            <AltitudeMeters>200.600006103515625</AltitudeMeters>
            <DistanceMeters>NAN</DistanceMeters>
          </Trackpoint>
          <Trackpoint>
            <Time>2019-10-04T12:19:48.000Z</Time>
            <Position>
              <LatitudeDegrees>43.1785078346729278564453125</LatitudeDegrees>
              <LongitudeDegrees>-5.82095305435359477996826171875</LongitudeDegrees>
            </Position>
            <AltitudeMeters>200.8000030517578125</AltitudeMeters>
            <DistanceMeters>NAN</DistanceMeters>
          </Trackpoint>
          <Trackpoint>
            <Time>2019-10-04T12:19:51.000Z</Time>
            <Position>
              <LatitudeDegrees>43.1783919967710971832275390625</LatitudeDegrees>
              <LongitudeDegrees>-5.82104726694524288177490234375</LongitudeDegrees>
            </Position>
            <AltitudeMeters>200.8000030517578125</AltitudeMeters>
            <DistanceMeters>NAN</DistanceMeters>
          </Trackpoint>
          <Trackpoint>
            <Time>2019-10-04T12:19:57.000Z</Time>
            <Position>
              <LatitudeDegrees>43.17815856076776981353759765625</LatitudeDegrees>
              <LongitudeDegrees>-5.8212470076978206634521484375</LongitudeDegrees>
            </Position>
            <AltitudeMeters>200.399993896484375</AltitudeMeters>
            <DistanceMeters>NAN</DistanceMeters>
          </Trackpoint>
          <Trackpoint>
            <Time>2019-10-04T12:20:00.000Z</Time>
            <Position>
              <LatitudeDegrees>43.17804272286593914031982421875</LatitudeDegrees>
              <LongitudeDegrees>-5.82134935073554515838623046875</LongitudeDegrees>
            </Position>
            <AltitudeMeters>200.8000030517578125</AltitudeMeters>
            <DistanceMeters>NAN</DistanceMeters>
          </Trackpoint>
          <Trackpoint>
            <Time>2019-10-04T12:20:10.000Z</Time>
            <Position>
              <LatitudeDegrees>43.1776631064713001251220703125</LatitudeDegrees>
              <LongitudeDegrees>-5.821705162525177001953125</LongitudeDegrees>
            </Position>
            <AltitudeMeters>200.600006103515625</AltitudeMeters>
            <DistanceMeters>NAN</DistanceMeters>
          </Trackpoint>
          <Trackpoint>
            <Time>2019-10-04T12:20:17.000Z</Time>
            <Position>
              <LatitudeDegrees>43.1773650459945201873779296875</LatitudeDegrees>
              <LongitudeDegrees>-5.8219410292804241180419921875</LongitudeDegrees>
            </Position>
            <AltitudeMeters>200.600006103515625</AltitudeMeters>
            <DistanceMeters>NAN</DistanceMeters>
          </Trackpoint>
          <Trackpoint>
            <Time>2019-10-04T12:20:23.000Z</Time>
            <Position>
              <LatitudeDegrees>43.1770622916519641876220703125</LatitudeDegrees>
              <LongitudeDegrees>-5.82213188521564006805419921875</LongitudeDegrees>
            </Position>
            <AltitudeMeters>200.399993896484375</AltitudeMeters>
            <DistanceMeters>NAN</DistanceMeters>
          </Trackpoint>
          <Trackpoint>
            <Time>2019-10-04T12:20:25.000Z</Time>
            <Position>
              <LatitudeDegrees>43.1769561767578125</LatitudeDegrees>
              <LongitudeDegrees>-5.82219894044101238250732421875</LongitudeDegrees>
            </Position>
            <AltitudeMeters>200.600006103515625</AltitudeMeters>
            <DistanceMeters>NAN</DistanceMeters>
          </Trackpoint>
          <Trackpoint>
            <Time>2019-10-04T12:20:31.000Z</Time>
            <Position>
              <LatitudeDegrees>43.1766260974109172821044921875</LatitudeDegrees>
              <LongitudeDegrees>-5.82239440642297267913818359375</LongitudeDegrees>
            </Position>
            <AltitudeMeters>200.600006103515625</AltitudeMeters>
            <DistanceMeters>NAN</DistanceMeters>
          </Trackpoint>
          <Trackpoint>
            <Time>2019-10-04T12:20:35.000Z</Time>
            <Position>
              <LatitudeDegrees>43.176413364708423614501953125</LatitudeDegrees>
              <LongitudeDegrees>-5.8225227333605289459228515625</LongitudeDegrees>
            </Position>
            <AltitudeMeters>201</AltitudeMeters>
            <DistanceMeters>NAN</DistanceMeters>
          </Trackpoint>
          <Trackpoint>
            <Time>2019-10-04T12:20:41.000Z</Time>
            <Position>
              <LatitudeDegrees>43.1760977022349834442138671875</LatitudeDegrees>
              <LongitudeDegrees>-5.82272775471210479736328125</LongitudeDegrees>
            </Position>
            <AltitudeMeters>201.1999969482421875</AltitudeMeters>
            <DistanceMeters>NAN</DistanceMeters>
          </Trackpoint>
          <Trackpoint>
            <Time>2019-10-04T12:20:43.000Z</Time>
            <Position>
              <LatitudeDegrees>43.17600022070109844207763671875</LatitudeDegrees>
              <LongitudeDegrees>-5.82280897535383701324462890625</LongitudeDegrees>
            </Position>
            <AltitudeMeters>201.1999969482421875</AltitudeMeters>
            <DistanceMeters>NAN</DistanceMeters>
          </Trackpoint>
          <Trackpoint>
            <Time>2019-10-04T12:20:48.000Z</Time>
            <Position>
              <LatitudeDegrees>43.17577265202999114990234375</LatitudeDegrees>
              <LongitudeDegrees>-5.8230246417224407196044921875</LongitudeDegrees>
            </Position>
            <AltitudeMeters>201.1999969482421875</AltitudeMeters>
            <DistanceMeters>NAN</DistanceMeters>
          </Trackpoint>
          <Trackpoint>
            <Time>2019-10-04T12:20:51.000Z</Time>
            <Position>
              <LatitudeDegrees>43.175644911825656890869140625</LatitudeDegrees>
              <LongitudeDegrees>-5.823159255087375640869140625</LongitudeDegrees>
            </Position>
            <AltitudeMeters>201.1999969482421875</AltitudeMeters>
            <DistanceMeters>NAN</DistanceMeters>
          </Trackpoint>
          <Trackpoint>
            <Time>2019-10-04T12:20:54.000Z</Time>
            <Position>
              <LatitudeDegrees>43.17553368397057056427001953125</LatitudeDegrees>
              <LongitudeDegrees>-5.8232968859374523162841796875</LongitudeDegrees>
            </Position>
            <AltitudeMeters>201.8000030517578125</AltitudeMeters>
            <DistanceMeters>NAN</DistanceMeters>
          </Trackpoint>
          <Trackpoint>
            <Time>2019-10-04T12:20:58.000Z</Time>
            <Position>
              <LatitudeDegrees>43.17539387382566928863525390625</LatitudeDegrees>
              <LongitudeDegrees>-5.8234866522252559661865234375</LongitudeDegrees>
            </Position>
            <AltitudeMeters>202</AltitudeMeters>
            <DistanceMeters>NAN</DistanceMeters>
          </Trackpoint>
          <Trackpoint>
            <Time>2019-10-04T12:21:05.000Z</Time>
            <Position>
              <LatitudeDegrees>43.17518432624638080596923828125</LatitudeDegrees>
              <LongitudeDegrees>-5.823832489550113677978515625</LongitudeDegrees>
            </Position>
            <AltitudeMeters>202.1999969482421875</AltitudeMeters>
            <DistanceMeters>NAN</DistanceMeters>
          </Trackpoint>
          <Trackpoint>
            <Time>2019-10-04T12:21:10.000Z</Time>
            <Position>
              <LatitudeDegrees>43.17504552192986011505126953125</LatitudeDegrees>
              <LongitudeDegrees>-5.82408620975911617279052734375</LongitudeDegrees>
            </Position>
            <AltitudeMeters>202.399993896484375</AltitudeMeters>
            <DistanceMeters>NAN</DistanceMeters>
          </Trackpoint>
          <Trackpoint>
            <Time>2019-10-04T12:21:13.000Z</Time>
            <Position>
              <LatitudeDegrees>43.17496002651751041412353515625</LatitudeDegrees>
              <LongitudeDegrees>-5.82422249950468540191650390625</LongitudeDegrees>
            </Position>
            <AltitudeMeters>202.600006103515625</AltitudeMeters>
            <DistanceMeters>NAN</DistanceMeters>
          </Trackpoint>
          <Trackpoint>
            <Time>2019-10-04T12:21:15.000Z</Time>
            <Position>
              <LatitudeDegrees>43.17490898072719573974609375</LatitudeDegrees>
              <LongitudeDegrees>-5.82430313341319561004638671875</LongitudeDegrees>
            </Position>
            <AltitudeMeters>202.600006103515625</AltitudeMeters>
            <DistanceMeters>NAN</DistanceMeters>
          </Trackpoint>
          <Trackpoint>
            <Time>2019-10-04T12:21:16.000Z</Time>
            <Position>
              <LatitudeDegrees>43.174884505569934844970703125</LatitudeDegrees>
              <LongitudeDegrees>-5.82434118725359439849853515625</LongitudeDegrees>
            </Position>
            <AltitudeMeters>202.8000030517578125</AltitudeMeters>
            <DistanceMeters>NAN</DistanceMeters>
          </Trackpoint>
          <Trackpoint>
            <Time>2019-10-04T12:21:18.000Z</Time>
            <Position>
              <LatitudeDegrees>43.17482985556125640869140625</LatitudeDegrees>
              <LongitudeDegrees>-5.8244197256863117218017578125</LongitudeDegrees>
            </Position>
            <AltitudeMeters>202.399993896484375</AltitudeMeters>
            <DistanceMeters>NAN</DistanceMeters>
          </Trackpoint>
          <Trackpoint>
            <Time>2019-10-04T12:21:25.000Z</Time>
            <Position>
              <LatitudeDegrees>43.1746097467839717864990234375</LatitudeDegrees>
              <LongitudeDegrees>-5.8246805705130100250244140625</LongitudeDegrees>
            </Position>
            <AltitudeMeters>203</AltitudeMeters>
            <DistanceMeters>NAN</DistanceMeters>
          </Trackpoint>
          <Trackpoint>
            <Time>2019-10-04T12:21:27.000Z</Time>
            <Position>
              <LatitudeDegrees>43.1745462119579315185546875</LatitudeDegrees>
              <LongitudeDegrees>-5.824747122824192047119140625</LongitudeDegrees>
            </Position>
            <AltitudeMeters>203.399993896484375</AltitudeMeters>
            <DistanceMeters>NAN</DistanceMeters>
          </Trackpoint>
          <Trackpoint>
            <Time>2019-10-04T12:21:34.000Z</Time>
            <Position>
              <LatitudeDegrees>43.17433037795126438140869140625</LatitudeDegrees>
              <LongitudeDegrees>-5.82496605813503265380859375</LongitudeDegrees>
            </Position>
            <AltitudeMeters>203.8000030517578125</AltitudeMeters>
            <DistanceMeters>NAN</DistanceMeters>
          </Trackpoint>
          <Trackpoint>
            <Time>2019-10-04T12:21:36.000Z</Time>
            <Position>
              <LatitudeDegrees>43.17427354864776134490966796875</LatitudeDegrees>
              <LongitudeDegrees>-5.825031436979770660400390625</LongitudeDegrees>
            </Position>
            <AltitudeMeters>204</AltitudeMeters>
            <DistanceMeters>NAN</DistanceMeters>
          </Trackpoint>
          <Trackpoint>
            <Time>2019-10-04T12:21:43.000Z</Time>
            <Position>
              <LatitudeDegrees>43.1740231812000274658203125</LatitudeDegrees>
              <LongitudeDegrees>-5.8252491988241672515869140625</LongitudeDegrees>
            </Position>
            <AltitudeMeters>204.399993896484375</AltitudeMeters>
            <DistanceMeters>NAN</DistanceMeters>
          </Trackpoint>
          <Trackpoint>
            <Time>2019-10-04T12:21:50.000Z</Time>
            <Position>
              <LatitudeDegrees>43.1737018190324306488037109375</LatitudeDegrees>
              <LongitudeDegrees>-5.8255147375166416168212890625</LongitudeDegrees>
            </Position>
            <AltitudeMeters>204.1999969482421875</AltitudeMeters>
            <DistanceMeters>NAN</DistanceMeters>
          </Trackpoint>
          <Trackpoint>
            <Time>2019-10-04T12:21:51.000Z</Time>
            <Position>
              <LatitudeDegrees>43.1736475042998790740966796875</LatitudeDegrees>
              <LongitudeDegrees>-5.8255469240248203277587890625</LongitudeDegrees>
            </Position>
            <AltitudeMeters>204</AltitudeMeters>
            <DistanceMeters>NAN</DistanceMeters>
          </Trackpoint>
          <Trackpoint>
            <Time>2019-10-04T12:21:55.000Z</Time>
            <Position>
              <LatitudeDegrees>43.17341364920139312744140625</LatitudeDegrees>
              <LongitudeDegrees>-5.825645662844181060791015625</LongitudeDegrees>
            </Position>
            <AltitudeMeters>204.399993896484375</AltitudeMeters>
            <DistanceMeters>NAN</DistanceMeters>
          </Trackpoint>
          <Trackpoint>
            <Time>2019-10-04T12:22:04.000Z</Time>
            <Position>
              <LatitudeDegrees>43.1728686578571796417236328125</LatitudeDegrees>
              <LongitudeDegrees>-5.82584582269191741943359375</LongitudeDegrees>
            </Position>
            <AltitudeMeters>204.600006103515625</AltitudeMeters>
            <DistanceMeters>NAN</DistanceMeters>
          </Trackpoint>
          <Trackpoint>
            <Time>2019-10-04T12:22:05.000Z</Time>
            <Position>
              <LatitudeDegrees>43.1728113256394863128662109375</LatitudeDegrees>
              <LongitudeDegrees>-5.8258697949349880218505859375</LongitudeDegrees>
            </Position>
            <AltitudeMeters>204.399993896484375</AltitudeMeters>
            <DistanceMeters>NAN</DistanceMeters>
          </Trackpoint>
          <Trackpoint>
            <Time>2019-10-04T12:22:09.000Z</Time>
            <Position>
              <LatitudeDegrees>43.17259314469993114471435546875</LatitudeDegrees>
              <LongitudeDegrees>-5.826007425785064697265625</LongitudeDegrees>
            </Position>
            <AltitudeMeters>204.600006103515625</AltitudeMeters>
            <DistanceMeters>NAN</DistanceMeters>
          </Trackpoint>
          <Trackpoint>
            <Time>2019-10-04T12:22:11.000Z</Time>
            <Position>
              <LatitudeDegrees>43.1725008599460124969482421875</LatitudeDegrees>
              <LongitudeDegrees>-5.82609484903514385223388671875</LongitudeDegrees>
            </Position>
            <AltitudeMeters>204.600006103515625</AltitudeMeters>
            <DistanceMeters>NAN</DistanceMeters>
          </Trackpoint>
          <Trackpoint>
            <Time>2019-10-04T12:22:12.000Z</Time>
            <Position>
              <LatitudeDegrees>43.17245735786855220794677734375</LatitudeDegrees>
              <LongitudeDegrees>-5.82613910548388957977294921875</LongitudeDegrees>
            </Position>
            <AltitudeMeters>205</AltitudeMeters>
            <DistanceMeters>NAN</DistanceMeters>
          </Trackpoint>
          <Trackpoint>
            <Time>2019-10-04T12:22:14.000Z</Time>
            <Position>
              <LatitudeDegrees>43.17237203009426593780517578125</LatitudeDegrees>
              <LongitudeDegrees>-5.82621739245951175689697265625</LongitudeDegrees>
            </Position>
            <AltitudeMeters>205</AltitudeMeters>
            <DistanceMeters>NAN</DistanceMeters>
          </Trackpoint>
          <Trackpoint>
            <Time>2019-10-04T12:22:15.000Z</Time>
            <Position>
              <LatitudeDegrees>43.17233799956738948822021484375</LatitudeDegrees>
              <LongitudeDegrees>-5.8262570388615131378173828125</LongitudeDegrees>
            </Position>
            <AltitudeMeters>205</AltitudeMeters>
            <DistanceMeters>NAN</DistanceMeters>
          </Trackpoint>
          <Trackpoint>
            <Time>2019-10-04T12:22:17.000Z</Time>
            <Position>
              <LatitudeDegrees>43.17226289771497249603271484375</LatitudeDegrees>
              <LongitudeDegrees>-5.82632836885750293731689453125</LongitudeDegrees>
            </Position>
            <AltitudeMeters>205</AltitudeMeters>
            <DistanceMeters>NAN</DistanceMeters>
          </Trackpoint>
          <Trackpoint>
            <Time>2019-10-04T12:22:18.000Z</Time>
            <Position>
              <LatitudeDegrees>43.1722323037683963775634765625</LatitudeDegrees>
              <LongitudeDegrees>-5.8263649977743625640869140625</LongitudeDegrees>
            </Position>
            <AltitudeMeters>205</AltitudeMeters>
            <DistanceMeters>NAN</DistanceMeters>
          </Trackpoint>
          <Trackpoint>
            <Time>2019-10-04T12:22:22.000Z</Time>
            <Position>
              <LatitudeDegrees>43.172092996537685394287109375</LatitudeDegrees>
              <LongitudeDegrees>-5.8265017904341220855712890625</LongitudeDegrees>
            </Position>
            <AltitudeMeters>205.600006103515625</AltitudeMeters>
            <DistanceMeters>NAN</DistanceMeters>
          </Trackpoint>
          <Trackpoint>
            <Time>2019-10-04T12:22:30.000Z</Time>
            <Position>
              <LatitudeDegrees>43.1718023121356964111328125</LatitudeDegrees>
              <LongitudeDegrees>-5.82676791585981845855712890625</LongitudeDegrees>
            </Position>
            <AltitudeMeters>205.8000030517578125</AltitudeMeters>
            <DistanceMeters>NAN</DistanceMeters>
          </Trackpoint>
          <Trackpoint>
            <Time>2019-10-04T12:22:31.000Z</Time>
            <Position>
              <LatitudeDegrees>43.17176752723753452301025390625</LatitudeDegrees>
              <LongitudeDegrees>-5.82679959945380687713623046875</LongitudeDegrees>
            </Position>
            <AltitudeMeters>205.8000030517578125</AltitudeMeters>
            <DistanceMeters>NAN</DistanceMeters>
          </Trackpoint>
          <Trackpoint>
            <Time>2019-10-04T12:22:32.000Z</Time>
            <Position>
              <LatitudeDegrees>43.17173265852034091949462890625</LatitudeDegrees>
              <LongitudeDegrees>-5.82683145068585872650146484375</LongitudeDegrees>
            </Position>
            <AltitudeMeters>206.1999969482421875</AltitudeMeters>
            <DistanceMeters>NAN</DistanceMeters>
          </Trackpoint>
          <Trackpoint>
            <Time>2019-10-04T12:22:35.000Z</Time>
            <Position>
              <LatitudeDegrees>43.171630315482616424560546875</LatitudeDegrees>
              <LongitudeDegrees>-5.8269232325255870819091796875</LongitudeDegrees>
            </Position>
            <AltitudeMeters>206</AltitudeMeters>
            <DistanceMeters>NAN</DistanceMeters>
          </Trackpoint>
          <Trackpoint>
            <Time>2019-10-04T12:22:39.000Z</Time>
            <Position>
              <LatitudeDegrees>43.1715044192969799041748046875</LatitudeDegrees>
              <LongitudeDegrees>-5.82703697495162487030029296875</LongitudeDegrees>
            </Position>
            <AltitudeMeters>206</AltitudeMeters>
            <DistanceMeters>NAN</DistanceMeters>
          </Trackpoint>
          <Trackpoint>
            <Time>2019-10-04T12:22:40.000Z</Time>
            <Position>
              <LatitudeDegrees>43.171474076807498931884765625</LatitudeDegrees>
              <LongitudeDegrees>-5.8270620368421077728271484375</LongitudeDegrees>
            </Position>
            <AltitudeMeters>206</AltitudeMeters>
            <DistanceMeters>NAN</DistanceMeters>
          </Trackpoint>
          <Trackpoint>
            <Time>2019-10-04T12:22:47.000Z</Time>
            <Position>
              <LatitudeDegrees>43.171244077384471893310546875</LatitudeDegrees>
              <LongitudeDegrees>-5.82727275788784027099609375</LongitudeDegrees>
            </Position>
            <AltitudeMeters>206.1999969482421875</AltitudeMeters>
            <DistanceMeters>NAN</DistanceMeters>
          </Trackpoint>
          <Trackpoint>
            <Time>2019-10-04T12:22:55.000Z</Time>
            <Position>
              <LatitudeDegrees>43.17095682956278324127197265625</LatitudeDegrees>
              <LongitudeDegrees>-5.827514491975307464599609375</LongitudeDegrees>
            </Position>
            <AltitudeMeters>206.1999969482421875</AltitudeMeters>
            <DistanceMeters>NAN</DistanceMeters>
          </Trackpoint>
          <Trackpoint>
            <Time>2019-10-04T12:23:02.000Z</Time>
            <Position>
              <LatitudeDegrees>43.17067905329167842864990234375</LatitudeDegrees>
              <LongitudeDegrees>-5.827749185264110565185546875</LongitudeDegrees>
            </Position>
            <AltitudeMeters>205.8000030517578125</AltitudeMeters>
            <DistanceMeters>NAN</DistanceMeters>
          </Trackpoint>
          <Trackpoint>
            <Time>2019-10-04T12:23:04.000Z</Time>
            <Position>
              <LatitudeDegrees>43.1705854274332523345947265625</LatitudeDegrees>
              <LongitudeDegrees>-5.8278165757656097412109375</LongitudeDegrees>
            </Position>
            <AltitudeMeters>205.8000030517578125</AltitudeMeters>
            <DistanceMeters>NAN</DistanceMeters>
          </Trackpoint>
          <Trackpoint>
            <Time>2019-10-04T12:23:07.000Z</Time>
            <Position>
              <LatitudeDegrees>43.17041938193142414093017578125</LatitudeDegrees>
              <LongitudeDegrees>-5.827901065349578857421875</LongitudeDegrees>
            </Position>
            <AltitudeMeters>205.600006103515625</AltitudeMeters>
            <DistanceMeters>NAN</DistanceMeters>
          </Trackpoint>
          <Trackpoint>
            <Time>2019-10-04T12:23:13.000Z</Time>
            <Position>
              <LatitudeDegrees>43.1700281985104084014892578125</LatitudeDegrees>
              <LongitudeDegrees>-5.82809041254222393035888671875</LongitudeDegrees>
            </Position>
            <AltitudeMeters>205.8000030517578125</AltitudeMeters>
            <DistanceMeters>NAN</DistanceMeters>
          </Trackpoint>
          <Trackpoint>
            <Time>2019-10-04T12:23:14.000Z</Time>
            <Position>
              <LatitudeDegrees>43.169963657855987548828125</LatitudeDegrees>
              <LongitudeDegrees>-5.82813642919063568115234375</LongitudeDegrees>
            </Position>
            <AltitudeMeters>206.1999969482421875</AltitudeMeters>
            <DistanceMeters>NAN</DistanceMeters>
          </Trackpoint>
          <Trackpoint>
            <Time>2019-10-04T12:23:17.000Z</Time>
            <Position>
              <LatitudeDegrees>43.16980180330574512481689453125</LatitudeDegrees>
              <LongitudeDegrees>-5.82831555046141147613525390625</LongitudeDegrees>
            </Position>
            <AltitudeMeters>206.600006103515625</AltitudeMeters>
            <DistanceMeters>NAN</DistanceMeters>
          </Trackpoint>
          <Trackpoint>
            <Time>2019-10-04T12:23:19.000Z</Time>
            <Position>
              <LatitudeDegrees>43.16970893181860446929931640625</LatitudeDegrees>
              <LongitudeDegrees>-5.82842744886875152587890625</LongitudeDegrees>
            </Position>
            <AltitudeMeters>206.1999969482421875</AltitudeMeters>
            <DistanceMeters>NAN</DistanceMeters>
          </Trackpoint>
          <Trackpoint>
            <Time>2019-10-04T12:23:22.000Z</Time>
            <Position>
              <LatitudeDegrees>43.169593848288059234619140625</LatitudeDegrees>
              <LongitudeDegrees>-5.8285972662270069122314453125</LongitudeDegrees>
            </Position>
            <AltitudeMeters>206.8000030517578125</AltitudeMeters>
            <DistanceMeters>NAN</DistanceMeters>
          </Trackpoint>
          <Trackpoint>
            <Time>2019-10-04T12:23:23.000Z</Time>
            <Position>
              <LatitudeDegrees>43.1695573031902313232421875</LatitudeDegrees>
              <LongitudeDegrees>-5.8286478929221630096435546875</LongitudeDegrees>
            </Position>
            <AltitudeMeters>207.1999969482421875</AltitudeMeters>
            <DistanceMeters>NAN</DistanceMeters>
          </Trackpoint>
          <Trackpoint>
            <Time>2019-10-04T12:23:26.000Z</Time>
            <Position>
              <LatitudeDegrees>43.1694538705050945281982421875</LatitudeDegrees>
              <LongitudeDegrees>-5.82876364700496196746826171875</LongitudeDegrees>
            </Position>
            <AltitudeMeters>207.1999969482421875</AltitudeMeters>
            <DistanceMeters>NAN</DistanceMeters>
          </Trackpoint>
          <Trackpoint>
            <Time>2019-10-04T12:23:27.000Z</Time>
            <Position>
              <LatitudeDegrees>43.1694173254072666168212890625</LatitudeDegrees>
              <LongitudeDegrees>-5.82879759371280670166015625</LongitudeDegrees>
            </Position>
            <AltitudeMeters>207.1999969482421875</AltitudeMeters>
            <DistanceMeters>NAN</DistanceMeters>
          </Trackpoint>
          <Trackpoint>
            <Time>2019-10-04T12:23:34.000Z</Time>
            <Position>
              <LatitudeDegrees>43.16917500458657741546630859375</LatitudeDegrees>
              <LongitudeDegrees>-5.8289801515638828277587890625</LongitudeDegrees>
            </Position>
            <AltitudeMeters>207.399993896484375</AltitudeMeters>
            <DistanceMeters>NAN</DistanceMeters>
          </Trackpoint>
          <Trackpoint>
            <Time>2019-10-04T12:23:39.000Z</Time>
            <Position>
              <LatitudeDegrees>43.16899714060127735137939453125</LatitudeDegrees>
              <LongitudeDegrees>-5.8289940655231475830078125</LongitudeDegrees>
            </Position>
            <AltitudeMeters>208</AltitudeMeters>
            <DistanceMeters>NAN</DistanceMeters>
          </Trackpoint>
          <Trackpoint>
            <Time>2019-10-04T12:23:42.000Z</Time>
            <Position>
              <LatitudeDegrees>43.1688869185745716094970703125</LatitudeDegrees>
              <LongitudeDegrees>-5.82896598614752292633056640625</LongitudeDegrees>
            </Position>
            <AltitudeMeters>208.1999969482421875</AltitudeMeters>
            <DistanceMeters>NAN</DistanceMeters>
          </Trackpoint>
          <Trackpoint>
            <Time>2019-10-04T12:23:45.000Z</Time>
            <Position>
              <LatitudeDegrees>43.1687813065946102142333984375</LatitudeDegrees>
              <LongitudeDegrees>-5.828893482685089111328125</LongitudeDegrees>
            </Position>
            <AltitudeMeters>208.1999969482421875</AltitudeMeters>
            <DistanceMeters>NAN</DistanceMeters>
          </Trackpoint>
          <Trackpoint>
            <Time>2019-10-04T12:23:49.000Z</Time>
            <Position>
              <LatitudeDegrees>43.1686284206807613372802734375</LatitudeDegrees>
              <LongitudeDegrees>-5.828793905675411224365234375</LongitudeDegrees>
            </Position>
            <AltitudeMeters>208.399993896484375</AltitudeMeters>
            <DistanceMeters>NAN</DistanceMeters>
          </Trackpoint>
          <Trackpoint>
            <Time>2019-10-04T12:23:51.000Z</Time>
            <Position>
              <LatitudeDegrees>43.168547451496124267578125</LatitudeDegrees>
              <LongitudeDegrees>-5.82875526510179042816162109375</LongitudeDegrees>
            </Position>
            <AltitudeMeters>208.600006103515625</AltitudeMeters>
            <DistanceMeters>NAN</DistanceMeters>
          </Trackpoint>
          <Trackpoint>
            <Time>2019-10-04T12:23:59.000Z</Time>
            <Position>
              <LatitudeDegrees>43.1681920588016510009765625</LatitudeDegrees>
              <LongitudeDegrees>-5.828663818538188934326171875</LongitudeDegrees>
            </Position>
            <AltitudeMeters>208.600006103515625</AltitudeMeters>
            <DistanceMeters>NAN</DistanceMeters>
          </Trackpoint>
          <Trackpoint>
            <Time>2019-10-04T12:24:02.000Z</Time>
            <Position>
              <LatitudeDegrees>43.168059624731540679931640625</LatitudeDegrees>
              <LongitudeDegrees>-5.8286737091839313507080078125</LongitudeDegrees>
            </Position>
            <AltitudeMeters>208.399993896484375</AltitudeMeters>
            <DistanceMeters>NAN</DistanceMeters>
          </Trackpoint>
          <Trackpoint>
            <Time>2019-10-04T12:24:04.000Z</Time>
            <Position>
              <LatitudeDegrees>43.16797974519431591033935546875</LatitudeDegrees>
              <LongitudeDegrees>-5.82869843579828739166259765625</LongitudeDegrees>
            </Position>
            <AltitudeMeters>208.600006103515625</AltitudeMeters>
            <DistanceMeters>NAN</DistanceMeters>
          </Trackpoint>
          <Trackpoint>
            <Time>2019-10-04T12:24:06.000Z</Time>
            <Position>
              <LatitudeDegrees>43.16790028475224971771240234375</LatitudeDegrees>
              <LongitudeDegrees>-5.8287327177822589874267578125</LongitudeDegrees>
            </Position>
            <AltitudeMeters>208.399993896484375</AltitudeMeters>
            <DistanceMeters>NAN</DistanceMeters>
          </Trackpoint>
          <Trackpoint>
            <Time>2019-10-04T12:24:11.000Z</Time>
            <Position>
              <LatitudeDegrees>43.1677117757499217987060546875</LatitudeDegrees>
              <LongitudeDegrees>-5.8288594521582126617431640625</LongitudeDegrees>
            </Position>
            <AltitudeMeters>209</AltitudeMeters>
            <DistanceMeters>NAN</DistanceMeters>
          </Trackpoint>
          <Trackpoint>
            <Time>2019-10-04T12:24:13.000Z</Time>
            <Position>
              <LatitudeDegrees>43.16763994283974170684814453125</LatitudeDegrees>
              <LongitudeDegrees>-5.82890915684401988983154296875</LongitudeDegrees>
            </Position>
            <AltitudeMeters>209.1999969482421875</AltitudeMeters>
            <DistanceMeters>NAN</DistanceMeters>
          </Trackpoint>
          <Trackpoint>
            <Time>2019-10-04T12:24:21.000Z</Time>
            <Position>
              <LatitudeDegrees>43.167362920939922332763671875</LatitudeDegrees>
              <LongitudeDegrees>-5.82911116071045398712158203125</LongitudeDegrees>
            </Position>
            <AltitudeMeters>209.1999969482421875</AltitudeMeters>
            <DistanceMeters>NAN</DistanceMeters>
          </Trackpoint>
          <Trackpoint>
            <Time>2019-10-04T12:24:27.000Z</Time>
            <Position>
              <LatitudeDegrees>43.1671340949833393096923828125</LatitudeDegrees>
              <LongitudeDegrees>-5.82923236303031444549560546875</LongitudeDegrees>
            </Position>
            <AltitudeMeters>209</AltitudeMeters>
            <DistanceMeters>NAN</DistanceMeters>
          </Trackpoint>
          <Trackpoint>
            <Time>2019-10-04T12:24:29.000Z</Time>
            <Position>
              <LatitudeDegrees>43.167050443589687347412109375</LatitudeDegrees>
              <LongitudeDegrees>-5.8292688243091106414794921875</LongitudeDegrees>
            </Position>
            <AltitudeMeters>209</AltitudeMeters>
            <DistanceMeters>NAN</DistanceMeters>
          </Trackpoint>
          <Trackpoint>
            <Time>2019-10-04T12:24:37.000Z</Time>
            <Position>
              <LatitudeDegrees>43.16669530235230922698974609375</LatitudeDegrees>
              <LongitudeDegrees>-5.82936823368072509765625</LongitudeDegrees>
            </Position>
            <AltitudeMeters>209.1999969482421875</AltitudeMeters>
            <DistanceMeters>NAN</DistanceMeters>
          </Trackpoint>
          <Trackpoint>
            <Time>2019-10-04T12:24:44.000Z</Time>
            <Position>
              <LatitudeDegrees>43.16635097377002239227294921875</LatitudeDegrees>
              <LongitudeDegrees>-5.8294193632900714874267578125</LongitudeDegrees>
            </Position>
            <AltitudeMeters>209</AltitudeMeters>
            <DistanceMeters>NAN</DistanceMeters>
          </Trackpoint>
          <Trackpoint>
            <Time>2019-10-04T12:24:45.000Z</Time>
            <Position>
              <LatitudeDegrees>43.1663009338080883026123046875</LatitudeDegrees>
              <LongitudeDegrees>-5.82942464388906955718994140625</LongitudeDegrees>
            </Position>
            <AltitudeMeters>209</AltitudeMeters>
            <DistanceMeters>NAN</DistanceMeters>
          </Trackpoint>
          <Trackpoint>
            <Time>2019-10-04T12:24:48.000Z</Time>
            <Position>
              <LatitudeDegrees>43.166149221360683441162109375</LatitudeDegrees>
              <LongitudeDegrees>-5.82943755201995372772216796875</LongitudeDegrees>
            </Position>
            <AltitudeMeters>209.399993896484375</AltitudeMeters>
            <DistanceMeters>NAN</DistanceMeters>
          </Trackpoint>
          <Trackpoint>
            <Time>2019-10-04T12:24:51.000Z</Time>
            <Position>
              <LatitudeDegrees>43.16599625162780284881591796875</LatitudeDegrees>
              <LongitudeDegrees>-5.829464457929134368896484375</LongitudeDegrees>
            </Position>
            <AltitudeMeters>209.399993896484375</AltitudeMeters>
            <DistanceMeters>NAN</DistanceMeters>
          </Trackpoint>
          <Trackpoint>
            <Time>2019-10-04T12:24:56.000Z</Time>
            <Position>
              <LatitudeDegrees>43.1657393462955951690673828125</LatitudeDegrees>
              <LongitudeDegrees>-5.82949589006602764129638671875</LongitudeDegrees>
            </Position>
            <AltitudeMeters>209.1999969482421875</AltitudeMeters>
            <DistanceMeters>NAN</DistanceMeters>
          </Trackpoint>
          <Trackpoint>
            <Time>2019-10-04T12:25:00.000Z</Time>
            <Position>
              <LatitudeDegrees>43.165524937212467193603515625</LatitudeDegrees>
              <LongitudeDegrees>-5.8295085467398166656494140625</LongitudeDegrees>
            </Position>
            <AltitudeMeters>209.1999969482421875</AltitudeMeters>
            <DistanceMeters>NAN</DistanceMeters>
          </Trackpoint>
          <Trackpoint>
            <Time>2019-10-04T12:25:03.000Z</Time>
            <Position>
              <LatitudeDegrees>43.165359310805797576904296875</LatitudeDegrees>
              <LongitudeDegrees>-5.82951064221560955047607421875</LongitudeDegrees>
            </Position>
            <AltitudeMeters>209.1999969482421875</AltitudeMeters>
            <DistanceMeters>NAN</DistanceMeters>
          </Trackpoint>
          <Trackpoint>
            <Time>2019-10-04T12:25:07.000Z</Time>
            <Position>
              <LatitudeDegrees>43.1651345081627368927001953125</LatitudeDegrees>
              <LongitudeDegrees>-5.82949941046535968780517578125</LongitudeDegrees>
            </Position>
            <AltitudeMeters>209.1999969482421875</AltitudeMeters>
            <DistanceMeters>NAN</DistanceMeters>
          </Trackpoint>
          <Trackpoint>
            <Time>2019-10-04T12:25:15.000Z</Time>
            <Position>
              <LatitudeDegrees>43.16469621844589710235595703125</LatitudeDegrees>
              <LongitudeDegrees>-5.829471834003925323486328125</LongitudeDegrees>
            </Position>
            <AltitudeMeters>209.399993896484375</AltitudeMeters>
            <DistanceMeters>NAN</DistanceMeters>
          </Trackpoint>
          <Trackpoint>
            <Time>2019-10-04T12:25:19.000Z</Time>
            <Position>
              <LatitudeDegrees>43.164555989205837249755859375</LatitudeDegrees>
              <LongitudeDegrees>-5.8294639550149440765380859375</LongitudeDegrees>
            </Position>
            <AltitudeMeters>209.399993896484375</AltitudeMeters>
            <DistanceMeters>NAN</DistanceMeters>
          </Trackpoint>
          <Trackpoint>
            <Time>2019-10-04T12:25:25.000Z</Time>
            <Position>
              <LatitudeDegrees>43.164338059723377227783203125</LatitudeDegrees>
              <LongitudeDegrees>-5.82947677932679653167724609375</LongitudeDegrees>
            </Position>
            <AltitudeMeters>209.1999969482421875</AltitudeMeters>
            <DistanceMeters>NAN</DistanceMeters>
          </Trackpoint>
          <Trackpoint>
            <Time>2019-10-04T12:25:31.000Z</Time>
            <Position>
              <LatitudeDegrees>43.164136894047260284423828125</LatitudeDegrees>
              <LongitudeDegrees>-5.8294679783284664154052734375</LongitudeDegrees>
            </Position>
            <AltitudeMeters>208.600006103515625</AltitudeMeters>
            <DistanceMeters>NAN</DistanceMeters>
          </Trackpoint>
          <Trackpoint>
            <Time>2019-10-04T12:25:36.000Z</Time>
            <Position>
              <LatitudeDegrees>43.16393950022757053375244140625</LatitudeDegrees>
              <LongitudeDegrees>-5.8294542320072650909423828125</LongitudeDegrees>
            </Position>
            <AltitudeMeters>208.8000030517578125</AltitudeMeters>
            <DistanceMeters>NAN</DistanceMeters>
          </Trackpoint>
          <Trackpoint>
            <Time>2019-10-04T12:25:39.000Z</Time>
            <Position>
              <LatitudeDegrees>43.163819722831249237060546875</LatitudeDegrees>
              <LongitudeDegrees>-5.82944492809474468231201171875</LongitudeDegrees>
            </Position>
            <AltitudeMeters>208.600006103515625</AltitudeMeters>
            <DistanceMeters>NAN</DistanceMeters>
          </Trackpoint>
          <Trackpoint>
            <Time>2019-10-04T12:25:44.000Z</Time>
            <Position>
              <LatitudeDegrees>43.16361822187900543212890625</LatitudeDegrees>
              <LongitudeDegrees>-5.8294304274022579193115234375</LongitudeDegrees>
            </Position>
            <AltitudeMeters>208.1999969482421875</AltitudeMeters>
            <DistanceMeters>NAN</DistanceMeters>
          </Trackpoint>
          <Trackpoint>
            <Time>2019-10-04T12:25:47.000Z</Time>
            <Position>
              <LatitudeDegrees>43.16349224187433719635009765625</LatitudeDegrees>
              <LongitudeDegrees>-5.82945196889340877532958984375</LongitudeDegrees>
            </Position>
            <AltitudeMeters>208.399993896484375</AltitudeMeters>
            <DistanceMeters>NAN</DistanceMeters>
          </Trackpoint>
          <Trackpoint>
            <Time>2019-10-04T12:25:48.000Z</Time>
            <Position>
              <LatitudeDegrees>43.16345167346298694610595703125</LatitudeDegrees>
              <LongitudeDegrees>-5.82946420647203922271728515625</LongitudeDegrees>
            </Position>
            <AltitudeMeters>208.399993896484375</AltitudeMeters>
            <DistanceMeters>NAN</DistanceMeters>
          </Trackpoint>
          <Trackpoint>
            <Time>2019-10-04T12:25:53.000Z</Time>
            <Position>
              <LatitudeDegrees>43.163248412311077117919921875</LatitudeDegrees>
              <LongitudeDegrees>-5.82946680486202239990234375</LongitudeDegrees>
            </Position>
            <AltitudeMeters>208.1999969482421875</AltitudeMeters>
            <DistanceMeters>NAN</DistanceMeters>
          </Trackpoint>
          <Trackpoint>
            <Time>2019-10-04T12:26:00.000Z</Time>
            <Position>
              <LatitudeDegrees>43.16298429854214191436767578125</LatitudeDegrees>
              <LongitudeDegrees>-5.829467810690402984619140625</LongitudeDegrees>
            </Position>
            <AltitudeMeters>208.1999969482421875</AltitudeMeters>
            <DistanceMeters>NAN</DistanceMeters>
          </Trackpoint>
          <Trackpoint>
            <Time>2019-10-04T12:26:08.000Z</Time>
            <Position>
              <LatitudeDegrees>43.16267550922930240631103515625</LatitudeDegrees>
              <LongitudeDegrees>-5.82945733331143856048583984375</LongitudeDegrees>
            </Position>
            <AltitudeMeters>208.1999969482421875</AltitudeMeters>
            <DistanceMeters>NAN</DistanceMeters>
          </Trackpoint>
          <Trackpoint>
            <Time>2019-10-04T12:26:09.000Z</Time>
            <Position>
              <LatitudeDegrees>43.16263728775084018707275390625</LatitudeDegrees>
              <LongitudeDegrees>-5.82945297472178936004638671875</LongitudeDegrees>
            </Position>
            <AltitudeMeters>208.1999969482421875</AltitudeMeters>
            <DistanceMeters>NAN</DistanceMeters>
          </Trackpoint>
          <Trackpoint>
            <Time>2019-10-04T12:26:14.000Z</Time>
            <Position>
              <LatitudeDegrees>43.1624486111104488372802734375</LatitudeDegrees>
              <LongitudeDegrees>-5.82944861613214015960693359375</LongitudeDegrees>
            </Position>
            <AltitudeMeters>208</AltitudeMeters>
            <DistanceMeters>NAN</DistanceMeters>
          </Trackpoint>
          <Trackpoint>
            <Time>2019-10-04T12:26:15.000Z</Time>
            <Position>
              <LatitudeDegrees>43.162413574755191802978515625</LatitudeDegrees>
              <LongitudeDegrees>-5.82944727502763271331787109375</LongitudeDegrees>
            </Position>
            <AltitudeMeters>208</AltitudeMeters>
            <DistanceMeters>NAN</DistanceMeters>
          </Trackpoint>
          <Trackpoint>
            <Time>2019-10-04T12:26:16.000Z</Time>
            <Position>
              <LatitudeDegrees>43.16238868050277233123779296875</LatitudeDegrees>
              <LongitudeDegrees>-5.82945968024432659149169921875</LongitudeDegrees>
            </Position>
            <AltitudeMeters>208</AltitudeMeters>
            <DistanceMeters>NAN</DistanceMeters>
          </Trackpoint>
          <Trackpoint>
            <Time>2019-10-04T12:26:18.000Z</Time>
            <Position>
              <LatitudeDegrees>43.162320367991924285888671875</LatitudeDegrees>
              <LongitudeDegrees>-5.82946420647203922271728515625</LongitudeDegrees>
            </Position>
            <AltitudeMeters>207.8000030517578125</AltitudeMeters>
            <DistanceMeters>NAN</DistanceMeters>
          </Trackpoint>
          <Trackpoint>
            <Time>2019-10-04T12:26:22.000Z</Time>
            <Position>
              <LatitudeDegrees>43.16218324005603790283203125</LatitudeDegrees>
              <LongitudeDegrees>-5.8294636197388172149658203125</LongitudeDegrees>
            </Position>
            <AltitudeMeters>208</AltitudeMeters>
            <DistanceMeters>NAN</DistanceMeters>
          </Trackpoint>
          <Trackpoint>
            <Time>2019-10-04T12:26:26.000Z</Time>
            <Position>
              <LatitudeDegrees>43.1620462797582149505615234375</LatitudeDegrees>
              <LongitudeDegrees>-5.82946412265300750732421875</LongitudeDegrees>
            </Position>
            <AltitudeMeters>207.8000030517578125</AltitudeMeters>
            <DistanceMeters>NAN</DistanceMeters>
          </Trackpoint>
          <Trackpoint>
            <Time>2019-10-04T12:26:27.000Z</Time>
            <Position>
              <LatitudeDegrees>43.16201434470713138580322265625</LatitudeDegrees>
              <LongitudeDegrees>-5.82946412265300750732421875</LongitudeDegrees>
            </Position>
            <AltitudeMeters>207.600006103515625</AltitudeMeters>
            <DistanceMeters>NAN</DistanceMeters>
          </Trackpoint>
          <Trackpoint>
            <Time>2019-10-04T12:26:28.000Z</Time>
            <Position>
              <LatitudeDegrees>43.1619758717715740203857421875</LatitudeDegrees>
              <LongitudeDegrees>-5.8294669725000858306884765625</LongitudeDegrees>
            </Position>
            <AltitudeMeters>207.1999969482421875</AltitudeMeters>
            <DistanceMeters>NAN</DistanceMeters>
          </Trackpoint>
          <Trackpoint>
            <Time>2019-10-04T12:26:32.000Z</Time>
            <Position>
              <LatitudeDegrees>43.1618325412273406982421875</LatitudeDegrees>
              <LongitudeDegrees>-5.829463787376880645751953125</LongitudeDegrees>
            </Position>
            <AltitudeMeters>207.1999969482421875</AltitudeMeters>
            <DistanceMeters>NAN</DistanceMeters>
          </Trackpoint>
          <Trackpoint>
            <Time>2019-10-04T12:26:33.000Z</Time>
            <Position>
              <LatitudeDegrees>43.1617998518049716949462890625</LatitudeDegrees>
              <LongitudeDegrees>-5.8294669725000858306884765625</LongitudeDegrees>
            </Position>
            <AltitudeMeters>207.1999969482421875</AltitudeMeters>
            <DistanceMeters>NAN</DistanceMeters>
          </Trackpoint>
          <Trackpoint>
            <Time>2019-10-04T12:26:39.000Z</Time>
            <Position>
              <LatitudeDegrees>43.1616045534610748291015625</LatitudeDegrees>
              <LongitudeDegrees>-5.82946236245334148406982421875</LongitudeDegrees>
            </Position>
            <AltitudeMeters>207.399993896484375</AltitudeMeters>
            <DistanceMeters>NAN</DistanceMeters>
          </Trackpoint>
          <Trackpoint>
            <Time>2019-10-04T12:26:41.000Z</Time>
            <Position>
              <LatitudeDegrees>43.1615450419485569000244140625</LatitudeDegrees>
              <LongitudeDegrees>-5.82947007380425930023193359375</LongitudeDegrees>
            </Position>
            <AltitudeMeters>207.1999969482421875</AltitudeMeters>
            <DistanceMeters>NAN</DistanceMeters>
          </Trackpoint>
          <Trackpoint>
            <Time>2019-10-04T12:26:46.000Z</Time>
            <Position>
              <LatitudeDegrees>43.16140078939497470855712890625</LatitudeDegrees>
              <LongitudeDegrees>-5.82953914068639278411865234375</LongitudeDegrees>
            </Position>
            <AltitudeMeters>206.8000030517578125</AltitudeMeters>
            <DistanceMeters>NAN</DistanceMeters>
          </Trackpoint>
          <Trackpoint>
            <Time>2019-10-04T12:26:51.000Z</Time>
            <Position>
              <LatitudeDegrees>43.16123851574957370758056640625</LatitudeDegrees>
              <LongitudeDegrees>-5.82953511737287044525146484375</LongitudeDegrees>
            </Position>
            <AltitudeMeters>207.1999969482421875</AltitudeMeters>
            <DistanceMeters>NAN</DistanceMeters>
          </Trackpoint>
          <Trackpoint>
            <Time>2019-10-04T12:26:58.000Z</Time>
            <Position>
              <LatitudeDegrees>43.16098026931285858154296875</LatitudeDegrees>
              <LongitudeDegrees>-5.82952656783163547515869140625</LongitudeDegrees>
            </Position>
            <AltitudeMeters>206.8000030517578125</AltitudeMeters>
            <DistanceMeters>NAN</DistanceMeters>
          </Trackpoint>
          <Trackpoint>
            <Time>2019-10-04T12:27:06.000Z</Time>
            <Position>
              <LatitudeDegrees>43.16064742393791675567626953125</LatitudeDegrees>
              <LongitudeDegrees>-5.82952254451811313629150390625</LongitudeDegrees>
            </Position>
            <AltitudeMeters>206.399993896484375</AltitudeMeters>
            <DistanceMeters>NAN</DistanceMeters>
          </Trackpoint>
          <Trackpoint>
            <Time>2019-10-04T12:27:07.000Z</Time>
            <Position>
              <LatitudeDegrees>43.1606049276888370513916015625</LatitudeDegrees>
              <LongitudeDegrees>-5.829521454870700836181640625</LongitudeDegrees>
            </Position>
            <AltitudeMeters>206.399993896484375</AltitudeMeters>
            <DistanceMeters>NAN</DistanceMeters>
          </Trackpoint>
          <Trackpoint>
            <Time>2019-10-04T12:27:10.000Z</Time>
            <Position>
              <LatitudeDegrees>43.1604795344173908233642578125</LatitudeDegrees>
              <LongitudeDegrees>-5.82951776683330535888671875</LongitudeDegrees>
            </Position>
            <AltitudeMeters>206.1999969482421875</AltitudeMeters>
            <DistanceMeters>NAN</DistanceMeters>
          </Trackpoint>
          <Trackpoint>
            <Time>2019-10-04T12:27:12.000Z</Time>
            <Position>
              <LatitudeDegrees>43.16039982251822948455810546875</LatitudeDegrees>
              <LongitudeDegrees>-5.82952740602195262908935546875</LongitudeDegrees>
            </Position>
            <AltitudeMeters>206</AltitudeMeters>
            <DistanceMeters>NAN</DistanceMeters>
          </Trackpoint>
          <Trackpoint>
            <Time>2019-10-04T12:27:15.000Z</Time>
            <Position>
              <LatitudeDegrees>43.16028431989252567291259765625</LatitudeDegrees>
              <LongitudeDegrees>-5.82953788340091705322265625</LongitudeDegrees>
            </Position>
            <AltitudeMeters>206.1999969482421875</AltitudeMeters>
            <DistanceMeters>NAN</DistanceMeters>
          </Trackpoint>
          <Trackpoint>
            <Time>2019-10-04T12:27:17.000Z</Time>
            <Position>
              <LatitudeDegrees>43.16020150668919086456298828125</LatitudeDegrees>
              <LongitudeDegrees>-5.829531513154506683349609375</LongitudeDegrees>
            </Position>
            <AltitudeMeters>206.1999969482421875</AltitudeMeters>
            <DistanceMeters>NAN</DistanceMeters>
          </Trackpoint>
          <Trackpoint>
            <Time>2019-10-04T12:27:21.000Z</Time>
            <Position>
              <LatitudeDegrees>43.16002816893160343170166015625</LatitudeDegrees>
              <LongitudeDegrees>-5.82950024865567684173583984375</LongitudeDegrees>
            </Position>
            <AltitudeMeters>206</AltitudeMeters>
            <DistanceMeters>NAN</DistanceMeters>
          </Trackpoint>
          <Trackpoint>
            <Time>2019-10-04T12:27:24.000Z</Time>
            <Position>
              <LatitudeDegrees>43.15990730188786983489990234375</LatitudeDegrees>
              <LongitudeDegrees>-5.82947460003197193145751953125</LongitudeDegrees>
            </Position>
            <AltitudeMeters>206.1999969482421875</AltitudeMeters>
            <DistanceMeters>NAN</DistanceMeters>
          </Trackpoint>
          <Trackpoint>
            <Time>2019-10-04T12:27:28.000Z</Time>
            <Position>
              <LatitudeDegrees>43.1597734428942203521728515625</LatitudeDegrees>
              <LongitudeDegrees>-5.82945951260626316070556640625</LongitudeDegrees>
            </Position>
            <AltitudeMeters>206</AltitudeMeters>
            <DistanceMeters>NAN</DistanceMeters>
          </Trackpoint>
          <Trackpoint>
            <Time>2019-10-04T12:27:35.000Z</Time>
            <Position>
              <LatitudeDegrees>43.1594901345670223236083984375</LatitudeDegrees>
              <LongitudeDegrees>-5.82945163361728191375732421875</LongitudeDegrees>
            </Position>
            <AltitudeMeters>205.8000030517578125</AltitudeMeters>
            <DistanceMeters>NAN</DistanceMeters>
          </Trackpoint>
          <Trackpoint>
            <Time>2019-10-04T12:27:41.000Z</Time>
            <Position>
              <LatitudeDegrees>43.1592574529349803924560546875</LatitudeDegrees>
              <LongitudeDegrees>-5.8293828181922435760498046875</LongitudeDegrees>
            </Position>
            <AltitudeMeters>205.8000030517578125</AltitudeMeters>
            <DistanceMeters>NAN</DistanceMeters>
          </Trackpoint>
          <Trackpoint>
            <Time>2019-10-04T12:27:47.000Z</Time>
            <Position>
              <LatitudeDegrees>43.15904161892831325531005859375</LatitudeDegrees>
              <LongitudeDegrees>-5.829276703298091888427734375</LongitudeDegrees>
            </Position>
            <AltitudeMeters>205.600006103515625</AltitudeMeters>
            <DistanceMeters>NAN</DistanceMeters>
          </Trackpoint>
          <Trackpoint>
            <Time>2019-10-04T12:27:48.000Z</Time>
            <Position>
              <LatitudeDegrees>43.15900624729692935943603515625</LatitudeDegrees>
              <LongitudeDegrees>-5.8292580954730510711669921875</LongitudeDegrees>
            </Position>
            <AltitudeMeters>206</AltitudeMeters>
            <DistanceMeters>NAN</DistanceMeters>
          </Trackpoint>
          <Trackpoint>
            <Time>2019-10-04T12:27:54.000Z</Time>
            <Position>
              <LatitudeDegrees>43.15881782211363315582275390625</LatitudeDegrees>
              <LongitudeDegrees>-5.82915969192981719970703125</LongitudeDegrees>
            </Position>
            <AltitudeMeters>205</AltitudeMeters>
            <DistanceMeters>NAN</DistanceMeters>
          </Trackpoint>
          <Trackpoint>
            <Time>2019-10-04T12:27:55.000Z</Time>
            <Position>
              <LatitudeDegrees>43.1587833724915981292724609375</LatitudeDegrees>
              <LongitudeDegrees>-5.82913664169609546661376953125</LongitudeDegrees>
            </Position>
            <AltitudeMeters>205.1999969482421875</AltitudeMeters>
            <DistanceMeters>NAN</DistanceMeters>
          </Trackpoint>
          <Trackpoint>
            <Time>2019-10-04T12:28:00.000Z</Time>
            <Position>
              <LatitudeDegrees>43.1586039997637271881103515625</LatitudeDegrees>
              <LongitudeDegrees>-5.82903941161930561065673828125</LongitudeDegrees>
            </Position>
            <AltitudeMeters>205.1999969482421875</AltitudeMeters>
            <DistanceMeters>NAN</DistanceMeters>
          </Trackpoint>
          <Trackpoint>
            <Time>2019-10-04T12:28:01.000Z</Time>
            <Position>
              <LatitudeDegrees>43.15856494009494781494140625</LatitudeDegrees>
              <LongitudeDegrees>-5.829025916755199432373046875</LongitudeDegrees>
            </Position>
            <AltitudeMeters>205.1999969482421875</AltitudeMeters>
            <DistanceMeters>NAN</DistanceMeters>
          </Trackpoint>
          <Trackpoint>
            <Time>2019-10-04T12:28:04.000Z</Time>
            <Position>
              <LatitudeDegrees>43.15844130702316761016845703125</LatitudeDegrees>
              <LongitudeDegrees>-5.8289727754890918731689453125</LongitudeDegrees>
            </Position>
            <AltitudeMeters>205.399993896484375</AltitudeMeters>
            <DistanceMeters>NAN</DistanceMeters>
          </Trackpoint>
          <Trackpoint>
            <Time>2019-10-04T12:28:06.000Z</Time>
            <Position>
              <LatitudeDegrees>43.158356733620166778564453125</LatitudeDegrees>
              <LongitudeDegrees>-5.82893908023834228515625</LongitudeDegrees>
            </Position>
            <AltitudeMeters>205</AltitudeMeters>
            <DistanceMeters>NAN</DistanceMeters>
          </Trackpoint>
          <Trackpoint>
            <Time>2019-10-04T12:28:14.000Z</Time>
            <Position>
              <LatitudeDegrees>43.15800972282886505126953125</LatitudeDegrees>
              <LongitudeDegrees>-5.82879633642733097076416015625</LongitudeDegrees>
            </Position>
            <AltitudeMeters>204.600006103515625</AltitudeMeters>
            <DistanceMeters>NAN</DistanceMeters>
          </Trackpoint>
          <Trackpoint>
            <Time>2019-10-04T12:28:22.000Z</Time>
            <Position>
              <LatitudeDegrees>43.15766505897045135498046875</LatitudeDegrees>
              <LongitudeDegrees>-5.82867647521197795867919921875</LongitudeDegrees>
            </Position>
            <AltitudeMeters>204</AltitudeMeters>
            <DistanceMeters>NAN</DistanceMeters>
          </Trackpoint>
          <Trackpoint>
            <Time>2019-10-04T12:28:24.000Z</Time>
            <Position>
              <LatitudeDegrees>43.15757746808230876922607421875</LatitudeDegrees>
              <LongitudeDegrees>-5.82864294759929180145263671875</LongitudeDegrees>
            </Position>
            <AltitudeMeters>204.1999969482421875</AltitudeMeters>
            <DistanceMeters>NAN</DistanceMeters>
          </Trackpoint>
          <Trackpoint>
            <Time>2019-10-04T12:28:28.000Z</Time>
            <Position>
              <LatitudeDegrees>43.1574047170579433441162109375</LatitudeDegrees>
              <LongitudeDegrees>-5.82858595065772533416748046875</LongitudeDegrees>
            </Position>
            <AltitudeMeters>203.8000030517578125</AltitudeMeters>
            <DistanceMeters>NAN</DistanceMeters>
          </Trackpoint>
          <Trackpoint>
            <Time>2019-10-04T12:28:33.000Z</Time>
            <Position>
              <LatitudeDegrees>43.15718871541321277618408203125</LatitudeDegrees>
              <LongitudeDegrees>-5.82851705141365528106689453125</LongitudeDegrees>
            </Position>
            <AltitudeMeters>204</AltitudeMeters>
            <DistanceMeters>NAN</DistanceMeters>
          </Trackpoint>
          <Trackpoint>
            <Time>2019-10-04T12:28:40.000Z</Time>
            <Position>
              <LatitudeDegrees>43.15687456168234348297119140625</LatitudeDegrees>
              <LongitudeDegrees>-5.8283997885882854461669921875</LongitudeDegrees>
            </Position>
            <AltitudeMeters>203.1999969482421875</AltitudeMeters>
            <DistanceMeters>NAN</DistanceMeters>
          </Trackpoint>
          <Trackpoint>
            <Time>2019-10-04T12:28:43.000Z</Time>
            <Position>
              <LatitudeDegrees>43.1567348353564739227294921875</LatitudeDegrees>
              <LongitudeDegrees>-5.8283448033034801483154296875</LongitudeDegrees>
            </Position>
            <AltitudeMeters>204.1999969482421875</AltitudeMeters>
            <DistanceMeters>NAN</DistanceMeters>
          </Trackpoint>
          <Trackpoint>
            <Time>2019-10-04T12:28:47.000Z</Time>
            <Position>
              <LatitudeDegrees>43.15654733218252658843994140625</LatitudeDegrees>
              <LongitudeDegrees>-5.82828889600932598114013671875</LongitudeDegrees>
            </Position>
            <AltitudeMeters>204.1999969482421875</AltitudeMeters>
            <DistanceMeters>NAN</DistanceMeters>
          </Trackpoint>
          <Trackpoint>
            <Time>2019-10-04T12:28:55.000Z</Time>
            <Position>
              <LatitudeDegrees>43.15615891478955745697021484375</LatitudeDegrees>
              <LongitudeDegrees>-5.82815646193921566009521484375</LongitudeDegrees>
            </Position>
            <AltitudeMeters>204</AltitudeMeters>
            <DistanceMeters>NAN</DistanceMeters>
          </Trackpoint>
          <Trackpoint>
            <Time>2019-10-04T12:29:02.000Z</Time>
            <Position>
              <LatitudeDegrees>43.15581391565501689910888671875</LatitudeDegrees>
              <LongitudeDegrees>-5.828014053404331207275390625</LongitudeDegrees>
            </Position>
            <AltitudeMeters>204.1999969482421875</AltitudeMeters>
            <DistanceMeters>NAN</DistanceMeters>
          </Trackpoint>
          <Trackpoint>
            <Time>2019-10-04T12:29:03.000Z</Time>
            <Position>
              <LatitudeDegrees>43.1557692401111125946044921875</LatitudeDegrees>
              <LongitudeDegrees>-5.827984549105167388916015625</LongitudeDegrees>
            </Position>
            <AltitudeMeters>204.399993896484375</AltitudeMeters>
            <DistanceMeters>NAN</DistanceMeters>
          </Trackpoint>
          <Trackpoint>
            <Time>2019-10-04T12:29:09.000Z</Time>
            <Position>
              <LatitudeDegrees>43.1555248238146305084228515625</LatitudeDegrees>
              <LongitudeDegrees>-5.82777776755392551422119140625</LongitudeDegrees>
            </Position>
            <AltitudeMeters>204.1999969482421875</AltitudeMeters>
            <DistanceMeters>NAN</DistanceMeters>
          </Trackpoint>
          <Trackpoint>
            <Time>2019-10-04T12:29:16.000Z</Time>
            <Position>
              <LatitudeDegrees>43.15524763427674770355224609375</LatitudeDegrees>
              <LongitudeDegrees>-5.82752563990652561187744140625</LongitudeDegrees>
            </Position>
            <AltitudeMeters>204.1999969482421875</AltitudeMeters>
            <DistanceMeters>NAN</DistanceMeters>
          </Trackpoint>
          <Trackpoint>
            <Time>2019-10-04T12:29:25.000Z</Time>
            <Position>
              <LatitudeDegrees>43.15484739840030670166015625</LatitudeDegrees>
              <LongitudeDegrees>-5.82718365825712680816650390625</LongitudeDegrees>
            </Position>
            <AltitudeMeters>204</AltitudeMeters>
            <DistanceMeters>NAN</DistanceMeters>
          </Trackpoint>
          <Trackpoint>
            <Time>2019-10-04T12:29:28.000Z</Time>
            <Position>
              <LatitudeDegrees>43.1547144614160060882568359375</LatitudeDegrees>
              <LongitudeDegrees>-5.8270995877683162689208984375</LongitudeDegrees>
            </Position>
            <AltitudeMeters>203.8000030517578125</AltitudeMeters>
            <DistanceMeters>NAN</DistanceMeters>
          </Trackpoint>
          <Trackpoint>
            <Time>2019-10-04T12:29:31.000Z</Time>
            <Position>
              <LatitudeDegrees>43.15458546392619609832763671875</LatitudeDegrees>
              <LongitudeDegrees>-5.82704468630254268646240234375</LongitudeDegrees>
            </Position>
            <AltitudeMeters>203.8000030517578125</AltitudeMeters>
            <DistanceMeters>NAN</DistanceMeters>
          </Trackpoint>
          <Trackpoint>
            <Time>2019-10-04T12:29:32.000Z</Time>
            <Position>
              <LatitudeDegrees>43.15454137511551380157470703125</LatitudeDegrees>
              <LongitudeDegrees>-5.827035047113895416259765625</LongitudeDegrees>
            </Position>
            <AltitudeMeters>203.600006103515625</AltitudeMeters>
            <DistanceMeters>NAN</DistanceMeters>
          </Trackpoint>
          <Trackpoint>
            <Time>2019-10-04T12:29:37.000Z</Time>
            <Position>
              <LatitudeDegrees>43.15432478673756122589111328125</LatitudeDegrees>
              <LongitudeDegrees>-5.82699556834995746612548828125</LongitudeDegrees>
            </Position>
            <AltitudeMeters>203.600006103515625</AltitudeMeters>
            <DistanceMeters>NAN</DistanceMeters>
          </Trackpoint>
          <Trackpoint>
            <Time>2019-10-04T12:29:39.000Z</Time>
            <Position>
              <LatitudeDegrees>43.15424163825809955596923828125</LatitudeDegrees>
              <LongitudeDegrees>-5.826993472874164581298828125</LongitudeDegrees>
            </Position>
            <AltitudeMeters>203.600006103515625</AltitudeMeters>
            <DistanceMeters>NAN</DistanceMeters>
          </Trackpoint>
          <Trackpoint>
            <Time>2019-10-04T12:29:42.000Z</Time>
            <Position>
              <LatitudeDegrees>43.1541156582534313201904296875</LatitudeDegrees>
              <LongitudeDegrees>-5.82697813399136066436767578125</LongitudeDegrees>
            </Position>
            <AltitudeMeters>203.8000030517578125</AltitudeMeters>
            <DistanceMeters>NAN</DistanceMeters>
          </Trackpoint>
          <Trackpoint>
            <Time>2019-10-04T12:29:43.000Z</Time>
            <Position>
              <LatitudeDegrees>43.1540717370808124542236328125</LatitudeDegrees>
              <LongitudeDegrees>-5.82697779871523380279541015625</LongitudeDegrees>
            </Position>
            <AltitudeMeters>203.8000030517578125</AltitudeMeters>
            <DistanceMeters>NAN</DistanceMeters>
          </Trackpoint>
          <Trackpoint>
            <Time>2019-10-04T12:29:48.000Z</Time>
            <Position>
              <LatitudeDegrees>43.15385825000703334808349609375</LatitudeDegrees>
              <LongitudeDegrees>-5.82693614065647125244140625</LongitudeDegrees>
            </Position>
            <AltitudeMeters>203.1999969482421875</AltitudeMeters>
            <DistanceMeters>NAN</DistanceMeters>
          </Trackpoint>
          <Trackpoint>
            <Time>2019-10-04T12:29:51.000Z</Time>
            <Position>
              <LatitudeDegrees>43.1537240557372570037841796875</LatitudeDegrees>
              <LongitudeDegrees>-5.82691208459436893463134765625</LongitudeDegrees>
            </Position>
            <AltitudeMeters>203.8000030517578125</AltitudeMeters>
            <DistanceMeters>NAN</DistanceMeters>
          </Trackpoint>
          <Trackpoint>
            <Time>2019-10-04T12:29:57.000Z</Time>
            <Position>
              <LatitudeDegrees>43.15343923866748809814453125</LatitudeDegrees>
              <LongitudeDegrees>-5.8268990926444530487060546875</LongitudeDegrees>
            </Position>
            <AltitudeMeters>203.399993896484375</AltitudeMeters>
            <DistanceMeters>NAN</DistanceMeters>
          </Trackpoint>
          <Trackpoint>
            <Time>2019-10-04T12:30:04.000Z</Time>
            <Position>
              <LatitudeDegrees>43.1531071476638317108154296875</LatitudeDegrees>
              <LongitudeDegrees>-5.826874114573001861572265625</LongitudeDegrees>
            </Position>
            <AltitudeMeters>203.399993896484375</AltitudeMeters>
            <DistanceMeters>NAN</DistanceMeters>
          </Trackpoint>
          <Trackpoint>
            <Time>2019-10-04T12:30:10.000Z</Time>
            <Position>
              <LatitudeDegrees>43.152830712497234344482421875</LatitudeDegrees>
              <LongitudeDegrees>-5.82684368826448917388916015625</LongitudeDegrees>
            </Position>
            <AltitudeMeters>203.399993896484375</AltitudeMeters>
            <DistanceMeters>NAN</DistanceMeters>
          </Trackpoint>
          <Trackpoint>
            <Time>2019-10-04T12:30:13.000Z</Time>
            <Position>
              <LatitudeDegrees>43.1526877172291278839111328125</LatitudeDegrees>
              <LongitudeDegrees>-5.82682751119136810302734375</LongitudeDegrees>
            </Position>
            <AltitudeMeters>203.8000030517578125</AltitudeMeters>
            <DistanceMeters>NAN</DistanceMeters>
          </Trackpoint>
          <Trackpoint>
            <Time>2019-10-04T12:30:21.000Z</Time>
            <Position>
              <LatitudeDegrees>43.15231614746153354644775390625</LatitudeDegrees>
              <LongitudeDegrees>-5.82679876126348972320556640625</LongitudeDegrees>
            </Position>
            <AltitudeMeters>203.8000030517578125</AltitudeMeters>
            <DistanceMeters>NAN</DistanceMeters>
          </Trackpoint>
          <Trackpoint>
            <Time>2019-10-04T12:30:29.000Z</Time>
            <Position>
              <LatitudeDegrees>43.15195069648325443267822265625</LatitudeDegrees>
              <LongitudeDegrees>-5.82675953395664691925048828125</LongitudeDegrees>
            </Position>
            <AltitudeMeters>204.1999969482421875</AltitudeMeters>
            <DistanceMeters>NAN</DistanceMeters>
          </Trackpoint>
          <Trackpoint>
            <Time>2019-10-04T12:30:37.000Z</Time>
            <Position>
              <LatitudeDegrees>43.1515865027904510498046875</LatitudeDegrees>
              <LongitudeDegrees>-5.8267249166965484619140625</LongitudeDegrees>
            </Position>
            <AltitudeMeters>204</AltitudeMeters>
            <DistanceMeters>NAN</DistanceMeters>
          </Trackpoint>
          <Trackpoint>
            <Time>2019-10-04T12:30:43.000Z</Time>
            <Position>
              <LatitudeDegrees>43.15133177675306797027587890625</LatitudeDegrees>
              <LongitudeDegrees>-5.8266925625503063201904296875</LongitudeDegrees>
            </Position>
            <AltitudeMeters>203.1999969482421875</AltitudeMeters>
            <DistanceMeters>NAN</DistanceMeters>
          </Trackpoint>
          <Trackpoint>
            <Time>2019-10-04T12:30:45.000Z</Time>
            <Position>
              <LatitudeDegrees>43.15124628134071826934814453125</LatitudeDegrees>
              <LongitudeDegrees>-5.8266851864755153656005859375</LongitudeDegrees>
            </Position>
            <AltitudeMeters>202.399993896484375</AltitudeMeters>
            <DistanceMeters>NAN</DistanceMeters>
          </Trackpoint>
          <Trackpoint>
            <Time>2019-10-04T12:30:47.000Z</Time>
            <Position>
              <LatitudeDegrees>43.15115860663354396820068359375</LatitudeDegrees>
              <LongitudeDegrees>-5.826688706874847412109375</LongitudeDegrees>
            </Position>
            <AltitudeMeters>201.8000030517578125</AltitudeMeters>
            <DistanceMeters>NAN</DistanceMeters>
          </Trackpoint>
          <Trackpoint>
            <Time>2019-10-04T12:30:50.000Z</Time>
            <Position>
              <LatitudeDegrees>43.1510297767817974090576171875</LatitudeDegrees>
              <LongitudeDegrees>-5.82668007351458072662353515625</LongitudeDegrees>
            </Position>
            <AltitudeMeters>201.1999969482421875</AltitudeMeters>
            <DistanceMeters>NAN</DistanceMeters>
          </Trackpoint>
          <Trackpoint>
            <Time>2019-10-04T12:30:53.000Z</Time>
            <Position>
              <LatitudeDegrees>43.1509074009954929351806640625</LatitudeDegrees>
              <LongitudeDegrees>-5.82667035050690174102783203125</LongitudeDegrees>
            </Position>
            <AltitudeMeters>199.8000030517578125</AltitudeMeters>
            <DistanceMeters>NAN</DistanceMeters>
          </Trackpoint>
          <Trackpoint>
            <Time>2019-10-04T12:30:57.000Z</Time>
            <Position>
              <LatitudeDegrees>43.15075300633907318115234375</LatitudeDegrees>
              <LongitudeDegrees>-5.8266506530344486236572265625</LongitudeDegrees>
            </Position>
            <AltitudeMeters>199.399993896484375</AltitudeMeters>
            <DistanceMeters>NAN</DistanceMeters>
          </Trackpoint>
          <Trackpoint>
            <Time>2019-10-04T12:31:02.000Z</Time>
            <Position>
              <LatitudeDegrees>43.15056080929934978485107421875</LatitudeDegrees>
              <LongitudeDegrees>-5.8266288600862026214599609375</LongitudeDegrees>
            </Position>
            <AltitudeMeters>199.600006103515625</AltitudeMeters>
            <DistanceMeters>NAN</DistanceMeters>
          </Trackpoint>
          <Trackpoint>
            <Time>2019-10-04T12:31:04.000Z</Time>
            <Position>
              <LatitudeDegrees>43.1504822708666324615478515625</LatitudeDegrees>
              <LongitudeDegrees>-5.82662106491625308990478515625</LongitudeDegrees>
            </Position>
            <AltitudeMeters>199.600006103515625</AltitudeMeters>
            <DistanceMeters>NAN</DistanceMeters>
          </Trackpoint>
          <Trackpoint>
            <Time>2019-10-04T12:31:11.000Z</Time>
            <Position>
              <LatitudeDegrees>43.15020172856748104095458984375</LatitudeDegrees>
              <LongitudeDegrees>-5.826611258089542388916015625</LongitudeDegrees>
            </Position>
            <AltitudeMeters>199.399993896484375</AltitudeMeters>
            <DistanceMeters>NAN</DistanceMeters>
          </Trackpoint>
          <Trackpoint>
            <Time>2019-10-04T12:31:12.000Z</Time>
            <Position>
              <LatitudeDegrees>43.15015889704227447509765625</LatitudeDegrees>
              <LongitudeDegrees>-5.82662425003945827484130859375</LongitudeDegrees>
            </Position>
            <AltitudeMeters>199.399993896484375</AltitudeMeters>
            <DistanceMeters>NAN</DistanceMeters>
          </Trackpoint>
          <Trackpoint>
            <Time>2019-10-04T12:31:17.000Z</Time>
            <Position>
              <LatitudeDegrees>43.14995915628969669342041015625</LatitudeDegrees>
              <LongitudeDegrees>-5.8266657404601573944091796875</LongitudeDegrees>
            </Position>
            <AltitudeMeters>199</AltitudeMeters>
            <DistanceMeters>NAN</DistanceMeters>
          </Trackpoint>
          <Trackpoint>
            <Time>2019-10-04T12:31:19.000Z</Time>
            <Position>
              <LatitudeDegrees>43.1498703919351100921630859375</LatitudeDegrees>
              <LongitudeDegrees>-5.826654843986034393310546875</LongitudeDegrees>
            </Position>
            <AltitudeMeters>199</AltitudeMeters>
            <DistanceMeters>NAN</DistanceMeters>
          </Trackpoint>
          <Trackpoint>
            <Time>2019-10-04T12:31:22.000Z</Time>
            <Position>
              <LatitudeDegrees>43.14972680993378162384033203125</LatitudeDegrees>
              <LongitudeDegrees>-5.82664453424513339996337890625</LongitudeDegrees>
            </Position>
            <AltitudeMeters>198.8000030517578125</AltitudeMeters>
            <DistanceMeters>NAN</DistanceMeters>
          </Trackpoint>
          <Trackpoint>
            <Time>2019-10-04T12:31:27.000Z</Time>
            <Position>
              <LatitudeDegrees>43.14948708750307559967041015625</LatitudeDegrees>
              <LongitudeDegrees>-5.82660027779638767242431640625</LongitudeDegrees>
            </Position>
            <AltitudeMeters>198.600006103515625</AltitudeMeters>
            <DistanceMeters>NAN</DistanceMeters>
          </Trackpoint>
          <Trackpoint>
            <Time>2019-10-04T12:31:28.000Z</Time>
            <Position>
              <LatitudeDegrees>43.14943872392177581787109375</LatitudeDegrees>
              <LongitudeDegrees>-5.82658552564680576324462890625</LongitudeDegrees>
            </Position>
            <AltitudeMeters>198.600006103515625</AltitudeMeters>
            <DistanceMeters>NAN</DistanceMeters>
          </Trackpoint>
          <Trackpoint>
            <Time>2019-10-04T12:31:36.000Z</Time>
            <Position>
              <LatitudeDegrees>43.1490623764693737030029296875</LatitudeDegrees>
              <LongitudeDegrees>-5.82645334303379058837890625</LongitudeDegrees>
            </Position>
            <AltitudeMeters>199.1999969482421875</AltitudeMeters>
            <DistanceMeters>NAN</DistanceMeters>
          </Trackpoint>
          <Trackpoint>
            <Time>2019-10-04T12:31:45.000Z</Time>
            <Position>
              <LatitudeDegrees>43.1486342288553714752197265625</LatitudeDegrees>
              <LongitudeDegrees>-5.8262328989803791046142578125</LongitudeDegrees>
            </Position>
            <AltitudeMeters>199.1999969482421875</AltitudeMeters>
            <DistanceMeters>NAN</DistanceMeters>
          </Trackpoint>
          <Trackpoint>
            <Time>2019-10-04T12:31:54.000Z</Time>
            <Position>
              <LatitudeDegrees>43.14824086613953113555908203125</LatitudeDegrees>
              <LongitudeDegrees>-5.82596794702112674713134765625</LongitudeDegrees>
            </Position>
            <AltitudeMeters>199</AltitudeMeters>
            <DistanceMeters>NAN</DistanceMeters>
          </Trackpoint>
          <Trackpoint>
            <Time>2019-10-04T12:31:58.000Z</Time>
            <Position>
              <LatitudeDegrees>43.14806970767676830291748046875</LatitudeDegrees>
              <LongitudeDegrees>-5.82582578994333744049072265625</LongitudeDegrees>
            </Position>
            <AltitudeMeters>199.399993896484375</AltitudeMeters>
            <DistanceMeters>NAN</DistanceMeters>
          </Trackpoint>
          <Trackpoint>
            <Time>2019-10-04T12:32:00.000Z</Time>
            <Position>
              <LatitudeDegrees>43.147984631359577178955078125</LatitudeDegrees>
              <LongitudeDegrees>-5.825745575129985809326171875</LongitudeDegrees>
            </Position>
            <AltitudeMeters>199.1999969482421875</AltitudeMeters>
            <DistanceMeters>NAN</DistanceMeters>
          </Trackpoint>
          <Trackpoint>
            <Time>2019-10-04T12:32:05.000Z</Time>
            <Position>
              <LatitudeDegrees>43.1477645225822925567626953125</LatitudeDegrees>
              <LongitudeDegrees>-5.82556963898241519927978515625</LongitudeDegrees>
            </Position>
            <AltitudeMeters>199</AltitudeMeters>
            <DistanceMeters>NAN</DistanceMeters>
          </Trackpoint>
          <Trackpoint>
            <Time>2019-10-04T12:32:08.000Z</Time>
            <Position>
              <LatitudeDegrees>43.14761742018163204193115234375</LatitudeDegrees>
              <LongitudeDegrees>-5.825528316199779510498046875</LongitudeDegrees>
            </Position>
            <AltitudeMeters>198.8000030517578125</AltitudeMeters>
            <DistanceMeters>NAN</DistanceMeters>
          </Trackpoint>
          <Trackpoint>
            <Time>2019-10-04T12:32:11.000Z</Time>
            <Position>
              <LatitudeDegrees>43.1474746763706207275390625</LatitudeDegrees>
              <LongitudeDegrees>-5.82559579052031040191650390625</LongitudeDegrees>
            </Position>
            <AltitudeMeters>198.600006103515625</AltitudeMeters>
            <DistanceMeters>NAN</DistanceMeters>
          </Trackpoint>
          <Trackpoint>
            <Time>2019-10-04T12:32:14.000Z</Time>
            <Position>
              <LatitudeDegrees>43.14732774160802364349365234375</LatitudeDegrees>
              <LongitudeDegrees>-5.82555287517607212066650390625</LongitudeDegrees>
            </Position>
            <AltitudeMeters>199</AltitudeMeters>
            <DistanceMeters>NAN</DistanceMeters>
          </Trackpoint>
          <Trackpoint>
            <Time>2019-10-04T12:32:18.000Z</Time>
            <Position>
              <LatitudeDegrees>43.14714233390986919403076171875</LatitudeDegrees>
              <LongitudeDegrees>-5.82542547024786472320556640625</LongitudeDegrees>
            </Position>
            <AltitudeMeters>198.399993896484375</AltitudeMeters>
            <DistanceMeters>NAN</DistanceMeters>
          </Trackpoint>
          <Trackpoint>
            <Time>2019-10-04T12:32:19.000Z</Time>
            <Position>
              <LatitudeDegrees>43.14709070138633251190185546875</LatitudeDegrees>
              <LongitudeDegrees>-5.82541977055370807647705078125</LongitudeDegrees>
            </Position>
            <AltitudeMeters>198.600006103515625</AltitudeMeters>
            <DistanceMeters>NAN</DistanceMeters>
          </Trackpoint>
          <Trackpoint>
            <Time>2019-10-04T12:32:23.000Z</Time>
            <Position>
              <LatitudeDegrees>43.14688819460570812225341796875</LatitudeDegrees>
              <LongitudeDegrees>-5.825468637049198150634765625</LongitudeDegrees>
            </Position>
            <AltitudeMeters>198.399993896484375</AltitudeMeters>
            <DistanceMeters>NAN</DistanceMeters>
          </Trackpoint>
          <Trackpoint>
            <Time>2019-10-04T12:32:32.000Z</Time>
            <Position>
              <LatitudeDegrees>43.14644269645214080810546875</LatitudeDegrees>
              <LongitudeDegrees>-5.82561557181179523468017578125</LongitudeDegrees>
            </Position>
            <AltitudeMeters>198.1999969482421875</AltitudeMeters>
            <DistanceMeters>NAN</DistanceMeters>
          </Trackpoint>
          <Trackpoint>
            <Time>2019-10-04T12:32:40.000Z</Time>
            <Position>
              <LatitudeDegrees>43.1460391916334629058837890625</LatitudeDegrees>
              <LongitudeDegrees>-5.82571967504918575286865234375</LongitudeDegrees>
            </Position>
            <AltitudeMeters>197.8000030517578125</AltitudeMeters>
            <DistanceMeters>NAN</DistanceMeters>
          </Trackpoint>
          <Trackpoint>
            <Time>2019-10-04T12:32:47.000Z</Time>
            <Position>
              <LatitudeDegrees>43.14567466266453266143798828125</LatitudeDegrees>
              <LongitudeDegrees>-5.8257145620882511138916015625</LongitudeDegrees>
            </Position>
            <AltitudeMeters>197.600006103515625</AltitudeMeters>
            <DistanceMeters>NAN</DistanceMeters>
          </Trackpoint>
          <Trackpoint>
            <Time>2019-10-04T12:32:48.000Z</Time>
            <Position>
              <LatitudeDegrees>43.14562261104583740234375</LatitudeDegrees>
              <LongitudeDegrees>-5.8257068507373332977294921875</LongitudeDegrees>
            </Position>
            <AltitudeMeters>197.600006103515625</AltitudeMeters>
            <DistanceMeters>NAN</DistanceMeters>
          </Trackpoint>
          <Trackpoint>
            <Time>2019-10-04T12:32:57.000Z</Time>
            <Position>
              <LatitudeDegrees>43.145161606371402740478515625</LatitudeDegrees>
              <LongitudeDegrees>-5.82558690570294857025146484375</LongitudeDegrees>
            </Position>
            <AltitudeMeters>197.399993896484375</AltitudeMeters>
            <DistanceMeters>NAN</DistanceMeters>
          </Trackpoint>
          <Trackpoint>
            <Time>2019-10-04T12:33:04.000Z</Time>
            <Position>
              <LatitudeDegrees>43.14481987617909908294677734375</LatitudeDegrees>
              <LongitudeDegrees>-5.82545966841280460357666015625</LongitudeDegrees>
            </Position>
            <AltitudeMeters>197.8000030517578125</AltitudeMeters>
            <DistanceMeters>NAN</DistanceMeters>
          </Trackpoint>
          <Trackpoint>
            <Time>2019-10-04T12:33:08.000Z</Time>
            <Position>
              <LatitudeDegrees>43.1446280144155025482177734375</LatitudeDegrees>
              <LongitudeDegrees>-5.82540116272866725921630859375</LongitudeDegrees>
            </Position>
            <AltitudeMeters>198</AltitudeMeters>
            <DistanceMeters>NAN</DistanceMeters>
          </Trackpoint>
          <Trackpoint>
            <Time>2019-10-04T12:33:10.000Z</Time>
            <Position>
              <LatitudeDegrees>43.14453254453837871551513671875</LatitudeDegrees>
              <LongitudeDegrees>-5.825392864644527435302734375</LongitudeDegrees>
            </Position>
            <AltitudeMeters>197.8000030517578125</AltitudeMeters>
            <DistanceMeters>NAN</DistanceMeters>
          </Trackpoint>
          <Trackpoint>
            <Time>2019-10-04T12:33:14.000Z</Time>
            <Position>
              <LatitudeDegrees>43.14433691091835498809814453125</LatitudeDegrees>
              <LongitudeDegrees>-5.8253883384168148040771484375</LongitudeDegrees>
            </Position>
            <AltitudeMeters>197.600006103515625</AltitudeMeters>
            <DistanceMeters>NAN</DistanceMeters>
          </Trackpoint>
          <Trackpoint>
            <Time>2019-10-04T12:33:24.000Z</Time>
            <Position>
              <LatitudeDegrees>43.14385947771370410919189453125</LatitudeDegrees>
              <LongitudeDegrees>-5.825438797473907470703125</LongitudeDegrees>
            </Position>
            <AltitudeMeters>197.1999969482421875</AltitudeMeters>
            <DistanceMeters>NAN</DistanceMeters>
          </Trackpoint>
          <Trackpoint>
            <Time>2019-10-04T12:33:34.000Z</Time>
            <Position>
              <LatitudeDegrees>43.14336243085563182830810546875</LatitudeDegrees>
              <LongitudeDegrees>-5.825471989810466766357421875</LongitudeDegrees>
            </Position>
            <AltitudeMeters>196.8000030517578125</AltitudeMeters>
            <DistanceMeters>NAN</DistanceMeters>
          </Trackpoint>
          <Trackpoint>
            <Time>2019-10-04T12:33:44.000Z</Time>
            <Position>
              <LatitudeDegrees>43.1428634561598300933837890625</LatitudeDegrees>
              <LongitudeDegrees>-5.82550543360412120819091796875</LongitudeDegrees>
            </Position>
            <AltitudeMeters>196.8000030517578125</AltitudeMeters>
            <DistanceMeters>NAN</DistanceMeters>
          </Trackpoint>
          <Trackpoint>
            <Time>2019-10-04T12:33:51.000Z</Time>
            <Position>
              <LatitudeDegrees>43.14252558164298534393310546875</LatitudeDegrees>
              <LongitudeDegrees>-5.825530998408794403076171875</LongitudeDegrees>
            </Position>
            <AltitudeMeters>197</AltitudeMeters>
            <DistanceMeters>NAN</DistanceMeters>
          </Trackpoint>
          <Trackpoint>
            <Time>2019-10-04T12:33:53.000Z</Time>
            <Position>
              <LatitudeDegrees>43.14242986030876636505126953125</LatitudeDegrees>
              <LongitudeDegrees>-5.8255318365991115570068359375</LongitudeDegrees>
            </Position>
            <AltitudeMeters>197.1999969482421875</AltitudeMeters>
            <DistanceMeters>NAN</DistanceMeters>
          </Trackpoint>
          <Trackpoint>
            <Time>2019-10-04T12:34:01.000Z</Time>
            <Position>
              <LatitudeDegrees>43.1420608051121234893798828125</LatitudeDegrees>
              <LongitudeDegrees>-5.82555790431797504425048828125</LongitudeDegrees>
            </Position>
            <AltitudeMeters>197</AltitudeMeters>
            <DistanceMeters>NAN</DistanceMeters>
          </Trackpoint>
          <Trackpoint>
            <Time>2019-10-04T12:34:09.000Z</Time>
            <Position>
              <LatitudeDegrees>43.14169761724770069122314453125</LatitudeDegrees>
              <LongitudeDegrees>-5.82558975555002689361572265625</LongitudeDegrees>
            </Position>
            <AltitudeMeters>197.1999969482421875</AltitudeMeters>
            <DistanceMeters>NAN</DistanceMeters>
          </Trackpoint>
          <Trackpoint>
            <Time>2019-10-04T12:34:18.000Z</Time>
            <Position>
              <LatitudeDegrees>43.141305260360240936279296875</LatitudeDegrees>
              <LongitudeDegrees>-5.82559629343450069427490234375</LongitudeDegrees>
            </Position>
            <AltitudeMeters>197</AltitudeMeters>
            <DistanceMeters>NAN</DistanceMeters>
          </Trackpoint>
          <Trackpoint>
            <Time>2019-10-04T12:34:24.000Z</Time>
            <Position>
              <LatitudeDegrees>43.1410506181418895721435546875</LatitudeDegrees>
              <LongitudeDegrees>-5.8255194313824176788330078125</LongitudeDegrees>
            </Position>
            <AltitudeMeters>197.1999969482421875</AltitudeMeters>
            <DistanceMeters>NAN</DistanceMeters>
          </Trackpoint>
          <Trackpoint>
            <Time>2019-10-04T12:34:25.000Z</Time>
            <Position>
              <LatitudeDegrees>43.141011893749237060546875</LatitudeDegrees>
              <LongitudeDegrees>-5.82549445331096649169921875</LongitudeDegrees>
            </Position>
            <AltitudeMeters>197</AltitudeMeters>
            <DistanceMeters>NAN</DistanceMeters>
          </Trackpoint>
          <Trackpoint>
            <Time>2019-10-04T12:34:34.000Z</Time>
            <Position>
              <LatitudeDegrees>43.14068290404975414276123046875</LatitudeDegrees>
              <LongitudeDegrees>-5.825246684253215789794921875</LongitudeDegrees>
            </Position>
            <AltitudeMeters>197.399993896484375</AltitudeMeters>
            <DistanceMeters>NAN</DistanceMeters>
          </Trackpoint>
          <Trackpoint>
            <Time>2019-10-04T12:34:35.000Z</Time>
            <Position>
              <LatitudeDegrees>43.140651471912860870361328125</LatitudeDegrees>
              <LongitudeDegrees>-5.8252052776515483856201171875</LongitudeDegrees>
            </Position>
            <AltitudeMeters>197.1999969482421875</AltitudeMeters>
            <DistanceMeters>NAN</DistanceMeters>
          </Trackpoint>
          <Trackpoint>
            <Time>2019-10-04T12:34:39.000Z</Time>
            <Position>
              <LatitudeDegrees>43.14051057212054729461669921875</LatitudeDegrees>
              <LongitudeDegrees>-5.8249964006245136260986328125</LongitudeDegrees>
            </Position>
            <AltitudeMeters>197.1999969482421875</AltitudeMeters>
            <DistanceMeters>NAN</DistanceMeters>
          </Trackpoint>
          <Trackpoint>
            <Time>2019-10-04T12:34:45.000Z</Time>
            <Position>
              <LatitudeDegrees>43.1402375735342502593994140625</LatitudeDegrees>
              <LongitudeDegrees>-5.8246078155934810638427734375</LongitudeDegrees>
            </Position>
            <AltitudeMeters>197</AltitudeMeters>
            <DistanceMeters>NAN</DistanceMeters>
          </Trackpoint>
          <Trackpoint>
            <Time>2019-10-04T12:34:47.000Z</Time>
            <Position>
              <LatitudeDegrees>43.14012450166046619415283203125</LatitudeDegrees>
              <LongitudeDegrees>-5.8245122618973255157470703125</LongitudeDegrees>
            </Position>
            <AltitudeMeters>197</AltitudeMeters>
            <DistanceMeters>NAN</DistanceMeters>
          </Trackpoint>
          <Trackpoint>
            <Time>2019-10-04T12:34:49.000Z</Time>
            <Position>
              <LatitudeDegrees>43.1400005333125591278076171875</LatitudeDegrees>
              <LongitudeDegrees>-5.8244611322879791259765625</LongitudeDegrees>
            </Position>
            <AltitudeMeters>197.1999969482421875</AltitudeMeters>
            <DistanceMeters>NAN</DistanceMeters>
          </Trackpoint>
          <Trackpoint>
            <Time>2019-10-04T12:34:55.000Z</Time>
            <Position>
              <LatitudeDegrees>43.13966550864279270172119140625</LatitudeDegrees>
              <LongitudeDegrees>-5.8242919854819774627685546875</LongitudeDegrees>
            </Position>
            <AltitudeMeters>197.1999969482421875</AltitudeMeters>
            <DistanceMeters>NAN</DistanceMeters>
          </Trackpoint>
          <Trackpoint>
            <Time>2019-10-04T12:35:00.000Z</Time>
            <Position>
              <LatitudeDegrees>43.13940868712961673736572265625</LatitudeDegrees>
              <LongitudeDegrees>-5.8241629041731357574462890625</LongitudeDegrees>
            </Position>
            <AltitudeMeters>197</AltitudeMeters>
            <DistanceMeters>NAN</DistanceMeters>
          </Trackpoint>
          <Trackpoint>
            <Time>2019-10-04T12:35:03.000Z</Time>
            <Position>
              <LatitudeDegrees>43.13925714232027530670166015625</LatitudeDegrees>
              <LongitudeDegrees>-5.82407715730369091033935546875</LongitudeDegrees>
            </Position>
            <AltitudeMeters>196.8000030517578125</AltitudeMeters>
            <DistanceMeters>NAN</DistanceMeters>
          </Trackpoint>
          <Trackpoint>
            <Time>2019-10-04T12:35:07.000Z</Time>
            <Position>
              <LatitudeDegrees>43.13906905241310596466064453125</LatitudeDegrees>
              <LongitudeDegrees>-5.82398981787264347076416015625</LongitudeDegrees>
            </Position>
            <AltitudeMeters>197</AltitudeMeters>
            <DistanceMeters>NAN</DistanceMeters>
          </Trackpoint>
          <Trackpoint>
            <Time>2019-10-04T12:35:09.000Z</Time>
            <Position>
              <LatitudeDegrees>43.13899529166519641876220703125</LatitudeDegrees>
              <LongitudeDegrees>-5.823969282209873199462890625</LongitudeDegrees>
            </Position>
            <AltitudeMeters>197</AltitudeMeters>
            <DistanceMeters>NAN</DistanceMeters>
          </Trackpoint>
          <Trackpoint>
            <Time>2019-10-04T12:35:12.000Z</Time>
            <Position>
              <LatitudeDegrees>43.138883225619792938232421875</LatitudeDegrees>
              <LongitudeDegrees>-5.823915638029575347900390625</LongitudeDegrees>
            </Position>
            <AltitudeMeters>196.8000030517578125</AltitudeMeters>
            <DistanceMeters>NAN</DistanceMeters>
          </Trackpoint>
          <Trackpoint>
            <Time>2019-10-04T12:35:14.000Z</Time>
            <Position>
              <LatitudeDegrees>43.13879798166453838348388671875</LatitudeDegrees>
              <LongitudeDegrees>-5.82385771907866001129150390625</LongitudeDegrees>
            </Position>
            <AltitudeMeters>196.600006103515625</AltitudeMeters>
            <DistanceMeters>NAN</DistanceMeters>
          </Trackpoint>
          <Trackpoint>
            <Time>2019-10-04T12:35:19.000Z</Time>
            <Position>
              <LatitudeDegrees>43.13857133500277996063232421875</LatitudeDegrees>
              <LongitudeDegrees>-5.823735259473323822021484375</LongitudeDegrees>
            </Position>
            <AltitudeMeters>196.600006103515625</AltitudeMeters>
            <DistanceMeters>NAN</DistanceMeters>
          </Trackpoint>
          <Trackpoint>
            <Time>2019-10-04T12:35:22.000Z</Time>
            <Position>
              <LatitudeDegrees>43.13843085430562496185302734375</LatitudeDegrees>
              <LongitudeDegrees>-5.82366007380187511444091796875</LongitudeDegrees>
            </Position>
            <AltitudeMeters>196.399993896484375</AltitudeMeters>
            <DistanceMeters>NAN</DistanceMeters>
          </Trackpoint>
          <Trackpoint>
            <Time>2019-10-04T12:35:29.000Z</Time>
            <Position>
              <LatitudeDegrees>43.13809541054069995880126953125</LatitudeDegrees>
              <LongitudeDegrees>-5.82349461503326892852783203125</LongitudeDegrees>
            </Position>
            <AltitudeMeters>196.8000030517578125</AltitudeMeters>
            <DistanceMeters>NAN</DistanceMeters>
          </Trackpoint>
          <Trackpoint>
            <Time>2019-10-04T12:35:38.000Z</Time>
            <Position>
              <LatitudeDegrees>43.1376767344772815704345703125</LatitudeDegrees>
              <LongitudeDegrees>-5.823269225656986236572265625</LongitudeDegrees>
            </Position>
            <AltitudeMeters>196.600006103515625</AltitudeMeters>
            <DistanceMeters>NAN</DistanceMeters>
          </Trackpoint>
          <Trackpoint>
            <Time>2019-10-04T12:35:45.000Z</Time>
            <Position>
              <LatitudeDegrees>43.1373545341193675994873046875</LatitudeDegrees>
              <LongitudeDegrees>-5.823108293116092681884765625</LongitudeDegrees>
            </Position>
            <AltitudeMeters>196.399993896484375</AltitudeMeters>
            <DistanceMeters>NAN</DistanceMeters>
          </Trackpoint>
          <Trackpoint>
            <Time>2019-10-04T12:35:53.000Z</Time>
            <Position>
              <LatitudeDegrees>43.13700039871037006378173828125</LatitudeDegrees>
              <LongitudeDegrees>-5.82295733503997325897216796875</LongitudeDegrees>
            </Position>
            <AltitudeMeters>196.8000030517578125</AltitudeMeters>
            <DistanceMeters>NAN</DistanceMeters>
          </Trackpoint>
          <Trackpoint>
            <Time>2019-10-04T12:35:54.000Z</Time>
            <Position>
              <LatitudeDegrees>43.13695999793708324432373046875</LatitudeDegrees>
              <LongitudeDegrees>-5.8229468576610088348388671875</LongitudeDegrees>
            </Position>
            <AltitudeMeters>196.8000030517578125</AltitudeMeters>
            <DistanceMeters>NAN</DistanceMeters>
          </Trackpoint>
          <Trackpoint>
            <Time>2019-10-04T12:36:02.000Z</Time>
            <Position>
              <LatitudeDegrees>43.13664835877716541290283203125</LatitudeDegrees>
              <LongitudeDegrees>-5.8228549920022487640380859375</LongitudeDegrees>
            </Position>
            <AltitudeMeters>197</AltitudeMeters>
            <DistanceMeters>NAN</DistanceMeters>
          </Trackpoint>
          <Trackpoint>
            <Time>2019-10-04T12:36:07.000Z</Time>
            <Position>
              <LatitudeDegrees>43.136518858373165130615234375</LatitudeDegrees>
              <LongitudeDegrees>-5.82282255403697490692138671875</LongitudeDegrees>
            </Position>
            <AltitudeMeters>196.8000030517578125</AltitudeMeters>
            <DistanceMeters>NAN</DistanceMeters>
          </Trackpoint>
          <Trackpoint>
            <Time>2019-10-04T12:36:12.000Z</Time>
            <Position>
              <LatitudeDegrees>43.13638634048402309417724609375</LatitudeDegrees>
              <LongitudeDegrees>-5.82278802059590816497802734375</LongitudeDegrees>
            </Position>
            <AltitudeMeters>196.8000030517578125</AltitudeMeters>
            <DistanceMeters>NAN</DistanceMeters>
          </Trackpoint>
          <Trackpoint>
            <Time>2019-10-04T12:36:14.000Z</Time>
            <Position>
              <LatitudeDegrees>43.136335797607898712158203125</LatitudeDegrees>
              <LongitudeDegrees>-5.82277326844632625579833984375</LongitudeDegrees>
            </Position>
            <AltitudeMeters>196.8000030517578125</AltitudeMeters>
            <DistanceMeters>NAN</DistanceMeters>
          </Trackpoint>
          <Trackpoint>
            <Time>2019-10-04T12:36:17.000Z</Time>
            <Position>
              <LatitudeDegrees>43.13626966439187526702880859375</LatitudeDegrees>
              <LongitudeDegrees>-5.8227550797164440155029296875</LongitudeDegrees>
            </Position>
            <AltitudeMeters>197</AltitudeMeters>
            <DistanceMeters>NAN</DistanceMeters>
          </Trackpoint>
          <Trackpoint>
            <Time>2019-10-04T12:36:20.000Z</Time>
            <Position>
              <LatitudeDegrees>43.13620076514780521392822265625</LatitudeDegrees>
              <LongitudeDegrees>-5.82274393178522586822509765625</LongitudeDegrees>
            </Position>
            <AltitudeMeters>196.8000030517578125</AltitudeMeters>
            <DistanceMeters>NAN</DistanceMeters>
          </Trackpoint>
          <Trackpoint>
            <Time>2019-10-04T12:36:21.000Z</Time>
            <Position>
              <LatitudeDegrees>43.13617997802793979644775390625</LatitudeDegrees>
              <LongitudeDegrees>-5.8227346278727054595947265625</LongitudeDegrees>
            </Position>
            <AltitudeMeters>197</AltitudeMeters>
            <DistanceMeters>NAN</DistanceMeters>
          </Trackpoint>
          <Trackpoint>
            <Time>2019-10-04T12:36:24.000Z</Time>
            <Position>
              <LatitudeDegrees>43.13610789366066455841064453125</LatitudeDegrees>
              <LongitudeDegrees>-5.82270520739257335662841796875</LongitudeDegrees>
            </Position>
            <AltitudeMeters>196.8000030517578125</AltitudeMeters>
            <DistanceMeters>NAN</DistanceMeters>
          </Trackpoint>
          <Trackpoint>
            <Time>2019-10-04T12:36:28.000Z</Time>
            <Position>
              <LatitudeDegrees>43.13602960668504238128662109375</LatitudeDegrees>
              <LongitudeDegrees>-5.8226682431995868682861328125</LongitudeDegrees>
            </Position>
            <AltitudeMeters>196.600006103515625</AltitudeMeters>
            <DistanceMeters>NAN</DistanceMeters>
          </Trackpoint>
          <Trackpoint>
            <Time>2019-10-04T12:36:29.000Z</Time>
            <Position>
              <LatitudeDegrees>43.136010579764842987060546875</LatitudeDegrees>
              <LongitudeDegrees>-5.8226605318486690521240234375</LongitudeDegrees>
            </Position>
            <AltitudeMeters>196.8000030517578125</AltitudeMeters>
            <DistanceMeters>NAN</DistanceMeters>
          </Trackpoint>
          <Trackpoint>
            <Time>2019-10-04T12:36:33.000Z</Time>
            <Position>
              <LatitudeDegrees>43.13592047430574893951416015625</LatitudeDegrees>
              <LongitudeDegrees>-5.82264603115618228912353515625</LongitudeDegrees>
            </Position>
            <AltitudeMeters>196.600006103515625</AltitudeMeters>
            <DistanceMeters>NAN</DistanceMeters>
          </Trackpoint>
          <Trackpoint>
            <Time>2019-10-04T12:36:37.000Z</Time>
            <Position>
              <LatitudeDegrees>43.13583263196051120758056640625</LatitudeDegrees>
              <LongitudeDegrees>-5.82262373529374599456787109375</LongitudeDegrees>
            </Position>
            <AltitudeMeters>196.8000030517578125</AltitudeMeters>
            <DistanceMeters>NAN</DistanceMeters>
          </Trackpoint>
          <Trackpoint>
            <Time>2019-10-04T12:36:45.000Z</Time>
            <Position>
              <LatitudeDegrees>43.1356439553201198577880859375</LatitudeDegrees>
              <LongitudeDegrees>-5.82259926013648509979248046875</LongitudeDegrees>
            </Position>
            <AltitudeMeters>197</AltitudeMeters>
            <DistanceMeters>NAN</DistanceMeters>
          </Trackpoint>
          <Trackpoint>
            <Time>2019-10-04T12:36:51.000Z</Time>
            <Position>
              <LatitudeDegrees>43.1354870460927486419677734375</LatitudeDegrees>
              <LongitudeDegrees>-5.82261803559958934783935546875</LongitudeDegrees>
            </Position>
            <AltitudeMeters>196.600006103515625</AltitudeMeters>
            <DistanceMeters>NAN</DistanceMeters>
          </Trackpoint>
          <Trackpoint>
            <Time>2019-10-04T12:36:57.000Z</Time>
            <Position>
              <LatitudeDegrees>43.13526953570544719696044921875</LatitudeDegrees>
              <LongitudeDegrees>-5.822679810225963592529296875</LongitudeDegrees>
            </Position>
            <AltitudeMeters>196.1999969482421875</AltitudeMeters>
            <DistanceMeters>NAN</DistanceMeters>
          </Trackpoint>
          <Trackpoint>
            <Time>2019-10-04T12:37:03.000Z</Time>
            <Position>
              <LatitudeDegrees>43.134969882667064666748046875</LatitudeDegrees>
              <LongitudeDegrees>-5.82277896814048290252685546875</LongitudeDegrees>
            </Position>
            <AltitudeMeters>196.399993896484375</AltitudeMeters>
            <DistanceMeters>NAN</DistanceMeters>
          </Trackpoint>
          <Trackpoint>
            <Time>2019-10-04T12:37:07.000Z</Time>
            <Position>
              <LatitudeDegrees>43.13468632288277149200439453125</LatitudeDegrees>
              <LongitudeDegrees>-5.82283915020525455474853515625</LongitudeDegrees>
            </Position>
            <AltitudeMeters>195.8000030517578125</AltitudeMeters>
            <DistanceMeters>NAN</DistanceMeters>
          </Trackpoint>
          <Trackpoint>
            <Time>2019-10-04T12:37:08.000Z</Time>
            <Position>
              <LatitudeDegrees>43.134606778621673583984375</LatitudeDegrees>
              <LongitudeDegrees>-5.82282297313213348388671875</LongitudeDegrees>
            </Position>
            <AltitudeMeters>195.8000030517578125</AltitudeMeters>
            <DistanceMeters>NAN</DistanceMeters>
          </Trackpoint>
          <Trackpoint>
            <Time>2019-10-04T12:37:11.000Z</Time>
            <Position>
              <LatitudeDegrees>43.1343734264373779296875</LatitudeDegrees>
              <LongitudeDegrees>-5.82267654128372669219970703125</LongitudeDegrees>
            </Position>
            <AltitudeMeters>195.8000030517578125</AltitudeMeters>
            <DistanceMeters>NAN</DistanceMeters>
          </Trackpoint>
          <Trackpoint>
            <Time>2019-10-04T12:37:14.000Z</Time>
            <Position>
              <LatitudeDegrees>43.1341774575412273406982421875</LatitudeDegrees>
              <LongitudeDegrees>-5.82246447913348674774169921875</LongitudeDegrees>
            </Position>
            <AltitudeMeters>196</AltitudeMeters>
            <DistanceMeters>NAN</DistanceMeters>
          </Trackpoint>
          <Trackpoint>
            <Time>2019-10-04T12:37:16.000Z</Time>
            <Position>
              <LatitudeDegrees>43.13405483029782772064208984375</LatitudeDegrees>
              <LongitudeDegrees>-5.8223356492817401885986328125</LongitudeDegrees>
            </Position>
            <AltitudeMeters>195.600006103515625</AltitudeMeters>
            <DistanceMeters>NAN</DistanceMeters>
          </Trackpoint>
          <Trackpoint>
            <Time>2019-10-04T12:37:19.000Z</Time>
            <Position>
              <LatitudeDegrees>43.1338824145495891571044921875</LatitudeDegrees>
              <LongitudeDegrees>-5.822145380079746246337890625</LongitudeDegrees>
            </Position>
            <AltitudeMeters>196.399993896484375</AltitudeMeters>
            <DistanceMeters>NAN</DistanceMeters>
          </Trackpoint>
          <Trackpoint>
            <Time>2019-10-04T12:37:21.000Z</Time>
            <Position>
              <LatitudeDegrees>43.13377152197062969207763671875</LatitudeDegrees>
              <LongitudeDegrees>-5.8220238424837589263916015625</LongitudeDegrees>
            </Position>
            <AltitudeMeters>196.600006103515625</AltitudeMeters>
            <DistanceMeters>NAN</DistanceMeters>
          </Trackpoint>
          <Trackpoint>
            <Time>2019-10-04T12:37:24.000Z</Time>
            <Position>
              <LatitudeDegrees>43.13361226581037044525146484375</LatitudeDegrees>
              <LongitudeDegrees>-5.8218468166887760162353515625</LongitudeDegrees>
            </Position>
            <AltitudeMeters>196.399993896484375</AltitudeMeters>
            <DistanceMeters>NAN</DistanceMeters>
          </Trackpoint>
          <Trackpoint>
            <Time>2019-10-04T12:37:28.000Z</Time>
            <Position>
              <LatitudeDegrees>43.1334056518971920013427734375</LatitudeDegrees>
              <LongitudeDegrees>-5.8216215111315250396728515625</LongitudeDegrees>
            </Position>
            <AltitudeMeters>196.600006103515625</AltitudeMeters>
            <DistanceMeters>NAN</DistanceMeters>
          </Trackpoint>
          <Trackpoint>
            <Time>2019-10-04T12:37:30.000Z</Time>
            <Position>
              <LatitudeDegrees>43.13335879705846309661865234375</LatitudeDegrees>
              <LongitudeDegrees>-5.82158605568110942840576171875</LongitudeDegrees>
            </Position>
            <AltitudeMeters>197</AltitudeMeters>
            <DistanceMeters>NAN</DistanceMeters>
          </Trackpoint>
          <Trackpoint>
            <Time>2019-10-04T12:37:32.000Z</Time>
            <Position>
              <LatitudeDegrees>43.13333817757666110992431640625</LatitudeDegrees>
              <LongitudeDegrees>-5.82161673344671726226806640625</LongitudeDegrees>
            </Position>
            <AltitudeMeters>197.399993896484375</AltitudeMeters>
            <DistanceMeters>NAN</DistanceMeters>
          </Trackpoint>
          <Trackpoint>
            <Time>2019-10-04T12:37:33.000Z</Time>
            <Position>
              <LatitudeDegrees>43.13333809375762939453125</LatitudeDegrees>
              <LongitudeDegrees>-5.8216091059148311614990234375</LongitudeDegrees>
            </Position>
            <AltitudeMeters>197.399993896484375</AltitudeMeters>
            <DistanceMeters>NAN</DistanceMeters>
          </Trackpoint>
          <Trackpoint>
            <Time>2019-10-04T12:37:38.000Z</Time>
            <Position>
              <LatitudeDegrees>43.1333214975893497467041015625</LatitudeDegrees>
              <LongitudeDegrees>-5.8216241933405399322509765625</LongitudeDegrees>
            </Position>
            <AltitudeMeters>197.600006103515625</AltitudeMeters>
            <DistanceMeters>NAN</DistanceMeters>
          </Trackpoint>
          <Trackpoint>
            <Time>2019-10-04T12:37:39.000Z</Time>
            <Position>
              <LatitudeDegrees>43.1333251856267452239990234375</LatitudeDegrees>
              <LongitudeDegrees>-5.8216238580644130706787109375</LongitudeDegrees>
            </Position>
            <AltitudeMeters>197.600006103515625</AltitudeMeters>
            <DistanceMeters>NAN</DistanceMeters>
          </Trackpoint>
          <Trackpoint>
            <Time>2019-10-04T12:37:47.000Z</Time>
            <Position>
              <LatitudeDegrees>43.13332225196063518524169921875</LatitudeDegrees>
              <LongitudeDegrees>-5.82162394188344478607177734375</LongitudeDegrees>
            </Position>
            <AltitudeMeters>197.8000030517578125</AltitudeMeters>
            <DistanceMeters>NAN</DistanceMeters>
          </Trackpoint>
          <Trackpoint>
            <Time>2019-10-04T12:38:12.000Z</Time>
            <Position>
              <LatitudeDegrees>43.13332225196063518524169921875</LatitudeDegrees>
              <LongitudeDegrees>-5.82162394188344478607177734375</LongitudeDegrees>
            </Position>
            <AltitudeMeters>197.399993896484375</AltitudeMeters>
            <DistanceMeters>NAN</DistanceMeters>
          </Trackpoint>
          <Trackpoint>
            <Time>2019-10-04T12:38:19.000Z</Time>
            <Position>
              <LatitudeDegrees>43.13331923447549343109130859375</LatitudeDegrees>
              <LongitudeDegrees>-5.8216251991689205169677734375</LongitudeDegrees>
            </Position>
            <AltitudeMeters>196.8000030517578125</AltitudeMeters>
            <DistanceMeters>NAN</DistanceMeters>
          </Trackpoint>
          <Trackpoint>
            <Time>2019-10-04T12:38:20.000Z</Time>
            <Position>
              <LatitudeDegrees>43.13332493416965007781982421875</LatitudeDegrees>
              <LongitudeDegrees>-5.82163115032017230987548828125</LongitudeDegrees>
            </Position>
            <AltitudeMeters>196.8000030517578125</AltitudeMeters>
            <DistanceMeters>NAN</DistanceMeters>
          </Trackpoint>
          <Trackpoint>
            <Time>2019-10-04T12:38:22.000Z</Time>
            <Position>
              <LatitudeDegrees>43.13332610763609409332275390625</LatitudeDegrees>
              <LongitudeDegrees>-5.821621678769588470458984375</LongitudeDegrees>
            </Position>
            <AltitudeMeters>196.600006103515625</AltitudeMeters>
            <DistanceMeters>NAN</DistanceMeters>
          </Trackpoint>
          <Trackpoint>
            <Time>2019-10-04T12:38:24.000Z</Time>
            <Position>
              <LatitudeDegrees>43.13333214260637760162353515625</LatitudeDegrees>
              <LongitudeDegrees>-5.82161555998027324676513671875</LongitudeDegrees>
            </Position>
            <AltitudeMeters>196.8000030517578125</AltitudeMeters>
            <DistanceMeters>NAN</DistanceMeters>
          </Trackpoint>
          <Trackpoint>
            <Time>2019-10-04T12:38:26.000Z</Time>
            <Position>
              <LatitudeDegrees>43.13332711346447467803955078125</LatitudeDegrees>
              <LongitudeDegrees>-5.8216144703328609466552734375</LongitudeDegrees>
            </Position>
            <AltitudeMeters>196.600006103515625</AltitudeMeters>
            <DistanceMeters>NAN</DistanceMeters>
          </Trackpoint>
          <Trackpoint>
            <Time>2019-10-04T12:38:27.000Z</Time>
            <Position>
              <LatitudeDegrees>43.133331723511219024658203125</LatitudeDegrees>
              <LongitudeDegrees>-5.82160835154354572296142578125</LongitudeDegrees>
            </Position>
            <AltitudeMeters>196.600006103515625</AltitudeMeters>
            <DistanceMeters>NAN</DistanceMeters>
          </Trackpoint>
          <Trackpoint>
            <Time>2019-10-04T12:38:33.000Z</Time>
            <Position>
              <LatitudeDegrees>43.13332644291222095489501953125</LatitudeDegrees>
              <LongitudeDegrees>-5.8216059207916259765625</LongitudeDegrees>
            </Position>
            <AltitudeMeters>196.1999969482421875</AltitudeMeters>
            <DistanceMeters>NAN</DistanceMeters>
          </Trackpoint>
          <Trackpoint>
            <Time>2019-10-04T12:38:37.000Z</Time>
            <Position>
              <LatitudeDegrees>43.13332644291222095489501953125</LatitudeDegrees>
              <LongitudeDegrees>-5.8216059207916259765625</LongitudeDegrees>
            </Position>
            <AltitudeMeters>196</AltitudeMeters>
            <DistanceMeters>NAN</DistanceMeters>
          </Trackpoint>
          <Trackpoint>
            <Time>2019-10-04T12:38:40.000Z</Time>
            <Position>
              <LatitudeDegrees>43.13332644291222095489501953125</LatitudeDegrees>
              <LongitudeDegrees>-5.8216059207916259765625</LongitudeDegrees>
            </Position>
            <AltitudeMeters>195.600006103515625</AltitudeMeters>
            <DistanceMeters>NAN</DistanceMeters>
          </Trackpoint>
          <Trackpoint>
            <Time>2019-10-04T12:38:41.000Z</Time>
            <Position>
              <LatitudeDegrees>43.13332644291222095489501953125</LatitudeDegrees>
              <LongitudeDegrees>-5.8216059207916259765625</LongitudeDegrees>
            </Position>
            <AltitudeMeters>195.399993896484375</AltitudeMeters>
            <DistanceMeters>NAN</DistanceMeters>
          </Trackpoint>
          <Trackpoint>
            <Time>2019-10-04T12:38:45.000Z</Time>
            <Position>
              <LatitudeDegrees>43.13332644291222095489501953125</LatitudeDegrees>
              <LongitudeDegrees>-5.8216059207916259765625</LongitudeDegrees>
            </Position>
            <AltitudeMeters>195.399993896484375</AltitudeMeters>
            <DistanceMeters>NAN</DistanceMeters>
          </Trackpoint>
          <Trackpoint>
            <Time>2019-10-04T12:38:51.000Z</Time>
            <Position>
              <LatitudeDegrees>43.13332644291222095489501953125</LatitudeDegrees>
              <LongitudeDegrees>-5.8216059207916259765625</LongitudeDegrees>
            </Position>
            <AltitudeMeters>195</AltitudeMeters>
            <DistanceMeters>NAN</DistanceMeters>
          </Trackpoint>
          <Trackpoint>
            <Time>2019-10-04T12:38:55.000Z</Time>
            <Position>
              <LatitudeDegrees>43.13332644291222095489501953125</LatitudeDegrees>
              <LongitudeDegrees>-5.8216059207916259765625</LongitudeDegrees>
            </Position>
            <AltitudeMeters>194.399993896484375</AltitudeMeters>
            <DistanceMeters>NAN</DistanceMeters>
          </Trackpoint>
          <Trackpoint>
            <Time>2019-10-04T12:39:09.000Z</Time>
            <Position>
              <LatitudeDegrees>43.1333265267312526702880859375</LatitudeDegrees>
              <LongitudeDegrees>-5.82160214893519878387451171875</LongitudeDegrees>
            </Position>
            <AltitudeMeters>194.399993896484375</AltitudeMeters>
            <DistanceMeters>NAN</DistanceMeters>
          </Trackpoint>
          <Trackpoint>
            <Time>2019-10-04T12:39:18.000Z</Time>
            <Position>
              <LatitudeDegrees>43.1333282031118869781494140625</LatitudeDegrees>
              <LongitudeDegrees>-5.82158789969980716705322265625</LongitudeDegrees>
            </Position>
            <AltitudeMeters>194.399993896484375</AltitudeMeters>
            <DistanceMeters>NAN</DistanceMeters>
          </Trackpoint>
          <Trackpoint>
            <Time>2019-10-04T12:39:20.000Z</Time>
            <Position>
              <LatitudeDegrees>43.1333282031118869781494140625</LatitudeDegrees>
              <LongitudeDegrees>-5.82158789969980716705322265625</LongitudeDegrees>
            </Position>
            <AltitudeMeters>194.1999969482421875</AltitudeMeters>
            <DistanceMeters>NAN</DistanceMeters>
          </Trackpoint>
          <Trackpoint>
            <Time>2019-10-04T12:39:26.000Z</Time>
            <Position>
              <LatitudeDegrees>43.1333282031118869781494140625</LatitudeDegrees>
              <LongitudeDegrees>-5.82158789969980716705322265625</LongitudeDegrees>
            </Position>
            <AltitudeMeters>194</AltitudeMeters>
            <DistanceMeters>NAN</DistanceMeters>
          </Trackpoint>
          <Trackpoint>
            <Time>2019-10-04T12:39:29.000Z</Time>
            <Position>
              <LatitudeDegrees>43.1333282031118869781494140625</LatitudeDegrees>
              <LongitudeDegrees>-5.82158789969980716705322265625</LongitudeDegrees>
            </Position>
            <AltitudeMeters>194.1999969482421875</AltitudeMeters>
            <DistanceMeters>NAN</DistanceMeters>
          </Trackpoint>
          <Trackpoint>
            <Time>2019-10-04T12:39:30.000Z</Time>
            <Position>
              <LatitudeDegrees>43.1333282031118869781494140625</LatitudeDegrees>
              <LongitudeDegrees>-5.82158789969980716705322265625</LongitudeDegrees>
            </Position>
            <AltitudeMeters>194.1999969482421875</AltitudeMeters>
            <DistanceMeters>NAN</DistanceMeters>
          </Trackpoint>
          <Trackpoint>
            <Time>2019-10-04T12:39:31.000Z</Time>
            <Position>
              <LatitudeDegrees>43.1333282031118869781494140625</LatitudeDegrees>
              <LongitudeDegrees>-5.82158789969980716705322265625</LongitudeDegrees>
            </Position>
            <AltitudeMeters>194</AltitudeMeters>
            <DistanceMeters>NAN</DistanceMeters>
          </Trackpoint>
          <Trackpoint>
            <Time>2019-10-04T12:39:38.000Z</Time>
            <Position>
              <LatitudeDegrees>43.1333282031118869781494140625</LatitudeDegrees>
              <LongitudeDegrees>-5.82158789969980716705322265625</LongitudeDegrees>
            </Position>
            <AltitudeMeters>194.1999969482421875</AltitudeMeters>
            <DistanceMeters>NAN</DistanceMeters>
          </Trackpoint>
          <Trackpoint>
            <Time>2019-10-04T12:39:40.000Z</Time>
            <Position>
              <LatitudeDegrees>43.13332862220704555511474609375</LatitudeDegrees>
              <LongitudeDegrees>-5.82158387638628482818603515625</LongitudeDegrees>
            </Position>
            <AltitudeMeters>194</AltitudeMeters>
            <DistanceMeters>NAN</DistanceMeters>
          </Trackpoint>
          <Trackpoint>
            <Time>2019-10-04T12:39:41.000Z</Time>
            <Position>
              <LatitudeDegrees>43.13332728110253810882568359375</LatitudeDegrees>
              <LongitudeDegrees>-5.82156375981867313385009765625</LongitudeDegrees>
            </Position>
            <AltitudeMeters>193.8000030517578125</AltitudeMeters>
            <DistanceMeters>NAN</DistanceMeters>
          </Trackpoint>
          <Trackpoint>
            <Time>2019-10-04T12:39:43.000Z</Time>
            <Position>
              <LatitudeDegrees>43.13331185840070247650146484375</LatitudeDegrees>
              <LongitudeDegrees>-5.8215262927114963531494140625</LongitudeDegrees>
            </Position>
            <AltitudeMeters>194</AltitudeMeters>
            <DistanceMeters>NAN</DistanceMeters>
          </Trackpoint>
          <Trackpoint>
            <Time>2019-10-04T12:39:48.000Z</Time>
            <Position>
              <LatitudeDegrees>43.13324086368083953857421875</LatitudeDegrees>
              <LongitudeDegrees>-5.82144163548946380615234375</LongitudeDegrees>
            </Position>
            <AltitudeMeters>193.600006103515625</AltitudeMeters>
            <DistanceMeters>NAN</DistanceMeters>
          </Trackpoint>
          <Trackpoint>
            <Time>2019-10-04T12:39:49.000Z</Time>
            <Position>
              <LatitudeDegrees>43.1332249380648136138916015625</LatitudeDegrees>
              <LongitudeDegrees>-5.821423195302486419677734375</LongitudeDegrees>
            </Position>
            <AltitudeMeters>193.600006103515625</AltitudeMeters>
            <DistanceMeters>NAN</DistanceMeters>
          </Trackpoint>
          <Trackpoint>
            <Time>2019-10-04T12:39:55.000Z</Time>
            <Position>
              <LatitudeDegrees>43.13310683704912662506103515625</LatitudeDegrees>
              <LongitudeDegrees>-5.82130844704806804656982421875</LongitudeDegrees>
            </Position>
            <AltitudeMeters>193.399993896484375</AltitudeMeters>
            <DistanceMeters>NAN</DistanceMeters>
          </Trackpoint>
          <Trackpoint>
            <Time>2019-10-04T12:39:58.000Z</Time>
            <Position>
              <LatitudeDegrees>43.1330452300608158111572265625</LatitudeDegrees>
              <LongitudeDegrees>-5.82124424166977405548095703125</LongitudeDegrees>
            </Position>
            <AltitudeMeters>193.1999969482421875</AltitudeMeters>
            <DistanceMeters>NAN</DistanceMeters>
          </Trackpoint>
          <Trackpoint>
            <Time>2019-10-04T12:40:05.000Z</Time>
            <Position>
              <LatitudeDegrees>43.13288806937634944915771484375</LatitudeDegrees>
              <LongitudeDegrees>-5.8210629411041736602783203125</LongitudeDegrees>
            </Position>
            <AltitudeMeters>193.1999969482421875</AltitudeMeters>
            <DistanceMeters>NAN</DistanceMeters>
          </Trackpoint>
          <Trackpoint>
            <Time>2019-10-04T12:40:11.000Z</Time>
            <Position>
              <LatitudeDegrees>43.13273526728153228759765625</LatitudeDegrees>
              <LongitudeDegrees>-5.8209072053432464599609375</LongitudeDegrees>
            </Position>
            <AltitudeMeters>192.600006103515625</AltitudeMeters>
            <DistanceMeters>NAN</DistanceMeters>
          </Trackpoint>
          <Trackpoint>
            <Time>2019-10-04T12:40:15.000Z</Time>
            <Position>
              <LatitudeDegrees>43.132631666958332061767578125</LatitudeDegrees>
              <LongitudeDegrees>-5.820796228945255279541015625</LongitudeDegrees>
            </Position>
            <AltitudeMeters>192.399993896484375</AltitudeMeters>
            <DistanceMeters>NAN</DistanceMeters>
          </Trackpoint>
          <Trackpoint>
            <Time>2019-10-04T12:40:19.000Z</Time>
            <Position>
              <LatitudeDegrees>43.13252161256968975067138671875</LatitudeDegrees>
              <LongitudeDegrees>-5.82067594863474369049072265625</LongitudeDegrees>
            </Position>
            <AltitudeMeters>192.1999969482421875</AltitudeMeters>
            <DistanceMeters>NAN</DistanceMeters>
          </Trackpoint>
          <Trackpoint>
            <Time>2019-10-04T12:40:20.000Z</Time>
            <Position>
              <LatitudeDegrees>43.1324937008321285247802734375</LatitudeDegrees>
              <LongitudeDegrees>-5.82064577378332614898681640625</LongitudeDegrees>
            </Position>
            <AltitudeMeters>192.399993896484375</AltitudeMeters>
            <DistanceMeters>NAN</DistanceMeters>
          </Trackpoint>
          <Trackpoint>
            <Time>2019-10-04T12:40:25.000Z</Time>
            <Position>
              <LatitudeDegrees>43.13235598616302013397216796875</LatitudeDegrees>
              <LongitudeDegrees>-5.82049615681171417236328125</LongitudeDegrees>
            </Position>
            <AltitudeMeters>192.600006103515625</AltitudeMeters>
            <DistanceMeters>NAN</DistanceMeters>
          </Trackpoint>
          <Trackpoint>
            <Time>2019-10-04T12:40:29.000Z</Time>
            <Position>
              <LatitudeDegrees>43.13224576413631439208984375</LatitudeDegrees>
              <LongitudeDegrees>-5.8203773014247417449951171875</LongitudeDegrees>
            </Position>
            <AltitudeMeters>192.399993896484375</AltitudeMeters>
            <DistanceMeters>NAN</DistanceMeters>
          </Trackpoint>
          <Trackpoint>
            <Time>2019-10-04T12:40:36.000Z</Time>
            <Position>
              <LatitudeDegrees>43.132058344781398773193359375</LatitudeDegrees>
              <LongitudeDegrees>-5.8201701007783412933349609375</LongitudeDegrees>
            </Position>
            <AltitudeMeters>192.1999969482421875</AltitudeMeters>
            <DistanceMeters>NAN</DistanceMeters>
          </Trackpoint>
          <Trackpoint>
            <Time>2019-10-04T12:40:43.000Z</Time>
            <Position>
              <LatitudeDegrees>43.13186195679008960723876953125</LatitudeDegrees>
              <LongitudeDegrees>-5.81996507942676544189453125</LongitudeDegrees>
            </Position>
            <AltitudeMeters>192.1999969482421875</AltitudeMeters>
            <DistanceMeters>NAN</DistanceMeters>
          </Trackpoint>
          <Trackpoint>
            <Time>2019-10-04T12:40:51.000Z</Time>
            <Position>
              <LatitudeDegrees>43.1316263414919376373291015625</LatitudeDegrees>
              <LongitudeDegrees>-5.81975997425615787506103515625</LongitudeDegrees>
            </Position>
            <AltitudeMeters>192.399993896484375</AltitudeMeters>
            <DistanceMeters>NAN</DistanceMeters>
          </Trackpoint>
          <Trackpoint>
            <Time>2019-10-04T12:40:52.000Z</Time>
            <Position>
              <LatitudeDegrees>43.13159658573567867279052734375</LatitudeDegrees>
              <LongitudeDegrees>-5.8197431266307830810546875</LongitudeDegrees>
            </Position>
            <AltitudeMeters>192.8000030517578125</AltitudeMeters>
            <DistanceMeters>NAN</DistanceMeters>
          </Trackpoint>
          <Trackpoint>
            <Time>2019-10-04T12:40:57.000Z</Time>
            <Position>
              <LatitudeDegrees>43.13143464736640453338623046875</LatitudeDegrees>
              <LongitudeDegrees>-5.819650590419769287109375</LongitudeDegrees>
            </Position>
            <AltitudeMeters>192.1999969482421875</AltitudeMeters>
            <DistanceMeters>NAN</DistanceMeters>
          </Trackpoint>
          <Trackpoint>
            <Time>2019-10-04T12:41:01.000Z</Time>
            <Position>
              <LatitudeDegrees>43.13129894435405731201171875</LatitudeDegrees>
              <LongitudeDegrees>-5.81957624293863773345947265625</LongitudeDegrees>
            </Position>
            <AltitudeMeters>192.399993896484375</AltitudeMeters>
            <DistanceMeters>NAN</DistanceMeters>
          </Trackpoint>
          <Trackpoint>
            <Time>2019-10-04T12:41:09.000Z</Time>
            <Position>
              <LatitudeDegrees>43.13106919638812541961669921875</LatitudeDegrees>
              <LongitudeDegrees>-5.81938178278505802154541015625</LongitudeDegrees>
            </Position>
            <AltitudeMeters>192</AltitudeMeters>
            <DistanceMeters>NAN</DistanceMeters>
          </Trackpoint>
          <Trackpoint>
            <Time>2019-10-04T12:41:16.000Z</Time>
            <Position>
              <LatitudeDegrees>43.1308803521096706390380859375</LatitudeDegrees>
              <LongitudeDegrees>-5.81914708949625492095947265625</LongitudeDegrees>
            </Position>
            <AltitudeMeters>191.8000030517578125</AltitudeMeters>
            <DistanceMeters>NAN</DistanceMeters>
          </Trackpoint>
          <Trackpoint>
            <Time>2019-10-04T12:41:25.000Z</Time>
            <Position>
              <LatitudeDegrees>43.1306044198572635650634765625</LatitudeDegrees>
              <LongitudeDegrees>-5.8188145793974399566650390625</LongitudeDegrees>
            </Position>
            <AltitudeMeters>192.1999969482421875</AltitudeMeters>
            <DistanceMeters>NAN</DistanceMeters>
          </Trackpoint>
          <Trackpoint>
            <Time>2019-10-04T12:41:36.000Z</Time>
            <Position>
              <LatitudeDegrees>43.13026704825460910797119140625</LatitudeDegrees>
              <LongitudeDegrees>-5.81842423416674137115478515625</LongitudeDegrees>
            </Position>
            <AltitudeMeters>192.399993896484375</AltitudeMeters>
            <DistanceMeters>NAN</DistanceMeters>
          </Trackpoint>
          <Trackpoint>
            <Time>2019-10-04T12:41:43.000Z</Time>
            <Position>
              <LatitudeDegrees>43.13002766110002994537353515625</LatitudeDegrees>
              <LongitudeDegrees>-5.8181235752999782562255859375</LongitudeDegrees>
            </Position>
            <AltitudeMeters>192.399993896484375</AltitudeMeters>
            <DistanceMeters>NAN</DistanceMeters>
          </Trackpoint>
          <Trackpoint>
            <Time>2019-10-04T12:41:47.000Z</Time>
            <Position>
              <LatitudeDegrees>43.129843510687351226806640625</LatitudeDegrees>
              <LongitudeDegrees>-5.81789634190499782562255859375</LongitudeDegrees>
            </Position>
            <AltitudeMeters>192.600006103515625</AltitudeMeters>
            <DistanceMeters>NAN</DistanceMeters>
          </Trackpoint>
          <Trackpoint>
            <Time>2019-10-04T12:41:49.000Z</Time>
            <Position>
              <LatitudeDegrees>43.129733540117740631103515625</LatitudeDegrees>
              <LongitudeDegrees>-5.8177668415009975433349609375</LongitudeDegrees>
            </Position>
            <AltitudeMeters>192.8000030517578125</AltitudeMeters>
            <DistanceMeters>NAN</DistanceMeters>
          </Trackpoint>
          <Trackpoint>
            <Time>2019-10-04T12:41:54.000Z</Time>
            <Position>
              <LatitudeDegrees>43.129400275647640228271484375</LatitudeDegrees>
              <LongitudeDegrees>-5.8174178190529346466064453125</LongitudeDegrees>
            </Position>
            <AltitudeMeters>192.399993896484375</AltitudeMeters>
            <DistanceMeters>NAN</DistanceMeters>
          </Trackpoint>
          <Trackpoint>
            <Time>2019-10-04T12:41:58.000Z</Time>
            <Position>
              <LatitudeDegrees>43.12910213135182857513427734375</LatitudeDegrees>
              <LongitudeDegrees>-5.81717449240386486053466796875</LongitudeDegrees>
            </Position>
            <AltitudeMeters>192.8000030517578125</AltitudeMeters>
            <DistanceMeters>NAN</DistanceMeters>
          </Trackpoint>
          <Trackpoint>
            <Time>2019-10-04T12:42:00.000Z</Time>
            <Position>
              <LatitudeDegrees>43.12894907779991626739501953125</LatitudeDegrees>
              <LongitudeDegrees>-5.817081034183502197265625</LongitudeDegrees>
            </Position>
            <AltitudeMeters>193.1999969482421875</AltitudeMeters>
            <DistanceMeters>NAN</DistanceMeters>
          </Trackpoint>
          <Trackpoint>
            <Time>2019-10-04T12:42:05.000Z</Time>
            <Position>
              <LatitudeDegrees>43.12860072590410709381103515625</LatitudeDegrees>
              <LongitudeDegrees>-5.8169534616172313690185546875</LongitudeDegrees>
            </Position>
            <AltitudeMeters>193.1999969482421875</AltitudeMeters>
            <DistanceMeters>NAN</DistanceMeters>
          </Trackpoint>
          <Trackpoint>
            <Time>2019-10-04T12:42:06.000Z</Time>
            <Position>
              <LatitudeDegrees>43.12854121439158916473388671875</LatitudeDegrees>
              <LongitudeDegrees>-5.81693594343960285186767578125</LongitudeDegrees>
            </Position>
            <AltitudeMeters>193.600006103515625</AltitudeMeters>
            <DistanceMeters>NAN</DistanceMeters>
          </Trackpoint>
          <Trackpoint>
            <Time>2019-10-04T12:42:09.000Z</Time>
            <Position>
              <LatitudeDegrees>43.128372989594936370849609375</LatitudeDegrees>
              <LongitudeDegrees>-5.8168807066977024078369140625</LongitudeDegrees>
            </Position>
            <AltitudeMeters>193.399993896484375</AltitudeMeters>
            <DistanceMeters>NAN</DistanceMeters>
          </Trackpoint>
          <Trackpoint>
            <Time>2019-10-04T12:42:11.000Z</Time>
            <Position>
              <LatitudeDegrees>43.1282648630440235137939453125</LatitudeDegrees>
              <LongitudeDegrees>-5.816850028932094573974609375</LongitudeDegrees>
            </Position>
            <AltitudeMeters>193.600006103515625</AltitudeMeters>
            <DistanceMeters>NAN</DistanceMeters>
          </Trackpoint>
          <Trackpoint>
            <Time>2019-10-04T12:42:13.000Z</Time>
            <Position>
              <LatitudeDegrees>43.1281501986086368560791015625</LatitudeDegrees>
              <LongitudeDegrees>-5.81683435477316379547119140625</LongitudeDegrees>
            </Position>
            <AltitudeMeters>193.600006103515625</AltitudeMeters>
            <DistanceMeters>NAN</DistanceMeters>
          </Trackpoint>
          <Trackpoint>
            <Time>2019-10-04T12:42:17.000Z</Time>
            <Position>
              <LatitudeDegrees>43.1279155053198337554931640625</LatitudeDegrees>
              <LongitudeDegrees>-5.8168381266295909881591796875</LongitudeDegrees>
            </Position>
            <AltitudeMeters>193.600006103515625</AltitudeMeters>
            <DistanceMeters>NAN</DistanceMeters>
          </Trackpoint>
          <Trackpoint>
            <Time>2019-10-04T12:42:20.000Z</Time>
            <Position>
              <LatitudeDegrees>43.12774225138127803802490234375</LatitudeDegrees>
              <LongitudeDegrees>-5.81686033867299556732177734375</LongitudeDegrees>
            </Position>
            <AltitudeMeters>193.399993896484375</AltitudeMeters>
            <DistanceMeters>NAN</DistanceMeters>
          </Trackpoint>
          <Trackpoint>
            <Time>2019-10-04T12:42:23.000Z</Time>
            <Position>
              <LatitudeDegrees>43.127563633024692535400390625</LatitudeDegrees>
              <LongitudeDegrees>-5.81688112579286098480224609375</LongitudeDegrees>
            </Position>
            <AltitudeMeters>193.399993896484375</AltitudeMeters>
            <DistanceMeters>NAN</DistanceMeters>
          </Trackpoint>
          <Trackpoint>
            <Time>2019-10-04T12:42:26.000Z</Time>
            <Position>
              <LatitudeDegrees>43.12738836742937564849853515625</LatitudeDegrees>
              <LongitudeDegrees>-5.81689906306564807891845703125</LongitudeDegrees>
            </Position>
            <AltitudeMeters>193.399993896484375</AltitudeMeters>
            <DistanceMeters>NAN</DistanceMeters>
          </Trackpoint>
          <Trackpoint>
            <Time>2019-10-04T12:42:36.000Z</Time>
            <Position>
              <LatitudeDegrees>43.12682208605110645294189453125</LatitudeDegrees>
              <LongitudeDegrees>-5.8169085346162319183349609375</LongitudeDegrees>
            </Position>
            <AltitudeMeters>193.399993896484375</AltitudeMeters>
            <DistanceMeters>NAN</DistanceMeters>
          </Trackpoint>
          <Trackpoint>
            <Time>2019-10-04T12:42:43.000Z</Time>
            <Position>
              <LatitudeDegrees>43.126461915671825408935546875</LatitudeDegrees>
              <LongitudeDegrees>-5.81683955155313014984130859375</LongitudeDegrees>
            </Position>
            <AltitudeMeters>193.399993896484375</AltitudeMeters>
            <DistanceMeters>NAN</DistanceMeters>
          </Trackpoint>
          <Trackpoint>
            <Time>2019-10-04T12:42:51.000Z</Time>
            <Position>
              <LatitudeDegrees>43.12605681829154491424560546875</LatitudeDegrees>
              <LongitudeDegrees>-5.8167502842843532562255859375</LongitudeDegrees>
            </Position>
            <AltitudeMeters>193.1999969482421875</AltitudeMeters>
            <DistanceMeters>NAN</DistanceMeters>
          </Trackpoint>
          <Trackpoint>
            <Time>2019-10-04T12:42:53.000Z</Time>
            <Position>
              <LatitudeDegrees>43.12595472671091556549072265625</LatitudeDegrees>
              <LongitudeDegrees>-5.816726982593536376953125</LongitudeDegrees>
            </Position>
            <AltitudeMeters>193.1999969482421875</AltitudeMeters>
            <DistanceMeters>NAN</DistanceMeters>
          </Trackpoint>
          <Trackpoint>
            <Time>2019-10-04T12:42:55.000Z</Time>
            <Position>
              <LatitudeDegrees>43.12585481442511081695556640625</LatitudeDegrees>
              <LongitudeDegrees>-5.81669957377016544342041015625</LongitudeDegrees>
            </Position>
            <AltitudeMeters>193</AltitudeMeters>
            <DistanceMeters>NAN</DistanceMeters>
          </Trackpoint>
          <Trackpoint>
            <Time>2019-10-04T12:42:59.000Z</Time>
            <Position>
              <LatitudeDegrees>43.12565867789089679718017578125</LatitudeDegrees>
              <LongitudeDegrees>-5.81665531732141971588134765625</LongitudeDegrees>
            </Position>
            <AltitudeMeters>192.600006103515625</AltitudeMeters>
            <DistanceMeters>NAN</DistanceMeters>
          </Trackpoint>
          <Trackpoint>
            <Time>2019-10-04T12:43:06.000Z</Time>
            <Position>
              <LatitudeDegrees>43.1253177858889102935791015625</LatitudeDegrees>
              <LongitudeDegrees>-5.81659664399921894073486328125</LongitudeDegrees>
            </Position>
            <AltitudeMeters>193</AltitudeMeters>
            <DistanceMeters>NAN</DistanceMeters>
          </Trackpoint>
          <Trackpoint>
            <Time>2019-10-04T12:43:11.000Z</Time>
            <Position>
              <LatitudeDegrees>43.125074543058872222900390625</LatitudeDegrees>
              <LongitudeDegrees>-5.81655356101691722869873046875</LongitudeDegrees>
            </Position>
            <AltitudeMeters>192.8000030517578125</AltitudeMeters>
            <DistanceMeters>NAN</DistanceMeters>
          </Trackpoint>
          <Trackpoint>
            <Time>2019-10-04T12:43:14.000Z</Time>
            <Position>
              <LatitudeDegrees>43.124934732913970947265625</LatitudeDegrees>
              <LongitudeDegrees>-5.81653143279254436492919921875</LongitudeDegrees>
            </Position>
            <AltitudeMeters>192.600006103515625</AltitudeMeters>
            <DistanceMeters>NAN</DistanceMeters>
          </Trackpoint>
          <Trackpoint>
            <Time>2019-10-04T12:43:17.000Z</Time>
            <Position>
              <LatitudeDegrees>43.124795258045196533203125</LatitudeDegrees>
              <LongitudeDegrees>-5.8165112324059009552001953125</LongitudeDegrees>
            </Position>
            <AltitudeMeters>192.600006103515625</AltitudeMeters>
            <DistanceMeters>NAN</DistanceMeters>
          </Trackpoint>
          <Trackpoint>
            <Time>2019-10-04T12:43:24.000Z</Time>
            <Position>
              <LatitudeDegrees>43.1244735606014728546142578125</LatitudeDegrees>
              <LongitudeDegrees>-5.8164820633828639984130859375</LongitudeDegrees>
            </Position>
            <AltitudeMeters>192.1999969482421875</AltitudeMeters>
            <DistanceMeters>NAN</DistanceMeters>
          </Trackpoint>
          <Trackpoint>
            <Time>2019-10-04T12:43:31.000Z</Time>
            <Position>
              <LatitudeDegrees>43.12423509545624256134033203125</LatitudeDegrees>
              <LongitudeDegrees>-5.81649572588503360748291015625</LongitudeDegrees>
            </Position>
            <AltitudeMeters>192.1999969482421875</AltitudeMeters>
            <DistanceMeters>NAN</DistanceMeters>
          </Trackpoint>
          <Trackpoint>
            <Time>2019-10-04T12:43:36.000Z</Time>
            <Position>
              <LatitudeDegrees>43.12409587204456329345703125</LatitudeDegrees>
              <LongitudeDegrees>-5.81653545610606670379638671875</LongitudeDegrees>
            </Position>
            <AltitudeMeters>192.600006103515625</AltitudeMeters>
            <DistanceMeters>NAN</DistanceMeters>
          </Trackpoint>
          <Trackpoint>
            <Time>2019-10-04T12:43:37.000Z</Time>
            <Position>
              <LatitudeDegrees>43.12406762503087520599365234375</LatitudeDegrees>
              <LongitudeDegrees>-5.816550292074680328369140625</LongitudeDegrees>
            </Position>
            <AltitudeMeters>192.399993896484375</AltitudeMeters>
            <DistanceMeters>NAN</DistanceMeters>
          </Trackpoint>
          <Trackpoint>
            <Time>2019-10-04T12:43:40.000Z</Time>
            <Position>
              <LatitudeDegrees>43.12399470247328281402587890625</LatitudeDegrees>
              <LongitudeDegrees>-5.81660938449203968048095703125</LongitudeDegrees>
            </Position>
            <AltitudeMeters>192.600006103515625</AltitudeMeters>
            <DistanceMeters>NAN</DistanceMeters>
          </Trackpoint>
          <Trackpoint>
            <Time>2019-10-04T12:43:43.000Z</Time>
            <Position>
              <LatitudeDegrees>43.1239190138876438140869140625</LatitudeDegrees>
              <LongitudeDegrees>-5.81666638143360614776611328125</LongitudeDegrees>
            </Position>
            <AltitudeMeters>192.399993896484375</AltitudeMeters>
            <DistanceMeters>NAN</DistanceMeters>
          </Trackpoint>
          <Trackpoint>
            <Time>2019-10-04T12:43:44.000Z</Time>
            <Position>
              <LatitudeDegrees>43.12389713712036609649658203125</LatitudeDegrees>
              <LongitudeDegrees>-5.81668448634445667266845703125</LongitudeDegrees>
            </Position>
            <AltitudeMeters>192.600006103515625</AltitudeMeters>
            <DistanceMeters>NAN</DistanceMeters>
          </Trackpoint>
          <Trackpoint>
            <Time>2019-10-04T12:43:49.000Z</Time>
            <Position>
              <LatitudeDegrees>43.12378431670367717742919921875</LatitudeDegrees>
              <LongitudeDegrees>-5.81680099479854106903076171875</LongitudeDegrees>
            </Position>
            <AltitudeMeters>192.399993896484375</AltitudeMeters>
            <DistanceMeters>NAN</DistanceMeters>
          </Trackpoint>
          <Trackpoint>
            <Time>2019-10-04T12:43:51.000Z</Time>
            <Position>
              <LatitudeDegrees>43.12374006025493144989013671875</LatitudeDegrees>
              <LongitudeDegrees>-5.81684910692274570465087890625</LongitudeDegrees>
            </Position>
            <AltitudeMeters>192.399993896484375</AltitudeMeters>
            <DistanceMeters>NAN</DistanceMeters>
          </Trackpoint>
          <Trackpoint>
            <Time>2019-10-04T12:43:58.000Z</Time>
            <Position>
              <LatitudeDegrees>43.123563788831233978271484375</LatitudeDegrees>
              <LongitudeDegrees>-5.81701255403459072113037109375</LongitudeDegrees>
            </Position>
            <AltitudeMeters>192.1999969482421875</AltitudeMeters>
            <DistanceMeters>NAN</DistanceMeters>
          </Trackpoint>
          <Trackpoint>
            <Time>2019-10-04T12:43:59.000Z</Time>
            <Position>
              <LatitudeDegrees>43.123535625636577606201171875</LatitudeDegrees>
              <LongitudeDegrees>-5.81703250296413898468017578125</LongitudeDegrees>
            </Position>
            <AltitudeMeters>192.399993896484375</AltitudeMeters>
            <DistanceMeters>NAN</DistanceMeters>
          </Trackpoint>
          <Trackpoint>
            <Time>2019-10-04T12:44:08.000Z</Time>
            <Position>
              <LatitudeDegrees>43.12326908111572265625</LatitudeDegrees>
              <LongitudeDegrees>-5.8172122947871685028076171875</LongitudeDegrees>
            </Position>
            <AltitudeMeters>192.1999969482421875</AltitudeMeters>
            <DistanceMeters>NAN</DistanceMeters>
          </Trackpoint>
          <Trackpoint>
            <Time>2019-10-04T12:44:18.000Z</Time>
            <Position>
              <LatitudeDegrees>43.1229809112846851348876953125</LatitudeDegrees>
              <LongitudeDegrees>-5.817456543445587158203125</LongitudeDegrees>
            </Position>
            <AltitudeMeters>192.1999969482421875</AltitudeMeters>
            <DistanceMeters>NAN</DistanceMeters>
          </Trackpoint>
          <Trackpoint>
            <Time>2019-10-04T12:44:26.000Z</Time>
            <Position>
              <LatitudeDegrees>43.12277597375214099884033203125</LatitudeDegrees>
              <LongitudeDegrees>-5.81756316125392913818359375</LongitudeDegrees>
            </Position>
            <AltitudeMeters>192</AltitudeMeters>
            <DistanceMeters>NAN</DistanceMeters>
          </Trackpoint>
          <Trackpoint>
            <Time>2019-10-04T12:44:33.000Z</Time>
            <Position>
              <LatitudeDegrees>43.12254513613879680633544921875</LatitudeDegrees>
              <LongitudeDegrees>-5.8175764046609401702880859375</LongitudeDegrees>
            </Position>
            <AltitudeMeters>191.8000030517578125</AltitudeMeters>
            <DistanceMeters>NAN</DistanceMeters>
          </Trackpoint>
          <Trackpoint>
            <Time>2019-10-04T12:44:42.000Z</Time>
            <Position>
              <LatitudeDegrees>43.12223886139690876007080078125</LatitudeDegrees>
              <LongitudeDegrees>-5.81758403219282627105712890625</LongitudeDegrees>
            </Position>
            <AltitudeMeters>192.1999969482421875</AltitudeMeters>
            <DistanceMeters>NAN</DistanceMeters>
          </Trackpoint>
          <Trackpoint>
            <Time>2019-10-04T12:44:51.000Z</Time>
            <Position>
              <LatitudeDegrees>43.12192462384700775146484375</LatitudeDegrees>
              <LongitudeDegrees>-5.81757984124124050140380859375</LongitudeDegrees>
            </Position>
            <AltitudeMeters>192.1999969482421875</AltitudeMeters>
            <DistanceMeters>NAN</DistanceMeters>
          </Trackpoint>
          <Trackpoint>
            <Time>2019-10-04T12:44:59.000Z</Time>
            <Position>
              <LatitudeDegrees>43.121651373803615570068359375</LatitudeDegrees>
              <LongitudeDegrees>-5.817550085484981536865234375</LongitudeDegrees>
            </Position>
            <AltitudeMeters>192.1999969482421875</AltitudeMeters>
            <DistanceMeters>NAN</DistanceMeters>
          </Trackpoint>
          <Trackpoint>
            <Time>2019-10-04T12:45:00.000Z</Time>
            <Position>
              <LatitudeDegrees>43.1216183491051197052001953125</LatitudeDegrees>
              <LongitudeDegrees>-5.81754572689533233642578125</LongitudeDegrees>
            </Position>
            <AltitudeMeters>192</AltitudeMeters>
            <DistanceMeters>NAN</DistanceMeters>
          </Trackpoint>
          <Trackpoint>
            <Time>2019-10-04T12:45:06.000Z</Time>
            <Position>
              <LatitudeDegrees>43.1214305944740772247314453125</LatitudeDegrees>
              <LongitudeDegrees>-5.81750951707363128662109375</LongitudeDegrees>
            </Position>
            <AltitudeMeters>192</AltitudeMeters>
            <DistanceMeters>NAN</DistanceMeters>
          </Trackpoint>
          <Trackpoint>
            <Time>2019-10-04T12:45:15.000Z</Time>
            <Position>
              <LatitudeDegrees>43.12111794948577880859375</LatitudeDegrees>
              <LongitudeDegrees>-5.8174087665975093841552734375</LongitudeDegrees>
            </Position>
            <AltitudeMeters>192.399993896484375</AltitudeMeters>
            <DistanceMeters>NAN</DistanceMeters>
          </Trackpoint>
          <Trackpoint>
            <Time>2019-10-04T12:45:22.000Z</Time>
            <Position>
              <LatitudeDegrees>43.120849393308162689208984375</LatitudeDegrees>
              <LongitudeDegrees>-5.81733257509768009185791015625</LongitudeDegrees>
            </Position>
            <AltitudeMeters>192.399993896484375</AltitudeMeters>
            <DistanceMeters>NAN</DistanceMeters>
          </Trackpoint>
          <Trackpoint>
            <Time>2019-10-04T12:45:23.000Z</Time>
            <Position>
              <LatitudeDegrees>43.12080639414489269256591796875</LatitudeDegrees>
              <LongitudeDegrees>-5.817320086061954498291015625</LongitudeDegrees>
            </Position>
            <AltitudeMeters>192.399993896484375</AltitudeMeters>
            <DistanceMeters>NAN</DistanceMeters>
          </Trackpoint>
          <Trackpoint>
            <Time>2019-10-04T12:45:28.000Z</Time>
            <Position>
              <LatitudeDegrees>43.12059483490884304046630859375</LatitudeDegrees>
              <LongitudeDegrees>-5.8172567188739776611328125</LongitudeDegrees>
            </Position>
            <AltitudeMeters>192.8000030517578125</AltitudeMeters>
            <DistanceMeters>NAN</DistanceMeters>
          </Trackpoint>
          <Trackpoint>
            <Time>2019-10-04T12:45:32.000Z</Time>
            <Position>
              <LatitudeDegrees>43.12043239362537860870361328125</LatitudeDegrees>
              <LongitudeDegrees>-5.81720734946429729461669921875</LongitudeDegrees>
            </Position>
            <AltitudeMeters>192.399993896484375</AltitudeMeters>
            <DistanceMeters>NAN</DistanceMeters>
          </Trackpoint>
          <Trackpoint>
            <Time>2019-10-04T12:45:41.000Z</Time>
            <Position>
              <LatitudeDegrees>43.12009192071855068206787109375</LatitudeDegrees>
              <LongitudeDegrees>-5.81708170473575592041015625</LongitudeDegrees>
            </Position>
            <AltitudeMeters>192.399993896484375</AltitudeMeters>
            <DistanceMeters>NAN</DistanceMeters>
          </Trackpoint>
          <Trackpoint>
            <Time>2019-10-04T12:45:46.000Z</Time>
            <Position>
              <LatitudeDegrees>43.1199024058878421783447265625</LatitudeDegrees>
              <LongitudeDegrees>-5.81701121293008327484130859375</LongitudeDegrees>
            </Position>
            <AltitudeMeters>191.399993896484375</AltitudeMeters>
            <DistanceMeters>NAN</DistanceMeters>
          </Trackpoint>
          <Trackpoint>
            <Time>2019-10-04T12:45:48.000Z</Time>
            <Position>
              <LatitudeDegrees>43.11981917358934879302978515625</LatitudeDegrees>
              <LongitudeDegrees>-5.81698405556380748748779296875</LongitudeDegrees>
            </Position>
            <AltitudeMeters>191</AltitudeMeters>
            <DistanceMeters>NAN</DistanceMeters>
          </Trackpoint>
          <Trackpoint>
            <Time>2019-10-04T12:45:52.000Z</Time>
            <Position>
              <LatitudeDegrees>43.1196398846805095672607421875</LatitudeDegrees>
              <LongitudeDegrees>-5.81694482825696468353271484375</LongitudeDegrees>
            </Position>
            <AltitudeMeters>189.8000030517578125</AltitudeMeters>
            <DistanceMeters>NAN</DistanceMeters>
          </Trackpoint>
          <Trackpoint>
            <Time>2019-10-04T12:45:55.000Z</Time>
            <Position>
              <LatitudeDegrees>43.11949362047016620635986328125</LatitudeDegrees>
              <LongitudeDegrees>-5.81691666506230831146240234375</LongitudeDegrees>
            </Position>
            <AltitudeMeters>189.1999969482421875</AltitudeMeters>
            <DistanceMeters>NAN</DistanceMeters>
          </Trackpoint>
          <Trackpoint>
            <Time>2019-10-04T12:46:00.000Z</Time>
            <Position>
              <LatitudeDegrees>43.11923294328153133392333984375</LatitudeDegrees>
              <LongitudeDegrees>-5.81684910692274570465087890625</LongitudeDegrees>
            </Position>
            <AltitudeMeters>189.600006103515625</AltitudeMeters>
            <DistanceMeters>NAN</DistanceMeters>
          </Trackpoint>
          <Trackpoint>
            <Time>2019-10-04T12:46:02.000Z</Time>
            <Position>
              <LatitudeDegrees>43.11912397854030132293701171875</LatitudeDegrees>
              <LongitudeDegrees>-5.8168364502489566802978515625</LongitudeDegrees>
            </Position>
            <AltitudeMeters>189.8000030517578125</AltitudeMeters>
            <DistanceMeters>NAN</DistanceMeters>
          </Trackpoint>
          <Trackpoint>
            <Time>2019-10-04T12:46:07.000Z</Time>
            <Position>
              <LatitudeDegrees>43.11884452588856220245361328125</LatitudeDegrees>
              <LongitudeDegrees>-5.8168374560773372650146484375</LongitudeDegrees>
            </Position>
            <AltitudeMeters>190.1999969482421875</AltitudeMeters>
            <DistanceMeters>NAN</DistanceMeters>
          </Trackpoint>
          <Trackpoint>
            <Time>2019-10-04T12:46:09.000Z</Time>
            <Position>
              <LatitudeDegrees>43.11872835271060466766357421875</LatitudeDegrees>
              <LongitudeDegrees>-5.8168629370629787445068359375</LongitudeDegrees>
            </Position>
            <AltitudeMeters>190.1999969482421875</AltitudeMeters>
            <DistanceMeters>NAN</DistanceMeters>
          </Trackpoint>
          <Trackpoint>
            <Time>2019-10-04T12:46:14.000Z</Time>
            <Position>
              <LatitudeDegrees>43.11842811293900012969970703125</LatitudeDegrees>
              <LongitudeDegrees>-5.81696092151105403900146484375</LongitudeDegrees>
            </Position>
            <AltitudeMeters>190.1999969482421875</AltitudeMeters>
            <DistanceMeters>NAN</DistanceMeters>
          </Trackpoint>
          <Trackpoint>
            <Time>2019-10-04T12:46:16.000Z</Time>
            <Position>
              <LatitudeDegrees>43.11830255202949047088623046875</LatitudeDegrees>
              <LongitudeDegrees>-5.81702043302357196807861328125</LongitudeDegrees>
            </Position>
            <AltitudeMeters>190.399993896484375</AltitudeMeters>
            <DistanceMeters>NAN</DistanceMeters>
          </Trackpoint>
          <Trackpoint>
            <Time>2019-10-04T12:46:17.000Z</Time>
            <Position>
              <LatitudeDegrees>43.11823549680411815643310546875</LatitudeDegrees>
              <LongitudeDegrees>-5.81705278716981410980224609375</LongitudeDegrees>
            </Position>
            <AltitudeMeters>191</AltitudeMeters>
            <DistanceMeters>NAN</DistanceMeters>
          </Trackpoint>
          <Trackpoint>
            <Time>2019-10-04T12:46:21.000Z</Time>
            <Position>
              <LatitudeDegrees>43.1179596483707427978515625</LatitudeDegrees>
              <LongitudeDegrees>-5.8172230236232280731201171875</LongitudeDegrees>
            </Position>
            <AltitudeMeters>190.8000030517578125</AltitudeMeters>
            <DistanceMeters>NAN</DistanceMeters>
          </Trackpoint>
          <Trackpoint>
            <Time>2019-10-04T12:46:22.000Z</Time>
            <Position>
              <LatitudeDegrees>43.11788798309862613677978515625</LatitudeDegrees>
              <LongitudeDegrees>-5.81727742217481136322021484375</LongitudeDegrees>
            </Position>
            <AltitudeMeters>190.8000030517578125</AltitudeMeters>
            <DistanceMeters>NAN</DistanceMeters>
          </Trackpoint>
          <Trackpoint>
            <Time>2019-10-04T12:46:26.000Z</Time>
            <Position>
              <LatitudeDegrees>43.11764842830598354339599609375</LatitudeDegrees>
              <LongitudeDegrees>-5.81751178018748760223388671875</LongitudeDegrees>
            </Position>
            <AltitudeMeters>190.8000030517578125</AltitudeMeters>
            <DistanceMeters>NAN</DistanceMeters>
          </Trackpoint>
          <Trackpoint>
            <Time>2019-10-04T12:46:27.000Z</Time>
            <Position>
              <LatitudeDegrees>43.11759813688695430755615234375</LatitudeDegrees>
              <LongitudeDegrees>-5.81756793893873691558837890625</LongitudeDegrees>
            </Position>
            <AltitudeMeters>190.8000030517578125</AltitudeMeters>
            <DistanceMeters>NAN</DistanceMeters>
          </Trackpoint>
          <Trackpoint>
            <Time>2019-10-04T12:46:30.000Z</Time>
            <Position>
              <LatitudeDegrees>43.1174755096435546875</LatitudeDegrees>
              <LongitudeDegrees>-5.81771696917712688446044921875</LongitudeDegrees>
            </Position>
            <AltitudeMeters>191</AltitudeMeters>
            <DistanceMeters>NAN</DistanceMeters>
          </Trackpoint>
          <Trackpoint>
            <Time>2019-10-04T12:46:33.000Z</Time>
            <Position>
              <LatitudeDegrees>43.1174029223620891571044921875</LatitudeDegrees>
              <LongitudeDegrees>-5.8177980221807956695556640625</LongitudeDegrees>
            </Position>
            <AltitudeMeters>191.1999969482421875</AltitudeMeters>
            <DistanceMeters>NAN</DistanceMeters>
          </Trackpoint>
          <Trackpoint>
            <Time>2019-10-04T12:46:35.000Z</Time>
            <Position>
              <LatitudeDegrees>43.1173320114612579345703125</LatitudeDegrees>
              <LongitudeDegrees>-5.8178647421300411224365234375</LongitudeDegrees>
            </Position>
            <AltitudeMeters>191.399993896484375</AltitudeMeters>
            <DistanceMeters>NAN</DistanceMeters>
          </Trackpoint>
          <Trackpoint>
            <Time>2019-10-04T12:46:38.000Z</Time>
            <Position>
              <LatitudeDegrees>43.11722044833004474639892578125</LatitudeDegrees>
              <LongitudeDegrees>-5.81798032857477664947509765625</LongitudeDegrees>
            </Position>
            <AltitudeMeters>191.399993896484375</AltitudeMeters>
            <DistanceMeters>NAN</DistanceMeters>
          </Trackpoint>
          <Trackpoint>
            <Time>2019-10-04T12:46:46.000Z</Time>
            <Position>
              <LatitudeDegrees>43.11687997542321681976318359375</LatitudeDegrees>
              <LongitudeDegrees>-5.81827235408127307891845703125</LongitudeDegrees>
            </Position>
            <AltitudeMeters>191.600006103515625</AltitudeMeters>
            <DistanceMeters>NAN</DistanceMeters>
          </Trackpoint>
          <Trackpoint>
            <Time>2019-10-04T12:46:48.000Z</Time>
            <Position>
              <LatitudeDegrees>43.116799928247928619384765625</LatitudeDegrees>
              <LongitudeDegrees>-5.8183317817747592926025390625</LongitudeDegrees>
            </Position>
            <AltitudeMeters>192</AltitudeMeters>
            <DistanceMeters>NAN</DistanceMeters>
          </Trackpoint>
          <Trackpoint>
            <Time>2019-10-04T12:46:51.000Z</Time>
            <Position>
              <LatitudeDegrees>43.11669473536312580108642578125</LatitudeDegrees>
              <LongitudeDegrees>-5.818394310772418975830078125</LongitudeDegrees>
            </Position>
            <AltitudeMeters>191.8000030517578125</AltitudeMeters>
            <DistanceMeters>NAN</DistanceMeters>
          </Trackpoint>
          <Trackpoint>
            <Time>2019-10-04T12:46:55.000Z</Time>
            <Position>
              <LatitudeDegrees>43.11657898128032684326171875</LatitudeDegrees>
              <LongitudeDegrees>-5.81845927052199840545654296875</LongitudeDegrees>
            </Position>
            <AltitudeMeters>192</AltitudeMeters>
            <DistanceMeters>NAN</DistanceMeters>
          </Trackpoint>
          <Trackpoint>
            <Time>2019-10-04T12:47:00.000Z</Time>
            <Position>
              <LatitudeDegrees>43.11639416031539440155029296875</LatitudeDegrees>
              <LongitudeDegrees>-5.8185629546642303466796875</LongitudeDegrees>
            </Position>
            <AltitudeMeters>192.1999969482421875</AltitudeMeters>
            <DistanceMeters>NAN</DistanceMeters>
          </Trackpoint>
          <Trackpoint>
            <Time>2019-10-04T12:47:02.000Z</Time>
            <Position>
              <LatitudeDegrees>43.11632215976715087890625</LatitudeDegrees>
              <LongitudeDegrees>-5.8185993321239948272705078125</LongitudeDegrees>
            </Position>
            <AltitudeMeters>192.399993896484375</AltitudeMeters>
            <DistanceMeters>NAN</DistanceMeters>
          </Trackpoint>
          <Trackpoint>
            <Time>2019-10-04T12:47:06.000Z</Time>
            <Position>
              <LatitudeDegrees>43.1161838583648204803466796875</LatitudeDegrees>
              <LongitudeDegrees>-5.8186541497707366943359375</LongitudeDegrees>
            </Position>
            <AltitudeMeters>192.399993896484375</AltitudeMeters>
            <DistanceMeters>NAN</DistanceMeters>
          </Trackpoint>
          <Trackpoint>
            <Time>2019-10-04T12:47:08.000Z</Time>
            <Position>
              <LatitudeDegrees>43.11611831188201904296875</LatitudeDegrees>
              <LongitudeDegrees>-5.81867150031030178070068359375</LongitudeDegrees>
            </Position>
            <AltitudeMeters>192.399993896484375</AltitudeMeters>
            <DistanceMeters>NAN</DistanceMeters>
          </Trackpoint>
          <Trackpoint>
            <Time>2019-10-04T12:47:11.000Z</Time>
            <Position>
              <LatitudeDegrees>43.11599417589604854583740234375</LatitudeDegrees>
              <LongitudeDegrees>-5.8186791278421878814697265625</LongitudeDegrees>
            </Position>
            <AltitudeMeters>193</AltitudeMeters>
            <DistanceMeters>NAN</DistanceMeters>
          </Trackpoint>
          <Trackpoint>
            <Time>2019-10-04T12:47:13.000Z</Time>
            <Position>
              <LatitudeDegrees>43.11590063385665416717529296875</LatitudeDegrees>
              <LongitudeDegrees>-5.81868943758308887481689453125</LongitudeDegrees>
            </Position>
            <AltitudeMeters>192.8000030517578125</AltitudeMeters>
            <DistanceMeters>NAN</DistanceMeters>
          </Trackpoint>
          <Trackpoint>
            <Time>2019-10-04T12:47:16.000Z</Time>
            <Position>
              <LatitudeDegrees>43.11575286090373992919921875</LatitudeDegrees>
              <LongitudeDegrees>-5.8187049441039562225341796875</LongitudeDegrees>
            </Position>
            <AltitudeMeters>192.600006103515625</AltitudeMeters>
            <DistanceMeters>NAN</DistanceMeters>
          </Trackpoint>
          <Trackpoint>
            <Time>2019-10-04T12:47:21.000Z</Time>
            <Position>
              <LatitudeDegrees>43.11548422090709209442138671875</LatitudeDegrees>
              <LongitudeDegrees>-5.81869781948626041412353515625</LongitudeDegrees>
            </Position>
            <AltitudeMeters>193</AltitudeMeters>
            <DistanceMeters>NAN</DistanceMeters>
          </Trackpoint>
          <Trackpoint>
            <Time>2019-10-04T12:47:31.000Z</Time>
            <Position>
              <LatitudeDegrees>43.11495079658925533294677734375</LatitudeDegrees>
              <LongitudeDegrees>-5.81866714172065258026123046875</LongitudeDegrees>
            </Position>
            <AltitudeMeters>193.399993896484375</AltitudeMeters>
            <DistanceMeters>NAN</DistanceMeters>
          </Trackpoint>
          <Trackpoint>
            <Time>2019-10-04T12:47:38.000Z</Time>
            <Position>
              <LatitudeDegrees>43.114573694765567779541015625</LatitudeDegrees>
              <LongitudeDegrees>-5.81873285584151744842529296875</LongitudeDegrees>
            </Position>
            <AltitudeMeters>193.600006103515625</AltitudeMeters>
            <DistanceMeters>NAN</DistanceMeters>
          </Trackpoint>
          <Trackpoint>
            <Time>2019-10-04T12:47:41.000Z</Time>
            <Position>
              <LatitudeDegrees>43.114425837993621826171875</LatitudeDegrees>
              <LongitudeDegrees>-5.8188142441213130950927734375</LongitudeDegrees>
            </Position>
            <AltitudeMeters>194.1999969482421875</AltitudeMeters>
            <DistanceMeters>NAN</DistanceMeters>
          </Trackpoint>
          <Trackpoint>
            <Time>2019-10-04T12:47:46.000Z</Time>
            <Position>
              <LatitudeDegrees>43.11419826932251453399658203125</LatitudeDegrees>
              <LongitudeDegrees>-5.81894692964851856231689453125</LongitudeDegrees>
            </Position>
            <AltitudeMeters>194</AltitudeMeters>
            <DistanceMeters>NAN</DistanceMeters>
          </Trackpoint>
          <Trackpoint>
            <Time>2019-10-04T12:47:53.000Z</Time>
            <Position>
              <LatitudeDegrees>43.113896436989307403564453125</LatitudeDegrees>
              <LongitudeDegrees>-5.81913820467889308929443359375</LongitudeDegrees>
            </Position>
            <AltitudeMeters>194</AltitudeMeters>
            <DistanceMeters>NAN</DistanceMeters>
          </Trackpoint>
          <Trackpoint>
            <Time>2019-10-04T12:48:00.000Z</Time>
            <Position>
              <LatitudeDegrees>43.1136092729866504669189453125</LatitudeDegrees>
              <LongitudeDegrees>-5.81931891851127147674560546875</LongitudeDegrees>
            </Position>
            <AltitudeMeters>194</AltitudeMeters>
            <DistanceMeters>NAN</DistanceMeters>
          </Trackpoint>
          <Trackpoint>
            <Time>2019-10-04T12:48:05.000Z</Time>
            <Position>
              <LatitudeDegrees>43.11343266628682613372802734375</LatitudeDegrees>
              <LongitudeDegrees>-5.81940089352428913116455078125</LongitudeDegrees>
            </Position>
            <AltitudeMeters>194.399993896484375</AltitudeMeters>
            <DistanceMeters>NAN</DistanceMeters>
          </Trackpoint>
          <Trackpoint>
            <Time>2019-10-04T12:48:10.000Z</Time>
            <Position>
              <LatitudeDegrees>43.113227896392345428466796875</LatitudeDegrees>
              <LongitudeDegrees>-5.81945939920842647552490234375</LongitudeDegrees>
            </Position>
            <AltitudeMeters>194.8000030517578125</AltitudeMeters>
            <DistanceMeters>NAN</DistanceMeters>
          </Trackpoint>
          <Trackpoint>
            <Time>2019-10-04T12:48:11.000Z</Time>
            <Position>
              <LatitudeDegrees>43.11318590305745601654052734375</LatitudeDegrees>
              <LongitudeDegrees>-5.81946912221610546112060546875</LongitudeDegrees>
            </Position>
            <AltitudeMeters>194.1999969482421875</AltitudeMeters>
            <DistanceMeters>NAN</DistanceMeters>
          </Trackpoint>
          <Trackpoint>
            <Time>2019-10-04T12:48:15.000Z</Time>
            <Position>
              <LatitudeDegrees>43.11301256529986858367919921875</LatitudeDegrees>
              <LongitudeDegrees>-5.819500051438808441162109375</LongitudeDegrees>
            </Position>
            <AltitudeMeters>193.1999969482421875</AltitudeMeters>
            <DistanceMeters>NAN</DistanceMeters>
          </Trackpoint>
          <Trackpoint>
            <Time>2019-10-04T12:48:16.000Z</Time>
            <Position>
              <LatitudeDegrees>43.1129742600023746490478515625</LatitudeDegrees>
              <LongitudeDegrees>-5.81950642168521881103515625</LongitudeDegrees>
            </Position>
            <AltitudeMeters>192.8000030517578125</AltitudeMeters>
            <DistanceMeters>NAN</DistanceMeters>
          </Trackpoint>
          <Trackpoint>
            <Time>2019-10-04T12:48:19.000Z</Time>
            <Position>
              <LatitudeDegrees>43.1128562428057193756103515625</LatitudeDegrees>
              <LongitudeDegrees>-5.8195334114134311676025390625</LongitudeDegrees>
            </Position>
            <AltitudeMeters>193.8000030517578125</AltitudeMeters>
            <DistanceMeters>NAN</DistanceMeters>
          </Trackpoint>
          <Trackpoint>
            <Time>2019-10-04T12:48:22.000Z</Time>
            <Position>
              <LatitudeDegrees>43.112746775150299072265625</LatitudeDegrees>
              <LongitudeDegrees>-5.81954707391560077667236328125</LongitudeDegrees>
            </Position>
            <AltitudeMeters>192.600006103515625</AltitudeMeters>
            <DistanceMeters>NAN</DistanceMeters>
          </Trackpoint>
          <Trackpoint>
            <Time>2019-10-04T12:48:25.000Z</Time>
            <Position>
              <LatitudeDegrees>43.11263487674295902252197265625</LatitudeDegrees>
              <LongitudeDegrees>-5.81956266425549983978271484375</LongitudeDegrees>
            </Position>
            <AltitudeMeters>191.600006103515625</AltitudeMeters>
            <DistanceMeters>NAN</DistanceMeters>
          </Trackpoint>
          <Trackpoint>
            <Time>2019-10-04T12:48:27.000Z</Time>
            <Position>
              <LatitudeDegrees>43.112558014690876007080078125</LatitudeDegrees>
              <LongitudeDegrees>-5.8195830322802066802978515625</LongitudeDegrees>
            </Position>
            <AltitudeMeters>191.1999969482421875</AltitudeMeters>
            <DistanceMeters>NAN</DistanceMeters>
          </Trackpoint>
          <Trackpoint>
            <Time>2019-10-04T12:48:30.000Z</Time>
            <Position>
              <LatitudeDegrees>43.11243387870490550994873046875</LatitudeDegrees>
              <LongitudeDegrees>-5.819612704217433929443359375</LongitudeDegrees>
            </Position>
            <AltitudeMeters>190.600006103515625</AltitudeMeters>
            <DistanceMeters>NAN</DistanceMeters>
          </Trackpoint>
          <Trackpoint>
            <Time>2019-10-04T12:48:33.000Z</Time>
            <Position>
              <LatitudeDegrees>43.112269006669521331787109375</LatitudeDegrees>
              <LongitudeDegrees>-5.8196383528411388397216796875</LongitudeDegrees>
            </Position>
            <AltitudeMeters>190</AltitudeMeters>
            <DistanceMeters>NAN</DistanceMeters>
          </Trackpoint>
          <Trackpoint>
            <Time>2019-10-04T12:48:39.000Z</Time>
            <Position>
              <LatitudeDegrees>43.1118836067616939544677734375</LatitudeDegrees>
              <LongitudeDegrees>-5.81964665092527866363525390625</LongitudeDegrees>
            </Position>
            <AltitudeMeters>189.600006103515625</AltitudeMeters>
            <DistanceMeters>NAN</DistanceMeters>
          </Trackpoint>
          <Trackpoint>
            <Time>2019-10-04T12:48:44.000Z</Time>
            <Position>
              <LatitudeDegrees>43.111513964831829071044921875</LatitudeDegrees>
              <LongitudeDegrees>-5.819579176604747772216796875</LongitudeDegrees>
            </Position>
            <AltitudeMeters>189.399993896484375</AltitudeMeters>
            <DistanceMeters>NAN</DistanceMeters>
          </Trackpoint>
          <Trackpoint>
            <Time>2019-10-04T12:48:45.000Z</Time>
            <Position>
              <LatitudeDegrees>43.11143525876104831695556640625</LatitudeDegrees>
              <LongitudeDegrees>-5.8195518516004085540771484375</LongitudeDegrees>
            </Position>
            <AltitudeMeters>189.8000030517578125</AltitudeMeters>
            <DistanceMeters>NAN</DistanceMeters>
          </Trackpoint>
          <Trackpoint>
            <Time>2019-10-04T12:48:49.000Z</Time>
            <Position>
              <LatitudeDegrees>43.1111419759690761566162109375</LatitudeDegrees>
              <LongitudeDegrees>-5.81944867037236690521240234375</LongitudeDegrees>
            </Position>
            <AltitudeMeters>189.600006103515625</AltitudeMeters>
            <DistanceMeters>NAN</DistanceMeters>
          </Trackpoint>
          <Trackpoint>
            <Time>2019-10-04T12:48:52.000Z</Time>
            <Position>
              <LatitudeDegrees>43.110931254923343658447265625</LatitudeDegrees>
              <LongitudeDegrees>-5.819380022585391998291015625</LongitudeDegrees>
            </Position>
            <AltitudeMeters>190</AltitudeMeters>
            <DistanceMeters>NAN</DistanceMeters>
          </Trackpoint>
          <Trackpoint>
            <Time>2019-10-04T12:48:54.000Z</Time>
            <Position>
              <LatitudeDegrees>43.11080225743353366851806640625</LatitudeDegrees>
              <LongitudeDegrees>-5.81933417357504367828369140625</LongitudeDegrees>
            </Position>
            <AltitudeMeters>189.600006103515625</AltitudeMeters>
            <DistanceMeters>NAN</DistanceMeters>
          </Trackpoint>
          <Trackpoint>
            <Time>2019-10-04T12:48:58.000Z</Time>
            <Position>
              <LatitudeDegrees>43.110575862228870391845703125</LatitudeDegrees>
              <LongitudeDegrees>-5.81922386772930622100830078125</LongitudeDegrees>
            </Position>
            <AltitudeMeters>190</AltitudeMeters>
            <DistanceMeters>NAN</DistanceMeters>
          </Trackpoint>
          <Trackpoint>
            <Time>2019-10-04T12:49:00.000Z</Time>
            <Position>
              <LatitudeDegrees>43.11046815477311611175537109375</LatitudeDegrees>
              <LongitudeDegrees>-5.8191716484725475311279296875</LongitudeDegrees>
            </Position>
            <AltitudeMeters>190.1999969482421875</AltitudeMeters>
            <DistanceMeters>NAN</DistanceMeters>
          </Trackpoint>
          <Trackpoint>
            <Time>2019-10-04T12:49:02.000Z</Time>
            <Position>
              <LatitudeDegrees>43.11036455444991588592529296875</LatitudeDegrees>
              <LongitudeDegrees>-5.8191136457026004791259765625</LongitudeDegrees>
            </Position>
            <AltitudeMeters>190.399993896484375</AltitudeMeters>
            <DistanceMeters>NAN</DistanceMeters>
          </Trackpoint>
          <Trackpoint>
            <Time>2019-10-04T12:49:03.000Z</Time>
            <Position>
              <LatitudeDegrees>43.11031409539282321929931640625</LatitudeDegrees>
              <LongitudeDegrees>-5.8190895058214664459228515625</LongitudeDegrees>
            </Position>
            <AltitudeMeters>190.399993896484375</AltitudeMeters>
            <DistanceMeters>NAN</DistanceMeters>
          </Trackpoint>
          <Trackpoint>
            <Time>2019-10-04T12:49:05.000Z</Time>
            <Position>
              <LatitudeDegrees>43.1102172844111919403076171875</LatitudeDegrees>
              <LongitudeDegrees>-5.81904483027756214141845703125</LongitudeDegrees>
            </Position>
            <AltitudeMeters>190.399993896484375</AltitudeMeters>
            <DistanceMeters>NAN</DistanceMeters>
          </Trackpoint>
          <Trackpoint>
            <Time>2019-10-04T12:49:06.000Z</Time>
            <Position>
              <LatitudeDegrees>43.11016850173473358154296875</LatitudeDegrees>
              <LongitudeDegrees>-5.81901800818741321563720703125</LongitudeDegrees>
            </Position>
            <AltitudeMeters>190.399993896484375</AltitudeMeters>
            <DistanceMeters>NAN</DistanceMeters>
          </Trackpoint>
          <Trackpoint>
            <Time>2019-10-04T12:49:14.000Z</Time>
            <Position>
              <LatitudeDegrees>43.10977480374276638031005859375</LatitudeDegrees>
              <LongitudeDegrees>-5.81882690079510211944580078125</LongitudeDegrees>
            </Position>
            <AltitudeMeters>191</AltitudeMeters>
            <DistanceMeters>NAN</DistanceMeters>
          </Trackpoint>
          <Trackpoint>
            <Time>2019-10-04T12:49:16.000Z</Time>
            <Position>
              <LatitudeDegrees>43.109661228954792022705078125</LatitudeDegrees>
              <LongitudeDegrees>-5.81877929158508777618408203125</LongitudeDegrees>
            </Position>
            <AltitudeMeters>190.8000030517578125</AltitudeMeters>
            <DistanceMeters>NAN</DistanceMeters>
          </Trackpoint>
          <Trackpoint>
            <Time>2019-10-04T12:49:20.000Z</Time>
            <Position>
              <LatitudeDegrees>43.10943600721657276153564453125</LatitudeDegrees>
              <LongitudeDegrees>-5.81871843896806240081787109375</LongitudeDegrees>
            </Position>
            <AltitudeMeters>191.1999969482421875</AltitudeMeters>
            <DistanceMeters>NAN</DistanceMeters>
          </Trackpoint>
          <Trackpoint>
            <Time>2019-10-04T12:49:21.000Z</Time>
            <Position>
              <LatitudeDegrees>43.10938487760722637176513671875</LatitudeDegrees>
              <LongitudeDegrees>-5.81871340982615947723388671875</LongitudeDegrees>
            </Position>
            <AltitudeMeters>191.600006103515625</AltitudeMeters>
            <DistanceMeters>NAN</DistanceMeters>
          </Trackpoint>
          <Trackpoint>
            <Time>2019-10-04T12:49:26.000Z</Time>
            <Position>
              <LatitudeDegrees>43.1091038323938846588134765625</LatitudeDegrees>
              <LongitudeDegrees>-5.81871273927390575408935546875</LongitudeDegrees>
            </Position>
            <AltitudeMeters>191.1999969482421875</AltitudeMeters>
            <DistanceMeters>NAN</DistanceMeters>
          </Trackpoint>
          <Trackpoint>
            <Time>2019-10-04T12:49:28.000Z</Time>
            <Position>
              <LatitudeDegrees>43.10899277217686176300048828125</LatitudeDegrees>
              <LongitudeDegrees>-5.8187458477914333343505859375</LongitudeDegrees>
            </Position>
            <AltitudeMeters>191</AltitudeMeters>
            <DistanceMeters>NAN</DistanceMeters>
          </Trackpoint>
          <Trackpoint>
            <Time>2019-10-04T12:49:30.000Z</Time>
            <Position>
              <LatitudeDegrees>43.10888640582561492919921875</LatitudeDegrees>
              <LongitudeDegrees>-5.81879052333533763885498046875</LongitudeDegrees>
            </Position>
            <AltitudeMeters>191.1999969482421875</AltitudeMeters>
            <DistanceMeters>NAN</DistanceMeters>
          </Trackpoint>
          <Trackpoint>
            <Time>2019-10-04T12:49:36.000Z</Time>
            <Position>
              <LatitudeDegrees>43.1085906922817230224609375</LatitudeDegrees>
              <LongitudeDegrees>-5.818979702889919281005859375</LongitudeDegrees>
            </Position>
            <AltitudeMeters>191</AltitudeMeters>
            <DistanceMeters>NAN</DistanceMeters>
          </Trackpoint>
          <Trackpoint>
            <Time>2019-10-04T12:49:44.000Z</Time>
            <Position>
              <LatitudeDegrees>43.10824938118457794189453125</LatitudeDegrees>
              <LongitudeDegrees>-5.81925421021878719329833984375</LongitudeDegrees>
            </Position>
            <AltitudeMeters>191.399993896484375</AltitudeMeters>
            <DistanceMeters>NAN</DistanceMeters>
          </Trackpoint>
          <Trackpoint>
            <Time>2019-10-04T12:49:55.000Z</Time>
            <Position>
              <LatitudeDegrees>43.1077860295772552490234375</LatitudeDegrees>
              <LongitudeDegrees>-5.81965737976133823394775390625</LongitudeDegrees>
            </Position>
            <AltitudeMeters>190.8000030517578125</AltitudeMeters>
            <DistanceMeters>NAN</DistanceMeters>
          </Trackpoint>
          <Trackpoint>
            <Time>2019-10-04T12:50:03.000Z</Time>
            <Position>
              <LatitudeDegrees>43.107478916645050048828125</LatitudeDegrees>
              <LongitudeDegrees>-5.81993029452860355377197265625</LongitudeDegrees>
            </Position>
            <AltitudeMeters>191</AltitudeMeters>
            <DistanceMeters>NAN</DistanceMeters>
          </Trackpoint>
          <Trackpoint>
            <Time>2019-10-04T12:50:05.000Z</Time>
            <Position>
              <LatitudeDegrees>43.107407502830028533935546875</LatitudeDegrees>
              <LongitudeDegrees>-5.81999232061207294464111328125</LongitudeDegrees>
            </Position>
            <AltitudeMeters>191.399993896484375</AltitudeMeters>
            <DistanceMeters>NAN</DistanceMeters>
          </Trackpoint>
          <Trackpoint>
            <Time>2019-10-04T12:50:09.000Z</Time>
            <Position>
              <LatitudeDegrees>43.1072541140019893646240234375</LatitudeDegrees>
              <LongitudeDegrees>-5.8200896345078945159912109375</LongitudeDegrees>
            </Position>
            <AltitudeMeters>191</AltitudeMeters>
            <DistanceMeters>NAN</DistanceMeters>
          </Trackpoint>
          <Trackpoint>
            <Time>2019-10-04T12:50:10.000Z</Time>
            <Position>
              <LatitudeDegrees>43.10721631161868572235107421875</LatitudeDegrees>
              <LongitudeDegrees>-5.82011519931256771087646484375</LongitudeDegrees>
            </Position>
            <AltitudeMeters>191</AltitudeMeters>
            <DistanceMeters>NAN</DistanceMeters>
          </Trackpoint>
          <Trackpoint>
            <Time>2019-10-04T12:50:13.000Z</Time>
            <Position>
              <LatitudeDegrees>43.10710600577294826507568359375</LatitudeDegrees>
              <LongitudeDegrees>-5.82017957232892513275146484375</LongitudeDegrees>
            </Position>
            <AltitudeMeters>191.399993896484375</AltitudeMeters>
            <DistanceMeters>NAN</DistanceMeters>
          </Trackpoint>
          <Trackpoint>
            <Time>2019-10-04T12:50:17.000Z</Time>
            <Position>
              <LatitudeDegrees>43.106949515640735626220703125</LatitudeDegrees>
              <LongitudeDegrees>-5.82023338414728641510009765625</LongitudeDegrees>
            </Position>
            <AltitudeMeters>191.399993896484375</AltitudeMeters>
            <DistanceMeters>NAN</DistanceMeters>
          </Trackpoint>
          <Trackpoint>
            <Time>2019-10-04T12:50:26.000Z</Time>
            <Position>
              <LatitudeDegrees>43.1065996550023555755615234375</LatitudeDegrees>
              <LongitudeDegrees>-5.8203746192157268524169921875</LongitudeDegrees>
            </Position>
            <AltitudeMeters>191.1999969482421875</AltitudeMeters>
            <DistanceMeters>NAN</DistanceMeters>
          </Trackpoint>
          <Trackpoint>
            <Time>2019-10-04T12:50:27.000Z</Time>
            <Position>
              <LatitudeDegrees>43.1065587513148784637451171875</LatitudeDegrees>
              <LongitudeDegrees>-5.82040227949619293212890625</LongitudeDegrees>
            </Position>
            <AltitudeMeters>191</AltitudeMeters>
            <DistanceMeters>NAN</DistanceMeters>
          </Trackpoint>
          <Trackpoint>
            <Time>2019-10-04T12:50:29.000Z</Time>
            <Position>
              <LatitudeDegrees>43.10646764002740383148193359375</LatitudeDegrees>
              <LongitudeDegrees>-5.82046254537999629974365234375</LongitudeDegrees>
            </Position>
            <AltitudeMeters>190.399993896484375</AltitudeMeters>
            <DistanceMeters>NAN</DistanceMeters>
          </Trackpoint>
          <Trackpoint>
            <Time>2019-10-04T12:50:32.000Z</Time>
            <Position>
              <LatitudeDegrees>43.10632347129285335540771484375</LatitudeDegrees>
              <LongitudeDegrees>-5.820540748536586761474609375</LongitudeDegrees>
            </Position>
            <AltitudeMeters>189.1999969482421875</AltitudeMeters>
            <DistanceMeters>NAN</DistanceMeters>
          </Trackpoint>
          <Trackpoint>
            <Time>2019-10-04T12:50:33.000Z</Time>
            <Position>
              <LatitudeDegrees>43.10627619735896587371826171875</LatitudeDegrees>
              <LongitudeDegrees>-5.82055491395294666290283203125</LongitudeDegrees>
            </Position>
            <AltitudeMeters>189.399993896484375</AltitudeMeters>
            <DistanceMeters>NAN</DistanceMeters>
          </Trackpoint>
          <Trackpoint>
            <Time>2019-10-04T12:50:35.000Z</Time>
            <Position>
              <LatitudeDegrees>43.10617980547249317169189453125</LatitudeDegrees>
              <LongitudeDegrees>-5.8205102384090423583984375</LongitudeDegrees>
            </Position>
            <AltitudeMeters>189</AltitudeMeters>
            <DistanceMeters>NAN</DistanceMeters>
          </Trackpoint>
          <Trackpoint>
            <Time>2019-10-04T12:50:38.000Z</Time>
            <Position>
              <LatitudeDegrees>43.10611224733293056488037109375</LatitudeDegrees>
              <LongitudeDegrees>-5.82031116820871829986572265625</LongitudeDegrees>
            </Position>
            <AltitudeMeters>188.8000030517578125</AltitudeMeters>
            <DistanceMeters>NAN</DistanceMeters>
          </Trackpoint>
          <Trackpoint>
            <Time>2019-10-04T12:50:39.000Z</Time>
            <Position>
              <LatitudeDegrees>43.1060970760881900787353515625</LatitudeDegrees>
              <LongitudeDegrees>-5.82023866474628448486328125</LongitudeDegrees>
            </Position>
            <AltitudeMeters>188</AltitudeMeters>
            <DistanceMeters>NAN</DistanceMeters>
          </Trackpoint>
          <Trackpoint>
            <Time>2019-10-04T12:50:41.000Z</Time>
            <Position>
              <LatitudeDegrees>43.1060591898858547210693359375</LatitudeDegrees>
              <LongitudeDegrees>-5.82010581158101558685302734375</LongitudeDegrees>
            </Position>
            <AltitudeMeters>187.600006103515625</AltitudeMeters>
            <DistanceMeters>NAN</DistanceMeters>
          </Trackpoint>
          <Trackpoint>
            <Time>2019-10-04T12:50:45.000Z</Time>
            <Position>
              <LatitudeDegrees>43.10597084462642669677734375</LatitudeDegrees>
              <LongitudeDegrees>-5.81985049881041049957275390625</LongitudeDegrees>
            </Position>
            <AltitudeMeters>188</AltitudeMeters>
            <DistanceMeters>NAN</DistanceMeters>
          </Trackpoint>
          <Trackpoint>
            <Time>2019-10-04T12:50:48.000Z</Time>
            <Position>
              <LatitudeDegrees>43.10590253211557865142822265625</LatitudeDegrees>
              <LongitudeDegrees>-5.81966936588287353515625</LongitudeDegrees>
            </Position>
            <AltitudeMeters>188.1999969482421875</AltitudeMeters>
            <DistanceMeters>NAN</DistanceMeters>
          </Trackpoint>
          <Trackpoint>
            <Time>2019-10-04T12:50:51.000Z</Time>
            <Position>
              <LatitudeDegrees>43.10585089959204196929931640625</LatitudeDegrees>
              <LongitudeDegrees>-5.8194878138601779937744140625</LongitudeDegrees>
            </Position>
            <AltitudeMeters>188.399993896484375</AltitudeMeters>
            <DistanceMeters>NAN</DistanceMeters>
          </Trackpoint>
          <Trackpoint>
            <Time>2019-10-04T12:50:52.000Z</Time>
            <Position>
              <LatitudeDegrees>43.10583044774830341339111328125</LatitudeDegrees>
              <LongitudeDegrees>-5.8194304816424846649169921875</LongitudeDegrees>
            </Position>
            <AltitudeMeters>188.399993896484375</AltitudeMeters>
            <DistanceMeters>NAN</DistanceMeters>
          </Trackpoint>
          <Trackpoint>
            <Time>2019-10-04T12:50:57.000Z</Time>
            <Position>
              <LatitudeDegrees>43.1057212315499782562255859375</LatitudeDegrees>
              <LongitudeDegrees>-5.81917785108089447021484375</LongitudeDegrees>
            </Position>
            <AltitudeMeters>188.600006103515625</AltitudeMeters>
            <DistanceMeters>NAN</DistanceMeters>
          </Trackpoint>
          <Trackpoint>
            <Time>2019-10-04T12:50:58.000Z</Time>
            <Position>
              <LatitudeDegrees>43.1057021208107471466064453125</LatitudeDegrees>
              <LongitudeDegrees>-5.819150693714618682861328125</LongitudeDegrees>
            </Position>
            <AltitudeMeters>188.8000030517578125</AltitudeMeters>
            <DistanceMeters>NAN</DistanceMeters>
          </Trackpoint>
          <Trackpoint>
            <Time>2019-10-04T12:51:01.000Z</Time>
            <Position>
              <LatitudeDegrees>43.1056749634444713592529296875</LatitudeDegrees>
              <LongitudeDegrees>-5.81906628794968128204345703125</LongitudeDegrees>
            </Position>
            <AltitudeMeters>189.399993896484375</AltitudeMeters>
            <DistanceMeters>NAN</DistanceMeters>
          </Trackpoint>
          <Trackpoint>
            <Time>2019-10-04T12:51:03.000Z</Time>
            <Position>
              <LatitudeDegrees>43.1056429445743560791015625</LatitudeDegrees>
              <LongitudeDegrees>-5.8189919404685497283935546875</LongitudeDegrees>
            </Position>
            <AltitudeMeters>189.399993896484375</AltitudeMeters>
            <DistanceMeters>NAN</DistanceMeters>
          </Trackpoint>
          <Trackpoint>
            <Time>2019-10-04T12:51:04.000Z</Time>
            <Position>
              <LatitudeDegrees>43.10562173835933208465576171875</LatitudeDegrees>
              <LongitudeDegrees>-5.81895430572330951690673828125</LongitudeDegrees>
            </Position>
            <AltitudeMeters>189.399993896484375</AltitudeMeters>
            <DistanceMeters>NAN</DistanceMeters>
          </Trackpoint>
          <Trackpoint>
            <Time>2019-10-04T12:51:08.000Z</Time>
            <Position>
              <LatitudeDegrees>43.10557429678738117218017578125</LatitudeDegrees>
              <LongitudeDegrees>-5.8188306726515293121337890625</LongitudeDegrees>
            </Position>
            <AltitudeMeters>189.399993896484375</AltitudeMeters>
            <DistanceMeters>NAN</DistanceMeters>
          </Trackpoint>
          <Trackpoint>
            <Time>2019-10-04T12:51:09.000Z</Time>
            <Position>
              <LatitudeDegrees>43.10558251105248928070068359375</LatitudeDegrees>
              <LongitudeDegrees>-5.818797983229160308837890625</LongitudeDegrees>
            </Position>
            <AltitudeMeters>189.399993896484375</AltitudeMeters>
            <DistanceMeters>NAN</DistanceMeters>
          </Trackpoint>
          <Trackpoint>
            <Time>2019-10-04T12:51:12.000Z</Time>
            <Position>
              <LatitudeDegrees>43.105653338134288787841796875</LatitudeDegrees>
              <LongitudeDegrees>-5.818681307137012481689453125</LongitudeDegrees>
            </Position>
            <AltitudeMeters>189.8000030517578125</AltitudeMeters>
            <DistanceMeters>NAN</DistanceMeters>
          </Trackpoint>
          <Trackpoint>
            <Time>2019-10-04T12:51:13.000Z</Time>
            <Position>
              <LatitudeDegrees>43.105682171881198883056640625</LatitudeDegrees>
              <LongitudeDegrees>-5.81863872706890106201171875</LongitudeDegrees>
            </Position>
            <AltitudeMeters>189.399993896484375</AltitudeMeters>
            <DistanceMeters>NAN</DistanceMeters>
          </Trackpoint>
          <Trackpoint>
            <Time>2019-10-04T12:51:20.000Z</Time>
            <Position>
              <LatitudeDegrees>43.10592482797801494598388671875</LatitudeDegrees>
              <LongitudeDegrees>-5.81829146482050418853759765625</LongitudeDegrees>
            </Position>
            <AltitudeMeters>189.600006103515625</AltitudeMeters>
            <DistanceMeters>NAN</DistanceMeters>
          </Trackpoint>
          <Trackpoint>
            <Time>2019-10-04T12:51:22.000Z</Time>
            <Position>
              <LatitudeDegrees>43.10600361786782741546630859375</LatitudeDegrees>
              <LongitudeDegrees>-5.81817470490932464599609375</LongitudeDegrees>
            </Position>
            <AltitudeMeters>189.1999969482421875</AltitudeMeters>
            <DistanceMeters>NAN</DistanceMeters>
          </Trackpoint>
          <Trackpoint>
            <Time>2019-10-04T12:51:24.000Z</Time>
            <Position>
              <LatitudeDegrees>43.1060632131993770599365234375</LatitudeDegrees>
              <LongitudeDegrees>-5.818061046302318572998046875</LongitudeDegrees>
            </Position>
            <AltitudeMeters>189</AltitudeMeters>
            <DistanceMeters>NAN</DistanceMeters>
          </Trackpoint>
          <Trackpoint>
            <Time>2019-10-04T12:51:27.000Z</Time>
            <Position>
              <LatitudeDegrees>43.1060541607439517974853515625</LatitudeDegrees>
              <LongitudeDegrees>-5.81794965080916881561279296875</LongitudeDegrees>
            </Position>
            <AltitudeMeters>188.1999969482421875</AltitudeMeters>
            <DistanceMeters>NAN</DistanceMeters>
          </Trackpoint>
          <Trackpoint>
            <Time>2019-10-04T12:51:28.000Z</Time>
            <Position>
              <LatitudeDegrees>43.106038905680179595947265625</LatitudeDegrees>
              <LongitudeDegrees>-5.81792735494673252105712890625</LongitudeDegrees>
            </Position>
            <AltitudeMeters>188</AltitudeMeters>
            <DistanceMeters>NAN</DistanceMeters>
          </Trackpoint>
          <Trackpoint>
            <Time>2019-10-04T12:51:31.000Z</Time>
            <Position>
              <LatitudeDegrees>43.1059740297496318817138671875</LatitudeDegrees>
              <LongitudeDegrees>-5.8178406022489070892333984375</LongitudeDegrees>
            </Position>
            <AltitudeMeters>187.8000030517578125</AltitudeMeters>
            <DistanceMeters>NAN</DistanceMeters>
          </Trackpoint>
          <Trackpoint>
            <Time>2019-10-04T12:51:32.000Z</Time>
            <Position>
              <LatitudeDegrees>43.10594536364078521728515625</LatitudeDegrees>
              <LongitudeDegrees>-5.81780858337879180908203125</LongitudeDegrees>
            </Position>
            <AltitudeMeters>187.600006103515625</AltitudeMeters>
            <DistanceMeters>NAN</DistanceMeters>
          </Trackpoint>
          <Trackpoint>
            <Time>2019-10-04T12:51:33.000Z</Time>
            <Position>
              <LatitudeDegrees>43.10591711662709712982177734375</LatitudeDegrees>
              <LongitudeDegrees>-5.81777832470834255218505859375</LongitudeDegrees>
            </Position>
            <AltitudeMeters>187.1999969482421875</AltitudeMeters>
            <DistanceMeters>NAN</DistanceMeters>
          </Trackpoint>
          <Trackpoint>
            <Time>2019-10-04T12:51:42.000Z</Time>
            <Position>
              <LatitudeDegrees>43.10565258376300334930419921875</LatitudeDegrees>
              <LongitudeDegrees>-5.8174717985093593597412109375</LongitudeDegrees>
            </Position>
            <AltitudeMeters>187.399993896484375</AltitudeMeters>
            <DistanceMeters>NAN</DistanceMeters>
          </Trackpoint>
          <Trackpoint>
            <Time>2019-10-04T12:51:50.000Z</Time>
            <Position>
              <LatitudeDegrees>43.105433396995067596435546875</LatitudeDegrees>
              <LongitudeDegrees>-5.81722117960453033447265625</LongitudeDegrees>
            </Position>
            <AltitudeMeters>187.600006103515625</AltitudeMeters>
            <DistanceMeters>NAN</DistanceMeters>
          </Trackpoint>
          <Trackpoint>
            <Time>2019-10-04T12:51:53.000Z</Time>
            <Position>
              <LatitudeDegrees>43.1054176390171051025390625</LatitudeDegrees>
              <LongitudeDegrees>-5.81720198504626750946044921875</LongitudeDegrees>
            </Position>
            <AltitudeMeters>188</AltitudeMeters>
            <DistanceMeters>NAN</DistanceMeters>
          </Trackpoint>
          <Trackpoint>
            <Time>2019-10-04T12:52:00.000Z</Time>
            <Position>
              <LatitudeDegrees>43.1054176390171051025390625</LatitudeDegrees>
              <LongitudeDegrees>-5.81720198504626750946044921875</LongitudeDegrees>
            </Position>
            <AltitudeMeters>187.600006103515625</AltitudeMeters>
            <DistanceMeters>NAN</DistanceMeters>
          </Trackpoint>
          <Trackpoint>
            <Time>2019-10-04T12:52:04.000Z</Time>
            <Position>
              <LatitudeDegrees>43.1054176390171051025390625</LatitudeDegrees>
              <LongitudeDegrees>-5.81720198504626750946044921875</LongitudeDegrees>
            </Position>
            <AltitudeMeters>187.8000030517578125</AltitudeMeters>
            <DistanceMeters>NAN</DistanceMeters>
          </Trackpoint>
          <Trackpoint>
            <Time>2019-10-04T12:52:07.000Z</Time>
            <Position>
              <LatitudeDegrees>43.1054176390171051025390625</LatitudeDegrees>
              <LongitudeDegrees>-5.81720198504626750946044921875</LongitudeDegrees>
            </Position>
            <AltitudeMeters>187.399993896484375</AltitudeMeters>
            <DistanceMeters>NAN</DistanceMeters>
          </Trackpoint>
          <Trackpoint>
            <Time>2019-10-04T12:52:15.000Z</Time>
            <Position>
              <LatitudeDegrees>43.1054176390171051025390625</LatitudeDegrees>
              <LongitudeDegrees>-5.81720198504626750946044921875</LongitudeDegrees>
            </Position>
            <AltitudeMeters>185.8000030517578125</AltitudeMeters>
            <DistanceMeters>NAN</DistanceMeters>
          </Trackpoint>
          <Trackpoint>
            <Time>2019-10-04T12:52:19.000Z</Time>
            <Position>
              <LatitudeDegrees>43.1054176390171051025390625</LatitudeDegrees>
              <LongitudeDegrees>-5.81720198504626750946044921875</LongitudeDegrees>
            </Position>
            <AltitudeMeters>184.600006103515625</AltitudeMeters>
            <DistanceMeters>NAN</DistanceMeters>
          </Trackpoint>
          <Trackpoint>
            <Time>2019-10-04T12:52:23.000Z</Time>
            <Position>
              <LatitudeDegrees>43.1054176390171051025390625</LatitudeDegrees>
              <LongitudeDegrees>-5.81720198504626750946044921875</LongitudeDegrees>
            </Position>
            <AltitudeMeters>183.600006103515625</AltitudeMeters>
            <DistanceMeters>NAN</DistanceMeters>
          </Trackpoint>
          <Trackpoint>
            <Time>2019-10-04T12:52:24.000Z</Time>
            <Position>
              <LatitudeDegrees>43.1054176390171051025390625</LatitudeDegrees>
              <LongitudeDegrees>-5.81720198504626750946044921875</LongitudeDegrees>
            </Position>
            <AltitudeMeters>183.399993896484375</AltitudeMeters>
            <DistanceMeters>NAN</DistanceMeters>
          </Trackpoint>
          <Trackpoint>
            <Time>2019-10-04T12:52:30.000Z</Time>
            <Position>
              <LatitudeDegrees>43.1054176390171051025390625</LatitudeDegrees>
              <LongitudeDegrees>-5.81720198504626750946044921875</LongitudeDegrees>
            </Position>
            <AltitudeMeters>183</AltitudeMeters>
            <DistanceMeters>NAN</DistanceMeters>
          </Trackpoint>
          <Trackpoint>
            <Time>2019-10-04T12:52:31.000Z</Time>
            <Position>
              <LatitudeDegrees>43.1054176390171051025390625</LatitudeDegrees>
              <LongitudeDegrees>-5.81720198504626750946044921875</LongitudeDegrees>
            </Position>
            <AltitudeMeters>183</AltitudeMeters>
            <DistanceMeters>NAN</DistanceMeters>
          </Trackpoint>
          <Trackpoint>
            <Time>2019-10-04T12:52:37.000Z</Time>
            <Position>
              <LatitudeDegrees>43.1054194830358028411865234375</LatitudeDegrees>
              <LongitudeDegrees>-5.81720232032239437103271484375</LongitudeDegrees>
            </Position>
            <AltitudeMeters>183.1999969482421875</AltitudeMeters>
            <DistanceMeters>NAN</DistanceMeters>
          </Trackpoint>
          <Trackpoint>
            <Time>2019-10-04T12:52:38.000Z</Time>
            <Position>
              <LatitudeDegrees>43.1054194830358028411865234375</LatitudeDegrees>
              <LongitudeDegrees>-5.81720232032239437103271484375</LongitudeDegrees>
            </Position>
            <AltitudeMeters>183.1999969482421875</AltitudeMeters>
            <DistanceMeters>NAN</DistanceMeters>
          </Trackpoint>
          <Trackpoint>
            <Time>2019-10-04T12:52:43.000Z</Time>
            <Position>
              <LatitudeDegrees>43.1054194830358028411865234375</LatitudeDegrees>
              <LongitudeDegrees>-5.81720232032239437103271484375</LongitudeDegrees>
            </Position>
            <AltitudeMeters>183.600006103515625</AltitudeMeters>
            <DistanceMeters>NAN</DistanceMeters>
          </Trackpoint>
          <Trackpoint>
            <Time>2019-10-04T12:52:50.000Z</Time>
            <Position>
              <LatitudeDegrees>43.1054194830358028411865234375</LatitudeDegrees>
              <LongitudeDegrees>-5.81720232032239437103271484375</LongitudeDegrees>
            </Position>
            <AltitudeMeters>183.600006103515625</AltitudeMeters>
            <DistanceMeters>NAN</DistanceMeters>
          </Trackpoint>
          <Trackpoint>
            <Time>2019-10-04T12:52:57.000Z</Time>
            <Position>
              <LatitudeDegrees>43.10541906394064426422119140625</LatitudeDegrees>
              <LongitudeDegrees>-5.81720232032239437103271484375</LongitudeDegrees>
            </Position>
            <AltitudeMeters>184.399993896484375</AltitudeMeters>
            <DistanceMeters>NAN</DistanceMeters>
          </Trackpoint>
          <Trackpoint>
            <Time>2019-10-04T12:52:58.000Z</Time>
            <Position>
              <LatitudeDegrees>43.1054144538938999176025390625</LatitudeDegrees>
              <LongitudeDegrees>-5.81720248796045780181884765625</LongitudeDegrees>
            </Position>
            <AltitudeMeters>184.1999969482421875</AltitudeMeters>
            <DistanceMeters>NAN</DistanceMeters>
          </Trackpoint>
          <Trackpoint>
            <Time>2019-10-04T12:53:02.000Z</Time>
            <Position>
              <LatitudeDegrees>43.10541872866451740264892578125</LatitudeDegrees>
              <LongitudeDegrees>-5.817200727760791778564453125</LongitudeDegrees>
            </Position>
            <AltitudeMeters>184.399993896484375</AltitudeMeters>
            <DistanceMeters>NAN</DistanceMeters>
          </Trackpoint>
          <Trackpoint>
            <Time>2019-10-04T12:53:04.000Z</Time>
            <Position>
              <LatitudeDegrees>43.10539760626852512359619140625</LatitudeDegrees>
              <LongitudeDegrees>-5.81716259010136127471923828125</LongitudeDegrees>
            </Position>
            <AltitudeMeters>184.600006103515625</AltitudeMeters>
            <DistanceMeters>NAN</DistanceMeters>
          </Trackpoint>
          <Trackpoint>
            <Time>2019-10-04T12:53:09.000Z</Time>
            <Position>
              <LatitudeDegrees>43.1053450517356395721435546875</LatitudeDegrees>
              <LongitudeDegrees>-5.81706116907298564910888671875</LongitudeDegrees>
            </Position>
            <AltitudeMeters>185</AltitudeMeters>
            <DistanceMeters>NAN</DistanceMeters>
          </Trackpoint>
          <Trackpoint>
            <Time>2019-10-04T12:53:10.000Z</Time>
            <Position>
              <LatitudeDegrees>43.1053264439105987548828125</LatitudeDegrees>
              <LongitudeDegrees>-5.81703317351639270782470703125</LongitudeDegrees>
            </Position>
            <AltitudeMeters>185</AltitudeMeters>
            <DistanceMeters>NAN</DistanceMeters>
          </Trackpoint>
          <Trackpoint>
            <Time>2019-10-04T12:53:15.000Z</Time>
            <Position>
              <LatitudeDegrees>43.10522929765284061431884765625</LatitudeDegrees>
              <LongitudeDegrees>-5.81685908138751983642578125</LongitudeDegrees>
            </Position>
            <AltitudeMeters>185.1999969482421875</AltitudeMeters>
            <DistanceMeters>NAN</DistanceMeters>
          </Trackpoint>
          <Trackpoint>
            <Time>2019-10-04T12:53:17.000Z</Time>
            <Position>
              <LatitudeDegrees>43.10519300401210784912109375</LatitudeDegrees>
              <LongitudeDegrees>-5.81677861511707305908203125</LongitudeDegrees>
            </Position>
            <AltitudeMeters>185.1999969482421875</AltitudeMeters>
            <DistanceMeters>NAN</DistanceMeters>
          </Trackpoint>
          <Trackpoint>
            <Time>2019-10-04T12:53:19.000Z</Time>
            <Position>
              <LatitudeDegrees>43.1051601469516754150390625</LatitudeDegrees>
              <LongitudeDegrees>-5.81669152714312076568603515625</LongitudeDegrees>
            </Position>
            <AltitudeMeters>185.600006103515625</AltitudeMeters>
            <DistanceMeters>NAN</DistanceMeters>
          </Trackpoint>
          <Trackpoint>
            <Time>2019-10-04T12:53:24.000Z</Time>
            <Position>
              <LatitudeDegrees>43.10508697293698787689208984375</LatitudeDegrees>
              <LongitudeDegrees>-5.81646881997585296630859375</LongitudeDegrees>
            </Position>
            <AltitudeMeters>184.399993896484375</AltitudeMeters>
            <DistanceMeters>NAN</DistanceMeters>
          </Trackpoint>
          <Trackpoint>
            <Time>2019-10-04T12:53:26.000Z</Time>
            <Position>
              <LatitudeDegrees>43.10506559908390045166015625</LatitudeDegrees>
              <LongitudeDegrees>-5.8163747750222682952880859375</LongitudeDegrees>
            </Position>
            <AltitudeMeters>183.8000030517578125</AltitudeMeters>
            <DistanceMeters>NAN</DistanceMeters>
          </Trackpoint>
          <Trackpoint>
            <Time>2019-10-04T12:53:27.000Z</Time>
            <Position>
              <LatitudeDegrees>43.10505528934299945831298828125</LatitudeDegrees>
              <LongitudeDegrees>-5.81632758490741252899169921875</LongitudeDegrees>
            </Position>
            <AltitudeMeters>183.399993896484375</AltitudeMeters>
            <DistanceMeters>NAN</DistanceMeters>
          </Trackpoint>
          <Trackpoint>
            <Time>2019-10-04T12:53:34.000Z</Time>
            <Position>
              <LatitudeDegrees>43.10501388274133205413818359375</LatitudeDegrees>
              <LongitudeDegrees>-5.81597588025033473968505859375</LongitudeDegrees>
            </Position>
            <AltitudeMeters>182.399993896484375</AltitudeMeters>
            <DistanceMeters>NAN</DistanceMeters>
          </Trackpoint>
          <Trackpoint>
            <Time>2019-10-04T12:53:44.000Z</Time>
            <Position>
              <LatitudeDegrees>43.10498806647956371307373046875</LatitudeDegrees>
              <LongitudeDegrees>-5.81547078676521778106689453125</LongitudeDegrees>
            </Position>
            <AltitudeMeters>183</AltitudeMeters>
            <DistanceMeters>NAN</DistanceMeters>
          </Trackpoint>
          <Trackpoint>
            <Time>2019-10-04T12:53:55.000Z</Time>
            <Position>
              <LatitudeDegrees>43.1049858033657073974609375</LatitudeDegrees>
              <LongitudeDegrees>-5.8148898370563983917236328125</LongitudeDegrees>
            </Position>
            <AltitudeMeters>181.399993896484375</AltitudeMeters>
            <DistanceMeters>NAN</DistanceMeters>
          </Trackpoint>
          <Trackpoint>
            <Time>2019-10-04T12:53:57.000Z</Time>
            <Position>
              <LatitudeDegrees>43.10498622246086597442626953125</LatitudeDegrees>
              <LongitudeDegrees>-5.8147825486958026885986328125</LongitudeDegrees>
            </Position>
            <AltitudeMeters>181.1999969482421875</AltitudeMeters>
            <DistanceMeters>NAN</DistanceMeters>
          </Trackpoint>
          <Trackpoint>
            <Time>2019-10-04T12:54:02.000Z</Time>
            <Position>
              <LatitudeDegrees>43.1049911677837371826171875</LatitudeDegrees>
              <LongitudeDegrees>-5.81452312879264354705810546875</LongitudeDegrees>
            </Position>
            <AltitudeMeters>180</AltitudeMeters>
            <DistanceMeters>NAN</DistanceMeters>
          </Trackpoint>
          <Trackpoint>
            <Time>2019-10-04T12:54:06.000Z</Time>
            <Position>
              <LatitudeDegrees>43.10499477200210094451904296875</LatitudeDegrees>
              <LongitudeDegrees>-5.814319364726543426513671875</LongitudeDegrees>
            </Position>
            <AltitudeMeters>179.600006103515625</AltitudeMeters>
            <DistanceMeters>NAN</DistanceMeters>
          </Trackpoint>
          <Trackpoint>
            <Time>2019-10-04T12:54:16.000Z</Time>
            <Position>
              <LatitudeDegrees>43.10499728657305240631103515625</LatitudeDegrees>
              <LongitudeDegrees>-5.81379440613090991973876953125</LongitudeDegrees>
            </Position>
            <AltitudeMeters>180.600006103515625</AltitudeMeters>
            <DistanceMeters>NAN</DistanceMeters>
          </Trackpoint>
          <Trackpoint>
            <Time>2019-10-04T12:54:20.000Z</Time>
            <Position>
              <LatitudeDegrees>43.10499192215502262115478515625</LatitudeDegrees>
              <LongitudeDegrees>-5.81358385272324085235595703125</LongitudeDegrees>
            </Position>
            <AltitudeMeters>181.1999969482421875</AltitudeMeters>
            <DistanceMeters>NAN</DistanceMeters>
          </Trackpoint>
          <Trackpoint>
            <Time>2019-10-04T12:54:25.000Z</Time>
            <Position>
              <LatitudeDegrees>43.1049789302051067352294921875</LatitudeDegrees>
              <LongitudeDegrees>-5.8133160509169101715087890625</LongitudeDegrees>
            </Position>
            <AltitudeMeters>181.8000030517578125</AltitudeMeters>
            <DistanceMeters>NAN</DistanceMeters>
          </Trackpoint>
          <Trackpoint>
            <Time>2019-10-04T12:54:26.000Z</Time>
            <Position>
              <LatitudeDegrees>43.10497532598674297332763671875</LatitudeDegrees>
              <LongitudeDegrees>-5.8132610656321048736572265625</LongitudeDegrees>
            </Position>
            <AltitudeMeters>182.1999969482421875</AltitudeMeters>
            <DistanceMeters>NAN</DistanceMeters>
          </Trackpoint>
          <Trackpoint>
            <Time>2019-10-04T12:54:33.000Z</Time>
            <Position>
              <LatitudeDegrees>43.10492319054901599884033203125</LatitudeDegrees>
              <LongitudeDegrees>-5.81288010813295841217041015625</LongitudeDegrees>
            </Position>
            <AltitudeMeters>183.1999969482421875</AltitudeMeters>
            <DistanceMeters>NAN</DistanceMeters>
          </Trackpoint>
          <Trackpoint>
            <Time>2019-10-04T12:54:34.000Z</Time>
            <Position>
              <LatitudeDegrees>43.104912377893924713134765625</LatitudeDegrees>
              <LongitudeDegrees>-5.81282529048621654510498046875</LongitudeDegrees>
            </Position>
            <AltitudeMeters>183.399993896484375</AltitudeMeters>
            <DistanceMeters>NAN</DistanceMeters>
          </Trackpoint>
          <Trackpoint>
            <Time>2019-10-04T12:54:39.000Z</Time>
            <Position>
              <LatitudeDegrees>43.10484875924885272979736328125</LatitudeDegrees>
              <LongitudeDegrees>-5.81254282034933567047119140625</LongitudeDegrees>
            </Position>
            <AltitudeMeters>184.1999969482421875</AltitudeMeters>
            <DistanceMeters>NAN</DistanceMeters>
          </Trackpoint>
          <Trackpoint>
            <Time>2019-10-04T12:54:44.000Z</Time>
            <Position>
              <LatitudeDegrees>43.10476544313132762908935546875</LatitudeDegrees>
              <LongitudeDegrees>-5.8122686482965946197509765625</LongitudeDegrees>
            </Position>
            <AltitudeMeters>184.600006103515625</AltitudeMeters>
            <DistanceMeters>NAN</DistanceMeters>
          </Trackpoint>
          <Trackpoint>
            <Time>2019-10-04T12:54:49.000Z</Time>
            <Position>
              <LatitudeDegrees>43.1046533770859241485595703125</LatitudeDegrees>
              <LongitudeDegrees>-5.81200118176639080047607421875</LongitudeDegrees>
            </Position>
            <AltitudeMeters>185</AltitudeMeters>
            <DistanceMeters>NAN</DistanceMeters>
          </Trackpoint>
          <Trackpoint>
            <Time>2019-10-04T12:54:52.000Z</Time>
            <Position>
              <LatitudeDegrees>43.10456695966422557830810546875</LatitudeDegrees>
              <LongitudeDegrees>-5.81184896640479564666748046875</LongitudeDegrees>
            </Position>
            <AltitudeMeters>185.399993896484375</AltitudeMeters>
            <DistanceMeters>NAN</DistanceMeters>
          </Trackpoint>
          <Trackpoint>
            <Time>2019-10-04T12:54:58.000Z</Time>
            <Position>
              <LatitudeDegrees>43.1043447554111480712890625</LatitudeDegrees>
              <LongitudeDegrees>-5.811528861522674560546875</LongitudeDegrees>
            </Position>
            <AltitudeMeters>186.1999969482421875</AltitudeMeters>
            <DistanceMeters>NAN</DistanceMeters>
          </Trackpoint>
          <Trackpoint>
            <Time>2019-10-04T12:54:59.000Z</Time>
            <Position>
              <LatitudeDegrees>43.1043013371527194976806640625</LatitudeDegrees>
              <LongitudeDegrees>-5.81147546879947185516357421875</LongitudeDegrees>
            </Position>
            <AltitudeMeters>186</AltitudeMeters>
            <DistanceMeters>NAN</DistanceMeters>
          </Trackpoint>
          <Trackpoint>
            <Time>2019-10-04T12:55:02.000Z</Time>
            <Position>
              <LatitudeDegrees>43.10415373183786869049072265625</LatitudeDegrees>
              <LongitudeDegrees>-5.811319313943386077880859375</LongitudeDegrees>
            </Position>
            <AltitudeMeters>186.600006103515625</AltitudeMeters>
            <DistanceMeters>NAN</DistanceMeters>
          </Trackpoint>
          <Trackpoint>
            <Time>2019-10-04T12:55:06.000Z</Time>
            <Position>
              <LatitudeDegrees>43.1039370596408843994140625</LatitudeDegrees>
              <LongitudeDegrees>-5.8111297152936458587646484375</LongitudeDegrees>
            </Position>
            <AltitudeMeters>186.600006103515625</AltitudeMeters>
            <DistanceMeters>NAN</DistanceMeters>
          </Trackpoint>
          <Trackpoint>
            <Time>2019-10-04T12:55:11.000Z</Time>
            <Position>
              <LatitudeDegrees>43.1036460399627685546875</LatitudeDegrees>
              <LongitudeDegrees>-5.810935758054256439208984375</LongitudeDegrees>
            </Position>
            <AltitudeMeters>186.8000030517578125</AltitudeMeters>
            <DistanceMeters>NAN</DistanceMeters>
          </Trackpoint>
          <Trackpoint>
            <Time>2019-10-04T12:55:14.000Z</Time>
            <Position>
              <LatitudeDegrees>43.10347194783389568328857421875</LatitudeDegrees>
              <LongitudeDegrees>-5.81082201562821865081787109375</LongitudeDegrees>
            </Position>
            <AltitudeMeters>186.8000030517578125</AltitudeMeters>
            <DistanceMeters>NAN</DistanceMeters>
          </Trackpoint>
          <Trackpoint>
            <Time>2019-10-04T12:55:21.000Z</Time>
            <Position>
              <LatitudeDegrees>43.10307204723358154296875</LatitudeDegrees>
              <LongitudeDegrees>-5.810564272105693817138671875</LongitudeDegrees>
            </Position>
            <AltitudeMeters>187.8000030517578125</AltitudeMeters>
            <DistanceMeters>NAN</DistanceMeters>
          </Trackpoint>
          <Trackpoint>
            <Time>2019-10-04T12:55:22.000Z</Time>
            <Position>
              <LatitudeDegrees>43.10301597230136394500732421875</LatitudeDegrees>
              <LongitudeDegrees>-5.8105315826833248138427734375</LongitudeDegrees>
            </Position>
            <AltitudeMeters>187.600006103515625</AltitudeMeters>
            <DistanceMeters>NAN</DistanceMeters>
          </Trackpoint>
          <Trackpoint>
            <Time>2019-10-04T12:55:30.000Z</Time>
            <Position>
              <LatitudeDegrees>43.102594278752803802490234375</LatitudeDegrees>
              <LongitudeDegrees>-5.81026243977248668670654296875</LongitudeDegrees>
            </Position>
            <AltitudeMeters>188</AltitudeMeters>
            <DistanceMeters>NAN</DistanceMeters>
          </Trackpoint>
          <Trackpoint>
            <Time>2019-10-04T12:55:33.000Z</Time>
            <Position>
              <LatitudeDegrees>43.102453462779521942138671875</LatitudeDegrees>
              <LongitudeDegrees>-5.81015900708734989166259765625</LongitudeDegrees>
            </Position>
            <AltitudeMeters>188.399993896484375</AltitudeMeters>
            <DistanceMeters>NAN</DistanceMeters>
          </Trackpoint>
          <Trackpoint>
            <Time>2019-10-04T12:55:36.000Z</Time>
            <Position>
              <LatitudeDegrees>43.1023238785564899444580078125</LatitudeDegrees>
              <LongitudeDegrees>-5.81005029380321502685546875</LongitudeDegrees>
            </Position>
            <AltitudeMeters>188.399993896484375</AltitudeMeters>
            <DistanceMeters>NAN</DistanceMeters>
          </Trackpoint>
          <Trackpoint>
            <Time>2019-10-04T12:55:41.000Z</Time>
            <Position>
              <LatitudeDegrees>43.10213771648705005645751953125</LatitudeDegrees>
              <LongitudeDegrees>-5.80985851585865020751953125</LongitudeDegrees>
            </Position>
            <AltitudeMeters>188.8000030517578125</AltitudeMeters>
            <DistanceMeters>NAN</DistanceMeters>
          </Trackpoint>
          <Trackpoint>
            <Time>2019-10-04T12:55:48.000Z</Time>
            <Position>
              <LatitudeDegrees>43.10194225050508975982666015625</LatitudeDegrees>
              <LongitudeDegrees>-5.8095641434192657470703125</LongitudeDegrees>
            </Position>
            <AltitudeMeters>189.399993896484375</AltitudeMeters>
            <DistanceMeters>NAN</DistanceMeters>
          </Trackpoint>
          <Trackpoint>
            <Time>2019-10-04T12:55:50.000Z</Time>
            <Position>
              <LatitudeDegrees>43.10189497657120227813720703125</LatitudeDegrees>
              <LongitudeDegrees>-5.80947504378855228424072265625</LongitudeDegrees>
            </Position>
            <AltitudeMeters>189.1999969482421875</AltitudeMeters>
            <DistanceMeters>NAN</DistanceMeters>
          </Trackpoint>
          <Trackpoint>
            <Time>2019-10-04T12:55:57.000Z</Time>
            <Position>
              <LatitudeDegrees>43.10177193023264408111572265625</LatitudeDegrees>
              <LongitudeDegrees>-5.80916373990476131439208984375</LongitudeDegrees>
            </Position>
            <AltitudeMeters>189.8000030517578125</AltitudeMeters>
            <DistanceMeters>NAN</DistanceMeters>
          </Trackpoint>
          <Trackpoint>
            <Time>2019-10-04T12:55:58.000Z</Time>
            <Position>
              <LatitudeDegrees>43.1017579324543476104736328125</LatitudeDegrees>
              <LongitudeDegrees>-5.8091187290847301483154296875</LongitudeDegrees>
            </Position>
            <AltitudeMeters>189.8000030517578125</AltitudeMeters>
            <DistanceMeters>NAN</DistanceMeters>
          </Trackpoint>
          <Trackpoint>
            <Time>2019-10-04T12:56:02.000Z</Time>
            <Position>
              <LatitudeDegrees>43.10170948505401611328125</LatitudeDegrees>
              <LongitudeDegrees>-5.8089373447000980377197265625</LongitudeDegrees>
            </Position>
            <AltitudeMeters>190.600006103515625</AltitudeMeters>
            <DistanceMeters>NAN</DistanceMeters>
          </Trackpoint>
          <Trackpoint>
            <Time>2019-10-04T12:56:10.000Z</Time>
            <Position>
              <LatitudeDegrees>43.10165843926370143890380859375</LatitudeDegrees>
              <LongitudeDegrees>-5.808519423007965087890625</LongitudeDegrees>
            </Position>
            <AltitudeMeters>190.600006103515625</AltitudeMeters>
            <DistanceMeters>NAN</DistanceMeters>
          </Trackpoint>
          <Trackpoint>
            <Time>2019-10-04T12:56:11.000Z</Time>
            <Position>
              <LatitudeDegrees>43.1016523204743862152099609375</LatitudeDegrees>
              <LongitudeDegrees>-5.808465443551540374755859375</LongitudeDegrees>
            </Position>
            <AltitudeMeters>191</AltitudeMeters>
            <DistanceMeters>NAN</DistanceMeters>
          </Trackpoint>
          <Trackpoint>
            <Time>2019-10-04T12:56:12.000Z</Time>
            <Position>
              <LatitudeDegrees>43.1016489677131175994873046875</LatitudeDegrees>
              <LongitudeDegrees>-5.80841070972383022308349609375</LongitudeDegrees>
            </Position>
            <AltitudeMeters>191</AltitudeMeters>
            <DistanceMeters>NAN</DistanceMeters>
          </Trackpoint>
          <Trackpoint>
            <Time>2019-10-04T12:56:16.000Z</Time>
            <Position>
              <LatitudeDegrees>43.1016442738473415374755859375</LatitudeDegrees>
              <LongitudeDegrees>-5.808192193508148193359375</LongitudeDegrees>
            </Position>
            <AltitudeMeters>191.399993896484375</AltitudeMeters>
            <DistanceMeters>NAN</DistanceMeters>
          </Trackpoint>
          <Trackpoint>
            <Time>2019-10-04T12:56:24.000Z</Time>
            <Position>
              <LatitudeDegrees>43.10165156610310077667236328125</LatitudeDegrees>
              <LongitudeDegrees>-5.80775457434356212615966796875</LongitudeDegrees>
            </Position>
            <AltitudeMeters>191.600006103515625</AltitudeMeters>
            <DistanceMeters>NAN</DistanceMeters>
          </Trackpoint>
          <Trackpoint>
            <Time>2019-10-04T12:56:31.000Z</Time>
            <Position>
              <LatitudeDegrees>43.101648129522800445556640625</LatitudeDegrees>
              <LongitudeDegrees>-5.8073702640831470489501953125</LongitudeDegrees>
            </Position>
            <AltitudeMeters>192</AltitudeMeters>
            <DistanceMeters>NAN</DistanceMeters>
          </Trackpoint>
          <Trackpoint>
            <Time>2019-10-04T12:56:33.000Z</Time>
            <Position>
              <LatitudeDegrees>43.1016459502279758453369140625</LatitudeDegrees>
              <LongitudeDegrees>-5.80725886858999729156494140625</LongitudeDegrees>
            </Position>
            <AltitudeMeters>192</AltitudeMeters>
            <DistanceMeters>NAN</DistanceMeters>
          </Trackpoint>
          <Trackpoint>
            <Time>2019-10-04T12:56:38.000Z</Time>
            <Position>
              <LatitudeDegrees>43.10161971487104892730712890625</LatitudeDegrees>
              <LongitudeDegrees>-5.8069840259850025177001953125</LongitudeDegrees>
            </Position>
            <AltitudeMeters>192.1999969482421875</AltitudeMeters>
            <DistanceMeters>NAN</DistanceMeters>
          </Trackpoint>
          <Trackpoint>
            <Time>2019-10-04T12:56:39.000Z</Time>
            <Position>
              <LatitudeDegrees>43.10161083005368709564208984375</LatitudeDegrees>
              <LongitudeDegrees>-5.8069310523569583892822265625</LongitudeDegrees>
            </Position>
            <AltitudeMeters>192.399993896484375</AltitudeMeters>
            <DistanceMeters>NAN</DistanceMeters>
          </Trackpoint>
          <Trackpoint>
            <Time>2019-10-04T12:56:46.000Z</Time>
            <Position>
              <LatitudeDegrees>43.101548887789249420166015625</LatitudeDegrees>
              <LongitudeDegrees>-5.806556046009063720703125</LongitudeDegrees>
            </Position>
            <AltitudeMeters>192.600006103515625</AltitudeMeters>
            <DistanceMeters>NAN</DistanceMeters>
          </Trackpoint>
          <Trackpoint>
            <Time>2019-10-04T12:56:56.000Z</Time>
            <Position>
              <LatitudeDegrees>43.1014011986553668975830078125</LatitudeDegrees>
              <LongitudeDegrees>-5.8060217835009098052978515625</LongitudeDegrees>
            </Position>
            <AltitudeMeters>192.399993896484375</AltitudeMeters>
            <DistanceMeters>NAN</DistanceMeters>
          </Trackpoint>
          <Trackpoint>
            <Time>2019-10-04T12:57:04.000Z</Time>
            <Position>
              <LatitudeDegrees>43.1012459658086299896240234375</LatitudeDegrees>
              <LongitudeDegrees>-5.805654488503932952880859375</LongitudeDegrees>
            </Position>
            <AltitudeMeters>192.399993896484375</AltitudeMeters>
            <DistanceMeters>NAN</DistanceMeters>
          </Trackpoint>
          <Trackpoint>
            <Time>2019-10-04T12:57:10.000Z</Time>
            <Position>
              <LatitudeDegrees>43.1011061556637287139892578125</LatitudeDegrees>
              <LongitudeDegrees>-5.8053659833967685699462890625</LongitudeDegrees>
            </Position>
            <AltitudeMeters>192</AltitudeMeters>
            <DistanceMeters>NAN</DistanceMeters>
          </Trackpoint>
          <Trackpoint>
            <Time>2019-10-04T12:57:17.000Z</Time>
            <Position>
              <LatitudeDegrees>43.10091932304203510284423828125</LatitudeDegrees>
              <LongitudeDegrees>-5.8050618879497051239013671875</LongitudeDegrees>
            </Position>
            <AltitudeMeters>191.600006103515625</AltitudeMeters>
            <DistanceMeters>NAN</DistanceMeters>
          </Trackpoint>
          <Trackpoint>
            <Time>2019-10-04T12:57:26.000Z</Time>
            <Position>
              <LatitudeDegrees>43.1006635911762714385986328125</LatitudeDegrees>
              <LongitudeDegrees>-5.8046987839043140411376953125</LongitudeDegrees>
            </Position>
            <AltitudeMeters>190.8000030517578125</AltitudeMeters>
            <DistanceMeters>NAN</DistanceMeters>
          </Trackpoint>
          <Trackpoint>
            <Time>2019-10-04T12:57:27.000Z</Time>
            <Position>
              <LatitudeDegrees>43.10063500888645648956298828125</LatitudeDegrees>
              <LongitudeDegrees>-5.804656706750392913818359375</LongitudeDegrees>
            </Position>
            <AltitudeMeters>190.8000030517578125</AltitudeMeters>
            <DistanceMeters>NAN</DistanceMeters>
          </Trackpoint>
          <Trackpoint>
            <Time>2019-10-04T12:57:38.000Z</Time>
            <Position>
              <LatitudeDegrees>43.1003053486347198486328125</LatitudeDegrees>
              <LongitudeDegrees>-5.80420710146427154541015625</LongitudeDegrees>
            </Position>
            <AltitudeMeters>190.399993896484375</AltitudeMeters>
            <DistanceMeters>NAN</DistanceMeters>
          </Trackpoint>
          <Trackpoint>
            <Time>2019-10-04T12:57:46.000Z</Time>
            <Position>
              <LatitudeDegrees>43.10006864368915557861328125</LatitudeDegrees>
              <LongitudeDegrees>-5.8038981445133686065673828125</LongitudeDegrees>
            </Position>
            <AltitudeMeters>190</AltitudeMeters>
            <DistanceMeters>NAN</DistanceMeters>
          </Trackpoint>
          <Trackpoint>
            <Time>2019-10-04T12:57:54.000Z</Time>
            <Position>
              <LatitudeDegrees>43.09980369172990322113037109375</LatitudeDegrees>
              <LongitudeDegrees>-5.8036202006042003631591796875</LongitudeDegrees>
            </Position>
            <AltitudeMeters>189.8000030517578125</AltitudeMeters>
            <DistanceMeters>NAN</DistanceMeters>
          </Trackpoint>
          <Trackpoint>
            <Time>2019-10-04T12:57:55.000Z</Time>
            <Position>
              <LatitudeDegrees>43.09976756572723388671875</LatitudeDegrees>
              <LongitudeDegrees>-5.80358725972473621368408203125</LongitudeDegrees>
            </Position>
            <AltitudeMeters>189.8000030517578125</AltitudeMeters>
            <DistanceMeters>NAN</DistanceMeters>
          </Trackpoint>
          <Trackpoint>
            <Time>2019-10-04T12:57:59.000Z</Time>
            <Position>
              <LatitudeDegrees>43.09961191378533840179443359375</LatitudeDegrees>
              <LongitudeDegrees>-5.80346203409135341644287109375</LongitudeDegrees>
            </Position>
            <AltitudeMeters>189.8000030517578125</AltitudeMeters>
            <DistanceMeters>NAN</DistanceMeters>
          </Trackpoint>
          <Trackpoint>
            <Time>2019-10-04T12:58:01.000Z</Time>
            <Position>
              <LatitudeDegrees>43.0994991771876811981201171875</LatitudeDegrees>
              <LongitudeDegrees>-5.80338500440120697021484375</LongitudeDegrees>
            </Position>
            <AltitudeMeters>189.8000030517578125</AltitudeMeters>
            <DistanceMeters>NAN</DistanceMeters>
          </Trackpoint>
          <Trackpoint>
            <Time>2019-10-04T12:58:11.000Z</Time>
            <Position>
              <LatitudeDegrees>43.09911084361374378204345703125</LatitudeDegrees>
              <LongitudeDegrees>-5.803203284740447998046875</LongitudeDegrees>
            </Position>
            <AltitudeMeters>189.600006103515625</AltitudeMeters>
            <DistanceMeters>NAN</DistanceMeters>
          </Trackpoint>
          <Trackpoint>
            <Time>2019-10-04T12:58:19.000Z</Time>
            <Position>
              <LatitudeDegrees>43.09880641289055347442626953125</LatitudeDegrees>
              <LongitudeDegrees>-5.80311284400522708892822265625</LongitudeDegrees>
            </Position>
            <AltitudeMeters>189.399993896484375</AltitudeMeters>
            <DistanceMeters>NAN</DistanceMeters>
          </Trackpoint>
          <Trackpoint>
            <Time>2019-10-04T12:58:26.000Z</Time>
            <Position>
              <LatitudeDegrees>43.09852126054465770721435546875</LatitudeDegrees>
              <LongitudeDegrees>-5.80306171439588069915771484375</LongitudeDegrees>
            </Position>
            <AltitudeMeters>190</AltitudeMeters>
            <DistanceMeters>NAN</DistanceMeters>
          </Trackpoint>
          <Trackpoint>
            <Time>2019-10-04T12:58:27.000Z</Time>
            <Position>
              <LatitudeDegrees>43.09848010540008544921875</LatitudeDegrees>
              <LongitudeDegrees>-5.8030545897781848907470703125</LongitudeDegrees>
            </Position>
            <AltitudeMeters>190.1999969482421875</AltitudeMeters>
            <DistanceMeters>NAN</DistanceMeters>
          </Trackpoint>
          <Trackpoint>
            <Time>2019-10-04T12:58:32.000Z</Time>
            <Position>
              <LatitudeDegrees>43.0982856452465057373046875</LatitudeDegrees>
              <LongitudeDegrees>-5.80300739966332912445068359375</LongitudeDegrees>
            </Position>
            <AltitudeMeters>189.8000030517578125</AltitudeMeters>
            <DistanceMeters>NAN</DistanceMeters>
          </Trackpoint>
          <Trackpoint>
            <Time>2019-10-04T12:58:35.000Z</Time>
            <Position>
              <LatitudeDegrees>43.098169304430484771728515625</LatitudeDegrees>
              <LongitudeDegrees>-5.80297504551708698272705078125</LongitudeDegrees>
            </Position>
            <AltitudeMeters>189.8000030517578125</AltitudeMeters>
            <DistanceMeters>NAN</DistanceMeters>
          </Trackpoint>
          <Trackpoint>
            <Time>2019-10-04T12:58:43.000Z</Time>
            <Position>
              <LatitudeDegrees>43.0978801287710666656494140625</LatitudeDegrees>
              <LongitudeDegrees>-5.8028323017060756683349609375</LongitudeDegrees>
            </Position>
            <AltitudeMeters>189.8000030517578125</AltitudeMeters>
            <DistanceMeters>NAN</DistanceMeters>
          </Trackpoint>
          <Trackpoint>
            <Time>2019-10-04T12:58:52.000Z</Time>
            <Position>
              <LatitudeDegrees>43.0975736863911151885986328125</LatitudeDegrees>
              <LongitudeDegrees>-5.80259635113179683685302734375</LongitudeDegrees>
            </Position>
            <AltitudeMeters>189.8000030517578125</AltitudeMeters>
            <DistanceMeters>NAN</DistanceMeters>
          </Trackpoint>
          <Trackpoint>
            <Time>2019-10-04T12:59:01.000Z</Time>
            <Position>
              <LatitudeDegrees>43.09730052016675472259521484375</LatitudeDegrees>
              <LongitudeDegrees>-5.8022884838283061981201171875</LongitudeDegrees>
            </Position>
            <AltitudeMeters>190</AltitudeMeters>
            <DistanceMeters>NAN</DistanceMeters>
          </Trackpoint>
          <Trackpoint>
            <Time>2019-10-04T12:59:09.000Z</Time>
            <Position>
              <LatitudeDegrees>43.0970825068652629852294921875</LatitudeDegrees>
              <LongitudeDegrees>-5.8019897527992725372314453125</LongitudeDegrees>
            </Position>
            <AltitudeMeters>189.8000030517578125</AltitudeMeters>
            <DistanceMeters>NAN</DistanceMeters>
          </Trackpoint>
          <Trackpoint>
            <Time>2019-10-04T12:59:18.000Z</Time>
            <Position>
              <LatitudeDegrees>43.096860386431217193603515625</LatitudeDegrees>
              <LongitudeDegrees>-5.80165388993918895721435546875</LongitudeDegrees>
            </Position>
            <AltitudeMeters>189.399993896484375</AltitudeMeters>
            <DistanceMeters>NAN</DistanceMeters>
          </Trackpoint>
          <Trackpoint>
            <Time>2019-10-04T12:59:25.000Z</Time>
            <Position>
              <LatitudeDegrees>43.09668461792171001434326171875</LatitudeDegrees>
              <LongitudeDegrees>-5.8013839088380336761474609375</LongitudeDegrees>
            </Position>
            <AltitudeMeters>190</AltitudeMeters>
            <DistanceMeters>NAN</DistanceMeters>
          </Trackpoint>
          <Trackpoint>
            <Time>2019-10-04T12:59:29.000Z</Time>
            <Position>
              <LatitudeDegrees>43.096578419208526611328125</LatitudeDegrees>
              <LongitudeDegrees>-5.8012340404093265533447265625</LongitudeDegrees>
            </Position>
            <AltitudeMeters>189.600006103515625</AltitudeMeters>
            <DistanceMeters>NAN</DistanceMeters>
          </Trackpoint>
          <Trackpoint>
            <Time>2019-10-04T12:59:30.000Z</Time>
            <Position>
              <LatitudeDegrees>43.09655360877513885498046875</LatitudeDegrees>
              <LongitudeDegrees>-5.80120210535824298858642578125</LongitudeDegrees>
            </Position>
            <AltitudeMeters>189.600006103515625</AltitudeMeters>
            <DistanceMeters>NAN</DistanceMeters>
          </Trackpoint>
          <Trackpoint>
            <Time>2019-10-04T12:59:32.000Z</Time>
            <Position>
              <LatitudeDegrees>43.096500299870967864990234375</LatitudeDegrees>
              <LongitudeDegrees>-5.8011321164667606353759765625</LongitudeDegrees>
            </Position>
            <AltitudeMeters>189.8000030517578125</AltitudeMeters>
            <DistanceMeters>NAN</DistanceMeters>
          </Trackpoint>
          <Trackpoint>
            <Time>2019-10-04T12:59:37.000Z</Time>
            <Position>
              <LatitudeDegrees>43.096371553838253021240234375</LatitudeDegrees>
              <LongitudeDegrees>-5.8009339682757854461669921875</LongitudeDegrees>
            </Position>
            <AltitudeMeters>189.8000030517578125</AltitudeMeters>
            <DistanceMeters>NAN</DistanceMeters>
          </Trackpoint>
          <Trackpoint>
            <Time>2019-10-04T12:59:41.000Z</Time>
            <Position>
              <LatitudeDegrees>43.0962674506008625030517578125</LatitudeDegrees>
              <LongitudeDegrees>-5.8007670007646083831787109375</LongitudeDegrees>
            </Position>
            <AltitudeMeters>190.1999969482421875</AltitudeMeters>
            <DistanceMeters>NAN</DistanceMeters>
          </Trackpoint>
          <Trackpoint>
            <Time>2019-10-04T12:59:44.000Z</Time>
            <Position>
              <LatitudeDegrees>43.09618413448333740234375</LatitudeDegrees>
              <LongitudeDegrees>-5.8006399311125278472900390625</LongitudeDegrees>
            </Position>
            <AltitudeMeters>190.1999969482421875</AltitudeMeters>
            <DistanceMeters>NAN</DistanceMeters>
          </Trackpoint>
          <Trackpoint>
            <Time>2019-10-04T12:59:51.000Z</Time>
            <Position>
              <LatitudeDegrees>43.0959885008633136749267578125</LatitudeDegrees>
              <LongitudeDegrees>-5.8003561198711395263671875</LongitudeDegrees>
            </Position>
            <AltitudeMeters>190.399993896484375</AltitudeMeters>
            <DistanceMeters>NAN</DistanceMeters>
          </Trackpoint>
          <Trackpoint>
            <Time>2019-10-04T13:00:02.000Z</Time>
            <Position>
              <LatitudeDegrees>43.09568013064563274383544921875</LatitudeDegrees>
              <LongitudeDegrees>-5.799872316420078277587890625</LongitudeDegrees>
            </Position>
            <AltitudeMeters>190.1999969482421875</AltitudeMeters>
            <DistanceMeters>NAN</DistanceMeters>
          </Trackpoint>
          <Trackpoint>
            <Time>2019-10-04T13:00:11.000Z</Time>
            <Position>
              <LatitudeDegrees>43.095434121787548065185546875</LatitudeDegrees>
              <LongitudeDegrees>-5.79949605278670787811279296875</LongitudeDegrees>
            </Position>
            <AltitudeMeters>190</AltitudeMeters>
            <DistanceMeters>NAN</DistanceMeters>
          </Trackpoint>
          <Trackpoint>
            <Time>2019-10-04T13:00:22.000Z</Time>
            <Position>
              <LatitudeDegrees>43.09511988423764705657958984375</LatitudeDegrees>
              <LongitudeDegrees>-5.79904510639607906341552734375</LongitudeDegrees>
            </Position>
            <AltitudeMeters>189.399993896484375</AltitudeMeters>
            <DistanceMeters>NAN</DistanceMeters>
          </Trackpoint>
          <Trackpoint>
            <Time>2019-10-04T13:00:28.000Z</Time>
            <Position>
              <LatitudeDegrees>43.09494554065167903900146484375</LatitudeDegrees>
              <LongitudeDegrees>-5.7988002710044384002685546875</LongitudeDegrees>
            </Position>
            <AltitudeMeters>189.600006103515625</AltitudeMeters>
            <DistanceMeters>NAN</DistanceMeters>
          </Trackpoint>
          <Trackpoint>
            <Time>2019-10-04T13:00:36.000Z</Time>
            <Position>
              <LatitudeDegrees>43.094702549278736114501953125</LatitudeDegrees>
              <LongitudeDegrees>-5.7985129393637180328369140625</LongitudeDegrees>
            </Position>
            <AltitudeMeters>189.399993896484375</AltitudeMeters>
            <DistanceMeters>NAN</DistanceMeters>
          </Trackpoint>
          <Trackpoint>
            <Time>2019-10-04T13:00:42.000Z</Time>
            <Position>
              <LatitudeDegrees>43.094511441886425018310546875</LatitudeDegrees>
              <LongitudeDegrees>-5.7983010448515415191650390625</LongitudeDegrees>
            </Position>
            <AltitudeMeters>188.399993896484375</AltitudeMeters>
            <DistanceMeters>NAN</DistanceMeters>
          </Trackpoint>
          <Trackpoint>
            <Time>2019-10-04T13:00:44.000Z</Time>
            <Position>
              <LatitudeDegrees>43.09444899670779705047607421875</LatitudeDegrees>
              <LongitudeDegrees>-5.79822552390396595001220703125</LongitudeDegrees>
            </Position>
            <AltitudeMeters>187.8000030517578125</AltitudeMeters>
            <DistanceMeters>NAN</DistanceMeters>
          </Trackpoint>
          <Trackpoint>
            <Time>2019-10-04T13:00:45.000Z</Time>
            <Position>
              <LatitudeDegrees>43.09441882185637950897216796875</LatitudeDegrees>
              <LongitudeDegrees>-5.79818931408226490020751953125</LongitudeDegrees>
            </Position>
            <AltitudeMeters>187.399993896484375</AltitudeMeters>
            <DistanceMeters>NAN</DistanceMeters>
          </Trackpoint>
          <Trackpoint>
            <Time>2019-10-04T13:00:49.000Z</Time>
            <Position>
              <LatitudeDegrees>43.09430566616356372833251953125</LatitudeDegrees>
              <LongitudeDegrees>-5.79804598353803157806396484375</LongitudeDegrees>
            </Position>
            <AltitudeMeters>186.399993896484375</AltitudeMeters>
            <DistanceMeters>NAN</DistanceMeters>
          </Trackpoint>
          <Trackpoint>
            <Time>2019-10-04T13:00:52.000Z</Time>
            <Position>
              <LatitudeDegrees>43.09422268532216548919677734375</LatitudeDegrees>
              <LongitudeDegrees>-5.797933749854564666748046875</LongitudeDegrees>
            </Position>
            <AltitudeMeters>185.600006103515625</AltitudeMeters>
            <DistanceMeters>NAN</DistanceMeters>
          </Trackpoint>
          <Trackpoint>
            <Time>2019-10-04T13:00:53.000Z</Time>
            <Position>
              <LatitudeDegrees>43.09419888071715831756591796875</LatitudeDegrees>
              <LongitudeDegrees>-5.7978970371186733245849609375</LongitudeDegrees>
            </Position>
            <AltitudeMeters>185.1999969482421875</AltitudeMeters>
            <DistanceMeters>NAN</DistanceMeters>
          </Trackpoint>
          <Trackpoint>
            <Time>2019-10-04T13:00:59.000Z</Time>
            <Position>
              <LatitudeDegrees>43.09405378997325897216796875</LatitudeDegrees>
              <LongitudeDegrees>-5.7976428978145122528076171875</LongitudeDegrees>
            </Position>
            <AltitudeMeters>184.1999969482421875</AltitudeMeters>
            <DistanceMeters>NAN</DistanceMeters>
          </Trackpoint>
          <Trackpoint>
            <Time>2019-10-04T13:01:09.000Z</Time>
            <Position>
              <LatitudeDegrees>43.09385639615356922149658203125</LatitudeDegrees>
              <LongitudeDegrees>-5.7971644587814807891845703125</LongitudeDegrees>
            </Position>
            <AltitudeMeters>184.1999969482421875</AltitudeMeters>
            <DistanceMeters>NAN</DistanceMeters>
          </Trackpoint>
          <Trackpoint>
            <Time>2019-10-04T13:01:17.000Z</Time>
            <Position>
              <LatitudeDegrees>43.0937666259706020355224609375</LatitudeDegrees>
              <LongitudeDegrees>-5.7967604510486125946044921875</LongitudeDegrees>
            </Position>
            <AltitudeMeters>184</AltitudeMeters>
            <DistanceMeters>NAN</DistanceMeters>
          </Trackpoint>
          <Trackpoint>
            <Time>2019-10-04T13:01:22.000Z</Time>
            <Position>
              <LatitudeDegrees>43.09372932650148868560791015625</LatitudeDegrees>
              <LongitudeDegrees>-5.79648946411907672882080078125</LongitudeDegrees>
            </Position>
            <AltitudeMeters>184</AltitudeMeters>
            <DistanceMeters>NAN</DistanceMeters>
          </Trackpoint>
          <Trackpoint>
            <Time>2019-10-04T13:01:25.000Z</Time>
            <Position>
              <LatitudeDegrees>43.0937124788761138916015625</LatitudeDegrees>
              <LongitudeDegrees>-5.7963152043521404266357421875</LongitudeDegrees>
            </Position>
            <AltitudeMeters>184</AltitudeMeters>
            <DistanceMeters>NAN</DistanceMeters>
          </Trackpoint>
          <Trackpoint>
            <Time>2019-10-04T13:01:34.000Z</Time>
            <Position>
              <LatitudeDegrees>43.09369303286075592041015625</LatitudeDegrees>
              <LongitudeDegrees>-5.79580684192478656768798828125</LongitudeDegrees>
            </Position>
            <AltitudeMeters>184</AltitudeMeters>
            <DistanceMeters>NAN</DistanceMeters>
          </Trackpoint>
          <Trackpoint>
            <Time>2019-10-04T13:01:45.000Z</Time>
            <Position>
              <LatitudeDegrees>43.09366847388446331024169921875</LatitudeDegrees>
              <LongitudeDegrees>-5.79521290026605129241943359375</LongitudeDegrees>
            </Position>
            <AltitudeMeters>183.8000030517578125</AltitudeMeters>
            <DistanceMeters>NAN</DistanceMeters>
          </Trackpoint>
          <Trackpoint>
            <Time>2019-10-04T13:01:49.000Z</Time>
            <Position>
              <LatitudeDegrees>43.09365539811551570892333984375</LatitudeDegrees>
              <LongitudeDegrees>-5.79499782063066959381103515625</LongitudeDegrees>
            </Position>
            <AltitudeMeters>183</AltitudeMeters>
            <DistanceMeters>NAN</DistanceMeters>
          </Trackpoint>
          <Trackpoint>
            <Time>2019-10-04T13:01:52.000Z</Time>
            <Position>
              <LatitudeDegrees>43.093644417822360992431640625</LatitudeDegrees>
              <LongitudeDegrees>-5.79483571462333202362060546875</LongitudeDegrees>
            </Position>
            <AltitudeMeters>182.8000030517578125</AltitudeMeters>
            <DistanceMeters>NAN</DistanceMeters>
          </Trackpoint>
          <Trackpoint>
            <Time>2019-10-04T13:01:59.000Z</Time>
            <Position>
              <LatitudeDegrees>43.09362740255892276763916015625</LatitudeDegrees>
              <LongitudeDegrees>-5.79446489922702312469482421875</LongitudeDegrees>
            </Position>
            <AltitudeMeters>181.8000030517578125</AltitudeMeters>
            <DistanceMeters>NAN</DistanceMeters>
          </Trackpoint>
          <Trackpoint>
            <Time>2019-10-04T13:02:02.000Z</Time>
            <Position>
              <LatitudeDegrees>43.09361164458096027374267578125</LatitudeDegrees>
              <LongitudeDegrees>-5.794301368296146392822265625</LongitudeDegrees>
            </Position>
            <AltitudeMeters>181.600006103515625</AltitudeMeters>
            <DistanceMeters>NAN</DistanceMeters>
          </Trackpoint>
          <Trackpoint>
            <Time>2019-10-04T13:02:03.000Z</Time>
            <Position>
              <LatitudeDegrees>43.09360410086810588836669921875</LatitudeDegrees>
              <LongitudeDegrees>-5.79424680210649967193603515625</LongitudeDegrees>
            </Position>
            <AltitudeMeters>181.399993896484375</AltitudeMeters>
            <DistanceMeters>NAN</DistanceMeters>
          </Trackpoint>
          <Trackpoint>
            <Time>2019-10-04T13:02:05.000Z</Time>
            <Position>
              <LatitudeDegrees>43.0935912765562534332275390625</LatitudeDegrees>
              <LongitudeDegrees>-5.7941372506320476531982421875</LongitudeDegrees>
            </Position>
            <AltitudeMeters>180.8000030517578125</AltitudeMeters>
            <DistanceMeters>NAN</DistanceMeters>
          </Trackpoint>
          <Trackpoint>
            <Time>2019-10-04T13:02:12.000Z</Time>
            <Position>
              <LatitudeDegrees>43.09352464042603969573974609375</LatitudeDegrees>
              <LongitudeDegrees>-5.79376702196896076202392578125</LongitudeDegrees>
            </Position>
            <AltitudeMeters>180.399993896484375</AltitudeMeters>
            <DistanceMeters>NAN</DistanceMeters>
          </Trackpoint>
          <Trackpoint>
            <Time>2019-10-04T13:02:16.000Z</Time>
            <Position>
              <LatitudeDegrees>43.09346814639866352081298828125</LatitudeDegrees>
              <LongitudeDegrees>-5.793567784130573272705078125</LongitudeDegrees>
            </Position>
            <AltitudeMeters>179.8000030517578125</AltitudeMeters>
            <DistanceMeters>NAN</DistanceMeters>
          </Trackpoint>
          <Trackpoint>
            <Time>2019-10-04T13:02:19.000Z</Time>
            <Position>
              <LatitudeDegrees>43.0934189446270465850830078125</LatitudeDegrees>
              <LongitudeDegrees>-5.79342663288116455078125</LongitudeDegrees>
            </Position>
            <AltitudeMeters>179.8000030517578125</AltitudeMeters>
            <DistanceMeters>NAN</DistanceMeters>
          </Trackpoint>
          <Trackpoint>
            <Time>2019-10-04T13:02:26.000Z</Time>
            <Position>
              <LatitudeDegrees>43.09327921830117702484130859375</LatitudeDegrees>
              <LongitudeDegrees>-5.793120861053466796875</LongitudeDegrees>
            </Position>
            <AltitudeMeters>179.1999969482421875</AltitudeMeters>
            <DistanceMeters>NAN</DistanceMeters>
          </Trackpoint>
          <Trackpoint>
            <Time>2019-10-04T13:02:35.000Z</Time>
            <Position>
              <LatitudeDegrees>43.0930504761636257171630859375</LatitudeDegrees>
              <LongitudeDegrees>-5.7927579246461391448974609375</LongitudeDegrees>
            </Position>
            <AltitudeMeters>179.1999969482421875</AltitudeMeters>
            <DistanceMeters>NAN</DistanceMeters>
          </Trackpoint>
          <Trackpoint>
            <Time>2019-10-04T13:02:39.000Z</Time>
            <Position>
              <LatitudeDegrees>43.09294469654560089111328125</LatitudeDegrees>
              <LongitudeDegrees>-5.7926166057586669921875</LongitudeDegrees>
            </Position>
            <AltitudeMeters>178.8000030517578125</AltitudeMeters>
            <DistanceMeters>NAN</DistanceMeters>
          </Trackpoint>
          <Trackpoint>
            <Time>2019-10-04T13:02:43.000Z</Time>
            <Position>
              <LatitudeDegrees>43.09283112175762653350830078125</LatitudeDegrees>
              <LongitudeDegrees>-5.79247185029089450836181640625</LongitudeDegrees>
            </Position>
            <AltitudeMeters>178.8000030517578125</AltitudeMeters>
            <DistanceMeters>NAN</DistanceMeters>
          </Trackpoint>
          <Trackpoint>
            <Time>2019-10-04T13:02:45.000Z</Time>
            <Position>
              <LatitudeDegrees>43.09277839958667755126953125</LatitudeDegrees>
              <LongitudeDegrees>-5.7924020290374755859375</LongitudeDegrees>
            </Position>
            <AltitudeMeters>178.600006103515625</AltitudeMeters>
            <DistanceMeters>NAN</DistanceMeters>
          </Trackpoint>
          <Trackpoint>
            <Time>2019-10-04T13:02:52.000Z</Time>
            <Position>
              <LatitudeDegrees>43.092598021030426025390625</LatitudeDegrees>
              <LongitudeDegrees>-5.79216037876904010772705078125</LongitudeDegrees>
            </Position>
            <AltitudeMeters>178.1999969482421875</AltitudeMeters>
            <DistanceMeters>NAN</DistanceMeters>
          </Trackpoint>
          <Trackpoint>
            <Time>2019-10-04T13:03:02.000Z</Time>
            <Position>
              <LatitudeDegrees>43.092339523136615753173828125</LatitudeDegrees>
              <LongitudeDegrees>-5.79180096276104450225830078125</LongitudeDegrees>
            </Position>
            <AltitudeMeters>178.399993896484375</AltitudeMeters>
            <DistanceMeters>NAN</DistanceMeters>
          </Trackpoint>
          <Trackpoint>
            <Time>2019-10-04T13:03:10.000Z</Time>
            <Position>
              <LatitudeDegrees>43.09215269051492214202880859375</LatitudeDegrees>
              <LongitudeDegrees>-5.7915489189326763153076171875</LongitudeDegrees>
            </Position>
            <AltitudeMeters>178.600006103515625</AltitudeMeters>
            <DistanceMeters>NAN</DistanceMeters>
          </Trackpoint>
          <Trackpoint>
            <Time>2019-10-04T13:03:18.000Z</Time>
            <Position>
              <LatitudeDegrees>43.09199251234531402587890625</LatitudeDegrees>
              <LongitudeDegrees>-5.79127558507025241851806640625</LongitudeDegrees>
            </Position>
            <AltitudeMeters>179.1999969482421875</AltitudeMeters>
            <DistanceMeters>NAN</DistanceMeters>
          </Trackpoint>
          <Trackpoint>
            <Time>2019-10-04T13:03:28.000Z</Time>
            <Position>
              <LatitudeDegrees>43.09180651791393756866455078125</LatitudeDegrees>
              <LongitudeDegrees>-5.79089219681918621063232421875</LongitudeDegrees>
            </Position>
            <AltitudeMeters>179.600006103515625</AltitudeMeters>
            <DistanceMeters>NAN</DistanceMeters>
          </Trackpoint>
          <Trackpoint>
            <Time>2019-10-04T13:03:33.000Z</Time>
            <Position>
              <LatitudeDegrees>43.09172026813030242919921875</LatitudeDegrees>
              <LongitudeDegrees>-5.79069103114306926727294921875</LongitudeDegrees>
            </Position>
            <AltitudeMeters>179.8000030517578125</AltitudeMeters>
            <DistanceMeters>NAN</DistanceMeters>
          </Trackpoint>
          <Trackpoint>
            <Time>2019-10-04T13:03:38.000Z</Time>
            <Position>
              <LatitudeDegrees>43.09163904748857021331787109375</LatitudeDegrees>
              <LongitudeDegrees>-5.790497995913028717041015625</LongitudeDegrees>
            </Position>
            <AltitudeMeters>179.8000030517578125</AltitudeMeters>
            <DistanceMeters>NAN</DistanceMeters>
          </Trackpoint>
          <Trackpoint>
            <Time>2019-10-04T13:03:48.000Z</Time>
            <Position>
              <LatitudeDegrees>43.09149093925952911376953125</LatitudeDegrees>
              <LongitudeDegrees>-5.79011217691004276275634765625</LongitudeDegrees>
            </Position>
            <AltitudeMeters>180.600006103515625</AltitudeMeters>
            <DistanceMeters>NAN</DistanceMeters>
          </Trackpoint>
          <Trackpoint>
            <Time>2019-10-04T13:03:56.000Z</Time>
            <Position>
              <LatitudeDegrees>43.09137267060577869415283203125</LatitudeDegrees>
              <LongitudeDegrees>-5.78978955745697021484375</LongitudeDegrees>
            </Position>
            <AltitudeMeters>181</AltitudeMeters>
            <DistanceMeters>NAN</DistanceMeters>
          </Trackpoint>
          <Trackpoint>
            <Time>2019-10-04T13:03:58.000Z</Time>
            <Position>
              <LatitudeDegrees>43.09134517796337604522705078125</LatitudeDegrees>
              <LongitudeDegrees>-5.789703391492366790771484375</LongitudeDegrees>
            </Position>
            <AltitudeMeters>180.8000030517578125</AltitudeMeters>
            <DistanceMeters>NAN</DistanceMeters>
          </Trackpoint>
          <Trackpoint>
            <Time>2019-10-04T13:04:08.000Z</Time>
            <Position>
              <LatitudeDegrees>43.091212995350360870361328125</LatitudeDegrees>
              <LongitudeDegrees>-5.7892598211765289306640625</LongitudeDegrees>
            </Position>
            <AltitudeMeters>181.1999969482421875</AltitudeMeters>
            <DistanceMeters>NAN</DistanceMeters>
          </Trackpoint>
          <Trackpoint>
            <Time>2019-10-04T13:04:17.000Z</Time>
            <Position>
              <LatitudeDegrees>43.09109388850629329681396484375</LatitudeDegrees>
              <LongitudeDegrees>-5.788844414055347442626953125</LongitudeDegrees>
            </Position>
            <AltitudeMeters>180.8000030517578125</AltitudeMeters>
            <DistanceMeters>NAN</DistanceMeters>
          </Trackpoint>
          <Trackpoint>
            <Time>2019-10-04T13:04:25.000Z</Time>
            <Position>
              <LatitudeDegrees>43.0909821577370166778564453125</LatitudeDegrees>
              <LongitudeDegrees>-5.7884739339351654052734375</LongitudeDegrees>
            </Position>
            <AltitudeMeters>181.1999969482421875</AltitudeMeters>
            <DistanceMeters>NAN</DistanceMeters>
          </Trackpoint>
          <Trackpoint>
            <Time>2019-10-04T13:04:26.000Z</Time>
            <Position>
              <LatitudeDegrees>43.09096790850162506103515625</LatitudeDegrees>
              <LongitudeDegrees>-5.7884264923632144927978515625</LongitudeDegrees>
            </Position>
            <AltitudeMeters>181.1999969482421875</AltitudeMeters>
            <DistanceMeters>NAN</DistanceMeters>
          </Trackpoint>
          <Trackpoint>
            <Time>2019-10-04T13:04:35.000Z</Time>
            <Position>
              <LatitudeDegrees>43.09079624712467193603515625</LatitudeDegrees>
              <LongitudeDegrees>-5.78802374191582202911376953125</LongitudeDegrees>
            </Position>
            <AltitudeMeters>180.8000030517578125</AltitudeMeters>
            <DistanceMeters>NAN</DistanceMeters>
          </Trackpoint>
          <Trackpoint>
            <Time>2019-10-04T13:04:43.000Z</Time>
            <Position>
              <LatitudeDegrees>43.090606816112995147705078125</LatitudeDegrees>
              <LongitudeDegrees>-5.78771159984171390533447265625</LongitudeDegrees>
            </Position>
            <AltitudeMeters>180.8000030517578125</AltitudeMeters>
            <DistanceMeters>NAN</DistanceMeters>
          </Trackpoint>
          <Trackpoint>
            <Time>2019-10-04T13:04:46.000Z</Time>
            <Position>
              <LatitudeDegrees>43.09053204953670501708984375</LatitudeDegrees>
              <LongitudeDegrees>-5.78759794123470783233642578125</LongitudeDegrees>
            </Position>
            <AltitudeMeters>181</AltitudeMeters>
            <DistanceMeters>NAN</DistanceMeters>
          </Trackpoint>
          <Trackpoint>
            <Time>2019-10-04T13:04:54.000Z</Time>
            <Position>
              <LatitudeDegrees>43.0903323926031589508056640625</LatitudeDegrees>
              <LongitudeDegrees>-5.7872976176440715789794921875</LongitudeDegrees>
            </Position>
            <AltitudeMeters>180.8000030517578125</AltitudeMeters>
            <DistanceMeters>NAN</DistanceMeters>
          </Trackpoint>
          <Trackpoint>
            <Time>2019-10-04T13:05:05.000Z</Time>
            <Position>
              <LatitudeDegrees>43.09004816226661205291748046875</LatitudeDegrees>
              <LongitudeDegrees>-5.78689486719667911529541015625</LongitudeDegrees>
            </Position>
            <AltitudeMeters>181</AltitudeMeters>
            <DistanceMeters>NAN</DistanceMeters>
          </Trackpoint>
          <Trackpoint>
            <Time>2019-10-04T13:05:13.000Z</Time>
            <Position>
              <LatitudeDegrees>43.0898512713611125946044921875</LatitudeDegrees>
              <LongitudeDegrees>-5.78661440871655941009521484375</LongitudeDegrees>
            </Position>
            <AltitudeMeters>180.8000030517578125</AltitudeMeters>
            <DistanceMeters>NAN</DistanceMeters>
          </Trackpoint>
          <Trackpoint>
            <Time>2019-10-04T13:05:22.000Z</Time>
            <Position>
              <LatitudeDegrees>43.08963795192539691925048828125</LatitudeDegrees>
              <LongitudeDegrees>-5.786297656595706939697265625</LongitudeDegrees>
            </Position>
            <AltitudeMeters>181.399993896484375</AltitudeMeters>
            <DistanceMeters>NAN</DistanceMeters>
          </Trackpoint>
          <Trackpoint>
            <Time>2019-10-04T13:05:29.000Z</Time>
            <Position>
              <LatitudeDegrees>43.08945422060787677764892578125</LatitudeDegrees>
              <LongitudeDegrees>-5.78606874682009220123291015625</LongitudeDegrees>
            </Position>
            <AltitudeMeters>181.399993896484375</AltitudeMeters>
            <DistanceMeters>NAN</DistanceMeters>
          </Trackpoint>
          <Trackpoint>
            <Time>2019-10-04T13:05:35.000Z</Time>
            <Position>
              <LatitudeDegrees>43.08927099220454692840576171875</LatitudeDegrees>
              <LongitudeDegrees>-5.78589105047285556793212890625</LongitudeDegrees>
            </Position>
            <AltitudeMeters>182.1999969482421875</AltitudeMeters>
            <DistanceMeters>NAN</DistanceMeters>
          </Trackpoint>
          <Trackpoint>
            <Time>2019-10-04T13:05:37.000Z</Time>
            <Position>
              <LatitudeDegrees>43.08920091949403285980224609375</LatitudeDegrees>
              <LongitudeDegrees>-5.7858304493129253387451171875</LongitudeDegrees>
            </Position>
            <AltitudeMeters>182.600006103515625</AltitudeMeters>
            <DistanceMeters>NAN</DistanceMeters>
          </Trackpoint>
          <Trackpoint>
            <Time>2019-10-04T13:05:45.000Z</Time>
            <Position>
              <LatitudeDegrees>43.0889104865491390228271484375</LatitudeDegrees>
              <LongitudeDegrees>-5.785659961402416229248046875</LongitudeDegrees>
            </Position>
            <AltitudeMeters>183</AltitudeMeters>
            <DistanceMeters>NAN</DistanceMeters>
          </Trackpoint>
          <Trackpoint>
            <Time>2019-10-04T13:05:49.000Z</Time>
            <Position>
              <LatitudeDegrees>43.088755421340465545654296875</LatitudeDegrees>
              <LongitudeDegrees>-5.7856128551065921783447265625</LongitudeDegrees>
            </Position>
            <AltitudeMeters>183.399993896484375</AltitudeMeters>
            <DistanceMeters>NAN</DistanceMeters>
          </Trackpoint>
          <Trackpoint>
            <Time>2019-10-04T13:05:53.000Z</Time>
            <Position>
              <LatitudeDegrees>43.08860178105533123016357421875</LatitudeDegrees>
              <LongitudeDegrees>-5.78559533692896366119384765625</LongitudeDegrees>
            </Position>
            <AltitudeMeters>183.399993896484375</AltitudeMeters>
            <DistanceMeters>NAN</DistanceMeters>
          </Trackpoint>
          <Trackpoint>
            <Time>2019-10-04T13:06:01.000Z</Time>
            <Position>
              <LatitudeDegrees>43.0883140303194522857666015625</LatitudeDegrees>
              <LongitudeDegrees>-5.78559483401477336883544921875</LongitudeDegrees>
            </Position>
            <AltitudeMeters>183.600006103515625</AltitudeMeters>
            <DistanceMeters>NAN</DistanceMeters>
          </Trackpoint>
          <Trackpoint>
            <Time>2019-10-04T13:06:09.000Z</Time>
            <Position>
              <LatitudeDegrees>43.08802493847906589508056640625</LatitudeDegrees>
              <LongitudeDegrees>-5.78561126254498958587646484375</LongitudeDegrees>
            </Position>
            <AltitudeMeters>183.600006103515625</AltitudeMeters>
            <DistanceMeters>NAN</DistanceMeters>
          </Trackpoint>
          <Trackpoint>
            <Time>2019-10-04T13:06:17.000Z</Time>
            <Position>
              <LatitudeDegrees>43.0877177417278289794921875</LatitudeDegrees>
              <LongitudeDegrees>-5.7855920679867267608642578125</LongitudeDegrees>
            </Position>
            <AltitudeMeters>183.399993896484375</AltitudeMeters>
            <DistanceMeters>NAN</DistanceMeters>
          </Trackpoint>
          <Trackpoint>
            <Time>2019-10-04T13:06:24.000Z</Time>
            <Position>
              <LatitudeDegrees>43.0874573998153209686279296875</LatitudeDegrees>
              <LongitudeDegrees>-5.78548033721745014190673828125</LongitudeDegrees>
            </Position>
            <AltitudeMeters>183.8000030517578125</AltitudeMeters>
            <DistanceMeters>NAN</DistanceMeters>
          </Trackpoint>
          <Trackpoint>
            <Time>2019-10-04T13:06:29.000Z</Time>
            <Position>
              <LatitudeDegrees>43.0872820504009723663330078125</LatitudeDegrees>
              <LongitudeDegrees>-5.78539182431995868682861328125</LongitudeDegrees>
            </Position>
            <AltitudeMeters>184</AltitudeMeters>
            <DistanceMeters>NAN</DistanceMeters>
          </Trackpoint>
          <Trackpoint>
            <Time>2019-10-04T13:06:34.000Z</Time>
            <Position>
              <LatitudeDegrees>43.08711919002234935760498046875</LatitudeDegrees>
              <LongitudeDegrees>-5.7852718792855739593505859375</LongitudeDegrees>
            </Position>
            <AltitudeMeters>184.399993896484375</AltitudeMeters>
            <DistanceMeters>NAN</DistanceMeters>
          </Trackpoint>
          <Trackpoint>
            <Time>2019-10-04T13:06:35.000Z</Time>
            <Position>
              <LatitudeDegrees>43.0870855785906314849853515625</LatitudeDegrees>
              <LongitudeDegrees>-5.785243213176727294921875</LongitudeDegrees>
            </Position>
            <AltitudeMeters>184.600006103515625</AltitudeMeters>
            <DistanceMeters>NAN</DistanceMeters>
          </Trackpoint>
          <Trackpoint>
            <Time>2019-10-04T13:06:42.000Z</Time>
            <Position>
              <LatitudeDegrees>43.08684158138930797576904296875</LatitudeDegrees>
              <LongitudeDegrees>-5.78506543301045894622802734375</LongitudeDegrees>
            </Position>
            <AltitudeMeters>185</AltitudeMeters>
            <DistanceMeters>NAN</DistanceMeters>
          </Trackpoint>
          <Trackpoint>
            <Time>2019-10-04T13:06:50.000Z</Time>
            <Position>
              <LatitudeDegrees>43.08653832413256168365478515625</LatitudeDegrees>
              <LongitudeDegrees>-5.78490433283150196075439453125</LongitudeDegrees>
            </Position>
            <AltitudeMeters>185.600006103515625</AltitudeMeters>
            <DistanceMeters>NAN</DistanceMeters>
          </Trackpoint>
          <Trackpoint>
            <Time>2019-10-04T13:06:52.000Z</Time>
            <Position>
              <LatitudeDegrees>43.08646154589951038360595703125</LatitudeDegrees>
              <LongitudeDegrees>-5.7848889939486980438232421875</LongitudeDegrees>
            </Position>
            <AltitudeMeters>185.8000030517578125</AltitudeMeters>
            <DistanceMeters>NAN</DistanceMeters>
          </Trackpoint>
          <Trackpoint>
            <Time>2019-10-04T13:07:00.000Z</Time>
            <Position>
              <LatitudeDegrees>43.08615929447114467620849609375</LatitudeDegrees>
              <LongitudeDegrees>-5.7848638482391834259033203125</LongitudeDegrees>
            </Position>
            <AltitudeMeters>185.8000030517578125</AltitudeMeters>
            <DistanceMeters>NAN</DistanceMeters>
          </Trackpoint>
          <Trackpoint>
            <Time>2019-10-04T13:07:09.000Z</Time>
            <Position>
              <LatitudeDegrees>43.08584027923643589019775390625</LatitudeDegrees>
              <LongitudeDegrees>-5.78482143580913543701171875</LongitudeDegrees>
            </Position>
            <AltitudeMeters>186.399993896484375</AltitudeMeters>
            <DistanceMeters>NAN</DistanceMeters>
          </Trackpoint>
          <Trackpoint>
            <Time>2019-10-04T13:07:12.000Z</Time>
            <Position>
              <LatitudeDegrees>43.08574908412992954254150390625</LatitudeDegrees>
              <LongitudeDegrees>-5.78479637391865253448486328125</LongitudeDegrees>
            </Position>
            <AltitudeMeters>186.600006103515625</AltitudeMeters>
            <DistanceMeters>NAN</DistanceMeters>
          </Trackpoint>
          <Trackpoint>
            <Time>2019-10-04T13:07:15.000Z</Time>
            <Position>
              <LatitudeDegrees>43.08565554209053516387939453125</LatitudeDegrees>
              <LongitudeDegrees>-5.7847622595727443695068359375</LongitudeDegrees>
            </Position>
            <AltitudeMeters>186.8000030517578125</AltitudeMeters>
            <DistanceMeters>NAN</DistanceMeters>
          </Trackpoint>
          <Trackpoint>
            <Time>2019-10-04T13:07:23.000Z</Time>
            <Position>
              <LatitudeDegrees>43.08539771474897861480712890625</LatitudeDegrees>
              <LongitudeDegrees>-5.78462923876941204071044921875</LongitudeDegrees>
            </Position>
            <AltitudeMeters>187</AltitudeMeters>
            <DistanceMeters>NAN</DistanceMeters>
          </Trackpoint>
          <Trackpoint>
            <Time>2019-10-04T13:07:27.000Z</Time>
            <Position>
              <LatitudeDegrees>43.085278607904911041259765625</LatitudeDegrees>
              <LongitudeDegrees>-5.7845533825457096099853515625</LongitudeDegrees>
            </Position>
            <AltitudeMeters>187.399993896484375</AltitudeMeters>
            <DistanceMeters>NAN</DistanceMeters>
          </Trackpoint>
          <Trackpoint>
            <Time>2019-10-04T13:07:32.000Z</Time>
            <Position>
              <LatitudeDegrees>43.085135780274868011474609375</LatitudeDegrees>
              <LongitudeDegrees>-5.78444684855639934539794921875</LongitudeDegrees>
            </Position>
            <AltitudeMeters>187.600006103515625</AltitudeMeters>
            <DistanceMeters>NAN</DistanceMeters>
          </Trackpoint>
          <Trackpoint>
            <Time>2019-10-04T13:07:33.000Z</Time>
            <Position>
              <LatitudeDegrees>43.08510619215667247772216796875</LatitudeDegrees>
              <LongitudeDegrees>-5.78442488797008991241455078125</LongitudeDegrees>
            </Position>
            <AltitudeMeters>187.8000030517578125</AltitudeMeters>
            <DistanceMeters>NAN</DistanceMeters>
          </Trackpoint>
          <Trackpoint>
            <Time>2019-10-04T13:07:41.000Z</Time>
            <Position>
              <LatitudeDegrees>43.08487124741077423095703125</LatitudeDegrees>
              <LongitudeDegrees>-5.7842435874044895172119140625</LongitudeDegrees>
            </Position>
            <AltitudeMeters>188.600006103515625</AltitudeMeters>
            <DistanceMeters>NAN</DistanceMeters>
          </Trackpoint>
          <Trackpoint>
            <Time>2019-10-04T13:07:48.000Z</Time>
            <Position>
              <LatitudeDegrees>43.084680475294589996337890625</LatitudeDegrees>
              <LongitudeDegrees>-5.78408089466392993927001953125</LongitudeDegrees>
            </Position>
            <AltitudeMeters>189</AltitudeMeters>
            <DistanceMeters>NAN</DistanceMeters>
          </Trackpoint>
          <Trackpoint>
            <Time>2019-10-04T13:07:51.000Z</Time>
            <Position>
              <LatitudeDegrees>43.08459824882447719573974609375</LatitudeDegrees>
              <LongitudeDegrees>-5.7840035296976566314697265625</LongitudeDegrees>
            </Position>
            <AltitudeMeters>189.1999969482421875</AltitudeMeters>
            <DistanceMeters>NAN</DistanceMeters>
          </Trackpoint>
          <Trackpoint>
            <Time>2019-10-04T13:07:58.000Z</Time>
            <Position>
              <LatitudeDegrees>43.08440160937607288360595703125</LatitudeDegrees>
              <LongitudeDegrees>-5.78383111394941806793212890625</LongitudeDegrees>
            </Position>
            <AltitudeMeters>189.600006103515625</AltitudeMeters>
            <DistanceMeters>NAN</DistanceMeters>
          </Trackpoint>
          <Trackpoint>
            <Time>2019-10-04T13:08:05.000Z</Time>
            <Position>
              <LatitudeDegrees>43.0842028744518756866455078125</LatitudeDegrees>
              <LongitudeDegrees>-5.7836665771901607513427734375</LongitudeDegrees>
            </Position>
            <AltitudeMeters>190</AltitudeMeters>
            <DistanceMeters>NAN</DistanceMeters>
          </Trackpoint>
          <Trackpoint>
            <Time>2019-10-04T13:08:09.000Z</Time>
            <Position>
              <LatitudeDegrees>43.08408879674971103668212890625</LatitudeDegrees>
              <LongitudeDegrees>-5.7835720293223857879638671875</LongitudeDegrees>
            </Position>
            <AltitudeMeters>189.600006103515625</AltitudeMeters>
            <DistanceMeters>NAN</DistanceMeters>
          </Trackpoint>
          <Trackpoint>
            <Time>2019-10-04T13:08:19.000Z</Time>
            <Position>
              <LatitudeDegrees>43.08380984701216220855712890625</LatitudeDegrees>
              <LongitudeDegrees>-5.78333272598683834075927734375</LongitudeDegrees>
            </Position>
            <AltitudeMeters>189.600006103515625</AltitudeMeters>
            <DistanceMeters>NAN</DistanceMeters>
          </Trackpoint>
          <Trackpoint>
            <Time>2019-10-04T13:08:28.000Z</Time>
            <Position>
              <LatitudeDegrees>43.083545900881290435791015625</LatitudeDegrees>
              <LongitudeDegrees>-5.783139355480670928955078125</LongitudeDegrees>
            </Position>
            <AltitudeMeters>189.600006103515625</AltitudeMeters>
            <DistanceMeters>NAN</DistanceMeters>
          </Trackpoint>
          <Trackpoint>
            <Time>2019-10-04T13:08:36.000Z</Time>
            <Position>
              <LatitudeDegrees>43.08330341242253780364990234375</LatitudeDegrees>
              <LongitudeDegrees>-5.7829909957945346832275390625</LongitudeDegrees>
            </Position>
            <AltitudeMeters>190</AltitudeMeters>
            <DistanceMeters>NAN</DistanceMeters>
          </Trackpoint>
          <Trackpoint>
            <Time>2019-10-04T13:08:44.000Z</Time>
            <Position>
              <LatitudeDegrees>43.08305664919316768646240234375</LatitudeDegrees>
              <LongitudeDegrees>-5.78287758864462375640869140625</LongitudeDegrees>
            </Position>
            <AltitudeMeters>190</AltitudeMeters>
            <DistanceMeters>NAN</DistanceMeters>
          </Trackpoint>
          <Trackpoint>
            <Time>2019-10-04T13:08:52.000Z</Time>
            <Position>
              <LatitudeDegrees>43.08279387652873992919921875</LatitudeDegrees>
              <LongitudeDegrees>-5.78280265443027019500732421875</LongitudeDegrees>
            </Position>
            <AltitudeMeters>189.8000030517578125</AltitudeMeters>
            <DistanceMeters>NAN</DistanceMeters>
          </Trackpoint>
          <Trackpoint>
            <Time>2019-10-04T13:09:01.000Z</Time>
            <Position>
              <LatitudeDegrees>43.08250847272574901580810546875</LatitudeDegrees>
              <LongitudeDegrees>-5.78271749429404735565185546875</LongitudeDegrees>
            </Position>
            <AltitudeMeters>189</AltitudeMeters>
            <DistanceMeters>NAN</DistanceMeters>
          </Trackpoint>
          <Trackpoint>
            <Time>2019-10-04T13:09:02.000Z</Time>
            <Position>
              <LatitudeDegrees>43.08247762732207775115966796875</LatitudeDegrees>
              <LongitudeDegrees>-5.78270852565765380859375</LongitudeDegrees>
            </Position>
            <AltitudeMeters>188.8000030517578125</AltitudeMeters>
            <DistanceMeters>NAN</DistanceMeters>
          </Trackpoint>
          <Trackpoint>
            <Time>2019-10-04T13:09:12.000Z</Time>
            <Position>
              <LatitudeDegrees>43.0821529962122440338134765625</LatitudeDegrees>
              <LongitudeDegrees>-5.7825866527855396270751953125</LongitudeDegrees>
            </Position>
            <AltitudeMeters>188.399993896484375</AltitudeMeters>
            <DistanceMeters>NAN</DistanceMeters>
          </Trackpoint>
          <Trackpoint>
            <Time>2019-10-04T13:09:17.000Z</Time>
            <Position>
              <LatitudeDegrees>43.08200119994580745697021484375</LatitudeDegrees>
              <LongitudeDegrees>-5.78248565085232257843017578125</LongitudeDegrees>
            </Position>
            <AltitudeMeters>187.8000030517578125</AltitudeMeters>
            <DistanceMeters>NAN</DistanceMeters>
          </Trackpoint>
          <Trackpoint>
            <Time>2019-10-04T13:09:21.000Z</Time>
            <Position>
              <LatitudeDegrees>43.0818841047585010528564453125</LatitudeDegrees>
              <LongitudeDegrees>-5.78239294700324535369873046875</LongitudeDegrees>
            </Position>
            <AltitudeMeters>187.600006103515625</AltitudeMeters>
            <DistanceMeters>NAN</DistanceMeters>
          </Trackpoint>
          <Trackpoint>
            <Time>2019-10-04T13:09:30.000Z</Time>
            <Position>
              <LatitudeDegrees>43.0816487409174442291259765625</LatitudeDegrees>
              <LongitudeDegrees>-5.7821296714246273040771484375</LongitudeDegrees>
            </Position>
            <AltitudeMeters>187.399993896484375</AltitudeMeters>
            <DistanceMeters>NAN</DistanceMeters>
          </Trackpoint>
          <Trackpoint>
            <Time>2019-10-04T13:09:38.000Z</Time>
            <Position>
              <LatitudeDegrees>43.08147800154983997344970703125</LatitudeDegrees>
              <LongitudeDegrees>-5.781831108033657073974609375</LongitudeDegrees>
            </Position>
            <AltitudeMeters>187.600006103515625</AltitudeMeters>
            <DistanceMeters>NAN</DistanceMeters>
          </Trackpoint>
          <Trackpoint>
            <Time>2019-10-04T13:09:45.000Z</Time>
            <Position>
              <LatitudeDegrees>43.0813543684780597686767578125</LatitudeDegrees>
              <LongitudeDegrees>-5.78154821880161762237548828125</LongitudeDegrees>
            </Position>
            <AltitudeMeters>188</AltitudeMeters>
            <DistanceMeters>NAN</DistanceMeters>
          </Trackpoint>
          <Trackpoint>
            <Time>2019-10-04T13:09:47.000Z</Time>
            <Position>
              <LatitudeDegrees>43.08132142759859561920166015625</LatitudeDegrees>
              <LongitudeDegrees>-5.7814706861972808837890625</LongitudeDegrees>
            </Position>
            <AltitudeMeters>187.8000030517578125</AltitudeMeters>
            <DistanceMeters>NAN</DistanceMeters>
          </Trackpoint>
          <Trackpoint>
            <Time>2019-10-04T13:09:53.000Z</Time>
            <Position>
              <LatitudeDegrees>43.08121631853282451629638671875</LatitudeDegrees>
              <LongitudeDegrees>-5.78117723576724529266357421875</LongitudeDegrees>
            </Position>
            <AltitudeMeters>187.8000030517578125</AltitudeMeters>
            <DistanceMeters>NAN</DistanceMeters>
          </Trackpoint>
          <Trackpoint>
            <Time>2019-10-04T13:09:56.000Z</Time>
            <Position>
              <LatitudeDegrees>43.08116368018090724945068359375</LatitudeDegrees>
              <LongitudeDegrees>-5.78103122301399707794189453125</LongitudeDegrees>
            </Position>
            <AltitudeMeters>188</AltitudeMeters>
            <DistanceMeters>NAN</DistanceMeters>
          </Trackpoint>
          <Trackpoint>
            <Time>2019-10-04T13:10:04.000Z</Time>
            <Position>
              <LatitudeDegrees>43.08102521114051342010498046875</LatitudeDegrees>
              <LongitudeDegrees>-5.78061296604573726654052734375</LongitudeDegrees>
            </Position>
            <AltitudeMeters>188</AltitudeMeters>
            <DistanceMeters>NAN</DistanceMeters>
          </Trackpoint>
          <Trackpoint>
            <Time>2019-10-04T13:10:10.000Z</Time>
            <Position>
              <LatitudeDegrees>43.08091943152248859405517578125</LatitudeDegrees>
              <LongitudeDegrees>-5.780296884477138519287109375</LongitudeDegrees>
            </Position>
            <AltitudeMeters>188</AltitudeMeters>
            <DistanceMeters>NAN</DistanceMeters>
          </Trackpoint>
          <Trackpoint>
            <Time>2019-10-04T13:10:14.000Z</Time>
            <Position>
              <LatitudeDegrees>43.0808432400226593017578125</LatitudeDegrees>
              <LongitudeDegrees>-5.7800732553005218505859375</LongitudeDegrees>
            </Position>
            <AltitudeMeters>187.600006103515625</AltitudeMeters>
            <DistanceMeters>NAN</DistanceMeters>
          </Trackpoint>
          <Trackpoint>
            <Time>2019-10-04T13:10:21.000Z</Time>
            <Position>
              <LatitudeDegrees>43.0807257257401943206787109375</LatitudeDegrees>
              <LongitudeDegrees>-5.77970034442842006683349609375</LongitudeDegrees>
            </Position>
            <AltitudeMeters>188.1999969482421875</AltitudeMeters>
            <DistanceMeters>NAN</DistanceMeters>
          </Trackpoint>
          <Trackpoint>
            <Time>2019-10-04T13:10:29.000Z</Time>
            <Position>
              <LatitudeDegrees>43.08056873269379138946533203125</LatitudeDegrees>
              <LongitudeDegrees>-5.77928191982209682464599609375</LongitudeDegrees>
            </Position>
            <AltitudeMeters>188.1999969482421875</AltitudeMeters>
            <DistanceMeters>NAN</DistanceMeters>
          </Trackpoint>
          <Trackpoint>
            <Time>2019-10-04T13:10:34.000Z</Time>
            <Position>
              <LatitudeDegrees>43.08046462945640087127685546875</LatitudeDegrees>
              <LongitudeDegrees>-5.7790354080498218536376953125</LongitudeDegrees>
            </Position>
            <AltitudeMeters>188.600006103515625</AltitudeMeters>
            <DistanceMeters>NAN</DistanceMeters>
          </Trackpoint>
          <Trackpoint>
            <Time>2019-10-04T13:10:35.000Z</Time>
            <Position>
              <LatitudeDegrees>43.0804435908794403076171875</LatitudeDegrees>
              <LongitudeDegrees>-5.77898603864014148712158203125</LongitudeDegrees>
            </Position>
            <AltitudeMeters>189</AltitudeMeters>
            <DistanceMeters>NAN</DistanceMeters>
          </Trackpoint>
          <Trackpoint>
            <Time>2019-10-04T13:10:40.000Z</Time>
            <Position>
              <LatitudeDegrees>43.0803284235298633575439453125</LatitudeDegrees>
              <LongitudeDegrees>-5.77875251881778240203857421875</LongitudeDegrees>
            </Position>
            <AltitudeMeters>189.600006103515625</AltitudeMeters>
            <DistanceMeters>NAN</DistanceMeters>
          </Trackpoint>
          <Trackpoint>
            <Time>2019-10-04T13:10:50.000Z</Time>
            <Position>
              <LatitudeDegrees>43.08010890148580074310302734375</LatitudeDegrees>
              <LongitudeDegrees>-5.77830978669226169586181640625</LongitudeDegrees>
            </Position>
            <AltitudeMeters>189.8000030517578125</AltitudeMeters>
            <DistanceMeters>NAN</DistanceMeters>
          </Trackpoint>
          <Trackpoint>
            <Time>2019-10-04T13:10:56.000Z</Time>
            <Position>
              <LatitudeDegrees>43.07997831143438816070556640625</LatitudeDegrees>
              <LongitudeDegrees>-5.77806939370930194854736328125</LongitudeDegrees>
            </Position>
            <AltitudeMeters>189.8000030517578125</AltitudeMeters>
            <DistanceMeters>NAN</DistanceMeters>
          </Trackpoint>
          <Trackpoint>
            <Time>2019-10-04T13:10:57.000Z</Time>
            <Position>
              <LatitudeDegrees>43.0799589492380619049072265625</LatitudeDegrees>
              <LongitudeDegrees>-5.77802144922316074371337890625</LongitudeDegrees>
            </Position>
            <AltitudeMeters>190.1999969482421875</AltitudeMeters>
            <DistanceMeters>NAN</DistanceMeters>
          </Trackpoint>
          <Trackpoint>
            <Time>2019-10-04T13:10:58.000Z</Time>
            <Position>
              <LatitudeDegrees>43.0799391679465770721435546875</LatitudeDegrees>
              <LongitudeDegrees>-5.77797803096473217010498046875</LongitudeDegrees>
            </Position>
            <AltitudeMeters>190</AltitudeMeters>
            <DistanceMeters>NAN</DistanceMeters>
          </Trackpoint>
          <Trackpoint>
            <Time>2019-10-04T13:11:02.000Z</Time>
            <Position>
              <LatitudeDegrees>43.07986213825643062591552734375</LatitudeDegrees>
              <LongitudeDegrees>-5.777792371809482574462890625</LongitudeDegrees>
            </Position>
            <AltitudeMeters>190.399993896484375</AltitudeMeters>
            <DistanceMeters>NAN</DistanceMeters>
          </Trackpoint>
          <Trackpoint>
            <Time>2019-10-04T13:11:04.000Z</Time>
            <Position>
              <LatitudeDegrees>43.079814612865447998046875</LatitudeDegrees>
              <LongitudeDegrees>-5.77771500684320926666259765625</LongitudeDegrees>
            </Position>
            <AltitudeMeters>190.1999969482421875</AltitudeMeters>
            <DistanceMeters>NAN</DistanceMeters>
          </Trackpoint>
          <Trackpoint>
            <Time>2019-10-04T13:11:09.000Z</Time>
            <Position>
              <LatitudeDegrees>43.0797118507325649261474609375</LatitudeDegrees>
              <LongitudeDegrees>-5.777518451213836669921875</LongitudeDegrees>
            </Position>
            <AltitudeMeters>190.8000030517578125</AltitudeMeters>
            <DistanceMeters>NAN</DistanceMeters>
          </Trackpoint>
          <Trackpoint>
            <Time>2019-10-04T13:11:12.000Z</Time>
            <Position>
              <LatitudeDegrees>43.07964496314525604248046875</LatitudeDegrees>
              <LongitudeDegrees>-5.77738492749631404876708984375</LongitudeDegrees>
            </Position>
            <AltitudeMeters>191</AltitudeMeters>
            <DistanceMeters>NAN</DistanceMeters>
          </Trackpoint>
          <Trackpoint>
            <Time>2019-10-04T13:11:15.000Z</Time>
            <Position>
              <LatitudeDegrees>43.07959006167948246002197265625</LatitudeDegrees>
              <LongitudeDegrees>-5.7772664912045001983642578125</LongitudeDegrees>
            </Position>
            <AltitudeMeters>191.1999969482421875</AltitudeMeters>
            <DistanceMeters>NAN</DistanceMeters>
          </Trackpoint>
          <Trackpoint>
            <Time>2019-10-04T13:11:20.000Z</Time>
            <Position>
              <LatitudeDegrees>43.079499788582324981689453125</LatitudeDegrees>
              <LongitudeDegrees>-5.7770844362676143646240234375</LongitudeDegrees>
            </Position>
            <AltitudeMeters>191.1999969482421875</AltitudeMeters>
            <DistanceMeters>NAN</DistanceMeters>
          </Trackpoint>
          <Trackpoint>
            <Time>2019-10-04T13:11:30.000Z</Time>
            <Position>
              <LatitudeDegrees>43.07932536117732524871826171875</LatitudeDegrees>
              <LongitudeDegrees>-5.77670951373875141143798828125</LongitudeDegrees>
            </Position>
            <AltitudeMeters>192</AltitudeMeters>
            <DistanceMeters>NAN</DistanceMeters>
          </Trackpoint>
          <Trackpoint>
            <Time>2019-10-04T13:11:37.000Z</Time>
            <Position>
              <LatitudeDegrees>43.07920482940971851348876953125</LatitudeDegrees>
              <LongitudeDegrees>-5.776388235390186309814453125</LongitudeDegrees>
            </Position>
            <AltitudeMeters>192.1999969482421875</AltitudeMeters>
            <DistanceMeters>NAN</DistanceMeters>
          </Trackpoint>
          <Trackpoint>
            <Time>2019-10-04T13:11:38.000Z</Time>
            <Position>
              <LatitudeDegrees>43.07918705977499485015869140625</LatitudeDegrees>
              <LongitudeDegrees>-5.77634255401790142059326171875</LongitudeDegrees>
            </Position>
            <AltitudeMeters>192.1999969482421875</AltitudeMeters>
            <DistanceMeters>NAN</DistanceMeters>
          </Trackpoint>
          <Trackpoint>
            <Time>2019-10-04T13:11:45.000Z</Time>
            <Position>
              <LatitudeDegrees>43.07906133122742176055908203125</LatitudeDegrees>
              <LongitudeDegrees>-5.77601800672709941864013671875</LongitudeDegrees>
            </Position>
            <AltitudeMeters>192.600006103515625</AltitudeMeters>
            <DistanceMeters>NAN</DistanceMeters>
          </Trackpoint>
          <Trackpoint>
            <Time>2019-10-04T13:11:50.000Z</Time>
            <Position>
              <LatitudeDegrees>43.07896745391190052032470703125</LatitudeDegrees>
              <LongitudeDegrees>-5.77577208168804645538330078125</LongitudeDegrees>
            </Position>
            <AltitudeMeters>193.1999969482421875</AltitudeMeters>
            <DistanceMeters>NAN</DistanceMeters>
          </Trackpoint>
          <Trackpoint>
            <Time>2019-10-04T13:11:51.000Z</Time>
            <Position>
              <LatitudeDegrees>43.0789477564394474029541015625</LatitudeDegrees>
              <LongitudeDegrees>-5.7757205329835414886474609375</LongitudeDegrees>
            </Position>
            <AltitudeMeters>193.399993896484375</AltitudeMeters>
            <DistanceMeters>NAN</DistanceMeters>
          </Trackpoint>
          <Trackpoint>
            <Time>2019-10-04T13:12:01.000Z</Time>
            <Position>
              <LatitudeDegrees>43.07874265126883983612060546875</LatitudeDegrees>
              <LongitudeDegrees>-5.775222815573215484619140625</LongitudeDegrees>
            </Position>
            <AltitudeMeters>193.8000030517578125</AltitudeMeters>
            <DistanceMeters>NAN</DistanceMeters>
          </Trackpoint>
          <Trackpoint>
            <Time>2019-10-04T13:12:10.000Z</Time>
            <Position>
              <LatitudeDegrees>43.07855355553328990936279296875</LatitudeDegrees>
              <LongitudeDegrees>-5.7748377509415149688720703125</LongitudeDegrees>
            </Position>
            <AltitudeMeters>193.8000030517578125</AltitudeMeters>
            <DistanceMeters>NAN</DistanceMeters>
          </Trackpoint>
          <Trackpoint>
            <Time>2019-10-04T13:12:19.000Z</Time>
            <Position>
              <LatitudeDegrees>43.078367896378040313720703125</LatitudeDegrees>
              <LongitudeDegrees>-5.7744940929114818572998046875</LongitudeDegrees>
            </Position>
            <AltitudeMeters>194.399993896484375</AltitudeMeters>
            <DistanceMeters>NAN</DistanceMeters>
          </Trackpoint>
          <Trackpoint>
            <Time>2019-10-04T13:12:20.000Z</Time>
            <Position>
              <LatitudeDegrees>43.07835272513329982757568359375</LatitudeDegrees>
              <LongitudeDegrees>-5.77445226721465587615966796875</LongitudeDegrees>
            </Position>
            <AltitudeMeters>194.1999969482421875</AltitudeMeters>
            <DistanceMeters>NAN</DistanceMeters>
          </Trackpoint>
          <Trackpoint>
            <Time>2019-10-04T13:12:28.000Z</Time>
            <Position>
              <LatitudeDegrees>43.0782602727413177490234375</LatitudeDegrees>
              <LongitudeDegrees>-5.77410693280398845672607421875</LongitudeDegrees>
            </Position>
            <AltitudeMeters>194</AltitudeMeters>
            <DistanceMeters>NAN</DistanceMeters>
          </Trackpoint>
          <Trackpoint>
            <Time>2019-10-04T13:12:35.000Z</Time>
            <Position>
              <LatitudeDegrees>43.0782215483486652374267578125</LatitudeDegrees>
              <LongitudeDegrees>-5.77375120483338832855224609375</LongitudeDegrees>
            </Position>
            <AltitudeMeters>193.8000030517578125</AltitudeMeters>
            <DistanceMeters>NAN</DistanceMeters>
          </Trackpoint>
          <Trackpoint>
            <Time>2019-10-04T13:12:43.000Z</Time>
            <Position>
              <LatitudeDegrees>43.07823286391794681549072265625</LatitudeDegrees>
              <LongitudeDegrees>-5.77334233559668064117431640625</LongitudeDegrees>
            </Position>
            <AltitudeMeters>193.8000030517578125</AltitudeMeters>
            <DistanceMeters>NAN</DistanceMeters>
          </Trackpoint>
          <Trackpoint>
            <Time>2019-10-04T13:12:51.000Z</Time>
            <Position>
              <LatitudeDegrees>43.07828986085951328277587890625</LatitudeDegrees>
              <LongitudeDegrees>-5.772958695888519287109375</LongitudeDegrees>
            </Position>
            <AltitudeMeters>193.600006103515625</AltitudeMeters>
            <DistanceMeters>NAN</DistanceMeters>
          </Trackpoint>
          <Trackpoint>
            <Time>2019-10-04T13:13:03.000Z</Time>
            <Position>
              <LatitudeDegrees>43.0783626995980739593505859375</LatitudeDegrees>
              <LongitudeDegrees>-5.77240590937435626983642578125</LongitudeDegrees>
            </Position>
            <AltitudeMeters>193.600006103515625</AltitudeMeters>
            <DistanceMeters>NAN</DistanceMeters>
          </Trackpoint>
          <Trackpoint>
            <Time>2019-10-04T13:13:06.000Z</Time>
            <Position>
              <LatitudeDegrees>43.0783787928521633148193359375</LatitudeDegrees>
              <LongitudeDegrees>-5.772277079522609710693359375</LongitudeDegrees>
            </Position>
            <AltitudeMeters>193.1999969482421875</AltitudeMeters>
            <DistanceMeters>NAN</DistanceMeters>
          </Trackpoint>
          <Trackpoint>
            <Time>2019-10-04T13:13:10.000Z</Time>
            <Position>
              <LatitudeDegrees>43.07839647866785526275634765625</LatitudeDegrees>
              <LongitudeDegrees>-5.77211388386785984039306640625</LongitudeDegrees>
            </Position>
            <AltitudeMeters>193.8000030517578125</AltitudeMeters>
            <DistanceMeters>NAN</DistanceMeters>
          </Trackpoint>
          <Trackpoint>
            <Time>2019-10-04T13:13:16.000Z</Time>
            <Position>
              <LatitudeDegrees>43.07840871624648571014404296875</LatitudeDegrees>
              <LongitudeDegrees>-5.77184532769024372100830078125</LongitudeDegrees>
            </Position>
            <AltitudeMeters>193.399993896484375</AltitudeMeters>
            <DistanceMeters>NAN</DistanceMeters>
          </Trackpoint>
          <Trackpoint>
            <Time>2019-10-04T13:13:22.000Z</Time>
            <Position>
              <LatitudeDegrees>43.07832531630992889404296875</LatitudeDegrees>
              <LongitudeDegrees>-5.77158607542514801025390625</LongitudeDegrees>
            </Position>
            <AltitudeMeters>193.1999969482421875</AltitudeMeters>
            <DistanceMeters>NAN</DistanceMeters>
          </Trackpoint>
          <Trackpoint>
            <Time>2019-10-04T13:13:31.000Z</Time>
            <Position>
              <LatitudeDegrees>43.07814217172563076019287109375</LatitudeDegrees>
              <LongitudeDegrees>-5.771259851753711700439453125</LongitudeDegrees>
            </Position>
            <AltitudeMeters>193.8000030517578125</AltitudeMeters>
            <DistanceMeters>NAN</DistanceMeters>
          </Trackpoint>
          <Trackpoint>
            <Time>2019-10-04T13:13:40.000Z</Time>
            <Position>
              <LatitudeDegrees>43.0779687501490116119384765625</LatitudeDegrees>
              <LongitudeDegrees>-5.77092164196074008941650390625</LongitudeDegrees>
            </Position>
            <AltitudeMeters>193.8000030517578125</AltitudeMeters>
            <DistanceMeters>NAN</DistanceMeters>
          </Trackpoint>
          <Trackpoint>
            <Time>2019-10-04T13:13:43.000Z</Time>
            <Position>
              <LatitudeDegrees>43.07791301049292087554931640625</LatitudeDegrees>
              <LongitudeDegrees>-5.770793147385120391845703125</LongitudeDegrees>
            </Position>
            <AltitudeMeters>194.1999969482421875</AltitudeMeters>
            <DistanceMeters>NAN</DistanceMeters>
          </Trackpoint>
          <Trackpoint>
            <Time>2019-10-04T13:13:47.000Z</Time>
            <Position>
              <LatitudeDegrees>43.07784578762948513031005859375</LatitudeDegrees>
              <LongitudeDegrees>-5.77059675939381122589111328125</LongitudeDegrees>
            </Position>
            <AltitudeMeters>194.600006103515625</AltitudeMeters>
            <DistanceMeters>NAN</DistanceMeters>
          </Trackpoint>
          <Trackpoint>
            <Time>2019-10-04T13:13:55.000Z</Time>
            <Position>
              <LatitudeDegrees>43.07770681567490100860595703125</LatitudeDegrees>
              <LongitudeDegrees>-5.77017883770167827606201171875</LongitudeDegrees>
            </Position>
            <AltitudeMeters>195</AltitudeMeters>
            <DistanceMeters>NAN</DistanceMeters>
          </Trackpoint>
          <Trackpoint>
            <Time>2019-10-04T13:13:58.000Z</Time>
            <Position>
              <LatitudeDegrees>43.0776515789330005645751953125</LatitudeDegrees>
              <LongitudeDegrees>-5.77001136727631092071533203125</LongitudeDegrees>
            </Position>
            <AltitudeMeters>195.399993896484375</AltitudeMeters>
            <DistanceMeters>NAN</DistanceMeters>
          </Trackpoint>
          <Trackpoint>
            <Time>2019-10-04T13:14:03.000Z</Time>
            <Position>
              <LatitudeDegrees>43.07755242101848125457763671875</LatitudeDegrees>
              <LongitudeDegrees>-5.76972889713943004608154296875</LongitudeDegrees>
            </Position>
            <AltitudeMeters>195.8000030517578125</AltitudeMeters>
            <DistanceMeters>NAN</DistanceMeters>
          </Trackpoint>
          <Trackpoint>
            <Time>2019-10-04T13:14:10.000Z</Time>
            <Position>
              <LatitudeDegrees>43.07739903219044208526611328125</LatitudeDegrees>
              <LongitudeDegrees>-5.769346095621585845947265625</LongitudeDegrees>
            </Position>
            <AltitudeMeters>196.1999969482421875</AltitudeMeters>
            <DistanceMeters>NAN</DistanceMeters>
          </Trackpoint>
          <Trackpoint>
            <Time>2019-10-04T13:14:12.000Z</Time>
            <Position>
              <LatitudeDegrees>43.0773551948368549346923828125</LatitudeDegrees>
              <LongitudeDegrees>-5.76924174092710018157958984375</LongitudeDegrees>
            </Position>
            <AltitudeMeters>196</AltitudeMeters>
            <DistanceMeters>NAN</DistanceMeters>
          </Trackpoint>
          <Trackpoint>
            <Time>2019-10-04T13:14:14.000Z</Time>
            <Position>
              <LatitudeDegrees>43.07731219567358493804931640625</LatitudeDegrees>
              <LongitudeDegrees>-5.76913998462259769439697265625</LongitudeDegrees>
            </Position>
            <AltitudeMeters>196.600006103515625</AltitudeMeters>
            <DistanceMeters>NAN</DistanceMeters>
          </Trackpoint>
          <Trackpoint>
            <Time>2019-10-04T13:14:15.000Z</Time>
            <Position>
              <LatitudeDegrees>43.077285625040531158447265625</LatitudeDegrees>
              <LongitudeDegrees>-5.7690964825451374053955078125</LongitudeDegrees>
            </Position>
            <AltitudeMeters>196.600006103515625</AltitudeMeters>
            <DistanceMeters>NAN</DistanceMeters>
          </Trackpoint>
          <Trackpoint>
            <Time>2019-10-04T13:14:19.000Z</Time>
            <Position>
              <LatitudeDegrees>43.0772009678184986114501953125</LatitudeDegrees>
              <LongitudeDegrees>-5.76893739402294158935546875</LongitudeDegrees>
            </Position>
            <AltitudeMeters>197</AltitudeMeters>
            <DistanceMeters>NAN</DistanceMeters>
          </Trackpoint>
          <Trackpoint>
            <Time>2019-10-04T13:14:26.000Z</Time>
            <Position>
              <LatitudeDegrees>43.07706710882484912872314453125</LatitudeDegrees>
              <LongitudeDegrees>-5.76870580203831195831298828125</LongitudeDegrees>
            </Position>
            <AltitudeMeters>197.600006103515625</AltitudeMeters>
            <DistanceMeters>NAN</DistanceMeters>
          </Trackpoint>
          <Trackpoint>
            <Time>2019-10-04T13:14:27.000Z</Time>
            <Position>
              <LatitudeDegrees>43.0770497582852840423583984375</LatitudeDegrees>
              <LongitudeDegrees>-5.76867319643497467041015625</LongitudeDegrees>
            </Position>
            <AltitudeMeters>197.399993896484375</AltitudeMeters>
            <DistanceMeters>NAN</DistanceMeters>
          </Trackpoint>
          <Trackpoint>
            <Time>2019-10-04T13:14:33.000Z</Time>
            <Position>
              <LatitudeDegrees>43.07695160619914531707763671875</LatitudeDegrees>
              <LongitudeDegrees>-5.76848586089909076690673828125</LongitudeDegrees>
            </Position>
            <AltitudeMeters>197.600006103515625</AltitudeMeters>
            <DistanceMeters>NAN</DistanceMeters>
          </Trackpoint>
          <Trackpoint>
            <Time>2019-10-04T13:14:37.000Z</Time>
            <Position>
              <LatitudeDegrees>43.07687767781317234039306640625</LatitudeDegrees>
              <LongitudeDegrees>-5.7683669216930866241455078125</LongitudeDegrees>
            </Position>
            <AltitudeMeters>197.600006103515625</AltitudeMeters>
            <DistanceMeters>NAN</DistanceMeters>
          </Trackpoint>
          <Trackpoint>
            <Time>2019-10-04T13:14:40.000Z</Time>
            <Position>
              <LatitudeDegrees>43.07682931423187255859375</LatitudeDegrees>
              <LongitudeDegrees>-5.76828335411846637725830078125</LongitudeDegrees>
            </Position>
            <AltitudeMeters>197.8000030517578125</AltitudeMeters>
            <DistanceMeters>NAN</DistanceMeters>
          </Trackpoint>
          <Trackpoint>
            <Time>2019-10-04T13:14:45.000Z</Time>
            <Position>
              <LatitudeDegrees>43.0767386220395565032958984375</LatitudeDegrees>
              <LongitudeDegrees>-5.768125355243682861328125</LongitudeDegrees>
            </Position>
            <AltitudeMeters>197.8000030517578125</AltitudeMeters>
            <DistanceMeters>NAN</DistanceMeters>
          </Trackpoint>
          <Trackpoint>
            <Time>2019-10-04T13:14:53.000Z</Time>
            <Position>
              <LatitudeDegrees>43.07659906335175037384033203125</LatitudeDegrees>
              <LongitudeDegrees>-5.76784615404903888702392578125</LongitudeDegrees>
            </Position>
            <AltitudeMeters>197.399993896484375</AltitudeMeters>
            <DistanceMeters>NAN</DistanceMeters>
          </Trackpoint>
          <Trackpoint>
            <Time>2019-10-04T13:15:02.000Z</Time>
            <Position>
              <LatitudeDegrees>43.076403848826885223388671875</LatitudeDegrees>
              <LongitudeDegrees>-5.7675927691161632537841796875</LongitudeDegrees>
            </Position>
            <AltitudeMeters>196.399993896484375</AltitudeMeters>
            <DistanceMeters>NAN</DistanceMeters>
          </Trackpoint>
          <Trackpoint>
            <Time>2019-10-04T13:15:09.000Z</Time>
            <Position>
              <LatitudeDegrees>43.0762231349945068359375</LatitudeDegrees>
              <LongitudeDegrees>-5.76749126426875591278076171875</LongitudeDegrees>
            </Position>
            <AltitudeMeters>196</AltitudeMeters>
            <DistanceMeters>NAN</DistanceMeters>
          </Trackpoint>
          <Trackpoint>
            <Time>2019-10-04T13:15:16.000Z</Time>
            <Position>
              <LatitudeDegrees>43.0760432593524456024169921875</LatitudeDegrees>
              <LongitudeDegrees>-5.76747701503336429595947265625</LongitudeDegrees>
            </Position>
            <AltitudeMeters>196.399993896484375</AltitudeMeters>
            <DistanceMeters>NAN</DistanceMeters>
          </Trackpoint>
          <Trackpoint>
            <Time>2019-10-04T13:15:26.000Z</Time>
            <Position>
              <LatitudeDegrees>43.07579976506531238555908203125</LatitudeDegrees>
              <LongitudeDegrees>-5.767524540424346923828125</LongitudeDegrees>
            </Position>
            <AltitudeMeters>196.1999969482421875</AltitudeMeters>
            <DistanceMeters>NAN</DistanceMeters>
          </Trackpoint>
          <Trackpoint>
            <Time>2019-10-04T13:15:33.000Z</Time>
            <Position>
              <LatitudeDegrees>43.07562969624996185302734375</LatitudeDegrees>
              <LongitudeDegrees>-5.76754868030548095703125</LongitudeDegrees>
            </Position>
            <AltitudeMeters>196</AltitudeMeters>
            <DistanceMeters>NAN</DistanceMeters>
          </Trackpoint>
          <Trackpoint>
            <Time>2019-10-04T13:15:41.000Z</Time>
            <Position>
              <LatitudeDegrees>43.07544001378118991851806640625</LatitudeDegrees>
              <LongitudeDegrees>-5.76754725538194179534912109375</LongitudeDegrees>
            </Position>
            <AltitudeMeters>195.600006103515625</AltitudeMeters>
            <DistanceMeters>NAN</DistanceMeters>
          </Trackpoint>
          <Trackpoint>
            <Time>2019-10-04T13:15:42.000Z</Time>
            <Position>
              <LatitudeDegrees>43.075416795909404754638671875</LatitudeDegrees>
              <LongitudeDegrees>-5.767544992268085479736328125</LongitudeDegrees>
            </Position>
            <AltitudeMeters>195.1999969482421875</AltitudeMeters>
            <DistanceMeters>NAN</DistanceMeters>
          </Trackpoint>
          <Trackpoint>
            <Time>2019-10-04T13:15:45.000Z</Time>
            <Position>
              <LatitudeDegrees>43.0753472261130809783935546875</LatitudeDegrees>
              <LongitudeDegrees>-5.76753728091716766357421875</LongitudeDegrees>
            </Position>
            <AltitudeMeters>194.1999969482421875</AltitudeMeters>
            <DistanceMeters>NAN</DistanceMeters>
          </Trackpoint>
          <Trackpoint>
            <Time>2019-10-04T13:15:48.000Z</Time>
            <Position>
              <LatitudeDegrees>43.07527975179255008697509765625</LatitudeDegrees>
              <LongitudeDegrees>-5.76752864755690097808837890625</LongitudeDegrees>
            </Position>
            <AltitudeMeters>193.1999969482421875</AltitudeMeters>
            <DistanceMeters>NAN</DistanceMeters>
          </Trackpoint>
          <Trackpoint>
            <Time>2019-10-04T13:15:50.000Z</Time>
            <Position>
              <LatitudeDegrees>43.07523281313478946685791015625</LatitudeDegrees>
              <LongitudeDegrees>-5.76752328313887119293212890625</LongitudeDegrees>
            </Position>
            <AltitudeMeters>192.600006103515625</AltitudeMeters>
            <DistanceMeters>NAN</DistanceMeters>
          </Trackpoint>
          <Trackpoint>
            <Time>2019-10-04T13:15:53.000Z</Time>
            <Position>
              <LatitudeDegrees>43.075159974396228790283203125</LatitudeDegrees>
              <LongitudeDegrees>-5.767528228461742401123046875</LongitudeDegrees>
            </Position>
            <AltitudeMeters>192</AltitudeMeters>
            <DistanceMeters>NAN</DistanceMeters>
          </Trackpoint>
          <Trackpoint>
            <Time>2019-10-04T13:15:59.000Z</Time>
            <Position>
              <LatitudeDegrees>43.07501840405166149139404296875</LatitudeDegrees>
              <LongitudeDegrees>-5.7675518654286861419677734375</LongitudeDegrees>
            </Position>
            <AltitudeMeters>191</AltitudeMeters>
            <DistanceMeters>NAN</DistanceMeters>
          </Trackpoint>
          <Trackpoint>
            <Time>2019-10-04T13:16:01.000Z</Time>
            <Position>
              <LatitudeDegrees>43.07497314177453517913818359375</LatitudeDegrees>
              <LongitudeDegrees>-5.767559073865413665771484375</LongitudeDegrees>
            </Position>
            <AltitudeMeters>191</AltitudeMeters>
            <DistanceMeters>NAN</DistanceMeters>
          </Trackpoint>
          <Trackpoint>
            <Time>2019-10-04T13:16:09.000Z</Time>
            <Position>
              <LatitudeDegrees>43.07479083538055419921875</LatitudeDegrees>
              <LongitudeDegrees>-5.767595283687114715576171875</LongitudeDegrees>
            </Position>
            <AltitudeMeters>191</AltitudeMeters>
            <DistanceMeters>NAN</DistanceMeters>
          </Trackpoint>
          <Trackpoint>
            <Time>2019-10-04T13:16:18.000Z</Time>
            <Position>
              <LatitudeDegrees>43.07456620037555694580078125</LatitudeDegrees>
              <LongitudeDegrees>-5.76765202917158603668212890625</LongitudeDegrees>
            </Position>
            <AltitudeMeters>190</AltitudeMeters>
            <DistanceMeters>NAN</DistanceMeters>
          </Trackpoint>
          <Trackpoint>
            <Time>2019-10-04T13:16:23.000Z</Time>
            <Position>
              <LatitudeDegrees>43.0744610913097858428955078125</LatitudeDegrees>
              <LongitudeDegrees>-5.76769444160163402557373046875</LongitudeDegrees>
            </Position>
            <AltitudeMeters>190.1999969482421875</AltitudeMeters>
            <DistanceMeters>NAN</DistanceMeters>
          </Trackpoint>
          <Trackpoint>
            <Time>2019-10-04T13:16:29.000Z</Time>
            <Position>
              <LatitudeDegrees>43.07445262558758258819580078125</LatitudeDegrees>
              <LongitudeDegrees>-5.76769544743001461029052734375</LongitudeDegrees>
            </Position>
            <AltitudeMeters>190</AltitudeMeters>
            <DistanceMeters>NAN</DistanceMeters>
          </Trackpoint>
          <Trackpoint>
            <Time>2019-10-04T13:16:32.000Z</Time>
            <Position>
              <LatitudeDegrees>43.07445262558758258819580078125</LatitudeDegrees>
              <LongitudeDegrees>-5.76769544743001461029052734375</LongitudeDegrees>
            </Position>
            <AltitudeMeters>189.8000030517578125</AltitudeMeters>
            <DistanceMeters>NAN</DistanceMeters>
          </Trackpoint>
          <Trackpoint>
            <Time>2019-10-04T13:16:34.000Z</Time>
            <Position>
              <LatitudeDegrees>43.07445262558758258819580078125</LatitudeDegrees>
              <LongitudeDegrees>-5.76769544743001461029052734375</LongitudeDegrees>
            </Position>
            <AltitudeMeters>190</AltitudeMeters>
            <DistanceMeters>NAN</DistanceMeters>
          </Trackpoint>
          <Trackpoint>
            <Time>2019-10-04T13:16:37.000Z</Time>
            <Position>
              <LatitudeDegrees>43.07445262558758258819580078125</LatitudeDegrees>
              <LongitudeDegrees>-5.76769544743001461029052734375</LongitudeDegrees>
            </Position>
            <AltitudeMeters>189.8000030517578125</AltitudeMeters>
            <DistanceMeters>NAN</DistanceMeters>
          </Trackpoint>
          <Trackpoint>
            <Time>2019-10-04T13:16:38.000Z</Time>
            <Position>
              <LatitudeDegrees>43.07445262558758258819580078125</LatitudeDegrees>
              <LongitudeDegrees>-5.76769544743001461029052734375</LongitudeDegrees>
            </Position>
            <AltitudeMeters>189.8000030517578125</AltitudeMeters>
            <DistanceMeters>NAN</DistanceMeters>
          </Trackpoint>
          <Trackpoint>
            <Time>2019-10-04T13:16:44.000Z</Time>
            <Position>
              <LatitudeDegrees>43.07445262558758258819580078125</LatitudeDegrees>
              <LongitudeDegrees>-5.76769544743001461029052734375</LongitudeDegrees>
            </Position>
            <AltitudeMeters>189.8000030517578125</AltitudeMeters>
            <DistanceMeters>NAN</DistanceMeters>
          </Trackpoint>
          <Trackpoint>
            <Time>2019-10-04T13:16:46.000Z</Time>
            <Position>
              <LatitudeDegrees>43.07445262558758258819580078125</LatitudeDegrees>
              <LongitudeDegrees>-5.76769544743001461029052734375</LongitudeDegrees>
            </Position>
            <AltitudeMeters>189.399993896484375</AltitudeMeters>
            <DistanceMeters>NAN</DistanceMeters>
          </Trackpoint>
          <Trackpoint>
            <Time>2019-10-04T13:16:48.000Z</Time>
            <Position>
              <LatitudeDegrees>43.07445262558758258819580078125</LatitudeDegrees>
              <LongitudeDegrees>-5.76769544743001461029052734375</LongitudeDegrees>
            </Position>
            <AltitudeMeters>189.399993896484375</AltitudeMeters>
            <DistanceMeters>NAN</DistanceMeters>
          </Trackpoint>
          <Trackpoint>
            <Time>2019-10-04T13:16:54.000Z</Time>
            <Position>
              <LatitudeDegrees>43.07445262558758258819580078125</LatitudeDegrees>
              <LongitudeDegrees>-5.76769544743001461029052734375</LongitudeDegrees>
            </Position>
            <AltitudeMeters>188.8000030517578125</AltitudeMeters>
            <DistanceMeters>NAN</DistanceMeters>
          </Trackpoint>
          <Trackpoint>
            <Time>2019-10-04T13:16:58.000Z</Time>
            <Position>
              <LatitudeDegrees>43.07445262558758258819580078125</LatitudeDegrees>
              <LongitudeDegrees>-5.76769544743001461029052734375</LongitudeDegrees>
            </Position>
            <AltitudeMeters>188.399993896484375</AltitudeMeters>
            <DistanceMeters>NAN</DistanceMeters>
          </Trackpoint>
          <Trackpoint>
            <Time>2019-10-04T13:16:59.000Z</Time>
            <Position>
              <LatitudeDegrees>43.07445262558758258819580078125</LatitudeDegrees>
              <LongitudeDegrees>-5.76769544743001461029052734375</LongitudeDegrees>
            </Position>
            <AltitudeMeters>188.399993896484375</AltitudeMeters>
            <DistanceMeters>NAN</DistanceMeters>
          </Trackpoint>
          <Trackpoint>
            <Time>2019-10-04T13:17:04.000Z</Time>
            <Position>
              <LatitudeDegrees>43.07445111684501171112060546875</LatitudeDegrees>
              <LongitudeDegrees>-5.7676926814019680023193359375</LongitudeDegrees>
            </Position>
            <AltitudeMeters>187.600006103515625</AltitudeMeters>
            <DistanceMeters>NAN</DistanceMeters>
          </Trackpoint>
          <Trackpoint>
            <Time>2019-10-04T13:17:11.000Z</Time>
            <Position>
              <LatitudeDegrees>43.07445111684501171112060546875</LatitudeDegrees>
              <LongitudeDegrees>-5.7676926814019680023193359375</LongitudeDegrees>
            </Position>
            <AltitudeMeters>187.1999969482421875</AltitudeMeters>
            <DistanceMeters>NAN</DistanceMeters>
          </Trackpoint>
          <Trackpoint>
            <Time>2019-10-04T13:17:15.000Z</Time>
            <Position>
              <LatitudeDegrees>43.07445111684501171112060546875</LatitudeDegrees>
              <LongitudeDegrees>-5.7676926814019680023193359375</LongitudeDegrees>
            </Position>
            <AltitudeMeters>186.600006103515625</AltitudeMeters>
            <DistanceMeters>NAN</DistanceMeters>
          </Trackpoint>
          <Trackpoint>
            <Time>2019-10-04T13:17:20.000Z</Time>
            <Position>
              <LatitudeDegrees>43.07445111684501171112060546875</LatitudeDegrees>
              <LongitudeDegrees>-5.7676926814019680023193359375</LongitudeDegrees>
            </Position>
            <AltitudeMeters>186</AltitudeMeters>
            <DistanceMeters>NAN</DistanceMeters>
          </Trackpoint>
          <Trackpoint>
            <Time>2019-10-04T13:17:22.000Z</Time>
            <Position>
              <LatitudeDegrees>43.07445111684501171112060546875</LatitudeDegrees>
              <LongitudeDegrees>-5.7676926814019680023193359375</LongitudeDegrees>
            </Position>
            <AltitudeMeters>186</AltitudeMeters>
            <DistanceMeters>NAN</DistanceMeters>
          </Trackpoint>
          <Trackpoint>
            <Time>2019-10-04T13:17:23.000Z</Time>
            <Position>
              <LatitudeDegrees>43.07445111684501171112060546875</LatitudeDegrees>
              <LongitudeDegrees>-5.7676926814019680023193359375</LongitudeDegrees>
            </Position>
            <AltitudeMeters>185.8000030517578125</AltitudeMeters>
            <DistanceMeters>NAN</DistanceMeters>
          </Trackpoint>
          <Trackpoint>
            <Time>2019-10-04T13:17:24.000Z</Time>
            <Position>
              <LatitudeDegrees>43.07445111684501171112060546875</LatitudeDegrees>
              <LongitudeDegrees>-5.7676926814019680023193359375</LongitudeDegrees>
            </Position>
            <AltitudeMeters>185.600006103515625</AltitudeMeters>
            <DistanceMeters>NAN</DistanceMeters>
          </Trackpoint>
          <Trackpoint>
            <Time>2019-10-04T13:17:25.000Z</Time>
            <Position>
              <LatitudeDegrees>43.07445111684501171112060546875</LatitudeDegrees>
              <LongitudeDegrees>-5.7676926814019680023193359375</LongitudeDegrees>
            </Position>
            <AltitudeMeters>185.399993896484375</AltitudeMeters>
            <DistanceMeters>NAN</DistanceMeters>
          </Trackpoint>
          <Trackpoint>
            <Time>2019-10-04T13:17:26.000Z</Time>
            <Position>
              <LatitudeDegrees>43.07445111684501171112060546875</LatitudeDegrees>
              <LongitudeDegrees>-5.7676926814019680023193359375</LongitudeDegrees>
            </Position>
            <AltitudeMeters>185.399993896484375</AltitudeMeters>
            <DistanceMeters>NAN</DistanceMeters>
          </Trackpoint>
          <Trackpoint>
            <Time>2019-10-04T13:17:31.000Z</Time>
            <Position>
              <LatitudeDegrees>43.07445111684501171112060546875</LatitudeDegrees>
              <LongitudeDegrees>-5.7676926814019680023193359375</LongitudeDegrees>
            </Position>
            <AltitudeMeters>184.8000030517578125</AltitudeMeters>
            <DistanceMeters>NAN</DistanceMeters>
          </Trackpoint>
          <Trackpoint>
            <Time>2019-10-04T13:17:32.000Z</Time>
            <Position>
              <LatitudeDegrees>43.07445111684501171112060546875</LatitudeDegrees>
              <LongitudeDegrees>-5.7676926814019680023193359375</LongitudeDegrees>
            </Position>
            <AltitudeMeters>185</AltitudeMeters>
            <DistanceMeters>NAN</DistanceMeters>
          </Trackpoint>
          <Trackpoint>
            <Time>2019-10-04T13:17:33.000Z</Time>
            <Position>
              <LatitudeDegrees>43.07445111684501171112060546875</LatitudeDegrees>
              <LongitudeDegrees>-5.7676926814019680023193359375</LongitudeDegrees>
            </Position>
            <AltitudeMeters>185</AltitudeMeters>
            <DistanceMeters>NAN</DistanceMeters>
          </Trackpoint>
          <Trackpoint>
            <Time>2019-10-04T13:17:35.000Z</Time>
            <Position>
              <LatitudeDegrees>43.07445111684501171112060546875</LatitudeDegrees>
              <LongitudeDegrees>-5.7676926814019680023193359375</LongitudeDegrees>
            </Position>
            <AltitudeMeters>184.8000030517578125</AltitudeMeters>
            <DistanceMeters>NAN</DistanceMeters>
          </Trackpoint>
          <Trackpoint>
            <Time>2019-10-04T13:17:37.000Z</Time>
            <Position>
              <LatitudeDegrees>43.07445111684501171112060546875</LatitudeDegrees>
              <LongitudeDegrees>-5.7676926814019680023193359375</LongitudeDegrees>
            </Position>
            <AltitudeMeters>184.600006103515625</AltitudeMeters>
            <DistanceMeters>NAN</DistanceMeters>
          </Trackpoint>
          <Trackpoint>
            <Time>2019-10-04T13:17:40.000Z</Time>
            <Position>
              <LatitudeDegrees>43.07445111684501171112060546875</LatitudeDegrees>
              <LongitudeDegrees>-5.7676926814019680023193359375</LongitudeDegrees>
            </Position>
            <AltitudeMeters>184.600006103515625</AltitudeMeters>
            <DistanceMeters>NAN</DistanceMeters>
          </Trackpoint>
          <Trackpoint>
            <Time>2019-10-04T13:17:41.000Z</Time>
            <Position>
              <LatitudeDegrees>43.07445111684501171112060546875</LatitudeDegrees>
              <LongitudeDegrees>-5.7676926814019680023193359375</LongitudeDegrees>
            </Position>
            <AltitudeMeters>184.399993896484375</AltitudeMeters>
            <DistanceMeters>NAN</DistanceMeters>
          </Trackpoint>
          <Trackpoint>
            <Time>2019-10-04T13:17:43.000Z</Time>
            <Position>
              <LatitudeDegrees>43.0744520388543605804443359375</LatitudeDegrees>
              <LongitudeDegrees>-5.76768958009779453277587890625</LongitudeDegrees>
            </Position>
            <AltitudeMeters>184.1999969482421875</AltitudeMeters>
            <DistanceMeters>NAN</DistanceMeters>
          </Trackpoint>
          <Trackpoint>
            <Time>2019-10-04T13:17:45.000Z</Time>
            <Position>
              <LatitudeDegrees>43.0744520388543605804443359375</LatitudeDegrees>
              <LongitudeDegrees>-5.76768958009779453277587890625</LongitudeDegrees>
            </Position>
            <AltitudeMeters>184.399993896484375</AltitudeMeters>
            <DistanceMeters>NAN</DistanceMeters>
          </Trackpoint>
          <Trackpoint>
            <Time>2019-10-04T13:17:48.000Z</Time>
            <Position>
              <LatitudeDegrees>43.0744520388543605804443359375</LatitudeDegrees>
              <LongitudeDegrees>-5.76768958009779453277587890625</LongitudeDegrees>
            </Position>
            <AltitudeMeters>183.8000030517578125</AltitudeMeters>
            <DistanceMeters>NAN</DistanceMeters>
          </Trackpoint>
          <Trackpoint>
            <Time>2019-10-04T13:17:53.000Z</Time>
            <Position>
              <LatitudeDegrees>43.0744520388543605804443359375</LatitudeDegrees>
              <LongitudeDegrees>-5.76768958009779453277587890625</LongitudeDegrees>
            </Position>
            <AltitudeMeters>183.399993896484375</AltitudeMeters>
            <DistanceMeters>NAN</DistanceMeters>
          </Trackpoint>
          <Trackpoint>
            <Time>2019-10-04T13:17:54.000Z</Time>
            <Position>
              <LatitudeDegrees>43.0744520388543605804443359375</LatitudeDegrees>
              <LongitudeDegrees>-5.76768958009779453277587890625</LongitudeDegrees>
            </Position>
            <AltitudeMeters>183.1999969482421875</AltitudeMeters>
            <DistanceMeters>NAN</DistanceMeters>
          </Trackpoint>
          <Trackpoint>
            <Time>2019-10-04T13:17:57.000Z</Time>
            <Position>
              <LatitudeDegrees>43.0744520388543605804443359375</LatitudeDegrees>
              <LongitudeDegrees>-5.76768958009779453277587890625</LongitudeDegrees>
            </Position>
            <AltitudeMeters>182.8000030517578125</AltitudeMeters>
            <DistanceMeters>NAN</DistanceMeters>
          </Trackpoint>
          <Trackpoint>
            <Time>2019-10-04T13:18:03.000Z</Time>
            <Position>
              <LatitudeDegrees>43.0744520388543605804443359375</LatitudeDegrees>
              <LongitudeDegrees>-5.76768958009779453277587890625</LongitudeDegrees>
            </Position>
            <AltitudeMeters>182.1999969482421875</AltitudeMeters>
            <DistanceMeters>NAN</DistanceMeters>
          </Trackpoint>
          <Trackpoint>
            <Time>2019-10-04T13:18:11.000Z</Time>
            <Position>
              <LatitudeDegrees>43.0744520388543605804443359375</LatitudeDegrees>
              <LongitudeDegrees>-5.76768958009779453277587890625</LongitudeDegrees>
            </Position>
            <AltitudeMeters>181</AltitudeMeters>
            <DistanceMeters>NAN</DistanceMeters>
          </Trackpoint>
          <Trackpoint>
            <Time>2019-10-04T13:18:13.000Z</Time>
            <Position>
              <LatitudeDegrees>43.0744520388543605804443359375</LatitudeDegrees>
              <LongitudeDegrees>-5.76768958009779453277587890625</LongitudeDegrees>
            </Position>
            <AltitudeMeters>180.600006103515625</AltitudeMeters>
            <DistanceMeters>NAN</DistanceMeters>
          </Trackpoint>
          <Trackpoint>
            <Time>2019-10-04T13:18:18.000Z</Time>
            <Position>
              <LatitudeDegrees>43.0744520388543605804443359375</LatitudeDegrees>
              <LongitudeDegrees>-5.76768958009779453277587890625</LongitudeDegrees>
            </Position>
            <AltitudeMeters>179.8000030517578125</AltitudeMeters>
            <DistanceMeters>NAN</DistanceMeters>
          </Trackpoint>
          <Trackpoint>
            <Time>2019-10-04T13:18:28.000Z</Time>
            <Position>
              <LatitudeDegrees>43.07444759644567966461181640625</LatitudeDegrees>
              <LongitudeDegrees>-5.7676930166780948638916015625</LongitudeDegrees>
            </Position>
            <AltitudeMeters>178.600006103515625</AltitudeMeters>
            <DistanceMeters>NAN</DistanceMeters>
          </Trackpoint>
          <Trackpoint>
            <Time>2019-10-04T13:18:29.000Z</Time>
            <Position>
              <LatitudeDegrees>43.07444759644567966461181640625</LatitudeDegrees>
              <LongitudeDegrees>-5.7676930166780948638916015625</LongitudeDegrees>
            </Position>
            <AltitudeMeters>178.399993896484375</AltitudeMeters>
            <DistanceMeters>NAN</DistanceMeters>
          </Trackpoint>
          <Trackpoint>
            <Time>2019-10-04T13:18:37.000Z</Time>
            <Position>
              <LatitudeDegrees>43.07444759644567966461181640625</LatitudeDegrees>
              <LongitudeDegrees>-5.7676930166780948638916015625</LongitudeDegrees>
            </Position>
            <AltitudeMeters>177.399993896484375</AltitudeMeters>
            <DistanceMeters>NAN</DistanceMeters>
          </Trackpoint>
          <Trackpoint>
            <Time>2019-10-04T13:18:39.000Z</Time>
            <Position>
              <LatitudeDegrees>43.07444759644567966461181640625</LatitudeDegrees>
              <LongitudeDegrees>-5.7676930166780948638916015625</LongitudeDegrees>
            </Position>
            <AltitudeMeters>177.399993896484375</AltitudeMeters>
            <DistanceMeters>NAN</DistanceMeters>
          </Trackpoint>
          <Trackpoint>
            <Time>2019-10-04T13:18:41.000Z</Time>
            <Position>
              <LatitudeDegrees>43.07444759644567966461181640625</LatitudeDegrees>
              <LongitudeDegrees>-5.7676930166780948638916015625</LongitudeDegrees>
            </Position>
            <AltitudeMeters>177.1999969482421875</AltitudeMeters>
            <DistanceMeters>NAN</DistanceMeters>
          </Trackpoint>
          <Trackpoint>
            <Time>2019-10-04T13:18:46.000Z</Time>
            <Position>
              <LatitudeDegrees>43.07444759644567966461181640625</LatitudeDegrees>
              <LongitudeDegrees>-5.7676930166780948638916015625</LongitudeDegrees>
            </Position>
            <AltitudeMeters>176.399993896484375</AltitudeMeters>
            <DistanceMeters>NAN</DistanceMeters>
          </Trackpoint>
          <Trackpoint>
            <Time>2019-10-04T13:18:50.000Z</Time>
            <Position>
              <LatitudeDegrees>43.07444759644567966461181640625</LatitudeDegrees>
              <LongitudeDegrees>-5.7676930166780948638916015625</LongitudeDegrees>
            </Position>
            <AltitudeMeters>175.8000030517578125</AltitudeMeters>
            <DistanceMeters>NAN</DistanceMeters>
          </Trackpoint>
          <Trackpoint>
            <Time>2019-10-04T13:18:51.000Z</Time>
            <Position>
              <LatitudeDegrees>43.07444759644567966461181640625</LatitudeDegrees>
              <LongitudeDegrees>-5.7676930166780948638916015625</LongitudeDegrees>
            </Position>
            <AltitudeMeters>175.8000030517578125</AltitudeMeters>
            <DistanceMeters>NAN</DistanceMeters>
          </Trackpoint>
          <Trackpoint>
            <Time>2019-10-04T13:18:55.000Z</Time>
            <Position>
              <LatitudeDegrees>43.07444759644567966461181640625</LatitudeDegrees>
              <LongitudeDegrees>-5.7676930166780948638916015625</LongitudeDegrees>
            </Position>
            <AltitudeMeters>175.1999969482421875</AltitudeMeters>
            <DistanceMeters>NAN</DistanceMeters>
          </Trackpoint>
          <Trackpoint>
            <Time>2019-10-04T13:19:02.000Z</Time>
            <Position>
              <LatitudeDegrees>43.07444759644567966461181640625</LatitudeDegrees>
              <LongitudeDegrees>-5.7676930166780948638916015625</LongitudeDegrees>
            </Position>
            <AltitudeMeters>174.1999969482421875</AltitudeMeters>
            <DistanceMeters>NAN</DistanceMeters>
          </Trackpoint>
          <Trackpoint>
            <Time>2019-10-04T13:19:04.000Z</Time>
            <Position>
              <LatitudeDegrees>43.074441812932491302490234375</LatitudeDegrees>
              <LongitudeDegrees>-5.7676956988871097564697265625</LongitudeDegrees>
            </Position>
            <AltitudeMeters>174</AltitudeMeters>
            <DistanceMeters>NAN</DistanceMeters>
          </Trackpoint>
          <Trackpoint>
            <Time>2019-10-04T13:19:10.000Z</Time>
            <Position>
              <LatitudeDegrees>43.07443343102931976318359375</LatitudeDegrees>
              <LongitudeDegrees>-5.76769628562033176422119140625</LongitudeDegrees>
            </Position>
            <AltitudeMeters>173.1999969482421875</AltitudeMeters>
            <DistanceMeters>NAN</DistanceMeters>
          </Trackpoint>
          <Trackpoint>
            <Time>2019-10-04T13:19:16.000Z</Time>
            <Position>
              <LatitudeDegrees>43.07427811436355113983154296875</LatitudeDegrees>
              <LongitudeDegrees>-5.76774322427809238433837890625</LongitudeDegrees>
            </Position>
            <AltitudeMeters>172.600006103515625</AltitudeMeters>
            <DistanceMeters>NAN</DistanceMeters>
          </Trackpoint>
          <Trackpoint>
            <Time>2019-10-04T13:19:18.000Z</Time>
            <Position>
              <LatitudeDegrees>43.07420502416789531707763671875</LatitudeDegrees>
              <LongitudeDegrees>-5.7677686214447021484375</LongitudeDegrees>
            </Position>
            <AltitudeMeters>172</AltitudeMeters>
            <DistanceMeters>NAN</DistanceMeters>
          </Trackpoint>
          <Trackpoint>
            <Time>2019-10-04T13:19:19.000Z</Time>
            <Position>
              <LatitudeDegrees>43.07416294701397418975830078125</LatitudeDegrees>
              <LongitudeDegrees>-5.767775662243366241455078125</LongitudeDegrees>
            </Position>
            <AltitudeMeters>172.1999969482421875</AltitudeMeters>
            <DistanceMeters>NAN</DistanceMeters>
          </Trackpoint>
          <Trackpoint>
            <Time>2019-10-04T13:19:21.000Z</Time>
            <Position>
              <LatitudeDegrees>43.07406353764235973358154296875</LatitudeDegrees>
              <LongitudeDegrees>-5.76778111048042774200439453125</LongitudeDegrees>
            </Position>
            <AltitudeMeters>171.8000030517578125</AltitudeMeters>
            <DistanceMeters>NAN</DistanceMeters>
          </Trackpoint>
          <Trackpoint>
            <Time>2019-10-04T13:19:22.000Z</Time>
            <Position>
              <LatitudeDegrees>43.074009977281093597412109375</LatitudeDegrees>
              <LongitudeDegrees>-5.7677811942994594573974609375</LongitudeDegrees>
            </Position>
            <AltitudeMeters>171.8000030517578125</AltitudeMeters>
            <DistanceMeters>NAN</DistanceMeters>
          </Trackpoint>
          <Trackpoint>
            <Time>2019-10-04T13:19:23.000Z</Time>
            <Position>
              <LatitudeDegrees>43.073949627578258514404296875</LatitudeDegrees>
              <LongitudeDegrees>-5.7677726447582244873046875</LongitudeDegrees>
            </Position>
            <AltitudeMeters>171.8000030517578125</AltitudeMeters>
            <DistanceMeters>NAN</DistanceMeters>
          </Trackpoint>
          <Trackpoint>
            <Time>2019-10-04T13:19:26.000Z</Time>
            <Position>
              <LatitudeDegrees>43.07374636642634868621826171875</LatitudeDegrees>
              <LongitudeDegrees>-5.76774909161031246185302734375</LongitudeDegrees>
            </Position>
            <AltitudeMeters>171.600006103515625</AltitudeMeters>
            <DistanceMeters>NAN</DistanceMeters>
          </Trackpoint>
          <Trackpoint>
            <Time>2019-10-04T13:19:29.000Z</Time>
            <Position>
              <LatitudeDegrees>43.07351686991751194000244140625</LatitudeDegrees>
              <LongitudeDegrees>-5.76775210909545421600341796875</LongitudeDegrees>
            </Position>
            <AltitudeMeters>171.399993896484375</AltitudeMeters>
            <DistanceMeters>NAN</DistanceMeters>
          </Trackpoint>
          <Trackpoint>
            <Time>2019-10-04T13:19:30.000Z</Time>
            <Position>
              <LatitudeDegrees>43.0734418518841266632080078125</LatitudeDegrees>
              <LongitudeDegrees>-5.76778345741331577301025390625</LongitudeDegrees>
            </Position>
            <AltitudeMeters>171.600006103515625</AltitudeMeters>
            <DistanceMeters>NAN</DistanceMeters>
          </Trackpoint>
          <Trackpoint>
            <Time>2019-10-04T13:19:34.000Z</Time>
            <Position>
              <LatitudeDegrees>43.0731977708637714385986328125</LatitudeDegrees>
              <LongitudeDegrees>-5.7680081762373447418212890625</LongitudeDegrees>
            </Position>
            <AltitudeMeters>171.8000030517578125</AltitudeMeters>
            <DistanceMeters>NAN</DistanceMeters>
          </Trackpoint>
          <Trackpoint>
            <Time>2019-10-04T13:19:37.000Z</Time>
            <Position>
              <LatitudeDegrees>43.07308067567646503448486328125</LatitudeDegrees>
              <LongitudeDegrees>-5.7682366669178009033203125</LongitudeDegrees>
            </Position>
            <AltitudeMeters>172.399993896484375</AltitudeMeters>
            <DistanceMeters>NAN</DistanceMeters>
          </Trackpoint>
          <Trackpoint>
            <Time>2019-10-04T13:19:38.000Z</Time>
            <Position>
              <LatitudeDegrees>43.07304698042571544647216796875</LatitudeDegrees>
              <LongitudeDegrees>-5.7683099247515201568603515625</LongitudeDegrees>
            </Position>
            <AltitudeMeters>172.399993896484375</AltitudeMeters>
            <DistanceMeters>NAN</DistanceMeters>
          </Trackpoint>
          <Trackpoint>
            <Time>2019-10-04T13:19:41.000Z</Time>
            <Position>
              <LatitudeDegrees>43.07295008562505245208740234375</LatitudeDegrees>
              <LongitudeDegrees>-5.7685137726366519927978515625</LongitudeDegrees>
            </Position>
            <AltitudeMeters>172.8000030517578125</AltitudeMeters>
            <DistanceMeters>NAN</DistanceMeters>
          </Trackpoint>
          <Trackpoint>
            <Time>2019-10-04T13:19:43.000Z</Time>
            <Position>
              <LatitudeDegrees>43.0728809349238872528076171875</LatitudeDegrees>
              <LongitudeDegrees>-5.7686284370720386505126953125</LongitudeDegrees>
            </Position>
            <AltitudeMeters>173.1999969482421875</AltitudeMeters>
            <DistanceMeters>NAN</DistanceMeters>
          </Trackpoint>
          <Trackpoint>
            <Time>2019-10-04T13:19:44.000Z</Time>
            <Position>
              <LatitudeDegrees>43.0728403665125370025634765625</LatitudeDegrees>
              <LongitudeDegrees>-5.76867763884365558624267578125</LongitudeDegrees>
            </Position>
            <AltitudeMeters>173.1999969482421875</AltitudeMeters>
            <DistanceMeters>NAN</DistanceMeters>
          </Trackpoint>
          <Trackpoint>
            <Time>2019-10-04T13:19:49.000Z</Time>
            <Position>
              <LatitudeDegrees>43.07261531241238117218017578125</LatitudeDegrees>
              <LongitudeDegrees>-5.76882717199623584747314453125</LongitudeDegrees>
            </Position>
            <AltitudeMeters>174</AltitudeMeters>
            <DistanceMeters>NAN</DistanceMeters>
          </Trackpoint>
          <Trackpoint>
            <Time>2019-10-04T13:19:53.000Z</Time>
            <Position>
              <LatitudeDegrees>43.07242001406848430633544921875</LatitudeDegrees>
              <LongitudeDegrees>-5.76881828717887401580810546875</LongitudeDegrees>
            </Position>
            <AltitudeMeters>174</AltitudeMeters>
            <DistanceMeters>NAN</DistanceMeters>
          </Trackpoint>
          <Trackpoint>
            <Time>2019-10-04T13:19:54.000Z</Time>
            <Position>
              <LatitudeDegrees>43.0723729915916919708251953125</LatitudeDegrees>
              <LongitudeDegrees>-5.76879800297319889068603515625</LongitudeDegrees>
            </Position>
            <AltitudeMeters>174.1999969482421875</AltitudeMeters>
            <DistanceMeters>NAN</DistanceMeters>
          </Trackpoint>
          <Trackpoint>
            <Time>2019-10-04T13:19:55.000Z</Time>
            <Position>
              <LatitudeDegrees>43.07232865132391452789306640625</LatitudeDegrees>
              <LongitudeDegrees>-5.7687742821872234344482421875</LongitudeDegrees>
            </Position>
            <AltitudeMeters>174.600006103515625</AltitudeMeters>
            <DistanceMeters>NAN</DistanceMeters>
          </Trackpoint>
          <Trackpoint>
            <Time>2019-10-04T13:19:58.000Z</Time>
            <Position>
              <LatitudeDegrees>43.072220943868160247802734375</LatitudeDegrees>
              <LongitudeDegrees>-5.7686700113117694854736328125</LongitudeDegrees>
            </Position>
            <AltitudeMeters>174.1999969482421875</AltitudeMeters>
            <DistanceMeters>NAN</DistanceMeters>
          </Trackpoint>
          <Trackpoint>
            <Time>2019-10-04T13:19:59.000Z</Time>
            <Position>
              <LatitudeDegrees>43.072184734046459197998046875</LatitudeDegrees>
              <LongitudeDegrees>-5.76863028109073638916015625</LongitudeDegrees>
            </Position>
            <AltitudeMeters>174.399993896484375</AltitudeMeters>
            <DistanceMeters>NAN</DistanceMeters>
          </Trackpoint>
          <Trackpoint>
            <Time>2019-10-04T13:20:04.000Z</Time>
            <Position>
              <LatitudeDegrees>43.07199773378670215606689453125</LatitudeDegrees>
              <LongitudeDegrees>-5.76843640767037868499755859375</LongitudeDegrees>
            </Position>
            <AltitudeMeters>174.600006103515625</AltitudeMeters>
            <DistanceMeters>NAN</DistanceMeters>
          </Trackpoint>
          <Trackpoint>
            <Time>2019-10-04T13:20:07.000Z</Time>
            <Position>
              <LatitudeDegrees>43.07187996804714202880859375</LatitudeDegrees>
              <LongitudeDegrees>-5.76832450926303863525390625</LongitudeDegrees>
            </Position>
            <AltitudeMeters>174.8000030517578125</AltitudeMeters>
            <DistanceMeters>NAN</DistanceMeters>
          </Trackpoint>
          <Trackpoint>
            <Time>2019-10-04T13:20:10.000Z</Time>
            <Position>
              <LatitudeDegrees>43.071766309440135955810546875</LatitudeDegrees>
              <LongitudeDegrees>-5.76821814291179180145263671875</LongitudeDegrees>
            </Position>
            <AltitudeMeters>175.1999969482421875</AltitudeMeters>
            <DistanceMeters>NAN</DistanceMeters>
          </Trackpoint>
          <Trackpoint>
            <Time>2019-10-04T13:20:13.000Z</Time>
            <Position>
              <LatitudeDegrees>43.07165709324181079864501953125</LatitudeDegrees>
              <LongitudeDegrees>-5.76810934580862522125244140625</LongitudeDegrees>
            </Position>
            <AltitudeMeters>175.600006103515625</AltitudeMeters>
            <DistanceMeters>NAN</DistanceMeters>
          </Trackpoint>
          <Trackpoint>
            <Time>2019-10-04T13:20:14.000Z</Time>
            <Position>
              <LatitudeDegrees>43.07161970995366573333740234375</LatitudeDegrees>
              <LongitudeDegrees>-5.76807045377790927886962890625</LongitudeDegrees>
            </Position>
            <AltitudeMeters>175.600006103515625</AltitudeMeters>
            <DistanceMeters>NAN</DistanceMeters>
          </Trackpoint>
          <Trackpoint>
            <Time>2019-10-04T13:20:16.000Z</Time>
            <Position>
              <LatitudeDegrees>43.07154578156769275665283203125</LatitudeDegrees>
              <LongitudeDegrees>-5.7680058293044567108154296875</LongitudeDegrees>
            </Position>
            <AltitudeMeters>175.8000030517578125</AltitudeMeters>
            <DistanceMeters>NAN</DistanceMeters>
          </Trackpoint>
          <Trackpoint>
            <Time>2019-10-04T13:20:18.000Z</Time>
            <Position>
              <LatitudeDegrees>43.07146665640175342559814453125</LatitudeDegrees>
              <LongitudeDegrees>-5.76795126311480998992919921875</LongitudeDegrees>
            </Position>
            <AltitudeMeters>176.1999969482421875</AltitudeMeters>
            <DistanceMeters>NAN</DistanceMeters>
          </Trackpoint>
          <Trackpoint>
            <Time>2019-10-04T13:20:19.000Z</Time>
            <Position>
              <LatitudeDegrees>43.07142307050526142120361328125</LatitudeDegrees>
              <LongitudeDegrees>-5.7679335772991180419921875</LongitudeDegrees>
            </Position>
            <AltitudeMeters>176.399993896484375</AltitudeMeters>
            <DistanceMeters>NAN</DistanceMeters>
          </Trackpoint>
          <Trackpoint>
            <Time>2019-10-04T13:20:21.000Z</Time>
            <Position>
              <LatitudeDegrees>43.07133355177938938140869140625</LatitudeDegrees>
              <LongitudeDegrees>-5.76791186816990375518798828125</LongitudeDegrees>
            </Position>
            <AltitudeMeters>176.8000030517578125</AltitudeMeters>
            <DistanceMeters>NAN</DistanceMeters>
          </Trackpoint>
          <Trackpoint>
            <Time>2019-10-04T13:20:24.000Z</Time>
            <Position>
              <LatitudeDegrees>43.0712183006107807159423828125</LatitudeDegrees>
              <LongitudeDegrees>-5.7679324038326740264892578125</LongitudeDegrees>
            </Position>
            <AltitudeMeters>177</AltitudeMeters>
            <DistanceMeters>NAN</DistanceMeters>
          </Trackpoint>
          <Trackpoint>
            <Time>2019-10-04T13:20:29.000Z</Time>
            <Position>
              <LatitudeDegrees>43.07105560787022113800048828125</LatitudeDegrees>
              <LongitudeDegrees>-5.76803374104201793670654296875</LongitudeDegrees>
            </Position>
            <AltitudeMeters>178</AltitudeMeters>
            <DistanceMeters>NAN</DistanceMeters>
          </Trackpoint>
          <Trackpoint>
            <Time>2019-10-04T13:20:33.000Z</Time>
            <Position>
              <LatitudeDegrees>43.07096407748758792877197265625</LatitudeDegrees>
              <LongitudeDegrees>-5.7681543566286563873291015625</LongitudeDegrees>
            </Position>
            <AltitudeMeters>178.600006103515625</AltitudeMeters>
            <DistanceMeters>NAN</DistanceMeters>
          </Trackpoint>
          <Trackpoint>
            <Time>2019-10-04T13:20:35.000Z</Time>
            <Position>
              <LatitudeDegrees>43.07093457318842411041259765625</LatitudeDegrees>
              <LongitudeDegrees>-5.7682177238166332244873046875</LongitudeDegrees>
            </Position>
            <AltitudeMeters>179.399993896484375</AltitudeMeters>
            <DistanceMeters>NAN</DistanceMeters>
          </Trackpoint>
          <Trackpoint>
            <Time>2019-10-04T13:20:40.000Z</Time>
            <Position>
              <LatitudeDegrees>43.07087807916104793548583984375</LatitudeDegrees>
              <LongitudeDegrees>-5.76837991364300251007080078125</LongitudeDegrees>
            </Position>
            <AltitudeMeters>179.399993896484375</AltitudeMeters>
            <DistanceMeters>NAN</DistanceMeters>
          </Trackpoint>
          <Trackpoint>
            <Time>2019-10-04T13:20:43.000Z</Time>
            <Position>
              <LatitudeDegrees>43.07085544802248477935791015625</LatitudeDegrees>
              <LongitudeDegrees>-5.76847680844366550445556640625</LongitudeDegrees>
            </Position>
            <AltitudeMeters>180.399993896484375</AltitudeMeters>
            <DistanceMeters>NAN</DistanceMeters>
          </Trackpoint>
          <Trackpoint>
            <Time>2019-10-04T13:20:45.000Z</Time>
            <Position>
              <LatitudeDegrees>43.0708431266248226165771484375</LatitudeDegrees>
              <LongitudeDegrees>-5.76853631995618343353271484375</LongitudeDegrees>
            </Position>
            <AltitudeMeters>180.600006103515625</AltitudeMeters>
            <DistanceMeters>NAN</DistanceMeters>
          </Trackpoint>
          <Trackpoint>
            <Time>2019-10-04T13:20:50.000Z</Time>
            <Position>
              <LatitudeDegrees>43.07081471197307109832763671875</LatitudeDegrees>
              <LongitudeDegrees>-5.76868526637554168701171875</LongitudeDegrees>
            </Position>
            <AltitudeMeters>180.600006103515625</AltitudeMeters>
            <DistanceMeters>NAN</DistanceMeters>
          </Trackpoint>
          <Trackpoint>
            <Time>2019-10-04T13:20:54.000Z</Time>
            <Position>
              <LatitudeDegrees>43.07079241611063480377197265625</LatitudeDegrees>
              <LongitudeDegrees>-5.7687970809638500213623046875</LongitudeDegrees>
            </Position>
            <AltitudeMeters>180.8000030517578125</AltitudeMeters>
            <DistanceMeters>NAN</DistanceMeters>
          </Trackpoint>
          <Trackpoint>
            <Time>2019-10-04T13:21:04.000Z</Time>
            <Position>
              <LatitudeDegrees>43.07074732147157192230224609375</LatitudeDegrees>
              <LongitudeDegrees>-5.769089274108409881591796875</LongitudeDegrees>
            </Position>
            <AltitudeMeters>181</AltitudeMeters>
            <DistanceMeters>NAN</DistanceMeters>
          </Trackpoint>
          <Trackpoint>
            <Time>2019-10-04T13:21:05.000Z</Time>
            <Position>
              <LatitudeDegrees>43.07073910720646381378173828125</LatitudeDegrees>
              <LongitudeDegrees>-5.76911509037017822265625</LongitudeDegrees>
            </Position>
            <AltitudeMeters>181</AltitudeMeters>
            <DistanceMeters>NAN</DistanceMeters>
          </Trackpoint>
          <Trackpoint>
            <Time>2019-10-04T13:21:07.000Z</Time>
            <Position>
              <LatitudeDegrees>43.07071848772466182708740234375</LatitudeDegrees>
              <LongitudeDegrees>-5.76916831545531749725341796875</LongitudeDegrees>
            </Position>
            <AltitudeMeters>183.1999969482421875</AltitudeMeters>
            <DistanceMeters>NAN</DistanceMeters>
          </Trackpoint>
          <Trackpoint>
            <Time>2019-10-04T13:21:08.000Z</Time>
            <Position>
              <LatitudeDegrees>43.07070557959377765655517578125</LatitudeDegrees>
              <LongitudeDegrees>-5.76919756829738616943359375</LongitudeDegrees>
            </Position>
            <AltitudeMeters>185.399993896484375</AltitudeMeters>
            <DistanceMeters>NAN</DistanceMeters>
          </Trackpoint>
          <Trackpoint>
            <Time>2019-10-04T13:21:09.000Z</Time>
            <Position>
              <LatitudeDegrees>43.07068898342549800872802734375</LatitudeDegrees>
              <LongitudeDegrees>-5.76922263018786907196044921875</LongitudeDegrees>
            </Position>
            <AltitudeMeters>187.1999969482421875</AltitudeMeters>
            <DistanceMeters>NAN</DistanceMeters>
          </Trackpoint>
          <Trackpoint>
            <Time>2019-10-04T13:21:10.000Z</Time>
            <Position>
              <LatitudeDegrees>43.070671968162059783935546875</LatitudeDegrees>
              <LongitudeDegrees>-5.7692478597164154052734375</LongitudeDegrees>
            </Position>
            <AltitudeMeters>189.399993896484375</AltitudeMeters>
            <DistanceMeters>NAN</DistanceMeters>
          </Trackpoint>
          <Trackpoint>
            <Time>2019-10-04T13:21:11.000Z</Time>
            <Position>
              <LatitudeDegrees>43.070652522146701812744140625</LatitudeDegrees>
              <LongitudeDegrees>-5.7692721672356128692626953125</LongitudeDegrees>
            </Position>
            <AltitudeMeters>193.1999969482421875</AltitudeMeters>
            <DistanceMeters>NAN</DistanceMeters>
          </Trackpoint>
          <Trackpoint>
            <Time>2019-10-04T13:21:12.000Z</Time>
            <Position>
              <LatitudeDegrees>43.07063248939812183380126953125</LatitudeDegrees>
              <LongitudeDegrees>-5.7692969776690006256103515625</LongitudeDegrees>
            </Position>
            <AltitudeMeters>194.399993896484375</AltitudeMeters>
            <DistanceMeters>NAN</DistanceMeters>
          </Trackpoint>
          <Trackpoint>
            <Time>2019-10-04T13:21:13.000Z</Time>
            <Position>
              <LatitudeDegrees>43.07060918770730495452880859375</LatitudeDegrees>
              <LongitudeDegrees>-5.76931893825531005859375</LongitudeDegrees>
            </Position>
            <AltitudeMeters>197.600006103515625</AltitudeMeters>
            <DistanceMeters>NAN</DistanceMeters>
          </Trackpoint>
          <Trackpoint>
            <Time>2019-10-04T13:21:14.000Z</Time>
            <Position>
              <LatitudeDegrees>43.07058177888393402099609375</LatitudeDegrees>
              <LongitudeDegrees>-5.76933478005230426788330078125</LongitudeDegrees>
            </Position>
            <AltitudeMeters>199.8000030517578125</AltitudeMeters>
            <DistanceMeters>NAN</DistanceMeters>
          </Trackpoint>
          <Trackpoint>
            <Time>2019-10-04T13:21:15.000Z</Time>
            <Position>
              <LatitudeDegrees>43.0705521069467067718505859375</LatitudeDegrees>
              <LongitudeDegrees>-5.769351460039615631103515625</LongitudeDegrees>
            </Position>
            <AltitudeMeters>202.1999969482421875</AltitudeMeters>
            <DistanceMeters>NAN</DistanceMeters>
          </Trackpoint>
          <Trackpoint>
            <Time>2019-10-04T13:21:16.000Z</Time>
            <Position>
              <LatitudeDegrees>43.070519752800464630126953125</LatitudeDegrees>
              <LongitudeDegrees>-5.76936520636081695556640625</LongitudeDegrees>
            </Position>
            <AltitudeMeters>204.399993896484375</AltitudeMeters>
            <DistanceMeters>NAN</DistanceMeters>
          </Trackpoint>
          <Trackpoint>
            <Time>2019-10-04T13:21:17.000Z</Time>
            <Position>
              <LatitudeDegrees>43.07048614136874675750732421875</LatitudeDegrees>
              <LongitudeDegrees>-5.7693787850439548492431640625</LongitudeDegrees>
            </Position>
            <AltitudeMeters>206.8000030517578125</AltitudeMeters>
            <DistanceMeters>NAN</DistanceMeters>
          </Trackpoint>
          <Trackpoint>
            <Time>2019-10-04T13:21:18.000Z</Time>
            <Position>
              <LatitudeDegrees>43.0704488418996334075927734375</LatitudeDegrees>
              <LongitudeDegrees>-5.7693918608129024505615234375</LongitudeDegrees>
            </Position>
            <AltitudeMeters>209</AltitudeMeters>
            <DistanceMeters>NAN</DistanceMeters>
          </Trackpoint>
          <Trackpoint>
            <Time>2019-10-04T13:21:19.000Z</Time>
            <Position>
              <LatitudeDegrees>43.07041020132601261138916015625</LatitudeDegrees>
              <LongitudeDegrees>-5.76940451748669147491455078125</LongitudeDegrees>
            </Position>
            <AltitudeMeters>212.1999969482421875</AltitudeMeters>
            <DistanceMeters>NAN</DistanceMeters>
          </Trackpoint>
          <Trackpoint>
            <Time>2019-10-04T13:21:20.000Z</Time>
            <Position>
              <LatitudeDegrees>43.07037055492401123046875</LatitudeDegrees>
              <LongitudeDegrees>-5.76941994018852710723876953125</LongitudeDegrees>
            </Position>
            <AltitudeMeters>213.1999969482421875</AltitudeMeters>
            <DistanceMeters>NAN</DistanceMeters>
          </Trackpoint>
          <Trackpoint>
            <Time>2019-10-04T13:21:21.000Z</Time>
            <Position>
              <LatitudeDegrees>43.0703288130462169647216796875</LatitudeDegrees>
              <LongitudeDegrees>-5.7694317586719989776611328125</LongitudeDegrees>
            </Position>
            <AltitudeMeters>216.600006103515625</AltitudeMeters>
            <DistanceMeters>NAN</DistanceMeters>
          </Trackpoint>
          <Trackpoint>
            <Time>2019-10-04T13:21:22.000Z</Time>
            <Position>
              <LatitudeDegrees>43.070287406444549560546875</LatitudeDegrees>
              <LongitudeDegrees>-5.7694463431835174560546875</LongitudeDegrees>
            </Position>
            <AltitudeMeters>218.600006103515625</AltitudeMeters>
            <DistanceMeters>NAN</DistanceMeters>
          </Trackpoint>
          <Trackpoint>
            <Time>2019-10-04T13:21:23.000Z</Time>
            <Position>
              <LatitudeDegrees>43.07024340145289897918701171875</LatitudeDegrees>
              <LongitudeDegrees>-5.76946671120822429656982421875</LongitudeDegrees>
            </Position>
            <AltitudeMeters>219.8000030517578125</AltitudeMeters>
            <DistanceMeters>NAN</DistanceMeters>
          </Trackpoint>
          <Trackpoint>
            <Time>2019-10-04T13:21:24.000Z</Time>
            <Position>
              <LatitudeDegrees>43.07020149193704128265380859375</LatitudeDegrees>
              <LongitudeDegrees>-5.76949118636548519134521484375</LongitudeDegrees>
            </Position>
            <AltitudeMeters>222.600006103515625</AltitudeMeters>
            <DistanceMeters>NAN</DistanceMeters>
          </Trackpoint>
          <Trackpoint>
            <Time>2019-10-04T13:21:25.000Z</Time>
            <Position>
              <LatitudeDegrees>43.07015907950699329376220703125</LatitudeDegrees>
              <LongitudeDegrees>-5.76951943337917327880859375</LongitudeDegrees>
            </Position>
            <AltitudeMeters>224.399993896484375</AltitudeMeters>
            <DistanceMeters>NAN</DistanceMeters>
          </Trackpoint>
          <Trackpoint>
            <Time>2019-10-04T13:21:26.000Z</Time>
            <Position>
              <LatitudeDegrees>43.07011934928596019744873046875</LatitudeDegrees>
              <LongitudeDegrees>-5.769552290439605712890625</LongitudeDegrees>
            </Position>
            <AltitudeMeters>227.399993896484375</AltitudeMeters>
            <DistanceMeters>NAN</DistanceMeters>
          </Trackpoint>
          <Trackpoint>
            <Time>2019-10-04T13:21:27.000Z</Time>
            <Position>
              <LatitudeDegrees>43.070081882178783416748046875</LatitudeDegrees>
              <LongitudeDegrees>-5.7695863209664821624755859375</LongitudeDegrees>
            </Position>
            <AltitudeMeters>230</AltitudeMeters>
            <DistanceMeters>NAN</DistanceMeters>
          </Trackpoint>
          <Trackpoint>
            <Time>2019-10-04T13:21:28.000Z</Time>
            <Position>
              <LatitudeDegrees>43.07004508562386035919189453125</LatitudeDegrees>
              <LongitudeDegrees>-5.7696260511875152587890625</LongitudeDegrees>
            </Position>
            <AltitudeMeters>233.1999969482421875</AltitudeMeters>
            <DistanceMeters>NAN</DistanceMeters>
          </Trackpoint>
          <Trackpoint>
            <Time>2019-10-04T13:21:30.000Z</Time>
            <Position>
              <LatitudeDegrees>43.0699791200459003448486328125</LatitudeDegrees>
              <LongitudeDegrees>-5.76970450580120086669921875</LongitudeDegrees>
            </Position>
            <AltitudeMeters>237</AltitudeMeters>
            <DistanceMeters>NAN</DistanceMeters>
          </Trackpoint>
          <Trackpoint>
            <Time>2019-10-04T13:21:31.000Z</Time>
            <Position>
              <LatitudeDegrees>43.069950453937053680419921875</LatitudeDegrees>
              <LongitudeDegrees>-5.76975102536380290985107421875</LongitudeDegrees>
            </Position>
            <AltitudeMeters>239.600006103515625</AltitudeMeters>
            <DistanceMeters>NAN</DistanceMeters>
          </Trackpoint>
          <Trackpoint>
            <Time>2019-10-04T13:21:33.000Z</Time>
            <Position>
              <LatitudeDegrees>43.06989823468029499053955078125</LatitudeDegrees>
              <LongitudeDegrees>-5.76984532177448272705078125</LongitudeDegrees>
            </Position>
            <AltitudeMeters>242.600006103515625</AltitudeMeters>
            <DistanceMeters>NAN</DistanceMeters>
          </Trackpoint>
          <Trackpoint>
            <Time>2019-10-04T13:21:34.000Z</Time>
            <Position>
              <LatitudeDegrees>43.06987191550433635711669921875</LatitudeDegrees>
              <LongitudeDegrees>-5.76989519409835338592529296875</LongitudeDegrees>
            </Position>
            <AltitudeMeters>245.8000030517578125</AltitudeMeters>
            <DistanceMeters>NAN</DistanceMeters>
          </Trackpoint>
          <Trackpoint>
            <Time>2019-10-04T13:21:35.000Z</Time>
            <Position>
              <LatitudeDegrees>43.06985079310834407806396484375</LatitudeDegrees>
              <LongitudeDegrees>-5.76994665898382663726806640625</LongitudeDegrees>
            </Position>
            <AltitudeMeters>247.399993896484375</AltitudeMeters>
            <DistanceMeters>NAN</DistanceMeters>
          </Trackpoint>
          <Trackpoint>
            <Time>2019-10-04T13:21:36.000Z</Time>
            <Position>
              <LatitudeDegrees>43.06982866488397121429443359375</LatitudeDegrees>
              <LongitudeDegrees>-5.7699990458786487579345703125</LongitudeDegrees>
            </Position>
            <AltitudeMeters>250</AltitudeMeters>
            <DistanceMeters>NAN</DistanceMeters>
          </Trackpoint>
          <Trackpoint>
            <Time>2019-10-04T13:21:37.000Z</Time>
            <Position>
              <LatitudeDegrees>43.06980804540216922760009765625</LatitudeDegrees>
              <LongitudeDegrees>-5.77005495317280292510986328125</LongitudeDegrees>
            </Position>
            <AltitudeMeters>252</AltitudeMeters>
            <DistanceMeters>NAN</DistanceMeters>
          </Trackpoint>
          <Trackpoint>
            <Time>2019-10-04T13:21:38.000Z</Time>
            <Position>
              <LatitudeDegrees>43.06978491134941577911376953125</LatitudeDegrees>
              <LongitudeDegrees>-5.7701120339334011077880859375</LongitudeDegrees>
            </Position>
            <AltitudeMeters>254.399993896484375</AltitudeMeters>
            <DistanceMeters>NAN</DistanceMeters>
          </Trackpoint>
          <Trackpoint>
            <Time>2019-10-04T13:21:39.000Z</Time>
            <Position>
              <LatitudeDegrees>43.06976462714374065399169921875</LatitudeDegrees>
              <LongitudeDegrees>-5.77016861177980899810791015625</LongitudeDegrees>
            </Position>
            <AltitudeMeters>256.399993896484375</AltitudeMeters>
            <DistanceMeters>NAN</DistanceMeters>
          </Trackpoint>
          <Trackpoint>
            <Time>2019-10-04T13:21:40.000Z</Time>
            <Position>
              <LatitudeDegrees>43.06974333710968494415283203125</LatitudeDegrees>
              <LongitudeDegrees>-5.7702226750552654266357421875</LongitudeDegrees>
            </Position>
            <AltitudeMeters>258.600006103515625</AltitudeMeters>
            <DistanceMeters>NAN</DistanceMeters>
          </Trackpoint>
          <Trackpoint>
            <Time>2019-10-04T13:21:41.000Z</Time>
            <Position>
              <LatitudeDegrees>43.0697243101894855499267578125</LatitudeDegrees>
              <LongitudeDegrees>-5.770280174911022186279296875</LongitudeDegrees>
            </Position>
            <AltitudeMeters>260.399993896484375</AltitudeMeters>
            <DistanceMeters>NAN</DistanceMeters>
          </Trackpoint>
          <Trackpoint>
            <Time>2019-10-04T13:21:42.000Z</Time>
            <Position>
              <LatitudeDegrees>43.06970561854541301727294921875</LatitudeDegrees>
              <LongitudeDegrees>-5.7703376747667789459228515625</LongitudeDegrees>
            </Position>
            <AltitudeMeters>263.79998779296875</AltitudeMeters>
            <DistanceMeters>NAN</DistanceMeters>
          </Trackpoint>
          <Trackpoint>
            <Time>2019-10-04T13:21:44.000Z</Time>
            <Position>
              <LatitudeDegrees>43.06966873817145824432373046875</LatitudeDegrees>
              <LongitudeDegrees>-5.7704523392021656036376953125</LongitudeDegrees>
            </Position>
            <AltitudeMeters>267.79998779296875</AltitudeMeters>
            <DistanceMeters>NAN</DistanceMeters>
          </Trackpoint>
          <Trackpoint>
            <Time>2019-10-04T13:21:46.000Z</Time>
            <Position>
              <LatitudeDegrees>43.06963386945426464080810546875</LatitudeDegrees>
              <LongitudeDegrees>-5.77056457288563251495361328125</LongitudeDegrees>
            </Position>
            <AltitudeMeters>271.20001220703125</AltitudeMeters>
            <DistanceMeters>NAN</DistanceMeters>
          </Trackpoint>
          <Trackpoint>
            <Time>2019-10-04T13:21:47.000Z</Time>
            <Position>
              <LatitudeDegrees>43.0696153454482555389404296875</LatitudeDegrees>
              <LongitudeDegrees>-5.7706206478178501129150390625</LongitudeDegrees>
            </Position>
            <AltitudeMeters>273.600006103515625</AltitudeMeters>
            <DistanceMeters>NAN</DistanceMeters>
          </Trackpoint>
          <Trackpoint>
            <Time>2019-10-04T13:21:48.000Z</Time>
            <Position>
              <LatitudeDegrees>43.069593720138072967529296875</LatitudeDegrees>
              <LongitudeDegrees>-5.77067437581717967987060546875</LongitudeDegrees>
            </Position>
            <AltitudeMeters>274.600006103515625</AltitudeMeters>
            <DistanceMeters>NAN</DistanceMeters>
          </Trackpoint>
          <Trackpoint>
            <Time>2019-10-04T13:21:49.000Z</Time>
            <Position>
              <LatitudeDegrees>43.0695725977420806884765625</LatitudeDegrees>
              <LongitudeDegrees>-5.7707297801971435546875</LongitudeDegrees>
            </Position>
            <AltitudeMeters>277.600006103515625</AltitudeMeters>
            <DistanceMeters>NAN</DistanceMeters>
          </Trackpoint>
          <Trackpoint>
            <Time>2019-10-04T13:21:50.000Z</Time>
            <Position>
              <LatitudeDegrees>43.0695509724318981170654296875</LatitudeDegrees>
              <LongitudeDegrees>-5.7707849331200122833251953125</LongitudeDegrees>
            </Position>
            <AltitudeMeters>278.600006103515625</AltitudeMeters>
            <DistanceMeters>NAN</DistanceMeters>
          </Trackpoint>
          <Trackpoint>
            <Time>2019-10-04T13:21:51.000Z</Time>
            <Position>
              <LatitudeDegrees>43.06952892802655696868896484375</LatitudeDegrees>
              <LongitudeDegrees>-5.77083882875740528106689453125</LongitudeDegrees>
            </Position>
            <AltitudeMeters>281.600006103515625</AltitudeMeters>
            <DistanceMeters>NAN</DistanceMeters>
          </Trackpoint>
          <Trackpoint>
            <Time>2019-10-04T13:21:52.000Z</Time>
            <Position>
              <LatitudeDegrees>43.06950621306896209716796875</LatitudeDegrees>
              <LongitudeDegrees>-5.77089113183319568634033203125</LongitudeDegrees>
            </Position>
            <AltitudeMeters>283.399993896484375</AltitudeMeters>
            <DistanceMeters>NAN</DistanceMeters>
          </Trackpoint>
          <Trackpoint>
            <Time>2019-10-04T13:21:53.000Z</Time>
            <Position>
              <LatitudeDegrees>43.06948148645460605621337890625</LatitudeDegrees>
              <LongitudeDegrees>-5.7709415070712566375732421875</LongitudeDegrees>
            </Position>
            <AltitudeMeters>285.79998779296875</AltitudeMeters>
            <DistanceMeters>NAN</DistanceMeters>
          </Trackpoint>
          <Trackpoint>
            <Time>2019-10-04T13:21:54.000Z</Time>
            <Position>
              <LatitudeDegrees>43.0694545805454254150390625</LatitudeDegrees>
              <LongitudeDegrees>-5.7709877751767635345458984375</LongitudeDegrees>
            </Position>
            <AltitudeMeters>287</AltitudeMeters>
            <DistanceMeters>NAN</DistanceMeters>
          </Trackpoint>
          <Trackpoint>
            <Time>2019-10-04T13:21:55.000Z</Time>
            <Position>
              <LatitudeDegrees>43.06942532770335674285888671875</LatitudeDegrees>
              <LongitudeDegrees>-5.77103245072066783905029296875</LongitudeDegrees>
            </Position>
            <AltitudeMeters>289.20001220703125</AltitudeMeters>
            <DistanceMeters>NAN</DistanceMeters>
          </Trackpoint>
          <Trackpoint>
            <Time>2019-10-04T13:21:56.000Z</Time>
            <Position>
              <LatitudeDegrees>43.06939758360385894775390625</LatitudeDegrees>
              <LongitudeDegrees>-5.77107519842684268951416015625</LongitudeDegrees>
            </Position>
            <AltitudeMeters>292.20001220703125</AltitudeMeters>
            <DistanceMeters>NAN</DistanceMeters>
          </Trackpoint>
          <Trackpoint>
            <Time>2019-10-04T13:21:57.000Z</Time>
            <Position>
              <LatitudeDegrees>43.069371096789836883544921875</LatitudeDegrees>
              <LongitudeDegrees>-5.77111174352467060089111328125</LongitudeDegrees>
            </Position>
            <AltitudeMeters>294.20001220703125</AltitudeMeters>
            <DistanceMeters>NAN</DistanceMeters>
          </Trackpoint>
          <Trackpoint>
            <Time>2019-10-04T13:21:58.000Z</Time>
            <Position>
              <LatitudeDegrees>43.06934528052806854248046875</LatitudeDegrees>
              <LongitudeDegrees>-5.77114594168961048126220703125</LongitudeDegrees>
            </Position>
            <AltitudeMeters>295.600006103515625</AltitudeMeters>
            <DistanceMeters>NAN</DistanceMeters>
          </Trackpoint>
          <Trackpoint>
            <Time>2019-10-04T13:21:59.000Z</Time>
            <Position>
              <LatitudeDegrees>43.06931753642857074737548828125</LatitudeDegrees>
              <LongitudeDegrees>-5.77117762528359889984130859375</LongitudeDegrees>
            </Position>
            <AltitudeMeters>297.399993896484375</AltitudeMeters>
            <DistanceMeters>NAN</DistanceMeters>
          </Trackpoint>
          <Trackpoint>
            <Time>2019-10-04T13:22:00.000Z</Time>
            <Position>
              <LatitudeDegrees>43.0692897923290729522705078125</LatitudeDegrees>
              <LongitudeDegrees>-5.7712070457637310028076171875</LongitudeDegrees>
            </Position>
            <AltitudeMeters>297.79998779296875</AltitudeMeters>
            <DistanceMeters>NAN</DistanceMeters>
          </Trackpoint>
          <Trackpoint>
            <Time>2019-10-04T13:22:01.000Z</Time>
            <Position>
              <LatitudeDegrees>43.06926305405795574188232421875</LatitudeDegrees>
              <LongitudeDegrees>-5.77123311348259449005126953125</LongitudeDegrees>
            </Position>
            <AltitudeMeters>300.79998779296875</AltitudeMeters>
            <DistanceMeters>NAN</DistanceMeters>
          </Trackpoint>
          <Trackpoint>
            <Time>2019-10-04T13:22:02.000Z</Time>
            <Position>
              <LatitudeDegrees>43.06923757307231426239013671875</LatitudeDegrees>
              <LongitudeDegrees>-5.77125842683017253875732421875</LongitudeDegrees>
            </Position>
            <AltitudeMeters>302.79998779296875</AltitudeMeters>
            <DistanceMeters>NAN</DistanceMeters>
          </Trackpoint>
          <Trackpoint>
            <Time>2019-10-04T13:22:04.000Z</Time>
            <Position>
              <LatitudeDegrees>43.06919130496680736541748046875</LatitudeDegrees>
              <LongitudeDegrees>-5.7713024318218231201171875</LongitudeDegrees>
            </Position>
            <AltitudeMeters>306.20001220703125</AltitudeMeters>
            <DistanceMeters>NAN</DistanceMeters>
          </Trackpoint>
          <Trackpoint>
            <Time>2019-10-04T13:22:05.000Z</Time>
            <Position>
              <LatitudeDegrees>43.06916557252407073974609375</LatitudeDegrees>
              <LongitudeDegrees>-5.7713183574378490447998046875</LongitudeDegrees>
            </Position>
            <AltitudeMeters>307.79998779296875</AltitudeMeters>
            <DistanceMeters>NAN</DistanceMeters>
          </Trackpoint>
          <Trackpoint>
            <Time>2019-10-04T13:22:06.000Z</Time>
            <Position>
              <LatitudeDegrees>43.06913875043392181396484375</LatitudeDegrees>
              <LongitudeDegrees>-5.7713250629603862762451171875</LongitudeDegrees>
            </Position>
            <AltitudeMeters>309.600006103515625</AltitudeMeters>
            <DistanceMeters>NAN</DistanceMeters>
          </Trackpoint>
          <Trackpoint>
            <Time>2019-10-04T13:22:07.000Z</Time>
            <Position>
              <LatitudeDegrees>43.0691110901534557342529296875</LatitudeDegrees>
              <LongitudeDegrees>-5.7713341154158115386962890625</LongitudeDegrees>
            </Position>
            <AltitudeMeters>312</AltitudeMeters>
            <DistanceMeters>NAN</DistanceMeters>
          </Trackpoint>
          <Trackpoint>
            <Time>2019-10-04T13:22:09.000Z</Time>
            <Position>
              <LatitudeDegrees>43.0690571106970310211181640625</LatitudeDegrees>
              <LongitudeDegrees>-5.7713498733937740325927734375</LongitudeDegrees>
            </Position>
            <AltitudeMeters>314.399993896484375</AltitudeMeters>
            <DistanceMeters>NAN</DistanceMeters>
          </Trackpoint>
          <Trackpoint>
            <Time>2019-10-04T13:22:10.000Z</Time>
            <Position>
              <LatitudeDegrees>43.06903674267232418060302734375</LatitudeDegrees>
              <LongitudeDegrees>-5.7713569141924381256103515625</LongitudeDegrees>
            </Position>
            <AltitudeMeters>316.600006103515625</AltitudeMeters>
            <DistanceMeters>NAN</DistanceMeters>
          </Trackpoint>
          <Trackpoint>
            <Time>2019-10-04T13:22:12.000Z</Time>
            <Position>
              <LatitudeDegrees>43.0689984373748302459716796875</LatitudeDegrees>
              <LongitudeDegrees>-5.771365463733673095703125</LongitudeDegrees>
            </Position>
            <AltitudeMeters>319</AltitudeMeters>
            <DistanceMeters>NAN</DistanceMeters>
          </Trackpoint>
          <Trackpoint>
            <Time>2019-10-04T13:22:13.000Z</Time>
            <Position>
              <LatitudeDegrees>43.0689793266355991363525390625</LatitudeDegrees>
              <LongitudeDegrees>-5.77136521227657794952392578125</LongitudeDegrees>
            </Position>
            <AltitudeMeters>320.600006103515625</AltitudeMeters>
            <DistanceMeters>NAN</DistanceMeters>
          </Trackpoint>
          <Trackpoint>
            <Time>2019-10-04T13:22:14.000Z</Time>
            <Position>
              <LatitudeDegrees>43.06896231137216091156005859375</LatitudeDegrees>
              <LongitudeDegrees>-5.7713649608194828033447265625</LongitudeDegrees>
            </Position>
            <AltitudeMeters>322</AltitudeMeters>
            <DistanceMeters>NAN</DistanceMeters>
          </Trackpoint>
          <Trackpoint>
            <Time>2019-10-04T13:22:15.000Z</Time>
            <Position>
              <LatitudeDegrees>43.068946301937103271484375</LatitudeDegrees>
              <LongitudeDegrees>-5.7713572494685649871826171875</LongitudeDegrees>
            </Position>
            <AltitudeMeters>323.600006103515625</AltitudeMeters>
            <DistanceMeters>NAN</DistanceMeters>
          </Trackpoint>
          <Trackpoint>
            <Time>2019-10-04T13:22:16.000Z</Time>
            <Position>
              <LatitudeDegrees>43.06892610155045986175537109375</LatitudeDegrees>
              <LongitudeDegrees>-5.7713632844388484954833984375</LongitudeDegrees>
            </Position>
            <AltitudeMeters>325.20001220703125</AltitudeMeters>
            <DistanceMeters>NAN</DistanceMeters>
          </Trackpoint>
          <Trackpoint>
            <Time>2019-10-04T13:22:17.000Z</Time>
            <Position>
              <LatitudeDegrees>43.0689059011638164520263671875</LatitudeDegrees>
              <LongitudeDegrees>-5.771363116800785064697265625</LongitudeDegrees>
            </Position>
            <AltitudeMeters>326.79998779296875</AltitudeMeters>
            <DistanceMeters>NAN</DistanceMeters>
          </Trackpoint>
          <Trackpoint>
            <Time>2019-10-04T13:22:18.000Z</Time>
            <Position>
              <LatitudeDegrees>43.06888662278652191162109375</LatitudeDegrees>
              <LongitudeDegrees>-5.77135465107858180999755859375</LongitudeDegrees>
            </Position>
            <AltitudeMeters>328.20001220703125</AltitudeMeters>
            <DistanceMeters>NAN</DistanceMeters>
          </Trackpoint>
          <Trackpoint>
            <Time>2019-10-04T13:22:19.000Z</Time>
            <Position>
              <LatitudeDegrees>43.0688671767711639404296875</LatitudeDegrees>
              <LongitudeDegrees>-5.7713495381176471710205078125</LongitudeDegrees>
            </Position>
            <AltitudeMeters>330.20001220703125</AltitudeMeters>
            <DistanceMeters>NAN</DistanceMeters>
          </Trackpoint>
          <Trackpoint>
            <Time>2019-10-04T13:22:20.000Z</Time>
            <Position>
              <LatitudeDegrees>43.06885116733610630035400390625</LatitudeDegrees>
              <LongitudeDegrees>-5.77134174294769763946533203125</LongitudeDegrees>
            </Position>
            <AltitudeMeters>331.600006103515625</AltitudeMeters>
            <DistanceMeters>NAN</DistanceMeters>
          </Trackpoint>
          <Trackpoint>
            <Time>2019-10-04T13:22:21.000Z</Time>
            <Position>
              <LatitudeDegrees>43.068831972777843475341796875</LatitudeDegrees>
              <LongitudeDegrees>-5.77133662998676300048828125</LongitudeDegrees>
            </Position>
            <AltitudeMeters>333</AltitudeMeters>
            <DistanceMeters>NAN</DistanceMeters>
          </Trackpoint>
          <Trackpoint>
            <Time>2019-10-04T13:22:22.000Z</Time>
            <Position>
              <LatitudeDegrees>43.06881126947700977325439453125</LatitudeDegrees>
              <LongitudeDegrees>-5.77133185230195522308349609375</LongitudeDegrees>
            </Position>
            <AltitudeMeters>335</AltitudeMeters>
            <DistanceMeters>NAN</DistanceMeters>
          </Trackpoint>
          <Trackpoint>
            <Time>2019-10-04T13:22:24.000Z</Time>
            <Position>
              <LatitudeDegrees>43.06876860558986663818359375</LatitudeDegrees>
              <LongitudeDegrees>-5.77130905352532863616943359375</LongitudeDegrees>
            </Position>
            <AltitudeMeters>338</AltitudeMeters>
            <DistanceMeters>NAN</DistanceMeters>
          </Trackpoint>
          <Trackpoint>
            <Time>2019-10-04T13:22:25.000Z</Time>
            <Position>
              <LatitudeDegrees>43.0687464773654937744140625</LatitudeDegrees>
              <LongitudeDegrees>-5.77130016870796680450439453125</LongitudeDegrees>
            </Position>
            <AltitudeMeters>340</AltitudeMeters>
            <DistanceMeters>NAN</DistanceMeters>
          </Trackpoint>
          <Trackpoint>
            <Time>2019-10-04T13:22:27.000Z</Time>
            <Position>
              <LatitudeDegrees>43.06870481930673122406005859375</LatitudeDegrees>
              <LongitudeDegrees>-5.7712754420936107635498046875</LongitudeDegrees>
            </Position>
            <AltitudeMeters>341.20001220703125</AltitudeMeters>
            <DistanceMeters>NAN</DistanceMeters>
          </Trackpoint>
          <Trackpoint>
            <Time>2019-10-04T13:22:28.000Z</Time>
            <Position>
              <LatitudeDegrees>43.06868654675781726837158203125</LatitudeDegrees>
              <LongitudeDegrees>-5.77126546762883663177490234375</LongitudeDegrees>
            </Position>
            <AltitudeMeters>343</AltitudeMeters>
            <DistanceMeters>NAN</DistanceMeters>
          </Trackpoint>
          <Trackpoint>
            <Time>2019-10-04T13:22:29.000Z</Time>
            <Position>
              <LatitudeDegrees>43.0686655081808567047119140625</LatitudeDegrees>
              <LongitudeDegrees>-5.77125373296439647674560546875</LongitudeDegrees>
            </Position>
            <AltitudeMeters>344.399993896484375</AltitudeMeters>
            <DistanceMeters>NAN</DistanceMeters>
          </Trackpoint>
          <Trackpoint>
            <Time>2019-10-04T13:22:30.000Z</Time>
            <Position>
              <LatitudeDegrees>43.0686453916132450103759765625</LatitudeDegrees>
              <LongitudeDegrees>-5.7712449319660663604736328125</LongitudeDegrees>
            </Position>
            <AltitudeMeters>346</AltitudeMeters>
            <DistanceMeters>NAN</DistanceMeters>
          </Trackpoint>
          <Trackpoint>
            <Time>2019-10-04T13:22:31.000Z</Time>
            <Position>
              <LatitudeDegrees>43.06862720288336277008056640625</LatitudeDegrees>
              <LongitudeDegrees>-5.77123680151998996734619140625</LongitudeDegrees>
            </Position>
            <AltitudeMeters>347.20001220703125</AltitudeMeters>
            <DistanceMeters>NAN</DistanceMeters>
          </Trackpoint>
          <Trackpoint>
            <Time>2019-10-04T13:22:32.000Z</Time>
            <Position>
              <LatitudeDegrees>43.068609349429607391357421875</LatitudeDegrees>
              <LongitudeDegrees>-5.77122406102716922760009765625</LongitudeDegrees>
            </Position>
            <AltitudeMeters>348.399993896484375</AltitudeMeters>
            <DistanceMeters>NAN</DistanceMeters>
          </Trackpoint>
          <Trackpoint>
            <Time>2019-10-04T13:22:33.000Z</Time>
            <Position>
              <LatitudeDegrees>43.0685910768806934356689453125</LatitudeDegrees>
              <LongitudeDegrees>-5.771212242543697357177734375</LongitudeDegrees>
            </Position>
            <AltitudeMeters>349.600006103515625</AltitudeMeters>
            <DistanceMeters>NAN</DistanceMeters>
          </Trackpoint>
          <Trackpoint>
            <Time>2019-10-04T13:22:34.000Z</Time>
            <Position>
              <LatitudeDegrees>43.06857339106500148773193359375</LatitudeDegrees>
              <LongitudeDegrees>-5.77120092697441577911376953125</LongitudeDegrees>
            </Position>
            <AltitudeMeters>351</AltitudeMeters>
            <DistanceMeters>NAN</DistanceMeters>
          </Trackpoint>
          <Trackpoint>
            <Time>2019-10-04T13:22:35.000Z</Time>
            <Position>
              <LatitudeDegrees>43.0685538612306118011474609375</LatitudeDegrees>
              <LongitudeDegrees>-5.77119070105254650115966796875</LongitudeDegrees>
            </Position>
            <AltitudeMeters>352.20001220703125</AltitudeMeters>
            <DistanceMeters>NAN</DistanceMeters>
          </Trackpoint>
          <Trackpoint>
            <Time>2019-10-04T13:22:36.000Z</Time>
            <Position>
              <LatitudeDegrees>43.06853516958653926849365234375</LatitudeDegrees>
              <LongitudeDegrees>-5.7711763679981231689453125</LongitudeDegrees>
            </Position>
            <AltitudeMeters>353.600006103515625</AltitudeMeters>
            <DistanceMeters>NAN</DistanceMeters>
          </Trackpoint>
          <Trackpoint>
            <Time>2019-10-04T13:22:37.000Z</Time>
            <Position>
              <LatitudeDegrees>43.06851505301892757415771484375</LatitudeDegrees>
              <LongitudeDegrees>-5.77116572298109531402587890625</LongitudeDegrees>
            </Position>
            <AltitudeMeters>354.79998779296875</AltitudeMeters>
            <DistanceMeters>NAN</DistanceMeters>
          </Trackpoint>
          <Trackpoint>
            <Time>2019-10-04T13:22:38.000Z</Time>
            <Position>
              <LatitudeDegrees>43.0684968642890453338623046875</LatitudeDegrees>
              <LongitudeDegrees>-5.77115650288760662078857421875</LongitudeDegrees>
            </Position>
            <AltitudeMeters>355.79998779296875</AltitudeMeters>
            <DistanceMeters>NAN</DistanceMeters>
          </Trackpoint>
          <Trackpoint>
            <Time>2019-10-04T13:22:39.000Z</Time>
            <Position>
              <LatitudeDegrees>43.068479262292385101318359375</LatitudeDegrees>
              <LongitudeDegrees>-5.77114619314670562744140625</LongitudeDegrees>
            </Position>
            <AltitudeMeters>357</AltitudeMeters>
            <DistanceMeters>NAN</DistanceMeters>
          </Trackpoint>
          <Trackpoint>
            <Time>2019-10-04T13:22:40.000Z</Time>
            <Position>
              <LatitudeDegrees>43.06846149265766143798828125</LatitudeDegrees>
              <LongitudeDegrees>-5.77113655395805835723876953125</LongitudeDegrees>
            </Position>
            <AltitudeMeters>358.600006103515625</AltitudeMeters>
            <DistanceMeters>NAN</DistanceMeters>
          </Trackpoint>
          <Trackpoint>
            <Time>2019-10-04T13:22:41.000Z</Time>
            <Position>
              <LatitudeDegrees>43.06844397448003292083740234375</LatitudeDegrees>
              <LongitudeDegrees>-5.77112565748393535614013671875</LongitudeDegrees>
            </Position>
            <AltitudeMeters>359.79998779296875</AltitudeMeters>
            <DistanceMeters>NAN</DistanceMeters>
          </Trackpoint>
          <Trackpoint>
            <Time>2019-10-04T13:22:42.000Z</Time>
            <Position>
              <LatitudeDegrees>43.0684244446456432342529296875</LatitudeDegrees>
              <LongitudeDegrees>-5.7711145095527172088623046875</LongitudeDegrees>
            </Position>
            <AltitudeMeters>361</AltitudeMeters>
            <DistanceMeters>NAN</DistanceMeters>
          </Trackpoint>
          <Trackpoint>
            <Time>2019-10-04T13:22:44.000Z</Time>
            <Position>
              <LatitudeDegrees>43.068383373320102691650390625</LatitudeDegrees>
              <LongitudeDegrees>-5.7710960693657398223876953125</LongitudeDegrees>
            </Position>
            <AltitudeMeters>363</AltitudeMeters>
            <DistanceMeters>NAN</DistanceMeters>
          </Trackpoint>
          <Trackpoint>
            <Time>2019-10-04T13:22:45.000Z</Time>
            <Position>
              <LatitudeDegrees>43.06836350820958614349365234375</LatitudeDegrees>
              <LongitudeDegrees>-5.77108860947191715240478515625</LongitudeDegrees>
            </Position>
            <AltitudeMeters>364</AltitudeMeters>
            <DistanceMeters>NAN</DistanceMeters>
          </Trackpoint>
          <Trackpoint>
            <Time>2019-10-04T13:22:47.000Z</Time>
            <Position>
              <LatitudeDegrees>43.06832377798855304718017578125</LatitudeDegrees>
              <LongitudeDegrees>-5.77106681652367115020751953125</LongitudeDegrees>
            </Position>
            <AltitudeMeters>366.20001220703125</AltitudeMeters>
            <DistanceMeters>NAN</DistanceMeters>
          </Trackpoint>
          <Trackpoint>
            <Time>2019-10-04T13:22:48.000Z</Time>
            <Position>
              <LatitudeDegrees>43.06830466724932193756103515625</LatitudeDegrees>
              <LongitudeDegrees>-5.7710555009543895721435546875</LongitudeDegrees>
            </Position>
            <AltitudeMeters>368</AltitudeMeters>
            <DistanceMeters>NAN</DistanceMeters>
          </Trackpoint>
          <Trackpoint>
            <Time>2019-10-04T13:22:50.000Z</Time>
            <Position>
              <LatitudeDegrees>43.06826275773346424102783203125</LatitudeDegrees>
              <LongitudeDegrees>-5.7710380665957927703857421875</LongitudeDegrees>
            </Position>
            <AltitudeMeters>369.600006103515625</AltitudeMeters>
            <DistanceMeters>NAN</DistanceMeters>
          </Trackpoint>
          <Trackpoint>
            <Time>2019-10-04T13:22:51.000Z</Time>
            <Position>
              <LatitudeDegrees>43.0682410486042499542236328125</LatitudeDegrees>
              <LongitudeDegrees>-5.77103228308260440826416015625</LongitudeDegrees>
            </Position>
            <AltitudeMeters>370.79998779296875</AltitudeMeters>
            <DistanceMeters>NAN</DistanceMeters>
          </Trackpoint>
          <Trackpoint>
            <Time>2019-10-04T13:22:52.000Z</Time>
            <Position>
              <LatitudeDegrees>43.068222105503082275390625</LatitudeDegrees>
              <LongitudeDegrees>-5.77102658338844776153564453125</LongitudeDegrees>
            </Position>
            <AltitudeMeters>371.79998779296875</AltitudeMeters>
            <DistanceMeters>NAN</DistanceMeters>
          </Trackpoint>
          <Trackpoint>
            <Time>2019-10-04T13:22:53.000Z</Time>
            <Position>
              <LatitudeDegrees>43.06820240803062915802001953125</LatitudeDegrees>
              <LongitudeDegrees>-5.7710209675133228302001953125</LongitudeDegrees>
            </Position>
            <AltitudeMeters>373.600006103515625</AltitudeMeters>
            <DistanceMeters>NAN</DistanceMeters>
          </Trackpoint>
          <Trackpoint>
            <Time>2019-10-04T13:22:55.000Z</Time>
            <Position>
              <LatitudeDegrees>43.06816368363797664642333984375</LatitudeDegrees>
              <LongitudeDegrees>-5.77101183123886585235595703125</LongitudeDegrees>
            </Position>
            <AltitudeMeters>375.79998779296875</AltitudeMeters>
            <DistanceMeters>NAN</DistanceMeters>
          </Trackpoint>
          <Trackpoint>
            <Time>2019-10-04T13:22:57.000Z</Time>
            <Position>
              <LatitudeDegrees>43.068119175732135772705078125</LatitudeDegrees>
              <LongitudeDegrees>-5.77100629918277263641357421875</LongitudeDegrees>
            </Position>
            <AltitudeMeters>377.79998779296875</AltitudeMeters>
            <DistanceMeters>NAN</DistanceMeters>
          </Trackpoint>
          <Trackpoint>
            <Time>2019-10-04T13:22:58.000Z</Time>
            <Position>
              <LatitudeDegrees>43.06809662841260433197021484375</LatitudeDegrees>
              <LongitudeDegrees>-5.7710018567740917205810546875</LongitudeDegrees>
            </Position>
            <AltitudeMeters>379.20001220703125</AltitudeMeters>
            <DistanceMeters>NAN</DistanceMeters>
          </Trackpoint>
          <Trackpoint>
            <Time>2019-10-04T13:23:00.000Z</Time>
            <Position>
              <LatitudeDegrees>43.0680549703538417816162109375</LatitudeDegrees>
              <LongitudeDegrees>-5.770998336374759674072265625</LongitudeDegrees>
            </Position>
            <AltitudeMeters>381</AltitudeMeters>
            <DistanceMeters>NAN</DistanceMeters>
          </Trackpoint>
          <Trackpoint>
            <Time>2019-10-04T13:23:02.000Z</Time>
            <Position>
              <LatitudeDegrees>43.06801096536219120025634765625</LatitudeDegrees>
              <LongitudeDegrees>-5.77099489979445934295654296875</LongitudeDegrees>
            </Position>
            <AltitudeMeters>383</AltitudeMeters>
            <DistanceMeters>NAN</DistanceMeters>
          </Trackpoint>
          <Trackpoint>
            <Time>2019-10-04T13:23:03.000Z</Time>
            <Position>
              <LatitudeDegrees>43.06798808276653289794921875</LatitudeDegrees>
              <LongitudeDegrees>-5.7709934748709201812744140625</LongitudeDegrees>
            </Position>
            <AltitudeMeters>384.399993896484375</AltitudeMeters>
            <DistanceMeters>NAN</DistanceMeters>
          </Trackpoint>
          <Trackpoint>
            <Time>2019-10-04T13:23:05.000Z</Time>
            <Position>
              <LatitudeDegrees>43.06794340722262859344482421875</LatitudeDegrees>
              <LongitudeDegrees>-5.7709874399006366729736328125</LongitudeDegrees>
            </Position>
            <AltitudeMeters>386</AltitudeMeters>
            <DistanceMeters>NAN</DistanceMeters>
          </Trackpoint>
          <Trackpoint>
            <Time>2019-10-04T13:23:07.000Z</Time>
            <Position>
              <LatitudeDegrees>43.0678977258503437042236328125</LatitudeDegrees>
              <LongitudeDegrees>-5.77098450623452663421630859375</LongitudeDegrees>
            </Position>
            <AltitudeMeters>388</AltitudeMeters>
            <DistanceMeters>NAN</DistanceMeters>
          </Trackpoint>
          <Trackpoint>
            <Time>2019-10-04T13:23:09.000Z</Time>
            <Position>
              <LatitudeDegrees>43.067852295935153961181640625</LatitudeDegrees>
              <LongitudeDegrees>-5.770976543426513671875</LongitudeDegrees>
            </Position>
            <AltitudeMeters>390.20001220703125</AltitudeMeters>
            <DistanceMeters>NAN</DistanceMeters>
          </Trackpoint>
          <Trackpoint>
            <Time>2019-10-04T13:23:11.000Z</Time>
            <Position>
              <LatitudeDegrees>43.06780644692480564117431640625</LatitudeDegrees>
              <LongitudeDegrees>-5.77097587287425994873046875</LongitudeDegrees>
            </Position>
            <AltitudeMeters>392</AltitudeMeters>
            <DistanceMeters>NAN</DistanceMeters>
          </Trackpoint>
          <Trackpoint>
            <Time>2019-10-04T13:23:13.000Z</Time>
            <Position>
              <LatitudeDegrees>43.067761100828647613525390625</LatitudeDegrees>
              <LongitudeDegrees>-5.7709723524749279022216796875</LongitudeDegrees>
            </Position>
            <AltitudeMeters>394.399993896484375</AltitudeMeters>
            <DistanceMeters>NAN</DistanceMeters>
          </Trackpoint>
          <Trackpoint>
            <Time>2019-10-04T13:23:14.000Z</Time>
            <Position>
              <LatitudeDegrees>43.06773670949041843414306640625</LatitudeDegrees>
              <LongitudeDegrees>-5.77097126282751560211181640625</LongitudeDegrees>
            </Position>
            <AltitudeMeters>395.20001220703125</AltitudeMeters>
            <DistanceMeters>NAN</DistanceMeters>
          </Trackpoint>
          <Trackpoint>
            <Time>2019-10-04T13:23:15.000Z</Time>
            <Position>
              <LatitudeDegrees>43.06771240197122097015380859375</LatitudeDegrees>
              <LongitudeDegrees>-5.77097159810364246368408203125</LongitudeDegrees>
            </Position>
            <AltitudeMeters>395.79998779296875</AltitudeMeters>
            <DistanceMeters>NAN</DistanceMeters>
          </Trackpoint>
          <Trackpoint>
            <Time>2019-10-04T13:23:16.000Z</Time>
            <Position>
              <LatitudeDegrees>43.06768893264234066009521484375</LatitudeDegrees>
              <LongitudeDegrees>-5.77097050845623016357421875</LongitudeDegrees>
            </Position>
            <AltitudeMeters>397.20001220703125</AltitudeMeters>
            <DistanceMeters>NAN</DistanceMeters>
          </Trackpoint>
          <Trackpoint>
            <Time>2019-10-04T13:23:17.000Z</Time>
            <Position>
              <LatitudeDegrees>43.06766663677990436553955078125</LatitudeDegrees>
              <LongitudeDegrees>-5.77097143046557903289794921875</LongitudeDegrees>
            </Position>
            <AltitudeMeters>398.79998779296875</AltitudeMeters>
            <DistanceMeters>NAN</DistanceMeters>
          </Trackpoint>
          <Trackpoint>
            <Time>2019-10-04T13:23:20.000Z</Time>
            <Position>
              <LatitudeDegrees>43.0675963126122951507568359375</LatitudeDegrees>
              <LongitudeDegrees>-5.77096648514270782470703125</LongitudeDegrees>
            </Position>
            <AltitudeMeters>401.399993896484375</AltitudeMeters>
            <DistanceMeters>NAN</DistanceMeters>
          </Trackpoint>
          <Trackpoint>
            <Time>2019-10-04T13:23:21.000Z</Time>
            <Position>
              <LatitudeDegrees>43.06757359765470027923583984375</LatitudeDegrees>
              <LongitudeDegrees>-5.7709643058478832244873046875</LongitudeDegrees>
            </Position>
            <AltitudeMeters>402.600006103515625</AltitudeMeters>
            <DistanceMeters>NAN</DistanceMeters>
          </Trackpoint>
          <Trackpoint>
            <Time>2019-10-04T13:23:23.000Z</Time>
            <Position>
              <LatitudeDegrees>43.0675269104540348052978515625</LatitudeDegrees>
              <LongitudeDegrees>-5.77096170745790004730224609375</LongitudeDegrees>
            </Position>
            <AltitudeMeters>404.399993896484375</AltitudeMeters>
            <DistanceMeters>NAN</DistanceMeters>
          </Trackpoint>
          <Trackpoint>
            <Time>2019-10-04T13:23:25.000Z</Time>
            <Position>
              <LatitudeDegrees>43.06748449802398681640625</LatitudeDegrees>
              <LongitudeDegrees>-5.77096405439078807830810546875</LongitudeDegrees>
            </Position>
            <AltitudeMeters>406</AltitudeMeters>
            <DistanceMeters>NAN</DistanceMeters>
          </Trackpoint>
          <Trackpoint>
            <Time>2019-10-04T13:23:27.000Z</Time>
            <Position>
              <LatitudeDegrees>43.067439906299114227294921875</LatitudeDegrees>
              <LongitudeDegrees>-5.77097092755138874053955078125</LongitudeDegrees>
            </Position>
            <AltitudeMeters>408.20001220703125</AltitudeMeters>
            <DistanceMeters>NAN</DistanceMeters>
          </Trackpoint>
          <Trackpoint>
            <Time>2019-10-04T13:23:29.000Z</Time>
            <Position>
              <LatitudeDegrees>43.06739388965070247650146484375</LatitudeDegrees>
              <LongitudeDegrees>-5.77097360976040363311767578125</LongitudeDegrees>
            </Position>
            <AltitudeMeters>409.600006103515625</AltitudeMeters>
            <DistanceMeters>NAN</DistanceMeters>
          </Trackpoint>
          <Trackpoint>
            <Time>2019-10-04T13:23:30.000Z</Time>
            <Position>
              <LatitudeDegrees>43.067371509969234466552734375</LatitudeDegrees>
              <LongitudeDegrees>-5.770980231463909149169921875</LongitudeDegrees>
            </Position>
            <AltitudeMeters>410.399993896484375</AltitudeMeters>
            <DistanceMeters>NAN</DistanceMeters>
          </Trackpoint>
          <Trackpoint>
            <Time>2019-10-04T13:23:31.000Z</Time>
            <Position>
              <LatitudeDegrees>43.06734879501163959503173828125</LatitudeDegrees>
              <LongitudeDegrees>-5.770986936986446380615234375</LongitudeDegrees>
            </Position>
            <AltitudeMeters>411.79998779296875</AltitudeMeters>
            <DistanceMeters>NAN</DistanceMeters>
          </Trackpoint>
          <Trackpoint>
            <Time>2019-10-04T13:23:33.000Z</Time>
            <Position>
              <LatitudeDegrees>43.0673052929341793060302734375</LatitudeDegrees>
              <LongitudeDegrees>-5.7710035331547260284423828125</LongitudeDegrees>
            </Position>
            <AltitudeMeters>413.20001220703125</AltitudeMeters>
            <DistanceMeters>NAN</DistanceMeters>
          </Trackpoint>
          <Trackpoint>
            <Time>2019-10-04T13:23:35.000Z</Time>
            <Position>
              <LatitudeDegrees>43.06725994683802127838134765625</LatitudeDegrees>
              <LongitudeDegrees>-5.77101434580981731414794921875</LongitudeDegrees>
            </Position>
            <AltitudeMeters>414.79998779296875</AltitudeMeters>
            <DistanceMeters>NAN</DistanceMeters>
          </Trackpoint>
          <Trackpoint>
            <Time>2019-10-04T13:23:36.000Z</Time>
            <Position>
              <LatitudeDegrees>43.06723681278526782989501953125</LatitudeDegrees>
              <LongitudeDegrees>-5.7710216380655765533447265625</LongitudeDegrees>
            </Position>
            <AltitudeMeters>416.20001220703125</AltitudeMeters>
            <DistanceMeters>NAN</DistanceMeters>
          </Trackpoint>
          <Trackpoint>
            <Time>2019-10-04T13:23:38.000Z</Time>
            <Position>
              <LatitudeDegrees>43.0671879462897777557373046875</LatitudeDegrees>
              <LongitudeDegrees>-5.77103815041482448577880859375</LongitudeDegrees>
            </Position>
            <AltitudeMeters>417.399993896484375</AltitudeMeters>
            <DistanceMeters>NAN</DistanceMeters>
          </Trackpoint>
          <Trackpoint>
            <Time>2019-10-04T13:23:39.000Z</Time>
            <Position>
              <LatitudeDegrees>43.067164979875087738037109375</LatitudeDegrees>
              <LongitudeDegrees>-5.77105072326958179473876953125</LongitudeDegrees>
            </Position>
            <AltitudeMeters>418.600006103515625</AltitudeMeters>
            <DistanceMeters>NAN</DistanceMeters>
          </Trackpoint>
          <Trackpoint>
            <Time>2019-10-04T13:23:40.000Z</Time>
            <Position>
              <LatitudeDegrees>43.0671426840126514434814453125</LatitudeDegrees>
              <LongitudeDegrees>-5.7710618712007999420166015625</LongitudeDegrees>
            </Position>
            <AltitudeMeters>419.399993896484375</AltitudeMeters>
            <DistanceMeters>NAN</DistanceMeters>
          </Trackpoint>
          <Trackpoint>
            <Time>2019-10-04T13:23:41.000Z</Time>
            <Position>
              <LatitudeDegrees>43.06711879558861255645751953125</LatitudeDegrees>
              <LongitudeDegrees>-5.77107436023652553558349609375</LongitudeDegrees>
            </Position>
            <AltitudeMeters>420.399993896484375</AltitudeMeters>
            <DistanceMeters>NAN</DistanceMeters>
          </Trackpoint>
          <Trackpoint>
            <Time>2019-10-04T13:23:43.000Z</Time>
            <Position>
              <LatitudeDegrees>43.06707520969212055206298828125</LatitudeDegrees>
              <LongitudeDegrees>-5.7711021043360233306884765625</LongitudeDegrees>
            </Position>
            <AltitudeMeters>423.20001220703125</AltitudeMeters>
            <DistanceMeters>NAN</DistanceMeters>
          </Trackpoint>
          <Trackpoint>
            <Time>2019-10-04T13:23:45.000Z</Time>
            <Position>
              <LatitudeDegrees>43.0670320428907871246337890625</LatitudeDegrees>
              <LongitudeDegrees>-5.77112901024520397186279296875</LongitudeDegrees>
            </Position>
            <AltitudeMeters>424.20001220703125</AltitudeMeters>
            <DistanceMeters>NAN</DistanceMeters>
          </Trackpoint>
          <Trackpoint>
            <Time>2019-10-04T13:23:47.000Z</Time>
            <Position>
              <LatitudeDegrees>43.06699097156524658203125</LatitudeDegrees>
              <LongitudeDegrees>-5.771155916154384613037109375</LongitudeDegrees>
            </Position>
            <AltitudeMeters>425.79998779296875</AltitudeMeters>
            <DistanceMeters>NAN</DistanceMeters>
          </Trackpoint>
          <Trackpoint>
            <Time>2019-10-04T13:23:48.000Z</Time>
            <Position>
              <LatitudeDegrees>43.0669686757028102874755859375</LatitudeDegrees>
              <LongitudeDegrees>-5.7711683213710784912109375</LongitudeDegrees>
            </Position>
            <AltitudeMeters>427</AltitudeMeters>
            <DistanceMeters>NAN</DistanceMeters>
          </Trackpoint>
          <Trackpoint>
            <Time>2019-10-04T13:23:49.000Z</Time>
            <Position>
              <LatitudeDegrees>43.06694881059229373931884765625</LatitudeDegrees>
              <LongitudeDegrees>-5.7711832411587238311767578125</LongitudeDegrees>
            </Position>
            <AltitudeMeters>428</AltitudeMeters>
            <DistanceMeters>NAN</DistanceMeters>
          </Trackpoint>
          <Trackpoint>
            <Time>2019-10-04T13:23:50.000Z</Time>
            <Position>
              <LatitudeDegrees>43.0669301189482212066650390625</LatitudeDegrees>
              <LongitudeDegrees>-5.771197490394115447998046875</LongitudeDegrees>
            </Position>
            <AltitudeMeters>428.20001220703125</AltitudeMeters>
            <DistanceMeters>NAN</DistanceMeters>
          </Trackpoint>
          <Trackpoint>
            <Time>2019-10-04T13:23:52.000Z</Time>
            <Position>
              <LatitudeDegrees>43.066888712346553802490234375</LatitudeDegrees>
              <LongitudeDegrees>-5.7712238095700740814208984375</LongitudeDegrees>
            </Position>
            <AltitudeMeters>429.79998779296875</AltitudeMeters>
            <DistanceMeters>NAN</DistanceMeters>
          </Trackpoint>
          <Trackpoint>
            <Time>2019-10-04T13:23:54.000Z</Time>
            <Position>
              <LatitudeDegrees>43.0668506585061550140380859375</LatitudeDegrees>
              <LongitudeDegrees>-5.771254487335681915283203125</LongitudeDegrees>
            </Position>
            <AltitudeMeters>431.399993896484375</AltitudeMeters>
            <DistanceMeters>NAN</DistanceMeters>
          </Trackpoint>
          <Trackpoint>
            <Time>2019-10-04T13:23:55.000Z</Time>
            <Position>
              <LatitudeDegrees>43.06683263741433620452880859375</LatitudeDegrees>
              <LongitudeDegrees>-5.7712663896381855010986328125</LongitudeDegrees>
            </Position>
            <AltitudeMeters>432.600006103515625</AltitudeMeters>
            <DistanceMeters>NAN</DistanceMeters>
          </Trackpoint>
          <Trackpoint>
            <Time>2019-10-04T13:23:57.000Z</Time>
            <Position>
              <LatitudeDegrees>43.06678938679397106170654296875</LatitudeDegrees>
              <LongitudeDegrees>-5.77129078097641468048095703125</LongitudeDegrees>
            </Position>
            <AltitudeMeters>433.600006103515625</AltitudeMeters>
            <DistanceMeters>NAN</DistanceMeters>
          </Trackpoint>
          <Trackpoint>
            <Time>2019-10-04T13:23:59.000Z</Time>
            <Position>
              <LatitudeDegrees>43.066751249134540557861328125</LatitudeDegrees>
              <LongitudeDegrees>-5.7713212072849273681640625</LongitudeDegrees>
            </Position>
            <AltitudeMeters>435</AltitudeMeters>
            <DistanceMeters>NAN</DistanceMeters>
          </Trackpoint>
          <Trackpoint>
            <Time>2019-10-04T13:24:00.000Z</Time>
            <Position>
              <LatitudeDegrees>43.06673289276659488677978515625</LatitudeDegrees>
              <LongitudeDegrees>-5.77133721671998500823974609375</LongitudeDegrees>
            </Position>
            <AltitudeMeters>435.79998779296875</AltitudeMeters>
            <DistanceMeters>NAN</DistanceMeters>
          </Trackpoint>
          <Trackpoint>
            <Time>2019-10-04T13:24:01.000Z</Time>
            <Position>
              <LatitudeDegrees>43.06671562604606151580810546875</LatitudeDegrees>
              <LongitudeDegrees>-5.77135113067924976348876953125</LongitudeDegrees>
            </Position>
            <AltitudeMeters>437</AltitudeMeters>
            <DistanceMeters>NAN</DistanceMeters>
          </Trackpoint>
          <Trackpoint>
            <Time>2019-10-04T13:24:03.000Z</Time>
            <Position>
              <LatitudeDegrees>43.0666746385395526885986328125</LatitudeDegrees>
              <LongitudeDegrees>-5.77137954533100128173828125</LongitudeDegrees>
            </Position>
            <AltitudeMeters>438.399993896484375</AltitudeMeters>
            <DistanceMeters>NAN</DistanceMeters>
          </Trackpoint>
          <Trackpoint>
            <Time>2019-10-04T13:24:04.000Z</Time>
            <Position>
              <LatitudeDegrees>43.06665636599063873291015625</LatitudeDegrees>
              <LongitudeDegrees>-5.77139656059443950653076171875</LongitudeDegrees>
            </Position>
            <AltitudeMeters>439.600006103515625</AltitudeMeters>
            <DistanceMeters>NAN</DistanceMeters>
          </Trackpoint>
          <Trackpoint>
            <Time>2019-10-04T13:24:06.000Z</Time>
            <Position>
              <LatitudeDegrees>43.06662174873054027557373046875</LatitudeDegrees>
              <LongitudeDegrees>-5.7714320160448551177978515625</LongitudeDegrees>
            </Position>
            <AltitudeMeters>440.600006103515625</AltitudeMeters>
            <DistanceMeters>NAN</DistanceMeters>
          </Trackpoint>
          <Trackpoint>
            <Time>2019-10-04T13:24:08.000Z</Time>
            <Position>
              <LatitudeDegrees>43.066586963832378387451171875</LatitudeDegrees>
              <LongitudeDegrees>-5.77146545983850955963134765625</LongitudeDegrees>
            </Position>
            <AltitudeMeters>442</AltitudeMeters>
            <DistanceMeters>NAN</DistanceMeters>
          </Trackpoint>
          <Trackpoint>
            <Time>2019-10-04T13:24:10.000Z</Time>
            <Position>
              <LatitudeDegrees>43.06655310094356536865234375</LatitudeDegrees>
              <LongitudeDegrees>-5.7715014182031154632568359375</LongitudeDegrees>
            </Position>
            <AltitudeMeters>443.79998779296875</AltitudeMeters>
            <DistanceMeters>NAN</DistanceMeters>
          </Trackpoint>
          <Trackpoint>
            <Time>2019-10-04T13:24:11.000Z</Time>
            <Position>
              <LatitudeDegrees>43.06653994135558605194091796875</LatitudeDegrees>
              <LongitudeDegrees>-5.77152497135102748870849609375</LongitudeDegrees>
            </Position>
            <AltitudeMeters>445</AltitudeMeters>
            <DistanceMeters>NAN</DistanceMeters>
          </Trackpoint>
          <Trackpoint>
            <Time>2019-10-04T13:24:13.000Z</Time>
            <Position>
              <LatitudeDegrees>43.06651446036994457244873046875</LatitudeDegrees>
              <LongitudeDegrees>-5.7715684734284877777099609375</LongitudeDegrees>
            </Position>
            <AltitudeMeters>446</AltitudeMeters>
            <DistanceMeters>NAN</DistanceMeters>
          </Trackpoint>
          <Trackpoint>
            <Time>2019-10-04T13:24:16.000Z</Time>
            <Position>
              <LatitudeDegrees>43.0664778314530849456787109375</LatitudeDegrees>
              <LongitudeDegrees>-5.771639049053192138671875</LongitudeDegrees>
            </Position>
            <AltitudeMeters>447.399993896484375</AltitudeMeters>
            <DistanceMeters>NAN</DistanceMeters>
          </Trackpoint>
          <Trackpoint>
            <Time>2019-10-04T13:24:18.000Z</Time>
            <Position>
              <LatitudeDegrees>43.0664506740868091583251953125</LatitudeDegrees>
              <LongitudeDegrees>-5.771683640778064727783203125</LongitudeDegrees>
            </Position>
            <AltitudeMeters>449</AltitudeMeters>
            <DistanceMeters>NAN</DistanceMeters>
          </Trackpoint>
          <Trackpoint>
            <Time>2019-10-04T13:24:19.000Z</Time>
            <Position>
              <LatitudeDegrees>43.06643717922270298004150390625</LatitudeDegrees>
              <LongitudeDegrees>-5.77170752920210361480712890625</LongitudeDegrees>
            </Position>
            <AltitudeMeters>449.600006103515625</AltitudeMeters>
            <DistanceMeters>NAN</DistanceMeters>
          </Trackpoint>
          <Trackpoint>
            <Time>2019-10-04T13:24:20.000Z</Time>
            <Position>
              <LatitudeDegrees>43.06642427109181880950927734375</LatitudeDegrees>
              <LongitudeDegrees>-5.771739296615123748779296875</LongitudeDegrees>
            </Position>
            <AltitudeMeters>450</AltitudeMeters>
            <DistanceMeters>NAN</DistanceMeters>
          </Trackpoint>
          <Trackpoint>
            <Time>2019-10-04T13:24:23.000Z</Time>
            <Position>
              <LatitudeDegrees>43.06639350950717926025390625</LatitudeDegrees>
              <LongitudeDegrees>-5.77181163243949413299560546875</LongitudeDegrees>
            </Position>
            <AltitudeMeters>451.20001220703125</AltitudeMeters>
            <DistanceMeters>NAN</DistanceMeters>
          </Trackpoint>
          <Trackpoint>
            <Time>2019-10-04T13:24:24.000Z</Time>
            <Position>
              <LatitudeDegrees>43.06638319976627826690673828125</LatitudeDegrees>
              <LongitudeDegrees>-5.771839208900928497314453125</LongitudeDegrees>
            </Position>
            <AltitudeMeters>452.399993896484375</AltitudeMeters>
            <DistanceMeters>NAN</DistanceMeters>
          </Trackpoint>
          <Trackpoint>
            <Time>2019-10-04T13:24:27.000Z</Time>
            <Position>
              <LatitudeDegrees>43.06634682230651378631591796875</LatitudeDegrees>
              <LongitudeDegrees>-5.7719168253242969512939453125</LongitudeDegrees>
            </Position>
            <AltitudeMeters>453.79998779296875</AltitudeMeters>
            <DistanceMeters>NAN</DistanceMeters>
          </Trackpoint>
          <Trackpoint>
            <Time>2019-10-04T13:24:29.000Z</Time>
            <Position>
              <LatitudeDegrees>43.06632117368280887603759765625</LatitudeDegrees>
              <LongitudeDegrees>-5.77196669764816761016845703125</LongitudeDegrees>
            </Position>
            <AltitudeMeters>455.600006103515625</AltitudeMeters>
            <DistanceMeters>NAN</DistanceMeters>
          </Trackpoint>
          <Trackpoint>
            <Time>2019-10-04T13:24:33.000Z</Time>
            <Position>
              <LatitudeDegrees>43.066269122064113616943359375</LatitudeDegrees>
              <LongitudeDegrees>-5.7720663584768772125244140625</LongitudeDegrees>
            </Position>
            <AltitudeMeters>457.79998779296875</AltitudeMeters>
            <DistanceMeters>NAN</DistanceMeters>
          </Trackpoint>
          <Trackpoint>
            <Time>2019-10-04T13:24:34.000Z</Time>
            <Position>
              <LatitudeDegrees>43.06625914759933948516845703125</LatitudeDegrees>
              <LongitudeDegrees>-5.7720935158431529998779296875</LongitudeDegrees>
            </Position>
            <AltitudeMeters>458.399993896484375</AltitudeMeters>
            <DistanceMeters>NAN</DistanceMeters>
          </Trackpoint>
          <Trackpoint>
            <Time>2019-10-04T13:24:36.000Z</Time>
            <Position>
              <LatitudeDegrees>43.06623903103172779083251953125</LatitudeDegrees>
              <LongitudeDegrees>-5.77215026132762432098388671875</LongitudeDegrees>
            </Position>
            <AltitudeMeters>459.399993896484375</AltitudeMeters>
            <DistanceMeters>NAN</DistanceMeters>
          </Trackpoint>
          <Trackpoint>
            <Time>2019-10-04T13:24:38.000Z</Time>
            <Position>
              <LatitudeDegrees>43.06621639989316463470458984375</LatitudeDegrees>
              <LongitudeDegrees>-5.77220390550792217254638671875</LongitudeDegrees>
            </Position>
            <AltitudeMeters>460.399993896484375</AltitudeMeters>
            <DistanceMeters>NAN</DistanceMeters>
          </Trackpoint>
          <Trackpoint>
            <Time>2019-10-04T13:24:40.000Z</Time>
            <Position>
              <LatitudeDegrees>43.0661930143833160400390625</LatitudeDegrees>
              <LongitudeDegrees>-5.77225788496434688568115234375</LongitudeDegrees>
            </Position>
            <AltitudeMeters>461.79998779296875</AltitudeMeters>
            <DistanceMeters>NAN</DistanceMeters>
          </Trackpoint>
          <Trackpoint>
            <Time>2019-10-04T13:24:41.000Z</Time>
            <Position>
              <LatitudeDegrees>43.06618203409016132354736328125</LatitudeDegrees>
              <LongitudeDegrees>-5.7722839526832103729248046875</LongitudeDegrees>
            </Position>
            <AltitudeMeters>462.399993896484375</AltitudeMeters>
            <DistanceMeters>NAN</DistanceMeters>
          </Trackpoint>
          <Trackpoint>
            <Time>2019-10-04T13:24:43.000Z</Time>
            <Position>
              <LatitudeDegrees>43.06615554727613925933837890625</LatitudeDegrees>
              <LongitudeDegrees>-5.77233114279806613922119140625</LongitudeDegrees>
            </Position>
            <AltitudeMeters>463</AltitudeMeters>
            <DistanceMeters>NAN</DistanceMeters>
          </Trackpoint>
          <Trackpoint>
            <Time>2019-10-04T13:24:45.000Z</Time>
            <Position>
              <LatitudeDegrees>43.0661313235759735107421875</LatitudeDegrees>
              <LongitudeDegrees>-5.77238411642611026763916015625</LongitudeDegrees>
            </Position>
            <AltitudeMeters>464</AltitudeMeters>
            <DistanceMeters>NAN</DistanceMeters>
          </Trackpoint>
          <Trackpoint>
            <Time>2019-10-04T13:24:48.000Z</Time>
            <Position>
              <LatitudeDegrees>43.06608547456562519073486328125</LatitudeDegrees>
              <LongitudeDegrees>-5.77244748361408710479736328125</LongitudeDegrees>
            </Position>
            <AltitudeMeters>465.399993896484375</AltitudeMeters>
            <DistanceMeters>NAN</DistanceMeters>
          </Trackpoint>
          <Trackpoint>
            <Time>2019-10-04T13:24:49.000Z</Time>
            <Position>
              <LatitudeDegrees>43.0660691298544406890869140625</LatitudeDegrees>
              <LongitudeDegrees>-5.7724686898291110992431640625</LongitudeDegrees>
            </Position>
            <AltitudeMeters>466.20001220703125</AltitudeMeters>
            <DistanceMeters>NAN</DistanceMeters>
          </Trackpoint>
          <Trackpoint>
            <Time>2019-10-04T13:24:50.000Z</Time>
            <Position>
              <LatitudeDegrees>43.06605094112455844879150390625</LatitudeDegrees>
              <LongitudeDegrees>-5.77248997986316680908203125</LongitudeDegrees>
            </Position>
            <AltitudeMeters>466.600006103515625</AltitudeMeters>
            <DistanceMeters>NAN</DistanceMeters>
          </Trackpoint>
          <Trackpoint>
            <Time>2019-10-04T13:24:52.000Z</Time>
            <Position>
              <LatitudeDegrees>43.06601531803607940673828125</LatitudeDegrees>
              <LongitudeDegrees>-5.772521831095218658447265625</LongitudeDegrees>
            </Position>
            <AltitudeMeters>467.79998779296875</AltitudeMeters>
            <DistanceMeters>NAN</DistanceMeters>
          </Trackpoint>
          <Trackpoint>
            <Time>2019-10-04T13:24:56.000Z</Time>
            <Position>
              <LatitudeDegrees>43.06592957116663455963134765625</LatitudeDegrees>
              <LongitudeDegrees>-5.772550664842128753662109375</LongitudeDegrees>
            </Position>
            <AltitudeMeters>469</AltitudeMeters>
            <DistanceMeters>NAN</DistanceMeters>
          </Trackpoint>
          <Trackpoint>
            <Time>2019-10-04T13:24:58.000Z</Time>
            <Position>
              <LatitudeDegrees>43.06589285843074321746826171875</LatitudeDegrees>
              <LongitudeDegrees>-5.7725588791072368621826171875</LongitudeDegrees>
            </Position>
            <AltitudeMeters>470.600006103515625</AltitudeMeters>
            <DistanceMeters>NAN</DistanceMeters>
          </Trackpoint>
          <Trackpoint>
            <Time>2019-10-04T13:25:01.000Z</Time>
            <Position>
              <LatitudeDegrees>43.06583250872790813446044921875</LatitudeDegrees>
              <LongitudeDegrees>-5.7725417800247669219970703125</LongitudeDegrees>
            </Position>
            <AltitudeMeters>471.600006103515625</AltitudeMeters>
            <DistanceMeters>NAN</DistanceMeters>
          </Trackpoint>
          <Trackpoint>
            <Time>2019-10-04T13:25:02.000Z</Time>
            <Position>
              <LatitudeDegrees>43.06581155396997928619384765625</LatitudeDegrees>
              <LongitudeDegrees>-5.772533901035785675048828125</LongitudeDegrees>
            </Position>
            <AltitudeMeters>472</AltitudeMeters>
            <DistanceMeters>NAN</DistanceMeters>
          </Trackpoint>
          <Trackpoint>
            <Time>2019-10-04T13:25:04.000Z</Time>
            <Position>
              <LatitudeDegrees>43.0657732486724853515625</LatitudeDegrees>
              <LongitudeDegrees>-5.77251856215298175811767578125</LongitudeDegrees>
            </Position>
            <AltitudeMeters>472.600006103515625</AltitudeMeters>
            <DistanceMeters>NAN</DistanceMeters>
          </Trackpoint>
          <Trackpoint>
            <Time>2019-10-04T13:25:08.000Z</Time>
            <Position>
              <LatitudeDegrees>43.0657006613910198211669921875</LatitudeDegrees>
              <LongitudeDegrees>-5.7724851183593273162841796875</LongitudeDegrees>
            </Position>
            <AltitudeMeters>474.20001220703125</AltitudeMeters>
            <DistanceMeters>NAN</DistanceMeters>
          </Trackpoint>
          <Trackpoint>
            <Time>2019-10-04T13:25:12.000Z</Time>
            <Position>
              <LatitudeDegrees>43.06563100777566432952880859375</LatitudeDegrees>
              <LongitudeDegrees>-5.77243105508387088775634765625</LongitudeDegrees>
            </Position>
            <AltitudeMeters>475.399993896484375</AltitudeMeters>
            <DistanceMeters>NAN</DistanceMeters>
          </Trackpoint>
          <Trackpoint>
            <Time>2019-10-04T13:25:16.000Z</Time>
            <Position>
              <LatitudeDegrees>43.06556395255029201507568359375</LatitudeDegrees>
              <LongitudeDegrees>-5.77237640507519245147705078125</LongitudeDegrees>
            </Position>
            <AltitudeMeters>476.600006103515625</AltitudeMeters>
            <DistanceMeters>NAN</DistanceMeters>
          </Trackpoint>
          <Trackpoint>
            <Time>2019-10-04T13:25:19.000Z</Time>
            <Position>
              <LatitudeDegrees>43.0655085481703281402587890625</LatitudeDegrees>
              <LongitudeDegrees>-5.7723342441022396087646484375</LongitudeDegrees>
            </Position>
            <AltitudeMeters>478</AltitudeMeters>
            <DistanceMeters>NAN</DistanceMeters>
          </Trackpoint>
          <Trackpoint>
            <Time>2019-10-04T13:25:23.000Z</Time>
            <Position>
              <LatitudeDegrees>43.065438307821750640869140625</LatitudeDegrees>
              <LongitudeDegrees>-5.7722819410264492034912109375</LongitudeDegrees>
            </Position>
            <AltitudeMeters>479.20001220703125</AltitudeMeters>
            <DistanceMeters>NAN</DistanceMeters>
          </Trackpoint>
          <Trackpoint>
            <Time>2019-10-04T13:25:26.000Z</Time>
            <Position>
              <LatitudeDegrees>43.06538139469921588897705078125</LatitudeDegrees>
              <LongitudeDegrees>-5.7722383551299571990966796875</LongitudeDegrees>
            </Position>
            <AltitudeMeters>480.20001220703125</AltitudeMeters>
            <DistanceMeters>NAN</DistanceMeters>
          </Trackpoint>
          <Trackpoint>
            <Time>2019-10-04T13:25:27.000Z</Time>
            <Position>
              <LatitudeDegrees>43.06536345742642879486083984375</LatitudeDegrees>
              <LongitudeDegrees>-5.77222335152328014373779296875</LongitudeDegrees>
            </Position>
            <AltitudeMeters>480.79998779296875</AltitudeMeters>
            <DistanceMeters>NAN</DistanceMeters>
          </Trackpoint>
          <Trackpoint>
            <Time>2019-10-04T13:25:28.000Z</Time>
            <Position>
              <LatitudeDegrees>43.065346777439117431640625</LatitudeDegrees>
              <LongitudeDegrees>-5.772209353744983673095703125</LongitudeDegrees>
            </Position>
            <AltitudeMeters>481.20001220703125</AltitudeMeters>
            <DistanceMeters>NAN</DistanceMeters>
          </Trackpoint>
          <Trackpoint>
            <Time>2019-10-04T13:25:31.000Z</Time>
            <Position>
              <LatitudeDegrees>43.0652966536581516265869140625</LatitudeDegrees>
              <LongitudeDegrees>-5.7721699588000774383544921875</LongitudeDegrees>
            </Position>
            <AltitudeMeters>482.20001220703125</AltitudeMeters>
            <DistanceMeters>NAN</DistanceMeters>
          </Trackpoint>
          <Trackpoint>
            <Time>2019-10-04T13:25:34.000Z</Time>
            <Position>
              <LatitudeDegrees>43.0652487091720104217529296875</LatitudeDegrees>
              <LongitudeDegrees>-5.7721283845603466033935546875</LongitudeDegrees>
            </Position>
            <AltitudeMeters>483</AltitudeMeters>
            <DistanceMeters>NAN</DistanceMeters>
          </Trackpoint>
          <Trackpoint>
            <Time>2019-10-04T13:25:36.000Z</Time>
            <Position>
              <LatitudeDegrees>43.06521660648286342620849609375</LatitudeDegrees>
              <LongitudeDegrees>-5.772102065384387969970703125</LongitudeDegrees>
            </Position>
            <AltitudeMeters>483.600006103515625</AltitudeMeters>
            <DistanceMeters>NAN</DistanceMeters>
          </Trackpoint>
          <Trackpoint>
            <Time>2019-10-04T13:25:39.000Z</Time>
            <Position>
              <LatitudeDegrees>43.0651622079312801361083984375</LatitudeDegrees>
              <LongitudeDegrees>-5.77205940149724483489990234375</LongitudeDegrees>
            </Position>
            <AltitudeMeters>484.600006103515625</AltitudeMeters>
            <DistanceMeters>NAN</DistanceMeters>
          </Trackpoint>
          <Trackpoint>
            <Time>2019-10-04T13:25:40.000Z</Time>
            <Position>
              <LatitudeDegrees>43.0651430971920490264892578125</LatitudeDegrees>
              <LongitudeDegrees>-5.77204548753798007965087890625</LongitudeDegrees>
            </Position>
            <AltitudeMeters>484.79998779296875</AltitudeMeters>
            <DistanceMeters>NAN</DistanceMeters>
          </Trackpoint>
          <Trackpoint>
            <Time>2019-10-04T13:25:43.000Z</Time>
            <Position>
              <LatitudeDegrees>43.06509272195398807525634765625</LatitudeDegrees>
              <LongitudeDegrees>-5.772005505859851837158203125</LongitudeDegrees>
            </Position>
            <AltitudeMeters>485.79998779296875</AltitudeMeters>
            <DistanceMeters>NAN</DistanceMeters>
          </Trackpoint>
          <Trackpoint>
            <Time>2019-10-04T13:25:46.000Z</Time>
            <Position>
              <LatitudeDegrees>43.065038658678531646728515625</LatitudeDegrees>
              <LongitudeDegrees>-5.771972648799419403076171875</LongitudeDegrees>
            </Position>
            <AltitudeMeters>486.79998779296875</AltitudeMeters>
            <DistanceMeters>NAN</DistanceMeters>
          </Trackpoint>
          <Trackpoint>
            <Time>2019-10-04T13:25:48.000Z</Time>
            <Position>
              <LatitudeDegrees>43.06500605307519435882568359375</LatitudeDegrees>
              <LongitudeDegrees>-5.77194926328957080841064453125</LongitudeDegrees>
            </Position>
            <AltitudeMeters>487.20001220703125</AltitudeMeters>
            <DistanceMeters>NAN</DistanceMeters>
          </Trackpoint>
          <Trackpoint>
            <Time>2019-10-04T13:25:50.000Z</Time>
            <Position>
              <LatitudeDegrees>43.06497219018638134002685546875</LatitudeDegrees>
              <LongitudeDegrees>-5.7719201780855655670166015625</LongitudeDegrees>
            </Position>
            <AltitudeMeters>487.79998779296875</AltitudeMeters>
            <DistanceMeters>NAN</DistanceMeters>
          </Trackpoint>
          <Trackpoint>
            <Time>2019-10-04T13:25:53.000Z</Time>
            <Position>
              <LatitudeDegrees>43.06492005474865436553955078125</LatitudeDegrees>
              <LongitudeDegrees>-5.77188623137772083282470703125</LongitudeDegrees>
            </Position>
            <AltitudeMeters>489.20001220703125</AltitudeMeters>
            <DistanceMeters>NAN</DistanceMeters>
          </Trackpoint>
          <Trackpoint>
            <Time>2019-10-04T13:25:56.000Z</Time>
            <Position>
              <LatitudeDegrees>43.06486356072127819061279296875</LatitudeDegrees>
              <LongitudeDegrees>-5.7718576490879058837890625</LongitudeDegrees>
            </Position>
            <AltitudeMeters>490.20001220703125</AltitudeMeters>
            <DistanceMeters>NAN</DistanceMeters>
          </Trackpoint>
          <Trackpoint>
            <Time>2019-10-04T13:26:00.000Z</Time>
            <Position>
              <LatitudeDegrees>43.06479063816368579864501953125</LatitudeDegrees>
              <LongitudeDegrees>-5.77182219363749027252197265625</LongitudeDegrees>
            </Position>
            <AltitudeMeters>491.20001220703125</AltitudeMeters>
            <DistanceMeters>NAN</DistanceMeters>
          </Trackpoint>
          <Trackpoint>
            <Time>2019-10-04T13:26:04.000Z</Time>
            <Position>
              <LatitudeDegrees>43.06471453048288822174072265625</LatitudeDegrees>
              <LongitudeDegrees>-5.77179285697638988494873046875</LongitudeDegrees>
            </Position>
            <AltitudeMeters>492.600006103515625</AltitudeMeters>
            <DistanceMeters>NAN</DistanceMeters>
          </Trackpoint>
          <Trackpoint>
            <Time>2019-10-04T13:26:09.000Z</Time>
            <Position>
              <LatitudeDegrees>43.06460942141711711883544921875</LatitudeDegrees>
              <LongitudeDegrees>-5.77176787890493869781494140625</LongitudeDegrees>
            </Position>
            <AltitudeMeters>493.600006103515625</AltitudeMeters>
            <DistanceMeters>NAN</DistanceMeters>
          </Trackpoint>
          <Trackpoint>
            <Time>2019-10-04T13:26:12.000Z</Time>
            <Position>
              <LatitudeDegrees>43.0645503289997577667236328125</LatitudeDegrees>
              <LongitudeDegrees>-5.77175446785986423492431640625</LongitudeDegrees>
            </Position>
            <AltitudeMeters>494.79998779296875</AltitudeMeters>
            <DistanceMeters>NAN</DistanceMeters>
          </Trackpoint>
          <Trackpoint>
            <Time>2019-10-04T13:26:16.000Z</Time>
            <Position>
              <LatitudeDegrees>43.06446173228323459625244140625</LatitudeDegrees>
              <LongitudeDegrees>-5.77173284254968166351318359375</LongitudeDegrees>
            </Position>
            <AltitudeMeters>496.20001220703125</AltitudeMeters>
            <DistanceMeters>NAN</DistanceMeters>
          </Trackpoint>
          <Trackpoint>
            <Time>2019-10-04T13:26:17.000Z</Time>
            <Position>
              <LatitudeDegrees>43.06444228626787662506103515625</LatitudeDegrees>
              <LongitudeDegrees>-5.7717294059693813323974609375</LongitudeDegrees>
            </Position>
            <AltitudeMeters>497</AltitudeMeters>
            <DistanceMeters>NAN</DistanceMeters>
          </Trackpoint>
          <Trackpoint>
            <Time>2019-10-04T13:26:19.000Z</Time>
            <Position>
              <LatitudeDegrees>43.0643987841904163360595703125</LatitudeDegrees>
              <LongitudeDegrees>-5.7717168331146240234375</LongitudeDegrees>
            </Position>
            <AltitudeMeters>497.399993896484375</AltitudeMeters>
            <DistanceMeters>NAN</DistanceMeters>
          </Trackpoint>
          <Trackpoint>
            <Time>2019-10-04T13:26:22.000Z</Time>
            <Position>
              <LatitudeDegrees>43.064338602125644683837890625</LatitudeDegrees>
              <LongitudeDegrees>-5.77170920558273792266845703125</LongitudeDegrees>
            </Position>
            <AltitudeMeters>498.600006103515625</AltitudeMeters>
            <DistanceMeters>NAN</DistanceMeters>
          </Trackpoint>
          <Trackpoint>
            <Time>2019-10-04T13:26:25.000Z</Time>
            <Position>
              <LatitudeDegrees>43.0642730556428432464599609375</LatitudeDegrees>
              <LongitudeDegrees>-5.77169629745185375213623046875</LongitudeDegrees>
            </Position>
            <AltitudeMeters>499.79998779296875</AltitudeMeters>
            <DistanceMeters>NAN</DistanceMeters>
          </Trackpoint>
          <Trackpoint>
            <Time>2019-10-04T13:26:30.000Z</Time>
            <Position>
              <LatitudeDegrees>43.064164929091930389404296875</LatitudeDegrees>
              <LongitudeDegrees>-5.7716737501323223114013671875</LongitudeDegrees>
            </Position>
            <AltitudeMeters>501</AltitudeMeters>
            <DistanceMeters>NAN</DistanceMeters>
          </Trackpoint>
          <Trackpoint>
            <Time>2019-10-04T13:26:33.000Z</Time>
            <Position>
              <LatitudeDegrees>43.064101897180080413818359375</LatitudeDegrees>
              <LongitudeDegrees>-5.7716690562665462493896484375</LongitudeDegrees>
            </Position>
            <AltitudeMeters>502.20001220703125</AltitudeMeters>
            <DistanceMeters>NAN</DistanceMeters>
          </Trackpoint>
          <Trackpoint>
            <Time>2019-10-04T13:26:35.000Z</Time>
            <Position>
              <LatitudeDegrees>43.06405923329293727874755859375</LatitudeDegrees>
              <LongitudeDegrees>-5.7716653682291507720947265625</LongitudeDegrees>
            </Position>
            <AltitudeMeters>503.20001220703125</AltitudeMeters>
            <DistanceMeters>NAN</DistanceMeters>
          </Trackpoint>
          <Trackpoint>
            <Time>2019-10-04T13:26:41.000Z</Time>
            <Position>
              <LatitudeDegrees>43.06393400765955448150634765625</LatitudeDegrees>
              <LongitudeDegrees>-5.771643407642841339111328125</LongitudeDegrees>
            </Position>
            <AltitudeMeters>504.600006103515625</AltitudeMeters>
            <DistanceMeters>NAN</DistanceMeters>
          </Trackpoint>
          <Trackpoint>
            <Time>2019-10-04T13:26:43.000Z</Time>
            <Position>
              <LatitudeDegrees>43.063898384571075439453125</LatitudeDegrees>
              <LongitudeDegrees>-5.77163578011095523834228515625</LongitudeDegrees>
            </Position>
            <AltitudeMeters>505</AltitudeMeters>
            <DistanceMeters>NAN</DistanceMeters>
          </Trackpoint>
          <Trackpoint>
            <Time>2019-10-04T13:26:44.000Z</Time>
            <Position>
              <LatitudeDegrees>43.0638809502124786376953125</LatitudeDegrees>
              <LongitudeDegrees>-5.77163762412965297698974609375</LongitudeDegrees>
            </Position>
            <AltitudeMeters>505.79998779296875</AltitudeMeters>
            <DistanceMeters>NAN</DistanceMeters>
          </Trackpoint>
          <Trackpoint>
            <Time>2019-10-04T13:26:50.000Z</Time>
            <Position>
              <LatitudeDegrees>43.0637654475867748260498046875</LatitudeDegrees>
              <LongitudeDegrees>-5.7716395519673824310302734375</LongitudeDegrees>
            </Position>
            <AltitudeMeters>507.399993896484375</AltitudeMeters>
            <DistanceMeters>NAN</DistanceMeters>
          </Trackpoint>
          <Trackpoint>
            <Time>2019-10-04T13:26:55.000Z</Time>
            <Position>
              <LatitudeDegrees>43.0636583268642425537109375</LatitudeDegrees>
              <LongitudeDegrees>-5.77165782451629638671875</LongitudeDegrees>
            </Position>
            <AltitudeMeters>508.600006103515625</AltitudeMeters>
            <DistanceMeters>NAN</DistanceMeters>
          </Trackpoint>
          <Trackpoint>
            <Time>2019-10-04T13:26:59.000Z</Time>
            <Position>
              <LatitudeDegrees>43.0635793693363666534423828125</LatitudeDegrees>
              <LongitudeDegrees>-5.7716958783566951751708984375</LongitudeDegrees>
            </Position>
            <AltitudeMeters>510.20001220703125</AltitudeMeters>
            <DistanceMeters>NAN</DistanceMeters>
          </Trackpoint>
          <Trackpoint>
            <Time>2019-10-04T13:27:01.000Z</Time>
            <Position>
              <LatitudeDegrees>43.06354098021984100341796875</LatitudeDegrees>
              <LongitudeDegrees>-5.77172244898974895477294921875</LongitudeDegrees>
            </Position>
            <AltitudeMeters>510.79998779296875</AltitudeMeters>
            <DistanceMeters>NAN</DistanceMeters>
          </Trackpoint>
          <Trackpoint>
            <Time>2019-10-04T13:27:03.000Z</Time>
            <Position>
              <LatitudeDegrees>43.06350116617977619171142578125</LatitudeDegrees>
              <LongitudeDegrees>-5.77175497077405452728271484375</LongitudeDegrees>
            </Position>
            <AltitudeMeters>511.399993896484375</AltitudeMeters>
            <DistanceMeters>NAN</DistanceMeters>
          </Trackpoint>
          <Trackpoint>
            <Time>2019-10-04T13:27:07.000Z</Time>
            <Position>
              <LatitudeDegrees>43.06343629024922847747802734375</LatitudeDegrees>
              <LongitudeDegrees>-5.77182034961879253387451171875</LongitudeDegrees>
            </Position>
            <AltitudeMeters>512.5999755859375</AltitudeMeters>
            <DistanceMeters>NAN</DistanceMeters>
          </Trackpoint>
          <Trackpoint>
            <Time>2019-10-04T13:27:10.000Z</Time>
            <Position>
              <LatitudeDegrees>43.0633889324963092803955078125</LatitudeDegrees>
              <LongitudeDegrees>-5.771866030991077423095703125</LongitudeDegrees>
            </Position>
            <AltitudeMeters>513.20001220703125</AltitudeMeters>
            <DistanceMeters>NAN</DistanceMeters>
          </Trackpoint>
          <Trackpoint>
            <Time>2019-10-04T13:27:12.000Z</Time>
            <Position>
              <LatitudeDegrees>43.0633574165403842926025390625</LatitudeDegrees>
              <LongitudeDegrees>-5.77190014533698558807373046875</LongitudeDegrees>
            </Position>
            <AltitudeMeters>514</AltitudeMeters>
            <DistanceMeters>NAN</DistanceMeters>
          </Trackpoint>
          <Trackpoint>
            <Time>2019-10-04T13:27:14.000Z</Time>
            <Position>
              <LatitudeDegrees>43.06332665495574474334716796875</LatitudeDegrees>
              <LongitudeDegrees>-5.7719376124441623687744140625</LongitudeDegrees>
            </Position>
            <AltitudeMeters>515</AltitudeMeters>
            <DistanceMeters>NAN</DistanceMeters>
          </Trackpoint>
          <Trackpoint>
            <Time>2019-10-04T13:27:17.000Z</Time>
            <Position>
              <LatitudeDegrees>43.06327468715608119964599609375</LatitudeDegrees>
              <LongitudeDegrees>-5.77199318446218967437744140625</LongitudeDegrees>
            </Position>
            <AltitudeMeters>516</AltitudeMeters>
            <DistanceMeters>NAN</DistanceMeters>
          </Trackpoint>
          <Trackpoint>
            <Time>2019-10-04T13:27:19.000Z</Time>
            <Position>
              <LatitudeDegrees>43.0632412433624267578125</LatitudeDegrees>
              <LongitudeDegrees>-5.77202000655233860015869140625</LongitudeDegrees>
            </Position>
            <AltitudeMeters>516.5999755859375</AltitudeMeters>
            <DistanceMeters>NAN</DistanceMeters>
          </Trackpoint>
          <Trackpoint>
            <Time>2019-10-04T13:27:21.000Z</Time>
            <Position>
              <LatitudeDegrees>43.06320930831134319305419921875</LatitudeDegrees>
              <LongitudeDegrees>-5.77205537818372249603271484375</LongitudeDegrees>
            </Position>
            <AltitudeMeters>517.20001220703125</AltitudeMeters>
            <DistanceMeters>NAN</DistanceMeters>
          </Trackpoint>
          <Trackpoint>
            <Time>2019-10-04T13:27:25.000Z</Time>
            <Position>
              <LatitudeDegrees>43.06314543820917606353759765625</LatitudeDegrees>
              <LongitudeDegrees>-5.77212695963680744171142578125</LongitudeDegrees>
            </Position>
            <AltitudeMeters>518.20001220703125</AltitudeMeters>
            <DistanceMeters>NAN</DistanceMeters>
          </Trackpoint>
          <Trackpoint>
            <Time>2019-10-04T13:27:27.000Z</Time>
            <Position>
              <LatitudeDegrees>43.06311241351068019866943359375</LatitudeDegrees>
              <LongitudeDegrees>-5.77216601930558681488037109375</LongitudeDegrees>
            </Position>
            <AltitudeMeters>519</AltitudeMeters>
            <DistanceMeters>NAN</DistanceMeters>
          </Trackpoint>
          <Trackpoint>
            <Time>2019-10-04T13:27:28.000Z</Time>
            <Position>
              <LatitudeDegrees>43.06309531442821025848388671875</LatitudeDegrees>
              <LongitudeDegrees>-5.77218228019773960113525390625</LongitudeDegrees>
            </Position>
            <AltitudeMeters>519.20001220703125</AltitudeMeters>
            <DistanceMeters>NAN</DistanceMeters>
          </Trackpoint>
          <Trackpoint>
            <Time>2019-10-04T13:27:32.000Z</Time>
            <Position>
              <LatitudeDegrees>43.06303228251636028289794921875</LatitudeDegrees>
              <LongitudeDegrees>-5.772238187491893768310546875</LongitudeDegrees>
            </Position>
            <AltitudeMeters>520.5999755859375</AltitudeMeters>
            <DistanceMeters>NAN</DistanceMeters>
          </Trackpoint>
          <Trackpoint>
            <Time>2019-10-04T13:27:35.000Z</Time>
            <Position>
              <LatitudeDegrees>43.06297629140317440032958984375</LatitudeDegrees>
              <LongitudeDegrees>-5.77226995490491390228271484375</LongitudeDegrees>
            </Position>
            <AltitudeMeters>521.4000244140625</AltitudeMeters>
            <DistanceMeters>NAN</DistanceMeters>
          </Trackpoint>
          <Trackpoint>
            <Time>2019-10-04T13:27:37.000Z</Time>
            <Position>
              <LatitudeDegrees>43.06294192560017108917236328125</LatitudeDegrees>
              <LongitudeDegrees>-5.7722868025302886962890625</LongitudeDegrees>
            </Position>
            <AltitudeMeters>521.79998779296875</AltitudeMeters>
            <DistanceMeters>NAN</DistanceMeters>
          </Trackpoint>
          <Trackpoint>
            <Time>2019-10-04T13:27:42.000Z</Time>
            <Position>
              <LatitudeDegrees>43.0628509819507598876953125</LatitudeDegrees>
              <LongitudeDegrees>-5.7723194919526576995849609375</LongitudeDegrees>
            </Position>
            <AltitudeMeters>523</AltitudeMeters>
            <DistanceMeters>NAN</DistanceMeters>
          </Trackpoint>
          <Trackpoint>
            <Time>2019-10-04T13:27:44.000Z</Time>
            <Position>
              <LatitudeDegrees>43.06281317956745624542236328125</LatitudeDegrees>
              <LongitudeDegrees>-5.77232234179973602294921875</LongitudeDegrees>
            </Position>
            <AltitudeMeters>524.20001220703125</AltitudeMeters>
            <DistanceMeters>NAN</DistanceMeters>
          </Trackpoint>
          <Trackpoint>
            <Time>2019-10-04T13:27:49.000Z</Time>
            <Position>
              <LatitudeDegrees>43.06270672939717769622802734375</LatitudeDegrees>
              <LongitudeDegrees>-5.77230834402143955230712890625</LongitudeDegrees>
            </Position>
            <AltitudeMeters>525</AltitudeMeters>
            <DistanceMeters>NAN</DistanceMeters>
          </Trackpoint>
          <Trackpoint>
            <Time>2019-10-04T13:27:50.000Z</Time>
            <Position>
              <LatitudeDegrees>43.062685690820217132568359375</LatitudeDegrees>
              <LongitudeDegrees>-5.77230222523212432861328125</LongitudeDegrees>
            </Position>
            <AltitudeMeters>525.4000244140625</AltitudeMeters>
            <DistanceMeters>NAN</DistanceMeters>
          </Trackpoint>
          <Trackpoint>
            <Time>2019-10-04T13:27:56.000Z</Time>
            <Position>
              <LatitudeDegrees>43.0625577829778194427490234375</LatitudeDegrees>
              <LongitudeDegrees>-5.7722269557416439056396484375</LongitudeDegrees>
            </Position>
            <AltitudeMeters>526.4000244140625</AltitudeMeters>
            <DistanceMeters>NAN</DistanceMeters>
          </Trackpoint>
          <Trackpoint>
            <Time>2019-10-04T13:27:59.000Z</Time>
            <Position>
              <LatitudeDegrees>43.0624913983047008514404296875</LatitudeDegrees>
              <LongitudeDegrees>-5.77218362130224704742431640625</LongitudeDegrees>
            </Position>
            <AltitudeMeters>527.5999755859375</AltitudeMeters>
            <DistanceMeters>NAN</DistanceMeters>
          </Trackpoint>
          <Trackpoint>
            <Time>2019-10-04T13:28:04.000Z</Time>
            <Position>
              <LatitudeDegrees>43.06238821707665920257568359375</LatitudeDegrees>
              <LongitudeDegrees>-5.77210583724081516265869140625</LongitudeDegrees>
            </Position>
            <AltitudeMeters>528.79998779296875</AltitudeMeters>
            <DistanceMeters>NAN</DistanceMeters>
          </Trackpoint>
          <Trackpoint>
            <Time>2019-10-04T13:28:06.000Z</Time>
            <Position>
              <LatitudeDegrees>43.06234815157949924468994140625</LatitudeDegrees>
              <LongitudeDegrees>-5.7720740698277950286865234375</LongitudeDegrees>
            </Position>
            <AltitudeMeters>529</AltitudeMeters>
            <DistanceMeters>NAN</DistanceMeters>
          </Trackpoint>
          <Trackpoint>
            <Time>2019-10-04T13:28:12.000Z</Time>
            <Position>
              <LatitudeDegrees>43.06221940554678440093994140625</LatitudeDegrees>
              <LongitudeDegrees>-5.7719808630645275115966796875</LongitudeDegrees>
            </Position>
            <AltitudeMeters>530</AltitudeMeters>
            <DistanceMeters>NAN</DistanceMeters>
          </Trackpoint>
          <Trackpoint>
            <Time>2019-10-04T13:28:13.000Z</Time>
            <Position>
              <LatitudeDegrees>43.0622050724923610687255859375</LatitudeDegrees>
              <LongitudeDegrees>-5.7719729840755462646484375</LongitudeDegrees>
            </Position>
            <AltitudeMeters>531.5999755859375</AltitudeMeters>
            <DistanceMeters>NAN</DistanceMeters>
          </Trackpoint>
          <Trackpoint>
            <Time>2019-10-04T13:28:16.000Z</Time>
            <Position>
              <LatitudeDegrees>43.0621487461030483245849609375</LatitudeDegrees>
              <LongitudeDegrees>-5.77193853445351123809814453125</LongitudeDegrees>
            </Position>
            <AltitudeMeters>530.79998779296875</AltitudeMeters>
            <DistanceMeters>NAN</DistanceMeters>
          </Trackpoint>
          <Trackpoint>
            <Time>2019-10-04T13:28:23.000Z</Time>
            <Position>
              <LatitudeDegrees>43.06200541555881500244140625</LatitudeDegrees>
              <LongitudeDegrees>-5.77188287861645221710205078125</LongitudeDegrees>
            </Position>
            <AltitudeMeters>532.79998779296875</AltitudeMeters>
            <DistanceMeters>NAN</DistanceMeters>
          </Trackpoint>
          <Trackpoint>
            <Time>2019-10-04T13:28:25.000Z</Time>
            <Position>
              <LatitudeDegrees>43.0619640089571475982666015625</LatitudeDegrees>
              <LongitudeDegrees>-5.77186904847621917724609375</LongitudeDegrees>
            </Position>
            <AltitudeMeters>533.4000244140625</AltitudeMeters>
            <DistanceMeters>NAN</DistanceMeters>
          </Trackpoint>
          <Trackpoint>
            <Time>2019-10-04T13:28:28.000Z</Time>
            <Position>
              <LatitudeDegrees>43.06189402006566524505615234375</LatitudeDegrees>
              <LongitudeDegrees>-5.7718563079833984375</LongitudeDegrees>
            </Position>
            <AltitudeMeters>534</AltitudeMeters>
            <DistanceMeters>NAN</DistanceMeters>
          </Trackpoint>
          <Trackpoint>
            <Time>2019-10-04T13:28:33.000Z</Time>
            <Position>
              <LatitudeDegrees>43.061783798038959503173828125</LatitudeDegrees>
              <LongitudeDegrees>-5.77184516005218029022216796875</LongitudeDegrees>
            </Position>
            <AltitudeMeters>534.79998779296875</AltitudeMeters>
            <DistanceMeters>NAN</DistanceMeters>
          </Trackpoint>
          <Trackpoint>
            <Time>2019-10-04T13:28:35.000Z</Time>
            <Position>
              <LatitudeDegrees>43.0617407150566577911376953125</LatitudeDegrees>
              <LongitudeDegrees>-5.77184415422379970550537109375</LongitudeDegrees>
            </Position>
            <AltitudeMeters>535</AltitudeMeters>
            <DistanceMeters>NAN</DistanceMeters>
          </Trackpoint>
          <Trackpoint>
            <Time>2019-10-04T13:28:40.000Z</Time>
            <Position>
              <LatitudeDegrees>43.061643652617931365966796875</LatitudeDegrees>
              <LongitudeDegrees>-5.7718578167259693145751953125</LongitudeDegrees>
            </Position>
            <AltitudeMeters>536.4000244140625</AltitudeMeters>
            <DistanceMeters>NAN</DistanceMeters>
          </Trackpoint>
          <Trackpoint>
            <Time>2019-10-04T13:28:41.000Z</Time>
            <Position>
              <LatitudeDegrees>43.06162655353546142578125</LatitudeDegrees>
              <LongitudeDegrees>-5.77186100184917449951171875</LongitudeDegrees>
            </Position>
            <AltitudeMeters>536.5999755859375</AltitudeMeters>
            <DistanceMeters>NAN</DistanceMeters>
          </Trackpoint>
          <Trackpoint>
            <Time>2019-10-04T13:28:45.000Z</Time>
            <Position>
              <LatitudeDegrees>43.06155505590140819549560546875</LatitudeDegrees>
              <LongitudeDegrees>-5.77186544425785541534423828125</LongitudeDegrees>
            </Position>
            <AltitudeMeters>537.5999755859375</AltitudeMeters>
            <DistanceMeters>NAN</DistanceMeters>
          </Trackpoint>
          <Trackpoint>
            <Time>2019-10-04T13:28:50.000Z</Time>
            <Position>
              <LatitudeDegrees>43.06146738119423389434814453125</LatitudeDegrees>
              <LongitudeDegrees>-5.77187885530292987823486328125</LongitudeDegrees>
            </Position>
            <AltitudeMeters>538.4000244140625</AltitudeMeters>
            <DistanceMeters>NAN</DistanceMeters>
          </Trackpoint>
          <Trackpoint>
            <Time>2019-10-04T13:28:51.000Z</Time>
            <Position>
              <LatitudeDegrees>43.061449863016605377197265625</LatitudeDegrees>
              <LongitudeDegrees>-5.7718792743980884552001953125</LongitudeDegrees>
            </Position>
            <AltitudeMeters>538.5999755859375</AltitudeMeters>
            <DistanceMeters>NAN</DistanceMeters>
          </Trackpoint>
          <Trackpoint>
            <Time>2019-10-04T13:28:58.000Z</Time>
            <Position>
              <LatitudeDegrees>43.06132371537387371063232421875</LatitudeDegrees>
              <LongitudeDegrees>-5.77188958413898944854736328125</LongitudeDegrees>
            </Position>
            <AltitudeMeters>540</AltitudeMeters>
            <DistanceMeters>NAN</DistanceMeters>
          </Trackpoint>
          <Trackpoint>
            <Time>2019-10-04T13:29:00.000Z</Time>
            <Position>
              <LatitudeDegrees>43.06128934957087039947509765625</LatitudeDegrees>
              <LongitudeDegrees>-5.77190198935568332672119140625</LongitudeDegrees>
            </Position>
            <AltitudeMeters>540.20001220703125</AltitudeMeters>
            <DistanceMeters>NAN</DistanceMeters>
          </Trackpoint>
          <Trackpoint>
            <Time>2019-10-04T13:29:06.000Z</Time>
            <Position>
              <LatitudeDegrees>43.06119128130376338958740234375</LatitudeDegrees>
              <LongitudeDegrees>-5.771928392350673675537109375</LongitudeDegrees>
            </Position>
            <AltitudeMeters>541.20001220703125</AltitudeMeters>
            <DistanceMeters>NAN</DistanceMeters>
          </Trackpoint>
          <Trackpoint>
            <Time>2019-10-04T13:29:11.000Z</Time>
            <Position>
              <LatitudeDegrees>43.06109572760760784149169921875</LatitudeDegrees>
              <LongitudeDegrees>-5.77194959856569766998291015625</LongitudeDegrees>
            </Position>
            <AltitudeMeters>542</AltitudeMeters>
            <DistanceMeters>NAN</DistanceMeters>
          </Trackpoint>
          <Trackpoint>
            <Time>2019-10-04T13:29:12.000Z</Time>
            <Position>
              <LatitudeDegrees>43.06107711978256702423095703125</LatitudeDegrees>
              <LongitudeDegrees>-5.77195848338305950164794921875</LongitudeDegrees>
            </Position>
            <AltitudeMeters>542.20001220703125</AltitudeMeters>
            <DistanceMeters>NAN</DistanceMeters>
          </Trackpoint>
          <Trackpoint>
            <Time>2019-10-04T13:29:17.000Z</Time>
            <Position>
              <LatitudeDegrees>43.0609907023608684539794921875</LatitudeDegrees>
              <LongitudeDegrees>-5.77198346145451068878173828125</LongitudeDegrees>
            </Position>
            <AltitudeMeters>543.20001220703125</AltitudeMeters>
            <DistanceMeters>NAN</DistanceMeters>
          </Trackpoint>
          <Trackpoint>
            <Time>2019-10-04T13:29:22.000Z</Time>
            <Position>
              <LatitudeDegrees>43.06090495549142360687255859375</LatitudeDegrees>
              <LongitudeDegrees>-5.77201346866786479949951171875</LongitudeDegrees>
            </Position>
            <AltitudeMeters>544.4000244140625</AltitudeMeters>
            <DistanceMeters>NAN</DistanceMeters>
          </Trackpoint>
          <Trackpoint>
            <Time>2019-10-04T13:29:23.000Z</Time>
            <Position>
              <LatitudeDegrees>43.06088802404701709747314453125</LatitudeDegrees>
              <LongitudeDegrees>-5.77201883308589458465576171875</LongitudeDegrees>
            </Position>
            <AltitudeMeters>544.5999755859375</AltitudeMeters>
            <DistanceMeters>NAN</DistanceMeters>
          </Trackpoint>
          <Trackpoint>
            <Time>2019-10-04T13:29:29.000Z</Time>
            <Position>
              <LatitudeDegrees>43.06079708039760589599609375</LatitudeDegrees>
              <LongitudeDegrees>-5.77205403707921504974365234375</LongitudeDegrees>
            </Position>
            <AltitudeMeters>545.4000244140625</AltitudeMeters>
            <DistanceMeters>NAN</DistanceMeters>
          </Trackpoint>
          <Trackpoint>
            <Time>2019-10-04T13:29:32.000Z</Time>
            <Position>
              <LatitudeDegrees>43.06074787862598896026611328125</LatitudeDegrees>
              <LongitudeDegrees>-5.7720596529543399810791015625</LongitudeDegrees>
            </Position>
            <AltitudeMeters>546</AltitudeMeters>
            <DistanceMeters>NAN</DistanceMeters>
          </Trackpoint>
          <Trackpoint>
            <Time>2019-10-04T13:29:34.000Z</Time>
            <Position>
              <LatitudeDegrees>43.06071284227073192596435546875</LatitudeDegrees>
              <LongitudeDegrees>-5.772057138383388519287109375</LongitudeDegrees>
            </Position>
            <AltitudeMeters>546.5999755859375</AltitudeMeters>
            <DistanceMeters>NAN</DistanceMeters>
          </Trackpoint>
          <Trackpoint>
            <Time>2019-10-04T13:29:40.000Z</Time>
            <Position>
              <LatitudeDegrees>43.0606047995388507843017578125</LatitudeDegrees>
              <LongitudeDegrees>-5.77201967127621173858642578125</LongitudeDegrees>
            </Position>
            <AltitudeMeters>547.79998779296875</AltitudeMeters>
            <DistanceMeters>NAN</DistanceMeters>
          </Trackpoint>
          <Trackpoint>
            <Time>2019-10-04T13:29:44.000Z</Time>
            <Position>
              <LatitudeDegrees>43.0605434440076351165771484375</LatitudeDegrees>
              <LongitudeDegrees>-5.7719622552394866943359375</LongitudeDegrees>
            </Position>
            <AltitudeMeters>548.79998779296875</AltitudeMeters>
            <DistanceMeters>NAN</DistanceMeters>
          </Trackpoint>
          <Trackpoint>
            <Time>2019-10-04T13:29:47.000Z</Time>
            <Position>
              <LatitudeDegrees>43.06050044484436511993408203125</LatitudeDegrees>
              <LongitudeDegrees>-5.77191573567688465118408203125</LongitudeDegrees>
            </Position>
            <AltitudeMeters>549.4000244140625</AltitudeMeters>
            <DistanceMeters>NAN</DistanceMeters>
          </Trackpoint>
          <Trackpoint>
            <Time>2019-10-04T13:29:49.000Z</Time>
            <Position>
              <LatitudeDegrees>43.06047295220196247100830078125</LatitudeDegrees>
              <LongitudeDegrees>-5.7718856446444988250732421875</LongitudeDegrees>
            </Position>
            <AltitudeMeters>550</AltitudeMeters>
            <DistanceMeters>NAN</DistanceMeters>
          </Trackpoint>
          <Trackpoint>
            <Time>2019-10-04T13:29:54.000Z</Time>
            <Position>
              <LatitudeDegrees>43.0603982694447040557861328125</LatitudeDegrees>
              <LongitudeDegrees>-5.7717894203960895538330078125</LongitudeDegrees>
            </Position>
            <AltitudeMeters>551</AltitudeMeters>
            <DistanceMeters>NAN</DistanceMeters>
          </Trackpoint>
          <Trackpoint>
            <Time>2019-10-04T13:29:56.000Z</Time>
            <Position>
              <LatitudeDegrees>43.06036767549812793731689453125</LatitudeDegrees>
              <LongitudeDegrees>-5.77175329439342021942138671875</LongitudeDegrees>
            </Position>
            <AltitudeMeters>551.5999755859375</AltitudeMeters>
            <DistanceMeters>NAN</DistanceMeters>
          </Trackpoint>
          <Trackpoint>
            <Time>2019-10-04T13:29:59.000Z</Time>
            <Position>
              <LatitudeDegrees>43.06031562387943267822265625</LatitudeDegrees>
              <LongitudeDegrees>-5.7716962136328220367431640625</LongitudeDegrees>
            </Position>
            <AltitudeMeters>552.4000244140625</AltitudeMeters>
            <DistanceMeters>NAN</DistanceMeters>
          </Trackpoint>
          <Trackpoint>
            <Time>2019-10-04T13:30:02.000Z</Time>
            <Position>
              <LatitudeDegrees>43.060269691050052642822265625</LatitudeDegrees>
              <LongitudeDegrees>-5.77163544483482837677001953125</LongitudeDegrees>
            </Position>
            <AltitudeMeters>553</AltitudeMeters>
            <DistanceMeters>NAN</DistanceMeters>
          </Trackpoint>
          <Trackpoint>
            <Time>2019-10-04T13:30:03.000Z</Time>
            <Position>
              <LatitudeDegrees>43.06025351397693157196044921875</LatitudeDegrees>
              <LongitudeDegrees>-5.77162094414234161376953125</LongitudeDegrees>
            </Position>
            <AltitudeMeters>553.4000244140625</AltitudeMeters>
            <DistanceMeters>NAN</DistanceMeters>
          </Trackpoint>
          <Trackpoint>
            <Time>2019-10-04T13:30:08.000Z</Time>
            <Position>
              <LatitudeDegrees>43.06015871465206146240234375</LatitudeDegrees>
              <LongitudeDegrees>-5.77152949757874011993408203125</LongitudeDegrees>
            </Position>
            <AltitudeMeters>554.79998779296875</AltitudeMeters>
            <DistanceMeters>NAN</DistanceMeters>
          </Trackpoint>
          <Trackpoint>
            <Time>2019-10-04T13:30:10.000Z</Time>
            <Position>
              <LatitudeDegrees>43.06011823005974292755126953125</LatitudeDegrees>
              <LongitudeDegrees>-5.77149580232799053192138671875</LongitudeDegrees>
            </Position>
            <AltitudeMeters>555.4000244140625</AltitudeMeters>
            <DistanceMeters>NAN</DistanceMeters>
          </Trackpoint>
          <Trackpoint>
            <Time>2019-10-04T13:30:14.000Z</Time>
            <Position>
              <LatitudeDegrees>43.0600480735301971435546875</LatitudeDegrees>
              <LongitudeDegrees>-5.77144433744251728057861328125</LongitudeDegrees>
            </Position>
            <AltitudeMeters>556</AltitudeMeters>
            <DistanceMeters>NAN</DistanceMeters>
          </Trackpoint>
          <Trackpoint>
            <Time>2019-10-04T13:30:17.000Z</Time>
            <Position>
              <LatitudeDegrees>43.0599892325699329376220703125</LatitudeDegrees>
              <LongitudeDegrees>-5.7713988237082958221435546875</LongitudeDegrees>
            </Position>
            <AltitudeMeters>556.79998779296875</AltitudeMeters>
            <DistanceMeters>NAN</DistanceMeters>
          </Trackpoint>
          <Trackpoint>
            <Time>2019-10-04T13:30:18.000Z</Time>
            <Position>
              <LatitudeDegrees>43.05997137911617755889892578125</LatitudeDegrees>
              <LongitudeDegrees>-5.77138063497841358184814453125</LongitudeDegrees>
            </Position>
            <AltitudeMeters>557.4000244140625</AltitudeMeters>
            <DistanceMeters>NAN</DistanceMeters>
          </Trackpoint>
          <Trackpoint>
            <Time>2019-10-04T13:30:23.000Z</Time>
            <Position>
              <LatitudeDegrees>43.05987012572586536407470703125</LatitudeDegrees>
              <LongitudeDegrees>-5.77128457836806774139404296875</LongitudeDegrees>
            </Position>
            <AltitudeMeters>558.4000244140625</AltitudeMeters>
            <DistanceMeters>NAN</DistanceMeters>
          </Trackpoint>
          <Trackpoint>
            <Time>2019-10-04T13:30:25.000Z</Time>
            <Position>
              <LatitudeDegrees>43.05982653982937335968017578125</LatitudeDegrees>
              <LongitudeDegrees>-5.7712388969957828521728515625</LongitudeDegrees>
            </Position>
            <AltitudeMeters>558.79998779296875</AltitudeMeters>
            <DistanceMeters>NAN</DistanceMeters>
          </Trackpoint>
          <Trackpoint>
            <Time>2019-10-04T13:30:29.000Z</Time>
            <Position>
              <LatitudeDegrees>43.05975772440433502197265625</LatitudeDegrees>
              <LongitudeDegrees>-5.77113387174904346466064453125</LongitudeDegrees>
            </Position>
            <AltitudeMeters>559.5999755859375</AltitudeMeters>
            <DistanceMeters>NAN</DistanceMeters>
          </Trackpoint>
          <Trackpoint>
            <Time>2019-10-04T13:30:32.000Z</Time>
            <Position>
              <LatitudeDegrees>43.0597133003175258636474609375</LatitudeDegrees>
              <LongitudeDegrees>-5.77105022035539150238037109375</LongitudeDegrees>
            </Position>
            <AltitudeMeters>560.4000244140625</AltitudeMeters>
            <DistanceMeters>NAN</DistanceMeters>
          </Trackpoint>
          <Trackpoint>
            <Time>2019-10-04T13:30:35.000Z</Time>
            <Position>
              <LatitudeDegrees>43.05967918597161769866943359375</LatitudeDegrees>
              <LongitudeDegrees>-5.77095030806958675384521484375</LongitudeDegrees>
            </Position>
            <AltitudeMeters>560.5999755859375</AltitudeMeters>
            <DistanceMeters>NAN</DistanceMeters>
          </Trackpoint>
          <Trackpoint>
            <Time>2019-10-04T13:30:39.000Z</Time>
            <Position>
              <LatitudeDegrees>43.05962855927646160125732421875</LatitudeDegrees>
              <LongitudeDegrees>-5.77082357369363307952880859375</LongitudeDegrees>
            </Position>
            <AltitudeMeters>561.4000244140625</AltitudeMeters>
            <DistanceMeters>NAN</DistanceMeters>
          </Trackpoint>
          <Trackpoint>
            <Time>2019-10-04T13:30:40.000Z</Time>
            <Position>
              <LatitudeDegrees>43.05961833335459232330322265625</LatitudeDegrees>
              <LongitudeDegrees>-5.77078820206224918365478515625</LongitudeDegrees>
            </Position>
            <AltitudeMeters>561.79998779296875</AltitudeMeters>
            <DistanceMeters>NAN</DistanceMeters>
          </Trackpoint>
          <Trackpoint>
            <Time>2019-10-04T13:30:45.000Z</Time>
            <Position>
              <LatitudeDegrees>43.0595577321946620941162109375</LatitudeDegrees>
              <LongitudeDegrees>-5.77061637304723262786865234375</LongitudeDegrees>
            </Position>
            <AltitudeMeters>561</AltitudeMeters>
            <DistanceMeters>NAN</DistanceMeters>
          </Trackpoint>
          <Trackpoint>
            <Time>2019-10-04T13:30:48.000Z</Time>
            <Position>
              <LatitudeDegrees>43.0595235340297222137451171875</LatitudeDegrees>
              <LongitudeDegrees>-5.77051864005625247955322265625</LongitudeDegrees>
            </Position>
            <AltitudeMeters>560.5999755859375</AltitudeMeters>
            <DistanceMeters>NAN</DistanceMeters>
          </Trackpoint>
          <Trackpoint>
            <Time>2019-10-04T13:30:53.000Z</Time>
            <Position>
              <LatitudeDegrees>43.05946360342204570770263671875</LatitudeDegrees>
              <LongitudeDegrees>-5.7703259401023387908935546875</LongitudeDegrees>
            </Position>
            <AltitudeMeters>560.5999755859375</AltitudeMeters>
            <DistanceMeters>NAN</DistanceMeters>
          </Trackpoint>
          <Trackpoint>
            <Time>2019-10-04T13:30:59.000Z</Time>
            <Position>
              <LatitudeDegrees>43.05938364006578922271728515625</LatitudeDegrees>
              <LongitudeDegrees>-5.77008764259517192840576171875</LongitudeDegrees>
            </Position>
            <AltitudeMeters>561.20001220703125</AltitudeMeters>
            <DistanceMeters>NAN</DistanceMeters>
          </Trackpoint>
          <Trackpoint>
            <Time>2019-10-04T13:31:01.000Z</Time>
            <Position>
              <LatitudeDegrees>43.0593525432050228118896484375</LatitudeDegrees>
              <LongitudeDegrees>-5.7700047455728054046630859375</LongitudeDegrees>
            </Position>
            <AltitudeMeters>561.5999755859375</AltitudeMeters>
            <DistanceMeters>NAN</DistanceMeters>
          </Trackpoint>
          <Trackpoint>
            <Time>2019-10-04T13:31:02.000Z</Time>
            <Position>
              <LatitudeDegrees>43.05933468975126743316650390625</LatitudeDegrees>
              <LongitudeDegrees>-5.76996593736112117767333984375</LongitudeDegrees>
            </Position>
            <AltitudeMeters>562.20001220703125</AltitudeMeters>
            <DistanceMeters>NAN</DistanceMeters>
          </Trackpoint>
          <Trackpoint>
            <Time>2019-10-04T13:31:05.000Z</Time>
            <Position>
              <LatitudeDegrees>43.0592647008597850799560546875</LatitudeDegrees>
              <LongitudeDegrees>-5.7698599062860012054443359375</LongitudeDegrees>
            </Position>
            <AltitudeMeters>563</AltitudeMeters>
            <DistanceMeters>NAN</DistanceMeters>
          </Trackpoint>
          <Trackpoint>
            <Time>2019-10-04T13:31:08.000Z</Time>
            <Position>
              <LatitudeDegrees>43.0591721646487712860107421875</LatitudeDegrees>
              <LongitudeDegrees>-5.76976795680820941925048828125</LongitudeDegrees>
            </Position>
            <AltitudeMeters>563.5999755859375</AltitudeMeters>
            <DistanceMeters>NAN</DistanceMeters>
          </Trackpoint>
          <Trackpoint>
            <Time>2019-10-04T13:31:09.000Z</Time>
            <Position>
              <LatitudeDegrees>43.0591372959315776824951171875</LatitudeDegrees>
              <LongitudeDegrees>-5.769735015928745269775390625</LongitudeDegrees>
            </Position>
            <AltitudeMeters>564</AltitudeMeters>
            <DistanceMeters>NAN</DistanceMeters>
          </Trackpoint>
          <Trackpoint>
            <Time>2019-10-04T13:31:14.000Z</Time>
            <Position>
              <LatitudeDegrees>43.05897192098200321197509765625</LatitudeDegrees>
              <LongitudeDegrees>-5.76958204619586467742919921875</LongitudeDegrees>
            </Position>
            <AltitudeMeters>565.4000244140625</AltitudeMeters>
            <DistanceMeters>NAN</DistanceMeters>
          </Trackpoint>
          <Trackpoint>
            <Time>2019-10-04T13:31:17.000Z</Time>
            <Position>
              <LatitudeDegrees>43.05888860486447811126708984375</LatitudeDegrees>
              <LongitudeDegrees>-5.76950962655246257781982421875</LongitudeDegrees>
            </Position>
            <AltitudeMeters>566.4000244140625</AltitudeMeters>
            <DistanceMeters>NAN</DistanceMeters>
          </Trackpoint>
          <Trackpoint>
            <Time>2019-10-04T13:31:22.000Z</Time>
            <Position>
              <LatitudeDegrees>43.05875063873827457427978515625</LatitudeDegrees>
              <LongitudeDegrees>-5.7693948782980442047119140625</LongitudeDegrees>
            </Position>
            <AltitudeMeters>567.5999755859375</AltitudeMeters>
            <DistanceMeters>NAN</DistanceMeters>
          </Trackpoint>
          <Trackpoint>
            <Time>2019-10-04T13:31:24.000Z</Time>
            <Position>
              <LatitudeDegrees>43.0586910434067249298095703125</LatitudeDegrees>
              <LongitudeDegrees>-5.76934534125030040740966796875</LongitudeDegrees>
            </Position>
            <AltitudeMeters>568.5999755859375</AltitudeMeters>
            <DistanceMeters>NAN</DistanceMeters>
          </Trackpoint>
          <Trackpoint>
            <Time>2019-10-04T13:31:25.000Z</Time>
            <Position>
              <LatitudeDegrees>43.058661036193370819091796875</LatitudeDegrees>
              <LongitudeDegrees>-5.76932019554078578948974609375</LongitudeDegrees>
            </Position>
            <AltitudeMeters>568.79998779296875</AltitudeMeters>
            <DistanceMeters>NAN</DistanceMeters>
          </Trackpoint>
          <Trackpoint>
            <Time>2019-10-04T13:31:29.000Z</Time>
            <Position>
              <LatitudeDegrees>43.05853463709354400634765625</LatitudeDegrees>
              <LongitudeDegrees>-5.769232101738452911376953125</LongitudeDegrees>
            </Position>
            <AltitudeMeters>569.79998779296875</AltitudeMeters>
            <DistanceMeters>NAN</DistanceMeters>
          </Trackpoint>
          <Trackpoint>
            <Time>2019-10-04T13:31:31.000Z</Time>
            <Position>
              <LatitudeDegrees>43.058464564383029937744140625</LatitudeDegrees>
              <LongitudeDegrees>-5.76920335181057453155517578125</LongitudeDegrees>
            </Position>
            <AltitudeMeters>570.5999755859375</AltitudeMeters>
            <DistanceMeters>NAN</DistanceMeters>
          </Trackpoint>
          <Trackpoint>
            <Time>2019-10-04T13:31:32.000Z</Time>
            <Position>
              <LatitudeDegrees>43.05842877365648746490478515625</LatitudeDegrees>
              <LongitudeDegrees>-5.7691984064877033233642578125</LongitudeDegrees>
            </Position>
            <AltitudeMeters>571</AltitudeMeters>
            <DistanceMeters>NAN</DistanceMeters>
          </Trackpoint>
          <Trackpoint>
            <Time>2019-10-04T13:31:36.000Z</Time>
            <Position>
              <LatitudeDegrees>43.0582766421139240264892578125</LatitudeDegrees>
              <LongitudeDegrees>-5.76921558938920497894287109375</LongitudeDegrees>
            </Position>
            <AltitudeMeters>571.79998779296875</AltitudeMeters>
            <DistanceMeters>NAN</DistanceMeters>
          </Trackpoint>
          <Trackpoint>
            <Time>2019-10-04T13:31:38.000Z</Time>
            <Position>
              <LatitudeDegrees>43.0582146160304546356201171875</LatitudeDegrees>
              <LongitudeDegrees>-5.769257582724094390869140625</LongitudeDegrees>
            </Position>
            <AltitudeMeters>572.20001220703125</AltitudeMeters>
            <DistanceMeters>NAN</DistanceMeters>
          </Trackpoint>
          <Trackpoint>
            <Time>2019-10-04T13:31:41.000Z</Time>
            <Position>
              <LatitudeDegrees>43.05814898572862148284912109375</LatitudeDegrees>
              <LongitudeDegrees>-5.76934282667934894561767578125</LongitudeDegrees>
            </Position>
            <AltitudeMeters>573.5999755859375</AltitudeMeters>
            <DistanceMeters>NAN</DistanceMeters>
          </Trackpoint>
          <Trackpoint>
            <Time>2019-10-04T13:31:45.000Z</Time>
            <Position>
              <LatitudeDegrees>43.05810992605984210968017578125</LatitudeDegrees>
              <LongitudeDegrees>-5.76947626657783985137939453125</LongitudeDegrees>
            </Position>
            <AltitudeMeters>574.79998779296875</AltitudeMeters>
            <DistanceMeters>NAN</DistanceMeters>
          </Trackpoint>
          <Trackpoint>
            <Time>2019-10-04T13:31:47.000Z</Time>
            <Position>
              <LatitudeDegrees>43.058117888867855072021484375</LatitudeDegrees>
              <LongitudeDegrees>-5.76954315416514873504638671875</LongitudeDegrees>
            </Position>
            <AltitudeMeters>575.4000244140625</AltitudeMeters>
            <DistanceMeters>NAN</DistanceMeters>
          </Trackpoint>
          <Trackpoint>
            <Time>2019-10-04T13:31:48.000Z</Time>
            <Position>
              <LatitudeDegrees>43.05812685750424861907958984375</LatitudeDegrees>
              <LongitudeDegrees>-5.76958321966230869293212890625</LongitudeDegrees>
            </Position>
            <AltitudeMeters>576</AltitudeMeters>
            <DistanceMeters>NAN</DistanceMeters>
          </Trackpoint>
          <Trackpoint>
            <Time>2019-10-04T13:31:52.000Z</Time>
            <Position>
              <LatitudeDegrees>43.0581908114254474639892578125</LatitudeDegrees>
              <LongitudeDegrees>-5.76970450580120086669921875</LongitudeDegrees>
            </Position>
            <AltitudeMeters>577.5999755859375</AltitudeMeters>
            <DistanceMeters>NAN</DistanceMeters>
          </Trackpoint>
          <Trackpoint>
            <Time>2019-10-04T13:31:56.000Z</Time>
            <Position>
              <LatitudeDegrees>43.05826147086918354034423828125</LatitudeDegrees>
              <LongitudeDegrees>-5.7698263786733150482177734375</LongitudeDegrees>
            </Position>
            <AltitudeMeters>578.5999755859375</AltitudeMeters>
            <DistanceMeters>NAN</DistanceMeters>
          </Trackpoint>
          <Trackpoint>
            <Time>2019-10-04T13:32:00.000Z</Time>
            <Position>
              <LatitudeDegrees>43.05833087302744388580322265625</LatitudeDegrees>
              <LongitudeDegrees>-5.76993844471871852874755859375</LongitudeDegrees>
            </Position>
            <AltitudeMeters>579.5999755859375</AltitudeMeters>
            <DistanceMeters>NAN</DistanceMeters>
          </Trackpoint>
          <Trackpoint>
            <Time>2019-10-04T13:32:02.000Z</Time>
            <Position>
              <LatitudeDegrees>43.05836590938270092010498046875</LatitudeDegrees>
              <LongitudeDegrees>-5.76999443583190441131591796875</LongitudeDegrees>
            </Position>
            <AltitudeMeters>580.20001220703125</AltitudeMeters>
            <DistanceMeters>NAN</DistanceMeters>
          </Trackpoint>
          <Trackpoint>
            <Time>2019-10-04T13:32:04.000Z</Time>
            <Position>
              <LatitudeDegrees>43.058399856090545654296875</LatitudeDegrees>
              <LongitudeDegrees>-5.77004942111670970916748046875</LongitudeDegrees>
            </Position>
            <AltitudeMeters>581.4000244140625</AltitudeMeters>
            <DistanceMeters>NAN</DistanceMeters>
          </Trackpoint>
          <Trackpoint>
            <Time>2019-10-04T13:32:09.000Z</Time>
            <Position>
              <LatitudeDegrees>43.05847671814262866973876953125</LatitudeDegrees>
              <LongitudeDegrees>-5.77020297758281230926513671875</LongitudeDegrees>
            </Position>
            <AltitudeMeters>582.5999755859375</AltitudeMeters>
            <DistanceMeters>NAN</DistanceMeters>
          </Trackpoint>
          <Trackpoint>
            <Time>2019-10-04T13:32:10.000Z</Time>
            <Position>
              <LatitudeDegrees>43.0584882013499736785888671875</LatitudeDegrees>
              <LongitudeDegrees>-5.770237259566783905029296875</LongitudeDegrees>
            </Position>
            <AltitudeMeters>582.79998779296875</AltitudeMeters>
            <DistanceMeters>NAN</DistanceMeters>
          </Trackpoint>
          <Trackpoint>
            <Time>2019-10-04T13:32:12.000Z</Time>
            <Position>
              <LatitudeDegrees>43.05850538425147533416748046875</LatitudeDegrees>
              <LongitudeDegrees>-5.7703004591166973114013671875</LongitudeDegrees>
            </Position>
            <AltitudeMeters>583.79998779296875</AltitudeMeters>
            <DistanceMeters>NAN</DistanceMeters>
          </Trackpoint>
          <Trackpoint>
            <Time>2019-10-04T13:32:16.000Z</Time>
            <Position>
              <LatitudeDegrees>43.0585220642387866973876953125</LatitudeDegrees>
              <LongitudeDegrees>-5.77042895369231700897216796875</LongitudeDegrees>
            </Position>
            <AltitudeMeters>585</AltitudeMeters>
            <DistanceMeters>NAN</DistanceMeters>
          </Trackpoint>
          <Trackpoint>
            <Time>2019-10-04T13:32:21.000Z</Time>
            <Position>
              <LatitudeDegrees>43.058536313474178314208984375</LatitudeDegrees>
              <LongitudeDegrees>-5.7705837674438953399658203125</LongitudeDegrees>
            </Position>
            <AltitudeMeters>586.5999755859375</AltitudeMeters>
            <DistanceMeters>NAN</DistanceMeters>
          </Trackpoint>
          <Trackpoint>
            <Time>2019-10-04T13:32:24.000Z</Time>
            <Position>
              <LatitudeDegrees>43.0585408397018909454345703125</LatitudeDegrees>
              <LongitudeDegrees>-5.770669095218181610107421875</LongitudeDegrees>
            </Position>
            <AltitudeMeters>587</AltitudeMeters>
            <DistanceMeters>NAN</DistanceMeters>
          </Trackpoint>
          <Trackpoint>
            <Time>2019-10-04T13:32:27.000Z</Time>
            <Position>
              <LatitudeDegrees>43.0585433542728424072265625</LatitudeDegrees>
              <LongitudeDegrees>-5.77075459063053131103515625</LongitudeDegrees>
            </Position>
            <AltitudeMeters>588.20001220703125</AltitudeMeters>
            <DistanceMeters>NAN</DistanceMeters>
          </Trackpoint>
          <Trackpoint>
            <Time>2019-10-04T13:32:31.000Z</Time>
            <Position>
              <LatitudeDegrees>43.058552406728267669677734375</LatitudeDegrees>
              <LongitudeDegrees>-5.7708670757710933685302734375</LongitudeDegrees>
            </Position>
            <AltitudeMeters>589.20001220703125</AltitudeMeters>
            <DistanceMeters>NAN</DistanceMeters>
          </Trackpoint>
          <Trackpoint>
            <Time>2019-10-04T13:32:32.000Z</Time>
            <Position>
              <LatitudeDegrees>43.05855500511825084686279296875</LatitudeDegrees>
              <LongitudeDegrees>-5.770898424088954925537109375</LongitudeDegrees>
            </Position>
            <AltitudeMeters>589.5999755859375</AltitudeMeters>
            <DistanceMeters>NAN</DistanceMeters>
          </Trackpoint>
          <Trackpoint>
            <Time>2019-10-04T13:32:35.000Z</Time>
            <Position>
              <LatitudeDegrees>43.05856657214462757110595703125</LatitudeDegrees>
              <LongitudeDegrees>-5.7709830813109874725341796875</LongitudeDegrees>
            </Position>
            <AltitudeMeters>590.5999755859375</AltitudeMeters>
            <DistanceMeters>NAN</DistanceMeters>
          </Trackpoint>
          <Trackpoint>
            <Time>2019-10-04T13:32:39.000Z</Time>
            <Position>
              <LatitudeDegrees>43.05859222076833248138427734375</LatitudeDegrees>
              <LongitudeDegrees>-5.77109028585255146026611328125</LongitudeDegrees>
            </Position>
            <AltitudeMeters>591.5999755859375</AltitudeMeters>
            <DistanceMeters>NAN</DistanceMeters>
          </Trackpoint>
          <Trackpoint>
            <Time>2019-10-04T13:32:41.000Z</Time>
            <Position>
              <LatitudeDegrees>43.058601357042789459228515625</LatitudeDegrees>
              <LongitudeDegrees>-5.7711420021951198577880859375</LongitudeDegrees>
            </Position>
            <AltitudeMeters>592.20001220703125</AltitudeMeters>
            <DistanceMeters>NAN</DistanceMeters>
          </Trackpoint>
          <Trackpoint>
            <Time>2019-10-04T13:32:44.000Z</Time>
            <Position>
              <LatitudeDegrees>43.05861803703010082244873046875</LatitudeDegrees>
              <LongitudeDegrees>-5.77121919952332973480224609375</LongitudeDegrees>
            </Position>
            <AltitudeMeters>593</AltitudeMeters>
            <DistanceMeters>NAN</DistanceMeters>
          </Trackpoint>
          <Trackpoint>
            <Time>2019-10-04T13:32:48.000Z</Time>
            <Position>
              <LatitudeDegrees>43.05863387882709503173828125</LatitudeDegrees>
              <LongitudeDegrees>-5.77131927944719791412353515625</LongitudeDegrees>
            </Position>
            <AltitudeMeters>594.5999755859375</AltitudeMeters>
            <DistanceMeters>NAN</DistanceMeters>
          </Trackpoint>
          <Trackpoint>
            <Time>2019-10-04T13:32:50.000Z</Time>
            <Position>
              <LatitudeDegrees>43.05864200927317142486572265625</LatitudeDegrees>
              <LongitudeDegrees>-5.7713679783046245574951171875</LongitudeDegrees>
            </Position>
            <AltitudeMeters>594.79998779296875</AltitudeMeters>
            <DistanceMeters>NAN</DistanceMeters>
          </Trackpoint>
          <Trackpoint>
            <Time>2019-10-04T13:32:52.000Z</Time>
            <Position>
              <LatitudeDegrees>43.05865206755697727203369140625</LatitudeDegrees>
              <LongitudeDegrees>-5.7714152522385120391845703125</LongitudeDegrees>
            </Position>
            <AltitudeMeters>595.5999755859375</AltitudeMeters>
            <DistanceMeters>NAN</DistanceMeters>
          </Trackpoint>
          <Trackpoint>
            <Time>2019-10-04T13:32:57.000Z</Time>
            <Position>
              <LatitudeDegrees>43.0586913786828517913818359375</LatitudeDegrees>
              <LongitudeDegrees>-5.77153687365353107452392578125</LongitudeDegrees>
            </Position>
            <AltitudeMeters>596.5999755859375</AltitudeMeters>
            <DistanceMeters>NAN</DistanceMeters>
          </Trackpoint>
          <Trackpoint>
            <Time>2019-10-04T13:33:02.000Z</Time>
            <Position>
              <LatitudeDegrees>43.05873253382742404937744140625</LatitudeDegrees>
              <LongitudeDegrees>-5.77165204100310802459716796875</LongitudeDegrees>
            </Position>
            <AltitudeMeters>597.79998779296875</AltitudeMeters>
            <DistanceMeters>NAN</DistanceMeters>
          </Trackpoint>
          <Trackpoint>
            <Time>2019-10-04T13:33:03.000Z</Time>
            <Position>
              <LatitudeDegrees>43.05874259211122989654541015625</LatitudeDegrees>
              <LongitudeDegrees>-5.7716764323413372039794921875</LongitudeDegrees>
            </Position>
            <AltitudeMeters>597.79998779296875</AltitudeMeters>
            <DistanceMeters>NAN</DistanceMeters>
          </Trackpoint>
          <Trackpoint>
            <Time>2019-10-04T13:33:09.000Z</Time>
            <Position>
              <LatitudeDegrees>43.0587577633559703826904296875</LatitudeDegrees>
              <LongitudeDegrees>-5.77184222638607025146484375</LongitudeDegrees>
            </Position>
            <AltitudeMeters>598.79998779296875</AltitudeMeters>
            <DistanceMeters>NAN</DistanceMeters>
          </Trackpoint>
          <Trackpoint>
            <Time>2019-10-04T13:33:10.000Z</Time>
            <Position>
              <LatitudeDegrees>43.05874980054795742034912109375</LatitudeDegrees>
              <LongitudeDegrees>-5.77187097631394863128662109375</LongitudeDegrees>
            </Position>
            <AltitudeMeters>599.20001220703125</AltitudeMeters>
            <DistanceMeters>NAN</DistanceMeters>
          </Trackpoint>
          <Trackpoint>
            <Time>2019-10-04T13:33:17.000Z</Time>
            <Position>
              <LatitudeDegrees>43.058658353984355926513671875</LatitudeDegrees>
              <LongitudeDegrees>-5.77208002097904682159423828125</LongitudeDegrees>
            </Position>
            <AltitudeMeters>599.4000244140625</AltitudeMeters>
            <DistanceMeters>NAN</DistanceMeters>
          </Trackpoint>
          <Trackpoint>
            <Time>2019-10-04T13:33:19.000Z</Time>
            <Position>
              <LatitudeDegrees>43.0586063861846923828125</LatitudeDegrees>
              <LongitudeDegrees>-5.772127211093902587890625</LongitudeDegrees>
            </Position>
            <AltitudeMeters>600</AltitudeMeters>
            <DistanceMeters>NAN</DistanceMeters>
          </Trackpoint>
          <Trackpoint>
            <Time>2019-10-04T13:33:24.000Z</Time>
            <Position>
              <LatitudeDegrees>43.05845291353762149810791015625</LatitudeDegrees>
              <LongitudeDegrees>-5.7722447253763675689697265625</LongitudeDegrees>
            </Position>
            <AltitudeMeters>600.79998779296875</AltitudeMeters>
            <DistanceMeters>NAN</DistanceMeters>
          </Trackpoint>
          <Trackpoint>
            <Time>2019-10-04T13:33:30.000Z</Time>
            <Position>
              <LatitudeDegrees>43.05824202485382556915283203125</LatitudeDegrees>
              <LongitudeDegrees>-5.772389732301235198974609375</LongitudeDegrees>
            </Position>
            <AltitudeMeters>601.20001220703125</AltitudeMeters>
            <DistanceMeters>NAN</DistanceMeters>
          </Trackpoint>
          <Trackpoint>
            <Time>2019-10-04T13:33:32.000Z</Time>
            <Position>
              <LatitudeDegrees>43.0581690184772014617919921875</LatitudeDegrees>
              <LongitudeDegrees>-5.7724371738731861114501953125</LongitudeDegrees>
            </Position>
            <AltitudeMeters>601.4000244140625</AltitudeMeters>
            <DistanceMeters>NAN</DistanceMeters>
          </Trackpoint>
          <Trackpoint>
            <Time>2019-10-04T13:33:38.000Z</Time>
            <Position>
              <LatitudeDegrees>43.05795636959373950958251953125</LatitudeDegrees>
              <LongitudeDegrees>-5.77258142642676830291748046875</LongitudeDegrees>
            </Position>
            <AltitudeMeters>602.4000244140625</AltitudeMeters>
            <DistanceMeters>NAN</DistanceMeters>
          </Trackpoint>
          <Trackpoint>
            <Time>2019-10-04T13:33:42.000Z</Time>
            <Position>
              <LatitudeDegrees>43.05782309733331203460693359375</LatitudeDegrees>
              <LongitudeDegrees>-5.77267413027584552764892578125</LongitudeDegrees>
            </Position>
            <AltitudeMeters>602.4000244140625</AltitudeMeters>
            <DistanceMeters>NAN</DistanceMeters>
          </Trackpoint>
          <Trackpoint>
            <Time>2019-10-04T13:33:43.000Z</Time>
            <Position>
              <LatitudeDegrees>43.057789988815784454345703125</LatitudeDegrees>
              <LongitudeDegrees>-5.7726956717669963836669921875</LongitudeDegrees>
            </Position>
            <AltitudeMeters>602.4000244140625</AltitudeMeters>
            <DistanceMeters>NAN</DistanceMeters>
          </Trackpoint>
          <Trackpoint>
            <Time>2019-10-04T13:33:47.000Z</Time>
            <Position>
              <LatitudeDegrees>43.05765730328857898712158203125</LatitudeDegrees>
              <LongitudeDegrees>-5.7727845199406147003173828125</LongitudeDegrees>
            </Position>
            <AltitudeMeters>602.79998779296875</AltitudeMeters>
            <DistanceMeters>NAN</DistanceMeters>
          </Trackpoint>
          <Trackpoint>
            <Time>2019-10-04T13:33:51.000Z</Time>
            <Position>
              <LatitudeDegrees>43.057546913623809814453125</LatitudeDegrees>
              <LongitudeDegrees>-5.77289239503443241119384765625</LongitudeDegrees>
            </Position>
            <AltitudeMeters>603</AltitudeMeters>
            <DistanceMeters>NAN</DistanceMeters>
          </Trackpoint>
          <Trackpoint>
            <Time>2019-10-04T13:33:52.000Z</Time>
            <Position>
              <LatitudeDegrees>43.05752252228558063507080078125</LatitudeDegrees>
              <LongitudeDegrees>-5.77291779220104217529296875</LongitudeDegrees>
            </Position>
            <AltitudeMeters>603.5999755859375</AltitudeMeters>
            <DistanceMeters>NAN</DistanceMeters>
          </Trackpoint>
          <Trackpoint>
            <Time>2019-10-04T13:33:58.000Z</Time>
            <Position>
              <LatitudeDegrees>43.05737282149493694305419921875</LatitudeDegrees>
              <LongitudeDegrees>-5.77306254766881465911865234375</LongitudeDegrees>
            </Position>
            <AltitudeMeters>604.20001220703125</AltitudeMeters>
            <DistanceMeters>NAN</DistanceMeters>
          </Trackpoint>
          <Trackpoint>
            <Time>2019-10-04T13:34:00.000Z</Time>
            <Position>
              <LatitudeDegrees>43.0573251284658908843994140625</LatitudeDegrees>
              <LongitudeDegrees>-5.773120634257793426513671875</LongitudeDegrees>
            </Position>
            <AltitudeMeters>604.79998779296875</AltitudeMeters>
            <DistanceMeters>NAN</DistanceMeters>
          </Trackpoint>
          <Trackpoint>
            <Time>2019-10-04T13:34:04.000Z</Time>
            <Position>
              <LatitudeDegrees>43.05723418481647968292236328125</LatitudeDegrees>
              <LongitudeDegrees>-5.773217864334583282470703125</LongitudeDegrees>
            </Position>
            <AltitudeMeters>605.4000244140625</AltitudeMeters>
            <DistanceMeters>NAN</DistanceMeters>
          </Trackpoint>
          <Trackpoint>
            <Time>2019-10-04T13:34:06.000Z</Time>
            <Position>
              <LatitudeDegrees>43.05719126947224140167236328125</LatitudeDegrees>
              <LongitudeDegrees>-5.77326907776296138763427734375</LongitudeDegrees>
            </Position>
            <AltitudeMeters>605.79998779296875</AltitudeMeters>
            <DistanceMeters>NAN</DistanceMeters>
          </Trackpoint>
          <Trackpoint>
            <Time>2019-10-04T13:34:11.000Z</Time>
            <Position>
              <LatitudeDegrees>43.05709152482450008392333984375</LatitudeDegrees>
              <LongitudeDegrees>-5.77338005416095256805419921875</LongitudeDegrees>
            </Position>
            <AltitudeMeters>606.79998779296875</AltitudeMeters>
            <DistanceMeters>NAN</DistanceMeters>
          </Trackpoint>
          <Trackpoint>
            <Time>2019-10-04T13:34:15.000Z</Time>
            <Position>
              <LatitudeDegrees>43.05700041353702545166015625</LatitudeDegrees>
              <LongitudeDegrees>-5.773485414683818817138671875</LongitudeDegrees>
            </Position>
            <AltitudeMeters>607</AltitudeMeters>
            <DistanceMeters>NAN</DistanceMeters>
          </Trackpoint>
          <Trackpoint>
            <Time>2019-10-04T13:34:18.000Z</Time>
            <Position>
              <LatitudeDegrees>43.05692623369395732879638671875</LatitudeDegrees>
              <LongitudeDegrees>-5.7735700719058513641357421875</LongitudeDegrees>
            </Position>
            <AltitudeMeters>607.5999755859375</AltitudeMeters>
            <DistanceMeters>NAN</DistanceMeters>
          </Trackpoint>
          <Trackpoint>
            <Time>2019-10-04T13:34:21.000Z</Time>
            <Position>
              <LatitudeDegrees>43.05684216320514678955078125</LatitudeDegrees>
              <LongitudeDegrees>-5.7736502029001712799072265625</LongitudeDegrees>
            </Position>
            <AltitudeMeters>608</AltitudeMeters>
            <DistanceMeters>NAN</DistanceMeters>
          </Trackpoint>
          <Trackpoint>
            <Time>2019-10-04T13:34:25.000Z</Time>
            <Position>
              <LatitudeDegrees>43.05673780851066112518310546875</LatitudeDegrees>
              <LongitudeDegrees>-5.77374667860567569732666015625</LongitudeDegrees>
            </Position>
            <AltitudeMeters>608.4000244140625</AltitudeMeters>
            <DistanceMeters>NAN</DistanceMeters>
          </Trackpoint>
          <Trackpoint>
            <Time>2019-10-04T13:34:32.000Z</Time>
            <Position>
              <LatitudeDegrees>43.05655189789831638336181640625</LatitudeDegrees>
              <LongitudeDegrees>-5.77387039549648761749267578125</LongitudeDegrees>
            </Position>
            <AltitudeMeters>609.20001220703125</AltitudeMeters>
            <DistanceMeters>NAN</DistanceMeters>
          </Trackpoint>
          <Trackpoint>
            <Time>2019-10-04T13:34:34.000Z</Time>
            <Position>
              <LatitudeDegrees>43.05649481713771820068359375</LatitudeDegrees>
              <LongitudeDegrees>-5.7738961279392242431640625</LongitudeDegrees>
            </Position>
            <AltitudeMeters>609.4000244140625</AltitudeMeters>
            <DistanceMeters>NAN</DistanceMeters>
          </Trackpoint>
          <Trackpoint>
            <Time>2019-10-04T13:34:41.000Z</Time>
            <Position>
              <LatitudeDegrees>43.05629608221352100372314453125</LatitudeDegrees>
              <LongitudeDegrees>-5.77395186759531497955322265625</LongitudeDegrees>
            </Position>
            <AltitudeMeters>610.20001220703125</AltitudeMeters>
            <DistanceMeters>NAN</DistanceMeters>
          </Trackpoint>
          <Trackpoint>
            <Time>2019-10-04T13:34:50.000Z</Time>
            <Position>
              <LatitudeDegrees>43.05605853907763957977294921875</LatitudeDegrees>
              <LongitudeDegrees>-5.7739858143031597137451171875</LongitudeDegrees>
            </Position>
            <AltitudeMeters>610.5999755859375</AltitudeMeters>
            <DistanceMeters>NAN</DistanceMeters>
          </Trackpoint>
          <Trackpoint>
            <Time>2019-10-04T13:34:59.000Z</Time>
            <Position>
              <LatitudeDegrees>43.05583373643457889556884765625</LatitudeDegrees>
              <LongitudeDegrees>-5.77404038049280643463134765625</LongitudeDegrees>
            </Position>
            <AltitudeMeters>610.5999755859375</AltitudeMeters>
            <DistanceMeters>NAN</DistanceMeters>
          </Trackpoint>
          <Trackpoint>
            <Time>2019-10-04T13:35:08.000Z</Time>
            <Position>
              <LatitudeDegrees>43.055616728961467742919921875</LatitudeDegrees>
              <LongitudeDegrees>-5.77412503771483898162841796875</LongitudeDegrees>
            </Position>
            <AltitudeMeters>611.20001220703125</AltitudeMeters>
            <DistanceMeters>NAN</DistanceMeters>
          </Trackpoint>
          <Trackpoint>
            <Time>2019-10-04T13:35:16.000Z</Time>
            <Position>
              <LatitudeDegrees>43.05543023161590099334716796875</LatitudeDegrees>
              <LongitudeDegrees>-5.774208270013332366943359375</LongitudeDegrees>
            </Position>
            <AltitudeMeters>612</AltitudeMeters>
            <DistanceMeters>NAN</DistanceMeters>
          </Trackpoint>
          <Trackpoint>
            <Time>2019-10-04T13:35:22.000Z</Time>
            <Position>
              <LatitudeDegrees>43.05527265183627605438232421875</LatitudeDegrees>
              <LongitudeDegrees>-5.7742835395038127899169921875</LongitudeDegrees>
            </Position>
            <AltitudeMeters>612.4000244140625</AltitudeMeters>
            <DistanceMeters>NAN</DistanceMeters>
          </Trackpoint>
          <Trackpoint>
            <Time>2019-10-04T13:35:23.000Z</Time>
            <Position>
              <LatitudeDegrees>43.055245913565158843994140625</LatitudeDegrees>
              <LongitudeDegrees>-5.77429569326341152191162109375</LongitudeDegrees>
            </Position>
            <AltitudeMeters>612.5999755859375</AltitudeMeters>
            <DistanceMeters>NAN</DistanceMeters>
          </Trackpoint>
          <Trackpoint>
            <Time>2019-10-04T13:35:29.000Z</Time>
            <Position>
              <LatitudeDegrees>43.0550861544907093048095703125</LatitudeDegrees>
              <LongitudeDegrees>-5.774312205612659454345703125</LongitudeDegrees>
            </Position>
            <AltitudeMeters>613.4000244140625</AltitudeMeters>
            <DistanceMeters>NAN</DistanceMeters>
          </Trackpoint>
          <Trackpoint>
            <Time>2019-10-04T13:35:30.000Z</Time>
            <Position>
              <LatitudeDegrees>43.0550640262663364410400390625</LatitudeDegrees>
              <LongitudeDegrees>-5.77430449426174163818359375</LongitudeDegrees>
            </Position>
            <AltitudeMeters>613.4000244140625</AltitudeMeters>
            <DistanceMeters>NAN</DistanceMeters>
          </Trackpoint>
          <Trackpoint>
            <Time>2019-10-04T13:35:36.000Z</Time>
            <Position>
              <LatitudeDegrees>43.05494039319455623626708984375</LatitudeDegrees>
              <LongitudeDegrees>-5.774218328297138214111328125</LongitudeDegrees>
            </Position>
            <AltitudeMeters>614.20001220703125</AltitudeMeters>
            <DistanceMeters>NAN</DistanceMeters>
          </Trackpoint>
          <Trackpoint>
            <Time>2019-10-04T13:35:37.000Z</Time>
            <Position>
              <LatitudeDegrees>43.0549223721027374267578125</LatitudeDegrees>
              <LongitudeDegrees>-5.7741943560540676116943359375</LongitudeDegrees>
            </Position>
            <AltitudeMeters>614.5999755859375</AltitudeMeters>
            <DistanceMeters>NAN</DistanceMeters>
          </Trackpoint>
          <Trackpoint>
            <Time>2019-10-04T13:35:42.000Z</Time>
            <Position>
              <LatitudeDegrees>43.0548300035297870635986328125</LatitudeDegrees>
              <LongitudeDegrees>-5.7740407995879650115966796875</LongitudeDegrees>
            </Position>
            <AltitudeMeters>615.5999755859375</AltitudeMeters>
            <DistanceMeters>NAN</DistanceMeters>
          </Trackpoint>
          <Trackpoint>
            <Time>2019-10-04T13:35:48.000Z</Time>
            <Position>
              <LatitudeDegrees>43.05473889224231243133544921875</LatitudeDegrees>
              <LongitudeDegrees>-5.77383913099765777587890625</LongitudeDegrees>
            </Position>
            <AltitudeMeters>616</AltitudeMeters>
            <DistanceMeters>NAN</DistanceMeters>
          </Trackpoint>
          <Trackpoint>
            <Time>2019-10-04T13:35:49.000Z</Time>
            <Position>
              <LatitudeDegrees>43.054724894464015960693359375</LatitudeDegrees>
              <LongitudeDegrees>-5.77380535192787647247314453125</LongitudeDegrees>
            </Position>
            <AltitudeMeters>616.5999755859375</AltitudeMeters>
            <DistanceMeters>NAN</DistanceMeters>
          </Trackpoint>
          <Trackpoint>
            <Time>2019-10-04T13:35:51.000Z</Time>
            <Position>
              <LatitudeDegrees>43.054694719612598419189453125</LatitudeDegrees>
              <LongitudeDegrees>-5.773738883435726165771484375</LongitudeDegrees>
            </Position>
            <AltitudeMeters>616.79998779296875</AltitudeMeters>
            <DistanceMeters>NAN</DistanceMeters>
          </Trackpoint>
          <Trackpoint>
            <Time>2019-10-04T13:35:59.000Z</Time>
            <Position>
              <LatitudeDegrees>43.054590113461017608642578125</LatitudeDegrees>
              <LongitudeDegrees>-5.7734723389148712158203125</LongitudeDegrees>
            </Position>
            <AltitudeMeters>618</AltitudeMeters>
            <DistanceMeters>NAN</DistanceMeters>
          </Trackpoint>
          <Trackpoint>
            <Time>2019-10-04T13:36:09.000Z</Time>
            <Position>
              <LatitudeDegrees>43.054453320801258087158203125</LatitudeDegrees>
              <LongitudeDegrees>-5.7731469534337520599365234375</LongitudeDegrees>
            </Position>
            <AltitudeMeters>618.5999755859375</AltitudeMeters>
            <DistanceMeters>NAN</DistanceMeters>
          </Trackpoint>
          <Trackpoint>
            <Time>2019-10-04T13:36:20.000Z</Time>
            <Position>
              <LatitudeDegrees>43.0542731098830699920654296875</LatitudeDegrees>
              <LongitudeDegrees>-5.77283372171223163604736328125</LongitudeDegrees>
            </Position>
            <AltitudeMeters>618.79998779296875</AltitudeMeters>
            <DistanceMeters>NAN</DistanceMeters>
          </Trackpoint>
          <Trackpoint>
            <Time>2019-10-04T13:36:28.000Z</Time>
            <Position>
              <LatitudeDegrees>43.0541423521935939788818359375</LatitudeDegrees>
              <LongitudeDegrees>-5.77268251217901706695556640625</LongitudeDegrees>
            </Position>
            <AltitudeMeters>618.79998779296875</AltitudeMeters>
            <DistanceMeters>NAN</DistanceMeters>
          </Trackpoint>
          <Trackpoint>
            <Time>2019-10-04T13:36:30.000Z</Time>
            <Position>
              <LatitudeDegrees>43.05410907603800296783447265625</LatitudeDegrees>
              <LongitudeDegrees>-5.772647224366664886474609375</LongitudeDegrees>
            </Position>
            <AltitudeMeters>619</AltitudeMeters>
            <DistanceMeters>NAN</DistanceMeters>
          </Trackpoint>
          <Trackpoint>
            <Time>2019-10-04T13:36:34.000Z</Time>
            <Position>
              <LatitudeDegrees>43.05404839105904102325439453125</LatitudeDegrees>
              <LongitudeDegrees>-5.7725786603987216949462890625</LongitudeDegrees>
            </Position>
            <AltitudeMeters>619.20001220703125</AltitudeMeters>
            <DistanceMeters>NAN</DistanceMeters>
          </Trackpoint>
          <Trackpoint>
            <Time>2019-10-04T13:36:39.000Z</Time>
            <Position>
              <LatitudeDegrees>43.053973205387592315673828125</LatitudeDegrees>
              <LongitudeDegrees>-5.77249777503311634063720703125</LongitudeDegrees>
            </Position>
            <AltitudeMeters>619.79998779296875</AltitudeMeters>
            <DistanceMeters>NAN</DistanceMeters>
          </Trackpoint>
          <Trackpoint>
            <Time>2019-10-04T13:36:40.000Z</Time>
            <Position>
              <LatitudeDegrees>43.05396012961864471435546875</LatitudeDegrees>
              <LongitudeDegrees>-5.7724797539412975311279296875</LongitudeDegrees>
            </Position>
            <AltitudeMeters>620.20001220703125</AltitudeMeters>
            <DistanceMeters>NAN</DistanceMeters>
          </Trackpoint>
          <Trackpoint>
            <Time>2019-10-04T13:36:44.000Z</Time>
            <Position>
              <LatitudeDegrees>43.05389584042131900787353515625</LatitudeDegrees>
              <LongitudeDegrees>-5.772417895495891571044921875</LongitudeDegrees>
            </Position>
            <AltitudeMeters>621</AltitudeMeters>
            <DistanceMeters>NAN</DistanceMeters>
          </Trackpoint>
          <Trackpoint>
            <Time>2019-10-04T13:36:48.000Z</Time>
            <Position>
              <LatitudeDegrees>43.05383800528943538665771484375</LatitudeDegrees>
              <LongitudeDegrees>-5.77235561795532703399658203125</LongitudeDegrees>
            </Position>
            <AltitudeMeters>621.20001220703125</AltitudeMeters>
            <DistanceMeters>NAN</DistanceMeters>
          </Trackpoint>
          <Trackpoint>
            <Time>2019-10-04T13:36:55.000Z</Time>
            <Position>
              <LatitudeDegrees>43.05374613963067531585693359375</LatitudeDegrees>
              <LongitudeDegrees>-5.7722564600408077239990234375</LongitudeDegrees>
            </Position>
            <AltitudeMeters>621.79998779296875</AltitudeMeters>
            <DistanceMeters>NAN</DistanceMeters>
          </Trackpoint>
          <Trackpoint>
            <Time>2019-10-04T13:36:59.000Z</Time>
            <Position>
              <LatitudeDegrees>43.05369718931615352630615234375</LatitudeDegrees>
              <LongitudeDegrees>-5.77220709063112735748291015625</LongitudeDegrees>
            </Position>
            <AltitudeMeters>622.4000244140625</AltitudeMeters>
            <DistanceMeters>NAN</DistanceMeters>
          </Trackpoint>
          <Trackpoint>
            <Time>2019-10-04T13:37:01.000Z</Time>
            <Position>
              <LatitudeDegrees>43.053674139082431793212890625</LatitudeDegrees>
              <LongitudeDegrees>-5.77218848280608654022216796875</LongitudeDegrees>
            </Position>
            <AltitudeMeters>622.5999755859375</AltitudeMeters>
            <DistanceMeters>NAN</DistanceMeters>
          </Trackpoint>
          <Trackpoint>
            <Time>2019-10-04T13:37:09.000Z</Time>
            <Position>
              <LatitudeDegrees>43.05356693454086780548095703125</LatitudeDegrees>
              <LongitudeDegrees>-5.7720847986638545989990234375</LongitudeDegrees>
            </Position>
            <AltitudeMeters>623.4000244140625</AltitudeMeters>
            <DistanceMeters>NAN</DistanceMeters>
          </Trackpoint>
          <Trackpoint>
            <Time>2019-10-04T13:37:10.000Z</Time>
            <Position>
              <LatitudeDegrees>43.053553104400634765625</LatitudeDegrees>
              <LongitudeDegrees>-5.77207264490425586700439453125</LongitudeDegrees>
            </Position>
            <AltitudeMeters>623.20001220703125</AltitudeMeters>
            <DistanceMeters>NAN</DistanceMeters>
          </Trackpoint>
          <Trackpoint>
            <Time>2019-10-04T13:37:17.000Z</Time>
            <Position>
              <LatitudeDegrees>43.05345327593386173248291015625</LatitudeDegrees>
              <LongitudeDegrees>-5.7719657756388187408447265625</LongitudeDegrees>
            </Position>
            <AltitudeMeters>624</AltitudeMeters>
            <DistanceMeters>NAN</DistanceMeters>
          </Trackpoint>
          <Trackpoint>
            <Time>2019-10-04T13:37:20.000Z</Time>
            <Position>
              <LatitudeDegrees>43.05341673083603382110595703125</LatitudeDegrees>
              <LongitudeDegrees>-5.7719205133616924285888671875</LongitudeDegrees>
            </Position>
            <AltitudeMeters>624.5999755859375</AltitudeMeters>
            <DistanceMeters>NAN</DistanceMeters>
          </Trackpoint>
          <Trackpoint>
            <Time>2019-10-04T13:37:27.000Z</Time>
            <Position>
              <LatitudeDegrees>43.05332117713987827301025390625</LatitudeDegrees>
              <LongitudeDegrees>-5.77180274762213230133056640625</LongitudeDegrees>
            </Position>
            <AltitudeMeters>625.5999755859375</AltitudeMeters>
            <DistanceMeters>NAN</DistanceMeters>
          </Trackpoint>
          <Trackpoint>
            <Time>2019-10-04T13:37:29.000Z</Time>
            <Position>
              <LatitudeDegrees>43.05329301394522190093994140625</LatitudeDegrees>
              <LongitudeDegrees>-5.77177039347589015960693359375</LongitudeDegrees>
            </Position>
            <AltitudeMeters>625.79998779296875</AltitudeMeters>
            <DistanceMeters>NAN</DistanceMeters>
          </Trackpoint>
          <Trackpoint>
            <Time>2019-10-04T13:37:36.000Z</Time>
            <Position>
              <LatitudeDegrees>43.05319159291684627532958984375</LatitudeDegrees>
              <LongitudeDegrees>-5.771649777889251708984375</LongitudeDegrees>
            </Position>
            <AltitudeMeters>626.5999755859375</AltitudeMeters>
            <DistanceMeters>NAN</DistanceMeters>
          </Trackpoint>
          <Trackpoint>
            <Time>2019-10-04T13:37:37.000Z</Time>
            <Position>
              <LatitudeDegrees>43.05318220518529415130615234375</LatitudeDegrees>
              <LongitudeDegrees>-5.77163594774901866912841796875</LongitudeDegrees>
            </Position>
            <AltitudeMeters>626.5999755859375</AltitudeMeters>
            <DistanceMeters>NAN</DistanceMeters>
          </Trackpoint>
          <Trackpoint>
            <Time>2019-10-04T13:37:43.000Z</Time>
            <Position>
              <LatitudeDegrees>43.0530852265655994415283203125</LatitudeDegrees>
              <LongitudeDegrees>-5.77151994220912456512451171875</LongitudeDegrees>
            </Position>
            <AltitudeMeters>627.79998779296875</AltitudeMeters>
            <DistanceMeters>NAN</DistanceMeters>
          </Trackpoint>
          <Trackpoint>
            <Time>2019-10-04T13:37:44.000Z</Time>
            <Position>
              <LatitudeDegrees>43.05306720547378063201904296875</LatitudeDegrees>
              <LongitudeDegrees>-5.77149613760411739349365234375</LongitudeDegrees>
            </Position>
            <AltitudeMeters>627.5999755859375</AltitudeMeters>
            <DistanceMeters>NAN</DistanceMeters>
          </Trackpoint>
          <Trackpoint>
            <Time>2019-10-04T13:37:51.000Z</Time>
            <Position>
              <LatitudeDegrees>43.0529437400400638580322265625</LatitudeDegrees>
              <LongitudeDegrees>-5.77136420644819736480712890625</LongitudeDegrees>
            </Position>
            <AltitudeMeters>628.79998779296875</AltitudeMeters>
            <DistanceMeters>NAN</DistanceMeters>
          </Trackpoint>
          <Trackpoint>
            <Time>2019-10-04T13:37:52.000Z</Time>
            <Position>
              <LatitudeDegrees>43.0529268085956573486328125</LatitudeDegrees>
              <LongitudeDegrees>-5.77135096304118633270263671875</LongitudeDegrees>
            </Position>
            <AltitudeMeters>629.20001220703125</AltitudeMeters>
            <DistanceMeters>NAN</DistanceMeters>
          </Trackpoint>
          <Trackpoint>
            <Time>2019-10-04T13:37:58.000Z</Time>
            <Position>
              <LatitudeDegrees>43.05282915942370891571044921875</LatitudeDegrees>
              <LongitudeDegrees>-5.77126295305788516998291015625</LongitudeDegrees>
            </Position>
            <AltitudeMeters>630</AltitudeMeters>
            <DistanceMeters>NAN</DistanceMeters>
          </Trackpoint>
          <Trackpoint>
            <Time>2019-10-04T13:38:00.000Z</Time>
            <Position>
              <LatitudeDegrees>43.0528066121041774749755859375</LatitudeDegrees>
              <LongitudeDegrees>-5.7712405733764171600341796875</LongitudeDegrees>
            </Position>
            <AltitudeMeters>630</AltitudeMeters>
            <DistanceMeters>NAN</DistanceMeters>
          </Trackpoint>
          <Trackpoint>
            <Time>2019-10-04T13:38:04.000Z</Time>
            <Position>
              <LatitudeDegrees>43.05274643003940582275390625</LatitudeDegrees>
              <LongitudeDegrees>-5.7711795531213283538818359375</LongitudeDegrees>
            </Position>
            <AltitudeMeters>630.79998779296875</AltitudeMeters>
            <DistanceMeters>NAN</DistanceMeters>
          </Trackpoint>
          <Trackpoint>
            <Time>2019-10-04T13:38:05.000Z</Time>
            <Position>
              <LatitudeDegrees>43.0527261458337306976318359375</LatitudeDegrees>
              <LongitudeDegrees>-5.7711656391620635986328125</LongitudeDegrees>
            </Position>
            <AltitudeMeters>631.20001220703125</AltitudeMeters>
            <DistanceMeters>NAN</DistanceMeters>
          </Trackpoint>
          <Trackpoint>
            <Time>2019-10-04T13:38:11.000Z</Time>
            <Position>
              <LatitudeDegrees>43.05261039175093173980712890625</LatitudeDegrees>
              <LongitudeDegrees>-5.771075785160064697265625</LongitudeDegrees>
            </Position>
            <AltitudeMeters>632.4000244140625</AltitudeMeters>
            <DistanceMeters>NAN</DistanceMeters>
          </Trackpoint>
          <Trackpoint>
            <Time>2019-10-04T13:38:12.000Z</Time>
            <Position>
              <LatitudeDegrees>43.05259278975427150726318359375</LatitudeDegrees>
              <LongitudeDegrees>-5.77105860225856304168701171875</LongitudeDegrees>
            </Position>
            <AltitudeMeters>632.4000244140625</AltitudeMeters>
            <DistanceMeters>NAN</DistanceMeters>
          </Trackpoint>
          <Trackpoint>
            <Time>2019-10-04T13:38:16.000Z</Time>
            <Position>
              <LatitudeDegrees>43.0525202862918376922607421875</LatitudeDegrees>
              <LongitudeDegrees>-5.7709961570799350738525390625</LongitudeDegrees>
            </Position>
            <AltitudeMeters>633.4000244140625</AltitudeMeters>
            <DistanceMeters>NAN</DistanceMeters>
          </Trackpoint>
          <Trackpoint>
            <Time>2019-10-04T13:38:20.000Z</Time>
            <Position>
              <LatitudeDegrees>43.05245281197130680084228515625</LatitudeDegrees>
              <LongitudeDegrees>-5.77094360254704952239990234375</LongitudeDegrees>
            </Position>
            <AltitudeMeters>634.20001220703125</AltitudeMeters>
            <DistanceMeters>NAN</DistanceMeters>
          </Trackpoint>
          <Trackpoint>
            <Time>2019-10-04T13:38:23.000Z</Time>
            <Position>
              <LatitudeDegrees>43.05240520276129245758056640625</LatitudeDegrees>
              <LongitudeDegrees>-5.77090554870665073394775390625</LongitudeDegrees>
            </Position>
            <AltitudeMeters>634.4000244140625</AltitudeMeters>
            <DistanceMeters>NAN</DistanceMeters>
          </Trackpoint>
          <Trackpoint>
            <Time>2019-10-04T13:38:27.000Z</Time>
            <Position>
              <LatitudeDegrees>43.05234275758266448974609375</LatitudeDegrees>
              <LongitudeDegrees>-5.77085710130631923675537109375</LongitudeDegrees>
            </Position>
            <AltitudeMeters>635.5999755859375</AltitudeMeters>
            <DistanceMeters>NAN</DistanceMeters>
          </Trackpoint>
          <Trackpoint>
            <Time>2019-10-04T13:38:28.000Z</Time>
            <Position>
              <LatitudeDegrees>43.05232205428183078765869140625</LatitudeDegrees>
              <LongitudeDegrees>-5.7708449475467205047607421875</LongitudeDegrees>
            </Position>
            <AltitudeMeters>635.79998779296875</AltitudeMeters>
            <DistanceMeters>NAN</DistanceMeters>
          </Trackpoint>
          <Trackpoint>
            <Time>2019-10-04T13:38:33.000Z</Time>
            <Position>
              <LatitudeDegrees>43.05224829353392124176025390625</LatitudeDegrees>
              <LongitudeDegrees>-5.77078619040548801422119140625</LongitudeDegrees>
            </Position>
            <AltitudeMeters>636.79998779296875</AltitudeMeters>
            <DistanceMeters>NAN</DistanceMeters>
          </Trackpoint>
          <Trackpoint>
            <Time>2019-10-04T13:38:34.000Z</Time>
            <Position>
              <LatitudeDegrees>43.0522321164608001708984375</LatitudeDegrees>
              <LongitudeDegrees>-5.770768336951732635498046875</LongitudeDegrees>
            </Position>
            <AltitudeMeters>636.79998779296875</AltitudeMeters>
            <DistanceMeters>NAN</DistanceMeters>
          </Trackpoint>
          <Trackpoint>
            <Time>2019-10-04T13:38:42.000Z</Time>
            <Position>
              <LatitudeDegrees>43.0521105788648128509521484375</LatitudeDegrees>
              <LongitudeDegrees>-5.77066607773303985595703125</LongitudeDegrees>
            </Position>
            <AltitudeMeters>638</AltitudeMeters>
            <DistanceMeters>NAN</DistanceMeters>
          </Trackpoint>
          <Trackpoint>
            <Time>2019-10-04T13:38:48.000Z</Time>
            <Position>
              <LatitudeDegrees>43.05200748145580291748046875</LatitudeDegrees>
              <LongitudeDegrees>-5.77059541828930377960205078125</LongitudeDegrees>
            </Position>
            <AltitudeMeters>639</AltitudeMeters>
            <DistanceMeters>NAN</DistanceMeters>
          </Trackpoint>
          <Trackpoint>
            <Time>2019-10-04T13:38:50.000Z</Time>
            <Position>
              <LatitudeDegrees>43.05197135545313358306884765625</LatitudeDegrees>
              <LongitudeDegrees>-5.7705663330852985382080078125</LongitudeDegrees>
            </Position>
            <AltitudeMeters>639.4000244140625</AltitudeMeters>
            <DistanceMeters>NAN</DistanceMeters>
          </Trackpoint>
          <Trackpoint>
            <Time>2019-10-04T13:38:53.000Z</Time>
            <Position>
              <LatitudeDegrees>43.0519117601215839385986328125</LatitudeDegrees>
              <LongitudeDegrees>-5.770530290901660919189453125</LongitudeDegrees>
            </Position>
            <AltitudeMeters>640.20001220703125</AltitudeMeters>
            <DistanceMeters>NAN</DistanceMeters>
          </Trackpoint>
          <Trackpoint>
            <Time>2019-10-04T13:38:58.000Z</Time>
            <Position>
              <LatitudeDegrees>43.0518212355673313140869140625</LatitudeDegrees>
              <LongitudeDegrees>-5.77048393897712230682373046875</LongitudeDegrees>
            </Position>
            <AltitudeMeters>641.20001220703125</AltitudeMeters>
            <DistanceMeters>NAN</DistanceMeters>
          </Trackpoint>
          <Trackpoint>
            <Time>2019-10-04T13:39:02.000Z</Time>
            <Position>
              <LatitudeDegrees>43.05174621753394603729248046875</LatitudeDegrees>
              <LongitudeDegrees>-5.77044638805091381072998046875</LongitudeDegrees>
            </Position>
            <AltitudeMeters>642.20001220703125</AltitudeMeters>
            <DistanceMeters>NAN</DistanceMeters>
          </Trackpoint>
          <Trackpoint>
            <Time>2019-10-04T13:39:06.000Z</Time>
            <Position>
              <LatitudeDegrees>43.05166960693895816802978515625</LatitudeDegrees>
              <LongitudeDegrees>-5.77042895369231700897216796875</LongitudeDegrees>
            </Position>
            <AltitudeMeters>642.4000244140625</AltitudeMeters>
            <DistanceMeters>NAN</DistanceMeters>
          </Trackpoint>
          <Trackpoint>
            <Time>2019-10-04T13:39:10.000Z</Time>
            <Position>
              <LatitudeDegrees>43.0515932478010654449462890625</LatitudeDegrees>
              <LongitudeDegrees>-5.77046851627528667449951171875</LongitudeDegrees>
            </Position>
            <AltitudeMeters>643.4000244140625</AltitudeMeters>
            <DistanceMeters>NAN</DistanceMeters>
          </Trackpoint>
          <Trackpoint>
            <Time>2019-10-04T13:39:12.000Z</Time>
            <Position>
              <LatitudeDegrees>43.05156466551125049591064453125</LatitudeDegrees>
              <LongitudeDegrees>-5.770500786602497100830078125</LongitudeDegrees>
            </Position>
            <AltitudeMeters>643.5999755859375</AltitudeMeters>
            <DistanceMeters>NAN</DistanceMeters>
          </Trackpoint>
          <Trackpoint>
            <Time>2019-10-04T13:39:16.000Z</Time>
            <Position>
              <LatitudeDegrees>43.05153541266918182373046875</LatitudeDegrees>
              <LongitudeDegrees>-5.7706035487353801727294921875</LongitudeDegrees>
            </Position>
            <AltitudeMeters>644.5999755859375</AltitudeMeters>
            <DistanceMeters>NAN</DistanceMeters>
          </Trackpoint>
          <Trackpoint>
            <Time>2019-10-04T13:39:18.000Z</Time>
            <Position>
              <LatitudeDegrees>43.05154614150524139404296875</LatitudeDegrees>
              <LongitudeDegrees>-5.7706506550312042236328125</LongitudeDegrees>
            </Position>
            <AltitudeMeters>644.79998779296875</AltitudeMeters>
            <DistanceMeters>NAN</DistanceMeters>
          </Trackpoint>
          <Trackpoint>
            <Time>2019-10-04T13:39:23.000Z</Time>
            <Position>
              <LatitudeDegrees>43.051597438752651214599609375</LatitudeDegrees>
              <LongitudeDegrees>-5.7707726955413818359375</LongitudeDegrees>
            </Position>
            <AltitudeMeters>646.20001220703125</AltitudeMeters>
            <DistanceMeters>NAN</DistanceMeters>
          </Trackpoint>
          <Trackpoint>
            <Time>2019-10-04T13:39:26.000Z</Time>
            <Position>
              <LatitudeDegrees>43.051624596118927001953125</LatitudeDegrees>
              <LongitudeDegrees>-5.7708536647260189056396484375</LongitudeDegrees>
            </Position>
            <AltitudeMeters>646.4000244140625</AltitudeMeters>
            <DistanceMeters>NAN</DistanceMeters>
          </Trackpoint>
          <Trackpoint>
            <Time>2019-10-04T13:39:30.000Z</Time>
            <Position>
              <LatitudeDegrees>43.05166239850223064422607421875</LatitudeDegrees>
              <LongitudeDegrees>-5.77096103690564632415771484375</LongitudeDegrees>
            </Position>
            <AltitudeMeters>647.4000244140625</AltitudeMeters>
            <DistanceMeters>NAN</DistanceMeters>
          </Trackpoint>
          <Trackpoint>
            <Time>2019-10-04T13:39:33.000Z</Time>
            <Position>
              <LatitudeDegrees>43.05169911123812198638916015625</LatitudeDegrees>
              <LongitudeDegrees>-5.771040581166744232177734375</LongitudeDegrees>
            </Position>
            <AltitudeMeters>647.5999755859375</AltitudeMeters>
            <DistanceMeters>NAN</DistanceMeters>
          </Trackpoint>
          <Trackpoint>
            <Time>2019-10-04T13:39:36.000Z</Time>
            <Position>
              <LatitudeDegrees>43.051728866994380950927734375</LatitudeDegrees>
              <LongitudeDegrees>-5.7711289264261722564697265625</LongitudeDegrees>
            </Position>
            <AltitudeMeters>648.4000244140625</AltitudeMeters>
            <DistanceMeters>NAN</DistanceMeters>
          </Trackpoint>
          <Trackpoint>
            <Time>2019-10-04T13:39:40.000Z</Time>
            <Position>
              <LatitudeDegrees>43.05177924223244190216064453125</LatitudeDegrees>
              <LongitudeDegrees>-5.77122875489294528961181640625</LongitudeDegrees>
            </Position>
            <AltitudeMeters>649</AltitudeMeters>
            <DistanceMeters>NAN</DistanceMeters>
          </Trackpoint>
          <Trackpoint>
            <Time>2019-10-04T13:39:44.000Z</Time>
            <Position>
              <LatitudeDegrees>43.05183037184178829193115234375</LatitudeDegrees>
              <LongitudeDegrees>-5.77131575904786586761474609375</LongitudeDegrees>
            </Position>
            <AltitudeMeters>649.79998779296875</AltitudeMeters>
            <DistanceMeters>NAN</DistanceMeters>
          </Trackpoint>
          <Trackpoint>
            <Time>2019-10-04T13:39:46.000Z</Time>
            <Position>
              <LatitudeDegrees>43.0518594570457935333251953125</LatitudeDegrees>
              <LongitudeDegrees>-5.77136403881013393402099609375</LongitudeDegrees>
            </Position>
            <AltitudeMeters>650.20001220703125</AltitudeMeters>
            <DistanceMeters>NAN</DistanceMeters>
          </Trackpoint>
          <Trackpoint>
            <Time>2019-10-04T13:39:51.000Z</Time>
            <Position>
              <LatitudeDegrees>43.0519308708608150482177734375</LatitudeDegrees>
              <LongitudeDegrees>-5.77149831689894199371337890625</LongitudeDegrees>
            </Position>
            <AltitudeMeters>650.79998779296875</AltitudeMeters>
            <DistanceMeters>NAN</DistanceMeters>
          </Trackpoint>
          <Trackpoint>
            <Time>2019-10-04T13:39:53.000Z</Time>
            <Position>
              <LatitudeDegrees>43.05196322500705718994140625</LatitudeDegrees>
              <LongitudeDegrees>-5.7715411484241485595703125</LongitudeDegrees>
            </Position>
            <AltitudeMeters>651.20001220703125</AltitudeMeters>
            <DistanceMeters>NAN</DistanceMeters>
          </Trackpoint>
          <Trackpoint>
            <Time>2019-10-04T13:39:56.000Z</Time>
            <Position>
              <LatitudeDegrees>43.05199868045747280120849609375</LatitudeDegrees>
              <LongitudeDegrees>-5.77162630856037139892578125</LongitudeDegrees>
            </Position>
            <AltitudeMeters>651.79998779296875</AltitudeMeters>
            <DistanceMeters>NAN</DistanceMeters>
          </Trackpoint>
          <Trackpoint>
            <Time>2019-10-04T13:39:59.000Z</Time>
            <Position>
              <LatitudeDegrees>43.05203924886882305145263671875</LatitudeDegrees>
              <LongitudeDegrees>-5.7717106305062770843505859375</LongitudeDegrees>
            </Position>
            <AltitudeMeters>652</AltitudeMeters>
            <DistanceMeters>NAN</DistanceMeters>
          </Trackpoint>
          <Trackpoint>
            <Time>2019-10-04T13:40:07.000Z</Time>
            <Position>
              <LatitudeDegrees>43.05214636959135532379150390625</LatitudeDegrees>
              <LongitudeDegrees>-5.7719238661229610443115234375</LongitudeDegrees>
            </Position>
            <AltitudeMeters>653.20001220703125</AltitudeMeters>
            <DistanceMeters>NAN</DistanceMeters>
          </Trackpoint>
          <Trackpoint>
            <Time>2019-10-04T13:40:08.000Z</Time>
            <Position>
              <LatitudeDegrees>43.0521575175225734710693359375</LatitudeDegrees>
              <LongitudeDegrees>-5.7719490118324756622314453125</LongitudeDegrees>
            </Position>
            <AltitudeMeters>653.4000244140625</AltitudeMeters>
            <DistanceMeters>NAN</DistanceMeters>
          </Trackpoint>
          <Trackpoint>
            <Time>2019-10-04T13:40:15.000Z</Time>
            <Position>
              <LatitudeDegrees>43.052248544991016387939453125</LatitudeDegrees>
              <LongitudeDegrees>-5.77215344645082950592041015625</LongitudeDegrees>
            </Position>
            <AltitudeMeters>654.4000244140625</AltitudeMeters>
            <DistanceMeters>NAN</DistanceMeters>
          </Trackpoint>
          <Trackpoint>
            <Time>2019-10-04T13:40:16.000Z</Time>
            <Position>
              <LatitudeDegrees>43.05226103402674198150634765625</LatitudeDegrees>
              <LongitudeDegrees>-5.7721821963787078857421875</LongitudeDegrees>
            </Position>
            <AltitudeMeters>654.4000244140625</AltitudeMeters>
            <DistanceMeters>NAN</DistanceMeters>
          </Trackpoint>
          <Trackpoint>
            <Time>2019-10-04T13:40:22.000Z</Time>
            <Position>
              <LatitudeDegrees>43.0523405782878398895263671875</LatitudeDegrees>
              <LongitudeDegrees>-5.77236299403011798858642578125</LongitudeDegrees>
            </Position>
            <AltitudeMeters>655.4000244140625</AltitudeMeters>
            <DistanceMeters>NAN</DistanceMeters>
          </Trackpoint>
          <Trackpoint>
            <Time>2019-10-04T13:40:23.000Z</Time>
            <Position>
              <LatitudeDegrees>43.05235306732356548309326171875</LatitudeDegrees>
              <LongitudeDegrees>-5.772389061748981475830078125</LongitudeDegrees>
            </Position>
            <AltitudeMeters>655.5999755859375</AltitudeMeters>
            <DistanceMeters>NAN</DistanceMeters>
          </Trackpoint>
          <Trackpoint>
            <Time>2019-10-04T13:40:29.000Z</Time>
            <Position>
              <LatitudeDegrees>43.05240972898900508880615234375</LatitudeDegrees>
              <LongitudeDegrees>-5.7725062407553195953369140625</LongitudeDegrees>
            </Position>
            <AltitudeMeters>656</AltitudeMeters>
            <DistanceMeters>NAN</DistanceMeters>
          </Trackpoint>
          <Trackpoint>
            <Time>2019-10-04T13:40:30.000Z</Time>
            <Position>
              <LatitudeDegrees>43.05240956135094165802001953125</LatitudeDegrees>
              <LongitudeDegrees>-5.7725067436695098876953125</LongitudeDegrees>
            </Position>
            <AltitudeMeters>656.79998779296875</AltitudeMeters>
            <DistanceMeters>NAN</DistanceMeters>
          </Trackpoint>
          <Trackpoint>
            <Time>2019-10-04T13:40:36.000Z</Time>
            <Position>
              <LatitudeDegrees>43.05240419693291187286376953125</LatitudeDegrees>
              <LongitudeDegrees>-5.77252543531358242034912109375</LongitudeDegrees>
            </Position>
            <AltitudeMeters>657</AltitudeMeters>
            <DistanceMeters>NAN</DistanceMeters>
          </Trackpoint>
          <Trackpoint>
            <Time>2019-10-04T13:40:43.000Z</Time>
            <Position>
              <LatitudeDegrees>43.05240419693291187286376953125</LatitudeDegrees>
              <LongitudeDegrees>-5.77252543531358242034912109375</LongitudeDegrees>
            </Position>
            <AltitudeMeters>657.4000244140625</AltitudeMeters>
            <DistanceMeters>NAN</DistanceMeters>
          </Trackpoint>
          <Trackpoint>
            <Time>2019-10-04T13:40:46.000Z</Time>
            <Position>
              <LatitudeDegrees>43.05240419693291187286376953125</LatitudeDegrees>
              <LongitudeDegrees>-5.77252543531358242034912109375</LongitudeDegrees>
            </Position>
            <AltitudeMeters>657.20001220703125</AltitudeMeters>
            <DistanceMeters>NAN</DistanceMeters>
          </Trackpoint>
          <Trackpoint>
            <Time>2019-10-04T13:40:48.000Z</Time>
            <Position>
              <LatitudeDegrees>43.05240419693291187286376953125</LatitudeDegrees>
              <LongitudeDegrees>-5.77252543531358242034912109375</LongitudeDegrees>
            </Position>
            <AltitudeMeters>657.20001220703125</AltitudeMeters>
            <DistanceMeters>NAN</DistanceMeters>
          </Trackpoint>
          <Trackpoint>
            <Time>2019-10-04T13:40:54.000Z</Time>
            <Position>
              <LatitudeDegrees>43.05240419693291187286376953125</LatitudeDegrees>
              <LongitudeDegrees>-5.77252543531358242034912109375</LongitudeDegrees>
            </Position>
            <AltitudeMeters>657.4000244140625</AltitudeMeters>
            <DistanceMeters>NAN</DistanceMeters>
          </Trackpoint>
          <Trackpoint>
            <Time>2019-10-04T13:40:57.000Z</Time>
            <Position>
              <LatitudeDegrees>43.05240419693291187286376953125</LatitudeDegrees>
              <LongitudeDegrees>-5.77252543531358242034912109375</LongitudeDegrees>
            </Position>
            <AltitudeMeters>657.79998779296875</AltitudeMeters>
            <DistanceMeters>NAN</DistanceMeters>
          </Trackpoint>
          <Trackpoint>
            <Time>2019-10-04T13:41:06.000Z</Time>
            <Position>
              <LatitudeDegrees>43.05240419693291187286376953125</LatitudeDegrees>
              <LongitudeDegrees>-5.77252543531358242034912109375</LongitudeDegrees>
            </Position>
            <AltitudeMeters>657.79998779296875</AltitudeMeters>
            <DistanceMeters>NAN</DistanceMeters>
          </Trackpoint>
          <Trackpoint>
            <Time>2019-10-04T13:41:12.000Z</Time>
            <Position>
              <LatitudeDegrees>43.05240671150386333465576171875</LatitudeDegrees>
              <LongitudeDegrees>-5.772521831095218658447265625</LongitudeDegrees>
            </Position>
            <AltitudeMeters>657.5999755859375</AltitudeMeters>
            <DistanceMeters>NAN</DistanceMeters>
          </Trackpoint>
          <Trackpoint>
            <Time>2019-10-04T13:41:15.000Z</Time>
            <Position>
              <LatitudeDegrees>43.05240671150386333465576171875</LatitudeDegrees>
              <LongitudeDegrees>-5.772521831095218658447265625</LongitudeDegrees>
            </Position>
            <AltitudeMeters>657.5999755859375</AltitudeMeters>
            <DistanceMeters>NAN</DistanceMeters>
          </Trackpoint>
          <Trackpoint>
            <Time>2019-10-04T13:41:21.000Z</Time>
            <Position>
              <LatitudeDegrees>43.05240671150386333465576171875</LatitudeDegrees>
              <LongitudeDegrees>-5.772521831095218658447265625</LongitudeDegrees>
            </Position>
            <AltitudeMeters>657.5999755859375</AltitudeMeters>
            <DistanceMeters>NAN</DistanceMeters>
          </Trackpoint>
          <Trackpoint>
            <Time>2019-10-04T13:41:24.000Z</Time>
            <Position>
              <LatitudeDegrees>43.05240671150386333465576171875</LatitudeDegrees>
              <LongitudeDegrees>-5.772521831095218658447265625</LongitudeDegrees>
            </Position>
            <AltitudeMeters>657.5999755859375</AltitudeMeters>
            <DistanceMeters>NAN</DistanceMeters>
          </Trackpoint>
          <Trackpoint>
            <Time>2019-10-04T13:41:28.000Z</Time>
            <Position>
              <LatitudeDegrees>43.05240671150386333465576171875</LatitudeDegrees>
              <LongitudeDegrees>-5.772521831095218658447265625</LongitudeDegrees>
            </Position>
            <AltitudeMeters>657.4000244140625</AltitudeMeters>
            <DistanceMeters>NAN</DistanceMeters>
          </Trackpoint>
          <Trackpoint>
            <Time>2019-10-04T13:41:33.000Z</Time>
            <Position>
              <LatitudeDegrees>43.05240671150386333465576171875</LatitudeDegrees>
              <LongitudeDegrees>-5.772521831095218658447265625</LongitudeDegrees>
            </Position>
            <AltitudeMeters>657.4000244140625</AltitudeMeters>
            <DistanceMeters>NAN</DistanceMeters>
          </Trackpoint>
          <Trackpoint>
            <Time>2019-10-04T13:41:40.000Z</Time>
            <Position>
              <LatitudeDegrees>43.05240671150386333465576171875</LatitudeDegrees>
              <LongitudeDegrees>-5.772521831095218658447265625</LongitudeDegrees>
            </Position>
            <AltitudeMeters>657.4000244140625</AltitudeMeters>
            <DistanceMeters>NAN</DistanceMeters>
          </Trackpoint>
          <Trackpoint>
            <Time>2019-10-04T13:41:41.000Z</Time>
            <Position>
              <LatitudeDegrees>43.05240671150386333465576171875</LatitudeDegrees>
              <LongitudeDegrees>-5.772521831095218658447265625</LongitudeDegrees>
            </Position>
            <AltitudeMeters>657.5999755859375</AltitudeMeters>
            <DistanceMeters>NAN</DistanceMeters>
          </Trackpoint>
          <Trackpoint>
            <Time>2019-10-04T13:41:47.000Z</Time>
            <Position>
              <LatitudeDegrees>43.05240671150386333465576171875</LatitudeDegrees>
              <LongitudeDegrees>-5.772521831095218658447265625</LongitudeDegrees>
            </Position>
            <AltitudeMeters>657.79998779296875</AltitudeMeters>
            <DistanceMeters>NAN</DistanceMeters>
          </Trackpoint>
          <Trackpoint>
            <Time>2019-10-04T13:41:52.000Z</Time>
            <Position>
              <LatitudeDegrees>43.052408806979656219482421875</LatitudeDegrees>
              <LongitudeDegrees>-5.77252325601875782012939453125</LongitudeDegrees>
            </Position>
            <AltitudeMeters>658.20001220703125</AltitudeMeters>
            <DistanceMeters>NAN</DistanceMeters>
          </Trackpoint>
          <Trackpoint>
            <Time>2019-10-04T13:41:57.000Z</Time>
            <Position>
              <LatitudeDegrees>43.052408806979656219482421875</LatitudeDegrees>
              <LongitudeDegrees>-5.77252325601875782012939453125</LongitudeDegrees>
            </Position>
            <AltitudeMeters>658.20001220703125</AltitudeMeters>
            <DistanceMeters>NAN</DistanceMeters>
          </Trackpoint>
          <Trackpoint>
            <Time>2019-10-04T13:42:01.000Z</Time>
            <Position>
              <LatitudeDegrees>43.052408806979656219482421875</LatitudeDegrees>
              <LongitudeDegrees>-5.77252325601875782012939453125</LongitudeDegrees>
            </Position>
            <AltitudeMeters>658</AltitudeMeters>
            <DistanceMeters>NAN</DistanceMeters>
          </Trackpoint>
          <Trackpoint>
            <Time>2019-10-04T13:42:07.000Z</Time>
            <Position>
              <LatitudeDegrees>43.052439987659454345703125</LatitudeDegrees>
              <LongitudeDegrees>-5.7726638205349445343017578125</LongitudeDegrees>
            </Position>
            <AltitudeMeters>658</AltitudeMeters>
            <DistanceMeters>NAN</DistanceMeters>
          </Trackpoint>
          <Trackpoint>
            <Time>2019-10-04T13:42:14.000Z</Time>
            <Position>
              <LatitudeDegrees>43.05252774618566036224365234375</LatitudeDegrees>
              <LongitudeDegrees>-5.772832967340946197509765625</LongitudeDegrees>
            </Position>
            <AltitudeMeters>658.4000244140625</AltitudeMeters>
            <DistanceMeters>NAN</DistanceMeters>
          </Trackpoint>
          <Trackpoint>
            <Time>2019-10-04T13:42:20.000Z</Time>
            <Position>
              <LatitudeDegrees>43.0525846593081951141357421875</LatitudeDegrees>
              <LongitudeDegrees>-5.772913433611392974853515625</LongitudeDegrees>
            </Position>
            <AltitudeMeters>658.5999755859375</AltitudeMeters>
            <DistanceMeters>NAN</DistanceMeters>
          </Trackpoint>
          <Trackpoint>
            <Time>2019-10-04T13:42:25.000Z</Time>
            <Position>
              <LatitudeDegrees>43.052619360387325286865234375</LatitudeDegrees>
              <LongitudeDegrees>-5.77298820018768310546875</LongitudeDegrees>
            </Position>
            <AltitudeMeters>659</AltitudeMeters>
            <DistanceMeters>NAN</DistanceMeters>
          </Trackpoint>
          <Trackpoint>
            <Time>2019-10-04T13:42:27.000Z</Time>
            <Position>
              <LatitudeDegrees>43.05263335816562175750732421875</LatitudeDegrees>
              <LongitudeDegrees>-5.773028768599033355712890625</LongitudeDegrees>
            </Position>
            <AltitudeMeters>659.4000244140625</AltitudeMeters>
            <DistanceMeters>NAN</DistanceMeters>
          </Trackpoint>
          <Trackpoint>
            <Time>2019-10-04T13:42:33.000Z</Time>
            <Position>
              <LatitudeDegrees>43.05266772396862506866455078125</LatitudeDegrees>
              <LongitudeDegrees>-5.77318861149251461029052734375</LongitudeDegrees>
            </Position>
            <AltitudeMeters>660</AltitudeMeters>
            <DistanceMeters>NAN</DistanceMeters>
          </Trackpoint>
          <Trackpoint>
            <Time>2019-10-04T13:42:34.000Z</Time>
            <Position>
              <LatitudeDegrees>43.05267342366278171539306640625</LatitudeDegrees>
              <LongitudeDegrees>-5.773213170468807220458984375</LongitudeDegrees>
            </Position>
            <AltitudeMeters>660.20001220703125</AltitudeMeters>
            <DistanceMeters>NAN</DistanceMeters>
          </Trackpoint>
          <Trackpoint>
            <Time>2019-10-04T13:42:39.000Z</Time>
            <Position>
              <LatitudeDegrees>43.052711896598339080810546875</LatitudeDegrees>
              <LongitudeDegrees>-5.77334887348115444183349609375</LongitudeDegrees>
            </Position>
            <AltitudeMeters>660.5999755859375</AltitudeMeters>
            <DistanceMeters>NAN</DistanceMeters>
          </Trackpoint>
          <Trackpoint>
            <Time>2019-10-04T13:42:41.000Z</Time>
            <Position>
              <LatitudeDegrees>43.0527231283485889434814453125</LatitudeDegrees>
              <LongitudeDegrees>-5.7733920402824878692626953125</LongitudeDegrees>
            </Position>
            <AltitudeMeters>661.20001220703125</AltitudeMeters>
            <DistanceMeters>NAN</DistanceMeters>
          </Trackpoint>
          <Trackpoint>
            <Time>2019-10-04T13:42:43.000Z</Time>
            <Position>
              <LatitudeDegrees>43.05273075588047504425048828125</LatitudeDegrees>
              <LongitudeDegrees>-5.77345465309917926788330078125</LongitudeDegrees>
            </Position>
            <AltitudeMeters>661.5999755859375</AltitudeMeters>
            <DistanceMeters>NAN</DistanceMeters>
          </Trackpoint>
          <Trackpoint>
            <Time>2019-10-04T13:42:48.000Z</Time>
            <Position>
              <LatitudeDegrees>43.05275573395192623138427734375</LatitudeDegrees>
              <LongitudeDegrees>-5.77357769943773746490478515625</LongitudeDegrees>
            </Position>
            <AltitudeMeters>662.5999755859375</AltitudeMeters>
            <DistanceMeters>NAN</DistanceMeters>
          </Trackpoint>
          <Trackpoint>
            <Time>2019-10-04T13:42:52.000Z</Time>
            <Position>
              <LatitudeDegrees>43.05277098901569843292236328125</LatitudeDegrees>
              <LongitudeDegrees>-5.7736761868000030517578125</LongitudeDegrees>
            </Position>
            <AltitudeMeters>663</AltitudeMeters>
            <DistanceMeters>NAN</DistanceMeters>
          </Trackpoint>
          <Trackpoint>
            <Time>2019-10-04T13:42:54.000Z</Time>
            <Position>
              <LatitudeDegrees>43.052776940166950225830078125</LatitudeDegrees>
              <LongitudeDegrees>-5.77372723259031772613525390625</LongitudeDegrees>
            </Position>
            <AltitudeMeters>663.79998779296875</AltitudeMeters>
            <DistanceMeters>NAN</DistanceMeters>
          </Trackpoint>
          <Trackpoint>
            <Time>2019-10-04T13:43:03.000Z</Time>
            <Position>
              <LatitudeDegrees>43.05279739201068878173828125</LatitudeDegrees>
              <LongitudeDegrees>-5.77393971383571624755859375</LongitudeDegrees>
            </Position>
            <AltitudeMeters>665.20001220703125</AltitudeMeters>
            <DistanceMeters>NAN</DistanceMeters>
          </Trackpoint>
          <Trackpoint>
            <Time>2019-10-04T13:43:04.000Z</Time>
            <Position>
              <LatitudeDegrees>43.05279529653489589691162109375</LatitudeDegrees>
              <LongitudeDegrees>-5.77396745793521404266357421875</LongitudeDegrees>
            </Position>
            <AltitudeMeters>665.20001220703125</AltitudeMeters>
            <DistanceMeters>NAN</DistanceMeters>
          </Trackpoint>
          <Trackpoint>
            <Time>2019-10-04T13:43:13.000Z</Time>
            <Position>
              <LatitudeDegrees>43.0528025887906551361083984375</LatitudeDegrees>
              <LongitudeDegrees>-5.77419661916792392730712890625</LongitudeDegrees>
            </Position>
            <AltitudeMeters>666</AltitudeMeters>
            <DistanceMeters>NAN</DistanceMeters>
          </Trackpoint>
          <Trackpoint>
            <Time>2019-10-04T13:43:16.000Z</Time>
            <Position>
              <LatitudeDegrees>43.0527989007532596588134765625</LatitudeDegrees>
              <LongitudeDegrees>-5.7742687873542308807373046875</LongitudeDegrees>
            </Position>
            <AltitudeMeters>666.20001220703125</AltitudeMeters>
            <DistanceMeters>NAN</DistanceMeters>
          </Trackpoint>
          <Trackpoint>
            <Time>2019-10-04T13:43:22.000Z</Time>
            <Position>
              <LatitudeDegrees>43.0527851544320583343505859375</LatitudeDegrees>
              <LongitudeDegrees>-5.7744012214243412017822265625</LongitudeDegrees>
            </Position>
            <AltitudeMeters>667</AltitudeMeters>
            <DistanceMeters>NAN</DistanceMeters>
          </Trackpoint>
          <Trackpoint>
            <Time>2019-10-04T13:43:25.000Z</Time>
            <Position>
              <LatitudeDegrees>43.05277082137763500213623046875</LatitudeDegrees>
              <LongitudeDegrees>-5.77446199022233486175537109375</LongitudeDegrees>
            </Position>
            <AltitudeMeters>667.4000244140625</AltitudeMeters>
            <DistanceMeters>NAN</DistanceMeters>
          </Trackpoint>
          <Trackpoint>
            <Time>2019-10-04T13:43:34.000Z</Time>
            <Position>
              <LatitudeDegrees>43.052746094763278961181640625</LatitudeDegrees>
              <LongitudeDegrees>-5.77465997077524662017822265625</LongitudeDegrees>
            </Position>
            <AltitudeMeters>668.20001220703125</AltitudeMeters>
            <DistanceMeters>NAN</DistanceMeters>
          </Trackpoint>
          <Trackpoint>
            <Time>2019-10-04T13:43:36.000Z</Time>
            <Position>
              <LatitudeDegrees>43.05273930542171001434326171875</LatitudeDegrees>
              <LongitudeDegrees>-5.7747100107371807098388671875</LongitudeDegrees>
            </Position>
            <AltitudeMeters>668.4000244140625</AltitudeMeters>
            <DistanceMeters>NAN</DistanceMeters>
          </Trackpoint>
          <Trackpoint>
            <Time>2019-10-04T13:43:45.000Z</Time>
            <Position>
              <LatitudeDegrees>43.05268599651753902435302734375</LatitudeDegrees>
              <LongitudeDegrees>-5.77491360716521739959716796875</LongitudeDegrees>
            </Position>
            <AltitudeMeters>668.79998779296875</AltitudeMeters>
            <DistanceMeters>NAN</DistanceMeters>
          </Trackpoint>
          <Trackpoint>
            <Time>2019-10-04T13:43:51.000Z</Time>
            <Position>
              <LatitudeDegrees>43.05262447334825992584228515625</LatitudeDegrees>
              <LongitudeDegrees>-5.77502391301095485687255859375</LongitudeDegrees>
            </Position>
            <AltitudeMeters>669.5999755859375</AltitudeMeters>
            <DistanceMeters>NAN</DistanceMeters>
          </Trackpoint>
          <Trackpoint>
            <Time>2019-10-04T13:43:59.000Z</Time>
            <Position>
              <LatitudeDegrees>43.05252875201404094696044921875</LatitudeDegrees>
              <LongitudeDegrees>-5.775161795318126678466796875</LongitudeDegrees>
            </Position>
            <AltitudeMeters>670</AltitudeMeters>
            <DistanceMeters>NAN</DistanceMeters>
          </Trackpoint>
          <Trackpoint>
            <Time>2019-10-04T13:44:03.000Z</Time>
            <Position>
              <LatitudeDegrees>43.05247376672923564910888671875</LatitudeDegrees>
              <LongitudeDegrees>-5.775225162506103515625</LongitudeDegrees>
            </Position>
            <AltitudeMeters>670.5999755859375</AltitudeMeters>
            <DistanceMeters>NAN</DistanceMeters>
          </Trackpoint>
          <Trackpoint>
            <Time>2019-10-04T13:44:07.000Z</Time>
            <Position>
              <LatitudeDegrees>43.05242397822439670562744140625</LatitudeDegrees>
              <LongitudeDegrees>-5.7752883620560169219970703125</LongitudeDegrees>
            </Position>
            <AltitudeMeters>670.79998779296875</AltitudeMeters>
            <DistanceMeters>NAN</DistanceMeters>
          </Trackpoint>
          <Trackpoint>
            <Time>2019-10-04T13:44:14.000Z</Time>
            <Position>
              <LatitudeDegrees>43.052321635186672210693359375</LatitudeDegrees>
              <LongitudeDegrees>-5.775388441979885101318359375</LongitudeDegrees>
            </Position>
            <AltitudeMeters>671.20001220703125</AltitudeMeters>
            <DistanceMeters>NAN</DistanceMeters>
          </Trackpoint>
          <Trackpoint>
            <Time>2019-10-04T13:44:17.000Z</Time>
            <Position>
              <LatitudeDegrees>43.05227846838533878326416015625</LatitudeDegrees>
              <LongitudeDegrees>-5.7754332013428211212158203125</LongitudeDegrees>
            </Position>
            <AltitudeMeters>671.79998779296875</AltitudeMeters>
            <DistanceMeters>NAN</DistanceMeters>
          </Trackpoint>
          <Trackpoint>
            <Time>2019-10-04T13:44:25.000Z</Time>
            <Position>
              <LatitudeDegrees>43.05214838124811649322509765625</LatitudeDegrees>
              <LongitudeDegrees>-5.7755000889301300048828125</LongitudeDegrees>
            </Position>
            <AltitudeMeters>672.20001220703125</AltitudeMeters>
            <DistanceMeters>NAN</DistanceMeters>
          </Trackpoint>
          <Trackpoint>
            <Time>2019-10-04T13:44:33.000Z</Time>
            <Position>
              <LatitudeDegrees>43.0520116724073886871337890625</LatitudeDegrees>
              <LongitudeDegrees>-5.77551911585032939910888671875</LongitudeDegrees>
            </Position>
            <AltitudeMeters>672.79998779296875</AltitudeMeters>
            <DistanceMeters>NAN</DistanceMeters>
          </Trackpoint>
          <Trackpoint>
            <Time>2019-10-04T13:44:43.000Z</Time>
            <Position>
              <LatitudeDegrees>43.0518351495265960693359375</LatitudeDegrees>
              <LongitudeDegrees>-5.775489024817943572998046875</LongitudeDegrees>
            </Position>
            <AltitudeMeters>673.4000244140625</AltitudeMeters>
            <DistanceMeters>NAN</DistanceMeters>
          </Trackpoint>
          <Trackpoint>
            <Time>2019-10-04T13:44:49.000Z</Time>
            <Position>
              <LatitudeDegrees>43.051731884479522705078125</LatitudeDegrees>
              <LongitudeDegrees>-5.7754503004252910614013671875</LongitudeDegrees>
            </Position>
            <AltitudeMeters>674</AltitudeMeters>
            <DistanceMeters>NAN</DistanceMeters>
          </Trackpoint>
          <Trackpoint>
            <Time>2019-10-04T13:44:52.000Z</Time>
            <Position>
              <LatitudeDegrees>43.0516763962805271148681640625</LatitudeDegrees>
              <LongitudeDegrees>-5.77542641200125217437744140625</LongitudeDegrees>
            </Position>
            <AltitudeMeters>674.4000244140625</AltitudeMeters>
            <DistanceMeters>NAN</DistanceMeters>
          </Trackpoint>
          <Trackpoint>
            <Time>2019-10-04T13:45:00.000Z</Time>
            <Position>
              <LatitudeDegrees>43.0515473149716854095458984375</LatitudeDegrees>
              <LongitudeDegrees>-5.775342173874378204345703125</LongitudeDegrees>
            </Position>
            <AltitudeMeters>675</AltitudeMeters>
            <DistanceMeters>NAN</DistanceMeters>
          </Trackpoint>
          <Trackpoint>
            <Time>2019-10-04T13:45:06.000Z</Time>
            <Position>
              <LatitudeDegrees>43.05145586840808391571044921875</LatitudeDegrees>
              <LongitudeDegrees>-5.77525801956653594970703125</LongitudeDegrees>
            </Position>
            <AltitudeMeters>675.5999755859375</AltitudeMeters>
            <DistanceMeters>NAN</DistanceMeters>
          </Trackpoint>
          <Trackpoint>
            <Time>2019-10-04T13:45:09.000Z</Time>
            <Position>
              <LatitudeDegrees>43.0514148809015750885009765625</LatitudeDegrees>
              <LongitudeDegrees>-5.77521150000393390655517578125</LongitudeDegrees>
            </Position>
            <AltitudeMeters>676.20001220703125</AltitudeMeters>
            <DistanceMeters>NAN</DistanceMeters>
          </Trackpoint>
          <Trackpoint>
            <Time>2019-10-04T13:45:13.000Z</Time>
            <Position>
              <LatitudeDegrees>43.0513625778257846832275390625</LatitudeDegrees>
              <LongitudeDegrees>-5.77514964155852794647216796875</LongitudeDegrees>
            </Position>
            <AltitudeMeters>676</AltitudeMeters>
            <DistanceMeters>NAN</DistanceMeters>
          </Trackpoint>
          <Trackpoint>
            <Time>2019-10-04T13:45:22.000Z</Time>
            <Position>
              <LatitudeDegrees>43.0512532778084278106689453125</LatitudeDegrees>
              <LongitudeDegrees>-5.77499927021563053131103515625</LongitudeDegrees>
            </Position>
            <AltitudeMeters>677.20001220703125</AltitudeMeters>
            <DistanceMeters>NAN</DistanceMeters>
          </Trackpoint>
          <Trackpoint>
            <Time>2019-10-04T13:45:23.000Z</Time>
            <Position>
              <LatitudeDegrees>43.0512412078678607940673828125</LatitudeDegrees>
              <LongitudeDegrees>-5.7749812491238117218017578125</LongitudeDegrees>
            </Position>
            <AltitudeMeters>677.20001220703125</AltitudeMeters>
            <DistanceMeters>NAN</DistanceMeters>
          </Trackpoint>
          <Trackpoint>
            <Time>2019-10-04T13:45:32.000Z</Time>
            <Position>
              <LatitudeDegrees>43.0511218495666980743408203125</LatitudeDegrees>
              <LongitudeDegrees>-5.7748457975685596466064453125</LongitudeDegrees>
            </Position>
            <AltitudeMeters>678</AltitudeMeters>
            <DistanceMeters>NAN</DistanceMeters>
          </Trackpoint>
          <Trackpoint>
            <Time>2019-10-04T13:45:34.000Z</Time>
            <Position>
              <LatitudeDegrees>43.05109628476202487945556640625</LatitudeDegrees>
              <LongitudeDegrees>-5.77481688000261783599853515625</LongitudeDegrees>
            </Position>
            <AltitudeMeters>678.4000244140625</AltitudeMeters>
            <DistanceMeters>NAN</DistanceMeters>
          </Trackpoint>
          <Trackpoint>
            <Time>2019-10-04T13:45:38.000Z</Time>
            <Position>
              <LatitudeDegrees>43.05103518068790435791015625</LatitudeDegrees>
              <LongitudeDegrees>-5.7747683487832546234130859375</LongitudeDegrees>
            </Position>
            <AltitudeMeters>679.20001220703125</AltitudeMeters>
            <DistanceMeters>NAN</DistanceMeters>
          </Trackpoint>
          <Trackpoint>
            <Time>2019-10-04T13:45:45.000Z</Time>
            <Position>
              <LatitudeDegrees>43.05090484209358692169189453125</LatitudeDegrees>
              <LongitudeDegrees>-5.774738006293773651123046875</LongitudeDegrees>
            </Position>
            <AltitudeMeters>678.20001220703125</AltitudeMeters>
            <DistanceMeters>NAN</DistanceMeters>
          </Trackpoint>
          <Trackpoint>
            <Time>2019-10-04T13:45:52.000Z</Time>
            <Position>
              <LatitudeDegrees>43.050777353346347808837890625</LatitudeDegrees>
              <LongitudeDegrees>-5.77479491941630840301513671875</LongitudeDegrees>
            </Position>
            <AltitudeMeters>677.79998779296875</AltitudeMeters>
            <DistanceMeters>NAN</DistanceMeters>
          </Trackpoint>
          <Trackpoint>
            <Time>2019-10-04T13:46:02.000Z</Time>
            <Position>
              <LatitudeDegrees>43.0506222881376743316650390625</LatitudeDegrees>
              <LongitudeDegrees>-5.77492835931479930877685546875</LongitudeDegrees>
            </Position>
            <AltitudeMeters>678.5999755859375</AltitudeMeters>
            <DistanceMeters>NAN</DistanceMeters>
          </Trackpoint>
          <Trackpoint>
            <Time>2019-10-04T13:46:08.000Z</Time>
            <Position>
              <LatitudeDegrees>43.05054626427590847015380859375</LatitudeDegrees>
              <LongitudeDegrees>-5.77500798739492893218994140625</LongitudeDegrees>
            </Position>
            <AltitudeMeters>679.5999755859375</AltitudeMeters>
            <DistanceMeters>NAN</DistanceMeters>
          </Trackpoint>
          <Trackpoint>
            <Time>2019-10-04T13:46:13.000Z</Time>
            <Position>
              <LatitudeDegrees>43.05048272944986820220947265625</LatitudeDegrees>
              <LongitudeDegrees>-5.77507956884801387786865234375</LongitudeDegrees>
            </Position>
            <AltitudeMeters>680.5999755859375</AltitudeMeters>
            <DistanceMeters>NAN</DistanceMeters>
          </Trackpoint>
          <Trackpoint>
            <Time>2019-10-04T13:46:17.000Z</Time>
            <Position>
              <LatitudeDegrees>43.050427325069904327392578125</LatitudeDegrees>
              <LongitudeDegrees>-5.77514679171144962310791015625</LongitudeDegrees>
            </Position>
            <AltitudeMeters>681.4000244140625</AltitudeMeters>
            <DistanceMeters>NAN</DistanceMeters>
          </Trackpoint>
          <Trackpoint>
            <Time>2019-10-04T13:46:18.000Z</Time>
            <Position>
              <LatitudeDegrees>43.05041383020579814910888671875</LatitudeDegrees>
              <LongitudeDegrees>-5.775163471698760986328125</LongitudeDegrees>
            </Position>
            <AltitudeMeters>681.5999755859375</AltitudeMeters>
            <DistanceMeters>NAN</DistanceMeters>
          </Trackpoint>
          <Trackpoint>
            <Time>2019-10-04T13:46:24.000Z</Time>
            <Position>
              <LatitudeDegrees>43.05034576915204524993896484375</LatitudeDegrees>
              <LongitudeDegrees>-5.7752521522343158721923828125</LongitudeDegrees>
            </Position>
            <AltitudeMeters>682.79998779296875</AltitudeMeters>
            <DistanceMeters>NAN</DistanceMeters>
          </Trackpoint>
          <Trackpoint>
            <Time>2019-10-04T13:46:25.000Z</Time>
            <Position>
              <LatitudeDegrees>43.05033386684954166412353515625</LatitudeDegrees>
              <LongitudeDegrees>-5.7752709276974201202392578125</LongitudeDegrees>
            </Position>
            <AltitudeMeters>683.20001220703125</AltitudeMeters>
            <DistanceMeters>NAN</DistanceMeters>
          </Trackpoint>
          <Trackpoint>
            <Time>2019-10-04T13:46:30.000Z</Time>
            <Position>
              <LatitudeDegrees>43.050281815230846405029296875</LatitudeDegrees>
              <LongitudeDegrees>-5.775354914367198944091796875</LongitudeDegrees>
            </Position>
            <AltitudeMeters>684</AltitudeMeters>
            <DistanceMeters>NAN</DistanceMeters>
          </Trackpoint>
          <Trackpoint>
            <Time>2019-10-04T13:46:34.000Z</Time>
            <Position>
              <LatitudeDegrees>43.05023663677275180816650390625</LatitudeDegrees>
              <LongitudeDegrees>-5.77541920356452465057373046875</LongitudeDegrees>
            </Position>
            <AltitudeMeters>685</AltitudeMeters>
            <DistanceMeters>NAN</DistanceMeters>
          </Trackpoint>
          <Trackpoint>
            <Time>2019-10-04T13:46:41.000Z</Time>
            <Position>
              <LatitudeDegrees>43.05014334619045257568359375</LatitudeDegrees>
              <LongitudeDegrees>-5.77551961876451969146728515625</LongitudeDegrees>
            </Position>
            <AltitudeMeters>686</AltitudeMeters>
            <DistanceMeters>NAN</DistanceMeters>
          </Trackpoint>
          <Trackpoint>
            <Time>2019-10-04T13:46:42.000Z</Time>
            <Position>
              <LatitudeDegrees>43.05012985132634639739990234375</LatitudeDegrees>
              <LongitudeDegrees>-5.775533281266689300537109375</LongitudeDegrees>
            </Position>
            <AltitudeMeters>686.20001220703125</AltitudeMeters>
            <DistanceMeters>NAN</DistanceMeters>
          </Trackpoint>
          <Trackpoint>
            <Time>2019-10-04T13:46:48.000Z</Time>
            <Position>
              <LatitudeDegrees>43.0500425957143306732177734375</LatitudeDegrees>
              <LongitudeDegrees>-5.77561450190842151641845703125</LongitudeDegrees>
            </Position>
            <AltitudeMeters>687.20001220703125</AltitudeMeters>
            <DistanceMeters>NAN</DistanceMeters>
          </Trackpoint>
          <Trackpoint>
            <Time>2019-10-04T13:46:51.000Z</Time>
            <Position>
              <LatitudeDegrees>43.04999222047626972198486328125</LatitudeDegrees>
              <LongitudeDegrees>-5.77565096318721771240234375</LongitudeDegrees>
            </Position>
            <AltitudeMeters>687.4000244140625</AltitudeMeters>
            <DistanceMeters>NAN</DistanceMeters>
          </Trackpoint>
          <Trackpoint>
            <Time>2019-10-04T13:46:54.000Z</Time>
            <Position>
              <LatitudeDegrees>43.04993606172502040863037109375</LatitudeDegrees>
              <LongitudeDegrees>-5.7756826467812061309814453125</LongitudeDegrees>
            </Position>
            <AltitudeMeters>688.20001220703125</AltitudeMeters>
            <DistanceMeters>NAN</DistanceMeters>
          </Trackpoint>
          <Trackpoint>
            <Time>2019-10-04T13:47:00.000Z</Time>
            <Position>
              <LatitudeDegrees>43.0498250015079975128173828125</LatitudeDegrees>
              <LongitudeDegrees>-5.7757302559912204742431640625</LongitudeDegrees>
            </Position>
            <AltitudeMeters>689.4000244140625</AltitudeMeters>
            <DistanceMeters>NAN</DistanceMeters>
          </Trackpoint>
          <Trackpoint>
            <Time>2019-10-04T13:47:02.000Z</Time>
            <Position>
              <LatitudeDegrees>43.04978602565824985504150390625</LatitudeDegrees>
              <LongitudeDegrees>-5.7757399789988994598388671875</LongitudeDegrees>
            </Position>
            <AltitudeMeters>689.4000244140625</AltitudeMeters>
            <DistanceMeters>NAN</DistanceMeters>
          </Trackpoint>
          <Trackpoint>
            <Time>2019-10-04T13:47:11.000Z</Time>
            <Position>
              <LatitudeDegrees>43.049612939357757568359375</LatitudeDegrees>
              <LongitudeDegrees>-5.77579446136951446533203125</LongitudeDegrees>
            </Position>
            <AltitudeMeters>690</AltitudeMeters>
            <DistanceMeters>NAN</DistanceMeters>
          </Trackpoint>
          <Trackpoint>
            <Time>2019-10-04T13:47:14.000Z</Time>
            <Position>
              <LatitudeDegrees>43.0495527572929859161376953125</LatitudeDegrees>
              <LongitudeDegrees>-5.7757973112165927886962890625</LongitudeDegrees>
            </Position>
            <AltitudeMeters>690.5999755859375</AltitudeMeters>
            <DistanceMeters>NAN</DistanceMeters>
          </Trackpoint>
          <Trackpoint>
            <Time>2019-10-04T13:47:20.000Z</Time>
            <Position>
              <LatitudeDegrees>43.0494417808949947357177734375</LatitudeDegrees>
              <LongitudeDegrees>-5.77578800730407238006591796875</LongitudeDegrees>
            </Position>
            <AltitudeMeters>691.20001220703125</AltitudeMeters>
            <DistanceMeters>NAN</DistanceMeters>
          </Trackpoint>
          <Trackpoint>
            <Time>2019-10-04T13:47:23.000Z</Time>
            <Position>
              <LatitudeDegrees>43.04938687942922115325927734375</LatitudeDegrees>
              <LongitudeDegrees>-5.77578146941959857940673828125</LongitudeDegrees>
            </Position>
            <AltitudeMeters>691.5999755859375</AltitudeMeters>
            <DistanceMeters>NAN</DistanceMeters>
          </Trackpoint>
          <Trackpoint>
            <Time>2019-10-04T13:47:28.000Z</Time>
            <Position>
              <LatitudeDegrees>43.04930004291236400604248046875</LatitudeDegrees>
              <LongitudeDegrees>-5.7757647894322872161865234375</LongitudeDegrees>
            </Position>
            <AltitudeMeters>692.20001220703125</AltitudeMeters>
            <DistanceMeters>NAN</DistanceMeters>
          </Trackpoint>
          <Trackpoint>
            <Time>2019-10-04T13:47:34.000Z</Time>
            <Position>
              <LatitudeDegrees>43.04919183254241943359375</LatitudeDegrees>
              <LongitudeDegrees>-5.775753557682037353515625</LongitudeDegrees>
            </Position>
            <AltitudeMeters>692.79998779296875</AltitudeMeters>
            <DistanceMeters>NAN</DistanceMeters>
          </Trackpoint>
          <Trackpoint>
            <Time>2019-10-04T13:47:38.000Z</Time>
            <Position>
              <LatitudeDegrees>43.049115724861621856689453125</LatitudeDegrees>
              <LongitudeDegrees>-5.77574576251208782196044921875</LongitudeDegrees>
            </Position>
            <AltitudeMeters>693</AltitudeMeters>
            <DistanceMeters>NAN</DistanceMeters>
          </Trackpoint>
          <Trackpoint>
            <Time>2019-10-04T13:47:44.000Z</Time>
            <Position>
              <LatitudeDegrees>43.04900567047297954559326171875</LatitudeDegrees>
              <LongitudeDegrees>-5.77573285438120365142822265625</LongitudeDegrees>
            </Position>
            <AltitudeMeters>693.79998779296875</AltitudeMeters>
            <DistanceMeters>NAN</DistanceMeters>
          </Trackpoint>
          <Trackpoint>
            <Time>2019-10-04T13:47:45.000Z</Time>
            <Position>
              <LatitudeDegrees>43.04898622445762157440185546875</LatitudeDegrees>
              <LongitudeDegrees>-5.77572732232511043548583984375</LongitudeDegrees>
            </Position>
            <AltitudeMeters>693.79998779296875</AltitudeMeters>
            <DistanceMeters>NAN</DistanceMeters>
          </Trackpoint>
          <Trackpoint>
            <Time>2019-10-04T13:47:51.000Z</Time>
            <Position>
              <LatitudeDegrees>43.04888145066797733306884765625</LatitudeDegrees>
              <LongitudeDegrees>-5.77569882385432720184326171875</LongitudeDegrees>
            </Position>
            <AltitudeMeters>695.20001220703125</AltitudeMeters>
            <DistanceMeters>NAN</DistanceMeters>
          </Trackpoint>
          <Trackpoint>
            <Time>2019-10-04T13:47:53.000Z</Time>
            <Position>
              <LatitudeDegrees>43.04884783923625946044921875</LatitudeDegrees>
              <LongitudeDegrees>-5.77569429762661457061767578125</LongitudeDegrees>
            </Position>
            <AltitudeMeters>695.4000244140625</AltitudeMeters>
            <DistanceMeters>NAN</DistanceMeters>
          </Trackpoint>
          <Trackpoint>
            <Time>2019-10-04T13:47:59.000Z</Time>
            <Position>
              <LatitudeDegrees>43.04874298162758350372314453125</LatitudeDegrees>
              <LongitudeDegrees>-5.775670073926448822021484375</LongitudeDegrees>
            </Position>
            <AltitudeMeters>696.20001220703125</AltitudeMeters>
            <DistanceMeters>NAN</DistanceMeters>
          </Trackpoint>
          <Trackpoint>
            <Time>2019-10-04T13:48:01.000Z</Time>
            <Position>
              <LatitudeDegrees>43.0487065203487873077392578125</LatitudeDegrees>
              <LongitudeDegrees>-5.775662362575531005859375</LongitudeDegrees>
            </Position>
            <AltitudeMeters>696.5999755859375</AltitudeMeters>
            <DistanceMeters>NAN</DistanceMeters>
          </Trackpoint>
          <Trackpoint>
            <Time>2019-10-04T13:48:05.000Z</Time>
            <Position>
              <LatitudeDegrees>43.04863460361957550048828125</LatitudeDegrees>
              <LongitudeDegrees>-5.7756476104259490966796875</LongitudeDegrees>
            </Position>
            <AltitudeMeters>697.4000244140625</AltitudeMeters>
            <DistanceMeters>NAN</DistanceMeters>
          </Trackpoint>
          <Trackpoint>
            <Time>2019-10-04T13:48:11.000Z</Time>
            <Position>
              <LatitudeDegrees>43.04852538742125034332275390625</LatitudeDegrees>
              <LongitudeDegrees>-5.77561450190842151641845703125</LongitudeDegrees>
            </Position>
            <AltitudeMeters>698</AltitudeMeters>
            <DistanceMeters>NAN</DistanceMeters>
          </Trackpoint>
          <Trackpoint>
            <Time>2019-10-04T13:48:15.000Z</Time>
            <Position>
              <LatitudeDegrees>43.04845917038619518280029296875</LatitudeDegrees>
              <LongitudeDegrees>-5.77558164484798908233642578125</LongitudeDegrees>
            </Position>
            <AltitudeMeters>698.5999755859375</AltitudeMeters>
            <DistanceMeters>NAN</DistanceMeters>
          </Trackpoint>
          <Trackpoint>
            <Time>2019-10-04T13:48:20.000Z</Time>
            <Position>
              <LatitudeDegrees>43.048385493457317352294921875</LatitudeDegrees>
              <LongitudeDegrees>-5.775538645684719085693359375</LongitudeDegrees>
            </Position>
            <AltitudeMeters>699</AltitudeMeters>
            <DistanceMeters>NAN</DistanceMeters>
          </Trackpoint>
          <Trackpoint>
            <Time>2019-10-04T13:48:22.000Z</Time>
            <Position>
              <LatitudeDegrees>43.04835406132042407989501953125</LatitudeDegrees>
              <LongitudeDegrees>-5.77552624046802520751953125</LongitudeDegrees>
            </Position>
            <AltitudeMeters>699.5999755859375</AltitudeMeters>
            <DistanceMeters>NAN</DistanceMeters>
          </Trackpoint>
          <Trackpoint>
            <Time>2019-10-04T13:48:26.000Z</Time>
            <Position>
              <LatitudeDegrees>43.0483041889965534210205078125</LatitudeDegrees>
              <LongitudeDegrees>-5.7754875160753726959228515625</LongitudeDegrees>
            </Position>
            <AltitudeMeters>699.79998779296875</AltitudeMeters>
            <DistanceMeters>NAN</DistanceMeters>
          </Trackpoint>
          <Trackpoint>
            <Time>2019-10-04T13:48:30.000Z</Time>
            <Position>
              <LatitudeDegrees>43.04825062863528728485107421875</LatitudeDegrees>
              <LongitudeDegrees>-5.7754462771117687225341796875</LongitudeDegrees>
            </Position>
            <AltitudeMeters>701.20001220703125</AltitudeMeters>
            <DistanceMeters>NAN</DistanceMeters>
          </Trackpoint>
          <Trackpoint>
            <Time>2019-10-04T13:48:33.000Z</Time>
            <Position>
              <LatitudeDegrees>43.048195727169513702392578125</LatitudeDegrees>
              <LongitudeDegrees>-5.77542792074382305145263671875</LongitudeDegrees>
            </Position>
            <AltitudeMeters>701.20001220703125</AltitudeMeters>
            <DistanceMeters>NAN</DistanceMeters>
          </Trackpoint>
          <Trackpoint>
            <Time>2019-10-04T13:48:39.000Z</Time>
            <Position>
              <LatitudeDegrees>43.04810528643429279327392578125</LatitudeDegrees>
              <LongitudeDegrees>-5.775415934622287750244140625</LongitudeDegrees>
            </Position>
            <AltitudeMeters>702.4000244140625</AltitudeMeters>
            <DistanceMeters>NAN</DistanceMeters>
          </Trackpoint>
          <Trackpoint>
            <Time>2019-10-04T13:48:40.000Z</Time>
            <Position>
              <LatitudeDegrees>43.04808835498988628387451171875</LatitudeDegrees>
              <LongitudeDegrees>-5.7754147611558437347412109375</LongitudeDegrees>
            </Position>
            <AltitudeMeters>702.5999755859375</AltitudeMeters>
            <DistanceMeters>NAN</DistanceMeters>
          </Trackpoint>
          <Trackpoint>
            <Time>2019-10-04T13:48:43.000Z</Time>
            <Position>
              <LatitudeDegrees>43.04804024286568164825439453125</LatitudeDegrees>
              <LongitudeDegrees>-5.77542020939290523529052734375</LongitudeDegrees>
            </Position>
            <AltitudeMeters>703.4000244140625</AltitudeMeters>
            <DistanceMeters>NAN</DistanceMeters>
          </Trackpoint>
          <Trackpoint>
            <Time>2019-10-04T13:48:44.000Z</Time>
            <Position>
              <LatitudeDegrees>43.04802314378321170806884765625</LatitudeDegrees>
              <LongitudeDegrees>-5.77542372979223728179931640625</LongitudeDegrees>
            </Position>
            <AltitudeMeters>703.4000244140625</AltitudeMeters>
            <DistanceMeters>NAN</DistanceMeters>
          </Trackpoint>
          <Trackpoint>
            <Time>2019-10-04T13:48:47.000Z</Time>
            <Position>
              <LatitudeDegrees>43.04796983487904071807861328125</LatitudeDegrees>
              <LongitudeDegrees>-5.77543906867504119873046875</LongitudeDegrees>
            </Position>
            <AltitudeMeters>704</AltitudeMeters>
            <DistanceMeters>NAN</DistanceMeters>
          </Trackpoint>
          <Trackpoint>
            <Time>2019-10-04T13:48:48.000Z</Time>
            <Position>
              <LatitudeDegrees>43.04795374162495136260986328125</LatitudeDegrees>
              <LongitudeDegrees>-5.7754446007311344146728515625</LongitudeDegrees>
            </Position>
            <AltitudeMeters>704.5999755859375</AltitudeMeters>
            <DistanceMeters>NAN</DistanceMeters>
          </Trackpoint>
          <Trackpoint>
            <Time>2019-10-04T13:48:54.000Z</Time>
            <Position>
              <LatitudeDegrees>43.0478941462934017181396484375</LatitudeDegrees>
              <LongitudeDegrees>-5.77545206062495708465576171875</LongitudeDegrees>
            </Position>
            <AltitudeMeters>706.4000244140625</AltitudeMeters>
            <DistanceMeters>NAN</DistanceMeters>
          </Trackpoint>
          <Trackpoint>
            <Time>2019-10-04T13:49:04.000Z</Time>
            <Position>
              <LatitudeDegrees>43.0478941462934017181396484375</LatitudeDegrees>
              <LongitudeDegrees>-5.77545206062495708465576171875</LongitudeDegrees>
            </Position>
            <AltitudeMeters>707.5999755859375</AltitudeMeters>
            <DistanceMeters>NAN</DistanceMeters>
          </Trackpoint>
          <Trackpoint>
            <Time>2019-10-04T13:49:10.000Z</Time>
            <Position>
              <LatitudeDegrees>43.0478941462934017181396484375</LatitudeDegrees>
              <LongitudeDegrees>-5.77545206062495708465576171875</LongitudeDegrees>
            </Position>
            <AltitudeMeters>708.20001220703125</AltitudeMeters>
            <DistanceMeters>NAN</DistanceMeters>
          </Trackpoint>
          <Trackpoint>
            <Time>2019-10-04T13:49:11.000Z</Time>
            <Position>
              <LatitudeDegrees>43.0478941462934017181396484375</LatitudeDegrees>
              <LongitudeDegrees>-5.77545206062495708465576171875</LongitudeDegrees>
            </Position>
            <AltitudeMeters>708.4000244140625</AltitudeMeters>
            <DistanceMeters>NAN</DistanceMeters>
          </Trackpoint>
          <Trackpoint>
            <Time>2019-10-04T13:49:13.000Z</Time>
            <Position>
              <LatitudeDegrees>43.0478941462934017181396484375</LatitudeDegrees>
              <LongitudeDegrees>-5.77545206062495708465576171875</LongitudeDegrees>
            </Position>
            <AltitudeMeters>708.5999755859375</AltitudeMeters>
            <DistanceMeters>NAN</DistanceMeters>
          </Trackpoint>
          <Trackpoint>
            <Time>2019-10-04T13:49:20.000Z</Time>
            <Position>
              <LatitudeDegrees>43.0478941462934017181396484375</LatitudeDegrees>
              <LongitudeDegrees>-5.77545206062495708465576171875</LongitudeDegrees>
            </Position>
            <AltitudeMeters>709.79998779296875</AltitudeMeters>
            <DistanceMeters>NAN</DistanceMeters>
          </Trackpoint>
          <Trackpoint>
            <Time>2019-10-04T13:49:23.000Z</Time>
            <Position>
              <LatitudeDegrees>43.0478941462934017181396484375</LatitudeDegrees>
              <LongitudeDegrees>-5.77545206062495708465576171875</LongitudeDegrees>
            </Position>
            <AltitudeMeters>710.20001220703125</AltitudeMeters>
            <DistanceMeters>NAN</DistanceMeters>
          </Trackpoint>
          <Trackpoint>
            <Time>2019-10-04T13:49:24.000Z</Time>
            <Position>
              <LatitudeDegrees>43.0478941462934017181396484375</LatitudeDegrees>
              <LongitudeDegrees>-5.77545206062495708465576171875</LongitudeDegrees>
            </Position>
            <AltitudeMeters>710.4000244140625</AltitudeMeters>
            <DistanceMeters>NAN</DistanceMeters>
          </Trackpoint>
          <Trackpoint>
            <Time>2019-10-04T13:49:29.000Z</Time>
            <Position>
              <LatitudeDegrees>43.0478941462934017181396484375</LatitudeDegrees>
              <LongitudeDegrees>-5.77545206062495708465576171875</LongitudeDegrees>
            </Position>
            <AltitudeMeters>710.79998779296875</AltitudeMeters>
            <DistanceMeters>NAN</DistanceMeters>
          </Trackpoint>
          <Trackpoint>
            <Time>2019-10-04T13:49:33.000Z</Time>
            <Position>
              <LatitudeDegrees>43.04789288900792598724365234375</LatitudeDegrees>
              <LongitudeDegrees>-5.77545038424432277679443359375</LongitudeDegrees>
            </Position>
            <AltitudeMeters>711</AltitudeMeters>
            <DistanceMeters>NAN</DistanceMeters>
          </Trackpoint>
          <Trackpoint>
            <Time>2019-10-04T13:49:37.000Z</Time>
            <Position>
              <LatitudeDegrees>43.04789288900792598724365234375</LatitudeDegrees>
              <LongitudeDegrees>-5.77545038424432277679443359375</LongitudeDegrees>
            </Position>
            <AltitudeMeters>711.4000244140625</AltitudeMeters>
            <DistanceMeters>NAN</DistanceMeters>
          </Trackpoint>
          <Trackpoint>
            <Time>2019-10-04T13:49:42.000Z</Time>
            <Position>
              <LatitudeDegrees>43.04789288900792598724365234375</LatitudeDegrees>
              <LongitudeDegrees>-5.77545038424432277679443359375</LongitudeDegrees>
            </Position>
            <AltitudeMeters>712</AltitudeMeters>
            <DistanceMeters>NAN</DistanceMeters>
          </Trackpoint>
          <Trackpoint>
            <Time>2019-10-04T13:49:43.000Z</Time>
            <Position>
              <LatitudeDegrees>43.04789288900792598724365234375</LatitudeDegrees>
              <LongitudeDegrees>-5.77545038424432277679443359375</LongitudeDegrees>
            </Position>
            <AltitudeMeters>712</AltitudeMeters>
            <DistanceMeters>NAN</DistanceMeters>
          </Trackpoint>
          <Trackpoint>
            <Time>2019-10-04T13:49:50.000Z</Time>
            <Position>
              <LatitudeDegrees>43.04789288900792598724365234375</LatitudeDegrees>
              <LongitudeDegrees>-5.77545038424432277679443359375</LongitudeDegrees>
            </Position>
            <AltitudeMeters>712.5999755859375</AltitudeMeters>
            <DistanceMeters>NAN</DistanceMeters>
          </Trackpoint>
          <Trackpoint>
            <Time>2019-10-04T13:49:53.000Z</Time>
            <Position>
              <LatitudeDegrees>43.04789288900792598724365234375</LatitudeDegrees>
              <LongitudeDegrees>-5.77545038424432277679443359375</LongitudeDegrees>
            </Position>
            <AltitudeMeters>712.79998779296875</AltitudeMeters>
            <DistanceMeters>NAN</DistanceMeters>
          </Trackpoint>
          <Trackpoint>
            <Time>2019-10-04T13:49:56.000Z</Time>
            <Position>
              <LatitudeDegrees>43.04789288900792598724365234375</LatitudeDegrees>
              <LongitudeDegrees>-5.77545038424432277679443359375</LongitudeDegrees>
            </Position>
            <AltitudeMeters>713.20001220703125</AltitudeMeters>
            <DistanceMeters>NAN</DistanceMeters>
          </Trackpoint>
          <Trackpoint>
            <Time>2019-10-04T13:50:01.000Z</Time>
            <Position>
              <LatitudeDegrees>43.04788291454315185546875</LatitudeDegrees>
              <LongitudeDegrees>-5.7754544913768768310546875</LongitudeDegrees>
            </Position>
            <AltitudeMeters>713</AltitudeMeters>
            <DistanceMeters>NAN</DistanceMeters>
          </Trackpoint>
          <Trackpoint>
            <Time>2019-10-04T13:50:02.000Z</Time>
            <Position>
              <LatitudeDegrees>43.047871850430965423583984375</LatitudeDegrees>
              <LongitudeDegrees>-5.7754623703658580780029296875</LongitudeDegrees>
            </Position>
            <AltitudeMeters>713.20001220703125</AltitudeMeters>
            <DistanceMeters>NAN</DistanceMeters>
          </Trackpoint>
          <Trackpoint>
            <Time>2019-10-04T13:50:08.000Z</Time>
            <Position>
              <LatitudeDegrees>43.04779247380793094635009765625</LatitudeDegrees>
              <LongitudeDegrees>-5.775520540773868560791015625</LongitudeDegrees>
            </Position>
            <AltitudeMeters>713.4000244140625</AltitudeMeters>
            <DistanceMeters>NAN</DistanceMeters>
          </Trackpoint>
          <Trackpoint>
            <Time>2019-10-04T13:50:12.000Z</Time>
            <Position>
              <LatitudeDegrees>43.04774771444499492645263671875</LatitudeDegrees>
              <LongitudeDegrees>-5.77555767260491847991943359375</LongitudeDegrees>
            </Position>
            <AltitudeMeters>713.79998779296875</AltitudeMeters>
            <DistanceMeters>NAN</DistanceMeters>
          </Trackpoint>
          <Trackpoint>
            <Time>2019-10-04T13:50:15.000Z</Time>
            <Position>
              <LatitudeDegrees>43.0477104149758815765380859375</LatitudeDegrees>
              <LongitudeDegrees>-5.7755850814282894134521484375</LongitudeDegrees>
            </Position>
            <AltitudeMeters>714</AltitudeMeters>
            <DistanceMeters>NAN</DistanceMeters>
          </Trackpoint>
          <Trackpoint>
            <Time>2019-10-04T13:50:16.000Z</Time>
            <Position>
              <LatitudeDegrees>43.04769842885434627532958984375</LatitudeDegrees>
              <LongitudeDegrees>-5.7755948044359683990478515625</LongitudeDegrees>
            </Position>
            <AltitudeMeters>714.20001220703125</AltitudeMeters>
            <DistanceMeters>NAN</DistanceMeters>
          </Trackpoint>
          <Trackpoint>
            <Time>2019-10-04T13:50:22.000Z</Time>
            <Position>
              <LatitudeDegrees>43.04761796258389949798583984375</LatitudeDegrees>
              <LongitudeDegrees>-5.77564702369272708892822265625</LongitudeDegrees>
            </Position>
            <AltitudeMeters>714.4000244140625</AltitudeMeters>
            <DistanceMeters>NAN</DistanceMeters>
          </Trackpoint>
          <Trackpoint>
            <Time>2019-10-04T13:50:23.000Z</Time>
            <Position>
              <LatitudeDegrees>43.047604970633983612060546875</LatitudeDegrees>
              <LongitudeDegrees>-5.7756558246910572052001953125</LongitudeDegrees>
            </Position>
            <AltitudeMeters>714.5999755859375</AltitudeMeters>
            <DistanceMeters>NAN</DistanceMeters>
          </Trackpoint>
          <Trackpoint>
            <Time>2019-10-04T13:50:28.000Z</Time>
            <Position>
              <LatitudeDegrees>43.04753900505602359771728515625</LatitudeDegrees>
              <LongitudeDegrees>-5.77569379471242427825927734375</LongitudeDegrees>
            </Position>
            <AltitudeMeters>715.4000244140625</AltitudeMeters>
            <DistanceMeters>NAN</DistanceMeters>
          </Trackpoint>
          <Trackpoint>
            <Time>2019-10-04T13:50:31.000Z</Time>
            <Position>
              <LatitudeDegrees>43.04749927483499050140380859375</LatitudeDegrees>
              <LongitudeDegrees>-5.77571944333612918853759765625</LongitudeDegrees>
            </Position>
            <AltitudeMeters>715.5999755859375</AltitudeMeters>
            <DistanceMeters>NAN</DistanceMeters>
          </Trackpoint>
          <Trackpoint>
            <Time>2019-10-04T13:50:37.000Z</Time>
            <Position>
              <LatitudeDegrees>43.0474229156970977783203125</LatitudeDegrees>
              <LongitudeDegrees>-5.7757684774696826934814453125</LongitudeDegrees>
            </Position>
            <AltitudeMeters>716.20001220703125</AltitudeMeters>
            <DistanceMeters>NAN</DistanceMeters>
          </Trackpoint>
          <Trackpoint>
            <Time>2019-10-04T13:50:39.000Z</Time>
            <Position>
              <LatitudeDegrees>43.0473955906927585601806640625</LatitudeDegrees>
              <LongitudeDegrees>-5.77578063122928142547607421875</LongitudeDegrees>
            </Position>
            <AltitudeMeters>716.4000244140625</AltitudeMeters>
            <DistanceMeters>NAN</DistanceMeters>
          </Trackpoint>
          <Trackpoint>
            <Time>2019-10-04T13:50:40.000Z</Time>
            <Position>
              <LatitudeDegrees>43.04738226346671581268310546875</LatitudeDegrees>
              <LongitudeDegrees>-5.77578775584697723388671875</LongitudeDegrees>
            </Position>
            <AltitudeMeters>716.4000244140625</AltitudeMeters>
            <DistanceMeters>NAN</DistanceMeters>
          </Trackpoint>
          <Trackpoint>
            <Time>2019-10-04T13:50:47.000Z</Time>
            <Position>
              <LatitudeDegrees>43.0472886376082897186279296875</LatitudeDegrees>
              <LongitudeDegrees>-5.77583259902894496917724609375</LongitudeDegrees>
            </Position>
            <AltitudeMeters>717.20001220703125</AltitudeMeters>
            <DistanceMeters>NAN</DistanceMeters>
          </Trackpoint>
          <Trackpoint>
            <Time>2019-10-04T13:50:49.000Z</Time>
            <Position>
              <LatitudeDegrees>43.04726089350879192352294921875</LatitudeDegrees>
              <LongitudeDegrees>-5.7758398912847042083740234375</LongitudeDegrees>
            </Position>
            <AltitudeMeters>717.20001220703125</AltitudeMeters>
            <DistanceMeters>NAN</DistanceMeters>
          </Trackpoint>
          <Trackpoint>
            <Time>2019-10-04T13:50:53.000Z</Time>
            <Position>
              <LatitudeDegrees>43.0472001247107982635498046875</LatitudeDegrees>
              <LongitudeDegrees>-5.77584416605532169342041015625</LongitudeDegrees>
            </Position>
            <AltitudeMeters>717.79998779296875</AltitudeMeters>
            <DistanceMeters>NAN</DistanceMeters>
          </Trackpoint>
          <Trackpoint>
            <Time>2019-10-04T13:50:56.000Z</Time>
            <Position>
              <LatitudeDegrees>43.04715762846171855926513671875</LatitudeDegrees>
              <LongitudeDegrees>-5.77584282495081424713134765625</LongitudeDegrees>
            </Position>
            <AltitudeMeters>718</AltitudeMeters>
            <DistanceMeters>NAN</DistanceMeters>
          </Trackpoint>
          <Trackpoint>
            <Time>2019-10-04T13:50:58.000Z</Time>
            <Position>
              <LatitudeDegrees>43.04712845943868160247802734375</LatitudeDegrees>
              <LongitudeDegrees>-5.77584802173078060150146484375</LongitudeDegrees>
            </Position>
            <AltitudeMeters>718.79998779296875</AltitudeMeters>
            <DistanceMeters>NAN</DistanceMeters>
          </Trackpoint>
          <Trackpoint>
            <Time>2019-10-04T13:51:04.000Z</Time>
            <Position>
              <LatitudeDegrees>43.0470492504537105560302734375</LatitudeDegrees>
              <LongitudeDegrees>-5.77586210332810878753662109375</LongitudeDegrees>
            </Position>
            <AltitudeMeters>719.20001220703125</AltitudeMeters>
            <DistanceMeters>NAN</DistanceMeters>
          </Trackpoint>
          <Trackpoint>
            <Time>2019-10-04T13:51:05.000Z</Time>
            <Position>
              <LatitudeDegrees>43.04703592322766780853271484375</LatitudeDegrees>
              <LongitudeDegrees>-5.775865204632282257080078125</LongitudeDegrees>
            </Position>
            <AltitudeMeters>719.4000244140625</AltitudeMeters>
            <DistanceMeters>NAN</DistanceMeters>
          </Trackpoint>
          <Trackpoint>
            <Time>2019-10-04T13:51:08.000Z</Time>
            <Position>
              <LatitudeDegrees>43.0469946004450321197509765625</LatitudeDegrees>
              <LongitudeDegrees>-5.77588406391441822052001953125</LongitudeDegrees>
            </Position>
            <AltitudeMeters>720</AltitudeMeters>
            <DistanceMeters>NAN</DistanceMeters>
          </Trackpoint>
          <Trackpoint>
            <Time>2019-10-04T13:51:10.000Z</Time>
            <Position>
              <LatitudeDegrees>43.04696635343134403228759765625</LatitudeDegrees>
              <LongitudeDegrees>-5.7758881710469722747802734375</LongitudeDegrees>
            </Position>
            <AltitudeMeters>720</AltitudeMeters>
            <DistanceMeters>NAN</DistanceMeters>
          </Trackpoint>
          <Trackpoint>
            <Time>2019-10-04T13:51:13.000Z</Time>
            <Position>
              <LatitudeDegrees>43.04692980833351612091064453125</LatitudeDegrees>
              <LongitudeDegrees>-5.77590904198586940765380859375</LongitudeDegrees>
            </Position>
            <AltitudeMeters>720.4000244140625</AltitudeMeters>
            <DistanceMeters>NAN</DistanceMeters>
          </Trackpoint>
          <Trackpoint>
            <Time>2019-10-04T13:51:17.000Z</Time>
            <Position>
              <LatitudeDegrees>43.0468749068677425384521484375</LatitudeDegrees>
              <LongitudeDegrees>-5.77591247856616973876953125</LongitudeDegrees>
            </Position>
            <AltitudeMeters>720.79998779296875</AltitudeMeters>
            <DistanceMeters>NAN</DistanceMeters>
          </Trackpoint>
          <Trackpoint>
            <Time>2019-10-04T13:51:18.000Z</Time>
            <Position>
              <LatitudeDegrees>43.04686174727976322174072265625</LatitudeDegrees>
              <LongitudeDegrees>-5.77591306529939174652099609375</LongitudeDegrees>
            </Position>
            <AltitudeMeters>721</AltitudeMeters>
            <DistanceMeters>NAN</DistanceMeters>
          </Trackpoint>
          <Trackpoint>
            <Time>2019-10-04T13:51:19.000Z</Time>
            <Position>
              <LatitudeDegrees>43.04685219191014766693115234375</LatitudeDegrees>
              <LongitudeDegrees>-5.77592278830707073211669921875</LongitudeDegrees>
            </Position>
            <AltitudeMeters>721.20001220703125</AltitudeMeters>
            <DistanceMeters>NAN</DistanceMeters>
          </Trackpoint>
          <Trackpoint>
            <Time>2019-10-04T13:51:22.000Z</Time>
            <Position>
              <LatitudeDegrees>43.046821095049381256103515625</LatitudeDegrees>
              <LongitudeDegrees>-5.775956399738788604736328125</LongitudeDegrees>
            </Position>
            <AltitudeMeters>721.79998779296875</AltitudeMeters>
            <DistanceMeters>NAN</DistanceMeters>
          </Trackpoint>
          <Trackpoint>
            <Time>2019-10-04T13:51:24.000Z</Time>
            <Position>
              <LatitudeDegrees>43.04679586552083492279052734375</LatitudeDegrees>
              <LongitudeDegrees>-5.77596402727067470550537109375</LongitudeDegrees>
            </Position>
            <AltitudeMeters>721.79998779296875</AltitudeMeters>
            <DistanceMeters>NAN</DistanceMeters>
          </Trackpoint>
          <Trackpoint>
            <Time>2019-10-04T13:51:26.000Z</Time>
            <Position>
              <LatitudeDegrees>43.046769462525844573974609375</LatitudeDegrees>
              <LongitudeDegrees>-5.7759699784219264984130859375</LongitudeDegrees>
            </Position>
            <AltitudeMeters>722.20001220703125</AltitudeMeters>
            <DistanceMeters>NAN</DistanceMeters>
          </Trackpoint>
          <Trackpoint>
            <Time>2019-10-04T13:51:29.000Z</Time>
            <Position>
              <LatitudeDegrees>43.04673291742801666259765625</LatitudeDegrees>
              <LongitudeDegrees>-5.77598900534212589263916015625</LongitudeDegrees>
            </Position>
            <AltitudeMeters>722.20001220703125</AltitudeMeters>
            <DistanceMeters>NAN</DistanceMeters>
          </Trackpoint>
          <Trackpoint>
            <Time>2019-10-04T13:51:34.000Z</Time>
            <Position>
              <LatitudeDegrees>43.0466656945645809173583984375</LatitudeDegrees>
              <LongitudeDegrees>-5.7760303281247615814208984375</LongitudeDegrees>
            </Position>
            <AltitudeMeters>723.4000244140625</AltitudeMeters>
            <DistanceMeters>NAN</DistanceMeters>
          </Trackpoint>
          <Trackpoint>
            <Time>2019-10-04T13:51:38.000Z</Time>
            <Position>
              <LatitudeDegrees>43.04661934264004230499267578125</LatitudeDegrees>
              <LongitudeDegrees>-5.77608405612409114837646484375</LongitudeDegrees>
            </Position>
            <AltitudeMeters>724</AltitudeMeters>
            <DistanceMeters>NAN</DistanceMeters>
          </Trackpoint>
          <Trackpoint>
            <Time>2019-10-04T13:51:41.000Z</Time>
            <Position>
              <LatitudeDegrees>43.04658547975122928619384765625</LatitudeDegrees>
              <LongitudeDegrees>-5.77611557208001613616943359375</LongitudeDegrees>
            </Position>
            <AltitudeMeters>724.79998779296875</AltitudeMeters>
            <DistanceMeters>NAN</DistanceMeters>
          </Trackpoint>
          <Trackpoint>
            <Time>2019-10-04T13:51:47.000Z</Time>
            <Position>
              <LatitudeDegrees>43.0465225316584110260009765625</LatitudeDegrees>
              <LongitudeDegrees>-5.77618933282792568206787109375</LongitudeDegrees>
            </Position>
            <AltitudeMeters>726</AltitudeMeters>
            <DistanceMeters>NAN</DistanceMeters>
          </Trackpoint>
          <Trackpoint>
            <Time>2019-10-04T13:51:50.000Z</Time>
            <Position>
              <LatitudeDegrees>43.04649394936859607696533203125</LatitudeDegrees>
              <LongitudeDegrees>-5.77623090706765651702880859375</LongitudeDegrees>
            </Position>
            <AltitudeMeters>726.79998779296875</AltitudeMeters>
            <DistanceMeters>NAN</DistanceMeters>
          </Trackpoint>
          <Trackpoint>
            <Time>2019-10-04T13:51:52.000Z</Time>
            <Position>
              <LatitudeDegrees>43.046471066772937774658203125</LatitudeDegrees>
              <LongitudeDegrees>-5.77625135891139507293701171875</LongitudeDegrees>
            </Position>
            <AltitudeMeters>727</AltitudeMeters>
            <DistanceMeters>NAN</DistanceMeters>
          </Trackpoint>
          <Trackpoint>
            <Time>2019-10-04T13:51:53.000Z</Time>
            <Position>
              <LatitudeDegrees>43.0464625172317028045654296875</LatitudeDegrees>
              <LongitudeDegrees>-5.77626443468034267425537109375</LongitudeDegrees>
            </Position>
            <AltitudeMeters>727.20001220703125</AltitudeMeters>
            <DistanceMeters>NAN</DistanceMeters>
          </Trackpoint>
          <Trackpoint>
            <Time>2019-10-04T13:51:55.000Z</Time>
            <Position>
              <LatitudeDegrees>43.0464474298059940338134765625</LatitudeDegrees>
              <LongitudeDegrees>-5.7763002254068851470947265625</LongitudeDegrees>
            </Position>
            <AltitudeMeters>727.5999755859375</AltitudeMeters>
            <DistanceMeters>NAN</DistanceMeters>
          </Trackpoint>
          <Trackpoint>
            <Time>2019-10-04T13:51:56.000Z</Time>
            <Position>
              <LatitudeDegrees>43.046440891921520233154296875</LatitudeDegrees>
              <LongitudeDegrees>-5.77631791122257709503173828125</LongitudeDegrees>
            </Position>
            <AltitudeMeters>728</AltitudeMeters>
            <DistanceMeters>NAN</DistanceMeters>
          </Trackpoint>
          <Trackpoint>
            <Time>2019-10-04T13:51:59.000Z</Time>
            <Position>
              <LatitudeDegrees>43.0464152432978153228759765625</LatitudeDegrees>
              <LongitudeDegrees>-5.77636501751840114593505859375</LongitudeDegrees>
            </Position>
            <AltitudeMeters>729</AltitudeMeters>
            <DistanceMeters>NAN</DistanceMeters>
          </Trackpoint>
          <Trackpoint>
            <Time>2019-10-04T13:52:02.000Z</Time>
            <Position>
              <LatitudeDegrees>43.04638632573187351226806640625</LatitudeDegrees>
              <LongitudeDegrees>-5.7764081843197345733642578125</LongitudeDegrees>
            </Position>
            <AltitudeMeters>729.5999755859375</AltitudeMeters>
            <DistanceMeters>NAN</DistanceMeters>
          </Trackpoint>
          <Trackpoint>
            <Time>2019-10-04T13:52:04.000Z</Time>
            <Position>
              <LatitudeDegrees>43.046366460621356964111328125</LatitudeDegrees>
              <LongitudeDegrees>-5.77644129283726215362548828125</LongitudeDegrees>
            </Position>
            <AltitudeMeters>730.4000244140625</AltitudeMeters>
            <DistanceMeters>NAN</DistanceMeters>
          </Trackpoint>
          <Trackpoint>
            <Time>2019-10-04T13:52:10.000Z</Time>
            <Position>
              <LatitudeDegrees>43.046306781470775604248046875</LatitudeDegrees>
              <LongitudeDegrees>-5.7765282131731510162353515625</LongitudeDegrees>
            </Position>
            <AltitudeMeters>731.5999755859375</AltitudeMeters>
            <DistanceMeters>NAN</DistanceMeters>
          </Trackpoint>
          <Trackpoint>
            <Time>2019-10-04T13:52:15.000Z</Time>
            <Position>
              <LatitudeDegrees>43.04623939096927642822265625</LatitudeDegrees>
              <LongitudeDegrees>-5.77657825313508510589599609375</LongitudeDegrees>
            </Position>
            <AltitudeMeters>732.5999755859375</AltitudeMeters>
            <DistanceMeters>NAN</DistanceMeters>
          </Trackpoint>
          <Trackpoint>
            <Time>2019-10-04T13:52:16.000Z</Time>
            <Position>
              <LatitudeDegrees>43.046223632991313934326171875</LatitudeDegrees>
              <LongitudeDegrees>-5.77658445574343204498291015625</LongitudeDegrees>
            </Position>
            <AltitudeMeters>732.79998779296875</AltitudeMeters>
            <DistanceMeters>NAN</DistanceMeters>
          </Trackpoint>
          <Trackpoint>
            <Time>2019-10-04T13:52:17.000Z</Time>
            <Position>
              <LatitudeDegrees>43.046210221946239471435546875</LatitudeDegrees>
              <LongitudeDegrees>-5.77659267000854015350341796875</LongitudeDegrees>
            </Position>
            <AltitudeMeters>733.20001220703125</AltitudeMeters>
            <DistanceMeters>NAN</DistanceMeters>
          </Trackpoint>
          <Trackpoint>
            <Time>2019-10-04T13:52:21.000Z</Time>
            <Position>
              <LatitudeDegrees>43.04615381173789501190185546875</LatitudeDegrees>
              <LongitudeDegrees>-5.77663558535277843475341796875</LongitudeDegrees>
            </Position>
            <AltitudeMeters>734.20001220703125</AltitudeMeters>
            <DistanceMeters>NAN</DistanceMeters>
          </Trackpoint>
          <Trackpoint>
            <Time>2019-10-04T13:52:24.000Z</Time>
            <Position>
              <LatitudeDegrees>43.0461131595075130462646484375</LatitudeDegrees>
              <LongitudeDegrees>-5.77665804885327816009521484375</LongitudeDegrees>
            </Position>
            <AltitudeMeters>734.79998779296875</AltitudeMeters>
            <DistanceMeters>NAN</DistanceMeters>
          </Trackpoint>
          <Trackpoint>
            <Time>2019-10-04T13:52:26.000Z</Time>
            <Position>
              <LatitudeDegrees>43.0460826493799686431884765625</LatitudeDegrees>
              <LongitudeDegrees>-5.77667397446930408477783203125</LongitudeDegrees>
            </Position>
            <AltitudeMeters>735.4000244140625</AltitudeMeters>
            <DistanceMeters>NAN</DistanceMeters>
          </Trackpoint>
          <Trackpoint>
            <Time>2019-10-04T13:52:30.000Z</Time>
            <Position>
              <LatitudeDegrees>43.0460222996771335601806640625</LatitudeDegrees>
              <LongitudeDegrees>-5.77671169303357601165771484375</LongitudeDegrees>
            </Position>
            <AltitudeMeters>736.5999755859375</AltitudeMeters>
            <DistanceMeters>NAN</DistanceMeters>
          </Trackpoint>
          <Trackpoint>
            <Time>2019-10-04T13:52:31.000Z</Time>
            <Position>
              <LatitudeDegrees>43.04600930772721767425537109375</LatitudeDegrees>
              <LongitudeDegrees>-5.77671722508966922760009765625</LongitudeDegrees>
            </Position>
            <AltitudeMeters>736.79998779296875</AltitudeMeters>
            <DistanceMeters>NAN</DistanceMeters>
          </Trackpoint>
          <Trackpoint>
            <Time>2019-10-04T13:52:33.000Z</Time>
            <Position>
              <LatitudeDegrees>43.0459797196090221405029296875</LatitudeDegrees>
              <LongitudeDegrees>-5.7767360843718051910400390625</LongitudeDegrees>
            </Position>
            <AltitudeMeters>737.5999755859375</AltitudeMeters>
            <DistanceMeters>NAN</DistanceMeters>
          </Trackpoint>
          <Trackpoint>
            <Time>2019-10-04T13:52:37.000Z</Time>
            <Position>
              <LatitudeDegrees>43.04591811262071132659912109375</LatitudeDegrees>
              <LongitudeDegrees>-5.77677539549767971038818359375</LongitudeDegrees>
            </Position>
            <AltitudeMeters>739</AltitudeMeters>
            <DistanceMeters>NAN</DistanceMeters>
          </Trackpoint>
          <Trackpoint>
            <Time>2019-10-04T13:52:39.000Z</Time>
            <Position>
              <LatitudeDegrees>43.0458895303308963775634765625</LatitudeDegrees>
              <LongitudeDegrees>-5.77679249458014965057373046875</LongitudeDegrees>
            </Position>
            <AltitudeMeters>740.4000244140625</AltitudeMeters>
            <DistanceMeters>NAN</DistanceMeters>
          </Trackpoint>
          <Trackpoint>
            <Time>2019-10-04T13:52:43.000Z</Time>
            <Position>
              <LatitudeDegrees>43.0458315275609493255615234375</LatitudeDegrees>
              <LongitudeDegrees>-5.7768235914409160614013671875</LongitudeDegrees>
            </Position>
            <AltitudeMeters>741.79998779296875</AltitudeMeters>
            <DistanceMeters>NAN</DistanceMeters>
          </Trackpoint>
          <Trackpoint>
            <Time>2019-10-04T13:52:46.000Z</Time>
            <Position>
              <LatitudeDegrees>43.04578953422605991363525390625</LatitudeDegrees>
              <LongitudeDegrees>-5.77684999443590641021728515625</LongitudeDegrees>
            </Position>
            <AltitudeMeters>743.20001220703125</AltitudeMeters>
            <DistanceMeters>NAN</DistanceMeters>
          </Trackpoint>
          <Trackpoint>
            <Time>2019-10-04T13:52:49.000Z</Time>
            <Position>
              <LatitudeDegrees>43.045746870338916778564453125</LatitudeDegrees>
              <LongitudeDegrees>-5.77687061391770839691162109375</LongitudeDegrees>
            </Position>
            <AltitudeMeters>744.4000244140625</AltitudeMeters>
            <DistanceMeters>NAN</DistanceMeters>
          </Trackpoint>
          <Trackpoint>
            <Time>2019-10-04T13:52:52.000Z</Time>
            <Position>
              <LatitudeDegrees>43.045700602233409881591796875</LatitudeDegrees>
              <LongitudeDegrees>-5.77688922174274921417236328125</LongitudeDegrees>
            </Position>
            <AltitudeMeters>745.4000244140625</AltitudeMeters>
            <DistanceMeters>NAN</DistanceMeters>
          </Trackpoint>
          <Trackpoint>
            <Time>2019-10-04T13:52:55.000Z</Time>
            <Position>
              <LatitudeDegrees>43.04565659724175930023193359375</LatitudeDegrees>
              <LongitudeDegrees>-5.7769228331744670867919921875</LongitudeDegrees>
            </Position>
            <AltitudeMeters>746.5999755859375</AltitudeMeters>
            <DistanceMeters>NAN</DistanceMeters>
          </Trackpoint>
          <Trackpoint>
            <Time>2019-10-04T13:52:57.000Z</Time>
            <Position>
              <LatitudeDegrees>43.04562457837164402008056640625</LatitudeDegrees>
              <LongitudeDegrees>-5.77694378793239593505859375</LongitudeDegrees>
            </Position>
            <AltitudeMeters>748</AltitudeMeters>
            <DistanceMeters>NAN</DistanceMeters>
          </Trackpoint>
          <Trackpoint>
            <Time>2019-10-04T13:53:02.000Z</Time>
            <Position>
              <LatitudeDegrees>43.0455475486814975738525390625</LatitudeDegrees>
              <LongitudeDegrees>-5.77698946930468082427978515625</LongitudeDegrees>
            </Position>
            <AltitudeMeters>749.20001220703125</AltitudeMeters>
            <DistanceMeters>NAN</DistanceMeters>
          </Trackpoint>
          <Trackpoint>
            <Time>2019-10-04T13:53:05.000Z</Time>
            <Position>
              <LatitudeDegrees>43.04549499414861202239990234375</LatitudeDegrees>
              <LongitudeDegrees>-5.77700640074908733367919921875</LongitudeDegrees>
            </Position>
            <AltitudeMeters>750.20001220703125</AltitudeMeters>
            <DistanceMeters>NAN</DistanceMeters>
          </Trackpoint>
          <Trackpoint>
            <Time>2019-10-04T13:53:10.000Z</Time>
            <Position>
              <LatitudeDegrees>43.0454112589359283447265625</LatitudeDegrees>
              <LongitudeDegrees>-5.77703875489532947540283203125</LongitudeDegrees>
            </Position>
            <AltitudeMeters>751.20001220703125</AltitudeMeters>
            <DistanceMeters>NAN</DistanceMeters>
          </Trackpoint>
          <Trackpoint>
            <Time>2019-10-04T13:53:11.000Z</Time>
            <Position>
              <LatitudeDegrees>43.04539323784410953521728515625</LatitudeDegrees>
              <LongitudeDegrees>-5.7770425267517566680908203125</LongitudeDegrees>
            </Position>
            <AltitudeMeters>752</AltitudeMeters>
            <DistanceMeters>NAN</DistanceMeters>
          </Trackpoint>
          <Trackpoint>
            <Time>2019-10-04T13:53:13.000Z</Time>
            <Position>
              <LatitudeDegrees>43.04535870440304279327392578125</LatitudeDegrees>
              <LongitudeDegrees>-5.77705250121653079986572265625</LongitudeDegrees>
            </Position>
            <AltitudeMeters>752.5999755859375</AltitudeMeters>
            <DistanceMeters>NAN</DistanceMeters>
          </Trackpoint>
          <Trackpoint>
            <Time>2019-10-04T13:53:20.000Z</Time>
            <Position>
              <LatitudeDegrees>43.04522526450455188751220703125</LatitudeDegrees>
              <LongitudeDegrees>-5.77706188894808292388916015625</LongitudeDegrees>
            </Position>
            <AltitudeMeters>753.5999755859375</AltitudeMeters>
            <DistanceMeters>NAN</DistanceMeters>
          </Trackpoint>
          <Trackpoint>
            <Time>2019-10-04T13:53:26.000Z</Time>
            <Position>
              <LatitudeDegrees>43.0451095104217529296875</LatitudeDegrees>
              <LongitudeDegrees>-5.777076892554759979248046875</LongitudeDegrees>
            </Position>
            <AltitudeMeters>754.79998779296875</AltitudeMeters>
            <DistanceMeters>NAN</DistanceMeters>
          </Trackpoint>
          <Trackpoint>
            <Time>2019-10-04T13:53:30.000Z</Time>
            <Position>
              <LatitudeDegrees>43.045040108263492584228515625</LatitudeDegrees>
              <LongitudeDegrees>-5.7770981825888156890869140625</LongitudeDegrees>
            </Position>
            <AltitudeMeters>755.4000244140625</AltitudeMeters>
            <DistanceMeters>NAN</DistanceMeters>
          </Trackpoint>
          <Trackpoint>
            <Time>2019-10-04T13:53:34.000Z</Time>
            <Position>
              <LatitudeDegrees>43.0449675209820270538330078125</LatitudeDegrees>
              <LongitudeDegrees>-5.77713162638247013092041015625</LongitudeDegrees>
            </Position>
            <AltitudeMeters>755.79998779296875</AltitudeMeters>
            <DistanceMeters>NAN</DistanceMeters>
          </Trackpoint>
          <Trackpoint>
            <Time>2019-10-04T13:53:38.000Z</Time>
            <Position>
              <LatitudeDegrees>43.0448984540998935699462890625</LatitudeDegrees>
              <LongitudeDegrees>-5.77717035077512264251708984375</LongitudeDegrees>
            </Position>
            <AltitudeMeters>756.20001220703125</AltitudeMeters>
            <DistanceMeters>NAN</DistanceMeters>
          </Trackpoint>
          <Trackpoint>
            <Time>2019-10-04T13:53:43.000Z</Time>
            <Position>
              <LatitudeDegrees>43.04483165033161640167236328125</LatitudeDegrees>
              <LongitudeDegrees>-5.77722139656543731689453125</LongitudeDegrees>
            </Position>
            <AltitudeMeters>756.79998779296875</AltitudeMeters>
            <DistanceMeters>NAN</DistanceMeters>
          </Trackpoint>
          <Trackpoint>
            <Time>2019-10-04T13:53:44.000Z</Time>
            <Position>
              <LatitudeDegrees>43.04482796229422092437744140625</LatitudeDegrees>
              <LongitudeDegrees>-5.777228437364101409912109375</LongitudeDegrees>
            </Position>
            <AltitudeMeters>756.79998779296875</AltitudeMeters>
            <DistanceMeters>NAN</DistanceMeters>
          </Trackpoint>
          <Trackpoint>
            <Time>2019-10-04T13:53:51.000Z</Time>
            <Position>
              <LatitudeDegrees>43.0448287166655063629150390625</LatitudeDegrees>
              <LongitudeDegrees>-5.777229778468608856201171875</LongitudeDegrees>
            </Position>
            <AltitudeMeters>757.4000244140625</AltitudeMeters>
            <DistanceMeters>NAN</DistanceMeters>
          </Trackpoint>
          <Trackpoint>
            <Time>2019-10-04T14:07:29.000Z</Time>
            <Position>
              <LatitudeDegrees>43.04478890262544155120849609375</LatitudeDegrees>
              <LongitudeDegrees>-5.77723287977278232574462890625</LongitudeDegrees>
            </Position>
            <AltitudeMeters>757.20001220703125</AltitudeMeters>
            <DistanceMeters>NAN</DistanceMeters>
          </Trackpoint>
          <Trackpoint>
            <Time>2019-10-04T14:07:30.000Z</Time>
            <Position>
              <LatitudeDegrees>43.0447690375149250030517578125</LatitudeDegrees>
              <LongitudeDegrees>-5.7772366516292095184326171875</LongitudeDegrees>
            </Position>
            <AltitudeMeters>757.20001220703125</AltitudeMeters>
            <DistanceMeters>NAN</DistanceMeters>
          </Trackpoint>
          <Trackpoint>
            <Time>2019-10-04T14:07:31.000Z</Time>
            <Position>
              <LatitudeDegrees>43.04474615491926670074462890625</LatitudeDegrees>
              <LongitudeDegrees>-5.77724712900817394256591796875</LongitudeDegrees>
            </Position>
            <AltitudeMeters>757.4000244140625</AltitudeMeters>
            <DistanceMeters>NAN</DistanceMeters>
          </Trackpoint>
          <Trackpoint>
            <Time>2019-10-04T14:07:32.000Z</Time>
            <Position>
              <LatitudeDegrees>43.04472419433295726776123046875</LatitudeDegrees>
              <LongitudeDegrees>-5.77724981121718883514404296875</LongitudeDegrees>
            </Position>
            <AltitudeMeters>758.20001220703125</AltitudeMeters>
            <DistanceMeters>NAN</DistanceMeters>
          </Trackpoint>
          <Trackpoint>
            <Time>2019-10-04T14:07:38.000Z</Time>
            <Position>
              <LatitudeDegrees>43.044615648686885833740234375</LatitudeDegrees>
              <LongitudeDegrees>-5.77732726000249385833740234375</LongitudeDegrees>
            </Position>
            <AltitudeMeters>758.79998779296875</AltitudeMeters>
            <DistanceMeters>NAN</DistanceMeters>
          </Trackpoint>
          <Trackpoint>
            <Time>2019-10-04T14:07:42.000Z</Time>
            <Position>
              <LatitudeDegrees>43.04454146884381771087646484375</LatitudeDegrees>
              <LongitudeDegrees>-5.77735391445457935333251953125</LongitudeDegrees>
            </Position>
            <AltitudeMeters>759.4000244140625</AltitudeMeters>
            <DistanceMeters>NAN</DistanceMeters>
          </Trackpoint>
          <Trackpoint>
            <Time>2019-10-04T14:07:46.000Z</Time>
            <Position>
              <LatitudeDegrees>43.04447357542812824249267578125</LatitudeDegrees>
              <LongitudeDegrees>-5.77737788669764995574951171875</LongitudeDegrees>
            </Position>
            <AltitudeMeters>759.79998779296875</AltitudeMeters>
            <DistanceMeters>NAN</DistanceMeters>
          </Trackpoint>
          <Trackpoint>
            <Time>2019-10-04T14:07:50.000Z</Time>
            <Position>
              <LatitudeDegrees>43.04439897648990154266357421875</LatitudeDegrees>
              <LongitudeDegrees>-5.777386017143726348876953125</LongitudeDegrees>
            </Position>
            <AltitudeMeters>760.4000244140625</AltitudeMeters>
            <DistanceMeters>NAN</DistanceMeters>
          </Trackpoint>
          <Trackpoint>
            <Time>2019-10-04T14:07:53.000Z</Time>
            <Position>
              <LatitudeDegrees>43.04434415884315967559814453125</LatitudeDegrees>
              <LongitudeDegrees>-5.7773975841701030731201171875</LongitudeDegrees>
            </Position>
            <AltitudeMeters>760.4000244140625</AltitudeMeters>
            <DistanceMeters>NAN</DistanceMeters>
          </Trackpoint>
          <Trackpoint>
            <Time>2019-10-04T14:08:00.000Z</Time>
            <Position>
              <LatitudeDegrees>43.044220022857189178466796875</LatitudeDegrees>
              <LongitudeDegrees>-5.7774197123944759368896484375</LongitudeDegrees>
            </Position>
            <AltitudeMeters>761.5999755859375</AltitudeMeters>
            <DistanceMeters>NAN</DistanceMeters>
          </Trackpoint>
          <Trackpoint>
            <Time>2019-10-04T14:08:02.000Z</Time>
            <Position>
              <LatitudeDegrees>43.04418590851128101348876953125</LatitudeDegrees>
              <LongitudeDegrees>-5.777423568069934844970703125</LongitudeDegrees>
            </Position>
            <AltitudeMeters>762</AltitudeMeters>
            <DistanceMeters>NAN</DistanceMeters>
          </Trackpoint>
          <Trackpoint>
            <Time>2019-10-04T14:08:08.000Z</Time>
            <Position>
              <LatitudeDegrees>43.04407845251262187957763671875</LatitudeDegrees>
              <LongitudeDegrees>-5.7774331234395503997802734375</LongitudeDegrees>
            </Position>
            <AltitudeMeters>762.79998779296875</AltitudeMeters>
            <DistanceMeters>NAN</DistanceMeters>
          </Trackpoint>
          <Trackpoint>
            <Time>2019-10-04T14:08:13.000Z</Time>
            <Position>
              <LatitudeDegrees>43.044006116688251495361328125</LatitudeDegrees>
              <LongitudeDegrees>-5.7774401642382144927978515625</LongitudeDegrees>
            </Position>
            <AltitudeMeters>763.5999755859375</AltitudeMeters>
            <DistanceMeters>NAN</DistanceMeters>
          </Trackpoint>
          <Trackpoint>
            <Time>2019-10-04T14:08:18.000Z</Time>
            <Position>
              <LatitudeDegrees>43.0439174361526966094970703125</LatitudeDegrees>
              <LongitudeDegrees>-5.77744678594172000885009765625</LongitudeDegrees>
            </Position>
            <AltitudeMeters>763.79998779296875</AltitudeMeters>
            <DistanceMeters>NAN</DistanceMeters>
          </Trackpoint>
          <Trackpoint>
            <Time>2019-10-04T14:08:21.000Z</Time>
            <Position>
              <LatitudeDegrees>43.04385951720178127288818359375</LatitudeDegrees>
              <LongitudeDegrees>-5.77744242735207080841064453125</LongitudeDegrees>
            </Position>
            <AltitudeMeters>765.20001220703125</AltitudeMeters>
            <DistanceMeters>NAN</DistanceMeters>
          </Trackpoint>
          <Trackpoint>
            <Time>2019-10-04T14:08:28.000Z</Time>
            <Position>
              <LatitudeDegrees>43.04372540675103664398193359375</LatitudeDegrees>
              <LongitudeDegrees>-5.77745080925524234771728515625</LongitudeDegrees>
            </Position>
            <AltitudeMeters>765.79998779296875</AltitudeMeters>
            <DistanceMeters>NAN</DistanceMeters>
          </Trackpoint>
          <Trackpoint>
            <Time>2019-10-04T14:08:30.000Z</Time>
            <Position>
              <LatitudeDegrees>43.04368592798709869384765625</LatitudeDegrees>
              <LongitudeDegrees>-5.77745248563587665557861328125</LongitudeDegrees>
            </Position>
            <AltitudeMeters>766.20001220703125</AltitudeMeters>
            <DistanceMeters>NAN</DistanceMeters>
          </Trackpoint>
          <Trackpoint>
            <Time>2019-10-04T14:08:35.000Z</Time>
            <Position>
              <LatitudeDegrees>43.0435895361006259918212890625</LatitudeDegrees>
              <LongitudeDegrees>-5.777458436787128448486328125</LongitudeDegrees>
            </Position>
            <AltitudeMeters>767.4000244140625</AltitudeMeters>
            <DistanceMeters>NAN</DistanceMeters>
          </Trackpoint>
          <Trackpoint>
            <Time>2019-10-04T14:08:41.000Z</Time>
            <Position>
              <LatitudeDegrees>43.0434959940612316131591796875</LatitudeDegrees>
              <LongitudeDegrees>-5.77745315618813037872314453125</LongitudeDegrees>
            </Position>
            <AltitudeMeters>768.20001220703125</AltitudeMeters>
            <DistanceMeters>NAN</DistanceMeters>
          </Trackpoint>
          <Trackpoint>
            <Time>2019-10-04T14:08:42.000Z</Time>
            <Position>
              <LatitudeDegrees>43.04347948171198368072509765625</LatitudeDegrees>
              <LongitudeDegrees>-5.7774518989026546478271484375</LongitudeDegrees>
            </Position>
            <AltitudeMeters>768.79998779296875</AltitudeMeters>
            <DistanceMeters>NAN</DistanceMeters>
          </Trackpoint>
          <Trackpoint>
            <Time>2019-10-04T14:08:48.000Z</Time>
            <Position>
              <LatitudeDegrees>43.04339247755706310272216796875</LatitudeDegrees>
              <LongitudeDegrees>-5.77742029912769794464111328125</LongitudeDegrees>
            </Position>
            <AltitudeMeters>769.79998779296875</AltitudeMeters>
            <DistanceMeters>NAN</DistanceMeters>
          </Trackpoint>
          <Trackpoint>
            <Time>2019-10-04T14:08:50.000Z</Time>
            <Position>
              <LatitudeDegrees>43.0433674156665802001953125</LatitudeDegrees>
              <LongitudeDegrees>-5.777405463159084320068359375</LongitudeDegrees>
            </Position>
            <AltitudeMeters>770.20001220703125</AltitudeMeters>
            <DistanceMeters>NAN</DistanceMeters>
          </Trackpoint>
          <Trackpoint>
            <Time>2019-10-04T14:08:55.000Z</Time>
            <Position>
              <LatitudeDegrees>43.04330010898411273956298828125</LatitudeDegrees>
              <LongitudeDegrees>-5.7773539982736110687255859375</LongitudeDegrees>
            </Position>
            <AltitudeMeters>770.79998779296875</AltitudeMeters>
            <DistanceMeters>NAN</DistanceMeters>
          </Trackpoint>
          <Trackpoint>
            <Time>2019-10-04T14:08:57.000Z</Time>
            <Position>
              <LatitudeDegrees>43.0432710237801074981689453125</LatitudeDegrees>
              <LongitudeDegrees>-5.77733228914439678192138671875</LongitudeDegrees>
            </Position>
            <AltitudeMeters>771.79998779296875</AltitudeMeters>
            <DistanceMeters>NAN</DistanceMeters>
          </Trackpoint>
          <Trackpoint>
            <Time>2019-10-04T14:09:02.000Z</Time>
            <Position>
              <LatitudeDegrees>43.0432177148759365081787109375</LatitudeDegrees>
              <LongitudeDegrees>-5.7772587798535823822021484375</LongitudeDegrees>
            </Position>
            <AltitudeMeters>772</AltitudeMeters>
            <DistanceMeters>NAN</DistanceMeters>
          </Trackpoint>
          <Trackpoint>
            <Time>2019-10-04T14:09:04.000Z</Time>
            <Position>
              <LatitudeDegrees>43.04319634102284908294677734375</LatitudeDegrees>
              <LongitudeDegrees>-5.77721871435642242431640625</LongitudeDegrees>
            </Position>
            <AltitudeMeters>772.5999755859375</AltitudeMeters>
            <DistanceMeters>NAN</DistanceMeters>
          </Trackpoint>
          <Trackpoint>
            <Time>2019-10-04T14:09:06.000Z</Time>
            <Position>
              <LatitudeDegrees>43.04317890666425228118896484375</LatitudeDegrees>
              <LongitudeDegrees>-5.77717822976410388946533203125</LongitudeDegrees>
            </Position>
            <AltitudeMeters>773.20001220703125</AltitudeMeters>
            <DistanceMeters>NAN</DistanceMeters>
          </Trackpoint>
          <Trackpoint>
            <Time>2019-10-04T14:09:14.000Z</Time>
            <Position>
              <LatitudeDegrees>43.04310791194438934326171875</LatitudeDegrees>
              <LongitudeDegrees>-5.7770103402435779571533203125</LongitudeDegrees>
            </Position>
            <AltitudeMeters>774</AltitudeMeters>
            <DistanceMeters>NAN</DistanceMeters>
          </Trackpoint>
          <Trackpoint>
            <Time>2019-10-04T14:09:17.000Z</Time>
            <Position>
              <LatitudeDegrees>43.04308167658746242523193359375</LatitudeDegrees>
              <LongitudeDegrees>-5.776944458484649658203125</LongitudeDegrees>
            </Position>
            <AltitudeMeters>774.4000244140625</AltitudeMeters>
            <DistanceMeters>NAN</DistanceMeters>
          </Trackpoint>
          <Trackpoint>
            <Time>2019-10-04T14:09:21.000Z</Time>
            <Position>
              <LatitudeDegrees>43.04304814897477626800537109375</LatitudeDegrees>
              <LongitudeDegrees>-5.7768648304045200347900390625</LongitudeDegrees>
            </Position>
            <AltitudeMeters>775.20001220703125</AltitudeMeters>
            <DistanceMeters>NAN</DistanceMeters>
          </Trackpoint>
          <Trackpoint>
            <Time>2019-10-04T14:09:23.000Z</Time>
            <Position>
              <LatitudeDegrees>43.04302920587360858917236328125</LatitudeDegrees>
              <LongitudeDegrees>-5.77682887203991413116455078125</LongitudeDegrees>
            </Position>
            <AltitudeMeters>775.5999755859375</AltitudeMeters>
            <DistanceMeters>NAN</DistanceMeters>
          </Trackpoint>
          <Trackpoint>
            <Time>2019-10-04T14:09:29.000Z</Time>
            <Position>
              <LatitudeDegrees>43.0429582111537456512451171875</LatitudeDegrees>
              <LongitudeDegrees>-5.7767169736325740814208984375</LongitudeDegrees>
            </Position>
            <AltitudeMeters>776.20001220703125</AltitudeMeters>
            <DistanceMeters>NAN</DistanceMeters>
          </Trackpoint>
          <Trackpoint>
            <Time>2019-10-04T14:09:31.000Z</Time>
            <Position>
              <LatitudeDegrees>43.04294220171868801116943359375</LatitudeDegrees>
              <LongitudeDegrees>-5.77669375576078891754150390625</LongitudeDegrees>
            </Position>
            <AltitudeMeters>776.79998779296875</AltitudeMeters>
            <DistanceMeters>NAN</DistanceMeters>
          </Trackpoint>
          <Trackpoint>
            <Time>2019-10-04T14:09:34.000Z</Time>
            <Position>
              <LatitudeDegrees>43.04293717257678508758544921875</LatitudeDegrees>
              <LongitudeDegrees>-5.77668990008533000946044921875</LongitudeDegrees>
            </Position>
            <AltitudeMeters>776.79998779296875</AltitudeMeters>
            <DistanceMeters>NAN</DistanceMeters>
          </Trackpoint>
          <Trackpoint>
            <Time>2019-10-04T14:09:39.000Z</Time>
            <Position>
              <LatitudeDegrees>43.04290750063955783843994140625</LatitudeDegrees>
              <LongitudeDegrees>-5.7766735553741455078125</LongitudeDegrees>
            </Position>
            <AltitudeMeters>777.4000244140625</AltitudeMeters>
            <DistanceMeters>NAN</DistanceMeters>
          </Trackpoint>
          <Trackpoint>
            <Time>2019-10-04T14:09:40.000Z</Time>
            <Position>
              <LatitudeDegrees>43.04289400577545166015625</LatitudeDegrees>
              <LongitudeDegrees>-5.776663832366466522216796875</LongitudeDegrees>
            </Position>
            <AltitudeMeters>777.4000244140625</AltitudeMeters>
            <DistanceMeters>NAN</DistanceMeters>
          </Trackpoint>
          <Trackpoint>
            <Time>2019-10-04T14:09:42.000Z</Time>
            <Position>
              <LatitudeDegrees>43.04285419173538684844970703125</LatitudeDegrees>
              <LongitudeDegrees>-5.7766445539891719818115234375</LongitudeDegrees>
            </Position>
            <AltitudeMeters>777.79998779296875</AltitudeMeters>
            <DistanceMeters>NAN</DistanceMeters>
          </Trackpoint>
          <Trackpoint>
            <Time>2019-10-04T14:09:46.000Z</Time>
            <Position>
              <LatitudeDegrees>43.04274807684123516082763671875</LatitudeDegrees>
              <LongitudeDegrees>-5.77660448849201202392578125</LongitudeDegrees>
            </Position>
            <AltitudeMeters>778.4000244140625</AltitudeMeters>
            <DistanceMeters>NAN</DistanceMeters>
          </Trackpoint>
          <Trackpoint>
            <Time>2019-10-04T14:09:48.000Z</Time>
            <Position>
              <LatitudeDegrees>43.04269040934741497039794921875</LatitudeDegrees>
              <LongitudeDegrees>-5.77658412046730518341064453125</LongitudeDegrees>
            </Position>
            <AltitudeMeters>778.79998779296875</AltitudeMeters>
            <DistanceMeters>NAN</DistanceMeters>
          </Trackpoint>
          <Trackpoint>
            <Time>2019-10-04T14:09:52.000Z</Time>
            <Position>
              <LatitudeDegrees>43.0425873957574367523193359375</LatitudeDegrees>
              <LongitudeDegrees>-5.7765597291290760040283203125</LongitudeDegrees>
            </Position>
            <AltitudeMeters>780</AltitudeMeters>
            <DistanceMeters>NAN</DistanceMeters>
          </Trackpoint>
          <Trackpoint>
            <Time>2019-10-04T14:09:54.000Z</Time>
            <Position>
              <LatitudeDegrees>43.042544983327388763427734375</LatitudeDegrees>
              <LongitudeDegrees>-5.77655796892940998077392578125</LongitudeDegrees>
            </Position>
            <AltitudeMeters>780.20001220703125</AltitudeMeters>
            <DistanceMeters>NAN</DistanceMeters>
          </Trackpoint>
          <Trackpoint>
            <Time>2019-10-04T14:09:57.000Z</Time>
            <Position>
              <LatitudeDegrees>43.0424861423671245574951171875</LatitudeDegrees>
              <LongitudeDegrees>-5.77654522843658924102783203125</LongitudeDegrees>
            </Position>
            <AltitudeMeters>781</AltitudeMeters>
            <DistanceMeters>NAN</DistanceMeters>
          </Trackpoint>
          <Trackpoint>
            <Time>2019-10-04T14:09:59.000Z</Time>
            <Position>
              <LatitudeDegrees>43.04243911989033222198486328125</LatitudeDegrees>
              <LongitudeDegrees>-5.77654640190303325653076171875</LongitudeDegrees>
            </Position>
            <AltitudeMeters>781.20001220703125</AltitudeMeters>
            <DistanceMeters>NAN</DistanceMeters>
          </Trackpoint>
          <Trackpoint>
            <Time>2019-10-04T14:10:03.000Z</Time>
            <Position>
              <LatitudeDegrees>43.04236737079918384552001953125</LatitudeDegrees>
              <LongitudeDegrees>-5.7765702903270721435546875</LongitudeDegrees>
            </Position>
            <AltitudeMeters>782.20001220703125</AltitudeMeters>
            <DistanceMeters>NAN</DistanceMeters>
          </Trackpoint>
          <Trackpoint>
            <Time>2019-10-04T14:10:07.000Z</Time>
            <Position>
              <LatitudeDegrees>43.0422967113554477691650390625</LatitudeDegrees>
              <LongitudeDegrees>-5.7765895687043666839599609375</LongitudeDegrees>
            </Position>
            <AltitudeMeters>783</AltitudeMeters>
            <DistanceMeters>NAN</DistanceMeters>
          </Trackpoint>
          <Trackpoint>
            <Time>2019-10-04T14:10:08.000Z</Time>
            <Position>
              <LatitudeDegrees>43.04228237830102443695068359375</LatitudeDegrees>
              <LongitudeDegrees>-5.7765925861895084381103515625</LongitudeDegrees>
            </Position>
            <AltitudeMeters>783.4000244140625</AltitudeMeters>
            <DistanceMeters>NAN</DistanceMeters>
          </Trackpoint>
          <Trackpoint>
            <Time>2019-10-04T14:10:14.000Z</Time>
            <Position>
              <LatitudeDegrees>43.04219059646129608154296875</LatitudeDegrees>
              <LongitudeDegrees>-5.77663801610469818115234375</LongitudeDegrees>
            </Position>
            <AltitudeMeters>784</AltitudeMeters>
            <DistanceMeters>NAN</DistanceMeters>
          </Trackpoint>
          <Trackpoint>
            <Time>2019-10-04T14:10:16.000Z</Time>
            <Position>
              <LatitudeDegrees>43.0421626009047031402587890625</LatitudeDegrees>
              <LongitudeDegrees>-5.77665905468165874481201171875</LongitudeDegrees>
            </Position>
            <AltitudeMeters>784.5999755859375</AltitudeMeters>
            <DistanceMeters>NAN</DistanceMeters>
          </Trackpoint>
          <Trackpoint>
            <Time>2019-10-04T14:10:22.000Z</Time>
            <Position>
              <LatitudeDegrees>43.042072243988513946533203125</LatitudeDegrees>
              <LongitudeDegrees>-5.7767017185688018798828125</LongitudeDegrees>
            </Position>
            <AltitudeMeters>785.79998779296875</AltitudeMeters>
            <DistanceMeters>NAN</DistanceMeters>
          </Trackpoint>
          <Trackpoint>
            <Time>2019-10-04T14:10:26.000Z</Time>
            <Position>
              <LatitudeDegrees>43.04201734252274036407470703125</LatitudeDegrees>
              <LongitudeDegrees>-5.776737593114376068115234375</LongitudeDegrees>
            </Position>
            <AltitudeMeters>787</AltitudeMeters>
            <DistanceMeters>NAN</DistanceMeters>
          </Trackpoint>
          <Trackpoint>
            <Time>2019-10-04T14:10:28.000Z</Time>
            <Position>
              <LatitudeDegrees>43.04199387319386005401611328125</LatitudeDegrees>
              <LongitudeDegrees>-5.77676516957581043243408203125</LongitudeDegrees>
            </Position>
            <AltitudeMeters>787.20001220703125</AltitudeMeters>
            <DistanceMeters>NAN</DistanceMeters>
          </Trackpoint>
          <Trackpoint>
            <Time>2019-10-04T14:10:32.000Z</Time>
            <Position>
              <LatitudeDegrees>43.04194324649870395660400390625</LatitudeDegrees>
              <LongitudeDegrees>-5.7768165506422519683837890625</LongitudeDegrees>
            </Position>
            <AltitudeMeters>788.20001220703125</AltitudeMeters>
            <DistanceMeters>NAN</DistanceMeters>
          </Trackpoint>
          <Trackpoint>
            <Time>2019-10-04T14:10:37.000Z</Time>
            <Position>
              <LatitudeDegrees>43.04190636612474918365478515625</LatitudeDegrees>
              <LongitudeDegrees>-5.77690212987363338470458984375</LongitudeDegrees>
            </Position>
            <AltitudeMeters>789.20001220703125</AltitudeMeters>
            <DistanceMeters>NAN</DistanceMeters>
          </Trackpoint>
          <Trackpoint>
            <Time>2019-10-04T14:10:43.000Z</Time>
            <Position>
              <LatitudeDegrees>43.041848279535770416259765625</LatitudeDegrees>
              <LongitudeDegrees>-5.77699835412204265594482421875</LongitudeDegrees>
            </Position>
            <AltitudeMeters>790.4000244140625</AltitudeMeters>
            <DistanceMeters>NAN</DistanceMeters>
          </Trackpoint>
          <Trackpoint>
            <Time>2019-10-04T14:10:46.000Z</Time>
            <Position>
              <LatitudeDegrees>43.041818775236606597900390625</LatitudeDegrees>
              <LongitudeDegrees>-5.7770462147891521453857421875</LongitudeDegrees>
            </Position>
            <AltitudeMeters>790.79998779296875</AltitudeMeters>
            <DistanceMeters>NAN</DistanceMeters>
          </Trackpoint>
          <Trackpoint>
            <Time>2019-10-04T14:10:49.000Z</Time>
            <Position>
              <LatitudeDegrees>43.041795305907726287841796875</LatitudeDegrees>
              <LongitudeDegrees>-5.777094662189483642578125</LongitudeDegrees>
            </Position>
            <AltitudeMeters>791.79998779296875</AltitudeMeters>
            <DistanceMeters>NAN</DistanceMeters>
          </Trackpoint>
          <Trackpoint>
            <Time>2019-10-04T14:10:55.000Z</Time>
            <Position>
              <LatitudeDegrees>43.04173269309103488922119140625</LatitudeDegrees>
              <LongitudeDegrees>-5.77717822976410388946533203125</LongitudeDegrees>
            </Position>
            <AltitudeMeters>792.4000244140625</AltitudeMeters>
            <DistanceMeters>NAN</DistanceMeters>
          </Trackpoint>
          <Trackpoint>
            <Time>2019-10-04T14:10:59.000Z</Time>
            <Position>
              <LatitudeDegrees>43.04169514216482639312744140625</LatitudeDegrees>
              <LongitudeDegrees>-5.77724126167595386505126953125</LongitudeDegrees>
            </Position>
            <AltitudeMeters>792.79998779296875</AltitudeMeters>
            <DistanceMeters>NAN</DistanceMeters>
          </Trackpoint>
          <Trackpoint>
            <Time>2019-10-04T14:11:04.000Z</Time>
            <Position>
              <LatitudeDegrees>43.04164518602192401885986328125</LatitudeDegrees>
              <LongitudeDegrees>-5.77732239849865436553955078125</LongitudeDegrees>
            </Position>
            <AltitudeMeters>793.79998779296875</AltitudeMeters>
            <DistanceMeters>NAN</DistanceMeters>
          </Trackpoint>
          <Trackpoint>
            <Time>2019-10-04T14:11:05.000Z</Time>
            <Position>
              <LatitudeDegrees>43.04163412190973758697509765625</LatitudeDegrees>
              <LongitudeDegrees>-5.77733849175274372100830078125</LongitudeDegrees>
            </Position>
            <AltitudeMeters>794</AltitudeMeters>
            <DistanceMeters>NAN</DistanceMeters>
          </Trackpoint>
          <Trackpoint>
            <Time>2019-10-04T14:11:11.000Z</Time>
            <Position>
              <LatitudeDegrees>43.04157561622560024261474609375</LatitudeDegrees>
              <LongitudeDegrees>-5.77744536101818084716796875</LongitudeDegrees>
            </Position>
            <AltitudeMeters>795</AltitudeMeters>
            <DistanceMeters>NAN</DistanceMeters>
          </Trackpoint>
          <Trackpoint>
            <Time>2019-10-04T14:11:13.000Z</Time>
            <Position>
              <LatitudeDegrees>43.04155214689671993255615234375</LatitudeDegrees>
              <LongitudeDegrees>-5.7774795591831207275390625</LongitudeDegrees>
            </Position>
            <AltitudeMeters>795.4000244140625</AltitudeMeters>
            <DistanceMeters>NAN</DistanceMeters>
          </Trackpoint>
          <Trackpoint>
            <Time>2019-10-04T14:11:17.000Z</Time>
            <Position>
              <LatitudeDegrees>43.04152113385498523712158203125</LatitudeDegrees>
              <LongitudeDegrees>-5.77755189500749111175537109375</LongitudeDegrees>
            </Position>
            <AltitudeMeters>796.20001220703125</AltitudeMeters>
            <DistanceMeters>NAN</DistanceMeters>
          </Trackpoint>
          <Trackpoint>
            <Time>2019-10-04T14:11:21.000Z</Time>
            <Position>
              <LatitudeDegrees>43.0414886958897113800048828125</LatitudeDegrees>
              <LongitudeDegrees>-5.77762615866959095001220703125</LongitudeDegrees>
            </Position>
            <AltitudeMeters>796.79998779296875</AltitudeMeters>
            <DistanceMeters>NAN</DistanceMeters>
          </Trackpoint>
          <Trackpoint>
            <Time>2019-10-04T14:11:24.000Z</Time>
            <Position>
              <LatitudeDegrees>43.04146614857017993927001953125</LatitudeDegrees>
              <LongitudeDegrees>-5.7776808924973011016845703125</LongitudeDegrees>
            </Position>
            <AltitudeMeters>797.20001220703125</AltitudeMeters>
            <DistanceMeters>NAN</DistanceMeters>
          </Trackpoint>
          <Trackpoint>
            <Time>2019-10-04T14:11:29.000Z</Time>
            <Position>
              <LatitudeDegrees>43.04142658598721027374267578125</LatitudeDegrees>
              <LongitudeDegrees>-5.7777734287083148956298828125</LongitudeDegrees>
            </Position>
            <AltitudeMeters>798</AltitudeMeters>
            <DistanceMeters>NAN</DistanceMeters>
          </Trackpoint>
          <Trackpoint>
            <Time>2019-10-04T14:11:31.000Z</Time>
            <Position>
              <LatitudeDegrees>43.041409067809581756591796875</LatitudeDegrees>
              <LongitudeDegrees>-5.77780620194971561431884765625</LongitudeDegrees>
            </Position>
            <AltitudeMeters>798.20001220703125</AltitudeMeters>
            <DistanceMeters>NAN</DistanceMeters>
          </Trackpoint>
          <Trackpoint>
            <Time>2019-10-04T14:11:37.000Z</Time>
            <Position>
              <LatitudeDegrees>43.04137042723596096038818359375</LatitudeDegrees>
              <LongitudeDegrees>-5.77791399322450160980224609375</LongitudeDegrees>
            </Position>
            <AltitudeMeters>799.20001220703125</AltitudeMeters>
            <DistanceMeters>NAN</DistanceMeters>
          </Trackpoint>
          <Trackpoint>
            <Time>2019-10-04T14:11:38.000Z</Time>
            <Position>
              <LatitudeDegrees>43.04136372171342372894287109375</LatitudeDegrees>
              <LongitudeDegrees>-5.77793209813535213470458984375</LongitudeDegrees>
            </Position>
            <AltitudeMeters>799.79998779296875</AltitudeMeters>
            <DistanceMeters>NAN</DistanceMeters>
          </Trackpoint>
          <Trackpoint>
            <Time>2019-10-04T14:11:43.000Z</Time>
            <Position>
              <LatitudeDegrees>43.0413262546062469482421875</LatitudeDegrees>
              <LongitudeDegrees>-5.778018347918987274169921875</LongitudeDegrees>
            </Position>
            <AltitudeMeters>800.79998779296875</AltitudeMeters>
            <DistanceMeters>NAN</DistanceMeters>
          </Trackpoint>
          <Trackpoint>
            <Time>2019-10-04T14:11:45.000Z</Time>
            <Position>
              <LatitudeDegrees>43.0413130111992359161376953125</LatitudeDegrees>
              <LongitudeDegrees>-5.77805380336940288543701171875</LongitudeDegrees>
            </Position>
            <AltitudeMeters>801</AltitudeMeters>
            <DistanceMeters>NAN</DistanceMeters>
          </Trackpoint>
          <Trackpoint>
            <Time>2019-10-04T14:11:50.000Z</Time>
            <Position>
              <LatitudeDegrees>43.04128694348037242889404296875</LatitudeDegrees>
              <LongitudeDegrees>-5.77815505675971508026123046875</LongitudeDegrees>
            </Position>
            <AltitudeMeters>801.79998779296875</AltitudeMeters>
            <DistanceMeters>NAN</DistanceMeters>
          </Trackpoint>
          <Trackpoint>
            <Time>2019-10-04T14:11:52.000Z</Time>
            <Position>
              <LatitudeDegrees>43.041270263493061065673828125</LatitudeDegrees>
              <LongitudeDegrees>-5.7781858183443546295166015625</LongitudeDegrees>
            </Position>
            <AltitudeMeters>802.20001220703125</AltitudeMeters>
            <DistanceMeters>NAN</DistanceMeters>
          </Trackpoint>
          <Trackpoint>
            <Time>2019-10-04T14:11:55.000Z</Time>
            <Position>
              <LatitudeDegrees>43.041258864104747772216796875</LatitudeDegrees>
              <LongitudeDegrees>-5.7782451622188091278076171875</LongitudeDegrees>
            </Position>
            <AltitudeMeters>803.20001220703125</AltitudeMeters>
            <DistanceMeters>NAN</DistanceMeters>
          </Trackpoint>
          <Trackpoint>
            <Time>2019-10-04T14:11:58.000Z</Time>
            <Position>
              <LatitudeDegrees>43.0412375740706920623779296875</LatitudeDegrees>
              <LongitudeDegrees>-5.7783014886081218719482421875</LongitudeDegrees>
            </Position>
            <AltitudeMeters>803.4000244140625</AltitudeMeters>
            <DistanceMeters>NAN</DistanceMeters>
          </Trackpoint>
          <Trackpoint>
            <Time>2019-10-04T14:12:01.000Z</Time>
            <Position>
              <LatitudeDegrees>43.0412154458463191986083984375</LatitudeDegrees>
              <LongitudeDegrees>-5.77836561016738414764404296875</LongitudeDegrees>
            </Position>
            <AltitudeMeters>804.20001220703125</AltitudeMeters>
            <DistanceMeters>NAN</DistanceMeters>
          </Trackpoint>
          <Trackpoint>
            <Time>2019-10-04T14:12:06.000Z</Time>
            <Position>
              <LatitudeDegrees>43.0411782301962375640869140625</LatitudeDegrees>
              <LongitudeDegrees>-5.77846082858741283416748046875</LongitudeDegrees>
            </Position>
            <AltitudeMeters>805.20001220703125</AltitudeMeters>
            <DistanceMeters>NAN</DistanceMeters>
          </Trackpoint>
          <Trackpoint>
            <Time>2019-10-04T14:12:07.000Z</Time>
            <Position>
              <LatitudeDegrees>43.041168339550495147705078125</LatitudeDegrees>
              <LongitudeDegrees>-5.77847541309893131256103515625</LongitudeDegrees>
            </Position>
            <AltitudeMeters>805.20001220703125</AltitudeMeters>
            <DistanceMeters>NAN</DistanceMeters>
          </Trackpoint>
          <Trackpoint>
            <Time>2019-10-04T14:12:12.000Z</Time>
            <Position>
              <LatitudeDegrees>43.04112114943563938140869140625</LatitudeDegrees>
              <LongitudeDegrees>-5.77855453826487064361572265625</LongitudeDegrees>
            </Position>
            <AltitudeMeters>806.20001220703125</AltitudeMeters>
            <DistanceMeters>NAN</DistanceMeters>
          </Trackpoint>
          <Trackpoint>
            <Time>2019-10-04T14:12:14.000Z</Time>
            <Position>
              <LatitudeDegrees>43.0411014519631862640380859375</LatitudeDegrees>
              <LongitudeDegrees>-5.7785888202488422393798828125</LongitudeDegrees>
            </Position>
            <AltitudeMeters>806.5999755859375</AltitudeMeters>
            <DistanceMeters>NAN</DistanceMeters>
          </Trackpoint>
          <Trackpoint>
            <Time>2019-10-04T14:12:20.000Z</Time>
            <Position>
              <LatitudeDegrees>43.04104328155517578125</LatitudeDegrees>
              <LongitudeDegrees>-5.7786877267062664031982421875</LongitudeDegrees>
            </Position>
            <AltitudeMeters>807.20001220703125</AltitudeMeters>
            <DistanceMeters>NAN</DistanceMeters>
          </Trackpoint>
          <Trackpoint>
            <Time>2019-10-04T14:12:25.000Z</Time>
            <Position>
              <LatitudeDegrees>43.04099625907838344573974609375</LatitudeDegrees>
              <LongitudeDegrees>-5.778777413070201873779296875</LongitudeDegrees>
            </Position>
            <AltitudeMeters>808.4000244140625</AltitudeMeters>
            <DistanceMeters>NAN</DistanceMeters>
          </Trackpoint>
          <Trackpoint>
            <Time>2019-10-04T14:12:32.000Z</Time>
            <Position>
              <LatitudeDegrees>43.04093708284199237823486328125</LatitudeDegrees>
              <LongitudeDegrees>-5.7789076678454875946044921875</LongitudeDegrees>
            </Position>
            <AltitudeMeters>809.4000244140625</AltitudeMeters>
            <DistanceMeters>NAN</DistanceMeters>
          </Trackpoint>
          <Trackpoint>
            <Time>2019-10-04T14:12:34.000Z</Time>
            <Position>
              <LatitudeDegrees>43.04091998375952243804931640625</LatitudeDegrees>
              <LongitudeDegrees>-5.778943039476871490478515625</LongitudeDegrees>
            </Position>
            <AltitudeMeters>809.5999755859375</AltitudeMeters>
            <DistanceMeters>NAN</DistanceMeters>
          </Trackpoint>
          <Trackpoint>
            <Time>2019-10-04T14:12:41.000Z</Time>
            <Position>
              <LatitudeDegrees>43.04086600430309772491455078125</LatitudeDegrees>
              <LongitudeDegrees>-5.779079161584377288818359375</LongitudeDegrees>
            </Position>
            <AltitudeMeters>810.79998779296875</AltitudeMeters>
            <DistanceMeters>NAN</DistanceMeters>
          </Trackpoint>
          <Trackpoint>
            <Time>2019-10-04T14:12:42.000Z</Time>
            <Position>
              <LatitudeDegrees>43.04085745476186275482177734375</LatitudeDegrees>
              <LongitudeDegrees>-5.77909802086651325225830078125</LongitudeDegrees>
            </Position>
            <AltitudeMeters>811</AltitudeMeters>
            <DistanceMeters>NAN</DistanceMeters>
          </Trackpoint>
          <Trackpoint>
            <Time>2019-10-04T14:12:48.000Z</Time>
            <Position>
              <LatitudeDegrees>43.04081202484667301177978515625</LatitudeDegrees>
              <LongitudeDegrees>-5.77921670861542224884033203125</LongitudeDegrees>
            </Position>
            <AltitudeMeters>812.20001220703125</AltitudeMeters>
            <DistanceMeters>NAN</DistanceMeters>
          </Trackpoint>
          <Trackpoint>
            <Time>2019-10-04T14:12:51.000Z</Time>
            <Position>
              <LatitudeDegrees>43.04079073481261730194091796875</LatitudeDegrees>
              <LongitudeDegrees>-5.7792761363089084625244140625</LongitudeDegrees>
            </Position>
            <AltitudeMeters>812.5999755859375</AltitudeMeters>
            <DistanceMeters>NAN</DistanceMeters>
          </Trackpoint>
          <Trackpoint>
            <Time>2019-10-04T14:12:55.000Z</Time>
            <Position>
              <LatitudeDegrees>43.040767014026641845703125</LatitudeDegrees>
              <LongitudeDegrees>-5.779354088008403778076171875</LongitudeDegrees>
            </Position>
            <AltitudeMeters>813.20001220703125</AltitudeMeters>
            <DistanceMeters>NAN</DistanceMeters>
          </Trackpoint>
          <Trackpoint>
            <Time>2019-10-04T14:12:59.000Z</Time>
            <Position>
              <LatitudeDegrees>43.040735833346843719482421875</LatitudeDegrees>
              <LongitudeDegrees>-5.77943581156432628631591796875</LongitudeDegrees>
            </Position>
            <AltitudeMeters>813.79998779296875</AltitudeMeters>
            <DistanceMeters>NAN</DistanceMeters>
          </Trackpoint>
          <Trackpoint>
            <Time>2019-10-04T14:13:02.000Z</Time>
            <Position>
              <LatitudeDegrees>43.0407125316560268402099609375</LatitudeDegrees>
              <LongitudeDegrees>-5.779495574533939361572265625</LongitudeDegrees>
            </Position>
            <AltitudeMeters>814.4000244140625</AltitudeMeters>
            <DistanceMeters>NAN</DistanceMeters>
          </Trackpoint>
          <Trackpoint>
            <Time>2019-10-04T14:13:07.000Z</Time>
            <Position>
              <LatitudeDegrees>43.04068093188107013702392578125</LatitudeDegrees>
              <LongitudeDegrees>-5.7796053774654865264892578125</LongitudeDegrees>
            </Position>
            <AltitudeMeters>815</AltitudeMeters>
            <DistanceMeters>NAN</DistanceMeters>
          </Trackpoint>
          <Trackpoint>
            <Time>2019-10-04T14:13:09.000Z</Time>
            <Position>
              <LatitudeDegrees>43.04066852666437625885009765625</LatitudeDegrees>
              <LongitudeDegrees>-5.77965323813259601593017578125</LongitudeDegrees>
            </Position>
            <AltitudeMeters>815.4000244140625</AltitudeMeters>
            <DistanceMeters>NAN</DistanceMeters>
          </Trackpoint>
          <Trackpoint>
            <Time>2019-10-04T14:13:15.000Z</Time>
            <Position>
              <LatitudeDegrees>43.0406263656914234161376953125</LatitudeDegrees>
              <LongitudeDegrees>-5.779779218137264251708984375</LongitudeDegrees>
            </Position>
            <AltitudeMeters>816.4000244140625</AltitudeMeters>
            <DistanceMeters>NAN</DistanceMeters>
          </Trackpoint>
          <Trackpoint>
            <Time>2019-10-04T14:13:16.000Z</Time>
            <Position>
              <LatitudeDegrees>43.040619827806949615478515625</LatitudeDegrees>
              <LongitudeDegrees>-5.779802016913890838623046875</LongitudeDegrees>
            </Position>
            <AltitudeMeters>816.5999755859375</AltitudeMeters>
            <DistanceMeters>NAN</DistanceMeters>
          </Trackpoint>
          <Trackpoint>
            <Time>2019-10-04T14:13:23.000Z</Time>
            <Position>
              <LatitudeDegrees>43.04054128937423229217529296875</LatitudeDegrees>
              <LongitudeDegrees>-5.77993386425077915191650390625</LongitudeDegrees>
            </Position>
            <AltitudeMeters>817.79998779296875</AltitudeMeters>
            <DistanceMeters>NAN</DistanceMeters>
          </Trackpoint>
          <Trackpoint>
            <Time>2019-10-04T14:13:29.000Z</Time>
            <Position>
              <LatitudeDegrees>43.04044456221163272857666015625</LatitudeDegrees>
              <LongitudeDegrees>-5.7799946330487728118896484375</LongitudeDegrees>
            </Position>
            <AltitudeMeters>818.79998779296875</AltitudeMeters>
            <DistanceMeters>NAN</DistanceMeters>
          </Trackpoint>
          <Trackpoint>
            <Time>2019-10-04T14:13:31.000Z</Time>
            <Position>
              <LatitudeDegrees>43.04041187278926372528076171875</LatitudeDegrees>
              <LongitudeDegrees>-5.7800013385713100433349609375</LongitudeDegrees>
            </Position>
            <AltitudeMeters>819.4000244140625</AltitudeMeters>
            <DistanceMeters>NAN</DistanceMeters>
          </Trackpoint>
          <Trackpoint>
            <Time>2019-10-04T14:13:33.000Z</Time>
            <Position>
              <LatitudeDegrees>43.04037633351981639862060546875</LatitudeDegrees>
              <LongitudeDegrees>-5.78000259585678577423095703125</LongitudeDegrees>
            </Position>
            <AltitudeMeters>820</AltitudeMeters>
            <DistanceMeters>NAN</DistanceMeters>
          </Trackpoint>
          <Trackpoint>
            <Time>2019-10-04T14:13:39.000Z</Time>
            <Position>
              <LatitudeDegrees>43.04027172736823558807373046875</LatitudeDegrees>
              <LongitudeDegrees>-5.7799785397946834564208984375</LongitudeDegrees>
            </Position>
            <AltitudeMeters>820.4000244140625</AltitudeMeters>
            <DistanceMeters>NAN</DistanceMeters>
          </Trackpoint>
          <Trackpoint>
            <Time>2019-10-04T14:13:42.000Z</Time>
            <Position>
              <LatitudeDegrees>43.040226213634014129638671875</LatitudeDegrees>
              <LongitudeDegrees>-5.7799436710774898529052734375</LongitudeDegrees>
            </Position>
            <AltitudeMeters>821.20001220703125</AltitudeMeters>
            <DistanceMeters>NAN</DistanceMeters>
          </Trackpoint>
          <Trackpoint>
            <Time>2019-10-04T14:13:49.000Z</Time>
            <Position>
              <LatitudeDegrees>43.04012529551982879638671875</LatitudeDegrees>
              <LongitudeDegrees>-5.7798601873219013214111328125</LongitudeDegrees>
            </Position>
            <AltitudeMeters>822.20001220703125</AltitudeMeters>
            <DistanceMeters>NAN</DistanceMeters>
          </Trackpoint>
          <Trackpoint>
            <Time>2019-10-04T14:13:57.000Z</Time>
            <Position>
              <LatitudeDegrees>43.0400454998016357421875</LatitudeDegrees>
              <LongitudeDegrees>-5.7797210477292537689208984375</LongitudeDegrees>
            </Position>
            <AltitudeMeters>823.4000244140625</AltitudeMeters>
            <DistanceMeters>NAN</DistanceMeters>
          </Trackpoint>
          <Trackpoint>
            <Time>2019-10-04T14:14:02.000Z</Time>
            <Position>
              <LatitudeDegrees>43.0399980582296848297119140625</LatitudeDegrees>
              <LongitudeDegrees>-5.7796161063015460968017578125</LongitudeDegrees>
            </Position>
            <AltitudeMeters>824.4000244140625</AltitudeMeters>
            <DistanceMeters>NAN</DistanceMeters>
          </Trackpoint>
          <Trackpoint>
            <Time>2019-10-04T14:14:06.000Z</Time>
            <Position>
              <LatitudeDegrees>43.03996578790247440338134765625</LatitudeDegrees>
              <LongitudeDegrees>-5.77953119762241840362548828125</LongitudeDegrees>
            </Position>
            <AltitudeMeters>825.20001220703125</AltitudeMeters>
            <DistanceMeters>NAN</DistanceMeters>
          </Trackpoint>
          <Trackpoint>
            <Time>2019-10-04T14:14:10.000Z</Time>
            <Position>
              <LatitudeDegrees>43.03993728943169116973876953125</LatitudeDegrees>
              <LongitudeDegrees>-5.779442600905895233154296875</LongitudeDegrees>
            </Position>
            <AltitudeMeters>825.4000244140625</AltitudeMeters>
            <DistanceMeters>NAN</DistanceMeters>
          </Trackpoint>
          <Trackpoint>
            <Time>2019-10-04T14:14:15.000Z</Time>
            <Position>
              <LatitudeDegrees>43.0399068631231784820556640625</LatitudeDegrees>
              <LongitudeDegrees>-5.77932399697601795196533203125</LongitudeDegrees>
            </Position>
            <AltitudeMeters>826.20001220703125</AltitudeMeters>
            <DistanceMeters>NAN</DistanceMeters>
          </Trackpoint>
          <Trackpoint>
            <Time>2019-10-04T14:14:18.000Z</Time>
            <Position>
              <LatitudeDegrees>43.0398957990109920501708984375</LatitudeDegrees>
              <LongitudeDegrees>-5.77924218960106372833251953125</LongitudeDegrees>
            </Position>
            <AltitudeMeters>826.5999755859375</AltitudeMeters>
            <DistanceMeters>NAN</DistanceMeters>
          </Trackpoint>
          <Trackpoint>
            <Time>2019-10-04T14:14:24.000Z</Time>
            <Position>
              <LatitudeDegrees>43.03987258113920688629150390625</LatitudeDegrees>
              <LongitudeDegrees>-5.77907673083245754241943359375</LongitudeDegrees>
            </Position>
            <AltitudeMeters>827</AltitudeMeters>
            <DistanceMeters>NAN</DistanceMeters>
          </Trackpoint>
          <Trackpoint>
            <Time>2019-10-04T14:14:28.000Z</Time>
            <Position>
              <LatitudeDegrees>43.03986721672117710113525390625</LatitudeDegrees>
              <LongitudeDegrees>-5.778958797454833984375</LongitudeDegrees>
            </Position>
            <AltitudeMeters>827.5999755859375</AltitudeMeters>
            <DistanceMeters>NAN</DistanceMeters>
          </Trackpoint>
          <Trackpoint>
            <Time>2019-10-04T14:14:32.000Z</Time>
            <Position>
              <LatitudeDegrees>43.03985715843737125396728515625</LatitudeDegrees>
              <LongitudeDegrees>-5.7788355834782123565673828125</LongitudeDegrees>
            </Position>
            <AltitudeMeters>827.79998779296875</AltitudeMeters>
            <DistanceMeters>NAN</DistanceMeters>
          </Trackpoint>
          <Trackpoint>
            <Time>2019-10-04T14:14:41.000Z</Time>
            <Position>
              <LatitudeDegrees>43.03981021977961063385009765625</LatitudeDegrees>
              <LongitudeDegrees>-5.77855638228356838226318359375</LongitudeDegrees>
            </Position>
            <AltitudeMeters>828.79998779296875</AltitudeMeters>
            <DistanceMeters>NAN</DistanceMeters>
          </Trackpoint>
          <Trackpoint>
            <Time>2019-10-04T14:14:49.000Z</Time>
            <Position>
              <LatitudeDegrees>43.039734028279781341552734375</LatitudeDegrees>
              <LongitudeDegrees>-5.77835236676037311553955078125</LongitudeDegrees>
            </Position>
            <AltitudeMeters>829.4000244140625</AltitudeMeters>
            <DistanceMeters>NAN</DistanceMeters>
          </Trackpoint>
          <Trackpoint>
            <Time>2019-10-04T14:14:52.000Z</Time>
            <Position>
              <LatitudeDegrees>43.03969748318195343017578125</LatitudeDegrees>
              <LongitudeDegrees>-5.77828547917306423187255859375</LongitudeDegrees>
            </Position>
            <AltitudeMeters>830</AltitudeMeters>
            <DistanceMeters>NAN</DistanceMeters>
          </Trackpoint>
          <Trackpoint>
            <Time>2019-10-04T14:14:58.000Z</Time>
            <Position>
              <LatitudeDegrees>43.03962581790983676910400390625</LatitudeDegrees>
              <LongitudeDegrees>-5.77814684249460697174072265625</LongitudeDegrees>
            </Position>
            <AltitudeMeters>831</AltitudeMeters>
            <DistanceMeters>NAN</DistanceMeters>
          </Trackpoint>
          <Trackpoint>
            <Time>2019-10-04T14:14:59.000Z</Time>
            <Position>
              <LatitudeDegrees>43.039615340530872344970703125</LatitudeDegrees>
              <LongitudeDegrees>-5.77812370844185352325439453125</LongitudeDegrees>
            </Position>
            <AltitudeMeters>831</AltitudeMeters>
            <DistanceMeters>NAN</DistanceMeters>
          </Trackpoint>
          <Trackpoint>
            <Time>2019-10-04T14:15:08.000Z</Time>
            <Position>
              <LatitudeDegrees>43.0395068787038326263427734375</LatitudeDegrees>
              <LongitudeDegrees>-5.77791717834770679473876953125</LongitudeDegrees>
            </Position>
            <AltitudeMeters>831.79998779296875</AltitudeMeters>
            <DistanceMeters>NAN</DistanceMeters>
          </Trackpoint>
          <Trackpoint>
            <Time>2019-10-04T14:15:09.000Z</Time>
            <Position>
              <LatitudeDegrees>43.0394961498677730560302734375</LatitudeDegrees>
              <LongitudeDegrees>-5.7778941281139850616455078125</LongitudeDegrees>
            </Position>
            <AltitudeMeters>832.20001220703125</AltitudeMeters>
            <DistanceMeters>NAN</DistanceMeters>
          </Trackpoint>
          <Trackpoint>
            <Time>2019-10-04T14:15:15.000Z</Time>
            <Position>
              <LatitudeDegrees>43.03943571634590625762939453125</LatitudeDegrees>
              <LongitudeDegrees>-5.77776295132935047149658203125</LongitudeDegrees>
            </Position>
            <AltitudeMeters>833.4000244140625</AltitudeMeters>
            <DistanceMeters>NAN</DistanceMeters>
          </Trackpoint>
          <Trackpoint>
            <Time>2019-10-04T14:15:17.000Z</Time>
            <Position>
              <LatitudeDegrees>43.0394140072166919708251953125</LatitudeDegrees>
              <LongitudeDegrees>-5.77771685086190700531005859375</LongitudeDegrees>
            </Position>
            <AltitudeMeters>834</AltitudeMeters>
            <DistanceMeters>NAN</DistanceMeters>
          </Trackpoint>
          <Trackpoint>
            <Time>2019-10-04T14:15:22.000Z</Time>
            <Position>
              <LatitudeDegrees>43.03937167860567569732666015625</LatitudeDegrees>
              <LongitudeDegrees>-5.77759598381817340850830078125</LongitudeDegrees>
            </Position>
            <AltitudeMeters>834.5999755859375</AltitudeMeters>
            <DistanceMeters>NAN</DistanceMeters>
          </Trackpoint>
          <Trackpoint>
            <Time>2019-10-04T14:15:28.000Z</Time>
            <Position>
              <LatitudeDegrees>43.039321638643741607666015625</LatitudeDegrees>
              <LongitudeDegrees>-5.77745047397911548614501953125</LongitudeDegrees>
            </Position>
            <AltitudeMeters>835.79998779296875</AltitudeMeters>
            <DistanceMeters>NAN</DistanceMeters>
          </Trackpoint>
          <Trackpoint>
            <Time>2019-10-04T14:15:29.000Z</Time>
            <Position>
              <LatitudeDegrees>43.03931392729282379150390625</LatitudeDegrees>
              <LongitudeDegrees>-5.77742516063153743743896484375</LongitudeDegrees>
            </Position>
            <AltitudeMeters>836</AltitudeMeters>
            <DistanceMeters>NAN</DistanceMeters>
          </Trackpoint>
          <Trackpoint>
            <Time>2019-10-04T14:15:36.000Z</Time>
            <Position>
              <LatitudeDegrees>43.03926137275993824005126953125</LatitudeDegrees>
              <LongitudeDegrees>-5.77724729664623737335205078125</LongitudeDegrees>
            </Position>
            <AltitudeMeters>836.79998779296875</AltitudeMeters>
            <DistanceMeters>NAN</DistanceMeters>
          </Trackpoint>
          <Trackpoint>
            <Time>2019-10-04T14:15:37.000Z</Time>
            <Position>
              <LatitudeDegrees>43.03925517015159130096435546875</LatitudeDegrees>
              <LongitudeDegrees>-5.777223408222198486328125</LongitudeDegrees>
            </Position>
            <AltitudeMeters>837.20001220703125</AltitudeMeters>
            <DistanceMeters>NAN</DistanceMeters>
          </Trackpoint>
          <Trackpoint>
            <Time>2019-10-04T14:15:41.000Z</Time>
            <Position>
              <LatitudeDegrees>43.0392245762050151824951171875</LatitudeDegrees>
              <LongitudeDegrees>-5.777123160660266876220703125</LongitudeDegrees>
            </Position>
            <AltitudeMeters>838</AltitudeMeters>
            <DistanceMeters>NAN</DistanceMeters>
          </Trackpoint>
          <Trackpoint>
            <Time>2019-10-04T14:15:46.000Z</Time>
            <Position>
              <LatitudeDegrees>43.03918878547847270965576171875</LatitudeDegrees>
              <LongitudeDegrees>-5.77700623311102390289306640625</LongitudeDegrees>
            </Position>
            <AltitudeMeters>838.4000244140625</AltitudeMeters>
            <DistanceMeters>NAN</DistanceMeters>
          </Trackpoint>
          <Trackpoint>
            <Time>2019-10-04T14:15:48.000Z</Time>
            <Position>
              <LatitudeDegrees>43.0391739495098590850830078125</LatitudeDegrees>
              <LongitudeDegrees>-5.7769533433020114898681640625</LongitudeDegrees>
            </Position>
            <AltitudeMeters>839</AltitudeMeters>
            <DistanceMeters>NAN</DistanceMeters>
          </Trackpoint>
          <Trackpoint>
            <Time>2019-10-04T14:15:54.000Z</Time>
            <Position>
              <LatitudeDegrees>43.0391246639192104339599609375</LatitudeDegrees>
              <LongitudeDegrees>-5.7768048159778118133544921875</LongitudeDegrees>
            </Position>
            <AltitudeMeters>839.5999755859375</AltitudeMeters>
            <DistanceMeters>NAN</DistanceMeters>
          </Trackpoint>
          <Trackpoint>
            <Time>2019-10-04T14:15:57.000Z</Time>
            <Position>
              <LatitudeDegrees>43.03909926675260066986083984375</LatitudeDegrees>
              <LongitudeDegrees>-5.7767287082970142364501953125</LongitudeDegrees>
            </Position>
            <AltitudeMeters>840.20001220703125</AltitudeMeters>
            <DistanceMeters>NAN</DistanceMeters>
          </Trackpoint>
          <Trackpoint>
            <Time>2019-10-04T14:16:01.000Z</Time>
            <Position>
              <LatitudeDegrees>43.03907412104308605194091796875</LatitudeDegrees>
              <LongitudeDegrees>-5.776622258126735687255859375</LongitudeDegrees>
            </Position>
            <AltitudeMeters>840.79998779296875</AltitudeMeters>
            <DistanceMeters>NAN</DistanceMeters>
          </Trackpoint>
          <Trackpoint>
            <Time>2019-10-04T14:16:03.000Z</Time>
            <Position>
              <LatitudeDegrees>43.039061464369297027587890625</LatitudeDegrees>
              <LongitudeDegrees>-5.77657154761254787445068359375</LongitudeDegrees>
            </Position>
            <AltitudeMeters>841.4000244140625</AltitudeMeters>
            <DistanceMeters>NAN</DistanceMeters>
          </Trackpoint>
          <Trackpoint>
            <Time>2019-10-04T14:16:08.000Z</Time>
            <Position>
              <LatitudeDegrees>43.0390240810811519622802734375</LatitudeDegrees>
              <LongitudeDegrees>-5.77645562589168548583984375</LongitudeDegrees>
            </Position>
            <AltitudeMeters>842</AltitudeMeters>
            <DistanceMeters>NAN</DistanceMeters>
          </Trackpoint>
          <Trackpoint>
            <Time>2019-10-04T14:16:10.000Z</Time>
            <Position>
              <LatitudeDegrees>43.03899784572422504425048828125</LatitudeDegrees>
              <LongitudeDegrees>-5.7764135487377643585205078125</LongitudeDegrees>
            </Position>
            <AltitudeMeters>842.4000244140625</AltitudeMeters>
            <DistanceMeters>NAN</DistanceMeters>
          </Trackpoint>
          <Trackpoint>
            <Time>2019-10-04T14:16:16.000Z</Time>
            <Position>
              <LatitudeDegrees>43.03893037140369415283203125</LatitudeDegrees>
              <LongitudeDegrees>-5.77628421597182750701904296875</LongitudeDegrees>
            </Position>
            <AltitudeMeters>842.79998779296875</AltitudeMeters>
            <DistanceMeters>NAN</DistanceMeters>
          </Trackpoint>
          <Trackpoint>
            <Time>2019-10-04T14:16:19.000Z</Time>
            <Position>
              <LatitudeDegrees>43.03889575414359569549560546875</LatitudeDegrees>
              <LongitudeDegrees>-5.7762566395103931427001953125</LongitudeDegrees>
            </Position>
            <AltitudeMeters>843.5999755859375</AltitudeMeters>
            <DistanceMeters>NAN</DistanceMeters>
          </Trackpoint>
          <Trackpoint>
            <Time>2019-10-04T14:16:21.000Z</Time>
            <Position>
              <LatitudeDegrees>43.03885937668383121490478515625</LatitudeDegrees>
              <LongitudeDegrees>-5.77623794786632061004638671875</LongitudeDegrees>
            </Position>
            <AltitudeMeters>843.5999755859375</AltitudeMeters>
            <DistanceMeters>NAN</DistanceMeters>
          </Trackpoint>
          <Trackpoint>
            <Time>2019-10-04T14:16:27.000Z</Time>
            <Position>
              <LatitudeDegrees>43.038717471063137054443359375</LatitudeDegrees>
              <LongitudeDegrees>-5.77623811550438404083251953125</LongitudeDegrees>
            </Position>
            <AltitudeMeters>844.5999755859375</AltitudeMeters>
            <DistanceMeters>NAN</DistanceMeters>
          </Trackpoint>
          <Trackpoint>
            <Time>2019-10-04T14:16:35.000Z</Time>
            <Position>
              <LatitudeDegrees>43.038567602634429931640625</LatitudeDegrees>
              <LongitudeDegrees>-5.77637708745896816253662109375</LongitudeDegrees>
            </Position>
            <AltitudeMeters>845.20001220703125</AltitudeMeters>
            <DistanceMeters>NAN</DistanceMeters>
          </Trackpoint>
          <Trackpoint>
            <Time>2019-10-04T14:16:37.000Z</Time>
            <Position>
              <LatitudeDegrees>43.03854606114327907562255859375</LatitudeDegrees>
              <LongitudeDegrees>-5.77642654068768024444580078125</LongitudeDegrees>
            </Position>
            <AltitudeMeters>845.5999755859375</AltitudeMeters>
            <DistanceMeters>NAN</DistanceMeters>
          </Trackpoint>
          <Trackpoint>
            <Time>2019-10-04T14:16:41.000Z</Time>
            <Position>
              <LatitudeDegrees>43.03849811665713787078857421875</LatitudeDegrees>
              <LongitudeDegrees>-5.7765231840312480926513671875</LongitudeDegrees>
            </Position>
            <AltitudeMeters>846.79998779296875</AltitudeMeters>
            <DistanceMeters>NAN</DistanceMeters>
          </Trackpoint>
          <Trackpoint>
            <Time>2019-10-04T14:16:42.000Z</Time>
            <Position>
              <LatitudeDegrees>43.0384857952594757080078125</LatitudeDegrees>
              <LongitudeDegrees>-5.77654606662690639495849609375</LongitudeDegrees>
            </Position>
            <AltitudeMeters>846.79998779296875</AltitudeMeters>
            <DistanceMeters>NAN</DistanceMeters>
          </Trackpoint>
          <Trackpoint>
            <Time>2019-10-04T14:16:47.000Z</Time>
            <Position>
              <LatitudeDegrees>43.0384269542992115020751953125</LatitudeDegrees>
              <LongitudeDegrees>-5.776653774082660675048828125</LongitudeDegrees>
            </Position>
            <AltitudeMeters>847.79998779296875</AltitudeMeters>
            <DistanceMeters>NAN</DistanceMeters>
          </Trackpoint>
          <Trackpoint>
            <Time>2019-10-04T14:16:51.000Z</Time>
            <Position>
              <LatitudeDegrees>43.0383816920220851898193359375</LatitudeDegrees>
              <LongitudeDegrees>-5.7767380960285663604736328125</LongitudeDegrees>
            </Position>
            <AltitudeMeters>848.5999755859375</AltitudeMeters>
            <DistanceMeters>NAN</DistanceMeters>
          </Trackpoint>
          <Trackpoint>
            <Time>2019-10-04T14:16:52.000Z</Time>
            <Position>
              <LatitudeDegrees>43.03836987353861331939697265625</LatitudeDegrees>
              <LongitudeDegrees>-5.77676030807197093963623046875</LongitudeDegrees>
            </Position>
            <AltitudeMeters>849</AltitudeMeters>
            <DistanceMeters>NAN</DistanceMeters>
          </Trackpoint>
          <Trackpoint>
            <Time>2019-10-04T14:16:58.000Z</Time>
            <Position>
              <LatitudeDegrees>43.038288652896881103515625</LatitudeDegrees>
              <LongitudeDegrees>-5.77686206437647342681884765625</LongitudeDegrees>
            </Position>
            <AltitudeMeters>849.79998779296875</AltitudeMeters>
            <DistanceMeters>NAN</DistanceMeters>
          </Trackpoint>
          <Trackpoint>
            <Time>2019-10-04T14:17:01.000Z</Time>
            <Position>
              <LatitudeDegrees>43.0382470786571502685546875</LatitudeDegrees>
              <LongitudeDegrees>-5.7769082486629486083984375</LongitudeDegrees>
            </Position>
            <AltitudeMeters>850.20001220703125</AltitudeMeters>
            <DistanceMeters>NAN</DistanceMeters>
          </Trackpoint>
          <Trackpoint>
            <Time>2019-10-04T14:17:07.000Z</Time>
            <Position>
              <LatitudeDegrees>43.0381681211292743682861328125</LatitudeDegrees>
              <LongitudeDegrees>-5.77699550427496433258056640625</LongitudeDegrees>
            </Position>
            <AltitudeMeters>851.4000244140625</AltitudeMeters>
            <DistanceMeters>NAN</DistanceMeters>
          </Trackpoint>
          <Trackpoint>
            <Time>2019-10-04T14:17:08.000Z</Time>
            <Position>
              <LatitudeDegrees>43.03815546445548534393310546875</LatitudeDegrees>
              <LongitudeDegrees>-5.77701151371002197265625</LongitudeDegrees>
            </Position>
            <AltitudeMeters>851.4000244140625</AltitudeMeters>
            <DistanceMeters>NAN</DistanceMeters>
          </Trackpoint>
          <Trackpoint>
            <Time>2019-10-04T14:17:14.000Z</Time>
            <Position>
              <LatitudeDegrees>43.03806996904313564300537109375</LatitudeDegrees>
              <LongitudeDegrees>-5.7770941592752933502197265625</LongitudeDegrees>
            </Position>
            <AltitudeMeters>852.4000244140625</AltitudeMeters>
            <DistanceMeters>NAN</DistanceMeters>
          </Trackpoint>
          <Trackpoint>
            <Time>2019-10-04T14:17:17.000Z</Time>
            <Position>
              <LatitudeDegrees>43.03803023882210254669189453125</LatitudeDegrees>
              <LongitudeDegrees>-5.77713782899081707000732421875</LongitudeDegrees>
            </Position>
            <AltitudeMeters>853</AltitudeMeters>
            <DistanceMeters>NAN</DistanceMeters>
          </Trackpoint>
          <Trackpoint>
            <Time>2019-10-04T14:17:20.000Z</Time>
            <Position>
              <LatitudeDegrees>43.03798933513462543487548828125</LatitudeDegrees>
              <LongitudeDegrees>-5.7771699316799640655517578125</LongitudeDegrees>
            </Position>
            <AltitudeMeters>853.79998779296875</AltitudeMeters>
            <DistanceMeters>NAN</DistanceMeters>
          </Trackpoint>
          <Trackpoint>
            <Time>2019-10-04T14:17:25.000Z</Time>
            <Position>
              <LatitudeDegrees>43.0379062704741954803466796875</LatitudeDegrees>
              <LongitudeDegrees>-5.7772001065313816070556640625</LongitudeDegrees>
            </Position>
            <AltitudeMeters>854.5999755859375</AltitudeMeters>
            <DistanceMeters>NAN</DistanceMeters>
          </Trackpoint>
          <Trackpoint>
            <Time>2019-10-04T14:17:26.000Z</Time>
            <Position>
              <LatitudeDegrees>43.0378888361155986785888671875</LatitudeDegrees>
              <LongitudeDegrees>-5.77720153145492076873779296875</LongitudeDegrees>
            </Position>
            <AltitudeMeters>854.79998779296875</AltitudeMeters>
            <DistanceMeters>NAN</DistanceMeters>
          </Trackpoint>
          <Trackpoint>
            <Time>2019-10-04T14:17:32.000Z</Time>
            <Position>
              <LatitudeDegrees>43.0377889238297939300537109375</LatitudeDegrees>
              <LongitudeDegrees>-5.77721527777612209320068359375</LongitudeDegrees>
            </Position>
            <AltitudeMeters>856</AltitudeMeters>
            <DistanceMeters>NAN</DistanceMeters>
          </Trackpoint>
          <Trackpoint>
            <Time>2019-10-04T14:17:38.000Z</Time>
            <Position>
              <LatitudeDegrees>43.03768238984048366546630859375</LatitudeDegrees>
              <LongitudeDegrees>-5.777253247797489166259765625</LongitudeDegrees>
            </Position>
            <AltitudeMeters>857</AltitudeMeters>
            <DistanceMeters>NAN</DistanceMeters>
          </Trackpoint>
          <Trackpoint>
            <Time>2019-10-04T14:17:47.000Z</Time>
            <Position>
              <LatitudeDegrees>43.0375233851373195648193359375</LatitudeDegrees>
              <LongitudeDegrees>-5.77730496414005756378173828125</LongitudeDegrees>
            </Position>
            <AltitudeMeters>858.20001220703125</AltitudeMeters>
            <DistanceMeters>NAN</DistanceMeters>
          </Trackpoint>
          <Trackpoint>
            <Time>2019-10-04T14:17:55.000Z</Time>
            <Position>
              <LatitudeDegrees>43.037378378212451934814453125</LatitudeDegrees>
              <LongitudeDegrees>-5.77735022641718387603759765625</LongitudeDegrees>
            </Position>
            <AltitudeMeters>859.20001220703125</AltitudeMeters>
            <DistanceMeters>NAN</DistanceMeters>
          </Trackpoint>
          <Trackpoint>
            <Time>2019-10-04T14:17:56.000Z</Time>
            <Position>
              <LatitudeDegrees>43.03735784254968166351318359375</LatitudeDegrees>
              <LongitudeDegrees>-5.7773563452064990997314453125</LongitudeDegrees>
            </Position>
            <AltitudeMeters>859.4000244140625</AltitudeMeters>
            <DistanceMeters>NAN</DistanceMeters>
          </Trackpoint>
          <Trackpoint>
            <Time>2019-10-04T14:18:00.000Z</Time>
            <Position>
              <LatitudeDegrees>43.037296235561370849609375</LatitudeDegrees>
              <LongitudeDegrees>-5.77738861553370952606201171875</LongitudeDegrees>
            </Position>
            <AltitudeMeters>860.4000244140625</AltitudeMeters>
            <DistanceMeters>NAN</DistanceMeters>
          </Trackpoint>
          <Trackpoint>
            <Time>2019-10-04T14:18:03.000Z</Time>
            <Position>
              <LatitudeDegrees>43.037242926657199859619140625</LatitudeDegrees>
              <LongitudeDegrees>-5.77740068547427654266357421875</LongitudeDegrees>
            </Position>
            <AltitudeMeters>860.79998779296875</AltitudeMeters>
            <DistanceMeters>NAN</DistanceMeters>
          </Trackpoint>
          <Trackpoint>
            <Time>2019-10-04T14:18:08.000Z</Time>
            <Position>
              <LatitudeDegrees>43.03715877234935760498046875</LatitudeDegrees>
              <LongitudeDegrees>-5.77742549590766429901123046875</LongitudeDegrees>
            </Position>
            <AltitudeMeters>861.5999755859375</AltitudeMeters>
            <DistanceMeters>NAN</DistanceMeters>
          </Trackpoint>
          <Trackpoint>
            <Time>2019-10-04T14:18:11.000Z</Time>
            <Position>
              <LatitudeDegrees>43.0371099896728992462158203125</LatitudeDegrees>
              <LongitudeDegrees>-5.7774374820291996002197265625</LongitudeDegrees>
            </Position>
            <AltitudeMeters>862.5999755859375</AltitudeMeters>
            <DistanceMeters>NAN</DistanceMeters>
          </Trackpoint>
          <Trackpoint>
            <Time>2019-10-04T14:18:12.000Z</Time>
            <Position>
              <LatitudeDegrees>43.03709263913333415985107421875</LatitudeDegrees>
              <LongitudeDegrees>-5.77743873931467533111572265625</LongitudeDegrees>
            </Position>
            <AltitudeMeters>862.79998779296875</AltitudeMeters>
            <DistanceMeters>NAN</DistanceMeters>
          </Trackpoint>
          <Trackpoint>
            <Time>2019-10-04T14:18:18.000Z</Time>
            <Position>
              <LatitudeDegrees>43.03699205629527568817138671875</LatitudeDegrees>
              <LongitudeDegrees>-5.7774535752832889556884765625</LongitudeDegrees>
            </Position>
            <AltitudeMeters>863.5999755859375</AltitudeMeters>
            <DistanceMeters>NAN</DistanceMeters>
          </Trackpoint>
          <Trackpoint>
            <Time>2019-10-04T14:18:21.000Z</Time>
            <Position>
              <LatitudeDegrees>43.03694813512265682220458984375</LatitudeDegrees>
              <LongitudeDegrees>-5.77747260220348834991455078125</LongitudeDegrees>
            </Position>
            <AltitudeMeters>864.20001220703125</AltitudeMeters>
            <DistanceMeters>NAN</DistanceMeters>
          </Trackpoint>
          <Trackpoint>
            <Time>2019-10-04T14:18:23.000Z</Time>
            <Position>
              <LatitudeDegrees>43.03691812790930271148681640625</LatitudeDegrees>
              <LongitudeDegrees>-5.7774860970675945281982421875</LongitudeDegrees>
            </Position>
            <AltitudeMeters>864.79998779296875</AltitudeMeters>
            <DistanceMeters>NAN</DistanceMeters>
          </Trackpoint>
          <Trackpoint>
            <Time>2019-10-04T14:18:29.000Z</Time>
            <Position>
              <LatitudeDegrees>43.0368219874799251556396484375</LatitudeDegrees>
              <LongitudeDegrees>-5.7775048725306987762451171875</LongitudeDegrees>
            </Position>
            <AltitudeMeters>865.79998779296875</AltitudeMeters>
            <DistanceMeters>NAN</DistanceMeters>
          </Trackpoint>
          <Trackpoint>
            <Time>2019-10-04T14:18:30.000Z</Time>
            <Position>
              <LatitudeDegrees>43.03680581040680408477783203125</LatitudeDegrees>
              <LongitudeDegrees>-5.777508728206157684326171875</LongitudeDegrees>
            </Position>
            <AltitudeMeters>865.79998779296875</AltitudeMeters>
            <DistanceMeters>NAN</DistanceMeters>
          </Trackpoint>
          <Trackpoint>
            <Time>2019-10-04T14:18:35.000Z</Time>
            <Position>
              <LatitudeDegrees>43.03672182373702526092529296875</LatitudeDegrees>
              <LongitudeDegrees>-5.7775052078068256378173828125</LongitudeDegrees>
            </Position>
            <AltitudeMeters>867</AltitudeMeters>
            <DistanceMeters>NAN</DistanceMeters>
          </Trackpoint>
          <Trackpoint>
            <Time>2019-10-04T14:18:39.000Z</Time>
            <Position>
              <LatitudeDegrees>43.03664588369429111480712890625</LatitudeDegrees>
              <LongitudeDegrees>-5.7775025255978107452392578125</LongitudeDegrees>
            </Position>
            <AltitudeMeters>867</AltitudeMeters>
            <DistanceMeters>NAN</DistanceMeters>
          </Trackpoint>
          <Trackpoint>
            <Time>2019-10-04T14:18:43.000Z</Time>
            <Position>
              <LatitudeDegrees>43.03658075630664825439453125</LatitudeDegrees>
              <LongitudeDegrees>-5.7775142602622509002685546875</LongitudeDegrees>
            </Position>
            <AltitudeMeters>868</AltitudeMeters>
            <DistanceMeters>NAN</DistanceMeters>
          </Trackpoint>
          <Trackpoint>
            <Time>2019-10-04T14:18:47.000Z</Time>
            <Position>
              <LatitudeDegrees>43.03651914931833744049072265625</LatitudeDegrees>
              <LongitudeDegrees>-5.7775467820465564727783203125</LongitudeDegrees>
            </Position>
            <AltitudeMeters>868.79998779296875</AltitudeMeters>
            <DistanceMeters>NAN</DistanceMeters>
          </Trackpoint>
          <Trackpoint>
            <Time>2019-10-04T14:18:49.000Z</Time>
            <Position>
              <LatitudeDegrees>43.0364873819053173065185546875</LatitudeDegrees>
              <LongitudeDegrees>-5.777563713490962982177734375</LongitudeDegrees>
            </Position>
            <AltitudeMeters>869</AltitudeMeters>
            <DistanceMeters>NAN</DistanceMeters>
          </Trackpoint>
          <Trackpoint>
            <Time>2019-10-04T14:18:55.000Z</Time>
            <Position>
              <LatitudeDegrees>43.03640817292034626007080078125</LatitudeDegrees>
              <LongitudeDegrees>-5.77763772569596767425537109375</LongitudeDegrees>
            </Position>
            <AltitudeMeters>870</AltitudeMeters>
            <DistanceMeters>NAN</DistanceMeters>
          </Trackpoint>
          <Trackpoint>
            <Time>2019-10-04T14:18:59.000Z</Time>
            <Position>
              <LatitudeDegrees>43.036362491548061370849609375</LatitudeDegrees>
              <LongitudeDegrees>-5.777686424553394317626953125</LongitudeDegrees>
            </Position>
            <AltitudeMeters>871</AltitudeMeters>
            <DistanceMeters>NAN</DistanceMeters>
          </Trackpoint>
          <Trackpoint>
            <Time>2019-10-04T14:19:01.000Z</Time>
            <Position>
              <LatitudeDegrees>43.0363412015140056610107421875</LatitudeDegrees>
              <LongitudeDegrees>-5.777717940509319305419921875</LongitudeDegrees>
            </Position>
            <AltitudeMeters>871.79998779296875</AltitudeMeters>
            <DistanceMeters>NAN</DistanceMeters>
          </Trackpoint>
          <Trackpoint>
            <Time>2019-10-04T14:19:05.000Z</Time>
            <Position>
              <LatitudeDegrees>43.03630960173904895782470703125</LatitudeDegrees>
              <LongitudeDegrees>-5.77776513062417507171630859375</LongitudeDegrees>
            </Position>
            <AltitudeMeters>872.20001220703125</AltitudeMeters>
            <DistanceMeters>NAN</DistanceMeters>
          </Trackpoint>
          <Trackpoint>
            <Time>2019-10-04T14:19:07.000Z</Time>
            <Position>
              <LatitudeDegrees>43.03629535250365734100341796875</LatitudeDegrees>
              <LongitudeDegrees>-5.77779270708560943603515625</LongitudeDegrees>
            </Position>
            <AltitudeMeters>872.5999755859375</AltitudeMeters>
            <DistanceMeters>NAN</DistanceMeters>
          </Trackpoint>
          <Trackpoint>
            <Time>2019-10-04T14:19:08.000Z</Time>
            <Position>
              <LatitudeDegrees>43.0362868867814540863037109375</LatitudeDegrees>
              <LongitudeDegrees>-5.7778032682836055755615234375</LongitudeDegrees>
            </Position>
            <AltitudeMeters>873</AltitudeMeters>
            <DistanceMeters>NAN</DistanceMeters>
          </Trackpoint>
          <Trackpoint>
            <Time>2019-10-04T14:19:10.000Z</Time>
            <Position>
              <LatitudeDegrees>43.03627431392669677734375</LatitudeDegrees>
              <LongitudeDegrees>-5.77783637680113315582275390625</LongitudeDegrees>
            </Position>
            <AltitudeMeters>873.20001220703125</AltitudeMeters>
            <DistanceMeters>NAN</DistanceMeters>
          </Trackpoint>
          <Trackpoint>
            <Time>2019-10-04T14:19:14.000Z</Time>
            <Position>
              <LatitudeDegrees>43.036265932023525238037109375</LatitudeDegrees>
              <LongitudeDegrees>-5.77791835181415081024169921875</LongitudeDegrees>
            </Position>
            <AltitudeMeters>874</AltitudeMeters>
            <DistanceMeters>NAN</DistanceMeters>
          </Trackpoint>
          <Trackpoint>
            <Time>2019-10-04T14:19:16.000Z</Time>
            <Position>
              <LatitudeDegrees>43.03626962006092071533203125</LatitudeDegrees>
              <LongitudeDegrees>-5.77795757912099361419677734375</LongitudeDegrees>
            </Position>
            <AltitudeMeters>874.79998779296875</AltitudeMeters>
            <DistanceMeters>NAN</DistanceMeters>
          </Trackpoint>
          <Trackpoint>
            <Time>2019-10-04T14:19:18.000Z</Time>
            <Position>
              <LatitudeDegrees>43.03627288900315761566162109375</LatitudeDegrees>
              <LongitudeDegrees>-5.77799923717975616455078125</LongitudeDegrees>
            </Position>
            <AltitudeMeters>874.79998779296875</AltitudeMeters>
            <DistanceMeters>NAN</DistanceMeters>
          </Trackpoint>
          <Trackpoint>
            <Time>2019-10-04T14:19:22.000Z</Time>
            <Position>
              <LatitudeDegrees>43.036289401352405548095703125</LatitudeDegrees>
              <LongitudeDegrees>-5.77807978726923465728759765625</LongitudeDegrees>
            </Position>
            <AltitudeMeters>875.5999755859375</AltitudeMeters>
            <DistanceMeters>NAN</DistanceMeters>
          </Trackpoint>
          <Trackpoint>
            <Time>2019-10-04T14:19:24.000Z</Time>
            <Position>
              <LatitudeDegrees>43.03629778325557708740234375</LatitudeDegrees>
              <LongitudeDegrees>-5.7781207747757434844970703125</LongitudeDegrees>
            </Position>
            <AltitudeMeters>876</AltitudeMeters>
            <DistanceMeters>NAN</DistanceMeters>
          </Trackpoint>
          <Trackpoint>
            <Time>2019-10-04T14:19:29.000Z</Time>
            <Position>
              <LatitudeDegrees>43.0363291315734386444091796875</LatitudeDegrees>
              <LongitudeDegrees>-5.7782146520912647247314453125</LongitudeDegrees>
            </Position>
            <AltitudeMeters>877</AltitudeMeters>
            <DistanceMeters>NAN</DistanceMeters>
          </Trackpoint>
          <Trackpoint>
            <Time>2019-10-04T14:19:31.000Z</Time>
            <Position>
              <LatitudeDegrees>43.036344386637210845947265625</LatitudeDegrees>
              <LongitudeDegrees>-5.77824893407523632049560546875</LongitudeDegrees>
            </Position>
            <AltitudeMeters>877.4000244140625</AltitudeMeters>
            <DistanceMeters>NAN</DistanceMeters>
          </Trackpoint>
          <Trackpoint>
            <Time>2019-10-04T14:19:37.000Z</Time>
            <Position>
              <LatitudeDegrees>43.036383278667926788330078125</LatitudeDegrees>
              <LongitudeDegrees>-5.778371393680572509765625</LongitudeDegrees>
            </Position>
            <AltitudeMeters>878.20001220703125</AltitudeMeters>
            <DistanceMeters>NAN</DistanceMeters>
          </Trackpoint>
          <Trackpoint>
            <Time>2019-10-04T14:19:41.000Z</Time>
            <Position>
              <LatitudeDegrees>43.0364124476909637451171875</LatitudeDegrees>
              <LongitudeDegrees>-5.77845378778874874114990234375</LongitudeDegrees>
            </Position>
            <AltitudeMeters>879.20001220703125</AltitudeMeters>
            <DistanceMeters>NAN</DistanceMeters>
          </Trackpoint>
          <Trackpoint>
            <Time>2019-10-04T14:19:48.000Z</Time>
            <Position>
              <LatitudeDegrees>43.0364689417183399200439453125</LatitudeDegrees>
              <LongitudeDegrees>-5.77859929762780666351318359375</LongitudeDegrees>
            </Position>
            <AltitudeMeters>880.20001220703125</AltitudeMeters>
            <DistanceMeters>NAN</DistanceMeters>
          </Trackpoint>
          <Trackpoint>
            <Time>2019-10-04T14:19:51.000Z</Time>
            <Position>
              <LatitudeDegrees>43.03649484179913997650146484375</LatitudeDegrees>
              <LongitudeDegrees>-5.77865947969257831573486328125</LongitudeDegrees>
            </Position>
            <AltitudeMeters>880.5999755859375</AltitudeMeters>
            <DistanceMeters>NAN</DistanceMeters>
          </Trackpoint>
          <Trackpoint>
            <Time>2019-10-04T14:19:55.000Z</Time>
            <Position>
              <LatitudeDegrees>43.03652736358344554901123046875</LatitudeDegrees>
              <LongitudeDegrees>-5.77873676083981990814208984375</LongitudeDegrees>
            </Position>
            <AltitudeMeters>881.4000244140625</AltitudeMeters>
            <DistanceMeters>NAN</DistanceMeters>
          </Trackpoint>
          <Trackpoint>
            <Time>2019-10-04T14:19:58.000Z</Time>
            <Position>
              <LatitudeDegrees>43.0365447141230106353759765625</LatitudeDegrees>
              <LongitudeDegrees>-5.77879275195300579071044921875</LongitudeDegrees>
            </Position>
            <AltitudeMeters>882</AltitudeMeters>
            <DistanceMeters>NAN</DistanceMeters>
          </Trackpoint>
          <Trackpoint>
            <Time>2019-10-04T14:20:00.000Z</Time>
            <Position>
              <LatitudeDegrees>43.036558628082275390625</LatitudeDegrees>
              <LongitudeDegrees>-5.7788288779556751251220703125</LongitudeDegrees>
            </Position>
            <AltitudeMeters>882.20001220703125</AltitudeMeters>
            <DistanceMeters>NAN</DistanceMeters>
          </Trackpoint>
          <Trackpoint>
            <Time>2019-10-04T14:20:02.000Z</Time>
            <Position>
              <LatitudeDegrees>43.0365732125937938690185546875</LatitudeDegrees>
              <LongitudeDegrees>-5.7788701169192790985107421875</LongitudeDegrees>
            </Position>
            <AltitudeMeters>882.5999755859375</AltitudeMeters>
            <DistanceMeters>NAN</DistanceMeters>
          </Trackpoint>
          <Trackpoint>
            <Time>2019-10-04T14:20:06.000Z</Time>
            <Position>
              <LatitudeDegrees>43.0365926586091518402099609375</LatitudeDegrees>
              <LongitudeDegrees>-5.7789552770555019378662109375</LongitudeDegrees>
            </Position>
            <AltitudeMeters>883.4000244140625</AltitudeMeters>
            <DistanceMeters>NAN</DistanceMeters>
          </Trackpoint>
          <Trackpoint>
            <Time>2019-10-04T14:20:07.000Z</Time>
            <Position>
              <LatitudeDegrees>43.03659525699913501739501953125</LatitudeDegrees>
              <LongitudeDegrees>-5.77897866256535053253173828125</LongitudeDegrees>
            </Position>
            <AltitudeMeters>883.5999755859375</AltitudeMeters>
            <DistanceMeters>NAN</DistanceMeters>
          </Trackpoint>
          <Trackpoint>
            <Time>2019-10-04T14:20:12.000Z</Time>
            <Position>
              <LatitudeDegrees>43.0365906469523906707763671875</LatitudeDegrees>
              <LongitudeDegrees>-5.7790900580585002899169921875</LongitudeDegrees>
            </Position>
            <AltitudeMeters>884.5999755859375</AltitudeMeters>
            <DistanceMeters>NAN</DistanceMeters>
          </Trackpoint>
          <Trackpoint>
            <Time>2019-10-04T14:20:14.000Z</Time>
            <Position>
              <LatitudeDegrees>43.03658721037209033966064453125</LatitudeDegrees>
              <LongitudeDegrees>-5.77913506887853145599365234375</LongitudeDegrees>
            </Position>
            <AltitudeMeters>885</AltitudeMeters>
            <DistanceMeters>NAN</DistanceMeters>
          </Trackpoint>
          <Trackpoint>
            <Time>2019-10-04T14:20:18.000Z</Time>
            <Position>
              <LatitudeDegrees>43.03658167831599712371826171875</LatitudeDegrees>
              <LongitudeDegrees>-5.779228024184703826904296875</LongitudeDegrees>
            </Position>
            <AltitudeMeters>885.5999755859375</AltitudeMeters>
            <DistanceMeters>NAN</DistanceMeters>
          </Trackpoint>
          <Trackpoint>
            <Time>2019-10-04T14:20:22.000Z</Time>
            <Position>
              <LatitudeDegrees>43.0365519225597381591796875</LatitudeDegrees>
              <LongitudeDegrees>-5.77931947074830532073974609375</LongitudeDegrees>
            </Position>
            <AltitudeMeters>886.20001220703125</AltitudeMeters>
            <DistanceMeters>NAN</DistanceMeters>
          </Trackpoint>
          <Trackpoint>
            <Time>2019-10-04T14:20:25.000Z</Time>
            <Position>
              <LatitudeDegrees>43.03651177324354648590087890625</LatitudeDegrees>
              <LongitudeDegrees>-5.779378898441791534423828125</LongitudeDegrees>
            </Position>
            <AltitudeMeters>886.5999755859375</AltitudeMeters>
            <DistanceMeters>NAN</DistanceMeters>
          </Trackpoint>
          <Trackpoint>
            <Time>2019-10-04T14:20:28.000Z</Time>
            <Position>
              <LatitudeDegrees>43.036460392177104949951171875</LatitudeDegrees>
              <LongitudeDegrees>-5.77943145297467708587646484375</LongitudeDegrees>
            </Position>
            <AltitudeMeters>887.20001220703125</AltitudeMeters>
            <DistanceMeters>NAN</DistanceMeters>
          </Trackpoint>
          <Trackpoint>
            <Time>2019-10-04T14:20:33.000Z</Time>
            <Position>
              <LatitudeDegrees>43.0363683588802814483642578125</LatitudeDegrees>
              <LongitudeDegrees>-5.77949733473360538482666015625</LongitudeDegrees>
            </Position>
            <AltitudeMeters>887.79998779296875</AltitudeMeters>
            <DistanceMeters>NAN</DistanceMeters>
          </Trackpoint>
          <Trackpoint>
            <Time>2019-10-04T14:20:37.000Z</Time>
            <Position>
              <LatitudeDegrees>43.03629216738045215606689453125</LatitudeDegrees>
              <LongitudeDegrees>-5.7795463688671588897705078125</LongitudeDegrees>
            </Position>
            <AltitudeMeters>888.20001220703125</AltitudeMeters>
            <DistanceMeters>NAN</DistanceMeters>
          </Trackpoint>
          <Trackpoint>
            <Time>2019-10-04T14:20:43.000Z</Time>
            <Position>
              <LatitudeDegrees>43.0361829511821269989013671875</LatitudeDegrees>
              <LongitudeDegrees>-5.7796221412718296051025390625</LongitudeDegrees>
            </Position>
            <AltitudeMeters>888.79998779296875</AltitudeMeters>
            <DistanceMeters>NAN</DistanceMeters>
          </Trackpoint>
          <Trackpoint>
            <Time>2019-10-04T14:20:48.000Z</Time>
            <Position>
              <LatitudeDegrees>43.03608899004757404327392578125</LatitudeDegrees>
              <LongitudeDegrees>-5.77967704273760318756103515625</LongitudeDegrees>
            </Position>
            <AltitudeMeters>889.20001220703125</AltitudeMeters>
            <DistanceMeters>NAN</DistanceMeters>
          </Trackpoint>
          <Trackpoint>
            <Time>2019-10-04T14:20:56.000Z</Time>
            <Position>
              <LatitudeDegrees>43.0359408818185329437255859375</LatitudeDegrees>
              <LongitudeDegrees>-5.77978600747883319854736328125</LongitudeDegrees>
            </Position>
            <AltitudeMeters>889.5999755859375</AltitudeMeters>
            <DistanceMeters>NAN</DistanceMeters>
          </Trackpoint>
          <Trackpoint>
            <Time>2019-10-04T14:20:57.000Z</Time>
            <Position>
              <LatitudeDegrees>43.03592235781252384185791015625</LatitudeDegrees>
              <LongitudeDegrees>-5.77980143018066883087158203125</LongitudeDegrees>
            </Position>
            <AltitudeMeters>890</AltitudeMeters>
            <DistanceMeters>NAN</DistanceMeters>
          </Trackpoint>
          <Trackpoint>
            <Time>2019-10-04T14:21:05.000Z</Time>
            <Position>
              <LatitudeDegrees>43.0357615090906620025634765625</LatitudeDegrees>
              <LongitudeDegrees>-5.779891200363636016845703125</LongitudeDegrees>
            </Position>
            <AltitudeMeters>891</AltitudeMeters>
            <DistanceMeters>NAN</DistanceMeters>
          </Trackpoint>
          <Trackpoint>
            <Time>2019-10-04T14:21:06.000Z</Time>
            <Position>
              <LatitudeDegrees>43.03573795594274997711181640625</LatitudeDegrees>
              <LongitudeDegrees>-5.779899246990680694580078125</LongitudeDegrees>
            </Position>
            <AltitudeMeters>891</AltitudeMeters>
            <DistanceMeters>NAN</DistanceMeters>
          </Trackpoint>
          <Trackpoint>
            <Time>2019-10-04T14:21:12.000Z</Time>
            <Position>
              <LatitudeDegrees>43.03561574779450893402099609375</LatitudeDegrees>
              <LongitudeDegrees>-5.77996269799768924713134765625</LongitudeDegrees>
            </Position>
            <AltitudeMeters>891.5999755859375</AltitudeMeters>
            <DistanceMeters>NAN</DistanceMeters>
          </Trackpoint>
          <Trackpoint>
            <Time>2019-10-04T14:21:19.000Z</Time>
            <Position>
              <LatitudeDegrees>43.03546135313808917999267578125</LatitudeDegrees>
              <LongitudeDegrees>-5.7800144143402576446533203125</LongitudeDegrees>
            </Position>
            <AltitudeMeters>892.20001220703125</AltitudeMeters>
            <DistanceMeters>NAN</DistanceMeters>
          </Trackpoint>
          <Trackpoint>
            <Time>2019-10-04T14:21:20.000Z</Time>
            <Position>
              <LatitudeDegrees>43.035440146923065185546875</LatitudeDegrees>
              <LongitudeDegrees>-5.78002371825277805328369140625</LongitudeDegrees>
            </Position>
            <AltitudeMeters>892.20001220703125</AltitudeMeters>
            <DistanceMeters>NAN</DistanceMeters>
          </Trackpoint>
          <Trackpoint>
            <Time>2019-10-04T14:21:28.000Z</Time>
            <Position>
              <LatitudeDegrees>43.035254068672657012939453125</LatitudeDegrees>
              <LongitudeDegrees>-5.78007719479501247406005859375</LongitudeDegrees>
            </Position>
            <AltitudeMeters>892.4000244140625</AltitudeMeters>
            <DistanceMeters>NAN</DistanceMeters>
          </Trackpoint>
          <Trackpoint>
            <Time>2019-10-04T14:21:31.000Z</Time>
            <Position>
              <LatitudeDegrees>43.0351878516376018524169921875</LatitudeDegrees>
              <LongitudeDegrees>-5.78009781427681446075439453125</LongitudeDegrees>
            </Position>
            <AltitudeMeters>893.20001220703125</AltitudeMeters>
            <DistanceMeters>NAN</DistanceMeters>
          </Trackpoint>
          <Trackpoint>
            <Time>2019-10-04T14:21:37.000Z</Time>
            <Position>
              <LatitudeDegrees>43.03505332209169864654541015625</LatitudeDegrees>
              <LongitudeDegrees>-5.78014391474425792694091796875</LongitudeDegrees>
            </Position>
            <AltitudeMeters>893.20001220703125</AltitudeMeters>
            <DistanceMeters>NAN</DistanceMeters>
          </Trackpoint>
          <Trackpoint>
            <Time>2019-10-04T14:21:47.000Z</Time>
            <Position>
              <LatitudeDegrees>43.03482265211641788482666015625</LatitudeDegrees>
              <LongitudeDegrees>-5.78022681176662445068359375</LongitudeDegrees>
            </Position>
            <AltitudeMeters>894</AltitudeMeters>
            <DistanceMeters>NAN</DistanceMeters>
          </Trackpoint>
          <Trackpoint>
            <Time>2019-10-04T14:21:49.000Z</Time>
            <Position>
              <LatitudeDegrees>43.034776635468006134033203125</LatitudeDegrees>
              <LongitudeDegrees>-5.78023226000368595123291015625</LongitudeDegrees>
            </Position>
            <AltitudeMeters>894.20001220703125</AltitudeMeters>
            <DistanceMeters>NAN</DistanceMeters>
          </Trackpoint>
          <Trackpoint>
            <Time>2019-10-04T14:21:53.000Z</Time>
            <Position>
              <LatitudeDegrees>43.03468736819922924041748046875</LatitudeDegrees>
              <LongitudeDegrees>-5.78026478178799152374267578125</LongitudeDegrees>
            </Position>
            <AltitudeMeters>894.5999755859375</AltitudeMeters>
            <DistanceMeters>NAN</DistanceMeters>
          </Trackpoint>
          <Trackpoint>
            <Time>2019-10-04T14:21:58.000Z</Time>
            <Position>
              <LatitudeDegrees>43.034568764269351959228515625</LatitudeDegrees>
              <LongitudeDegrees>-5.78029646538197994232177734375</LongitudeDegrees>
            </Position>
            <AltitudeMeters>894.79998779296875</AltitudeMeters>
            <DistanceMeters>NAN</DistanceMeters>
          </Trackpoint>
          <Trackpoint>
            <Time>2019-10-04T14:22:04.000Z</Time>
            <Position>
              <LatitudeDegrees>43.0344328097999095916748046875</LatitudeDegrees>
              <LongitudeDegrees>-5.78034172765910625457763671875</LongitudeDegrees>
            </Position>
            <AltitudeMeters>895.4000244140625</AltitudeMeters>
            <DistanceMeters>NAN</DistanceMeters>
          </Trackpoint>
          <Trackpoint>
            <Time>2019-10-04T14:22:07.000Z</Time>
            <Position>
              <LatitudeDegrees>43.034365586936473846435546875</LatitudeDegrees>
              <LongitudeDegrees>-5.78036804683506488800048828125</LongitudeDegrees>
            </Position>
            <AltitudeMeters>895.5999755859375</AltitudeMeters>
            <DistanceMeters>NAN</DistanceMeters>
          </Trackpoint>
          <Trackpoint>
            <Time>2019-10-04T14:22:10.000Z</Time>
            <Position>
              <LatitudeDegrees>43.034299202263355255126953125</LatitudeDegrees>
              <LongitudeDegrees>-5.780398137867450714111328125</LongitudeDegrees>
            </Position>
            <AltitudeMeters>895.4000244140625</AltitudeMeters>
            <DistanceMeters>NAN</DistanceMeters>
          </Trackpoint>
          <Trackpoint>
            <Time>2019-10-04T14:22:12.000Z</Time>
            <Position>
              <LatitudeDegrees>43.034259974956512451171875</LatitudeDegrees>
              <LongitudeDegrees>-5.78042185865342617034912109375</LongitudeDegrees>
            </Position>
            <AltitudeMeters>895.5999755859375</AltitudeMeters>
            <DistanceMeters>NAN</DistanceMeters>
          </Trackpoint>
          <Trackpoint>
            <Time>2019-10-04T14:22:20.000Z</Time>
            <Position>
              <LatitudeDegrees>43.0341032333672046661376953125</LatitudeDegrees>
              <LongitudeDegrees>-5.7805292308330535888671875</LongitudeDegrees>
            </Position>
            <AltitudeMeters>896.4000244140625</AltitudeMeters>
            <DistanceMeters>NAN</DistanceMeters>
          </Trackpoint>
          <Trackpoint>
            <Time>2019-10-04T14:22:24.000Z</Time>
            <Position>
              <LatitudeDegrees>43.03401597775518894195556640625</LatitudeDegrees>
              <LongitudeDegrees>-5.780583880841732025146484375</LongitudeDegrees>
            </Position>
            <AltitudeMeters>896.79998779296875</AltitudeMeters>
            <DistanceMeters>NAN</DistanceMeters>
          </Trackpoint>
          <Trackpoint>
            <Time>2019-10-04T14:22:30.000Z</Time>
            <Position>
              <LatitudeDegrees>43.0338906683027744293212890625</LatitudeDegrees>
              <LongitudeDegrees>-5.7806740701198577880859375</LongitudeDegrees>
            </Position>
            <AltitudeMeters>897.20001220703125</AltitudeMeters>
            <DistanceMeters>NAN</DistanceMeters>
          </Trackpoint>
          <Trackpoint>
            <Time>2019-10-04T14:22:36.000Z</Time>
            <Position>
              <LatitudeDegrees>43.033767454326152801513671875</LatitudeDegrees>
              <LongitudeDegrees>-5.780769288539886474609375</LongitudeDegrees>
            </Position>
            <AltitudeMeters>897.79998779296875</AltitudeMeters>
            <DistanceMeters>NAN</DistanceMeters>
          </Trackpoint>
          <Trackpoint>
            <Time>2019-10-04T14:22:44.000Z</Time>
            <Position>
              <LatitudeDegrees>43.033616244792938232421875</LatitudeDegrees>
              <LongitudeDegrees>-5.78091672621667385101318359375</LongitudeDegrees>
            </Position>
            <AltitudeMeters>898</AltitudeMeters>
            <DistanceMeters>NAN</DistanceMeters>
          </Trackpoint>
          <Trackpoint>
            <Time>2019-10-04T14:22:54.000Z</Time>
            <Position>
              <LatitudeDegrees>43.03340678103268146514892578125</LatitudeDegrees>
              <LongitudeDegrees>-5.7811352424323558807373046875</LongitudeDegrees>
            </Position>
            <AltitudeMeters>898.79998779296875</AltitudeMeters>
            <DistanceMeters>NAN</DistanceMeters>
          </Trackpoint>
          <Trackpoint>
            <Time>2019-10-04T14:22:55.000Z</Time>
            <Position>
              <LatitudeDegrees>43.03338356316089630126953125</LatitudeDegrees>
              <LongitudeDegrees>-5.7811593823134899139404296875</LongitudeDegrees>
            </Position>
            <AltitudeMeters>899</AltitudeMeters>
            <DistanceMeters>NAN</DistanceMeters>
          </Trackpoint>
          <Trackpoint>
            <Time>2019-10-04T14:23:00.000Z</Time>
            <Position>
              <LatitudeDegrees>43.03327585570514202117919921875</LatitudeDegrees>
              <LongitudeDegrees>-5.781273543834686279296875</LongitudeDegrees>
            </Position>
            <AltitudeMeters>899.79998779296875</AltitudeMeters>
            <DistanceMeters>NAN</DistanceMeters>
          </Trackpoint>
          <Trackpoint>
            <Time>2019-10-04T14:23:02.000Z</Time>
            <Position>
              <LatitudeDegrees>43.0332311801612377166748046875</LatitudeDegrees>
              <LongitudeDegrees>-5.7813196443021297454833984375</LongitudeDegrees>
            </Position>
            <AltitudeMeters>899.79998779296875</AltitudeMeters>
            <DistanceMeters>NAN</DistanceMeters>
          </Trackpoint>
          <Trackpoint>
            <Time>2019-10-04T14:23:03.000Z</Time>
            <Position>
              <LatitudeDegrees>43.03320896811783313751220703125</LatitudeDegrees>
              <LongitudeDegrees>-5.7813414372503757476806640625</LongitudeDegrees>
            </Position>
            <AltitudeMeters>900.20001220703125</AltitudeMeters>
            <DistanceMeters>NAN</DistanceMeters>
          </Trackpoint>
          <Trackpoint>
            <Time>2019-10-04T14:23:12.000Z</Time>
            <Position>
              <LatitudeDegrees>43.033000342547893524169921875</LatitudeDegrees>
              <LongitudeDegrees>-5.7815439440310001373291015625</LongitudeDegrees>
            </Position>
            <AltitudeMeters>901.4000244140625</AltitudeMeters>
            <DistanceMeters>NAN</DistanceMeters>
          </Trackpoint>
          <Trackpoint>
            <Time>2019-10-04T14:23:20.000Z</Time>
            <Position>
              <LatitudeDegrees>43.03280646912753582000732421875</LatitudeDegrees>
              <LongitudeDegrees>-5.7817202992737293243408203125</LongitudeDegrees>
            </Position>
            <AltitudeMeters>902.4000244140625</AltitudeMeters>
            <DistanceMeters>NAN</DistanceMeters>
          </Trackpoint>
          <Trackpoint>
            <Time>2019-10-04T14:23:22.000Z</Time>
            <Position>
              <LatitudeDegrees>43.03275525569915771484375</LatitudeDegrees>
              <LongitudeDegrees>-5.78175893984735012054443359375</LongitudeDegrees>
            </Position>
            <AltitudeMeters>902.20001220703125</AltitudeMeters>
            <DistanceMeters>NAN</DistanceMeters>
          </Trackpoint>
          <Trackpoint>
            <Time>2019-10-04T14:23:32.000Z</Time>
            <Position>
              <LatitudeDegrees>43.03248074837028980255126953125</LatitudeDegrees>
              <LongitudeDegrees>-5.781935043632984161376953125</LongitudeDegrees>
            </Position>
            <AltitudeMeters>902.79998779296875</AltitudeMeters>
            <DistanceMeters>NAN</DistanceMeters>
          </Trackpoint>
          <Trackpoint>
            <Time>2019-10-04T14:23:41.000Z</Time>
            <Position>
              <LatitudeDegrees>43.03220205008983612060546875</LatitudeDegrees>
              <LongitudeDegrees>-5.78197184018790721893310546875</LongitudeDegrees>
            </Position>
            <AltitudeMeters>902.79998779296875</AltitudeMeters>
            <DistanceMeters>NAN</DistanceMeters>
          </Trackpoint>
          <Trackpoint>
            <Time>2019-10-04T14:23:46.000Z</Time>
            <Position>
              <LatitudeDegrees>43.0320349149405956268310546875</LatitudeDegrees>
              <LongitudeDegrees>-5.78197452239692211151123046875</LongitudeDegrees>
            </Position>
            <AltitudeMeters>902.5999755859375</AltitudeMeters>
            <DistanceMeters>NAN</DistanceMeters>
          </Trackpoint>
          <Trackpoint>
            <Time>2019-10-04T14:23:50.000Z</Time>
            <Position>
              <LatitudeDegrees>43.0318924225866794586181640625</LatitudeDegrees>
              <LongitudeDegrees>-5.78197016380727291107177734375</LongitudeDegrees>
            </Position>
            <AltitudeMeters>902.5999755859375</AltitudeMeters>
            <DistanceMeters>NAN</DistanceMeters>
          </Trackpoint>
          <Trackpoint>
            <Time>2019-10-04T14:23:59.000Z</Time>
            <Position>
              <LatitudeDegrees>43.03157365880906581878662109375</LatitudeDegrees>
              <LongitudeDegrees>-5.7818998396396636962890625</LongitudeDegrees>
            </Position>
            <AltitudeMeters>902.5999755859375</AltitudeMeters>
            <DistanceMeters>NAN</DistanceMeters>
          </Trackpoint>
          <Trackpoint>
            <Time>2019-10-04T14:24:06.000Z</Time>
            <Position>
              <LatitudeDegrees>43.031347095966339111328125</LatitudeDegrees>
              <LongitudeDegrees>-5.78178643248975276947021484375</LongitudeDegrees>
            </Position>
            <AltitudeMeters>903.4000244140625</AltitudeMeters>
            <DistanceMeters>NAN</DistanceMeters>
          </Trackpoint>
          <Trackpoint>
            <Time>2019-10-04T14:24:08.000Z</Time>
            <Position>
              <LatitudeDegrees>43.03128498606383800506591796875</LatitudeDegrees>
              <LongitudeDegrees>-5.78174234367907047271728515625</LongitudeDegrees>
            </Position>
            <AltitudeMeters>903.5999755859375</AltitudeMeters>
            <DistanceMeters>NAN</DistanceMeters>
          </Trackpoint>
          <Trackpoint>
            <Time>2019-10-04T14:24:17.000Z</Time>
            <Position>
              <LatitudeDegrees>43.0310032702982425689697265625</LatitudeDegrees>
              <LongitudeDegrees>-5.7815640605986118316650390625</LongitudeDegrees>
            </Position>
            <AltitudeMeters>903.79998779296875</AltitudeMeters>
            <DistanceMeters>NAN</DistanceMeters>
          </Trackpoint>
          <Trackpoint>
            <Time>2019-10-04T14:24:25.000Z</Time>
            <Position>
              <LatitudeDegrees>43.0307347141206264495849609375</LatitudeDegrees>
              <LongitudeDegrees>-5.78151050023734569549560546875</LongitudeDegrees>
            </Position>
            <AltitudeMeters>904.5999755859375</AltitudeMeters>
            <DistanceMeters>NAN</DistanceMeters>
          </Trackpoint>
          <Trackpoint>
            <Time>2019-10-04T14:24:32.000Z</Time>
            <Position>
              <LatitudeDegrees>43.030528016388416290283203125</LatitudeDegrees>
              <LongitudeDegrees>-5.7815563492476940155029296875</LongitudeDegrees>
            </Position>
            <AltitudeMeters>905.5999755859375</AltitudeMeters>
            <DistanceMeters>NAN</DistanceMeters>
          </Trackpoint>
          <Trackpoint>
            <Time>2019-10-04T14:24:38.000Z</Time>
            <Position>
              <LatitudeDegrees>43.03037940524518489837646484375</LatitudeDegrees>
              <LongitudeDegrees>-5.781616866588592529296875</LongitudeDegrees>
            </Position>
            <AltitudeMeters>906.79998779296875</AltitudeMeters>
            <DistanceMeters>NAN</DistanceMeters>
          </Trackpoint>
          <Trackpoint>
            <Time>2019-10-04T14:24:39.000Z</Time>
            <Position>
              <LatitudeDegrees>43.030354343354701995849609375</LatitudeDegrees>
              <LongitudeDegrees>-5.78163052909076213836669921875</LongitudeDegrees>
            </Position>
            <AltitudeMeters>906.79998779296875</AltitudeMeters>
            <DistanceMeters>NAN</DistanceMeters>
          </Trackpoint>
          <Trackpoint>
            <Time>2019-10-04T14:24:43.000Z</Time>
            <Position>
              <LatitudeDegrees>43.03025401197373867034912109375</LatitudeDegrees>
              <LongitudeDegrees>-5.7816584408283233642578125</LongitudeDegrees>
            </Position>
            <AltitudeMeters>907.79998779296875</AltitudeMeters>
            <DistanceMeters>NAN</DistanceMeters>
          </Trackpoint>
          <Trackpoint>
            <Time>2019-10-04T14:24:46.000Z</Time>
            <Position>
              <LatitudeDegrees>43.03017471916973590850830078125</LatitudeDegrees>
              <LongitudeDegrees>-5.78167880885303020477294921875</LongitudeDegrees>
            </Position>
            <AltitudeMeters>908.4000244140625</AltitudeMeters>
            <DistanceMeters>NAN</DistanceMeters>
          </Trackpoint>
          <Trackpoint>
            <Time>2019-10-04T14:24:49.000Z</Time>
            <Position>
              <LatitudeDegrees>43.03010498173534870147705078125</LatitudeDegrees>
              <LongitudeDegrees>-5.78169263899326324462890625</LongitudeDegrees>
            </Position>
            <AltitudeMeters>908.79998779296875</AltitudeMeters>
            <DistanceMeters>NAN</DistanceMeters>
          </Trackpoint>
          <Trackpoint>
            <Time>2019-10-04T14:24:54.000Z</Time>
            <Position>
              <LatitudeDegrees>43.02997623570263385772705078125</LatitudeDegrees>
              <LongitudeDegrees>-5.78170294873416423797607421875</LongitudeDegrees>
            </Position>
            <AltitudeMeters>909.5999755859375</AltitudeMeters>
            <DistanceMeters>NAN</DistanceMeters>
          </Trackpoint>
          <Trackpoint>
            <Time>2019-10-04T14:25:02.000Z</Time>
            <Position>
              <LatitudeDegrees>43.02977138198912143707275390625</LatitudeDegrees>
              <LongitudeDegrees>-5.78168065287172794342041015625</LongitudeDegrees>
            </Position>
            <AltitudeMeters>910</AltitudeMeters>
            <DistanceMeters>NAN</DistanceMeters>
          </Trackpoint>
          <Trackpoint>
            <Time>2019-10-04T14:25:05.000Z</Time>
            <Position>
              <LatitudeDegrees>43.029685132205486297607421875</LatitudeDegrees>
              <LongitudeDegrees>-5.78165869228541851043701171875</LongitudeDegrees>
            </Position>
            <AltitudeMeters>910.20001220703125</AltitudeMeters>
            <DistanceMeters>NAN</DistanceMeters>
          </Trackpoint>
          <Trackpoint>
            <Time>2019-10-04T14:25:13.000Z</Time>
            <Position>
              <LatitudeDegrees>43.0294361896812915802001953125</LatitudeDegrees>
              <LongitudeDegrees>-5.781576968729496002197265625</LongitudeDegrees>
            </Position>
            <AltitudeMeters>910.4000244140625</AltitudeMeters>
            <DistanceMeters>NAN</DistanceMeters>
          </Trackpoint>
          <Trackpoint>
            <Time>2019-10-04T14:25:20.000Z</Time>
            <Position>
              <LatitudeDegrees>43.02922756411135196685791015625</LatitudeDegrees>
              <LongitudeDegrees>-5.78142383135855197906494140625</LongitudeDegrees>
            </Position>
            <AltitudeMeters>910.4000244140625</AltitudeMeters>
            <DistanceMeters>NAN</DistanceMeters>
          </Trackpoint>
          <Trackpoint>
            <Time>2019-10-04T14:25:23.000Z</Time>
            <Position>
              <LatitudeDegrees>43.029143325984477996826171875</LatitudeDegrees>
              <LongitudeDegrees>-5.78135736286640167236328125</LongitudeDegrees>
            </Position>
            <AltitudeMeters>911</AltitudeMeters>
            <DistanceMeters>NAN</DistanceMeters>
          </Trackpoint>
          <Trackpoint>
            <Time>2019-10-04T14:25:31.000Z</Time>
            <Position>
              <LatitudeDegrees>43.0289285816252231597900390625</LatitudeDegrees>
              <LongitudeDegrees>-5.781169943511486053466796875</LongitudeDegrees>
            </Position>
            <AltitudeMeters>911.20001220703125</AltitudeMeters>
            <DistanceMeters>NAN</DistanceMeters>
          </Trackpoint>
          <Trackpoint>
            <Time>2019-10-04T14:25:38.000Z</Time>
            <Position>
              <LatitudeDegrees>43.02870989777147769927978515625</LatitudeDegrees>
              <LongitudeDegrees>-5.78099392354488372802734375</LongitudeDegrees>
            </Position>
            <AltitudeMeters>911</AltitudeMeters>
            <DistanceMeters>NAN</DistanceMeters>
          </Trackpoint>
          <Trackpoint>
            <Time>2019-10-04T14:25:40.000Z</Time>
            <Position>
              <LatitudeDegrees>43.0286362208425998687744140625</LatitudeDegrees>
              <LongitudeDegrees>-5.780938602983951568603515625</LongitudeDegrees>
            </Position>
            <AltitudeMeters>911</AltitudeMeters>
            <DistanceMeters>NAN</DistanceMeters>
          </Trackpoint>
          <Trackpoint>
            <Time>2019-10-04T14:25:44.000Z</Time>
            <Position>
              <LatitudeDegrees>43.0284655652940273284912109375</LatitudeDegrees>
              <LongitudeDegrees>-5.7808515988290309906005859375</LongitudeDegrees>
            </Position>
            <AltitudeMeters>909.79998779296875</AltitudeMeters>
            <DistanceMeters>NAN</DistanceMeters>
          </Trackpoint>
          <Trackpoint>
            <Time>2019-10-04T14:25:46.000Z</Time>
            <Position>
              <LatitudeDegrees>43.0283686704933643341064453125</LatitudeDegrees>
              <LongitudeDegrees>-5.7808355055749416351318359375</LongitudeDegrees>
            </Position>
            <AltitudeMeters>909.5999755859375</AltitudeMeters>
            <DistanceMeters>NAN</DistanceMeters>
          </Trackpoint>
          <Trackpoint>
            <Time>2019-10-04T14:25:50.000Z</Time>
            <Position>
              <LatitudeDegrees>43.02817462943494319915771484375</LatitudeDegrees>
              <LongitudeDegrees>-5.780825279653072357177734375</LongitudeDegrees>
            </Position>
            <AltitudeMeters>910</AltitudeMeters>
            <DistanceMeters>NAN</DistanceMeters>
          </Trackpoint>
          <Trackpoint>
            <Time>2019-10-04T14:25:52.000Z</Time>
            <Position>
              <LatitudeDegrees>43.0280820094048976898193359375</LatitudeDegrees>
              <LongitudeDegrees>-5.7808227650821208953857421875</LongitudeDegrees>
            </Position>
            <AltitudeMeters>910.20001220703125</AltitudeMeters>
            <DistanceMeters>NAN</DistanceMeters>
          </Trackpoint>
          <Trackpoint>
            <Time>2019-10-04T14:25:56.000Z</Time>
            <Position>
              <LatitudeDegrees>43.0279053188860416412353515625</LatitudeDegrees>
              <LongitudeDegrees>-5.78081312589347362518310546875</LongitudeDegrees>
            </Position>
            <AltitudeMeters>911</AltitudeMeters>
            <DistanceMeters>NAN</DistanceMeters>
          </Trackpoint>
          <Trackpoint>
            <Time>2019-10-04T14:26:00.000Z</Time>
            <Position>
              <LatitudeDegrees>43.02773424424231052398681640625</LatitudeDegrees>
              <LongitudeDegrees>-5.78078471124172210693359375</LongitudeDegrees>
            </Position>
            <AltitudeMeters>911.20001220703125</AltitudeMeters>
            <DistanceMeters>NAN</DistanceMeters>
          </Trackpoint>
          <Trackpoint>
            <Time>2019-10-04T14:26:02.000Z</Time>
            <Position>
              <LatitudeDegrees>43.0276582203805446624755859375</LatitudeDegrees>
              <LongitudeDegrees>-5.780763924121856689453125</LongitudeDegrees>
            </Position>
            <AltitudeMeters>911.4000244140625</AltitudeMeters>
            <DistanceMeters>NAN</DistanceMeters>
          </Trackpoint>
          <Trackpoint>
            <Time>2019-10-04T14:26:07.000Z</Time>
            <Position>
              <LatitudeDegrees>43.02749536000192165374755859375</LatitudeDegrees>
              <LongitudeDegrees>-5.7806913368403911590576171875</LongitudeDegrees>
            </Position>
            <AltitudeMeters>912</AltitudeMeters>
            <DistanceMeters>NAN</DistanceMeters>
          </Trackpoint>
          <Trackpoint>
            <Time>2019-10-04T14:26:09.000Z</Time>
            <Position>
              <LatitudeDegrees>43.0274350941181182861328125</LatitudeDegrees>
              <LongitudeDegrees>-5.780656300485134124755859375</LongitudeDegrees>
            </Position>
            <AltitudeMeters>912.5999755859375</AltitudeMeters>
            <DistanceMeters>NAN</DistanceMeters>
          </Trackpoint>
          <Trackpoint>
            <Time>2019-10-04T14:26:12.000Z</Time>
            <Position>
              <LatitudeDegrees>43.02735261619091033935546875</LatitudeDegrees>
              <LongitudeDegrees>-5.7805910892784595489501953125</LongitudeDegrees>
            </Position>
            <AltitudeMeters>913.4000244140625</AltitudeMeters>
            <DistanceMeters>NAN</DistanceMeters>
          </Trackpoint>
          <Trackpoint>
            <Time>2019-10-04T14:26:14.000Z</Time>
            <Position>
              <LatitudeDegrees>43.02729821763932704925537109375</LatitudeDegrees>
              <LongitudeDegrees>-5.7805495150387287139892578125</LongitudeDegrees>
            </Position>
            <AltitudeMeters>913.5999755859375</AltitudeMeters>
            <DistanceMeters>NAN</DistanceMeters>
          </Trackpoint>
          <Trackpoint>
            <Time>2019-10-04T14:26:17.000Z</Time>
            <Position>
              <LatitudeDegrees>43.0272196792066097259521484375</LatitudeDegrees>
              <LongitudeDegrees>-5.78048556111752986907958984375</LongitudeDegrees>
            </Position>
            <AltitudeMeters>914.4000244140625</AltitudeMeters>
            <DistanceMeters>NAN</DistanceMeters>
          </Trackpoint>
          <Trackpoint>
            <Time>2019-10-04T14:26:22.000Z</Time>
            <Position>
              <LatitudeDegrees>43.0271170847117900848388671875</LatitudeDegrees>
              <LongitudeDegrees>-5.78035631217062473297119140625</LongitudeDegrees>
            </Position>
            <AltitudeMeters>914.5999755859375</AltitudeMeters>
            <DistanceMeters>NAN</DistanceMeters>
          </Trackpoint>
          <Trackpoint>
            <Time>2019-10-04T14:26:23.000Z</Time>
            <Position>
              <LatitudeDegrees>43.0270962975919246673583984375</LatitudeDegrees>
              <LongitudeDegrees>-5.78032848425209522247314453125</LongitudeDegrees>
            </Position>
            <AltitudeMeters>914.79998779296875</AltitudeMeters>
            <DistanceMeters>NAN</DistanceMeters>
          </Trackpoint>
          <Trackpoint>
            <Time>2019-10-04T14:26:28.000Z</Time>
            <Position>
              <LatitudeDegrees>43.02700149826705455780029296875</LatitudeDegrees>
              <LongitudeDegrees>-5.78018666245043277740478515625</LongitudeDegrees>
            </Position>
            <AltitudeMeters>915.20001220703125</AltitudeMeters>
            <DistanceMeters>NAN</DistanceMeters>
          </Trackpoint>
          <Trackpoint>
            <Time>2019-10-04T14:26:29.000Z</Time>
            <Position>
              <LatitudeDegrees>43.02698289044201374053955078125</LatitudeDegrees>
              <LongitudeDegrees>-5.7801559008657932281494140625</LongitudeDegrees>
            </Position>
            <AltitudeMeters>915.5999755859375</AltitudeMeters>
            <DistanceMeters>NAN</DistanceMeters>
          </Trackpoint>
          <Trackpoint>
            <Time>2019-10-04T14:26:33.000Z</Time>
            <Position>
              <LatitudeDegrees>43.0269078724086284637451171875</LatitudeDegrees>
              <LongitudeDegrees>-5.78004333190619945526123046875</LongitudeDegrees>
            </Position>
            <AltitudeMeters>916</AltitudeMeters>
            <DistanceMeters>NAN</DistanceMeters>
          </Trackpoint>
          <Trackpoint>
            <Time>2019-10-04T14:26:43.000Z</Time>
            <Position>
              <LatitudeDegrees>43.0266886018216609954833984375</LatitudeDegrees>
              <LongitudeDegrees>-5.779796652495861053466796875</LongitudeDegrees>
            </Position>
            <AltitudeMeters>916.5999755859375</AltitudeMeters>
            <DistanceMeters>NAN</DistanceMeters>
          </Trackpoint>
          <Trackpoint>
            <Time>2019-10-04T14:26:44.000Z</Time>
            <Position>
              <LatitudeDegrees>43.026664964854717254638671875</LatitudeDegrees>
              <LongitudeDegrees>-5.779771506786346435546875</LongitudeDegrees>
            </Position>
            <AltitudeMeters>916.79998779296875</AltitudeMeters>
            <DistanceMeters>NAN</DistanceMeters>
          </Trackpoint>
          <Trackpoint>
            <Time>2019-10-04T14:26:52.000Z</Time>
            <Position>
              <LatitudeDegrees>43.026465810835361480712890625</LatitudeDegrees>
              <LongitudeDegrees>-5.77962239272892475128173828125</LongitudeDegrees>
            </Position>
            <AltitudeMeters>917.79998779296875</AltitudeMeters>
            <DistanceMeters>NAN</DistanceMeters>
          </Trackpoint>
          <Trackpoint>
            <Time>2019-10-04T14:26:59.000Z</Time>
            <Position>
              <LatitudeDegrees>43.0262688361108303070068359375</LatitudeDegrees>
              <LongitudeDegrees>-5.7795383222401142120361328125</LongitudeDegrees>
            </Position>
            <AltitudeMeters>918.79998779296875</AltitudeMeters>
            <DistanceMeters>NAN</DistanceMeters>
          </Trackpoint>
          <Trackpoint>
            <Time>2019-10-04T14:27:01.000Z</Time>
            <Position>
              <LatitudeDegrees>43.02621041424572467803955078125</LatitudeDegrees>
              <LongitudeDegrees>-5.7795192115008831024169921875</LongitudeDegrees>
            </Position>
            <AltitudeMeters>918.79998779296875</AltitudeMeters>
            <DistanceMeters>NAN</DistanceMeters>
          </Trackpoint>
          <Trackpoint>
            <Time>2019-10-04T14:27:07.000Z</Time>
            <Position>
              <LatitudeDegrees>43.02603791467845439910888671875</LatitudeDegrees>
              <LongitudeDegrees>-5.77945877797901630401611328125</LongitudeDegrees>
            </Position>
            <AltitudeMeters>920</AltitudeMeters>
            <DistanceMeters>NAN</DistanceMeters>
          </Trackpoint>
          <Trackpoint>
            <Time>2019-10-04T14:27:10.000Z</Time>
            <Position>
              <LatitudeDegrees>43.02595250308513641357421875</LatitudeDegrees>
              <LongitudeDegrees>-5.77942156232893466949462890625</LongitudeDegrees>
            </Position>
            <AltitudeMeters>920.20001220703125</AltitudeMeters>
            <DistanceMeters>NAN</DistanceMeters>
          </Trackpoint>
          <Trackpoint>
            <Time>2019-10-04T14:27:15.000Z</Time>
            <Position>
              <LatitudeDegrees>43.02581830881536006927490234375</LatitudeDegrees>
              <LongitudeDegrees>-5.7793343067169189453125</LongitudeDegrees>
            </Position>
            <AltitudeMeters>921.20001220703125</AltitudeMeters>
            <DistanceMeters>NAN</DistanceMeters>
          </Trackpoint>
          <Trackpoint>
            <Time>2019-10-04T14:27:18.000Z</Time>
            <Position>
              <LatitudeDegrees>43.02575125358998775482177734375</LatitudeDegrees>
              <LongitudeDegrees>-5.77925325371325016021728515625</LongitudeDegrees>
            </Position>
            <AltitudeMeters>921.5999755859375</AltitudeMeters>
            <DistanceMeters>NAN</DistanceMeters>
          </Trackpoint>
          <Trackpoint>
            <Time>2019-10-04T14:27:26.000Z</Time>
            <Position>
              <LatitudeDegrees>43.02561731077730655670166015625</LatitudeDegrees>
              <LongitudeDegrees>-5.77899022959172725677490234375</LongitudeDegrees>
            </Position>
            <AltitudeMeters>922</AltitudeMeters>
            <DistanceMeters>NAN</DistanceMeters>
          </Trackpoint>
          <Trackpoint>
            <Time>2019-10-04T14:27:31.000Z</Time>
            <Position>
              <LatitudeDegrees>43.0255432985723018646240234375</LatitudeDegrees>
              <LongitudeDegrees>-5.77882158569991588592529296875</LongitudeDegrees>
            </Position>
            <AltitudeMeters>922.4000244140625</AltitudeMeters>
            <DistanceMeters>NAN</DistanceMeters>
          </Trackpoint>
          <Trackpoint>
            <Time>2019-10-04T14:27:34.000Z</Time>
            <Position>
              <LatitudeDegrees>43.02548470906913280487060546875</LatitudeDegrees>
              <LongitudeDegrees>-5.778732486069202423095703125</LongitudeDegrees>
            </Position>
            <AltitudeMeters>922.5999755859375</AltitudeMeters>
            <DistanceMeters>NAN</DistanceMeters>
          </Trackpoint>
          <Trackpoint>
            <Time>2019-10-04T14:27:40.000Z</Time>
            <Position>
              <LatitudeDegrees>43.02532981149852275848388671875</LatitudeDegrees>
              <LongitudeDegrees>-5.778645984828472137451171875</LongitudeDegrees>
            </Position>
            <AltitudeMeters>923.4000244140625</AltitudeMeters>
            <DistanceMeters>NAN</DistanceMeters>
          </Trackpoint>
          <Trackpoint>
            <Time>2019-10-04T14:27:41.000Z</Time>
            <Position>
              <LatitudeDegrees>43.02530265413224697113037109375</LatitudeDegrees>
              <LongitudeDegrees>-5.7786357589066028594970703125</LongitudeDegrees>
            </Position>
            <AltitudeMeters>923.5999755859375</AltitudeMeters>
            <DistanceMeters>NAN</DistanceMeters>
          </Trackpoint>
          <Trackpoint>
            <Time>2019-10-04T14:27:47.000Z</Time>
            <Position>
              <LatitudeDegrees>43.0251439847052097320556640625</LatitudeDegrees>
              <LongitudeDegrees>-5.77858672477304935455322265625</LongitudeDegrees>
            </Position>
            <AltitudeMeters>924.5999755859375</AltitudeMeters>
            <DistanceMeters>NAN</DistanceMeters>
          </Trackpoint>
          <Trackpoint>
            <Time>2019-10-04T14:27:50.000Z</Time>
            <Position>
              <LatitudeDegrees>43.02506410516798496246337890625</LatitudeDegrees>
              <LongitudeDegrees>-5.7785522751510143280029296875</LongitudeDegrees>
            </Position>
            <AltitudeMeters>925</AltitudeMeters>
            <DistanceMeters>NAN</DistanceMeters>
          </Trackpoint>
          <Trackpoint>
            <Time>2019-10-04T14:27:55.000Z</Time>
            <Position>
              <LatitudeDegrees>43.02493393421173095703125</LatitudeDegrees>
              <LongitudeDegrees>-5.7784785144031047821044921875</LongitudeDegrees>
            </Position>
            <AltitudeMeters>925.79998779296875</AltitudeMeters>
            <DistanceMeters>NAN</DistanceMeters>
          </Trackpoint>
          <Trackpoint>
            <Time>2019-10-04T14:27:59.000Z</Time>
            <Position>
              <LatitudeDegrees>43.02484768442809581756591796875</LatitudeDegrees>
              <LongitudeDegrees>-5.77840886078774929046630859375</LongitudeDegrees>
            </Position>
            <AltitudeMeters>926.20001220703125</AltitudeMeters>
            <DistanceMeters>NAN</DistanceMeters>
          </Trackpoint>
          <Trackpoint>
            <Time>2019-10-04T14:28:04.000Z</Time>
            <Position>
              <LatitudeDegrees>43.02474106661975383758544921875</LatitudeDegrees>
              <LongitudeDegrees>-5.77833426184952259063720703125</LongitudeDegrees>
            </Position>
            <AltitudeMeters>926.79998779296875</AltitudeMeters>
            <DistanceMeters>NAN</DistanceMeters>
          </Trackpoint>
          <Trackpoint>
            <Time>2019-10-04T14:28:08.000Z</Time>
            <Position>
              <LatitudeDegrees>43.02466177381575107574462890625</LatitudeDegrees>
              <LongitudeDegrees>-5.7782761752605438232421875</LongitudeDegrees>
            </Position>
            <AltitudeMeters>927.4000244140625</AltitudeMeters>
            <DistanceMeters>NAN</DistanceMeters>
          </Trackpoint>
          <Trackpoint>
            <Time>2019-10-04T14:28:11.000Z</Time>
            <Position>
              <LatitudeDegrees>43.02460662089288234710693359375</LatitudeDegrees>
              <LongitudeDegrees>-5.77823351137340068817138671875</LongitudeDegrees>
            </Position>
            <AltitudeMeters>928</AltitudeMeters>
            <DistanceMeters>NAN</DistanceMeters>
          </Trackpoint>
          <Trackpoint>
            <Time>2019-10-04T14:28:18.000Z</Time>
            <Position>
              <LatitudeDegrees>43.02449396811425685882568359375</LatitudeDegrees>
              <LongitudeDegrees>-5.778118930757045745849609375</LongitudeDegrees>
            </Position>
            <AltitudeMeters>929</AltitudeMeters>
            <DistanceMeters>NAN</DistanceMeters>
          </Trackpoint>
          <Trackpoint>
            <Time>2019-10-04T14:28:19.000Z</Time>
            <Position>
              <LatitudeDegrees>43.02447737194597721099853515625</LatitudeDegrees>
              <LongitudeDegrees>-5.77810727991163730621337890625</LongitudeDegrees>
            </Position>
            <AltitudeMeters>929</AltitudeMeters>
            <DistanceMeters>NAN</DistanceMeters>
          </Trackpoint>
          <Trackpoint>
            <Time>2019-10-04T14:28:25.000Z</Time>
            <Position>
              <LatitudeDegrees>43.0243708379566669464111328125</LatitudeDegrees>
              <LongitudeDegrees>-5.7780349440872669219970703125</LongitudeDegrees>
            </Position>
            <AltitudeMeters>930</AltitudeMeters>
            <DistanceMeters>NAN</DistanceMeters>
          </Trackpoint>
          <Trackpoint>
            <Time>2019-10-04T14:28:28.000Z</Time>
            <Position>
              <LatitudeDegrees>43.02432079799473285675048828125</LatitudeDegrees>
              <LongitudeDegrees>-5.77799244783818721771240234375</LongitudeDegrees>
            </Position>
            <AltitudeMeters>930.4000244140625</AltitudeMeters>
            <DistanceMeters>NAN</DistanceMeters>
          </Trackpoint>
          <Trackpoint>
            <Time>2019-10-04T14:28:32.000Z</Time>
            <Position>
              <LatitudeDegrees>43.02424536086618900299072265625</LatitudeDegrees>
              <LongitudeDegrees>-5.77794701792299747467041015625</LongitudeDegrees>
            </Position>
            <AltitudeMeters>931</AltitudeMeters>
            <DistanceMeters>NAN</DistanceMeters>
          </Trackpoint>
          <Trackpoint>
            <Time>2019-10-04T14:28:37.000Z</Time>
            <Position>
              <LatitudeDegrees>43.024145029485225677490234375</LatitudeDegrees>
              <LongitudeDegrees>-5.777896977961063385009765625</LongitudeDegrees>
            </Position>
            <AltitudeMeters>931.79998779296875</AltitudeMeters>
            <DistanceMeters>NAN</DistanceMeters>
          </Trackpoint>
          <Trackpoint>
            <Time>2019-10-04T14:28:40.000Z</Time>
            <Position>
              <LatitudeDegrees>43.0240885354578495025634765625</LatitudeDegrees>
              <LongitudeDegrees>-5.7778676412999629974365234375</LongitudeDegrees>
            </Position>
            <AltitudeMeters>932.20001220703125</AltitudeMeters>
            <DistanceMeters>NAN</DistanceMeters>
          </Trackpoint>
          <Trackpoint>
            <Time>2019-10-04T14:28:45.000Z</Time>
            <Position>
              <LatitudeDegrees>43.02402173168957233428955078125</LatitudeDegrees>
              <LongitudeDegrees>-5.77781240455806255340576171875</LongitudeDegrees>
            </Position>
            <AltitudeMeters>933.4000244140625</AltitudeMeters>
            <DistanceMeters>NAN</DistanceMeters>
          </Trackpoint>
          <Trackpoint>
            <Time>2019-10-04T14:28:53.000Z</Time>
            <Position>
              <LatitudeDegrees>43.02388309501111507415771484375</LatitudeDegrees>
              <LongitudeDegrees>-5.77773059718310832977294921875</LongitudeDegrees>
            </Position>
            <AltitudeMeters>934.4000244140625</AltitudeMeters>
            <DistanceMeters>NAN</DistanceMeters>
          </Trackpoint>
          <Trackpoint>
            <Time>2019-10-04T14:29:01.000Z</Time>
            <Position>
              <LatitudeDegrees>43.02375216968357563018798828125</LatitudeDegrees>
              <LongitudeDegrees>-5.7776222191751003265380859375</LongitudeDegrees>
            </Position>
            <AltitudeMeters>935.4000244140625</AltitudeMeters>
            <DistanceMeters>NAN</DistanceMeters>
          </Trackpoint>
          <Trackpoint>
            <Time>2019-10-04T14:29:03.000Z</Time>
            <Position>
              <LatitudeDegrees>43.02372182719409465789794921875</LatitudeDegrees>
              <LongitudeDegrees>-5.77759481035172939300537109375</LongitudeDegrees>
            </Position>
            <AltitudeMeters>935.79998779296875</AltitudeMeters>
            <DistanceMeters>NAN</DistanceMeters>
          </Trackpoint>
          <Trackpoint>
            <Time>2019-10-04T14:29:07.000Z</Time>
            <Position>
              <LatitudeDegrees>43.0236533470451831817626953125</LatitudeDegrees>
              <LongitudeDegrees>-5.77752909623086452484130859375</LongitudeDegrees>
            </Position>
            <AltitudeMeters>936.4000244140625</AltitudeMeters>
            <DistanceMeters>NAN</DistanceMeters>
          </Trackpoint>
          <Trackpoint>
            <Time>2019-10-04T14:29:14.000Z</Time>
            <Position>
              <LatitudeDegrees>43.02354178391396999359130859375</LatitudeDegrees>
              <LongitudeDegrees>-5.7774096541106700897216796875</LongitudeDegrees>
            </Position>
            <AltitudeMeters>937</AltitudeMeters>
            <DistanceMeters>NAN</DistanceMeters>
          </Trackpoint>
          <Trackpoint>
            <Time>2019-10-04T14:29:17.000Z</Time>
            <Position>
              <LatitudeDegrees>43.02349627017974853515625</LatitudeDegrees>
              <LongitudeDegrees>-5.7773630507290363311767578125</LongitudeDegrees>
            </Position>
            <AltitudeMeters>937.5999755859375</AltitudeMeters>
            <DistanceMeters>NAN</DistanceMeters>
          </Trackpoint>
          <Trackpoint>
            <Time>2019-10-04T14:29:20.000Z</Time>
            <Position>
              <LatitudeDegrees>43.02344740368425846099853515625</LatitudeDegrees>
              <LongitudeDegrees>-5.77731393277645111083984375</LongitudeDegrees>
            </Position>
            <AltitudeMeters>938.5999755859375</AltitudeMeters>
            <DistanceMeters>NAN</DistanceMeters>
          </Trackpoint>
          <Trackpoint>
            <Time>2019-10-04T14:29:24.000Z</Time>
            <Position>
              <LatitudeDegrees>43.0233844555914402008056640625</LatitudeDegrees>
              <LongitudeDegrees>-5.77725299634039402008056640625</LongitudeDegrees>
            </Position>
            <AltitudeMeters>939</AltitudeMeters>
            <DistanceMeters>NAN</DistanceMeters>
          </Trackpoint>
          <Trackpoint>
            <Time>2019-10-04T14:29:28.000Z</Time>
            <Position>
              <LatitudeDegrees>43.02332335151731967926025390625</LatitudeDegrees>
              <LongitudeDegrees>-5.77719281427562236785888671875</LongitudeDegrees>
            </Position>
            <AltitudeMeters>939.5999755859375</AltitudeMeters>
            <DistanceMeters>NAN</DistanceMeters>
          </Trackpoint>
          <Trackpoint>
            <Time>2019-10-04T14:29:34.000Z</Time>
            <Position>
              <LatitudeDegrees>43.0232359282672405242919921875</LatitudeDegrees>
              <LongitudeDegrees>-5.77709809876978397369384765625</LongitudeDegrees>
            </Position>
            <AltitudeMeters>940.5999755859375</AltitudeMeters>
            <DistanceMeters>NAN</DistanceMeters>
          </Trackpoint>
          <Trackpoint>
            <Time>2019-10-04T14:29:41.000Z</Time>
            <Position>
              <LatitudeDegrees>43.02313660271465778350830078125</LatitudeDegrees>
              <LongitudeDegrees>-5.77698259614408016204833984375</LongitudeDegrees>
            </Position>
            <AltitudeMeters>941.79998779296875</AltitudeMeters>
            <DistanceMeters>NAN</DistanceMeters>
          </Trackpoint>
          <Trackpoint>
            <Time>2019-10-04T14:29:44.000Z</Time>
            <Position>
              <LatitudeDegrees>43.023091256618499755859375</LatitudeDegrees>
              <LongitudeDegrees>-5.77694018371403217315673828125</LongitudeDegrees>
            </Position>
            <AltitudeMeters>942.20001220703125</AltitudeMeters>
            <DistanceMeters>NAN</DistanceMeters>
          </Trackpoint>
          <Trackpoint>
            <Time>2019-10-04T14:29:49.000Z</Time>
            <Position>
              <LatitudeDegrees>43.0230193398892879486083984375</LatitudeDegrees>
              <LongitudeDegrees>-5.7768752239644527435302734375</LongitudeDegrees>
            </Position>
            <AltitudeMeters>942.79998779296875</AltitudeMeters>
            <DistanceMeters>NAN</DistanceMeters>
          </Trackpoint>
          <Trackpoint>
            <Time>2019-10-04T14:29:52.000Z</Time>
            <Position>
              <LatitudeDegrees>43.022974915802478790283203125</LatitudeDegrees>
              <LongitudeDegrees>-5.776826106011867523193359375</LongitudeDegrees>
            </Position>
            <AltitudeMeters>943.79998779296875</AltitudeMeters>
            <DistanceMeters>NAN</DistanceMeters>
          </Trackpoint>
          <Trackpoint>
            <Time>2019-10-04T14:29:54.000Z</Time>
            <Position>
              <LatitudeDegrees>43.02294909954071044921875</LatitudeDegrees>
              <LongitudeDegrees>-5.7767910696566104888916015625</LongitudeDegrees>
            </Position>
            <AltitudeMeters>944.20001220703125</AltitudeMeters>
            <DistanceMeters>NAN</DistanceMeters>
          </Trackpoint>
          <Trackpoint>
            <Time>2019-10-04T14:29:59.000Z</Time>
            <Position>
              <LatitudeDegrees>43.02287466824054718017578125</LatitudeDegrees>
              <LongitudeDegrees>-5.77670683152973651885986328125</LongitudeDegrees>
            </Position>
            <AltitudeMeters>944.5999755859375</AltitudeMeters>
            <DistanceMeters>NAN</DistanceMeters>
          </Trackpoint>
          <Trackpoint>
            <Time>2019-10-04T14:30:04.000Z</Time>
            <Position>
              <LatitudeDegrees>43.02279160358011722564697265625</LatitudeDegrees>
              <LongitudeDegrees>-5.77666223980486392974853515625</LongitudeDegrees>
            </Position>
            <AltitudeMeters>945.4000244140625</AltitudeMeters>
            <DistanceMeters>NAN</DistanceMeters>
          </Trackpoint>
          <Trackpoint>
            <Time>2019-10-04T14:30:07.000Z</Time>
            <Position>
              <LatitudeDegrees>43.0227487720549106597900390625</LatitudeDegrees>
              <LongitudeDegrees>-5.77663206495344638824462890625</LongitudeDegrees>
            </Position>
            <AltitudeMeters>945.79998779296875</AltitudeMeters>
            <DistanceMeters>NAN</DistanceMeters>
          </Trackpoint>
          <Trackpoint>
            <Time>2019-10-04T14:30:14.000Z</Time>
            <Position>
              <LatitudeDegrees>43.02263201214373111724853515625</LatitudeDegrees>
              <LongitudeDegrees>-5.7765560410916805267333984375</LongitudeDegrees>
            </Position>
            <AltitudeMeters>946.4000244140625</AltitudeMeters>
            <DistanceMeters>NAN</DistanceMeters>
          </Trackpoint>
          <Trackpoint>
            <Time>2019-10-04T14:30:15.000Z</Time>
            <Position>
              <LatitudeDegrees>43.02261156029999256134033203125</LatitudeDegrees>
              <LongitudeDegrees>-5.77655176632106304168701171875</LongitudeDegrees>
            </Position>
            <AltitudeMeters>946.79998779296875</AltitudeMeters>
            <DistanceMeters>NAN</DistanceMeters>
          </Trackpoint>
          <Trackpoint>
            <Time>2019-10-04T14:30:21.000Z</Time>
            <Position>
              <LatitudeDegrees>43.0224609375</LatitudeDegrees>
              <LongitudeDegrees>-5.77656132169067859649658203125</LongitudeDegrees>
            </Position>
            <AltitudeMeters>946.5999755859375</AltitudeMeters>
            <DistanceMeters>NAN</DistanceMeters>
          </Trackpoint>
          <Trackpoint>
            <Time>2019-10-04T14:30:23.000Z</Time>
            <Position>
              <LatitudeDegrees>43.0224118195474147796630859375</LatitudeDegrees>
              <LongitudeDegrees>-5.77661119401454925537109375</LongitudeDegrees>
            </Position>
            <AltitudeMeters>946.5999755859375</AltitudeMeters>
            <DistanceMeters>NAN</DistanceMeters>
          </Trackpoint>
          <Trackpoint>
            <Time>2019-10-04T14:30:25.000Z</Time>
            <Position>
              <LatitudeDegrees>43.02238709293305873870849609375</LatitudeDegrees>
              <LongitudeDegrees>-5.77668151818215847015380859375</LongitudeDegrees>
            </Position>
            <AltitudeMeters>946.4000244140625</AltitudeMeters>
            <DistanceMeters>NAN</DistanceMeters>
          </Trackpoint>
          <Trackpoint>
            <Time>2019-10-04T14:30:33.000Z</Time>
            <Position>
              <LatitudeDegrees>43.02231115289032459259033203125</LatitudeDegrees>
              <LongitudeDegrees>-5.777007825672626495361328125</LongitudeDegrees>
            </Position>
            <AltitudeMeters>945.4000244140625</AltitudeMeters>
            <DistanceMeters>NAN</DistanceMeters>
          </Trackpoint>
          <Trackpoint>
            <Time>2019-10-04T14:30:39.000Z</Time>
            <Position>
              <LatitudeDegrees>43.0222502164542675018310546875</LatitudeDegrees>
              <LongitudeDegrees>-5.77727663330733776092529296875</LongitudeDegrees>
            </Position>
            <AltitudeMeters>945.20001220703125</AltitudeMeters>
            <DistanceMeters>NAN</DistanceMeters>
          </Trackpoint>
          <Trackpoint>
            <Time>2019-10-04T14:30:42.000Z</Time>
            <Position>
              <LatitudeDegrees>43.0222233943641185760498046875</LatitudeDegrees>
              <LongitudeDegrees>-5.7774069719016551971435546875</LongitudeDegrees>
            </Position>
            <AltitudeMeters>944.79998779296875</AltitudeMeters>
            <DistanceMeters>NAN</DistanceMeters>
          </Trackpoint>
          <Trackpoint>
            <Time>2019-10-04T14:30:43.000Z</Time>
            <Position>
              <LatitudeDegrees>43.02221626974642276763916015625</LatitudeDegrees>
              <LongitudeDegrees>-5.77745617367327213287353515625</LongitudeDegrees>
            </Position>
            <AltitudeMeters>944.79998779296875</AltitudeMeters>
            <DistanceMeters>NAN</DistanceMeters>
          </Trackpoint>
          <Trackpoint>
            <Time>2019-10-04T14:30:47.000Z</Time>
            <Position>
              <LatitudeDegrees>43.02217335440218448638916015625</LatitudeDegrees>
              <LongitudeDegrees>-5.777638815343379974365234375</LongitudeDegrees>
            </Position>
            <AltitudeMeters>944.79998779296875</AltitudeMeters>
            <DistanceMeters>NAN</DistanceMeters>
          </Trackpoint>
          <Trackpoint>
            <Time>2019-10-04T14:30:49.000Z</Time>
            <Position>
              <LatitudeDegrees>43.0221469514071941375732421875</LatitudeDegrees>
              <LongitudeDegrees>-5.7777315191924571990966796875</LongitudeDegrees>
            </Position>
            <AltitudeMeters>944.5999755859375</AltitudeMeters>
            <DistanceMeters>NAN</DistanceMeters>
          </Trackpoint>
          <Trackpoint>
            <Time>2019-10-04T14:30:52.000Z</Time>
            <Position>
              <LatitudeDegrees>43.0220795609056949615478515625</LatitudeDegrees>
              <LongitudeDegrees>-5.77786169014871120452880859375</LongitudeDegrees>
            </Position>
            <AltitudeMeters>945.20001220703125</AltitudeMeters>
            <DistanceMeters>NAN</DistanceMeters>
          </Trackpoint>
          <Trackpoint>
            <Time>2019-10-04T14:30:54.000Z</Time>
            <Position>
              <LatitudeDegrees>43.0220188759267330169677734375</LatitudeDegrees>
              <LongitudeDegrees>-5.77792941592633724212646484375</LongitudeDegrees>
            </Position>
            <AltitudeMeters>945.5999755859375</AltitudeMeters>
            <DistanceMeters>NAN</DistanceMeters>
          </Trackpoint>
          <Trackpoint>
            <Time>2019-10-04T14:30:58.000Z</Time>
            <Position>
              <LatitudeDegrees>43.02187730558216571807861328125</LatitudeDegrees>
              <LongitudeDegrees>-5.77801801264286041259765625</LongitudeDegrees>
            </Position>
            <AltitudeMeters>945.5999755859375</AltitudeMeters>
            <DistanceMeters>NAN</DistanceMeters>
          </Trackpoint>
          <Trackpoint>
            <Time>2019-10-04T14:31:00.000Z</Time>
            <Position>
              <LatitudeDegrees>43.0218042992055416107177734375</LatitudeDegrees>
              <LongitudeDegrees>-5.7780490256845951080322265625</LongitudeDegrees>
            </Position>
            <AltitudeMeters>945.79998779296875</AltitudeMeters>
            <DistanceMeters>NAN</DistanceMeters>
          </Trackpoint>
          <Trackpoint>
            <Time>2019-10-04T14:31:07.000Z</Time>
            <Position>
              <LatitudeDegrees>43.02155896089971065521240234375</LatitudeDegrees>
              <LongitudeDegrees>-5.7781608402729034423828125</LongitudeDegrees>
            </Position>
            <AltitudeMeters>946</AltitudeMeters>
            <DistanceMeters>NAN</DistanceMeters>
          </Trackpoint>
          <Trackpoint>
            <Time>2019-10-04T14:31:15.000Z</Time>
            <Position>
              <LatitudeDegrees>43.0212946794927120208740234375</LatitudeDegrees>
              <LongitudeDegrees>-5.7782910950481891632080078125</LongitudeDegrees>
            </Position>
            <AltitudeMeters>946.4000244140625</AltitudeMeters>
            <DistanceMeters>NAN</DistanceMeters>
          </Trackpoint>
          <Trackpoint>
            <Time>2019-10-04T14:31:16.000Z</Time>
            <Position>
              <LatitudeDegrees>43.021264337003231048583984375</LatitudeDegrees>
              <LongitudeDegrees>-5.7783102057874202728271484375</LongitudeDegrees>
            </Position>
            <AltitudeMeters>946.5999755859375</AltitudeMeters>
            <DistanceMeters>NAN</DistanceMeters>
          </Trackpoint>
          <Trackpoint>
            <Time>2019-10-04T14:31:27.000Z</Time>
            <Position>
              <LatitudeDegrees>43.020938448607921600341796875</LatitudeDegrees>
              <LongitudeDegrees>-5.7784424722194671630859375</LongitudeDegrees>
            </Position>
            <AltitudeMeters>947.4000244140625</AltitudeMeters>
            <DistanceMeters>NAN</DistanceMeters>
          </Trackpoint>
          <Trackpoint>
            <Time>2019-10-04T14:31:29.000Z</Time>
            <Position>
              <LatitudeDegrees>43.02087281830608844757080078125</LatitudeDegrees>
              <LongitudeDegrees>-5.77845328487455844879150390625</LongitudeDegrees>
            </Position>
            <AltitudeMeters>948.20001220703125</AltitudeMeters>
            <DistanceMeters>NAN</DistanceMeters>
          </Trackpoint>
          <Trackpoint>
            <Time>2019-10-04T14:31:34.000Z</Time>
            <Position>
              <LatitudeDegrees>43.02070685662329196929931640625</LatitudeDegrees>
              <LongitudeDegrees>-5.77843509614467620849609375</LongitudeDegrees>
            </Position>
            <AltitudeMeters>948.4000244140625</AltitudeMeters>
            <DistanceMeters>NAN</DistanceMeters>
          </Trackpoint>
          <Trackpoint>
            <Time>2019-10-04T14:31:39.000Z</Time>
            <Position>
              <LatitudeDegrees>43.020574338734149932861328125</LatitudeDegrees>
              <LongitudeDegrees>-5.77842562459409236907958984375</LongitudeDegrees>
            </Position>
            <AltitudeMeters>949.4000244140625</AltitudeMeters>
            <DistanceMeters>NAN</DistanceMeters>
          </Trackpoint>
          <Trackpoint>
            <Time>2019-10-04T14:31:42.000Z</Time>
            <Position>
              <LatitudeDegrees>43.0205077864229679107666015625</LatitudeDegrees>
              <LongitudeDegrees>-5.77841095626354217529296875</LongitudeDegrees>
            </Position>
            <AltitudeMeters>949.79998779296875</AltitudeMeters>
            <DistanceMeters>NAN</DistanceMeters>
          </Trackpoint>
          <Trackpoint>
            <Time>2019-10-04T14:31:43.000Z</Time>
            <Position>
              <LatitudeDegrees>43.0204881727695465087890625</LatitudeDegrees>
              <LongitudeDegrees>-5.77840559184551239013671875</LongitudeDegrees>
            </Position>
            <AltitudeMeters>950.4000244140625</AltitudeMeters>
            <DistanceMeters>NAN</DistanceMeters>
          </Trackpoint>
          <Trackpoint>
            <Time>2019-10-04T14:31:49.000Z</Time>
            <Position>
              <LatitudeDegrees>43.0203626118600368499755859375</LatitudeDegrees>
              <LongitudeDegrees>-5.77838069759309291839599609375</LongitudeDegrees>
            </Position>
            <AltitudeMeters>951.4000244140625</AltitudeMeters>
            <DistanceMeters>NAN</DistanceMeters>
          </Trackpoint>
          <Trackpoint>
            <Time>2019-10-04T14:31:53.000Z</Time>
            <Position>
              <LatitudeDegrees>43.02028256468474864959716796875</LatitudeDegrees>
              <LongitudeDegrees>-5.77836376614868640899658203125</LongitudeDegrees>
            </Position>
            <AltitudeMeters>952</AltitudeMeters>
            <DistanceMeters>NAN</DistanceMeters>
          </Trackpoint>
          <Trackpoint>
            <Time>2019-10-04T14:31:56.000Z</Time>
            <Position>
              <LatitudeDegrees>43.020223639905452728271484375</LatitudeDegrees>
              <LongitudeDegrees>-5.77834482304751873016357421875</LongitudeDegrees>
            </Position>
            <AltitudeMeters>952.4000244140625</AltitudeMeters>
            <DistanceMeters>NAN</DistanceMeters>
          </Trackpoint>
          <Trackpoint>
            <Time>2019-10-04T14:32:02.000Z</Time>
            <Position>
              <LatitudeDegrees>43.02010922692716121673583984375</LatitudeDegrees>
              <LongitudeDegrees>-5.778306685388088226318359375</LongitudeDegrees>
            </Position>
            <AltitudeMeters>953.5999755859375</AltitudeMeters>
            <DistanceMeters>NAN</DistanceMeters>
          </Trackpoint>
          <Trackpoint>
            <Time>2019-10-04T14:32:03.000Z</Time>
            <Position>
              <LatitudeDegrees>43.02009229548275470733642578125</LatitudeDegrees>
              <LongitudeDegrees>-5.77829654328525066375732421875</LongitudeDegrees>
            </Position>
            <AltitudeMeters>953.5999755859375</AltitudeMeters>
            <DistanceMeters>NAN</DistanceMeters>
          </Trackpoint>
          <Trackpoint>
            <Time>2019-10-04T14:32:11.000Z</Time>
            <Position>
              <LatitudeDegrees>43.019947372376918792724609375</LatitudeDegrees>
              <LongitudeDegrees>-5.77821188606321811676025390625</LongitudeDegrees>
            </Position>
            <AltitudeMeters>955</AltitudeMeters>
            <DistanceMeters>NAN</DistanceMeters>
          </Trackpoint>
          <Trackpoint>
            <Time>2019-10-04T14:32:14.000Z</Time>
            <Position>
              <LatitudeDegrees>43.01990185864269733428955078125</LatitudeDegrees>
              <LongitudeDegrees>-5.7781667076051235198974609375</LongitudeDegrees>
            </Position>
            <AltitudeMeters>955.5999755859375</AltitudeMeters>
            <DistanceMeters>NAN</DistanceMeters>
          </Trackpoint>
          <Trackpoint>
            <Time>2019-10-04T14:32:19.000Z</Time>
            <Position>
              <LatitudeDegrees>43.019831366837024688720703125</LatitudeDegrees>
              <LongitudeDegrees>-5.77808640897274017333984375</LongitudeDegrees>
            </Position>
            <AltitudeMeters>956</AltitudeMeters>
            <DistanceMeters>NAN</DistanceMeters>
          </Trackpoint>
          <Trackpoint>
            <Time>2019-10-04T14:32:24.000Z</Time>
            <Position>
              <LatitudeDegrees>43.019765317440032958984375</LatitudeDegrees>
              <LongitudeDegrees>-5.77799119055271148681640625</LongitudeDegrees>
            </Position>
            <AltitudeMeters>956.79998779296875</AltitudeMeters>
            <DistanceMeters>NAN</DistanceMeters>
          </Trackpoint>
          <Trackpoint>
            <Time>2019-10-04T14:32:26.000Z</Time>
            <Position>
              <LatitudeDegrees>43.01974327303469181060791015625</LatitudeDegrees>
              <LongitudeDegrees>-5.77794768847525119781494140625</LongitudeDegrees>
            </Position>
            <AltitudeMeters>957.20001220703125</AltitudeMeters>
            <DistanceMeters>NAN</DistanceMeters>
          </Trackpoint>
          <Trackpoint>
            <Time>2019-10-04T14:32:34.000Z</Time>
            <Position>
              <LatitudeDegrees>43.019659034907817840576171875</LatitudeDegrees>
              <LongitudeDegrees>-5.77776714228093624114990234375</LongitudeDegrees>
            </Position>
            <AltitudeMeters>958.20001220703125</AltitudeMeters>
            <DistanceMeters>NAN</DistanceMeters>
          </Trackpoint>
          <Trackpoint>
            <Time>2019-10-04T14:32:43.000Z</Time>
            <Position>
              <LatitudeDegrees>43.01957412622869014739990234375</LatitudeDegrees>
              <LongitudeDegrees>-5.77754351310431957244873046875</LongitudeDegrees>
            </Position>
            <AltitudeMeters>959.5999755859375</AltitudeMeters>
            <DistanceMeters>NAN</DistanceMeters>
          </Trackpoint>
          <Trackpoint>
            <Time>2019-10-04T14:32:45.000Z</Time>
            <Position>
              <LatitudeDegrees>43.01955786533653736114501953125</LatitudeDegrees>
              <LongitudeDegrees>-5.7774902880191802978515625</LongitudeDegrees>
            </Position>
            <AltitudeMeters>959.79998779296875</AltitudeMeters>
            <DistanceMeters>NAN</DistanceMeters>
          </Trackpoint>
          <Trackpoint>
            <Time>2019-10-04T14:32:52.000Z</Time>
            <Position>
              <LatitudeDegrees>43.0194989405572414398193359375</LatitudeDegrees>
              <LongitudeDegrees>-5.77731803990900516510009765625</LongitudeDegrees>
            </Position>
            <AltitudeMeters>960.79998779296875</AltitudeMeters>
            <DistanceMeters>NAN</DistanceMeters>
          </Trackpoint>
          <Trackpoint>
            <Time>2019-10-04T14:32:55.000Z</Time>
            <Position>
              <LatitudeDegrees>43.019478321075439453125</LatitudeDegrees>
              <LongitudeDegrees>-5.777245871722698211669921875</LongitudeDegrees>
            </Position>
            <AltitudeMeters>961.4000244140625</AltitudeMeters>
            <DistanceMeters>NAN</DistanceMeters>
          </Trackpoint>
          <Trackpoint>
            <Time>2019-10-04T14:32:58.000Z</Time>
            <Position>
              <LatitudeDegrees>43.0194613896310329437255859375</LatitudeDegrees>
              <LongitudeDegrees>-5.77716507017612457275390625</LongitudeDegrees>
            </Position>
            <AltitudeMeters>961.79998779296875</AltitudeMeters>
            <DistanceMeters>NAN</DistanceMeters>
          </Trackpoint>
          <Trackpoint>
            <Time>2019-10-04T14:33:05.000Z</Time>
            <Position>
              <LatitudeDegrees>43.0194335617125034332275390625</LatitudeDegrees>
              <LongitudeDegrees>-5.77698561362922191619873046875</LongitudeDegrees>
            </Position>
            <AltitudeMeters>962.79998779296875</AltitudeMeters>
            <DistanceMeters>NAN</DistanceMeters>
          </Trackpoint>
          <Trackpoint>
            <Time>2019-10-04T14:33:06.000Z</Time>
            <Position>
              <LatitudeDegrees>43.0194312147796154022216796875</LatitudeDegrees>
              <LongitudeDegrees>-5.7769587077200412750244140625</LongitudeDegrees>
            </Position>
            <AltitudeMeters>963</AltitudeMeters>
            <DistanceMeters>NAN</DistanceMeters>
          </Trackpoint>
          <Trackpoint>
            <Time>2019-10-04T14:33:13.000Z</Time>
            <Position>
              <LatitudeDegrees>43.01943280734121799468994140625</LatitudeDegrees>
              <LongitudeDegrees>-5.77676734887063503265380859375</LongitudeDegrees>
            </Position>
            <AltitudeMeters>964</AltitudeMeters>
            <DistanceMeters>NAN</DistanceMeters>
          </Trackpoint>
          <Trackpoint>
            <Time>2019-10-04T14:33:14.000Z</Time>
            <Position>
              <LatitudeDegrees>43.0194315500557422637939453125</LatitudeDegrees>
              <LongitudeDegrees>-5.7767417840659618377685546875</LongitudeDegrees>
            </Position>
            <AltitudeMeters>964</AltitudeMeters>
            <DistanceMeters>NAN</DistanceMeters>
          </Trackpoint>
          <Trackpoint>
            <Time>2019-10-04T14:33:20.000Z</Time>
            <Position>
              <LatitudeDegrees>43.0194446258246898651123046875</LatitudeDegrees>
              <LongitudeDegrees>-5.77657557092607021331787109375</LongitudeDegrees>
            </Position>
            <AltitudeMeters>965</AltitudeMeters>
            <DistanceMeters>NAN</DistanceMeters>
          </Trackpoint>
          <Trackpoint>
            <Time>2019-10-04T14:33:22.000Z</Time>
            <Position>
              <LatitudeDegrees>43.01944538019597530364990234375</LatitudeDegrees>
              <LongitudeDegrees>-5.77651823870837688446044921875</LongitudeDegrees>
            </Position>
            <AltitudeMeters>965.20001220703125</AltitudeMeters>
            <DistanceMeters>NAN</DistanceMeters>
          </Trackpoint>
          <Trackpoint>
            <Time>2019-10-04T14:33:30.000Z</Time>
            <Position>
              <LatitudeDegrees>43.01946583203971385955810546875</LatitudeDegrees>
              <LongitudeDegrees>-5.776284299790859222412109375</LongitudeDegrees>
            </Position>
            <AltitudeMeters>965.5999755859375</AltitudeMeters>
            <DistanceMeters>NAN</DistanceMeters>
          </Trackpoint>
          <Trackpoint>
            <Time>2019-10-04T14:33:36.000Z</Time>
            <Position>
              <LatitudeDegrees>43.01947471685707569122314453125</LatitudeDegrees>
              <LongitudeDegrees>-5.7761097885668277740478515625</LongitudeDegrees>
            </Position>
            <AltitudeMeters>966.4000244140625</AltitudeMeters>
            <DistanceMeters>NAN</DistanceMeters>
          </Trackpoint>
          <Trackpoint>
            <Time>2019-10-04T14:33:39.000Z</Time>
            <Position>
              <LatitudeDegrees>43.01947153173387050628662109375</LatitudeDegrees>
              <LongitudeDegrees>-5.77601985074579715728759765625</LongitudeDegrees>
            </Position>
            <AltitudeMeters>966.4000244140625</AltitudeMeters>
            <DistanceMeters>NAN</DistanceMeters>
          </Trackpoint>
          <Trackpoint>
            <Time>2019-10-04T14:33:47.000Z</Time>
            <Position>
              <LatitudeDegrees>43.0194399319589138031005859375</LatitudeDegrees>
              <LongitudeDegrees>-5.77578666619956493377685546875</LongitudeDegrees>
            </Position>
            <AltitudeMeters>967.4000244140625</AltitudeMeters>
            <DistanceMeters>NAN</DistanceMeters>
          </Trackpoint>
          <Trackpoint>
            <Time>2019-10-04T14:33:48.000Z</Time>
            <Position>
              <LatitudeDegrees>43.01943817175924777984619140625</LatitudeDegrees>
              <LongitudeDegrees>-5.7757580839097499847412109375</LongitudeDegrees>
            </Position>
            <AltitudeMeters>967.5999755859375</AltitudeMeters>
            <DistanceMeters>NAN</DistanceMeters>
          </Trackpoint>
          <Trackpoint>
            <Time>2019-10-04T14:33:55.000Z</Time>
            <Position>
              <LatitudeDegrees>43.01941470243036746978759765625</LatitudeDegrees>
              <LongitudeDegrees>-5.77554903924465179443359375</LongitudeDegrees>
            </Position>
            <AltitudeMeters>968.20001220703125</AltitudeMeters>
            <DistanceMeters>NAN</DistanceMeters>
          </Trackpoint>
          <Trackpoint>
            <Time>2019-10-04T14:33:57.000Z</Time>
            <Position>
              <LatitudeDegrees>43.01940531469881534576416015625</LatitudeDegrees>
              <LongitudeDegrees>-5.7754922099411487579345703125</LongitudeDegrees>
            </Position>
            <AltitudeMeters>968.79998779296875</AltitudeMeters>
            <DistanceMeters>NAN</DistanceMeters>
          </Trackpoint>
          <Trackpoint>
            <Time>2019-10-04T14:34:05.000Z</Time>
            <Position>
              <LatitudeDegrees>43.01934010349214076995849609375</LatitudeDegrees>
              <LongitudeDegrees>-5.77526799403131008148193359375</LongitudeDegrees>
            </Position>
            <AltitudeMeters>969.5999755859375</AltitudeMeters>
            <DistanceMeters>NAN</DistanceMeters>
          </Trackpoint>
          <Trackpoint>
            <Time>2019-10-04T14:34:06.000Z</Time>
            <Position>
              <LatitudeDegrees>43.0193316377699375152587890625</LatitudeDegrees>
              <LongitudeDegrees>-5.77524201013147830963134765625</LongitudeDegrees>
            </Position>
            <AltitudeMeters>969.79998779296875</AltitudeMeters>
            <DistanceMeters>NAN</DistanceMeters>
          </Trackpoint>
          <Trackpoint>
            <Time>2019-10-04T14:34:13.000Z</Time>
            <Position>
              <LatitudeDegrees>43.01926466636359691619873046875</LatitudeDegrees>
              <LongitudeDegrees>-5.77507571317255496978759765625</LongitudeDegrees>
            </Position>
            <AltitudeMeters>971.20001220703125</AltitudeMeters>
            <DistanceMeters>NAN</DistanceMeters>
          </Trackpoint>
          <Trackpoint>
            <Time>2019-10-04T14:34:15.000Z</Time>
            <Position>
              <LatitudeDegrees>43.01924228668212890625</LatitudeDegrees>
              <LongitudeDegrees>-5.77503212727606296539306640625</LongitudeDegrees>
            </Position>
            <AltitudeMeters>971.20001220703125</AltitudeMeters>
            <DistanceMeters>NAN</DistanceMeters>
          </Trackpoint>
          <Trackpoint>
            <Time>2019-10-04T14:34:20.000Z</Time>
            <Position>
              <LatitudeDegrees>43.01917548291385173797607421875</LatitudeDegrees>
              <LongitudeDegrees>-5.774927437305450439453125</LongitudeDegrees>
            </Position>
            <AltitudeMeters>972.20001220703125</AltitudeMeters>
            <DistanceMeters>NAN</DistanceMeters>
          </Trackpoint>
          <Trackpoint>
            <Time>2019-10-04T14:34:24.000Z</Time>
            <Position>
              <LatitudeDegrees>43.01912519149482250213623046875</LatitudeDegrees>
              <LongitudeDegrees>-5.77484001405537128448486328125</LongitudeDegrees>
            </Position>
            <AltitudeMeters>972.5999755859375</AltitudeMeters>
            <DistanceMeters>NAN</DistanceMeters>
          </Trackpoint>
          <Trackpoint>
            <Time>2019-10-04T14:34:26.000Z</Time>
            <Position>
              <LatitudeDegrees>43.01910080015659332275390625</LatitudeDegrees>
              <LongitudeDegrees>-5.77479810453951358795166015625</LongitudeDegrees>
            </Position>
            <AltitudeMeters>973.4000244140625</AltitudeMeters>
            <DistanceMeters>NAN</DistanceMeters>
          </Trackpoint>
          <Trackpoint>
            <Time>2019-10-04T14:34:35.000Z</Time>
            <Position>
              <LatitudeDegrees>43.01899611018598079681396484375</LatitudeDegrees>
              <LongitudeDegrees>-5.7746100984513759613037109375</LongitudeDegrees>
            </Position>
            <AltitudeMeters>974.20001220703125</AltitudeMeters>
            <DistanceMeters>NAN</DistanceMeters>
          </Trackpoint>
          <Trackpoint>
            <Time>2019-10-04T14:34:36.000Z</Time>
            <Position>
              <LatitudeDegrees>43.0189836211502552032470703125</LatitudeDegrees>
              <LongitudeDegrees>-5.7745889760553836822509765625</LongitudeDegrees>
            </Position>
            <AltitudeMeters>974.4000244140625</AltitudeMeters>
            <DistanceMeters>NAN</DistanceMeters>
          </Trackpoint>
          <Trackpoint>
            <Time>2019-10-04T14:34:42.000Z</Time>
            <Position>
              <LatitudeDegrees>43.018924109637737274169921875</LatitudeDegrees>
              <LongitudeDegrees>-5.7744528539478778839111328125</LongitudeDegrees>
            </Position>
            <AltitudeMeters>975.5999755859375</AltitudeMeters>
            <DistanceMeters>NAN</DistanceMeters>
          </Trackpoint>
          <Trackpoint>
            <Time>2019-10-04T14:34:44.000Z</Time>
            <Position>
              <LatitudeDegrees>43.0189145542681217193603515625</LatitudeDegrees>
              <LongitudeDegrees>-5.77440381981432437896728515625</LongitudeDegrees>
            </Position>
            <AltitudeMeters>975.79998779296875</AltitudeMeters>
            <DistanceMeters>NAN</DistanceMeters>
          </Trackpoint>
          <Trackpoint>
            <Time>2019-10-04T14:34:52.000Z</Time>
            <Position>
              <LatitudeDegrees>43.01883568055927753448486328125</LatitudeDegrees>
              <LongitudeDegrees>-5.7742153108119964599609375</LongitudeDegrees>
            </Position>
            <AltitudeMeters>976.5999755859375</AltitudeMeters>
            <DistanceMeters>NAN</DistanceMeters>
          </Trackpoint>
          <Trackpoint>
            <Time>2019-10-04T14:34:54.000Z</Time>
            <Position>
              <LatitudeDegrees>43.0188193358480930328369140625</LatitudeDegrees>
              <LongitudeDegrees>-5.77416929416358470916748046875</LongitudeDegrees>
            </Position>
            <AltitudeMeters>976.79998779296875</AltitudeMeters>
            <DistanceMeters>NAN</DistanceMeters>
          </Trackpoint>
          <Trackpoint>
            <Time>2019-10-04T14:34:58.000Z</Time>
            <Position>
              <LatitudeDegrees>43.018788658082485198974609375</LatitudeDegrees>
              <LongitudeDegrees>-5.77406971715390682220458984375</LongitudeDegrees>
            </Position>
            <AltitudeMeters>977.5999755859375</AltitudeMeters>
            <DistanceMeters>NAN</DistanceMeters>
          </Trackpoint>
          <Trackpoint>
            <Time>2019-10-04T14:35:02.000Z</Time>
            <Position>
              <LatitudeDegrees>43.01875906996428966522216796875</LatitudeDegrees>
              <LongitudeDegrees>-5.7739698886871337890625</LongitudeDegrees>
            </Position>
            <AltitudeMeters>977.79998779296875</AltitudeMeters>
            <DistanceMeters>NAN</DistanceMeters>
          </Trackpoint>
          <Trackpoint>
            <Time>2019-10-04T14:35:07.000Z</Time>
            <Position>
              <LatitudeDegrees>43.0187214352190494537353515625</LatitudeDegrees>
              <LongitudeDegrees>-5.77383988536894321441650390625</LongitudeDegrees>
            </Position>
            <AltitudeMeters>978.79998779296875</AltitudeMeters>
            <DistanceMeters>NAN</DistanceMeters>
          </Trackpoint>
          <Trackpoint>
            <Time>2019-10-04T14:35:14.000Z</Time>
            <Position>
              <LatitudeDegrees>43.01867105998098850250244140625</LatitudeDegrees>
              <LongitudeDegrees>-5.77364391647279262542724609375</LongitudeDegrees>
            </Position>
            <AltitudeMeters>979.4000244140625</AltitudeMeters>
            <DistanceMeters>NAN</DistanceMeters>
          </Trackpoint>
          <Trackpoint>
            <Time>2019-10-04T14:35:16.000Z</Time>
            <Position>
              <LatitudeDegrees>43.01865815185010433197021484375</LatitudeDegrees>
              <LongitudeDegrees>-5.7735875062644481658935546875</LongitudeDegrees>
            </Position>
            <AltitudeMeters>979.79998779296875</AltitudeMeters>
            <DistanceMeters>NAN</DistanceMeters>
          </Trackpoint>
          <Trackpoint>
            <Time>2019-10-04T14:35:24.000Z</Time>
            <Position>
              <LatitudeDegrees>43.01859662868082523345947265625</LatitudeDegrees>
              <LongitudeDegrees>-5.77336178161203861236572265625</LongitudeDegrees>
            </Position>
            <AltitudeMeters>980.4000244140625</AltitudeMeters>
            <DistanceMeters>NAN</DistanceMeters>
          </Trackpoint>
          <Trackpoint>
            <Time>2019-10-04T14:35:26.000Z</Time>
            <Position>
              <LatitudeDegrees>43.018576763570308685302734375</LatitudeDegrees>
              <LongitudeDegrees>-5.773311741650104522705078125</LongitudeDegrees>
            </Position>
            <AltitudeMeters>981</AltitudeMeters>
            <DistanceMeters>NAN</DistanceMeters>
          </Trackpoint>
          <Trackpoint>
            <Time>2019-10-04T14:35:32.000Z</Time>
            <Position>
              <LatitudeDegrees>43.0185058526694774627685546875</LatitudeDegrees>
              <LongitudeDegrees>-5.77316598035395145416259765625</LongitudeDegrees>
            </Position>
            <AltitudeMeters>981.4000244140625</AltitudeMeters>
            <DistanceMeters>NAN</DistanceMeters>
          </Trackpoint>
          <Trackpoint>
            <Time>2019-10-04T14:35:40.000Z</Time>
            <Position>
              <LatitudeDegrees>43.01837182603776454925537109375</LatitudeDegrees>
              <LongitudeDegrees>-5.77300672419369220733642578125</LongitudeDegrees>
            </Position>
            <AltitudeMeters>981.79998779296875</AltitudeMeters>
            <DistanceMeters>NAN</DistanceMeters>
          </Trackpoint>
          <Trackpoint>
            <Time>2019-10-04T14:35:42.000Z</Time>
            <Position>
              <LatitudeDegrees>43.01833771169185638427734375</LatitudeDegrees>
              <LongitudeDegrees>-5.772966407239437103271484375</LongitudeDegrees>
            </Position>
            <AltitudeMeters>982</AltitudeMeters>
            <DistanceMeters>NAN</DistanceMeters>
          </Trackpoint>
          <Trackpoint>
            <Time>2019-10-04T14:35:49.000Z</Time>
            <Position>
              <LatitudeDegrees>43.01820787601172924041748046875</LatitudeDegrees>
              <LongitudeDegrees>-5.77283690683543682098388671875</LongitudeDegrees>
            </Position>
            <AltitudeMeters>982.79998779296875</AltitudeMeters>
            <DistanceMeters>NAN</DistanceMeters>
          </Trackpoint>
          <Trackpoint>
            <Time>2019-10-04T14:35:57.000Z</Time>
            <Position>
              <LatitudeDegrees>43.01804392598569393157958984375</LatitudeDegrees>
              <LongitudeDegrees>-5.77266776002943515777587890625</LongitudeDegrees>
            </Position>
            <AltitudeMeters>982.5999755859375</AltitudeMeters>
            <DistanceMeters>NAN</DistanceMeters>
          </Trackpoint>
          <Trackpoint>
            <Time>2019-10-04T14:36:05.000Z</Time>
            <Position>
              <LatitudeDegrees>43.01791769452393054962158203125</LatitudeDegrees>
              <LongitudeDegrees>-5.7724519260227680206298828125</LongitudeDegrees>
            </Position>
            <AltitudeMeters>982.5999755859375</AltitudeMeters>
            <DistanceMeters>NAN</DistanceMeters>
          </Trackpoint>
          <Trackpoint>
            <Time>2019-10-04T14:36:10.000Z</Time>
            <Position>
              <LatitudeDegrees>43.01789841614663600921630859375</LatitudeDegrees>
              <LongitudeDegrees>-5.7723369263112545013427734375</LongitudeDegrees>
            </Position>
            <AltitudeMeters>982</AltitudeMeters>
            <DistanceMeters>NAN</DistanceMeters>
          </Trackpoint>
          <Trackpoint>
            <Time>2019-10-04T14:46:24.000Z</Time>
            <Position>
              <LatitudeDegrees>43.0176918022334575653076171875</LatitudeDegrees>
              <LongitudeDegrees>-5.7719099521636962890625</LongitudeDegrees>
            </Position>
            <AltitudeMeters>982</AltitudeMeters>
            <DistanceMeters>NAN</DistanceMeters>
          </Trackpoint>
          <Trackpoint>
            <Time>2019-10-04T14:46:25.000Z</Time>
            <Position>
              <LatitudeDegrees>43.01767931319773197174072265625</LatitudeDegrees>
              <LongitudeDegrees>-5.77187307178974151611328125</LongitudeDegrees>
            </Position>
            <AltitudeMeters>982.20001220703125</AltitudeMeters>
            <DistanceMeters>NAN</DistanceMeters>
          </Trackpoint>
          <Trackpoint>
            <Time>2019-10-04T14:46:26.000Z</Time>
            <Position>
              <LatitudeDegrees>43.01766715943813323974609375</LatitudeDegrees>
              <LongitudeDegrees>-5.77183493413031101226806640625</LongitudeDegrees>
            </Position>
            <AltitudeMeters>982.4000244140625</AltitudeMeters>
            <DistanceMeters>NAN</DistanceMeters>
          </Trackpoint>
          <Trackpoint>
            <Time>2019-10-04T14:46:27.000Z</Time>
            <Position>
              <LatitudeDegrees>43.0176557600498199462890625</LatitudeDegrees>
              <LongitudeDegrees>-5.77179403044283390045166015625</LongitudeDegrees>
            </Position>
            <AltitudeMeters>983</AltitudeMeters>
            <DistanceMeters>NAN</DistanceMeters>
          </Trackpoint>
          <Trackpoint>
            <Time>2019-10-04T14:46:33.000Z</Time>
            <Position>
              <LatitudeDegrees>43.0176047980785369873046875</LatitudeDegrees>
              <LongitudeDegrees>-5.77151994220912456512451171875</LongitudeDegrees>
            </Position>
            <AltitudeMeters>982.5999755859375</AltitudeMeters>
            <DistanceMeters>NAN</DistanceMeters>
          </Trackpoint>
          <Trackpoint>
            <Time>2019-10-04T14:46:38.000Z</Time>
            <Position>
              <LatitudeDegrees>43.01757068373262882232666015625</LatitudeDegrees>
              <LongitudeDegrees>-5.7712848298251628875732421875</LongitudeDegrees>
            </Position>
            <AltitudeMeters>982.79998779296875</AltitudeMeters>
            <DistanceMeters>NAN</DistanceMeters>
          </Trackpoint>
          <Trackpoint>
            <Time>2019-10-04T14:46:43.000Z</Time>
            <Position>
              <LatitudeDegrees>43.0175243318080902099609375</LatitudeDegrees>
              <LongitudeDegrees>-5.771055333316326141357421875</LongitudeDegrees>
            </Position>
            <AltitudeMeters>983</AltitudeMeters>
            <DistanceMeters>NAN</DistanceMeters>
          </Trackpoint>
          <Trackpoint>
            <Time>2019-10-04T14:46:52.000Z</Time>
            <Position>
              <LatitudeDegrees>43.0173893831670284271240234375</LatitudeDegrees>
              <LongitudeDegrees>-5.77068527229130268096923828125</LongitudeDegrees>
            </Position>
            <AltitudeMeters>983.4000244140625</AltitudeMeters>
            <DistanceMeters>NAN</DistanceMeters>
          </Trackpoint>
          <Trackpoint>
            <Time>2019-10-04T14:46:54.000Z</Time>
            <Position>
              <LatitudeDegrees>43.01735728047788143157958984375</LatitudeDegrees>
              <LongitudeDegrees>-5.77060564421117305755615234375</LongitudeDegrees>
            </Position>
            <AltitudeMeters>984.20001220703125</AltitudeMeters>
            <DistanceMeters>NAN</DistanceMeters>
          </Trackpoint>
          <Trackpoint>
            <Time>2019-10-04T14:47:01.000Z</Time>
            <Position>
              <LatitudeDegrees>43.0172292888164520263671875</LatitudeDegrees>
              <LongitudeDegrees>-5.77033214271068572998046875</LongitudeDegrees>
            </Position>
            <AltitudeMeters>984.20001220703125</AltitudeMeters>
            <DistanceMeters>NAN</DistanceMeters>
          </Trackpoint>
          <Trackpoint>
            <Time>2019-10-04T14:47:09.000Z</Time>
            <Position>
              <LatitudeDegrees>43.0170383490622043609619140625</LatitudeDegrees>
              <LongitudeDegrees>-5.77004154212772846221923828125</LongitudeDegrees>
            </Position>
            <AltitudeMeters>984.4000244140625</AltitudeMeters>
            <DistanceMeters>NAN</DistanceMeters>
          </Trackpoint>
          <Trackpoint>
            <Time>2019-10-04T14:47:14.000Z</Time>
            <Position>
              <LatitudeDegrees>43.01686123944818973541259765625</LatitudeDegrees>
              <LongitudeDegrees>-5.769971720874309539794921875</LongitudeDegrees>
            </Position>
            <AltitudeMeters>984.79998779296875</AltitudeMeters>
            <DistanceMeters>NAN</DistanceMeters>
          </Trackpoint>
          <Trackpoint>
            <Time>2019-10-04T14:47:19.000Z</Time>
            <Position>
              <LatitudeDegrees>43.01668949425220489501953125</LatitudeDegrees>
              <LongitudeDegrees>-5.77005595900118350982666015625</LongitudeDegrees>
            </Position>
            <AltitudeMeters>984.5999755859375</AltitudeMeters>
            <DistanceMeters>NAN</DistanceMeters>
          </Trackpoint>
          <Trackpoint>
            <Time>2019-10-04T14:47:21.000Z</Time>
            <Position>
              <LatitudeDegrees>43.01664347760379314422607421875</LatitudeDegrees>
              <LongitudeDegrees>-5.770125947892665863037109375</LongitudeDegrees>
            </Position>
            <AltitudeMeters>985.20001220703125</AltitudeMeters>
            <DistanceMeters>NAN</DistanceMeters>
          </Trackpoint>
          <Trackpoint>
            <Time>2019-10-04T14:47:25.000Z</Time>
            <Position>
              <LatitudeDegrees>43.01656368188560009002685546875</LatitudeDegrees>
              <LongitudeDegrees>-5.7702478207647800445556640625</LongitudeDegrees>
            </Position>
            <AltitudeMeters>986.20001220703125</AltitudeMeters>
            <DistanceMeters>NAN</DistanceMeters>
          </Trackpoint>
          <Trackpoint>
            <Time>2019-10-04T14:47:26.000Z</Time>
            <Position>
              <LatitudeDegrees>43.01654733717441558837890625</LatitudeDegrees>
              <LongitudeDegrees>-5.7702729664742946624755859375</LongitudeDegrees>
            </Position>
            <AltitudeMeters>986.5999755859375</AltitudeMeters>
            <DistanceMeters>NAN</DistanceMeters>
          </Trackpoint>
          <Trackpoint>
            <Time>2019-10-04T14:47:30.000Z</Time>
            <Position>
              <LatitudeDegrees>43.0164854787290096282958984375</LatitudeDegrees>
              <LongitudeDegrees>-5.7703604735434055328369140625</LongitudeDegrees>
            </Position>
            <AltitudeMeters>987.4000244140625</AltitudeMeters>
            <DistanceMeters>NAN</DistanceMeters>
          </Trackpoint>
          <Trackpoint>
            <Time>2019-10-04T14:47:33.000Z</Time>
            <Position>
              <LatitudeDegrees>43.01643292419612407684326171875</LatitudeDegrees>
              <LongitudeDegrees>-5.7704251818358898162841796875</LongitudeDegrees>
            </Position>
            <AltitudeMeters>988</AltitudeMeters>
            <DistanceMeters>NAN</DistanceMeters>
          </Trackpoint>
          <Trackpoint>
            <Time>2019-10-04T14:47:36.000Z</Time>
            <Position>
              <LatitudeDegrees>43.01638280041515827178955078125</LatitudeDegrees>
              <LongitudeDegrees>-5.77048896811902523040771484375</LongitudeDegrees>
            </Position>
            <AltitudeMeters>988.5999755859375</AltitudeMeters>
            <DistanceMeters>NAN</DistanceMeters>
          </Trackpoint>
          <Trackpoint>
            <Time>2019-10-04T14:47:41.000Z</Time>
            <Position>
              <LatitudeDegrees>43.01630350761115550994873046875</LatitudeDegrees>
              <LongitudeDegrees>-5.7705841027200222015380859375</LongitudeDegrees>
            </Position>
            <AltitudeMeters>989.4000244140625</AltitudeMeters>
            <DistanceMeters>NAN</DistanceMeters>
          </Trackpoint>
          <Trackpoint>
            <Time>2019-10-04T14:47:45.000Z</Time>
            <Position>
              <LatitudeDegrees>43.016243912279605865478515625</LatitudeDegrees>
              <LongitudeDegrees>-5.77065811492502689361572265625</LongitudeDegrees>
            </Position>
            <AltitudeMeters>989.79998779296875</AltitudeMeters>
            <DistanceMeters>NAN</DistanceMeters>
          </Trackpoint>
          <Trackpoint>
            <Time>2019-10-04T14:47:51.000Z</Time>
            <Position>
              <LatitudeDegrees>43.01614743657410144805908203125</LatitudeDegrees>
              <LongitudeDegrees>-5.7707617990672588348388671875</LongitudeDegrees>
            </Position>
            <AltitudeMeters>990.5999755859375</AltitudeMeters>
            <DistanceMeters>NAN</DistanceMeters>
          </Trackpoint>
          <Trackpoint>
            <Time>2019-10-04T14:47:52.000Z</Time>
            <Position>
              <LatitudeDegrees>43.01612966693937778472900390625</LatitudeDegrees>
              <LongitudeDegrees>-5.77077629975974559783935546875</LongitudeDegrees>
            </Position>
            <AltitudeMeters>990.79998779296875</AltitudeMeters>
            <DistanceMeters>NAN</DistanceMeters>
          </Trackpoint>
          <Trackpoint>
            <Time>2019-10-04T14:47:54.000Z</Time>
            <Position>
              <LatitudeDegrees>43.01609479822218418121337890625</LatitudeDegrees>
              <LongitudeDegrees>-5.77079993672668933868408203125</LongitudeDegrees>
            </Position>
            <AltitudeMeters>991.20001220703125</AltitudeMeters>
            <DistanceMeters>NAN</DistanceMeters>
          </Trackpoint>
          <Trackpoint>
            <Time>2019-10-04T14:48:01.000Z</Time>
            <Position>
              <LatitudeDegrees>43.0159574188292026519775390625</LatitudeDegrees>
              <LongitudeDegrees>-5.77085249125957489013671875</LongitudeDegrees>
            </Position>
            <AltitudeMeters>991.79998779296875</AltitudeMeters>
            <DistanceMeters>NAN</DistanceMeters>
          </Trackpoint>
          <Trackpoint>
            <Time>2019-10-04T14:48:03.000Z</Time>
            <Position>
              <LatitudeDegrees>43.015913330018520355224609375</LatitudeDegrees>
              <LongitudeDegrees>-5.77085659839212894439697265625</LongitudeDegrees>
            </Position>
            <AltitudeMeters>992.20001220703125</AltitudeMeters>
            <DistanceMeters>NAN</DistanceMeters>
          </Trackpoint>
          <Trackpoint>
            <Time>2019-10-04T14:48:10.000Z</Time>
            <Position>
              <LatitudeDegrees>43.0157726816833019256591796875</LatitudeDegrees>
              <LongitudeDegrees>-5.770830698311328887939453125</LongitudeDegrees>
            </Position>
            <AltitudeMeters>993</AltitudeMeters>
            <DistanceMeters>NAN</DistanceMeters>
          </Trackpoint>
          <Trackpoint>
            <Time>2019-10-04T14:48:11.000Z</Time>
            <Position>
              <LatitudeDegrees>43.0157535709440708160400390625</LatitudeDegrees>
              <LongitudeDegrees>-5.77082030475139617919921875</LongitudeDegrees>
            </Position>
            <AltitudeMeters>993.4000244140625</AltitudeMeters>
            <DistanceMeters>NAN</DistanceMeters>
          </Trackpoint>
          <Trackpoint>
            <Time>2019-10-04T14:48:18.000Z</Time>
            <Position>
              <LatitudeDegrees>43.0156218074262142181396484375</LatitudeDegrees>
              <LongitudeDegrees>-5.77074746601283550262451171875</LongitudeDegrees>
            </Position>
            <AltitudeMeters>994</AltitudeMeters>
            <DistanceMeters>NAN</DistanceMeters>
          </Trackpoint>
          <Trackpoint>
            <Time>2019-10-04T14:48:26.000Z</Time>
            <Position>
              <LatitudeDegrees>43.01546908915042877197265625</LatitudeDegrees>
              <LongitudeDegrees>-5.77069482766091823577880859375</LongitudeDegrees>
            </Position>
            <AltitudeMeters>994.79998779296875</AltitudeMeters>
            <DistanceMeters>NAN</DistanceMeters>
          </Trackpoint>
          <Trackpoint>
            <Time>2019-10-04T14:48:27.000Z</Time>
            <Position>
              <LatitudeDegrees>43.0154483020305633544921875</LatitudeDegrees>
              <LongitudeDegrees>-5.77069222927093505859375</LongitudeDegrees>
            </Position>
            <AltitudeMeters>995</AltitudeMeters>
            <DistanceMeters>NAN</DistanceMeters>
          </Trackpoint>
          <Trackpoint>
            <Time>2019-10-04T14:48:33.000Z</Time>
            <Position>
              <LatitudeDegrees>43.0153338052332401275634765625</LatitudeDegrees>
              <LongitudeDegrees>-5.7706900499761104583740234375</LongitudeDegrees>
            </Position>
            <AltitudeMeters>996.20001220703125</AltitudeMeters>
            <DistanceMeters>NAN</DistanceMeters>
          </Trackpoint>
          <Trackpoint>
            <Time>2019-10-04T14:48:34.000Z</Time>
            <Position>
              <LatitudeDegrees>43.01531645469367504119873046875</LatitudeDegrees>
              <LongitudeDegrees>-5.77068996615707874298095703125</LongitudeDegrees>
            </Position>
            <AltitudeMeters>996.4000244140625</AltitudeMeters>
            <DistanceMeters>NAN</DistanceMeters>
          </Trackpoint>
          <Trackpoint>
            <Time>2019-10-04T14:48:39.000Z</Time>
            <Position>
              <LatitudeDegrees>43.01522500813007354736328125</LatitudeDegrees>
              <LongitudeDegrees>-5.77071293257176876068115234375</LongitudeDegrees>
            </Position>
            <AltitudeMeters>997.20001220703125</AltitudeMeters>
            <DistanceMeters>NAN</DistanceMeters>
          </Trackpoint>
          <Trackpoint>
            <Time>2019-10-04T14:48:42.000Z</Time>
            <Position>
              <LatitudeDegrees>43.0151711963117122650146484375</LatitudeDegrees>
              <LongitudeDegrees>-5.770727097988128662109375</LongitudeDegrees>
            </Position>
            <AltitudeMeters>998</AltitudeMeters>
            <DistanceMeters>NAN</DistanceMeters>
          </Trackpoint>
          <Trackpoint>
            <Time>2019-10-04T14:48:43.000Z</Time>
            <Position>
              <LatitudeDegrees>43.0151507444679737091064453125</LatitudeDegrees>
              <LongitudeDegrees>-5.77073321677744388580322265625</LongitudeDegrees>
            </Position>
            <AltitudeMeters>998.20001220703125</AltitudeMeters>
            <DistanceMeters>NAN</DistanceMeters>
          </Trackpoint>
          <Trackpoint>
            <Time>2019-10-04T14:48:49.000Z</Time>
            <Position>
              <LatitudeDegrees>43.01504203118383884429931640625</LatitudeDegrees>
              <LongitudeDegrees>-5.7707581110298633575439453125</LongitudeDegrees>
            </Position>
            <AltitudeMeters>999.5999755859375</AltitudeMeters>
            <DistanceMeters>NAN</DistanceMeters>
          </Trackpoint>
          <Trackpoint>
            <Time>2019-10-04T14:48:55.000Z</Time>
            <Position>
              <LatitudeDegrees>43.01494144834578037261962890625</LatitudeDegrees>
              <LongitudeDegrees>-5.7707795687019824981689453125</LongitudeDegrees>
            </Position>
            <AltitudeMeters>1000.79998779296875</AltitudeMeters>
            <DistanceMeters>NAN</DistanceMeters>
          </Trackpoint>
          <Trackpoint>
            <Time>2019-10-04T14:48:58.000Z</Time>
            <Position>
              <LatitudeDegrees>43.01488813944160938262939453125</LatitudeDegrees>
              <LongitudeDegrees>-5.7707832567393779754638671875</LongitudeDegrees>
            </Position>
            <AltitudeMeters>1001.79998779296875</AltitudeMeters>
            <DistanceMeters>NAN</DistanceMeters>
          </Trackpoint>
          <Trackpoint>
            <Time>2019-10-04T14:49:00.000Z</Time>
            <Position>
              <LatitudeDegrees>43.01485486328601837158203125</LatitudeDegrees>
              <LongitudeDegrees>-5.7707820832729339599609375</LongitudeDegrees>
            </Position>
            <AltitudeMeters>1001.79998779296875</AltitudeMeters>
            <DistanceMeters>NAN</DistanceMeters>
          </Trackpoint>
          <Trackpoint>
            <Time>2019-10-04T14:49:06.000Z</Time>
            <Position>
              <LatitudeDegrees>43.014753274619579315185546875</LatitudeDegrees>
              <LongitudeDegrees>-5.770791471004486083984375</LongitudeDegrees>
            </Position>
            <AltitudeMeters>1002.79998779296875</AltitudeMeters>
            <DistanceMeters>NAN</DistanceMeters>
          </Trackpoint>
          <Trackpoint>
            <Time>2019-10-04T14:49:09.000Z</Time>
            <Position>
              <LatitudeDegrees>43.01470155827701091766357421875</LatitudeDegrees>
              <LongitudeDegrees>-5.770789794623851776123046875</LongitudeDegrees>
            </Position>
            <AltitudeMeters>1003.4000244140625</AltitudeMeters>
            <DistanceMeters>NAN</DistanceMeters>
          </Trackpoint>
          <Trackpoint>
            <Time>2019-10-04T14:49:12.000Z</Time>
            <Position>
              <LatitudeDegrees>43.0146424658596515655517578125</LatitudeDegrees>
              <LongitudeDegrees>-5.77078820206224918365478515625</LongitudeDegrees>
            </Position>
            <AltitudeMeters>1004</AltitudeMeters>
            <DistanceMeters>NAN</DistanceMeters>
          </Trackpoint>
          <Trackpoint>
            <Time>2019-10-04T14:49:18.000Z</Time>
            <Position>
              <LatitudeDegrees>43.0145485885441303253173828125</LatitudeDegrees>
              <LongitudeDegrees>-5.77078082598745822906494140625</LongitudeDegrees>
            </Position>
            <AltitudeMeters>1004.79998779296875</AltitudeMeters>
            <DistanceMeters>NAN</DistanceMeters>
          </Trackpoint>
          <Trackpoint>
            <Time>2019-10-04T14:49:20.000Z</Time>
            <Position>
              <LatitudeDegrees>43.01451464183628559112548828125</LatitudeDegrees>
              <LongitudeDegrees>-5.77078149653971195220947265625</LongitudeDegrees>
            </Position>
            <AltitudeMeters>1005</AltitudeMeters>
            <DistanceMeters>NAN</DistanceMeters>
          </Trackpoint>
          <Trackpoint>
            <Time>2019-10-04T14:49:23.000Z</Time>
            <Position>
              <LatitudeDegrees>43.014462254941463470458984375</LatitudeDegrees>
              <LongitudeDegrees>-5.77078099362552165985107421875</LongitudeDegrees>
            </Position>
            <AltitudeMeters>1006.20001220703125</AltitudeMeters>
            <DistanceMeters>NAN</DistanceMeters>
          </Trackpoint>
          <Trackpoint>
            <Time>2019-10-04T14:49:27.000Z</Time>
            <Position>
              <LatitudeDegrees>43.01439293660223484039306640625</LatitudeDegrees>
              <LongitudeDegrees>-5.77077336609363555908203125</LongitudeDegrees>
            </Position>
            <AltitudeMeters>1006.5999755859375</AltitudeMeters>
            <DistanceMeters>NAN</DistanceMeters>
          </Trackpoint>
          <Trackpoint>
            <Time>2019-10-04T14:49:31.000Z</Time>
            <Position>
              <LatitudeDegrees>43.0143216066062450408935546875</LatitudeDegrees>
              <LongitudeDegrees>-5.7707688398659229278564453125</LongitudeDegrees>
            </Position>
            <AltitudeMeters>1007.20001220703125</AltitudeMeters>
            <DistanceMeters>NAN</DistanceMeters>
          </Trackpoint>
          <Trackpoint>
            <Time>2019-10-04T14:49:37.000Z</Time>
            <Position>
              <LatitudeDegrees>43.01421289332211017608642578125</LatitudeDegrees>
              <LongitudeDegrees>-5.77076221816241741180419921875</LongitudeDegrees>
            </Position>
            <AltitudeMeters>1007.79998779296875</AltitudeMeters>
            <DistanceMeters>NAN</DistanceMeters>
          </Trackpoint>
          <Trackpoint>
            <Time>2019-10-04T14:49:40.000Z</Time>
            <Position>
              <LatitudeDegrees>43.01415589638054370880126953125</LatitudeDegrees>
              <LongitudeDegrees>-5.77075584791600704193115234375</LongitudeDegrees>
            </Position>
            <AltitudeMeters>1008.4000244140625</AltitudeMeters>
            <DistanceMeters>NAN</DistanceMeters>
          </Trackpoint>
          <Trackpoint>
            <Time>2019-10-04T14:49:45.000Z</Time>
            <Position>
              <LatitudeDegrees>43.01406218670308589935302734375</LatitudeDegrees>
              <LongitudeDegrees>-5.7707648165524005889892578125</LongitudeDegrees>
            </Position>
            <AltitudeMeters>1009.4000244140625</AltitudeMeters>
            <DistanceMeters>NAN</DistanceMeters>
          </Trackpoint>
          <Trackpoint>
            <Time>2019-10-04T14:49:47.000Z</Time>
            <Position>
              <LatitudeDegrees>43.01402597688138484954833984375</LatitudeDegrees>
              <LongitudeDegrees>-5.77076406218111515045166015625</LongitudeDegrees>
            </Position>
            <AltitudeMeters>1009.4000244140625</AltitudeMeters>
            <DistanceMeters>NAN</DistanceMeters>
          </Trackpoint>
          <Trackpoint>
            <Time>2019-10-04T14:49:53.000Z</Time>
            <Position>
              <LatitudeDegrees>43.013909719884395599365234375</LatitudeDegrees>
              <LongitudeDegrees>-5.77075517736375331878662109375</LongitudeDegrees>
            </Position>
            <AltitudeMeters>1010.4000244140625</AltitudeMeters>
            <DistanceMeters>NAN</DistanceMeters>
          </Trackpoint>
          <Trackpoint>
            <Time>2019-10-04T14:49:54.000Z</Time>
            <Position>
              <LatitudeDegrees>43.0138897709548473358154296875</LatitudeDegrees>
              <LongitudeDegrees>-5.77075459063053131103515625</LongitudeDegrees>
            </Position>
            <AltitudeMeters>1010.5999755859375</AltitudeMeters>
            <DistanceMeters>NAN</DistanceMeters>
          </Trackpoint>
          <Trackpoint>
            <Time>2019-10-04T14:49:59.000Z</Time>
            <Position>
              <LatitudeDegrees>43.01379027776420116424560546875</LatitudeDegrees>
              <LongitudeDegrees>-5.77076129615306854248046875</LongitudeDegrees>
            </Position>
            <AltitudeMeters>1011.5999755859375</AltitudeMeters>
            <DistanceMeters>NAN</DistanceMeters>
          </Trackpoint>
          <Trackpoint>
            <Time>2019-10-04T14:50:06.000Z</Time>
            <Position>
              <LatitudeDegrees>43.01365314982831478118896484375</LatitudeDegrees>
              <LongitudeDegrees>-5.7708006910979747772216796875</LongitudeDegrees>
            </Position>
            <AltitudeMeters>1012.5999755859375</AltitudeMeters>
            <DistanceMeters>NAN</DistanceMeters>
          </Trackpoint>
          <Trackpoint>
            <Time>2019-10-04T14:50:07.000Z</Time>
            <Position>
              <LatitudeDegrees>43.0136359669268131256103515625</LatitudeDegrees>
              <LongitudeDegrees>-5.77081200666725635528564453125</LongitudeDegrees>
            </Position>
            <AltitudeMeters>1012.79998779296875</AltitudeMeters>
            <DistanceMeters>NAN</DistanceMeters>
          </Trackpoint>
          <Trackpoint>
            <Time>2019-10-04T14:50:13.000Z</Time>
            <Position>
              <LatitudeDegrees>43.0135437659919261932373046875</LatitudeDegrees>
              <LongitudeDegrees>-5.77089951373636722564697265625</LongitudeDegrees>
            </Position>
            <AltitudeMeters>1013.79998779296875</AltitudeMeters>
            <DistanceMeters>NAN</DistanceMeters>
          </Trackpoint>
          <Trackpoint>
            <Time>2019-10-04T14:50:14.000Z</Time>
            <Position>
              <LatitudeDegrees>43.013529516756534576416015625</LatitudeDegrees>
              <LongitudeDegrees>-5.77091711573302745819091796875</LongitudeDegrees>
            </Position>
            <AltitudeMeters>1013.79998779296875</AltitudeMeters>
            <DistanceMeters>NAN</DistanceMeters>
          </Trackpoint>
          <Trackpoint>
            <Time>2019-10-04T14:50:19.000Z</Time>
            <Position>
              <LatitudeDegrees>43.013463132083415985107421875</LatitudeDegrees>
              <LongitudeDegrees>-5.7710135914385318756103515625</LongitudeDegrees>
            </Position>
            <AltitudeMeters>1015.20001220703125</AltitudeMeters>
            <DistanceMeters>NAN</DistanceMeters>
          </Trackpoint>
          <Trackpoint>
            <Time>2019-10-04T14:50:23.000Z</Time>
            <Position>
              <LatitudeDegrees>43.01341342739760875701904296875</LatitudeDegrees>
              <LongitudeDegrees>-5.771091543138027191162109375</LongitudeDegrees>
            </Position>
            <AltitudeMeters>1015.4000244140625</AltitudeMeters>
            <DistanceMeters>NAN</DistanceMeters>
          </Trackpoint>
          <Trackpoint>
            <Time>2019-10-04T14:50:28.000Z</Time>
            <Position>
              <LatitudeDegrees>43.01337587647140026092529296875</LatitudeDegrees>
              <LongitudeDegrees>-5.7712000049650669097900390625</LongitudeDegrees>
            </Position>
            <AltitudeMeters>1016.4000244140625</AltitudeMeters>
            <DistanceMeters>NAN</DistanceMeters>
          </Trackpoint>
          <Trackpoint>
            <Time>2019-10-04T14:50:30.000Z</Time>
            <Position>
              <LatitudeDegrees>43.01337034441530704498291015625</LatitudeDegrees>
              <LongitudeDegrees>-5.771252810955047607421875</LongitudeDegrees>
            </Position>
            <AltitudeMeters>1016.79998779296875</AltitudeMeters>
            <DistanceMeters>NAN</DistanceMeters>
          </Trackpoint>
          <Trackpoint>
            <Time>2019-10-04T14:50:34.000Z</Time>
            <Position>
              <LatitudeDegrees>43.01336565054953098297119140625</LatitudeDegrees>
              <LongitudeDegrees>-5.771356411278247833251953125</LongitudeDegrees>
            </Position>
            <AltitudeMeters>1017.5999755859375</AltitudeMeters>
            <DistanceMeters>NAN</DistanceMeters>
          </Trackpoint>
          <Trackpoint>
            <Time>2019-10-04T14:50:40.000Z</Time>
            <Position>
              <LatitudeDegrees>43.01335207186639308929443359375</LatitudeDegrees>
              <LongitudeDegrees>-5.77151541598141193389892578125</LongitudeDegrees>
            </Position>
            <AltitudeMeters>1018.20001220703125</AltitudeMeters>
            <DistanceMeters>NAN</DistanceMeters>
          </Trackpoint>
          <Trackpoint>
            <Time>2019-10-04T14:50:42.000Z</Time>
            <Position>
              <LatitudeDegrees>43.01335207186639308929443359375</LatitudeDegrees>
              <LongitudeDegrees>-5.77157006599009037017822265625</LongitudeDegrees>
            </Position>
            <AltitudeMeters>1018.5999755859375</AltitudeMeters>
            <DistanceMeters>NAN</DistanceMeters>
          </Trackpoint>
          <Trackpoint>
            <Time>2019-10-04T14:50:49.000Z</Time>
            <Position>
              <LatitudeDegrees>43.01334989257156848907470703125</LatitudeDegrees>
              <LongitudeDegrees>-5.771753378212451934814453125</LongitudeDegrees>
            </Position>
            <AltitudeMeters>1019.5999755859375</AltitudeMeters>
            <DistanceMeters>NAN</DistanceMeters>
          </Trackpoint>
          <Trackpoint>
            <Time>2019-10-04T14:50:53.000Z</Time>
            <Position>
              <LatitudeDegrees>43.01334553398191928863525390625</LatitudeDegrees>
              <LongitudeDegrees>-5.77185957692563533782958984375</LongitudeDegrees>
            </Position>
            <AltitudeMeters>1020</AltitudeMeters>
            <DistanceMeters>NAN</DistanceMeters>
          </Trackpoint>
          <Trackpoint>
            <Time>2019-10-04T14:50:56.000Z</Time>
            <Position>
              <LatitudeDegrees>43.0133422650396823883056640625</LatitudeDegrees>
              <LongitudeDegrees>-5.77193434350192546844482421875</LongitudeDegrees>
            </Position>
            <AltitudeMeters>1020.79998779296875</AltitudeMeters>
            <DistanceMeters>NAN</DistanceMeters>
          </Trackpoint>
          <Trackpoint>
            <Time>2019-10-04T14:50:57.000Z</Time>
            <Position>
              <LatitudeDegrees>43.01334117539227008819580078125</LatitudeDegrees>
              <LongitudeDegrees>-5.771961249411106109619140625</LongitudeDegrees>
            </Position>
            <AltitudeMeters>1020.79998779296875</AltitudeMeters>
            <DistanceMeters>NAN</DistanceMeters>
          </Trackpoint>
          <Trackpoint>
            <Time>2019-10-04T14:51:03.000Z</Time>
            <Position>
              <LatitudeDegrees>43.01333648152649402618408203125</LatitudeDegrees>
              <LongitudeDegrees>-5.77211790718138217926025390625</LongitudeDegrees>
            </Position>
            <AltitudeMeters>1021.79998779296875</AltitudeMeters>
            <DistanceMeters>NAN</DistanceMeters>
          </Trackpoint>
          <Trackpoint>
            <Time>2019-10-04T14:51:08.000Z</Time>
            <Position>
              <LatitudeDegrees>43.013333380222320556640625</LatitudeDegrees>
              <LongitudeDegrees>-5.7722457312047481536865234375</LongitudeDegrees>
            </Position>
            <AltitudeMeters>1022.4000244140625</AltitudeMeters>
            <DistanceMeters>NAN</DistanceMeters>
          </Trackpoint>
          <Trackpoint>
            <Time>2019-10-04T14:51:13.000Z</Time>
            <Position>
              <LatitudeDegrees>43.01332206465303897857666015625</LatitudeDegrees>
              <LongitudeDegrees>-5.77237539924681186676025390625</LongitudeDegrees>
            </Position>
            <AltitudeMeters>1023.20001220703125</AltitudeMeters>
            <DistanceMeters>NAN</DistanceMeters>
          </Trackpoint>
          <Trackpoint>
            <Time>2019-10-04T14:51:20.000Z</Time>
            <Position>
              <LatitudeDegrees>43.0132963322103023529052734375</LatitudeDegrees>
              <LongitudeDegrees>-5.77254655770957469940185546875</LongitudeDegrees>
            </Position>
            <AltitudeMeters>1024.4000244140625</AltitudeMeters>
            <DistanceMeters>NAN</DistanceMeters>
          </Trackpoint>
          <Trackpoint>
            <Time>2019-10-04T14:51:27.000Z</Time>
            <Position>
              <LatitudeDegrees>43.01326842047274112701416015625</LatitudeDegrees>
              <LongitudeDegrees>-5.7727201469242572784423828125</LongitudeDegrees>
            </Position>
            <AltitudeMeters>1025.4000244140625</AltitudeMeters>
            <DistanceMeters>NAN</DistanceMeters>
          </Trackpoint>
          <Trackpoint>
            <Time>2019-10-04T14:51:32.000Z</Time>
            <Position>
              <LatitudeDegrees>43.013245873153209686279296875</LatitudeDegrees>
              <LongitudeDegrees>-5.77284671366214752197265625</LongitudeDegrees>
            </Position>
            <AltitudeMeters>1025.800048828125</AltitudeMeters>
            <DistanceMeters>NAN</DistanceMeters>
          </Trackpoint>
          <Trackpoint>
            <Time>2019-10-04T14:51:36.000Z</Time>
            <Position>
              <LatitudeDegrees>43.013223074376583099365234375</LatitudeDegrees>
              <LongitudeDegrees>-5.7729439437389373779296875</LongitudeDegrees>
            </Position>
            <AltitudeMeters>1026.4000244140625</AltitudeMeters>
            <DistanceMeters>NAN</DistanceMeters>
          </Trackpoint>
          <Trackpoint>
            <Time>2019-10-04T14:51:42.000Z</Time>
            <Position>
              <LatitudeDegrees>43.01318745128810405731201171875</LatitudeDegrees>
              <LongitudeDegrees>-5.77308970503509044647216796875</LongitudeDegrees>
            </Position>
            <AltitudeMeters>1027.5999755859375</AltitudeMeters>
            <DistanceMeters>NAN</DistanceMeters>
          </Trackpoint>
          <Trackpoint>
            <Time>2019-10-04T14:51:43.000Z</Time>
            <Position>
              <LatitudeDegrees>43.013180829584598541259765625</LatitudeDegrees>
              <LongitudeDegrees>-5.77311451546847820281982421875</LongitudeDegrees>
            </Position>
            <AltitudeMeters>1027.800048828125</AltitudeMeters>
            <DistanceMeters>NAN</DistanceMeters>
          </Trackpoint>
          <Trackpoint>
            <Time>2019-10-04T14:51:47.000Z</Time>
            <Position>
              <LatitudeDegrees>43.013155348598957061767578125</LatitudeDegrees>
              <LongitudeDegrees>-5.773211829364299774169921875</LongitudeDegrees>
            </Position>
            <AltitudeMeters>1028.5999755859375</AltitudeMeters>
            <DistanceMeters>NAN</DistanceMeters>
          </Trackpoint>
          <Trackpoint>
            <Time>2019-10-04T14:51:53.000Z</Time>
            <Position>
              <LatitudeDegrees>43.0131089128553867340087890625</LatitudeDegrees>
              <LongitudeDegrees>-5.7733476161956787109375</LongitudeDegrees>
            </Position>
            <AltitudeMeters>1029.199951171875</AltitudeMeters>
            <DistanceMeters>NAN</DistanceMeters>
          </Trackpoint>
          <Trackpoint>
            <Time>2019-10-04T14:51:57.000Z</Time>
            <Position>
              <LatitudeDegrees>43.01307815127074718475341796875</LatitudeDegrees>
              <LongitudeDegrees>-5.77344258315861225128173828125</LongitudeDegrees>
            </Position>
            <AltitudeMeters>1029.5999755859375</AltitudeMeters>
            <DistanceMeters>NAN</DistanceMeters>
          </Trackpoint>
          <Trackpoint>
            <Time>2019-10-04T14:52:02.000Z</Time>
            <Position>
              <LatitudeDegrees>43.01303339190781116485595703125</LatitudeDegrees>
              <LongitudeDegrees>-5.77355909161269664764404296875</LongitudeDegrees>
            </Position>
            <AltitudeMeters>1030.5999755859375</AltitudeMeters>
            <DistanceMeters>NAN</DistanceMeters>
          </Trackpoint>
          <Trackpoint>
            <Time>2019-10-04T14:52:04.000Z</Time>
            <Position>
              <LatitudeDegrees>43.01301662810146808624267578125</LatitudeDegrees>
              <LongitudeDegrees>-5.77360519208014011383056640625</LongitudeDegrees>
            </Position>
            <AltitudeMeters>1030.800048828125</AltitudeMeters>
            <DistanceMeters>NAN</DistanceMeters>
          </Trackpoint>
          <Trackpoint>
            <Time>2019-10-04T14:52:12.000Z</Time>
            <Position>
              <LatitudeDegrees>43.01294471137225627899169921875</LatitudeDegrees>
              <LongitudeDegrees>-5.77378749847412109375</LongitudeDegrees>
            </Position>
            <AltitudeMeters>1032</AltitudeMeters>
            <DistanceMeters>NAN</DistanceMeters>
          </Trackpoint>
          <Trackpoint>
            <Time>2019-10-04T14:52:13.000Z</Time>
            <Position>
              <LatitudeDegrees>43.01293649710714817047119140625</LatitudeDegrees>
              <LongitudeDegrees>-5.773815996944904327392578125</LongitudeDegrees>
            </Position>
            <AltitudeMeters>1032</AltitudeMeters>
            <DistanceMeters>NAN</DistanceMeters>
          </Trackpoint>
          <Trackpoint>
            <Time>2019-10-04T14:52:18.000Z</Time>
            <Position>
              <LatitudeDegrees>43.0128883011639118194580078125</LatitudeDegrees>
              <LongitudeDegrees>-5.77392856590449810028076171875</LongitudeDegrees>
            </Position>
            <AltitudeMeters>1033</AltitudeMeters>
            <DistanceMeters>NAN</DistanceMeters>
          </Trackpoint>
          <Trackpoint>
            <Time>2019-10-04T14:52:23.000Z</Time>
            <Position>
              <LatitudeDegrees>43.01283247768878936767578125</LatitudeDegrees>
              <LongitudeDegrees>-5.774041973054409027099609375</LongitudeDegrees>
            </Position>
            <AltitudeMeters>1033.800048828125</AltitudeMeters>
            <DistanceMeters>NAN</DistanceMeters>
          </Trackpoint>
          <Trackpoint>
            <Time>2019-10-04T14:52:25.000Z</Time>
            <Position>
              <LatitudeDegrees>43.01281076855957508087158203125</LatitudeDegrees>
              <LongitudeDegrees>-5.7740867324173450469970703125</LongitudeDegrees>
            </Position>
            <AltitudeMeters>1034</AltitudeMeters>
            <DistanceMeters>NAN</DistanceMeters>
          </Trackpoint>
          <Trackpoint>
            <Time>2019-10-04T14:52:32.000Z</Time>
            <Position>
              <LatitudeDegrees>43.01273130811750888824462890625</LatitudeDegrees>
              <LongitudeDegrees>-5.77422629110515117645263671875</LongitudeDegrees>
            </Position>
            <AltitudeMeters>1035.199951171875</AltitudeMeters>
            <DistanceMeters>NAN</DistanceMeters>
          </Trackpoint>
          <Trackpoint>
            <Time>2019-10-04T14:52:37.000Z</Time>
            <Position>
              <LatitudeDegrees>43.0126542784273624420166015625</LatitudeDegrees>
              <LongitudeDegrees>-5.7743009738624095916748046875</LongitudeDegrees>
            </Position>
            <AltitudeMeters>1036.199951171875</AltitudeMeters>
            <DistanceMeters>NAN</DistanceMeters>
          </Trackpoint>
          <Trackpoint>
            <Time>2019-10-04T14:52:41.000Z</Time>
            <Position>
              <LatitudeDegrees>43.012588061392307281494140625</LatitudeDegrees>
              <LongitudeDegrees>-5.77433324418962001800537109375</LongitudeDegrees>
            </Position>
            <AltitudeMeters>1037</AltitudeMeters>
            <DistanceMeters>NAN</DistanceMeters>
          </Trackpoint>
          <Trackpoint>
            <Time>2019-10-04T14:52:44.000Z</Time>
            <Position>
              <LatitudeDegrees>43.012535758316516876220703125</LatitudeDegrees>
              <LongitudeDegrees>-5.774348080158233642578125</LongitudeDegrees>
            </Position>
            <AltitudeMeters>1037.4000244140625</AltitudeMeters>
            <DistanceMeters>NAN</DistanceMeters>
          </Trackpoint>
          <Trackpoint>
            <Time>2019-10-04T14:52:48.000Z</Time>
            <Position>
              <LatitudeDegrees>43.01246635615825653076171875</LatitudeDegrees>
              <LongitudeDegrees>-5.7743640057742595672607421875</LongitudeDegrees>
            </Position>
            <AltitudeMeters>1038.4000244140625</AltitudeMeters>
            <DistanceMeters>NAN</DistanceMeters>
          </Trackpoint>
          <Trackpoint>
            <Time>2019-10-04T14:52:51.000Z</Time>
            <Position>
              <LatitudeDegrees>43.01241497509181499481201171875</LatitudeDegrees>
              <LongitudeDegrees>-5.77436157502233982086181640625</LongitudeDegrees>
            </Position>
            <AltitudeMeters>1039</AltitudeMeters>
            <DistanceMeters>NAN</DistanceMeters>
          </Trackpoint>
          <Trackpoint>
            <Time>2019-10-04T14:52:54.000Z</Time>
            <Position>
              <LatitudeDegrees>43.01236384548246860504150390625</LatitudeDegrees>
              <LongitudeDegrees>-5.77435403130948543548583984375</LongitudeDegrees>
            </Position>
            <AltitudeMeters>1039.5999755859375</AltitudeMeters>
            <DistanceMeters>NAN</DistanceMeters>
          </Trackpoint>
          <Trackpoint>
            <Time>2019-10-04T14:52:58.000Z</Time>
            <Position>
              <LatitudeDegrees>43.01229695789515972137451171875</LatitudeDegrees>
              <LongitudeDegrees>-5.7743304781615734100341796875</LongitudeDegrees>
            </Position>
            <AltitudeMeters>1040</AltitudeMeters>
            <DistanceMeters>NAN</DistanceMeters>
          </Trackpoint>
          <Trackpoint>
            <Time>2019-10-04T14:53:01.000Z</Time>
            <Position>
              <LatitudeDegrees>43.01225253380835056304931640625</LatitudeDegrees>
              <LongitudeDegrees>-5.77432301826775074005126953125</LongitudeDegrees>
            </Position>
            <AltitudeMeters>1040.800048828125</AltitudeMeters>
            <DistanceMeters>NAN</DistanceMeters>
          </Trackpoint>
          <Trackpoint>
            <Time>2019-10-04T14:53:04.000Z</Time>
            <Position>
              <LatitudeDegrees>43.012204505503177642822265625</LatitudeDegrees>
              <LongitudeDegrees>-5.77429351396858692169189453125</LongitudeDegrees>
            </Position>
            <AltitudeMeters>1041</AltitudeMeters>
            <DistanceMeters>NAN</DistanceMeters>
          </Trackpoint>
          <Trackpoint>
            <Time>2019-10-04T14:53:05.000Z</Time>
            <Position>
              <LatitudeDegrees>43.01218807697296142578125</LatitudeDegrees>
              <LongitudeDegrees>-5.7742838747799396514892578125</LongitudeDegrees>
            </Position>
            <AltitudeMeters>1041.4000244140625</AltitudeMeters>
            <DistanceMeters>NAN</DistanceMeters>
          </Trackpoint>
          <Trackpoint>
            <Time>2019-10-04T14:53:07.000Z</Time>
            <Position>
              <LatitudeDegrees>43.012155555188655853271484375</LatitudeDegrees>
              <LongitudeDegrees>-5.7742637582123279571533203125</LongitudeDegrees>
            </Position>
            <AltitudeMeters>1041.800048828125</AltitudeMeters>
            <DistanceMeters>NAN</DistanceMeters>
          </Trackpoint>
          <Trackpoint>
            <Time>2019-10-04T14:53:12.000Z</Time>
            <Position>
              <LatitudeDegrees>43.0120754241943359375</LatitudeDegrees>
              <LongitudeDegrees>-5.7742168195545673370361328125</LongitudeDegrees>
            </Position>
            <AltitudeMeters>1042.800048828125</AltitudeMeters>
            <DistanceMeters>NAN</DistanceMeters>
          </Trackpoint>
          <Trackpoint>
            <Time>2019-10-04T14:53:14.000Z</Time>
            <Position>
              <LatitudeDegrees>43.0120470933616161346435546875</LatitudeDegrees>
              <LongitudeDegrees>-5.77419309876859188079833984375</LongitudeDegrees>
            </Position>
            <AltitudeMeters>1043</AltitudeMeters>
            <DistanceMeters>NAN</DistanceMeters>
          </Trackpoint>
          <Trackpoint>
            <Time>2019-10-04T14:53:19.000Z</Time>
            <Position>
              <LatitudeDegrees>43.01197458989918231964111328125</LatitudeDegrees>
              <LongitudeDegrees>-5.77413241378962993621826171875</LongitudeDegrees>
            </Position>
            <AltitudeMeters>1044</AltitudeMeters>
            <DistanceMeters>NAN</DistanceMeters>
          </Trackpoint>
          <Trackpoint>
            <Time>2019-10-04T14:53:22.000Z</Time>
            <Position>
              <LatitudeDegrees>43.01193838007748126983642578125</LatitudeDegrees>
              <LongitudeDegrees>-5.77408715151250362396240234375</LongitudeDegrees>
            </Position>
            <AltitudeMeters>1044.800048828125</AltitudeMeters>
            <DistanceMeters>NAN</DistanceMeters>
          </Trackpoint>
          <Trackpoint>
            <Time>2019-10-04T14:53:26.000Z</Time>
            <Position>
              <LatitudeDegrees>43.011892028152942657470703125</LatitudeDegrees>
              <LongitudeDegrees>-5.77401624061167240142822265625</LongitudeDegrees>
            </Position>
            <AltitudeMeters>1045.199951171875</AltitudeMeters>
            <DistanceMeters>NAN</DistanceMeters>
          </Trackpoint>
          <Trackpoint>
            <Time>2019-10-04T14:53:32.000Z</Time>
            <Position>
              <LatitudeDegrees>43.01183695904910564422607421875</LatitudeDegrees>
              <LongitudeDegrees>-5.77389269135892391204833984375</LongitudeDegrees>
            </Position>
            <AltitudeMeters>1046.4000244140625</AltitudeMeters>
            <DistanceMeters>NAN</DistanceMeters>
          </Trackpoint>
          <Trackpoint>
            <Time>2019-10-04T14:53:33.000Z</Time>
            <Position>
              <LatitudeDegrees>43.01182924769818782806396484375</LatitudeDegrees>
              <LongitudeDegrees>-5.77387039549648761749267578125</LongitudeDegrees>
            </Position>
            <AltitudeMeters>1046.5999755859375</AltitudeMeters>
            <DistanceMeters>NAN</DistanceMeters>
          </Trackpoint>
          <Trackpoint>
            <Time>2019-10-04T14:53:38.000Z</Time>
            <Position>
              <LatitudeDegrees>43.0117966420948505401611328125</LatitudeDegrees>
              <LongitudeDegrees>-5.77374483458697795867919921875</LongitudeDegrees>
            </Position>
            <AltitudeMeters>1047.4000244140625</AltitudeMeters>
            <DistanceMeters>NAN</DistanceMeters>
          </Trackpoint>
          <Trackpoint>
            <Time>2019-10-04T14:53:43.000Z</Time>
            <Position>
              <LatitudeDegrees>43.0117790400981903076171875</LatitudeDegrees>
              <LongitudeDegrees>-5.77361474744975566864013671875</LongitudeDegrees>
            </Position>
            <AltitudeMeters>1048</AltitudeMeters>
            <DistanceMeters>NAN</DistanceMeters>
          </Trackpoint>
          <Trackpoint>
            <Time>2019-10-04T14:53:47.000Z</Time>
            <Position>
              <LatitudeDegrees>43.01176688633859157562255859375</LatitudeDegrees>
              <LongitudeDegrees>-5.77351282350718975067138671875</LongitudeDegrees>
            </Position>
            <AltitudeMeters>1048.5999755859375</AltitudeMeters>
            <DistanceMeters>NAN</DistanceMeters>
          </Trackpoint>
          <Trackpoint>
            <Time>2019-10-04T14:53:52.000Z</Time>
            <Position>
              <LatitudeDegrees>43.01175230182707309722900390625</LatitudeDegrees>
              <LongitudeDegrees>-5.7733860053122043609619140625</LongitudeDegrees>
            </Position>
            <AltitudeMeters>1049.5999755859375</AltitudeMeters>
            <DistanceMeters>NAN</DistanceMeters>
          </Trackpoint>
          <Trackpoint>
            <Time>2019-10-04T14:53:53.000Z</Time>
            <Position>
              <LatitudeDegrees>43.01175062544643878936767578125</LatitudeDegrees>
              <LongitudeDegrees>-5.77336044050753116607666015625</LongitudeDegrees>
            </Position>
            <AltitudeMeters>1049.5999755859375</AltitudeMeters>
            <DistanceMeters>NAN</DistanceMeters>
          </Trackpoint>
          <Trackpoint>
            <Time>2019-10-04T14:53:59.000Z</Time>
            <Position>
              <LatitudeDegrees>43.01174056716263294219970703125</LatitudeDegrees>
              <LongitudeDegrees>-5.7732062973082065582275390625</LongitudeDegrees>
            </Position>
            <AltitudeMeters>1050.800048828125</AltitudeMeters>
            <DistanceMeters>NAN</DistanceMeters>
          </Trackpoint>
          <Trackpoint>
            <Time>2019-10-04T14:54:00.000Z</Time>
            <Position>
              <LatitudeDegrees>43.01173838786780834197998046875</LatitudeDegrees>
              <LongitudeDegrees>-5.77318173833191394805908203125</LongitudeDegrees>
            </Position>
            <AltitudeMeters>1051</AltitudeMeters>
            <DistanceMeters>NAN</DistanceMeters>
          </Trackpoint>
          <Trackpoint>
            <Time>2019-10-04T14:54:04.000Z</Time>
            <Position>
              <LatitudeDegrees>43.011732436716556549072265625</LatitudeDegrees>
              <LongitudeDegrees>-5.7730829156935214996337890625</LongitudeDegrees>
            </Position>
            <AltitudeMeters>1052</AltitudeMeters>
            <DistanceMeters>NAN</DistanceMeters>
          </Trackpoint>
          <Trackpoint>
            <Time>2019-10-04T14:54:10.000Z</Time>
            <Position>
              <LatitudeDegrees>43.01172162406146526336669921875</LatitudeDegrees>
              <LongitudeDegrees>-5.7729320414364337921142578125</LongitudeDegrees>
            </Position>
            <AltitudeMeters>1052.800048828125</AltitudeMeters>
            <DistanceMeters>NAN</DistanceMeters>
          </Trackpoint>
          <Trackpoint>
            <Time>2019-10-04T14:54:11.000Z</Time>
            <Position>
              <LatitudeDegrees>43.01172095350921154022216796875</LatitudeDegrees>
              <LongitudeDegrees>-5.77290647663176059722900390625</LongitudeDegrees>
            </Position>
            <AltitudeMeters>1053</AltitudeMeters>
            <DistanceMeters>NAN</DistanceMeters>
          </Trackpoint>
          <Trackpoint>
            <Time>2019-10-04T14:54:19.000Z</Time>
            <Position>
              <LatitudeDegrees>43.01169253885746002197265625</LatitudeDegrees>
              <LongitudeDegrees>-5.77271034009754657745361328125</LongitudeDegrees>
            </Position>
            <AltitudeMeters>1054.199951171875</AltitudeMeters>
            <DistanceMeters>NAN</DistanceMeters>
          </Trackpoint>
          <Trackpoint>
            <Time>2019-10-04T14:54:25.000Z</Time>
            <Position>
              <LatitudeDegrees>43.01168323494493961334228515625</LatitudeDegrees>
              <LongitudeDegrees>-5.772568099200725555419921875</LongitudeDegrees>
            </Position>
            <AltitudeMeters>1055.199951171875</AltitudeMeters>
            <DistanceMeters>NAN</DistanceMeters>
          </Trackpoint>
          <Trackpoint>
            <Time>2019-10-04T14:54:26.000Z</Time>
            <Position>
              <LatitudeDegrees>43.01168055273592472076416015625</LatitudeDegrees>
              <LongitudeDegrees>-5.772546641528606414794921875</LongitudeDegrees>
            </Position>
            <AltitudeMeters>1055.4000244140625</AltitudeMeters>
            <DistanceMeters>NAN</DistanceMeters>
          </Trackpoint>
          <Trackpoint>
            <Time>2019-10-04T14:54:29.000Z</Time>
            <Position>
              <LatitudeDegrees>43.01167267374694347381591796875</LatitudeDegrees>
              <LongitudeDegrees>-5.7724800892174243927001953125</LongitudeDegrees>
            </Position>
            <AltitudeMeters>1056.4000244140625</AltitudeMeters>
            <DistanceMeters>NAN</DistanceMeters>
          </Trackpoint>
          <Trackpoint>
            <Time>2019-10-04T14:54:35.000Z</Time>
            <Position>
              <LatitudeDegrees>43.01163864322006702423095703125</LatitudeDegrees>
              <LongitudeDegrees>-5.772353522479534149169921875</LongitudeDegrees>
            </Position>
            <AltitudeMeters>1057.4000244140625</AltitudeMeters>
            <DistanceMeters>NAN</DistanceMeters>
          </Trackpoint>
          <Trackpoint>
            <Time>2019-10-04T14:54:42.000Z</Time>
            <Position>
              <LatitudeDegrees>43.011613748967647552490234375</LatitudeDegrees>
              <LongitudeDegrees>-5.77218915335834026336669921875</LongitudeDegrees>
            </Position>
            <AltitudeMeters>1058.800048828125</AltitudeMeters>
            <DistanceMeters>NAN</DistanceMeters>
          </Trackpoint>
          <Trackpoint>
            <Time>2019-10-04T14:54:44.000Z</Time>
            <Position>
              <LatitudeDegrees>43.01161073148250579833984375</LatitudeDegrees>
              <LongitudeDegrees>-5.77214087359607219696044921875</LongitudeDegrees>
            </Position>
            <AltitudeMeters>1059.4000244140625</AltitudeMeters>
            <DistanceMeters>NAN</DistanceMeters>
          </Trackpoint>
          <Trackpoint>
            <Time>2019-10-04T14:54:49.000Z</Time>
            <Position>
              <LatitudeDegrees>43.0115884356200695037841796875</LatitudeDegrees>
              <LongitudeDegrees>-5.77203400433063507080078125</LongitudeDegrees>
            </Position>
            <AltitudeMeters>1060</AltitudeMeters>
            <DistanceMeters>NAN</DistanceMeters>
          </Trackpoint>
          <Trackpoint>
            <Time>2019-10-04T14:54:51.000Z</Time>
            <Position>
              <LatitudeDegrees>43.0115874297916889190673828125</LatitudeDegrees>
              <LongitudeDegrees>-5.771985389292240142822265625</LongitudeDegrees>
            </Position>
            <AltitudeMeters>1060.4000244140625</AltitudeMeters>
            <DistanceMeters>NAN</DistanceMeters>
          </Trackpoint>
          <Trackpoint>
            <Time>2019-10-04T14:54:53.000Z</Time>
            <Position>
              <LatitudeDegrees>43.011582903563976287841796875</LatitudeDegrees>
              <LongitudeDegrees>-5.77193618752062320709228515625</LongitudeDegrees>
            </Position>
            <AltitudeMeters>1061.4000244140625</AltitudeMeters>
            <DistanceMeters>NAN</DistanceMeters>
          </Trackpoint>
          <Trackpoint>
            <Time>2019-10-04T14:54:59.000Z</Time>
            <Position>
              <LatitudeDegrees>43.01159732043743133544921875</LatitudeDegrees>
              <LongitudeDegrees>-5.77178833074867725372314453125</LongitudeDegrees>
            </Position>
            <AltitudeMeters>1062</AltitudeMeters>
            <DistanceMeters>NAN</DistanceMeters>
          </Trackpoint>
          <Trackpoint>
            <Time>2019-10-04T14:55:03.000Z</Time>
            <Position>
              <LatitudeDegrees>43.011626489460468292236328125</LatitudeDegrees>
              <LongitudeDegrees>-5.77168338932096958160400390625</LongitudeDegrees>
            </Position>
            <AltitudeMeters>1062.4000244140625</AltitudeMeters>
            <DistanceMeters>NAN</DistanceMeters>
          </Trackpoint>
          <Trackpoint>
            <Time>2019-10-04T14:55:11.000Z</Time>
            <Position>
              <LatitudeDegrees>43.0117057822644710540771484375</LatitudeDegrees>
              <LongitudeDegrees>-5.77150150202214717864990234375</LongitudeDegrees>
            </Position>
            <AltitudeMeters>1063</AltitudeMeters>
            <DistanceMeters>NAN</DistanceMeters>
          </Trackpoint>
          <Trackpoint>
            <Time>2019-10-04T14:55:14.000Z</Time>
            <Position>
              <LatitudeDegrees>43.01173813641071319580078125</LatitudeDegrees>
              <LongitudeDegrees>-5.77143092639744281768798828125</LongitudeDegrees>
            </Position>
            <AltitudeMeters>1063.4000244140625</AltitudeMeters>
            <DistanceMeters>NAN</DistanceMeters>
          </Trackpoint>
          <Trackpoint>
            <Time>2019-10-04T14:55:21.000Z</Time>
            <Position>
              <LatitudeDegrees>43.01180225796997547149658203125</LatitudeDegrees>
              <LongitudeDegrees>-5.77125339768826961517333984375</LongitudeDegrees>
            </Position>
            <AltitudeMeters>1063.5999755859375</AltitudeMeters>
            <DistanceMeters>NAN</DistanceMeters>
          </Trackpoint>
          <Trackpoint>
            <Time>2019-10-04T14:55:26.000Z</Time>
            <Position>
              <LatitudeDegrees>43.01184668205678462982177734375</LatitudeDegrees>
              <LongitudeDegrees>-5.771108977496623992919921875</LongitudeDegrees>
            </Position>
            <AltitudeMeters>1064.4000244140625</AltitudeMeters>
            <DistanceMeters>NAN</DistanceMeters>
          </Trackpoint>
          <Trackpoint>
            <Time>2019-10-04T14:55:30.000Z</Time>
            <Position>
              <LatitudeDegrees>43.01187492907047271728515625</LatitudeDegrees>
              <LongitudeDegrees>-5.770996324717998504638671875</LongitudeDegrees>
            </Position>
            <AltitudeMeters>1064.5999755859375</AltitudeMeters>
            <DistanceMeters>NAN</DistanceMeters>
          </Trackpoint>
          <Trackpoint>
            <Time>2019-10-04T14:55:36.000Z</Time>
            <Position>
              <LatitudeDegrees>43.01190652884542942047119140625</LatitudeDegrees>
              <LongitudeDegrees>-5.7708211429417133331298828125</LongitudeDegrees>
            </Position>
            <AltitudeMeters>1065.5999755859375</AltitudeMeters>
            <DistanceMeters>NAN</DistanceMeters>
          </Trackpoint>
          <Trackpoint>
            <Time>2019-10-04T14:55:40.000Z</Time>
            <Position>
              <LatitudeDegrees>43.01191206090152263641357421875</LatitudeDegrees>
              <LongitudeDegrees>-5.7707024551928043365478515625</LongitudeDegrees>
            </Position>
            <AltitudeMeters>1066</AltitudeMeters>
            <DistanceMeters>NAN</DistanceMeters>
          </Trackpoint>
          <Trackpoint>
            <Time>2019-10-04T14:55:47.000Z</Time>
            <Position>
              <LatitudeDegrees>43.01188305951654911041259765625</LatitudeDegrees>
              <LongitudeDegrees>-5.77049483545124530792236328125</LongitudeDegrees>
            </Position>
            <AltitudeMeters>1066.800048828125</AltitudeMeters>
            <DistanceMeters>NAN</DistanceMeters>
          </Trackpoint>
          <Trackpoint>
            <Time>2019-10-04T14:55:50.000Z</Time>
            <Position>
              <LatitudeDegrees>43.01185883581638336181640625</LatitudeDegrees>
              <LongitudeDegrees>-5.770410597324371337890625</LongitudeDegrees>
            </Position>
            <AltitudeMeters>1067</AltitudeMeters>
            <DistanceMeters>NAN</DistanceMeters>
          </Trackpoint>
          <Trackpoint>
            <Time>2019-10-04T14:55:55.000Z</Time>
            <Position>
              <LatitudeDegrees>43.01182187162339687347412109375</LatitudeDegrees>
              <LongitudeDegrees>-5.7702773250639438629150390625</LongitudeDegrees>
            </Position>
            <AltitudeMeters>1067.800048828125</AltitudeMeters>
            <DistanceMeters>NAN</DistanceMeters>
          </Trackpoint>
          <Trackpoint>
            <Time>2019-10-04T14:56:01.000Z</Time>
            <Position>
              <LatitudeDegrees>43.0117758549749851226806640625</LatitudeDegrees>
              <LongitudeDegrees>-5.7701222598552703857421875</LongitudeDegrees>
            </Position>
            <AltitudeMeters>1068.5999755859375</AltitudeMeters>
            <DistanceMeters>NAN</DistanceMeters>
          </Trackpoint>
          <Trackpoint>
            <Time>2019-10-04T14:56:02.000Z</Time>
            <Position>
              <LatitudeDegrees>43.01176588051021099090576171875</LatitudeDegrees>
              <LongitudeDegrees>-5.770097784698009490966796875</LongitudeDegrees>
            </Position>
            <AltitudeMeters>1068.800048828125</AltitudeMeters>
            <DistanceMeters>NAN</DistanceMeters>
          </Trackpoint>
          <Trackpoint>
            <Time>2019-10-04T14:56:10.000Z</Time>
            <Position>
              <LatitudeDegrees>43.0116668902337551116943359375</LatitudeDegrees>
              <LongitudeDegrees>-5.7699272967875003814697265625</LongitudeDegrees>
            </Position>
            <AltitudeMeters>1069.800048828125</AltitudeMeters>
            <DistanceMeters>NAN</DistanceMeters>
          </Trackpoint>
          <Trackpoint>
            <Time>2019-10-04T14:56:11.000Z</Time>
            <Position>
              <LatitudeDegrees>43.01165205426514148712158203125</LatitudeDegrees>
              <LongitudeDegrees>-5.76990307308733463287353515625</LongitudeDegrees>
            </Position>
            <AltitudeMeters>1069.800048828125</AltitudeMeters>
            <DistanceMeters>NAN</DistanceMeters>
          </Trackpoint>
          <Trackpoint>
            <Time>2019-10-04T14:56:18.000Z</Time>
            <Position>
              <LatitudeDegrees>43.01156521774828433990478515625</LatitudeDegrees>
              <LongitudeDegrees>-5.76974297873675823211669921875</LongitudeDegrees>
            </Position>
            <AltitudeMeters>1071</AltitudeMeters>
            <DistanceMeters>NAN</DistanceMeters>
          </Trackpoint>
          <Trackpoint>
            <Time>2019-10-04T14:56:20.000Z</Time>
            <Position>
              <LatitudeDegrees>43.01153738982975482940673828125</LatitudeDegrees>
              <LongitudeDegrees>-5.7696959562599658966064453125</LongitudeDegrees>
            </Position>
            <AltitudeMeters>1071.199951171875</AltitudeMeters>
            <DistanceMeters>NAN</DistanceMeters>
          </Trackpoint>
          <Trackpoint>
            <Time>2019-10-04T14:56:27.000Z</Time>
            <Position>
              <LatitudeDegrees>43.0114543251693248748779296875</LatitudeDegrees>
              <LongitudeDegrees>-5.76952907256782054901123046875</LongitudeDegrees>
            </Position>
            <AltitudeMeters>1072</AltitudeMeters>
            <DistanceMeters>NAN</DistanceMeters>
          </Trackpoint>
          <Trackpoint>
            <Time>2019-10-04T14:56:29.000Z</Time>
            <Position>
              <LatitudeDegrees>43.01142859272658824920654296875</LatitudeDegrees>
              <LongitudeDegrees>-5.769481547176837921142578125</LongitudeDegrees>
            </Position>
            <AltitudeMeters>1071.800048828125</AltitudeMeters>
            <DistanceMeters>NAN</DistanceMeters>
          </Trackpoint>
          <Trackpoint>
            <Time>2019-10-04T14:56:36.000Z</Time>
            <Position>
              <LatitudeDegrees>43.01134494133293628692626953125</LatitudeDegrees>
              <LongitudeDegrees>-5.76932287774980068206787109375</LongitudeDegrees>
            </Position>
            <AltitudeMeters>1073.199951171875</AltitudeMeters>
            <DistanceMeters>NAN</DistanceMeters>
          </Trackpoint>
          <Trackpoint>
            <Time>2019-10-04T14:56:37.000Z</Time>
            <Position>
              <LatitudeDegrees>43.01133018918335437774658203125</LatitudeDegrees>
              <LongitudeDegrees>-5.769301839172840118408203125</LongitudeDegrees>
            </Position>
            <AltitudeMeters>1073.199951171875</AltitudeMeters>
            <DistanceMeters>NAN</DistanceMeters>
          </Trackpoint>
          <Trackpoint>
            <Time>2019-10-04T14:56:46.000Z</Time>
            <Position>
              <LatitudeDegrees>43.01121150143444538116455078125</LatitudeDegrees>
              <LongitudeDegrees>-5.76910360716283321380615234375</LongitudeDegrees>
            </Position>
            <AltitudeMeters>1073.800048828125</AltitudeMeters>
            <DistanceMeters>NAN</DistanceMeters>
          </Trackpoint>
          <Trackpoint>
            <Time>2019-10-04T14:56:49.000Z</Time>
            <Position>
              <LatitudeDegrees>43.011162467300891876220703125</LatitudeDegrees>
              <LongitudeDegrees>-5.7690421678125858306884765625</LongitudeDegrees>
            </Position>
            <AltitudeMeters>1074.199951171875</AltitudeMeters>
            <DistanceMeters>NAN</DistanceMeters>
          </Trackpoint>
          <Trackpoint>
            <Time>2019-10-04T14:56:53.000Z</Time>
            <Position>
              <LatitudeDegrees>43.01109298132359981536865234375</LatitudeDegrees>
              <LongitudeDegrees>-5.7689662277698516845703125</LongitudeDegrees>
            </Position>
            <AltitudeMeters>1075</AltitudeMeters>
            <DistanceMeters>NAN</DistanceMeters>
          </Trackpoint>
          <Trackpoint>
            <Time>2019-10-04T14:56:54.000Z</Time>
            <Position>
              <LatitudeDegrees>43.01107437349855899810791015625</LatitudeDegrees>
              <LongitudeDegrees>-5.7689546607434749603271484375</LongitudeDegrees>
            </Position>
            <AltitudeMeters>1075.4000244140625</AltitudeMeters>
            <DistanceMeters>NAN</DistanceMeters>
          </Trackpoint>
          <Trackpoint>
            <Time>2019-10-04T14:56:59.000Z</Time>
            <Position>
              <LatitudeDegrees>43.01097814925014972686767578125</LatitudeDegrees>
              <LongitudeDegrees>-5.768884085118770599365234375</LongitudeDegrees>
            </Position>
            <AltitudeMeters>1075.4000244140625</AltitudeMeters>
            <DistanceMeters>NAN</DistanceMeters>
          </Trackpoint>
          <Trackpoint>
            <Time>2019-10-04T14:57:03.000Z</Time>
            <Position>
              <LatitudeDegrees>43.0109048075973987579345703125</LatitudeDegrees>
              <LongitudeDegrees>-5.76882281340658664703369140625</LongitudeDegrees>
            </Position>
            <AltitudeMeters>1076.5999755859375</AltitudeMeters>
            <DistanceMeters>NAN</DistanceMeters>
          </Trackpoint>
          <Trackpoint>
            <Time>2019-10-04T14:57:08.000Z</Time>
            <Position>
              <LatitudeDegrees>43.01082442514598369598388671875</LatitudeDegrees>
              <LongitudeDegrees>-5.768744945526123046875</LongitudeDegrees>
            </Position>
            <AltitudeMeters>1076.800048828125</AltitudeMeters>
            <DistanceMeters>NAN</DistanceMeters>
          </Trackpoint>
          <Trackpoint>
            <Time>2019-10-04T14:57:11.000Z</Time>
            <Position>
              <LatitudeDegrees>43.01078117452561855316162109375</LatitudeDegrees>
              <LongitudeDegrees>-5.7686830870807170867919921875</LongitudeDegrees>
            </Position>
            <AltitudeMeters>1077.5999755859375</AltitudeMeters>
            <DistanceMeters>NAN</DistanceMeters>
          </Trackpoint>
          <Trackpoint>
            <Time>2019-10-04T14:57:17.000Z</Time>
            <Position>
              <LatitudeDegrees>43.0107023008167743682861328125</LatitudeDegrees>
              <LongitudeDegrees>-5.7685473002493381500244140625</LongitudeDegrees>
            </Position>
            <AltitudeMeters>1078.199951171875</AltitudeMeters>
            <DistanceMeters>NAN</DistanceMeters>
          </Trackpoint>
          <Trackpoint>
            <Time>2019-10-04T14:57:18.000Z</Time>
            <Position>
              <LatitudeDegrees>43.01068880595266819000244140625</LatitudeDegrees>
              <LongitudeDegrees>-5.76852425001561641693115234375</LongitudeDegrees>
            </Position>
            <AltitudeMeters>1078.800048828125</AltitudeMeters>
            <DistanceMeters>NAN</DistanceMeters>
          </Trackpoint>
          <Trackpoint>
            <Time>2019-10-04T14:57:24.000Z</Time>
            <Position>
              <LatitudeDegrees>43.01061563193798065185546875</LatitudeDegrees>
              <LongitudeDegrees>-5.76840170659124851226806640625</LongitudeDegrees>
            </Position>
            <AltitudeMeters>1079.4000244140625</AltitudeMeters>
            <DistanceMeters>NAN</DistanceMeters>
          </Trackpoint>
          <Trackpoint>
            <Time>2019-10-04T14:57:29.000Z</Time>
            <Position>
              <LatitudeDegrees>43.0105608142912387847900390625</LatitudeDegrees>
              <LongitudeDegrees>-5.76828922145068645477294921875</LongitudeDegrees>
            </Position>
            <AltitudeMeters>1079.800048828125</AltitudeMeters>
            <DistanceMeters>NAN</DistanceMeters>
          </Trackpoint>
          <Trackpoint>
            <Time>2019-10-04T14:57:33.000Z</Time>
            <Position>
              <LatitudeDegrees>43.01051949150860309600830078125</LatitudeDegrees>
              <LongitudeDegrees>-5.76819752342998981475830078125</LongitudeDegrees>
            </Position>
            <AltitudeMeters>1080.4000244140625</AltitudeMeters>
            <DistanceMeters>NAN</DistanceMeters>
          </Trackpoint>
          <Trackpoint>
            <Time>2019-10-04T14:57:36.000Z</Time>
            <Position>
              <LatitudeDegrees>43.0104924179613590240478515625</LatitudeDegrees>
              <LongitudeDegrees>-5.76812594197690486907958984375</LongitudeDegrees>
            </Position>
            <AltitudeMeters>1081</AltitudeMeters>
            <DistanceMeters>NAN</DistanceMeters>
          </Trackpoint>
          <Trackpoint>
            <Time>2019-10-04T14:57:41.000Z</Time>
            <Position>
              <LatitudeDegrees>43.01045327447354793548583984375</LatitudeDegrees>
              <LongitudeDegrees>-5.76799325644969940185546875</LongitudeDegrees>
            </Position>
            <AltitudeMeters>1081.4000244140625</AltitudeMeters>
            <DistanceMeters>NAN</DistanceMeters>
          </Trackpoint>
          <Trackpoint>
            <Time>2019-10-04T14:57:46.000Z</Time>
            <Position>
              <LatitudeDegrees>43.01041270606219768524169921875</LatitudeDegrees>
              <LongitudeDegrees>-5.76786526478826999664306640625</LongitudeDegrees>
            </Position>
            <AltitudeMeters>1082.199951171875</AltitudeMeters>
            <DistanceMeters>NAN</DistanceMeters>
          </Trackpoint>
          <Trackpoint>
            <Time>2019-10-04T14:57:51.000Z</Time>
            <Position>
              <LatitudeDegrees>43.010379932820796966552734375</LatitudeDegrees>
              <LongitudeDegrees>-5.7677402906119823455810546875</LongitudeDegrees>
            </Position>
            <AltitudeMeters>1083.199951171875</AltitudeMeters>
            <DistanceMeters>NAN</DistanceMeters>
          </Trackpoint>
          <Trackpoint>
            <Time>2019-10-04T14:57:52.000Z</Time>
            <Position>
              <LatitudeDegrees>43.01037280820310115814208984375</LatitudeDegrees>
              <LongitudeDegrees>-5.76771707274019718170166015625</LongitudeDegrees>
            </Position>
            <AltitudeMeters>1083.5999755859375</AltitudeMeters>
            <DistanceMeters>NAN</DistanceMeters>
          </Trackpoint>
          <Trackpoint>
            <Time>2019-10-04T14:57:57.000Z</Time>
            <Position>
              <LatitudeDegrees>43.0103467404842376708984375</LatitudeDegrees>
              <LongitudeDegrees>-5.7675974629819393157958984375</LongitudeDegrees>
            </Position>
            <AltitudeMeters>1084.5999755859375</AltitudeMeters>
            <DistanceMeters>NAN</DistanceMeters>
          </Trackpoint>
          <Trackpoint>
            <Time>2019-10-04T14:58:01.000Z</Time>
            <Position>
              <LatitudeDegrees>43.01031849347054958343505859375</LatitudeDegrees>
              <LongitudeDegrees>-5.76750702224671840667724609375</LongitudeDegrees>
            </Position>
            <AltitudeMeters>1085</AltitudeMeters>
            <DistanceMeters>NAN</DistanceMeters>
          </Trackpoint>
          <Trackpoint>
            <Time>2019-10-04T14:58:05.000Z</Time>
            <Position>
              <LatitudeDegrees>43.010297119617462158203125</LatitudeDegrees>
              <LongitudeDegrees>-5.76742270030081272125244140625</LongitudeDegrees>
            </Position>
            <AltitudeMeters>1085.800048828125</AltitudeMeters>
            <DistanceMeters>NAN</DistanceMeters>
          </Trackpoint>
          <Trackpoint>
            <Time>2019-10-04T14:58:10.000Z</Time>
            <Position>
              <LatitudeDegrees>43.01028328947722911834716796875</LatitudeDegrees>
              <LongitudeDegrees>-5.76732312329113483428955078125</LongitudeDegrees>
            </Position>
            <AltitudeMeters>1086.4000244140625</AltitudeMeters>
            <DistanceMeters>NAN</DistanceMeters>
          </Trackpoint>
          <Trackpoint>
            <Time>2019-10-04T14:58:12.000Z</Time>
            <Position>
              <LatitudeDegrees>43.0102741532027721405029296875</LatitudeDegrees>
              <LongitudeDegrees>-5.7672839798033237457275390625</LongitudeDegrees>
            </Position>
            <AltitudeMeters>1087</AltitudeMeters>
            <DistanceMeters>NAN</DistanceMeters>
          </Trackpoint>
          <Trackpoint>
            <Time>2019-10-04T14:58:16.000Z</Time>
            <Position>
              <LatitudeDegrees>43.01025127060711383819580078125</LatitudeDegrees>
              <LongitudeDegrees>-5.7672048546373844146728515625</LongitudeDegrees>
            </Position>
            <AltitudeMeters>1088.199951171875</AltitudeMeters>
            <DistanceMeters>NAN</DistanceMeters>
          </Trackpoint>
          <Trackpoint>
            <Time>2019-10-04T14:58:18.000Z</Time>
            <Position>
              <LatitudeDegrees>43.0102448165416717529296875</LatitudeDegrees>
              <LongitudeDegrees>-5.76716244220733642578125</LongitudeDegrees>
            </Position>
            <AltitudeMeters>1088.199951171875</AltitudeMeters>
            <DistanceMeters>NAN</DistanceMeters>
          </Trackpoint>
          <Trackpoint>
            <Time>2019-10-04T14:58:19.000Z</Time>
            <Position>
              <LatitudeDegrees>43.0102433077991008758544921875</LatitudeDegrees>
              <LongitudeDegrees>-5.76714090071618556976318359375</LongitudeDegrees>
            </Position>
            <AltitudeMeters>1088.199951171875</AltitudeMeters>
            <DistanceMeters>NAN</DistanceMeters>
          </Trackpoint>
          <Trackpoint>
            <Time>2019-10-04T14:58:22.000Z</Time>
            <Position>
              <LatitudeDegrees>43.01023953594267368316650390625</LatitudeDegrees>
              <LongitudeDegrees>-5.76707116328179836273193359375</LongitudeDegrees>
            </Position>
            <AltitudeMeters>1089.199951171875</AltitudeMeters>
            <DistanceMeters>NAN</DistanceMeters>
          </Trackpoint>
          <Trackpoint>
            <Time>2019-10-04T14:58:26.000Z</Time>
            <Position>
              <LatitudeDegrees>43.010245822370052337646484375</LatitudeDegrees>
              <LongitudeDegrees>-5.7669805549085140228271484375</LongitudeDegrees>
            </Position>
            <AltitudeMeters>1090.4000244140625</AltitudeMeters>
            <DistanceMeters>NAN</DistanceMeters>
          </Trackpoint>
          <Trackpoint>
            <Time>2019-10-04T14:58:31.000Z</Time>
            <Position>
              <LatitudeDegrees>43.01026619039475917816162109375</LatitudeDegrees>
              <LongitudeDegrees>-5.76687117107212543487548828125</LongitudeDegrees>
            </Position>
            <AltitudeMeters>1091.4000244140625</AltitudeMeters>
            <DistanceMeters>NAN</DistanceMeters>
          </Trackpoint>
          <Trackpoint>
            <Time>2019-10-04T14:58:35.000Z</Time>
            <Position>
              <LatitudeDegrees>43.01028094254434108734130859375</LatitudeDegrees>
              <LongitudeDegrees>-5.7667881064116954803466796875</LongitudeDegrees>
            </Position>
            <AltitudeMeters>1092</AltitudeMeters>
            <DistanceMeters>NAN</DistanceMeters>
          </Trackpoint>
          <Trackpoint>
            <Time>2019-10-04T14:58:36.000Z</Time>
            <Position>
              <LatitudeDegrees>43.010283373296260833740234375</LatitudeDegrees>
              <LongitudeDegrees>-5.7667686603963375091552734375</LongitudeDegrees>
            </Position>
            <AltitudeMeters>1092.800048828125</AltitudeMeters>
            <DistanceMeters>NAN</DistanceMeters>
          </Trackpoint>
          <Trackpoint>
            <Time>2019-10-04T14:58:43.000Z</Time>
            <Position>
              <LatitudeDegrees>43.01031463779509067535400390625</LatitudeDegrees>
              <LongitudeDegrees>-5.76663362793624401092529296875</LongitudeDegrees>
            </Position>
            <AltitudeMeters>1093.4000244140625</AltitudeMeters>
            <DistanceMeters>NAN</DistanceMeters>
          </Trackpoint>
          <Trackpoint>
            <Time>2019-10-04T14:58:44.000Z</Time>
            <Position>
              <LatitudeDegrees>43.01031849347054958343505859375</LatitudeDegrees>
              <LongitudeDegrees>-5.76661434955894947052001953125</LongitudeDegrees>
            </Position>
            <AltitudeMeters>1093.800048828125</AltitudeMeters>
            <DistanceMeters>NAN</DistanceMeters>
          </Trackpoint>
          <Trackpoint>
            <Time>2019-10-04T14:58:49.000Z</Time>
            <Position>
              <LatitudeDegrees>43.010333664715290069580078125</LatitudeDegrees>
              <LongitudeDegrees>-5.7665158621966838836669921875</LongitudeDegrees>
            </Position>
            <AltitudeMeters>1094.800048828125</AltitudeMeters>
            <DistanceMeters>NAN</DistanceMeters>
          </Trackpoint>
          <Trackpoint>
            <Time>2019-10-04T14:58:55.000Z</Time>
            <Position>
              <LatitudeDegrees>43.01036576740443706512451171875</LatitudeDegrees>
              <LongitudeDegrees>-5.76639658771455287933349609375</LongitudeDegrees>
            </Position>
            <AltitudeMeters>1095.800048828125</AltitudeMeters>
            <DistanceMeters>NAN</DistanceMeters>
          </Trackpoint>
          <Trackpoint>
            <Time>2019-10-04T14:58:56.000Z</Time>
            <Position>
              <LatitudeDegrees>43.010369874536991119384765625</LatitudeDegrees>
              <LongitudeDegrees>-5.76637730933725833892822265625</LongitudeDegrees>
            </Position>
            <AltitudeMeters>1096.199951171875</AltitudeMeters>
            <DistanceMeters>NAN</DistanceMeters>
          </Trackpoint>
          <Trackpoint>
            <Time>2019-10-04T14:59:00.000Z</Time>
            <Position>
              <LatitudeDegrees>43.0103837884962558746337890625</LatitudeDegrees>
              <LongitudeDegrees>-5.76629952527582645416259765625</LongitudeDegrees>
            </Position>
            <AltitudeMeters>1097</AltitudeMeters>
            <DistanceMeters>NAN</DistanceMeters>
          </Trackpoint>
          <Trackpoint>
            <Time>2019-10-04T14:59:04.000Z</Time>
            <Position>
              <LatitudeDegrees>43.0103904940187931060791015625</LatitudeDegrees>
              <LongitudeDegrees>-5.76622157357633113861083984375</LongitudeDegrees>
            </Position>
            <AltitudeMeters>1097.5999755859375</AltitudeMeters>
            <DistanceMeters>NAN</DistanceMeters>
          </Trackpoint>
          <Trackpoint>
            <Time>2019-10-04T14:59:07.000Z</Time>
            <Position>
              <LatitudeDegrees>43.010384626686573028564453125</LatitudeDegrees>
              <LongitudeDegrees>-5.7661561109125614166259765625</LongitudeDegrees>
            </Position>
            <AltitudeMeters>1098</AltitudeMeters>
            <DistanceMeters>NAN</DistanceMeters>
          </Trackpoint>
          <Trackpoint>
            <Time>2019-10-04T14:59:12.000Z</Time>
            <Position>
              <LatitudeDegrees>43.01037448458373546600341796875</LatitudeDegrees>
              <LongitudeDegrees>-5.7660458050668239593505859375</LongitudeDegrees>
            </Position>
            <AltitudeMeters>1099</AltitudeMeters>
            <DistanceMeters>NAN</DistanceMeters>
          </Trackpoint>
          <Trackpoint>
            <Time>2019-10-04T14:59:19.000Z</Time>
            <Position>
              <LatitudeDegrees>43.01032620482146739959716796875</LatitudeDegrees>
              <LongitudeDegrees>-5.76591060496866703033447265625</LongitudeDegrees>
            </Position>
            <AltitudeMeters>1100</AltitudeMeters>
            <DistanceMeters>NAN</DistanceMeters>
          </Trackpoint>
          <Trackpoint>
            <Time>2019-10-04T14:59:21.000Z</Time>
            <Position>
              <LatitudeDegrees>43.0103086866438388824462890625</LatitudeDegrees>
              <LongitudeDegrees>-5.765873976051807403564453125</LongitudeDegrees>
            </Position>
            <AltitudeMeters>1100.4000244140625</AltitudeMeters>
            <DistanceMeters>NAN</DistanceMeters>
          </Trackpoint>
          <Trackpoint>
            <Time>2019-10-04T14:59:27.000Z</Time>
            <Position>
              <LatitudeDegrees>43.010255880653858184814453125</LatitudeDegrees>
              <LongitudeDegrees>-5.76578185893595218658447265625</LongitudeDegrees>
            </Position>
            <AltitudeMeters>1101.199951171875</AltitudeMeters>
            <DistanceMeters>NAN</DistanceMeters>
          </Trackpoint>
          <Trackpoint>
            <Time>2019-10-04T14:59:31.000Z</Time>
            <Position>
              <LatitudeDegrees>43.0102191679179668426513671875</LatitudeDegrees>
              <LongitudeDegrees>-5.76571865938603878021240234375</LongitudeDegrees>
            </Position>
            <AltitudeMeters>1101.800048828125</AltitudeMeters>
            <DistanceMeters>NAN</DistanceMeters>
          </Trackpoint>
          <Trackpoint>
            <Time>2019-10-04T14:59:33.000Z</Time>
            <Position>
              <LatitudeDegrees>43.0101993866264820098876953125</LatitudeDegrees>
              <LongitudeDegrees>-5.7656853832304477691650390625</LongitudeDegrees>
            </Position>
            <AltitudeMeters>1102.4000244140625</AltitudeMeters>
            <DistanceMeters>NAN</DistanceMeters>
          </Trackpoint>
          <Trackpoint>
            <Time>2019-10-04T14:59:40.000Z</Time>
            <Position>
              <LatitudeDegrees>43.0101214349269866943359375</LatitudeDegrees>
              <LongitudeDegrees>-5.765578933060169219970703125</LongitudeDegrees>
            </Position>
            <AltitudeMeters>1103</AltitudeMeters>
            <DistanceMeters>NAN</DistanceMeters>
          </Trackpoint>
          <Trackpoint>
            <Time>2019-10-04T14:59:44.000Z</Time>
            <Position>
              <LatitudeDegrees>43.01007441245019435882568359375</LatitudeDegrees>
              <LongitudeDegrees>-5.7655140571296215057373046875</LongitudeDegrees>
            </Position>
            <AltitudeMeters>1103.4000244140625</AltitudeMeters>
            <DistanceMeters>NAN</DistanceMeters>
          </Trackpoint>
          <Trackpoint>
            <Time>2019-10-04T14:59:50.000Z</Time>
            <Position>
              <LatitudeDegrees>43.01000081934034824371337890625</LatitudeDegrees>
              <LongitudeDegrees>-5.76542680151760578155517578125</LongitudeDegrees>
            </Position>
            <AltitudeMeters>1104.199951171875</AltitudeMeters>
            <DistanceMeters>NAN</DistanceMeters>
          </Trackpoint>
          <Trackpoint>
            <Time>2019-10-04T14:59:52.000Z</Time>
            <Position>
              <LatitudeDegrees>43.00997215323150157928466796875</LatitudeDegrees>
              <LongitudeDegrees>-5.76540215872228145599365234375</LongitudeDegrees>
            </Position>
            <AltitudeMeters>1104.5999755859375</AltitudeMeters>
            <DistanceMeters>NAN</DistanceMeters>
          </Trackpoint>
          <Trackpoint>
            <Time>2019-10-04T15:00:00.000Z</Time>
            <Position>
              <LatitudeDegrees>43.00985145382583141326904296875</LatitudeDegrees>
              <LongitudeDegrees>-5.76531129889190196990966796875</LongitudeDegrees>
            </Position>
            <AltitudeMeters>1105.4000244140625</AltitudeMeters>
            <DistanceMeters>NAN</DistanceMeters>
          </Trackpoint>
          <Trackpoint>
            <Time>2019-10-04T15:00:01.000Z</Time>
            <Position>
              <LatitudeDegrees>43.0098366178572177886962890625</LatitudeDegrees>
              <LongitudeDegrees>-5.7652984745800495147705078125</LongitudeDegrees>
            </Position>
            <AltitudeMeters>1105.5999755859375</AltitudeMeters>
            <DistanceMeters>NAN</DistanceMeters>
          </Trackpoint>
          <Trackpoint>
            <Time>2019-10-04T15:00:06.000Z</Time>
            <Position>
              <LatitudeDegrees>43.0097615160048007965087890625</LatitudeDegrees>
              <LongitudeDegrees>-5.76525698415935039520263671875</LongitudeDegrees>
            </Position>
            <AltitudeMeters>1106.800048828125</AltitudeMeters>
            <DistanceMeters>NAN</DistanceMeters>
          </Trackpoint>
          <Trackpoint>
            <Time>2019-10-04T15:00:07.000Z</Time>
            <Position>
              <LatitudeDegrees>43.00974584184587001800537109375</LatitudeDegrees>
              <LongitudeDegrees>-5.7652512006461620330810546875</LongitudeDegrees>
            </Position>
            <AltitudeMeters>1107.4000244140625</AltitudeMeters>
            <DistanceMeters>NAN</DistanceMeters>
          </Trackpoint>
          <Trackpoint>
            <Time>2019-10-04T15:00:13.000Z</Time>
            <Position>
              <LatitudeDegrees>43.00965582020580768585205078125</LatitudeDegrees>
              <LongitudeDegrees>-5.7652084529399871826171875</LongitudeDegrees>
            </Position>
            <AltitudeMeters>1108</AltitudeMeters>
            <DistanceMeters>NAN</DistanceMeters>
          </Trackpoint>
          <Trackpoint>
            <Time>2019-10-04T15:00:14.000Z</Time>
            <Position>
              <LatitudeDegrees>43.0096414871513843536376953125</LatitudeDegrees>
              <LongitudeDegrees>-5.76519814319908618927001953125</LongitudeDegrees>
            </Position>
            <AltitudeMeters>1108.4000244140625</AltitudeMeters>
            <DistanceMeters>NAN</DistanceMeters>
          </Trackpoint>
          <Trackpoint>
            <Time>2019-10-04T15:00:17.000Z</Time>
            <Position>
              <LatitudeDegrees>43.0095984041690826416015625</LatitudeDegrees>
              <LongitudeDegrees>-5.7651663757860660552978515625</LongitudeDegrees>
            </Position>
            <AltitudeMeters>1109</AltitudeMeters>
            <DistanceMeters>NAN</DistanceMeters>
          </Trackpoint>
          <Trackpoint>
            <Time>2019-10-04T15:00:23.000Z</Time>
            <Position>
              <LatitudeDegrees>43.009521625936031341552734375</LatitudeDegrees>
              <LongitudeDegrees>-5.7650808803737163543701171875</LongitudeDegrees>
            </Position>
            <AltitudeMeters>1109.800048828125</AltitudeMeters>
            <DistanceMeters>NAN</DistanceMeters>
          </Trackpoint>
          <Trackpoint>
            <Time>2019-10-04T15:00:25.000Z</Time>
            <Position>
              <LatitudeDegrees>43.0094953067600727081298828125</LatitudeDegrees>
              <LongitudeDegrees>-5.76505221426486968994140625</LongitudeDegrees>
            </Position>
            <AltitudeMeters>1110</AltitudeMeters>
            <DistanceMeters>NAN</DistanceMeters>
          </Trackpoint>
          <Trackpoint>
            <Time>2019-10-04T15:00:32.000Z</Time>
            <Position>
              <LatitudeDegrees>43.0094124935567378997802734375</LatitudeDegrees>
              <LongitudeDegrees>-5.76494299806654453277587890625</LongitudeDegrees>
            </Position>
            <AltitudeMeters>1111</AltitudeMeters>
            <DistanceMeters>NAN</DistanceMeters>
          </Trackpoint>
          <Trackpoint>
            <Time>2019-10-04T15:00:38.000Z</Time>
            <Position>
              <LatitudeDegrees>43.00934233702719211578369140625</LatitudeDegrees>
              <LongitudeDegrees>-5.76485750265419483184814453125</LongitudeDegrees>
            </Position>
            <AltitudeMeters>1112</AltitudeMeters>
            <DistanceMeters>NAN</DistanceMeters>
          </Trackpoint>
          <Trackpoint>
            <Time>2019-10-04T15:00:43.000Z</Time>
            <Position>
              <LatitudeDegrees>43.00928165204823017120361328125</LatitudeDegrees>
              <LongitudeDegrees>-5.76478608883917331695556640625</LongitudeDegrees>
            </Position>
            <AltitudeMeters>1112.800048828125</AltitudeMeters>
            <DistanceMeters>NAN</DistanceMeters>
          </Trackpoint>
          <Trackpoint>
            <Time>2019-10-04T15:00:47.000Z</Time>
            <Position>
              <LatitudeDegrees>43.00923169590532779693603515625</LatitudeDegrees>
              <LongitudeDegrees>-5.76472523622214794158935546875</LongitudeDegrees>
            </Position>
            <AltitudeMeters>1113.199951171875</AltitudeMeters>
            <DistanceMeters>NAN</DistanceMeters>
          </Trackpoint>
          <Trackpoint>
            <Time>2019-10-04T15:00:52.000Z</Time>
            <Position>
              <LatitudeDegrees>43.00916933454573154449462890625</LatitudeDegrees>
              <LongitudeDegrees>-5.7646478712558746337890625</LongitudeDegrees>
            </Position>
            <AltitudeMeters>1114</AltitudeMeters>
            <DistanceMeters>NAN</DistanceMeters>
          </Trackpoint>
          <Trackpoint>
            <Time>2019-10-04T15:00:53.000Z</Time>
            <Position>
              <LatitudeDegrees>43.0091563425958156585693359375</LatitudeDegrees>
              <LongitudeDegrees>-5.76463320292532444000244140625</LongitudeDegrees>
            </Position>
            <AltitudeMeters>1114.199951171875</AltitudeMeters>
            <DistanceMeters>NAN</DistanceMeters>
          </Trackpoint>
          <Trackpoint>
            <Time>2019-10-04T15:00:58.000Z</Time>
            <Position>
              <LatitudeDegrees>43.00909490324556827545166015625</LatitudeDegrees>
              <LongitudeDegrees>-5.76455491594970226287841796875</LongitudeDegrees>
            </Position>
            <AltitudeMeters>1115.199951171875</AltitudeMeters>
            <DistanceMeters>NAN</DistanceMeters>
          </Trackpoint>
          <Trackpoint>
            <Time>2019-10-04T15:01:03.000Z</Time>
            <Position>
              <LatitudeDegrees>43.009036816656589508056640625</LatitudeDegrees>
              <LongitudeDegrees>-5.76447713188827037811279296875</LongitudeDegrees>
            </Position>
            <AltitudeMeters>1116</AltitudeMeters>
            <DistanceMeters>NAN</DistanceMeters>
          </Trackpoint>
          <Trackpoint>
            <Time>2019-10-04T15:01:08.000Z</Time>
            <Position>
              <LatitudeDegrees>43.00898359157145023345947265625</LatitudeDegrees>
              <LongitudeDegrees>-5.7643850147724151611328125</LongitudeDegrees>
            </Position>
            <AltitudeMeters>1116.4000244140625</AltitudeMeters>
            <DistanceMeters>NAN</DistanceMeters>
          </Trackpoint>
          <Trackpoint>
            <Time>2019-10-04T15:01:13.000Z</Time>
            <Position>
              <LatitudeDegrees>43.0089367367327213287353515625</LatitudeDegrees>
              <LongitudeDegrees>-5.76428250409662723541259765625</LongitudeDegrees>
            </Position>
            <AltitudeMeters>1117.199951171875</AltitudeMeters>
            <DistanceMeters>NAN</DistanceMeters>
          </Trackpoint>
          <Trackpoint>
            <Time>2019-10-04T15:01:16.000Z</Time>
            <Position>
              <LatitudeDegrees>43.00890781916677951812744140625</LatitudeDegrees>
              <LongitudeDegrees>-5.764217711985111236572265625</LongitudeDegrees>
            </Position>
            <AltitudeMeters>1118</AltitudeMeters>
            <DistanceMeters>NAN</DistanceMeters>
          </Trackpoint>
          <Trackpoint>
            <Time>2019-10-04T15:01:22.000Z</Time>
            <Position>
              <LatitudeDegrees>43.00886423327028751373291015625</LatitudeDegrees>
              <LongitudeDegrees>-5.76408661901950836181640625</LongitudeDegrees>
            </Position>
            <AltitudeMeters>1118.5999755859375</AltitudeMeters>
            <DistanceMeters>NAN</DistanceMeters>
          </Trackpoint>
          <Trackpoint>
            <Time>2019-10-04T15:01:28.000Z</Time>
            <Position>
              <LatitudeDegrees>43.00883062183856964111328125</LatitudeDegrees>
              <LongitudeDegrees>-5.76394085772335529327392578125</LongitudeDegrees>
            </Position>
            <AltitudeMeters>1119.199951171875</AltitudeMeters>
            <DistanceMeters>NAN</DistanceMeters>
          </Trackpoint>
          <Trackpoint>
            <Time>2019-10-04T15:01:30.000Z</Time>
            <Position>
              <LatitudeDegrees>43.00882031209766864776611328125</LatitudeDegrees>
              <LongitudeDegrees>-5.763895846903324127197265625</LongitudeDegrees>
            </Position>
            <AltitudeMeters>1119.4000244140625</AltitudeMeters>
            <DistanceMeters>NAN</DistanceMeters>
          </Trackpoint>
          <Trackpoint>
            <Time>2019-10-04T15:01:34.000Z</Time>
            <Position>
              <LatitudeDegrees>43.0087949149310588836669921875</LatitudeDegrees>
              <LongitudeDegrees>-5.76380507089197635650634765625</LongitudeDegrees>
            </Position>
            <AltitudeMeters>1120.199951171875</AltitudeMeters>
            <DistanceMeters>NAN</DistanceMeters>
          </Trackpoint>
          <Trackpoint>
            <Time>2019-10-04T15:01:37.000Z</Time>
            <Position>
              <LatitudeDegrees>43.00877370871603488922119140625</LatitudeDegrees>
              <LongitudeDegrees>-5.76373801566660404205322265625</LongitudeDegrees>
            </Position>
            <AltitudeMeters>1120.5999755859375</AltitudeMeters>
            <DistanceMeters>NAN</DistanceMeters>
          </Trackpoint>
          <Trackpoint>
            <Time>2019-10-04T15:01:40.000Z</Time>
            <Position>
              <LatitudeDegrees>43.00874747335910797119140625</LatitudeDegrees>
              <LongitudeDegrees>-5.7636797614395618438720703125</LongitudeDegrees>
            </Position>
            <AltitudeMeters>1120.800048828125</AltitudeMeters>
            <DistanceMeters>NAN</DistanceMeters>
          </Trackpoint>
          <Trackpoint>
            <Time>2019-10-04T15:01:41.000Z</Time>
            <Position>
              <LatitudeDegrees>43.00873800180852413177490234375</LatitudeDegrees>
              <LongitudeDegrees>-5.76366023160517215728759765625</LongitudeDegrees>
            </Position>
            <AltitudeMeters>1121.5999755859375</AltitudeMeters>
            <DistanceMeters>NAN</DistanceMeters>
          </Trackpoint>
          <Trackpoint>
            <Time>2019-10-04T15:01:49.000Z</Time>
            <Position>
              <LatitudeDegrees>43.008661307394504547119140625</LatitudeDegrees>
              <LongitudeDegrees>-5.763509273529052734375</LongitudeDegrees>
            </Position>
            <AltitudeMeters>1122.5999755859375</AltitudeMeters>
            <DistanceMeters>NAN</DistanceMeters>
          </Trackpoint>
          <Trackpoint>
            <Time>2019-10-04T15:01:56.000Z</Time>
            <Position>
              <LatitudeDegrees>43.0085826851427555084228515625</LatitudeDegrees>
              <LongitudeDegrees>-5.7633947767317295074462890625</LongitudeDegrees>
            </Position>
            <AltitudeMeters>1123.5999755859375</AltitudeMeters>
            <DistanceMeters>NAN</DistanceMeters>
          </Trackpoint>
          <Trackpoint>
            <Time>2019-10-04T15:01:58.000Z</Time>
            <Position>
              <LatitudeDegrees>43.00855879671871662139892578125</LatitudeDegrees>
              <LongitudeDegrees>-5.76336284168064594268798828125</LongitudeDegrees>
            </Position>
            <AltitudeMeters>1124.199951171875</AltitudeMeters>
            <DistanceMeters>NAN</DistanceMeters>
          </Trackpoint>
          <Trackpoint>
            <Time>2019-10-04T15:02:02.000Z</Time>
            <Position>
              <LatitudeDegrees>43.0085121095180511474609375</LatitudeDegrees>
              <LongitudeDegrees>-5.7632988877594470977783203125</LongitudeDegrees>
            </Position>
            <AltitudeMeters>1124.800048828125</AltitudeMeters>
            <DistanceMeters>NAN</DistanceMeters>
          </Trackpoint>
          <Trackpoint>
            <Time>2019-10-04T15:02:06.000Z</Time>
            <Position>
              <LatitudeDegrees>43.0084700323641300201416015625</LatitudeDegrees>
              <LongitudeDegrees>-5.76323308981955051422119140625</LongitudeDegrees>
            </Position>
            <AltitudeMeters>1125.5999755859375</AltitudeMeters>
            <DistanceMeters>NAN</DistanceMeters>
          </Trackpoint>
          <Trackpoint>
            <Time>2019-10-04T15:02:10.000Z</Time>
            <Position>
              <LatitudeDegrees>43.0084230937063694000244140625</LatitudeDegrees>
              <LongitudeDegrees>-5.7631711475551128387451171875</LongitudeDegrees>
            </Position>
            <AltitudeMeters>1126</AltitudeMeters>
            <DistanceMeters>NAN</DistanceMeters>
          </Trackpoint>
          <Trackpoint>
            <Time>2019-10-04T15:02:14.000Z</Time>
            <Position>
              <LatitudeDegrees>43.00837808288633823394775390625</LatitudeDegrees>
              <LongitudeDegrees>-5.763101913034915924072265625</LongitudeDegrees>
            </Position>
            <AltitudeMeters>1126.5999755859375</AltitudeMeters>
            <DistanceMeters>NAN</DistanceMeters>
          </Trackpoint>
          <Trackpoint>
            <Time>2019-10-04T15:02:17.000Z</Time>
            <Position>
              <LatitudeDegrees>43.0083429627120494842529296875</LatitudeDegrees>
              <LongitudeDegrees>-5.7630517892539501190185546875</LongitudeDegrees>
            </Position>
            <AltitudeMeters>1127.199951171875</AltitudeMeters>
            <DistanceMeters>NAN</DistanceMeters>
          </Trackpoint>
          <Trackpoint>
            <Time>2019-10-04T15:02:23.000Z</Time>
            <Position>
              <LatitudeDegrees>43.0082795955240726470947265625</LatitudeDegrees>
              <LongitudeDegrees>-5.76294860802590847015380859375</LongitudeDegrees>
            </Position>
            <AltitudeMeters>1128.4000244140625</AltitudeMeters>
            <DistanceMeters>NAN</DistanceMeters>
          </Trackpoint>
          <Trackpoint>
            <Time>2019-10-04T15:02:24.000Z</Time>
            <Position>
              <LatitudeDegrees>43.0082671903073787689208984375</LatitudeDegrees>
              <LongitudeDegrees>-5.7629314251244068145751953125</LongitudeDegrees>
            </Position>
            <AltitudeMeters>1128.4000244140625</AltitudeMeters>
            <DistanceMeters>NAN</DistanceMeters>
          </Trackpoint>
          <Trackpoint>
            <Time>2019-10-04T15:02:31.000Z</Time>
            <Position>
              <LatitudeDegrees>43.0081954412162303924560546875</LatitudeDegrees>
              <LongitudeDegrees>-5.762815587222576141357421875</LongitudeDegrees>
            </Position>
            <AltitudeMeters>1129.4000244140625</AltitudeMeters>
            <DistanceMeters>NAN</DistanceMeters>
          </Trackpoint>
          <Trackpoint>
            <Time>2019-10-04T15:02:33.000Z</Time>
            <Position>
              <LatitudeDegrees>43.00817490555346012115478515625</LatitudeDegrees>
              <LongitudeDegrees>-5.7627810537815093994140625</LongitudeDegrees>
            </Position>
            <AltitudeMeters>1129.5999755859375</AltitudeMeters>
            <DistanceMeters>NAN</DistanceMeters>
          </Trackpoint>
          <Trackpoint>
            <Time>2019-10-04T15:02:38.000Z</Time>
            <Position>
              <LatitudeDegrees>43.0081129632890224456787109375</LatitudeDegrees>
              <LongitudeDegrees>-5.7626930437982082366943359375</LongitudeDegrees>
            </Position>
            <AltitudeMeters>1130.5999755859375</AltitudeMeters>
            <DistanceMeters>NAN</DistanceMeters>
          </Trackpoint>
          <Trackpoint>
            <Time>2019-10-04T15:02:40.000Z</Time>
            <Position>
              <LatitudeDegrees>43.00808496773242950439453125</LatitudeDegrees>
              <LongitudeDegrees>-5.7626591809093952178955078125</LongitudeDegrees>
            </Position>
            <AltitudeMeters>1130.800048828125</AltitudeMeters>
            <DistanceMeters>NAN</DistanceMeters>
          </Trackpoint>
          <Trackpoint>
            <Time>2019-10-04T15:02:47.000Z</Time>
            <Position>
              <LatitudeDegrees>43.00800542347133159637451171875</LatitudeDegrees>
              <LongitudeDegrees>-5.7625287584960460662841796875</LongitudeDegrees>
            </Position>
            <AltitudeMeters>1131.5999755859375</AltitudeMeters>
            <DistanceMeters>NAN</DistanceMeters>
          </Trackpoint>
          <Trackpoint>
            <Time>2019-10-04T15:02:53.000Z</Time>
            <Position>
              <LatitudeDegrees>43.007948510348796844482421875</LatitudeDegrees>
              <LongitudeDegrees>-5.7624135911464691162109375</LongitudeDegrees>
            </Position>
            <AltitudeMeters>1132.800048828125</AltitudeMeters>
            <DistanceMeters>NAN</DistanceMeters>
          </Trackpoint>
          <Trackpoint>
            <Time>2019-10-04T15:02:56.000Z</Time>
            <Position>
              <LatitudeDegrees>43.007912300527095794677734375</LatitudeDegrees>
              <LongitudeDegrees>-5.76236958615481853485107421875</LongitudeDegrees>
            </Position>
            <AltitudeMeters>1133</AltitudeMeters>
            <DistanceMeters>NAN</DistanceMeters>
          </Trackpoint>
          <Trackpoint>
            <Time>2019-10-04T15:02:58.000Z</Time>
            <Position>
              <LatitudeDegrees>43.007883131504058837890625</LatitudeDegrees>
              <LongitudeDegrees>-5.762344188988208770751953125</LongitudeDegrees>
            </Position>
            <AltitudeMeters>1133.800048828125</AltitudeMeters>
            <DistanceMeters>NAN</DistanceMeters>
          </Trackpoint>
          <Trackpoint>
            <Time>2019-10-04T15:03:04.000Z</Time>
            <Position>
              <LatitudeDegrees>43.00778992474079132080078125</LatitudeDegrees>
              <LongitudeDegrees>-5.76231812126934528350830078125</LongitudeDegrees>
            </Position>
            <AltitudeMeters>1134.5999755859375</AltitudeMeters>
            <DistanceMeters>NAN</DistanceMeters>
          </Trackpoint>
          <Trackpoint>
            <Time>2019-10-04T15:03:10.000Z</Time>
            <Position>
              <LatitudeDegrees>43.0076948739588260650634765625</LatitudeDegrees>
              <LongitudeDegrees>-5.762331448495388031005859375</LongitudeDegrees>
            </Position>
            <AltitudeMeters>1135</AltitudeMeters>
            <DistanceMeters>NAN</DistanceMeters>
          </Trackpoint>
          <Trackpoint>
            <Time>2019-10-04T15:03:11.000Z</Time>
            <Position>
              <LatitudeDegrees>43.00767718814313411712646484375</LatitudeDegrees>
              <LongitudeDegrees>-5.76233387924730777740478515625</LongitudeDegrees>
            </Position>
            <AltitudeMeters>1135.199951171875</AltitudeMeters>
            <DistanceMeters>NAN</DistanceMeters>
          </Trackpoint>
          <Trackpoint>
            <Time>2019-10-04T15:03:17.000Z</Time>
            <Position>
              <LatitudeDegrees>43.00758113153278827667236328125</LatitudeDegrees>
              <LongitudeDegrees>-5.7623772136867046356201171875</LongitudeDegrees>
            </Position>
            <AltitudeMeters>1136.199951171875</AltitudeMeters>
            <DistanceMeters>NAN</DistanceMeters>
          </Trackpoint>
          <Trackpoint>
            <Time>2019-10-04T15:03:18.000Z</Time>
            <Position>
              <LatitudeDegrees>43.0075667984783649444580078125</LatitudeDegrees>
              <LongitudeDegrees>-5.7623882777988910675048828125</LongitudeDegrees>
            </Position>
            <AltitudeMeters>1136.5999755859375</AltitudeMeters>
            <DistanceMeters>NAN</DistanceMeters>
          </Trackpoint>
          <Trackpoint>
            <Time>2019-10-04T15:03:24.000Z</Time>
            <Position>
              <LatitudeDegrees>43.0074759386479854583740234375</LatitudeDegrees>
              <LongitudeDegrees>-5.762462876737117767333984375</LongitudeDegrees>
            </Position>
            <AltitudeMeters>1137.4000244140625</AltitudeMeters>
            <DistanceMeters>NAN</DistanceMeters>
          </Trackpoint>
          <Trackpoint>
            <Time>2019-10-04T15:03:27.000Z</Time>
            <Position>
              <LatitudeDegrees>43.00743243657052516937255859375</LatitudeDegrees>
              <LongitudeDegrees>-5.76250771991908550262451171875</LongitudeDegrees>
            </Position>
            <AltitudeMeters>1137.800048828125</AltitudeMeters>
            <DistanceMeters>NAN</DistanceMeters>
          </Trackpoint>
          <Trackpoint>
            <Time>2019-10-04T15:03:32.000Z</Time>
            <Position>
              <LatitudeDegrees>43.0073622800409793853759765625</LatitudeDegrees>
              <LongitudeDegrees>-5.76259053312242031097412109375</LongitudeDegrees>
            </Position>
            <AltitudeMeters>1138.4000244140625</AltitudeMeters>
            <DistanceMeters>NAN</DistanceMeters>
          </Trackpoint>
          <Trackpoint>
            <Time>2019-10-04T15:03:36.000Z</Time>
            <Position>
              <LatitudeDegrees>43.00730989314615726470947265625</LatitudeDegrees>
              <LongitudeDegrees>-5.76265566051006317138671875</LongitudeDegrees>
            </Position>
            <AltitudeMeters>1139.199951171875</AltitudeMeters>
            <DistanceMeters>NAN</DistanceMeters>
          </Trackpoint>
          <Trackpoint>
            <Time>2019-10-04T15:03:37.000Z</Time>
            <Position>
              <LatitudeDegrees>43.00729564391076564788818359375</LatitudeDegrees>
              <LongitudeDegrees>-5.76267317868769168853759765625</LongitudeDegrees>
            </Position>
            <AltitudeMeters>1139.800048828125</AltitudeMeters>
            <DistanceMeters>NAN</DistanceMeters>
          </Trackpoint>
          <Trackpoint>
            <Time>2019-10-04T15:03:44.000Z</Time>
            <Position>
              <LatitudeDegrees>43.00720629282295703887939453125</LatitudeDegrees>
              <LongitudeDegrees>-5.76278440654277801513671875</LongitudeDegrees>
            </Position>
            <AltitudeMeters>1140</AltitudeMeters>
            <DistanceMeters>NAN</DistanceMeters>
          </Trackpoint>
          <Trackpoint>
            <Time>2019-10-04T15:03:50.000Z</Time>
            <Position>
              <LatitudeDegrees>43.00712062977254390716552734375</LatitudeDegrees>
              <LongitudeDegrees>-5.76286361552774906158447265625</LongitudeDegrees>
            </Position>
            <AltitudeMeters>1140.800048828125</AltitudeMeters>
            <DistanceMeters>NAN</DistanceMeters>
          </Trackpoint>
          <Trackpoint>
            <Time>2019-10-04T15:03:53.000Z</Time>
            <Position>
              <LatitudeDegrees>43.00707645714282989501953125</LatitudeDegrees>
              <LongitudeDegrees>-5.76289840042591094970703125</LongitudeDegrees>
            </Position>
            <AltitudeMeters>1141.4000244140625</AltitudeMeters>
            <DistanceMeters>NAN</DistanceMeters>
          </Trackpoint>
          <Trackpoint>
            <Time>2019-10-04T15:03:57.000Z</Time>
            <Position>
              <LatitudeDegrees>43.007010407745838165283203125</LatitudeDegrees>
              <LongitudeDegrees>-5.76292119920253753662109375</LongitudeDegrees>
            </Position>
            <AltitudeMeters>1141.800048828125</AltitudeMeters>
            <DistanceMeters>NAN</DistanceMeters>
          </Trackpoint>
          <Trackpoint>
            <Time>2019-10-04T15:04:00.000Z</Time>
            <Position>
              <LatitudeDegrees>43.00695969723165035247802734375</LatitudeDegrees>
              <LongitudeDegrees>-5.762943327426910400390625</LongitudeDegrees>
            </Position>
            <AltitudeMeters>1142.199951171875</AltitudeMeters>
            <DistanceMeters>NAN</DistanceMeters>
          </Trackpoint>
          <Trackpoint>
            <Time>2019-10-04T15:04:06.000Z</Time>
            <Position>
              <LatitudeDegrees>43.0068550072610378265380859375</LatitudeDegrees>
              <LongitudeDegrees>-5.76295363716781139373779296875</LongitudeDegrees>
            </Position>
            <AltitudeMeters>1142.800048828125</AltitudeMeters>
            <DistanceMeters>NAN</DistanceMeters>
          </Trackpoint>
          <Trackpoint>
            <Time>2019-10-04T15:04:08.000Z</Time>
            <Position>
              <LatitudeDegrees>43.00681603141129016876220703125</LatitudeDegrees>
              <LongitudeDegrees>-5.76295983977615833282470703125</LongitudeDegrees>
            </Position>
            <AltitudeMeters>1143</AltitudeMeters>
            <DistanceMeters>NAN</DistanceMeters>
          </Trackpoint>
          <Trackpoint>
            <Time>2019-10-04T15:04:16.000Z</Time>
            <Position>
              <LatitudeDegrees>43.00665627233684062957763671875</LatitudeDegrees>
              <LongitudeDegrees>-5.762970149517059326171875</LongitudeDegrees>
            </Position>
            <AltitudeMeters>1144</AltitudeMeters>
            <DistanceMeters>NAN</DistanceMeters>
          </Trackpoint>
          <Trackpoint>
            <Time>2019-10-04T15:04:17.000Z</Time>
            <Position>
              <LatitudeDegrees>43.00663657486438751220703125</LatitudeDegrees>
              <LongitudeDegrees>-5.7629693113267421722412109375</LongitudeDegrees>
            </Position>
            <AltitudeMeters>1144</AltitudeMeters>
            <DistanceMeters>NAN</DistanceMeters>
          </Trackpoint>
          <Trackpoint>
            <Time>2019-10-04T15:04:25.000Z</Time>
            <Position>
              <LatitudeDegrees>43.0064962618052959442138671875</LatitudeDegrees>
              <LongitudeDegrees>-5.762989930808544158935546875</LongitudeDegrees>
            </Position>
            <AltitudeMeters>1145</AltitudeMeters>
            <DistanceMeters>NAN</DistanceMeters>
          </Trackpoint>
          <Trackpoint>
            <Time>2019-10-04T15:04:28.000Z</Time>
            <Position>
              <LatitudeDegrees>43.00644068978726863861083984375</LatitudeDegrees>
              <LongitudeDegrees>-5.763010717928409576416015625</LongitudeDegrees>
            </Position>
            <AltitudeMeters>1145.4000244140625</AltitudeMeters>
            <DistanceMeters>NAN</DistanceMeters>
          </Trackpoint>
          <Trackpoint>
            <Time>2019-10-04T15:04:29.000Z</Time>
            <Position>
              <LatitudeDegrees>43.00642333924770355224609375</LatitudeDegrees>
              <LongitudeDegrees>-5.7630159147083759307861328125</LongitudeDegrees>
            </Position>
            <AltitudeMeters>1146.199951171875</AltitudeMeters>
            <DistanceMeters>NAN</DistanceMeters>
          </Trackpoint>
          <Trackpoint>
            <Time>2019-10-04T15:04:35.000Z</Time>
            <Position>
              <LatitudeDegrees>43.006322085857391357421875</LatitudeDegrees>
              <LongitudeDegrees>-5.76306478120386600494384765625</LongitudeDegrees>
            </Position>
            <AltitudeMeters>1146.5999755859375</AltitudeMeters>
            <DistanceMeters>NAN</DistanceMeters>
          </Trackpoint>
          <Trackpoint>
            <Time>2019-10-04T15:04:39.000Z</Time>
            <Position>
              <LatitudeDegrees>43.00625528208911418914794921875</LatitudeDegrees>
              <LongitudeDegrees>-5.76311406679451465606689453125</LongitudeDegrees>
            </Position>
            <AltitudeMeters>1147.4000244140625</AltitudeMeters>
            <DistanceMeters>NAN</DistanceMeters>
          </Trackpoint>
          <Trackpoint>
            <Time>2019-10-04T15:04:42.000Z</Time>
            <Position>
              <LatitudeDegrees>43.0062092654407024383544921875</LatitudeDegrees>
              <LongitudeDegrees>-5.7631540484726428985595703125</LongitudeDegrees>
            </Position>
            <AltitudeMeters>1147.800048828125</AltitudeMeters>
            <DistanceMeters>NAN</DistanceMeters>
          </Trackpoint>
          <Trackpoint>
            <Time>2019-10-04T15:04:46.000Z</Time>
            <Position>
              <LatitudeDegrees>43.00615838728845119476318359375</LatitudeDegrees>
              <LongitudeDegrees>-5.76321330852806568145751953125</LongitudeDegrees>
            </Position>
            <AltitudeMeters>1148.4000244140625</AltitudeMeters>
            <DistanceMeters>NAN</DistanceMeters>
          </Trackpoint>
          <Trackpoint>
            <Time>2019-10-04T15:04:50.000Z</Time>
            <Position>
              <LatitudeDegrees>43.006107173860073089599609375</LatitudeDegrees>
              <LongitudeDegrees>-5.76327734626829624176025390625</LongitudeDegrees>
            </Position>
            <AltitudeMeters>1148.800048828125</AltitudeMeters>
            <DistanceMeters>NAN</DistanceMeters>
          </Trackpoint>
          <Trackpoint>
            <Time>2019-10-04T15:04:51.000Z</Time>
            <Position>
              <LatitudeDegrees>43.0061023123562335968017578125</LatitudeDegrees>
              <LongitudeDegrees>-5.76329209841787815093994140625</LongitudeDegrees>
            </Position>
            <AltitudeMeters>1149</AltitudeMeters>
            <DistanceMeters>NAN</DistanceMeters>
          </Trackpoint>
          <Trackpoint>
            <Time>2019-10-04T15:04:53.000Z</Time>
            <Position>
              <LatitudeDegrees>43.00609703175723552703857421875</LatitudeDegrees>
              <LongitudeDegrees>-5.7632931880652904510498046875</LongitudeDegrees>
            </Position>
            <AltitudeMeters>1149.800048828125</AltitudeMeters>
            <DistanceMeters>NAN</DistanceMeters>
          </Trackpoint>
          <Trackpoint>
            <Time>2019-10-04T15:04:54.000Z</Time>
            <Position>
              <LatitudeDegrees>43.00609703175723552703857421875</LatitudeDegrees>
              <LongitudeDegrees>-5.7632931880652904510498046875</LongitudeDegrees>
            </Position>
            <AltitudeMeters>1149.4000244140625</AltitudeMeters>
            <DistanceMeters>NAN</DistanceMeters>
          </Trackpoint>
          <Trackpoint>
            <Time>2019-10-04T15:05:04.000Z</Time>
            <Position>
              <LatitudeDegrees>43.00609703175723552703857421875</LatitudeDegrees>
              <LongitudeDegrees>-5.7632931880652904510498046875</LongitudeDegrees>
            </Position>
            <AltitudeMeters>1149.4000244140625</AltitudeMeters>
            <DistanceMeters>NAN</DistanceMeters>
          </Trackpoint>
          <Trackpoint>
            <Time>2019-10-04T15:05:15.000Z</Time>
            <Position>
              <LatitudeDegrees>43.00609703175723552703857421875</LatitudeDegrees>
              <LongitudeDegrees>-5.7632931880652904510498046875</LongitudeDegrees>
            </Position>
            <AltitudeMeters>1149.199951171875</AltitudeMeters>
            <DistanceMeters>NAN</DistanceMeters>
          </Trackpoint>
          <Trackpoint>
            <Time>2019-10-04T15:05:21.000Z</Time>
            <Position>
              <LatitudeDegrees>43.0060929246246814727783203125</LatitudeDegrees>
              <LongitudeDegrees>-5.76329939067363739013671875</LongitudeDegrees>
            </Position>
            <AltitudeMeters>1149.5999755859375</AltitudeMeters>
            <DistanceMeters>NAN</DistanceMeters>
          </Trackpoint>
          <Trackpoint>
            <Time>2019-10-04T15:05:22.000Z</Time>
            <Position>
              <LatitudeDegrees>43.0060739815235137939453125</LatitudeDegrees>
              <LongitudeDegrees>-5.76331816613674163818359375</LongitudeDegrees>
            </Position>
            <AltitudeMeters>1149.5999755859375</AltitudeMeters>
            <DistanceMeters>NAN</DistanceMeters>
          </Trackpoint>
          <Trackpoint>
            <Time>2019-10-04T15:05:29.000Z</Time>
            <Position>
              <LatitudeDegrees>43.00597901456058025360107421875</LatitudeDegrees>
              <LongitudeDegrees>-5.76345973648130893707275390625</LongitudeDegrees>
            </Position>
            <AltitudeMeters>1150.199951171875</AltitudeMeters>
            <DistanceMeters>NAN</DistanceMeters>
          </Trackpoint>
          <Trackpoint>
            <Time>2019-10-04T15:05:33.000Z</Time>
            <Position>
              <LatitudeDegrees>43.0059350095689296722412109375</LatitudeDegrees>
              <LongitudeDegrees>-5.76353953219950199127197265625</LongitudeDegrees>
            </Position>
            <AltitudeMeters>1151</AltitudeMeters>
            <DistanceMeters>NAN</DistanceMeters>
          </Trackpoint>
          <Trackpoint>
            <Time>2019-10-04T15:05:40.000Z</Time>
            <Position>
              <LatitudeDegrees>43.00586300902068614959716796875</LatitudeDegrees>
              <LongitudeDegrees>-5.76368118636310100555419921875</LongitudeDegrees>
            </Position>
            <AltitudeMeters>1151.5999755859375</AltitudeMeters>
            <DistanceMeters>NAN</DistanceMeters>
          </Trackpoint>
          <Trackpoint>
            <Time>2019-10-04T15:05:44.000Z</Time>
            <Position>
              <LatitudeDegrees>43.00582177005708217620849609375</LatitudeDegrees>
              <LongitudeDegrees>-5.76376148499548435211181640625</LongitudeDegrees>
            </Position>
            <AltitudeMeters>1152</AltitudeMeters>
            <DistanceMeters>NAN</DistanceMeters>
          </Trackpoint>
          <Trackpoint>
            <Time>2019-10-04T15:05:48.000Z</Time>
            <Position>
              <LatitudeDegrees>43.0057781003415584564208984375</LatitudeDegrees>
              <LongitudeDegrees>-5.7638360001146793365478515625</LongitudeDegrees>
            </Position>
            <AltitudeMeters>1153</AltitudeMeters>
            <DistanceMeters>NAN</DistanceMeters>
          </Trackpoint>
          <Trackpoint>
            <Time>2019-10-04T15:05:49.000Z</Time>
            <Position>
              <LatitudeDegrees>43.00576812587678432464599609375</LatitudeDegrees>
              <LongitudeDegrees>-5.763855278491973876953125</LongitudeDegrees>
            </Position>
            <AltitudeMeters>1153</AltitudeMeters>
            <DistanceMeters>NAN</DistanceMeters>
          </Trackpoint>
          <Trackpoint>
            <Time>2019-10-04T15:05:55.000Z</Time>
            <Position>
              <LatitudeDegrees>43.00571079365909099578857421875</LatitudeDegrees>
              <LongitudeDegrees>-5.76398209668695926666259765625</LongitudeDegrees>
            </Position>
            <AltitudeMeters>1154</AltitudeMeters>
            <DistanceMeters>NAN</DistanceMeters>
          </Trackpoint>
          <Trackpoint>
            <Time>2019-10-04T15:05:58.000Z</Time>
            <Position>
              <LatitudeDegrees>43.00567743368446826934814453125</LatitudeDegrees>
              <LongitudeDegrees>-5.7640361599624156951904296875</LongitudeDegrees>
            </Position>
            <AltitudeMeters>1154.4000244140625</AltitudeMeters>
            <DistanceMeters>NAN</DistanceMeters>
          </Trackpoint>
          <Trackpoint>
            <Time>2019-10-04T15:06:03.000Z</Time>
            <Position>
              <LatitudeDegrees>43.0056131444871425628662109375</LatitudeDegrees>
              <LongitudeDegrees>-5.76412391848862171173095703125</LongitudeDegrees>
            </Position>
            <AltitudeMeters>1155.199951171875</AltitudeMeters>
            <DistanceMeters>NAN</DistanceMeters>
          </Trackpoint>
          <Trackpoint>
            <Time>2019-10-04T15:06:05.000Z</Time>
            <Position>
              <LatitudeDegrees>43.00558975897729396820068359375</LatitudeDegrees>
              <LongitudeDegrees>-5.76416213996708393096923828125</LongitudeDegrees>
            </Position>
            <AltitudeMeters>1155.4000244140625</AltitudeMeters>
            <DistanceMeters>NAN</DistanceMeters>
          </Trackpoint>
          <Trackpoint>
            <Time>2019-10-04T15:06:11.000Z</Time>
            <Position>
              <LatitudeDegrees>43.0055470950901508331298828125</LatitudeDegrees>
              <LongitudeDegrees>-5.764298848807811737060546875</LongitudeDegrees>
            </Position>
            <AltitudeMeters>1156</AltitudeMeters>
            <DistanceMeters>NAN</DistanceMeters>
          </Trackpoint>
          <Trackpoint>
            <Time>2019-10-04T15:06:12.000Z</Time>
            <Position>
              <LatitudeDegrees>43.005543909966945648193359375</LatitudeDegrees>
              <LongitudeDegrees>-5.76432290486991405487060546875</LongitudeDegrees>
            </Position>
            <AltitudeMeters>1156.4000244140625</AltitudeMeters>
            <DistanceMeters>NAN</DistanceMeters>
          </Trackpoint>
          <Trackpoint>
            <Time>2019-10-04T15:06:18.000Z</Time>
            <Position>
              <LatitudeDegrees>43.00555572845041751861572265625</LatitudeDegrees>
              <LongitudeDegrees>-5.7644763775169849395751953125</LongitudeDegrees>
            </Position>
            <AltitudeMeters>1157.199951171875</AltitudeMeters>
            <DistanceMeters>NAN</DistanceMeters>
          </Trackpoint>
          <Trackpoint>
            <Time>2019-10-04T15:06:19.000Z</Time>
            <Position>
              <LatitudeDegrees>43.0055638588964939117431640625</LatitudeDegrees>
              <LongitudeDegrees>-5.76449909247457981109619140625</LongitudeDegrees>
            </Position>
            <AltitudeMeters>1157.5999755859375</AltitudeMeters>
            <DistanceMeters>NAN</DistanceMeters>
          </Trackpoint>
          <Trackpoint>
            <Time>2019-10-04T15:06:25.000Z</Time>
            <Position>
              <LatitudeDegrees>43.00559478811919689178466796875</LatitudeDegrees>
              <LongitudeDegrees>-5.76463823206722736358642578125</LongitudeDegrees>
            </Position>
            <AltitudeMeters>1158.5999755859375</AltitudeMeters>
            <DistanceMeters>NAN</DistanceMeters>
          </Trackpoint>
          <Trackpoint>
            <Time>2019-10-04T15:06:27.000Z</Time>
            <Position>
              <LatitudeDegrees>43.005598224699497222900390625</LatitudeDegrees>
              <LongitudeDegrees>-5.76468718238174915313720703125</LongitudeDegrees>
            </Position>
            <AltitudeMeters>1158.800048828125</AltitudeMeters>
            <DistanceMeters>NAN</DistanceMeters>
          </Trackpoint>
          <Trackpoint>
            <Time>2019-10-04T15:06:32.000Z</Time>
            <Position>
              <LatitudeDegrees>43.005600236356258392333984375</LatitudeDegrees>
              <LongitudeDegrees>-5.764808468520641326904296875</LongitudeDegrees>
            </Position>
            <AltitudeMeters>1160</AltitudeMeters>
            <DistanceMeters>NAN</DistanceMeters>
          </Trackpoint>
          <Trackpoint>
            <Time>2019-10-04T15:06:33.000Z</Time>
            <Position>
              <LatitudeDegrees>43.005597889423370361328125</LatitudeDegrees>
              <LongitudeDegrees>-5.764834620058536529541015625</LongitudeDegrees>
            </Position>
            <AltitudeMeters>1160</AltitudeMeters>
            <DistanceMeters>NAN</DistanceMeters>
          </Trackpoint>
          <Trackpoint>
            <Time>2019-10-04T15:06:41.000Z</Time>
            <Position>
              <LatitudeDegrees>43.00556771457195281982421875</LatitudeDegrees>
              <LongitudeDegrees>-5.76504819095134735107421875</LongitudeDegrees>
            </Position>
            <AltitudeMeters>1160.800048828125</AltitudeMeters>
            <DistanceMeters>NAN</DistanceMeters>
          </Trackpoint>
          <Trackpoint>
            <Time>2019-10-04T15:06:42.000Z</Time>
            <Position>
              <LatitudeDegrees>43.00556126050651073455810546875</LatitudeDegrees>
              <LongitudeDegrees>-5.76507761143147945404052734375</LongitudeDegrees>
            </Position>
            <AltitudeMeters>1161</AltitudeMeters>
            <DistanceMeters>NAN</DistanceMeters>
          </Trackpoint>
          <Trackpoint>
            <Time>2019-10-04T15:06:50.000Z</Time>
            <Position>
              <LatitudeDegrees>43.00548917613923549652099609375</LatitudeDegrees>
              <LongitudeDegrees>-5.7652669586241245269775390625</LongitudeDegrees>
            </Position>
            <AltitudeMeters>1161.199951171875</AltitudeMeters>
            <DistanceMeters>NAN</DistanceMeters>
          </Trackpoint>
          <Trackpoint>
            <Time>2019-10-04T15:06:58.000Z</Time>
            <Position>
              <LatitudeDegrees>43.00538809038698673248291015625</LatitudeDegrees>
              <LongitudeDegrees>-5.7654309086501598358154296875</LongitudeDegrees>
            </Position>
            <AltitudeMeters>1162.199951171875</AltitudeMeters>
            <DistanceMeters>NAN</DistanceMeters>
          </Trackpoint>
          <Trackpoint>
            <Time>2019-10-04T15:07:08.000Z</Time>
            <Position>
              <LatitudeDegrees>43.0052614398300647735595703125</LatitudeDegrees>
              <LongitudeDegrees>-5.765630565583705902099609375</LongitudeDegrees>
            </Position>
            <AltitudeMeters>1163</AltitudeMeters>
            <DistanceMeters>NAN</DistanceMeters>
          </Trackpoint>
          <Trackpoint>
            <Time>2019-10-04T15:07:12.000Z</Time>
            <Position>
              <LatitudeDegrees>43.005206622183322906494140625</LatitudeDegrees>
              <LongitudeDegrees>-5.7657048292458057403564453125</LongitudeDegrees>
            </Position>
            <AltitudeMeters>1163.5999755859375</AltitudeMeters>
            <DistanceMeters>NAN</DistanceMeters>
          </Trackpoint>
          <Trackpoint>
            <Time>2019-10-04T15:07:16.000Z</Time>
            <Position>
              <LatitudeDegrees>43.00514970906078815460205078125</LatitudeDegrees>
              <LongitudeDegrees>-5.765774734318256378173828125</LongitudeDegrees>
            </Position>
            <AltitudeMeters>1163.800048828125</AltitudeMeters>
            <DistanceMeters>NAN</DistanceMeters>
          </Trackpoint>
          <Trackpoint>
            <Time>2019-10-04T15:07:24.000Z</Time>
            <Position>
              <LatitudeDegrees>43.00503370352089405059814453125</LatitudeDegrees>
              <LongitudeDegrees>-5.76591362245380878448486328125</LongitudeDegrees>
            </Position>
            <AltitudeMeters>1164.5999755859375</AltitudeMeters>
            <DistanceMeters>NAN</DistanceMeters>
          </Trackpoint>
          <Trackpoint>
            <Time>2019-10-04T15:07:25.000Z</Time>
            <Position>
              <LatitudeDegrees>43.00501920282840728759765625</LatitudeDegrees>
              <LongitudeDegrees>-5.76593172736465930938720703125</LongitudeDegrees>
            </Position>
            <AltitudeMeters>1165</AltitudeMeters>
            <DistanceMeters>NAN</DistanceMeters>
          </Trackpoint>
          <Trackpoint>
            <Time>2019-10-04T15:07:30.000Z</Time>
            <Position>
              <LatitudeDegrees>43.00494921393692493438720703125</LatitudeDegrees>
              <LongitudeDegrees>-5.766015462577342987060546875</LongitudeDegrees>
            </Position>
            <AltitudeMeters>1165.5999755859375</AltitudeMeters>
            <DistanceMeters>NAN</DistanceMeters>
          </Trackpoint>
          <Trackpoint>
            <Time>2019-10-04T15:07:35.000Z</Time>
            <Position>
              <LatitudeDegrees>43.00488375127315521240234375</LatitudeDegrees>
              <LongitudeDegrees>-5.76610741205513477325439453125</LongitudeDegrees>
            </Position>
            <AltitudeMeters>1166.5999755859375</AltitudeMeters>
            <DistanceMeters>NAN</DistanceMeters>
          </Trackpoint>
          <Trackpoint>
            <Time>2019-10-04T15:07:37.000Z</Time>
            <Position>
              <LatitudeDegrees>43.00485734827816486358642578125</LatitudeDegrees>
              <LongitudeDegrees>-5.766146220266819000244140625</LongitudeDegrees>
            </Position>
            <AltitudeMeters>1167</AltitudeMeters>
            <DistanceMeters>NAN</DistanceMeters>
          </Trackpoint>
          <Trackpoint>
            <Time>2019-10-04T15:07:46.000Z</Time>
            <Position>
              <LatitudeDegrees>43.00473614595830440521240234375</LatitudeDegrees>
              <LongitudeDegrees>-5.7663026265799999237060546875</LongitudeDegrees>
            </Position>
            <AltitudeMeters>1167.800048828125</AltitudeMeters>
            <DistanceMeters>NAN</DistanceMeters>
          </Trackpoint>
          <Trackpoint>
            <Time>2019-10-04T15:07:47.000Z</Time>
            <Position>
              <LatitudeDegrees>43.0047189630568027496337890625</LatitudeDegrees>
              <LongitudeDegrees>-5.76631687581539154052734375</LongitudeDegrees>
            </Position>
            <AltitudeMeters>1168.199951171875</AltitudeMeters>
            <DistanceMeters>NAN</DistanceMeters>
          </Trackpoint>
          <Trackpoint>
            <Time>2019-10-04T15:07:53.000Z</Time>
            <Position>
              <LatitudeDegrees>43.004613183438777923583984375</LatitudeDegrees>
              <LongitudeDegrees>-5.7663908042013645172119140625</LongitudeDegrees>
            </Position>
            <AltitudeMeters>1168.800048828125</AltitudeMeters>
            <DistanceMeters>NAN</DistanceMeters>
          </Trackpoint>
          <Trackpoint>
            <Time>2019-10-04T15:07:57.000Z</Time>
            <Position>
              <LatitudeDegrees>43.00454185344278812408447265625</LatitudeDegrees>
              <LongitudeDegrees>-5.76643397100269794464111328125</LongitudeDegrees>
            </Position>
            <AltitudeMeters>1169.199951171875</AltitudeMeters>
            <DistanceMeters>NAN</DistanceMeters>
          </Trackpoint>
          <Trackpoint>
            <Time>2019-10-04T15:08:03.000Z</Time>
            <Position>
              <LatitudeDegrees>43.00442702136933803558349609375</LatitudeDegrees>
              <LongitudeDegrees>-5.76645811088383197784423828125</LongitudeDegrees>
            </Position>
            <AltitudeMeters>1170.4000244140625</AltitudeMeters>
            <DistanceMeters>NAN</DistanceMeters>
          </Trackpoint>
          <Trackpoint>
            <Time>2019-10-04T15:08:09.000Z</Time>
            <Position>
              <LatitudeDegrees>43.0043672583997249603271484375</LatitudeDegrees>
              <LongitudeDegrees>-5.7664595358073711395263671875</LongitudeDegrees>
            </Position>
            <AltitudeMeters>1171</AltitudeMeters>
            <DistanceMeters>NAN</DistanceMeters>
          </Trackpoint>
          <Trackpoint>
            <Time>2019-10-04T15:08:26.000Z</Time>
            <Position>
              <LatitudeDegrees>43.00436264835298061370849609375</LatitudeDegrees>
              <LongitudeDegrees>-5.7664535008370876312255859375</LongitudeDegrees>
            </Position>
            <AltitudeMeters>1171</AltitudeMeters>
            <DistanceMeters>NAN</DistanceMeters>
          </Trackpoint>
          <Trackpoint>
            <Time>2019-10-04T15:08:38.000Z</Time>
            <Position>
              <LatitudeDegrees>43.00436264835298061370849609375</LatitudeDegrees>
              <LongitudeDegrees>-5.7664535008370876312255859375</LongitudeDegrees>
            </Position>
            <AltitudeMeters>1171</AltitudeMeters>
            <DistanceMeters>NAN</DistanceMeters>
          </Trackpoint>
          <Trackpoint>
            <Time>2019-10-04T15:08:40.000Z</Time>
            <Position>
              <LatitudeDegrees>43.00436264835298061370849609375</LatitudeDegrees>
              <LongitudeDegrees>-5.7664535008370876312255859375</LongitudeDegrees>
            </Position>
            <AltitudeMeters>1171</AltitudeMeters>
            <DistanceMeters>NAN</DistanceMeters>
          </Trackpoint>
          <Trackpoint>
            <Time>2019-10-04T15:08:42.000Z</Time>
            <Position>
              <LatitudeDegrees>43.00436264835298061370849609375</LatitudeDegrees>
              <LongitudeDegrees>-5.7664535008370876312255859375</LongitudeDegrees>
            </Position>
            <AltitudeMeters>1171</AltitudeMeters>
            <DistanceMeters>NAN</DistanceMeters>
          </Trackpoint>
          <Trackpoint>
            <Time>2019-10-04T15:08:51.000Z</Time>
            <Position>
              <LatitudeDegrees>43.00436248071491718292236328125</LatitudeDegrees>
              <LongitudeDegrees>-5.76645123772323131561279296875</LongitudeDegrees>
            </Position>
            <AltitudeMeters>1171</AltitudeMeters>
            <DistanceMeters>NAN</DistanceMeters>
          </Trackpoint>
          <Trackpoint>
            <Time>2019-10-04T15:08:55.000Z</Time>
            <Position>
              <LatitudeDegrees>43.00436248071491718292236328125</LatitudeDegrees>
              <LongitudeDegrees>-5.76645123772323131561279296875</LongitudeDegrees>
            </Position>
            <AltitudeMeters>1170.800048828125</AltitudeMeters>
            <DistanceMeters>NAN</DistanceMeters>
          </Trackpoint>
          <Trackpoint>
            <Time>2019-10-04T15:08:59.000Z</Time>
            <Position>
              <LatitudeDegrees>43.00436248071491718292236328125</LatitudeDegrees>
              <LongitudeDegrees>-5.76645123772323131561279296875</LongitudeDegrees>
            </Position>
            <AltitudeMeters>1171</AltitudeMeters>
            <DistanceMeters>NAN</DistanceMeters>
          </Trackpoint>
          <Trackpoint>
            <Time>2019-10-04T15:09:04.000Z</Time>
            <Position>
              <LatitudeDegrees>43.00436248071491718292236328125</LatitudeDegrees>
              <LongitudeDegrees>-5.76645123772323131561279296875</LongitudeDegrees>
            </Position>
            <AltitudeMeters>1171</AltitudeMeters>
            <DistanceMeters>NAN</DistanceMeters>
          </Trackpoint>
          <Trackpoint>
            <Time>2019-10-04T15:09:06.000Z</Time>
            <Position>
              <LatitudeDegrees>43.00436248071491718292236328125</LatitudeDegrees>
              <LongitudeDegrees>-5.76645123772323131561279296875</LongitudeDegrees>
            </Position>
            <AltitudeMeters>1171</AltitudeMeters>
            <DistanceMeters>NAN</DistanceMeters>
          </Trackpoint>
          <Trackpoint>
            <Time>2019-10-04T15:09:15.000Z</Time>
            <Position>
              <LatitudeDegrees>43.00435828976333141326904296875</LatitudeDegrees>
              <LongitudeDegrees>-5.76644838787615299224853515625</LongitudeDegrees>
            </Position>
            <AltitudeMeters>1171.199951171875</AltitudeMeters>
            <DistanceMeters>NAN</DistanceMeters>
          </Trackpoint>
          <Trackpoint>
            <Time>2019-10-04T15:09:21.000Z</Time>
            <Position>
              <LatitudeDegrees>43.00427078269422054290771484375</LatitudeDegrees>
              <LongitudeDegrees>-5.766358114778995513916015625</LongitudeDegrees>
            </Position>
            <AltitudeMeters>1171.5999755859375</AltitudeMeters>
            <DistanceMeters>NAN</DistanceMeters>
          </Trackpoint>
          <Trackpoint>
            <Time>2019-10-04T15:09:30.000Z</Time>
            <Position>
              <LatitudeDegrees>43.0041508376598358154296875</LatitudeDegrees>
              <LongitudeDegrees>-5.76624713838100433349609375</LongitudeDegrees>
            </Position>
            <AltitudeMeters>1173</AltitudeMeters>
            <DistanceMeters>NAN</DistanceMeters>
          </Trackpoint>
          <Trackpoint>
            <Time>2019-10-04T15:09:36.000Z</Time>
            <Position>
              <LatitudeDegrees>43.0040762387216091156005859375</LatitudeDegrees>
              <LongitudeDegrees>-5.76617111451923847198486328125</LongitudeDegrees>
            </Position>
            <AltitudeMeters>1174</AltitudeMeters>
            <DistanceMeters>NAN</DistanceMeters>
          </Trackpoint>
          <Trackpoint>
            <Time>2019-10-04T15:09:39.000Z</Time>
            <Position>
              <LatitudeDegrees>43.0040390230715274810791015625</LatitudeDegrees>
              <LongitudeDegrees>-5.7661373354494571685791015625</LongitudeDegrees>
            </Position>
            <AltitudeMeters>1174.199951171875</AltitudeMeters>
            <DistanceMeters>NAN</DistanceMeters>
          </Trackpoint>
          <Trackpoint>
            <Time>2019-10-04T15:09:43.000Z</Time>
            <Position>
              <LatitudeDegrees>43.003984875977039337158203125</LatitudeDegrees>
              <LongitudeDegrees>-5.7660903967916965484619140625</LongitudeDegrees>
            </Position>
            <AltitudeMeters>1175</AltitudeMeters>
            <DistanceMeters>NAN</DistanceMeters>
          </Trackpoint>
          <Trackpoint>
            <Time>2019-10-04T15:09:48.000Z</Time>
            <Position>
              <LatitudeDegrees>43.003917150199413299560546875</LatitudeDegrees>
              <LongitudeDegrees>-5.766029544174671173095703125</LongitudeDegrees>
            </Position>
            <AltitudeMeters>1176</AltitudeMeters>
            <DistanceMeters>NAN</DistanceMeters>
          </Trackpoint>
          <Trackpoint>
            <Time>2019-10-04T15:09:49.000Z</Time>
            <Position>
              <LatitudeDegrees>43.00390516407787799835205078125</LatitudeDegrees>
              <LongitudeDegrees>-5.76601655222475528717041015625</LongitudeDegrees>
            </Position>
            <AltitudeMeters>1176</AltitudeMeters>
            <DistanceMeters>NAN</DistanceMeters>
          </Trackpoint>
          <Trackpoint>
            <Time>2019-10-04T15:09:53.000Z</Time>
            <Position>
              <LatitudeDegrees>43.00385151989758014678955078125</LatitudeDegrees>
              <LongitudeDegrees>-5.76596844010055065155029296875</LongitudeDegrees>
            </Position>
            <AltitudeMeters>1176.5999755859375</AltitudeMeters>
            <DistanceMeters>NAN</DistanceMeters>
          </Trackpoint>
          <Trackpoint>
            <Time>2019-10-04T15:09:56.000Z</Time>
            <Position>
              <LatitudeDegrees>43.00381229259073734283447265625</LatitudeDegrees>
              <LongitudeDegrees>-5.76592954806983470916748046875</LongitudeDegrees>
            </Position>
            <AltitudeMeters>1177</AltitudeMeters>
            <DistanceMeters>NAN</DistanceMeters>
          </Trackpoint>
          <Trackpoint>
            <Time>2019-10-04T15:09:57.000Z</Time>
            <Position>
              <LatitudeDegrees>43.00379787571728229522705078125</LatitudeDegrees>
              <LongitudeDegrees>-5.76591630466282367706298828125</LongitudeDegrees>
            </Position>
            <AltitudeMeters>1177.199951171875</AltitudeMeters>
            <DistanceMeters>NAN</DistanceMeters>
          </Trackpoint>
          <Trackpoint>
            <Time>2019-10-04T15:10:03.000Z</Time>
            <Position>
              <LatitudeDegrees>43.0037151463329792022705078125</LatitudeDegrees>
              <LongitudeDegrees>-5.76583030633628368377685546875</LongitudeDegrees>
            </Position>
            <AltitudeMeters>1178.4000244140625</AltitudeMeters>
            <DistanceMeters>NAN</DistanceMeters>
          </Trackpoint>
          <Trackpoint>
            <Time>2019-10-04T15:10:05.000Z</Time>
            <Position>
              <LatitudeDegrees>43.003685809671878814697265625</LatitudeDegrees>
              <LongitudeDegrees>-5.76580566354095935821533203125</LongitudeDegrees>
            </Position>
            <AltitudeMeters>1178.800048828125</AltitudeMeters>
            <DistanceMeters>NAN</DistanceMeters>
          </Trackpoint>
          <Trackpoint>
            <Time>2019-10-04T15:10:10.000Z</Time>
            <Position>
              <LatitudeDegrees>43.00362068228423595428466796875</LatitudeDegrees>
              <LongitudeDegrees>-5.7657423801720142364501953125</LongitudeDegrees>
            </Position>
            <AltitudeMeters>1179.800048828125</AltitudeMeters>
            <DistanceMeters>NAN</DistanceMeters>
          </Trackpoint>
          <Trackpoint>
            <Time>2019-10-04T15:10:17.000Z</Time>
            <Position>
              <LatitudeDegrees>43.00352512858808040618896484375</LatitudeDegrees>
              <LongitudeDegrees>-5.76565797440707683563232421875</LongitudeDegrees>
            </Position>
            <AltitudeMeters>1181</AltitudeMeters>
            <DistanceMeters>NAN</DistanceMeters>
          </Trackpoint>
          <Trackpoint>
            <Time>2019-10-04T15:10:21.000Z</Time>
            <Position>
              <LatitudeDegrees>43.00347165204584598541259765625</LatitudeDegrees>
              <LongitudeDegrees>-5.765615813434123992919921875</LongitudeDegrees>
            </Position>
            <AltitudeMeters>1181.800048828125</AltitudeMeters>
            <DistanceMeters>NAN</DistanceMeters>
          </Trackpoint>
          <Trackpoint>
            <Time>2019-10-04T15:10:24.000Z</Time>
            <Position>
              <LatitudeDegrees>43.00343125127255916595458984375</LatitudeDegrees>
              <LongitudeDegrees>-5.765578262507915496826171875</LongitudeDegrees>
            </Position>
            <AltitudeMeters>1181.800048828125</AltitudeMeters>
            <DistanceMeters>NAN</DistanceMeters>
          </Trackpoint>
          <Trackpoint>
            <Time>2019-10-04T15:10:26.000Z</Time>
            <Position>
              <LatitudeDegrees>43.00340526737272739410400390625</LatitudeDegrees>
              <LongitudeDegrees>-5.76555102132260799407958984375</LongitudeDegrees>
            </Position>
            <AltitudeMeters>1182.199951171875</AltitudeMeters>
            <DistanceMeters>NAN</DistanceMeters>
          </Trackpoint>
          <Trackpoint>
            <Time>2019-10-04T15:10:31.000Z</Time>
            <Position>
              <LatitudeDegrees>43.003330416977405548095703125</LatitudeDegrees>
              <LongitudeDegrees>-5.76549771241843700408935546875</LongitudeDegrees>
            </Position>
            <AltitudeMeters>1183</AltitudeMeters>
            <DistanceMeters>NAN</DistanceMeters>
          </Trackpoint>
          <Trackpoint>
            <Time>2019-10-04T15:10:32.000Z</Time>
            <Position>
              <LatitudeDegrees>43.00331289879977703094482421875</LatitudeDegrees>
              <LongitudeDegrees>-5.76548849232494831085205078125</LongitudeDegrees>
            </Position>
            <AltitudeMeters>1183.199951171875</AltitudeMeters>
            <DistanceMeters>NAN</DistanceMeters>
          </Trackpoint>
          <Trackpoint>
            <Time>2019-10-04T15:10:38.000Z</Time>
            <Position>
              <LatitudeDegrees>43.00321734510362148284912109375</LatitudeDegrees>
              <LongitudeDegrees>-5.76544457115232944488525390625</LongitudeDegrees>
            </Position>
            <AltitudeMeters>1184.199951171875</AltitudeMeters>
            <DistanceMeters>NAN</DistanceMeters>
          </Trackpoint>
          <Trackpoint>
            <Time>2019-10-04T15:10:41.000Z</Time>
            <Position>
              <LatitudeDegrees>43.003170154988765716552734375</LatitudeDegrees>
              <LongitudeDegrees>-5.76541942544281482696533203125</LongitudeDegrees>
            </Position>
            <AltitudeMeters>1185.4000244140625</AltitudeMeters>
            <DistanceMeters>NAN</DistanceMeters>
          </Trackpoint>
          <Trackpoint>
            <Time>2019-10-04T15:10:45.000Z</Time>
            <Position>
              <LatitudeDegrees>43.00310888327658176422119140625</LatitudeDegrees>
              <LongitudeDegrees>-5.7653935253620147705078125</LongitudeDegrees>
            </Position>
            <AltitudeMeters>1185.800048828125</AltitudeMeters>
            <DistanceMeters>NAN</DistanceMeters>
          </Trackpoint>
          <Trackpoint>
            <Time>2019-10-04T15:10:49.000Z</Time>
            <Position>
              <LatitudeDegrees>43.003052137792110443115234375</LatitudeDegrees>
              <LongitudeDegrees>-5.7653601653873920440673828125</LongitudeDegrees>
            </Position>
            <AltitudeMeters>1186.5999755859375</AltitudeMeters>
            <DistanceMeters>NAN</DistanceMeters>
          </Trackpoint>
          <Trackpoint>
            <Time>2019-10-04T15:10:54.000Z</Time>
            <Position>
              <LatitudeDegrees>43.00297477282583713531494140625</LatitudeDegrees>
              <LongitudeDegrees>-5.76532035134732723236083984375</LongitudeDegrees>
            </Position>
            <AltitudeMeters>1187.4000244140625</AltitudeMeters>
            <DistanceMeters>NAN</DistanceMeters>
          </Trackpoint>
          <Trackpoint>
            <Time>2019-10-04T15:10:56.000Z</Time>
            <Position>
              <LatitudeDegrees>43.00294275395572185516357421875</LatitudeDegrees>
              <LongitudeDegrees>-5.7653050124645233154296875</LongitudeDegrees>
            </Position>
            <AltitudeMeters>1187.800048828125</AltitudeMeters>
            <DistanceMeters>NAN</DistanceMeters>
          </Trackpoint>
          <Trackpoint>
            <Time>2019-10-04T15:11:00.000Z</Time>
            <Position>
              <LatitudeDegrees>43.002881146967411041259765625</LatitudeDegrees>
              <LongitudeDegrees>-5.76526419259607791900634765625</LongitudeDegrees>
            </Position>
            <AltitudeMeters>1188.800048828125</AltitudeMeters>
            <DistanceMeters>NAN</DistanceMeters>
          </Trackpoint>
          <Trackpoint>
            <Time>2019-10-04T15:11:02.000Z</Time>
            <Position>
              <LatitudeDegrees>43.0028561688959598541259765625</LatitudeDegrees>
              <LongitudeDegrees>-5.7652280665934085845947265625</LongitudeDegrees>
            </Position>
            <AltitudeMeters>1189</AltitudeMeters>
            <DistanceMeters>NAN</DistanceMeters>
          </Trackpoint>
          <Trackpoint>
            <Time>2019-10-04T15:11:08.000Z</Time>
            <Position>
              <LatitudeDegrees>43.002795986831188201904296875</LatitudeDegrees>
              <LongitudeDegrees>-5.76511524617671966552734375</LongitudeDegrees>
            </Position>
            <AltitudeMeters>1189.800048828125</AltitudeMeters>
            <DistanceMeters>NAN</DistanceMeters>
          </Trackpoint>
          <Trackpoint>
            <Time>2019-10-04T15:11:10.000Z</Time>
            <Position>
              <LatitudeDegrees>43.002777211368083953857421875</LatitudeDegrees>
              <LongitudeDegrees>-5.76507844962179660797119140625</LongitudeDegrees>
            </Position>
            <AltitudeMeters>1190</AltitudeMeters>
            <DistanceMeters>NAN</DistanceMeters>
          </Trackpoint>
          <Trackpoint>
            <Time>2019-10-04T15:11:16.000Z</Time>
            <Position>
              <LatitudeDegrees>43.002727925777435302734375</LatitudeDegrees>
              <LongitudeDegrees>-5.7649648748338222503662109375</LongitudeDegrees>
            </Position>
            <AltitudeMeters>1191</AltitudeMeters>
            <DistanceMeters>NAN</DistanceMeters>
          </Trackpoint>
          <Trackpoint>
            <Time>2019-10-04T15:11:20.000Z</Time>
            <Position>
              <LatitudeDegrees>43.00267855636775493621826171875</LatitudeDegrees>
              <LongitudeDegrees>-5.76488725841045379638671875</LongitudeDegrees>
            </Position>
            <AltitudeMeters>1191.4000244140625</AltitudeMeters>
            <DistanceMeters>NAN</DistanceMeters>
          </Trackpoint>
          <Trackpoint>
            <Time>2019-10-04T15:11:25.000Z</Time>
            <Position>
              <LatitudeDegrees>43.00259758718311786651611328125</LatitudeDegrees>
              <LongitudeDegrees>-5.764825902879238128662109375</LongitudeDegrees>
            </Position>
            <AltitudeMeters>1192</AltitudeMeters>
            <DistanceMeters>NAN</DistanceMeters>
          </Trackpoint>
          <Trackpoint>
            <Time>2019-10-04T15:11:29.000Z</Time>
            <Position>
              <LatitudeDegrees>43.00252198241651058197021484375</LatitudeDegrees>
              <LongitudeDegrees>-5.76479983516037464141845703125</LongitudeDegrees>
            </Position>
            <AltitudeMeters>1192.5999755859375</AltitudeMeters>
            <DistanceMeters>NAN</DistanceMeters>
          </Trackpoint>
          <Trackpoint>
            <Time>2019-10-04T15:11:34.000Z</Time>
            <Position>
              <LatitudeDegrees>43.0024263449013233184814453125</LatitudeDegrees>
              <LongitudeDegrees>-5.7647757790982723236083984375</LongitudeDegrees>
            </Position>
            <AltitudeMeters>1193.199951171875</AltitudeMeters>
            <DistanceMeters>NAN</DistanceMeters>
          </Trackpoint>
          <Trackpoint>
            <Time>2019-10-04T15:11:39.000Z</Time>
            <Position>
              <LatitudeDegrees>43.00232953391969203948974609375</LatitudeDegrees>
              <LongitudeDegrees>-5.76475893147289752960205078125</LongitudeDegrees>
            </Position>
            <AltitudeMeters>1194</AltitudeMeters>
            <DistanceMeters>NAN</DistanceMeters>
          </Trackpoint>
          <Trackpoint>
            <Time>2019-10-04T15:11:43.000Z</Time>
            <Position>
              <LatitudeDegrees>43.0022540129721164703369140625</LatitudeDegrees>
              <LongitudeDegrees>-5.76475725509226322174072265625</LongitudeDegrees>
            </Position>
            <AltitudeMeters>1194.199951171875</AltitudeMeters>
            <DistanceMeters>NAN</DistanceMeters>
          </Trackpoint>
          <Trackpoint>
            <Time>2019-10-04T15:11:49.000Z</Time>
            <Position>
              <LatitudeDegrees>43.0021363310515880584716796875</LatitudeDegrees>
              <LongitudeDegrees>-5.7647536508738994598388671875</LongitudeDegrees>
            </Position>
            <AltitudeMeters>1195.4000244140625</AltitudeMeters>
            <DistanceMeters>NAN</DistanceMeters>
          </Trackpoint>
          <Trackpoint>
            <Time>2019-10-04T15:11:50.000Z</Time>
            <Position>
              <LatitudeDegrees>43.00211596302688121795654296875</LatitudeDegrees>
              <LongitudeDegrees>-5.764753818511962890625</LongitudeDegrees>
            </Position>
            <AltitudeMeters>1195.4000244140625</AltitudeMeters>
            <DistanceMeters>NAN</DistanceMeters>
          </Trackpoint>
          <Trackpoint>
            <Time>2019-10-04T15:11:58.000Z</Time>
            <Position>
              <LatitudeDegrees>43.00195871852338314056396484375</LatitudeDegrees>
              <LongitudeDegrees>-5.76475038193166255950927734375</LongitudeDegrees>
            </Position>
            <AltitudeMeters>1196.4000244140625</AltitudeMeters>
            <DistanceMeters>NAN</DistanceMeters>
          </Trackpoint>
          <Trackpoint>
            <Time>2019-10-04T15:12:01.000Z</Time>
            <Position>
              <LatitudeDegrees>43.00190247595310211181640625</LatitudeDegrees>
              <LongitudeDegrees>-5.7647523097693920135498046875</LongitudeDegrees>
            </Position>
            <AltitudeMeters>1196.800048828125</AltitudeMeters>
            <DistanceMeters>NAN</DistanceMeters>
          </Trackpoint>
          <Trackpoint>
            <Time>2019-10-04T15:12:10.000Z</Time>
            <Position>
              <LatitudeDegrees>43.00172285176813602447509765625</LatitudeDegrees>
              <LongitudeDegrees>-5.76475859619677066802978515625</LongitudeDegrees>
            </Position>
            <AltitudeMeters>1197.4000244140625</AltitudeMeters>
            <DistanceMeters>NAN</DistanceMeters>
          </Trackpoint>
          <Trackpoint>
            <Time>2019-10-04T15:12:11.000Z</Time>
            <Position>
              <LatitudeDegrees>43.0017031542956829071044921875</LatitudeDegrees>
              <LongitudeDegrees>-5.76476429589092731475830078125</LongitudeDegrees>
            </Position>
            <AltitudeMeters>1197.800048828125</AltitudeMeters>
            <DistanceMeters>NAN</DistanceMeters>
          </Trackpoint>
          <Trackpoint>
            <Time>2019-10-04T15:12:19.000Z</Time>
            <Position>
              <LatitudeDegrees>43.001539371907711029052734375</LatitudeDegrees>
              <LongitudeDegrees>-5.7647834904491901397705078125</LongitudeDegrees>
            </Position>
            <AltitudeMeters>1198.5999755859375</AltitudeMeters>
            <DistanceMeters>NAN</DistanceMeters>
          </Trackpoint>
          <Trackpoint>
            <Time>2019-10-04T15:12:20.000Z</Time>
            <Position>
              <LatitudeDegrees>43.00151715986430644989013671875</LatitudeDegrees>
              <LongitudeDegrees>-5.76478575356304645538330078125</LongitudeDegrees>
            </Position>
            <AltitudeMeters>1198.800048828125</AltitudeMeters>
            <DistanceMeters>NAN</DistanceMeters>
          </Trackpoint>
          <Trackpoint>
            <Time>2019-10-04T15:12:28.000Z</Time>
            <Position>
              <LatitudeDegrees>43.00134650431573390960693359375</LatitudeDegrees>
              <LongitudeDegrees>-5.7647878490388393402099609375</LongitudeDegrees>
            </Position>
            <AltitudeMeters>1199.800048828125</AltitudeMeters>
            <DistanceMeters>NAN</DistanceMeters>
          </Trackpoint>
          <Trackpoint>
            <Time>2019-10-04T15:12:29.000Z</Time>
            <Position>
              <LatitudeDegrees>43.00132672302424907684326171875</LatitudeDegrees>
              <LongitudeDegrees>-5.7647901959717273712158203125</LongitudeDegrees>
            </Position>
            <AltitudeMeters>1199.800048828125</AltitudeMeters>
            <DistanceMeters>NAN</DistanceMeters>
          </Trackpoint>
          <Trackpoint>
            <Time>2019-10-04T15:12:37.000Z</Time>
            <Position>
              <LatitudeDegrees>43.00116864033043384552001953125</LatitudeDegrees>
              <LongitudeDegrees>-5.76483101584017276763916015625</LongitudeDegrees>
            </Position>
            <AltitudeMeters>1201</AltitudeMeters>
            <DistanceMeters>NAN</DistanceMeters>
          </Trackpoint>
          <Trackpoint>
            <Time>2019-10-04T15:12:45.000Z</Time>
            <Position>
              <LatitudeDegrees>43.00103788264095783233642578125</LatitudeDegrees>
              <LongitudeDegrees>-5.7649430818855762481689453125</LongitudeDegrees>
            </Position>
            <AltitudeMeters>1202.199951171875</AltitudeMeters>
            <DistanceMeters>NAN</DistanceMeters>
          </Trackpoint>
          <Trackpoint>
            <Time>2019-10-04T15:12:53.000Z</Time>
            <Position>
              <LatitudeDegrees>43.0009581707417964935302734375</LatitudeDegrees>
              <LongitudeDegrees>-5.76513276435434818267822265625</LongitudeDegrees>
            </Position>
            <AltitudeMeters>1203.199951171875</AltitudeMeters>
            <DistanceMeters>NAN</DistanceMeters>
          </Trackpoint>
          <Trackpoint>
            <Time>2019-10-04T15:12:59.000Z</Time>
            <Position>
              <LatitudeDegrees>43.0009642057120800018310546875</LatitudeDegrees>
              <LongitudeDegrees>-5.76528531499207019805908203125</LongitudeDegrees>
            </Position>
            <AltitudeMeters>1204.199951171875</AltitudeMeters>
            <DistanceMeters>NAN</DistanceMeters>
          </Trackpoint>
          <Trackpoint>
            <Time>2019-10-04T15:13:05.000Z</Time>
            <Position>
              <LatitudeDegrees>43.0009893514215946197509765625</LatitudeDegrees>
              <LongitudeDegrees>-5.76543970964848995208740234375</LongitudeDegrees>
            </Position>
            <AltitudeMeters>1205.4000244140625</AltitudeMeters>
            <DistanceMeters>NAN</DistanceMeters>
          </Trackpoint>
          <Trackpoint>
            <Time>2019-10-04T15:13:08.000Z</Time>
            <Position>
              <LatitudeDegrees>43.001003265380859375</LatitudeDegrees>
              <LongitudeDegrees>-5.76551229692995548248291015625</LongitudeDegrees>
            </Position>
            <AltitudeMeters>1206</AltitudeMeters>
            <DistanceMeters>NAN</DistanceMeters>
          </Trackpoint>
          <Trackpoint>
            <Time>2019-10-04T15:13:12.000Z</Time>
            <Position>
              <LatitudeDegrees>43.00101625733077526092529296875</LatitudeDegrees>
              <LongitudeDegrees>-5.76560533605515956878662109375</LongitudeDegrees>
            </Position>
            <AltitudeMeters>1206.4000244140625</AltitudeMeters>
            <DistanceMeters>NAN</DistanceMeters>
          </Trackpoint>
          <Trackpoint>
            <Time>2019-10-04T15:13:16.000Z</Time>
            <Position>
              <LatitudeDegrees>43.00101424567401409149169921875</LatitudeDegrees>
              <LongitudeDegrees>-5.76570239849388599395751953125</LongitudeDegrees>
            </Position>
            <AltitudeMeters>1207</AltitudeMeters>
            <DistanceMeters>NAN</DistanceMeters>
          </Trackpoint>
          <Trackpoint>
            <Time>2019-10-04T15:13:19.000Z</Time>
            <Position>
              <LatitudeDegrees>43.00101357512176036834716796875</LatitudeDegrees>
              <LongitudeDegrees>-5.7657745666801929473876953125</LongitudeDegrees>
            </Position>
            <AltitudeMeters>1207.800048828125</AltitudeMeters>
            <DistanceMeters>NAN</DistanceMeters>
          </Trackpoint>
          <Trackpoint>
            <Time>2019-10-04T15:13:26.000Z</Time>
            <Position>
              <LatitudeDegrees>43.0010004155337810516357421875</LatitudeDegrees>
              <LongitudeDegrees>-5.76595653779804706573486328125</LongitudeDegrees>
            </Position>
            <AltitudeMeters>1208.5999755859375</AltitudeMeters>
            <DistanceMeters>NAN</DistanceMeters>
          </Trackpoint>
          <Trackpoint>
            <Time>2019-10-04T15:13:27.000Z</Time>
            <Position>
              <LatitudeDegrees>43.0009920336306095123291015625</LatitudeDegrees>
              <LongitudeDegrees>-5.7659787498414516448974609375</LongitudeDegrees>
            </Position>
            <AltitudeMeters>1208.800048828125</AltitudeMeters>
            <DistanceMeters>NAN</DistanceMeters>
          </Trackpoint>
          <Trackpoint>
            <Time>2019-10-04T15:13:32.000Z</Time>
            <Position>
              <LatitudeDegrees>43.00095657818019390106201171875</LatitudeDegrees>
              <LongitudeDegrees>-5.7660836912691593170166015625</LongitudeDegrees>
            </Position>
            <AltitudeMeters>1209.5999755859375</AltitudeMeters>
            <DistanceMeters>NAN</DistanceMeters>
          </Trackpoint>
          <Trackpoint>
            <Time>2019-10-04T15:13:35.000Z</Time>
            <Position>
              <LatitudeDegrees>43.0009266547858715057373046875</LatitudeDegrees>
              <LongitudeDegrees>-5.76614387333393096923828125</LongitudeDegrees>
            </Position>
            <AltitudeMeters>1210.199951171875</AltitudeMeters>
            <DistanceMeters>NAN</DistanceMeters>
          </Trackpoint>
          <Trackpoint>
            <Time>2019-10-04T15:13:39.000Z</Time>
            <Position>
              <LatitudeDegrees>43.0008812248706817626953125</LatitudeDegrees>
              <LongitudeDegrees>-5.7662127725780010223388671875</LongitudeDegrees>
            </Position>
            <AltitudeMeters>1210.800048828125</AltitudeMeters>
            <DistanceMeters>NAN</DistanceMeters>
          </Trackpoint>
          <Trackpoint>
            <Time>2019-10-04T15:13:40.000Z</Time>
            <Position>
              <LatitudeDegrees>43.0008696578443050384521484375</LatitudeDegrees>
              <LongitudeDegrees>-5.7662312127649784088134765625</LongitudeDegrees>
            </Position>
            <AltitudeMeters>1211.4000244140625</AltitudeMeters>
            <DistanceMeters>NAN</DistanceMeters>
          </Trackpoint>
          <Trackpoint>
            <Time>2019-10-04T15:13:46.000Z</Time>
            <Position>
              <LatitudeDegrees>43.00078894011676311492919921875</LatitudeDegrees>
              <LongitudeDegrees>-5.76630908064544200897216796875</LongitudeDegrees>
            </Position>
            <AltitudeMeters>1212.4000244140625</AltitudeMeters>
            <DistanceMeters>NAN</DistanceMeters>
          </Trackpoint>
          <Trackpoint>
            <Time>2019-10-04T15:13:48.000Z</Time>
            <Position>
              <LatitudeDegrees>43.0007551610469818115234375</LatitudeDegrees>
              <LongitudeDegrees>-5.7663242518901824951171875</LongitudeDegrees>
            </Position>
            <AltitudeMeters>1212.800048828125</AltitudeMeters>
            <DistanceMeters>NAN</DistanceMeters>
          </Trackpoint>
          <Trackpoint>
            <Time>2019-10-04T15:13:52.000Z</Time>
            <Position>
              <LatitudeDegrees>43.00068986602127552032470703125</LatitudeDegrees>
              <LongitudeDegrees>-5.76634780503809452056884765625</LongitudeDegrees>
            </Position>
            <AltitudeMeters>1213.4000244140625</AltitudeMeters>
            <DistanceMeters>NAN</DistanceMeters>
          </Trackpoint>
          <Trackpoint>
            <Time>2019-10-04T15:13:56.000Z</Time>
            <Position>
              <LatitudeDegrees>43.0006228946149349212646484375</LatitudeDegrees>
              <LongitudeDegrees>-5.76632852666079998016357421875</LongitudeDegrees>
            </Position>
            <AltitudeMeters>1214.199951171875</AltitudeMeters>
            <DistanceMeters>NAN</DistanceMeters>
          </Trackpoint>
          <Trackpoint>
            <Time>2019-10-04T15:13:58.000Z</Time>
            <Position>
              <LatitudeDegrees>43.00059087574481964111328125</LatitudeDegrees>
              <LongitudeDegrees>-5.76630413532257080078125</LongitudeDegrees>
            </Position>
            <AltitudeMeters>1214.5999755859375</AltitudeMeters>
            <DistanceMeters>NAN</DistanceMeters>
          </Trackpoint>
          <Trackpoint>
            <Time>2019-10-04T15:14:01.000Z</Time>
            <Position>
              <LatitudeDegrees>43.0005390755832195281982421875</LatitudeDegrees>
              <LongitudeDegrees>-5.76629600487649440765380859375</LongitudeDegrees>
            </Position>
            <AltitudeMeters>1215.5999755859375</AltitudeMeters>
            <DistanceMeters>NAN</DistanceMeters>
          </Trackpoint>
          <Trackpoint>
            <Time>2019-10-04T15:14:04.000Z</Time>
            <Position>
              <LatitudeDegrees>43.0004951544106006622314453125</LatitudeDegrees>
              <LongitudeDegrees>-5.7662680931389331817626953125</LongitudeDegrees>
            </Position>
            <AltitudeMeters>1215.800048828125</AltitudeMeters>
            <DistanceMeters>NAN</DistanceMeters>
          </Trackpoint>
          <Trackpoint>
            <Time>2019-10-04T15:14:09.000Z</Time>
            <Position>
              <LatitudeDegrees>43.00042868591845035552978515625</LatitudeDegrees>
              <LongitudeDegrees>-5.76620363630354404449462890625</LongitudeDegrees>
            </Position>
            <AltitudeMeters>1217</AltitudeMeters>
            <DistanceMeters>NAN</DistanceMeters>
          </Trackpoint>
          <Trackpoint>
            <Time>2019-10-04T15:14:15.000Z</Time>
            <Position>
              <LatitudeDegrees>43.00037495791912078857421875</LatitudeDegrees>
              <LongitudeDegrees>-5.76611394993960857391357421875</LongitudeDegrees>
            </Position>
            <AltitudeMeters>1218.199951171875</AltitudeMeters>
            <DistanceMeters>NAN</DistanceMeters>
          </Trackpoint>
          <Trackpoint>
            <Time>2019-10-04T15:14:19.000Z</Time>
            <Position>
              <LatitudeDegrees>43.000340759754180908203125</LatitudeDegrees>
              <LongitudeDegrees>-5.7660447992384433746337890625</LongitudeDegrees>
            </Position>
            <AltitudeMeters>1218.5999755859375</AltitudeMeters>
            <DistanceMeters>NAN</DistanceMeters>
          </Trackpoint>
          <Trackpoint>
            <Time>2019-10-04T15:14:21.000Z</Time>
            <Position>
              <LatitudeDegrees>43.000337742269039154052734375</LatitudeDegrees>
              <LongitudeDegrees>-5.76603683643043041229248046875</LongitudeDegrees>
            </Position>
            <AltitudeMeters>1219.4000244140625</AltitudeMeters>
            <DistanceMeters>NAN</DistanceMeters>
          </Trackpoint>
          <Trackpoint>
            <Time>2019-10-04T15:14:24.000Z</Time>
            <Position>
              <LatitudeDegrees>43.000337742269039154052734375</LatitudeDegrees>
              <LongitudeDegrees>-5.76603683643043041229248046875</LongitudeDegrees>
            </Position>
            <AltitudeMeters>1219.199951171875</AltitudeMeters>
            <DistanceMeters>NAN</DistanceMeters>
          </Trackpoint>
          <Trackpoint>
            <Time>2019-10-04T15:14:34.000Z</Time>
            <Position>
              <LatitudeDegrees>43.000337742269039154052734375</LatitudeDegrees>
              <LongitudeDegrees>-5.76603683643043041229248046875</LongitudeDegrees>
            </Position>
            <AltitudeMeters>1219</AltitudeMeters>
            <DistanceMeters>NAN</DistanceMeters>
          </Trackpoint>
          <Trackpoint>
            <Time>2019-10-04T15:14:37.000Z</Time>
            <Position>
              <LatitudeDegrees>43.000337742269039154052734375</LatitudeDegrees>
              <LongitudeDegrees>-5.76603683643043041229248046875</LongitudeDegrees>
            </Position>
            <AltitudeMeters>1219.199951171875</AltitudeMeters>
            <DistanceMeters>NAN</DistanceMeters>
          </Trackpoint>
          <Trackpoint>
            <Time>2019-10-04T15:14:50.000Z</Time>
            <Position>
              <LatitudeDegrees>43.000337742269039154052734375</LatitudeDegrees>
              <LongitudeDegrees>-5.76603683643043041229248046875</LongitudeDegrees>
            </Position>
            <AltitudeMeters>1219.199951171875</AltitudeMeters>
            <DistanceMeters>NAN</DistanceMeters>
          </Trackpoint>
          <Trackpoint>
            <Time>2019-10-04T15:14:52.000Z</Time>
            <Position>
              <LatitudeDegrees>43.000337742269039154052734375</LatitudeDegrees>
              <LongitudeDegrees>-5.76603683643043041229248046875</LongitudeDegrees>
            </Position>
            <AltitudeMeters>1219.199951171875</AltitudeMeters>
            <DistanceMeters>NAN</DistanceMeters>
          </Trackpoint>
          <Trackpoint>
            <Time>2019-10-04T15:14:59.000Z</Time>
            <Position>
              <LatitudeDegrees>43.000337742269039154052734375</LatitudeDegrees>
              <LongitudeDegrees>-5.76603683643043041229248046875</LongitudeDegrees>
            </Position>
            <AltitudeMeters>1219.4000244140625</AltitudeMeters>
            <DistanceMeters>NAN</DistanceMeters>
          </Trackpoint>
          <Trackpoint>
            <Time>2019-10-04T15:15:03.000Z</Time>
            <Position>
              <LatitudeDegrees>43.00033816136419773101806640625</LatitudeDegrees>
              <LongitudeDegrees>-5.7660384289920330047607421875</LongitudeDegrees>
            </Position>
            <AltitudeMeters>1219.199951171875</AltitudeMeters>
            <DistanceMeters>NAN</DistanceMeters>
          </Trackpoint>
          <Trackpoint>
            <Time>2019-10-04T15:15:08.000Z</Time>
            <Position>
              <LatitudeDegrees>43.00033816136419773101806640625</LatitudeDegrees>
              <LongitudeDegrees>-5.7660384289920330047607421875</LongitudeDegrees>
            </Position>
            <AltitudeMeters>1219</AltitudeMeters>
            <DistanceMeters>NAN</DistanceMeters>
          </Trackpoint>
          <Trackpoint>
            <Time>2019-10-04T15:15:12.000Z</Time>
            <Position>
              <LatitudeDegrees>43.00033816136419773101806640625</LatitudeDegrees>
              <LongitudeDegrees>-5.7660384289920330047607421875</LongitudeDegrees>
            </Position>
            <AltitudeMeters>1219.4000244140625</AltitudeMeters>
            <DistanceMeters>NAN</DistanceMeters>
          </Trackpoint>
          <Trackpoint>
            <Time>2019-10-04T15:15:17.000Z</Time>
            <Position>
              <LatitudeDegrees>43.00033816136419773101806640625</LatitudeDegrees>
              <LongitudeDegrees>-5.7660384289920330047607421875</LongitudeDegrees>
            </Position>
            <AltitudeMeters>1219.199951171875</AltitudeMeters>
            <DistanceMeters>NAN</DistanceMeters>
          </Trackpoint>
          <Trackpoint>
            <Time>2019-10-04T15:15:23.000Z</Time>
            <Position>
              <LatitudeDegrees>43.00033665262162685394287109375</LatitudeDegrees>
              <LongitudeDegrees>-5.76603063382208347320556640625</LongitudeDegrees>
            </Position>
            <AltitudeMeters>1219.199951171875</AltitudeMeters>
            <DistanceMeters>NAN</DistanceMeters>
          </Trackpoint>
          <Trackpoint>
            <Time>2019-10-04T15:15:31.000Z</Time>
            <Position>
              <LatitudeDegrees>43.00028703175485134124755859375</LatitudeDegrees>
              <LongitudeDegrees>-5.76586651615798473358154296875</LongitudeDegrees>
            </Position>
            <AltitudeMeters>1220.4000244140625</AltitudeMeters>
            <DistanceMeters>NAN</DistanceMeters>
          </Trackpoint>
          <Trackpoint>
            <Time>2019-10-04T15:15:35.000Z</Time>
            <Position>
              <LatitudeDegrees>43.00025166012346744537353515625</LatitudeDegrees>
              <LongitudeDegrees>-5.7657977007329463958740234375</LongitudeDegrees>
            </Position>
            <AltitudeMeters>1221.5999755859375</AltitudeMeters>
            <DistanceMeters>NAN</DistanceMeters>
          </Trackpoint>
          <Trackpoint>
            <Time>2019-10-04T15:15:38.000Z</Time>
            <Position>
              <LatitudeDegrees>43.00022969953715801239013671875</LatitudeDegrees>
              <LongitudeDegrees>-5.76574631966650485992431640625</LongitudeDegrees>
            </Position>
            <AltitudeMeters>1222</AltitudeMeters>
            <DistanceMeters>NAN</DistanceMeters>
          </Trackpoint>
          <Trackpoint>
            <Time>2019-10-04T15:15:40.000Z</Time>
            <Position>
              <LatitudeDegrees>43.0002111755311489105224609375</LatitudeDegrees>
              <LongitudeDegrees>-5.76571094803512096405029296875</LongitudeDegrees>
            </Position>
            <AltitudeMeters>1222.800048828125</AltitudeMeters>
            <DistanceMeters>NAN</DistanceMeters>
          </Trackpoint>
          <Trackpoint>
            <Time>2019-10-04T15:15:44.000Z</Time>
            <Position>
              <LatitudeDegrees>43.0001846887171268463134765625</LatitudeDegrees>
              <LongitudeDegrees>-5.76563894748687744140625</LongitudeDegrees>
            </Position>
            <AltitudeMeters>1223.5999755859375</AltitudeMeters>
            <DistanceMeters>NAN</DistanceMeters>
          </Trackpoint>
          <Trackpoint>
            <Time>2019-10-04T15:15:46.000Z</Time>
            <Position>
              <LatitudeDegrees>43.0001652427017688751220703125</LatitudeDegrees>
              <LongitudeDegrees>-5.76560114510357379913330078125</LongitudeDegrees>
            </Position>
            <AltitudeMeters>1224.199951171875</AltitudeMeters>
            <DistanceMeters>NAN</DistanceMeters>
          </Trackpoint>
          <Trackpoint>
            <Time>2019-10-04T15:15:50.000Z</Time>
            <Position>
              <LatitudeDegrees>43.00013615749776363372802734375</LatitudeDegrees>
              <LongitudeDegrees>-5.76553174294531345367431640625</LongitudeDegrees>
            </Position>
            <AltitudeMeters>1225.199951171875</AltitudeMeters>
            <DistanceMeters>NAN</DistanceMeters>
          </Trackpoint>
          <Trackpoint>
            <Time>2019-10-04T15:15:51.000Z</Time>
            <Position>
              <LatitudeDegrees>43.00013213418424129486083984375</LatitudeDegrees>
              <LongitudeDegrees>-5.76551615260541439056396484375</LongitudeDegrees>
            </Position>
            <AltitudeMeters>1225.4000244140625</AltitudeMeters>
            <DistanceMeters>NAN</DistanceMeters>
          </Trackpoint>
          <Trackpoint>
            <Time>2019-10-04T15:15:56.000Z</Time>
            <Position>
              <LatitudeDegrees>43.00009223632514476776123046875</LatitudeDegrees>
              <LongitudeDegrees>-5.765421688556671142578125</LongitudeDegrees>
            </Position>
            <AltitudeMeters>1226.5999755859375</AltitudeMeters>
            <DistanceMeters>NAN</DistanceMeters>
          </Trackpoint>
          <Trackpoint>
            <Time>2019-10-04T15:15:57.000Z</Time>
            <Position>
              <LatitudeDegrees>43.000084944069385528564453125</LatitudeDegrees>
              <LongitudeDegrees>-5.76540282927453517913818359375</LongitudeDegrees>
            </Position>
            <AltitudeMeters>1226.800048828125</AltitudeMeters>
            <DistanceMeters>NAN</DistanceMeters>
          </Trackpoint>
          <Trackpoint>
            <Time>2019-10-04T15:16:00.000Z</Time>
            <Position>
              <LatitudeDegrees>43.00006524659693241119384765625</LatitudeDegrees>
              <LongitudeDegrees>-5.765351951122283935546875</LongitudeDegrees>
            </Position>
            <AltitudeMeters>1228.199951171875</AltitudeMeters>
            <DistanceMeters>NAN</DistanceMeters>
          </Trackpoint>
          <Trackpoint>
            <Time>2019-10-04T15:16:06.000Z</Time>
            <Position>
              <LatitudeDegrees>43.00002300180494785308837890625</LatitudeDegrees>
              <LongitudeDegrees>-5.76525111682713031768798828125</LongitudeDegrees>
            </Position>
            <AltitudeMeters>1229.199951171875</AltitudeMeters>
            <DistanceMeters>NAN</DistanceMeters>
          </Trackpoint>
          <Trackpoint>
            <Time>2019-10-04T15:16:07.000Z</Time>
            <Position>
              <LatitudeDegrees>43.0000163801014423370361328125</LatitudeDegrees>
              <LongitudeDegrees>-5.76523334719240665435791015625</LongitudeDegrees>
            </Position>
            <AltitudeMeters>1229.4000244140625</AltitudeMeters>
            <DistanceMeters>NAN</DistanceMeters>
          </Trackpoint>
          <Trackpoint>
            <Time>2019-10-04T15:16:13.000Z</Time>
            <Position>
              <LatitudeDegrees>42.99997036345303058624267578125</LatitudeDegrees>
              <LongitudeDegrees>-5.76513779349625110626220703125</LongitudeDegrees>
            </Position>
            <AltitudeMeters>1230.4000244140625</AltitudeMeters>
            <DistanceMeters>NAN</DistanceMeters>
          </Trackpoint>
          <Trackpoint>
            <Time>2019-10-04T15:16:16.000Z</Time>
            <Position>
              <LatitudeDegrees>42.9999516718089580535888671875</LatitudeDegrees>
              <LongitudeDegrees>-5.765086747705936431884765625</LongitudeDegrees>
            </Position>
            <AltitudeMeters>1231</AltitudeMeters>
            <DistanceMeters>NAN</DistanceMeters>
          </Trackpoint>
          <Trackpoint>
            <Time>2019-10-04T15:16:18.000Z</Time>
            <Position>
              <LatitudeDegrees>42.99993750639259815216064453125</LatitudeDegrees>
              <LongitudeDegrees>-5.76505363918840885162353515625</LongitudeDegrees>
            </Position>
            <AltitudeMeters>1231.4000244140625</AltitudeMeters>
            <DistanceMeters>NAN</DistanceMeters>
          </Trackpoint>
          <Trackpoint>
            <Time>2019-10-04T15:16:25.000Z</Time>
            <Position>
              <LatitudeDegrees>42.9998874664306640625</LatitudeDegrees>
              <LongitudeDegrees>-5.7649363763630390167236328125</LongitudeDegrees>
            </Position>
            <AltitudeMeters>1232.4000244140625</AltitudeMeters>
            <DistanceMeters>NAN</DistanceMeters>
          </Trackpoint>
          <Trackpoint>
            <Time>2019-10-04T15:16:27.000Z</Time>
            <Position>
              <LatitudeDegrees>42.9998799227178096771240234375</LatitudeDegrees>
              <LongitudeDegrees>-5.76490125618875026702880859375</LongitudeDegrees>
            </Position>
            <AltitudeMeters>1233.199951171875</AltitudeMeters>
            <DistanceMeters>NAN</DistanceMeters>
          </Trackpoint>
          <Trackpoint>
            <Time>2019-10-04T15:16:28.000Z</Time>
            <Position>
              <LatitudeDegrees>42.9998705349862575531005859375</LatitudeDegrees>
              <LongitudeDegrees>-5.76488767750561237335205078125</LongitudeDegrees>
            </Position>
            <AltitudeMeters>1233.4000244140625</AltitudeMeters>
            <DistanceMeters>NAN</DistanceMeters>
          </Trackpoint>
          <Trackpoint>
            <Time>2019-10-04T15:16:29.000Z</Time>
            <Position>
              <LatitudeDegrees>42.9998593032360076904296875</LatitudeDegrees>
              <LongitudeDegrees>-5.7648756913840770721435546875</LongitudeDegrees>
            </Position>
            <AltitudeMeters>1233.5999755859375</AltitudeMeters>
            <DistanceMeters>NAN</DistanceMeters>
          </Trackpoint>
          <Trackpoint>
            <Time>2019-10-04T15:16:32.000Z</Time>
            <Position>
              <LatitudeDegrees>42.999832816421985626220703125</LatitudeDegrees>
              <LongitudeDegrees>-5.7648297585546970367431640625</LongitudeDegrees>
            </Position>
            <AltitudeMeters>1233.800048828125</AltitudeMeters>
            <DistanceMeters>NAN</DistanceMeters>
          </Trackpoint>
          <Trackpoint>
            <Time>2019-10-04T15:16:33.000Z</Time>
            <Position>
              <LatitudeDegrees>42.999824769794940948486328125</LatitudeDegrees>
              <LongitudeDegrees>-5.76481282711029052734375</LongitudeDegrees>
            </Position>
            <AltitudeMeters>1234</AltitudeMeters>
            <DistanceMeters>NAN</DistanceMeters>
          </Trackpoint>
          <Trackpoint>
            <Time>2019-10-04T15:16:35.000Z</Time>
            <Position>
              <LatitudeDegrees>42.99981043674051761627197265625</LatitudeDegrees>
              <LongitudeDegrees>-5.76477670110762119293212890625</LongitudeDegrees>
            </Position>
            <AltitudeMeters>1235</AltitudeMeters>
            <DistanceMeters>NAN</DistanceMeters>
          </Trackpoint>
          <Trackpoint>
            <Time>2019-10-04T15:16:41.000Z</Time>
            <Position>
              <LatitudeDegrees>42.9997562058269977569580078125</LatitudeDegrees>
              <LongitudeDegrees>-5.7646892778575420379638671875</LongitudeDegrees>
            </Position>
            <AltitudeMeters>1235.800048828125</AltitudeMeters>
            <DistanceMeters>NAN</DistanceMeters>
          </Trackpoint>
          <Trackpoint>
            <Time>2019-10-04T15:16:42.000Z</Time>
            <Position>
              <LatitudeDegrees>42.9997501708567142486572265625</LatitudeDegrees>
              <LongitudeDegrees>-5.76467561535537242889404296875</LongitudeDegrees>
            </Position>
            <AltitudeMeters>1236.199951171875</AltitudeMeters>
            <DistanceMeters>NAN</DistanceMeters>
          </Trackpoint>
          <Trackpoint>
            <Time>2019-10-04T15:16:49.000Z</Time>
            <Position>
              <LatitudeDegrees>42.99969292245805263519287109375</LatitudeDegrees>
              <LongitudeDegrees>-5.764582157135009765625</LongitudeDegrees>
            </Position>
            <AltitudeMeters>1237</AltitudeMeters>
            <DistanceMeters>NAN</DistanceMeters>
          </Trackpoint>
          <Trackpoint>
            <Time>2019-10-04T15:16:50.000Z</Time>
            <Position>
              <LatitudeDegrees>42.99968638457357883453369140625</LatitudeDegrees>
              <LongitudeDegrees>-5.76456799171864986419677734375</LongitudeDegrees>
            </Position>
            <AltitudeMeters>1237.4000244140625</AltitudeMeters>
            <DistanceMeters>NAN</DistanceMeters>
          </Trackpoint>
          <Trackpoint>
            <Time>2019-10-04T15:16:57.000Z</Time>
            <Position>
              <LatitudeDegrees>42.99961186945438385009765625</LatitudeDegrees>
              <LongitudeDegrees>-5.76446615159511566162109375</LongitudeDegrees>
            </Position>
            <AltitudeMeters>1238.199951171875</AltitudeMeters>
            <DistanceMeters>NAN</DistanceMeters>
          </Trackpoint>
          <Trackpoint>
            <Time>2019-10-04T15:16:58.000Z</Time>
            <Position>
              <LatitudeDegrees>42.9996036551892757415771484375</LatitudeDegrees>
              <LongitudeDegrees>-5.76445366255939006805419921875</LongitudeDegrees>
            </Position>
            <AltitudeMeters>1238.4000244140625</AltitudeMeters>
            <DistanceMeters>NAN</DistanceMeters>
          </Trackpoint>
          <Trackpoint>
            <Time>2019-10-04T15:17:04.000Z</Time>
            <Position>
              <LatitudeDegrees>42.999543137848377227783203125</LatitudeDegrees>
              <LongitudeDegrees>-5.764361210167407989501953125</LongitudeDegrees>
            </Position>
            <AltitudeMeters>1239.5999755859375</AltitudeMeters>
            <DistanceMeters>NAN</DistanceMeters>
          </Trackpoint>
          <Trackpoint>
            <Time>2019-10-04T15:17:05.000Z</Time>
            <Position>
              <LatitudeDegrees>42.9995309002697467803955078125</LatitudeDegrees>
              <LongitudeDegrees>-5.76434503309428691864013671875</LongitudeDegrees>
            </Position>
            <AltitudeMeters>1239.800048828125</AltitudeMeters>
            <DistanceMeters>NAN</DistanceMeters>
          </Trackpoint>
          <Trackpoint>
            <Time>2019-10-04T15:17:11.000Z</Time>
            <Position>
              <LatitudeDegrees>42.99947105348110198974609375</LatitudeDegrees>
              <LongitudeDegrees>-5.76425199396908283233642578125</LongitudeDegrees>
            </Position>
            <AltitudeMeters>1240.800048828125</AltitudeMeters>
            <DistanceMeters>NAN</DistanceMeters>
          </Trackpoint>
          <Trackpoint>
            <Time>2019-10-04T15:17:16.000Z</Time>
            <Position>
              <LatitudeDegrees>42.99942637793719768524169921875</LatitudeDegrees>
              <LongitudeDegrees>-5.764182507991790771484375</LongitudeDegrees>
            </Position>
            <AltitudeMeters>1241.800048828125</AltitudeMeters>
            <DistanceMeters>NAN</DistanceMeters>
          </Trackpoint>
          <Trackpoint>
            <Time>2019-10-04T15:17:19.000Z</Time>
            <Position>
              <LatitudeDegrees>42.9993984661996364593505859375</LatitudeDegrees>
              <LongitudeDegrees>-5.7641421072185039520263671875</LongitudeDegrees>
            </Position>
            <AltitudeMeters>1242</AltitudeMeters>
            <DistanceMeters>NAN</DistanceMeters>
          </Trackpoint>
          <Trackpoint>
            <Time>2019-10-04T15:17:23.000Z</Time>
            <Position>
              <LatitudeDegrees>42.999354042112827301025390625</LatitudeDegrees>
              <LongitudeDegrees>-5.76408796012401580810546875</LongitudeDegrees>
            </Position>
            <AltitudeMeters>1242.5999755859375</AltitudeMeters>
            <DistanceMeters>NAN</DistanceMeters>
          </Trackpoint>
          <Trackpoint>
            <Time>2019-10-04T15:17:26.000Z</Time>
            <Position>
              <LatitudeDegrees>42.9993263818323612213134765625</LatitudeDegrees>
              <LongitudeDegrees>-5.76404462568461894989013671875</LongitudeDegrees>
            </Position>
            <AltitudeMeters>1243.4000244140625</AltitudeMeters>
            <DistanceMeters>NAN</DistanceMeters>
          </Trackpoint>
          <Trackpoint>
            <Time>2019-10-04T15:17:29.000Z</Time>
            <Position>
              <LatitudeDegrees>42.9992938600480556488037109375</LatitudeDegrees>
              <LongitudeDegrees>-5.7640083320438861846923828125</LongitudeDegrees>
            </Position>
            <AltitudeMeters>1243.4000244140625</AltitudeMeters>
            <DistanceMeters>NAN</DistanceMeters>
          </Trackpoint>
          <Trackpoint>
            <Time>2019-10-04T15:17:34.000Z</Time>
            <Position>
              <LatitudeDegrees>42.9992423951625823974609375</LatitudeDegrees>
              <LongitudeDegrees>-5.76394186355173587799072265625</LongitudeDegrees>
            </Position>
            <AltitudeMeters>1244.5999755859375</AltitudeMeters>
            <DistanceMeters>NAN</DistanceMeters>
          </Trackpoint>
          <Trackpoint>
            <Time>2019-10-04T15:17:37.000Z</Time>
            <Position>
              <LatitudeDegrees>42.9992110468447208404541015625</LatitudeDegrees>
              <LongitudeDegrees>-5.76389760710299015045166015625</LongitudeDegrees>
            </Position>
            <AltitudeMeters>1245.199951171875</AltitudeMeters>
            <DistanceMeters>NAN</DistanceMeters>
          </Trackpoint>
          <Trackpoint>
            <Time>2019-10-04T15:17:41.000Z</Time>
            <Position>
              <LatitudeDegrees>42.99917341209948062896728515625</LatitudeDegrees>
              <LongitudeDegrees>-5.76383943669497966766357421875</LongitudeDegrees>
            </Position>
            <AltitudeMeters>1245.5999755859375</AltitudeMeters>
            <DistanceMeters>NAN</DistanceMeters>
          </Trackpoint>
          <Trackpoint>
            <Time>2019-10-04T15:17:46.000Z</Time>
            <Position>
              <LatitudeDegrees>42.999120689928531646728515625</LatitudeDegrees>
              <LongitudeDegrees>-5.76375997625291347503662109375</LongitudeDegrees>
            </Position>
            <AltitudeMeters>1247</AltitudeMeters>
            <DistanceMeters>NAN</DistanceMeters>
          </Trackpoint>
          <Trackpoint>
            <Time>2019-10-04T15:17:47.000Z</Time>
            <Position>
              <LatitudeDegrees>42.99910937435925006866455078125</LatitudeDegrees>
              <LongitudeDegrees>-5.76374539174139499664306640625</LongitudeDegrees>
            </Position>
            <AltitudeMeters>1246.800048828125</AltitudeMeters>
            <DistanceMeters>NAN</DistanceMeters>
          </Trackpoint>
          <Trackpoint>
            <Time>2019-10-04T15:17:54.000Z</Time>
            <Position>
              <LatitudeDegrees>42.999036200344562530517578125</LatitudeDegrees>
              <LongitudeDegrees>-5.7636420428752899169921875</LongitudeDegrees>
            </Position>
            <AltitudeMeters>1248</AltitudeMeters>
            <DistanceMeters>NAN</DistanceMeters>
          </Trackpoint>
          <Trackpoint>
            <Time>2019-10-04T15:17:55.000Z</Time>
            <Position>
              <LatitudeDegrees>42.99902555532753467559814453125</LatitudeDegrees>
              <LongitudeDegrees>-5.76362972147762775421142578125</LongitudeDegrees>
            </Position>
            <AltitudeMeters>1248.4000244140625</AltitudeMeters>
            <DistanceMeters>NAN</DistanceMeters>
          </Trackpoint>
          <Trackpoint>
            <Time>2019-10-04T15:18:00.000Z</Time>
            <Position>
              <LatitudeDegrees>42.9989716596901416778564453125</LatitudeDegrees>
              <LongitudeDegrees>-5.76355881057679653167724609375</LongitudeDegrees>
            </Position>
            <AltitudeMeters>1249</AltitudeMeters>
            <DistanceMeters>NAN</DistanceMeters>
          </Trackpoint>
          <Trackpoint>
            <Time>2019-10-04T15:18:03.000Z</Time>
            <Position>
              <LatitudeDegrees>42.99893570132553577423095703125</LatitudeDegrees>
              <LongitudeDegrees>-5.76351740397512912750244140625</LongitudeDegrees>
            </Position>
            <AltitudeMeters>1249.199951171875</AltitudeMeters>
            <DistanceMeters>NAN</DistanceMeters>
          </Trackpoint>
          <Trackpoint>
            <Time>2019-10-04T15:18:08.000Z</Time>
            <Position>
              <LatitudeDegrees>42.998877950012683868408203125</LatitudeDegrees>
              <LongitudeDegrees>-5.76345018111169338226318359375</LongitudeDegrees>
            </Position>
            <AltitudeMeters>1250</AltitudeMeters>
            <DistanceMeters>NAN</DistanceMeters>
          </Trackpoint>
          <Trackpoint>
            <Time>2019-10-04T15:18:11.000Z</Time>
            <Position>
              <LatitudeDegrees>42.99883939325809478759765625</LatitudeDegrees>
              <LongitudeDegrees>-5.763415731489658355712890625</LongitudeDegrees>
            </Position>
            <AltitudeMeters>1251</AltitudeMeters>
            <DistanceMeters>NAN</DistanceMeters>
          </Trackpoint>
          <Trackpoint>
            <Time>2019-10-04T15:18:13.000Z</Time>
            <Position>
              <LatitudeDegrees>42.99881391227245330810546875</LatitudeDegrees>
              <LongitudeDegrees>-5.76339058578014373779296875</LongitudeDegrees>
            </Position>
            <AltitudeMeters>1251.199951171875</AltitudeMeters>
            <DistanceMeters>NAN</DistanceMeters>
          </Trackpoint>
          <Trackpoint>
            <Time>2019-10-04T15:18:18.000Z</Time>
            <Position>
              <LatitudeDegrees>42.99873990006744861602783203125</LatitudeDegrees>
              <LongitudeDegrees>-5.763355381786823272705078125</LongitudeDegrees>
            </Position>
            <AltitudeMeters>1252.199951171875</AltitudeMeters>
            <DistanceMeters>NAN</DistanceMeters>
          </Trackpoint>
          <Trackpoint>
            <Time>2019-10-04T15:18:19.000Z</Time>
            <Position>
              <LatitudeDegrees>42.99872514791786670684814453125</LatitudeDegrees>
              <LongitudeDegrees>-5.76335127465426921844482421875</LongitudeDegrees>
            </Position>
            <AltitudeMeters>1252.199951171875</AltitudeMeters>
            <DistanceMeters>NAN</DistanceMeters>
          </Trackpoint>
          <Trackpoint>
            <Time>2019-10-04T15:18:24.000Z</Time>
            <Position>
              <LatitudeDegrees>42.99865507520735263824462890625</LatitudeDegrees>
              <LongitudeDegrees>-5.76332462020218372344970703125</LongitudeDegrees>
            </Position>
            <AltitudeMeters>1253.4000244140625</AltitudeMeters>
            <DistanceMeters>NAN</DistanceMeters>
          </Trackpoint>
          <Trackpoint>
            <Time>2019-10-04T15:18:27.000Z</Time>
            <Position>
              <LatitudeDegrees>42.99861350096762180328369140625</LatitudeDegrees>
              <LongitudeDegrees>-5.7633065991103649139404296875</LongitudeDegrees>
            </Position>
            <AltitudeMeters>1254</AltitudeMeters>
            <DistanceMeters>NAN</DistanceMeters>
          </Trackpoint>
          <Trackpoint>
            <Time>2019-10-04T15:18:30.000Z</Time>
            <Position>
              <LatitudeDegrees>42.9985723458230495452880859375</LatitudeDegrees>
              <LongitudeDegrees>-5.76329528354108333587646484375</LongitudeDegrees>
            </Position>
            <AltitudeMeters>1254.800048828125</AltitudeMeters>
            <DistanceMeters>NAN</DistanceMeters>
          </Trackpoint>
          <Trackpoint>
            <Time>2019-10-04T15:18:35.000Z</Time>
            <Position>
              <LatitudeDegrees>42.99849716015160083770751953125</LatitudeDegrees>
              <LongitudeDegrees>-5.76329796575009822845458984375</LongitudeDegrees>
            </Position>
            <AltitudeMeters>1255.5999755859375</AltitudeMeters>
            <DistanceMeters>NAN</DistanceMeters>
          </Trackpoint>
          <Trackpoint>
            <Time>2019-10-04T15:18:36.000Z</Time>
            <Position>
              <LatitudeDegrees>42.9984821565449237823486328125</LatitudeDegrees>
              <LongitudeDegrees>-5.76329327188432216644287109375</LongitudeDegrees>
            </Position>
            <AltitudeMeters>1255.800048828125</AltitudeMeters>
            <DistanceMeters>NAN</DistanceMeters>
          </Trackpoint>
          <Trackpoint>
            <Time>2019-10-04T15:18:41.000Z</Time>
            <Position>
              <LatitudeDegrees>42.99840864725410938262939453125</LatitudeDegrees>
              <LongitudeDegrees>-5.76328195631504058837890625</LongitudeDegrees>
            </Position>
            <AltitudeMeters>1257</AltitudeMeters>
            <DistanceMeters>NAN</DistanceMeters>
          </Trackpoint>
          <Trackpoint>
            <Time>2019-10-04T15:18:43.000Z</Time>
            <Position>
              <LatitudeDegrees>42.99840378575026988983154296875</LatitudeDegrees>
              <LongitudeDegrees>-5.76328136958181858062744140625</LongitudeDegrees>
            </Position>
            <AltitudeMeters>1257.199951171875</AltitudeMeters>
            <DistanceMeters>NAN</DistanceMeters>
          </Trackpoint>
          <Trackpoint>
            <Time>2019-10-04T15:18:53.000Z</Time>
            <Position>
              <LatitudeDegrees>42.99840026535093784332275390625</LatitudeDegrees>
              <LongitudeDegrees>-5.76327701099216938018798828125</LongitudeDegrees>
            </Position>
            <AltitudeMeters>1257.5999755859375</AltitudeMeters>
            <DistanceMeters>NAN</DistanceMeters>
          </Trackpoint>
          <Trackpoint>
            <Time>2019-10-04T15:19:07.000Z</Time>
            <Position>
              <LatitudeDegrees>42.99840026535093784332275390625</LatitudeDegrees>
              <LongitudeDegrees>-5.76327701099216938018798828125</LongitudeDegrees>
            </Position>
            <AltitudeMeters>1257.4000244140625</AltitudeMeters>
            <DistanceMeters>NAN</DistanceMeters>
          </Trackpoint>
          <Trackpoint>
            <Time>2019-10-04T15:19:10.000Z</Time>
            <Position>
              <LatitudeDegrees>42.99840026535093784332275390625</LatitudeDegrees>
              <LongitudeDegrees>-5.76327701099216938018798828125</LongitudeDegrees>
            </Position>
            <AltitudeMeters>1257.4000244140625</AltitudeMeters>
            <DistanceMeters>NAN</DistanceMeters>
          </Trackpoint>
          <Trackpoint>
            <Time>2019-10-04T15:19:20.000Z</Time>
            <Position>
              <LatitudeDegrees>42.99840026535093784332275390625</LatitudeDegrees>
              <LongitudeDegrees>-5.76327701099216938018798828125</LongitudeDegrees>
            </Position>
            <AltitudeMeters>1257.5999755859375</AltitudeMeters>
            <DistanceMeters>NAN</DistanceMeters>
          </Trackpoint>
          <Trackpoint>
            <Time>2019-10-04T15:19:22.000Z</Time>
            <Position>
              <LatitudeDegrees>42.99840026535093784332275390625</LatitudeDegrees>
              <LongitudeDegrees>-5.76327701099216938018798828125</LongitudeDegrees>
            </Position>
            <AltitudeMeters>1257.5999755859375</AltitudeMeters>
            <DistanceMeters>NAN</DistanceMeters>
          </Trackpoint>
          <Trackpoint>
            <Time>2019-10-04T15:19:28.000Z</Time>
            <Position>
              <LatitudeDegrees>42.9983993433415889739990234375</LatitudeDegrees>
              <LongitudeDegrees>-5.7632774300873279571533203125</LongitudeDegrees>
            </Position>
            <AltitudeMeters>1257.5999755859375</AltitudeMeters>
            <DistanceMeters>NAN</DistanceMeters>
          </Trackpoint>
          <Trackpoint>
            <Time>2019-10-04T15:19:31.000Z</Time>
            <Position>
              <LatitudeDegrees>42.9983993433415889739990234375</LatitudeDegrees>
              <LongitudeDegrees>-5.7632774300873279571533203125</LongitudeDegrees>
            </Position>
            <AltitudeMeters>1257.5999755859375</AltitudeMeters>
            <DistanceMeters>NAN</DistanceMeters>
          </Trackpoint>
          <Trackpoint>
            <Time>2019-10-04T15:19:34.000Z</Time>
            <Position>
              <LatitudeDegrees>42.9983993433415889739990234375</LatitudeDegrees>
              <LongitudeDegrees>-5.7632774300873279571533203125</LongitudeDegrees>
            </Position>
            <AltitudeMeters>1257.5999755859375</AltitudeMeters>
            <DistanceMeters>NAN</DistanceMeters>
          </Trackpoint>
          <Trackpoint>
            <Time>2019-10-04T15:19:36.000Z</Time>
            <Position>
              <LatitudeDegrees>42.9983993433415889739990234375</LatitudeDegrees>
              <LongitudeDegrees>-5.7632774300873279571533203125</LongitudeDegrees>
            </Position>
            <AltitudeMeters>1257.5999755859375</AltitudeMeters>
            <DistanceMeters>NAN</DistanceMeters>
          </Trackpoint>
          <Trackpoint>
            <Time>2019-10-04T15:19:37.000Z</Time>
            <Position>
              <LatitudeDegrees>42.9983993433415889739990234375</LatitudeDegrees>
              <LongitudeDegrees>-5.7632774300873279571533203125</LongitudeDegrees>
            </Position>
            <AltitudeMeters>1257.5999755859375</AltitudeMeters>
            <DistanceMeters>NAN</DistanceMeters>
          </Trackpoint>
          <Trackpoint>
            <Time>2019-10-04T15:19:46.000Z</Time>
            <Position>
              <LatitudeDegrees>42.9983993433415889739990234375</LatitudeDegrees>
              <LongitudeDegrees>-5.7632774300873279571533203125</LongitudeDegrees>
            </Position>
            <AltitudeMeters>1257.4000244140625</AltitudeMeters>
            <DistanceMeters>NAN</DistanceMeters>
          </Trackpoint>
          <Trackpoint>
            <Time>2019-10-04T15:19:52.000Z</Time>
            <Position>
              <LatitudeDegrees>42.99838115461170673370361328125</LatitudeDegrees>
              <LongitudeDegrees>-5.7632526196539402008056640625</LongitudeDegrees>
            </Position>
            <AltitudeMeters>1257.800048828125</AltitudeMeters>
            <DistanceMeters>NAN</DistanceMeters>
          </Trackpoint>
          <Trackpoint>
            <Time>2019-10-04T15:19:56.000Z</Time>
            <Position>
              <LatitudeDegrees>42.99830588512122631072998046875</LatitudeDegrees>
              <LongitudeDegrees>-5.7632155716419219970703125</LongitudeDegrees>
            </Position>
            <AltitudeMeters>1258.199951171875</AltitudeMeters>
            <DistanceMeters>NAN</DistanceMeters>
          </Trackpoint>
          <Trackpoint>
            <Time>2019-10-04T15:19:58.000Z</Time>
            <Position>
              <LatitudeDegrees>42.998270429670810699462890625</LatitudeDegrees>
              <LongitudeDegrees>-5.76320257969200611114501953125</LongitudeDegrees>
            </Position>
            <AltitudeMeters>1258.800048828125</AltitudeMeters>
            <DistanceMeters>NAN</DistanceMeters>
          </Trackpoint>
          <Trackpoint>
            <Time>2019-10-04T15:20:01.000Z</Time>
            <Position>
              <LatitudeDegrees>42.99821854569017887115478515625</LatitudeDegrees>
              <LongitudeDegrees>-5.76318464241921901702880859375</LongitudeDegrees>
            </Position>
            <AltitudeMeters>1259.199951171875</AltitudeMeters>
            <DistanceMeters>NAN</DistanceMeters>
          </Trackpoint>
          <Trackpoint>
            <Time>2019-10-04T15:20:05.000Z</Time>
            <Position>
              <LatitudeDegrees>42.99815735779702663421630859375</LatitudeDegrees>
              <LongitudeDegrees>-5.76318581588566303253173828125</LongitudeDegrees>
            </Position>
            <AltitudeMeters>1260.199951171875</AltitudeMeters>
            <DistanceMeters>NAN</DistanceMeters>
          </Trackpoint>
          <Trackpoint>
            <Time>2019-10-04T15:20:06.000Z</Time>
            <Position>
              <LatitudeDegrees>42.998142354190349578857421875</LatitudeDegrees>
              <LongitudeDegrees>-5.76318833045661449432373046875</LongitudeDegrees>
            </Position>
            <AltitudeMeters>1260.199951171875</AltitudeMeters>
            <DistanceMeters>NAN</DistanceMeters>
          </Trackpoint>
          <Trackpoint>
            <Time>2019-10-04T15:20:11.000Z</Time>
            <Position>
              <LatitudeDegrees>42.99806599505245685577392578125</LatitudeDegrees>
              <LongitudeDegrees>-5.7631967961788177490234375</LongitudeDegrees>
            </Position>
            <AltitudeMeters>1261.4000244140625</AltitudeMeters>
            <DistanceMeters>NAN</DistanceMeters>
          </Trackpoint>
          <Trackpoint>
            <Time>2019-10-04T15:20:13.000Z</Time>
            <Position>
              <LatitudeDegrees>42.99803498201072216033935546875</LatitudeDegrees>
              <LongitudeDegrees>-5.7632117159664630889892578125</LongitudeDegrees>
            </Position>
            <AltitudeMeters>1261.800048828125</AltitudeMeters>
            <DistanceMeters>NAN</DistanceMeters>
          </Trackpoint>
          <Trackpoint>
            <Time>2019-10-04T15:20:16.000Z</Time>
            <Position>
              <LatitudeDegrees>42.99799156375229358673095703125</LatitudeDegrees>
              <LongitudeDegrees>-5.7632415555417537689208984375</LongitudeDegrees>
            </Position>
            <AltitudeMeters>1262.4000244140625</AltitudeMeters>
            <DistanceMeters>NAN</DistanceMeters>
          </Trackpoint>
          <Trackpoint>
            <Time>2019-10-04T15:20:20.000Z</Time>
            <Position>
              <LatitudeDegrees>42.99794395454227924346923828125</LatitudeDegrees>
              <LongitudeDegrees>-5.7633069343864917755126953125</LongitudeDegrees>
            </Position>
            <AltitudeMeters>1263.4000244140625</AltitudeMeters>
            <DistanceMeters>NAN</DistanceMeters>
          </Trackpoint>
          <Trackpoint>
            <Time>2019-10-04T15:20:21.000Z</Time>
            <Position>
              <LatitudeDegrees>42.9979336448013782501220703125</LatitudeDegrees>
              <LongitudeDegrees>-5.7633257098495960235595703125</LongitudeDegrees>
            </Position>
            <AltitudeMeters>1263.4000244140625</AltitudeMeters>
            <DistanceMeters>NAN</DistanceMeters>
          </Trackpoint>
          <Trackpoint>
            <Time>2019-10-04T15:20:24.000Z</Time>
            <Position>
              <LatitudeDegrees>42.99791143275797367095947265625</LatitudeDegrees>
              <LongitudeDegrees>-5.76338899321854114532470703125</LongitudeDegrees>
            </Position>
            <AltitudeMeters>1264.5999755859375</AltitudeMeters>
            <DistanceMeters>NAN</DistanceMeters>
          </Trackpoint>
          <Trackpoint>
            <Time>2019-10-04T15:20:27.000Z</Time>
            <Position>
              <LatitudeDegrees>42.99789148382842540740966796875</LatitudeDegrees>
              <LongitudeDegrees>-5.7634561322629451751708984375</LongitudeDegrees>
            </Position>
            <AltitudeMeters>1265.199951171875</AltitudeMeters>
            <DistanceMeters>NAN</DistanceMeters>
          </Trackpoint>
          <Trackpoint>
            <Time>2019-10-04T15:20:30.000Z</Time>
            <Position>
              <LatitudeDegrees>42.99788377247750759124755859375</LatitudeDegrees>
              <LongitudeDegrees>-5.7635258696973323822021484375</LongitudeDegrees>
            </Position>
            <AltitudeMeters>1265.800048828125</AltitudeMeters>
            <DistanceMeters>NAN</DistanceMeters>
          </Trackpoint>
          <Trackpoint>
            <Time>2019-10-04T15:20:34.000Z</Time>
            <Position>
              <LatitudeDegrees>42.99787270836532115936279296875</LatitudeDegrees>
              <LongitudeDegrees>-5.763615556061267852783203125</LongitudeDegrees>
            </Position>
            <AltitudeMeters>1266.5999755859375</AltitudeMeters>
            <DistanceMeters>NAN</DistanceMeters>
          </Trackpoint>
          <Trackpoint>
            <Time>2019-10-04T15:20:35.000Z</Time>
            <Position>
              <LatitudeDegrees>42.997873127460479736328125</LatitudeDegrees>
              <LongitudeDegrees>-5.76363625936210155487060546875</LongitudeDegrees>
            </Position>
            <AltitudeMeters>1266.800048828125</AltitudeMeters>
            <DistanceMeters>NAN</DistanceMeters>
          </Trackpoint>
          <Trackpoint>
            <Time>2019-10-04T15:20:37.000Z</Time>
            <Position>
              <LatitudeDegrees>42.997870109975337982177734375</LatitudeDegrees>
              <LongitudeDegrees>-5.76368068344891071319580078125</LongitudeDegrees>
            </Position>
            <AltitudeMeters>1268</AltitudeMeters>
            <DistanceMeters>NAN</DistanceMeters>
          </Trackpoint>
          <Trackpoint>
            <Time>2019-10-04T15:20:43.000Z</Time>
            <Position>
              <LatitudeDegrees>42.99785259179770946502685546875</LatitudeDegrees>
              <LongitudeDegrees>-5.7638051547110080718994140625</LongitudeDegrees>
            </Position>
            <AltitudeMeters>1268.800048828125</AltitudeMeters>
            <DistanceMeters>NAN</DistanceMeters>
          </Trackpoint>
          <Trackpoint>
            <Time>2019-10-04T15:20:45.000Z</Time>
            <Position>
              <LatitudeDegrees>42.99784027040004730224609375</LatitudeDegrees>
              <LongitudeDegrees>-5.76384463347494602203369140625</LongitudeDegrees>
            </Position>
            <AltitudeMeters>1269.199951171875</AltitudeMeters>
            <DistanceMeters>NAN</DistanceMeters>
          </Trackpoint>
          <Trackpoint>
            <Time>2019-10-04T15:20:51.000Z</Time>
            <Position>
              <LatitudeDegrees>42.99780867062509059906005859375</LatitudeDegrees>
              <LongitudeDegrees>-5.76397220604121685028076171875</LongitudeDegrees>
            </Position>
            <AltitudeMeters>1270.199951171875</AltitudeMeters>
            <DistanceMeters>NAN</DistanceMeters>
          </Trackpoint>
          <Trackpoint>
            <Time>2019-10-04T15:20:52.000Z</Time>
            <Position>
              <LatitudeDegrees>42.99780280329287052154541015625</LatitudeDegrees>
              <LongitudeDegrees>-5.76399274170398712158203125</LongitudeDegrees>
            </Position>
            <AltitudeMeters>1270.199951171875</AltitudeMeters>
            <DistanceMeters>NAN</DistanceMeters>
          </Trackpoint>
          <Trackpoint>
            <Time>2019-10-04T15:20:57.000Z</Time>
            <Position>
              <LatitudeDegrees>42.99776357598602771759033203125</LatitudeDegrees>
              <LongitudeDegrees>-5.76407857239246368408203125</LongitudeDegrees>
            </Position>
            <AltitudeMeters>1271.199951171875</AltitudeMeters>
            <DistanceMeters>NAN</DistanceMeters>
          </Trackpoint>
          <Trackpoint>
            <Time>2019-10-04T15:21:00.000Z</Time>
            <Position>
              <LatitudeDegrees>42.99773742444813251495361328125</LatitudeDegrees>
              <LongitudeDegrees>-5.76412509195506572723388671875</LongitudeDegrees>
            </Position>
            <AltitudeMeters>1272</AltitudeMeters>
            <DistanceMeters>NAN</DistanceMeters>
          </Trackpoint>
          <Trackpoint>
            <Time>2019-10-04T15:21:04.000Z</Time>
            <Position>
              <LatitudeDegrees>42.9976942576467990875244140625</LatitudeDegrees>
              <LongitudeDegrees>-5.76417907141149044036865234375</LongitudeDegrees>
            </Position>
            <AltitudeMeters>1272.5999755859375</AltitudeMeters>
            <DistanceMeters>NAN</DistanceMeters>
          </Trackpoint>
          <Trackpoint>
            <Time>2019-10-04T15:21:10.000Z</Time>
            <Position>
              <LatitudeDegrees>42.99762175418436527252197265625</LatitudeDegrees>
              <LongitudeDegrees>-5.7642410136759281158447265625</LongitudeDegrees>
            </Position>
            <AltitudeMeters>1273.5999755859375</AltitudeMeters>
            <DistanceMeters>NAN</DistanceMeters>
          </Trackpoint>
          <Trackpoint>
            <Time>2019-10-04T15:21:11.000Z</Time>
            <Position>
              <LatitudeDegrees>42.99760884605348110198974609375</LatitudeDegrees>
              <LongitudeDegrees>-5.76425283215939998626708984375</LongitudeDegrees>
            </Position>
            <AltitudeMeters>1273.800048828125</AltitudeMeters>
            <DistanceMeters>NAN</DistanceMeters>
          </Trackpoint>
          <Trackpoint>
            <Time>2019-10-04T15:21:16.000Z</Time>
            <Position>
              <LatitudeDegrees>42.99753659404814243316650390625</LatitudeDegrees>
              <LongitudeDegrees>-5.7642859406769275665283203125</LongitudeDegrees>
            </Position>
            <AltitudeMeters>1275.199951171875</AltitudeMeters>
            <DistanceMeters>NAN</DistanceMeters>
          </Trackpoint>
          <Trackpoint>
            <Time>2019-10-04T15:21:17.000Z</Time>
            <Position>
              <LatitudeDegrees>42.997523434460163116455078125</LatitudeDegrees>
              <LongitudeDegrees>-5.76429356820881366729736328125</LongitudeDegrees>
            </Position>
            <AltitudeMeters>1275</AltitudeMeters>
            <DistanceMeters>NAN</DistanceMeters>
          </Trackpoint>
          <Trackpoint>
            <Time>2019-10-04T15:21:24.000Z</Time>
            <Position>
              <LatitudeDegrees>42.997427545487880706787109375</LatitudeDegrees>
              <LongitudeDegrees>-5.7643241621553897857666015625</LongitudeDegrees>
            </Position>
            <AltitudeMeters>1276.4000244140625</AltitudeMeters>
            <DistanceMeters>NAN</DistanceMeters>
          </Trackpoint>
          <Trackpoint>
            <Time>2019-10-04T15:21:28.000Z</Time>
            <Position>
              <LatitudeDegrees>42.99737147055566310882568359375</LatitudeDegrees>
              <LongitudeDegrees>-5.76434922404587268829345703125</LongitudeDegrees>
            </Position>
            <AltitudeMeters>1277.4000244140625</AltitudeMeters>
            <DistanceMeters>NAN</DistanceMeters>
          </Trackpoint>
          <Trackpoint>
            <Time>2019-10-04T15:21:31.000Z</Time>
            <Position>
              <LatitudeDegrees>42.99732738174498081207275390625</LatitudeDegrees>
              <LongitudeDegrees>-5.764363221824169158935546875</LongitudeDegrees>
            </Position>
            <AltitudeMeters>1277.800048828125</AltitudeMeters>
            <DistanceMeters>NAN</DistanceMeters>
          </Trackpoint>
          <Trackpoint>
            <Time>2019-10-04T15:21:33.000Z</Time>
            <Position>
              <LatitudeDegrees>42.9973003081977367401123046875</LatitudeDegrees>
              <LongitudeDegrees>-5.764369927346706390380859375</LongitudeDegrees>
            </Position>
            <AltitudeMeters>1278.800048828125</AltitudeMeters>
            <DistanceMeters>NAN</DistanceMeters>
          </Trackpoint>
          <Trackpoint>
            <Time>2019-10-04T15:21:38.000Z</Time>
            <Position>
              <LatitudeDegrees>42.99723668955266475677490234375</LatitudeDegrees>
              <LongitudeDegrees>-5.76439046300947666168212890625</LongitudeDegrees>
            </Position>
            <AltitudeMeters>1280</AltitudeMeters>
            <DistanceMeters>NAN</DistanceMeters>
          </Trackpoint>
          <Trackpoint>
            <Time>2019-10-04T15:21:39.000Z</Time>
            <Position>
              <LatitudeDegrees>42.9972225241363048553466796875</LatitudeDegrees>
              <LongitudeDegrees>-5.76439951546490192413330078125</LongitudeDegrees>
            </Position>
            <AltitudeMeters>1280.199951171875</AltitudeMeters>
            <DistanceMeters>NAN</DistanceMeters>
          </Trackpoint>
          <Trackpoint>
            <Time>2019-10-04T15:21:44.000Z</Time>
            <Position>
              <LatitudeDegrees>42.9972037486732006072998046875</LatitudeDegrees>
              <LongitudeDegrees>-5.764405466616153717041015625</LongitudeDegrees>
            </Position>
            <AltitudeMeters>1280.4000244140625</AltitudeMeters>
            <DistanceMeters>NAN</DistanceMeters>
          </Trackpoint>
          <Trackpoint>
            <Time>2019-10-04T15:21:54.000Z</Time>
            <Position>
              <LatitudeDegrees>42.9972067661583423614501953125</LatitudeDegrees>
              <LongitudeDegrees>-5.76440236531198024749755859375</LongitudeDegrees>
            </Position>
            <AltitudeMeters>1280.800048828125</AltitudeMeters>
            <DistanceMeters>NAN</DistanceMeters>
          </Trackpoint>
          <Trackpoint>
            <Time>2019-10-04T15:22:01.000Z</Time>
            <Position>
              <LatitudeDegrees>42.99719863571226596832275390625</LatitudeDegrees>
              <LongitudeDegrees>-5.7644064724445343017578125</LongitudeDegrees>
            </Position>
            <AltitudeMeters>1281</AltitudeMeters>
            <DistanceMeters>NAN</DistanceMeters>
          </Trackpoint>
          <Trackpoint>
            <Time>2019-10-04T15:22:03.000Z</Time>
            <Position>
              <LatitudeDegrees>42.99716192297637462615966796875</LatitudeDegrees>
              <LongitudeDegrees>-5.764414854347705841064453125</LongitudeDegrees>
            </Position>
            <AltitudeMeters>1281.5999755859375</AltitudeMeters>
            <DistanceMeters>NAN</DistanceMeters>
          </Trackpoint>
          <Trackpoint>
            <Time>2019-10-04T15:22:07.000Z</Time>
            <Position>
              <LatitudeDegrees>42.99710559658706188201904296875</LatitudeDegrees>
              <LongitudeDegrees>-5.7644252479076385498046875</LongitudeDegrees>
            </Position>
            <AltitudeMeters>1282.199951171875</AltitudeMeters>
            <DistanceMeters>NAN</DistanceMeters>
          </Trackpoint>
          <Trackpoint>
            <Time>2019-10-04T15:22:10.000Z</Time>
            <Position>
              <LatitudeDegrees>42.997063435614109039306640625</LatitudeDegrees>
              <LongitudeDegrees>-5.76444108970463275909423828125</LongitudeDegrees>
            </Position>
            <AltitudeMeters>1283.199951171875</AltitudeMeters>
            <DistanceMeters>NAN</DistanceMeters>
          </Trackpoint>
          <Trackpoint>
            <Time>2019-10-04T15:22:16.000Z</Time>
            <Position>
              <LatitudeDegrees>42.99698892049491405487060546875</LatitudeDegrees>
              <LongitudeDegrees>-5.7644810713827610015869140625</LongitudeDegrees>
            </Position>
            <AltitudeMeters>1284.4000244140625</AltitudeMeters>
            <DistanceMeters>NAN</DistanceMeters>
          </Trackpoint>
          <Trackpoint>
            <Time>2019-10-04T15:22:18.000Z</Time>
            <Position>
              <LatitudeDegrees>42.99696385860443115234375</LatitudeDegrees>
              <LongitudeDegrees>-5.764490626752376556396484375</LongitudeDegrees>
            </Position>
            <AltitudeMeters>1284.4000244140625</AltitudeMeters>
            <DistanceMeters>NAN</DistanceMeters>
          </Trackpoint>
          <Trackpoint>
            <Time>2019-10-04T15:22:22.000Z</Time>
            <Position>
              <LatitudeDegrees>42.99690979532897472381591796875</LatitudeDegrees>
              <LongitudeDegrees>-5.76451317407190799713134765625</LongitudeDegrees>
            </Position>
            <AltitudeMeters>1285.5999755859375</AltitudeMeters>
            <DistanceMeters>NAN</DistanceMeters>
          </Trackpoint>
          <Trackpoint>
            <Time>2019-10-04T15:22:25.000Z</Time>
            <Position>
              <LatitudeDegrees>42.99687207676470279693603515625</LatitudeDegrees>
              <LongitudeDegrees>-5.76452641747891902923583984375</LongitudeDegrees>
            </Position>
            <AltitudeMeters>1286.4000244140625</AltitudeMeters>
            <DistanceMeters>NAN</DistanceMeters>
          </Trackpoint>
          <Trackpoint>
            <Time>2019-10-04T15:22:26.000Z</Time>
            <Position>
              <LatitudeDegrees>42.9968580789864063262939453125</LatitudeDegrees>
              <LongitudeDegrees>-5.76452876441180706024169921875</LongitudeDegrees>
            </Position>
            <AltitudeMeters>1286.5999755859375</AltitudeMeters>
            <DistanceMeters>NAN</DistanceMeters>
          </Trackpoint>
          <Trackpoint>
            <Time>2019-10-04T15:22:30.000Z</Time>
            <Position>
              <LatitudeDegrees>42.99680493772029876708984375</LatitudeDegrees>
              <LongitudeDegrees>-5.7645528204739093780517578125</LongitudeDegrees>
            </Position>
            <AltitudeMeters>1287.5999755859375</AltitudeMeters>
            <DistanceMeters>NAN</DistanceMeters>
          </Trackpoint>
          <Trackpoint>
            <Time>2019-10-04T15:22:33.000Z</Time>
            <Position>
              <LatitudeDegrees>42.9967628605663776397705078125</LatitudeDegrees>
              <LongitudeDegrees>-5.7645648904144763946533203125</LongitudeDegrees>
            </Position>
            <AltitudeMeters>1288.199951171875</AltitudeMeters>
            <DistanceMeters>NAN</DistanceMeters>
          </Trackpoint>
          <Trackpoint>
            <Time>2019-10-04T15:22:35.000Z</Time>
            <Position>
              <LatitudeDegrees>42.99673746339976787567138671875</LatitudeDegrees>
              <LongitudeDegrees>-5.7645766250789165496826171875</LongitudeDegrees>
            </Position>
            <AltitudeMeters>1288.800048828125</AltitudeMeters>
            <DistanceMeters>NAN</DistanceMeters>
          </Trackpoint>
          <Trackpoint>
            <Time>2019-10-04T15:22:40.000Z</Time>
            <Position>
              <LatitudeDegrees>42.9966713301837444305419921875</LatitudeDegrees>
              <LongitudeDegrees>-5.76459615491330623626708984375</LongitudeDegrees>
            </Position>
            <AltitudeMeters>1289.800048828125</AltitudeMeters>
            <DistanceMeters>NAN</DistanceMeters>
          </Trackpoint>
          <Trackpoint>
            <Time>2019-10-04T15:22:41.000Z</Time>
            <Position>
              <LatitudeDegrees>42.9966565780341625213623046875</LatitudeDegrees>
              <LongitudeDegrees>-5.7646044529974460601806640625</LongitudeDegrees>
            </Position>
            <AltitudeMeters>1290</AltitudeMeters>
            <DistanceMeters>NAN</DistanceMeters>
          </Trackpoint>
          <Trackpoint>
            <Time>2019-10-04T15:22:45.000Z</Time>
            <Position>
              <LatitudeDegrees>42.99660201184451580047607421875</LatitudeDegrees>
              <LongitudeDegrees>-5.76461241580545902252197265625</LongitudeDegrees>
            </Position>
            <AltitudeMeters>1291</AltitudeMeters>
            <DistanceMeters>NAN</DistanceMeters>
          </Trackpoint>
          <Trackpoint>
            <Time>2019-10-04T15:22:48.000Z</Time>
            <Position>
              <LatitudeDegrees>42.9965586774051189422607421875</LatitudeDegrees>
              <LongitudeDegrees>-5.76459749601781368255615234375</LongitudeDegrees>
            </Position>
            <AltitudeMeters>1291.5999755859375</AltitudeMeters>
            <DistanceMeters>NAN</DistanceMeters>
          </Trackpoint>
          <Trackpoint>
            <Time>2019-10-04T15:22:51.000Z</Time>
            <Position>
              <LatitudeDegrees>42.996520288288593292236328125</LatitudeDegrees>
              <LongitudeDegrees>-5.76457838527858257293701171875</LongitudeDegrees>
            </Position>
            <AltitudeMeters>1292.199951171875</AltitudeMeters>
            <DistanceMeters>NAN</DistanceMeters>
          </Trackpoint>
          <Trackpoint>
            <Time>2019-10-04T15:22:55.000Z</Time>
            <Position>
              <LatitudeDegrees>42.99651081673800945281982421875</LatitudeDegrees>
              <LongitudeDegrees>-5.7645715959370136260986328125</LongitudeDegrees>
            </Position>
            <AltitudeMeters>1292.5999755859375</AltitudeMeters>
            <DistanceMeters>NAN</DistanceMeters>
          </Trackpoint>
          <Trackpoint>
            <Time>2019-10-04T15:23:08.000Z</Time>
            <Position>
              <LatitudeDegrees>42.99651567824184894561767578125</LatitudeDegrees>
              <LongitudeDegrees>-5.7645726017653942108154296875</LongitudeDegrees>
            </Position>
            <AltitudeMeters>1292.5999755859375</AltitudeMeters>
            <DistanceMeters>NAN</DistanceMeters>
          </Trackpoint>
          <Trackpoint>
            <Time>2019-10-04T15:23:14.000Z</Time>
            <Position>
              <LatitudeDegrees>42.996512241661548614501953125</LatitudeDegrees>
              <LongitudeDegrees>-5.7645674049854278564453125</LongitudeDegrees>
            </Position>
            <AltitudeMeters>1292.800048828125</AltitudeMeters>
            <DistanceMeters>NAN</DistanceMeters>
          </Trackpoint>
          <Trackpoint>
            <Time>2019-10-04T15:23:16.000Z</Time>
            <Position>
              <LatitudeDegrees>42.99649514257907867431640625</LatitudeDegrees>
              <LongitudeDegrees>-5.76454116962850093841552734375</LongitudeDegrees>
            </Position>
            <AltitudeMeters>1292.800048828125</AltitudeMeters>
            <DistanceMeters>NAN</DistanceMeters>
          </Trackpoint>
          <Trackpoint>
            <Time>2019-10-04T15:23:19.000Z</Time>
            <Position>
              <LatitudeDegrees>42.99645625054836273193359375</LatitudeDegrees>
              <LongitudeDegrees>-5.7644894532859325408935546875</LongitudeDegrees>
            </Position>
            <AltitudeMeters>1293.800048828125</AltitudeMeters>
            <DistanceMeters>NAN</DistanceMeters>
          </Trackpoint>
          <Trackpoint>
            <Time>2019-10-04T15:23:22.000Z</Time>
            <Position>
              <LatitudeDegrees>42.9964192025363445281982421875</LatitudeDegrees>
              <LongitudeDegrees>-5.764444358646869659423828125</LongitudeDegrees>
            </Position>
            <AltitudeMeters>1294</AltitudeMeters>
            <DistanceMeters>NAN</DistanceMeters>
          </Trackpoint>
          <Trackpoint>
            <Time>2019-10-04T15:23:24.000Z</Time>
            <Position>
              <LatitudeDegrees>42.99640218727290630340576171875</LatitudeDegrees>
              <LongitudeDegrees>-5.76441192068159580230712890625</LongitudeDegrees>
            </Position>
            <AltitudeMeters>1294.4000244140625</AltitudeMeters>
            <DistanceMeters>NAN</DistanceMeters>
          </Trackpoint>
          <Trackpoint>
            <Time>2019-10-04T15:23:26.000Z</Time>
            <Position>
              <LatitudeDegrees>42.9963856749236583709716796875</LatitudeDegrees>
              <LongitudeDegrees>-5.76438107527792453765869140625</LongitudeDegrees>
            </Position>
            <AltitudeMeters>1295</AltitudeMeters>
            <DistanceMeters>NAN</DistanceMeters>
          </Trackpoint>
          <Trackpoint>
            <Time>2019-10-04T15:23:32.000Z</Time>
            <Position>
              <LatitudeDegrees>42.996334545314311981201171875</LatitudeDegrees>
              <LongitudeDegrees>-5.7642872817814350128173828125</LongitudeDegrees>
            </Position>
            <AltitudeMeters>1296.199951171875</AltitudeMeters>
            <DistanceMeters>NAN</DistanceMeters>
          </Trackpoint>
          <Trackpoint>
            <Time>2019-10-04T15:23:37.000Z</Time>
            <Position>
              <LatitudeDegrees>42.996301352977752685546875</LatitudeDegrees>
              <LongitudeDegrees>-5.76420706696808338165283203125</LongitudeDegrees>
            </Position>
            <AltitudeMeters>1297.4000244140625</AltitudeMeters>
            <DistanceMeters>NAN</DistanceMeters>
          </Trackpoint>
          <Trackpoint>
            <Time>2019-10-04T15:23:40.000Z</Time>
            <Position>
              <LatitudeDegrees>42.9962840862572193145751953125</LatitudeDegrees>
              <LongitudeDegrees>-5.76415291987359523773193359375</LongitudeDegrees>
            </Position>
            <AltitudeMeters>1298</AltitudeMeters>
            <DistanceMeters>NAN</DistanceMeters>
          </Trackpoint>
          <Trackpoint>
            <Time>2019-10-04T15:23:44.000Z</Time>
            <Position>
              <LatitudeDegrees>42.996260784566402435302734375</LatitudeDegrees>
              <LongitudeDegrees>-5.76408050023019313812255859375</LongitudeDegrees>
            </Position>
            <AltitudeMeters>1298.5999755859375</AltitudeMeters>
            <DistanceMeters>NAN</DistanceMeters>
          </Trackpoint>
          <Trackpoint>
            <Time>2019-10-04T15:23:47.000Z</Time>
            <Position>
              <LatitudeDegrees>42.9962455295026302337646484375</LatitudeDegrees>
              <LongitudeDegrees>-5.7640237547457218170166015625</LongitudeDegrees>
            </Position>
            <AltitudeMeters>1299.800048828125</AltitudeMeters>
            <DistanceMeters>NAN</DistanceMeters>
          </Trackpoint>
          <Trackpoint>
            <Time>2019-10-04T15:23:48.000Z</Time>
            <Position>
              <LatitudeDegrees>42.99624008126556873321533203125</LatitudeDegrees>
              <LongitudeDegrees>-5.76400774531066417694091796875</LongitudeDegrees>
            </Position>
            <AltitudeMeters>1299.5999755859375</AltitudeMeters>
            <DistanceMeters>NAN</DistanceMeters>
          </Trackpoint>
          <Trackpoint>
            <Time>2019-10-04T15:23:54.000Z</Time>
            <Position>
              <LatitudeDegrees>42.996213175356388092041015625</LatitudeDegrees>
              <LongitudeDegrees>-5.76389945112168788909912109375</LongitudeDegrees>
            </Position>
            <AltitudeMeters>1301</AltitudeMeters>
            <DistanceMeters>NAN</DistanceMeters>
          </Trackpoint>
          <Trackpoint>
            <Time>2019-10-04T15:23:57.000Z</Time>
            <Position>
              <LatitudeDegrees>42.9961959086358547210693359375</LatitudeDegrees>
              <LongitudeDegrees>-5.76384530402719974517822265625</LongitudeDegrees>
            </Position>
            <AltitudeMeters>1301.5999755859375</AltitudeMeters>
            <DistanceMeters>NAN</DistanceMeters>
          </Trackpoint>
          <Trackpoint>
            <Time>2019-10-04T15:23:59.000Z</Time>
            <Position>
              <LatitudeDegrees>42.9961878620088100433349609375</LatitudeDegrees>
              <LongitudeDegrees>-5.76380892656743526458740234375</LongitudeDegrees>
            </Position>
            <AltitudeMeters>1302</AltitudeMeters>
            <DistanceMeters>NAN</DistanceMeters>
          </Trackpoint>
          <Trackpoint>
            <Time>2019-10-04T15:24:04.000Z</Time>
            <Position>
              <LatitudeDegrees>42.996162213385105133056640625</LatitudeDegrees>
              <LongitudeDegrees>-5.763717480003833770751953125</LongitudeDegrees>
            </Position>
            <AltitudeMeters>1303.199951171875</AltitudeMeters>
            <DistanceMeters>NAN</DistanceMeters>
          </Trackpoint>
          <Trackpoint>
            <Time>2019-10-04T15:24:06.000Z</Time>
            <Position>
              <LatitudeDegrees>42.996156513690948486328125</LatitudeDegrees>
              <LongitudeDegrees>-5.763673894107341766357421875</LongitudeDegrees>
            </Position>
            <AltitudeMeters>1303.5999755859375</AltitudeMeters>
            <DistanceMeters>NAN</DistanceMeters>
          </Trackpoint>
          <Trackpoint>
            <Time>2019-10-04T15:24:08.000Z</Time>
            <Position>
              <LatitudeDegrees>42.9961446113884449005126953125</LatitudeDegrees>
              <LongitudeDegrees>-5.76363240368664264678955078125</LongitudeDegrees>
            </Position>
            <AltitudeMeters>1304.4000244140625</AltitudeMeters>
            <DistanceMeters>NAN</DistanceMeters>
          </Trackpoint>
          <Trackpoint>
            <Time>2019-10-04T15:24:14.000Z</Time>
            <Position>
              <LatitudeDegrees>42.99610747955739498138427734375</LatitudeDegrees>
              <LongitudeDegrees>-5.76351254247128963470458984375</LongitudeDegrees>
            </Position>
            <AltitudeMeters>1305.5999755859375</AltitudeMeters>
            <DistanceMeters>NAN</DistanceMeters>
          </Trackpoint>
          <Trackpoint>
            <Time>2019-10-04T15:24:20.000Z</Time>
            <Position>
              <LatitudeDegrees>42.99607043154537677764892578125</LatitudeDegrees>
              <LongitudeDegrees>-5.76340257190167903900146484375</LongitudeDegrees>
            </Position>
            <AltitudeMeters>1306.800048828125</AltitudeMeters>
            <DistanceMeters>NAN</DistanceMeters>
          </Trackpoint>
          <Trackpoint>
            <Time>2019-10-04T15:24:23.000Z</Time>
            <Position>
              <LatitudeDegrees>42.99604997970163822174072265625</LatitudeDegrees>
              <LongitudeDegrees>-5.76334255747497081756591796875</LongitudeDegrees>
            </Position>
            <AltitudeMeters>1307.4000244140625</AltitudeMeters>
            <DistanceMeters>NAN</DistanceMeters>
          </Trackpoint>
          <Trackpoint>
            <Time>2019-10-04T15:24:27.000Z</Time>
            <Position>
              <LatitudeDegrees>42.9960229061543941497802734375</LatitudeDegrees>
              <LongitudeDegrees>-5.763265192508697509765625</LongitudeDegrees>
            </Position>
            <AltitudeMeters>1308</AltitudeMeters>
            <DistanceMeters>NAN</DistanceMeters>
          </Trackpoint>
          <Trackpoint>
            <Time>2019-10-04T15:24:32.000Z</Time>
            <Position>
              <LatitudeDegrees>42.99596901051700115203857421875</LatitudeDegrees>
              <LongitudeDegrees>-5.763186402618885040283203125</LongitudeDegrees>
            </Position>
            <AltitudeMeters>1308.5999755859375</AltitudeMeters>
            <DistanceMeters>NAN</DistanceMeters>
          </Trackpoint>
          <Trackpoint>
            <Time>2019-10-04T15:24:36.000Z</Time>
            <Position>
              <LatitudeDegrees>42.99592173658311367034912109375</LatitudeDegrees>
              <LongitudeDegrees>-5.7631423138082027435302734375</LongitudeDegrees>
            </Position>
            <AltitudeMeters>1309.199951171875</AltitudeMeters>
            <DistanceMeters>NAN</DistanceMeters>
          </Trackpoint>
          <Trackpoint>
            <Time>2019-10-04T15:24:39.000Z</Time>
            <Position>
              <LatitudeDegrees>42.9958807490766048431396484375</LatitudeDegrees>
              <LongitudeDegrees>-5.763113312423229217529296875</LongitudeDegrees>
            </Position>
            <AltitudeMeters>1309.800048828125</AltitudeMeters>
            <DistanceMeters>NAN</DistanceMeters>
          </Trackpoint>
          <Trackpoint>
            <Time>2019-10-04T15:24:43.000Z</Time>
            <Position>
              <LatitudeDegrees>42.99581444822251796722412109375</LatitudeDegrees>
              <LongitudeDegrees>-5.76309797354042530059814453125</LongitudeDegrees>
            </Position>
            <AltitudeMeters>1310.199951171875</AltitudeMeters>
            <DistanceMeters>NAN</DistanceMeters>
          </Trackpoint>
          <Trackpoint>
            <Time>2019-10-04T15:24:48.000Z</Time>
            <Position>
              <LatitudeDegrees>42.995731718838214874267578125</LatitudeDegrees>
              <LongitudeDegrees>-5.76308473013341426849365234375</LongitudeDegrees>
            </Position>
            <AltitudeMeters>1310.800048828125</AltitudeMeters>
            <DistanceMeters>NAN</DistanceMeters>
          </Trackpoint>
          <Trackpoint>
            <Time>2019-10-04T15:24:54.000Z</Time>
            <Position>
              <LatitudeDegrees>42.99562803469598293304443359375</LatitudeDegrees>
              <LongitudeDegrees>-5.76306260190904140472412109375</LongitudeDegrees>
            </Position>
            <AltitudeMeters>1311.4000244140625</AltitudeMeters>
            <DistanceMeters>NAN</DistanceMeters>
          </Trackpoint>
          <Trackpoint>
            <Time>2019-10-04T15:24:58.000Z</Time>
            <Position>
              <LatitudeDegrees>42.9955625720322132110595703125</LatitudeDegrees>
              <LongitudeDegrees>-5.763029493391513824462890625</LongitudeDegrees>
            </Position>
            <AltitudeMeters>1312</AltitudeMeters>
            <DistanceMeters>NAN</DistanceMeters>
          </Trackpoint>
          <Trackpoint>
            <Time>2019-10-04T15:25:01.000Z</Time>
            <Position>
              <LatitudeDegrees>42.99551839940249919891357421875</LatitudeDegrees>
              <LongitudeDegrees>-5.76300837099552154541015625</LongitudeDegrees>
            </Position>
            <AltitudeMeters>1312.5999755859375</AltitudeMeters>
            <DistanceMeters>NAN</DistanceMeters>
          </Trackpoint>
          <Trackpoint>
            <Time>2019-10-04T15:25:08.000Z</Time>
            <Position>
              <LatitudeDegrees>42.99542225897312164306640625</LatitudeDegrees>
              <LongitudeDegrees>-5.7629401423037052154541015625</LongitudeDegrees>
            </Position>
            <AltitudeMeters>1313.5999755859375</AltitudeMeters>
            <DistanceMeters>NAN</DistanceMeters>
          </Trackpoint>
          <Trackpoint>
            <Time>2019-10-04T15:25:09.000Z</Time>
            <Position>
              <LatitudeDegrees>42.99540976993739604949951171875</LatitudeDegrees>
              <LongitudeDegrees>-5.7629299163818359375</LongitudeDegrees>
            </Position>
            <AltitudeMeters>1313.800048828125</AltitudeMeters>
            <DistanceMeters>NAN</DistanceMeters>
          </Trackpoint>
          <Trackpoint>
            <Time>2019-10-04T15:25:16.000Z</Time>
            <Position>
              <LatitudeDegrees>42.995316982269287109375</LatitudeDegrees>
              <LongitudeDegrees>-5.7628442533314228057861328125</LongitudeDegrees>
            </Position>
            <AltitudeMeters>1315</AltitudeMeters>
            <DistanceMeters>NAN</DistanceMeters>
          </Trackpoint>
          <Trackpoint>
            <Time>2019-10-04T15:25:20.000Z</Time>
            <Position>
              <LatitudeDegrees>42.99526208080351352691650390625</LatitudeDegrees>
              <LongitudeDegrees>-5.7628132402896881103515625</LongitudeDegrees>
            </Position>
            <AltitudeMeters>1315.800048828125</AltitudeMeters>
            <DistanceMeters>NAN</DistanceMeters>
          </Trackpoint>
          <Trackpoint>
            <Time>2019-10-04T15:25:21.000Z</Time>
            <Position>
              <LatitudeDegrees>42.99524783156812191009521484375</LatitudeDegrees>
              <LongitudeDegrees>-5.7628016732633113861083984375</LongitudeDegrees>
            </Position>
            <AltitudeMeters>1316</AltitudeMeters>
            <DistanceMeters>NAN</DistanceMeters>
          </Trackpoint>
          <Trackpoint>
            <Time>2019-10-04T15:25:26.000Z</Time>
            <Position>
              <LatitudeDegrees>42.99518262036144733428955078125</LatitudeDegrees>
              <LongitudeDegrees>-5.76274283230304718017578125</LongitudeDegrees>
            </Position>
            <AltitudeMeters>1317.199951171875</AltitudeMeters>
            <DistanceMeters>NAN</DistanceMeters>
          </Trackpoint>
          <Trackpoint>
            <Time>2019-10-04T15:25:29.000Z</Time>
            <Position>
              <LatitudeDegrees>42.995142638683319091796875</LatitudeDegrees>
              <LongitudeDegrees>-5.76271332800388336181640625</LongitudeDegrees>
            </Position>
            <AltitudeMeters>1317.800048828125</AltitudeMeters>
            <DistanceMeters>NAN</DistanceMeters>
          </Trackpoint>
          <Trackpoint>
            <Time>2019-10-04T15:25:31.000Z</Time>
            <Position>
              <LatitudeDegrees>42.99511590041220188140869140625</LatitudeDegrees>
              <LongitudeDegrees>-5.7626910321414470672607421875</LongitudeDegrees>
            </Position>
            <AltitudeMeters>1318.199951171875</AltitudeMeters>
            <DistanceMeters>NAN</DistanceMeters>
          </Trackpoint>
          <Trackpoint>
            <Time>2019-10-04T15:25:38.000Z</Time>
            <Position>
              <LatitudeDegrees>42.995025627315044403076171875</LatitudeDegrees>
              <LongitudeDegrees>-5.7626187801361083984375</LongitudeDegrees>
            </Position>
            <AltitudeMeters>1319.4000244140625</AltitudeMeters>
            <DistanceMeters>NAN</DistanceMeters>
          </Trackpoint>
          <Trackpoint>
            <Time>2019-10-04T15:25:39.000Z</Time>
            <Position>
              <LatitudeDegrees>42.995011545717716217041015625</LatitudeDegrees>
              <LongitudeDegrees>-5.762607045471668243408203125</LongitudeDegrees>
            </Position>
            <AltitudeMeters>1319.5999755859375</AltitudeMeters>
            <DistanceMeters>NAN</DistanceMeters>
          </Trackpoint>
          <Trackpoint>
            <Time>2019-10-04T15:25:45.000Z</Time>
            <Position>
              <LatitudeDegrees>42.994960248470306396484375</LatitudeDegrees>
              <LongitudeDegrees>-5.76255952008068561553955078125</LongitudeDegrees>
            </Position>
            <AltitudeMeters>1320.5999755859375</AltitudeMeters>
            <DistanceMeters>NAN</DistanceMeters>
          </Trackpoint>
          <Trackpoint>
            <Time>2019-10-04T15:25:46.000Z</Time>
            <Position>
              <LatitudeDegrees>42.99496452324092388153076171875</LatitudeDegrees>
              <LongitudeDegrees>-5.76256404630839824676513671875</LongitudeDegrees>
            </Position>
            <AltitudeMeters>1321.4000244140625</AltitudeMeters>
            <DistanceMeters>NAN</DistanceMeters>
          </Trackpoint>
          <Trackpoint>
            <Time>2019-10-04T15:25:56.000Z</Time>
            <Position>
              <LatitudeDegrees>42.994960583746433258056640625</LatitudeDegrees>
              <LongitudeDegrees>-5.76255935244262218475341796875</LongitudeDegrees>
            </Position>
            <AltitudeMeters>1321</AltitudeMeters>
            <DistanceMeters>NAN</DistanceMeters>
          </Trackpoint>
          <Trackpoint>
            <Time>2019-10-04T15:26:07.000Z</Time>
            <Position>
              <LatitudeDegrees>42.994960583746433258056640625</LatitudeDegrees>
              <LongitudeDegrees>-5.76255935244262218475341796875</LongitudeDegrees>
            </Position>
            <AltitudeMeters>1320.800048828125</AltitudeMeters>
            <DistanceMeters>NAN</DistanceMeters>
          </Trackpoint>
          <Trackpoint>
            <Time>2019-10-04T15:26:14.000Z</Time>
            <Position>
              <LatitudeDegrees>42.99495614133775234222412109375</LatitudeDegrees>
              <LongitudeDegrees>-5.762551724910736083984375</LongitudeDegrees>
            </Position>
            <AltitudeMeters>1321</AltitudeMeters>
            <DistanceMeters>NAN</DistanceMeters>
          </Trackpoint>
          <Trackpoint>
            <Time>2019-10-04T15:26:15.000Z</Time>
            <Position>
              <LatitudeDegrees>42.99494457431137561798095703125</LatitudeDegrees>
              <LongitudeDegrees>-5.76253018341958522796630859375</LongitudeDegrees>
            </Position>
            <AltitudeMeters>1321.199951171875</AltitudeMeters>
            <DistanceMeters>NAN</DistanceMeters>
          </Trackpoint>
          <Trackpoint>
            <Time>2019-10-04T15:26:19.000Z</Time>
            <Position>
              <LatitudeDegrees>42.99491154961287975311279296875</LatitudeDegrees>
              <LongitudeDegrees>-5.7624523155391216278076171875</LongitudeDegrees>
            </Position>
            <AltitudeMeters>1321.5999755859375</AltitudeMeters>
            <DistanceMeters>NAN</DistanceMeters>
          </Trackpoint>
          <Trackpoint>
            <Time>2019-10-04T15:26:20.000Z</Time>
            <Position>
              <LatitudeDegrees>42.99490031786262989044189453125</LatitudeDegrees>
              <LongitudeDegrees>-5.76243714429438114166259765625</LongitudeDegrees>
            </Position>
            <AltitudeMeters>1321.800048828125</AltitudeMeters>
            <DistanceMeters>NAN</DistanceMeters>
          </Trackpoint>
          <Trackpoint>
            <Time>2019-10-04T15:26:25.000Z</Time>
            <Position>
              <LatitudeDegrees>42.99484365619719028472900390625</LatitudeDegrees>
              <LongitudeDegrees>-5.76236438937485218048095703125</LongitudeDegrees>
            </Position>
            <AltitudeMeters>1322.800048828125</AltitudeMeters>
            <DistanceMeters>NAN</DistanceMeters>
          </Trackpoint>
          <Trackpoint>
            <Time>2019-10-04T15:26:29.000Z</Time>
            <Position>
              <LatitudeDegrees>42.99479722045361995697021484375</LatitudeDegrees>
              <LongitudeDegrees>-5.7623098231852054595947265625</LongitudeDegrees>
            </Position>
            <AltitudeMeters>1323.5999755859375</AltitudeMeters>
            <DistanceMeters>NAN</DistanceMeters>
          </Trackpoint>
          <Trackpoint>
            <Time>2019-10-04T15:26:31.000Z</Time>
            <Position>
              <LatitudeDegrees>42.99477475695312023162841796875</LatitudeDegrees>
              <LongitudeDegrees>-5.76227973215281963348388671875</LongitudeDegrees>
            </Position>
            <AltitudeMeters>1323.800048828125</AltitudeMeters>
            <DistanceMeters>NAN</DistanceMeters>
          </Trackpoint>
          <Trackpoint>
            <Time>2019-10-04T15:26:38.000Z</Time>
            <Position>
              <LatitudeDegrees>42.9947009123861789703369140625</LatitudeDegrees>
              <LongitudeDegrees>-5.7621730305254459381103515625</LongitudeDegrees>
            </Position>
            <AltitudeMeters>1324.800048828125</AltitudeMeters>
            <DistanceMeters>NAN</DistanceMeters>
          </Trackpoint>
          <Trackpoint>
            <Time>2019-10-04T15:26:40.000Z</Time>
            <Position>
              <LatitudeDegrees>42.9946824721992015838623046875</LatitudeDegrees>
              <LongitudeDegrees>-5.762141011655330657958984375</LongitudeDegrees>
            </Position>
            <AltitudeMeters>1325.4000244140625</AltitudeMeters>
            <DistanceMeters>NAN</DistanceMeters>
          </Trackpoint>
          <Trackpoint>
            <Time>2019-10-04T15:26:43.000Z</Time>
            <Position>
              <LatitudeDegrees>42.9946445859968662261962890625</LatitudeDegrees>
              <LongitudeDegrees>-5.76210119761526584625244140625</LongitudeDegrees>
            </Position>
            <AltitudeMeters>1326</AltitudeMeters>
            <DistanceMeters>NAN</DistanceMeters>
          </Trackpoint>
          <Trackpoint>
            <Time>2019-10-04T15:26:48.000Z</Time>
            <Position>
              <LatitudeDegrees>42.9945875890552997589111328125</LatitudeDegrees>
              <LongitudeDegrees>-5.76202207244932651519775390625</LongitudeDegrees>
            </Position>
            <AltitudeMeters>1327</AltitudeMeters>
            <DistanceMeters>NAN</DistanceMeters>
          </Trackpoint>
          <Trackpoint>
            <Time>2019-10-04T15:26:49.000Z</Time>
            <Position>
              <LatitudeDegrees>42.9945766925811767578125</LatitudeDegrees>
              <LongitudeDegrees>-5.76200581155717372894287109375</LongitudeDegrees>
            </Position>
            <AltitudeMeters>1327.199951171875</AltitudeMeters>
            <DistanceMeters>NAN</DistanceMeters>
          </Trackpoint>
          <Trackpoint>
            <Time>2019-10-04T15:26:56.000Z</Time>
            <Position>
              <LatitudeDegrees>42.9945128224790096282958984375</LatitudeDegrees>
              <LongitudeDegrees>-5.761901624500751495361328125</LongitudeDegrees>
            </Position>
            <AltitudeMeters>1328.199951171875</AltitudeMeters>
            <DistanceMeters>NAN</DistanceMeters>
          </Trackpoint>
          <Trackpoint>
            <Time>2019-10-04T15:26:57.000Z</Time>
            <Position>
              <LatitudeDegrees>42.9944990761578083038330078125</LatitudeDegrees>
              <LongitudeDegrees>-5.7618873752653598785400390625</LongitudeDegrees>
            </Position>
            <AltitudeMeters>1328.5999755859375</AltitudeMeters>
            <DistanceMeters>NAN</DistanceMeters>
          </Trackpoint>
          <Trackpoint>
            <Time>2019-10-04T15:27:00.000Z</Time>
            <Position>
              <LatitudeDegrees>42.9944662190973758697509765625</LatitudeDegrees>
              <LongitudeDegrees>-5.7618434540927410125732421875</LongitudeDegrees>
            </Position>
            <AltitudeMeters>1329.4000244140625</AltitudeMeters>
            <DistanceMeters>NAN</DistanceMeters>
          </Trackpoint>
          <Trackpoint>
            <Time>2019-10-04T15:27:05.000Z</Time>
            <Position>
              <LatitudeDegrees>42.994408048689365386962890625</LatitudeDegrees>
              <LongitudeDegrees>-5.76176793314516544342041015625</LongitudeDegrees>
            </Position>
            <AltitudeMeters>1330.5999755859375</AltitudeMeters>
            <DistanceMeters>NAN</DistanceMeters>
          </Trackpoint>
          <Trackpoint>
            <Time>2019-10-04T15:27:08.000Z</Time>
            <Position>
              <LatitudeDegrees>42.99438265152275562286376953125</LatitudeDegrees>
              <LongitudeDegrees>-5.76172535307705402374267578125</LongitudeDegrees>
            </Position>
            <AltitudeMeters>1330.800048828125</AltitudeMeters>
            <DistanceMeters>NAN</DistanceMeters>
          </Trackpoint>
          <Trackpoint>
            <Time>2019-10-04T15:27:12.000Z</Time>
            <Position>
              <LatitudeDegrees>42.9943406581878662109375</LatitudeDegrees>
              <LongitudeDegrees>-5.7616563700139522552490234375</LongitudeDegrees>
            </Position>
            <AltitudeMeters>1331.800048828125</AltitudeMeters>
            <DistanceMeters>NAN</DistanceMeters>
          </Trackpoint>
          <Trackpoint>
            <Time>2019-10-04T15:27:16.000Z</Time>
            <Position>
              <LatitudeDegrees>42.99430352635681629180908203125</LatitudeDegrees>
              <LongitudeDegrees>-5.76157900504767894744873046875</LongitudeDegrees>
            </Position>
            <AltitudeMeters>1332.4000244140625</AltitudeMeters>
            <DistanceMeters>NAN</DistanceMeters>
          </Trackpoint>
          <Trackpoint>
            <Time>2019-10-04T15:27:19.000Z</Time>
            <Position>
              <LatitudeDegrees>42.99427972175180912017822265625</LatitudeDegrees>
              <LongitudeDegrees>-5.7615202479064464569091796875</LongitudeDegrees>
            </Position>
            <AltitudeMeters>1333</AltitudeMeters>
            <DistanceMeters>NAN</DistanceMeters>
          </Trackpoint>
          <Trackpoint>
            <Time>2019-10-04T15:27:23.000Z</Time>
            <Position>
              <LatitudeDegrees>42.99425013363361358642578125</LatitudeDegrees>
              <LongitudeDegrees>-5.76142813079059123992919921875</LongitudeDegrees>
            </Position>
            <AltitudeMeters>1333.4000244140625</AltitudeMeters>
            <DistanceMeters>NAN</DistanceMeters>
          </Trackpoint>
          <Trackpoint>
            <Time>2019-10-04T15:27:27.000Z</Time>
            <Position>
              <LatitudeDegrees>42.9942298494279384613037109375</LatitudeDegrees>
              <LongitudeDegrees>-5.7613375224173069000244140625</LongitudeDegrees>
            </Position>
            <AltitudeMeters>1334</AltitudeMeters>
            <DistanceMeters>NAN</DistanceMeters>
          </Trackpoint>
          <Trackpoint>
            <Time>2019-10-04T15:27:29.000Z</Time>
            <Position>
              <LatitudeDegrees>42.9942077212035655975341796875</LatitudeDegrees>
              <LongitudeDegrees>-5.76130189932882785797119140625</LongitudeDegrees>
            </Position>
            <AltitudeMeters>1334.5999755859375</AltitudeMeters>
            <DistanceMeters>NAN</DistanceMeters>
          </Trackpoint>
          <Trackpoint>
            <Time>2019-10-04T15:27:32.000Z</Time>
            <Position>
              <LatitudeDegrees>42.99419053830206394195556640625</LatitudeDegrees>
              <LongitudeDegrees>-5.761258900165557861328125</LongitudeDegrees>
            </Position>
            <AltitudeMeters>1335.199951171875</AltitudeMeters>
            <DistanceMeters>NAN</DistanceMeters>
          </Trackpoint>
          <Trackpoint>
            <Time>2019-10-04T15:27:34.000Z</Time>
            <Position>
              <LatitudeDegrees>42.99419338814914226531982421875</LatitudeDegrees>
              <LongitudeDegrees>-5.7612701319158077239990234375</LongitudeDegrees>
            </Position>
            <AltitudeMeters>1335.4000244140625</AltitudeMeters>
            <DistanceMeters>NAN</DistanceMeters>
          </Trackpoint>
          <Trackpoint>
            <Time>2019-10-04T15:27:48.000Z</Time>
            <Position>
              <LatitudeDegrees>42.99419003538787364959716796875</LatitudeDegrees>
              <LongitudeDegrees>-5.7612629234790802001953125</LongitudeDegrees>
            </Position>
            <AltitudeMeters>1335</AltitudeMeters>
            <DistanceMeters>NAN</DistanceMeters>
          </Trackpoint>
          <Trackpoint>
            <Time>2019-10-04T15:27:54.000Z</Time>
            <Position>
              <LatitudeDegrees>42.99419003538787364959716796875</LatitudeDegrees>
              <LongitudeDegrees>-5.7612629234790802001953125</LongitudeDegrees>
            </Position>
            <AltitudeMeters>1335.199951171875</AltitudeMeters>
            <DistanceMeters>NAN</DistanceMeters>
          </Trackpoint>
          <Trackpoint>
            <Time>2019-10-04T15:27:58.000Z</Time>
            <Position>
              <LatitudeDegrees>42.99419003538787364959716796875</LatitudeDegrees>
              <LongitudeDegrees>-5.7612629234790802001953125</LongitudeDegrees>
            </Position>
            <AltitudeMeters>1335.4000244140625</AltitudeMeters>
            <DistanceMeters>NAN</DistanceMeters>
          </Trackpoint>
          <Trackpoint>
            <Time>2019-10-04T15:28:04.000Z</Time>
            <Position>
              <LatitudeDegrees>42.99419003538787364959716796875</LatitudeDegrees>
              <LongitudeDegrees>-5.7612629234790802001953125</LongitudeDegrees>
            </Position>
            <AltitudeMeters>1335.4000244140625</AltitudeMeters>
            <DistanceMeters>NAN</DistanceMeters>
          </Trackpoint>
          <Trackpoint>
            <Time>2019-10-04T15:28:10.000Z</Time>
            <Position>
              <LatitudeDegrees>42.99419003538787364959716796875</LatitudeDegrees>
              <LongitudeDegrees>-5.7612629234790802001953125</LongitudeDegrees>
            </Position>
            <AltitudeMeters>1335.4000244140625</AltitudeMeters>
            <DistanceMeters>NAN</DistanceMeters>
          </Trackpoint>
          <Trackpoint>
            <Time>2019-10-04T15:28:12.000Z</Time>
            <Position>
              <LatitudeDegrees>42.99418668262660503387451171875</LatitudeDegrees>
              <LongitudeDegrees>-5.7612521946430206298828125</LongitudeDegrees>
            </Position>
            <AltitudeMeters>1335.4000244140625</AltitudeMeters>
            <DistanceMeters>NAN</DistanceMeters>
          </Trackpoint>
          <Trackpoint>
            <Time>2019-10-04T15:28:15.000Z</Time>
            <Position>
              <LatitudeDegrees>42.99416203983128070831298828125</LatitudeDegrees>
              <LongitudeDegrees>-5.76119125820696353912353515625</LongitudeDegrees>
            </Position>
            <AltitudeMeters>1335.4000244140625</AltitudeMeters>
            <DistanceMeters>NAN</DistanceMeters>
          </Trackpoint>
          <Trackpoint>
            <Time>2019-10-04T15:28:18.000Z</Time>
            <Position>
              <LatitudeDegrees>42.99414217472076416015625</LatitudeDegrees>
              <LongitudeDegrees>-5.761125795543193817138671875</LongitudeDegrees>
            </Position>
            <AltitudeMeters>1336.4000244140625</AltitudeMeters>
            <DistanceMeters>NAN</DistanceMeters>
          </Trackpoint>
          <Trackpoint>
            <Time>2019-10-04T15:28:23.000Z</Time>
            <Position>
              <LatitudeDegrees>42.99410336650907993316650390625</LatitudeDegrees>
              <LongitudeDegrees>-5.76102445833384990692138671875</LongitudeDegrees>
            </Position>
            <AltitudeMeters>1337</AltitudeMeters>
            <DistanceMeters>NAN</DistanceMeters>
          </Trackpoint>
          <Trackpoint>
            <Time>2019-10-04T15:28:25.000Z</Time>
            <Position>
              <LatitudeDegrees>42.9940870217978954315185546875</LatitudeDegrees>
              <LongitudeDegrees>-5.7609898410737514495849609375</LongitudeDegrees>
            </Position>
            <AltitudeMeters>1337.4000244140625</AltitudeMeters>
            <DistanceMeters>NAN</DistanceMeters>
          </Trackpoint>
          <Trackpoint>
            <Time>2019-10-04T15:28:31.000Z</Time>
            <Position>
              <LatitudeDegrees>42.99404335208237171173095703125</LatitudeDegrees>
              <LongitudeDegrees>-5.76087467372417449951171875</LongitudeDegrees>
            </Position>
            <AltitudeMeters>1338.199951171875</AltitudeMeters>
            <DistanceMeters>NAN</DistanceMeters>
          </Trackpoint>
          <Trackpoint>
            <Time>2019-10-04T15:28:33.000Z</Time>
            <Position>
              <LatitudeDegrees>42.9940280131995677947998046875</LatitudeDegrees>
              <LongitudeDegrees>-5.7608391344547271728515625</LongitudeDegrees>
            </Position>
            <AltitudeMeters>1338.5999755859375</AltitudeMeters>
            <DistanceMeters>NAN</DistanceMeters>
          </Trackpoint>
          <Trackpoint>
            <Time>2019-10-04T15:28:39.000Z</Time>
            <Position>
              <LatitudeDegrees>42.99396984279155731201171875</LatitudeDegrees>
              <LongitudeDegrees>-5.76074399985373020172119140625</LongitudeDegrees>
            </Position>
            <AltitudeMeters>1339.800048828125</AltitudeMeters>
            <DistanceMeters>NAN</DistanceMeters>
          </Trackpoint>
          <Trackpoint>
            <Time>2019-10-04T15:28:41.000Z</Time>
            <Position>
              <LatitudeDegrees>42.9939482174813747406005859375</LatitudeDegrees>
              <LongitudeDegrees>-5.76071952469646930694580078125</LongitudeDegrees>
            </Position>
            <AltitudeMeters>1340</AltitudeMeters>
            <DistanceMeters>NAN</DistanceMeters>
          </Trackpoint>
          <Trackpoint>
            <Time>2019-10-04T15:28:44.000Z</Time>
            <Position>
              <LatitudeDegrees>42.99390957690775394439697265625</LatitudeDegrees>
              <LongitudeDegrees>-5.76068415306508541107177734375</LongitudeDegrees>
            </Position>
            <AltitudeMeters>1341</AltitudeMeters>
            <DistanceMeters>NAN</DistanceMeters>
          </Trackpoint>
          <Trackpoint>
            <Time>2019-10-04T15:28:47.000Z</Time>
            <Position>
              <LatitudeDegrees>42.99386951141059398651123046875</LatitudeDegrees>
              <LongitudeDegrees>-5.76065498404204845428466796875</LongitudeDegrees>
            </Position>
            <AltitudeMeters>1341.5999755859375</AltitudeMeters>
            <DistanceMeters>NAN</DistanceMeters>
          </Trackpoint>
          <Trackpoint>
            <Time>2019-10-04T15:28:49.000Z</Time>
            <Position>
              <LatitudeDegrees>42.99384101293981075286865234375</LatitudeDegrees>
              <LongitudeDegrees>-5.76064274646341800689697265625</LongitudeDegrees>
            </Position>
            <AltitudeMeters>1342</AltitudeMeters>
            <DistanceMeters>NAN</DistanceMeters>
          </Trackpoint>
          <Trackpoint>
            <Time>2019-10-04T15:28:54.000Z</Time>
            <Position>
              <LatitudeDegrees>42.9937658272683620452880859375</LatitudeDegrees>
              <LongitudeDegrees>-5.76061525382101535797119140625</LongitudeDegrees>
            </Position>
            <AltitudeMeters>1343.4000244140625</AltitudeMeters>
            <DistanceMeters>NAN</DistanceMeters>
          </Trackpoint>
          <Trackpoint>
            <Time>2019-10-04T15:29:00.000Z</Time>
            <Position>
              <LatitudeDegrees>42.9936729557812213897705078125</LatitudeDegrees>
              <LongitudeDegrees>-5.7605989091098308563232421875</LongitudeDegrees>
            </Position>
            <AltitudeMeters>1344</AltitudeMeters>
            <DistanceMeters>NAN</DistanceMeters>
          </Trackpoint>
          <Trackpoint>
            <Time>2019-10-04T15:29:02.000Z</Time>
            <Position>
              <LatitudeDegrees>42.9936387576162815093994140625</LatitudeDegrees>
              <LongitudeDegrees>-5.7605935446918010711669921875</LongitudeDegrees>
            </Position>
            <AltitudeMeters>1344.800048828125</AltitudeMeters>
            <DistanceMeters>NAN</DistanceMeters>
          </Trackpoint>
          <Trackpoint>
            <Time>2019-10-04T15:29:08.000Z</Time>
            <Position>
              <LatitudeDegrees>42.9935398511588573455810546875</LatitudeDegrees>
              <LongitudeDegrees>-5.7605784572660923004150390625</LongitudeDegrees>
            </Position>
            <AltitudeMeters>1346</AltitudeMeters>
            <DistanceMeters>NAN</DistanceMeters>
          </Trackpoint>
          <Trackpoint>
            <Time>2019-10-04T15:29:12.000Z</Time>
            <Position>
              <LatitudeDegrees>42.993475310504436492919921875</LatitudeDegrees>
              <LongitudeDegrees>-5.7605576701462268829345703125</LongitudeDegrees>
            </Position>
            <AltitudeMeters>1346.5999755859375</AltitudeMeters>
            <DistanceMeters>NAN</DistanceMeters>
          </Trackpoint>
          <Trackpoint>
            <Time>2019-10-04T15:29:15.000Z</Time>
            <Position>
              <LatitudeDegrees>42.99342510290443897247314453125</LatitudeDegrees>
              <LongitudeDegrees>-5.76053814031183719635009765625</LongitudeDegrees>
            </Position>
            <AltitudeMeters>1347.199951171875</AltitudeMeters>
            <DistanceMeters>NAN</DistanceMeters>
          </Trackpoint>
          <Trackpoint>
            <Time>2019-10-04T15:29:20.000Z</Time>
            <Position>
              <LatitudeDegrees>42.9933477379381656646728515625</LatitudeDegrees>
              <LongitudeDegrees>-5.76050008647143840789794921875</LongitudeDegrees>
            </Position>
            <AltitudeMeters>1348.4000244140625</AltitudeMeters>
            <DistanceMeters>NAN</DistanceMeters>
          </Trackpoint>
          <Trackpoint>
            <Time>2019-10-04T15:29:22.000Z</Time>
            <Position>
              <LatitudeDegrees>42.993319071829319000244140625</LatitudeDegrees>
              <LongitudeDegrees>-5.76049170456826686859130859375</LongitudeDegrees>
            </Position>
            <AltitudeMeters>1349</AltitudeMeters>
            <DistanceMeters>NAN</DistanceMeters>
          </Trackpoint>
          <Trackpoint>
            <Time>2019-10-04T15:29:24.000Z</Time>
            <Position>
              <LatitudeDegrees>42.99331043846905231475830078125</LatitudeDegrees>
              <LongitudeDegrees>-5.7604875974357128143310546875</LongitudeDegrees>
            </Position>
            <AltitudeMeters>1349.199951171875</AltitudeMeters>
            <DistanceMeters>NAN</DistanceMeters>
          </Trackpoint>
          <Trackpoint>
            <Time>2019-10-04T15:29:27.000Z</Time>
            <Position>
              <LatitudeDegrees>42.9933118633925914764404296875</LatitudeDegrees>
              <LongitudeDegrees>-5.7604922913014888763427734375</LongitudeDegrees>
            </Position>
            <AltitudeMeters>1349.199951171875</AltitudeMeters>
            <DistanceMeters>NAN</DistanceMeters>
          </Trackpoint>
          <Trackpoint>
            <Time>2019-10-04T15:29:32.000Z</Time>
            <Position>
              <LatitudeDegrees>42.9933118633925914764404296875</LatitudeDegrees>
              <LongitudeDegrees>-5.7604922913014888763427734375</LongitudeDegrees>
            </Position>
            <AltitudeMeters>1349.4000244140625</AltitudeMeters>
            <DistanceMeters>NAN</DistanceMeters>
          </Trackpoint>
          <Trackpoint>
            <Time>2019-10-04T15:29:42.000Z</Time>
            <Position>
              <LatitudeDegrees>42.9933118633925914764404296875</LatitudeDegrees>
              <LongitudeDegrees>-5.7604922913014888763427734375</LongitudeDegrees>
            </Position>
            <AltitudeMeters>1349.4000244140625</AltitudeMeters>
            <DistanceMeters>NAN</DistanceMeters>
          </Trackpoint>
          <Trackpoint>
            <Time>2019-10-04T15:29:45.000Z</Time>
            <Position>
              <LatitudeDegrees>42.9933118633925914764404296875</LatitudeDegrees>
              <LongitudeDegrees>-5.7604922913014888763427734375</LongitudeDegrees>
            </Position>
            <AltitudeMeters>1349.199951171875</AltitudeMeters>
            <DistanceMeters>NAN</DistanceMeters>
          </Trackpoint>
          <Trackpoint>
            <Time>2019-10-04T15:29:50.000Z</Time>
            <Position>
              <LatitudeDegrees>42.9933118633925914764404296875</LatitudeDegrees>
              <LongitudeDegrees>-5.7604922913014888763427734375</LongitudeDegrees>
            </Position>
            <AltitudeMeters>1349.4000244140625</AltitudeMeters>
            <DistanceMeters>NAN</DistanceMeters>
          </Trackpoint>
          <Trackpoint>
            <Time>2019-10-04T15:29:58.000Z</Time>
            <Position>
              <LatitudeDegrees>42.9933118633925914764404296875</LatitudeDegrees>
              <LongitudeDegrees>-5.7604922913014888763427734375</LongitudeDegrees>
            </Position>
            <AltitudeMeters>1349.5999755859375</AltitudeMeters>
            <DistanceMeters>NAN</DistanceMeters>
          </Trackpoint>
          <Trackpoint>
            <Time>2019-10-04T15:30:03.000Z</Time>
            <Position>
              <LatitudeDegrees>42.9933118633925914764404296875</LatitudeDegrees>
              <LongitudeDegrees>-5.7604922913014888763427734375</LongitudeDegrees>
            </Position>
            <AltitudeMeters>1349.4000244140625</AltitudeMeters>
            <DistanceMeters>NAN</DistanceMeters>
          </Trackpoint>
          <Trackpoint>
            <Time>2019-10-04T15:30:17.000Z</Time>
            <Position>
              <LatitudeDegrees>42.99330121837556362152099609375</LatitudeDegrees>
              <LongitudeDegrees>-5.7604842446744441986083984375</LongitudeDegrees>
            </Position>
            <AltitudeMeters>1349.4000244140625</AltitudeMeters>
            <DistanceMeters>NAN</DistanceMeters>
          </Trackpoint>
          <Trackpoint>
            <Time>2019-10-04T15:30:20.000Z</Time>
            <Position>
              <LatitudeDegrees>42.99326769076287746429443359375</LatitudeDegrees>
              <LongitudeDegrees>-5.76044728048145771026611328125</LongitudeDegrees>
            </Position>
            <AltitudeMeters>1349.800048828125</AltitudeMeters>
            <DistanceMeters>NAN</DistanceMeters>
          </Trackpoint>
          <Trackpoint>
            <Time>2019-10-04T15:30:23.000Z</Time>
            <Position>
              <LatitudeDegrees>42.9932250268757343292236328125</LatitudeDegrees>
              <LongitudeDegrees>-5.760409645736217498779296875</LongitudeDegrees>
            </Position>
            <AltitudeMeters>1350</AltitudeMeters>
            <DistanceMeters>NAN</DistanceMeters>
          </Trackpoint>
          <Trackpoint>
            <Time>2019-10-04T15:30:25.000Z</Time>
            <Position>
              <LatitudeDegrees>42.99319828860461711883544921875</LatitudeDegrees>
              <LongitudeDegrees>-5.76038089580833911895751953125</LongitudeDegrees>
            </Position>
            <AltitudeMeters>1350.5999755859375</AltitudeMeters>
            <DistanceMeters>NAN</DistanceMeters>
          </Trackpoint>
          <Trackpoint>
            <Time>2019-10-04T15:30:30.000Z</Time>
            <Position>
              <LatitudeDegrees>42.99312293529510498046875</LatitudeDegrees>
              <LongitudeDegrees>-5.7603199593722820281982421875</LongitudeDegrees>
            </Position>
            <AltitudeMeters>1351.5999755859375</AltitudeMeters>
            <DistanceMeters>NAN</DistanceMeters>
          </Trackpoint>
          <Trackpoint>
            <Time>2019-10-04T15:30:35.000Z</Time>
            <Position>
              <LatitudeDegrees>42.9930500127375125885009765625</LatitudeDegrees>
              <LongitudeDegrees>-5.7602498866617679595947265625</LongitudeDegrees>
            </Position>
            <AltitudeMeters>1352.199951171875</AltitudeMeters>
            <DistanceMeters>NAN</DistanceMeters>
          </Trackpoint>
          <Trackpoint>
            <Time>2019-10-04T15:30:36.000Z</Time>
            <Position>
              <LatitudeDegrees>42.9930357635021209716796875</LatitudeDegrees>
              <LongitudeDegrees>-5.76023756526410579681396484375</LongitudeDegrees>
            </Position>
            <AltitudeMeters>1352.800048828125</AltitudeMeters>
            <DistanceMeters>NAN</DistanceMeters>
          </Trackpoint>
          <Trackpoint>
            <Time>2019-10-04T15:30:44.000Z</Time>
            <Position>
              <LatitudeDegrees>42.992918752133846282958984375</LatitudeDegrees>
              <LongitudeDegrees>-5.76011292636394500732421875</LongitudeDegrees>
            </Position>
            <AltitudeMeters>1353.800048828125</AltitudeMeters>
            <DistanceMeters>NAN</DistanceMeters>
          </Trackpoint>
          <Trackpoint>
            <Time>2019-10-04T15:30:45.000Z</Time>
            <Position>
              <LatitudeDegrees>42.99290391616523265838623046875</LatitudeDegrees>
              <LongitudeDegrees>-5.7600953243672847747802734375</LongitudeDegrees>
            </Position>
            <AltitudeMeters>1354.199951171875</AltitudeMeters>
            <DistanceMeters>NAN</DistanceMeters>
          </Trackpoint>
          <Trackpoint>
            <Time>2019-10-04T15:30:51.000Z</Time>
            <Position>
              <LatitudeDegrees>42.9928203485906124114990234375</LatitudeDegrees>
              <LongitudeDegrees>-5.75998149812221527099609375</LongitudeDegrees>
            </Position>
            <AltitudeMeters>1355.4000244140625</AltitudeMeters>
            <DistanceMeters>NAN</DistanceMeters>
          </Trackpoint>
          <Trackpoint>
            <Time>2019-10-04T15:30:53.000Z</Time>
            <Position>
              <LatitudeDegrees>42.992793023586273193359375</LatitudeDegrees>
              <LongitudeDegrees>-5.75994721613824367523193359375</LongitudeDegrees>
            </Position>
            <AltitudeMeters>1355.4000244140625</AltitudeMeters>
            <DistanceMeters>NAN</DistanceMeters>
          </Trackpoint>
          <Trackpoint>
            <Time>2019-10-04T15:30:59.000Z</Time>
            <Position>
              <LatitudeDegrees>42.9927261359989643096923828125</LatitudeDegrees>
              <LongitudeDegrees>-5.759819559752941131591796875</LongitudeDegrees>
            </Position>
            <AltitudeMeters>1356.4000244140625</AltitudeMeters>
            <DistanceMeters>NAN</DistanceMeters>
          </Trackpoint>
          <Trackpoint>
            <Time>2019-10-04T15:31:02.000Z</Time>
            <Position>
              <LatitudeDegrees>42.99269956536591053009033203125</LatitudeDegrees>
              <LongitudeDegrees>-5.7597503252327442169189453125</LongitudeDegrees>
            </Position>
            <AltitudeMeters>1356.800048828125</AltitudeMeters>
            <DistanceMeters>NAN</DistanceMeters>
          </Trackpoint>
          <Trackpoint>
            <Time>2019-10-04T15:31:10.000Z</Time>
            <Position>
              <LatitudeDegrees>42.99263217486441135406494140625</LatitudeDegrees>
              <LongitudeDegrees>-5.7595726288855075836181640625</LongitudeDegrees>
            </Position>
            <AltitudeMeters>1357.199951171875</AltitudeMeters>
            <DistanceMeters>NAN</DistanceMeters>
          </Trackpoint>
          <Trackpoint>
            <Time>2019-10-04T15:31:17.000Z</Time>
            <Position>
              <LatitudeDegrees>42.992588169872760772705078125</LatitudeDegrees>
              <LongitudeDegrees>-5.75942217372357845306396484375</LongitudeDegrees>
            </Position>
            <AltitudeMeters>1357</AltitudeMeters>
            <DistanceMeters>NAN</DistanceMeters>
          </Trackpoint>
          <Trackpoint>
            <Time>2019-10-04T15:31:24.000Z</Time>
            <Position>
              <LatitudeDegrees>42.9925514571368694305419921875</LatitudeDegrees>
              <LongitudeDegrees>-5.7593935914337635040283203125</LongitudeDegrees>
            </Position>
            <AltitudeMeters>1356.800048828125</AltitudeMeters>
            <DistanceMeters>NAN</DistanceMeters>
          </Trackpoint>
          <Trackpoint>
            <Time>2019-10-04T15:31:29.000Z</Time>
            <Position>
              <LatitudeDegrees>42.99255170859396457672119140625</LatitudeDegrees>
              <LongitudeDegrees>-5.75940188951790332794189453125</LongitudeDegrees>
            </Position>
            <AltitudeMeters>1356.800048828125</AltitudeMeters>
            <DistanceMeters>NAN</DistanceMeters>
          </Trackpoint>
          <Trackpoint>
            <Time>2019-10-04T15:31:30.000Z</Time>
            <Position>
              <LatitudeDegrees>42.99255355261266231536865234375</LatitudeDegrees>
              <LongitudeDegrees>-5.75940339826047420501708984375</LongitudeDegrees>
            </Position>
            <AltitudeMeters>1356.800048828125</AltitudeMeters>
            <DistanceMeters>NAN</DistanceMeters>
          </Trackpoint>
          <Trackpoint>
            <Time>2019-10-04T15:31:39.000Z</Time>
            <Position>
              <LatitudeDegrees>42.99254165031015872955322265625</LatitudeDegrees>
              <LongitudeDegrees>-5.75941077433526515960693359375</LongitudeDegrees>
            </Position>
            <AltitudeMeters>1357</AltitudeMeters>
            <DistanceMeters>NAN</DistanceMeters>
          </Trackpoint>
          <Trackpoint>
            <Time>2019-10-04T15:31:48.000Z</Time>
            <Position>
              <LatitudeDegrees>42.99254165031015872955322265625</LatitudeDegrees>
              <LongitudeDegrees>-5.75941077433526515960693359375</LongitudeDegrees>
            </Position>
            <AltitudeMeters>1356.800048828125</AltitudeMeters>
            <DistanceMeters>NAN</DistanceMeters>
          </Trackpoint>
          <Trackpoint>
            <Time>2019-10-04T15:31:55.000Z</Time>
            <Position>
              <LatitudeDegrees>42.99254165031015872955322265625</LatitudeDegrees>
              <LongitudeDegrees>-5.75941077433526515960693359375</LongitudeDegrees>
            </Position>
            <AltitudeMeters>1356.800048828125</AltitudeMeters>
            <DistanceMeters>NAN</DistanceMeters>
          </Trackpoint>
          <Trackpoint>
            <Time>2019-10-04T15:32:11.000Z</Time>
            <Position>
              <LatitudeDegrees>42.9925410635769367218017578125</LatitudeDegrees>
              <LongitudeDegrees>-5.7594133727252483367919921875</LongitudeDegrees>
            </Position>
            <AltitudeMeters>1356.800048828125</AltitudeMeters>
            <DistanceMeters>NAN</DistanceMeters>
          </Trackpoint>
          <Trackpoint>
            <Time>2019-10-04T15:32:18.000Z</Time>
            <Position>
              <LatitudeDegrees>42.9925410635769367218017578125</LatitudeDegrees>
              <LongitudeDegrees>-5.7594133727252483367919921875</LongitudeDegrees>
            </Position>
            <AltitudeMeters>1357.199951171875</AltitudeMeters>
            <DistanceMeters>NAN</DistanceMeters>
          </Trackpoint>
          <Trackpoint>
            <Time>2019-10-04T15:32:21.000Z</Time>
            <Position>
              <LatitudeDegrees>42.9925410635769367218017578125</LatitudeDegrees>
              <LongitudeDegrees>-5.7594133727252483367919921875</LongitudeDegrees>
            </Position>
            <AltitudeMeters>1357.199951171875</AltitudeMeters>
            <DistanceMeters>NAN</DistanceMeters>
          </Trackpoint>
          <Trackpoint>
            <Time>2019-10-04T15:32:28.000Z</Time>
            <Position>
              <LatitudeDegrees>42.9925410635769367218017578125</LatitudeDegrees>
              <LongitudeDegrees>-5.7594133727252483367919921875</LongitudeDegrees>
            </Position>
            <AltitudeMeters>1357</AltitudeMeters>
            <DistanceMeters>NAN</DistanceMeters>
          </Trackpoint>
          <Trackpoint>
            <Time>2019-10-04T15:32:32.000Z</Time>
            <Position>
              <LatitudeDegrees>42.9925410635769367218017578125</LatitudeDegrees>
              <LongitudeDegrees>-5.7594133727252483367919921875</LongitudeDegrees>
            </Position>
            <AltitudeMeters>1357</AltitudeMeters>
            <DistanceMeters>NAN</DistanceMeters>
          </Trackpoint>
          <Trackpoint>
            <Time>2019-10-04T15:32:39.000Z</Time>
            <Position>
              <LatitudeDegrees>42.9925410635769367218017578125</LatitudeDegrees>
              <LongitudeDegrees>-5.7594133727252483367919921875</LongitudeDegrees>
            </Position>
            <AltitudeMeters>1357</AltitudeMeters>
            <DistanceMeters>NAN</DistanceMeters>
          </Trackpoint>
          <Trackpoint>
            <Time>2019-10-04T15:32:55.000Z</Time>
            <Position>
              <LatitudeDegrees>42.9925403930246829986572265625</LatitudeDegrees>
              <LongitudeDegrees>-5.75941823422908782958984375</LongitudeDegrees>
            </Position>
            <AltitudeMeters>1357</AltitudeMeters>
            <DistanceMeters>NAN</DistanceMeters>
          </Trackpoint>
          <Trackpoint>
            <Time>2019-10-04T15:33:00.000Z</Time>
            <Position>
              <LatitudeDegrees>42.9925403930246829986572265625</LatitudeDegrees>
              <LongitudeDegrees>-5.75941823422908782958984375</LongitudeDegrees>
            </Position>
            <AltitudeMeters>1357</AltitudeMeters>
            <DistanceMeters>NAN</DistanceMeters>
          </Trackpoint>
          <Trackpoint>
            <Time>2019-10-04T15:33:05.000Z</Time>
            <Position>
              <LatitudeDegrees>42.99254114739596843719482421875</LatitudeDegrees>
              <LongitudeDegrees>-5.75941731221973896026611328125</LongitudeDegrees>
            </Position>
            <AltitudeMeters>1357.199951171875</AltitudeMeters>
            <DistanceMeters>NAN</DistanceMeters>
          </Trackpoint>
          <Trackpoint>
            <Time>2019-10-04T15:33:07.000Z</Time>
            <Position>
              <LatitudeDegrees>42.99254835583269596099853515625</LatitudeDegrees>
              <LongitudeDegrees>-5.75940214097499847412109375</LongitudeDegrees>
            </Position>
            <AltitudeMeters>1357.4000244140625</AltitudeMeters>
            <DistanceMeters>NAN</DistanceMeters>
          </Trackpoint>
          <Trackpoint>
            <Time>2019-10-04T15:33:09.000Z</Time>
            <Position>
              <LatitudeDegrees>42.99255170859396457672119140625</LatitudeDegrees>
              <LongitudeDegrees>-5.75940105132758617401123046875</LongitudeDegrees>
            </Position>
            <AltitudeMeters>1357.199951171875</AltitudeMeters>
            <DistanceMeters>NAN</DistanceMeters>
          </Trackpoint>
          <Trackpoint>
            <Time>2019-10-04T15:33:11.000Z</Time>
            <Position>
              <LatitudeDegrees>42.99255120567977428436279296875</LatitudeDegrees>
              <LongitudeDegrees>-5.75940105132758617401123046875</LongitudeDegrees>
            </Position>
            <AltitudeMeters>1357</AltitudeMeters>
            <DistanceMeters>NAN</DistanceMeters>
          </Trackpoint>
          <Trackpoint>
            <Time>2019-10-04T15:33:14.000Z</Time>
            <Position>
              <LatitudeDegrees>42.99255170859396457672119140625</LatitudeDegrees>
              <LongitudeDegrees>-5.75940105132758617401123046875</LongitudeDegrees>
            </Position>
            <AltitudeMeters>1357.5999755859375</AltitudeMeters>
            <DistanceMeters>NAN</DistanceMeters>
          </Trackpoint>
          <Trackpoint>
            <Time>2019-10-04T15:33:20.000Z</Time>
            <Position>
              <LatitudeDegrees>42.992575429379940032958984375</LatitudeDegrees>
              <LongitudeDegrees>-5.75934539549052715301513671875</LongitudeDegrees>
            </Position>
            <AltitudeMeters>1357</AltitudeMeters>
            <DistanceMeters>NAN</DistanceMeters>
          </Trackpoint>
          <Trackpoint>
            <Time>2019-10-04T15:33:25.000Z</Time>
            <Position>
              <LatitudeDegrees>42.99257065169513225555419921875</LatitudeDegrees>
              <LongitudeDegrees>-5.7592038251459598541259765625</LongitudeDegrees>
            </Position>
            <AltitudeMeters>1356.800048828125</AltitudeMeters>
            <DistanceMeters>NAN</DistanceMeters>
          </Trackpoint>
          <Trackpoint>
            <Time>2019-10-04T15:33:27.000Z</Time>
            <Position>
              <LatitudeDegrees>42.9925554804503917694091796875</LatitudeDegrees>
              <LongitudeDegrees>-5.75911170803010463714599609375</LongitudeDegrees>
            </Position>
            <AltitudeMeters>1356</AltitudeMeters>
            <DistanceMeters>NAN</DistanceMeters>
          </Trackpoint>
          <Trackpoint>
            <Time>2019-10-04T15:33:30.000Z</Time>
            <Position>
              <LatitudeDegrees>42.99252304248511791229248046875</LatitudeDegrees>
              <LongitudeDegrees>-5.75894038192927837371826171875</LongitudeDegrees>
            </Position>
            <AltitudeMeters>1355.199951171875</AltitudeMeters>
            <DistanceMeters>NAN</DistanceMeters>
          </Trackpoint>
          <Trackpoint>
            <Time>2019-10-04T15:33:31.000Z</Time>
            <Position>
              <LatitudeDegrees>42.9925088770687580108642578125</LatitudeDegrees>
              <LongitudeDegrees>-5.75887684710323810577392578125</LongitudeDegrees>
            </Position>
            <AltitudeMeters>1355</AltitudeMeters>
            <DistanceMeters>NAN</DistanceMeters>
          </Trackpoint>
          <Trackpoint>
            <Time>2019-10-04T15:33:34.000Z</Time>
            <Position>
              <LatitudeDegrees>42.99246369861066341400146484375</LatitudeDegrees>
              <LongitudeDegrees>-5.75865757651627063751220703125</LongitudeDegrees>
            </Position>
            <AltitudeMeters>1353.5999755859375</AltitudeMeters>
            <DistanceMeters>NAN</DistanceMeters>
          </Trackpoint>
          <Trackpoint>
            <Time>2019-10-04T15:33:36.000Z</Time>
            <Position>
              <LatitudeDegrees>42.99242882989346981048583984375</LatitudeDegrees>
              <LongitudeDegrees>-5.7584933750331401824951171875</LongitudeDegrees>
            </Position>
            <AltitudeMeters>1352.800048828125</AltitudeMeters>
            <DistanceMeters>NAN</DistanceMeters>
          </Trackpoint>
          <Trackpoint>
            <Time>2019-10-04T15:33:37.000Z</Time>
            <Position>
              <LatitudeDegrees>42.99241173081099987030029296875</LatitudeDegrees>
              <LongitudeDegrees>-5.75840695761144161224365234375</LongitudeDegrees>
            </Position>
            <AltitudeMeters>1352.4000244140625</AltitudeMeters>
            <DistanceMeters>NAN</DistanceMeters>
          </Trackpoint>
          <Trackpoint>
            <Time>2019-10-04T15:33:40.000Z</Time>
            <Position>
              <LatitudeDegrees>42.9923569969832897186279296875</LatitudeDegrees>
              <LongitudeDegrees>-5.75812616385519504547119140625</LongitudeDegrees>
            </Position>
            <AltitudeMeters>1351.5999755859375</AltitudeMeters>
            <DistanceMeters>NAN</DistanceMeters>
          </Trackpoint>
          <Trackpoint>
            <Time>2019-10-04T15:33:41.000Z</Time>
            <Position>
              <LatitudeDegrees>42.99233646132051944732666015625</LatitudeDegrees>
              <LongitudeDegrees>-5.7580290175974369049072265625</LongitudeDegrees>
            </Position>
            <AltitudeMeters>1351</AltitudeMeters>
            <DistanceMeters>NAN</DistanceMeters>
          </Trackpoint>
          <Trackpoint>
            <Time>2019-10-04T15:33:43.000Z</Time>
            <Position>
              <LatitudeDegrees>42.99229337833821773529052734375</LatitudeDegrees>
              <LongitudeDegrees>-5.75781988911330699920654296875</LongitudeDegrees>
            </Position>
            <AltitudeMeters>1349.5999755859375</AltitudeMeters>
            <DistanceMeters>NAN</DistanceMeters>
          </Trackpoint>
          <Trackpoint>
            <Time>2019-10-04T15:33:46.000Z</Time>
            <Position>
              <LatitudeDegrees>42.99222582019865512847900390625</LatitudeDegrees>
              <LongitudeDegrees>-5.75750221498310565948486328125</LongitudeDegrees>
            </Position>
            <AltitudeMeters>1348.5999755859375</AltitudeMeters>
            <DistanceMeters>NAN</DistanceMeters>
          </Trackpoint>
          <Trackpoint>
            <Time>2019-10-04T15:33:48.000Z</Time>
            <Position>
              <LatitudeDegrees>42.99218759872019290924072265625</LatitudeDegrees>
              <LongitudeDegrees>-5.75733055360615253448486328125</LongitudeDegrees>
            </Position>
            <AltitudeMeters>1348.5999755859375</AltitudeMeters>
            <DistanceMeters>NAN</DistanceMeters>
          </Trackpoint>
          <Trackpoint>
            <Time>2019-10-04T15:33:50.000Z</Time>
            <Position>
              <LatitudeDegrees>42.9921531490981578826904296875</LatitudeDegrees>
              <LongitudeDegrees>-5.75719107873737812042236328125</LongitudeDegrees>
            </Position>
            <AltitudeMeters>1348.5999755859375</AltitudeMeters>
            <DistanceMeters>NAN</DistanceMeters>
          </Trackpoint>
          <Trackpoint>
            <Time>2019-10-04T15:33:51.000Z</Time>
            <Position>
              <LatitudeDegrees>42.992141582071781158447265625</LatitudeDegrees>
              <LongitudeDegrees>-5.7571378536522388458251953125</LongitudeDegrees>
            </Position>
            <AltitudeMeters>1348.4000244140625</AltitudeMeters>
            <DistanceMeters>NAN</DistanceMeters>
          </Trackpoint>
          <Trackpoint>
            <Time>2019-10-04T15:33:52.000Z</Time>
            <Position>
              <LatitudeDegrees>42.992132194340229034423828125</LatitudeDegrees>
              <LongitudeDegrees>-5.757101811468601226806640625</LongitudeDegrees>
            </Position>
            <AltitudeMeters>1348.4000244140625</AltitudeMeters>
            <DistanceMeters>NAN</DistanceMeters>
          </Trackpoint>
          <Trackpoint>
            <Time>2019-10-04T15:33:56.000Z</Time>
            <Position>
              <LatitudeDegrees>42.99212540499866008758544921875</LatitudeDegrees>
              <LongitudeDegrees>-5.757056213915348052978515625</LongitudeDegrees>
            </Position>
            <AltitudeMeters>1348.4000244140625</AltitudeMeters>
            <DistanceMeters>NAN</DistanceMeters>
          </Trackpoint>
          <Trackpoint>
            <Time>2019-10-04T15:33:59.000Z</Time>
            <Position>
              <LatitudeDegrees>42.9921233095228672027587890625</LatitudeDegrees>
              <LongitudeDegrees>-5.75705160386860370635986328125</LongitudeDegrees>
            </Position>
            <AltitudeMeters>1348.4000244140625</AltitudeMeters>
            <DistanceMeters>NAN</DistanceMeters>
          </Trackpoint>
          <Trackpoint>
            <Time>2019-10-04T15:34:02.000Z</Time>
            <Position>
              <LatitudeDegrees>42.9921233095228672027587890625</LatitudeDegrees>
              <LongitudeDegrees>-5.75705160386860370635986328125</LongitudeDegrees>
            </Position>
            <AltitudeMeters>1348.199951171875</AltitudeMeters>
            <DistanceMeters>NAN</DistanceMeters>
          </Trackpoint>
          <Trackpoint>
            <Time>2019-10-04T15:34:08.000Z</Time>
            <Position>
              <LatitudeDegrees>42.9921233095228672027587890625</LatitudeDegrees>
              <LongitudeDegrees>-5.75705160386860370635986328125</LongitudeDegrees>
            </Position>
            <AltitudeMeters>1348.4000244140625</AltitudeMeters>
            <DistanceMeters>NAN</DistanceMeters>
          </Trackpoint>
          <Trackpoint>
            <Time>2019-10-04T15:34:11.000Z</Time>
            <Position>
              <LatitudeDegrees>42.9921233095228672027587890625</LatitudeDegrees>
              <LongitudeDegrees>-5.75705160386860370635986328125</LongitudeDegrees>
            </Position>
            <AltitudeMeters>1348.4000244140625</AltitudeMeters>
            <DistanceMeters>NAN</DistanceMeters>
          </Trackpoint>
          <Trackpoint>
            <Time>2019-10-04T15:34:16.000Z</Time>
            <Position>
              <LatitudeDegrees>42.9921233095228672027587890625</LatitudeDegrees>
              <LongitudeDegrees>-5.75705160386860370635986328125</LongitudeDegrees>
            </Position>
            <AltitudeMeters>1348.5999755859375</AltitudeMeters>
            <DistanceMeters>NAN</DistanceMeters>
          </Trackpoint>
          <Trackpoint>
            <Time>2019-10-04T15:34:20.000Z</Time>
            <Position>
              <LatitudeDegrees>42.9921233095228672027587890625</LatitudeDegrees>
              <LongitudeDegrees>-5.75705160386860370635986328125</LongitudeDegrees>
            </Position>
            <AltitudeMeters>1348.5999755859375</AltitudeMeters>
            <DistanceMeters>NAN</DistanceMeters>
          </Trackpoint>
          <Trackpoint>
            <Time>2019-10-04T15:34:25.000Z</Time>
            <Position>
              <LatitudeDegrees>42.9921233095228672027587890625</LatitudeDegrees>
              <LongitudeDegrees>-5.75705160386860370635986328125</LongitudeDegrees>
            </Position>
            <AltitudeMeters>1348.5999755859375</AltitudeMeters>
            <DistanceMeters>NAN</DistanceMeters>
          </Trackpoint>
          <Trackpoint>
            <Time>2019-10-04T15:34:33.000Z</Time>
            <Position>
              <LatitudeDegrees>42.9921233095228672027587890625</LatitudeDegrees>
              <LongitudeDegrees>-5.75705160386860370635986328125</LongitudeDegrees>
            </Position>
            <AltitudeMeters>1348.4000244140625</AltitudeMeters>
            <DistanceMeters>NAN</DistanceMeters>
          </Trackpoint>
          <Trackpoint>
            <Time>2019-10-04T15:34:39.000Z</Time>
            <Position>
              <LatitudeDegrees>42.99210838973522186279296875</LatitudeDegrees>
              <LongitudeDegrees>-5.7569792680442333221435546875</LongitudeDegrees>
            </Position>
            <AltitudeMeters>1348.4000244140625</AltitudeMeters>
            <DistanceMeters>NAN</DistanceMeters>
          </Trackpoint>
          <Trackpoint>
            <Time>2019-10-04T15:34:43.000Z</Time>
            <Position>
              <LatitudeDegrees>42.99207494594156742095947265625</LatitudeDegrees>
              <LongitudeDegrees>-5.75678941793739795684814453125</LongitudeDegrees>
            </Position>
            <AltitudeMeters>1347.4000244140625</AltitudeMeters>
            <DistanceMeters>NAN</DistanceMeters>
          </Trackpoint>
          <Trackpoint>
            <Time>2019-10-04T15:34:47.000Z</Time>
            <Position>
              <LatitudeDegrees>42.99201786518096923828125</LatitudeDegrees>
              <LongitudeDegrees>-5.75650996528565883636474609375</LongitudeDegrees>
            </Position>
            <AltitudeMeters>1346.199951171875</AltitudeMeters>
            <DistanceMeters>NAN</DistanceMeters>
          </Trackpoint>
          <Trackpoint>
            <Time>2019-10-04T15:34:48.000Z</Time>
            <Position>
              <LatitudeDegrees>42.9920031130313873291015625</LatitudeDegrees>
              <LongitudeDegrees>-5.75642916373908519744873046875</LongitudeDegrees>
            </Position>
            <AltitudeMeters>1345.800048828125</AltitudeMeters>
            <DistanceMeters>NAN</DistanceMeters>
          </Trackpoint>
          <Trackpoint>
            <Time>2019-10-04T15:34:50.000Z</Time>
            <Position>
              <LatitudeDegrees>42.99196782521903514862060546875</LatitudeDegrees>
              <LongitudeDegrees>-5.7562601007521152496337890625</LongitudeDegrees>
            </Position>
            <AltitudeMeters>1345.199951171875</AltitudeMeters>
            <DistanceMeters>NAN</DistanceMeters>
          </Trackpoint>
          <Trackpoint>
            <Time>2019-10-04T15:34:54.000Z</Time>
            <Position>
              <LatitudeDegrees>42.9918849281966686248779296875</LatitudeDegrees>
              <LongitudeDegrees>-5.75588308274745941162109375</LongitudeDegrees>
            </Position>
            <AltitudeMeters>1343.800048828125</AltitudeMeters>
            <DistanceMeters>NAN</DistanceMeters>
          </Trackpoint>
          <Trackpoint>
            <Time>2019-10-04T15:34:58.000Z</Time>
            <Position>
              <LatitudeDegrees>42.99179716967046260833740234375</LatitudeDegrees>
              <LongitudeDegrees>-5.7554567791521549224853515625</LongitudeDegrees>
            </Position>
            <AltitudeMeters>1344.199951171875</AltitudeMeters>
            <DistanceMeters>NAN</DistanceMeters>
          </Trackpoint>
          <Trackpoint>
            <Time>2019-10-04T15:35:01.000Z</Time>
            <Position>
              <LatitudeDegrees>42.99172592349350452423095703125</LatitudeDegrees>
              <LongitudeDegrees>-5.7551241852343082427978515625</LongitudeDegrees>
            </Position>
            <AltitudeMeters>1345</AltitudeMeters>
            <DistanceMeters>NAN</DistanceMeters>
          </Trackpoint>
          <Trackpoint>
            <Time>2019-10-04T15:35:04.000Z</Time>
            <Position>
              <LatitudeDegrees>42.9916542582213878631591796875</LatitudeDegrees>
              <LongitudeDegrees>-5.7547677867114543914794921875</LongitudeDegrees>
            </Position>
            <AltitudeMeters>1345.199951171875</AltitudeMeters>
            <DistanceMeters>NAN</DistanceMeters>
          </Trackpoint>
          <Trackpoint>
            <Time>2019-10-04T15:35:07.000Z</Time>
            <Position>
              <LatitudeDegrees>42.9915737919509410858154296875</LatitudeDegrees>
              <LongitudeDegrees>-5.75438817031681537628173828125</LongitudeDegrees>
            </Position>
            <AltitudeMeters>1345.800048828125</AltitudeMeters>
            <DistanceMeters>NAN</DistanceMeters>
          </Trackpoint>
          <Trackpoint>
            <Time>2019-10-04T15:35:09.000Z</Time>
            <Position>
              <LatitudeDegrees>42.99152098596096038818359375</LatitudeDegrees>
              <LongitudeDegrees>-5.7541240565478801727294921875</LongitudeDegrees>
            </Position>
            <AltitudeMeters>1346</AltitudeMeters>
            <DistanceMeters>NAN</DistanceMeters>
          </Trackpoint>
          <Trackpoint>
            <Time>2019-10-04T15:35:15.000Z</Time>
            <Position>
              <LatitudeDegrees>42.9913541860878467559814453125</LatitudeDegrees>
              <LongitudeDegrees>-5.7533073239028453826904296875</LongitudeDegrees>
            </Position>
            <AltitudeMeters>1346.5999755859375</AltitudeMeters>
            <DistanceMeters>NAN</DistanceMeters>
          </Trackpoint>
          <Trackpoint>
            <Time>2019-10-04T15:35:16.000Z</Time>
            <Position>
              <LatitudeDegrees>42.99132392741739749908447265625</LatitudeDegrees>
              <LongitudeDegrees>-5.7531641609966754913330078125</LongitudeDegrees>
            </Position>
            <AltitudeMeters>1347</AltitudeMeters>
            <DistanceMeters>NAN</DistanceMeters>
          </Trackpoint>
          <Trackpoint>
            <Time>2019-10-04T15:35:19.000Z</Time>
            <Position>
              <LatitudeDegrees>42.991234995424747467041015625</LatitudeDegrees>
              <LongitudeDegrees>-5.75273626483976840972900390625</LongitudeDegrees>
            </Position>
            <AltitudeMeters>1347</AltitudeMeters>
            <DistanceMeters>NAN</DistanceMeters>
          </Trackpoint>
          <Trackpoint>
            <Time>2019-10-04T15:35:23.000Z</Time>
            <Position>
              <LatitudeDegrees>42.99113332293927669525146484375</LatitudeDegrees>
              <LongitudeDegrees>-5.752173252403736114501953125</LongitudeDegrees>
            </Position>
            <AltitudeMeters>1348.199951171875</AltitudeMeters>
            <DistanceMeters>NAN</DistanceMeters>
          </Trackpoint>
          <Trackpoint>
            <Time>2019-10-04T15:35:24.000Z</Time>
            <Position>
              <LatitudeDegrees>42.99111639149487018585205078125</LatitudeDegrees>
              <LongitudeDegrees>-5.75202363543212413787841796875</LongitudeDegrees>
            </Position>
            <AltitudeMeters>1348</AltitudeMeters>
            <DistanceMeters>NAN</DistanceMeters>
          </Trackpoint>
          <Trackpoint>
            <Time>2019-10-04T15:35:28.000Z</Time>
            <Position>
              <LatitudeDegrees>42.99111605621874332427978515625</LatitudeDegrees>
              <LongitudeDegrees>-5.7514267601072788238525390625</LongitudeDegrees>
            </Position>
            <AltitudeMeters>1348.199951171875</AltitudeMeters>
            <DistanceMeters>NAN</DistanceMeters>
          </Trackpoint>
          <Trackpoint>
            <Time>2019-10-04T15:35:32.000Z</Time>
            <Position>
              <LatitudeDegrees>42.99123692326247692108154296875</LatitudeDegrees>
              <LongitudeDegrees>-5.7508249394595623016357421875</LongitudeDegrees>
            </Position>
            <AltitudeMeters>1348.800048828125</AltitudeMeters>
            <DistanceMeters>NAN</DistanceMeters>
          </Trackpoint>
          <Trackpoint>
            <Time>2019-10-04T15:35:36.000Z</Time>
            <Position>
              <LatitudeDegrees>42.99148888327181339263916015625</LatitudeDegrees>
              <LongitudeDegrees>-5.75027064420282840728759765625</LongitudeDegrees>
            </Position>
            <AltitudeMeters>1349.199951171875</AltitudeMeters>
            <DistanceMeters>NAN</DistanceMeters>
          </Trackpoint>
          <Trackpoint>
            <Time>2019-10-04T15:35:37.000Z</Time>
            <Position>
              <LatitudeDegrees>42.99156951718032360076904296875</LatitudeDegrees>
              <LongitudeDegrees>-5.75014927424490451812744140625</LongitudeDegrees>
            </Position>
            <AltitudeMeters>1349.4000244140625</AltitudeMeters>
            <DistanceMeters>NAN</DistanceMeters>
          </Trackpoint>
          <Trackpoint>
            <Time>2019-10-04T15:35:40.000Z</Time>
            <Position>
              <LatitudeDegrees>42.99185232259333133697509765625</LatitudeDegrees>
              <LongitudeDegrees>-5.74982891790568828582763671875</LongitudeDegrees>
            </Position>
            <AltitudeMeters>1349.5999755859375</AltitudeMeters>
            <DistanceMeters>NAN</DistanceMeters>
          </Trackpoint>
          <Trackpoint>
            <Time>2019-10-04T15:35:45.000Z</Time>
            <Position>
              <LatitudeDegrees>42.99237920902669429779052734375</LatitudeDegrees>
              <LongitudeDegrees>-5.749363638460636138916015625</LongitudeDegrees>
            </Position>
            <AltitudeMeters>1350</AltitudeMeters>
            <DistanceMeters>NAN</DistanceMeters>
          </Trackpoint>
          <Trackpoint>
            <Time>2019-10-04T15:35:46.000Z</Time>
            <Position>
              <LatitudeDegrees>42.99248649738729000091552734375</LatitudeDegrees>
              <LongitudeDegrees>-5.7492652349174022674560546875</LongitudeDegrees>
            </Position>
            <AltitudeMeters>1350</AltitudeMeters>
            <DistanceMeters>NAN</DistanceMeters>
          </Trackpoint>
          <Trackpoint>
            <Time>2019-10-04T15:35:48.000Z</Time>
            <Position>
              <LatitudeDegrees>42.99268313683569431304931640625</LatitudeDegrees>
              <LongitudeDegrees>-5.74905141256749629974365234375</LongitudeDegrees>
            </Position>
            <AltitudeMeters>1350.800048828125</AltitudeMeters>
            <DistanceMeters>NAN</DistanceMeters>
          </Trackpoint>
          <Trackpoint>
            <Time>2019-10-04T15:35:50.000Z</Time>
            <Position>
              <LatitudeDegrees>42.992865107953548431396484375</LatitudeDegrees>
              <LongitudeDegrees>-5.74880934320390224456787109375</LongitudeDegrees>
            </Position>
            <AltitudeMeters>1350.199951171875</AltitudeMeters>
            <DistanceMeters>NAN</DistanceMeters>
          </Trackpoint>
          <Trackpoint>
            <Time>2019-10-04T15:35:54.000Z</Time>
            <Position>
              <LatitudeDegrees>42.99316895194351673126220703125</LatitudeDegrees>
              <LongitudeDegrees>-5.74825848452746868133544921875</LongitudeDegrees>
            </Position>
            <AltitudeMeters>1351</AltitudeMeters>
            <DistanceMeters>NAN</DistanceMeters>
          </Trackpoint>
          <Trackpoint>
            <Time>2019-10-04T15:35:58.000Z</Time>
            <Position>
              <LatitudeDegrees>42.9933817684650421142578125</LatitudeDegrees>
              <LongitudeDegrees>-5.74763067997992038726806640625</LongitudeDegrees>
            </Position>
            <AltitudeMeters>1351.4000244140625</AltitudeMeters>
            <DistanceMeters>NAN</DistanceMeters>
          </Trackpoint>
          <Trackpoint>
            <Time>2019-10-04T15:36:00.000Z</Time>
            <Position>
              <LatitudeDegrees>42.9934503324329853057861328125</LatitudeDegrees>
              <LongitudeDegrees>-5.7473065517842769622802734375</LongitudeDegrees>
            </Position>
            <AltitudeMeters>1351.800048828125</AltitudeMeters>
            <DistanceMeters>NAN</DistanceMeters>
          </Trackpoint>
          <Trackpoint>
            <Time>2019-10-04T15:36:02.000Z</Time>
            <Position>
              <LatitudeDegrees>42.99349282868206501007080078125</LatitudeDegrees>
              <LongitudeDegrees>-5.746980495750904083251953125</LongitudeDegrees>
            </Position>
            <AltitudeMeters>1352</AltitudeMeters>
            <DistanceMeters>NAN</DistanceMeters>
          </Trackpoint>
          <Trackpoint>
            <Time>2019-10-04T15:36:06.000Z</Time>
            <Position>
              <LatitudeDegrees>42.99350573681294918060302734375</LatitudeDegrees>
              <LongitudeDegrees>-5.74634154327213764190673828125</LongitudeDegrees>
            </Position>
            <AltitudeMeters>1352</AltitudeMeters>
            <DistanceMeters>NAN</DistanceMeters>
          </Trackpoint>
          <Trackpoint>
            <Time>2019-10-04T15:36:11.000Z</Time>
            <Position>
              <LatitudeDegrees>42.99340968020260334014892578125</LatitudeDegrees>
              <LongitudeDegrees>-5.74557828716933727264404296875</LongitudeDegrees>
            </Position>
            <AltitudeMeters>1352.199951171875</AltitudeMeters>
            <DistanceMeters>NAN</DistanceMeters>
          </Trackpoint>
          <Trackpoint>
            <Time>2019-10-04T15:36:15.000Z</Time>
            <Position>
              <LatitudeDegrees>42.9932538606226444244384765625</LatitudeDegrees>
              <LongitudeDegrees>-5.745012760162353515625</LongitudeDegrees>
            </Position>
            <AltitudeMeters>1353</AltitudeMeters>
            <DistanceMeters>NAN</DistanceMeters>
          </Trackpoint>
          <Trackpoint>
            <Time>2019-10-04T15:36:16.000Z</Time>
            <Position>
              <LatitudeDegrees>42.99320298247039318084716796875</LatitudeDegrees>
              <LongitudeDegrees>-5.744880326092243194580078125</LongitudeDegrees>
            </Position>
            <AltitudeMeters>1353</AltitudeMeters>
            <DistanceMeters>NAN</DistanceMeters>
          </Trackpoint>
          <Trackpoint>
            <Time>2019-10-04T15:36:21.000Z</Time>
            <Position>
              <LatitudeDegrees>42.99289452843368053436279296875</LatitudeDegrees>
              <LongitudeDegrees>-5.74427423067390918731689453125</LongitudeDegrees>
            </Position>
            <AltitudeMeters>1353.199951171875</AltitudeMeters>
            <DistanceMeters>NAN</DistanceMeters>
          </Trackpoint>
          <Trackpoint>
            <Time>2019-10-04T15:36:23.000Z</Time>
            <Position>
              <LatitudeDegrees>42.9927382059395313262939453125</LatitudeDegrees>
              <LongitudeDegrees>-5.74407608248293399810791015625</LongitudeDegrees>
            </Position>
            <AltitudeMeters>1353.199951171875</AltitudeMeters>
            <DistanceMeters>NAN</DistanceMeters>
          </Trackpoint>
          <Trackpoint>
            <Time>2019-10-04T15:36:26.000Z</Time>
            <Position>
              <LatitudeDegrees>42.9924807138741016387939453125</LatitudeDegrees>
              <LongitudeDegrees>-5.74381188489496707916259765625</LongitudeDegrees>
            </Position>
            <AltitudeMeters>1353.199951171875</AltitudeMeters>
            <DistanceMeters>NAN</DistanceMeters>
          </Trackpoint>
          <Trackpoint>
            <Time>2019-10-04T15:36:31.000Z</Time>
            <Position>
              <LatitudeDegrees>42.99201744608581066131591796875</LatitudeDegrees>
              <LongitudeDegrees>-5.74338256381452083587646484375</LongitudeDegrees>
            </Position>
            <AltitudeMeters>1353.4000244140625</AltitudeMeters>
            <DistanceMeters>NAN</DistanceMeters>
          </Trackpoint>
          <Trackpoint>
            <Time>2019-10-04T15:36:34.000Z</Time>
            <Position>
              <LatitudeDegrees>42.9917290247976779937744140625</LatitudeDegrees>
              <LongitudeDegrees>-5.74311383999884128570556640625</LongitudeDegrees>
            </Position>
            <AltitudeMeters>1353.5999755859375</AltitudeMeters>
            <DistanceMeters>NAN</DistanceMeters>
          </Trackpoint>
          <Trackpoint>
            <Time>2019-10-04T15:36:39.000Z</Time>
            <Position>
              <LatitudeDegrees>42.99123558215796947479248046875</LatitudeDegrees>
              <LongitudeDegrees>-5.742655098438262939453125</LongitudeDegrees>
            </Position>
            <AltitudeMeters>1353.5999755859375</AltitudeMeters>
            <DistanceMeters>NAN</DistanceMeters>
          </Trackpoint>
          <Trackpoint>
            <Time>2019-10-04T15:36:41.000Z</Time>
            <Position>
              <LatitudeDegrees>42.99103341065347194671630859375</LatitudeDegrees>
              <LongitudeDegrees>-5.74246399104595184326171875</LongitudeDegrees>
            </Position>
            <AltitudeMeters>1353.5999755859375</AltitudeMeters>
            <DistanceMeters>NAN</DistanceMeters>
          </Trackpoint>
          <Trackpoint>
            <Time>2019-10-04T15:36:42.000Z</Time>
            <Position>
              <LatitudeDegrees>42.9909310676157474517822265625</LatitudeDegrees>
              <LongitudeDegrees>-5.74236768297851085662841796875</LongitudeDegrees>
            </Position>
            <AltitudeMeters>1353.4000244140625</AltitudeMeters>
            <DistanceMeters>NAN</DistanceMeters>
          </Trackpoint>
          <Trackpoint>
            <Time>2019-10-04T15:36:47.000Z</Time>
            <Position>
              <LatitudeDegrees>42.99040527082979679107666015625</LatitudeDegrees>
              <LongitudeDegrees>-5.7418744079768657684326171875</LongitudeDegrees>
            </Position>
            <AltitudeMeters>1353.800048828125</AltitudeMeters>
            <DistanceMeters>NAN</DistanceMeters>
          </Trackpoint>
          <Trackpoint>
            <Time>2019-10-04T15:36:50.000Z</Time>
            <Position>
              <LatitudeDegrees>42.99009681679308414459228515625</LatitudeDegrees>
              <LongitudeDegrees>-5.7415458373725414276123046875</LongitudeDegrees>
            </Position>
            <AltitudeMeters>1353.5999755859375</AltitudeMeters>
            <DistanceMeters>NAN</DistanceMeters>
          </Trackpoint>
          <Trackpoint>
            <Time>2019-10-04T15:36:54.000Z</Time>
            <Position>
              <LatitudeDegrees>42.98975148238241672515869140625</LatitudeDegrees>
              <LongitudeDegrees>-5.740995816886425018310546875</LongitudeDegrees>
            </Position>
            <AltitudeMeters>1353.800048828125</AltitudeMeters>
            <DistanceMeters>NAN</DistanceMeters>
          </Trackpoint>
          <Trackpoint>
            <Time>2019-10-04T15:36:57.000Z</Time>
            <Position>
              <LatitudeDegrees>42.98958200030028820037841796875</LatitudeDegrees>
              <LongitudeDegrees>-5.7404945790767669677734375</LongitudeDegrees>
            </Position>
            <AltitudeMeters>1353.800048828125</AltitudeMeters>
            <DistanceMeters>NAN</DistanceMeters>
          </Trackpoint>
          <Trackpoint>
            <Time>2019-10-04T15:37:00.000Z</Time>
            <Position>
              <LatitudeDegrees>42.9894934035837650299072265625</LatitudeDegrees>
              <LongitudeDegrees>-5.73997666127979755401611328125</LongitudeDegrees>
            </Position>
            <AltitudeMeters>1353</AltitudeMeters>
            <DistanceMeters>NAN</DistanceMeters>
          </Trackpoint>
          <Trackpoint>
            <Time>2019-10-04T15:37:01.000Z</Time>
            <Position>
              <LatitudeDegrees>42.989477813243865966796875</LatitudeDegrees>
              <LongitudeDegrees>-5.7398081012070178985595703125</LongitudeDegrees>
            </Position>
            <AltitudeMeters>1353.199951171875</AltitudeMeters>
            <DistanceMeters>NAN</DistanceMeters>
          </Trackpoint>
          <Trackpoint>
            <Time>2019-10-04T15:37:06.000Z</Time>
            <Position>
              <LatitudeDegrees>42.9894229955971240997314453125</LatitudeDegrees>
              <LongitudeDegrees>-5.73898156173527240753173828125</LongitudeDegrees>
            </Position>
            <AltitudeMeters>1353.199951171875</AltitudeMeters>
            <DistanceMeters>NAN</DistanceMeters>
          </Trackpoint>
          <Trackpoint>
            <Time>2019-10-04T15:37:10.000Z</Time>
            <Position>
              <LatitudeDegrees>42.9893837682902812957763671875</LatitudeDegrees>
              <LongitudeDegrees>-5.73834872804582118988037109375</LongitudeDegrees>
            </Position>
            <AltitudeMeters>1353.5999755859375</AltitudeMeters>
            <DistanceMeters>NAN</DistanceMeters>
          </Trackpoint>
          <Trackpoint>
            <Time>2019-10-04T15:37:11.000Z</Time>
            <Position>
              <LatitudeDegrees>42.98937513493001461029052734375</LatitudeDegrees>
              <LongitudeDegrees>-5.738195590674877166748046875</LongitudeDegrees>
            </Position>
            <AltitudeMeters>1353.800048828125</AltitudeMeters>
            <DistanceMeters>NAN</DistanceMeters>
          </Trackpoint>
          <Trackpoint>
            <Time>2019-10-04T15:37:12.000Z</Time>
            <Position>
              <LatitudeDegrees>42.98936448991298675537109375</LatitudeDegrees>
              <LongitudeDegrees>-5.73804547078907489776611328125</LongitudeDegrees>
            </Position>
            <AltitudeMeters>1353.800048828125</AltitudeMeters>
            <DistanceMeters>NAN</DistanceMeters>
          </Trackpoint>
          <Trackpoint>
            <Time>2019-10-04T15:37:13.000Z</Time>
            <Position>
              <LatitudeDegrees>42.98935501836240291595458984375</LatitudeDegrees>
              <LongitudeDegrees>-5.737896524369716644287109375</LongitudeDegrees>
            </Position>
            <AltitudeMeters>1354</AltitudeMeters>
            <DistanceMeters>NAN</DistanceMeters>
          </Trackpoint>
          <Trackpoint>
            <Time>2019-10-04T15:37:16.000Z</Time>
            <Position>
              <LatitudeDegrees>42.98932836391031742095947265625</LatitudeDegrees>
              <LongitudeDegrees>-5.7374574802815914154052734375</LongitudeDegrees>
            </Position>
            <AltitudeMeters>1354.199951171875</AltitudeMeters>
            <DistanceMeters>NAN</DistanceMeters>
          </Trackpoint>
          <Trackpoint>
            <Time>2019-10-04T15:37:18.000Z</Time>
            <Position>
              <LatitudeDegrees>42.98931344412267208099365234375</LatitudeDegrees>
              <LongitudeDegrees>-5.737172327935695648193359375</LongitudeDegrees>
            </Position>
            <AltitudeMeters>1354.199951171875</AltitudeMeters>
            <DistanceMeters>NAN</DistanceMeters>
          </Trackpoint>
          <Trackpoint>
            <Time>2019-10-04T15:37:20.000Z</Time>
            <Position>
              <LatitudeDegrees>42.98929718323051929473876953125</LatitudeDegrees>
              <LongitudeDegrees>-5.73689346201717853546142578125</LongitudeDegrees>
            </Position>
            <AltitudeMeters>1354.4000244140625</AltitudeMeters>
            <DistanceMeters>NAN</DistanceMeters>
          </Trackpoint>
          <Trackpoint>
            <Time>2019-10-04T15:37:22.000Z</Time>
            <Position>
              <LatitudeDegrees>42.98928176052868366241455078125</LatitudeDegrees>
              <LongitudeDegrees>-5.73662188835442066192626953125</LongitudeDegrees>
            </Position>
            <AltitudeMeters>1354.4000244140625</AltitudeMeters>
            <DistanceMeters>NAN</DistanceMeters>
          </Trackpoint>
          <Trackpoint>
            <Time>2019-10-04T15:37:24.000Z</Time>
            <Position>
              <LatitudeDegrees>42.9892677627503871917724609375</LatitudeDegrees>
              <LongitudeDegrees>-5.736354254186153411865234375</LongitudeDegrees>
            </Position>
            <AltitudeMeters>1354.5999755859375</AltitudeMeters>
            <DistanceMeters>NAN</DistanceMeters>
          </Trackpoint>
          <Trackpoint>
            <Time>2019-10-04T15:37:27.000Z</Time>
            <Position>
              <LatitudeDegrees>42.9892439581453800201416015625</LatitudeDegrees>
              <LongitudeDegrees>-5.73596407659351825714111328125</LongitudeDegrees>
            </Position>
            <AltitudeMeters>1354.4000244140625</AltitudeMeters>
            <DistanceMeters>NAN</DistanceMeters>
          </Trackpoint>
          <Trackpoint>
            <Time>2019-10-04T15:37:30.000Z</Time>
            <Position>
              <LatitudeDegrees>42.98921763896942138671875</LatitudeDegrees>
              <LongitudeDegrees>-5.7355782575905323028564453125</LongitudeDegrees>
            </Position>
            <AltitudeMeters>1355.199951171875</AltitudeMeters>
            <DistanceMeters>NAN</DistanceMeters>
          </Trackpoint>
          <Trackpoint>
            <Time>2019-10-04T15:37:35.000Z</Time>
            <Position>
              <LatitudeDegrees>42.9891492426395416259765625</LatitudeDegrees>
              <LongitudeDegrees>-5.73493997566401958465576171875</LongitudeDegrees>
            </Position>
            <AltitudeMeters>1355</AltitudeMeters>
            <DistanceMeters>NAN</DistanceMeters>
          </Trackpoint>
          <Trackpoint>
            <Time>2019-10-04T15:37:41.000Z</Time>
            <Position>
              <LatitudeDegrees>42.9889629967510700225830078125</LatitudeDegrees>
              <LongitudeDegrees>-5.73416800238192081451416015625</LongitudeDegrees>
            </Position>
            <AltitudeMeters>1355.4000244140625</AltitudeMeters>
            <DistanceMeters>NAN</DistanceMeters>
          </Trackpoint>
          <Trackpoint>
            <Time>2019-10-04T15:37:46.000Z</Time>
            <Position>
              <LatitudeDegrees>42.98870122991502285003662109375</LatitudeDegrees>
              <LongitudeDegrees>-5.73354656808078289031982421875</LongitudeDegrees>
            </Position>
            <AltitudeMeters>1355.4000244140625</AltitudeMeters>
            <DistanceMeters>NAN</DistanceMeters>
          </Trackpoint>
          <Trackpoint>
            <Time>2019-10-04T15:37:51.000Z</Time>
            <Position>
              <LatitudeDegrees>42.9883246310055255889892578125</LatitudeDegrees>
              <LongitudeDegrees>-5.732972659170627593994140625</LongitudeDegrees>
            </Position>
            <AltitudeMeters>1355.199951171875</AltitudeMeters>
            <DistanceMeters>NAN</DistanceMeters>
          </Trackpoint>
          <Trackpoint>
            <Time>2019-10-04T15:37:56.000Z</Time>
            <Position>
              <LatitudeDegrees>42.9878518916666507720947265625</LatitudeDegrees>
              <LongitudeDegrees>-5.73245373554527759552001953125</LongitudeDegrees>
            </Position>
            <AltitudeMeters>1355</AltitudeMeters>
            <DistanceMeters>NAN</DistanceMeters>
          </Trackpoint>
          <Trackpoint>
            <Time>2019-10-04T15:37:57.000Z</Time>
            <Position>
              <LatitudeDegrees>42.9877533204853534698486328125</LatitudeDegrees>
              <LongitudeDegrees>-5.73234938085079193115234375</LongitudeDegrees>
            </Position>
            <AltitudeMeters>1354.800048828125</AltitudeMeters>
            <DistanceMeters>NAN</DistanceMeters>
          </Trackpoint>
          <Trackpoint>
            <Time>2019-10-04T15:38:02.000Z</Time>
            <Position>
              <LatitudeDegrees>42.98726390115916728973388671875</LatitudeDegrees>
              <LongitudeDegrees>-5.7317963428795337677001953125</LongitudeDegrees>
            </Position>
            <AltitudeMeters>1354.5999755859375</AltitudeMeters>
            <DistanceMeters>NAN</DistanceMeters>
          </Trackpoint>
          <Trackpoint>
            <Time>2019-10-04T15:38:04.000Z</Time>
            <Position>
              <LatitudeDegrees>42.9870810918509960174560546875</LatitudeDegrees>
              <LongitudeDegrees>-5.73154329322278499603271484375</LongitudeDegrees>
            </Position>
            <AltitudeMeters>1354.4000244140625</AltitudeMeters>
            <DistanceMeters>NAN</DistanceMeters>
          </Trackpoint>
          <Trackpoint>
            <Time>2019-10-04T15:38:08.000Z</Time>
            <Position>
              <LatitudeDegrees>42.98674137331545352935791015625</LatitudeDegrees>
              <LongitudeDegrees>-5.7309960387647151947021484375</LongitudeDegrees>
            </Position>
            <AltitudeMeters>1354.4000244140625</AltitudeMeters>
            <DistanceMeters>NAN</DistanceMeters>
          </Trackpoint>
          <Trackpoint>
            <Time>2019-10-04T15:38:10.000Z</Time>
            <Position>
              <LatitudeDegrees>42.98658974468708038330078125</LatitudeDegrees>
              <LongitudeDegrees>-5.73069822974503040313720703125</LongitudeDegrees>
            </Position>
            <AltitudeMeters>1354.4000244140625</AltitudeMeters>
            <DistanceMeters>NAN</DistanceMeters>
          </Trackpoint>
          <Trackpoint>
            <Time>2019-10-04T15:38:13.000Z</Time>
            <Position>
              <LatitudeDegrees>42.986368797719478607177734375</LatitudeDegrees>
              <LongitudeDegrees>-5.73023580014705657958984375</LongitudeDegrees>
            </Position>
            <AltitudeMeters>1354</AltitudeMeters>
            <DistanceMeters>NAN</DistanceMeters>
          </Trackpoint>
          <Trackpoint>
            <Time>2019-10-04T15:38:17.000Z</Time>
            <Position>
              <LatitudeDegrees>42.986071072518825531005859375</LatitudeDegrees>
              <LongitudeDegrees>-5.729611180722713470458984375</LongitudeDegrees>
            </Position>
            <AltitudeMeters>1354.199951171875</AltitudeMeters>
            <DistanceMeters>NAN</DistanceMeters>
          </Trackpoint>
          <Trackpoint>
            <Time>2019-10-04T15:38:21.000Z</Time>
            <Position>
              <LatitudeDegrees>42.98577091656625270843505859375</LatitudeDegrees>
              <LongitudeDegrees>-5.7289739884436130523681640625</LongitudeDegrees>
            </Position>
            <AltitudeMeters>1354.5999755859375</AltitudeMeters>
            <DistanceMeters>NAN</DistanceMeters>
          </Trackpoint>
          <Trackpoint>
            <Time>2019-10-04T15:38:25.000Z</Time>
            <Position>
              <LatitudeDegrees>42.98547620885074138641357421875</LatitudeDegrees>
              <LongitudeDegrees>-5.72835833765566349029541015625</LongitudeDegrees>
            </Position>
            <AltitudeMeters>1354.4000244140625</AltitudeMeters>
            <DistanceMeters>NAN</DistanceMeters>
          </Trackpoint>
          <Trackpoint>
            <Time>2019-10-04T15:38:29.000Z</Time>
            <Position>
              <LatitudeDegrees>42.9851847700774669647216796875</LatitudeDegrees>
              <LongitudeDegrees>-5.72776355780661106109619140625</LongitudeDegrees>
            </Position>
            <AltitudeMeters>1354.199951171875</AltitudeMeters>
            <DistanceMeters>NAN</DistanceMeters>
          </Trackpoint>
          <Trackpoint>
            <Time>2019-10-04T15:38:34.000Z</Time>
            <Position>
              <LatitudeDegrees>42.9848106019198894500732421875</LatitudeDegrees>
              <LongitudeDegrees>-5.72703433223068714141845703125</LongitudeDegrees>
            </Position>
            <AltitudeMeters>1354.4000244140625</AltitudeMeters>
            <DistanceMeters>NAN</DistanceMeters>
          </Trackpoint>
          <Trackpoint>
            <Time>2019-10-04T15:38:39.000Z</Time>
            <Position>
              <LatitudeDegrees>42.98443819396197795867919921875</LatitudeDegrees>
              <LongitudeDegrees>-5.7263165898621082305908203125</LongitudeDegrees>
            </Position>
            <AltitudeMeters>1354.5999755859375</AltitudeMeters>
            <DistanceMeters>NAN</DistanceMeters>
          </Trackpoint>
          <Trackpoint>
            <Time>2019-10-04T15:38:44.000Z</Time>
            <Position>
              <LatitudeDegrees>42.9840723238885402679443359375</LatitudeDegrees>
              <LongitudeDegrees>-5.72561728768050670623779296875</LongitudeDegrees>
            </Position>
            <AltitudeMeters>1354.5999755859375</AltitudeMeters>
            <DistanceMeters>NAN</DistanceMeters>
          </Trackpoint>
          <Trackpoint>
            <Time>2019-10-04T15:38:48.000Z</Time>
            <Position>
              <LatitudeDegrees>42.98378071747720241546630859375</LatitudeDegrees>
              <LongitudeDegrees>-5.7250656746327877044677734375</LongitudeDegrees>
            </Position>
            <AltitudeMeters>1354.5999755859375</AltitudeMeters>
            <DistanceMeters>NAN</DistanceMeters>
          </Trackpoint>
          <Trackpoint>
            <Time>2019-10-04T15:38:53.000Z</Time>
            <Position>
              <LatitudeDegrees>42.98341677524149417877197265625</LatitudeDegrees>
              <LongitudeDegrees>-5.72438095696270465850830078125</LongitudeDegrees>
            </Position>
            <AltitudeMeters>1354.800048828125</AltitudeMeters>
            <DistanceMeters>NAN</DistanceMeters>
          </Trackpoint>
          <Trackpoint>
            <Time>2019-10-04T15:38:58.000Z</Time>
            <Position>
              <LatitudeDegrees>42.983057610690593719482421875</LatitudeDegrees>
              <LongitudeDegrees>-5.72370730340480804443359375</LongitudeDegrees>
            </Position>
            <AltitudeMeters>1354.5999755859375</AltitudeMeters>
            <DistanceMeters>NAN</DistanceMeters>
          </Trackpoint>
          <Trackpoint>
            <Time>2019-10-04T15:38:59.000Z</Time>
            <Position>
              <LatitudeDegrees>42.98298762179911136627197265625</LatitudeDegrees>
              <LongitudeDegrees>-5.7235743664205074310302734375</LongitudeDegrees>
            </Position>
            <AltitudeMeters>1354.199951171875</AltitudeMeters>
            <DistanceMeters>NAN</DistanceMeters>
          </Trackpoint>
          <Trackpoint>
            <Time>2019-10-04T15:39:04.000Z</Time>
            <Position>
              <LatitudeDegrees>42.9826406948268413543701171875</LatitudeDegrees>
              <LongitudeDegrees>-5.72291244752705097198486328125</LongitudeDegrees>
            </Position>
            <AltitudeMeters>1354.199951171875</AltitudeMeters>
            <DistanceMeters>NAN</DistanceMeters>
          </Trackpoint>
          <Trackpoint>
            <Time>2019-10-04T15:39:08.000Z</Time>
            <Position>
              <LatitudeDegrees>42.98239468596875667572021484375</LatitudeDegrees>
              <LongitudeDegrees>-5.72235907427966594696044921875</LongitudeDegrees>
            </Position>
            <AltitudeMeters>1354</AltitudeMeters>
            <DistanceMeters>NAN</DistanceMeters>
          </Trackpoint>
          <Trackpoint>
            <Time>2019-10-04T15:39:12.000Z</Time>
            <Position>
              <LatitudeDegrees>42.9822494275867938995361328125</LatitudeDegrees>
              <LongitudeDegrees>-5.7217588461935520172119140625</LongitudeDegrees>
            </Position>
            <AltitudeMeters>1353.4000244140625</AltitudeMeters>
            <DistanceMeters>NAN</DistanceMeters>
          </Trackpoint>
          <Trackpoint>
            <Time>2019-10-04T15:39:16.000Z</Time>
            <Position>
              <LatitudeDegrees>42.98222788609564304351806640625</LatitudeDegrees>
              <LongitudeDegrees>-5.72113774716854095458984375</LongitudeDegrees>
            </Position>
            <AltitudeMeters>1353.4000244140625</AltitudeMeters>
            <DistanceMeters>NAN</DistanceMeters>
          </Trackpoint>
          <Trackpoint>
            <Time>2019-10-04T15:39:20.000Z</Time>
            <Position>
              <LatitudeDegrees>42.9823352582752704620361328125</LatitudeDegrees>
              <LongitudeDegrees>-5.720549337565898895263671875</LongitudeDegrees>
            </Position>
            <AltitudeMeters>1353.4000244140625</AltitudeMeters>
            <DistanceMeters>NAN</DistanceMeters>
          </Trackpoint>
          <Trackpoint>
            <Time>2019-10-04T15:39:21.000Z</Time>
            <Position>
              <LatitudeDegrees>42.98237808980047702789306640625</LatitudeDegrees>
              <LongitudeDegrees>-5.72040927596390247344970703125</LongitudeDegrees>
            </Position>
            <AltitudeMeters>1353</AltitudeMeters>
            <DistanceMeters>NAN</DistanceMeters>
          </Trackpoint>
          <Trackpoint>
            <Time>2019-10-04T15:39:25.000Z</Time>
            <Position>
              <LatitudeDegrees>42.9825843684375286102294921875</LatitudeDegrees>
              <LongitudeDegrees>-5.71987836621701717376708984375</LongitudeDegrees>
            </Position>
            <AltitudeMeters>1353</AltitudeMeters>
            <DistanceMeters>NAN</DistanceMeters>
          </Trackpoint>
          <Trackpoint>
            <Time>2019-10-04T15:39:28.000Z</Time>
            <Position>
              <LatitudeDegrees>42.9827513359487056732177734375</LatitudeDegrees>
              <LongitudeDegrees>-5.7194977439939975738525390625</LongitudeDegrees>
            </Position>
            <AltitudeMeters>1352</AltitudeMeters>
            <DistanceMeters>NAN</DistanceMeters>
          </Trackpoint>
          <Trackpoint>
            <Time>2019-10-04T15:39:31.000Z</Time>
            <Position>
              <LatitudeDegrees>42.982921488583087921142578125</LatitudeDegrees>
              <LongitudeDegrees>-5.7191316224634647369384765625</LongitudeDegrees>
            </Position>
            <AltitudeMeters>1350.800048828125</AltitudeMeters>
            <DistanceMeters>NAN</DistanceMeters>
          </Trackpoint>
          <Trackpoint>
            <Time>2019-10-04T15:39:32.000Z</Time>
            <Position>
              <LatitudeDegrees>42.98297806642949581146240234375</LatitudeDegrees>
              <LongitudeDegrees>-5.71901075541973114013671875</LongitudeDegrees>
            </Position>
            <AltitudeMeters>1350.800048828125</AltitudeMeters>
            <DistanceMeters>NAN</DistanceMeters>
          </Trackpoint>
          <Trackpoint>
            <Time>2019-10-04T15:39:35.000Z</Time>
            <Position>
              <LatitudeDegrees>42.98315006308257579803466796875</LatitudeDegrees>
              <LongitudeDegrees>-5.71865209378302097320556640625</LongitudeDegrees>
            </Position>
            <AltitudeMeters>1349.5999755859375</AltitudeMeters>
            <DistanceMeters>NAN</DistanceMeters>
          </Trackpoint>
          <Trackpoint>
            <Time>2019-10-04T15:39:40.000Z</Time>
            <Position>
              <LatitudeDegrees>42.983429431915283203125</LatitudeDegrees>
              <LongitudeDegrees>-5.718044824898242950439453125</LongitudeDegrees>
            </Position>
            <AltitudeMeters>1348.5999755859375</AltitudeMeters>
            <DistanceMeters>NAN</DistanceMeters>
          </Trackpoint>
          <Trackpoint>
            <Time>2019-10-04T15:39:41.000Z</Time>
            <Position>
              <LatitudeDegrees>42.98348383046686649322509765625</LatitudeDegrees>
              <LongitudeDegrees>-5.71792437694966793060302734375</LongitudeDegrees>
            </Position>
            <AltitudeMeters>1348</AltitudeMeters>
            <DistanceMeters>NAN</DistanceMeters>
          </Trackpoint>
          <Trackpoint>
            <Time>2019-10-04T15:39:43.000Z</Time>
            <Position>
              <LatitudeDegrees>42.98359371721744537353515625</LatitudeDegrees>
              <LongitudeDegrees>-5.71768767200410366058349609375</LongitudeDegrees>
            </Position>
            <AltitudeMeters>1347.4000244140625</AltitudeMeters>
            <DistanceMeters>NAN</DistanceMeters>
          </Trackpoint>
          <Trackpoint>
            <Time>2019-10-04T15:39:49.000Z</Time>
            <Position>
              <LatitudeDegrees>42.98389035277068614959716796875</LatitudeDegrees>
              <LongitudeDegrees>-5.7169848494231700897216796875</LongitudeDegrees>
            </Position>
            <AltitudeMeters>1347.4000244140625</AltitudeMeters>
            <DistanceMeters>NAN</DistanceMeters>
          </Trackpoint>
          <Trackpoint>
            <Time>2019-10-04T15:39:55.000Z</Time>
            <Position>
              <LatitudeDegrees>42.98413929529488086700439453125</LatitudeDegrees>
              <LongitudeDegrees>-5.716221593320369720458984375</LongitudeDegrees>
            </Position>
            <AltitudeMeters>1347.199951171875</AltitudeMeters>
            <DistanceMeters>NAN</DistanceMeters>
          </Trackpoint>
          <Trackpoint>
            <Time>2019-10-04T15:39:56.000Z</Time>
            <Position>
              <LatitudeDegrees>42.9841772653162479400634765625</LatitudeDegrees>
              <LongitudeDegrees>-5.7160893268883228302001953125</LongitudeDegrees>
            </Position>
            <AltitudeMeters>1347.199951171875</AltitudeMeters>
            <DistanceMeters>NAN</DistanceMeters>
          </Trackpoint>
          <Trackpoint>
            <Time>2019-10-04T15:40:02.000Z</Time>
            <Position>
              <LatitudeDegrees>42.98437918536365032196044921875</LatitudeDegrees>
              <LongitudeDegrees>-5.7153044454753398895263671875</LongitudeDegrees>
            </Position>
            <AltitudeMeters>1347.199951171875</AltitudeMeters>
            <DistanceMeters>NAN</DistanceMeters>
          </Trackpoint>
          <Trackpoint>
            <Time>2019-10-04T15:40:03.000Z</Time>
            <Position>
              <LatitudeDegrees>42.98440466634929180145263671875</LatitudeDegrees>
              <LongitudeDegrees>-5.71517360396683216094970703125</LongitudeDegrees>
            </Position>
            <AltitudeMeters>1347.4000244140625</AltitudeMeters>
            <DistanceMeters>NAN</DistanceMeters>
          </Trackpoint>
          <Trackpoint>
            <Time>2019-10-04T15:40:08.000Z</Time>
            <Position>
              <LatitudeDegrees>42.9844780080020427703857421875</LatitudeDegrees>
              <LongitudeDegrees>-5.714518390595912933349609375</LongitudeDegrees>
            </Position>
            <AltitudeMeters>1347</AltitudeMeters>
            <DistanceMeters>NAN</DistanceMeters>
          </Trackpoint>
          <Trackpoint>
            <Time>2019-10-04T15:40:14.000Z</Time>
            <Position>
              <LatitudeDegrees>42.9844994656741619110107421875</LatitudeDegrees>
              <LongitudeDegrees>-5.71374247781932353973388671875</LongitudeDegrees>
            </Position>
            <AltitudeMeters>1347</AltitudeMeters>
            <DistanceMeters>NAN</DistanceMeters>
          </Trackpoint>
          <Trackpoint>
            <Time>2019-10-04T15:40:18.000Z</Time>
            <Position>
              <LatitudeDegrees>42.98451547510921955108642578125</LatitudeDegrees>
              <LongitudeDegrees>-5.7132351212203502655029296875</LongitudeDegrees>
            </Position>
            <AltitudeMeters>1347.199951171875</AltitudeMeters>
            <DistanceMeters>NAN</DistanceMeters>
          </Trackpoint>
          <Trackpoint>
            <Time>2019-10-04T15:40:24.000Z</Time>
            <Position>
              <LatitudeDegrees>42.9845400340855121612548828125</LatitudeDegrees>
              <LongitudeDegrees>-5.7124789059162139892578125</LongitudeDegrees>
            </Position>
            <AltitudeMeters>1346.5999755859375</AltitudeMeters>
            <DistanceMeters>NAN</DistanceMeters>
          </Trackpoint>
          <Trackpoint>
            <Time>2019-10-04T15:40:27.000Z</Time>
            <Position>
              <LatitudeDegrees>42.98455260694026947021484375</LatitudeDegrees>
              <LongitudeDegrees>-5.7121022231876850128173828125</LongitudeDegrees>
            </Position>
            <AltitudeMeters>1347.199951171875</AltitudeMeters>
            <DistanceMeters>NAN</DistanceMeters>
          </Trackpoint>
          <Trackpoint>
            <Time>2019-10-04T15:40:33.000Z</Time>
            <Position>
              <LatitudeDegrees>42.98456040211021900177001953125</LatitudeDegrees>
              <LongitudeDegrees>-5.7113416492938995361328125</LongitudeDegrees>
            </Position>
            <AltitudeMeters>1346.800048828125</AltitudeMeters>
            <DistanceMeters>NAN</DistanceMeters>
          </Trackpoint>
          <Trackpoint>
            <Time>2019-10-04T15:40:36.000Z</Time>
            <Position>
              <LatitudeDegrees>42.98455352894961833953857421875</LatitudeDegrees>
              <LongitudeDegrees>-5.71095733903348445892333984375</LongitudeDegrees>
            </Position>
            <AltitudeMeters>1346.800048828125</AltitudeMeters>
            <DistanceMeters>NAN</DistanceMeters>
          </Trackpoint>
          <Trackpoint>
            <Time>2019-10-04T15:40:42.000Z</Time>
            <Position>
              <LatitudeDegrees>42.98452670685946941375732421875</LatitudeDegrees>
              <LongitudeDegrees>-5.71018251590430736541748046875</LongitudeDegrees>
            </Position>
            <AltitudeMeters>1346.800048828125</AltitudeMeters>
            <DistanceMeters>NAN</DistanceMeters>
          </Trackpoint>
          <Trackpoint>
            <Time>2019-10-04T15:40:46.000Z</Time>
            <Position>
              <LatitudeDegrees>42.98450432717800140380859375</LatitudeDegrees>
              <LongitudeDegrees>-5.709658563137054443359375</LongitudeDegrees>
            </Position>
            <AltitudeMeters>1346.4000244140625</AltitudeMeters>
            <DistanceMeters>NAN</DistanceMeters>
          </Trackpoint>
          <Trackpoint>
            <Time>2019-10-04T15:40:47.000Z</Time>
            <Position>
              <LatitudeDegrees>42.98449938185513019561767578125</LatitudeDegrees>
              <LongitudeDegrees>-5.7095262967050075531005859375</LongitudeDegrees>
            </Position>
            <AltitudeMeters>1346.199951171875</AltitudeMeters>
            <DistanceMeters>NAN</DistanceMeters>
          </Trackpoint>
          <Trackpoint>
            <Time>2019-10-04T15:40:53.000Z</Time>
            <Position>
              <LatitudeDegrees>42.98447121866047382354736328125</LatitudeDegrees>
              <LongitudeDegrees>-5.70871920324862003326416015625</LongitudeDegrees>
            </Position>
            <AltitudeMeters>1345.800048828125</AltitudeMeters>
            <DistanceMeters>NAN</DistanceMeters>
          </Trackpoint>
          <Trackpoint>
            <Time>2019-10-04T15:40:58.000Z</Time>
            <Position>
              <LatitudeDegrees>42.98445068299770355224609375</LatitudeDegrees>
              <LongitudeDegrees>-5.70804244838654994964599609375</LongitudeDegrees>
            </Position>
            <AltitudeMeters>1346</AltitudeMeters>
            <DistanceMeters>NAN</DistanceMeters>
          </Trackpoint>
          <Trackpoint>
            <Time>2019-10-04T15:41:04.000Z</Time>
            <Position>
              <LatitudeDegrees>42.98442327417433261871337890625</LatitudeDegrees>
              <LongitudeDegrees>-5.70723057724535465240478515625</LongitudeDegrees>
            </Position>
            <AltitudeMeters>1346.199951171875</AltitudeMeters>
            <DistanceMeters>NAN</DistanceMeters>
          </Trackpoint>
          <Trackpoint>
            <Time>2019-10-04T15:41:07.000Z</Time>
            <Position>
              <LatitudeDegrees>42.98441455699503421783447265625</LatitudeDegrees>
              <LongitudeDegrees>-5.706827826797962188720703125</LongitudeDegrees>
            </Position>
            <AltitudeMeters>1346</AltitudeMeters>
            <DistanceMeters>NAN</DistanceMeters>
          </Trackpoint>
          <Trackpoint>
            <Time>2019-10-04T15:41:13.000Z</Time>
            <Position>
              <LatitudeDegrees>42.98444590531289577484130859375</LatitudeDegrees>
              <LongitudeDegrees>-5.70601880550384521484375</LongitudeDegrees>
            </Position>
            <AltitudeMeters>1345.199951171875</AltitudeMeters>
            <DistanceMeters>NAN</DistanceMeters>
          </Trackpoint>
          <Trackpoint>
            <Time>2019-10-04T15:41:14.000Z</Time>
            <Position>
              <LatitudeDegrees>42.98446183092892169952392578125</LatitudeDegrees>
              <LongitudeDegrees>-5.7058841921389102935791015625</LongitudeDegrees>
            </Position>
            <AltitudeMeters>1345.199951171875</AltitudeMeters>
            <DistanceMeters>NAN</DistanceMeters>
          </Trackpoint>
          <Trackpoint>
            <Time>2019-10-04T15:41:20.000Z</Time>
            <Position>
              <LatitudeDegrees>42.984552942216396331787109375</LatitudeDegrees>
              <LongitudeDegrees>-5.70506636984646320343017578125</LongitudeDegrees>
            </Position>
            <AltitudeMeters>1345</AltitudeMeters>
            <DistanceMeters>NAN</DistanceMeters>
          </Trackpoint>
          <Trackpoint>
            <Time>2019-10-04T15:41:21.000Z</Time>
            <Position>
              <LatitudeDegrees>42.98456861637532711029052734375</LatitudeDegrees>
              <LongitudeDegrees>-5.7049284875392913818359375</LongitudeDegrees>
            </Position>
            <AltitudeMeters>1344.800048828125</AltitudeMeters>
            <DistanceMeters>NAN</DistanceMeters>
          </Trackpoint>
          <Trackpoint>
            <Time>2019-10-04T15:41:27.000Z</Time>
            <Position>
              <LatitudeDegrees>42.98468680121004581451416015625</LatitudeDegrees>
              <LongitudeDegrees>-5.70411971770226955413818359375</LongitudeDegrees>
            </Position>
            <AltitudeMeters>1344.4000244140625</AltitudeMeters>
            <DistanceMeters>NAN</DistanceMeters>
          </Trackpoint>
          <Trackpoint>
            <Time>2019-10-04T15:41:28.000Z</Time>
            <Position>
              <LatitudeDegrees>42.98471781425178050994873046875</LatitudeDegrees>
              <LongitudeDegrees>-5.70399013347923755645751953125</LongitudeDegrees>
            </Position>
            <AltitudeMeters>1344.199951171875</AltitudeMeters>
            <DistanceMeters>NAN</DistanceMeters>
          </Trackpoint>
          <Trackpoint>
            <Time>2019-10-04T15:41:29.000Z</Time>
            <Position>
              <LatitudeDegrees>42.98475301824510097503662109375</LatitudeDegrees>
              <LongitudeDegrees>-5.70386205799877643585205078125</LongitudeDegrees>
            </Position>
            <AltitudeMeters>1344.199951171875</AltitudeMeters>
            <DistanceMeters>NAN</DistanceMeters>
          </Trackpoint>
          <Trackpoint>
            <Time>2019-10-04T15:41:33.000Z</Time>
            <Position>
              <LatitudeDegrees>42.98494194634258747100830078125</LatitudeDegrees>
              <LongitudeDegrees>-5.703379847109317779541015625</LongitudeDegrees>
            </Position>
            <AltitudeMeters>1344.4000244140625</AltitudeMeters>
            <DistanceMeters>NAN</DistanceMeters>
          </Trackpoint>
          <Trackpoint>
            <Time>2019-10-04T15:41:39.000Z</Time>
            <Position>
              <LatitudeDegrees>42.9853007756173610687255859375</LatitudeDegrees>
              <LongitudeDegrees>-5.70270619355142116546630859375</LongitudeDegrees>
            </Position>
            <AltitudeMeters>1344.4000244140625</AltitudeMeters>
            <DistanceMeters>NAN</DistanceMeters>
          </Trackpoint>
          <Trackpoint>
            <Time>2019-10-04T15:41:41.000Z</Time>
            <Position>
              <LatitudeDegrees>42.98541183583438396453857421875</LatitudeDegrees>
              <LongitudeDegrees>-5.7024729251861572265625</LongitudeDegrees>
            </Position>
            <AltitudeMeters>1344.4000244140625</AltitudeMeters>
            <DistanceMeters>NAN</DistanceMeters>
          </Trackpoint>
          <Trackpoint>
            <Time>2019-10-04T15:41:45.000Z</Time>
            <Position>
              <LatitudeDegrees>42.98556958325207233428955078125</LatitudeDegrees>
              <LongitudeDegrees>-5.7019587792456150054931640625</LongitudeDegrees>
            </Position>
            <AltitudeMeters>1344.4000244140625</AltitudeMeters>
            <DistanceMeters>NAN</DistanceMeters>
          </Trackpoint>
          <Trackpoint>
            <Time>2019-10-04T15:41:49.000Z</Time>
            <Position>
              <LatitudeDegrees>42.98563362099230289459228515625</LatitudeDegrees>
              <LongitudeDegrees>-5.7013955153524875640869140625</LongitudeDegrees>
            </Position>
            <AltitudeMeters>1344.4000244140625</AltitudeMeters>
            <DistanceMeters>NAN</DistanceMeters>
          </Trackpoint>
          <Trackpoint>
            <Time>2019-10-04T15:41:53.000Z</Time>
            <Position>
              <LatitudeDegrees>42.9855850897729396820068359375</LatitudeDegrees>
              <LongitudeDegrees>-5.7008193433284759521484375</LongitudeDegrees>
            </Position>
            <AltitudeMeters>1344.4000244140625</AltitudeMeters>
            <DistanceMeters>NAN</DistanceMeters>
          </Trackpoint>
          <Trackpoint>
            <Time>2019-10-04T15:41:57.000Z</Time>
            <Position>
              <LatitudeDegrees>42.98542776145040988922119140625</LatitudeDegrees>
              <LongitudeDegrees>-5.7002693228423595428466796875</LongitudeDegrees>
            </Position>
            <AltitudeMeters>1344.5999755859375</AltitudeMeters>
            <DistanceMeters>NAN</DistanceMeters>
          </Trackpoint>
          <Trackpoint>
            <Time>2019-10-04T15:42:02.000Z</Time>
            <Position>
              <LatitudeDegrees>42.98517446033656597137451171875</LatitudeDegrees>
              <LongitudeDegrees>-5.6996017880737781524658203125</LongitudeDegrees>
            </Position>
            <AltitudeMeters>1344.800048828125</AltitudeMeters>
            <DistanceMeters>NAN</DistanceMeters>
          </Trackpoint>
          <Trackpoint>
            <Time>2019-10-04T15:42:06.000Z</Time>
            <Position>
              <LatitudeDegrees>42.9849671758711338043212890625</LatitudeDegrees>
              <LongitudeDegrees>-5.69906023330986499786376953125</LongitudeDegrees>
            </Position>
            <AltitudeMeters>1344.5999755859375</AltitudeMeters>
            <DistanceMeters>NAN</DistanceMeters>
          </Trackpoint>
          <Trackpoint>
            <Time>2019-10-04T15:42:11.000Z</Time>
            <Position>
              <LatitudeDegrees>42.98471244983375072479248046875</LatitudeDegrees>
              <LongitudeDegrees>-5.69836654700338840484619140625</LongitudeDegrees>
            </Position>
            <AltitudeMeters>1344.199951171875</AltitudeMeters>
            <DistanceMeters>NAN</DistanceMeters>
          </Trackpoint>
          <Trackpoint>
            <Time>2019-10-04T15:42:14.000Z</Time>
            <Position>
              <LatitudeDegrees>42.98458102159202098846435546875</LatitudeDegrees>
              <LongitudeDegrees>-5.69793437607586383819580078125</LongitudeDegrees>
            </Position>
            <AltitudeMeters>1344.5999755859375</AltitudeMeters>
            <DistanceMeters>NAN</DistanceMeters>
          </Trackpoint>
          <Trackpoint>
            <Time>2019-10-04T15:42:19.000Z</Time>
            <Position>
              <LatitudeDegrees>42.98443718813359737396240234375</LatitudeDegrees>
              <LongitudeDegrees>-5.6971800886094570159912109375</LongitudeDegrees>
            </Position>
            <AltitudeMeters>1344.199951171875</AltitudeMeters>
            <DistanceMeters>NAN</DistanceMeters>
          </Trackpoint>
          <Trackpoint>
            <Time>2019-10-04T15:42:24.000Z</Time>
            <Position>
              <LatitudeDegrees>42.98441044986248016357421875</LatitudeDegrees>
              <LongitudeDegrees>-5.6963868252933025360107421875</LongitudeDegrees>
            </Position>
            <AltitudeMeters>1344</AltitudeMeters>
            <DistanceMeters>NAN</DistanceMeters>
          </Trackpoint>
          <Trackpoint>
            <Time>2019-10-04T15:42:29.000Z</Time>
            <Position>
              <LatitudeDegrees>42.984467111527919769287109375</LatitudeDegrees>
              <LongitudeDegrees>-5.6955771334469318389892578125</LongitudeDegrees>
            </Position>
            <AltitudeMeters>1343.5999755859375</AltitudeMeters>
            <DistanceMeters>NAN</DistanceMeters>
          </Trackpoint>
          <Trackpoint>
            <Time>2019-10-04T15:42:30.000Z</Time>
            <Position>
              <LatitudeDegrees>42.98448127694427967071533203125</LatitudeDegrees>
              <LongitudeDegrees>-5.6954121775925159454345703125</LongitudeDegrees>
            </Position>
            <AltitudeMeters>1343.4000244140625</AltitudeMeters>
            <DistanceMeters>NAN</DistanceMeters>
          </Trackpoint>
          <Trackpoint>
            <Time>2019-10-04T15:42:35.000Z</Time>
            <Position>
              <LatitudeDegrees>42.984552942216396331787109375</LatitudeDegrees>
              <LongitudeDegrees>-5.6945830397307872772216796875</LongitudeDegrees>
            </Position>
            <AltitudeMeters>1343.4000244140625</AltitudeMeters>
            <DistanceMeters>NAN</DistanceMeters>
          </Trackpoint>
          <Trackpoint>
            <Time>2019-10-04T15:42:40.000Z</Time>
            <Position>
              <LatitudeDegrees>42.98460851423442363739013671875</LatitudeDegrees>
              <LongitudeDegrees>-5.6937616132199764251708984375</LongitudeDegrees>
            </Position>
            <AltitudeMeters>1343.199951171875</AltitudeMeters>
            <DistanceMeters>NAN</DistanceMeters>
          </Trackpoint>
          <Trackpoint>
            <Time>2019-10-04T15:42:41.000Z</Time>
            <Position>
              <LatitudeDegrees>42.9846084304153919219970703125</LatitudeDegrees>
              <LongitudeDegrees>-5.6936003454029560089111328125</LongitudeDegrees>
            </Position>
            <AltitudeMeters>1343.4000244140625</AltitudeMeters>
            <DistanceMeters>NAN</DistanceMeters>
          </Trackpoint>
          <Trackpoint>
            <Time>2019-10-04T15:42:45.000Z</Time>
            <Position>
              <LatitudeDegrees>42.98451849259436130523681640625</LatitudeDegrees>
              <LongitudeDegrees>-5.69296591915190219879150390625</LongitudeDegrees>
            </Position>
            <AltitudeMeters>1343.199951171875</AltitudeMeters>
            <DistanceMeters>NAN</DistanceMeters>
          </Trackpoint>
          <Trackpoint>
            <Time>2019-10-04T15:42:47.000Z</Time>
            <Position>
              <LatitudeDegrees>42.98443458974361419677734375</LatitudeDegrees>
              <LongitudeDegrees>-5.6926605664193630218505859375</LongitudeDegrees>
            </Position>
            <AltitudeMeters>1343</AltitudeMeters>
            <DistanceMeters>NAN</DistanceMeters>
          </Trackpoint>
          <Trackpoint>
            <Time>2019-10-04T15:42:50.000Z</Time>
            <Position>
              <LatitudeDegrees>42.98427022062242031097412109375</LatitudeDegrees>
              <LongitudeDegrees>-5.69222562946379184722900390625</LongitudeDegrees>
            </Position>
            <AltitudeMeters>1343</AltitudeMeters>
            <DistanceMeters>NAN</DistanceMeters>
          </Trackpoint>
          <Trackpoint>
            <Time>2019-10-04T15:42:51.000Z</Time>
            <Position>
              <LatitudeDegrees>42.98420048318803310394287109375</LatitudeDegrees>
              <LongitudeDegrees>-5.6920939497649669647216796875</LongitudeDegrees>
            </Position>
            <AltitudeMeters>1342.800048828125</AltitudeMeters>
            <DistanceMeters>NAN</DistanceMeters>
          </Trackpoint>
          <Trackpoint>
            <Time>2019-10-04T15:42:53.000Z</Time>
            <Position>
              <LatitudeDegrees>42.984032928943634033203125</LatitudeDegrees>
              <LongitudeDegrees>-5.69186545908451080322265625</LongitudeDegrees>
            </Position>
            <AltitudeMeters>1343.199951171875</AltitudeMeters>
            <DistanceMeters>NAN</DistanceMeters>
          </Trackpoint>
          <Trackpoint>
            <Time>2019-10-04T15:42:56.000Z</Time>
            <Position>
              <LatitudeDegrees>42.983748614788055419921875</LatitudeDegrees>
              <LongitudeDegrees>-5.6915927119553089141845703125</LongitudeDegrees>
            </Position>
            <AltitudeMeters>1343</AltitudeMeters>
            <DistanceMeters>NAN</DistanceMeters>
          </Trackpoint>
          <Trackpoint>
            <Time>2019-10-04T15:42:57.000Z</Time>
            <Position>
              <LatitudeDegrees>42.983649037778377532958984375</LatitudeDegrees>
              <LongitudeDegrees>-5.69151434116065502166748046875</LongitudeDegrees>
            </Position>
            <AltitudeMeters>1342.800048828125</AltitudeMeters>
            <DistanceMeters>NAN</DistanceMeters>
          </Trackpoint>
          <Trackpoint>
            <Time>2019-10-04T15:43:02.000Z</Time>
            <Position>
              <LatitudeDegrees>42.9831466265022754669189453125</LatitudeDegrees>
              <LongitudeDegrees>-5.69114805199205875396728515625</LongitudeDegrees>
            </Position>
            <AltitudeMeters>1342.5999755859375</AltitudeMeters>
            <DistanceMeters>NAN</DistanceMeters>
          </Trackpoint>
          <Trackpoint>
            <Time>2019-10-04T15:43:05.000Z</Time>
            <Position>
              <LatitudeDegrees>42.98285745084285736083984375</LatitudeDegrees>
              <LongitudeDegrees>-5.6909070722758769989013671875</LongitudeDegrees>
            </Position>
            <AltitudeMeters>1342.4000244140625</AltitudeMeters>
            <DistanceMeters>NAN</DistanceMeters>
          </Trackpoint>
          <Trackpoint>
            <Time>2019-10-04T15:43:08.000Z</Time>
            <Position>
              <LatitudeDegrees>42.98260004259645938873291015625</LatitudeDegrees>
              <LongitudeDegrees>-5.6906160525977611541748046875</LongitudeDegrees>
            </Position>
            <AltitudeMeters>1342</AltitudeMeters>
            <DistanceMeters>NAN</DistanceMeters>
          </Trackpoint>
          <Trackpoint>
            <Time>2019-10-04T15:43:10.000Z</Time>
            <Position>
              <LatitudeDegrees>42.98244078643620014190673828125</LatitudeDegrees>
              <LongitudeDegrees>-5.69041094742715358734130859375</LongitudeDegrees>
            </Position>
            <AltitudeMeters>1341.5999755859375</AltitudeMeters>
            <DistanceMeters>NAN</DistanceMeters>
          </Trackpoint>
          <Trackpoint>
            <Time>2019-10-04T15:43:15.000Z</Time>
            <Position>
              <LatitudeDegrees>42.9820574820041656494140625</LatitudeDegrees>
              <LongitudeDegrees>-5.6899116374552249908447265625</LongitudeDegrees>
            </Position>
            <AltitudeMeters>1341.199951171875</AltitudeMeters>
            <DistanceMeters>NAN</DistanceMeters>
          </Trackpoint>
          <Trackpoint>
            <Time>2019-10-04T15:43:16.000Z</Time>
            <Position>
              <LatitudeDegrees>42.9819741658866405487060546875</LatitudeDegrees>
              <LongitudeDegrees>-5.68983175791800022125244140625</LongitudeDegrees>
            </Position>
            <AltitudeMeters>1341.199951171875</AltitudeMeters>
            <DistanceMeters>NAN</DistanceMeters>
          </Trackpoint>
          <Trackpoint>
            <Time>2019-10-04T15:43:18.000Z</Time>
            <Position>
              <LatitudeDegrees>42.981801331043243408203125</LatitudeDegrees>
              <LongitudeDegrees>-5.6897014193236827850341796875</LongitudeDegrees>
            </Position>
            <AltitudeMeters>1340.800048828125</AltitudeMeters>
            <DistanceMeters>NAN</DistanceMeters>
          </Trackpoint>
          <Trackpoint>
            <Time>2019-10-04T15:43:20.000Z</Time>
            <Position>
              <LatitudeDegrees>42.98162740655243396759033203125</LatitudeDegrees>
              <LongitudeDegrees>-5.6896011717617511749267578125</LongitudeDegrees>
            </Position>
            <AltitudeMeters>1340.5999755859375</AltitudeMeters>
            <DistanceMeters>NAN</DistanceMeters>
          </Trackpoint>
          <Trackpoint>
            <Time>2019-10-04T15:43:26.000Z</Time>
            <Position>
              <LatitudeDegrees>42.9811228998005390167236328125</LatitudeDegrees>
              <LongitudeDegrees>-5.6893517263233661651611328125</LongitudeDegrees>
            </Position>
            <AltitudeMeters>1340.800048828125</AltitudeMeters>
            <DistanceMeters>NAN</DistanceMeters>
          </Trackpoint>
          <Trackpoint>
            <Time>2019-10-04T15:43:27.000Z</Time>
            <Position>
              <LatitudeDegrees>42.98104084096848964691162109375</LatitudeDegrees>
              <LongitudeDegrees>-5.68930570967495441436767578125</LongitudeDegrees>
            </Position>
            <AltitudeMeters>1340.800048828125</AltitudeMeters>
            <DistanceMeters>NAN</DistanceMeters>
          </Trackpoint>
          <Trackpoint>
            <Time>2019-10-04T15:43:33.000Z</Time>
            <Position>
              <LatitudeDegrees>42.9805663414299488067626953125</LatitudeDegrees>
              <LongitudeDegrees>-5.68898786790668964385986328125</LongitudeDegrees>
            </Position>
            <AltitudeMeters>1340.4000244140625</AltitudeMeters>
            <DistanceMeters>NAN</DistanceMeters>
          </Trackpoint>
          <Trackpoint>
            <Time>2019-10-04T15:43:35.000Z</Time>
            <Position>
              <LatitudeDegrees>42.98040968365967273712158203125</LatitudeDegrees>
              <LongitudeDegrees>-5.68887555040419101715087890625</LongitudeDegrees>
            </Position>
            <AltitudeMeters>1340.199951171875</AltitudeMeters>
            <DistanceMeters>NAN</DistanceMeters>
          </Trackpoint>
          <Trackpoint>
            <Time>2019-10-04T15:43:41.000Z</Time>
            <Position>
              <LatitudeDegrees>42.9799256287515163421630859375</LatitudeDegrees>
              <LongitudeDegrees>-5.68853490985929965972900390625</LongitudeDegrees>
            </Position>
            <AltitudeMeters>1340</AltitudeMeters>
            <DistanceMeters>NAN</DistanceMeters>
          </Trackpoint>
          <Trackpoint>
            <Time>2019-10-04T15:43:44.000Z</Time>
            <Position>
              <LatitudeDegrees>42.979677356779575347900390625</LatitudeDegrees>
              <LongitudeDegrees>-5.68835838697850704193115234375</LongitudeDegrees>
            </Position>
            <AltitudeMeters>1339.5999755859375</AltitudeMeters>
            <DistanceMeters>NAN</DistanceMeters>
          </Trackpoint>
          <Trackpoint>
            <Time>2019-10-04T15:43:50.000Z</Time>
            <Position>
              <LatitudeDegrees>42.97917821444571018218994140625</LatitudeDegrees>
              <LongitudeDegrees>-5.68800584413111209869384765625</LongitudeDegrees>
            </Position>
            <AltitudeMeters>1338.800048828125</AltitudeMeters>
            <DistanceMeters>NAN</DistanceMeters>
          </Trackpoint>
          <Trackpoint>
            <Time>2019-10-04T15:43:52.000Z</Time>
            <Position>
              <LatitudeDegrees>42.9790104925632476806640625</LatitudeDegrees>
              <LongitudeDegrees>-5.6878884136676788330078125</LongitudeDegrees>
            </Position>
            <AltitudeMeters>1338.199951171875</AltitudeMeters>
            <DistanceMeters>NAN</DistanceMeters>
          </Trackpoint>
          <Trackpoint>
            <Time>2019-10-04T15:43:55.000Z</Time>
            <Position>
              <LatitudeDegrees>42.9787612147629261016845703125</LatitudeDegrees>
              <LongitudeDegrees>-5.68770811893045902252197265625</LongitudeDegrees>
            </Position>
            <AltitudeMeters>1338.199951171875</AltitudeMeters>
            <DistanceMeters>NAN</DistanceMeters>
          </Trackpoint>
          <Trackpoint>
            <Time>2019-10-04T15:44:00.000Z</Time>
            <Position>
              <LatitudeDegrees>42.978357709944248199462890625</LatitudeDegrees>
              <LongitudeDegrees>-5.687397904694080352783203125</LongitudeDegrees>
            </Position>
            <AltitudeMeters>1337.800048828125</AltitudeMeters>
            <DistanceMeters>NAN</DistanceMeters>
          </Trackpoint>
          <Trackpoint>
            <Time>2019-10-04T15:44:04.000Z</Time>
            <Position>
              <LatitudeDegrees>42.9780542850494384765625</LatitudeDegrees>
              <LongitudeDegrees>-5.6871130876243114471435546875</LongitudeDegrees>
            </Position>
            <AltitudeMeters>1337.199951171875</AltitudeMeters>
            <DistanceMeters>NAN</DistanceMeters>
          </Trackpoint>
          <Trackpoint>
            <Time>2019-10-04T15:44:09.000Z</Time>
            <Position>
              <LatitudeDegrees>42.9777010716497898101806640625</LatitudeDegrees>
              <LongitudeDegrees>-5.68670891225337982177734375</LongitudeDegrees>
            </Position>
            <AltitudeMeters>1336.199951171875</AltitudeMeters>
            <DistanceMeters>NAN</DistanceMeters>
          </Trackpoint>
          <Trackpoint>
            <Time>2019-10-04T15:44:11.000Z</Time>
            <Position>
              <LatitudeDegrees>42.97757090069353580474853515625</LatitudeDegrees>
              <LongitudeDegrees>-5.6865258514881134033203125</LongitudeDegrees>
            </Position>
            <AltitudeMeters>1336.199951171875</AltitudeMeters>
            <DistanceMeters>NAN</DistanceMeters>
          </Trackpoint>
          <Trackpoint>
            <Time>2019-10-04T15:44:17.000Z</Time>
            <Position>
              <LatitudeDegrees>42.9772129096090793609619140625</LatitudeDegrees>
              <LongitudeDegrees>-5.685906596481800079345703125</LongitudeDegrees>
            </Position>
            <AltitudeMeters>1335.199951171875</AltitudeMeters>
            <DistanceMeters>NAN</DistanceMeters>
          </Trackpoint>
          <Trackpoint>
            <Time>2019-10-04T15:44:19.000Z</Time>
            <Position>
              <LatitudeDegrees>42.97710587270557880401611328125</LatitudeDegrees>
              <LongitudeDegrees>-5.68567693233489990234375</LongitudeDegrees>
            </Position>
            <AltitudeMeters>1334.800048828125</AltitudeMeters>
            <DistanceMeters>NAN</DistanceMeters>
          </Trackpoint>
          <Trackpoint>
            <Time>2019-10-04T15:44:23.000Z</Time>
            <Position>
              <LatitudeDegrees>42.97691862098872661590576171875</LatitudeDegrees>
              <LongitudeDegrees>-5.68518600426614284515380859375</LongitudeDegrees>
            </Position>
            <AltitudeMeters>1334.800048828125</AltitudeMeters>
            <DistanceMeters>NAN</DistanceMeters>
          </Trackpoint>
          <Trackpoint>
            <Time>2019-10-04T15:44:28.000Z</Time>
            <Position>
              <LatitudeDegrees>42.97674058936536312103271484375</LatitudeDegrees>
              <LongitudeDegrees>-5.68450950086116790771484375</LongitudeDegrees>
            </Position>
            <AltitudeMeters>1334</AltitudeMeters>
            <DistanceMeters>NAN</DistanceMeters>
          </Trackpoint>
          <Trackpoint>
            <Time>2019-10-04T15:44:29.000Z</Time>
            <Position>
              <LatitudeDegrees>42.97671410255134105682373046875</LatitudeDegrees>
              <LongitudeDegrees>-5.6843668408691883087158203125</LongitudeDegrees>
            </Position>
            <AltitudeMeters>1334</AltitudeMeters>
            <DistanceMeters>NAN</DistanceMeters>
          </Trackpoint>
          <Trackpoint>
            <Time>2019-10-04T15:44:30.000Z</Time>
            <Position>
              <LatitudeDegrees>42.97668971121311187744140625</LatitudeDegrees>
              <LongitudeDegrees>-5.684222839772701263427734375</LongitudeDegrees>
            </Position>
            <AltitudeMeters>1333.5999755859375</AltitudeMeters>
            <DistanceMeters>NAN</DistanceMeters>
          </Trackpoint>
          <Trackpoint>
            <Time>2019-10-04T15:44:35.000Z</Time>
            <Position>
              <LatitudeDegrees>42.9765830934047698974609375</LatitudeDegrees>
              <LongitudeDegrees>-5.6834750063717365264892578125</LongitudeDegrees>
            </Position>
            <AltitudeMeters>1333</AltitudeMeters>
            <DistanceMeters>NAN</DistanceMeters>
          </Trackpoint>
          <Trackpoint>
            <Time>2019-10-04T15:44:36.000Z</Time>
            <Position>
              <LatitudeDegrees>42.976565994322299957275390625</LatitudeDegrees>
              <LongitudeDegrees>-5.68332103081047534942626953125</LongitudeDegrees>
            </Position>
            <AltitudeMeters>1332.800048828125</AltitudeMeters>
            <DistanceMeters>NAN</DistanceMeters>
          </Trackpoint>
          <Trackpoint>
            <Time>2019-10-04T15:44:40.000Z</Time>
            <Position>
              <LatitudeDegrees>42.97648846171796321868896484375</LatitudeDegrees>
              <LongitudeDegrees>-5.6827001832425594329833984375</LongitudeDegrees>
            </Position>
            <AltitudeMeters>1332.4000244140625</AltitudeMeters>
            <DistanceMeters>NAN</DistanceMeters>
          </Trackpoint>
          <Trackpoint>
            <Time>2019-10-04T15:44:45.000Z</Time>
            <Position>
              <LatitudeDegrees>42.9763894714415073394775390625</LatitudeDegrees>
              <LongitudeDegrees>-5.6819397769868373870849609375</LongitudeDegrees>
            </Position>
            <AltitudeMeters>1331.800048828125</AltitudeMeters>
            <DistanceMeters>NAN</DistanceMeters>
          </Trackpoint>
          <Trackpoint>
            <Time>2019-10-04T15:44:47.000Z</Time>
            <Position>
              <LatitudeDegrees>42.9763546027243137359619140625</LatitudeDegrees>
              <LongitudeDegrees>-5.68164196796715259552001953125</LongitudeDegrees>
            </Position>
            <AltitudeMeters>1331</AltitudeMeters>
            <DistanceMeters>NAN</DistanceMeters>
          </Trackpoint>
          <Trackpoint>
            <Time>2019-10-04T15:44:52.000Z</Time>
            <Position>
              <LatitudeDegrees>42.97626449726521968841552734375</LatitudeDegrees>
              <LongitudeDegrees>-5.6808883510529994964599609375</LongitudeDegrees>
            </Position>
            <AltitudeMeters>1330.4000244140625</AltitudeMeters>
            <DistanceMeters>NAN</DistanceMeters>
          </Trackpoint>
          <Trackpoint>
            <Time>2019-10-04T15:44:55.000Z</Time>
            <Position>
              <LatitudeDegrees>42.97620682977139949798583984375</LatitudeDegrees>
              <LongitudeDegrees>-5.680435560643672943115234375</LongitudeDegrees>
            </Position>
            <AltitudeMeters>1329.800048828125</AltitudeMeters>
            <DistanceMeters>NAN</DistanceMeters>
          </Trackpoint>
          <Trackpoint>
            <Time>2019-10-04T15:44:59.000Z</Time>
            <Position>
              <LatitudeDegrees>42.97608763910830020904541015625</LatitudeDegrees>
              <LongitudeDegrees>-5.6798500008881092071533203125</LongitudeDegrees>
            </Position>
            <AltitudeMeters>1329.199951171875</AltitudeMeters>
            <DistanceMeters>NAN</DistanceMeters>
          </Trackpoint>
          <Trackpoint>
            <Time>2019-10-04T15:45:01.000Z</Time>
            <Position>
              <LatitudeDegrees>42.97600097022950649261474609375</LatitudeDegrees>
              <LongitudeDegrees>-5.67957247607409954071044921875</LongitudeDegrees>
            </Position>
            <AltitudeMeters>1328.800048828125</AltitudeMeters>
            <DistanceMeters>NAN</DistanceMeters>
          </Trackpoint>
          <Trackpoint>
            <Time>2019-10-04T15:45:04.000Z</Time>
            <Position>
              <LatitudeDegrees>42.9758366011083126068115234375</LatitudeDegrees>
              <LongitudeDegrees>-5.6791921891272068023681640625</LongitudeDegrees>
            </Position>
            <AltitudeMeters>1328.4000244140625</AltitudeMeters>
            <DistanceMeters>NAN</DistanceMeters>
          </Trackpoint>
          <Trackpoint>
            <Time>2019-10-04T15:45:06.000Z</Time>
            <Position>
              <LatitudeDegrees>42.97570307739078998565673828125</LatitudeDegrees>
              <LongitudeDegrees>-5.67895975895226001739501953125</LongitudeDegrees>
            </Position>
            <AltitudeMeters>1327.5999755859375</AltitudeMeters>
            <DistanceMeters>NAN</DistanceMeters>
          </Trackpoint>
          <Trackpoint>
            <Time>2019-10-04T15:45:09.000Z</Time>
            <Position>
              <LatitudeDegrees>42.9754818789660930633544921875</LatitudeDegrees>
              <LongitudeDegrees>-5.67862984724342823028564453125</LongitudeDegrees>
            </Position>
            <AltitudeMeters>1327</AltitudeMeters>
            <DistanceMeters>NAN</DistanceMeters>
          </Trackpoint>
          <Trackpoint>
            <Time>2019-10-04T15:45:12.000Z</Time>
            <Position>
              <LatitudeDegrees>42.97525632195174694061279296875</LatitudeDegrees>
              <LongitudeDegrees>-5.67830462940037250518798828125</LongitudeDegrees>
            </Position>
            <AltitudeMeters>1326.5999755859375</AltitudeMeters>
            <DistanceMeters>NAN</DistanceMeters>
          </Trackpoint>
          <Trackpoint>
            <Time>2019-10-04T15:45:17.000Z</Time>
            <Position>
              <LatitudeDegrees>42.97488030977547168731689453125</LatitudeDegrees>
              <LongitudeDegrees>-5.6777699477970600128173828125</LongitudeDegrees>
            </Position>
            <AltitudeMeters>1325.5999755859375</AltitudeMeters>
            <DistanceMeters>NAN</DistanceMeters>
          </Trackpoint>
          <Trackpoint>
            <Time>2019-10-04T15:45:20.000Z</Time>
            <Position>
              <LatitudeDegrees>42.9746530763804912567138671875</LatitudeDegrees>
              <LongitudeDegrees>-5.677455626428127288818359375</LongitudeDegrees>
            </Position>
            <AltitudeMeters>1325.4000244140625</AltitudeMeters>
            <DistanceMeters>NAN</DistanceMeters>
          </Trackpoint>
          <Trackpoint>
            <Time>2019-10-04T15:45:25.000Z</Time>
            <Position>
              <LatitudeDegrees>42.97429944388568401336669921875</LatitudeDegrees>
              <LongitudeDegrees>-5.67690652795135974884033203125</LongitudeDegrees>
            </Position>
            <AltitudeMeters>1324.800048828125</AltitudeMeters>
            <DistanceMeters>NAN</DistanceMeters>
          </Trackpoint>
          <Trackpoint>
            <Time>2019-10-04T15:45:27.000Z</Time>
            <Position>
              <LatitudeDegrees>42.97417438589036464691162109375</LatitudeDegrees>
              <LongitudeDegrees>-5.67666932009160518646240234375</LongitudeDegrees>
            </Position>
            <AltitudeMeters>1324.4000244140625</AltitudeMeters>
            <DistanceMeters>NAN</DistanceMeters>
          </Trackpoint>
          <Trackpoint>
            <Time>2019-10-04T15:45:32.000Z</Time>
            <Position>
              <LatitudeDegrees>42.973946146667003631591796875</LatitudeDegrees>
              <LongitudeDegrees>-5.67600714974105358123779296875</LongitudeDegrees>
            </Position>
            <AltitudeMeters>1323.800048828125</AltitudeMeters>
            <DistanceMeters>NAN</DistanceMeters>
          </Trackpoint>
          <Trackpoint>
            <Time>2019-10-04T15:45:37.000Z</Time>
            <Position>
              <LatitudeDegrees>42.97384413890540599822998046875</LatitudeDegrees>
              <LongitudeDegrees>-5.67529904656112194061279296875</LongitudeDegrees>
            </Position>
            <AltitudeMeters>1323.5999755859375</AltitudeMeters>
            <DistanceMeters>NAN</DistanceMeters>
          </Trackpoint>
          <Trackpoint>
            <Time>2019-10-04T15:45:38.000Z</Time>
            <Position>
              <LatitudeDegrees>42.97383709810674190521240234375</LatitudeDegrees>
              <LongitudeDegrees>-5.675154961645603179931640625</LongitudeDegrees>
            </Position>
            <AltitudeMeters>1323.199951171875</AltitudeMeters>
            <DistanceMeters>NAN</DistanceMeters>
          </Trackpoint>
          <Trackpoint>
            <Time>2019-10-04T15:45:43.000Z</Time>
            <Position>
              <LatitudeDegrees>42.973802648484706878662109375</LatitudeDegrees>
              <LongitudeDegrees>-5.67442816682159900665283203125</LongitudeDegrees>
            </Position>
            <AltitudeMeters>1322.4000244140625</AltitudeMeters>
            <DistanceMeters>NAN</DistanceMeters>
          </Trackpoint>
          <Trackpoint>
            <Time>2019-10-04T15:45:45.000Z</Time>
            <Position>
              <LatitudeDegrees>42.973789907991886138916015625</LatitudeDegrees>
              <LongitudeDegrees>-5.67413731478154659271240234375</LongitudeDegrees>
            </Position>
            <AltitudeMeters>1322.199951171875</AltitudeMeters>
            <DistanceMeters>NAN</DistanceMeters>
          </Trackpoint>
          <Trackpoint>
            <Time>2019-10-04T15:45:46.000Z</Time>
            <Position>
              <LatitudeDegrees>42.97377959825098514556884765625</LatitudeDegrees>
              <LongitudeDegrees>-5.6739910505712032318115234375</LongitudeDegrees>
            </Position>
            <AltitudeMeters>1322.199951171875</AltitudeMeters>
            <DistanceMeters>NAN</DistanceMeters>
          </Trackpoint>
          <Trackpoint>
            <Time>2019-10-04T15:45:51.000Z</Time>
            <Position>
              <LatitudeDegrees>42.97367096878588199615478515625</LatitudeDegrees>
              <LongitudeDegrees>-5.673287808895111083984375</LongitudeDegrees>
            </Position>
            <AltitudeMeters>1321.800048828125</AltitudeMeters>
            <DistanceMeters>NAN</DistanceMeters>
          </Trackpoint>
          <Trackpoint>
            <Time>2019-10-04T15:45:55.000Z</Time>
            <Position>
              <LatitudeDegrees>42.9735037498176097869873046875</LatitudeDegrees>
              <LongitudeDegrees>-5.67279872484505176544189453125</LongitudeDegrees>
            </Position>
            <AltitudeMeters>1321.800048828125</AltitudeMeters>
            <DistanceMeters>NAN</DistanceMeters>
          </Trackpoint>
          <Trackpoint>
            <Time>2019-10-04T15:45:58.000Z</Time>
            <Position>
              <LatitudeDegrees>42.97332630492746829986572265625</LatitudeDegrees>
              <LongitudeDegrees>-5.67248926497995853424072265625</LongitudeDegrees>
            </Position>
            <AltitudeMeters>1320.4000244140625</AltitudeMeters>
            <DistanceMeters>NAN</DistanceMeters>
          </Trackpoint>
          <Trackpoint>
            <Time>2019-10-04T15:46:02.000Z</Time>
            <Position>
              <LatitudeDegrees>42.9730896838009357452392578125</LatitudeDegrees>
              <LongitudeDegrees>-5.6720578484237194061279296875</LongitudeDegrees>
            </Position>
            <AltitudeMeters>1320.5999755859375</AltitudeMeters>
            <DistanceMeters>NAN</DistanceMeters>
          </Trackpoint>
          <Trackpoint>
            <Time>2019-10-04T15:46:04.000Z</Time>
            <Position>
              <LatitudeDegrees>42.9729599319398403167724609375</LatitudeDegrees>
              <LongitudeDegrees>-5.67184888757765293121337890625</LongitudeDegrees>
            </Position>
            <AltitudeMeters>1320.800048828125</AltitudeMeters>
            <DistanceMeters>NAN</DistanceMeters>
          </Trackpoint>
          <Trackpoint>
            <Time>2019-10-04T15:46:06.000Z</Time>
            <Position>
              <LatitudeDegrees>42.97280511818826198577880859375</LatitudeDegrees>
              <LongitudeDegrees>-5.671683847904205322265625</LongitudeDegrees>
            </Position>
            <AltitudeMeters>1320.5999755859375</AltitudeMeters>
            <DistanceMeters>NAN</DistanceMeters>
          </Trackpoint>
          <Trackpoint>
            <Time>2019-10-04T15:46:12.000Z</Time>
            <Position>
              <LatitudeDegrees>42.97230723313987255096435546875</LatitudeDegrees>
              <LongitudeDegrees>-5.671298615634441375732421875</LongitudeDegrees>
            </Position>
            <AltitudeMeters>1320.199951171875</AltitudeMeters>
            <DistanceMeters>NAN</DistanceMeters>
          </Trackpoint>
          <Trackpoint>
            <Time>2019-10-04T15:46:13.000Z</Time>
            <Position>
              <LatitudeDegrees>42.97222576104104518890380859375</LatitudeDegrees>
              <LongitudeDegrees>-5.671234913170337677001953125</LongitudeDegrees>
            </Position>
            <AltitudeMeters>1320.199951171875</AltitudeMeters>
            <DistanceMeters>NAN</DistanceMeters>
          </Trackpoint>
          <Trackpoint>
            <Time>2019-10-04T15:46:19.000Z</Time>
            <Position>
              <LatitudeDegrees>42.9717583023011684417724609375</LatitudeDegrees>
              <LongitudeDegrees>-5.670850016176700592041015625</LongitudeDegrees>
            </Position>
            <AltitudeMeters>1320.199951171875</AltitudeMeters>
            <DistanceMeters>NAN</DistanceMeters>
          </Trackpoint>
          <Trackpoint>
            <Time>2019-10-04T15:46:22.000Z</Time>
            <Position>
              <LatitudeDegrees>42.971525453031063079833984375</LatitudeDegrees>
              <LongitudeDegrees>-5.6706579029560089111328125</LongitudeDegrees>
            </Position>
            <AltitudeMeters>1319.4000244140625</AltitudeMeters>
            <DistanceMeters>NAN</DistanceMeters>
          </Trackpoint>
          <Trackpoint>
            <Time>2019-10-04T15:46:25.000Z</Time>
            <Position>
              <LatitudeDegrees>42.9712979681789875030517578125</LatitudeDegrees>
              <LongitudeDegrees>-5.670467801392078399658203125</LongitudeDegrees>
            </Position>
            <AltitudeMeters>1319.199951171875</AltitudeMeters>
            <DistanceMeters>NAN</DistanceMeters>
          </Trackpoint>
          <Trackpoint>
            <Time>2019-10-04T15:46:31.000Z</Time>
            <Position>
              <LatitudeDegrees>42.97084542922675609588623046875</LatitudeDegrees>
              <LongitudeDegrees>-5.67009204067289829254150390625</LongitudeDegrees>
            </Position>
            <AltitudeMeters>1318.800048828125</AltitudeMeters>
            <DistanceMeters>NAN</DistanceMeters>
          </Trackpoint>
          <Trackpoint>
            <Time>2019-10-04T15:46:34.000Z</Time>
            <Position>
              <LatitudeDegrees>42.9706151783466339111328125</LatitudeDegrees>
              <LongitudeDegrees>-5.66989942453801631927490234375</LongitudeDegrees>
            </Position>
            <AltitudeMeters>1318.4000244140625</AltitudeMeters>
            <DistanceMeters>NAN</DistanceMeters>
          </Trackpoint>
          <Trackpoint>
            <Time>2019-10-04T15:46:40.000Z</Time>
            <Position>
              <LatitudeDegrees>42.970122657716274261474609375</LatitudeDegrees>
              <LongitudeDegrees>-5.6695000268518924713134765625</LongitudeDegrees>
            </Position>
            <AltitudeMeters>1318.4000244140625</AltitudeMeters>
            <DistanceMeters>NAN</DistanceMeters>
          </Trackpoint>
          <Trackpoint>
            <Time>2019-10-04T15:46:42.000Z</Time>
            <Position>
              <LatitudeDegrees>42.96995091252028942108154296875</LatitudeDegrees>
              <LongitudeDegrees>-5.669355355203151702880859375</LongitudeDegrees>
            </Position>
            <AltitudeMeters>1318.199951171875</AltitudeMeters>
            <DistanceMeters>NAN</DistanceMeters>
          </Trackpoint>
          <Trackpoint>
            <Time>2019-10-04T15:46:48.000Z</Time>
            <Position>
              <LatitudeDegrees>42.969416566193103790283203125</LatitudeDegrees>
              <LongitudeDegrees>-5.668910779058933258056640625</LongitudeDegrees>
            </Position>
            <AltitudeMeters>1317.199951171875</AltitudeMeters>
            <DistanceMeters>NAN</DistanceMeters>
          </Trackpoint>
          <Trackpoint>
            <Time>2019-10-04T15:46:51.000Z</Time>
            <Position>
              <LatitudeDegrees>42.9691377840936183929443359375</LatitudeDegrees>
              <LongitudeDegrees>-5.66867499612271785736083984375</LongitudeDegrees>
            </Position>
            <AltitudeMeters>1316.5999755859375</AltitudeMeters>
            <DistanceMeters>NAN</DistanceMeters>
          </Trackpoint>
          <Trackpoint>
            <Time>2019-10-04T15:46:54.000Z</Time>
            <Position>
              <LatitudeDegrees>42.96885573305189609527587890625</LatitudeDegrees>
              <LongitudeDegrees>-5.6684358604252338409423828125</LongitudeDegrees>
            </Position>
            <AltitudeMeters>1316.199951171875</AltitudeMeters>
            <DistanceMeters>NAN</DistanceMeters>
          </Trackpoint>
          <Trackpoint>
            <Time>2019-10-04T15:46:58.000Z</Time>
            <Position>
              <LatitudeDegrees>42.96847402118146419525146484375</LatitudeDegrees>
              <LongitudeDegrees>-5.6681180186569690704345703125</LongitudeDegrees>
            </Position>
            <AltitudeMeters>1314.800048828125</AltitudeMeters>
            <DistanceMeters>NAN</DistanceMeters>
          </Trackpoint>
          <Trackpoint>
            <Time>2019-10-04T15:47:01.000Z</Time>
            <Position>
              <LatitudeDegrees>42.96818417496979236602783203125</LatitudeDegrees>
              <LongitudeDegrees>-5.6678970716893672943115234375</LongitudeDegrees>
            </Position>
            <AltitudeMeters>1314.800048828125</AltitudeMeters>
            <DistanceMeters>NAN</DistanceMeters>
          </Trackpoint>
          <Trackpoint>
            <Time>2019-10-04T15:47:02.000Z</Time>
            <Position>
              <LatitudeDegrees>42.96808325685560703277587890625</LatitudeDegrees>
              <LongitudeDegrees>-5.66783864982426166534423828125</LongitudeDegrees>
            </Position>
            <AltitudeMeters>1314.4000244140625</AltitudeMeters>
            <DistanceMeters>NAN</DistanceMeters>
          </Trackpoint>
          <Trackpoint>
            <Time>2019-10-04T15:47:05.000Z</Time>
            <Position>
              <LatitudeDegrees>42.96777748502790927886962890625</LatitudeDegrees>
              <LongitudeDegrees>-5.6677101552486419677734375</LongitudeDegrees>
            </Position>
            <AltitudeMeters>1314.4000244140625</AltitudeMeters>
            <DistanceMeters>NAN</DistanceMeters>
          </Trackpoint>
          <Trackpoint>
            <Time>2019-10-04T15:47:06.000Z</Time>
            <Position>
              <LatitudeDegrees>42.96767371706664562225341796875</LatitudeDegrees>
              <LongitudeDegrees>-5.6676912121474742889404296875</LongitudeDegrees>
            </Position>
            <AltitudeMeters>1314</AltitudeMeters>
            <DistanceMeters>NAN</DistanceMeters>
          </Trackpoint>
          <Trackpoint>
            <Time>2019-10-04T15:47:09.000Z</Time>
            <Position>
              <LatitudeDegrees>42.96735453419387340545654296875</LatitudeDegrees>
              <LongitudeDegrees>-5.667687356472015380859375</LongitudeDegrees>
            </Position>
            <AltitudeMeters>1313.800048828125</AltitudeMeters>
            <DistanceMeters>NAN</DistanceMeters>
          </Trackpoint>
          <Trackpoint>
            <Time>2019-10-04T15:47:13.000Z</Time>
            <Position>
              <LatitudeDegrees>42.96694457530975341796875</LatitudeDegrees>
              <LongitudeDegrees>-5.66781719215214252471923828125</LongitudeDegrees>
            </Position>
            <AltitudeMeters>1313.199951171875</AltitudeMeters>
            <DistanceMeters>NAN</DistanceMeters>
          </Trackpoint>
          <Trackpoint>
            <Time>2019-10-04T15:47:16.000Z</Time>
            <Position>
              <LatitudeDegrees>42.96665078960359096527099609375</LatitudeDegrees>
              <LongitudeDegrees>-5.66795934922993183135986328125</LongitudeDegrees>
            </Position>
            <AltitudeMeters>1312.800048828125</AltitudeMeters>
            <DistanceMeters>NAN</DistanceMeters>
          </Trackpoint>
          <Trackpoint>
            <Time>2019-10-04T15:47:20.000Z</Time>
            <Position>
              <LatitudeDegrees>42.9662416689097881317138671875</LatitudeDegrees>
              <LongitudeDegrees>-5.66810452379286289215087890625</LongitudeDegrees>
            </Position>
            <AltitudeMeters>1312</AltitudeMeters>
            <DistanceMeters>NAN</DistanceMeters>
          </Trackpoint>
          <Trackpoint>
            <Time>2019-10-04T15:47:22.000Z</Time>
            <Position>
              <LatitudeDegrees>42.96602700836956501007080078125</LatitudeDegrees>
              <LongitudeDegrees>-5.66812514327466487884521484375</LongitudeDegrees>
            </Position>
            <AltitudeMeters>1311.5999755859375</AltitudeMeters>
            <DistanceMeters>NAN</DistanceMeters>
          </Trackpoint>
          <Trackpoint>
            <Time>2019-10-04T15:47:24.000Z</Time>
            <Position>
              <LatitudeDegrees>42.965811006724834442138671875</LatitudeDegrees>
              <LongitudeDegrees>-5.66810385324060916900634765625</LongitudeDegrees>
            </Position>
            <AltitudeMeters>1311</AltitudeMeters>
            <DistanceMeters>NAN</DistanceMeters>
          </Trackpoint>
          <Trackpoint>
            <Time>2019-10-04T15:47:27.000Z</Time>
            <Position>
              <LatitudeDegrees>42.9654919914901256561279296875</LatitudeDegrees>
              <LongitudeDegrees>-5.66801316104829311370849609375</LongitudeDegrees>
            </Position>
            <AltitudeMeters>1310.4000244140625</AltitudeMeters>
            <DistanceMeters>NAN</DistanceMeters>
          </Trackpoint>
          <Trackpoint>
            <Time>2019-10-04T15:47:29.000Z</Time>
            <Position>
              <LatitudeDegrees>42.9652834497392177581787109375</LatitudeDegrees>
              <LongitudeDegrees>-5.667929761111736297607421875</LongitudeDegrees>
            </Position>
            <AltitudeMeters>1309.800048828125</AltitudeMeters>
            <DistanceMeters>NAN</DistanceMeters>
          </Trackpoint>
          <Trackpoint>
            <Time>2019-10-04T15:47:30.000Z</Time>
            <Position>
              <LatitudeDegrees>42.96518077142536640167236328125</LatitudeDegrees>
              <LongitudeDegrees>-5.66788240335881710052490234375</LongitudeDegrees>
            </Position>
            <AltitudeMeters>1309.4000244140625</AltitudeMeters>
            <DistanceMeters>NAN</DistanceMeters>
          </Trackpoint>
          <Trackpoint>
            <Time>2019-10-04T15:47:35.000Z</Time>
            <Position>
              <LatitudeDegrees>42.9646702297031879425048828125</LatitudeDegrees>
              <LongitudeDegrees>-5.66765106283128261566162109375</LongitudeDegrees>
            </Position>
            <AltitudeMeters>1308.800048828125</AltitudeMeters>
            <DistanceMeters>NAN</DistanceMeters>
          </Trackpoint>
          <Trackpoint>
            <Time>2019-10-04T15:47:37.000Z</Time>
            <Position>
              <LatitudeDegrees>42.96446696855127811431884765625</LatitudeDegrees>
              <LongitudeDegrees>-5.667562969028949737548828125</LongitudeDegrees>
            </Position>
            <AltitudeMeters>1308.4000244140625</AltitudeMeters>
            <DistanceMeters>NAN</DistanceMeters>
          </Trackpoint>
          <Trackpoint>
            <Time>2019-10-04T15:47:41.000Z</Time>
            <Position>
              <LatitudeDegrees>42.96405893750488758087158203125</LatitudeDegrees>
              <LongitudeDegrees>-5.66737957298755645751953125</LongitudeDegrees>
            </Position>
            <AltitudeMeters>1307.199951171875</AltitudeMeters>
            <DistanceMeters>NAN</DistanceMeters>
          </Trackpoint>
          <Trackpoint>
            <Time>2019-10-04T15:47:46.000Z</Time>
            <Position>
              <LatitudeDegrees>42.96355753205716609954833984375</LatitudeDegrees>
              <LongitudeDegrees>-5.6671577878296375274658203125</LongitudeDegrees>
            </Position>
            <AltitudeMeters>1306.199951171875</AltitudeMeters>
            <DistanceMeters>NAN</DistanceMeters>
          </Trackpoint>
          <Trackpoint>
            <Time>2019-10-04T15:47:47.000Z</Time>
            <Position>
              <LatitudeDegrees>42.963456697762012481689453125</LatitudeDegrees>
              <LongitudeDegrees>-5.6671147048473358154296875</LongitudeDegrees>
            </Position>
            <AltitudeMeters>1305.800048828125</AltitudeMeters>
            <DistanceMeters>NAN</DistanceMeters>
          </Trackpoint>
          <Trackpoint>
            <Time>2019-10-04T15:47:51.000Z</Time>
            <Position>
              <LatitudeDegrees>42.96305478550493717193603515625</LatitudeDegrees>
              <LongitudeDegrees>-5.66693692468106746673583984375</LongitudeDegrees>
            </Position>
            <AltitudeMeters>1304.800048828125</AltitudeMeters>
            <DistanceMeters>NAN</DistanceMeters>
          </Trackpoint>
          <Trackpoint>
            <Time>2019-10-04T15:47:53.000Z</Time>
            <Position>
              <LatitudeDegrees>42.9628530330955982208251953125</LatitudeDegrees>
              <LongitudeDegrees>-5.66684388555586338043212890625</LongitudeDegrees>
            </Position>
            <AltitudeMeters>1303.800048828125</AltitudeMeters>
            <DistanceMeters>NAN</DistanceMeters>
          </Trackpoint>
          <Trackpoint>
            <Time>2019-10-04T15:47:58.000Z</Time>
            <Position>
              <LatitudeDegrees>42.9623440839350223541259765625</LatitudeDegrees>
              <LongitudeDegrees>-5.66661857999861240386962890625</LongitudeDegrees>
            </Position>
            <AltitudeMeters>1302.800048828125</AltitudeMeters>
            <DistanceMeters>NAN</DistanceMeters>
          </Trackpoint>
          <Trackpoint>
            <Time>2019-10-04T15:47:59.000Z</Time>
            <Position>
              <LatitudeDegrees>42.9622414894402027130126953125</LatitudeDegrees>
              <LongitudeDegrees>-5.6665737368166446685791015625</LongitudeDegrees>
            </Position>
            <AltitudeMeters>1302.5999755859375</AltitudeMeters>
            <DistanceMeters>NAN</DistanceMeters>
          </Trackpoint>
          <Trackpoint>
            <Time>2019-10-04T15:48:03.000Z</Time>
            <Position>
              <LatitudeDegrees>42.96182465739548206329345703125</LatitudeDegrees>
              <LongitudeDegrees>-5.666393525898456573486328125</LongitudeDegrees>
            </Position>
            <AltitudeMeters>1301.4000244140625</AltitudeMeters>
            <DistanceMeters>NAN</DistanceMeters>
          </Trackpoint>
          <Trackpoint>
            <Time>2019-10-04T15:48:05.000Z</Time>
            <Position>
              <LatitudeDegrees>42.96161703765392303466796875</LatitudeDegrees>
              <LongitudeDegrees>-5.6662934459745883941650390625</LongitudeDegrees>
            </Position>
            <AltitudeMeters>1300.800048828125</AltitudeMeters>
            <DistanceMeters>NAN</DistanceMeters>
          </Trackpoint>
          <Trackpoint>
            <Time>2019-10-04T15:48:06.000Z</Time>
            <Position>
              <LatitudeDegrees>42.96151251532137393951416015625</LatitudeDegrees>
              <LongitudeDegrees>-5.66624575294554233551025390625</LongitudeDegrees>
            </Position>
            <AltitudeMeters>1300.5999755859375</AltitudeMeters>
            <DistanceMeters>NAN</DistanceMeters>
          </Trackpoint>
          <Trackpoint>
            <Time>2019-10-04T15:48:07.000Z</Time>
            <Position>
              <LatitudeDegrees>42.9614073224365711212158203125</LatitudeDegrees>
              <LongitudeDegrees>-5.66619831137359142303466796875</LongitudeDegrees>
            </Position>
            <AltitudeMeters>1300.199951171875</AltitudeMeters>
            <DistanceMeters>NAN</DistanceMeters>
          </Trackpoint>
          <Trackpoint>
            <Time>2019-10-04T15:48:12.000Z</Time>
            <Position>
              <LatitudeDegrees>42.9608863033354282379150390625</LatitudeDegrees>
              <LongitudeDegrees>-5.665964372456073760986328125</LongitudeDegrees>
            </Position>
            <AltitudeMeters>1299.4000244140625</AltitudeMeters>
            <DistanceMeters>NAN</DistanceMeters>
          </Trackpoint>
          <Trackpoint>
            <Time>2019-10-04T15:48:14.000Z</Time>
            <Position>
              <LatitudeDegrees>42.96067717485129833221435546875</LatitudeDegrees>
              <LongitudeDegrees>-5.6658706627786159515380859375</LongitudeDegrees>
            </Position>
            <AltitudeMeters>1299.199951171875</AltitudeMeters>
            <DistanceMeters>NAN</DistanceMeters>
          </Trackpoint>
          <Trackpoint>
            <Time>2019-10-04T15:48:18.000Z</Time>
            <Position>
              <LatitudeDegrees>42.96025673858821392059326171875</LatitudeDegrees>
              <LongitudeDegrees>-5.66567595116794109344482421875</LongitudeDegrees>
            </Position>
            <AltitudeMeters>1298</AltitudeMeters>
            <DistanceMeters>NAN</DistanceMeters>
          </Trackpoint>
          <Trackpoint>
            <Time>2019-10-04T15:48:22.000Z</Time>
            <Position>
              <LatitudeDegrees>42.9598207958042621612548828125</LatitudeDegrees>
              <LongitudeDegrees>-5.66548333503305912017822265625</LongitudeDegrees>
            </Position>
            <AltitudeMeters>1297.199951171875</AltitudeMeters>
            <DistanceMeters>NAN</DistanceMeters>
          </Trackpoint>
          <Trackpoint>
            <Time>2019-10-04T15:48:23.000Z</Time>
            <Position>
              <LatitudeDegrees>42.95971074141561985015869140625</LatitudeDegrees>
              <LongitudeDegrees>-5.66543363034725189208984375</LongitudeDegrees>
            </Position>
            <AltitudeMeters>1296.5999755859375</AltitudeMeters>
            <DistanceMeters>NAN</DistanceMeters>
          </Trackpoint>
          <Trackpoint>
            <Time>2019-10-04T15:48:28.000Z</Time>
            <Position>
              <LatitudeDegrees>42.95914932154119014739990234375</LatitudeDegrees>
              <LongitudeDegrees>-5.66518678329885005950927734375</LongitudeDegrees>
            </Position>
            <AltitudeMeters>1296</AltitudeMeters>
            <DistanceMeters>NAN</DistanceMeters>
          </Trackpoint>
          <Trackpoint>
            <Time>2019-10-04T15:48:30.000Z</Time>
            <Position>
              <LatitudeDegrees>42.95891948975622653961181640625</LatitudeDegrees>
              <LongitudeDegrees>-5.66508837975561618804931640625</LongitudeDegrees>
            </Position>
            <AltitudeMeters>1295.800048828125</AltitudeMeters>
            <DistanceMeters>NAN</DistanceMeters>
          </Trackpoint>
          <Trackpoint>
            <Time>2019-10-04T15:48:31.000Z</Time>
            <Position>
              <LatitudeDegrees>42.95880482532083988189697265625</LatitudeDegrees>
              <LongitudeDegrees>-5.6650408543646335601806640625</LongitudeDegrees>
            </Position>
            <AltitudeMeters>1295.199951171875</AltitudeMeters>
            <DistanceMeters>NAN</DistanceMeters>
          </Trackpoint>
          <Trackpoint>
            <Time>2019-10-04T15:48:36.000Z</Time>
            <Position>
              <LatitudeDegrees>42.9582233726978302001953125</LatitudeDegrees>
              <LongitudeDegrees>-5.6648748926818370819091796875</LongitudeDegrees>
            </Position>
            <AltitudeMeters>1294.800048828125</AltitudeMeters>
            <DistanceMeters>NAN</DistanceMeters>
          </Trackpoint>
          <Trackpoint>
            <Time>2019-10-04T15:48:40.000Z</Time>
            <Position>
              <LatitudeDegrees>42.95776681043207645416259765625</LatitudeDegrees>
              <LongitudeDegrees>-5.664810352027416229248046875</LongitudeDegrees>
            </Position>
            <AltitudeMeters>1294.199951171875</AltitudeMeters>
            <DistanceMeters>NAN</DistanceMeters>
          </Trackpoint>
          <Trackpoint>
            <Time>2019-10-04T15:48:44.000Z</Time>
            <Position>
              <LatitudeDegrees>42.957335226237773895263671875</LatitudeDegrees>
              <LongitudeDegrees>-5.66474254243075847625732421875</LongitudeDegrees>
            </Position>
            <AltitudeMeters>1293.5999755859375</AltitudeMeters>
            <DistanceMeters>NAN</DistanceMeters>
          </Trackpoint>
          <Trackpoint>
            <Time>2019-10-04T15:48:47.000Z</Time>
            <Position>
              <LatitudeDegrees>42.95703071169555187225341796875</LatitudeDegrees>
              <LongitudeDegrees>-5.6646551191806793212890625</LongitudeDegrees>
            </Position>
            <AltitudeMeters>1292.800048828125</AltitudeMeters>
            <DistanceMeters>NAN</DistanceMeters>
          </Trackpoint>
          <Trackpoint>
            <Time>2019-10-04T15:48:49.000Z</Time>
            <Position>
              <LatitudeDegrees>42.95683465898036956787109375</LatitudeDegrees>
              <LongitudeDegrees>-5.66457289271056652069091796875</LongitudeDegrees>
            </Position>
            <AltitudeMeters>1292.5999755859375</AltitudeMeters>
            <DistanceMeters>NAN</DistanceMeters>
          </Trackpoint>
          <Trackpoint>
            <Time>2019-10-04T15:48:54.000Z</Time>
            <Position>
              <LatitudeDegrees>42.95635127462446689605712890625</LatitudeDegrees>
              <LongitudeDegrees>-5.6643377803266048431396484375</LongitudeDegrees>
            </Position>
            <AltitudeMeters>1291.800048828125</AltitudeMeters>
            <DistanceMeters>NAN</DistanceMeters>
          </Trackpoint>
          <Trackpoint>
            <Time>2019-10-04T15:48:58.000Z</Time>
            <Position>
              <LatitudeDegrees>42.95596486888825893402099609375</LatitudeDegrees>
              <LongitudeDegrees>-5.6641423143446445465087890625</LongitudeDegrees>
            </Position>
            <AltitudeMeters>1291.5999755859375</AltitudeMeters>
            <DistanceMeters>NAN</DistanceMeters>
          </Trackpoint>
          <Trackpoint>
            <Time>2019-10-04T15:49:03.000Z</Time>
            <Position>
              <LatitudeDegrees>42.95542557723820209503173828125</LatitudeDegrees>
              <LongitudeDegrees>-5.66385087557137012481689453125</LongitudeDegrees>
            </Position>
            <AltitudeMeters>1291.199951171875</AltitudeMeters>
            <DistanceMeters>NAN</DistanceMeters>
          </Trackpoint>
          <Trackpoint>
            <Time>2019-10-04T15:49:07.000Z</Time>
            <Position>
              <LatitudeDegrees>42.9550709389150142669677734375</LatitudeDegrees>
              <LongitudeDegrees>-5.6636652164161205291748046875</LongitudeDegrees>
            </Position>
            <AltitudeMeters>1290.5999755859375</AltitudeMeters>
            <DistanceMeters>NAN</DistanceMeters>
          </Trackpoint>
          <Trackpoint>
            <Time>2019-10-04T15:49:10.000Z</Time>
            <Position>
              <LatitudeDegrees>42.954766340553760528564453125</LatitudeDegrees>
              <LongitudeDegrees>-5.6635071337223052978515625</LongitudeDegrees>
            </Position>
            <AltitudeMeters>1289.5999755859375</AltitudeMeters>
            <DistanceMeters>NAN</DistanceMeters>
          </Trackpoint>
          <Trackpoint>
            <Time>2019-10-04T15:49:14.000Z</Time>
            <Position>
              <LatitudeDegrees>42.9543594829738140106201171875</LatitudeDegrees>
              <LongitudeDegrees>-5.66328777931630611419677734375</LongitudeDegrees>
            </Position>
            <AltitudeMeters>1288.5999755859375</AltitudeMeters>
            <DistanceMeters>NAN</DistanceMeters>
          </Trackpoint>
          <Trackpoint>
            <Time>2019-10-04T15:49:18.000Z</Time>
            <Position>
              <LatitudeDegrees>42.9539514519274234771728515625</LatitudeDegrees>
              <LongitudeDegrees>-5.6630778126418590545654296875</LongitudeDegrees>
            </Position>
            <AltitudeMeters>1287.5999755859375</AltitudeMeters>
            <DistanceMeters>NAN</DistanceMeters>
          </Trackpoint>
          <Trackpoint>
            <Time>2019-10-04T15:49:19.000Z</Time>
            <Position>
              <LatitudeDegrees>42.95384961180388927459716796875</LatitudeDegrees>
              <LongitudeDegrees>-5.66302366554737091064453125</LongitudeDegrees>
            </Position>
            <AltitudeMeters>1287.4000244140625</AltitudeMeters>
            <DistanceMeters>NAN</DistanceMeters>
          </Trackpoint>
          <Trackpoint>
            <Time>2019-10-04T15:49:22.000Z</Time>
            <Position>
              <LatitudeDegrees>42.95354937203228473663330078125</LatitudeDegrees>
              <LongitudeDegrees>-5.66285996697843074798583984375</LongitudeDegrees>
            </Position>
            <AltitudeMeters>1286.199951171875</AltitudeMeters>
            <DistanceMeters>NAN</DistanceMeters>
          </Trackpoint>
          <Trackpoint>
            <Time>2019-10-04T15:49:25.000Z</Time>
            <Position>
              <LatitudeDegrees>42.95326019637286663055419921875</LatitudeDegrees>
              <LongitudeDegrees>-5.6627130322158336639404296875</LongitudeDegrees>
            </Position>
            <AltitudeMeters>1285</AltitudeMeters>
            <DistanceMeters>NAN</DistanceMeters>
          </Trackpoint>
          <Trackpoint>
            <Time>2019-10-04T15:49:26.000Z</Time>
            <Position>
              <LatitudeDegrees>42.953165732324123382568359375</LatitudeDegrees>
              <LongitudeDegrees>-5.66266399808228015899658203125</LongitudeDegrees>
            </Position>
            <AltitudeMeters>1284.5999755859375</AltitudeMeters>
            <DistanceMeters>NAN</DistanceMeters>
          </Trackpoint>
          <Trackpoint>
            <Time>2019-10-04T15:49:29.000Z</Time>
            <Position>
              <LatitudeDegrees>42.9528852738440036773681640625</LatitudeDegrees>
              <LongitudeDegrees>-5.6625142134726047515869140625</LongitudeDegrees>
            </Position>
            <AltitudeMeters>1283.5999755859375</AltitudeMeters>
            <DistanceMeters>NAN</DistanceMeters>
          </Trackpoint>
          <Trackpoint>
            <Time>2019-10-04T15:49:32.000Z</Time>
            <Position>
              <LatitudeDegrees>42.95260456390678882598876953125</LatitudeDegrees>
              <LongitudeDegrees>-5.66236845217645168304443359375</LongitudeDegrees>
            </Position>
            <AltitudeMeters>1282.5999755859375</AltitudeMeters>
            <DistanceMeters>NAN</DistanceMeters>
          </Trackpoint>
          <Trackpoint>
            <Time>2019-10-04T15:49:33.000Z</Time>
            <Position>
              <LatitudeDegrees>42.952510602772235870361328125</LatitudeDegrees>
              <LongitudeDegrees>-5.66231732256710529327392578125</LongitudeDegrees>
            </Position>
            <AltitudeMeters>1282.4000244140625</AltitudeMeters>
            <DistanceMeters>NAN</DistanceMeters>
          </Trackpoint>
          <Trackpoint>
            <Time>2019-10-04T15:49:38.000Z</Time>
            <Position>
              <LatitudeDegrees>42.95203492976725101470947265625</LatitudeDegrees>
              <LongitudeDegrees>-5.6620656140148639678955078125</LongitudeDegrees>
            </Position>
            <AltitudeMeters>1281.4000244140625</AltitudeMeters>
            <DistanceMeters>NAN</DistanceMeters>
          </Trackpoint>
          <Trackpoint>
            <Time>2019-10-04T15:49:43.000Z</Time>
            <Position>
              <LatitudeDegrees>42.95154827646911144256591796875</LatitudeDegrees>
              <LongitudeDegrees>-5.66181390546262264251708984375</LongitudeDegrees>
            </Position>
            <AltitudeMeters>1279.800048828125</AltitudeMeters>
            <DistanceMeters>NAN</DistanceMeters>
          </Trackpoint>
          <Trackpoint>
            <Time>2019-10-04T15:49:48.000Z</Time>
            <Position>
              <LatitudeDegrees>42.9510429315268993377685546875</LatitudeDegrees>
              <LongitudeDegrees>-5.66154937259852886199951171875</LongitudeDegrees>
            </Position>
            <AltitudeMeters>1278.800048828125</AltitudeMeters>
            <DistanceMeters>NAN</DistanceMeters>
          </Trackpoint>
          <Trackpoint>
            <Time>2019-10-04T15:49:51.000Z</Time>
            <Position>
              <LatitudeDegrees>42.950736992061138153076171875</LatitudeDegrees>
              <LongitudeDegrees>-5.6613860093057155609130859375</LongitudeDegrees>
            </Position>
            <AltitudeMeters>1278.199951171875</AltitudeMeters>
            <DistanceMeters>NAN</DistanceMeters>
          </Trackpoint>
          <Trackpoint>
            <Time>2019-10-04T15:49:55.000Z</Time>
            <Position>
              <LatitudeDegrees>42.95033222995698451995849609375</LatitudeDegrees>
              <LongitudeDegrees>-5.6611724384129047393798828125</LongitudeDegrees>
            </Position>
            <AltitudeMeters>1277.5999755859375</AltitudeMeters>
            <DistanceMeters>NAN</DistanceMeters>
          </Trackpoint>
          <Trackpoint>
            <Time>2019-10-04T15:49:59.000Z</Time>
            <Position>
              <LatitudeDegrees>42.9499328322708606719970703125</LatitudeDegrees>
              <LongitudeDegrees>-5.6609645672142505645751953125</LongitudeDegrees>
            </Position>
            <AltitudeMeters>1277.4000244140625</AltitudeMeters>
            <DistanceMeters>NAN</DistanceMeters>
          </Trackpoint>
          <Trackpoint>
            <Time>2019-10-04T15:50:05.000Z</Time>
            <Position>
              <LatitudeDegrees>42.949354648590087890625</LatitudeDegrees>
              <LongitudeDegrees>-5.66066139377653598785400390625</LongitudeDegrees>
            </Position>
            <AltitudeMeters>1277</AltitudeMeters>
            <DistanceMeters>NAN</DistanceMeters>
          </Trackpoint>
          <Trackpoint>
            <Time>2019-10-04T15:50:07.000Z</Time>
            <Position>
              <LatitudeDegrees>42.94916689395904541015625</LatitudeDegrees>
              <LongitudeDegrees>-5.66056315787136554718017578125</LongitudeDegrees>
            </Position>
            <AltitudeMeters>1277</AltitudeMeters>
            <DistanceMeters>NAN</DistanceMeters>
          </Trackpoint>
          <Trackpoint>
            <Time>2019-10-04T15:50:09.000Z</Time>
            <Position>
              <LatitudeDegrees>42.9489777982234954833984375</LatitudeDegrees>
              <LongitudeDegrees>-5.66046643070876598358154296875</LongitudeDegrees>
            </Position>
            <AltitudeMeters>1276.5999755859375</AltitudeMeters>
            <DistanceMeters>NAN</DistanceMeters>
          </Trackpoint>
          <Trackpoint>
            <Time>2019-10-04T15:50:15.000Z</Time>
            <Position>
              <LatitudeDegrees>42.948443703353404998779296875</LatitudeDegrees>
              <LongitudeDegrees>-5.66017641685903072357177734375</LongitudeDegrees>
            </Position>
            <AltitudeMeters>1275.800048828125</AltitudeMeters>
            <DistanceMeters>NAN</DistanceMeters>
          </Trackpoint>
          <Trackpoint>
            <Time>2019-10-04T15:50:18.000Z</Time>
            <Position>
              <LatitudeDegrees>42.94818176887929439544677734375</LatitudeDegrees>
              <LongitudeDegrees>-5.66003878600895404815673828125</LongitudeDegrees>
            </Position>
            <AltitudeMeters>1275.4000244140625</AltitudeMeters>
            <DistanceMeters>NAN</DistanceMeters>
          </Trackpoint>
          <Trackpoint>
            <Time>2019-10-04T15:50:21.000Z</Time>
            <Position>
              <LatitudeDegrees>42.94792293570935726165771484375</LatitudeDegrees>
              <LongitudeDegrees>-5.659901909530162811279296875</LongitudeDegrees>
            </Position>
            <AltitudeMeters>1275</AltitudeMeters>
            <DistanceMeters>NAN</DistanceMeters>
          </Trackpoint>
          <Trackpoint>
            <Time>2019-10-04T15:50:27.000Z</Time>
            <Position>
              <LatitudeDegrees>42.9474082030355930328369140625</LatitudeDegrees>
              <LongitudeDegrees>-5.65963578410446643829345703125</LongitudeDegrees>
            </Position>
            <AltitudeMeters>1275</AltitudeMeters>
            <DistanceMeters>NAN</DistanceMeters>
          </Trackpoint>
          <Trackpoint>
            <Time>2019-10-04T15:50:30.000Z</Time>
            <Position>
              <LatitudeDegrees>42.94713989831507205963134765625</LatitudeDegrees>
              <LongitudeDegrees>-5.659495890140533447265625</LongitudeDegrees>
            </Position>
            <AltitudeMeters>1274.800048828125</AltitudeMeters>
            <DistanceMeters>NAN</DistanceMeters>
          </Trackpoint>
          <Trackpoint>
            <Time>2019-10-04T15:50:33.000Z</Time>
            <Position>
              <LatitudeDegrees>42.94685893692076206207275390625</LatitudeDegrees>
              <LongitudeDegrees>-5.6593716703355312347412109375</LongitudeDegrees>
            </Position>
            <AltitudeMeters>1274.199951171875</AltitudeMeters>
            <DistanceMeters>NAN</DistanceMeters>
          </Trackpoint>
          <Trackpoint>
            <Time>2019-10-04T15:50:36.000Z</Time>
            <Position>
              <LatitudeDegrees>42.94656624086201190948486328125</LatitudeDegrees>
              <LongitudeDegrees>-5.65927938558161258697509765625</LongitudeDegrees>
            </Position>
            <AltitudeMeters>1273.800048828125</AltitudeMeters>
            <DistanceMeters>NAN</DistanceMeters>
          </Trackpoint>
          <Trackpoint>
            <Time>2019-10-04T15:50:38.000Z</Time>
            <Position>
              <LatitudeDegrees>42.94636809267103672027587890625</LatitudeDegrees>
              <LongitudeDegrees>-5.6592368893325328826904296875</LongitudeDegrees>
            </Position>
            <AltitudeMeters>1273</AltitudeMeters>
            <DistanceMeters>NAN</DistanceMeters>
          </Trackpoint>
          <Trackpoint>
            <Time>2019-10-04T15:50:42.000Z</Time>
            <Position>
              <LatitudeDegrees>42.945964671671390533447265625</LatitudeDegrees>
              <LongitudeDegrees>-5.659192465245723724365234375</LongitudeDegrees>
            </Position>
            <AltitudeMeters>1272</AltitudeMeters>
            <DistanceMeters>NAN</DistanceMeters>
          </Trackpoint>
          <Trackpoint>
            <Time>2019-10-04T15:50:47.000Z</Time>
            <Position>
              <LatitudeDegrees>42.945461757481098175048828125</LatitudeDegrees>
              <LongitudeDegrees>-5.65921333618462085723876953125</LongitudeDegrees>
            </Position>
            <AltitudeMeters>1271</AltitudeMeters>
            <DistanceMeters>NAN</DistanceMeters>
          </Trackpoint>
          <Trackpoint>
            <Time>2019-10-04T15:50:49.000Z</Time>
            <Position>
              <LatitudeDegrees>42.94526721350848674774169921875</LatitudeDegrees>
              <LongitudeDegrees>-5.6592429243028163909912109375</LongitudeDegrees>
            </Position>
            <AltitudeMeters>1270.5999755859375</AltitudeMeters>
            <DistanceMeters>NAN</DistanceMeters>
          </Trackpoint>
          <Trackpoint>
            <Time>2019-10-04T15:50:51.000Z</Time>
            <Position>
              <LatitudeDegrees>42.94507577084004878997802734375</LatitudeDegrees>
              <LongitudeDegrees>-5.6592727638781070709228515625</LongitudeDegrees>
            </Position>
            <AltitudeMeters>1269.800048828125</AltitudeMeters>
            <DistanceMeters>NAN</DistanceMeters>
          </Trackpoint>
          <Trackpoint>
            <Time>2019-10-04T15:50:55.000Z</Time>
            <Position>
              <LatitudeDegrees>42.9447028599679470062255859375</LatitudeDegrees>
              <LongitudeDegrees>-5.6593336164951324462890625</LongitudeDegrees>
            </Position>
            <AltitudeMeters>1268.800048828125</AltitudeMeters>
            <DistanceMeters>NAN</DistanceMeters>
          </Trackpoint>
          <Trackpoint>
            <Time>2019-10-04T15:50:58.000Z</Time>
            <Position>
              <LatitudeDegrees>42.944432459771633148193359375</LatitudeDegrees>
              <LongitudeDegrees>-5.659388266503810882568359375</LongitudeDegrees>
            </Position>
            <AltitudeMeters>1268.199951171875</AltitudeMeters>
            <DistanceMeters>NAN</DistanceMeters>
          </Trackpoint>
          <Trackpoint>
            <Time>2019-10-04T15:51:01.000Z</Time>
            <Position>
              <LatitudeDegrees>42.9441634006798267364501953125</LatitudeDegrees>
              <LongitudeDegrees>-5.65943528898060321807861328125</LongitudeDegrees>
            </Position>
            <AltitudeMeters>1267.4000244140625</AltitudeMeters>
            <DistanceMeters>NAN</DistanceMeters>
          </Trackpoint>
          <Trackpoint>
            <Time>2019-10-04T15:51:05.000Z</Time>
            <Position>
              <LatitudeDegrees>42.9437982849776744842529296875</LatitudeDegrees>
              <LongitudeDegrees>-5.65949656069278717041015625</LongitudeDegrees>
            </Position>
            <AltitudeMeters>1266.5999755859375</AltitudeMeters>
            <DistanceMeters>NAN</DistanceMeters>
          </Trackpoint>
          <Trackpoint>
            <Time>2019-10-04T15:51:06.000Z</Time>
            <Position>
              <LatitudeDegrees>42.94370549730956554412841796875</LatitudeDegrees>
              <LongitudeDegrees>-5.65951257012784481048583984375</LongitudeDegrees>
            </Position>
            <AltitudeMeters>1266.4000244140625</AltitudeMeters>
            <DistanceMeters>NAN</DistanceMeters>
          </Trackpoint>
          <Trackpoint>
            <Time>2019-10-04T15:51:09.000Z</Time>
            <Position>
              <LatitudeDegrees>42.943430654704570770263671875</LatitudeDegrees>
              <LongitudeDegrees>-5.65956034697592258453369140625</LongitudeDegrees>
            </Position>
            <AltitudeMeters>1265.4000244140625</AltitudeMeters>
            <DistanceMeters>NAN</DistanceMeters>
          </Trackpoint>
          <Trackpoint>
            <Time>2019-10-04T15:51:10.000Z</Time>
            <Position>
              <LatitudeDegrees>42.9433416388928890228271484375</LatitudeDegrees>
              <LongitudeDegrees>-5.65957761369645595550537109375</LongitudeDegrees>
            </Position>
            <AltitudeMeters>1265.199951171875</AltitudeMeters>
            <DistanceMeters>NAN</DistanceMeters>
          </Trackpoint>
          <Trackpoint>
            <Time>2019-10-04T15:51:14.000Z</Time>
            <Position>
              <LatitudeDegrees>42.94299236498773097991943359375</LatitudeDegrees>
              <LongitudeDegrees>-5.6596559844911098480224609375</LongitudeDegrees>
            </Position>
            <AltitudeMeters>1264.5999755859375</AltitudeMeters>
            <DistanceMeters>NAN</DistanceMeters>
          </Trackpoint>
          <Trackpoint>
            <Time>2019-10-04T15:51:16.000Z</Time>
            <Position>
              <LatitudeDegrees>42.94281969778239727020263671875</LatitudeDegrees>
              <LongitudeDegrees>-5.659705437719821929931640625</LongitudeDegrees>
            </Position>
            <AltitudeMeters>1264.199951171875</AltitudeMeters>
            <DistanceMeters>NAN</DistanceMeters>
          </Trackpoint>
          <Trackpoint>
            <Time>2019-10-04T15:51:20.000Z</Time>
            <Position>
              <LatitudeDegrees>42.94247905723750591278076171875</LatitudeDegrees>
              <LongitudeDegrees>-5.65977961756289005279541015625</LongitudeDegrees>
            </Position>
            <AltitudeMeters>1263</AltitudeMeters>
            <DistanceMeters>NAN</DistanceMeters>
          </Trackpoint>
          <Trackpoint>
            <Time>2019-10-04T15:51:22.000Z</Time>
            <Position>
              <LatitudeDegrees>42.94231049716472625732421875</LatitudeDegrees>
              <LongitudeDegrees>-5.65981113351881504058837890625</LongitudeDegrees>
            </Position>
            <AltitudeMeters>1262.5999755859375</AltitudeMeters>
            <DistanceMeters>NAN</DistanceMeters>
          </Trackpoint>
          <Trackpoint>
            <Time>2019-10-04T15:51:26.000Z</Time>
            <Position>
              <LatitudeDegrees>42.941978238523006439208984375</LatitudeDegrees>
              <LongitudeDegrees>-5.65986393950879573822021484375</LongitudeDegrees>
            </Position>
            <AltitudeMeters>1262</AltitudeMeters>
            <DistanceMeters>NAN</DistanceMeters>
          </Trackpoint>
          <Trackpoint>
            <Time>2019-10-04T15:51:30.000Z</Time>
            <Position>
              <LatitudeDegrees>42.94164706952869892120361328125</LatitudeDegrees>
              <LongitudeDegrees>-5.6599114648997783660888671875</LongitudeDegrees>
            </Position>
            <AltitudeMeters>1261.199951171875</AltitudeMeters>
            <DistanceMeters>NAN</DistanceMeters>
          </Trackpoint>
          <Trackpoint>
            <Time>2019-10-04T15:51:32.000Z</Time>
            <Position>
              <LatitudeDegrees>42.941482029855251312255859375</LatitudeDegrees>
              <LongitudeDegrees>-5.65992663614451885223388671875</LongitudeDegrees>
            </Position>
            <AltitudeMeters>1260.800048828125</AltitudeMeters>
            <DistanceMeters>NAN</DistanceMeters>
          </Trackpoint>
          <Trackpoint>
            <Time>2019-10-04T15:51:37.000Z</Time>
            <Position>
              <LatitudeDegrees>42.9410701431334018707275390625</LatitudeDegrees>
              <LongitudeDegrees>-5.65993853844702243804931640625</LongitudeDegrees>
            </Position>
            <AltitudeMeters>1259.5999755859375</AltitudeMeters>
            <DistanceMeters>NAN</DistanceMeters>
          </Trackpoint>
          <Trackpoint>
            <Time>2019-10-04T15:51:42.000Z</Time>
            <Position>
              <LatitudeDegrees>42.94066320173442363739013671875</LatitudeDegrees>
              <LongitudeDegrees>-5.659921355545520782470703125</LongitudeDegrees>
            </Position>
            <AltitudeMeters>1259</AltitudeMeters>
            <DistanceMeters>NAN</DistanceMeters>
          </Trackpoint>
          <Trackpoint>
            <Time>2019-10-04T15:51:44.000Z</Time>
            <Position>
              <LatitudeDegrees>42.9405008442699909210205078125</LatitudeDegrees>
              <LongitudeDegrees>-5.65990651957690715789794921875</LongitudeDegrees>
            </Position>
            <AltitudeMeters>1258.5999755859375</AltitudeMeters>
            <DistanceMeters>NAN</DistanceMeters>
          </Trackpoint>
          <Trackpoint>
            <Time>2019-10-04T15:51:45.000Z</Time>
            <Position>
              <LatitudeDegrees>42.94041912071406841278076171875</LatitudeDegrees>
              <LongitudeDegrees>-5.65989746712148189544677734375</LongitudeDegrees>
            </Position>
            <AltitudeMeters>1258.5999755859375</AltitudeMeters>
            <DistanceMeters>NAN</DistanceMeters>
          </Trackpoint>
          <Trackpoint>
            <Time>2019-10-04T15:51:48.000Z</Time>
            <Position>
              <LatitudeDegrees>42.94017571024596691131591796875</LatitudeDegrees>
              <LongitudeDegrees>-5.65985740162432193756103515625</LongitudeDegrees>
            </Position>
            <AltitudeMeters>1257.4000244140625</AltitudeMeters>
            <DistanceMeters>NAN</DistanceMeters>
          </Trackpoint>
          <Trackpoint>
            <Time>2019-10-04T15:51:52.000Z</Time>
            <Position>
              <LatitudeDegrees>42.939851917326450347900390625</LatitudeDegrees>
              <LongitudeDegrees>-5.65978146158158779144287109375</LongitudeDegrees>
            </Position>
            <AltitudeMeters>1257</AltitudeMeters>
            <DistanceMeters>NAN</DistanceMeters>
          </Trackpoint>
          <Trackpoint>
            <Time>2019-10-04T15:51:54.000Z</Time>
            <Position>
              <LatitudeDegrees>42.93968905694782733917236328125</LatitudeDegrees>
              <LongitudeDegrees>-5.65973636694252490997314453125</LongitudeDegrees>
            </Position>
            <AltitudeMeters>1256.199951171875</AltitudeMeters>
            <DistanceMeters>NAN</DistanceMeters>
          </Trackpoint>
          <Trackpoint>
            <Time>2019-10-04T15:51:58.000Z</Time>
            <Position>
              <LatitudeDegrees>42.93936501257121562957763671875</LatitudeDegrees>
              <LongitudeDegrees>-5.6596331857144832611083984375</LongitudeDegrees>
            </Position>
            <AltitudeMeters>1254.800048828125</AltitudeMeters>
            <DistanceMeters>NAN</DistanceMeters>
          </Trackpoint>
          <Trackpoint>
            <Time>2019-10-04T15:52:02.000Z</Time>
            <Position>
              <LatitudeDegrees>42.9390447400510311126708984375</LatitudeDegrees>
              <LongitudeDegrees>-5.6595000810921192169189453125</LongitudeDegrees>
            </Position>
            <AltitudeMeters>1254</AltitudeMeters>
            <DistanceMeters>NAN</DistanceMeters>
          </Trackpoint>
          <Trackpoint>
            <Time>2019-10-04T15:52:03.000Z</Time>
            <Position>
              <LatitudeDegrees>42.93896636925637722015380859375</LatitudeDegrees>
              <LongitudeDegrees>-5.65946529619395732879638671875</LongitudeDegrees>
            </Position>
            <AltitudeMeters>1253.800048828125</AltitudeMeters>
            <DistanceMeters>NAN</DistanceMeters>
          </Trackpoint>
          <Trackpoint>
            <Time>2019-10-04T15:52:06.000Z</Time>
            <Position>
              <LatitudeDegrees>42.938734777271747589111328125</LatitudeDegrees>
              <LongitudeDegrees>-5.65936119295656681060791015625</LongitudeDegrees>
            </Position>
            <AltitudeMeters>1252.800048828125</AltitudeMeters>
            <DistanceMeters>NAN</DistanceMeters>
          </Trackpoint>
          <Trackpoint>
            <Time>2019-10-04T15:52:10.000Z</Time>
            <Position>
              <LatitudeDegrees>42.93843545950949192047119140625</LatitudeDegrees>
              <LongitudeDegrees>-5.65921224653720855712890625</LongitudeDegrees>
            </Position>
            <AltitudeMeters>1252.4000244140625</AltitudeMeters>
            <DistanceMeters>NAN</DistanceMeters>
          </Trackpoint>
          <Trackpoint>
            <Time>2019-10-04T15:52:12.000Z</Time>
            <Position>
              <LatitudeDegrees>42.9382813163101673126220703125</LatitudeDegrees>
              <LongitudeDegrees>-5.65913722850382328033447265625</LongitudeDegrees>
            </Position>
            <AltitudeMeters>1251.5999755859375</AltitudeMeters>
            <DistanceMeters>NAN</DistanceMeters>
          </Trackpoint>
          <Trackpoint>
            <Time>2019-10-04T15:52:16.000Z</Time>
            <Position>
              <LatitudeDegrees>42.9379721917212009429931640625</LatitudeDegrees>
              <LongitudeDegrees>-5.658977888524532318115234375</LongitudeDegrees>
            </Position>
            <AltitudeMeters>1250.4000244140625</AltitudeMeters>
            <DistanceMeters>NAN</DistanceMeters>
          </Trackpoint>
          <Trackpoint>
            <Time>2019-10-04T15:52:17.000Z</Time>
            <Position>
              <LatitudeDegrees>42.937893569469451904296875</LatitudeDegrees>
              <LongitudeDegrees>-5.65893908031284809112548828125</LongitudeDegrees>
            </Position>
            <AltitudeMeters>1250.5999755859375</AltitudeMeters>
            <DistanceMeters>NAN</DistanceMeters>
          </Trackpoint>
          <Trackpoint>
            <Time>2019-10-04T15:52:22.000Z</Time>
            <Position>
              <LatitudeDegrees>42.93749467469751834869384765625</LatitudeDegrees>
              <LongitudeDegrees>-5.6587480567395687103271484375</LongitudeDegrees>
            </Position>
            <AltitudeMeters>1249.199951171875</AltitudeMeters>
            <DistanceMeters>NAN</DistanceMeters>
          </Trackpoint>
          <Trackpoint>
            <Time>2019-10-04T15:52:27.000Z</Time>
            <Position>
              <LatitudeDegrees>42.9370991326868534088134765625</LatitudeDegrees>
              <LongitudeDegrees>-5.658552087843418121337890625</LongitudeDegrees>
            </Position>
            <AltitudeMeters>1248</AltitudeMeters>
            <DistanceMeters>NAN</DistanceMeters>
          </Trackpoint>
          <Trackpoint>
            <Time>2019-10-04T15:52:32.000Z</Time>
            <Position>
              <LatitudeDegrees>42.9367182590067386627197265625</LatitudeDegrees>
              <LongitudeDegrees>-5.65836341120302677154541015625</LongitudeDegrees>
            </Position>
            <AltitudeMeters>1246.5999755859375</AltitudeMeters>
            <DistanceMeters>NAN</DistanceMeters>
          </Trackpoint>
          <Trackpoint>
            <Time>2019-10-04T15:52:34.000Z</Time>
            <Position>
              <LatitudeDegrees>42.93656847439706325531005859375</LatitudeDegrees>
              <LongitudeDegrees>-5.6582880578935146331787109375</LongitudeDegrees>
            </Position>
            <AltitudeMeters>1246.5999755859375</AltitudeMeters>
            <DistanceMeters>NAN</DistanceMeters>
          </Trackpoint>
          <Trackpoint>
            <Time>2019-10-04T15:52:40.000Z</Time>
            <Position>
              <LatitudeDegrees>42.93611970730125904083251953125</LatitudeDegrees>
              <LongitudeDegrees>-5.65806769765913486480712890625</LongitudeDegrees>
            </Position>
            <AltitudeMeters>1245.199951171875</AltitudeMeters>
            <DistanceMeters>NAN</DistanceMeters>
          </Trackpoint>
          <Trackpoint>
            <Time>2019-10-04T15:52:46.000Z</Time>
            <Position>
              <LatitudeDegrees>42.93566934764385223388671875</LatitudeDegrees>
              <LongitudeDegrees>-5.65784524194896221160888671875</LongitudeDegrees>
            </Position>
            <AltitudeMeters>1244.5999755859375</AltitudeMeters>
            <DistanceMeters>NAN</DistanceMeters>
          </Trackpoint>
          <Trackpoint>
            <Time>2019-10-04T15:52:48.000Z</Time>
            <Position>
              <LatitudeDegrees>42.93552023358643054962158203125</LatitudeDegrees>
              <LongitudeDegrees>-5.6577757559716701507568359375</LongitudeDegrees>
            </Position>
            <AltitudeMeters>1244</AltitudeMeters>
            <DistanceMeters>NAN</DistanceMeters>
          </Trackpoint>
          <Trackpoint>
            <Time>2019-10-04T15:52:53.000Z</Time>
            <Position>
              <LatitudeDegrees>42.935148663818836212158203125</LatitudeDegrees>
              <LongitudeDegrees>-5.65758992917835712432861328125</LongitudeDegrees>
            </Position>
            <AltitudeMeters>1243</AltitudeMeters>
            <DistanceMeters>NAN</DistanceMeters>
          </Trackpoint>
          <Trackpoint>
            <Time>2019-10-04T15:52:55.000Z</Time>
            <Position>
              <LatitudeDegrees>42.9350036568939685821533203125</LatitudeDegrees>
              <LongitudeDegrees>-5.6575182639062404632568359375</LongitudeDegrees>
            </Position>
            <AltitudeMeters>1242.5999755859375</AltitudeMeters>
            <DistanceMeters>NAN</DistanceMeters>
          </Trackpoint>
          <Trackpoint>
            <Time>2019-10-04T15:53:01.000Z</Time>
            <Position>
              <LatitudeDegrees>42.93456939049065113067626953125</LatitudeDegrees>
              <LongitudeDegrees>-5.65730980597436428070068359375</LongitudeDegrees>
            </Position>
            <AltitudeMeters>1241.800048828125</AltitudeMeters>
            <DistanceMeters>NAN</DistanceMeters>
          </Trackpoint>
          <Trackpoint>
            <Time>2019-10-04T15:53:04.000Z</Time>
            <Position>
              <LatitudeDegrees>42.934353053569793701171875</LatitudeDegrees>
              <LongitudeDegrees>-5.65719732083380222320556640625</LongitudeDegrees>
            </Position>
            <AltitudeMeters>1242</AltitudeMeters>
            <DistanceMeters>NAN</DistanceMeters>
          </Trackpoint>
          <Trackpoint>
            <Time>2019-10-04T15:53:10.000Z</Time>
            <Position>
              <LatitudeDegrees>42.9339616186916828155517578125</LatitudeDegrees>
              <LongitudeDegrees>-5.6570022739470005035400390625</LongitudeDegrees>
            </Position>
            <AltitudeMeters>1241.5999755859375</AltitudeMeters>
            <DistanceMeters>NAN</DistanceMeters>
          </Trackpoint>
          <Trackpoint>
            <Time>2019-10-04T15:53:14.000Z</Time>
            <Position>
              <LatitudeDegrees>42.93382993899285793304443359375</LatitudeDegrees>
              <LongitudeDegrees>-5.6569476239383220672607421875</LongitudeDegrees>
            </Position>
            <AltitudeMeters>1241.5999755859375</AltitudeMeters>
            <DistanceMeters>NAN</DistanceMeters>
          </Trackpoint>
          <Trackpoint>
            <Time>2019-10-04T15:53:18.000Z</Time>
            <Position>
              <LatitudeDegrees>42.9338204674422740936279296875</LatitudeDegrees>
              <LongitudeDegrees>-5.65694318152964115142822265625</LongitudeDegrees>
            </Position>
            <AltitudeMeters>1241.5999755859375</AltitudeMeters>
            <DistanceMeters>NAN</DistanceMeters>
          </Trackpoint>
          <Trackpoint>
            <Time>2019-10-04T15:53:27.000Z</Time>
            <Position>
              <LatitudeDegrees>42.9338181205093860626220703125</LatitudeDegrees>
              <LongitudeDegrees>-5.65694804303348064422607421875</LongitudeDegrees>
            </Position>
            <AltitudeMeters>1241.5999755859375</AltitudeMeters>
            <DistanceMeters>NAN</DistanceMeters>
          </Trackpoint>
          <Trackpoint>
            <Time>2019-10-04T15:53:38.000Z</Time>
            <Position>
              <LatitudeDegrees>42.9338204674422740936279296875</LatitudeDegrees>
              <LongitudeDegrees>-5.65694318152964115142822265625</LongitudeDegrees>
            </Position>
            <AltitudeMeters>1241.199951171875</AltitudeMeters>
            <DistanceMeters>NAN</DistanceMeters>
          </Trackpoint>
          <Trackpoint>
            <Time>2019-10-04T15:53:50.000Z</Time>
            <Position>
              <LatitudeDegrees>42.9338204674422740936279296875</LatitudeDegrees>
              <LongitudeDegrees>-5.65694318152964115142822265625</LongitudeDegrees>
            </Position>
            <AltitudeMeters>1241.199951171875</AltitudeMeters>
            <DistanceMeters>NAN</DistanceMeters>
          </Trackpoint>
          <Trackpoint>
            <Time>2019-10-04T15:54:05.000Z</Time>
            <Position>
              <LatitudeDegrees>42.93381485156714916229248046875</LatitudeDegrees>
              <LongitudeDegrees>-5.65693245269358158111572265625</LongitudeDegrees>
            </Position>
            <AltitudeMeters>1241.800048828125</AltitudeMeters>
            <DistanceMeters>NAN</DistanceMeters>
          </Trackpoint>
          <Trackpoint>
            <Time>2019-10-04T15:54:15.000Z</Time>
            <Position>
              <LatitudeDegrees>42.93381485156714916229248046875</LatitudeDegrees>
              <LongitudeDegrees>-5.65693245269358158111572265625</LongitudeDegrees>
            </Position>
            <AltitudeMeters>1242</AltitudeMeters>
            <DistanceMeters>NAN</DistanceMeters>
          </Trackpoint>
          <Trackpoint>
            <Time>2019-10-04T15:54:23.000Z</Time>
            <Position>
              <LatitudeDegrees>42.93381485156714916229248046875</LatitudeDegrees>
              <LongitudeDegrees>-5.65693245269358158111572265625</LongitudeDegrees>
            </Position>
            <AltitudeMeters>1242.4000244140625</AltitudeMeters>
            <DistanceMeters>NAN</DistanceMeters>
          </Trackpoint>
          <Trackpoint>
            <Time>2019-10-04T15:54:26.000Z</Time>
            <Position>
              <LatitudeDegrees>42.93381485156714916229248046875</LatitudeDegrees>
              <LongitudeDegrees>-5.65693245269358158111572265625</LongitudeDegrees>
            </Position>
            <AltitudeMeters>1242.4000244140625</AltitudeMeters>
            <DistanceMeters>NAN</DistanceMeters>
          </Trackpoint>
          <Trackpoint>
            <Time>2019-10-04T15:54:30.000Z</Time>
            <Position>
              <LatitudeDegrees>42.93381485156714916229248046875</LatitudeDegrees>
              <LongitudeDegrees>-5.65693245269358158111572265625</LongitudeDegrees>
            </Position>
            <AltitudeMeters>1241.4000244140625</AltitudeMeters>
            <DistanceMeters>NAN</DistanceMeters>
          </Trackpoint>
          <Trackpoint>
            <Time>2019-10-04T15:54:34.000Z</Time>
            <Position>
              <LatitudeDegrees>42.93381485156714916229248046875</LatitudeDegrees>
              <LongitudeDegrees>-5.65693245269358158111572265625</LongitudeDegrees>
            </Position>
            <AltitudeMeters>1240.4000244140625</AltitudeMeters>
            <DistanceMeters>NAN</DistanceMeters>
          </Trackpoint>
          <Trackpoint>
            <Time>2019-10-04T15:54:36.000Z</Time>
            <Position>
              <LatitudeDegrees>42.93381468392908573150634765625</LatitudeDegrees>
              <LongitudeDegrees>-5.65693798474967479705810546875</LongitudeDegrees>
            </Position>
            <AltitudeMeters>1240</AltitudeMeters>
            <DistanceMeters>NAN</DistanceMeters>
          </Trackpoint>
          <Trackpoint>
            <Time>2019-10-04T15:54:38.000Z</Time>
            <Position>
              <LatitudeDegrees>42.93381468392908573150634765625</LatitudeDegrees>
              <LongitudeDegrees>-5.65693798474967479705810546875</LongitudeDegrees>
            </Position>
            <AltitudeMeters>1239.4000244140625</AltitudeMeters>
            <DistanceMeters>NAN</DistanceMeters>
          </Trackpoint>
          <Trackpoint>
            <Time>2019-10-04T15:54:39.000Z</Time>
            <Position>
              <LatitudeDegrees>42.93381468392908573150634765625</LatitudeDegrees>
              <LongitudeDegrees>-5.65693798474967479705810546875</LongitudeDegrees>
            </Position>
            <AltitudeMeters>1239.4000244140625</AltitudeMeters>
            <DistanceMeters>NAN</DistanceMeters>
          </Trackpoint>
          <Trackpoint>
            <Time>2019-10-04T15:54:43.000Z</Time>
            <Position>
              <LatitudeDegrees>42.93381468392908573150634765625</LatitudeDegrees>
              <LongitudeDegrees>-5.65693798474967479705810546875</LongitudeDegrees>
            </Position>
            <AltitudeMeters>1238.4000244140625</AltitudeMeters>
            <DistanceMeters>NAN</DistanceMeters>
          </Trackpoint>
          <Trackpoint>
            <Time>2019-10-04T15:54:44.000Z</Time>
            <Position>
              <LatitudeDegrees>42.93381468392908573150634765625</LatitudeDegrees>
              <LongitudeDegrees>-5.65693798474967479705810546875</LongitudeDegrees>
            </Position>
            <AltitudeMeters>1238.199951171875</AltitudeMeters>
            <DistanceMeters>NAN</DistanceMeters>
          </Trackpoint>
          <Trackpoint>
            <Time>2019-10-04T15:54:48.000Z</Time>
            <Position>
              <LatitudeDegrees>42.93381468392908573150634765625</LatitudeDegrees>
              <LongitudeDegrees>-5.65693798474967479705810546875</LongitudeDegrees>
            </Position>
            <AltitudeMeters>1238.4000244140625</AltitudeMeters>
            <DistanceMeters>NAN</DistanceMeters>
          </Trackpoint>
          <Trackpoint>
            <Time>2019-10-04T15:54:50.000Z</Time>
            <Position>
              <LatitudeDegrees>42.93381468392908573150634765625</LatitudeDegrees>
              <LongitudeDegrees>-5.65693798474967479705810546875</LongitudeDegrees>
            </Position>
            <AltitudeMeters>1238.4000244140625</AltitudeMeters>
            <DistanceMeters>NAN</DistanceMeters>
          </Trackpoint>
          <Trackpoint>
            <Time>2019-10-04T15:54:51.000Z</Time>
            <Position>
              <LatitudeDegrees>42.93381468392908573150634765625</LatitudeDegrees>
              <LongitudeDegrees>-5.65693798474967479705810546875</LongitudeDegrees>
            </Position>
            <AltitudeMeters>1238.5999755859375</AltitudeMeters>
            <DistanceMeters>NAN</DistanceMeters>
          </Trackpoint>
          <Trackpoint>
            <Time>2019-10-04T15:54:52.000Z</Time>
            <Position>
              <LatitudeDegrees>42.93381468392908573150634765625</LatitudeDegrees>
              <LongitudeDegrees>-5.65693798474967479705810546875</LongitudeDegrees>
            </Position>
            <AltitudeMeters>1238.800048828125</AltitudeMeters>
            <DistanceMeters>NAN</DistanceMeters>
          </Trackpoint>
          <Trackpoint>
            <Time>2019-10-04T15:54:54.000Z</Time>
            <Position>
              <LatitudeDegrees>42.93381468392908573150634765625</LatitudeDegrees>
              <LongitudeDegrees>-5.65693798474967479705810546875</LongitudeDegrees>
            </Position>
            <AltitudeMeters>1238.800048828125</AltitudeMeters>
            <DistanceMeters>NAN</DistanceMeters>
          </Trackpoint>
          <Trackpoint>
            <Time>2019-10-04T15:54:56.000Z</Time>
            <Position>
              <LatitudeDegrees>42.93381468392908573150634765625</LatitudeDegrees>
              <LongitudeDegrees>-5.65693798474967479705810546875</LongitudeDegrees>
            </Position>
            <AltitudeMeters>1238.800048828125</AltitudeMeters>
            <DistanceMeters>NAN</DistanceMeters>
          </Trackpoint>
          <Trackpoint>
            <Time>2019-10-04T15:55:01.000Z</Time>
            <Position>
              <LatitudeDegrees>42.93381468392908573150634765625</LatitudeDegrees>
              <LongitudeDegrees>-5.65693798474967479705810546875</LongitudeDegrees>
            </Position>
            <AltitudeMeters>1239</AltitudeMeters>
            <DistanceMeters>NAN</DistanceMeters>
          </Trackpoint>
          <Trackpoint>
            <Time>2019-10-04T15:55:05.000Z</Time>
            <Position>
              <LatitudeDegrees>42.93381468392908573150634765625</LatitudeDegrees>
              <LongitudeDegrees>-5.65693798474967479705810546875</LongitudeDegrees>
            </Position>
            <AltitudeMeters>1239.199951171875</AltitudeMeters>
            <DistanceMeters>NAN</DistanceMeters>
          </Trackpoint>
          <Trackpoint>
            <Time>2019-10-04T15:55:06.000Z</Time>
            <Position>
              <LatitudeDegrees>42.93381468392908573150634765625</LatitudeDegrees>
              <LongitudeDegrees>-5.65693798474967479705810546875</LongitudeDegrees>
            </Position>
            <AltitudeMeters>1239.199951171875</AltitudeMeters>
            <DistanceMeters>NAN</DistanceMeters>
          </Trackpoint>
          <Trackpoint>
            <Time>2019-10-04T15:55:07.000Z</Time>
            <Position>
              <LatitudeDegrees>42.93381468392908573150634765625</LatitudeDegrees>
              <LongitudeDegrees>-5.65693798474967479705810546875</LongitudeDegrees>
            </Position>
            <AltitudeMeters>1239.4000244140625</AltitudeMeters>
            <DistanceMeters>NAN</DistanceMeters>
          </Trackpoint>
          <Trackpoint>
            <Time>2019-10-04T15:55:14.000Z</Time>
            <Position>
              <LatitudeDegrees>42.93378777801990509033203125</LatitudeDegrees>
              <LongitudeDegrees>-5.65690822899341583251953125</LongitudeDegrees>
            </Position>
            <AltitudeMeters>1239.5999755859375</AltitudeMeters>
            <DistanceMeters>NAN</DistanceMeters>
          </Trackpoint>
          <Trackpoint>
            <Time>2019-10-04T15:55:18.000Z</Time>
            <Position>
              <LatitudeDegrees>42.93371527455747127532958984375</LatitudeDegrees>
              <LongitudeDegrees>-5.65686665475368499755859375</LongitudeDegrees>
            </Position>
            <AltitudeMeters>1239.4000244140625</AltitudeMeters>
            <DistanceMeters>NAN</DistanceMeters>
          </Trackpoint>
          <Trackpoint>
            <Time>2019-10-04T15:55:20.000Z</Time>
            <Position>
              <LatitudeDegrees>42.9336652345955371856689453125</LatitudeDegrees>
              <LongitudeDegrees>-5.65684896893799304962158203125</LongitudeDegrees>
            </Position>
            <AltitudeMeters>1239.5999755859375</AltitudeMeters>
            <DistanceMeters>NAN</DistanceMeters>
          </Trackpoint>
          <Trackpoint>
            <Time>2019-10-04T15:55:26.000Z</Time>
            <Position>
              <LatitudeDegrees>42.9334734566509723663330078125</LatitudeDegrees>
              <LongitudeDegrees>-5.6567528285086154937744140625</LongitudeDegrees>
            </Position>
            <AltitudeMeters>1239.5999755859375</AltitudeMeters>
            <DistanceMeters>NAN</DistanceMeters>
          </Trackpoint>
          <Trackpoint>
            <Time>2019-10-04T15:55:30.000Z</Time>
            <Position>
              <LatitudeDegrees>42.93331109918653964996337890625</LatitudeDegrees>
              <LongitudeDegrees>-5.65667621791362762451171875</LongitudeDegrees>
            </Position>
            <AltitudeMeters>1240</AltitudeMeters>
            <DistanceMeters>NAN</DistanceMeters>
          </Trackpoint>
          <Trackpoint>
            <Time>2019-10-04T15:55:34.000Z</Time>
            <Position>
              <LatitudeDegrees>42.93313256464898586273193359375</LatitudeDegrees>
              <LongitudeDegrees>-5.656603462994098663330078125</LongitudeDegrees>
            </Position>
            <AltitudeMeters>1239.800048828125</AltitudeMeters>
            <DistanceMeters>NAN</DistanceMeters>
          </Trackpoint>
          <Trackpoint>
            <Time>2019-10-04T15:55:39.000Z</Time>
            <Position>
              <LatitudeDegrees>42.93289518915116786956787109375</LatitudeDegrees>
              <LongitudeDegrees>-5.65652609802782535552978515625</LongitudeDegrees>
            </Position>
            <AltitudeMeters>1240.4000244140625</AltitudeMeters>
            <DistanceMeters>NAN</DistanceMeters>
          </Trackpoint>
          <Trackpoint>
            <Time>2019-10-04T15:55:43.000Z</Time>
            <Position>
              <LatitudeDegrees>42.93269746005535125732421875</LatitudeDegrees>
              <LongitudeDegrees>-5.6564839370548725128173828125</LongitudeDegrees>
            </Position>
            <AltitudeMeters>1240.800048828125</AltitudeMeters>
            <DistanceMeters>NAN</DistanceMeters>
          </Trackpoint>
          <Trackpoint>
            <Time>2019-10-04T15:55:50.000Z</Time>
            <Position>
              <LatitudeDegrees>42.93232857249677181243896484375</LatitudeDegrees>
              <LongitudeDegrees>-5.65643750131130218505859375</LongitudeDegrees>
            </Position>
            <AltitudeMeters>1241.5999755859375</AltitudeMeters>
            <DistanceMeters>NAN</DistanceMeters>
          </Trackpoint>
          <Trackpoint>
            <Time>2019-10-04T15:55:52.000Z</Time>
            <Position>
              <LatitudeDegrees>42.93221541680395603179931640625</LatitudeDegrees>
              <LongitudeDegrees>-5.6564353220164775848388671875</LongitudeDegrees>
            </Position>
            <AltitudeMeters>1241.800048828125</AltitudeMeters>
            <DistanceMeters>NAN</DistanceMeters>
          </Trackpoint>
          <Trackpoint>
            <Time>2019-10-04T15:55:56.000Z</Time>
            <Position>
              <LatitudeDegrees>42.93198944069445133209228515625</LatitudeDegrees>
              <LongitudeDegrees>-5.65645686350762844085693359375</LongitudeDegrees>
            </Position>
            <AltitudeMeters>1241.800048828125</AltitudeMeters>
            <DistanceMeters>NAN</DistanceMeters>
          </Trackpoint>
          <Trackpoint>
            <Time>2019-10-04T15:55:59.000Z</Time>
            <Position>
              <LatitudeDegrees>42.931818030774593353271484375</LatitudeDegrees>
              <LongitudeDegrees>-5.6564735434949398040771484375</LongitudeDegrees>
            </Position>
            <AltitudeMeters>1242</AltitudeMeters>
            <DistanceMeters>NAN</DistanceMeters>
          </Trackpoint>
          <Trackpoint>
            <Time>2019-10-04T15:56:09.000Z</Time>
            <Position>
              <LatitudeDegrees>42.93124747462570667266845703125</LatitudeDegrees>
              <LongitudeDegrees>-5.6565682590007781982421875</LongitudeDegrees>
            </Position>
            <AltitudeMeters>1242</AltitudeMeters>
            <DistanceMeters>NAN</DistanceMeters>
          </Trackpoint>
          <Trackpoint>
            <Time>2019-10-04T15:56:19.000Z</Time>
            <Position>
              <LatitudeDegrees>42.93067281134426593780517578125</LatitudeDegrees>
              <LongitudeDegrees>-5.65659751184284687042236328125</LongitudeDegrees>
            </Position>
            <AltitudeMeters>1240.800048828125</AltitudeMeters>
            <DistanceMeters>NAN</DistanceMeters>
          </Trackpoint>
          <Trackpoint>
            <Time>2019-10-04T15:56:27.000Z</Time>
            <Position>
              <LatitudeDegrees>42.930195294320583343505859375</LatitudeDegrees>
              <LongitudeDegrees>-5.6564795784652233123779296875</LongitudeDegrees>
            </Position>
            <AltitudeMeters>1240.5999755859375</AltitudeMeters>
            <DistanceMeters>NAN</DistanceMeters>
          </Trackpoint>
          <Trackpoint>
            <Time>2019-10-04T15:56:28.000Z</Time>
            <Position>
              <LatitudeDegrees>42.930132932960987091064453125</LatitudeDegrees>
              <LongitudeDegrees>-5.65645627677440643310546875</LongitudeDegrees>
            </Position>
            <AltitudeMeters>1240.199951171875</AltitudeMeters>
            <DistanceMeters>NAN</DistanceMeters>
          </Trackpoint>
          <Trackpoint>
            <Time>2019-10-04T15:56:35.000Z</Time>
            <Position>
              <LatitudeDegrees>42.92966966517269611358642578125</LatitudeDegrees>
              <LongitudeDegrees>-5.656228959560394287109375</LongitudeDegrees>
            </Position>
            <AltitudeMeters>1240</AltitudeMeters>
            <DistanceMeters>NAN</DistanceMeters>
          </Trackpoint>
          <Trackpoint>
            <Time>2019-10-04T15:56:38.000Z</Time>
            <Position>
              <LatitudeDegrees>42.92946062050759792327880859375</LatitudeDegrees>
              <LongitudeDegrees>-5.65611898899078369140625</LongitudeDegrees>
            </Position>
            <AltitudeMeters>1239</AltitudeMeters>
            <DistanceMeters>NAN</DistanceMeters>
          </Trackpoint>
          <Trackpoint>
            <Time>2019-10-04T15:56:44.000Z</Time>
            <Position>
              <LatitudeDegrees>42.92903163470327854156494140625</LatitudeDegrees>
              <LongitudeDegrees>-5.65589091740548610687255859375</LongitudeDegrees>
            </Position>
            <AltitudeMeters>1238.800048828125</AltitudeMeters>
            <DistanceMeters>NAN</DistanceMeters>
          </Trackpoint>
          <Trackpoint>
            <Time>2019-10-04T15:56:46.000Z</Time>
            <Position>
              <LatitudeDegrees>42.92888738214969635009765625</LatitudeDegrees>
              <LongitudeDegrees>-5.65581866540014743804931640625</LongitudeDegrees>
            </Position>
            <AltitudeMeters>1238</AltitudeMeters>
            <DistanceMeters>NAN</DistanceMeters>
          </Trackpoint>
          <Trackpoint>
            <Time>2019-10-04T15:56:53.000Z</Time>
            <Position>
              <LatitudeDegrees>42.92837281711399555206298828125</LatitudeDegrees>
              <LongitudeDegrees>-5.65555715002119541168212890625</LongitudeDegrees>
            </Position>
            <AltitudeMeters>1237.5999755859375</AltitudeMeters>
            <DistanceMeters>NAN</DistanceMeters>
          </Trackpoint>
          <Trackpoint>
            <Time>2019-10-04T15:56:56.000Z</Time>
            <Position>
              <LatitudeDegrees>42.9281529597938060760498046875</LatitudeDegrees>
              <LongitudeDegrees>-5.6554432399570941925048828125</LongitudeDegrees>
            </Position>
            <AltitudeMeters>1237.4000244140625</AltitudeMeters>
            <DistanceMeters>NAN</DistanceMeters>
          </Trackpoint>
          <Trackpoint>
            <Time>2019-10-04T15:57:01.000Z</Time>
            <Position>
              <LatitudeDegrees>42.92777652852237224578857421875</LatitudeDegrees>
              <LongitudeDegrees>-5.65524668432772159576416015625</LongitudeDegrees>
            </Position>
            <AltitudeMeters>1237.800048828125</AltitudeMeters>
            <DistanceMeters>NAN</DistanceMeters>
          </Trackpoint>
          <Trackpoint>
            <Time>2019-10-04T15:57:06.000Z</Time>
            <Position>
              <LatitudeDegrees>42.92739749886095523834228515625</LatitudeDegrees>
              <LongitudeDegrees>-5.65505071543157100677490234375</LongitudeDegrees>
            </Position>
            <AltitudeMeters>1237.5999755859375</AltitudeMeters>
            <DistanceMeters>NAN</DistanceMeters>
          </Trackpoint>
          <Trackpoint>
            <Time>2019-10-04T15:57:13.000Z</Time>
            <Position>
              <LatitudeDegrees>42.92688435874879360198974609375</LatitudeDegrees>
              <LongitudeDegrees>-5.654755420982837677001953125</LongitudeDegrees>
            </Position>
            <AltitudeMeters>1237.5999755859375</AltitudeMeters>
            <DistanceMeters>NAN</DistanceMeters>
          </Trackpoint>
          <Trackpoint>
            <Time>2019-10-04T15:57:15.000Z</Time>
            <Position>
              <LatitudeDegrees>42.92674622498452663421630859375</LatitudeDegrees>
              <LongitudeDegrees>-5.65465383231639862060546875</LongitudeDegrees>
            </Position>
            <AltitudeMeters>1237.5999755859375</AltitudeMeters>
            <DistanceMeters>NAN</DistanceMeters>
          </Trackpoint>
          <Trackpoint>
            <Time>2019-10-04T15:57:21.000Z</Time>
            <Position>
              <LatitudeDegrees>42.92637490667402744293212890625</LatitudeDegrees>
              <LongitudeDegrees>-5.6542761437594890594482421875</LongitudeDegrees>
            </Position>
            <AltitudeMeters>1237.5999755859375</AltitudeMeters>
            <DistanceMeters>NAN</DistanceMeters>
          </Trackpoint>
          <Trackpoint>
            <Time>2019-10-04T15:57:28.000Z</Time>
            <Position>
              <LatitudeDegrees>42.92603828944265842437744140625</LatitudeDegrees>
              <LongitudeDegrees>-5.6537547893822193145751953125</LongitudeDegrees>
            </Position>
            <AltitudeMeters>1238.5999755859375</AltitudeMeters>
            <DistanceMeters>NAN</DistanceMeters>
          </Trackpoint>
          <Trackpoint>
            <Time>2019-10-04T15:57:31.000Z</Time>
            <Position>
              <LatitudeDegrees>42.92592764832079410552978515625</LatitudeDegrees>
              <LongitudeDegrees>-5.65352185629308223724365234375</LongitudeDegrees>
            </Position>
            <AltitudeMeters>1239</AltitudeMeters>
            <DistanceMeters>NAN</DistanceMeters>
          </Trackpoint>
          <Trackpoint>
            <Time>2019-10-04T15:57:35.000Z</Time>
            <Position>
              <LatitudeDegrees>42.92580577544867992401123046875</LatitudeDegrees>
              <LongitudeDegrees>-5.653206445276737213134765625</LongitudeDegrees>
            </Position>
            <AltitudeMeters>1239.4000244140625</AltitudeMeters>
            <DistanceMeters>NAN</DistanceMeters>
          </Trackpoint>
          <Trackpoint>
            <Time>2019-10-04T15:57:39.000Z</Time>
            <Position>
              <LatitudeDegrees>42.92569555342197418212890625</LatitudeDegrees>
              <LongitudeDegrees>-5.652893297374248504638671875</LongitudeDegrees>
            </Position>
            <AltitudeMeters>1240</AltitudeMeters>
            <DistanceMeters>NAN</DistanceMeters>
          </Trackpoint>
          <Trackpoint>
            <Time>2019-10-04T15:57:44.000Z</Time>
            <Position>
              <LatitudeDegrees>42.92556890286505222320556640625</LatitudeDegrees>
              <LongitudeDegrees>-5.65252440981566905975341796875</LongitudeDegrees>
            </Position>
            <AltitudeMeters>1240.5999755859375</AltitudeMeters>
            <DistanceMeters>NAN</DistanceMeters>
          </Trackpoint>
          <Trackpoint>
            <Time>2019-10-04T15:57:50.000Z</Time>
            <Position>
              <LatitudeDegrees>42.92543697170913219451904296875</LatitudeDegrees>
              <LongitudeDegrees>-5.65211118198931217193603515625</LongitudeDegrees>
            </Position>
            <AltitudeMeters>1240.800048828125</AltitudeMeters>
            <DistanceMeters>NAN</DistanceMeters>
          </Trackpoint>
          <Trackpoint>
            <Time>2019-10-04T15:57:52.000Z</Time>
            <Position>
              <LatitudeDegrees>42.92539648711681365966796875</LatitudeDegrees>
              <LongitudeDegrees>-5.6519763171672821044921875</LongitudeDegrees>
            </Position>
            <AltitudeMeters>1241.199951171875</AltitudeMeters>
            <DistanceMeters>NAN</DistanceMeters>
          </Trackpoint>
          <Trackpoint>
            <Time>2019-10-04T15:57:58.000Z</Time>
            <Position>
              <LatitudeDegrees>42.9252400808036327362060546875</LatitudeDegrees>
              <LongitudeDegrees>-5.65156795084476470947265625</LongitudeDegrees>
            </Position>
            <AltitudeMeters>1241.5999755859375</AltitudeMeters>
            <DistanceMeters>NAN</DistanceMeters>
          </Trackpoint>
          <Trackpoint>
            <Time>2019-10-04T15:57:59.000Z</Time>
            <Position>
              <LatitudeDegrees>42.925210408866405487060546875</LatitudeDegrees>
              <LongitudeDegrees>-5.651500560343265533447265625</LongitudeDegrees>
            </Position>
            <AltitudeMeters>1241.5999755859375</AltitudeMeters>
            <DistanceMeters>NAN</DistanceMeters>
          </Trackpoint>
          <Trackpoint>
            <Time>2019-10-04T15:58:05.000Z</Time>
            <Position>
              <LatitudeDegrees>42.92498216964304447174072265625</LatitudeDegrees>
              <LongitudeDegrees>-5.65109076909720897674560546875</LongitudeDegrees>
            </Position>
            <AltitudeMeters>1242.199951171875</AltitudeMeters>
            <DistanceMeters>NAN</DistanceMeters>
          </Trackpoint>
          <Trackpoint>
            <Time>2019-10-04T15:58:06.000Z</Time>
            <Position>
              <LatitudeDegrees>42.92493405751883983612060546875</LatitudeDegrees>
              <LongitudeDegrees>-5.65102614462375640869140625</LongitudeDegrees>
            </Position>
            <AltitudeMeters>1242.199951171875</AltitudeMeters>
            <DistanceMeters>NAN</DistanceMeters>
          </Trackpoint>
          <Trackpoint>
            <Time>2019-10-04T15:58:11.000Z</Time>
            <Position>
              <LatitudeDegrees>42.92463515885174274444580078125</LatitudeDegrees>
              <LongitudeDegrees>-5.65075163729488849639892578125</LongitudeDegrees>
            </Position>
            <AltitudeMeters>1242.5999755859375</AltitudeMeters>
            <DistanceMeters>NAN</DistanceMeters>
          </Trackpoint>
          <Trackpoint>
            <Time>2019-10-04T15:58:13.000Z</Time>
            <Position>
              <LatitudeDegrees>42.924488894641399383544921875</LatitudeDegrees>
              <LongitudeDegrees>-5.65066915936768054962158203125</LongitudeDegrees>
            </Position>
            <AltitudeMeters>1242.4000244140625</AltitudeMeters>
            <DistanceMeters>NAN</DistanceMeters>
          </Trackpoint>
          <Trackpoint>
            <Time>2019-10-04T15:58:16.000Z</Time>
            <Position>
              <LatitudeDegrees>42.92424892075359821319580078125</LatitudeDegrees>
              <LongitudeDegrees>-5.65058969892561435699462890625</LongitudeDegrees>
            </Position>
            <AltitudeMeters>1242.4000244140625</AltitudeMeters>
            <DistanceMeters>NAN</DistanceMeters>
          </Trackpoint>
          <Trackpoint>
            <Time>2019-10-04T15:58:21.000Z</Time>
            <Position>
              <LatitudeDegrees>42.923824377357959747314453125</LatitudeDegrees>
              <LongitudeDegrees>-5.65058751963078975677490234375</LongitudeDegrees>
            </Position>
            <AltitudeMeters>1242.5999755859375</AltitudeMeters>
            <DistanceMeters>NAN</DistanceMeters>
          </Trackpoint>
          <Trackpoint>
            <Time>2019-10-04T15:58:26.000Z</Time>
            <Position>
              <LatitudeDegrees>42.9234064556658267974853515625</LatitudeDegrees>
              <LongitudeDegrees>-5.65069966949522495269775390625</LongitudeDegrees>
            </Position>
            <AltitudeMeters>1242.5999755859375</AltitudeMeters>
            <DistanceMeters>NAN</DistanceMeters>
          </Trackpoint>
          <Trackpoint>
            <Time>2019-10-04T15:58:31.000Z</Time>
            <Position>
              <LatitudeDegrees>42.92299699969589710235595703125</LatitudeDegrees>
              <LongitudeDegrees>-5.65084283240139484405517578125</LongitudeDegrees>
            </Position>
            <AltitudeMeters>1243.4000244140625</AltitudeMeters>
            <DistanceMeters>NAN</DistanceMeters>
          </Trackpoint>
          <Trackpoint>
            <Time>2019-10-04T15:58:34.000Z</Time>
            <Position>
              <LatitudeDegrees>42.92275451123714447021484375</LatitudeDegrees>
              <LongitudeDegrees>-5.65092564560472965240478515625</LongitudeDegrees>
            </Position>
            <AltitudeMeters>1243.4000244140625</AltitudeMeters>
            <DistanceMeters>NAN</DistanceMeters>
          </Trackpoint>
          <Trackpoint>
            <Time>2019-10-04T15:58:40.000Z</Time>
            <Position>
              <LatitudeDegrees>42.92225830256938934326171875</LatitudeDegrees>
              <LongitudeDegrees>-5.65108808688819408416748046875</LongitudeDegrees>
            </Position>
            <AltitudeMeters>1244.4000244140625</AltitudeMeters>
            <DistanceMeters>NAN</DistanceMeters>
          </Trackpoint>
          <Trackpoint>
            <Time>2019-10-04T15:58:41.000Z</Time>
            <Position>
              <LatitudeDegrees>42.9221719689667224884033203125</LatitudeDegrees>
              <LongitudeDegrees>-5.65111641772091388702392578125</LongitudeDegrees>
            </Position>
            <AltitudeMeters>1244.5999755859375</AltitudeMeters>
            <DistanceMeters>NAN</DistanceMeters>
          </Trackpoint>
          <Trackpoint>
            <Time>2019-10-04T15:58:43.000Z</Time>
            <Position>
              <LatitudeDegrees>42.92199620045721530914306640625</LatitudeDegrees>
              <LongitudeDegrees>-5.651179365813732147216796875</LongitudeDegrees>
            </Position>
            <AltitudeMeters>1244.5999755859375</AltitudeMeters>
            <DistanceMeters>NAN</DistanceMeters>
          </Trackpoint>
          <Trackpoint>
            <Time>2019-10-04T15:58:49.000Z</Time>
            <Position>
              <LatitudeDegrees>42.92142949998378753662109375</LatitudeDegrees>
              <LongitudeDegrees>-5.65136234275996685028076171875</LongitudeDegrees>
            </Position>
            <AltitudeMeters>1245.199951171875</AltitudeMeters>
            <DistanceMeters>NAN</DistanceMeters>
          </Trackpoint>
          <Trackpoint>
            <Time>2019-10-04T15:58:50.000Z</Time>
            <Position>
              <LatitudeDegrees>42.92132799513638019561767578125</LatitudeDegrees>
              <LongitudeDegrees>-5.65138966776430606842041015625</LongitudeDegrees>
            </Position>
            <AltitudeMeters>1245.199951171875</AltitudeMeters>
            <DistanceMeters>NAN</DistanceMeters>
          </Trackpoint>
          <Trackpoint>
            <Time>2019-10-04T15:59:23.000Z</Time>
            <Position>
              <LatitudeDegrees>42.91802653111517429351806640625</LatitudeDegrees>
              <LongitudeDegrees>-5.65249867737293243408203125</LongitudeDegrees>
            </Position>
            <AltitudeMeters>1243.800048828125</AltitudeMeters>
            <DistanceMeters>NAN</DistanceMeters>
          </Trackpoint>
          <Trackpoint>
            <Time>2019-10-04T15:59:26.000Z</Time>
            <Position>
              <LatitudeDegrees>42.91773668490350246429443359375</LatitudeDegrees>
              <LongitudeDegrees>-5.65272867679595947265625</LongitudeDegrees>
            </Position>
            <AltitudeMeters>1243.4000244140625</AltitudeMeters>
            <DistanceMeters>NAN</DistanceMeters>
          </Trackpoint>
          <Trackpoint>
            <Time>2019-10-04T15:59:32.000Z</Time>
            <Position>
              <LatitudeDegrees>42.917250953614711761474609375</LatitudeDegrees>
              <LongitudeDegrees>-5.65317191183567047119140625</LongitudeDegrees>
            </Position>
            <AltitudeMeters>1243.199951171875</AltitudeMeters>
            <DistanceMeters>NAN</DistanceMeters>
          </Trackpoint>
          <Trackpoint>
            <Time>2019-10-04T15:59:38.000Z</Time>
            <Position>
              <LatitudeDegrees>42.91679196059703826904296875</LatitudeDegrees>
              <LongitudeDegrees>-5.653644986450672149658203125</LongitudeDegrees>
            </Position>
            <AltitudeMeters>1242.5999755859375</AltitudeMeters>
            <DistanceMeters>NAN</DistanceMeters>
          </Trackpoint>
          <Trackpoint>
            <Time>2019-10-04T15:59:41.000Z</Time>
            <Position>
              <LatitudeDegrees>42.91657713241875171661376953125</LatitudeDegrees>
              <LongitudeDegrees>-5.65388160757720470428466796875</LongitudeDegrees>
            </Position>
            <AltitudeMeters>1242</AltitudeMeters>
            <DistanceMeters>NAN</DistanceMeters>
          </Trackpoint>
          <Trackpoint>
            <Time>2019-10-04T15:59:45.000Z</Time>
            <Position>
              <LatitudeDegrees>42.91629080660641193389892578125</LatitudeDegrees>
              <LongitudeDegrees>-5.6541678495705127716064453125</LongitudeDegrees>
            </Position>
            <AltitudeMeters>1241.4000244140625</AltitudeMeters>
            <DistanceMeters>NAN</DistanceMeters>
          </Trackpoint>
          <Trackpoint>
            <Time>2019-10-04T15:59:47.000Z</Time>
            <Position>
              <LatitudeDegrees>42.91615317575633525848388671875</LatitudeDegrees>
              <LongitudeDegrees>-5.6543106772005558013916015625</LongitudeDegrees>
            </Position>
            <AltitudeMeters>1240.800048828125</AltitudeMeters>
            <DistanceMeters>NAN</DistanceMeters>
          </Trackpoint>
          <Trackpoint>
            <Time>2019-10-04T15:59:53.000Z</Time>
            <Position>
              <LatitudeDegrees>42.91575771756470203399658203125</LatitudeDegrees>
              <LongitudeDegrees>-5.6547296047210693359375</LongitudeDegrees>
            </Position>
            <AltitudeMeters>1239.800048828125</AltitudeMeters>
            <DistanceMeters>NAN</DistanceMeters>
          </Trackpoint>
          <Trackpoint>
            <Time>2019-10-04T15:59:54.000Z</Time>
            <Position>
              <LatitudeDegrees>42.91569359600543975830078125</LatitudeDegrees>
              <LongitudeDegrees>-5.654796995222568511962890625</LongitudeDegrees>
            </Position>
            <AltitudeMeters>1239.5999755859375</AltitudeMeters>
            <DistanceMeters>NAN</DistanceMeters>
          </Trackpoint>
          <Trackpoint>
            <Time>2019-10-04T15:59:59.000Z</Time>
            <Position>
              <LatitudeDegrees>42.915370054543018341064453125</LatitudeDegrees>
              <LongitudeDegrees>-5.655116178095340728759765625</LongitudeDegrees>
            </Position>
            <AltitudeMeters>1238.4000244140625</AltitudeMeters>
            <DistanceMeters>NAN</DistanceMeters>
          </Trackpoint>
          <Trackpoint>
            <Time>2019-10-04T16:00:03.000Z</Time>
            <Position>
              <LatitudeDegrees>42.91510225273668766021728515625</LatitudeDegrees>
              <LongitudeDegrees>-5.65533435903489589691162109375</LongitudeDegrees>
            </Position>
            <AltitudeMeters>1237.5999755859375</AltitudeMeters>
            <DistanceMeters>NAN</DistanceMeters>
          </Trackpoint>
          <Trackpoint>
            <Time>2019-10-04T16:00:04.000Z</Time>
            <Position>
              <LatitudeDegrees>42.915034107863903045654296875</LatitudeDegrees>
              <LongitudeDegrees>-5.65538381226360797882080078125</LongitudeDegrees>
            </Position>
            <AltitudeMeters>1237.199951171875</AltitudeMeters>
            <DistanceMeters>NAN</DistanceMeters>
          </Trackpoint>
          <Trackpoint>
            <Time>2019-10-04T16:00:09.000Z</Time>
            <Position>
              <LatitudeDegrees>42.91467041708528995513916015625</LatitudeDegrees>
              <LongitudeDegrees>-5.6555763445794582366943359375</LongitudeDegrees>
            </Position>
            <AltitudeMeters>1237</AltitudeMeters>
            <DistanceMeters>NAN</DistanceMeters>
          </Trackpoint>
          <Trackpoint>
            <Time>2019-10-04T16:00:13.000Z</Time>
            <Position>
              <LatitudeDegrees>42.9143543355166912078857421875</LatitudeDegrees>
              <LongitudeDegrees>-5.65566393546760082244873046875</LongitudeDegrees>
            </Position>
            <AltitudeMeters>1236.199951171875</AltitudeMeters>
            <DistanceMeters>NAN</DistanceMeters>
          </Trackpoint>
          <Trackpoint>
            <Time>2019-10-04T16:00:14.000Z</Time>
            <Position>
              <LatitudeDegrees>42.91427068412303924560546875</LatitudeDegrees>
              <LongitudeDegrees>-5.65567751415073871612548828125</LongitudeDegrees>
            </Position>
            <AltitudeMeters>1236.199951171875</AltitudeMeters>
            <DistanceMeters>NAN</DistanceMeters>
          </Trackpoint>
          <Trackpoint>
            <Time>2019-10-04T16:00:19.000Z</Time>
            <Position>
              <LatitudeDegrees>42.913832478225231170654296875</LatitudeDegrees>
              <LongitudeDegrees>-5.65567709505558013916015625</LongitudeDegrees>
            </Position>
            <AltitudeMeters>1235.5999755859375</AltitudeMeters>
            <DistanceMeters>NAN</DistanceMeters>
          </Trackpoint>
          <Trackpoint>
            <Time>2019-10-04T16:00:20.000Z</Time>
            <Position>
              <LatitudeDegrees>42.9137417860329151153564453125</LatitudeDegrees>
              <LongitudeDegrees>-5.65566360019147396087646484375</LongitudeDegrees>
            </Position>
            <AltitudeMeters>1235.199951171875</AltitudeMeters>
            <DistanceMeters>NAN</DistanceMeters>
          </Trackpoint>
          <Trackpoint>
            <Time>2019-10-04T16:00:24.000Z</Time>
            <Position>
              <LatitudeDegrees>42.9133796878159046173095703125</LatitudeDegrees>
              <LongitudeDegrees>-5.65555161796510219573974609375</LongitudeDegrees>
            </Position>
            <AltitudeMeters>1234.199951171875</AltitudeMeters>
            <DistanceMeters>NAN</DistanceMeters>
          </Trackpoint>
          <Trackpoint>
            <Time>2019-10-04T16:00:25.000Z</Time>
            <Position>
              <LatitudeDegrees>42.9132928512990474700927734375</LatitudeDegrees>
              <LongitudeDegrees>-5.65551674924790859222412109375</LongitudeDegrees>
            </Position>
            <AltitudeMeters>1234</AltitudeMeters>
            <DistanceMeters>NAN</DistanceMeters>
          </Trackpoint>
          <Trackpoint>
            <Time>2019-10-04T16:00:29.000Z</Time>
            <Position>
              <LatitudeDegrees>42.912981212139129638671875</LatitudeDegrees>
              <LongitudeDegrees>-5.655329413712024688720703125</LongitudeDegrees>
            </Position>
            <AltitudeMeters>1233.5999755859375</AltitudeMeters>
            <DistanceMeters>NAN</DistanceMeters>
          </Trackpoint>
          <Trackpoint>
            <Time>2019-10-04T16:00:32.000Z</Time>
            <Position>
              <LatitudeDegrees>42.9127842374145984649658203125</LatitudeDegrees>
              <LongitudeDegrees>-5.6551606021821498870849609375</LongitudeDegrees>
            </Position>
            <AltitudeMeters>1233</AltitudeMeters>
            <DistanceMeters>NAN</DistanceMeters>
          </Trackpoint>
          <Trackpoint>
            <Time>2019-10-04T16:00:35.000Z</Time>
            <Position>
              <LatitudeDegrees>42.91260771453380584716796875</LatitudeDegrees>
              <LongitudeDegrees>-5.65498248673975467681884765625</LongitudeDegrees>
            </Position>
            <AltitudeMeters>1232.199951171875</AltitudeMeters>
            <DistanceMeters>NAN</DistanceMeters>
          </Trackpoint>
          <Trackpoint>
            <Time>2019-10-04T16:00:36.000Z</Time>
            <Position>
              <LatitudeDegrees>42.91255247779190540313720703125</LatitudeDegrees>
              <LongitudeDegrees>-5.654920041561126708984375</LongitudeDegrees>
            </Position>
            <AltitudeMeters>1231.800048828125</AltitudeMeters>
            <DistanceMeters>NAN</DistanceMeters>
          </Trackpoint>
          <Trackpoint>
            <Time>2019-10-04T16:00:41.000Z</Time>
            <Position>
              <LatitudeDegrees>42.9122866876423358917236328125</LatitudeDegrees>
              <LongitudeDegrees>-5.654617957770824432373046875</LongitudeDegrees>
            </Position>
            <AltitudeMeters>1230.800048828125</AltitudeMeters>
            <DistanceMeters>NAN</DistanceMeters>
          </Trackpoint>
          <Trackpoint>
            <Time>2019-10-04T16:00:42.000Z</Time>
            <Position>
              <LatitudeDegrees>42.912233211100101470947265625</LatitudeDegrees>
              <LongitudeDegrees>-5.6545534171164035797119140625</LongitudeDegrees>
            </Position>
            <AltitudeMeters>1230.4000244140625</AltitudeMeters>
            <DistanceMeters>NAN</DistanceMeters>
          </Trackpoint>
          <Trackpoint>
            <Time>2019-10-04T16:00:47.000Z</Time>
            <Position>
              <LatitudeDegrees>42.91195954196155071258544921875</LatitudeDegrees>
              <LongitudeDegrees>-5.65423347987234592437744140625</LongitudeDegrees>
            </Position>
            <AltitudeMeters>1229.5999755859375</AltitudeMeters>
            <DistanceMeters>NAN</DistanceMeters>
          </Trackpoint>
          <Trackpoint>
            <Time>2019-10-04T16:00:51.000Z</Time>
            <Position>
              <LatitudeDegrees>42.911733649671077728271484375</LatitudeDegrees>
              <LongitudeDegrees>-5.6539686955511569976806640625</LongitudeDegrees>
            </Position>
            <AltitudeMeters>1229.199951171875</AltitudeMeters>
            <DistanceMeters>NAN</DistanceMeters>
          </Trackpoint>
          <Trackpoint>
            <Time>2019-10-04T16:00:56.000Z</Time>
            <Position>
              <LatitudeDegrees>42.91143558919429779052734375</LatitudeDegrees>
              <LongitudeDegrees>-5.6536320783197879791259765625</LongitudeDegrees>
            </Position>
            <AltitudeMeters>1228.5999755859375</AltitudeMeters>
            <DistanceMeters>NAN</DistanceMeters>
          </Trackpoint>
          <Trackpoint>
            <Time>2019-10-04T16:00:59.000Z</Time>
            <Position>
              <LatitudeDegrees>42.91123987175524234771728515625</LatitudeDegrees>
              <LongitudeDegrees>-5.6534247100353240966796875</LongitudeDegrees>
            </Position>
            <AltitudeMeters>1227.5999755859375</AltitudeMeters>
            <DistanceMeters>NAN</DistanceMeters>
          </Trackpoint>
          <Trackpoint>
            <Time>2019-10-04T16:01:00.000Z</Time>
            <Position>
              <LatitudeDegrees>42.9111720621585845947265625</LatitudeDegrees>
              <LongitudeDegrees>-5.65335555933415889739990234375</LongitudeDegrees>
            </Position>
            <AltitudeMeters>1227.5999755859375</AltitudeMeters>
            <DistanceMeters>NAN</DistanceMeters>
          </Trackpoint>
          <Trackpoint>
            <Time>2019-10-04T16:01:05.000Z</Time>
            <Position>
              <LatitudeDegrees>42.9107876680791378021240234375</LatitudeDegrees>
              <LongitudeDegrees>-5.65302841365337371826171875</LongitudeDegrees>
            </Position>
            <AltitudeMeters>1226.5999755859375</AltitudeMeters>
            <DistanceMeters>NAN</DistanceMeters>
          </Trackpoint>
          <Trackpoint>
            <Time>2019-10-04T16:01:06.000Z</Time>
            <Position>
              <LatitudeDegrees>42.9107053577899932861328125</LatitudeDegrees>
              <LongitudeDegrees>-5.65296529792249202728271484375</LongitudeDegrees>
            </Position>
            <AltitudeMeters>1226</AltitudeMeters>
            <DistanceMeters>NAN</DistanceMeters>
          </Trackpoint>
          <Trackpoint>
            <Time>2019-10-04T16:01:12.000Z</Time>
            <Position>
              <LatitudeDegrees>42.91019246913492679595947265625</LatitudeDegrees>
              <LongitudeDegrees>-5.6525809876620769500732421875</LongitudeDegrees>
            </Position>
            <AltitudeMeters>1225</AltitudeMeters>
            <DistanceMeters>NAN</DistanceMeters>
          </Trackpoint>
          <Trackpoint>
            <Time>2019-10-04T16:01:13.000Z</Time>
            <Position>
              <LatitudeDegrees>42.9101037047803401947021484375</LatitudeDegrees>
              <LongitudeDegrees>-5.652515776455402374267578125</LongitudeDegrees>
            </Position>
            <AltitudeMeters>1225.199951171875</AltitudeMeters>
            <DistanceMeters>NAN</DistanceMeters>
          </Trackpoint>
          <Trackpoint>
            <Time>2019-10-04T16:01:16.000Z</Time>
            <Position>
              <LatitudeDegrees>42.909832634031772613525390625</LatitudeDegrees>
              <LongitudeDegrees>-5.65231469459831714630126953125</LongitudeDegrees>
            </Position>
            <AltitudeMeters>1224.800048828125</AltitudeMeters>
            <DistanceMeters>NAN</DistanceMeters>
          </Trackpoint>
          <Trackpoint>
            <Time>2019-10-04T16:01:20.000Z</Time>
            <Position>
              <LatitudeDegrees>42.90946894325315952301025390625</LatitudeDegrees>
              <LongitudeDegrees>-5.65203892998397350311279296875</LongitudeDegrees>
            </Position>
            <AltitudeMeters>1224</AltitudeMeters>
            <DistanceMeters>NAN</DistanceMeters>
          </Trackpoint>
          <Trackpoint>
            <Time>2019-10-04T16:01:21.000Z</Time>
            <Position>
              <LatitudeDegrees>42.90937523357570171356201171875</LatitudeDegrees>
              <LongitudeDegrees>-5.6519704498350620269775390625</LongitudeDegrees>
            </Position>
            <AltitudeMeters>1223.800048828125</AltitudeMeters>
            <DistanceMeters>NAN</DistanceMeters>
          </Trackpoint>
          <Trackpoint>
            <Time>2019-10-04T16:01:26.000Z</Time>
            <Position>
              <LatitudeDegrees>42.90884549729526042938232421875</LatitudeDegrees>
              <LongitudeDegrees>-5.65158940851688385009765625</LongitudeDegrees>
            </Position>
            <AltitudeMeters>1223.4000244140625</AltitudeMeters>
            <DistanceMeters>NAN</DistanceMeters>
          </Trackpoint>
          <Trackpoint>
            <Time>2019-10-04T16:01:27.000Z</Time>
            <Position>
              <LatitudeDegrees>42.90880165994167327880859375</LatitudeDegrees>
              <LongitudeDegrees>-5.65155914984643459320068359375</LongitudeDegrees>
            </Position>
            <AltitudeMeters>1220.4000244140625</AltitudeMeters>
            <DistanceMeters>NAN</DistanceMeters>
          </Trackpoint>
          <Trackpoint>
            <Time>2019-10-04T16:01:28.000Z</Time>
            <Position>
              <LatitudeDegrees>42.908702753484249114990234375</LatitudeDegrees>
              <LongitudeDegrees>-5.65149662084877490997314453125</LongitudeDegrees>
            </Position>
            <AltitudeMeters>1222.800048828125</AltitudeMeters>
            <DistanceMeters>NAN</DistanceMeters>
          </Trackpoint>
          <Trackpoint>
            <Time>2019-10-04T16:01:29.000Z</Time>
            <Position>
              <LatitudeDegrees>42.90856269188225269317626953125</LatitudeDegrees>
              <LongitudeDegrees>-5.6514132209122180938720703125</LongitudeDegrees>
            </Position>
            <AltitudeMeters>1222.5999755859375</AltitudeMeters>
            <DistanceMeters>NAN</DistanceMeters>
          </Trackpoint>
          <Trackpoint>
            <Time>2019-10-04T16:01:35.000Z</Time>
            <Position>
              <LatitudeDegrees>42.907975874841213226318359375</LatitudeDegrees>
              <LongitudeDegrees>-5.65112278796732425689697265625</LongitudeDegrees>
            </Position>
            <AltitudeMeters>1222.199951171875</AltitudeMeters>
            <DistanceMeters>NAN</DistanceMeters>
          </Trackpoint>
          <Trackpoint>
            <Time>2019-10-04T16:01:36.000Z</Time>
            <Position>
              <LatitudeDegrees>42.9078704304993152618408203125</LatitudeDegrees>
              <LongitudeDegrees>-5.651074089109897613525390625</LongitudeDegrees>
            </Position>
            <AltitudeMeters>1222</AltitudeMeters>
            <DistanceMeters>NAN</DistanceMeters>
          </Trackpoint>
          <Trackpoint>
            <Time>2019-10-04T16:01:37.000Z</Time>
            <Position>
              <LatitudeDegrees>42.90776364505290985107421875</LatitudeDegrees>
              <LongitudeDegrees>-5.651028156280517578125</LongitudeDegrees>
            </Position>
            <AltitudeMeters>1221.800048828125</AltitudeMeters>
            <DistanceMeters>NAN</DistanceMeters>
          </Trackpoint>
          <Trackpoint>
            <Time>2019-10-04T16:01:42.000Z</Time>
            <Position>
              <LatitudeDegrees>42.90723432786762714385986328125</LatitudeDegrees>
              <LongitudeDegrees>-5.65077326260507106781005859375</LongitudeDegrees>
            </Position>
            <AltitudeMeters>1221.5999755859375</AltitudeMeters>
            <DistanceMeters>NAN</DistanceMeters>
          </Trackpoint>
          <Trackpoint>
            <Time>2019-10-04T16:01:44.000Z</Time>
            <Position>
              <LatitudeDegrees>42.907028384506702423095703125</LatitudeDegrees>
              <LongitudeDegrees>-5.65065809525549411773681640625</LongitudeDegrees>
            </Position>
            <AltitudeMeters>1221.199951171875</AltitudeMeters>
            <DistanceMeters>NAN</DistanceMeters>
          </Trackpoint>
          <Trackpoint>
            <Time>2019-10-04T16:01:49.000Z</Time>
            <Position>
              <LatitudeDegrees>42.90653225965797901153564453125</LatitudeDegrees>
              <LongitudeDegrees>-5.650361292064189910888671875</LongitudeDegrees>
            </Position>
            <AltitudeMeters>1221</AltitudeMeters>
            <DistanceMeters>NAN</DistanceMeters>
          </Trackpoint>
          <Trackpoint>
            <Time>2019-10-04T16:01:50.000Z</Time>
            <Position>
              <LatitudeDegrees>42.90643754415214061737060546875</LatitudeDegrees>
              <LongitudeDegrees>-5.6503026187419891357421875</LongitudeDegrees>
            </Position>
            <AltitudeMeters>1221.199951171875</AltitudeMeters>
            <DistanceMeters>NAN</DistanceMeters>
          </Trackpoint>
          <Trackpoint>
            <Time>2019-10-04T16:01:54.000Z</Time>
            <Position>
              <LatitudeDegrees>42.90608081035315990447998046875</LatitudeDegrees>
              <LongitudeDegrees>-5.6500741280615329742431640625</LongitudeDegrees>
            </Position>
            <AltitudeMeters>1221</AltitudeMeters>
            <DistanceMeters>NAN</DistanceMeters>
          </Trackpoint>
          <Trackpoint>
            <Time>2019-10-04T16:01:56.000Z</Time>
            <Position>
              <LatitudeDegrees>42.90591384284198284149169921875</LatitudeDegrees>
              <LongitudeDegrees>-5.64996440894901752471923828125</LongitudeDegrees>
            </Position>
            <AltitudeMeters>1220.800048828125</AltitudeMeters>
            <DistanceMeters>NAN</DistanceMeters>
          </Trackpoint>
          <Trackpoint>
            <Time>2019-10-04T16:02:03.000Z</Time>
            <Position>
              <LatitudeDegrees>42.90537103079259395599365234375</LatitudeDegrees>
              <LongitudeDegrees>-5.6496184878051280975341796875</LongitudeDegrees>
            </Position>
            <AltitudeMeters>1221</AltitudeMeters>
            <DistanceMeters>NAN</DistanceMeters>
          </Trackpoint>
          <Trackpoint>
            <Time>2019-10-04T16:02:04.000Z</Time>
            <Position>
              <LatitudeDegrees>42.90529643185436725616455078125</LatitudeDegrees>
              <LongitudeDegrees>-5.64956995658576488494873046875</LongitudeDegrees>
            </Position>
            <AltitudeMeters>1220.800048828125</AltitudeMeters>
            <DistanceMeters>NAN</DistanceMeters>
          </Trackpoint>
          <Trackpoint>
            <Time>2019-10-04T16:02:11.000Z</Time>
            <Position>
              <LatitudeDegrees>42.90477993898093700408935546875</LatitudeDegrees>
              <LongitudeDegrees>-5.649260915815830230712890625</LongitudeDegrees>
            </Position>
            <AltitudeMeters>1220.800048828125</AltitudeMeters>
            <DistanceMeters>NAN</DistanceMeters>
          </Trackpoint>
          <Trackpoint>
            <Time>2019-10-04T16:02:12.000Z</Time>
            <Position>
              <LatitudeDegrees>42.90470416657626628875732421875</LatitudeDegrees>
              <LongitudeDegrees>-5.6492168270051479339599609375</LongitudeDegrees>
            </Position>
            <AltitudeMeters>1220.800048828125</AltitudeMeters>
            <DistanceMeters>NAN</DistanceMeters>
          </Trackpoint>
          <Trackpoint>
            <Time>2019-10-04T16:02:18.000Z</Time>
            <Position>
              <LatitudeDegrees>42.904251627624034881591796875</LatitudeDegrees>
              <LongitudeDegrees>-5.6489452533423900604248046875</LongitudeDegrees>
            </Position>
            <AltitudeMeters>1220.5999755859375</AltitudeMeters>
            <DistanceMeters>NAN</DistanceMeters>
          </Trackpoint>
          <Trackpoint>
            <Time>2019-10-04T16:02:25.000Z</Time>
            <Position>
              <LatitudeDegrees>42.9037693329155445098876953125</LatitudeDegrees>
              <LongitudeDegrees>-5.648654736578464508056640625</LongitudeDegrees>
            </Position>
            <AltitudeMeters>1220.5999755859375</AltitudeMeters>
            <DistanceMeters>NAN</DistanceMeters>
          </Trackpoint>
          <Trackpoint>
            <Time>2019-10-04T16:02:27.000Z</Time>
            <Position>
              <LatitudeDegrees>42.90359993465244770050048828125</LatitudeDegrees>
              <LongitudeDegrees>-5.64855155535042285919189453125</LongitudeDegrees>
            </Position>
            <AltitudeMeters>1220.199951171875</AltitudeMeters>
            <DistanceMeters>NAN</DistanceMeters>
          </Trackpoint>
          <Trackpoint>
            <Time>2019-10-04T16:02:33.000Z</Time>
            <Position>
              <LatitudeDegrees>42.90307656861841678619384765625</LatitudeDegrees>
              <LongitudeDegrees>-5.64822248183190822601318359375</LongitudeDegrees>
            </Position>
            <AltitudeMeters>1220.4000244140625</AltitudeMeters>
            <DistanceMeters>NAN</DistanceMeters>
          </Trackpoint>
          <Trackpoint>
            <Time>2019-10-04T16:02:35.000Z</Time>
            <Position>
              <LatitudeDegrees>42.9029036499559879302978515625</LatitudeDegrees>
              <LongitudeDegrees>-5.64811728894710540771484375</LongitudeDegrees>
            </Position>
            <AltitudeMeters>1220.800048828125</AltitudeMeters>
            <DistanceMeters>NAN</DistanceMeters>
          </Trackpoint>
          <Trackpoint>
            <Time>2019-10-04T16:02:41.000Z</Time>
            <Position>
              <LatitudeDegrees>42.9023905098438262939453125</LatitudeDegrees>
              <LongitudeDegrees>-5.64782895147800445556640625</LongitudeDegrees>
            </Position>
            <AltitudeMeters>1220.800048828125</AltitudeMeters>
            <DistanceMeters>NAN</DistanceMeters>
          </Trackpoint>
          <Trackpoint>
            <Time>2019-10-04T16:02:59.000Z</Time>
            <Position>
              <LatitudeDegrees>42.90063207037746906280517578125</LatitudeDegrees>
              <LongitudeDegrees>-5.6468055211007595062255859375</LongitudeDegrees>
            </Position>
            <AltitudeMeters>1221</AltitudeMeters>
            <DistanceMeters>NAN</DistanceMeters>
          </Trackpoint>
          <Trackpoint>
            <Time>2019-10-04T16:03:04.000Z</Time>
            <Position>
              <LatitudeDegrees>42.9001221992075443267822265625</LatitudeDegrees>
              <LongitudeDegrees>-5.64643629826605319976806640625</LongitudeDegrees>
            </Position>
            <AltitudeMeters>1219.800048828125</AltitudeMeters>
            <DistanceMeters>NAN</DistanceMeters>
          </Trackpoint>
          <Trackpoint>
            <Time>2019-10-04T16:03:05.000Z</Time>
            <Position>
              <LatitudeDegrees>42.90003008209168910980224609375</LatitudeDegrees>
              <LongitudeDegrees>-5.64635516144335269927978515625</LongitudeDegrees>
            </Position>
            <AltitudeMeters>1219.5999755859375</AltitudeMeters>
            <DistanceMeters>NAN</DistanceMeters>
          </Trackpoint>
          <Trackpoint>
            <Time>2019-10-04T16:03:10.000Z</Time>
            <Position>
              <LatitudeDegrees>42.89959170855581760406494140625</LatitudeDegrees>
              <LongitudeDegrees>-5.645929276943206787109375</LongitudeDegrees>
            </Position>
            <AltitudeMeters>1218.4000244140625</AltitudeMeters>
            <DistanceMeters>NAN</DistanceMeters>
          </Trackpoint>
          <Trackpoint>
            <Time>2019-10-04T16:03:11.000Z</Time>
            <Position>
              <LatitudeDegrees>42.89950721897184848785400390625</LatitudeDegrees>
              <LongitudeDegrees>-5.645841099321842193603515625</LongitudeDegrees>
            </Position>
            <AltitudeMeters>1218</AltitudeMeters>
            <DistanceMeters>NAN</DistanceMeters>
          </Trackpoint>
          <Trackpoint>
            <Time>2019-10-04T16:03:15.000Z</Time>
            <Position>
              <LatitudeDegrees>42.89917093701660633087158203125</LatitudeDegrees>
              <LongitudeDegrees>-5.64548227004706859588623046875</LongitudeDegrees>
            </Position>
            <AltitudeMeters>1216.5999755859375</AltitudeMeters>
            <DistanceMeters>NAN</DistanceMeters>
          </Trackpoint>
          <Trackpoint>
            <Time>2019-10-04T16:03:19.000Z</Time>
            <Position>
              <LatitudeDegrees>42.89881705306470394134521484375</LatitudeDegrees>
              <LongitudeDegrees>-5.64516258426010608673095703125</LongitudeDegrees>
            </Position>
            <AltitudeMeters>1216</AltitudeMeters>
            <DistanceMeters>NAN</DistanceMeters>
          </Trackpoint>
          <Trackpoint>
            <Time>2019-10-04T16:03:24.000Z</Time>
            <Position>
              <LatitudeDegrees>42.898317240178585052490234375</LatitudeDegrees>
              <LongitudeDegrees>-5.64484105445444583892822265625</LongitudeDegrees>
            </Position>
            <AltitudeMeters>1215.800048828125</AltitudeMeters>
            <DistanceMeters>NAN</DistanceMeters>
          </Trackpoint>
          <Trackpoint>
            <Time>2019-10-04T16:03:27.000Z</Time>
            <Position>
              <LatitudeDegrees>42.898056395351886749267578125</LatitudeDegrees>
              <LongitudeDegrees>-5.64471348188817501068115234375</LongitudeDegrees>
            </Position>
            <AltitudeMeters>1215.5999755859375</AltitudeMeters>
            <DistanceMeters>NAN</DistanceMeters>
          </Trackpoint>
          <Trackpoint>
            <Time>2019-10-04T16:03:32.000Z</Time>
            <Position>
              <LatitudeDegrees>42.89759513922035694122314453125</LatitudeDegrees>
              <LongitudeDegrees>-5.6444944627583026885986328125</LongitudeDegrees>
            </Position>
            <AltitudeMeters>1215.5999755859375</AltitudeMeters>
            <DistanceMeters>NAN</DistanceMeters>
          </Trackpoint>
          <Trackpoint>
            <Time>2019-10-04T16:03:38.000Z</Time>
            <Position>
              <LatitudeDegrees>42.89704897440969944000244140625</LatitudeDegrees>
              <LongitudeDegrees>-5.64422766678035259246826171875</LongitudeDegrees>
            </Position>
            <AltitudeMeters>1215</AltitudeMeters>
            <DistanceMeters>NAN</DistanceMeters>
          </Trackpoint>
          <Trackpoint>
            <Time>2019-10-04T16:03:43.000Z</Time>
            <Position>
              <LatitudeDegrees>42.896589897572994232177734375</LatitudeDegrees>
              <LongitudeDegrees>-5.6440066359937191009521484375</LongitudeDegrees>
            </Position>
            <AltitudeMeters>1214.800048828125</AltitudeMeters>
            <DistanceMeters>NAN</DistanceMeters>
          </Trackpoint>
          <Trackpoint>
            <Time>2019-10-04T16:03:49.000Z</Time>
            <Position>
              <LatitudeDegrees>42.896023951470851898193359375</LatitudeDegrees>
              <LongitudeDegrees>-5.64372911117970943450927734375</LongitudeDegrees>
            </Position>
            <AltitudeMeters>1214.5999755859375</AltitudeMeters>
            <DistanceMeters>NAN</DistanceMeters>
          </Trackpoint>
          <Trackpoint>
            <Time>2019-10-04T16:03:52.000Z</Time>
            <Position>
              <LatitudeDegrees>42.8957374580204486846923828125</LatitudeDegrees>
              <LongitudeDegrees>-5.64358997158706188201904296875</LongitudeDegrees>
            </Position>
            <AltitudeMeters>1214.800048828125</AltitudeMeters>
            <DistanceMeters>NAN</DistanceMeters>
          </Trackpoint>
          <Trackpoint>
            <Time>2019-10-04T16:03:58.000Z</Time>
            <Position>
              <LatitudeDegrees>42.89516287855803966522216796875</LatitudeDegrees>
              <LongitudeDegrees>-5.6433062441647052764892578125</LongitudeDegrees>
            </Position>
            <AltitudeMeters>1214.199951171875</AltitudeMeters>
            <DistanceMeters>NAN</DistanceMeters>
          </Trackpoint>
          <Trackpoint>
            <Time>2019-10-04T16:04:01.000Z</Time>
            <Position>
              <LatitudeDegrees>42.8948747925460338592529296875</LatitudeDegrees>
              <LongitudeDegrees>-5.6431603990495204925537109375</LongitudeDegrees>
            </Position>
            <AltitudeMeters>1213.800048828125</AltitudeMeters>
            <DistanceMeters>NAN</DistanceMeters>
          </Trackpoint>
          <Trackpoint>
            <Time>2019-10-04T16:04:04.000Z</Time>
            <Position>
              <LatitudeDegrees>42.89458855055272579193115234375</LatitudeDegrees>
              <LongitudeDegrees>-5.64302016980946063995361328125</LongitudeDegrees>
            </Position>
            <AltitudeMeters>1213.199951171875</AltitudeMeters>
            <DistanceMeters>NAN</DistanceMeters>
          </Trackpoint>
          <Trackpoint>
            <Time>2019-10-04T16:04:08.000Z</Time>
            <Position>
              <LatitudeDegrees>42.89420449174940586090087890625</LatitudeDegrees>
              <LongitudeDegrees>-5.64282973296940326690673828125</LongitudeDegrees>
            </Position>
            <AltitudeMeters>1212.199951171875</AltitudeMeters>
            <DistanceMeters>NAN</DistanceMeters>
          </Trackpoint>
          <Trackpoint>
            <Time>2019-10-04T16:04:11.000Z</Time>
            <Position>
              <LatitudeDegrees>42.89391682483255863189697265625</LatitudeDegrees>
              <LongitudeDegrees>-5.6426890008151531219482421875</LongitudeDegrees>
            </Position>
            <AltitudeMeters>1212</AltitudeMeters>
            <DistanceMeters>NAN</DistanceMeters>
          </Trackpoint>
          <Trackpoint>
            <Time>2019-10-04T16:04:16.000Z</Time>
            <Position>
              <LatitudeDegrees>42.8934394754469394683837890625</LatitudeDegrees>
              <LongitudeDegrees>-5.64245657064020633697509765625</LongitudeDegrees>
            </Position>
            <AltitudeMeters>1210.800048828125</AltitudeMeters>
            <DistanceMeters>NAN</DistanceMeters>
          </Trackpoint>
          <Trackpoint>
            <Time>2019-10-04T16:04:20.000Z</Time>
            <Position>
              <LatitudeDegrees>42.893062122166156768798828125</LatitudeDegrees>
              <LongitudeDegrees>-5.6422695703804492950439453125</LongitudeDegrees>
            </Position>
            <AltitudeMeters>1210.5999755859375</AltitudeMeters>
            <DistanceMeters>NAN</DistanceMeters>
          </Trackpoint>
          <Trackpoint>
            <Time>2019-10-04T16:04:25.000Z</Time>
            <Position>
              <LatitudeDegrees>42.8925959207117557525634765625</LatitudeDegrees>
              <LongitudeDegrees>-5.6420177780091762542724609375</LongitudeDegrees>
            </Position>
            <AltitudeMeters>1209.800048828125</AltitudeMeters>
            <DistanceMeters>NAN</DistanceMeters>
          </Trackpoint>
          <Trackpoint>
            <Time>2019-10-04T16:04:27.000Z</Time>
            <Position>
              <LatitudeDegrees>42.89241109974682331085205078125</LatitudeDegrees>
              <LongitudeDegrees>-5.64190034754574298858642578125</LongitudeDegrees>
            </Position>
            <AltitudeMeters>1209.4000244140625</AltitudeMeters>
            <DistanceMeters>NAN</DistanceMeters>
          </Trackpoint>
          <Trackpoint>
            <Time>2019-10-04T16:04:29.000Z</Time>
            <Position>
              <LatitudeDegrees>42.89222686551511287689208984375</LatitudeDegrees>
              <LongitudeDegrees>-5.641773529350757598876953125</LongitudeDegrees>
            </Position>
            <AltitudeMeters>1208.5999755859375</AltitudeMeters>
            <DistanceMeters>NAN</DistanceMeters>
          </Trackpoint>
          <Trackpoint>
            <Time>2019-10-04T16:04:33.000Z</Time>
            <Position>
              <LatitudeDegrees>42.89186392910778522491455078125</LatitudeDegrees>
              <LongitudeDegrees>-5.6415048055350780487060546875</LongitudeDegrees>
            </Position>
            <AltitudeMeters>1209</AltitudeMeters>
            <DistanceMeters>NAN</DistanceMeters>
          </Trackpoint>
          <Trackpoint>
            <Time>2019-10-04T16:04:39.000Z</Time>
            <Position>
              <LatitudeDegrees>42.89131239987909793853759765625</LatitudeDegrees>
              <LongitudeDegrees>-5.6410893984138965606689453125</LongitudeDegrees>
            </Position>
            <AltitudeMeters>1208</AltitudeMeters>
            <DistanceMeters>NAN</DistanceMeters>
          </Trackpoint>
          <Trackpoint>
            <Time>2019-10-04T16:04:44.000Z</Time>
            <Position>
              <LatitudeDegrees>42.890852987766265869140625</LatitudeDegrees>
              <LongitudeDegrees>-5.64074750058352947235107421875</LongitudeDegrees>
            </Position>
            <AltitudeMeters>1207.4000244140625</AltitudeMeters>
            <DistanceMeters>NAN</DistanceMeters>
          </Trackpoint>
          <Trackpoint>
            <Time>2019-10-04T16:04:47.000Z</Time>
            <Position>
              <LatitudeDegrees>42.89055702276527881622314453125</LatitudeDegrees>
              <LongitudeDegrees>-5.64057248644530773162841796875</LongitudeDegrees>
            </Position>
            <AltitudeMeters>1207.4000244140625</AltitudeMeters>
            <DistanceMeters>NAN</DistanceMeters>
          </Trackpoint>
          <Trackpoint>
            <Time>2019-10-04T16:04:51.000Z</Time>
            <Position>
              <LatitudeDegrees>42.890143208205699920654296875</LatitudeDegrees>
              <LongitudeDegrees>-5.6404124759137630462646484375</LongitudeDegrees>
            </Position>
            <AltitudeMeters>1207</AltitudeMeters>
            <DistanceMeters>NAN</DistanceMeters>
          </Trackpoint>
          <Trackpoint>
            <Time>2019-10-04T16:04:52.000Z</Time>
            <Position>
              <LatitudeDegrees>42.89003600366413593292236328125</LatitudeDegrees>
              <LongitudeDegrees>-5.6403846479952335357666015625</LongitudeDegrees>
            </Position>
            <AltitudeMeters>1206.5999755859375</AltitudeMeters>
            <DistanceMeters>NAN</DistanceMeters>
          </Trackpoint>
          <Trackpoint>
            <Time>2019-10-04T16:04:54.000Z</Time>
            <Position>
              <LatitudeDegrees>42.88981639780104160308837890625</LatitudeDegrees>
              <LongitudeDegrees>-5.64035070128738880157470703125</LongitudeDegrees>
            </Position>
            <AltitudeMeters>1206.4000244140625</AltitudeMeters>
            <DistanceMeters>NAN</DistanceMeters>
          </Trackpoint>
          <Trackpoint>
            <Time>2019-10-04T16:04:57.000Z</Time>
            <Position>
              <LatitudeDegrees>42.8894837200641632080078125</LatitudeDegrees>
              <LongitudeDegrees>-5.64033578149974346160888671875</LongitudeDegrees>
            </Position>
            <AltitudeMeters>1206.4000244140625</AltitudeMeters>
            <DistanceMeters>NAN</DistanceMeters>
          </Trackpoint>
          <Trackpoint>
            <Time>2019-10-04T16:05:02.000Z</Time>
            <Position>
              <LatitudeDegrees>42.888914756476879119873046875</LatitudeDegrees>
              <LongitudeDegrees>-5.6403194367885589599609375</LongitudeDegrees>
            </Position>
            <AltitudeMeters>1205.4000244140625</AltitudeMeters>
            <DistanceMeters>NAN</DistanceMeters>
          </Trackpoint>
          <Trackpoint>
            <Time>2019-10-04T16:05:05.000Z</Time>
            <Position>
              <LatitudeDegrees>42.88857017643749713897705078125</LatitudeDegrees>
              <LongitudeDegrees>-5.64030912704765796661376953125</LongitudeDegrees>
            </Position>
            <AltitudeMeters>1205.199951171875</AltitudeMeters>
            <DistanceMeters>NAN</DistanceMeters>
          </Trackpoint>
          <Trackpoint>
            <Time>2019-10-04T16:05:10.000Z</Time>
            <Position>
              <LatitudeDegrees>42.88800238631665706634521484375</LatitudeDegrees>
              <LongitudeDegrees>-5.64029286615550518035888671875</LongitudeDegrees>
            </Position>
            <AltitudeMeters>1204.5999755859375</AltitudeMeters>
            <DistanceMeters>NAN</DistanceMeters>
          </Trackpoint>
          <Trackpoint>
            <Time>2019-10-04T16:05:13.000Z</Time>
            <Position>
              <LatitudeDegrees>42.88767255842685699462890625</LatitudeDegrees>
              <LongitudeDegrees>-5.64028096385300159454345703125</LongitudeDegrees>
            </Position>
            <AltitudeMeters>1204.199951171875</AltitudeMeters>
            <DistanceMeters>NAN</DistanceMeters>
          </Trackpoint>
          <Trackpoint>
            <Time>2019-10-04T16:05:14.000Z</Time>
            <Position>
              <LatitudeDegrees>42.88756401278078556060791015625</LatitudeDegrees>
              <LongitudeDegrees>-5.64027442596852779388427734375</LongitudeDegrees>
            </Position>
            <AltitudeMeters>1204.199951171875</AltitudeMeters>
            <DistanceMeters>NAN</DistanceMeters>
          </Trackpoint>
          <Trackpoint>
            <Time>2019-10-04T16:05:20.000Z</Time>
            <Position>
              <LatitudeDegrees>42.8869609348475933074951171875</LatitudeDegrees>
              <LongitudeDegrees>-5.6402550637722015380859375</LongitudeDegrees>
            </Position>
            <AltitudeMeters>1203.4000244140625</AltitudeMeters>
            <DistanceMeters>NAN</DistanceMeters>
          </Trackpoint>
          <Trackpoint>
            <Time>2019-10-04T16:05:25.000Z</Time>
            <Position>
              <LatitudeDegrees>42.8864979185163974761962890625</LatitudeDegrees>
              <LongitudeDegrees>-5.64019781537353992462158203125</LongitudeDegrees>
            </Position>
            <AltitudeMeters>1203.199951171875</AltitudeMeters>
            <DistanceMeters>NAN</DistanceMeters>
          </Trackpoint>
          <Trackpoint>
            <Time>2019-10-04T16:05:27.000Z</Time>
            <Position>
              <LatitudeDegrees>42.8863259218633174896240234375</LatitudeDegrees>
              <LongitudeDegrees>-5.6401559896767139434814453125</LongitudeDegrees>
            </Position>
            <AltitudeMeters>1203</AltitudeMeters>
            <DistanceMeters>NAN</DistanceMeters>
          </Trackpoint>
          <Trackpoint>
            <Time>2019-10-04T16:05:33.000Z</Time>
            <Position>
              <LatitudeDegrees>42.8858359158039093017578125</LatitudeDegrees>
              <LongitudeDegrees>-5.639971755445003509521484375</LongitudeDegrees>
            </Position>
            <AltitudeMeters>1202.800048828125</AltitudeMeters>
            <DistanceMeters>NAN</DistanceMeters>
          </Trackpoint>
          <Trackpoint>
            <Time>2019-10-04T16:05:38.000Z</Time>
            <Position>
              <LatitudeDegrees>42.88543350063264369964599609375</LatitudeDegrees>
              <LongitudeDegrees>-5.63975726254284381866455078125</LongitudeDegrees>
            </Position>
            <AltitudeMeters>1202.4000244140625</AltitudeMeters>
            <DistanceMeters>NAN</DistanceMeters>
          </Trackpoint>
          <Trackpoint>
            <Time>2019-10-04T16:05:41.000Z</Time>
            <Position>
              <LatitudeDegrees>42.88520735688507556915283203125</LatitudeDegrees>
              <LongitudeDegrees>-5.639595575630664825439453125</LongitudeDegrees>
            </Position>
            <AltitudeMeters>1202.199951171875</AltitudeMeters>
            <DistanceMeters>NAN</DistanceMeters>
          </Trackpoint>
          <Trackpoint>
            <Time>2019-10-04T16:05:46.000Z</Time>
            <Position>
              <LatitudeDegrees>42.88485095836222171783447265625</LatitudeDegrees>
              <LongitudeDegrees>-5.63928167335689067840576171875</LongitudeDegrees>
            </Position>
            <AltitudeMeters>1202</AltitudeMeters>
            <DistanceMeters>NAN</DistanceMeters>
          </Trackpoint>
          <Trackpoint>
            <Time>2019-10-04T16:05:53.000Z</Time>
            <Position>
              <LatitudeDegrees>42.88435642607510089874267578125</LatitudeDegrees>
              <LongitudeDegrees>-5.63881815411150455474853515625</LongitudeDegrees>
            </Position>
            <AltitudeMeters>1201.4000244140625</AltitudeMeters>
            <DistanceMeters>NAN</DistanceMeters>
          </Trackpoint>
          <Trackpoint>
            <Time>2019-10-04T16:05:55.000Z</Time>
            <Position>
              <LatitudeDegrees>42.88421577773988246917724609375</LatitudeDegrees>
              <LongitudeDegrees>-5.63868991099298000335693359375</LongitudeDegrees>
            </Position>
            <AltitudeMeters>1201.4000244140625</AltitudeMeters>
            <DistanceMeters>NAN</DistanceMeters>
          </Trackpoint>
          <Trackpoint>
            <Time>2019-10-04T16:06:02.000Z</Time>
            <Position>
              <LatitudeDegrees>42.8837141208350658416748046875</LatitudeDegrees>
              <LongitudeDegrees>-5.63823427073657512664794921875</LongitudeDegrees>
            </Position>
            <AltitudeMeters>1201.199951171875</AltitudeMeters>
            <DistanceMeters>NAN</DistanceMeters>
          </Trackpoint>
          <Trackpoint>
            <Time>2019-10-04T16:06:03.000Z</Time>
            <Position>
              <LatitudeDegrees>42.88364027626812458038330078125</LatitudeDegrees>
              <LongitudeDegrees>-5.6381711550056934356689453125</LongitudeDegrees>
            </Position>
            <AltitudeMeters>1201</AltitudeMeters>
            <DistanceMeters>NAN</DistanceMeters>
          </Trackpoint>
          <Trackpoint>
            <Time>2019-10-04T16:06:05.000Z</Time>
            <Position>
              <LatitudeDegrees>42.88348219357430934906005859375</LatitudeDegrees>
              <LongitudeDegrees>-5.6380434148013591766357421875</LongitudeDegrees>
            </Position>
            <AltitudeMeters>1200.800048828125</AltitudeMeters>
            <DistanceMeters>NAN</DistanceMeters>
          </Trackpoint>
          <Trackpoint>
            <Time>2019-10-04T16:06:11.000Z</Time>
            <Position>
              <LatitudeDegrees>42.88295924663543701171875</LatitudeDegrees>
              <LongitudeDegrees>-5.63770453445613384246826171875</LongitudeDegrees>
            </Position>
            <AltitudeMeters>1200.4000244140625</AltitudeMeters>
            <DistanceMeters>NAN</DistanceMeters>
          </Trackpoint>
          <Trackpoint>
            <Time>2019-10-04T16:06:12.000Z</Time>
            <Position>
              <LatitudeDegrees>42.88286394439637660980224609375</LatitudeDegrees>
              <LongitudeDegrees>-5.63765935599803924560546875</LongitudeDegrees>
            </Position>
            <AltitudeMeters>1200.4000244140625</AltitudeMeters>
            <DistanceMeters>NAN</DistanceMeters>
          </Trackpoint>
          <Trackpoint>
            <Time>2019-10-04T16:06:16.000Z</Time>
            <Position>
              <LatitudeDegrees>42.8824769519269466400146484375</LatitudeDegrees>
              <LongitudeDegrees>-5.63753169961273670196533203125</LongitudeDegrees>
            </Position>
            <AltitudeMeters>1199.800048828125</AltitudeMeters>
            <DistanceMeters>NAN</DistanceMeters>
          </Trackpoint>
          <Trackpoint>
            <Time>2019-10-04T16:06:17.000Z</Time>
            <Position>
              <LatitudeDegrees>42.88238014094531536102294921875</LatitudeDegrees>
              <LongitudeDegrees>-5.637509487569332122802734375</LongitudeDegrees>
            </Position>
            <AltitudeMeters>1199.5999755859375</AltitudeMeters>
            <DistanceMeters>NAN</DistanceMeters>
          </Trackpoint>
          <Trackpoint>
            <Time>2019-10-04T16:06:23.000Z</Time>
            <Position>
              <LatitudeDegrees>42.88179022260010242462158203125</LatitudeDegrees>
              <LongitudeDegrees>-5.6374580226838588714599609375</LongitudeDegrees>
            </Position>
            <AltitudeMeters>1199.199951171875</AltitudeMeters>
            <DistanceMeters>NAN</DistanceMeters>
          </Trackpoint>
          <Trackpoint>
            <Time>2019-10-04T16:06:28.000Z</Time>
            <Position>
              <LatitudeDegrees>42.88130499422550201416015625</LatitudeDegrees>
              <LongitudeDegrees>-5.6375187076628208160400390625</LongitudeDegrees>
            </Position>
            <AltitudeMeters>1198.5999755859375</AltitudeMeters>
            <DistanceMeters>NAN</DistanceMeters>
          </Trackpoint>
          <Trackpoint>
            <Time>2019-10-04T16:06:29.000Z</Time>
            <Position>
              <LatitudeDegrees>42.8812143020331859588623046875</LatitudeDegrees>
              <LongitudeDegrees>-5.63754511065781116485595703125</LongitudeDegrees>
            </Position>
            <AltitudeMeters>1198.5999755859375</AltitudeMeters>
            <DistanceMeters>NAN</DistanceMeters>
          </Trackpoint>
          <Trackpoint>
            <Time>2019-10-04T16:06:35.000Z</Time>
            <Position>
              <LatitudeDegrees>42.8807418979704380035400390625</LatitudeDegrees>
              <LongitudeDegrees>-5.637724734842777252197265625</LongitudeDegrees>
            </Position>
            <AltitudeMeters>1198</AltitudeMeters>
            <DistanceMeters>NAN</DistanceMeters>
          </Trackpoint>
          <Trackpoint>
            <Time>2019-10-04T16:06:40.000Z</Time>
            <Position>
              <LatitudeDegrees>42.880449704825878143310546875</LatitudeDegrees>
              <LongitudeDegrees>-5.63792221248149871826171875</LongitudeDegrees>
            </Position>
            <AltitudeMeters>1197.4000244140625</AltitudeMeters>
            <DistanceMeters>NAN</DistanceMeters>
          </Trackpoint>
          <Trackpoint>
            <Time>2019-10-04T16:06:41.000Z</Time>
            <Position>
              <LatitudeDegrees>42.88039396516978740692138671875</LatitudeDegrees>
              <LongitudeDegrees>-5.63797258771955966949462890625</LongitudeDegrees>
            </Position>
            <AltitudeMeters>1197.5999755859375</AltitudeMeters>
            <DistanceMeters>NAN</DistanceMeters>
          </Trackpoint>
          <Trackpoint>
            <Time>2019-10-04T16:06:42.000Z</Time>
            <Position>
              <LatitudeDegrees>42.88034384138882160186767578125</LatitudeDegrees>
              <LongitudeDegrees>-5.63802690245211124420166015625</LongitudeDegrees>
            </Position>
            <AltitudeMeters>1197.199951171875</AltitudeMeters>
            <DistanceMeters>NAN</DistanceMeters>
          </Trackpoint>
          <Trackpoint>
            <Time>2019-10-04T16:06:45.000Z</Time>
            <Position>
              <LatitudeDegrees>42.88021735846996307373046875</LatitudeDegrees>
              <LongitudeDegrees>-5.638222955167293548583984375</LongitudeDegrees>
            </Position>
            <AltitudeMeters>1196.5999755859375</AltitudeMeters>
            <DistanceMeters>NAN</DistanceMeters>
          </Trackpoint>
          <Trackpoint>
            <Time>2019-10-04T16:06:46.000Z</Time>
            <Position>
              <LatitudeDegrees>42.88017720915377140045166015625</LatitudeDegrees>
              <LongitudeDegrees>-5.6382938660681247711181640625</LongitudeDegrees>
            </Position>
            <AltitudeMeters>1196.199951171875</AltitudeMeters>
            <DistanceMeters>NAN</DistanceMeters>
          </Trackpoint>
          <Trackpoint>
            <Time>2019-10-04T16:06:49.000Z</Time>
            <Position>
              <LatitudeDegrees>42.88006707094609737396240234375</LatitudeDegrees>
              <LongitudeDegrees>-5.63852646388113498687744140625</LongitudeDegrees>
            </Position>
            <AltitudeMeters>1195.199951171875</AltitudeMeters>
            <DistanceMeters>NAN</DistanceMeters>
          </Trackpoint>
          <Trackpoint>
            <Time>2019-10-04T16:06:52.000Z</Time>
            <Position>
              <LatitudeDegrees>42.879969589412212371826171875</LatitudeDegrees>
              <LongitudeDegrees>-5.6387853808701038360595703125</LongitudeDegrees>
            </Position>
            <AltitudeMeters>1194.4000244140625</AltitudeMeters>
            <DistanceMeters>NAN</DistanceMeters>
          </Trackpoint>
          <Trackpoint>
            <Time>2019-10-04T16:06:53.000Z</Time>
            <Position>
              <LatitudeDegrees>42.8799382410943508148193359375</LatitudeDegrees>
              <LongitudeDegrees>-5.63887582160532474517822265625</LongitudeDegrees>
            </Position>
            <AltitudeMeters>1194.199951171875</AltitudeMeters>
            <DistanceMeters>NAN</DistanceMeters>
          </Trackpoint>
          <Trackpoint>
            <Time>2019-10-04T16:06:56.000Z</Time>
            <Position>
              <LatitudeDegrees>42.879845537245273590087890625</LatitudeDegrees>
              <LongitudeDegrees>-5.63915695063769817352294921875</LongitudeDegrees>
            </Position>
            <AltitudeMeters>1193</AltitudeMeters>
            <DistanceMeters>NAN</DistanceMeters>
          </Trackpoint>
          <Trackpoint>
            <Time>2019-10-04T16:06:59.000Z</Time>
            <Position>
              <LatitudeDegrees>42.87975132465362548828125</LatitudeDegrees>
              <LongitudeDegrees>-5.63945149071514606475830078125</LongitudeDegrees>
            </Position>
            <AltitudeMeters>1191.800048828125</AltitudeMeters>
            <DistanceMeters>NAN</DistanceMeters>
          </Trackpoint>
          <Trackpoint>
            <Time>2019-10-04T16:07:00.000Z</Time>
            <Position>
              <LatitudeDegrees>42.87971938960254192352294921875</LatitudeDegrees>
              <LongitudeDegrees>-5.6395514868199825286865234375</LongitudeDegrees>
            </Position>
            <AltitudeMeters>1191.199951171875</AltitudeMeters>
            <DistanceMeters>NAN</DistanceMeters>
          </Trackpoint>
          <Trackpoint>
            <Time>2019-10-04T16:07:02.000Z</Time>
            <Position>
              <LatitudeDegrees>42.8796572797000408172607421875</LatitudeDegrees>
              <LongitudeDegrees>-5.63975189812481403350830078125</LongitudeDegrees>
            </Position>
            <AltitudeMeters>1190.199951171875</AltitudeMeters>
            <DistanceMeters>NAN</DistanceMeters>
          </Trackpoint>
          <Trackpoint>
            <Time>2019-10-04T16:07:06.000Z</Time>
            <Position>
              <LatitudeDegrees>42.8794983588159084320068359375</LatitudeDegrees>
              <LongitudeDegrees>-5.640154145658016204833984375</LongitudeDegrees>
            </Position>
            <AltitudeMeters>1188.800048828125</AltitudeMeters>
            <DistanceMeters>NAN</DistanceMeters>
          </Trackpoint>
          <Trackpoint>
            <Time>2019-10-04T16:07:07.000Z</Time>
            <Position>
              <LatitudeDegrees>42.879453934729099273681640625</LatitudeDegrees>
              <LongitudeDegrees>-5.64025347121059894561767578125</LongitudeDegrees>
            </Position>
            <AltitudeMeters>1188</AltitudeMeters>
            <DistanceMeters>NAN</DistanceMeters>
          </Trackpoint>
          <Trackpoint>
            <Time>2019-10-04T16:07:09.000Z</Time>
            <Position>
              <LatitudeDegrees>42.87934890948235988616943359375</LatitudeDegrees>
              <LongitudeDegrees>-5.640437789261341094970703125</LongitudeDegrees>
            </Position>
            <AltitudeMeters>1187.4000244140625</AltitudeMeters>
            <DistanceMeters>NAN</DistanceMeters>
          </Trackpoint>
          <Trackpoint>
            <Time>2019-10-04T16:07:12.000Z</Time>
            <Position>
              <LatitudeDegrees>42.8791724704205989837646484375</LatitudeDegrees>
              <LongitudeDegrees>-5.64067759551107883453369140625</LongitudeDegrees>
            </Position>
            <AltitudeMeters>1187</AltitudeMeters>
            <DistanceMeters>NAN</DistanceMeters>
          </Trackpoint>
          <Trackpoint>
            <Time>2019-10-04T16:07:14.000Z</Time>
            <Position>
              <LatitudeDegrees>42.8790517710149288177490234375</LatitudeDegrees>
              <LongitudeDegrees>-5.6408161483705043792724609375</LongitudeDegrees>
            </Position>
            <AltitudeMeters>1186.4000244140625</AltitudeMeters>
            <DistanceMeters>NAN</DistanceMeters>
          </Trackpoint>
          <Trackpoint>
            <Time>2019-10-04T16:07:17.000Z</Time>
            <Position>
              <LatitudeDegrees>42.87885756231844425201416015625</LatitudeDegrees>
              <LongitudeDegrees>-5.6409556232392787933349609375</LongitudeDegrees>
            </Position>
            <AltitudeMeters>1185.5999755859375</AltitudeMeters>
            <DistanceMeters>NAN</DistanceMeters>
          </Trackpoint>
          <Trackpoint>
            <Time>2019-10-04T16:07:18.000Z</Time>
            <Position>
              <LatitudeDegrees>42.87879419513046741485595703125</LatitudeDegrees>
              <LongitudeDegrees>-5.64098789356648921966552734375</LongitudeDegrees>
            </Position>
            <AltitudeMeters>1185.5999755859375</AltitudeMeters>
            <DistanceMeters>NAN</DistanceMeters>
          </Trackpoint>
          <Trackpoint>
            <Time>2019-10-04T16:07:20.000Z</Time>
            <Position>
              <LatitudeDegrees>42.8786762617528438568115234375</LatitudeDegrees>
              <LongitudeDegrees>-5.64104564487934112548828125</LongitudeDegrees>
            </Position>
            <AltitudeMeters>1185.199951171875</AltitudeMeters>
            <DistanceMeters>NAN</DistanceMeters>
          </Trackpoint>
          <Trackpoint>
            <Time>2019-10-04T16:07:22.000Z</Time>
            <Position>
              <LatitudeDegrees>42.87856872193515300750732421875</LatitudeDegrees>
              <LongitudeDegrees>-5.641077496111392974853515625</LongitudeDegrees>
            </Position>
            <AltitudeMeters>1184.4000244140625</AltitudeMeters>
            <DistanceMeters>NAN</DistanceMeters>
          </Trackpoint>
          <Trackpoint>
            <Time>2019-10-04T16:07:25.000Z</Time>
            <Position>
              <LatitudeDegrees>42.8784227930009365081787109375</LatitudeDegrees>
              <LongitudeDegrees>-5.641106329858303070068359375</LongitudeDegrees>
            </Position>
            <AltitudeMeters>1184.199951171875</AltitudeMeters>
            <DistanceMeters>NAN</DistanceMeters>
          </Trackpoint>
          <Trackpoint>
            <Time>2019-10-04T16:07:28.000Z</Time>
            <Position>
              <LatitudeDegrees>42.878294885158538818359375</LatitudeDegrees>
              <LongitudeDegrees>-5.6411132030189037322998046875</LongitudeDegrees>
            </Position>
            <AltitudeMeters>1183.800048828125</AltitudeMeters>
            <DistanceMeters>NAN</DistanceMeters>
          </Trackpoint>
          <Trackpoint>
            <Time>2019-10-04T16:07:34.000Z</Time>
            <Position>
              <LatitudeDegrees>42.878064215183258056640625</LatitudeDegrees>
              <LongitudeDegrees>-5.6410964392125606536865234375</LongitudeDegrees>
            </Position>
            <AltitudeMeters>1183.199951171875</AltitudeMeters>
            <DistanceMeters>NAN</DistanceMeters>
          </Trackpoint>
          <Trackpoint>
            <Time>2019-10-04T16:07:36.000Z</Time>
            <Position>
              <LatitudeDegrees>42.87800193764269351959228515625</LatitudeDegrees>
              <LongitudeDegrees>-5.64108998514711856842041015625</LongitudeDegrees>
            </Position>
            <AltitudeMeters>1183</AltitudeMeters>
            <DistanceMeters>NAN</DistanceMeters>
          </Trackpoint>
          <Trackpoint>
            <Time>2019-10-04T16:07:40.000Z</Time>
            <Position>
              <LatitudeDegrees>42.87786447443068027496337890625</LatitudeDegrees>
              <LongitudeDegrees>-5.6410602293908596038818359375</LongitudeDegrees>
            </Position>
            <AltitudeMeters>1182.4000244140625</AltitudeMeters>
            <DistanceMeters>NAN</DistanceMeters>
          </Trackpoint>
          <Trackpoint>
            <Time>2019-10-04T16:07:46.000Z</Time>
            <Position>
              <LatitudeDegrees>42.87765224464237689971923828125</LatitudeDegrees>
              <LongitudeDegrees>-5.64100968651473522186279296875</LongitudeDegrees>
            </Position>
            <AltitudeMeters>1182.199951171875</AltitudeMeters>
            <DistanceMeters>NAN</DistanceMeters>
          </Trackpoint>
          <Trackpoint>
            <Time>2019-10-04T16:07:51.000Z</Time>
            <Position>
              <LatitudeDegrees>42.87746750749647617340087890625</LatitudeDegrees>
              <LongitudeDegrees>-5.64095176756381988525390625</LongitudeDegrees>
            </Position>
            <AltitudeMeters>1181.800048828125</AltitudeMeters>
            <DistanceMeters>NAN</DistanceMeters>
          </Trackpoint>
          <Trackpoint>
            <Time>2019-10-04T16:07:55.000Z</Time>
            <Position>
              <LatitudeDegrees>42.8773217462003231048583984375</LatitudeDegrees>
              <LongitudeDegrees>-5.6409080140292644500732421875</LongitudeDegrees>
            </Position>
            <AltitudeMeters>1181.4000244140625</AltitudeMeters>
            <DistanceMeters>NAN</DistanceMeters>
          </Trackpoint>
          <Trackpoint>
            <Time>2019-10-04T16:08:01.000Z</Time>
            <Position>
              <LatitudeDegrees>42.8771014697849750518798828125</LatitudeDegrees>
              <LongitudeDegrees>-5.64084942452609539031982421875</LongitudeDegrees>
            </Position>
            <AltitudeMeters>1181.199951171875</AltitudeMeters>
            <DistanceMeters>NAN</DistanceMeters>
          </Trackpoint>
          <Trackpoint>
            <Time>2019-10-04T16:08:02.000Z</Time>
            <Position>
              <LatitudeDegrees>42.87706500850617885589599609375</LatitudeDegrees>
              <LongitudeDegrees>-5.64083467237651348114013671875</LongitudeDegrees>
            </Position>
            <AltitudeMeters>1181.199951171875</AltitudeMeters>
            <DistanceMeters>NAN</DistanceMeters>
          </Trackpoint>
          <Trackpoint>
            <Time>2019-10-04T16:08:05.000Z</Time>
            <Position>
              <LatitudeDegrees>42.87695218808948993682861328125</LatitudeDegrees>
              <LongitudeDegrees>-5.6407960318028926849365234375</LongitudeDegrees>
            </Position>
            <AltitudeMeters>1180.800048828125</AltitudeMeters>
            <DistanceMeters>NAN</DistanceMeters>
          </Trackpoint>
          <Trackpoint>
            <Time>2019-10-04T16:08:11.000Z</Time>
            <Position>
              <LatitudeDegrees>42.8767273016273975372314453125</LatitudeDegrees>
              <LongitudeDegrees>-5.64072671346366405487060546875</LongitudeDegrees>
            </Position>
            <AltitudeMeters>1180.4000244140625</AltitudeMeters>
            <DistanceMeters>NAN</DistanceMeters>
          </Trackpoint>
          <Trackpoint>
            <Time>2019-10-04T16:08:18.000Z</Time>
            <Position>
              <LatitudeDegrees>42.876465283334255218505859375</LatitudeDegrees>
              <LongitudeDegrees>-5.64063769765198230743408203125</LongitudeDegrees>
            </Position>
            <AltitudeMeters>1179.5999755859375</AltitudeMeters>
            <DistanceMeters>NAN</DistanceMeters>
          </Trackpoint>
          <Trackpoint>
            <Time>2019-10-04T16:08:19.000Z</Time>
            <Position>
              <LatitudeDegrees>42.87642731331288814544677734375</LatitudeDegrees>
              <LongitudeDegrees>-5.6406270526349544525146484375</LongitudeDegrees>
            </Position>
            <AltitudeMeters>1179.4000244140625</AltitudeMeters>
            <DistanceMeters>NAN</DistanceMeters>
          </Trackpoint>
          <Trackpoint>
            <Time>2019-10-04T16:08:27.000Z</Time>
            <Position>
              <LatitudeDegrees>42.876107878983020782470703125</LatitudeDegrees>
              <LongitudeDegrees>-5.6405244581401348114013671875</LongitudeDegrees>
            </Position>
            <AltitudeMeters>1178.800048828125</AltitudeMeters>
            <DistanceMeters>NAN</DistanceMeters>
          </Trackpoint>
          <Trackpoint>
            <Time>2019-10-04T16:08:34.000Z</Time>
            <Position>
              <LatitudeDegrees>42.87582197226583957672119140625</LatitudeDegrees>
              <LongitudeDegrees>-5.64048799686133861541748046875</LongitudeDegrees>
            </Position>
            <AltitudeMeters>1178.5999755859375</AltitudeMeters>
            <DistanceMeters>NAN</DistanceMeters>
          </Trackpoint>
          <Trackpoint>
            <Time>2019-10-04T16:08:35.000Z</Time>
            <Position>
              <LatitudeDegrees>42.87577972747385501861572265625</LatitudeDegrees>
              <LongitudeDegrees>-5.640484727919101715087890625</LongitudeDegrees>
            </Position>
            <AltitudeMeters>1178.4000244140625</AltitudeMeters>
            <DistanceMeters>NAN</DistanceMeters>
          </Trackpoint>
          <Trackpoint>
            <Time>2019-10-04T16:08:44.000Z</Time>
            <Position>
              <LatitudeDegrees>42.87541109137237071990966796875</LatitudeDegrees>
              <LongitudeDegrees>-5.64049688167870044708251953125</LongitudeDegrees>
            </Position>
            <AltitudeMeters>1177.800048828125</AltitudeMeters>
            <DistanceMeters>NAN</DistanceMeters>
          </Trackpoint>
          <Trackpoint>
            <Time>2019-10-04T16:08:45.000Z</Time>
            <Position>
              <LatitudeDegrees>42.87536800839006900787353515625</LatitudeDegrees>
              <LongitudeDegrees>-5.6405006535351276397705078125</LongitudeDegrees>
            </Position>
            <AltitudeMeters>1177.5999755859375</AltitudeMeters>
            <DistanceMeters>NAN</DistanceMeters>
          </Trackpoint>
          <Trackpoint>
            <Time>2019-10-04T16:08:52.000Z</Time>
            <Position>
              <LatitudeDegrees>42.87504111416637897491455078125</LatitudeDegrees>
              <LongitudeDegrees>-5.6405717320740222930908203125</LongitudeDegrees>
            </Position>
            <AltitudeMeters>1177.199951171875</AltitudeMeters>
            <DistanceMeters>NAN</DistanceMeters>
          </Trackpoint>
          <Trackpoint>
            <Time>2019-10-04T16:09:00.000Z</Time>
            <Position>
              <LatitudeDegrees>42.87464984692633152008056640625</LatitudeDegrees>
              <LongitudeDegrees>-5.6406713090837001800537109375</LongitudeDegrees>
            </Position>
            <AltitudeMeters>1176.4000244140625</AltitudeMeters>
            <DistanceMeters>NAN</DistanceMeters>
          </Trackpoint>
          <Trackpoint>
            <Time>2019-10-04T16:09:02.000Z</Time>
            <Position>
              <LatitudeDegrees>42.87454708479344844818115234375</LatitudeDegrees>
              <LongitudeDegrees>-5.64069419167935848236083984375</LongitudeDegrees>
            </Position>
            <AltitudeMeters>1176.4000244140625</AltitudeMeters>
            <DistanceMeters>NAN</DistanceMeters>
          </Trackpoint>
          <Trackpoint>
            <Time>2019-10-04T16:09:09.000Z</Time>
            <Position>
              <LatitudeDegrees>42.87416822277009487152099609375</LatitudeDegrees>
              <LongitudeDegrees>-5.64078169874846935272216796875</LongitudeDegrees>
            </Position>
            <AltitudeMeters>1175.4000244140625</AltitudeMeters>
            <DistanceMeters>NAN</DistanceMeters>
          </Trackpoint>
          <Trackpoint>
            <Time>2019-10-04T16:09:10.000Z</Time>
            <Position>
              <LatitudeDegrees>42.87411122582852840423583984375</LatitudeDegrees>
              <LongitudeDegrees>-5.6407940201461315155029296875</LongitudeDegrees>
            </Position>
            <AltitudeMeters>1175.199951171875</AltitudeMeters>
            <DistanceMeters>NAN</DistanceMeters>
          </Trackpoint>
          <Trackpoint>
            <Time>2019-10-04T16:09:15.000Z</Time>
            <Position>
              <LatitudeDegrees>42.87381886504590511322021484375</LatitudeDegrees>
              <LongitudeDegrees>-5.6408523581922054290771484375</LongitudeDegrees>
            </Position>
            <AltitudeMeters>1174.800048828125</AltitudeMeters>
            <DistanceMeters>NAN</DistanceMeters>
          </Trackpoint>
          <Trackpoint>
            <Time>2019-10-04T16:09:18.000Z</Time>
            <Position>
              <LatitudeDegrees>42.87363362498581409454345703125</LatitudeDegrees>
              <LongitudeDegrees>-5.6408952735364437103271484375</LongitudeDegrees>
            </Position>
            <AltitudeMeters>1174.4000244140625</AltitudeMeters>
            <DistanceMeters>NAN</DistanceMeters>
          </Trackpoint>
          <Trackpoint>
            <Time>2019-10-04T16:09:19.000Z</Time>
            <Position>
              <LatitudeDegrees>42.8735706768929958343505859375</LatitudeDegrees>
              <LongitudeDegrees>-5.64091346226632595062255859375</LongitudeDegrees>
            </Position>
            <AltitudeMeters>1173.800048828125</AltitudeMeters>
            <DistanceMeters>NAN</DistanceMeters>
          </Trackpoint>
          <Trackpoint>
            <Time>2019-10-04T16:09:24.000Z</Time>
            <Position>
              <LatitudeDegrees>42.8732509911060333251953125</LatitudeDegrees>
              <LongitudeDegrees>-5.641037262976169586181640625</LongitudeDegrees>
            </Position>
            <AltitudeMeters>1172.800048828125</AltitudeMeters>
            <DistanceMeters>NAN</DistanceMeters>
          </Trackpoint>
          <Trackpoint>
            <Time>2019-10-04T16:09:25.000Z</Time>
            <Position>
              <LatitudeDegrees>42.873185612261295318603515625</LatitudeDegrees>
              <LongitudeDegrees>-5.6410679407417774200439453125</LongitudeDegrees>
            </Position>
            <AltitudeMeters>1172.4000244140625</AltitudeMeters>
            <DistanceMeters>NAN</DistanceMeters>
          </Trackpoint>
          <Trackpoint>
            <Time>2019-10-04T16:09:28.000Z</Time>
            <Position>
              <LatitudeDegrees>42.87299207411706447601318359375</LatitudeDegrees>
              <LongitudeDegrees>-5.6411752291023731231689453125</LongitudeDegrees>
            </Position>
            <AltitudeMeters>1171.4000244140625</AltitudeMeters>
            <DistanceMeters>NAN</DistanceMeters>
          </Trackpoint>
          <Trackpoint>
            <Time>2019-10-04T16:09:30.000Z</Time>
            <Position>
              <LatitudeDegrees>42.87286274135112762451171875</LatitudeDegrees>
              <LongitudeDegrees>-5.64126198180019855499267578125</LongitudeDegrees>
            </Position>
            <AltitudeMeters>1170.4000244140625</AltitudeMeters>
            <DistanceMeters>NAN</DistanceMeters>
          </Trackpoint>
          <Trackpoint>
            <Time>2019-10-04T16:09:32.000Z</Time>
            <Position>
              <LatitudeDegrees>42.8727395273745059967041015625</LatitudeDegrees>
              <LongitudeDegrees>-5.6413613073527812957763671875</LongitudeDegrees>
            </Position>
            <AltitudeMeters>1169.199951171875</AltitudeMeters>
            <DistanceMeters>NAN</DistanceMeters>
          </Trackpoint>
          <Trackpoint>
            <Time>2019-10-04T16:09:34.000Z</Time>
            <Position>
              <LatitudeDegrees>42.87261539138853549957275390625</LatitudeDegrees>
              <LongitudeDegrees>-5.641479156911373138427734375</LongitudeDegrees>
            </Position>
            <AltitudeMeters>1167.5999755859375</AltitudeMeters>
            <DistanceMeters>NAN</DistanceMeters>
          </Trackpoint>
          <Trackpoint>
            <Time>2019-10-04T16:09:36.000Z</Time>
            <Position>
              <LatitudeDegrees>42.87251195870339870452880859375</LatitudeDegrees>
              <LongitudeDegrees>-5.641617290675640106201171875</LongitudeDegrees>
            </Position>
            <AltitudeMeters>1167</AltitudeMeters>
            <DistanceMeters>NAN</DistanceMeters>
          </Trackpoint>
          <Trackpoint>
            <Time>2019-10-04T16:09:37.000Z</Time>
            <Position>
              <LatitudeDegrees>42.8724595718085765838623046875</LatitudeDegrees>
              <LongitudeDegrees>-5.6416858546435832977294921875</LongitudeDegrees>
            </Position>
            <AltitudeMeters>1166.4000244140625</AltitudeMeters>
            <DistanceMeters>NAN</DistanceMeters>
          </Trackpoint>
          <Trackpoint>
            <Time>2019-10-04T16:10:12.000Z</Time>
            <Position>
              <LatitudeDegrees>42.87050105631351470947265625</LatitudeDegrees>
              <LongitudeDegrees>-5.64398962073028087615966796875</LongitudeDegrees>
            </Position>
            <AltitudeMeters>1156.800048828125</AltitudeMeters>
            <DistanceMeters>NAN</DistanceMeters>
          </Trackpoint>
          <Trackpoint>
            <Time>2019-10-04T16:10:15.000Z</Time>
            <Position>
              <LatitudeDegrees>42.87030483596026897430419921875</LatitudeDegrees>
              <LongitudeDegrees>-5.64416681416332721710205078125</LongitudeDegrees>
            </Position>
            <AltitudeMeters>1155.5999755859375</AltitudeMeters>
            <DistanceMeters>NAN</DistanceMeters>
          </Trackpoint>
          <Trackpoint>
            <Time>2019-10-04T16:10:16.000Z</Time>
            <Position>
              <LatitudeDegrees>42.8702490963041782379150390625</LatitudeDegrees>
              <LongitudeDegrees>-5.644247531890869140625</LongitudeDegrees>
            </Position>
            <AltitudeMeters>1155.199951171875</AltitudeMeters>
            <DistanceMeters>NAN</DistanceMeters>
          </Trackpoint>
          <Trackpoint>
            <Time>2019-10-04T16:10:18.000Z</Time>
            <Position>
              <LatitudeDegrees>42.8701438196003437042236328125</LatitudeDegrees>
              <LongitudeDegrees>-5.64441726543009281158447265625</LongitudeDegrees>
            </Position>
            <AltitudeMeters>1154.4000244140625</AltitudeMeters>
            <DistanceMeters>NAN</DistanceMeters>
          </Trackpoint>
          <Trackpoint>
            <Time>2019-10-04T16:10:20.000Z</Time>
            <Position>
              <LatitudeDegrees>42.87005203776061534881591796875</LatitudeDegrees>
              <LongitudeDegrees>-5.6446104682981967926025390625</LongitudeDegrees>
            </Position>
            <AltitudeMeters>1152.800048828125</AltitudeMeters>
            <DistanceMeters>NAN</DistanceMeters>
          </Trackpoint>
          <Trackpoint>
            <Time>2019-10-04T16:10:21.000Z</Time>
            <Position>
              <LatitudeDegrees>42.8700093738734722137451171875</LatitudeDegrees>
              <LongitudeDegrees>-5.64471398480236530303955078125</LongitudeDegrees>
            </Position>
            <AltitudeMeters>1152</AltitudeMeters>
            <DistanceMeters>NAN</DistanceMeters>
          </Trackpoint>
          <Trackpoint>
            <Time>2019-10-04T16:10:22.000Z</Time>
            <Position>
              <LatitudeDegrees>42.8699728287756443023681640625</LatitudeDegrees>
              <LongitudeDegrees>-5.6448220275342464447021484375</LongitudeDegrees>
            </Position>
            <AltitudeMeters>1151.4000244140625</AltitudeMeters>
            <DistanceMeters>NAN</DistanceMeters>
          </Trackpoint>
          <Trackpoint>
            <Time>2019-10-04T16:10:24.000Z</Time>
            <Position>
              <LatitudeDegrees>42.8699144907295703887939453125</LatitudeDegrees>
              <LongitudeDegrees>-5.64505395479500293731689453125</LongitudeDegrees>
            </Position>
            <AltitudeMeters>1150.199951171875</AltitudeMeters>
            <DistanceMeters>NAN</DistanceMeters>
          </Trackpoint>
          <Trackpoint>
            <Time>2019-10-04T16:10:26.000Z</Time>
            <Position>
              <LatitudeDegrees>42.86986931227147579193115234375</LatitudeDegrees>
              <LongitudeDegrees>-5.6453048251569271087646484375</LongitudeDegrees>
            </Position>
            <AltitudeMeters>1149.199951171875</AltitudeMeters>
            <DistanceMeters>NAN</DistanceMeters>
          </Trackpoint>
          <Trackpoint>
            <Time>2019-10-04T16:10:28.000Z</Time>
            <Position>
              <LatitudeDegrees>42.86984265781939029693603515625</LatitudeDegrees>
              <LongitudeDegrees>-5.6455723755061626434326171875</LongitudeDegrees>
            </Position>
            <AltitudeMeters>1148</AltitudeMeters>
            <DistanceMeters>NAN</DistanceMeters>
          </Trackpoint>
          <Trackpoint>
            <Time>2019-10-04T16:10:30.000Z</Time>
            <Position>
              <LatitudeDegrees>42.8698256425559520721435546875</LatitudeDegrees>
              <LongitudeDegrees>-5.64584570936858654022216796875</LongitudeDegrees>
            </Position>
            <AltitudeMeters>1146.5999755859375</AltitudeMeters>
            <DistanceMeters>NAN</DistanceMeters>
          </Trackpoint>
          <Trackpoint>
            <Time>2019-10-04T16:10:33.000Z</Time>
            <Position>
              <LatitudeDegrees>42.86980259232223033905029296875</LatitudeDegrees>
              <LongitudeDegrees>-5.646273605525493621826171875</LongitudeDegrees>
            </Position>
            <AltitudeMeters>1145.4000244140625</AltitudeMeters>
            <DistanceMeters>NAN</DistanceMeters>
          </Trackpoint>
          <Trackpoint>
            <Time>2019-10-04T16:10:36.000Z</Time>
            <Position>
              <LatitudeDegrees>42.86975883878767490386962890625</LatitudeDegrees>
              <LongitudeDegrees>-5.6467258930206298828125</LongitudeDegrees>
            </Position>
            <AltitudeMeters>1144.199951171875</AltitudeMeters>
            <DistanceMeters>NAN</DistanceMeters>
          </Trackpoint>
          <Trackpoint>
            <Time>2019-10-04T16:10:37.000Z</Time>
            <Position>
              <LatitudeDegrees>42.86973687820136547088623046875</LatitudeDegrees>
              <LongitudeDegrees>-5.64688347280025482177734375</LongitudeDegrees>
            </Position>
            <AltitudeMeters>1143.5999755859375</AltitudeMeters>
            <DistanceMeters>NAN</DistanceMeters>
          </Trackpoint>
          <Trackpoint>
            <Time>2019-10-04T16:10:39.000Z</Time>
            <Position>
              <LatitudeDegrees>42.86968172527849674224853515625</LatitudeDegrees>
              <LongitudeDegrees>-5.6472041644155979156494140625</LongitudeDegrees>
            </Position>
            <AltitudeMeters>1143</AltitudeMeters>
            <DistanceMeters>NAN</DistanceMeters>
          </Trackpoint>
          <Trackpoint>
            <Time>2019-10-04T16:10:42.000Z</Time>
            <Position>
              <LatitudeDegrees>42.86959178745746612548828125</LatitudeDegrees>
              <LongitudeDegrees>-5.64771168865263462066650390625</LongitudeDegrees>
            </Position>
            <AltitudeMeters>1141.5999755859375</AltitudeMeters>
            <DistanceMeters>NAN</DistanceMeters>
          </Trackpoint>
          <Trackpoint>
            <Time>2019-10-04T16:10:43.000Z</Time>
            <Position>
              <LatitudeDegrees>42.86956253461539745330810546875</LatitudeDegrees>
              <LongitudeDegrees>-5.64788737334311008453369140625</LongitudeDegrees>
            </Position>
            <AltitudeMeters>1141</AltitudeMeters>
            <DistanceMeters>NAN</DistanceMeters>
          </Trackpoint>
          <Trackpoint>
            <Time>2019-10-04T16:10:44.000Z</Time>
            <Position>
              <LatitudeDegrees>42.8695316053926944732666015625</LatitudeDegrees>
              <LongitudeDegrees>-5.6480664946138858795166015625</LongitudeDegrees>
            </Position>
            <AltitudeMeters>1140.4000244140625</AltitudeMeters>
            <DistanceMeters>NAN</DistanceMeters>
          </Trackpoint>
          <Trackpoint>
            <Time>2019-10-04T16:10:46.000Z</Time>
            <Position>
              <LatitudeDegrees>42.8694622032344341278076171875</LatitudeDegrees>
              <LongitudeDegrees>-5.648430101573467254638671875</LongitudeDegrees>
            </Position>
            <AltitudeMeters>1139.199951171875</AltitudeMeters>
            <DistanceMeters>NAN</DistanceMeters>
          </Trackpoint>
          <Trackpoint>
            <Time>2019-10-04T16:10:48.000Z</Time>
            <Position>
              <LatitudeDegrees>42.8693698346614837646484375</LatitudeDegrees>
              <LongitudeDegrees>-5.6489915214478969573974609375</LongitudeDegrees>
            </Position>
            <AltitudeMeters>1138</AltitudeMeters>
            <DistanceMeters>NAN</DistanceMeters>
          </Trackpoint>
          <Trackpoint>
            <Time>2019-10-04T16:10:49.000Z</Time>
            <Position>
              <LatitudeDegrees>42.8693698346614837646484375</LatitudeDegrees>
              <LongitudeDegrees>-5.6489915214478969573974609375</LongitudeDegrees>
            </Position>
            <AltitudeMeters>1138</AltitudeMeters>
            <DistanceMeters>NAN</DistanceMeters>
          </Trackpoint>
          <Trackpoint>
            <Time>2019-10-04T16:10:52.000Z</Time>
            <Position>
              <LatitudeDegrees>42.8692875243723392486572265625</LatitudeDegrees>
              <LongitudeDegrees>-5.64955763518810272216796875</LongitudeDegrees>
            </Position>
            <AltitudeMeters>1136.4000244140625</AltitudeMeters>
            <DistanceMeters>NAN</DistanceMeters>
          </Trackpoint>
          <Trackpoint>
            <Time>2019-10-04T16:10:54.000Z</Time>
            <Position>
              <LatitudeDegrees>42.869241423904895782470703125</LatitudeDegrees>
              <LongitudeDegrees>-5.64993926323950290679931640625</LongitudeDegrees>
            </Position>
            <AltitudeMeters>1135.4000244140625</AltitudeMeters>
            <DistanceMeters>NAN</DistanceMeters>
          </Trackpoint>
          <Trackpoint>
            <Time>2019-10-04T16:10:55.000Z</Time>
            <Position>
              <LatitudeDegrees>42.869226001203060150146484375</LatitudeDegrees>
              <LongitudeDegrees>-5.6501282751560211181640625</LongitudeDegrees>
            </Position>
            <AltitudeMeters>1134.199951171875</AltitudeMeters>
            <DistanceMeters>NAN</DistanceMeters>
          </Trackpoint>
          <Trackpoint>
            <Time>2019-10-04T16:10:56.000Z</Time>
            <Position>
              <LatitudeDegrees>42.8692197985947132110595703125</LatitudeDegrees>
              <LongitudeDegrees>-5.65031460486352443695068359375</LongitudeDegrees>
            </Position>
            <AltitudeMeters>1133.800048828125</AltitudeMeters>
            <DistanceMeters>NAN</DistanceMeters>
          </Trackpoint>
          <Trackpoint>
            <Time>2019-10-04T16:10:57.000Z</Time>
            <Position>
              <LatitudeDegrees>42.86921837367117404937744140625</LatitudeDegrees>
              <LongitudeDegrees>-5.65050118602812290191650390625</LongitudeDegrees>
            </Position>
            <AltitudeMeters>1132.800048828125</AltitudeMeters>
            <DistanceMeters>NAN</DistanceMeters>
          </Trackpoint>
          <Trackpoint>
            <Time>2019-10-04T16:11:00.000Z</Time>
            <Position>
              <LatitudeDegrees>42.86922432482242584228515625</LatitudeDegrees>
              <LongitudeDegrees>-5.65105506218969821929931640625</LongitudeDegrees>
            </Position>
            <AltitudeMeters>1131.800048828125</AltitudeMeters>
            <DistanceMeters>NAN</DistanceMeters>
          </Trackpoint>
          <Trackpoint>
            <Time>2019-10-04T16:11:01.000Z</Time>
            <Position>
              <LatitudeDegrees>42.869229353964328765869140625</LatitudeDegrees>
              <LongitudeDegrees>-5.65121850930154323577880859375</LongitudeDegrees>
            </Position>
            <AltitudeMeters>1131.4000244140625</AltitudeMeters>
            <DistanceMeters>NAN</DistanceMeters>
          </Trackpoint>
          <Trackpoint>
            <Time>2019-10-04T16:11:02.000Z</Time>
            <Position>
              <LatitudeDegrees>42.86923379637300968170166015625</LatitudeDegrees>
              <LongitudeDegrees>-5.6513910926878452301025390625</LongitudeDegrees>
            </Position>
            <AltitudeMeters>1130.5999755859375</AltitudeMeters>
            <DistanceMeters>NAN</DistanceMeters>
          </Trackpoint>
          <Trackpoint>
            <Time>2019-10-04T16:11:04.000Z</Time>
            <Position>
              <LatitudeDegrees>42.869249470531940460205078125</LatitudeDegrees>
              <LongitudeDegrees>-5.65173433162271976470947265625</LongitudeDegrees>
            </Position>
            <AltitudeMeters>1129.4000244140625</AltitudeMeters>
            <DistanceMeters>NAN</DistanceMeters>
          </Trackpoint>
          <Trackpoint>
            <Time>2019-10-04T16:11:06.000Z</Time>
            <Position>
              <LatitudeDegrees>42.86926313303411006927490234375</LatitudeDegrees>
              <LongitudeDegrees>-5.6520636565983295440673828125</LongitudeDegrees>
            </Position>
            <AltitudeMeters>1128</AltitudeMeters>
            <DistanceMeters>NAN</DistanceMeters>
          </Trackpoint>
          <Trackpoint>
            <Time>2019-10-04T16:11:08.000Z</Time>
            <Position>
              <LatitudeDegrees>42.869273610413074493408203125</LatitudeDegrees>
              <LongitudeDegrees>-5.65238812007009983062744140625</LongitudeDegrees>
            </Position>
            <AltitudeMeters>1127</AltitudeMeters>
            <DistanceMeters>NAN</DistanceMeters>
          </Trackpoint>
          <Trackpoint>
            <Time>2019-10-04T16:11:10.000Z</Time>
            <Position>
              <LatitudeDegrees>42.8692824952304363250732421875</LatitudeDegrees>
              <LongitudeDegrees>-5.65270797349512577056884765625</LongitudeDegrees>
            </Position>
            <AltitudeMeters>1125.5999755859375</AltitudeMeters>
            <DistanceMeters>NAN</DistanceMeters>
          </Trackpoint>
          <Trackpoint>
            <Time>2019-10-04T16:11:13.000Z</Time>
            <Position>
              <LatitudeDegrees>42.8693046234548091888427734375</LatitudeDegrees>
              <LongitudeDegrees>-5.6531720794737339019775390625</LongitudeDegrees>
            </Position>
            <AltitudeMeters>1124.4000244140625</AltitudeMeters>
            <DistanceMeters>NAN</DistanceMeters>
          </Trackpoint>
          <Trackpoint>
            <Time>2019-10-04T16:11:15.000Z</Time>
            <Position>
              <LatitudeDegrees>42.86931074224412441253662109375</LatitudeDegrees>
              <LongitudeDegrees>-5.65347290597856044769287109375</LongitudeDegrees>
            </Position>
            <AltitudeMeters>1123.199951171875</AltitudeMeters>
            <DistanceMeters>NAN</DistanceMeters>
          </Trackpoint>
          <Trackpoint>
            <Time>2019-10-04T16:11:18.000Z</Time>
            <Position>
              <LatitudeDegrees>42.869323231279850006103515625</LatitudeDegrees>
              <LongitudeDegrees>-5.65390708856284618377685546875</LongitudeDegrees>
            </Position>
            <AltitudeMeters>1122.199951171875</AltitudeMeters>
            <DistanceMeters>NAN</DistanceMeters>
          </Trackpoint>
          <Trackpoint>
            <Time>2019-10-04T16:11:21.000Z</Time>
            <Position>
              <LatitudeDegrees>42.86934074945747852325439453125</LatitudeDegrees>
              <LongitudeDegrees>-5.6543220765888690948486328125</LongitudeDegrees>
            </Position>
            <AltitudeMeters>1121</AltitudeMeters>
            <DistanceMeters>NAN</DistanceMeters>
          </Trackpoint>
          <Trackpoint>
            <Time>2019-10-04T16:11:22.000Z</Time>
            <Position>
              <LatitudeDegrees>42.86934896372258663177490234375</LatitudeDegrees>
              <LongitudeDegrees>-5.6544548459351062774658203125</LongitudeDegrees>
            </Position>
            <AltitudeMeters>1120.5999755859375</AltitudeMeters>
            <DistanceMeters>NAN</DistanceMeters>
          </Trackpoint>
          <Trackpoint>
            <Time>2019-10-04T16:11:24.000Z</Time>
            <Position>
              <LatitudeDegrees>42.8693572618067264556884765625</LatitudeDegrees>
              <LongitudeDegrees>-5.6547197140753269195556640625</LongitudeDegrees>
            </Position>
            <AltitudeMeters>1119.4000244140625</AltitudeMeters>
            <DistanceMeters>NAN</DistanceMeters>
          </Trackpoint>
          <Trackpoint>
            <Time>2019-10-04T16:11:28.000Z</Time>
            <Position>
              <LatitudeDegrees>42.86937184631824493408203125</LatitudeDegrees>
              <LongitudeDegrees>-5.65524416975677013397216796875</LongitudeDegrees>
            </Position>
            <AltitudeMeters>1117.800048828125</AltitudeMeters>
            <DistanceMeters>NAN</DistanceMeters>
          </Trackpoint>
          <Trackpoint>
            <Time>2019-10-04T16:11:30.000Z</Time>
            <Position>
              <LatitudeDegrees>42.8693746961653232574462890625</LatitudeDegrees>
              <LongitudeDegrees>-5.65549847669899463653564453125</LongitudeDegrees>
            </Position>
            <AltitudeMeters>1117</AltitudeMeters>
            <DistanceMeters>NAN</DistanceMeters>
          </Trackpoint>
          <Trackpoint>
            <Time>2019-10-04T16:11:31.000Z</Time>
            <Position>
              <LatitudeDegrees>42.86937712691724300384521484375</LatitudeDegrees>
              <LongitudeDegrees>-5.65566762350499629974365234375</LongitudeDegrees>
            </Position>
            <AltitudeMeters>1116.5999755859375</AltitudeMeters>
            <DistanceMeters>NAN</DistanceMeters>
          </Trackpoint>
          <Trackpoint>
            <Time>2019-10-04T16:11:33.000Z</Time>
            <Position>
              <LatitudeDegrees>42.8693797253072261810302734375</LatitudeDegrees>
              <LongitudeDegrees>-5.65586694516241550445556640625</LongitudeDegrees>
            </Position>
            <AltitudeMeters>1115.800048828125</AltitudeMeters>
            <DistanceMeters>NAN</DistanceMeters>
          </Trackpoint>
          <Trackpoint>
            <Time>2019-10-04T16:11:35.000Z</Time>
            <Position>
              <LatitudeDegrees>42.86937989294528961181640625</LatitudeDegrees>
              <LongitudeDegrees>-5.65610264427959918975830078125</LongitudeDegrees>
            </Position>
            <AltitudeMeters>1114.800048828125</AltitudeMeters>
            <DistanceMeters>NAN</DistanceMeters>
          </Trackpoint>
          <Trackpoint>
            <Time>2019-10-04T16:11:37.000Z</Time>
            <Position>
              <LatitudeDegrees>42.86938115023076534271240234375</LatitudeDegrees>
              <LongitudeDegrees>-5.65633482299745082855224609375</LongitudeDegrees>
            </Position>
            <AltitudeMeters>1113.5999755859375</AltitudeMeters>
            <DistanceMeters>NAN</DistanceMeters>
          </Trackpoint>
          <Trackpoint>
            <Time>2019-10-04T16:11:38.000Z</Time>
            <Position>
              <LatitudeDegrees>42.869379557669162750244140625</LatitudeDegrees>
              <LongitudeDegrees>-5.656450577080249786376953125</LongitudeDegrees>
            </Position>
            <AltitudeMeters>1113.4000244140625</AltitudeMeters>
            <DistanceMeters>NAN</DistanceMeters>
          </Trackpoint>
          <Trackpoint>
            <Time>2019-10-04T16:11:40.000Z</Time>
            <Position>
              <LatitudeDegrees>42.869376204907894134521484375</LatitudeDegrees>
              <LongitudeDegrees>-5.65667412243783473968505859375</LongitudeDegrees>
            </Position>
            <AltitudeMeters>1112.4000244140625</AltitudeMeters>
            <DistanceMeters>NAN</DistanceMeters>
          </Trackpoint>
          <Trackpoint>
            <Time>2019-10-04T16:11:44.000Z</Time>
            <Position>
              <LatitudeDegrees>42.8693730197846889495849609375</LatitudeDegrees>
              <LongitudeDegrees>-5.65711400471627712249755859375</LongitudeDegrees>
            </Position>
            <AltitudeMeters>1111.5999755859375</AltitudeMeters>
            <DistanceMeters>NAN</DistanceMeters>
          </Trackpoint>
          <Trackpoint>
            <Time>2019-10-04T16:11:45.000Z</Time>
            <Position>
              <LatitudeDegrees>42.869372181594371795654296875</LatitudeDegrees>
              <LongitudeDegrees>-5.65722364000976085662841796875</LongitudeDegrees>
            </Position>
            <AltitudeMeters>1111</AltitudeMeters>
            <DistanceMeters>NAN</DistanceMeters>
          </Trackpoint>
          <Trackpoint>
            <Time>2019-10-04T16:11:47.000Z</Time>
            <Position>
              <LatitudeDegrees>42.86936514079570770263671875</LatitudeDegrees>
              <LongitudeDegrees>-5.6574426591396331787109375</LongitudeDegrees>
            </Position>
            <AltitudeMeters>1110</AltitudeMeters>
            <DistanceMeters>NAN</DistanceMeters>
          </Trackpoint>
          <Trackpoint>
            <Time>2019-10-04T16:11:50.000Z</Time>
            <Position>
              <LatitudeDegrees>42.86935466341674327850341796875</LatitudeDegrees>
              <LongitudeDegrees>-5.65776963718235492706298828125</LongitudeDegrees>
            </Position>
            <AltitudeMeters>1108.5999755859375</AltitudeMeters>
            <DistanceMeters>NAN</DistanceMeters>
          </Trackpoint>
          <Trackpoint>
            <Time>2019-10-04T16:11:53.000Z</Time>
            <Position>
              <LatitudeDegrees>42.869352065026760101318359375</LatitudeDegrees>
              <LongitudeDegrees>-5.658096112310886383056640625</LongitudeDegrees>
            </Position>
            <AltitudeMeters>1107.5999755859375</AltitudeMeters>
            <DistanceMeters>NAN</DistanceMeters>
          </Trackpoint>
          <Trackpoint>
            <Time>2019-10-04T16:11:54.000Z</Time>
            <Position>
              <LatitudeDegrees>42.86934913136065006256103515625</LatitudeDegrees>
              <LongitudeDegrees>-5.65820700488984584808349609375</LongitudeDegrees>
            </Position>
            <AltitudeMeters>1107.4000244140625</AltitudeMeters>
            <DistanceMeters>NAN</DistanceMeters>
          </Trackpoint>
          <Trackpoint>
            <Time>2019-10-04T16:11:57.000Z</Time>
            <Position>
              <LatitudeDegrees>42.86933806724846363067626953125</LatitudeDegrees>
              <LongitudeDegrees>-5.65852903760969638824462890625</LongitudeDegrees>
            </Position>
            <AltitudeMeters>1106.199951171875</AltitudeMeters>
            <DistanceMeters>NAN</DistanceMeters>
          </Trackpoint>
          <Trackpoint>
            <Time>2019-10-04T16:12:00.000Z</Time>
            <Position>
              <LatitudeDegrees>42.86932784132659435272216796875</LatitudeDegrees>
              <LongitudeDegrees>-5.6588452868163585662841796875</LongitudeDegrees>
            </Position>
            <AltitudeMeters>1104.800048828125</AltitudeMeters>
            <DistanceMeters>NAN</DistanceMeters>
          </Trackpoint>
          <Trackpoint>
            <Time>2019-10-04T16:12:03.000Z</Time>
            <Position>
              <LatitudeDegrees>42.86931342445313930511474609375</LatitudeDegrees>
              <LongitudeDegrees>-5.6591550819575786590576171875</LongitudeDegrees>
            </Position>
            <AltitudeMeters>1103.4000244140625</AltitudeMeters>
            <DistanceMeters>NAN</DistanceMeters>
          </Trackpoint>
          <Trackpoint>
            <Time>2019-10-04T16:12:04.000Z</Time>
            <Position>
              <LatitudeDegrees>42.86930839531123638153076171875</LatitudeDegrees>
              <LongitudeDegrees>-5.6592593528330326080322265625</LongitudeDegrees>
            </Position>
            <AltitudeMeters>1103.4000244140625</AltitudeMeters>
            <DistanceMeters>NAN</DistanceMeters>
          </Trackpoint>
          <Trackpoint>
            <Time>2019-10-04T16:12:06.000Z</Time>
            <Position>
              <LatitudeDegrees>42.86929582245647907257080078125</LatitudeDegrees>
              <LongitudeDegrees>-5.659470073878765106201171875</LongitudeDegrees>
            </Position>
            <AltitudeMeters>1102.4000244140625</AltitudeMeters>
            <DistanceMeters>NAN</DistanceMeters>
          </Trackpoint>
          <Trackpoint>
            <Time>2019-10-04T16:12:09.000Z</Time>
            <Position>
              <LatitudeDegrees>42.86928601562976837158203125</LatitudeDegrees>
              <LongitudeDegrees>-5.65978246740996837615966796875</LongitudeDegrees>
            </Position>
            <AltitudeMeters>1101.199951171875</AltitudeMeters>
            <DistanceMeters>NAN</DistanceMeters>
          </Trackpoint>
          <Trackpoint>
            <Time>2019-10-04T16:12:11.000Z</Time>
            <Position>
              <LatitudeDegrees>42.869276963174343109130859375</LatitudeDegrees>
              <LongitudeDegrees>-5.6599939428269863128662109375</LongitudeDegrees>
            </Position>
            <AltitudeMeters>1099.800048828125</AltitudeMeters>
            <DistanceMeters>NAN</DistanceMeters>
          </Trackpoint>
          <Trackpoint>
            <Time>2019-10-04T16:12:12.000Z</Time>
            <Position>
              <LatitudeDegrees>42.86927302367985248565673828125</LatitudeDegrees>
              <LongitudeDegrees>-5.6600988842546939849853515625</LongitudeDegrees>
            </Position>
            <AltitudeMeters>1099.5999755859375</AltitudeMeters>
            <DistanceMeters>NAN</DistanceMeters>
          </Trackpoint>
          <Trackpoint>
            <Time>2019-10-04T16:12:15.000Z</Time>
            <Position>
              <LatitudeDegrees>42.86925743333995342254638671875</LatitudeDegrees>
              <LongitudeDegrees>-5.66041580401360988616943359375</LongitudeDegrees>
            </Position>
            <AltitudeMeters>1098.800048828125</AltitudeMeters>
            <DistanceMeters>NAN</DistanceMeters>
          </Trackpoint>
          <Trackpoint>
            <Time>2019-10-04T16:12:18.000Z</Time>
            <Position>
              <LatitudeDegrees>42.86923547275364398956298828125</LatitudeDegrees>
              <LongitudeDegrees>-5.66073481924831867218017578125</LongitudeDegrees>
            </Position>
            <AltitudeMeters>1097.5999755859375</AltitudeMeters>
            <DistanceMeters>NAN</DistanceMeters>
          </Trackpoint>
          <Trackpoint>
            <Time>2019-10-04T16:12:21.000Z</Time>
            <Position>
              <LatitudeDegrees>42.8692169487476348876953125</LatitudeDegrees>
              <LongitudeDegrees>-5.66105903126299381256103515625</LongitudeDegrees>
            </Position>
            <AltitudeMeters>1096.5999755859375</AltitudeMeters>
            <DistanceMeters>NAN</DistanceMeters>
          </Trackpoint>
          <Trackpoint>
            <Time>2019-10-04T16:12:22.000Z</Time>
            <Position>
              <LatitudeDegrees>42.86920932121574878692626953125</LatitudeDegrees>
              <LongitudeDegrees>-5.66116749309003353118896484375</LongitudeDegrees>
            </Position>
            <AltitudeMeters>1096.199951171875</AltitudeMeters>
            <DistanceMeters>NAN</DistanceMeters>
          </Trackpoint>
          <Trackpoint>
            <Time>2019-10-04T16:12:24.000Z</Time>
            <Position>
              <LatitudeDegrees>42.86919104866683483123779296875</LatitudeDegrees>
              <LongitudeDegrees>-5.66138709895312786102294921875</LongitudeDegrees>
            </Position>
            <AltitudeMeters>1095.4000244140625</AltitudeMeters>
            <DistanceMeters>NAN</DistanceMeters>
          </Trackpoint>
          <Trackpoint>
            <Time>2019-10-04T16:12:26.000Z</Time>
            <Position>
              <LatitudeDegrees>42.8691738657653331756591796875</LatitudeDegrees>
              <LongitudeDegrees>-5.6616160087287425994873046875</LongitudeDegrees>
            </Position>
            <AltitudeMeters>1094.4000244140625</AltitudeMeters>
            <DistanceMeters>NAN</DistanceMeters>
          </Trackpoint>
          <Trackpoint>
            <Time>2019-10-04T16:12:29.000Z</Time>
            <Position>
              <LatitudeDegrees>42.869142852723598480224609375</LatitudeDegrees>
              <LongitudeDegrees>-5.66196461208164691925048828125</LongitudeDegrees>
            </Position>
            <AltitudeMeters>1093.199951171875</AltitudeMeters>
            <DistanceMeters>NAN</DistanceMeters>
          </Trackpoint>
          <Trackpoint>
            <Time>2019-10-04T16:12:31.000Z</Time>
            <Position>
              <LatitudeDegrees>42.8691239096224308013916015625</LatitudeDegrees>
              <LongitudeDegrees>-5.66219964064657688140869140625</LongitudeDegrees>
            </Position>
            <AltitudeMeters>1092.4000244140625</AltitudeMeters>
            <DistanceMeters>NAN</DistanceMeters>
          </Trackpoint>
          <Trackpoint>
            <Time>2019-10-04T16:12:32.000Z</Time>
            <Position>
              <LatitudeDegrees>42.869113348424434661865234375</LatitudeDegrees>
              <LongitudeDegrees>-5.6623180769383907318115234375</LongitudeDegrees>
            </Position>
            <AltitudeMeters>1092.199951171875</AltitudeMeters>
            <DistanceMeters>NAN</DistanceMeters>
          </Trackpoint>
          <Trackpoint>
            <Time>2019-10-04T16:12:35.000Z</Time>
            <Position>
              <LatitudeDegrees>42.869075126945972442626953125</LatitudeDegrees>
              <LongitudeDegrees>-5.66267824731767177581787109375</LongitudeDegrees>
            </Position>
            <AltitudeMeters>1090.5999755859375</AltitudeMeters>
            <DistanceMeters>NAN</DistanceMeters>
          </Trackpoint>
          <Trackpoint>
            <Time>2019-10-04T16:12:39.000Z</Time>
            <Position>
              <LatitudeDegrees>42.86902491934597492218017578125</LatitudeDegrees>
              <LongitudeDegrees>-5.6631700135767459869384765625</LongitudeDegrees>
            </Position>
            <AltitudeMeters>1089.4000244140625</AltitudeMeters>
            <DistanceMeters>NAN</DistanceMeters>
          </Trackpoint>
          <Trackpoint>
            <Time>2019-10-04T16:12:40.000Z</Time>
            <Position>
              <LatitudeDegrees>42.86901377141475677490234375</LatitudeDegrees>
              <LongitudeDegrees>-5.66329482011497020721435546875</LongitudeDegrees>
            </Position>
            <AltitudeMeters>1089</AltitudeMeters>
            <DistanceMeters>NAN</DistanceMeters>
          </Trackpoint>
          <Trackpoint>
            <Time>2019-10-04T16:12:42.000Z</Time>
            <Position>
              <LatitudeDegrees>42.8689918108284473419189453125</LatitudeDegrees>
              <LongitudeDegrees>-5.66354476846754550933837890625</LongitudeDegrees>
            </Position>
            <AltitudeMeters>1088.4000244140625</AltitudeMeters>
            <DistanceMeters>NAN</DistanceMeters>
          </Trackpoint>
          <Trackpoint>
            <Time>2019-10-04T16:12:46.000Z</Time>
            <Position>
              <LatitudeDegrees>42.8689452074468135833740234375</LatitudeDegrees>
              <LongitudeDegrees>-5.664053969085216522216796875</LongitudeDegrees>
            </Position>
            <AltitudeMeters>1087</AltitudeMeters>
            <DistanceMeters>NAN</DistanceMeters>
          </Trackpoint>
          <Trackpoint>
            <Time>2019-10-04T16:12:50.000Z</Time>
            <Position>
              <LatitudeDegrees>42.8689203970134258270263671875</LatitudeDegrees>
              <LongitudeDegrees>-5.664573647081851959228515625</LongitudeDegrees>
            </Position>
            <AltitudeMeters>1085.5999755859375</AltitudeMeters>
            <DistanceMeters>NAN</DistanceMeters>
          </Trackpoint>
          <Trackpoint>
            <Time>2019-10-04T16:12:54.000Z</Time>
            <Position>
              <LatitudeDegrees>42.86889432929456233978271484375</LatitudeDegrees>
              <LongitudeDegrees>-5.665098018944263458251953125</LongitudeDegrees>
            </Position>
            <AltitudeMeters>1084.5999755859375</AltitudeMeters>
            <DistanceMeters>NAN</DistanceMeters>
          </Trackpoint>
          <Trackpoint>
            <Time>2019-10-04T16:12:59.000Z</Time>
            <Position>
              <LatitudeDegrees>42.86888175643980503082275390625</LatitudeDegrees>
              <LongitudeDegrees>-5.66574770025908946990966796875</LongitudeDegrees>
            </Position>
            <AltitudeMeters>1084</AltitudeMeters>
            <DistanceMeters>NAN</DistanceMeters>
          </Trackpoint>
          <Trackpoint>
            <Time>2019-10-04T16:13:00.000Z</Time>
            <Position>
              <LatitudeDegrees>42.86888024769723415374755859375</LatitudeDegrees>
              <LongitudeDegrees>-5.66587493754923343658447265625</LongitudeDegrees>
            </Position>
            <AltitudeMeters>1083.4000244140625</AltitudeMeters>
            <DistanceMeters>NAN</DistanceMeters>
          </Trackpoint>
          <Trackpoint>
            <Time>2019-10-04T16:13:03.000Z</Time>
            <Position>
              <LatitudeDegrees>42.86887136287987232208251953125</LatitudeDegrees>
              <LongitudeDegrees>-5.66625145263969898223876953125</LongitudeDegrees>
            </Position>
            <AltitudeMeters>1083.199951171875</AltitudeMeters>
            <DistanceMeters>NAN</DistanceMeters>
          </Trackpoint>
          <Trackpoint>
            <Time>2019-10-04T16:13:09.000Z</Time>
            <Position>
              <LatitudeDegrees>42.86884839646518230438232421875</LatitudeDegrees>
              <LongitudeDegrees>-5.666985623538494110107421875</LongitudeDegrees>
            </Position>
            <AltitudeMeters>1082.5999755859375</AltitudeMeters>
            <DistanceMeters>NAN</DistanceMeters>
          </Trackpoint>
          <Trackpoint>
            <Time>2019-10-04T16:13:10.000Z</Time>
            <Position>
              <LatitudeDegrees>42.8688459657132625579833984375</LatitudeDegrees>
              <LongitudeDegrees>-5.66710590384900569915771484375</LongitudeDegrees>
            </Position>
            <AltitudeMeters>1082.4000244140625</AltitudeMeters>
            <DistanceMeters>NAN</DistanceMeters>
          </Trackpoint>
          <Trackpoint>
            <Time>2019-10-04T16:13:17.000Z</Time>
            <Position>
              <LatitudeDegrees>42.868766002357006072998046875</LatitudeDegrees>
              <LongitudeDegrees>-5.6679181940853595733642578125</LongitudeDegrees>
            </Position>
            <AltitudeMeters>1081.800048828125</AltitudeMeters>
            <DistanceMeters>NAN</DistanceMeters>
          </Trackpoint>
          <Trackpoint>
            <Time>2019-10-04T16:13:21.000Z</Time>
            <Position>
              <LatitudeDegrees>42.868648655712604522705078125</LatitudeDegrees>
              <LongitudeDegrees>-5.6683359481394290924072265625</LongitudeDegrees>
            </Position>
            <AltitudeMeters>1081.199951171875</AltitudeMeters>
            <DistanceMeters>NAN</DistanceMeters>
          </Trackpoint>
          <Trackpoint>
            <Time>2019-10-04T16:13:22.000Z</Time>
            <Position>
              <LatitudeDegrees>42.86861009895801544189453125</LatitudeDegrees>
              <LongitudeDegrees>-5.66843342967331409454345703125</LongitudeDegrees>
            </Position>
            <AltitudeMeters>1081.5999755859375</AltitudeMeters>
            <DistanceMeters>NAN</DistanceMeters>
          </Trackpoint>
          <Trackpoint>
            <Time>2019-10-04T16:13:27.000Z</Time>
            <Position>
              <LatitudeDegrees>42.86837968043982982635498046875</LatitudeDegrees>
              <LongitudeDegrees>-5.66887415014207363128662109375</LongitudeDegrees>
            </Position>
            <AltitudeMeters>1081</AltitudeMeters>
            <DistanceMeters>NAN</DistanceMeters>
          </Trackpoint>
          <Trackpoint>
            <Time>2019-10-04T16:13:34.000Z</Time>
            <Position>
              <LatitudeDegrees>42.86799855530261993408203125</LatitudeDegrees>
              <LongitudeDegrees>-5.66940019838511943817138671875</LongitudeDegrees>
            </Position>
            <AltitudeMeters>1080.5999755859375</AltitudeMeters>
            <DistanceMeters>NAN</DistanceMeters>
          </Trackpoint>
          <Trackpoint>
            <Time>2019-10-04T16:13:41.000Z</Time>
            <Position>
              <LatitudeDegrees>42.86762279458343982696533203125</LatitudeDegrees>
              <LongitudeDegrees>-5.66991216503083705902099609375</LongitudeDegrees>
            </Position>
            <AltitudeMeters>1080.5999755859375</AltitudeMeters>
            <DistanceMeters>NAN</DistanceMeters>
          </Trackpoint>
          <Trackpoint>
            <Time>2019-10-04T16:13:44.000Z</Time>
            <Position>
              <LatitudeDegrees>42.8674686513841152191162109375</LatitudeDegrees>
              <LongitudeDegrees>-5.670127160847187042236328125</LongitudeDegrees>
            </Position>
            <AltitudeMeters>1080.5999755859375</AltitudeMeters>
            <DistanceMeters>NAN</DistanceMeters>
          </Trackpoint>
          <Trackpoint>
            <Time>2019-10-04T16:13:50.000Z</Time>
            <Position>
              <LatitudeDegrees>42.86712281405925750732421875</LatitudeDegrees>
              <LongitudeDegrees>-5.670483894646167755126953125</LongitudeDegrees>
            </Position>
            <AltitudeMeters>1081.199951171875</AltitudeMeters>
            <DistanceMeters>NAN</DistanceMeters>
          </Trackpoint>
          <Trackpoint>
            <Time>2019-10-04T16:13:52.000Z</Time>
            <Position>
              <LatitudeDegrees>42.8669965825974941253662109375</LatitudeDegrees>
              <LongitudeDegrees>-5.6705641932785511016845703125</LongitudeDegrees>
            </Position>
            <AltitudeMeters>1081</AltitudeMeters>
            <DistanceMeters>NAN</DistanceMeters>
          </Trackpoint>
          <Trackpoint>
            <Time>2019-10-04T16:13:53.000Z</Time>
            <Position>
              <LatitudeDegrees>42.86692625842988491058349609375</LatitudeDegrees>
              <LongitudeDegrees>-5.6705960445106029510498046875</LongitudeDegrees>
            </Position>
            <AltitudeMeters>1081</AltitudeMeters>
            <DistanceMeters>NAN</DistanceMeters>
          </Trackpoint>
          <Trackpoint>
            <Time>2019-10-04T16:13:59.000Z</Time>
            <Position>
              <LatitudeDegrees>42.86648654378950595855712890625</LatitudeDegrees>
              <LongitudeDegrees>-5.6707318313419818878173828125</LongitudeDegrees>
            </Position>
            <AltitudeMeters>1081.199951171875</AltitudeMeters>
            <DistanceMeters>NAN</DistanceMeters>
          </Trackpoint>
          <Trackpoint>
            <Time>2019-10-04T16:14:06.000Z</Time>
            <Position>
              <LatitudeDegrees>42.86598161794245243072509765625</LatitudeDegrees>
              <LongitudeDegrees>-5.67088111303746700286865234375</LongitudeDegrees>
            </Position>
            <AltitudeMeters>1082</AltitudeMeters>
            <DistanceMeters>NAN</DistanceMeters>
          </Trackpoint>
          <Trackpoint>
            <Time>2019-10-04T16:14:07.000Z</Time>
            <Position>
              <LatitudeDegrees>42.8659106232225894927978515625</LatitudeDegrees>
              <LongitudeDegrees>-5.670902319252490997314453125</LongitudeDegrees>
            </Position>
            <AltitudeMeters>1082.199951171875</AltitudeMeters>
            <DistanceMeters>NAN</DistanceMeters>
          </Trackpoint>
          <Trackpoint>
            <Time>2019-10-04T16:14:26.000Z</Time>
            <Position>
              <LatitudeDegrees>42.86426282487809658050537109375</LatitudeDegrees>
              <LongitudeDegrees>-5.671491734683513641357421875</LongitudeDegrees>
            </Position>
            <AltitudeMeters>1084.5999755859375</AltitudeMeters>
            <DistanceMeters>NAN</DistanceMeters>
          </Trackpoint>
          <Trackpoint>
            <Time>2019-10-04T16:14:27.000Z</Time>
            <Position>
              <LatitudeDegrees>42.864178754389286041259765625</LatitudeDegrees>
              <LongitudeDegrees>-5.67152216099202632904052734375</LongitudeDegrees>
            </Position>
            <AltitudeMeters>1084.800048828125</AltitudeMeters>
            <DistanceMeters>NAN</DistanceMeters>
          </Trackpoint>
          <Trackpoint>
            <Time>2019-10-04T16:14:34.000Z</Time>
            <Position>
              <LatitudeDegrees>42.863596044480800628662109375</LatitudeDegrees>
              <LongitudeDegrees>-5.671724416315555572509765625</LongitudeDegrees>
            </Position>
            <AltitudeMeters>1085.5999755859375</AltitudeMeters>
            <DistanceMeters>NAN</DistanceMeters>
          </Trackpoint>
          <Trackpoint>
            <Time>2019-10-04T16:14:40.000Z</Time>
            <Position>
              <LatitudeDegrees>42.86312171258032321929931640625</LatitudeDegrees>
              <LongitudeDegrees>-5.671910159289836883544921875</LongitudeDegrees>
            </Position>
            <AltitudeMeters>1084.4000244140625</AltitudeMeters>
            <DistanceMeters>NAN</DistanceMeters>
          </Trackpoint>
          <Trackpoint>
            <Time>2019-10-04T16:14:41.000Z</Time>
            <Position>
              <LatitudeDegrees>42.863047532737255096435546875</LatitudeDegrees>
              <LongitudeDegrees>-5.67195399664342403411865234375</LongitudeDegrees>
            </Position>
            <AltitudeMeters>1084</AltitudeMeters>
            <DistanceMeters>NAN</DistanceMeters>
          </Trackpoint>
          <Trackpoint>
            <Time>2019-10-04T16:14:42.000Z</Time>
            <Position>
              <LatitudeDegrees>42.86298005841672420501708984375</LatitudeDegrees>
              <LongitudeDegrees>-5.672004707157611846923828125</LongitudeDegrees>
            </Position>
            <AltitudeMeters>1083.5999755859375</AltitudeMeters>
            <DistanceMeters>NAN</DistanceMeters>
          </Trackpoint>
          <Trackpoint>
            <Time>2019-10-04T16:14:46.000Z</Time>
            <Position>
              <LatitudeDegrees>42.862737067043781280517578125</LatitudeDegrees>
              <LongitudeDegrees>-5.6722409091889858245849609375</LongitudeDegrees>
            </Position>
            <AltitudeMeters>1081.800048828125</AltitudeMeters>
            <DistanceMeters>NAN</DistanceMeters>
          </Trackpoint>
          <Trackpoint>
            <Time>2019-10-04T16:14:48.000Z</Time>
            <Position>
              <LatitudeDegrees>42.86262952722609043121337890625</LatitudeDegrees>
              <LongitudeDegrees>-5.67237426526844501495361328125</LongitudeDegrees>
            </Position>
            <AltitudeMeters>1080.5999755859375</AltitudeMeters>
            <DistanceMeters>NAN</DistanceMeters>
          </Trackpoint>
          <Trackpoint>
            <Time>2019-10-04T16:14:50.000Z</Time>
            <Position>
              <LatitudeDegrees>42.8625229932367801666259765625</LatitudeDegrees>
              <LongitudeDegrees>-5.6725113093852996826171875</LongitudeDegrees>
            </Position>
            <AltitudeMeters>1079.199951171875</AltitudeMeters>
            <DistanceMeters>NAN</DistanceMeters>
          </Trackpoint>
          <Trackpoint>
            <Time>2019-10-04T16:14:52.000Z</Time>
            <Position>
              <LatitudeDegrees>42.86241780035197734832763671875</LatitudeDegrees>
              <LongitudeDegrees>-5.67264868877828121185302734375</LongitudeDegrees>
            </Position>
            <AltitudeMeters>1078.199951171875</AltitudeMeters>
            <DistanceMeters>NAN</DistanceMeters>
          </Trackpoint>
          <Trackpoint>
            <Time>2019-10-04T16:14:53.000Z</Time>
            <Position>
              <LatitudeDegrees>42.86236415617167949676513671875</LatitudeDegrees>
              <LongitudeDegrees>-5.67272077314555644989013671875</LongitudeDegrees>
            </Position>
            <AltitudeMeters>1077.5999755859375</AltitudeMeters>
            <DistanceMeters>NAN</DistanceMeters>
          </Trackpoint>
          <Trackpoint>
            <Time>2019-10-04T16:14:54.000Z</Time>
            <Position>
              <LatitudeDegrees>42.8623116016387939453125</LatitudeDegrees>
              <LongitudeDegrees>-5.67278816364705562591552734375</LongitudeDegrees>
            </Position>
            <AltitudeMeters>1077.199951171875</AltitudeMeters>
            <DistanceMeters>NAN</DistanceMeters>
          </Trackpoint>
          <Trackpoint>
            <Time>2019-10-04T16:14:56.000Z</Time>
            <Position>
              <LatitudeDegrees>42.86220992915332317352294921875</LatitudeDegrees>
              <LongitudeDegrees>-5.67292529158294200897216796875</LongitudeDegrees>
            </Position>
            <AltitudeMeters>1076</AltitudeMeters>
            <DistanceMeters>NAN</DistanceMeters>
          </Trackpoint>
          <Trackpoint>
            <Time>2019-10-04T16:15:00.000Z</Time>
            <Position>
              <LatitudeDegrees>42.8620153851807117462158203125</LatitudeDegrees>
              <LongitudeDegrees>-5.67317171953618526458740234375</LongitudeDegrees>
            </Position>
            <AltitudeMeters>1074.800048828125</AltitudeMeters>
            <DistanceMeters>NAN</DistanceMeters>
          </Trackpoint>
          <Trackpoint>
            <Time>2019-10-04T16:15:01.000Z</Time>
            <Position>
              <LatitudeDegrees>42.8619647584855556488037109375</LatitudeDegrees>
              <LongitudeDegrees>-5.67322083748877048492431640625</LongitudeDegrees>
            </Position>
            <AltitudeMeters>1074</AltitudeMeters>
            <DistanceMeters>NAN</DistanceMeters>
          </Trackpoint>
          <Trackpoint>
            <Time>2019-10-04T16:15:03.000Z</Time>
            <Position>
              <LatitudeDegrees>42.86186710931360721588134765625</LatitudeDegrees>
              <LongitudeDegrees>-5.67330189049243927001953125</LongitudeDegrees>
            </Position>
            <AltitudeMeters>1073.4000244140625</AltitudeMeters>
            <DistanceMeters>NAN</DistanceMeters>
          </Trackpoint>
          <Trackpoint>
            <Time>2019-10-04T16:15:05.000Z</Time>
            <Position>
              <LatitudeDegrees>42.8617635928094387054443359375</LatitudeDegrees>
              <LongitudeDegrees>-5.673370622098445892333984375</LongitudeDegrees>
            </Position>
            <AltitudeMeters>1072.4000244140625</AltitudeMeters>
            <DistanceMeters>NAN</DistanceMeters>
          </Trackpoint>
          <Trackpoint>
            <Time>2019-10-04T16:15:07.000Z</Time>
            <Position>
              <LatitudeDegrees>42.8616640157997608184814453125</LatitudeDegrees>
              <LongitudeDegrees>-5.673422925174236297607421875</LongitudeDegrees>
            </Position>
            <AltitudeMeters>1071.5999755859375</AltitudeMeters>
            <DistanceMeters>NAN</DistanceMeters>
          </Trackpoint>
          <Trackpoint>
            <Time>2019-10-04T16:15:08.000Z</Time>
            <Position>
              <LatitudeDegrees>42.8616194240748882293701171875</LatitudeDegrees>
              <LongitudeDegrees>-5.67344195209443569183349609375</LongitudeDegrees>
            </Position>
            <AltitudeMeters>1071</AltitudeMeters>
            <DistanceMeters>NAN</DistanceMeters>
          </Trackpoint>
          <Trackpoint>
            <Time>2019-10-04T16:15:09.000Z</Time>
            <Position>
              <LatitudeDegrees>42.861569635570049285888671875</LatitudeDegrees>
              <LongitudeDegrees>-5.67345351912081241607666015625</LongitudeDegrees>
            </Position>
            <AltitudeMeters>1070.5999755859375</AltitudeMeters>
            <DistanceMeters>NAN</DistanceMeters>
          </Trackpoint>
          <Trackpoint>
            <Time>2019-10-04T16:15:11.000Z</Time>
            <Position>
              <LatitudeDegrees>42.86142672412097454071044921875</LatitudeDegrees>
              <LongitudeDegrees>-5.67348369397222995758056640625</LongitudeDegrees>
            </Position>
            <AltitudeMeters>1070</AltitudeMeters>
            <DistanceMeters>NAN</DistanceMeters>
          </Trackpoint>
          <Trackpoint>
            <Time>2019-10-04T16:15:12.000Z</Time>
            <Position>
              <LatitudeDegrees>42.86142236553132534027099609375</LatitudeDegrees>
              <LongitudeDegrees>-5.67348436452448368072509765625</LongitudeDegrees>
            </Position>
            <AltitudeMeters>1069.5999755859375</AltitudeMeters>
            <DistanceMeters>NAN</DistanceMeters>
          </Trackpoint>
          <Trackpoint>
            <Time>2019-10-04T16:15:14.000Z</Time>
            <Position>
              <LatitudeDegrees>42.86131851375102996826171875</LatitudeDegrees>
              <LongitudeDegrees>-5.6734961830079555511474609375</LongitudeDegrees>
            </Position>
            <AltitudeMeters>1068.4000244140625</AltitudeMeters>
            <DistanceMeters>NAN</DistanceMeters>
          </Trackpoint>
          <Trackpoint>
            <Time>2019-10-04T16:15:17.000Z</Time>
            <Position>
              <LatitudeDegrees>42.86116621457040309906005859375</LatitudeDegrees>
              <LongitudeDegrees>-5.673496015369892120361328125</LongitudeDegrees>
            </Position>
            <AltitudeMeters>1067</AltitudeMeters>
            <DistanceMeters>NAN</DistanceMeters>
          </Trackpoint>
          <Trackpoint>
            <Time>2019-10-04T16:15:19.000Z</Time>
            <Position>
              <LatitudeDegrees>42.8610652126371860504150390625</LatitudeDegrees>
              <LongitudeDegrees>-5.6735010445117950439453125</LongitudeDegrees>
            </Position>
            <AltitudeMeters>1066.199951171875</AltitudeMeters>
            <DistanceMeters>NAN</DistanceMeters>
          </Trackpoint>
          <Trackpoint>
            <Time>2019-10-04T16:15:20.000Z</Time>
            <Position>
              <LatitudeDegrees>42.86101634614169597625732421875</LatitudeDegrees>
              <LongitudeDegrees>-5.67350196652114391326904296875</LongitudeDegrees>
            </Position>
            <AltitudeMeters>1066</AltitudeMeters>
            <DistanceMeters>NAN</DistanceMeters>
          </Trackpoint>
          <Trackpoint>
            <Time>2019-10-04T16:15:23.000Z</Time>
            <Position>
              <LatitudeDegrees>42.86087536253035068511962890625</LatitudeDegrees>
              <LongitudeDegrees>-5.6735116057097911834716796875</LongitudeDegrees>
            </Position>
            <AltitudeMeters>1064.4000244140625</AltitudeMeters>
            <DistanceMeters>NAN</DistanceMeters>
          </Trackpoint>
          <Trackpoint>
            <Time>2019-10-04T16:15:26.000Z</Time>
            <Position>
              <LatitudeDegrees>42.860756926238536834716796875</LatitudeDegrees>
              <LongitudeDegrees>-5.673518478870391845703125</LongitudeDegrees>
            </Position>
            <AltitudeMeters>1063.4000244140625</AltitudeMeters>
            <DistanceMeters>NAN</DistanceMeters>
          </Trackpoint>
          <Trackpoint>
            <Time>2019-10-04T16:15:29.000Z</Time>
            <Position>
              <LatitudeDegrees>42.86063480190932750701904296875</LatitudeDegrees>
              <LongitudeDegrees>-5.6735171377658843994140625</LongitudeDegrees>
            </Position>
            <AltitudeMeters>1061.800048828125</AltitudeMeters>
            <DistanceMeters>NAN</DistanceMeters>
          </Trackpoint>
          <Trackpoint>
            <Time>2019-10-04T16:15:33.000Z</Time>
            <Position>
              <LatitudeDegrees>42.860477976500988006591796875</LatitudeDegrees>
              <LongitudeDegrees>-5.67352174781262874603271484375</LongitudeDegrees>
            </Position>
            <AltitudeMeters>1060</AltitudeMeters>
            <DistanceMeters>NAN</DistanceMeters>
          </Trackpoint>
          <Trackpoint>
            <Time>2019-10-04T16:15:34.000Z</Time>
            <Position>
              <LatitudeDegrees>42.86043900065124034881591796875</LatitudeDegrees>
              <LongitudeDegrees>-5.67352459765970706939697265625</LongitudeDegrees>
            </Position>
            <AltitudeMeters>1059.5999755859375</AltitudeMeters>
            <DistanceMeters>NAN</DistanceMeters>
          </Trackpoint>
          <Trackpoint>
            <Time>2019-10-04T16:15:37.000Z</Time>
            <Position>
              <LatitudeDegrees>42.860321067273616790771484375</LatitudeDegrees>
              <LongitudeDegrees>-5.673538260161876678466796875</LongitudeDegrees>
            </Position>
            <AltitudeMeters>1058.5999755859375</AltitudeMeters>
            <DistanceMeters>NAN</DistanceMeters>
          </Trackpoint>
          <Trackpoint>
            <Time>2019-10-04T16:15:40.000Z</Time>
            <Position>
              <LatitudeDegrees>42.8602032177150249481201171875</LatitudeDegrees>
              <LongitudeDegrees>-5.67356416024267673492431640625</LongitudeDegrees>
            </Position>
            <AltitudeMeters>1057.4000244140625</AltitudeMeters>
            <DistanceMeters>NAN</DistanceMeters>
          </Trackpoint>
          <Trackpoint>
            <Time>2019-10-04T16:15:43.000Z</Time>
            <Position>
              <LatitudeDegrees>42.86008779890835285186767578125</LatitudeDegrees>
              <LongitudeDegrees>-5.673607997596263885498046875</LongitudeDegrees>
            </Position>
            <AltitudeMeters>1056.4000244140625</AltitudeMeters>
            <DistanceMeters>NAN</DistanceMeters>
          </Trackpoint>
          <Trackpoint>
            <Time>2019-10-04T16:15:47.000Z</Time>
            <Position>
              <LatitudeDegrees>42.85994128324091434478759765625</LatitudeDegrees>
              <LongitudeDegrees>-5.673695839941501617431640625</LongitudeDegrees>
            </Position>
            <AltitudeMeters>1055</AltitudeMeters>
            <DistanceMeters>NAN</DistanceMeters>
          </Trackpoint>
          <Trackpoint>
            <Time>2019-10-04T16:15:50.000Z</Time>
            <Position>
              <LatitudeDegrees>42.8598444722592830657958984375</LatitudeDegrees>
              <LongitudeDegrees>-5.6737826764583587646484375</LongitudeDegrees>
            </Position>
            <AltitudeMeters>1054</AltitudeMeters>
            <DistanceMeters>NAN</DistanceMeters>
          </Trackpoint>
          <Trackpoint>
            <Time>2019-10-04T16:15:56.000Z</Time>
            <Position>
              <LatitudeDegrees>42.85967876203358173370361328125</LatitudeDegrees>
              <LongitudeDegrees>-5.6739511527121067047119140625</LongitudeDegrees>
            </Position>
            <AltitudeMeters>1052.800048828125</AltitudeMeters>
            <DistanceMeters>NAN</DistanceMeters>
          </Trackpoint>
          <Trackpoint>
            <Time>2019-10-04T16:16:01.000Z</Time>
            <Position>
              <LatitudeDegrees>42.8595690429210662841796875</LatitudeDegrees>
              <LongitudeDegrees>-5.674100182950496673583984375</LongitudeDegrees>
            </Position>
            <AltitudeMeters>1051.800048828125</AltitudeMeters>
            <DistanceMeters>NAN</DistanceMeters>
          </Trackpoint>
          <Trackpoint>
            <Time>2019-10-04T16:16:02.000Z</Time>
            <Position>
              <LatitudeDegrees>42.85954892635345458984375</LatitudeDegrees>
              <LongitudeDegrees>-5.67413094453513622283935546875</LongitudeDegrees>
            </Position>
            <AltitudeMeters>1051.4000244140625</AltitudeMeters>
            <DistanceMeters>NAN</DistanceMeters>
          </Trackpoint>
          <Trackpoint>
            <Time>2019-10-04T16:16:07.000Z</Time>
            <Position>
              <LatitudeDegrees>42.85945714451372623443603515625</LatitudeDegrees>
              <LongitudeDegrees>-5.67428466863930225372314453125</LongitudeDegrees>
            </Position>
            <AltitudeMeters>1050.5999755859375</AltitudeMeters>
            <DistanceMeters>NAN</DistanceMeters>
          </Trackpoint>
          <Trackpoint>
            <Time>2019-10-04T16:16:12.000Z</Time>
            <Position>
              <LatitudeDegrees>42.85939075984060764312744140625</LatitudeDegrees>
              <LongitudeDegrees>-5.6743963994085788726806640625</LongitudeDegrees>
            </Position>
            <AltitudeMeters>1050.5999755859375</AltitudeMeters>
            <DistanceMeters>NAN</DistanceMeters>
          </Trackpoint>
          <Trackpoint>
            <Time>2019-10-04T16:16:16.000Z</Time>
            <Position>
              <LatitudeDegrees>42.85924156196415424346923828125</LatitudeDegrees>
              <LongitudeDegrees>-5.67452497780323028564453125</LongitudeDegrees>
            </Position>
            <AltitudeMeters>1050</AltitudeMeters>
            <DistanceMeters>NAN</DistanceMeters>
          </Trackpoint>
          <Trackpoint>
            <Time>2019-10-04T16:16:17.000Z</Time>
            <Position>
              <LatitudeDegrees>42.8591417334973812103271484375</LatitudeDegrees>
              <LongitudeDegrees>-5.67456244491040706634521484375</LongitudeDegrees>
            </Position>
            <AltitudeMeters>1049.800048828125</AltitudeMeters>
            <DistanceMeters>NAN</DistanceMeters>
          </Trackpoint>
          <Trackpoint>
            <Time>2019-10-04T16:16:20.000Z</Time>
            <Position>
              <LatitudeDegrees>42.8590545617043972015380859375</LatitudeDegrees>
              <LongitudeDegrees>-5.67469370551407337188720703125</LongitudeDegrees>
            </Position>
            <AltitudeMeters>1049.4000244140625</AltitudeMeters>
            <DistanceMeters>NAN</DistanceMeters>
          </Trackpoint>
          <Trackpoint>
            <Time>2019-10-04T16:16:24.000Z</Time>
            <Position>
              <LatitudeDegrees>42.85895104520022869110107421875</LatitudeDegrees>
              <LongitudeDegrees>-5.6748356111347675323486328125</LongitudeDegrees>
            </Position>
            <AltitudeMeters>1048.199951171875</AltitudeMeters>
            <DistanceMeters>NAN</DistanceMeters>
          </Trackpoint>
          <Trackpoint>
            <Time>2019-10-04T16:16:27.000Z</Time>
            <Position>
              <LatitudeDegrees>42.85887745209038257598876953125</LatitudeDegrees>
              <LongitudeDegrees>-5.674941055476665496826171875</LongitudeDegrees>
            </Position>
            <AltitudeMeters>1047</AltitudeMeters>
            <DistanceMeters>NAN</DistanceMeters>
          </Trackpoint>
          <Trackpoint>
            <Time>2019-10-04T16:16:30.000Z</Time>
            <Position>
              <LatitudeDegrees>42.85880067385733127593994140625</LatitudeDegrees>
              <LongitudeDegrees>-5.6750240363180637359619140625</LongitudeDegrees>
            </Position>
            <AltitudeMeters>1046</AltitudeMeters>
            <DistanceMeters>NAN</DistanceMeters>
          </Trackpoint>
          <Trackpoint>
            <Time>2019-10-04T16:16:31.000Z</Time>
            <Position>
              <LatitudeDegrees>42.858774103224277496337890625</LatitudeDegrees>
              <LongitudeDegrees>-5.67505043931305408477783203125</LongitudeDegrees>
            </Position>
            <AltitudeMeters>1045.5999755859375</AltitudeMeters>
            <DistanceMeters>NAN</DistanceMeters>
          </Trackpoint>
          <Trackpoint>
            <Time>2019-10-04T16:16:33.000Z</Time>
            <Position>
              <LatitudeDegrees>42.85871836356818675994873046875</LatitudeDegrees>
              <LongitudeDegrees>-5.67509519867599010467529296875</LongitudeDegrees>
            </Position>
            <AltitudeMeters>1044.800048828125</AltitudeMeters>
            <DistanceMeters>NAN</DistanceMeters>
          </Trackpoint>
          <Trackpoint>
            <Time>2019-10-04T16:16:37.000Z</Time>
            <Position>
              <LatitudeDegrees>42.85859615541994571685791015625</LatitudeDegrees>
              <LongitudeDegrees>-5.67517046816647052764892578125</LongitudeDegrees>
            </Position>
            <AltitudeMeters>1043.4000244140625</AltitudeMeters>
            <DistanceMeters>NAN</DistanceMeters>
          </Trackpoint>
          <Trackpoint>
            <Time>2019-10-04T16:16:38.000Z</Time>
            <Position>
              <LatitudeDegrees>42.8585633821785449981689453125</LatitudeDegrees>
              <LongitudeDegrees>-5.675186477601528167724609375</LongitudeDegrees>
            </Position>
            <AltitudeMeters>1043.199951171875</AltitudeMeters>
            <DistanceMeters>NAN</DistanceMeters>
          </Trackpoint>
          <Trackpoint>
            <Time>2019-10-04T16:16:40.000Z</Time>
            <Position>
              <LatitudeDegrees>42.85849523730576038360595703125</LatitudeDegrees>
              <LongitudeDegrees>-5.67521086893975734710693359375</LongitudeDegrees>
            </Position>
            <AltitudeMeters>1042.199951171875</AltitudeMeters>
            <DistanceMeters>NAN</DistanceMeters>
          </Trackpoint>
          <Trackpoint>
            <Time>2019-10-04T16:16:44.000Z</Time>
            <Position>
              <LatitudeDegrees>42.858346961438655853271484375</LatitudeDegrees>
              <LongitudeDegrees>-5.67522897385060787200927734375</LongitudeDegrees>
            </Position>
            <AltitudeMeters>1040.5999755859375</AltitudeMeters>
            <DistanceMeters>NAN</DistanceMeters>
          </Trackpoint>
          <Trackpoint>
            <Time>2019-10-04T16:16:45.000Z</Time>
            <Position>
              <LatitudeDegrees>42.8583105839788913726806640625</LatitudeDegrees>
              <LongitudeDegrees>-5.67522830329835414886474609375</LongitudeDegrees>
            </Position>
            <AltitudeMeters>1040.5999755859375</AltitudeMeters>
            <DistanceMeters>NAN</DistanceMeters>
          </Trackpoint>
          <Trackpoint>
            <Time>2019-10-04T16:16:48.000Z</Time>
            <Position>
              <LatitudeDegrees>42.85819508135318756103515625</LatitudeDegrees>
              <LongitudeDegrees>-5.67521975375711917877197265625</LongitudeDegrees>
            </Position>
            <AltitudeMeters>1039.4000244140625</AltitudeMeters>
            <DistanceMeters>NAN</DistanceMeters>
          </Trackpoint>
          <Trackpoint>
            <Time>2019-10-04T16:16:51.000Z</Time>
            <Position>
              <LatitudeDegrees>42.8580844402313232421875</LatitudeDegrees>
              <LongitudeDegrees>-5.67519946955144405364990234375</LongitudeDegrees>
            </Position>
            <AltitudeMeters>1038</AltitudeMeters>
            <DistanceMeters>NAN</DistanceMeters>
          </Trackpoint>
          <Trackpoint>
            <Time>2019-10-04T16:16:53.000Z</Time>
            <Position>
              <LatitudeDegrees>42.85801109857857227325439453125</LatitudeDegrees>
              <LongitudeDegrees>-5.675176084041595458984375</LongitudeDegrees>
            </Position>
            <AltitudeMeters>1037.199951171875</AltitudeMeters>
            <DistanceMeters>NAN</DistanceMeters>
          </Trackpoint>
          <Trackpoint>
            <Time>2019-10-04T16:16:54.000Z</Time>
            <Position>
              <LatitudeDegrees>42.85797245800495147705078125</LatitudeDegrees>
              <LongitudeDegrees>-5.675156973302364349365234375</LongitudeDegrees>
            </Position>
            <AltitudeMeters>1036.800048828125</AltitudeMeters>
            <DistanceMeters>NAN</DistanceMeters>
          </Trackpoint>
          <Trackpoint>
            <Time>2019-10-04T16:16:57.000Z</Time>
            <Position>
              <LatitudeDegrees>42.85785980522632598876953125</LatitudeDegrees>
              <LongitudeDegrees>-5.675083883106708526611328125</LongitudeDegrees>
            </Position>
            <AltitudeMeters>1035.5999755859375</AltitudeMeters>
            <DistanceMeters>NAN</DistanceMeters>
          </Trackpoint>
          <Trackpoint>
            <Time>2019-10-04T16:16:59.000Z</Time>
            <Position>
              <LatitudeDegrees>42.857783026993274688720703125</LatitudeDegrees>
              <LongitudeDegrees>-5.675022192299365997314453125</LongitudeDegrees>
            </Position>
            <AltitudeMeters>1034</AltitudeMeters>
            <DistanceMeters>NAN</DistanceMeters>
          </Trackpoint>
          <Trackpoint>
            <Time>2019-10-04T16:17:01.000Z</Time>
            <Position>
              <LatitudeDegrees>42.857711613178253173828125</LatitudeDegrees>
              <LongitudeDegrees>-5.67495186813175678253173828125</LongitudeDegrees>
            </Position>
            <AltitudeMeters>1033</AltitudeMeters>
            <DistanceMeters>NAN</DistanceMeters>
          </Trackpoint>
          <Trackpoint>
            <Time>2019-10-04T16:17:03.000Z</Time>
            <Position>
              <LatitudeDegrees>42.85764397121965885162353515625</LatitudeDegrees>
              <LongitudeDegrees>-5.6748662889003753662109375</LongitudeDegrees>
            </Position>
            <AltitudeMeters>1031.800048828125</AltitudeMeters>
            <DistanceMeters>NAN</DistanceMeters>
          </Trackpoint>
          <Trackpoint>
            <Time>2019-10-04T16:17:04.000Z</Time>
            <Position>
              <LatitudeDegrees>42.85761312581598758697509765625</LatitudeDegrees>
              <LongitudeDegrees>-5.67481725476682186126708984375</LongitudeDegrees>
            </Position>
            <AltitudeMeters>1031</AltitudeMeters>
            <DistanceMeters>NAN</DistanceMeters>
          </Trackpoint>
          <Trackpoint>
            <Time>2019-10-04T16:17:05.000Z</Time>
            <Position>
              <LatitudeDegrees>42.8575833700597286224365234375</LatitudeDegrees>
              <LongitudeDegrees>-5.67476612515747547149658203125</LongitudeDegrees>
            </Position>
            <AltitudeMeters>1030.4000244140625</AltitudeMeters>
            <DistanceMeters>NAN</DistanceMeters>
          </Trackpoint>
          <Trackpoint>
            <Time>2019-10-04T16:17:07.000Z</Time>
            <Position>
              <LatitudeDegrees>42.85752947442233562469482421875</LatitudeDegrees>
              <LongitudeDegrees>-5.67465716041624546051025390625</LongitudeDegrees>
            </Position>
            <AltitudeMeters>1029.199951171875</AltitudeMeters>
            <DistanceMeters>NAN</DistanceMeters>
          </Trackpoint>
          <Trackpoint>
            <Time>2019-10-04T16:17:09.000Z</Time>
            <Position>
              <LatitudeDegrees>42.857483960688114166259765625</LatitudeDegrees>
              <LongitudeDegrees>-5.67454777657985687255859375</LongitudeDegrees>
            </Position>
            <AltitudeMeters>1028</AltitudeMeters>
            <DistanceMeters>NAN</DistanceMeters>
          </Trackpoint>
          <Trackpoint>
            <Time>2019-10-04T16:17:11.000Z</Time>
            <Position>
              <LatitudeDegrees>42.8574375249445438385009765625</LatitudeDegrees>
              <LongitudeDegrees>-5.67443646490573883056640625</LongitudeDegrees>
            </Position>
            <AltitudeMeters>1026.800048828125</AltitudeMeters>
            <DistanceMeters>NAN</DistanceMeters>
          </Trackpoint>
          <Trackpoint>
            <Time>2019-10-04T16:17:14.000Z</Time>
            <Position>
              <LatitudeDegrees>42.85738010890781879425048828125</LatitudeDegrees>
              <LongitudeDegrees>-5.6742589361965656280517578125</LongitudeDegrees>
            </Position>
            <AltitudeMeters>1025.199951171875</AltitudeMeters>
            <DistanceMeters>NAN</DistanceMeters>
          </Trackpoint>
          <Trackpoint>
            <Time>2019-10-04T16:17:18.000Z</Time>
            <Position>
              <LatitudeDegrees>42.85729922354221343994140625</LatitudeDegrees>
              <LongitudeDegrees>-5.6740255840122699737548828125</LongitudeDegrees>
            </Position>
            <AltitudeMeters>1024</AltitudeMeters>
            <DistanceMeters>NAN</DistanceMeters>
          </Trackpoint>
          <Trackpoint>
            <Time>2019-10-04T16:17:21.000Z</Time>
            <Position>
              <LatitudeDegrees>42.8572407178580760955810546875</LatitudeDegrees>
              <LongitudeDegrees>-5.67385132424533367156982421875</LongitudeDegrees>
            </Position>
            <AltitudeMeters>1022.79998779296875</AltitudeMeters>
            <DistanceMeters>NAN</DistanceMeters>
          </Trackpoint>
          <Trackpoint>
            <Time>2019-10-04T16:17:22.000Z</Time>
            <Position>
              <LatitudeDegrees>42.85722387023270130157470703125</LatitudeDegrees>
              <LongitudeDegrees>-5.67379985935986042022705078125</LongitudeDegrees>
            </Position>
            <AltitudeMeters>1022.79998779296875</AltitudeMeters>
            <DistanceMeters>NAN</DistanceMeters>
          </Trackpoint>
          <Trackpoint>
            <Time>2019-10-04T16:17:25.000Z</Time>
            <Position>
              <LatitudeDegrees>42.85716913640499114990234375</LatitudeDegrees>
              <LongitudeDegrees>-5.67364144138991832733154296875</LongitudeDegrees>
            </Position>
            <AltitudeMeters>1021.4000244140625</AltitudeMeters>
            <DistanceMeters>NAN</DistanceMeters>
          </Trackpoint>
          <Trackpoint>
            <Time>2019-10-04T16:17:29.000Z</Time>
            <Position>
              <LatitudeDegrees>42.85710786469280719757080078125</LatitudeDegrees>
              <LongitudeDegrees>-5.67344564013183116912841796875</LongitudeDegrees>
            </Position>
            <AltitudeMeters>1020.4000244140625</AltitudeMeters>
            <DistanceMeters>NAN</DistanceMeters>
          </Trackpoint>
          <Trackpoint>
            <Time>2019-10-04T16:17:31.000Z</Time>
            <Position>
              <LatitudeDegrees>42.85707953386008739471435546875</LatitudeDegrees>
              <LongitudeDegrees>-5.673352181911468505859375</LongitudeDegrees>
            </Position>
            <AltitudeMeters>1020</AltitudeMeters>
            <DistanceMeters>NAN</DistanceMeters>
          </Trackpoint>
          <Trackpoint>
            <Time>2019-10-04T16:17:33.000Z</Time>
            <Position>
              <LatitudeDegrees>42.85705388523638248443603515625</LatitudeDegrees>
              <LongitudeDegrees>-5.6732645072042942047119140625</LongitudeDegrees>
            </Position>
            <AltitudeMeters>1019.20001220703125</AltitudeMeters>
            <DistanceMeters>NAN</DistanceMeters>
          </Trackpoint>
          <Trackpoint>
            <Time>2019-10-04T16:17:36.000Z</Time>
            <Position>
              <LatitudeDegrees>42.85700024105608463287353515625</LatitudeDegrees>
              <LongitudeDegrees>-5.67313467152416706085205078125</LongitudeDegrees>
            </Position>
            <AltitudeMeters>1018</AltitudeMeters>
            <DistanceMeters>NAN</DistanceMeters>
          </Trackpoint>
          <Trackpoint>
            <Time>2019-10-04T16:17:38.000Z</Time>
            <Position>
              <LatitudeDegrees>42.8569701500236988067626953125</LatitudeDegrees>
              <LongitudeDegrees>-5.6730465777218341827392578125</LongitudeDegrees>
            </Position>
            <AltitudeMeters>1017</AltitudeMeters>
            <DistanceMeters>NAN</DistanceMeters>
          </Trackpoint>
          <Trackpoint>
            <Time>2019-10-04T16:17:39.000Z</Time>
            <Position>
              <LatitudeDegrees>42.85695732571184635162353515625</LatitudeDegrees>
              <LongitudeDegrees>-5.6730053387582302093505859375</LongitudeDegrees>
            </Position>
            <AltitudeMeters>1016.5999755859375</AltitudeMeters>
            <DistanceMeters>NAN</DistanceMeters>
          </Trackpoint>
          <Trackpoint>
            <Time>2019-10-04T16:17:42.000Z</Time>
            <Position>
              <LatitudeDegrees>42.85691239871084690093994140625</LatitudeDegrees>
              <LongitudeDegrees>-5.672884471714496612548828125</LongitudeDegrees>
            </Position>
            <AltitudeMeters>1015</AltitudeMeters>
            <DistanceMeters>NAN</DistanceMeters>
          </Trackpoint>
          <Trackpoint>
            <Time>2019-10-04T16:17:44.000Z</Time>
            <Position>
              <LatitudeDegrees>42.85687987692654132843017578125</LatitudeDegrees>
              <LongitudeDegrees>-5.6728031672537326812744140625</LongitudeDegrees>
            </Position>
            <AltitudeMeters>1014</AltitudeMeters>
            <DistanceMeters>NAN</DistanceMeters>
          </Trackpoint>
          <Trackpoint>
            <Time>2019-10-04T16:17:45.000Z</Time>
            <Position>
              <LatitudeDegrees>42.8568655438721179962158203125</LatitudeDegrees>
              <LongitudeDegrees>-5.67275865934789180755615234375</LongitudeDegrees>
            </Position>
            <AltitudeMeters>1013.79998779296875</AltitudeMeters>
            <DistanceMeters>NAN</DistanceMeters>
          </Trackpoint>
          <Trackpoint>
            <Time>2019-10-04T16:17:47.000Z</Time>
            <Position>
              <LatitudeDegrees>42.856839559972286224365234375</LatitudeDegrees>
              <LongitudeDegrees>-5.67266863770782947540283203125</LongitudeDegrees>
            </Position>
            <AltitudeMeters>1012.5999755859375</AltitudeMeters>
            <DistanceMeters>NAN</DistanceMeters>
          </Trackpoint>
          <Trackpoint>
            <Time>2019-10-04T16:17:51.000Z</Time>
            <Position>
              <LatitudeDegrees>42.85677476786077022552490234375</LatitudeDegrees>
              <LongitudeDegrees>-5.67247300408780574798583984375</LongitudeDegrees>
            </Position>
            <AltitudeMeters>1011</AltitudeMeters>
            <DistanceMeters>NAN</DistanceMeters>
          </Trackpoint>
          <Trackpoint>
            <Time>2019-10-04T16:17:52.000Z</Time>
            <Position>
              <LatitudeDegrees>42.8567709960043430328369140625</LatitudeDegrees>
              <LongitudeDegrees>-5.6724625267088413238525390625</LongitudeDegrees>
            </Position>
            <AltitudeMeters>1010.79998779296875</AltitudeMeters>
            <DistanceMeters>NAN</DistanceMeters>
          </Trackpoint>
          <Trackpoint>
            <Time>2019-10-04T16:17:55.000Z</Time>
            <Position>
              <LatitudeDegrees>42.856729924678802490234375</LatitudeDegrees>
              <LongitudeDegrees>-5.672334618866443634033203125</LongitudeDegrees>
            </Position>
            <AltitudeMeters>1010</AltitudeMeters>
            <DistanceMeters>NAN</DistanceMeters>
          </Trackpoint>
          <Trackpoint>
            <Time>2019-10-04T16:17:58.000Z</Time>
            <Position>
              <LatitudeDegrees>42.8566868416965007781982421875</LatitudeDegrees>
              <LongitudeDegrees>-5.6722063757479190826416015625</LongitudeDegrees>
            </Position>
            <AltitudeMeters>1008.5999755859375</AltitudeMeters>
            <DistanceMeters>NAN</DistanceMeters>
          </Trackpoint>
          <Trackpoint>
            <Time>2019-10-04T16:18:00.000Z</Time>
            <Position>
              <LatitudeDegrees>42.85666043870151042938232421875</LatitudeDegrees>
              <LongitudeDegrees>-5.67212264053523540496826171875</LongitudeDegrees>
            </Position>
            <AltitudeMeters>1008</AltitudeMeters>
            <DistanceMeters>NAN</DistanceMeters>
          </Trackpoint>
          <Trackpoint>
            <Time>2019-10-04T16:18:02.000Z</Time>
            <Position>
              <LatitudeDegrees>42.85663294605910778045654296875</LatitudeDegrees>
              <LongitudeDegrees>-5.67204133607447147369384765625</LongitudeDegrees>
            </Position>
            <AltitudeMeters>1007.5999755859375</AltitudeMeters>
            <DistanceMeters>NAN</DistanceMeters>
          </Trackpoint>
          <Trackpoint>
            <Time>2019-10-04T16:18:08.000Z</Time>
            <Position>
              <LatitudeDegrees>42.85654359497129917144775390625</LatitudeDegrees>
              <LongitudeDegrees>-5.67178233526647090911865234375</LongitudeDegrees>
            </Position>
            <AltitudeMeters>1006.5999755859375</AltitudeMeters>
            <DistanceMeters>NAN</DistanceMeters>
          </Trackpoint>
          <Trackpoint>
            <Time>2019-10-04T16:18:14.000Z</Time>
            <Position>
              <LatitudeDegrees>42.85645239986479282379150390625</LatitudeDegrees>
              <LongitudeDegrees>-5.67147664725780487060546875</LongitudeDegrees>
            </Position>
            <AltitudeMeters>1005.4000244140625</AltitudeMeters>
            <DistanceMeters>NAN</DistanceMeters>
          </Trackpoint>
          <Trackpoint>
            <Time>2019-10-04T16:18:18.000Z</Time>
            <Position>
              <LatitudeDegrees>42.8564105741679668426513671875</LatitudeDegrees>
              <LongitudeDegrees>-5.671318732202053070068359375</LongitudeDegrees>
            </Position>
            <AltitudeMeters>1004.5999755859375</AltitudeMeters>
            <DistanceMeters>NAN</DistanceMeters>
          </Trackpoint>
          <Trackpoint>
            <Time>2019-10-04T16:18:19.000Z</Time>
            <Position>
              <LatitudeDegrees>42.85639741457998752593994140625</LatitudeDegrees>
              <LongitudeDegrees>-5.67127254791557788848876953125</LongitudeDegrees>
            </Position>
            <AltitudeMeters>1004.20001220703125</AltitudeMeters>
            <DistanceMeters>NAN</DistanceMeters>
          </Trackpoint>
          <Trackpoint>
            <Time>2019-10-04T16:18:26.000Z</Time>
            <Position>
              <LatitudeDegrees>42.85632021725177764892578125</LatitudeDegrees>
              <LongitudeDegrees>-5.6709350086748600006103515625</LongitudeDegrees>
            </Position>
            <AltitudeMeters>1003</AltitudeMeters>
            <DistanceMeters>NAN</DistanceMeters>
          </Trackpoint>
          <Trackpoint>
            <Time>2019-10-04T16:18:27.000Z</Time>
            <Position>
              <LatitudeDegrees>42.8563083149492740631103515625</LatitudeDegrees>
              <LongitudeDegrees>-5.670886896550655364990234375</LongitudeDegrees>
            </Position>
            <AltitudeMeters>1003</AltitudeMeters>
            <DistanceMeters>NAN</DistanceMeters>
          </Trackpoint>
          <Trackpoint>
            <Time>2019-10-04T16:18:31.000Z</Time>
            <Position>
              <LatitudeDegrees>42.8562684170901775360107421875</LatitudeDegrees>
              <LongitudeDegrees>-5.67068271338939666748046875</LongitudeDegrees>
            </Position>
            <AltitudeMeters>1001.79998779296875</AltitudeMeters>
            <DistanceMeters>NAN</DistanceMeters>
          </Trackpoint>
          <Trackpoint>
            <Time>2019-10-04T16:18:36.000Z</Time>
            <Position>
              <LatitudeDegrees>42.85622441209852695465087890625</LatitudeDegrees>
              <LongitudeDegrees>-5.67042128182947635650634765625</LongitudeDegrees>
            </Position>
            <AltitudeMeters>1000.4000244140625</AltitudeMeters>
            <DistanceMeters>NAN</DistanceMeters>
          </Trackpoint>
          <Trackpoint>
            <Time>2019-10-04T16:18:40.000Z</Time>
            <Position>
              <LatitudeDegrees>42.8561852686107158660888671875</LatitudeDegrees>
              <LongitudeDegrees>-5.67019865848124027252197265625</LongitudeDegrees>
            </Position>
            <AltitudeMeters>999.20001220703125</AltitudeMeters>
            <DistanceMeters>NAN</DistanceMeters>
          </Trackpoint>
          <Trackpoint>
            <Time>2019-10-04T16:18:44.000Z</Time>
            <Position>
              <LatitudeDegrees>42.8561520762741565704345703125</LatitudeDegrees>
              <LongitudeDegrees>-5.669953487813472747802734375</LongitudeDegrees>
            </Position>
            <AltitudeMeters>998.20001220703125</AltitudeMeters>
            <DistanceMeters>NAN</DistanceMeters>
          </Trackpoint>
          <Trackpoint>
            <Time>2019-10-04T16:18:48.000Z</Time>
            <Position>
              <LatitudeDegrees>42.856100611388683319091796875</LatitudeDegrees>
              <LongitudeDegrees>-5.66961561329662799835205078125</LongitudeDegrees>
            </Position>
            <AltitudeMeters>996.79998779296875</AltitudeMeters>
            <DistanceMeters>NAN</DistanceMeters>
          </Trackpoint>
          <Trackpoint>
            <Time>2019-10-04T16:18:52.000Z</Time>
            <Position>
              <LatitudeDegrees>42.85605845041573047637939453125</LatitudeDegrees>
              <LongitudeDegrees>-5.66934504546225070953369140625</LongitudeDegrees>
            </Position>
            <AltitudeMeters>995.4000244140625</AltitudeMeters>
            <DistanceMeters>NAN</DistanceMeters>
          </Trackpoint>
          <Trackpoint>
            <Time>2019-10-04T16:18:57.000Z</Time>
            <Position>
              <LatitudeDegrees>42.8560065664350986480712890625</LatitudeDegrees>
              <LongitudeDegrees>-5.6690292991697788238525390625</LongitudeDegrees>
            </Position>
            <AltitudeMeters>994</AltitudeMeters>
            <DistanceMeters>NAN</DistanceMeters>
          </Trackpoint>
          <Trackpoint>
            <Time>2019-10-04T16:19:00.000Z</Time>
            <Position>
              <LatitudeDegrees>42.85596993751823902130126953125</LatitudeDegrees>
              <LongitudeDegrees>-5.668792761862277984619140625</LongitudeDegrees>
            </Position>
            <AltitudeMeters>993.20001220703125</AltitudeMeters>
            <DistanceMeters>NAN</DistanceMeters>
          </Trackpoint>
          <Trackpoint>
            <Time>2019-10-04T16:19:02.000Z</Time>
            <Position>
              <LatitudeDegrees>42.8559425286948680877685546875</LatitudeDegrees>
              <LongitudeDegrees>-5.6686249561607837677001953125</LongitudeDegrees>
            </Position>
            <AltitudeMeters>992.79998779296875</AltitudeMeters>
            <DistanceMeters>NAN</DistanceMeters>
          </Trackpoint>
          <Trackpoint>
            <Time>2019-10-04T16:19:06.000Z</Time>
            <Position>
              <LatitudeDegrees>42.85588444210588932037353515625</LatitudeDegrees>
              <LongitudeDegrees>-5.66828171722590923309326171875</LongitudeDegrees>
            </Position>
            <AltitudeMeters>991.5999755859375</AltitudeMeters>
            <DistanceMeters>NAN</DistanceMeters>
          </Trackpoint>
          <Trackpoint>
            <Time>2019-10-04T16:19:09.000Z</Time>
            <Position>
              <LatitudeDegrees>42.8558352403342723846435546875</LatitudeDegrees>
              <LongitudeDegrees>-5.66801534034311771392822265625</LongitudeDegrees>
            </Position>
            <AltitudeMeters>991.4000244140625</AltitudeMeters>
            <DistanceMeters>NAN</DistanceMeters>
          </Trackpoint>
          <Trackpoint>
            <Time>2019-10-04T16:19:13.000Z</Time>
            <Position>
              <LatitudeDegrees>42.8557396866381168365478515625</LatitudeDegrees>
              <LongitudeDegrees>-5.6676301918923854827880859375</LongitudeDegrees>
            </Position>
            <AltitudeMeters>990.79998779296875</AltitudeMeters>
            <DistanceMeters>NAN</DistanceMeters>
          </Trackpoint>
          <Trackpoint>
            <Time>2019-10-04T16:19:14.000Z</Time>
            <Position>
              <LatitudeDegrees>42.85569618456065654754638671875</LatitudeDegrees>
              <LongitudeDegrees>-5.66753606311976909637451171875</LongitudeDegrees>
            </Position>
            <AltitudeMeters>990.79998779296875</AltitudeMeters>
            <DistanceMeters>NAN</DistanceMeters>
          </Trackpoint>
          <Trackpoint>
            <Time>2019-10-04T16:19:17.000Z</Time>
            <Position>
              <LatitudeDegrees>42.85552687011659145355224609375</LatitudeDegrees>
              <LongitudeDegrees>-5.66727622412145137786865234375</LongitudeDegrees>
            </Position>
            <AltitudeMeters>990.4000244140625</AltitudeMeters>
            <DistanceMeters>NAN</DistanceMeters>
          </Trackpoint>
          <Trackpoint>
            <Time>2019-10-04T16:19:18.000Z</Time>
            <Position>
              <LatitudeDegrees>42.85545646212995052337646484375</LatitudeDegrees>
              <LongitudeDegrees>-5.66720330156385898590087890625</LongitudeDegrees>
            </Position>
            <AltitudeMeters>990.20001220703125</AltitudeMeters>
            <DistanceMeters>NAN</DistanceMeters>
          </Trackpoint>
          <Trackpoint>
            <Time>2019-10-04T16:19:21.000Z</Time>
            <Position>
              <LatitudeDegrees>42.8552233614027500152587890625</LatitudeDegrees>
              <LongitudeDegrees>-5.6670223362743854522705078125</LongitudeDegrees>
            </Position>
            <AltitudeMeters>990.20001220703125</AltitudeMeters>
            <DistanceMeters>NAN</DistanceMeters>
          </Trackpoint>
          <Trackpoint>
            <Time>2019-10-04T16:19:22.000Z</Time>
            <Position>
              <LatitudeDegrees>42.8551418893039226531982421875</LatitudeDegrees>
              <LongitudeDegrees>-5.666961483657360076904296875</LongitudeDegrees>
            </Position>
            <AltitudeMeters>990</AltitudeMeters>
            <DistanceMeters>NAN</DistanceMeters>
          </Trackpoint>
          <Trackpoint>
            <Time>2019-10-04T16:19:27.000Z</Time>
            <Position>
              <LatitudeDegrees>42.85472338087856769561767578125</LatitudeDegrees>
              <LongitudeDegrees>-5.66663752309978008270263671875</LongitudeDegrees>
            </Position>
            <AltitudeMeters>989.4000244140625</AltitudeMeters>
            <DistanceMeters>NAN</DistanceMeters>
          </Trackpoint>
          <Trackpoint>
            <Time>2019-10-04T16:19:28.000Z</Time>
            <Position>
              <LatitudeDegrees>42.85463604144752025604248046875</LatitudeDegrees>
              <LongitudeDegrees>-5.66656962968409061431884765625</LongitudeDegrees>
            </Position>
            <AltitudeMeters>989.20001220703125</AltitudeMeters>
            <DistanceMeters>NAN</DistanceMeters>
          </Trackpoint>
          <Trackpoint>
            <Time>2019-10-04T16:19:32.000Z</Time>
            <Position>
              <LatitudeDegrees>42.854283414781093597412109375</LatitudeDegrees>
              <LongitudeDegrees>-5.66628648899495601654052734375</LongitudeDegrees>
            </Position>
            <AltitudeMeters>990</AltitudeMeters>
            <DistanceMeters>NAN</DistanceMeters>
          </Trackpoint>
          <Trackpoint>
            <Time>2019-10-04T16:19:34.000Z</Time>
            <Position>
              <LatitudeDegrees>42.85410110838711261749267578125</LatitudeDegrees>
              <LongitudeDegrees>-5.66614885814487934112548828125</LongitudeDegrees>
            </Position>
            <AltitudeMeters>990</AltitudeMeters>
            <DistanceMeters>NAN</DistanceMeters>
          </Trackpoint>
          <Trackpoint>
            <Time>2019-10-04T16:19:38.000Z</Time>
            <Position>
              <LatitudeDegrees>42.85371671430766582489013671875</LatitudeDegrees>
              <LongitudeDegrees>-5.6658679805696010589599609375</LongitudeDegrees>
            </Position>
            <AltitudeMeters>989.5999755859375</AltitudeMeters>
            <DistanceMeters>NAN</DistanceMeters>
          </Trackpoint>
          <Trackpoint>
            <Time>2019-10-04T16:19:40.000Z</Time>
            <Position>
              <LatitudeDegrees>42.85352242179214954376220703125</LatitudeDegrees>
              <LongitudeDegrees>-5.66571853123605251312255859375</LongitudeDegrees>
            </Position>
            <AltitudeMeters>989.4000244140625</AltitudeMeters>
            <DistanceMeters>NAN</DistanceMeters>
          </Trackpoint>
          <Trackpoint>
            <Time>2019-10-04T16:19:45.000Z</Time>
            <Position>
              <LatitudeDegrees>42.853016741573810577392578125</LatitudeDegrees>
              <LongitudeDegrees>-5.66534318961203098297119140625</LongitudeDegrees>
            </Position>
            <AltitudeMeters>989.5999755859375</AltitudeMeters>
            <DistanceMeters>NAN</DistanceMeters>
          </Trackpoint>
          <Trackpoint>
            <Time>2019-10-04T16:19:47.000Z</Time>
            <Position>
              <LatitudeDegrees>42.85281230695545673370361328125</LatitudeDegrees>
              <LongitudeDegrees>-5.6651846878230571746826171875</LongitudeDegrees>
            </Position>
            <AltitudeMeters>989.5999755859375</AltitudeMeters>
            <DistanceMeters>NAN</DistanceMeters>
          </Trackpoint>
          <Trackpoint>
            <Time>2019-10-04T16:19:51.000Z</Time>
            <Position>
              <LatitudeDegrees>42.85238231532275676727294921875</LatitudeDegrees>
              <LongitudeDegrees>-5.6649349071085453033447265625</LongitudeDegrees>
            </Position>
            <AltitudeMeters>989.5999755859375</AltitudeMeters>
            <DistanceMeters>NAN</DistanceMeters>
          </Trackpoint>
          <Trackpoint>
            <Time>2019-10-04T16:19:52.000Z</Time>
            <Position>
              <LatitudeDegrees>42.85226630978286266326904296875</LatitudeDegrees>
              <LongitudeDegrees>-5.66490364260971546173095703125</LongitudeDegrees>
            </Position>
            <AltitudeMeters>989.20001220703125</AltitudeMeters>
            <DistanceMeters>NAN</DistanceMeters>
          </Trackpoint>
          <Trackpoint>
            <Time>2019-10-04T16:19:57.000Z</Time>
            <Position>
              <LatitudeDegrees>42.8516731224954128265380859375</LatitudeDegrees>
              <LongitudeDegrees>-5.6647863797843456268310546875</LongitudeDegrees>
            </Position>
            <AltitudeMeters>988.79998779296875</AltitudeMeters>
            <DistanceMeters>NAN</DistanceMeters>
          </Trackpoint>
          <Trackpoint>
            <Time>2019-10-04T16:19:58.000Z</Time>
            <Position>
              <LatitudeDegrees>42.85155435092747211456298828125</LatitudeDegrees>
              <LongitudeDegrees>-5.66476165316998958587646484375</LongitudeDegrees>
            </Position>
            <AltitudeMeters>988.5999755859375</AltitudeMeters>
            <DistanceMeters>NAN</DistanceMeters>
          </Trackpoint>
          <Trackpoint>
            <Time>2019-10-04T16:20:01.000Z</Time>
            <Position>
              <LatitudeDegrees>42.85119812004268169403076171875</LatitudeDegrees>
              <LongitudeDegrees>-5.66469828598201274871826171875</LongitudeDegrees>
            </Position>
            <AltitudeMeters>988.5999755859375</AltitudeMeters>
            <DistanceMeters>NAN</DistanceMeters>
          </Trackpoint>
          <Trackpoint>
            <Time>2019-10-04T16:20:03.000Z</Time>
            <Position>
              <LatitudeDegrees>42.850963510572910308837890625</LatitudeDegrees>
              <LongitudeDegrees>-5.664652101695537567138671875</LongitudeDegrees>
            </Position>
            <AltitudeMeters>988.4000244140625</AltitudeMeters>
            <DistanceMeters>NAN</DistanceMeters>
          </Trackpoint>
          <Trackpoint>
            <Time>2019-10-04T16:20:06.000Z</Time>
            <Position>
              <LatitudeDegrees>42.85061490722000598907470703125</LatitudeDegrees>
              <LongitudeDegrees>-5.664586387574672698974609375</LongitudeDegrees>
            </Position>
            <AltitudeMeters>988.5999755859375</AltitudeMeters>
            <DistanceMeters>NAN</DistanceMeters>
          </Trackpoint>
          <Trackpoint>
            <Time>2019-10-04T16:20:07.000Z</Time>
            <Position>
              <LatitudeDegrees>42.85049906931817531585693359375</LatitudeDegrees>
              <LongitudeDegrees>-5.66456333734095096588134765625</LongitudeDegrees>
            </Position>
            <AltitudeMeters>988</AltitudeMeters>
            <DistanceMeters>NAN</DistanceMeters>
          </Trackpoint>
          <Trackpoint>
            <Time>2019-10-04T16:20:12.000Z</Time>
            <Position>
              <LatitudeDegrees>42.84995961003005504608154296875</LatitudeDegrees>
              <LongitudeDegrees>-5.66446342505514621734619140625</LongitudeDegrees>
            </Position>
            <AltitudeMeters>987.79998779296875</AltitudeMeters>
            <DistanceMeters>NAN</DistanceMeters>
          </Trackpoint>
          <Trackpoint>
            <Time>2019-10-04T16:20:13.000Z</Time>
            <Position>
              <LatitudeDegrees>42.84986003302037715911865234375</LatitudeDegrees>
              <LongitudeDegrees>-5.6644437275826930999755859375</LongitudeDegrees>
            </Position>
            <AltitudeMeters>987.20001220703125</AltitudeMeters>
            <DistanceMeters>NAN</DistanceMeters>
          </Trackpoint>
          <Trackpoint>
            <Time>2019-10-04T16:20:14.000Z</Time>
            <Position>
              <LatitudeDegrees>42.8497628867626190185546875</LatitudeDegrees>
              <LongitudeDegrees>-5.6644252873957157135009765625</LongitudeDegrees>
            </Position>
            <AltitudeMeters>986.79998779296875</AltitudeMeters>
            <DistanceMeters>NAN</DistanceMeters>
          </Trackpoint>
          <Trackpoint>
            <Time>2019-10-04T16:20:15.000Z</Time>
            <Position>
              <LatitudeDegrees>42.84966699779033660888671875</LatitudeDegrees>
              <LongitudeDegrees>-5.664402656257152557373046875</LongitudeDegrees>
            </Position>
            <AltitudeMeters>986.5999755859375</AltitudeMeters>
            <DistanceMeters>NAN</DistanceMeters>
          </Trackpoint>
          <Trackpoint>
            <Time>2019-10-04T16:20:19.000Z</Time>
            <Position>
              <LatitudeDegrees>42.8493003733456134796142578125</LatitudeDegrees>
              <LongitudeDegrees>-5.6643305718898773193359375</LongitudeDegrees>
            </Position>
            <AltitudeMeters>985.79998779296875</AltitudeMeters>
            <DistanceMeters>NAN</DistanceMeters>
          </Trackpoint>
          <Trackpoint>
            <Time>2019-10-04T16:20:20.000Z</Time>
            <Position>
              <LatitudeDegrees>42.84921194426715373992919921875</LatitudeDegrees>
              <LongitudeDegrees>-5.66431171260774135589599609375</LongitudeDegrees>
            </Position>
            <AltitudeMeters>985.5999755859375</AltitudeMeters>
            <DistanceMeters>NAN</DistanceMeters>
          </Trackpoint>
          <Trackpoint>
            <Time>2019-10-04T16:20:22.000Z</Time>
            <Position>
              <LatitudeDegrees>42.84903977997601032257080078125</LatitudeDegrees>
              <LongitudeDegrees>-5.6642747484147548675537109375</LongitudeDegrees>
            </Position>
            <AltitudeMeters>984.5999755859375</AltitudeMeters>
            <DistanceMeters>NAN</DistanceMeters>
          </Trackpoint>
          <Trackpoint>
            <Time>2019-10-04T16:20:24.000Z</Time>
            <Position>
              <LatitudeDegrees>42.84887172281742095947265625</LatitudeDegrees>
              <LongitudeDegrees>-5.6642432324588298797607421875</LongitudeDegrees>
            </Position>
            <AltitudeMeters>984</AltitudeMeters>
            <DistanceMeters>NAN</DistanceMeters>
          </Trackpoint>
          <Trackpoint>
            <Time>2019-10-04T16:20:25.000Z</Time>
            <Position>
              <LatitudeDegrees>42.84878790378570556640625</LatitudeDegrees>
              <LongitudeDegrees>-5.66422990523278713226318359375</LongitudeDegrees>
            </Position>
            <AltitudeMeters>984.20001220703125</AltitudeMeters>
            <DistanceMeters>NAN</DistanceMeters>
          </Trackpoint>
          <Trackpoint>
            <Time>2019-10-04T16:20:26.000Z</Time>
            <Position>
              <LatitudeDegrees>42.84870752133429050445556640625</LatitudeDegrees>
              <LongitudeDegrees>-5.6642160750925540924072265625</LongitudeDegrees>
            </Position>
            <AltitudeMeters>983.79998779296875</AltitudeMeters>
            <DistanceMeters>NAN</DistanceMeters>
          </Trackpoint>
          <Trackpoint>
            <Time>2019-10-04T16:20:28.000Z</Time>
            <Position>
              <LatitudeDegrees>42.8485446609556674957275390625</LatitudeDegrees>
              <LongitudeDegrees>-5.66419134847819805145263671875</LongitudeDegrees>
            </Position>
            <AltitudeMeters>983.79998779296875</AltitudeMeters>
            <DistanceMeters>NAN</DistanceMeters>
          </Trackpoint>
          <Trackpoint>
            <Time>2019-10-04T16:20:30.000Z</Time>
            <Position>
              <LatitudeDegrees>42.84838599152863025665283203125</LatitudeDegrees>
              <LongitudeDegrees>-5.664176680147647857666015625</LongitudeDegrees>
            </Position>
            <AltitudeMeters>983.20001220703125</AltitudeMeters>
            <DistanceMeters>NAN</DistanceMeters>
          </Trackpoint>
          <Trackpoint>
            <Time>2019-10-04T16:20:32.000Z</Time>
            <Position>
              <LatitudeDegrees>42.84822531044483184814453125</LatitudeDegrees>
              <LongitudeDegrees>-5.66417374648153781890869140625</LongitudeDegrees>
            </Position>
            <AltitudeMeters>982.79998779296875</AltitudeMeters>
            <DistanceMeters>NAN</DistanceMeters>
          </Trackpoint>
          <Trackpoint>
            <Time>2019-10-04T16:20:33.000Z</Time>
            <Position>
              <LatitudeDegrees>42.84814526326954364776611328125</LatitudeDegrees>
              <LongitudeDegrees>-5.664176009595394134521484375</LongitudeDegrees>
            </Position>
            <AltitudeMeters>982.4000244140625</AltitudeMeters>
            <DistanceMeters>NAN</DistanceMeters>
          </Trackpoint>
          <Trackpoint>
            <Time>2019-10-04T16:20:34.000Z</Time>
            <Position>
              <LatitudeDegrees>42.84806362353265285491943359375</LatitudeDegrees>
              <LongitudeDegrees>-5.66418212838470935821533203125</LongitudeDegrees>
            </Position>
            <AltitudeMeters>982</AltitudeMeters>
            <DistanceMeters>NAN</DistanceMeters>
          </Trackpoint>
          <Trackpoint>
            <Time>2019-10-04T16:20:36.000Z</Time>
            <Position>
              <LatitudeDegrees>42.847903110086917877197265625</LatitudeDegrees>
              <LongitudeDegrees>-5.66420408897101879119873046875</LongitudeDegrees>
            </Position>
            <AltitudeMeters>981.4000244140625</AltitudeMeters>
            <DistanceMeters>NAN</DistanceMeters>
          </Trackpoint>
          <Trackpoint>
            <Time>2019-10-04T16:20:38.000Z</Time>
            <Position>
              <LatitudeDegrees>42.84774108789861202239990234375</LatitudeDegrees>
              <LongitudeDegrees>-5.66423610784113407135009765625</LongitudeDegrees>
            </Position>
            <AltitudeMeters>980.5999755859375</AltitudeMeters>
            <DistanceMeters>NAN</DistanceMeters>
          </Trackpoint>
          <Trackpoint>
            <Time>2019-10-04T16:20:39.000Z</Time>
            <Position>
              <LatitudeDegrees>42.8476618789136409759521484375</LatitudeDegrees>
              <LongitudeDegrees>-5.66425890661776065826416015625</LongitudeDegrees>
            </Position>
            <AltitudeMeters>980.20001220703125</AltitudeMeters>
            <DistanceMeters>NAN</DistanceMeters>
          </Trackpoint>
          <Trackpoint>
            <Time>2019-10-04T16:20:41.000Z</Time>
            <Position>
              <LatitudeDegrees>42.84750781953334808349609375</LatitudeDegrees>
              <LongitudeDegrees>-5.66431322135031223297119140625</LongitudeDegrees>
            </Position>
            <AltitudeMeters>979.5999755859375</AltitudeMeters>
            <DistanceMeters>NAN</DistanceMeters>
          </Trackpoint>
          <Trackpoint>
            <Time>2019-10-04T16:20:45.000Z</Time>
            <Position>
              <LatitudeDegrees>42.84720246680080890655517578125</LatitudeDegrees>
              <LongitudeDegrees>-5.664440207183361053466796875</LongitudeDegrees>
            </Position>
            <AltitudeMeters>978.4000244140625</AltitudeMeters>
            <DistanceMeters>NAN</DistanceMeters>
          </Trackpoint>
          <Trackpoint>
            <Time>2019-10-04T16:20:46.000Z</Time>
            <Position>
              <LatitudeDegrees>42.8471294604241847991943359375</LatitudeDegrees>
              <LongitudeDegrees>-5.6644920073449611663818359375</LongitudeDegrees>
            </Position>
            <AltitudeMeters>978</AltitudeMeters>
            <DistanceMeters>NAN</DistanceMeters>
          </Trackpoint>
          <Trackpoint>
            <Time>2019-10-04T16:20:50.000Z</Time>
            <Position>
              <LatitudeDegrees>42.84684925340116024017333984375</LatitudeDegrees>
              <LongitudeDegrees>-5.6647367589175701141357421875</LongitudeDegrees>
            </Position>
            <AltitudeMeters>977.20001220703125</AltitudeMeters>
            <DistanceMeters>NAN</DistanceMeters>
          </Trackpoint>
          <Trackpoint>
            <Time>2019-10-04T16:20:55.000Z</Time>
            <Position>
              <LatitudeDegrees>42.84652881324291229248046875</LatitudeDegrees>
              <LongitudeDegrees>-5.665081255137920379638671875</LongitudeDegrees>
            </Position>
            <AltitudeMeters>977.20001220703125</AltitudeMeters>
            <DistanceMeters>NAN</DistanceMeters>
          </Trackpoint>
          <Trackpoint>
            <Time>2019-10-04T16:21:00.000Z</Time>
            <Position>
              <LatitudeDegrees>42.84620803780853748321533203125</LatitudeDegrees>
              <LongitudeDegrees>-5.66541393287479877471923828125</LongitudeDegrees>
            </Position>
            <AltitudeMeters>977.79998779296875</AltitudeMeters>
            <DistanceMeters>NAN</DistanceMeters>
          </Trackpoint>
          <Trackpoint>
            <Time>2019-10-04T16:21:03.000Z</Time>
            <Position>
              <LatitudeDegrees>42.84600486047565937042236328125</LatitudeDegrees>
              <LongitudeDegrees>-5.66558894701302051544189453125</LongitudeDegrees>
            </Position>
            <AltitudeMeters>978.5999755859375</AltitudeMeters>
            <DistanceMeters>NAN</DistanceMeters>
          </Trackpoint>
          <Trackpoint>
            <Time>2019-10-04T16:21:06.000Z</Time>
            <Position>
              <LatitudeDegrees>42.845756001770496368408203125</LatitudeDegrees>
              <LongitudeDegrees>-5.66572993062436580657958984375</LongitudeDegrees>
            </Position>
            <AltitudeMeters>978.79998779296875</AltitudeMeters>
            <DistanceMeters>NAN</DistanceMeters>
          </Trackpoint>
          <Trackpoint>
            <Time>2019-10-04T16:21:09.000Z</Time>
            <Position>
              <LatitudeDegrees>42.84552541561424732208251953125</LatitudeDegrees>
              <LongitudeDegrees>-5.6657885201275348663330078125</LongitudeDegrees>
            </Position>
            <AltitudeMeters>979.4000244140625</AltitudeMeters>
            <DistanceMeters>NAN</DistanceMeters>
          </Trackpoint>
          <Trackpoint>
            <Time>2019-10-04T16:21:10.000Z</Time>
            <Position>
              <LatitudeDegrees>42.8454418480396270751953125</LatitudeDegrees>
              <LongitudeDegrees>-5.6657977402210235595703125</LongitudeDegrees>
            </Position>
            <AltitudeMeters>979.79998779296875</AltitudeMeters>
            <DistanceMeters>NAN</DistanceMeters>
          </Trackpoint>
          <Trackpoint>
            <Time>2019-10-04T16:21:14.000Z</Time>
            <Position>
              <LatitudeDegrees>42.84511470235884189605712890625</LatitudeDegrees>
              <LongitudeDegrees>-5.66575960256159305572509765625</LongitudeDegrees>
            </Position>
            <AltitudeMeters>979.4000244140625</AltitudeMeters>
            <DistanceMeters>NAN</DistanceMeters>
          </Trackpoint>
          <Trackpoint>
            <Time>2019-10-04T16:21:19.000Z</Time>
            <Position>
              <LatitudeDegrees>42.84474573098123073577880859375</LatitudeDegrees>
              <LongitudeDegrees>-5.66556296311318874359130859375</LongitudeDegrees>
            </Position>
            <AltitudeMeters>979.79998779296875</AltitudeMeters>
            <DistanceMeters>NAN</DistanceMeters>
          </Trackpoint>
          <Trackpoint>
            <Time>2019-10-04T16:21:23.000Z</Time>
            <Position>
              <LatitudeDegrees>42.844504415988922119140625</LatitudeDegrees>
              <LongitudeDegrees>-5.665305890142917633056640625</LongitudeDegrees>
            </Position>
            <AltitudeMeters>980.79998779296875</AltitudeMeters>
            <DistanceMeters>NAN</DistanceMeters>
          </Trackpoint>
          <Trackpoint>
            <Time>2019-10-04T16:21:24.000Z</Time>
            <Position>
              <LatitudeDegrees>42.84445035271346569061279296875</LatitudeDegrees>
              <LongitudeDegrees>-5.66523221321403980255126953125</LongitudeDegrees>
            </Position>
            <AltitudeMeters>980.79998779296875</AltitudeMeters>
            <DistanceMeters>NAN</DistanceMeters>
          </Trackpoint>
          <Trackpoint>
            <Time>2019-10-04T16:21:27.000Z</Time>
            <Position>
              <LatitudeDegrees>42.84431540407240390777587890625</LatitudeDegrees>
              <LongitudeDegrees>-5.66498042084276676177978515625</LongitudeDegrees>
            </Position>
            <AltitudeMeters>981.79998779296875</AltitudeMeters>
            <DistanceMeters>NAN</DistanceMeters>
          </Trackpoint>
          <Trackpoint>
            <Time>2019-10-04T16:21:29.000Z</Time>
            <Position>
              <LatitudeDegrees>42.8442429006099700927734375</LatitudeDegrees>
              <LongitudeDegrees>-5.66479467786848545074462890625</LongitudeDegrees>
            </Position>
            <AltitudeMeters>982.5999755859375</AltitudeMeters>
            <DistanceMeters>NAN</DistanceMeters>
          </Trackpoint>
          <Trackpoint>
            <Time>2019-10-04T16:21:32.000Z</Time>
            <Position>
              <LatitudeDegrees>42.8441595844924449920654296875</LatitudeDegrees>
              <LongitudeDegrees>-5.664493851363658905029296875</LongitudeDegrees>
            </Position>
            <AltitudeMeters>983</AltitudeMeters>
            <DistanceMeters>NAN</DistanceMeters>
          </Trackpoint>
          <Trackpoint>
            <Time>2019-10-04T16:21:34.000Z</Time>
            <Position>
              <LatitudeDegrees>42.844118513166904449462890625</LatitudeDegrees>
              <LongitudeDegrees>-5.66428958438336849212646484375</LongitudeDegrees>
            </Position>
            <AltitudeMeters>983.4000244140625</AltitudeMeters>
            <DistanceMeters>NAN</DistanceMeters>
          </Trackpoint>
          <Trackpoint>
            <Time>2019-10-04T16:21:38.000Z</Time>
            <Position>
              <LatitudeDegrees>42.84405447542667388916015625</LatitudeDegrees>
              <LongitudeDegrees>-5.663879625499248504638671875</LongitudeDegrees>
            </Position>
            <AltitudeMeters>984</AltitudeMeters>
            <DistanceMeters>NAN</DistanceMeters>
          </Trackpoint>
          <Trackpoint>
            <Time>2019-10-04T16:21:41.000Z</Time>
            <Position>
              <LatitudeDegrees>42.8440157510340213775634765625</LatitudeDegrees>
              <LongitudeDegrees>-5.6635817326605319976806640625</LongitudeDegrees>
            </Position>
            <AltitudeMeters>985.20001220703125</AltitudeMeters>
            <DistanceMeters>NAN</DistanceMeters>
          </Trackpoint>
          <Trackpoint>
            <Time>2019-10-04T16:21:46.000Z</Time>
            <Position>
              <LatitudeDegrees>42.84396470524370670318603515625</LatitudeDegrees>
              <LongitudeDegrees>-5.6630882062017917633056640625</LongitudeDegrees>
            </Position>
            <AltitudeMeters>986.20001220703125</AltitudeMeters>
            <DistanceMeters>NAN</DistanceMeters>
          </Trackpoint>
          <Trackpoint>
            <Time>2019-10-04T16:21:50.000Z</Time>
            <Position>
              <LatitudeDegrees>42.84394576214253902435302734375</LatitudeDegrees>
              <LongitudeDegrees>-5.66269132308661937713623046875</LongitudeDegrees>
            </Position>
            <AltitudeMeters>986.4000244140625</AltitudeMeters>
            <DistanceMeters>NAN</DistanceMeters>
          </Trackpoint>
          <Trackpoint>
            <Time>2019-10-04T16:21:57.000Z</Time>
            <Position>
              <LatitudeDegrees>42.84393914043903350830078125</LatitudeDegrees>
              <LongitudeDegrees>-5.6620069406926631927490234375</LongitudeDegrees>
            </Position>
            <AltitudeMeters>986.5999755859375</AltitudeMeters>
            <DistanceMeters>NAN</DistanceMeters>
          </Trackpoint>
          <Trackpoint>
            <Time>2019-10-04T16:22:00.000Z</Time>
            <Position>
              <LatitudeDegrees>42.84393352456390857696533203125</LatitudeDegrees>
              <LongitudeDegrees>-5.661723800003528594970703125</LongitudeDegrees>
            </Position>
            <AltitudeMeters>987.20001220703125</AltitudeMeters>
            <DistanceMeters>NAN</DistanceMeters>
          </Trackpoint>
          <Trackpoint>
            <Time>2019-10-04T16:22:06.000Z</Time>
            <Position>
              <LatitudeDegrees>42.84393017180263996124267578125</LatitudeDegrees>
              <LongitudeDegrees>-5.6611526571214199066162109375</LongitudeDegrees>
            </Position>
            <AltitudeMeters>987.5999755859375</AltitudeMeters>
            <DistanceMeters>NAN</DistanceMeters>
          </Trackpoint>
          <Trackpoint>
            <Time>2019-10-04T16:22:14.000Z</Time>
            <Position>
              <LatitudeDegrees>42.8439225442707538604736328125</LatitudeDegrees>
              <LongitudeDegrees>-5.66042804159224033355712890625</LongitudeDegrees>
            </Position>
            <AltitudeMeters>987.79998779296875</AltitudeMeters>
            <DistanceMeters>NAN</DistanceMeters>
          </Trackpoint>
          <Trackpoint>
            <Time>2019-10-04T16:22:16.000Z</Time>
            <Position>
              <LatitudeDegrees>42.84392363391816616058349609375</LatitudeDegrees>
              <LongitudeDegrees>-5.66026375629007816314697265625</LongitudeDegrees>
            </Position>
            <AltitudeMeters>988.4000244140625</AltitudeMeters>
            <DistanceMeters>NAN</DistanceMeters>
          </Trackpoint>
          <Trackpoint>
            <Time>2019-10-04T16:22:25.000Z</Time>
            <Position>
              <LatitudeDegrees>42.8439091332256793975830078125</LatitudeDegrees>
              <LongitudeDegrees>-5.65954073332250118255615234375</LongitudeDegrees>
            </Position>
            <AltitudeMeters>988.4000244140625</AltitudeMeters>
            <DistanceMeters>NAN</DistanceMeters>
          </Trackpoint>
          <Trackpoint>
            <Time>2019-10-04T16:22:31.000Z</Time>
            <Position>
              <LatitudeDegrees>42.8439010865986347198486328125</LatitudeDegrees>
              <LongitudeDegrees>-5.65907151438295841217041015625</LongitudeDegrees>
            </Position>
            <AltitudeMeters>988.79998779296875</AltitudeMeters>
            <DistanceMeters>NAN</DistanceMeters>
          </Trackpoint>
          <Trackpoint>
            <Time>2019-10-04T16:22:35.000Z</Time>
            <Position>
              <LatitudeDegrees>42.84389228560030460357666015625</LatitudeDegrees>
              <LongitudeDegrees>-5.65876071341335773468017578125</LongitudeDegrees>
            </Position>
            <AltitudeMeters>988.5999755859375</AltitudeMeters>
            <DistanceMeters>NAN</DistanceMeters>
          </Trackpoint>
          <Trackpoint>
            <Time>2019-10-04T16:22:36.000Z</Time>
            <Position>
              <LatitudeDegrees>42.84389027394354343414306640625</LatitudeDegrees>
              <LongitudeDegrees>-5.6586836837232112884521484375</LongitudeDegrees>
            </Position>
            <AltitudeMeters>988.5999755859375</AltitudeMeters>
            <DistanceMeters>NAN</DistanceMeters>
          </Trackpoint>
          <Trackpoint>
            <Time>2019-10-04T16:22:41.000Z</Time>
            <Position>
              <LatitudeDegrees>42.84388541243970394134521484375</LatitudeDegrees>
              <LongitudeDegrees>-5.65828093327581882476806640625</LongitudeDegrees>
            </Position>
            <AltitudeMeters>988.20001220703125</AltitudeMeters>
            <DistanceMeters>NAN</DistanceMeters>
          </Trackpoint>
          <Trackpoint>
            <Time>2019-10-04T16:22:46.000Z</Time>
            <Position>
              <LatitudeDegrees>42.843865714967250823974609375</LatitudeDegrees>
              <LongitudeDegrees>-5.65788430161774158477783203125</LongitudeDegrees>
            </Position>
            <AltitudeMeters>988.20001220703125</AltitudeMeters>
            <DistanceMeters>NAN</DistanceMeters>
          </Trackpoint>
          <Trackpoint>
            <Time>2019-10-04T16:22:54.000Z</Time>
            <Position>
              <LatitudeDegrees>42.8438122384250164031982421875</LatitudeDegrees>
              <LongitudeDegrees>-5.6572537310421466827392578125</LongitudeDegrees>
            </Position>
            <AltitudeMeters>987.20001220703125</AltitudeMeters>
            <DistanceMeters>NAN</DistanceMeters>
          </Trackpoint>
          <Trackpoint>
            <Time>2019-10-04T16:22:56.000Z</Time>
            <Position>
              <LatitudeDegrees>42.8437884338200092315673828125</LatitudeDegrees>
              <LongitudeDegrees>-5.65709824673831462860107421875</LongitudeDegrees>
            </Position>
            <AltitudeMeters>987</AltitudeMeters>
            <DistanceMeters>NAN</DistanceMeters>
          </Trackpoint>
          <Trackpoint>
            <Time>2019-10-04T16:23:00.000Z</Time>
            <Position>
              <LatitudeDegrees>42.843741662800312042236328125</LatitudeDegrees>
              <LongitudeDegrees>-5.65678627230226993560791015625</LongitudeDegrees>
            </Position>
            <AltitudeMeters>986.20001220703125</AltitudeMeters>
            <DistanceMeters>NAN</DistanceMeters>
          </Trackpoint>
          <Trackpoint>
            <Time>2019-10-04T16:23:04.000Z</Time>
            <Position>
              <LatitudeDegrees>42.84368994645774364471435546875</LatitudeDegrees>
              <LongitudeDegrees>-5.6564688496291637420654296875</LongitudeDegrees>
            </Position>
            <AltitudeMeters>985.79998779296875</AltitudeMeters>
            <DistanceMeters>NAN</DistanceMeters>
          </Trackpoint>
          <Trackpoint>
            <Time>2019-10-04T16:23:11.000Z</Time>
            <Position>
              <LatitudeDegrees>42.843586765229701995849609375</LatitudeDegrees>
              <LongitudeDegrees>-5.65592863596975803375244140625</LongitudeDegrees>
            </Position>
            <AltitudeMeters>984.79998779296875</AltitudeMeters>
            <DistanceMeters>NAN</DistanceMeters>
          </Trackpoint>
          <Trackpoint>
            <Time>2019-10-04T16:23:13.000Z</Time>
            <Position>
              <LatitudeDegrees>42.843541167676448822021484375</LatitudeDegrees>
              <LongitudeDegrees>-5.6557770073413848876953125</LongitudeDegrees>
            </Position>
            <AltitudeMeters>984.5999755859375</AltitudeMeters>
            <DistanceMeters>NAN</DistanceMeters>
          </Trackpoint>
          <Trackpoint>
            <Time>2019-10-04T16:23:19.000Z</Time>
            <Position>
              <LatitudeDegrees>42.84335500560700893402099609375</LatitudeDegrees>
              <LongitudeDegrees>-5.65534106455743312835693359375</LongitudeDegrees>
            </Position>
            <AltitudeMeters>984.20001220703125</AltitudeMeters>
            <DistanceMeters>NAN</DistanceMeters>
          </Trackpoint>
          <Trackpoint>
            <Time>2019-10-04T16:23:22.000Z</Time>
            <Position>
              <LatitudeDegrees>42.84322760067880153656005859375</LatitudeDegrees>
              <LongitudeDegrees>-5.655139982700347900390625</LongitudeDegrees>
            </Position>
            <AltitudeMeters>983.79998779296875</AltitudeMeters>
            <DistanceMeters>NAN</DistanceMeters>
          </Trackpoint>
          <Trackpoint>
            <Time>2019-10-04T16:23:24.000Z</Time>
            <Position>
              <LatitudeDegrees>42.8431289456784725189208984375</LatitudeDegrees>
              <LongitudeDegrees>-5.65501567907631397247314453125</LongitudeDegrees>
            </Position>
            <AltitudeMeters>984</AltitudeMeters>
            <DistanceMeters>NAN</DistanceMeters>
          </Trackpoint>
          <Trackpoint>
            <Time>2019-10-04T16:23:30.000Z</Time>
            <Position>
              <LatitudeDegrees>42.84277263097465038299560546875</LatitudeDegrees>
              <LongitudeDegrees>-5.6547094881534576416015625</LongitudeDegrees>
            </Position>
            <AltitudeMeters>983.5999755859375</AltitudeMeters>
            <DistanceMeters>NAN</DistanceMeters>
          </Trackpoint>
          <Trackpoint>
            <Time>2019-10-04T16:23:36.000Z</Time>
            <Position>
              <LatitudeDegrees>42.84233174286782741546630859375</LatitudeDegrees>
              <LongitudeDegrees>-5.65455115400254726409912109375</LongitudeDegrees>
            </Position>
            <AltitudeMeters>984</AltitudeMeters>
            <DistanceMeters>NAN</DistanceMeters>
          </Trackpoint>
          <Trackpoint>
            <Time>2019-10-04T16:23:40.000Z</Time>
            <Position>
              <LatitudeDegrees>42.84200929105281829833984375</LatitudeDegrees>
              <LongitudeDegrees>-5.6545611284673213958740234375</LongitudeDegrees>
            </Position>
            <AltitudeMeters>983.79998779296875</AltitudeMeters>
            <DistanceMeters>NAN</DistanceMeters>
          </Trackpoint>
          <Trackpoint>
            <Time>2019-10-04T16:23:41.000Z</Time>
            <Position>
              <LatitudeDegrees>42.84192807041108608245849609375</LatitudeDegrees>
              <LongitudeDegrees>-5.654576718807220458984375</LongitudeDegrees>
            </Position>
            <AltitudeMeters>983.5999755859375</AltitudeMeters>
            <DistanceMeters>NAN</DistanceMeters>
          </Trackpoint>
          <Trackpoint>
            <Time>2019-10-04T16:23:48.000Z</Time>
            <Position>
              <LatitudeDegrees>42.84135391004383563995361328125</LatitudeDegrees>
              <LongitudeDegrees>-5.654746033251285552978515625</LongitudeDegrees>
            </Position>
            <AltitudeMeters>983.79998779296875</AltitudeMeters>
            <DistanceMeters>NAN</DistanceMeters>
          </Trackpoint>
          <Trackpoint>
            <Time>2019-10-04T16:23:54.000Z</Time>
            <Position>
              <LatitudeDegrees>42.8408460505306720733642578125</LatitudeDegrees>
              <LongitudeDegrees>-5.65492398105561733245849609375</LongitudeDegrees>
            </Position>
            <AltitudeMeters>984.79998779296875</AltitudeMeters>
            <DistanceMeters>NAN</DistanceMeters>
          </Trackpoint>
          <Trackpoint>
            <Time>2019-10-04T16:23:55.000Z</Time>
            <Position>
              <LatitudeDegrees>42.84076072275638580322265625</LatitudeDegrees>
              <LongitudeDegrees>-5.65495214425027370452880859375</LongitudeDegrees>
            </Position>
            <AltitudeMeters>985</AltitudeMeters>
            <DistanceMeters>NAN</DistanceMeters>
          </Trackpoint>
          <Trackpoint>
            <Time>2019-10-04T16:23:58.000Z</Time>
            <Position>
              <LatitudeDegrees>42.84050214104354381561279296875</LatitudeDegrees>
              <LongitudeDegrees>-5.65504048950970172882080078125</LongitudeDegrees>
            </Position>
            <AltitudeMeters>985.79998779296875</AltitudeMeters>
            <DistanceMeters>NAN</DistanceMeters>
          </Trackpoint>
          <Trackpoint>
            <Time>2019-10-04T16:24:00.000Z</Time>
            <Position>
              <LatitudeDegrees>42.84033332951366901397705078125</LatitudeDegrees>
              <LongitudeDegrees>-5.65510176122188568115234375</LongitudeDegrees>
            </Position>
            <AltitudeMeters>986.79998779296875</AltitudeMeters>
            <DistanceMeters>NAN</DistanceMeters>
          </Trackpoint>
          <Trackpoint>
            <Time>2019-10-04T16:24:01.000Z</Time>
            <Position>
              <LatitudeDegrees>42.8402485884726047515869140625</LatitudeDegrees>
              <LongitudeDegrees>-5.65512816421687602996826171875</LongitudeDegrees>
            </Position>
            <AltitudeMeters>987</AltitudeMeters>
            <DistanceMeters>NAN</DistanceMeters>
          </Trackpoint>
          <Trackpoint>
            <Time>2019-10-04T16:24:05.000Z</Time>
            <Position>
              <LatitudeDegrees>42.8399123065173625946044921875</LatitudeDegrees>
              <LongitudeDegrees>-5.6552430801093578338623046875</LongitudeDegrees>
            </Position>
            <AltitudeMeters>988.20001220703125</AltitudeMeters>
            <DistanceMeters>NAN</DistanceMeters>
          </Trackpoint>
          <Trackpoint>
            <Time>2019-10-04T16:24:08.000Z</Time>
            <Position>
              <LatitudeDegrees>42.83966579474508762359619140625</LatitudeDegrees>
              <LongitudeDegrees>-5.65532363019883632659912109375</LongitudeDegrees>
            </Position>
            <AltitudeMeters>989.4000244140625</AltitudeMeters>
            <DistanceMeters>NAN</DistanceMeters>
          </Trackpoint>
          <Trackpoint>
            <Time>2019-10-04T16:24:11.000Z</Time>
            <Position>
              <LatitudeDegrees>42.839419953525066375732421875</LatitudeDegrees>
              <LongitudeDegrees>-5.65540795214474201202392578125</LongitudeDegrees>
            </Position>
            <AltitudeMeters>990.20001220703125</AltitudeMeters>
            <DistanceMeters>NAN</DistanceMeters>
          </Trackpoint>
          <Trackpoint>
            <Time>2019-10-04T16:24:12.000Z</Time>
            <Position>
              <LatitudeDegrees>42.83933973871171474456787109375</LatitudeDegrees>
              <LongitudeDegrees>-5.65543561242520809173583984375</LongitudeDegrees>
            </Position>
            <AltitudeMeters>990.5999755859375</AltitudeMeters>
            <DistanceMeters>NAN</DistanceMeters>
          </Trackpoint>
          <Trackpoint>
            <Time>2019-10-04T16:24:14.000Z</Time>
            <Position>
              <LatitudeDegrees>42.839179225265979766845703125</LatitudeDegrees>
              <LongitudeDegrees>-5.6554864905774593353271484375</LongitudeDegrees>
            </Position>
            <AltitudeMeters>991.5999755859375</AltitudeMeters>
            <DistanceMeters>NAN</DistanceMeters>
          </Trackpoint>
          <Trackpoint>
            <Time>2019-10-04T16:24:17.000Z</Time>
            <Position>
              <LatitudeDegrees>42.8389473818242549896240234375</LatitudeDegrees>
              <LongitudeDegrees>-5.655570812523365020751953125</LongitudeDegrees>
            </Position>
            <AltitudeMeters>992.79998779296875</AltitudeMeters>
            <DistanceMeters>NAN</DistanceMeters>
          </Trackpoint>
          <Trackpoint>
            <Time>2019-10-04T16:24:20.000Z</Time>
            <Position>
              <LatitudeDegrees>42.83872148953378200531005859375</LatitudeDegrees>
              <LongitudeDegrees>-5.65564499236643314361572265625</LongitudeDegrees>
            </Position>
            <AltitudeMeters>993.79998779296875</AltitudeMeters>
            <DistanceMeters>NAN</DistanceMeters>
          </Trackpoint>
          <Trackpoint>
            <Time>2019-10-04T16:24:22.000Z</Time>
            <Position>
              <LatitudeDegrees>42.8385765664279460906982421875</LatitudeDegrees>
              <LongitudeDegrees>-5.655693523585796356201171875</LongitudeDegrees>
            </Position>
            <AltitudeMeters>994.79998779296875</AltitudeMeters>
            <DistanceMeters>NAN</DistanceMeters>
          </Trackpoint>
          <Trackpoint>
            <Time>2019-10-04T16:24:23.000Z</Time>
            <Position>
              <LatitudeDegrees>42.8385064937174320220947265625</LatitudeDegrees>
              <LongitudeDegrees>-5.65571221522986888885498046875</LongitudeDegrees>
            </Position>
            <AltitudeMeters>995.4000244140625</AltitudeMeters>
            <DistanceMeters>NAN</DistanceMeters>
          </Trackpoint>
          <Trackpoint>
            <Time>2019-10-04T16:24:27.000Z</Time>
            <Position>
              <LatitudeDegrees>42.83821958117187023162841796875</LatitudeDegrees>
              <LongitudeDegrees>-5.65576300956308841705322265625</LongitudeDegrees>
            </Position>
            <AltitudeMeters>996.5999755859375</AltitudeMeters>
            <DistanceMeters>NAN</DistanceMeters>
          </Trackpoint>
          <Trackpoint>
            <Time>2019-10-04T16:24:29.000Z</Time>
            <Position>
              <LatitudeDegrees>42.838076837360858917236328125</LatitudeDegrees>
              <LongitudeDegrees>-5.655777342617511749267578125</LongitudeDegrees>
            </Position>
            <AltitudeMeters>996.79998779296875</AltitudeMeters>
            <DistanceMeters>NAN</DistanceMeters>
          </Trackpoint>
          <Trackpoint>
            <Time>2019-10-04T16:24:37.000Z</Time>
            <Position>
              <LatitudeDegrees>42.8374912776052951812744140625</LatitudeDegrees>
              <LongitudeDegrees>-5.65578480251133441925048828125</LongitudeDegrees>
            </Position>
            <AltitudeMeters>996.79998779296875</AltitudeMeters>
            <DistanceMeters>NAN</DistanceMeters>
          </Trackpoint>
          <Trackpoint>
            <Time>2019-10-04T16:24:43.000Z</Time>
            <Position>
              <LatitudeDegrees>42.83705055713653564453125</LatitudeDegrees>
              <LongitudeDegrees>-5.6557892449200153350830078125</LongitudeDegrees>
            </Position>
            <AltitudeMeters>995.4000244140625</AltitudeMeters>
            <DistanceMeters>NAN</DistanceMeters>
          </Trackpoint>
          <Trackpoint>
            <Time>2019-10-04T16:24:46.000Z</Time>
            <Position>
              <LatitudeDegrees>42.83682365901768207550048828125</LatitudeDegrees>
              <LongitudeDegrees>-5.6557664461433887481689453125</LongitudeDegrees>
            </Position>
            <AltitudeMeters>995.4000244140625</AltitudeMeters>
            <DistanceMeters>NAN</DistanceMeters>
          </Trackpoint>
          <Trackpoint>
            <Time>2019-10-04T16:24:51.000Z</Time>
            <Position>
              <LatitudeDegrees>42.83644295297563076019287109375</LatitudeDegrees>
              <LongitudeDegrees>-5.65570182166993618011474609375</LongitudeDegrees>
            </Position>
            <AltitudeMeters>996</AltitudeMeters>
            <DistanceMeters>NAN</DistanceMeters>
          </Trackpoint>
          <Trackpoint>
            <Time>2019-10-04T16:24:53.000Z</Time>
            <Position>
              <LatitudeDegrees>42.83629216253757476806640625</LatitudeDegrees>
              <LongitudeDegrees>-5.6556645222008228302001953125</LongitudeDegrees>
            </Position>
            <AltitudeMeters>996.5999755859375</AltitudeMeters>
            <DistanceMeters>NAN</DistanceMeters>
          </Trackpoint>
          <Trackpoint>
            <Time>2019-10-04T16:24:54.000Z</Time>
            <Position>
              <LatitudeDegrees>42.8362162224948406219482421875</LatitudeDegrees>
              <LongitudeDegrees>-5.65564985387027263641357421875</LongitudeDegrees>
            </Position>
            <AltitudeMeters>997</AltitudeMeters>
            <DistanceMeters>NAN</DistanceMeters>
          </Trackpoint>
          <Trackpoint>
            <Time>2019-10-04T16:24:59.000Z</Time>
            <Position>
              <LatitudeDegrees>42.8358422219753265380859375</LatitudeDegrees>
              <LongitudeDegrees>-5.65555681474506855010986328125</LongitudeDegrees>
            </Position>
            <AltitudeMeters>997.79998779296875</AltitudeMeters>
            <DistanceMeters>NAN</DistanceMeters>
          </Trackpoint>
          <Trackpoint>
            <Time>2019-10-04T16:25:01.000Z</Time>
            <Position>
              <LatitudeDegrees>42.83568992279469966888427734375</LatitudeDegrees>
              <LongitudeDegrees>-5.65551507286727428436279296875</LongitudeDegrees>
            </Position>
            <AltitudeMeters>998.5999755859375</AltitudeMeters>
            <DistanceMeters>NAN</DistanceMeters>
          </Trackpoint>
          <Trackpoint>
            <Time>2019-10-04T16:25:03.000Z</Time>
            <Position>
              <LatitudeDegrees>42.83553720451891422271728515625</LatitudeDegrees>
              <LongitudeDegrees>-5.65547198988497257232666015625</LongitudeDegrees>
            </Position>
            <AltitudeMeters>999</AltitudeMeters>
            <DistanceMeters>NAN</DistanceMeters>
          </Trackpoint>
          <Trackpoint>
            <Time>2019-10-04T16:25:07.000Z</Time>
            <Position>
              <LatitudeDegrees>42.83522942103445529937744140625</LatitudeDegrees>
              <LongitudeDegrees>-5.655391775071620941162109375</LongitudeDegrees>
            </Position>
            <AltitudeMeters>1000.4000244140625</AltitudeMeters>
            <DistanceMeters>NAN</DistanceMeters>
          </Trackpoint>
          <Trackpoint>
            <Time>2019-10-04T16:25:11.000Z</Time>
            <Position>
              <LatitudeDegrees>42.83492289483547210693359375</LatitudeDegrees>
              <LongitudeDegrees>-5.65531692467629909515380859375</LongitudeDegrees>
            </Position>
            <AltitudeMeters>1000.79998779296875</AltitudeMeters>
            <DistanceMeters>NAN</DistanceMeters>
          </Trackpoint>
          <Trackpoint>
            <Time>2019-10-04T16:25:17.000Z</Time>
            <Position>
              <LatitudeDegrees>42.83447253517806529998779296875</LatitudeDegrees>
              <LongitudeDegrees>-5.65520158968865871429443359375</LongitudeDegrees>
            </Position>
            <AltitudeMeters>1001.5999755859375</AltitudeMeters>
            <DistanceMeters>NAN</DistanceMeters>
          </Trackpoint>
          <Trackpoint>
            <Time>2019-10-04T16:25:21.000Z</Time>
            <Position>
              <LatitudeDegrees>42.8341707028448581695556640625</LatitudeDegrees>
              <LongitudeDegrees>-5.6551264040172100067138671875</LongitudeDegrees>
            </Position>
            <AltitudeMeters>1002</AltitudeMeters>
            <DistanceMeters>NAN</DistanceMeters>
          </Trackpoint>
          <Trackpoint>
            <Time>2019-10-04T16:25:28.000Z</Time>
            <Position>
              <LatitudeDegrees>42.83363635651767253875732421875</LatitudeDegrees>
              <LongitudeDegrees>-5.6549899466335773468017578125</LongitudeDegrees>
            </Position>
            <AltitudeMeters>1002.4000244140625</AltitudeMeters>
            <DistanceMeters>NAN</DistanceMeters>
          </Trackpoint>
          <Trackpoint>
            <Time>2019-10-04T16:25:29.000Z</Time>
            <Position>
              <LatitudeDegrees>42.8335574828088283538818359375</LatitudeDegrees>
              <LongitudeDegrees>-5.6549721769988536834716796875</LongitudeDegrees>
            </Position>
            <AltitudeMeters>1002.5999755859375</AltitudeMeters>
            <DistanceMeters>NAN</DistanceMeters>
          </Trackpoint>
          <Trackpoint>
            <Time>2019-10-04T16:25:31.000Z</Time>
            <Position>
              <LatitudeDegrees>42.83340602181851863861083984375</LatitudeDegrees>
              <LongitudeDegrees>-5.65493680536746978759765625</LongitudeDegrees>
            </Position>
            <AltitudeMeters>1002.79998779296875</AltitudeMeters>
            <DistanceMeters>NAN</DistanceMeters>
          </Trackpoint>
          <Trackpoint>
            <Time>2019-10-04T16:25:38.000Z</Time>
            <Position>
              <LatitudeDegrees>42.8328798897564411163330078125</LatitudeDegrees>
              <LongitudeDegrees>-5.654810406267642974853515625</LongitudeDegrees>
            </Position>
            <AltitudeMeters>1003.5999755859375</AltitudeMeters>
            <DistanceMeters>NAN</DistanceMeters>
          </Trackpoint>
          <Trackpoint>
            <Time>2019-10-04T16:25:39.000Z</Time>
            <Position>
              <LatitudeDegrees>42.83279967494308948516845703125</LatitudeDegrees>
              <LongitudeDegrees>-5.65478903241455554962158203125</LongitudeDegrees>
            </Position>
            <AltitudeMeters>1003.79998779296875</AltitudeMeters>
            <DistanceMeters>NAN</DistanceMeters>
          </Trackpoint>
          <Trackpoint>
            <Time>2019-10-04T16:25:46.000Z</Time>
            <Position>
              <LatitudeDegrees>42.83228888176381587982177734375</LatitudeDegrees>
              <LongitudeDegrees>-5.6546526588499546051025390625</LongitudeDegrees>
            </Position>
            <AltitudeMeters>1003.5999755859375</AltitudeMeters>
            <DistanceMeters>NAN</DistanceMeters>
          </Trackpoint>
          <Trackpoint>
            <Time>2019-10-04T16:25:54.000Z</Time>
            <Position>
              <LatitudeDegrees>42.8317251987755298614501953125</LatitudeDegrees>
              <LongitudeDegrees>-5.6544447876513004302978515625</LongitudeDegrees>
            </Position>
            <AltitudeMeters>1005</AltitudeMeters>
            <DistanceMeters>NAN</DistanceMeters>
          </Trackpoint>
          <Trackpoint>
            <Time>2019-10-04T16:25:55.000Z</Time>
            <Position>
              <LatitudeDegrees>42.8316526114940643310546875</LatitudeDegrees>
              <LongitudeDegrees>-5.6544062308967113494873046875</LongitudeDegrees>
            </Position>
            <AltitudeMeters>1005.20001220703125</AltitudeMeters>
            <DistanceMeters>NAN</DistanceMeters>
          </Trackpoint>
          <Trackpoint>
            <Time>2019-10-04T16:26:00.000Z</Time>
            <Position>
              <LatitudeDegrees>42.83133636228740215301513671875</LatitudeDegrees>
              <LongitudeDegrees>-5.6542124412953853607177734375</LongitudeDegrees>
            </Position>
            <AltitudeMeters>1006.20001220703125</AltitudeMeters>
            <DistanceMeters>NAN</DistanceMeters>
          </Trackpoint>
          <Trackpoint>
            <Time>2019-10-04T16:26:01.000Z</Time>
            <Position>
              <LatitudeDegrees>42.83126712776720523834228515625</LatitudeDegrees>
              <LongitudeDegrees>-5.6541594676673412322998046875</LongitudeDegrees>
            </Position>
            <AltitudeMeters>1006.4000244140625</AltitudeMeters>
            <DistanceMeters>NAN</DistanceMeters>
          </Trackpoint>
          <Trackpoint>
            <Time>2019-10-04T16:26:05.000Z</Time>
            <Position>
              <LatitudeDegrees>42.8310196101665496826171875</LatitudeDegrees>
              <LongitudeDegrees>-5.65394698642194271087646484375</LongitudeDegrees>
            </Position>
            <AltitudeMeters>1007.20001220703125</AltitudeMeters>
            <DistanceMeters>NAN</DistanceMeters>
          </Trackpoint>
          <Trackpoint>
            <Time>2019-10-04T16:26:09.000Z</Time>
            <Position>
              <LatitudeDegrees>42.83079254440963268280029296875</LatitudeDegrees>
              <LongitudeDegrees>-5.65370759926736354827880859375</LongitudeDegrees>
            </Position>
            <AltitudeMeters>1007.4000244140625</AltitudeMeters>
            <DistanceMeters>NAN</DistanceMeters>
          </Trackpoint>
          <Trackpoint>
            <Time>2019-10-04T16:26:15.000Z</Time>
            <Position>
              <LatitudeDegrees>42.83047419972717761993408203125</LatitudeDegrees>
              <LongitudeDegrees>-5.653288252651691436767578125</LongitudeDegrees>
            </Position>
            <AltitudeMeters>1008.20001220703125</AltitudeMeters>
            <DistanceMeters>NAN</DistanceMeters>
          </Trackpoint>
          <Trackpoint>
            <Time>2019-10-04T16:26:16.000Z</Time>
            <Position>
              <LatitudeDegrees>42.8304290212690830230712890625</LatitudeDegrees>
              <LongitudeDegrees>-5.6532227061688899993896484375</LongitudeDegrees>
            </Position>
            <AltitudeMeters>1008.4000244140625</AltitudeMeters>
            <DistanceMeters>NAN</DistanceMeters>
          </Trackpoint>
          <Trackpoint>
            <Time>2019-10-04T16:26:23.000Z</Time>
            <Position>
              <LatitudeDegrees>42.8301333077251911163330078125</LatitudeDegrees>
              <LongitudeDegrees>-5.65267226658761501312255859375</LongitudeDegrees>
            </Position>
            <AltitudeMeters>1008.79998779296875</AltitudeMeters>
            <DistanceMeters>NAN</DistanceMeters>
          </Trackpoint>
          <Trackpoint>
            <Time>2019-10-04T16:26:28.000Z</Time>
            <Position>
              <LatitudeDegrees>42.829965166747570037841796875</LatitudeDegrees>
              <LongitudeDegrees>-5.6522579491138458251953125</LongitudeDegrees>
            </Position>
            <AltitudeMeters>1009.4000244140625</AltitudeMeters>
            <DistanceMeters>NAN</DistanceMeters>
          </Trackpoint>
          <Trackpoint>
            <Time>2019-10-04T16:26:31.000Z</Time>
            <Position>
              <LatitudeDegrees>42.82988344319164752960205078125</LatitudeDegrees>
              <LongitudeDegrees>-5.65198411233723163604736328125</LongitudeDegrees>
            </Position>
            <AltitudeMeters>1009.4000244140625</AltitudeMeters>
            <DistanceMeters>NAN</DistanceMeters>
          </Trackpoint>
          <Trackpoint>
            <Time>2019-10-04T16:26:39.000Z</Time>
            <Position>
              <LatitudeDegrees>42.82969635911285877227783203125</LatitudeDegrees>
              <LongitudeDegrees>-5.6512392126023769378662109375</LongitudeDegrees>
            </Position>
            <AltitudeMeters>1009.20001220703125</AltitudeMeters>
            <DistanceMeters>NAN</DistanceMeters>
          </Trackpoint>
          <Trackpoint>
            <Time>2019-10-04T16:26:42.000Z</Time>
            <Position>
              <LatitudeDegrees>42.82963533885776996612548828125</LatitudeDegrees>
              <LongitudeDegrees>-5.65094023011624813079833984375</LongitudeDegrees>
            </Position>
            <AltitudeMeters>1009.4000244140625</AltitudeMeters>
            <DistanceMeters>NAN</DistanceMeters>
          </Trackpoint>
          <Trackpoint>
            <Time>2019-10-04T16:26:50.000Z</Time>
            <Position>
              <LatitudeDegrees>42.82946703024208545684814453125</LatitudeDegrees>
              <LongitudeDegrees>-5.650168843567371368408203125</LongitudeDegrees>
            </Position>
            <AltitudeMeters>1009.5999755859375</AltitudeMeters>
            <DistanceMeters>NAN</DistanceMeters>
          </Trackpoint>
          <Trackpoint>
            <Time>2019-10-04T16:26:53.000Z</Time>
            <Position>
              <LatitudeDegrees>42.82940156757831573486328125</LatitudeDegrees>
              <LongitudeDegrees>-5.64987723715603351593017578125</LongitudeDegrees>
            </Position>
            <AltitudeMeters>1009.4000244140625</AltitudeMeters>
            <DistanceMeters>NAN</DistanceMeters>
          </Trackpoint>
          <Trackpoint>
            <Time>2019-10-04T16:27:00.000Z</Time>
            <Position>
              <LatitudeDegrees>42.82925982959568500518798828125</LatitudeDegrees>
              <LongitudeDegrees>-5.64924306236207485198974609375</LongitudeDegrees>
            </Position>
            <AltitudeMeters>1008</AltitudeMeters>
            <DistanceMeters>NAN</DistanceMeters>
          </Trackpoint>
          <Trackpoint>
            <Time>2019-10-04T16:27:03.000Z</Time>
            <Position>
              <LatitudeDegrees>42.82919998280704021453857421875</LatitudeDegrees>
              <LongitudeDegrees>-5.6489722430706024169921875</LongitudeDegrees>
            </Position>
            <AltitudeMeters>1007.5999755859375</AltitudeMeters>
            <DistanceMeters>NAN</DistanceMeters>
          </Trackpoint>
          <Trackpoint>
            <Time>2019-10-04T16:27:06.000Z</Time>
            <Position>
              <LatitudeDegrees>42.82913678325712680816650390625</LatitudeDegrees>
              <LongitudeDegrees>-5.64870603382587432861328125</LongitudeDegrees>
            </Position>
            <AltitudeMeters>1007</AltitudeMeters>
            <DistanceMeters>NAN</DistanceMeters>
          </Trackpoint>
          <Trackpoint>
            <Time>2019-10-04T16:27:11.000Z</Time>
            <Position>
              <LatitudeDegrees>42.82903569750487804412841796875</LatitudeDegrees>
              <LongitudeDegrees>-5.64828534610569477081298828125</LongitudeDegrees>
            </Position>
            <AltitudeMeters>1005.5999755859375</AltitudeMeters>
            <DistanceMeters>NAN</DistanceMeters>
          </Trackpoint>
          <Trackpoint>
            <Time>2019-10-04T16:27:15.000Z</Time>
            <Position>
              <LatitudeDegrees>42.82895355485379695892333984375</LatitudeDegrees>
              <LongitudeDegrees>-5.6479528360068798065185546875</LongitudeDegrees>
            </Position>
            <AltitudeMeters>1003.79998779296875</AltitudeMeters>
            <DistanceMeters>NAN</DistanceMeters>
          </Trackpoint>
          <Trackpoint>
            <Time>2019-10-04T16:27:21.000Z</Time>
            <Position>
              <LatitudeDegrees>42.82880720682442188262939453125</LatitudeDegrees>
              <LongitudeDegrees>-5.64751538448035717010498046875</LongitudeDegrees>
            </Position>
            <AltitudeMeters>1002.20001220703125</AltitudeMeters>
            <DistanceMeters>NAN</DistanceMeters>
          </Trackpoint>
          <Trackpoint>
            <Time>2019-10-04T16:27:22.000Z</Time>
            <Position>
              <LatitudeDegrees>42.8287811391055583953857421875</LatitudeDegrees>
              <LongitudeDegrees>-5.64744698815047740936279296875</LongitudeDegrees>
            </Position>
            <AltitudeMeters>1001.79998779296875</AltitudeMeters>
            <DistanceMeters>NAN</DistanceMeters>
          </Trackpoint>
          <Trackpoint>
            <Time>2019-10-04T16:27:25.000Z</Time>
            <Position>
              <LatitudeDegrees>42.82869589515030384063720703125</LatitudeDegrees>
              <LongitudeDegrees>-5.647251941263675689697265625</LongitudeDegrees>
            </Position>
            <AltitudeMeters>1001.20001220703125</AltitudeMeters>
            <DistanceMeters>NAN</DistanceMeters>
          </Trackpoint>
          <Trackpoint>
            <Time>2019-10-04T16:27:27.000Z</Time>
            <Position>
              <LatitudeDegrees>42.82862917520105838775634765625</LatitudeDegrees>
              <LongitudeDegrees>-5.64712830819189548492431640625</LongitudeDegrees>
            </Position>
            <AltitudeMeters>1000.4000244140625</AltitudeMeters>
            <DistanceMeters>NAN</DistanceMeters>
          </Trackpoint>
          <Trackpoint>
            <Time>2019-10-04T16:27:28.000Z</Time>
            <Position>
              <LatitudeDegrees>42.82859346829354763031005859375</LatitudeDegrees>
              <LongitudeDegrees>-5.64706577919423580169677734375</LongitudeDegrees>
            </Position>
            <AltitudeMeters>1000.20001220703125</AltitudeMeters>
            <DistanceMeters>NAN</DistanceMeters>
          </Trackpoint>
          <Trackpoint>
            <Time>2019-10-04T16:27:32.000Z</Time>
            <Position>
              <LatitudeDegrees>42.82843773253262042999267578125</LatitudeDegrees>
              <LongitudeDegrees>-5.64682018943130970001220703125</LongitudeDegrees>
            </Position>
            <AltitudeMeters>999.4000244140625</AltitudeMeters>
            <DistanceMeters>NAN</DistanceMeters>
          </Trackpoint>
          <Trackpoint>
            <Time>2019-10-04T16:27:35.000Z</Time>
            <Position>
              <LatitudeDegrees>42.82831066288053989410400390625</LatitudeDegrees>
              <LongitudeDegrees>-5.646648444235324859619140625</LongitudeDegrees>
            </Position>
            <AltitudeMeters>999.20001220703125</AltitudeMeters>
            <DistanceMeters>NAN</DistanceMeters>
          </Trackpoint>
          <Trackpoint>
            <Time>2019-10-04T16:27:36.000Z</Time>
            <Position>
              <LatitudeDegrees>42.828267328441143035888671875</LatitudeDegrees>
              <LongitudeDegrees>-5.64659035764634609222412109375</LongitudeDegrees>
            </Position>
            <AltitudeMeters>999</AltitudeMeters>
            <DistanceMeters>NAN</DistanceMeters>
          </Trackpoint>
          <Trackpoint>
            <Time>2019-10-04T16:27:43.000Z</Time>
            <Position>
              <LatitudeDegrees>42.8279318846762180328369140625</LatitudeDegrees>
              <LongitudeDegrees>-5.64623362384736537933349609375</LongitudeDegrees>
            </Position>
            <AltitudeMeters>998.20001220703125</AltitudeMeters>
            <DistanceMeters>NAN</DistanceMeters>
          </Trackpoint>
          <Trackpoint>
            <Time>2019-10-04T16:27:44.000Z</Time>
            <Position>
              <LatitudeDegrees>42.827879749238491058349609375</LatitudeDegrees>
              <LongitudeDegrees>-5.64618878066539764404296875</LongitudeDegrees>
            </Position>
            <AltitudeMeters>998</AltitudeMeters>
            <DistanceMeters>NAN</DistanceMeters>
          </Trackpoint>
          <Trackpoint>
            <Time>2019-10-04T16:27:50.000Z</Time>
            <Position>
              <LatitudeDegrees>42.82754237763583660125732421875</LatitudeDegrees>
              <LongitudeDegrees>-5.64595467410981655120849609375</LongitudeDegrees>
            </Position>
            <AltitudeMeters>997</AltitudeMeters>
            <DistanceMeters>NAN</DistanceMeters>
          </Trackpoint>
          <Trackpoint>
            <Time>2019-10-04T16:27:58.000Z</Time>
            <Position>
              <LatitudeDegrees>42.82702085562050342559814453125</LatitudeDegrees>
              <LongitudeDegrees>-5.64571143127977848052978515625</LongitudeDegrees>
            </Position>
            <AltitudeMeters>996.4000244140625</AltitudeMeters>
            <DistanceMeters>NAN</DistanceMeters>
          </Trackpoint>
          <Trackpoint>
            <Time>2019-10-04T16:28:06.000Z</Time>
            <Position>
              <LatitudeDegrees>42.826423309743404388427734375</LatitudeDegrees>
              <LongitudeDegrees>-5.64547372050583362579345703125</LongitudeDegrees>
            </Position>
            <AltitudeMeters>996.79998779296875</AltitudeMeters>
            <DistanceMeters>NAN</DistanceMeters>
          </Trackpoint>
          <Trackpoint>
            <Time>2019-10-04T16:28:12.000Z</Time>
            <Position>
              <LatitudeDegrees>42.82595836557447910308837890625</LatitudeDegrees>
              <LongitudeDegrees>-5.6452424637973308563232421875</LongitudeDegrees>
            </Position>
            <AltitudeMeters>998</AltitudeMeters>
            <DistanceMeters>NAN</DistanceMeters>
          </Trackpoint>
          <Trackpoint>
            <Time>2019-10-04T16:28:14.000Z</Time>
            <Position>
              <LatitudeDegrees>42.82580765895545482635498046875</LatitudeDegrees>
              <LongitudeDegrees>-5.64513408578932285308837890625</LongitudeDegrees>
            </Position>
            <AltitudeMeters>998</AltitudeMeters>
            <DistanceMeters>NAN</DistanceMeters>
          </Trackpoint>
          <Trackpoint>
            <Time>2019-10-04T16:28:17.000Z</Time>
            <Position>
              <LatitudeDegrees>42.82558453269302845001220703125</LatitudeDegrees>
              <LongitudeDegrees>-5.64493057318031787872314453125</LongitudeDegrees>
            </Position>
            <AltitudeMeters>998.5999755859375</AltitudeMeters>
            <DistanceMeters>NAN</DistanceMeters>
          </Trackpoint>
          <Trackpoint>
            <Time>2019-10-04T16:28:19.000Z</Time>
            <Position>
              <LatitudeDegrees>42.8254491649568080902099609375</LatitudeDegrees>
              <LongitudeDegrees>-5.64476276747882366180419921875</LongitudeDegrees>
            </Position>
            <AltitudeMeters>999.20001220703125</AltitudeMeters>
            <DistanceMeters>NAN</DistanceMeters>
          </Trackpoint>
          <Trackpoint>
            <Time>2019-10-04T16:28:22.000Z</Time>
            <Position>
              <LatitudeDegrees>42.82526618801057338714599609375</LatitudeDegrees>
              <LongitudeDegrees>-5.644473843276500701904296875</LongitudeDegrees>
            </Position>
            <AltitudeMeters>1000.20001220703125</AltitudeMeters>
            <DistanceMeters>NAN</DistanceMeters>
          </Trackpoint>
          <Trackpoint>
            <Time>2019-10-04T16:28:24.000Z</Time>
            <Position>
              <LatitudeDegrees>42.82515831291675567626953125</LatitudeDegrees>
              <LongitudeDegrees>-5.64425968565046787261962890625</LongitudeDegrees>
            </Position>
            <AltitudeMeters>1000.79998779296875</AltitudeMeters>
            <DistanceMeters>NAN</DistanceMeters>
          </Trackpoint>
          <Trackpoint>
            <Time>2019-10-04T16:28:25.000Z</Time>
            <Position>
              <LatitudeDegrees>42.82510726712644100189208984375</LatitudeDegrees>
              <LongitudeDegrees>-5.64414359629154205322265625</LongitudeDegrees>
            </Position>
            <AltitudeMeters>1001.4000244140625</AltitudeMeters>
            <DistanceMeters>NAN</DistanceMeters>
          </Trackpoint>
          <Trackpoint>
            <Time>2019-10-04T16:28:28.000Z</Time>
            <Position>
              <LatitudeDegrees>42.82497600652277469635009765625</LatitudeDegrees>
              <LongitudeDegrees>-5.643787197768688201904296875</LongitudeDegrees>
            </Position>
            <AltitudeMeters>1002.5999755859375</AltitudeMeters>
            <DistanceMeters>NAN</DistanceMeters>
          </Trackpoint>
          <Trackpoint>
            <Time>2019-10-04T16:28:29.000Z</Time>
            <Position>
              <LatitudeDegrees>42.824936024844646453857421875</LatitudeDegrees>
              <LongitudeDegrees>-5.64366239123046398162841796875</LongitudeDegrees>
            </Position>
            <AltitudeMeters>1003</AltitudeMeters>
            <DistanceMeters>NAN</DistanceMeters>
          </Trackpoint>
          <Trackpoint>
            <Time>2019-10-04T16:28:33.000Z</Time>
            <Position>
              <LatitudeDegrees>42.82478607259690761566162109375</LatitudeDegrees>
              <LongitudeDegrees>-5.643168948590755462646484375</LongitudeDegrees>
            </Position>
            <AltitudeMeters>1003.5999755859375</AltitudeMeters>
            <DistanceMeters>NAN</DistanceMeters>
          </Trackpoint>
          <Trackpoint>
            <Time>2019-10-04T16:28:36.000Z</Time>
            <Position>
              <LatitudeDegrees>42.824679203331470489501953125</LatitudeDegrees>
              <LongitudeDegrees>-5.64280693419277667999267578125</LongitudeDegrees>
            </Position>
            <AltitudeMeters>1005</AltitudeMeters>
            <DistanceMeters>NAN</DistanceMeters>
          </Trackpoint>
          <Trackpoint>
            <Time>2019-10-04T16:28:38.000Z</Time>
            <Position>
              <LatitudeDegrees>42.82460904680192470550537109375</LatitudeDegrees>
              <LongitudeDegrees>-5.64256855286657810211181640625</LongitudeDegrees>
            </Position>
            <AltitudeMeters>1005.5999755859375</AltitudeMeters>
            <DistanceMeters>NAN</DistanceMeters>
          </Trackpoint>
          <Trackpoint>
            <Time>2019-10-04T16:28:41.000Z</Time>
            <Position>
              <LatitudeDegrees>42.82450519502162933349609375</LatitudeDegrees>
              <LongitudeDegrees>-5.642215423285961151123046875</LongitudeDegrees>
            </Position>
            <AltitudeMeters>1006</AltitudeMeters>
            <DistanceMeters>NAN</DistanceMeters>
          </Trackpoint>
          <Trackpoint>
            <Time>2019-10-04T16:28:45.000Z</Time>
            <Position>
              <LatitudeDegrees>42.8243692405521869659423828125</LatitudeDegrees>
              <LongitudeDegrees>-5.641774870455265045166015625</LongitudeDegrees>
            </Position>
            <AltitudeMeters>1007</AltitudeMeters>
            <DistanceMeters>NAN</DistanceMeters>
          </Trackpoint>
          <Trackpoint>
            <Time>2019-10-04T16:28:46.000Z</Time>
            <Position>
              <LatitudeDegrees>42.8243363834917545318603515625</LatitudeDegrees>
              <LongitudeDegrees>-5.64167051576077938079833984375</LongitudeDegrees>
            </Position>
            <AltitudeMeters>1007.20001220703125</AltitudeMeters>
            <DistanceMeters>NAN</DistanceMeters>
          </Trackpoint>
          <Trackpoint>
            <Time>2019-10-04T16:28:49.000Z</Time>
            <Position>
              <LatitudeDegrees>42.8242416679859161376953125</LatitudeDegrees>
              <LongitudeDegrees>-5.6413529254496097564697265625</LongitudeDegrees>
            </Position>
            <AltitudeMeters>1008.4000244140625</AltitudeMeters>
            <DistanceMeters>NAN</DistanceMeters>
          </Trackpoint>
          <Trackpoint>
            <Time>2019-10-04T16:28:51.000Z</Time>
            <Position>
              <LatitudeDegrees>42.8241697512567043304443359375</LatitudeDegrees>
              <LongitudeDegrees>-5.64114329405128955841064453125</LongitudeDegrees>
            </Position>
            <AltitudeMeters>1009.5999755859375</AltitudeMeters>
            <DistanceMeters>NAN</DistanceMeters>
          </Trackpoint>
          <Trackpoint>
            <Time>2019-10-04T16:28:52.000Z</Time>
            <Position>
              <LatitudeDegrees>42.82413345761597156524658203125</LatitudeDegrees>
              <LongitudeDegrees>-5.64104556106030941009521484375</LongitudeDegrees>
            </Position>
            <AltitudeMeters>1010</AltitudeMeters>
            <DistanceMeters>NAN</DistanceMeters>
          </Trackpoint>
          <Trackpoint>
            <Time>2019-10-04T16:28:54.000Z</Time>
            <Position>
              <LatitudeDegrees>42.824054248631000518798828125</LatitudeDegrees>
              <LongitudeDegrees>-5.64085009507834911346435546875</LongitudeDegrees>
            </Position>
            <AltitudeMeters>1010.5999755859375</AltitudeMeters>
            <DistanceMeters>NAN</DistanceMeters>
          </Trackpoint>
          <Trackpoint>
            <Time>2019-10-04T16:28:57.000Z</Time>
            <Position>
              <LatitudeDegrees>42.823926508426666259765625</LatitudeDegrees>
              <LongitudeDegrees>-5.6405710615217685699462890625</LongitudeDegrees>
            </Position>
            <AltitudeMeters>1012</AltitudeMeters>
            <DistanceMeters>NAN</DistanceMeters>
          </Trackpoint>
          <Trackpoint>
            <Time>2019-10-04T16:28:59.000Z</Time>
            <Position>
              <LatitudeDegrees>42.8238314576447010040283203125</LatitudeDegrees>
              <LongitudeDegrees>-5.640392862260341644287109375</LongitudeDegrees>
            </Position>
            <AltitudeMeters>1013</AltitudeMeters>
            <DistanceMeters>NAN</DistanceMeters>
          </Trackpoint>
          <Trackpoint>
            <Time>2019-10-04T16:29:00.000Z</Time>
            <Position>
              <LatitudeDegrees>42.8237778134644031524658203125</LatitudeDegrees>
              <LongitudeDegrees>-5.64030694775283336639404296875</LongitudeDegrees>
            </Position>
            <AltitudeMeters>1013</AltitudeMeters>
            <DistanceMeters>NAN</DistanceMeters>
          </Trackpoint>
          <Trackpoint>
            <Time>2019-10-04T16:29:03.000Z</Time>
            <Position>
              <LatitudeDegrees>42.82361277379095554351806640625</LatitudeDegrees>
              <LongitudeDegrees>-5.640070326626300811767578125</LongitudeDegrees>
            </Position>
            <AltitudeMeters>1014.5999755859375</AltitudeMeters>
            <DistanceMeters>NAN</DistanceMeters>
          </Trackpoint>
          <Trackpoint>
            <Time>2019-10-04T16:29:05.000Z</Time>
            <Position>
              <LatitudeDegrees>42.82349844463169574737548828125</LatitudeDegrees>
              <LongitudeDegrees>-5.6399229727685451507568359375</LongitudeDegrees>
            </Position>
            <AltitudeMeters>1015.20001220703125</AltitudeMeters>
            <DistanceMeters>NAN</DistanceMeters>
          </Trackpoint>
          <Trackpoint>
            <Time>2019-10-04T16:29:06.000Z</Time>
            <Position>
              <LatitudeDegrees>42.82343658618628978729248046875</LatitudeDegrees>
              <LongitudeDegrees>-5.6398525647819042205810546875</LongitudeDegrees>
            </Position>
            <AltitudeMeters>1015.79998779296875</AltitudeMeters>
            <DistanceMeters>NAN</DistanceMeters>
          </Trackpoint>
          <Trackpoint>
            <Time>2019-10-04T16:29:09.000Z</Time>
            <Position>
              <LatitudeDegrees>42.8232510946691036224365234375</LatitudeDegrees>
              <LongitudeDegrees>-5.6396644748747348785400390625</LongitudeDegrees>
            </Position>
            <AltitudeMeters>1017</AltitudeMeters>
            <DistanceMeters>NAN</DistanceMeters>
          </Trackpoint>
          <Trackpoint>
            <Time>2019-10-04T16:29:11.000Z</Time>
            <Position>
              <LatitudeDegrees>42.82312628813087940216064453125</LatitudeDegrees>
              <LongitudeDegrees>-5.639537908136844635009765625</LongitudeDegrees>
            </Position>
            <AltitudeMeters>1017.79998779296875</AltitudeMeters>
            <DistanceMeters>NAN</DistanceMeters>
          </Trackpoint>
          <Trackpoint>
            <Time>2019-10-04T16:29:12.000Z</Time>
            <Position>
              <LatitudeDegrees>42.82306543551385402679443359375</LatitudeDegrees>
              <LongitudeDegrees>-5.63947680406272411346435546875</LongitudeDegrees>
            </Position>
            <AltitudeMeters>1018.20001220703125</AltitudeMeters>
            <DistanceMeters>NAN</DistanceMeters>
          </Trackpoint>
          <Trackpoint>
            <Time>2019-10-04T16:29:15.000Z</Time>
            <Position>
              <LatitudeDegrees>42.82287633977830410003662109375</LatitudeDegrees>
              <LongitudeDegrees>-5.639291815459728240966796875</LongitudeDegrees>
            </Position>
            <AltitudeMeters>1019.4000244140625</AltitudeMeters>
            <DistanceMeters>NAN</DistanceMeters>
          </Trackpoint>
          <Trackpoint>
            <Time>2019-10-04T16:29:18.000Z</Time>
            <Position>
              <LatitudeDegrees>42.82268959097564220428466796875</LatitudeDegrees>
              <LongitudeDegrees>-5.6391139514744281768798828125</LongitudeDegrees>
            </Position>
            <AltitudeMeters>1020.4000244140625</AltitudeMeters>
            <DistanceMeters>NAN</DistanceMeters>
          </Trackpoint>
          <Trackpoint>
            <Time>2019-10-04T16:29:20.000Z</Time>
            <Position>
              <LatitudeDegrees>42.82256704755127429962158203125</LatitudeDegrees>
              <LongitudeDegrees>-5.638994760811328887939453125</LongitudeDegrees>
            </Position>
            <AltitudeMeters>1021.4000244140625</AltitudeMeters>
            <DistanceMeters>NAN</DistanceMeters>
          </Trackpoint>
          <Trackpoint>
            <Time>2019-10-04T16:29:21.000Z</Time>
            <Position>
              <LatitudeDegrees>42.8225020878016948699951171875</LatitudeDegrees>
              <LongitudeDegrees>-5.63893164508044719696044921875</LongitudeDegrees>
            </Position>
            <AltitudeMeters>1021.79998779296875</AltitudeMeters>
            <DistanceMeters>NAN</DistanceMeters>
          </Trackpoint>
          <Trackpoint>
            <Time>2019-10-04T16:29:25.000Z</Time>
            <Position>
              <LatitudeDegrees>42.82225222326815128326416015625</LatitudeDegrees>
              <LongitudeDegrees>-5.638682283461093902587890625</LongitudeDegrees>
            </Position>
            <AltitudeMeters>1023.20001220703125</AltitudeMeters>
            <DistanceMeters>NAN</DistanceMeters>
          </Trackpoint>
          <Trackpoint>
            <Time>2019-10-04T16:29:27.000Z</Time>
            <Position>
              <LatitudeDegrees>42.82212741672992706298828125</LatitudeDegrees>
              <LongitudeDegrees>-5.6385597400367259979248046875</LongitudeDegrees>
            </Position>
            <AltitudeMeters>1024.199951171875</AltitudeMeters>
            <DistanceMeters>NAN</DistanceMeters>
          </Trackpoint>
          <Trackpoint>
            <Time>2019-10-04T16:29:28.000Z</Time>
            <Position>
              <LatitudeDegrees>42.82206748612225055694580078125</LatitudeDegrees>
              <LongitudeDegrees>-5.63850022852420806884765625</LongitudeDegrees>
            </Position>
            <AltitudeMeters>1024.5999755859375</AltitudeMeters>
            <DistanceMeters>NAN</DistanceMeters>
          </Trackpoint>
          <Trackpoint>
            <Time>2019-10-04T16:29:30.000Z</Time>
            <Position>
              <LatitudeDegrees>42.82194293104112148284912109375</LatitudeDegrees>
              <LongitudeDegrees>-5.6383763439953327178955078125</LongitudeDegrees>
            </Position>
            <AltitudeMeters>1025.199951171875</AltitudeMeters>
            <DistanceMeters>NAN</DistanceMeters>
          </Trackpoint>
          <Trackpoint>
            <Time>2019-10-04T16:29:33.000Z</Time>
            <Position>
              <LatitudeDegrees>42.82175517641007900238037109375</LatitudeDegrees>
              <LongitudeDegrees>-5.6381979770958423614501953125</LongitudeDegrees>
            </Position>
            <AltitudeMeters>1026.5999755859375</AltitudeMeters>
            <DistanceMeters>NAN</DistanceMeters>
          </Trackpoint>
          <Trackpoint>
            <Time>2019-10-04T16:29:35.000Z</Time>
            <Position>
              <LatitudeDegrees>42.82163213007152080535888671875</LatitudeDegrees>
              <LongitudeDegrees>-5.63807434402406215667724609375</LongitudeDegrees>
            </Position>
            <AltitudeMeters>1027.5999755859375</AltitudeMeters>
            <DistanceMeters>NAN</DistanceMeters>
          </Trackpoint>
          <Trackpoint>
            <Time>2019-10-04T16:29:36.000Z</Time>
            <Position>
              <LatitudeDegrees>42.82157027162611484527587890625</LatitudeDegrees>
              <LongitudeDegrees>-5.63801365904510021209716796875</LongitudeDegrees>
            </Position>
            <AltitudeMeters>1028.199951171875</AltitudeMeters>
            <DistanceMeters>NAN</DistanceMeters>
          </Trackpoint>
          <Trackpoint>
            <Time>2019-10-04T16:29:37.000Z</Time>
            <Position>
              <LatitudeDegrees>42.8215059824287891387939453125</LatitudeDegrees>
              <LongitudeDegrees>-5.6379538960754871368408203125</LongitudeDegrees>
            </Position>
            <AltitudeMeters>1028.4000244140625</AltitudeMeters>
            <DistanceMeters>NAN</DistanceMeters>
          </Trackpoint>
          <Trackpoint>
            <Time>2019-10-04T16:29:38.000Z</Time>
            <Position>
              <LatitudeDegrees>42.82144186086952686309814453125</LatitudeDegrees>
              <LongitudeDegrees>-5.63789002597332000732421875</LongitudeDegrees>
            </Position>
            <AltitudeMeters>1029</AltitudeMeters>
            <DistanceMeters>NAN</DistanceMeters>
          </Trackpoint>
          <Trackpoint>
            <Time>2019-10-04T16:29:40.000Z</Time>
            <Position>
              <LatitudeDegrees>42.82131948508322238922119140625</LatitudeDegrees>
              <LongitudeDegrees>-5.63776873983442783355712890625</LongitudeDegrees>
            </Position>
            <AltitudeMeters>1030.199951171875</AltitudeMeters>
            <DistanceMeters>NAN</DistanceMeters>
          </Trackpoint>
          <Trackpoint>
            <Time>2019-10-04T16:29:42.000Z</Time>
            <Position>
              <LatitudeDegrees>42.821195013821125030517578125</LatitudeDegrees>
              <LongitudeDegrees>-5.63764820806682109832763671875</LongitudeDegrees>
            </Position>
            <AltitudeMeters>1031.4000244140625</AltitudeMeters>
            <DistanceMeters>NAN</DistanceMeters>
          </Trackpoint>
          <Trackpoint>
            <Time>2019-10-04T16:29:45.000Z</Time>
            <Position>
              <LatitudeDegrees>42.821011953055858612060546875</LatitudeDegrees>
              <LongitudeDegrees>-5.6374687515199184417724609375</LongitudeDegrees>
            </Position>
            <AltitudeMeters>1033</AltitudeMeters>
            <DistanceMeters>NAN</DistanceMeters>
          </Trackpoint>
          <Trackpoint>
            <Time>2019-10-04T16:29:48.000Z</Time>
            <Position>
              <LatitudeDegrees>42.82082696445286273956298828125</LatitudeDegrees>
              <LongitudeDegrees>-5.63728476874530315399169921875</LongitudeDegrees>
            </Position>
            <AltitudeMeters>1034.4000244140625</AltitudeMeters>
            <DistanceMeters>NAN</DistanceMeters>
          </Trackpoint>
          <Trackpoint>
            <Time>2019-10-04T16:29:50.000Z</Time>
            <Position>
              <LatitudeDegrees>42.82070777378976345062255859375</LatitudeDegrees>
              <LongitudeDegrees>-5.63716826029121875762939453125</LongitudeDegrees>
            </Position>
            <AltitudeMeters>1035.5999755859375</AltitudeMeters>
            <DistanceMeters>NAN</DistanceMeters>
          </Trackpoint>
          <Trackpoint>
            <Time>2019-10-04T16:29:53.000Z</Time>
            <Position>
              <LatitudeDegrees>42.82053024508059024810791015625</LatitudeDegrees>
              <LongitudeDegrees>-5.63699148595333099365234375</LongitudeDegrees>
            </Position>
            <AltitudeMeters>1036.800048828125</AltitudeMeters>
            <DistanceMeters>NAN</DistanceMeters>
          </Trackpoint>
          <Trackpoint>
            <Time>2019-10-04T16:29:55.000Z</Time>
            <Position>
              <LatitudeDegrees>42.82041843049228191375732421875</LatitudeDegrees>
              <LongitudeDegrees>-5.636869780719280242919921875</LongitudeDegrees>
            </Position>
            <AltitudeMeters>1038</AltitudeMeters>
            <DistanceMeters>NAN</DistanceMeters>
          </Trackpoint>
          <Trackpoint>
            <Time>2019-10-04T16:29:58.000Z</Time>
            <Position>
              <LatitudeDegrees>42.82025665976107120513916015625</LatitudeDegrees>
              <LongitudeDegrees>-5.6366751529276371002197265625</LongitudeDegrees>
            </Position>
            <AltitudeMeters>1039.199951171875</AltitudeMeters>
            <DistanceMeters>NAN</DistanceMeters>
          </Trackpoint>
          <Trackpoint>
            <Time>2019-10-04T16:30:01.000Z</Time>
            <Position>
              <LatitudeDegrees>42.8201098926365375518798828125</LatitudeDegrees>
              <LongitudeDegrees>-5.636466778814792633056640625</LongitudeDegrees>
            </Position>
            <AltitudeMeters>1040.4000244140625</AltitudeMeters>
            <DistanceMeters>NAN</DistanceMeters>
          </Trackpoint>
          <Trackpoint>
            <Time>2019-10-04T16:30:04.000Z</Time>
            <Position>
              <LatitudeDegrees>42.8199756145477294921875</LatitudeDegrees>
              <LongitudeDegrees>-5.6362255476415157318115234375</LongitudeDegrees>
            </Position>
            <AltitudeMeters>1041.5999755859375</AltitudeMeters>
            <DistanceMeters>NAN</DistanceMeters>
          </Trackpoint>
          <Trackpoint>
            <Time>2019-10-04T16:30:07.000Z</Time>
            <Position>
              <LatitudeDegrees>42.81986229121685028076171875</LatitudeDegrees>
              <LongitudeDegrees>-5.635964535176753997802734375</LongitudeDegrees>
            </Position>
            <AltitudeMeters>1042.5999755859375</AltitudeMeters>
            <DistanceMeters>NAN</DistanceMeters>
          </Trackpoint>
          <Trackpoint>
            <Time>2019-10-04T16:30:08.000Z</Time>
            <Position>
              <LatitudeDegrees>42.8198306076228618621826171875</LatitudeDegrees>
              <LongitudeDegrees>-5.635877363383769989013671875</LongitudeDegrees>
            </Position>
            <AltitudeMeters>1042.800048828125</AltitudeMeters>
            <DistanceMeters>NAN</DistanceMeters>
          </Trackpoint>
          <Trackpoint>
            <Time>2019-10-04T16:30:11.000Z</Time>
            <Position>
              <LatitudeDegrees>42.81974854879081249237060546875</LatitudeDegrees>
              <LongitudeDegrees>-5.63559464178979396820068359375</LongitudeDegrees>
            </Position>
            <AltitudeMeters>1043.800048828125</AltitudeMeters>
            <DistanceMeters>NAN</DistanceMeters>
          </Trackpoint>
          <Trackpoint>
            <Time>2019-10-04T16:30:12.000Z</Time>
            <Position>
              <LatitudeDegrees>42.819729186594486236572265625</LatitudeDegrees>
              <LongitudeDegrees>-5.63549405895173549652099609375</LongitudeDegrees>
            </Position>
            <AltitudeMeters>1043.800048828125</AltitudeMeters>
            <DistanceMeters>NAN</DistanceMeters>
          </Trackpoint>
          <Trackpoint>
            <Time>2019-10-04T16:30:17.000Z</Time>
            <Position>
              <LatitudeDegrees>42.81967160291969776153564453125</LatitudeDegrees>
              <LongitudeDegrees>-5.63495962880551815032958984375</LongitudeDegrees>
            </Position>
            <AltitudeMeters>1044.5999755859375</AltitudeMeters>
            <DistanceMeters>NAN</DistanceMeters>
          </Trackpoint>
          <Trackpoint>
            <Time>2019-10-04T16:30:18.000Z</Time>
            <Position>
              <LatitudeDegrees>42.8196676634252071380615234375</LatitudeDegrees>
              <LongitudeDegrees>-5.6348542682826519012451171875</LongitudeDegrees>
            </Position>
            <AltitudeMeters>1045.199951171875</AltitudeMeters>
            <DistanceMeters>NAN</DistanceMeters>
          </Trackpoint>
          <Trackpoint>
            <Time>2019-10-04T16:30:21.000Z</Time>
            <Position>
              <LatitudeDegrees>42.8196673281490802764892578125</LatitudeDegrees>
              <LongitudeDegrees>-5.63452812843024730682373046875</LongitudeDegrees>
            </Position>
            <AltitudeMeters>1046.199951171875</AltitudeMeters>
            <DistanceMeters>NAN</DistanceMeters>
          </Trackpoint>
          <Trackpoint>
            <Time>2019-10-04T16:30:25.000Z</Time>
            <Position>
              <LatitudeDegrees>42.81968065537512302398681640625</LatitudeDegrees>
              <LongitudeDegrees>-5.63409478403627872467041015625</LongitudeDegrees>
            </Position>
            <AltitudeMeters>1047.4000244140625</AltitudeMeters>
            <DistanceMeters>NAN</DistanceMeters>
          </Trackpoint>
          <Trackpoint>
            <Time>2019-10-04T16:30:30.000Z</Time>
            <Position>
              <LatitudeDegrees>42.8197011910378932952880859375</LatitudeDegrees>
              <LongitudeDegrees>-5.6335533969104290008544921875</LongitudeDegrees>
            </Position>
            <AltitudeMeters>1048.5999755859375</AltitudeMeters>
            <DistanceMeters>NAN</DistanceMeters>
          </Trackpoint>
          <Trackpoint>
            <Time>2019-10-04T16:30:35.000Z</Time>
            <Position>
              <LatitudeDegrees>42.8197172842919826507568359375</LatitudeDegrees>
              <LongitudeDegrees>-5.633008070290088653564453125</LongitudeDegrees>
            </Position>
            <AltitudeMeters>1049.5999755859375</AltitudeMeters>
            <DistanceMeters>NAN</DistanceMeters>
          </Trackpoint>
          <Trackpoint>
            <Time>2019-10-04T16:30:36.000Z</Time>
            <Position>
              <LatitudeDegrees>42.819721139967441558837890625</LatitudeDegrees>
              <LongitudeDegrees>-5.63289935700595378875732421875</LongitudeDegrees>
            </Position>
            <AltitudeMeters>1049.800048828125</AltitudeMeters>
            <DistanceMeters>NAN</DistanceMeters>
          </Trackpoint>
          <Trackpoint>
            <Time>2019-10-04T16:30:42.000Z</Time>
            <Position>
              <LatitudeDegrees>42.81974217854440212249755859375</LatitudeDegrees>
              <LongitudeDegrees>-5.6322518549859523773193359375</LongitudeDegrees>
            </Position>
            <AltitudeMeters>1050.800048828125</AltitudeMeters>
            <DistanceMeters>NAN</DistanceMeters>
          </Trackpoint>
          <Trackpoint>
            <Time>2019-10-04T16:30:44.000Z</Time>
            <Position>
              <LatitudeDegrees>42.819750308990478515625</LatitudeDegrees>
              <LongitudeDegrees>-5.6320396251976490020751953125</LongitudeDegrees>
            </Position>
            <AltitudeMeters>1051.199951171875</AltitudeMeters>
            <DistanceMeters>NAN</DistanceMeters>
          </Trackpoint>
          <Trackpoint>
            <Time>2019-10-04T16:30:48.000Z</Time>
            <Position>
              <LatitudeDegrees>42.8197622112929821014404296875</LatitudeDegrees>
              <LongitudeDegrees>-5.63160854391753673553466796875</LongitudeDegrees>
            </Position>
            <AltitudeMeters>1052</AltitudeMeters>
            <DistanceMeters>NAN</DistanceMeters>
          </Trackpoint>
          <Trackpoint>
            <Time>2019-10-04T16:30:52.000Z</Time>
            <Position>
              <LatitudeDegrees>42.81976548023521900177001953125</LatitudeDegrees>
              <LongitudeDegrees>-5.6311793066561222076416015625</LongitudeDegrees>
            </Position>
            <AltitudeMeters>1053.199951171875</AltitudeMeters>
            <DistanceMeters>NAN</DistanceMeters>
          </Trackpoint>
          <Trackpoint>
            <Time>2019-10-04T16:30:58.000Z</Time>
            <Position>
              <LatitudeDegrees>42.81975894235074520111083984375</LatitudeDegrees>
              <LongitudeDegrees>-5.6305379234254360198974609375</LongitudeDegrees>
            </Position>
            <AltitudeMeters>1054.4000244140625</AltitudeMeters>
            <DistanceMeters>NAN</DistanceMeters>
          </Trackpoint>
          <Trackpoint>
            <Time>2019-10-04T16:31:01.000Z</Time>
            <Position>
              <LatitudeDegrees>42.819739244878292083740234375</LatitudeDegrees>
              <LongitudeDegrees>-5.6302190758287906646728515625</LongitudeDegrees>
            </Position>
            <AltitudeMeters>1055</AltitudeMeters>
            <DistanceMeters>NAN</DistanceMeters>
          </Trackpoint>
          <Trackpoint>
            <Time>2019-10-04T16:31:02.000Z</Time>
            <Position>
              <LatitudeDegrees>42.81973161734640598297119140625</LatitudeDegrees>
              <LongitudeDegrees>-5.630114637315273284912109375</LongitudeDegrees>
            </Position>
            <AltitudeMeters>1055.5999755859375</AltitudeMeters>
            <DistanceMeters>NAN</DistanceMeters>
          </Trackpoint>
          <Trackpoint>
            <Time>2019-10-04T16:31:07.000Z</Time>
            <Position>
              <LatitudeDegrees>42.81966925598680973052978515625</LatitudeDegrees>
              <LongitudeDegrees>-5.6295917741954326629638671875</LongitudeDegrees>
            </Position>
            <AltitudeMeters>1057</AltitudeMeters>
            <DistanceMeters>NAN</DistanceMeters>
          </Trackpoint>
          <Trackpoint>
            <Time>2019-10-04T16:31:09.000Z</Time>
            <Position>
              <LatitudeDegrees>42.81963162124156951904296875</LatitudeDegrees>
              <LongitudeDegrees>-5.6293808855116367340087890625</LongitudeDegrees>
            </Position>
            <AltitudeMeters>1057.800048828125</AltitudeMeters>
            <DistanceMeters>NAN</DistanceMeters>
          </Trackpoint>
          <Trackpoint>
            <Time>2019-10-04T16:31:11.000Z</Time>
            <Position>
              <LatitudeDegrees>42.81958593986928462982177734375</LatitudeDegrees>
              <LongitudeDegrees>-5.629169829189777374267578125</LongitudeDegrees>
            </Position>
            <AltitudeMeters>1058.4000244140625</AltitudeMeters>
            <DistanceMeters>NAN</DistanceMeters>
          </Trackpoint>
          <Trackpoint>
            <Time>2019-10-04T16:31:16.000Z</Time>
            <Position>
              <LatitudeDegrees>42.8194420225918292999267578125</LatitudeDegrees>
              <LongitudeDegrees>-5.62866180203855037689208984375</LongitudeDegrees>
            </Position>
            <AltitudeMeters>1059</AltitudeMeters>
            <DistanceMeters>NAN</DistanceMeters>
          </Trackpoint>
          <Trackpoint>
            <Time>2019-10-04T16:31:18.000Z</Time>
            <Position>
              <LatitudeDegrees>42.81937144696712493896484375</LatitudeDegrees>
              <LongitudeDegrees>-5.62846734188497066497802734375</LongitudeDegrees>
            </Position>
            <AltitudeMeters>1059.4000244140625</AltitudeMeters>
            <DistanceMeters>NAN</DistanceMeters>
          </Trackpoint>
          <Trackpoint>
            <Time>2019-10-04T16:31:21.000Z</Time>
            <Position>
              <LatitudeDegrees>42.8192559443414211273193359375</LatitudeDegrees>
              <LongitudeDegrees>-5.62819073908030986785888671875</LongitudeDegrees>
            </Position>
            <AltitudeMeters>1060.800048828125</AltitudeMeters>
            <DistanceMeters>NAN</DistanceMeters>
          </Trackpoint>
          <Trackpoint>
            <Time>2019-10-04T16:31:22.000Z</Time>
            <Position>
              <LatitudeDegrees>42.8192150406539440155029296875</LatitudeDegrees>
              <LongitudeDegrees>-5.62810373492538928985595703125</LongitudeDegrees>
            </Position>
            <AltitudeMeters>1061.199951171875</AltitudeMeters>
            <DistanceMeters>NAN</DistanceMeters>
          </Trackpoint>
          <Trackpoint>
            <Time>2019-10-04T16:31:26.000Z</Time>
            <Position>
              <LatitudeDegrees>42.81903742812573909759521484375</LatitudeDegrees>
              <LongitudeDegrees>-5.6277735717594623565673828125</LongitudeDegrees>
            </Position>
            <AltitudeMeters>1062</AltitudeMeters>
            <DistanceMeters>NAN</DistanceMeters>
          </Trackpoint>
          <Trackpoint>
            <Time>2019-10-04T16:31:28.000Z</Time>
            <Position>
              <LatitudeDegrees>42.81894028186798095703125</LatitudeDegrees>
              <LongitudeDegrees>-5.62762730754911899566650390625</LongitudeDegrees>
            </Position>
            <AltitudeMeters>1062.800048828125</AltitudeMeters>
            <DistanceMeters>NAN</DistanceMeters>
          </Trackpoint>
          <Trackpoint>
            <Time>2019-10-04T16:31:30.000Z</Time>
            <Position>
              <LatitudeDegrees>42.81884011812508106231689453125</LatitudeDegrees>
              <LongitudeDegrees>-5.62749889679253101348876953125</LongitudeDegrees>
            </Position>
            <AltitudeMeters>1063</AltitudeMeters>
            <DistanceMeters>NAN</DistanceMeters>
          </Trackpoint>
          <Trackpoint>
            <Time>2019-10-04T16:31:33.000Z</Time>
            <Position>
              <LatitudeDegrees>42.8186799399554729461669921875</LatitudeDegrees>
              <LongitudeDegrees>-5.62731097452342510223388671875</LongitudeDegrees>
            </Position>
            <AltitudeMeters>1064.199951171875</AltitudeMeters>
            <DistanceMeters>NAN</DistanceMeters>
          </Trackpoint>
          <Trackpoint>
            <Time>2019-10-04T16:31:34.000Z</Time>
            <Position>
              <LatitudeDegrees>42.8186237812042236328125</LatitudeDegrees>
              <LongitudeDegrees>-5.6272515468299388885498046875</LongitudeDegrees>
            </Position>
            <AltitudeMeters>1064.4000244140625</AltitudeMeters>
            <DistanceMeters>NAN</DistanceMeters>
          </Trackpoint>
          <Trackpoint>
            <Time>2019-10-04T16:31:36.000Z</Time>
            <Position>
              <LatitudeDegrees>42.81851171515882015228271484375</LatitudeDegrees>
              <LongitudeDegrees>-5.62714015133678913116455078125</LongitudeDegrees>
            </Position>
            <AltitudeMeters>1065.199951171875</AltitudeMeters>
            <DistanceMeters>NAN</DistanceMeters>
          </Trackpoint>
          <Trackpoint>
            <Time>2019-10-04T16:31:41.000Z</Time>
            <Position>
              <LatitudeDegrees>42.81821700744330883026123046875</LatitudeDegrees>
              <LongitudeDegrees>-5.6269005127251148223876953125</LongitudeDegrees>
            </Position>
            <AltitudeMeters>1066.199951171875</AltitudeMeters>
            <DistanceMeters>NAN</DistanceMeters>
          </Trackpoint>
          <Trackpoint>
            <Time>2019-10-04T16:31:42.000Z</Time>
            <Position>
              <LatitudeDegrees>42.81815498135983943939208984375</LatitudeDegrees>
              <LongitudeDegrees>-5.62685810029506683349609375</LongitudeDegrees>
            </Position>
            <AltitudeMeters>1066.4000244140625</AltitudeMeters>
            <DistanceMeters>NAN</DistanceMeters>
          </Trackpoint>
          <Trackpoint>
            <Time>2019-10-04T16:31:48.000Z</Time>
            <Position>
              <LatitudeDegrees>42.81777125783264636993408203125</LatitudeDegrees>
              <LongitudeDegrees>-5.626657269895076751708984375</LongitudeDegrees>
            </Position>
            <AltitudeMeters>1067.5999755859375</AltitudeMeters>
            <DistanceMeters>NAN</DistanceMeters>
          </Trackpoint>
          <Trackpoint>
            <Time>2019-10-04T16:31:51.000Z</Time>
            <Position>
              <LatitudeDegrees>42.81757478602230548858642578125</LatitudeDegrees>
              <LongitudeDegrees>-5.6265887059271335601806640625</LongitudeDegrees>
            </Position>
            <AltitudeMeters>1067.800048828125</AltitudeMeters>
            <DistanceMeters>NAN</DistanceMeters>
          </Trackpoint>
          <Trackpoint>
            <Time>2019-10-04T16:31:54.000Z</Time>
            <Position>
              <LatitudeDegrees>42.81737077049911022186279296875</LatitudeDegrees>
              <LongitudeDegrees>-5.6265516579151153564453125</LongitudeDegrees>
            </Position>
            <AltitudeMeters>1068.5999755859375</AltitudeMeters>
            <DistanceMeters>NAN</DistanceMeters>
          </Trackpoint>
          <Trackpoint>
            <Time>2019-10-04T16:31:55.000Z</Time>
            <Position>
              <LatitudeDegrees>42.81730212271213531494140625</LatitudeDegrees>
              <LongitudeDegrees>-5.62654470093548297882080078125</LongitudeDegrees>
            </Position>
            <AltitudeMeters>1069</AltitudeMeters>
            <DistanceMeters>NAN</DistanceMeters>
          </Trackpoint>
          <Trackpoint>
            <Time>2019-10-04T16:32:00.000Z</Time>
            <Position>
              <LatitudeDegrees>42.8169589675962924957275390625</LatitudeDegrees>
              <LongitudeDegrees>-5.62653933651745319366455078125</LongitudeDegrees>
            </Position>
            <AltitudeMeters>1069.199951171875</AltitudeMeters>
            <DistanceMeters>NAN</DistanceMeters>
          </Trackpoint>
          <Trackpoint>
            <Time>2019-10-04T16:32:08.000Z</Time>
            <Position>
              <LatitudeDegrees>42.8164034150540828704833984375</LatitudeDegrees>
              <LongitudeDegrees>-5.6266282685101032257080078125</LongitudeDegrees>
            </Position>
            <AltitudeMeters>1069</AltitudeMeters>
            <DistanceMeters>NAN</DistanceMeters>
          </Trackpoint>
          <Trackpoint>
            <Time>2019-10-04T16:32:16.000Z</Time>
            <Position>
              <LatitudeDegrees>42.81584576703608036041259765625</LatitudeDegrees>
              <LongitudeDegrees>-5.62681862153112888336181640625</LongitudeDegrees>
            </Position>
            <AltitudeMeters>1068.199951171875</AltitudeMeters>
            <DistanceMeters>NAN</DistanceMeters>
          </Trackpoint>
          <Trackpoint>
            <Time>2019-10-04T16:32:17.000Z</Time>
            <Position>
              <LatitudeDegrees>42.81577594578266143798828125</LatitudeDegrees>
              <LongitudeDegrees>-5.62684510834515094757080078125</LongitudeDegrees>
            </Position>
            <AltitudeMeters>1067.800048828125</AltitudeMeters>
            <DistanceMeters>NAN</DistanceMeters>
          </Trackpoint>
          <Trackpoint>
            <Time>2019-10-04T16:32:21.000Z</Time>
            <Position>
              <LatitudeDegrees>42.81549339182674884796142578125</LatitudeDegrees>
              <LongitudeDegrees>-5.62695407308638095855712890625</LongitudeDegrees>
            </Position>
            <AltitudeMeters>1066.5999755859375</AltitudeMeters>
            <DistanceMeters>NAN</DistanceMeters>
          </Trackpoint>
          <Trackpoint>
            <Time>2019-10-04T16:32:25.000Z</Time>
            <Position>
              <LatitudeDegrees>42.815201617777347564697265625</LatitudeDegrees>
              <LongitudeDegrees>-5.62706270255148410797119140625</LongitudeDegrees>
            </Position>
            <AltitudeMeters>1066</AltitudeMeters>
            <DistanceMeters>NAN</DistanceMeters>
          </Trackpoint>
          <Trackpoint>
            <Time>2019-10-04T16:32:26.000Z</Time>
            <Position>
              <LatitudeDegrees>42.81512760557234287261962890625</LatitudeDegrees>
              <LongitudeDegrees>-5.62708633951842784881591796875</LongitudeDegrees>
            </Position>
            <AltitudeMeters>1065.199951171875</AltitudeMeters>
            <DistanceMeters>NAN</DistanceMeters>
          </Trackpoint>
          <Trackpoint>
            <Time>2019-10-04T16:32:29.000Z</Time>
            <Position>
              <LatitudeDegrees>42.81490414403378963470458984375</LatitudeDegrees>
              <LongitudeDegrees>-5.6271569989621639251708984375</LongitudeDegrees>
            </Position>
            <AltitudeMeters>1064</AltitudeMeters>
            <DistanceMeters>NAN</DistanceMeters>
          </Trackpoint>
          <Trackpoint>
            <Time>2019-10-04T16:32:32.000Z</Time>
            <Position>
              <LatitudeDegrees>42.81467582099139690399169921875</LatitudeDegrees>
              <LongitudeDegrees>-5.627219192683696746826171875</LongitudeDegrees>
            </Position>
            <AltitudeMeters>1062.800048828125</AltitudeMeters>
            <DistanceMeters>NAN</DistanceMeters>
          </Trackpoint>
          <Trackpoint>
            <Time>2019-10-04T16:32:34.000Z</Time>
            <Position>
              <LatitudeDegrees>42.814522348344326019287109375</LatitudeDegrees>
              <LongitudeDegrees>-5.62725347466766834259033203125</LongitudeDegrees>
            </Position>
            <AltitudeMeters>1061.5999755859375</AltitudeMeters>
            <DistanceMeters>NAN</DistanceMeters>
          </Trackpoint>
          <Trackpoint>
            <Time>2019-10-04T16:32:35.000Z</Time>
            <Position>
              <LatitudeDegrees>42.81444489955902099609375</LatitudeDegrees>
              <LongitudeDegrees>-5.62726981937885284423828125</LongitudeDegrees>
            </Position>
            <AltitudeMeters>1061.199951171875</AltitudeMeters>
            <DistanceMeters>NAN</DistanceMeters>
          </Trackpoint>
          <Trackpoint>
            <Time>2019-10-04T16:32:37.000Z</Time>
            <Position>
              <LatitudeDegrees>42.81428975053131580352783203125</LatitudeDegrees>
              <LongitudeDegrees>-5.62729370780289173126220703125</LongitudeDegrees>
            </Position>
            <AltitudeMeters>1060.5999755859375</AltitudeMeters>
            <DistanceMeters>NAN</DistanceMeters>
          </Trackpoint>
          <Trackpoint>
            <Time>2019-10-04T16:32:39.000Z</Time>
            <Position>
              <LatitudeDegrees>42.8141329251229763031005859375</LatitudeDegrees>
              <LongitudeDegrees>-5.62731030397117137908935546875</LongitudeDegrees>
            </Position>
            <AltitudeMeters>1059.4000244140625</AltitudeMeters>
            <DistanceMeters>NAN</DistanceMeters>
          </Trackpoint>
          <Trackpoint>
            <Time>2019-10-04T16:32:42.000Z</Time>
            <Position>
              <LatitudeDegrees>42.8138965554535388946533203125</LatitudeDegrees>
              <LongitudeDegrees>-5.627330504357814788818359375</LongitudeDegrees>
            </Position>
            <AltitudeMeters>1058</AltitudeMeters>
            <DistanceMeters>NAN</DistanceMeters>
          </Trackpoint>
          <Trackpoint>
            <Time>2019-10-04T16:32:43.000Z</Time>
            <Position>
              <LatitudeDegrees>42.81381617300212383270263671875</LatitudeDegrees>
              <LongitudeDegrees>-5.62733461149036884307861328125</LongitudeDegrees>
            </Position>
            <AltitudeMeters>1057.5999755859375</AltitudeMeters>
            <DistanceMeters>NAN</DistanceMeters>
          </Trackpoint>
          <Trackpoint>
            <Time>2019-10-04T16:32:45.000Z</Time>
            <Position>
              <LatitudeDegrees>42.8136541508138179779052734375</LatitudeDegrees>
              <LongitudeDegrees>-5.62733930535614490509033203125</LongitudeDegrees>
            </Position>
            <AltitudeMeters>1056.800048828125</AltitudeMeters>
            <DistanceMeters>NAN</DistanceMeters>
          </Trackpoint>
          <Trackpoint>
            <Time>2019-10-04T16:32:48.000Z</Time>
            <Position>
              <LatitudeDegrees>42.81341233290731906890869140625</LatitudeDegrees>
              <LongitudeDegrees>-5.62734098173677921295166015625</LongitudeDegrees>
            </Position>
            <AltitudeMeters>1055.4000244140625</AltitudeMeters>
            <DistanceMeters>NAN</DistanceMeters>
          </Trackpoint>
          <Trackpoint>
            <Time>2019-10-04T16:32:51.000Z</Time>
            <Position>
              <LatitudeDegrees>42.81317277811467647552490234375</LatitudeDegrees>
              <LongitudeDegrees>-5.62734098173677921295166015625</LongitudeDegrees>
            </Position>
            <AltitudeMeters>1054.199951171875</AltitudeMeters>
            <DistanceMeters>NAN</DistanceMeters>
          </Trackpoint>
          <Trackpoint>
            <Time>2019-10-04T16:32:53.000Z</Time>
            <Position>
              <LatitudeDegrees>42.8130154497921466827392578125</LatitudeDegrees>
              <LongitudeDegrees>-5.62734768725931644439697265625</LongitudeDegrees>
            </Position>
            <AltitudeMeters>1052.800048828125</AltitudeMeters>
            <DistanceMeters>NAN</DistanceMeters>
          </Trackpoint>
          <Trackpoint>
            <Time>2019-10-04T16:32:56.000Z</Time>
            <Position>
              <LatitudeDegrees>42.81277949921786785125732421875</LatitudeDegrees>
              <LongitudeDegrees>-5.62735506333410739898681640625</LongitudeDegrees>
            </Position>
            <AltitudeMeters>1051.5999755859375</AltitudeMeters>
            <DistanceMeters>NAN</DistanceMeters>
          </Trackpoint>
          <Trackpoint>
            <Time>2019-10-04T16:33:00.000Z</Time>
            <Position>
              <LatitudeDegrees>42.81246953643858432769775390625</LatitudeDegrees>
              <LongitudeDegrees>-5.627368055284023284912109375</LongitudeDegrees>
            </Position>
            <AltitudeMeters>1050.4000244140625</AltitudeMeters>
            <DistanceMeters>NAN</DistanceMeters>
          </Trackpoint>
          <Trackpoint>
            <Time>2019-10-04T16:33:01.000Z</Time>
            <Position>
              <LatitudeDegrees>42.81239259056746959686279296875</LatitudeDegrees>
              <LongitudeDegrees>-5.62737417407333850860595703125</LongitudeDegrees>
            </Position>
            <AltitudeMeters>1050</AltitudeMeters>
            <DistanceMeters>NAN</DistanceMeters>
          </Trackpoint>
          <Trackpoint>
            <Time>2019-10-04T16:33:04.000Z</Time>
            <Position>
              <LatitudeDegrees>42.8121658600866794586181640625</LatitudeDegrees>
              <LongitudeDegrees>-5.62739462591707706451416015625</LongitudeDegrees>
            </Position>
            <AltitudeMeters>1049.4000244140625</AltitudeMeters>
            <DistanceMeters>NAN</DistanceMeters>
          </Trackpoint>
          <Trackpoint>
            <Time>2019-10-04T16:33:08.000Z</Time>
            <Position>
              <LatitudeDegrees>42.81187794171273708343505859375</LatitudeDegrees>
              <LongitudeDegrees>-5.6274379603564739227294921875</LongitudeDegrees>
            </Position>
            <AltitudeMeters>1048.199951171875</AltitudeMeters>
            <DistanceMeters>NAN</DistanceMeters>
          </Trackpoint>
          <Trackpoint>
            <Time>2019-10-04T16:33:09.000Z</Time>
            <Position>
              <LatitudeDegrees>42.81181029975414276123046875</LatitudeDegrees>
              <LongitudeDegrees>-5.6274517066776752471923828125</LongitudeDegrees>
            </Position>
            <AltitudeMeters>1047.800048828125</AltitudeMeters>
            <DistanceMeters>NAN</DistanceMeters>
          </Trackpoint>
          <Trackpoint>
            <Time>2019-10-04T16:33:11.000Z</Time>
            <Position>
              <LatitudeDegrees>42.81166973523795604705810546875</LatitudeDegrees>
              <LongitudeDegrees>-5.62747894786298274993896484375</LongitudeDegrees>
            </Position>
            <AltitudeMeters>1047</AltitudeMeters>
            <DistanceMeters>NAN</DistanceMeters>
          </Trackpoint>
          <Trackpoint>
            <Time>2019-10-04T16:33:14.000Z</Time>
            <Position>
              <LatitudeDegrees>42.8114557452499866485595703125</LatitudeDegrees>
              <LongitudeDegrees>-5.62753460370004177093505859375</LongitudeDegrees>
            </Position>
            <AltitudeMeters>1045.5999755859375</AltitudeMeters>
            <DistanceMeters>NAN</DistanceMeters>
          </Trackpoint>
          <Trackpoint>
            <Time>2019-10-04T16:33:17.000Z</Time>
            <Position>
              <LatitudeDegrees>42.81127343885600566864013671875</LatitudeDegrees>
              <LongitudeDegrees>-5.6275807879865169525146484375</LongitudeDegrees>
            </Position>
            <AltitudeMeters>1044.4000244140625</AltitudeMeters>
            <DistanceMeters>NAN</DistanceMeters>
          </Trackpoint>
          <Trackpoint>
            <Time>2019-10-04T16:33:21.000Z</Time>
            <Position>
              <LatitudeDegrees>42.81099918298423290252685546875</LatitudeDegrees>
              <LongitudeDegrees>-5.62767458148300647735595703125</LongitudeDegrees>
            </Position>
            <AltitudeMeters>1042.800048828125</AltitudeMeters>
            <DistanceMeters>NAN</DistanceMeters>
          </Trackpoint>
          <Trackpoint>
            <Time>2019-10-04T16:33:23.000Z</Time>
            <Position>
              <LatitudeDegrees>42.81086339615285396575927734375</LatitudeDegrees>
              <LongitudeDegrees>-5.62772235833108425140380859375</LongitudeDegrees>
            </Position>
            <AltitudeMeters>1041.800048828125</AltitudeMeters>
            <DistanceMeters>NAN</DistanceMeters>
          </Trackpoint>
          <Trackpoint>
            <Time>2019-10-04T16:33:26.000Z</Time>
            <Position>
              <LatitudeDegrees>42.8106624819338321685791015625</LatitudeDegrees>
              <LongitudeDegrees>-5.6277993880212306976318359375</LongitudeDegrees>
            </Position>
            <AltitudeMeters>1040.5999755859375</AltitudeMeters>
            <DistanceMeters>NAN</DistanceMeters>
          </Trackpoint>
          <Trackpoint>
            <Time>2019-10-04T16:33:28.000Z</Time>
            <Position>
              <LatitudeDegrees>42.81052761711180210113525390625</LatitudeDegrees>
              <LongitudeDegrees>-5.62785445712506771087646484375</LongitudeDegrees>
            </Position>
            <AltitudeMeters>1039.5999755859375</AltitudeMeters>
            <DistanceMeters>NAN</DistanceMeters>
          </Trackpoint>
          <Trackpoint>
            <Time>2019-10-04T16:33:31.000Z</Time>
            <Position>
              <LatitudeDegrees>42.81033081002533435821533203125</LatitudeDegrees>
              <LongitudeDegrees>-5.62795101664960384368896484375</LongitudeDegrees>
            </Position>
            <AltitudeMeters>1038.4000244140625</AltitudeMeters>
            <DistanceMeters>NAN</DistanceMeters>
          </Trackpoint>
          <Trackpoint>
            <Time>2019-10-04T16:33:34.000Z</Time>
            <Position>
              <LatitudeDegrees>42.81013383530080318450927734375</LatitudeDegrees>
              <LongitudeDegrees>-5.62805310823023319244384765625</LongitudeDegrees>
            </Position>
            <AltitudeMeters>1037.199951171875</AltitudeMeters>
            <DistanceMeters>NAN</DistanceMeters>
          </Trackpoint>
          <Trackpoint>
            <Time>2019-10-04T16:33:36.000Z</Time>
            <Position>
              <LatitudeDegrees>42.81000475399196147918701171875</LatitudeDegrees>
              <LongitudeDegrees>-5.6281259469687938690185546875</LongitudeDegrees>
            </Position>
            <AltitudeMeters>1036.199951171875</AltitudeMeters>
            <DistanceMeters>NAN</DistanceMeters>
          </Trackpoint>
          <Trackpoint>
            <Time>2019-10-04T16:33:37.000Z</Time>
            <Position>
              <LatitudeDegrees>42.80993920750916004180908203125</LatitudeDegrees>
              <LongitudeDegrees>-5.62816324643790721893310546875</LongitudeDegrees>
            </Position>
            <AltitudeMeters>1035.800048828125</AltitudeMeters>
            <DistanceMeters>NAN</DistanceMeters>
          </Trackpoint>
          <Trackpoint>
            <Time>2019-10-04T16:33:40.000Z</Time>
            <Position>
              <LatitudeDegrees>42.8097455017268657684326171875</LatitudeDegrees>
              <LongitudeDegrees>-5.628279335796833038330078125</LongitudeDegrees>
            </Position>
            <AltitudeMeters>1034.5999755859375</AltitudeMeters>
            <DistanceMeters>NAN</DistanceMeters>
          </Trackpoint>
          <Trackpoint>
            <Time>2019-10-04T16:33:42.000Z</Time>
            <Position>
              <LatitudeDegrees>42.80961692333221435546875</LatitudeDegrees>
              <LongitudeDegrees>-5.6283599697053432464599609375</LongitudeDegrees>
            </Position>
            <AltitudeMeters>1033</AltitudeMeters>
            <DistanceMeters>NAN</DistanceMeters>
          </Trackpoint>
          <Trackpoint>
            <Time>2019-10-04T16:33:44.000Z</Time>
            <Position>
              <LatitudeDegrees>42.8094920329749584197998046875</LatitudeDegrees>
              <LongitudeDegrees>-5.62844730913639068603515625</LongitudeDegrees>
            </Position>
            <AltitudeMeters>1032.800048828125</AltitudeMeters>
            <DistanceMeters>NAN</DistanceMeters>
          </Trackpoint>
          <Trackpoint>
            <Time>2019-10-04T16:33:46.000Z</Time>
            <Position>
              <LatitudeDegrees>42.8093669749796390533447265625</LatitudeDegrees>
              <LongitudeDegrees>-5.628536827862262725830078125</LongitudeDegrees>
            </Position>
            <AltitudeMeters>1032</AltitudeMeters>
            <DistanceMeters>NAN</DistanceMeters>
          </Trackpoint>
          <Trackpoint>
            <Time>2019-10-04T16:33:49.000Z</Time>
            <Position>
              <LatitudeDegrees>42.80917963944375514984130859375</LatitudeDegrees>
              <LongitudeDegrees>-5.62867806293070316314697265625</LongitudeDegrees>
            </Position>
            <AltitudeMeters>1030.5999755859375</AltitudeMeters>
            <DistanceMeters>NAN</DistanceMeters>
          </Trackpoint>
          <Trackpoint>
            <Time>2019-10-04T16:33:52.000Z</Time>
            <Position>
              <LatitudeDegrees>42.80899238772690296173095703125</LatitudeDegrees>
              <LongitudeDegrees>-5.62883212231099605560302734375</LongitudeDegrees>
            </Position>
            <AltitudeMeters>1029.5999755859375</AltitudeMeters>
            <DistanceMeters>NAN</DistanceMeters>
          </Trackpoint>
          <Trackpoint>
            <Time>2019-10-04T16:33:54.000Z</Time>
            <Position>
              <LatitudeDegrees>42.80886850319802761077880859375</LatitudeDegrees>
              <LongitudeDegrees>-5.62894024886190891265869140625</LongitudeDegrees>
            </Position>
            <AltitudeMeters>1028.4000244140625</AltitudeMeters>
            <DistanceMeters>NAN</DistanceMeters>
          </Trackpoint>
          <Trackpoint>
            <Time>2019-10-04T16:33:55.000Z</Time>
            <Position>
              <LatitudeDegrees>42.80880731530487537384033203125</LatitudeDegrees>
              <LongitudeDegrees>-5.62899582087993621826171875</LongitudeDegrees>
            </Position>
            <AltitudeMeters>1028</AltitudeMeters>
            <DistanceMeters>NAN</DistanceMeters>
          </Trackpoint>
          <Trackpoint>
            <Time>2019-10-04T16:33:58.000Z</Time>
            <Position>
              <LatitudeDegrees>42.808622829616069793701171875</LatitudeDegrees>
              <LongitudeDegrees>-5.62916622497141361236572265625</LongitudeDegrees>
            </Position>
            <AltitudeMeters>1027</AltitudeMeters>
            <DistanceMeters>NAN</DistanceMeters>
          </Trackpoint>
          <Trackpoint>
            <Time>2019-10-04T16:34:01.000Z</Time>
            <Position>
              <LatitudeDegrees>42.808443121612071990966796875</LatitudeDegrees>
              <LongitudeDegrees>-5.62934325076639652252197265625</LongitudeDegrees>
            </Position>
            <AltitudeMeters>1025.199951171875</AltitudeMeters>
            <DistanceMeters>NAN</DistanceMeters>
          </Trackpoint>
          <Trackpoint>
            <Time>2019-10-04T16:34:03.000Z</Time>
            <Position>
              <LatitudeDegrees>42.8083225898444652557373046875</LatitudeDegrees>
              <LongitudeDegrees>-5.62946780584752559661865234375</LongitudeDegrees>
            </Position>
            <AltitudeMeters>1024.5999755859375</AltitudeMeters>
            <DistanceMeters>NAN</DistanceMeters>
          </Trackpoint>
          <Trackpoint>
            <Time>2019-10-04T16:34:07.000Z</Time>
            <Position>
              <LatitudeDegrees>42.8080828674137592315673828125</LatitudeDegrees>
              <LongitudeDegrees>-5.62973267398774623870849609375</LongitudeDegrees>
            </Position>
            <AltitudeMeters>1023.79998779296875</AltitudeMeters>
            <DistanceMeters>NAN</DistanceMeters>
          </Trackpoint>
          <Trackpoint>
            <Time>2019-10-04T16:34:10.000Z</Time>
            <Position>
              <LatitudeDegrees>42.80790139921009540557861328125</LatitudeDegrees>
              <LongitudeDegrees>-5.62994155101478099822998046875</LongitudeDegrees>
            </Position>
            <AltitudeMeters>1022.5999755859375</AltitudeMeters>
            <DistanceMeters>NAN</DistanceMeters>
          </Trackpoint>
          <Trackpoint>
            <Time>2019-10-04T16:34:11.000Z</Time>
            <Position>
              <LatitudeDegrees>42.80784197151660919189453125</LatitudeDegrees>
              <LongitudeDegrees>-5.6300118751823902130126953125</LongitudeDegrees>
            </Position>
            <AltitudeMeters>1022.4000244140625</AltitudeMeters>
            <DistanceMeters>NAN</DistanceMeters>
          </Trackpoint>
          <Trackpoint>
            <Time>2019-10-04T16:34:13.000Z</Time>
            <Position>
              <LatitudeDegrees>42.80772621743381023406982421875</LatitudeDegrees>
              <LongitudeDegrees>-5.63015461899340152740478515625</LongitudeDegrees>
            </Position>
            <AltitudeMeters>1021.4000244140625</AltitudeMeters>
            <DistanceMeters>NAN</DistanceMeters>
          </Trackpoint>
          <Trackpoint>
            <Time>2019-10-04T16:34:16.000Z</Time>
            <Position>
              <LatitudeDegrees>42.80754935927689075469970703125</LatitudeDegrees>
              <LongitudeDegrees>-5.63036081381142139434814453125</LongitudeDegrees>
            </Position>
            <AltitudeMeters>1020.20001220703125</AltitudeMeters>
            <DistanceMeters>NAN</DistanceMeters>
          </Trackpoint>
          <Trackpoint>
            <Time>2019-10-04T16:34:20.000Z</Time>
            <Position>
              <LatitudeDegrees>42.80730955302715301513671875</LatitudeDegrees>
              <LongitudeDegrees>-5.6306421943008899688720703125</LongitudeDegrees>
            </Position>
            <AltitudeMeters>1019</AltitudeMeters>
            <DistanceMeters>NAN</DistanceMeters>
          </Trackpoint>
          <Trackpoint>
            <Time>2019-10-04T16:34:21.000Z</Time>
            <Position>
              <LatitudeDegrees>42.80724761076271533966064453125</LatitudeDegrees>
              <LongitudeDegrees>-5.63071218319237232208251953125</LongitudeDegrees>
            </Position>
            <AltitudeMeters>1018.79998779296875</AltitudeMeters>
            <DistanceMeters>NAN</DistanceMeters>
          </Trackpoint>
          <Trackpoint>
            <Time>2019-10-04T16:34:24.000Z</Time>
            <Position>
              <LatitudeDegrees>42.807064466178417205810546875</LatitudeDegrees>
              <LongitudeDegrees>-5.63092692755162715911865234375</LongitudeDegrees>
            </Position>
            <AltitudeMeters>1017.5999755859375</AltitudeMeters>
            <DistanceMeters>NAN</DistanceMeters>
          </Trackpoint>
          <Trackpoint>
            <Time>2019-10-04T16:34:27.000Z</Time>
            <Position>
              <LatitudeDegrees>42.80687293969094753265380859375</LatitudeDegrees>
              <LongitudeDegrees>-5.63113027252256870269775390625</LongitudeDegrees>
            </Position>
            <AltitudeMeters>1017</AltitudeMeters>
            <DistanceMeters>NAN</DistanceMeters>
          </Trackpoint>
          <Trackpoint>
            <Time>2019-10-04T16:34:28.000Z</Time>
            <Position>
              <LatitudeDegrees>42.80680705793201923370361328125</LatitudeDegrees>
              <LongitudeDegrees>-5.631195567548274993896484375</LongitudeDegrees>
            </Position>
            <AltitudeMeters>1016.5999755859375</AltitudeMeters>
            <DistanceMeters>NAN</DistanceMeters>
          </Trackpoint>
          <Trackpoint>
            <Time>2019-10-04T16:34:31.000Z</Time>
            <Position>
              <LatitudeDegrees>42.80660505406558513641357421875</LatitudeDegrees>
              <LongitudeDegrees>-5.6313771195709705352783203125</LongitudeDegrees>
            </Position>
            <AltitudeMeters>1015.5999755859375</AltitudeMeters>
            <DistanceMeters>NAN</DistanceMeters>
          </Trackpoint>
          <Trackpoint>
            <Time>2019-10-04T16:34:34.000Z</Time>
            <Position>
              <LatitudeDegrees>42.8064001165330410003662109375</LatitudeDegrees>
              <LongitudeDegrees>-5.63154987059533596038818359375</LongitudeDegrees>
            </Position>
            <AltitudeMeters>1014.4000244140625</AltitudeMeters>
            <DistanceMeters>NAN</DistanceMeters>
          </Trackpoint>
          <Trackpoint>
            <Time>2019-10-04T16:34:36.000Z</Time>
            <Position>
              <LatitudeDegrees>42.80625854618847370147705078125</LatitudeDegrees>
              <LongitudeDegrees>-5.631660930812358856201171875</LongitudeDegrees>
            </Position>
            <AltitudeMeters>1014</AltitudeMeters>
            <DistanceMeters>NAN</DistanceMeters>
          </Trackpoint>
          <Trackpoint>
            <Time>2019-10-04T16:34:39.000Z</Time>
            <Position>
              <LatitudeDegrees>42.806051261723041534423828125</LatitudeDegrees>
              <LongitudeDegrees>-5.63183284364640712738037109375</LongitudeDegrees>
            </Position>
            <AltitudeMeters>1013.4000244140625</AltitudeMeters>
            <DistanceMeters>NAN</DistanceMeters>
          </Trackpoint>
          <Trackpoint>
            <Time>2019-10-04T16:34:41.000Z</Time>
            <Position>
              <LatitudeDegrees>42.80592628754675388336181640625</LatitudeDegrees>
              <LongitudeDegrees>-5.63197080977261066436767578125</LongitudeDegrees>
            </Position>
            <AltitudeMeters>1012.5999755859375</AltitudeMeters>
            <DistanceMeters>NAN</DistanceMeters>
          </Trackpoint>
          <Trackpoint>
            <Time>2019-10-04T16:34:42.000Z</Time>
            <Position>
              <LatitudeDegrees>42.805875577032566070556640625</LatitudeDegrees>
              <LongitudeDegrees>-5.63205814920365810394287109375</LongitudeDegrees>
            </Position>
            <AltitudeMeters>1012.20001220703125</AltitudeMeters>
            <DistanceMeters>NAN</DistanceMeters>
          </Trackpoint>
          <Trackpoint>
            <Time>2019-10-04T16:34:44.000Z</Time>
            <Position>
              <LatitudeDegrees>42.80574892647564411163330078125</LatitudeDegrees>
              <LongitudeDegrees>-5.632190667092800140380859375</LongitudeDegrees>
            </Position>
            <AltitudeMeters>1011.4000244140625</AltitudeMeters>
            <DistanceMeters>NAN</DistanceMeters>
          </Trackpoint>
          <Trackpoint>
            <Time>2019-10-04T16:34:45.000Z</Time>
            <Position>
              <LatitudeDegrees>42.80567013658583164215087890625</LatitudeDegrees>
              <LongitudeDegrees>-5.63222025521099567413330078125</LongitudeDegrees>
            </Position>
            <AltitudeMeters>1011</AltitudeMeters>
            <DistanceMeters>NAN</DistanceMeters>
          </Trackpoint>
          <Trackpoint>
            <Time>2019-10-04T16:34:47.000Z</Time>
            <Position>
              <LatitudeDegrees>42.80550451017916202545166015625</LatitudeDegrees>
              <LongitudeDegrees>-5.63223836012184619903564453125</LongitudeDegrees>
            </Position>
            <AltitudeMeters>1010.5999755859375</AltitudeMeters>
            <DistanceMeters>NAN</DistanceMeters>
          </Trackpoint>
          <Trackpoint>
            <Time>2019-10-04T16:34:49.000Z</Time>
            <Position>
              <LatitudeDegrees>42.8053409792482852935791015625</LatitudeDegrees>
              <LongitudeDegrees>-5.6322548724710941314697265625</LongitudeDegrees>
            </Position>
            <AltitudeMeters>1009.79998779296875</AltitudeMeters>
            <DistanceMeters>NAN</DistanceMeters>
          </Trackpoint>
          <Trackpoint>
            <Time>2019-10-04T16:34:53.000Z</Time>
            <Position>
              <LatitudeDegrees>42.8050201199948787689208984375</LatitudeDegrees>
              <LongitudeDegrees>-5.632328130304813385009765625</LongitudeDegrees>
            </Position>
            <AltitudeMeters>1008.5999755859375</AltitudeMeters>
            <DistanceMeters>NAN</DistanceMeters>
          </Trackpoint>
          <Trackpoint>
            <Time>2019-10-04T16:34:57.000Z</Time>
            <Position>
              <LatitudeDegrees>42.804707475006580352783203125</LatitudeDegrees>
              <LongitudeDegrees>-5.63242091797292232513427734375</LongitudeDegrees>
            </Position>
            <AltitudeMeters>1007.4000244140625</AltitudeMeters>
            <DistanceMeters>NAN</DistanceMeters>
          </Trackpoint>
          <Trackpoint>
            <Time>2019-10-04T16:35:02.000Z</Time>
            <Position>
              <LatitudeDegrees>42.80431126244366168975830078125</LatitudeDegrees>
              <LongitudeDegrees>-5.6325007975101470947265625</LongitudeDegrees>
            </Position>
            <AltitudeMeters>1006.5999755859375</AltitudeMeters>
            <DistanceMeters>NAN</DistanceMeters>
          </Trackpoint>
          <Trackpoint>
            <Time>2019-10-04T16:35:03.000Z</Time>
            <Position>
              <LatitudeDegrees>42.8042323887348175048828125</LatitudeDegrees>
              <LongitudeDegrees>-5.6325103528797626495361328125</LongitudeDegrees>
            </Position>
            <AltitudeMeters>1006.4000244140625</AltitudeMeters>
            <DistanceMeters>NAN</DistanceMeters>
          </Trackpoint>
          <Trackpoint>
            <Time>2019-10-04T16:35:09.000Z</Time>
            <Position>
              <LatitudeDegrees>42.80377649702131748199462890625</LatitudeDegrees>
              <LongitudeDegrees>-5.6325495801866054534912109375</LongitudeDegrees>
            </Position>
            <AltitudeMeters>1006.20001220703125</AltitudeMeters>
            <DistanceMeters>NAN</DistanceMeters>
          </Trackpoint>
          <Trackpoint>
            <Time>2019-10-04T16:35:17.000Z</Time>
            <Position>
              <LatitudeDegrees>42.8031982295215129852294921875</LatitudeDegrees>
              <LongitudeDegrees>-5.63253843225538730621337890625</LongitudeDegrees>
            </Position>
            <AltitudeMeters>1006.79998779296875</AltitudeMeters>
            <DistanceMeters>NAN</DistanceMeters>
          </Trackpoint>
          <Trackpoint>
            <Time>2019-10-04T16:35:18.000Z</Time>
            <Position>
              <LatitudeDegrees>42.8031273186206817626953125</LatitudeDegrees>
              <LongitudeDegrees>-5.632531978189945220947265625</LongitudeDegrees>
            </Position>
            <AltitudeMeters>1006.79998779296875</AltitudeMeters>
            <DistanceMeters>NAN</DistanceMeters>
          </Trackpoint>
          <Trackpoint>
            <Time>2019-10-04T16:35:21.000Z</Time>
            <Position>
              <LatitudeDegrees>42.80290913768112659454345703125</LatitudeDegrees>
              <LongitudeDegrees>-5.6325115263462066650390625</LongitudeDegrees>
            </Position>
            <AltitudeMeters>1007.20001220703125</AltitudeMeters>
            <DistanceMeters>NAN</DistanceMeters>
          </Trackpoint>
          <Trackpoint>
            <Time>2019-10-04T16:35:23.000Z</Time>
            <Position>
              <LatitudeDegrees>42.80276463367044925689697265625</LatitudeDegrees>
              <LongitudeDegrees>-5.63249803148210048675537109375</LongitudeDegrees>
            </Position>
            <AltitudeMeters>1007.79998779296875</AltitudeMeters>
            <DistanceMeters>NAN</DistanceMeters>
          </Trackpoint>
          <Trackpoint>
            <Time>2019-10-04T16:35:27.000Z</Time>
            <Position>
              <LatitudeDegrees>42.8024773858487606048583984375</LatitudeDegrees>
              <LongitudeDegrees>-5.63247187994420528411865234375</LongitudeDegrees>
            </Position>
            <AltitudeMeters>1007.79998779296875</AltitudeMeters>
            <DistanceMeters>NAN</DistanceMeters>
          </Trackpoint>
          <Trackpoint>
            <Time>2019-10-04T16:35:31.000Z</Time>
            <Position>
              <LatitudeDegrees>42.80220153741538524627685546875</LatitudeDegrees>
              <LongitudeDegrees>-5.6324392743408679962158203125</LongitudeDegrees>
            </Position>
            <AltitudeMeters>1007.79998779296875</AltitudeMeters>
            <DistanceMeters>NAN</DistanceMeters>
          </Trackpoint>
          <Trackpoint>
            <Time>2019-10-04T16:35:33.000Z</Time>
            <Position>
              <LatitudeDegrees>42.8020678460597991943359375</LatitudeDegrees>
              <LongitudeDegrees>-5.632434077560901641845703125</LongitudeDegrees>
            </Position>
            <AltitudeMeters>1007.79998779296875</AltitudeMeters>
            <DistanceMeters>NAN</DistanceMeters>
          </Trackpoint>
          <Trackpoint>
            <Time>2019-10-04T16:35:40.000Z</Time>
            <Position>
              <LatitudeDegrees>42.80160105787217617034912109375</LatitudeDegrees>
              <LongitudeDegrees>-5.63242661766707897186279296875</LongitudeDegrees>
            </Position>
            <AltitudeMeters>1008.4000244140625</AltitudeMeters>
            <DistanceMeters>NAN</DistanceMeters>
          </Trackpoint>
          <Trackpoint>
            <Time>2019-10-04T16:35:41.000Z</Time>
            <Position>
              <LatitudeDegrees>42.80153685249388217926025390625</LatitudeDegrees>
              <LongitudeDegrees>-5.6324339099228382110595703125</LongitudeDegrees>
            </Position>
            <AltitudeMeters>1008.4000244140625</AltitudeMeters>
            <DistanceMeters>NAN</DistanceMeters>
          </Trackpoint>
          <Trackpoint>
            <Time>2019-10-04T16:35:46.000Z</Time>
            <Position>
              <LatitudeDegrees>42.80120811425149440765380859375</LatitudeDegrees>
              <LongitudeDegrees>-5.63246198929846286773681640625</LongitudeDegrees>
            </Position>
            <AltitudeMeters>1008.79998779296875</AltitudeMeters>
            <DistanceMeters>NAN</DistanceMeters>
          </Trackpoint>
          <Trackpoint>
            <Time>2019-10-04T16:35:47.000Z</Time>
            <Position>
              <LatitudeDegrees>42.80114047229290008544921875</LatitudeDegrees>
              <LongitudeDegrees>-5.6324644200503826141357421875</LongitudeDegrees>
            </Position>
            <AltitudeMeters>1008.5999755859375</AltitudeMeters>
            <DistanceMeters>NAN</DistanceMeters>
          </Trackpoint>
          <Trackpoint>
            <Time>2019-10-04T16:35:55.000Z</Time>
            <Position>
              <LatitudeDegrees>42.80059891752898693084716796875</LatitudeDegrees>
              <LongitudeDegrees>-5.63251479528844356536865234375</LongitudeDegrees>
            </Position>
            <AltitudeMeters>1008.4000244140625</AltitudeMeters>
            <DistanceMeters>NAN</DistanceMeters>
          </Trackpoint>
          <Trackpoint>
            <Time>2019-10-04T16:35:57.000Z</Time>
            <Position>
              <LatitudeDegrees>42.8004623763263225555419921875</LatitudeDegrees>
              <LongitudeDegrees>-5.63253122381865978240966796875</LongitudeDegrees>
            </Position>
            <AltitudeMeters>1008.5999755859375</AltitudeMeters>
            <DistanceMeters>NAN</DistanceMeters>
          </Trackpoint>
          <Trackpoint>
            <Time>2019-10-04T16:36:05.000Z</Time>
            <Position>
              <LatitudeDegrees>42.79993004165589809417724609375</LatitudeDegrees>
              <LongitudeDegrees>-5.6326458044350147247314453125</LongitudeDegrees>
            </Position>
            <AltitudeMeters>1008.4000244140625</AltitudeMeters>
            <DistanceMeters>NAN</DistanceMeters>
          </Trackpoint>
          <Trackpoint>
            <Time>2019-10-04T16:36:07.000Z</Time>
            <Position>
              <LatitudeDegrees>42.79980146326124668121337890625</LatitudeDegrees>
              <LongitudeDegrees>-5.63268260098993778228759765625</LongitudeDegrees>
            </Position>
            <AltitudeMeters>1007.5999755859375</AltitudeMeters>
            <DistanceMeters>NAN</DistanceMeters>
          </Trackpoint>
          <Trackpoint>
            <Time>2019-10-04T16:36:15.000Z</Time>
            <Position>
              <LatitudeDegrees>42.7992754988372325897216796875</LatitudeDegrees>
              <LongitudeDegrees>-5.63285677693784236907958984375</LongitudeDegrees>
            </Position>
            <AltitudeMeters>1006.4000244140625</AltitudeMeters>
            <DistanceMeters>NAN</DistanceMeters>
          </Trackpoint>
          <Trackpoint>
            <Time>2019-10-04T16:36:17.000Z</Time>
            <Position>
              <LatitudeDegrees>42.799170725047588348388671875</LatitudeDegrees>
              <LongitudeDegrees>-5.63289483077824115753173828125</LongitudeDegrees>
            </Position>
            <AltitudeMeters>1005.79998779296875</AltitudeMeters>
            <DistanceMeters>NAN</DistanceMeters>
          </Trackpoint>
          <Trackpoint>
            <Time>2019-10-04T16:36:19.000Z</Time>
            <Position>
              <LatitudeDegrees>42.799047343432903289794921875</LatitudeDegrees>
              <LongitudeDegrees>-5.6329398415982723236083984375</LongitudeDegrees>
            </Position>
            <AltitudeMeters>1005.4000244140625</AltitudeMeters>
            <DistanceMeters>NAN</DistanceMeters>
          </Trackpoint>
          <Trackpoint>
            <Time>2019-10-04T16:36:26.000Z</Time>
            <Position>
              <LatitudeDegrees>42.7986089698970317840576171875</LatitudeDegrees>
              <LongitudeDegrees>-5.6330940686166286468505859375</LongitudeDegrees>
            </Position>
            <AltitudeMeters>1004.20001220703125</AltitudeMeters>
            <DistanceMeters>NAN</DistanceMeters>
          </Trackpoint>
          <Trackpoint>
            <Time>2019-10-04T16:36:28.000Z</Time>
            <Position>
              <LatitudeDegrees>42.7984829060733318328857421875</LatitudeDegrees>
              <LongitudeDegrees>-5.63313086517155170440673828125</LongitudeDegrees>
            </Position>
            <AltitudeMeters>1003.79998779296875</AltitudeMeters>
            <DistanceMeters>NAN</DistanceMeters>
          </Trackpoint>
          <Trackpoint>
            <Time>2019-10-04T16:36:30.000Z</Time>
            <Position>
              <LatitudeDegrees>42.79835659079253673553466796875</LatitudeDegrees>
              <LongitudeDegrees>-5.63316439278423786163330078125</LongitudeDegrees>
            </Position>
            <AltitudeMeters>1003</AltitudeMeters>
            <DistanceMeters>NAN</DistanceMeters>
          </Trackpoint>
          <Trackpoint>
            <Time>2019-10-04T16:36:35.000Z</Time>
            <Position>
              <LatitudeDegrees>42.79804159887135028839111328125</LatitudeDegrees>
              <LongitudeDegrees>-5.6332311965525150299072265625</LongitudeDegrees>
            </Position>
            <AltitudeMeters>1001.79998779296875</AltitudeMeters>
            <DistanceMeters>NAN</DistanceMeters>
          </Trackpoint>
          <Trackpoint>
            <Time>2019-10-04T16:36:38.000Z</Time>
            <Position>
              <LatitudeDegrees>42.7978515811264514923095703125</LatitudeDegrees>
              <LongitudeDegrees>-5.63325374387204647064208984375</LongitudeDegrees>
            </Position>
            <AltitudeMeters>1001.20001220703125</AltitudeMeters>
            <DistanceMeters>NAN</DistanceMeters>
          </Trackpoint>
          <Trackpoint>
            <Time>2019-10-04T16:36:39.000Z</Time>
            <Position>
              <LatitudeDegrees>42.7977888844907283782958984375</LatitudeDegrees>
              <LongitudeDegrees>-5.6332573480904102325439453125</LongitudeDegrees>
            </Position>
            <AltitudeMeters>1000.5999755859375</AltitudeMeters>
            <DistanceMeters>NAN</DistanceMeters>
          </Trackpoint>
          <Trackpoint>
            <Time>2019-10-04T16:36:46.000Z</Time>
            <Position>
              <LatitudeDegrees>42.7973429672420024871826171875</LatitudeDegrees>
              <LongitudeDegrees>-5.63323446549475193023681640625</LongitudeDegrees>
            </Position>
            <AltitudeMeters>999.4000244140625</AltitudeMeters>
            <DistanceMeters>NAN</DistanceMeters>
          </Trackpoint>
          <Trackpoint>
            <Time>2019-10-04T16:36:51.000Z</Time>
            <Position>
              <LatitudeDegrees>42.79702738858759403228759765625</LatitudeDegrees>
              <LongitudeDegrees>-5.63315902836620807647705078125</LongitudeDegrees>
            </Position>
            <AltitudeMeters>998</AltitudeMeters>
            <DistanceMeters>NAN</DistanceMeters>
          </Trackpoint>
          <Trackpoint>
            <Time>2019-10-04T16:36:54.000Z</Time>
            <Position>
              <LatitudeDegrees>42.796841561794281005859375</LatitudeDegrees>
              <LongitudeDegrees>-5.6330900453031063079833984375</LongitudeDegrees>
            </Position>
            <AltitudeMeters>997.5999755859375</AltitudeMeters>
            <DistanceMeters>NAN</DistanceMeters>
          </Trackpoint>
          <Trackpoint>
            <Time>2019-10-04T16:36:58.000Z</Time>
            <Position>
              <LatitudeDegrees>42.7965969778597354888916015625</LatitudeDegrees>
              <LongitudeDegrees>-5.63297362066805362701416015625</LongitudeDegrees>
            </Position>
            <AltitudeMeters>996.79998779296875</AltitudeMeters>
            <DistanceMeters>NAN</DistanceMeters>
          </Trackpoint>
          <Trackpoint>
            <Time>2019-10-04T16:37:03.000Z</Time>
            <Position>
              <LatitudeDegrees>42.79630788601934909820556640625</LatitudeDegrees>
              <LongitudeDegrees>-5.63280589878559112548828125</LongitudeDegrees>
            </Position>
            <AltitudeMeters>995.5999755859375</AltitudeMeters>
            <DistanceMeters>NAN</DistanceMeters>
          </Trackpoint>
          <Trackpoint>
            <Time>2019-10-04T16:37:10.000Z</Time>
            <Position>
              <LatitudeDegrees>42.795952074229717254638671875</LatitudeDegrees>
              <LongitudeDegrees>-5.632526613771915435791015625</LongitudeDegrees>
            </Position>
            <AltitudeMeters>994.5999755859375</AltitudeMeters>
            <DistanceMeters>NAN</DistanceMeters>
          </Trackpoint>
          <Trackpoint>
            <Time>2019-10-04T16:37:15.000Z</Time>
            <Position>
              <LatitudeDegrees>42.79574294574558734893798828125</LatitudeDegrees>
              <LongitudeDegrees>-5.6323225982487201690673828125</LongitudeDegrees>
            </Position>
            <AltitudeMeters>993.20001220703125</AltitudeMeters>
            <DistanceMeters>NAN</DistanceMeters>
          </Trackpoint>
          <Trackpoint>
            <Time>2019-10-04T16:37:17.000Z</Time>
            <Position>
              <LatitudeDegrees>42.79567102901637554168701171875</LatitudeDegrees>
              <LongitudeDegrees>-5.6322431378066539764404296875</LongitudeDegrees>
            </Position>
            <AltitudeMeters>993.20001220703125</AltitudeMeters>
            <DistanceMeters>NAN</DistanceMeters>
          </Trackpoint>
          <Trackpoint>
            <Time>2019-10-04T16:37:20.000Z</Time>
            <Position>
              <LatitudeDegrees>42.79556826688349246978759765625</LatitudeDegrees>
              <LongitudeDegrees>-5.632119588553905487060546875</LongitudeDegrees>
            </Position>
            <AltitudeMeters>992.20001220703125</AltitudeMeters>
            <DistanceMeters>NAN</DistanceMeters>
          </Trackpoint>
          <Trackpoint>
            <Time>2019-10-04T16:37:24.000Z</Time>
            <Position>
              <LatitudeDegrees>42.79542493633925914764404296875</LatitudeDegrees>
              <LongitudeDegrees>-5.63193879090249538421630859375</LongitudeDegrees>
            </Position>
            <AltitudeMeters>991.4000244140625</AltitudeMeters>
            <DistanceMeters>NAN</DistanceMeters>
          </Trackpoint>
          <Trackpoint>
            <Time>2019-10-04T16:37:27.000Z</Time>
            <Position>
              <LatitudeDegrees>42.79535050503909587860107421875</LatitudeDegrees>
              <LongitudeDegrees>-5.63183619640767574310302734375</LongitudeDegrees>
            </Position>
            <AltitudeMeters>991</AltitudeMeters>
            <DistanceMeters>NAN</DistanceMeters>
          </Trackpoint>
          <Trackpoint>
            <Time>2019-10-04T16:37:33.000Z</Time>
            <Position>
              <LatitudeDegrees>42.79518756084144115447998046875</LatitudeDegrees>
              <LongitudeDegrees>-5.631588511168956756591796875</LongitudeDegrees>
            </Position>
            <AltitudeMeters>989.79998779296875</AltitudeMeters>
            <DistanceMeters>NAN</DistanceMeters>
          </Trackpoint>
          <Trackpoint>
            <Time>2019-10-04T16:37:38.000Z</Time>
            <Position>
              <LatitudeDegrees>42.7950617484748363494873046875</LatitudeDegrees>
              <LongitudeDegrees>-5.6313838250935077667236328125</LongitudeDegrees>
            </Position>
            <AltitudeMeters>988.79998779296875</AltitudeMeters>
            <DistanceMeters>NAN</DistanceMeters>
          </Trackpoint>
          <Trackpoint>
            <Time>2019-10-04T16:37:42.000Z</Time>
            <Position>
              <LatitudeDegrees>42.79496527276933193206787109375</LatitudeDegrees>
              <LongitudeDegrees>-5.63121677376329898834228515625</LongitudeDegrees>
            </Position>
            <AltitudeMeters>988</AltitudeMeters>
            <DistanceMeters>NAN</DistanceMeters>
          </Trackpoint>
          <Trackpoint>
            <Time>2019-10-04T16:37:43.000Z</Time>
            <Position>
              <LatitudeDegrees>42.7949390374124050140380859375</LatitudeDegrees>
              <LongitudeDegrees>-5.6311752833425998687744140625</LongitudeDegrees>
            </Position>
            <AltitudeMeters>987.79998779296875</AltitudeMeters>
            <DistanceMeters>NAN</DistanceMeters>
          </Trackpoint>
          <Trackpoint>
            <Time>2019-10-04T16:37:47.000Z</Time>
            <Position>
              <LatitudeDegrees>42.79483702965080738067626953125</LatitudeDegrees>
              <LongitudeDegrees>-5.63101015985012054443359375</LongitudeDegrees>
            </Position>
            <AltitudeMeters>986.4000244140625</AltitudeMeters>
            <DistanceMeters>NAN</DistanceMeters>
          </Trackpoint>
          <Trackpoint>
            <Time>2019-10-04T16:37:51.000Z</Time>
            <Position>
              <LatitudeDegrees>42.7947429008781909942626953125</LatitudeDegrees>
              <LongitudeDegrees>-5.630841515958309173583984375</LongitudeDegrees>
            </Position>
            <AltitudeMeters>985.5999755859375</AltitudeMeters>
            <DistanceMeters>NAN</DistanceMeters>
          </Trackpoint>
          <Trackpoint>
            <Time>2019-10-04T16:37:54.000Z</Time>
            <Position>
              <LatitudeDegrees>42.79466964304447174072265625</LatitudeDegrees>
              <LongitudeDegrees>-5.63072307966649532318115234375</LongitudeDegrees>
            </Position>
            <AltitudeMeters>985.4000244140625</AltitudeMeters>
            <DistanceMeters>NAN</DistanceMeters>
          </Trackpoint>
          <Trackpoint>
            <Time>2019-10-04T16:37:59.000Z</Time>
            <Position>
              <LatitudeDegrees>42.7945464290678501129150390625</LatitudeDegrees>
              <LongitudeDegrees>-5.63054370693862438201904296875</LongitudeDegrees>
            </Position>
            <AltitudeMeters>984.20001220703125</AltitudeMeters>
            <DistanceMeters>NAN</DistanceMeters>
          </Trackpoint>
          <Trackpoint>
            <Time>2019-10-04T16:38:05.000Z</Time>
            <Position>
              <LatitudeDegrees>42.79439815320074558258056640625</LatitudeDegrees>
              <LongitudeDegrees>-5.63031873665750026702880859375</LongitudeDegrees>
            </Position>
            <AltitudeMeters>983</AltitudeMeters>
            <DistanceMeters>NAN</DistanceMeters>
          </Trackpoint>
          <Trackpoint>
            <Time>2019-10-04T16:38:07.000Z</Time>
            <Position>
              <LatitudeDegrees>42.79434601776301860809326171875</LatitudeDegrees>
              <LongitudeDegrees>-5.63024162314832210540771484375</LongitudeDegrees>
            </Position>
            <AltitudeMeters>982.5999755859375</AltitudeMeters>
            <DistanceMeters>NAN</DistanceMeters>
          </Trackpoint>
          <Trackpoint>
            <Time>2019-10-04T16:38:10.000Z</Time>
            <Position>
              <LatitudeDegrees>42.79426504857838153839111328125</LatitudeDegrees>
              <LongitudeDegrees>-5.63013383187353610992431640625</LongitudeDegrees>
            </Position>
            <AltitudeMeters>981.79998779296875</AltitudeMeters>
            <DistanceMeters>NAN</DistanceMeters>
          </Trackpoint>
          <Trackpoint>
            <Time>2019-10-04T16:38:16.000Z</Time>
            <Position>
              <LatitudeDegrees>42.7941191196441650390625</LatitudeDegrees>
              <LongitudeDegrees>-5.629939623177051544189453125</LongitudeDegrees>
            </Position>
            <AltitudeMeters>981</AltitudeMeters>
            <DistanceMeters>NAN</DistanceMeters>
          </Trackpoint>
          <Trackpoint>
            <Time>2019-10-04T16:38:17.000Z</Time>
            <Position>
              <LatitudeDegrees>42.794095315039157867431640625</LatitudeDegrees>
              <LongitudeDegrees>-5.62990902923047542572021484375</LongitudeDegrees>
            </Position>
            <AltitudeMeters>980.5999755859375</AltitudeMeters>
            <DistanceMeters>NAN</DistanceMeters>
          </Trackpoint>
          <Trackpoint>
            <Time>2019-10-04T16:38:24.000Z</Time>
            <Position>
              <LatitudeDegrees>42.793936394155025482177734375</LatitudeDegrees>
              <LongitudeDegrees>-5.62971071340143680572509765625</LongitudeDegrees>
            </Position>
            <AltitudeMeters>979.5999755859375</AltitudeMeters>
            <DistanceMeters>NAN</DistanceMeters>
          </Trackpoint>
          <Trackpoint>
            <Time>2019-10-04T16:38:25.000Z</Time>
            <Position>
              <LatitudeDegrees>42.7939137630164623260498046875</LatitudeDegrees>
              <LongitudeDegrees>-5.6296859867870807647705078125</LongitudeDegrees>
            </Position>
            <AltitudeMeters>979.5999755859375</AltitudeMeters>
            <DistanceMeters>NAN</DistanceMeters>
          </Trackpoint>
          <Trackpoint>
            <Time>2019-10-04T16:38:33.000Z</Time>
            <Position>
              <LatitudeDegrees>42.7937320433557033538818359375</LatitudeDegrees>
              <LongitudeDegrees>-5.6294885091483592987060546875</LongitudeDegrees>
            </Position>
            <AltitudeMeters>978.4000244140625</AltitudeMeters>
            <DistanceMeters>NAN</DistanceMeters>
          </Trackpoint>
          <Trackpoint>
            <Time>2019-10-04T16:38:35.000Z</Time>
            <Position>
              <LatitudeDegrees>42.7936887927353382110595703125</LatitudeDegrees>
              <LongitudeDegrees>-5.62944031320512294769287109375</LongitudeDegrees>
            </Position>
            <AltitudeMeters>977.79998779296875</AltitudeMeters>
            <DistanceMeters>NAN</DistanceMeters>
          </Trackpoint>
          <Trackpoint>
            <Time>2019-10-04T16:38:40.000Z</Time>
            <Position>
              <LatitudeDegrees>42.79357932507991790771484375</LatitudeDegrees>
              <LongitudeDegrees>-5.629322044551372528076171875</LongitudeDegrees>
            </Position>
            <AltitudeMeters>977.4000244140625</AltitudeMeters>
            <DistanceMeters>NAN</DistanceMeters>
          </Trackpoint>
          <Trackpoint>
            <Time>2019-10-04T16:38:46.000Z</Time>
            <Position>
              <LatitudeDegrees>42.79344395734369754791259765625</LatitudeDegrees>
              <LongitudeDegrees>-5.629183910787105560302734375</LongitudeDegrees>
            </Position>
            <AltitudeMeters>976.5999755859375</AltitudeMeters>
            <DistanceMeters>NAN</DistanceMeters>
          </Trackpoint>
          <Trackpoint>
            <Time>2019-10-04T16:38:47.000Z</Time>
            <Position>
              <LatitudeDegrees>42.7934199012815952301025390625</LatitudeDegrees>
              <LongitudeDegrees>-5.62916069291532039642333984375</LongitudeDegrees>
            </Position>
            <AltitudeMeters>976.4000244140625</AltitudeMeters>
            <DistanceMeters>NAN</DistanceMeters>
          </Trackpoint>
          <Trackpoint>
            <Time>2019-10-04T16:38:53.000Z</Time>
            <Position>
              <LatitudeDegrees>42.7932770736515522003173828125</LatitudeDegrees>
              <LongitudeDegrees>-5.62903412617743015289306640625</LongitudeDegrees>
            </Position>
            <AltitudeMeters>975.20001220703125</AltitudeMeters>
            <DistanceMeters>NAN</DistanceMeters>
          </Trackpoint>
          <Trackpoint>
            <Time>2019-10-04T16:38:55.000Z</Time>
            <Position>
              <LatitudeDegrees>42.79322904534637928009033203125</LatitudeDegrees>
              <LongitudeDegrees>-5.62899489887058734893798828125</LongitudeDegrees>
            </Position>
            <AltitudeMeters>975.20001220703125</AltitudeMeters>
            <DistanceMeters>NAN</DistanceMeters>
          </Trackpoint>
          <Trackpoint>
            <Time>2019-10-04T16:39:00.000Z</Time>
            <Position>
              <LatitudeDegrees>42.79310499317944049835205078125</LatitudeDegrees>
              <LongitudeDegrees>-5.62889817170798778533935546875</LongitudeDegrees>
            </Position>
            <AltitudeMeters>974</AltitudeMeters>
            <DistanceMeters>NAN</DistanceMeters>
          </Trackpoint>
          <Trackpoint>
            <Time>2019-10-04T16:39:06.000Z</Time>
            <Position>
              <LatitudeDegrees>42.79295596294105052947998046875</LatitudeDegrees>
              <LongitudeDegrees>-5.62878820113837718963623046875</LongitudeDegrees>
            </Position>
            <AltitudeMeters>973.20001220703125</AltitudeMeters>
            <DistanceMeters>NAN</DistanceMeters>
          </Trackpoint>
          <Trackpoint>
            <Time>2019-10-04T16:39:07.000Z</Time>
            <Position>
              <LatitudeDegrees>42.792927883565425872802734375</LatitudeDegrees>
              <LongitudeDegrees>-5.62877244316041469573974609375</LongitudeDegrees>
            </Position>
            <AltitudeMeters>972.79998779296875</AltitudeMeters>
            <DistanceMeters>NAN</DistanceMeters>
          </Trackpoint>
          <Trackpoint>
            <Time>2019-10-04T16:39:11.000Z</Time>
            <Position>
              <LatitudeDegrees>42.79282637871801853179931640625</LatitudeDegrees>
              <LongitudeDegrees>-5.6286935694515705108642578125</LongitudeDegrees>
            </Position>
            <AltitudeMeters>972.20001220703125</AltitudeMeters>
            <DistanceMeters>NAN</DistanceMeters>
          </Trackpoint>
          <Trackpoint>
            <Time>2019-10-04T16:39:12.000Z</Time>
            <Position>
              <LatitudeDegrees>42.7928026579320430755615234375</LatitudeDegrees>
              <LongitudeDegrees>-5.62867286615073680877685546875</LongitudeDegrees>
            </Position>
            <AltitudeMeters>972</AltitudeMeters>
            <DistanceMeters>NAN</DistanceMeters>
          </Trackpoint>
          <Trackpoint>
            <Time>2019-10-04T16:39:15.000Z</Time>
            <Position>
              <LatitudeDegrees>42.79269847087562084197998046875</LatitudeDegrees>
              <LongitudeDegrees>-5.6285973452031612396240234375</LongitudeDegrees>
            </Position>
            <AltitudeMeters>971.4000244140625</AltitudeMeters>
            <DistanceMeters>NAN</DistanceMeters>
          </Trackpoint>
          <Trackpoint>
            <Time>2019-10-04T16:39:20.000Z</Time>
            <Position>
              <LatitudeDegrees>42.79259369708597660064697265625</LatitudeDegrees>
              <LongitudeDegrees>-5.628523416817188262939453125</LongitudeDegrees>
            </Position>
            <AltitudeMeters>970.5999755859375</AltitudeMeters>
            <DistanceMeters>NAN</DistanceMeters>
          </Trackpoint>
          <Trackpoint>
            <Time>2019-10-04T16:39:21.000Z</Time>
            <Position>
              <LatitudeDegrees>42.7925666235387325286865234375</LatitudeDegrees>
              <LongitudeDegrees>-5.62850388698279857635498046875</LongitudeDegrees>
            </Position>
            <AltitudeMeters>970</AltitudeMeters>
            <DistanceMeters>NAN</DistanceMeters>
          </Trackpoint>
          <Trackpoint>
            <Time>2019-10-04T16:39:28.000Z</Time>
            <Position>
              <LatitudeDegrees>42.79238305985927581787109375</LatitudeDegrees>
              <LongitudeDegrees>-5.62838536687195301055908203125</LongitudeDegrees>
            </Position>
            <AltitudeMeters>969</AltitudeMeters>
            <DistanceMeters>NAN</DistanceMeters>
          </Trackpoint>
          <Trackpoint>
            <Time>2019-10-04T16:39:30.000Z</Time>
            <Position>
              <LatitudeDegrees>42.792331092059612274169921875</LatitudeDegrees>
              <LongitudeDegrees>-5.6283529289066791534423828125</LongitudeDegrees>
            </Position>
            <AltitudeMeters>968.4000244140625</AltitudeMeters>
            <DistanceMeters>NAN</DistanceMeters>
          </Trackpoint>
          <Trackpoint>
            <Time>2019-10-04T16:39:31.000Z</Time>
            <Position>
              <LatitudeDegrees>42.79230519197881221771240234375</LatitudeDegrees>
              <LongitudeDegrees>-5.62833599746227264404296875</LongitudeDegrees>
            </Position>
            <AltitudeMeters>967.5999755859375</AltitudeMeters>
            <DistanceMeters>NAN</DistanceMeters>
          </Trackpoint>
          <Trackpoint>
            <Time>2019-10-04T16:39:34.000Z</Time>
            <Position>
              <LatitudeDegrees>42.792219780385494232177734375</LatitudeDegrees>
              <LongitudeDegrees>-5.62828696332871913909912109375</LongitudeDegrees>
            </Position>
            <AltitudeMeters>966.20001220703125</AltitudeMeters>
            <DistanceMeters>NAN</DistanceMeters>
          </Trackpoint>
          <Trackpoint>
            <Time>2019-10-04T16:39:36.000Z</Time>
            <Position>
              <LatitudeDegrees>42.792163789272308349609375</LatitudeDegrees>
              <LongitudeDegrees>-5.62825896777212619781494140625</LongitudeDegrees>
            </Position>
            <AltitudeMeters>964.79998779296875</AltitudeMeters>
            <DistanceMeters>NAN</DistanceMeters>
          </Trackpoint>
          <Trackpoint>
            <Time>2019-10-04T16:39:38.000Z</Time>
            <Position>
              <LatitudeDegrees>42.79210989363491535186767578125</LatitudeDegrees>
              <LongitudeDegrees>-5.62822661362588405609130859375</LongitudeDegrees>
            </Position>
            <AltitudeMeters>964.20001220703125</AltitudeMeters>
            <DistanceMeters>NAN</DistanceMeters>
          </Trackpoint>
          <Trackpoint>
            <Time>2019-10-04T16:39:40.000Z</Time>
            <Position>
              <LatitudeDegrees>42.79205507598817348480224609375</LatitudeDegrees>
              <LongitudeDegrees>-5.62818906269967555999755859375</LongitudeDegrees>
            </Position>
            <AltitudeMeters>963.4000244140625</AltitudeMeters>
            <DistanceMeters>NAN</DistanceMeters>
          </Trackpoint>
          <Trackpoint>
            <Time>2019-10-04T16:39:43.000Z</Time>
            <Position>
              <LatitudeDegrees>42.79196689836680889129638671875</LatitudeDegrees>
              <LongitudeDegrees>-5.62814648263156414031982421875</LongitudeDegrees>
            </Position>
            <AltitudeMeters>962.20001220703125</AltitudeMeters>
            <DistanceMeters>NAN</DistanceMeters>
          </Trackpoint>
          <Trackpoint>
            <Time>2019-10-04T16:39:47.000Z</Time>
            <Position>
              <LatitudeDegrees>42.7918565087020397186279296875</LatitudeDegrees>
              <LongitudeDegrees>-5.628074146807193756103515625</LongitudeDegrees>
            </Position>
            <AltitudeMeters>961.20001220703125</AltitudeMeters>
            <DistanceMeters>NAN</DistanceMeters>
          </Trackpoint>
          <Trackpoint>
            <Time>2019-10-04T16:39:50.000Z</Time>
            <Position>
              <LatitudeDegrees>42.7917730249464511871337890625</LatitudeDegrees>
              <LongitudeDegrees>-5.62802712433040142059326171875</LongitudeDegrees>
            </Position>
            <AltitudeMeters>961</AltitudeMeters>
            <DistanceMeters>NAN</DistanceMeters>
          </Trackpoint>
          <Trackpoint>
            <Time>2019-10-04T16:39:57.000Z</Time>
            <Position>
              <LatitudeDegrees>42.7915842644870281219482421875</LatitudeDegrees>
              <LongitudeDegrees>-5.627923272550106048583984375</LongitudeDegrees>
            </Position>
            <AltitudeMeters>960</AltitudeMeters>
            <DistanceMeters>NAN</DistanceMeters>
          </Trackpoint>
          <Trackpoint>
            <Time>2019-10-04T16:40:02.000Z</Time>
            <Position>
              <LatitudeDegrees>42.79144403524696826934814453125</LatitudeDegrees>
              <LongitudeDegrees>-5.6278516910970211029052734375</LongitudeDegrees>
            </Position>
            <AltitudeMeters>959</AltitudeMeters>
            <DistanceMeters>NAN</DistanceMeters>
          </Trackpoint>
          <Trackpoint>
            <Time>2019-10-04T16:40:08.000Z</Time>
            <Position>
              <LatitudeDegrees>42.79128176160156726837158203125</LatitudeDegrees>
              <LongitudeDegrees>-5.62777533195912837982177734375</LongitudeDegrees>
            </Position>
            <AltitudeMeters>957.5999755859375</AltitudeMeters>
            <DistanceMeters>NAN</DistanceMeters>
          </Trackpoint>
          <Trackpoint>
            <Time>2019-10-04T16:40:12.000Z</Time>
            <Position>
              <LatitudeDegrees>42.791179753839969635009765625</LatitudeDegrees>
              <LongitudeDegrees>-5.62772084958851337432861328125</LongitudeDegrees>
            </Position>
            <AltitudeMeters>956.5999755859375</AltitudeMeters>
            <DistanceMeters>NAN</DistanceMeters>
          </Trackpoint>
          <Trackpoint>
            <Time>2019-10-04T16:40:16.000Z</Time>
            <Position>
              <LatitudeDegrees>42.79108227230608463287353515625</LatitudeDegrees>
              <LongitudeDegrees>-5.627663768827915191650390625</LongitudeDegrees>
            </Position>
            <AltitudeMeters>955.79998779296875</AltitudeMeters>
            <DistanceMeters>NAN</DistanceMeters>
          </Trackpoint>
          <Trackpoint>
            <Time>2019-10-04T16:40:17.000Z</Time>
            <Position>
              <LatitudeDegrees>42.79105762951076030731201171875</LatitudeDegrees>
              <LongitudeDegrees>-5.62764801084995269775390625</LongitudeDegrees>
            </Position>
            <AltitudeMeters>955.4000244140625</AltitudeMeters>
            <DistanceMeters>NAN</DistanceMeters>
          </Trackpoint>
          <Trackpoint>
            <Time>2019-10-04T16:40:24.000Z</Time>
            <Position>
              <LatitudeDegrees>42.79088747687637805938720703125</LatitudeDegrees>
              <LongitudeDegrees>-5.62752253375947475433349609375</LongitudeDegrees>
            </Position>
            <AltitudeMeters>954.4000244140625</AltitudeMeters>
            <DistanceMeters>NAN</DistanceMeters>
          </Trackpoint>
          <Trackpoint>
            <Time>2019-10-04T16:40:25.000Z</Time>
            <Position>
              <LatitudeDegrees>42.7908637560904026031494140625</LatitudeDegrees>
              <LongitudeDegrees>-5.627502165734767913818359375</LongitudeDegrees>
            </Position>
            <AltitudeMeters>954</AltitudeMeters>
            <DistanceMeters>NAN</DistanceMeters>
          </Trackpoint>
          <Trackpoint>
            <Time>2019-10-04T16:40:29.000Z</Time>
            <Position>
              <LatitudeDegrees>42.7907698787748813629150390625</LatitudeDegrees>
              <LongitudeDegrees>-5.62741407193243503570556640625</LongitudeDegrees>
            </Position>
            <AltitudeMeters>953.20001220703125</AltitudeMeters>
            <DistanceMeters>NAN</DistanceMeters>
          </Trackpoint>
          <Trackpoint>
            <Time>2019-10-04T16:40:33.000Z</Time>
            <Position>
              <LatitudeDegrees>42.79067742638289928436279296875</LatitudeDegrees>
              <LongitudeDegrees>-5.6273321807384490966796875</LongitudeDegrees>
            </Position>
            <AltitudeMeters>952.4000244140625</AltitudeMeters>
            <DistanceMeters>NAN</DistanceMeters>
          </Trackpoint>
          <Trackpoint>
            <Time>2019-10-04T16:40:36.000Z</Time>
            <Position>
              <LatitudeDegrees>42.7906106226146221160888671875</LatitudeDegrees>
              <LongitudeDegrees>-5.62726847827434539794921875</LongitudeDegrees>
            </Position>
            <AltitudeMeters>952</AltitudeMeters>
            <DistanceMeters>NAN</DistanceMeters>
          </Trackpoint>
          <Trackpoint>
            <Time>2019-10-04T16:40:43.000Z</Time>
            <Position>
              <LatitudeDegrees>42.79046871699392795562744140625</LatitudeDegrees>
              <LongitudeDegrees>-5.6270934641361236572265625</LongitudeDegrees>
            </Position>
            <AltitudeMeters>951</AltitudeMeters>
            <DistanceMeters>NAN</DistanceMeters>
          </Trackpoint>
          <Trackpoint>
            <Time>2019-10-04T16:40:47.000Z</Time>
            <Position>
              <LatitudeDegrees>42.79038523323833942413330078125</LatitudeDegrees>
              <LongitudeDegrees>-5.62699447385966777801513671875</LongitudeDegrees>
            </Position>
            <AltitudeMeters>949.79998779296875</AltitudeMeters>
            <DistanceMeters>NAN</DistanceMeters>
          </Trackpoint>
          <Trackpoint>
            <Time>2019-10-04T16:40:53.000Z</Time>
            <Position>
              <LatitudeDegrees>42.79026235453784465789794921875</LatitudeDegrees>
              <LongitudeDegrees>-5.6268493831157684326171875</LongitudeDegrees>
            </Position>
            <AltitudeMeters>949.20001220703125</AltitudeMeters>
            <DistanceMeters>NAN</DistanceMeters>
          </Trackpoint>
          <Trackpoint>
            <Time>2019-10-04T16:40:55.000Z</Time>
            <Position>
              <LatitudeDegrees>42.79021960683166980743408203125</LatitudeDegrees>
              <LongitudeDegrees>-5.6267992593348026275634765625</LongitudeDegrees>
            </Position>
            <AltitudeMeters>948.79998779296875</AltitudeMeters>
            <DistanceMeters>NAN</DistanceMeters>
          </Trackpoint>
          <Trackpoint>
            <Time>2019-10-04T16:40:59.000Z</Time>
            <Position>
              <LatitudeDegrees>42.79013805091381072998046875</LatitudeDegrees>
              <LongitudeDegrees>-5.6266926415264606475830078125</LongitudeDegrees>
            </Position>
            <AltitudeMeters>947.79998779296875</AltitudeMeters>
            <DistanceMeters>NAN</DistanceMeters>
          </Trackpoint>
          <Trackpoint>
            <Time>2019-10-04T16:41:03.000Z</Time>
            <Position>
              <LatitudeDegrees>42.79005448333919048309326171875</LatitudeDegrees>
              <LongitudeDegrees>-5.62659323215484619140625</LongitudeDegrees>
            </Position>
            <AltitudeMeters>947.4000244140625</AltitudeMeters>
            <DistanceMeters>NAN</DistanceMeters>
          </Trackpoint>
          <Trackpoint>
            <Time>2019-10-04T16:41:08.000Z</Time>
            <Position>
              <LatitudeDegrees>42.78994518332183361053466796875</LatitudeDegrees>
              <LongitudeDegrees>-5.626458786427974700927734375</LongitudeDegrees>
            </Position>
            <AltitudeMeters>946.5999755859375</AltitudeMeters>
            <DistanceMeters>NAN</DistanceMeters>
          </Trackpoint>
          <Trackpoint>
            <Time>2019-10-04T16:41:11.000Z</Time>
            <Position>
              <LatitudeDegrees>42.7898837439715862274169921875</LatitudeDegrees>
              <LongitudeDegrees>-5.62638477422297000885009765625</LongitudeDegrees>
            </Position>
            <AltitudeMeters>946.20001220703125</AltitudeMeters>
            <DistanceMeters>NAN</DistanceMeters>
          </Trackpoint>
          <Trackpoint>
            <Time>2019-10-04T16:41:14.000Z</Time>
            <Position>
              <LatitudeDegrees>42.7898235619068145751953125</LatitudeDegrees>
              <LongitudeDegrees>-5.62630548141896724700927734375</LongitudeDegrees>
            </Position>
            <AltitudeMeters>945.5999755859375</AltitudeMeters>
            <DistanceMeters>NAN</DistanceMeters>
          </Trackpoint>
          <Trackpoint>
            <Time>2019-10-04T16:41:19.000Z</Time>
            <Position>
              <LatitudeDegrees>42.7897189557552337646484375</LatitudeDegrees>
              <LongitudeDegrees>-5.6261756457388401031494140625</LongitudeDegrees>
            </Position>
            <AltitudeMeters>944.79998779296875</AltitudeMeters>
            <DistanceMeters>NAN</DistanceMeters>
          </Trackpoint>
          <Trackpoint>
            <Time>2019-10-04T16:41:21.000Z</Time>
            <Position>
              <LatitudeDegrees>42.78967813588678836822509765625</LatitudeDegrees>
              <LongitudeDegrees>-5.6261277012526988983154296875</LongitudeDegrees>
            </Position>
            <AltitudeMeters>944.5999755859375</AltitudeMeters>
            <DistanceMeters>NAN</DistanceMeters>
          </Trackpoint>
          <Trackpoint>
            <Time>2019-10-04T16:41:27.000Z</Time>
            <Position>
              <LatitudeDegrees>42.78955710120499134063720703125</LatitudeDegrees>
              <LongitudeDegrees>-5.62597422860562801361083984375</LongitudeDegrees>
            </Position>
            <AltitudeMeters>943.20001220703125</AltitudeMeters>
            <DistanceMeters>NAN</DistanceMeters>
          </Trackpoint>
          <Trackpoint>
            <Time>2019-10-04T16:41:28.000Z</Time>
            <Position>
              <LatitudeDegrees>42.78953832574188709259033203125</LatitudeDegrees>
              <LongitudeDegrees>-5.62594958581030368804931640625</LongitudeDegrees>
            </Position>
            <AltitudeMeters>943.20001220703125</AltitudeMeters>
            <DistanceMeters>NAN</DistanceMeters>
          </Trackpoint>
          <Trackpoint>
            <Time>2019-10-04T16:41:35.000Z</Time>
            <Position>
              <LatitudeDegrees>42.78940287418663501739501953125</LatitudeDegrees>
              <LongitudeDegrees>-5.6257873959839344024658203125</LongitudeDegrees>
            </Position>
            <AltitudeMeters>941.79998779296875</AltitudeMeters>
            <DistanceMeters>NAN</DistanceMeters>
          </Trackpoint>
          <Trackpoint>
            <Time>2019-10-04T16:41:36.000Z</Time>
            <Position>
              <LatitudeDegrees>42.78938359580934047698974609375</LatitudeDegrees>
              <LongitudeDegrees>-5.62575881369411945343017578125</LongitudeDegrees>
            </Position>
            <AltitudeMeters>941.79998779296875</AltitudeMeters>
            <DistanceMeters>NAN</DistanceMeters>
          </Trackpoint>
          <Trackpoint>
            <Time>2019-10-04T16:41:42.000Z</Time>
            <Position>
              <LatitudeDegrees>42.78926054947078227996826171875</LatitudeDegrees>
              <LongitudeDegrees>-5.62560089863836765289306640625</LongitudeDegrees>
            </Position>
            <AltitudeMeters>940.79998779296875</AltitudeMeters>
            <DistanceMeters>NAN</DistanceMeters>
          </Trackpoint>
          <Trackpoint>
            <Time>2019-10-04T16:41:46.000Z</Time>
            <Position>
              <LatitudeDegrees>42.78917756862938404083251953125</LatitudeDegrees>
              <LongitudeDegrees>-5.62549562193453311920166015625</LongitudeDegrees>
            </Position>
            <AltitudeMeters>940</AltitudeMeters>
            <DistanceMeters>NAN</DistanceMeters>
          </Trackpoint>
          <Trackpoint>
            <Time>2019-10-04T16:41:50.000Z</Time>
            <Position>
              <LatitudeDegrees>42.7890966832637786865234375</LatitudeDegrees>
              <LongitudeDegrees>-5.6253887526690959930419921875</LongitudeDegrees>
            </Position>
            <AltitudeMeters>939.79998779296875</AltitudeMeters>
            <DistanceMeters>NAN</DistanceMeters>
          </Trackpoint>
          <Trackpoint>
            <Time>2019-10-04T16:41:55.000Z</Time>
            <Position>
              <LatitudeDegrees>42.7889972738921642303466796875</LatitudeDegrees>
              <LongitudeDegrees>-5.62526511959731578826904296875</LongitudeDegrees>
            </Position>
            <AltitudeMeters>939.4000244140625</AltitudeMeters>
            <DistanceMeters>NAN</DistanceMeters>
          </Trackpoint>
          <Trackpoint>
            <Time>2019-10-04T16:42:02.000Z</Time>
            <Position>
              <LatitudeDegrees>42.78886760585010051727294921875</LatitudeDegrees>
              <LongitudeDegrees>-5.6250953860580921173095703125</LongitudeDegrees>
            </Position>
            <AltitudeMeters>939.5999755859375</AltitudeMeters>
            <DistanceMeters>NAN</DistanceMeters>
          </Trackpoint>
          <Trackpoint>
            <Time>2019-10-04T16:42:08.000Z</Time>
            <Position>
              <LatitudeDegrees>42.78874330222606658935546875</LatitudeDegrees>
              <LongitudeDegrees>-5.62494476325809955596923828125</LongitudeDegrees>
            </Position>
            <AltitudeMeters>939.79998779296875</AltitudeMeters>
            <DistanceMeters>NAN</DistanceMeters>
          </Trackpoint>
          <Trackpoint>
            <Time>2019-10-04T16:42:09.000Z</Time>
            <Position>
              <LatitudeDegrees>42.78872410766780376434326171875</LatitudeDegrees>
              <LongitudeDegrees>-5.6249207071959972381591796875</LongitudeDegrees>
            </Position>
            <AltitudeMeters>940</AltitudeMeters>
            <DistanceMeters>NAN</DistanceMeters>
          </Trackpoint>
          <Trackpoint>
            <Time>2019-10-04T16:42:14.000Z</Time>
            <Position>
              <LatitudeDegrees>42.7886308170855045318603515625</LatitudeDegrees>
              <LongitudeDegrees>-5.62480059452354907989501953125</LongitudeDegrees>
            </Position>
            <AltitudeMeters>940.4000244140625</AltitudeMeters>
            <DistanceMeters>NAN</DistanceMeters>
          </Trackpoint>
          <Trackpoint>
            <Time>2019-10-04T16:42:19.000Z</Time>
            <Position>
              <LatitudeDegrees>42.788537107408046722412109375</LatitudeDegrees>
              <LongitudeDegrees>-5.6246893666684627532958984375</LongitudeDegrees>
            </Position>
            <AltitudeMeters>940.5999755859375</AltitudeMeters>
            <DistanceMeters>NAN</DistanceMeters>
          </Trackpoint>
          <Trackpoint>
            <Time>2019-10-04T16:42:20.000Z</Time>
            <Position>
              <LatitudeDegrees>42.78851724229753017425537109375</LatitudeDegrees>
              <LongitudeDegrees>-5.6246648915112018585205078125</LongitudeDegrees>
            </Position>
            <AltitudeMeters>940.79998779296875</AltitudeMeters>
            <DistanceMeters>NAN</DistanceMeters>
          </Trackpoint>
          <Trackpoint>
            <Time>2019-10-04T16:42:27.000Z</Time>
            <Position>
              <LatitudeDegrees>42.7883729897439479827880859375</LatitudeDegrees>
              <LongitudeDegrees>-5.62447755597531795501708984375</LongitudeDegrees>
            </Position>
            <AltitudeMeters>942</AltitudeMeters>
            <DistanceMeters>NAN</DistanceMeters>
          </Trackpoint>
          <Trackpoint>
            <Time>2019-10-04T16:42:32.000Z</Time>
            <Position>
              <LatitudeDegrees>42.78828724287450313568115234375</LatitudeDegrees>
              <LongitudeDegrees>-5.6243778951466083526611328125</LongitudeDegrees>
            </Position>
            <AltitudeMeters>943.4000244140625</AltitudeMeters>
            <DistanceMeters>NAN</DistanceMeters>
          </Trackpoint>
          <Trackpoint>
            <Time>2019-10-04T16:42:33.000Z</Time>
            <Position>
              <LatitudeDegrees>42.7882724069058895111083984375</LatitudeDegrees>
              <LongitudeDegrees>-5.62435652129352092742919921875</LongitudeDegrees>
            </Position>
            <AltitudeMeters>943.79998779296875</AltitudeMeters>
            <DistanceMeters>NAN</DistanceMeters>
          </Trackpoint>
          <Trackpoint>
            <Time>2019-10-04T16:42:36.000Z</Time>
            <Position>
              <LatitudeDegrees>42.78822270222008228302001953125</LatitudeDegrees>
              <LongitudeDegrees>-5.62429684214293956756591796875</LongitudeDegrees>
            </Position>
            <AltitudeMeters>944.5999755859375</AltitudeMeters>
            <DistanceMeters>NAN</DistanceMeters>
          </Trackpoint>
          <Trackpoint>
            <Time>2019-10-04T16:42:38.000Z</Time>
            <Position>
              <LatitudeDegrees>42.7881892584264278411865234375</LatitudeDegrees>
              <LongitudeDegrees>-5.6242558546364307403564453125</LongitudeDegrees>
            </Position>
            <AltitudeMeters>945.4000244140625</AltitudeMeters>
            <DistanceMeters>NAN</DistanceMeters>
          </Trackpoint>
          <Trackpoint>
            <Time>2019-10-04T16:42:39.000Z</Time>
            <Position>
              <LatitudeDegrees>42.78817291371524333953857421875</LatitudeDegrees>
              <LongitudeDegrees>-5.6242357380688190460205078125</LongitudeDegrees>
            </Position>
            <AltitudeMeters>945.5999755859375</AltitudeMeters>
            <DistanceMeters>NAN</DistanceMeters>
          </Trackpoint>
          <Trackpoint>
            <Time>2019-10-04T16:42:43.000Z</Time>
            <Position>
              <LatitudeDegrees>42.78810351155698299407958984375</LatitudeDegrees>
              <LongitudeDegrees>-5.6241408549249172210693359375</LongitudeDegrees>
            </Position>
            <AltitudeMeters>947</AltitudeMeters>
            <DistanceMeters>NAN</DistanceMeters>
          </Trackpoint>
          <Trackpoint>
            <Time>2019-10-04T16:42:45.000Z</Time>
            <Position>
              <LatitudeDegrees>42.7880667150020599365234375</LatitudeDegrees>
              <LongitudeDegrees>-5.6240912340581417083740234375</LongitudeDegrees>
            </Position>
            <AltitudeMeters>948.20001220703125</AltitudeMeters>
            <DistanceMeters>NAN</DistanceMeters>
          </Trackpoint>
          <Trackpoint>
            <Time>2019-10-04T16:42:46.000Z</Time>
            <Position>
              <LatitudeDegrees>42.7880471013486385345458984375</LatitudeDegrees>
              <LongitudeDegrees>-5.6240706145763397216796875</LongitudeDegrees>
            </Position>
            <AltitudeMeters>948.20001220703125</AltitudeMeters>
            <DistanceMeters>NAN</DistanceMeters>
          </Trackpoint>
          <Trackpoint>
            <Time>2019-10-04T16:42:47.000Z</Time>
            <Position>
              <LatitudeDegrees>42.78802589513361454010009765625</LatitudeDegrees>
              <LongitudeDegrees>-5.624050833284854888916015625</LongitudeDegrees>
            </Position>
            <AltitudeMeters>949.20001220703125</AltitudeMeters>
            <DistanceMeters>NAN</DistanceMeters>
          </Trackpoint>
          <Trackpoint>
            <Time>2019-10-04T16:42:49.000Z</Time>
            <Position>
              <LatitudeDegrees>42.78798884712159633636474609375</LatitudeDegrees>
              <LongitudeDegrees>-5.62400917522609233856201171875</LongitudeDegrees>
            </Position>
            <AltitudeMeters>950.4000244140625</AltitudeMeters>
            <DistanceMeters>NAN</DistanceMeters>
          </Trackpoint>
          <Trackpoint>
            <Time>2019-10-04T16:42:50.000Z</Time>
            <Position>
              <LatitudeDegrees>42.78796956874430179595947265625</LatitudeDegrees>
              <LongitudeDegrees>-5.6239886395633220672607421875</LongitudeDegrees>
            </Position>
            <AltitudeMeters>951.4000244140625</AltitudeMeters>
            <DistanceMeters>NAN</DistanceMeters>
          </Trackpoint>
          <Trackpoint>
            <Time>2019-10-04T16:42:51.000Z</Time>
            <Position>
              <LatitudeDegrees>42.78795129619538784027099609375</LatitudeDegrees>
              <LongitudeDegrees>-5.62396776862442493438720703125</LongitudeDegrees>
            </Position>
            <AltitudeMeters>953</AltitudeMeters>
            <DistanceMeters>NAN</DistanceMeters>
          </Trackpoint>
          <Trackpoint>
            <Time>2019-10-04T16:42:53.000Z</Time>
            <Position>
              <LatitudeDegrees>42.78791894204914569854736328125</LatitudeDegrees>
              <LongitudeDegrees>-5.6239279545843601226806640625</LongitudeDegrees>
            </Position>
            <AltitudeMeters>954.20001220703125</AltitudeMeters>
            <DistanceMeters>NAN</DistanceMeters>
          </Trackpoint>
          <Trackpoint>
            <Time>2019-10-04T16:42:54.000Z</Time>
            <Position>
              <LatitudeDegrees>42.78790242969989776611328125</LatitudeDegrees>
              <LongitudeDegrees>-5.623908676207065582275390625</LongitudeDegrees>
            </Position>
            <AltitudeMeters>955</AltitudeMeters>
            <DistanceMeters>NAN</DistanceMeters>
          </Trackpoint>
          <Trackpoint>
            <Time>2019-10-04T16:42:55.000Z</Time>
            <Position>
              <LatitudeDegrees>42.78788558207452297210693359375</LatitudeDegrees>
              <LongitudeDegrees>-5.62388864345848560333251953125</LongitudeDegrees>
            </Position>
            <AltitudeMeters>956.20001220703125</AltitudeMeters>
            <DistanceMeters>NAN</DistanceMeters>
          </Trackpoint>
          <Trackpoint>
            <Time>2019-10-04T16:42:57.000Z</Time>
            <Position>
              <LatitudeDegrees>42.78784568421542644500732421875</LatitudeDegrees>
              <LongitudeDegrees>-5.6238572113215923309326171875</LongitudeDegrees>
            </Position>
            <AltitudeMeters>958</AltitudeMeters>
            <DistanceMeters>NAN</DistanceMeters>
          </Trackpoint>
          <Trackpoint>
            <Time>2019-10-04T16:42:59.000Z</Time>
            <Position>
              <LatitudeDegrees>42.7877993322908878326416015625</LatitudeDegrees>
              <LongitudeDegrees>-5.623846985399723052978515625</LongitudeDegrees>
            </Position>
            <AltitudeMeters>959.4000244140625</AltitudeMeters>
            <DistanceMeters>NAN</DistanceMeters>
          </Trackpoint>
          <Trackpoint>
            <Time>2019-10-04T16:43:00.000Z</Time>
            <Position>
              <LatitudeDegrees>42.7877792157232761383056640625</LatitudeDegrees>
              <LongitudeDegrees>-5.6238387711346149444580078125</LongitudeDegrees>
            </Position>
            <AltitudeMeters>960.20001220703125</AltitudeMeters>
            <DistanceMeters>NAN</DistanceMeters>
          </Trackpoint>
          <Trackpoint>
            <Time>2019-10-04T16:43:01.000Z</Time>
            <Position>
              <LatitudeDegrees>42.78775901533663272857666015625</LatitudeDegrees>
              <LongitudeDegrees>-5.62382460571825504302978515625</LongitudeDegrees>
            </Position>
            <AltitudeMeters>961</AltitudeMeters>
            <DistanceMeters>NAN</DistanceMeters>
          </Trackpoint>
          <Trackpoint>
            <Time>2019-10-04T16:43:03.000Z</Time>
            <Position>
              <LatitudeDegrees>42.7877247333526611328125</LatitudeDegrees>
              <LongitudeDegrees>-5.62378219328820705413818359375</LongitudeDegrees>
            </Position>
            <AltitudeMeters>962.5999755859375</AltitudeMeters>
            <DistanceMeters>NAN</DistanceMeters>
          </Trackpoint>
          <Trackpoint>
            <Time>2019-10-04T16:43:05.000Z</Time>
            <Position>
              <LatitudeDegrees>42.7876920439302921295166015625</LatitudeDegrees>
              <LongitudeDegrees>-5.62373726628720760345458984375</LongitudeDegrees>
            </Position>
            <AltitudeMeters>964</AltitudeMeters>
            <DistanceMeters>NAN</DistanceMeters>
          </Trackpoint>
          <Trackpoint>
            <Time>2019-10-04T16:43:07.000Z</Time>
            <Position>
              <LatitudeDegrees>42.787662036716938018798828125</LatitudeDegrees>
              <LongitudeDegrees>-5.62369309365749359130859375</LongitudeDegrees>
            </Position>
            <AltitudeMeters>965.5999755859375</AltitudeMeters>
            <DistanceMeters>NAN</DistanceMeters>
          </Trackpoint>
          <Trackpoint>
            <Time>2019-10-04T16:43:08.000Z</Time>
            <Position>
              <LatitudeDegrees>42.78764602728188037872314453125</LatitudeDegrees>
              <LongitudeDegrees>-5.62367021106183528900146484375</LongitudeDegrees>
            </Position>
            <AltitudeMeters>967.20001220703125</AltitudeMeters>
            <DistanceMeters>NAN</DistanceMeters>
          </Trackpoint>
          <Trackpoint>
            <Time>2019-10-04T16:43:10.000Z</Time>
            <Position>
              <LatitudeDegrees>42.787614427506923675537109375</LatitudeDegrees>
              <LongitudeDegrees>-5.62362964265048503875732421875</LongitudeDegrees>
            </Position>
            <AltitudeMeters>968.5999755859375</AltitudeMeters>
            <DistanceMeters>NAN</DistanceMeters>
          </Trackpoint>
          <Trackpoint>
            <Time>2019-10-04T16:43:11.000Z</Time>
            <Position>
              <LatitudeDegrees>42.78759908862411975860595703125</LatitudeDegrees>
              <LongitudeDegrees>-5.62361061573028564453125</LongitudeDegrees>
            </Position>
            <AltitudeMeters>969.79998779296875</AltitudeMeters>
            <DistanceMeters>NAN</DistanceMeters>
          </Trackpoint>
          <Trackpoint>
            <Time>2019-10-04T16:43:12.000Z</Time>
            <Position>
              <LatitudeDegrees>42.78758031316101551055908203125</LatitudeDegrees>
              <LongitudeDegrees>-5.62359108589589595794677734375</LongitudeDegrees>
            </Position>
            <AltitudeMeters>972.20001220703125</AltitudeMeters>
            <DistanceMeters>NAN</DistanceMeters>
          </Trackpoint>
          <Trackpoint>
            <Time>2019-10-04T16:43:14.000Z</Time>
            <Position>
              <LatitudeDegrees>42.78754712082445621490478515625</LatitudeDegrees>
              <LongitudeDegrees>-5.62355118803679943084716796875</LongitudeDegrees>
            </Position>
            <AltitudeMeters>973</AltitudeMeters>
            <DistanceMeters>NAN</DistanceMeters>
          </Trackpoint>
          <Trackpoint>
            <Time>2019-10-04T16:43:15.000Z</Time>
            <Position>
              <LatitudeDegrees>42.78753035701811313629150390625</LatitudeDegrees>
              <LongitudeDegrees>-5.62353056855499744415283203125</LongitudeDegrees>
            </Position>
            <AltitudeMeters>975</AltitudeMeters>
            <DistanceMeters>NAN</DistanceMeters>
          </Trackpoint>
          <Trackpoint>
            <Time>2019-10-04T16:43:16.000Z</Time>
            <Position>
              <LatitudeDegrees>42.78751627542078495025634765625</LatitudeDegrees>
              <LongitudeDegrees>-5.6235115416347980499267578125</LongitudeDegrees>
            </Position>
            <AltitudeMeters>976</AltitudeMeters>
            <DistanceMeters>NAN</DistanceMeters>
          </Trackpoint>
          <Trackpoint>
            <Time>2019-10-04T16:43:17.000Z</Time>
            <Position>
              <LatitudeDegrees>42.7874999307096004486083984375</LatitudeDegrees>
              <LongitudeDegrees>-5.62349000014364719390869140625</LongitudeDegrees>
            </Position>
            <AltitudeMeters>977.20001220703125</AltitudeMeters>
            <DistanceMeters>NAN</DistanceMeters>
          </Trackpoint>
          <Trackpoint>
            <Time>2019-10-04T16:43:18.000Z</Time>
            <Position>
              <LatitudeDegrees>42.78748325072228908538818359375</LatitudeDegrees>
              <LongitudeDegrees>-5.6234689615666866302490234375</LongitudeDegrees>
            </Position>
            <AltitudeMeters>978.20001220703125</AltitudeMeters>
            <DistanceMeters>NAN</DistanceMeters>
          </Trackpoint>
          <Trackpoint>
            <Time>2019-10-04T16:43:19.000Z</Time>
            <Position>
              <LatitudeDegrees>42.7874670736491680145263671875</LatitudeDegrees>
              <LongitudeDegrees>-5.6234471686184406280517578125</LongitudeDegrees>
            </Position>
            <AltitudeMeters>979.4000244140625</AltitudeMeters>
            <DistanceMeters>NAN</DistanceMeters>
          </Trackpoint>
          <Trackpoint>
            <Time>2019-10-04T16:43:21.000Z</Time>
            <Position>
              <LatitudeDegrees>42.78743111528456211090087890625</LatitudeDegrees>
              <LongitudeDegrees>-5.62340634874999523162841796875</LongitudeDegrees>
            </Position>
            <AltitudeMeters>981.20001220703125</AltitudeMeters>
            <DistanceMeters>NAN</DistanceMeters>
          </Trackpoint>
          <Trackpoint>
            <Time>2019-10-04T16:43:22.000Z</Time>
            <Position>
              <LatitudeDegrees>42.78741284273564815521240234375</LatitudeDegrees>
              <LongitudeDegrees>-5.62338195741176605224609375</LongitudeDegrees>
            </Position>
            <AltitudeMeters>982</AltitudeMeters>
            <DistanceMeters>NAN</DistanceMeters>
          </Trackpoint>
          <Trackpoint>
            <Time>2019-10-04T16:43:23.000Z</Time>
            <Position>
              <LatitudeDegrees>42.78739742003381252288818359375</LatitudeDegrees>
              <LongitudeDegrees>-5.6233569793403148651123046875</LongitudeDegrees>
            </Position>
            <AltitudeMeters>983</AltitudeMeters>
            <DistanceMeters>NAN</DistanceMeters>
          </Trackpoint>
          <Trackpoint>
            <Time>2019-10-04T16:43:24.000Z</Time>
            <Position>
              <LatitudeDegrees>42.78738099150359630584716796875</LatitudeDegrees>
              <LongitudeDegrees>-5.62333367764949798583984375</LongitudeDegrees>
            </Position>
            <AltitudeMeters>984.4000244140625</AltitudeMeters>
            <DistanceMeters>NAN</DistanceMeters>
          </Trackpoint>
          <Trackpoint>
            <Time>2019-10-04T16:43:26.000Z</Time>
            <Position>
              <LatitudeDegrees>42.7873490564525127410888671875</LatitudeDegrees>
              <LongitudeDegrees>-5.6232927739620208740234375</LongitudeDegrees>
            </Position>
            <AltitudeMeters>986.20001220703125</AltitudeMeters>
            <DistanceMeters>NAN</DistanceMeters>
          </Trackpoint>
          <Trackpoint>
            <Time>2019-10-04T16:43:28.000Z</Time>
            <Position>
              <LatitudeDegrees>42.78731594793498516082763671875</LatitudeDegrees>
              <LongitudeDegrees>-5.62324977479875087738037109375</LongitudeDegrees>
            </Position>
            <AltitudeMeters>988.20001220703125</AltitudeMeters>
            <DistanceMeters>NAN</DistanceMeters>
          </Trackpoint>
          <Trackpoint>
            <Time>2019-10-04T16:43:29.000Z</Time>
            <Position>
              <LatitudeDegrees>42.78729700483381748199462890625</LatitudeDegrees>
              <LongitudeDegrees>-5.62322781421244144439697265625</LongitudeDegrees>
            </Position>
            <AltitudeMeters>989.20001220703125</AltitudeMeters>
            <DistanceMeters>NAN</DistanceMeters>
          </Trackpoint>
          <Trackpoint>
            <Time>2019-10-04T16:43:31.000Z</Time>
            <Position>
              <LatitudeDegrees>42.787265740334987640380859375</LatitudeDegrees>
              <LongitudeDegrees>-5.62319126911461353302001953125</LongitudeDegrees>
            </Position>
            <AltitudeMeters>991.20001220703125</AltitudeMeters>
            <DistanceMeters>NAN</DistanceMeters>
          </Trackpoint>
          <Trackpoint>
            <Time>2019-10-04T16:43:33.000Z</Time>
            <Position>
              <LatitudeDegrees>42.787230201065540313720703125</LatitudeDegrees>
              <LongitudeDegrees>-5.62315187416970729827880859375</LongitudeDegrees>
            </Position>
            <AltitudeMeters>993</AltitudeMeters>
            <DistanceMeters>NAN</DistanceMeters>
          </Trackpoint>
          <Trackpoint>
            <Time>2019-10-04T16:43:34.000Z</Time>
            <Position>
              <LatitudeDegrees>42.78721050359308719635009765625</LatitudeDegrees>
              <LongitudeDegrees>-5.623131506145000457763671875</LongitudeDegrees>
            </Position>
            <AltitudeMeters>994</AltitudeMeters>
            <DistanceMeters>NAN</DistanceMeters>
          </Trackpoint>
          <Trackpoint>
            <Time>2019-10-04T16:43:35.000Z</Time>
            <Position>
              <LatitudeDegrees>42.78719273395836353302001953125</LatitudeDegrees>
              <LongitudeDegrees>-5.62311063520610332489013671875</LongitudeDegrees>
            </Position>
            <AltitudeMeters>994.79998779296875</AltitudeMeters>
            <DistanceMeters>NAN</DistanceMeters>
          </Trackpoint>
          <Trackpoint>
            <Time>2019-10-04T16:43:36.000Z</Time>
            <Position>
              <LatitudeDegrees>42.787175886332988739013671875</LatitudeDegrees>
              <LongitudeDegrees>-5.62308968044817447662353515625</LongitudeDegrees>
            </Position>
            <AltitudeMeters>996.20001220703125</AltitudeMeters>
            <DistanceMeters>NAN</DistanceMeters>
          </Trackpoint>
          <Trackpoint>
            <Time>2019-10-04T16:43:38.000Z</Time>
            <Position>
              <LatitudeDegrees>42.78714043088257312774658203125</LatitudeDegrees>
              <LongitudeDegrees>-5.6230486929416656494140625</LongitudeDegrees>
            </Position>
            <AltitudeMeters>997.4000244140625</AltitudeMeters>
            <DistanceMeters>NAN</DistanceMeters>
          </Trackpoint>
          <Trackpoint>
            <Time>2019-10-04T16:43:39.000Z</Time>
            <Position>
              <LatitudeDegrees>42.78712484054267406463623046875</LatitudeDegrees>
              <LongitudeDegrees>-5.62302882783114910125732421875</LongitudeDegrees>
            </Position>
            <AltitudeMeters>998.4000244140625</AltitudeMeters>
            <DistanceMeters>NAN</DistanceMeters>
          </Trackpoint>
          <Trackpoint>
            <Time>2019-10-04T16:43:41.000Z</Time>
            <Position>
              <LatitudeDegrees>42.7870875410735607147216796875</LatitudeDegrees>
              <LongitudeDegrees>-5.6229871697723865509033203125</LongitudeDegrees>
            </Position>
            <AltitudeMeters>1000.20001220703125</AltitudeMeters>
            <DistanceMeters>NAN</DistanceMeters>
          </Trackpoint>
          <Trackpoint>
            <Time>2019-10-04T16:43:43.000Z</Time>
            <Position>
              <LatitudeDegrees>42.78705309145152568817138671875</LatitudeDegrees>
              <LongitudeDegrees>-5.6229445897042751312255859375</LongitudeDegrees>
            </Position>
            <AltitudeMeters>1001.79998779296875</AltitudeMeters>
            <DistanceMeters>NAN</DistanceMeters>
          </Trackpoint>
          <Trackpoint>
            <Time>2019-10-04T16:43:44.000Z</Time>
            <Position>
              <LatitudeDegrees>42.78703649528324604034423828125</LatitudeDegrees>
              <LongitudeDegrees>-5.62292329967021942138671875</LongitudeDegrees>
            </Position>
            <AltitudeMeters>1003.20001220703125</AltitudeMeters>
            <DistanceMeters>NAN</DistanceMeters>
          </Trackpoint>
          <Trackpoint>
            <Time>2019-10-04T16:43:46.000Z</Time>
            <Position>
              <LatitudeDegrees>42.78700430877506732940673828125</LatitudeDegrees>
              <LongitudeDegrees>-5.622877366840839385986328125</LongitudeDegrees>
            </Position>
            <AltitudeMeters>1004.20001220703125</AltitudeMeters>
            <DistanceMeters>NAN</DistanceMeters>
          </Trackpoint>
          <Trackpoint>
            <Time>2019-10-04T16:43:48.000Z</Time>
            <Position>
              <LatitudeDegrees>42.7869705297052860260009765625</LatitudeDegrees>
              <LongitudeDegrees>-5.6228339485824108123779296875</LongitudeDegrees>
            </Position>
            <AltitudeMeters>1006</AltitudeMeters>
            <DistanceMeters>NAN</DistanceMeters>
          </Trackpoint>
          <Trackpoint>
            <Time>2019-10-04T16:43:51.000Z</Time>
            <Position>
              <LatitudeDegrees>42.78692233376204967498779296875</LatitudeDegrees>
              <LongitudeDegrees>-5.62277720309793949127197265625</LongitudeDegrees>
            </Position>
            <AltitudeMeters>1007.5999755859375</AltitudeMeters>
            <DistanceMeters>NAN</DistanceMeters>
          </Trackpoint>
          <Trackpoint>
            <Time>2019-10-04T16:43:52.000Z</Time>
            <Position>
              <LatitudeDegrees>42.7869051508605480194091796875</LatitudeDegrees>
              <LongitudeDegrees>-5.62275541014969348907470703125</LongitudeDegrees>
            </Position>
            <AltitudeMeters>1008.4000244140625</AltitudeMeters>
            <DistanceMeters>NAN</DistanceMeters>
          </Trackpoint>
          <Trackpoint>
            <Time>2019-10-04T16:43:53.000Z</Time>
            <Position>
              <LatitudeDegrees>42.78688863851130008697509765625</LatitudeDegrees>
              <LongitudeDegrees>-5.62273378483951091766357421875</LongitudeDegrees>
            </Position>
            <AltitudeMeters>1009</AltitudeMeters>
            <DistanceMeters>NAN</DistanceMeters>
          </Trackpoint>
          <Trackpoint>
            <Time>2019-10-04T16:43:56.000Z</Time>
            <Position>
              <LatitudeDegrees>42.78683952055871486663818359375</LatitudeDegrees>
              <LongitudeDegrees>-5.6226651370525360107421875</LongitudeDegrees>
            </Position>
            <AltitudeMeters>1010.5999755859375</AltitudeMeters>
            <DistanceMeters>NAN</DistanceMeters>
          </Trackpoint>
          <Trackpoint>
            <Time>2019-10-04T16:43:58.000Z</Time>
            <Position>
              <LatitudeDegrees>42.78680565766990184783935546875</LatitudeDegrees>
              <LongitudeDegrees>-5.62262398190796375274658203125</LongitudeDegrees>
            </Position>
            <AltitudeMeters>1012</AltitudeMeters>
            <DistanceMeters>NAN</DistanceMeters>
          </Trackpoint>
          <Trackpoint>
            <Time>2019-10-04T16:44:01.000Z</Time>
            <Position>
              <LatitudeDegrees>42.7867552824318408966064453125</LatitudeDegrees>
              <LongitudeDegrees>-5.62256011180579662322998046875</LongitudeDegrees>
            </Position>
            <AltitudeMeters>1013</AltitudeMeters>
            <DistanceMeters>NAN</DistanceMeters>
          </Trackpoint>
          <Trackpoint>
            <Time>2019-10-04T16:44:03.000Z</Time>
            <Position>
              <LatitudeDegrees>42.78672267682850360870361328125</LatitudeDegrees>
              <LongitudeDegrees>-5.62251753173768520355224609375</LongitudeDegrees>
            </Position>
            <AltitudeMeters>1014.79998779296875</AltitudeMeters>
            <DistanceMeters>NAN</DistanceMeters>
          </Trackpoint>
          <Trackpoint>
            <Time>2019-10-04T16:44:07.000Z</Time>
            <Position>
              <LatitudeDegrees>42.78665796853601932525634765625</LatitudeDegrees>
              <LongitudeDegrees>-5.62244008295238018035888671875</LongitudeDegrees>
            </Position>
            <AltitudeMeters>1016.20001220703125</AltitudeMeters>
            <DistanceMeters>NAN</DistanceMeters>
          </Trackpoint>
          <Trackpoint>
            <Time>2019-10-04T16:44:08.000Z</Time>
            <Position>
              <LatitudeDegrees>42.78664137236773967742919921875</LatitudeDegrees>
              <LongitudeDegrees>-5.6224165298044681549072265625</LongitudeDegrees>
            </Position>
            <AltitudeMeters>1016.79998779296875</AltitudeMeters>
            <DistanceMeters>NAN</DistanceMeters>
          </Trackpoint>
          <Trackpoint>
            <Time>2019-10-04T16:44:11.000Z</Time>
            <Position>
              <LatitudeDegrees>42.78659309260547161102294921875</LatitudeDegrees>
              <LongitudeDegrees>-5.622352659702301025390625</LongitudeDegrees>
            </Position>
            <AltitudeMeters>1017.5999755859375</AltitudeMeters>
            <DistanceMeters>NAN</DistanceMeters>
          </Trackpoint>
          <Trackpoint>
            <Time>2019-10-04T16:44:15.000Z</Time>
            <Position>
              <LatitudeDegrees>42.78652519918978214263916015625</LatitudeDegrees>
              <LongitudeDegrees>-5.6222690083086490631103515625</LongitudeDegrees>
            </Position>
            <AltitudeMeters>1018.5999755859375</AltitudeMeters>
            <DistanceMeters>NAN</DistanceMeters>
          </Trackpoint>
          <Trackpoint>
            <Time>2019-10-04T16:44:18.000Z</Time>
            <Position>
              <LatitudeDegrees>42.78647189028561115264892578125</LatitudeDegrees>
              <LongitudeDegrees>-5.62220874242484569549560546875</LongitudeDegrees>
            </Position>
            <AltitudeMeters>1019</AltitudeMeters>
            <DistanceMeters>NAN</DistanceMeters>
          </Trackpoint>
          <Trackpoint>
            <Time>2019-10-04T16:44:22.000Z</Time>
            <Position>
              <LatitudeDegrees>42.786403410136699676513671875</LatitudeDegrees>
              <LongitudeDegrees>-5.62212936580181121826171875</LongitudeDegrees>
            </Position>
            <AltitudeMeters>1019.5999755859375</AltitudeMeters>
            <DistanceMeters>NAN</DistanceMeters>
          </Trackpoint>
          <Trackpoint>
            <Time>2019-10-04T16:44:26.000Z</Time>
            <Position>
              <LatitudeDegrees>42.786335013806819915771484375</LatitudeDegrees>
              <LongitudeDegrees>-5.62204646877944469451904296875</LongitudeDegrees>
            </Position>
            <AltitudeMeters>1019.5999755859375</AltitudeMeters>
            <DistanceMeters>NAN</DistanceMeters>
          </Trackpoint>
          <Trackpoint>
            <Time>2019-10-04T16:44:31.000Z</Time>
            <Position>
              <LatitudeDegrees>42.7862563915550708770751953125</LatitudeDegrees>
              <LongitudeDegrees>-5.62193800695240497589111328125</LongitudeDegrees>
            </Position>
            <AltitudeMeters>1020.5999755859375</AltitudeMeters>
            <DistanceMeters>NAN</DistanceMeters>
          </Trackpoint>
          <Trackpoint>
            <Time>2019-10-04T16:44:34.000Z</Time>
            <Position>
              <LatitudeDegrees>42.78620718978345394134521484375</LatitudeDegrees>
              <LongitudeDegrees>-5.62187212519347667694091796875</LongitudeDegrees>
            </Position>
            <AltitudeMeters>1020.79998779296875</AltitudeMeters>
            <DistanceMeters>NAN</DistanceMeters>
          </Trackpoint>
          <Trackpoint>
            <Time>2019-10-04T16:44:42.000Z</Time>
            <Position>
              <LatitudeDegrees>42.7860713191330432891845703125</LatitudeDegrees>
              <LongitudeDegrees>-5.621699206531047821044921875</LongitudeDegrees>
            </Position>
            <AltitudeMeters>1021.5999755859375</AltitudeMeters>
            <DistanceMeters>NAN</DistanceMeters>
          </Trackpoint>
          <Trackpoint>
            <Time>2019-10-04T16:44:43.000Z</Time>
            <Position>
              <LatitudeDegrees>42.78605329804122447967529296875</LatitudeDegrees>
              <LongitudeDegrees>-5.62167716212570667266845703125</LongitudeDegrees>
            </Position>
            <AltitudeMeters>1021.5999755859375</AltitudeMeters>
            <DistanceMeters>NAN</DistanceMeters>
          </Trackpoint>
          <Trackpoint>
            <Time>2019-10-04T16:44:47.000Z</Time>
            <Position>
              <LatitudeDegrees>42.78598624281585216522216796875</LatitudeDegrees>
              <LongitudeDegrees>-5.62159418128430843353271484375</LongitudeDegrees>
            </Position>
            <AltitudeMeters>1022.5999755859375</AltitudeMeters>
            <DistanceMeters>NAN</DistanceMeters>
          </Trackpoint>
          <Trackpoint>
            <Time>2019-10-04T16:44:49.000Z</Time>
            <Position>
              <LatitudeDegrees>42.78595112264156341552734375</LatitudeDegrees>
              <LongitudeDegrees>-5.6215548701584339141845703125</LongitudeDegrees>
            </Position>
            <AltitudeMeters>1022.5999755859375</AltitudeMeters>
            <DistanceMeters>NAN</DistanceMeters>
          </Trackpoint>
          <Trackpoint>
            <Time>2019-10-04T16:44:56.000Z</Time>
            <Position>
              <LatitudeDegrees>42.7858346141874790191650390625</LatitudeDegrees>
              <LongitudeDegrees>-5.62139737419784069061279296875</LongitudeDegrees>
            </Position>
            <AltitudeMeters>1023.5999755859375</AltitudeMeters>
            <DistanceMeters>NAN</DistanceMeters>
          </Trackpoint>
          <Trackpoint>
            <Time>2019-10-04T16:44:57.000Z</Time>
            <Position>
              <LatitudeDegrees>42.7858195267617702484130859375</LatitudeDegrees>
              <LongitudeDegrees>-5.62137440778315067291259765625</LongitudeDegrees>
            </Position>
            <AltitudeMeters>1023.5999755859375</AltitudeMeters>
            <DistanceMeters>NAN</DistanceMeters>
          </Trackpoint>
          <Trackpoint>
            <Time>2019-10-04T16:45:03.000Z</Time>
            <Position>
              <LatitudeDegrees>42.78571969829499721527099609375</LatitudeDegrees>
              <LongitudeDegrees>-5.6212569773197174072265625</LongitudeDegrees>
            </Position>
            <AltitudeMeters>1024.800048828125</AltitudeMeters>
            <DistanceMeters>NAN</DistanceMeters>
          </Trackpoint>
          <Trackpoint>
            <Time>2019-10-04T16:45:04.000Z</Time>
            <Position>
              <LatitudeDegrees>42.785701341927051544189453125</LatitudeDegrees>
              <LongitudeDegrees>-5.621236525475978851318359375</LongitudeDegrees>
            </Position>
            <AltitudeMeters>1024.800048828125</AltitudeMeters>
            <DistanceMeters>NAN</DistanceMeters>
          </Trackpoint>
          <Trackpoint>
            <Time>2019-10-04T16:45:09.000Z</Time>
            <Position>
              <LatitudeDegrees>42.7856119908392429351806640625</LatitudeDegrees>
              <LongitudeDegrees>-5.6211351044476032257080078125</LongitudeDegrees>
            </Position>
            <AltitudeMeters>1025.800048828125</AltitudeMeters>
            <DistanceMeters>NAN</DistanceMeters>
          </Trackpoint>
          <Trackpoint>
            <Time>2019-10-04T16:45:12.000Z</Time>
            <Position>
              <LatitudeDegrees>42.785555832087993621826171875</LatitudeDegrees>
              <LongitudeDegrees>-5.62106788158416748046875</LongitudeDegrees>
            </Position>
            <AltitudeMeters>1026</AltitudeMeters>
            <DistanceMeters>NAN</DistanceMeters>
          </Trackpoint>
          <Trackpoint>
            <Time>2019-10-04T16:45:17.000Z</Time>
            <Position>
              <LatitudeDegrees>42.78546371497213840484619140625</LatitudeDegrees>
              <LongitudeDegrees>-5.620952546596527099609375</LongitudeDegrees>
            </Position>
            <AltitudeMeters>1027.199951171875</AltitudeMeters>
            <DistanceMeters>NAN</DistanceMeters>
          </Trackpoint>
          <Trackpoint>
            <Time>2019-10-04T16:45:21.000Z</Time>
            <Position>
              <LatitudeDegrees>42.78539783321321010589599609375</LatitudeDegrees>
              <LongitudeDegrees>-5.620869062840938568115234375</LongitudeDegrees>
            </Position>
            <AltitudeMeters>1027.800048828125</AltitudeMeters>
            <DistanceMeters>NAN</DistanceMeters>
          </Trackpoint>
          <Trackpoint>
            <Time>2019-10-04T16:45:26.000Z</Time>
            <Position>
              <LatitudeDegrees>42.7853075601160526275634765625</LatitudeDegrees>
              <LongitudeDegrees>-5.62076219357550144195556640625</LongitudeDegrees>
            </Position>
            <AltitudeMeters>1028.199951171875</AltitudeMeters>
            <DistanceMeters>NAN</DistanceMeters>
          </Trackpoint>
          <Trackpoint>
            <Time>2019-10-04T16:45:30.000Z</Time>
            <Position>
              <LatitudeDegrees>42.7852378226816654205322265625</LatitudeDegrees>
              <LongitudeDegrees>-5.6206771172583103179931640625</LongitudeDegrees>
            </Position>
            <AltitudeMeters>1028.800048828125</AltitudeMeters>
            <DistanceMeters>NAN</DistanceMeters>
          </Trackpoint>
          <Trackpoint>
            <Time>2019-10-04T16:45:33.000Z</Time>
            <Position>
              <LatitudeDegrees>42.7851838432252407073974609375</LatitudeDegrees>
              <LongitudeDegrees>-5.6206194497644901275634765625</LongitudeDegrees>
            </Position>
            <AltitudeMeters>1029.199951171875</AltitudeMeters>
            <DistanceMeters>NAN</DistanceMeters>
          </Trackpoint>
          <Trackpoint>
            <Time>2019-10-04T16:45:39.000Z</Time>
            <Position>
              <LatitudeDegrees>42.7850778959691524505615234375</LatitudeDegrees>
              <LongitudeDegrees>-5.6204890273511409759521484375</LongitudeDegrees>
            </Position>
            <AltitudeMeters>1030.199951171875</AltitudeMeters>
            <DistanceMeters>NAN</DistanceMeters>
          </Trackpoint>
          <Trackpoint>
            <Time>2019-10-04T16:45:40.000Z</Time>
            <Position>
              <LatitudeDegrees>42.785061635076999664306640625</LatitudeDegrees>
              <LongitudeDegrees>-5.62046706676483154296875</LongitudeDegrees>
            </Position>
            <AltitudeMeters>1030.199951171875</AltitudeMeters>
            <DistanceMeters>NAN</DistanceMeters>
          </Trackpoint>
          <Trackpoint>
            <Time>2019-10-04T16:45:45.000Z</Time>
            <Position>
              <LatitudeDegrees>42.78498225845396518707275390625</LatitudeDegrees>
              <LongitudeDegrees>-5.62035349197685718536376953125</LongitudeDegrees>
            </Position>
            <AltitudeMeters>1031.4000244140625</AltitudeMeters>
            <DistanceMeters>NAN</DistanceMeters>
          </Trackpoint>
          <Trackpoint>
            <Time>2019-10-04T16:45:47.000Z</Time>
            <Position>
              <LatitudeDegrees>42.78494772501289844512939453125</LatitudeDegrees>
              <LongitudeDegrees>-5.62030789442360401153564453125</LongitudeDegrees>
            </Position>
            <AltitudeMeters>1031.4000244140625</AltitudeMeters>
            <DistanceMeters>NAN</DistanceMeters>
          </Trackpoint>
          <Trackpoint>
            <Time>2019-10-04T16:45:53.000Z</Time>
            <Position>
              <LatitudeDegrees>42.7848421968519687652587890625</LatitudeDegrees>
              <LongitudeDegrees>-5.62018233351409435272216796875</LongitudeDegrees>
            </Position>
            <AltitudeMeters>1032.4000244140625</AltitudeMeters>
            <DistanceMeters>NAN</DistanceMeters>
          </Trackpoint>
          <Trackpoint>
            <Time>2019-10-04T16:45:56.000Z</Time>
            <Position>
              <LatitudeDegrees>42.78478796593844890594482421875</LatitudeDegrees>
              <LongitudeDegrees>-5.6201235763728618621826171875</LongitudeDegrees>
            </Position>
            <AltitudeMeters>1032.800048828125</AltitudeMeters>
            <DistanceMeters>NAN</DistanceMeters>
          </Trackpoint>
          <Trackpoint>
            <Time>2019-10-04T16:46:01.000Z</Time>
            <Position>
              <LatitudeDegrees>42.7847032248973846435546875</LatitudeDegrees>
              <LongitudeDegrees>-5.62001033686101436614990234375</LongitudeDegrees>
            </Position>
            <AltitudeMeters>1033.5999755859375</AltitudeMeters>
            <DistanceMeters>NAN</DistanceMeters>
          </Trackpoint>
          <Trackpoint>
            <Time>2019-10-04T16:46:05.000Z</Time>
            <Position>
              <LatitudeDegrees>42.78463608585298061370849609375</LatitudeDegrees>
              <LongitudeDegrees>-5.619920901954174041748046875</LongitudeDegrees>
            </Position>
            <AltitudeMeters>1034.199951171875</AltitudeMeters>
            <DistanceMeters>NAN</DistanceMeters>
          </Trackpoint>
          <Trackpoint>
            <Time>2019-10-04T16:46:09.000Z</Time>
            <Position>
              <LatitudeDegrees>42.784559391438961029052734375</LatitudeDegrees>
              <LongitudeDegrees>-5.6198409385979175567626953125</LongitudeDegrees>
            </Position>
            <AltitudeMeters>1034.5999755859375</AltitudeMeters>
            <DistanceMeters>NAN</DistanceMeters>
          </Trackpoint>
          <Trackpoint>
            <Time>2019-10-04T16:46:12.000Z</Time>
            <Position>
              <LatitudeDegrees>42.78449342586100101470947265625</LatitudeDegrees>
              <LongitudeDegrees>-5.61975586228072643280029296875</LongitudeDegrees>
            </Position>
            <AltitudeMeters>1035</AltitudeMeters>
            <DistanceMeters>NAN</DistanceMeters>
          </Trackpoint>
          <Trackpoint>
            <Time>2019-10-04T16:46:16.000Z</Time>
            <Position>
              <LatitudeDegrees>42.78444372117519378662109375</LatitudeDegrees>
              <LongitudeDegrees>-5.619691908359527587890625</LongitudeDegrees>
            </Position>
            <AltitudeMeters>1035.800048828125</AltitudeMeters>
            <DistanceMeters>NAN</DistanceMeters>
          </Trackpoint>
          <Trackpoint>
            <Time>2019-10-04T16:46:24.000Z</Time>
            <Position>
              <LatitudeDegrees>42.784308604896068572998046875</LatitudeDegrees>
              <LongitudeDegrees>-5.6195207498967647552490234375</LongitudeDegrees>
            </Position>
            <AltitudeMeters>1037</AltitudeMeters>
            <DistanceMeters>NAN</DistanceMeters>
          </Trackpoint>
          <Trackpoint>
            <Time>2019-10-04T16:46:25.000Z</Time>
            <Position>
              <LatitudeDegrees>42.784293182194232940673828125</LatitudeDegrees>
              <LongitudeDegrees>-5.6195002980530261993408203125</LongitudeDegrees>
            </Position>
            <AltitudeMeters>1037.199951171875</AltitudeMeters>
            <DistanceMeters>NAN</DistanceMeters>
          </Trackpoint>
          <Trackpoint>
            <Time>2019-10-04T16:46:30.000Z</Time>
            <Position>
              <LatitudeDegrees>42.7842058427631855010986328125</LatitudeDegrees>
              <LongitudeDegrees>-5.61939845792949199676513671875</LongitudeDegrees>
            </Position>
            <AltitudeMeters>1038.199951171875</AltitudeMeters>
            <DistanceMeters>NAN</DistanceMeters>
          </Trackpoint>
          <Trackpoint>
            <Time>2019-10-04T16:46:34.000Z</Time>
            <Position>
              <LatitudeDegrees>42.784140966832637786865234375</LatitudeDegrees>
              <LongitudeDegrees>-5.61931195668876171112060546875</LongitudeDegrees>
            </Position>
            <AltitudeMeters>1038.4000244140625</AltitudeMeters>
            <DistanceMeters>NAN</DistanceMeters>
          </Trackpoint>
          <Trackpoint>
            <Time>2019-10-04T16:46:40.000Z</Time>
            <Position>
              <LatitudeDegrees>42.784041054546833038330078125</LatitudeDegrees>
              <LongitudeDegrees>-5.61917466111481189727783203125</LongitudeDegrees>
            </Position>
            <AltitudeMeters>1039.199951171875</AltitudeMeters>
            <DistanceMeters>NAN</DistanceMeters>
          </Trackpoint>
          <Trackpoint>
            <Time>2019-10-04T16:46:42.000Z</Time>
            <Position>
              <LatitudeDegrees>42.7840100415050983428955078125</LatitudeDegrees>
              <LongitudeDegrees>-5.6191335059702396392822265625</LongitudeDegrees>
            </Position>
            <AltitudeMeters>1039.800048828125</AltitudeMeters>
            <DistanceMeters>NAN</DistanceMeters>
          </Trackpoint>
          <Trackpoint>
            <Time>2019-10-04T16:46:48.000Z</Time>
            <Position>
              <LatitudeDegrees>42.78392479754984378814697265625</LatitudeDegrees>
              <LongitudeDegrees>-5.61900501139461994171142578125</LongitudeDegrees>
            </Position>
            <AltitudeMeters>1040.5999755859375</AltitudeMeters>
            <DistanceMeters>NAN</DistanceMeters>
          </Trackpoint>
          <Trackpoint>
            <Time>2019-10-04T16:46:50.000Z</Time>
            <Position>
              <LatitudeDegrees>42.78389529325067996978759765625</LatitudeDegrees>
              <LongitudeDegrees>-5.61895899474620819091796875</LongitudeDegrees>
            </Position>
            <AltitudeMeters>1041</AltitudeMeters>
            <DistanceMeters>NAN</DistanceMeters>
          </Trackpoint>
          <Trackpoint>
            <Time>2019-10-04T16:46:54.000Z</Time>
            <Position>
              <LatitudeDegrees>42.78383024968206882476806640625</LatitudeDegrees>
              <LongitudeDegrees>-5.6188753433525562286376953125</LongitudeDegrees>
            </Position>
            <AltitudeMeters>1042</AltitudeMeters>
            <DistanceMeters>NAN</DistanceMeters>
          </Trackpoint>
          <Trackpoint>
            <Time>2019-10-04T16:46:59.000Z</Time>
            <Position>
              <LatitudeDegrees>42.78375213034451007843017578125</LatitudeDegrees>
              <LongitudeDegrees>-5.61876797117292881011962890625</LongitudeDegrees>
            </Position>
            <AltitudeMeters>1042.5999755859375</AltitudeMeters>
            <DistanceMeters>NAN</DistanceMeters>
          </Trackpoint>
          <Trackpoint>
            <Time>2019-10-04T16:47:01.000Z</Time>
            <Position>
              <LatitudeDegrees>42.78372086584568023681640625</LatitudeDegrees>
              <LongitudeDegrees>-5.618728660047054290771484375</LongitudeDegrees>
            </Position>
            <AltitudeMeters>1042.800048828125</AltitudeMeters>
            <DistanceMeters>NAN</DistanceMeters>
          </Trackpoint>
          <Trackpoint>
            <Time>2019-10-04T16:47:02.000Z</Time>
            <Position>
              <LatitudeDegrees>42.7837032638490200042724609375</LatitudeDegrees>
              <LongitudeDegrees>-5.61870820820331573486328125</LongitudeDegrees>
            </Position>
            <AltitudeMeters>1043</AltitudeMeters>
            <DistanceMeters>NAN</DistanceMeters>
          </Trackpoint>
          <Trackpoint>
            <Time>2019-10-04T16:47:05.000Z</Time>
            <Position>
              <LatitudeDegrees>42.783658504486083984375</LatitudeDegrees>
              <LongitudeDegrees>-5.6186399795114994049072265625</LongitudeDegrees>
            </Position>
            <AltitudeMeters>1043.4000244140625</AltitudeMeters>
            <DistanceMeters>NAN</DistanceMeters>
          </Trackpoint>
          <Trackpoint>
            <Time>2019-10-04T16:47:10.000Z</Time>
            <Position>
              <LatitudeDegrees>42.7835889346897602081298828125</LatitudeDegrees>
              <LongitudeDegrees>-5.6185149215161800384521484375</LongitudeDegrees>
            </Position>
            <AltitudeMeters>1044.199951171875</AltitudeMeters>
            <DistanceMeters>NAN</DistanceMeters>
          </Trackpoint>
          <Trackpoint>
            <Time>2019-10-04T16:47:15.000Z</Time>
            <Position>
              <LatitudeDegrees>42.7835255675017833709716796875</LatitudeDegrees>
              <LongitudeDegrees>-5.618390031158924102783203125</LongitudeDegrees>
            </Position>
            <AltitudeMeters>1045.4000244140625</AltitudeMeters>
            <DistanceMeters>NAN</DistanceMeters>
          </Trackpoint>
          <Trackpoint>
            <Time>2019-10-04T16:47:22.000Z</Time>
            <Position>
              <LatitudeDegrees>42.7834387309849262237548828125</LatitudeDegrees>
              <LongitudeDegrees>-5.61822180636227130889892578125</LongitudeDegrees>
            </Position>
            <AltitudeMeters>1046.5999755859375</AltitudeMeters>
            <DistanceMeters>NAN</DistanceMeters>
          </Trackpoint>
          <Trackpoint>
            <Time>2019-10-04T16:47:25.000Z</Time>
            <Position>
              <LatitudeDegrees>42.7834038622677326202392578125</LatitudeDegrees>
              <LongitudeDegrees>-5.61814050190150737762451171875</LongitudeDegrees>
            </Position>
            <AltitudeMeters>1046.5999755859375</AltitudeMeters>
            <DistanceMeters>NAN</DistanceMeters>
          </Trackpoint>
          <Trackpoint>
            <Time>2019-10-04T16:47:29.000Z</Time>
            <Position>
              <LatitudeDegrees>42.7833594381809234619140625</LatitudeDegrees>
              <LongitudeDegrees>-5.61803631484508514404296875</LongitudeDegrees>
            </Position>
            <AltitudeMeters>1047.5999755859375</AltitudeMeters>
            <DistanceMeters>NAN</DistanceMeters>
          </Trackpoint>
          <Trackpoint>
            <Time>2019-10-04T16:47:32.000Z</Time>
            <Position>
              <LatitudeDegrees>42.783326916396617889404296875</LatitudeDegrees>
              <LongitudeDegrees>-5.61795853078365325927734375</LongitudeDegrees>
            </Position>
            <AltitudeMeters>1047.5999755859375</AltitudeMeters>
            <DistanceMeters>NAN</DistanceMeters>
          </Trackpoint>
          <Trackpoint>
            <Time>2019-10-04T16:47:39.000Z</Time>
            <Position>
              <LatitudeDegrees>42.78326354920864105224609375</LatitudeDegrees>
              <LongitudeDegrees>-5.61775795184075832366943359375</LongitudeDegrees>
            </Position>
            <AltitudeMeters>1048.5999755859375</AltitudeMeters>
            <DistanceMeters>NAN</DistanceMeters>
          </Trackpoint>
          <Trackpoint>
            <Time>2019-10-04T16:47:40.000Z</Time>
            <Position>
              <LatitudeDegrees>42.78325592167675495147705078125</LatitudeDegrees>
              <LongitudeDegrees>-5.6177290342748165130615234375</LongitudeDegrees>
            </Position>
            <AltitudeMeters>1048.5999755859375</AltitudeMeters>
            <DistanceMeters>NAN</DistanceMeters>
          </Trackpoint>
          <Trackpoint>
            <Time>2019-10-04T16:47:46.000Z</Time>
            <Position>
              <LatitudeDegrees>42.7831939794123172760009765625</LatitudeDegrees>
              <LongitudeDegrees>-5.6175520084798336029052734375</LongitudeDegrees>
            </Position>
            <AltitudeMeters>1049.5999755859375</AltitudeMeters>
            <DistanceMeters>NAN</DistanceMeters>
          </Trackpoint>
          <Trackpoint>
            <Time>2019-10-04T16:47:53.000Z</Time>
            <Position>
              <LatitudeDegrees>42.78311870992183685302734375</LatitudeDegrees>
              <LongitudeDegrees>-5.61736232601106166839599609375</LongitudeDegrees>
            </Position>
            <AltitudeMeters>1050.5999755859375</AltitudeMeters>
            <DistanceMeters>NAN</DistanceMeters>
          </Trackpoint>
          <Trackpoint>
            <Time>2019-10-04T16:47:54.000Z</Time>
            <Position>
              <LatitudeDegrees>42.78311007656157016754150390625</LatitudeDegrees>
              <LongitudeDegrees>-5.61733449809253215789794921875</LongitudeDegrees>
            </Position>
            <AltitudeMeters>1050.800048828125</AltitudeMeters>
            <DistanceMeters>NAN</DistanceMeters>
          </Trackpoint>
          <Trackpoint>
            <Time>2019-10-04T16:48:00.000Z</Time>
            <Position>
              <LatitudeDegrees>42.78305794112384319305419921875</LatitudeDegrees>
              <LongitudeDegrees>-5.61715965159237384796142578125</LongitudeDegrees>
            </Position>
            <AltitudeMeters>1051.5999755859375</AltitudeMeters>
            <DistanceMeters>NAN</DistanceMeters>
          </Trackpoint>
          <Trackpoint>
            <Time>2019-10-04T16:48:01.000Z</Time>
            <Position>
              <LatitudeDegrees>42.78304771520197391510009765625</LatitudeDegrees>
              <LongitudeDegrees>-5.61713115312159061431884765625</LongitudeDegrees>
            </Position>
            <AltitudeMeters>1051.800048828125</AltitudeMeters>
            <DistanceMeters>NAN</DistanceMeters>
          </Trackpoint>
          <Trackpoint>
            <Time>2019-10-04T16:48:08.000Z</Time>
            <Position>
              <LatitudeDegrees>42.78297261334955692291259765625</LatitudeDegrees>
              <LongitudeDegrees>-5.61691582202911376953125</LongitudeDegrees>
            </Position>
            <AltitudeMeters>1052.5999755859375</AltitudeMeters>
            <DistanceMeters>NAN</DistanceMeters>
          </Trackpoint>
          <Trackpoint>
            <Time>2019-10-04T16:48:09.000Z</Time>
            <Position>
              <LatitudeDegrees>42.78296255506575107574462890625</LatitudeDegrees>
              <LongitudeDegrees>-5.61688690446317195892333984375</LongitudeDegrees>
            </Position>
            <AltitudeMeters>1053.199951171875</AltitudeMeters>
            <DistanceMeters>NAN</DistanceMeters>
          </Trackpoint>
          <Trackpoint>
            <Time>2019-10-04T16:48:16.000Z</Time>
            <Position>
              <LatitudeDegrees>42.78288611210882663726806640625</LatitudeDegrees>
              <LongitudeDegrees>-5.61669076792895793914794921875</LongitudeDegrees>
            </Position>
            <AltitudeMeters>1054.4000244140625</AltitudeMeters>
            <DistanceMeters>NAN</DistanceMeters>
          </Trackpoint>
          <Trackpoint>
            <Time>2019-10-04T16:48:23.000Z</Time>
            <Position>
              <LatitudeDegrees>42.78281318955123424530029296875</LatitudeDegrees>
              <LongitudeDegrees>-5.6164979003369808197021484375</LongitudeDegrees>
            </Position>
            <AltitudeMeters>1055.4000244140625</AltitudeMeters>
            <DistanceMeters>NAN</DistanceMeters>
          </Trackpoint>
          <Trackpoint>
            <Time>2019-10-04T16:48:29.000Z</Time>
            <Position>
              <LatitudeDegrees>42.78277270495891571044921875</LatitudeDegrees>
              <LongitudeDegrees>-5.61632816679775714874267578125</LongitudeDegrees>
            </Position>
            <AltitudeMeters>1056.5999755859375</AltitudeMeters>
            <DistanceMeters>NAN</DistanceMeters>
          </Trackpoint>
          <Trackpoint>
            <Time>2019-10-04T16:48:31.000Z</Time>
            <Position>
              <LatitudeDegrees>42.78275518678128719329833984375</LatitudeDegrees>
              <LongitudeDegrees>-5.61627452261745929718017578125</LongitudeDegrees>
            </Position>
            <AltitudeMeters>1057</AltitudeMeters>
            <DistanceMeters>NAN</DistanceMeters>
          </Trackpoint>
          <Trackpoint>
            <Time>2019-10-04T16:48:39.000Z</Time>
            <Position>
              <LatitudeDegrees>42.78269617818295955657958984375</LatitudeDegrees>
              <LongitudeDegrees>-5.61608844436705112457275390625</LongitudeDegrees>
            </Position>
            <AltitudeMeters>1057.5999755859375</AltitudeMeters>
            <DistanceMeters>NAN</DistanceMeters>
          </Trackpoint>
          <Trackpoint>
            <Time>2019-10-04T16:48:40.000Z</Time>
            <Position>
              <LatitudeDegrees>42.78268821537494659423828125</LatitudeDegrees>
              <LongitudeDegrees>-5.6160633824765682220458984375</LongitudeDegrees>
            </Position>
            <AltitudeMeters>1057.800048828125</AltitudeMeters>
            <DistanceMeters>NAN</DistanceMeters>
          </Trackpoint>
          <Trackpoint>
            <Time>2019-10-04T16:48:47.000Z</Time>
            <Position>
              <LatitudeDegrees>42.78263918124139308929443359375</LatitudeDegrees>
              <LongitudeDegrees>-5.6158746220171451568603515625</LongitudeDegrees>
            </Position>
            <AltitudeMeters>1058.5999755859375</AltitudeMeters>
            <DistanceMeters>NAN</DistanceMeters>
          </Trackpoint>
          <Trackpoint>
            <Time>2019-10-04T16:48:48.000Z</Time>
            <Position>
              <LatitudeDegrees>42.782628536224365234375</LatitudeDegrees>
              <LongitudeDegrees>-5.6158481352031230926513671875</LongitudeDegrees>
            </Position>
            <AltitudeMeters>1058.800048828125</AltitudeMeters>
            <DistanceMeters>NAN</DistanceMeters>
          </Trackpoint>
          <Trackpoint>
            <Time>2019-10-04T16:48:54.000Z</Time>
            <Position>
              <LatitudeDegrees>42.78257966972887516021728515625</LatitudeDegrees>
              <LongitudeDegrees>-5.6156781502068042755126953125</LongitudeDegrees>
            </Position>
            <AltitudeMeters>1059.4000244140625</AltitudeMeters>
            <DistanceMeters>NAN</DistanceMeters>
          </Trackpoint>
          <Trackpoint>
            <Time>2019-10-04T16:48:56.000Z</Time>
            <Position>
              <LatitudeDegrees>42.78256558813154697418212890625</LatitudeDegrees>
              <LongitudeDegrees>-5.61561830341815948486328125</LongitudeDegrees>
            </Position>
            <AltitudeMeters>1059.800048828125</AltitudeMeters>
            <DistanceMeters>NAN</DistanceMeters>
          </Trackpoint>
          <Trackpoint>
            <Time>2019-10-04T16:49:03.000Z</Time>
            <Position>
              <LatitudeDegrees>42.78251655399799346923828125</LatitudeDegrees>
              <LongitudeDegrees>-5.61542795039713382720947265625</LongitudeDegrees>
            </Position>
            <AltitudeMeters>1061</AltitudeMeters>
            <DistanceMeters>NAN</DistanceMeters>
          </Trackpoint>
          <Trackpoint>
            <Time>2019-10-04T16:49:10.000Z</Time>
            <Position>
              <LatitudeDegrees>42.7824694477021694183349609375</LatitudeDegrees>
              <LongitudeDegrees>-5.615218318998813629150390625</LongitudeDegrees>
            </Position>
            <AltitudeMeters>1062</AltitudeMeters>
            <DistanceMeters>NAN</DistanceMeters>
          </Trackpoint>
          <Trackpoint>
            <Time>2019-10-04T16:49:16.000Z</Time>
            <Position>
              <LatitudeDegrees>42.7824315614998340606689453125</LatitudeDegrees>
              <LongitudeDegrees>-5.61504699289798736572265625</LongitudeDegrees>
            </Position>
            <AltitudeMeters>1062.800048828125</AltitudeMeters>
            <DistanceMeters>NAN</DistanceMeters>
          </Trackpoint>
          <Trackpoint>
            <Time>2019-10-04T16:49:17.000Z</Time>
            <Position>
              <LatitudeDegrees>42.78242678381502628326416015625</LatitudeDegrees>
              <LongitudeDegrees>-5.615017153322696685791015625</LongitudeDegrees>
            </Position>
            <AltitudeMeters>1063.199951171875</AltitudeMeters>
            <DistanceMeters>NAN</DistanceMeters>
          </Trackpoint>
          <Trackpoint>
            <Time>2019-10-04T16:49:23.000Z</Time>
            <Position>
              <LatitudeDegrees>42.7823805995285511016845703125</LatitudeDegrees>
              <LongitudeDegrees>-5.614842809736728668212890625</LongitudeDegrees>
            </Position>
            <AltitudeMeters>1064</AltitudeMeters>
            <DistanceMeters>NAN</DistanceMeters>
          </Trackpoint>
          <Trackpoint>
            <Time>2019-10-04T16:49:27.000Z</Time>
            <Position>
              <LatitudeDegrees>42.782348580658435821533203125</LatitudeDegrees>
              <LongitudeDegrees>-5.61472512781620025634765625</LongitudeDegrees>
            </Position>
            <AltitudeMeters>1064.199951171875</AltitudeMeters>
            <DistanceMeters>NAN</DistanceMeters>
          </Trackpoint>
          <Trackpoint>
            <Time>2019-10-04T16:49:32.000Z</Time>
            <Position>
              <LatitudeDegrees>42.78230994008481502532958984375</LatitudeDegrees>
              <LongitudeDegrees>-5.6145724095404148101806640625</LongitudeDegrees>
            </Position>
            <AltitudeMeters>1065.199951171875</AltitudeMeters>
            <DistanceMeters>NAN</DistanceMeters>
          </Trackpoint>
          <Trackpoint>
            <Time>2019-10-04T16:49:34.000Z</Time>
            <Position>
              <LatitudeDegrees>42.7822919189929962158203125</LatitudeDegrees>
              <LongitudeDegrees>-5.6145073659718036651611328125</LongitudeDegrees>
            </Position>
            <AltitudeMeters>1065.4000244140625</AltitudeMeters>
            <DistanceMeters>NAN</DistanceMeters>
          </Trackpoint>
          <Trackpoint>
            <Time>2019-10-04T16:49:40.000Z</Time>
            <Position>
              <LatitudeDegrees>42.782241962850093841552734375</LatitudeDegrees>
              <LongitudeDegrees>-5.61432556249201297760009765625</LongitudeDegrees>
            </Position>
            <AltitudeMeters>1066</AltitudeMeters>
            <DistanceMeters>NAN</DistanceMeters>
          </Trackpoint>
          <Trackpoint>
            <Time>2019-10-04T16:49:43.000Z</Time>
            <Position>
              <LatitudeDegrees>42.78222243301570415496826171875</LatitudeDegrees>
              <LongitudeDegrees>-5.61423235572874546051025390625</LongitudeDegrees>
            </Position>
            <AltitudeMeters>1066.4000244140625</AltitudeMeters>
            <DistanceMeters>NAN</DistanceMeters>
          </Trackpoint>
          <Trackpoint>
            <Time>2019-10-04T16:49:48.000Z</Time>
            <Position>
              <LatitudeDegrees>42.7821891568601131439208984375</LatitudeDegrees>
              <LongitudeDegrees>-5.6140886060893535614013671875</LongitudeDegrees>
            </Position>
            <AltitudeMeters>1067.4000244140625</AltitudeMeters>
            <DistanceMeters>NAN</DistanceMeters>
          </Trackpoint>
          <Trackpoint>
            <Time>2019-10-04T16:49:49.000Z</Time>
            <Position>
              <LatitudeDegrees>42.7821821160614490509033203125</LatitudeDegrees>
              <LongitudeDegrees>-5.61405784450471401214599609375</LongitudeDegrees>
            </Position>
            <AltitudeMeters>1067.5999755859375</AltitudeMeters>
            <DistanceMeters>NAN</DistanceMeters>
          </Trackpoint>
          <Trackpoint>
            <Time>2019-10-04T16:49:55.000Z</Time>
            <Position>
              <LatitudeDegrees>42.78213978745043277740478515625</LatitudeDegrees>
              <LongitudeDegrees>-5.6138820759952068328857421875</LongitudeDegrees>
            </Position>
            <AltitudeMeters>1068.5999755859375</AltitudeMeters>
            <DistanceMeters>NAN</DistanceMeters>
          </Trackpoint>
          <Trackpoint>
            <Time>2019-10-04T16:49:58.000Z</Time>
            <Position>
              <LatitudeDegrees>42.78211891651153564453125</LatitudeDegrees>
              <LongitudeDegrees>-5.61378995887935161590576171875</LongitudeDegrees>
            </Position>
            <AltitudeMeters>1068.800048828125</AltitudeMeters>
            <DistanceMeters>NAN</DistanceMeters>
          </Trackpoint>
          <Trackpoint>
            <Time>2019-10-04T16:50:04.000Z</Time>
            <Position>
              <LatitudeDegrees>42.78207574971020221710205078125</LatitudeDegrees>
              <LongitudeDegrees>-5.61360723339021205902099609375</LongitudeDegrees>
            </Position>
            <AltitudeMeters>1069.5999755859375</AltitudeMeters>
            <DistanceMeters>NAN</DistanceMeters>
          </Trackpoint>
          <Trackpoint>
            <Time>2019-10-04T16:50:06.000Z</Time>
            <Position>
              <LatitudeDegrees>42.78206317685544490814208984375</LatitudeDegrees>
              <LongitudeDegrees>-5.6135464645922183990478515625</LongitudeDegrees>
            </Position>
            <AltitudeMeters>1069.800048828125</AltitudeMeters>
            <DistanceMeters>NAN</DistanceMeters>
          </Trackpoint>
          <Trackpoint>
            <Time>2019-10-04T16:50:13.000Z</Time>
            <Position>
              <LatitudeDegrees>42.78201305307447910308837890625</LatitudeDegrees>
              <LongitudeDegrees>-5.61334320344030857086181640625</LongitudeDegrees>
            </Position>
            <AltitudeMeters>1071</AltitudeMeters>
            <DistanceMeters>NAN</DistanceMeters>
          </Trackpoint>
          <Trackpoint>
            <Time>2019-10-04T16:50:14.000Z</Time>
            <Position>
              <LatitudeDegrees>42.7819980494678020477294921875</LatitudeDegrees>
              <LongitudeDegrees>-5.61328872106969356536865234375</LongitudeDegrees>
            </Position>
            <AltitudeMeters>1071.4000244140625</AltitudeMeters>
            <DistanceMeters>NAN</DistanceMeters>
          </Trackpoint>
          <Trackpoint>
            <Time>2019-10-04T16:50:18.000Z</Time>
            <Position>
              <LatitudeDegrees>42.78197801671922206878662109375</LatitudeDegrees>
              <LongitudeDegrees>-5.6131997890770435333251953125</LongitudeDegrees>
            </Position>
            <AltitudeMeters>1072.199951171875</AltitudeMeters>
            <DistanceMeters>NAN</DistanceMeters>
          </Trackpoint>
          <Trackpoint>
            <Time>2019-10-04T16:50:26.000Z</Time>
            <Position>
              <LatitudeDegrees>42.78191582299768924713134765625</LatitudeDegrees>
              <LongitudeDegrees>-5.61295545659959316253662109375</LongitudeDegrees>
            </Position>
            <AltitudeMeters>1073.199951171875</AltitudeMeters>
            <DistanceMeters>NAN</DistanceMeters>
          </Trackpoint>
          <Trackpoint>
            <Time>2019-10-04T16:50:27.000Z</Time>
            <Position>
              <LatitudeDegrees>42.7819097042083740234375</LatitudeDegrees>
              <LongitudeDegrees>-5.61292461119592189788818359375</LongitudeDegrees>
            </Position>
            <AltitudeMeters>1073.199951171875</AltitudeMeters>
            <DistanceMeters>NAN</DistanceMeters>
          </Trackpoint>
          <Trackpoint>
            <Time>2019-10-04T16:50:34.000Z</Time>
            <Position>
              <LatitudeDegrees>42.78184331953525543212890625</LatitudeDegrees>
              <LongitudeDegrees>-5.61272042803466320037841796875</LongitudeDegrees>
            </Position>
            <AltitudeMeters>1074.199951171875</AltitudeMeters>
            <DistanceMeters>NAN</DistanceMeters>
          </Trackpoint>
          <Trackpoint>
            <Time>2019-10-04T16:50:37.000Z</Time>
            <Position>
              <LatitudeDegrees>42.781813479959964752197265625</LatitudeDegrees>
              <LongitudeDegrees>-5.6126351840794086456298828125</LongitudeDegrees>
            </Position>
            <AltitudeMeters>1075.199951171875</AltitudeMeters>
            <DistanceMeters>NAN</DistanceMeters>
          </Trackpoint>
          <Trackpoint>
            <Time>2019-10-04T16:50:46.000Z</Time>
            <Position>
              <LatitudeDegrees>42.781720943748950958251953125</LatitudeDegrees>
              <LongitudeDegrees>-5.612389259040355682373046875</LongitudeDegrees>
            </Position>
            <AltitudeMeters>1076.199951171875</AltitudeMeters>
            <DistanceMeters>NAN</DistanceMeters>
          </Trackpoint>
          <Trackpoint>
            <Time>2019-10-04T16:50:47.000Z</Time>
            <Position>
              <LatitudeDegrees>42.781710214912891387939453125</LatitudeDegrees>
              <LongitudeDegrees>-5.612361431121826171875</LongitudeDegrees>
            </Position>
            <AltitudeMeters>1076.199951171875</AltitudeMeters>
            <DistanceMeters>NAN</DistanceMeters>
          </Trackpoint>
          <Trackpoint>
            <Time>2019-10-04T16:50:53.000Z</Time>
            <Position>
              <LatitudeDegrees>42.78163670562207698822021484375</LatitudeDegrees>
              <LongitudeDegrees>-5.612203516066074371337890625</LongitudeDegrees>
            </Position>
            <AltitudeMeters>1077.4000244140625</AltitudeMeters>
            <DistanceMeters>NAN</DistanceMeters>
          </Trackpoint>
          <Trackpoint>
            <Time>2019-10-04T16:50:56.000Z</Time>
            <Position>
              <LatitudeDegrees>42.78160502202808856964111328125</LatitudeDegrees>
              <LongitudeDegrees>-5.6121292524039745330810546875</LongitudeDegrees>
            </Position>
            <AltitudeMeters>1077.5999755859375</AltitudeMeters>
            <DistanceMeters>NAN</DistanceMeters>
          </Trackpoint>
          <Trackpoint>
            <Time>2019-10-04T16:50:58.000Z</Time>
            <Position>
              <LatitudeDegrees>42.78158272616565227508544921875</LatitudeDegrees>
              <LongitudeDegrees>-5.61207644641399383544921875</LongitudeDegrees>
            </Position>
            <AltitudeMeters>1078.4000244140625</AltitudeMeters>
            <DistanceMeters>NAN</DistanceMeters>
          </Trackpoint>
          <Trackpoint>
            <Time>2019-10-04T16:51:05.000Z</Time>
            <Position>
              <LatitudeDegrees>42.7814899384975433349609375</LatitudeDegrees>
              <LongitudeDegrees>-5.6119042821228504180908203125</LongitudeDegrees>
            </Position>
            <AltitudeMeters>1078.800048828125</AltitudeMeters>
            <DistanceMeters>NAN</DistanceMeters>
          </Trackpoint>
          <Trackpoint>
            <Time>2019-10-04T16:51:09.000Z</Time>
            <Position>
              <LatitudeDegrees>42.7814361266791820526123046875</LatitudeDegrees>
              <LongitudeDegrees>-5.61179690994322299957275390625</LongitudeDegrees>
            </Position>
            <AltitudeMeters>1079.4000244140625</AltitudeMeters>
            <DistanceMeters>NAN</DistanceMeters>
          </Trackpoint>
          <Trackpoint>
            <Time>2019-10-04T16:51:13.000Z</Time>
            <Position>
              <LatitudeDegrees>42.78138038702309131622314453125</LatitudeDegrees>
              <LongitudeDegrees>-5.61169733293354511260986328125</LongitudeDegrees>
            </Position>
            <AltitudeMeters>1080.199951171875</AltitudeMeters>
            <DistanceMeters>NAN</DistanceMeters>
          </Trackpoint>
          <Trackpoint>
            <Time>2019-10-04T16:51:18.000Z</Time>
            <Position>
              <LatitudeDegrees>42.78131366707384586334228515625</LatitudeDegrees>
              <LongitudeDegrees>-5.61156942509114742279052734375</LongitudeDegrees>
            </Position>
            <AltitudeMeters>1080.5999755859375</AltitudeMeters>
            <DistanceMeters>NAN</DistanceMeters>
          </Trackpoint>
          <Trackpoint>
            <Time>2019-10-04T16:51:22.000Z</Time>
            <Position>
              <LatitudeDegrees>42.7812614478170871734619140625</LatitudeDegrees>
              <LongitudeDegrees>-5.61147470958530902862548828125</LongitudeDegrees>
            </Position>
            <AltitudeMeters>1081</AltitudeMeters>
            <DistanceMeters>NAN</DistanceMeters>
          </Trackpoint>
          <Trackpoint>
            <Time>2019-10-04T16:51:26.000Z</Time>
            <Position>
              <LatitudeDegrees>42.7811994217336177825927734375</LatitudeDegrees>
              <LongitudeDegrees>-5.61136809177696704864501953125</LongitudeDegrees>
            </Position>
            <AltitudeMeters>1081.800048828125</AltitudeMeters>
            <DistanceMeters>NAN</DistanceMeters>
          </Trackpoint>
          <Trackpoint>
            <Time>2019-10-04T16:51:29.000Z</Time>
            <Position>
              <LatitudeDegrees>42.78115667402744293212890625</LatitudeDegrees>
              <LongitudeDegrees>-5.6112877093255519866943359375</LongitudeDegrees>
            </Position>
            <AltitudeMeters>1082.199951171875</AltitudeMeters>
            <DistanceMeters>NAN</DistanceMeters>
          </Trackpoint>
          <Trackpoint>
            <Time>2019-10-04T16:51:34.000Z</Time>
            <Position>
              <LatitudeDegrees>42.78108232654631137847900390625</LatitudeDegrees>
              <LongitudeDegrees>-5.61114328913390636444091796875</LongitudeDegrees>
            </Position>
            <AltitudeMeters>1082.800048828125</AltitudeMeters>
            <DistanceMeters>NAN</DistanceMeters>
          </Trackpoint>
          <Trackpoint>
            <Time>2019-10-04T16:51:37.000Z</Time>
            <Position>
              <LatitudeDegrees>42.7810393273830413818359375</LatitudeDegrees>
              <LongitudeDegrees>-5.61106718145310878753662109375</LongitudeDegrees>
            </Position>
            <AltitudeMeters>1083.4000244140625</AltitudeMeters>
            <DistanceMeters>NAN</DistanceMeters>
          </Trackpoint>
          <Trackpoint>
            <Time>2019-10-04T16:51:43.000Z</Time>
            <Position>
              <LatitudeDegrees>42.780953831970691680908203125</LatitudeDegrees>
              <LongitudeDegrees>-5.61092485673725605010986328125</LongitudeDegrees>
            </Position>
            <AltitudeMeters>1083.800048828125</AltitudeMeters>
            <DistanceMeters>NAN</DistanceMeters>
          </Trackpoint>
          <Trackpoint>
            <Time>2019-10-04T16:51:44.000Z</Time>
            <Position>
              <LatitudeDegrees>42.78094000183045864105224609375</LatitudeDegrees>
              <LongitudeDegrees>-5.61090071685612201690673828125</LongitudeDegrees>
            </Position>
            <AltitudeMeters>1084.4000244140625</AltitudeMeters>
            <DistanceMeters>NAN</DistanceMeters>
          </Trackpoint>
          <Trackpoint>
            <Time>2019-10-04T16:51:50.000Z</Time>
            <Position>
              <LatitudeDegrees>42.78085199184715747833251953125</LatitudeDegrees>
              <LongitudeDegrees>-5.61075671575963497161865234375</LongitudeDegrees>
            </Position>
            <AltitudeMeters>1084.800048828125</AltitudeMeters>
            <DistanceMeters>NAN</DistanceMeters>
          </Trackpoint>
          <Trackpoint>
            <Time>2019-10-04T16:51:55.000Z</Time>
            <Position>
              <LatitudeDegrees>42.78078611008822917938232421875</LatitudeDegrees>
              <LongitudeDegrees>-5.61063936911523342132568359375</LongitudeDegrees>
            </Position>
            <AltitudeMeters>1085.4000244140625</AltitudeMeters>
            <DistanceMeters>NAN</DistanceMeters>
          </Trackpoint>
          <Trackpoint>
            <Time>2019-10-04T16:51:57.000Z</Time>
            <Position>
              <LatitudeDegrees>42.78075777925550937652587890625</LatitudeDegrees>
              <LongitudeDegrees>-5.6105923466384410858154296875</LongitudeDegrees>
            </Position>
            <AltitudeMeters>1086</AltitudeMeters>
            <DistanceMeters>NAN</DistanceMeters>
          </Trackpoint>
          <Trackpoint>
            <Time>2019-10-04T16:52:03.000Z</Time>
            <Position>
              <LatitudeDegrees>42.78067261911928653717041015625</LatitudeDegrees>
              <LongitudeDegrees>-5.6104475073516368865966796875</LongitudeDegrees>
            </Position>
            <AltitudeMeters>1086.5999755859375</AltitudeMeters>
            <DistanceMeters>NAN</DistanceMeters>
          </Trackpoint>
          <Trackpoint>
            <Time>2019-10-04T16:52:06.000Z</Time>
            <Position>
              <LatitudeDegrees>42.78063070960342884063720703125</LatitudeDegrees>
              <LongitudeDegrees>-5.610380955040454864501953125</LongitudeDegrees>
            </Position>
            <AltitudeMeters>1087.4000244140625</AltitudeMeters>
            <DistanceMeters>NAN</DistanceMeters>
          </Trackpoint>
          <Trackpoint>
            <Time>2019-10-04T16:52:10.000Z</Time>
            <Position>
              <LatitudeDegrees>42.780576311051845550537109375</LatitudeDegrees>
              <LongitudeDegrees>-5.61027844436466693878173828125</LongitudeDegrees>
            </Position>
            <AltitudeMeters>1087.5999755859375</AltitudeMeters>
            <DistanceMeters>NAN</DistanceMeters>
          </Trackpoint>
          <Trackpoint>
            <Time>2019-10-04T16:52:14.000Z</Time>
            <Position>
              <LatitudeDegrees>42.7805308811366558074951171875</LatitudeDegrees>
              <LongitudeDegrees>-5.6101802922785282135009765625</LongitudeDegrees>
            </Position>
            <AltitudeMeters>1088.4000244140625</AltitudeMeters>
            <DistanceMeters>NAN</DistanceMeters>
          </Trackpoint>
          <Trackpoint>
            <Time>2019-10-04T16:52:18.000Z</Time>
            <Position>
              <LatitudeDegrees>42.78048670850694179534912109375</LatitudeDegrees>
              <LongitudeDegrees>-5.6100669689476490020751953125</LongitudeDegrees>
            </Position>
            <AltitudeMeters>1088.800048828125</AltitudeMeters>
            <DistanceMeters>NAN</DistanceMeters>
          </Trackpoint>
          <Trackpoint>
            <Time>2019-10-04T16:52:20.000Z</Time>
            <Position>
              <LatitudeDegrees>42.78046256862580776214599609375</LatitudeDegrees>
              <LongitudeDegrees>-5.6100086309015750885009765625</LongitudeDegrees>
            </Position>
            <AltitudeMeters>1089</AltitudeMeters>
            <DistanceMeters>NAN</DistanceMeters>
          </Trackpoint>
          <Trackpoint>
            <Time>2019-10-04T16:52:28.000Z</Time>
            <Position>
              <LatitudeDegrees>42.78035595081746578216552734375</LatitudeDegrees>
              <LongitudeDegrees>-5.609794557094573974609375</LongitudeDegrees>
            </Position>
            <AltitudeMeters>1089.800048828125</AltitudeMeters>
            <DistanceMeters>NAN</DistanceMeters>
          </Trackpoint>
          <Trackpoint>
            <Time>2019-10-04T16:52:30.000Z</Time>
            <Position>
              <LatitudeDegrees>42.7803300507366657257080078125</LatitudeDegrees>
              <LongitudeDegrees>-5.60974166728556156158447265625</LongitudeDegrees>
            </Position>
            <AltitudeMeters>1090.4000244140625</AltitudeMeters>
            <DistanceMeters>NAN</DistanceMeters>
          </Trackpoint>
          <Trackpoint>
            <Time>2019-10-04T16:52:35.000Z</Time>
            <Position>
              <LatitudeDegrees>42.78027900494635105133056640625</LatitudeDegrees>
              <LongitudeDegrees>-5.6095969118177890777587890625</LongitudeDegrees>
            </Position>
            <AltitudeMeters>1091</AltitudeMeters>
            <DistanceMeters>NAN</DistanceMeters>
          </Trackpoint>
          <Trackpoint>
            <Time>2019-10-04T16:52:37.000Z</Time>
            <Position>
              <LatitudeDegrees>42.780257128179073333740234375</LatitudeDegrees>
              <LongitudeDegrees>-5.60953781940042972564697265625</LongitudeDegrees>
            </Position>
            <AltitudeMeters>1091.5999755859375</AltitudeMeters>
            <DistanceMeters>NAN</DistanceMeters>
          </Trackpoint>
          <Trackpoint>
            <Time>2019-10-04T16:52:43.000Z</Time>
            <Position>
              <LatitudeDegrees>42.7801919169723987579345703125</LatitudeDegrees>
              <LongitudeDegrees>-5.6093759648501873016357421875</LongitudeDegrees>
            </Position>
            <AltitudeMeters>1092</AltitudeMeters>
            <DistanceMeters>NAN</DistanceMeters>
          </Trackpoint>
          <Trackpoint>
            <Time>2019-10-04T16:52:44.000Z</Time>
            <Position>
              <LatitudeDegrees>42.78018278069794178009033203125</LatitudeDegrees>
              <LongitudeDegrees>-5.60934805311262607574462890625</LongitudeDegrees>
            </Position>
            <AltitudeMeters>1092.199951171875</AltitudeMeters>
            <DistanceMeters>NAN</DistanceMeters>
          </Trackpoint>
          <Trackpoint>
            <Time>2019-10-04T16:52:49.000Z</Time>
            <Position>
              <LatitudeDegrees>42.7801292203366756439208984375</LatitudeDegrees>
              <LongitudeDegrees>-5.60920371674001216888427734375</LongitudeDegrees>
            </Position>
            <AltitudeMeters>1093</AltitudeMeters>
            <DistanceMeters>NAN</DistanceMeters>
          </Trackpoint>
          <Trackpoint>
            <Time>2019-10-04T16:52:51.000Z</Time>
            <Position>
              <LatitudeDegrees>42.78011086396872997283935546875</LatitudeDegrees>
              <LongitudeDegrees>-5.6091429479420185089111328125</LongitudeDegrees>
            </Position>
            <AltitudeMeters>1093.199951171875</AltitudeMeters>
            <DistanceMeters>NAN</DistanceMeters>
          </Trackpoint>
          <Trackpoint>
            <Time>2019-10-04T16:52:57.000Z</Time>
            <Position>
              <LatitudeDegrees>42.78006392531096935272216796875</LatitudeDegrees>
              <LongitudeDegrees>-5.6089696101844310760498046875</LongitudeDegrees>
            </Position>
            <AltitudeMeters>1094.199951171875</AltitudeMeters>
            <DistanceMeters>NAN</DistanceMeters>
          </Trackpoint>
          <Trackpoint>
            <Time>2019-10-04T16:52:59.000Z</Time>
            <Position>
              <LatitudeDegrees>42.78004883788526058197021484375</LatitudeDegrees>
              <LongitudeDegrees>-5.6089107692241668701171875</LongitudeDegrees>
            </Position>
            <AltitudeMeters>1094.199951171875</AltitudeMeters>
            <DistanceMeters>NAN</DistanceMeters>
          </Trackpoint>
          <Trackpoint>
            <Time>2019-10-04T16:53:05.000Z</Time>
            <Position>
              <LatitudeDegrees>42.78000575490295886993408203125</LatitudeDegrees>
              <LongitudeDegrees>-5.60872904956340789794921875</LongitudeDegrees>
            </Position>
            <AltitudeMeters>1095.4000244140625</AltitudeMeters>
            <DistanceMeters>NAN</DistanceMeters>
          </Trackpoint>
          <Trackpoint>
            <Time>2019-10-04T16:53:07.000Z</Time>
            <Position>
              <LatitudeDegrees>42.77998999692499637603759765625</LatitudeDegrees>
              <LongitudeDegrees>-5.6086668558418750762939453125</LongitudeDegrees>
            </Position>
            <AltitudeMeters>1095.5999755859375</AltitudeMeters>
            <DistanceMeters>NAN</DistanceMeters>
          </Trackpoint>
          <Trackpoint>
            <Time>2019-10-04T16:53:14.000Z</Time>
            <Position>
              <LatitudeDegrees>42.77994758449494838714599609375</LatitudeDegrees>
              <LongitudeDegrees>-5.6084552966058254241943359375</LongitudeDegrees>
            </Position>
            <AltitudeMeters>1096.4000244140625</AltitudeMeters>
            <DistanceMeters>NAN</DistanceMeters>
          </Trackpoint>
          <Trackpoint>
            <Time>2019-10-04T16:53:15.000Z</Time>
            <Position>
              <LatitudeDegrees>42.7799444831907749176025390625</LatitudeDegrees>
              <LongitudeDegrees>-5.60842671431601047515869140625</LongitudeDegrees>
            </Position>
            <AltitudeMeters>1096.800048828125</AltitudeMeters>
            <DistanceMeters>NAN</DistanceMeters>
          </Trackpoint>
          <Trackpoint>
            <Time>2019-10-04T16:53:20.000Z</Time>
            <Position>
              <LatitudeDegrees>42.7799154818058013916015625</LatitudeDegrees>
              <LongitudeDegrees>-5.608271397650241851806640625</LongitudeDegrees>
            </Position>
            <AltitudeMeters>1097.4000244140625</AltitudeMeters>
            <DistanceMeters>NAN</DistanceMeters>
          </Trackpoint>
          <Trackpoint>
            <Time>2019-10-04T16:53:23.000Z</Time>
            <Position>
              <LatitudeDegrees>42.77990114875137805938720703125</LatitudeDegrees>
              <LongitudeDegrees>-5.60817626304924488067626953125</LongitudeDegrees>
            </Position>
            <AltitudeMeters>1098</AltitudeMeters>
            <DistanceMeters>NAN</DistanceMeters>
          </Trackpoint>
          <Trackpoint>
            <Time>2019-10-04T16:53:28.000Z</Time>
            <Position>
              <LatitudeDegrees>42.7798878215253353118896484375</LatitudeDegrees>
              <LongitudeDegrees>-5.608014576137065887451171875</LongitudeDegrees>
            </Position>
            <AltitudeMeters>1098.5999755859375</AltitudeMeters>
            <DistanceMeters>NAN</DistanceMeters>
          </Trackpoint>
          <Trackpoint>
            <Time>2019-10-04T16:53:30.000Z</Time>
            <Position>
              <LatitudeDegrees>42.77988220565021038055419921875</LatitudeDegrees>
              <LongitudeDegrees>-5.60795129276812076568603515625</LongitudeDegrees>
            </Position>
            <AltitudeMeters>1099</AltitudeMeters>
            <DistanceMeters>NAN</DistanceMeters>
          </Trackpoint>
          <Trackpoint>
            <Time>2019-10-04T16:53:37.000Z</Time>
            <Position>
              <LatitudeDegrees>42.779861502349376678466796875</LatitudeDegrees>
              <LongitudeDegrees>-5.6077341176569461822509765625</LongitudeDegrees>
            </Position>
            <AltitudeMeters>1099.800048828125</AltitudeMeters>
            <DistanceMeters>NAN</DistanceMeters>
          </Trackpoint>
          <Trackpoint>
            <Time>2019-10-04T16:53:39.000Z</Time>
            <Position>
              <LatitudeDegrees>42.77985001914203166961669921875</LatitudeDegrees>
              <LongitudeDegrees>-5.6076670624315738677978515625</LongitudeDegrees>
            </Position>
            <AltitudeMeters>1100</AltitudeMeters>
            <DistanceMeters>NAN</DistanceMeters>
          </Trackpoint>
          <Trackpoint>
            <Time>2019-10-04T16:53:44.000Z</Time>
            <Position>
              <LatitudeDegrees>42.7798321656882762908935546875</LatitudeDegrees>
              <LongitudeDegrees>-5.60750436969101428985595703125</LongitudeDegrees>
            </Position>
            <AltitudeMeters>1100.800048828125</AltitudeMeters>
            <DistanceMeters>NAN</DistanceMeters>
          </Trackpoint>
          <Trackpoint>
            <Time>2019-10-04T16:53:45.000Z</Time>
            <Position>
              <LatitudeDegrees>42.7798283100128173828125</LatitudeDegrees>
              <LongitudeDegrees>-5.6074705906212329864501953125</LongitudeDegrees>
            </Position>
            <AltitudeMeters>1101</AltitudeMeters>
            <DistanceMeters>NAN</DistanceMeters>
          </Trackpoint>
          <Trackpoint>
            <Time>2019-10-04T16:53:52.000Z</Time>
            <Position>
              <LatitudeDegrees>42.779808528721332550048828125</LatitudeDegrees>
              <LongitudeDegrees>-5.60723681934177875518798828125</LongitudeDegrees>
            </Position>
            <AltitudeMeters>1101.800048828125</AltitudeMeters>
            <DistanceMeters>NAN</DistanceMeters>
          </Trackpoint>
          <Trackpoint>
            <Time>2019-10-04T16:53:56.000Z</Time>
            <Position>
              <LatitudeDegrees>42.7797956205904483795166015625</LatitudeDegrees>
              <LongitudeDegrees>-5.60710689984261989593505859375</LongitudeDegrees>
            </Position>
            <AltitudeMeters>1102.199951171875</AltitudeMeters>
            <DistanceMeters>NAN</DistanceMeters>
          </Trackpoint>
          <Trackpoint>
            <Time>2019-10-04T16:53:58.000Z</Time>
            <Position>
              <LatitudeDegrees>42.779789082705974578857421875</LatitudeDegrees>
              <LongitudeDegrees>-5.60704252682626247406005859375</LongitudeDegrees>
            </Position>
            <AltitudeMeters>1102.4000244140625</AltitudeMeters>
            <DistanceMeters>NAN</DistanceMeters>
          </Trackpoint>
          <Trackpoint>
            <Time>2019-10-04T16:54:00.000Z</Time>
            <Position>
              <LatitudeDegrees>42.77978128753602504730224609375</LatitudeDegrees>
              <LongitudeDegrees>-5.60698091983795166015625</LongitudeDegrees>
            </Position>
            <AltitudeMeters>1102.800048828125</AltitudeMeters>
            <DistanceMeters>NAN</DistanceMeters>
          </Trackpoint>
          <Trackpoint>
            <Time>2019-10-04T16:54:03.000Z</Time>
            <Position>
              <LatitudeDegrees>42.77976988814771175384521484375</LatitudeDegrees>
              <LongitudeDegrees>-5.60688980855047702789306640625</LongitudeDegrees>
            </Position>
            <AltitudeMeters>1103.4000244140625</AltitudeMeters>
            <DistanceMeters>NAN</DistanceMeters>
          </Trackpoint>
          <Trackpoint>
            <Time>2019-10-04T16:54:08.000Z</Time>
            <Position>
              <LatitudeDegrees>42.779758237302303314208984375</LatitudeDegrees>
              <LongitudeDegrees>-5.6067309714853763580322265625</LongitudeDegrees>
            </Position>
            <AltitudeMeters>1104</AltitudeMeters>
            <DistanceMeters>NAN</DistanceMeters>
          </Trackpoint>
          <Trackpoint>
            <Time>2019-10-04T16:54:12.000Z</Time>
            <Position>
              <LatitudeDegrees>42.77974759228527545928955078125</LatitudeDegrees>
              <LongitudeDegrees>-5.60660314746201038360595703125</LongitudeDegrees>
            </Position>
            <AltitudeMeters>1104.5999755859375</AltitudeMeters>
            <DistanceMeters>NAN</DistanceMeters>
          </Trackpoint>
          <Trackpoint>
            <Time>2019-10-04T16:54:17.000Z</Time>
            <Position>
              <LatitudeDegrees>42.77972898446023464202880859375</LatitudeDegrees>
              <LongitudeDegrees>-5.60643400065600872039794921875</LongitudeDegrees>
            </Position>
            <AltitudeMeters>1105</AltitudeMeters>
            <DistanceMeters>NAN</DistanceMeters>
          </Trackpoint>
          <Trackpoint>
            <Time>2019-10-04T16:54:20.000Z</Time>
            <Position>
              <LatitudeDegrees>42.77972479350864887237548828125</LatitudeDegrees>
              <LongitudeDegrees>-5.6063390336930751800537109375</LongitudeDegrees>
            </Position>
            <AltitudeMeters>1105.5999755859375</AltitudeMeters>
            <DistanceMeters>NAN</DistanceMeters>
          </Trackpoint>
          <Trackpoint>
            <Time>2019-10-04T16:54:23.000Z</Time>
            <Position>
              <LatitudeDegrees>42.77971691451966762542724609375</LatitudeDegrees>
              <LongitudeDegrees>-5.60624138452112674713134765625</LongitudeDegrees>
            </Position>
            <AltitudeMeters>1105.800048828125</AltitudeMeters>
            <DistanceMeters>NAN</DistanceMeters>
          </Trackpoint>
          <Trackpoint>
            <Time>2019-10-04T16:54:27.000Z</Time>
            <Position>
              <LatitudeDegrees>42.77970316819846630096435546875</LatitudeDegrees>
              <LongitudeDegrees>-5.60609386302530765533447265625</LongitudeDegrees>
            </Position>
            <AltitudeMeters>1106.800048828125</AltitudeMeters>
            <DistanceMeters>NAN</DistanceMeters>
          </Trackpoint>
          <Trackpoint>
            <Time>2019-10-04T16:54:31.000Z</Time>
            <Position>
              <LatitudeDegrees>42.77969059534370899200439453125</LatitudeDegrees>
              <LongitudeDegrees>-5.60595874674618244171142578125</LongitudeDegrees>
            </Position>
            <AltitudeMeters>1107.199951171875</AltitudeMeters>
            <DistanceMeters>NAN</DistanceMeters>
          </Trackpoint>
          <Trackpoint>
            <Time>2019-10-04T16:54:35.000Z</Time>
            <Position>
              <LatitudeDegrees>42.77967718429863452911376953125</LatitudeDegrees>
              <LongitudeDegrees>-5.60582564212381839752197265625</LongitudeDegrees>
            </Position>
            <AltitudeMeters>1107.800048828125</AltitudeMeters>
            <DistanceMeters>NAN</DistanceMeters>
          </Trackpoint>
          <Trackpoint>
            <Time>2019-10-04T16:54:39.000Z</Time>
            <Position>
              <LatitudeDegrees>42.77966243214905261993408203125</LatitudeDegrees>
              <LongitudeDegrees>-5.6056956388056278228759765625</LongitudeDegrees>
            </Position>
            <AltitudeMeters>1108.4000244140625</AltitudeMeters>
            <DistanceMeters>NAN</DistanceMeters>
          </Trackpoint>
          <Trackpoint>
            <Time>2019-10-04T16:54:41.000Z</Time>
            <Position>
              <LatitudeDegrees>42.77965472079813480377197265625</LatitudeDegrees>
              <LongitudeDegrees>-5.60562950558960437774658203125</LongitudeDegrees>
            </Position>
            <AltitudeMeters>1109</AltitudeMeters>
            <DistanceMeters>NAN</DistanceMeters>
          </Trackpoint>
          <Trackpoint>
            <Time>2019-10-04T16:54:48.000Z</Time>
            <Position>
              <LatitudeDegrees>42.779619432985782623291015625</LatitudeDegrees>
              <LongitudeDegrees>-5.605401098728179931640625</LongitudeDegrees>
            </Position>
            <AltitudeMeters>1109.5999755859375</AltitudeMeters>
            <DistanceMeters>NAN</DistanceMeters>
          </Trackpoint>
          <Trackpoint>
            <Time>2019-10-04T16:54:50.000Z</Time>
            <Position>
              <LatitudeDegrees>42.779608033597469329833984375</LatitudeDegrees>
              <LongitudeDegrees>-5.605338402092456817626953125</LongitudeDegrees>
            </Position>
            <AltitudeMeters>1110.199951171875</AltitudeMeters>
            <DistanceMeters>NAN</DistanceMeters>
          </Trackpoint>
          <Trackpoint>
            <Time>2019-10-04T16:54:56.000Z</Time>
            <Position>
              <LatitudeDegrees>42.7795686386525630950927734375</LatitudeDegrees>
              <LongitudeDegrees>-5.60515173710882663726806640625</LongitudeDegrees>
            </Position>
            <AltitudeMeters>1111</AltitudeMeters>
            <DistanceMeters>NAN</DistanceMeters>
          </Trackpoint>
          <Trackpoint>
            <Time>2019-10-04T16:54:59.000Z</Time>
            <Position>
              <LatitudeDegrees>42.77955313213169574737548828125</LatitudeDegrees>
              <LongitudeDegrees>-5.60506045818328857421875</LongitudeDegrees>
            </Position>
            <AltitudeMeters>1111.4000244140625</AltitudeMeters>
            <DistanceMeters>NAN</DistanceMeters>
          </Trackpoint>
          <Trackpoint>
            <Time>2019-10-04T16:55:04.000Z</Time>
            <Position>
              <LatitudeDegrees>42.7795223705470561981201171875</LatitudeDegrees>
              <LongitudeDegrees>-5.60490849427878856658935546875</LongitudeDegrees>
            </Position>
            <AltitudeMeters>1112.199951171875</AltitudeMeters>
            <DistanceMeters>NAN</DistanceMeters>
          </Trackpoint>
          <Trackpoint>
            <Time>2019-10-04T16:55:05.000Z</Time>
            <Position>
              <LatitudeDegrees>42.77951491065323352813720703125</LatitudeDegrees>
              <LongitudeDegrees>-5.60487664304673671722412109375</LongitudeDegrees>
            </Position>
            <AltitudeMeters>1112.4000244140625</AltitudeMeters>
            <DistanceMeters>NAN</DistanceMeters>
          </Trackpoint>
          <Trackpoint>
            <Time>2019-10-04T16:55:12.000Z</Time>
            <Position>
              <LatitudeDegrees>42.77945254929363727569580078125</LatitudeDegrees>
              <LongitudeDegrees>-5.60466357506811618804931640625</LongitudeDegrees>
            </Position>
            <AltitudeMeters>1113.4000244140625</AltitudeMeters>
            <DistanceMeters>NAN</DistanceMeters>
          </Trackpoint>
          <Trackpoint>
            <Time>2019-10-04T16:55:20.000Z</Time>
            <Position>
              <LatitudeDegrees>42.77937258593738079071044921875</LatitudeDegrees>
              <LongitudeDegrees>-5.60442569665610790252685546875</LongitudeDegrees>
            </Position>
            <AltitudeMeters>1114.4000244140625</AltitudeMeters>
            <DistanceMeters>NAN</DistanceMeters>
          </Trackpoint>
          <Trackpoint>
            <Time>2019-10-04T16:55:22.000Z</Time>
            <Position>
              <LatitudeDegrees>42.7793497033417224884033203125</LatitudeDegrees>
              <LongitudeDegrees>-5.604370124638080596923828125</LongitudeDegrees>
            </Position>
            <AltitudeMeters>1114.5999755859375</AltitudeMeters>
            <DistanceMeters>NAN</DistanceMeters>
          </Trackpoint>
          <Trackpoint>
            <Time>2019-10-04T16:55:28.000Z</Time>
            <Position>
              <LatitudeDegrees>42.77927719987928867340087890625</LatitudeDegrees>
              <LongitudeDegrees>-5.60420013964176177978515625</LongitudeDegrees>
            </Position>
            <AltitudeMeters>1115.5999755859375</AltitudeMeters>
            <DistanceMeters>NAN</DistanceMeters>
          </Trackpoint>
          <Trackpoint>
            <Time>2019-10-04T16:55:30.000Z</Time>
            <Position>
              <LatitudeDegrees>42.7792501263320446014404296875</LatitudeDegrees>
              <LongitudeDegrees>-5.60414691455662250518798828125</LongitudeDegrees>
            </Position>
            <AltitudeMeters>1116</AltitudeMeters>
            <DistanceMeters>NAN</DistanceMeters>
          </Trackpoint>
          <Trackpoint>
            <Time>2019-10-04T16:55:36.000Z</Time>
            <Position>
              <LatitudeDegrees>42.77916320599615573883056640625</LatitudeDegrees>
              <LongitudeDegrees>-5.603981874883174896240234375</LongitudeDegrees>
            </Position>
            <AltitudeMeters>1116.800048828125</AltitudeMeters>
            <DistanceMeters>NAN</DistanceMeters>
          </Trackpoint>
          <Trackpoint>
            <Time>2019-10-04T16:55:39.000Z</Time>
            <Position>
              <LatitudeDegrees>42.7791180275380611419677734375</LatitudeDegrees>
              <LongitudeDegrees>-5.60390350408852100372314453125</LongitudeDegrees>
            </Position>
            <AltitudeMeters>1117</AltitudeMeters>
            <DistanceMeters>NAN</DistanceMeters>
          </Trackpoint>
          <Trackpoint>
            <Time>2019-10-04T16:55:45.000Z</Time>
            <Position>
              <LatitudeDegrees>42.77901836670935153961181640625</LatitudeDegrees>
              <LongitudeDegrees>-5.60375514440238475799560546875</LongitudeDegrees>
            </Position>
            <AltitudeMeters>1117.800048828125</AltitudeMeters>
            <DistanceMeters>NAN</DistanceMeters>
          </Trackpoint>
          <Trackpoint>
            <Time>2019-10-04T16:55:48.000Z</Time>
            <Position>
              <LatitudeDegrees>42.7789661474525928497314453125</LatitudeDegrees>
              <LongitudeDegrees>-5.60368943028151988983154296875</LongitudeDegrees>
            </Position>
            <AltitudeMeters>1117.800048828125</AltitudeMeters>
            <DistanceMeters>NAN</DistanceMeters>
          </Trackpoint>
          <Trackpoint>
            <Time>2019-10-04T16:55:54.000Z</Time>
            <Position>
              <LatitudeDegrees>42.77886128984391689300537109375</LatitudeDegrees>
              <LongitudeDegrees>-5.60357786715030670166015625</LongitudeDegrees>
            </Position>
            <AltitudeMeters>1119</AltitudeMeters>
            <DistanceMeters>NAN</DistanceMeters>
          </Trackpoint>
          <Trackpoint>
            <Time>2019-10-04T16:55:55.000Z</Time>
            <Position>
              <LatitudeDegrees>42.778842262923717498779296875</LatitudeDegrees>
              <LongitudeDegrees>-5.60355565510690212249755859375</LongitudeDegrees>
            </Position>
            <AltitudeMeters>1119.199951171875</AltitudeMeters>
            <DistanceMeters>NAN</DistanceMeters>
          </Trackpoint>
          <Trackpoint>
            <Time>2019-10-04T16:56:01.000Z</Time>
            <Position>
              <LatitudeDegrees>42.7787272632122039794921875</LatitudeDegrees>
              <LongitudeDegrees>-5.60344752855598926544189453125</LongitudeDegrees>
            </Position>
            <AltitudeMeters>1119.5999755859375</AltitudeMeters>
            <DistanceMeters>NAN</DistanceMeters>
          </Trackpoint>
          <Trackpoint>
            <Time>2019-10-04T16:56:02.000Z</Time>
            <Position>
              <LatitudeDegrees>42.77870622463524341583251953125</LatitudeDegrees>
              <LongitudeDegrees>-5.6034328602254390716552734375</LongitudeDegrees>
            </Position>
            <AltitudeMeters>1120</AltitudeMeters>
            <DistanceMeters>NAN</DistanceMeters>
          </Trackpoint>
          <Trackpoint>
            <Time>2019-10-04T16:56:08.000Z</Time>
            <Position>
              <LatitudeDegrees>42.778578065335750579833984375</LatitudeDegrees>
              <LongitudeDegrees>-5.603329427540302276611328125</LongitudeDegrees>
            </Position>
            <AltitudeMeters>1120.5999755859375</AltitudeMeters>
            <DistanceMeters>NAN</DistanceMeters>
          </Trackpoint>
          <Trackpoint>
            <Time>2019-10-04T16:56:10.000Z</Time>
            <Position>
              <LatitudeDegrees>42.77853271923959255218505859375</LatitudeDegrees>
              <LongitudeDegrees>-5.603295899927616119384765625</LongitudeDegrees>
            </Position>
            <AltitudeMeters>1121.199951171875</AltitudeMeters>
            <DistanceMeters>NAN</DistanceMeters>
          </Trackpoint>
          <Trackpoint>
            <Time>2019-10-04T16:56:20.000Z</Time>
            <Position>
              <LatitudeDegrees>42.77830707840621471405029296875</LatitudeDegrees>
              <LongitudeDegrees>-5.603155754506587982177734375</LongitudeDegrees>
            </Position>
            <AltitudeMeters>1122</AltitudeMeters>
            <DistanceMeters>NAN</DistanceMeters>
          </Trackpoint>
          <Trackpoint>
            <Time>2019-10-04T16:56:21.000Z</Time>
            <Position>
              <LatitudeDegrees>42.77828411199152469635009765625</LatitudeDegrees>
              <LongitudeDegrees>-5.60314393602311611175537109375</LongitudeDegrees>
            </Position>
            <AltitudeMeters>1122.199951171875</AltitudeMeters>
            <DistanceMeters>NAN</DistanceMeters>
          </Trackpoint>
          <Trackpoint>
            <Time>2019-10-04T16:56:28.000Z</Time>
            <Position>
              <LatitudeDegrees>42.7781205810606479644775390625</LatitudeDegrees>
              <LongitudeDegrees>-5.6030831672251224517822265625</LongitudeDegrees>
            </Position>
            <AltitudeMeters>1123</AltitudeMeters>
            <DistanceMeters>NAN</DistanceMeters>
          </Trackpoint>
          <Trackpoint>
            <Time>2019-10-04T16:56:29.000Z</Time>
            <Position>
              <LatitudeDegrees>42.77809853665530681610107421875</LatitudeDegrees>
              <LongitudeDegrees>-5.60307721607387065887451171875</LongitudeDegrees>
            </Position>
            <AltitudeMeters>1123.199951171875</AltitudeMeters>
            <DistanceMeters>NAN</DistanceMeters>
          </Trackpoint>
          <Trackpoint>
            <Time>2019-10-04T16:56:38.000Z</Time>
            <Position>
              <LatitudeDegrees>42.77788395993411540985107421875</LatitudeDegrees>
              <LongitudeDegrees>-5.60303228907287120819091796875</LongitudeDegrees>
            </Position>
            <AltitudeMeters>1124.199951171875</AltitudeMeters>
            <DistanceMeters>NAN</DistanceMeters>
          </Trackpoint>
          <Trackpoint>
            <Time>2019-10-04T16:56:39.000Z</Time>
            <Position>
              <LatitudeDegrees>42.7778609097003936767578125</LatitudeDegrees>
              <LongitudeDegrees>-5.6030298583209514617919921875</LongitudeDegrees>
            </Position>
            <AltitudeMeters>1124.199951171875</AltitudeMeters>
            <DistanceMeters>NAN</DistanceMeters>
          </Trackpoint>
          <Trackpoint>
            <Time>2019-10-04T16:56:47.000Z</Time>
            <Position>
              <LatitudeDegrees>42.7776610851287841796875</LatitudeDegrees>
              <LongitudeDegrees>-5.6030191294848918914794921875</LongitudeDegrees>
            </Position>
            <AltitudeMeters>1125.199951171875</AltitudeMeters>
            <DistanceMeters>NAN</DistanceMeters>
          </Trackpoint>
          <Trackpoint>
            <Time>2019-10-04T16:56:49.000Z</Time>
            <Position>
              <LatitudeDegrees>42.777611128985881805419921875</LatitudeDegrees>
              <LongitudeDegrees>-5.6030224822461605072021484375</LongitudeDegrees>
            </Position>
            <AltitudeMeters>1125.4000244140625</AltitudeMeters>
            <DistanceMeters>NAN</DistanceMeters>
          </Trackpoint>
          <Trackpoint>
            <Time>2019-10-04T16:56:56.000Z</Time>
            <Position>
              <LatitudeDegrees>42.777438797056674957275390625</LatitudeDegrees>
              <LongitudeDegrees>-5.60303949750959873199462890625</LongitudeDegrees>
            </Position>
            <AltitudeMeters>1126.5999755859375</AltitudeMeters>
            <DistanceMeters>NAN</DistanceMeters>
          </Trackpoint>
          <Trackpoint>
            <Time>2019-10-04T16:57:04.000Z</Time>
            <Position>
              <LatitudeDegrees>42.77723788283765316009521484375</LatitudeDegrees>
              <LongitudeDegrees>-5.6030851788818836212158203125</LongitudeDegrees>
            </Position>
            <AltitudeMeters>1127.4000244140625</AltitudeMeters>
            <DistanceMeters>NAN</DistanceMeters>
          </Trackpoint>
          <Trackpoint>
            <Time>2019-10-04T16:57:06.000Z</Time>
            <Position>
              <LatitudeDegrees>42.777189351618289947509765625</LatitudeDegrees>
              <LongitudeDegrees>-5.6030992604792118072509765625</LongitudeDegrees>
            </Position>
            <AltitudeMeters>1127.5999755859375</AltitudeMeters>
            <DistanceMeters>NAN</DistanceMeters>
          </Trackpoint>
          <Trackpoint>
            <Time>2019-10-04T16:57:14.000Z</Time>
            <Position>
              <LatitudeDegrees>42.77699899859726428985595703125</LatitudeDegrees>
              <LongitudeDegrees>-5.603187941014766693115234375</LongitudeDegrees>
            </Position>
            <AltitudeMeters>1128.5999755859375</AltitudeMeters>
            <DistanceMeters>NAN</DistanceMeters>
          </Trackpoint>
          <Trackpoint>
            <Time>2019-10-04T16:57:21.000Z</Time>
            <Position>
              <LatitudeDegrees>42.7768240682780742645263671875</LatitudeDegrees>
              <LongitudeDegrees>-5.603300593793392181396484375</LongitudeDegrees>
            </Position>
            <AltitudeMeters>1129.199951171875</AltitudeMeters>
            <DistanceMeters>NAN</DistanceMeters>
          </Trackpoint>
          <Trackpoint>
            <Time>2019-10-04T16:57:29.000Z</Time>
            <Position>
              <LatitudeDegrees>42.7766383253037929534912109375</LatitudeDegrees>
              <LongitudeDegrees>-5.6034405715763568878173828125</LongitudeDegrees>
            </Position>
            <AltitudeMeters>1129.800048828125</AltitudeMeters>
            <DistanceMeters>NAN</DistanceMeters>
          </Trackpoint>
          <Trackpoint>
            <Time>2019-10-04T16:57:31.000Z</Time>
            <Position>
              <LatitudeDegrees>42.77659096755087375640869140625</LatitudeDegrees>
              <LongitudeDegrees>-5.60347334481775760650634765625</LongitudeDegrees>
            </Position>
            <AltitudeMeters>1129.800048828125</AltitudeMeters>
            <DistanceMeters>NAN</DistanceMeters>
          </Trackpoint>
          <Trackpoint>
            <Time>2019-10-04T16:57:37.000Z</Time>
            <Position>
              <LatitudeDegrees>42.77646658010780811309814453125</LatitudeDegrees>
              <LongitudeDegrees>-5.6036021746695041656494140625</LongitudeDegrees>
            </Position>
            <AltitudeMeters>1131</AltitudeMeters>
            <DistanceMeters>NAN</DistanceMeters>
          </Trackpoint>
          <Trackpoint>
            <Time>2019-10-04T16:57:40.000Z</Time>
            <Position>
              <LatitudeDegrees>42.77640514075756072998046875</LatitudeDegrees>
              <LongitudeDegrees>-5.6036697328090667724609375</LongitudeDegrees>
            </Position>
            <AltitudeMeters>1131.4000244140625</AltitudeMeters>
            <DistanceMeters>NAN</DistanceMeters>
          </Trackpoint>
          <Trackpoint>
            <Time>2019-10-04T16:57:47.000Z</Time>
            <Position>
              <LatitudeDegrees>42.7762628160417079925537109375</LatitudeDegrees>
              <LongitudeDegrees>-5.60383913107216358184814453125</LongitudeDegrees>
            </Position>
            <AltitudeMeters>1132</AltitudeMeters>
            <DistanceMeters>NAN</DistanceMeters>
          </Trackpoint>
          <Trackpoint>
            <Time>2019-10-04T16:57:51.000Z</Time>
            <Position>
              <LatitudeDegrees>42.77618980966508388519287109375</LatitudeDegrees>
              <LongitudeDegrees>-5.6039406359195709228515625</LongitudeDegrees>
            </Position>
            <AltitudeMeters>1132.4000244140625</AltitudeMeters>
            <DistanceMeters>NAN</DistanceMeters>
          </Trackpoint>
          <Trackpoint>
            <Time>2019-10-04T16:58:00.000Z</Time>
            <Position>
              <LatitudeDegrees>42.77603499591350555419921875</LatitudeDegrees>
              <LongitudeDegrees>-5.60419267974793910980224609375</LongitudeDegrees>
            </Position>
            <AltitudeMeters>1133.199951171875</AltitudeMeters>
            <DistanceMeters>NAN</DistanceMeters>
          </Trackpoint>
          <Trackpoint>
            <Time>2019-10-04T16:58:01.000Z</Time>
            <Position>
              <LatitudeDegrees>42.7760194055736064910888671875</LatitudeDegrees>
              <LongitudeDegrees>-5.60422369278967380523681640625</LongitudeDegrees>
            </Position>
            <AltitudeMeters>1133.199951171875</AltitudeMeters>
            <DistanceMeters>NAN</DistanceMeters>
          </Trackpoint>
          <Trackpoint>
            <Time>2019-10-04T16:58:10.000Z</Time>
            <Position>
              <LatitudeDegrees>42.77586358599364757537841796875</LatitudeDegrees>
              <LongitudeDegrees>-5.60448252595961093902587890625</LongitudeDegrees>
            </Position>
            <AltitudeMeters>1134</AltitudeMeters>
            <DistanceMeters>NAN</DistanceMeters>
          </Trackpoint>
          <Trackpoint>
            <Time>2019-10-04T16:58:11.000Z</Time>
            <Position>
              <LatitudeDegrees>42.77584900148212909698486328125</LatitudeDegrees>
              <LongitudeDegrees>-5.60451186262071132659912109375</LongitudeDegrees>
            </Position>
            <AltitudeMeters>1134.199951171875</AltitudeMeters>
            <DistanceMeters>NAN</DistanceMeters>
          </Trackpoint>
          <Trackpoint>
            <Time>2019-10-04T16:58:20.000Z</Time>
            <Position>
              <LatitudeDegrees>42.77570785023272037506103515625</LatitudeDegrees>
              <LongitudeDegrees>-5.60477354563772678375244140625</LongitudeDegrees>
            </Position>
            <AltitudeMeters>1135</AltitudeMeters>
            <DistanceMeters>NAN</DistanceMeters>
          </Trackpoint>
          <Trackpoint>
            <Time>2019-10-04T16:58:27.000Z</Time>
            <Position>
              <LatitudeDegrees>42.77560056187212467193603515625</LatitudeDegrees>
              <LongitudeDegrees>-5.60498963110148906707763671875</LongitudeDegrees>
            </Position>
            <AltitudeMeters>1135.199951171875</AltitudeMeters>
            <DistanceMeters>NAN</DistanceMeters>
          </Trackpoint>
          <Trackpoint>
            <Time>2019-10-04T16:58:31.000Z</Time>
            <Position>
              <LatitudeDegrees>42.77553719468414783477783203125</LatitudeDegrees>
              <LongitudeDegrees>-5.6051115877926349639892578125</LongitudeDegrees>
            </Position>
            <AltitudeMeters>1136</AltitudeMeters>
            <DistanceMeters>NAN</DistanceMeters>
          </Trackpoint>
          <Trackpoint>
            <Time>2019-10-04T16:58:34.000Z</Time>
            <Position>
              <LatitudeDegrees>42.7754886634647846221923828125</LatitudeDegrees>
              <LongitudeDegrees>-5.60520353727042675018310546875</LongitudeDegrees>
            </Position>
            <AltitudeMeters>1136.4000244140625</AltitudeMeters>
            <DistanceMeters>NAN</DistanceMeters>
          </Trackpoint>
          <Trackpoint>
            <Time>2019-10-04T16:58:40.000Z</Time>
            <Position>
              <LatitudeDegrees>42.775400988757610321044921875</LatitudeDegrees>
              <LongitudeDegrees>-5.6053801439702510833740234375</LongitudeDegrees>
            </Position>
            <AltitudeMeters>1136.4000244140625</AltitudeMeters>
            <DistanceMeters>NAN</DistanceMeters>
          </Trackpoint>
          <Trackpoint>
            <Time>2019-10-04T16:58:48.000Z</Time>
            <Position>
              <LatitudeDegrees>42.77526629157364368438720703125</LatitudeDegrees>
              <LongitudeDegrees>-5.6056269071996212005615234375</LongitudeDegrees>
            </Position>
            <AltitudeMeters>1137</AltitudeMeters>
            <DistanceMeters>NAN</DistanceMeters>
          </Trackpoint>
          <Trackpoint>
            <Time>2019-10-04T16:58:49.000Z</Time>
            <Position>
              <LatitudeDegrees>42.77524868957698345184326171875</LatitudeDegrees>
              <LongitudeDegrees>-5.60565649531781673431396484375</LongitudeDegrees>
            </Position>
            <AltitudeMeters>1137.4000244140625</AltitudeMeters>
            <DistanceMeters>NAN</DistanceMeters>
          </Trackpoint>
          <Trackpoint>
            <Time>2019-10-04T16:58:54.000Z</Time>
            <Position>
              <LatitudeDegrees>42.77515933848917484283447265625</LatitudeDegrees>
              <LongitudeDegrees>-5.60583435930311679840087890625</LongitudeDegrees>
            </Position>
            <AltitudeMeters>1137.5999755859375</AltitudeMeters>
            <DistanceMeters>NAN</DistanceMeters>
          </Trackpoint>
          <Trackpoint>
            <Time>2019-10-04T16:58:57.000Z</Time>
            <Position>
              <LatitudeDegrees>42.77510334737598896026611328125</LatitudeDegrees>
              <LongitudeDegrees>-5.60594684444367885589599609375</LongitudeDegrees>
            </Position>
            <AltitudeMeters>1137.800048828125</AltitudeMeters>
            <DistanceMeters>NAN</DistanceMeters>
          </Trackpoint>
          <Trackpoint>
            <Time>2019-10-04T16:59:05.000Z</Time>
            <Position>
              <LatitudeDegrees>42.7749508805572986602783203125</LatitudeDegrees>
              <LongitudeDegrees>-5.6062404625117778778076171875</LongitudeDegrees>
            </Position>
            <AltitudeMeters>1138.5999755859375</AltitudeMeters>
            <DistanceMeters>NAN</DistanceMeters>
          </Trackpoint>
          <Trackpoint>
            <Time>2019-10-04T16:59:06.000Z</Time>
            <Position>
              <LatitudeDegrees>42.77493369765579700469970703125</LatitudeDegrees>
              <LongitudeDegrees>-5.60627759434282779693603515625</LongitudeDegrees>
            </Position>
            <AltitudeMeters>1138.800048828125</AltitudeMeters>
            <DistanceMeters>NAN</DistanceMeters>
          </Trackpoint>
          <Trackpoint>
            <Time>2019-10-04T16:59:17.000Z</Time>
            <Position>
              <LatitudeDegrees>42.77473169378936290740966796875</LatitudeDegrees>
              <LongitudeDegrees>-5.60667590238153934478759765625</LongitudeDegrees>
            </Position>
            <AltitudeMeters>1139.4000244140625</AltitudeMeters>
            <DistanceMeters>NAN</DistanceMeters>
          </Trackpoint>
          <Trackpoint>
            <Time>2019-10-04T16:59:19.000Z</Time>
            <Position>
              <LatitudeDegrees>42.7746960707008838653564453125</LatitudeDegrees>
              <LongitudeDegrees>-5.60674832202494144439697265625</LongitudeDegrees>
            </Position>
            <AltitudeMeters>1139.5999755859375</AltitudeMeters>
            <DistanceMeters>NAN</DistanceMeters>
          </Trackpoint>
          <Trackpoint>
            <Time>2019-10-04T16:59:27.000Z</Time>
            <Position>
              <LatitudeDegrees>42.7745508961379528045654296875</LatitudeDegrees>
              <LongitudeDegrees>-5.60703397728502750396728515625</LongitudeDegrees>
            </Position>
            <AltitudeMeters>1140.4000244140625</AltitudeMeters>
            <DistanceMeters>NAN</DistanceMeters>
          </Trackpoint>
          <Trackpoint>
            <Time>2019-10-04T16:59:33.000Z</Time>
            <Position>
              <LatitudeDegrees>42.77444050647318363189697265625</LatitudeDegrees>
              <LongitudeDegrees>-5.60724670998752117156982421875</LongitudeDegrees>
            </Position>
            <AltitudeMeters>1140.800048828125</AltitudeMeters>
            <DistanceMeters>NAN</DistanceMeters>
          </Trackpoint>
          <Trackpoint>
            <Time>2019-10-04T16:59:35.000Z</Time>
            <Position>
              <LatitudeDegrees>42.774405889213085174560546875</LatitudeDegrees>
              <LongitudeDegrees>-5.6073190458118915557861328125</LongitudeDegrees>
            </Position>
            <AltitudeMeters>1140.800048828125</AltitudeMeters>
            <DistanceMeters>NAN</DistanceMeters>
          </Trackpoint>
          <Trackpoint>
            <Time>2019-10-04T16:59:42.000Z</Time>
            <Position>
              <LatitudeDegrees>42.77425141073763370513916015625</LatitudeDegrees>
              <LongitudeDegrees>-5.6076201237738132476806640625</LongitudeDegrees>
            </Position>
            <AltitudeMeters>1141.4000244140625</AltitudeMeters>
            <DistanceMeters>NAN</DistanceMeters>
          </Trackpoint>
          <Trackpoint>
            <Time>2019-10-04T16:59:49.000Z</Time>
            <Position>
              <LatitudeDegrees>42.77409668080508708953857421875</LatitudeDegrees>
              <LongitudeDegrees>-5.60793972574174404144287109375</LongitudeDegrees>
            </Position>
            <AltitudeMeters>1141.5999755859375</AltitudeMeters>
            <DistanceMeters>NAN</DistanceMeters>
          </Trackpoint>
          <Trackpoint>
            <Time>2019-10-04T16:59:50.000Z</Time>
            <Position>
              <LatitudeDegrees>42.7740751393139362335205078125</LatitudeDegrees>
              <LongitudeDegrees>-5.60798280872404575347900390625</LongitudeDegrees>
            </Position>
            <AltitudeMeters>1142</AltitudeMeters>
            <DistanceMeters>NAN</DistanceMeters>
          </Trackpoint>
          <Trackpoint>
            <Time>2019-10-04T16:59:59.000Z</Time>
            <Position>
              <LatitudeDegrees>42.77389182709157466888427734375</LatitudeDegrees>
              <LongitudeDegrees>-5.60836083255708217620849609375</LongitudeDegrees>
            </Position>
            <AltitudeMeters>1142.800048828125</AltitudeMeters>
            <DistanceMeters>NAN</DistanceMeters>
          </Trackpoint>
          <Trackpoint>
            <Time>2019-10-04T17:00:02.000Z</Time>
            <Position>
              <LatitudeDegrees>42.77382393367588520050048828125</LatitudeDegrees>
              <LongitudeDegrees>-5.60847868211567401885986328125</LongitudeDegrees>
            </Position>
            <AltitudeMeters>1143</AltitudeMeters>
            <DistanceMeters>NAN</DistanceMeters>
          </Trackpoint>
          <Trackpoint>
            <Time>2019-10-04T17:00:09.000Z</Time>
            <Position>
              <LatitudeDegrees>42.77368546463549137115478515625</LatitudeDegrees>
              <LongitudeDegrees>-5.60874648392200469970703125</LongitudeDegrees>
            </Position>
            <AltitudeMeters>1143.800048828125</AltitudeMeters>
            <DistanceMeters>NAN</DistanceMeters>
          </Trackpoint>
          <Trackpoint>
            <Time>2019-10-04T17:00:14.000Z</Time>
            <Position>
              <LatitudeDegrees>42.7735893242061138153076171875</LatitudeDegrees>
              <LongitudeDegrees>-5.60893264599144458770751953125</LongitudeDegrees>
            </Position>
            <AltitudeMeters>1144.199951171875</AltitudeMeters>
            <DistanceMeters>NAN</DistanceMeters>
          </Trackpoint>
          <Trackpoint>
            <Time>2019-10-04T17:00:20.000Z</Time>
            <Position>
              <LatitudeDegrees>42.7734716422855854034423828125</LatitudeDegrees>
              <LongitudeDegrees>-5.6091493181884288787841796875</LongitudeDegrees>
            </Position>
            <AltitudeMeters>1144.800048828125</AltitudeMeters>
            <DistanceMeters>NAN</DistanceMeters>
          </Trackpoint>
          <Trackpoint>
            <Time>2019-10-04T17:00:25.000Z</Time>
            <Position>
              <LatitudeDegrees>42.77336443774402141571044921875</LatitudeDegrees>
              <LongitudeDegrees>-5.6093196384608745574951171875</LongitudeDegrees>
            </Position>
            <AltitudeMeters>1145.5999755859375</AltitudeMeters>
            <DistanceMeters>NAN</DistanceMeters>
          </Trackpoint>
          <Trackpoint>
            <Time>2019-10-04T17:00:29.000Z</Time>
            <Position>
              <LatitudeDegrees>42.77328313328325748443603515625</LatitudeDegrees>
              <LongitudeDegrees>-5.6094550900161266326904296875</LongitudeDegrees>
            </Position>
            <AltitudeMeters>1145.4000244140625</AltitudeMeters>
            <DistanceMeters>NAN</DistanceMeters>
          </Trackpoint>
          <Trackpoint>
            <Time>2019-10-04T17:00:37.000Z</Time>
            <Position>
              <LatitudeDegrees>42.773114405572414398193359375</LatitudeDegrees>
              <LongitudeDegrees>-5.609733872115612030029296875</LongitudeDegrees>
            </Position>
            <AltitudeMeters>1145.800048828125</AltitudeMeters>
            <DistanceMeters>NAN</DistanceMeters>
          </Trackpoint>
          <Trackpoint>
            <Time>2019-10-04T17:00:48.000Z</Time>
            <Position>
              <LatitudeDegrees>42.77285532094538211822509765625</LatitudeDegrees>
              <LongitudeDegrees>-5.61008800752460956573486328125</LongitudeDegrees>
            </Position>
            <AltitudeMeters>1146.5999755859375</AltitudeMeters>
            <DistanceMeters>NAN</DistanceMeters>
          </Trackpoint>
          <Trackpoint>
            <Time>2019-10-04T17:00:49.000Z</Time>
            <Position>
              <LatitudeDegrees>42.77283336035907268524169921875</LatitudeDegrees>
              <LongitudeDegrees>-5.6101196072995662689208984375</LongitudeDegrees>
            </Position>
            <AltitudeMeters>1146.800048828125</AltitudeMeters>
            <DistanceMeters>NAN</DistanceMeters>
          </Trackpoint>
          <Trackpoint>
            <Time>2019-10-04T17:00:57.000Z</Time>
            <Position>
              <LatitudeDegrees>42.77264468371868133544921875</LatitudeDegrees>
              <LongitudeDegrees>-5.61036008410155773162841796875</LongitudeDegrees>
            </Position>
            <AltitudeMeters>1147.5999755859375</AltitudeMeters>
            <DistanceMeters>NAN</DistanceMeters>
          </Trackpoint>
          <Trackpoint>
            <Time>2019-10-04T17:01:05.000Z</Time>
            <Position>
              <LatitudeDegrees>42.77243622578680515289306640625</LatitudeDegrees>
              <LongitudeDegrees>-5.61058321036398410797119140625</LongitudeDegrees>
            </Position>
            <AltitudeMeters>1148</AltitudeMeters>
            <DistanceMeters>NAN</DistanceMeters>
          </Trackpoint>
          <Trackpoint>
            <Time>2019-10-04T17:01:13.000Z</Time>
            <Position>
              <LatitudeDegrees>42.77222634293138980865478515625</LatitudeDegrees>
              <LongitudeDegrees>-5.61079527251422405242919921875</LongitudeDegrees>
            </Position>
            <AltitudeMeters>1148.5999755859375</AltitudeMeters>
            <DistanceMeters>NAN</DistanceMeters>
          </Trackpoint>
          <Trackpoint>
            <Time>2019-10-04T17:01:20.000Z</Time>
            <Position>
              <LatitudeDegrees>42.77203775011003017425537109375</LatitudeDegrees>
              <LongitudeDegrees>-5.6109626591205596923828125</LongitudeDegrees>
            </Position>
            <AltitudeMeters>1149.199951171875</AltitudeMeters>
            <DistanceMeters>NAN</DistanceMeters>
          </Trackpoint>
          <Trackpoint>
            <Time>2019-10-04T17:01:26.000Z</Time>
            <Position>
              <LatitudeDegrees>42.7718720398843288421630859375</LatitudeDegrees>
              <LongitudeDegrees>-5.61110791750252246856689453125</LongitudeDegrees>
            </Position>
            <AltitudeMeters>1149.5999755859375</AltitudeMeters>
            <DistanceMeters>NAN</DistanceMeters>
          </Trackpoint>
          <Trackpoint>
            <Time>2019-10-04T17:01:33.000Z</Time>
            <Position>
              <LatitudeDegrees>42.7716650068759918212890625</LatitudeDegrees>
              <LongitudeDegrees>-5.611266084015369415283203125</LongitudeDegrees>
            </Position>
            <AltitudeMeters>1149.5999755859375</AltitudeMeters>
            <DistanceMeters>NAN</DistanceMeters>
          </Trackpoint>
          <Trackpoint>
            <Time>2019-10-04T17:01:36.000Z</Time>
            <Position>
              <LatitudeDegrees>42.771573476493358612060546875</LatitudeDegrees>
              <LongitudeDegrees>-5.61132953502237796783447265625</LongitudeDegrees>
            </Position>
            <AltitudeMeters>1150.4000244140625</AltitudeMeters>
            <DistanceMeters>NAN</DistanceMeters>
          </Trackpoint>
          <Trackpoint>
            <Time>2019-10-04T17:01:45.000Z</Time>
            <Position>
              <LatitudeDegrees>42.7713013999164104461669921875</LatitudeDegrees>
              <LongitudeDegrees>-5.61150572262704372406005859375</LongitudeDegrees>
            </Position>
            <AltitudeMeters>1151.4000244140625</AltitudeMeters>
            <DistanceMeters>NAN</DistanceMeters>
          </Trackpoint>
          <Trackpoint>
            <Time>2019-10-04T17:01:52.000Z</Time>
            <Position>
              <LatitudeDegrees>42.771092019975185394287109375</LatitudeDegrees>
              <LongitudeDegrees>-5.6116253323853015899658203125</LongitudeDegrees>
            </Position>
            <AltitudeMeters>1151.5999755859375</AltitudeMeters>
            <DistanceMeters>NAN</DistanceMeters>
          </Trackpoint>
          <Trackpoint>
            <Time>2019-10-04T17:02:02.000Z</Time>
            <Position>
              <LatitudeDegrees>42.77078599669039249420166015625</LatitudeDegrees>
              <LongitudeDegrees>-5.61179615557193756103515625</LongitudeDegrees>
            </Position>
            <AltitudeMeters>1152</AltitudeMeters>
            <DistanceMeters>NAN</DistanceMeters>
          </Trackpoint>
          <Trackpoint>
            <Time>2019-10-04T17:02:12.000Z</Time>
            <Position>
              <LatitudeDegrees>42.7704782970249652862548828125</LatitudeDegrees>
              <LongitudeDegrees>-5.61195499263703823089599609375</LongitudeDegrees>
            </Position>
            <AltitudeMeters>1152.800048828125</AltitudeMeters>
            <DistanceMeters>NAN</DistanceMeters>
          </Trackpoint>
          <Trackpoint>
            <Time>2019-10-04T17:02:13.000Z</Time>
            <Position>
              <LatitudeDegrees>42.77044686488807201385498046875</LatitudeDegrees>
              <LongitudeDegrees>-5.6119723431766033172607421875</LongitudeDegrees>
            </Position>
            <AltitudeMeters>1152.800048828125</AltitudeMeters>
            <DistanceMeters>NAN</DistanceMeters>
          </Trackpoint>
          <Trackpoint>
            <Time>2019-10-04T17:02:22.000Z</Time>
            <Position>
              <LatitudeDegrees>42.7701738663017749786376953125</LatitudeDegrees>
              <LongitudeDegrees>-5.61211190186440944671630859375</LongitudeDegrees>
            </Position>
            <AltitudeMeters>1154.4000244140625</AltitudeMeters>
            <DistanceMeters>NAN</DistanceMeters>
          </Trackpoint>
          <Trackpoint>
            <Time>2019-10-04T17:02:23.000Z</Time>
            <Position>
              <LatitudeDegrees>42.7701440267264842987060546875</LatitudeDegrees>
              <LongitudeDegrees>-5.61212866567075252532958984375</LongitudeDegrees>
            </Position>
            <AltitudeMeters>1154.199951171875</AltitudeMeters>
            <DistanceMeters>NAN</DistanceMeters>
          </Trackpoint>
          <Trackpoint>
            <Time>2019-10-04T17:02:30.000Z</Time>
            <Position>
              <LatitudeDegrees>42.7699227444827556610107421875</LatitudeDegrees>
              <LongitudeDegrees>-5.6122375465929508209228515625</LongitudeDegrees>
            </Position>
            <AltitudeMeters>1155.5999755859375</AltitudeMeters>
            <DistanceMeters>NAN</DistanceMeters>
          </Trackpoint>
          <Trackpoint>
            <Time>2019-10-04T17:02:32.000Z</Time>
            <Position>
              <LatitudeDegrees>42.76985996402800083160400390625</LatitudeDegrees>
              <LongitudeDegrees>-5.61226998455822467803955078125</LongitudeDegrees>
            </Position>
            <AltitudeMeters>1155.5999755859375</AltitudeMeters>
            <DistanceMeters>NAN</DistanceMeters>
          </Trackpoint>
          <Trackpoint>
            <Time>2019-10-04T17:02:38.000Z</Time>
            <Position>
              <LatitudeDegrees>42.7696759812533855438232421875</LatitudeDegrees>
              <LongitudeDegrees>-5.6123696453869342803955078125</LongitudeDegrees>
            </Position>
            <AltitudeMeters>1156.5999755859375</AltitudeMeters>
            <DistanceMeters>NAN</DistanceMeters>
          </Trackpoint>
          <Trackpoint>
            <Time>2019-10-04T17:02:41.000Z</Time>
            <Position>
              <LatitudeDegrees>42.76958218775689601898193359375</LatitudeDegrees>
              <LongitudeDegrees>-5.61241381801664829254150390625</LongitudeDegrees>
            </Position>
            <AltitudeMeters>1156.800048828125</AltitudeMeters>
            <DistanceMeters>NAN</DistanceMeters>
          </Trackpoint>
          <Trackpoint>
            <Time>2019-10-04T17:02:51.000Z</Time>
            <Position>
              <LatitudeDegrees>42.76925831101834774017333984375</LatitudeDegrees>
              <LongitudeDegrees>-5.6125664524734020233154296875</LongitudeDegrees>
            </Position>
            <AltitudeMeters>1157.5999755859375</AltitudeMeters>
            <DistanceMeters>NAN</DistanceMeters>
          </Trackpoint>
          <Trackpoint>
            <Time>2019-10-04T17:02:57.000Z</Time>
            <Position>
              <LatitudeDegrees>42.7690537087619304656982421875</LatitudeDegrees>
              <LongitudeDegrees>-5.61265052296221256256103515625</LongitudeDegrees>
            </Position>
            <AltitudeMeters>1157.800048828125</AltitudeMeters>
            <DistanceMeters>NAN</DistanceMeters>
          </Trackpoint>
          <Trackpoint>
            <Time>2019-10-04T17:03:06.000Z</Time>
            <Position>
              <LatitudeDegrees>42.768689431250095367431640625</LatitudeDegrees>
              <LongitudeDegrees>-5.6128098629415035247802734375</LongitudeDegrees>
            </Position>
            <AltitudeMeters>1157</AltitudeMeters>
            <DistanceMeters>NAN</DistanceMeters>
          </Trackpoint>
          <Trackpoint>
            <Time>2019-10-04T17:03:14.000Z</Time>
            <Position>
              <LatitudeDegrees>42.76834568940103054046630859375</LatitudeDegrees>
              <LongitudeDegrees>-5.61295486986637115478515625</LongitudeDegrees>
            </Position>
            <AltitudeMeters>1156.199951171875</AltitudeMeters>
            <DistanceMeters>NAN</DistanceMeters>
          </Trackpoint>
          <Trackpoint>
            <Time>2019-10-04T17:03:16.000Z</Time>
            <Position>
              <LatitudeDegrees>42.76824879460036754608154296875</LatitudeDegrees>
              <LongitudeDegrees>-5.612992756068706512451171875</LongitudeDegrees>
            </Position>
            <AltitudeMeters>1157.199951171875</AltitudeMeters>
            <DistanceMeters>NAN</DistanceMeters>
          </Trackpoint>
          <Trackpoint>
            <Time>2019-10-04T17:03:23.000Z</Time>
            <Position>
              <LatitudeDegrees>42.7678772248327732086181640625</LatitudeDegrees>
              <LongitudeDegrees>-5.61312611214816570281982421875</LongitudeDegrees>
            </Position>
            <AltitudeMeters>1156</AltitudeMeters>
            <DistanceMeters>NAN</DistanceMeters>
          </Trackpoint>
          <Trackpoint>
            <Time>2019-10-04T17:03:29.000Z</Time>
            <Position>
              <LatitudeDegrees>42.76753415353596210479736328125</LatitudeDegrees>
              <LongitudeDegrees>-5.613230131566524505615234375</LongitudeDegrees>
            </Position>
            <AltitudeMeters>1155.199951171875</AltitudeMeters>
            <DistanceMeters>NAN</DistanceMeters>
          </Trackpoint>
          <Trackpoint>
            <Time>2019-10-04T17:03:30.000Z</Time>
            <Position>
              <LatitudeDegrees>42.76747472584247589111328125</LatitudeDegrees>
              <LongitudeDegrees>-5.61324630863964557647705078125</LongitudeDegrees>
            </Position>
            <AltitudeMeters>1155</AltitudeMeters>
            <DistanceMeters>NAN</DistanceMeters>
          </Trackpoint>
          <Trackpoint>
            <Time>2019-10-04T17:03:32.000Z</Time>
            <Position>
              <LatitudeDegrees>42.767352350056171417236328125</LatitudeDegrees>
              <LongitudeDegrees>-5.6132827699184417724609375</LongitudeDegrees>
            </Position>
            <AltitudeMeters>1154.4000244140625</AltitudeMeters>
            <DistanceMeters>NAN</DistanceMeters>
          </Trackpoint>
          <Trackpoint>
            <Time>2019-10-04T17:03:35.000Z</Time>
            <Position>
              <LatitudeDegrees>42.76715914718806743621826171875</LatitudeDegrees>
              <LongitudeDegrees>-5.61333716847002506256103515625</LongitudeDegrees>
            </Position>
            <AltitudeMeters>1153.800048828125</AltitudeMeters>
            <DistanceMeters>NAN</DistanceMeters>
          </Trackpoint>
          <Trackpoint>
            <Time>2019-10-04T17:03:37.000Z</Time>
            <Position>
              <LatitudeDegrees>42.76702453382313251495361328125</LatitudeDegrees>
              <LongitudeDegrees>-5.6133758090436458587646484375</LongitudeDegrees>
            </Position>
            <AltitudeMeters>1152.800048828125</AltitudeMeters>
            <DistanceMeters>NAN</DistanceMeters>
          </Trackpoint>
          <Trackpoint>
            <Time>2019-10-04T17:03:39.000Z</Time>
            <Position>
              <LatitudeDegrees>42.76688472367823123931884765625</LatitudeDegrees>
              <LongitudeDegrees>-5.613415539264678955078125</LongitudeDegrees>
            </Position>
            <AltitudeMeters>1152.5999755859375</AltitudeMeters>
            <DistanceMeters>NAN</DistanceMeters>
          </Trackpoint>
          <Trackpoint>
            <Time>2019-10-04T17:03:41.000Z</Time>
            <Position>
              <LatitudeDegrees>42.76674105785787105560302734375</LatitudeDegrees>
              <LongitudeDegrees>-5.6134589575231075286865234375</LongitudeDegrees>
            </Position>
            <AltitudeMeters>1151.5999755859375</AltitudeMeters>
            <DistanceMeters>NAN</DistanceMeters>
          </Trackpoint>
          <Trackpoint>
            <Time>2019-10-04T17:03:47.000Z</Time>
            <Position>
              <LatitudeDegrees>42.76630050502717494964599609375</LatitudeDegrees>
              <LongitudeDegrees>-5.6135749630630016326904296875</LongitudeDegrees>
            </Position>
            <AltitudeMeters>1150.5999755859375</AltitudeMeters>
            <DistanceMeters>NAN</DistanceMeters>
          </Trackpoint>
          <Trackpoint>
            <Time>2019-10-04T17:03:49.000Z</Time>
            <Position>
              <LatitudeDegrees>42.76615600101649761199951171875</LatitudeDegrees>
              <LongitudeDegrees>-5.61361335217952728271484375</LongitudeDegrees>
            </Position>
            <AltitudeMeters>1150.199951171875</AltitudeMeters>
            <DistanceMeters>NAN</DistanceMeters>
          </Trackpoint>
          <Trackpoint>
            <Time>2019-10-04T17:03:57.000Z</Time>
            <Position>
              <LatitudeDegrees>42.76558334939181804656982421875</LatitudeDegrees>
              <LongitudeDegrees>-5.613748468458652496337890625</LongitudeDegrees>
            </Position>
            <AltitudeMeters>1150</AltitudeMeters>
            <DistanceMeters>NAN</DistanceMeters>
          </Trackpoint>
          <Trackpoint>
            <Time>2019-10-04T17:03:59.000Z</Time>
            <Position>
              <LatitudeDegrees>42.76544488035142421722412109375</LatitudeDegrees>
              <LongitudeDegrees>-5.61377051286399364471435546875</LongitudeDegrees>
            </Position>
            <AltitudeMeters>1149.4000244140625</AltitudeMeters>
            <DistanceMeters>NAN</DistanceMeters>
          </Trackpoint>
          <Trackpoint>
            <Time>2019-10-04T17:04:00.000Z</Time>
            <Position>
              <LatitudeDegrees>42.765376232564449310302734375</LatitudeDegrees>
              <LongitudeDegrees>-5.61377772130072116851806640625</LongitudeDegrees>
            </Position>
            <AltitudeMeters>1149.4000244140625</AltitudeMeters>
            <DistanceMeters>NAN</DistanceMeters>
          </Trackpoint>
          <Trackpoint>
            <Time>2019-10-04T17:04:08.000Z</Time>
            <Position>
              <LatitudeDegrees>42.76484305970370769500732421875</LatitudeDegrees>
              <LongitudeDegrees>-5.61380756087601184844970703125</LongitudeDegrees>
            </Position>
            <AltitudeMeters>1149.199951171875</AltitudeMeters>
            <DistanceMeters>NAN</DistanceMeters>
          </Trackpoint>
          <Trackpoint>
            <Time>2019-10-04T17:04:09.000Z</Time>
            <Position>
              <LatitudeDegrees>42.76477784849703311920166015625</LatitudeDegrees>
              <LongitudeDegrees>-5.61380605213344097137451171875</LongitudeDegrees>
            </Position>
            <AltitudeMeters>1148.800048828125</AltitudeMeters>
            <DistanceMeters>NAN</DistanceMeters>
          </Trackpoint>
          <Trackpoint>
            <Time>2019-10-04T17:04:15.000Z</Time>
            <Position>
              <LatitudeDegrees>42.76438415050506591796875</LatitudeDegrees>
              <LongitudeDegrees>-5.61379699967801570892333984375</LongitudeDegrees>
            </Position>
            <AltitudeMeters>1148.4000244140625</AltitudeMeters>
            <DistanceMeters>NAN</DistanceMeters>
          </Trackpoint>
          <Trackpoint>
            <Time>2019-10-04T17:04:19.000Z</Time>
            <Position>
              <LatitudeDegrees>42.7641281671822071075439453125</LatitudeDegrees>
              <LongitudeDegrees>-5.6137989275157451629638671875</LongitudeDegrees>
            </Position>
            <AltitudeMeters>1148.5999755859375</AltitudeMeters>
            <DistanceMeters>NAN</DistanceMeters>
          </Trackpoint>
          <Trackpoint>
            <Time>2019-10-04T17:04:27.000Z</Time>
            <Position>
              <LatitudeDegrees>42.7636289410293102264404296875</LatitudeDegrees>
              <LongitudeDegrees>-5.61378560028970241546630859375</LongitudeDegrees>
            </Position>
            <AltitudeMeters>1148.5999755859375</AltitudeMeters>
            <DistanceMeters>NAN</DistanceMeters>
          </Trackpoint>
          <Trackpoint>
            <Time>2019-10-04T17:04:36.000Z</Time>
            <Position>
              <LatitudeDegrees>42.7630878053605556488037109375</LatitudeDegrees>
              <LongitudeDegrees>-5.61379230581223964691162109375</LongitudeDegrees>
            </Position>
            <AltitudeMeters>1149</AltitudeMeters>
            <DistanceMeters>NAN</DistanceMeters>
          </Trackpoint>
          <Trackpoint>
            <Time>2019-10-04T17:04:37.000Z</Time>
            <Position>
              <LatitudeDegrees>42.7630264498293399810791015625</LatitudeDegrees>
              <LongitudeDegrees>-5.61378962360322475433349609375</LongitudeDegrees>
            </Position>
            <AltitudeMeters>1148.800048828125</AltitudeMeters>
            <DistanceMeters>NAN</DistanceMeters>
          </Trackpoint>
          <Trackpoint>
            <Time>2019-10-04T17:04:43.000Z</Time>
            <Position>
              <LatitudeDegrees>42.7626626752316951751708984375</LatitudeDegrees>
              <LongitudeDegrees>-5.6137791462242603302001953125</LongitudeDegrees>
            </Position>
            <AltitudeMeters>1147.199951171875</AltitudeMeters>
            <DistanceMeters>NAN</DistanceMeters>
          </Trackpoint>
          <Trackpoint>
            <Time>2019-10-04T17:04:46.000Z</Time>
            <Position>
              <LatitudeDegrees>42.7624829672276973724365234375</LatitudeDegrees>
              <LongitudeDegrees>-5.6137757934629917144775390625</LongitudeDegrees>
            </Position>
            <AltitudeMeters>1148</AltitudeMeters>
            <DistanceMeters>NAN</DistanceMeters>
          </Trackpoint>
          <Trackpoint>
            <Time>2019-10-04T17:04:54.000Z</Time>
            <Position>
              <LatitudeDegrees>42.76199824176728725433349609375</LatitudeDegrees>
              <LongitudeDegrees>-5.613773949444293975830078125</LongitudeDegrees>
            </Position>
            <AltitudeMeters>1148.5999755859375</AltitudeMeters>
            <DistanceMeters>NAN</DistanceMeters>
          </Trackpoint>
          <Trackpoint>
            <Time>2019-10-04T17:04:56.000Z</Time>
            <Position>
              <LatitudeDegrees>42.76187519542872905731201171875</LatitudeDegrees>
              <LongitudeDegrees>-5.6137727759778499603271484375</LongitudeDegrees>
            </Position>
            <AltitudeMeters>1147.5999755859375</AltitudeMeters>
            <DistanceMeters>NAN</DistanceMeters>
          </Trackpoint>
          <Trackpoint>
            <Time>2019-10-04T17:05:04.000Z</Time>
            <Position>
              <LatitudeDegrees>42.76137831620872020721435546875</LatitudeDegrees>
              <LongitudeDegrees>-5.6137647293508052825927734375</LongitudeDegrees>
            </Position>
            <AltitudeMeters>1146.4000244140625</AltitudeMeters>
            <DistanceMeters>NAN</DistanceMeters>
          </Trackpoint>
          <Trackpoint>
            <Time>2019-10-04T17:05:05.000Z</Time>
            <Position>
              <LatitudeDegrees>42.7613158710300922393798828125</LatitudeDegrees>
              <LongitudeDegrees>-5.61376154422760009765625</LongitudeDegrees>
            </Position>
            <AltitudeMeters>1146.199951171875</AltitudeMeters>
            <DistanceMeters>NAN</DistanceMeters>
          </Trackpoint>
          <Trackpoint>
            <Time>2019-10-04T17:05:14.000Z</Time>
            <Position>
              <LatitudeDegrees>42.760761491954326629638671875</LatitudeDegrees>
              <LongitudeDegrees>-5.6137597002089023590087890625</LongitudeDegrees>
            </Position>
            <AltitudeMeters>1145.800048828125</AltitudeMeters>
            <DistanceMeters>NAN</DistanceMeters>
          </Trackpoint>
          <Trackpoint>
            <Time>2019-10-04T17:05:15.000Z</Time>
            <Position>
              <LatitudeDegrees>42.7606999687850475311279296875</LatitudeDegrees>
              <LongitudeDegrees>-5.6137593649327754974365234375</LongitudeDegrees>
            </Position>
            <AltitudeMeters>1145.5999755859375</AltitudeMeters>
            <DistanceMeters>NAN</DistanceMeters>
          </Trackpoint>
          <Trackpoint>
            <Time>2019-10-04T17:05:24.000Z</Time>
            <Position>
              <LatitudeDegrees>42.76014617644250392913818359375</LatitudeDegrees>
              <LongitudeDegrees>-5.61376129277050495147705078125</LongitudeDegrees>
            </Position>
            <AltitudeMeters>1145.4000244140625</AltitudeMeters>
            <DistanceMeters>NAN</DistanceMeters>
          </Trackpoint>
          <Trackpoint>
            <Time>2019-10-04T17:05:25.000Z</Time>
            <Position>
              <LatitudeDegrees>42.76008431799709796905517578125</LatitudeDegrees>
              <LongitudeDegrees>-5.61375844292342662811279296875</LongitudeDegrees>
            </Position>
            <AltitudeMeters>1145.4000244140625</AltitudeMeters>
            <DistanceMeters>NAN</DistanceMeters>
          </Trackpoint>
          <Trackpoint>
            <Time>2019-10-04T17:05:26.000Z</Time>
            <Position>
              <LatitudeDegrees>42.7600228786468505859375</LatitudeDegrees>
              <LongitudeDegrees>-5.6137553416192531585693359375</LongitudeDegrees>
            </Position>
            <AltitudeMeters>1145.4000244140625</AltitudeMeters>
            <DistanceMeters>NAN</DistanceMeters>
          </Trackpoint>
          <Trackpoint>
            <Time>2019-10-04T17:05:35.000Z</Time>
            <Position>
              <LatitudeDegrees>42.75946808047592639923095703125</LatitudeDegrees>
              <LongitudeDegrees>-5.6137513183057308197021484375</LongitudeDegrees>
            </Position>
            <AltitudeMeters>1146</AltitudeMeters>
            <DistanceMeters>NAN</DistanceMeters>
          </Trackpoint>
          <Trackpoint>
            <Time>2019-10-04T17:05:36.000Z</Time>
            <Position>
              <LatitudeDegrees>42.75940672494471073150634765625</LatitudeDegrees>
              <LongitudeDegrees>-5.61375089921057224273681640625</LongitudeDegrees>
            </Position>
            <AltitudeMeters>1145.800048828125</AltitudeMeters>
            <DistanceMeters>NAN</DistanceMeters>
          </Trackpoint>
          <Trackpoint>
            <Time>2019-10-04T17:05:45.000Z</Time>
            <Position>
              <LatitudeDegrees>42.7588562853634357452392578125</LatitudeDegrees>
              <LongitudeDegrees>-5.613735057413578033447265625</LongitudeDegrees>
            </Position>
            <AltitudeMeters>1145.199951171875</AltitudeMeters>
            <DistanceMeters>NAN</DistanceMeters>
          </Trackpoint>
          <Trackpoint>
            <Time>2019-10-04T17:05:46.000Z</Time>
            <Position>
              <LatitudeDegrees>42.758798785507678985595703125</LatitudeDegrees>
              <LongitudeDegrees>-5.61373346485197544097900390625</LongitudeDegrees>
            </Position>
            <AltitudeMeters>1145.199951171875</AltitudeMeters>
            <DistanceMeters>NAN</DistanceMeters>
          </Trackpoint>
          <Trackpoint>
            <Time>2019-10-04T17:05:51.000Z</Time>
            <Position>
              <LatitudeDegrees>42.7584847994148731231689453125</LatitudeDegrees>
              <LongitudeDegrees>-5.613720305263996124267578125</LongitudeDegrees>
            </Position>
            <AltitudeMeters>1144.4000244140625</AltitudeMeters>
            <DistanceMeters>NAN</DistanceMeters>
          </Trackpoint>
          <Trackpoint>
            <Time>2019-10-04T17:05:53.000Z</Time>
            <Position>
              <LatitudeDegrees>42.7583577297627925872802734375</LatitudeDegrees>
              <LongitudeDegrees>-5.6137134321033954620361328125</LongitudeDegrees>
            </Position>
            <AltitudeMeters>1143.800048828125</AltitudeMeters>
            <DistanceMeters>NAN</DistanceMeters>
          </Trackpoint>
          <Trackpoint>
            <Time>2019-10-04T17:06:01.000Z</Time>
            <Position>
              <LatitudeDegrees>42.7578447572886943817138671875</LatitudeDegrees>
              <LongitudeDegrees>-5.6137023679912090301513671875</LongitudeDegrees>
            </Position>
            <AltitudeMeters>1143.4000244140625</AltitudeMeters>
            <DistanceMeters>NAN</DistanceMeters>
          </Trackpoint>
          <Trackpoint>
            <Time>2019-10-04T17:06:04.000Z</Time>
            <Position>
              <LatitudeDegrees>42.75765339843928813934326171875</LatitudeDegrees>
              <LongitudeDegrees>-5.61369105242192745208740234375</LongitudeDegrees>
            </Position>
            <AltitudeMeters>1142.5999755859375</AltitudeMeters>
            <DistanceMeters>NAN</DistanceMeters>
          </Trackpoint>
          <Trackpoint>
            <Time>2019-10-04T17:06:07.000Z</Time>
            <Position>
              <LatitudeDegrees>42.75746203958988189697265625</LatitudeDegrees>
              <LongitudeDegrees>-5.61368384398519992828369140625</LongitudeDegrees>
            </Position>
            <AltitudeMeters>1142.199951171875</AltitudeMeters>
            <DistanceMeters>NAN</DistanceMeters>
          </Trackpoint>
          <Trackpoint>
            <Time>2019-10-04T17:06:12.000Z</Time>
            <Position>
              <LatitudeDegrees>42.757143191993236541748046875</LatitudeDegrees>
              <LongitudeDegrees>-5.61367571353912353515625</LongitudeDegrees>
            </Position>
            <AltitudeMeters>1141.5999755859375</AltitudeMeters>
            <DistanceMeters>NAN</DistanceMeters>
          </Trackpoint>
          <Trackpoint>
            <Time>2019-10-04T17:06:17.000Z</Time>
            <Position>
              <LatitudeDegrees>42.756821997463703155517578125</LatitudeDegrees>
              <LongitudeDegrees>-5.61366557143628597259521484375</LongitudeDegrees>
            </Position>
            <AltitudeMeters>1141.199951171875</AltitudeMeters>
            <DistanceMeters>NAN</DistanceMeters>
          </Trackpoint>
          <Trackpoint>
            <Time>2019-10-04T17:06:21.000Z</Time>
            <Position>
              <LatitudeDegrees>42.75656827725470066070556640625</LatitudeDegrees>
              <LongitudeDegrees>-5.61366054229438304901123046875</LongitudeDegrees>
            </Position>
            <AltitudeMeters>1140.199951171875</AltitudeMeters>
            <DistanceMeters>NAN</DistanceMeters>
          </Trackpoint>
          <Trackpoint>
            <Time>2019-10-04T17:06:25.000Z</Time>
            <Position>
              <LatitudeDegrees>42.75631363503634929656982421875</LatitudeDegrees>
              <LongitudeDegrees>-5.613653920590877532958984375</LongitudeDegrees>
            </Position>
            <AltitudeMeters>1140.199951171875</AltitudeMeters>
            <DistanceMeters>NAN</DistanceMeters>
          </Trackpoint>
          <Trackpoint>
            <Time>2019-10-04T17:06:28.000Z</Time>
            <Position>
              <LatitudeDegrees>42.75612470693886280059814453125</LatitudeDegrees>
              <LongitudeDegrees>-5.6136517412960529327392578125</LongitudeDegrees>
            </Position>
            <AltitudeMeters>1139.800048828125</AltitudeMeters>
            <DistanceMeters>NAN</DistanceMeters>
          </Trackpoint>
          <Trackpoint>
            <Time>2019-10-04T17:06:31.000Z</Time>
            <Position>
              <LatitudeDegrees>42.755931504070758819580078125</LatitudeDegrees>
              <LongitudeDegrees>-5.6136421859264373779296875</LongitudeDegrees>
            </Position>
            <AltitudeMeters>1139.4000244140625</AltitudeMeters>
            <DistanceMeters>NAN</DistanceMeters>
          </Trackpoint>
          <Trackpoint>
            <Time>2019-10-04T17:06:32.000Z</Time>
            <Position>
              <LatitudeDegrees>42.75586604140698909759521484375</LatitudeDegrees>
              <LongitudeDegrees>-5.61363908462226390838623046875</LongitudeDegrees>
            </Position>
            <AltitudeMeters>1139</AltitudeMeters>
            <DistanceMeters>NAN</DistanceMeters>
          </Trackpoint>
          <Trackpoint>
            <Time>2019-10-04T17:06:38.000Z</Time>
            <Position>
              <LatitudeDegrees>42.755470834672451019287109375</LatitudeDegrees>
              <LongitudeDegrees>-5.613625086843967437744140625</LongitudeDegrees>
            </Position>
            <AltitudeMeters>1138.800048828125</AltitudeMeters>
            <DistanceMeters>NAN</DistanceMeters>
          </Trackpoint>
          <Trackpoint>
            <Time>2019-10-04T17:06:40.000Z</Time>
            <Position>
              <LatitudeDegrees>42.75533580221235752105712890625</LatitudeDegrees>
              <LongitudeDegrees>-5.61361603438854217529296875</LongitudeDegrees>
            </Position>
            <AltitudeMeters>1138.5999755859375</AltitudeMeters>
            <DistanceMeters>NAN</DistanceMeters>
          </Trackpoint>
          <Trackpoint>
            <Time>2019-10-04T17:06:43.000Z</Time>
            <Position>
              <LatitudeDegrees>42.75513664819300174713134765625</LatitudeDegrees>
              <LongitudeDegrees>-5.61360404826700687408447265625</LongitudeDegrees>
            </Position>
            <AltitudeMeters>1138</AltitudeMeters>
            <DistanceMeters>NAN</DistanceMeters>
          </Trackpoint>
          <Trackpoint>
            <Time>2019-10-04T17:06:48.000Z</Time>
            <Position>
              <LatitudeDegrees>42.75480640120804309844970703125</LatitudeDegrees>
              <LongitudeDegrees>-5.6136007793247699737548828125</LongitudeDegrees>
            </Position>
            <AltitudeMeters>1137</AltitudeMeters>
            <DistanceMeters>NAN</DistanceMeters>
          </Trackpoint>
          <Trackpoint>
            <Time>2019-10-04T17:06:50.000Z</Time>
            <Position>
              <LatitudeDegrees>42.75467413477599620819091796875</LatitudeDegrees>
              <LongitudeDegrees>-5.6135880388319492340087890625</LongitudeDegrees>
            </Position>
            <AltitudeMeters>1136.4000244140625</AltitudeMeters>
            <DistanceMeters>NAN</DistanceMeters>
          </Trackpoint>
          <Trackpoint>
            <Time>2019-10-04T17:06:56.000Z</Time>
            <Position>
              <LatitudeDegrees>42.7542762458324432373046875</LatitudeDegrees>
              <LongitudeDegrees>-5.61357311904430389404296875</LongitudeDegrees>
            </Position>
            <AltitudeMeters>1136.800048828125</AltitudeMeters>
            <DistanceMeters>NAN</DistanceMeters>
          </Trackpoint>
          <Trackpoint>
            <Time>2019-10-04T17:06:58.000Z</Time>
            <Position>
              <LatitudeDegrees>42.75413987226784229278564453125</LatitudeDegrees>
              <LongitudeDegrees>-5.61357219703495502471923828125</LongitudeDegrees>
            </Position>
            <AltitudeMeters>1135.800048828125</AltitudeMeters>
            <DistanceMeters>NAN</DistanceMeters>
          </Trackpoint>
          <Trackpoint>
            <Time>2019-10-04T17:07:02.000Z</Time>
            <Position>
              <LatitudeDegrees>42.753855474293231964111328125</LatitudeDegrees>
              <LongitudeDegrees>-5.61356398276984691619873046875</LongitudeDegrees>
            </Position>
            <AltitudeMeters>1134.800048828125</AltitudeMeters>
            <DistanceMeters>NAN</DistanceMeters>
          </Trackpoint>
          <Trackpoint>
            <Time>2019-10-04T17:07:04.000Z</Time>
            <Position>
              <LatitudeDegrees>42.75370686315000057220458984375</LatitudeDegrees>
              <LongitudeDegrees>-5.613558031618595123291015625</LongitudeDegrees>
            </Position>
            <AltitudeMeters>1134.800048828125</AltitudeMeters>
            <DistanceMeters>NAN</DistanceMeters>
          </Trackpoint>
          <Trackpoint>
            <Time>2019-10-04T17:07:06.000Z</Time>
            <Position>
              <LatitudeDegrees>42.753555737435817718505859375</LatitudeDegrees>
              <LongitudeDegrees>-5.61354956589639186859130859375</LongitudeDegrees>
            </Position>
            <AltitudeMeters>1133.5999755859375</AltitudeMeters>
            <DistanceMeters>NAN</DistanceMeters>
          </Trackpoint>
          <Trackpoint>
            <Time>2019-10-04T17:07:08.000Z</Time>
            <Position>
              <LatitudeDegrees>42.75340360589325428009033203125</LatitudeDegrees>
              <LongitudeDegrees>-5.61354638077318668365478515625</LongitudeDegrees>
            </Position>
            <AltitudeMeters>1132.4000244140625</AltitudeMeters>
            <DistanceMeters>NAN</DistanceMeters>
          </Trackpoint>
          <Trackpoint>
            <Time>2019-10-04T17:07:14.000Z</Time>
            <Position>
              <LatitudeDegrees>42.752942182123661041259765625</LatitudeDegrees>
              <LongitudeDegrees>-5.6135270185768604278564453125</LongitudeDegrees>
            </Position>
            <AltitudeMeters>1131.5999755859375</AltitudeMeters>
            <DistanceMeters>NAN</DistanceMeters>
          </Trackpoint>
          <Trackpoint>
            <Time>2019-10-04T17:07:15.000Z</Time>
            <Position>
              <LatitudeDegrees>42.75286339223384857177734375</LatitudeDegrees>
              <LongitudeDegrees>-5.6135243363678455352783203125</LongitudeDegrees>
            </Position>
            <AltitudeMeters>1130.800048828125</AltitudeMeters>
            <DistanceMeters>NAN</DistanceMeters>
          </Trackpoint>
          <Trackpoint>
            <Time>2019-10-04T17:07:17.000Z</Time>
            <Position>
              <LatitudeDegrees>42.75270656682550907135009765625</LatitudeDegrees>
              <LongitudeDegrees>-5.613520145416259765625</LongitudeDegrees>
            </Position>
            <AltitudeMeters>1129.800048828125</AltitudeMeters>
            <DistanceMeters>NAN</DistanceMeters>
          </Trackpoint>
          <Trackpoint>
            <Time>2019-10-04T17:07:24.000Z</Time>
            <Position>
              <LatitudeDegrees>42.752157635986804962158203125</LatitudeDegrees>
              <LongitudeDegrees>-5.61351033858954906463623046875</LongitudeDegrees>
            </Position>
            <AltitudeMeters>1129.5999755859375</AltitudeMeters>
            <DistanceMeters>NAN</DistanceMeters>
          </Trackpoint>
          <Trackpoint>
            <Time>2019-10-04T17:07:25.000Z</Time>
            <Position>
              <LatitudeDegrees>42.75207993574440479278564453125</LatitudeDegrees>
              <LongitudeDegrees>-5.61350463889539241790771484375</LongitudeDegrees>
            </Position>
            <AltitudeMeters>1129.199951171875</AltitudeMeters>
            <DistanceMeters>NAN</DistanceMeters>
          </Trackpoint>
          <Trackpoint>
            <Time>2019-10-04T17:07:27.000Z</Time>
            <Position>
              <LatitudeDegrees>42.75192151777446269989013671875</LatitudeDegrees>
              <LongitudeDegrees>-5.61349332332611083984375</LongitudeDegrees>
            </Position>
            <AltitudeMeters>1128.4000244140625</AltitudeMeters>
            <DistanceMeters>NAN</DistanceMeters>
          </Trackpoint>
          <Trackpoint>
            <Time>2019-10-04T17:07:34.000Z</Time>
            <Position>
              <LatitudeDegrees>42.751382477581501007080078125</LatitudeDegrees>
              <LongitudeDegrees>-5.6134710274636745452880859375</LongitudeDegrees>
            </Position>
            <AltitudeMeters>1127.800048828125</AltitudeMeters>
            <DistanceMeters>NAN</DistanceMeters>
          </Trackpoint>
          <Trackpoint>
            <Time>2019-10-04T17:07:36.000Z</Time>
            <Position>
              <LatitudeDegrees>42.75123286060988903045654296875</LatitudeDegrees>
              <LongitudeDegrees>-5.61346809379756450653076171875</LongitudeDegrees>
            </Position>
            <AltitudeMeters>1127.800048828125</AltitudeMeters>
            <DistanceMeters>NAN</DistanceMeters>
          </Trackpoint>
          <Trackpoint>
            <Time>2019-10-04T17:07:42.000Z</Time>
            <Position>
              <LatitudeDegrees>42.75078292004764080047607421875</LatitudeDegrees>
              <LongitudeDegrees>-5.61345820315182209014892578125</LongitudeDegrees>
            </Position>
            <AltitudeMeters>1127.4000244140625</AltitudeMeters>
            <DistanceMeters>NAN</DistanceMeters>
          </Trackpoint>
          <Trackpoint>
            <Time>2019-10-04T17:07:46.000Z</Time>
            <Position>
              <LatitudeDegrees>42.750483937561511993408203125</LatitudeDegrees>
              <LongitudeDegrees>-5.6134410202503204345703125</LongitudeDegrees>
            </Position>
            <AltitudeMeters>1127.4000244140625</AltitudeMeters>
            <DistanceMeters>NAN</DistanceMeters>
          </Trackpoint>
          <Trackpoint>
            <Time>2019-10-04T17:07:54.000Z</Time>
            <Position>
              <LatitudeDegrees>42.7498988807201385498046875</LatitudeDegrees>
              <LongitudeDegrees>-5.613423921167850494384765625</LongitudeDegrees>
            </Position>
            <AltitudeMeters>1127</AltitudeMeters>
            <DistanceMeters>NAN</DistanceMeters>
          </Trackpoint>
          <Trackpoint>
            <Time>2019-10-04T17:07:55.000Z</Time>
            <Position>
              <LatitudeDegrees>42.74982671253383159637451171875</LatitudeDegrees>
              <LongitudeDegrees>-5.613425262272357940673828125</LongitudeDegrees>
            </Position>
            <AltitudeMeters>1126.4000244140625</AltitudeMeters>
            <DistanceMeters>NAN</DistanceMeters>
          </Trackpoint>
          <Trackpoint>
            <Time>2019-10-04T17:08:02.000Z</Time>
            <Position>
              <LatitudeDegrees>42.74931457825005054473876953125</LatitudeDegrees>
              <LongitudeDegrees>-5.6134073249995708465576171875</LongitudeDegrees>
            </Position>
            <AltitudeMeters>1125.4000244140625</AltitudeMeters>
            <DistanceMeters>NAN</DistanceMeters>
          </Trackpoint>
          <Trackpoint>
            <Time>2019-10-04T17:08:03.000Z</Time>
            <Position>
              <LatitudeDegrees>42.74924199096858501434326171875</LatitudeDegrees>
              <LongitudeDegrees>-5.61340472660958766937255859375</LongitudeDegrees>
            </Position>
            <AltitudeMeters>1125.199951171875</AltitudeMeters>
            <DistanceMeters>NAN</DistanceMeters>
          </Trackpoint>
          <Trackpoint>
            <Time>2019-10-04T17:08:04.000Z</Time>
            <Position>
              <LatitudeDegrees>42.74916730821132659912109375</LatitudeDegrees>
              <LongitudeDegrees>-5.61340087093412876129150390625</LongitudeDegrees>
            </Position>
            <AltitudeMeters>1124.5999755859375</AltitudeMeters>
            <DistanceMeters>NAN</DistanceMeters>
          </Trackpoint>
          <Trackpoint>
            <Time>2019-10-04T17:08:10.000Z</Time>
            <Position>
              <LatitudeDegrees>42.7487339638173580169677734375</LatitudeDegrees>
              <LongitudeDegrees>-5.61338762752711772918701171875</LongitudeDegrees>
            </Position>
            <AltitudeMeters>1124.199951171875</AltitudeMeters>
            <DistanceMeters>NAN</DistanceMeters>
          </Trackpoint>
          <Trackpoint>
            <Time>2019-10-04T17:08:12.000Z</Time>
            <Position>
              <LatitudeDegrees>42.74859071709215641021728515625</LatitudeDegrees>
              <LongitudeDegrees>-5.61338276602327823638916015625</LongitudeDegrees>
            </Position>
            <AltitudeMeters>1124</AltitudeMeters>
            <DistanceMeters>NAN</DistanceMeters>
          </Trackpoint>
          <Trackpoint>
            <Time>2019-10-04T17:08:20.000Z</Time>
            <Position>
              <LatitudeDegrees>42.7480127848684787750244140625</LatitudeDegrees>
              <LongitudeDegrees>-5.61337119899690151214599609375</LongitudeDegrees>
            </Position>
            <AltitudeMeters>1123</AltitudeMeters>
            <DistanceMeters>NAN</DistanceMeters>
          </Trackpoint>
          <Trackpoint>
            <Time>2019-10-04T17:08:22.000Z</Time>
            <Position>
              <LatitudeDegrees>42.7478679455816745758056640625</LatitudeDegrees>
              <LongitudeDegrees>-5.6133632361888885498046875</LongitudeDegrees>
            </Position>
            <AltitudeMeters>1123</AltitudeMeters>
            <DistanceMeters>NAN</DistanceMeters>
          </Trackpoint>
          <Trackpoint>
            <Time>2019-10-04T17:08:28.000Z</Time>
            <Position>
              <LatitudeDegrees>42.74742831476032733917236328125</LatitudeDegrees>
              <LongitudeDegrees>-5.613347478210926055908203125</LongitudeDegrees>
            </Position>
            <AltitudeMeters>1121.800048828125</AltitudeMeters>
            <DistanceMeters>NAN</DistanceMeters>
          </Trackpoint>
          <Trackpoint>
            <Time>2019-10-04T17:08:30.000Z</Time>
            <Position>
              <LatitudeDegrees>42.74728448130190372467041015625</LatitudeDegrees>
              <LongitudeDegrees>-5.61334219761192798614501953125</LongitudeDegrees>
            </Position>
            <AltitudeMeters>1122.199951171875</AltitudeMeters>
            <DistanceMeters>NAN</DistanceMeters>
          </Trackpoint>
          <Trackpoint>
            <Time>2019-10-04T17:08:38.000Z</Time>
            <Position>
              <LatitudeDegrees>42.74669506587088108062744140625</LatitudeDegrees>
              <LongitudeDegrees>-5.613319315016269683837890625</LongitudeDegrees>
            </Position>
            <AltitudeMeters>1121.199951171875</AltitudeMeters>
            <DistanceMeters>NAN</DistanceMeters>
          </Trackpoint>
          <Trackpoint>
            <Time>2019-10-04T17:08:39.000Z</Time>
            <Position>
              <LatitudeDegrees>42.746620886027812957763671875</LatitudeDegrees>
              <LongitudeDegrees>-5.6133168004453182220458984375</LongitudeDegrees>
            </Position>
            <AltitudeMeters>1121.199951171875</AltitudeMeters>
            <DistanceMeters>NAN</DistanceMeters>
          </Trackpoint>
          <Trackpoint>
            <Time>2019-10-04T17:08:40.000Z</Time>
            <Position>
              <LatitudeDegrees>42.74654620327055454254150390625</LatitudeDegrees>
              <LongitudeDegrees>-5.61331562697887420654296875</LongitudeDegrees>
            </Position>
            <AltitudeMeters>1120.5999755859375</AltitudeMeters>
            <DistanceMeters>NAN</DistanceMeters>
          </Trackpoint>
          <Trackpoint>
            <Time>2019-10-04T17:08:42.000Z</Time>
            <Position>
              <LatitudeDegrees>42.746398933231830596923828125</LatitudeDegrees>
              <LongitudeDegrees>-5.613314621150493621826171875</LongitudeDegrees>
            </Position>
            <AltitudeMeters>1119.4000244140625</AltitudeMeters>
            <DistanceMeters>NAN</DistanceMeters>
          </Trackpoint>
          <Trackpoint>
            <Time>2019-10-04T17:08:50.000Z</Time>
            <Position>
              <LatitudeDegrees>42.74583064019680023193359375</LatitudeDegrees>
              <LongitudeDegrees>-5.6132948398590087890625</LongitudeDegrees>
            </Position>
            <AltitudeMeters>1118.800048828125</AltitudeMeters>
            <DistanceMeters>NAN</DistanceMeters>
          </Trackpoint>
          <Trackpoint>
            <Time>2019-10-04T17:08:51.000Z</Time>
            <Position>
              <LatitudeDegrees>42.74576098658144474029541015625</LatitudeDegrees>
              <LongitudeDegrees>-5.61328989453613758087158203125</LongitudeDegrees>
            </Position>
            <AltitudeMeters>1118.199951171875</AltitudeMeters>
            <DistanceMeters>NAN</DistanceMeters>
          </Trackpoint>
          <Trackpoint>
            <Time>2019-10-04T17:08:59.000Z</Time>
            <Position>
              <LatitudeDegrees>42.7452175877988338470458984375</LatitudeDegrees>
              <LongitudeDegrees>-5.61328033916652202606201171875</LongitudeDegrees>
            </Position>
            <AltitudeMeters>1118</AltitudeMeters>
            <DistanceMeters>NAN</DistanceMeters>
          </Trackpoint>
          <Trackpoint>
            <Time>2019-10-04T17:09:07.000Z</Time>
            <Position>
              <LatitudeDegrees>42.7446697466075420379638671875</LatitudeDegrees>
              <LongitudeDegrees>-5.61325586400926113128662109375</LongitudeDegrees>
            </Position>
            <AltitudeMeters>1117.5999755859375</AltitudeMeters>
            <DistanceMeters>NAN</DistanceMeters>
          </Trackpoint>
          <Trackpoint>
            <Time>2019-10-04T17:09:08.000Z</Time>
            <Position>
              <LatitudeDegrees>42.744600512087345123291015625</LatitudeDegrees>
              <LongitudeDegrees>-5.61325150541961193084716796875</LongitudeDegrees>
            </Position>
            <AltitudeMeters>1117.4000244140625</AltitudeMeters>
            <DistanceMeters>NAN</DistanceMeters>
          </Trackpoint>
          <Trackpoint>
            <Time>2019-10-04T17:09:11.000Z</Time>
            <Position>
              <LatitudeDegrees>42.7443918026983737945556640625</LatitudeDegrees>
              <LongitudeDegrees>-5.6132450513541698455810546875</LongitudeDegrees>
            </Position>
            <AltitudeMeters>1116.800048828125</AltitudeMeters>
            <DistanceMeters>NAN</DistanceMeters>
          </Trackpoint>
          <Trackpoint>
            <Time>2019-10-04T17:09:18.000Z</Time>
            <Position>
              <LatitudeDegrees>42.74389115162193775177001953125</LatitudeDegrees>
              <LongitudeDegrees>-5.6132306344807147979736328125</LongitudeDegrees>
            </Position>
            <AltitudeMeters>1115.800048828125</AltitudeMeters>
            <DistanceMeters>NAN</DistanceMeters>
          </Trackpoint>
          <Trackpoint>
            <Time>2019-10-04T17:09:20.000Z</Time>
            <Position>
              <LatitudeDegrees>42.7437547780573368072509765625</LatitudeDegrees>
              <LongitudeDegrees>-5.61322283931076526641845703125</LongitudeDegrees>
            </Position>
            <AltitudeMeters>1115.5999755859375</AltitudeMeters>
            <DistanceMeters>NAN</DistanceMeters>
          </Trackpoint>
          <Trackpoint>
            <Time>2019-10-04T17:09:26.000Z</Time>
            <Position>
              <LatitudeDegrees>42.743352614343166351318359375</LatitudeDegrees>
              <LongitudeDegrees>-5.613211356103420257568359375</LongitudeDegrees>
            </Position>
            <AltitudeMeters>1115.4000244140625</AltitudeMeters>
            <DistanceMeters>NAN</DistanceMeters>
          </Trackpoint>
          <Trackpoint>
            <Time>2019-10-04T17:09:34.000Z</Time>
            <Position>
              <LatitudeDegrees>42.7428277395665645599365234375</LatitudeDegrees>
              <LongitudeDegrees>-5.6131930835545063018798828125</LongitudeDegrees>
            </Position>
            <AltitudeMeters>1115.5999755859375</AltitudeMeters>
            <DistanceMeters>NAN</DistanceMeters>
          </Trackpoint>
          <Trackpoint>
            <Time>2019-10-04T17:09:38.000Z</Time>
            <Position>
              <LatitudeDegrees>42.74256630800664424896240234375</LatitudeDegrees>
              <LongitudeDegrees>-5.6131853722035884857177734375</LongitudeDegrees>
            </Position>
            <AltitudeMeters>1115.4000244140625</AltitudeMeters>
            <DistanceMeters>NAN</DistanceMeters>
          </Trackpoint>
          <Trackpoint>
            <Time>2019-10-04T17:09:47.000Z</Time>
            <Position>
              <LatitudeDegrees>42.741992063820362091064453125</LatitudeDegrees>
              <LongitudeDegrees>-5.61317422427237033843994140625</LongitudeDegrees>
            </Position>
            <AltitudeMeters>1115</AltitudeMeters>
            <DistanceMeters>NAN</DistanceMeters>
          </Trackpoint>
          <Trackpoint>
            <Time>2019-10-04T17:09:48.000Z</Time>
            <Position>
              <LatitudeDegrees>42.7419300377368927001953125</LatitudeDegrees>
              <LongitudeDegrees>-5.61317305080592632293701171875</LongitudeDegrees>
            </Position>
            <AltitudeMeters>1115</AltitudeMeters>
            <DistanceMeters>NAN</DistanceMeters>
          </Trackpoint>
          <Trackpoint>
            <Time>2019-10-04T17:09:55.000Z</Time>
            <Position>
              <LatitudeDegrees>42.7414933405816555023193359375</LatitudeDegrees>
              <LongitudeDegrees>-5.6131562031805515289306640625</LongitudeDegrees>
            </Position>
            <AltitudeMeters>1114.800048828125</AltitudeMeters>
            <DistanceMeters>NAN</DistanceMeters>
          </Trackpoint>
          <Trackpoint>
            <Time>2019-10-04T17:09:56.000Z</Time>
            <Position>
              <LatitudeDegrees>42.7414303086698055267333984375</LatitudeDegrees>
              <LongitudeDegrees>-5.61315343715250492095947265625</LongitudeDegrees>
            </Position>
            <AltitudeMeters>1114.199951171875</AltitudeMeters>
            <DistanceMeters>NAN</DistanceMeters>
          </Trackpoint>
          <Trackpoint>
            <Time>2019-10-04T17:10:03.000Z</Time>
            <Position>
              <LatitudeDegrees>42.74097676388919353485107421875</LatitudeDegrees>
              <LongitudeDegrees>-5.6131387688219547271728515625</LongitudeDegrees>
            </Position>
            <AltitudeMeters>1113.5999755859375</AltitudeMeters>
            <DistanceMeters>NAN</DistanceMeters>
          </Trackpoint>
          <Trackpoint>
            <Time>2019-10-04T17:10:08.000Z</Time>
            <Position>
              <LatitudeDegrees>42.74065070785582065582275390625</LatitudeDegrees>
              <LongitudeDegrees>-5.61313047073781490325927734375</LongitudeDegrees>
            </Position>
            <AltitudeMeters>1112.800048828125</AltitudeMeters>
            <DistanceMeters>NAN</DistanceMeters>
          </Trackpoint>
          <Trackpoint>
            <Time>2019-10-04T17:10:09.000Z</Time>
            <Position>
              <LatitudeDegrees>42.74058449082076549530029296875</LatitudeDegrees>
              <LongitudeDegrees>-5.61312778852880001068115234375</LongitudeDegrees>
            </Position>
            <AltitudeMeters>1112.5999755859375</AltitudeMeters>
            <DistanceMeters>NAN</DistanceMeters>
          </Trackpoint>
          <Trackpoint>
            <Time>2019-10-04T17:10:17.000Z</Time>
            <Position>
              <LatitudeDegrees>42.7400540001690387725830078125</LatitudeDegrees>
              <LongitudeDegrees>-5.61311622150242328643798828125</LongitudeDegrees>
            </Position>
            <AltitudeMeters>1111.800048828125</AltitudeMeters>
            <DistanceMeters>NAN</DistanceMeters>
          </Trackpoint>
          <Trackpoint>
            <Time>2019-10-04T17:10:19.000Z</Time>
            <Position>
              <LatitudeDegrees>42.73989633657038211822509765625</LatitudeDegrees>
              <LongitudeDegrees>-5.61310515739023685455322265625</LongitudeDegrees>
            </Position>
            <AltitudeMeters>1112.199951171875</AltitudeMeters>
            <DistanceMeters>NAN</DistanceMeters>
          </Trackpoint>
          <Trackpoint>
            <Time>2019-10-04T17:10:21.000Z</Time>
            <Position>
              <LatitudeDegrees>42.73978494107723236083984375</LatitudeDegrees>
              <LongitudeDegrees>-5.61309912241995334625244140625</LongitudeDegrees>
            </Position>
            <AltitudeMeters>1111.4000244140625</AltitudeMeters>
            <DistanceMeters>NAN</DistanceMeters>
          </Trackpoint>
          <Trackpoint>
            <Time>2019-10-04T17:10:27.000Z</Time>
            <Position>
              <LatitudeDegrees>42.739383280277252197265625</LatitudeDegrees>
              <LongitudeDegrees>-5.6130938418209552764892578125</LongitudeDegrees>
            </Position>
            <AltitudeMeters>1112</AltitudeMeters>
            <DistanceMeters>NAN</DistanceMeters>
          </Trackpoint>
          <Trackpoint>
            <Time>2019-10-04T17:10:35.000Z</Time>
            <Position>
              <LatitudeDegrees>42.73883837275207042694091796875</LatitudeDegrees>
              <LongitudeDegrees>-5.61307565309107303619384765625</LongitudeDegrees>
            </Position>
            <AltitudeMeters>1110.800048828125</AltitudeMeters>
            <DistanceMeters>NAN</DistanceMeters>
          </Trackpoint>
          <Trackpoint>
            <Time>2019-10-04T17:10:36.000Z</Time>
            <Position>
              <LatitudeDegrees>42.73876930586993694305419921875</LatitudeDegrees>
              <LongitudeDegrees>-5.61307397671043872833251953125</LongitudeDegrees>
            </Position>
            <AltitudeMeters>1110.199951171875</AltitudeMeters>
            <DistanceMeters>NAN</DistanceMeters>
          </Trackpoint>
          <Trackpoint>
            <Time>2019-10-04T17:10:38.000Z</Time>
            <Position>
              <LatitudeDegrees>42.73863083682954311370849609375</LatitudeDegrees>
              <LongitudeDegrees>-5.61306458897888660430908203125</LongitudeDegrees>
            </Position>
            <AltitudeMeters>1110</AltitudeMeters>
            <DistanceMeters>NAN</DistanceMeters>
          </Trackpoint>
          <Trackpoint>
            <Time>2019-10-04T17:10:42.000Z</Time>
            <Position>
              <LatitudeDegrees>42.7383511327207088470458984375</LatitudeDegrees>
              <LongitudeDegrees>-5.613051094114780426025390625</LongitudeDegrees>
            </Position>
            <AltitudeMeters>1109</AltitudeMeters>
            <DistanceMeters>NAN</DistanceMeters>
          </Trackpoint>
          <Trackpoint>
            <Time>2019-10-04T17:10:49.000Z</Time>
            <Position>
              <LatitudeDegrees>42.73784344084560871124267578125</LatitudeDegrees>
              <LongitudeDegrees>-5.613040365278720855712890625</LongitudeDegrees>
            </Position>
            <AltitudeMeters>1108.199951171875</AltitudeMeters>
            <DistanceMeters>NAN</DistanceMeters>
          </Trackpoint>
          <Trackpoint>
            <Time>2019-10-04T17:10:50.000Z</Time>
            <Position>
              <LatitudeDegrees>42.7377680875360965728759765625</LatitudeDegrees>
              <LongitudeDegrees>-5.61303667724132537841796875</LongitudeDegrees>
            </Position>
            <AltitudeMeters>1107.800048828125</AltitudeMeters>
            <DistanceMeters>NAN</DistanceMeters>
          </Trackpoint>
          <Trackpoint>
            <Time>2019-10-04T17:10:54.000Z</Time>
            <Position>
              <LatitudeDegrees>42.7374643273651599884033203125</LatitudeDegrees>
              <LongitudeDegrees>-5.6130287982523441314697265625</LongitudeDegrees>
            </Position>
            <AltitudeMeters>1106.5999755859375</AltitudeMeters>
            <DistanceMeters>NAN</DistanceMeters>
          </Trackpoint>
          <Trackpoint>
            <Time>2019-10-04T17:11:01.000Z</Time>
            <Position>
              <LatitudeDegrees>42.73691631853580474853515625</LatitudeDegrees>
              <LongitudeDegrees>-5.6130147166550159454345703125</LongitudeDegrees>
            </Position>
            <AltitudeMeters>1105.199951171875</AltitudeMeters>
            <DistanceMeters>NAN</DistanceMeters>
          </Trackpoint>
          <Trackpoint>
            <Time>2019-10-04T17:11:07.000Z</Time>
            <Position>
              <LatitudeDegrees>42.73643008433282375335693359375</LatitudeDegrees>
              <LongitudeDegrees>-5.61299669556319713592529296875</LongitudeDegrees>
            </Position>
            <AltitudeMeters>1104</AltitudeMeters>
            <DistanceMeters>NAN</DistanceMeters>
          </Trackpoint>
          <Trackpoint>
            <Time>2019-10-04T17:11:11.000Z</Time>
            <Position>
              <LatitudeDegrees>42.7361071296036243438720703125</LatitudeDegrees>
              <LongitudeDegrees>-5.6129832006990909576416015625</LongitudeDegrees>
            </Position>
            <AltitudeMeters>1103</AltitudeMeters>
            <DistanceMeters>NAN</DistanceMeters>
          </Trackpoint>
          <Trackpoint>
            <Time>2019-10-04T17:11:13.000Z</Time>
            <Position>
              <LatitudeDegrees>42.73594669997692108154296875</LatitudeDegrees>
              <LongitudeDegrees>-5.61297833919525146484375</LongitudeDegrees>
            </Position>
            <AltitudeMeters>1102.199951171875</AltitudeMeters>
            <DistanceMeters>NAN</DistanceMeters>
          </Trackpoint>
          <Trackpoint>
            <Time>2019-10-04T17:11:17.000Z</Time>
            <Position>
              <LatitudeDegrees>42.73562609218060970306396484375</LatitudeDegrees>
              <LongitudeDegrees>-5.61296517960727214813232421875</LongitudeDegrees>
            </Position>
            <AltitudeMeters>1101.800048828125</AltitudeMeters>
            <DistanceMeters>NAN</DistanceMeters>
          </Trackpoint>
          <Trackpoint>
            <Time>2019-10-04T17:11:19.000Z</Time>
            <Position>
              <LatitudeDegrees>42.735467590391635894775390625</LatitudeDegrees>
              <LongitudeDegrees>-5.6129583902657032012939453125</LongitudeDegrees>
            </Position>
            <AltitudeMeters>1101.4000244140625</AltitudeMeters>
            <DistanceMeters>NAN</DistanceMeters>
          </Trackpoint>
          <Trackpoint>
            <Time>2019-10-04T17:11:21.000Z</Time>
            <Position>
              <LatitudeDegrees>42.735313363373279571533203125</LatitudeDegrees>
              <LongitudeDegrees>-5.6129555404186248779296875</LongitudeDegrees>
            </Position>
            <AltitudeMeters>1101.199951171875</AltitudeMeters>
            <DistanceMeters>NAN</DistanceMeters>
          </Trackpoint>
          <Trackpoint>
            <Time>2019-10-04T17:11:22.000Z</Time>
            <Position>
              <LatitudeDegrees>42.73523666895925998687744140625</LatitudeDegrees>
              <LongitudeDegrees>-5.61295595951378345489501953125</LongitudeDegrees>
            </Position>
            <AltitudeMeters>1100.800048828125</AltitudeMeters>
            <DistanceMeters>NAN</DistanceMeters>
          </Trackpoint>
          <Trackpoint>
            <Time>2019-10-04T17:11:29.000Z</Time>
            <Position>
              <LatitudeDegrees>42.73470886051654815673828125</LatitudeDegrees>
              <LongitudeDegrees>-5.612936429679393768310546875</LongitudeDegrees>
            </Position>
            <AltitudeMeters>1100.199951171875</AltitudeMeters>
            <DistanceMeters>NAN</DistanceMeters>
          </Trackpoint>
          <Trackpoint>
            <Time>2019-10-04T17:11:32.000Z</Time>
            <Position>
              <LatitudeDegrees>42.73448464460670948028564453125</LatitudeDegrees>
              <LongitudeDegrees>-5.61292494647204875946044921875</LongitudeDegrees>
            </Position>
            <AltitudeMeters>1099.800048828125</AltitudeMeters>
            <DistanceMeters>NAN</DistanceMeters>
          </Trackpoint>
          <Trackpoint>
            <Time>2019-10-04T17:11:33.000Z</Time>
            <Position>
              <LatitudeDegrees>42.73440903984010219573974609375</LatitudeDegrees>
              <LongitudeDegrees>-5.612927377223968505859375</LongitudeDegrees>
            </Position>
            <AltitudeMeters>1099.4000244140625</AltitudeMeters>
            <DistanceMeters>NAN</DistanceMeters>
          </Trackpoint>
          <Trackpoint>
            <Time>2019-10-04T17:11:34.000Z</Time>
            <Position>
              <LatitudeDegrees>42.734333015978336334228515625</LatitudeDegrees>
              <LongitudeDegrees>-5.61292444355785846710205078125</LongitudeDegrees>
            </Position>
            <AltitudeMeters>1098.800048828125</AltitudeMeters>
            <DistanceMeters>NAN</DistanceMeters>
          </Trackpoint>
          <Trackpoint>
            <Time>2019-10-04T17:11:39.000Z</Time>
            <Position>
              <LatitudeDegrees>42.7339476160705089569091796875</LatitudeDegrees>
              <LongitudeDegrees>-5.61291036196053028106689453125</LongitudeDegrees>
            </Position>
            <AltitudeMeters>1097.4000244140625</AltitudeMeters>
            <DistanceMeters>NAN</DistanceMeters>
          </Trackpoint>
          <Trackpoint>
            <Time>2019-10-04T17:11:42.000Z</Time>
            <Position>
              <LatitudeDegrees>42.73370814509689807891845703125</LatitudeDegrees>
              <LongitudeDegrees>-5.6129077635705471038818359375</LongitudeDegrees>
            </Position>
            <AltitudeMeters>1097.4000244140625</AltitudeMeters>
            <DistanceMeters>NAN</DistanceMeters>
          </Trackpoint>
          <Trackpoint>
            <Time>2019-10-04T17:11:44.000Z</Time>
            <Position>
              <LatitudeDegrees>42.733547128736972808837890625</LatitudeDegrees>
              <LongitudeDegrees>-5.6129086017608642578125</LongitudeDegrees>
            </Position>
            <AltitudeMeters>1096.199951171875</AltitudeMeters>
            <DistanceMeters>NAN</DistanceMeters>
          </Trackpoint>
          <Trackpoint>
            <Time>2019-10-04T17:11:45.000Z</Time>
            <Position>
              <LatitudeDegrees>42.733467333018779754638671875</LatitudeDegrees>
              <LongitudeDegrees>-5.61291103251278400421142578125</LongitudeDegrees>
            </Position>
            <AltitudeMeters>1096</AltitudeMeters>
            <DistanceMeters>NAN</DistanceMeters>
          </Trackpoint>
          <Trackpoint>
            <Time>2019-10-04T17:11:46.000Z</Time>
            <Position>
              <LatitudeDegrees>42.73338644765317440032958984375</LatitudeDegrees>
              <LongitudeDegrees>-5.6129168160259723663330078125</LongitudeDegrees>
            </Position>
            <AltitudeMeters>1095.800048828125</AltitudeMeters>
            <DistanceMeters>NAN</DistanceMeters>
          </Trackpoint>
          <Trackpoint>
            <Time>2019-10-04T17:11:48.000Z</Time>
            <Position>
              <LatitudeDegrees>42.73322450928390026092529296875</LatitudeDegrees>
              <LongitudeDegrees>-5.61293181963264942169189453125</LongitudeDegrees>
            </Position>
            <AltitudeMeters>1095.5999755859375</AltitudeMeters>
            <DistanceMeters>NAN</DistanceMeters>
          </Trackpoint>
          <Trackpoint>
            <Time>2019-10-04T17:11:50.000Z</Time>
            <Position>
              <LatitudeDegrees>42.73305988870561122894287109375</LatitudeDegrees>
              <LongitudeDegrees>-5.61294707469642162322998046875</LongitudeDegrees>
            </Position>
            <AltitudeMeters>1095.4000244140625</AltitudeMeters>
            <DistanceMeters>NAN</DistanceMeters>
          </Trackpoint>
          <Trackpoint>
            <Time>2019-10-04T17:11:52.000Z</Time>
            <Position>
              <LatitudeDegrees>42.73289409466087818145751953125</LatitudeDegrees>
              <LongitudeDegrees>-5.61296635307371616363525390625</LongitudeDegrees>
            </Position>
            <AltitudeMeters>1094.800048828125</AltitudeMeters>
            <DistanceMeters>NAN</DistanceMeters>
          </Trackpoint>
          <Trackpoint>
            <Time>2019-10-04T17:11:54.000Z</Time>
            <Position>
              <LatitudeDegrees>42.73272763006389141082763671875</LatitudeDegrees>
              <LongitudeDegrees>-5.61299116350710391998291015625</LongitudeDegrees>
            </Position>
            <AltitudeMeters>1093.4000244140625</AltitudeMeters>
            <DistanceMeters>NAN</DistanceMeters>
          </Trackpoint>
          <Trackpoint>
            <Time>2019-10-04T17:11:57.000Z</Time>
            <Position>
              <LatitudeDegrees>42.73247734643518924713134765625</LatitudeDegrees>
              <LongitudeDegrees>-5.61303709633648395538330078125</LongitudeDegrees>
            </Position>
            <AltitudeMeters>1092.800048828125</AltitudeMeters>
            <DistanceMeters>NAN</DistanceMeters>
          </Trackpoint>
          <Trackpoint>
            <Time>2019-10-04T17:11:59.000Z</Time>
            <Position>
              <LatitudeDegrees>42.73231272585690021514892578125</LatitudeDegrees>
              <LongitudeDegrees>-5.6130713783204555511474609375</LongitudeDegrees>
            </Position>
            <AltitudeMeters>1093.4000244140625</AltitudeMeters>
            <DistanceMeters>NAN</DistanceMeters>
          </Trackpoint>
          <Trackpoint>
            <Time>2019-10-04T17:12:02.000Z</Time>
            <Position>
              <LatitudeDegrees>42.7320797927677631378173828125</LatitudeDegrees>
              <LongitudeDegrees>-5.613134913146495819091796875</LongitudeDegrees>
            </Position>
            <AltitudeMeters>1093</AltitudeMeters>
            <DistanceMeters>NAN</DistanceMeters>
          </Trackpoint>
          <Trackpoint>
            <Time>2019-10-04T17:12:06.000Z</Time>
            <Position>
              <LatitudeDegrees>42.73178198374807834625244140625</LatitudeDegrees>
              <LongitudeDegrees>-5.61322334222495555877685546875</LongitudeDegrees>
            </Position>
            <AltitudeMeters>1093.5999755859375</AltitudeMeters>
            <DistanceMeters>NAN</DistanceMeters>
          </Trackpoint>
          <Trackpoint>
            <Time>2019-10-04T17:12:14.000Z</Time>
            <Position>
              <LatitudeDegrees>42.731216289103031158447265625</LatitudeDegrees>
              <LongitudeDegrees>-5.613377988338470458984375</LongitudeDegrees>
            </Position>
            <AltitudeMeters>1093.4000244140625</AltitudeMeters>
            <DistanceMeters>NAN</DistanceMeters>
          </Trackpoint>
          <Trackpoint>
            <Time>2019-10-04T17:12:22.000Z</Time>
            <Position>
              <LatitudeDegrees>42.7306887321174144744873046875</LatitudeDegrees>
              <LongitudeDegrees>-5.61352207325398921966552734375</LongitudeDegrees>
            </Position>
            <AltitudeMeters>1093</AltitudeMeters>
            <DistanceMeters>NAN</DistanceMeters>
          </Trackpoint>
          <Trackpoint>
            <Time>2019-10-04T17:12:25.000Z</Time>
            <Position>
              <LatitudeDegrees>42.73050525225698947906494140625</LatitudeDegrees>
              <LongitudeDegrees>-5.6135778129100799560546875</LongitudeDegrees>
            </Position>
            <AltitudeMeters>1093</AltitudeMeters>
            <DistanceMeters>NAN</DistanceMeters>
          </Trackpoint>
          <Trackpoint>
            <Time>2019-10-04T17:12:33.000Z</Time>
            <Position>
              <LatitudeDegrees>42.730070315301418304443359375</LatitudeDegrees>
              <LongitudeDegrees>-5.613708905875682830810546875</LongitudeDegrees>
            </Position>
            <AltitudeMeters>1093.5999755859375</AltitudeMeters>
            <DistanceMeters>NAN</DistanceMeters>
          </Trackpoint>
          <Trackpoint>
            <Time>2019-10-04T17:12:35.000Z</Time>
            <Position>
              <LatitudeDegrees>42.7299638651311397552490234375</LatitudeDegrees>
              <LongitudeDegrees>-5.61373782344162464141845703125</LongitudeDegrees>
            </Position>
            <AltitudeMeters>1094.800048828125</AltitudeMeters>
            <DistanceMeters>NAN</DistanceMeters>
          </Trackpoint>
          <Trackpoint>
            <Time>2019-10-04T17:12:40.000Z</Time>
            <Position>
              <LatitudeDegrees>42.72969807498157024383544921875</LatitudeDegrees>
              <LongitudeDegrees>-5.61381317675113677978515625</LongitudeDegrees>
            </Position>
            <AltitudeMeters>1095.5999755859375</AltitudeMeters>
            <DistanceMeters>NAN</DistanceMeters>
          </Trackpoint>
          <Trackpoint>
            <Time>2019-10-04T17:12:42.000Z</Time>
            <Position>
              <LatitudeDegrees>42.7295910380780696868896484375</LatitudeDegrees>
              <LongitudeDegrees>-5.6138468720018863677978515625</LongitudeDegrees>
            </Position>
            <AltitudeMeters>1095.5999755859375</AltitudeMeters>
            <DistanceMeters>NAN</DistanceMeters>
          </Trackpoint>
          <Trackpoint>
            <Time>2019-10-04T17:12:45.000Z</Time>
            <Position>
              <LatitudeDegrees>42.72943035699427127838134765625</LatitudeDegrees>
              <LongitudeDegrees>-5.613891966640949249267578125</LongitudeDegrees>
            </Position>
            <AltitudeMeters>1095.4000244140625</AltitudeMeters>
            <DistanceMeters>NAN</DistanceMeters>
          </Trackpoint>
          <Trackpoint>
            <Time>2019-10-04T17:12:50.000Z</Time>
            <Position>
              <LatitudeDegrees>42.729164399206638336181640625</LatitudeDegrees>
              <LongitudeDegrees>-5.613973438739776611328125</LongitudeDegrees>
            </Position>
            <AltitudeMeters>1094.4000244140625</AltitudeMeters>
            <DistanceMeters>NAN</DistanceMeters>
          </Trackpoint>
          <Trackpoint>
            <Time>2019-10-04T17:12:57.000Z</Time>
            <Position>
              <LatitudeDegrees>42.7287518419325351715087890625</LatitudeDegrees>
              <LongitudeDegrees>-5.614092461764812469482421875</LongitudeDegrees>
            </Position>
            <AltitudeMeters>1093</AltitudeMeters>
            <DistanceMeters>NAN</DistanceMeters>
          </Trackpoint>
          <Trackpoint>
            <Time>2019-10-04T17:12:58.000Z</Time>
            <Position>
              <LatitudeDegrees>42.7286879718303680419921875</LatitudeDegrees>
              <LongitudeDegrees>-5.61410411261022090911865234375</LongitudeDegrees>
            </Position>
            <AltitudeMeters>1092.5999755859375</AltitudeMeters>
            <DistanceMeters>NAN</DistanceMeters>
          </Trackpoint>
          <Trackpoint>
            <Time>2019-10-04T17:13:04.000Z</Time>
            <Position>
              <LatitudeDegrees>42.72828874178230762481689453125</LatitudeDegrees>
              <LongitudeDegrees>-5.6141989119350910186767578125</LongitudeDegrees>
            </Position>
            <AltitudeMeters>1091.5999755859375</AltitudeMeters>
            <DistanceMeters>NAN</DistanceMeters>
          </Trackpoint>
          <Trackpoint>
            <Time>2019-10-04T17:13:06.000Z</Time>
            <Position>
              <LatitudeDegrees>42.72815295495092868804931640625</LatitudeDegrees>
              <LongitudeDegrees>-5.6142267398536205291748046875</LongitudeDegrees>
            </Position>
            <AltitudeMeters>1091.4000244140625</AltitudeMeters>
            <DistanceMeters>NAN</DistanceMeters>
          </Trackpoint>
          <Trackpoint>
            <Time>2019-10-04T17:13:14.000Z</Time>
            <Position>
              <LatitudeDegrees>42.72763361223042011260986328125</LatitudeDegrees>
              <LongitudeDegrees>-5.614272840321063995361328125</LongitudeDegrees>
            </Position>
            <AltitudeMeters>1091.5999755859375</AltitudeMeters>
            <DistanceMeters>NAN</DistanceMeters>
          </Trackpoint>
          <Trackpoint>
            <Time>2019-10-04T17:13:22.000Z</Time>
            <Position>
              <LatitudeDegrees>42.72716439329087734222412109375</LatitudeDegrees>
              <LongitudeDegrees>-5.61423872597515583038330078125</LongitudeDegrees>
            </Position>
            <AltitudeMeters>1092.800048828125</AltitudeMeters>
            <DistanceMeters>NAN</DistanceMeters>
          </Trackpoint>
          <Trackpoint>
            <Time>2019-10-04T17:13:23.000Z</Time>
            <Position>
              <LatitudeDegrees>42.727109827101230621337890625</LatitudeDegrees>
              <LongitudeDegrees>-5.61423352919518947601318359375</LongitudeDegrees>
            </Position>
            <AltitudeMeters>1093</AltitudeMeters>
            <DistanceMeters>NAN</DistanceMeters>
          </Trackpoint>
          <Trackpoint>
            <Time>2019-10-04T17:13:33.000Z</Time>
            <Position>
              <LatitudeDegrees>42.72660230286419391632080078125</LatitudeDegrees>
              <LongitudeDegrees>-5.61414702795445919036865234375</LongitudeDegrees>
            </Position>
            <AltitudeMeters>1093.5999755859375</AltitudeMeters>
            <DistanceMeters>NAN</DistanceMeters>
          </Trackpoint>
          <Trackpoint>
            <Time>2019-10-04T17:13:38.000Z</Time>
            <Position>
              <LatitudeDegrees>42.72635336033999919891357421875</LatitudeDegrees>
              <LongitudeDegrees>-5.61409908346831798553466796875</LongitudeDegrees>
            </Position>
            <AltitudeMeters>1093.800048828125</AltitudeMeters>
            <DistanceMeters>NAN</DistanceMeters>
          </Trackpoint>
          <Trackpoint>
            <Time>2019-10-04T17:13:46.000Z</Time>
            <Position>
              <LatitudeDegrees>42.72595278918743133544921875</LatitudeDegrees>
              <LongitudeDegrees>-5.61402163468301296234130859375</LongitudeDegrees>
            </Position>
            <AltitudeMeters>1093.4000244140625</AltitudeMeters>
            <DistanceMeters>NAN</DistanceMeters>
          </Trackpoint>
          <Trackpoint>
            <Time>2019-10-04T17:13:55.000Z</Time>
            <Position>
              <LatitudeDegrees>42.72551047615706920623779296875</LatitudeDegrees>
              <LongitudeDegrees>-5.61394116841256618499755859375</LongitudeDegrees>
            </Position>
            <AltitudeMeters>1093.5999755859375</AltitudeMeters>
            <DistanceMeters>NAN</DistanceMeters>
          </Trackpoint>
          <Trackpoint>
            <Time>2019-10-04T17:14:05.000Z</Time>
            <Position>
              <LatitudeDegrees>42.725028097629547119140625</LatitudeDegrees>
              <LongitudeDegrees>-5.6138498894870281219482421875</LongitudeDegrees>
            </Position>
            <AltitudeMeters>1094.800048828125</AltitudeMeters>
            <DistanceMeters>NAN</DistanceMeters>
          </Trackpoint>
          <Trackpoint>
            <Time>2019-10-04T17:14:16.000Z</Time>
            <Position>
              <LatitudeDegrees>42.7245010435581207275390625</LatitudeDegrees>
              <LongitudeDegrees>-5.61374469660222530364990234375</LongitudeDegrees>
            </Position>
            <AltitudeMeters>1094.199951171875</AltitudeMeters>
            <DistanceMeters>NAN</DistanceMeters>
          </Trackpoint>
          <Trackpoint>
            <Time>2019-10-04T17:14:17.000Z</Time>
            <Position>
              <LatitudeDegrees>42.7244532667100429534912109375</LatitudeDegrees>
              <LongitudeDegrees>-5.61373463831841945648193359375</LongitudeDegrees>
            </Position>
            <AltitudeMeters>1094.199951171875</AltitudeMeters>
            <DistanceMeters>NAN</DistanceMeters>
          </Trackpoint>
          <Trackpoint>
            <Time>2019-10-04T17:14:26.000Z</Time>
            <Position>
              <LatitudeDegrees>42.72401698864996433258056640625</LatitudeDegrees>
              <LongitudeDegrees>-5.613654591143131256103515625</LongitudeDegrees>
            </Position>
            <AltitudeMeters>1094.199951171875</AltitudeMeters>
            <DistanceMeters>NAN</DistanceMeters>
          </Trackpoint>
          <Trackpoint>
            <Time>2019-10-04T17:14:36.000Z</Time>
            <Position>
              <LatitudeDegrees>42.72348247468471527099609375</LatitudeDegrees>
              <LongitudeDegrees>-5.6135498173534870147705078125</LongitudeDegrees>
            </Position>
            <AltitudeMeters>1093.199951171875</AltitudeMeters>
            <DistanceMeters>NAN</DistanceMeters>
          </Trackpoint>
          <Trackpoint>
            <Time>2019-10-04T17:14:37.000Z</Time>
            <Position>
              <LatitudeDegrees>42.72342371754348278045654296875</LatitudeDegrees>
              <LongitudeDegrees>-5.61353866942226886749267578125</LongitudeDegrees>
            </Position>
            <AltitudeMeters>1092.800048828125</AltitudeMeters>
            <DistanceMeters>NAN</DistanceMeters>
          </Trackpoint>
          <Trackpoint>
            <Time>2019-10-04T17:14:41.000Z</Time>
            <Position>
              <LatitudeDegrees>42.7231818996369838714599609375</LatitudeDegrees>
              <LongitudeDegrees>-5.613493658602237701416015625</LongitudeDegrees>
            </Position>
            <AltitudeMeters>1091.800048828125</AltitudeMeters>
            <DistanceMeters>NAN</DistanceMeters>
          </Trackpoint>
          <Trackpoint>
            <Time>2019-10-04T17:14:47.000Z</Time>
            <Position>
              <LatitudeDegrees>42.72279314696788787841796875</LatitudeDegrees>
              <LongitudeDegrees>-5.6134224124252796173095703125</LongitudeDegrees>
            </Position>
            <AltitudeMeters>1090.800048828125</AltitudeMeters>
            <DistanceMeters>NAN</DistanceMeters>
          </Trackpoint>
          <Trackpoint>
            <Time>2019-10-04T17:14:48.000Z</Time>
            <Position>
              <LatitudeDegrees>42.722726427018642425537109375</LatitudeDegrees>
              <LongitudeDegrees>-5.6134093366563320159912109375</LongitudeDegrees>
            </Position>
            <AltitudeMeters>1090.5999755859375</AltitudeMeters>
            <DistanceMeters>NAN</DistanceMeters>
          </Trackpoint>
          <Trackpoint>
            <Time>2019-10-04T17:14:56.000Z</Time>
            <Position>
              <LatitudeDegrees>42.72219157777726650238037109375</LatitudeDegrees>
              <LongitudeDegrees>-5.61330514959990978240966796875</LongitudeDegrees>
            </Position>
            <AltitudeMeters>1090</AltitudeMeters>
            <DistanceMeters>NAN</DistanceMeters>
          </Trackpoint>
          <Trackpoint>
            <Time>2019-10-04T17:14:57.000Z</Time>
            <Position>
              <LatitudeDegrees>42.7221234329044818878173828125</LatitudeDegrees>
              <LongitudeDegrees>-5.61329375021159648895263671875</LongitudeDegrees>
            </Position>
            <AltitudeMeters>1090.4000244140625</AltitudeMeters>
            <DistanceMeters>NAN</DistanceMeters>
          </Trackpoint>
          <Trackpoint>
            <Time>2019-10-04T17:15:02.000Z</Time>
            <Position>
              <LatitudeDegrees>42.72178472019731998443603515625</LatitudeDegrees>
              <LongitudeDegrees>-5.6132286228239536285400390625</LongitudeDegrees>
            </Position>
            <AltitudeMeters>1089.5999755859375</AltitudeMeters>
            <DistanceMeters>NAN</DistanceMeters>
          </Trackpoint>
          <Trackpoint>
            <Time>2019-10-04T17:15:04.000Z</Time>
            <Position>
              <LatitudeDegrees>42.72164893336594104766845703125</LatitudeDegrees>
              <LongitudeDegrees>-5.61320557259023189544677734375</LongitudeDegrees>
            </Position>
            <AltitudeMeters>1088.5999755859375</AltitudeMeters>
            <DistanceMeters>NAN</DistanceMeters>
          </Trackpoint>
          <Trackpoint>
            <Time>2019-10-04T17:15:09.000Z</Time>
            <Position>
              <LatitudeDegrees>42.72130795754492282867431640625</LatitudeDegrees>
              <LongitudeDegrees>-5.61314388178288936614990234375</LongitudeDegrees>
            </Position>
            <AltitudeMeters>1088.4000244140625</AltitudeMeters>
            <DistanceMeters>NAN</DistanceMeters>
          </Trackpoint>
          <Trackpoint>
            <Time>2019-10-04T17:15:17.000Z</Time>
            <Position>
              <LatitudeDegrees>42.72077587433159351348876953125</LatitudeDegrees>
              <LongitudeDegrees>-5.61303541995584964752197265625</LongitudeDegrees>
            </Position>
            <AltitudeMeters>1088.4000244140625</AltitudeMeters>
            <DistanceMeters>NAN</DistanceMeters>
          </Trackpoint>
          <Trackpoint>
            <Time>2019-10-04T17:15:21.000Z</Time>
            <Position>
              <LatitudeDegrees>42.72051184438169002532958984375</LatitudeDegrees>
              <LongitudeDegrees>-5.612984709441661834716796875</LongitudeDegrees>
            </Position>
            <AltitudeMeters>1087.4000244140625</AltitudeMeters>
            <DistanceMeters>NAN</DistanceMeters>
          </Trackpoint>
          <Trackpoint>
            <Time>2019-10-04T17:15:22.000Z</Time>
            <Position>
              <LatitudeDegrees>42.72044629789888858795166015625</LatitudeDegrees>
              <LongitudeDegrees>-5.612972639501094818115234375</LongitudeDegrees>
            </Position>
            <AltitudeMeters>1087.4000244140625</AltitudeMeters>
            <DistanceMeters>NAN</DistanceMeters>
          </Trackpoint>
          <Trackpoint>
            <Time>2019-10-04T17:15:31.000Z</Time>
            <Position>
              <LatitudeDegrees>42.719896696507930755615234375</LatitudeDegrees>
              <LongitudeDegrees>-5.6128598190844058990478515625</LongitudeDegrees>
            </Position>
            <AltitudeMeters>1088</AltitudeMeters>
            <DistanceMeters>NAN</DistanceMeters>
          </Trackpoint>
          <Trackpoint>
            <Time>2019-10-04T17:15:32.000Z</Time>
            <Position>
              <LatitudeDegrees>42.71983710117638111114501953125</LatitudeDegrees>
              <LongitudeDegrees>-5.61285017989575862884521484375</LongitudeDegrees>
            </Position>
            <AltitudeMeters>1088</AltitudeMeters>
            <DistanceMeters>NAN</DistanceMeters>
          </Trackpoint>
          <Trackpoint>
            <Time>2019-10-04T17:15:37.000Z</Time>
            <Position>
              <LatitudeDegrees>42.71955412812530994415283203125</LatitudeDegrees>
              <LongitudeDegrees>-5.612797625362873077392578125</LongitudeDegrees>
            </Position>
            <AltitudeMeters>1088.4000244140625</AltitudeMeters>
            <DistanceMeters>NAN</DistanceMeters>
          </Trackpoint>
          <Trackpoint>
            <Time>2019-10-04T17:15:42.000Z</Time>
            <Position>
              <LatitudeDegrees>42.71927802823483943939208984375</LatitudeDegrees>
              <LongitudeDegrees>-5.6127448193728923797607421875</LongitudeDegrees>
            </Position>
            <AltitudeMeters>1087.800048828125</AltitudeMeters>
            <DistanceMeters>NAN</DistanceMeters>
          </Trackpoint>
          <Trackpoint>
            <Time>2019-10-04T17:15:49.000Z</Time>
            <Position>
              <LatitudeDegrees>42.7188791334629058837890625</LatitudeDegrees>
              <LongitudeDegrees>-5.6126693822443485260009765625</LongitudeDegrees>
            </Position>
            <AltitudeMeters>1087.800048828125</AltitudeMeters>
            <DistanceMeters>NAN</DistanceMeters>
          </Trackpoint>
          <Trackpoint>
            <Time>2019-10-04T17:15:53.000Z</Time>
            <Position>
              <LatitudeDegrees>42.71864385344088077545166015625</LatitudeDegrees>
              <LongitudeDegrees>-5.61262034811079502105712890625</LongitudeDegrees>
            </Position>
            <AltitudeMeters>1087.800048828125</AltitudeMeters>
            <DistanceMeters>NAN</DistanceMeters>
          </Trackpoint>
          <Trackpoint>
            <Time>2019-10-04T17:16:01.000Z</Time>
            <Position>
              <LatitudeDegrees>42.71815585903823375701904296875</LatitudeDegrees>
              <LongitudeDegrees>-5.6125258840620517730712890625</LongitudeDegrees>
            </Position>
            <AltitudeMeters>1087</AltitudeMeters>
            <DistanceMeters>NAN</DistanceMeters>
          </Trackpoint>
          <Trackpoint>
            <Time>2019-10-04T17:16:03.000Z</Time>
            <Position>
              <LatitudeDegrees>42.71802661009132862091064453125</LatitudeDegrees>
              <LongitudeDegrees>-5.61250115744769573211669921875</LongitudeDegrees>
            </Position>
            <AltitudeMeters>1085.800048828125</AltitudeMeters>
            <DistanceMeters>NAN</DistanceMeters>
          </Trackpoint>
          <Trackpoint>
            <Time>2019-10-04T17:16:04.000Z</Time>
            <Position>
              <LatitudeDegrees>42.71796173416078090667724609375</LatitudeDegrees>
              <LongitudeDegrees>-5.6124886684119701385498046875</LongitudeDegrees>
            </Position>
            <AltitudeMeters>1085.800048828125</AltitudeMeters>
            <DistanceMeters>NAN</DistanceMeters>
          </Trackpoint>
          <Trackpoint>
            <Time>2019-10-04T17:16:12.000Z</Time>
            <Position>
              <LatitudeDegrees>42.71742604672908782958984375</LatitudeDegrees>
              <LongitudeDegrees>-5.61238917522132396697998046875</LongitudeDegrees>
            </Position>
            <AltitudeMeters>1085.199951171875</AltitudeMeters>
            <DistanceMeters>NAN</DistanceMeters>
          </Trackpoint>
          <Trackpoint>
            <Time>2019-10-04T17:16:13.000Z</Time>
            <Position>
              <LatitudeDegrees>42.71735907532274723052978515625</LatitudeDegrees>
              <LongitudeDegrees>-5.61237911693751811981201171875</LongitudeDegrees>
            </Position>
            <AltitudeMeters>1084.5999755859375</AltitudeMeters>
            <DistanceMeters>NAN</DistanceMeters>
          </Trackpoint>
          <Trackpoint>
            <Time>2019-10-04T17:16:15.000Z</Time>
            <Position>
              <LatitudeDegrees>42.7172268927097320556640625</LatitudeDegrees>
              <LongitudeDegrees>-5.61235497705638408660888671875</LongitudeDegrees>
            </Position>
            <AltitudeMeters>1083.800048828125</AltitudeMeters>
            <DistanceMeters>NAN</DistanceMeters>
          </Trackpoint>
          <Trackpoint>
            <Time>2019-10-04T17:16:21.000Z</Time>
            <Position>
              <LatitudeDegrees>42.7168317697942256927490234375</LatitudeDegrees>
              <LongitudeDegrees>-5.61228088103234767913818359375</LongitudeDegrees>
            </Position>
            <AltitudeMeters>1083.5999755859375</AltitudeMeters>
            <DistanceMeters>NAN</DistanceMeters>
          </Trackpoint>
          <Trackpoint>
            <Time>2019-10-04T17:16:25.000Z</Time>
            <Position>
              <LatitudeDegrees>42.7165689133107662200927734375</LatitudeDegrees>
              <LongitudeDegrees>-5.61223444528877735137939453125</LongitudeDegrees>
            </Position>
            <AltitudeMeters>1082.4000244140625</AltitudeMeters>
            <DistanceMeters>NAN</DistanceMeters>
          </Trackpoint>
          <Trackpoint>
            <Time>2019-10-04T17:16:30.000Z</Time>
            <Position>
              <LatitudeDegrees>42.7162353135645389556884765625</LatitudeDegrees>
              <LongitudeDegrees>-5.61217392794787883758544921875</LongitudeDegrees>
            </Position>
            <AltitudeMeters>1081.5999755859375</AltitudeMeters>
            <DistanceMeters>NAN</DistanceMeters>
          </Trackpoint>
          <Trackpoint>
            <Time>2019-10-04T17:16:32.000Z</Time>
            <Position>
              <LatitudeDegrees>42.716101706027984619140625</LatitudeDegrees>
              <LongitudeDegrees>-5.61214861460030078887939453125</LongitudeDegrees>
            </Position>
            <AltitudeMeters>1081.4000244140625</AltitudeMeters>
            <DistanceMeters>NAN</DistanceMeters>
          </Trackpoint>
          <Trackpoint>
            <Time>2019-10-04T17:16:33.000Z</Time>
            <Position>
              <LatitudeDegrees>42.7160341478884220123291015625</LatitudeDegrees>
              <LongitudeDegrees>-5.61213738285005092620849609375</LongitudeDegrees>
            </Position>
            <AltitudeMeters>1081.5999755859375</AltitudeMeters>
            <DistanceMeters>NAN</DistanceMeters>
          </Trackpoint>
          <Trackpoint>
            <Time>2019-10-04T17:16:36.000Z</Time>
            <Position>
              <LatitudeDegrees>42.7158299647271633148193359375</LatitudeDegrees>
              <LongitudeDegrees>-5.61210192739963531494140625</LongitudeDegrees>
            </Position>
            <AltitudeMeters>1080.4000244140625</AltitudeMeters>
            <DistanceMeters>NAN</DistanceMeters>
          </Trackpoint>
          <Trackpoint>
            <Time>2019-10-04T17:16:42.000Z</Time>
            <Position>
              <LatitudeDegrees>42.7154474146664142608642578125</LatitudeDegrees>
              <LongitudeDegrees>-5.61202548444271087646484375</LongitudeDegrees>
            </Position>
            <AltitudeMeters>1080.800048828125</AltitudeMeters>
            <DistanceMeters>NAN</DistanceMeters>
          </Trackpoint>
          <Trackpoint>
            <Time>2019-10-04T17:16:48.000Z</Time>
            <Position>
              <LatitudeDegrees>42.7151091210544109344482421875</LatitudeDegrees>
              <LongitudeDegrees>-5.611956082284450531005859375</LongitudeDegrees>
            </Position>
            <AltitudeMeters>1081</AltitudeMeters>
            <DistanceMeters>NAN</DistanceMeters>
          </Trackpoint>
          <Trackpoint>
            <Time>2019-10-04T17:16:52.000Z</Time>
            <Position>
              <LatitudeDegrees>42.71490099839866161346435546875</LatitudeDegrees>
              <LongitudeDegrees>-5.6119103170931339263916015625</LongitudeDegrees>
            </Position>
            <AltitudeMeters>1080.800048828125</AltitudeMeters>
            <DistanceMeters>NAN</DistanceMeters>
          </Trackpoint>
          <Trackpoint>
            <Time>2019-10-04T17:16:54.000Z</Time>
            <Position>
              <LatitudeDegrees>42.71480293013155460357666015625</LatitudeDegrees>
              <LongitudeDegrees>-5.6118959002196788787841796875</LongitudeDegrees>
            </Position>
            <AltitudeMeters>1082</AltitudeMeters>
            <DistanceMeters>NAN</DistanceMeters>
          </Trackpoint>
          <Trackpoint>
            <Time>2019-10-04T17:16:55.000Z</Time>
            <Position>
              <LatitudeDegrees>42.71475280635058879852294921875</LatitudeDegrees>
              <LongitudeDegrees>-5.61188600957393646240234375</LongitudeDegrees>
            </Position>
            <AltitudeMeters>1081.5999755859375</AltitudeMeters>
            <DistanceMeters>NAN</DistanceMeters>
          </Trackpoint>
          <Trackpoint>
            <Time>2019-10-04T17:17:05.000Z</Time>
            <Position>
              <LatitudeDegrees>42.7142769657075405120849609375</LatitudeDegrees>
              <LongitudeDegrees>-5.61179347336292266845703125</LongitudeDegrees>
            </Position>
            <AltitudeMeters>1082.5999755859375</AltitudeMeters>
            <DistanceMeters>NAN</DistanceMeters>
          </Trackpoint>
          <Trackpoint>
            <Time>2019-10-04T17:17:09.000Z</Time>
            <Position>
              <LatitudeDegrees>42.71408828906714916229248046875</LatitudeDegrees>
              <LongitudeDegrees>-5.61176002956926822662353515625</LongitudeDegrees>
            </Position>
            <AltitudeMeters>1082</AltitudeMeters>
            <DistanceMeters>NAN</DistanceMeters>
          </Trackpoint>
          <Trackpoint>
            <Time>2019-10-04T17:17:12.000Z</Time>
            <Position>
              <LatitudeDegrees>42.71393925882875919342041015625</LatitudeDegrees>
              <LongitudeDegrees>-5.611729435622692108154296875</LongitudeDegrees>
            </Position>
            <AltitudeMeters>1082.4000244140625</AltitudeMeters>
            <DistanceMeters>NAN</DistanceMeters>
          </Trackpoint>
          <Trackpoint>
            <Time>2019-10-04T17:17:16.000Z</Time>
            <Position>
              <LatitudeDegrees>42.71373071707785129547119140625</LatitudeDegrees>
              <LongitudeDegrees>-5.61169180087745189666748046875</LongitudeDegrees>
            </Position>
            <AltitudeMeters>1082.4000244140625</AltitudeMeters>
            <DistanceMeters>NAN</DistanceMeters>
          </Trackpoint>
          <Trackpoint>
            <Time>2019-10-04T17:17:20.000Z</Time>
            <Position>
              <LatitudeDegrees>42.71349434740841388702392578125</LatitudeDegrees>
              <LongitudeDegrees>-5.61164502985775470733642578125</LongitudeDegrees>
            </Position>
            <AltitudeMeters>1081.800048828125</AltitudeMeters>
            <DistanceMeters>NAN</DistanceMeters>
          </Trackpoint>
          <Trackpoint>
            <Time>2019-10-04T17:17:24.000Z</Time>
            <Position>
              <LatitudeDegrees>42.71324574016034603118896484375</LatitudeDegrees>
              <LongitudeDegrees>-5.61159959994256496429443359375</LongitudeDegrees>
            </Position>
            <AltitudeMeters>1081.4000244140625</AltitudeMeters>
            <DistanceMeters>NAN</DistanceMeters>
          </Trackpoint>
          <Trackpoint>
            <Time>2019-10-04T17:17:29.000Z</Time>
            <Position>
              <LatitudeDegrees>42.71293577738106250762939453125</LatitudeDegrees>
              <LongitudeDegrees>-5.61154696159064769744873046875</LongitudeDegrees>
            </Position>
            <AltitudeMeters>1081</AltitudeMeters>
            <DistanceMeters>NAN</DistanceMeters>
          </Trackpoint>
          <Trackpoint>
            <Time>2019-10-04T17:17:30.000Z</Time>
            <Position>
              <LatitudeDegrees>42.7128724940121173858642578125</LatitudeDegrees>
              <LongitudeDegrees>-5.61153170652687549591064453125</LongitudeDegrees>
            </Position>
            <AltitudeMeters>1080.5999755859375</AltitudeMeters>
            <DistanceMeters>NAN</DistanceMeters>
          </Trackpoint>
          <Trackpoint>
            <Time>2019-10-04T17:17:32.000Z</Time>
            <Position>
              <LatitudeDegrees>42.71274634636938571929931640625</LatitudeDegrees>
              <LongitudeDegrees>-5.6115089915692806243896484375</LongitudeDegrees>
            </Position>
            <AltitudeMeters>1080.5999755859375</AltitudeMeters>
            <DistanceMeters>NAN</DistanceMeters>
          </Trackpoint>
          <Trackpoint>
            <Time>2019-10-04T17:17:38.000Z</Time>
            <Position>
              <LatitudeDegrees>42.7123658917844295501708984375</LatitudeDegrees>
              <LongitudeDegrees>-5.6114405952394008636474609375</LongitudeDegrees>
            </Position>
            <AltitudeMeters>1080.199951171875</AltitudeMeters>
            <DistanceMeters>NAN</DistanceMeters>
          </Trackpoint>
          <Trackpoint>
            <Time>2019-10-04T17:17:45.000Z</Time>
            <Position>
              <LatitudeDegrees>42.7119139395654201507568359375</LatitudeDegrees>
              <LongitudeDegrees>-5.61134956777095794677734375</LongitudeDegrees>
            </Position>
            <AltitudeMeters>1080.800048828125</AltitudeMeters>
            <DistanceMeters>NAN</DistanceMeters>
          </Trackpoint>
          <Trackpoint>
            <Time>2019-10-04T17:17:53.000Z</Time>
            <Position>
              <LatitudeDegrees>42.71139769814908504486083984375</LatitudeDegrees>
              <LongitudeDegrees>-5.6112531758844852447509765625</LongitudeDegrees>
            </Position>
            <AltitudeMeters>1079.4000244140625</AltitudeMeters>
            <DistanceMeters>NAN</DistanceMeters>
          </Trackpoint>
          <Trackpoint>
            <Time>2019-10-04T17:17:58.000Z</Time>
            <Position>
              <LatitudeDegrees>42.71106225438416004180908203125</LatitudeDegrees>
              <LongitudeDegrees>-5.61119106598198413848876953125</LongitudeDegrees>
            </Position>
            <AltitudeMeters>1079.199951171875</AltitudeMeters>
            <DistanceMeters>NAN</DistanceMeters>
          </Trackpoint>
          <Trackpoint>
            <Time>2019-10-04T17:18:02.000Z</Time>
            <Position>
              <LatitudeDegrees>42.710781879723072052001953125</LatitudeDegrees>
              <LongitudeDegrees>-5.611141026020050048828125</LongitudeDegrees>
            </Position>
            <AltitudeMeters>1078</AltitudeMeters>
            <DistanceMeters>NAN</DistanceMeters>
          </Trackpoint>
          <Trackpoint>
            <Time>2019-10-04T17:18:10.000Z</Time>
            <Position>
              <LatitudeDegrees>42.7102102339267730712890625</LatitudeDegrees>
              <LongitudeDegrees>-5.611044466495513916015625</LongitudeDegrees>
            </Position>
            <AltitudeMeters>1076.800048828125</AltitudeMeters>
            <DistanceMeters>NAN</DistanceMeters>
          </Trackpoint>
          <Trackpoint>
            <Time>2019-10-04T17:18:11.000Z</Time>
            <Position>
              <LatitudeDegrees>42.71013823337852954864501953125</LatitudeDegrees>
              <LongitudeDegrees>-5.6110359169542789459228515625</LongitudeDegrees>
            </Position>
            <AltitudeMeters>1076.4000244140625</AltitudeMeters>
            <DistanceMeters>NAN</DistanceMeters>
          </Trackpoint>
          <Trackpoint>
            <Time>2019-10-04T17:18:17.000Z</Time>
            <Position>
              <LatitudeDegrees>42.7097032964229583740234375</LatitudeDegrees>
              <LongitudeDegrees>-5.6109906546771526336669921875</LongitudeDegrees>
            </Position>
            <AltitudeMeters>1075.4000244140625</AltitudeMeters>
            <DistanceMeters>NAN</DistanceMeters>
          </Trackpoint>
          <Trackpoint>
            <Time>2019-10-04T17:18:24.000Z</Time>
            <Position>
              <LatitudeDegrees>42.709192000329494476318359375</LatitudeDegrees>
              <LongitudeDegrees>-5.6109507568180561065673828125</LongitudeDegrees>
            </Position>
            <AltitudeMeters>1074.4000244140625</AltitudeMeters>
            <DistanceMeters>NAN</DistanceMeters>
          </Trackpoint>
          <Trackpoint>
            <Time>2019-10-04T17:18:25.000Z</Time>
            <Position>
              <LatitudeDegrees>42.70911949686706066131591796875</LatitudeDegrees>
              <LongitudeDegrees>-5.6109437160193920135498046875</LongitudeDegrees>
            </Position>
            <AltitudeMeters>1074</AltitudeMeters>
            <DistanceMeters>NAN</DistanceMeters>
          </Trackpoint>
          <Trackpoint>
            <Time>2019-10-04T17:18:31.000Z</Time>
            <Position>
              <LatitudeDegrees>42.70868330262601375579833984375</LatitudeDegrees>
              <LongitudeDegrees>-5.6109090149402618408203125</LongitudeDegrees>
            </Position>
            <AltitudeMeters>1072.5999755859375</AltitudeMeters>
            <DistanceMeters>NAN</DistanceMeters>
          </Trackpoint>
          <Trackpoint>
            <Time>2019-10-04T17:18:37.000Z</Time>
            <Position>
              <LatitudeDegrees>42.70825381390750408172607421875</LatitudeDegrees>
              <LongitudeDegrees>-5.6108776666224002838134765625</LongitudeDegrees>
            </Position>
            <AltitudeMeters>1072.199951171875</AltitudeMeters>
            <DistanceMeters>NAN</DistanceMeters>
          </Trackpoint>
          <Trackpoint>
            <Time>2019-10-04T17:18:41.000Z</Time>
            <Position>
              <LatitudeDegrees>42.70796966738998889923095703125</LatitudeDegrees>
              <LongitudeDegrees>-5.6108592264354228973388671875</LongitudeDegrees>
            </Position>
            <AltitudeMeters>1071.5999755859375</AltitudeMeters>
            <DistanceMeters>NAN</DistanceMeters>
          </Trackpoint>
          <Trackpoint>
            <Time>2019-10-04T17:18:49.000Z</Time>
            <Position>
              <LatitudeDegrees>42.70740858279168605804443359375</LatitudeDegrees>
              <LongitudeDegrees>-5.61081605963408946990966796875</LongitudeDegrees>
            </Position>
            <AltitudeMeters>1071.199951171875</AltitudeMeters>
            <DistanceMeters>NAN</DistanceMeters>
          </Trackpoint>
          <Trackpoint>
            <Time>2019-10-04T17:18:50.000Z</Time>
            <Position>
              <LatitudeDegrees>42.70734085701406002044677734375</LatitudeDegrees>
              <LongitudeDegrees>-5.6108102761209011077880859375</LongitudeDegrees>
            </Position>
            <AltitudeMeters>1070.800048828125</AltitudeMeters>
            <DistanceMeters>NAN</DistanceMeters>
          </Trackpoint>
          <Trackpoint>
            <Time>2019-10-04T17:18:51.000Z</Time>
            <Position>
              <LatitudeDegrees>42.7072727121412754058837890625</LatitudeDegrees>
              <LongitudeDegrees>-5.61080667190253734588623046875</LongitudeDegrees>
            </Position>
            <AltitudeMeters>1070.5999755859375</AltitudeMeters>
            <DistanceMeters>NAN</DistanceMeters>
          </Trackpoint>
          <Trackpoint>
            <Time>2019-10-04T17:18:59.000Z</Time>
            <Position>
              <LatitudeDegrees>42.70674842409789562225341796875</LatitudeDegrees>
              <LongitudeDegrees>-5.6107641756534576416015625</LongitudeDegrees>
            </Position>
            <AltitudeMeters>1070.199951171875</AltitudeMeters>
            <DistanceMeters>NAN</DistanceMeters>
          </Trackpoint>
          <Trackpoint>
            <Time>2019-10-04T17:19:00.000Z</Time>
            <Position>
              <LatitudeDegrees>42.706684134900569915771484375</LatitudeDegrees>
              <LongitudeDegrees>-5.61075889505445957183837890625</LongitudeDegrees>
            </Position>
            <AltitudeMeters>1070.4000244140625</AltitudeMeters>
            <DistanceMeters>NAN</DistanceMeters>
          </Trackpoint>
          <Trackpoint>
            <Time>2019-10-04T17:19:08.000Z</Time>
            <Position>
              <LatitudeDegrees>42.70616948604583740234375</LatitudeDegrees>
              <LongitudeDegrees>-5.61072193086147308349609375</LongitudeDegrees>
            </Position>
            <AltitudeMeters>1070.4000244140625</AltitudeMeters>
            <DistanceMeters>NAN</DistanceMeters>
          </Trackpoint>
          <Trackpoint>
            <Time>2019-10-04T17:19:11.000Z</Time>
            <Position>
              <LatitudeDegrees>42.70597645081579685211181640625</LatitudeDegrees>
              <LongitudeDegrees>-5.6107100285589694976806640625</LongitudeDegrees>
            </Position>
            <AltitudeMeters>1069.4000244140625</AltitudeMeters>
            <DistanceMeters>NAN</DistanceMeters>
          </Trackpoint>
          <Trackpoint>
            <Time>2019-10-04T17:19:13.000Z</Time>
            <Position>
              <LatitudeDegrees>42.70584695041179656982421875</LatitudeDegrees>
              <LongitudeDegrees>-5.6106998026371002197265625</LongitudeDegrees>
            </Position>
            <AltitudeMeters>1069.5999755859375</AltitudeMeters>
            <DistanceMeters>NAN</DistanceMeters>
          </Trackpoint>
          <Trackpoint>
            <Time>2019-10-04T17:19:21.000Z</Time>
            <Position>
              <LatitudeDegrees>42.7053358219563961029052734375</LatitudeDegrees>
              <LongitudeDegrees>-5.61066267080605030059814453125</LongitudeDegrees>
            </Position>
            <AltitudeMeters>1068.4000244140625</AltitudeMeters>
            <DistanceMeters>NAN</DistanceMeters>
          </Trackpoint>
          <Trackpoint>
            <Time>2019-10-04T17:19:24.000Z</Time>
            <Position>
              <LatitudeDegrees>42.70514412783086299896240234375</LatitudeDegrees>
              <LongitudeDegrees>-5.61065009795129299163818359375</LongitudeDegrees>
            </Position>
            <AltitudeMeters>1069</AltitudeMeters>
            <DistanceMeters>NAN</DistanceMeters>
          </Trackpoint>
          <Trackpoint>
            <Time>2019-10-04T17:19:31.000Z</Time>
            <Position>
              <LatitudeDegrees>42.70468245260417461395263671875</LatitudeDegrees>
              <LongitudeDegrees>-5.6106161512434482574462890625</LongitudeDegrees>
            </Position>
            <AltitudeMeters>1068.4000244140625</AltitudeMeters>
            <DistanceMeters>NAN</DistanceMeters>
          </Trackpoint>
          <Trackpoint>
            <Time>2019-10-04T17:19:36.000Z</Time>
            <Position>
              <LatitudeDegrees>42.70433527417480945587158203125</LatitudeDegrees>
              <LongitudeDegrees>-5.6105871498584747314453125</LongitudeDegrees>
            </Position>
            <AltitudeMeters>1067.199951171875</AltitudeMeters>
            <DistanceMeters>NAN</DistanceMeters>
          </Trackpoint>
          <Trackpoint>
            <Time>2019-10-04T17:19:40.000Z</Time>
            <Position>
              <LatitudeDegrees>42.7040393091738224029541015625</LatitudeDegrees>
              <LongitudeDegrees>-5.61056544072926044464111328125</LongitudeDegrees>
            </Position>
            <AltitudeMeters>1065.4000244140625</AltitudeMeters>
            <DistanceMeters>NAN</DistanceMeters>
          </Trackpoint>
          <Trackpoint>
            <Time>2019-10-04T17:19:44.000Z</Time>
            <Position>
              <LatitudeDegrees>42.70373814739286899566650390625</LatitudeDegrees>
              <LongitudeDegrees>-5.6105353496968746185302734375</LongitudeDegrees>
            </Position>
            <AltitudeMeters>1064.4000244140625</AltitudeMeters>
            <DistanceMeters>NAN</DistanceMeters>
          </Trackpoint>
          <Trackpoint>
            <Time>2019-10-04T17:19:45.000Z</Time>
            <Position>
              <LatitudeDegrees>42.7036540769040584564208984375</LatitudeDegrees>
              <LongitudeDegrees>-5.610525123775005340576171875</LongitudeDegrees>
            </Position>
            <AltitudeMeters>1063.5999755859375</AltitudeMeters>
            <DistanceMeters>NAN</DistanceMeters>
          </Trackpoint>
          <Trackpoint>
            <Time>2019-10-04T17:19:46.000Z</Time>
            <Position>
              <LatitudeDegrees>42.70357687957584857940673828125</LatitudeDegrees>
              <LongitudeDegrees>-5.6105182506144046783447265625</LongitudeDegrees>
            </Position>
            <AltitudeMeters>1063.4000244140625</AltitudeMeters>
            <DistanceMeters>NAN</DistanceMeters>
          </Trackpoint>
          <Trackpoint>
            <Time>2019-10-04T17:19:49.000Z</Time>
            <Position>
              <LatitudeDegrees>42.703348137438297271728515625</LatitudeDegrees>
              <LongitudeDegrees>-5.6104954518377780914306640625</LongitudeDegrees>
            </Position>
            <AltitudeMeters>1062</AltitudeMeters>
            <DistanceMeters>NAN</DistanceMeters>
          </Trackpoint>
          <Trackpoint>
            <Time>2019-10-04T17:19:52.000Z</Time>
            <Position>
              <LatitudeDegrees>42.70309475250542163848876953125</LatitudeDegrees>
              <LongitudeDegrees>-5.610471479594707489013671875</LongitudeDegrees>
            </Position>
            <AltitudeMeters>1060.800048828125</AltitudeMeters>
            <DistanceMeters>NAN</DistanceMeters>
          </Trackpoint>
          <Trackpoint>
            <Time>2019-10-04T17:19:54.000Z</Time>
            <Position>
              <LatitudeDegrees>42.70292728208005428314208984375</LatitudeDegrees>
              <LongitudeDegrees>-5.61045647598803043365478515625</LongitudeDegrees>
            </Position>
            <AltitudeMeters>1060.4000244140625</AltitudeMeters>
            <DistanceMeters>NAN</DistanceMeters>
          </Trackpoint>
          <Trackpoint>
            <Time>2019-10-04T17:19:56.000Z</Time>
            <Position>
              <LatitudeDegrees>42.702763415873050689697265625</LatitudeDegrees>
              <LongitudeDegrees>-5.61044122092425823211669921875</LongitudeDegrees>
            </Position>
            <AltitudeMeters>1059.5999755859375</AltitudeMeters>
            <DistanceMeters>NAN</DistanceMeters>
          </Trackpoint>
          <Trackpoint>
            <Time>2019-10-04T17:19:58.000Z</Time>
            <Position>
              <LatitudeDegrees>42.70259167067706584930419921875</LatitudeDegrees>
              <LongitudeDegrees>-5.610426552593708038330078125</LongitudeDegrees>
            </Position>
            <AltitudeMeters>1059.199951171875</AltitudeMeters>
            <DistanceMeters>NAN</DistanceMeters>
          </Trackpoint>
          <Trackpoint>
            <Time>2019-10-04T17:19:59.000Z</Time>
            <Position>
              <LatitudeDegrees>42.70250449888408184051513671875</LatitudeDegrees>
              <LongitudeDegrees>-5.61041842214763164520263671875</LongitudeDegrees>
            </Position>
            <AltitudeMeters>1058.5999755859375</AltitudeMeters>
            <DistanceMeters>NAN</DistanceMeters>
          </Trackpoint>
          <Trackpoint>
            <Time>2019-10-04T17:20:00.000Z</Time>
            <Position>
              <LatitudeDegrees>42.7024098671972751617431640625</LatitudeDegrees>
              <LongitudeDegrees>-5.61041171662509441375732421875</LongitudeDegrees>
            </Position>
            <AltitudeMeters>1058</AltitudeMeters>
            <DistanceMeters>NAN</DistanceMeters>
          </Trackpoint>
          <Trackpoint>
            <Time>2019-10-04T17:20:04.000Z</Time>
            <Position>
              <LatitudeDegrees>42.7020675502717494964599609375</LatitudeDegrees>
              <LongitudeDegrees>-5.61038154177367687225341796875</LongitudeDegrees>
            </Position>
            <AltitudeMeters>1057.4000244140625</AltitudeMeters>
            <DistanceMeters>NAN</DistanceMeters>
          </Trackpoint>
          <Trackpoint>
            <Time>2019-10-04T17:20:05.000Z</Time>
            <Position>
              <LatitudeDegrees>42.7019797079265117645263671875</LatitudeDegrees>
              <LongitudeDegrees>-5.61037299223244190216064453125</LongitudeDegrees>
            </Position>
            <AltitudeMeters>1056.5999755859375</AltitudeMeters>
            <DistanceMeters>NAN</DistanceMeters>
          </Trackpoint>
          <Trackpoint>
            <Time>2019-10-04T17:20:07.000Z</Time>
            <Position>
              <LatitudeDegrees>42.7018015086650848388671875</LatitudeDegrees>
              <LongitudeDegrees>-5.6103583239018917083740234375</LongitudeDegrees>
            </Position>
            <AltitudeMeters>1054.800048828125</AltitudeMeters>
            <DistanceMeters>NAN</DistanceMeters>
          </Trackpoint>
          <Trackpoint>
            <Time>2019-10-04T17:20:08.000Z</Time>
            <Position>
              <LatitudeDegrees>42.7017128281295299530029296875</LatitudeDegrees>
              <LongitudeDegrees>-5.6103489361703395843505859375</LongitudeDegrees>
            </Position>
            <AltitudeMeters>1055.199951171875</AltitudeMeters>
            <DistanceMeters>NAN</DistanceMeters>
          </Trackpoint>
          <Trackpoint>
            <Time>2019-10-04T17:20:11.000Z</Time>
            <Position>
              <LatitudeDegrees>42.7014399133622646331787109375</LatitudeDegrees>
              <LongitudeDegrees>-5.6103278137743473052978515625</LongitudeDegrees>
            </Position>
            <AltitudeMeters>1054.199951171875</AltitudeMeters>
            <DistanceMeters>NAN</DistanceMeters>
          </Trackpoint>
          <Trackpoint>
            <Time>2019-10-04T17:20:13.000Z</Time>
            <Position>
              <LatitudeDegrees>42.70126934163272380828857421875</LatitudeDegrees>
              <LongitudeDegrees>-5.610313229262828826904296875</LongitudeDegrees>
            </Position>
            <AltitudeMeters>1053.800048828125</AltitudeMeters>
            <DistanceMeters>NAN</DistanceMeters>
          </Trackpoint>
          <Trackpoint>
            <Time>2019-10-04T17:20:17.000Z</Time>
            <Position>
              <LatitudeDegrees>42.7009165473282337188720703125</LatitudeDegrees>
              <LongitudeDegrees>-5.6102798692882061004638671875</LongitudeDegrees>
            </Position>
            <AltitudeMeters>1052.4000244140625</AltitudeMeters>
            <DistanceMeters>NAN</DistanceMeters>
          </Trackpoint>
          <Trackpoint>
            <Time>2019-10-04T17:20:19.000Z</Time>
            <Position>
              <LatitudeDegrees>42.7007368393242359161376953125</LatitudeDegrees>
              <LongitudeDegrees>-5.6102652847766876220703125</LongitudeDegrees>
            </Position>
            <AltitudeMeters>1052.4000244140625</AltitudeMeters>
            <DistanceMeters>NAN</DistanceMeters>
          </Trackpoint>
          <Trackpoint>
            <Time>2019-10-04T17:20:26.000Z</Time>
            <Position>
              <LatitudeDegrees>42.70016913302242755889892578125</LatitudeDegrees>
              <LongitudeDegrees>-5.6102143228054046630859375</LongitudeDegrees>
            </Position>
            <AltitudeMeters>1052</AltitudeMeters>
            <DistanceMeters>NAN</DistanceMeters>
          </Trackpoint>
          <Trackpoint>
            <Time>2019-10-04T17:20:28.000Z</Time>
            <Position>
              <LatitudeDegrees>42.70000719465315341949462890625</LatitudeDegrees>
              <LongitudeDegrees>-5.61020158231258392333984375</LongitudeDegrees>
            </Position>
            <AltitudeMeters>1051.199951171875</AltitudeMeters>
            <DistanceMeters>NAN</DistanceMeters>
          </Trackpoint>
          <Trackpoint>
            <Time>2019-10-04T17:20:29.000Z</Time>
            <Position>
              <LatitudeDegrees>42.69992907531559467315673828125</LatitudeDegrees>
              <LongitudeDegrees>-5.610193870961666107177734375</LongitudeDegrees>
            </Position>
            <AltitudeMeters>1051.4000244140625</AltitudeMeters>
            <DistanceMeters>NAN</DistanceMeters>
          </Trackpoint>
          <Trackpoint>
            <Time>2019-10-04T17:20:36.000Z</Time>
            <Position>
              <LatitudeDegrees>42.6994049549102783203125</LatitudeDegrees>
              <LongitudeDegrees>-5.61015070416033267974853515625</LongitudeDegrees>
            </Position>
            <AltitudeMeters>1050.4000244140625</AltitudeMeters>
            <DistanceMeters>NAN</DistanceMeters>
          </Trackpoint>
          <Trackpoint>
            <Time>2019-10-04T17:20:39.000Z</Time>
            <Position>
              <LatitudeDegrees>42.6991821639239788055419921875</LatitudeDegrees>
              <LongitudeDegrees>-5.6101232953369617462158203125</LongitudeDegrees>
            </Position>
            <AltitudeMeters>1050.800048828125</AltitudeMeters>
            <DistanceMeters>NAN</DistanceMeters>
          </Trackpoint>
          <Trackpoint>
            <Time>2019-10-04T17:20:44.000Z</Time>
            <Position>
              <LatitudeDegrees>42.69880883395671844482421875</LatitudeDegrees>
              <LongitudeDegrees>-5.6100904382765293121337890625</LongitudeDegrees>
            </Position>
            <AltitudeMeters>1049.800048828125</AltitudeMeters>
            <DistanceMeters>NAN</DistanceMeters>
          </Trackpoint>
          <Trackpoint>
            <Time>2019-10-04T17:20:46.000Z</Time>
            <Position>
              <LatitudeDegrees>42.69865821115672588348388671875</LatitudeDegrees>
              <LongitudeDegrees>-5.61007627286016941070556640625</LongitudeDegrees>
            </Position>
            <AltitudeMeters>1048.5999755859375</AltitudeMeters>
            <DistanceMeters>NAN</DistanceMeters>
          </Trackpoint>
          <Trackpoint>
            <Time>2019-10-04T17:20:49.000Z</Time>
            <Position>
              <LatitudeDegrees>42.6984324865043163299560546875</LatitudeDegrees>
              <LongitudeDegrees>-5.61004844494163990020751953125</LongitudeDegrees>
            </Position>
            <AltitudeMeters>1048.5999755859375</AltitudeMeters>
            <DistanceMeters>NAN</DistanceMeters>
          </Trackpoint>
          <Trackpoint>
            <Time>2019-10-04T17:20:56.000Z</Time>
            <Position>
              <LatitudeDegrees>42.69792429171502590179443359375</LatitudeDegrees>
              <LongitudeDegrees>-5.609982647001743316650390625</LongitudeDegrees>
            </Position>
            <AltitudeMeters>1048.199951171875</AltitudeMeters>
            <DistanceMeters>NAN</DistanceMeters>
          </Trackpoint>
          <Trackpoint>
            <Time>2019-10-04T17:20:58.000Z</Time>
            <Position>
              <LatitudeDegrees>42.69778045825660228729248046875</LatitudeDegrees>
              <LongitudeDegrees>-5.60994987376034259796142578125</LongitudeDegrees>
            </Position>
            <AltitudeMeters>1047.800048828125</AltitudeMeters>
            <DistanceMeters>NAN</DistanceMeters>
          </Trackpoint>
          <Trackpoint>
            <Time>2019-10-04T17:21:05.000Z</Time>
            <Position>
              <LatitudeDegrees>42.6972834952175617218017578125</LatitudeDegrees>
              <LongitudeDegrees>-5.6098138354718685150146484375</LongitudeDegrees>
            </Position>
            <AltitudeMeters>1047.4000244140625</AltitudeMeters>
            <DistanceMeters>NAN</DistanceMeters>
          </Trackpoint>
          <Trackpoint>
            <Time>2019-10-04T17:21:09.000Z</Time>
            <Position>
              <LatitudeDegrees>42.697006054222583770751953125</LatitudeDegrees>
              <LongitudeDegrees>-5.60972238890826702117919921875</LongitudeDegrees>
            </Position>
            <AltitudeMeters>1047</AltitudeMeters>
            <DistanceMeters>NAN</DistanceMeters>
          </Trackpoint>
          <Trackpoint>
            <Time>2019-10-04T17:21:14.000Z</Time>
            <Position>
              <LatitudeDegrees>42.69665812142193317413330078125</LatitudeDegrees>
              <LongitudeDegrees>-5.60960504226386547088623046875</LongitudeDegrees>
            </Position>
            <AltitudeMeters>1046.199951171875</AltitudeMeters>
            <DistanceMeters>NAN</DistanceMeters>
          </Trackpoint>
          <Trackpoint>
            <Time>2019-10-04T17:21:21.000Z</Time>
            <Position>
              <LatitudeDegrees>42.69615990109741687774658203125</LatitudeDegrees>
              <LongitudeDegrees>-5.60944193042814731597900390625</LongitudeDegrees>
            </Position>
            <AltitudeMeters>1046.199951171875</AltitudeMeters>
            <DistanceMeters>NAN</DistanceMeters>
          </Trackpoint>
          <Trackpoint>
            <Time>2019-10-04T17:21:22.000Z</Time>
            <Position>
              <LatitudeDegrees>42.6960905827581882476806640625</LatitudeDegrees>
              <LongitudeDegrees>-5.60941963456571102142333984375</LongitudeDegrees>
            </Position>
            <AltitudeMeters>1045.5999755859375</AltitudeMeters>
            <DistanceMeters>NAN</DistanceMeters>
          </Trackpoint>
          <Trackpoint>
            <Time>2019-10-04T17:21:26.000Z</Time>
            <Position>
              <LatitudeDegrees>42.695802412927150726318359375</LatitudeDegrees>
              <LongitudeDegrees>-5.60933112166821956634521484375</LongitudeDegrees>
            </Position>
            <AltitudeMeters>1045</AltitudeMeters>
            <DistanceMeters>NAN</DistanceMeters>
          </Trackpoint>
          <Trackpoint>
            <Time>2019-10-04T17:21:33.000Z</Time>
            <Position>
              <LatitudeDegrees>42.69530159421265125274658203125</LatitudeDegrees>
              <LongitudeDegrees>-5.60917085967957973480224609375</LongitudeDegrees>
            </Position>
            <AltitudeMeters>1044.199951171875</AltitudeMeters>
            <DistanceMeters>NAN</DistanceMeters>
          </Trackpoint>
          <Trackpoint>
            <Time>2019-10-04T17:21:34.000Z</Time>
            <Position>
              <LatitudeDegrees>42.69523068331182003021240234375</LatitudeDegrees>
              <LongitudeDegrees>-5.60914772562682628631591796875</LongitudeDegrees>
            </Position>
            <AltitudeMeters>1044</AltitudeMeters>
            <DistanceMeters>NAN</DistanceMeters>
          </Trackpoint>
          <Trackpoint>
            <Time>2019-10-04T17:21:35.000Z</Time>
            <Position>
              <LatitudeDegrees>42.695160694420337677001953125</LatitudeDegrees>
              <LongitudeDegrees>-5.60912392102181911468505859375</LongitudeDegrees>
            </Position>
            <AltitudeMeters>1043.800048828125</AltitudeMeters>
            <DistanceMeters>NAN</DistanceMeters>
          </Trackpoint>
          <Trackpoint>
            <Time>2019-10-04T17:21:42.000Z</Time>
            <Position>
              <LatitudeDegrees>42.69465677440166473388671875</LatitudeDegrees>
              <LongitudeDegrees>-5.608957707881927490234375</LongitudeDegrees>
            </Position>
            <AltitudeMeters>1043.199951171875</AltitudeMeters>
            <DistanceMeters>NAN</DistanceMeters>
          </Trackpoint>
          <Trackpoint>
            <Time>2019-10-04T17:21:48.000Z</Time>
            <Position>
              <LatitudeDegrees>42.69422359764575958251953125</LatitudeDegrees>
              <LongitudeDegrees>-5.60881613753736019134521484375</LongitudeDegrees>
            </Position>
            <AltitudeMeters>1042.5999755859375</AltitudeMeters>
            <DistanceMeters>NAN</DistanceMeters>
          </Trackpoint>
          <Trackpoint>
            <Time>2019-10-04T17:21:56.000Z</Time>
            <Position>
              <LatitudeDegrees>42.69365555606782436370849609375</LatitudeDegrees>
              <LongitudeDegrees>-5.6086356751620769500732421875</LongitudeDegrees>
            </Position>
            <AltitudeMeters>1042.4000244140625</AltitudeMeters>
            <DistanceMeters>NAN</DistanceMeters>
          </Trackpoint>
          <Trackpoint>
            <Time>2019-10-04T17:21:59.000Z</Time>
            <Position>
              <LatitudeDegrees>42.69344215281307697296142578125</LatitudeDegrees>
              <LongitudeDegrees>-5.6085635907948017120361328125</LongitudeDegrees>
            </Position>
            <AltitudeMeters>1042.4000244140625</AltitudeMeters>
            <DistanceMeters>NAN</DistanceMeters>
          </Trackpoint>
          <Trackpoint>
            <Time>2019-10-04T17:22:02.000Z</Time>
            <Position>
              <LatitudeDegrees>42.6932253129780292510986328125</LatitudeDegrees>
              <LongitudeDegrees>-5.60849192552268505096435546875</LongitudeDegrees>
            </Position>
            <AltitudeMeters>1041.5999755859375</AltitudeMeters>
            <DistanceMeters>NAN</DistanceMeters>
          </Trackpoint>
          <Trackpoint>
            <Time>2019-10-04T17:22:09.000Z</Time>
            <Position>
              <LatitudeDegrees>42.69271762110292911529541015625</LatitudeDegrees>
              <LongitudeDegrees>-5.6083252094686031341552734375</LongitudeDegrees>
            </Position>
            <AltitudeMeters>1040.5999755859375</AltitudeMeters>
            <DistanceMeters>NAN</DistanceMeters>
          </Trackpoint>
          <Trackpoint>
            <Time>2019-10-04T17:22:10.000Z</Time>
            <Position>
              <LatitudeDegrees>42.6926479674875736236572265625</LatitudeDegrees>
              <LongitudeDegrees>-5.60830081813037395477294921875</LongitudeDegrees>
            </Position>
            <AltitudeMeters>1040.4000244140625</AltitudeMeters>
            <DistanceMeters>NAN</DistanceMeters>
          </Trackpoint>
          <Trackpoint>
            <Time>2019-10-04T17:22:12.000Z</Time>
            <Position>
              <LatitudeDegrees>42.69250321201980113983154296875</LatitudeDegrees>
              <LongitudeDegrees>-5.60825102962553501129150390625</LongitudeDegrees>
            </Position>
            <AltitudeMeters>1039.4000244140625</AltitudeMeters>
            <DistanceMeters>NAN</DistanceMeters>
          </Trackpoint>
          <Trackpoint>
            <Time>2019-10-04T17:22:20.000Z</Time>
            <Position>
              <LatitudeDegrees>42.69193701446056365966796875</LatitudeDegrees>
              <LongitudeDegrees>-5.608070902526378631591796875</LongitudeDegrees>
            </Position>
            <AltitudeMeters>1038.4000244140625</AltitudeMeters>
            <DistanceMeters>NAN</DistanceMeters>
          </Trackpoint>
          <Trackpoint>
            <Time>2019-10-04T17:22:21.000Z</Time>
            <Position>
              <LatitudeDegrees>42.69186652265489101409912109375</LatitudeDegrees>
              <LongitudeDegrees>-5.608048103749752044677734375</LongitudeDegrees>
            </Position>
            <AltitudeMeters>1038</AltitudeMeters>
            <DistanceMeters>NAN</DistanceMeters>
          </Trackpoint>
          <Trackpoint>
            <Time>2019-10-04T17:22:23.000Z</Time>
            <Position>
              <LatitudeDegrees>42.6917190849781036376953125</LatitudeDegrees>
              <LongitudeDegrees>-5.60799957253038883209228515625</LongitudeDegrees>
            </Position>
            <AltitudeMeters>1037</AltitudeMeters>
            <DistanceMeters>NAN</DistanceMeters>
          </Trackpoint>
          <Trackpoint>
            <Time>2019-10-04T17:22:28.000Z</Time>
            <Position>
              <LatitudeDegrees>42.6913581602275371551513671875</LatitudeDegrees>
              <LongitudeDegrees>-5.60788306407630443572998046875</LongitudeDegrees>
            </Position>
            <AltitudeMeters>1036</AltitudeMeters>
            <DistanceMeters>NAN</DistanceMeters>
          </Trackpoint>
          <Trackpoint>
            <Time>2019-10-04T17:22:30.000Z</Time>
            <Position>
              <LatitudeDegrees>42.6912106387317180633544921875</LatitudeDegrees>
              <LongitudeDegrees>-5.60783243738114833831787109375</LongitudeDegrees>
            </Position>
            <AltitudeMeters>1035.5999755859375</AltitudeMeters>
            <DistanceMeters>NAN</DistanceMeters>
          </Trackpoint>
          <Trackpoint>
            <Time>2019-10-04T17:22:33.000Z</Time>
            <Position>
              <LatitudeDegrees>42.6909846626222133636474609375</LatitudeDegrees>
              <LongitudeDegrees>-5.60776102356612682342529296875</LongitudeDegrees>
            </Position>
            <AltitudeMeters>1034.5999755859375</AltitudeMeters>
            <DistanceMeters>NAN</DistanceMeters>
          </Trackpoint>
          <Trackpoint>
            <Time>2019-10-04T17:22:36.000Z</Time>
            <Position>
              <LatitudeDegrees>42.6907529868185520172119140625</LatitudeDegrees>
              <LongitudeDegrees>-5.60768910683691501617431640625</LongitudeDegrees>
            </Position>
            <AltitudeMeters>1033.5999755859375</AltitudeMeters>
            <DistanceMeters>NAN</DistanceMeters>
          </Trackpoint>
          <Trackpoint>
            <Time>2019-10-04T17:22:39.000Z</Time>
            <Position>
              <LatitudeDegrees>42.69052189774811267852783203125</LatitudeDegrees>
              <LongitudeDegrees>-5.60760788619518280029296875</LongitudeDegrees>
            </Position>
            <AltitudeMeters>1032.199951171875</AltitudeMeters>
            <DistanceMeters>NAN</DistanceMeters>
          </Trackpoint>
          <Trackpoint>
            <Time>2019-10-04T17:22:43.000Z</Time>
            <Position>
              <LatitudeDegrees>42.6902276091277599334716796875</LatitudeDegrees>
              <LongitudeDegrees>-5.60750889591872692108154296875</LongitudeDegrees>
            </Position>
            <AltitudeMeters>1031.199951171875</AltitudeMeters>
            <DistanceMeters>NAN</DistanceMeters>
          </Trackpoint>
          <Trackpoint>
            <Time>2019-10-04T17:22:47.000Z</Time>
            <Position>
              <LatitudeDegrees>42.68994941376149654388427734375</LatitudeDegrees>
              <LongitudeDegrees>-5.607413090765476226806640625</LongitudeDegrees>
            </Position>
            <AltitudeMeters>1031</AltitudeMeters>
            <DistanceMeters>NAN</DistanceMeters>
          </Trackpoint>
          <Trackpoint>
            <Time>2019-10-04T17:22:55.000Z</Time>
            <Position>
              <LatitudeDegrees>42.68941079266369342803955078125</LatitudeDegrees>
              <LongitudeDegrees>-5.60718317516148090362548828125</LongitudeDegrees>
            </Position>
            <AltitudeMeters>1030.5999755859375</AltitudeMeters>
            <DistanceMeters>NAN</DistanceMeters>
          </Trackpoint>
          <Trackpoint>
            <Time>2019-10-04T17:22:57.000Z</Time>
            <Position>
              <LatitudeDegrees>42.68928422592580318450927734375</LatitudeDegrees>
              <LongitudeDegrees>-5.60712282545864582061767578125</LongitudeDegrees>
            </Position>
            <AltitudeMeters>1030.800048828125</AltitudeMeters>
            <DistanceMeters>NAN</DistanceMeters>
          </Trackpoint>
          <Trackpoint>
            <Time>2019-10-04T17:23:05.000Z</Time>
            <Position>
              <LatitudeDegrees>42.688817940652370452880859375</LatitudeDegrees>
              <LongitudeDegrees>-5.6068789958953857421875</LongitudeDegrees>
            </Position>
            <AltitudeMeters>1031.5999755859375</AltitudeMeters>
            <DistanceMeters>NAN</DistanceMeters>
          </Trackpoint>
          <Trackpoint>
            <Time>2019-10-04T17:23:13.000Z</Time>
            <Position>
              <LatitudeDegrees>42.6884011924266815185546875</LatitudeDegrees>
              <LongitudeDegrees>-5.606656707823276519775390625</LongitudeDegrees>
            </Position>
            <AltitudeMeters>1032.199951171875</AltitudeMeters>
            <DistanceMeters>NAN</DistanceMeters>
          </Trackpoint>
          <Trackpoint>
            <Time>2019-10-04T17:23:15.000Z</Time>
            <Position>
              <LatitudeDegrees>42.6882954128086566925048828125</LatitudeDegrees>
              <LongitudeDegrees>-5.6066018901765346527099609375</LongitudeDegrees>
            </Position>
            <AltitudeMeters>1031.800048828125</AltitudeMeters>
            <DistanceMeters>NAN</DistanceMeters>
          </Trackpoint>
          <Trackpoint>
            <Time>2019-10-04T17:23:22.000Z</Time>
            <Position>
              <LatitudeDegrees>42.687901295721530914306640625</LatitudeDegrees>
              <LongitudeDegrees>-5.60639058239758014678955078125</LongitudeDegrees>
            </Position>
            <AltitudeMeters>1031</AltitudeMeters>
            <DistanceMeters>NAN</DistanceMeters>
          </Trackpoint>
          <Trackpoint>
            <Time>2019-10-04T17:23:23.000Z</Time>
            <Position>
              <LatitudeDegrees>42.68784035928547382354736328125</LatitudeDegrees>
              <LongitudeDegrees>-5.60635655187070369720458984375</LongitudeDegrees>
            </Position>
            <AltitudeMeters>1030.800048828125</AltitudeMeters>
            <DistanceMeters>NAN</DistanceMeters>
          </Trackpoint>
          <Trackpoint>
            <Time>2019-10-04T17:23:25.000Z</Time>
            <Position>
              <LatitudeDegrees>42.6877070032060146331787109375</LatitudeDegrees>
              <LongitudeDegrees>-5.60628429986536502838134765625</LongitudeDegrees>
            </Position>
            <AltitudeMeters>1029.800048828125</AltitudeMeters>
            <DistanceMeters>NAN</DistanceMeters>
          </Trackpoint>
          <Trackpoint>
            <Time>2019-10-04T17:23:27.000Z</Time>
            <Position>
              <LatitudeDegrees>42.68757012672722339630126953125</LatitudeDegrees>
              <LongitudeDegrees>-5.6062119640409946441650390625</LongitudeDegrees>
            </Position>
            <AltitudeMeters>1028.199951171875</AltitudeMeters>
            <DistanceMeters>NAN</DistanceMeters>
          </Trackpoint>
          <Trackpoint>
            <Time>2019-10-04T17:23:29.000Z</Time>
            <Position>
              <LatitudeDegrees>42.6874210126698017120361328125</LatitudeDegrees>
              <LongitudeDegrees>-5.60613258741796016693115234375</LongitudeDegrees>
            </Position>
            <AltitudeMeters>1027.800048828125</AltitudeMeters>
            <DistanceMeters>NAN</DistanceMeters>
          </Trackpoint>
          <Trackpoint>
            <Time>2019-10-04T17:23:30.000Z</Time>
            <Position>
              <LatitudeDegrees>42.68734037876129150390625</LatitudeDegrees>
              <LongitudeDegrees>-5.60609084554016590118408203125</LongitudeDegrees>
            </Position>
            <AltitudeMeters>1026.800048828125</AltitudeMeters>
            <DistanceMeters>NAN</DistanceMeters>
          </Trackpoint>
          <Trackpoint>
            <Time>2019-10-04T17:23:32.000Z</Time>
            <Position>
              <LatitudeDegrees>42.68718204461038112640380859375</LatitudeDegrees>
              <LongitudeDegrees>-5.60600526630878448486328125</LongitudeDegrees>
            </Position>
            <AltitudeMeters>1025.800048828125</AltitudeMeters>
            <DistanceMeters>NAN</DistanceMeters>
          </Trackpoint>
          <Trackpoint>
            <Time>2019-10-04T17:23:36.000Z</Time>
            <Position>
              <LatitudeDegrees>42.68686403520405292510986328125</LatitudeDegrees>
              <LongitudeDegrees>-5.60583033598959445953369140625</LongitudeDegrees>
            </Position>
            <AltitudeMeters>1024.800048828125</AltitudeMeters>
            <DistanceMeters>NAN</DistanceMeters>
          </Trackpoint>
          <Trackpoint>
            <Time>2019-10-04T17:23:39.000Z</Time>
            <Position>
              <LatitudeDegrees>42.6866277493536472320556640625</LatitudeDegrees>
              <LongitudeDegrees>-5.6056869216263294219970703125</LongitudeDegrees>
            </Position>
            <AltitudeMeters>1024</AltitudeMeters>
            <DistanceMeters>NAN</DistanceMeters>
          </Trackpoint>
          <Trackpoint>
            <Time>2019-10-04T17:23:41.000Z</Time>
            <Position>
              <LatitudeDegrees>42.6864741928875446319580078125</LatitudeDegrees>
              <LongitudeDegrees>-5.605586506426334381103515625</LongitudeDegrees>
            </Position>
            <AltitudeMeters>1023.5999755859375</AltitudeMeters>
            <DistanceMeters>NAN</DistanceMeters>
          </Trackpoint>
          <Trackpoint>
            <Time>2019-10-04T17:23:46.000Z</Time>
            <Position>
              <LatitudeDegrees>42.68612056039273738861083984375</LatitudeDegrees>
              <LongitudeDegrees>-5.60532926581799983978271484375</LongitudeDegrees>
            </Position>
            <AltitudeMeters>1022.5999755859375</AltitudeMeters>
            <DistanceMeters>NAN</DistanceMeters>
          </Trackpoint>
          <Trackpoint>
            <Time>2019-10-04T17:23:53.000Z</Time>
            <Position>
              <LatitudeDegrees>42.68567112274467945098876953125</LatitudeDegrees>
              <LongitudeDegrees>-5.60496012680232524871826171875</LongitudeDegrees>
            </Position>
            <AltitudeMeters>1023</AltitudeMeters>
            <DistanceMeters>NAN</DistanceMeters>
          </Trackpoint>
          <Trackpoint>
            <Time>2019-10-04T17:23:55.000Z</Time>
            <Position>
              <LatitudeDegrees>42.68554958514869213104248046875</LatitudeDegrees>
              <LongitudeDegrees>-5.60485552065074443817138671875</LongitudeDegrees>
            </Position>
            <AltitudeMeters>1023</AltitudeMeters>
            <DistanceMeters>NAN</DistanceMeters>
          </Trackpoint>
          <Trackpoint>
            <Time>2019-10-04T17:23:57.000Z</Time>
            <Position>
              <LatitudeDegrees>42.68542469479143619537353515625</LatitudeDegrees>
              <LongitudeDegrees>-5.6047504954040050506591796875</LongitudeDegrees>
            </Position>
            <AltitudeMeters>1022.4000244140625</AltitudeMeters>
            <DistanceMeters>NAN</DistanceMeters>
          </Trackpoint>
          <Trackpoint>
            <Time>2019-10-04T17:24:04.000Z</Time>
            <Position>
              <LatitudeDegrees>42.68498363904654979705810546875</LatitudeDegrees>
              <LongitudeDegrees>-5.604390911757946014404296875</LongitudeDegrees>
            </Position>
            <AltitudeMeters>1021.4000244140625</AltitudeMeters>
            <DistanceMeters>NAN</DistanceMeters>
          </Trackpoint>
          <Trackpoint>
            <Time>2019-10-04T17:24:07.000Z</Time>
            <Position>
              <LatitudeDegrees>42.68479454331099987030029296875</LatitudeDegrees>
              <LongitudeDegrees>-5.60424129478633403778076171875</LongitudeDegrees>
            </Position>
            <AltitudeMeters>1020.20001220703125</AltitudeMeters>
            <DistanceMeters>NAN</DistanceMeters>
          </Trackpoint>
          <Trackpoint>
            <Time>2019-10-04T17:24:13.000Z</Time>
            <Position>
              <LatitudeDegrees>42.6844179444015026092529296875</LatitudeDegrees>
              <LongitudeDegrees>-5.6039558909833431243896484375</LongitudeDegrees>
            </Position>
            <AltitudeMeters>1019.20001220703125</AltitudeMeters>
            <DistanceMeters>NAN</DistanceMeters>
          </Trackpoint>
          <Trackpoint>
            <Time>2019-10-04T17:24:17.000Z</Time>
            <Position>
              <LatitudeDegrees>42.68415919505059719085693359375</LatitudeDegrees>
              <LongitudeDegrees>-5.60379646718502044677734375</LongitudeDegrees>
            </Position>
            <AltitudeMeters>1018.79998779296875</AltitudeMeters>
            <DistanceMeters>NAN</DistanceMeters>
          </Trackpoint>
          <Trackpoint>
            <Time>2019-10-04T17:24:23.000Z</Time>
            <Position>
              <LatitudeDegrees>42.68378603272140026092529296875</LatitudeDegrees>
              <LongitudeDegrees>-5.60360376723110675811767578125</LongitudeDegrees>
            </Position>
            <AltitudeMeters>1019</AltitudeMeters>
            <DistanceMeters>NAN</DistanceMeters>
          </Trackpoint>
          <Trackpoint>
            <Time>2019-10-04T17:24:25.000Z</Time>
            <Position>
              <LatitudeDegrees>42.683668769896030426025390625</LatitudeDegrees>
              <LongitudeDegrees>-5.603548698127269744873046875</LongitudeDegrees>
            </Position>
            <AltitudeMeters>1019.20001220703125</AltitudeMeters>
            <DistanceMeters>NAN</DistanceMeters>
          </Trackpoint>
          <Trackpoint>
            <Time>2019-10-04T17:24:33.000Z</Time>
            <Position>
              <LatitudeDegrees>42.68322712741792201995849609375</LatitudeDegrees>
              <LongitudeDegrees>-5.6033627875149250030517578125</LongitudeDegrees>
            </Position>
            <AltitudeMeters>1019.20001220703125</AltitudeMeters>
            <DistanceMeters>NAN</DistanceMeters>
          </Trackpoint>
          <Trackpoint>
            <Time>2019-10-04T17:24:42.000Z</Time>
            <Position>
              <LatitudeDegrees>42.68273896537721157073974609375</LatitudeDegrees>
              <LongitudeDegrees>-5.60315952636301517486572265625</LongitudeDegrees>
            </Position>
            <AltitudeMeters>1019</AltitudeMeters>
            <DistanceMeters>NAN</DistanceMeters>
          </Trackpoint>
          <Trackpoint>
            <Time>2019-10-04T17:24:43.000Z</Time>
            <Position>
              <LatitudeDegrees>42.68268431536853313446044921875</LatitudeDegrees>
              <LongitudeDegrees>-5.6031374819576740264892578125</LongitudeDegrees>
            </Position>
            <AltitudeMeters>1018.5999755859375</AltitudeMeters>
            <DistanceMeters>NAN</DistanceMeters>
          </Trackpoint>
          <Trackpoint>
            <Time>2019-10-04T17:24:52.000Z</Time>
            <Position>
              <LatitudeDegrees>42.68218978308141231536865234375</LatitudeDegrees>
              <LongitudeDegrees>-5.60293824411928653717041015625</LongitudeDegrees>
            </Position>
            <AltitudeMeters>1019</AltitudeMeters>
            <DistanceMeters>NAN</DistanceMeters>
          </Trackpoint>
          <Trackpoint>
            <Time>2019-10-04T17:24:54.000Z</Time>
            <Position>
              <LatitudeDegrees>42.6820746995508670806884765625</LatitudeDegrees>
              <LongitudeDegrees>-5.6028937362134456634521484375</LongitudeDegrees>
            </Position>
            <AltitudeMeters>1018.4000244140625</AltitudeMeters>
            <DistanceMeters>NAN</DistanceMeters>
          </Trackpoint>
          <Trackpoint>
            <Time>2019-10-04T17:24:55.000Z</Time>
            <Position>
              <LatitudeDegrees>42.682017199695110321044921875</LatitudeDegrees>
              <LongitudeDegrees>-5.60287202708423137664794921875</LongitudeDegrees>
            </Position>
            <AltitudeMeters>1018</AltitudeMeters>
            <DistanceMeters>NAN</DistanceMeters>
          </Trackpoint>
          <Trackpoint>
            <Time>2019-10-04T17:25:02.000Z</Time>
            <Position>
              <LatitudeDegrees>42.6816046424210071563720703125</LatitudeDegrees>
              <LongitudeDegrees>-5.6027089990675449371337890625</LongitudeDegrees>
            </Position>
            <AltitudeMeters>1016.79998779296875</AltitudeMeters>
            <DistanceMeters>NAN</DistanceMeters>
          </Trackpoint>
          <Trackpoint>
            <Time>2019-10-04T17:25:05.000Z</Time>
            <Position>
              <LatitudeDegrees>42.68142418004572391510009765625</LatitudeDegrees>
              <LongitudeDegrees>-5.60263314284384250640869140625</LongitudeDegrees>
            </Position>
            <AltitudeMeters>1017.5999755859375</AltitudeMeters>
            <DistanceMeters>NAN</DistanceMeters>
          </Trackpoint>
          <Trackpoint>
            <Time>2019-10-04T17:25:14.000Z</Time>
            <Position>
              <LatitudeDegrees>42.68088052980601787567138671875</LatitudeDegrees>
              <LongitudeDegrees>-5.60240440070629119873046875</LongitudeDegrees>
            </Position>
            <AltitudeMeters>1017</AltitudeMeters>
            <DistanceMeters>NAN</DistanceMeters>
          </Trackpoint>
          <Trackpoint>
            <Time>2019-10-04T17:25:15.000Z</Time>
            <Position>
              <LatitudeDegrees>42.68081883899867534637451171875</LatitudeDegrees>
              <LongitudeDegrees>-5.60238017700612545013427734375</LongitudeDegrees>
            </Position>
            <AltitudeMeters>1017</AltitudeMeters>
            <DistanceMeters>NAN</DistanceMeters>
          </Trackpoint>
          <Trackpoint>
            <Time>2019-10-04T17:25:23.000Z</Time>
            <Position>
              <LatitudeDegrees>42.68033436499536037445068359375</LatitudeDegrees>
              <LongitudeDegrees>-5.60218554921448230743408203125</LongitudeDegrees>
            </Position>
            <AltitudeMeters>1015.79998779296875</AltitudeMeters>
            <DistanceMeters>NAN</DistanceMeters>
          </Trackpoint>
          <Trackpoint>
            <Time>2019-10-04T17:25:25.000Z</Time>
            <Position>
              <LatitudeDegrees>42.68021366558969020843505859375</LatitudeDegrees>
              <LongitudeDegrees>-5.602137856185436248779296875</LongitudeDegrees>
            </Position>
            <AltitudeMeters>1015.4000244140625</AltitudeMeters>
            <DistanceMeters>NAN</DistanceMeters>
          </Trackpoint>
          <Trackpoint>
            <Time>2019-10-04T17:25:34.000Z</Time>
            <Position>
              <LatitudeDegrees>42.67967504449188709259033203125</LatitudeDegrees>
              <LongitudeDegrees>-5.601919926702976226806640625</LongitudeDegrees>
            </Position>
            <AltitudeMeters>1014.79998779296875</AltitudeMeters>
            <DistanceMeters>NAN</DistanceMeters>
          </Trackpoint>
          <Trackpoint>
            <Time>2019-10-04T17:25:35.000Z</Time>
            <Position>
              <LatitudeDegrees>42.67961586825549602508544921875</LatitudeDegrees>
              <LongitudeDegrees>-5.6018966250121593475341796875</LongitudeDegrees>
            </Position>
            <AltitudeMeters>1014.4000244140625</AltitudeMeters>
            <DistanceMeters>NAN</DistanceMeters>
          </Trackpoint>
          <Trackpoint>
            <Time>2019-10-04T17:25:36.000Z</Time>
            <Position>
              <LatitudeDegrees>42.67955727875232696533203125</LatitudeDegrees>
              <LongitudeDegrees>-5.60187340714037418365478515625</LongitudeDegrees>
            </Position>
            <AltitudeMeters>1015</AltitudeMeters>
            <DistanceMeters>NAN</DistanceMeters>
          </Trackpoint>
          <Trackpoint>
            <Time>2019-10-04T17:25:38.000Z</Time>
            <Position>
              <LatitudeDegrees>42.679442279040813446044921875</LatitudeDegrees>
              <LongitudeDegrees>-5.601825378835201263427734375</LongitudeDegrees>
            </Position>
            <AltitudeMeters>1015.4000244140625</AltitudeMeters>
            <DistanceMeters>NAN</DistanceMeters>
          </Trackpoint>
          <Trackpoint>
            <Time>2019-10-04T17:25:45.000Z</Time>
            <Position>
              <LatitudeDegrees>42.6790505088865756988525390625</LatitudeDegrees>
              <LongitudeDegrees>-5.60167224146425724029541015625</LongitudeDegrees>
            </Position>
            <AltitudeMeters>1014.4000244140625</AltitudeMeters>
            <DistanceMeters>NAN</DistanceMeters>
          </Trackpoint>
          <Trackpoint>
            <Time>2019-10-04T17:25:46.000Z</Time>
            <Position>
              <LatitudeDegrees>42.6789951883256435394287109375</LatitudeDegrees>
              <LongitudeDegrees>-5.60165028087794780731201171875</LongitudeDegrees>
            </Position>
            <AltitudeMeters>1014.4000244140625</AltitudeMeters>
            <DistanceMeters>NAN</DistanceMeters>
          </Trackpoint>
          <Trackpoint>
            <Time>2019-10-04T17:25:55.000Z</Time>
            <Position>
              <LatitudeDegrees>42.67849990166723728179931640625</LatitudeDegrees>
              <LongitudeDegrees>-5.6014450080692768096923828125</LongitudeDegrees>
            </Position>
            <AltitudeMeters>1013.5999755859375</AltitudeMeters>
            <DistanceMeters>NAN</DistanceMeters>
          </Trackpoint>
          <Trackpoint>
            <Time>2019-10-04T17:25:58.000Z</Time>
            <Position>
              <LatitudeDegrees>42.67833360470831394195556640625</LatitudeDegrees>
              <LongitudeDegrees>-5.6013786233961582183837890625</LongitudeDegrees>
            </Position>
            <AltitudeMeters>1013.79998779296875</AltitudeMeters>
            <DistanceMeters>NAN</DistanceMeters>
          </Trackpoint>
          <Trackpoint>
            <Time>2019-10-04T17:26:01.000Z</Time>
            <Position>
              <LatitudeDegrees>42.67816831357777118682861328125</LatitudeDegrees>
              <LongitudeDegrees>-5.60131140053272247314453125</LongitudeDegrees>
            </Position>
            <AltitudeMeters>1012.5999755859375</AltitudeMeters>
            <DistanceMeters>NAN</DistanceMeters>
          </Trackpoint>
          <Trackpoint>
            <Time>2019-10-04T17:26:10.000Z</Time>
            <Position>
              <LatitudeDegrees>42.6776668243110179901123046875</LatitudeDegrees>
              <LongitudeDegrees>-5.60110897757112979888916015625</LongitudeDegrees>
            </Position>
            <AltitudeMeters>1012.20001220703125</AltitudeMeters>
            <DistanceMeters>NAN</DistanceMeters>
          </Trackpoint>
          <Trackpoint>
            <Time>2019-10-04T17:26:13.000Z</Time>
            <Position>
              <LatitudeDegrees>42.67749424092471599578857421875</LatitudeDegrees>
              <LongitudeDegrees>-5.601038821041584014892578125</LongitudeDegrees>
            </Position>
            <AltitudeMeters>1012</AltitudeMeters>
            <DistanceMeters>NAN</DistanceMeters>
          </Trackpoint>
          <Trackpoint>
            <Time>2019-10-04T17:26:15.000Z</Time>
            <Position>
              <LatitudeDegrees>42.6773771457374095916748046875</LatitudeDegrees>
              <LongitudeDegrees>-5.60099498368799686431884765625</LongitudeDegrees>
            </Position>
            <AltitudeMeters>1011.5999755859375</AltitudeMeters>
            <DistanceMeters>NAN</DistanceMeters>
          </Trackpoint>
          <Trackpoint>
            <Time>2019-10-04T17:26:20.000Z</Time>
            <Position>
              <LatitudeDegrees>42.67709157429635524749755859375</LatitudeDegrees>
              <LongitudeDegrees>-5.6008750386536121368408203125</LongitudeDegrees>
            </Position>
            <AltitudeMeters>1010.5999755859375</AltitudeMeters>
            <DistanceMeters>NAN</DistanceMeters>
          </Trackpoint>
          <Trackpoint>
            <Time>2019-10-04T17:26:21.000Z</Time>
            <Position>
              <LatitudeDegrees>42.67703474499285221099853515625</LatitudeDegrees>
              <LongitudeDegrees>-5.6008522398769855499267578125</LongitudeDegrees>
            </Position>
            <AltitudeMeters>1010.5999755859375</AltitudeMeters>
            <DistanceMeters>NAN</DistanceMeters>
          </Trackpoint>
          <Trackpoint>
            <Time>2019-10-04T17:26:30.000Z</Time>
            <Position>
              <LatitudeDegrees>42.6765332557260990142822265625</LatitudeDegrees>
              <LongitudeDegrees>-5.6006406806409358978271484375</LongitudeDegrees>
            </Position>
            <AltitudeMeters>1009.5999755859375</AltitudeMeters>
            <DistanceMeters>NAN</DistanceMeters>
          </Trackpoint>
          <Trackpoint>
            <Time>2019-10-04T17:26:32.000Z</Time>
            <Position>
              <LatitudeDegrees>42.6764206029474735260009765625</LatitudeDegrees>
              <LongitudeDegrees>-5.60059516690671443939208984375</LongitudeDegrees>
            </Position>
            <AltitudeMeters>1009.4000244140625</AltitudeMeters>
            <DistanceMeters>NAN</DistanceMeters>
          </Trackpoint>
          <Trackpoint>
            <Time>2019-10-04T17:26:35.000Z</Time>
            <Position>
              <LatitudeDegrees>42.6762507855892181396484375</LatitudeDegrees>
              <LongitudeDegrees>-5.60052962042391300201416015625</LongitudeDegrees>
            </Position>
            <AltitudeMeters>1009</AltitudeMeters>
            <DistanceMeters>NAN</DistanceMeters>
          </Trackpoint>
          <Trackpoint>
            <Time>2019-10-04T17:26:45.000Z</Time>
            <Position>
              <LatitudeDegrees>42.6757031120359897613525390625</LatitudeDegrees>
              <LongitudeDegrees>-5.60031554661691188812255859375</LongitudeDegrees>
            </Position>
            <AltitudeMeters>1008.5999755859375</AltitudeMeters>
            <DistanceMeters>NAN</DistanceMeters>
          </Trackpoint>
          <Trackpoint>
            <Time>2019-10-04T17:26:48.000Z</Time>
            <Position>
              <LatitudeDegrees>42.67554159276187419891357421875</LatitudeDegrees>
              <LongitudeDegrees>-5.60024916194379329681396484375</LongitudeDegrees>
            </Position>
            <AltitudeMeters>1009.5999755859375</AltitudeMeters>
            <DistanceMeters>NAN</DistanceMeters>
          </Trackpoint>
          <Trackpoint>
            <Time>2019-10-04T17:26:51.000Z</Time>
            <Position>
              <LatitudeDegrees>42.67537898384034633636474609375</LatitudeDegrees>
              <LongitudeDegrees>-5.60018219053745269775390625</LongitudeDegrees>
            </Position>
            <AltitudeMeters>1008.4000244140625</AltitudeMeters>
            <DistanceMeters>NAN</DistanceMeters>
          </Trackpoint>
          <Trackpoint>
            <Time>2019-10-04T17:26:59.000Z</Time>
            <Position>
              <LatitudeDegrees>42.6749537698924541473388671875</LatitudeDegrees>
              <LongitudeDegrees>-5.60000558383762836456298828125</LongitudeDegrees>
            </Position>
            <AltitudeMeters>1007.4000244140625</AltitudeMeters>
            <DistanceMeters>NAN</DistanceMeters>
          </Trackpoint>
          <Trackpoint>
            <Time>2019-10-04T17:27:00.000Z</Time>
            <Position>
              <LatitudeDegrees>42.674900628626346588134765625</LatitudeDegrees>
              <LongitudeDegrees>-5.59998362325131893157958984375</LongitudeDegrees>
            </Position>
            <AltitudeMeters>1007.20001220703125</AltitudeMeters>
            <DistanceMeters>NAN</DistanceMeters>
          </Trackpoint>
          <Trackpoint>
            <Time>2019-10-04T17:27:10.000Z</Time>
            <Position>
              <LatitudeDegrees>42.674358822405338287353515625</LatitudeDegrees>
              <LongitudeDegrees>-5.59977575205266475677490234375</LongitudeDegrees>
            </Position>
            <AltitudeMeters>1007</AltitudeMeters>
            <DistanceMeters>NAN</DistanceMeters>
          </Trackpoint>
          <Trackpoint>
            <Time>2019-10-04T17:27:11.000Z</Time>
            <Position>
              <LatitudeDegrees>42.67430425621569156646728515625</LatitudeDegrees>
              <LongitudeDegrees>-5.599753372371196746826171875</LongitudeDegrees>
            </Position>
            <AltitudeMeters>1006.5999755859375</AltitudeMeters>
            <DistanceMeters>NAN</DistanceMeters>
          </Trackpoint>
          <Trackpoint>
            <Time>2019-10-04T17:27:12.000Z</Time>
            <Position>
              <LatitudeDegrees>42.6742498576641082763671875</LatitudeDegrees>
              <LongitudeDegrees>-5.5997310765087604522705078125</LongitudeDegrees>
            </Position>
            <AltitudeMeters>1005.79998779296875</AltitudeMeters>
            <DistanceMeters>NAN</DistanceMeters>
          </Trackpoint>
          <Trackpoint>
            <Time>2019-10-04T17:27:22.000Z</Time>
            <Position>
              <LatitudeDegrees>42.67370511777698993682861328125</LatitudeDegrees>
              <LongitudeDegrees>-5.59954910539090633392333984375</LongitudeDegrees>
            </Position>
            <AltitudeMeters>1005.20001220703125</AltitudeMeters>
            <DistanceMeters>NAN</DistanceMeters>
          </Trackpoint>
          <Trackpoint>
            <Time>2019-10-04T17:27:32.000Z</Time>
            <Position>
              <LatitudeDegrees>42.673167251050472259521484375</LatitudeDegrees>
              <LongitudeDegrees>-5.59943251311779022216796875</LongitudeDegrees>
            </Position>
            <AltitudeMeters>1005.4000244140625</AltitudeMeters>
            <DistanceMeters>NAN</DistanceMeters>
          </Trackpoint>
          <Trackpoint>
            <Time>2019-10-04T17:27:33.000Z</Time>
            <Position>
              <LatitudeDegrees>42.67311595380306243896484375</LatitudeDegrees>
              <LongitudeDegrees>-5.5994256399571895599365234375</LongitudeDegrees>
            </Position>
            <AltitudeMeters>1005.20001220703125</AltitudeMeters>
            <DistanceMeters>NAN</DistanceMeters>
          </Trackpoint>
          <Trackpoint>
            <Time>2019-10-04T17:27:39.000Z</Time>
            <Position>
              <LatitudeDegrees>42.672820575535297393798828125</LatitudeDegrees>
              <LongitudeDegrees>-5.59938867576420307159423828125</LongitudeDegrees>
            </Position>
            <AltitudeMeters>1005.4000244140625</AltitudeMeters>
            <DistanceMeters>NAN</DistanceMeters>
          </Trackpoint>
          <Trackpoint>
            <Time>2019-10-04T17:27:50.000Z</Time>
            <Position>
              <LatitudeDegrees>42.672279775142669677734375</LatitudeDegrees>
              <LongitudeDegrees>-5.59935095719993114471435546875</LongitudeDegrees>
            </Position>
            <AltitudeMeters>1005.5999755859375</AltitudeMeters>
            <DistanceMeters>NAN</DistanceMeters>
          </Trackpoint>
          <Trackpoint>
            <Time>2019-10-04T17:27:51.000Z</Time>
            <Position>
              <LatitudeDegrees>42.67223141156136989593505859375</LatitudeDegrees>
              <LongitudeDegrees>-5.59934777207672595977783203125</LongitudeDegrees>
            </Position>
            <AltitudeMeters>1005.4000244140625</AltitudeMeters>
            <DistanceMeters>NAN</DistanceMeters>
          </Trackpoint>
          <Trackpoint>
            <Time>2019-10-04T17:28:01.000Z</Time>
            <Position>
              <LatitudeDegrees>42.671753726899623870849609375</LatitudeDegrees>
              <LongitudeDegrees>-5.5993377976119518280029296875</LongitudeDegrees>
            </Position>
            <AltitudeMeters>1006.20001220703125</AltitudeMeters>
            <DistanceMeters>NAN</DistanceMeters>
          </Trackpoint>
          <Trackpoint>
            <Time>2019-10-04T17:28:06.000Z</Time>
            <Position>
              <LatitudeDegrees>42.67150654457509517669677734375</LatitudeDegrees>
              <LongitudeDegrees>-5.59933000244200229644775390625</LongitudeDegrees>
            </Position>
            <AltitudeMeters>1007</AltitudeMeters>
            <DistanceMeters>NAN</DistanceMeters>
          </Trackpoint>
          <Trackpoint>
            <Time>2019-10-04T17:28:09.000Z</Time>
            <Position>
              <LatitudeDegrees>42.671357095241546630859375</LatitudeDegrees>
              <LongitudeDegrees>-5.59932463802397251129150390625</LongitudeDegrees>
            </Position>
            <AltitudeMeters>1005.5999755859375</AltitudeMeters>
            <DistanceMeters>NAN</DistanceMeters>
          </Trackpoint>
          <Trackpoint>
            <Time>2019-10-04T17:28:14.000Z</Time>
            <Position>
              <LatitudeDegrees>42.67111393623054027557373046875</LatitudeDegrees>
              <LongitudeDegrees>-5.599314831197261810302734375</LongitudeDegrees>
            </Position>
            <AltitudeMeters>1005.79998779296875</AltitudeMeters>
            <DistanceMeters>NAN</DistanceMeters>
          </Trackpoint>
          <Trackpoint>
            <Time>2019-10-04T17:28:25.000Z</Time>
            <Position>
              <LatitudeDegrees>42.670577578246593475341796875</LatitudeDegrees>
              <LongitudeDegrees>-5.5992875061929225921630859375</LongitudeDegrees>
            </Position>
            <AltitudeMeters>1005.20001220703125</AltitudeMeters>
            <DistanceMeters>NAN</DistanceMeters>
          </Trackpoint>
          <Trackpoint>
            <Time>2019-10-04T17:28:28.000Z</Time>
            <Position>
              <LatitudeDegrees>42.67043030820786952972412109375</LatitudeDegrees>
              <LongitudeDegrees>-5.59927099384367465972900390625</LongitudeDegrees>
            </Position>
            <AltitudeMeters>1004.4000244140625</AltitudeMeters>
            <DistanceMeters>NAN</DistanceMeters>
          </Trackpoint>
          <Trackpoint>
            <Time>2019-10-04T17:28:37.000Z</Time>
            <Position>
              <LatitudeDegrees>42.6699824631214141845703125</LatitudeDegrees>
              <LongitudeDegrees>-5.59919002465903759002685546875</LongitudeDegrees>
            </Position>
            <AltitudeMeters>1004</AltitudeMeters>
            <DistanceMeters>NAN</DistanceMeters>
          </Trackpoint>
          <Trackpoint>
            <Time>2019-10-04T17:28:42.000Z</Time>
            <Position>
              <LatitudeDegrees>42.66972186975181102752685546875</LatitudeDegrees>
              <LongitudeDegrees>-5.5991037748754024505615234375</LongitudeDegrees>
            </Position>
            <AltitudeMeters>1003.4000244140625</AltitudeMeters>
            <DistanceMeters>NAN</DistanceMeters>
          </Trackpoint>
          <Trackpoint>
            <Time>2019-10-04T17:28:46.000Z</Time>
            <Position>
              <LatitudeDegrees>42.66951114870607852935791015625</LatitudeDegrees>
              <LongitudeDegrees>-5.59901433996856212615966796875</LongitudeDegrees>
            </Position>
            <AltitudeMeters>1003.4000244140625</AltitudeMeters>
            <DistanceMeters>NAN</DistanceMeters>
          </Trackpoint>
          <Trackpoint>
            <Time>2019-10-04T17:28:55.000Z</Time>
            <Position>
              <LatitudeDegrees>42.66906875185668468475341796875</LatitudeDegrees>
              <LongitudeDegrees>-5.59874829836189746856689453125</LongitudeDegrees>
            </Position>
            <AltitudeMeters>1003.20001220703125</AltitudeMeters>
            <DistanceMeters>NAN</DistanceMeters>
          </Trackpoint>
          <Trackpoint>
            <Time>2019-10-04T17:29:02.000Z</Time>
            <Position>
              <LatitudeDegrees>42.6687504909932613372802734375</LatitudeDegrees>
              <LongitudeDegrees>-5.59850572608411312103271484375</LongitudeDegrees>
            </Position>
            <AltitudeMeters>1003.5999755859375</AltitudeMeters>
            <DistanceMeters>NAN</DistanceMeters>
          </Trackpoint>
          <Trackpoint>
            <Time>2019-10-04T17:29:09.000Z</Time>
            <Position>
              <LatitudeDegrees>42.66839736141264438629150390625</LatitudeDegrees>
              <LongitudeDegrees>-5.59823214076459407806396484375</LongitudeDegrees>
            </Position>
            <AltitudeMeters>1002.20001220703125</AltitudeMeters>
            <DistanceMeters>NAN</DistanceMeters>
          </Trackpoint>
          <Trackpoint>
            <Time>2019-10-04T17:29:11.000Z</Time>
            <Position>
              <LatitudeDegrees>42.66828454099595546722412109375</LatitudeDegrees>
              <LongitudeDegrees>-5.59814496897161006927490234375</LongitudeDegrees>
            </Position>
            <AltitudeMeters>1001</AltitudeMeters>
            <DistanceMeters>NAN</DistanceMeters>
          </Trackpoint>
          <Trackpoint>
            <Time>2019-10-04T17:29:12.000Z</Time>
            <Position>
              <LatitudeDegrees>42.66822620294988155364990234375</LatitudeDegrees>
              <LongitudeDegrees>-5.59809970669448375701904296875</LongitudeDegrees>
            </Position>
            <AltitudeMeters>1000.4000244140625</AltitudeMeters>
            <DistanceMeters>NAN</DistanceMeters>
          </Trackpoint>
          <Trackpoint>
            <Time>2019-10-04T17:29:15.000Z</Time>
            <Position>
              <LatitudeDegrees>42.66804330982267856597900390625</LatitudeDegrees>
              <LongitudeDegrees>-5.5979591421782970428466796875</LongitudeDegrees>
            </Position>
            <AltitudeMeters>999.79998779296875</AltitudeMeters>
            <DistanceMeters>NAN</DistanceMeters>
          </Trackpoint>
          <Trackpoint>
            <Time>2019-10-04T17:29:17.000Z</Time>
            <Position>
              <LatitudeDegrees>42.6679116301238536834716796875</LatitudeDegrees>
              <LongitudeDegrees>-5.59785562567412853240966796875</LongitudeDegrees>
            </Position>
            <AltitudeMeters>998.4000244140625</AltitudeMeters>
            <DistanceMeters>NAN</DistanceMeters>
          </Trackpoint>
          <Trackpoint>
            <Time>2019-10-04T17:29:19.000Z</Time>
            <Position>
              <LatitudeDegrees>42.667773999273777008056640625</LatitudeDegrees>
              <LongitudeDegrees>-5.59774783439934253692626953125</LongitudeDegrees>
            </Position>
            <AltitudeMeters>997.4000244140625</AltitudeMeters>
            <DistanceMeters>NAN</DistanceMeters>
          </Trackpoint>
          <Trackpoint>
            <Time>2019-10-04T17:29:20.000Z</Time>
            <Position>
              <LatitudeDegrees>42.66770317219197750091552734375</LatitudeDegrees>
              <LongitudeDegrees>-5.597692094743251800537109375</LongitudeDegrees>
            </Position>
            <AltitudeMeters>996.20001220703125</AltitudeMeters>
            <DistanceMeters>NAN</DistanceMeters>
          </Trackpoint>
          <Trackpoint>
            <Time>2019-10-04T17:29:22.000Z</Time>
            <Position>
              <LatitudeDegrees>42.66755799762904644012451171875</LatitudeDegrees>
              <LongitudeDegrees>-5.5975765921175479888916015625</LongitudeDegrees>
            </Position>
            <AltitudeMeters>994.5999755859375</AltitudeMeters>
            <DistanceMeters>NAN</DistanceMeters>
          </Trackpoint>
          <Trackpoint>
            <Time>2019-10-04T17:29:24.000Z</Time>
            <Position>
              <LatitudeDegrees>42.66740687191486358642578125</LatitudeDegrees>
              <LongitudeDegrees>-5.5974590778350830078125</LongitudeDegrees>
            </Position>
            <AltitudeMeters>993</AltitudeMeters>
            <DistanceMeters>NAN</DistanceMeters>
          </Trackpoint>
          <Trackpoint>
            <Time>2019-10-04T17:29:26.000Z</Time>
            <Position>
              <LatitudeDegrees>42.6672531478106975555419921875</LatitudeDegrees>
              <LongitudeDegrees>-5.59733980335295200347900390625</LongitudeDegrees>
            </Position>
            <AltitudeMeters>991.79998779296875</AltitudeMeters>
            <DistanceMeters>NAN</DistanceMeters>
          </Trackpoint>
          <Trackpoint>
            <Time>2019-10-04T17:29:27.000Z</Time>
            <Position>
              <LatitudeDegrees>42.6671753637492656707763671875</LatitudeDegrees>
              <LongitudeDegrees>-5.597278364002704620361328125</LongitudeDegrees>
            </Position>
            <AltitudeMeters>991.5999755859375</AltitudeMeters>
            <DistanceMeters>NAN</DistanceMeters>
          </Trackpoint>
          <Trackpoint>
            <Time>2019-10-04T17:29:29.000Z</Time>
            <Position>
              <LatitudeDegrees>42.66701535321772098541259765625</LatitudeDegrees>
              <LongitudeDegrees>-5.59715322218835353851318359375</LongitudeDegrees>
            </Position>
            <AltitudeMeters>990.5999755859375</AltitudeMeters>
            <DistanceMeters>NAN</DistanceMeters>
          </Trackpoint>
          <Trackpoint>
            <Time>2019-10-04T17:29:31.000Z</Time>
            <Position>
              <LatitudeDegrees>42.666850984096527099609375</LatitudeDegrees>
              <LongitudeDegrees>-5.59702397324144840240478515625</LongitudeDegrees>
            </Position>
            <AltitudeMeters>989</AltitudeMeters>
            <DistanceMeters>NAN</DistanceMeters>
          </Trackpoint>
          <Trackpoint>
            <Time>2019-10-04T17:29:33.000Z</Time>
            <Position>
              <LatitudeDegrees>42.666682340204715728759765625</LatitudeDegrees>
              <LongitudeDegrees>-5.5968944728374481201171875</LongitudeDegrees>
            </Position>
            <AltitudeMeters>987.20001220703125</AltitudeMeters>
            <DistanceMeters>NAN</DistanceMeters>
          </Trackpoint>
          <Trackpoint>
            <Time>2019-10-04T17:29:34.000Z</Time>
            <Position>
              <LatitudeDegrees>42.66659692861139774322509765625</LatitudeDegrees>
              <LongitudeDegrees>-5.59683035127818584442138671875</LongitudeDegrees>
            </Position>
            <AltitudeMeters>986.20001220703125</AltitudeMeters>
            <DistanceMeters>NAN</DistanceMeters>
          </Trackpoint>
          <Trackpoint>
            <Time>2019-10-04T17:29:35.000Z</Time>
            <Position>
              <LatitudeDegrees>42.66651176847517490386962890625</LatitudeDegrees>
              <LongitudeDegrees>-5.5967655591666698455810546875</LongitudeDegrees>
            </Position>
            <AltitudeMeters>985.4000244140625</AltitudeMeters>
            <DistanceMeters>NAN</DistanceMeters>
          </Trackpoint>
          <Trackpoint>
            <Time>2019-10-04T17:29:36.000Z</Time>
            <Position>
              <LatitudeDegrees>42.66642845235764980316162109375</LatitudeDegrees>
              <LongitudeDegrees>-5.5967001803219318389892578125</LongitudeDegrees>
            </Position>
            <AltitudeMeters>984.5999755859375</AltitudeMeters>
            <DistanceMeters>NAN</DistanceMeters>
          </Trackpoint>
          <Trackpoint>
            <Time>2019-10-04T17:29:38.000Z</Time>
            <Position>
              <LatitudeDegrees>42.66626450233161449432373046875</LatitudeDegrees>
              <LongitudeDegrees>-5.59657034464180469512939453125</LongitudeDegrees>
            </Position>
            <AltitudeMeters>983.5999755859375</AltitudeMeters>
            <DistanceMeters>NAN</DistanceMeters>
          </Trackpoint>
          <Trackpoint>
            <Time>2019-10-04T17:29:41.000Z</Time>
            <Position>
              <LatitudeDegrees>42.66602243296802043914794921875</LatitudeDegrees>
              <LongitudeDegrees>-5.5963856913149356842041015625</LongitudeDegrees>
            </Position>
            <AltitudeMeters>982.4000244140625</AltitudeMeters>
            <DistanceMeters>NAN</DistanceMeters>
          </Trackpoint>
          <Trackpoint>
            <Time>2019-10-04T17:29:43.000Z</Time>
            <Position>
              <LatitudeDegrees>42.665869295597076416015625</LatitudeDegrees>
              <LongitudeDegrees>-5.59626281261444091796875</LongitudeDegrees>
            </Position>
            <AltitudeMeters>981.4000244140625</AltitudeMeters>
            <DistanceMeters>NAN</DistanceMeters>
          </Trackpoint>
          <Trackpoint>
            <Time>2019-10-04T17:29:44.000Z</Time>
            <Position>
              <LatitudeDegrees>42.66579779796302318572998046875</LatitudeDegrees>
              <LongitudeDegrees>-5.596208162605762481689453125</LongitudeDegrees>
            </Position>
            <AltitudeMeters>982</AltitudeMeters>
            <DistanceMeters>NAN</DistanceMeters>
          </Trackpoint>
          <Trackpoint>
            <Time>2019-10-04T17:29:50.000Z</Time>
            <Position>
              <LatitudeDegrees>42.66539529897272586822509765625</LatitudeDegrees>
              <LongitudeDegrees>-5.59589467942714691162109375</LongitudeDegrees>
            </Position>
            <AltitudeMeters>982</AltitudeMeters>
            <DistanceMeters>NAN</DistanceMeters>
          </Trackpoint>
          <Trackpoint>
            <Time>2019-10-04T17:29:51.000Z</Time>
            <Position>
              <LatitudeDegrees>42.66533344052731990814208984375</LatitudeDegrees>
              <LongitudeDegrees>-5.595846734941005706787109375</LongitudeDegrees>
            </Position>
            <AltitudeMeters>981.79998779296875</AltitudeMeters>
            <DistanceMeters>NAN</DistanceMeters>
          </Trackpoint>
          <Trackpoint>
            <Time>2019-10-04T17:29:54.000Z</Time>
            <Position>
              <LatitudeDegrees>42.66515842638909816741943359375</LatitudeDegrees>
              <LongitudeDegrees>-5.59571119956672191619873046875</LongitudeDegrees>
            </Position>
            <AltitudeMeters>982.20001220703125</AltitudeMeters>
            <DistanceMeters>NAN</DistanceMeters>
          </Trackpoint>
          <Trackpoint>
            <Time>2019-10-04T17:29:56.000Z</Time>
            <Position>
              <LatitudeDegrees>42.66504493542015552520751953125</LatitudeDegrees>
              <LongitudeDegrees>-5.5956226028501987457275390625</LongitudeDegrees>
            </Position>
            <AltitudeMeters>982.79998779296875</AltitudeMeters>
            <DistanceMeters>NAN</DistanceMeters>
          </Trackpoint>
          <Trackpoint>
            <Time>2019-10-04T17:29:59.000Z</Time>
            <Position>
              <LatitudeDegrees>42.66487629152834415435791015625</LatitudeDegrees>
              <LongitudeDegrees>-5.59549360536038875579833984375</LongitudeDegrees>
            </Position>
            <AltitudeMeters>981.79998779296875</AltitudeMeters>
            <DistanceMeters>NAN</DistanceMeters>
          </Trackpoint>
          <Trackpoint>
            <Time>2019-10-04T17:30:04.000Z</Time>
            <Position>
              <LatitudeDegrees>42.664596252143383026123046875</LatitudeDegrees>
              <LongitudeDegrees>-5.5952705629169940948486328125</LongitudeDegrees>
            </Position>
            <AltitudeMeters>981.5999755859375</AltitudeMeters>
            <DistanceMeters>NAN</DistanceMeters>
          </Trackpoint>
          <Trackpoint>
            <Time>2019-10-04T17:30:09.000Z</Time>
            <Position>
              <LatitudeDegrees>42.664309926331043243408203125</LatitudeDegrees>
              <LongitudeDegrees>-5.59504534117877483367919921875</LongitudeDegrees>
            </Position>
            <AltitudeMeters>980.5999755859375</AltitudeMeters>
            <DistanceMeters>NAN</DistanceMeters>
          </Trackpoint>
          <Trackpoint>
            <Time>2019-10-04T17:30:11.000Z</Time>
            <Position>
              <LatitudeDegrees>42.6641915738582611083984375</LatitudeDegrees>
              <LongitudeDegrees>-5.5949554033577442169189453125</LongitudeDegrees>
            </Position>
            <AltitudeMeters>980</AltitudeMeters>
            <DistanceMeters>NAN</DistanceMeters>
          </Trackpoint>
          <Trackpoint>
            <Time>2019-10-04T17:30:13.000Z</Time>
            <Position>
              <LatitudeDegrees>42.66407012008130550384521484375</LatitudeDegrees>
              <LongitudeDegrees>-5.59486311860382556915283203125</LongitudeDegrees>
            </Position>
            <AltitudeMeters>979</AltitudeMeters>
            <DistanceMeters>NAN</DistanceMeters>
          </Trackpoint>
          <Trackpoint>
            <Time>2019-10-04T17:30:17.000Z</Time>
            <Position>
              <LatitudeDegrees>42.66382352448999881744384765625</LatitudeDegrees>
              <LongitudeDegrees>-5.59467561542987823486328125</LongitudeDegrees>
            </Position>
            <AltitudeMeters>977.79998779296875</AltitudeMeters>
            <DistanceMeters>NAN</DistanceMeters>
          </Trackpoint>
          <Trackpoint>
            <Time>2019-10-04T17:30:23.000Z</Time>
            <Position>
              <LatitudeDegrees>42.66344063915312290191650390625</LatitudeDegrees>
              <LongitudeDegrees>-5.5943918041884899139404296875</LongitudeDegrees>
            </Position>
            <AltitudeMeters>977</AltitudeMeters>
            <DistanceMeters>NAN</DistanceMeters>
          </Trackpoint>
          <Trackpoint>
            <Time>2019-10-04T17:30:24.000Z</Time>
            <Position>
              <LatitudeDegrees>42.66337224282324314117431640625</LatitudeDegrees>
              <LongitudeDegrees>-5.5943465419113636016845703125</LongitudeDegrees>
            </Position>
            <AltitudeMeters>976.20001220703125</AltitudeMeters>
            <DistanceMeters>NAN</DistanceMeters>
          </Trackpoint>
          <Trackpoint>
            <Time>2019-10-04T17:30:26.000Z</Time>
            <Position>
              <LatitudeDegrees>42.66323226504027843475341796875</LatitudeDegrees>
              <LongitudeDegrees>-5.59425853192806243896484375</LongitudeDegrees>
            </Position>
            <AltitudeMeters>975.4000244140625</AltitudeMeters>
            <DistanceMeters>NAN</DistanceMeters>
          </Trackpoint>
          <Trackpoint>
            <Time>2019-10-04T17:30:27.000Z</Time>
            <Position>
              <LatitudeDegrees>42.663165964186191558837890625</LatitudeDegrees>
              <LongitudeDegrees>-5.59421871788799762725830078125</LongitudeDegrees>
            </Position>
            <AltitudeMeters>975.20001220703125</AltitudeMeters>
            <DistanceMeters>NAN</DistanceMeters>
          </Trackpoint>
          <Trackpoint>
            <Time>2019-10-04T17:30:30.000Z</Time>
            <Position>
              <LatitudeDegrees>42.66299329698085784912109375</LatitudeDegrees>
              <LongitudeDegrees>-5.5941237509250640869140625</LongitudeDegrees>
            </Position>
            <AltitudeMeters>975</AltitudeMeters>
            <DistanceMeters>NAN</DistanceMeters>
          </Trackpoint>
          <Trackpoint>
            <Time>2019-10-04T17:30:34.000Z</Time>
            <Position>
              <LatitudeDegrees>42.66282959841191768646240234375</LatitudeDegrees>
              <LongitudeDegrees>-5.59404990635812282562255859375</LongitudeDegrees>
            </Position>
            <AltitudeMeters>974.79998779296875</AltitudeMeters>
            <DistanceMeters>NAN</DistanceMeters>
          </Trackpoint>
          <Trackpoint>
            <Time>2019-10-04T17:30:38.000Z</Time>
            <Position>
              <LatitudeDegrees>42.662728764116764068603515625</LatitudeDegrees>
              <LongitudeDegrees>-5.59401067905128002166748046875</LongitudeDegrees>
            </Position>
            <AltitudeMeters>975</AltitudeMeters>
            <DistanceMeters>NAN</DistanceMeters>
          </Trackpoint>
          <Trackpoint>
            <Time>2019-10-04T17:50:18.000Z</Time>
            <Position>
              <LatitudeDegrees>42.662189304828643798828125</LatitudeDegrees>
              <LongitudeDegrees>-5.593849159777164459228515625</LongitudeDegrees>
            </Position>
            <AltitudeMeters>970</AltitudeMeters>
            <DistanceMeters>NAN</DistanceMeters>
          </Trackpoint>
          <Trackpoint>
            <Time>2019-10-04T17:50:19.000Z</Time>
            <Position>
              <LatitudeDegrees>42.66212903894484043121337890625</LatitudeDegrees>
              <LongitudeDegrees>-5.593840442597866058349609375</LongitudeDegrees>
            </Position>
            <AltitudeMeters>969.4000244140625</AltitudeMeters>
            <DistanceMeters>NAN</DistanceMeters>
          </Trackpoint>
          <Trackpoint>
            <Time>2019-10-04T17:50:21.000Z</Time>
            <Position>
              <LatitudeDegrees>42.66200079582631587982177734375</LatitudeDegrees>
              <LongitudeDegrees>-5.59383231215178966522216796875</LongitudeDegrees>
            </Position>
            <AltitudeMeters>968.79998779296875</AltitudeMeters>
            <DistanceMeters>NAN</DistanceMeters>
          </Trackpoint>
          <Trackpoint>
            <Time>2019-10-04T17:50:24.000Z</Time>
            <Position>
              <LatitudeDegrees>42.66179812140762805938720703125</LatitudeDegrees>
              <LongitudeDegrees>-5.593824349343776702880859375</LongitudeDegrees>
            </Position>
            <AltitudeMeters>967.79998779296875</AltitudeMeters>
            <DistanceMeters>NAN</DistanceMeters>
          </Trackpoint>
          <Trackpoint>
            <Time>2019-10-04T17:50:25.000Z</Time>
            <Position>
              <LatitudeDegrees>42.66172855161130428314208984375</LatitudeDegrees>
              <LongitudeDegrees>-5.59382543899118900299072265625</LongitudeDegrees>
            </Position>
            <AltitudeMeters>967.5999755859375</AltitudeMeters>
            <DistanceMeters>NAN</DistanceMeters>
          </Trackpoint>
          <Trackpoint>
            <Time>2019-10-04T17:50:29.000Z</Time>
            <Position>
              <LatitudeDegrees>42.66144960187375545501708984375</LatitudeDegrees>
              <LongitudeDegrees>-5.59385628439486026763916015625</LongitudeDegrees>
            </Position>
            <AltitudeMeters>966.79998779296875</AltitudeMeters>
            <DistanceMeters>NAN</DistanceMeters>
          </Trackpoint>
          <Trackpoint>
            <Time>2019-10-04T17:50:31.000Z</Time>
            <Position>
              <LatitudeDegrees>42.66130945645272731781005859375</LatitudeDegrees>
              <LongitudeDegrees>-5.59387899935245513916015625</LongitudeDegrees>
            </Position>
            <AltitudeMeters>966.4000244140625</AltitudeMeters>
            <DistanceMeters>NAN</DistanceMeters>
          </Trackpoint>
          <Trackpoint>
            <Time>2019-10-04T17:50:33.000Z</Time>
            <Position>
              <LatitudeDegrees>42.66117014922201633453369140625</LatitudeDegrees>
              <LongitudeDegrees>-5.59391311369836330413818359375</LongitudeDegrees>
            </Position>
            <AltitudeMeters>965.4000244140625</AltitudeMeters>
            <DistanceMeters>NAN</DistanceMeters>
          </Trackpoint>
          <Trackpoint>
            <Time>2019-10-04T17:50:36.000Z</Time>
            <Position>
              <LatitudeDegrees>42.6609600149095058441162109375</LatitudeDegrees>
              <LongitudeDegrees>-5.59398201294243335723876953125</LongitudeDegrees>
            </Position>
            <AltitudeMeters>965</AltitudeMeters>
            <DistanceMeters>NAN</DistanceMeters>
          </Trackpoint>
          <Trackpoint>
            <Time>2019-10-04T17:50:38.000Z</Time>
            <Position>
              <LatitudeDegrees>42.66082129441201686859130859375</LatitudeDegrees>
              <LongitudeDegrees>-5.59404001571238040924072265625</LongitudeDegrees>
            </Position>
            <AltitudeMeters>964.5999755859375</AltitudeMeters>
            <DistanceMeters>NAN</DistanceMeters>
          </Trackpoint>
          <Trackpoint>
            <Time>2019-10-04T17:50:41.000Z</Time>
            <Position>
              <LatitudeDegrees>42.6606096513569355010986328125</LatitudeDegrees>
              <LongitudeDegrees>-5.59413875453174114227294921875</LongitudeDegrees>
            </Position>
            <AltitudeMeters>964.20001220703125</AltitudeMeters>
            <DistanceMeters>NAN</DistanceMeters>
          </Trackpoint>
          <Trackpoint>
            <Time>2019-10-04T17:50:43.000Z</Time>
            <Position>
              <LatitudeDegrees>42.6604681648313999176025390625</LatitudeDegrees>
              <LongitudeDegrees>-5.59421704150736331939697265625</LongitudeDegrees>
            </Position>
            <AltitudeMeters>963</AltitudeMeters>
            <DistanceMeters>NAN</DistanceMeters>
          </Trackpoint>
          <Trackpoint>
            <Time>2019-10-04T17:50:45.000Z</Time>
            <Position>
              <LatitudeDegrees>42.66032994724810123443603515625</LatitudeDegrees>
              <LongitudeDegrees>-5.59430756606161594390869140625</LongitudeDegrees>
            </Position>
            <AltitudeMeters>962.79998779296875</AltitudeMeters>
            <DistanceMeters>NAN</DistanceMeters>
          </Trackpoint>
          <Trackpoint>
            <Time>2019-10-04T17:50:49.000Z</Time>
            <Position>
              <LatitudeDegrees>42.66005736775696277618408203125</LatitudeDegrees>
              <LongitudeDegrees>-5.59451594017446041107177734375</LongitudeDegrees>
            </Position>
            <AltitudeMeters>962.4000244140625</AltitudeMeters>
            <DistanceMeters>NAN</DistanceMeters>
          </Trackpoint>
          <Trackpoint>
            <Time>2019-10-04T17:50:52.000Z</Time>
            <Position>
              <LatitudeDegrees>42.65986592508852481842041015625</LatitudeDegrees>
              <LongitudeDegrees>-5.59468894265592098236083984375</LongitudeDegrees>
            </Position>
            <AltitudeMeters>962</AltitudeMeters>
            <DistanceMeters>NAN</DistanceMeters>
          </Trackpoint>
          <Trackpoint>
            <Time>2019-10-04T17:50:53.000Z</Time>
            <Position>
              <LatitudeDegrees>42.65980406664311885833740234375</LatitudeDegrees>
              <LongitudeDegrees>-5.59475096873939037322998046875</LongitudeDegrees>
            </Position>
            <AltitudeMeters>961.4000244140625</AltitudeMeters>
            <DistanceMeters>NAN</DistanceMeters>
          </Trackpoint>
          <Trackpoint>
            <Time>2019-10-04T17:50:58.000Z</Time>
            <Position>
              <LatitudeDegrees>42.659496702253818511962890625</LatitudeDegrees>
              <LongitudeDegrees>-5.595081634819507598876953125</LongitudeDegrees>
            </Position>
            <AltitudeMeters>960.20001220703125</AltitudeMeters>
            <DistanceMeters>NAN</DistanceMeters>
          </Trackpoint>
          <Trackpoint>
            <Time>2019-10-04T17:51:01.000Z</Time>
            <Position>
              <LatitudeDegrees>42.65930986963212490081787109375</LatitudeDegrees>
              <LongitudeDegrees>-5.59529227204620838165283203125</LongitudeDegrees>
            </Position>
            <AltitudeMeters>959.5999755859375</AltitudeMeters>
            <DistanceMeters>NAN</DistanceMeters>
          </Trackpoint>
          <Trackpoint>
            <Time>2019-10-04T17:51:03.000Z</Time>
            <Position>
              <LatitudeDegrees>42.659180872142314910888671875</LatitudeDegrees>
              <LongitudeDegrees>-5.5954326689243316650390625</LongitudeDegrees>
            </Position>
            <AltitudeMeters>959.20001220703125</AltitudeMeters>
            <DistanceMeters>NAN</DistanceMeters>
          </Trackpoint>
          <Trackpoint>
            <Time>2019-10-04T17:51:08.000Z</Time>
            <Position>
              <LatitudeDegrees>42.6588593423366546630859375</LatitudeDegrees>
              <LongitudeDegrees>-5.5957976169884204864501953125</LongitudeDegrees>
            </Position>
            <AltitudeMeters>957.79998779296875</AltitudeMeters>
            <DistanceMeters>NAN</DistanceMeters>
          </Trackpoint>
          <Trackpoint>
            <Time>2019-10-04T17:51:10.000Z</Time>
            <Position>
              <LatitudeDegrees>42.65872632153332233428955078125</LatitudeDegrees>
              <LongitudeDegrees>-5.5959380976855754852294921875</LongitudeDegrees>
            </Position>
            <AltitudeMeters>957.20001220703125</AltitudeMeters>
            <DistanceMeters>NAN</DistanceMeters>
          </Trackpoint>
          <Trackpoint>
            <Time>2019-10-04T17:51:12.000Z</Time>
            <Position>
              <LatitudeDegrees>42.65859707258641719818115234375</LatitudeDegrees>
              <LongitudeDegrees>-5.5960844457149505615234375</LongitudeDegrees>
            </Position>
            <AltitudeMeters>956</AltitudeMeters>
            <DistanceMeters>NAN</DistanceMeters>
          </Trackpoint>
          <Trackpoint>
            <Time>2019-10-04T17:51:16.000Z</Time>
            <Position>
              <LatitudeDegrees>42.65833807177841663360595703125</LatitudeDegrees>
              <LongitudeDegrees>-5.59636515565216541290283203125</LongitudeDegrees>
            </Position>
            <AltitudeMeters>954.79998779296875</AltitudeMeters>
            <DistanceMeters>NAN</DistanceMeters>
          </Trackpoint>
          <Trackpoint>
            <Time>2019-10-04T17:51:19.000Z</Time>
            <Position>
              <LatitudeDegrees>42.6581406779587268829345703125</LatitudeDegrees>
              <LongitudeDegrees>-5.59656749479472637176513671875</LongitudeDegrees>
            </Position>
            <AltitudeMeters>954</AltitudeMeters>
            <DistanceMeters>NAN</DistanceMeters>
          </Trackpoint>
          <Trackpoint>
            <Time>2019-10-04T17:51:20.000Z</Time>
            <Position>
              <LatitudeDegrees>42.65807203017175197601318359375</LatitudeDegrees>
              <LongitudeDegrees>-5.59663421474397182464599609375</LongitudeDegrees>
            </Position>
            <AltitudeMeters>953.79998779296875</AltitudeMeters>
            <DistanceMeters>NAN</DistanceMeters>
          </Trackpoint>
          <Trackpoint>
            <Time>2019-10-04T17:51:24.000Z</Time>
            <Position>
              <LatitudeDegrees>42.65776759944856166839599609375</LatitudeDegrees>
              <LongitudeDegrees>-5.59689422138035297393798828125</LongitudeDegrees>
            </Position>
            <AltitudeMeters>951.5999755859375</AltitudeMeters>
            <DistanceMeters>NAN</DistanceMeters>
          </Trackpoint>
          <Trackpoint>
            <Time>2019-10-04T17:51:25.000Z</Time>
            <Position>
              <LatitudeDegrees>42.657683528959751129150390625</LatitudeDegrees>
              <LongitudeDegrees>-5.59695557691156864166259765625</LongitudeDegrees>
            </Position>
            <AltitudeMeters>951.5999755859375</AltitudeMeters>
            <DistanceMeters>NAN</DistanceMeters>
          </Trackpoint>
          <Trackpoint>
            <Time>2019-10-04T17:51:26.000Z</Time>
            <Position>
              <LatitudeDegrees>42.65759509988129138946533203125</LatitudeDegrees>
              <LongitudeDegrees>-5.5970109812915325164794921875</LongitudeDegrees>
            </Position>
            <AltitudeMeters>950.5999755859375</AltitudeMeters>
            <DistanceMeters>NAN</DistanceMeters>
          </Trackpoint>
          <Trackpoint>
            <Time>2019-10-04T17:51:28.000Z</Time>
            <Position>
              <LatitudeDegrees>42.6574055850505828857421875</LatitudeDegrees>
              <LongitudeDegrees>-5.59710443951189517974853515625</LongitudeDegrees>
            </Position>
            <AltitudeMeters>947.79998779296875</AltitudeMeters>
            <DistanceMeters>NAN</DistanceMeters>
          </Trackpoint>
          <Trackpoint>
            <Time>2019-10-04T17:51:29.000Z</Time>
            <Position>
              <LatitudeDegrees>42.65730491839349269866943359375</LatitudeDegrees>
              <LongitudeDegrees>-5.59714199043810367584228515625</LongitudeDegrees>
            </Position>
            <AltitudeMeters>947.4000244140625</AltitudeMeters>
            <DistanceMeters>NAN</DistanceMeters>
          </Trackpoint>
          <Trackpoint>
            <Time>2019-10-04T17:51:30.000Z</Time>
            <Position>
              <LatitudeDegrees>42.6572025753557682037353515625</LatitudeDegrees>
              <LongitudeDegrees>-5.59717518277466297149658203125</LongitudeDegrees>
            </Position>
            <AltitudeMeters>946.5999755859375</AltitudeMeters>
            <DistanceMeters>NAN</DistanceMeters>
          </Trackpoint>
          <Trackpoint>
            <Time>2019-10-04T17:51:32.000Z</Time>
            <Position>
              <LatitudeDegrees>42.656988166272640228271484375</LatitudeDegrees>
              <LongitudeDegrees>-5.5972163379192352294921875</LongitudeDegrees>
            </Position>
            <AltitudeMeters>945</AltitudeMeters>
            <DistanceMeters>NAN</DistanceMeters>
          </Trackpoint>
          <Trackpoint>
            <Time>2019-10-04T17:51:33.000Z</Time>
            <Position>
              <LatitudeDegrees>42.6568798720836639404296875</LatitudeDegrees>
              <LongitudeDegrees>-5.5972270667552947998046875</LongitudeDegrees>
            </Position>
            <AltitudeMeters>944.20001220703125</AltitudeMeters>
            <DistanceMeters>NAN</DistanceMeters>
          </Trackpoint>
          <Trackpoint>
            <Time>2019-10-04T17:51:34.000Z</Time>
            <Position>
              <LatitudeDegrees>42.65676931478083133697509765625</LatitudeDegrees>
              <LongitudeDegrees>-5.59722731821238994598388671875</LongitudeDegrees>
            </Position>
            <AltitudeMeters>943.20001220703125</AltitudeMeters>
            <DistanceMeters>NAN</DistanceMeters>
          </Trackpoint>
          <Trackpoint>
            <Time>2019-10-04T17:51:36.000Z</Time>
            <Position>
              <LatitudeDegrees>42.65654702670872211456298828125</LatitudeDegrees>
              <LongitudeDegrees>-5.597206614911556243896484375</LongitudeDegrees>
            </Position>
            <AltitudeMeters>941.5999755859375</AltitudeMeters>
            <DistanceMeters>NAN</DistanceMeters>
          </Trackpoint>
          <Trackpoint>
            <Time>2019-10-04T17:51:37.000Z</Time>
            <Position>
              <LatitudeDegrees>42.65643672086298465728759765625</LatitudeDegrees>
              <LongitudeDegrees>-5.59718540869653224945068359375</LongitudeDegrees>
            </Position>
            <AltitudeMeters>940.5999755859375</AltitudeMeters>
            <DistanceMeters>NAN</DistanceMeters>
          </Trackpoint>
          <Trackpoint>
            <Time>2019-10-04T17:51:38.000Z</Time>
            <Position>
              <LatitudeDegrees>42.6563254930078983306884765625</LatitudeDegrees>
              <LongitudeDegrees>-5.59715892188251018524169921875</LongitudeDegrees>
            </Position>
            <AltitudeMeters>939.5999755859375</AltitudeMeters>
            <DistanceMeters>NAN</DistanceMeters>
          </Trackpoint>
          <Trackpoint>
            <Time>2019-10-04T17:51:40.000Z</Time>
            <Position>
              <LatitudeDegrees>42.65610270202159881591796875</LatitudeDegrees>
              <LongitudeDegrees>-5.5970944650471210479736328125</LongitudeDegrees>
            </Position>
            <AltitudeMeters>938</AltitudeMeters>
            <DistanceMeters>NAN</DistanceMeters>
          </Trackpoint>
          <Trackpoint>
            <Time>2019-10-04T17:51:41.000Z</Time>
            <Position>
              <LatitudeDegrees>42.65598946250975131988525390625</LatitudeDegrees>
              <LongitudeDegrees>-5.5970606021583080291748046875</LongitudeDegrees>
            </Position>
            <AltitudeMeters>936.79998779296875</AltitudeMeters>
            <DistanceMeters>NAN</DistanceMeters>
          </Trackpoint>
          <Trackpoint>
            <Time>2019-10-04T17:51:43.000Z</Time>
            <Position>
              <LatitudeDegrees>42.65576097182929515838623046875</LatitudeDegrees>
              <LongitudeDegrees>-5.59698374010622501373291015625</LongitudeDegrees>
            </Position>
            <AltitudeMeters>935.20001220703125</AltitudeMeters>
            <DistanceMeters>NAN</DistanceMeters>
          </Trackpoint>
          <Trackpoint>
            <Time>2019-10-04T17:51:45.000Z</Time>
            <Position>
              <LatitudeDegrees>42.65552946366369724273681640625</LatitudeDegrees>
              <LongitudeDegrees>-5.5969063751399517059326171875</LongitudeDegrees>
            </Position>
            <AltitudeMeters>933.4000244140625</AltitudeMeters>
            <DistanceMeters>NAN</DistanceMeters>
          </Trackpoint>
          <Trackpoint>
            <Time>2019-10-04T17:51:47.000Z</Time>
            <Position>
              <LatitudeDegrees>42.6552961952984333038330078125</LatitudeDegrees>
              <LongitudeDegrees>-5.59682901017367839813232421875</LongitudeDegrees>
            </Position>
            <AltitudeMeters>931.79998779296875</AltitudeMeters>
            <DistanceMeters>NAN</DistanceMeters>
          </Trackpoint>
          <Trackpoint>
            <Time>2019-10-04T17:51:48.000Z</Time>
            <Position>
              <LatitudeDegrees>42.6551778428256511688232421875</LatitudeDegrees>
              <LongitudeDegrees>-5.5967860110104084014892578125</LongitudeDegrees>
            </Position>
            <AltitudeMeters>930.79998779296875</AltitudeMeters>
            <DistanceMeters>NAN</DistanceMeters>
          </Trackpoint>
          <Trackpoint>
            <Time>2019-10-04T17:51:49.000Z</Time>
            <Position>
              <LatitudeDegrees>42.6550598256289958953857421875</LatitudeDegrees>
              <LongitudeDegrees>-5.596745274960994720458984375</LongitudeDegrees>
            </Position>
            <AltitudeMeters>930</AltitudeMeters>
            <DistanceMeters>NAN</DistanceMeters>
          </Trackpoint>
          <Trackpoint>
            <Time>2019-10-04T17:51:50.000Z</Time>
            <Position>
              <LatitudeDegrees>42.6549421437084674835205078125</LatitudeDegrees>
              <LongitudeDegrees>-5.5967052094638347625732421875</LongitudeDegrees>
            </Position>
            <AltitudeMeters>929.20001220703125</AltitudeMeters>
            <DistanceMeters>NAN</DistanceMeters>
          </Trackpoint>
          <Trackpoint>
            <Time>2019-10-04T17:51:51.000Z</Time>
            <Position>
              <LatitudeDegrees>42.6548231206834316253662109375</LatitudeDegrees>
              <LongitudeDegrees>-5.59666506014764308929443359375</LongitudeDegrees>
            </Position>
            <AltitudeMeters>928.4000244140625</AltitudeMeters>
            <DistanceMeters>NAN</DistanceMeters>
          </Trackpoint>
          <Trackpoint>
            <Time>2019-10-04T17:51:52.000Z</Time>
            <Position>
              <LatitudeDegrees>42.65470485202968120574951171875</LatitudeDegrees>
              <LongitudeDegrees>-5.5966262519359588623046875</LongitudeDegrees>
            </Position>
            <AltitudeMeters>927.5999755859375</AltitudeMeters>
            <DistanceMeters>NAN</DistanceMeters>
          </Trackpoint>
          <Trackpoint>
            <Time>2019-10-04T17:51:53.000Z</Time>
            <Position>
              <LatitudeDegrees>42.6545864157378673553466796875</LatitudeDegrees>
              <LongitudeDegrees>-5.5965838395059108734130859375</LongitudeDegrees>
            </Position>
            <AltitudeMeters>927</AltitudeMeters>
            <DistanceMeters>NAN</DistanceMeters>
          </Trackpoint>
          <Trackpoint>
            <Time>2019-10-04T17:51:54.000Z</Time>
            <Position>
              <LatitudeDegrees>42.65446982346475124359130859375</LatitudeDegrees>
              <LongitudeDegrees>-5.5965449474751949310302734375</LongitudeDegrees>
            </Position>
            <AltitudeMeters>926.20001220703125</AltitudeMeters>
            <DistanceMeters>NAN</DistanceMeters>
          </Trackpoint>
          <Trackpoint>
            <Time>2019-10-04T17:51:55.000Z</Time>
            <Position>
              <LatitudeDegrees>42.65435365028679370880126953125</LatitudeDegrees>
              <LongitudeDegrees>-5.59650530107319355010986328125</LongitudeDegrees>
            </Position>
            <AltitudeMeters>925.20001220703125</AltitudeMeters>
            <DistanceMeters>NAN</DistanceMeters>
          </Trackpoint>
          <Trackpoint>
            <Time>2019-10-04T17:51:56.000Z</Time>
            <Position>
              <LatitudeDegrees>42.65423881821334362030029296875</LatitudeDegrees>
              <LongitudeDegrees>-5.59646691195666790008544921875</LongitudeDegrees>
            </Position>
            <AltitudeMeters>924.79998779296875</AltitudeMeters>
            <DistanceMeters>NAN</DistanceMeters>
          </Trackpoint>
          <Trackpoint>
            <Time>2019-10-04T17:51:58.000Z</Time>
            <Position>
              <LatitudeDegrees>42.654014267027378082275390625</LatitudeDegrees>
              <LongitudeDegrees>-5.59638594277203083038330078125</LongitudeDegrees>
            </Position>
            <AltitudeMeters>924</AltitudeMeters>
            <DistanceMeters>NAN</DistanceMeters>
          </Trackpoint>
          <Trackpoint>
            <Time>2019-10-04T17:51:59.000Z</Time>
            <Position>
              <LatitudeDegrees>42.65390354208648204803466796875</LatitudeDegrees>
              <LongitudeDegrees>-5.59634638018906116485595703125</LongitudeDegrees>
            </Position>
            <AltitudeMeters>923.5999755859375</AltitudeMeters>
            <DistanceMeters>NAN</DistanceMeters>
          </Trackpoint>
          <Trackpoint>
            <Time>2019-10-04T17:52:03.000Z</Time>
            <Position>
              <LatitudeDegrees>42.65347757376730442047119140625</LatitudeDegrees>
              <LongitudeDegrees>-5.5961949191987514495849609375</LongitudeDegrees>
            </Position>
            <AltitudeMeters>922.5999755859375</AltitudeMeters>
            <DistanceMeters>NAN</DistanceMeters>
          </Trackpoint>
          <Trackpoint>
            <Time>2019-10-04T17:52:04.000Z</Time>
            <Position>
              <LatitudeDegrees>42.653382606804370880126953125</LatitudeDegrees>
              <LongitudeDegrees>-5.596159212291240692138671875</LongitudeDegrees>
            </Position>
            <AltitudeMeters>922.5999755859375</AltitudeMeters>
            <DistanceMeters>NAN</DistanceMeters>
          </Trackpoint>
          <Trackpoint>
            <Time>2019-10-04T17:52:05.000Z</Time>
            <Position>
              <LatitudeDegrees>42.65328931622207164764404296875</LatitudeDegrees>
              <LongitudeDegrees>-5.5961219966411590576171875</LongitudeDegrees>
            </Position>
            <AltitudeMeters>922.5999755859375</AltitudeMeters>
            <DistanceMeters>NAN</DistanceMeters>
          </Trackpoint>
          <Trackpoint>
            <Time>2019-10-04T17:52:06.000Z</Time>
            <Position>
              <LatitudeDegrees>42.6531977020204067230224609375</LatitudeDegrees>
              <LongitudeDegrees>-5.596082098782062530517578125</LongitudeDegrees>
            </Position>
            <AltitudeMeters>922.4000244140625</AltitudeMeters>
            <DistanceMeters>NAN</DistanceMeters>
          </Trackpoint>
          <Trackpoint>
            <Time>2019-10-04T17:52:07.000Z</Time>
            <Position>
              <LatitudeDegrees>42.653101980686187744140625</LatitudeDegrees>
              <LongitudeDegrees>-5.59605854563415050506591796875</LongitudeDegrees>
            </Position>
            <AltitudeMeters>922.4000244140625</AltitudeMeters>
            <DistanceMeters>NAN</DistanceMeters>
          </Trackpoint>
          <Trackpoint>
            <Time>2019-10-04T17:52:09.000Z</Time>
            <Position>
              <LatitudeDegrees>42.65290911309421062469482421875</LatitudeDegrees>
              <LongitudeDegrees>-5.5960118584334850311279296875</LongitudeDegrees>
            </Position>
            <AltitudeMeters>921.5999755859375</AltitudeMeters>
            <DistanceMeters>NAN</DistanceMeters>
          </Trackpoint>
          <Trackpoint>
            <Time>2019-10-04T17:52:11.000Z</Time>
            <Position>
              <LatitudeDegrees>42.6527175866067409515380859375</LatitudeDegrees>
              <LongitudeDegrees>-5.59595092199742794036865234375</LongitudeDegrees>
            </Position>
            <AltitudeMeters>920.4000244140625</AltitudeMeters>
            <DistanceMeters>NAN</DistanceMeters>
          </Trackpoint>
          <Trackpoint>
            <Time>2019-10-04T17:52:12.000Z</Time>
            <Position>
              <LatitudeDegrees>42.65262194909155368804931640625</LatitudeDegrees>
              <LongitudeDegrees>-5.59591739438474178314208984375</LongitudeDegrees>
            </Position>
            <AltitudeMeters>920.20001220703125</AltitudeMeters>
            <DistanceMeters>NAN</DistanceMeters>
          </Trackpoint>
          <Trackpoint>
            <Time>2019-10-04T17:52:15.000Z</Time>
            <Position>
              <LatitudeDegrees>42.6523335278034210205078125</LatitudeDegrees>
              <LongitudeDegrees>-5.59581915847957134246826171875</LongitudeDegrees>
            </Position>
            <AltitudeMeters>919.20001220703125</AltitudeMeters>
            <DistanceMeters>NAN</DistanceMeters>
          </Trackpoint>
          <Trackpoint>
            <Time>2019-10-04T17:52:18.000Z</Time>
            <Position>
              <LatitudeDegrees>42.65204493887722492218017578125</LatitudeDegrees>
              <LongitudeDegrees>-5.59572779573500156402587890625</LongitudeDegrees>
            </Position>
            <AltitudeMeters>918</AltitudeMeters>
            <DistanceMeters>NAN</DistanceMeters>
          </Trackpoint>
          <Trackpoint>
            <Time>2019-10-04T17:52:19.000Z</Time>
            <Position>
              <LatitudeDegrees>42.65194955281913280487060546875</LatitudeDegrees>
              <LongitudeDegrees>-5.59569896198809146881103515625</LongitudeDegrees>
            </Position>
            <AltitudeMeters>917.79998779296875</AltitudeMeters>
            <DistanceMeters>NAN</DistanceMeters>
          </Trackpoint>
          <Trackpoint>
            <Time>2019-10-04T17:52:22.000Z</Time>
            <Position>
              <LatitudeDegrees>42.651661969721317291259765625</LatitudeDegrees>
              <LongitudeDegrees>-5.59561044909060001373291015625</LongitudeDegrees>
            </Position>
            <AltitudeMeters>916.5999755859375</AltitudeMeters>
            <DistanceMeters>NAN</DistanceMeters>
          </Trackpoint>
          <Trackpoint>
            <Time>2019-10-04T17:52:25.000Z</Time>
            <Position>
              <LatitudeDegrees>42.651380337774753570556640625</LatitudeDegrees>
              <LongitudeDegrees>-5.59551657177507877349853515625</LongitudeDegrees>
            </Position>
            <AltitudeMeters>915.5999755859375</AltitudeMeters>
            <DistanceMeters>NAN</DistanceMeters>
          </Trackpoint>
          <Trackpoint>
            <Time>2019-10-04T17:52:26.000Z</Time>
            <Position>
              <LatitudeDegrees>42.6512879692018032073974609375</LatitudeDegrees>
              <LongitudeDegrees>-5.595483966171741485595703125</LongitudeDegrees>
            </Position>
            <AltitudeMeters>915.4000244140625</AltitudeMeters>
            <DistanceMeters>NAN</DistanceMeters>
          </Trackpoint>
          <Trackpoint>
            <Time>2019-10-04T17:52:27.000Z</Time>
            <Position>
              <LatitudeDegrees>42.6511950977146625518798828125</LatitudeDegrees>
              <LongitudeDegrees>-5.59545169584453105926513671875</LongitudeDegrees>
            </Position>
            <AltitudeMeters>915.20001220703125</AltitudeMeters>
            <DistanceMeters>NAN</DistanceMeters>
          </Trackpoint>
          <Trackpoint>
            <Time>2019-10-04T17:52:28.000Z</Time>
            <Position>
              <LatitudeDegrees>42.6511032320559024810791015625</LatitudeDegrees>
              <LongitudeDegrees>-5.59542286209762096405029296875</LongitudeDegrees>
            </Position>
            <AltitudeMeters>915.4000244140625</AltitudeMeters>
            <DistanceMeters>NAN</DistanceMeters>
          </Trackpoint>
          <Trackpoint>
            <Time>2019-10-04T17:52:34.000Z</Time>
            <Position>
              <LatitudeDegrees>42.65055413357913494110107421875</LatitudeDegrees>
              <LongitudeDegrees>-5.5952276475727558135986328125</LongitudeDegrees>
            </Position>
            <AltitudeMeters>914.79998779296875</AltitudeMeters>
            <DistanceMeters>NAN</DistanceMeters>
          </Trackpoint>
          <Trackpoint>
            <Time>2019-10-04T17:52:35.000Z</Time>
            <Position>
              <LatitudeDegrees>42.65046344138681888580322265625</LatitudeDegrees>
              <LongitudeDegrees>-5.59519604779779911041259765625</LongitudeDegrees>
            </Position>
            <AltitudeMeters>914.20001220703125</AltitudeMeters>
            <DistanceMeters>NAN</DistanceMeters>
          </Trackpoint>
          <Trackpoint>
            <Time>2019-10-04T17:52:39.000Z</Time>
            <Position>
              <LatitudeDegrees>42.650110311806201934814453125</LatitudeDegrees>
              <LongitudeDegrees>-5.595076270401477813720703125</LongitudeDegrees>
            </Position>
            <AltitudeMeters>913.4000244140625</AltitudeMeters>
            <DistanceMeters>NAN</DistanceMeters>
          </Trackpoint>
          <Trackpoint>
            <Time>2019-10-04T17:52:43.000Z</Time>
            <Position>
              <LatitudeDegrees>42.64976154081523418426513671875</LatitudeDegrees>
              <LongitudeDegrees>-5.59496101923286914825439453125</LongitudeDegrees>
            </Position>
            <AltitudeMeters>912.79998779296875</AltitudeMeters>
            <DistanceMeters>NAN</DistanceMeters>
          </Trackpoint>
          <Trackpoint>
            <Time>2019-10-04T17:52:46.000Z</Time>
            <Position>
              <LatitudeDegrees>42.6495059765875339508056640625</LatitudeDegrees>
              <LongitudeDegrees>-5.59487971477210521697998046875</LongitudeDegrees>
            </Position>
            <AltitudeMeters>912</AltitudeMeters>
            <DistanceMeters>NAN</DistanceMeters>
          </Trackpoint>
          <Trackpoint>
            <Time>2019-10-04T17:52:47.000Z</Time>
            <Position>
              <LatitudeDegrees>42.649422995746135711669921875</LatitudeDegrees>
              <LongitudeDegrees>-5.5948514677584171295166015625</LongitudeDegrees>
            </Position>
            <AltitudeMeters>911.79998779296875</AltitudeMeters>
            <DistanceMeters>NAN</DistanceMeters>
          </Trackpoint>
          <Trackpoint>
            <Time>2019-10-04T17:52:49.000Z</Time>
            <Position>
              <LatitudeDegrees>42.64925946481525897979736328125</LatitudeDegrees>
              <LongitudeDegrees>-5.59479354880750179290771484375</LongitudeDegrees>
            </Position>
            <AltitudeMeters>912.20001220703125</AltitudeMeters>
            <DistanceMeters>NAN</DistanceMeters>
          </Trackpoint>
          <Trackpoint>
            <Time>2019-10-04T17:52:52.000Z</Time>
            <Position>
              <LatitudeDegrees>42.649015299975872039794921875</LatitudeDegrees>
              <LongitudeDegrees>-5.59471308253705501556396484375</LongitudeDegrees>
            </Position>
            <AltitudeMeters>912</AltitudeMeters>
            <DistanceMeters>NAN</DistanceMeters>
          </Trackpoint>
          <Trackpoint>
            <Time>2019-10-04T17:52:54.000Z</Time>
            <Position>
              <LatitudeDegrees>42.64885562472045421600341796875</LatitudeDegrees>
              <LongitudeDegrees>-5.5946563370525836944580078125</LongitudeDegrees>
            </Position>
            <AltitudeMeters>912</AltitudeMeters>
            <DistanceMeters>NAN</DistanceMeters>
          </Trackpoint>
          <Trackpoint>
            <Time>2019-10-04T17:52:55.000Z</Time>
            <Position>
              <LatitudeDegrees>42.64877549372613430023193359375</LatitudeDegrees>
              <LongitudeDegrees>-5.594629347324371337890625</LongitudeDegrees>
            </Position>
            <AltitudeMeters>912.20001220703125</AltitudeMeters>
            <DistanceMeters>NAN</DistanceMeters>
          </Trackpoint>
          <Trackpoint>
            <Time>2019-10-04T17:52:57.000Z</Time>
            <Position>
              <LatitudeDegrees>42.64861531555652618408203125</LatitudeDegrees>
              <LongitudeDegrees>-5.59457578696310520172119140625</LongitudeDegrees>
            </Position>
            <AltitudeMeters>912.20001220703125</AltitudeMeters>
            <DistanceMeters>NAN</DistanceMeters>
          </Trackpoint>
          <Trackpoint>
            <Time>2019-10-04T17:53:00.000Z</Time>
            <Position>
              <LatitudeDegrees>42.64837659895420074462890625</LatitudeDegrees>
              <LongitudeDegrees>-5.594495572149753570556640625</LongitudeDegrees>
            </Position>
            <AltitudeMeters>911.4000244140625</AltitudeMeters>
            <DistanceMeters>NAN</DistanceMeters>
          </Trackpoint>
          <Trackpoint>
            <Time>2019-10-04T17:53:05.000Z</Time>
            <Position>
              <LatitudeDegrees>42.6479937136173248291015625</LatitudeDegrees>
              <LongitudeDegrees>-5.5943700112402439117431640625</LongitudeDegrees>
            </Position>
            <AltitudeMeters>910.79998779296875</AltitudeMeters>
            <DistanceMeters>NAN</DistanceMeters>
          </Trackpoint>
          <Trackpoint>
            <Time>2019-10-04T17:53:07.000Z</Time>
            <Position>
              <LatitudeDegrees>42.64784728176891803741455078125</LatitudeDegrees>
              <LongitudeDegrees>-5.59432315640151500701904296875</LongitudeDegrees>
            </Position>
            <AltitudeMeters>910.5999755859375</AltitudeMeters>
            <DistanceMeters>NAN</DistanceMeters>
          </Trackpoint>
          <Trackpoint>
            <Time>2019-10-04T17:53:08.000Z</Time>
            <Position>
              <LatitudeDegrees>42.64777570031583309173583984375</LatitudeDegrees>
              <LongitudeDegrees>-5.59429851360619068145751953125</LongitudeDegrees>
            </Position>
            <AltitudeMeters>911</AltitudeMeters>
            <DistanceMeters>NAN</DistanceMeters>
          </Trackpoint>
          <Trackpoint>
            <Time>2019-10-04T17:53:09.000Z</Time>
            <Position>
              <LatitudeDegrees>42.6477052085101604461669921875</LatitudeDegrees>
              <LongitudeDegrees>-5.5942739546298980712890625</LongitudeDegrees>
            </Position>
            <AltitudeMeters>910.79998779296875</AltitudeMeters>
            <DistanceMeters>NAN</DistanceMeters>
          </Trackpoint>
          <Trackpoint>
            <Time>2019-10-04T17:53:11.000Z</Time>
            <Position>
              <LatitudeDegrees>42.64756514690816402435302734375</LatitudeDegrees>
              <LongitudeDegrees>-5.5942291952669620513916015625</LongitudeDegrees>
            </Position>
            <AltitudeMeters>911</AltitudeMeters>
            <DistanceMeters>NAN</DistanceMeters>
          </Trackpoint>
          <Trackpoint>
            <Time>2019-10-04T17:53:14.000Z</Time>
            <Position>
              <LatitudeDegrees>42.64735794626176357269287109375</LatitudeDegrees>
              <LongitudeDegrees>-5.59416197240352630615234375</LongitudeDegrees>
            </Position>
            <AltitudeMeters>911</AltitudeMeters>
            <DistanceMeters>NAN</DistanceMeters>
          </Trackpoint>
          <Trackpoint>
            <Time>2019-10-04T17:53:18.000Z</Time>
            <Position>
              <LatitudeDegrees>42.64709576033055782318115234375</LatitudeDegrees>
              <LongitudeDegrees>-5.5940753035247325897216796875</LongitudeDegrees>
            </Position>
            <AltitudeMeters>911.20001220703125</AltitudeMeters>
            <DistanceMeters>NAN</DistanceMeters>
          </Trackpoint>
          <Trackpoint>
            <Time>2019-10-04T17:53:27.000Z</Time>
            <Position>
              <LatitudeDegrees>42.64654624275863170623779296875</LatitudeDegrees>
              <LongitudeDegrees>-5.59389232657849788665771484375</LongitudeDegrees>
            </Position>
            <AltitudeMeters>912.20001220703125</AltitudeMeters>
            <DistanceMeters>NAN</DistanceMeters>
          </Trackpoint>
          <Trackpoint>
            <Time>2019-10-04T17:53:30.000Z</Time>
            <Position>
              <LatitudeDegrees>42.64637927524745464324951171875</LatitudeDegrees>
              <LongitudeDegrees>-5.5938339047133922576904296875</LongitudeDegrees>
            </Position>
            <AltitudeMeters>912.79998779296875</AltitudeMeters>
            <DistanceMeters>NAN</DistanceMeters>
          </Trackpoint>
          <Trackpoint>
            <Time>2019-10-04T17:53:36.000Z</Time>
            <Position>
              <LatitudeDegrees>42.64605673961341381072998046875</LatitudeDegrees>
              <LongitudeDegrees>-5.5937272869050502777099609375</LongitudeDegrees>
            </Position>
            <AltitudeMeters>913.4000244140625</AltitudeMeters>
            <DistanceMeters>NAN</DistanceMeters>
          </Trackpoint>
          <Trackpoint>
            <Time>2019-10-04T17:53:42.000Z</Time>
            <Position>
              <LatitudeDegrees>42.6457482017576694488525390625</LatitudeDegrees>
              <LongitudeDegrees>-5.5936220102012157440185546875</LongitudeDegrees>
            </Position>
            <AltitudeMeters>913.79998779296875</AltitudeMeters>
            <DistanceMeters>NAN</DistanceMeters>
          </Trackpoint>
          <Trackpoint>
            <Time>2019-10-04T17:53:43.000Z</Time>
            <Position>
              <LatitudeDegrees>42.64569866470992565155029296875</LatitudeDegrees>
              <LongitudeDegrees>-5.5936052463948726654052734375</LongitudeDegrees>
            </Position>
            <AltitudeMeters>913.79998779296875</AltitudeMeters>
            <DistanceMeters>NAN</DistanceMeters>
          </Trackpoint>
          <Trackpoint>
            <Time>2019-10-04T17:53:46.000Z</Time>
            <Position>
              <LatitudeDegrees>42.645551897585391998291015625</LatitudeDegrees>
              <LongitudeDegrees>-5.5935512669384479522705078125</LongitudeDegrees>
            </Position>
            <AltitudeMeters>913.79998779296875</AltitudeMeters>
            <DistanceMeters>NAN</DistanceMeters>
          </Trackpoint>
          <Trackpoint>
            <Time>2019-10-04T17:53:50.000Z</Time>
            <Position>
              <LatitudeDegrees>42.64535785652697086334228515625</LatitudeDegrees>
              <LongitudeDegrees>-5.5934902466833591461181640625</LongitudeDegrees>
            </Position>
            <AltitudeMeters>914.4000244140625</AltitudeMeters>
            <DistanceMeters>NAN</DistanceMeters>
          </Trackpoint>
          <Trackpoint>
            <Time>2019-10-04T17:53:52.000Z</Time>
            <Position>
              <LatitudeDegrees>42.64526196755468845367431640625</LatitudeDegrees>
              <LongitudeDegrees>-5.59345713816583156585693359375</LongitudeDegrees>
            </Position>
            <AltitudeMeters>914.79998779296875</AltitudeMeters>
            <DistanceMeters>NAN</DistanceMeters>
          </Trackpoint>
          <Trackpoint>
            <Time>2019-10-04T17:53:54.000Z</Time>
            <Position>
              <LatitudeDegrees>42.64516599476337432861328125</LatitudeDegrees>
              <LongitudeDegrees>-5.5934325791895389556884765625</LongitudeDegrees>
            </Position>
            <AltitudeMeters>915</AltitudeMeters>
            <DistanceMeters>NAN</DistanceMeters>
          </Trackpoint>
          <Trackpoint>
            <Time>2019-10-04T17:53:59.000Z</Time>
            <Position>
              <LatitudeDegrees>42.6449411921203136444091796875</LatitudeDegrees>
              <LongitudeDegrees>-5.59335219673812389373779296875</LongitudeDegrees>
            </Position>
            <AltitudeMeters>915.79998779296875</AltitudeMeters>
            <DistanceMeters>NAN</DistanceMeters>
          </Trackpoint>
          <Trackpoint>
            <Time>2019-10-04T17:54:03.000Z</Time>
            <Position>
              <LatitudeDegrees>42.64476089738309383392333984375</LatitudeDegrees>
              <LongitudeDegrees>-5.5932922661304473876953125</LongitudeDegrees>
            </Position>
            <AltitudeMeters>916.79998779296875</AltitudeMeters>
            <DistanceMeters>NAN</DistanceMeters>
          </Trackpoint>
          <Trackpoint>
            <Time>2019-10-04T17:54:05.000Z</Time>
            <Position>
              <LatitudeDegrees>42.6446719653904438018798828125</LatitudeDegrees>
              <LongitudeDegrees>-5.5932552181184291839599609375</LongitudeDegrees>
            </Position>
            <AltitudeMeters>916.79998779296875</AltitudeMeters>
            <DistanceMeters>NAN</DistanceMeters>
          </Trackpoint>
          <Trackpoint>
            <Time>2019-10-04T17:54:09.000Z</Time>
            <Position>
              <LatitudeDegrees>42.64450524933636188507080078125</LatitudeDegrees>
              <LongitudeDegrees>-5.5931952036917209625244140625</LongitudeDegrees>
            </Position>
            <AltitudeMeters>917.4000244140625</AltitudeMeters>
            <DistanceMeters>NAN</DistanceMeters>
          </Trackpoint>
          <Trackpoint>
            <Time>2019-10-04T17:54:11.000Z</Time>
            <Position>
              <LatitudeDegrees>42.6444236934185028076171875</LatitudeDegrees>
              <LongitudeDegrees>-5.59316687285900115966796875</LongitudeDegrees>
            </Position>
            <AltitudeMeters>917.5999755859375</AltitudeMeters>
            <DistanceMeters>NAN</DistanceMeters>
          </Trackpoint>
          <Trackpoint>
            <Time>2019-10-04T17:54:12.000Z</Time>
            <Position>
              <LatitudeDegrees>42.64438186772167682647705078125</LatitudeDegrees>
              <LongitudeDegrees>-5.59315706603229045867919921875</LongitudeDegrees>
            </Position>
            <AltitudeMeters>918</AltitudeMeters>
            <DistanceMeters>NAN</DistanceMeters>
          </Trackpoint>
          <Trackpoint>
            <Time>2019-10-04T17:54:20.000Z</Time>
            <Position>
              <LatitudeDegrees>42.64405463822185993194580078125</LatitudeDegrees>
              <LongitudeDegrees>-5.59304692782461643218994140625</LongitudeDegrees>
            </Position>
            <AltitudeMeters>918.79998779296875</AltitudeMeters>
            <DistanceMeters>NAN</DistanceMeters>
          </Trackpoint>
          <Trackpoint>
            <Time>2019-10-04T17:54:21.000Z</Time>
            <Position>
              <LatitudeDegrees>42.64401440508663654327392578125</LatitudeDegrees>
              <LongitudeDegrees>-5.59303167276084423065185546875</LongitudeDegrees>
            </Position>
            <AltitudeMeters>919.20001220703125</AltitudeMeters>
            <DistanceMeters>NAN</DistanceMeters>
          </Trackpoint>
          <Trackpoint>
            <Time>2019-10-04T17:54:29.000Z</Time>
            <Position>
              <LatitudeDegrees>42.6436932943761348724365234375</LatitudeDegrees>
              <LongitudeDegrees>-5.592943914234638214111328125</LongitudeDegrees>
            </Position>
            <AltitudeMeters>919.79998779296875</AltitudeMeters>
            <DistanceMeters>NAN</DistanceMeters>
          </Trackpoint>
          <Trackpoint>
            <Time>2019-10-04T17:54:30.000Z</Time>
            <Position>
              <LatitudeDegrees>42.6436538994312286376953125</LatitudeDegrees>
              <LongitudeDegrees>-5.592933185398578643798828125</LongitudeDegrees>
            </Position>
            <AltitudeMeters>920.20001220703125</AltitudeMeters>
            <DistanceMeters>NAN</DistanceMeters>
          </Trackpoint>
          <Trackpoint>
            <Time>2019-10-04T17:54:31.000Z</Time>
            <Position>
              <LatitudeDegrees>42.64361408539116382598876953125</LatitudeDegrees>
              <LongitudeDegrees>-5.59292019344866275787353515625</LongitudeDegrees>
            </Position>
            <AltitudeMeters>920.4000244140625</AltitudeMeters>
            <DistanceMeters>NAN</DistanceMeters>
          </Trackpoint>
          <Trackpoint>
            <Time>2019-10-04T17:54:37.000Z</Time>
            <Position>
              <LatitudeDegrees>42.6433761231601238250732421875</LatitudeDegrees>
              <LongitudeDegrees>-5.59286219067871570587158203125</LongitudeDegrees>
            </Position>
            <AltitudeMeters>921.20001220703125</AltitudeMeters>
            <DistanceMeters>NAN</DistanceMeters>
          </Trackpoint>
          <Trackpoint>
            <Time>2019-10-04T17:54:41.000Z</Time>
            <Position>
              <LatitudeDegrees>42.64321695081889629364013671875</LatitudeDegrees>
              <LongitudeDegrees>-5.59283302165567874908447265625</LongitudeDegrees>
            </Position>
            <AltitudeMeters>921.4000244140625</AltitudeMeters>
            <DistanceMeters>NAN</DistanceMeters>
          </Trackpoint>
          <Trackpoint>
            <Time>2019-10-04T17:54:42.000Z</Time>
            <Position>
              <LatitudeDegrees>42.6431759633123874664306640625</LatitudeDegrees>
              <LongitudeDegrees>-5.59282447211444377899169921875</LongitudeDegrees>
            </Position>
            <AltitudeMeters>921.4000244140625</AltitudeMeters>
            <DistanceMeters>NAN</DistanceMeters>
          </Trackpoint>
          <Trackpoint>
            <Time>2019-10-04T17:54:48.000Z</Time>
            <Position>
              <LatitudeDegrees>42.64294034801423549652099609375</LatitudeDegrees>
              <LongitudeDegrees>-5.5927665531635284423828125</LongitudeDegrees>
            </Position>
            <AltitudeMeters>922.5999755859375</AltitudeMeters>
            <DistanceMeters>NAN</DistanceMeters>
          </Trackpoint>
          <Trackpoint>
            <Time>2019-10-04T17:54:52.000Z</Time>
            <Position>
              <LatitudeDegrees>42.64278821647167205810546875</LatitudeDegrees>
              <LongitudeDegrees>-5.5927424132823944091796875</LongitudeDegrees>
            </Position>
            <AltitudeMeters>923.20001220703125</AltitudeMeters>
            <DistanceMeters>NAN</DistanceMeters>
          </Trackpoint>
          <Trackpoint>
            <Time>2019-10-04T17:54:55.000Z</Time>
            <Position>
              <LatitudeDegrees>42.6426814310252666473388671875</LatitudeDegrees>
              <LongitudeDegrees>-5.59272489510476589202880859375</LongitudeDegrees>
            </Position>
            <AltitudeMeters>923.5999755859375</AltitudeMeters>
            <DistanceMeters>NAN</DistanceMeters>
          </Trackpoint>
          <Trackpoint>
            <Time>2019-10-04T17:55:03.000Z</Time>
            <Position>
              <LatitudeDegrees>42.64242016710340976715087890625</LatitudeDegrees>
              <LongitudeDegrees>-5.59266664087772369384765625</LongitudeDegrees>
            </Position>
            <AltitudeMeters>924.79998779296875</AltitudeMeters>
            <DistanceMeters>NAN</DistanceMeters>
          </Trackpoint>
          <Trackpoint>
            <Time>2019-10-04T17:55:08.000Z</Time>
            <Position>
              <LatitudeDegrees>42.64226476661860942840576171875</LatitudeDegrees>
              <LongitudeDegrees>-5.59263504110276699066162109375</LongitudeDegrees>
            </Position>
            <AltitudeMeters>926</AltitudeMeters>
            <DistanceMeters>NAN</DistanceMeters>
          </Trackpoint>
          <Trackpoint>
            <Time>2019-10-04T17:55:11.000Z</Time>
            <Position>
              <LatitudeDegrees>42.64217373915016651153564453125</LatitudeDegrees>
              <LongitudeDegrees>-5.59262062422931194305419921875</LongitudeDegrees>
            </Position>
            <AltitudeMeters>926.20001220703125</AltitudeMeters>
            <DistanceMeters>NAN</DistanceMeters>
          </Trackpoint>
          <Trackpoint>
            <Time>2019-10-04T17:55:16.000Z</Time>
            <Position>
              <LatitudeDegrees>42.64202152378857135772705078125</LatitudeDegrees>
              <LongitudeDegrees>-5.59258751571178436279296875</LongitudeDegrees>
            </Position>
            <AltitudeMeters>927</AltitudeMeters>
            <DistanceMeters>NAN</DistanceMeters>
          </Trackpoint>
          <Trackpoint>
            <Time>2019-10-04T17:55:22.000Z</Time>
            <Position>
              <LatitudeDegrees>42.64183829538524150848388671875</LatitudeDegrees>
              <LongitudeDegrees>-5.59255071915686130523681640625</LongitudeDegrees>
            </Position>
            <AltitudeMeters>927.5999755859375</AltitudeMeters>
            <DistanceMeters>NAN</DistanceMeters>
          </Trackpoint>
          <Trackpoint>
            <Time>2019-10-04T17:55:26.000Z</Time>
            <Position>
              <LatitudeDegrees>42.6417148299515247344970703125</LatitudeDegrees>
              <LongitudeDegrees>-5.5925296805799007415771484375</LongitudeDegrees>
            </Position>
            <AltitudeMeters>928</AltitudeMeters>
            <DistanceMeters>NAN</DistanceMeters>
          </Trackpoint>
          <Trackpoint>
            <Time>2019-10-04T17:55:31.000Z</Time>
            <Position>
              <LatitudeDegrees>42.6415617763996124267578125</LatitudeDegrees>
              <LongitudeDegrees>-5.59249875135719776153564453125</LongitudeDegrees>
            </Position>
            <AltitudeMeters>929</AltitudeMeters>
            <DistanceMeters>NAN</DistanceMeters>
          </Trackpoint>
          <Trackpoint>
            <Time>2019-10-04T17:55:35.000Z</Time>
            <Position>
              <LatitudeDegrees>42.64144116081297397613525390625</LatitudeDegrees>
              <LongitudeDegrees>-5.59247528202831745147705078125</LongitudeDegrees>
            </Position>
            <AltitudeMeters>929.4000244140625</AltitudeMeters>
            <DistanceMeters>NAN</DistanceMeters>
          </Trackpoint>
          <Trackpoint>
            <Time>2019-10-04T17:55:42.000Z</Time>
            <Position>
              <LatitudeDegrees>42.64122306369245052337646484375</LatitudeDegrees>
              <LongitudeDegrees>-5.592437647283077239990234375</LongitudeDegrees>
            </Position>
            <AltitudeMeters>930</AltitudeMeters>
            <DistanceMeters>NAN</DistanceMeters>
          </Trackpoint>
          <Trackpoint>
            <Time>2019-10-04T17:55:46.000Z</Time>
            <Position>
              <LatitudeDegrees>42.64109934680163860321044921875</LatitudeDegrees>
              <LongitudeDegrees>-5.5924165248870849609375</LongitudeDegrees>
            </Position>
            <AltitudeMeters>930.5999755859375</AltitudeMeters>
            <DistanceMeters>NAN</DistanceMeters>
          </Trackpoint>
          <Trackpoint>
            <Time>2019-10-04T17:55:50.000Z</Time>
            <Position>
              <LatitudeDegrees>42.640982083976268768310546875</LatitudeDegrees>
              <LongitudeDegrees>-5.59239305555820465087890625</LongitudeDegrees>
            </Position>
            <AltitudeMeters>931.20001220703125</AltitudeMeters>
            <DistanceMeters>NAN</DistanceMeters>
          </Trackpoint>
          <Trackpoint>
            <Time>2019-10-04T17:55:57.000Z</Time>
            <Position>
              <LatitudeDegrees>42.6407723687589168548583984375</LatitudeDegrees>
              <LongitudeDegrees>-5.59235709719359874725341796875</LongitudeDegrees>
            </Position>
            <AltitudeMeters>932.20001220703125</AltitudeMeters>
            <DistanceMeters>NAN</DistanceMeters>
          </Trackpoint>
          <Trackpoint>
            <Time>2019-10-04T17:55:58.000Z</Time>
            <Position>
              <LatitudeDegrees>42.640742026269435882568359375</LatitudeDegrees>
              <LongitudeDegrees>-5.5923533253371715545654296875</LongitudeDegrees>
            </Position>
            <AltitudeMeters>932.20001220703125</AltitudeMeters>
            <DistanceMeters>NAN</DistanceMeters>
          </Trackpoint>
          <Trackpoint>
            <Time>2019-10-04T17:56:05.000Z</Time>
            <Position>
              <LatitudeDegrees>42.640530131757259368896484375</LatitudeDegrees>
              <LongitudeDegrees>-5.592315606772899627685546875</LongitudeDegrees>
            </Position>
            <AltitudeMeters>933.4000244140625</AltitudeMeters>
            <DistanceMeters>NAN</DistanceMeters>
          </Trackpoint>
          <Trackpoint>
            <Time>2019-10-04T17:56:07.000Z</Time>
            <Position>
              <LatitudeDegrees>42.64046651311218738555908203125</LatitudeDegrees>
              <LongitudeDegrees>-5.59230378828942775726318359375</LongitudeDegrees>
            </Position>
            <AltitudeMeters>933.5999755859375</AltitudeMeters>
            <DistanceMeters>NAN</DistanceMeters>
          </Trackpoint>
          <Trackpoint>
            <Time>2019-10-04T17:56:12.000Z</Time>
            <Position>
              <LatitudeDegrees>42.64032066799700260162353515625</LatitudeDegrees>
              <LongitudeDegrees>-5.59227830730378627777099609375</LongitudeDegrees>
            </Position>
            <AltitudeMeters>934.4000244140625</AltitudeMeters>
            <DistanceMeters>NAN</DistanceMeters>
          </Trackpoint>
          <Trackpoint>
            <Time>2019-10-04T17:56:17.000Z</Time>
            <Position>
              <LatitudeDegrees>42.640168368816375732421875</LatitudeDegrees>
              <LongitudeDegrees>-5.59227101504802703857421875</LongitudeDegrees>
            </Position>
            <AltitudeMeters>934.5999755859375</AltitudeMeters>
            <DistanceMeters>NAN</DistanceMeters>
          </Trackpoint>
          <Trackpoint>
            <Time>2019-10-04T17:56:22.000Z</Time>
            <Position>
              <LatitudeDegrees>42.64001321978867053985595703125</LatitudeDegrees>
              <LongitudeDegrees>-5.5922691710293292999267578125</LongitudeDegrees>
            </Position>
            <AltitudeMeters>935.5999755859375</AltitudeMeters>
            <DistanceMeters>NAN</DistanceMeters>
          </Trackpoint>
          <Trackpoint>
            <Time>2019-10-04T17:56:25.000Z</Time>
            <Position>
              <LatitudeDegrees>42.639922611415386199951171875</LatitudeDegrees>
              <LongitudeDegrees>-5.59225785546004772186279296875</LongitudeDegrees>
            </Position>
            <AltitudeMeters>936</AltitudeMeters>
            <DistanceMeters>NAN</DistanceMeters>
          </Trackpoint>
          <Trackpoint>
            <Time>2019-10-04T17:56:30.000Z</Time>
            <Position>
              <LatitudeDegrees>42.63976628892123699188232421875</LatitudeDegrees>
              <LongitudeDegrees>-5.59221175499260425567626953125</LongitudeDegrees>
            </Position>
            <AltitudeMeters>937</AltitudeMeters>
            <DistanceMeters>NAN</DistanceMeters>
          </Trackpoint>
          <Trackpoint>
            <Time>2019-10-04T17:56:34.000Z</Time>
            <Position>
              <LatitudeDegrees>42.63964290730655193328857421875</LatitudeDegrees>
              <LongitudeDegrees>-5.59217504225671291351318359375</LongitudeDegrees>
            </Position>
            <AltitudeMeters>937.4000244140625</AltitudeMeters>
            <DistanceMeters>NAN</DistanceMeters>
          </Trackpoint>
          <Trackpoint>
            <Time>2019-10-04T17:56:40.000Z</Time>
            <Position>
              <LatitudeDegrees>42.639457248151302337646484375</LatitudeDegrees>
              <LongitudeDegrees>-5.5921174585819244384765625</LongitudeDegrees>
            </Position>
            <AltitudeMeters>938.4000244140625</AltitudeMeters>
            <DistanceMeters>NAN</DistanceMeters>
          </Trackpoint>
          <Trackpoint>
            <Time>2019-10-04T17:56:44.000Z</Time>
            <Position>
              <LatitudeDegrees>42.63933445326983928680419921875</LatitudeDegrees>
              <LongitudeDegrees>-5.5920716933906078338623046875</LongitudeDegrees>
            </Position>
            <AltitudeMeters>938.5999755859375</AltitudeMeters>
            <DistanceMeters>NAN</DistanceMeters>
          </Trackpoint>
          <Trackpoint>
            <Time>2019-10-04T17:56:48.000Z</Time>
            <Position>
              <LatitudeDegrees>42.63921442441642284393310546875</LatitudeDegrees>
              <LongitudeDegrees>-5.59201662428677082061767578125</LongitudeDegrees>
            </Position>
            <AltitudeMeters>939.5999755859375</AltitudeMeters>
            <DistanceMeters>NAN</DistanceMeters>
          </Trackpoint>
          <Trackpoint>
            <Time>2019-10-04T17:56:55.000Z</Time>
            <Position>
              <LatitudeDegrees>42.63900504447519779205322265625</LatitudeDegrees>
              <LongitudeDegrees>-5.59192056767642498016357421875</LongitudeDegrees>
            </Position>
            <AltitudeMeters>940.20001220703125</AltitudeMeters>
            <DistanceMeters>NAN</DistanceMeters>
          </Trackpoint>
          <Trackpoint>
            <Time>2019-10-04T17:56:56.000Z</Time>
            <Position>
              <LatitudeDegrees>42.6389752887189388275146484375</LatitudeDegrees>
              <LongitudeDegrees>-5.59190447442233562469482421875</LongitudeDegrees>
            </Position>
            <AltitudeMeters>940.5999755859375</AltitudeMeters>
            <DistanceMeters>NAN</DistanceMeters>
          </Trackpoint>
          <Trackpoint>
            <Time>2019-10-04T17:57:03.000Z</Time>
            <Position>
              <LatitudeDegrees>42.6387774758040904998779296875</LatitudeDegrees>
              <LongitudeDegrees>-5.59177958406507968902587890625</LongitudeDegrees>
            </Position>
            <AltitudeMeters>941.79998779296875</AltitudeMeters>
            <DistanceMeters>NAN</DistanceMeters>
          </Trackpoint>
          <Trackpoint>
            <Time>2019-10-04T17:57:04.000Z</Time>
            <Position>
              <LatitudeDegrees>42.63874922879040241241455078125</LatitudeDegrees>
              <LongitudeDegrees>-5.59176147915422916412353515625</LongitudeDegrees>
            </Position>
            <AltitudeMeters>941.5999755859375</AltitudeMeters>
            <DistanceMeters>NAN</DistanceMeters>
          </Trackpoint>
          <Trackpoint>
            <Time>2019-10-04T17:57:11.000Z</Time>
            <Position>
              <LatitudeDegrees>42.63855577446520328521728515625</LatitudeDegrees>
              <LongitudeDegrees>-5.591624937951564788818359375</LongitudeDegrees>
            </Position>
            <AltitudeMeters>942.79998779296875</AltitudeMeters>
            <DistanceMeters>NAN</DistanceMeters>
          </Trackpoint>
          <Trackpoint>
            <Time>2019-10-04T17:57:16.000Z</Time>
            <Position>
              <LatitudeDegrees>42.63841596432030200958251953125</LatitudeDegrees>
              <LongitudeDegrees>-5.59152343310415744781494140625</LongitudeDegrees>
            </Position>
            <AltitudeMeters>943.20001220703125</AltitudeMeters>
            <DistanceMeters>NAN</DistanceMeters>
          </Trackpoint>
          <Trackpoint>
            <Time>2019-10-04T17:57:19.000Z</Time>
            <Position>
              <LatitudeDegrees>42.63833248056471347808837890625</LatitudeDegrees>
              <LongitudeDegrees>-5.5914554558694362640380859375</LongitudeDegrees>
            </Position>
            <AltitudeMeters>944</AltitudeMeters>
            <DistanceMeters>NAN</DistanceMeters>
          </Trackpoint>
          <Trackpoint>
            <Time>2019-10-04T17:57:26.000Z</Time>
            <Position>
              <LatitudeDegrees>42.6381283812224864959716796875</LatitudeDegrees>
              <LongitudeDegrees>-5.59129376895725727081298828125</LongitudeDegrees>
            </Position>
            <AltitudeMeters>944.20001220703125</AltitudeMeters>
            <DistanceMeters>NAN</DistanceMeters>
          </Trackpoint>
          <Trackpoint>
            <Time>2019-10-04T17:57:36.000Z</Time>
            <Position>
              <LatitudeDegrees>42.63783124275505542755126953125</LatitudeDegrees>
              <LongitudeDegrees>-5.59104122221469879150390625</LongitudeDegrees>
            </Position>
            <AltitudeMeters>944.79998779296875</AltitudeMeters>
            <DistanceMeters>NAN</DistanceMeters>
          </Trackpoint>
          <Trackpoint>
            <Time>2019-10-04T17:57:37.000Z</Time>
            <Position>
              <LatitudeDegrees>42.63780198991298675537109375</LatitudeDegrees>
              <LongitudeDegrees>-5.59101465158164501190185546875</LongitudeDegrees>
            </Position>
            <AltitudeMeters>945</AltitudeMeters>
            <DistanceMeters>NAN</DistanceMeters>
          </Trackpoint>
          <Trackpoint>
            <Time>2019-10-04T17:57:47.000Z</Time>
            <Position>
              <LatitudeDegrees>42.6374940387904644012451171875</LatitudeDegrees>
              <LongitudeDegrees>-5.59073419310152530670166015625</LongitudeDegrees>
            </Position>
            <AltitudeMeters>945</AltitudeMeters>
            <DistanceMeters>NAN</DistanceMeters>
          </Trackpoint>
          <Trackpoint>
            <Time>2019-10-04T17:57:56.000Z</Time>
            <Position>
              <LatitudeDegrees>42.6371533982455730438232421875</LatitudeDegrees>
              <LongitudeDegrees>-5.59043043293058872222900390625</LongitudeDegrees>
            </Position>
            <AltitudeMeters>944.79998779296875</AltitudeMeters>
            <DistanceMeters>NAN</DistanceMeters>
          </Trackpoint>
          <Trackpoint>
            <Time>2019-10-04T17:58:05.000Z</Time>
            <Position>
              <LatitudeDegrees>42.6368221454322338104248046875</LatitudeDegrees>
              <LongitudeDegrees>-5.59014645405113697052001953125</LongitudeDegrees>
            </Position>
            <AltitudeMeters>944.5999755859375</AltitudeMeters>
            <DistanceMeters>NAN</DistanceMeters>
          </Trackpoint>
          <Trackpoint>
            <Time>2019-10-04T17:58:12.000Z</Time>
            <Position>
              <LatitudeDegrees>42.63653925620019435882568359375</LatitudeDegrees>
              <LongitudeDegrees>-5.58988988399505615234375</LongitudeDegrees>
            </Position>
            <AltitudeMeters>944</AltitudeMeters>
            <DistanceMeters>NAN</DistanceMeters>
          </Trackpoint>
          <Trackpoint>
            <Time>2019-10-04T17:58:19.000Z</Time>
            <Position>
              <LatitudeDegrees>42.636213786900043487548828125</LatitudeDegrees>
              <LongitudeDegrees>-5.58962543494999408721923828125</LongitudeDegrees>
            </Position>
            <AltitudeMeters>943.20001220703125</AltitudeMeters>
            <DistanceMeters>NAN</DistanceMeters>
          </Trackpoint>
          <Trackpoint>
            <Time>2019-10-04T17:58:21.000Z</Time>
            <Position>
              <LatitudeDegrees>42.63611043803393840789794921875</LatitudeDegrees>
              <LongitudeDegrees>-5.58955150656402111053466796875</LongitudeDegrees>
            </Position>
            <AltitudeMeters>943.20001220703125</AltitudeMeters>
            <DistanceMeters>NAN</DistanceMeters>
          </Trackpoint>
          <Trackpoint>
            <Time>2019-10-04T17:58:22.000Z</Time>
            <Position>
              <LatitudeDegrees>42.63605779968202114105224609375</LatitudeDegrees>
              <LongitudeDegrees>-5.58951445855200290679931640625</LongitudeDegrees>
            </Position>
            <AltitudeMeters>942.79998779296875</AltitudeMeters>
            <DistanceMeters>NAN</DistanceMeters>
          </Trackpoint>
          <Trackpoint>
            <Time>2019-10-04T17:58:28.000Z</Time>
            <Position>
              <LatitudeDegrees>42.6357308216392993927001953125</LatitudeDegrees>
              <LongitudeDegrees>-5.589300133287906646728515625</LongitudeDegrees>
            </Position>
            <AltitudeMeters>942.20001220703125</AltitudeMeters>
            <DistanceMeters>NAN</DistanceMeters>
          </Trackpoint>
          <Trackpoint>
            <Time>2019-10-04T17:58:31.000Z</Time>
            <Position>
              <LatitudeDegrees>42.63555656187236309051513671875</LatitudeDegrees>
              <LongitudeDegrees>-5.58922410942614078521728515625</LongitudeDegrees>
            </Position>
            <AltitudeMeters>942</AltitudeMeters>
            <DistanceMeters>NAN</DistanceMeters>
          </Trackpoint>
          <Trackpoint>
            <Time>2019-10-04T17:58:35.000Z</Time>
            <Position>
              <LatitudeDegrees>42.63531466014683246612548828125</LatitudeDegrees>
              <LongitudeDegrees>-5.58913609944283962249755859375</LongitudeDegrees>
            </Position>
            <AltitudeMeters>941.5999755859375</AltitudeMeters>
            <DistanceMeters>NAN</DistanceMeters>
          </Trackpoint>
          <Trackpoint>
            <Time>2019-10-04T17:58:40.000Z</Time>
            <Position>
              <LatitudeDegrees>42.635003440082073211669921875</LatitudeDegrees>
              <LongitudeDegrees>-5.5890525318682193756103515625</LongitudeDegrees>
            </Position>
            <AltitudeMeters>942</AltitudeMeters>
            <DistanceMeters>NAN</DistanceMeters>
          </Trackpoint>
          <Trackpoint>
            <Time>2019-10-04T17:58:48.000Z</Time>
            <Position>
              <LatitudeDegrees>42.6344775594770908355712890625</LatitudeDegrees>
              <LongitudeDegrees>-5.58893795125186443328857421875</LongitudeDegrees>
            </Position>
            <AltitudeMeters>941.5999755859375</AltitudeMeters>
            <DistanceMeters>NAN</DistanceMeters>
          </Trackpoint>
          <Trackpoint>
            <Time>2019-10-04T17:58:50.000Z</Time>
            <Position>
              <LatitudeDegrees>42.63434068299829959869384765625</LatitudeDegrees>
              <LongitudeDegrees>-5.5889056809246540069580078125</LongitudeDegrees>
            </Position>
            <AltitudeMeters>940.5999755859375</AltitudeMeters>
            <DistanceMeters>NAN</DistanceMeters>
          </Trackpoint>
          <Trackpoint>
            <Time>2019-10-04T17:58:57.000Z</Time>
            <Position>
              <LatitudeDegrees>42.63384330086410045623779296875</LatitudeDegrees>
              <LongitudeDegrees>-5.58878473006188869476318359375</LongitudeDegrees>
            </Position>
            <AltitudeMeters>939.4000244140625</AltitudeMeters>
            <DistanceMeters>NAN</DistanceMeters>
          </Trackpoint>
          <Trackpoint>
            <Time>2019-10-04T17:58:59.000Z</Time>
            <Position>
              <LatitudeDegrees>42.63369795866310596466064453125</LatitudeDegrees>
              <LongitudeDegrees>-5.588751621544361114501953125</LongitudeDegrees>
            </Position>
            <AltitudeMeters>939.20001220703125</AltitudeMeters>
            <DistanceMeters>NAN</DistanceMeters>
          </Trackpoint>
          <Trackpoint>
            <Time>2019-10-04T17:59:05.000Z</Time>
            <Position>
              <LatitudeDegrees>42.63325505889952182769775390625</LatitudeDegrees>
              <LongitudeDegrees>-5.5886466801166534423828125</LongitudeDegrees>
            </Position>
            <AltitudeMeters>938.20001220703125</AltitudeMeters>
            <DistanceMeters>NAN</DistanceMeters>
          </Trackpoint>
          <Trackpoint>
            <Time>2019-10-04T17:59:08.000Z</Time>
            <Position>
              <LatitudeDegrees>42.63302707113325595855712890625</LatitudeDegrees>
              <LongitudeDegrees>-5.5885885097086429595947265625</LongitudeDegrees>
            </Position>
            <AltitudeMeters>937.20001220703125</AltitudeMeters>
            <DistanceMeters>NAN</DistanceMeters>
          </Trackpoint>
          <Trackpoint>
            <Time>2019-10-04T17:59:12.000Z</Time>
            <Position>
              <LatitudeDegrees>42.63272163458168506622314453125</LatitudeDegrees>
              <LongitudeDegrees>-5.58851432986557483673095703125</LongitudeDegrees>
            </Position>
            <AltitudeMeters>936</AltitudeMeters>
            <DistanceMeters>NAN</DistanceMeters>
          </Trackpoint>
          <Trackpoint>
            <Time>2019-10-04T17:59:15.000Z</Time>
            <Position>
              <LatitudeDegrees>42.632486857473850250244140625</LatitudeDegrees>
              <LongitudeDegrees>-5.5884577520191669464111328125</LongitudeDegrees>
            </Position>
            <AltitudeMeters>936</AltitudeMeters>
            <DistanceMeters>NAN</DistanceMeters>
          </Trackpoint>
          <Trackpoint>
            <Time>2019-10-04T17:59:16.000Z</Time>
            <Position>
              <LatitudeDegrees>42.63240806758403778076171875</LatitudeDegrees>
              <LongitudeDegrees>-5.58843855746090412139892578125</LongitudeDegrees>
            </Position>
            <AltitudeMeters>935.79998779296875</AltitudeMeters>
            <DistanceMeters>NAN</DistanceMeters>
          </Trackpoint>
          <Trackpoint>
            <Time>2019-10-04T17:59:19.000Z</Time>
            <Position>
              <LatitudeDegrees>42.63217496685683727264404296875</LatitudeDegrees>
              <LongitudeDegrees>-5.58837778866291046142578125</LongitudeDegrees>
            </Position>
            <AltitudeMeters>934.79998779296875</AltitudeMeters>
            <DistanceMeters>NAN</DistanceMeters>
          </Trackpoint>
          <Trackpoint>
            <Time>2019-10-04T17:59:24.000Z</Time>
            <Position>
              <LatitudeDegrees>42.6317889802157878875732421875</LatitudeDegrees>
              <LongitudeDegrees>-5.58827661909162998199462890625</LongitudeDegrees>
            </Position>
            <AltitudeMeters>934.5999755859375</AltitudeMeters>
            <DistanceMeters>NAN</DistanceMeters>
          </Trackpoint>
          <Trackpoint>
            <Time>2019-10-04T17:59:26.000Z</Time>
            <Position>
              <LatitudeDegrees>42.63163617812097072601318359375</LatitudeDegrees>
              <LongitudeDegrees>-5.5882389843463897705078125</LongitudeDegrees>
            </Position>
            <AltitudeMeters>934.4000244140625</AltitudeMeters>
            <DistanceMeters>NAN</DistanceMeters>
          </Trackpoint>
          <Trackpoint>
            <Time>2019-10-04T17:59:34.000Z</Time>
            <Position>
              <LatitudeDegrees>42.631053887307643890380859375</LatitudeDegrees>
              <LongitudeDegrees>-5.58808886446058750152587890625</LongitudeDegrees>
            </Position>
            <AltitudeMeters>934.20001220703125</AltitudeMeters>
            <DistanceMeters>NAN</DistanceMeters>
          </Trackpoint>
          <Trackpoint>
            <Time>2019-10-04T17:59:36.000Z</Time>
            <Position>
              <LatitudeDegrees>42.6309142448008060455322265625</LatitudeDegrees>
              <LongitudeDegrees>-5.58805114589631557464599609375</LongitudeDegrees>
            </Position>
            <AltitudeMeters>934.79998779296875</AltitudeMeters>
            <DistanceMeters>NAN</DistanceMeters>
          </Trackpoint>
          <Trackpoint>
            <Time>2019-10-04T17:59:44.000Z</Time>
            <Position>
              <LatitudeDegrees>42.6303811557590961456298828125</LatitudeDegrees>
              <LongitudeDegrees>-5.58790504932403564453125</LongitudeDegrees>
            </Position>
            <AltitudeMeters>934.4000244140625</AltitudeMeters>
            <DistanceMeters>NAN</DistanceMeters>
          </Trackpoint>
          <Trackpoint>
            <Time>2019-10-04T17:59:47.000Z</Time>
            <Position>
              <LatitudeDegrees>42.6301843486726284027099609375</LatitudeDegrees>
              <LongitudeDegrees>-5.58785484172403812408447265625</LongitudeDegrees>
            </Position>
            <AltitudeMeters>934.5999755859375</AltitudeMeters>
            <DistanceMeters>NAN</DistanceMeters>
          </Trackpoint>
          <Trackpoint>
            <Time>2019-10-04T17:59:55.000Z</Time>
            <Position>
              <LatitudeDegrees>42.629667855799198150634765625</LatitudeDegrees>
              <LongitudeDegrees>-5.58770455420017242431640625</LongitudeDegrees>
            </Position>
            <AltitudeMeters>934</AltitudeMeters>
            <DistanceMeters>NAN</DistanceMeters>
          </Trackpoint>
          <Trackpoint>
            <Time>2019-10-04T17:59:56.000Z</Time>
            <Position>
              <LatitudeDegrees>42.62960172258317470550537109375</LatitudeDegrees>
              <LongitudeDegrees>-5.5876876227557659149169921875</LongitudeDegrees>
            </Position>
            <AltitudeMeters>933.5999755859375</AltitudeMeters>
            <DistanceMeters>NAN</DistanceMeters>
          </Trackpoint>
          <Trackpoint>
            <Time>2019-10-04T17:59:57.000Z</Time>
            <Position>
              <LatitudeDegrees>42.62953408062458038330078125</LatitudeDegrees>
              <LongitudeDegrees>-5.587669350206851959228515625</LongitudeDegrees>
            </Position>
            <AltitudeMeters>933.5999755859375</AltitudeMeters>
            <DistanceMeters>NAN</DistanceMeters>
          </Trackpoint>
          <Trackpoint>
            <Time>2019-10-04T18:00:03.000Z</Time>
            <Position>
              <LatitudeDegrees>42.62912395410239696502685546875</LatitudeDegrees>
              <LongitudeDegrees>-5.587577484548091888427734375</LongitudeDegrees>
            </Position>
            <AltitudeMeters>932.4000244140625</AltitudeMeters>
            <DistanceMeters>NAN</DistanceMeters>
          </Trackpoint>
          <Trackpoint>
            <Time>2019-10-04T18:00:05.000Z</Time>
            <Position>
              <LatitudeDegrees>42.6289857365190982818603515625</LatitudeDegrees>
              <LongitudeDegrees>-5.587543956935405731201171875</LongitudeDegrees>
            </Position>
            <AltitudeMeters>931.4000244140625</AltitudeMeters>
            <DistanceMeters>NAN</DistanceMeters>
          </Trackpoint>
          <Trackpoint>
            <Time>2019-10-04T18:00:08.000Z</Time>
            <Position>
              <LatitudeDegrees>42.6287701539695262908935546875</LatitudeDegrees>
              <LongitudeDegrees>-5.587488301098346710205078125</LongitudeDegrees>
            </Position>
            <AltitudeMeters>930.4000244140625</AltitudeMeters>
            <DistanceMeters>NAN</DistanceMeters>
          </Trackpoint>
          <Trackpoint>
            <Time>2019-10-04T18:00:09.000Z</Time>
            <Position>
              <LatitudeDegrees>42.6286943815648555755615234375</LatitudeDegrees>
              <LongitudeDegrees>-5.587470866739749908447265625</LongitudeDegrees>
            </Position>
            <AltitudeMeters>930</AltitudeMeters>
            <DistanceMeters>NAN</DistanceMeters>
          </Trackpoint>
          <Trackpoint>
            <Time>2019-10-04T18:00:12.000Z</Time>
            <Position>
              <LatitudeDegrees>42.62845792807638645172119140625</LatitudeDegrees>
              <LongitudeDegrees>-5.5874133668839931488037109375</LongitudeDegrees>
            </Position>
            <AltitudeMeters>928.5999755859375</AltitudeMeters>
            <DistanceMeters>NAN</DistanceMeters>
          </Trackpoint>
          <Trackpoint>
            <Time>2019-10-04T18:00:13.000Z</Time>
            <Position>
              <LatitudeDegrees>42.628375031054019927978515625</LatitudeDegrees>
              <LongitudeDegrees>-5.587395094335079193115234375</LongitudeDegrees>
            </Position>
            <AltitudeMeters>928.20001220703125</AltitudeMeters>
            <DistanceMeters>NAN</DistanceMeters>
          </Trackpoint>
          <Trackpoint>
            <Time>2019-10-04T18:00:14.000Z</Time>
            <Position>
              <LatitudeDegrees>42.62828886508941650390625</LatitudeDegrees>
              <LongitudeDegrees>-5.587372295558452606201171875</LongitudeDegrees>
            </Position>
            <AltitudeMeters>927.79998779296875</AltitudeMeters>
            <DistanceMeters>NAN</DistanceMeters>
          </Trackpoint>
          <Trackpoint>
            <Time>2019-10-04T18:00:15.000Z</Time>
            <Position>
              <LatitudeDegrees>42.62820026837289333343505859375</LatitudeDegrees>
              <LongitudeDegrees>-5.58735058642923831939697265625</LongitudeDegrees>
            </Position>
            <AltitudeMeters>927</AltitudeMeters>
            <DistanceMeters>NAN</DistanceMeters>
          </Trackpoint>
          <Trackpoint>
            <Time>2019-10-04T18:00:16.000Z</Time>
            <Position>
              <LatitudeDegrees>42.62810940854251384735107421875</LatitudeDegrees>
              <LongitudeDegrees>-5.5873272009193897247314453125</LongitudeDegrees>
            </Position>
            <AltitudeMeters>925.79998779296875</AltitudeMeters>
            <DistanceMeters>NAN</DistanceMeters>
          </Trackpoint>
          <Trackpoint>
            <Time>2019-10-04T18:00:17.000Z</Time>
            <Position>
              <LatitudeDegrees>42.62801536358892917633056640625</LatitudeDegrees>
              <LongitudeDegrees>-5.58730415068566799163818359375</LongitudeDegrees>
            </Position>
            <AltitudeMeters>924.5999755859375</AltitudeMeters>
            <DistanceMeters>NAN</DistanceMeters>
          </Trackpoint>
          <Trackpoint>
            <Time>2019-10-04T18:00:19.000Z</Time>
            <Position>
              <LatitudeDegrees>42.6278196461498737335205078125</LatitudeDegrees>
              <LongitudeDegrees>-5.587260313332080841064453125</LongitudeDegrees>
            </Position>
            <AltitudeMeters>922.5999755859375</AltitudeMeters>
            <DistanceMeters>NAN</DistanceMeters>
          </Trackpoint>
          <Trackpoint>
            <Time>2019-10-04T18:00:20.000Z</Time>
            <Position>
              <LatitudeDegrees>42.62772015295922756195068359375</LatitudeDegrees>
              <LongitudeDegrees>-5.587236844003200531005859375</LongitudeDegrees>
            </Position>
            <AltitudeMeters>922.20001220703125</AltitudeMeters>
            <DistanceMeters>NAN</DistanceMeters>
          </Trackpoint>
          <Trackpoint>
            <Time>2019-10-04T18:00:21.000Z</Time>
            <Position>
              <LatitudeDegrees>42.62761990539729595184326171875</LatitudeDegrees>
              <LongitudeDegrees>-5.5872085131704807281494140625</LongitudeDegrees>
            </Position>
            <AltitudeMeters>921.4000244140625</AltitudeMeters>
            <DistanceMeters>NAN</DistanceMeters>
          </Trackpoint>
          <Trackpoint>
            <Time>2019-10-04T18:00:23.000Z</Time>
            <Position>
              <LatitudeDegrees>42.6274116151034832000732421875</LatitudeDegrees>
              <LongitudeDegrees>-5.58715914376080036163330078125</LongitudeDegrees>
            </Position>
            <AltitudeMeters>919.5999755859375</AltitudeMeters>
            <DistanceMeters>NAN</DistanceMeters>
          </Trackpoint>
          <Trackpoint>
            <Time>2019-10-04T18:00:24.000Z</Time>
            <Position>
              <LatitudeDegrees>42.6273043267428874969482421875</LatitudeDegrees>
              <LongitudeDegrees>-5.58713399805128574371337890625</LongitudeDegrees>
            </Position>
            <AltitudeMeters>918.5999755859375</AltitudeMeters>
            <DistanceMeters>NAN</DistanceMeters>
          </Trackpoint>
          <Trackpoint>
            <Time>2019-10-04T18:00:26.000Z</Time>
            <Position>
              <LatitudeDegrees>42.627086229622364044189453125</LatitudeDegrees>
              <LongitudeDegrees>-5.58707959949970245361328125</LongitudeDegrees>
            </Position>
            <AltitudeMeters>917.20001220703125</AltitudeMeters>
            <DistanceMeters>NAN</DistanceMeters>
          </Trackpoint>
          <Trackpoint>
            <Time>2019-10-04T18:00:27.000Z</Time>
            <Position>
              <LatitudeDegrees>42.626972906291484832763671875</LatitudeDegrees>
              <LongitudeDegrees>-5.58705235831439495086669921875</LongitudeDegrees>
            </Position>
            <AltitudeMeters>916.5999755859375</AltitudeMeters>
            <DistanceMeters>NAN</DistanceMeters>
          </Trackpoint>
          <Trackpoint>
            <Time>2019-10-04T18:00:28.000Z</Time>
            <Position>
              <LatitudeDegrees>42.62685648165643215179443359375</LatitudeDegrees>
              <LongitudeDegrees>-5.58702385984361171722412109375</LongitudeDegrees>
            </Position>
            <AltitudeMeters>915.5999755859375</AltitudeMeters>
            <DistanceMeters>NAN</DistanceMeters>
          </Trackpoint>
          <Trackpoint>
            <Time>2019-10-04T18:00:29.000Z</Time>
            <Position>
              <LatitudeDegrees>42.6267383806407451629638671875</LatitudeDegrees>
              <LongitudeDegrees>-5.5869959481060504913330078125</LongitudeDegrees>
            </Position>
            <AltitudeMeters>914.4000244140625</AltitudeMeters>
            <DistanceMeters>NAN</DistanceMeters>
          </Trackpoint>
          <Trackpoint>
            <Time>2019-10-04T18:00:30.000Z</Time>
            <Position>
              <LatitudeDegrees>42.6266190223395824432373046875</LatitudeDegrees>
              <LongitudeDegrees>-5.58696937747299671173095703125</LongitudeDegrees>
            </Position>
            <AltitudeMeters>913</AltitudeMeters>
            <DistanceMeters>NAN</DistanceMeters>
          </Trackpoint>
          <Trackpoint>
            <Time>2019-10-04T18:00:31.000Z</Time>
            <Position>
              <LatitudeDegrees>42.62649807147681713104248046875</LatitudeDegrees>
              <LongitudeDegrees>-5.58694305829703807830810546875</LongitudeDegrees>
            </Position>
            <AltitudeMeters>911.79998779296875</AltitudeMeters>
            <DistanceMeters>NAN</DistanceMeters>
          </Trackpoint>
          <Trackpoint>
            <Time>2019-10-04T18:00:32.000Z</Time>
            <Position>
              <LatitudeDegrees>42.62637619860470294952392578125</LatitudeDegrees>
              <LongitudeDegrees>-5.5869138054549694061279296875</LongitudeDegrees>
            </Position>
            <AltitudeMeters>910.79998779296875</AltitudeMeters>
            <DistanceMeters>NAN</DistanceMeters>
          </Trackpoint>
          <Trackpoint>
            <Time>2019-10-04T18:00:34.000Z</Time>
            <Position>
              <LatitudeDegrees>42.62613111175596714019775390625</LatitudeDegrees>
              <LongitudeDegrees>-5.58685236610472202301025390625</LongitudeDegrees>
            </Position>
            <AltitudeMeters>909.20001220703125</AltitudeMeters>
            <DistanceMeters>NAN</DistanceMeters>
          </Trackpoint>
          <Trackpoint>
            <Time>2019-10-04T18:00:36.000Z</Time>
            <Position>
              <LatitudeDegrees>42.62588359415531158447265625</LatitudeDegrees>
              <LongitudeDegrees>-5.5867867358028888702392578125</LongitudeDegrees>
            </Position>
            <AltitudeMeters>907.5999755859375</AltitudeMeters>
            <DistanceMeters>NAN</DistanceMeters>
          </Trackpoint>
          <Trackpoint>
            <Time>2019-10-04T18:00:38.000Z</Time>
            <Position>
              <LatitudeDegrees>42.62563121505081653594970703125</LatitudeDegrees>
              <LongitudeDegrees>-5.586725212633609771728515625</LongitudeDegrees>
            </Position>
            <AltitudeMeters>906.20001220703125</AltitudeMeters>
            <DistanceMeters>NAN</DistanceMeters>
          </Trackpoint>
          <Trackpoint>
            <Time>2019-10-04T18:00:40.000Z</Time>
            <Position>
              <LatitudeDegrees>42.625374980270862579345703125</LatitudeDegrees>
              <LongitudeDegrees>-5.5866645276546478271484375</LongitudeDegrees>
            </Position>
            <AltitudeMeters>905</AltitudeMeters>
            <DistanceMeters>NAN</DistanceMeters>
          </Trackpoint>
          <Trackpoint>
            <Time>2019-10-04T18:00:42.000Z</Time>
            <Position>
              <LatitudeDegrees>42.62511807493865489959716796875</LatitudeDegrees>
              <LongitudeDegrees>-5.58659940026700496673583984375</LongitudeDegrees>
            </Position>
            <AltitudeMeters>903</AltitudeMeters>
            <DistanceMeters>NAN</DistanceMeters>
          </Trackpoint>
          <Trackpoint>
            <Time>2019-10-04T18:00:43.000Z</Time>
            <Position>
              <LatitudeDegrees>42.6249895803630352020263671875</LatitudeDegrees>
              <LongitudeDegrees>-5.58656872250139713287353515625</LongitudeDegrees>
            </Position>
            <AltitudeMeters>901.79998779296875</AltitudeMeters>
            <DistanceMeters>NAN</DistanceMeters>
          </Trackpoint>
          <Trackpoint>
            <Time>2019-10-04T18:00:44.000Z</Time>
            <Position>
              <LatitudeDegrees>42.624860666692256927490234375</LatitudeDegrees>
              <LongitudeDegrees>-5.58653871528804302215576171875</LongitudeDegrees>
            </Position>
            <AltitudeMeters>901.5999755859375</AltitudeMeters>
            <DistanceMeters>NAN</DistanceMeters>
          </Trackpoint>
          <Trackpoint>
            <Time>2019-10-04T18:00:45.000Z</Time>
            <Position>
              <LatitudeDegrees>42.62473250739276409149169921875</LatitudeDegrees>
              <LongitudeDegrees>-5.58650803752243518829345703125</LongitudeDegrees>
            </Position>
            <AltitudeMeters>900.4000244140625</AltitudeMeters>
            <DistanceMeters>NAN</DistanceMeters>
          </Trackpoint>
          <Trackpoint>
            <Time>2019-10-04T18:00:47.000Z</Time>
            <Position>
              <LatitudeDegrees>42.62447543442249298095703125</LatitudeDegrees>
              <LongitudeDegrees>-5.5864440836012363433837890625</LongitudeDegrees>
            </Position>
            <AltitudeMeters>898.20001220703125</AltitudeMeters>
            <DistanceMeters>NAN</DistanceMeters>
          </Trackpoint>
          <Trackpoint>
            <Time>2019-10-04T18:00:49.000Z</Time>
            <Position>
              <LatitudeDegrees>42.62421618215739727020263671875</LatitudeDegrees>
              <LongitudeDegrees>-5.58638297952711582183837890625</LongitudeDegrees>
            </Position>
            <AltitudeMeters>897</AltitudeMeters>
            <DistanceMeters>NAN</DistanceMeters>
          </Trackpoint>
          <Trackpoint>
            <Time>2019-10-04T18:00:51.000Z</Time>
            <Position>
              <LatitudeDegrees>42.62395986355841159820556640625</LatitudeDegrees>
              <LongitudeDegrees>-5.58632053434848785400390625</LongitudeDegrees>
            </Position>
            <AltitudeMeters>895.4000244140625</AltitudeMeters>
            <DistanceMeters>NAN</DistanceMeters>
          </Trackpoint>
          <Trackpoint>
            <Time>2019-10-04T18:00:53.000Z</Time>
            <Position>
              <LatitudeDegrees>42.6237054727971553802490234375</LatitudeDegrees>
              <LongitudeDegrees>-5.58625590987503528594970703125</LongitudeDegrees>
            </Position>
            <AltitudeMeters>893.79998779296875</AltitudeMeters>
            <DistanceMeters>NAN</DistanceMeters>
          </Trackpoint>
          <Trackpoint>
            <Time>2019-10-04T18:00:55.000Z</Time>
            <Position>
              <LatitudeDegrees>42.6234533451497554779052734375</LatitudeDegrees>
              <LongitudeDegrees>-5.5861936323344707489013671875</LongitudeDegrees>
            </Position>
            <AltitudeMeters>892.4000244140625</AltitudeMeters>
            <DistanceMeters>NAN</DistanceMeters>
          </Trackpoint>
          <Trackpoint>
            <Time>2019-10-04T18:00:56.000Z</Time>
            <Position>
              <LatitudeDegrees>42.62333021499216556549072265625</LatitudeDegrees>
              <LongitudeDegrees>-5.58616119436919689178466796875</LongitudeDegrees>
            </Position>
            <AltitudeMeters>892.20001220703125</AltitudeMeters>
            <DistanceMeters>NAN</DistanceMeters>
          </Trackpoint>
          <Trackpoint>
            <Time>2019-10-04T18:00:59.000Z</Time>
            <Position>
              <LatitudeDegrees>42.6229702122509479522705078125</LatitudeDegrees>
              <LongitudeDegrees>-5.58604099787771701812744140625</LongitudeDegrees>
            </Position>
            <AltitudeMeters>891.20001220703125</AltitudeMeters>
            <DistanceMeters>NAN</DistanceMeters>
          </Trackpoint>
          <Trackpoint>
            <Time>2019-10-04T18:01:01.000Z</Time>
            <Position>
              <LatitudeDegrees>42.622741721570491790771484375</LatitudeDegrees>
              <LongitudeDegrees>-5.585933290421962738037109375</LongitudeDegrees>
            </Position>
            <AltitudeMeters>890</AltitudeMeters>
            <DistanceMeters>NAN</DistanceMeters>
          </Trackpoint>
          <Trackpoint>
            <Time>2019-10-04T18:01:02.000Z</Time>
            <Position>
              <LatitudeDegrees>42.6226332597434520721435546875</LatitudeDegrees>
              <LongitudeDegrees>-5.5858679115772247314453125</LongitudeDegrees>
            </Position>
            <AltitudeMeters>889.20001220703125</AltitudeMeters>
            <DistanceMeters>NAN</DistanceMeters>
          </Trackpoint>
          <Trackpoint>
            <Time>2019-10-04T18:01:03.000Z</Time>
            <Position>
              <LatitudeDegrees>42.622528485953807830810546875</LatitudeDegrees>
              <LongitudeDegrees>-5.58579976670444011688232421875</LongitudeDegrees>
            </Position>
            <AltitudeMeters>888.4000244140625</AltitudeMeters>
            <DistanceMeters>NAN</DistanceMeters>
          </Trackpoint>
          <Trackpoint>
            <Time>2019-10-04T18:01:07.000Z</Time>
            <Position>
              <LatitudeDegrees>42.62214585207402706146240234375</LatitudeDegrees>
              <LongitudeDegrees>-5.58548770844936370849609375</LongitudeDegrees>
            </Position>
            <AltitudeMeters>888.5999755859375</AltitudeMeters>
            <DistanceMeters>NAN</DistanceMeters>
          </Trackpoint>
          <Trackpoint>
            <Time>2019-10-04T18:01:08.000Z</Time>
            <Position>
              <LatitudeDegrees>42.62205985374748706817626953125</LatitudeDegrees>
              <LongitudeDegrees>-5.58540363796055316925048828125</LongitudeDegrees>
            </Position>
            <AltitudeMeters>888</AltitudeMeters>
            <DistanceMeters>NAN</DistanceMeters>
          </Trackpoint>
          <Trackpoint>
            <Time>2019-10-04T18:01:09.000Z</Time>
            <Position>
              <LatitudeDegrees>42.621976621448993682861328125</LatitudeDegrees>
              <LongitudeDegrees>-5.58532116003334522247314453125</LongitudeDegrees>
            </Position>
            <AltitudeMeters>887.4000244140625</AltitudeMeters>
            <DistanceMeters>NAN</DistanceMeters>
          </Trackpoint>
          <Trackpoint>
            <Time>2019-10-04T18:01:12.000Z</Time>
            <Position>
              <LatitudeDegrees>42.62173849157989025115966796875</LatitudeDegrees>
              <LongitudeDegrees>-5.58507741428911685943603515625</LongitudeDegrees>
            </Position>
            <AltitudeMeters>888.5999755859375</AltitudeMeters>
            <DistanceMeters>NAN</DistanceMeters>
          </Trackpoint>
          <Trackpoint>
            <Time>2019-10-04T18:01:13.000Z</Time>
            <Position>
              <LatitudeDegrees>42.621661461889743804931640625</LatitudeDegrees>
              <LongitudeDegrees>-5.58500130660831928253173828125</LongitudeDegrees>
            </Position>
            <AltitudeMeters>888.4000244140625</AltitudeMeters>
            <DistanceMeters>NAN</DistanceMeters>
          </Trackpoint>
          <Trackpoint>
            <Time>2019-10-04T18:01:15.000Z</Time>
            <Position>
              <LatitudeDegrees>42.6215107552707195281982421875</LatitudeDegrees>
              <LongitudeDegrees>-5.5848505161702632904052734375</LongitudeDegrees>
            </Position>
            <AltitudeMeters>888.5999755859375</AltitudeMeters>
            <DistanceMeters>NAN</DistanceMeters>
          </Trackpoint>
          <Trackpoint>
            <Time>2019-10-04T18:01:22.000Z</Time>
            <Position>
              <LatitudeDegrees>42.62100725434720516204833984375</LatitudeDegrees>
              <LongitudeDegrees>-5.5843499489128589630126953125</LongitudeDegrees>
            </Position>
            <AltitudeMeters>888.4000244140625</AltitudeMeters>
            <DistanceMeters>NAN</DistanceMeters>
          </Trackpoint>
          <Trackpoint>
            <Time>2019-10-04T18:01:24.000Z</Time>
            <Position>
              <LatitudeDegrees>42.62088605202734470367431640625</LatitudeDegrees>
              <LongitudeDegrees>-5.58422463946044445037841796875</LongitudeDegrees>
            </Position>
            <AltitudeMeters>888.5999755859375</AltitudeMeters>
            <DistanceMeters>NAN</DistanceMeters>
          </Trackpoint>
          <Trackpoint>
            <Time>2019-10-04T18:01:25.000Z</Time>
            <Position>
              <LatitudeDegrees>42.6208194158971309661865234375</LatitudeDegrees>
              <LongitudeDegrees>-5.58416127227246761322021484375</LongitudeDegrees>
            </Position>
            <AltitudeMeters>888.79998779296875</AltitudeMeters>
            <DistanceMeters>NAN</DistanceMeters>
          </Trackpoint>
          <Trackpoint>
            <Time>2019-10-04T18:01:27.000Z</Time>
            <Position>
              <LatitudeDegrees>42.620695866644382476806640625</LatitudeDegrees>
              <LongitudeDegrees>-5.58403487317264080047607421875</LongitudeDegrees>
            </Position>
            <AltitudeMeters>888.5999755859375</AltitudeMeters>
            <DistanceMeters>NAN</DistanceMeters>
          </Trackpoint>
          <Trackpoint>
            <Time>2019-10-04T18:01:29.000Z</Time>
            <Position>
              <LatitudeDegrees>42.62057139538228511810302734375</LatitudeDegrees>
              <LongitudeDegrees>-5.5839110724627971649169921875</LongitudeDegrees>
            </Position>
            <AltitudeMeters>888.20001220703125</AltitudeMeters>
            <DistanceMeters>NAN</DistanceMeters>
          </Trackpoint>
          <Trackpoint>
            <Time>2019-10-04T18:01:32.000Z</Time>
            <Position>
              <LatitudeDegrees>42.62038816697895526885986328125</LatitudeDegrees>
              <LongitudeDegrees>-5.58372809551656246185302734375</LongitudeDegrees>
            </Position>
            <AltitudeMeters>888.20001220703125</AltitudeMeters>
            <DistanceMeters>NAN</DistanceMeters>
          </Trackpoint>
          <Trackpoint>
            <Time>2019-10-04T18:01:34.000Z</Time>
            <Position>
              <LatitudeDegrees>42.620268054306507110595703125</LatitudeDegrees>
              <LongitudeDegrees>-5.58360856957733631134033203125</LongitudeDegrees>
            </Position>
            <AltitudeMeters>887.5999755859375</AltitudeMeters>
            <DistanceMeters>NAN</DistanceMeters>
          </Trackpoint>
          <Trackpoint>
            <Time>2019-10-04T18:01:36.000Z</Time>
            <Position>
              <LatitudeDegrees>42.6201498694717884063720703125</LatitudeDegrees>
              <LongitudeDegrees>-5.58348736725747585296630859375</LongitudeDegrees>
            </Position>
            <AltitudeMeters>887.20001220703125</AltitudeMeters>
            <DistanceMeters>NAN</DistanceMeters>
          </Trackpoint>
          <Trackpoint>
            <Time>2019-10-04T18:01:37.000Z</Time>
            <Position>
              <LatitudeDegrees>42.62009077705442905426025390625</LatitudeDegrees>
              <LongitudeDegrees>-5.58342701755464076995849609375</LongitudeDegrees>
            </Position>
            <AltitudeMeters>886.79998779296875</AltitudeMeters>
            <DistanceMeters>NAN</DistanceMeters>
          </Trackpoint>
          <Trackpoint>
            <Time>2019-10-04T18:01:38.000Z</Time>
            <Position>
              <LatitudeDegrees>42.620030343532562255859375</LatitudeDegrees>
              <LongitudeDegrees>-5.5833654105663299560546875</LongitudeDegrees>
            </Position>
            <AltitudeMeters>886.4000244140625</AltitudeMeters>
            <DistanceMeters>NAN</DistanceMeters>
          </Trackpoint>
          <Trackpoint>
            <Time>2019-10-04T18:01:42.000Z</Time>
            <Position>
              <LatitudeDegrees>42.6197871007025241851806640625</LatitudeDegrees>
              <LongitudeDegrees>-5.58311386965215206146240234375</LongitudeDegrees>
            </Position>
            <AltitudeMeters>885.4000244140625</AltitudeMeters>
            <DistanceMeters>NAN</DistanceMeters>
          </Trackpoint>
          <Trackpoint>
            <Time>2019-10-04T18:01:47.000Z</Time>
            <Position>
              <LatitudeDegrees>42.6194702647626399993896484375</LatitudeDegrees>
              <LongitudeDegrees>-5.5827909149229526519775390625</LongitudeDegrees>
            </Position>
            <AltitudeMeters>884</AltitudeMeters>
            <DistanceMeters>NAN</DistanceMeters>
          </Trackpoint>
          <Trackpoint>
            <Time>2019-10-04T18:01:50.000Z</Time>
            <Position>
              <LatitudeDegrees>42.61926901526749134063720703125</LatitudeDegrees>
              <LongitudeDegrees>-5.58259360492229461669921875</LongitudeDegrees>
            </Position>
            <AltitudeMeters>882.79998779296875</AltitudeMeters>
            <DistanceMeters>NAN</DistanceMeters>
          </Trackpoint>
          <Trackpoint>
            <Time>2019-10-04T18:01:53.000Z</Time>
            <Position>
              <LatitudeDegrees>42.6190660893917083740234375</LatitudeDegrees>
              <LongitudeDegrees>-5.58238849975168704986572265625</LongitudeDegrees>
            </Position>
            <AltitudeMeters>881.4000244140625</AltitudeMeters>
            <DistanceMeters>NAN</DistanceMeters>
          </Trackpoint>
          <Trackpoint>
            <Time>2019-10-04T18:01:55.000Z</Time>
            <Position>
              <LatitudeDegrees>42.61893072165548801422119140625</LatitudeDegrees>
              <LongitudeDegrees>-5.582247264683246612548828125</LongitudeDegrees>
            </Position>
            <AltitudeMeters>880</AltitudeMeters>
            <DistanceMeters>NAN</DistanceMeters>
          </Trackpoint>
          <Trackpoint>
            <Time>2019-10-04T18:01:57.000Z</Time>
            <Position>
              <LatitudeDegrees>42.618795521557331085205078125</LatitudeDegrees>
              <LongitudeDegrees>-5.58211156167089939117431640625</LongitudeDegrees>
            </Position>
            <AltitudeMeters>879.79998779296875</AltitudeMeters>
            <DistanceMeters>NAN</DistanceMeters>
          </Trackpoint>
          <Trackpoint>
            <Time>2019-10-04T18:02:02.000Z</Time>
            <Position>
              <LatitudeDegrees>42.6184572279453277587890625</LatitudeDegrees>
              <LongitudeDegrees>-5.5817735195159912109375</LongitudeDegrees>
            </Position>
            <AltitudeMeters>878.79998779296875</AltitudeMeters>
            <DistanceMeters>NAN</DistanceMeters>
          </Trackpoint>
          <Trackpoint>
            <Time>2019-10-04T18:02:05.000Z</Time>
            <Position>
              <LatitudeDegrees>42.618256397545337677001953125</LatitudeDegrees>
              <LongitudeDegrees>-5.581565313041210174560546875</LongitudeDegrees>
            </Position>
            <AltitudeMeters>877.79998779296875</AltitudeMeters>
            <DistanceMeters>NAN</DistanceMeters>
          </Trackpoint>
          <Trackpoint>
            <Time>2019-10-04T18:02:06.000Z</Time>
            <Position>
              <LatitudeDegrees>42.61818959377706050872802734375</LatitudeDegrees>
              <LongitudeDegrees>-5.5814974196255207061767578125</LongitudeDegrees>
            </Position>
            <AltitudeMeters>878</AltitudeMeters>
            <DistanceMeters>NAN</DistanceMeters>
          </Trackpoint>
          <Trackpoint>
            <Time>2019-10-04T18:02:13.000Z</Time>
            <Position>
              <LatitudeDegrees>42.6177352108061313629150390625</LatitudeDegrees>
              <LongitudeDegrees>-5.58106868527829647064208984375</LongitudeDegrees>
            </Position>
            <AltitudeMeters>878.4000244140625</AltitudeMeters>
            <DistanceMeters>NAN</DistanceMeters>
          </Trackpoint>
          <Trackpoint>
            <Time>2019-10-04T18:02:14.000Z</Time>
            <Position>
              <LatitudeDegrees>42.61766656301915645599365234375</LatitudeDegrees>
              <LongitudeDegrees>-5.581021495163440704345703125</LongitudeDegrees>
            </Position>
            <AltitudeMeters>879.20001220703125</AltitudeMeters>
            <DistanceMeters>NAN</DistanceMeters>
          </Trackpoint>
          <Trackpoint>
            <Time>2019-10-04T18:02:16.000Z</Time>
            <Position>
              <LatitudeDegrees>42.6175410859286785125732421875</LatitudeDegrees>
              <LongitudeDegrees>-5.580907166004180908203125</LongitudeDegrees>
            </Position>
            <AltitudeMeters>879</AltitudeMeters>
            <DistanceMeters>NAN</DistanceMeters>
          </Trackpoint>
          <Trackpoint>
            <Time>2019-10-04T18:02:19.000Z</Time>
            <Position>
              <LatitudeDegrees>42.617380321025848388671875</LatitudeDegrees>
              <LongitudeDegrees>-5.58072066865861415863037109375</LongitudeDegrees>
            </Position>
            <AltitudeMeters>879.20001220703125</AltitudeMeters>
            <DistanceMeters>NAN</DistanceMeters>
          </Trackpoint>
          <Trackpoint>
            <Time>2019-10-04T18:02:27.000Z</Time>
            <Position>
              <LatitudeDegrees>42.61698444373905658721923828125</LatitudeDegrees>
              <LongitudeDegrees>-5.58028447441756725311279296875</LongitudeDegrees>
            </Position>
            <AltitudeMeters>880.4000244140625</AltitudeMeters>
            <DistanceMeters>NAN</DistanceMeters>
          </Trackpoint>
          <Trackpoint>
            <Time>2019-10-04T18:02:30.000Z</Time>
            <Position>
              <LatitudeDegrees>42.61684647761285305023193359375</LatitudeDegrees>
              <LongitudeDegrees>-5.58014784939587116241455078125</LongitudeDegrees>
            </Position>
            <AltitudeMeters>881.20001220703125</AltitudeMeters>
            <DistanceMeters>NAN</DistanceMeters>
          </Trackpoint>
          <Trackpoint>
            <Time>2019-10-04T18:02:32.000Z</Time>
            <Position>
              <LatitudeDegrees>42.61675762943923473358154296875</LatitudeDegrees>
              <LongitudeDegrees>-5.580061264336109161376953125</LongitudeDegrees>
            </Position>
            <AltitudeMeters>881.20001220703125</AltitudeMeters>
            <DistanceMeters>NAN</DistanceMeters>
          </Trackpoint>
          <Trackpoint>
            <Time>2019-10-04T18:02:34.000Z</Time>
            <Position>
              <LatitudeDegrees>42.61667079292237758636474609375</LatitudeDegrees>
              <LongitudeDegrees>-5.57996906340122222900390625</LongitudeDegrees>
            </Position>
            <AltitudeMeters>881.4000244140625</AltitudeMeters>
            <DistanceMeters>NAN</DistanceMeters>
          </Trackpoint>
          <Trackpoint>
            <Time>2019-10-04T18:02:35.000Z</Time>
            <Position>
              <LatitudeDegrees>42.61662787757813930511474609375</LatitudeDegrees>
              <LongitudeDegrees>-5.57992690242826938629150390625</LongitudeDegrees>
            </Position>
            <AltitudeMeters>881.79998779296875</AltitudeMeters>
            <DistanceMeters>NAN</DistanceMeters>
          </Trackpoint>
          <Trackpoint>
            <Time>2019-10-04T18:02:39.000Z</Time>
            <Position>
              <LatitudeDegrees>42.61646367609500885009765625</LatitudeDegrees>
              <LongitudeDegrees>-5.5797549895942211151123046875</LongitudeDegrees>
            </Position>
            <AltitudeMeters>882</AltitudeMeters>
            <DistanceMeters>NAN</DistanceMeters>
          </Trackpoint>
          <Trackpoint>
            <Time>2019-10-04T18:02:43.000Z</Time>
            <Position>
              <LatitudeDegrees>42.61630366556346416473388671875</LatitudeDegrees>
              <LongitudeDegrees>-5.579594559967517852783203125</LongitudeDegrees>
            </Position>
            <AltitudeMeters>882.79998779296875</AltitudeMeters>
            <DistanceMeters>NAN</DistanceMeters>
          </Trackpoint>
          <Trackpoint>
            <Time>2019-10-04T18:02:47.000Z</Time>
            <Position>
              <LatitudeDegrees>42.61614390648901462554931640625</LatitudeDegrees>
              <LongitudeDegrees>-5.57943220250308513641357421875</LongitudeDegrees>
            </Position>
            <AltitudeMeters>883</AltitudeMeters>
            <DistanceMeters>NAN</DistanceMeters>
          </Trackpoint>
          <Trackpoint>
            <Time>2019-10-04T18:02:53.000Z</Time>
            <Position>
              <LatitudeDegrees>42.615903429687023162841796875</LatitudeDegrees>
              <LongitudeDegrees>-5.57918812148272991180419921875</LongitudeDegrees>
            </Position>
            <AltitudeMeters>882.5999755859375</AltitudeMeters>
            <DistanceMeters>NAN</DistanceMeters>
          </Trackpoint>
          <Trackpoint>
            <Time>2019-10-04T18:03:00.000Z</Time>
            <Position>
              <LatitudeDegrees>42.615620791912078857421875</LatitudeDegrees>
              <LongitudeDegrees>-5.578902550041675567626953125</LongitudeDegrees>
            </Position>
            <AltitudeMeters>883.4000244140625</AltitudeMeters>
            <DistanceMeters>NAN</DistanceMeters>
          </Trackpoint>
          <Trackpoint>
            <Time>2019-10-04T18:03:03.000Z</Time>
            <Position>
              <LatitudeDegrees>42.6154959015548229217529296875</LatitudeDegrees>
              <LongitudeDegrees>-5.5787753127515316009521484375</LongitudeDegrees>
            </Position>
            <AltitudeMeters>883</AltitudeMeters>
            <DistanceMeters>NAN</DistanceMeters>
          </Trackpoint>
          <Trackpoint>
            <Time>2019-10-04T18:03:11.000Z</Time>
            <Position>
              <LatitudeDegrees>42.6151452027261257171630859375</LatitudeDegrees>
              <LongitudeDegrees>-5.5784772522747516632080078125</LongitudeDegrees>
            </Position>
            <AltitudeMeters>883.4000244140625</AltitudeMeters>
            <DistanceMeters>NAN</DistanceMeters>
          </Trackpoint>
          <Trackpoint>
            <Time>2019-10-04T18:03:18.000Z</Time>
            <Position>
              <LatitudeDegrees>42.6147844456136226654052734375</LatitudeDegrees>
              <LongitudeDegrees>-5.578272901475429534912109375</LongitudeDegrees>
            </Position>
            <AltitudeMeters>882.79998779296875</AltitudeMeters>
            <DistanceMeters>NAN</DistanceMeters>
          </Trackpoint>
          <Trackpoint>
            <Time>2019-10-04T18:03:20.000Z</Time>
            <Position>
              <LatitudeDegrees>42.6146707870066165924072265625</LatitudeDegrees>
              <LongitudeDegrees>-5.5782170780003070831298828125</LongitudeDegrees>
            </Position>
            <AltitudeMeters>881.20001220703125</AltitudeMeters>
            <DistanceMeters>NAN</DistanceMeters>
          </Trackpoint>
          <Trackpoint>
            <Time>2019-10-04T18:03:21.000Z</Time>
            <Position>
              <LatitudeDegrees>42.61460951529443264007568359375</LatitudeDegrees>
              <LongitudeDegrees>-5.578203834593296051025390625</LongitudeDegrees>
            </Position>
            <AltitudeMeters>880.79998779296875</AltitudeMeters>
            <DistanceMeters>NAN</DistanceMeters>
          </Trackpoint>
          <Trackpoint>
            <Time>2019-10-04T18:03:24.000Z</Time>
            <Position>
              <LatitudeDegrees>42.614414803683757781982421875</LatitudeDegrees>
              <LongitudeDegrees>-5.57815077714622020721435546875</LongitudeDegrees>
            </Position>
            <AltitudeMeters>881</AltitudeMeters>
            <DistanceMeters>NAN</DistanceMeters>
          </Trackpoint>
          <Trackpoint>
            <Time>2019-10-04T18:03:26.000Z</Time>
            <Position>
              <LatitudeDegrees>42.61427809484302997589111328125</LatitudeDegrees>
              <LongitudeDegrees>-5.57811037637293338775634765625</LongitudeDegrees>
            </Position>
            <AltitudeMeters>880</AltitudeMeters>
            <DistanceMeters>NAN</DistanceMeters>
          </Trackpoint>
          <Trackpoint>
            <Time>2019-10-04T18:03:29.000Z</Time>
            <Position>
              <LatitudeDegrees>42.61406938545405864715576171875</LatitudeDegrees>
              <LongitudeDegrees>-5.57803384959697723388671875</LongitudeDegrees>
            </Position>
            <AltitudeMeters>878.79998779296875</AltitudeMeters>
            <DistanceMeters>NAN</DistanceMeters>
          </Trackpoint>
          <Trackpoint>
            <Time>2019-10-04T18:03:31.000Z</Time>
            <Position>
              <LatitudeDegrees>42.61392588727176189422607421875</LatitudeDegrees>
              <LongitudeDegrees>-5.577988587319850921630859375</LongitudeDegrees>
            </Position>
            <AltitudeMeters>878.4000244140625</AltitudeMeters>
            <DistanceMeters>NAN</DistanceMeters>
          </Trackpoint>
          <Trackpoint>
            <Time>2019-10-04T18:03:32.000Z</Time>
            <Position>
              <LatitudeDegrees>42.61385447345674037933349609375</LatitudeDegrees>
              <LongitudeDegrees>-5.57796335779130458831787109375</LongitudeDegrees>
            </Position>
            <AltitudeMeters>878.5999755859375</AltitudeMeters>
            <DistanceMeters>NAN</DistanceMeters>
          </Trackpoint>
          <Trackpoint>
            <Time>2019-10-04T18:03:34.000Z</Time>
            <Position>
              <LatitudeDegrees>42.61371030472218990325927734375</LatitudeDegrees>
              <LongitudeDegrees>-5.57791876606643199920654296875</LongitudeDegrees>
            </Position>
            <AltitudeMeters>877.79998779296875</AltitudeMeters>
            <DistanceMeters>NAN</DistanceMeters>
          </Trackpoint>
          <Trackpoint>
            <Time>2019-10-04T18:03:39.000Z</Time>
            <Position>
              <LatitudeDegrees>42.61339732445776462554931640625</LatitudeDegrees>
              <LongitudeDegrees>-5.57781969197094440460205078125</LongitudeDegrees>
            </Position>
            <AltitudeMeters>878</AltitudeMeters>
            <DistanceMeters>NAN</DistanceMeters>
          </Trackpoint>
          <Trackpoint>
            <Time>2019-10-04T18:03:42.000Z</Time>
            <Position>
              <LatitudeDegrees>42.613247372210025787353515625</LatitudeDegrees>
              <LongitudeDegrees>-5.5777688138186931610107421875</LongitudeDegrees>
            </Position>
            <AltitudeMeters>877.5999755859375</AltitudeMeters>
            <DistanceMeters>NAN</DistanceMeters>
          </Trackpoint>
          <Trackpoint>
            <Time>2019-10-04T18:03:45.000Z</Time>
            <Position>
              <LatitudeDegrees>42.61312139220535755157470703125</LatitudeDegrees>
              <LongitudeDegrees>-5.5777208693325519561767578125</LongitudeDegrees>
            </Position>
            <AltitudeMeters>877.4000244140625</AltitudeMeters>
            <DistanceMeters>NAN</DistanceMeters>
          </Trackpoint>
          <Trackpoint>
            <Time>2019-10-04T18:03:46.000Z</Time>
            <Position>
              <LatitudeDegrees>42.6130788959562778472900390625</LatitudeDegrees>
              <LongitudeDegrees>-5.5777181871235370635986328125</LongitudeDegrees>
            </Position>
            <AltitudeMeters>877.5999755859375</AltitudeMeters>
            <DistanceMeters>NAN</DistanceMeters>
          </Trackpoint>
          <Trackpoint>
            <Time>2019-10-04T18:03:48.000Z</Time>
            <Position>
              <LatitudeDegrees>42.61299247853457927703857421875</LatitudeDegrees>
              <LongitudeDegrees>-5.57768088765442371368408203125</LongitudeDegrees>
            </Position>
            <AltitudeMeters>877.5999755859375</AltitudeMeters>
            <DistanceMeters>NAN</DistanceMeters>
          </Trackpoint>
          <Trackpoint>
            <Time>2019-10-04T18:03:49.000Z</Time>
            <Position>
              <LatitudeDegrees>42.612948976457118988037109375</LatitudeDegrees>
              <LongitudeDegrees>-5.5776642076671123504638671875</LongitudeDegrees>
            </Position>
            <AltitudeMeters>877.20001220703125</AltitudeMeters>
            <DistanceMeters>NAN</DistanceMeters>
          </Trackpoint>
          <Trackpoint>
            <Time>2019-10-04T18:03:51.000Z</Time>
            <Position>
              <LatitudeDegrees>42.61287077330052852630615234375</LatitudeDegrees>
              <LongitudeDegrees>-5.577644594013690948486328125</LongitudeDegrees>
            </Position>
            <AltitudeMeters>877.4000244140625</AltitudeMeters>
            <DistanceMeters>NAN</DistanceMeters>
          </Trackpoint>
          <Trackpoint>
            <Time>2019-10-04T18:03:52.000Z</Time>
            <Position>
              <LatitudeDegrees>42.61282928287982940673828125</LatitudeDegrees>
              <LongitudeDegrees>-5.577629841864109039306640625</LongitudeDegrees>
            </Position>
            <AltitudeMeters>877.4000244140625</AltitudeMeters>
            <DistanceMeters>NAN</DistanceMeters>
          </Trackpoint>
          <Trackpoint>
            <Time>2019-10-04T18:03:55.000Z</Time>
            <Position>
              <LatitudeDegrees>42.61270296759903430938720703125</LatitudeDegrees>
              <LongitudeDegrees>-5.57757913134992122650146484375</LongitudeDegrees>
            </Position>
            <AltitudeMeters>876.79998779296875</AltitudeMeters>
            <DistanceMeters>NAN</DistanceMeters>
          </Trackpoint>
          <Trackpoint>
            <Time>2019-10-04T18:03:56.000Z</Time>
            <Position>
              <LatitudeDegrees>42.61265753768384456634521484375</LatitudeDegrees>
              <LongitudeDegrees>-5.57756387628614902496337890625</LongitudeDegrees>
            </Position>
            <AltitudeMeters>876.5999755859375</AltitudeMeters>
            <DistanceMeters>NAN</DistanceMeters>
          </Trackpoint>
          <Trackpoint>
            <Time>2019-10-04T18:03:58.000Z</Time>
            <Position>
              <LatitudeDegrees>42.61256567202508449554443359375</LatitudeDegrees>
              <LongitudeDegrees>-5.57753303088247776031494140625</LongitudeDegrees>
            </Position>
            <AltitudeMeters>876</AltitudeMeters>
            <DistanceMeters>NAN</DistanceMeters>
          </Trackpoint>
          <Trackpoint>
            <Time>2019-10-04T18:04:02.000Z</Time>
            <Position>
              <LatitudeDegrees>42.61240825988352298736572265625</LatitudeDegrees>
              <LongitudeDegrees>-5.5774818174540996551513671875</LongitudeDegrees>
            </Position>
            <AltitudeMeters>876.20001220703125</AltitudeMeters>
            <DistanceMeters>NAN</DistanceMeters>
          </Trackpoint>
          <Trackpoint>
            <Time>2019-10-04T18:04:03.000Z</Time>
            <Position>
              <LatitudeDegrees>42.61238495819270610809326171875</LatitudeDegrees>
              <LongitudeDegrees>-5.57747284881770610809326171875</LongitudeDegrees>
            </Position>
            <AltitudeMeters>876.4000244140625</AltitudeMeters>
            <DistanceMeters>NAN</DistanceMeters>
          </Trackpoint>
          <Trackpoint>
            <Time>2019-10-04T18:04:07.000Z</Time>
            <Position>
              <LatitudeDegrees>42.61233466677367687225341796875</LatitudeDegrees>
              <LongitudeDegrees>-5.5774603597819805145263671875</LongitudeDegrees>
            </Position>
            <AltitudeMeters>876.5999755859375</AltitudeMeters>
            <DistanceMeters>NAN</DistanceMeters>
          </Trackpoint>
          <Trackpoint>
            <Time>2019-10-04T18:04:09.000Z</Time>
            <Position>
              <LatitudeDegrees>42.6122745685279369354248046875</LatitudeDegrees>
              <LongitudeDegrees>-5.5774690769612789154052734375</LongitudeDegrees>
            </Position>
            <AltitudeMeters>876.20001220703125</AltitudeMeters>
            <DistanceMeters>NAN</DistanceMeters>
          </Trackpoint>
          <Trackpoint>
            <Time>2019-10-04T18:04:11.000Z</Time>
            <Position>
              <LatitudeDegrees>42.61220030486583709716796875</LatitudeDegrees>
              <LongitudeDegrees>-5.57753236033022403717041015625</LongitudeDegrees>
            </Position>
            <AltitudeMeters>875.5999755859375</AltitudeMeters>
            <DistanceMeters>NAN</DistanceMeters>
          </Trackpoint>
          <Trackpoint>
            <Time>2019-10-04T18:04:12.000Z</Time>
            <Position>
              <LatitudeDegrees>42.61215428821742534637451171875</LatitudeDegrees>
              <LongitudeDegrees>-5.577561445534229278564453125</LongitudeDegrees>
            </Position>
            <AltitudeMeters>875.4000244140625</AltitudeMeters>
            <DistanceMeters>NAN</DistanceMeters>
          </Trackpoint>
          <Trackpoint>
            <Time>2019-10-04T18:04:13.000Z</Time>
            <Position>
              <LatitudeDegrees>42.61209980584681034088134765625</LatitudeDegrees>
              <LongitudeDegrees>-5.57757359929382801055908203125</LongitudeDegrees>
            </Position>
            <AltitudeMeters>875.4000244140625</AltitudeMeters>
            <DistanceMeters>NAN</DistanceMeters>
          </Trackpoint>
          <Trackpoint>
            <Time>2019-10-04T18:04:15.000Z</Time>
            <Position>
              <LatitudeDegrees>42.61199100874364376068115234375</LatitudeDegrees>
              <LongitudeDegrees>-5.577517859637737274169921875</LongitudeDegrees>
            </Position>
            <AltitudeMeters>874.4000244140625</AltitudeMeters>
            <DistanceMeters>NAN</DistanceMeters>
          </Trackpoint>
          <Trackpoint>
            <Time>2019-10-04T18:04:16.000Z</Time>
            <Position>
              <LatitudeDegrees>42.61194038204848766326904296875</LatitudeDegrees>
              <LongitudeDegrees>-5.57743328623473644256591796875</LongitudeDegrees>
            </Position>
            <AltitudeMeters>874</AltitudeMeters>
            <DistanceMeters>NAN</DistanceMeters>
          </Trackpoint>
          <Trackpoint>
            <Time>2019-10-04T18:04:17.000Z</Time>
            <Position>
              <LatitudeDegrees>42.61191255412995815277099609375</LatitudeDegrees>
              <LongitudeDegrees>-5.5773896165192127227783203125</LongitudeDegrees>
            </Position>
            <AltitudeMeters>873.79998779296875</AltitudeMeters>
            <DistanceMeters>NAN</DistanceMeters>
          </Trackpoint>
          <Trackpoint>
            <Time>2019-10-04T18:04:18.000Z</Time>
            <Position>
              <LatitudeDegrees>42.6118692196905612945556640625</LatitudeDegrees>
              <LongitudeDegrees>-5.57732130400836467742919921875</LongitudeDegrees>
            </Position>
            <AltitudeMeters>872.79998779296875</AltitudeMeters>
            <DistanceMeters>NAN</DistanceMeters>
          </Trackpoint>
          <Trackpoint>
            <Time>2019-10-04T18:04:19.000Z</Time>
            <Position>
              <LatitudeDegrees>42.611811719834804534912109375</LatitudeDegrees>
              <LongitudeDegrees>-5.577273108065128326416015625</LongitudeDegrees>
            </Position>
            <AltitudeMeters>872.79998779296875</AltitudeMeters>
            <DistanceMeters>NAN</DistanceMeters>
          </Trackpoint>
          <Trackpoint>
            <Time>2019-10-04T18:04:20.000Z</Time>
            <Position>
              <LatitudeDegrees>42.61174323968589305877685546875</LatitudeDegrees>
              <LongitudeDegrees>-5.5772568471729755401611328125</LongitudeDegrees>
            </Position>
            <AltitudeMeters>871.5999755859375</AltitudeMeters>
            <DistanceMeters>NAN</DistanceMeters>
          </Trackpoint>
          <Trackpoint>
            <Time>2019-10-04T18:04:21.000Z</Time>
            <Position>
              <LatitudeDegrees>42.6116737537086009979248046875</LatitudeDegrees>
              <LongitudeDegrees>-5.577240921556949615478515625</LongitudeDegrees>
            </Position>
            <AltitudeMeters>871.5999755859375</AltitudeMeters>
            <DistanceMeters>NAN</DistanceMeters>
          </Trackpoint>
          <Trackpoint>
            <Time>2019-10-04T18:04:23.000Z</Time>
            <Position>
              <LatitudeDegrees>42.6115282438695430755615234375</LatitudeDegrees>
              <LongitudeDegrees>-5.57719507254660129547119140625</LongitudeDegrees>
            </Position>
            <AltitudeMeters>870.5999755859375</AltitudeMeters>
            <DistanceMeters>NAN</DistanceMeters>
          </Trackpoint>
          <Trackpoint>
            <Time>2019-10-04T18:04:26.000Z</Time>
            <Position>
              <LatitudeDegrees>42.6112905330955982208251953125</LatitudeDegrees>
              <LongitudeDegrees>-5.5771185457706451416015625</LongitudeDegrees>
            </Position>
            <AltitudeMeters>869</AltitudeMeters>
            <DistanceMeters>NAN</DistanceMeters>
          </Trackpoint>
          <Trackpoint>
            <Time>2019-10-04T18:04:27.000Z</Time>
            <Position>
              <LatitudeDegrees>42.61120696552097797393798828125</LatitudeDegrees>
              <LongitudeDegrees>-5.57709247805178165435791015625</LongitudeDegrees>
            </Position>
            <AltitudeMeters>868.20001220703125</AltitudeMeters>
            <DistanceMeters>NAN</DistanceMeters>
          </Trackpoint>
          <Trackpoint>
            <Time>2019-10-04T18:04:28.000Z</Time>
            <Position>
              <LatitudeDegrees>42.61112297885119915008544921875</LatitudeDegrees>
              <LongitudeDegrees>-5.57706297375261783599853515625</LongitudeDegrees>
            </Position>
            <AltitudeMeters>867.20001220703125</AltitudeMeters>
            <DistanceMeters>NAN</DistanceMeters>
          </Trackpoint>
          <Trackpoint>
            <Time>2019-10-04T18:04:31.000Z</Time>
            <Position>
              <LatitudeDegrees>42.61086297221481800079345703125</LatitudeDegrees>
              <LongitudeDegrees>-5.57697236537933349609375</LongitudeDegrees>
            </Position>
            <AltitudeMeters>866.20001220703125</AltitudeMeters>
            <DistanceMeters>NAN</DistanceMeters>
          </Trackpoint>
          <Trackpoint>
            <Time>2019-10-04T18:04:32.000Z</Time>
            <Position>
              <LatitudeDegrees>42.61077529750764369964599609375</LatitudeDegrees>
              <LongitudeDegrees>-5.57694353163242340087890625</LongitudeDegrees>
            </Position>
            <AltitudeMeters>866</AltitudeMeters>
            <DistanceMeters>NAN</DistanceMeters>
          </Trackpoint>
          <Trackpoint>
            <Time>2019-10-04T18:04:35.000Z</Time>
            <Position>
              <LatitudeDegrees>42.61052099056541919708251953125</LatitudeDegrees>
              <LongitudeDegrees>-5.57685728184878826141357421875</LongitudeDegrees>
            </Position>
            <AltitudeMeters>865.5999755859375</AltitudeMeters>
            <DistanceMeters>NAN</DistanceMeters>
          </Trackpoint>
          <Trackpoint>
            <Time>2019-10-04T18:04:36.000Z</Time>
            <Position>
              <LatitudeDegrees>42.61044153012335300445556640625</LatitudeDegrees>
              <LongitudeDegrees>-5.5768256820738315582275390625</LongitudeDegrees>
            </Position>
            <AltitudeMeters>864.79998779296875</AltitudeMeters>
            <DistanceMeters>NAN</DistanceMeters>
          </Trackpoint>
          <Trackpoint>
            <Time>2019-10-04T18:04:39.000Z</Time>
            <Position>
              <LatitudeDegrees>42.61021186597645282745361328125</LatitudeDegrees>
              <LongitudeDegrees>-5.5767452158033847808837890625</LongitudeDegrees>
            </Position>
            <AltitudeMeters>866.4000244140625</AltitudeMeters>
            <DistanceMeters>NAN</DistanceMeters>
          </Trackpoint>
          <Trackpoint>
            <Time>2019-10-04T18:04:41.000Z</Time>
            <Position>
              <LatitudeDegrees>42.61006258428096771240234375</LatitudeDegrees>
              <LongitudeDegrees>-5.5766942538321018218994140625</LongitudeDegrees>
            </Position>
            <AltitudeMeters>866.20001220703125</AltitudeMeters>
            <DistanceMeters>NAN</DistanceMeters>
          </Trackpoint>
          <Trackpoint>
            <Time>2019-10-04T18:04:43.000Z</Time>
            <Position>
              <LatitudeDegrees>42.609919421374797821044921875</LatitudeDegrees>
              <LongitudeDegrees>-5.576644800603389739990234375</LongitudeDegrees>
            </Position>
            <AltitudeMeters>866.79998779296875</AltitudeMeters>
            <DistanceMeters>NAN</DistanceMeters>
          </Trackpoint>
          <Trackpoint>
            <Time>2019-10-04T18:04:48.000Z</Time>
            <Position>
              <LatitudeDegrees>42.60956780053675174713134765625</LatitudeDegrees>
              <LongitudeDegrees>-5.5765199102461338043212890625</LongitudeDegrees>
            </Position>
            <AltitudeMeters>866.5999755859375</AltitudeMeters>
            <DistanceMeters>NAN</DistanceMeters>
          </Trackpoint>
          <Trackpoint>
            <Time>2019-10-04T18:04:49.000Z</Time>
            <Position>
              <LatitudeDegrees>42.60949588380753993988037109375</LatitudeDegrees>
              <LongitudeDegrees>-5.57650255970656871795654296875</LongitudeDegrees>
            </Position>
            <AltitudeMeters>866.4000244140625</AltitudeMeters>
            <DistanceMeters>NAN</DistanceMeters>
          </Trackpoint>
          <Trackpoint>
            <Time>2019-10-04T18:04:54.000Z</Time>
            <Position>
              <LatitudeDegrees>42.60912925936281681060791015625</LatitudeDegrees>
              <LongitudeDegrees>-5.57637381367385387420654296875</LongitudeDegrees>
            </Position>
            <AltitudeMeters>865.4000244140625</AltitudeMeters>
            <DistanceMeters>NAN</DistanceMeters>
          </Trackpoint>
          <Trackpoint>
            <Time>2019-10-04T18:04:56.000Z</Time>
            <Position>
              <LatitudeDegrees>42.6089798100292682647705078125</LatitudeDegrees>
              <LongitudeDegrees>-5.57631597854197025299072265625</LongitudeDegrees>
            </Position>
            <AltitudeMeters>864.5999755859375</AltitudeMeters>
            <DistanceMeters>NAN</DistanceMeters>
          </Trackpoint>
          <Trackpoint>
            <Time>2019-10-04T18:04:57.000Z</Time>
            <Position>
              <LatitudeDegrees>42.6089063845574855804443359375</LatitudeDegrees>
              <LongitudeDegrees>-5.57628882117569446563720703125</LongitudeDegrees>
            </Position>
            <AltitudeMeters>864.79998779296875</AltitudeMeters>
            <DistanceMeters>NAN</DistanceMeters>
          </Trackpoint>
          <Trackpoint>
            <Time>2019-10-04T18:05:00.000Z</Time>
            <Position>
              <LatitudeDegrees>42.60868719778954982757568359375</LatitudeDegrees>
              <LongitudeDegrees>-5.57621606625616550445556640625</LongitudeDegrees>
            </Position>
            <AltitudeMeters>864.4000244140625</AltitudeMeters>
            <DistanceMeters>NAN</DistanceMeters>
          </Trackpoint>
          <Trackpoint>
            <Time>2019-10-04T18:05:01.000Z</Time>
            <Position>
              <LatitudeDegrees>42.60861595161259174346923828125</LatitudeDegrees>
              <LongitudeDegrees>-5.57618983089923858642578125</LongitudeDegrees>
            </Position>
            <AltitudeMeters>864.4000244140625</AltitudeMeters>
            <DistanceMeters>NAN</DistanceMeters>
          </Trackpoint>
          <Trackpoint>
            <Time>2019-10-04T18:05:04.000Z</Time>
            <Position>
              <LatitudeDegrees>42.60839735157787799835205078125</LatitudeDegrees>
              <LongitudeDegrees>-5.57611204683780670166015625</LongitudeDegrees>
            </Position>
            <AltitudeMeters>864</AltitudeMeters>
            <DistanceMeters>NAN</DistanceMeters>
          </Trackpoint>
          <Trackpoint>
            <Time>2019-10-04T18:05:05.000Z</Time>
            <Position>
              <LatitudeDegrees>42.608325518667697906494140625</LatitudeDegrees>
              <LongitudeDegrees>-5.57608832605183124542236328125</LongitudeDegrees>
            </Position>
            <AltitudeMeters>863.79998779296875</AltitudeMeters>
            <DistanceMeters>NAN</DistanceMeters>
          </Trackpoint>
          <Trackpoint>
            <Time>2019-10-04T18:05:07.000Z</Time>
            <Position>
              <LatitudeDegrees>42.608177997171878814697265625</LatitudeDegrees>
              <LongitudeDegrees>-5.576042644679546356201171875</LongitudeDegrees>
            </Position>
            <AltitudeMeters>862.79998779296875</AltitudeMeters>
            <DistanceMeters>NAN</DistanceMeters>
          </Trackpoint>
          <Trackpoint>
            <Time>2019-10-04T18:05:09.000Z</Time>
            <Position>
              <LatitudeDegrees>42.60802921839058399200439453125</LatitudeDegrees>
              <LongitudeDegrees>-5.575996376574039459228515625</LongitudeDegrees>
            </Position>
            <AltitudeMeters>862.20001220703125</AltitudeMeters>
            <DistanceMeters>NAN</DistanceMeters>
          </Trackpoint>
          <Trackpoint>
            <Time>2019-10-04T18:05:12.000Z</Time>
            <Position>
              <LatitudeDegrees>42.60779343545436859130859375</LatitudeDegrees>
              <LongitudeDegrees>-5.57592093944549560546875</LongitudeDegrees>
            </Position>
            <AltitudeMeters>861</AltitudeMeters>
            <DistanceMeters>NAN</DistanceMeters>
          </Trackpoint>
          <Trackpoint>
            <Time>2019-10-04T18:05:14.000Z</Time>
            <Position>
              <LatitudeDegrees>42.607634849846363067626953125</LatitudeDegrees>
              <LongitudeDegrees>-5.575876347720623016357421875</LongitudeDegrees>
            </Position>
            <AltitudeMeters>860</AltitudeMeters>
            <DistanceMeters>NAN</DistanceMeters>
          </Trackpoint>
          <Trackpoint>
            <Time>2019-10-04T18:05:16.000Z</Time>
            <Position>
              <LatitudeDegrees>42.60747567750513553619384765625</LatitudeDegrees>
              <LongitudeDegrees>-5.5758319236338138580322265625</LongitudeDegrees>
            </Position>
            <AltitudeMeters>860</AltitudeMeters>
            <DistanceMeters>NAN</DistanceMeters>
          </Trackpoint>
          <Trackpoint>
            <Time>2019-10-04T18:05:18.000Z</Time>
            <Position>
              <LatitudeDegrees>42.6073185168206691741943359375</LatitudeDegrees>
              <LongitudeDegrees>-5.57578054256737232208251953125</LongitudeDegrees>
            </Position>
            <AltitudeMeters>859.5999755859375</AltitudeMeters>
            <DistanceMeters>NAN</DistanceMeters>
          </Trackpoint>
          <Trackpoint>
            <Time>2019-10-04T18:05:21.000Z</Time>
            <Position>
              <LatitudeDegrees>42.60707703419029712677001953125</LatitudeDegrees>
              <LongitudeDegrees>-5.5757075361907482147216796875</LongitudeDegrees>
            </Position>
            <AltitudeMeters>859.4000244140625</AltitudeMeters>
            <DistanceMeters>NAN</DistanceMeters>
          </Trackpoint>
          <Trackpoint>
            <Time>2019-10-04T18:05:23.000Z</Time>
            <Position>
              <LatitudeDegrees>42.60691476054489612579345703125</LatitudeDegrees>
              <LongitudeDegrees>-5.57565967552363872528076171875</LongitudeDegrees>
            </Position>
            <AltitudeMeters>858.5999755859375</AltitudeMeters>
            <DistanceMeters>NAN</DistanceMeters>
          </Trackpoint>
          <Trackpoint>
            <Time>2019-10-04T18:05:26.000Z</Time>
            <Position>
              <LatitudeDegrees>42.6066700927913188934326171875</LatitudeDegrees>
              <LongitudeDegrees>-5.57558759115636348724365234375</LongitudeDegrees>
            </Position>
            <AltitudeMeters>857.5999755859375</AltitudeMeters>
            <DistanceMeters>NAN</DistanceMeters>
          </Trackpoint>
          <Trackpoint>
            <Time>2019-10-04T18:05:29.000Z</Time>
            <Position>
              <LatitudeDegrees>42.60642576031386852264404296875</LatitudeDegrees>
              <LongitudeDegrees>-5.5755170993506908416748046875</LongitudeDegrees>
            </Position>
            <AltitudeMeters>856.79998779296875</AltitudeMeters>
            <DistanceMeters>NAN</DistanceMeters>
          </Trackpoint>
          <Trackpoint>
            <Time>2019-10-04T18:05:30.000Z</Time>
            <Position>
              <LatitudeDegrees>42.60634361766278743743896484375</LatitudeDegrees>
              <LongitudeDegrees>-5.57549069635570049285888671875</LongitudeDegrees>
            </Position>
            <AltitudeMeters>856.5999755859375</AltitudeMeters>
            <DistanceMeters>NAN</DistanceMeters>
          </Trackpoint>
          <Trackpoint>
            <Time>2019-10-04T18:05:35.000Z</Time>
            <Position>
              <LatitudeDegrees>42.6059851236641407012939453125</LatitudeDegrees>
              <LongitudeDegrees>-5.5753712542355060577392578125</LongitudeDegrees>
            </Position>
            <AltitudeMeters>856.4000244140625</AltitudeMeters>
            <DistanceMeters>NAN</DistanceMeters>
          </Trackpoint>
          <Trackpoint>
            <Time>2019-10-04T18:05:36.000Z</Time>
            <Position>
              <LatitudeDegrees>42.6059180684387683868408203125</LatitudeDegrees>
              <LongitudeDegrees>-5.57535323314368724822998046875</LongitudeDegrees>
            </Position>
            <AltitudeMeters>856</AltitudeMeters>
            <DistanceMeters>NAN</DistanceMeters>
          </Trackpoint>
          <Trackpoint>
            <Time>2019-10-04T18:05:38.000Z</Time>
            <Position>
              <LatitudeDegrees>42.6057757437229156494140625</LatitudeDegrees>
              <LongitudeDegrees>-5.57530629448592662811279296875</LongitudeDegrees>
            </Position>
            <AltitudeMeters>855</AltitudeMeters>
            <DistanceMeters>NAN</DistanceMeters>
          </Trackpoint>
          <Trackpoint>
            <Time>2019-10-04T18:05:39.000Z</Time>
            <Position>
              <LatitudeDegrees>42.60569938458502292633056640625</LatitudeDegrees>
              <LongitudeDegrees>-5.575279891490936279296875</LongitudeDegrees>
            </Position>
            <AltitudeMeters>854.20001220703125</AltitudeMeters>
            <DistanceMeters>NAN</DistanceMeters>
          </Trackpoint>
          <Trackpoint>
            <Time>2019-10-04T18:05:40.000Z</Time>
            <Position>
              <LatitudeDegrees>42.605626881122589111328125</LatitudeDegrees>
              <LongitudeDegrees>-5.57525449432432651519775390625</LongitudeDegrees>
            </Position>
            <AltitudeMeters>853.20001220703125</AltitudeMeters>
            <DistanceMeters>NAN</DistanceMeters>
          </Trackpoint>
          <Trackpoint>
            <Time>2019-10-04T18:05:41.000Z</Time>
            <Position>
              <LatitudeDegrees>42.60555521585047245025634765625</LatitudeDegrees>
              <LongitudeDegrees>-5.5752297677099704742431640625</LongitudeDegrees>
            </Position>
            <AltitudeMeters>852.5999755859375</AltitudeMeters>
            <DistanceMeters>NAN</DistanceMeters>
          </Trackpoint>
          <Trackpoint>
            <Time>2019-10-04T18:05:42.000Z</Time>
            <Position>
              <LatitudeDegrees>42.6054832153022289276123046875</LatitudeDegrees>
              <LongitudeDegrees>-5.5752061307430267333984375</LongitudeDegrees>
            </Position>
            <AltitudeMeters>853</AltitudeMeters>
            <DistanceMeters>NAN</DistanceMeters>
          </Trackpoint>
          <Trackpoint>
            <Time>2019-10-04T18:05:43.000Z</Time>
            <Position>
              <LatitudeDegrees>42.6054050959646701812744140625</LatitudeDegrees>
              <LongitudeDegrees>-5.575177632272243499755859375</LongitudeDegrees>
            </Position>
            <AltitudeMeters>852.5999755859375</AltitudeMeters>
            <DistanceMeters>NAN</DistanceMeters>
          </Trackpoint>
          <Trackpoint>
            <Time>2019-10-04T18:05:44.000Z</Time>
            <Position>
              <LatitudeDegrees>42.60531951673328876495361328125</LatitudeDegrees>
              <LongitudeDegrees>-5.57515181601047515869140625</LongitudeDegrees>
            </Position>
            <AltitudeMeters>852</AltitudeMeters>
            <DistanceMeters>NAN</DistanceMeters>
          </Trackpoint>
          <Trackpoint>
            <Time>2019-10-04T18:05:46.000Z</Time>
            <Position>
              <LatitudeDegrees>42.60515925474464893341064453125</LatitudeDegrees>
              <LongitudeDegrees>-5.57509473524987697601318359375</LongitudeDegrees>
            </Position>
            <AltitudeMeters>850.79998779296875</AltitudeMeters>
            <DistanceMeters>NAN</DistanceMeters>
          </Trackpoint>
          <Trackpoint>
            <Time>2019-10-04T18:05:52.000Z</Time>
            <Position>
              <LatitudeDegrees>42.60473881848156452178955078125</LatitudeDegrees>
              <LongitudeDegrees>-5.574952326714992523193359375</LongitudeDegrees>
            </Position>
            <AltitudeMeters>850.20001220703125</AltitudeMeters>
            <DistanceMeters>NAN</DistanceMeters>
          </Trackpoint>
          <Trackpoint>
            <Time>2019-10-04T18:05:53.000Z</Time>
            <Position>
              <LatitudeDegrees>42.60467947460711002349853515625</LatitudeDegrees>
              <LongitudeDegrees>-5.57493145577609539031982421875</LongitudeDegrees>
            </Position>
            <AltitudeMeters>849.5999755859375</AltitudeMeters>
            <DistanceMeters>NAN</DistanceMeters>
          </Trackpoint>
          <Trackpoint>
            <Time>2019-10-04T18:05:54.000Z</Time>
            <Position>
              <LatitudeDegrees>42.60462147183716297149658203125</LatitudeDegrees>
              <LongitudeDegrees>-5.5749125964939594268798828125</LongitudeDegrees>
            </Position>
            <AltitudeMeters>849.20001220703125</AltitudeMeters>
            <DistanceMeters>NAN</DistanceMeters>
          </Trackpoint>
          <Trackpoint>
            <Time>2019-10-04T18:05:55.000Z</Time>
            <Position>
              <LatitudeDegrees>42.6045615412294864654541015625</LatitudeDegrees>
              <LongitudeDegrees>-5.5748951621353626251220703125</LongitudeDegrees>
            </Position>
            <AltitudeMeters>848.79998779296875</AltitudeMeters>
            <DistanceMeters>NAN</DistanceMeters>
          </Trackpoint>
          <Trackpoint>
            <Time>2019-10-04T18:05:56.000Z</Time>
            <Position>
              <LatitudeDegrees>42.6045035384595394134521484375</LatitudeDegrees>
              <LongitudeDegrees>-5.5748800747096538543701171875</LongitudeDegrees>
            </Position>
            <AltitudeMeters>848.4000244140625</AltitudeMeters>
            <DistanceMeters>NAN</DistanceMeters>
          </Trackpoint>
          <Trackpoint>
            <Time>2019-10-04T18:05:57.000Z</Time>
            <Position>
              <LatitudeDegrees>42.604444362223148345947265625</LatitudeDegrees>
              <LongitudeDegrees>-5.57487613521516323089599609375</LongitudeDegrees>
            </Position>
            <AltitudeMeters>848.4000244140625</AltitudeMeters>
            <DistanceMeters>NAN</DistanceMeters>
          </Trackpoint>
          <Trackpoint>
            <Time>2019-10-04T18:05:58.000Z</Time>
            <Position>
              <LatitudeDegrees>42.60438225232064723968505859375</LatitudeDegrees>
              <LongitudeDegrees>-5.57489189319312572479248046875</LongitudeDegrees>
            </Position>
            <AltitudeMeters>848.4000244140625</AltitudeMeters>
            <DistanceMeters>NAN</DistanceMeters>
          </Trackpoint>
          <Trackpoint>
            <Time>2019-10-04T18:06:01.000Z</Time>
            <Position>
              <LatitudeDegrees>42.60422517545521259307861328125</LatitudeDegrees>
              <LongitudeDegrees>-5.5750225670635700225830078125</LongitudeDegrees>
            </Position>
            <AltitudeMeters>847.4000244140625</AltitudeMeters>
            <DistanceMeters>NAN</DistanceMeters>
          </Trackpoint>
          <Trackpoint>
            <Time>2019-10-04T18:06:04.000Z</Time>
            <Position>
              <LatitudeDegrees>42.60406759567558765411376953125</LatitudeDegrees>
              <LongitudeDegrees>-5.5749246664345264434814453125</LongitudeDegrees>
            </Position>
            <AltitudeMeters>847.5999755859375</AltitudeMeters>
            <DistanceMeters>NAN</DistanceMeters>
          </Trackpoint>
          <Trackpoint>
            <Time>2019-10-04T18:06:07.000Z</Time>
            <Position>
              <LatitudeDegrees>42.60403239168226718902587890625</LatitudeDegrees>
              <LongitudeDegrees>-5.5746976844966411590576171875</LongitudeDegrees>
            </Position>
            <AltitudeMeters>847.4000244140625</AltitudeMeters>
            <DistanceMeters>NAN</DistanceMeters>
          </Trackpoint>
          <Trackpoint>
            <Time>2019-10-04T18:06:09.000Z</Time>
            <Position>
              <LatitudeDegrees>42.60399718768894672393798828125</LatitudeDegrees>
              <LongitudeDegrees>-5.57455862872302532196044921875</LongitudeDegrees>
            </Position>
            <AltitudeMeters>847.20001220703125</AltitudeMeters>
            <DistanceMeters>NAN</DistanceMeters>
          </Trackpoint>
          <Trackpoint>
            <Time>2019-10-04T18:06:12.000Z</Time>
            <Position>
              <LatitudeDegrees>42.603945471346378326416015625</LatitudeDegrees>
              <LongitudeDegrees>-5.5743665993213653564453125</LongitudeDegrees>
            </Position>
            <AltitudeMeters>847.20001220703125</AltitudeMeters>
            <DistanceMeters>NAN</DistanceMeters>
          </Trackpoint>
          <Trackpoint>
            <Time>2019-10-04T18:06:15.000Z</Time>
            <Position>
              <LatitudeDegrees>42.60392074473202228546142578125</LatitudeDegrees>
              <LongitudeDegrees>-5.574253611266613006591796875</LongitudeDegrees>
            </Position>
            <AltitudeMeters>847.20001220703125</AltitudeMeters>
            <DistanceMeters>NAN</DistanceMeters>
          </Trackpoint>
          <Trackpoint>
            <Time>2019-10-04T18:06:17.000Z</Time>
            <Position>
              <LatitudeDegrees>42.60389425791800022125244140625</LatitudeDegrees>
              <LongitudeDegrees>-5.5741649307310581207275390625</LongitudeDegrees>
            </Position>
            <AltitudeMeters>846.79998779296875</AltitudeMeters>
            <DistanceMeters>NAN</DistanceMeters>
          </Trackpoint>
          <Trackpoint>
            <Time>2019-10-04T18:06:20.000Z</Time>
            <Position>
              <LatitudeDegrees>42.6038685254752635955810546875</LatitudeDegrees>
              <LongitudeDegrees>-5.5740096978843212127685546875</LongitudeDegrees>
            </Position>
            <AltitudeMeters>846.5999755859375</AltitudeMeters>
            <DistanceMeters>NAN</DistanceMeters>
          </Trackpoint>
          <Trackpoint>
            <Time>2019-10-04T18:06:21.000Z</Time>
            <Position>
              <LatitudeDegrees>42.603856287896633148193359375</LatitudeDegrees>
              <LongitudeDegrees>-5.57395747862756252288818359375</LongitudeDegrees>
            </Position>
            <AltitudeMeters>846.5999755859375</AltitudeMeters>
            <DistanceMeters>NAN</DistanceMeters>
          </Trackpoint>
          <Trackpoint>
            <Time>2019-10-04T18:06:23.000Z</Time>
            <Position>
              <LatitudeDegrees>42.6038346625864505767822265625</LatitudeDegrees>
              <LongitudeDegrees>-5.5738380365073680877685546875</LongitudeDegrees>
            </Position>
            <AltitudeMeters>846.4000244140625</AltitudeMeters>
            <DistanceMeters>NAN</DistanceMeters>
          </Trackpoint>
          <Trackpoint>
            <Time>2019-10-04T18:06:24.000Z</Time>
            <Position>
              <LatitudeDegrees>42.60382175445556640625</LatitudeDegrees>
              <LongitudeDegrees>-5.57376787997782230377197265625</LongitudeDegrees>
            </Position>
            <AltitudeMeters>846</AltitudeMeters>
            <DistanceMeters>NAN</DistanceMeters>
          </Trackpoint>
          <Trackpoint>
            <Time>2019-10-04T18:06:26.000Z</Time>
            <Position>
              <LatitudeDegrees>42.60379023849964141845703125</LatitudeDegrees>
              <LongitudeDegrees>-5.57364366017282009124755859375</LongitudeDegrees>
            </Position>
            <AltitudeMeters>845.79998779296875</AltitudeMeters>
            <DistanceMeters>NAN</DistanceMeters>
          </Trackpoint>
          <Trackpoint>
            <Time>2019-10-04T18:06:27.000Z</Time>
            <Position>
              <LatitudeDegrees>42.60376802645623683929443359375</LatitudeDegrees>
              <LongitudeDegrees>-5.57358146645128726959228515625</LongitudeDegrees>
            </Position>
            <AltitudeMeters>845.79998779296875</AltitudeMeters>
            <DistanceMeters>NAN</DistanceMeters>
          </Trackpoint>
          <Trackpoint>
            <Time>2019-10-04T18:06:29.000Z</Time>
            <Position>
              <LatitudeDegrees>42.60373055934906005859375</LatitudeDegrees>
              <LongitudeDegrees>-5.57344836182892322540283203125</LongitudeDegrees>
            </Position>
            <AltitudeMeters>845.5999755859375</AltitudeMeters>
            <DistanceMeters>NAN</DistanceMeters>
          </Trackpoint>
          <Trackpoint>
            <Time>2019-10-04T18:06:30.000Z</Time>
            <Position>
              <LatitudeDegrees>42.60371354408562183380126953125</LatitudeDegrees>
              <LongitudeDegrees>-5.5733817256987094879150390625</LongitudeDegrees>
            </Position>
            <AltitudeMeters>845.20001220703125</AltitudeMeters>
            <DistanceMeters>NAN</DistanceMeters>
          </Trackpoint>
          <Trackpoint>
            <Time>2019-10-04T18:06:32.000Z</Time>
            <Position>
              <LatitudeDegrees>42.60367230512201786041259765625</LatitudeDegrees>
              <LongitudeDegrees>-5.57324945926666259765625</LongitudeDegrees>
            </Position>
            <AltitudeMeters>845.4000244140625</AltitudeMeters>
            <DistanceMeters>NAN</DistanceMeters>
          </Trackpoint>
          <Trackpoint>
            <Time>2019-10-04T18:06:34.000Z</Time>
            <Position>
              <LatitudeDegrees>42.6036284677684307098388671875</LatitudeDegrees>
              <LongitudeDegrees>-5.57312029413878917694091796875</LongitudeDegrees>
            </Position>
            <AltitudeMeters>845.20001220703125</AltitudeMeters>
            <DistanceMeters>NAN</DistanceMeters>
          </Trackpoint>
          <Trackpoint>
            <Time>2019-10-04T18:06:38.000Z</Time>
            <Position>
              <LatitudeDegrees>42.60355328209698200225830078125</LatitudeDegrees>
              <LongitudeDegrees>-5.5728794820606708526611328125</LongitudeDegrees>
            </Position>
            <AltitudeMeters>846</AltitudeMeters>
            <DistanceMeters>NAN</DistanceMeters>
          </Trackpoint>
          <Trackpoint>
            <Time>2019-10-04T18:06:39.000Z</Time>
            <Position>
              <LatitudeDegrees>42.60353132151067256927490234375</LatitudeDegrees>
              <LongitudeDegrees>-5.57282558642327785491943359375</LongitudeDegrees>
            </Position>
            <AltitudeMeters>845.79998779296875</AltitudeMeters>
            <DistanceMeters>NAN</DistanceMeters>
          </Trackpoint>
          <Trackpoint>
            <Time>2019-10-04T18:06:47.000Z</Time>
            <Position>
              <LatitudeDegrees>42.60337692685425281524658203125</LatitudeDegrees>
              <LongitudeDegrees>-5.572361983358860015869140625</LongitudeDegrees>
            </Position>
            <AltitudeMeters>845.4000244140625</AltitudeMeters>
            <DistanceMeters>NAN</DistanceMeters>
          </Trackpoint>
          <Trackpoint>
            <Time>2019-10-04T18:06:52.000Z</Time>
            <Position>
              <LatitudeDegrees>42.60327064432203769683837890625</LatitudeDegrees>
              <LongitudeDegrees>-5.57206995785236358642578125</LongitudeDegrees>
            </Position>
            <AltitudeMeters>844.5999755859375</AltitudeMeters>
            <DistanceMeters>NAN</DistanceMeters>
          </Trackpoint>
          <Trackpoint>
            <Time>2019-10-04T18:06:55.000Z</Time>
            <Position>
              <LatitudeDegrees>42.60322487913072109222412109375</LatitudeDegrees>
              <LongitudeDegrees>-5.571887902915477752685546875</LongitudeDegrees>
            </Position>
            <AltitudeMeters>846</AltitudeMeters>
            <DistanceMeters>NAN</DistanceMeters>
          </Trackpoint>
          <Trackpoint>
            <Time>2019-10-04T18:07:05.000Z</Time>
            <Position>
              <LatitudeDegrees>42.60305321775376796722412109375</LatitudeDegrees>
              <LongitudeDegrees>-5.57128801010549068450927734375</LongitudeDegrees>
            </Position>
            <AltitudeMeters>846.4000244140625</AltitudeMeters>
            <DistanceMeters>NAN</DistanceMeters>
          </Trackpoint>
          <Trackpoint>
            <Time>2019-10-04T18:07:08.000Z</Time>
            <Position>
              <LatitudeDegrees>42.60303025133907794952392578125</LatitudeDegrees>
              <LongitudeDegrees>-5.57121257297694683074951171875</LongitudeDegrees>
            </Position>
            <AltitudeMeters>846.4000244140625</AltitudeMeters>
            <DistanceMeters>NAN</DistanceMeters>
          </Trackpoint>
          <Trackpoint>
            <Time>2019-10-04T18:07:12.000Z</Time>
            <Position>
              <LatitudeDegrees>42.6030259765684604644775390625</LatitudeDegrees>
              <LongitudeDegrees>-5.57119329459965229034423828125</LongitudeDegrees>
            </Position>
            <AltitudeMeters>846.5999755859375</AltitudeMeters>
            <DistanceMeters>NAN</DistanceMeters>
          </Trackpoint>
          <Trackpoint>
            <Time>2019-10-04T18:07:14.000Z</Time>
            <Position>
              <LatitudeDegrees>42.60302455164492130279541015625</LatitudeDegrees>
              <LongitudeDegrees>-5.57115825824439525604248046875</LongitudeDegrees>
            </Position>
            <AltitudeMeters>846.20001220703125</AltitudeMeters>
            <DistanceMeters>NAN</DistanceMeters>
          </Trackpoint>
          <Trackpoint>
            <Time>2019-10-04T18:07:18.000Z</Time>
            <Position>
              <LatitudeDegrees>42.60299152694642543792724609375</LatitudeDegrees>
              <LongitudeDegrees>-5.57106387801468372344970703125</LongitudeDegrees>
            </Position>
            <AltitudeMeters>846.20001220703125</AltitudeMeters>
            <DistanceMeters>NAN</DistanceMeters>
          </Trackpoint>
          <Trackpoint>
            <Time>2019-10-04T18:07:21.000Z</Time>
            <Position>
              <LatitudeDegrees>42.60299094021320343017578125</LatitudeDegrees>
              <LongitudeDegrees>-5.5710522271692752838134765625</LongitudeDegrees>
            </Position>
            <AltitudeMeters>846.4000244140625</AltitudeMeters>
            <DistanceMeters>NAN</DistanceMeters>
          </Trackpoint>
          <Trackpoint>
            <Time>2019-10-04T18:07:23.000Z</Time>
            <Position>
              <LatitudeDegrees>42.602987587451934814453125</LatitudeDegrees>
              <LongitudeDegrees>-5.57105331681668758392333984375</LongitudeDegrees>
            </Position>
            <AltitudeMeters>846.4000244140625</AltitudeMeters>
            <DistanceMeters>NAN</DistanceMeters>
          </Trackpoint>
          <Trackpoint>
            <Time>2019-10-04T18:07:29.000Z</Time>
            <Position>
              <LatitudeDegrees>42.6029703207314014434814453125</LatitudeDegrees>
              <LongitudeDegrees>-5.57099011726677417755126953125</LongitudeDegrees>
            </Position>
            <AltitudeMeters>846</AltitudeMeters>
            <DistanceMeters>NAN</DistanceMeters>
          </Trackpoint>
          <Trackpoint>
            <Time>2019-10-04T18:07:33.000Z</Time>
            <Position>
              <LatitudeDegrees>42.60287694633007049560546875</LatitudeDegrees>
              <LongitudeDegrees>-5.57078174315392971038818359375</LongitudeDegrees>
            </Position>
            <AltitudeMeters>845.5999755859375</AltitudeMeters>
            <DistanceMeters>NAN</DistanceMeters>
          </Trackpoint>
          <Trackpoint>
            <Time>2019-10-04T18:07:34.000Z</Time>
            <Position>
              <LatitudeDegrees>42.60285255499184131622314453125</LatitudeDegrees>
              <LongitudeDegrees>-5.5707263387739658355712890625</LongitudeDegrees>
            </Position>
            <AltitudeMeters>845.20001220703125</AltitudeMeters>
            <DistanceMeters>NAN</DistanceMeters>
          </Trackpoint>
          <Trackpoint>
            <Time>2019-10-04T18:07:38.000Z</Time>
            <Position>
              <LatitudeDegrees>42.6028020121157169342041015625</LatitudeDegrees>
              <LongitudeDegrees>-5.57056549005210399627685546875</LongitudeDegrees>
            </Position>
            <AltitudeMeters>845.4000244140625</AltitudeMeters>
            <DistanceMeters>NAN</DistanceMeters>
          </Trackpoint>
          <Trackpoint>
            <Time>2019-10-04T18:07:42.000Z</Time>
            <Position>
              <LatitudeDegrees>42.60278248228132724761962890625</LatitudeDegrees>
              <LongitudeDegrees>-5.57047982700169086456298828125</LongitudeDegrees>
            </Position>
            <AltitudeMeters>845.5999755859375</AltitudeMeters>
            <DistanceMeters>NAN</DistanceMeters>
          </Trackpoint>
          <Trackpoint>
            <Time>2019-10-04T18:07:47.000Z</Time>
            <Position>
              <LatitudeDegrees>42.60276521556079387664794921875</LatitudeDegrees>
              <LongitudeDegrees>-5.5704162083566188812255859375</LongitudeDegrees>
            </Position>
            <AltitudeMeters>845.79998779296875</AltitudeMeters>
            <DistanceMeters>NAN</DistanceMeters>
          </Trackpoint>
          <Trackpoint>
            <Time>2019-10-04T18:07:48.000Z</Time>
            <Position>
              <LatitudeDegrees>42.60276052169501781463623046875</LatitudeDegrees>
              <LongitudeDegrees>-5.57039684616029262542724609375</LongitudeDegrees>
            </Position>
            <AltitudeMeters>845.5999755859375</AltitudeMeters>
            <DistanceMeters>NAN</DistanceMeters>
          </Trackpoint>
          <Trackpoint>
            <Time>2019-10-04T18:07:52.000Z</Time>
            <Position>
              <LatitudeDegrees>42.60271442122757434844970703125</LatitudeDegrees>
              <LongitudeDegrees>-5.57025183923542499542236328125</LongitudeDegrees>
            </Position>
            <AltitudeMeters>845.20001220703125</AltitudeMeters>
            <DistanceMeters>NAN</DistanceMeters>
          </Trackpoint>
          <Trackpoint>
            <Time>2019-10-04T18:07:53.000Z</Time>
            <Position>
              <LatitudeDegrees>42.6027044467628002166748046875</LatitudeDegrees>
              <LongitudeDegrees>-5.57019735686480998992919921875</LongitudeDegrees>
            </Position>
            <AltitudeMeters>845.20001220703125</AltitudeMeters>
            <DistanceMeters>NAN</DistanceMeters>
          </Trackpoint>
          <Trackpoint>
            <Time>2019-10-04T18:07:55.000Z</Time>
            <Position>
              <LatitudeDegrees>42.6026746071875095367431640625</LatitudeDegrees>
              <LongitudeDegrees>-5.57008034549653530120849609375</LongitudeDegrees>
            </Position>
            <AltitudeMeters>845.20001220703125</AltitudeMeters>
            <DistanceMeters>NAN</DistanceMeters>
          </Trackpoint>
          <Trackpoint>
            <Time>2019-10-04T18:07:57.000Z</Time>
            <Position>
              <LatitudeDegrees>42.6026196219027042388916015625</LatitudeDegrees>
              <LongitudeDegrees>-5.5699739791452884674072265625</LongitudeDegrees>
            </Position>
            <AltitudeMeters>844.79998779296875</AltitudeMeters>
            <DistanceMeters>NAN</DistanceMeters>
          </Trackpoint>
          <Trackpoint>
            <Time>2019-10-04T18:08:01.000Z</Time>
            <Position>
              <LatitudeDegrees>42.60256807319819927215576171875</LatitudeDegrees>
              <LongitudeDegrees>-5.5697979591786861419677734375</LongitudeDegrees>
            </Position>
            <AltitudeMeters>844.4000244140625</AltitudeMeters>
            <DistanceMeters>NAN</DistanceMeters>
          </Trackpoint>
          <Trackpoint>
            <Time>2019-10-04T18:08:05.000Z</Time>
            <Position>
              <LatitudeDegrees>42.6026122458279132843017578125</LatitudeDegrees>
              <LongitudeDegrees>-5.56958757340908050537109375</LongitudeDegrees>
            </Position>
            <AltitudeMeters>844.20001220703125</AltitudeMeters>
            <DistanceMeters>NAN</DistanceMeters>
          </Trackpoint>
          <Trackpoint>
            <Time>2019-10-04T18:08:09.000Z</Time>
            <Position>
              <LatitudeDegrees>42.60268189944326877593994140625</LatitudeDegrees>
              <LongitudeDegrees>-5.56933754123747348785400390625</LongitudeDegrees>
            </Position>
            <AltitudeMeters>843</AltitudeMeters>
            <DistanceMeters>NAN</DistanceMeters>
          </Trackpoint>
          <Trackpoint>
            <Time>2019-10-04T18:08:13.000Z</Time>
            <Position>
              <LatitudeDegrees>42.6027547381818294525146484375</LatitudeDegrees>
              <LongitudeDegrees>-5.56908608414232730865478515625</LongitudeDegrees>
            </Position>
            <AltitudeMeters>842.5999755859375</AltitudeMeters>
            <DistanceMeters>NAN</DistanceMeters>
          </Trackpoint>
          <Trackpoint>
            <Time>2019-10-04T18:08:18.000Z</Time>
            <Position>
              <LatitudeDegrees>42.60285071097314357757568359375</LatitudeDegrees>
              <LongitudeDegrees>-5.5687679909169673919677734375</LongitudeDegrees>
            </Position>
            <AltitudeMeters>843</AltitudeMeters>
            <DistanceMeters>NAN</DistanceMeters>
          </Trackpoint>
          <Trackpoint>
            <Time>2019-10-04T18:08:21.000Z</Time>
            <Position>
              <LatitudeDegrees>42.60290452279150485992431640625</LatitudeDegrees>
              <LongitudeDegrees>-5.56856456212699413299560546875</LongitudeDegrees>
            </Position>
            <AltitudeMeters>842.20001220703125</AltitudeMeters>
            <DistanceMeters>NAN</DistanceMeters>
          </Trackpoint>
          <Trackpoint>
            <Time>2019-10-04T18:08:27.000Z</Time>
            <Position>
              <LatitudeDegrees>42.60301717557013034820556640625</LatitudeDegrees>
              <LongitudeDegrees>-5.5681430362164974212646484375</LongitudeDegrees>
            </Position>
            <AltitudeMeters>842.20001220703125</AltitudeMeters>
            <DistanceMeters>NAN</DistanceMeters>
          </Trackpoint>
          <Trackpoint>
            <Time>2019-10-04T18:08:28.000Z</Time>
            <Position>
              <LatitudeDegrees>42.60302941314876079559326171875</LatitudeDegrees>
              <LongitudeDegrees>-5.5680706165730953216552734375</LongitudeDegrees>
            </Position>
            <AltitudeMeters>842</AltitudeMeters>
            <DistanceMeters>NAN</DistanceMeters>
          </Trackpoint>
          <Trackpoint>
            <Time>2019-10-04T18:08:30.000Z</Time>
            <Position>
              <LatitudeDegrees>42.60303762741386890411376953125</LatitudeDegrees>
              <LongitudeDegrees>-5.56792334653437137603759765625</LongitudeDegrees>
            </Position>
            <AltitudeMeters>842</AltitudeMeters>
            <DistanceMeters>NAN</DistanceMeters>
          </Trackpoint>
          <Trackpoint>
            <Time>2019-10-04T18:08:33.000Z</Time>
            <Position>
              <LatitudeDegrees>42.6029629446566104888916015625</LatitudeDegrees>
              <LongitudeDegrees>-5.5677386932075023651123046875</LongitudeDegrees>
            </Position>
            <AltitudeMeters>841.79998779296875</AltitudeMeters>
            <DistanceMeters>NAN</DistanceMeters>
          </Trackpoint>
          <Trackpoint>
            <Time>2019-10-04T18:08:35.000Z</Time>
            <Position>
              <LatitudeDegrees>42.60286814533174037933349609375</LatitudeDegrees>
              <LongitudeDegrees>-5.56769804097712039947509765625</LongitudeDegrees>
            </Position>
            <AltitudeMeters>841.79998779296875</AltitudeMeters>
            <DistanceMeters>NAN</DistanceMeters>
          </Trackpoint>
          <Trackpoint>
            <Time>2019-10-04T18:08:36.000Z</Time>
            <Position>
              <LatitudeDegrees>42.6028204523026943206787109375</LatitudeDegrees>
              <LongitudeDegrees>-5.56767976842820644378662109375</LongitudeDegrees>
            </Position>
            <AltitudeMeters>841.79998779296875</AltitudeMeters>
            <DistanceMeters>NAN</DistanceMeters>
          </Trackpoint>
          <Trackpoint>
            <Time>2019-10-04T18:08:43.000Z</Time>
            <Position>
              <LatitudeDegrees>42.60248023085296154022216796875</LatitudeDegrees>
              <LongitudeDegrees>-5.56753107346594333648681640625</LongitudeDegrees>
            </Position>
            <AltitudeMeters>841.5999755859375</AltitudeMeters>
            <DistanceMeters>NAN</DistanceMeters>
          </Trackpoint>
          <Trackpoint>
            <Time>2019-10-04T18:08:45.000Z</Time>
            <Position>
              <LatitudeDegrees>42.602386437356472015380859375</LatitudeDegrees>
              <LongitudeDegrees>-5.5674936063587665557861328125</LongitudeDegrees>
            </Position>
            <AltitudeMeters>841.5999755859375</AltitudeMeters>
            <DistanceMeters>NAN</DistanceMeters>
          </Trackpoint>
          <Trackpoint>
            <Time>2019-10-04T18:08:52.000Z</Time>
            <Position>
              <LatitudeDegrees>42.60209281928837299346923828125</LatitudeDegrees>
              <LongitudeDegrees>-5.56736410595476627349853515625</LongitudeDegrees>
            </Position>
            <AltitudeMeters>841.4000244140625</AltitudeMeters>
            <DistanceMeters>NAN</DistanceMeters>
          </Trackpoint>
          <Trackpoint>
            <Time>2019-10-04T18:08:55.000Z</Time>
            <Position>
              <LatitudeDegrees>42.6019970141351222991943359375</LatitudeDegrees>
              <LongitudeDegrees>-5.56733141653239727020263671875</LongitudeDegrees>
            </Position>
            <AltitudeMeters>842</AltitudeMeters>
            <DistanceMeters>NAN</DistanceMeters>
          </Trackpoint>
          <Trackpoint>
            <Time>2019-10-04T18:08:56.000Z</Time>
            <Position>
              <LatitudeDegrees>42.6019591279327869415283203125</LatitudeDegrees>
              <LongitudeDegrees>-5.5673142336308956146240234375</LongitudeDegrees>
            </Position>
            <AltitudeMeters>841.79998779296875</AltitudeMeters>
            <DistanceMeters>NAN</DistanceMeters>
          </Trackpoint>
          <Trackpoint>
            <Time>2019-10-04T18:08:59.000Z</Time>
            <Position>
              <LatitudeDegrees>42.60184354148805141448974609375</LatitudeDegrees>
              <LongitudeDegrees>-5.56727509014308452606201171875</LongitudeDegrees>
            </Position>
            <AltitudeMeters>841.5999755859375</AltitudeMeters>
            <DistanceMeters>NAN</DistanceMeters>
          </Trackpoint>
          <Trackpoint>
            <Time>2019-10-04T18:09:02.000Z</Time>
            <Position>
              <LatitudeDegrees>42.60173222981393337249755859375</LatitudeDegrees>
              <LongitudeDegrees>-5.5672158300876617431640625</LongitudeDegrees>
            </Position>
            <AltitudeMeters>842</AltitudeMeters>
            <DistanceMeters>NAN</DistanceMeters>
          </Trackpoint>
          <Trackpoint>
            <Time>2019-10-04T18:09:03.000Z</Time>
            <Position>
              <LatitudeDegrees>42.6017210818827152252197265625</LatitudeDegrees>
              <LongitudeDegrees>-5.56720149703323841094970703125</LongitudeDegrees>
            </Position>
            <AltitudeMeters>842</AltitudeMeters>
            <DistanceMeters>NAN</DistanceMeters>
          </Trackpoint>
          <Trackpoint>
            <Time>2019-10-04T18:09:07.000Z</Time>
            <Position>
              <LatitudeDegrees>42.6016151346266269683837890625</LatitudeDegrees>
              <LongitudeDegrees>-5.56719479151070117950439453125</LongitudeDegrees>
            </Position>
            <AltitudeMeters>842</AltitudeMeters>
            <DistanceMeters>NAN</DistanceMeters>
          </Trackpoint>
          <Trackpoint>
            <Time>2019-10-04T18:09:08.000Z</Time>
            <Position>
              <LatitudeDegrees>42.60158755816519260406494140625</LatitudeDegrees>
              <LongitudeDegrees>-5.56719915010035037994384765625</LongitudeDegrees>
            </Position>
            <AltitudeMeters>842</AltitudeMeters>
            <DistanceMeters>NAN</DistanceMeters>
          </Trackpoint>
          <Trackpoint>
            <Time>2019-10-04T18:09:13.000Z</Time>
            <Position>
              <LatitudeDegrees>42.60145646519958972930908203125</LatitudeDegrees>
              <LongitudeDegrees>-5.56716151535511016845703125</LongitudeDegrees>
            </Position>
            <AltitudeMeters>841.5999755859375</AltitudeMeters>
            <DistanceMeters>NAN</DistanceMeters>
          </Trackpoint>
          <Trackpoint>
            <Time>2019-10-04T18:09:18.000Z</Time>
            <Position>
              <LatitudeDegrees>42.60130173526704311370849609375</LatitudeDegrees>
              <LongitudeDegrees>-5.5671004951000213623046875</LongitudeDegrees>
            </Position>
            <AltitudeMeters>841.5999755859375</AltitudeMeters>
            <DistanceMeters>NAN</DistanceMeters>
          </Trackpoint>
          <Trackpoint>
            <Time>2019-10-04T18:09:19.000Z</Time>
            <Position>
              <LatitudeDegrees>42.6012550480663776397705078125</LatitudeDegrees>
              <LongitudeDegrees>-5.56708599440753459930419921875</LongitudeDegrees>
            </Position>
            <AltitudeMeters>841.79998779296875</AltitudeMeters>
            <DistanceMeters>NAN</DistanceMeters>
          </Trackpoint>
          <Trackpoint>
            <Time>2019-10-04T18:09:27.000Z</Time>
            <Position>
              <LatitudeDegrees>42.60104122571647167205810546875</LatitudeDegrees>
              <LongitudeDegrees>-5.56702950038015842437744140625</LongitudeDegrees>
            </Position>
            <AltitudeMeters>841.5999755859375</AltitudeMeters>
            <DistanceMeters>NAN</DistanceMeters>
          </Trackpoint>
          <Trackpoint>
            <Time>2019-10-04T18:09:33.000Z</Time>
            <Position>
              <LatitudeDegrees>42.600842826068401336669921875</LatitudeDegrees>
              <LongitudeDegrees>-5.56696998886764049530029296875</LongitudeDegrees>
            </Position>
            <AltitudeMeters>841</AltitudeMeters>
            <DistanceMeters>NAN</DistanceMeters>
          </Trackpoint>
          <Trackpoint>
            <Time>2019-10-04T18:09:34.000Z</Time>
            <Position>
              <LatitudeDegrees>42.60079664178192615509033203125</LatitudeDegrees>
              <LongitudeDegrees>-5.5669420771300792694091796875</LongitudeDegrees>
            </Position>
            <AltitudeMeters>840.79998779296875</AltitudeMeters>
            <DistanceMeters>NAN</DistanceMeters>
          </Trackpoint>
          <Trackpoint>
            <Time>2019-10-04T18:09:36.000Z</Time>
            <Position>
              <LatitudeDegrees>42.6007236354053020477294921875</LatitudeDegrees>
              <LongitudeDegrees>-5.56690108962357044219970703125</LongitudeDegrees>
            </Position>
            <AltitudeMeters>840.5999755859375</AltitudeMeters>
            <DistanceMeters>NAN</DistanceMeters>
          </Trackpoint>
          <Trackpoint>
            <Time>2019-10-04T18:09:38.000Z</Time>
            <Position>
              <LatitudeDegrees>42.6006465218961238861083984375</LatitudeDegrees>
              <LongitudeDegrees>-5.56687996722757816314697265625</LongitudeDegrees>
            </Position>
            <AltitudeMeters>840.5999755859375</AltitudeMeters>
            <DistanceMeters>NAN</DistanceMeters>
          </Trackpoint>
          <Trackpoint>
            <Time>2019-10-04T18:09:39.000Z</Time>
            <Position>
              <LatitudeDegrees>42.60060402564704418182373046875</LatitudeDegrees>
              <LongitudeDegrees>-5.5668592639267444610595703125</LongitudeDegrees>
            </Position>
            <AltitudeMeters>840.5999755859375</AltitudeMeters>
            <DistanceMeters>NAN</DistanceMeters>
          </Trackpoint>
          <Trackpoint>
            <Time>2019-10-04T18:09:40.000Z</Time>
            <Position>
              <LatitudeDegrees>42.60055507533252239227294921875</LatitudeDegrees>
              <LongitudeDegrees>-5.566844008862972259521484375</LongitudeDegrees>
            </Position>
            <AltitudeMeters>840.5999755859375</AltitudeMeters>
            <DistanceMeters>NAN</DistanceMeters>
          </Trackpoint>
          <Trackpoint>
            <Time>2019-10-04T18:09:41.000Z</Time>
            <Position>
              <LatitudeDegrees>42.6005097292363643646240234375</LatitudeDegrees>
              <LongitudeDegrees>-5.56682062335312366485595703125</LongitudeDegrees>
            </Position>
            <AltitudeMeters>840.5999755859375</AltitudeMeters>
            <DistanceMeters>NAN</DistanceMeters>
          </Trackpoint>
          <Trackpoint>
            <Time>2019-10-04T18:09:42.000Z</Time>
            <Position>
              <LatitudeDegrees>42.60046874172985553741455078125</LatitudeDegrees>
              <LongitudeDegrees>-5.56679329834878444671630859375</LongitudeDegrees>
            </Position>
            <AltitudeMeters>840.5999755859375</AltitudeMeters>
            <DistanceMeters>NAN</DistanceMeters>
          </Trackpoint>
          <Trackpoint>
            <Time>2019-10-04T18:09:43.000Z</Time>
            <Position>
              <LatitudeDegrees>42.60042817331850528717041015625</LatitudeDegrees>
              <LongitudeDegrees>-5.56677184067666530609130859375</LongitudeDegrees>
            </Position>
            <AltitudeMeters>840.4000244140625</AltitudeMeters>
            <DistanceMeters>NAN</DistanceMeters>
          </Trackpoint>
          <Trackpoint>
            <Time>2019-10-04T18:09:46.000Z</Time>
            <Position>
              <LatitudeDegrees>42.60031837038695812225341796875</LatitudeDegrees>
              <LongitudeDegrees>-5.5667008459568023681640625</LongitudeDegrees>
            </Position>
            <AltitudeMeters>840</AltitudeMeters>
            <DistanceMeters>NAN</DistanceMeters>
          </Trackpoint>
          <Trackpoint>
            <Time>2019-10-04T18:09:48.000Z</Time>
            <Position>
              <LatitudeDegrees>42.6002421788871288299560546875</LatitudeDegrees>
              <LongitudeDegrees>-5.5666336230933666229248046875</LongitudeDegrees>
            </Position>
            <AltitudeMeters>839.5999755859375</AltitudeMeters>
            <DistanceMeters>NAN</DistanceMeters>
          </Trackpoint>
          <Trackpoint>
            <Time>2019-10-04T18:09:50.000Z</Time>
            <Position>
              <LatitudeDegrees>42.60016481392085552215576171875</LatitudeDegrees>
              <LongitudeDegrees>-5.56657008826732635498046875</LongitudeDegrees>
            </Position>
            <AltitudeMeters>839.4000244140625</AltitudeMeters>
            <DistanceMeters>NAN</DistanceMeters>
          </Trackpoint>
          <Trackpoint>
            <Time>2019-10-04T18:09:57.000Z</Time>
            <Position>
              <LatitudeDegrees>42.59987832047045230865478515625</LatitudeDegrees>
              <LongitudeDegrees>-5.56636087596416473388671875</LongitudeDegrees>
            </Position>
            <AltitudeMeters>838.79998779296875</AltitudeMeters>
            <DistanceMeters>NAN</DistanceMeters>
          </Trackpoint>
          <Trackpoint>
            <Time>2019-10-04T18:10:02.000Z</Time>
            <Position>
              <LatitudeDegrees>42.5997087545692920684814453125</LatitudeDegrees>
              <LongitudeDegrees>-5.5662534199655055999755859375</LongitudeDegrees>
            </Position>
            <AltitudeMeters>839.5999755859375</AltitudeMeters>
            <DistanceMeters>NAN</DistanceMeters>
          </Trackpoint>
          <Trackpoint>
            <Time>2019-10-04T18:10:05.000Z</Time>
            <Position>
              <LatitudeDegrees>42.5996883027255535125732421875</LatitudeDegrees>
              <LongitudeDegrees>-5.566310249269008636474609375</LongitudeDegrees>
            </Position>
            <AltitudeMeters>839.4000244140625</AltitudeMeters>
            <DistanceMeters>NAN</DistanceMeters>
          </Trackpoint>
          <Trackpoint>
            <Time>2019-10-04T18:10:08.000Z</Time>
            <Position>
              <LatitudeDegrees>42.599632479250431060791015625</LatitudeDegrees>
              <LongitudeDegrees>-5.566353164613246917724609375</LongitudeDegrees>
            </Position>
            <AltitudeMeters>840.20001220703125</AltitudeMeters>
            <DistanceMeters>NAN</DistanceMeters>
          </Trackpoint>
          <Trackpoint>
            <Time>2019-10-04T18:10:09.000Z</Time>
            <Position>
              <LatitudeDegrees>42.599602974951267242431640625</LatitudeDegrees>
              <LongitudeDegrees>-5.56635777465999126434326171875</LongitudeDegrees>
            </Position>
            <AltitudeMeters>840</AltitudeMeters>
            <DistanceMeters>NAN</DistanceMeters>
          </Trackpoint>
          <Trackpoint>
            <Time>2019-10-04T18:10:10.000Z</Time>
            <Position>
              <LatitudeDegrees>42.59957103990018367767333984375</LatitudeDegrees>
              <LongitudeDegrees>-5.56636548601090908050537109375</LongitudeDegrees>
            </Position>
            <AltitudeMeters>839.79998779296875</AltitudeMeters>
            <DistanceMeters>NAN</DistanceMeters>
          </Trackpoint>
          <Trackpoint>
            <Time>2019-10-04T18:10:12.000Z</Time>
            <Position>
              <LatitudeDegrees>42.59951136074960231781005859375</LatitudeDegrees>
              <LongitudeDegrees>-5.5663791485130786895751953125</LongitudeDegrees>
            </Position>
            <AltitudeMeters>839.79998779296875</AltitudeMeters>
            <DistanceMeters>NAN</DistanceMeters>
          </Trackpoint>
          <Trackpoint>
            <Time>2019-10-04T18:10:15.000Z</Time>
            <Position>
              <LatitudeDegrees>42.5994551181793212890625</LatitudeDegrees>
              <LongitudeDegrees>-5.5664192140102386474609375</LongitudeDegrees>
            </Position>
            <AltitudeMeters>840</AltitudeMeters>
            <DistanceMeters>NAN</DistanceMeters>
          </Trackpoint>
          <Trackpoint>
            <Time>2019-10-04T18:10:17.000Z</Time>
            <Position>
              <LatitudeDegrees>42.5994375161826610565185546875</LatitudeDegrees>
              <LongitudeDegrees>-5.56645014323294162750244140625</LongitudeDegrees>
            </Position>
            <AltitudeMeters>840.5999755859375</AltitudeMeters>
            <DistanceMeters>NAN</DistanceMeters>
          </Trackpoint>
          <Trackpoint>
            <Time>2019-10-04T18:10:20.000Z</Time>
            <Position>
              <LatitudeDegrees>42.59938797913491725921630859375</LatitudeDegrees>
              <LongitudeDegrees>-5.566466152667999267578125</LongitudeDegrees>
            </Position>
            <AltitudeMeters>840.79998779296875</AltitudeMeters>
            <DistanceMeters>NAN</DistanceMeters>
          </Trackpoint>
          <Trackpoint>
            <Time>2019-10-04T18:10:21.000Z</Time>
            <Position>
              <LatitudeDegrees>42.59937540628015995025634765625</LatitudeDegrees>
              <LongitudeDegrees>-5.56647528894245624542236328125</LongitudeDegrees>
            </Position>
            <AltitudeMeters>841</AltitudeMeters>
            <DistanceMeters>NAN</DistanceMeters>
          </Trackpoint>
          <Trackpoint>
            <Time>2019-10-04T18:10:25.000Z</Time>
            <Position>
              <LatitudeDegrees>42.59923777543008327484130859375</LatitudeDegrees>
              <LongitudeDegrees>-5.5663521587848663330078125</LongitudeDegrees>
            </Position>
            <AltitudeMeters>840.79998779296875</AltitudeMeters>
            <DistanceMeters>NAN</DistanceMeters>
          </Trackpoint>
          <Trackpoint>
            <Time>2019-10-04T18:10:28.000Z</Time>
            <Position>
              <LatitudeDegrees>42.5992016494274139404296875</LatitudeDegrees>
              <LongitudeDegrees>-5.566337406635284423828125</LongitudeDegrees>
            </Position>
            <AltitudeMeters>841.20001220703125</AltitudeMeters>
            <DistanceMeters>NAN</DistanceMeters>
          </Trackpoint>
          <Trackpoint>
            <Time>2019-10-04T18:10:32.000Z</Time>
            <Position>
              <LatitudeDegrees>42.59913920424878597259521484375</LatitudeDegrees>
              <LongitudeDegrees>-5.56634369306266307830810546875</LongitudeDegrees>
            </Position>
            <AltitudeMeters>841.5999755859375</AltitudeMeters>
            <DistanceMeters>NAN</DistanceMeters>
          </Trackpoint>
          <Trackpoint>
            <Time>2019-10-04T18:10:33.000Z</Time>
            <Position>
              <LatitudeDegrees>42.59912679903209209442138671875</LatitudeDegrees>
              <LongitudeDegrees>-5.56634344160556793212890625</LongitudeDegrees>
            </Position>
            <AltitudeMeters>841.79998779296875</AltitudeMeters>
            <DistanceMeters>NAN</DistanceMeters>
          </Trackpoint>
          <Trackpoint>
            <Time>2019-10-04T18:10:35.000Z</Time>
            <Position>
              <LatitudeDegrees>42.59910643100738525390625</LatitudeDegrees>
              <LongitudeDegrees>-5.56634134612977504730224609375</LongitudeDegrees>
            </Position>
            <AltitudeMeters>841.79998779296875</AltitudeMeters>
            <DistanceMeters>NAN</DistanceMeters>
          </Trackpoint>
          <Trackpoint>
            <Time>2019-10-04T18:10:41.000Z</Time>
            <Position>
              <LatitudeDegrees>42.59902688674628734588623046875</LatitudeDegrees>
              <LongitudeDegrees>-5.566428937017917633056640625</LongitudeDegrees>
            </Position>
            <AltitudeMeters>842</AltitudeMeters>
            <DistanceMeters>NAN</DistanceMeters>
          </Trackpoint>
          <Trackpoint>
            <Time>2019-10-04T18:10:48.000Z</Time>
            <Position>
              <LatitudeDegrees>42.59900107048451900482177734375</LatitudeDegrees>
              <LongitudeDegrees>-5.566589199006557464599609375</LongitudeDegrees>
            </Position>
            <AltitudeMeters>842.4000244140625</AltitudeMeters>
            <DistanceMeters>NAN</DistanceMeters>
          </Trackpoint>
          <Trackpoint>
            <Time>2019-10-04T18:10:55.000Z</Time>
            <Position>
              <LatitudeDegrees>42.5989761762320995330810546875</LatitudeDegrees>
              <LongitudeDegrees>-5.56674015708267688751220703125</LongitudeDegrees>
            </Position>
            <AltitudeMeters>842.4000244140625</AltitudeMeters>
            <DistanceMeters>NAN</DistanceMeters>
          </Trackpoint>
          <Trackpoint>
            <Time>2019-10-04T18:10:56.000Z</Time>
            <Position>
              <LatitudeDegrees>42.59896762669086456298828125</LatitudeDegrees>
              <LongitudeDegrees>-5.566748119890689849853515625</LongitudeDegrees>
            </Position>
            <AltitudeMeters>842.4000244140625</AltitudeMeters>
            <DistanceMeters>NAN</DistanceMeters>
          </Trackpoint>
          <Trackpoint>
            <Time>2019-10-04T18:10:58.000Z</Time>
            <Position>
              <LatitudeDegrees>42.59895781986415386199951171875</LatitudeDegrees>
              <LongitudeDegrees>-5.56678525172173976898193359375</LongitudeDegrees>
            </Position>
            <AltitudeMeters>842.79998779296875</AltitudeMeters>
            <DistanceMeters>NAN</DistanceMeters>
          </Trackpoint>
          <Trackpoint>
            <Time>2019-10-04T18:11:01.000Z</Time>
            <Position>
              <LatitudeDegrees>42.59894859977066516876220703125</LatitudeDegrees>
              <LongitudeDegrees>-5.5668250657618045806884765625</LongitudeDegrees>
            </Position>
            <AltitudeMeters>842.5999755859375</AltitudeMeters>
            <DistanceMeters>NAN</DistanceMeters>
          </Trackpoint>
          <Trackpoint>
            <Time>2019-10-04T18:11:02.000Z</Time>
            <Position>
              <LatitudeDegrees>42.5989486835896968841552734375</LatitudeDegrees>
              <LongitudeDegrees>-5.56683990173041820526123046875</LongitudeDegrees>
            </Position>
            <AltitudeMeters>842.4000244140625</AltitudeMeters>
            <DistanceMeters>NAN</DistanceMeters>
          </Trackpoint>
          <Trackpoint>
            <Time>2019-10-04T18:11:06.000Z</Time>
            <Position>
              <LatitudeDegrees>42.59893200360238552093505859375</LatitudeDegrees>
              <LongitudeDegrees>-5.56691986508667469024658203125</LongitudeDegrees>
            </Position>
            <AltitudeMeters>842.5999755859375</AltitudeMeters>
            <DistanceMeters>NAN</DistanceMeters>
          </Trackpoint>
          <Trackpoint>
            <Time>2019-10-04T18:11:08.000Z</Time>
            <Position>
              <LatitudeDegrees>42.59891859255731105804443359375</LatitudeDegrees>
              <LongitudeDegrees>-5.56697853840887546539306640625</LongitudeDegrees>
            </Position>
            <AltitudeMeters>842.79998779296875</AltitudeMeters>
            <DistanceMeters>NAN</DistanceMeters>
          </Trackpoint>
          <Trackpoint>
            <Time>2019-10-04T18:11:10.000Z</Time>
            <Position>
              <LatitudeDegrees>42.59891808964312076568603515625</LatitudeDegrees>
              <LongitudeDegrees>-5.5670320987701416015625</LongitudeDegrees>
            </Position>
            <AltitudeMeters>842.79998779296875</AltitudeMeters>
            <DistanceMeters>NAN</DistanceMeters>
          </Trackpoint>
          <Trackpoint>
            <Time>2019-10-04T18:11:12.000Z</Time>
            <Position>
              <LatitudeDegrees>42.59891473688185214996337890625</LatitudeDegrees>
              <LongitudeDegrees>-5.56707224808633327484130859375</LongitudeDegrees>
            </Position>
            <AltitudeMeters>843</AltitudeMeters>
            <DistanceMeters>NAN</DistanceMeters>
          </Trackpoint>
          <Trackpoint>
            <Time>2019-10-04T18:11:14.000Z</Time>
            <Position>
              <LatitudeDegrees>42.598918341100215911865234375</LatitudeDegrees>
              <LongitudeDegrees>-5.5670835636556148529052734375</LongitudeDegrees>
            </Position>
            <AltitudeMeters>843</AltitudeMeters>
            <DistanceMeters>NAN</DistanceMeters>
          </Trackpoint>
          <Trackpoint>
            <Time>2019-10-04T18:11:18.000Z</Time>
            <Position>
              <LatitudeDegrees>42.5989175029098987579345703125</LatitudeDegrees>
              <LongitudeDegrees>-5.56708884425461292266845703125</LongitudeDegrees>
            </Position>
            <AltitudeMeters>842.79998779296875</AltitudeMeters>
            <DistanceMeters>NAN</DistanceMeters>
          </Trackpoint>
          <Trackpoint>
            <Time>2019-10-04T18:11:21.000Z</Time>
            <Position>
              <LatitudeDegrees>42.5989175029098987579345703125</LatitudeDegrees>
              <LongitudeDegrees>-5.56708884425461292266845703125</LongitudeDegrees>
            </Position>
            <AltitudeMeters>843</AltitudeMeters>
            <DistanceMeters>NAN</DistanceMeters>
          </Trackpoint>
          <Trackpoint>
            <Time>2019-10-04T18:11:23.000Z</Time>
            <Position>
              <LatitudeDegrees>42.5989175029098987579345703125</LatitudeDegrees>
              <LongitudeDegrees>-5.56708884425461292266845703125</LongitudeDegrees>
            </Position>
            <AltitudeMeters>843</AltitudeMeters>
            <DistanceMeters>NAN</DistanceMeters>
          </Trackpoint>
          <Trackpoint>
            <Time>2019-10-04T18:11:30.000Z</Time>
            <Position>
              <LatitudeDegrees>42.5989175029098987579345703125</LatitudeDegrees>
              <LongitudeDegrees>-5.56708884425461292266845703125</LongitudeDegrees>
            </Position>
            <AltitudeMeters>842.79998779296875</AltitudeMeters>
            <DistanceMeters>NAN</DistanceMeters>
          </Trackpoint>
          <Trackpoint>
            <Time>2019-10-04T18:11:34.000Z</Time>
            <Position>
              <LatitudeDegrees>42.5989175029098987579345703125</LatitudeDegrees>
              <LongitudeDegrees>-5.56708884425461292266845703125</LongitudeDegrees>
            </Position>
            <AltitudeMeters>842.5999755859375</AltitudeMeters>
            <DistanceMeters>NAN</DistanceMeters>
          </Trackpoint>
          <Trackpoint>
            <Time>2019-10-04T18:11:41.000Z</Time>
            <Position>
              <LatitudeDegrees>42.5989175029098987579345703125</LatitudeDegrees>
              <LongitudeDegrees>-5.56708884425461292266845703125</LongitudeDegrees>
            </Position>
            <AltitudeMeters>843.20001220703125</AltitudeMeters>
            <DistanceMeters>NAN</DistanceMeters>
          </Trackpoint>
          <Trackpoint>
            <Time>2019-10-04T18:11:43.000Z</Time>
            <Position>
              <LatitudeDegrees>42.5989175029098987579345703125</LatitudeDegrees>
              <LongitudeDegrees>-5.56708884425461292266845703125</LongitudeDegrees>
            </Position>
            <AltitudeMeters>843.20001220703125</AltitudeMeters>
            <DistanceMeters>NAN</DistanceMeters>
          </Trackpoint>
          <Trackpoint>
            <Time>2019-10-04T18:11:48.000Z</Time>
            <Position>
              <LatitudeDegrees>42.5989175029098987579345703125</LatitudeDegrees>
              <LongitudeDegrees>-5.56708884425461292266845703125</LongitudeDegrees>
            </Position>
            <AltitudeMeters>842.79998779296875</AltitudeMeters>
            <DistanceMeters>NAN</DistanceMeters>
          </Trackpoint>
          <Trackpoint>
            <Time>2019-10-04T18:11:52.000Z</Time>
            <Position>
              <LatitudeDegrees>42.5989175029098987579345703125</LatitudeDegrees>
              <LongitudeDegrees>-5.56708884425461292266845703125</LongitudeDegrees>
            </Position>
            <AltitudeMeters>842.79998779296875</AltitudeMeters>
            <DistanceMeters>NAN</DistanceMeters>
          </Trackpoint>
          <Trackpoint>
            <Time>2019-10-04T18:11:53.000Z</Time>
            <Position>
              <LatitudeDegrees>42.5989175029098987579345703125</LatitudeDegrees>
              <LongitudeDegrees>-5.56708884425461292266845703125</LongitudeDegrees>
            </Position>
            <AltitudeMeters>842.79998779296875</AltitudeMeters>
            <DistanceMeters>NAN</DistanceMeters>
          </Trackpoint>
          <Trackpoint>
            <Time>2019-10-04T18:12:01.000Z</Time>
            <Position>
              <LatitudeDegrees>42.5989188440144062042236328125</LatitudeDegrees>
              <LongitudeDegrees>-5.56708985008299350738525390625</LongitudeDegrees>
            </Position>
            <AltitudeMeters>843</AltitudeMeters>
            <DistanceMeters>NAN</DistanceMeters>
          </Trackpoint>
          <Trackpoint>
            <Time>2019-10-04T18:12:03.000Z</Time>
            <Position>
              <LatitudeDegrees>42.5989188440144062042236328125</LatitudeDegrees>
              <LongitudeDegrees>-5.56708985008299350738525390625</LongitudeDegrees>
            </Position>
            <AltitudeMeters>843</AltitudeMeters>
            <DistanceMeters>NAN</DistanceMeters>
          </Trackpoint>
          <Trackpoint>
            <Time>2019-10-05T07:51:14.000Z</Time>
            <Position>
              <LatitudeDegrees>42.59679344482719898223876953125</LatitudeDegrees>
              <LongitudeDegrees>-5.57148247025907039642333984375</LongitudeDegrees>
            </Position>
            <AltitudeMeters>733.4000244140625</AltitudeMeters>
            <DistanceMeters>NAN</DistanceMeters>
          </Trackpoint>
          <Trackpoint>
            <Time>2019-10-05T07:51:15.000Z</Time>
            <Position>
              <LatitudeDegrees>42.59679344482719898223876953125</LatitudeDegrees>
              <LongitudeDegrees>-5.57148247025907039642333984375</LongitudeDegrees>
            </Position>
            <AltitudeMeters>733.4000244140625</AltitudeMeters>
            <DistanceMeters>NAN</DistanceMeters>
          </Trackpoint>
          <Trackpoint>
            <Time>2019-10-05T07:51:24.000Z</Time>
            <Position>
              <LatitudeDegrees>42.59679344482719898223876953125</LatitudeDegrees>
              <LongitudeDegrees>-5.57148247025907039642333984375</LongitudeDegrees>
            </Position>
            <AltitudeMeters>733.20001220703125</AltitudeMeters>
            <DistanceMeters>NAN</DistanceMeters>
          </Trackpoint>
          <Trackpoint>
            <Time>2019-10-05T07:51:27.000Z</Time>
            <Position>
              <LatitudeDegrees>42.59679344482719898223876953125</LatitudeDegrees>
              <LongitudeDegrees>-5.57148247025907039642333984375</LongitudeDegrees>
            </Position>
            <AltitudeMeters>733.20001220703125</AltitudeMeters>
            <DistanceMeters>NAN</DistanceMeters>
          </Trackpoint>
          <Trackpoint>
            <Time>2019-10-05T07:51:30.000Z</Time>
            <Position>
              <LatitudeDegrees>42.5967928580939769744873046875</LatitudeDegrees>
              <LongitudeDegrees>-5.5714912712574005126953125</LongitudeDegrees>
            </Position>
            <AltitudeMeters>733</AltitudeMeters>
            <DistanceMeters>NAN</DistanceMeters>
          </Trackpoint>
          <Trackpoint>
            <Time>2019-10-05T07:51:31.000Z</Time>
            <Position>
              <LatitudeDegrees>42.59684977121651172637939453125</LatitudeDegrees>
              <LongitudeDegrees>-5.57156302034854888916015625</LongitudeDegrees>
            </Position>
            <AltitudeMeters>733.20001220703125</AltitudeMeters>
            <DistanceMeters>NAN</DistanceMeters>
          </Trackpoint>
          <Trackpoint>
            <Time>2019-10-05T07:51:33.000Z</Time>
            <Position>
              <LatitudeDegrees>42.59683099575340747833251953125</LatitudeDegrees>
              <LongitudeDegrees>-5.5716071091592311859130859375</LongitudeDegrees>
            </Position>
            <AltitudeMeters>733.20001220703125</AltitudeMeters>
            <DistanceMeters>NAN</DistanceMeters>
          </Trackpoint>
          <Trackpoint>
            <Time>2019-10-05T07:51:34.000Z</Time>
            <Position>
              <LatitudeDegrees>42.59682730771601200103759765625</LatitudeDegrees>
              <LongitudeDegrees>-5.57161808945238590240478515625</LongitudeDegrees>
            </Position>
            <AltitudeMeters>733</AltitudeMeters>
            <DistanceMeters>NAN</DistanceMeters>
          </Trackpoint>
          <Trackpoint>
            <Time>2019-10-05T07:51:37.000Z</Time>
            <Position>
              <LatitudeDegrees>42.59678623639047145843505859375</LatitudeDegrees>
              <LongitudeDegrees>-5.571612305939197540283203125</LongitudeDegrees>
            </Position>
            <AltitudeMeters>732.79998779296875</AltitudeMeters>
            <DistanceMeters>NAN</DistanceMeters>
          </Trackpoint>
          <Trackpoint>
            <Time>2019-10-05T07:51:39.000Z</Time>
            <Position>
              <LatitudeDegrees>42.59675505571067333221435546875</LatitudeDegrees>
              <LongitudeDegrees>-5.57160459458827972412109375</LongitudeDegrees>
            </Position>
            <AltitudeMeters>733</AltitudeMeters>
            <DistanceMeters>NAN</DistanceMeters>
          </Trackpoint>
          <Trackpoint>
            <Time>2019-10-05T07:51:42.000Z</Time>
            <Position>
              <LatitudeDegrees>42.5967080332338809967041015625</LatitudeDegrees>
              <LongitudeDegrees>-5.5716034211218357086181640625</LongitudeDegrees>
            </Position>
            <AltitudeMeters>732.79998779296875</AltitudeMeters>
            <DistanceMeters>NAN</DistanceMeters>
          </Trackpoint>
          <Trackpoint>
            <Time>2019-10-05T07:51:43.000Z</Time>
            <Position>
              <LatitudeDegrees>42.59668699465692043304443359375</LatitudeDegrees>
              <LongitudeDegrees>-5.5716154910624027252197265625</LongitudeDegrees>
            </Position>
            <AltitudeMeters>732.79998779296875</AltitudeMeters>
            <DistanceMeters>NAN</DistanceMeters>
          </Trackpoint>
          <Trackpoint>
            <Time>2019-10-05T07:51:48.000Z</Time>
            <Position>
              <LatitudeDegrees>42.59657585062086582183837890625</LatitudeDegrees>
              <LongitudeDegrees>-5.571664609014987945556640625</LongitudeDegrees>
            </Position>
            <AltitudeMeters>732.5999755859375</AltitudeMeters>
            <DistanceMeters>NAN</DistanceMeters>
          </Trackpoint>
          <Trackpoint>
            <Time>2019-10-05T07:51:49.000Z</Time>
            <Position>
              <LatitudeDegrees>42.59654961526393890380859375</LatitudeDegrees>
              <LongitudeDegrees>-5.57167760096490383148193359375</LongitudeDegrees>
            </Position>
            <AltitudeMeters>732.5999755859375</AltitudeMeters>
            <DistanceMeters>NAN</DistanceMeters>
          </Trackpoint>
          <Trackpoint>
            <Time>2019-10-05T07:51:50.000Z</Time>
            <Position>
              <LatitudeDegrees>42.59651835076510906219482421875</LatitudeDegrees>
              <LongitudeDegrees>-5.5716919340193271636962890625</LongitudeDegrees>
            </Position>
            <AltitudeMeters>732</AltitudeMeters>
            <DistanceMeters>NAN</DistanceMeters>
          </Trackpoint>
          <Trackpoint>
            <Time>2019-10-05T07:51:53.000Z</Time>
            <Position>
              <LatitudeDegrees>42.59642547927796840667724609375</LatitudeDegrees>
              <LongitudeDegrees>-5.57174029760062694549560546875</LongitudeDegrees>
            </Position>
            <AltitudeMeters>732.20001220703125</AltitudeMeters>
            <DistanceMeters>NAN</DistanceMeters>
          </Trackpoint>
          <Trackpoint>
            <Time>2019-10-05T07:51:58.000Z</Time>
            <Position>
              <LatitudeDegrees>42.59627745486795902252197265625</LatitudeDegrees>
              <LongitudeDegrees>-5.571810789406299591064453125</LongitudeDegrees>
            </Position>
            <AltitudeMeters>732</AltitudeMeters>
            <DistanceMeters>NAN</DistanceMeters>
          </Trackpoint>
          <Trackpoint>
            <Time>2019-10-05T07:52:03.000Z</Time>
            <Position>
              <LatitudeDegrees>42.59615130722522735595703125</LatitudeDegrees>
              <LongitudeDegrees>-5.57181891985237598419189453125</LongitudeDegrees>
            </Position>
            <AltitudeMeters>732.20001220703125</AltitudeMeters>
            <DistanceMeters>NAN</DistanceMeters>
          </Trackpoint>
          <Trackpoint>
            <Time>2019-10-05T07:52:06.000Z</Time>
            <Position>
              <LatitudeDegrees>42.5960956513881683349609375</LatitudeDegrees>
              <LongitudeDegrees>-5.57177784852683544158935546875</LongitudeDegrees>
            </Position>
            <AltitudeMeters>732.4000244140625</AltitudeMeters>
            <DistanceMeters>NAN</DistanceMeters>
          </Trackpoint>
          <Trackpoint>
            <Time>2019-10-05T07:52:08.000Z</Time>
            <Position>
              <LatitudeDegrees>42.59605701081454753875732421875</LatitudeDegrees>
              <LongitudeDegrees>-5.57177147828042507171630859375</LongitudeDegrees>
            </Position>
            <AltitudeMeters>732.4000244140625</AltitudeMeters>
            <DistanceMeters>NAN</DistanceMeters>
          </Trackpoint>
          <Trackpoint>
            <Time>2019-10-05T07:52:10.000Z</Time>
            <Position>
              <LatitudeDegrees>42.596010155975818634033203125</LatitudeDegrees>
              <LongitudeDegrees>-5.57179461233317852020263671875</LongitudeDegrees>
            </Position>
            <AltitudeMeters>732.4000244140625</AltitudeMeters>
            <DistanceMeters>NAN</DistanceMeters>
          </Trackpoint>
          <Trackpoint>
            <Time>2019-10-05T07:52:12.000Z</Time>
            <Position>
              <LatitudeDegrees>42.59592826478183269500732421875</LatitudeDegrees>
              <LongitudeDegrees>-5.5718253739178180694580078125</LongitudeDegrees>
            </Position>
            <AltitudeMeters>731.79998779296875</AltitudeMeters>
            <DistanceMeters>NAN</DistanceMeters>
          </Trackpoint>
          <Trackpoint>
            <Time>2019-10-05T07:52:15.000Z</Time>
            <Position>
              <LatitudeDegrees>42.59581209160387516021728515625</LatitudeDegrees>
              <LongitudeDegrees>-5.57184792123734951019287109375</LongitudeDegrees>
            </Position>
            <AltitudeMeters>731.5999755859375</AltitudeMeters>
            <DistanceMeters>NAN</DistanceMeters>
          </Trackpoint>
          <Trackpoint>
            <Time>2019-10-05T07:52:18.000Z</Time>
            <Position>
              <LatitudeDegrees>42.59571008384227752685546875</LatitudeDegrees>
              <LongitudeDegrees>-5.5718941055238246917724609375</LongitudeDegrees>
            </Position>
            <AltitudeMeters>732</AltitudeMeters>
            <DistanceMeters>NAN</DistanceMeters>
          </Trackpoint>
          <Trackpoint>
            <Time>2019-10-05T07:52:22.000Z</Time>
            <Position>
              <LatitudeDegrees>42.59555895812809467315673828125</LatitudeDegrees>
              <LongitudeDegrees>-5.57196225039660930633544921875</LongitudeDegrees>
            </Position>
            <AltitudeMeters>731.79998779296875</AltitudeMeters>
            <DistanceMeters>NAN</DistanceMeters>
          </Trackpoint>
          <Trackpoint>
            <Time>2019-10-05T07:52:23.000Z</Time>
            <Position>
              <LatitudeDegrees>42.59552341885864734649658203125</LatitudeDegrees>
              <LongitudeDegrees>-5.57197876274585723876953125</LongitudeDegrees>
            </Position>
            <AltitudeMeters>731.5999755859375</AltitudeMeters>
            <DistanceMeters>NAN</DistanceMeters>
          </Trackpoint>
          <Trackpoint>
            <Time>2019-10-05T07:52:25.000Z</Time>
            <Position>
              <LatitudeDegrees>42.5954423658549785614013671875</LatitudeDegrees>
              <LongitudeDegrees>-5.57200231589376926422119140625</LongitudeDegrees>
            </Position>
            <AltitudeMeters>731.5999755859375</AltitudeMeters>
            <DistanceMeters>NAN</DistanceMeters>
          </Trackpoint>
          <Trackpoint>
            <Time>2019-10-05T07:52:29.000Z</Time>
            <Position>
              <LatitudeDegrees>42.595277912914752960205078125</LatitudeDegrees>
              <LongitudeDegrees>-5.5720251984894275665283203125</LongitudeDegrees>
            </Position>
            <AltitudeMeters>731.4000244140625</AltitudeMeters>
            <DistanceMeters>NAN</DistanceMeters>
          </Trackpoint>
          <Trackpoint>
            <Time>2019-10-05T07:52:33.000Z</Time>
            <Position>
              <LatitudeDegrees>42.595116309821605682373046875</LatitudeDegrees>
              <LongitudeDegrees>-5.57206383906304836273193359375</LongitudeDegrees>
            </Position>
            <AltitudeMeters>731.5999755859375</AltitudeMeters>
            <DistanceMeters>NAN</DistanceMeters>
          </Trackpoint>
          <Trackpoint>
            <Time>2019-10-05T07:52:36.000Z</Time>
            <Position>
              <LatitudeDegrees>42.59501061402261257171630859375</LatitudeDegrees>
              <LongitudeDegrees>-5.57210138998925685882568359375</LongitudeDegrees>
            </Position>
            <AltitudeMeters>731.20001220703125</AltitudeMeters>
            <DistanceMeters>NAN</DistanceMeters>
          </Trackpoint>
          <Trackpoint>
            <Time>2019-10-05T07:52:38.000Z</Time>
            <Position>
              <LatitudeDegrees>42.5949515216052532196044921875</LatitudeDegrees>
              <LongitudeDegrees>-5.57212905026972293853759765625</LongitudeDegrees>
            </Position>
            <AltitudeMeters>731.20001220703125</AltitudeMeters>
            <DistanceMeters>NAN</DistanceMeters>
          </Trackpoint>
          <Trackpoint>
            <Time>2019-10-05T07:52:41.000Z</Time>
            <Position>
              <LatitudeDegrees>42.5948700495064258575439453125</LatitudeDegrees>
              <LongitudeDegrees>-5.5721361748874187469482421875</LongitudeDegrees>
            </Position>
            <AltitudeMeters>731.20001220703125</AltitudeMeters>
            <DistanceMeters>NAN</DistanceMeters>
          </Trackpoint>
          <Trackpoint>
            <Time>2019-10-05T07:52:46.000Z</Time>
            <Position>
              <LatitudeDegrees>42.59475446306169033050537109375</LatitudeDegrees>
              <LongitudeDegrees>-5.57213164865970611572265625</LongitudeDegrees>
            </Position>
            <AltitudeMeters>731.4000244140625</AltitudeMeters>
            <DistanceMeters>NAN</DistanceMeters>
          </Trackpoint>
          <Trackpoint>
            <Time>2019-10-05T07:52:52.000Z</Time>
            <Position>
              <LatitudeDegrees>42.59471900761127471923828125</LatitudeDegrees>
              <LongitudeDegrees>-5.57212703861296176910400390625</LongitudeDegrees>
            </Position>
            <AltitudeMeters>731.20001220703125</AltitudeMeters>
            <DistanceMeters>NAN</DistanceMeters>
          </Trackpoint>
          <Trackpoint>
            <Time>2019-10-05T07:52:56.000Z</Time>
            <Position>
              <LatitudeDegrees>42.59471900761127471923828125</LatitudeDegrees>
              <LongitudeDegrees>-5.57212703861296176910400390625</LongitudeDegrees>
            </Position>
            <AltitudeMeters>731.4000244140625</AltitudeMeters>
            <DistanceMeters>NAN</DistanceMeters>
          </Trackpoint>
          <Trackpoint>
            <Time>2019-10-05T07:52:57.000Z</Time>
            <Position>
              <LatitudeDegrees>42.59471900761127471923828125</LatitudeDegrees>
              <LongitudeDegrees>-5.57212703861296176910400390625</LongitudeDegrees>
            </Position>
            <AltitudeMeters>731.5999755859375</AltitudeMeters>
            <DistanceMeters>NAN</DistanceMeters>
          </Trackpoint>
          <Trackpoint>
            <Time>2019-10-05T07:52:59.000Z</Time>
            <Position>
              <LatitudeDegrees>42.59471900761127471923828125</LatitudeDegrees>
              <LongitudeDegrees>-5.57212703861296176910400390625</LongitudeDegrees>
            </Position>
            <AltitudeMeters>731.5999755859375</AltitudeMeters>
            <DistanceMeters>NAN</DistanceMeters>
          </Trackpoint>
          <Trackpoint>
            <Time>2019-10-05T07:53:03.000Z</Time>
            <Position>
              <LatitudeDegrees>42.59471900761127471923828125</LatitudeDegrees>
              <LongitudeDegrees>-5.57212703861296176910400390625</LongitudeDegrees>
            </Position>
            <AltitudeMeters>731.20001220703125</AltitudeMeters>
            <DistanceMeters>NAN</DistanceMeters>
          </Trackpoint>
          <Trackpoint>
            <Time>2019-10-05T07:53:05.000Z</Time>
            <Position>
              <LatitudeDegrees>42.59471900761127471923828125</LatitudeDegrees>
              <LongitudeDegrees>-5.57212703861296176910400390625</LongitudeDegrees>
            </Position>
            <AltitudeMeters>731.20001220703125</AltitudeMeters>
            <DistanceMeters>NAN</DistanceMeters>
          </Trackpoint>
          <Trackpoint>
            <Time>2019-10-05T07:53:06.000Z</Time>
            <Position>
              <LatitudeDegrees>42.59471104480326175689697265625</LatitudeDegrees>
              <LongitudeDegrees>-5.572127290070056915283203125</LongitudeDegrees>
            </Position>
            <AltitudeMeters>731.20001220703125</AltitudeMeters>
            <DistanceMeters>NAN</DistanceMeters>
          </Trackpoint>
          <Trackpoint>
            <Time>2019-10-05T07:53:08.000Z</Time>
            <Position>
              <LatitudeDegrees>42.59466293267905712127685546875</LatitudeDegrees>
              <LongitudeDegrees>-5.57212821207940578460693359375</LongitudeDegrees>
            </Position>
            <AltitudeMeters>730.79998779296875</AltitudeMeters>
            <DistanceMeters>NAN</DistanceMeters>
          </Trackpoint>
          <Trackpoint>
            <Time>2019-10-05T07:53:09.000Z</Time>
            <Position>
              <LatitudeDegrees>42.5946333445608615875244140625</LatitudeDegrees>
              <LongitudeDegrees>-5.5721398629248142242431640625</LongitudeDegrees>
            </Position>
            <AltitudeMeters>730.5999755859375</AltitudeMeters>
            <DistanceMeters>NAN</DistanceMeters>
          </Trackpoint>
          <Trackpoint>
            <Time>2019-10-05T07:53:12.000Z</Time>
            <Position>
              <LatitudeDegrees>42.59452815167605876922607421875</LatitudeDegrees>
              <LongitudeDegrees>-5.5721690319478511810302734375</LongitudeDegrees>
            </Position>
            <AltitudeMeters>731.4000244140625</AltitudeMeters>
            <DistanceMeters>NAN</DistanceMeters>
          </Trackpoint>
          <Trackpoint>
            <Time>2019-10-05T07:53:14.000Z</Time>
            <Position>
              <LatitudeDegrees>42.59442555718123912811279296875</LatitudeDegrees>
              <LongitudeDegrees>-5.57217188179492950439453125</LongitudeDegrees>
            </Position>
            <AltitudeMeters>730.79998779296875</AltitudeMeters>
            <DistanceMeters>NAN</DistanceMeters>
          </Trackpoint>
          <Trackpoint>
            <Time>2019-10-05T07:53:15.000Z</Time>
            <Position>
              <LatitudeDegrees>42.5944123975932598114013671875</LatitudeDegrees>
              <LongitudeDegrees>-5.57217347435653209686279296875</LongitudeDegrees>
            </Position>
            <AltitudeMeters>730.79998779296875</AltitudeMeters>
            <DistanceMeters>NAN</DistanceMeters>
          </Trackpoint>
          <Trackpoint>
            <Time>2019-10-05T07:53:17.000Z</Time>
            <Position>
              <LatitudeDegrees>42.59433587081730365753173828125</LatitudeDegrees>
              <LongitudeDegrees>-5.57219878770411014556884765625</LongitudeDegrees>
            </Position>
            <AltitudeMeters>730.5999755859375</AltitudeMeters>
            <DistanceMeters>NAN</DistanceMeters>
          </Trackpoint>
          <Trackpoint>
            <Time>2019-10-05T07:53:20.000Z</Time>
            <Position>
              <LatitudeDegrees>42.5942082144320011138916015625</LatitudeDegrees>
              <LongitudeDegrees>-5.5722505040466785430908203125</LongitudeDegrees>
            </Position>
            <AltitudeMeters>730.5999755859375</AltitudeMeters>
            <DistanceMeters>NAN</DistanceMeters>
          </Trackpoint>
          <Trackpoint>
            <Time>2019-10-05T07:53:25.000Z</Time>
            <Position>
              <LatitudeDegrees>42.5939835794270038604736328125</LatitudeDegrees>
              <LongitudeDegrees>-5.5722904019057750701904296875</LongitudeDegrees>
            </Position>
            <AltitudeMeters>730</AltitudeMeters>
            <DistanceMeters>NAN</DistanceMeters>
          </Trackpoint>
          <Trackpoint>
            <Time>2019-10-05T07:53:27.000Z</Time>
            <Position>
              <LatitudeDegrees>42.5938940607011318206787109375</LatitudeDegrees>
              <LongitudeDegrees>-5.57228612713515758514404296875</LongitudeDegrees>
            </Position>
            <AltitudeMeters>730</AltitudeMeters>
            <DistanceMeters>NAN</DistanceMeters>
          </Trackpoint>
          <Trackpoint>
            <Time>2019-10-05T07:53:30.000Z</Time>
            <Position>
              <LatitudeDegrees>42.59375718422234058380126953125</LatitudeDegrees>
              <LongitudeDegrees>-5.57228528894484043121337890625</LongitudeDegrees>
            </Position>
            <AltitudeMeters>730.4000244140625</AltitudeMeters>
            <DistanceMeters>NAN</DistanceMeters>
          </Trackpoint>
          <Trackpoint>
            <Time>2019-10-05T07:53:33.000Z</Time>
            <Position>
              <LatitudeDegrees>42.5936228223145008087158203125</LatitudeDegrees>
              <LongitudeDegrees>-5.57225905358791351318359375</LongitudeDegrees>
            </Position>
            <AltitudeMeters>730.4000244140625</AltitudeMeters>
            <DistanceMeters>NAN</DistanceMeters>
          </Trackpoint>
          <Trackpoint>
            <Time>2019-10-05T07:53:34.000Z</Time>
            <Position>
              <LatitudeDegrees>42.59358200244605541229248046875</LatitudeDegrees>
              <LongitudeDegrees>-5.57224706746637821197509765625</LongitudeDegrees>
            </Position>
            <AltitudeMeters>730.4000244140625</AltitudeMeters>
            <DistanceMeters>NAN</DistanceMeters>
          </Trackpoint>
          <Trackpoint>
            <Time>2019-10-05T07:53:35.000Z</Time>
            <Position>
              <LatitudeDegrees>42.5935487262904644012451171875</LatitudeDegrees>
              <LongitudeDegrees>-5.57221622206270694732666015625</LongitudeDegrees>
            </Position>
            <AltitudeMeters>730.4000244140625</AltitudeMeters>
            <DistanceMeters>NAN</DistanceMeters>
          </Trackpoint>
          <Trackpoint>
            <Time>2019-10-05T07:53:37.000Z</Time>
            <Position>
              <LatitudeDegrees>42.59349801577627658843994140625</LatitudeDegrees>
              <LongitudeDegrees>-5.572205744683742523193359375</LongitudeDegrees>
            </Position>
            <AltitudeMeters>730.79998779296875</AltitudeMeters>
            <DistanceMeters>NAN</DistanceMeters>
          </Trackpoint>
          <Trackpoint>
            <Time>2019-10-05T07:53:41.000Z</Time>
            <Position>
              <LatitudeDegrees>42.59340380318462848663330078125</LatitudeDegrees>
              <LongitudeDegrees>-5.57224907912313938140869140625</LongitudeDegrees>
            </Position>
            <AltitudeMeters>731</AltitudeMeters>
            <DistanceMeters>NAN</DistanceMeters>
          </Trackpoint>
          <Trackpoint>
            <Time>2019-10-05T07:53:44.000Z</Time>
            <Position>
              <LatitudeDegrees>42.59338234551250934600830078125</LatitudeDegrees>
              <LongitudeDegrees>-5.57237816043198108673095703125</LongitudeDegrees>
            </Position>
            <AltitudeMeters>730.79998779296875</AltitudeMeters>
            <DistanceMeters>NAN</DistanceMeters>
          </Trackpoint>
          <Trackpoint>
            <Time>2019-10-05T07:53:48.000Z</Time>
            <Position>
              <LatitudeDegrees>42.5933572836220264434814453125</LatitudeDegrees>
              <LongitudeDegrees>-5.572581253945827484130859375</LongitudeDegrees>
            </Position>
            <AltitudeMeters>730.79998779296875</AltitudeMeters>
            <DistanceMeters>NAN</DistanceMeters>
          </Trackpoint>
          <Trackpoint>
            <Time>2019-10-05T07:53:50.000Z</Time>
            <Position>
              <LatitudeDegrees>42.59333607740700244903564453125</LatitudeDegrees>
              <LongitudeDegrees>-5.5727145262062549591064453125</LongitudeDegrees>
            </Position>
            <AltitudeMeters>730.4000244140625</AltitudeMeters>
            <DistanceMeters>NAN</DistanceMeters>
          </Trackpoint>
          <Trackpoint>
            <Time>2019-10-05T07:53:57.000Z</Time>
            <Position>
              <LatitudeDegrees>42.59328092448413372039794921875</LatitudeDegrees>
              <LongitudeDegrees>-5.57308257557451725006103515625</LongitudeDegrees>
            </Position>
            <AltitudeMeters>730.20001220703125</AltitudeMeters>
            <DistanceMeters>NAN</DistanceMeters>
          </Trackpoint>
          <Trackpoint>
            <Time>2019-10-05T07:53:58.000Z</Time>
            <Position>
              <LatitudeDegrees>42.59327061474323272705078125</LatitudeDegrees>
              <LongitudeDegrees>-5.57314175181090831756591796875</LongitudeDegrees>
            </Position>
            <AltitudeMeters>730.4000244140625</AltitudeMeters>
            <DistanceMeters>NAN</DistanceMeters>
          </Trackpoint>
          <Trackpoint>
            <Time>2019-10-05T07:53:59.000Z</Time>
            <Position>
              <LatitudeDegrees>42.5932674296200275421142578125</LatitudeDegrees>
              <LongitudeDegrees>-5.57319874875247478485107421875</LongitudeDegrees>
            </Position>
            <AltitudeMeters>730.20001220703125</AltitudeMeters>
            <DistanceMeters>NAN</DistanceMeters>
          </Trackpoint>
          <Trackpoint>
            <Time>2019-10-05T07:54:01.000Z</Time>
            <Position>
              <LatitudeDegrees>42.59326114319264888763427734375</LatitudeDegrees>
              <LongitudeDegrees>-5.573317520320415496826171875</LongitudeDegrees>
            </Position>
            <AltitudeMeters>730</AltitudeMeters>
            <DistanceMeters>NAN</DistanceMeters>
          </Trackpoint>
          <Trackpoint>
            <Time>2019-10-05T07:54:03.000Z</Time>
            <Position>
              <LatitudeDegrees>42.5932496599853038787841796875</LatitudeDegrees>
              <LongitudeDegrees>-5.5734444223344326019287109375</LongitudeDegrees>
            </Position>
            <AltitudeMeters>730</AltitudeMeters>
            <DistanceMeters>NAN</DistanceMeters>
          </Trackpoint>
          <Trackpoint>
            <Time>2019-10-05T07:54:10.000Z</Time>
            <Position>
              <LatitudeDegrees>42.5932017154991626739501953125</LatitudeDegrees>
              <LongitudeDegrees>-5.573859997093677520751953125</LongitudeDegrees>
            </Position>
            <AltitudeMeters>730</AltitudeMeters>
            <DistanceMeters>NAN</DistanceMeters>
          </Trackpoint>
          <Trackpoint>
            <Time>2019-10-05T07:54:17.000Z</Time>
            <Position>
              <LatitudeDegrees>42.5931038148701190948486328125</LatitudeDegrees>
              <LongitudeDegrees>-5.5741746537387371063232421875</LongitudeDegrees>
            </Position>
            <AltitudeMeters>730.20001220703125</AltitudeMeters>
            <DistanceMeters>NAN</DistanceMeters>
          </Trackpoint>
          <Trackpoint>
            <Time>2019-10-05T07:54:21.000Z</Time>
            <Position>
              <LatitudeDegrees>42.59296140633523464202880859375</LatitudeDegrees>
              <LongitudeDegrees>-5.57421145029366016387939453125</LongitudeDegrees>
            </Position>
            <AltitudeMeters>729.5999755859375</AltitudeMeters>
            <DistanceMeters>NAN</DistanceMeters>
          </Trackpoint>
          <Trackpoint>
            <Time>2019-10-05T07:54:23.000Z</Time>
            <Position>
              <LatitudeDegrees>42.59289535693824291229248046875</LatitudeDegrees>
              <LongitudeDegrees>-5.57426425628364086151123046875</LongitudeDegrees>
            </Position>
            <AltitudeMeters>729.4000244140625</AltitudeMeters>
            <DistanceMeters>NAN</DistanceMeters>
          </Trackpoint>
          <Trackpoint>
            <Time>2019-10-05T07:54:26.000Z</Time>
            <Position>
              <LatitudeDegrees>42.5928020663559436798095703125</LatitudeDegrees>
              <LongitudeDegrees>-5.57434975169599056243896484375</LongitudeDegrees>
            </Position>
            <AltitudeMeters>729.5999755859375</AltitudeMeters>
            <DistanceMeters>NAN</DistanceMeters>
          </Trackpoint>
          <Trackpoint>
            <Time>2019-10-05T07:54:28.000Z</Time>
            <Position>
              <LatitudeDegrees>42.59273551404476165771484375</LatitudeDegrees>
              <LongitudeDegrees>-5.57434690184891223907470703125</LongitudeDegrees>
            </Position>
            <AltitudeMeters>729.5999755859375</AltitudeMeters>
            <DistanceMeters>NAN</DistanceMeters>
          </Trackpoint>
          <Trackpoint>
            <Time>2019-10-05T07:54:30.000Z</Time>
            <Position>
              <LatitudeDegrees>42.59269930422306060791015625</LatitudeDegrees>
              <LongitudeDegrees>-5.57431496679782867431640625</LongitudeDegrees>
            </Position>
            <AltitudeMeters>729.4000244140625</AltitudeMeters>
            <DistanceMeters>NAN</DistanceMeters>
          </Trackpoint>
          <Trackpoint>
            <Time>2019-10-05T07:54:34.000Z</Time>
            <Position>
              <LatitudeDegrees>42.59266912937164306640625</LatitudeDegrees>
              <LongitudeDegrees>-5.5742514319717884063720703125</LongitudeDegrees>
            </Position>
            <AltitudeMeters>729.5999755859375</AltitudeMeters>
            <DistanceMeters>NAN</DistanceMeters>
          </Trackpoint>
          <Trackpoint>
            <Time>2019-10-05T07:54:35.000Z</Time>
            <Position>
              <LatitudeDegrees>42.59266753681004047393798828125</LatitudeDegrees>
              <LongitudeDegrees>-5.574227459728717803955078125</LongitudeDegrees>
            </Position>
            <AltitudeMeters>729.5999755859375</AltitudeMeters>
            <DistanceMeters>NAN</DistanceMeters>
          </Trackpoint>
          <Trackpoint>
            <Time>2019-10-05T07:54:38.000Z</Time>
            <Position>
              <LatitudeDegrees>42.59256192483007907867431640625</LatitudeDegrees>
              <LongitudeDegrees>-5.57406040839850902557373046875</LongitudeDegrees>
            </Position>
            <AltitudeMeters>729.4000244140625</AltitudeMeters>
            <DistanceMeters>NAN</DistanceMeters>
          </Trackpoint>
          <Trackpoint>
            <Time>2019-10-05T07:54:41.000Z</Time>
            <Position>
              <LatitudeDegrees>42.59238758124411106109619140625</LatitudeDegrees>
              <LongitudeDegrees>-5.573970638215541839599609375</LongitudeDegrees>
            </Position>
            <AltitudeMeters>729.5999755859375</AltitudeMeters>
            <DistanceMeters>NAN</DistanceMeters>
          </Trackpoint>
          <Trackpoint>
            <Time>2019-10-05T07:54:44.000Z</Time>
            <Position>
              <LatitudeDegrees>42.592307366430759429931640625</LatitudeDegrees>
              <LongitudeDegrees>-5.57396099902689456939697265625</LongitudeDegrees>
            </Position>
            <AltitudeMeters>729.20001220703125</AltitudeMeters>
            <DistanceMeters>NAN</DistanceMeters>
          </Trackpoint>
          <Trackpoint>
            <Time>2019-10-05T07:54:45.000Z</Time>
            <Position>
              <LatitudeDegrees>42.59228917770087718963623046875</LatitudeDegrees>
              <LongitudeDegrees>-5.5739647708833217620849609375</LongitudeDegrees>
            </Position>
            <AltitudeMeters>729</AltitudeMeters>
            <DistanceMeters>NAN</DistanceMeters>
          </Trackpoint>
          <Trackpoint>
            <Time>2019-10-05T07:54:50.000Z</Time>
            <Position>
              <LatitudeDegrees>42.59219781495630741119384765625</LatitudeDegrees>
              <LongitudeDegrees>-5.5739788524806499481201171875</LongitudeDegrees>
            </Position>
            <AltitudeMeters>729.20001220703125</AltitudeMeters>
            <DistanceMeters>NAN</DistanceMeters>
          </Trackpoint>
          <Trackpoint>
            <Time>2019-10-05T07:54:51.000Z</Time>
            <Position>
              <LatitudeDegrees>42.59219077415764331817626953125</LatitudeDegrees>
              <LongitudeDegrees>-5.573995113372802734375</LongitudeDegrees>
            </Position>
            <AltitudeMeters>729</AltitudeMeters>
            <DistanceMeters>NAN</DistanceMeters>
          </Trackpoint>
          <Trackpoint>
            <Time>2019-10-05T07:54:52.000Z</Time>
            <Position>
              <LatitudeDegrees>42.592173255980014801025390625</LatitudeDegrees>
              <LongitudeDegrees>-5.57403727434575557708740234375</LongitudeDegrees>
            </Position>
            <AltitudeMeters>729.20001220703125</AltitudeMeters>
            <DistanceMeters>NAN</DistanceMeters>
          </Trackpoint>
          <Trackpoint>
            <Time>2019-10-05T07:54:55.000Z</Time>
            <Position>
              <LatitudeDegrees>42.5920637883245944976806640625</LatitudeDegrees>
              <LongitudeDegrees>-5.574097372591495513916015625</LongitudeDegrees>
            </Position>
            <AltitudeMeters>729.20001220703125</AltitudeMeters>
            <DistanceMeters>NAN</DistanceMeters>
          </Trackpoint>
          <Trackpoint>
            <Time>2019-10-05T07:54:58.000Z</Time>
            <Position>
              <LatitudeDegrees>42.59194987826049327850341796875</LatitudeDegrees>
              <LongitudeDegrees>-5.5741169862449169158935546875</LongitudeDegrees>
            </Position>
            <AltitudeMeters>729</AltitudeMeters>
            <DistanceMeters>NAN</DistanceMeters>
          </Trackpoint>
          <Trackpoint>
            <Time>2019-10-05T07:54:59.000Z</Time>
            <Position>
              <LatitudeDegrees>42.59192741475999355316162109375</LatitudeDegrees>
              <LongitudeDegrees>-5.57413215748965740203857421875</LongitudeDegrees>
            </Position>
            <AltitudeMeters>728.79998779296875</AltitudeMeters>
            <DistanceMeters>NAN</DistanceMeters>
          </Trackpoint>
          <Trackpoint>
            <Time>2019-10-05T07:55:00.000Z</Time>
            <Position>
              <LatitudeDegrees>42.59190830402076244354248046875</LatitudeDegrees>
              <LongitudeDegrees>-5.5741471610963344573974609375</LongitudeDegrees>
            </Position>
            <AltitudeMeters>728.4000244140625</AltitudeMeters>
            <DistanceMeters>NAN</DistanceMeters>
          </Trackpoint>
          <Trackpoint>
            <Time>2019-10-05T07:55:02.000Z</Time>
            <Position>
              <LatitudeDegrees>42.591846026480197906494140625</LatitudeDegrees>
              <LongitudeDegrees>-5.57416752912104129791259765625</LongitudeDegrees>
            </Position>
            <AltitudeMeters>728.5999755859375</AltitudeMeters>
            <DistanceMeters>NAN</DistanceMeters>
          </Trackpoint>
          <Trackpoint>
            <Time>2019-10-05T07:55:03.000Z</Time>
            <Position>
              <LatitudeDegrees>42.59181777946650981903076171875</LatitudeDegrees>
              <LongitudeDegrees>-5.5741833709180355072021484375</LongitudeDegrees>
            </Position>
            <AltitudeMeters>728.79998779296875</AltitudeMeters>
            <DistanceMeters>NAN</DistanceMeters>
          </Trackpoint>
          <Trackpoint>
            <Time>2019-10-05T07:55:05.000Z</Time>
            <Position>
              <LatitudeDegrees>42.59175273589789867401123046875</LatitudeDegrees>
              <LongitudeDegrees>-5.57420508004724979400634765625</LongitudeDegrees>
            </Position>
            <AltitudeMeters>728.4000244140625</AltitudeMeters>
            <DistanceMeters>NAN</DistanceMeters>
          </Trackpoint>
          <Trackpoint>
            <Time>2019-10-05T07:55:08.000Z</Time>
            <Position>
              <LatitudeDegrees>42.59166606701910495758056640625</LatitudeDegrees>
              <LongitudeDegrees>-5.57424682192504405975341796875</LongitudeDegrees>
            </Position>
            <AltitudeMeters>728.79998779296875</AltitudeMeters>
            <DistanceMeters>NAN</DistanceMeters>
          </Trackpoint>
          <Trackpoint>
            <Time>2019-10-05T07:55:12.000Z</Time>
            <Position>
              <LatitudeDegrees>42.59153313003480434417724609375</LatitudeDegrees>
              <LongitudeDegrees>-5.5742578022181987762451171875</LongitudeDegrees>
            </Position>
            <AltitudeMeters>728.4000244140625</AltitudeMeters>
            <DistanceMeters>NAN</DistanceMeters>
          </Trackpoint>
          <Trackpoint>
            <Time>2019-10-05T07:55:16.000Z</Time>
            <Position>
              <LatitudeDegrees>42.59139935486018657684326171875</LatitudeDegrees>
              <LongitudeDegrees>-5.57433717884123325347900390625</LongitudeDegrees>
            </Position>
            <AltitudeMeters>728.20001220703125</AltitudeMeters>
            <DistanceMeters>NAN</DistanceMeters>
          </Trackpoint>
          <Trackpoint>
            <Time>2019-10-05T07:55:18.000Z</Time>
            <Position>
              <LatitudeDegrees>42.5913261808454990386962890625</LatitudeDegrees>
              <LongitudeDegrees>-5.57435243390500545501708984375</LongitudeDegrees>
            </Position>
            <AltitudeMeters>727.5999755859375</AltitudeMeters>
            <DistanceMeters>NAN</DistanceMeters>
          </Trackpoint>
          <Trackpoint>
            <Time>2019-10-05T07:55:21.000Z</Time>
            <Position>
              <LatitudeDegrees>42.5912215746939182281494140625</LatitudeDegrees>
              <LongitudeDegrees>-5.5743868835270404815673828125</LongitudeDegrees>
            </Position>
            <AltitudeMeters>727.20001220703125</AltitudeMeters>
            <DistanceMeters>NAN</DistanceMeters>
          </Trackpoint>
          <Trackpoint>
            <Time>2019-10-05T07:55:22.000Z</Time>
            <Position>
              <LatitudeDegrees>42.5911836884915828704833984375</LatitudeDegrees>
              <LongitudeDegrees>-5.57439132593572139739990234375</LongitudeDegrees>
            </Position>
            <AltitudeMeters>727</AltitudeMeters>
            <DistanceMeters>NAN</DistanceMeters>
          </Trackpoint>
          <Trackpoint>
            <Time>2019-10-05T07:55:26.000Z</Time>
            <Position>
              <LatitudeDegrees>42.59104731492698192596435546875</LatitudeDegrees>
              <LongitudeDegrees>-5.57446978054940700531005859375</LongitudeDegrees>
            </Position>
            <AltitudeMeters>726.79998779296875</AltitudeMeters>
            <DistanceMeters>NAN</DistanceMeters>
          </Trackpoint>
          <Trackpoint>
            <Time>2019-10-05T07:55:29.000Z</Time>
            <Position>
              <LatitudeDegrees>42.590946145355701446533203125</LatitudeDegrees>
              <LongitudeDegrees>-5.57448503561317920684814453125</LongitudeDegrees>
            </Position>
            <AltitudeMeters>726.4000244140625</AltitudeMeters>
            <DistanceMeters>NAN</DistanceMeters>
          </Trackpoint>
          <Trackpoint>
            <Time>2019-10-05T07:55:30.000Z</Time>
            <Position>
              <LatitudeDegrees>42.59092393331229686737060546875</LatitudeDegrees>
              <LongitudeDegrees>-5.57450515218079090118408203125</LongitudeDegrees>
            </Position>
            <AltitudeMeters>727</AltitudeMeters>
            <DistanceMeters>NAN</DistanceMeters>
          </Trackpoint>
          <Trackpoint>
            <Time>2019-10-05T07:55:33.000Z</Time>
            <Position>
              <LatitudeDegrees>42.59092108346521854400634765625</LatitudeDegrees>
              <LongitudeDegrees>-5.57455544359982013702392578125</LongitudeDegrees>
            </Position>
            <AltitudeMeters>726.5999755859375</AltitudeMeters>
            <DistanceMeters>NAN</DistanceMeters>
          </Trackpoint>
          <Trackpoint>
            <Time>2019-10-05T07:55:34.000Z</Time>
            <Position>
              <LatitudeDegrees>42.59093566797673702239990234375</LatitudeDegrees>
              <LongitudeDegrees>-5.57456575334072113037109375</LongitudeDegrees>
            </Position>
            <AltitudeMeters>726.5999755859375</AltitudeMeters>
            <DistanceMeters>NAN</DistanceMeters>
          </Trackpoint>
          <Trackpoint>
            <Time>2019-10-05T07:55:39.000Z</Time>
            <Position>
              <LatitudeDegrees>42.59104304015636444091796875</LatitudeDegrees>
              <LongitudeDegrees>-5.57462970726191997528076171875</LongitudeDegrees>
            </Position>
            <AltitudeMeters>727</AltitudeMeters>
            <DistanceMeters>NAN</DistanceMeters>
          </Trackpoint>
          <Trackpoint>
            <Time>2019-10-05T07:55:43.000Z</Time>
            <Position>
              <LatitudeDegrees>42.59115611203014850616455078125</LatitudeDegrees>
              <LongitudeDegrees>-5.5747265182435512542724609375</LongitudeDegrees>
            </Position>
            <AltitudeMeters>726.79998779296875</AltitudeMeters>
            <DistanceMeters>NAN</DistanceMeters>
          </Trackpoint>
          <Trackpoint>
            <Time>2019-10-05T07:55:45.000Z</Time>
            <Position>
              <LatitudeDegrees>42.5912078283727169036865234375</LatitudeDegrees>
              <LongitudeDegrees>-5.57475761510431766510009765625</LongitudeDegrees>
            </Position>
            <AltitudeMeters>727.20001220703125</AltitudeMeters>
            <DistanceMeters>NAN</DistanceMeters>
          </Trackpoint>
          <Trackpoint>
            <Time>2019-10-05T07:55:52.000Z</Time>
            <Position>
              <LatitudeDegrees>42.5914207287132740020751953125</LatitudeDegrees>
              <LongitudeDegrees>-5.57488493621349334716796875</LongitudeDegrees>
            </Position>
            <AltitudeMeters>727.20001220703125</AltitudeMeters>
            <DistanceMeters>NAN</DistanceMeters>
          </Trackpoint>
          <Trackpoint>
            <Time>2019-10-05T07:55:58.000Z</Time>
            <Position>
              <LatitudeDegrees>42.59155265986919403076171875</LatitudeDegrees>
              <LongitudeDegrees>-5.57500169612467288970947265625</LongitudeDegrees>
            </Position>
            <AltitudeMeters>727.5999755859375</AltitudeMeters>
            <DistanceMeters>NAN</DistanceMeters>
          </Trackpoint>
          <Trackpoint>
            <Time>2019-10-05T07:56:03.000Z</Time>
            <Position>
              <LatitudeDegrees>42.59165667928755283355712890625</LatitudeDegrees>
              <LongitudeDegrees>-5.575059950351715087890625</LongitudeDegrees>
            </Position>
            <AltitudeMeters>727.5999755859375</AltitudeMeters>
            <DistanceMeters>NAN</DistanceMeters>
          </Trackpoint>
          <Trackpoint>
            <Time>2019-10-05T07:56:08.000Z</Time>
            <Position>
              <LatitudeDegrees>42.59180336259305477142333984375</LatitudeDegrees>
              <LongitudeDegrees>-5.57514972053468227386474609375</LongitudeDegrees>
            </Position>
            <AltitudeMeters>728</AltitudeMeters>
            <DistanceMeters>NAN</DistanceMeters>
          </Trackpoint>
          <Trackpoint>
            <Time>2019-10-05T07:56:13.000Z</Time>
            <Position>
              <LatitudeDegrees>42.59193621575832366943359375</LatitudeDegrees>
              <LongitudeDegrees>-5.5752277560532093048095703125</LongitudeDegrees>
            </Position>
            <AltitudeMeters>728</AltitudeMeters>
            <DistanceMeters>NAN</DistanceMeters>
          </Trackpoint>
          <Trackpoint>
            <Time>2019-10-05T07:56:15.000Z</Time>
            <Position>
              <LatitudeDegrees>42.591994218528270721435546875</LatitudeDegrees>
              <LongitudeDegrees>-5.575258433818817138671875</LongitudeDegrees>
            </Position>
            <AltitudeMeters>728.20001220703125</AltitudeMeters>
            <DistanceMeters>NAN</DistanceMeters>
          </Trackpoint>
          <Trackpoint>
            <Time>2019-10-05T07:56:17.000Z</Time>
            <Position>
              <LatitudeDegrees>42.592061944305896759033203125</LatitudeDegrees>
              <LongitudeDegrees>-5.57529455982148647308349609375</LongitudeDegrees>
            </Position>
            <AltitudeMeters>728.4000244140625</AltitudeMeters>
            <DistanceMeters>NAN</DistanceMeters>
          </Trackpoint>
          <Trackpoint>
            <Time>2019-10-05T07:56:21.000Z</Time>
            <Position>
              <LatitudeDegrees>42.592186667025089263916015625</LatitudeDegrees>
              <LongitudeDegrees>-5.575386174023151397705078125</LongitudeDegrees>
            </Position>
            <AltitudeMeters>728.4000244140625</AltitudeMeters>
            <DistanceMeters>NAN</DistanceMeters>
          </Trackpoint>
          <Trackpoint>
            <Time>2019-10-05T07:56:26.000Z</Time>
            <Position>
              <LatitudeDegrees>42.59234332479536533355712890625</LatitudeDegrees>
              <LongitudeDegrees>-5.57548868469893932342529296875</LongitudeDegrees>
            </Position>
            <AltitudeMeters>728.20001220703125</AltitudeMeters>
            <DistanceMeters>NAN</DistanceMeters>
          </Trackpoint>
          <Trackpoint>
            <Time>2019-10-05T07:56:29.000Z</Time>
            <Position>
              <LatitudeDegrees>42.59244340471923351287841796875</LatitudeDegrees>
              <LongitudeDegrees>-5.57557518593966960906982421875</LongitudeDegrees>
            </Position>
            <AltitudeMeters>728.79998779296875</AltitudeMeters>
            <DistanceMeters>NAN</DistanceMeters>
          </Trackpoint>
          <Trackpoint>
            <Time>2019-10-05T07:56:31.000Z</Time>
            <Position>
              <LatitudeDegrees>42.59251180104911327362060546875</LatitudeDegrees>
              <LongitudeDegrees>-5.5756210349500179290771484375</LongitudeDegrees>
            </Position>
            <AltitudeMeters>728.79998779296875</AltitudeMeters>
            <DistanceMeters>NAN</DistanceMeters>
          </Trackpoint>
          <Trackpoint>
            <Time>2019-10-05T07:56:33.000Z</Time>
            <Position>
              <LatitudeDegrees>42.5925831310451030731201171875</LatitudeDegrees>
              <LongitudeDegrees>-5.57568465359508991241455078125</LongitudeDegrees>
            </Position>
            <AltitudeMeters>729</AltitudeMeters>
            <DistanceMeters>NAN</DistanceMeters>
          </Trackpoint>
          <Trackpoint>
            <Time>2019-10-05T07:56:37.000Z</Time>
            <Position>
              <LatitudeDegrees>42.59272201918065547943115234375</LatitudeDegrees>
              <LongitudeDegrees>-5.57583049871027469635009765625</LongitudeDegrees>
            </Position>
            <AltitudeMeters>728.79998779296875</AltitudeMeters>
            <DistanceMeters>NAN</DistanceMeters>
          </Trackpoint>
          <Trackpoint>
            <Time>2019-10-05T07:56:44.000Z</Time>
            <Position>
              <LatitudeDegrees>42.59300046600401401519775390625</LatitudeDegrees>
              <LongitudeDegrees>-5.5760107934474945068359375</LongitudeDegrees>
            </Position>
            <AltitudeMeters>729.4000244140625</AltitudeMeters>
            <DistanceMeters>NAN</DistanceMeters>
          </Trackpoint>
          <Trackpoint>
            <Time>2019-10-05T07:56:45.000Z</Time>
            <Position>
              <LatitudeDegrees>42.593042291700839996337890625</LatitudeDegrees>
              <LongitudeDegrees>-5.57603552006185054779052734375</LongitudeDegrees>
            </Position>
            <AltitudeMeters>729.4000244140625</AltitudeMeters>
            <DistanceMeters>NAN</DistanceMeters>
          </Trackpoint>
          <Trackpoint>
            <Time>2019-10-05T07:56:49.000Z</Time>
            <Position>
              <LatitudeDegrees>42.5931956805288791656494140625</LatitudeDegrees>
              <LongitudeDegrees>-5.57612118311226367950439453125</LongitudeDegrees>
            </Position>
            <AltitudeMeters>729</AltitudeMeters>
            <DistanceMeters>NAN</DistanceMeters>
          </Trackpoint>
          <Trackpoint>
            <Time>2019-10-05T07:56:55.000Z</Time>
            <Position>
              <LatitudeDegrees>42.59340430609881877899169921875</LatitudeDegrees>
              <LongitudeDegrees>-5.57624037377536296844482421875</LongitudeDegrees>
            </Position>
            <AltitudeMeters>729.5999755859375</AltitudeMeters>
            <DistanceMeters>NAN</DistanceMeters>
          </Trackpoint>
          <Trackpoint>
            <Time>2019-10-05T07:56:59.000Z</Time>
            <Position>
              <LatitudeDegrees>42.5934461317956447601318359375</LatitudeDegrees>
              <LongitudeDegrees>-5.57628630660474300384521484375</LongitudeDegrees>
            </Position>
            <AltitudeMeters>730</AltitudeMeters>
            <DistanceMeters>NAN</DistanceMeters>
          </Trackpoint>
          <Trackpoint>
            <Time>2019-10-05T07:57:03.000Z</Time>
            <Position>
              <LatitudeDegrees>42.5934307090938091278076171875</LatitudeDegrees>
              <LongitudeDegrees>-5.57635746896266937255859375</LongitudeDegrees>
            </Position>
            <AltitudeMeters>729.79998779296875</AltitudeMeters>
            <DistanceMeters>NAN</DistanceMeters>
          </Trackpoint>
          <Trackpoint>
            <Time>2019-10-05T07:57:06.000Z</Time>
            <Position>
              <LatitudeDegrees>42.593383602797985076904296875</LatitudeDegrees>
              <LongitudeDegrees>-5.57633894495666027069091796875</LongitudeDegrees>
            </Position>
            <AltitudeMeters>729.4000244140625</AltitudeMeters>
            <DistanceMeters>NAN</DistanceMeters>
          </Trackpoint>
          <Trackpoint>
            <Time>2019-10-05T07:57:08.000Z</Time>
            <Position>
              <LatitudeDegrees>42.59333490394055843353271484375</LatitudeDegrees>
              <LongitudeDegrees>-5.57631161995232105255126953125</LongitudeDegrees>
            </Position>
            <AltitudeMeters>729.20001220703125</AltitudeMeters>
            <DistanceMeters>NAN</DistanceMeters>
          </Trackpoint>
          <Trackpoint>
            <Time>2019-10-05T07:57:10.000Z</Time>
            <Position>
              <LatitudeDegrees>42.5932640768587589263916015625</LatitudeDegrees>
              <LongitudeDegrees>-5.57627121917903423309326171875</LongitudeDegrees>
            </Position>
            <AltitudeMeters>729</AltitudeMeters>
            <DistanceMeters>NAN</DistanceMeters>
          </Trackpoint>
          <Trackpoint>
            <Time>2019-10-05T07:57:13.000Z</Time>
            <Position>
              <LatitudeDegrees>42.59316458366811275482177734375</LatitudeDegrees>
              <LongitudeDegrees>-5.57622159831225872039794921875</LongitudeDegrees>
            </Position>
            <AltitudeMeters>729</AltitudeMeters>
            <DistanceMeters>NAN</DistanceMeters>
          </Trackpoint>
          <Trackpoint>
            <Time>2019-10-05T07:57:18.000Z</Time>
            <Position>
              <LatitudeDegrees>42.59300650097429752349853515625</LatitudeDegrees>
              <LongitudeDegrees>-5.5761340074241161346435546875</LongitudeDegrees>
            </Position>
            <AltitudeMeters>729</AltitudeMeters>
            <DistanceMeters>NAN</DistanceMeters>
          </Trackpoint>
          <Trackpoint>
            <Time>2019-10-05T07:57:21.000Z</Time>
            <Position>
              <LatitudeDegrees>42.59300214238464832305908203125</LatitudeDegrees>
              <LongitudeDegrees>-5.57613157667219638824462890625</LongitudeDegrees>
            </Position>
            <AltitudeMeters>729.4000244140625</AltitudeMeters>
            <DistanceMeters>NAN</DistanceMeters>
          </Trackpoint>
          <Trackpoint>
            <Time>2019-10-05T07:57:31.000Z</Time>
            <Position>
              <LatitudeDegrees>42.5930035673081874847412109375</LatitudeDegrees>
              <LongitudeDegrees>-5.576127469539642333984375</LongitudeDegrees>
            </Position>
            <AltitudeMeters>729.5999755859375</AltitudeMeters>
            <DistanceMeters>NAN</DistanceMeters>
          </Trackpoint>
          <Trackpoint>
            <Time>2019-10-05T07:57:35.000Z</Time>
            <Position>
              <LatitudeDegrees>42.5930035673081874847412109375</LatitudeDegrees>
              <LongitudeDegrees>-5.576127469539642333984375</LongitudeDegrees>
            </Position>
            <AltitudeMeters>729.5999755859375</AltitudeMeters>
            <DistanceMeters>NAN</DistanceMeters>
          </Trackpoint>
          <Trackpoint>
            <Time>2019-10-05T07:57:42.000Z</Time>
            <Position>
              <LatitudeDegrees>42.5930035673081874847412109375</LatitudeDegrees>
              <LongitudeDegrees>-5.576127469539642333984375</LongitudeDegrees>
            </Position>
            <AltitudeMeters>729.5999755859375</AltitudeMeters>
            <DistanceMeters>NAN</DistanceMeters>
          </Trackpoint>
          <Trackpoint>
            <Time>2019-10-05T07:57:53.000Z</Time>
            <Position>
              <LatitudeDegrees>42.5929931737482547760009765625</LatitudeDegrees>
              <LongitudeDegrees>-5.5761229433119297027587890625</LongitudeDegrees>
            </Position>
            <AltitudeMeters>729.4000244140625</AltitudeMeters>
            <DistanceMeters>NAN</DistanceMeters>
          </Trackpoint>
          <Trackpoint>
            <Time>2019-10-05T07:57:57.000Z</Time>
            <Position>
              <LatitudeDegrees>42.59289049543440341949462890625</LatitudeDegrees>
              <LongitudeDegrees>-5.57604826055467128753662109375</LongitudeDegrees>
            </Position>
            <AltitudeMeters>728.79998779296875</AltitudeMeters>
            <DistanceMeters>NAN</DistanceMeters>
          </Trackpoint>
          <Trackpoint>
            <Time>2019-10-05T07:57:58.000Z</Time>
            <Position>
              <LatitudeDegrees>42.5928577221930027008056640625</LatitudeDegrees>
              <LongitudeDegrees>-5.57604038156569004058837890625</LongitudeDegrees>
            </Position>
            <AltitudeMeters>728.79998779296875</AltitudeMeters>
            <DistanceMeters>NAN</DistanceMeters>
          </Trackpoint>
          <Trackpoint>
            <Time>2019-10-05T07:58:01.000Z</Time>
            <Position>
              <LatitudeDegrees>42.59274934418499469757080078125</LatitudeDegrees>
              <LongitudeDegrees>-5.575998723506927490234375</LongitudeDegrees>
            </Position>
            <AltitudeMeters>728.4000244140625</AltitudeMeters>
            <DistanceMeters>NAN</DistanceMeters>
          </Trackpoint>
          <Trackpoint>
            <Time>2019-10-05T07:58:03.000Z</Time>
            <Position>
              <LatitudeDegrees>42.59266887791454792022705078125</LatitudeDegrees>
              <LongitudeDegrees>-5.57595354504883289337158203125</LongitudeDegrees>
            </Position>
            <AltitudeMeters>728.20001220703125</AltitudeMeters>
            <DistanceMeters>NAN</DistanceMeters>
          </Trackpoint>
          <Trackpoint>
            <Time>2019-10-05T07:58:04.000Z</Time>
            <Position>
              <LatitudeDegrees>42.59262688457965850830078125</LatitudeDegrees>
              <LongitudeDegrees>-5.57593376375734806060791015625</LongitudeDegrees>
            </Position>
            <AltitudeMeters>728.4000244140625</AltitudeMeters>
            <DistanceMeters>NAN</DistanceMeters>
          </Trackpoint>
          <Trackpoint>
            <Time>2019-10-05T07:58:11.000Z</Time>
            <Position>
              <LatitudeDegrees>42.59233343414962291717529296875</LatitudeDegrees>
              <LongitudeDegrees>-5.5757792852818965911865234375</LongitudeDegrees>
            </Position>
            <AltitudeMeters>727.5999755859375</AltitudeMeters>
            <DistanceMeters>NAN</DistanceMeters>
          </Trackpoint>
          <Trackpoint>
            <Time>2019-10-05T07:58:18.000Z</Time>
            <Position>
              <LatitudeDegrees>42.5920299254357814788818359375</LatitudeDegrees>
              <LongitudeDegrees>-5.575601756572723388671875</LongitudeDegrees>
            </Position>
            <AltitudeMeters>727.20001220703125</AltitudeMeters>
            <DistanceMeters>NAN</DistanceMeters>
          </Trackpoint>
          <Trackpoint>
            <Time>2019-10-05T07:58:21.000Z</Time>
            <Position>
              <LatitudeDegrees>42.59184845723211765289306640625</LatitudeDegrees>
              <LongitudeDegrees>-5.57547929696738719940185546875</LongitudeDegrees>
            </Position>
            <AltitudeMeters>727</AltitudeMeters>
            <DistanceMeters>NAN</DistanceMeters>
          </Trackpoint>
          <Trackpoint>
            <Time>2019-10-05T07:58:25.000Z</Time>
            <Position>
              <LatitudeDegrees>42.5917037017643451690673828125</LatitudeDegrees>
              <LongitudeDegrees>-5.57538659311830997467041015625</LongitudeDegrees>
            </Position>
            <AltitudeMeters>727.5999755859375</AltitudeMeters>
            <DistanceMeters>NAN</DistanceMeters>
          </Trackpoint>
          <Trackpoint>
            <Time>2019-10-05T07:58:28.000Z</Time>
            <Position>
              <LatitudeDegrees>42.59156070649623870849609375</LatitudeDegrees>
              <LongitudeDegrees>-5.5752941407263278961181640625</LongitudeDegrees>
            </Position>
            <AltitudeMeters>727</AltitudeMeters>
            <DistanceMeters>NAN</DistanceMeters>
          </Trackpoint>
          <Trackpoint>
            <Time>2019-10-05T07:58:34.000Z</Time>
            <Position>
              <LatitudeDegrees>42.59125367738306522369384765625</LatitudeDegrees>
              <LongitudeDegrees>-5.57508015073835849761962890625</LongitudeDegrees>
            </Position>
            <AltitudeMeters>726.4000244140625</AltitudeMeters>
            <DistanceMeters>NAN</DistanceMeters>
          </Trackpoint>
          <Trackpoint>
            <Time>2019-10-05T07:58:35.000Z</Time>
            <Position>
              <LatitudeDegrees>42.5912044756114482879638671875</LatitudeDegrees>
              <LongitudeDegrees>-5.575054585933685302734375</LongitudeDegrees>
            </Position>
            <AltitudeMeters>726.20001220703125</AltitudeMeters>
            <DistanceMeters>NAN</DistanceMeters>
          </Trackpoint>
          <Trackpoint>
            <Time>2019-10-05T07:58:41.000Z</Time>
            <Position>
              <LatitudeDegrees>42.59091152809560298919677734375</LatitudeDegrees>
              <LongitudeDegrees>-5.5748971737921237945556640625</LongitudeDegrees>
            </Position>
            <AltitudeMeters>726.20001220703125</AltitudeMeters>
            <DistanceMeters>NAN</DistanceMeters>
          </Trackpoint>
          <Trackpoint>
            <Time>2019-10-05T07:58:43.000Z</Time>
            <Position>
              <LatitudeDegrees>42.59082301519811153411865234375</LatitudeDegrees>
              <LongitudeDegrees>-5.57486507110297679901123046875</LongitudeDegrees>
            </Position>
            <AltitudeMeters>725.79998779296875</AltitudeMeters>
            <DistanceMeters>NAN</DistanceMeters>
          </Trackpoint>
          <Trackpoint>
            <Time>2019-10-05T07:58:47.000Z</Time>
            <Position>
              <LatitudeDegrees>42.59063257835805416107177734375</LatitudeDegrees>
              <LongitudeDegrees>-5.5747791565954685211181640625</LongitudeDegrees>
            </Position>
            <AltitudeMeters>726</AltitudeMeters>
            <DistanceMeters>NAN</DistanceMeters>
          </Trackpoint>
          <Trackpoint>
            <Time>2019-10-05T07:58:48.000Z</Time>
            <Position>
              <LatitudeDegrees>42.59058547206223011016845703125</LatitudeDegrees>
              <LongitudeDegrees>-5.57476817630231380462646484375</LongitudeDegrees>
            </Position>
            <AltitudeMeters>725.79998779296875</AltitudeMeters>
            <DistanceMeters>NAN</DistanceMeters>
          </Trackpoint>
          <Trackpoint>
            <Time>2019-10-05T07:58:50.000Z</Time>
            <Position>
              <LatitudeDegrees>42.5904926843941211700439453125</LatitudeDegrees>
              <LongitudeDegrees>-5.57474923320114612579345703125</LongitudeDegrees>
            </Position>
            <AltitudeMeters>725.4000244140625</AltitudeMeters>
            <DistanceMeters>NAN</DistanceMeters>
          </Trackpoint>
          <Trackpoint>
            <Time>2019-10-05T07:58:51.000Z</Time>
            <Position>
              <LatitudeDegrees>42.59044599719345569610595703125</LatitudeDegrees>
              <LongitudeDegrees>-5.5747399292886257171630859375</LongitudeDegrees>
            </Position>
            <AltitudeMeters>725.20001220703125</AltitudeMeters>
            <DistanceMeters>NAN</DistanceMeters>
          </Trackpoint>
          <Trackpoint>
            <Time>2019-10-05T07:58:54.000Z</Time>
            <Position>
              <LatitudeDegrees>42.5902967154979705810546875</LatitudeDegrees>
              <LongitudeDegrees>-5.57468452490866184234619140625</LongitudeDegrees>
            </Position>
            <AltitudeMeters>725.20001220703125</AltitudeMeters>
            <DistanceMeters>NAN</DistanceMeters>
          </Trackpoint>
          <Trackpoint>
            <Time>2019-10-05T07:58:56.000Z</Time>
            <Position>
              <LatitudeDegrees>42.5901947915554046630859375</LatitudeDegrees>
              <LongitudeDegrees>-5.57460590265691280364990234375</LongitudeDegrees>
            </Position>
            <AltitudeMeters>724.79998779296875</AltitudeMeters>
            <DistanceMeters>NAN</DistanceMeters>
          </Trackpoint>
          <Trackpoint>
            <Time>2019-10-05T07:59:00.000Z</Time>
            <Position>
              <LatitudeDegrees>42.59001550264656543731689453125</LatitudeDegrees>
              <LongitudeDegrees>-5.5744981952011585235595703125</LongitudeDegrees>
            </Position>
            <AltitudeMeters>724.79998779296875</AltitudeMeters>
            <DistanceMeters>NAN</DistanceMeters>
          </Trackpoint>
          <Trackpoint>
            <Time>2019-10-05T07:59:01.000Z</Time>
            <Position>
              <LatitudeDegrees>42.589983232319355010986328125</LatitudeDegrees>
              <LongitudeDegrees>-5.57447682134807109832763671875</LongitudeDegrees>
            </Position>
            <AltitudeMeters>724.4000244140625</AltitudeMeters>
            <DistanceMeters>NAN</DistanceMeters>
          </Trackpoint>
          <Trackpoint>
            <Time>2019-10-05T07:59:04.000Z</Time>
            <Position>
              <LatitudeDegrees>42.5898922048509120941162109375</LatitudeDegrees>
              <LongitudeDegrees>-5.574424266815185546875</LongitudeDegrees>
            </Position>
            <AltitudeMeters>725</AltitudeMeters>
            <DistanceMeters>NAN</DistanceMeters>
          </Trackpoint>
          <Trackpoint>
            <Time>2019-10-05T07:59:05.000Z</Time>
            <Position>
              <LatitudeDegrees>42.58986412547528743743896484375</LatitudeDegrees>
              <LongitudeDegrees>-5.57440674863755702972412109375</LongitudeDegrees>
            </Position>
            <AltitudeMeters>724.79998779296875</AltitudeMeters>
            <DistanceMeters>NAN</DistanceMeters>
          </Trackpoint>
          <Trackpoint>
            <Time>2019-10-05T07:59:09.000Z</Time>
            <Position>
              <LatitudeDegrees>42.58980092592537403106689453125</LatitudeDegrees>
              <LongitudeDegrees>-5.57438529096543788909912109375</LongitudeDegrees>
            </Position>
            <AltitudeMeters>724</AltitudeMeters>
            <DistanceMeters>NAN</DistanceMeters>
          </Trackpoint>
          <Trackpoint>
            <Time>2019-10-05T07:59:10.000Z</Time>
            <Position>
              <LatitudeDegrees>42.5898050330579280853271484375</LatitudeDegrees>
              <LongitudeDegrees>-5.574387721717357635498046875</LongitudeDegrees>
            </Position>
            <AltitudeMeters>724</AltitudeMeters>
            <DistanceMeters>NAN</DistanceMeters>
          </Trackpoint>
          <Trackpoint>
            <Time>2019-10-05T07:59:13.000Z</Time>
            <Position>
              <LatitudeDegrees>42.5898469425737857818603515625</LatitudeDegrees>
              <LongitudeDegrees>-5.57439836673438549041748046875</LongitudeDegrees>
            </Position>
            <AltitudeMeters>723.4000244140625</AltitudeMeters>
            <DistanceMeters>NAN</DistanceMeters>
          </Trackpoint>
          <Trackpoint>
            <Time>2019-10-05T07:59:14.000Z</Time>
            <Position>
              <LatitudeDegrees>42.58986228145658969879150390625</LatitudeDegrees>
              <LongitudeDegrees>-5.5743959359824657440185546875</LongitudeDegrees>
            </Position>
            <AltitudeMeters>722.79998779296875</AltitudeMeters>
            <DistanceMeters>NAN</DistanceMeters>
          </Trackpoint>
          <Trackpoint>
            <Time>2019-10-05T07:59:15.000Z</Time>
            <Position>
              <LatitudeDegrees>42.5898727588355541229248046875</LatitudeDegrees>
              <LongitudeDegrees>-5.57441881857812404632568359375</LongitudeDegrees>
            </Position>
            <AltitudeMeters>722.4000244140625</AltitudeMeters>
            <DistanceMeters>NAN</DistanceMeters>
          </Trackpoint>
          <Trackpoint>
            <Time>2019-10-05T07:59:17.000Z</Time>
            <Position>
              <LatitudeDegrees>42.58990980684757232666015625</LatitudeDegrees>
              <LongitudeDegrees>-5.57447246275842189788818359375</LongitudeDegrees>
            </Position>
            <AltitudeMeters>722.20001220703125</AltitudeMeters>
            <DistanceMeters>NAN</DistanceMeters>
          </Trackpoint>
          <Trackpoint>
            <Time>2019-10-05T07:59:22.000Z</Time>
            <Position>
              <LatitudeDegrees>42.59006135165691375732421875</LatitudeDegrees>
              <LongitudeDegrees>-5.5745677649974822998046875</LongitudeDegrees>
            </Position>
            <AltitudeMeters>722.4000244140625</AltitudeMeters>
            <DistanceMeters>NAN</DistanceMeters>
          </Trackpoint>
          <Trackpoint>
            <Time>2019-10-05T07:59:24.000Z</Time>
            <Position>
              <LatitudeDegrees>42.59012966416776180267333984375</LatitudeDegrees>
              <LongitudeDegrees>-5.57460330426692962646484375</LongitudeDegrees>
            </Position>
            <AltitudeMeters>722.5999755859375</AltitudeMeters>
            <DistanceMeters>NAN</DistanceMeters>
          </Trackpoint>
          <Trackpoint>
            <Time>2019-10-05T07:59:26.000Z</Time>
            <Position>
              <LatitudeDegrees>42.59020057506859302520751953125</LatitudeDegrees>
              <LongitudeDegrees>-5.574639178812503814697265625</LongitudeDegrees>
            </Position>
            <AltitudeMeters>722.5999755859375</AltitudeMeters>
            <DistanceMeters>NAN</DistanceMeters>
          </Trackpoint>
          <Trackpoint>
            <Time>2019-10-05T07:59:28.000Z</Time>
            <Position>
              <LatitudeDegrees>42.590272240340709686279296875</LatitudeDegrees>
              <LongitudeDegrees>-5.5746718682348728179931640625</LongitudeDegrees>
            </Position>
            <AltitudeMeters>722.5999755859375</AltitudeMeters>
            <DistanceMeters>NAN</DistanceMeters>
          </Trackpoint>
          <Trackpoint>
            <Time>2019-10-05T07:59:29.000Z</Time>
            <Position>
              <LatitudeDegrees>42.5903042592108249664306640625</LatitudeDegrees>
              <LongitudeDegrees>-5.5746886320412158966064453125</LongitudeDegrees>
            </Position>
            <AltitudeMeters>722.5999755859375</AltitudeMeters>
            <DistanceMeters>NAN</DistanceMeters>
          </Trackpoint>
          <Trackpoint>
            <Time>2019-10-05T07:59:34.000Z</Time>
            <Position>
              <LatitudeDegrees>42.59049343876540660858154296875</LatitudeDegrees>
              <LongitudeDegrees>-5.5748066492378711700439453125</LongitudeDegrees>
            </Position>
            <AltitudeMeters>722.20001220703125</AltitudeMeters>
            <DistanceMeters>NAN</DistanceMeters>
          </Trackpoint>
          <Trackpoint>
            <Time>2019-10-05T07:59:36.000Z</Time>
            <Position>
              <LatitudeDegrees>42.59055730886757373809814453125</LatitudeDegrees>
              <LongitudeDegrees>-5.57483908720314502716064453125</LongitudeDegrees>
            </Position>
            <AltitudeMeters>722.79998779296875</AltitudeMeters>
            <DistanceMeters>NAN</DistanceMeters>
          </Trackpoint>
          <Trackpoint>
            <Time>2019-10-05T07:59:39.000Z</Time>
            <Position>
              <LatitudeDegrees>42.5906801037490367889404296875</LatitudeDegrees>
              <LongitudeDegrees>-5.57491402141749858856201171875</LongitudeDegrees>
            </Position>
            <AltitudeMeters>723.20001220703125</AltitudeMeters>
            <DistanceMeters>NAN</DistanceMeters>
          </Trackpoint>
          <Trackpoint>
            <Time>2019-10-05T07:59:44.000Z</Time>
            <Position>
              <LatitudeDegrees>42.59087498299777507781982421875</LatitudeDegrees>
              <LongitudeDegrees>-5.5750289373099803924560546875</LongitudeDegrees>
            </Position>
            <AltitudeMeters>723.4000244140625</AltitudeMeters>
            <DistanceMeters>NAN</DistanceMeters>
          </Trackpoint>
          <Trackpoint>
            <Time>2019-10-05T07:59:46.000Z</Time>
            <Position>
              <LatitudeDegrees>42.5909500010311603546142578125</LatitudeDegrees>
              <LongitudeDegrees>-5.57507076300680637359619140625</LongitudeDegrees>
            </Position>
            <AltitudeMeters>723.4000244140625</AltitudeMeters>
            <DistanceMeters>NAN</DistanceMeters>
          </Trackpoint>
          <Trackpoint>
            <Time>2019-10-05T07:59:49.000Z</Time>
            <Position>
              <LatitudeDegrees>42.59106592275202274322509765625</LatitudeDegrees>
              <LongitudeDegrees>-5.57514184154570102691650390625</LongitudeDegrees>
            </Position>
            <AltitudeMeters>724</AltitudeMeters>
            <DistanceMeters>NAN</DistanceMeters>
          </Trackpoint>
          <Trackpoint>
            <Time>2019-10-05T07:59:53.000Z</Time>
            <Position>
              <LatitudeDegrees>42.5912202335894107818603515625</LatitudeDegrees>
              <LongitudeDegrees>-5.57524125091731548309326171875</LongitudeDegrees>
            </Position>
            <AltitudeMeters>724</AltitudeMeters>
            <DistanceMeters>NAN</DistanceMeters>
          </Trackpoint>
          <Trackpoint>
            <Time>2019-10-05T07:59:54.000Z</Time>
            <Position>
              <LatitudeDegrees>42.59125359356403350830078125</LatitudeDegrees>
              <LongitudeDegrees>-5.57526572607457637786865234375</LongitudeDegrees>
            </Position>
            <AltitudeMeters>723.79998779296875</AltitudeMeters>
            <DistanceMeters>NAN</DistanceMeters>
          </Trackpoint>
          <Trackpoint>
            <Time>2019-10-05T07:59:57.000Z</Time>
            <Position>
              <LatitudeDegrees>42.59134487248957157135009765625</LatitudeDegrees>
              <LongitudeDegrees>-5.57534250430762767791748046875</LongitudeDegrees>
            </Position>
            <AltitudeMeters>724</AltitudeMeters>
            <DistanceMeters>NAN</DistanceMeters>
          </Trackpoint>
          <Trackpoint>
            <Time>2019-10-05T07:59:59.000Z</Time>
            <Position>
              <LatitudeDegrees>42.59137420915067195892333984375</LatitudeDegrees>
              <LongitudeDegrees>-5.575419701635837554931640625</LongitudeDegrees>
            </Position>
            <AltitudeMeters>724.20001220703125</AltitudeMeters>
            <DistanceMeters>NAN</DistanceMeters>
          </Trackpoint>
          <Trackpoint>
            <Time>2019-10-05T08:00:01.000Z</Time>
            <Position>
              <LatitudeDegrees>42.59137001819908618927001953125</LatitudeDegrees>
              <LongitudeDegrees>-5.57548013515770435333251953125</LongitudeDegrees>
            </Position>
            <AltitudeMeters>724.4000244140625</AltitudeMeters>
            <DistanceMeters>NAN</DistanceMeters>
          </Trackpoint>
          <Trackpoint>
            <Time>2019-10-05T08:00:03.000Z</Time>
            <Position>
              <LatitudeDegrees>42.59135845117270946502685546875</LatitudeDegrees>
              <LongitudeDegrees>-5.57556361891329288482666015625</LongitudeDegrees>
            </Position>
            <AltitudeMeters>724.4000244140625</AltitudeMeters>
            <DistanceMeters>NAN</DistanceMeters>
          </Trackpoint>
          <Trackpoint>
            <Time>2019-10-05T08:00:08.000Z</Time>
            <Position>
              <LatitudeDegrees>42.5912577845156192779541015625</LatitudeDegrees>
              <LongitudeDegrees>-5.5758064426481723785400390625</LongitudeDegrees>
            </Position>
            <AltitudeMeters>723.5999755859375</AltitudeMeters>
            <DistanceMeters>NAN</DistanceMeters>
          </Trackpoint>
          <Trackpoint>
            <Time>2019-10-05T08:00:09.000Z</Time>
            <Position>
              <LatitudeDegrees>42.59123255498707294464111328125</LatitudeDegrees>
              <LongitudeDegrees>-5.57585095055401325225830078125</LongitudeDegrees>
            </Position>
            <AltitudeMeters>723.4000244140625</AltitudeMeters>
            <DistanceMeters>NAN</DistanceMeters>
          </Trackpoint>
          <Trackpoint>
            <Time>2019-10-05T08:00:11.000Z</Time>
            <Position>
              <LatitudeDegrees>42.59115912951529026031494140625</LatitudeDegrees>
              <LongitudeDegrees>-5.5758778564631938934326171875</LongitudeDegrees>
            </Position>
            <AltitudeMeters>723.20001220703125</AltitudeMeters>
            <DistanceMeters>NAN</DistanceMeters>
          </Trackpoint>
          <Trackpoint>
            <Time>2019-10-05T08:00:12.000Z</Time>
            <Position>
              <LatitudeDegrees>42.59111252613365650177001953125</LatitudeDegrees>
              <LongitudeDegrees>-5.5758818797767162322998046875</LongitudeDegrees>
            </Position>
            <AltitudeMeters>722.5999755859375</AltitudeMeters>
            <DistanceMeters>NAN</DistanceMeters>
          </Trackpoint>
          <Trackpoint>
            <Time>2019-10-05T08:00:13.000Z</Time>
            <Position>
              <LatitudeDegrees>42.5910660065710544586181640625</LatitudeDegrees>
              <LongitudeDegrees>-5.575889758765697479248046875</LongitudeDegrees>
            </Position>
            <AltitudeMeters>722.4000244140625</AltitudeMeters>
            <DistanceMeters>NAN</DistanceMeters>
          </Trackpoint>
          <Trackpoint>
            <Time>2019-10-05T08:00:14.000Z</Time>
            <Position>
              <LatitudeDegrees>42.59102560579776763916015625</LatitudeDegrees>
              <LongitudeDegrees>-5.57592689059674739837646484375</LongitudeDegrees>
            </Position>
            <AltitudeMeters>721.5999755859375</AltitudeMeters>
            <DistanceMeters>NAN</DistanceMeters>
          </Trackpoint>
          <Trackpoint>
            <Time>2019-10-05T08:00:15.000Z</Time>
            <Position>
              <LatitudeDegrees>42.59099652059376239776611328125</LatitudeDegrees>
              <LongitudeDegrees>-5.57598003186285495758056640625</LongitudeDegrees>
            </Position>
            <AltitudeMeters>721.5999755859375</AltitudeMeters>
            <DistanceMeters>NAN</DistanceMeters>
          </Trackpoint>
          <Trackpoint>
            <Time>2019-10-05T08:00:19.000Z</Time>
            <Position>
              <LatitudeDegrees>42.5909270346164703369140625</LatitudeDegrees>
              <LongitudeDegrees>-5.57619226165115833282470703125</LongitudeDegrees>
            </Position>
            <AltitudeMeters>720.5999755859375</AltitudeMeters>
            <DistanceMeters>NAN</DistanceMeters>
          </Trackpoint>
          <Trackpoint>
            <Time>2019-10-05T08:00:21.000Z</Time>
            <Position>
              <LatitudeDegrees>42.59090356528759002685546875</LatitudeDegrees>
              <LongitudeDegrees>-5.57626250199973583221435546875</LongitudeDegrees>
            </Position>
            <AltitudeMeters>720.4000244140625</AltitudeMeters>
            <DistanceMeters>NAN</DistanceMeters>
          </Trackpoint>
          <Trackpoint>
            <Time>2019-10-05T08:00:22.000Z</Time>
            <Position>
              <LatitudeDegrees>42.5908695347607135772705078125</LatitudeDegrees>
              <LongitudeDegrees>-5.57629653252661228179931640625</LongitudeDegrees>
            </Position>
            <AltitudeMeters>720.4000244140625</AltitudeMeters>
            <DistanceMeters>NAN</DistanceMeters>
          </Trackpoint>
          <Trackpoint>
            <Time>2019-10-05T08:00:23.000Z</Time>
            <Position>
              <LatitudeDegrees>42.59085662662982940673828125</LatitudeDegrees>
              <LongitudeDegrees>-5.576304160058498382568359375</LongitudeDegrees>
            </Position>
            <AltitudeMeters>720.20001220703125</AltitudeMeters>
            <DistanceMeters>NAN</DistanceMeters>
          </Trackpoint>
          <Trackpoint>
            <Time>2019-10-05T08:00:24.000Z</Time>
            <Position>
              <LatitudeDegrees>42.59082712233066558837890625</LatitudeDegrees>
              <LongitudeDegrees>-5.5763063393533229827880859375</LongitudeDegrees>
            </Position>
            <AltitudeMeters>720.4000244140625</AltitudeMeters>
            <DistanceMeters>NAN</DistanceMeters>
          </Trackpoint>
          <Trackpoint>
            <Time>2019-10-05T08:00:27.000Z</Time>
            <Position>
              <LatitudeDegrees>42.590730898082256317138671875</LatitudeDegrees>
              <LongitudeDegrees>-5.5762674473226070404052734375</LongitudeDegrees>
            </Position>
            <AltitudeMeters>720.20001220703125</AltitudeMeters>
            <DistanceMeters>NAN</DistanceMeters>
          </Trackpoint>
          <Trackpoint>
            <Time>2019-10-05T08:00:35.000Z</Time>
            <Position>
              <LatitudeDegrees>42.59041883982717990875244140625</LatitudeDegrees>
              <LongitudeDegrees>-5.57611749507486820220947265625</LongitudeDegrees>
            </Position>
            <AltitudeMeters>719.4000244140625</AltitudeMeters>
            <DistanceMeters>NAN</DistanceMeters>
          </Trackpoint>
          <Trackpoint>
            <Time>2019-10-05T08:00:38.000Z</Time>
            <Position>
              <LatitudeDegrees>42.59029562585055828094482421875</LatitudeDegrees>
              <LongitudeDegrees>-5.57605211623013019561767578125</LongitudeDegrees>
            </Position>
            <AltitudeMeters>719.79998779296875</AltitudeMeters>
            <DistanceMeters>NAN</DistanceMeters>
          </Trackpoint>
          <Trackpoint>
            <Time>2019-10-05T08:00:45.000Z</Time>
            <Position>
              <LatitudeDegrees>42.59001147933304309844970703125</LatitudeDegrees>
              <LongitudeDegrees>-5.57591834105551242828369140625</LongitudeDegrees>
            </Position>
            <AltitudeMeters>719.5999755859375</AltitudeMeters>
            <DistanceMeters>NAN</DistanceMeters>
          </Trackpoint>
          <Trackpoint>
            <Time>2019-10-05T08:00:49.000Z</Time>
            <Position>
              <LatitudeDegrees>42.589863874018192291259765625</LatitudeDegrees>
              <LongitudeDegrees>-5.57587609626352787017822265625</LongitudeDegrees>
            </Position>
            <AltitudeMeters>719.5999755859375</AltitudeMeters>
            <DistanceMeters>NAN</DistanceMeters>
          </Trackpoint>
          <Trackpoint>
            <Time>2019-10-05T08:00:51.000Z</Time>
            <Position>
              <LatitudeDegrees>42.58981970138847827911376953125</LatitudeDegrees>
              <LongitudeDegrees>-5.57584784924983978271484375</LongitudeDegrees>
            </Position>
            <AltitudeMeters>719.79998779296875</AltitudeMeters>
            <DistanceMeters>NAN</DistanceMeters>
          </Trackpoint>
          <Trackpoint>
            <Time>2019-10-05T08:00:55.000Z</Time>
            <Position>
              <LatitudeDegrees>42.5897249020636081695556640625</LatitudeDegrees>
              <LongitudeDegrees>-5.57570996694266796112060546875</LongitudeDegrees>
            </Position>
            <AltitudeMeters>719.79998779296875</AltitudeMeters>
            <DistanceMeters>NAN</DistanceMeters>
          </Trackpoint>
          <Trackpoint>
            <Time>2019-10-05T08:00:58.000Z</Time>
            <Position>
              <LatitudeDegrees>42.5896060466766357421875</LatitudeDegrees>
              <LongitudeDegrees>-5.5756299197673797607421875</LongitudeDegrees>
            </Position>
            <AltitudeMeters>719.5999755859375</AltitudeMeters>
            <DistanceMeters>NAN</DistanceMeters>
          </Trackpoint>
          <Trackpoint>
            <Time>2019-10-05T08:01:00.000Z</Time>
            <Position>
              <LatitudeDegrees>42.5895230658352375030517578125</LatitudeDegrees>
              <LongitudeDegrees>-5.5755781196057796478271484375</LongitudeDegrees>
            </Position>
            <AltitudeMeters>719.79998779296875</AltitudeMeters>
            <DistanceMeters>NAN</DistanceMeters>
          </Trackpoint>
          <Trackpoint>
            <Time>2019-10-05T08:01:04.000Z</Time>
            <Position>
              <LatitudeDegrees>42.58935584686696529388427734375</LatitudeDegrees>
              <LongitudeDegrees>-5.57547711767256259918212890625</LongitudeDegrees>
            </Position>
            <AltitudeMeters>719.5999755859375</AltitudeMeters>
            <DistanceMeters>NAN</DistanceMeters>
          </Trackpoint>
          <Trackpoint>
            <Time>2019-10-05T08:01:09.000Z</Time>
            <Position>
              <LatitudeDegrees>42.58914696983993053436279296875</LatitudeDegrees>
              <LongitudeDegrees>-5.5753605253994464874267578125</LongitudeDegrees>
            </Position>
            <AltitudeMeters>719.5999755859375</AltitudeMeters>
            <DistanceMeters>NAN</DistanceMeters>
          </Trackpoint>
          <Trackpoint>
            <Time>2019-10-05T08:01:20.000Z</Time>
            <Position>
              <LatitudeDegrees>42.58866526186466217041015625</LatitudeDegrees>
              <LongitudeDegrees>-5.57508115656673908233642578125</LongitudeDegrees>
            </Position>
            <AltitudeMeters>719</AltitudeMeters>
            <DistanceMeters>NAN</DistanceMeters>
          </Trackpoint>
          <Trackpoint>
            <Time>2019-10-05T08:01:29.000Z</Time>
            <Position>
              <LatitudeDegrees>42.58826502598822116851806640625</LatitudeDegrees>
              <LongitudeDegrees>-5.574855767190456390380859375</LongitudeDegrees>
            </Position>
            <AltitudeMeters>718.79998779296875</AltitudeMeters>
            <DistanceMeters>NAN</DistanceMeters>
          </Trackpoint>
          <Trackpoint>
            <Time>2019-10-05T08:01:36.000Z</Time>
            <Position>
              <LatitudeDegrees>42.58796948008239269256591796875</LatitudeDegrees>
              <LongitudeDegrees>-5.57469290681183338165283203125</LongitudeDegrees>
            </Position>
            <AltitudeMeters>718.79998779296875</AltitudeMeters>
            <DistanceMeters>NAN</DistanceMeters>
          </Trackpoint>
          <Trackpoint>
            <Time>2019-10-05T08:01:37.000Z</Time>
            <Position>
              <LatitudeDegrees>42.58792899549007415771484375</LatitudeDegrees>
              <LongitudeDegrees>-5.57468150742352008819580078125</LongitudeDegrees>
            </Position>
            <AltitudeMeters>719</AltitudeMeters>
            <DistanceMeters>NAN</DistanceMeters>
          </Trackpoint>
          <Trackpoint>
            <Time>2019-10-05T08:01:45.000Z</Time>
            <Position>
              <LatitudeDegrees>42.58758156560361385345458984375</LatitudeDegrees>
              <LongitudeDegrees>-5.574495010077953338623046875</LongitudeDegrees>
            </Position>
            <AltitudeMeters>719.20001220703125</AltitudeMeters>
            <DistanceMeters>NAN</DistanceMeters>
          </Trackpoint>
          <Trackpoint>
            <Time>2019-10-05T08:01:47.000Z</Time>
            <Position>
              <LatitudeDegrees>42.5874973274767398834228515625</LatitudeDegrees>
              <LongitudeDegrees>-5.57445519603788852691650390625</LongitudeDegrees>
            </Position>
            <AltitudeMeters>718.79998779296875</AltitudeMeters>
            <DistanceMeters>NAN</DistanceMeters>
          </Trackpoint>
          <Trackpoint>
            <Time>2019-10-05T08:01:53.000Z</Time>
            <Position>
              <LatitudeDegrees>42.58723723702132701873779296875</LatitudeDegrees>
              <LongitudeDegrees>-5.5743102729320526123046875</LongitudeDegrees>
            </Position>
            <AltitudeMeters>718.79998779296875</AltitudeMeters>
            <DistanceMeters>NAN</DistanceMeters>
          </Trackpoint>
          <Trackpoint>
            <Time>2019-10-05T08:02:00.000Z</Time>
            <Position>
              <LatitudeDegrees>42.58691134862601757049560546875</LatitudeDegrees>
              <LongitudeDegrees>-5.5741815268993377685546875</LongitudeDegrees>
            </Position>
            <AltitudeMeters>718.20001220703125</AltitudeMeters>
            <DistanceMeters>NAN</DistanceMeters>
          </Trackpoint>
          <Trackpoint>
            <Time>2019-10-05T08:02:08.000Z</Time>
            <Position>
              <LatitudeDegrees>42.58654086850583553314208984375</LatitudeDegrees>
              <LongitudeDegrees>-5.57399938814342021942138671875</LongitudeDegrees>
            </Position>
            <AltitudeMeters>718.20001220703125</AltitudeMeters>
            <DistanceMeters>NAN</DistanceMeters>
          </Trackpoint>
          <Trackpoint>
            <Time>2019-10-05T08:02:09.000Z</Time>
            <Position>
              <LatitudeDegrees>42.58649258874356746673583984375</LatitudeDegrees>
              <LongitudeDegrees>-5.573972649872303009033203125</LongitudeDegrees>
            </Position>
            <AltitudeMeters>718.20001220703125</AltitudeMeters>
            <DistanceMeters>NAN</DistanceMeters>
          </Trackpoint>
          <Trackpoint>
            <Time>2019-10-05T08:02:15.000Z</Time>
            <Position>
              <LatitudeDegrees>42.586201988160610198974609375</LatitudeDegrees>
              <LongitudeDegrees>-5.57387449778616428375244140625</LongitudeDegrees>
            </Position>
            <AltitudeMeters>718.4000244140625</AltitudeMeters>
            <DistanceMeters>NAN</DistanceMeters>
          </Trackpoint>
          <Trackpoint>
            <Time>2019-10-05T08:02:18.000Z</Time>
            <Position>
              <LatitudeDegrees>42.58610107004642486572265625</LatitudeDegrees>
              <LongitudeDegrees>-5.57383753359317779541015625</LongitudeDegrees>
            </Position>
            <AltitudeMeters>718.20001220703125</AltitudeMeters>
            <DistanceMeters>NAN</DistanceMeters>
          </Trackpoint>
          <Trackpoint>
            <Time>2019-10-05T08:02:19.000Z</Time>
            <Position>
              <LatitudeDegrees>42.58604918606579303741455078125</LatitudeDegrees>
              <LongitudeDegrees>-5.5738149024546146392822265625</LongitudeDegrees>
            </Position>
            <AltitudeMeters>718.4000244140625</AltitudeMeters>
            <DistanceMeters>NAN</DistanceMeters>
          </Trackpoint>
          <Trackpoint>
            <Time>2019-10-05T08:02:23.000Z</Time>
            <Position>
              <LatitudeDegrees>42.5859242118895053863525390625</LatitudeDegrees>
              <LongitudeDegrees>-5.57374122552573680877685546875</LongitudeDegrees>
            </Position>
            <AltitudeMeters>718.79998779296875</AltitudeMeters>
            <DistanceMeters>NAN</DistanceMeters>
          </Trackpoint>
          <Trackpoint>
            <Time>2019-10-05T08:02:24.000Z</Time>
            <Position>
              <LatitudeDegrees>42.58593083359301090240478515625</LatitudeDegrees>
              <LongitudeDegrees>-5.57371138595044612884521484375</LongitudeDegrees>
            </Position>
            <AltitudeMeters>719.4000244140625</AltitudeMeters>
            <DistanceMeters>NAN</DistanceMeters>
          </Trackpoint>
          <Trackpoint>
            <Time>2019-10-05T08:02:27.000Z</Time>
            <Position>
              <LatitudeDegrees>42.5859037600457668304443359375</LatitudeDegrees>
              <LongitudeDegrees>-5.5736097134649753570556640625</LongitudeDegrees>
            </Position>
            <AltitudeMeters>719</AltitudeMeters>
            <DistanceMeters>NAN</DistanceMeters>
          </Trackpoint>
          <Trackpoint>
            <Time>2019-10-05T08:02:28.000Z</Time>
            <Position>
              <LatitudeDegrees>42.58587601594626903533935546875</LatitudeDegrees>
              <LongitudeDegrees>-5.573593787848949432373046875</LongitudeDegrees>
            </Position>
            <AltitudeMeters>719</AltitudeMeters>
            <DistanceMeters>NAN</DistanceMeters>
          </Trackpoint>
          <Trackpoint>
            <Time>2019-10-05T08:02:31.000Z</Time>
            <Position>
              <LatitudeDegrees>42.5857693143188953399658203125</LatitudeDegrees>
              <LongitudeDegrees>-5.57353335432708263397216796875</LongitudeDegrees>
            </Position>
            <AltitudeMeters>718</AltitudeMeters>
            <DistanceMeters>NAN</DistanceMeters>
          </Trackpoint>
          <Trackpoint>
            <Time>2019-10-05T08:02:33.000Z</Time>
            <Position>
              <LatitudeDegrees>42.5856834836304187774658203125</LatitudeDegrees>
              <LongitudeDegrees>-5.57348809204995632171630859375</LongitudeDegrees>
            </Position>
            <AltitudeMeters>717.5999755859375</AltitudeMeters>
            <DistanceMeters>NAN</DistanceMeters>
          </Trackpoint>
          <Trackpoint>
            <Time>2019-10-05T08:02:34.000Z</Time>
            <Position>
              <LatitudeDegrees>42.58563545532524585723876953125</LatitudeDegrees>
              <LongitudeDegrees>-5.57346194051206111907958984375</LongitudeDegrees>
            </Position>
            <AltitudeMeters>717.20001220703125</AltitudeMeters>
            <DistanceMeters>NAN</DistanceMeters>
          </Trackpoint>
          <Trackpoint>
            <Time>2019-10-05T08:02:37.000Z</Time>
            <Position>
              <LatitudeDegrees>42.5855076313018798828125</LatitudeDegrees>
              <LongitudeDegrees>-5.57338784448802471160888671875</LongitudeDegrees>
            </Position>
            <AltitudeMeters>717</AltitudeMeters>
            <DistanceMeters>NAN</DistanceMeters>
          </Trackpoint>
          <Trackpoint>
            <Time>2019-10-05T08:02:39.000Z</Time>
            <Position>
              <LatitudeDegrees>42.5854243151843547821044921875</LatitudeDegrees>
              <LongitudeDegrees>-5.57334543205797672271728515625</LongitudeDegrees>
            </Position>
            <AltitudeMeters>717.4000244140625</AltitudeMeters>
            <DistanceMeters>NAN</DistanceMeters>
          </Trackpoint>
          <Trackpoint>
            <Time>2019-10-05T08:02:44.000Z</Time>
            <Position>
              <LatitudeDegrees>42.585237734019756317138671875</LatitudeDegrees>
              <LongitudeDegrees>-5.57323395274579524993896484375</LongitudeDegrees>
            </Position>
            <AltitudeMeters>718.4000244140625</AltitudeMeters>
            <DistanceMeters>NAN</DistanceMeters>
          </Trackpoint>
          <Trackpoint>
            <Time>2019-10-05T08:02:46.000Z</Time>
            <Position>
              <LatitudeDegrees>42.58518434129655361175537109375</LatitudeDegrees>
              <LongitudeDegrees>-5.573198497295379638671875</LongitudeDegrees>
            </Position>
            <AltitudeMeters>718.79998779296875</AltitudeMeters>
            <DistanceMeters>NAN</DistanceMeters>
          </Trackpoint>
          <Trackpoint>
            <Time>2019-10-05T08:02:48.000Z</Time>
            <Position>
              <LatitudeDegrees>42.58513773791491985321044921875</LatitudeDegrees>
              <LongitudeDegrees>-5.57317611761391162872314453125</LongitudeDegrees>
            </Position>
            <AltitudeMeters>719.5999755859375</AltitudeMeters>
            <DistanceMeters>NAN</DistanceMeters>
          </Trackpoint>
          <Trackpoint>
            <Time>2019-10-05T08:02:51.000Z</Time>
            <Position>
              <LatitudeDegrees>42.58506800048053264617919921875</LatitudeDegrees>
              <LongitudeDegrees>-5.57319137267768383026123046875</LongitudeDegrees>
            </Position>
            <AltitudeMeters>720.4000244140625</AltitudeMeters>
            <DistanceMeters>NAN</DistanceMeters>
          </Trackpoint>
          <Trackpoint>
            <Time>2019-10-05T08:02:52.000Z</Time>
            <Position>
              <LatitudeDegrees>42.58505366742610931396484375</LatitudeDegrees>
              <LongitudeDegrees>-5.57321098633110523223876953125</LongitudeDegrees>
            </Position>
            <AltitudeMeters>720.79998779296875</AltitudeMeters>
            <DistanceMeters>NAN</DistanceMeters>
          </Trackpoint>
          <Trackpoint>
            <Time>2019-10-05T08:02:56.000Z</Time>
            <Position>
              <LatitudeDegrees>42.58498401381075382232666015625</LatitudeDegrees>
              <LongitudeDegrees>-5.5733237229287624359130859375</LongitudeDegrees>
            </Position>
            <AltitudeMeters>721.20001220703125</AltitudeMeters>
            <DistanceMeters>NAN</DistanceMeters>
          </Trackpoint>
          <Trackpoint>
            <Time>2019-10-05T08:03:00.000Z</Time>
            <Position>
              <LatitudeDegrees>42.58491427637636661529541015625</LatitudeDegrees>
              <LongitudeDegrees>-5.57346872985363006591796875</LongitudeDegrees>
            </Position>
            <AltitudeMeters>721.79998779296875</AltitudeMeters>
            <DistanceMeters>NAN</DistanceMeters>
          </Trackpoint>
          <Trackpoint>
            <Time>2019-10-05T08:03:02.000Z</Time>
            <Position>
              <LatitudeDegrees>42.5848865322768688201904296875</LatitudeDegrees>
              <LongitudeDegrees>-5.57353838346898555755615234375</LongitudeDegrees>
            </Position>
            <AltitudeMeters>722.20001220703125</AltitudeMeters>
            <DistanceMeters>NAN</DistanceMeters>
          </Trackpoint>
          <Trackpoint>
            <Time>2019-10-05T08:03:04.000Z</Time>
            <Position>
              <LatitudeDegrees>42.58484755642712116241455078125</LatitudeDegrees>
              <LongitudeDegrees>-5.57360996492207050323486328125</LongitudeDegrees>
            </Position>
            <AltitudeMeters>722</AltitudeMeters>
            <DistanceMeters>NAN</DistanceMeters>
          </Trackpoint>
          <Trackpoint>
            <Time>2019-10-05T08:03:07.000Z</Time>
            <Position>
              <LatitudeDegrees>42.584784440696239471435546875</LatitudeDegrees>
              <LongitudeDegrees>-5.5737367831170558929443359375</LongitudeDegrees>
            </Position>
            <AltitudeMeters>721.20001220703125</AltitudeMeters>
            <DistanceMeters>NAN</DistanceMeters>
          </Trackpoint>
          <Trackpoint>
            <Time>2019-10-05T08:03:11.000Z</Time>
            <Position>
              <LatitudeDegrees>42.5847108475863933563232421875</LatitudeDegrees>
              <LongitudeDegrees>-5.573899559676647186279296875</LongitudeDegrees>
            </Position>
            <AltitudeMeters>720.5999755859375</AltitudeMeters>
            <DistanceMeters>NAN</DistanceMeters>
          </Trackpoint>
          <Trackpoint>
            <Time>2019-10-05T08:03:12.000Z</Time>
            <Position>
              <LatitudeDegrees>42.58469131775200366973876953125</LatitudeDegrees>
              <LongitudeDegrees>-5.57390651665627956390380859375</LongitudeDegrees>
            </Position>
            <AltitudeMeters>720.4000244140625</AltitudeMeters>
            <DistanceMeters>NAN</DistanceMeters>
          </Trackpoint>
          <Trackpoint>
            <Time>2019-10-05T08:03:13.000Z</Time>
            <Position>
              <LatitudeDegrees>42.58467941544950008392333984375</LatitudeDegrees>
              <LongitudeDegrees>-5.573900900781154632568359375</LongitudeDegrees>
            </Position>
            <AltitudeMeters>720</AltitudeMeters>
            <DistanceMeters>NAN</DistanceMeters>
          </Trackpoint>
          <Trackpoint>
            <Time>2019-10-05T08:03:14.000Z</Time>
            <Position>
              <LatitudeDegrees>42.58466181345283985137939453125</LatitudeDegrees>
              <LongitudeDegrees>-5.57389511726796627044677734375</LongitudeDegrees>
            </Position>
            <AltitudeMeters>720.20001220703125</AltitudeMeters>
            <DistanceMeters>NAN</DistanceMeters>
          </Trackpoint>
          <Trackpoint>
            <Time>2019-10-05T08:03:17.000Z</Time>
            <Position>
              <LatitudeDegrees>42.58460951037704944610595703125</LatitudeDegrees>
              <LongitudeDegrees>-5.57390148751437664031982421875</LongitudeDegrees>
            </Position>
            <AltitudeMeters>719.79998779296875</AltitudeMeters>
            <DistanceMeters>NAN</DistanceMeters>
          </Trackpoint>
          <Trackpoint>
            <Time>2019-10-05T08:03:19.000Z</Time>
            <Position>
              <LatitudeDegrees>42.58456609211862087249755859375</LatitudeDegrees>
              <LongitudeDegrees>-5.5739144794642925262451171875</LongitudeDegrees>
            </Position>
            <AltitudeMeters>719.5999755859375</AltitudeMeters>
            <DistanceMeters>NAN</DistanceMeters>
          </Trackpoint>
          <Trackpoint>
            <Time>2019-10-05T08:03:21.000Z</Time>
            <Position>
              <LatitudeDegrees>42.58451856672763824462890625</LatitudeDegrees>
              <LongitudeDegrees>-5.57388983666896820068359375</LongitudeDegrees>
            </Position>
            <AltitudeMeters>719.4000244140625</AltitudeMeters>
            <DistanceMeters>NAN</DistanceMeters>
          </Trackpoint>
          <Trackpoint>
            <Time>2019-10-05T08:03:24.000Z</Time>
            <Position>
              <LatitudeDegrees>42.5844325684010982513427734375</LatitudeDegrees>
              <LongitudeDegrees>-5.573843233287334442138671875</LongitudeDegrees>
            </Position>
            <AltitudeMeters>719.20001220703125</AltitudeMeters>
            <DistanceMeters>NAN</DistanceMeters>
          </Trackpoint>
          <Trackpoint>
            <Time>2019-10-05T08:03:29.000Z</Time>
            <Position>
              <LatitudeDegrees>42.58427322842180728912353515625</LatitudeDegrees>
              <LongitudeDegrees>-5.573754720389842987060546875</LongitudeDegrees>
            </Position>
            <AltitudeMeters>719</AltitudeMeters>
            <DistanceMeters>NAN</DistanceMeters>
          </Trackpoint>
          <Trackpoint>
            <Time>2019-10-05T08:03:31.000Z</Time>
            <Position>
              <LatitudeDegrees>42.584208436310291290283203125</LatitudeDegrees>
              <LongitudeDegrees>-5.5737186782062053680419921875</LongitudeDegrees>
            </Position>
            <AltitudeMeters>718.79998779296875</AltitudeMeters>
            <DistanceMeters>NAN</DistanceMeters>
          </Trackpoint>
          <Trackpoint>
            <Time>2019-10-05T08:03:37.000Z</Time>
            <Position>
              <LatitudeDegrees>42.5840040855109691619873046875</LatitudeDegrees>
              <LongitudeDegrees>-5.573602505028247833251953125</LongitudeDegrees>
            </Position>
            <AltitudeMeters>719.20001220703125</AltitudeMeters>
            <DistanceMeters>NAN</DistanceMeters>
          </Trackpoint>
          <Trackpoint>
            <Time>2019-10-05T08:03:40.000Z</Time>
            <Position>
              <LatitudeDegrees>42.583901993930339813232421875</LatitudeDegrees>
              <LongitudeDegrees>-5.5735460110008716583251953125</LongitudeDegrees>
            </Position>
            <AltitudeMeters>718.79998779296875</AltitudeMeters>
            <DistanceMeters>NAN</DistanceMeters>
          </Trackpoint>
          <Trackpoint>
            <Time>2019-10-05T08:03:48.000Z</Time>
            <Position>
              <LatitudeDegrees>42.58360217325389385223388671875</LatitudeDegrees>
              <LongitudeDegrees>-5.5733941309154033660888671875</LongitudeDegrees>
            </Position>
            <AltitudeMeters>718.4000244140625</AltitudeMeters>
            <DistanceMeters>NAN</DistanceMeters>
          </Trackpoint>
          <Trackpoint>
            <Time>2019-10-05T08:03:56.000Z</Time>
            <Position>
              <LatitudeDegrees>42.58326404727995395660400390625</LatitudeDegrees>
              <LongitudeDegrees>-5.5732248164713382720947265625</LongitudeDegrees>
            </Position>
            <AltitudeMeters>718.4000244140625</AltitudeMeters>
            <DistanceMeters>NAN</DistanceMeters>
          </Trackpoint>
          <Trackpoint>
            <Time>2019-10-05T08:04:01.000Z</Time>
            <Position>
              <LatitudeDegrees>42.58310973644256591796875</LatitudeDegrees>
              <LongitudeDegrees>-5.573138482868671417236328125</LongitudeDegrees>
            </Position>
            <AltitudeMeters>718.4000244140625</AltitudeMeters>
            <DistanceMeters>NAN</DistanceMeters>
          </Trackpoint>
          <Trackpoint>
            <Time>2019-10-05T08:04:06.000Z</Time>
            <Position>
              <LatitudeDegrees>42.58291468955576419830322265625</LatitudeDegrees>
              <LongitudeDegrees>-5.5730360560119152069091796875</LongitudeDegrees>
            </Position>
            <AltitudeMeters>718.5999755859375</AltitudeMeters>
            <DistanceMeters>NAN</DistanceMeters>
          </Trackpoint>
          <Trackpoint>
            <Time>2019-10-05T08:04:13.000Z</Time>
            <Position>
              <LatitudeDegrees>42.58263758383691310882568359375</LatitudeDegrees>
              <LongitudeDegrees>-5.572887696325778961181640625</LongitudeDegrees>
            </Position>
            <AltitudeMeters>718.20001220703125</AltitudeMeters>
            <DistanceMeters>NAN</DistanceMeters>
          </Trackpoint>
          <Trackpoint>
            <Time>2019-10-05T08:04:18.000Z</Time>
            <Position>
              <LatitudeDegrees>42.582447566092014312744140625</LatitudeDegrees>
              <LongitudeDegrees>-5.57278267107903957366943359375</LongitudeDegrees>
            </Position>
            <AltitudeMeters>717.79998779296875</AltitudeMeters>
            <DistanceMeters>NAN</DistanceMeters>
          </Trackpoint>
          <Trackpoint>
            <Time>2019-10-05T08:04:21.000Z</Time>
            <Position>
              <LatitudeDegrees>42.58233265019953250885009765625</LatitudeDegrees>
              <LongitudeDegrees>-5.57272785343229770660400390625</LongitudeDegrees>
            </Position>
            <AltitudeMeters>717.79998779296875</AltitudeMeters>
            <DistanceMeters>NAN</DistanceMeters>
          </Trackpoint>
          <Trackpoint>
            <Time>2019-10-05T08:04:30.000Z</Time>
            <Position>
              <LatitudeDegrees>42.58198765106499195098876953125</LatitudeDegrees>
              <LongitudeDegrees>-5.5725442059338092803955078125</LongitudeDegrees>
            </Position>
            <AltitudeMeters>717.79998779296875</AltitudeMeters>
            <DistanceMeters>NAN</DistanceMeters>
          </Trackpoint>
          <Trackpoint>
            <Time>2019-10-05T08:04:39.000Z</Time>
            <Position>
              <LatitudeDegrees>42.581638209521770477294921875</LatitudeDegrees>
              <LongitudeDegrees>-5.5723655037581920623779296875</LongitudeDegrees>
            </Position>
            <AltitudeMeters>717.5999755859375</AltitudeMeters>
            <DistanceMeters>NAN</DistanceMeters>
          </Trackpoint>
          <Trackpoint>
            <Time>2019-10-05T08:04:43.000Z</Time>
            <Position>
              <LatitudeDegrees>42.58148289285600185394287109375</LatitudeDegrees>
              <LongitudeDegrees>-5.57229031808674335479736328125</LongitudeDegrees>
            </Position>
            <AltitudeMeters>717.79998779296875</AltitudeMeters>
            <DistanceMeters>NAN</DistanceMeters>
          </Trackpoint>
          <Trackpoint>
            <Time>2019-10-05T08:04:47.000Z</Time>
            <Position>
              <LatitudeDegrees>42.58132682181894779205322265625</LatitudeDegrees>
              <LongitudeDegrees>-5.5722327344119548797607421875</LongitudeDegrees>
            </Position>
            <AltitudeMeters>717.79998779296875</AltitudeMeters>
            <DistanceMeters>NAN</DistanceMeters>
          </Trackpoint>
          <Trackpoint>
            <Time>2019-10-05T08:04:55.000Z</Time>
            <Position>
              <LatitudeDegrees>42.58100965060293674468994140625</LatitudeDegrees>
              <LongitudeDegrees>-5.57212200947105884552001953125</LongitudeDegrees>
            </Position>
            <AltitudeMeters>718</AltitudeMeters>
            <DistanceMeters>NAN</DistanceMeters>
          </Trackpoint>
          <Trackpoint>
            <Time>2019-10-05T08:04:59.000Z</Time>
            <Position>
              <LatitudeDegrees>42.58087252266705036163330078125</LatitudeDegrees>
              <LongitudeDegrees>-5.572108514606952667236328125</LongitudeDegrees>
            </Position>
            <AltitudeMeters>717.79998779296875</AltitudeMeters>
            <DistanceMeters>NAN</DistanceMeters>
          </Trackpoint>
          <Trackpoint>
            <Time>2019-10-05T08:05:00.000Z</Time>
            <Position>
              <LatitudeDegrees>42.58085927926003932952880859375</LatitudeDegrees>
              <LongitudeDegrees>-5.57214715518057346343994140625</LongitudeDegrees>
            </Position>
            <AltitudeMeters>718.4000244140625</AltitudeMeters>
            <DistanceMeters>NAN</DistanceMeters>
          </Trackpoint>
          <Trackpoint>
            <Time>2019-10-05T08:05:03.000Z</Time>
            <Position>
              <LatitudeDegrees>42.58085626177489757537841796875</LatitudeDegrees>
              <LongitudeDegrees>-5.57224153541028499603271484375</LongitudeDegrees>
            </Position>
            <AltitudeMeters>718</AltitudeMeters>
            <DistanceMeters>NAN</DistanceMeters>
          </Trackpoint>
          <Trackpoint>
            <Time>2019-10-05T08:05:04.000Z</Time>
            <Position>
              <LatitudeDegrees>42.58084771223366260528564453125</LatitudeDegrees>
              <LongitudeDegrees>-5.5722917430102825164794921875</LongitudeDegrees>
            </Position>
            <AltitudeMeters>718.20001220703125</AltitudeMeters>
            <DistanceMeters>NAN</DistanceMeters>
          </Trackpoint>
          <Trackpoint>
            <Time>2019-10-05T08:05:07.000Z</Time>
            <Position>
              <LatitudeDegrees>42.580788619816303253173828125</LatitudeDegrees>
              <LongitudeDegrees>-5.57236290536820888519287109375</LongitudeDegrees>
            </Position>
            <AltitudeMeters>717.5999755859375</AltitudeMeters>
            <DistanceMeters>NAN</DistanceMeters>
          </Trackpoint>
          <Trackpoint>
            <Time>2019-10-05T08:05:12.000Z</Time>
            <Position>
              <LatitudeDegrees>42.58063531480729579925537109375</LatitudeDegrees>
              <LongitudeDegrees>-5.572342537343502044677734375</LongitudeDegrees>
            </Position>
            <AltitudeMeters>717.79998779296875</AltitudeMeters>
            <DistanceMeters>NAN</DistanceMeters>
          </Trackpoint>
          <Trackpoint>
            <Time>2019-10-05T08:05:17.000Z</Time>
            <Position>
              <LatitudeDegrees>42.58049525320529937744140625</LatitudeDegrees>
              <LongitudeDegrees>-5.57244203053414821624755859375</LongitudeDegrees>
            </Position>
            <AltitudeMeters>717.5999755859375</AltitudeMeters>
            <DistanceMeters>NAN</DistanceMeters>
          </Trackpoint>
          <Trackpoint>
            <Time>2019-10-05T08:05:23.000Z</Time>
            <Position>
              <LatitudeDegrees>42.5803472287952899932861328125</LatitudeDegrees>
              <LongitudeDegrees>-5.57261670939624309539794921875</LongitudeDegrees>
            </Position>
            <AltitudeMeters>717.4000244140625</AltitudeMeters>
            <DistanceMeters>NAN</DistanceMeters>
          </Trackpoint>
          <Trackpoint>
            <Time>2019-10-05T08:05:29.000Z</Time>
            <Position>
              <LatitudeDegrees>42.580179087817668914794921875</LatitudeDegrees>
              <LongitudeDegrees>-5.57280513457953929901123046875</LongitudeDegrees>
            </Position>
            <AltitudeMeters>717.5999755859375</AltitudeMeters>
            <DistanceMeters>NAN</DistanceMeters>
          </Trackpoint>
          <Trackpoint>
            <Time>2019-10-05T08:05:31.000Z</Time>
            <Position>
              <LatitudeDegrees>42.58013742975890636444091796875</LatitudeDegrees>
              <LongitudeDegrees>-5.572903789579868316650390625</LongitudeDegrees>
            </Position>
            <AltitudeMeters>717.79998779296875</AltitudeMeters>
            <DistanceMeters>NAN</DistanceMeters>
          </Trackpoint>
          <Trackpoint>
            <Time>2019-10-05T08:05:35.000Z</Time>
            <Position>
              <LatitudeDegrees>42.5800909101963043212890625</LatitudeDegrees>
              <LongitudeDegrees>-5.57311325334012508392333984375</LongitudeDegrees>
            </Position>
            <AltitudeMeters>717</AltitudeMeters>
            <DistanceMeters>NAN</DistanceMeters>
          </Trackpoint>
          <Trackpoint>
            <Time>2019-10-05T08:05:36.000Z</Time>
            <Position>
              <LatitudeDegrees>42.58008420467376708984375</LatitudeDegrees>
              <LongitudeDegrees>-5.57316103018820285797119140625</LongitudeDegrees>
            </Position>
            <AltitudeMeters>716.79998779296875</AltitudeMeters>
            <DistanceMeters>NAN</DistanceMeters>
          </Trackpoint>
          <Trackpoint>
            <Time>2019-10-05T08:05:38.000Z</Time>
            <Position>
              <LatitudeDegrees>42.58007372729480266571044921875</LatitudeDegrees>
              <LongitudeDegrees>-5.573265552520751953125</LongitudeDegrees>
            </Position>
            <AltitudeMeters>716.79998779296875</AltitudeMeters>
            <DistanceMeters>NAN</DistanceMeters>
          </Trackpoint>
          <Trackpoint>
            <Time>2019-10-05T08:05:39.000Z</Time>
            <Position>
              <LatitudeDegrees>42.5800806842744350433349609375</LatitudeDegrees>
              <LongitudeDegrees>-5.5733163468539714813232421875</LongitudeDegrees>
            </Position>
            <AltitudeMeters>716.79998779296875</AltitudeMeters>
            <DistanceMeters>NAN</DistanceMeters>
          </Trackpoint>
          <Trackpoint>
            <Time>2019-10-05T08:05:46.000Z</Time>
            <Position>
              <LatitudeDegrees>42.5801333226263523101806640625</LatitudeDegrees>
              <LongitudeDegrees>-5.57369328103959560394287109375</LongitudeDegrees>
            </Position>
            <AltitudeMeters>716.79998779296875</AltitudeMeters>
            <DistanceMeters>NAN</DistanceMeters>
          </Trackpoint>
          <Trackpoint>
            <Time>2019-10-05T08:05:48.000Z</Time>
            <Position>
              <LatitudeDegrees>42.5801360048353672027587890625</LatitudeDegrees>
              <LongitudeDegrees>-5.5737864039838314056396484375</LongitudeDegrees>
            </Position>
            <AltitudeMeters>716.79998779296875</AltitudeMeters>
            <DistanceMeters>NAN</DistanceMeters>
          </Trackpoint>
          <Trackpoint>
            <Time>2019-10-05T08:05:50.000Z</Time>
            <Position>
              <LatitudeDegrees>42.5801118649542331695556640625</LatitudeDegrees>
              <LongitudeDegrees>-5.57386544533073902130126953125</LongitudeDegrees>
            </Position>
            <AltitudeMeters>717</AltitudeMeters>
            <DistanceMeters>NAN</DistanceMeters>
          </Trackpoint>
          <Trackpoint>
            <Time>2019-10-05T08:05:52.000Z</Time>
            <Position>
              <LatitudeDegrees>42.580079175531864166259765625</LatitudeDegrees>
              <LongitudeDegrees>-5.57393652386963367462158203125</LongitudeDegrees>
            </Position>
            <AltitudeMeters>716.5999755859375</AltitudeMeters>
            <DistanceMeters>NAN</DistanceMeters>
          </Trackpoint>
          <Trackpoint>
            <Time>2019-10-05T08:05:54.000Z</Time>
            <Position>
              <LatitudeDegrees>42.58008596487343311309814453125</LatitudeDegrees>
              <LongitudeDegrees>-5.57399620302021503448486328125</LongitudeDegrees>
            </Position>
            <AltitudeMeters>716.79998779296875</AltitudeMeters>
            <DistanceMeters>NAN</DistanceMeters>
          </Trackpoint>
          <Trackpoint>
            <Time>2019-10-05T08:05:55.000Z</Time>
            <Position>
              <LatitudeDegrees>42.58007925935089588165283203125</LatitudeDegrees>
              <LongitudeDegrees>-5.57402654550969600677490234375</LongitudeDegrees>
            </Position>
            <AltitudeMeters>716.4000244140625</AltitudeMeters>
            <DistanceMeters>NAN</DistanceMeters>
          </Trackpoint>
          <Trackpoint>
            <Time>2019-10-05T08:05:56.000Z</Time>
            <Position>
              <LatitudeDegrees>42.58002477698028087615966796875</LatitudeDegrees>
              <LongitudeDegrees>-5.57406610809266567230224609375</LongitudeDegrees>
            </Position>
            <AltitudeMeters>716</AltitudeMeters>
            <DistanceMeters>NAN</DistanceMeters>
          </Trackpoint>
          <Trackpoint>
            <Time>2019-10-05T08:05:57.000Z</Time>
            <Position>
              <LatitudeDegrees>42.57998161017894744873046875</LatitudeDegrees>
              <LongitudeDegrees>-5.5740844644606113433837890625</LongitudeDegrees>
            </Position>
            <AltitudeMeters>715.5999755859375</AltitudeMeters>
            <DistanceMeters>NAN</DistanceMeters>
          </Trackpoint>
          <Trackpoint>
            <Time>2019-10-05T08:06:00.000Z</Time>
            <Position>
              <LatitudeDegrees>42.57984037511050701141357421875</LatitudeDegrees>
              <LongitudeDegrees>-5.574104078114032745361328125</LongitudeDegrees>
            </Position>
            <AltitudeMeters>716.4000244140625</AltitudeMeters>
            <DistanceMeters>NAN</DistanceMeters>
          </Trackpoint>
          <Trackpoint>
            <Time>2019-10-05T08:06:10.000Z</Time>
            <Position>
              <LatitudeDegrees>42.579371742904186248779296875</LatitudeDegrees>
              <LongitudeDegrees>-5.57414791546761989593505859375</LongitudeDegrees>
            </Position>
            <AltitudeMeters>716.20001220703125</AltitudeMeters>
            <DistanceMeters>NAN</DistanceMeters>
          </Trackpoint>
          <Trackpoint>
            <Time>2019-10-05T08:06:19.000Z</Time>
            <Position>
              <LatitudeDegrees>42.578960359096527099609375</LatitudeDegrees>
              <LongitudeDegrees>-5.57422787882387638092041015625</LongitudeDegrees>
            </Position>
            <AltitudeMeters>716.20001220703125</AltitudeMeters>
            <DistanceMeters>NAN</DistanceMeters>
          </Trackpoint>
          <Trackpoint>
            <Time>2019-10-05T08:06:23.000Z</Time>
            <Position>
              <LatitudeDegrees>42.57877604104578495025634765625</LatitudeDegrees>
              <LongitudeDegrees>-5.57426626794040203094482421875</LongitudeDegrees>
            </Position>
            <AltitudeMeters>715.79998779296875</AltitudeMeters>
            <DistanceMeters>NAN</DistanceMeters>
          </Trackpoint>
          <Trackpoint>
            <Time>2019-10-05T08:06:25.000Z</Time>
            <Position>
              <LatitudeDegrees>42.57871703244745731353759765625</LatitudeDegrees>
              <LongitudeDegrees>-5.5742725543677806854248046875</LongitudeDegrees>
            </Position>
            <AltitudeMeters>716</AltitudeMeters>
            <DistanceMeters>NAN</DistanceMeters>
          </Trackpoint>
          <Trackpoint>
            <Time>2019-10-05T08:06:29.000Z</Time>
            <Position>
              <LatitudeDegrees>42.57855542935431003570556640625</LatitudeDegrees>
              <LongitudeDegrees>-5.57429753243923187255859375</LongitudeDegrees>
            </Position>
            <AltitudeMeters>715.79998779296875</AltitudeMeters>
            <DistanceMeters>NAN</DistanceMeters>
          </Trackpoint>
          <Trackpoint>
            <Time>2019-10-05T08:06:32.000Z</Time>
            <Position>
              <LatitudeDegrees>42.57843020372092723846435546875</LatitudeDegrees>
              <LongitudeDegrees>-5.57431890629231929779052734375</LongitudeDegrees>
            </Position>
            <AltitudeMeters>715.5999755859375</AltitudeMeters>
            <DistanceMeters>NAN</DistanceMeters>
          </Trackpoint>
          <Trackpoint>
            <Time>2019-10-05T08:06:41.000Z</Time>
            <Position>
              <LatitudeDegrees>42.57805603556334972381591796875</LatitudeDegrees>
              <LongitudeDegrees>-5.57439149357378482818603515625</LongitudeDegrees>
            </Position>
            <AltitudeMeters>715.4000244140625</AltitudeMeters>
            <DistanceMeters>NAN</DistanceMeters>
          </Trackpoint>
          <Trackpoint>
            <Time>2019-10-05T08:06:50.000Z</Time>
            <Position>
              <LatitudeDegrees>42.57767046801745891571044921875</LatitudeDegrees>
              <LongitudeDegrees>-5.574474222958087921142578125</LongitudeDegrees>
            </Position>
            <AltitudeMeters>715.79998779296875</AltitudeMeters>
            <DistanceMeters>NAN</DistanceMeters>
          </Trackpoint>
          <Trackpoint>
            <Time>2019-10-05T08:06:52.000Z</Time>
            <Position>
              <LatitudeDegrees>42.5775815360248088836669921875</LatitudeDegrees>
              <LongitudeDegrees>-5.57448704726994037628173828125</LongitudeDegrees>
            </Position>
            <AltitudeMeters>715.4000244140625</AltitudeMeters>
            <DistanceMeters>NAN</DistanceMeters>
          </Trackpoint>
          <Trackpoint>
            <Time>2019-10-05T08:06:55.000Z</Time>
            <Position>
              <LatitudeDegrees>42.57745237089693546295166015625</LatitudeDegrees>
              <LongitudeDegrees>-5.57449894957244396209716796875</LongitudeDegrees>
            </Position>
            <AltitudeMeters>715.5999755859375</AltitudeMeters>
            <DistanceMeters>NAN</DistanceMeters>
          </Trackpoint>
          <Trackpoint>
            <Time>2019-10-05T08:06:56.000Z</Time>
            <Position>
              <LatitudeDegrees>42.5774095393717288970947265625</LatitudeDegrees>
              <LongitudeDegrees>-5.5745089240372180938720703125</LongitudeDegrees>
            </Position>
            <AltitudeMeters>715.4000244140625</AltitudeMeters>
            <DistanceMeters>NAN</DistanceMeters>
          </Trackpoint>
          <Trackpoint>
            <Time>2019-10-05T08:07:05.000Z</Time>
            <Position>
              <LatitudeDegrees>42.576995305716991424560546875</LatitudeDegrees>
              <LongitudeDegrees>-5.5745893903076648712158203125</LongitudeDegrees>
            </Position>
            <AltitudeMeters>715.20001220703125</AltitudeMeters>
            <DistanceMeters>NAN</DistanceMeters>
          </Trackpoint>
          <Trackpoint>
            <Time>2019-10-05T08:07:07.000Z</Time>
            <Position>
              <LatitudeDegrees>42.57690704427659511566162109375</LatitudeDegrees>
              <LongitudeDegrees>-5.57461495511233806610107421875</LongitudeDegrees>
            </Position>
            <AltitudeMeters>715.4000244140625</AltitudeMeters>
            <DistanceMeters>NAN</DistanceMeters>
          </Trackpoint>
          <Trackpoint>
            <Time>2019-10-05T08:07:09.000Z</Time>
            <Position>
              <LatitudeDegrees>42.576825655996799468994140625</LatitudeDegrees>
              <LongitudeDegrees>-5.57463976554572582244873046875</LongitudeDegrees>
            </Position>
            <AltitudeMeters>715.20001220703125</AltitudeMeters>
            <DistanceMeters>NAN</DistanceMeters>
          </Trackpoint>
          <Trackpoint>
            <Time>2019-10-05T08:07:12.000Z</Time>
            <Position>
              <LatitudeDegrees>42.5766783021390438079833984375</LatitudeDegrees>
              <LongitudeDegrees>-5.574666000902652740478515625</LongitudeDegrees>
            </Position>
            <AltitudeMeters>714.4000244140625</AltitudeMeters>
            <DistanceMeters>NAN</DistanceMeters>
          </Trackpoint>
          <Trackpoint>
            <Time>2019-10-05T08:07:17.000Z</Time>
            <Position>
              <LatitudeDegrees>42.57642072625458240509033203125</LatitudeDegrees>
              <LongitudeDegrees>-5.57471889071166515350341796875</LongitudeDegrees>
            </Position>
            <AltitudeMeters>715</AltitudeMeters>
            <DistanceMeters>NAN</DistanceMeters>
          </Trackpoint>
          <Trackpoint>
            <Time>2019-10-05T08:07:18.000Z</Time>
            <Position>
              <LatitudeDegrees>42.57639055140316486358642578125</LatitudeDegrees>
              <LongitudeDegrees>-5.574724674224853515625</LongitudeDegrees>
            </Position>
            <AltitudeMeters>715</AltitudeMeters>
            <DistanceMeters>NAN</DistanceMeters>
          </Trackpoint>
          <Trackpoint>
            <Time>2019-10-05T08:07:29.000Z</Time>
            <Position>
              <LatitudeDegrees>42.5758515112102031707763671875</LatitudeDegrees>
              <LongitudeDegrees>-5.5748224072158336639404296875</LongitudeDegrees>
            </Position>
            <AltitudeMeters>714.5999755859375</AltitudeMeters>
            <DistanceMeters>NAN</DistanceMeters>
          </Trackpoint>
          <Trackpoint>
            <Time>2019-10-05T08:07:39.000Z</Time>
            <Position>
              <LatitudeDegrees>42.575357146561145782470703125</LatitudeDegrees>
              <LongitudeDegrees>-5.57492072694003582000732421875</LongitudeDegrees>
            </Position>
            <AltitudeMeters>714.20001220703125</AltitudeMeters>
            <DistanceMeters>NAN</DistanceMeters>
          </Trackpoint>
          <Trackpoint>
            <Time>2019-10-05T08:07:45.000Z</Time>
            <Position>
              <LatitudeDegrees>42.5750659592449665069580078125</LatitudeDegrees>
              <LongitudeDegrees>-5.57499096728861331939697265625</LongitudeDegrees>
            </Position>
            <AltitudeMeters>713.79998779296875</AltitudeMeters>
            <DistanceMeters>NAN</DistanceMeters>
          </Trackpoint>
          <Trackpoint>
            <Time>2019-10-05T08:07:46.000Z</Time>
            <Position>
              <LatitudeDegrees>42.5750213675200939178466796875</LatitudeDegrees>
              <LongitudeDegrees>-5.57500563561916351318359375</LongitudeDegrees>
            </Position>
            <AltitudeMeters>713.79998779296875</AltitudeMeters>
            <DistanceMeters>NAN</DistanceMeters>
          </Trackpoint>
          <Trackpoint>
            <Time>2019-10-05T08:07:53.000Z</Time>
            <Position>
              <LatitudeDegrees>42.5746824033558368682861328125</LatitudeDegrees>
              <LongitudeDegrees>-5.5750815756618976593017578125</LongitudeDegrees>
            </Position>
            <AltitudeMeters>713.5999755859375</AltitudeMeters>
            <DistanceMeters>NAN</DistanceMeters>
          </Trackpoint>
          <Trackpoint>
            <Time>2019-10-05T08:07:55.000Z</Time>
            <Position>
              <LatitudeDegrees>42.57457838393747806549072265625</LatitudeDegrees>
              <LongitudeDegrees>-5.57510093785822391510009765625</LongitudeDegrees>
            </Position>
            <AltitudeMeters>713.4000244140625</AltitudeMeters>
            <DistanceMeters>NAN</DistanceMeters>
          </Trackpoint>
          <Trackpoint>
            <Time>2019-10-05T08:08:04.000Z</Time>
            <Position>
              <LatitudeDegrees>42.57410463877022266387939453125</LatitudeDegrees>
              <LongitudeDegrees>-5.57517997920513153076171875</LongitudeDegrees>
            </Position>
            <AltitudeMeters>714.4000244140625</AltitudeMeters>
            <DistanceMeters>NAN</DistanceMeters>
          </Trackpoint>
          <Trackpoint>
            <Time>2019-10-05T08:08:06.000Z</Time>
            <Position>
              <LatitudeDegrees>42.573993243277072906494140625</LatitudeDegrees>
              <LongitudeDegrees>-5.5751975812017917633056640625</LongitudeDegrees>
            </Position>
            <AltitudeMeters>714.20001220703125</AltitudeMeters>
            <DistanceMeters>NAN</DistanceMeters>
          </Trackpoint>
          <Trackpoint>
            <Time>2019-10-05T08:08:10.000Z</Time>
            <Position>
              <LatitudeDegrees>42.5737828575074672698974609375</LatitudeDegrees>
              <LongitudeDegrees>-5.57524208910763263702392578125</LongitudeDegrees>
            </Position>
            <AltitudeMeters>713.20001220703125</AltitudeMeters>
            <DistanceMeters>NAN</DistanceMeters>
          </Trackpoint>
          <Trackpoint>
            <Time>2019-10-05T08:08:16.000Z</Time>
            <Position>
              <LatitudeDegrees>42.57345990277826786041259765625</LatitudeDegrees>
              <LongitudeDegrees>-5.5753098987042903900146484375</LongitudeDegrees>
            </Position>
            <AltitudeMeters>713.5999755859375</AltitudeMeters>
            <DistanceMeters>NAN</DistanceMeters>
          </Trackpoint>
          <Trackpoint>
            <Time>2019-10-05T08:08:20.000Z</Time>
            <Position>
              <LatitudeDegrees>42.57324750535190105438232421875</LatitudeDegrees>
              <LongitudeDegrees>-5.57535138912498950958251953125</LongitudeDegrees>
            </Position>
            <AltitudeMeters>713.4000244140625</AltitudeMeters>
            <DistanceMeters>NAN</DistanceMeters>
          </Trackpoint>
          <Trackpoint>
            <Time>2019-10-05T08:08:25.000Z</Time>
            <Position>
              <LatitudeDegrees>42.5729937851428985595703125</LatitudeDegrees>
              <LongitudeDegrees>-5.5754101462662220001220703125</LongitudeDegrees>
            </Position>
            <AltitudeMeters>713.4000244140625</AltitudeMeters>
            <DistanceMeters>NAN</DistanceMeters>
          </Trackpoint>
          <Trackpoint>
            <Time>2019-10-05T08:08:27.000Z</Time>
            <Position>
              <LatitudeDegrees>42.57290233857929706573486328125</LatitudeDegrees>
              <LongitudeDegrees>-5.57543738745152950286865234375</LongitudeDegrees>
            </Position>
            <AltitudeMeters>713.5999755859375</AltitudeMeters>
            <DistanceMeters>NAN</DistanceMeters>
          </Trackpoint>
          <Trackpoint>
            <Time>2019-10-05T08:08:37.000Z</Time>
            <Position>
              <LatitudeDegrees>42.57239338941872119903564453125</LatitudeDegrees>
              <LongitudeDegrees>-5.5755425803363323211669921875</LongitudeDegrees>
            </Position>
            <AltitudeMeters>713</AltitudeMeters>
            <DistanceMeters>NAN</DistanceMeters>
          </Trackpoint>
          <Trackpoint>
            <Time>2019-10-05T08:08:47.000Z</Time>
            <Position>
              <LatitudeDegrees>42.57188075222074985504150390625</LatitudeDegrees>
              <LongitudeDegrees>-5.5757061950862407684326171875</LongitudeDegrees>
            </Position>
            <AltitudeMeters>713</AltitudeMeters>
            <DistanceMeters>NAN</DistanceMeters>
          </Trackpoint>
          <Trackpoint>
            <Time>2019-10-05T08:08:55.000Z</Time>
            <Position>
              <LatitudeDegrees>42.571506164968013763427734375</LatitudeDegrees>
              <LongitudeDegrees>-5.57590744458138942718505859375</LongitudeDegrees>
            </Position>
            <AltitudeMeters>713.4000244140625</AltitudeMeters>
            <DistanceMeters>NAN</DistanceMeters>
          </Trackpoint>
          <Trackpoint>
            <Time>2019-10-05T08:08:57.000Z</Time>
            <Position>
              <LatitudeDegrees>42.57140918634831905364990234375</LatitudeDegrees>
              <LongitudeDegrees>-5.57595111429691314697265625</LongitudeDegrees>
            </Position>
            <AltitudeMeters>713</AltitudeMeters>
            <DistanceMeters>NAN</DistanceMeters>
          </Trackpoint>
          <Trackpoint>
            <Time>2019-10-05T08:08:59.000Z</Time>
            <Position>
              <LatitudeDegrees>42.571310363709926605224609375</LatitudeDegrees>
              <LongitudeDegrees>-5.57599327526986598968505859375</LongitudeDegrees>
            </Position>
            <AltitudeMeters>713.20001220703125</AltitudeMeters>
            <DistanceMeters>NAN</DistanceMeters>
          </Trackpoint>
          <Trackpoint>
            <Time>2019-10-05T08:09:07.000Z</Time>
            <Position>
              <LatitudeDegrees>42.57091348059475421905517578125</LatitudeDegrees>
              <LongitudeDegrees>-5.57621665298938751220703125</LongitudeDegrees>
            </Position>
            <AltitudeMeters>712.4000244140625</AltitudeMeters>
            <DistanceMeters>NAN</DistanceMeters>
          </Trackpoint>
          <Trackpoint>
            <Time>2019-10-05T08:09:10.000Z</Time>
            <Position>
              <LatitudeDegrees>42.57077719084918498992919921875</LatitudeDegrees>
              <LongitudeDegrees>-5.5762976221740245819091796875</LongitudeDegrees>
            </Position>
            <AltitudeMeters>712.79998779296875</AltitudeMeters>
            <DistanceMeters>NAN</DistanceMeters>
          </Trackpoint>
          <Trackpoint>
            <Time>2019-10-05T08:09:15.000Z</Time>
            <Position>
              <LatitudeDegrees>42.5705383904278278350830078125</LatitudeDegrees>
              <LongitudeDegrees>-5.57643131352961063385009765625</LongitudeDegrees>
            </Position>
            <AltitudeMeters>713</AltitudeMeters>
            <DistanceMeters>NAN</DistanceMeters>
          </Trackpoint>
          <Trackpoint>
            <Time>2019-10-05T08:09:26.000Z</Time>
            <Position>
              <LatitudeDegrees>42.5700029544532299041748046875</LatitudeDegrees>
              <LongitudeDegrees>-5.5767364986240863800048828125</LongitudeDegrees>
            </Position>
            <AltitudeMeters>713.4000244140625</AltitudeMeters>
            <DistanceMeters>NAN</DistanceMeters>
          </Trackpoint>
          <Trackpoint>
            <Time>2019-10-05T08:09:27.000Z</Time>
            <Position>
              <LatitudeDegrees>42.56995559670031070709228515625</LatitudeDegrees>
              <LongitudeDegrees>-5.5767629854381084442138671875</LongitudeDegrees>
            </Position>
            <AltitudeMeters>713.20001220703125</AltitudeMeters>
            <DistanceMeters>NAN</DistanceMeters>
          </Trackpoint>
          <Trackpoint>
            <Time>2019-10-05T08:09:34.000Z</Time>
            <Position>
              <LatitudeDegrees>42.56962962448596954345703125</LatitudeDegrees>
              <LongitudeDegrees>-5.57694696821272373199462890625</LongitudeDegrees>
            </Position>
            <AltitudeMeters>713.4000244140625</AltitudeMeters>
            <DistanceMeters>NAN</DistanceMeters>
          </Trackpoint>
          <Trackpoint>
            <Time>2019-10-05T08:09:37.000Z</Time>
            <Position>
              <LatitudeDegrees>42.5694879703223705291748046875</LatitudeDegrees>
              <LongitudeDegrees>-5.57702600955963134765625</LongitudeDegrees>
            </Position>
            <AltitudeMeters>713.20001220703125</AltitudeMeters>
            <DistanceMeters>NAN</DistanceMeters>
          </Trackpoint>
          <Trackpoint>
            <Time>2019-10-05T08:09:46.000Z</Time>
            <Position>
              <LatitudeDegrees>42.5690189190208911895751953125</LatitudeDegrees>
              <LongitudeDegrees>-5.57729045860469341278076171875</LongitudeDegrees>
            </Position>
            <AltitudeMeters>712.5999755859375</AltitudeMeters>
            <DistanceMeters>NAN</DistanceMeters>
          </Trackpoint>
          <Trackpoint>
            <Time>2019-10-05T08:09:49.000Z</Time>
            <Position>
              <LatitudeDegrees>42.56885924376547336578369140625</LatitudeDegrees>
              <LongitudeDegrees>-5.57738014496862888336181640625</LongitudeDegrees>
            </Position>
            <AltitudeMeters>712</AltitudeMeters>
            <DistanceMeters>NAN</DistanceMeters>
          </Trackpoint>
          <Trackpoint>
            <Time>2019-10-05T08:09:52.000Z</Time>
            <Position>
              <LatitudeDegrees>42.5687044300138950347900390625</LatitudeDegrees>
              <LongitudeDegrees>-5.5774630419909954071044921875</LongitudeDegrees>
            </Position>
            <AltitudeMeters>712</AltitudeMeters>
            <DistanceMeters>NAN</DistanceMeters>
          </Trackpoint>
          <Trackpoint>
            <Time>2019-10-05T08:09:59.000Z</Time>
            <Position>
              <LatitudeDegrees>42.5683533959090709686279296875</LatitudeDegrees>
              <LongitudeDegrees>-5.5776407383382320404052734375</LongitudeDegrees>
            </Position>
            <AltitudeMeters>712.79998779296875</AltitudeMeters>
            <DistanceMeters>NAN</DistanceMeters>
          </Trackpoint>
          <Trackpoint>
            <Time>2019-10-05T08:10:11.000Z</Time>
            <Position>
              <LatitudeDegrees>42.5677492283284664154052734375</LatitudeDegrees>
              <LongitudeDegrees>-5.5778714083135128021240234375</LongitudeDegrees>
            </Position>
            <AltitudeMeters>712.4000244140625</AltitudeMeters>
            <DistanceMeters>NAN</DistanceMeters>
          </Trackpoint>
          <Trackpoint>
            <Time>2019-10-05T08:10:21.000Z</Time>
            <Position>
              <LatitudeDegrees>42.56723248399794101715087890625</LatitudeDegrees>
              <LongitudeDegrees>-5.57800057344138622283935546875</LongitudeDegrees>
            </Position>
            <AltitudeMeters>712.20001220703125</AltitudeMeters>
            <DistanceMeters>NAN</DistanceMeters>
          </Trackpoint>
          <Trackpoint>
            <Time>2019-10-05T08:10:22.000Z</Time>
            <Position>
              <LatitudeDegrees>42.56717800162732601165771484375</LatitudeDegrees>
              <LongitudeDegrees>-5.57801130227744579315185546875</LongitudeDegrees>
            </Position>
            <AltitudeMeters>712</AltitudeMeters>
            <DistanceMeters>NAN</DistanceMeters>
          </Trackpoint>
          <Trackpoint>
            <Time>2019-10-05T08:10:32.000Z</Time>
            <Position>
              <LatitudeDegrees>42.5666589103639125823974609375</LatitudeDegrees>
              <LongitudeDegrees>-5.57813585735857486724853515625</LongitudeDegrees>
            </Position>
            <AltitudeMeters>712.20001220703125</AltitudeMeters>
            <DistanceMeters>NAN</DistanceMeters>
          </Trackpoint>
          <Trackpoint>
            <Time>2019-10-05T08:10:39.000Z</Time>
            <Position>
              <LatitudeDegrees>42.56631416268646717071533203125</LatitudeDegrees>
              <LongitudeDegrees>-5.5782650224864482879638671875</LongitudeDegrees>
            </Position>
            <AltitudeMeters>712.20001220703125</AltitudeMeters>
            <DistanceMeters>NAN</DistanceMeters>
          </Trackpoint>
          <Trackpoint>
            <Time>2019-10-05T08:10:40.000Z</Time>
            <Position>
              <LatitudeDegrees>42.56626856513321399688720703125</LatitudeDegrees>
              <LongitudeDegrees>-5.57828329503536224365234375</LongitudeDegrees>
            </Position>
            <AltitudeMeters>712</AltitudeMeters>
            <DistanceMeters>NAN</DistanceMeters>
          </Trackpoint>
          <Trackpoint>
            <Time>2019-10-05T08:10:47.000Z</Time>
            <Position>
              <LatitudeDegrees>42.565933205187320709228515625</LatitudeDegrees>
              <LongitudeDegrees>-5.57841698639094829559326171875</LongitudeDegrees>
            </Position>
            <AltitudeMeters>711.79998779296875</AltitudeMeters>
            <DistanceMeters>NAN</DistanceMeters>
          </Trackpoint>
          <Trackpoint>
            <Time>2019-10-05T08:10:52.000Z</Time>
            <Position>
              <LatitudeDegrees>42.56567604839801788330078125</LatitudeDegrees>
              <LongitudeDegrees>-5.5785292200744152069091796875</LongitudeDegrees>
            </Position>
            <AltitudeMeters>711.5999755859375</AltitudeMeters>
            <DistanceMeters>NAN</DistanceMeters>
          </Trackpoint>
          <Trackpoint>
            <Time>2019-10-05T08:10:54.000Z</Time>
            <Position>
              <LatitudeDegrees>42.56557169370353221893310546875</LatitudeDegrees>
              <LongitudeDegrees>-5.57857339270412921905517578125</LongitudeDegrees>
            </Position>
            <AltitudeMeters>711.79998779296875</AltitudeMeters>
            <DistanceMeters>NAN</DistanceMeters>
          </Trackpoint>
          <Trackpoint>
            <Time>2019-10-05T08:11:03.000Z</Time>
            <Position>
              <LatitudeDegrees>42.5651028938591480255126953125</LatitudeDegrees>
              <LongitudeDegrees>-5.57876852340996265411376953125</LongitudeDegrees>
            </Position>
            <AltitudeMeters>711.79998779296875</AltitudeMeters>
            <DistanceMeters>NAN</DistanceMeters>
          </Trackpoint>
          <Trackpoint>
            <Time>2019-10-05T08:11:10.000Z</Time>
            <Position>
              <LatitudeDegrees>42.564728893339633941650390625</LatitudeDegrees>
              <LongitudeDegrees>-5.57886131107807159423828125</LongitudeDegrees>
            </Position>
            <AltitudeMeters>711.20001220703125</AltitudeMeters>
            <DistanceMeters>NAN</DistanceMeters>
          </Trackpoint>
          <Trackpoint>
            <Time>2019-10-05T08:11:12.000Z</Time>
            <Position>
              <LatitudeDegrees>42.564624287188053131103515625</LatitudeDegrees>
              <LongitudeDegrees>-5.57888486422598361968994140625</LongitudeDegrees>
            </Position>
            <AltitudeMeters>710.79998779296875</AltitudeMeters>
            <DistanceMeters>NAN</DistanceMeters>
          </Trackpoint>
          <Trackpoint>
            <Time>2019-10-05T08:11:18.000Z</Time>
            <Position>
              <LatitudeDegrees>42.564313150942325592041015625</LatitudeDegrees>
              <LongitudeDegrees>-5.57895326055586338043212890625</LongitudeDegrees>
            </Position>
            <AltitudeMeters>711</AltitudeMeters>
            <DistanceMeters>NAN</DistanceMeters>
          </Trackpoint>
          <Trackpoint>
            <Time>2019-10-05T08:11:26.000Z</Time>
            <Position>
              <LatitudeDegrees>42.563891373574733734130859375</LatitudeDegrees>
              <LongitudeDegrees>-5.5790363252162933349609375</LongitudeDegrees>
            </Position>
            <AltitudeMeters>711</AltitudeMeters>
            <DistanceMeters>NAN</DistanceMeters>
          </Trackpoint>
          <Trackpoint>
            <Time>2019-10-05T08:11:34.000Z</Time>
            <Position>
              <LatitudeDegrees>42.56346414797008037567138671875</LatitudeDegrees>
              <LongitudeDegrees>-5.5790765583515167236328125</LongitudeDegrees>
            </Position>
            <AltitudeMeters>710.79998779296875</AltitudeMeters>
            <DistanceMeters>NAN</DistanceMeters>
          </Trackpoint>
          <Trackpoint>
            <Time>2019-10-05T08:11:40.000Z</Time>
            <Position>
              <LatitudeDegrees>42.56314781494438648223876953125</LatitudeDegrees>
              <LongitudeDegrees>-5.579092986881732940673828125</LongitudeDegrees>
            </Position>
            <AltitudeMeters>710</AltitudeMeters>
            <DistanceMeters>NAN</DistanceMeters>
          </Trackpoint>
          <Trackpoint>
            <Time>2019-10-05T08:11:41.000Z</Time>
            <Position>
              <LatitudeDegrees>42.563092745840549468994140625</LatitudeDegrees>
              <LongitudeDegrees>-5.57909457944333553314208984375</LongitudeDegrees>
            </Position>
            <AltitudeMeters>710.20001220703125</AltitudeMeters>
            <DistanceMeters>NAN</DistanceMeters>
          </Trackpoint>
          <Trackpoint>
            <Time>2019-10-05T08:11:45.000Z</Time>
            <Position>
              <LatitudeDegrees>42.56288009695708751678466796875</LatitudeDegrees>
              <LongitudeDegrees>-5.579095669090747833251953125</LongitudeDegrees>
            </Position>
            <AltitudeMeters>709.79998779296875</AltitudeMeters>
            <DistanceMeters>NAN</DistanceMeters>
          </Trackpoint>
          <Trackpoint>
            <Time>2019-10-05T08:11:49.000Z</Time>
            <Position>
              <LatitudeDegrees>42.56267063319683074951171875</LatitudeDegrees>
              <LongitudeDegrees>-5.57910212315618991851806640625</LongitudeDegrees>
            </Position>
            <AltitudeMeters>710.5999755859375</AltitudeMeters>
            <DistanceMeters>NAN</DistanceMeters>
          </Trackpoint>
          <Trackpoint>
            <Time>2019-10-05T08:11:54.000Z</Time>
            <Position>
              <LatitudeDegrees>42.5624119676649570465087890625</LatitudeDegrees>
              <LongitudeDegrees>-5.57912550866603851318359375</LongitudeDegrees>
            </Position>
            <AltitudeMeters>710.5999755859375</AltitudeMeters>
            <DistanceMeters>NAN</DistanceMeters>
          </Trackpoint>
          <Trackpoint>
            <Time>2019-10-05T08:11:57.000Z</Time>
            <Position>
              <LatitudeDegrees>42.56224810145795345306396484375</LatitudeDegrees>
              <LongitudeDegrees>-5.5791585333645343780517578125</LongitudeDegrees>
            </Position>
            <AltitudeMeters>710.5999755859375</AltitudeMeters>
            <DistanceMeters>NAN</DistanceMeters>
          </Trackpoint>
          <Trackpoint>
            <Time>2019-10-05T08:12:06.000Z</Time>
            <Position>
              <LatitudeDegrees>42.56176672875881195068359375</LatitudeDegrees>
              <LongitudeDegrees>-5.579210333526134490966796875</LongitudeDegrees>
            </Position>
            <AltitudeMeters>710.79998779296875</AltitudeMeters>
            <DistanceMeters>NAN</DistanceMeters>
          </Trackpoint>
          <Trackpoint>
            <Time>2019-10-05T08:12:10.000Z</Time>
            <Position>
              <LatitudeDegrees>42.56155273877084255218505859375</LatitudeDegrees>
              <LongitudeDegrees>-5.57920421473681926727294921875</LongitudeDegrees>
            </Position>
            <AltitudeMeters>710</AltitudeMeters>
            <DistanceMeters>NAN</DistanceMeters>
          </Trackpoint>
          <Trackpoint>
            <Time>2019-10-05T08:12:15.000Z</Time>
            <Position>
              <LatitudeDegrees>42.56128686480224132537841796875</LatitudeDegrees>
              <LongitudeDegrees>-5.57918912731111049652099609375</LongitudeDegrees>
            </Position>
            <AltitudeMeters>710</AltitudeMeters>
            <DistanceMeters>NAN</DistanceMeters>
          </Trackpoint>
          <Trackpoint>
            <Time>2019-10-05T08:12:16.000Z</Time>
            <Position>
              <LatitudeDegrees>42.56123389117419719696044921875</LatitudeDegrees>
              <LongitudeDegrees>-5.579184181988239288330078125</LongitudeDegrees>
            </Position>
            <AltitudeMeters>710</AltitudeMeters>
            <DistanceMeters>NAN</DistanceMeters>
          </Trackpoint>
          <Trackpoint>
            <Time>2019-10-05T08:12:17.000Z</Time>
            <Position>
              <LatitudeDegrees>42.56118192337453365325927734375</LatitudeDegrees>
              <LongitudeDegrees>-5.57917923666536808013916015625</LongitudeDegrees>
            </Position>
            <AltitudeMeters>709.79998779296875</AltitudeMeters>
            <DistanceMeters>NAN</DistanceMeters>
          </Trackpoint>
          <Trackpoint>
            <Time>2019-10-05T08:12:20.000Z</Time>
            <Position>
              <LatitudeDegrees>42.5610313005745410919189453125</LatitudeDegrees>
              <LongitudeDegrees>-5.57917236350476741790771484375</LongitudeDegrees>
            </Position>
            <AltitudeMeters>710</AltitudeMeters>
            <DistanceMeters>NAN</DistanceMeters>
          </Trackpoint>
          <Trackpoint>
            <Time>2019-10-05T08:12:24.000Z</Time>
            <Position>
              <LatitudeDegrees>42.560839019715785980224609375</LatitudeDegrees>
              <LongitudeDegrees>-5.5791622214019298553466796875</LongitudeDegrees>
            </Position>
            <AltitudeMeters>710.20001220703125</AltitudeMeters>
            <DistanceMeters>NAN</DistanceMeters>
          </Trackpoint>
          <Trackpoint>
            <Time>2019-10-05T08:12:28.000Z</Time>
            <Position>
              <LatitudeDegrees>42.5606502592563629150390625</LatitudeDegrees>
              <LongitudeDegrees>-5.57915392331779003143310546875</LongitudeDegrees>
            </Position>
            <AltitudeMeters>709.79998779296875</AltitudeMeters>
            <DistanceMeters>NAN</DistanceMeters>
          </Trackpoint>
          <Trackpoint>
            <Time>2019-10-05T08:12:33.000Z</Time>
            <Position>
              <LatitudeDegrees>42.56041196174919605255126953125</LatitudeDegrees>
              <LongitudeDegrees>-5.57913179509341716766357421875</LongitudeDegrees>
            </Position>
            <AltitudeMeters>710</AltitudeMeters>
            <DistanceMeters>NAN</DistanceMeters>
          </Trackpoint>
          <Trackpoint>
            <Time>2019-10-05T08:12:41.000Z</Time>
            <Position>
              <LatitudeDegrees>42.56000912748277187347412109375</LatitudeDegrees>
              <LongitudeDegrees>-5.57912408374249935150146484375</LongitudeDegrees>
            </Position>
            <AltitudeMeters>709.5999755859375</AltitudeMeters>
            <DistanceMeters>NAN</DistanceMeters>
          </Trackpoint>
          <Trackpoint>
            <Time>2019-10-05T08:12:51.000Z</Time>
            <Position>
              <LatitudeDegrees>42.55950939841568470001220703125</LatitudeDegrees>
              <LongitudeDegrees>-5.57910514064133167266845703125</LongitudeDegrees>
            </Position>
            <AltitudeMeters>709.4000244140625</AltitudeMeters>
            <DistanceMeters>NAN</DistanceMeters>
          </Trackpoint>
          <Trackpoint>
            <Time>2019-10-05T08:12:56.000Z</Time>
            <Position>
              <LatitudeDegrees>42.55928208120167255401611328125</LatitudeDegrees>
              <LongitudeDegrees>-5.57909424416720867156982421875</LongitudeDegrees>
            </Position>
            <AltitudeMeters>709.79998779296875</AltitudeMeters>
            <DistanceMeters>NAN</DistanceMeters>
          </Trackpoint>
          <Trackpoint>
            <Time>2019-10-05T08:13:00.000Z</Time>
            <Position>
              <LatitudeDegrees>42.55910933017730712890625</LatitudeDegrees>
              <LongitudeDegrees>-5.579079575836658477783203125</LongitudeDegrees>
            </Position>
            <AltitudeMeters>709.79998779296875</AltitudeMeters>
            <DistanceMeters>NAN</DistanceMeters>
          </Trackpoint>
          <Trackpoint>
            <Time>2019-10-05T08:13:04.000Z</Time>
            <Position>
              <LatitudeDegrees>42.55893020890653133392333984375</LatitudeDegrees>
              <LongitudeDegrees>-5.57907320559024810791015625</LongitudeDegrees>
            </Position>
            <AltitudeMeters>709.4000244140625</AltitudeMeters>
            <DistanceMeters>NAN</DistanceMeters>
          </Trackpoint>
          <Trackpoint>
            <Time>2019-10-05T08:13:07.000Z</Time>
            <Position>
              <LatitudeDegrees>42.55879844538867473602294921875</LatitudeDegrees>
              <LongitudeDegrees>-5.57906423695385456085205078125</LongitudeDegrees>
            </Position>
            <AltitudeMeters>709.5999755859375</AltitudeMeters>
            <DistanceMeters>NAN</DistanceMeters>
          </Trackpoint>
          <Trackpoint>
            <Time>2019-10-05T08:13:09.000Z</Time>
            <Position>
              <LatitudeDegrees>42.558718733489513397216796875</LatitudeDegrees>
              <LongitudeDegrees>-5.57905468158423900604248046875</LongitudeDegrees>
            </Position>
            <AltitudeMeters>709.4000244140625</AltitudeMeters>
            <DistanceMeters>NAN</DistanceMeters>
          </Trackpoint>
          <Trackpoint>
            <Time>2019-10-05T08:13:12.000Z</Time>
            <Position>
              <LatitudeDegrees>42.55859409458935260772705078125</LatitudeDegrees>
              <LongitudeDegrees>-5.57905174791812896728515625</LongitudeDegrees>
            </Position>
            <AltitudeMeters>709.5999755859375</AltitudeMeters>
            <DistanceMeters>NAN</DistanceMeters>
          </Trackpoint>
          <Trackpoint>
            <Time>2019-10-05T08:13:15.000Z</Time>
            <Position>
              <LatitudeDegrees>42.55846417509019374847412109375</LatitudeDegrees>
              <LongitudeDegrees>-5.5790495686233043670654296875</LongitudeDegrees>
            </Position>
            <AltitudeMeters>709.5999755859375</AltitudeMeters>
            <DistanceMeters>NAN</DistanceMeters>
          </Trackpoint>
          <Trackpoint>
            <Time>2019-10-05T08:13:17.000Z</Time>
            <Position>
              <LatitudeDegrees>42.55837348289787769317626953125</LatitudeDegrees>
              <LongitudeDegrees>-5.57904462330043315887451171875</LongitudeDegrees>
            </Position>
            <AltitudeMeters>709.5999755859375</AltitudeMeters>
            <DistanceMeters>NAN</DistanceMeters>
          </Trackpoint>
          <Trackpoint>
            <Time>2019-10-05T08:13:25.000Z</Time>
            <Position>
              <LatitudeDegrees>42.5579900108277797698974609375</LatitudeDegrees>
              <LongitudeDegrees>-5.57903238572180271148681640625</LongitudeDegrees>
            </Position>
            <AltitudeMeters>709.4000244140625</AltitudeMeters>
            <DistanceMeters>NAN</DistanceMeters>
          </Trackpoint>
          <Trackpoint>
            <Time>2019-10-05T08:13:30.000Z</Time>
            <Position>
              <LatitudeDegrees>42.5577506236732006072998046875</LatitudeDegrees>
              <LongitudeDegrees>-5.57902584783732891082763671875</LongitudeDegrees>
            </Position>
            <AltitudeMeters>709.4000244140625</AltitudeMeters>
            <DistanceMeters>NAN</DistanceMeters>
          </Trackpoint>
          <Trackpoint>
            <Time>2019-10-05T08:13:35.000Z</Time>
            <Position>
              <LatitudeDegrees>42.5575038604438304901123046875</LatitudeDegrees>
              <LongitudeDegrees>-5.5789902247488498687744140625</LongitudeDegrees>
            </Position>
            <AltitudeMeters>709.4000244140625</AltitudeMeters>
            <DistanceMeters>NAN</DistanceMeters>
          </Trackpoint>
          <Trackpoint>
            <Time>2019-10-05T08:13:36.000Z</Time>
            <Position>
              <LatitudeDegrees>42.55745373666286468505859375</LatitudeDegrees>
              <LongitudeDegrees>-5.57897555641829967498779296875</LongitudeDegrees>
            </Position>
            <AltitudeMeters>709.5999755859375</AltitudeMeters>
            <DistanceMeters>NAN</DistanceMeters>
          </Trackpoint>
          <Trackpoint>
            <Time>2019-10-05T08:13:37.000Z</Time>
            <Position>
              <LatitudeDegrees>42.55740403197705745697021484375</LatitudeDegrees>
              <LongitudeDegrees>-5.57896147482097148895263671875</LongitudeDegrees>
            </Position>
            <AltitudeMeters>709.79998779296875</AltitudeMeters>
            <DistanceMeters>NAN</DistanceMeters>
          </Trackpoint>
          <Trackpoint>
            <Time>2019-10-05T08:13:45.000Z</Time>
            <Position>
              <LatitudeDegrees>42.557007484138011932373046875</LatitudeDegrees>
              <LongitudeDegrees>-5.5788242630660533905029296875</LongitudeDegrees>
            </Position>
            <AltitudeMeters>709.4000244140625</AltitudeMeters>
            <DistanceMeters>NAN</DistanceMeters>
          </Trackpoint>
          <Trackpoint>
            <Time>2019-10-05T08:13:52.000Z</Time>
            <Position>
              <LatitudeDegrees>42.5566623173654079437255859375</LatitudeDegrees>
              <LongitudeDegrees>-5.57868118397891521453857421875</LongitudeDegrees>
            </Position>
            <AltitudeMeters>708.79998779296875</AltitudeMeters>
            <DistanceMeters>NAN</DistanceMeters>
          </Trackpoint>
          <Trackpoint>
            <Time>2019-10-05T08:13:55.000Z</Time>
            <Position>
              <LatitudeDegrees>42.55651940591633319854736328125</LatitudeDegrees>
              <LongitudeDegrees>-5.5786205828189849853515625</LongitudeDegrees>
            </Position>
            <AltitudeMeters>709</AltitudeMeters>
            <DistanceMeters>NAN</DistanceMeters>
          </Trackpoint>
          <Trackpoint>
            <Time>2019-10-05T08:13:58.000Z</Time>
            <Position>
              <LatitudeDegrees>42.556388564407825469970703125</LatitudeDegrees>
              <LongitudeDegrees>-5.5785547010600566864013671875</LongitudeDegrees>
            </Position>
            <AltitudeMeters>708.79998779296875</AltitudeMeters>
            <DistanceMeters>NAN</DistanceMeters>
          </Trackpoint>
          <Trackpoint>
            <Time>2019-10-05T08:14:05.000Z</Time>
            <Position>
              <LatitudeDegrees>42.5560960359871387481689453125</LatitudeDegrees>
              <LongitudeDegrees>-5.57839821092784404754638671875</LongitudeDegrees>
            </Position>
            <AltitudeMeters>709.20001220703125</AltitudeMeters>
            <DistanceMeters>NAN</DistanceMeters>
          </Trackpoint>
          <Trackpoint>
            <Time>2019-10-05T08:14:07.000Z</Time>
            <Position>
              <LatitudeDegrees>42.5561288930475711822509765625</LatitudeDegrees>
              <LongitudeDegrees>-5.57840676046907901763916015625</LongitudeDegrees>
            </Position>
            <AltitudeMeters>710.20001220703125</AltitudeMeters>
            <DistanceMeters>NAN</DistanceMeters>
          </Trackpoint>
          <Trackpoint>
            <Time>2019-10-05T08:14:17.000Z</Time>
            <Position>
              <LatitudeDegrees>42.55612738430500030517578125</LatitudeDegrees>
              <LongitudeDegrees>-5.57840726338326930999755859375</LongitudeDegrees>
            </Position>
            <AltitudeMeters>710</AltitudeMeters>
            <DistanceMeters>NAN</DistanceMeters>
          </Trackpoint>
          <Trackpoint>
            <Time>2019-10-05T08:14:20.000Z</Time>
            <Position>
              <LatitudeDegrees>42.55612738430500030517578125</LatitudeDegrees>
              <LongitudeDegrees>-5.57840726338326930999755859375</LongitudeDegrees>
            </Position>
            <AltitudeMeters>709.79998779296875</AltitudeMeters>
            <DistanceMeters>NAN</DistanceMeters>
          </Trackpoint>
          <Trackpoint>
            <Time>2019-10-05T08:14:24.000Z</Time>
            <Position>
              <LatitudeDegrees>42.55612738430500030517578125</LatitudeDegrees>
              <LongitudeDegrees>-5.57840726338326930999755859375</LongitudeDegrees>
            </Position>
            <AltitudeMeters>709.5999755859375</AltitudeMeters>
            <DistanceMeters>NAN</DistanceMeters>
          </Trackpoint>
          <Trackpoint>
            <Time>2019-10-05T08:14:28.000Z</Time>
            <Position>
              <LatitudeDegrees>42.55612738430500030517578125</LatitudeDegrees>
              <LongitudeDegrees>-5.57840726338326930999755859375</LongitudeDegrees>
            </Position>
            <AltitudeMeters>709.79998779296875</AltitudeMeters>
            <DistanceMeters>NAN</DistanceMeters>
          </Trackpoint>
          <Trackpoint>
            <Time>2019-10-05T08:14:34.000Z</Time>
            <Position>
              <LatitudeDegrees>42.55612738430500030517578125</LatitudeDegrees>
              <LongitudeDegrees>-5.57840726338326930999755859375</LongitudeDegrees>
            </Position>
            <AltitudeMeters>709.5999755859375</AltitudeMeters>
            <DistanceMeters>NAN</DistanceMeters>
          </Trackpoint>
          <Trackpoint>
            <Time>2019-10-05T08:14:39.000Z</Time>
            <Position>
              <LatitudeDegrees>42.55612629465758800506591796875</LatitudeDegrees>
              <LongitudeDegrees>-5.57840541936457157135009765625</LongitudeDegrees>
            </Position>
            <AltitudeMeters>709.79998779296875</AltitudeMeters>
            <DistanceMeters>NAN</DistanceMeters>
          </Trackpoint>
          <Trackpoint>
            <Time>2019-10-05T08:14:41.000Z</Time>
            <Position>
              <LatitudeDegrees>42.55609930492937564849853515625</LatitudeDegrees>
              <LongitudeDegrees>-5.57838245294988155364990234375</LongitudeDegrees>
            </Position>
            <AltitudeMeters>709.5999755859375</AltitudeMeters>
            <DistanceMeters>NAN</DistanceMeters>
          </Trackpoint>
          <Trackpoint>
            <Time>2019-10-05T08:14:44.000Z</Time>
            <Position>
              <LatitudeDegrees>42.55602705292403697967529296875</LatitudeDegrees>
              <LongitudeDegrees>-5.578319840133190155029296875</LongitudeDegrees>
            </Position>
            <AltitudeMeters>709.4000244140625</AltitudeMeters>
            <DistanceMeters>NAN</DistanceMeters>
          </Trackpoint>
          <Trackpoint>
            <Time>2019-10-05T08:14:45.000Z</Time>
            <Position>
              <LatitudeDegrees>42.5559957884252071380615234375</LatitudeDegrees>
              <LongitudeDegrees>-5.57829142548143863677978515625</LongitudeDegrees>
            </Position>
            <AltitudeMeters>709.4000244140625</AltitudeMeters>
            <DistanceMeters>NAN</DistanceMeters>
          </Trackpoint>
          <Trackpoint>
            <Time>2019-10-05T08:14:46.000Z</Time>
            <Position>
              <LatitudeDegrees>42.55596016533672809600830078125</LatitudeDegrees>
              <LongitudeDegrees>-5.5782613344490528106689453125</LongitudeDegrees>
            </Position>
            <AltitudeMeters>709.20001220703125</AltitudeMeters>
            <DistanceMeters>NAN</DistanceMeters>
          </Trackpoint>
          <Trackpoint>
            <Time>2019-10-05T08:14:48.000Z</Time>
            <Position>
              <LatitudeDegrees>42.5558797828853130340576171875</LatitudeDegrees>
              <LongitudeDegrees>-5.57819670997560024261474609375</LongitudeDegrees>
            </Position>
            <AltitudeMeters>709</AltitudeMeters>
            <DistanceMeters>NAN</DistanceMeters>
          </Trackpoint>
          <Trackpoint>
            <Time>2019-10-05T08:14:50.000Z</Time>
            <Position>
              <LatitudeDegrees>42.555803172290325164794921875</LatitudeDegrees>
              <LongitudeDegrees>-5.57812026701867580413818359375</LongitudeDegrees>
            </Position>
            <AltitudeMeters>709.20001220703125</AltitudeMeters>
            <DistanceMeters>NAN</DistanceMeters>
          </Trackpoint>
          <Trackpoint>
            <Time>2019-10-05T08:14:53.000Z</Time>
            <Position>
              <LatitudeDegrees>42.55568725056946277618408203125</LatitudeDegrees>
              <LongitudeDegrees>-5.57800040580332279205322265625</LongitudeDegrees>
            </Position>
            <AltitudeMeters>708.79998779296875</AltitudeMeters>
            <DistanceMeters>NAN</DistanceMeters>
          </Trackpoint>
          <Trackpoint>
            <Time>2019-10-05T08:14:56.000Z</Time>
            <Position>
              <LatitudeDegrees>42.5555740110576152801513671875</LatitudeDegrees>
              <LongitudeDegrees>-5.577877275645732879638671875</LongitudeDegrees>
            </Position>
            <AltitudeMeters>708.5999755859375</AltitudeMeters>
            <DistanceMeters>NAN</DistanceMeters>
          </Trackpoint>
          <Trackpoint>
            <Time>2019-10-05T08:15:01.000Z</Time>
            <Position>
              <LatitudeDegrees>42.5553956441581249237060546875</LatitudeDegrees>
              <LongitudeDegrees>-5.5776388943195343017578125</LongitudeDegrees>
            </Position>
            <AltitudeMeters>708.20001220703125</AltitudeMeters>
            <DistanceMeters>NAN</DistanceMeters>
          </Trackpoint>
          <Trackpoint>
            <Time>2019-10-05T08:15:04.000Z</Time>
            <Position>
              <LatitudeDegrees>42.555297911167144775390625</LatitudeDegrees>
              <LongitudeDegrees>-5.577485002577304840087890625</LongitudeDegrees>
            </Position>
            <AltitudeMeters>708.5999755859375</AltitudeMeters>
            <DistanceMeters>NAN</DistanceMeters>
          </Trackpoint>
          <Trackpoint>
            <Time>2019-10-05T08:15:12.000Z</Time>
            <Position>
              <LatitudeDegrees>42.55501938052475452423095703125</LatitudeDegrees>
              <LongitudeDegrees>-5.5770654045045375823974609375</LongitudeDegrees>
            </Position>
            <AltitudeMeters>708.4000244140625</AltitudeMeters>
            <DistanceMeters>NAN</DistanceMeters>
          </Trackpoint>
          <Trackpoint>
            <Time>2019-10-05T08:15:15.000Z</Time>
            <Position>
              <LatitudeDegrees>42.55492047406733036041259765625</LatitudeDegrees>
              <LongitudeDegrees>-5.5768984369933605194091796875</LongitudeDegrees>
            </Position>
            <AltitudeMeters>708.20001220703125</AltitudeMeters>
            <DistanceMeters>NAN</DistanceMeters>
          </Trackpoint>
          <Trackpoint>
            <Time>2019-10-05T08:15:16.000Z</Time>
            <Position>
              <LatitudeDegrees>42.55488459952175617218017578125</LatitudeDegrees>
              <LongitudeDegrees>-5.57684638537466526031494140625</LongitudeDegrees>
            </Position>
            <AltitudeMeters>708</AltitudeMeters>
            <DistanceMeters>NAN</DistanceMeters>
          </Trackpoint>
          <Trackpoint>
            <Time>2019-10-05T08:15:18.000Z</Time>
            <Position>
              <LatitudeDegrees>42.5548156164586544036865234375</LatitudeDegrees>
              <LongitudeDegrees>-5.57673708535730838775634765625</LongitudeDegrees>
            </Position>
            <AltitudeMeters>708</AltitudeMeters>
            <DistanceMeters>NAN</DistanceMeters>
          </Trackpoint>
          <Trackpoint>
            <Time>2019-10-05T08:15:24.000Z</Time>
            <Position>
              <LatitudeDegrees>42.55459877662360668182373046875</LatitudeDegrees>
              <LongitudeDegrees>-5.5764156393706798553466796875</LongitudeDegrees>
            </Position>
            <AltitudeMeters>707.5999755859375</AltitudeMeters>
            <DistanceMeters>NAN</DistanceMeters>
          </Trackpoint>
          <Trackpoint>
            <Time>2019-10-05T08:15:26.000Z</Time>
            <Position>
              <LatitudeDegrees>42.55452786572277545928955078125</LatitudeDegrees>
              <LongitudeDegrees>-5.5763100273907184600830078125</LongitudeDegrees>
            </Position>
            <AltitudeMeters>707.4000244140625</AltitudeMeters>
            <DistanceMeters>NAN</DistanceMeters>
          </Trackpoint>
          <Trackpoint>
            <Time>2019-10-05T08:15:35.000Z</Time>
            <Position>
              <LatitudeDegrees>42.5542317330837249755859375</LatitudeDegrees>
              <LongitudeDegrees>-5.57581163942813873291015625</LongitudeDegrees>
            </Position>
            <AltitudeMeters>707.4000244140625</AltitudeMeters>
            <DistanceMeters>NAN</DistanceMeters>
          </Trackpoint>
          <Trackpoint>
            <Time>2019-10-05T08:15:42.000Z</Time>
            <Position>
              <LatitudeDegrees>42.55406166426837444305419921875</LatitudeDegrees>
              <LongitudeDegrees>-5.57536681182682514190673828125</LongitudeDegrees>
            </Position>
            <AltitudeMeters>707.4000244140625</AltitudeMeters>
            <DistanceMeters>NAN</DistanceMeters>
          </Trackpoint>
          <Trackpoint>
            <Time>2019-10-05T08:15:49.000Z</Time>
            <Position>
              <LatitudeDegrees>42.55399947054684162139892578125</LatitudeDegrees>
              <LongitudeDegrees>-5.5748869478702545166015625</LongitudeDegrees>
            </Position>
            <AltitudeMeters>708.20001220703125</AltitudeMeters>
            <DistanceMeters>NAN</DistanceMeters>
          </Trackpoint>
          <Trackpoint>
            <Time>2019-10-05T08:15:55.000Z</Time>
            <Position>
              <LatitudeDegrees>42.554030232131481170654296875</LatitudeDegrees>
              <LongitudeDegrees>-5.57450599037110805511474609375</LongitudeDegrees>
            </Position>
            <AltitudeMeters>708.4000244140625</AltitudeMeters>
            <DistanceMeters>NAN</DistanceMeters>
          </Trackpoint>
          <Trackpoint>
            <Time>2019-10-05T08:15:56.000Z</Time>
            <Position>
              <LatitudeDegrees>42.5540377758443355560302734375</LatitudeDegrees>
              <LongitudeDegrees>-5.57445033453404903411865234375</LongitudeDegrees>
            </Position>
            <AltitudeMeters>708.5999755859375</AltitudeMeters>
            <DistanceMeters>NAN</DistanceMeters>
          </Trackpoint>
          <Trackpoint>
            <Time>2019-10-05T08:15:57.000Z</Time>
            <Position>
              <LatitudeDegrees>42.5540493428707122802734375</LatitudeDegrees>
              <LongitudeDegrees>-5.57439677417278289794921875</LongitudeDegrees>
            </Position>
            <AltitudeMeters>709.20001220703125</AltitudeMeters>
            <DistanceMeters>NAN</DistanceMeters>
          </Trackpoint>
          <Trackpoint>
            <Time>2019-10-05T08:16:01.000Z</Time>
            <Position>
              <LatitudeDegrees>42.55410608835518360137939453125</LatitudeDegrees>
              <LongitudeDegrees>-5.5742065049707889556884765625</LongitudeDegrees>
            </Position>
            <AltitudeMeters>709.4000244140625</AltitudeMeters>
            <DistanceMeters>NAN</DistanceMeters>
          </Trackpoint>
          <Trackpoint>
            <Time>2019-10-05T08:16:02.000Z</Time>
            <Position>
              <LatitudeDegrees>42.55412335507571697235107421875</LatitudeDegrees>
              <LongitudeDegrees>-5.5741632543504238128662109375</LongitudeDegrees>
            </Position>
            <AltitudeMeters>709.79998779296875</AltitudeMeters>
            <DistanceMeters>NAN</DistanceMeters>
          </Trackpoint>
          <Trackpoint>
            <Time>2019-10-05T08:16:03.000Z</Time>
            <Position>
              <LatitudeDegrees>42.5541373528540134429931640625</LatitudeDegrees>
              <LongitudeDegrees>-5.57412360794842243194580078125</LongitudeDegrees>
            </Position>
            <AltitudeMeters>710</AltitudeMeters>
            <DistanceMeters>NAN</DistanceMeters>
          </Trackpoint>
          <Trackpoint>
            <Time>2019-10-05T08:16:06.000Z</Time>
            <Position>
              <LatitudeDegrees>42.554190158843994140625</LatitudeDegrees>
              <LongitudeDegrees>-5.57400374673306941986083984375</LongitudeDegrees>
            </Position>
            <AltitudeMeters>710.4000244140625</AltitudeMeters>
            <DistanceMeters>NAN</DistanceMeters>
          </Trackpoint>
          <Trackpoint>
            <Time>2019-10-05T08:16:10.000Z</Time>
            <Position>
              <LatitudeDegrees>42.5542934238910675048828125</LatitudeDegrees>
              <LongitudeDegrees>-5.5738353542983531951904296875</LongitudeDegrees>
            </Position>
            <AltitudeMeters>711</AltitudeMeters>
            <DistanceMeters>NAN</DistanceMeters>
          </Trackpoint>
          <Trackpoint>
            <Time>2019-10-05T08:16:13.000Z</Time>
            <Position>
              <LatitudeDegrees>42.55439090542495250701904296875</LatitudeDegrees>
              <LongitudeDegrees>-5.57372085750102996826171875</LongitudeDegrees>
            </Position>
            <AltitudeMeters>711.20001220703125</AltitudeMeters>
            <DistanceMeters>NAN</DistanceMeters>
          </Trackpoint>
          <Trackpoint>
            <Time>2019-10-05T08:16:17.000Z</Time>
            <Position>
              <LatitudeDegrees>42.55455569364130496978759765625</LatitudeDegrees>
              <LongitudeDegrees>-5.57355162687599658966064453125</LongitudeDegrees>
            </Position>
            <AltitudeMeters>711.4000244140625</AltitudeMeters>
            <DistanceMeters>NAN</DistanceMeters>
          </Trackpoint>
          <Trackpoint>
            <Time>2019-10-05T08:16:23.000Z</Time>
            <Position>
              <LatitudeDegrees>42.55472199060022830963134765625</LatitudeDegrees>
              <LongitudeDegrees>-5.57337879203259944915771484375</LongitudeDegrees>
            </Position>
            <AltitudeMeters>712.5999755859375</AltitudeMeters>
            <DistanceMeters>NAN</DistanceMeters>
          </Trackpoint>
          <Trackpoint>
            <Time>2019-10-05T08:16:26.000Z</Time>
            <Position>
              <LatitudeDegrees>42.5548132695257663726806640625</LatitudeDegrees>
              <LongitudeDegrees>-5.57327250950038433074951171875</LongitudeDegrees>
            </Position>
            <AltitudeMeters>712.4000244140625</AltitudeMeters>
            <DistanceMeters>NAN</DistanceMeters>
          </Trackpoint>
          <Trackpoint>
            <Time>2019-10-05T08:16:27.000Z</Time>
            <Position>
              <LatitudeDegrees>42.5548404268920421600341796875</LatitudeDegrees>
              <LongitudeDegrees>-5.5732355453073978424072265625</LongitudeDegrees>
            </Position>
            <AltitudeMeters>712.20001220703125</AltitudeMeters>
            <DistanceMeters>NAN</DistanceMeters>
          </Trackpoint>
          <Trackpoint>
            <Time>2019-10-05T08:16:29.000Z</Time>
            <Position>
              <LatitudeDegrees>42.55489432252943515777587890625</LatitudeDegrees>
              <LongitudeDegrees>-5.57315918616950511932373046875</LongitudeDegrees>
            </Position>
            <AltitudeMeters>712.5999755859375</AltitudeMeters>
            <DistanceMeters>NAN</DistanceMeters>
          </Trackpoint>
          <Trackpoint>
            <Time>2019-10-05T08:16:33.000Z</Time>
            <Position>
              <LatitudeDegrees>42.5549695082008838653564453125</LatitudeDegrees>
              <LongitudeDegrees>-5.5729691684246063232421875</LongitudeDegrees>
            </Position>
            <AltitudeMeters>713</AltitudeMeters>
            <DistanceMeters>NAN</DistanceMeters>
          </Trackpoint>
          <Trackpoint>
            <Time>2019-10-05T08:16:36.000Z</Time>
            <Position>
              <LatitudeDegrees>42.5549916364252567291259765625</LatitudeDegrees>
              <LongitudeDegrees>-5.5728147737681865692138671875</LongitudeDegrees>
            </Position>
            <AltitudeMeters>713.5999755859375</AltitudeMeters>
            <DistanceMeters>NAN</DistanceMeters>
          </Trackpoint>
          <Trackpoint>
            <Time>2019-10-05T08:16:38.000Z</Time>
            <Position>
              <LatitudeDegrees>42.55497428588569164276123046875</LatitudeDegrees>
              <LongitudeDegrees>-5.572712011635303497314453125</LongitudeDegrees>
            </Position>
            <AltitudeMeters>713.79998779296875</AltitudeMeters>
            <DistanceMeters>NAN</DistanceMeters>
          </Trackpoint>
          <Trackpoint>
            <Time>2019-10-05T08:16:43.000Z</Time>
            <Position>
              <LatitudeDegrees>42.55487755872309207916259765625</LatitudeDegrees>
              <LongitudeDegrees>-5.57247471995651721954345703125</LongitudeDegrees>
            </Position>
            <AltitudeMeters>714.79998779296875</AltitudeMeters>
            <DistanceMeters>NAN</DistanceMeters>
          </Trackpoint>
          <Trackpoint>
            <Time>2019-10-05T08:16:44.000Z</Time>
            <Position>
              <LatitudeDegrees>42.5548662431538105010986328125</LatitudeDegrees>
              <LongitudeDegrees>-5.57242124341428279876708984375</LongitudeDegrees>
            </Position>
            <AltitudeMeters>714.79998779296875</AltitudeMeters>
            <DistanceMeters>NAN</DistanceMeters>
          </Trackpoint>
          <Trackpoint>
            <Time>2019-10-05T08:16:48.000Z</Time>
            <Position>
              <LatitudeDegrees>42.5548593699932098388671875</LatitudeDegrees>
              <LongitudeDegrees>-5.57220566086471080780029296875</LongitudeDegrees>
            </Position>
            <AltitudeMeters>715.4000244140625</AltitudeMeters>
            <DistanceMeters>NAN</DistanceMeters>
          </Trackpoint>
          <Trackpoint>
            <Time>2019-10-05T08:16:49.000Z</Time>
            <Position>
              <LatitudeDegrees>42.55486381240189075469970703125</LatitudeDegrees>
              <LongitudeDegrees>-5.5721532739698886871337890625</LongitudeDegrees>
            </Position>
            <AltitudeMeters>715.4000244140625</AltitudeMeters>
            <DistanceMeters>NAN</DistanceMeters>
          </Trackpoint>
          <Trackpoint>
            <Time>2019-10-05T08:16:54.000Z</Time>
            <Position>
              <LatitudeDegrees>42.55487571470439434051513671875</LatitudeDegrees>
              <LongitudeDegrees>-5.57187977246940135955810546875</LongitudeDegrees>
            </Position>
            <AltitudeMeters>715.4000244140625</AltitudeMeters>
            <DistanceMeters>NAN</DistanceMeters>
          </Trackpoint>
          <Trackpoint>
            <Time>2019-10-05T08:16:55.000Z</Time>
            <Position>
              <LatitudeDegrees>42.5548679195344448089599609375</LatitudeDegrees>
              <LongitudeDegrees>-5.5718260444700717926025390625</LongitudeDegrees>
            </Position>
            <AltitudeMeters>715.79998779296875</AltitudeMeters>
            <DistanceMeters>NAN</DistanceMeters>
          </Trackpoint>
          <Trackpoint>
            <Time>2019-10-05T08:16:56.000Z</Time>
            <Position>
              <LatitudeDegrees>42.55485543049871921539306640625</LatitudeDegrees>
              <LongitudeDegrees>-5.57177365757524967193603515625</LongitudeDegrees>
            </Position>
            <AltitudeMeters>716</AltitudeMeters>
            <DistanceMeters>NAN</DistanceMeters>
          </Trackpoint>
          <Trackpoint>
            <Time>2019-10-05T08:17:03.000Z</Time>
            <Position>
              <LatitudeDegrees>42.5547493994235992431640625</LatitudeDegrees>
              <LongitudeDegrees>-5.57142681442201137542724609375</LongitudeDegrees>
            </Position>
            <AltitudeMeters>715.79998779296875</AltitudeMeters>
            <DistanceMeters>NAN</DistanceMeters>
          </Trackpoint>
          <Trackpoint>
            <Time>2019-10-05T08:17:11.000Z</Time>
            <Position>
              <LatitudeDegrees>42.55459986627101898193359375</LatitudeDegrees>
              <LongitudeDegrees>-5.57099548168480396270751953125</LongitudeDegrees>
            </Position>
            <AltitudeMeters>715.4000244140625</AltitudeMeters>
            <DistanceMeters>NAN</DistanceMeters>
          </Trackpoint>
          <Trackpoint>
            <Time>2019-10-05T08:17:12.000Z</Time>
            <Position>
              <LatitudeDegrees>42.55456902086734771728515625</LatitudeDegrees>
              <LongitudeDegrees>-5.570947118103504180908203125</LongitudeDegrees>
            </Position>
            <AltitudeMeters>715.20001220703125</AltitudeMeters>
            <DistanceMeters>NAN</DistanceMeters>
          </Trackpoint>
          <Trackpoint>
            <Time>2019-10-05T08:17:15.000Z</Time>
            <Position>
              <LatitudeDegrees>42.5544394366443157196044921875</LatitudeDegrees>
              <LongitudeDegrees>-5.57083639316260814666748046875</LongitudeDegrees>
            </Position>
            <AltitudeMeters>715</AltitudeMeters>
            <DistanceMeters>NAN</DistanceMeters>
          </Trackpoint>
          <Trackpoint>
            <Time>2019-10-05T08:17:16.000Z</Time>
            <Position>
              <LatitudeDegrees>42.55439467728137969970703125</LatitudeDegrees>
              <LongitudeDegrees>-5.57080554775893688201904296875</LongitudeDegrees>
            </Position>
            <AltitudeMeters>715</AltitudeMeters>
            <DistanceMeters>NAN</DistanceMeters>
          </Trackpoint>
          <Trackpoint>
            <Time>2019-10-05T08:17:17.000Z</Time>
            <Position>
              <LatitudeDegrees>42.55435176193714141845703125</LatitudeDegrees>
              <LongitudeDegrees>-5.57076774537563323974609375</LongitudeDegrees>
            </Position>
            <AltitudeMeters>715</AltitudeMeters>
            <DistanceMeters>NAN</DistanceMeters>
          </Trackpoint>
          <Trackpoint>
            <Time>2019-10-05T08:17:19.000Z</Time>
            <Position>
              <LatitudeDegrees>42.5542764924466609954833984375</LatitudeDegrees>
              <LongitudeDegrees>-5.57066984474658966064453125</LongitudeDegrees>
            </Position>
            <AltitudeMeters>714.5999755859375</AltitudeMeters>
            <DistanceMeters>NAN</DistanceMeters>
          </Trackpoint>
          <Trackpoint>
            <Time>2019-10-05T08:17:20.000Z</Time>
            <Position>
              <LatitudeDegrees>42.55424321629106998443603515625</LatitudeDegrees>
              <LongitudeDegrees>-5.57061226107180118560791015625</LongitudeDegrees>
            </Position>
            <AltitudeMeters>714.5999755859375</AltitudeMeters>
            <DistanceMeters>NAN</DistanceMeters>
          </Trackpoint>
          <Trackpoint>
            <Time>2019-10-05T08:17:22.000Z</Time>
            <Position>
              <LatitudeDegrees>42.55418102256953716278076171875</LatitudeDegrees>
              <LongitudeDegrees>-5.57048535905778408050537109375</LongitudeDegrees>
            </Position>
            <AltitudeMeters>714.20001220703125</AltitudeMeters>
            <DistanceMeters>NAN</DistanceMeters>
          </Trackpoint>
          <Trackpoint>
            <Time>2019-10-05T08:17:23.000Z</Time>
            <Position>
              <LatitudeDegrees>42.5541423819959163665771484375</LatitudeDegrees>
              <LongitudeDegrees>-5.57042333297431468963623046875</LongitudeDegrees>
            </Position>
            <AltitudeMeters>713.5999755859375</AltitudeMeters>
            <DistanceMeters>NAN</DistanceMeters>
          </Trackpoint>
          <Trackpoint>
            <Time>2019-10-05T08:17:25.000Z</Time>
            <Position>
              <LatitudeDegrees>42.5540367700159549713134765625</LatitudeDegrees>
              <LongitudeDegrees>-5.5703327246010303497314453125</LongitudeDegrees>
            </Position>
            <AltitudeMeters>713</AltitudeMeters>
            <DistanceMeters>NAN</DistanceMeters>
          </Trackpoint>
          <Trackpoint>
            <Time>2019-10-05T08:17:28.000Z</Time>
            <Position>
              <LatitudeDegrees>42.5538361072540283203125</LatitudeDegrees>
              <LongitudeDegrees>-5.5703484825789928436279296875</LongitudeDegrees>
            </Position>
            <AltitudeMeters>712.20001220703125</AltitudeMeters>
            <DistanceMeters>NAN</DistanceMeters>
          </Trackpoint>
          <Trackpoint>
            <Time>2019-10-05T08:17:30.000Z</Time>
            <Position>
              <LatitudeDegrees>42.553711719810962677001953125</LatitudeDegrees>
              <LongitudeDegrees>-5.570460967719554901123046875</LongitudeDegrees>
            </Position>
            <AltitudeMeters>710.79998779296875</AltitudeMeters>
            <DistanceMeters>NAN</DistanceMeters>
          </Trackpoint>
          <Trackpoint>
            <Time>2019-10-05T08:17:31.000Z</Time>
            <Position>
              <LatitudeDegrees>42.55365463905036449432373046875</LatitudeDegrees>
              <LongitudeDegrees>-5.570532046258449554443359375</LongitudeDegrees>
            </Position>
            <AltitudeMeters>710.4000244140625</AltitudeMeters>
            <DistanceMeters>NAN</DistanceMeters>
          </Trackpoint>
          <Trackpoint>
            <Time>2019-10-05T08:17:33.000Z</Time>
            <Position>
              <LatitudeDegrees>42.5535370409488677978515625</LatitudeDegrees>
              <LongitudeDegrees>-5.57067914865911006927490234375</LongitudeDegrees>
            </Position>
            <AltitudeMeters>709.20001220703125</AltitudeMeters>
            <DistanceMeters>NAN</DistanceMeters>
          </Trackpoint>
          <Trackpoint>
            <Time>2019-10-05T08:17:35.000Z</Time>
            <Position>
              <LatitudeDegrees>42.5534138269722461700439453125</LatitudeDegrees>
              <LongitudeDegrees>-5.570831112563610076904296875</LongitudeDegrees>
            </Position>
            <AltitudeMeters>708.20001220703125</AltitudeMeters>
            <DistanceMeters>NAN</DistanceMeters>
          </Trackpoint>
          <Trackpoint>
            <Time>2019-10-05T08:17:38.000Z</Time>
            <Position>
              <LatitudeDegrees>42.55322330631315708160400390625</LatitudeDegrees>
              <LongitudeDegrees>-5.571063794195652008056640625</LongitudeDegrees>
            </Position>
            <AltitudeMeters>707.4000244140625</AltitudeMeters>
            <DistanceMeters>NAN</DistanceMeters>
          </Trackpoint>
          <Trackpoint>
            <Time>2019-10-05T08:17:39.000Z</Time>
            <Position>
              <LatitudeDegrees>42.5531583465635776519775390625</LatitudeDegrees>
              <LongitudeDegrees>-5.57114233262836933135986328125</LongitudeDegrees>
            </Position>
            <AltitudeMeters>707.20001220703125</AltitudeMeters>
            <DistanceMeters>NAN</DistanceMeters>
          </Trackpoint>
          <Trackpoint>
            <Time>2019-10-05T08:17:41.000Z</Time>
            <Position>
              <LatitudeDegrees>42.553023062646389007568359375</LatitudeDegrees>
              <LongitudeDegrees>-5.57128851301968097686767578125</LongitudeDegrees>
            </Position>
            <AltitudeMeters>706.4000244140625</AltitudeMeters>
            <DistanceMeters>NAN</DistanceMeters>
          </Trackpoint>
          <Trackpoint>
            <Time>2019-10-05T08:17:42.000Z</Time>
            <Position>
              <LatitudeDegrees>42.55294955335557460784912109375</LatitudeDegrees>
              <LongitudeDegrees>-5.571347437798976898193359375</LongitudeDegrees>
            </Position>
            <AltitudeMeters>706</AltitudeMeters>
            <DistanceMeters>NAN</DistanceMeters>
          </Trackpoint>
          <Trackpoint>
            <Time>2019-10-05T08:17:43.000Z</Time>
            <Position>
              <LatitudeDegrees>42.552870847284793853759765625</LatitudeDegrees>
              <LongitudeDegrees>-5.571394376456737518310546875</LongitudeDegrees>
            </Position>
            <AltitudeMeters>705.4000244140625</AltitudeMeters>
            <DistanceMeters>NAN</DistanceMeters>
          </Trackpoint>
          <Trackpoint>
            <Time>2019-10-05T08:17:46.000Z</Time>
            <Position>
              <LatitudeDegrees>42.55262634716928005218505859375</LatitudeDegrees>
              <LongitudeDegrees>-5.57141256518661975860595703125</LongitudeDegrees>
            </Position>
            <AltitudeMeters>705.4000244140625</AltitudeMeters>
            <DistanceMeters>NAN</DistanceMeters>
          </Trackpoint>
          <Trackpoint>
            <Time>2019-10-05T08:17:49.000Z</Time>
            <Position>
              <LatitudeDegrees>42.55241948179900646209716796875</LatitudeDegrees>
              <LongitudeDegrees>-5.5712802149355411529541015625</LongitudeDegrees>
            </Position>
            <AltitudeMeters>705.5999755859375</AltitudeMeters>
            <DistanceMeters>NAN</DistanceMeters>
          </Trackpoint>
          <Trackpoint>
            <Time>2019-10-05T08:17:51.000Z</Time>
            <Position>
              <LatitudeDegrees>42.5523097626864910125732421875</LatitudeDegrees>
              <LongitudeDegrees>-5.57114752940833568572998046875</LongitudeDegrees>
            </Position>
            <AltitudeMeters>705.5999755859375</AltitudeMeters>
            <DistanceMeters>NAN</DistanceMeters>
          </Trackpoint>
          <Trackpoint>
            <Time>2019-10-05T08:17:54.000Z</Time>
            <Position>
              <LatitudeDegrees>42.552166767418384552001953125</LatitudeDegrees>
              <LongitudeDegrees>-5.5709382332861423492431640625</LongitudeDegrees>
            </Position>
            <AltitudeMeters>706</AltitudeMeters>
            <DistanceMeters>NAN</DistanceMeters>
          </Trackpoint>
          <Trackpoint>
            <Time>2019-10-05T08:17:57.000Z</Time>
            <Position>
              <LatitudeDegrees>42.55203274078667163848876953125</LatitudeDegrees>
              <LongitudeDegrees>-5.57073916308581829071044921875</LongitudeDegrees>
            </Position>
            <AltitudeMeters>706.20001220703125</AltitudeMeters>
            <DistanceMeters>NAN</DistanceMeters>
          </Trackpoint>
          <Trackpoint>
            <Time>2019-10-05T08:18:03.000Z</Time>
            <Position>
              <LatitudeDegrees>42.55177776329219341278076171875</LatitudeDegrees>
              <LongitudeDegrees>-5.57036943733692169189453125</LongitudeDegrees>
            </Position>
            <AltitudeMeters>706.4000244140625</AltitudeMeters>
            <DistanceMeters>NAN</DistanceMeters>
          </Trackpoint>
          <Trackpoint>
            <Time>2019-10-05T08:18:13.000Z</Time>
            <Position>
              <LatitudeDegrees>42.55134911276400089263916015625</LatitudeDegrees>
              <LongitudeDegrees>-5.56978915818035602569580078125</LongitudeDegrees>
            </Position>
            <AltitudeMeters>706.4000244140625</AltitudeMeters>
            <DistanceMeters>NAN</DistanceMeters>
          </Trackpoint>
          <Trackpoint>
            <Time>2019-10-05T08:18:19.000Z</Time>
            <Position>
              <LatitudeDegrees>42.55103613249957561492919921875</LatitudeDegrees>
              <LongitudeDegrees>-5.56955228559672832489013671875</LongitudeDegrees>
            </Position>
            <AltitudeMeters>706.5999755859375</AltitudeMeters>
            <DistanceMeters>NAN</DistanceMeters>
          </Trackpoint>
          <Trackpoint>
            <Time>2019-10-05T08:18:22.000Z</Time>
            <Position>
              <LatitudeDegrees>42.55087838508188724517822265625</LatitudeDegrees>
              <LongitudeDegrees>-5.56946276687085628509521484375</LongitudeDegrees>
            </Position>
            <AltitudeMeters>707.20001220703125</AltitudeMeters>
            <DistanceMeters>NAN</DistanceMeters>
          </Trackpoint>
          <Trackpoint>
            <Time>2019-10-05T08:18:26.000Z</Time>
            <Position>
              <LatitudeDegrees>42.5506778061389923095703125</LatitudeDegrees>
              <LongitudeDegrees>-5.56935179047286510467529296875</LongitudeDegrees>
            </Position>
            <AltitudeMeters>706.79998779296875</AltitudeMeters>
            <DistanceMeters>NAN</DistanceMeters>
          </Trackpoint>
          <Trackpoint>
            <Time>2019-10-05T08:18:29.000Z</Time>
            <Position>
              <LatitudeDegrees>42.5505287759006023406982421875</LatitudeDegrees>
              <LongitudeDegrees>-5.5692672170698642730712890625</LongitudeDegrees>
            </Position>
            <AltitudeMeters>706.20001220703125</AltitudeMeters>
            <DistanceMeters>NAN</DistanceMeters>
          </Trackpoint>
          <Trackpoint>
            <Time>2019-10-05T08:18:35.000Z</Time>
            <Position>
              <LatitudeDegrees>42.55023951642215251922607421875</LatitudeDegrees>
              <LongitudeDegrees>-5.5690895207226276397705078125</LongitudeDegrees>
            </Position>
            <AltitudeMeters>705.79998779296875</AltitudeMeters>
            <DistanceMeters>NAN</DistanceMeters>
          </Trackpoint>
          <Trackpoint>
            <Time>2019-10-05T08:18:44.000Z</Time>
            <Position>
              <LatitudeDegrees>42.54983634687960147857666015625</LatitudeDegrees>
              <LongitudeDegrees>-5.56875064037740230560302734375</LongitudeDegrees>
            </Position>
            <AltitudeMeters>706.5999755859375</AltitudeMeters>
            <DistanceMeters>NAN</DistanceMeters>
          </Trackpoint>
          <Trackpoint>
            <Time>2019-10-05T08:18:51.000Z</Time>
            <Position>
              <LatitudeDegrees>42.54956066608428955078125</LatitudeDegrees>
              <LongitudeDegrees>-5.56838552467525005340576171875</LongitudeDegrees>
            </Position>
            <AltitudeMeters>706</AltitudeMeters>
            <DistanceMeters>NAN</DistanceMeters>
          </Trackpoint>
          <Trackpoint>
            <Time>2019-10-05T08:18:53.000Z</Time>
            <Position>
              <LatitudeDegrees>42.54947626031935214996337890625</LatitudeDegrees>
              <LongitudeDegrees>-5.5682825110852718353271484375</LongitudeDegrees>
            </Position>
            <AltitudeMeters>705.5999755859375</AltitudeMeters>
            <DistanceMeters>NAN</DistanceMeters>
          </Trackpoint>
          <Trackpoint>
            <Time>2019-10-05T08:18:55.000Z</Time>
            <Position>
              <LatitudeDegrees>42.54938992671668529510498046875</LatitudeDegrees>
              <LongitudeDegrees>-5.5681856162846088409423828125</LongitudeDegrees>
            </Position>
            <AltitudeMeters>705</AltitudeMeters>
            <DistanceMeters>NAN</DistanceMeters>
          </Trackpoint>
          <Trackpoint>
            <Time>2019-10-05T08:19:02.000Z</Time>
            <Position>
              <LatitudeDegrees>42.54906789399683475494384765625</LatitudeDegrees>
              <LongitudeDegrees>-5.56788437068462371826171875</LongitudeDegrees>
            </Position>
            <AltitudeMeters>705.5999755859375</AltitudeMeters>
            <DistanceMeters>NAN</DistanceMeters>
          </Trackpoint>
          <Trackpoint>
            <Time>2019-10-05T08:19:10.000Z</Time>
            <Position>
              <LatitudeDegrees>42.54866355098783969879150390625</LatitudeDegrees>
              <LongitudeDegrees>-5.5676535330712795257568359375</LongitudeDegrees>
            </Position>
            <AltitudeMeters>705.4000244140625</AltitudeMeters>
            <DistanceMeters>NAN</DistanceMeters>
          </Trackpoint>
          <Trackpoint>
            <Time>2019-10-05T08:19:19.000Z</Time>
            <Position>
              <LatitudeDegrees>42.54814906977117061614990234375</LatitudeDegrees>
              <LongitudeDegrees>-5.56750643067061901092529296875</LongitudeDegrees>
            </Position>
            <AltitudeMeters>705.79998779296875</AltitudeMeters>
            <DistanceMeters>NAN</DistanceMeters>
          </Trackpoint>
          <Trackpoint>
            <Time>2019-10-05T08:19:28.000Z</Time>
            <Position>
              <LatitudeDegrees>42.54767046310007572174072265625</LatitudeDegrees>
              <LongitudeDegrees>-5.56749234907329082489013671875</LongitudeDegrees>
            </Position>
            <AltitudeMeters>704.5999755859375</AltitudeMeters>
            <DistanceMeters>NAN</DistanceMeters>
          </Trackpoint>
          <Trackpoint>
            <Time>2019-10-05T08:19:38.000Z</Time>
            <Position>
              <LatitudeDegrees>42.5470972247421741485595703125</LatitudeDegrees>
              <LongitudeDegrees>-5.56747357361018657684326171875</LongitudeDegrees>
            </Position>
            <AltitudeMeters>704.4000244140625</AltitudeMeters>
            <DistanceMeters>NAN</DistanceMeters>
          </Trackpoint>
          <Trackpoint>
            <Time>2019-10-05T08:19:39.000Z</Time>
            <Position>
              <LatitudeDegrees>42.54704047925770282745361328125</LatitudeDegrees>
              <LongitudeDegrees>-5.56747022084891796112060546875</LongitudeDegrees>
            </Position>
            <AltitudeMeters>704.5999755859375</AltitudeMeters>
            <DistanceMeters>NAN</DistanceMeters>
          </Trackpoint>
          <Trackpoint>
            <Time>2019-10-05T08:19:48.000Z</Time>
            <Position>
              <LatitudeDegrees>42.5465296022593975067138671875</LatitudeDegrees>
              <LongitudeDegrees>-5.56745798327028751373291015625</LongitudeDegrees>
            </Position>
            <AltitudeMeters>704.5999755859375</AltitudeMeters>
            <DistanceMeters>NAN</DistanceMeters>
          </Trackpoint>
          <Trackpoint>
            <Time>2019-10-05T08:19:57.000Z</Time>
            <Position>
              <LatitudeDegrees>42.546031884849071502685546875</LatitudeDegrees>
              <LongitudeDegrees>-5.56743468157947063446044921875</LongitudeDegrees>
            </Position>
            <AltitudeMeters>704.5999755859375</AltitudeMeters>
            <DistanceMeters>NAN</DistanceMeters>
          </Trackpoint>
          <Trackpoint>
            <Time>2019-10-05T08:20:04.000Z</Time>
            <Position>
              <LatitudeDegrees>42.54565604031085968017578125</LatitudeDegrees>
              <LongitudeDegrees>-5.5673635192215442657470703125</LongitudeDegrees>
            </Position>
            <AltitudeMeters>704.4000244140625</AltitudeMeters>
            <DistanceMeters>NAN</DistanceMeters>
          </Trackpoint>
          <Trackpoint>
            <Time>2019-10-05T08:20:14.000Z</Time>
            <Position>
              <LatitudeDegrees>42.54510819911956787109375</LatitudeDegrees>
              <LongitudeDegrees>-5.56726452894508838653564453125</LongitudeDegrees>
            </Position>
            <AltitudeMeters>704.4000244140625</AltitudeMeters>
            <DistanceMeters>NAN</DistanceMeters>
          </Trackpoint>
          <Trackpoint>
            <Time>2019-10-05T08:20:16.000Z</Time>
            <Position>
              <LatitudeDegrees>42.5449977256357669830322265625</LatitudeDegrees>
              <LongitudeDegrees>-5.567261762917041778564453125</LongitudeDegrees>
            </Position>
            <AltitudeMeters>704</AltitudeMeters>
            <DistanceMeters>NAN</DistanceMeters>
          </Trackpoint>
          <Trackpoint>
            <Time>2019-10-05T08:20:23.000Z</Time>
            <Position>
              <LatitudeDegrees>42.54460729658603668212890625</LatitudeDegrees>
              <LongitudeDegrees>-5.56722991168498992919921875</LongitudeDegrees>
            </Position>
            <AltitudeMeters>703.5999755859375</AltitudeMeters>
            <DistanceMeters>NAN</DistanceMeters>
          </Trackpoint>
          <Trackpoint>
            <Time>2019-10-05T08:20:30.000Z</Time>
            <Position>
              <LatitudeDegrees>42.54423446953296661376953125</LatitudeDegrees>
              <LongitudeDegrees>-5.5670983158051967620849609375</LongitudeDegrees>
            </Position>
            <AltitudeMeters>703.5999755859375</AltitudeMeters>
            <DistanceMeters>NAN</DistanceMeters>
          </Trackpoint>
          <Trackpoint>
            <Time>2019-10-05T08:20:40.000Z</Time>
            <Position>
              <LatitudeDegrees>42.5437082536518573760986328125</LatitudeDegrees>
              <LongitudeDegrees>-5.56690134108066558837890625</LongitudeDegrees>
            </Position>
            <AltitudeMeters>704</AltitudeMeters>
            <DistanceMeters>NAN</DistanceMeters>
          </Trackpoint>
          <Trackpoint>
            <Time>2019-10-05T08:20:46.000Z</Time>
            <Position>
              <LatitudeDegrees>42.54341731779277324676513671875</LatitudeDegrees>
              <LongitudeDegrees>-5.5667767859995365142822265625</LongitudeDegrees>
            </Position>
            <AltitudeMeters>703.5999755859375</AltitudeMeters>
            <DistanceMeters>NAN</DistanceMeters>
          </Trackpoint>
          <Trackpoint>
            <Time>2019-10-05T08:20:47.000Z</Time>
            <Position>
              <LatitudeDegrees>42.5433741509914398193359375</LatitudeDegrees>
              <LongitudeDegrees>-5.56679229252040386199951171875</LongitudeDegrees>
            </Position>
            <AltitudeMeters>703.5999755859375</AltitudeMeters>
            <DistanceMeters>NAN</DistanceMeters>
          </Trackpoint>
          <Trackpoint>
            <Time>2019-10-05T08:20:49.000Z</Time>
            <Position>
              <LatitudeDegrees>42.5433433055877685546875</LatitudeDegrees>
              <LongitudeDegrees>-5.566896311938762664794921875</LongitudeDegrees>
            </Position>
            <AltitudeMeters>703.79998779296875</AltitudeMeters>
            <DistanceMeters>NAN</DistanceMeters>
          </Trackpoint>
          <Trackpoint>
            <Time>2019-10-05T08:20:51.000Z</Time>
            <Position>
              <LatitudeDegrees>42.54333098419010639190673828125</LatitudeDegrees>
              <LongitudeDegrees>-5.56702195666730403900146484375</LongitudeDegrees>
            </Position>
            <AltitudeMeters>704.20001220703125</AltitudeMeters>
            <DistanceMeters>NAN</DistanceMeters>
          </Trackpoint>
          <Trackpoint>
            <Time>2019-10-05T08:20:55.000Z</Time>
            <Position>
              <LatitudeDegrees>42.54330919124186038970947265625</LatitudeDegrees>
              <LongitudeDegrees>-5.567306689918041229248046875</LongitudeDegrees>
            </Position>
            <AltitudeMeters>703.79998779296875</AltitudeMeters>
            <DistanceMeters>NAN</DistanceMeters>
          </Trackpoint>
          <Trackpoint>
            <Time>2019-10-05T08:20:59.000Z</Time>
            <Position>
              <LatitudeDegrees>42.543269880115985870361328125</LatitudeDegrees>
              <LongitudeDegrees>-5.5676002241671085357666015625</LongitudeDegrees>
            </Position>
            <AltitudeMeters>703.5999755859375</AltitudeMeters>
            <DistanceMeters>NAN</DistanceMeters>
          </Trackpoint>
          <Trackpoint>
            <Time>2019-10-05T08:21:04.000Z</Time>
            <Position>
              <LatitudeDegrees>42.5432563014328479766845703125</LatitudeDegrees>
              <LongitudeDegrees>-5.56795989163219928741455078125</LongitudeDegrees>
            </Position>
            <AltitudeMeters>703</AltitudeMeters>
            <DistanceMeters>NAN</DistanceMeters>
          </Trackpoint>
          <Trackpoint>
            <Time>2019-10-05T08:21:05.000Z</Time>
            <Position>
              <LatitudeDegrees>42.543264515697956085205078125</LatitudeDegrees>
              <LongitudeDegrees>-5.568030215799808502197265625</LongitudeDegrees>
            </Position>
            <AltitudeMeters>703.4000244140625</AltitudeMeters>
            <DistanceMeters>NAN</DistanceMeters>
          </Trackpoint>
          <Trackpoint>
            <Time>2019-10-05T08:21:08.000Z</Time>
            <Position>
              <LatitudeDegrees>42.54328890703618526458740234375</LatitudeDegrees>
              <LongitudeDegrees>-5.5682389251887798309326171875</LongitudeDegrees>
            </Position>
            <AltitudeMeters>703.5999755859375</AltitudeMeters>
            <DistanceMeters>NAN</DistanceMeters>
          </Trackpoint>
          <Trackpoint>
            <Time>2019-10-05T08:21:09.000Z</Time>
            <Position>
              <LatitudeDegrees>42.54328739829361438751220703125</LatitudeDegrees>
              <LongitudeDegrees>-5.56831059046089649200439453125</LongitudeDegrees>
            </Position>
            <AltitudeMeters>703.20001220703125</AltitudeMeters>
            <DistanceMeters>NAN</DistanceMeters>
          </Trackpoint>
          <Trackpoint>
            <Time>2019-10-05T08:21:12.000Z</Time>
            <Position>
              <LatitudeDegrees>42.54325035028159618377685546875</LatitudeDegrees>
              <LongitudeDegrees>-5.568519718945026397705078125</LongitudeDegrees>
            </Position>
            <AltitudeMeters>704</AltitudeMeters>
            <DistanceMeters>NAN</DistanceMeters>
          </Trackpoint>
          <Trackpoint>
            <Time>2019-10-05T08:21:14.000Z</Time>
            <Position>
              <LatitudeDegrees>42.54322067834436893463134765625</LatitudeDegrees>
              <LongitudeDegrees>-5.56865894235670566558837890625</LongitudeDegrees>
            </Position>
            <AltitudeMeters>704</AltitudeMeters>
            <DistanceMeters>NAN</DistanceMeters>
          </Trackpoint>
          <Trackpoint>
            <Time>2019-10-05T08:21:18.000Z</Time>
            <Position>
              <LatitudeDegrees>42.5431617535650730133056640625</LatitudeDegrees>
              <LongitudeDegrees>-5.5689418315887451171875</LongitudeDegrees>
            </Position>
            <AltitudeMeters>704</AltitudeMeters>
            <DistanceMeters>NAN</DistanceMeters>
          </Trackpoint>
          <Trackpoint>
            <Time>2019-10-05T08:21:23.000Z</Time>
            <Position>
              <LatitudeDegrees>42.54310148768126964569091796875</LatitudeDegrees>
              <LongitudeDegrees>-5.56930116377770900726318359375</LongitudeDegrees>
            </Position>
            <AltitudeMeters>704.20001220703125</AltitudeMeters>
            <DistanceMeters>NAN</DistanceMeters>
          </Trackpoint>
          <Trackpoint>
            <Time>2019-10-05T08:21:29.000Z</Time>
            <Position>
              <LatitudeDegrees>42.5430470891296863555908203125</LatitudeDegrees>
              <LongitudeDegrees>-5.56973014958202838897705078125</LongitudeDegrees>
            </Position>
            <AltitudeMeters>704</AltitudeMeters>
            <DistanceMeters>NAN</DistanceMeters>
          </Trackpoint>
          <Trackpoint>
            <Time>2019-10-05T08:21:33.000Z</Time>
            <Position>
              <LatitudeDegrees>42.54300677217543125152587890625</LatitudeDegrees>
              <LongitudeDegrees>-5.569976828992366790771484375</LongitudeDegrees>
            </Position>
            <AltitudeMeters>705.5999755859375</AltitudeMeters>
            <DistanceMeters>NAN</DistanceMeters>
          </Trackpoint>
          <Trackpoint>
            <Time>2019-10-05T08:21:35.000Z</Time>
            <Position>
              <LatitudeDegrees>42.54298564977943897247314453125</LatitudeDegrees>
              <LongitudeDegrees>-5.57007372379302978515625</LongitudeDegrees>
            </Position>
            <AltitudeMeters>705.4000244140625</AltitudeMeters>
            <DistanceMeters>NAN</DistanceMeters>
          </Trackpoint>
          <Trackpoint>
            <Time>2019-10-05T08:21:38.000Z</Time>
            <Position>
              <LatitudeDegrees>42.5429649464786052703857421875</LatitudeDegrees>
              <LongitudeDegrees>-5.57020707987248897552490234375</LongitudeDegrees>
            </Position>
            <AltitudeMeters>706.4000244140625</AltitudeMeters>
            <DistanceMeters>NAN</DistanceMeters>
          </Trackpoint>
          <Trackpoint>
            <Time>2019-10-05T08:21:40.000Z</Time>
            <Position>
              <LatitudeDegrees>42.54295597784221172332763671875</LatitudeDegrees>
              <LongitudeDegrees>-5.570291317999362945556640625</LongitudeDegrees>
            </Position>
            <AltitudeMeters>706.79998779296875</AltitudeMeters>
            <DistanceMeters>NAN</DistanceMeters>
          </Trackpoint>
          <Trackpoint>
            <Time>2019-10-05T08:21:41.000Z</Time>
            <Position>
              <LatitudeDegrees>42.54294893704354763031005859375</LatitudeDegrees>
              <LongitudeDegrees>-5.5703327246010303497314453125</LongitudeDegrees>
            </Position>
            <AltitudeMeters>706.79998779296875</AltitudeMeters>
            <DistanceMeters>NAN</DistanceMeters>
          </Trackpoint>
          <Trackpoint>
            <Time>2019-10-05T08:21:44.000Z</Time>
            <Position>
              <LatitudeDegrees>42.54292982630431652069091796875</LatitudeDegrees>
              <LongitudeDegrees>-5.570456273853778839111328125</LongitudeDegrees>
            </Position>
            <AltitudeMeters>707.79998779296875</AltitudeMeters>
            <DistanceMeters>NAN</DistanceMeters>
          </Trackpoint>
          <Trackpoint>
            <Time>2019-10-05T08:21:49.000Z</Time>
            <Position>
              <LatitudeDegrees>42.5428928621113300323486328125</LatitudeDegrees>
              <LongitudeDegrees>-5.570656098425388336181640625</LongitudeDegrees>
            </Position>
            <AltitudeMeters>708.5999755859375</AltitudeMeters>
            <DistanceMeters>NAN</DistanceMeters>
          </Trackpoint>
          <Trackpoint>
            <Time>2019-10-05T08:21:50.000Z</Time>
            <Position>
              <LatitudeDegrees>42.54288640804588794708251953125</LatitudeDegrees>
              <LongitudeDegrees>-5.5706964991986751556396484375</LongitudeDegrees>
            </Position>
            <AltitudeMeters>708.5999755859375</AltitudeMeters>
            <DistanceMeters>NAN</DistanceMeters>
          </Trackpoint>
          <Trackpoint>
            <Time>2019-10-05T08:21:51.000Z</Time>
            <Position>
              <LatitudeDegrees>42.5428801216185092926025390625</LatitudeDegrees>
              <LongitudeDegrees>-5.570736564695835113525390625</LongitudeDegrees>
            </Position>
            <AltitudeMeters>708.79998779296875</AltitudeMeters>
            <DistanceMeters>NAN</DistanceMeters>
          </Trackpoint>
          <Trackpoint>
            <Time>2019-10-05T08:21:56.000Z</Time>
            <Position>
              <LatitudeDegrees>42.54284801892936229705810546875</LatitudeDegrees>
              <LongitudeDegrees>-5.57094074785709381103515625</LongitudeDegrees>
            </Position>
            <AltitudeMeters>710.20001220703125</AltitudeMeters>
            <DistanceMeters>NAN</DistanceMeters>
          </Trackpoint>
          <Trackpoint>
            <Time>2019-10-05T08:22:01.000Z</Time>
            <Position>
              <LatitudeDegrees>42.54281289875507354736328125</LatitudeDegrees>
              <LongitudeDegrees>-5.57113881222903728485107421875</LongitudeDegrees>
            </Position>
            <AltitudeMeters>710.5999755859375</AltitudeMeters>
            <DistanceMeters>NAN</DistanceMeters>
          </Trackpoint>
          <Trackpoint>
            <Time>2019-10-05T08:22:04.000Z</Time>
            <Position>
              <LatitudeDegrees>42.54278783686459064483642578125</LatitudeDegrees>
              <LongitudeDegrees>-5.57125733233988285064697265625</LongitudeDegrees>
            </Position>
            <AltitudeMeters>711.4000244140625</AltitudeMeters>
            <DistanceMeters>NAN</DistanceMeters>
          </Trackpoint>
          <Trackpoint>
            <Time>2019-10-05T08:22:10.000Z</Time>
            <Position>
              <LatitudeDegrees>42.5427289120852947235107421875</LatitudeDegrees>
              <LongitudeDegrees>-5.5714964680373668670654296875</LongitudeDegrees>
            </Position>
            <AltitudeMeters>712</AltitudeMeters>
            <DistanceMeters>NAN</DistanceMeters>
          </Trackpoint>
          <Trackpoint>
            <Time>2019-10-05T08:22:15.000Z</Time>
            <Position>
              <LatitudeDegrees>42.5426782853901386260986328125</LatitudeDegrees>
              <LongitudeDegrees>-5.57173669338226318359375</LongitudeDegrees>
            </Position>
            <AltitudeMeters>712.4000244140625</AltitudeMeters>
            <DistanceMeters>NAN</DistanceMeters>
          </Trackpoint>
          <Trackpoint>
            <Time>2019-10-05T08:22:16.000Z</Time>
            <Position>
              <LatitudeDegrees>42.54267275333404541015625</LatitudeDegrees>
              <LongitudeDegrees>-5.57176795788109302520751953125</LongitudeDegrees>
            </Position>
            <AltitudeMeters>717.20001220703125</AltitudeMeters>
            <DistanceMeters>NAN</DistanceMeters>
          </Trackpoint>
          <Trackpoint>
            <Time>2019-10-05T08:22:17.000Z</Time>
            <Position>
              <LatitudeDegrees>42.54266378469765186309814453125</LatitudeDegrees>
              <LongitudeDegrees>-5.5718153156340122222900390625</LongitudeDegrees>
            </Position>
            <AltitudeMeters>713</AltitudeMeters>
            <DistanceMeters>NAN</DistanceMeters>
          </Trackpoint>
          <Trackpoint>
            <Time>2019-10-05T08:22:19.000Z</Time>
            <Position>
              <LatitudeDegrees>42.54264752380549907684326171875</LatitudeDegrees>
              <LongitudeDegrees>-5.5719085223972797393798828125</LongitudeDegrees>
            </Position>
            <AltitudeMeters>713.5999755859375</AltitudeMeters>
            <DistanceMeters>NAN</DistanceMeters>
          </Trackpoint>
          <Trackpoint>
            <Time>2019-10-05T08:22:28.000Z</Time>
            <Position>
              <LatitudeDegrees>42.54256169311702251434326171875</LatitudeDegrees>
              <LongitudeDegrees>-5.572340190410614013671875</LongitudeDegrees>
            </Position>
            <AltitudeMeters>713.4000244140625</AltitudeMeters>
            <DistanceMeters>NAN</DistanceMeters>
          </Trackpoint>
          <Trackpoint>
            <Time>2019-10-05T08:22:35.000Z</Time>
            <Position>
              <LatitudeDegrees>42.54248960874974727630615234375</LatitudeDegrees>
              <LongitudeDegrees>-5.57269231416285037994384765625</LongitudeDegrees>
            </Position>
            <AltitudeMeters>712.79998779296875</AltitudeMeters>
            <DistanceMeters>NAN</DistanceMeters>
          </Trackpoint>
          <Trackpoint>
            <Time>2019-10-05T08:22:37.000Z</Time>
            <Position>
              <LatitudeDegrees>42.5424905307590961456298828125</LatitudeDegrees>
              <LongitudeDegrees>-5.57280345819890499114990234375</LongitudeDegrees>
            </Position>
            <AltitudeMeters>712.4000244140625</AltitudeMeters>
            <DistanceMeters>NAN</DistanceMeters>
          </Trackpoint>
          <Trackpoint>
            <Time>2019-10-05T08:22:40.000Z</Time>
            <Position>
              <LatitudeDegrees>42.54253529012203216552734375</LatitudeDegrees>
              <LongitudeDegrees>-5.57296707294881343841552734375</LongitudeDegrees>
            </Position>
            <AltitudeMeters>712.20001220703125</AltitudeMeters>
            <DistanceMeters>NAN</DistanceMeters>
          </Trackpoint>
          <Trackpoint>
            <Time>2019-10-05T08:22:41.000Z</Time>
            <Position>
              <LatitudeDegrees>42.5425656326115131378173828125</LatitudeDegrees>
              <LongitudeDegrees>-5.5730147659778594970703125</LongitudeDegrees>
            </Position>
            <AltitudeMeters>712</AltitudeMeters>
            <DistanceMeters>NAN</DistanceMeters>
          </Trackpoint>
          <Trackpoint>
            <Time>2019-10-05T08:22:43.000Z</Time>
            <Position>
              <LatitudeDegrees>42.54264257848262786865234375</LatitudeDegrees>
              <LongitudeDegrees>-5.57309196330606937408447265625</LongitudeDegrees>
            </Position>
            <AltitudeMeters>711.4000244140625</AltitudeMeters>
            <DistanceMeters>NAN</DistanceMeters>
          </Trackpoint>
          <Trackpoint>
            <Time>2019-10-05T08:22:44.000Z</Time>
            <Position>
              <LatitudeDegrees>42.54268742166459560394287109375</LatitudeDegrees>
              <LongitudeDegrees>-5.57312364690005779266357421875</LongitudeDegrees>
            </Position>
            <AltitudeMeters>711</AltitudeMeters>
            <DistanceMeters>NAN</DistanceMeters>
          </Trackpoint>
          <Trackpoint>
            <Time>2019-10-05T08:22:45.000Z</Time>
            <Position>
              <LatitudeDegrees>42.54273570142686367034912109375</LatitudeDegrees>
              <LongitudeDegrees>-5.5731497146189212799072265625</LongitudeDegrees>
            </Position>
            <AltitudeMeters>710.5999755859375</AltitudeMeters>
            <DistanceMeters>NAN</DistanceMeters>
          </Trackpoint>
          <Trackpoint>
            <Time>2019-10-05T08:22:49.000Z</Time>
            <Position>
              <LatitudeDegrees>42.542946003377437591552734375</LatitudeDegrees>
              <LongitudeDegrees>-5.573272593319416046142578125</LongitudeDegrees>
            </Position>
            <AltitudeMeters>709.4000244140625</AltitudeMeters>
            <DistanceMeters>NAN</DistanceMeters>
          </Trackpoint>
          <Trackpoint>
            <Time>2019-10-05T08:22:50.000Z</Time>
            <Position>
              <LatitudeDegrees>42.5429988093674182891845703125</LatitudeDegrees>
              <LongitudeDegrees>-5.57331458665430545806884765625</LongitudeDegrees>
            </Position>
            <AltitudeMeters>709.4000244140625</AltitudeMeters>
            <DistanceMeters>NAN</DistanceMeters>
          </Trackpoint>
          <Trackpoint>
            <Time>2019-10-05T08:22:53.000Z</Time>
            <Position>
              <LatitudeDegrees>42.54313618876039981842041015625</LatitudeDegrees>
              <LongitudeDegrees>-5.573507957160472869873046875</LongitudeDegrees>
            </Position>
            <AltitudeMeters>708.4000244140625</AltitudeMeters>
            <DistanceMeters>NAN</DistanceMeters>
          </Trackpoint>
          <Trackpoint>
            <Time>2019-10-05T08:22:56.000Z</Time>
            <Position>
              <LatitudeDegrees>42.54320156760513782501220703125</LatitudeDegrees>
              <LongitudeDegrees>-5.573782883584499359130859375</LongitudeDegrees>
            </Position>
            <AltitudeMeters>707</AltitudeMeters>
            <DistanceMeters>NAN</DistanceMeters>
          </Trackpoint>
          <Trackpoint>
            <Time>2019-10-05T08:22:59.000Z</Time>
            <Position>
              <LatitudeDegrees>42.5431902520358562469482421875</LatitudeDegrees>
              <LongitudeDegrees>-5.57410181500017642974853515625</LongitudeDegrees>
            </Position>
            <AltitudeMeters>705.5999755859375</AltitudeMeters>
            <DistanceMeters>NAN</DistanceMeters>
          </Trackpoint>
          <Trackpoint>
            <Time>2019-10-05T08:23:00.000Z</Time>
            <Position>
              <LatitudeDegrees>42.54317373968660831451416015625</LatitudeDegrees>
              <LongitudeDegrees>-5.574208684265613555908203125</LongitudeDegrees>
            </Position>
            <AltitudeMeters>705.20001220703125</AltitudeMeters>
            <DistanceMeters>NAN</DistanceMeters>
          </Trackpoint>
          <Trackpoint>
            <Time>2019-10-05T08:23:02.000Z</Time>
            <Position>
              <LatitudeDegrees>42.54312395118176937103271484375</LatitudeDegrees>
              <LongitudeDegrees>-5.57442351244390010833740234375</LongitudeDegrees>
            </Position>
            <AltitudeMeters>704</AltitudeMeters>
            <DistanceMeters>NAN</DistanceMeters>
          </Trackpoint>
          <Trackpoint>
            <Time>2019-10-05T08:23:05.000Z</Time>
            <Position>
              <LatitudeDegrees>42.543040215969085693359375</LatitudeDegrees>
              <LongitudeDegrees>-5.57473565451800823211669921875</LongitudeDegrees>
            </Position>
            <AltitudeMeters>703.5999755859375</AltitudeMeters>
            <DistanceMeters>NAN</DistanceMeters>
          </Trackpoint>
          <Trackpoint>
            <Time>2019-10-05T08:23:09.000Z</Time>
            <Position>
              <LatitudeDegrees>42.5429344363510608673095703125</LatitudeDegrees>
              <LongitudeDegrees>-5.5751251615583896636962890625</LongitudeDegrees>
            </Position>
            <AltitudeMeters>703</AltitudeMeters>
            <DistanceMeters>NAN</DistanceMeters>
          </Trackpoint>
          <Trackpoint>
            <Time>2019-10-05T08:23:12.000Z</Time>
            <Position>
              <LatitudeDegrees>42.5428690575063228607177734375</LatitudeDegrees>
              <LongitudeDegrees>-5.57537603192031383514404296875</LongitudeDegrees>
            </Position>
            <AltitudeMeters>704</AltitudeMeters>
            <DistanceMeters>NAN</DistanceMeters>
          </Trackpoint>
          <Trackpoint>
            <Time>2019-10-05T08:23:13.000Z</Time>
            <Position>
              <LatitudeDegrees>42.5428335182368755340576171875</LatitudeDegrees>
              <LongitudeDegrees>-5.57541995309293270111083984375</LongitudeDegrees>
            </Position>
            <AltitudeMeters>704.20001220703125</AltitudeMeters>
            <DistanceMeters>NAN</DistanceMeters>
          </Trackpoint>
          <Trackpoint>
            <Time>2019-10-05T08:23:14.000Z</Time>
            <Position>
              <LatitudeDegrees>42.542790435254573822021484375</LatitudeDegrees>
              <LongitudeDegrees>-5.57544258423149585723876953125</LongitudeDegrees>
            </Position>
            <AltitudeMeters>704.4000244140625</AltitudeMeters>
            <DistanceMeters>NAN</DistanceMeters>
          </Trackpoint>
          <Trackpoint>
            <Time>2019-10-05T08:23:15.000Z</Time>
            <Position>
              <LatitudeDegrees>42.54274450242519378662109375</LatitudeDegrees>
              <LongitudeDegrees>-5.575451888144016265869140625</LongitudeDegrees>
            </Position>
            <AltitudeMeters>704.4000244140625</AltitudeMeters>
            <DistanceMeters>NAN</DistanceMeters>
          </Trackpoint>
          <Trackpoint>
            <Time>2019-10-05T08:23:19.000Z</Time>
            <Position>
              <LatitudeDegrees>42.54255884326994419097900390625</LatitudeDegrees>
              <LongitudeDegrees>-5.575398243963718414306640625</LongitudeDegrees>
            </Position>
            <AltitudeMeters>704.5999755859375</AltitudeMeters>
            <DistanceMeters>NAN</DistanceMeters>
          </Trackpoint>
          <Trackpoint>
            <Time>2019-10-05T08:23:20.000Z</Time>
            <Position>
              <LatitudeDegrees>42.5425143353641033172607421875</LatitudeDegrees>
              <LongitudeDegrees>-5.5753732658922672271728515625</LongitudeDegrees>
            </Position>
            <AltitudeMeters>704.4000244140625</AltitudeMeters>
            <DistanceMeters>NAN</DistanceMeters>
          </Trackpoint>
          <Trackpoint>
            <Time>2019-10-05T08:23:27.000Z</Time>
            <Position>
              <LatitudeDegrees>42.54219305701553821563720703125</LatitudeDegrees>
              <LongitudeDegrees>-5.57519095949828624725341796875</LongitudeDegrees>
            </Position>
            <AltitudeMeters>704.5999755859375</AltitudeMeters>
            <DistanceMeters>NAN</DistanceMeters>
          </Trackpoint>
          <Trackpoint>
            <Time>2019-10-05T08:23:33.000Z</Time>
            <Position>
              <LatitudeDegrees>42.5419078208506107330322265625</LatitudeDegrees>
              <LongitudeDegrees>-5.57505517266690731048583984375</LongitudeDegrees>
            </Position>
            <AltitudeMeters>704</AltitudeMeters>
            <DistanceMeters>NAN</DistanceMeters>
          </Trackpoint>
          <Trackpoint>
            <Time>2019-10-05T08:23:35.000Z</Time>
            <Position>
              <LatitudeDegrees>42.5418126024305820465087890625</LatitudeDegrees>
              <LongitudeDegrees>-5.5750161968171596527099609375</LongitudeDegrees>
            </Position>
            <AltitudeMeters>703.79998779296875</AltitudeMeters>
            <DistanceMeters>NAN</DistanceMeters>
          </Trackpoint>
          <Trackpoint>
            <Time>2019-10-05T08:23:44.000Z</Time>
            <Position>
              <LatitudeDegrees>42.541390992701053619384765625</LatitudeDegrees>
              <LongitudeDegrees>-5.574824251234531402587890625</LongitudeDegrees>
            </Position>
            <AltitudeMeters>703.4000244140625</AltitudeMeters>
            <DistanceMeters>NAN</DistanceMeters>
          </Trackpoint>
          <Trackpoint>
            <Time>2019-10-05T08:23:50.000Z</Time>
            <Position>
              <LatitudeDegrees>42.541109025478363037109375</LatitudeDegrees>
              <LongitudeDegrees>-5.5747198127210140228271484375</LongitudeDegrees>
            </Position>
            <AltitudeMeters>704</AltitudeMeters>
            <DistanceMeters>NAN</DistanceMeters>
          </Trackpoint>
          <Trackpoint>
            <Time>2019-10-05T08:23:51.000Z</Time>
            <Position>
              <LatitudeDegrees>42.541059069335460662841796875</LatitudeDegrees>
              <LongitudeDegrees>-5.5747181363403797149658203125</LongitudeDegrees>
            </Position>
            <AltitudeMeters>703.79998779296875</AltitudeMeters>
            <DistanceMeters>NAN</DistanceMeters>
          </Trackpoint>
          <Trackpoint>
            <Time>2019-10-05T08:23:59.000Z</Time>
            <Position>
              <LatitudeDegrees>42.54065665416419506072998046875</LatitudeDegrees>
              <LongitudeDegrees>-5.5747355706989765167236328125</LongitudeDegrees>
            </Position>
            <AltitudeMeters>703.79998779296875</AltitudeMeters>
            <DistanceMeters>NAN</DistanceMeters>
          </Trackpoint>
          <Trackpoint>
            <Time>2019-10-05T08:24:07.000Z</Time>
            <Position>
              <LatitudeDegrees>42.54025884903967380523681640625</LatitudeDegrees>
              <LongitudeDegrees>-5.5747499875724315643310546875</LongitudeDegrees>
            </Position>
            <AltitudeMeters>703.4000244140625</AltitudeMeters>
            <DistanceMeters>NAN</DistanceMeters>
          </Trackpoint>
          <Trackpoint>
            <Time>2019-10-05T08:24:08.000Z</Time>
            <Position>
              <LatitudeDegrees>42.5402109883725643157958984375</LatitudeDegrees>
              <LongitudeDegrees>-5.5747483111917972564697265625</LongitudeDegrees>
            </Position>
            <AltitudeMeters>703.4000244140625</AltitudeMeters>
            <DistanceMeters>NAN</DistanceMeters>
          </Trackpoint>
          <Trackpoint>
            <Time>2019-10-05T08:24:16.000Z</Time>
            <Position>
              <LatitudeDegrees>42.5398210622370243072509765625</LatitudeDegrees>
              <LongitudeDegrees>-5.574771277606487274169921875</LongitudeDegrees>
            </Position>
            <AltitudeMeters>703.79998779296875</AltitudeMeters>
            <DistanceMeters>NAN</DistanceMeters>
          </Trackpoint>
          <Trackpoint>
            <Time>2019-10-05T08:24:22.000Z</Time>
            <Position>
              <LatitudeDegrees>42.53948964178562164306640625</LatitudeDegrees>
              <LongitudeDegrees>-5.574785359203815460205078125</LongitudeDegrees>
            </Position>
            <AltitudeMeters>703.4000244140625</AltitudeMeters>
            <DistanceMeters>NAN</DistanceMeters>
          </Trackpoint>
          <Trackpoint>
            <Time>2019-10-05T08:24:30.000Z</Time>
            <Position>
              <LatitudeDegrees>42.539161741733551025390625</LatitudeDegrees>
              <LongitudeDegrees>-5.5748103372752666473388671875</LongitudeDegrees>
            </Position>
            <AltitudeMeters>702.79998779296875</AltitudeMeters>
            <DistanceMeters>NAN</DistanceMeters>
          </Trackpoint>
          <Trackpoint>
            <Time>2019-10-05T08:24:31.000Z</Time>
            <Position>
              <LatitudeDegrees>42.5391129590570926666259765625</LatitudeDegrees>
              <LongitudeDegrees>-5.57481545023620128631591796875</LongitudeDegrees>
            </Position>
            <AltitudeMeters>702.79998779296875</AltitudeMeters>
            <DistanceMeters>NAN</DistanceMeters>
          </Trackpoint>
          <Trackpoint>
            <Time>2019-10-05T08:24:34.000Z</Time>
            <Position>
              <LatitudeDegrees>42.53896929323673248291015625</LatitudeDegrees>
              <LongitudeDegrees>-5.57483875192701816558837890625</LongitudeDegrees>
            </Position>
            <AltitudeMeters>703.20001220703125</AltitudeMeters>
            <DistanceMeters>NAN</DistanceMeters>
          </Trackpoint>
          <Trackpoint>
            <Time>2019-10-05T08:24:37.000Z</Time>
            <Position>
              <LatitudeDegrees>42.53882621414959430694580078125</LatitudeDegrees>
              <LongitudeDegrees>-5.57487823069095611572265625</LongitudeDegrees>
            </Position>
            <AltitudeMeters>703.4000244140625</AltitudeMeters>
            <DistanceMeters>NAN</DistanceMeters>
          </Trackpoint>
          <Trackpoint>
            <Time>2019-10-05T08:24:38.000Z</Time>
            <Position>
              <LatitudeDegrees>42.53878044895827770233154296875</LatitudeDegrees>
              <LongitudeDegrees>-5.574893988668918609619140625</LongitudeDegrees>
            </Position>
            <AltitudeMeters>703.4000244140625</AltitudeMeters>
            <DistanceMeters>NAN</DistanceMeters>
          </Trackpoint>
          <Trackpoint>
            <Time>2019-10-05T08:24:42.000Z</Time>
            <Position>
              <LatitudeDegrees>42.53860057331621646881103515625</LatitudeDegrees>
              <LongitudeDegrees>-5.57498686015605926513671875</LongitudeDegrees>
            </Position>
            <AltitudeMeters>704</AltitudeMeters>
            <DistanceMeters>NAN</DistanceMeters>
          </Trackpoint>
          <Trackpoint>
            <Time>2019-10-05T08:24:44.000Z</Time>
            <Position>
              <LatitudeDegrees>42.53851977176964282989501953125</LatitudeDegrees>
              <LongitudeDegrees>-5.5750564299523830413818359375</LongitudeDegrees>
            </Position>
            <AltitudeMeters>703.20001220703125</AltitudeMeters>
            <DistanceMeters>NAN</DistanceMeters>
          </Trackpoint>
          <Trackpoint>
            <Time>2019-10-05T08:24:49.000Z</Time>
            <Position>
              <LatitudeDegrees>42.53832430578768253326416015625</LatitudeDegrees>
              <LongitudeDegrees>-5.57524074800312519073486328125</LongitudeDegrees>
            </Position>
            <AltitudeMeters>703.5999755859375</AltitudeMeters>
            <DistanceMeters>NAN</DistanceMeters>
          </Trackpoint>
          <Trackpoint>
            <Time>2019-10-05T08:24:55.000Z</Time>
            <Position>
              <LatitudeDegrees>42.53811500966548919677734375</LatitudeDegrees>
              <LongitudeDegrees>-5.5755060352385044097900390625</LongitudeDegrees>
            </Position>
            <AltitudeMeters>703.79998779296875</AltitudeMeters>
            <DistanceMeters>NAN</DistanceMeters>
          </Trackpoint>
          <Trackpoint>
            <Time>2019-10-05T08:24:56.000Z</Time>
            <Position>
              <LatitudeDegrees>42.5380928814411163330078125</LatitudeDegrees>
              <LongitudeDegrees>-5.57556160725653171539306640625</LongitudeDegrees>
            </Position>
            <AltitudeMeters>704</AltitudeMeters>
            <DistanceMeters>NAN</DistanceMeters>
          </Trackpoint>
          <Trackpoint>
            <Time>2019-10-05T08:25:01.000Z</Time>
            <Position>
              <LatitudeDegrees>42.53799959085881710052490234375</LatitudeDegrees>
              <LongitudeDegrees>-5.57585145346820354461669921875</LongitudeDegrees>
            </Position>
            <AltitudeMeters>704.4000244140625</AltitudeMeters>
            <DistanceMeters>NAN</DistanceMeters>
          </Trackpoint>
          <Trackpoint>
            <Time>2019-10-05T08:25:02.000Z</Time>
            <Position>
              <LatitudeDegrees>42.53797352313995361328125</LatitudeDegrees>
              <LongitudeDegrees>-5.57590576820075511932373046875</LongitudeDegrees>
            </Position>
            <AltitudeMeters>704.20001220703125</AltitudeMeters>
            <DistanceMeters>NAN</DistanceMeters>
          </Trackpoint>
          <Trackpoint>
            <Time>2019-10-05T08:25:06.000Z</Time>
            <Position>
              <LatitudeDegrees>42.53781837411224842071533203125</LatitudeDegrees>
              <LongitudeDegrees>-5.57604725472629070281982421875</LongitudeDegrees>
            </Position>
            <AltitudeMeters>704.4000244140625</AltitudeMeters>
            <DistanceMeters>NAN</DistanceMeters>
          </Trackpoint>
          <Trackpoint>
            <Time>2019-10-05T08:25:10.000Z</Time>
            <Position>
              <LatitudeDegrees>42.53762609325349330902099609375</LatitudeDegrees>
              <LongitudeDegrees>-5.57601791806519031524658203125</LongitudeDegrees>
            </Position>
            <AltitudeMeters>703.20001220703125</AltitudeMeters>
            <DistanceMeters>NAN</DistanceMeters>
          </Trackpoint>
          <Trackpoint>
            <Time>2019-10-05T08:25:12.000Z</Time>
            <Position>
              <LatitudeDegrees>42.53753758035600185394287109375</LatitudeDegrees>
              <LongitudeDegrees>-5.57593376375734806060791015625</LongitudeDegrees>
            </Position>
            <AltitudeMeters>703</AltitudeMeters>
            <DistanceMeters>NAN</DistanceMeters>
          </Trackpoint>
          <Trackpoint>
            <Time>2019-10-05T08:25:14.000Z</Time>
            <Position>
              <LatitudeDegrees>42.5374788232147693634033203125</LatitudeDegrees>
              <LongitudeDegrees>-5.575805604457855224609375</LongitudeDegrees>
            </Position>
            <AltitudeMeters>702.20001220703125</AltitudeMeters>
            <DistanceMeters>NAN</DistanceMeters>
          </Trackpoint>
          <Trackpoint>
            <Time>2019-10-05T08:25:16.000Z</Time>
            <Position>
              <LatitudeDegrees>42.53745610825717449188232421875</LatitudeDegrees>
              <LongitudeDegrees>-5.575655400753021240234375</LongitudeDegrees>
            </Position>
            <AltitudeMeters>701.79998779296875</AltitudeMeters>
            <DistanceMeters>NAN</DistanceMeters>
          </Trackpoint>
          <Trackpoint>
            <Time>2019-10-05T08:25:17.000Z</Time>
            <Position>
              <LatitudeDegrees>42.5374623946845531463623046875</LatitudeDegrees>
              <LongitudeDegrees>-5.57557904161512851715087890625</LongitudeDegrees>
            </Position>
            <AltitudeMeters>701.5999755859375</AltitudeMeters>
            <DistanceMeters>NAN</DistanceMeters>
          </Trackpoint>
          <Trackpoint>
            <Time>2019-10-05T08:25:18.000Z</Time>
            <Position>
              <LatitudeDegrees>42.537483684718608856201171875</LatitudeDegrees>
              <LongitudeDegrees>-5.5755117349326610565185546875</LongitudeDegrees>
            </Position>
            <AltitudeMeters>700.79998779296875</AltitudeMeters>
            <DistanceMeters>NAN</DistanceMeters>
          </Trackpoint>
          <Trackpoint>
            <Time>2019-10-05T08:25:20.000Z</Time>
            <Position>
              <LatitudeDegrees>42.53755400888621807098388671875</LatitudeDegrees>
              <LongitudeDegrees>-5.575404949486255645751953125</LongitudeDegrees>
            </Position>
            <AltitudeMeters>701.4000244140625</AltitudeMeters>
            <DistanceMeters>NAN</DistanceMeters>
          </Trackpoint>
          <Trackpoint>
            <Time>2019-10-05T08:25:21.000Z</Time>
            <Position>
              <LatitudeDegrees>42.53759591840207576751708984375</LatitudeDegrees>
              <LongitudeDegrees>-5.5753638781607151031494140625</LongitudeDegrees>
            </Position>
            <AltitudeMeters>701.79998779296875</AltitudeMeters>
            <DistanceMeters>NAN</DistanceMeters>
          </Trackpoint>
          <Trackpoint>
            <Time>2019-10-05T08:25:24.000Z</Time>
            <Position>
              <LatitudeDegrees>42.5377369858324527740478515625</LatitudeDegrees>
              <LongitudeDegrees>-5.57533378712832927703857421875</LongitudeDegrees>
            </Position>
            <AltitudeMeters>701.5999755859375</AltitudeMeters>
            <DistanceMeters>NAN</DistanceMeters>
          </Trackpoint>
          <Trackpoint>
            <Time>2019-10-05T08:25:28.000Z</Time>
            <Position>
              <LatitudeDegrees>42.53790202550590038299560546875</LatitudeDegrees>
              <LongitudeDegrees>-5.57542431168258190155029296875</LongitudeDegrees>
            </Position>
            <AltitudeMeters>702.79998779296875</AltitudeMeters>
            <DistanceMeters>NAN</DistanceMeters>
          </Trackpoint>
          <Trackpoint>
            <Time>2019-10-05T08:25:29.000Z</Time>
            <Position>
              <LatitudeDegrees>42.53793127834796905517578125</LatitudeDegrees>
              <LongitudeDegrees>-5.57546471245586872100830078125</LongitudeDegrees>
            </Position>
            <AltitudeMeters>703.20001220703125</AltitudeMeters>
            <DistanceMeters>NAN</DistanceMeters>
          </Trackpoint>
          <Trackpoint>
            <Time>2019-10-05T08:25:33.000Z</Time>
            <Position>
              <LatitudeDegrees>42.5379881076514720916748046875</LatitudeDegrees>
              <LongitudeDegrees>-5.57566604577004909515380859375</LongitudeDegrees>
            </Position>
            <AltitudeMeters>704</AltitudeMeters>
            <DistanceMeters>NAN</DistanceMeters>
          </Trackpoint>
          <Trackpoint>
            <Time>2019-10-05T08:25:36.000Z</Time>
            <Position>
              <LatitudeDegrees>42.5379673205316066741943359375</LatitudeDegrees>
              <LongitudeDegrees>-5.57582915760576725006103515625</LongitudeDegrees>
            </Position>
            <AltitudeMeters>704.79998779296875</AltitudeMeters>
            <DistanceMeters>NAN</DistanceMeters>
          </Trackpoint>
          <Trackpoint>
            <Time>2019-10-05T08:25:37.000Z</Time>
            <Position>
              <LatitudeDegrees>42.53795407712459564208984375</LatitudeDegrees>
              <LongitudeDegrees>-5.5758825503289699554443359375</LongitudeDegrees>
            </Position>
            <AltitudeMeters>704.5999755859375</AltitudeMeters>
            <DistanceMeters>NAN</DistanceMeters>
          </Trackpoint>
          <Trackpoint>
            <Time>2019-10-05T08:25:38.000Z</Time>
            <Position>
              <LatitudeDegrees>42.53793521784245967864990234375</LatitudeDegrees>
              <LongitudeDegrees>-5.57593393139541149139404296875</LongitudeDegrees>
            </Position>
            <AltitudeMeters>704.5999755859375</AltitudeMeters>
            <DistanceMeters>NAN</DistanceMeters>
          </Trackpoint>
          <Trackpoint>
            <Time>2019-10-05T08:25:43.000Z</Time>
            <Position>
              <LatitudeDegrees>42.53781686536967754364013671875</LatitudeDegrees>
              <LongitudeDegrees>-5.576208941638469696044921875</LongitudeDegrees>
            </Position>
            <AltitudeMeters>703.79998779296875</AltitudeMeters>
            <DistanceMeters>NAN</DistanceMeters>
          </Trackpoint>
          <Trackpoint>
            <Time>2019-10-05T08:25:44.000Z</Time>
            <Position>
              <LatitudeDegrees>42.53779582679271697998046875</LatitudeDegrees>
              <LongitudeDegrees>-5.57626895606517791748046875</LongitudeDegrees>
            </Position>
            <AltitudeMeters>704</AltitudeMeters>
            <DistanceMeters>NAN</DistanceMeters>
          </Trackpoint>
          <Trackpoint>
            <Time>2019-10-05T08:25:52.000Z</Time>
            <Position>
              <LatitudeDegrees>42.53760161809623241424560546875</LatitudeDegrees>
              <LongitudeDegrees>-5.57672233320772647857666015625</LongitudeDegrees>
            </Position>
            <AltitudeMeters>703.5999755859375</AltitudeMeters>
            <DistanceMeters>NAN</DistanceMeters>
          </Trackpoint>
          <Trackpoint>
            <Time>2019-10-05T08:25:57.000Z</Time>
            <Position>
              <LatitudeDegrees>42.53747153095901012420654296875</LatitudeDegrees>
              <LongitudeDegrees>-5.57698317803442478179931640625</LongitudeDegrees>
            </Position>
            <AltitudeMeters>703.79998779296875</AltitudeMeters>
            <DistanceMeters>NAN</DistanceMeters>
          </Trackpoint>
          <Trackpoint>
            <Time>2019-10-05T08:25:58.000Z</Time>
            <Position>
              <LatitudeDegrees>42.537450492382049560546875</LatitudeDegrees>
              <LongitudeDegrees>-5.5770412646234035491943359375</LongitudeDegrees>
            </Position>
            <AltitudeMeters>703.79998779296875</AltitudeMeters>
            <DistanceMeters>NAN</DistanceMeters>
          </Trackpoint>
          <Trackpoint>
            <Time>2019-10-05T08:26:00.000Z</Time>
            <Position>
              <LatitudeDegrees>42.537420652806758880615234375</LatitudeDegrees>
              <LongitudeDegrees>-5.57716053910553455352783203125</LongitudeDegrees>
            </Position>
            <AltitudeMeters>704.20001220703125</AltitudeMeters>
            <DistanceMeters>NAN</DistanceMeters>
          </Trackpoint>
          <Trackpoint>
            <Time>2019-10-05T08:26:03.000Z</Time>
            <Position>
              <LatitudeDegrees>42.5374060682952404022216796875</LatitudeDegrees>
              <LongitudeDegrees>-5.57735047303140163421630859375</LongitudeDegrees>
            </Position>
            <AltitudeMeters>704.4000244140625</AltitudeMeters>
            <DistanceMeters>NAN</DistanceMeters>
          </Trackpoint>
          <Trackpoint>
            <Time>2019-10-05T08:26:09.000Z</Time>
            <Position>
              <LatitudeDegrees>42.537420652806758880615234375</LatitudeDegrees>
              <LongitudeDegrees>-5.57772765867412090301513671875</LongitudeDegrees>
            </Position>
            <AltitudeMeters>704.20001220703125</AltitudeMeters>
            <DistanceMeters>NAN</DistanceMeters>
          </Trackpoint>
          <Trackpoint>
            <Time>2019-10-05T08:26:14.000Z</Time>
            <Position>
              <LatitudeDegrees>42.53747840411961078643798828125</LatitudeDegrees>
              <LongitudeDegrees>-5.57801767252385616302490234375</LongitudeDegrees>
            </Position>
            <AltitudeMeters>704.79998779296875</AltitudeMeters>
            <DistanceMeters>NAN</DistanceMeters>
          </Trackpoint>
          <Trackpoint>
            <Time>2019-10-05T08:26:16.000Z</Time>
            <Position>
              <LatitudeDegrees>42.53751059062778949737548828125</LatitudeDegrees>
              <LongitudeDegrees>-5.57811968028545379638671875</LongitudeDegrees>
            </Position>
            <AltitudeMeters>705</AltitudeMeters>
            <DistanceMeters>NAN</DistanceMeters>
          </Trackpoint>
          <Trackpoint>
            <Time>2019-10-05T08:26:17.000Z</Time>
            <Position>
              <LatitudeDegrees>42.53752735443413257598876953125</LatitudeDegrees>
              <LongitudeDegrees>-5.57816754095256328582763671875</LongitudeDegrees>
            </Position>
            <AltitudeMeters>705.4000244140625</AltitudeMeters>
            <DistanceMeters>NAN</DistanceMeters>
          </Trackpoint>
          <Trackpoint>
            <Time>2019-10-05T08:26:26.000Z</Time>
            <Position>
              <LatitudeDegrees>42.53769314847886562347412109375</LatitudeDegrees>
              <LongitudeDegrees>-5.5786153860390186309814453125</LongitudeDegrees>
            </Position>
            <AltitudeMeters>706</AltitudeMeters>
            <DistanceMeters>NAN</DistanceMeters>
          </Trackpoint>
          <Trackpoint>
            <Time>2019-10-05T08:26:27.000Z</Time>
            <Position>
              <LatitudeDegrees>42.53771133720874786376953125</LatitudeDegrees>
              <LongitudeDegrees>-5.5786670185625553131103515625</LongitudeDegrees>
            </Position>
            <AltitudeMeters>706.20001220703125</AltitudeMeters>
            <DistanceMeters>NAN</DistanceMeters>
          </Trackpoint>
          <Trackpoint>
            <Time>2019-10-05T08:26:33.000Z</Time>
            <Position>
              <LatitudeDegrees>42.5378087349236011505126953125</LatitudeDegrees>
              <LongitudeDegrees>-5.57897555641829967498779296875</LongitudeDegrees>
            </Position>
            <AltitudeMeters>706.5999755859375</AltitudeMeters>
            <DistanceMeters>NAN</DistanceMeters>
          </Trackpoint>
          <Trackpoint>
            <Time>2019-10-05T08:26:34.000Z</Time>
            <Position>
              <LatitudeDegrees>42.537824995815753936767578125</LatitudeDegrees>
              <LongitudeDegrees>-5.57902718894183635711669921875</LongitudeDegrees>
            </Position>
            <AltitudeMeters>706.79998779296875</AltitudeMeters>
            <DistanceMeters>NAN</DistanceMeters>
          </Trackpoint>
          <Trackpoint>
            <Time>2019-10-05T08:26:38.000Z</Time>
            <Position>
              <LatitudeDegrees>42.53788760863244533538818359375</LatitudeDegrees>
              <LongitudeDegrees>-5.5792321264743804931640625</LongitudeDegrees>
            </Position>
            <AltitudeMeters>707.20001220703125</AltitudeMeters>
            <DistanceMeters>NAN</DistanceMeters>
          </Trackpoint>
          <Trackpoint>
            <Time>2019-10-05T08:26:46.000Z</Time>
            <Position>
              <LatitudeDegrees>42.5380218029022216796875</LatitudeDegrees>
              <LongitudeDegrees>-5.57964292354881763458251953125</LongitudeDegrees>
            </Position>
            <AltitudeMeters>707.5999755859375</AltitudeMeters>
            <DistanceMeters>NAN</DistanceMeters>
          </Trackpoint>
          <Trackpoint>
            <Time>2019-10-05T08:26:53.000Z</Time>
            <Position>
              <LatitudeDegrees>42.5381423346698284149169921875</LatitudeDegrees>
              <LongitudeDegrees>-5.5800071172416210174560546875</LongitudeDegrees>
            </Position>
            <AltitudeMeters>708.4000244140625</AltitudeMeters>
            <DistanceMeters>NAN</DistanceMeters>
          </Trackpoint>
          <Trackpoint>
            <Time>2019-10-05T08:26:57.000Z</Time>
            <Position>
              <LatitudeDegrees>42.53820545040071010589599609375</LatitudeDegrees>
              <LongitudeDegrees>-5.58021674863994121551513671875</LongitudeDegrees>
            </Position>
            <AltitudeMeters>708.5999755859375</AltitudeMeters>
            <DistanceMeters>NAN</DistanceMeters>
          </Trackpoint>
          <Trackpoint>
            <Time>2019-10-05T08:27:09.000Z</Time>
            <Position>
              <LatitudeDegrees>42.5384055264294147491455078125</LatitudeDegrees>
              <LongitudeDegrees>-5.5808429606258869171142578125</LongitudeDegrees>
            </Position>
            <AltitudeMeters>709.5999755859375</AltitudeMeters>
            <DistanceMeters>NAN</DistanceMeters>
          </Trackpoint>
          <Trackpoint>
            <Time>2019-10-05T08:27:18.000Z</Time>
            <Position>
              <LatitudeDegrees>42.5385614298284053802490234375</LatitudeDegrees>
              <LongitudeDegrees>-5.58137026615440845489501953125</LongitudeDegrees>
            </Position>
            <AltitudeMeters>710.20001220703125</AltitudeMeters>
            <DistanceMeters>NAN</DistanceMeters>
          </Trackpoint>
          <Trackpoint>
            <Time>2019-10-05T08:27:25.000Z</Time>
            <Position>
              <LatitudeDegrees>42.53866494633257389068603515625</LatitudeDegrees>
              <LongitudeDegrees>-5.581694729626178741455078125</LongitudeDegrees>
            </Position>
            <AltitudeMeters>710.5999755859375</AltitudeMeters>
            <DistanceMeters>NAN</DistanceMeters>
          </Trackpoint>
          <Trackpoint>
            <Time>2019-10-05T08:27:31.000Z</Time>
            <Position>
              <LatitudeDegrees>42.53877474926412105560302734375</LatitudeDegrees>
              <LongitudeDegrees>-5.5820060335099697113037109375</LongitudeDegrees>
            </Position>
            <AltitudeMeters>711.20001220703125</AltitudeMeters>
            <DistanceMeters>NAN</DistanceMeters>
          </Trackpoint>
          <Trackpoint>
            <Time>2019-10-05T08:27:35.000Z</Time>
            <Position>
              <LatitudeDegrees>42.5388383679091930389404296875</LatitudeDegrees>
              <LongitudeDegrees>-5.58221130631864070892333984375</LongitudeDegrees>
            </Position>
            <AltitudeMeters>711.79998779296875</AltitudeMeters>
            <DistanceMeters>NAN</DistanceMeters>
          </Trackpoint>
          <Trackpoint>
            <Time>2019-10-05T08:27:39.000Z</Time>
            <Position>
              <LatitudeDegrees>42.53889377228915691375732421875</LatitudeDegrees>
              <LongitudeDegrees>-5.58242303319275379180908203125</LongitudeDegrees>
            </Position>
            <AltitudeMeters>711.4000244140625</AltitudeMeters>
            <DistanceMeters>NAN</DistanceMeters>
          </Trackpoint>
          <Trackpoint>
            <Time>2019-10-05T08:27:47.000Z</Time>
            <Position>
              <LatitudeDegrees>42.539045400917530059814453125</LatitudeDegrees>
              <LongitudeDegrees>-5.5828375183045864105224609375</LongitudeDegrees>
            </Position>
            <AltitudeMeters>712.4000244140625</AltitudeMeters>
            <DistanceMeters>NAN</DistanceMeters>
          </Trackpoint>
          <Trackpoint>
            <Time>2019-10-05T08:27:55.000Z</Time>
            <Position>
              <LatitudeDegrees>42.53919384442269802093505859375</LatitudeDegrees>
              <LongitudeDegrees>-5.58323507197201251983642578125</LongitudeDegrees>
            </Position>
            <AltitudeMeters>713.20001220703125</AltitudeMeters>
            <DistanceMeters>NAN</DistanceMeters>
          </Trackpoint>
          <Trackpoint>
            <Time>2019-10-05T08:27:57.000Z</Time>
            <Position>
              <LatitudeDegrees>42.53923541866242885589599609375</LatitudeDegrees>
              <LongitudeDegrees>-5.583332218229770660400390625</LongitudeDegrees>
            </Position>
            <AltitudeMeters>713.20001220703125</AltitudeMeters>
            <DistanceMeters>NAN</DistanceMeters>
          </Trackpoint>
          <Trackpoint>
            <Time>2019-10-05T08:28:01.000Z</Time>
            <Position>
              <LatitudeDegrees>42.53926995210349559783935546875</LatitudeDegrees>
              <LongitudeDegrees>-5.5835486389696598052978515625</LongitudeDegrees>
            </Position>
            <AltitudeMeters>713.4000244140625</AltitudeMeters>
            <DistanceMeters>NAN</DistanceMeters>
          </Trackpoint>
          <Trackpoint>
            <Time>2019-10-05T08:28:05.000Z</Time>
            <Position>
              <LatitudeDegrees>42.53918814472854137420654296875</LatitudeDegrees>
              <LongitudeDegrees>-5.58376028202474117279052734375</LongitudeDegrees>
            </Position>
            <AltitudeMeters>713.20001220703125</AltitudeMeters>
            <DistanceMeters>NAN</DistanceMeters>
          </Trackpoint>
          <Trackpoint>
            <Time>2019-10-05T08:28:09.000Z</Time>
            <Position>
              <LatitudeDegrees>42.53900818526744842529296875</LatitudeDegrees>
              <LongitudeDegrees>-5.5838249064981937408447265625</LongitudeDegrees>
            </Position>
            <AltitudeMeters>713.20001220703125</AltitudeMeters>
            <DistanceMeters>NAN</DistanceMeters>
          </Trackpoint>
          <Trackpoint>
            <Time>2019-10-05T08:28:12.000Z</Time>
            <Position>
              <LatitudeDegrees>42.53887952305376529693603515625</LatitudeDegrees>
              <LongitudeDegrees>-5.58374066837131977081298828125</LongitudeDegrees>
            </Position>
            <AltitudeMeters>713</AltitudeMeters>
            <DistanceMeters>NAN</DistanceMeters>
          </Trackpoint>
          <Trackpoint>
            <Time>2019-10-05T08:28:13.000Z</Time>
            <Position>
              <LatitudeDegrees>42.53883711062371730804443359375</LatitudeDegrees>
              <LongitudeDegrees>-5.5837075598537921905517578125</LongitudeDegrees>
            </Position>
            <AltitudeMeters>712.79998779296875</AltitudeMeters>
            <DistanceMeters>NAN</DistanceMeters>
          </Trackpoint>
          <Trackpoint>
            <Time>2019-10-05T08:28:19.000Z</Time>
            <Position>
              <LatitudeDegrees>42.53856654278934001922607421875</LatitudeDegrees>
              <LongitudeDegrees>-5.5835892073810100555419921875</LongitudeDegrees>
            </Position>
            <AltitudeMeters>712.5999755859375</AltitudeMeters>
            <DistanceMeters>NAN</DistanceMeters>
          </Trackpoint>
          <Trackpoint>
            <Time>2019-10-05T08:28:20.000Z</Time>
            <Position>
              <LatitudeDegrees>42.53852312453091144561767578125</LatitudeDegrees>
              <LongitudeDegrees>-5.58358476497232913970947265625</LongitudeDegrees>
            </Position>
            <AltitudeMeters>712.79998779296875</AltitudeMeters>
            <DistanceMeters>NAN</DistanceMeters>
          </Trackpoint>
          <Trackpoint>
            <Time>2019-10-05T08:28:23.000Z</Time>
            <Position>
              <LatitudeDegrees>42.53839588724076747894287109375</LatitudeDegrees>
              <LongitudeDegrees>-5.58358811773359775543212890625</LongitudeDegrees>
            </Position>
            <AltitudeMeters>712.4000244140625</AltitudeMeters>
            <DistanceMeters>NAN</DistanceMeters>
          </Trackpoint>
          <Trackpoint>
            <Time>2019-10-05T08:28:25.000Z</Time>
            <Position>
              <LatitudeDegrees>42.538311816751956939697265625</LatitudeDegrees>
              <LongitudeDegrees>-5.583593733608722686767578125</LongitudeDegrees>
            </Position>
            <AltitudeMeters>712.4000244140625</AltitudeMeters>
            <DistanceMeters>NAN</DistanceMeters>
          </Trackpoint>
          <Trackpoint>
            <Time>2019-10-05T08:28:34.000Z</Time>
            <Position>
              <LatitudeDegrees>42.5378959067165851593017578125</LatitudeDegrees>
              <LongitudeDegrees>-5.5836254172027111053466796875</LongitudeDegrees>
            </Position>
            <AltitudeMeters>712.79998779296875</AltitudeMeters>
            <DistanceMeters>NAN</DistanceMeters>
          </Trackpoint>
          <Trackpoint>
            <Time>2019-10-05T08:28:42.000Z</Time>
            <Position>
              <LatitudeDegrees>42.53749567084014415740966796875</LatitudeDegrees>
              <LongitudeDegrees>-5.58364427648484706878662109375</LongitudeDegrees>
            </Position>
            <AltitudeMeters>712</AltitudeMeters>
            <DistanceMeters>NAN</DistanceMeters>
          </Trackpoint>
          <Trackpoint>
            <Time>2019-10-05T08:28:51.000Z</Time>
            <Position>
              <LatitudeDegrees>42.537023685872554779052734375</LatitudeDegrees>
              <LongitudeDegrees>-5.58366917073726654052734375</LongitudeDegrees>
            </Position>
            <AltitudeMeters>711.79998779296875</AltitudeMeters>
            <DistanceMeters>NAN</DistanceMeters>
          </Trackpoint>
          <Trackpoint>
            <Time>2019-10-05T08:29:01.000Z</Time>
            <Position>
              <LatitudeDegrees>42.536491267383098602294921875</LatitudeDegrees>
              <LongitudeDegrees>-5.58369238860905170440673828125</LongitudeDegrees>
            </Position>
            <AltitudeMeters>712.4000244140625</AltitudeMeters>
            <DistanceMeters>NAN</DistanceMeters>
          </Trackpoint>
          <Trackpoint>
            <Time>2019-10-05T08:29:02.000Z</Time>
            <Position>
              <LatitudeDegrees>42.53643804229795932769775390625</LatitudeDegrees>
              <LongitudeDegrees>-5.583694316446781158447265625</LongitudeDegrees>
            </Position>
            <AltitudeMeters>712.4000244140625</AltitudeMeters>
            <DistanceMeters>NAN</DistanceMeters>
          </Trackpoint>
          <Trackpoint>
            <Time>2019-10-05T08:29:11.000Z</Time>
            <Position>
              <LatitudeDegrees>42.53594937734305858612060546875</LatitudeDegrees>
              <LongitudeDegrees>-5.5837249942123889923095703125</LongitudeDegrees>
            </Position>
            <AltitudeMeters>712</AltitudeMeters>
            <DistanceMeters>NAN</DistanceMeters>
          </Trackpoint>
          <Trackpoint>
            <Time>2019-10-05T08:29:21.000Z</Time>
            <Position>
              <LatitudeDegrees>42.53539751283824443817138671875</LatitudeDegrees>
              <LongitudeDegrees>-5.58375726453959941864013671875</LongitudeDegrees>
            </Position>
            <AltitudeMeters>711.5999755859375</AltitudeMeters>
            <DistanceMeters>NAN</DistanceMeters>
          </Trackpoint>
          <Trackpoint>
            <Time>2019-10-05T08:29:22.000Z</Time>
            <Position>
              <LatitudeDegrees>42.5353421084582805633544921875</LatitudeDegrees>
              <LongitudeDegrees>-5.58376095257699489593505859375</LongitudeDegrees>
            </Position>
            <AltitudeMeters>711.20001220703125</AltitudeMeters>
            <DistanceMeters>NAN</DistanceMeters>
          </Trackpoint>
          <Trackpoint>
            <Time>2019-10-05T08:29:31.000Z</Time>
            <Position>
              <LatitudeDegrees>42.53479854203760623931884765625</LatitudeDegrees>
              <LongitudeDegrees>-5.583798922598361968994140625</LongitudeDegrees>
            </Position>
            <AltitudeMeters>711</AltitudeMeters>
            <DistanceMeters>NAN</DistanceMeters>
          </Trackpoint>
          <Trackpoint>
            <Time>2019-10-05T08:29:33.000Z</Time>
            <Position>
              <LatitudeDegrees>42.53473701886832714080810546875</LatitudeDegrees>
              <LongitudeDegrees>-5.5838057957589626312255859375</LongitudeDegrees>
            </Position>
            <AltitudeMeters>711.20001220703125</AltitudeMeters>
            <DistanceMeters>NAN</DistanceMeters>
          </Trackpoint>
          <Trackpoint>
            <Time>2019-10-05T08:29:43.000Z</Time>
            <Position>
              <LatitudeDegrees>42.53418196924030780792236328125</LatitudeDegrees>
              <LongitudeDegrees>-5.583839155733585357666015625</LongitudeDegrees>
            </Position>
            <AltitudeMeters>711</AltitudeMeters>
            <DistanceMeters>NAN</DistanceMeters>
          </Trackpoint>
          <Trackpoint>
            <Time>2019-10-05T08:29:53.000Z</Time>
            <Position>
              <LatitudeDegrees>42.53362859599292278289794921875</LatitudeDegrees>
              <LongitudeDegrees>-5.58386220596730709075927734375</LongitudeDegrees>
            </Position>
            <AltitudeMeters>711.4000244140625</AltitudeMeters>
            <DistanceMeters>NAN</DistanceMeters>
          </Trackpoint>
          <Trackpoint>
            <Time>2019-10-05T08:29:55.000Z</Time>
            <Position>
              <LatitudeDegrees>42.5335197150707244873046875</LatitudeDegrees>
              <LongitudeDegrees>-5.58386631309986114501953125</LongitudeDegrees>
            </Position>
            <AltitudeMeters>711.20001220703125</AltitudeMeters>
            <DistanceMeters>NAN</DistanceMeters>
          </Trackpoint>
          <Trackpoint>
            <Time>2019-10-05T08:30:03.000Z</Time>
            <Position>
              <LatitudeDegrees>42.5330769829452037811279296875</LatitudeDegrees>
              <LongitudeDegrees>-5.5838929675519466400146484375</LongitudeDegrees>
            </Position>
            <AltitudeMeters>710.79998779296875</AltitudeMeters>
            <DistanceMeters>NAN</DistanceMeters>
          </Trackpoint>
          <Trackpoint>
            <Time>2019-10-05T08:30:13.000Z</Time>
            <Position>
              <LatitudeDegrees>42.53251765854656696319580078125</LatitudeDegrees>
              <LongitudeDegrees>-5.58392641134560108184814453125</LongitudeDegrees>
            </Position>
            <AltitudeMeters>710.79998779296875</AltitudeMeters>
            <DistanceMeters>NAN</DistanceMeters>
          </Trackpoint>
          <Trackpoint>
            <Time>2019-10-05T08:30:19.000Z</Time>
            <Position>
              <LatitudeDegrees>42.53217953257262706756591796875</LatitudeDegrees>
              <LongitudeDegrees>-5.58393831364810466766357421875</LongitudeDegrees>
            </Position>
            <AltitudeMeters>710</AltitudeMeters>
            <DistanceMeters>NAN</DistanceMeters>
          </Trackpoint>
          <Trackpoint>
            <Time>2019-10-05T08:30:22.000Z</Time>
            <Position>
              <LatitudeDegrees>42.53201206214725971221923828125</LatitudeDegrees>
              <LongitudeDegrees>-5.583944432437419891357421875</LongitudeDegrees>
            </Position>
            <AltitudeMeters>710.20001220703125</AltitudeMeters>
            <DistanceMeters>NAN</DistanceMeters>
          </Trackpoint>
          <Trackpoint>
            <Time>2019-10-05T08:30:32.000Z</Time>
            <Position>
              <LatitudeDegrees>42.5314517319202423095703125</LatitudeDegrees>
              <LongitudeDegrees>-5.58398575522005558013916015625</LongitudeDegrees>
            </Position>
            <AltitudeMeters>710.79998779296875</AltitudeMeters>
            <DistanceMeters>NAN</DistanceMeters>
          </Trackpoint>
          <Trackpoint>
            <Time>2019-10-05T08:30:35.000Z</Time>
            <Position>
              <LatitudeDegrees>42.5312835909426212310791015625</LatitudeDegrees>
              <LongitudeDegrees>-5.58399564586579799652099609375</LongitudeDegrees>
            </Position>
            <AltitudeMeters>710.20001220703125</AltitudeMeters>
            <DistanceMeters>NAN</DistanceMeters>
          </Trackpoint>
          <Trackpoint>
            <Time>2019-10-05T08:30:45.000Z</Time>
            <Position>
              <LatitudeDegrees>42.530718483030796051025390625</LatitudeDegrees>
              <LongitudeDegrees>-5.58401760645210742950439453125</LongitudeDegrees>
            </Position>
            <AltitudeMeters>709.5999755859375</AltitudeMeters>
            <DistanceMeters>NAN</DistanceMeters>
          </Trackpoint>
          <Trackpoint>
            <Time>2019-10-05T08:30:48.000Z</Time>
            <Position>
              <LatitudeDegrees>42.5305513478815555572509765625</LatitudeDegrees>
              <LongitudeDegrees>-5.584023557603359222412109375</LongitudeDegrees>
            </Position>
            <AltitudeMeters>709.79998779296875</AltitudeMeters>
            <DistanceMeters>NAN</DistanceMeters>
          </Trackpoint>
          <Trackpoint>
            <Time>2019-10-05T08:30:58.000Z</Time>
            <Position>
              <LatitudeDegrees>42.5299874134361743927001953125</LatitudeDegrees>
              <LongitudeDegrees>-5.584071166813373565673828125</LongitudeDegrees>
            </Position>
            <AltitudeMeters>710.20001220703125</AltitudeMeters>
            <DistanceMeters>NAN</DistanceMeters>
          </Trackpoint>
          <Trackpoint>
            <Time>2019-10-05T08:30:59.000Z</Time>
            <Position>
              <LatitudeDegrees>42.5299307517707347869873046875</LatitudeDegrees>
              <LongitudeDegrees>-5.58407208882272243499755859375</LongitudeDegrees>
            </Position>
            <AltitudeMeters>709.79998779296875</AltitudeMeters>
            <DistanceMeters>NAN</DistanceMeters>
          </Trackpoint>
          <Trackpoint>
            <Time>2019-10-05T08:31:09.000Z</Time>
            <Position>
              <LatitudeDegrees>42.52936488948762416839599609375</LatitudeDegrees>
              <LongitudeDegrees>-5.584084577858448028564453125</LongitudeDegrees>
            </Position>
            <AltitudeMeters>709.79998779296875</AltitudeMeters>
            <DistanceMeters>NAN</DistanceMeters>
          </Trackpoint>
          <Trackpoint>
            <Time>2019-10-05T08:31:10.000Z</Time>
            <Position>
              <LatitudeDegrees>42.5293099880218505859375</LatitudeDegrees>
              <LongitudeDegrees>-5.58408767916262149810791015625</LongitudeDegrees>
            </Position>
            <AltitudeMeters>709.4000244140625</AltitudeMeters>
            <DistanceMeters>NAN</DistanceMeters>
          </Trackpoint>
          <Trackpoint>
            <Time>2019-10-05T08:31:16.000Z</Time>
            <Position>
              <LatitudeDegrees>42.5289688445627689361572265625</LatitudeDegrees>
              <LongitudeDegrees>-5.58409639634191989898681640625</LongitudeDegrees>
            </Position>
            <AltitudeMeters>709.79998779296875</AltitudeMeters>
            <DistanceMeters>NAN</DistanceMeters>
          </Trackpoint>
          <Trackpoint>
            <Time>2019-10-05T08:31:20.000Z</Time>
            <Position>
              <LatitudeDegrees>42.5287361629307270050048828125</LatitudeDegrees>
              <LongitudeDegrees>-5.58410813100636005401611328125</LongitudeDegrees>
            </Position>
            <AltitudeMeters>709.5999755859375</AltitudeMeters>
            <DistanceMeters>NAN</DistanceMeters>
          </Trackpoint>
          <Trackpoint>
            <Time>2019-10-05T08:31:26.000Z</Time>
            <Position>
              <LatitudeDegrees>42.528386972844600677490234375</LatitudeDegrees>
              <LongitudeDegrees>-5.58412103913724422454833984375</LongitudeDegrees>
            </Position>
            <AltitudeMeters>708.79998779296875</AltitudeMeters>
            <DistanceMeters>NAN</DistanceMeters>
          </Trackpoint>
          <Trackpoint>
            <Time>2019-10-05T08:31:27.000Z</Time>
            <Position>
              <LatitudeDegrees>42.52832955680787563323974609375</LatitudeDegrees>
              <LongitudeDegrees>-5.58412288315594196319580078125</LongitudeDegrees>
            </Position>
            <AltitudeMeters>708.79998779296875</AltitudeMeters>
            <DistanceMeters>NAN</DistanceMeters>
          </Trackpoint>
          <Trackpoint>
            <Time>2019-10-05T08:31:33.000Z</Time>
            <Position>
              <LatitudeDegrees>42.527984641492366790771484375</LatitudeDegrees>
              <LongitudeDegrees>-5.5841464363038539886474609375</LongitudeDegrees>
            </Position>
            <AltitudeMeters>709</AltitudeMeters>
            <DistanceMeters>NAN</DistanceMeters>
          </Trackpoint>
          <Trackpoint>
            <Time>2019-10-05T08:31:36.000Z</Time>
            <Position>
              <LatitudeDegrees>42.52781189046800136566162109375</LatitudeDegrees>
              <LongitudeDegrees>-5.58415926061570644378662109375</LongitudeDegrees>
            </Position>
            <AltitudeMeters>708.79998779296875</AltitudeMeters>
            <DistanceMeters>NAN</DistanceMeters>
          </Trackpoint>
          <Trackpoint>
            <Time>2019-10-05T08:31:46.000Z</Time>
            <Position>
              <LatitudeDegrees>42.52723957411944866180419921875</LatitudeDegrees>
              <LongitudeDegrees>-5.584191866219043731689453125</LongitudeDegrees>
            </Position>
            <AltitudeMeters>708.79998779296875</AltitudeMeters>
            <DistanceMeters>NAN</DistanceMeters>
          </Trackpoint>
          <Trackpoint>
            <Time>2019-10-05T08:31:47.000Z</Time>
            <Position>
              <LatitudeDegrees>42.5271824933588504791259765625</LatitudeDegrees>
              <LongitudeDegrees>-5.58419354259967803955078125</LongitudeDegrees>
            </Position>
            <AltitudeMeters>708.5999755859375</AltitudeMeters>
            <DistanceMeters>NAN</DistanceMeters>
          </Trackpoint>
          <Trackpoint>
            <Time>2019-10-05T08:31:57.000Z</Time>
            <Position>
              <LatitudeDegrees>42.5266091711819171905517578125</LatitudeDegrees>
              <LongitudeDegrees>-5.58421902358531951904296875</LongitudeDegrees>
            </Position>
            <AltitudeMeters>708.5999755859375</AltitudeMeters>
            <DistanceMeters>NAN</DistanceMeters>
          </Trackpoint>
          <Trackpoint>
            <Time>2019-10-05T08:32:07.000Z</Time>
            <Position>
              <LatitudeDegrees>42.52604448236525058746337890625</LatitudeDegrees>
              <LongitudeDegrees>-5.584243834018707275390625</LongitudeDegrees>
            </Position>
            <AltitudeMeters>708.4000244140625</AltitudeMeters>
            <DistanceMeters>NAN</DistanceMeters>
          </Trackpoint>
          <Trackpoint>
            <Time>2019-10-05T08:32:09.000Z</Time>
            <Position>
              <LatitudeDegrees>42.5259305723011493682861328125</LatitudeDegrees>
              <LongitudeDegrees>-5.584245510399341583251953125</LongitudeDegrees>
            </Position>
            <AltitudeMeters>708.5999755859375</AltitudeMeters>
            <DistanceMeters>NAN</DistanceMeters>
          </Trackpoint>
          <Trackpoint>
            <Time>2019-10-05T08:32:19.000Z</Time>
            <Position>
              <LatitudeDegrees>42.5253656320273876190185546875</LatitudeDegrees>
              <LongitudeDegrees>-5.58427534997463226318359375</LongitudeDegrees>
            </Position>
            <AltitudeMeters>708.5999755859375</AltitudeMeters>
            <DistanceMeters>NAN</DistanceMeters>
          </Trackpoint>
          <Trackpoint>
            <Time>2019-10-05T08:32:21.000Z</Time>
            <Position>
              <LatitudeDegrees>42.52525608055293560028076171875</LatitudeDegrees>
              <LongitudeDegrees>-5.5842800438404083251953125</LongitudeDegrees>
            </Position>
            <AltitudeMeters>708.79998779296875</AltitudeMeters>
            <DistanceMeters>NAN</DistanceMeters>
          </Trackpoint>
          <Trackpoint>
            <Time>2019-10-05T08:32:30.000Z</Time>
            <Position>
              <LatitudeDegrees>42.5247721932828426361083984375</LatitudeDegrees>
              <LongitudeDegrees>-5.5842986516654491424560546875</LongitudeDegrees>
            </Position>
            <AltitudeMeters>709</AltitudeMeters>
            <DistanceMeters>NAN</DistanceMeters>
          </Trackpoint>
          <Trackpoint>
            <Time>2019-10-05T08:32:32.000Z</Time>
            <Position>
              <LatitudeDegrees>42.524664737284183502197265625</LatitudeDegrees>
              <LongitudeDegrees>-5.5842986516654491424560546875</LongitudeDegrees>
            </Position>
            <AltitudeMeters>709.4000244140625</AltitudeMeters>
            <DistanceMeters>NAN</DistanceMeters>
          </Trackpoint>
          <Trackpoint>
            <Time>2019-10-05T08:32:41.000Z</Time>
            <Position>
              <LatitudeDegrees>42.52417816780507564544677734375</LatitudeDegrees>
              <LongitudeDegrees>-5.58430762030184268951416015625</LongitudeDegrees>
            </Position>
            <AltitudeMeters>710</AltitudeMeters>
            <DistanceMeters>NAN</DistanceMeters>
          </Trackpoint>
          <Trackpoint>
            <Time>2019-10-05T08:32:42.000Z</Time>
            <Position>
              <LatitudeDegrees>42.52412385307252407073974609375</LatitudeDegrees>
              <LongitudeDegrees>-5.5843080393970012664794921875</LongitudeDegrees>
            </Position>
            <AltitudeMeters>709.79998779296875</AltitudeMeters>
            <DistanceMeters>NAN</DistanceMeters>
          </Trackpoint>
          <Trackpoint>
            <Time>2019-10-05T08:32:52.000Z</Time>
            <Position>
              <LatitudeDegrees>42.52357265911996364593505859375</LatitudeDegrees>
              <LongitudeDegrees>-5.5843020044267177581787109375</LongitudeDegrees>
            </Position>
            <AltitudeMeters>709.20001220703125</AltitudeMeters>
            <DistanceMeters>NAN</DistanceMeters>
          </Trackpoint>
          <Trackpoint>
            <Time>2019-10-05T08:32:53.000Z</Time>
            <Position>
              <LatitudeDegrees>42.5235177576541900634765625</LatitudeDegrees>
              <LongitudeDegrees>-5.5842989869415760040283203125</LongitudeDegrees>
            </Position>
            <AltitudeMeters>709</AltitudeMeters>
            <DistanceMeters>NAN</DistanceMeters>
          </Trackpoint>
          <Trackpoint>
            <Time>2019-10-05T08:32:55.000Z</Time>
            <Position>
              <LatitudeDegrees>42.52340904437005519866943359375</LatitudeDegrees>
              <LongitudeDegrees>-5.58429555036127567291259765625</LongitudeDegrees>
            </Position>
            <AltitudeMeters>708.79998779296875</AltitudeMeters>
            <DistanceMeters>NAN</DistanceMeters>
          </Trackpoint>
          <Trackpoint>
            <Time>2019-10-05T08:33:03.000Z</Time>
            <Position>
              <LatitudeDegrees>42.52297167666256427764892578125</LatitudeDegrees>
              <LongitudeDegrees>-5.58427861891686916351318359375</LongitudeDegrees>
            </Position>
            <AltitudeMeters>709</AltitudeMeters>
            <DistanceMeters>NAN</DistanceMeters>
          </Trackpoint>
          <Trackpoint>
            <Time>2019-10-05T08:33:13.000Z</Time>
            <Position>
              <LatitudeDegrees>42.522418387234210968017578125</LatitudeDegrees>
              <LongitudeDegrees>-5.58426235802471637725830078125</LongitudeDegrees>
            </Position>
            <AltitudeMeters>709.20001220703125</AltitudeMeters>
            <DistanceMeters>NAN</DistanceMeters>
          </Trackpoint>
          <Trackpoint>
            <Time>2019-10-05T08:33:14.000Z</Time>
            <Position>
              <LatitudeDegrees>42.52236097119748592376708984375</LatitudeDegrees>
              <LongitudeDegrees>-5.584260262548923492431640625</LongitudeDegrees>
            </Position>
            <AltitudeMeters>709</AltitudeMeters>
            <DistanceMeters>NAN</DistanceMeters>
          </Trackpoint>
          <Trackpoint>
            <Time>2019-10-05T08:33:21.000Z</Time>
            <Position>
              <LatitudeDegrees>42.52197473309934139251708984375</LatitudeDegrees>
              <LongitudeDegrees>-5.58423939161002635955810546875</LongitudeDegrees>
            </Position>
            <AltitudeMeters>709</AltitudeMeters>
            <DistanceMeters>NAN</DistanceMeters>
          </Trackpoint>
          <Trackpoint>
            <Time>2019-10-05T08:33:31.000Z</Time>
            <Position>
              <LatitudeDegrees>42.52141918055713176727294921875</LatitudeDegrees>
              <LongitudeDegrees>-5.58422313071787357330322265625</LongitudeDegrees>
            </Position>
            <AltitudeMeters>709</AltitudeMeters>
            <DistanceMeters>NAN</DistanceMeters>
          </Trackpoint>
          <Trackpoint>
            <Time>2019-10-05T08:33:39.000Z</Time>
            <Position>
              <LatitudeDegrees>42.5209688208997249603271484375</LatitudeDegrees>
              <LongitudeDegrees>-5.5842087976634502410888671875</LongitudeDegrees>
            </Position>
            <AltitudeMeters>708</AltitudeMeters>
            <DistanceMeters>NAN</DistanceMeters>
          </Trackpoint>
          <Trackpoint>
            <Time>2019-10-05T08:33:46.000Z</Time>
            <Position>
              <LatitudeDegrees>42.5205861032009124755859375</LatitudeDegrees>
              <LongitudeDegrees>-5.58423654176294803619384765625</LongitudeDegrees>
            </Position>
            <AltitudeMeters>708.20001220703125</AltitudeMeters>
            <DistanceMeters>NAN</DistanceMeters>
          </Trackpoint>
          <Trackpoint>
            <Time>2019-10-05T08:33:55.000Z</Time>
            <Position>
              <LatitudeDegrees>42.52009064890444278717041015625</LatitudeDegrees>
              <LongitudeDegrees>-5.58422748930752277374267578125</LongitudeDegrees>
            </Position>
            <AltitudeMeters>707.79998779296875</AltitudeMeters>
            <DistanceMeters>NAN</DistanceMeters>
          </Trackpoint>
          <Trackpoint>
            <Time>2019-10-05T08:33:56.000Z</Time>
            <Position>
              <LatitudeDegrees>42.52003666944801807403564453125</LatitudeDegrees>
              <LongitudeDegrees>-5.58422505855560302734375</LongitudeDegrees>
            </Position>
            <AltitudeMeters>707.79998779296875</AltitudeMeters>
            <DistanceMeters>NAN</DistanceMeters>
          </Trackpoint>
          <Trackpoint>
            <Time>2019-10-05T08:34:06.000Z</Time>
            <Position>
              <LatitudeDegrees>42.519494779407978057861328125</LatitudeDegrees>
              <LongitudeDegrees>-5.584201253950595855712890625</LongitudeDegrees>
            </Position>
            <AltitudeMeters>707.5999755859375</AltitudeMeters>
            <DistanceMeters>NAN</DistanceMeters>
          </Trackpoint>
          <Trackpoint>
            <Time>2019-10-05T08:34:13.000Z</Time>
            <Position>
              <LatitudeDegrees>42.5191113911569118499755859375</LatitudeDegrees>
              <LongitudeDegrees>-5.584177114069461822509765625</LongitudeDegrees>
            </Position>
            <AltitudeMeters>708</AltitudeMeters>
            <DistanceMeters>NAN</DistanceMeters>
          </Trackpoint>
          <Trackpoint>
            <Time>2019-10-05T08:34:19.000Z</Time>
            <Position>
              <LatitudeDegrees>42.51878089271485805511474609375</LatitudeDegrees>
              <LongitudeDegrees>-5.58416068553924560546875</LongitudeDegrees>
            </Position>
            <AltitudeMeters>707.5999755859375</AltitudeMeters>
            <DistanceMeters>NAN</DistanceMeters>
          </Trackpoint>
          <Trackpoint>
            <Time>2019-10-05T08:34:20.000Z</Time>
            <Position>
              <LatitudeDegrees>42.518728338181972503662109375</LatitudeDegrees>
              <LongitudeDegrees>-5.584156997501850128173828125</LongitudeDegrees>
            </Position>
            <AltitudeMeters>707.5999755859375</AltitudeMeters>
            <DistanceMeters>NAN</DistanceMeters>
          </Trackpoint>
          <Trackpoint>
            <Time>2019-10-05T08:34:25.000Z</Time>
            <Position>
              <LatitudeDegrees>42.51845777034759521484375</LatitudeDegrees>
              <LongitudeDegrees>-5.58414333499968051910400390625</LongitudeDegrees>
            </Position>
            <AltitudeMeters>708</AltitudeMeters>
            <DistanceMeters>NAN</DistanceMeters>
          </Trackpoint>
          <Trackpoint>
            <Time>2019-10-05T08:34:29.000Z</Time>
            <Position>
              <LatitudeDegrees>42.51823808066546916961669921875</LatitudeDegrees>
              <LongitudeDegrees>-5.5841347016394138336181640625</LongitudeDegrees>
            </Position>
            <AltitudeMeters>707.79998779296875</AltitudeMeters>
            <DistanceMeters>NAN</DistanceMeters>
          </Trackpoint>
          <Trackpoint>
            <Time>2019-10-05T08:34:39.000Z</Time>
            <Position>
              <LatitudeDegrees>42.51767749898135662078857421875</LatitudeDegrees>
              <LongitudeDegrees>-5.58411919511854648590087890625</LongitudeDegrees>
            </Position>
            <AltitudeMeters>707.4000244140625</AltitudeMeters>
            <DistanceMeters>NAN</DistanceMeters>
          </Trackpoint>
          <Trackpoint>
            <Time>2019-10-05T08:34:41.000Z</Time>
            <Position>
              <LatitudeDegrees>42.51756585203111171722412109375</LatitudeDegrees>
              <LongitudeDegrees>-5.5841152556240558624267578125</LongitudeDegrees>
            </Position>
            <AltitudeMeters>707.20001220703125</AltitudeMeters>
            <DistanceMeters>NAN</DistanceMeters>
          </Trackpoint>
          <Trackpoint>
            <Time>2019-10-05T08:34:51.000Z</Time>
            <Position>
              <LatitudeDegrees>42.51700694672763347625732421875</LatitudeDegrees>
              <LongitudeDegrees>-5.58409622870385646820068359375</LongitudeDegrees>
            </Position>
            <AltitudeMeters>707</AltitudeMeters>
            <DistanceMeters>NAN</DistanceMeters>
          </Trackpoint>
          <Trackpoint>
            <Time>2019-10-05T08:34:53.000Z</Time>
            <Position>
              <LatitudeDegrees>42.51689479686319828033447265625</LatitudeDegrees>
              <LongitudeDegrees>-5.58409404940903186798095703125</LongitudeDegrees>
            </Position>
            <AltitudeMeters>707</AltitudeMeters>
            <DistanceMeters>NAN</DistanceMeters>
          </Trackpoint>
          <Trackpoint>
            <Time>2019-10-05T08:34:58.000Z</Time>
            <Position>
              <LatitudeDegrees>42.51661400310695171356201171875</LatitudeDegrees>
              <LongitudeDegrees>-5.58409161865711212158203125</LongitudeDegrees>
            </Position>
            <AltitudeMeters>706.79998779296875</AltitudeMeters>
            <DistanceMeters>NAN</DistanceMeters>
          </Trackpoint>
          <Trackpoint>
            <Time>2019-10-05T08:35:04.000Z</Time>
            <Position>
              <LatitudeDegrees>42.51628182828426361083984375</LatitudeDegrees>
              <LongitudeDegrees>-5.584082566201686859130859375</LongitudeDegrees>
            </Position>
            <AltitudeMeters>706.79998779296875</AltitudeMeters>
            <DistanceMeters>NAN</DistanceMeters>
          </Trackpoint>
          <Trackpoint>
            <Time>2019-10-05T08:35:14.000Z</Time>
            <Position>
              <LatitudeDegrees>42.5157200731337070465087890625</LatitudeDegrees>
              <LongitudeDegrees>-5.58406722731888294219970703125</LongitudeDegrees>
            </Position>
            <AltitudeMeters>706.79998779296875</AltitudeMeters>
            <DistanceMeters>NAN</DistanceMeters>
          </Trackpoint>
          <Trackpoint>
            <Time>2019-10-05T08:35:24.000Z</Time>
            <Position>
              <LatitudeDegrees>42.515152283012866973876953125</LatitudeDegrees>
              <LongitudeDegrees>-5.5840629525482654571533203125</LongitudeDegrees>
            </Position>
            <AltitudeMeters>706.4000244140625</AltitudeMeters>
            <DistanceMeters>NAN</DistanceMeters>
          </Trackpoint>
          <Trackpoint>
            <Time>2019-10-05T08:35:34.000Z</Time>
            <Position>
              <LatitudeDegrees>42.51458105631172657012939453125</LatitudeDegrees>
              <LongitudeDegrees>-5.58404308743774890899658203125</LongitudeDegrees>
            </Position>
            <AltitudeMeters>705.79998779296875</AltitudeMeters>
            <DistanceMeters>NAN</DistanceMeters>
          </Trackpoint>
          <Trackpoint>
            <Time>2019-10-05T08:35:36.000Z</Time>
            <Position>
              <LatitudeDegrees>42.51446756534278392791748046875</LatitudeDegrees>
              <LongitudeDegrees>-5.584037639200687408447265625</LongitudeDegrees>
            </Position>
            <AltitudeMeters>705.4000244140625</AltitudeMeters>
            <DistanceMeters>NAN</DistanceMeters>
          </Trackpoint>
          <Trackpoint>
            <Time>2019-10-05T08:35:41.000Z</Time>
            <Position>
              <LatitudeDegrees>42.51418073661625385284423828125</LatitudeDegrees>
              <LongitudeDegrees>-5.58402632363140583038330078125</LongitudeDegrees>
            </Position>
            <AltitudeMeters>705.5999755859375</AltitudeMeters>
            <DistanceMeters>NAN</DistanceMeters>
          </Trackpoint>
          <Trackpoint>
            <Time>2019-10-05T08:35:47.000Z</Time>
            <Position>
              <LatitudeDegrees>42.513839341700077056884765625</LatitudeDegrees>
              <LongitudeDegrees>-5.5840153433382511138916015625</LongitudeDegrees>
            </Position>
            <AltitudeMeters>705.4000244140625</AltitudeMeters>
            <DistanceMeters>NAN</DistanceMeters>
          </Trackpoint>
          <Trackpoint>
            <Time>2019-10-05T08:35:57.000Z</Time>
            <Position>
              <LatitudeDegrees>42.51328043639659881591796875</LatitudeDegrees>
              <LongitudeDegrees>-5.58399246074259281158447265625</LongitudeDegrees>
            </Position>
            <AltitudeMeters>705.5999755859375</AltitudeMeters>
            <DistanceMeters>NAN</DistanceMeters>
          </Trackpoint>
          <Trackpoint>
            <Time>2019-10-05T08:36:00.000Z</Time>
            <Position>
              <LatitudeDegrees>42.51311204396188259124755859375</LatitudeDegrees>
              <LongitudeDegrees>-5.58399179019033908843994140625</LongitudeDegrees>
            </Position>
            <AltitudeMeters>705.20001220703125</AltitudeMeters>
            <DistanceMeters>NAN</DistanceMeters>
          </Trackpoint>
          <Trackpoint>
            <Time>2019-10-05T08:36:10.000Z</Time>
            <Position>
              <LatitudeDegrees>42.51256294548511505126953125</LatitudeDegrees>
              <LongitudeDegrees>-5.58397066779434680938720703125</LongitudeDegrees>
            </Position>
            <AltitudeMeters>705.4000244140625</AltitudeMeters>
            <DistanceMeters>NAN</DistanceMeters>
          </Trackpoint>
          <Trackpoint>
            <Time>2019-10-05T08:36:11.000Z</Time>
            <Position>
              <LatitudeDegrees>42.51250804401934146881103515625</LatitudeDegrees>
              <LongitudeDegrees>-5.5839704163372516632080078125</LongitudeDegrees>
            </Position>
            <AltitudeMeters>705.20001220703125</AltitudeMeters>
            <DistanceMeters>NAN</DistanceMeters>
          </Trackpoint>
          <Trackpoint>
            <Time>2019-10-05T08:36:21.000Z</Time>
            <Position>
              <LatitudeDegrees>42.51194042153656482696533203125</LatitudeDegrees>
              <LongitudeDegrees>-5.583951473236083984375</LongitudeDegrees>
            </Position>
            <AltitudeMeters>706</AltitudeMeters>
            <DistanceMeters>NAN</DistanceMeters>
          </Trackpoint>
          <Trackpoint>
            <Time>2019-10-05T08:36:24.000Z</Time>
            <Position>
              <LatitudeDegrees>42.5117701850831508636474609375</LatitudeDegrees>
              <LongitudeDegrees>-5.58394610881805419921875</LongitudeDegrees>
            </Position>
            <AltitudeMeters>705.79998779296875</AltitudeMeters>
            <DistanceMeters>NAN</DistanceMeters>
          </Trackpoint>
          <Trackpoint>
            <Time>2019-10-05T08:36:34.000Z</Time>
            <Position>
              <LatitudeDegrees>42.51121303997933864593505859375</LatitudeDegrees>
              <LongitudeDegrees>-5.583927668631076812744140625</LongitudeDegrees>
            </Position>
            <AltitudeMeters>706.20001220703125</AltitudeMeters>
            <DistanceMeters>NAN</DistanceMeters>
          </Trackpoint>
          <Trackpoint>
            <Time>2019-10-05T08:36:35.000Z</Time>
            <Position>
              <LatitudeDegrees>42.51115704886615276336669921875</LatitudeDegrees>
              <LongitudeDegrees>-5.58392557315528392791748046875</LongitudeDegrees>
            </Position>
            <AltitudeMeters>706.20001220703125</AltitudeMeters>
            <DistanceMeters>NAN</DistanceMeters>
          </Trackpoint>
          <Trackpoint>
            <Time>2019-10-05T08:36:45.000Z</Time>
            <Position>
              <LatitudeDegrees>42.51058875583112239837646484375</LatitudeDegrees>
              <LongitudeDegrees>-5.58391056954860687255859375</LongitudeDegrees>
            </Position>
            <AltitudeMeters>705.20001220703125</AltitudeMeters>
            <DistanceMeters>NAN</DistanceMeters>
          </Trackpoint>
          <Trackpoint>
            <Time>2019-10-05T08:36:46.000Z</Time>
            <Position>
              <LatitudeDegrees>42.510532177984714508056640625</LatitudeDegrees>
              <LongitudeDegrees>-5.58390813879668712615966796875</LongitudeDegrees>
            </Position>
            <AltitudeMeters>705</AltitudeMeters>
            <DistanceMeters>NAN</DistanceMeters>
          </Trackpoint>
          <Trackpoint>
            <Time>2019-10-05T08:36:56.000Z</Time>
            <Position>
              <LatitudeDegrees>42.50996933318674564361572265625</LatitudeDegrees>
              <LongitudeDegrees>-5.58389506302773952484130859375</LongitudeDegrees>
            </Position>
            <AltitudeMeters>704.79998779296875</AltitudeMeters>
            <DistanceMeters>NAN</DistanceMeters>
          </Trackpoint>
          <Trackpoint>
            <Time>2019-10-05T08:36:59.000Z</Time>
            <Position>
              <LatitudeDegrees>42.5097990967333316802978515625</LatitudeDegrees>
              <LongitudeDegrees>-5.58389087207615375518798828125</LongitudeDegrees>
            </Position>
            <AltitudeMeters>704.79998779296875</AltitudeMeters>
            <DistanceMeters>NAN</DistanceMeters>
          </Trackpoint>
          <Trackpoint>
            <Time>2019-10-05T08:37:09.000Z</Time>
            <Position>
              <LatitudeDegrees>42.50923256389796733856201171875</LatitudeDegrees>
              <LongitudeDegrees>-5.5838788859546184539794921875</LongitudeDegrees>
            </Position>
            <AltitudeMeters>704.79998779296875</AltitudeMeters>
            <DistanceMeters>NAN</DistanceMeters>
          </Trackpoint>
          <Trackpoint>
            <Time>2019-10-05T08:37:12.000Z</Time>
            <Position>
              <LatitudeDegrees>42.5090631656348705291748046875</LatitudeDegrees>
              <LongitudeDegrees>-5.58387360535562038421630859375</LongitudeDegrees>
            </Position>
            <AltitudeMeters>704.5999755859375</AltitudeMeters>
            <DistanceMeters>NAN</DistanceMeters>
          </Trackpoint>
          <Trackpoint>
            <Time>2019-10-05T08:37:17.000Z</Time>
            <Position>
              <LatitudeDegrees>42.50877273268997669219970703125</LatitudeDegrees>
              <LongitudeDegrees>-5.58385902084410190582275390625</LongitudeDegrees>
            </Position>
            <AltitudeMeters>704.20001220703125</AltitudeMeters>
            <DistanceMeters>NAN</DistanceMeters>
          </Trackpoint>
          <Trackpoint>
            <Time>2019-10-05T08:37:24.000Z</Time>
            <Position>
              <LatitudeDegrees>42.50837073661386966705322265625</LatitudeDegrees>
              <LongitudeDegrees>-5.583850555121898651123046875</LongitudeDegrees>
            </Position>
            <AltitudeMeters>704.20001220703125</AltitudeMeters>
            <DistanceMeters>NAN</DistanceMeters>
          </Trackpoint>
          <Trackpoint>
            <Time>2019-10-05T08:37:34.000Z</Time>
            <Position>
              <LatitudeDegrees>42.5077904574573040008544921875</LatitudeDegrees>
              <LongitudeDegrees>-5.58383412659168243408203125</LongitudeDegrees>
            </Position>
            <AltitudeMeters>703.5999755859375</AltitudeMeters>
            <DistanceMeters>NAN</DistanceMeters>
          </Trackpoint>
          <Trackpoint>
            <Time>2019-10-05T08:37:40.000Z</Time>
            <Position>
              <LatitudeDegrees>42.50743833370506763458251953125</LatitudeDegrees>
              <LongitudeDegrees>-5.58382448740303516387939453125</LongitudeDegrees>
            </Position>
            <AltitudeMeters>703.79998779296875</AltitudeMeters>
            <DistanceMeters>NAN</DistanceMeters>
          </Trackpoint>
          <Trackpoint>
            <Time>2019-10-05T08:37:50.000Z</Time>
            <Position>
              <LatitudeDegrees>42.50685931183397769927978515625</LatitudeDegrees>
              <LongitudeDegrees>-5.583810321986675262451171875</LongitudeDegrees>
            </Position>
            <AltitudeMeters>703</AltitudeMeters>
            <DistanceMeters>NAN</DistanceMeters>
          </Trackpoint>
          <Trackpoint>
            <Time>2019-10-05T08:38:00.000Z</Time>
            <Position>
              <LatitudeDegrees>42.506282888352870941162109375</LatitudeDegrees>
              <LongitudeDegrees>-5.58379012160003185272216796875</LongitudeDegrees>
            </Position>
            <AltitudeMeters>703.20001220703125</AltitudeMeters>
            <DistanceMeters>NAN</DistanceMeters>
          </Trackpoint>
          <Trackpoint>
            <Time>2019-10-05T08:38:02.000Z</Time>
            <Position>
              <LatitudeDegrees>42.5061697326600551605224609375</LatitudeDegrees>
              <LongitudeDegrees>-5.58378978632390499114990234375</LongitudeDegrees>
            </Position>
            <AltitudeMeters>703.4000244140625</AltitudeMeters>
            <DistanceMeters>NAN</DistanceMeters>
          </Trackpoint>
          <Trackpoint>
            <Time>2019-10-05T08:38:12.000Z</Time>
            <Position>
              <LatitudeDegrees>42.5055964104831218719482421875</LatitudeDegrees>
              <LongitudeDegrees>-5.5837715975940227508544921875</LongitudeDegrees>
            </Position>
            <AltitudeMeters>703.5999755859375</AltitudeMeters>
            <DistanceMeters>NAN</DistanceMeters>
          </Trackpoint>
          <Trackpoint>
            <Time>2019-10-05T08:38:14.000Z</Time>
            <Position>
              <LatitudeDegrees>42.5054817460477352142333984375</LatitudeDegrees>
              <LongitudeDegrees>-5.58376296423375606536865234375</LongitudeDegrees>
            </Position>
            <AltitudeMeters>703</AltitudeMeters>
            <DistanceMeters>NAN</DistanceMeters>
          </Trackpoint>
          <Trackpoint>
            <Time>2019-10-05T08:38:23.000Z</Time>
            <Position>
              <LatitudeDegrees>42.50496667809784412384033203125</LatitudeDegrees>
              <LongitudeDegrees>-5.58378308080136775970458984375</LongitudeDegrees>
            </Position>
            <AltitudeMeters>702.4000244140625</AltitudeMeters>
            <DistanceMeters>NAN</DistanceMeters>
          </Trackpoint>
          <Trackpoint>
            <Time>2019-10-05T08:38:28.000Z</Time>
            <Position>
              <LatitudeDegrees>42.5046859681606292724609375</LatitudeDegrees>
              <LongitudeDegrees>-5.5837672390043735504150390625</LongitudeDegrees>
            </Position>
            <AltitudeMeters>702.20001220703125</AltitudeMeters>
            <DistanceMeters>NAN</DistanceMeters>
          </Trackpoint>
          <Trackpoint>
            <Time>2019-10-05T08:38:38.000Z</Time>
            <Position>
              <LatitudeDegrees>42.50411457382142543792724609375</LatitudeDegrees>
              <LongitudeDegrees>-5.58373731561005115509033203125</LongitudeDegrees>
            </Position>
            <AltitudeMeters>703</AltitudeMeters>
            <DistanceMeters>NAN</DistanceMeters>
          </Trackpoint>
          <Trackpoint>
            <Time>2019-10-05T08:38:39.000Z</Time>
            <Position>
              <LatitudeDegrees>42.50405766069889068603515625</LatitudeDegrees>
              <LongitudeDegrees>-5.58373488485813140869140625</LongitudeDegrees>
            </Position>
            <AltitudeMeters>702.4000244140625</AltitudeMeters>
            <DistanceMeters>NAN</DistanceMeters>
          </Trackpoint>
          <Trackpoint>
            <Time>2019-10-05T08:38:49.000Z</Time>
            <Position>
              <LatitudeDegrees>42.50348358415067195892333984375</LatitudeDegrees>
              <LongitudeDegrees>-5.5837105773389339447021484375</LongitudeDegrees>
            </Position>
            <AltitudeMeters>702</AltitudeMeters>
            <DistanceMeters>NAN</DistanceMeters>
          </Trackpoint>
          <Trackpoint>
            <Time>2019-10-05T08:38:50.000Z</Time>
            <Position>
              <LatitudeDegrees>42.5034268386662006378173828125</LatitudeDegrees>
              <LongitudeDegrees>-5.5837087333202362060546875</LongitudeDegrees>
            </Position>
            <AltitudeMeters>702</AltitudeMeters>
            <DistanceMeters>NAN</DistanceMeters>
          </Trackpoint>
          <Trackpoint>
            <Time>2019-10-05T08:39:00.000Z</Time>
            <Position>
              <LatitudeDegrees>42.502849996089935302734375</LatitudeDegrees>
              <LongitudeDegrees>-5.583690963685512542724609375</LongitudeDegrees>
            </Position>
            <AltitudeMeters>702.4000244140625</AltitudeMeters>
            <DistanceMeters>NAN</DistanceMeters>
          </Trackpoint>
          <Trackpoint>
            <Time>2019-10-05T08:39:02.000Z</Time>
            <Position>
              <LatitudeDegrees>42.5027328170835971832275390625</LatitudeDegrees>
              <LongitudeDegrees>-5.58368920348584651947021484375</LongitudeDegrees>
            </Position>
            <AltitudeMeters>702.4000244140625</AltitudeMeters>
            <DistanceMeters>NAN</DistanceMeters>
          </Trackpoint>
          <Trackpoint>
            <Time>2019-10-05T08:39:11.000Z</Time>
            <Position>
              <LatitudeDegrees>42.502212636172771453857421875</LatitudeDegrees>
              <LongitudeDegrees>-5.5836683325469493865966796875</LongitudeDegrees>
            </Position>
            <AltitudeMeters>701.5999755859375</AltitudeMeters>
            <DistanceMeters>NAN</DistanceMeters>
          </Trackpoint>
          <Trackpoint>
            <Time>2019-10-05T08:39:19.000Z</Time>
            <Position>
              <LatitudeDegrees>42.501754648983478546142578125</LatitudeDegrees>
              <LongitudeDegrees>-5.5836485512554645538330078125</LongitudeDegrees>
            </Position>
            <AltitudeMeters>701.79998779296875</AltitudeMeters>
            <DistanceMeters>NAN</DistanceMeters>
          </Trackpoint>
          <Trackpoint>
            <Time>2019-10-05T08:39:29.000Z</Time>
            <Position>
              <LatitudeDegrees>42.50117839314043521881103515625</LatitudeDegrees>
              <LongitudeDegrees>-5.583637990057468414306640625</LongitudeDegrees>
            </Position>
            <AltitudeMeters>701.5999755859375</AltitudeMeters>
            <DistanceMeters>NAN</DistanceMeters>
          </Trackpoint>
          <Trackpoint>
            <Time>2019-10-05T08:39:32.000Z</Time>
            <Position>
              <LatitudeDegrees>42.5010059773921966552734375</LatitudeDegrees>
              <LongitudeDegrees>-5.58363338001072406768798828125</LongitudeDegrees>
            </Position>
            <AltitudeMeters>701.4000244140625</AltitudeMeters>
            <DistanceMeters>NAN</DistanceMeters>
          </Trackpoint>
          <Trackpoint>
            <Time>2019-10-05T08:39:42.000Z</Time>
            <Position>
              <LatitudeDegrees>42.50043290667235851287841796875</LatitudeDegrees>
              <LongitudeDegrees>-5.58362047187983989715576171875</LongitudeDegrees>
            </Position>
            <AltitudeMeters>701.20001220703125</AltitudeMeters>
            <DistanceMeters>NAN</DistanceMeters>
          </Trackpoint>
          <Trackpoint>
            <Time>2019-10-05T08:39:43.000Z</Time>
            <Position>
              <LatitudeDegrees>42.500377334654331207275390625</LatitudeDegrees>
              <LongitudeDegrees>-5.58361929841339588165283203125</LongitudeDegrees>
            </Position>
            <AltitudeMeters>701.20001220703125</AltitudeMeters>
            <DistanceMeters>NAN</DistanceMeters>
          </Trackpoint>
          <Trackpoint>
            <Time>2019-10-05T08:39:50.000Z</Time>
            <Position>
              <LatitudeDegrees>42.49999654479324817657470703125</LatitudeDegrees>
              <LongitudeDegrees>-5.58360773138701915740966796875</LongitudeDegrees>
            </Position>
            <AltitudeMeters>701</AltitudeMeters>
            <DistanceMeters>NAN</DistanceMeters>
          </Trackpoint>
          <Trackpoint>
            <Time>2019-10-05T08:39:54.000Z</Time>
            <Position>
              <LatitudeDegrees>42.49978532083332538604736328125</LatitudeDegrees>
              <LongitudeDegrees>-5.5835974216461181640625</LongitudeDegrees>
            </Position>
            <AltitudeMeters>701.20001220703125</AltitudeMeters>
            <DistanceMeters>NAN</DistanceMeters>
          </Trackpoint>
          <Trackpoint>
            <Time>2019-10-05T08:40:01.000Z</Time>
            <Position>
              <LatitudeDegrees>42.49939992092549800872802734375</LatitudeDegrees>
              <LongitudeDegrees>-5.58359264396131038665771484375</LongitudeDegrees>
            </Position>
            <AltitudeMeters>701.20001220703125</AltitudeMeters>
            <DistanceMeters>NAN</DistanceMeters>
          </Trackpoint>
          <Trackpoint>
            <Time>2019-10-05T08:40:09.000Z</Time>
            <Position>
              <LatitudeDegrees>42.49896557070314884185791015625</LatitudeDegrees>
              <LongitudeDegrees>-5.5835747905075550079345703125</LongitudeDegrees>
            </Position>
            <AltitudeMeters>702</AltitudeMeters>
            <DistanceMeters>NAN</DistanceMeters>
          </Trackpoint>
          <Trackpoint>
            <Time>2019-10-05T08:40:11.000Z</Time>
            <Position>
              <LatitudeDegrees>42.49885962344706058502197265625</LatitudeDegrees>
              <LongitudeDegrees>-5.58357504196465015411376953125</LongitudeDegrees>
            </Position>
            <AltitudeMeters>701.79998779296875</AltitudeMeters>
            <DistanceMeters>NAN</DistanceMeters>
          </Trackpoint>
          <Trackpoint>
            <Time>2019-10-05T08:40:20.000Z</Time>
            <Position>
              <LatitudeDegrees>42.49838084913790225982666015625</LatitudeDegrees>
              <LongitudeDegrees>-5.58356397785246372222900390625</LongitudeDegrees>
            </Position>
            <AltitudeMeters>702.5999755859375</AltitudeMeters>
            <DistanceMeters>NAN</DistanceMeters>
          </Trackpoint>
          <Trackpoint>
            <Time>2019-10-05T08:40:30.000Z</Time>
            <Position>
              <LatitudeDegrees>42.49784692190587520599365234375</LatitudeDegrees>
              <LongitudeDegrees>-5.58354520238935947418212890625</LongitudeDegrees>
            </Position>
            <AltitudeMeters>702.5999755859375</AltitudeMeters>
            <DistanceMeters>NAN</DistanceMeters>
          </Trackpoint>
          <Trackpoint>
            <Time>2019-10-05T08:40:32.000Z</Time>
            <Position>
              <LatitudeDegrees>42.497740052640438079833984375</LatitudeDegrees>
              <LongitudeDegrees>-5.58354201726615428924560546875</LongitudeDegrees>
            </Position>
            <AltitudeMeters>702.4000244140625</AltitudeMeters>
            <DistanceMeters>NAN</DistanceMeters>
          </Trackpoint>
          <Trackpoint>
            <Time>2019-10-05T08:40:41.000Z</Time>
            <Position>
              <LatitudeDegrees>42.49726370908319950103759765625</LatitudeDegrees>
              <LongitudeDegrees>-5.58352290652692317962646484375</LongitudeDegrees>
            </Position>
            <AltitudeMeters>702.4000244140625</AltitudeMeters>
            <DistanceMeters>NAN</DistanceMeters>
          </Trackpoint>
          <Trackpoint>
            <Time>2019-10-05T08:40:43.000Z</Time>
            <Position>
              <LatitudeDegrees>42.49715826474130153656005859375</LatitudeDegrees>
              <LongitudeDegrees>-5.58352156542241573333740234375</LongitudeDegrees>
            </Position>
            <AltitudeMeters>703</AltitudeMeters>
            <DistanceMeters>NAN</DistanceMeters>
          </Trackpoint>
          <Trackpoint>
            <Time>2019-10-05T08:40:50.000Z</Time>
            <Position>
              <LatitudeDegrees>42.4967923946678638458251953125</LatitudeDegrees>
              <LongitudeDegrees>-5.5835107527673244476318359375</LongitudeDegrees>
            </Position>
            <AltitudeMeters>702.20001220703125</AltitudeMeters>
            <DistanceMeters>NAN</DistanceMeters>
          </Trackpoint>
          <Trackpoint>
            <Time>2019-10-05T08:41:01.000Z</Time>
            <Position>
              <LatitudeDegrees>42.49621965922415256500244140625</LatitudeDegrees>
              <LongitudeDegrees>-5.58354847133159637451171875</LongitudeDegrees>
            </Position>
            <AltitudeMeters>703.4000244140625</AltitudeMeters>
            <DistanceMeters>NAN</DistanceMeters>
          </Trackpoint>
          <Trackpoint>
            <Time>2019-10-05T08:41:02.000Z</Time>
            <Position>
              <LatitudeDegrees>42.496171295642852783203125</LatitudeDegrees>
              <LongitudeDegrees>-5.58356992900371551513671875</LongitudeDegrees>
            </Position>
            <AltitudeMeters>703.4000244140625</AltitudeMeters>
            <DistanceMeters>NAN</DistanceMeters>
          </Trackpoint>
          <Trackpoint>
            <Time>2019-10-05T08:41:05.000Z</Time>
            <Position>
              <LatitudeDegrees>42.49603106640279293060302734375</LatitudeDegrees>
              <LongitudeDegrees>-5.5836458690464496612548828125</LongitudeDegrees>
            </Position>
            <AltitudeMeters>704.20001220703125</AltitudeMeters>
            <DistanceMeters>NAN</DistanceMeters>
          </Trackpoint>
          <Trackpoint>
            <Time>2019-10-05T08:41:07.000Z</Time>
            <Position>
              <LatitudeDegrees>42.495934255421161651611328125</LatitudeDegrees>
              <LongitudeDegrees>-5.5836881138384342193603515625</LongitudeDegrees>
            </Position>
            <AltitudeMeters>704</AltitudeMeters>
            <DistanceMeters>NAN</DistanceMeters>
          </Trackpoint>
          <Trackpoint>
            <Time>2019-10-05T08:41:10.000Z</Time>
            <Position>
              <LatitudeDegrees>42.49578514136373996734619140625</LatitudeDegrees>
              <LongitudeDegrees>-5.583640001714229583740234375</LongitudeDegrees>
            </Position>
            <AltitudeMeters>703.5999755859375</AltitudeMeters>
            <DistanceMeters>NAN</DistanceMeters>
          </Trackpoint>
          <Trackpoint>
            <Time>2019-10-05T08:41:12.000Z</Time>
            <Position>
              <LatitudeDegrees>42.49569092877209186553955078125</LatitudeDegrees>
              <LongitudeDegrees>-5.5835704319179058074951171875</LongitudeDegrees>
            </Position>
            <AltitudeMeters>703.5999755859375</AltitudeMeters>
            <DistanceMeters>NAN</DistanceMeters>
          </Trackpoint>
          <Trackpoint>
            <Time>2019-10-05T08:41:13.000Z</Time>
            <Position>
              <LatitudeDegrees>42.4956400506198406219482421875</LatitudeDegrees>
              <LongitudeDegrees>-5.583540759980678558349609375</LongitudeDegrees>
            </Position>
            <AltitudeMeters>703.79998779296875</AltitudeMeters>
            <DistanceMeters>NAN</DistanceMeters>
          </Trackpoint>
          <Trackpoint>
            <Time>2019-10-05T08:41:15.000Z</Time>
            <Position>
              <LatitudeDegrees>42.49553066678345203399658203125</LatitudeDegrees>
              <LongitudeDegrees>-5.5835057236254215240478515625</LongitudeDegrees>
            </Position>
            <AltitudeMeters>703.79998779296875</AltitudeMeters>
            <DistanceMeters>NAN</DistanceMeters>
          </Trackpoint>
          <Trackpoint>
            <Time>2019-10-05T08:41:19.000Z</Time>
            <Position>
              <LatitudeDegrees>42.49531508423388004302978515625</LatitudeDegrees>
              <LongitudeDegrees>-5.58347202837467193603515625</LongitudeDegrees>
            </Position>
            <AltitudeMeters>703.79998779296875</AltitudeMeters>
            <DistanceMeters>NAN</DistanceMeters>
          </Trackpoint>
          <Trackpoint>
            <Time>2019-10-05T08:41:22.000Z</Time>
            <Position>
              <LatitudeDegrees>42.4951545707881450653076171875</LatitudeDegrees>
              <LongitudeDegrees>-5.58346976526081562042236328125</LongitudeDegrees>
            </Position>
            <AltitudeMeters>703.5999755859375</AltitudeMeters>
            <DistanceMeters>NAN</DistanceMeters>
          </Trackpoint>
          <Trackpoint>
            <Time>2019-10-05T08:41:31.000Z</Time>
            <Position>
              <LatitudeDegrees>42.494674958288669586181640625</LatitudeDegrees>
              <LongitudeDegrees>-5.58345383964478969573974609375</LongitudeDegrees>
            </Position>
            <AltitudeMeters>703.4000244140625</AltitudeMeters>
            <DistanceMeters>NAN</DistanceMeters>
          </Trackpoint>
          <Trackpoint>
            <Time>2019-10-05T08:41:40.000Z</Time>
            <Position>
              <LatitudeDegrees>42.49420431442558765411376953125</LatitudeDegrees>
              <LongitudeDegrees>-5.58343674056231975555419921875</LongitudeDegrees>
            </Position>
            <AltitudeMeters>704</AltitudeMeters>
            <DistanceMeters>NAN</DistanceMeters>
          </Trackpoint>
          <Trackpoint>
            <Time>2019-10-05T08:41:43.000Z</Time>
            <Position>
              <LatitudeDegrees>42.49404841102659702301025390625</LatitudeDegrees>
              <LongitudeDegrees>-5.58343171142041683197021484375</LongitudeDegrees>
            </Position>
            <AltitudeMeters>704</AltitudeMeters>
            <DistanceMeters>NAN</DistanceMeters>
          </Trackpoint>
          <Trackpoint>
            <Time>2019-10-05T08:41:47.000Z</Time>
            <Position>
              <LatitudeDegrees>42.49383986927568912506103515625</LatitudeDegrees>
              <LongitudeDegrees>-5.58343053795397281646728515625</LongitudeDegrees>
            </Position>
            <AltitudeMeters>704.4000244140625</AltitudeMeters>
            <DistanceMeters>NAN</DistanceMeters>
          </Trackpoint>
          <Trackpoint>
            <Time>2019-10-05T08:41:57.000Z</Time>
            <Position>
              <LatitudeDegrees>42.493317089974880218505859375</LatitudeDegrees>
              <LongitudeDegrees>-5.58341846801340579986572265625</LongitudeDegrees>
            </Position>
            <AltitudeMeters>704.4000244140625</AltitudeMeters>
            <DistanceMeters>NAN</DistanceMeters>
          </Trackpoint>
          <Trackpoint>
            <Time>2019-10-05T08:41:58.000Z</Time>
            <Position>
              <LatitudeDegrees>42.49326503835618495941162109375</LatitudeDegrees>
              <LongitudeDegrees>-5.5834158696234226226806640625</LongitudeDegrees>
            </Position>
            <AltitudeMeters>704.5999755859375</AltitudeMeters>
            <DistanceMeters>NAN</DistanceMeters>
          </Trackpoint>
          <Trackpoint>
            <Time>2019-10-05T08:42:08.000Z</Time>
            <Position>
              <LatitudeDegrees>42.4927291832864284515380859375</LatitudeDegrees>
              <LongitudeDegrees>-5.58340606279671192169189453125</LongitudeDegrees>
            </Position>
            <AltitudeMeters>705</AltitudeMeters>
            <DistanceMeters>NAN</DistanceMeters>
          </Trackpoint>
          <Trackpoint>
            <Time>2019-10-05T08:42:18.000Z</Time>
            <Position>
              <LatitudeDegrees>42.4921850301325321197509765625</LatitudeDegrees>
              <LongitudeDegrees>-5.583385191857814788818359375</LongitudeDegrees>
            </Position>
            <AltitudeMeters>705.20001220703125</AltitudeMeters>
            <DistanceMeters>NAN</DistanceMeters>
          </Trackpoint>
          <Trackpoint>
            <Time>2019-10-05T08:42:28.000Z</Time>
            <Position>
              <LatitudeDegrees>42.49163928441703319549560546875</LatitudeDegrees>
              <LongitudeDegrees>-5.5833649076521396636962890625</LongitudeDegrees>
            </Position>
            <AltitudeMeters>704.79998779296875</AltitudeMeters>
            <DistanceMeters>NAN</DistanceMeters>
          </Trackpoint>
          <Trackpoint>
            <Time>2019-10-05T08:42:36.000Z</Time>
            <Position>
              <LatitudeDegrees>42.4912050180137157440185546875</LatitudeDegrees>
              <LongitudeDegrees>-5.58335795067250728607177734375</LongitudeDegrees>
            </Position>
            <AltitudeMeters>705</AltitudeMeters>
            <DistanceMeters>NAN</DistanceMeters>
          </Trackpoint>
          <Trackpoint>
            <Time>2019-10-05T08:42:41.000Z</Time>
            <Position>
              <LatitudeDegrees>42.49093034304678440093994140625</LatitudeDegrees>
              <LongitudeDegrees>-5.58335158042609691619873046875</LongitudeDegrees>
            </Position>
            <AltitudeMeters>704.79998779296875</AltitudeMeters>
            <DistanceMeters>NAN</DistanceMeters>
          </Trackpoint>
          <Trackpoint>
            <Time>2019-10-05T08:42:51.000Z</Time>
            <Position>
              <LatitudeDegrees>42.49036942608654499053955078125</LatitudeDegrees>
              <LongitudeDegrees>-5.5833340622484683990478515625</LongitudeDegrees>
            </Position>
            <AltitudeMeters>704.4000244140625</AltitudeMeters>
            <DistanceMeters>NAN</DistanceMeters>
          </Trackpoint>
          <Trackpoint>
            <Time>2019-10-05T08:43:00.000Z</Time>
            <Position>
              <LatitudeDegrees>42.48986148275434970855712890625</LatitudeDegrees>
              <LongitudeDegrees>-5.583315789699554443359375</LongitudeDegrees>
            </Position>
            <AltitudeMeters>704.20001220703125</AltitudeMeters>
            <DistanceMeters>NAN</DistanceMeters>
          </Trackpoint>
          <Trackpoint>
            <Time>2019-10-05T08:43:09.000Z</Time>
            <Position>
              <LatitudeDegrees>42.48934884555637836456298828125</LatitudeDegrees>
              <LongitudeDegrees>-5.5832995288074016571044921875</LongitudeDegrees>
            </Position>
            <AltitudeMeters>704.20001220703125</AltitudeMeters>
            <DistanceMeters>NAN</DistanceMeters>
          </Trackpoint>
          <Trackpoint>
            <Time>2019-10-05T08:43:11.000Z</Time>
            <Position>
              <LatitudeDegrees>42.4892342649400234222412109375</LatitudeDegrees>
              <LongitudeDegrees>-5.58329659514129161834716796875</LongitudeDegrees>
            </Position>
            <AltitudeMeters>704.20001220703125</AltitudeMeters>
            <DistanceMeters>NAN</DistanceMeters>
          </Trackpoint>
          <Trackpoint>
            <Time>2019-10-05T08:43:21.000Z</Time>
            <Position>
              <LatitudeDegrees>42.488682568073272705078125</LatitudeDegrees>
              <LongitudeDegrees>-5.58328025043010711669921875</LongitudeDegrees>
            </Position>
            <AltitudeMeters>704.5999755859375</AltitudeMeters>
            <DistanceMeters>NAN</DistanceMeters>
          </Trackpoint>
          <Trackpoint>
            <Time>2019-10-05T08:43:22.000Z</Time>
            <Position>
              <LatitudeDegrees>42.4886287562549114227294921875</LatitudeDegrees>
              <LongitudeDegrees>-5.5832797475159168243408203125</LongitudeDegrees>
            </Position>
            <AltitudeMeters>704.4000244140625</AltitudeMeters>
            <DistanceMeters>NAN</DistanceMeters>
          </Trackpoint>
          <Trackpoint>
            <Time>2019-10-05T08:43:30.000Z</Time>
            <Position>
              <LatitudeDegrees>42.488222233951091766357421875</LatitudeDegrees>
              <LongitudeDegrees>-5.58326859958469867706298828125</LongitudeDegrees>
            </Position>
            <AltitudeMeters>705.4000244140625</AltitudeMeters>
            <DistanceMeters>NAN</DistanceMeters>
          </Trackpoint>
          <Trackpoint>
            <Time>2019-10-05T08:43:31.000Z</Time>
            <Position>
              <LatitudeDegrees>42.4881742894649505615234375</LatitudeDegrees>
              <LongitudeDegrees>-5.58326977305114269256591796875</LongitudeDegrees>
            </Position>
            <AltitudeMeters>705.4000244140625</AltitudeMeters>
            <DistanceMeters>NAN</DistanceMeters>
          </Trackpoint>
          <Trackpoint>
            <Time>2019-10-05T08:43:38.000Z</Time>
            <Position>
              <LatitudeDegrees>42.4878522567451000213623046875</LatitudeDegrees>
              <LongitudeDegrees>-5.583263821899890899658203125</LongitudeDegrees>
            </Position>
            <AltitudeMeters>706.5999755859375</AltitudeMeters>
            <DistanceMeters>NAN</DistanceMeters>
          </Trackpoint>
          <Trackpoint>
            <Time>2019-10-05T08:43:39.000Z</Time>
            <Position>
              <LatitudeDegrees>42.48780657537281513214111328125</LatitudeDegrees>
              <LongitudeDegrees>-5.58326390571892261505126953125</LongitudeDegrees>
            </Position>
            <AltitudeMeters>707</AltitudeMeters>
            <DistanceMeters>NAN</DistanceMeters>
          </Trackpoint>
          <Trackpoint>
            <Time>2019-10-05T08:43:46.000Z</Time>
            <Position>
              <LatitudeDegrees>42.4874935112893581390380859375</LatitudeDegrees>
              <LongitudeDegrees>-5.58329944498836994171142578125</LongitudeDegrees>
            </Position>
            <AltitudeMeters>707.20001220703125</AltitudeMeters>
            <DistanceMeters>NAN</DistanceMeters>
          </Trackpoint>
          <Trackpoint>
            <Time>2019-10-05T08:43:47.000Z</Time>
            <Position>
              <LatitudeDegrees>42.4874552898108959197998046875</LatitudeDegrees>
              <LongitudeDegrees>-5.58331646025180816650390625</LongitudeDegrees>
            </Position>
            <AltitudeMeters>707.5999755859375</AltitudeMeters>
            <DistanceMeters>NAN</DistanceMeters>
          </Trackpoint>
          <Trackpoint>
            <Time>2019-10-05T08:43:51.000Z</Time>
            <Position>
              <LatitudeDegrees>42.4872772581875324249267578125</LatitudeDegrees>
              <LongitudeDegrees>-5.583403967320919036865234375</LongitudeDegrees>
            </Position>
            <AltitudeMeters>708</AltitudeMeters>
            <DistanceMeters>NAN</DistanceMeters>
          </Trackpoint>
          <Trackpoint>
            <Time>2019-10-05T08:43:57.000Z</Time>
            <Position>
              <LatitudeDegrees>42.4870056845247745513916015625</LatitudeDegrees>
              <LongitudeDegrees>-5.58356766588985919952392578125</LongitudeDegrees>
            </Position>
            <AltitudeMeters>708.4000244140625</AltitudeMeters>
            <DistanceMeters>NAN</DistanceMeters>
          </Trackpoint>
          <Trackpoint>
            <Time>2019-10-05T08:44:01.000Z</Time>
            <Position>
              <LatitudeDegrees>42.48682304285466670989990234375</LatitudeDegrees>
              <LongitudeDegrees>-5.5836837552487850189208984375</LongitudeDegrees>
            </Position>
            <AltitudeMeters>707.79998779296875</AltitudeMeters>
            <DistanceMeters>NAN</DistanceMeters>
          </Trackpoint>
          <Trackpoint>
            <Time>2019-10-05T08:44:12.000Z</Time>
            <Position>
              <LatitudeDegrees>42.4863140098750591278076171875</LatitudeDegrees>
              <LongitudeDegrees>-5.5839912034571170806884765625</LongitudeDegrees>
            </Position>
            <AltitudeMeters>708</AltitudeMeters>
            <DistanceMeters>NAN</DistanceMeters>
          </Trackpoint>
          <Trackpoint>
            <Time>2019-10-05T08:44:13.000Z</Time>
            <Position>
              <LatitudeDegrees>42.4862677417695522308349609375</LatitudeDegrees>
              <LongitudeDegrees>-5.5840180255472660064697265625</LongitudeDegrees>
            </Position>
            <AltitudeMeters>707.79998779296875</AltitudeMeters>
            <DistanceMeters>NAN</DistanceMeters>
          </Trackpoint>
          <Trackpoint>
            <Time>2019-10-05T08:44:22.000Z</Time>
            <Position>
              <LatitudeDegrees>42.48583598993718624114990234375</LatitudeDegrees>
              <LongitudeDegrees>-5.5842342786490917205810546875</LongitudeDegrees>
            </Position>
            <AltitudeMeters>707.79998779296875</AltitudeMeters>
            <DistanceMeters>NAN</DistanceMeters>
          </Trackpoint>
          <Trackpoint>
            <Time>2019-10-05T08:44:33.000Z</Time>
            <Position>
              <LatitudeDegrees>42.485294602811336517333984375</LatitudeDegrees>
              <LongitudeDegrees>-5.5844954587519168853759765625</LongitudeDegrees>
            </Position>
            <AltitudeMeters>707.4000244140625</AltitudeMeters>
            <DistanceMeters>NAN</DistanceMeters>
          </Trackpoint>
          <Trackpoint>
            <Time>2019-10-05T08:44:43.000Z</Time>
            <Position>
              <LatitudeDegrees>42.48478473164141178131103515625</LatitudeDegrees>
              <LongitudeDegrees>-5.58472193777561187744140625</LongitudeDegrees>
            </Position>
            <AltitudeMeters>707.79998779296875</AltitudeMeters>
            <DistanceMeters>NAN</DistanceMeters>
          </Trackpoint>
          <Trackpoint>
            <Time>2019-10-05T08:44:46.000Z</Time>
            <Position>
              <LatitudeDegrees>42.48462597839534282684326171875</LatitudeDegrees>
              <LongitudeDegrees>-5.5847700498998165130615234375</LongitudeDegrees>
            </Position>
            <AltitudeMeters>707.5999755859375</AltitudeMeters>
            <DistanceMeters>NAN</DistanceMeters>
          </Trackpoint>
          <Trackpoint>
            <Time>2019-10-05T08:44:55.000Z</Time>
            <Position>
              <LatitudeDegrees>42.48414619825780391693115234375</LatitudeDegrees>
              <LongitudeDegrees>-5.58486987836658954620361328125</LongitudeDegrees>
            </Position>
            <AltitudeMeters>708.20001220703125</AltitudeMeters>
            <DistanceMeters>NAN</DistanceMeters>
          </Trackpoint>
          <Trackpoint>
            <Time>2019-10-05T08:45:04.000Z</Time>
            <Position>
              <LatitudeDegrees>42.48364076949656009674072265625</LatitudeDegrees>
              <LongitudeDegrees>-5.584849677979946136474609375</LongitudeDegrees>
            </Position>
            <AltitudeMeters>708</AltitudeMeters>
            <DistanceMeters>NAN</DistanceMeters>
          </Trackpoint>
          <Trackpoint>
            <Time>2019-10-05T08:45:12.000Z</Time>
            <Position>
              <LatitudeDegrees>42.4832448922097682952880859375</LatitudeDegrees>
              <LongitudeDegrees>-5.584766864776611328125</LongitudeDegrees>
            </Position>
            <AltitudeMeters>708</AltitudeMeters>
            <DistanceMeters>NAN</DistanceMeters>
          </Trackpoint>
          <Trackpoint>
            <Time>2019-10-05T08:45:15.000Z</Time>
            <Position>
              <LatitudeDegrees>42.483231984078884124755859375</LatitudeDegrees>
              <LongitudeDegrees>-5.58476443402469158172607421875</LongitudeDegrees>
            </Position>
            <AltitudeMeters>708.5999755859375</AltitudeMeters>
            <DistanceMeters>NAN</DistanceMeters>
          </Trackpoint>
          <Trackpoint>
            <Time>2019-10-05T08:45:27.000Z</Time>
            <Position>
              <LatitudeDegrees>42.483231984078884124755859375</LatitudeDegrees>
              <LongitudeDegrees>-5.58476443402469158172607421875</LongitudeDegrees>
            </Position>
            <AltitudeMeters>708.5999755859375</AltitudeMeters>
            <DistanceMeters>NAN</DistanceMeters>
          </Trackpoint>
          <Trackpoint>
            <Time>2019-10-05T08:45:32.000Z</Time>
            <Position>
              <LatitudeDegrees>42.483231984078884124755859375</LatitudeDegrees>
              <LongitudeDegrees>-5.58476443402469158172607421875</LongitudeDegrees>
            </Position>
            <AltitudeMeters>708.5999755859375</AltitudeMeters>
            <DistanceMeters>NAN</DistanceMeters>
          </Trackpoint>
          <Trackpoint>
            <Time>2019-10-05T08:45:42.000Z</Time>
            <Position>
              <LatitudeDegrees>42.483231984078884124755859375</LatitudeDegrees>
              <LongitudeDegrees>-5.58476443402469158172607421875</LongitudeDegrees>
            </Position>
            <AltitudeMeters>708.5999755859375</AltitudeMeters>
            <DistanceMeters>NAN</DistanceMeters>
          </Trackpoint>
          <Trackpoint>
            <Time>2019-10-05T08:45:46.000Z</Time>
            <Position>
              <LatitudeDegrees>42.483231984078884124755859375</LatitudeDegrees>
              <LongitudeDegrees>-5.58476443402469158172607421875</LongitudeDegrees>
            </Position>
            <AltitudeMeters>709</AltitudeMeters>
            <DistanceMeters>NAN</DistanceMeters>
          </Trackpoint>
          <Trackpoint>
            <Time>2019-10-05T08:45:59.000Z</Time>
            <Position>
              <LatitudeDegrees>42.48322921805083751678466796875</LatitudeDegrees>
              <LongitudeDegrees>-5.58476929552853107452392578125</LongitudeDegrees>
            </Position>
            <AltitudeMeters>708.79998779296875</AltitudeMeters>
            <DistanceMeters>NAN</DistanceMeters>
          </Trackpoint>
          <Trackpoint>
            <Time>2019-10-05T08:46:01.000Z</Time>
            <Position>
              <LatitudeDegrees>42.48322921805083751678466796875</LatitudeDegrees>
              <LongitudeDegrees>-5.58476929552853107452392578125</LongitudeDegrees>
            </Position>
            <AltitudeMeters>708.5999755859375</AltitudeMeters>
            <DistanceMeters>NAN</DistanceMeters>
          </Trackpoint>
          <Trackpoint>
            <Time>2019-10-05T08:46:04.000Z</Time>
            <Position>
              <LatitudeDegrees>42.48322921805083751678466796875</LatitudeDegrees>
              <LongitudeDegrees>-5.58476929552853107452392578125</LongitudeDegrees>
            </Position>
            <AltitudeMeters>708.79998779296875</AltitudeMeters>
            <DistanceMeters>NAN</DistanceMeters>
          </Trackpoint>
          <Trackpoint>
            <Time>2019-10-05T08:46:12.000Z</Time>
            <Position>
              <LatitudeDegrees>42.48322921805083751678466796875</LatitudeDegrees>
              <LongitudeDegrees>-5.58476929552853107452392578125</LongitudeDegrees>
            </Position>
            <AltitudeMeters>708.5999755859375</AltitudeMeters>
            <DistanceMeters>NAN</DistanceMeters>
          </Trackpoint>
          <Trackpoint>
            <Time>2019-10-05T08:46:16.000Z</Time>
            <Position>
              <LatitudeDegrees>42.48322921805083751678466796875</LatitudeDegrees>
              <LongitudeDegrees>-5.58476929552853107452392578125</LongitudeDegrees>
            </Position>
            <AltitudeMeters>708.79998779296875</AltitudeMeters>
            <DistanceMeters>NAN</DistanceMeters>
          </Trackpoint>
          <Trackpoint>
            <Time>2019-10-05T08:46:21.000Z</Time>
            <Position>
              <LatitudeDegrees>42.48322921805083751678466796875</LatitudeDegrees>
              <LongitudeDegrees>-5.58476929552853107452392578125</LongitudeDegrees>
            </Position>
            <AltitudeMeters>709</AltitudeMeters>
            <DistanceMeters>NAN</DistanceMeters>
          </Trackpoint>
          <Trackpoint>
            <Time>2019-10-05T08:46:24.000Z</Time>
            <Position>
              <LatitudeDegrees>42.48322921805083751678466796875</LatitudeDegrees>
              <LongitudeDegrees>-5.58476929552853107452392578125</LongitudeDegrees>
            </Position>
            <AltitudeMeters>708.5999755859375</AltitudeMeters>
            <DistanceMeters>NAN</DistanceMeters>
          </Trackpoint>
          <Trackpoint>
            <Time>2019-10-05T08:46:26.000Z</Time>
            <Position>
              <LatitudeDegrees>42.48322921805083751678466796875</LatitudeDegrees>
              <LongitudeDegrees>-5.58476929552853107452392578125</LongitudeDegrees>
            </Position>
            <AltitudeMeters>708.79998779296875</AltitudeMeters>
            <DistanceMeters>NAN</DistanceMeters>
          </Trackpoint>
          <Trackpoint>
            <Time>2019-10-05T08:46:28.000Z</Time>
            <Position>
              <LatitudeDegrees>42.48322921805083751678466796875</LatitudeDegrees>
              <LongitudeDegrees>-5.58476929552853107452392578125</LongitudeDegrees>
            </Position>
            <AltitudeMeters>708.79998779296875</AltitudeMeters>
            <DistanceMeters>NAN</DistanceMeters>
          </Trackpoint>
          <Trackpoint>
            <Time>2019-10-05T08:46:32.000Z</Time>
            <Position>
              <LatitudeDegrees>42.48322921805083751678466796875</LatitudeDegrees>
              <LongitudeDegrees>-5.58476929552853107452392578125</LongitudeDegrees>
            </Position>
            <AltitudeMeters>708.79998779296875</AltitudeMeters>
            <DistanceMeters>NAN</DistanceMeters>
          </Trackpoint>
          <Trackpoint>
            <Time>2019-10-05T08:46:37.000Z</Time>
            <Position>
              <LatitudeDegrees>42.48323030769824981689453125</LatitudeDegrees>
              <LongitudeDegrees>-5.58477616868913173675537109375</LongitudeDegrees>
            </Position>
            <AltitudeMeters>708.5999755859375</AltitudeMeters>
            <DistanceMeters>NAN</DistanceMeters>
          </Trackpoint>
          <Trackpoint>
            <Time>2019-10-05T08:46:42.000Z</Time>
            <Position>
              <LatitudeDegrees>42.48323030769824981689453125</LatitudeDegrees>
              <LongitudeDegrees>-5.58477616868913173675537109375</LongitudeDegrees>
            </Position>
            <AltitudeMeters>708.79998779296875</AltitudeMeters>
            <DistanceMeters>NAN</DistanceMeters>
          </Trackpoint>
          <Trackpoint>
            <Time>2019-10-05T08:46:44.000Z</Time>
            <Position>
              <LatitudeDegrees>42.48323030769824981689453125</LatitudeDegrees>
              <LongitudeDegrees>-5.58477616868913173675537109375</LongitudeDegrees>
            </Position>
            <AltitudeMeters>708.79998779296875</AltitudeMeters>
            <DistanceMeters>NAN</DistanceMeters>
          </Trackpoint>
          <Trackpoint>
            <Time>2019-10-05T08:46:48.000Z</Time>
            <Position>
              <LatitudeDegrees>42.48323030769824981689453125</LatitudeDegrees>
              <LongitudeDegrees>-5.58477616868913173675537109375</LongitudeDegrees>
            </Position>
            <AltitudeMeters>708.20001220703125</AltitudeMeters>
            <DistanceMeters>NAN</DistanceMeters>
          </Trackpoint>
          <Trackpoint>
            <Time>2019-10-05T08:46:49.000Z</Time>
            <Position>
              <LatitudeDegrees>42.48322653584182262420654296875</LatitudeDegrees>
              <LongitudeDegrees>-5.5847734026610851287841796875</LongitudeDegrees>
            </Position>
            <AltitudeMeters>708.4000244140625</AltitudeMeters>
            <DistanceMeters>NAN</DistanceMeters>
          </Trackpoint>
          <Trackpoint>
            <Time>2019-10-05T08:46:52.000Z</Time>
            <Position>
              <LatitudeDegrees>42.4831775017082691192626953125</LatitudeDegrees>
              <LongitudeDegrees>-5.5847569741308689117431640625</LongitudeDegrees>
            </Position>
            <AltitudeMeters>708.4000244140625</AltitudeMeters>
            <DistanceMeters>NAN</DistanceMeters>
          </Trackpoint>
          <Trackpoint>
            <Time>2019-10-05T08:46:56.000Z</Time>
            <Position>
              <LatitudeDegrees>42.4830715544521808624267578125</LatitudeDegrees>
              <LongitudeDegrees>-5.58470408432185649871826171875</LongitudeDegrees>
            </Position>
            <AltitudeMeters>708.4000244140625</AltitudeMeters>
            <DistanceMeters>NAN</DistanceMeters>
          </Trackpoint>
          <Trackpoint>
            <Time>2019-10-05T08:46:58.000Z</Time>
            <Position>
              <LatitudeDegrees>42.48299938626587390899658203125</LatitudeDegrees>
              <LongitudeDegrees>-5.5846838839352130889892578125</LongitudeDegrees>
            </Position>
            <AltitudeMeters>707.79998779296875</AltitudeMeters>
            <DistanceMeters>NAN</DistanceMeters>
          </Trackpoint>
          <Trackpoint>
            <Time>2019-10-05T08:47:02.000Z</Time>
            <Position>
              <LatitudeDegrees>42.482823617756366729736328125</LatitudeDegrees>
              <LongitudeDegrees>-5.5846369452774524688720703125</LongitudeDegrees>
            </Position>
            <AltitudeMeters>707.20001220703125</AltitudeMeters>
            <DistanceMeters>NAN</DistanceMeters>
          </Trackpoint>
          <Trackpoint>
            <Time>2019-10-05T08:47:08.000Z</Time>
            <Position>
              <LatitudeDegrees>42.48253117315471172332763671875</LatitudeDegrees>
              <LongitudeDegrees>-5.584564693272113800048828125</LongitudeDegrees>
            </Position>
            <AltitudeMeters>707</AltitudeMeters>
            <DistanceMeters>NAN</DistanceMeters>
          </Trackpoint>
          <Trackpoint>
            <Time>2019-10-05T08:47:10.000Z</Time>
            <Position>
              <LatitudeDegrees>42.48242975212633609771728515625</LatitudeDegrees>
              <LongitudeDegrees>-5.58453510515391826629638671875</LongitudeDegrees>
            </Position>
            <AltitudeMeters>707.20001220703125</AltitudeMeters>
            <DistanceMeters>NAN</DistanceMeters>
          </Trackpoint>
          <Trackpoint>
            <Time>2019-10-05T08:47:12.000Z</Time>
            <Position>
              <LatitudeDegrees>42.4823269061744213104248046875</LatitudeDegrees>
              <LongitudeDegrees>-5.58450660668313503265380859375</LongitudeDegrees>
            </Position>
            <AltitudeMeters>706.5999755859375</AltitudeMeters>
            <DistanceMeters>NAN</DistanceMeters>
          </Trackpoint>
          <Trackpoint>
            <Time>2019-10-05T08:47:20.000Z</Time>
            <Position>
              <LatitudeDegrees>42.4819061346352100372314453125</LatitudeDegrees>
              <LongitudeDegrees>-5.58440007269382476806640625</LongitudeDegrees>
            </Position>
            <AltitudeMeters>706.4000244140625</AltitudeMeters>
            <DistanceMeters>NAN</DistanceMeters>
          </Trackpoint>
          <Trackpoint>
            <Time>2019-10-05T08:47:29.000Z</Time>
            <Position>
              <LatitudeDegrees>42.48143054544925689697265625</LatitudeDegrees>
              <LongitudeDegrees>-5.5842704884707927703857421875</LongitudeDegrees>
            </Position>
            <AltitudeMeters>706.79998779296875</AltitudeMeters>
            <DistanceMeters>NAN</DistanceMeters>
          </Trackpoint>
          <Trackpoint>
            <Time>2019-10-05T08:47:39.000Z</Time>
            <Position>
              <LatitudeDegrees>42.48089142143726348876953125</LatitudeDegrees>
              <LongitudeDegrees>-5.584130845963954925537109375</LongitudeDegrees>
            </Position>
            <AltitudeMeters>706.4000244140625</AltitudeMeters>
            <DistanceMeters>NAN</DistanceMeters>
          </Trackpoint>
          <Trackpoint>
            <Time>2019-10-05T08:47:41.000Z</Time>
            <Position>
              <LatitudeDegrees>42.480783797800540924072265625</LatitudeDegrees>
              <LongitudeDegrees>-5.58410310186445713043212890625</LongitudeDegrees>
            </Position>
            <AltitudeMeters>706.5999755859375</AltitudeMeters>
            <DistanceMeters>NAN</DistanceMeters>
          </Trackpoint>
          <Trackpoint>
            <Time>2019-10-05T08:47:51.000Z</Time>
            <Position>
              <LatitudeDegrees>42.48024366796016693115234375</LatitudeDegrees>
              <LongitudeDegrees>-5.58397871442139148712158203125</LongitudeDegrees>
            </Position>
            <AltitudeMeters>706.20001220703125</AltitudeMeters>
            <DistanceMeters>NAN</DistanceMeters>
          </Trackpoint>
          <Trackpoint>
            <Time>2019-10-05T08:48:01.000Z</Time>
            <Position>
              <LatitudeDegrees>42.479686774313449859619140625</LatitudeDegrees>
              <LongitudeDegrees>-5.583864636719226837158203125</LongitudeDegrees>
            </Position>
            <AltitudeMeters>706.4000244140625</AltitudeMeters>
            <DistanceMeters>NAN</DistanceMeters>
          </Trackpoint>
          <Trackpoint>
            <Time>2019-10-05T08:48:03.000Z</Time>
            <Position>
              <LatitudeDegrees>42.47957269661128520965576171875</LatitudeDegrees>
              <LongitudeDegrees>-5.58383722789585590362548828125</LongitudeDegrees>
            </Position>
            <AltitudeMeters>706.20001220703125</AltitudeMeters>
            <DistanceMeters>NAN</DistanceMeters>
          </Trackpoint>
          <Trackpoint>
            <Time>2019-10-05T08:48:13.000Z</Time>
            <Position>
              <LatitudeDegrees>42.47900423593819141387939453125</LatitudeDegrees>
              <LongitudeDegrees>-5.58372977189719676971435546875</LongitudeDegrees>
            </Position>
            <AltitudeMeters>706</AltitudeMeters>
            <DistanceMeters>NAN</DistanceMeters>
          </Trackpoint>
          <Trackpoint>
            <Time>2019-10-05T08:48:15.000Z</Time>
            <Position>
              <LatitudeDegrees>42.47889225371181964874267578125</LatitudeDegrees>
              <LongitudeDegrees>-5.5837095715105533599853515625</LongitudeDegrees>
            </Position>
            <AltitudeMeters>705.79998779296875</AltitudeMeters>
            <DistanceMeters>NAN</DistanceMeters>
          </Trackpoint>
          <Trackpoint>
            <Time>2019-10-05T08:48:17.000Z</Time>
            <Position>
              <LatitudeDegrees>42.47878278605639934539794921875</LatitudeDegrees>
              <LongitudeDegrees>-5.58368182741105556488037109375</LongitudeDegrees>
            </Position>
            <AltitudeMeters>705.4000244140625</AltitudeMeters>
            <DistanceMeters>NAN</DistanceMeters>
          </Trackpoint>
          <Trackpoint>
            <Time>2019-10-05T08:48:27.000Z</Time>
            <Position>
              <LatitudeDegrees>42.47822924517095088958740234375</LatitudeDegrees>
              <LongitudeDegrees>-5.58356054127216339111328125</LongitudeDegrees>
            </Position>
            <AltitudeMeters>705.5999755859375</AltitudeMeters>
            <DistanceMeters>NAN</DistanceMeters>
          </Trackpoint>
          <Trackpoint>
            <Time>2019-10-05T08:48:37.000Z</Time>
            <Position>
              <LatitudeDegrees>42.47767570428550243377685546875</LatitudeDegrees>
              <LongitudeDegrees>-5.583444871008396148681640625</LongitudeDegrees>
            </Position>
            <AltitudeMeters>705.4000244140625</AltitudeMeters>
            <DistanceMeters>NAN</DistanceMeters>
          </Trackpoint>
          <Trackpoint>
            <Time>2019-10-05T08:48:39.000Z</Time>
            <Position>
              <LatitudeDegrees>42.4775636382400989532470703125</LatitudeDegrees>
              <LongitudeDegrees>-5.58342433534562587738037109375</LongitudeDegrees>
            </Position>
            <AltitudeMeters>705.79998779296875</AltitudeMeters>
            <DistanceMeters>NAN</DistanceMeters>
          </Trackpoint>
          <Trackpoint>
            <Time>2019-10-05T08:48:47.000Z</Time>
            <Position>
              <LatitudeDegrees>42.477115876972675323486328125</LatitudeDegrees>
              <LongitudeDegrees>-5.58332660235464572906494140625</LongitudeDegrees>
            </Position>
            <AltitudeMeters>705.79998779296875</AltitudeMeters>
            <DistanceMeters>NAN</DistanceMeters>
          </Trackpoint>
          <Trackpoint>
            <Time>2019-10-05T08:48:57.000Z</Time>
            <Position>
              <LatitudeDegrees>42.476551942527294158935546875</LatitudeDegrees>
              <LongitudeDegrees>-5.5832073278725147247314453125</LongitudeDegrees>
            </Position>
            <AltitudeMeters>705</AltitudeMeters>
            <DistanceMeters>NAN</DistanceMeters>
          </Trackpoint>
          <Trackpoint>
            <Time>2019-10-05T08:48:59.000Z</Time>
            <Position>
              <LatitudeDegrees>42.47643903829157352447509765625</LatitudeDegrees>
              <LongitudeDegrees>-5.5831848643720149993896484375</LongitudeDegrees>
            </Position>
            <AltitudeMeters>705.5999755859375</AltitudeMeters>
            <DistanceMeters>NAN</DistanceMeters>
          </Trackpoint>
          <Trackpoint>
            <Time>2019-10-05T08:49:09.000Z</Time>
            <Position>
              <LatitudeDegrees>42.47587191872298717498779296875</LatitudeDegrees>
              <LongitudeDegrees>-5.58306508697569370269775390625</LongitudeDegrees>
            </Position>
            <AltitudeMeters>705.20001220703125</AltitudeMeters>
            <DistanceMeters>NAN</DistanceMeters>
          </Trackpoint>
          <Trackpoint>
            <Time>2019-10-05T08:49:10.000Z</Time>
            <Position>
              <LatitudeDegrees>42.4758158437907695770263671875</LatitudeDegrees>
              <LongitudeDegrees>-5.583051256835460662841796875</LongitudeDegrees>
            </Position>
            <AltitudeMeters>705</AltitudeMeters>
            <DistanceMeters>NAN</DistanceMeters>
          </Trackpoint>
          <Trackpoint>
            <Time>2019-10-05T08:49:17.000Z</Time>
            <Position>
              <LatitudeDegrees>42.4754222296178340911865234375</LatitudeDegrees>
              <LongitudeDegrees>-5.582974143326282501220703125</LongitudeDegrees>
            </Position>
            <AltitudeMeters>704.5999755859375</AltitudeMeters>
            <DistanceMeters>NAN</DistanceMeters>
          </Trackpoint>
          <Trackpoint>
            <Time>2019-10-05T08:49:20.000Z</Time>
            <Position>
              <LatitudeDegrees>42.475254423916339874267578125</LatitudeDegrees>
              <LongitudeDegrees>-5.58293717913329601287841796875</LongitudeDegrees>
            </Position>
            <AltitudeMeters>704.79998779296875</AltitudeMeters>
            <DistanceMeters>NAN</DistanceMeters>
          </Trackpoint>
          <Trackpoint>
            <Time>2019-10-05T08:49:30.000Z</Time>
            <Position>
              <LatitudeDegrees>42.47469627298414707183837890625</LatitudeDegrees>
              <LongitudeDegrees>-5.5828182399272918701171875</LongitudeDegrees>
            </Position>
            <AltitudeMeters>705</AltitudeMeters>
            <DistanceMeters>NAN</DistanceMeters>
          </Trackpoint>
          <Trackpoint>
            <Time>2019-10-05T08:49:31.000Z</Time>
            <Position>
              <LatitudeDegrees>42.47463877312839031219482421875</LatitudeDegrees>
              <LongitudeDegrees>-5.582805834710597991943359375</LongitudeDegrees>
            </Position>
            <AltitudeMeters>705</AltitudeMeters>
            <DistanceMeters>NAN</DistanceMeters>
          </Trackpoint>
          <Trackpoint>
            <Time>2019-10-05T08:49:41.000Z</Time>
            <Position>
              <LatitudeDegrees>42.474067211151123046875</LatitudeDegrees>
              <LongitudeDegrees>-5.5826876498758792877197265625</LongitudeDegrees>
            </Position>
            <AltitudeMeters>705.20001220703125</AltitudeMeters>
            <DistanceMeters>NAN</DistanceMeters>
          </Trackpoint>
          <Trackpoint>
            <Time>2019-10-05T08:49:51.000Z</Time>
            <Position>
              <LatitudeDegrees>42.47349665500223636627197265625</LatitudeDegrees>
              <LongitudeDegrees>-5.5825656093657016754150390625</LongitudeDegrees>
            </Position>
            <AltitudeMeters>704.79998779296875</AltitudeMeters>
            <DistanceMeters>NAN</DistanceMeters>
          </Trackpoint>
          <Trackpoint>
            <Time>2019-10-05T08:49:53.000Z</Time>
            <Position>
              <LatitudeDegrees>42.4733783863484859466552734375</LatitudeDegrees>
              <LongitudeDegrees>-5.582540296018123626708984375</LongitudeDegrees>
            </Position>
            <AltitudeMeters>705.4000244140625</AltitudeMeters>
            <DistanceMeters>NAN</DistanceMeters>
          </Trackpoint>
          <Trackpoint>
            <Time>2019-10-05T08:49:56.000Z</Time>
            <Position>
              <LatitudeDegrees>42.47320161201059818267822265625</LatitudeDegrees>
              <LongitudeDegrees>-5.58250333182513713836669921875</LongitudeDegrees>
            </Position>
            <AltitudeMeters>704.4000244140625</AltitudeMeters>
            <DistanceMeters>NAN</DistanceMeters>
          </Trackpoint>
          <Trackpoint>
            <Time>2019-10-05T08:50:04.000Z</Time>
            <Position>
              <LatitudeDegrees>42.4727376736700534820556640625</LatitudeDegrees>
              <LongitudeDegrees>-5.58240878395736217498779296875</LongitudeDegrees>
            </Position>
            <AltitudeMeters>704.20001220703125</AltitudeMeters>
            <DistanceMeters>NAN</DistanceMeters>
          </Trackpoint>
          <Trackpoint>
            <Time>2019-10-05T08:50:09.000Z</Time>
            <Position>
              <LatitudeDegrees>42.47245226986706256866455078125</LatitudeDegrees>
              <LongitudeDegrees>-5.5823466740548610687255859375</LongitudeDegrees>
            </Position>
            <AltitudeMeters>703.4000244140625</AltitudeMeters>
            <DistanceMeters>NAN</DistanceMeters>
          </Trackpoint>
          <Trackpoint>
            <Time>2019-10-05T08:50:16.000Z</Time>
            <Position>
              <LatitudeDegrees>42.4720540456473827362060546875</LatitudeDegrees>
              <LongitudeDegrees>-5.58226210065186023712158203125</LongitudeDegrees>
            </Position>
            <AltitudeMeters>703.79998779296875</AltitudeMeters>
            <DistanceMeters>NAN</DistanceMeters>
          </Trackpoint>
          <Trackpoint>
            <Time>2019-10-05T08:50:25.000Z</Time>
            <Position>
              <LatitudeDegrees>42.47153378091752529144287109375</LatitudeDegrees>
              <LongitudeDegrees>-5.5821503698825836181640625</LongitudeDegrees>
            </Position>
            <AltitudeMeters>703.5999755859375</AltitudeMeters>
            <DistanceMeters>NAN</DistanceMeters>
          </Trackpoint>
          <Trackpoint>
            <Time>2019-10-05T08:50:30.000Z</Time>
            <Position>
              <LatitudeDegrees>42.47124913148581981658935546875</LatitudeDegrees>
              <LongitudeDegrees>-5.5820911936461925506591796875</LongitudeDegrees>
            </Position>
            <AltitudeMeters>703.79998779296875</AltitudeMeters>
            <DistanceMeters>NAN</DistanceMeters>
          </Trackpoint>
          <Trackpoint>
            <Time>2019-10-05T08:50:36.000Z</Time>
            <Position>
              <LatitudeDegrees>42.47091016732156276702880859375</LatitudeDegrees>
              <LongitudeDegrees>-5.5820207856595516204833984375</LongitudeDegrees>
            </Position>
            <AltitudeMeters>703.5999755859375</AltitudeMeters>
            <DistanceMeters>NAN</DistanceMeters>
          </Trackpoint>
          <Trackpoint>
            <Time>2019-10-05T08:50:44.000Z</Time>
            <Position>
              <LatitudeDegrees>42.47045268304646015167236328125</LatitudeDegrees>
              <LongitudeDegrees>-5.58192481286823749542236328125</LongitudeDegrees>
            </Position>
            <AltitudeMeters>703.4000244140625</AltitudeMeters>
            <DistanceMeters>NAN</DistanceMeters>
          </Trackpoint>
          <Trackpoint>
            <Time>2019-10-05T08:50:53.000Z</Time>
            <Position>
              <LatitudeDegrees>42.469942308962345123291015625</LatitudeDegrees>
              <LongitudeDegrees>-5.581815429031848907470703125</LongitudeDegrees>
            </Position>
            <AltitudeMeters>703.4000244140625</AltitudeMeters>
            <DistanceMeters>NAN</DistanceMeters>
          </Trackpoint>
          <Trackpoint>
            <Time>2019-10-05T08:51:03.000Z</Time>
            <Position>
              <LatitudeDegrees>42.46938834898173809051513671875</LatitudeDegrees>
              <LongitudeDegrees>-5.58170101605355739593505859375</LongitudeDegrees>
            </Position>
            <AltitudeMeters>703.20001220703125</AltitudeMeters>
            <DistanceMeters>NAN</DistanceMeters>
          </Trackpoint>
          <Trackpoint>
            <Time>2019-10-05T08:51:13.000Z</Time>
            <Position>
              <LatitudeDegrees>42.46882592327892780303955078125</LatitudeDegrees>
              <LongitudeDegrees>-5.58158249594271183013916015625</LongitudeDegrees>
            </Position>
            <AltitudeMeters>703.4000244140625</AltitudeMeters>
            <DistanceMeters>NAN</DistanceMeters>
          </Trackpoint>
          <Trackpoint>
            <Time>2019-10-05T08:51:22.000Z</Time>
            <Position>
              <LatitudeDegrees>42.4683167226612567901611328125</LatitudeDegrees>
              <LongitudeDegrees>-5.5814769677817821502685546875</LongitudeDegrees>
            </Position>
            <AltitudeMeters>702.4000244140625</AltitudeMeters>
            <DistanceMeters>NAN</DistanceMeters>
          </Trackpoint>
          <Trackpoint>
            <Time>2019-10-05T08:51:32.000Z</Time>
            <Position>
              <LatitudeDegrees>42.4677501060068607330322265625</LatitudeDegrees>
              <LongitudeDegrees>-5.5813582800328731536865234375</LongitudeDegrees>
            </Position>
            <AltitudeMeters>702.79998779296875</AltitudeMeters>
            <DistanceMeters>NAN</DistanceMeters>
          </Trackpoint>
          <Trackpoint>
            <Time>2019-10-05T08:51:42.000Z</Time>
            <Position>
              <LatitudeDegrees>42.46718726120889186859130859375</LatitudeDegrees>
              <LongitudeDegrees>-5.581244118511676788330078125</LongitudeDegrees>
            </Position>
            <AltitudeMeters>702.4000244140625</AltitudeMeters>
            <DistanceMeters>NAN</DistanceMeters>
          </Trackpoint>
          <Trackpoint>
            <Time>2019-10-05T08:51:45.000Z</Time>
            <Position>
              <LatitudeDegrees>42.46701727621257305145263671875</LatitudeDegrees>
              <LongitudeDegrees>-5.58120849542319774627685546875</LongitudeDegrees>
            </Position>
            <AltitudeMeters>702</AltitudeMeters>
            <DistanceMeters>NAN</DistanceMeters>
          </Trackpoint>
          <Trackpoint>
            <Time>2019-10-05T08:51:55.000Z</Time>
            <Position>
              <LatitudeDegrees>42.4664478935301303863525390625</LatitudeDegrees>
              <LongitudeDegrees>-5.5810863710939884185791015625</LongitudeDegrees>
            </Position>
            <AltitudeMeters>702</AltitudeMeters>
            <DistanceMeters>NAN</DistanceMeters>
          </Trackpoint>
          <Trackpoint>
            <Time>2019-10-05T08:52:01.000Z</Time>
            <Position>
              <LatitudeDegrees>42.46610498987138271331787109375</LatitudeDegrees>
              <LongitudeDegrees>-5.58101403526961803436279296875</LongitudeDegrees>
            </Position>
            <AltitudeMeters>701.79998779296875</AltitudeMeters>
            <DistanceMeters>NAN</DistanceMeters>
          </Trackpoint>
          <Trackpoint>
            <Time>2019-10-05T08:52:11.000Z</Time>
            <Position>
              <LatitudeDegrees>42.46552797965705394744873046875</LatitudeDegrees>
              <LongitudeDegrees>-5.580893419682979583740234375</LongitudeDegrees>
            </Position>
            <AltitudeMeters>701.79998779296875</AltitudeMeters>
            <DistanceMeters>NAN</DistanceMeters>
          </Trackpoint>
          <Trackpoint>
            <Time>2019-10-05T08:52:12.000Z</Time>
            <Position>
              <LatitudeDegrees>42.465468384325504302978515625</LatitudeDegrees>
              <LongitudeDegrees>-5.5808816850185394287109375</LongitudeDegrees>
            </Position>
            <AltitudeMeters>701.79998779296875</AltitudeMeters>
            <DistanceMeters>NAN</DistanceMeters>
          </Trackpoint>
          <Trackpoint>
            <Time>2019-10-05T08:52:14.000Z</Time>
            <Position>
              <LatitudeDegrees>42.46535061858594417572021484375</LatitudeDegrees>
              <LongitudeDegrees>-5.58086215518414974212646484375</LongitudeDegrees>
            </Position>
            <AltitudeMeters>701.20001220703125</AltitudeMeters>
            <DistanceMeters>NAN</DistanceMeters>
          </Trackpoint>
          <Trackpoint>
            <Time>2019-10-05T08:52:21.000Z</Time>
            <Position>
              <LatitudeDegrees>42.46494292281568050384521484375</LatitudeDegrees>
              <LongitudeDegrees>-5.5807698704302310943603515625</LongitudeDegrees>
            </Position>
            <AltitudeMeters>700.79998779296875</AltitudeMeters>
            <DistanceMeters>NAN</DistanceMeters>
          </Trackpoint>
          <Trackpoint>
            <Time>2019-10-05T08:52:31.000Z</Time>
            <Position>
              <LatitudeDegrees>42.46437571942806243896484375</LatitudeDegrees>
              <LongitudeDegrees>-5.5806505121290683746337890625</LongitudeDegrees>
            </Position>
            <AltitudeMeters>700.79998779296875</AltitudeMeters>
            <DistanceMeters>NAN</DistanceMeters>
          </Trackpoint>
          <Trackpoint>
            <Time>2019-10-05T08:52:33.000Z</Time>
            <Position>
              <LatitudeDegrees>42.464263401925563812255859375</LatitudeDegrees>
              <LongitudeDegrees>-5.5806287191808223724365234375</LongitudeDegrees>
            </Position>
            <AltitudeMeters>700.5999755859375</AltitudeMeters>
            <DistanceMeters>NAN</DistanceMeters>
          </Trackpoint>
          <Trackpoint>
            <Time>2019-10-05T08:52:43.000Z</Time>
            <Position>
              <LatitudeDegrees>42.4636991322040557861328125</LatitudeDegrees>
              <LongitudeDegrees>-5.5805061757564544677734375</LongitudeDegrees>
            </Position>
            <AltitudeMeters>700.79998779296875</AltitudeMeters>
            <DistanceMeters>NAN</DistanceMeters>
          </Trackpoint>
          <Trackpoint>
            <Time>2019-10-05T08:52:45.000Z</Time>
            <Position>
              <LatitudeDegrees>42.4635853059589862823486328125</LatitudeDegrees>
              <LongitudeDegrees>-5.5804832093417644500732421875</LongitudeDegrees>
            </Position>
            <AltitudeMeters>700.20001220703125</AltitudeMeters>
            <DistanceMeters>NAN</DistanceMeters>
          </Trackpoint>
          <Trackpoint>
            <Time>2019-10-05T08:52:53.000Z</Time>
            <Position>
              <LatitudeDegrees>42.46313477866351604461669921875</LatitudeDegrees>
              <LongitudeDegrees>-5.58038958348333835601806640625</LongitudeDegrees>
            </Position>
            <AltitudeMeters>700.5999755859375</AltitudeMeters>
            <DistanceMeters>NAN</DistanceMeters>
          </Trackpoint>
          <Trackpoint>
            <Time>2019-10-05T08:52:57.000Z</Time>
            <Position>
              <LatitudeDegrees>42.4629083834588527679443359375</LatitudeDegrees>
              <LongitudeDegrees>-5.580342225730419158935546875</LongitudeDegrees>
            </Position>
            <AltitudeMeters>700</AltitudeMeters>
            <DistanceMeters>NAN</DistanceMeters>
          </Trackpoint>
          <Trackpoint>
            <Time>2019-10-05T08:53:07.000Z</Time>
            <Position>
              <LatitudeDegrees>42.4623365700244903564453125</LatitudeDegrees>
              <LongitudeDegrees>-5.58022831566631793975830078125</LongitudeDegrees>
            </Position>
            <AltitudeMeters>700.20001220703125</AltitudeMeters>
            <DistanceMeters>NAN</DistanceMeters>
          </Trackpoint>
          <Trackpoint>
            <Time>2019-10-05T08:53:10.000Z</Time>
            <Position>
              <LatitudeDegrees>42.4621623940765857696533203125</LatitudeDegrees>
              <LongitudeDegrees>-5.58019076474010944366455078125</LongitudeDegrees>
            </Position>
            <AltitudeMeters>700</AltitudeMeters>
            <DistanceMeters>NAN</DistanceMeters>
          </Trackpoint>
          <Trackpoint>
            <Time>2019-10-05T08:53:19.000Z</Time>
            <Position>
              <LatitudeDegrees>42.46163777075707912445068359375</LatitudeDegrees>
              <LongitudeDegrees>-5.5800842307507991790771484375</LongitudeDegrees>
            </Position>
            <AltitudeMeters>699.20001220703125</AltitudeMeters>
            <DistanceMeters>NAN</DistanceMeters>
          </Trackpoint>
          <Trackpoint>
            <Time>2019-10-05T08:53:27.000Z</Time>
            <Position>
              <LatitudeDegrees>42.46118162758648395538330078125</LatitudeDegrees>
              <LongitudeDegrees>-5.5799849890172481536865234375</LongitudeDegrees>
            </Position>
            <AltitudeMeters>699.5999755859375</AltitudeMeters>
            <DistanceMeters>NAN</DistanceMeters>
          </Trackpoint>
          <Trackpoint>
            <Time>2019-10-05T08:53:37.000Z</Time>
            <Position>
              <LatitudeDegrees>42.460608892142772674560546875</LatitudeDegrees>
              <LongitudeDegrees>-5.57986470870673656463623046875</LongitudeDegrees>
            </Position>
            <AltitudeMeters>699.5999755859375</AltitudeMeters>
            <DistanceMeters>NAN</DistanceMeters>
          </Trackpoint>
          <Trackpoint>
            <Time>2019-10-05T08:53:47.000Z</Time>
            <Position>
              <LatitudeDegrees>42.4600374139845371246337890625</LatitudeDegrees>
              <LongitudeDegrees>-5.57974400930106639862060546875</LongitudeDegrees>
            </Position>
            <AltitudeMeters>699</AltitudeMeters>
            <DistanceMeters>NAN</DistanceMeters>
          </Trackpoint>
          <Trackpoint>
            <Time>2019-10-05T08:53:51.000Z</Time>
            <Position>
              <LatitudeDegrees>42.45980883948504924774169921875</LatitudeDegrees>
              <LongitudeDegrees>-5.5796956457197666168212890625</LongitudeDegrees>
            </Position>
            <AltitudeMeters>699</AltitudeMeters>
            <DistanceMeters>NAN</DistanceMeters>
          </Trackpoint>
          <Trackpoint>
            <Time>2019-10-05T08:54:01.000Z</Time>
            <Position>
              <LatitudeDegrees>42.45923987589776515960693359375</LatitudeDegrees>
              <LongitudeDegrees>-5.57958324439823627471923828125</LongitudeDegrees>
            </Position>
            <AltitudeMeters>698.5999755859375</AltitudeMeters>
            <DistanceMeters>NAN</DistanceMeters>
          </Trackpoint>
          <Trackpoint>
            <Time>2019-10-05T08:54:03.000Z</Time>
            <Position>
              <LatitudeDegrees>42.45912395417690277099609375</LatitudeDegrees>
              <LongitudeDegrees>-5.579556338489055633544921875</LongitudeDegrees>
            </Position>
            <AltitudeMeters>698.79998779296875</AltitudeMeters>
            <DistanceMeters>NAN</DistanceMeters>
          </Trackpoint>
          <Trackpoint>
            <Time>2019-10-05T08:54:12.000Z</Time>
            <Position>
              <LatitudeDegrees>42.458591870963573455810546875</LatitudeDegrees>
              <LongitudeDegrees>-5.57944661937654018402099609375</LongitudeDegrees>
            </Position>
            <AltitudeMeters>698.79998779296875</AltitudeMeters>
            <DistanceMeters>NAN</DistanceMeters>
          </Trackpoint>
          <Trackpoint>
            <Time>2019-10-05T08:54:21.000Z</Time>
            <Position>
              <LatitudeDegrees>42.45805216021835803985595703125</LatitudeDegrees>
              <LongitudeDegrees>-5.57932960800826549530029296875</LongitudeDegrees>
            </Position>
            <AltitudeMeters>698.79998779296875</AltitudeMeters>
            <DistanceMeters>NAN</DistanceMeters>
          </Trackpoint>
          <Trackpoint>
            <Time>2019-10-05T08:54:22.000Z</Time>
            <Position>
              <LatitudeDegrees>42.4579913914203643798828125</LatitudeDegrees>
              <LongitudeDegrees>-5.57931728661060333251953125</LongitudeDegrees>
            </Position>
            <AltitudeMeters>698.4000244140625</AltitudeMeters>
            <DistanceMeters>NAN</DistanceMeters>
          </Trackpoint>
          <Trackpoint>
            <Time>2019-10-05T08:54:24.000Z</Time>
            <Position>
              <LatitudeDegrees>42.457869350910186767578125</LatitudeDegrees>
              <LongitudeDegrees>-5.57929624803364276885986328125</LongitudeDegrees>
            </Position>
            <AltitudeMeters>697.79998779296875</AltitudeMeters>
            <DistanceMeters>NAN</DistanceMeters>
          </Trackpoint>
          <Trackpoint>
            <Time>2019-10-05T08:54:30.000Z</Time>
            <Position>
              <LatitudeDegrees>42.457519657909870147705078125</LatitudeDegrees>
              <LongitudeDegrees>-5.579221732914447784423828125</LongitudeDegrees>
            </Position>
            <AltitudeMeters>697.5999755859375</AltitudeMeters>
            <DistanceMeters>NAN</DistanceMeters>
          </Trackpoint>
          <Trackpoint>
            <Time>2019-10-05T08:54:38.000Z</Time>
            <Position>
              <LatitudeDegrees>42.45705421082675457000732421875</LatitudeDegrees>
              <LongitudeDegrees>-5.5791233293712139129638671875</LongitudeDegrees>
            </Position>
            <AltitudeMeters>697.79998779296875</AltitudeMeters>
            <DistanceMeters>NAN</DistanceMeters>
          </Trackpoint>
          <Trackpoint>
            <Time>2019-10-05T08:54:47.000Z</Time>
            <Position>
              <LatitudeDegrees>42.45652623474597930908203125</LatitudeDegrees>
              <LongitudeDegrees>-5.5790123529732227325439453125</LongitudeDegrees>
            </Position>
            <AltitudeMeters>697.4000244140625</AltitudeMeters>
            <DistanceMeters>NAN</DistanceMeters>
          </Trackpoint>
          <Trackpoint>
            <Time>2019-10-05T08:54:56.000Z</Time>
            <Position>
              <LatitudeDegrees>42.45600127615034580230712890625</LatitudeDegrees>
              <LongitudeDegrees>-5.57890581898391246795654296875</LongitudeDegrees>
            </Position>
            <AltitudeMeters>697.4000244140625</AltitudeMeters>
            <DistanceMeters>NAN</DistanceMeters>
          </Trackpoint>
          <Trackpoint>
            <Time>2019-10-05T08:54:57.000Z</Time>
            <Position>
              <LatitudeDegrees>42.4559420160949230194091796875</LatitudeDegrees>
              <LongitudeDegrees>-5.578894503414630889892578125</LongitudeDegrees>
            </Position>
            <AltitudeMeters>697.79998779296875</AltitudeMeters>
            <DistanceMeters>NAN</DistanceMeters>
          </Trackpoint>
          <Trackpoint>
            <Time>2019-10-05T08:55:04.000Z</Time>
            <Position>
              <LatitudeDegrees>42.45553390122950077056884765625</LatitudeDegrees>
              <LongitudeDegrees>-5.57880909182131290435791015625</LongitudeDegrees>
            </Position>
            <AltitudeMeters>697.79998779296875</AltitudeMeters>
            <DistanceMeters>NAN</DistanceMeters>
          </Trackpoint>
          <Trackpoint>
            <Time>2019-10-05T08:55:09.000Z</Time>
            <Position>
              <LatitudeDegrees>42.4552448093891143798828125</LatitudeDegrees>
              <LongitudeDegrees>-5.57875142432749271392822265625</LongitudeDegrees>
            </Position>
            <AltitudeMeters>697.4000244140625</AltitudeMeters>
            <DistanceMeters>NAN</DistanceMeters>
          </Trackpoint>
          <Trackpoint>
            <Time>2019-10-05T08:55:19.000Z</Time>
            <Position>
              <LatitudeDegrees>42.4546696431934833526611328125</LatitudeDegrees>
              <LongitudeDegrees>-5.57863692753016948699951171875</LongitudeDegrees>
            </Position>
            <AltitudeMeters>697.79998779296875</AltitudeMeters>
            <DistanceMeters>NAN</DistanceMeters>
          </Trackpoint>
          <Trackpoint>
            <Time>2019-10-05T08:55:20.000Z</Time>
            <Position>
              <LatitudeDegrees>42.45461289770901203155517578125</LatitudeDegrees>
              <LongitudeDegrees>-5.57862385176122188568115234375</LongitudeDegrees>
            </Position>
            <AltitudeMeters>697.79998779296875</AltitudeMeters>
            <DistanceMeters>NAN</DistanceMeters>
          </Trackpoint>
          <Trackpoint>
            <Time>2019-10-05T08:55:29.000Z</Time>
            <Position>
              <LatitudeDegrees>42.4540869332849979400634765625</LatitudeDegrees>
              <LongitudeDegrees>-5.57851396501064300537109375</LongitudeDegrees>
            </Position>
            <AltitudeMeters>697.5999755859375</AltitudeMeters>
            <DistanceMeters>NAN</DistanceMeters>
          </Trackpoint>
          <Trackpoint>
            <Time>2019-10-05T08:55:32.000Z</Time>
            <Position>
              <LatitudeDegrees>42.4539105780422687530517578125</LatitudeDegrees>
              <LongitudeDegrees>-5.57847582735121250152587890625</LongitudeDegrees>
            </Position>
            <AltitudeMeters>697.20001220703125</AltitudeMeters>
            <DistanceMeters>NAN</DistanceMeters>
          </Trackpoint>
          <Trackpoint>
            <Time>2019-10-05T08:55:34.000Z</Time>
            <Position>
              <LatitudeDegrees>42.453792728483676910400390625</LatitudeDegrees>
              <LongitudeDegrees>-5.5784527771174907684326171875</LongitudeDegrees>
            </Position>
            <AltitudeMeters>696.5999755859375</AltitudeMeters>
            <DistanceMeters>NAN</DistanceMeters>
          </Trackpoint>
          <Trackpoint>
            <Time>2019-10-05T08:55:43.000Z</Time>
            <Position>
              <LatitudeDegrees>42.4532497487962245941162109375</LatitudeDegrees>
              <LongitudeDegrees>-5.57834574021399021148681640625</LongitudeDegrees>
            </Position>
            <AltitudeMeters>695.79998779296875</AltitudeMeters>
            <DistanceMeters>NAN</DistanceMeters>
          </Trackpoint>
          <Trackpoint>
            <Time>2019-10-05T08:55:45.000Z</Time>
            <Position>
              <LatitudeDegrees>42.45312309823930263519287109375</LatitudeDegrees>
              <LongitudeDegrees>-5.57832009159028530120849609375</LongitudeDegrees>
            </Position>
            <AltitudeMeters>696</AltitudeMeters>
            <DistanceMeters>NAN</DistanceMeters>
          </Trackpoint>
          <Trackpoint>
            <Time>2019-10-05T08:55:47.000Z</Time>
            <Position>
              <LatitudeDegrees>42.4529949389398097991943359375</LatitudeDegrees>
              <LongitudeDegrees>-5.5782935209572315216064453125</LongitudeDegrees>
            </Position>
            <AltitudeMeters>695.5999755859375</AltitudeMeters>
            <DistanceMeters>NAN</DistanceMeters>
          </Trackpoint>
          <Trackpoint>
            <Time>2019-10-05T08:55:55.000Z</Time>
            <Position>
              <LatitudeDegrees>42.4524682201445102691650390625</LatitudeDegrees>
              <LongitudeDegrees>-5.57818413712084293365478515625</LongitudeDegrees>
            </Position>
            <AltitudeMeters>694.4000244140625</AltitudeMeters>
            <DistanceMeters>NAN</DistanceMeters>
          </Trackpoint>
          <Trackpoint>
            <Time>2019-10-05T08:55:56.000Z</Time>
            <Position>
              <LatitudeDegrees>42.4523988179862499237060546875</LatitudeDegrees>
              <LongitudeDegrees>-5.5781698040664196014404296875</LongitudeDegrees>
            </Position>
            <AltitudeMeters>694.20001220703125</AltitudeMeters>
            <DistanceMeters>NAN</DistanceMeters>
          </Trackpoint>
          <Trackpoint>
            <Time>2019-10-05T08:56:02.000Z</Time>
            <Position>
              <LatitudeDegrees>42.451982907950878143310546875</LatitudeDegrees>
              <LongitudeDegrees>-5.57808640412986278533935546875</LongitudeDegrees>
            </Position>
            <AltitudeMeters>693.4000244140625</AltitudeMeters>
            <DistanceMeters>NAN</DistanceMeters>
          </Trackpoint>
          <Trackpoint>
            <Time>2019-10-05T08:56:03.000Z</Time>
            <Position>
              <LatitudeDegrees>42.45191291905939579010009765625</LatitudeDegrees>
              <LongitudeDegrees>-5.5780688859522342681884765625</LongitudeDegrees>
            </Position>
            <AltitudeMeters>693</AltitudeMeters>
            <DistanceMeters>NAN</DistanceMeters>
          </Trackpoint>
          <Trackpoint>
            <Time>2019-10-05T08:56:05.000Z</Time>
            <Position>
              <LatitudeDegrees>42.45176933705806732177734375</LatitudeDegrees>
              <LongitudeDegrees>-5.57803762145340442657470703125</LongitudeDegrees>
            </Position>
            <AltitudeMeters>692.79998779296875</AltitudeMeters>
            <DistanceMeters>NAN</DistanceMeters>
          </Trackpoint>
          <Trackpoint>
            <Time>2019-10-05T08:56:08.000Z</Time>
            <Position>
              <LatitudeDegrees>42.4515485577285289764404296875</LatitudeDegrees>
              <LongitudeDegrees>-5.57799370028078556060791015625</LongitudeDegrees>
            </Position>
            <AltitudeMeters>692</AltitudeMeters>
            <DistanceMeters>NAN</DistanceMeters>
          </Trackpoint>
          <Trackpoint>
            <Time>2019-10-05T08:56:11.000Z</Time>
            <Position>
              <LatitudeDegrees>42.4513195641338825225830078125</LatitudeDegrees>
              <LongitudeDegrees>-5.57794877327978610992431640625</LongitudeDegrees>
            </Position>
            <AltitudeMeters>690.5999755859375</AltitudeMeters>
            <DistanceMeters>NAN</DistanceMeters>
          </Trackpoint>
          <Trackpoint>
            <Time>2019-10-05T08:56:13.000Z</Time>
            <Position>
              <LatitudeDegrees>42.45116181671619415283203125</LatitudeDegrees>
              <LongitudeDegrees>-5.57791658677160739898681640625</LongitudeDegrees>
            </Position>
            <AltitudeMeters>690.5999755859375</AltitudeMeters>
            <DistanceMeters>NAN</DistanceMeters>
          </Trackpoint>
          <Trackpoint>
            <Time>2019-10-05T08:56:17.000Z</Time>
            <Position>
              <LatitudeDegrees>42.45083550922572612762451171875</LatitudeDegrees>
              <LongitudeDegrees>-5.57784534059464931488037109375</LongitudeDegrees>
            </Position>
            <AltitudeMeters>689.20001220703125</AltitudeMeters>
            <DistanceMeters>NAN</DistanceMeters>
          </Trackpoint>
          <Trackpoint>
            <Time>2019-10-05T08:56:21.000Z</Time>
            <Position>
              <LatitudeDegrees>42.45049721561372280120849609375</LatitudeDegrees>
              <LongitudeDegrees>-5.577778033912181854248046875</LongitudeDegrees>
            </Position>
            <AltitudeMeters>688</AltitudeMeters>
            <DistanceMeters>NAN</DistanceMeters>
          </Trackpoint>
          <Trackpoint>
            <Time>2019-10-05T08:56:22.000Z</Time>
            <Position>
              <LatitudeDegrees>42.45041188783943653106689453125</LatitudeDegrees>
              <LongitudeDegrees>-5.577760599553585052490234375</LongitudeDegrees>
            </Position>
            <AltitudeMeters>687.5999755859375</AltitudeMeters>
            <DistanceMeters>NAN</DistanceMeters>
          </Trackpoint>
          <Trackpoint>
            <Time>2019-10-05T08:56:25.000Z</Time>
            <Position>
              <LatitudeDegrees>42.45015305466949939727783203125</LatitudeDegrees>
              <LongitudeDegrees>-5.577711649239063262939453125</LongitudeDegrees>
            </Position>
            <AltitudeMeters>687</AltitudeMeters>
            <DistanceMeters>NAN</DistanceMeters>
          </Trackpoint>
          <Trackpoint>
            <Time>2019-10-05T08:56:29.000Z</Time>
            <Position>
              <LatitudeDegrees>42.4498024396598339080810546875</LatitudeDegrees>
              <LongitudeDegrees>-5.5776518024504184722900390625</LongitudeDegrees>
            </Position>
            <AltitudeMeters>685.5999755859375</AltitudeMeters>
            <DistanceMeters>NAN</DistanceMeters>
          </Trackpoint>
          <Trackpoint>
            <Time>2019-10-05T08:56:31.000Z</Time>
            <Position>
              <LatitudeDegrees>42.449627928435802459716796875</LatitudeDegrees>
              <LongitudeDegrees>-5.57762221433222293853759765625</LongitudeDegrees>
            </Position>
            <AltitudeMeters>684.4000244140625</AltitudeMeters>
            <DistanceMeters>NAN</DistanceMeters>
          </Trackpoint>
          <Trackpoint>
            <Time>2019-10-05T08:56:33.000Z</Time>
            <Position>
              <LatitudeDegrees>42.4494574405252933502197265625</LatitudeDegrees>
              <LongitudeDegrees>-5.57759790681302547454833984375</LongitudeDegrees>
            </Position>
            <AltitudeMeters>683.20001220703125</AltitudeMeters>
            <DistanceMeters>NAN</DistanceMeters>
          </Trackpoint>
          <Trackpoint>
            <Time>2019-10-05T08:56:35.000Z</Time>
            <Position>
              <LatitudeDegrees>42.4492934904992580413818359375</LatitudeDegrees>
              <LongitudeDegrees>-5.57757577858865261077880859375</LongitudeDegrees>
            </Position>
            <AltitudeMeters>683.4000244140625</AltitudeMeters>
            <DistanceMeters>NAN</DistanceMeters>
          </Trackpoint>
          <Trackpoint>
            <Time>2019-10-05T08:56:37.000Z</Time>
            <Position>
              <LatitudeDegrees>42.4491325579583644866943359375</LatitudeDegrees>
              <LongitudeDegrees>-5.5775592662394046783447265625</LongitudeDegrees>
            </Position>
            <AltitudeMeters>683.5999755859375</AltitudeMeters>
            <DistanceMeters>NAN</DistanceMeters>
          </Trackpoint>
          <Trackpoint>
            <Time>2019-10-05T08:56:42.000Z</Time>
            <Position>
              <LatitudeDegrees>42.4487436376512050628662109375</LatitudeDegrees>
              <LongitudeDegrees>-5.57752481661736965179443359375</LongitudeDegrees>
            </Position>
            <AltitudeMeters>683.4000244140625</AltitudeMeters>
            <DistanceMeters>NAN</DistanceMeters>
          </Trackpoint>
          <Trackpoint>
            <Time>2019-10-05T08:56:45.000Z</Time>
            <Position>
              <LatitudeDegrees>42.44851724244654178619384765625</LatitudeDegrees>
              <LongitudeDegrees>-5.577499084174633026123046875</LongitudeDegrees>
            </Position>
            <AltitudeMeters>683.20001220703125</AltitudeMeters>
            <DistanceMeters>NAN</DistanceMeters>
          </Trackpoint>
          <Trackpoint>
            <Time>2019-10-05T08:56:53.000Z</Time>
            <Position>
              <LatitudeDegrees>42.44795548729598522186279296875</LatitudeDegrees>
              <LongitudeDegrees>-5.57744384743273258209228515625</LongitudeDegrees>
            </Position>
            <AltitudeMeters>683</AltitudeMeters>
            <DistanceMeters>NAN</DistanceMeters>
          </Trackpoint>
          <Trackpoint>
            <Time>2019-10-05T08:56:54.000Z</Time>
            <Position>
              <LatitudeDegrees>42.447891533374786376953125</LatitudeDegrees>
              <LongitudeDegrees>-5.577436722815036773681640625</LongitudeDegrees>
            </Position>
            <AltitudeMeters>683.20001220703125</AltitudeMeters>
            <DistanceMeters>NAN</DistanceMeters>
          </Trackpoint>
          <Trackpoint>
            <Time>2019-10-05T08:56:58.000Z</Time>
            <Position>
              <LatitudeDegrees>42.447643093764781951904296875</LatitudeDegrees>
              <LongitudeDegrees>-5.57741685770452022552490234375</LongitudeDegrees>
            </Position>
            <AltitudeMeters>684.20001220703125</AltitudeMeters>
            <DistanceMeters>NAN</DistanceMeters>
          </Trackpoint>
          <Trackpoint>
            <Time>2019-10-05T08:57:00.000Z</Time>
            <Position>
              <LatitudeDegrees>42.44752532802522182464599609375</LatitudeDegrees>
              <LongitudeDegrees>-5.57740780524909496307373046875</LongitudeDegrees>
            </Position>
            <AltitudeMeters>684.5999755859375</AltitudeMeters>
            <DistanceMeters>NAN</DistanceMeters>
          </Trackpoint>
          <Trackpoint>
            <Time>2019-10-05T08:57:02.000Z</Time>
            <Position>
              <LatitudeDegrees>42.4474149383604526519775390625</LatitudeDegrees>
              <LongitudeDegrees>-5.5773922987282276153564453125</LongitudeDegrees>
            </Position>
            <AltitudeMeters>684.79998779296875</AltitudeMeters>
            <DistanceMeters>NAN</DistanceMeters>
          </Trackpoint>
          <Trackpoint>
            <Time>2019-10-05T08:57:06.000Z</Time>
            <Position>
              <LatitudeDegrees>42.44719927199184894561767578125</LatitudeDegrees>
              <LongitudeDegrees>-5.57736866176128387451171875</LongitudeDegrees>
            </Position>
            <AltitudeMeters>685</AltitudeMeters>
            <DistanceMeters>NAN</DistanceMeters>
          </Trackpoint>
          <Trackpoint>
            <Time>2019-10-05T08:57:10.000Z</Time>
            <Position>
              <LatitudeDegrees>42.4470002017915248870849609375</LatitudeDegrees>
              <LongitudeDegrees>-5.5773480422794818878173828125</LongitudeDegrees>
            </Position>
            <AltitudeMeters>686</AltitudeMeters>
            <DistanceMeters>NAN</DistanceMeters>
          </Trackpoint>
          <Trackpoint>
            <Time>2019-10-05T08:57:11.000Z</Time>
            <Position>
              <LatitudeDegrees>42.446951083838939666748046875</LatitudeDegrees>
              <LongitudeDegrees>-5.57734393514692783355712890625</LongitudeDegrees>
            </Position>
            <AltitudeMeters>686.4000244140625</AltitudeMeters>
            <DistanceMeters>NAN</DistanceMeters>
          </Trackpoint>
          <Trackpoint>
            <Time>2019-10-05T08:57:16.000Z</Time>
            <Position>
              <LatitudeDegrees>42.44672619737684726715087890625</LatitudeDegrees>
              <LongitudeDegrees>-5.57732013054192066192626953125</LongitudeDegrees>
            </Position>
            <AltitudeMeters>686.5999755859375</AltitudeMeters>
            <DistanceMeters>NAN</DistanceMeters>
          </Trackpoint>
          <Trackpoint>
            <Time>2019-10-05T08:57:18.000Z</Time>
            <Position>
              <LatitudeDegrees>42.4466360919177532196044921875</LatitudeDegrees>
              <LongitudeDegrees>-5.57731141336262226104736328125</LongitudeDegrees>
            </Position>
            <AltitudeMeters>686.5999755859375</AltitudeMeters>
            <DistanceMeters>NAN</DistanceMeters>
          </Trackpoint>
          <Trackpoint>
            <Time>2019-10-05T08:57:19.000Z</Time>
            <Position>
              <LatitudeDegrees>42.4465946853160858154296875</LatitudeDegrees>
              <LongitudeDegrees>-5.57730923406779766082763671875</LongitudeDegrees>
            </Position>
            <AltitudeMeters>687</AltitudeMeters>
            <DistanceMeters>NAN</DistanceMeters>
          </Trackpoint>
          <Trackpoint>
            <Time>2019-10-05T08:57:24.000Z</Time>
            <Position>
              <LatitudeDegrees>42.446393184363842010498046875</LatitudeDegrees>
              <LongitudeDegrees>-5.57728626765310764312744140625</LongitudeDegrees>
            </Position>
            <AltitudeMeters>688.20001220703125</AltitudeMeters>
            <DistanceMeters>NAN</DistanceMeters>
          </Trackpoint>
          <Trackpoint>
            <Time>2019-10-05T08:57:27.000Z</Time>
            <Position>
              <LatitudeDegrees>42.4462763406336307525634765625</LatitudeDegrees>
              <LongitudeDegrees>-5.57727687992155551910400390625</LongitudeDegrees>
            </Position>
            <AltitudeMeters>687.79998779296875</AltitudeMeters>
            <DistanceMeters>NAN</DistanceMeters>
          </Trackpoint>
          <Trackpoint>
            <Time>2019-10-05T08:57:34.000Z</Time>
            <Position>
              <LatitudeDegrees>42.4460054375231266021728515625</LatitudeDegrees>
              <LongitudeDegrees>-5.57725072838366031646728515625</LongitudeDegrees>
            </Position>
            <AltitudeMeters>688.5999755859375</AltitudeMeters>
            <DistanceMeters>NAN</DistanceMeters>
          </Trackpoint>
          <Trackpoint>
            <Time>2019-10-05T08:57:36.000Z</Time>
            <Position>
              <LatitudeDegrees>42.44592874310910701751708984375</LatitudeDegrees>
              <LongitudeDegrees>-5.57724083773791790008544921875</LongitudeDegrees>
            </Position>
            <AltitudeMeters>689</AltitudeMeters>
            <DistanceMeters>NAN</DistanceMeters>
          </Trackpoint>
          <Trackpoint>
            <Time>2019-10-05T08:57:37.000Z</Time>
            <Position>
              <LatitudeDegrees>42.44589068926870822906494140625</LatitudeDegrees>
              <LongitudeDegrees>-5.5772363953292369842529296875</LongitudeDegrees>
            </Position>
            <AltitudeMeters>689.20001220703125</AltitudeMeters>
            <DistanceMeters>NAN</DistanceMeters>
          </Trackpoint>
          <Trackpoint>
            <Time>2019-10-05T08:57:42.000Z</Time>
            <Position>
              <LatitudeDegrees>42.44570192880928516387939453125</LatitudeDegrees>
              <LongitudeDegrees>-5.5772152729332447052001953125</LongitudeDegrees>
            </Position>
            <AltitudeMeters>690</AltitudeMeters>
            <DistanceMeters>NAN</DistanceMeters>
          </Trackpoint>
          <Trackpoint>
            <Time>2019-10-05T08:57:48.000Z</Time>
            <Position>
              <LatitudeDegrees>42.44547595269978046417236328125</LatitudeDegrees>
              <LongitudeDegrees>-5.577188618481159210205078125</LongitudeDegrees>
            </Position>
            <AltitudeMeters>690.20001220703125</AltitudeMeters>
            <DistanceMeters>NAN</DistanceMeters>
          </Trackpoint>
          <Trackpoint>
            <Time>2019-10-05T08:57:50.000Z</Time>
            <Position>
              <LatitudeDegrees>42.44540001265704631805419921875</LatitudeDegrees>
              <LongitudeDegrees>-5.57718283496797084808349609375</LongitudeDegrees>
            </Position>
            <AltitudeMeters>690.4000244140625</AltitudeMeters>
            <DistanceMeters>NAN</DistanceMeters>
          </Trackpoint>
          <Trackpoint>
            <Time>2019-10-05T08:57:59.000Z</Time>
            <Position>
              <LatitudeDegrees>42.44505199603736400604248046875</LatitudeDegrees>
              <LongitudeDegrees>-5.57714075781404972076416015625</LongitudeDegrees>
            </Position>
            <AltitudeMeters>691.4000244140625</AltitudeMeters>
            <DistanceMeters>NAN</DistanceMeters>
          </Trackpoint>
          <Trackpoint>
            <Time>2019-10-05T08:58:11.000Z</Time>
            <Position>
              <LatitudeDegrees>42.4445828609168529510498046875</LatitudeDegrees>
              <LongitudeDegrees>-5.577087365090847015380859375</LongitudeDegrees>
            </Position>
            <AltitudeMeters>691.5999755859375</AltitudeMeters>
            <DistanceMeters>NAN</DistanceMeters>
          </Trackpoint>
          <Trackpoint>
            <Time>2019-10-05T08:58:20.000Z</Time>
            <Position>
              <LatitudeDegrees>42.4442298151552677154541015625</LatitudeDegrees>
              <LongitudeDegrees>-5.57704285718500614166259765625</LongitudeDegrees>
            </Position>
            <AltitudeMeters>692.4000244140625</AltitudeMeters>
            <DistanceMeters>NAN</DistanceMeters>
          </Trackpoint>
          <Trackpoint>
            <Time>2019-10-05T08:58:21.000Z</Time>
            <Position>
              <LatitudeDegrees>42.44419033639132976531982421875</LatitudeDegrees>
              <LongitudeDegrees>-5.5770352296531200408935546875</LongitudeDegrees>
            </Position>
            <AltitudeMeters>692.5999755859375</AltitudeMeters>
            <DistanceMeters>NAN</DistanceMeters>
          </Trackpoint>
          <Trackpoint>
            <Time>2019-10-05T08:58:32.000Z</Time>
            <Position>
              <LatitudeDegrees>42.44373167864978313446044921875</LatitudeDegrees>
              <LongitudeDegrees>-5.57697898708283901214599609375</LongitudeDegrees>
            </Position>
            <AltitudeMeters>692.4000244140625</AltitudeMeters>
            <DistanceMeters>NAN</DistanceMeters>
          </Trackpoint>
          <Trackpoint>
            <Time>2019-10-05T08:58:42.000Z</Time>
            <Position>
              <LatitudeDegrees>42.44331141002476215362548828125</LatitudeDegrees>
              <LongitudeDegrees>-5.57692282833158969879150390625</LongitudeDegrees>
            </Position>
            <AltitudeMeters>693.20001220703125</AltitudeMeters>
            <DistanceMeters>NAN</DistanceMeters>
          </Trackpoint>
          <Trackpoint>
            <Time>2019-10-05T08:58:44.000Z</Time>
            <Position>
              <LatitudeDegrees>42.44322926737368106842041015625</LatitudeDegrees>
              <LongitudeDegrees>-5.576913021504878997802734375</LongitudeDegrees>
            </Position>
            <AltitudeMeters>693</AltitudeMeters>
            <DistanceMeters>NAN</DistanceMeters>
          </Trackpoint>
          <Trackpoint>
            <Time>2019-10-05T08:58:51.000Z</Time>
            <Position>
              <LatitudeDegrees>42.44293003343045711517333984375</LatitudeDegrees>
              <LongitudeDegrees>-5.57687706314027309417724609375</LongitudeDegrees>
            </Position>
            <AltitudeMeters>692.79998779296875</AltitudeMeters>
            <DistanceMeters>NAN</DistanceMeters>
          </Trackpoint>
          <Trackpoint>
            <Time>2019-10-05T08:58:54.000Z</Time>
            <Position>
              <LatitudeDegrees>42.442798353731632232666015625</LatitudeDegrees>
              <LongitudeDegrees>-5.57685694657266139984130859375</LongitudeDegrees>
            </Position>
            <AltitudeMeters>693.20001220703125</AltitudeMeters>
            <DistanceMeters>NAN</DistanceMeters>
          </Trackpoint>
          <Trackpoint>
            <Time>2019-10-05T08:59:03.000Z</Time>
            <Position>
              <LatitudeDegrees>42.4423809349536895751953125</LatitudeDegrees>
              <LongitudeDegrees>-5.576801709830760955810546875</LongitudeDegrees>
            </Position>
            <AltitudeMeters>692.79998779296875</AltitudeMeters>
            <DistanceMeters>NAN</DistanceMeters>
          </Trackpoint>
          <Trackpoint>
            <Time>2019-10-05T08:59:10.000Z</Time>
            <Position>
              <LatitudeDegrees>42.44203501380980014801025390625</LatitudeDegrees>
              <LongitudeDegrees>-5.57675602845847606658935546875</LongitudeDegrees>
            </Position>
            <AltitudeMeters>692.20001220703125</AltitudeMeters>
            <DistanceMeters>NAN</DistanceMeters>
          </Trackpoint>
          <Trackpoint>
            <Time>2019-10-05T08:59:14.000Z</Time>
            <Position>
              <LatitudeDegrees>42.44183669798076152801513671875</LatitudeDegrees>
              <LongitudeDegrees>-5.57672870345413684844970703125</LongitudeDegrees>
            </Position>
            <AltitudeMeters>692.79998779296875</AltitudeMeters>
            <DistanceMeters>NAN</DistanceMeters>
          </Trackpoint>
          <Trackpoint>
            <Time>2019-10-05T08:59:21.000Z</Time>
            <Position>
              <LatitudeDegrees>42.44149220176041126251220703125</LatitudeDegrees>
              <LongitudeDegrees>-5.57668268680572509765625</LongitudeDegrees>
            </Position>
            <AltitudeMeters>693</AltitudeMeters>
            <DistanceMeters>NAN</DistanceMeters>
          </Trackpoint>
          <Trackpoint>
            <Time>2019-10-05T08:59:29.000Z</Time>
            <Position>
              <LatitudeDegrees>42.441093139350414276123046875</LatitudeDegrees>
              <LongitudeDegrees>-5.57662962935864925384521484375</LongitudeDegrees>
            </Position>
            <AltitudeMeters>691.79998779296875</AltitudeMeters>
            <DistanceMeters>NAN</DistanceMeters>
          </Trackpoint>
          <Trackpoint>
            <Time>2019-10-05T08:59:34.000Z</Time>
            <Position>
              <LatitudeDegrees>42.44084411300718784332275390625</LatitudeDegrees>
              <LongitudeDegrees>-5.576594509184360504150390625</LongitudeDegrees>
            </Position>
            <AltitudeMeters>691.5999755859375</AltitudeMeters>
            <DistanceMeters>NAN</DistanceMeters>
          </Trackpoint>
          <Trackpoint>
            <Time>2019-10-05T08:59:40.000Z</Time>
            <Position>
              <LatitudeDegrees>42.4405463039875030517578125</LatitudeDegrees>
              <LongitudeDegrees>-5.57655871845781803131103515625</LongitudeDegrees>
            </Position>
            <AltitudeMeters>692.20001220703125</AltitudeMeters>
            <DistanceMeters>NAN</DistanceMeters>
          </Trackpoint>
          <Trackpoint>
            <Time>2019-10-05T08:59:51.000Z</Time>
            <Position>
              <LatitudeDegrees>42.43999636732041835784912109375</LatitudeDegrees>
              <LongitudeDegrees>-5.57648026384413242340087890625</LongitudeDegrees>
            </Position>
            <AltitudeMeters>691.5999755859375</AltitudeMeters>
            <DistanceMeters>NAN</DistanceMeters>
          </Trackpoint>
          <Trackpoint>
            <Time>2019-10-05T08:59:53.000Z</Time>
            <Position>
              <LatitudeDegrees>42.43990031071007251739501953125</LatitudeDegrees>
              <LongitudeDegrees>-5.57646852917969226837158203125</LongitudeDegrees>
            </Position>
            <AltitudeMeters>691.79998779296875</AltitudeMeters>
            <DistanceMeters>NAN</DistanceMeters>
          </Trackpoint>
          <Trackpoint>
            <Time>2019-10-05T09:00:02.000Z</Time>
            <Position>
              <LatitudeDegrees>42.4394600093364715576171875</LatitudeDegrees>
              <LongitudeDegrees>-5.5764092691242694854736328125</LongitudeDegrees>
            </Position>
            <AltitudeMeters>691.79998779296875</AltitudeMeters>
            <DistanceMeters>NAN</DistanceMeters>
          </Trackpoint>
          <Trackpoint>
            <Time>2019-10-05T09:00:13.000Z</Time>
            <Position>
              <LatitudeDegrees>42.4389079771935939788818359375</LatitudeDegrees>
              <LongitudeDegrees>-5.57633693329989910125732421875</LongitudeDegrees>
            </Position>
            <AltitudeMeters>691.4000244140625</AltitudeMeters>
            <DistanceMeters>NAN</DistanceMeters>
          </Trackpoint>
          <Trackpoint>
            <Time>2019-10-05T09:00:22.000Z</Time>
            <Position>
              <LatitudeDegrees>42.438453845679759979248046875</LatitudeDegrees>
              <LongitudeDegrees>-5.5762788467109203338623046875</LongitudeDegrees>
            </Position>
            <AltitudeMeters>692.20001220703125</AltitudeMeters>
            <DistanceMeters>NAN</DistanceMeters>
          </Trackpoint>
          <Trackpoint>
            <Time>2019-10-05T09:00:25.000Z</Time>
            <Position>
              <LatitudeDegrees>42.43830489926040172576904296875</LatitudeDegrees>
              <LongitudeDegrees>-5.57625931687653064727783203125</LongitudeDegrees>
            </Position>
            <AltitudeMeters>692.4000244140625</AltitudeMeters>
            <DistanceMeters>NAN</DistanceMeters>
          </Trackpoint>
          <Trackpoint>
            <Time>2019-10-05T09:00:32.000Z</Time>
            <Position>
              <LatitudeDegrees>42.437936179339885711669921875</LatitudeDegrees>
              <LongitudeDegrees>-5.576208941638469696044921875</LongitudeDegrees>
            </Position>
            <AltitudeMeters>692.5999755859375</AltitudeMeters>
            <DistanceMeters>NAN</DistanceMeters>
          </Trackpoint>
          <Trackpoint>
            <Time>2019-10-05T09:00:36.000Z</Time>
            <Position>
              <LatitudeDegrees>42.43772470392286777496337890625</LatitudeDegrees>
              <LongitudeDegrees>-5.5761816166341304779052734375</LongitudeDegrees>
            </Position>
            <AltitudeMeters>692.5999755859375</AltitudeMeters>
            <DistanceMeters>NAN</DistanceMeters>
          </Trackpoint>
          <Trackpoint>
            <Time>2019-10-05T09:00:42.000Z</Time>
            <Position>
              <LatitudeDegrees>42.4374146573245525360107421875</LatitudeDegrees>
              <LongitudeDegrees>-5.57614046148955821990966796875</LongitudeDegrees>
            </Position>
            <AltitudeMeters>693.4000244140625</AltitudeMeters>
            <DistanceMeters>NAN</DistanceMeters>
          </Trackpoint>
          <Trackpoint>
            <Time>2019-10-05T09:00:44.000Z</Time>
            <Position>
              <LatitudeDegrees>42.4373093806207180023193359375</LatitudeDegrees>
              <LongitudeDegrees>-5.57612269185483455657958984375</LongitudeDegrees>
            </Position>
            <AltitudeMeters>693.4000244140625</AltitudeMeters>
            <DistanceMeters>NAN</DistanceMeters>
          </Trackpoint>
          <Trackpoint>
            <Time>2019-10-05T09:00:49.000Z</Time>
            <Position>
              <LatitudeDegrees>42.4370656348764896392822265625</LatitudeDegrees>
              <LongitudeDegrees>-5.57609000243246555328369140625</LongitudeDegrees>
            </Position>
            <AltitudeMeters>693.5999755859375</AltitudeMeters>
            <DistanceMeters>NAN</DistanceMeters>
          </Trackpoint>
          <Trackpoint>
            <Time>2019-10-05T09:00:51.000Z</Time>
            <Position>
              <LatitudeDegrees>42.4369724281132221221923828125</LatitudeDegrees>
              <LongitudeDegrees>-5.57607675902545452117919921875</LongitudeDegrees>
            </Position>
            <AltitudeMeters>693.79998779296875</AltitudeMeters>
            <DistanceMeters>NAN</DistanceMeters>
          </Trackpoint>
          <Trackpoint>
            <Time>2019-10-05T09:00:58.000Z</Time>
            <Position>
              <LatitudeDegrees>42.43661544285714626312255859375</LatitudeDegrees>
              <LongitudeDegrees>-5.5760337598621845245361328125</LongitudeDegrees>
            </Position>
            <AltitudeMeters>694.20001220703125</AltitudeMeters>
            <DistanceMeters>NAN</DistanceMeters>
          </Trackpoint>
          <Trackpoint>
            <Time>2019-10-05T09:01:01.000Z</Time>
            <Position>
              <LatitudeDegrees>42.43646691553294658660888671875</LatitudeDegrees>
              <LongitudeDegrees>-5.57601188309490680694580078125</LongitudeDegrees>
            </Position>
            <AltitudeMeters>694.4000244140625</AltitudeMeters>
            <DistanceMeters>NAN</DistanceMeters>
          </Trackpoint>
          <Trackpoint>
            <Time>2019-10-05T09:01:05.000Z</Time>
            <Position>
              <LatitudeDegrees>42.4362654983997344970703125</LatitudeDegrees>
              <LongitudeDegrees>-5.5759864859282970428466796875</LongitudeDegrees>
            </Position>
            <AltitudeMeters>694.5999755859375</AltitudeMeters>
            <DistanceMeters>NAN</DistanceMeters>
          </Trackpoint>
          <Trackpoint>
            <Time>2019-10-05T09:01:14.000Z</Time>
            <Position>
              <LatitudeDegrees>42.4358019791543483734130859375</LatitudeDegrees>
              <LongitudeDegrees>-5.57592504657804965972900390625</LongitudeDegrees>
            </Position>
            <AltitudeMeters>695.5999755859375</AltitudeMeters>
            <DistanceMeters>NAN</DistanceMeters>
          </Trackpoint>
          <Trackpoint>
            <Time>2019-10-05T09:01:24.000Z</Time>
            <Position>
              <LatitudeDegrees>42.4352628551423549652099609375</LatitudeDegrees>
              <LongitudeDegrees>-5.5758530460298061370849609375</LongitudeDegrees>
            </Position>
            <AltitudeMeters>695.5999755859375</AltitudeMeters>
            <DistanceMeters>NAN</DistanceMeters>
          </Trackpoint>
          <Trackpoint>
            <Time>2019-10-05T09:01:26.000Z</Time>
            <Position>
              <LatitudeDegrees>42.43515464477241039276123046875</LatitudeDegrees>
              <LongitudeDegrees>-5.57583938352763652801513671875</LongitudeDegrees>
            </Position>
            <AltitudeMeters>695.5999755859375</AltitudeMeters>
            <DistanceMeters>NAN</DistanceMeters>
          </Trackpoint>
          <Trackpoint>
            <Time>2019-10-05T09:01:27.000Z</Time>
            <Position>
              <LatitudeDegrees>42.435099072754383087158203125</LatitudeDegrees>
              <LongitudeDegrees>-5.57583234272897243499755859375</LongitudeDegrees>
            </Position>
            <AltitudeMeters>695.79998779296875</AltitudeMeters>
            <DistanceMeters>NAN</DistanceMeters>
          </Trackpoint>
          <Trackpoint>
            <Time>2019-10-05T09:01:33.000Z</Time>
            <Position>
              <LatitudeDegrees>42.4347619526088237762451171875</LatitudeDegrees>
              <LongitudeDegrees>-5.57578020729124546051025390625</LongitudeDegrees>
            </Position>
            <AltitudeMeters>694.4000244140625</AltitudeMeters>
            <DistanceMeters>NAN</DistanceMeters>
          </Trackpoint>
          <Trackpoint>
            <Time>2019-10-05T09:01:34.000Z</Time>
            <Position>
              <LatitudeDegrees>42.43470554240047931671142578125</LatitudeDegrees>
              <LongitudeDegrees>-5.57577266357839107513427734375</LongitudeDegrees>
            </Position>
            <AltitudeMeters>694.5999755859375</AltitudeMeters>
            <DistanceMeters>NAN</DistanceMeters>
          </Trackpoint>
          <Trackpoint>
            <Time>2019-10-05T09:01:44.000Z</Time>
            <Position>
              <LatitudeDegrees>42.4341336451470851898193359375</LatitudeDegrees>
              <LongitudeDegrees>-5.5756884254515171051025390625</LongitudeDegrees>
            </Position>
            <AltitudeMeters>695</AltitudeMeters>
            <DistanceMeters>NAN</DistanceMeters>
          </Trackpoint>
          <Trackpoint>
            <Time>2019-10-05T09:01:53.000Z</Time>
            <Position>
              <LatitudeDegrees>42.43361270986497402191162109375</LatitudeDegrees>
              <LongitudeDegrees>-5.5756153352558612823486328125</LongitudeDegrees>
            </Position>
            <AltitudeMeters>694.4000244140625</AltitudeMeters>
            <DistanceMeters>NAN</DistanceMeters>
          </Trackpoint>
          <Trackpoint>
            <Time>2019-10-05T09:02:02.000Z</Time>
            <Position>
              <LatitudeDegrees>42.43309051729738712310791015625</LatitudeDegrees>
              <LongitudeDegrees>-5.575547106564044952392578125</LongitudeDegrees>
            </Position>
            <AltitudeMeters>694.79998779296875</AltitudeMeters>
            <DistanceMeters>NAN</DistanceMeters>
          </Trackpoint>
          <Trackpoint>
            <Time>2019-10-05T09:02:04.000Z</Time>
            <Position>
              <LatitudeDegrees>42.4329709075391292572021484375</LatitudeDegrees>
              <LongitudeDegrees>-5.57552875019609928131103515625</LongitudeDegrees>
            </Position>
            <AltitudeMeters>694.79998779296875</AltitudeMeters>
            <DistanceMeters>NAN</DistanceMeters>
          </Trackpoint>
          <Trackpoint>
            <Time>2019-10-05T09:02:12.000Z</Time>
            <Position>
              <LatitudeDegrees>42.432498000562191009521484375</LatitudeDegrees>
              <LongitudeDegrees>-5.57546655647456645965576171875</LongitudeDegrees>
            </Position>
            <AltitudeMeters>694.20001220703125</AltitudeMeters>
            <DistanceMeters>NAN</DistanceMeters>
          </Trackpoint>
          <Trackpoint>
            <Time>2019-10-05T09:02:14.000Z</Time>
            <Position>
              <LatitudeDegrees>42.432381995022296905517578125</LatitudeDegrees>
              <LongitudeDegrees>-5.57545180432498455047607421875</LongitudeDegrees>
            </Position>
            <AltitudeMeters>693.79998779296875</AltitudeMeters>
            <DistanceMeters>NAN</DistanceMeters>
          </Trackpoint>
          <Trackpoint>
            <Time>2019-10-05T09:02:19.000Z</Time>
            <Position>
              <LatitudeDegrees>42.43208737112581729888916015625</LatitudeDegrees>
              <LongitudeDegrees>-5.57541274465620517730712890625</LongitudeDegrees>
            </Position>
            <AltitudeMeters>694</AltitudeMeters>
            <DistanceMeters>NAN</DistanceMeters>
          </Trackpoint>
          <Trackpoint>
            <Time>2019-10-05T09:02:24.000Z</Time>
            <Position>
              <LatitudeDegrees>42.43179551325738430023193359375</LatitudeDegrees>
              <LongitudeDegrees>-5.57536899112164974212646484375</LongitudeDegrees>
            </Position>
            <AltitudeMeters>694.4000244140625</AltitudeMeters>
            <DistanceMeters>NAN</DistanceMeters>
          </Trackpoint>
          <Trackpoint>
            <Time>2019-10-05T09:02:33.000Z</Time>
            <Position>
              <LatitudeDegrees>42.43126594461500644683837890625</LatitudeDegrees>
              <LongitudeDegrees>-5.57529875077307224273681640625</LongitudeDegrees>
            </Position>
            <AltitudeMeters>693.4000244140625</AltitudeMeters>
            <DistanceMeters>NAN</DistanceMeters>
          </Trackpoint>
          <Trackpoint>
            <Time>2019-10-05T09:02:35.000Z</Time>
            <Position>
              <LatitudeDegrees>42.43114993907511234283447265625</LatitudeDegrees>
              <LongitudeDegrees>-5.5752830766141414642333984375</LongitudeDegrees>
            </Position>
            <AltitudeMeters>693.79998779296875</AltitudeMeters>
            <DistanceMeters>NAN</DistanceMeters>
          </Trackpoint>
          <Trackpoint>
            <Time>2019-10-05T09:02:44.000Z</Time>
            <Position>
              <LatitudeDegrees>42.430621795356273651123046875</LatitudeDegrees>
              <LongitudeDegrees>-5.575211159884929656982421875</LongitudeDegrees>
            </Position>
            <AltitudeMeters>694</AltitudeMeters>
            <DistanceMeters>NAN</DistanceMeters>
          </Trackpoint>
          <Trackpoint>
            <Time>2019-10-05T09:02:46.000Z</Time>
            <Position>
              <LatitudeDegrees>42.43050117976963520050048828125</LatitudeDegrees>
              <LongitudeDegrees>-5.57519548572599887847900390625</LongitudeDegrees>
            </Position>
            <AltitudeMeters>694</AltitudeMeters>
            <DistanceMeters>NAN</DistanceMeters>
          </Trackpoint>
          <Trackpoint>
            <Time>2019-10-05T09:02:55.000Z</Time>
            <Position>
              <LatitudeDegrees>42.42996431887149810791015625</LatitudeDegrees>
              <LongitudeDegrees>-5.57511317543685436248779296875</LongitudeDegrees>
            </Position>
            <AltitudeMeters>693</AltitudeMeters>
            <DistanceMeters>NAN</DistanceMeters>
          </Trackpoint>
          <Trackpoint>
            <Time>2019-10-05T09:02:57.000Z</Time>
            <Position>
              <LatitudeDegrees>42.42984764277935028076171875</LatitudeDegrees>
              <LongitudeDegrees>-5.5750943161547183990478515625</LongitudeDegrees>
            </Position>
            <AltitudeMeters>693</AltitudeMeters>
            <DistanceMeters>NAN</DistanceMeters>
          </Trackpoint>
          <Trackpoint>
            <Time>2019-10-05T09:03:06.000Z</Time>
            <Position>
              <LatitudeDegrees>42.4293083511292934417724609375</LatitudeDegrees>
              <LongitudeDegrees>-5.575022064149379730224609375</LongitudeDegrees>
            </Position>
            <AltitudeMeters>692.5999755859375</AltitudeMeters>
            <DistanceMeters>NAN</DistanceMeters>
          </Trackpoint>
          <Trackpoint>
            <Time>2019-10-05T09:03:07.000Z</Time>
            <Position>
              <LatitudeDegrees>42.4292488396167755126953125</LatitudeDegrees>
              <LongitudeDegrees>-5.57501234114170074462890625</LongitudeDegrees>
            </Position>
            <AltitudeMeters>693</AltitudeMeters>
            <DistanceMeters>NAN</DistanceMeters>
          </Trackpoint>
          <Trackpoint>
            <Time>2019-10-05T09:03:15.000Z</Time>
            <Position>
              <LatitudeDegrees>42.4287598393857479095458984375</LatitudeDegrees>
              <LongitudeDegrees>-5.57494520209729671478271484375</LongitudeDegrees>
            </Position>
            <AltitudeMeters>693</AltitudeMeters>
            <DistanceMeters>NAN</DistanceMeters>
          </Trackpoint>
          <Trackpoint>
            <Time>2019-10-05T09:03:23.000Z</Time>
            <Position>
              <LatitudeDegrees>42.428266815841197967529296875</LatitudeDegrees>
              <LongitudeDegrees>-5.5748706869781017303466796875</LongitudeDegrees>
            </Position>
            <AltitudeMeters>692.79998779296875</AltitudeMeters>
            <DistanceMeters>NAN</DistanceMeters>
          </Trackpoint>
          <Trackpoint>
            <Time>2019-10-05T09:03:26.000Z</Time>
            <Position>
              <LatitudeDegrees>42.42808350361883640289306640625</LatitudeDegrees>
              <LongitudeDegrees>-5.57484813965857028961181640625</LongitudeDegrees>
            </Position>
            <AltitudeMeters>692.5999755859375</AltitudeMeters>
            <DistanceMeters>NAN</DistanceMeters>
          </Trackpoint>
          <Trackpoint>
            <Time>2019-10-05T09:03:31.000Z</Time>
            <Position>
              <LatitudeDegrees>42.427786029875278472900390625</LatitudeDegrees>
              <LongitudeDegrees>-5.57480690069496631622314453125</LongitudeDegrees>
            </Position>
            <AltitudeMeters>692.20001220703125</AltitudeMeters>
            <DistanceMeters>NAN</DistanceMeters>
          </Trackpoint>
          <Trackpoint>
            <Time>2019-10-05T09:03:37.000Z</Time>
            <Position>
              <LatitudeDegrees>42.42743306793272495269775390625</LatitudeDegrees>
              <LongitudeDegrees>-5.574755184352397918701171875</LongitudeDegrees>
            </Position>
            <AltitudeMeters>692.20001220703125</AltitudeMeters>
            <DistanceMeters>NAN</DistanceMeters>
          </Trackpoint>
          <Trackpoint>
            <Time>2019-10-05T09:03:46.000Z</Time>
            <Position>
              <LatitudeDegrees>42.4268970452249050140380859375</LatitudeDegrees>
              <LongitudeDegrees>-5.57468871586024761199951171875</LongitudeDegrees>
            </Position>
            <AltitudeMeters>692.20001220703125</AltitudeMeters>
            <DistanceMeters>NAN</DistanceMeters>
          </Trackpoint>
          <Trackpoint>
            <Time>2019-10-05T09:03:55.000Z</Time>
            <Position>
              <LatitudeDegrees>42.42634467780590057373046875</LatitudeDegrees>
              <LongitudeDegrees>-5.57461009360849857330322265625</LongitudeDegrees>
            </Position>
            <AltitudeMeters>692.20001220703125</AltitudeMeters>
            <DistanceMeters>NAN</DistanceMeters>
          </Trackpoint>
          <Trackpoint>
            <Time>2019-10-05T09:03:57.000Z</Time>
            <Position>
              <LatitudeDegrees>42.4262194521725177764892578125</LatitudeDegrees>
              <LongitudeDegrees>-5.57459316216409206390380859375</LongitudeDegrees>
            </Position>
            <AltitudeMeters>692</AltitudeMeters>
            <DistanceMeters>NAN</DistanceMeters>
          </Trackpoint>
          <Trackpoint>
            <Time>2019-10-05T09:04:06.000Z</Time>
            <Position>
              <LatitudeDegrees>42.4256441183388233184814453125</LatitudeDegrees>
              <LongitudeDegrees>-5.574512779712677001953125</LongitudeDegrees>
            </Position>
            <AltitudeMeters>691.5999755859375</AltitudeMeters>
            <DistanceMeters>NAN</DistanceMeters>
          </Trackpoint>
          <Trackpoint>
            <Time>2019-10-05T09:04:07.000Z</Time>
            <Position>
              <LatitudeDegrees>42.425579242408275604248046875</LatitudeDegrees>
              <LongitudeDegrees>-5.57450397871434688568115234375</LongitudeDegrees>
            </Position>
            <AltitudeMeters>691.79998779296875</AltitudeMeters>
            <DistanceMeters>NAN</DistanceMeters>
          </Trackpoint>
          <Trackpoint>
            <Time>2019-10-05T09:04:08.000Z</Time>
            <Position>
              <LatitudeDegrees>42.4255150370299816131591796875</LatitudeDegrees>
              <LongitudeDegrees>-5.57449542917311191558837890625</LongitudeDegrees>
            </Position>
            <AltitudeMeters>691</AltitudeMeters>
            <DistanceMeters>NAN</DistanceMeters>
          </Trackpoint>
          <Trackpoint>
            <Time>2019-10-05T09:04:15.000Z</Time>
            <Position>
              <LatitudeDegrees>42.4250644259154796600341796875</LatitudeDegrees>
              <LongitudeDegrees>-5.57443960569798946380615234375</LongitudeDegrees>
            </Position>
            <AltitudeMeters>691.20001220703125</AltitudeMeters>
            <DistanceMeters>NAN</DistanceMeters>
          </Trackpoint>
          <Trackpoint>
            <Time>2019-10-05T09:04:24.000Z</Time>
            <Position>
              <LatitudeDegrees>42.42449336685240268707275390625</LatitudeDegrees>
              <LongitudeDegrees>-5.5743620730936527252197265625</LongitudeDegrees>
            </Position>
            <AltitudeMeters>691.4000244140625</AltitudeMeters>
            <DistanceMeters>NAN</DistanceMeters>
          </Trackpoint>
          <Trackpoint>
            <Time>2019-10-05T09:04:33.000Z</Time>
            <Position>
              <LatitudeDegrees>42.423914261162281036376953125</LatitudeDegrees>
              <LongitudeDegrees>-5.5742847919464111328125</LongitudeDegrees>
            </Position>
            <AltitudeMeters>691.20001220703125</AltitudeMeters>
            <DistanceMeters>NAN</DistanceMeters>
          </Trackpoint>
          <Trackpoint>
            <Time>2019-10-05T09:04:36.000Z</Time>
            <Position>
              <LatitudeDegrees>42.42372441105544567108154296875</LatitudeDegrees>
              <LongitudeDegrees>-5.57426056824624538421630859375</LongitudeDegrees>
            </Position>
            <AltitudeMeters>690.79998779296875</AltitudeMeters>
            <DistanceMeters>NAN</DistanceMeters>
          </Trackpoint>
          <Trackpoint>
            <Time>2019-10-05T09:04:45.000Z</Time>
            <Position>
              <LatitudeDegrees>42.42314253933727741241455078125</LatitudeDegrees>
              <LongitudeDegrees>-5.57418446056544780731201171875</LongitudeDegrees>
            </Position>
            <AltitudeMeters>690.79998779296875</AltitudeMeters>
            <DistanceMeters>NAN</DistanceMeters>
          </Trackpoint>
          <Trackpoint>
            <Time>2019-10-05T09:04:48.000Z</Time>
            <Position>
              <LatitudeDegrees>42.422952689230442047119140625</LatitudeDegrees>
              <LongitudeDegrees>-5.57416115887463092803955078125</LongitudeDegrees>
            </Position>
            <AltitudeMeters>690.4000244140625</AltitudeMeters>
            <DistanceMeters>NAN</DistanceMeters>
          </Trackpoint>
          <Trackpoint>
            <Time>2019-10-05T09:04:57.000Z</Time>
            <Position>
              <LatitudeDegrees>42.42237593047320842742919921875</LatitudeDegrees>
              <LongitudeDegrees>-5.5740871466696262359619140625</LongitudeDegrees>
            </Position>
            <AltitudeMeters>691</AltitudeMeters>
            <DistanceMeters>NAN</DistanceMeters>
          </Trackpoint>
          <Trackpoint>
            <Time>2019-10-05T09:04:59.000Z</Time>
            <Position>
              <LatitudeDegrees>42.422249950468540191650390625</LatitudeDegrees>
              <LongitudeDegrees>-5.5740702152252197265625</LongitudeDegrees>
            </Position>
            <AltitudeMeters>689.79998779296875</AltitudeMeters>
            <DistanceMeters>NAN</DistanceMeters>
          </Trackpoint>
          <Trackpoint>
            <Time>2019-10-05T09:05:08.000Z</Time>
            <Position>
              <LatitudeDegrees>42.42169531993567943572998046875</LatitudeDegrees>
              <LongitudeDegrees>-5.57399687357246875762939453125</LongitudeDegrees>
            </Position>
            <AltitudeMeters>690.4000244140625</AltitudeMeters>
            <DistanceMeters>NAN</DistanceMeters>
          </Trackpoint>
          <Trackpoint>
            <Time>2019-10-05T09:05:17.000Z</Time>
            <Position>
              <LatitudeDegrees>42.4211651645600795745849609375</LatitudeDegrees>
              <LongitudeDegrees>-5.5739248730242252349853515625</LongitudeDegrees>
            </Position>
            <AltitudeMeters>690.79998779296875</AltitudeMeters>
            <DistanceMeters>NAN</DistanceMeters>
          </Trackpoint>
          <Trackpoint>
            <Time>2019-10-05T09:05:18.000Z</Time>
            <Position>
              <LatitudeDegrees>42.42110623978078365325927734375</LatitudeDegrees>
              <LongitudeDegrees>-5.5739171616733074188232421875</LongitudeDegrees>
            </Position>
            <AltitudeMeters>690.79998779296875</AltitudeMeters>
            <DistanceMeters>NAN</DistanceMeters>
          </Trackpoint>
          <Trackpoint>
            <Time>2019-10-05T09:05:20.000Z</Time>
            <Position>
              <LatitudeDegrees>42.420988641679286956787109375</LatitudeDegrees>
              <LongitudeDegrees>-5.5739007331430912017822265625</LongitudeDegrees>
            </Position>
            <AltitudeMeters>690.79998779296875</AltitudeMeters>
            <DistanceMeters>NAN</DistanceMeters>
          </Trackpoint>
          <Trackpoint>
            <Time>2019-10-05T09:05:29.000Z</Time>
            <Position>
              <LatitudeDegrees>42.4204552173614501953125</LatitudeDegrees>
              <LongitudeDegrees>-5.573835186660289764404296875</LongitudeDegrees>
            </Position>
            <AltitudeMeters>690.79998779296875</AltitudeMeters>
            <DistanceMeters>NAN</DistanceMeters>
          </Trackpoint>
          <Trackpoint>
            <Time>2019-10-05T09:05:34.000Z</Time>
            <Position>
              <LatitudeDegrees>42.4201583303511142730712890625</LatitudeDegrees>
              <LongitudeDegrees>-5.57379662990570068359375</LongitudeDegrees>
            </Position>
            <AltitudeMeters>689.79998779296875</AltitudeMeters>
            <DistanceMeters>NAN</DistanceMeters>
          </Trackpoint>
          <Trackpoint>
            <Time>2019-10-05T09:05:40.000Z</Time>
            <Position>
              <LatitudeDegrees>42.4198012612760066986083984375</LatitudeDegrees>
              <LongitudeDegrees>-5.57374742813408374786376953125</LongitudeDegrees>
            </Position>
            <AltitudeMeters>690.20001220703125</AltitudeMeters>
            <DistanceMeters>NAN</DistanceMeters>
          </Trackpoint>
          <Trackpoint>
            <Time>2019-10-05T09:05:49.000Z</Time>
            <Position>
              <LatitudeDegrees>42.4192789010703563690185546875</LatitudeDegrees>
              <LongitudeDegrees>-5.57367735542356967926025390625</LongitudeDegrees>
            </Position>
            <AltitudeMeters>689.5999755859375</AltitudeMeters>
            <DistanceMeters>NAN</DistanceMeters>
          </Trackpoint>
          <Trackpoint>
            <Time>2019-10-05T09:05:51.000Z</Time>
            <Position>
              <LatitudeDegrees>42.419162727892398834228515625</LatitudeDegrees>
              <LongitudeDegrees>-5.57366478256881237030029296875</LongitudeDegrees>
            </Position>
            <AltitudeMeters>689.79998779296875</AltitudeMeters>
            <DistanceMeters>NAN</DistanceMeters>
          </Trackpoint>
          <Trackpoint>
            <Time>2019-10-05T09:06:00.000Z</Time>
            <Position>
              <LatitudeDegrees>42.418660484254360198974609375</LatitudeDegrees>
              <LongitudeDegrees>-5.57359638623893260955810546875</LongitudeDegrees>
            </Position>
            <AltitudeMeters>689.20001220703125</AltitudeMeters>
            <DistanceMeters>NAN</DistanceMeters>
          </Trackpoint>
          <Trackpoint>
            <Time>2019-10-05T09:06:07.000Z</Time>
            <Position>
              <LatitudeDegrees>42.4183220230042934417724609375</LatitudeDegrees>
              <LongitudeDegrees>-5.57355263270437717437744140625</LongitudeDegrees>
            </Position>
            <AltitudeMeters>689.5999755859375</AltitudeMeters>
            <DistanceMeters>NAN</DistanceMeters>
          </Trackpoint>
          <Trackpoint>
            <Time>2019-10-05T09:06:14.000Z</Time>
            <Position>
              <LatitudeDegrees>42.41799294948577880859375</LatitudeDegrees>
              <LongitudeDegrees>-5.5735101364552974700927734375</LongitudeDegrees>
            </Position>
            <AltitudeMeters>689.79998779296875</AltitudeMeters>
            <DistanceMeters>NAN</DistanceMeters>
          </Trackpoint>
          <Trackpoint>
            <Time>2019-10-05T09:06:21.000Z</Time>
            <Position>
              <LatitudeDegrees>42.41768038831651210784912109375</LatitudeDegrees>
              <LongitudeDegrees>-5.57346311397850513458251953125</LongitudeDegrees>
            </Position>
            <AltitudeMeters>689.20001220703125</AltitudeMeters>
            <DistanceMeters>NAN</DistanceMeters>
          </Trackpoint>
          <Trackpoint>
            <Time>2019-10-05T09:06:23.000Z</Time>
            <Position>
              <LatitudeDegrees>42.41759908385574817657470703125</LatitudeDegrees>
              <LongitudeDegrees>-5.573453642427921295166015625</LongitudeDegrees>
            </Position>
            <AltitudeMeters>689.4000244140625</AltitudeMeters>
            <DistanceMeters>NAN</DistanceMeters>
          </Trackpoint>
          <Trackpoint>
            <Time>2019-10-05T09:06:28.000Z</Time>
            <Position>
              <LatitudeDegrees>42.41743312217295169830322265625</LatitudeDegrees>
              <LongitudeDegrees>-5.57343176566064357757568359375</LongitudeDegrees>
            </Position>
            <AltitudeMeters>689.79998779296875</AltitudeMeters>
            <DistanceMeters>NAN</DistanceMeters>
          </Trackpoint>
          <Trackpoint>
            <Time>2019-10-05T09:06:29.000Z</Time>
            <Position>
              <LatitudeDegrees>42.4174060486257076263427734375</LatitudeDegrees>
              <LongitudeDegrees>-5.57342858053743839263916015625</LongitudeDegrees>
            </Position>
            <AltitudeMeters>689.79998779296875</AltitudeMeters>
            <DistanceMeters>NAN</DistanceMeters>
          </Trackpoint>
          <Trackpoint>
            <Time>2019-10-05T09:06:36.000Z</Time>
            <Position>
              <LatitudeDegrees>42.41720563732087612152099609375</LatitudeDegrees>
              <LongitudeDegrees>-5.5733956396579742431640625</LongitudeDegrees>
            </Position>
            <AltitudeMeters>690</AltitudeMeters>
            <DistanceMeters>NAN</DistanceMeters>
          </Trackpoint>
          <Trackpoint>
            <Time>2019-10-05T09:06:39.000Z</Time>
            <Position>
              <LatitudeDegrees>42.41712584160268306732177734375</LatitudeDegrees>
              <LongitudeDegrees>-5.5733840726315975189208984375</LongitudeDegrees>
            </Position>
            <AltitudeMeters>689.79998779296875</AltitudeMeters>
            <DistanceMeters>NAN</DistanceMeters>
          </Trackpoint>
          <Trackpoint>
            <Time>2019-10-05T09:06:41.000Z</Time>
            <Position>
              <LatitudeDegrees>42.417075298726558685302734375</LatitudeDegrees>
              <LongitudeDegrees>-5.573379881680011749267578125</LongitudeDegrees>
            </Position>
            <AltitudeMeters>689.79998779296875</AltitudeMeters>
            <DistanceMeters>NAN</DistanceMeters>
          </Trackpoint>
          <Trackpoint>
            <Time>2019-10-05T09:06:44.000Z</Time>
            <Position>
              <LatitudeDegrees>42.41700346581637859344482421875</LatitudeDegrees>
              <LongitudeDegrees>-5.5733770318329334259033203125</LongitudeDegrees>
            </Position>
            <AltitudeMeters>690</AltitudeMeters>
            <DistanceMeters>NAN</DistanceMeters>
          </Trackpoint>
          <Trackpoint>
            <Time>2019-10-05T09:06:48.000Z</Time>
            <Position>
              <LatitudeDegrees>42.41690640337765216827392578125</LatitudeDegrees>
              <LongitudeDegrees>-5.57336102239787578582763671875</LongitudeDegrees>
            </Position>
            <AltitudeMeters>689.79998779296875</AltitudeMeters>
            <DistanceMeters>NAN</DistanceMeters>
          </Trackpoint>
          <Trackpoint>
            <Time>2019-10-05T09:06:51.000Z</Time>
            <Position>
              <LatitudeDegrees>42.41681185550987720489501953125</LatitudeDegrees>
              <LongitudeDegrees>-5.57334844954311847686767578125</LongitudeDegrees>
            </Position>
            <AltitudeMeters>689.5999755859375</AltitudeMeters>
            <DistanceMeters>NAN</DistanceMeters>
          </Trackpoint>
          <Trackpoint>
            <Time>2019-10-05T09:06:57.000Z</Time>
            <Position>
              <LatitudeDegrees>42.41657833568751811981201171875</LatitudeDegrees>
              <LongitudeDegrees>-5.57331928052008152008056640625</LongitudeDegrees>
            </Position>
            <AltitudeMeters>689.4000244140625</AltitudeMeters>
            <DistanceMeters>NAN</DistanceMeters>
          </Trackpoint>
          <Trackpoint>
            <Time>2019-10-05T09:06:58.000Z</Time>
            <Position>
              <LatitudeDegrees>42.4165393598377704620361328125</LatitudeDegrees>
              <LongitudeDegrees>-5.57331374846398830413818359375</LongitudeDegrees>
            </Position>
            <AltitudeMeters>689.5999755859375</AltitudeMeters>
            <DistanceMeters>NAN</DistanceMeters>
          </Trackpoint>
          <Trackpoint>
            <Time>2019-10-05T09:07:04.000Z</Time>
            <Position>
              <LatitudeDegrees>42.41630106233060359954833984375</LatitudeDegrees>
              <LongitudeDegrees>-5.5732855014503002166748046875</LongitudeDegrees>
            </Position>
            <AltitudeMeters>689.20001220703125</AltitudeMeters>
            <DistanceMeters>NAN</DistanceMeters>
          </Trackpoint>
          <Trackpoint>
            <Time>2019-10-05T09:07:07.000Z</Time>
            <Position>
              <LatitudeDegrees>42.4161574803292751312255859375</LatitudeDegrees>
              <LongitudeDegrees>-5.57326513342559337615966796875</LongitudeDegrees>
            </Position>
            <AltitudeMeters>688.79998779296875</AltitudeMeters>
            <DistanceMeters>NAN</DistanceMeters>
          </Trackpoint>
          <Trackpoint>
            <Time>2019-10-05T09:07:11.000Z</Time>
            <Position>
              <LatitudeDegrees>42.415948100388050079345703125</LatitudeDegrees>
              <LongitudeDegrees>-5.573235712945461273193359375</LongitudeDegrees>
            </Position>
            <AltitudeMeters>688.5999755859375</AltitudeMeters>
            <DistanceMeters>NAN</DistanceMeters>
          </Trackpoint>
          <Trackpoint>
            <Time>2019-10-05T09:07:12.000Z</Time>
            <Position>
              <LatitudeDegrees>42.415894456207752227783203125</LatitudeDegrees>
              <LongitudeDegrees>-5.5732281692326068878173828125</LongitudeDegrees>
            </Position>
            <AltitudeMeters>688.79998779296875</AltitudeMeters>
            <DistanceMeters>NAN</DistanceMeters>
          </Trackpoint>
          <Trackpoint>
            <Time>2019-10-05T09:07:18.000Z</Time>
            <Position>
              <LatitudeDegrees>42.415565215051174163818359375</LatitudeDegrees>
              <LongitudeDegrees>-5.5731852538883686065673828125</LongitudeDegrees>
            </Position>
            <AltitudeMeters>688.4000244140625</AltitudeMeters>
            <DistanceMeters>NAN</DistanceMeters>
          </Trackpoint>
          <Trackpoint>
            <Time>2019-10-05T09:07:23.000Z</Time>
            <Position>
              <LatitudeDegrees>42.41528769023716449737548828125</LatitudeDegrees>
              <LongitudeDegrees>-5.573148541152477264404296875</LongitudeDegrees>
            </Position>
            <AltitudeMeters>687.79998779296875</AltitudeMeters>
            <DistanceMeters>NAN</DistanceMeters>
          </Trackpoint>
          <Trackpoint>
            <Time>2019-10-05T09:07:27.000Z</Time>
            <Position>
              <LatitudeDegrees>42.41506355814635753631591796875</LatitudeDegrees>
              <LongitudeDegrees>-5.5731198750436305999755859375</LongitudeDegrees>
            </Position>
            <AltitudeMeters>687.79998779296875</AltitudeMeters>
            <DistanceMeters>NAN</DistanceMeters>
          </Trackpoint>
          <Trackpoint>
            <Time>2019-10-05T09:07:33.000Z</Time>
            <Position>
              <LatitudeDegrees>42.41472937166690826416015625</LatitudeDegrees>
              <LongitudeDegrees>-5.57307519949972629547119140625</LongitudeDegrees>
            </Position>
            <AltitudeMeters>687.79998779296875</AltitudeMeters>
            <DistanceMeters>NAN</DistanceMeters>
          </Trackpoint>
          <Trackpoint>
            <Time>2019-10-05T09:07:43.000Z</Time>
            <Position>
              <LatitudeDegrees>42.41416719742119312286376953125</LatitudeDegrees>
              <LongitudeDegrees>-5.5729998461902141571044921875</LongitudeDegrees>
            </Position>
            <AltitudeMeters>687.4000244140625</AltitudeMeters>
            <DistanceMeters>NAN</DistanceMeters>
          </Trackpoint>
          <Trackpoint>
            <Time>2019-10-05T09:07:44.000Z</Time>
            <Position>
              <LatitudeDegrees>42.4141112901270389556884765625</LatitudeDegrees>
              <LongitudeDegrees>-5.57299129664897918701171875</LongitudeDegrees>
            </Position>
            <AltitudeMeters>687.4000244140625</AltitudeMeters>
            <DistanceMeters>NAN</DistanceMeters>
          </Trackpoint>
          <Trackpoint>
            <Time>2019-10-05T09:07:49.000Z</Time>
            <Position>
              <LatitudeDegrees>42.41383141838014125823974609375</LatitudeDegrees>
              <LongitudeDegrees>-5.57295667938888072967529296875</LongitudeDegrees>
            </Position>
            <AltitudeMeters>686.5999755859375</AltitudeMeters>
            <DistanceMeters>NAN</DistanceMeters>
          </Trackpoint>
          <Trackpoint>
            <Time>2019-10-05T09:07:53.000Z</Time>
            <Position>
              <LatitudeDegrees>42.41360477171838283538818359375</LatitudeDegrees>
              <LongitudeDegrees>-5.5729260854423046112060546875</LongitudeDegrees>
            </Position>
            <AltitudeMeters>686.79998779296875</AltitudeMeters>
            <DistanceMeters>NAN</DistanceMeters>
          </Trackpoint>
          <Trackpoint>
            <Time>2019-10-05T09:08:01.000Z</Time>
            <Position>
              <LatitudeDegrees>42.41314996965229511260986328125</LatitudeDegrees>
              <LongitudeDegrees>-5.57285852730274200439453125</LongitudeDegrees>
            </Position>
            <AltitudeMeters>687</AltitudeMeters>
            <DistanceMeters>NAN</DistanceMeters>
          </Trackpoint>
          <Trackpoint>
            <Time>2019-10-05T09:08:06.000Z</Time>
            <Position>
              <LatitudeDegrees>42.41286129690706729888916015625</LatitudeDegrees>
              <LongitudeDegrees>-5.57281971909105777740478515625</LongitudeDegrees>
            </Position>
            <AltitudeMeters>686.4000244140625</AltitudeMeters>
            <DistanceMeters>NAN</DistanceMeters>
          </Trackpoint>
          <Trackpoint>
            <Time>2019-10-05T09:08:16.000Z</Time>
            <Position>
              <LatitudeDegrees>42.4122830294072628021240234375</LatitudeDegrees>
              <LongitudeDegrees>-5.5727426894009113311767578125</LongitudeDegrees>
            </Position>
            <AltitudeMeters>686.4000244140625</AltitudeMeters>
            <DistanceMeters>NAN</DistanceMeters>
          </Trackpoint>
          <Trackpoint>
            <Time>2019-10-05T09:08:19.000Z</Time>
            <Position>
              <LatitudeDegrees>42.41210659034550189971923828125</LatitudeDegrees>
              <LongitudeDegrees>-5.57271880097687244415283203125</LongitudeDegrees>
            </Position>
            <AltitudeMeters>686.20001220703125</AltitudeMeters>
            <DistanceMeters>NAN</DistanceMeters>
          </Trackpoint>
          <Trackpoint>
            <Time>2019-10-05T09:08:28.000Z</Time>
            <Position>
              <LatitudeDegrees>42.411574088037014007568359375</LatitudeDegrees>
              <LongitudeDegrees>-5.57264797389507293701171875</LongitudeDegrees>
            </Position>
            <AltitudeMeters>685.79998779296875</AltitudeMeters>
            <DistanceMeters>NAN</DistanceMeters>
          </Trackpoint>
          <Trackpoint>
            <Time>2019-10-05T09:08:29.000Z</Time>
            <Position>
              <LatitudeDegrees>42.4115162529051303863525390625</LatitudeDegrees>
              <LongitudeDegrees>-5.5726380832493305206298828125</LongitudeDegrees>
            </Position>
            <AltitudeMeters>685.5999755859375</AltitudeMeters>
            <DistanceMeters>NAN</DistanceMeters>
          </Trackpoint>
          <Trackpoint>
            <Time>2019-10-05T09:08:30.000Z</Time>
            <Position>
              <LatitudeDegrees>42.41145783104002475738525390625</LatitudeDegrees>
              <LongitudeDegrees>-5.5726300366222858428955078125</LongitudeDegrees>
            </Position>
            <AltitudeMeters>685.20001220703125</AltitudeMeters>
            <DistanceMeters>NAN</DistanceMeters>
          </Trackpoint>
          <Trackpoint>
            <Time>2019-10-05T09:08:39.000Z</Time>
            <Position>
              <LatitudeDegrees>42.41092390380799770355224609375</LatitudeDegrees>
              <LongitudeDegrees>-5.572554431855678558349609375</LongitudeDegrees>
            </Position>
            <AltitudeMeters>685.79998779296875</AltitudeMeters>
            <DistanceMeters>NAN</DistanceMeters>
          </Trackpoint>
          <Trackpoint>
            <Time>2019-10-05T09:08:40.000Z</Time>
            <Position>
              <LatitudeDegrees>42.41086430847644805908203125</LatitudeDegrees>
              <LongitudeDegrees>-5.57254697196185588836669921875</LongitudeDegrees>
            </Position>
            <AltitudeMeters>685.4000244140625</AltitudeMeters>
            <DistanceMeters>NAN</DistanceMeters>
          </Trackpoint>
          <Trackpoint>
            <Time>2019-10-05T09:08:49.000Z</Time>
            <Position>
              <LatitudeDegrees>42.41033599711954593658447265625</LatitudeDegrees>
              <LongitudeDegrees>-5.5724778212606906890869140625</LongitudeDegrees>
            </Position>
            <AltitudeMeters>685</AltitudeMeters>
            <DistanceMeters>NAN</DistanceMeters>
          </Trackpoint>
          <Trackpoint>
            <Time>2019-10-05T09:08:57.000Z</Time>
            <Position>
              <LatitudeDegrees>42.40985923446714878082275390625</LatitudeDegrees>
              <LongitudeDegrees>-5.57241386733949184417724609375</LongitudeDegrees>
            </Position>
            <AltitudeMeters>686</AltitudeMeters>
            <DistanceMeters>NAN</DistanceMeters>
          </Trackpoint>
          <Trackpoint>
            <Time>2019-10-05T09:09:06.000Z</Time>
            <Position>
              <LatitudeDegrees>42.4093242175877094268798828125</LatitudeDegrees>
              <LongitudeDegrees>-5.57234128005802631378173828125</LongitudeDegrees>
            </Position>
            <AltitudeMeters>685.4000244140625</AltitudeMeters>
            <DistanceMeters>NAN</DistanceMeters>
          </Trackpoint>
          <Trackpoint>
            <Time>2019-10-05T09:09:08.000Z</Time>
            <Position>
              <LatitudeDegrees>42.40920594893395900726318359375</LatitudeDegrees>
              <LongitudeDegrees>-5.57232535444200038909912109375</LongitudeDegrees>
            </Position>
            <AltitudeMeters>686.20001220703125</AltitudeMeters>
            <DistanceMeters>NAN</DistanceMeters>
          </Trackpoint>
          <Trackpoint>
            <Time>2019-10-05T09:09:16.000Z</Time>
            <Position>
              <LatitudeDegrees>42.4087344668805599212646484375</LatitudeDegrees>
              <LongitudeDegrees>-5.57225997559726238250732421875</LongitudeDegrees>
            </Position>
            <AltitudeMeters>685</AltitudeMeters>
            <DistanceMeters>NAN</DistanceMeters>
          </Trackpoint>
          <Trackpoint>
            <Time>2019-10-05T09:09:22.000Z</Time>
            <Position>
              <LatitudeDegrees>42.4083877913653850555419921875</LatitudeDegrees>
              <LongitudeDegrees>-5.5722141265869140625</LongitudeDegrees>
            </Position>
            <AltitudeMeters>685.4000244140625</AltitudeMeters>
            <DistanceMeters>NAN</DistanceMeters>
          </Trackpoint>
          <Trackpoint>
            <Time>2019-10-05T09:09:27.000Z</Time>
            <Position>
              <LatitudeDegrees>42.4081014655530452728271484375</LatitudeDegrees>
              <LongitudeDegrees>-5.572172887623310089111328125</LongitudeDegrees>
            </Position>
            <AltitudeMeters>685</AltitudeMeters>
            <DistanceMeters>NAN</DistanceMeters>
          </Trackpoint>
          <Trackpoint>
            <Time>2019-10-05T09:09:37.000Z</Time>
            <Position>
              <LatitudeDegrees>42.4075298197567462921142578125</LatitudeDegrees>
              <LongitudeDegrees>-5.572093427181243896484375</LongitudeDegrees>
            </Position>
            <AltitudeMeters>685.4000244140625</AltitudeMeters>
            <DistanceMeters>NAN</DistanceMeters>
          </Trackpoint>
          <Trackpoint>
            <Time>2019-10-05T09:09:38.000Z</Time>
            <Position>
              <LatitudeDegrees>42.40747307427227497100830078125</LatitudeDegrees>
              <LongitudeDegrees>-5.57208496145904064178466796875</LongitudeDegrees>
            </Position>
            <AltitudeMeters>685.5999755859375</AltitudeMeters>
            <DistanceMeters>NAN</DistanceMeters>
          </Trackpoint>
          <Trackpoint>
            <Time>2019-10-05T09:09:48.000Z</Time>
            <Position>
              <LatitudeDegrees>42.40690830163657665252685546875</LatitudeDegrees>
              <LongitudeDegrees>-5.572011284530162811279296875</LongitudeDegrees>
            </Position>
            <AltitudeMeters>685.20001220703125</AltitudeMeters>
            <DistanceMeters>NAN</DistanceMeters>
          </Trackpoint>
          <Trackpoint>
            <Time>2019-10-05T09:09:49.000Z</Time>
            <Position>
              <LatitudeDegrees>42.40685331635177135467529296875</LatitudeDegrees>
              <LongitudeDegrees>-5.5720035731792449951171875</LongitudeDegrees>
            </Position>
            <AltitudeMeters>685</AltitudeMeters>
            <DistanceMeters>NAN</DistanceMeters>
          </Trackpoint>
          <Trackpoint>
            <Time>2019-10-05T09:09:57.000Z</Time>
            <Position>
              <LatitudeDegrees>42.4064053036272525787353515625</LatitudeDegrees>
              <LongitudeDegrees>-5.57194582186639308929443359375</LongitudeDegrees>
            </Position>
            <AltitudeMeters>685.5999755859375</AltitudeMeters>
            <DistanceMeters>NAN</DistanceMeters>
          </Trackpoint>
          <Trackpoint>
            <Time>2019-10-05T09:10:04.000Z</Time>
            <Position>
              <LatitudeDegrees>42.4060002900660037994384765625</LatitudeDegrees>
              <LongitudeDegrees>-5.5718907527625560760498046875</LongitudeDegrees>
            </Position>
            <AltitudeMeters>685.5999755859375</AltitudeMeters>
            <DistanceMeters>NAN</DistanceMeters>
          </Trackpoint>
          <Trackpoint>
            <Time>2019-10-05T09:10:07.000Z</Time>
            <Position>
              <LatitudeDegrees>42.40582586266100406646728515625</LatitudeDegrees>
              <LongitudeDegrees>-5.5718659423291683197021484375</LongitudeDegrees>
            </Position>
            <AltitudeMeters>685.20001220703125</AltitudeMeters>
            <DistanceMeters>NAN</DistanceMeters>
          </Trackpoint>
          <Trackpoint>
            <Time>2019-10-05T09:10:16.000Z</Time>
            <Position>
              <LatitudeDegrees>42.40524365566670894622802734375</LatitudeDegrees>
              <LongitudeDegrees>-5.57178430259227752685546875</LongitudeDegrees>
            </Position>
            <AltitudeMeters>685.20001220703125</AltitudeMeters>
            <DistanceMeters>NAN</DistanceMeters>
          </Trackpoint>
          <Trackpoint>
            <Time>2019-10-05T09:10:19.000Z</Time>
            <Position>
              <LatitudeDegrees>42.40512480027973651885986328125</LatitudeDegrees>
              <LongitudeDegrees>-5.5717690475285053253173828125</LongitudeDegrees>
            </Position>
            <AltitudeMeters>684.79998779296875</AltitudeMeters>
            <DistanceMeters>NAN</DistanceMeters>
          </Trackpoint>
          <Trackpoint>
            <Time>2019-10-05T09:10:25.000Z</Time>
            <Position>
              <LatitudeDegrees>42.4047668091952800750732421875</LatitudeDegrees>
              <LongitudeDegrees>-5.571716912090778350830078125</LongitudeDegrees>
            </Position>
            <AltitudeMeters>684.20001220703125</AltitudeMeters>
            <DistanceMeters>NAN</DistanceMeters>
          </Trackpoint>
          <Trackpoint>
            <Time>2019-10-05T09:10:30.000Z</Time>
            <Position>
              <LatitudeDegrees>42.40446581505239009857177734375</LatitudeDegrees>
              <LongitudeDegrees>-5.571671314537525177001953125</LongitudeDegrees>
            </Position>
            <AltitudeMeters>684.5999755859375</AltitudeMeters>
            <DistanceMeters>NAN</DistanceMeters>
          </Trackpoint>
          <Trackpoint>
            <Time>2019-10-05T09:10:39.000Z</Time>
            <Position>
              <LatitudeDegrees>42.40388914011418819427490234375</LatitudeDegrees>
              <LongitudeDegrees>-5.571574084460735321044921875</LongitudeDegrees>
            </Position>
            <AltitudeMeters>683.5999755859375</AltitudeMeters>
            <DistanceMeters>NAN</DistanceMeters>
          </Trackpoint>
          <Trackpoint>
            <Time>2019-10-05T09:10:41.000Z</Time>
            <Position>
              <LatitudeDegrees>42.40375637076795101165771484375</LatitudeDegrees>
              <LongitudeDegrees>-5.57155204005539417266845703125</LongitudeDegrees>
            </Position>
            <AltitudeMeters>683.4000244140625</AltitudeMeters>
            <DistanceMeters>NAN</DistanceMeters>
          </Trackpoint>
          <Trackpoint>
            <Time>2019-10-05T09:10:43.000Z</Time>
            <Position>
              <LatitudeDegrees>42.403624355792999267578125</LatitudeDegrees>
              <LongitudeDegrees>-5.57152790017426013946533203125</LongitudeDegrees>
            </Position>
            <AltitudeMeters>683</AltitudeMeters>
            <DistanceMeters>NAN</DistanceMeters>
          </Trackpoint>
          <Trackpoint>
            <Time>2019-10-05T09:10:49.000Z</Time>
            <Position>
              <LatitudeDegrees>42.4032335914671421051025390625</LatitudeDegrees>
              <LongitudeDegrees>-5.57145313359797000885009765625</LongitudeDegrees>
            </Position>
            <AltitudeMeters>682.5999755859375</AltitudeMeters>
            <DistanceMeters>NAN</DistanceMeters>
          </Trackpoint>
          <Trackpoint>
            <Time>2019-10-05T09:10:51.000Z</Time>
            <Position>
              <LatitudeDegrees>42.4031038396060466766357421875</LatitudeDegrees>
              <LongitudeDegrees>-5.57142731733620166778564453125</LongitudeDegrees>
            </Position>
            <AltitudeMeters>682.5999755859375</AltitudeMeters>
            <DistanceMeters>NAN</DistanceMeters>
          </Trackpoint>
          <Trackpoint>
            <Time>2019-10-05T09:10:54.000Z</Time>
            <Position>
              <LatitudeDegrees>42.4029093794524669647216796875</LatitudeDegrees>
              <LongitudeDegrees>-5.571388341486454010009765625</LongitudeDegrees>
            </Position>
            <AltitudeMeters>682</AltitudeMeters>
            <DistanceMeters>NAN</DistanceMeters>
          </Trackpoint>
          <Trackpoint>
            <Time>2019-10-05T09:10:55.000Z</Time>
            <Position>
              <LatitudeDegrees>42.4028443358838558197021484375</LatitudeDegrees>
              <LongitudeDegrees>-5.57137660682201385498046875</LongitudeDegrees>
            </Position>
            <AltitudeMeters>681.79998779296875</AltitudeMeters>
            <DistanceMeters>NAN</DistanceMeters>
          </Trackpoint>
          <Trackpoint>
            <Time>2019-10-05T09:11:00.000Z</Time>
            <Position>
              <LatitudeDegrees>42.40251501090824604034423828125</LatitudeDegrees>
              <LongitudeDegrees>-5.57130075059831142425537109375</LongitudeDegrees>
            </Position>
            <AltitudeMeters>680.5999755859375</AltitudeMeters>
            <DistanceMeters>NAN</DistanceMeters>
          </Trackpoint>
          <Trackpoint>
            <Time>2019-10-05T09:11:01.000Z</Time>
            <Position>
              <LatitudeDegrees>42.4024473689496517181396484375</LatitudeDegrees>
              <LongitudeDegrees>-5.57128465734422206878662109375</LongitudeDegrees>
            </Position>
            <AltitudeMeters>680.4000244140625</AltitudeMeters>
            <DistanceMeters>NAN</DistanceMeters>
          </Trackpoint>
          <Trackpoint>
            <Time>2019-10-05T09:11:03.000Z</Time>
            <Position>
              <LatitudeDegrees>42.40230965428054332733154296875</LatitudeDegrees>
              <LongitudeDegrees>-5.5712493695318698883056640625</LongitudeDegrees>
            </Position>
            <AltitudeMeters>679.4000244140625</AltitudeMeters>
            <DistanceMeters>NAN</DistanceMeters>
          </Trackpoint>
          <Trackpoint>
            <Time>2019-10-05T09:11:08.000Z</Time>
            <Position>
              <LatitudeDegrees>42.401956021785736083984375</LatitudeDegrees>
              <LongitudeDegrees>-5.571162700653076171875</LongitudeDegrees>
            </Position>
            <AltitudeMeters>678.4000244140625</AltitudeMeters>
            <DistanceMeters>NAN</DistanceMeters>
          </Trackpoint>
          <Trackpoint>
            <Time>2019-10-05T09:11:09.000Z</Time>
            <Position>
              <LatitudeDegrees>42.40188427269458770751953125</LatitudeDegrees>
              <LongitudeDegrees>-5.5711430869996547698974609375</LongitudeDegrees>
            </Position>
            <AltitudeMeters>678.20001220703125</AltitudeMeters>
            <DistanceMeters>NAN</DistanceMeters>
          </Trackpoint>
          <Trackpoint>
            <Time>2019-10-05T09:11:11.000Z</Time>
            <Position>
              <LatitudeDegrees>42.4017392657697200775146484375</LatitudeDegrees>
              <LongitudeDegrees>-5.57110142894089221954345703125</LongitudeDegrees>
            </Position>
            <AltitudeMeters>677.4000244140625</AltitudeMeters>
            <DistanceMeters>NAN</DistanceMeters>
          </Trackpoint>
          <Trackpoint>
            <Time>2019-10-05T09:11:15.000Z</Time>
            <Position>
              <LatitudeDegrees>42.40144246257841587066650390625</LatitudeDegrees>
              <LongitudeDegrees>-5.57101040147244930267333984375</LongitudeDegrees>
            </Position>
            <AltitudeMeters>676</AltitudeMeters>
            <DistanceMeters>NAN</DistanceMeters>
          </Trackpoint>
          <Trackpoint>
            <Time>2019-10-05T09:11:17.000Z</Time>
            <Position>
              <LatitudeDegrees>42.40129016339778900146484375</LatitudeDegrees>
              <LongitudeDegrees>-5.57096421718597412109375</LongitudeDegrees>
            </Position>
            <AltitudeMeters>674.79998779296875</AltitudeMeters>
            <DistanceMeters>NAN</DistanceMeters>
          </Trackpoint>
          <Trackpoint>
            <Time>2019-10-05T09:11:21.000Z</Time>
            <Position>
              <LatitudeDegrees>42.40098212845623493194580078125</LatitudeDegrees>
              <LongitudeDegrees>-5.57086405344307422637939453125</LongitudeDegrees>
            </Position>
            <AltitudeMeters>674</AltitudeMeters>
            <DistanceMeters>NAN</DistanceMeters>
          </Trackpoint>
          <Trackpoint>
            <Time>2019-10-05T09:11:22.000Z</Time>
            <Position>
              <LatitudeDegrees>42.40090283565223217010498046875</LatitudeDegrees>
              <LongitudeDegrees>-5.57083706371486186981201171875</LongitudeDegrees>
            </Position>
            <AltitudeMeters>673.5999755859375</AltitudeMeters>
            <DistanceMeters>NAN</DistanceMeters>
          </Trackpoint>
          <Trackpoint>
            <Time>2019-10-05T09:11:25.000Z</Time>
            <Position>
              <LatitudeDegrees>42.40066562779247760772705078125</LatitudeDegrees>
              <LongitudeDegrees>-5.570751987397670745849609375</LongitudeDegrees>
            </Position>
            <AltitudeMeters>672.4000244140625</AltitudeMeters>
            <DistanceMeters>NAN</DistanceMeters>
          </Trackpoint>
          <Trackpoint>
            <Time>2019-10-05T09:11:32.000Z</Time>
            <Position>
              <LatitudeDegrees>42.40010018460452556610107421875</LatitudeDegrees>
              <LongitudeDegrees>-5.57053078897297382354736328125</LongitudeDegrees>
            </Position>
            <AltitudeMeters>671.20001220703125</AltitudeMeters>
            <DistanceMeters>NAN</DistanceMeters>
          </Trackpoint>
          <Trackpoint>
            <Time>2019-10-05T09:11:39.000Z</Time>
            <Position>
              <LatitudeDegrees>42.39954580552875995635986328125</LatitudeDegrees>
              <LongitudeDegrees>-5.57029559276998043060302734375</LongitudeDegrees>
            </Position>
            <AltitudeMeters>670.20001220703125</AltitudeMeters>
            <DistanceMeters>NAN</DistanceMeters>
          </Trackpoint>
          <Trackpoint>
            <Time>2019-10-05T09:11:40.000Z</Time>
            <Position>
              <LatitudeDegrees>42.39947053603827953338623046875</LatitudeDegrees>
              <LongitudeDegrees>-5.57026256807148456573486328125</LongitudeDegrees>
            </Position>
            <AltitudeMeters>670.4000244140625</AltitudeMeters>
            <DistanceMeters>NAN</DistanceMeters>
          </Trackpoint>
          <Trackpoint>
            <Time>2019-10-05T09:11:47.000Z</Time>
            <Position>
              <LatitudeDegrees>42.3989708907902240753173828125</LatitudeDegrees>
              <LongitudeDegrees>-5.57002888061106204986572265625</LongitudeDegrees>
            </Position>
            <AltitudeMeters>671</AltitudeMeters>
            <DistanceMeters>NAN</DistanceMeters>
          </Trackpoint>
          <Trackpoint>
            <Time>2019-10-05T09:11:53.000Z</Time>
            <Position>
              <LatitudeDegrees>42.39858624525368213653564453125</LatitudeDegrees>
              <LongitudeDegrees>-5.569838024675846099853515625</LongitudeDegrees>
            </Position>
            <AltitudeMeters>671.4000244140625</AltitudeMeters>
            <DistanceMeters>NAN</DistanceMeters>
          </Trackpoint>
          <Trackpoint>
            <Time>2019-10-05T09:11:55.000Z</Time>
            <Position>
              <LatitudeDegrees>42.3984673060476779937744140625</LatitudeDegrees>
              <LongitudeDegrees>-5.56978010572493076324462890625</LongitudeDegrees>
            </Position>
            <AltitudeMeters>671.79998779296875</AltitudeMeters>
            <DistanceMeters>NAN</DistanceMeters>
          </Trackpoint>
          <Trackpoint>
            <Time>2019-10-05T09:11:58.000Z</Time>
            <Position>
              <LatitudeDegrees>42.3983001708984375</LatitudeDegrees>
              <LongitudeDegrees>-5.56969980709254741668701171875</LongitudeDegrees>
            </Position>
            <AltitudeMeters>672.4000244140625</AltitudeMeters>
            <DistanceMeters>NAN</DistanceMeters>
          </Trackpoint>
          <Trackpoint>
            <Time>2019-10-05T09:12:02.000Z</Time>
            <Position>
              <LatitudeDegrees>42.3980976641178131103515625</LatitudeDegrees>
              <LongitudeDegrees>-5.56959654204547405242919921875</LongitudeDegrees>
            </Position>
            <AltitudeMeters>672.5999755859375</AltitudeMeters>
            <DistanceMeters>NAN</DistanceMeters>
          </Trackpoint>
          <Trackpoint>
            <Time>2019-10-05T09:12:05.000Z</Time>
            <Position>
              <LatitudeDegrees>42.3979570157825946807861328125</LatitudeDegrees>
              <LongitudeDegrees>-5.569525547325611114501953125</LongitudeDegrees>
            </Position>
            <AltitudeMeters>673.79998779296875</AltitudeMeters>
            <DistanceMeters>NAN</DistanceMeters>
          </Trackpoint>
          <Trackpoint>
            <Time>2019-10-05T09:12:08.000Z</Time>
            <Position>
              <LatitudeDegrees>42.3978225700557231903076171875</LatitudeDegrees>
              <LongitudeDegrees>-5.5694579891860485076904296875</LongitudeDegrees>
            </Position>
            <AltitudeMeters>673.5999755859375</AltitudeMeters>
            <DistanceMeters>NAN</DistanceMeters>
          </Trackpoint>
          <Trackpoint>
            <Time>2019-10-05T09:12:12.000Z</Time>
            <Position>
              <LatitudeDegrees>42.3976488970220088958740234375</LatitudeDegrees>
              <LongitudeDegrees>-5.5693708173930644989013671875</LongitudeDegrees>
            </Position>
            <AltitudeMeters>674.20001220703125</AltitudeMeters>
            <DistanceMeters>NAN</DistanceMeters>
          </Trackpoint>
          <Trackpoint>
            <Time>2019-10-05T09:12:15.000Z</Time>
            <Position>
              <LatitudeDegrees>42.3975218273699283599853515625</LatitudeDegrees>
              <LongitudeDegrees>-5.56930124759674072265625</LongitudeDegrees>
            </Position>
            <AltitudeMeters>674.4000244140625</AltitudeMeters>
            <DistanceMeters>NAN</DistanceMeters>
          </Trackpoint>
          <Trackpoint>
            <Time>2019-10-05T09:12:18.000Z</Time>
            <Position>
              <LatitudeDegrees>42.39738998003304004669189453125</LatitudeDegrees>
              <LongitudeDegrees>-5.56923142634332180023193359375</LongitudeDegrees>
            </Position>
            <AltitudeMeters>675.4000244140625</AltitudeMeters>
            <DistanceMeters>NAN</DistanceMeters>
          </Trackpoint>
          <Trackpoint>
            <Time>2019-10-05T09:12:24.000Z</Time>
            <Position>
              <LatitudeDegrees>42.39712469279766082763671875</LatitudeDegrees>
              <LongitudeDegrees>-5.5690933763980865478515625</LongitudeDegrees>
            </Position>
            <AltitudeMeters>675.4000244140625</AltitudeMeters>
            <DistanceMeters>NAN</DistanceMeters>
          </Trackpoint>
          <Trackpoint>
            <Time>2019-10-05T09:12:28.000Z</Time>
            <Position>
              <LatitudeDegrees>42.39694942720234394073486328125</LatitudeDegrees>
              <LongitudeDegrees>-5.569003857672214508056640625</LongitudeDegrees>
            </Position>
            <AltitudeMeters>676</AltitudeMeters>
            <DistanceMeters>NAN</DistanceMeters>
          </Trackpoint>
          <Trackpoint>
            <Time>2019-10-05T09:12:30.000Z</Time>
            <Position>
              <LatitudeDegrees>42.39686359651386737823486328125</LatitudeDegrees>
              <LongitudeDegrees>-5.5689587630331516265869140625</LongitudeDegrees>
            </Position>
            <AltitudeMeters>676.4000244140625</AltitudeMeters>
            <DistanceMeters>NAN</DistanceMeters>
          </Trackpoint>
          <Trackpoint>
            <Time>2019-10-05T09:12:37.000Z</Time>
            <Position>
              <LatitudeDegrees>42.39656050689518451690673828125</LatitudeDegrees>
              <LongitudeDegrees>-5.56879942305386066436767578125</LongitudeDegrees>
            </Position>
            <AltitudeMeters>677.4000244140625</AltitudeMeters>
            <DistanceMeters>NAN</DistanceMeters>
          </Trackpoint>
          <Trackpoint>
            <Time>2019-10-05T09:12:38.000Z</Time>
            <Position>
              <LatitudeDegrees>42.39651725627481937408447265625</LatitudeDegrees>
              <LongitudeDegrees>-5.56877964176237583160400390625</LongitudeDegrees>
            </Position>
            <AltitudeMeters>677.4000244140625</AltitudeMeters>
            <DistanceMeters>NAN</DistanceMeters>
          </Trackpoint>
          <Trackpoint>
            <Time>2019-10-05T09:12:48.000Z</Time>
            <Position>
              <LatitudeDegrees>42.3960972391068935394287109375</LatitudeDegrees>
              <LongitudeDegrees>-5.56855014525353908538818359375</LongitudeDegrees>
            </Position>
            <AltitudeMeters>678</AltitudeMeters>
            <DistanceMeters>NAN</DistanceMeters>
          </Trackpoint>
          <Trackpoint>
            <Time>2019-10-05T09:12:51.000Z</Time>
            <Position>
              <LatitudeDegrees>42.395973019301891326904296875</LatitudeDegrees>
              <LongitudeDegrees>-5.56848174892365932464599609375</LongitudeDegrees>
            </Position>
            <AltitudeMeters>678.4000244140625</AltitudeMeters>
            <DistanceMeters>NAN</DistanceMeters>
          </Trackpoint>
          <Trackpoint>
            <Time>2019-10-05T09:13:00.000Z</Time>
            <Position>
              <LatitudeDegrees>42.39560144953429698944091796875</LatitudeDegrees>
              <LongitudeDegrees>-5.56828209199011325836181640625</LongitudeDegrees>
            </Position>
            <AltitudeMeters>678.5999755859375</AltitudeMeters>
            <DistanceMeters>NAN</DistanceMeters>
          </Trackpoint>
          <Trackpoint>
            <Time>2019-10-05T09:13:12.000Z</Time>
            <Position>
              <LatitudeDegrees>42.39510289393365383148193359375</LatitudeDegrees>
              <LongitudeDegrees>-5.5680176429450511932373046875</LongitudeDegrees>
            </Position>
            <AltitudeMeters>679.5999755859375</AltitudeMeters>
            <DistanceMeters>NAN</DistanceMeters>
          </Trackpoint>
          <Trackpoint>
            <Time>2019-10-05T09:13:24.000Z</Time>
            <Position>
              <LatitudeDegrees>42.39460299722850322723388671875</LatitudeDegrees>
              <LongitudeDegrees>-5.5677578039467334747314453125</LongitudeDegrees>
            </Position>
            <AltitudeMeters>679.79998779296875</AltitudeMeters>
            <DistanceMeters>NAN</DistanceMeters>
          </Trackpoint>
          <Trackpoint>
            <Time>2019-10-05T09:13:31.000Z</Time>
            <Position>
              <LatitudeDegrees>42.3943071998655796051025390625</LatitudeDegrees>
              <LongitudeDegrees>-5.56759812869131565093994140625</LongitudeDegrees>
            </Position>
            <AltitudeMeters>680.5999755859375</AltitudeMeters>
            <DistanceMeters>NAN</DistanceMeters>
          </Trackpoint>
          <Trackpoint>
            <Time>2019-10-05T09:13:35.000Z</Time>
            <Position>
              <LatitudeDegrees>42.39413805305957794189453125</LatitudeDegrees>
              <LongitudeDegrees>-5.56751498021185398101806640625</LongitudeDegrees>
            </Position>
            <AltitudeMeters>681</AltitudeMeters>
            <DistanceMeters>NAN</DistanceMeters>
          </Trackpoint>
          <Trackpoint>
            <Time>2019-10-05T09:13:43.000Z</Time>
            <Position>
              <LatitudeDegrees>42.39379984326660633087158203125</LatitudeDegrees>
              <LongitudeDegrees>-5.56733342818915843963623046875</LongitudeDegrees>
            </Position>
            <AltitudeMeters>681.20001220703125</AltitudeMeters>
            <DistanceMeters>NAN</DistanceMeters>
          </Trackpoint>
          <Trackpoint>
            <Time>2019-10-05T09:13:45.000Z</Time>
            <Position>
              <LatitudeDegrees>42.3937154375016689300537109375</LatitudeDegrees>
              <LongitudeDegrees>-5.56729135103523731231689453125</LongitudeDegrees>
            </Position>
            <AltitudeMeters>681.79998779296875</AltitudeMeters>
            <DistanceMeters>NAN</DistanceMeters>
          </Trackpoint>
          <Trackpoint>
            <Time>2019-10-05T09:13:53.000Z</Time>
            <Position>
              <LatitudeDegrees>42.39338058046996593475341796875</LatitudeDegrees>
              <LongitudeDegrees>-5.56710896082222461700439453125</LongitudeDegrees>
            </Position>
            <AltitudeMeters>681.79998779296875</AltitudeMeters>
            <DistanceMeters>NAN</DistanceMeters>
          </Trackpoint>
          <Trackpoint>
            <Time>2019-10-05T09:13:59.000Z</Time>
            <Position>
              <LatitudeDegrees>42.39312342368066310882568359375</LatitudeDegrees>
              <LongitudeDegrees>-5.5669732578098773956298828125</LongitudeDegrees>
            </Position>
            <AltitudeMeters>682.79998779296875</AltitudeMeters>
            <DistanceMeters>NAN</DistanceMeters>
          </Trackpoint>
          <Trackpoint>
            <Time>2019-10-05T09:14:04.000Z</Time>
            <Position>
              <LatitudeDegrees>42.39290800876915454864501953125</LatitudeDegrees>
              <LongitudeDegrees>-5.566856749355792999267578125</LongitudeDegrees>
            </Position>
            <AltitudeMeters>683</AltitudeMeters>
            <DistanceMeters>NAN</DistanceMeters>
          </Trackpoint>
          <Trackpoint>
            <Time>2019-10-05T09:14:14.000Z</Time>
            <Position>
              <LatitudeDegrees>42.39247751422226428985595703125</LatitudeDegrees>
              <LongitudeDegrees>-5.56663286872208118438720703125</LongitudeDegrees>
            </Position>
            <AltitudeMeters>683.4000244140625</AltitudeMeters>
            <DistanceMeters>NAN</DistanceMeters>
          </Trackpoint>
          <Trackpoint>
            <Time>2019-10-05T09:14:23.000Z</Time>
            <Position>
              <LatitudeDegrees>42.392081134021282196044921875</LatitudeDegrees>
              <LongitudeDegrees>-5.56642281822860240936279296875</LongitudeDegrees>
            </Position>
            <AltitudeMeters>683.4000244140625</AltitudeMeters>
            <DistanceMeters>NAN</DistanceMeters>
          </Trackpoint>
          <Trackpoint>
            <Time>2019-10-05T09:14:33.000Z</Time>
            <Position>
              <LatitudeDegrees>42.39162993617355823516845703125</LatitudeDegrees>
              <LongitudeDegrees>-5.5661853589117527008056640625</LongitudeDegrees>
            </Position>
            <AltitudeMeters>683.20001220703125</AltitudeMeters>
            <DistanceMeters>NAN</DistanceMeters>
          </Trackpoint>
          <Trackpoint>
            <Time>2019-10-05T09:14:39.000Z</Time>
            <Position>
              <LatitudeDegrees>42.3913567699491977691650390625</LatitudeDegrees>
              <LongitudeDegrees>-5.56604043580591678619384765625</LongitudeDegrees>
            </Position>
            <AltitudeMeters>683.20001220703125</AltitudeMeters>
            <DistanceMeters>NAN</DistanceMeters>
          </Trackpoint>
          <Trackpoint>
            <Time>2019-10-05T09:14:45.000Z</Time>
            <Position>
              <LatitudeDegrees>42.39106424152851104736328125</LatitudeDegrees>
              <LongitudeDegrees>-5.5658802576363086700439453125</LongitudeDegrees>
            </Position>
            <AltitudeMeters>683</AltitudeMeters>
            <DistanceMeters>NAN</DistanceMeters>
          </Trackpoint>
          <Trackpoint>
            <Time>2019-10-05T09:14:55.000Z</Time>
            <Position>
              <LatitudeDegrees>42.3905614949762821197509765625</LatitudeDegrees>
              <LongitudeDegrees>-5.56561966426670551300048828125</LongitudeDegrees>
            </Position>
            <AltitudeMeters>683.4000244140625</AltitudeMeters>
            <DistanceMeters>NAN</DistanceMeters>
          </Trackpoint>
          <Trackpoint>
            <Time>2019-10-05T09:15:02.000Z</Time>
            <Position>
              <LatitudeDegrees>42.39018808118999004364013671875</LatitudeDegrees>
              <LongitudeDegrees>-5.565417073667049407958984375</LongitudeDegrees>
            </Position>
            <AltitudeMeters>683</AltitudeMeters>
            <DistanceMeters>NAN</DistanceMeters>
          </Trackpoint>
          <Trackpoint>
            <Time>2019-10-05T09:15:11.000Z</Time>
            <Position>
              <LatitudeDegrees>42.38968851976096630096435546875</LatitudeDegrees>
              <LongitudeDegrees>-5.56515715084969997406005859375</LongitudeDegrees>
            </Position>
            <AltitudeMeters>682.5999755859375</AltitudeMeters>
            <DistanceMeters>NAN</DistanceMeters>
          </Trackpoint>
          <Trackpoint>
            <Time>2019-10-05T09:15:13.000Z</Time>
            <Position>
              <LatitudeDegrees>42.389571256935596466064453125</LatitudeDegrees>
              <LongitudeDegrees>-5.56509680114686489105224609375</LongitudeDegrees>
            </Position>
            <AltitudeMeters>682.4000244140625</AltitudeMeters>
            <DistanceMeters>NAN</DistanceMeters>
          </Trackpoint>
          <Trackpoint>
            <Time>2019-10-05T09:15:17.000Z</Time>
            <Position>
              <LatitudeDegrees>42.38932608626782894134521484375</LatitudeDegrees>
              <LongitudeDegrees>-5.56497551500797271728515625</LongitudeDegrees>
            </Position>
            <AltitudeMeters>681.79998779296875</AltitudeMeters>
            <DistanceMeters>NAN</DistanceMeters>
          </Trackpoint>
          <Trackpoint>
            <Time>2019-10-05T09:15:21.000Z</Time>
            <Position>
              <LatitudeDegrees>42.38905920647084712982177734375</LatitudeDegrees>
              <LongitudeDegrees>-5.56485406123101711273193359375</LongitudeDegrees>
            </Position>
            <AltitudeMeters>681.4000244140625</AltitudeMeters>
            <DistanceMeters>NAN</DistanceMeters>
          </Trackpoint>
          <Trackpoint>
            <Time>2019-10-05T09:15:24.000Z</Time>
            <Position>
              <LatitudeDegrees>42.3888807557523250579833984375</LatitudeDegrees>
              <LongitudeDegrees>-5.56477761827409267425537109375</LongitudeDegrees>
            </Position>
            <AltitudeMeters>680.5999755859375</AltitudeMeters>
            <DistanceMeters>NAN</DistanceMeters>
          </Trackpoint>
          <Trackpoint>
            <Time>2019-10-05T09:15:28.000Z</Time>
            <Position>
              <LatitudeDegrees>42.38861312158405780792236328125</LatitudeDegrees>
              <LongitudeDegrees>-5.56467418558895587921142578125</LongitudeDegrees>
            </Position>
            <AltitudeMeters>679.5999755859375</AltitudeMeters>
            <DistanceMeters>NAN</DistanceMeters>
          </Trackpoint>
          <Trackpoint>
            <Time>2019-10-05T09:15:31.000Z</Time>
            <Position>
              <LatitudeDegrees>42.38840675912797451019287109375</LatitudeDegrees>
              <LongitudeDegrees>-5.5646008439362049102783203125</LongitudeDegrees>
            </Position>
            <AltitudeMeters>679.20001220703125</AltitudeMeters>
            <DistanceMeters>NAN</DistanceMeters>
          </Trackpoint>
          <Trackpoint>
            <Time>2019-10-05T09:15:35.000Z</Time>
            <Position>
              <LatitudeDegrees>42.38812127150595188140869140625</LatitudeDegrees>
              <LongitudeDegrees>-5.564520545303821563720703125</LongitudeDegrees>
            </Position>
            <AltitudeMeters>678.4000244140625</AltitudeMeters>
            <DistanceMeters>NAN</DistanceMeters>
          </Trackpoint>
          <Trackpoint>
            <Time>2019-10-05T09:15:38.000Z</Time>
            <Position>
              <LatitudeDegrees>42.3878990672528743743896484375</LatitudeDegrees>
              <LongitudeDegrees>-5.564463548362255096435546875</LongitudeDegrees>
            </Position>
            <AltitudeMeters>677.5999755859375</AltitudeMeters>
            <DistanceMeters>NAN</DistanceMeters>
          </Trackpoint>
          <Trackpoint>
            <Time>2019-10-05T09:15:40.000Z</Time>
            <Position>
              <LatitudeDegrees>42.38774903118610382080078125</LatitudeDegrees>
              <LongitudeDegrees>-5.5644288472831249237060546875</LongitudeDegrees>
            </Position>
            <AltitudeMeters>677.20001220703125</AltitudeMeters>
            <DistanceMeters>NAN</DistanceMeters>
          </Trackpoint>
          <Trackpoint>
            <Time>2019-10-05T09:15:45.000Z</Time>
            <Position>
              <LatitudeDegrees>42.3873572610318660736083984375</LatitudeDegrees>
              <LongitudeDegrees>-5.56437201797962188720703125</LongitudeDegrees>
            </Position>
            <AltitudeMeters>676</AltitudeMeters>
            <DistanceMeters>NAN</DistanceMeters>
          </Trackpoint>
          <Trackpoint>
            <Time>2019-10-05T09:15:50.000Z</Time>
            <Position>
              <LatitudeDegrees>42.386949397623538970947265625</LatitudeDegrees>
              <LongitudeDegrees>-5.5643379874527454376220703125</LongitudeDegrees>
            </Position>
            <AltitudeMeters>674.5999755859375</AltitudeMeters>
            <DistanceMeters>NAN</DistanceMeters>
          </Trackpoint>
          <Trackpoint>
            <Time>2019-10-05T09:15:53.000Z</Time>
            <Position>
              <LatitudeDegrees>42.38669903017580509185791015625</LatitudeDegrees>
              <LongitudeDegrees>-5.5643306113779544830322265625</LongitudeDegrees>
            </Position>
            <AltitudeMeters>673.4000244140625</AltitudeMeters>
            <DistanceMeters>NAN</DistanceMeters>
          </Trackpoint>
          <Trackpoint>
            <Time>2019-10-05T09:15:54.000Z</Time>
            <Position>
              <LatitudeDegrees>42.38661504350602626800537109375</LatitudeDegrees>
              <LongitudeDegrees>-5.56433220393955707550048828125</LongitudeDegrees>
            </Position>
            <AltitudeMeters>673.4000244140625</AltitudeMeters>
            <DistanceMeters>NAN</DistanceMeters>
          </Trackpoint>
          <Trackpoint>
            <Time>2019-10-05T09:15:58.000Z</Time>
            <Position>
              <LatitudeDegrees>42.3862806893885135650634765625</LatitudeDegrees>
              <LongitudeDegrees>-5.56434385478496551513671875</LongitudeDegrees>
            </Position>
            <AltitudeMeters>672.4000244140625</AltitudeMeters>
            <DistanceMeters>NAN</DistanceMeters>
          </Trackpoint>
          <Trackpoint>
            <Time>2019-10-05T09:16:03.000Z</Time>
            <Position>
              <LatitudeDegrees>42.38586687482893466949462890625</LatitudeDegrees>
              <LongitudeDegrees>-5.5643802322447299957275390625</LongitudeDegrees>
            </Position>
            <AltitudeMeters>672</AltitudeMeters>
            <DistanceMeters>NAN</DistanceMeters>
          </Trackpoint>
          <Trackpoint>
            <Time>2019-10-05T09:16:09.000Z</Time>
            <Position>
              <LatitudeDegrees>42.38537703640758991241455078125</LatitudeDegrees>
              <LongitudeDegrees>-5.56443932466208934783935546875</LongitudeDegrees>
            </Position>
            <AltitudeMeters>672.4000244140625</AltitudeMeters>
            <DistanceMeters>NAN</DistanceMeters>
          </Trackpoint>
          <Trackpoint>
            <Time>2019-10-05T09:16:13.000Z</Time>
            <Position>
              <LatitudeDegrees>42.3850653134286403656005859375</LatitudeDegrees>
              <LongitudeDegrees>-5.56448559276759624481201171875</LongitudeDegrees>
            </Position>
            <AltitudeMeters>672</AltitudeMeters>
            <DistanceMeters>NAN</DistanceMeters>
          </Trackpoint>
          <Trackpoint>
            <Time>2019-10-05T09:16:21.000Z</Time>
            <Position>
              <LatitudeDegrees>42.38446860574185848236083984375</LatitudeDegrees>
              <LongitudeDegrees>-5.5645800568163394927978515625</LongitudeDegrees>
            </Position>
            <AltitudeMeters>671.79998779296875</AltitudeMeters>
            <DistanceMeters>NAN</DistanceMeters>
          </Trackpoint>
          <Trackpoint>
            <Time>2019-10-05T09:16:28.000Z</Time>
            <Position>
              <LatitudeDegrees>42.38401581533253192901611328125</LatitudeDegrees>
              <LongitudeDegrees>-5.5646474473178386688232421875</LongitudeDegrees>
            </Position>
            <AltitudeMeters>671.79998779296875</AltitudeMeters>
            <DistanceMeters>NAN</DistanceMeters>
          </Trackpoint>
          <Trackpoint>
            <Time>2019-10-05T09:16:29.000Z</Time>
            <Position>
              <LatitudeDegrees>42.3839511908590793609619140625</LatitudeDegrees>
              <LongitudeDegrees>-5.56465708650648593902587890625</LongitudeDegrees>
            </Position>
            <AltitudeMeters>672</AltitudeMeters>
            <DistanceMeters>NAN</DistanceMeters>
          </Trackpoint>
          <Trackpoint>
            <Time>2019-10-05T09:16:38.000Z</Time>
            <Position>
              <LatitudeDegrees>42.38338231109082698822021484375</LatitudeDegrees>
              <LongitudeDegrees>-5.5647428333759307861328125</LongitudeDegrees>
            </Position>
            <AltitudeMeters>672.4000244140625</AltitudeMeters>
            <DistanceMeters>NAN</DistanceMeters>
          </Trackpoint>
          <Trackpoint>
            <Time>2019-10-05T09:16:47.000Z</Time>
            <Position>
              <LatitudeDegrees>42.382813431322574615478515625</LatitudeDegrees>
              <LongitudeDegrees>-5.5648234672844409942626953125</LongitudeDegrees>
            </Position>
            <AltitudeMeters>672.4000244140625</AltitudeMeters>
            <DistanceMeters>NAN</DistanceMeters>
          </Trackpoint>
          <Trackpoint>
            <Time>2019-10-05T09:16:48.000Z</Time>
            <Position>
              <LatitudeDegrees>42.38274947740137577056884765625</LatitudeDegrees>
              <LongitudeDegrees>-5.56483360938727855682373046875</LongitudeDegrees>
            </Position>
            <AltitudeMeters>672.4000244140625</AltitudeMeters>
            <DistanceMeters>NAN</DistanceMeters>
          </Trackpoint>
          <Trackpoint>
            <Time>2019-10-05T09:16:57.000Z</Time>
            <Position>
              <LatitudeDegrees>42.3821755684912204742431640625</LatitudeDegrees>
              <LongitudeDegrees>-5.56491944007575511932373046875</LongitudeDegrees>
            </Position>
            <AltitudeMeters>672.20001220703125</AltitudeMeters>
            <DistanceMeters>NAN</DistanceMeters>
          </Trackpoint>
          <Trackpoint>
            <Time>2019-10-05T09:16:58.000Z</Time>
            <Position>
              <LatitudeDegrees>42.3821135424077510833740234375</LatitudeDegrees>
              <LongitudeDegrees>-5.56492899544537067413330078125</LongitudeDegrees>
            </Position>
            <AltitudeMeters>672.20001220703125</AltitudeMeters>
            <DistanceMeters>NAN</DistanceMeters>
          </Trackpoint>
          <Trackpoint>
            <Time>2019-10-05T09:17:07.000Z</Time>
            <Position>
              <LatitudeDegrees>42.3815479315817356109619140625</LatitudeDegrees>
              <LongitudeDegrees>-5.56501348502933979034423828125</LongitudeDegrees>
            </Position>
            <AltitudeMeters>672.4000244140625</AltitudeMeters>
            <DistanceMeters>NAN</DistanceMeters>
          </Trackpoint>
          <Trackpoint>
            <Time>2019-10-05T09:17:08.000Z</Time>
            <Position>
              <LatitudeDegrees>42.38148548640310764312744140625</LatitudeDegrees>
              <LongitudeDegrees>-5.5650219507515430450439453125</LongitudeDegrees>
            </Position>
            <AltitudeMeters>672.4000244140625</AltitudeMeters>
            <DistanceMeters>NAN</DistanceMeters>
          </Trackpoint>
          <Trackpoint>
            <Time>2019-10-05T09:17:17.000Z</Time>
            <Position>
              <LatitudeDegrees>42.380932532250881195068359375</LatitudeDegrees>
              <LongitudeDegrees>-5.56510719470679759979248046875</LongitudeDegrees>
            </Position>
            <AltitudeMeters>671.79998779296875</AltitudeMeters>
            <DistanceMeters>NAN</DistanceMeters>
          </Trackpoint>
          <Trackpoint>
            <Time>2019-10-05T09:17:18.000Z</Time>
            <Position>
              <LatitudeDegrees>42.3808720149099826812744140625</LatitudeDegrees>
              <LongitudeDegrees>-5.56511742062866687774658203125</LongitudeDegrees>
            </Position>
            <AltitudeMeters>671.79998779296875</AltitudeMeters>
            <DistanceMeters>NAN</DistanceMeters>
          </Trackpoint>
          <Trackpoint>
            <Time>2019-10-05T09:17:27.000Z</Time>
            <Position>
              <LatitudeDegrees>42.38032861612737178802490234375</LatitudeDegrees>
              <LongitudeDegrees>-5.56518933735787868499755859375</LongitudeDegrees>
            </Position>
            <AltitudeMeters>672</AltitudeMeters>
            <DistanceMeters>NAN</DistanceMeters>
          </Trackpoint>
          <Trackpoint>
            <Time>2019-10-05T09:17:36.000Z</Time>
            <Position>
              <LatitudeDegrees>42.37978530116379261016845703125</LatitudeDegrees>
              <LongitudeDegrees>-5.5652724020183086395263671875</LongitudeDegrees>
            </Position>
            <AltitudeMeters>672.5999755859375</AltitudeMeters>
            <DistanceMeters>NAN</DistanceMeters>
          </Trackpoint>
          <Trackpoint>
            <Time>2019-10-05T09:17:38.000Z</Time>
            <Position>
              <LatitudeDegrees>42.3796623386442661285400390625</LatitudeDegrees>
              <LongitudeDegrees>-5.5652918480336666107177734375</LongitudeDegrees>
            </Position>
            <AltitudeMeters>672</AltitudeMeters>
            <DistanceMeters>NAN</DistanceMeters>
          </Trackpoint>
          <Trackpoint>
            <Time>2019-10-05T09:17:47.000Z</Time>
            <Position>
              <LatitudeDegrees>42.37910787574946880340576171875</LatitudeDegrees>
              <LongitudeDegrees>-5.56537323631346225738525390625</LongitudeDegrees>
            </Position>
            <AltitudeMeters>672.5999755859375</AltitudeMeters>
            <DistanceMeters>NAN</DistanceMeters>
          </Trackpoint>
          <Trackpoint>
            <Time>2019-10-05T09:17:48.000Z</Time>
            <Position>
              <LatitudeDegrees>42.3790440894663333892822265625</LatitudeDegrees>
              <LongitudeDegrees>-5.565379522740840911865234375</LongitudeDegrees>
            </Position>
            <AltitudeMeters>672.5999755859375</AltitudeMeters>
            <DistanceMeters>NAN</DistanceMeters>
          </Trackpoint>
          <Trackpoint>
            <Time>2019-10-05T09:17:54.000Z</Time>
            <Position>
              <LatitudeDegrees>42.37866128794848918914794921875</LatitudeDegrees>
              <LongitudeDegrees>-5.56543459184467792510986328125</LongitudeDegrees>
            </Position>
            <AltitudeMeters>672.5999755859375</AltitudeMeters>
            <DistanceMeters>NAN</DistanceMeters>
          </Trackpoint>
          <Trackpoint>
            <Time>2019-10-05T09:17:58.000Z</Time>
            <Position>
              <LatitudeDegrees>42.37840211950242519378662109375</LatitudeDegrees>
              <LongitudeDegrees>-5.5654735676944255828857421875</LongitudeDegrees>
            </Position>
            <AltitudeMeters>672</AltitudeMeters>
            <DistanceMeters>NAN</DistanceMeters>
          </Trackpoint>
          <Trackpoint>
            <Time>2019-10-05T09:18:06.000Z</Time>
            <Position>
              <LatitudeDegrees>42.37788118422031402587890625</LatitudeDegrees>
              <LongitudeDegrees>-5.565546490252017974853515625</LongitudeDegrees>
            </Position>
            <AltitudeMeters>671.4000244140625</AltitudeMeters>
            <DistanceMeters>NAN</DistanceMeters>
          </Trackpoint>
          <Trackpoint>
            <Time>2019-10-05T09:18:07.000Z</Time>
            <Position>
              <LatitudeDegrees>42.3778153024613857269287109375</LatitudeDegrees>
              <LongitudeDegrees>-5.5655550397932529449462890625</LongitudeDegrees>
            </Position>
            <AltitudeMeters>671.20001220703125</AltitudeMeters>
            <DistanceMeters>NAN</DistanceMeters>
          </Trackpoint>
          <Trackpoint>
            <Time>2019-10-05T09:18:13.000Z</Time>
            <Position>
              <LatitudeDegrees>42.37741691060364246368408203125</LatitudeDegrees>
              <LongitudeDegrees>-5.56561119854450225830078125</LongitudeDegrees>
            </Position>
            <AltitudeMeters>670</AltitudeMeters>
            <DistanceMeters>NAN</DistanceMeters>
          </Trackpoint>
          <Trackpoint>
            <Time>2019-10-05T09:18:18.000Z</Time>
            <Position>
              <LatitudeDegrees>42.37708054482936859130859375</LatitudeDegrees>
              <LongitudeDegrees>-5.5656552873551845550537109375</LongitudeDegrees>
            </Position>
            <AltitudeMeters>669.4000244140625</AltitudeMeters>
            <DistanceMeters>NAN</DistanceMeters>
          </Trackpoint>
          <Trackpoint>
            <Time>2019-10-05T09:18:23.000Z</Time>
            <Position>
              <LatitudeDegrees>42.37673965282738208770751953125</LatitudeDegrees>
              <LongitudeDegrees>-5.565697364509105682373046875</LongitudeDegrees>
            </Position>
            <AltitudeMeters>668.79998779296875</AltitudeMeters>
            <DistanceMeters>NAN</DistanceMeters>
          </Trackpoint>
          <Trackpoint>
            <Time>2019-10-05T09:18:28.000Z</Time>
            <Position>
              <LatitudeDegrees>42.37640085630118846893310546875</LatitudeDegrees>
              <LongitudeDegrees>-5.56574120186269283294677734375</LongitudeDegrees>
            </Position>
            <AltitudeMeters>668.5999755859375</AltitudeMeters>
            <DistanceMeters>NAN</DistanceMeters>
          </Trackpoint>
          <Trackpoint>
            <Time>2019-10-05T09:18:29.000Z</Time>
            <Position>
              <LatitudeDegrees>42.37633279524743556976318359375</LatitudeDegrees>
              <LongitudeDegrees>-5.56575092487037181854248046875</LongitudeDegrees>
            </Position>
            <AltitudeMeters>668.79998779296875</AltitudeMeters>
            <DistanceMeters>NAN</DistanceMeters>
          </Trackpoint>
          <Trackpoint>
            <Time>2019-10-05T09:18:37.000Z</Time>
            <Position>
              <LatitudeDegrees>42.37579601816833019256591796875</LatitudeDegrees>
              <LongitudeDegrees>-5.56582217104732990264892578125</LongitudeDegrees>
            </Position>
            <AltitudeMeters>669.4000244140625</AltitudeMeters>
            <DistanceMeters>NAN</DistanceMeters>
          </Trackpoint>
          <Trackpoint>
            <Time>2019-10-05T09:18:38.000Z</Time>
            <Position>
              <LatitudeDegrees>42.37572896294295787811279296875</LatitudeDegrees>
              <LongitudeDegrees>-5.5658313073217868804931640625</LongitudeDegrees>
            </Position>
            <AltitudeMeters>669.4000244140625</AltitudeMeters>
            <DistanceMeters>NAN</DistanceMeters>
          </Trackpoint>
          <Trackpoint>
            <Time>2019-10-05T09:18:46.000Z</Time>
            <Position>
              <LatitudeDegrees>42.37520459108054637908935546875</LatitudeDegrees>
              <LongitudeDegrees>-5.5658961832523345947265625</LongitudeDegrees>
            </Position>
            <AltitudeMeters>669.20001220703125</AltitudeMeters>
            <DistanceMeters>NAN</DistanceMeters>
          </Trackpoint>
          <Trackpoint>
            <Time>2019-10-05T09:18:52.000Z</Time>
            <Position>
              <LatitudeDegrees>42.374842576682567596435546875</LatitudeDegrees>
              <LongitudeDegrees>-5.5659493245184421539306640625</LongitudeDegrees>
            </Position>
            <AltitudeMeters>669.79998779296875</AltitudeMeters>
            <DistanceMeters>NAN</DistanceMeters>
          </Trackpoint>
          <Trackpoint>
            <Time>2019-10-05T09:18:53.000Z</Time>
            <Position>
              <LatitudeDegrees>42.37478314898908138275146484375</LatitudeDegrees>
              <LongitudeDegrees>-5.565957538783550262451171875</LongitudeDegrees>
            </Position>
            <AltitudeMeters>669.79998779296875</AltitudeMeters>
            <DistanceMeters>NAN</DistanceMeters>
          </Trackpoint>
          <Trackpoint>
            <Time>2019-10-05T09:18:59.000Z</Time>
            <Position>
              <LatitudeDegrees>42.37441836856305599212646484375</LatitudeDegrees>
              <LongitudeDegrees>-5.56600254960358142852783203125</LongitudeDegrees>
            </Position>
            <AltitudeMeters>670</AltitudeMeters>
            <DistanceMeters>NAN</DistanceMeters>
          </Trackpoint>
          <Trackpoint>
            <Time>2019-10-05T09:19:01.000Z</Time>
            <Position>
              <LatitudeDegrees>42.37429683096706867218017578125</LatitudeDegrees>
              <LongitudeDegrees>-5.56601596064865589141845703125</LongitudeDegrees>
            </Position>
            <AltitudeMeters>670.4000244140625</AltitudeMeters>
            <DistanceMeters>NAN</DistanceMeters>
          </Trackpoint>
          <Trackpoint>
            <Time>2019-10-05T09:19:09.000Z</Time>
            <Position>
              <LatitudeDegrees>42.37380363978445529937744140625</LatitudeDegrees>
              <LongitudeDegrees>-5.56608318351209163665771484375</LongitudeDegrees>
            </Position>
            <AltitudeMeters>670.4000244140625</AltitudeMeters>
            <DistanceMeters>NAN</DistanceMeters>
          </Trackpoint>
          <Trackpoint>
            <Time>2019-10-05T09:19:13.000Z</Time>
            <Position>
              <LatitudeDegrees>42.37355955876410007476806640625</LatitudeDegrees>
              <LongitudeDegrees>-5.56611235253512859344482421875</LongitudeDegrees>
            </Position>
            <AltitudeMeters>670.4000244140625</AltitudeMeters>
            <DistanceMeters>NAN</DistanceMeters>
          </Trackpoint>
          <Trackpoint>
            <Time>2019-10-05T09:19:22.000Z</Time>
            <Position>
              <LatitudeDegrees>42.37301222048699855804443359375</LatitudeDegrees>
              <LongitudeDegrees>-5.5661858618259429931640625</LongitudeDegrees>
            </Position>
            <AltitudeMeters>670.5999755859375</AltitudeMeters>
            <DistanceMeters>NAN</DistanceMeters>
          </Trackpoint>
          <Trackpoint>
            <Time>2019-10-05T09:19:24.000Z</Time>
            <Position>
              <LatitudeDegrees>42.37289135344326496124267578125</LatitudeDegrees>
              <LongitudeDegrees>-5.5661980994045734405517578125</LongitudeDegrees>
            </Position>
            <AltitudeMeters>670.79998779296875</AltitudeMeters>
            <DistanceMeters>NAN</DistanceMeters>
          </Trackpoint>
          <Trackpoint>
            <Time>2019-10-05T09:19:25.000Z</Time>
            <Position>
              <LatitudeDegrees>42.3728317581117153167724609375</LatitudeDegrees>
              <LongitudeDegrees>-5.56620606221258640289306640625</LongitudeDegrees>
            </Position>
            <AltitudeMeters>670.79998779296875</AltitudeMeters>
            <DistanceMeters>NAN</DistanceMeters>
          </Trackpoint>
          <Trackpoint>
            <Time>2019-10-05T09:19:34.000Z</Time>
            <Position>
              <LatitudeDegrees>42.37229037098586559295654296875</LatitudeDegrees>
              <LongitudeDegrees>-5.5662675015628337860107421875</LongitudeDegrees>
            </Position>
            <AltitudeMeters>671</AltitudeMeters>
            <DistanceMeters>NAN</DistanceMeters>
          </Trackpoint>
          <Trackpoint>
            <Time>2019-10-05T09:19:35.000Z</Time>
            <Position>
              <LatitudeDegrees>42.37223052419722080230712890625</LatitudeDegrees>
              <LongitudeDegrees>-5.56627429090440273284912109375</LongitudeDegrees>
            </Position>
            <AltitudeMeters>671</AltitudeMeters>
            <DistanceMeters>NAN</DistanceMeters>
          </Trackpoint>
          <Trackpoint>
            <Time>2019-10-05T09:19:44.000Z</Time>
            <Position>
              <LatitudeDegrees>42.37170112319290637969970703125</LatitudeDegrees>
              <LongitudeDegrees>-5.56634972803294658660888671875</LongitudeDegrees>
            </Position>
            <AltitudeMeters>670</AltitudeMeters>
            <DistanceMeters>NAN</DistanceMeters>
          </Trackpoint>
          <Trackpoint>
            <Time>2019-10-05T09:19:46.000Z</Time>
            <Position>
              <LatitudeDegrees>42.3715845309197902679443359375</LatitudeDegrees>
              <LongitudeDegrees>-5.56636163033545017242431640625</LongitudeDegrees>
            </Position>
            <AltitudeMeters>670.4000244140625</AltitudeMeters>
            <DistanceMeters>NAN</DistanceMeters>
          </Trackpoint>
          <Trackpoint>
            <Time>2019-10-05T09:19:55.000Z</Time>
            <Position>
              <LatitudeDegrees>42.3710665293037891387939453125</LatitudeDegrees>
              <LongitudeDegrees>-5.5664314515888690948486328125</LongitudeDegrees>
            </Position>
            <AltitudeMeters>670.4000244140625</AltitudeMeters>
            <DistanceMeters>NAN</DistanceMeters>
          </Trackpoint>
          <Trackpoint>
            <Time>2019-10-05T09:20:04.000Z</Time>
            <Position>
              <LatitudeDegrees>42.3705481924116611480712890625</LatitudeDegrees>
              <LongitudeDegrees>-5.56649641133844852447509765625</LongitudeDegrees>
            </Position>
            <AltitudeMeters>670.5999755859375</AltitudeMeters>
            <DistanceMeters>NAN</DistanceMeters>
          </Trackpoint>
          <Trackpoint>
            <Time>2019-10-05T09:20:14.000Z</Time>
            <Position>
              <LatitudeDegrees>42.36998216249048709869384765625</LatitudeDegrees>
              <LongitudeDegrees>-5.566567741334438323974609375</LongitudeDegrees>
            </Position>
            <AltitudeMeters>670.4000244140625</AltitudeMeters>
            <DistanceMeters>NAN</DistanceMeters>
          </Trackpoint>
          <Trackpoint>
            <Time>2019-10-05T09:20:18.000Z</Time>
            <Position>
              <LatitudeDegrees>42.3697596229612827301025390625</LatitudeDegrees>
              <LongitudeDegrees>-5.56659582071006298065185546875</LongitudeDegrees>
            </Position>
            <AltitudeMeters>669.5999755859375</AltitudeMeters>
            <DistanceMeters>NAN</DistanceMeters>
          </Trackpoint>
          <Trackpoint>
            <Time>2019-10-05T09:20:22.000Z</Time>
            <Position>
              <LatitudeDegrees>42.3695428669452667236328125</LatitudeDegrees>
              <LongitudeDegrees>-5.56662616319954395294189453125</LongitudeDegrees>
            </Position>
            <AltitudeMeters>670.20001220703125</AltitudeMeters>
            <DistanceMeters>NAN</DistanceMeters>
          </Trackpoint>
          <Trackpoint>
            <Time>2019-10-05T09:20:24.000Z</Time>
            <Position>
              <LatitudeDegrees>42.36943381838500499725341796875</LatitudeDegrees>
              <LongitudeDegrees>-5.56664074771106243133544921875</LongitudeDegrees>
            </Position>
            <AltitudeMeters>670.79998779296875</AltitudeMeters>
            <DistanceMeters>NAN</DistanceMeters>
          </Trackpoint>
          <Trackpoint>
            <Time>2019-10-05T09:20:34.000Z</Time>
            <Position>
              <LatitudeDegrees>42.3688778467476367950439453125</LatitudeDegrees>
              <LongitudeDegrees>-5.56670797057449817657470703125</LongitudeDegrees>
            </Position>
            <AltitudeMeters>670.4000244140625</AltitudeMeters>
            <DistanceMeters>NAN</DistanceMeters>
          </Trackpoint>
          <Trackpoint>
            <Time>2019-10-05T09:20:44.000Z</Time>
            <Position>
              <LatitudeDegrees>42.3683266527950763702392578125</LatitudeDegrees>
              <LongitudeDegrees>-5.56677804328501224517822265625</LongitudeDegrees>
            </Position>
            <AltitudeMeters>670.79998779296875</AltitudeMeters>
            <DistanceMeters>NAN</DistanceMeters>
          </Trackpoint>
          <Trackpoint>
            <Time>2019-10-05T09:20:54.000Z</Time>
            <Position>
              <LatitudeDegrees>42.3677415959537029266357421875</LatitudeDegrees>
              <LongitudeDegrees>-5.566859431564807891845703125</LongitudeDegrees>
            </Position>
            <AltitudeMeters>670.20001220703125</AltitudeMeters>
            <DistanceMeters>NAN</DistanceMeters>
          </Trackpoint>
          <Trackpoint>
            <Time>2019-10-05T09:20:56.000Z</Time>
            <Position>
              <LatitudeDegrees>42.36761745996773242950439453125</LatitudeDegrees>
              <LongitudeDegrees>-5.566873513162136077880859375</LongitudeDegrees>
            </Position>
            <AltitudeMeters>669.79998779296875</AltitudeMeters>
            <DistanceMeters>NAN</DistanceMeters>
          </Trackpoint>
          <Trackpoint>
            <Time>2019-10-05T09:21:00.000Z</Time>
            <Position>
              <LatitudeDegrees>42.3673649132251739501953125</LatitudeDegrees>
              <LongitudeDegrees>-5.566905029118061065673828125</LongitudeDegrees>
            </Position>
            <AltitudeMeters>669</AltitudeMeters>
            <DistanceMeters>NAN</DistanceMeters>
          </Trackpoint>
          <Trackpoint>
            <Time>2019-10-05T09:21:01.000Z</Time>
            <Position>
              <LatitudeDegrees>42.36730028875172138214111328125</LatitudeDegrees>
              <LongitudeDegrees>-5.566913075745105743408203125</LongitudeDegrees>
            </Position>
            <AltitudeMeters>668.5999755859375</AltitudeMeters>
            <DistanceMeters>NAN</DistanceMeters>
          </Trackpoint>
          <Trackpoint>
            <Time>2019-10-05T09:21:03.000Z</Time>
            <Position>
              <LatitudeDegrees>42.36716869287192821502685546875</LatitudeDegrees>
              <LongitudeDegrees>-5.56693227030336856842041015625</LongitudeDegrees>
            </Position>
            <AltitudeMeters>668.4000244140625</AltitudeMeters>
            <DistanceMeters>NAN</DistanceMeters>
          </Trackpoint>
          <Trackpoint>
            <Time>2019-10-05T09:21:11.000Z</Time>
            <Position>
              <LatitudeDegrees>42.36662118695676326751708984375</LatitudeDegrees>
              <LongitudeDegrees>-5.566998906433582305908203125</LongitudeDegrees>
            </Position>
            <AltitudeMeters>667.4000244140625</AltitudeMeters>
            <DistanceMeters>NAN</DistanceMeters>
          </Trackpoint>
          <Trackpoint>
            <Time>2019-10-05T09:21:19.000Z</Time>
            <Position>
              <LatitudeDegrees>42.3660551570355892181396484375</LatitudeDegrees>
              <LongitudeDegrees>-5.56705917231738567352294921875</LongitudeDegrees>
            </Position>
            <AltitudeMeters>666.4000244140625</AltitudeMeters>
            <DistanceMeters>NAN</DistanceMeters>
          </Trackpoint>
          <Trackpoint>
            <Time>2019-10-05T09:21:20.000Z</Time>
            <Position>
              <LatitudeDegrees>42.36598432995378971099853515625</LatitudeDegrees>
              <LongitudeDegrees>-5.567065291106700897216796875</LongitudeDegrees>
            </Position>
            <AltitudeMeters>666.20001220703125</AltitudeMeters>
            <DistanceMeters>NAN</DistanceMeters>
          </Trackpoint>
          <Trackpoint>
            <Time>2019-10-05T09:21:22.000Z</Time>
            <Position>
              <LatitudeDegrees>42.3658419214189052581787109375</LatitudeDegrees>
              <LongitudeDegrees>-5.5670778639614582061767578125</LongitudeDegrees>
            </Position>
            <AltitudeMeters>666.4000244140625</AltitudeMeters>
            <DistanceMeters>NAN</DistanceMeters>
          </Trackpoint>
          <Trackpoint>
            <Time>2019-10-05T09:21:30.000Z</Time>
            <Position>
              <LatitudeDegrees>42.365287207067012786865234375</LatitudeDegrees>
              <LongitudeDegrees>-5.56710560806095600128173828125</LongitudeDegrees>
            </Position>
            <AltitudeMeters>665.79998779296875</AltitudeMeters>
            <DistanceMeters>NAN</DistanceMeters>
          </Trackpoint>
          <Trackpoint>
            <Time>2019-10-05T09:21:33.000Z</Time>
            <Position>
              <LatitudeDegrees>42.3650836944580078125</LatitudeDegrees>
              <LongitudeDegrees>-5.56711130775511264801025390625</LongitudeDegrees>
            </Position>
            <AltitudeMeters>665.79998779296875</AltitudeMeters>
            <DistanceMeters>NAN</DistanceMeters>
          </Trackpoint>
          <Trackpoint>
            <Time>2019-10-05T09:21:41.000Z</Time>
            <Position>
              <LatitudeDegrees>42.36455840058624744415283203125</LatitudeDegrees>
              <LongitudeDegrees>-5.56711935438215732574462890625</LongitudeDegrees>
            </Position>
            <AltitudeMeters>665.5999755859375</AltitudeMeters>
            <DistanceMeters>NAN</DistanceMeters>
          </Trackpoint>
          <Trackpoint>
            <Time>2019-10-05T09:21:42.000Z</Time>
            <Position>
              <LatitudeDegrees>42.3644924350082874298095703125</LatitudeDegrees>
              <LongitudeDegrees>-5.5671207793056964874267578125</LongitudeDegrees>
            </Position>
            <AltitudeMeters>666</AltitudeMeters>
            <DistanceMeters>NAN</DistanceMeters>
          </Trackpoint>
          <Trackpoint>
            <Time>2019-10-05T09:21:48.000Z</Time>
            <Position>
              <LatitudeDegrees>42.3641031794250011444091796875</LatitudeDegrees>
              <LongitudeDegrees>-5.56712723337113857269287109375</LongitudeDegrees>
            </Position>
            <AltitudeMeters>664.79998779296875</AltitudeMeters>
            <DistanceMeters>NAN</DistanceMeters>
          </Trackpoint>
          <Trackpoint>
            <Time>2019-10-05T09:21:52.000Z</Time>
            <Position>
              <LatitudeDegrees>42.36384158022701740264892578125</LatitudeDegrees>
              <LongitudeDegrees>-5.567132346332073211669921875</LongitudeDegrees>
            </Position>
            <AltitudeMeters>665.4000244140625</AltitudeMeters>
            <DistanceMeters>NAN</DistanceMeters>
          </Trackpoint>
          <Trackpoint>
            <Time>2019-10-05T09:21:53.000Z</Time>
            <Position>
              <LatitudeDegrees>42.3637749440968036651611328125</LatitudeDegrees>
              <LongitudeDegrees>-5.5671335197985172271728515625</LongitudeDegrees>
            </Position>
            <AltitudeMeters>665.4000244140625</AltitudeMeters>
            <DistanceMeters>NAN</DistanceMeters>
          </Trackpoint>
          <Trackpoint>
            <Time>2019-10-05T09:22:01.000Z</Time>
            <Position>
              <LatitudeDegrees>42.36323766410350799560546875</LatitudeDegrees>
              <LongitudeDegrees>-5.5671393871307373046875</LongitudeDegrees>
            </Position>
            <AltitudeMeters>664.4000244140625</AltitudeMeters>
            <DistanceMeters>NAN</DistanceMeters>
          </Trackpoint>
          <Trackpoint>
            <Time>2019-10-05T09:22:02.000Z</Time>
            <Position>
              <LatitudeDegrees>42.36317069269716739654541015625</LatitudeDegrees>
              <LongitudeDegrees>-5.56714315898716449737548828125</LongitudeDegrees>
            </Position>
            <AltitudeMeters>664.4000244140625</AltitudeMeters>
            <DistanceMeters>NAN</DistanceMeters>
          </Trackpoint>
          <Trackpoint>
            <Time>2019-10-05T09:22:06.000Z</Time>
            <Position>
              <LatitudeDegrees>42.36290507018566131591796875</LatitudeDegrees>
              <LongitudeDegrees>-5.56713611818850040435791015625</LongitudeDegrees>
            </Position>
            <AltitudeMeters>664.20001220703125</AltitudeMeters>
            <DistanceMeters>NAN</DistanceMeters>
          </Trackpoint>
          <Trackpoint>
            <Time>2019-10-05T09:22:08.000Z</Time>
            <Position>
              <LatitudeDegrees>42.362771965563297271728515625</LatitudeDegrees>
              <LongitudeDegrees>-5.56713863275945186614990234375</LongitudeDegrees>
            </Position>
            <AltitudeMeters>664.20001220703125</AltitudeMeters>
            <DistanceMeters>NAN</DistanceMeters>
          </Trackpoint>
          <Trackpoint>
            <Time>2019-10-05T09:22:16.000Z</Time>
            <Position>
              <LatitudeDegrees>42.3622392117977142333984375</LatitudeDegrees>
              <LongitudeDegrees>-5.56714818812906742095947265625</LongitudeDegrees>
            </Position>
            <AltitudeMeters>664</AltitudeMeters>
            <DistanceMeters>NAN</DistanceMeters>
          </Trackpoint>
          <Trackpoint>
            <Time>2019-10-05T09:22:17.000Z</Time>
            <Position>
              <LatitudeDegrees>42.36217282712459564208984375</LatitudeDegrees>
              <LongitudeDegrees>-5.56714768521487712860107421875</LongitudeDegrees>
            </Position>
            <AltitudeMeters>663.5999755859375</AltitudeMeters>
            <DistanceMeters>NAN</DistanceMeters>
          </Trackpoint>
          <Trackpoint>
            <Time>2019-10-05T09:22:18.000Z</Time>
            <Position>
              <LatitudeDegrees>42.36210468225181102752685546875</LatitudeDegrees>
              <LongitudeDegrees>-5.56715003214776515960693359375</LongitudeDegrees>
            </Position>
            <AltitudeMeters>663.79998779296875</AltitudeMeters>
            <DistanceMeters>NAN</DistanceMeters>
          </Trackpoint>
          <Trackpoint>
            <Time>2019-10-05T09:22:22.000Z</Time>
            <Position>
              <LatitudeDegrees>42.36184417270123958587646484375</LatitudeDegrees>
              <LongitudeDegrees>-5.5671576596796512603759765625</LongitudeDegrees>
            </Position>
            <AltitudeMeters>663.4000244140625</AltitudeMeters>
            <DistanceMeters>NAN</DistanceMeters>
          </Trackpoint>
          <Trackpoint>
            <Time>2019-10-05T09:22:25.000Z</Time>
            <Position>
              <LatitudeDegrees>42.36164820380508899688720703125</LatitudeDegrees>
              <LongitudeDegrees>-5.5671600066125392913818359375</LongitudeDegrees>
            </Position>
            <AltitudeMeters>663.20001220703125</AltitudeMeters>
            <DistanceMeters>NAN</DistanceMeters>
          </Trackpoint>
          <Trackpoint>
            <Time>2019-10-05T09:22:34.000Z</Time>
            <Position>
              <LatitudeDegrees>42.3610672540962696075439453125</LatitudeDegrees>
              <LongitudeDegrees>-5.56715925224125385284423828125</LongitudeDegrees>
            </Position>
            <AltitudeMeters>663.5999755859375</AltitudeMeters>
            <DistanceMeters>NAN</DistanceMeters>
          </Trackpoint>
          <Trackpoint>
            <Time>2019-10-05T09:22:35.000Z</Time>
            <Position>
              <LatitudeDegrees>42.36100212670862674713134765625</LatitudeDegrees>
              <LongitudeDegrees>-5.5671600066125392913818359375</LongitudeDegrees>
            </Position>
            <AltitudeMeters>663.5999755859375</AltitudeMeters>
            <DistanceMeters>NAN</DistanceMeters>
          </Trackpoint>
          <Trackpoint>
            <Time>2019-10-05T09:22:44.000Z</Time>
            <Position>
              <LatitudeDegrees>42.36042897216975688934326171875</LatitudeDegrees>
              <LongitudeDegrees>-5.56717668659985065460205078125</LongitudeDegrees>
            </Position>
            <AltitudeMeters>664</AltitudeMeters>
            <DistanceMeters>NAN</DistanceMeters>
          </Trackpoint>
          <Trackpoint>
            <Time>2019-10-05T09:22:53.000Z</Time>
            <Position>
              <LatitudeDegrees>42.35984173603355884552001953125</LatitudeDegrees>
              <LongitudeDegrees>-5.5671824701130390167236328125</LongitudeDegrees>
            </Position>
            <AltitudeMeters>662.79998779296875</AltitudeMeters>
            <DistanceMeters>NAN</DistanceMeters>
          </Trackpoint>
          <Trackpoint>
            <Time>2019-10-05T09:22:55.000Z</Time>
            <Position>
              <LatitudeDegrees>42.35971366055309772491455078125</LatitudeDegrees>
              <LongitudeDegrees>-5.56718473322689533233642578125</LongitudeDegrees>
            </Position>
            <AltitudeMeters>662.5999755859375</AltitudeMeters>
            <DistanceMeters>NAN</DistanceMeters>
          </Trackpoint>
          <Trackpoint>
            <Time>2019-10-05T09:22:56.000Z</Time>
            <Position>
              <LatitudeDegrees>42.35964995808899402618408203125</LatitudeDegrees>
              <LongitudeDegrees>-5.56718389503657817840576171875</LongitudeDegrees>
            </Position>
            <AltitudeMeters>662.79998779296875</AltitudeMeters>
            <DistanceMeters>NAN</DistanceMeters>
          </Trackpoint>
          <Trackpoint>
            <Time>2019-10-05T09:23:01.000Z</Time>
            <Position>
              <LatitudeDegrees>42.35933328978717327117919921875</LatitudeDegrees>
              <LongitudeDegrees>-5.56718691252171993255615234375</LongitudeDegrees>
            </Position>
            <AltitudeMeters>663.5999755859375</AltitudeMeters>
            <DistanceMeters>NAN</DistanceMeters>
          </Trackpoint>
          <Trackpoint>
            <Time>2019-10-05T09:23:06.000Z</Time>
            <Position>
              <LatitudeDegrees>42.35901243053376674652099609375</LatitudeDegrees>
              <LongitudeDegrees>-5.56718766689300537109375</LongitudeDegrees>
            </Position>
            <AltitudeMeters>663</AltitudeMeters>
            <DistanceMeters>NAN</DistanceMeters>
          </Trackpoint>
          <Trackpoint>
            <Time>2019-10-05T09:23:08.000Z</Time>
            <Position>
              <LatitudeDegrees>42.3588879592716693878173828125</LatitudeDegrees>
              <LongitudeDegrees>-5.56719127111136913299560546875</LongitudeDegrees>
            </Position>
            <AltitudeMeters>662.4000244140625</AltitudeMeters>
            <DistanceMeters>NAN</DistanceMeters>
          </Trackpoint>
          <Trackpoint>
            <Time>2019-10-05T09:23:15.000Z</Time>
            <Position>
              <LatitudeDegrees>42.35845335759222507476806640625</LatitudeDegrees>
              <LongitudeDegrees>-5.56719495914876461029052734375</LongitudeDegrees>
            </Position>
            <AltitudeMeters>663.20001220703125</AltitudeMeters>
            <DistanceMeters>NAN</DistanceMeters>
          </Trackpoint>
          <Trackpoint>
            <Time>2019-10-05T09:23:23.000Z</Time>
            <Position>
              <LatitudeDegrees>42.3579636029899120330810546875</LatitudeDegrees>
              <LongitudeDegrees>-5.567205436527729034423828125</LongitudeDegrees>
            </Position>
            <AltitudeMeters>663.20001220703125</AltitudeMeters>
            <DistanceMeters>NAN</DistanceMeters>
          </Trackpoint>
          <Trackpoint>
            <Time>2019-10-05T09:23:25.000Z</Time>
            <Position>
              <LatitudeDegrees>42.357838712632656097412109375</LatitudeDegrees>
              <LongitudeDegrees>-5.5672092922031879425048828125</LongitudeDegrees>
            </Position>
            <AltitudeMeters>663.5999755859375</AltitudeMeters>
            <DistanceMeters>NAN</DistanceMeters>
          </Trackpoint>
          <Trackpoint>
            <Time>2019-10-05T09:23:31.000Z</Time>
            <Position>
              <LatitudeDegrees>42.35746462829411029815673828125</LatitudeDegrees>
              <LongitudeDegrees>-5.56722932495176792144775390625</LongitudeDegrees>
            </Position>
            <AltitudeMeters>663</AltitudeMeters>
            <DistanceMeters>NAN</DistanceMeters>
          </Trackpoint>
          <Trackpoint>
            <Time>2019-10-05T09:23:40.000Z</Time>
            <Position>
              <LatitudeDegrees>42.35691326670348644256591796875</LatitudeDegrees>
              <LongitudeDegrees>-5.56727911345660686492919921875</LongitudeDegrees>
            </Position>
            <AltitudeMeters>664</AltitudeMeters>
            <DistanceMeters>NAN</DistanceMeters>
          </Trackpoint>
          <Trackpoint>
            <Time>2019-10-05T09:23:49.000Z</Time>
            <Position>
              <LatitudeDegrees>42.35636182129383087158203125</LatitudeDegrees>
              <LongitudeDegrees>-5.5673628486692905426025390625</LongitudeDegrees>
            </Position>
            <AltitudeMeters>663.4000244140625</AltitudeMeters>
            <DistanceMeters>NAN</DistanceMeters>
          </Trackpoint>
          <Trackpoint>
            <Time>2019-10-05T09:23:58.000Z</Time>
            <Position>
              <LatitudeDegrees>42.355809621512889862060546875</LatitudeDegrees>
              <LongitudeDegrees>-5.5674875713884830474853515625</LongitudeDegrees>
            </Position>
            <AltitudeMeters>663.20001220703125</AltitudeMeters>
            <DistanceMeters>NAN</DistanceMeters>
          </Trackpoint>
          <Trackpoint>
            <Time>2019-10-05T09:24:02.000Z</Time>
            <Position>
              <LatitudeDegrees>42.35556654632091522216796875</LatitudeDegrees>
              <LongitudeDegrees>-5.56754917837679386138916015625</LongitudeDegrees>
            </Position>
            <AltitudeMeters>663</AltitudeMeters>
            <DistanceMeters>NAN</DistanceMeters>
          </Trackpoint>
          <Trackpoint>
            <Time>2019-10-05T09:24:11.000Z</Time>
            <Position>
              <LatitudeDegrees>42.3550145141780376434326171875</LatitudeDegrees>
              <LongitudeDegrees>-5.5677021481096744537353515625</LongitudeDegrees>
            </Position>
            <AltitudeMeters>663.4000244140625</AltitudeMeters>
            <DistanceMeters>NAN</DistanceMeters>
          </Trackpoint>
          <Trackpoint>
            <Time>2019-10-05T09:24:12.000Z</Time>
            <Position>
              <LatitudeDegrees>42.35495374538004398345947265625</LatitudeDegrees>
              <LongitudeDegrees>-5.5677209235727787017822265625</LongitudeDegrees>
            </Position>
            <AltitudeMeters>663</AltitudeMeters>
            <DistanceMeters>NAN</DistanceMeters>
          </Trackpoint>
          <Trackpoint>
            <Time>2019-10-05T09:24:14.000Z</Time>
            <Position>
              <LatitudeDegrees>42.354832626879215240478515625</LatitudeDegrees>
              <LongitudeDegrees>-5.5677591450512409210205078125</LongitudeDegrees>
            </Position>
            <AltitudeMeters>662.5999755859375</AltitudeMeters>
            <DistanceMeters>NAN</DistanceMeters>
          </Trackpoint>
          <Trackpoint>
            <Time>2019-10-05T09:24:20.000Z</Time>
            <Position>
              <LatitudeDegrees>42.354467175900936126708984375</LatitudeDegrees>
              <LongitudeDegrees>-5.567863248288631439208984375</LongitudeDegrees>
            </Position>
            <AltitudeMeters>663.5999755859375</AltitudeMeters>
            <DistanceMeters>NAN</DistanceMeters>
          </Trackpoint>
          <Trackpoint>
            <Time>2019-10-05T09:24:23.000Z</Time>
            <Position>
              <LatitudeDegrees>42.3542829416692256927490234375</LatitudeDegrees>
              <LongitudeDegrees>-5.56791814975440502166748046875</LongitudeDegrees>
            </Position>
            <AltitudeMeters>662.79998779296875</AltitudeMeters>
            <DistanceMeters>NAN</DistanceMeters>
          </Trackpoint>
          <Trackpoint>
            <Time>2019-10-05T09:24:27.000Z</Time>
            <Position>
              <LatitudeDegrees>42.354037351906299591064453125</LatitudeDegrees>
              <LongitudeDegrees>-5.5679909884929656982421875</LongitudeDegrees>
            </Position>
            <AltitudeMeters>662.4000244140625</AltitudeMeters>
            <DistanceMeters>NAN</DistanceMeters>
          </Trackpoint>
          <Trackpoint>
            <Time>2019-10-05T09:24:35.000Z</Time>
            <Position>
              <LatitudeDegrees>42.353556565940380096435546875</LatitudeDegrees>
              <LongitudeDegrees>-5.5681302957236766815185546875</LongitudeDegrees>
            </Position>
            <AltitudeMeters>662.4000244140625</AltitudeMeters>
            <DistanceMeters>NAN</DistanceMeters>
          </Trackpoint>
          <Trackpoint>
            <Time>2019-10-05T09:24:44.000Z</Time>
            <Position>
              <LatitudeDegrees>42.35301517881453037261962890625</LatitudeDegrees>
              <LongitudeDegrees>-5.5682821758091449737548828125</LongitudeDegrees>
            </Position>
            <AltitudeMeters>662.20001220703125</AltitudeMeters>
            <DistanceMeters>NAN</DistanceMeters>
          </Trackpoint>
          <Trackpoint>
            <Time>2019-10-05T09:24:47.000Z</Time>
            <Position>
              <LatitudeDegrees>42.3528335429728031158447265625</LatitudeDegrees>
              <LongitudeDegrees>-5.56833364069461822509765625</LongitudeDegrees>
            </Position>
            <AltitudeMeters>662.4000244140625</AltitudeMeters>
            <DistanceMeters>NAN</DistanceMeters>
          </Trackpoint>
          <Trackpoint>
            <Time>2019-10-05T09:24:56.000Z</Time>
            <Position>
              <LatitudeDegrees>42.352281175553798675537109375</LatitudeDegrees>
              <LongitudeDegrees>-5.5684947408735752105712890625</LongitudeDegrees>
            </Position>
            <AltitudeMeters>662.79998779296875</AltitudeMeters>
            <DistanceMeters>NAN</DistanceMeters>
          </Trackpoint>
          <Trackpoint>
            <Time>2019-10-05T09:24:58.000Z</Time>
            <Position>
              <LatitudeDegrees>42.35216257162392139434814453125</LatitudeDegrees>
              <LongitudeDegrees>-5.568536482751369476318359375</LongitudeDegrees>
            </Position>
            <AltitudeMeters>662.5999755859375</AltitudeMeters>
            <DistanceMeters>NAN</DistanceMeters>
          </Trackpoint>
          <Trackpoint>
            <Time>2019-10-05T09:25:06.000Z</Time>
            <Position>
              <LatitudeDegrees>42.3516713082790374755859375</LatitudeDegrees>
              <LongitudeDegrees>-5.56867696344852447509765625</LongitudeDegrees>
            </Position>
            <AltitudeMeters>662.20001220703125</AltitudeMeters>
            <DistanceMeters>NAN</DistanceMeters>
          </Trackpoint>
          <Trackpoint>
            <Time>2019-10-05T09:25:15.000Z</Time>
            <Position>
              <LatitudeDegrees>42.35112288035452365875244140625</LatitudeDegrees>
              <LongitudeDegrees>-5.568838231265544891357421875</LongitudeDegrees>
            </Position>
            <AltitudeMeters>662.20001220703125</AltitudeMeters>
            <DistanceMeters>NAN</DistanceMeters>
          </Trackpoint>
          <Trackpoint>
            <Time>2019-10-05T09:25:16.000Z</Time>
            <Position>
              <LatitudeDegrees>42.35106403939425945281982421875</LatitudeDegrees>
              <LongitudeDegrees>-5.56885424070060253143310546875</LongitudeDegrees>
            </Position>
            <AltitudeMeters>661.79998779296875</AltitudeMeters>
            <DistanceMeters>NAN</DistanceMeters>
          </Trackpoint>
          <Trackpoint>
            <Time>2019-10-05T09:25:24.000Z</Time>
            <Position>
              <LatitudeDegrees>42.3505982570350170135498046875</LatitudeDegrees>
              <LongitudeDegrees>-5.56898835115134716033935546875</LongitudeDegrees>
            </Position>
            <AltitudeMeters>662.4000244140625</AltitudeMeters>
            <DistanceMeters>NAN</DistanceMeters>
          </Trackpoint>
          <Trackpoint>
            <Time>2019-10-05T09:25:25.000Z</Time>
            <Position>
              <LatitudeDegrees>42.3505415953695774078369140625</LatitudeDegrees>
              <LongitudeDegrees>-5.569003857672214508056640625</LongitudeDegrees>
            </Position>
            <AltitudeMeters>662.4000244140625</AltitudeMeters>
            <DistanceMeters>NAN</DistanceMeters>
          </Trackpoint>
          <Trackpoint>
            <Time>2019-10-05T09:25:34.000Z</Time>
            <Position>
              <LatitudeDegrees>42.35004362650215625762939453125</LatitudeDegrees>
              <LongitudeDegrees>-5.5691443383693695068359375</LongitudeDegrees>
            </Position>
            <AltitudeMeters>662.79998779296875</AltitudeMeters>
            <DistanceMeters>NAN</DistanceMeters>
          </Trackpoint>
          <Trackpoint>
            <Time>2019-10-05T09:25:44.000Z</Time>
            <Position>
              <LatitudeDegrees>42.3494864813983440399169921875</LatitudeDegrees>
              <LongitudeDegrees>-5.56930636055767536163330078125</LongitudeDegrees>
            </Position>
            <AltitudeMeters>662.4000244140625</AltitudeMeters>
            <DistanceMeters>NAN</DistanceMeters>
          </Trackpoint>
          <Trackpoint>
            <Time>2019-10-05T09:25:46.000Z</Time>
            <Position>
              <LatitudeDegrees>42.3493765108287334442138671875</LatitudeDegrees>
              <LongitudeDegrees>-5.569335781037807464599609375</LongitudeDegrees>
            </Position>
            <AltitudeMeters>662.5999755859375</AltitudeMeters>
            <DistanceMeters>NAN</DistanceMeters>
          </Trackpoint>
          <Trackpoint>
            <Time>2019-10-05T09:25:55.000Z</Time>
            <Position>
              <LatitudeDegrees>42.3488779552280902862548828125</LatitudeDegrees>
              <LongitudeDegrees>-5.56948254816234111785888671875</LongitudeDegrees>
            </Position>
            <AltitudeMeters>662.5999755859375</AltitudeMeters>
            <DistanceMeters>NAN</DistanceMeters>
          </Trackpoint>
          <Trackpoint>
            <Time>2019-10-05T09:26:05.000Z</Time>
            <Position>
              <LatitudeDegrees>42.34832189977169036865234375</LatitudeDegrees>
              <LongitudeDegrees>-5.5696433968842029571533203125</LongitudeDegrees>
            </Position>
            <AltitudeMeters>662.20001220703125</AltitudeMeters>
            <DistanceMeters>NAN</DistanceMeters>
          </Trackpoint>
          <Trackpoint>
            <Time>2019-10-05T09:26:09.000Z</Time>
            <Position>
              <LatitudeDegrees>42.34809868969023227691650390625</LatitudeDegrees>
              <LongitudeDegrees>-5.56970701552927494049072265625</LongitudeDegrees>
            </Position>
            <AltitudeMeters>662.20001220703125</AltitudeMeters>
            <DistanceMeters>NAN</DistanceMeters>
          </Trackpoint>
          <Trackpoint>
            <Time>2019-10-05T09:26:19.000Z</Time>
            <Position>
              <LatitudeDegrees>42.34753333032131195068359375</LatitudeDegrees>
              <LongitudeDegrees>-5.56987498886883258819580078125</LongitudeDegrees>
            </Position>
            <AltitudeMeters>662.20001220703125</AltitudeMeters>
            <DistanceMeters>NAN</DistanceMeters>
          </Trackpoint>
          <Trackpoint>
            <Time>2019-10-05T09:26:20.000Z</Time>
            <Position>
              <LatitudeDegrees>42.347476668655872344970703125</LatitudeDegrees>
              <LongitudeDegrees>-5.5698925070464611053466796875</LongitudeDegrees>
            </Position>
            <AltitudeMeters>662.5999755859375</AltitudeMeters>
            <DistanceMeters>NAN</DistanceMeters>
          </Trackpoint>
          <Trackpoint>
            <Time>2019-10-05T09:26:29.000Z</Time>
            <Position>
              <LatitudeDegrees>42.3469531349837779998779296875</LatitudeDegrees>
              <LongitudeDegrees>-5.57003843598067760467529296875</LongitudeDegrees>
            </Position>
            <AltitudeMeters>663</AltitudeMeters>
            <DistanceMeters>NAN</DistanceMeters>
          </Trackpoint>
          <Trackpoint>
            <Time>2019-10-05T09:26:35.000Z</Time>
            <Position>
              <LatitudeDegrees>42.346599586308002471923828125</LatitudeDegrees>
              <LongitudeDegrees>-5.57014186866581439971923828125</LongitudeDegrees>
            </Position>
            <AltitudeMeters>661.79998779296875</AltitudeMeters>
            <DistanceMeters>NAN</DistanceMeters>
          </Trackpoint>
          <Trackpoint>
            <Time>2019-10-05T09:26:37.000Z</Time>
            <Position>
              <LatitudeDegrees>42.346484921872615814208984375</LatitudeDegrees>
              <LongitudeDegrees>-5.57017321698367595672607421875</LongitudeDegrees>
            </Position>
            <AltitudeMeters>662</AltitudeMeters>
            <DistanceMeters>NAN</DistanceMeters>
          </Trackpoint>
          <Trackpoint>
            <Time>2019-10-05T09:26:41.000Z</Time>
            <Position>
              <LatitudeDegrees>42.3462443612515926361083984375</LatitudeDegrees>
              <LongitudeDegrees>-5.57024396024644374847412109375</LongitudeDegrees>
            </Position>
            <AltitudeMeters>661.20001220703125</AltitudeMeters>
            <DistanceMeters>NAN</DistanceMeters>
          </Trackpoint>
          <Trackpoint>
            <Time>2019-10-05T09:26:44.000Z</Time>
            <Position>
              <LatitudeDegrees>42.3460613004863262176513671875</LatitudeDegrees>
              <LongitudeDegrees>-5.57029894553124904632568359375</LongitudeDegrees>
            </Position>
            <AltitudeMeters>661</AltitudeMeters>
            <DistanceMeters>NAN</DistanceMeters>
          </Trackpoint>
          <Trackpoint>
            <Time>2019-10-05T09:26:51.000Z</Time>
            <Position>
              <LatitudeDegrees>42.3456524312496185302734375</LatitudeDegrees>
              <LongitudeDegrees>-5.57041645981371402740478515625</LongitudeDegrees>
            </Position>
            <AltitudeMeters>660.79998779296875</AltitudeMeters>
            <DistanceMeters>NAN</DistanceMeters>
          </Trackpoint>
          <Trackpoint>
            <Time>2019-10-05T09:26:58.000Z</Time>
            <Position>
              <LatitudeDegrees>42.34524062834680080413818359375</LatitudeDegrees>
              <LongitudeDegrees>-5.57054034434258937835693359375</LongitudeDegrees>
            </Position>
            <AltitudeMeters>660.20001220703125</AltitudeMeters>
            <DistanceMeters>NAN</DistanceMeters>
          </Trackpoint>
          <Trackpoint>
            <Time>2019-10-05T09:27:02.000Z</Time>
            <Position>
              <LatitudeDegrees>42.3450004868209362030029296875</LatitudeDegrees>
              <LongitudeDegrees>-5.57061485946178436279296875</LongitudeDegrees>
            </Position>
            <AltitudeMeters>661.4000244140625</AltitudeMeters>
            <DistanceMeters>NAN</DistanceMeters>
          </Trackpoint>
          <Trackpoint>
            <Time>2019-10-05T09:27:10.000Z</Time>
            <Position>
              <LatitudeDegrees>42.3445071280002593994140625</LatitudeDegrees>
              <LongitudeDegrees>-5.5707571841776371002197265625</LongitudeDegrees>
            </Position>
            <AltitudeMeters>661.4000244140625</AltitudeMeters>
            <DistanceMeters>NAN</DistanceMeters>
          </Trackpoint>
          <Trackpoint>
            <Time>2019-10-05T09:27:19.000Z</Time>
            <Position>
              <LatitudeDegrees>42.3439597897231578826904296875</LatitudeDegrees>
              <LongitudeDegrees>-5.57091970928013324737548828125</LongitudeDegrees>
            </Position>
            <AltitudeMeters>660.5999755859375</AltitudeMeters>
            <DistanceMeters>NAN</DistanceMeters>
          </Trackpoint>
          <Trackpoint>
            <Time>2019-10-05T09:27:21.000Z</Time>
            <Position>
              <LatitudeDegrees>42.3438365757465362548828125</LatitudeDegrees>
              <LongitudeDegrees>-5.5709533207118511199951171875</LongitudeDegrees>
            </Position>
            <AltitudeMeters>660.4000244140625</AltitudeMeters>
            <DistanceMeters>NAN</DistanceMeters>
          </Trackpoint>
          <Trackpoint>
            <Time>2019-10-05T09:27:23.000Z</Time>
            <Position>
              <LatitudeDegrees>42.34371528960764408111572265625</LatitudeDegrees>
              <LongitudeDegrees>-5.570991374552249908447265625</LongitudeDegrees>
            </Position>
            <AltitudeMeters>660.20001220703125</AltitudeMeters>
            <DistanceMeters>NAN</DistanceMeters>
          </Trackpoint>
          <Trackpoint>
            <Time>2019-10-05T09:27:32.000Z</Time>
            <Position>
              <LatitudeDegrees>42.34317004680633544921875</LatitudeDegrees>
              <LongitudeDegrees>-5.5711461044847965240478515625</LongitudeDegrees>
            </Position>
            <AltitudeMeters>660.20001220703125</AltitudeMeters>
            <DistanceMeters>NAN</DistanceMeters>
          </Trackpoint>
          <Trackpoint>
            <Time>2019-10-05T09:27:41.000Z</Time>
            <Position>
              <LatitudeDegrees>42.3426230438053607940673828125</LatitudeDegrees>
              <LongitudeDegrees>-5.57130343280732631683349609375</LongitudeDegrees>
            </Position>
            <AltitudeMeters>660.20001220703125</AltitudeMeters>
            <DistanceMeters>NAN</DistanceMeters>
          </Trackpoint>
          <Trackpoint>
            <Time>2019-10-05T09:27:42.000Z</Time>
            <Position>
              <LatitudeDegrees>42.3425603471696376800537109375</LatitudeDegrees>
              <LongitudeDegrees>-5.57131986133754253387451171875</LongitudeDegrees>
            </Position>
            <AltitudeMeters>660</AltitudeMeters>
            <DistanceMeters>NAN</DistanceMeters>
          </Trackpoint>
          <Trackpoint>
            <Time>2019-10-05T09:27:46.000Z</Time>
            <Position>
              <LatitudeDegrees>42.34231081791222095489501953125</LatitudeDegrees>
              <LongitudeDegrees>-5.57139161042869091033935546875</LongitudeDegrees>
            </Position>
            <AltitudeMeters>659.20001220703125</AltitudeMeters>
            <DistanceMeters>NAN</DistanceMeters>
          </Trackpoint>
          <Trackpoint>
            <Time>2019-10-05T09:27:49.000Z</Time>
            <Position>
              <LatitudeDegrees>42.342124991118907928466796875</LatitudeDegrees>
              <LongitudeDegrees>-5.57144424878060817718505859375</LongitudeDegrees>
            </Position>
            <AltitudeMeters>659.79998779296875</AltitudeMeters>
            <DistanceMeters>NAN</DistanceMeters>
          </Trackpoint>
          <Trackpoint>
            <Time>2019-10-05T09:27:55.000Z</Time>
            <Position>
              <LatitudeDegrees>42.3417556844651699066162109375</LatitudeDegrees>
              <LongitudeDegrees>-5.571556650102138519287109375</LongitudeDegrees>
            </Position>
            <AltitudeMeters>659.5999755859375</AltitudeMeters>
            <DistanceMeters>NAN</DistanceMeters>
          </Trackpoint>
          <Trackpoint>
            <Time>2019-10-05T09:28:03.000Z</Time>
            <Position>
              <LatitudeDegrees>42.34127514995634555816650390625</LatitudeDegrees>
              <LongitudeDegrees>-5.571706183254718780517578125</LongitudeDegrees>
            </Position>
            <AltitudeMeters>659.4000244140625</AltitudeMeters>
            <DistanceMeters>NAN</DistanceMeters>
          </Trackpoint>
          <Trackpoint>
            <Time>2019-10-05T09:28:12.000Z</Time>
            <Position>
              <LatitudeDegrees>42.340737283229827880859375</LatitudeDegrees>
              <LongitudeDegrees>-5.57185814715921878814697265625</LongitudeDegrees>
            </Position>
            <AltitudeMeters>659.5999755859375</AltitudeMeters>
            <DistanceMeters>NAN</DistanceMeters>
          </Trackpoint>
          <Trackpoint>
            <Time>2019-10-05T09:28:14.000Z</Time>
            <Position>
              <LatitudeDegrees>42.3406217806041240692138671875</LatitudeDegrees>
              <LongitudeDegrees>-5.5718927644193172454833984375</LongitudeDegrees>
            </Position>
            <AltitudeMeters>659.20001220703125</AltitudeMeters>
            <DistanceMeters>NAN</DistanceMeters>
          </Trackpoint>
          <Trackpoint>
            <Time>2019-10-05T09:28:23.000Z</Time>
            <Position>
              <LatitudeDegrees>42.340124733746051788330078125</LatitudeDegrees>
              <LongitudeDegrees>-5.57202695868909358978271484375</LongitudeDegrees>
            </Position>
            <AltitudeMeters>659.4000244140625</AltitudeMeters>
            <DistanceMeters>NAN</DistanceMeters>
          </Trackpoint>
          <Trackpoint>
            <Time>2019-10-05T09:28:32.000Z</Time>
            <Position>
              <LatitudeDegrees>42.339633889496326446533203125</LatitudeDegrees>
              <LongitudeDegrees>-5.572174899280071258544921875</LongitudeDegrees>
            </Position>
            <AltitudeMeters>659.4000244140625</AltitudeMeters>
            <DistanceMeters>NAN</DistanceMeters>
          </Trackpoint>
          <Trackpoint>
            <Time>2019-10-05T09:28:42.000Z</Time>
            <Position>
              <LatitudeDegrees>42.3390890657901763916015625</LatitudeDegrees>
              <LongitudeDegrees>-5.5723281204700469970703125</LongitudeDegrees>
            </Position>
            <AltitudeMeters>659.4000244140625</AltitudeMeters>
            <DistanceMeters>NAN</DistanceMeters>
          </Trackpoint>
          <Trackpoint>
            <Time>2019-10-05T09:28:43.000Z</Time>
            <Position>
              <LatitudeDegrees>42.33903449960052967071533203125</LatitudeDegrees>
              <LongitudeDegrees>-5.57234362699091434478759765625</LongitudeDegrees>
            </Position>
            <AltitudeMeters>659.4000244140625</AltitudeMeters>
            <DistanceMeters>NAN</DistanceMeters>
          </Trackpoint>
          <Trackpoint>
            <Time>2019-10-05T09:28:53.000Z</Time>
            <Position>
              <LatitudeDegrees>42.33849688433110713958740234375</LatitudeDegrees>
              <LongitudeDegrees>-5.572502799332141876220703125</LongitudeDegrees>
            </Position>
            <AltitudeMeters>659.5999755859375</AltitudeMeters>
            <DistanceMeters>NAN</DistanceMeters>
          </Trackpoint>
          <Trackpoint>
            <Time>2019-10-05T09:28:55.000Z</Time>
            <Position>
              <LatitudeDegrees>42.338389344513416290283203125</LatitudeDegrees>
              <LongitudeDegrees>-5.5725334770977497100830078125</LongitudeDegrees>
            </Position>
            <AltitudeMeters>659.79998779296875</AltitudeMeters>
            <DistanceMeters>NAN</DistanceMeters>
          </Trackpoint>
          <Trackpoint>
            <Time>2019-10-05T09:29:05.000Z</Time>
            <Position>
              <LatitudeDegrees>42.337837480008602142333984375</LatitudeDegrees>
              <LongitudeDegrees>-5.57268778793513774871826171875</LongitudeDegrees>
            </Position>
            <AltitudeMeters>660</AltitudeMeters>
            <DistanceMeters>NAN</DistanceMeters>
          </Trackpoint>
          <Trackpoint>
            <Time>2019-10-05T09:29:08.000Z</Time>
            <Position>
              <LatitudeDegrees>42.33767260797321796417236328125</LatitudeDegrees>
              <LongitudeDegrees>-5.572734139859676361083984375</LongitudeDegrees>
            </Position>
            <AltitudeMeters>660.20001220703125</AltitudeMeters>
            <DistanceMeters>NAN</DistanceMeters>
          </Trackpoint>
          <Trackpoint>
            <Time>2019-10-05T09:29:18.000Z</Time>
            <Position>
              <LatitudeDegrees>42.3371228389441967010498046875</LatitudeDegrees>
              <LongitudeDegrees>-5.5728913843631744384765625</LongitudeDegrees>
            </Position>
            <AltitudeMeters>660</AltitudeMeters>
            <DistanceMeters>NAN</DistanceMeters>
          </Trackpoint>
          <Trackpoint>
            <Time>2019-10-05T09:29:20.000Z</Time>
            <Position>
              <LatitudeDegrees>42.33701362274587154388427734375</LatitudeDegrees>
              <LongitudeDegrees>-5.572923235595226287841796875</LongitudeDegrees>
            </Position>
            <AltitudeMeters>660.4000244140625</AltitudeMeters>
            <DistanceMeters>NAN</DistanceMeters>
          </Trackpoint>
          <Trackpoint>
            <Time>2019-10-05T09:29:30.000Z</Time>
            <Position>
              <LatitudeDegrees>42.33646192587912082672119140625</LatitudeDegrees>
              <LongitudeDegrees>-5.573080480098724365234375</LongitudeDegrees>
            </Position>
            <AltitudeMeters>660.5999755859375</AltitudeMeters>
            <DistanceMeters>NAN</DistanceMeters>
          </Trackpoint>
          <Trackpoint>
            <Time>2019-10-05T09:29:31.000Z</Time>
            <Position>
              <LatitudeDegrees>42.33640559948980808258056640625</LatitudeDegrees>
              <LongitudeDegrees>-5.57309464551508426666259765625</LongitudeDegrees>
            </Position>
            <AltitudeMeters>660.20001220703125</AltitudeMeters>
            <DistanceMeters>NAN</DistanceMeters>
          </Trackpoint>
          <Trackpoint>
            <Time>2019-10-05T09:29:41.000Z</Time>
            <Position>
              <LatitudeDegrees>42.3358518071472644805908203125</LatitudeDegrees>
              <LongitudeDegrees>-5.573253147304058074951171875</LongitudeDegrees>
            </Position>
            <AltitudeMeters>660</AltitudeMeters>
            <DistanceMeters>NAN</DistanceMeters>
          </Trackpoint>
          <Trackpoint>
            <Time>2019-10-05T09:29:51.000Z</Time>
            <Position>
              <LatitudeDegrees>42.33530404977500438690185546875</LatitudeDegrees>
              <LongitudeDegrees>-5.5734139122068881988525390625</LongitudeDegrees>
            </Position>
            <AltitudeMeters>660.20001220703125</AltitudeMeters>
            <DistanceMeters>NAN</DistanceMeters>
          </Trackpoint>
          <Trackpoint>
            <Time>2019-10-05T09:29:52.000Z</Time>
            <Position>
              <LatitudeDegrees>42.3352479748427867889404296875</LatitudeDegrees>
              <LongitudeDegrees>-5.5734278261661529541015625</LongitudeDegrees>
            </Position>
            <AltitudeMeters>659.79998779296875</AltitudeMeters>
            <DistanceMeters>NAN</DistanceMeters>
          </Trackpoint>
          <Trackpoint>
            <Time>2019-10-05T09:29:59.000Z</Time>
            <Position>
              <LatitudeDegrees>42.3348660953342914581298828125</LatitudeDegrees>
              <LongitudeDegrees>-5.57353972457349300384521484375</LongitudeDegrees>
            </Position>
            <AltitudeMeters>659.5999755859375</AltitudeMeters>
            <DistanceMeters>NAN</DistanceMeters>
          </Trackpoint>
          <Trackpoint>
            <Time>2019-10-05T09:30:07.000Z</Time>
            <Position>
              <LatitudeDegrees>42.33443208038806915283203125</LatitudeDegrees>
              <LongitudeDegrees>-5.57366645894944667816162109375</LongitudeDegrees>
            </Position>
            <AltitudeMeters>660</AltitudeMeters>
            <DistanceMeters>NAN</DistanceMeters>
          </Trackpoint>
          <Trackpoint>
            <Time>2019-10-05T09:30:16.000Z</Time>
            <Position>
              <LatitudeDegrees>42.333937548100948333740234375</LatitudeDegrees>
              <LongitudeDegrees>-5.57380408979952335357666015625</LongitudeDegrees>
            </Position>
            <AltitudeMeters>660</AltitudeMeters>
            <DistanceMeters>NAN</DistanceMeters>
          </Trackpoint>
          <Trackpoint>
            <Time>2019-10-05T09:30:26.000Z</Time>
            <Position>
              <LatitudeDegrees>42.3333717696368694305419921875</LatitudeDegrees>
              <LongitudeDegrees>-5.57396586053073406219482421875</LongitudeDegrees>
            </Position>
            <AltitudeMeters>659.79998779296875</AltitudeMeters>
            <DistanceMeters>NAN</DistanceMeters>
          </Trackpoint>
          <Trackpoint>
            <Time>2019-10-05T09:30:27.000Z</Time>
            <Position>
              <LatitudeDegrees>42.3333156108856201171875</LatitudeDegrees>
              <LongitudeDegrees>-5.57398564182221889495849609375</LongitudeDegrees>
            </Position>
            <AltitudeMeters>659.79998779296875</AltitudeMeters>
            <DistanceMeters>NAN</DistanceMeters>
          </Trackpoint>
          <Trackpoint>
            <Time>2019-10-05T09:30:32.000Z</Time>
            <Position>
              <LatitudeDegrees>42.333029620349407196044921875</LatitudeDegrees>
              <LongitudeDegrees>-5.5740606598556041717529296875</LongitudeDegrees>
            </Position>
            <AltitudeMeters>659.4000244140625</AltitudeMeters>
            <DistanceMeters>NAN</DistanceMeters>
          </Trackpoint>
          <Trackpoint>
            <Time>2019-10-05T09:30:33.000Z</Time>
            <Position>
              <LatitudeDegrees>42.33297295868396759033203125</LatitudeDegrees>
              <LongitudeDegrees>-5.5740754120051860809326171875</LongitudeDegrees>
            </Position>
            <AltitudeMeters>659.20001220703125</AltitudeMeters>
            <DistanceMeters>NAN</DistanceMeters>
          </Trackpoint>
          <Trackpoint>
            <Time>2019-10-05T09:30:35.000Z</Time>
            <Position>
              <LatitudeDegrees>42.33285988681018352508544921875</LatitudeDegrees>
              <LongitudeDegrees>-5.5741082690656185150146484375</LongitudeDegrees>
            </Position>
            <AltitudeMeters>659.4000244140625</AltitudeMeters>
            <DistanceMeters>NAN</DistanceMeters>
          </Trackpoint>
          <Trackpoint>
            <Time>2019-10-05T09:30:45.000Z</Time>
            <Position>
              <LatitudeDegrees>42.33230106532573699951171875</LatitudeDegrees>
              <LongitudeDegrees>-5.57427071034908294677734375</LongitudeDegrees>
            </Position>
            <AltitudeMeters>658.5999755859375</AltitudeMeters>
            <DistanceMeters>NAN</DistanceMeters>
          </Trackpoint>
          <Trackpoint>
            <Time>2019-10-05T09:30:46.000Z</Time>
            <Position>
              <LatitudeDegrees>42.33224733732640743255615234375</LatitudeDegrees>
              <LongitudeDegrees>-5.57428252883255481719970703125</LongitudeDegrees>
            </Position>
            <AltitudeMeters>658.79998779296875</AltitudeMeters>
            <DistanceMeters>NAN</DistanceMeters>
          </Trackpoint>
          <Trackpoint>
            <Time>2019-10-05T09:30:50.000Z</Time>
            <Position>
              <LatitudeDegrees>42.3320236243307590484619140625</LatitudeDegrees>
              <LongitudeDegrees>-5.57434639893472194671630859375</LongitudeDegrees>
            </Position>
            <AltitudeMeters>658.20001220703125</AltitudeMeters>
            <DistanceMeters>NAN</DistanceMeters>
          </Trackpoint>
          <Trackpoint>
            <Time>2019-10-05T09:30:52.000Z</Time>
            <Position>
              <LatitudeDegrees>42.3319116421043872833251953125</LatitudeDegrees>
              <LongitudeDegrees>-5.574372299015522003173828125</LongitudeDegrees>
            </Position>
            <AltitudeMeters>657.79998779296875</AltitudeMeters>
            <DistanceMeters>NAN</DistanceMeters>
          </Trackpoint>
          <Trackpoint>
            <Time>2019-10-05T09:30:58.000Z</Time>
            <Position>
              <LatitudeDegrees>42.33157695271074771881103515625</LatitudeDegrees>
              <LongitudeDegrees>-5.5744707025587558746337890625</LongitudeDegrees>
            </Position>
            <AltitudeMeters>658.20001220703125</AltitudeMeters>
            <DistanceMeters>NAN</DistanceMeters>
          </Trackpoint>
          <Trackpoint>
            <Time>2019-10-05T09:30:59.000Z</Time>
            <Position>
              <LatitudeDegrees>42.3315207101404666900634765625</LatitudeDegrees>
              <LongitudeDegrees>-5.574486292898654937744140625</LongitudeDegrees>
            </Position>
            <AltitudeMeters>658.79998779296875</AltitudeMeters>
            <DistanceMeters>NAN</DistanceMeters>
          </Trackpoint>
          <Trackpoint>
            <Time>2019-10-05T09:31:09.000Z</Time>
            <Position>
              <LatitudeDegrees>42.33096892945468425750732421875</LatitudeDegrees>
              <LongitudeDegrees>-5.57464445941150188446044921875</LongitudeDegrees>
            </Position>
            <AltitudeMeters>658.4000244140625</AltitudeMeters>
            <DistanceMeters>NAN</DistanceMeters>
          </Trackpoint>
          <Trackpoint>
            <Time>2019-10-05T09:31:19.000Z</Time>
            <Position>
              <LatitudeDegrees>42.33041404746472835540771484375</LatitudeDegrees>
              <LongitudeDegrees>-5.57479642331600189208984375</LongitudeDegrees>
            </Position>
            <AltitudeMeters>659.4000244140625</AltitudeMeters>
            <DistanceMeters>NAN</DistanceMeters>
          </Trackpoint>
          <Trackpoint>
            <Time>2019-10-05T09:31:20.000Z</Time>
            <Position>
              <LatitudeDegrees>42.33035788871347904205322265625</LatitudeDegrees>
              <LongitudeDegrees>-5.57481075637042522430419921875</LongitudeDegrees>
            </Position>
            <AltitudeMeters>659.20001220703125</AltitudeMeters>
            <DistanceMeters>NAN</DistanceMeters>
          </Trackpoint>
          <Trackpoint>
            <Time>2019-10-05T09:31:29.000Z</Time>
            <Position>
              <LatitudeDegrees>42.32985849492251873016357421875</LatitudeDegrees>
              <LongitudeDegrees>-5.57495526038110256195068359375</LongitudeDegrees>
            </Position>
            <AltitudeMeters>659</AltitudeMeters>
            <DistanceMeters>NAN</DistanceMeters>
          </Trackpoint>
          <Trackpoint>
            <Time>2019-10-05T09:31:31.000Z</Time>
            <Position>
              <LatitudeDegrees>42.32974768616259098052978515625</LatitudeDegrees>
              <LongitudeDegrees>-5.57498392648994922637939453125</LongitudeDegrees>
            </Position>
            <AltitudeMeters>659</AltitudeMeters>
            <DistanceMeters>NAN</DistanceMeters>
          </Trackpoint>
          <Trackpoint>
            <Time>2019-10-05T09:31:40.000Z</Time>
            <Position>
              <LatitudeDegrees>42.32924334704875946044921875</LatitudeDegrees>
              <LongitudeDegrees>-5.57512792758643627166748046875</LongitudeDegrees>
            </Position>
            <AltitudeMeters>658.5999755859375</AltitudeMeters>
            <DistanceMeters>NAN</DistanceMeters>
          </Trackpoint>
          <Trackpoint>
            <Time>2019-10-05T09:31:42.000Z</Time>
            <Position>
              <LatitudeDegrees>42.329131700098514556884765625</LatitudeDegrees>
              <LongitudeDegrees>-5.57515910826623439788818359375</LongitudeDegrees>
            </Position>
            <AltitudeMeters>658.79998779296875</AltitudeMeters>
            <DistanceMeters>NAN</DistanceMeters>
          </Trackpoint>
          <Trackpoint>
            <Time>2019-10-05T09:31:52.000Z</Time>
            <Position>
              <LatitudeDegrees>42.32857908122241497039794921875</LatitudeDegrees>
              <LongitudeDegrees>-5.575313754379749298095703125</LongitudeDegrees>
            </Position>
            <AltitudeMeters>658.4000244140625</AltitudeMeters>
            <DistanceMeters>NAN</DistanceMeters>
          </Trackpoint>
          <Trackpoint>
            <Time>2019-10-05T09:31:53.000Z</Time>
            <Position>
              <LatitudeDegrees>42.3285236768424510955810546875</LatitudeDegrees>
              <LongitudeDegrees>-5.5753296799957752227783203125</LongitudeDegrees>
            </Position>
            <AltitudeMeters>658.20001220703125</AltitudeMeters>
            <DistanceMeters>NAN</DistanceMeters>
          </Trackpoint>
          <Trackpoint>
            <Time>2019-10-05T09:31:55.000Z</Time>
            <Position>
              <LatitudeDegrees>42.32841362245380878448486328125</LatitudeDegrees>
              <LongitudeDegrees>-5.575357340276241302490234375</LongitudeDegrees>
            </Position>
            <AltitudeMeters>658.4000244140625</AltitudeMeters>
            <DistanceMeters>NAN</DistanceMeters>
          </Trackpoint>
          <Trackpoint>
            <Time>2019-10-05T09:32:05.000Z</Time>
            <Position>
              <LatitudeDegrees>42.32785840518772602081298828125</LatitudeDegrees>
              <LongitudeDegrees>-5.575510896742343902587890625</LongitudeDegrees>
            </Position>
            <AltitudeMeters>658.4000244140625</AltitudeMeters>
            <DistanceMeters>NAN</DistanceMeters>
          </Trackpoint>
          <Trackpoint>
            <Time>2019-10-05T09:32:08.000Z</Time>
            <Position>
              <LatitudeDegrees>42.32769495807588100433349609375</LatitudeDegrees>
              <LongitudeDegrees>-5.5755576677620410919189453125</LongitudeDegrees>
            </Position>
            <AltitudeMeters>658.4000244140625</AltitudeMeters>
            <DistanceMeters>NAN</DistanceMeters>
          </Trackpoint>
          <Trackpoint>
            <Time>2019-10-05T09:32:18.000Z</Time>
            <Position>
              <LatitudeDegrees>42.32714292593300342559814453125</LatitudeDegrees>
              <LongitudeDegrees>-5.57571516372263431549072265625</LongitudeDegrees>
            </Position>
            <AltitudeMeters>658.20001220703125</AltitudeMeters>
            <DistanceMeters>NAN</DistanceMeters>
          </Trackpoint>
          <Trackpoint>
            <Time>2019-10-05T09:32:26.000Z</Time>
            <Position>
              <LatitudeDegrees>42.3266974277794361114501953125</LatitudeDegrees>
              <LongitudeDegrees>-5.57583510875701904296875</LongitudeDegrees>
            </Position>
            <AltitudeMeters>658.4000244140625</AltitudeMeters>
            <DistanceMeters>NAN</DistanceMeters>
          </Trackpoint>
          <Trackpoint>
            <Time>2019-10-05T09:32:34.000Z</Time>
            <Position>
              <LatitudeDegrees>42.3262582160532474517822265625</LatitudeDegrees>
              <LongitudeDegrees>-5.57596293278038501739501953125</LongitudeDegrees>
            </Position>
            <AltitudeMeters>658.20001220703125</AltitudeMeters>
            <DistanceMeters>NAN</DistanceMeters>
          </Trackpoint>
          <Trackpoint>
            <Time>2019-10-05T09:32:43.000Z</Time>
            <Position>
              <LatitudeDegrees>42.3257583193480968475341796875</LatitudeDegrees>
              <LongitudeDegrees>-5.57610006071627140045166015625</LongitudeDegrees>
            </Position>
            <AltitudeMeters>658.5999755859375</AltitudeMeters>
            <DistanceMeters>NAN</DistanceMeters>
          </Trackpoint>
          <Trackpoint>
            <Time>2019-10-05T09:32:52.000Z</Time>
            <Position>
              <LatitudeDegrees>42.32525850646197795867919921875</LatitudeDegrees>
              <LongitudeDegrees>-5.5762406252324581146240234375</LongitudeDegrees>
            </Position>
            <AltitudeMeters>658.5999755859375</AltitudeMeters>
            <DistanceMeters>NAN</DistanceMeters>
          </Trackpoint>
          <Trackpoint>
            <Time>2019-10-05T09:33:02.000Z</Time>
            <Position>
              <LatitudeDegrees>42.324702702462673187255859375</LatitudeDegrees>
              <LongitudeDegrees>-5.57639761827886104583740234375</LongitudeDegrees>
            </Position>
            <AltitudeMeters>658.79998779296875</AltitudeMeters>
            <DistanceMeters>NAN</DistanceMeters>
          </Trackpoint>
          <Trackpoint>
            <Time>2019-10-05T09:33:04.000Z</Time>
            <Position>
              <LatitudeDegrees>42.324591390788555145263671875</LatitudeDegrees>
              <LongitudeDegrees>-5.57642812840640544891357421875</LongitudeDegrees>
            </Position>
            <AltitudeMeters>658.5999755859375</AltitudeMeters>
            <DistanceMeters>NAN</DistanceMeters>
          </Trackpoint>
          <Trackpoint>
            <Time>2019-10-05T09:33:14.000Z</Time>
            <Position>
              <LatitudeDegrees>42.32402871362864971160888671875</LatitudeDegrees>
              <LongitudeDegrees>-5.57658411562442779541015625</LongitudeDegrees>
            </Position>
            <AltitudeMeters>658.5999755859375</AltitudeMeters>
            <DistanceMeters>NAN</DistanceMeters>
          </Trackpoint>
          <Trackpoint>
            <Time>2019-10-05T09:33:25.000Z</Time>
            <Position>
              <LatitudeDegrees>42.3234170861542224884033203125</LatitudeDegrees>
              <LongitudeDegrees>-5.57675711810588836669921875</LongitudeDegrees>
            </Position>
            <AltitudeMeters>658.4000244140625</AltitudeMeters>
            <DistanceMeters>NAN</DistanceMeters>
          </Trackpoint>
          <Trackpoint>
            <Time>2019-10-05T09:33:27.000Z</Time>
            <Position>
              <LatitudeDegrees>42.32335413806140422821044921875</LatitudeDegrees>
              <LongitudeDegrees>-5.57677396573126316070556640625</LongitudeDegrees>
            </Position>
            <AltitudeMeters>658.4000244140625</AltitudeMeters>
            <DistanceMeters>NAN</DistanceMeters>
          </Trackpoint>
          <Trackpoint>
            <Time>2019-10-05T09:33:37.000Z</Time>
            <Position>
              <LatitudeDegrees>42.32279757969081401824951171875</LatitudeDegrees>
              <LongitudeDegrees>-5.576937831938266754150390625</LongitudeDegrees>
            </Position>
            <AltitudeMeters>658.5999755859375</AltitudeMeters>
            <DistanceMeters>NAN</DistanceMeters>
          </Trackpoint>
          <Trackpoint>
            <Time>2019-10-05T09:33:39.000Z</Time>
            <Position>
              <LatitudeDegrees>42.322682999074459075927734375</LatitudeDegrees>
              <LongitudeDegrees>-5.57696901261806488037109375</LongitudeDegrees>
            </Position>
            <AltitudeMeters>658.4000244140625</AltitudeMeters>
            <DistanceMeters>NAN</DistanceMeters>
          </Trackpoint>
          <Trackpoint>
            <Time>2019-10-05T09:33:45.000Z</Time>
            <Position>
              <LatitudeDegrees>42.3223458789288997650146484375</LatitudeDegrees>
              <LongitudeDegrees>-5.57705794461071491241455078125</LongitudeDegrees>
            </Position>
            <AltitudeMeters>658</AltitudeMeters>
            <DistanceMeters>NAN</DistanceMeters>
          </Trackpoint>
          <Trackpoint>
            <Time>2019-10-05T09:33:54.000Z</Time>
            <Position>
              <LatitudeDegrees>42.32182879932224750518798828125</LatitudeDegrees>
              <LongitudeDegrees>-5.5772001855075359344482421875</LongitudeDegrees>
            </Position>
            <AltitudeMeters>658.20001220703125</AltitudeMeters>
            <DistanceMeters>NAN</DistanceMeters>
          </Trackpoint>
          <Trackpoint>
            <Time>2019-10-05T09:34:04.000Z</Time>
            <Position>
              <LatitudeDegrees>42.32126771472394466400146484375</LatitudeDegrees>
              <LongitudeDegrees>-5.57735851965844631195068359375</LongitudeDegrees>
            </Position>
            <AltitudeMeters>657.5999755859375</AltitudeMeters>
            <DistanceMeters>NAN</DistanceMeters>
          </Trackpoint>
          <Trackpoint>
            <Time>2019-10-05T09:34:05.000Z</Time>
            <Position>
              <LatitudeDegrees>42.32121205888688564300537109375</LatitudeDegrees>
              <LongitudeDegrees>-5.57737628929316997528076171875</LongitudeDegrees>
            </Position>
            <AltitudeMeters>657.5999755859375</AltitudeMeters>
            <DistanceMeters>NAN</DistanceMeters>
          </Trackpoint>
          <Trackpoint>
            <Time>2019-10-05T09:34:15.000Z</Time>
            <Position>
              <LatitudeDegrees>42.32065633870661258697509765625</LatitudeDegrees>
              <LongitudeDegrees>-5.57752984575927257537841796875</LongitudeDegrees>
            </Position>
            <AltitudeMeters>658</AltitudeMeters>
            <DistanceMeters>NAN</DistanceMeters>
          </Trackpoint>
          <Trackpoint>
            <Time>2019-10-05T09:34:18.000Z</Time>
            <Position>
              <LatitudeDegrees>42.3204847611486911773681640625</LatitudeDegrees>
              <LongitudeDegrees>-5.5775736831128597259521484375</LongitudeDegrees>
            </Position>
            <AltitudeMeters>658</AltitudeMeters>
            <DistanceMeters>NAN</DistanceMeters>
          </Trackpoint>
          <Trackpoint>
            <Time>2019-10-05T09:34:28.000Z</Time>
            <Position>
              <LatitudeDegrees>42.31991722248494625091552734375</LatitudeDegrees>
              <LongitudeDegrees>-5.57773687876760959625244140625</LongitudeDegrees>
            </Position>
            <AltitudeMeters>657.79998779296875</AltitudeMeters>
            <DistanceMeters>NAN</DistanceMeters>
          </Trackpoint>
          <Trackpoint>
            <Time>2019-10-05T09:34:33.000Z</Time>
            <Position>
              <LatitudeDegrees>42.31963274069130420684814453125</LatitudeDegrees>
              <LongitudeDegrees>-5.5778170935809612274169921875</LongitudeDegrees>
            </Position>
            <AltitudeMeters>657</AltitudeMeters>
            <DistanceMeters>NAN</DistanceMeters>
          </Trackpoint>
          <Trackpoint>
            <Time>2019-10-05T09:34:37.000Z</Time>
            <Position>
              <LatitudeDegrees>42.319402992725372314453125</LatitudeDegrees>
              <LongitudeDegrees>-5.57788473553955554962158203125</LongitudeDegrees>
            </Position>
            <AltitudeMeters>657</AltitudeMeters>
            <DistanceMeters>NAN</DistanceMeters>
          </Trackpoint>
          <Trackpoint>
            <Time>2019-10-05T09:34:46.000Z</Time>
            <Position>
              <LatitudeDegrees>42.31888524256646633148193359375</LatitudeDegrees>
              <LongitudeDegrees>-5.57801716960966587066650390625</LongitudeDegrees>
            </Position>
            <AltitudeMeters>657.20001220703125</AltitudeMeters>
            <DistanceMeters>NAN</DistanceMeters>
          </Trackpoint>
          <Trackpoint>
            <Time>2019-10-05T09:34:55.000Z</Time>
            <Position>
              <LatitudeDegrees>42.3184037022292613983154296875</LatitudeDegrees>
              <LongitudeDegrees>-5.5781577341258525848388671875</LongitudeDegrees>
            </Position>
            <AltitudeMeters>656.4000244140625</AltitudeMeters>
            <DistanceMeters>NAN</DistanceMeters>
          </Trackpoint>
          <Trackpoint>
            <Time>2019-10-05T09:34:58.000Z</Time>
            <Position>
              <LatitudeDegrees>42.3182724416255950927734375</LatitudeDegrees>
              <LongitudeDegrees>-5.57819386012852191925048828125</LongitudeDegrees>
            </Position>
            <AltitudeMeters>656.79998779296875</AltitudeMeters>
            <DistanceMeters>NAN</DistanceMeters>
          </Trackpoint>
          <Trackpoint>
            <Time>2019-10-05T09:34:59.000Z</Time>
            <Position>
              <LatitudeDegrees>42.31824771501123905181884765625</LatitudeDegrees>
              <LongitudeDegrees>-5.57820475660264492034912109375</LongitudeDegrees>
            </Position>
            <AltitudeMeters>656.79998779296875</AltitudeMeters>
            <DistanceMeters>NAN</DistanceMeters>
          </Trackpoint>
          <Trackpoint>
            <Time>2019-10-05T09:35:01.000Z</Time>
            <Position>
              <LatitudeDegrees>42.31822927482426166534423828125</LatitudeDegrees>
              <LongitudeDegrees>-5.578213892877101898193359375</LongitudeDegrees>
            </Position>
            <AltitudeMeters>658.20001220703125</AltitudeMeters>
            <DistanceMeters>NAN</DistanceMeters>
          </Trackpoint>
          <Trackpoint>
            <Time>2019-10-05T09:35:02.000Z</Time>
            <Position>
              <LatitudeDegrees>42.3182266764342784881591796875</LatitudeDegrees>
              <LongitudeDegrees>-5.57820945046842098236083984375</LongitudeDegrees>
            </Position>
            <AltitudeMeters>658</AltitudeMeters>
            <DistanceMeters>NAN</DistanceMeters>
          </Trackpoint>
          <Trackpoint>
            <Time>2019-10-05T09:35:07.000Z</Time>
            <Position>
              <LatitudeDegrees>42.31823715381324291229248046875</LatitudeDegrees>
              <LongitudeDegrees>-5.57821079157292842864990234375</LongitudeDegrees>
            </Position>
            <AltitudeMeters>658.20001220703125</AltitudeMeters>
            <DistanceMeters>NAN</DistanceMeters>
          </Trackpoint>
          <Trackpoint>
            <Time>2019-10-05T09:35:17.000Z</Time>
            <Position>
              <LatitudeDegrees>42.31823715381324291229248046875</LatitudeDegrees>
              <LongitudeDegrees>-5.57821079157292842864990234375</LongitudeDegrees>
            </Position>
            <AltitudeMeters>658.4000244140625</AltitudeMeters>
            <DistanceMeters>NAN</DistanceMeters>
          </Trackpoint>
          <Trackpoint>
            <Time>2019-10-05T09:35:24.000Z</Time>
            <Position>
              <LatitudeDegrees>42.31823715381324291229248046875</LatitudeDegrees>
              <LongitudeDegrees>-5.57821079157292842864990234375</LongitudeDegrees>
            </Position>
            <AltitudeMeters>658.20001220703125</AltitudeMeters>
            <DistanceMeters>NAN</DistanceMeters>
          </Trackpoint>
          <Trackpoint>
            <Time>2019-10-05T09:35:25.000Z</Time>
            <Position>
              <LatitudeDegrees>42.31823715381324291229248046875</LatitudeDegrees>
              <LongitudeDegrees>-5.57821079157292842864990234375</LongitudeDegrees>
            </Position>
            <AltitudeMeters>658.20001220703125</AltitudeMeters>
            <DistanceMeters>NAN</DistanceMeters>
          </Trackpoint>
          <Trackpoint>
            <Time>2019-10-05T09:35:26.000Z</Time>
            <Position>
              <LatitudeDegrees>42.31823715381324291229248046875</LatitudeDegrees>
              <LongitudeDegrees>-5.57821079157292842864990234375</LongitudeDegrees>
            </Position>
            <AltitudeMeters>658.20001220703125</AltitudeMeters>
            <DistanceMeters>NAN</DistanceMeters>
          </Trackpoint>
          <Trackpoint>
            <Time>2019-10-05T09:35:32.000Z</Time>
            <Position>
              <LatitudeDegrees>42.31823715381324291229248046875</LatitudeDegrees>
              <LongitudeDegrees>-5.57821079157292842864990234375</LongitudeDegrees>
            </Position>
            <AltitudeMeters>658.20001220703125</AltitudeMeters>
            <DistanceMeters>NAN</DistanceMeters>
          </Trackpoint>
          <Trackpoint>
            <Time>2019-10-05T09:35:37.000Z</Time>
            <Position>
              <LatitudeDegrees>42.31823715381324291229248046875</LatitudeDegrees>
              <LongitudeDegrees>-5.57821079157292842864990234375</LongitudeDegrees>
            </Position>
            <AltitudeMeters>658.5999755859375</AltitudeMeters>
            <DistanceMeters>NAN</DistanceMeters>
          </Trackpoint>
          <Trackpoint>
            <Time>2019-10-05T09:35:43.000Z</Time>
            <Position>
              <LatitudeDegrees>42.31823430396616458892822265625</LatitudeDegrees>
              <LongitudeDegrees>-5.578210540115833282470703125</LongitudeDegrees>
            </Position>
            <AltitudeMeters>658.20001220703125</AltitudeMeters>
            <DistanceMeters>NAN</DistanceMeters>
          </Trackpoint>
          <Trackpoint>
            <Time>2019-10-05T09:35:55.000Z</Time>
            <Position>
              <LatitudeDegrees>42.318235896527767181396484375</LatitudeDegrees>
              <LongitudeDegrees>-5.57820693589746952056884765625</LongitudeDegrees>
            </Position>
            <AltitudeMeters>658.20001220703125</AltitudeMeters>
            <DistanceMeters>NAN</DistanceMeters>
          </Trackpoint>
          <Trackpoint>
            <Time>2019-10-05T09:36:01.000Z</Time>
            <Position>
              <LatitudeDegrees>42.3182327114045619964599609375</LatitudeDegrees>
              <LongitudeDegrees>-5.5782137252390384674072265625</LongitudeDegrees>
            </Position>
            <AltitudeMeters>658.4000244140625</AltitudeMeters>
            <DistanceMeters>NAN</DistanceMeters>
          </Trackpoint>
          <Trackpoint>
            <Time>2019-10-05T09:36:05.000Z</Time>
            <Position>
              <LatitudeDegrees>42.3182246647775173187255859375</LatitudeDegrees>
              <LongitudeDegrees>-5.5782090313732624053955078125</LongitudeDegrees>
            </Position>
            <AltitudeMeters>658.4000244140625</AltitudeMeters>
            <DistanceMeters>NAN</DistanceMeters>
          </Trackpoint>
          <Trackpoint>
            <Time>2019-10-05T09:36:06.000Z</Time>
            <Position>
              <LatitudeDegrees>42.31820949353277683258056640625</LatitudeDegrees>
              <LongitudeDegrees>-5.5782115459442138671875</LongitudeDegrees>
            </Position>
            <AltitudeMeters>658.20001220703125</AltitudeMeters>
            <DistanceMeters>NAN</DistanceMeters>
          </Trackpoint>
          <Trackpoint>
            <Time>2019-10-05T09:36:11.000Z</Time>
            <Position>
              <LatitudeDegrees>42.3180873692035675048828125</LatitudeDegrees>
              <LongitudeDegrees>-5.57823367416858673095703125</LongitudeDegrees>
            </Position>
            <AltitudeMeters>657.79998779296875</AltitudeMeters>
            <DistanceMeters>NAN</DistanceMeters>
          </Trackpoint>
          <Trackpoint>
            <Time>2019-10-05T09:36:16.000Z</Time>
            <Position>
              <LatitudeDegrees>42.3178754746913909912109375</LatitudeDegrees>
              <LongitudeDegrees>-5.57828689925372600555419921875</LongitudeDegrees>
            </Position>
            <AltitudeMeters>657.20001220703125</AltitudeMeters>
            <DistanceMeters>NAN</DistanceMeters>
          </Trackpoint>
          <Trackpoint>
            <Time>2019-10-05T09:36:20.000Z</Time>
            <Position>
              <LatitudeDegrees>42.31770456768572330474853515625</LatitudeDegrees>
              <LongitudeDegrees>-5.5783389508724212646484375</LongitudeDegrees>
            </Position>
            <AltitudeMeters>656.5999755859375</AltitudeMeters>
            <DistanceMeters>NAN</DistanceMeters>
          </Trackpoint>
          <Trackpoint>
            <Time>2019-10-05T09:36:23.000Z</Time>
            <Position>
              <LatitudeDegrees>42.31756098568439483642578125</LatitudeDegrees>
              <LongitudeDegrees>-5.57837390340864658355712890625</LongitudeDegrees>
            </Position>
            <AltitudeMeters>656.79998779296875</AltitudeMeters>
            <DistanceMeters>NAN</DistanceMeters>
          </Trackpoint>
          <Trackpoint>
            <Time>2019-10-05T09:36:29.000Z</Time>
            <Position>
              <LatitudeDegrees>42.3172667808830738067626953125</LatitudeDegrees>
              <LongitudeDegrees>-5.5784621648490428924560546875</LongitudeDegrees>
            </Position>
            <AltitudeMeters>656</AltitudeMeters>
            <DistanceMeters>NAN</DistanceMeters>
          </Trackpoint>
          <Trackpoint>
            <Time>2019-10-05T09:36:30.000Z</Time>
            <Position>
              <LatitudeDegrees>42.31721707619726657867431640625</LatitudeDegrees>
              <LongitudeDegrees>-5.5784745700657367706298828125</LongitudeDegrees>
            </Position>
            <AltitudeMeters>656.20001220703125</AltitudeMeters>
            <DistanceMeters>NAN</DistanceMeters>
          </Trackpoint>
          <Trackpoint>
            <Time>2019-10-05T09:36:33.000Z</Time>
            <Position>
              <LatitudeDegrees>42.317065112292766571044921875</LatitudeDegrees>
              <LongitudeDegrees>-5.57851740159094333648681640625</LongitudeDegrees>
            </Position>
            <AltitudeMeters>656.5999755859375</AltitudeMeters>
            <DistanceMeters>NAN</DistanceMeters>
          </Trackpoint>
          <Trackpoint>
            <Time>2019-10-05T09:36:39.000Z</Time>
            <Position>
              <LatitudeDegrees>42.31676177121698856353759765625</LatitudeDegrees>
              <LongitudeDegrees>-5.5786056630313396453857421875</LongitudeDegrees>
            </Position>
            <AltitudeMeters>656.4000244140625</AltitudeMeters>
            <DistanceMeters>NAN</DistanceMeters>
          </Trackpoint>
          <Trackpoint>
            <Time>2019-10-05T09:36:43.000Z</Time>
            <Position>
              <LatitudeDegrees>42.31655926443636417388916015625</LatitudeDegrees>
              <LongitudeDegrees>-5.57866760529577732086181640625</LongitudeDegrees>
            </Position>
            <AltitudeMeters>657</AltitudeMeters>
            <DistanceMeters>NAN</DistanceMeters>
          </Trackpoint>
          <Trackpoint>
            <Time>2019-10-05T09:36:53.000Z</Time>
            <Position>
              <LatitudeDegrees>42.31604687869548797607421875</LatitudeDegrees>
              <LongitudeDegrees>-5.57882267050445079803466796875</LongitudeDegrees>
            </Position>
            <AltitudeMeters>656.4000244140625</AltitudeMeters>
            <DistanceMeters>NAN</DistanceMeters>
          </Trackpoint>
          <Trackpoint>
            <Time>2019-10-05T09:37:00.000Z</Time>
            <Position>
              <LatitudeDegrees>42.31568654067814350128173828125</LatitudeDegrees>
              <LongitudeDegrees>-5.5789486505091190338134765625</LongitudeDegrees>
            </Position>
            <AltitudeMeters>656</AltitudeMeters>
            <DistanceMeters>NAN</DistanceMeters>
          </Trackpoint>
          <Trackpoint>
            <Time>2019-10-05T09:37:01.000Z</Time>
            <Position>
              <LatitudeDegrees>42.31563691981136798858642578125</LatitudeDegrees>
              <LongitudeDegrees>-5.57897874154150485992431640625</LongitudeDegrees>
            </Position>
            <AltitudeMeters>656.4000244140625</AltitudeMeters>
            <DistanceMeters>NAN</DistanceMeters>
          </Trackpoint>
          <Trackpoint>
            <Time>2019-10-05T09:37:04.000Z</Time>
            <Position>
              <LatitudeDegrees>42.3154800944030284881591796875</LatitudeDegrees>
              <LongitudeDegrees>-5.57904412038624286651611328125</LongitudeDegrees>
            </Position>
            <AltitudeMeters>656</AltitudeMeters>
            <DistanceMeters>NAN</DistanceMeters>
          </Trackpoint>
          <Trackpoint>
            <Time>2019-10-05T09:37:05.000Z</Time>
            <Position>
              <LatitudeDegrees>42.31542594730854034423828125</LatitudeDegrees>
              <LongitudeDegrees>-5.57905753143131732940673828125</LongitudeDegrees>
            </Position>
            <AltitudeMeters>656</AltitudeMeters>
            <DistanceMeters>NAN</DistanceMeters>
          </Trackpoint>
          <Trackpoint>
            <Time>2019-10-05T09:37:07.000Z</Time>
            <Position>
              <LatitudeDegrees>42.31531941331923007965087890625</LatitudeDegrees>
              <LongitudeDegrees>-5.57908301241695880889892578125</LongitudeDegrees>
            </Position>
            <AltitudeMeters>656.4000244140625</AltitudeMeters>
            <DistanceMeters>NAN</DistanceMeters>
          </Trackpoint>
          <Trackpoint>
            <Time>2019-10-05T09:37:17.000Z</Time>
            <Position>
              <LatitudeDegrees>42.314780540764331817626953125</LatitudeDegrees>
              <LongitudeDegrees>-5.57920639403164386749267578125</LongitudeDegrees>
            </Position>
            <AltitudeMeters>656.20001220703125</AltitudeMeters>
            <DistanceMeters>NAN</DistanceMeters>
          </Trackpoint>
          <Trackpoint>
            <Time>2019-10-05T09:37:18.000Z</Time>
            <Position>
              <LatitudeDegrees>42.3147263936698436737060546875</LatitudeDegrees>
              <LongitudeDegrees>-5.5792155303061008453369140625</LongitudeDegrees>
            </Position>
            <AltitudeMeters>656</AltitudeMeters>
            <DistanceMeters>NAN</DistanceMeters>
          </Trackpoint>
          <Trackpoint>
            <Time>2019-10-05T09:37:26.000Z</Time>
            <Position>
              <LatitudeDegrees>42.3142891936004161834716796875</LatitudeDegrees>
              <LongitudeDegrees>-5.5792835913598537445068359375</LongitudeDegrees>
            </Position>
            <AltitudeMeters>656.4000244140625</AltitudeMeters>
            <DistanceMeters>NAN</DistanceMeters>
          </Trackpoint>
          <Trackpoint>
            <Time>2019-10-05T09:37:28.000Z</Time>
            <Position>
              <LatitudeDegrees>42.3141782172024250030517578125</LatitudeDegrees>
              <LongitudeDegrees>-5.579301528632640838623046875</LongitudeDegrees>
            </Position>
            <AltitudeMeters>657</AltitudeMeters>
            <DistanceMeters>NAN</DistanceMeters>
          </Trackpoint>
          <Trackpoint>
            <Time>2019-10-05T09:37:34.000Z</Time>
            <Position>
              <LatitudeDegrees>42.3138486407697200775146484375</LatitudeDegrees>
              <LongitudeDegrees>-5.57936749421060085296630859375</LongitudeDegrees>
            </Position>
            <AltitudeMeters>656.4000244140625</AltitudeMeters>
            <DistanceMeters>NAN</DistanceMeters>
          </Trackpoint>
          <Trackpoint>
            <Time>2019-10-05T09:37:36.000Z</Time>
            <Position>
              <LatitudeDegrees>42.3137368261814117431640625</LatitudeDegrees>
              <LongitudeDegrees>-5.5793814919888973236083984375</LongitudeDegrees>
            </Position>
            <AltitudeMeters>656.20001220703125</AltitudeMeters>
            <DistanceMeters>NAN</DistanceMeters>
          </Trackpoint>
          <Trackpoint>
            <Time>2019-10-05T09:37:37.000Z</Time>
            <Position>
              <LatitudeDegrees>42.31368175707757472991943359375</LatitudeDegrees>
              <LongitudeDegrees>-5.57938911952078342437744140625</LongitudeDegrees>
            </Position>
            <AltitudeMeters>656</AltitudeMeters>
            <DistanceMeters>NAN</DistanceMeters>
          </Trackpoint>
          <Trackpoint>
            <Time>2019-10-05T09:37:46.000Z</Time>
            <Position>
              <LatitudeDegrees>42.31318789534270763397216796875</LatitudeDegrees>
              <LongitudeDegrees>-5.57945399545133113861083984375</LongitudeDegrees>
            </Position>
            <AltitudeMeters>655.79998779296875</AltitudeMeters>
            <DistanceMeters>NAN</DistanceMeters>
          </Trackpoint>
          <Trackpoint>
            <Time>2019-10-05T09:37:53.000Z</Time>
            <Position>
              <LatitudeDegrees>42.3127952031791210174560546875</LatitudeDegrees>
              <LongitudeDegrees>-5.57949406094849109649658203125</LongitudeDegrees>
            </Position>
            <AltitudeMeters>656</AltitudeMeters>
            <DistanceMeters>NAN</DistanceMeters>
          </Trackpoint>
          <Trackpoint>
            <Time>2019-10-05T09:38:02.000Z</Time>
            <Position>
              <LatitudeDegrees>42.31229807250201702117919921875</LatitudeDegrees>
              <LongitudeDegrees>-5.5795169435441493988037109375</LongitudeDegrees>
            </Position>
            <AltitudeMeters>656.4000244140625</AltitudeMeters>
            <DistanceMeters>NAN</DistanceMeters>
          </Trackpoint>
          <Trackpoint>
            <Time>2019-10-05T09:38:06.000Z</Time>
            <Position>
              <LatitudeDegrees>42.3120807297527790069580078125</LatitudeDegrees>
              <LongitudeDegrees>-5.57951442897319793701171875</LongitudeDegrees>
            </Position>
            <AltitudeMeters>657</AltitudeMeters>
            <DistanceMeters>NAN</DistanceMeters>
          </Trackpoint>
          <Trackpoint>
            <Time>2019-10-05T09:38:11.000Z</Time>
            <Position>
              <LatitudeDegrees>42.3118058033287525177001953125</LatitudeDegrees>
              <LongitudeDegrees>-5.5795082263648509979248046875</LongitudeDegrees>
            </Position>
            <AltitudeMeters>657.5999755859375</AltitudeMeters>
            <DistanceMeters>NAN</DistanceMeters>
          </Trackpoint>
          <Trackpoint>
            <Time>2019-10-05T09:38:20.000Z</Time>
            <Position>
              <LatitudeDegrees>42.3113156296312808990478515625</LatitudeDegrees>
              <LongitudeDegrees>-5.579481907188892364501953125</LongitudeDegrees>
            </Position>
            <AltitudeMeters>657.5999755859375</AltitudeMeters>
            <DistanceMeters>NAN</DistanceMeters>
          </Trackpoint>
          <Trackpoint>
            <Time>2019-10-05T09:38:29.000Z</Time>
            <Position>
              <LatitudeDegrees>42.31081799603998661041259765625</LatitudeDegrees>
              <LongitudeDegrees>-5.57944075204432010650634765625</LongitudeDegrees>
            </Position>
            <AltitudeMeters>655.4000244140625</AltitudeMeters>
            <DistanceMeters>NAN</DistanceMeters>
          </Trackpoint>
          <Trackpoint>
            <Time>2019-10-05T09:38:30.000Z</Time>
            <Position>
              <LatitudeDegrees>42.31076250784099102020263671875</LatitudeDegrees>
              <LongitudeDegrees>-5.5794348008930683135986328125</LongitudeDegrees>
            </Position>
            <AltitudeMeters>655</AltitudeMeters>
            <DistanceMeters>NAN</DistanceMeters>
          </Trackpoint>
          <Trackpoint>
            <Time>2019-10-05T09:38:37.000Z</Time>
            <Position>
              <LatitudeDegrees>42.31036855839192867279052734375</LatitudeDegrees>
              <LongitudeDegrees>-5.57940068654716014862060546875</LongitudeDegrees>
            </Position>
            <AltitudeMeters>654</AltitudeMeters>
            <DistanceMeters>NAN</DistanceMeters>
          </Trackpoint>
          <Trackpoint>
            <Time>2019-10-05T09:38:39.000Z</Time>
            <Position>
              <LatitudeDegrees>42.310258336365222930908203125</LatitudeDegrees>
              <LongitudeDegrees>-5.57938626967370510101318359375</LongitudeDegrees>
            </Position>
            <AltitudeMeters>654.20001220703125</AltitudeMeters>
            <DistanceMeters>NAN</DistanceMeters>
          </Trackpoint>
          <Trackpoint>
            <Time>2019-10-05T09:38:49.000Z</Time>
            <Position>
              <LatitudeDegrees>42.3097153566777706146240234375</LatitudeDegrees>
              <LongitudeDegrees>-5.5793167836964130401611328125</LongitudeDegrees>
            </Position>
            <AltitudeMeters>654.20001220703125</AltitudeMeters>
            <DistanceMeters>NAN</DistanceMeters>
          </Trackpoint>
          <Trackpoint>
            <Time>2019-10-05T09:38:51.000Z</Time>
            <Position>
              <LatitudeDegrees>42.3096053861081600189208984375</LatitudeDegrees>
              <LongitudeDegrees>-5.5793040432035923004150390625</LongitudeDegrees>
            </Position>
            <AltitudeMeters>654.4000244140625</AltitudeMeters>
            <DistanceMeters>NAN</DistanceMeters>
          </Trackpoint>
          <Trackpoint>
            <Time>2019-10-05T09:38:57.000Z</Time>
            <Position>
              <LatitudeDegrees>42.30927958153188228607177734375</LatitudeDegrees>
              <LongitudeDegrees>-5.57926691137254238128662109375</LongitudeDegrees>
            </Position>
            <AltitudeMeters>654.20001220703125</AltitudeMeters>
            <DistanceMeters>NAN</DistanceMeters>
          </Trackpoint>
          <Trackpoint>
            <Time>2019-10-05T09:39:03.000Z</Time>
            <Position>
              <LatitudeDegrees>42.30895671062171459197998046875</LatitudeDegrees>
              <LongitudeDegrees>-5.57922340929508209228515625</LongitudeDegrees>
            </Position>
            <AltitudeMeters>654.20001220703125</AltitudeMeters>
            <DistanceMeters>NAN</DistanceMeters>
          </Trackpoint>
          <Trackpoint>
            <Time>2019-10-05T09:39:13.000Z</Time>
            <Position>
              <LatitudeDegrees>42.308411635458469390869140625</LatitudeDegrees>
              <LongitudeDegrees>-5.5791471339762210845947265625</LongitudeDegrees>
            </Position>
            <AltitudeMeters>654</AltitudeMeters>
            <DistanceMeters>NAN</DistanceMeters>
          </Trackpoint>
          <Trackpoint>
            <Time>2019-10-05T09:39:23.000Z</Time>
            <Position>
              <LatitudeDegrees>42.30785549618303775787353515625</LatitudeDegrees>
              <LongitudeDegrees>-5.5790737085044384002685546875</LongitudeDegrees>
            </Position>
            <AltitudeMeters>654.20001220703125</AltitudeMeters>
            <DistanceMeters>NAN</DistanceMeters>
          </Trackpoint>
          <Trackpoint>
            <Time>2019-10-05T09:39:26.000Z</Time>
            <Position>
              <LatitudeDegrees>42.30768886394798755645751953125</LatitudeDegrees>
              <LongitudeDegrees>-5.57905484922230243682861328125</LongitudeDegrees>
            </Position>
            <AltitudeMeters>654</AltitudeMeters>
            <DistanceMeters>NAN</DistanceMeters>
          </Trackpoint>
          <Trackpoint>
            <Time>2019-10-05T09:39:36.000Z</Time>
            <Position>
              <LatitudeDegrees>42.3071313835680484771728515625</LatitudeDegrees>
              <LongitudeDegrees>-5.5789778195321559906005859375</LongitudeDegrees>
            </Position>
            <AltitudeMeters>654.20001220703125</AltitudeMeters>
            <DistanceMeters>NAN</DistanceMeters>
          </Trackpoint>
          <Trackpoint>
            <Time>2019-10-05T09:39:45.000Z</Time>
            <Position>
              <LatitudeDegrees>42.30663056485354900360107421875</LatitudeDegrees>
              <LongitudeDegrees>-5.578913949429988861083984375</LongitudeDegrees>
            </Position>
            <AltitudeMeters>654</AltitudeMeters>
            <DistanceMeters>NAN</DistanceMeters>
          </Trackpoint>
          <Trackpoint>
            <Time>2019-10-05T09:39:54.000Z</Time>
            <Position>
              <LatitudeDegrees>42.30613770894706249237060546875</LatitudeDegrees>
              <LongitudeDegrees>-5.57883851230144500732421875</LongitudeDegrees>
            </Position>
            <AltitudeMeters>654</AltitudeMeters>
            <DistanceMeters>NAN</DistanceMeters>
          </Trackpoint>
          <Trackpoint>
            <Time>2019-10-05T09:40:03.000Z</Time>
            <Position>
              <LatitudeDegrees>42.30563613586127758026123046875</LatitudeDegrees>
              <LongitudeDegrees>-5.57878092862665653228759765625</LongitudeDegrees>
            </Position>
            <AltitudeMeters>654</AltitudeMeters>
            <DistanceMeters>NAN</DistanceMeters>
          </Trackpoint>
          <Trackpoint>
            <Time>2019-10-05T09:40:13.000Z</Time>
            <Position>
              <LatitudeDegrees>42.30508225969970226287841796875</LatitudeDegrees>
              <LongitudeDegrees>-5.57870549149811267852783203125</LongitudeDegrees>
            </Position>
            <AltitudeMeters>654.20001220703125</AltitudeMeters>
            <DistanceMeters>NAN</DistanceMeters>
          </Trackpoint>
          <Trackpoint>
            <Time>2019-10-05T09:40:23.000Z</Time>
            <Position>
              <LatitudeDegrees>42.3045179061591625213623046875</LatitudeDegrees>
              <LongitudeDegrees>-5.5786230973899364471435546875</LongitudeDegrees>
            </Position>
            <AltitudeMeters>653.5999755859375</AltitudeMeters>
            <DistanceMeters>NAN</DistanceMeters>
          </Trackpoint>
          <Trackpoint>
            <Time>2019-10-05T09:40:33.000Z</Time>
            <Position>
              <LatitudeDegrees>42.30395841412246227264404296875</LatitudeDegrees>
              <LongitudeDegrees>-5.57855151593685150146484375</LongitudeDegrees>
            </Position>
            <AltitudeMeters>654.4000244140625</AltitudeMeters>
            <DistanceMeters>NAN</DistanceMeters>
          </Trackpoint>
          <Trackpoint>
            <Time>2019-10-05T09:40:34.000Z</Time>
            <Position>
              <LatitudeDegrees>42.30390141718089580535888671875</LatitudeDegrees>
              <LongitudeDegrees>-5.5785453133285045623779296875</LongitudeDegrees>
            </Position>
            <AltitudeMeters>654.4000244140625</AltitudeMeters>
            <DistanceMeters>NAN</DistanceMeters>
          </Trackpoint>
          <Trackpoint>
            <Time>2019-10-05T09:40:44.000Z</Time>
            <Position>
              <LatitudeDegrees>42.3033370636403560638427734375</LatitudeDegrees>
              <LongitudeDegrees>-5.57846107520163059234619140625</LongitudeDegrees>
            </Position>
            <AltitudeMeters>653.5999755859375</AltitudeMeters>
            <DistanceMeters>NAN</DistanceMeters>
          </Trackpoint>
          <Trackpoint>
            <Time>2019-10-05T09:40:50.000Z</Time>
            <Position>
              <LatitudeDegrees>42.30300036258995532989501953125</LatitudeDegrees>
              <LongitudeDegrees>-5.57841983623802661895751953125</LongitudeDegrees>
            </Position>
            <AltitudeMeters>653.5999755859375</AltitudeMeters>
            <DistanceMeters>NAN</DistanceMeters>
          </Trackpoint>
          <Trackpoint>
            <Time>2019-10-05T09:40:53.000Z</Time>
            <Position>
              <LatitudeDegrees>42.302832305431365966796875</LatitudeDegrees>
              <LongitudeDegrees>-5.5783987976610660552978515625</LongitudeDegrees>
            </Position>
            <AltitudeMeters>654.20001220703125</AltitudeMeters>
            <DistanceMeters>NAN</DistanceMeters>
          </Trackpoint>
          <Trackpoint>
            <Time>2019-10-05T09:40:57.000Z</Time>
            <Position>
              <LatitudeDegrees>42.3026048205792903900146484375</LatitudeDegrees>
              <LongitudeDegrees>-5.57837390340864658355712890625</LongitudeDegrees>
            </Position>
            <AltitudeMeters>653</AltitudeMeters>
            <DistanceMeters>NAN</DistanceMeters>
          </Trackpoint>
          <Trackpoint>
            <Time>2019-10-05T09:41:02.000Z</Time>
            <Position>
              <LatitudeDegrees>42.3023258708417415618896484375</LatitudeDegrees>
              <LongitudeDegrees>-5.57833869941532611846923828125</LongitudeDegrees>
            </Position>
            <AltitudeMeters>654</AltitudeMeters>
            <DistanceMeters>NAN</DistanceMeters>
          </Trackpoint>
          <Trackpoint>
            <Time>2019-10-05T09:41:05.000Z</Time>
            <Position>
              <LatitudeDegrees>42.30215982533991336822509765625</LatitudeDegrees>
              <LongitudeDegrees>-5.57831875048577785491943359375</LongitudeDegrees>
            </Position>
            <AltitudeMeters>652.79998779296875</AltitudeMeters>
            <DistanceMeters>NAN</DistanceMeters>
          </Trackpoint>
          <Trackpoint>
            <Time>2019-10-05T09:41:15.000Z</Time>
            <Position>
              <LatitudeDegrees>42.30161097832024097442626953125</LatitudeDegrees>
              <LongitudeDegrees>-5.57823392562568187713623046875</LongitudeDegrees>
            </Position>
            <AltitudeMeters>653.20001220703125</AltitudeMeters>
            <DistanceMeters>NAN</DistanceMeters>
          </Trackpoint>
          <Trackpoint>
            <Time>2019-10-05T09:41:25.000Z</Time>
            <Position>
              <LatitudeDegrees>42.3010474629700183868408203125</LatitudeDegrees>
              <LongitudeDegrees>-5.5781634338200092315673828125</LongitudeDegrees>
            </Position>
            <AltitudeMeters>653.20001220703125</AltitudeMeters>
            <DistanceMeters>NAN</DistanceMeters>
          </Trackpoint>
          <Trackpoint>
            <Time>2019-10-05T09:41:35.000Z</Time>
            <Position>
              <LatitudeDegrees>42.30048461817204952239990234375</LatitudeDegrees>
              <LongitudeDegrees>-5.578080452978610992431640625</LongitudeDegrees>
            </Position>
            <AltitudeMeters>653</AltitudeMeters>
            <DistanceMeters>NAN</DistanceMeters>
          </Trackpoint>
          <Trackpoint>
            <Time>2019-10-05T09:41:45.000Z</Time>
            <Position>
              <LatitudeDegrees>42.2999259643256664276123046875</LatitudeDegrees>
              <LongitudeDegrees>-5.57800459675490856170654296875</LongitudeDegrees>
            </Position>
            <AltitudeMeters>652.5999755859375</AltitudeMeters>
            <DistanceMeters>NAN</DistanceMeters>
          </Trackpoint>
          <Trackpoint>
            <Time>2019-10-05T09:41:54.000Z</Time>
            <Position>
              <LatitudeDegrees>42.29942120611667633056640625</LatitudeDegrees>
              <LongitudeDegrees>-5.5779408104717731475830078125</LongitudeDegrees>
            </Position>
            <AltitudeMeters>652.4000244140625</AltitudeMeters>
            <DistanceMeters>NAN</DistanceMeters>
          </Trackpoint>
          <Trackpoint>
            <Time>2019-10-05T09:42:04.000Z</Time>
            <Position>
              <LatitudeDegrees>42.298862971365451812744140625</LatitudeDegrees>
              <LongitudeDegrees>-5.57786897756159305572509765625</LongitudeDegrees>
            </Position>
            <AltitudeMeters>652.79998779296875</AltitudeMeters>
            <DistanceMeters>NAN</DistanceMeters>
          </Trackpoint>
          <Trackpoint>
            <Time>2019-10-05T09:42:05.000Z</Time>
            <Position>
              <LatitudeDegrees>42.29880639351904392242431640625</LatitudeDegrees>
              <LongitudeDegrees>-5.57786084711551666259765625</LongitudeDegrees>
            </Position>
            <AltitudeMeters>652.5999755859375</AltitudeMeters>
            <DistanceMeters>NAN</DistanceMeters>
          </Trackpoint>
          <Trackpoint>
            <Time>2019-10-05T09:42:15.000Z</Time>
            <Position>
              <LatitudeDegrees>42.29823608882725238800048828125</LatitudeDegrees>
              <LongitudeDegrees>-5.57778649963438510894775390625</LongitudeDegrees>
            </Position>
            <AltitudeMeters>652.4000244140625</AltitudeMeters>
            <DistanceMeters>NAN</DistanceMeters>
          </Trackpoint>
          <Trackpoint>
            <Time>2019-10-05T09:42:25.000Z</Time>
            <Position>
              <LatitudeDegrees>42.2976755909621715545654296875</LatitudeDegrees>
              <LongitudeDegrees>-5.57771458290517330169677734375</LongitudeDegrees>
            </Position>
            <AltitudeMeters>652</AltitudeMeters>
            <DistanceMeters>NAN</DistanceMeters>
          </Trackpoint>
          <Trackpoint>
            <Time>2019-10-05T09:42:34.000Z</Time>
            <Position>
              <LatitudeDegrees>42.29716639034450054168701171875</LatitudeDegrees>
              <LongitudeDegrees>-5.57764149270951747894287109375</LongitudeDegrees>
            </Position>
            <AltitudeMeters>652.20001220703125</AltitudeMeters>
            <DistanceMeters>NAN</DistanceMeters>
          </Trackpoint>
          <Trackpoint>
            <Time>2019-10-05T09:42:44.000Z</Time>
            <Position>
              <LatitudeDegrees>42.29660698212683200836181640625</LatitudeDegrees>
              <LongitudeDegrees>-5.57756823487579822540283203125</LongitudeDegrees>
            </Position>
            <AltitudeMeters>652</AltitudeMeters>
            <DistanceMeters>NAN</DistanceMeters>
          </Trackpoint>
          <Trackpoint>
            <Time>2019-10-05T09:42:45.000Z</Time>
            <Position>
              <LatitudeDegrees>42.296551577746868133544921875</LatitudeDegrees>
              <LongitudeDegrees>-5.577560774981975555419921875</LongitudeDegrees>
            </Position>
            <AltitudeMeters>652</AltitudeMeters>
            <DistanceMeters>NAN</DistanceMeters>
          </Trackpoint>
          <Trackpoint>
            <Time>2019-10-05T09:42:55.000Z</Time>
            <Position>
              <LatitudeDegrees>42.29599694721400737762451171875</LatitudeDegrees>
              <LongitudeDegrees>-5.5774831585586071014404296875</LongitudeDegrees>
            </Position>
            <AltitudeMeters>651.5999755859375</AltitudeMeters>
            <DistanceMeters>NAN</DistanceMeters>
          </Trackpoint>
          <Trackpoint>
            <Time>2019-10-05T09:42:58.000Z</Time>
            <Position>
              <LatitudeDegrees>42.295831404626369476318359375</LatitudeDegrees>
              <LongitudeDegrees>-5.5774640478193759918212890625</LongitudeDegrees>
            </Position>
            <AltitudeMeters>651.79998779296875</AltitudeMeters>
            <DistanceMeters>NAN</DistanceMeters>
          </Trackpoint>
          <Trackpoint>
            <Time>2019-10-05T09:43:08.000Z</Time>
            <Position>
              <LatitudeDegrees>42.29527811519801616668701171875</LatitudeDegrees>
              <LongitudeDegrees>-5.57738919742405414581298828125</LongitudeDegrees>
            </Position>
            <AltitudeMeters>652.20001220703125</AltitudeMeters>
            <DistanceMeters>NAN</DistanceMeters>
          </Trackpoint>
          <Trackpoint>
            <Time>2019-10-05T09:43:09.000Z</Time>
            <Position>
              <LatitudeDegrees>42.295222543179988861083984375</LatitudeDegrees>
              <LongitudeDegrees>-5.5773814022541046142578125</LongitudeDegrees>
            </Position>
            <AltitudeMeters>652</AltitudeMeters>
            <DistanceMeters>NAN</DistanceMeters>
          </Trackpoint>
          <Trackpoint>
            <Time>2019-10-05T09:43:19.000Z</Time>
            <Position>
              <LatitudeDegrees>42.29466858319938182830810546875</LatitudeDegrees>
              <LongitudeDegrees>-5.57730831205844879150390625</LongitudeDegrees>
            </Position>
            <AltitudeMeters>651.79998779296875</AltitudeMeters>
            <DistanceMeters>NAN</DistanceMeters>
          </Trackpoint>
          <Trackpoint>
            <Time>2019-10-05T09:43:20.000Z</Time>
            <Position>
              <LatitudeDegrees>42.2946121729910373687744140625</LatitudeDegrees>
              <LongitudeDegrees>-5.5773021094501018524169921875</LongitudeDegrees>
            </Position>
            <AltitudeMeters>651.79998779296875</AltitudeMeters>
            <DistanceMeters>NAN</DistanceMeters>
          </Trackpoint>
          <Trackpoint>
            <Time>2019-10-05T09:43:30.000Z</Time>
            <Position>
              <LatitudeDegrees>42.29404513724148273468017578125</LatitudeDegrees>
              <LongitudeDegrees>-5.5772320367395877838134765625</LongitudeDegrees>
            </Position>
            <AltitudeMeters>651.79998779296875</AltitudeMeters>
            <DistanceMeters>NAN</DistanceMeters>
          </Trackpoint>
          <Trackpoint>
            <Time>2019-10-05T09:43:32.000Z</Time>
            <Position>
              <LatitudeDegrees>42.293931730091571807861328125</LatitudeDegrees>
              <LongitudeDegrees>-5.57721803896129131317138671875</LongitudeDegrees>
            </Position>
            <AltitudeMeters>651.79998779296875</AltitudeMeters>
            <DistanceMeters>NAN</DistanceMeters>
          </Trackpoint>
          <Trackpoint>
            <Time>2019-10-05T09:43:41.000Z</Time>
            <Position>
              <LatitudeDegrees>42.293427474796772003173828125</LatitudeDegrees>
              <LongitudeDegrees>-5.577145032584667205810546875</LongitudeDegrees>
            </Position>
            <AltitudeMeters>651.79998779296875</AltitudeMeters>
            <DistanceMeters>NAN</DistanceMeters>
          </Trackpoint>
          <Trackpoint>
            <Time>2019-10-05T09:43:51.000Z</Time>
            <Position>
              <LatitudeDegrees>42.2928640432655811309814453125</LatitudeDegrees>
              <LongitudeDegrees>-5.57708258740603923797607421875</LongitudeDegrees>
            </Position>
            <AltitudeMeters>651.4000244140625</AltitudeMeters>
            <DistanceMeters>NAN</DistanceMeters>
          </Trackpoint>
          <Trackpoint>
            <Time>2019-10-05T09:43:52.000Z</Time>
            <Position>
              <LatitudeDegrees>42.2928075492382049560546875</LatitudeDegrees>
              <LongitudeDegrees>-5.577075295150279998779296875</LongitudeDegrees>
            </Position>
            <AltitudeMeters>651.4000244140625</AltitudeMeters>
            <DistanceMeters>NAN</DistanceMeters>
          </Trackpoint>
          <Trackpoint>
            <Time>2019-10-05T09:44:02.000Z</Time>
            <Position>
              <LatitudeDegrees>42.29225560091435909271240234375</LatitudeDegrees>
              <LongitudeDegrees>-5.5770013667643070220947265625</LongitudeDegrees>
            </Position>
            <AltitudeMeters>650.79998779296875</AltitudeMeters>
            <DistanceMeters>NAN</DistanceMeters>
          </Trackpoint>
          <Trackpoint>
            <Time>2019-10-05T09:44:03.000Z</Time>
            <Position>
              <LatitudeDegrees>42.29220581240952014923095703125</LatitudeDegrees>
              <LongitudeDegrees>-5.5769896320998668670654296875</LongitudeDegrees>
            </Position>
            <AltitudeMeters>651</AltitudeMeters>
            <DistanceMeters>NAN</DistanceMeters>
          </Trackpoint>
          <Trackpoint>
            <Time>2019-10-05T09:44:09.000Z</Time>
            <Position>
              <LatitudeDegrees>42.2918635793030261993408203125</LatitudeDegrees>
              <LongitudeDegrees>-5.576937831938266754150390625</LongitudeDegrees>
            </Position>
            <AltitudeMeters>651.20001220703125</AltitudeMeters>
            <DistanceMeters>NAN</DistanceMeters>
          </Trackpoint>
          <Trackpoint>
            <Time>2019-10-05T09:44:16.000Z</Time>
            <Position>
              <LatitudeDegrees>42.2914830408990383148193359375</LatitudeDegrees>
              <LongitudeDegrees>-5.576884187757968902587890625</LongitudeDegrees>
            </Position>
            <AltitudeMeters>651.4000244140625</AltitudeMeters>
            <DistanceMeters>NAN</DistanceMeters>
          </Trackpoint>
          <Trackpoint>
            <Time>2019-10-05T09:44:26.000Z</Time>
            <Position>
              <LatitudeDegrees>42.29095053859055042266845703125</LatitudeDegrees>
              <LongitudeDegrees>-5.57682107202708721160888671875</LongitudeDegrees>
            </Position>
            <AltitudeMeters>651.5999755859375</AltitudeMeters>
            <DistanceMeters>NAN</DistanceMeters>
          </Trackpoint>
          <Trackpoint>
            <Time>2019-10-05T09:44:27.000Z</Time>
            <Position>
              <LatitudeDegrees>42.2908963076770305633544921875</LatitudeDegrees>
              <LongitudeDegrees>-5.57681235484778881072998046875</LongitudeDegrees>
            </Position>
            <AltitudeMeters>651.79998779296875</AltitudeMeters>
            <DistanceMeters>NAN</DistanceMeters>
          </Trackpoint>
          <Trackpoint>
            <Time>2019-10-05T09:44:37.000Z</Time>
            <Position>
              <LatitudeDegrees>42.29035693220794200897216796875</LatitudeDegrees>
              <LongitudeDegrees>-5.5767425335943698883056640625</LongitudeDegrees>
            </Position>
            <AltitudeMeters>651.79998779296875</AltitudeMeters>
            <DistanceMeters>NAN</DistanceMeters>
          </Trackpoint>
          <Trackpoint>
            <Time>2019-10-05T09:44:47.000Z</Time>
            <Position>
              <LatitudeDegrees>42.2898177243769168853759765625</LatitudeDegrees>
              <LongitudeDegrees>-5.576665587723255157470703125</LongitudeDegrees>
            </Position>
            <AltitudeMeters>651.79998779296875</AltitudeMeters>
            <DistanceMeters>NAN</DistanceMeters>
          </Trackpoint>
          <Trackpoint>
            <Time>2019-10-05T09:44:50.000Z</Time>
            <Position>
              <LatitudeDegrees>42.289653606712818145751953125</LatitudeDegrees>
              <LongitudeDegrees>-5.5766442976891994476318359375</LongitudeDegrees>
            </Position>
            <AltitudeMeters>651.4000244140625</AltitudeMeters>
            <DistanceMeters>NAN</DistanceMeters>
          </Trackpoint>
          <Trackpoint>
            <Time>2019-10-05T09:45:00.000Z</Time>
            <Position>
              <LatitudeDegrees>42.28910953737795352935791015625</LatitudeDegrees>
              <LongitudeDegrees>-5.57657246477901935577392578125</LongitudeDegrees>
            </Position>
            <AltitudeMeters>651.4000244140625</AltitudeMeters>
            <DistanceMeters>NAN</DistanceMeters>
          </Trackpoint>
          <Trackpoint>
            <Time>2019-10-05T09:45:10.000Z</Time>
            <Position>
              <LatitudeDegrees>42.28856085799634456634521484375</LatitudeDegrees>
              <LongitudeDegrees>-5.5764961056411266326904296875</LongitudeDegrees>
            </Position>
            <AltitudeMeters>651.4000244140625</AltitudeMeters>
            <DistanceMeters>NAN</DistanceMeters>
          </Trackpoint>
          <Trackpoint>
            <Time>2019-10-05T09:45:11.000Z</Time>
            <Position>
              <LatitudeDegrees>42.28850604034960269927978515625</LatitudeDegrees>
              <LongitudeDegrees>-5.57648931629955768585205078125</LongitudeDegrees>
            </Position>
            <AltitudeMeters>651.20001220703125</AltitudeMeters>
            <DistanceMeters>NAN</DistanceMeters>
          </Trackpoint>
          <Trackpoint>
            <Time>2019-10-05T09:45:20.000Z</Time>
            <Position>
              <LatitudeDegrees>42.28800916112959384918212890625</LatitudeDegrees>
              <LongitudeDegrees>-5.5764238536357879638671875</LongitudeDegrees>
            </Position>
            <AltitudeMeters>651.4000244140625</AltitudeMeters>
            <DistanceMeters>NAN</DistanceMeters>
          </Trackpoint>
          <Trackpoint>
            <Time>2019-10-05T09:45:24.000Z</Time>
            <Position>
              <LatitudeDegrees>42.287783436477184295654296875</LatitudeDegrees>
              <LongitudeDegrees>-5.5763928405940532684326171875</LongitudeDegrees>
            </Position>
            <AltitudeMeters>650.5999755859375</AltitudeMeters>
            <DistanceMeters>NAN</DistanceMeters>
          </Trackpoint>
          <Trackpoint>
            <Time>2019-10-05T09:45:31.000Z</Time>
            <Position>
              <LatitudeDegrees>42.2873933427035808563232421875</LatitudeDegrees>
              <LongitudeDegrees>-5.57634162716567516326904296875</LongitudeDegrees>
            </Position>
            <AltitudeMeters>650.20001220703125</AltitudeMeters>
            <DistanceMeters>NAN</DistanceMeters>
          </Trackpoint>
          <Trackpoint>
            <Time>2019-10-05T09:45:41.000Z</Time>
            <Position>
              <LatitudeDegrees>42.28683401830494403839111328125</LatitudeDegrees>
              <LongitudeDegrees>-5.57627029716968536376953125</LongitudeDegrees>
            </Position>
            <AltitudeMeters>651</AltitudeMeters>
            <DistanceMeters>NAN</DistanceMeters>
          </Trackpoint>
          <Trackpoint>
            <Time>2019-10-05T09:45:42.000Z</Time>
            <Position>
              <LatitudeDegrees>42.2867779433727264404296875</LatitudeDegrees>
              <LongitudeDegrees>-5.5762627534568309783935546875</LongitudeDegrees>
            </Position>
            <AltitudeMeters>651</AltitudeMeters>
            <DistanceMeters>NAN</DistanceMeters>
          </Trackpoint>
          <Trackpoint>
            <Time>2019-10-05T09:45:52.000Z</Time>
            <Position>
              <LatitudeDegrees>42.28620956651866436004638671875</LatitudeDegrees>
              <LongitudeDegrees>-5.5761920101940631866455078125</LongitudeDegrees>
            </Position>
            <AltitudeMeters>651</AltitudeMeters>
            <DistanceMeters>NAN</DistanceMeters>
          </Trackpoint>
          <Trackpoint>
            <Time>2019-10-05T09:45:54.000Z</Time>
            <Position>
              <LatitudeDegrees>42.286095656454563140869140625</LatitudeDegrees>
              <LongitudeDegrees>-5.5761775933206081390380859375</LongitudeDegrees>
            </Position>
            <AltitudeMeters>651.20001220703125</AltitudeMeters>
            <DistanceMeters>NAN</DistanceMeters>
          </Trackpoint>
          <Trackpoint>
            <Time>2019-10-05T09:45:55.000Z</Time>
            <Position>
              <LatitudeDegrees>42.28603891097009181976318359375</LatitudeDegrees>
              <LongitudeDegrees>-5.576170384883880615234375</LongitudeDegrees>
            </Position>
            <AltitudeMeters>651</AltitudeMeters>
            <DistanceMeters>NAN</DistanceMeters>
          </Trackpoint>
          <Trackpoint>
            <Time>2019-10-05T09:46:05.000Z</Time>
            <Position>
              <LatitudeDegrees>42.2854681871831417083740234375</LatitudeDegrees>
              <LongitudeDegrees>-5.57609251700341701507568359375</LongitudeDegrees>
            </Position>
            <AltitudeMeters>650.79998779296875</AltitudeMeters>
            <DistanceMeters>NAN</DistanceMeters>
          </Trackpoint>
          <Trackpoint>
            <Time>2019-10-05T09:46:15.000Z</Time>
            <Position>
              <LatitudeDegrees>42.28490416891872882843017578125</LatitudeDegrees>
              <LongitudeDegrees>-5.5760134756565093994140625</LongitudeDegrees>
            </Position>
            <AltitudeMeters>650.5999755859375</AltitudeMeters>
            <DistanceMeters>NAN</DistanceMeters>
          </Trackpoint>
          <Trackpoint>
            <Time>2019-10-05T09:46:18.000Z</Time>
            <Position>
              <LatitudeDegrees>42.2847367823123931884765625</LatitudeDegrees>
              <LongitudeDegrees>-5.57598807848989963531494140625</LongitudeDegrees>
            </Position>
            <AltitudeMeters>650.4000244140625</AltitudeMeters>
            <DistanceMeters>NAN</DistanceMeters>
          </Trackpoint>
          <Trackpoint>
            <Time>2019-10-05T09:46:28.000Z</Time>
            <Position>
              <LatitudeDegrees>42.2841820679605007171630859375</LatitudeDegrees>
              <LongitudeDegrees>-5.57591616176068782806396484375</LongitudeDegrees>
            </Position>
            <AltitudeMeters>650.20001220703125</AltitudeMeters>
            <DistanceMeters>NAN</DistanceMeters>
          </Trackpoint>
          <Trackpoint>
            <Time>2019-10-05T09:46:30.000Z</Time>
            <Position>
              <LatitudeDegrees>42.284069247543811798095703125</LatitudeDegrees>
              <LongitudeDegrees>-5.57590509764850139617919921875</LongitudeDegrees>
            </Position>
            <AltitudeMeters>650</AltitudeMeters>
            <DistanceMeters>NAN</DistanceMeters>
          </Trackpoint>
          <Trackpoint>
            <Time>2019-10-05T09:46:39.000Z</Time>
            <Position>
              <LatitudeDegrees>42.2835651598870754241943359375</LatitudeDegrees>
              <LongitudeDegrees>-5.5758403055369853973388671875</LongitudeDegrees>
            </Position>
            <AltitudeMeters>649.20001220703125</AltitudeMeters>
            <DistanceMeters>NAN</DistanceMeters>
          </Trackpoint>
          <Trackpoint>
            <Time>2019-10-05T09:46:41.000Z</Time>
            <Position>
              <LatitudeDegrees>42.2834528423845767974853515625</LatitudeDegrees>
              <LongitudeDegrees>-5.57582530193030834197998046875</LongitudeDegrees>
            </Position>
            <AltitudeMeters>649.5999755859375</AltitudeMeters>
            <DistanceMeters>NAN</DistanceMeters>
          </Trackpoint>
          <Trackpoint>
            <Time>2019-10-05T09:46:46.000Z</Time>
            <Position>
              <LatitudeDegrees>42.28317238390445709228515625</LatitudeDegrees>
              <LongitudeDegrees>-5.57578456588089466094970703125</LongitudeDegrees>
            </Position>
            <AltitudeMeters>649.79998779296875</AltitudeMeters>
            <DistanceMeters>NAN</DistanceMeters>
          </Trackpoint>
          <Trackpoint>
            <Time>2019-10-05T09:46:53.000Z</Time>
            <Position>
              <LatitudeDegrees>42.282785139977931976318359375</LatitudeDegrees>
              <LongitudeDegrees>-5.57572924531996250152587890625</LongitudeDegrees>
            </Position>
            <AltitudeMeters>649.5999755859375</AltitudeMeters>
            <DistanceMeters>NAN</DistanceMeters>
          </Trackpoint>
          <Trackpoint>
            <Time>2019-10-05T09:47:03.000Z</Time>
            <Position>
              <LatitudeDegrees>42.28223805315792560577392578125</LatitudeDegrees>
              <LongitudeDegrees>-5.575661770999431610107421875</LongitudeDegrees>
            </Position>
            <AltitudeMeters>649.4000244140625</AltitudeMeters>
            <DistanceMeters>NAN</DistanceMeters>
          </Trackpoint>
          <Trackpoint>
            <Time>2019-10-05T09:47:13.000Z</Time>
            <Position>
              <LatitudeDegrees>42.2816923074424266815185546875</LatitudeDegrees>
              <LongitudeDegrees>-5.5755818076431751251220703125</LongitudeDegrees>
            </Position>
            <AltitudeMeters>649.5999755859375</AltitudeMeters>
            <DistanceMeters>NAN</DistanceMeters>
          </Trackpoint>
          <Trackpoint>
            <Time>2019-10-05T09:47:14.000Z</Time>
            <Position>
              <LatitudeDegrees>42.28163774125277996063232421875</LatitudeDegrees>
              <LongitudeDegrees>-5.57557518593966960906982421875</LongitudeDegrees>
            </Position>
            <AltitudeMeters>649.5999755859375</AltitudeMeters>
            <DistanceMeters>NAN</DistanceMeters>
          </Trackpoint>
          <Trackpoint>
            <Time>2019-10-05T09:47:24.000Z</Time>
            <Position>
              <LatitudeDegrees>42.28108453564345836639404296875</LatitudeDegrees>
              <LongitudeDegrees>-5.57550662197172641754150390625</LongitudeDegrees>
            </Position>
            <AltitudeMeters>649.20001220703125</AltitudeMeters>
            <DistanceMeters>NAN</DistanceMeters>
          </Trackpoint>
          <Trackpoint>
            <Time>2019-10-05T09:47:25.000Z</Time>
            <Position>
              <LatitudeDegrees>42.28102854453027248382568359375</LatitudeDegrees>
              <LongitudeDegrees>-5.57549891062080860137939453125</LongitudeDegrees>
            </Position>
            <AltitudeMeters>649</AltitudeMeters>
            <DistanceMeters>NAN</DistanceMeters>
          </Trackpoint>
          <Trackpoint>
            <Time>2019-10-05T09:47:35.000Z</Time>
            <Position>
              <LatitudeDegrees>42.2804678790271282196044921875</LatitudeDegrees>
              <LongitudeDegrees>-5.57542682625353336334228515625</LongitudeDegrees>
            </Position>
            <AltitudeMeters>649</AltitudeMeters>
            <DistanceMeters>NAN</DistanceMeters>
          </Trackpoint>
          <Trackpoint>
            <Time>2019-10-05T09:47:36.000Z</Time>
            <Position>
              <LatitudeDegrees>42.28041172027587890625</LatitudeDegrees>
              <LongitudeDegrees>-5.57542062364518642425537109375</LongitudeDegrees>
            </Position>
            <AltitudeMeters>648.5999755859375</AltitudeMeters>
            <DistanceMeters>NAN</DistanceMeters>
          </Trackpoint>
          <Trackpoint>
            <Time>2019-10-05T09:47:46.000Z</Time>
            <Position>
              <LatitudeDegrees>42.2798578441143035888671875</LatitudeDegrees>
              <LongitudeDegrees>-5.57534568943083286285400390625</LongitudeDegrees>
            </Position>
            <AltitudeMeters>649</AltitudeMeters>
            <DistanceMeters>NAN</DistanceMeters>
          </Trackpoint>
          <Trackpoint>
            <Time>2019-10-05T09:47:49.000Z</Time>
            <Position>
              <LatitudeDegrees>42.27969213388860225677490234375</LatitudeDegrees>
              <LongitudeDegrees>-5.57531937025487422943115234375</LongitudeDegrees>
            </Position>
            <AltitudeMeters>648.79998779296875</AltitudeMeters>
            <DistanceMeters>NAN</DistanceMeters>
          </Trackpoint>
          <Trackpoint>
            <Time>2019-10-05T09:47:59.000Z</Time>
            <Position>
              <LatitudeDegrees>42.2791338153183460235595703125</LatitudeDegrees>
              <LongitudeDegrees>-5.5752508901059627532958984375</LongitudeDegrees>
            </Position>
            <AltitudeMeters>648.5999755859375</AltitudeMeters>
            <DistanceMeters>NAN</DistanceMeters>
          </Trackpoint>
          <Trackpoint>
            <Time>2019-10-05T09:48:00.000Z</Time>
            <Position>
              <LatitudeDegrees>42.27907924912869930267333984375</LatitudeDegrees>
              <LongitudeDegrees>-5.57523974217474460601806640625</LongitudeDegrees>
            </Position>
            <AltitudeMeters>648.4000244140625</AltitudeMeters>
            <DistanceMeters>NAN</DistanceMeters>
          </Trackpoint>
          <Trackpoint>
            <Time>2019-10-05T09:48:10.000Z</Time>
            <Position>
              <LatitudeDegrees>42.27852822281420230865478515625</LatitudeDegrees>
              <LongitudeDegrees>-5.5751627124845981597900390625</LongitudeDegrees>
            </Position>
            <AltitudeMeters>648.4000244140625</AltitudeMeters>
            <DistanceMeters>NAN</DistanceMeters>
          </Trackpoint>
          <Trackpoint>
            <Time>2019-10-05T09:48:13.000Z</Time>
            <Position>
              <LatitudeDegrees>42.2783610038459300994873046875</LatitudeDegrees>
              <LongitudeDegrees>-5.57514787651598453521728515625</LongitudeDegrees>
            </Position>
            <AltitudeMeters>647.79998779296875</AltitudeMeters>
            <DistanceMeters>NAN</DistanceMeters>
          </Trackpoint>
          <Trackpoint>
            <Time>2019-10-05T09:48:16.000Z</Time>
            <Position>
              <LatitudeDegrees>42.2781975567340850830078125</LatitudeDegrees>
              <LongitudeDegrees>-5.575121976435184478759765625</LongitudeDegrees>
            </Position>
            <AltitudeMeters>649</AltitudeMeters>
            <DistanceMeters>NAN</DistanceMeters>
          </Trackpoint>
          <Trackpoint>
            <Time>2019-10-05T09:48:17.000Z</Time>
            <Position>
              <LatitudeDegrees>42.278141565620899200439453125</LatitudeDegrees>
              <LongitudeDegrees>-5.5751147679984569549560546875</LongitudeDegrees>
            </Position>
            <AltitudeMeters>649</AltitudeMeters>
            <DistanceMeters>NAN</DistanceMeters>
          </Trackpoint>
          <Trackpoint>
            <Time>2019-10-05T09:48:27.000Z</Time>
            <Position>
              <LatitudeDegrees>42.27759581990540027618408203125</LatitudeDegrees>
              <LongitudeDegrees>-5.57503706775605678558349609375</LongitudeDegrees>
            </Position>
            <AltitudeMeters>648.79998779296875</AltitudeMeters>
            <DistanceMeters>NAN</DistanceMeters>
          </Trackpoint>
          <Trackpoint>
            <Time>2019-10-05T09:48:37.000Z</Time>
            <Position>
              <LatitudeDegrees>42.2770494036376476287841796875</LatitudeDegrees>
              <LongitudeDegrees>-5.57497152127325534820556640625</LongitudeDegrees>
            </Position>
            <AltitudeMeters>649.20001220703125</AltitudeMeters>
            <DistanceMeters>NAN</DistanceMeters>
          </Trackpoint>
          <Trackpoint>
            <Time>2019-10-05T09:48:47.000Z</Time>
            <Position>
              <LatitudeDegrees>42.2764998860657215118408203125</LatitudeDegrees>
              <LongitudeDegrees>-5.574899353086948394775390625</LongitudeDegrees>
            </Position>
            <AltitudeMeters>649.20001220703125</AltitudeMeters>
            <DistanceMeters>NAN</DistanceMeters>
          </Trackpoint>
          <Trackpoint>
            <Time>2019-10-05T09:48:49.000Z</Time>
            <Position>
              <LatitudeDegrees>42.27638849057257175445556640625</LatitudeDegrees>
              <LongitudeDegrees>-5.5748810805380344390869140625</LongitudeDegrees>
            </Position>
            <AltitudeMeters>649.20001220703125</AltitudeMeters>
            <DistanceMeters>NAN</DistanceMeters>
          </Trackpoint>
          <Trackpoint>
            <Time>2019-10-05T09:48:59.000Z</Time>
            <Position>
              <LatitudeDegrees>42.2758316807448863983154296875</LatitudeDegrees>
              <LongitudeDegrees>-5.57480270974338054656982421875</LongitudeDegrees>
            </Position>
            <AltitudeMeters>648.5999755859375</AltitudeMeters>
            <DistanceMeters>NAN</DistanceMeters>
          </Trackpoint>
          <Trackpoint>
            <Time>2019-10-05T09:49:00.000Z</Time>
            <Position>
              <LatitudeDegrees>42.275775857269763946533203125</LatitudeDegrees>
              <LongitudeDegrees>-5.57479868642985820770263671875</LongitudeDegrees>
            </Position>
            <AltitudeMeters>648.4000244140625</AltitudeMeters>
            <DistanceMeters>NAN</DistanceMeters>
          </Trackpoint>
          <Trackpoint>
            <Time>2019-10-05T09:49:10.000Z</Time>
            <Position>
              <LatitudeDegrees>42.27521887980401515960693359375</LatitudeDegrees>
              <LongitudeDegrees>-5.57472056709229946136474609375</LongitudeDegrees>
            </Position>
            <AltitudeMeters>649</AltitudeMeters>
            <DistanceMeters>NAN</DistanceMeters>
          </Trackpoint>
          <Trackpoint>
            <Time>2019-10-05T09:49:20.000Z</Time>
            <Position>
              <LatitudeDegrees>42.27465662173926830291748046875</LatitudeDegrees>
              <LongitudeDegrees>-5.57464177720248699188232421875</LongitudeDegrees>
            </Position>
            <AltitudeMeters>649</AltitudeMeters>
            <DistanceMeters>NAN</DistanceMeters>
          </Trackpoint>
          <Trackpoint>
            <Time>2019-10-05T09:49:21.000Z</Time>
            <Position>
              <LatitudeDegrees>42.274601049721240997314453125</LatitudeDegrees>
              <LongitudeDegrees>-5.5746353231370449066162109375</LongitudeDegrees>
            </Position>
            <AltitudeMeters>649.20001220703125</AltitudeMeters>
            <DistanceMeters>NAN</DistanceMeters>
          </Trackpoint>
          <Trackpoint>
            <Time>2019-10-05T09:49:31.000Z</Time>
            <Position>
              <LatitudeDegrees>42.27405044250190258026123046875</LatitudeDegrees>
              <LongitudeDegrees>-5.57456600479781627655029296875</LongitudeDegrees>
            </Position>
            <AltitudeMeters>648.4000244140625</AltitudeMeters>
            <DistanceMeters>NAN</DistanceMeters>
          </Trackpoint>
          <Trackpoint>
            <Time>2019-10-05T09:49:34.000Z</Time>
            <Position>
              <LatitudeDegrees>42.27388548664748668670654296875</LatitudeDegrees>
              <LongitudeDegrees>-5.57454270310699939727783203125</LongitudeDegrees>
            </Position>
            <AltitudeMeters>648.4000244140625</AltitudeMeters>
            <DistanceMeters>NAN</DistanceMeters>
          </Trackpoint>
          <Trackpoint>
            <Time>2019-10-05T09:49:43.000Z</Time>
            <Position>
              <LatitudeDegrees>42.27338089607656002044677734375</LatitudeDegrees>
              <LongitudeDegrees>-5.57447447441518306732177734375</LongitudeDegrees>
            </Position>
            <AltitudeMeters>648.79998779296875</AltitudeMeters>
            <DistanceMeters>NAN</DistanceMeters>
          </Trackpoint>
          <Trackpoint>
            <Time>2019-10-05T09:49:45.000Z</Time>
            <Position>
              <LatitudeDegrees>42.27326673455536365509033203125</LatitudeDegrees>
              <LongitudeDegrees>-5.574459135532379150390625</LongitudeDegrees>
            </Position>
            <AltitudeMeters>648.79998779296875</AltitudeMeters>
            <DistanceMeters>NAN</DistanceMeters>
          </Trackpoint>
          <Trackpoint>
            <Time>2019-10-05T09:49:55.000Z</Time>
            <Position>
              <LatitudeDegrees>42.272695340216159820556640625</LatitudeDegrees>
              <LongitudeDegrees>-5.5743855424225330352783203125</LongitudeDegrees>
            </Position>
            <AltitudeMeters>648.79998779296875</AltitudeMeters>
            <DistanceMeters>NAN</DistanceMeters>
          </Trackpoint>
          <Trackpoint>
            <Time>2019-10-05T09:50:02.000Z</Time>
            <Position>
              <LatitudeDegrees>42.2722886502742767333984375</LatitudeDegrees>
              <LongitudeDegrees>-5.57432494126260280609130859375</LongitudeDegrees>
            </Position>
            <AltitudeMeters>648.79998779296875</AltitudeMeters>
            <DistanceMeters>NAN</DistanceMeters>
          </Trackpoint>
          <Trackpoint>
            <Time>2019-10-05T09:50:11.000Z</Time>
            <Position>
              <LatitudeDegrees>42.2717409767210483551025390625</LatitudeDegrees>
              <LongitudeDegrees>-5.574260652065277099609375</LongitudeDegrees>
            </Position>
            <AltitudeMeters>648.20001220703125</AltitudeMeters>
            <DistanceMeters>NAN</DistanceMeters>
          </Trackpoint>
          <Trackpoint>
            <Time>2019-10-05T09:50:18.000Z</Time>
            <Position>
              <LatitudeDegrees>42.271314673125743865966796875</LatitudeDegrees>
              <LongitudeDegrees>-5.57419870980083942413330078125</LongitudeDegrees>
            </Position>
            <AltitudeMeters>648</AltitudeMeters>
            <DistanceMeters>NAN</DistanceMeters>
          </Trackpoint>
          <Trackpoint>
            <Time>2019-10-05T09:50:19.000Z</Time>
            <Position>
              <LatitudeDegrees>42.27125558070838451385498046875</LatitudeDegrees>
              <LongitudeDegrees>-5.57419166900217533111572265625</LongitudeDegrees>
            </Position>
            <AltitudeMeters>647.79998779296875</AltitudeMeters>
            <DistanceMeters>NAN</DistanceMeters>
          </Trackpoint>
          <Trackpoint>
            <Time>2019-10-05T09:50:21.000Z</Time>
            <Position>
              <LatitudeDegrees>42.2711368091404438018798828125</LatitudeDegrees>
              <LongitudeDegrees>-5.57417691685259342193603515625</LongitudeDegrees>
            </Position>
            <AltitudeMeters>647.79998779296875</AltitudeMeters>
            <DistanceMeters>NAN</DistanceMeters>
          </Trackpoint>
          <Trackpoint>
            <Time>2019-10-05T09:50:30.000Z</Time>
            <Position>
              <LatitudeDegrees>42.270605564117431640625</LatitudeDegrees>
              <LongitudeDegrees>-5.57410734705626964569091796875</LongitudeDegrees>
            </Position>
            <AltitudeMeters>648.4000244140625</AltitudeMeters>
            <DistanceMeters>NAN</DistanceMeters>
          </Trackpoint>
          <Trackpoint>
            <Time>2019-10-05T09:50:33.000Z</Time>
            <Position>
              <LatitudeDegrees>42.27043348364531993865966796875</LatitudeDegrees>
              <LongitudeDegrees>-5.5740791000425815582275390625</LongitudeDegrees>
            </Position>
            <AltitudeMeters>648.5999755859375</AltitudeMeters>
            <DistanceMeters>NAN</DistanceMeters>
          </Trackpoint>
          <Trackpoint>
            <Time>2019-10-05T09:50:40.000Z</Time>
            <Position>
              <LatitudeDegrees>42.270035929977893829345703125</LatitudeDegrees>
              <LongitudeDegrees>-5.57403107173740863800048828125</LongitudeDegrees>
            </Position>
            <AltitudeMeters>648.20001220703125</AltitudeMeters>
            <DistanceMeters>NAN</DistanceMeters>
          </Trackpoint>
          <Trackpoint>
            <Time>2019-10-05T09:50:46.000Z</Time>
            <Position>
              <LatitudeDegrees>42.2697030007839202880859375</LatitudeDegrees>
              <LongitudeDegrees>-5.57398882694542407989501953125</LongitudeDegrees>
            </Position>
            <AltitudeMeters>648.20001220703125</AltitudeMeters>
            <DistanceMeters>NAN</DistanceMeters>
          </Trackpoint>
          <Trackpoint>
            <Time>2019-10-05T09:50:52.000Z</Time>
            <Position>
              <LatitudeDegrees>42.26937451399862766265869140625</LatitudeDegrees>
              <LongitudeDegrees>-5.5739446543157100677490234375</LongitudeDegrees>
            </Position>
            <AltitudeMeters>648.20001220703125</AltitudeMeters>
            <DistanceMeters>NAN</DistanceMeters>
          </Trackpoint>
          <Trackpoint>
            <Time>2019-10-05T09:51:01.000Z</Time>
            <Position>
              <LatitudeDegrees>42.26887646131217479705810546875</LatitudeDegrees>
              <LongitudeDegrees>-5.57387148030102252960205078125</LongitudeDegrees>
            </Position>
            <AltitudeMeters>647.5999755859375</AltitudeMeters>
            <DistanceMeters>NAN</DistanceMeters>
          </Trackpoint>
          <Trackpoint>
            <Time>2019-10-05T09:51:10.000Z</Time>
            <Position>
              <LatitudeDegrees>42.26838226430118083953857421875</LatitudeDegrees>
              <LongitudeDegrees>-5.57380325160920619964599609375</LongitudeDegrees>
            </Position>
            <AltitudeMeters>647</AltitudeMeters>
            <DistanceMeters>NAN</DistanceMeters>
          </Trackpoint>
          <Trackpoint>
            <Time>2019-10-05T09:51:18.000Z</Time>
            <Position>
              <LatitudeDegrees>42.2679248638451099395751953125</LatitudeDegrees>
              <LongitudeDegrees>-5.57374893687665462493896484375</LongitudeDegrees>
            </Position>
            <AltitudeMeters>646.79998779296875</AltitudeMeters>
            <DistanceMeters>NAN</DistanceMeters>
          </Trackpoint>
          <Trackpoint>
            <Time>2019-10-05T09:51:19.000Z</Time>
            <Position>
              <LatitudeDegrees>42.2678683698177337646484375</LatitudeDegrees>
              <LongitudeDegrees>-5.57374156080186367034912109375</LongitudeDegrees>
            </Position>
            <AltitudeMeters>646.79998779296875</AltitudeMeters>
            <DistanceMeters>NAN</DistanceMeters>
          </Trackpoint>
          <Trackpoint>
            <Time>2019-10-05T09:51:29.000Z</Time>
            <Position>
              <LatitudeDegrees>42.26730887778103351593017578125</LatitudeDegrees>
              <LongitudeDegrees>-5.57366679422557353973388671875</LongitudeDegrees>
            </Position>
            <AltitudeMeters>646.5999755859375</AltitudeMeters>
            <DistanceMeters>NAN</DistanceMeters>
          </Trackpoint>
          <Trackpoint>
            <Time>2019-10-05T09:51:30.000Z</Time>
            <Position>
              <LatitudeDegrees>42.26725305430591106414794921875</LatitudeDegrees>
              <LongitudeDegrees>-5.5736610107123851776123046875</LongitudeDegrees>
            </Position>
            <AltitudeMeters>646.20001220703125</AltitudeMeters>
            <DistanceMeters>NAN</DistanceMeters>
          </Trackpoint>
          <Trackpoint>
            <Time>2019-10-05T09:51:40.000Z</Time>
            <Position>
              <LatitudeDegrees>42.266696579754352569580078125</LatitudeDegrees>
              <LongitudeDegrees>-5.5735875852406024932861328125</LongitudeDegrees>
            </Position>
            <AltitudeMeters>646</AltitudeMeters>
            <DistanceMeters>NAN</DistanceMeters>
          </Trackpoint>
          <Trackpoint>
            <Time>2019-10-05T09:51:46.000Z</Time>
            <Position>
              <LatitudeDegrees>42.26635233499109745025634765625</LatitudeDegrees>
              <LongitudeDegrees>-5.5735439993441104888916015625</LongitudeDegrees>
            </Position>
            <AltitudeMeters>645.5999755859375</AltitudeMeters>
            <DistanceMeters>NAN</DistanceMeters>
          </Trackpoint>
          <Trackpoint>
            <Time>2019-10-05T09:51:51.000Z</Time>
            <Position>
              <LatitudeDegrees>42.26606584154069423675537109375</LatitudeDegrees>
              <LongitudeDegrees>-5.57350368238985538482666015625</LongitudeDegrees>
            </Position>
            <AltitudeMeters>645.5999755859375</AltitudeMeters>
            <DistanceMeters>NAN</DistanceMeters>
          </Trackpoint>
          <Trackpoint>
            <Time>2019-10-05T09:51:56.000Z</Time>
            <Position>
              <LatitudeDegrees>42.2657950222492218017578125</LatitudeDegrees>
              <LongitudeDegrees>-5.573450624942779541015625</LongitudeDegrees>
            </Position>
            <AltitudeMeters>645.5999755859375</AltitudeMeters>
            <DistanceMeters>NAN</DistanceMeters>
          </Trackpoint>
          <Trackpoint>
            <Time>2019-10-05T09:51:58.000Z</Time>
            <Position>
              <LatitudeDegrees>42.26569502614438533782958984375</LatitudeDegrees>
              <LongitudeDegrees>-5.5734095536172389984130859375</LongitudeDegrees>
            </Position>
            <AltitudeMeters>646</AltitudeMeters>
            <DistanceMeters>NAN</DistanceMeters>
          </Trackpoint>
          <Trackpoint>
            <Time>2019-10-05T09:52:05.000Z</Time>
            <Position>
              <LatitudeDegrees>42.26532706059515476226806640625</LatitudeDegrees>
              <LongitudeDegrees>-5.57336688973009586334228515625</LongitudeDegrees>
            </Position>
            <AltitudeMeters>645.5999755859375</AltitudeMeters>
            <DistanceMeters>NAN</DistanceMeters>
          </Trackpoint>
          <Trackpoint>
            <Time>2019-10-05T09:52:06.000Z</Time>
            <Position>
              <LatitudeDegrees>42.2652738355100154876708984375</LatitudeDegrees>
              <LongitudeDegrees>-5.57337745092809200286865234375</LongitudeDegrees>
            </Position>
            <AltitudeMeters>645.79998779296875</AltitudeMeters>
            <DistanceMeters>NAN</DistanceMeters>
          </Trackpoint>
          <Trackpoint>
            <Time>2019-10-05T09:52:09.000Z</Time>
            <Position>
              <LatitudeDegrees>42.26510913111269474029541015625</LatitudeDegrees>
              <LongitudeDegrees>-5.5733756907284259796142578125</LongitudeDegrees>
            </Position>
            <AltitudeMeters>645.20001220703125</AltitudeMeters>
            <DistanceMeters>NAN</DistanceMeters>
          </Trackpoint>
          <Trackpoint>
            <Time>2019-10-05T09:52:10.000Z</Time>
            <Position>
              <LatitudeDegrees>42.26505733095109462738037109375</LatitudeDegrees>
              <LongitudeDegrees>-5.573366470634937286376953125</LongitudeDegrees>
            </Position>
            <AltitudeMeters>645</AltitudeMeters>
            <DistanceMeters>NAN</DistanceMeters>
          </Trackpoint>
          <Trackpoint>
            <Time>2019-10-05T09:52:18.000Z</Time>
            <Position>
              <LatitudeDegrees>42.2646508924663066864013671875</LatitudeDegrees>
              <LongitudeDegrees>-5.57330871932208538055419921875</LongitudeDegrees>
            </Position>
            <AltitudeMeters>645.20001220703125</AltitudeMeters>
            <DistanceMeters>NAN</DistanceMeters>
          </Trackpoint>
          <Trackpoint>
            <Time>2019-10-05T09:52:24.000Z</Time>
            <Position>
              <LatitudeDegrees>42.26433112286031246185302734375</LatitudeDegrees>
              <LongitudeDegrees>-5.57326647453010082244873046875</LongitudeDegrees>
            </Position>
            <AltitudeMeters>645.4000244140625</AltitudeMeters>
            <DistanceMeters>NAN</DistanceMeters>
          </Trackpoint>
          <Trackpoint>
            <Time>2019-10-05T09:52:26.000Z</Time>
            <Position>
              <LatitudeDegrees>42.26422383449971675872802734375</LatitudeDegrees>
              <LongitudeDegrees>-5.5732539854943752288818359375</LongitudeDegrees>
            </Position>
            <AltitudeMeters>645</AltitudeMeters>
            <DistanceMeters>NAN</DistanceMeters>
          </Trackpoint>
          <Trackpoint>
            <Time>2019-10-05T09:52:35.000Z</Time>
            <Position>
              <LatitudeDegrees>42.26373919285833835601806640625</LatitudeDegrees>
              <LongitudeDegrees>-5.57318852283060550689697265625</LongitudeDegrees>
            </Position>
            <AltitudeMeters>645.20001220703125</AltitudeMeters>
            <DistanceMeters>NAN</DistanceMeters>
          </Trackpoint>
          <Trackpoint>
            <Time>2019-10-05T09:52:36.000Z</Time>
            <Position>
              <LatitudeDegrees>42.26368403993546962738037109375</LatitudeDegrees>
              <LongitudeDegrees>-5.57317913509905338287353515625</LongitudeDegrees>
            </Position>
            <AltitudeMeters>645.20001220703125</AltitudeMeters>
            <DistanceMeters>NAN</DistanceMeters>
          </Trackpoint>
          <Trackpoint>
            <Time>2019-10-05T09:52:45.000Z</Time>
            <Position>
              <LatitudeDegrees>42.26319051347672939300537109375</LatitudeDegrees>
              <LongitudeDegrees>-5.5731202103197574615478515625</LongitudeDegrees>
            </Position>
            <AltitudeMeters>645.79998779296875</AltitudeMeters>
            <DistanceMeters>NAN</DistanceMeters>
          </Trackpoint>
          <Trackpoint>
            <Time>2019-10-05T09:52:54.000Z</Time>
            <Position>
              <LatitudeDegrees>42.262690700590610504150390625</LatitudeDegrees>
              <LongitudeDegrees>-5.5730548314750194549560546875</LongitudeDegrees>
            </Position>
            <AltitudeMeters>645</AltitudeMeters>
            <DistanceMeters>NAN</DistanceMeters>
          </Trackpoint>
          <Trackpoint>
            <Time>2019-10-05T09:53:04.000Z</Time>
            <Position>
              <LatitudeDegrees>42.26213322021067142486572265625</LatitudeDegrees>
              <LongitudeDegrees>-5.5729827471077442169189453125</LongitudeDegrees>
            </Position>
            <AltitudeMeters>645.5999755859375</AltitudeMeters>
            <DistanceMeters>NAN</DistanceMeters>
          </Trackpoint>
          <Trackpoint>
            <Time>2019-10-05T09:53:06.000Z</Time>
            <Position>
              <LatitudeDegrees>42.2620183043181896209716796875</LatitudeDegrees>
              <LongitudeDegrees>-5.572966150939464569091796875</LongitudeDegrees>
            </Position>
            <AltitudeMeters>645.20001220703125</AltitudeMeters>
            <DistanceMeters>NAN</DistanceMeters>
          </Trackpoint>
          <Trackpoint>
            <Time>2019-10-05T09:53:16.000Z</Time>
            <Position>
              <LatitudeDegrees>42.2614416293799877166748046875</LatitudeDegrees>
              <LongitudeDegrees>-5.5728851817548274993896484375</LongitudeDegrees>
            </Position>
            <AltitudeMeters>645.20001220703125</AltitudeMeters>
            <DistanceMeters>NAN</DistanceMeters>
          </Trackpoint>
          <Trackpoint>
            <Time>2019-10-05T09:53:17.000Z</Time>
            <Position>
              <LatitudeDegrees>42.26132537238299846649169921875</LatitudeDegrees>
              <LongitudeDegrees>-5.57287386618554592132568359375</LongitudeDegrees>
            </Position>
            <AltitudeMeters>645.20001220703125</AltitudeMeters>
            <DistanceMeters>NAN</DistanceMeters>
          </Trackpoint>
          <Trackpoint>
            <Time>2019-10-05T09:53:27.000Z</Time>
            <Position>
              <LatitudeDegrees>42.26081709377467632293701171875</LatitudeDegrees>
              <LongitudeDegrees>-5.57280999608337879180908203125</LongitudeDegrees>
            </Position>
            <AltitudeMeters>645.20001220703125</AltitudeMeters>
            <DistanceMeters>NAN</DistanceMeters>
          </Trackpoint>
          <Trackpoint>
            <Time>2019-10-05T09:53:33.000Z</Time>
            <Position>
              <LatitudeDegrees>42.2604736872017383575439453125</LatitudeDegrees>
              <LongitudeDegrees>-5.57276305742561817169189453125</LongitudeDegrees>
            </Position>
            <AltitudeMeters>645.20001220703125</AltitudeMeters>
            <DistanceMeters>NAN</DistanceMeters>
          </Trackpoint>
          <Trackpoint>
            <Time>2019-10-05T09:53:37.000Z</Time>
            <Position>
              <LatitudeDegrees>42.2602393291890621185302734375</LatitudeDegrees>
              <LongitudeDegrees>-5.57273087091743946075439453125</LongitudeDegrees>
            </Position>
            <AltitudeMeters>645.4000244140625</AltitudeMeters>
            <DistanceMeters>NAN</DistanceMeters>
          </Trackpoint>
          <Trackpoint>
            <Time>2019-10-05T09:53:40.000Z</Time>
            <Position>
              <LatitudeDegrees>42.26006691344082355499267578125</LatitudeDegrees>
              <LongitudeDegrees>-5.57270891033113002777099609375</LongitudeDegrees>
            </Position>
            <AltitudeMeters>644.79998779296875</AltitudeMeters>
            <DistanceMeters>NAN</DistanceMeters>
          </Trackpoint>
          <Trackpoint>
            <Time>2019-10-05T09:53:42.000Z</Time>
            <Position>
              <LatitudeDegrees>42.2599566914141178131103515625</LatitudeDegrees>
              <LongitudeDegrees>-5.572691224515438079833984375</LongitudeDegrees>
            </Position>
            <AltitudeMeters>644.5999755859375</AltitudeMeters>
            <DistanceMeters>NAN</DistanceMeters>
          </Trackpoint>
          <Trackpoint>
            <Time>2019-10-05T09:53:51.000Z</Time>
            <Position>
              <LatitudeDegrees>42.2594527713954448699951171875</LatitudeDegrees>
              <LongitudeDegrees>-5.572614781558513641357421875</LongitudeDegrees>
            </Position>
            <AltitudeMeters>644.5999755859375</AltitudeMeters>
            <DistanceMeters>NAN</DistanceMeters>
          </Trackpoint>
          <Trackpoint>
            <Time>2019-10-05T09:54:01.000Z</Time>
            <Position>
              <LatitudeDegrees>42.25887265987694263458251953125</LatitudeDegrees>
              <LongitudeDegrees>-5.5725418590009212493896484375</LongitudeDegrees>
            </Position>
            <AltitudeMeters>644.79998779296875</AltitudeMeters>
            <DistanceMeters>NAN</DistanceMeters>
          </Trackpoint>
          <Trackpoint>
            <Time>2019-10-05T09:54:11.000Z</Time>
            <Position>
              <LatitudeDegrees>42.2583114914596080780029296875</LatitudeDegrees>
              <LongitudeDegrees>-5.57246583513915538787841796875</LongitudeDegrees>
            </Position>
            <AltitudeMeters>644.20001220703125</AltitudeMeters>
            <DistanceMeters>NAN</DistanceMeters>
          </Trackpoint>
          <Trackpoint>
            <Time>2019-10-05T09:54:15.000Z</Time>
            <Position>
              <LatitudeDegrees>42.258090041577816009521484375</LatitudeDegrees>
              <LongitudeDegrees>-5.572431050240993499755859375</LongitudeDegrees>
            </Position>
            <AltitudeMeters>644</AltitudeMeters>
            <DistanceMeters>NAN</DistanceMeters>
          </Trackpoint>
          <Trackpoint>
            <Time>2019-10-05T09:54:25.000Z</Time>
            <Position>
              <LatitudeDegrees>42.25753457285463809967041015625</LatitudeDegrees>
              <LongitudeDegrees>-5.57235603220760822296142578125</LongitudeDegrees>
            </Position>
            <AltitudeMeters>645.20001220703125</AltitudeMeters>
            <DistanceMeters>NAN</DistanceMeters>
          </Trackpoint>
          <Trackpoint>
            <Time>2019-10-05T09:54:26.000Z</Time>
            <Position>
              <LatitudeDegrees>42.2574828565120697021484375</LatitudeDegrees>
              <LongitudeDegrees>-5.57234832085669040679931640625</LongitudeDegrees>
            </Position>
            <AltitudeMeters>645</AltitudeMeters>
            <DistanceMeters>NAN</DistanceMeters>
          </Trackpoint>
          <Trackpoint>
            <Time>2019-10-05T09:54:35.000Z</Time>
            <Position>
              <LatitudeDegrees>42.2569848038256168365478515625</LatitudeDegrees>
              <LongitudeDegrees>-5.5722840316593647003173828125</LongitudeDegrees>
            </Position>
            <AltitudeMeters>644.4000244140625</AltitudeMeters>
            <DistanceMeters>NAN</DistanceMeters>
          </Trackpoint>
          <Trackpoint>
            <Time>2019-10-05T09:54:44.000Z</Time>
            <Position>
              <LatitudeDegrees>42.25649245083332061767578125</LatitudeDegrees>
              <LongitudeDegrees>-5.57221873663365840911865234375</LongitudeDegrees>
            </Position>
            <AltitudeMeters>644.20001220703125</AltitudeMeters>
            <DistanceMeters>NAN</DistanceMeters>
          </Trackpoint>
          <Trackpoint>
            <Time>2019-10-05T09:54:51.000Z</Time>
            <Position>
              <LatitudeDegrees>42.25610210560262203216552734375</LatitudeDegrees>
              <LongitudeDegrees>-5.57216458953917026519775390625</LongitudeDegrees>
            </Position>
            <AltitudeMeters>644.20001220703125</AltitudeMeters>
            <DistanceMeters>NAN</DistanceMeters>
          </Trackpoint>
          <Trackpoint>
            <Time>2019-10-05T09:54:54.000Z</Time>
            <Position>
              <LatitudeDegrees>42.2559387423098087310791015625</LatitudeDegrees>
              <LongitudeDegrees>-5.57214765809476375579833984375</LongitudeDegrees>
            </Position>
            <AltitudeMeters>644</AltitudeMeters>
            <DistanceMeters>NAN</DistanceMeters>
          </Trackpoint>
          <Trackpoint>
            <Time>2019-10-05T09:55:04.000Z</Time>
            <Position>
              <LatitudeDegrees>42.2553811781108379364013671875</LatitudeDegrees>
              <LongitudeDegrees>-5.57206928730010986328125</LongitudeDegrees>
            </Position>
            <AltitudeMeters>644.20001220703125</AltitudeMeters>
            <DistanceMeters>NAN</DistanceMeters>
          </Trackpoint>
          <Trackpoint>
            <Time>2019-10-05T09:55:08.000Z</Time>
            <Position>
              <LatitudeDegrees>42.25515863858163356781005859375</LatitudeDegrees>
              <LongitudeDegrees>-5.57204372249543666839599609375</LongitudeDegrees>
            </Position>
            <AltitudeMeters>644.4000244140625</AltitudeMeters>
            <DistanceMeters>NAN</DistanceMeters>
          </Trackpoint>
          <Trackpoint>
            <Time>2019-10-05T09:55:18.000Z</Time>
            <Position>
              <LatitudeDegrees>42.25459772162139415740966796875</LatitudeDegrees>
              <LongitudeDegrees>-5.57196375913918018341064453125</LongitudeDegrees>
            </Position>
            <AltitudeMeters>644.20001220703125</AltitudeMeters>
            <DistanceMeters>NAN</DistanceMeters>
          </Trackpoint>
          <Trackpoint>
            <Time>2019-10-05T09:55:20.000Z</Time>
            <Position>
              <LatitudeDegrees>42.25448255427181720733642578125</LatitudeDegrees>
              <LongitudeDegrees>-5.5719474144279956817626953125</LongitudeDegrees>
            </Position>
            <AltitudeMeters>644</AltitudeMeters>
            <DistanceMeters>NAN</DistanceMeters>
          </Trackpoint>
          <Trackpoint>
            <Time>2019-10-05T09:55:21.000Z</Time>
            <Position>
              <LatitudeDegrees>42.2544269822537899017333984375</LatitudeDegrees>
              <LongitudeDegrees>-5.5719410441815853118896484375</LongitudeDegrees>
            </Position>
            <AltitudeMeters>643.5999755859375</AltitudeMeters>
            <DistanceMeters>NAN</DistanceMeters>
          </Trackpoint>
          <Trackpoint>
            <Time>2019-10-05T09:55:30.000Z</Time>
            <Position>
              <LatitudeDegrees>42.25392146967351436614990234375</LatitudeDegrees>
              <LongitudeDegrees>-5.57187792845070362091064453125</LongitudeDegrees>
            </Position>
            <AltitudeMeters>643.20001220703125</AltitudeMeters>
            <DistanceMeters>NAN</DistanceMeters>
          </Trackpoint>
          <Trackpoint>
            <Time>2019-10-05T09:55:40.000Z</Time>
            <Position>
              <LatitudeDegrees>42.25336675532162189483642578125</LatitudeDegrees>
              <LongitudeDegrees>-5.5718052573502063751220703125</LongitudeDegrees>
            </Position>
            <AltitudeMeters>643.20001220703125</AltitudeMeters>
            <DistanceMeters>NAN</DistanceMeters>
          </Trackpoint>
          <Trackpoint>
            <Time>2019-10-05T09:55:47.000Z</Time>
            <Position>
              <LatitudeDegrees>42.2529792599380016326904296875</LatitudeDegrees>
              <LongitudeDegrees>-5.57175203226506710052490234375</LongitudeDegrees>
            </Position>
            <AltitudeMeters>642.4000244140625</AltitudeMeters>
            <DistanceMeters>NAN</DistanceMeters>
          </Trackpoint>
          <Trackpoint>
            <Time>2019-10-05T09:55:49.000Z</Time>
            <Position>
              <LatitudeDegrees>42.2528667747974395751953125</LatitudeDegrees>
              <LongitudeDegrees>-5.57174297980964183807373046875</LongitudeDegrees>
            </Position>
            <AltitudeMeters>642.4000244140625</AltitudeMeters>
            <DistanceMeters>NAN</DistanceMeters>
          </Trackpoint>
          <Trackpoint>
            <Time>2019-10-05T09:55:57.000Z</Time>
            <Position>
              <LatitudeDegrees>42.2524320892989635467529296875</LatitudeDegrees>
              <LongitudeDegrees>-5.571678020060062408447265625</LongitudeDegrees>
            </Position>
            <AltitudeMeters>642.79998779296875</AltitudeMeters>
            <DistanceMeters>NAN</DistanceMeters>
          </Trackpoint>
          <Trackpoint>
            <Time>2019-10-05T09:56:05.000Z</Time>
            <Position>
              <LatitudeDegrees>42.25198105908930301666259765625</LatitudeDegrees>
              <LongitudeDegrees>-5.57162680663168430328369140625</LongitudeDegrees>
            </Position>
            <AltitudeMeters>642.5999755859375</AltitudeMeters>
            <DistanceMeters>NAN</DistanceMeters>
          </Trackpoint>
          <Trackpoint>
            <Time>2019-10-05T09:56:06.000Z</Time>
            <Position>
              <LatitudeDegrees>42.25192490033805370330810546875</LatitudeDegrees>
              <LongitudeDegrees>-5.5716215260326862335205078125</LongitudeDegrees>
            </Position>
            <AltitudeMeters>642.5999755859375</AltitudeMeters>
            <DistanceMeters>NAN</DistanceMeters>
          </Trackpoint>
          <Trackpoint>
            <Time>2019-10-05T09:56:14.000Z</Time>
            <Position>
              <LatitudeDegrees>42.2514849342405796051025390625</LatitudeDegrees>
              <LongitudeDegrees>-5.57155053131282329559326171875</LongitudeDegrees>
            </Position>
            <AltitudeMeters>641.79998779296875</AltitudeMeters>
            <DistanceMeters>NAN</DistanceMeters>
          </Trackpoint>
          <Trackpoint>
            <Time>2019-10-05T09:56:22.000Z</Time>
            <Position>
              <LatitudeDegrees>42.25104714743793010711669921875</LatitudeDegrees>
              <LongitudeDegrees>-5.57149328291416168212890625</LongitudeDegrees>
            </Position>
            <AltitudeMeters>642.4000244140625</AltitudeMeters>
            <DistanceMeters>NAN</DistanceMeters>
          </Trackpoint>
          <Trackpoint>
            <Time>2019-10-05T09:56:29.000Z</Time>
            <Position>
              <LatitudeDegrees>42.25065730512142181396484375</LatitudeDegrees>
              <LongitudeDegrees>-5.57144374586641788482666015625</LongitudeDegrees>
            </Position>
            <AltitudeMeters>642.79998779296875</AltitudeMeters>
            <DistanceMeters>NAN</DistanceMeters>
          </Trackpoint>
          <Trackpoint>
            <Time>2019-10-05T09:56:36.000Z</Time>
            <Position>
              <LatitudeDegrees>42.25026570260524749755859375</LatitudeDegrees>
              <LongitudeDegrees>-5.571399070322513580322265625</LongitudeDegrees>
            </Position>
            <AltitudeMeters>642.4000244140625</AltitudeMeters>
            <DistanceMeters>NAN</DistanceMeters>
          </Trackpoint>
          <Trackpoint>
            <Time>2019-10-05T09:56:44.000Z</Time>
            <Position>
              <LatitudeDegrees>42.24982053972780704498291015625</LatitudeDegrees>
              <LongitudeDegrees>-5.5713325180113315582275390625</LongitudeDegrees>
            </Position>
            <AltitudeMeters>643</AltitudeMeters>
            <DistanceMeters>NAN</DistanceMeters>
          </Trackpoint>
          <Trackpoint>
            <Time>2019-10-05T09:56:51.000Z</Time>
            <Position>
              <LatitudeDegrees>42.24943019449710845947265625</LatitudeDegrees>
              <LongitudeDegrees>-5.57127459906041622161865234375</LongitudeDegrees>
            </Position>
            <AltitudeMeters>642.4000244140625</AltitudeMeters>
            <DistanceMeters>NAN</DistanceMeters>
          </Trackpoint>
          <Trackpoint>
            <Time>2019-10-05T09:57:00.000Z</Time>
            <Position>
              <LatitudeDegrees>42.24892870523035526275634765625</LatitudeDegrees>
              <LongitudeDegrees>-5.57120502926409244537353515625</LongitudeDegrees>
            </Position>
            <AltitudeMeters>641.4000244140625</AltitudeMeters>
            <DistanceMeters>NAN</DistanceMeters>
          </Trackpoint>
          <Trackpoint>
            <Time>2019-10-05T09:57:01.000Z</Time>
            <Position>
              <LatitudeDegrees>42.24887363612651824951171875</LatitudeDegrees>
              <LongitudeDegrees>-5.57119689881801605224609375</LongitudeDegrees>
            </Position>
            <AltitudeMeters>641.5999755859375</AltitudeMeters>
            <DistanceMeters>NAN</DistanceMeters>
          </Trackpoint>
          <Trackpoint>
            <Time>2019-10-05T09:57:08.000Z</Time>
            <Position>
              <LatitudeDegrees>42.24848664365708827972412109375</LatitudeDegrees>
              <LongitudeDegrees>-5.57114065624773502349853515625</LongitudeDegrees>
            </Position>
            <AltitudeMeters>642.4000244140625</AltitudeMeters>
            <DistanceMeters>NAN</DistanceMeters>
          </Trackpoint>
          <Trackpoint>
            <Time>2019-10-05T09:57:12.000Z</Time>
            <Position>
              <LatitudeDegrees>42.24826209247112274169921875</LatitudeDegrees>
              <LongitudeDegrees>-5.5711135827004909515380859375</LongitudeDegrees>
            </Position>
            <AltitudeMeters>642.20001220703125</AltitudeMeters>
            <DistanceMeters>NAN</DistanceMeters>
          </Trackpoint>
          <Trackpoint>
            <Time>2019-10-05T09:57:22.000Z</Time>
            <Position>
              <LatitudeDegrees>42.24769748747348785400390625</LatitudeDegrees>
              <LongitudeDegrees>-5.571036972105503082275390625</LongitudeDegrees>
            </Position>
            <AltitudeMeters>642</AltitudeMeters>
            <DistanceMeters>NAN</DistanceMeters>
          </Trackpoint>
          <Trackpoint>
            <Time>2019-10-05T09:57:23.000Z</Time>
            <Position>
              <LatitudeDegrees>42.247642166912555694580078125</LatitudeDegrees>
              <LongitudeDegrees>-5.57102859020233154296875</LongitudeDegrees>
            </Position>
            <AltitudeMeters>642.20001220703125</AltitudeMeters>
            <DistanceMeters>NAN</DistanceMeters>
          </Trackpoint>
          <Trackpoint>
            <Time>2019-10-05T09:57:26.000Z</Time>
            <Position>
              <LatitudeDegrees>42.247467823326587677001953125</LatitudeDegrees>
              <LongitudeDegrees>-5.571013502776622772216796875</LongitudeDegrees>
            </Position>
            <AltitudeMeters>642.5999755859375</AltitudeMeters>
            <DistanceMeters>NAN</DistanceMeters>
          </Trackpoint>
          <Trackpoint>
            <Time>2019-10-05T09:57:30.000Z</Time>
            <Position>
              <LatitudeDegrees>42.24723120220005512237548828125</LatitudeDegrees>
              <LongitudeDegrees>-5.57097687385976314544677734375</LongitudeDegrees>
            </Position>
            <AltitudeMeters>642.4000244140625</AltitudeMeters>
            <DistanceMeters>NAN</DistanceMeters>
          </Trackpoint>
          <Trackpoint>
            <Time>2019-10-05T09:57:36.000Z</Time>
            <Position>
              <LatitudeDegrees>42.24689274094998836517333984375</LatitudeDegrees>
              <LongitudeDegrees>-5.57093043811619281768798828125</LongitudeDegrees>
            </Position>
            <AltitudeMeters>642</AltitudeMeters>
            <DistanceMeters>NAN</DistanceMeters>
          </Trackpoint>
          <Trackpoint>
            <Time>2019-10-05T09:57:44.000Z</Time>
            <Position>
              <LatitudeDegrees>42.24644162692129611968994140625</LatitudeDegrees>
              <LongitudeDegrees>-5.5708782188594341278076171875</LongitudeDegrees>
            </Position>
            <AltitudeMeters>642.4000244140625</AltitudeMeters>
            <DistanceMeters>NAN</DistanceMeters>
          </Trackpoint>
          <Trackpoint>
            <Time>2019-10-05T09:57:53.000Z</Time>
            <Position>
              <LatitudeDegrees>42.24594424478709697723388671875</LatitudeDegrees>
              <LongitudeDegrees>-5.57083454914391040802001953125</LongitudeDegrees>
            </Position>
            <AltitudeMeters>641.79998779296875</AltitudeMeters>
            <DistanceMeters>NAN</DistanceMeters>
          </Trackpoint>
          <Trackpoint>
            <Time>2019-10-05T09:57:59.000Z</Time>
            <Position>
              <LatitudeDegrees>42.24562120623886585235595703125</LatitudeDegrees>
              <LongitudeDegrees>-5.57092331349849700927734375</LongitudeDegrees>
            </Position>
            <AltitudeMeters>642.4000244140625</AltitudeMeters>
            <DistanceMeters>NAN</DistanceMeters>
          </Trackpoint>
          <Trackpoint>
            <Time>2019-10-05T09:58:03.000Z</Time>
            <Position>
              <LatitudeDegrees>42.2454264946281909942626953125</LatitudeDegrees>
              <LongitudeDegrees>-5.57104744948446750640869140625</LongitudeDegrees>
            </Position>
            <AltitudeMeters>641.79998779296875</AltitudeMeters>
            <DistanceMeters>NAN</DistanceMeters>
          </Trackpoint>
          <Trackpoint>
            <Time>2019-10-05T09:58:05.000Z</Time>
            <Position>
              <LatitudeDegrees>42.24532096646726131439208984375</LatitudeDegrees>
              <LongitudeDegrees>-5.57108416222035884857177734375</LongitudeDegrees>
            </Position>
            <AltitudeMeters>642</AltitudeMeters>
            <DistanceMeters>NAN</DistanceMeters>
          </Trackpoint>
          <Trackpoint>
            <Time>2019-10-05T09:58:08.000Z</Time>
            <Position>
              <LatitudeDegrees>42.245170176029205322265625</LatitudeDegrees>
              <LongitudeDegrees>-5.57101308368146419525146484375</LongitudeDegrees>
            </Position>
            <AltitudeMeters>642</AltitudeMeters>
            <DistanceMeters>NAN</DistanceMeters>
          </Trackpoint>
          <Trackpoint>
            <Time>2019-10-05T09:58:10.000Z</Time>
            <Position>
              <LatitudeDegrees>42.24508878774940967559814453125</LatitudeDegrees>
              <LongitudeDegrees>-5.570907555520534515380859375</LongitudeDegrees>
            </Position>
            <AltitudeMeters>642.4000244140625</AltitudeMeters>
            <DistanceMeters>NAN</DistanceMeters>
          </Trackpoint>
          <Trackpoint>
            <Time>2019-10-05T09:58:12.000Z</Time>
            <Position>
              <LatitudeDegrees>42.24500228650867938995361328125</LatitudeDegrees>
              <LongitudeDegrees>-5.57081066071987152099609375</LongitudeDegrees>
            </Position>
            <AltitudeMeters>642.4000244140625</AltitudeMeters>
            <DistanceMeters>NAN</DistanceMeters>
          </Trackpoint>
          <Trackpoint>
            <Time>2019-10-05T09:58:13.000Z</Time>
            <Position>
              <LatitudeDegrees>42.24495165981352329254150390625</LatitudeDegrees>
              <LongitudeDegrees>-5.57077034376561641693115234375</LongitudeDegrees>
            </Position>
            <AltitudeMeters>642</AltitudeMeters>
            <DistanceMeters>NAN</DistanceMeters>
          </Trackpoint>
          <Trackpoint>
            <Time>2019-10-05T09:58:17.000Z</Time>
            <Position>
              <LatitudeDegrees>42.24473641254007816314697265625</LatitudeDegrees>
              <LongitudeDegrees>-5.5706592835485935211181640625</LongitudeDegrees>
            </Position>
            <AltitudeMeters>641.5999755859375</AltitudeMeters>
            <DistanceMeters>NAN</DistanceMeters>
          </Trackpoint>
          <Trackpoint>
            <Time>2019-10-05T09:58:18.000Z</Time>
            <Position>
              <LatitudeDegrees>42.24468042142689228057861328125</LatitudeDegrees>
              <LongitudeDegrees>-5.5706455372273921966552734375</LongitudeDegrees>
            </Position>
            <AltitudeMeters>642</AltitudeMeters>
            <DistanceMeters>NAN</DistanceMeters>
          </Trackpoint>
          <Trackpoint>
            <Time>2019-10-05T09:58:27.000Z</Time>
            <Position>
              <LatitudeDegrees>42.24416124634444713592529296875</LatitudeDegrees>
              <LongitudeDegrees>-5.57056255638599395751953125</LongitudeDegrees>
            </Position>
            <AltitudeMeters>642.20001220703125</AltitudeMeters>
            <DistanceMeters>NAN</DistanceMeters>
          </Trackpoint>
          <Trackpoint>
            <Time>2019-10-05T09:58:32.000Z</Time>
            <Position>
              <LatitudeDegrees>42.24387307651340961456298828125</LatitudeDegrees>
              <LongitudeDegrees>-5.57051989249885082244873046875</LongitudeDegrees>
            </Position>
            <AltitudeMeters>641.79998779296875</AltitudeMeters>
            <DistanceMeters>NAN</DistanceMeters>
          </Trackpoint>
          <Trackpoint>
            <Time>2019-10-05T09:58:39.000Z</Time>
            <Position>
              <LatitudeDegrees>42.2434763610363006591796875</LatitudeDegrees>
              <LongitudeDegrees>-5.5704748816788196563720703125</LongitudeDegrees>
            </Position>
            <AltitudeMeters>641.5999755859375</AltitudeMeters>
            <DistanceMeters>NAN</DistanceMeters>
          </Trackpoint>
          <Trackpoint>
            <Time>2019-10-05T09:58:40.000Z</Time>
            <Position>
              <LatitudeDegrees>42.24342011846601963043212890625</LatitudeDegrees>
              <LongitudeDegrees>-5.570469684898853302001953125</LongitudeDegrees>
            </Position>
            <AltitudeMeters>641.4000244140625</AltitudeMeters>
            <DistanceMeters>NAN</DistanceMeters>
          </Trackpoint>
          <Trackpoint>
            <Time>2019-10-05T09:58:47.000Z</Time>
            <Position>
              <LatitudeDegrees>42.243018709123134613037109375</LatitudeDegrees>
              <LongitudeDegrees>-5.57041905820369720458984375</LongitudeDegrees>
            </Position>
            <AltitudeMeters>641.79998779296875</AltitudeMeters>
            <DistanceMeters>NAN</DistanceMeters>
          </Trackpoint>
          <Trackpoint>
            <Time>2019-10-05T09:58:56.000Z</Time>
            <Position>
              <LatitudeDegrees>42.24250565283000469207763671875</LatitudeDegrees>
              <LongitudeDegrees>-5.57035895995795726776123046875</LongitudeDegrees>
            </Position>
            <AltitudeMeters>641.4000244140625</AltitudeMeters>
            <DistanceMeters>NAN</DistanceMeters>
          </Trackpoint>
          <Trackpoint>
            <Time>2019-10-05T09:59:06.000Z</Time>
            <Position>
              <LatitudeDegrees>42.24193752743303775787353515625</LatitudeDegrees>
              <LongitudeDegrees>-5.57032249867916107177734375</LongitudeDegrees>
            </Position>
            <AltitudeMeters>641.4000244140625</AltitudeMeters>
            <DistanceMeters>NAN</DistanceMeters>
          </Trackpoint>
          <Trackpoint>
            <Time>2019-10-05T09:59:15.000Z</Time>
            <Position>
              <LatitudeDegrees>42.2414273209869861602783203125</LatitudeDegrees>
              <LongitudeDegrees>-5.57033163495361804962158203125</LongitudeDegrees>
            </Position>
            <AltitudeMeters>641.5999755859375</AltitudeMeters>
            <DistanceMeters>NAN</DistanceMeters>
          </Trackpoint>
          <Trackpoint>
            <Time>2019-10-05T09:59:24.000Z</Time>
            <Position>
              <LatitudeDegrees>42.24092348478734493255615234375</LatitudeDegrees>
              <LongitudeDegrees>-5.570401959121227264404296875</LongitudeDegrees>
            </Position>
            <AltitudeMeters>640.79998779296875</AltitudeMeters>
            <DistanceMeters>NAN</DistanceMeters>
          </Trackpoint>
          <Trackpoint>
            <Time>2019-10-05T09:59:33.000Z</Time>
            <Position>
              <LatitudeDegrees>42.2404318861663341522216796875</LatitudeDegrees>
              <LongitudeDegrees>-5.57050044648349285125732421875</LongitudeDegrees>
            </Position>
            <AltitudeMeters>640.79998779296875</AltitudeMeters>
            <DistanceMeters>NAN</DistanceMeters>
          </Trackpoint>
          <Trackpoint>
            <Time>2019-10-05T09:59:37.000Z</Time>
            <Position>
              <LatitudeDegrees>42.2402109391987323760986328125</LatitudeDegrees>
              <LongitudeDegrees>-5.57055844925343990325927734375</LongitudeDegrees>
            </Position>
            <AltitudeMeters>639.79998779296875</AltitudeMeters>
            <DistanceMeters>NAN</DistanceMeters>
          </Trackpoint>
          <Trackpoint>
            <Time>2019-10-05T09:59:43.000Z</Time>
            <Position>
              <LatitudeDegrees>42.23988664336502552032470703125</LatitudeDegrees>
              <LongitudeDegrees>-5.5706482194364070892333984375</LongitudeDegrees>
            </Position>
            <AltitudeMeters>639.79998779296875</AltitudeMeters>
            <DistanceMeters>NAN</DistanceMeters>
          </Trackpoint>
          <Trackpoint>
            <Time>2019-10-05T09:59:53.000Z</Time>
            <Position>
              <LatitudeDegrees>42.239344418048858642578125</LatitudeDegrees>
              <LongitudeDegrees>-5.570817701518535614013671875</LongitudeDegrees>
            </Position>
            <AltitudeMeters>640.4000244140625</AltitudeMeters>
            <DistanceMeters>NAN</DistanceMeters>
          </Trackpoint>
          <Trackpoint>
            <Time>2019-10-05T09:59:55.000Z</Time>
            <Position>
              <LatitudeDegrees>42.23923453129827976226806640625</LatitudeDegrees>
              <LongitudeDegrees>-5.570849217474460601806640625</LongitudeDegrees>
            </Position>
            <AltitudeMeters>640.20001220703125</AltitudeMeters>
            <DistanceMeters>NAN</DistanceMeters>
          </Trackpoint>
          <Trackpoint>
            <Time>2019-10-05T10:00:03.000Z</Time>
            <Position>
              <LatitudeDegrees>42.23879900760948657989501953125</LatitudeDegrees>
              <LongitudeDegrees>-5.57097234763205051422119140625</LongitudeDegrees>
            </Position>
            <AltitudeMeters>640.4000244140625</AltitudeMeters>
            <DistanceMeters>NAN</DistanceMeters>
          </Trackpoint>
          <Trackpoint>
            <Time>2019-10-05T10:00:06.000Z</Time>
            <Position>
              <LatitudeDegrees>42.238634638488292694091796875</LatitudeDegrees>
              <LongitudeDegrees>-5.57101760990917682647705078125</LongitudeDegrees>
            </Position>
            <AltitudeMeters>640.4000244140625</AltitudeMeters>
            <DistanceMeters>NAN</DistanceMeters>
          </Trackpoint>
          <Trackpoint>
            <Time>2019-10-05T10:00:16.000Z</Time>
            <Position>
              <LatitudeDegrees>42.2380789183080196380615234375</LatitudeDegrees>
              <LongitudeDegrees>-5.57117736898362636566162109375</LongitudeDegrees>
            </Position>
            <AltitudeMeters>640.4000244140625</AltitudeMeters>
            <DistanceMeters>NAN</DistanceMeters>
          </Trackpoint>
          <Trackpoint>
            <Time>2019-10-05T10:00:20.000Z</Time>
            <Position>
              <LatitudeDegrees>42.23786124028265476226806640625</LatitudeDegrees>
              <LongitudeDegrees>-5.5712423287332057952880859375</LongitudeDegrees>
            </Position>
            <AltitudeMeters>640</AltitudeMeters>
            <DistanceMeters>NAN</DistanceMeters>
          </Trackpoint>
          <Trackpoint>
            <Time>2019-10-05T10:00:30.000Z</Time>
            <Position>
              <LatitudeDegrees>42.237317673861980438232421875</LatitudeDegrees>
              <LongitudeDegrees>-5.57140485383570194244384765625</LongitudeDegrees>
            </Position>
            <AltitudeMeters>639.5999755859375</AltitudeMeters>
            <DistanceMeters>NAN</DistanceMeters>
          </Trackpoint>
          <Trackpoint>
            <Time>2019-10-05T10:00:32.000Z</Time>
            <Position>
              <LatitudeDegrees>42.23720862530171871185302734375</LatitudeDegrees>
              <LongitudeDegrees>-5.57143586687743663787841796875</LongitudeDegrees>
            </Position>
            <AltitudeMeters>639.5999755859375</AltitudeMeters>
            <DistanceMeters>NAN</DistanceMeters>
          </Trackpoint>
          <Trackpoint>
            <Time>2019-10-05T10:00:41.000Z</Time>
            <Position>
              <LatitudeDegrees>42.23672180436551570892333984375</LatitudeDegrees>
              <LongitudeDegrees>-5.5715762637555599212646484375</LongitudeDegrees>
            </Position>
            <AltitudeMeters>640</AltitudeMeters>
            <DistanceMeters>NAN</DistanceMeters>
          </Trackpoint>
          <Trackpoint>
            <Time>2019-10-05T10:00:51.000Z</Time>
            <Position>
              <LatitudeDegrees>42.236174382269382476806640625</LatitudeDegrees>
              <LongitudeDegrees>-5.5717281438410282135009765625</LongitudeDegrees>
            </Position>
            <AltitudeMeters>640.5999755859375</AltitudeMeters>
            <DistanceMeters>NAN</DistanceMeters>
          </Trackpoint>
          <Trackpoint>
            <Time>2019-10-05T10:00:52.000Z</Time>
            <Position>
              <LatitudeDegrees>42.2361188940703868865966796875</LatitudeDegrees>
              <LongitudeDegrees>-5.5717439018189907073974609375</LongitudeDegrees>
            </Position>
            <AltitudeMeters>640.4000244140625</AltitudeMeters>
            <DistanceMeters>NAN</DistanceMeters>
          </Trackpoint>
          <Trackpoint>
            <Time>2019-10-05T10:00:57.000Z</Time>
            <Position>
              <LatitudeDegrees>42.2358469851315021514892578125</LatitudeDegrees>
              <LongitudeDegrees>-5.57185144163668155670166015625</LongitudeDegrees>
            </Position>
            <AltitudeMeters>640.20001220703125</AltitudeMeters>
            <DistanceMeters>NAN</DistanceMeters>
          </Trackpoint>
          <Trackpoint>
            <Time>2019-10-05T10:00:59.000Z</Time>
            <Position>
              <LatitudeDegrees>42.23575872369110584259033203125</LatitudeDegrees>
              <LongitudeDegrees>-5.57193978689610958099365234375</LongitudeDegrees>
            </Position>
            <AltitudeMeters>640.20001220703125</AltitudeMeters>
            <DistanceMeters>NAN</DistanceMeters>
          </Trackpoint>
          <Trackpoint>
            <Time>2019-10-05T10:01:03.000Z</Time>
            <Position>
              <LatitudeDegrees>42.23559075035154819488525390625</LatitudeDegrees>
              <LongitudeDegrees>-5.57213307358324527740478515625</LongitudeDegrees>
            </Position>
            <AltitudeMeters>639.79998779296875</AltitudeMeters>
            <DistanceMeters>NAN</DistanceMeters>
          </Trackpoint>
          <Trackpoint>
            <Time>2019-10-05T10:01:06.000Z</Time>
            <Position>
              <LatitudeDegrees>42.23542478866875171661376953125</LatitudeDegrees>
              <LongitudeDegrees>-5.57210306636989116668701171875</LongitudeDegrees>
            </Position>
            <AltitudeMeters>640.4000244140625</AltitudeMeters>
            <DistanceMeters>NAN</DistanceMeters>
          </Trackpoint>
          <Trackpoint>
            <Time>2019-10-05T10:01:07.000Z</Time>
            <Position>
              <LatitudeDegrees>42.2353739105165004730224609375</LatitudeDegrees>
              <LongitudeDegrees>-5.57207087986171245574951171875</LongitudeDegrees>
            </Position>
            <AltitudeMeters>640.20001220703125</AltitudeMeters>
            <DistanceMeters>NAN</DistanceMeters>
          </Trackpoint>
          <Trackpoint>
            <Time>2019-10-05T10:01:08.000Z</Time>
            <Position>
              <LatitudeDegrees>42.235320769250392913818359375</LatitudeDegrees>
              <LongitudeDegrees>-5.572044141590595245361328125</LongitudeDegrees>
            </Position>
            <AltitudeMeters>640.20001220703125</AltitudeMeters>
            <DistanceMeters>NAN</DistanceMeters>
          </Trackpoint>
          <Trackpoint>
            <Time>2019-10-05T10:01:11.000Z</Time>
            <Position>
              <LatitudeDegrees>42.23515011370182037353515625</LatitudeDegrees>
              <LongitudeDegrees>-5.57203131727874279022216796875</LongitudeDegrees>
            </Position>
            <AltitudeMeters>640.4000244140625</AltitudeMeters>
            <DistanceMeters>NAN</DistanceMeters>
          </Trackpoint>
          <Trackpoint>
            <Time>2019-10-05T10:01:13.000Z</Time>
            <Position>
              <LatitudeDegrees>42.2350349463522434234619140625</LatitudeDegrees>
              <LongitudeDegrees>-5.57205654680728912353515625</LongitudeDegrees>
            </Position>
            <AltitudeMeters>639.79998779296875</AltitudeMeters>
            <DistanceMeters>NAN</DistanceMeters>
          </Trackpoint>
          <Trackpoint>
            <Time>2019-10-05T10:01:18.000Z</Time>
            <Position>
              <LatitudeDegrees>42.23474987782537937164306640625</LatitudeDegrees>
              <LongitudeDegrees>-5.5721458978950977325439453125</LongitudeDegrees>
            </Position>
            <AltitudeMeters>639.5999755859375</AltitudeMeters>
            <DistanceMeters>NAN</DistanceMeters>
          </Trackpoint>
          <Trackpoint>
            <Time>2019-10-05T10:01:23.000Z</Time>
            <Position>
              <LatitudeDegrees>42.234449051320552825927734375</LatitudeDegrees>
              <LongitudeDegrees>-5.5722344107925891876220703125</LongitudeDegrees>
            </Position>
            <AltitudeMeters>639.5999755859375</AltitudeMeters>
            <DistanceMeters>NAN</DistanceMeters>
          </Trackpoint>
          <Trackpoint>
            <Time>2019-10-05T10:01:29.000Z</Time>
            <Position>
              <LatitudeDegrees>42.23410279490053653717041015625</LatitudeDegrees>
              <LongitudeDegrees>-5.57234480045735836029052734375</LongitudeDegrees>
            </Position>
            <AltitudeMeters>639</AltitudeMeters>
            <DistanceMeters>NAN</DistanceMeters>
          </Trackpoint>
          <Trackpoint>
            <Time>2019-10-05T10:01:31.000Z</Time>
            <Position>
              <LatitudeDegrees>42.23399366252124309539794921875</LatitudeDegrees>
              <LongitudeDegrees>-5.57237380184233188629150390625</LongitudeDegrees>
            </Position>
            <AltitudeMeters>638.79998779296875</AltitudeMeters>
            <DistanceMeters>NAN</DistanceMeters>
          </Trackpoint>
          <Trackpoint>
            <Time>2019-10-05T10:01:38.000Z</Time>
            <Position>
              <LatitudeDegrees>42.23359577357769012451171875</LatitudeDegrees>
              <LongitudeDegrees>-5.57248662225902080535888671875</LongitudeDegrees>
            </Position>
            <AltitudeMeters>639</AltitudeMeters>
            <DistanceMeters>NAN</DistanceMeters>
          </Trackpoint>
          <Trackpoint>
            <Time>2019-10-05T10:01:46.000Z</Time>
            <Position>
              <LatitudeDegrees>42.2331332601606845855712890625</LatitudeDegrees>
              <LongitudeDegrees>-5.5726204812526702880859375</LongitudeDegrees>
            </Position>
            <AltitudeMeters>638.79998779296875</AltitudeMeters>
            <DistanceMeters>NAN</DistanceMeters>
          </Trackpoint>
          <Trackpoint>
            <Time>2019-10-05T10:01:53.000Z</Time>
            <Position>
              <LatitudeDegrees>42.2327232174575328826904296875</LatitudeDegrees>
              <LongitudeDegrees>-5.57273958809673786163330078125</LongitudeDegrees>
            </Position>
            <AltitudeMeters>639</AltitudeMeters>
            <DistanceMeters>NAN</DistanceMeters>
          </Trackpoint>
          <Trackpoint>
            <Time>2019-10-05T10:01:56.000Z</Time>
            <Position>
              <LatitudeDegrees>42.23254392854869365692138671875</LatitudeDegrees>
              <LongitudeDegrees>-5.5727970041334629058837890625</LongitudeDegrees>
            </Position>
            <AltitudeMeters>639.4000244140625</AltitudeMeters>
            <DistanceMeters>NAN</DistanceMeters>
          </Trackpoint>
          <Trackpoint>
            <Time>2019-10-05T10:02:05.000Z</Time>
            <Position>
              <LatitudeDegrees>42.2320067323744297027587890625</LatitudeDegrees>
              <LongitudeDegrees>-5.5729505605995655059814453125</LongitudeDegrees>
            </Position>
            <AltitudeMeters>638.5999755859375</AltitudeMeters>
            <DistanceMeters>NAN</DistanceMeters>
          </Trackpoint>
          <Trackpoint>
            <Time>2019-10-05T10:02:13.000Z</Time>
            <Position>
              <LatitudeDegrees>42.231539525091648101806640625</LatitudeDegrees>
              <LongitudeDegrees>-5.57308676652610301971435546875</LongitudeDegrees>
            </Position>
            <AltitudeMeters>638.4000244140625</AltitudeMeters>
            <DistanceMeters>NAN</DistanceMeters>
          </Trackpoint>
          <Trackpoint>
            <Time>2019-10-05T10:02:14.000Z</Time>
            <Position>
              <LatitudeDegrees>42.23148110322654247283935546875</LatitudeDegrees>
              <LongitudeDegrees>-5.5731021054089069366455078125</LongitudeDegrees>
            </Position>
            <AltitudeMeters>638.20001220703125</AltitudeMeters>
            <DistanceMeters>NAN</DistanceMeters>
          </Trackpoint>
          <Trackpoint>
            <Time>2019-10-05T10:02:23.000Z</Time>
            <Position>
              <LatitudeDegrees>42.23095622844994068145751953125</LatitudeDegrees>
              <LongitudeDegrees>-5.57325423695147037506103515625</LongitudeDegrees>
            </Position>
            <AltitudeMeters>638.4000244140625</AltitudeMeters>
            <DistanceMeters>NAN</DistanceMeters>
          </Trackpoint>
          <Trackpoint>
            <Time>2019-10-05T10:02:25.000Z</Time>
            <Position>
              <LatitudeDegrees>42.23084022291004657745361328125</LatitudeDegrees>
              <LongitudeDegrees>-5.57329237461090087890625</LongitudeDegrees>
            </Position>
            <AltitudeMeters>638.20001220703125</AltitudeMeters>
            <DistanceMeters>NAN</DistanceMeters>
          </Trackpoint>
          <Trackpoint>
            <Time>2019-10-05T10:02:34.000Z</Time>
            <Position>
              <LatitudeDegrees>42.23031417466700077056884765625</LatitudeDegrees>
              <LongitudeDegrees>-5.5734407342970371246337890625</LongitudeDegrees>
            </Position>
            <AltitudeMeters>638</AltitudeMeters>
            <DistanceMeters>NAN</DistanceMeters>
          </Trackpoint>
          <Trackpoint>
            <Time>2019-10-05T10:02:35.000Z</Time>
            <Position>
              <LatitudeDegrees>42.23025516606867313385009765625</LatitudeDegrees>
              <LongitudeDegrees>-5.5734568275511264801025390625</LongitudeDegrees>
            </Position>
            <AltitudeMeters>637.5999755859375</AltitudeMeters>
            <DistanceMeters>NAN</DistanceMeters>
          </Trackpoint>
          <Trackpoint>
            <Time>2019-10-05T10:02:44.000Z</Time>
            <Position>
              <LatitudeDegrees>42.2297365777194499969482421875</LatitudeDegrees>
              <LongitudeDegrees>-5.5736113898456096649169921875</LongitudeDegrees>
            </Position>
            <AltitudeMeters>637.5999755859375</AltitudeMeters>
            <DistanceMeters>NAN</DistanceMeters>
          </Trackpoint>
          <Trackpoint>
            <Time>2019-10-05T10:02:53.000Z</Time>
            <Position>
              <LatitudeDegrees>42.22920860163867473602294921875</LatitudeDegrees>
              <LongitudeDegrees>-5.57376402430236339569091796875</LongitudeDegrees>
            </Position>
            <AltitudeMeters>638.20001220703125</AltitudeMeters>
            <DistanceMeters>NAN</DistanceMeters>
          </Trackpoint>
          <Trackpoint>
            <Time>2019-10-05T10:02:54.000Z</Time>
            <Position>
              <LatitudeDegrees>42.22914892248809337615966796875</LatitudeDegrees>
              <LongitudeDegrees>-5.57378179393708705902099609375</LongitudeDegrees>
            </Position>
            <AltitudeMeters>637.79998779296875</AltitudeMeters>
            <DistanceMeters>NAN</DistanceMeters>
          </Trackpoint>
          <Trackpoint>
            <Time>2019-10-05T10:03:03.000Z</Time>
            <Position>
              <LatitudeDegrees>42.22860359586775302886962890625</LatitudeDegrees>
              <LongitudeDegrees>-5.57393945753574371337890625</LongitudeDegrees>
            </Position>
            <AltitudeMeters>637.4000244140625</AltitudeMeters>
            <DistanceMeters>NAN</DistanceMeters>
          </Trackpoint>
          <Trackpoint>
            <Time>2019-10-05T10:03:04.000Z</Time>
            <Position>
              <LatitudeDegrees>42.2285429947078227996826171875</LatitudeDegrees>
              <LongitudeDegrees>-5.5739573948085308074951171875</LongitudeDegrees>
            </Position>
            <AltitudeMeters>637.5999755859375</AltitudeMeters>
            <DistanceMeters>NAN</DistanceMeters>
          </Trackpoint>
          <Trackpoint>
            <Time>2019-10-05T10:03:13.000Z</Time>
            <Position>
              <LatitudeDegrees>42.2279891185462474822998046875</LatitudeDegrees>
              <LongitudeDegrees>-5.57411807589232921600341796875</LongitudeDegrees>
            </Position>
            <AltitudeMeters>636.79998779296875</AltitudeMeters>
            <DistanceMeters>NAN</DistanceMeters>
          </Trackpoint>
          <Trackpoint>
            <Time>2019-10-05T10:03:14.000Z</Time>
            <Position>
              <LatitudeDegrees>42.2279280982911586761474609375</LatitudeDegrees>
              <LongitudeDegrees>-5.57413584552705287933349609375</LongitudeDegrees>
            </Position>
            <AltitudeMeters>636.5999755859375</AltitudeMeters>
            <DistanceMeters>NAN</DistanceMeters>
          </Trackpoint>
          <Trackpoint>
            <Time>2019-10-05T10:03:21.000Z</Time>
            <Position>
              <LatitudeDegrees>42.2275064885616302490234375</LatitudeDegrees>
              <LongitudeDegrees>-5.57425805367529392242431640625</LongitudeDegrees>
            </Position>
            <AltitudeMeters>636.5999755859375</AltitudeMeters>
            <DistanceMeters>NAN</DistanceMeters>
          </Trackpoint>
          <Trackpoint>
            <Time>2019-10-05T10:03:23.000Z</Time>
            <Position>
              <LatitudeDegrees>42.227386794984340667724609375</LatitudeDegrees>
              <LongitudeDegrees>-5.5742946825921535491943359375</LongitudeDegrees>
            </Position>
            <AltitudeMeters>636.5999755859375</AltitudeMeters>
            <DistanceMeters>NAN</DistanceMeters>
          </Trackpoint>
          <Trackpoint>
            <Time>2019-10-05T10:03:32.000Z</Time>
            <Position>
              <LatitudeDegrees>42.22684792242944240570068359375</LatitudeDegrees>
              <LongitudeDegrees>-5.57445402257144451141357421875</LongitudeDegrees>
            </Position>
            <AltitudeMeters>636</AltitudeMeters>
            <DistanceMeters>NAN</DistanceMeters>
          </Trackpoint>
          <Trackpoint>
            <Time>2019-10-05T10:03:41.000Z</Time>
            <Position>
              <LatitudeDegrees>42.22629337571561336517333984375</LatitudeDegrees>
              <LongitudeDegrees>-5.57461403310298919677734375</LongitudeDegrees>
            </Position>
            <AltitudeMeters>635.79998779296875</AltitudeMeters>
            <DistanceMeters>NAN</DistanceMeters>
          </Trackpoint>
          <Trackpoint>
            <Time>2019-10-05T10:03:42.000Z</Time>
            <Position>
              <LatitudeDegrees>42.22623185254633426666259765625</LatitudeDegrees>
              <LongitudeDegrees>-5.5746321380138397216796875</LongitudeDegrees>
            </Position>
            <AltitudeMeters>636.20001220703125</AltitudeMeters>
            <DistanceMeters>NAN</DistanceMeters>
          </Trackpoint>
          <Trackpoint>
            <Time>2019-10-05T10:03:45.000Z</Time>
            <Position>
              <LatitudeDegrees>42.226047702133655548095703125</LatitudeDegrees>
              <LongitudeDegrees>-5.57468754239380359649658203125</LongitudeDegrees>
            </Position>
            <AltitudeMeters>635.4000244140625</AltitudeMeters>
            <DistanceMeters>NAN</DistanceMeters>
          </Trackpoint>
          <Trackpoint>
            <Time>2019-10-05T10:03:50.000Z</Time>
            <Position>
              <LatitudeDegrees>42.22574570216238498687744140625</LatitudeDegrees>
              <LongitudeDegrees>-5.57478091679513454437255859375</LongitudeDegrees>
            </Position>
            <AltitudeMeters>636</AltitudeMeters>
            <DistanceMeters>NAN</DistanceMeters>
          </Trackpoint>
          <Trackpoint>
            <Time>2019-10-05T10:03:57.000Z</Time>
            <Position>
              <LatitudeDegrees>42.2253226675093173980712890625</LatitudeDegrees>
              <LongitudeDegrees>-5.57490245439112186431884765625</LongitudeDegrees>
            </Position>
            <AltitudeMeters>635.5999755859375</AltitudeMeters>
            <DistanceMeters>NAN</DistanceMeters>
          </Trackpoint>
          <Trackpoint>
            <Time>2019-10-05T10:04:06.000Z</Time>
            <Position>
              <LatitudeDegrees>42.22477457486093044281005859375</LatitudeDegrees>
              <LongitudeDegrees>-5.57505852542817592620849609375</LongitudeDegrees>
            </Position>
            <AltitudeMeters>635.4000244140625</AltitudeMeters>
            <DistanceMeters>NAN</DistanceMeters>
          </Trackpoint>
          <Trackpoint>
            <Time>2019-10-05T10:04:09.000Z</Time>
            <Position>
              <LatitudeDegrees>42.224590592086315155029296875</LatitudeDegrees>
              <LongitudeDegrees>-5.575108565390110015869140625</LongitudeDegrees>
            </Position>
            <AltitudeMeters>635.20001220703125</AltitudeMeters>
            <DistanceMeters>NAN</DistanceMeters>
          </Trackpoint>
          <Trackpoint>
            <Time>2019-10-05T10:04:18.000Z</Time>
            <Position>
              <LatitudeDegrees>42.224038057029247283935546875</LatitudeDegrees>
              <LongitudeDegrees>-5.575253404676914215087890625</LongitudeDegrees>
            </Position>
            <AltitudeMeters>635.5999755859375</AltitudeMeters>
            <DistanceMeters>NAN</DistanceMeters>
          </Trackpoint>
          <Trackpoint>
            <Time>2019-10-05T10:04:19.000Z</Time>
            <Position>
              <LatitudeDegrees>42.2239765338599681854248046875</LatitudeDegrees>
              <LongitudeDegrees>-5.57527176104485988616943359375</LongitudeDegrees>
            </Position>
            <AltitudeMeters>635.20001220703125</AltitudeMeters>
            <DistanceMeters>NAN</DistanceMeters>
          </Trackpoint>
          <Trackpoint>
            <Time>2019-10-05T10:04:26.000Z</Time>
            <Position>
              <LatitudeDegrees>42.2235470451414585113525390625</LatitudeDegrees>
              <LongitudeDegrees>-5.57540872134268283843994140625</LongitudeDegrees>
            </Position>
            <AltitudeMeters>635.20001220703125</AltitudeMeters>
            <DistanceMeters>NAN</DistanceMeters>
          </Trackpoint>
          <Trackpoint>
            <Time>2019-10-05T10:04:35.000Z</Time>
            <Position>
              <LatitudeDegrees>42.22299794666469097137451171875</LatitudeDegrees>
              <LongitudeDegrees>-5.57556428946554660797119140625</LongitudeDegrees>
            </Position>
            <AltitudeMeters>635</AltitudeMeters>
            <DistanceMeters>NAN</DistanceMeters>
          </Trackpoint>
          <Trackpoint>
            <Time>2019-10-05T10:04:36.000Z</Time>
            <Position>
              <LatitudeDegrees>42.2229371778666973114013671875</LatitudeDegrees>
              <LongitudeDegrees>-5.57558205910027027130126953125</LongitudeDegrees>
            </Position>
            <AltitudeMeters>635.20001220703125</AltitudeMeters>
            <DistanceMeters>NAN</DistanceMeters>
          </Trackpoint>
          <Trackpoint>
            <Time>2019-10-05T10:04:45.000Z</Time>
            <Position>
              <LatitudeDegrees>42.22238640300929546356201171875</LatitudeDegrees>
              <LongitudeDegrees>-5.5757464282214641571044921875</LongitudeDegrees>
            </Position>
            <AltitudeMeters>635</AltitudeMeters>
            <DistanceMeters>NAN</DistanceMeters>
          </Trackpoint>
          <Trackpoint>
            <Time>2019-10-05T10:04:48.000Z</Time>
            <Position>
              <LatitudeDegrees>42.22220283932983875274658203125</LatitudeDegrees>
              <LongitudeDegrees>-5.57580267079174518585205078125</LongitudeDegrees>
            </Position>
            <AltitudeMeters>635</AltitudeMeters>
            <DistanceMeters>NAN</DistanceMeters>
          </Trackpoint>
          <Trackpoint>
            <Time>2019-10-05T10:04:50.000Z</Time>
            <Position>
              <LatitudeDegrees>42.22208029590547084808349609375</LatitudeDegrees>
              <LongitudeDegrees>-5.5758366174995899200439453125</LongitudeDegrees>
            </Position>
            <AltitudeMeters>634.4000244140625</AltitudeMeters>
            <DistanceMeters>NAN</DistanceMeters>
          </Trackpoint>
          <Trackpoint>
            <Time>2019-10-05T10:04:59.000Z</Time>
            <Position>
              <LatitudeDegrees>42.221528179943561553955078125</LatitudeDegrees>
              <LongitudeDegrees>-5.57599545456469058990478515625</LongitudeDegrees>
            </Position>
            <AltitudeMeters>634</AltitudeMeters>
            <DistanceMeters>NAN</DistanceMeters>
          </Trackpoint>
          <Trackpoint>
            <Time>2019-10-05T10:05:08.000Z</Time>
            <Position>
              <LatitudeDegrees>42.22098645754158496856689453125</LatitudeDegrees>
              <LongitudeDegrees>-5.576147921383380889892578125</LongitudeDegrees>
            </Position>
            <AltitudeMeters>634.20001220703125</AltitudeMeters>
            <DistanceMeters>NAN</DistanceMeters>
          </Trackpoint>
          <Trackpoint>
            <Time>2019-10-05T10:05:09.000Z</Time>
            <Position>
              <LatitudeDegrees>42.22092627547681331634521484375</LatitudeDegrees>
              <LongitudeDegrees>-5.5761655233800411224365234375</LongitudeDegrees>
            </Position>
            <AltitudeMeters>634.20001220703125</AltitudeMeters>
            <DistanceMeters>NAN</DistanceMeters>
          </Trackpoint>
          <Trackpoint>
            <Time>2019-10-05T10:05:18.000Z</Time>
            <Position>
              <LatitudeDegrees>42.22038497216999530792236328125</LatitudeDegrees>
              <LongitudeDegrees>-5.576320253312587738037109375</LongitudeDegrees>
            </Position>
            <AltitudeMeters>634.20001220703125</AltitudeMeters>
            <DistanceMeters>NAN</DistanceMeters>
          </Trackpoint>
          <Trackpoint>
            <Time>2019-10-05T10:05:20.000Z</Time>
            <Position>
              <LatitudeDegrees>42.2202698886394500732421875</LatitudeDegrees>
              <LongitudeDegrees>-5.57635151781141757965087890625</LongitudeDegrees>
            </Position>
            <AltitudeMeters>633.5999755859375</AltitudeMeters>
            <DistanceMeters>NAN</DistanceMeters>
          </Trackpoint>
          <Trackpoint>
            <Time>2019-10-05T10:05:21.000Z</Time>
            <Position>
              <LatitudeDegrees>42.22020962275564670562744140625</LatitudeDegrees>
              <LongitudeDegrees>-5.57636911980807781219482421875</LongitudeDegrees>
            </Position>
            <AltitudeMeters>633.4000244140625</AltitudeMeters>
            <DistanceMeters>NAN</DistanceMeters>
          </Trackpoint>
          <Trackpoint>
            <Time>2019-10-05T10:05:27.000Z</Time>
            <Position>
              <LatitudeDegrees>42.21984920091927051544189453125</LatitudeDegrees>
              <LongitudeDegrees>-5.576479844748973846435546875</LongitudeDegrees>
            </Position>
            <AltitudeMeters>633.4000244140625</AltitudeMeters>
            <DistanceMeters>NAN</DistanceMeters>
          </Trackpoint>
          <Trackpoint>
            <Time>2019-10-05T10:05:33.000Z</Time>
            <Position>
              <LatitudeDegrees>42.21947587095201015472412109375</LatitudeDegrees>
              <LongitudeDegrees>-5.57658436708152294158935546875</LongitudeDegrees>
            </Position>
            <AltitudeMeters>633.20001220703125</AltitudeMeters>
            <DistanceMeters>NAN</DistanceMeters>
          </Trackpoint>
          <Trackpoint>
            <Time>2019-10-05T10:05:42.000Z</Time>
            <Position>
              <LatitudeDegrees>42.21894294954836368560791015625</LatitudeDegrees>
              <LongitudeDegrees>-5.576733984053134918212890625</LongitudeDegrees>
            </Position>
            <AltitudeMeters>633.4000244140625</AltitudeMeters>
            <DistanceMeters>NAN</DistanceMeters>
          </Trackpoint>
          <Trackpoint>
            <Time>2019-10-05T10:05:51.000Z</Time>
            <Position>
              <LatitudeDegrees>42.21842830069363117218017578125</LatitudeDegrees>
              <LongitudeDegrees>-5.5768853612244129180908203125</LongitudeDegrees>
            </Position>
            <AltitudeMeters>633.5999755859375</AltitudeMeters>
            <DistanceMeters>NAN</DistanceMeters>
          </Trackpoint>
          <Trackpoint>
            <Time>2019-10-05T10:05:52.000Z</Time>
            <Position>
              <LatitudeDegrees>42.21837046556174755096435546875</LatitudeDegrees>
              <LongitudeDegrees>-5.57690061628818511962890625</LongitudeDegrees>
            </Position>
            <AltitudeMeters>633.5999755859375</AltitudeMeters>
            <DistanceMeters>NAN</DistanceMeters>
          </Trackpoint>
          <Trackpoint>
            <Time>2019-10-05T10:06:01.000Z</Time>
            <Position>
              <LatitudeDegrees>42.21783134154975414276123046875</LatitudeDegrees>
              <LongitudeDegrees>-5.5770617164671421051025390625</LongitudeDegrees>
            </Position>
            <AltitudeMeters>633.20001220703125</AltitudeMeters>
            <DistanceMeters>NAN</DistanceMeters>
          </Trackpoint>
          <Trackpoint>
            <Time>2019-10-05T10:06:03.000Z</Time>
            <Position>
              <LatitudeDegrees>42.21771307289600372314453125</LatitudeDegrees>
              <LongitudeDegrees>-5.57709499262273311614990234375</LongitudeDegrees>
            </Position>
            <AltitudeMeters>632.79998779296875</AltitudeMeters>
            <DistanceMeters>NAN</DistanceMeters>
          </Trackpoint>
          <Trackpoint>
            <Time>2019-10-05T10:06:10.000Z</Time>
            <Position>
              <LatitudeDegrees>42.2173085622489452362060546875</LatitudeDegrees>
              <LongitudeDegrees>-5.5772159434854984283447265625</LongitudeDegrees>
            </Position>
            <AltitudeMeters>633</AltitudeMeters>
            <DistanceMeters>NAN</DistanceMeters>
          </Trackpoint>
          <Trackpoint>
            <Time>2019-10-05T10:06:12.000Z</Time>
            <Position>
              <LatitudeDegrees>42.21719481982290744781494140625</LatitudeDegrees>
              <LongitudeDegrees>-5.57724989019334316253662109375</LongitudeDegrees>
            </Position>
            <AltitudeMeters>633.4000244140625</AltitudeMeters>
            <DistanceMeters>NAN</DistanceMeters>
          </Trackpoint>
          <Trackpoint>
            <Time>2019-10-05T10:06:22.000Z</Time>
            <Position>
              <LatitudeDegrees>42.2166457213461399078369140625</LatitudeDegrees>
              <LongitudeDegrees>-5.57740042917430400848388671875</LongitudeDegrees>
            </Position>
            <AltitudeMeters>633.79998779296875</AltitudeMeters>
            <DistanceMeters>NAN</DistanceMeters>
          </Trackpoint>
          <Trackpoint>
            <Time>2019-10-05T10:06:23.000Z</Time>
            <Position>
              <LatitudeDegrees>42.21659182570874691009521484375</LatitudeDegrees>
              <LongitudeDegrees>-5.57741669006645679473876953125</LongitudeDegrees>
            </Position>
            <AltitudeMeters>633.5999755859375</AltitudeMeters>
            <DistanceMeters>NAN</DistanceMeters>
          </Trackpoint>
          <Trackpoint>
            <Time>2019-10-05T10:06:33.000Z</Time>
            <Position>
              <LatitudeDegrees>42.21605353988707065582275390625</LatitudeDegrees>
              <LongitudeDegrees>-5.57757745496928691864013671875</LongitudeDegrees>
            </Position>
            <AltitudeMeters>633</AltitudeMeters>
            <DistanceMeters>NAN</DistanceMeters>
          </Trackpoint>
          <Trackpoint>
            <Time>2019-10-05T10:06:43.000Z</Time>
            <Position>
              <LatitudeDegrees>42.21551123075187206268310546875</LatitudeDegrees>
              <LongitudeDegrees>-5.57773402892053127288818359375</LongitudeDegrees>
            </Position>
            <AltitudeMeters>633</AltitudeMeters>
            <DistanceMeters>NAN</DistanceMeters>
          </Trackpoint>
          <Trackpoint>
            <Time>2019-10-05T10:06:47.000Z</Time>
            <Position>
              <LatitudeDegrees>42.2152948938310146331787109375</LatitudeDegrees>
              <LongitudeDegrees>-5.5778026767075061798095703125</LongitudeDegrees>
            </Position>
            <AltitudeMeters>632.4000244140625</AltitudeMeters>
            <DistanceMeters>NAN</DistanceMeters>
          </Trackpoint>
          <Trackpoint>
            <Time>2019-10-05T10:06:54.000Z</Time>
            <Position>
              <LatitudeDegrees>42.21492298878729343414306640625</LatitudeDegrees>
              <LongitudeDegrees>-5.5779035948216915130615234375</LongitudeDegrees>
            </Position>
            <AltitudeMeters>632.5999755859375</AltitudeMeters>
            <DistanceMeters>NAN</DistanceMeters>
          </Trackpoint>
          <Trackpoint>
            <Time>2019-10-05T10:07:04.000Z</Time>
            <Position>
              <LatitudeDegrees>42.21439425833523273468017578125</LatitudeDegrees>
              <LongitudeDegrees>-5.5780564807355403900146484375</LongitudeDegrees>
            </Position>
            <AltitudeMeters>633</AltitudeMeters>
            <DistanceMeters>NAN</DistanceMeters>
          </Trackpoint>
          <Trackpoint>
            <Time>2019-10-05T10:07:05.000Z</Time>
            <Position>
              <LatitudeDegrees>42.21434061415493488311767578125</LatitudeDegrees>
              <LongitudeDegrees>-5.57806930504739284515380859375</LongitudeDegrees>
            </Position>
            <AltitudeMeters>632.79998779296875</AltitudeMeters>
            <DistanceMeters>NAN</DistanceMeters>
          </Trackpoint>
          <Trackpoint>
            <Time>2019-10-05T10:07:13.000Z</Time>
            <Position>
              <LatitudeDegrees>42.2139205969870090484619140625</LatitudeDegrees>
              <LongitudeDegrees>-5.578200817108154296875</LongitudeDegrees>
            </Position>
            <AltitudeMeters>632.4000244140625</AltitudeMeters>
            <DistanceMeters>NAN</DistanceMeters>
          </Trackpoint>
          <Trackpoint>
            <Time>2019-10-05T10:07:23.000Z</Time>
            <Position>
              <LatitudeDegrees>42.2133905254304409027099609375</LatitudeDegrees>
              <LongitudeDegrees>-5.5783702991902828216552734375</LongitudeDegrees>
            </Position>
            <AltitudeMeters>632.20001220703125</AltitudeMeters>
            <DistanceMeters>NAN</DistanceMeters>
          </Trackpoint>
          <Trackpoint>
            <Time>2019-10-05T10:07:24.000Z</Time>
            <Position>
              <LatitudeDegrees>42.2133382223546504974365234375</LatitudeDegrees>
              <LongitudeDegrees>-5.57838580571115016937255859375</LongitudeDegrees>
            </Position>
            <AltitudeMeters>632.20001220703125</AltitudeMeters>
            <DistanceMeters>NAN</DistanceMeters>
          </Trackpoint>
          <Trackpoint>
            <Time>2019-10-05T10:07:32.000Z</Time>
            <Position>
              <LatitudeDegrees>42.21290999092161655426025390625</LatitudeDegrees>
              <LongitudeDegrees>-5.57852058671414852142333984375</LongitudeDegrees>
            </Position>
            <AltitudeMeters>632.5999755859375</AltitudeMeters>
            <DistanceMeters>NAN</DistanceMeters>
          </Trackpoint>
          <Trackpoint>
            <Time>2019-10-05T10:07:40.000Z</Time>
            <Position>
              <LatitudeDegrees>42.2124879620969295501708984375</LatitudeDegrees>
              <LongitudeDegrees>-5.5786572955548763275146484375</LongitudeDegrees>
            </Position>
            <AltitudeMeters>632.4000244140625</AltitudeMeters>
            <DistanceMeters>NAN</DistanceMeters>
          </Trackpoint>
          <Trackpoint>
            <Time>2019-10-05T10:07:50.000Z</Time>
            <Position>
              <LatitudeDegrees>42.2119555436074733734130859375</LatitudeDegrees>
              <LongitudeDegrees>-5.578830800950527191162109375</LongitudeDegrees>
            </Position>
            <AltitudeMeters>633.4000244140625</AltitudeMeters>
            <DistanceMeters>NAN</DistanceMeters>
          </Trackpoint>
          <Trackpoint>
            <Time>2019-10-05T10:07:51.000Z</Time>
            <Position>
              <LatitudeDegrees>42.21189938485622406005859375</LatitudeDegrees>
              <LongitudeDegrees>-5.57884563691914081573486328125</LongitudeDegrees>
            </Position>
            <AltitudeMeters>633.4000244140625</AltitudeMeters>
            <DistanceMeters>NAN</DistanceMeters>
          </Trackpoint>
          <Trackpoint>
            <Time>2019-10-05T10:08:00.000Z</Time>
            <Position>
              <LatitudeDegrees>42.211415581405162811279296875</LatitudeDegrees>
              <LongitudeDegrees>-5.57898879982531070709228515625</LongitudeDegrees>
            </Position>
            <AltitudeMeters>632.4000244140625</AltitudeMeters>
            <DistanceMeters>NAN</DistanceMeters>
          </Trackpoint>
          <Trackpoint>
            <Time>2019-10-05T10:08:09.000Z</Time>
            <Position>
              <LatitudeDegrees>42.210933454334735870361328125</LatitudeDegrees>
              <LongitudeDegrees>-5.5791387520730495452880859375</LongitudeDegrees>
            </Position>
            <AltitudeMeters>632.4000244140625</AltitudeMeters>
            <DistanceMeters>NAN</DistanceMeters>
          </Trackpoint>
          <Trackpoint>
            <Time>2019-10-05T10:08:17.000Z</Time>
            <Position>
              <LatitudeDegrees>42.2104994393885135650634765625</LatitudeDegrees>
              <LongitudeDegrees>-5.57926422916352748870849609375</LongitudeDegrees>
            </Position>
            <AltitudeMeters>632.20001220703125</AltitudeMeters>
            <DistanceMeters>NAN</DistanceMeters>
          </Trackpoint>
          <Trackpoint>
            <Time>2019-10-05T10:08:22.000Z</Time>
            <Position>
              <LatitudeDegrees>42.2102278657257556915283203125</LatitudeDegrees>
              <LongitudeDegrees>-5.57934083975851535797119140625</LongitudeDegrees>
            </Position>
            <AltitudeMeters>632.4000244140625</AltitudeMeters>
            <DistanceMeters>NAN</DistanceMeters>
          </Trackpoint>
          <Trackpoint>
            <Time>2019-10-05T10:08:32.000Z</Time>
            <Position>
              <LatitudeDegrees>42.20969083718955516815185546875</LatitudeDegrees>
              <LongitudeDegrees>-5.57949104346334934234619140625</LongitudeDegrees>
            </Position>
            <AltitudeMeters>632</AltitudeMeters>
            <DistanceMeters>NAN</DistanceMeters>
          </Trackpoint>
          <Trackpoint>
            <Time>2019-10-05T10:08:42.000Z</Time>
            <Position>
              <LatitudeDegrees>42.20915037207305431365966796875</LatitudeDegrees>
              <LongitudeDegrees>-5.57964895851910114288330078125</LongitudeDegrees>
            </Position>
            <AltitudeMeters>631.79998779296875</AltitudeMeters>
            <DistanceMeters>NAN</DistanceMeters>
          </Trackpoint>
          <Trackpoint>
            <Time>2019-10-05T10:08:49.000Z</Time>
            <Position>
              <LatitudeDegrees>42.20877000130712985992431640625</LatitudeDegrees>
              <LongitudeDegrees>-5.57975624687969684600830078125</LongitudeDegrees>
            </Position>
            <AltitudeMeters>632.5999755859375</AltitudeMeters>
            <DistanceMeters>NAN</DistanceMeters>
          </Trackpoint>
          <Trackpoint>
            <Time>2019-10-05T10:08:53.000Z</Time>
            <Position>
              <LatitudeDegrees>42.208556346595287322998046875</LatitudeDegrees>
              <LongitudeDegrees>-5.5798136629164218902587890625</LongitudeDegrees>
            </Position>
            <AltitudeMeters>632.4000244140625</AltitudeMeters>
            <DistanceMeters>NAN</DistanceMeters>
          </Trackpoint>
          <Trackpoint>
            <Time>2019-10-05T10:09:03.000Z</Time>
            <Position>
              <LatitudeDegrees>42.20802225172519683837890625</LatitudeDegrees>
              <LongitudeDegrees>-5.57997174561023712158203125</LongitudeDegrees>
            </Position>
            <AltitudeMeters>632.4000244140625</AltitudeMeters>
            <DistanceMeters>NAN</DistanceMeters>
          </Trackpoint>
          <Trackpoint>
            <Time>2019-10-05T10:09:05.000Z</Time>
            <Position>
              <LatitudeDegrees>42.2079131193459033966064453125</LatitudeDegrees>
              <LongitudeDegrees>-5.580002255737781524658203125</LongitudeDegrees>
            </Position>
            <AltitudeMeters>632.5999755859375</AltitudeMeters>
            <DistanceMeters>NAN</DistanceMeters>
          </Trackpoint>
          <Trackpoint>
            <Time>2019-10-05T10:09:14.000Z</Time>
            <Position>
              <LatitudeDegrees>42.2074279747903347015380859375</LatitudeDegrees>
              <LongitudeDegrees>-5.580141730606555938720703125</LongitudeDegrees>
            </Position>
            <AltitudeMeters>632.5999755859375</AltitudeMeters>
            <DistanceMeters>NAN</DistanceMeters>
          </Trackpoint>
          <Trackpoint>
            <Time>2019-10-05T10:09:16.000Z</Time>
            <Position>
              <LatitudeDegrees>42.20732043497264385223388671875</LatitudeDegrees>
              <LongitudeDegrees>-5.58017416857182979583740234375</LongitudeDegrees>
            </Position>
            <AltitudeMeters>632.5999755859375</AltitudeMeters>
            <DistanceMeters>NAN</DistanceMeters>
          </Trackpoint>
          <Trackpoint>
            <Time>2019-10-05T10:09:26.000Z</Time>
            <Position>
              <LatitudeDegrees>42.20678013749420642852783203125</LatitudeDegrees>
              <LongitudeDegrees>-5.580328814685344696044921875</LongitudeDegrees>
            </Position>
            <AltitudeMeters>632.4000244140625</AltitudeMeters>
            <DistanceMeters>NAN</DistanceMeters>
          </Trackpoint>
          <Trackpoint>
            <Time>2019-10-05T10:09:29.000Z</Time>
            <Position>
              <LatitudeDegrees>42.2066172771155834197998046875</LatitudeDegrees>
              <LongitudeDegrees>-5.5803718976676464080810546875</LongitudeDegrees>
            </Position>
            <AltitudeMeters>632.4000244140625</AltitudeMeters>
            <DistanceMeters>NAN</DistanceMeters>
          </Trackpoint>
          <Trackpoint>
            <Time>2019-10-05T10:09:39.000Z</Time>
            <Position>
              <LatitudeDegrees>42.2060808353126049041748046875</LatitudeDegrees>
              <LongitudeDegrees>-5.5805338360369205474853515625</LongitudeDegrees>
            </Position>
            <AltitudeMeters>632.20001220703125</AltitudeMeters>
            <DistanceMeters>NAN</DistanceMeters>
          </Trackpoint>
          <Trackpoint>
            <Time>2019-10-05T10:09:44.000Z</Time>
            <Position>
              <LatitudeDegrees>42.2058163024485111236572265625</LatitudeDegrees>
              <LongitudeDegrees>-5.58060751296579837799072265625</LongitudeDegrees>
            </Position>
            <AltitudeMeters>631.4000244140625</AltitudeMeters>
            <DistanceMeters>NAN</DistanceMeters>
          </Trackpoint>
          <Trackpoint>
            <Time>2019-10-05T10:09:48.000Z</Time>
            <Position>
              <LatitudeDegrees>42.20560465939342975616455078125</LatitudeDegrees>
              <LongitudeDegrees>-5.5806645937263965606689453125</LongitudeDegrees>
            </Position>
            <AltitudeMeters>631.79998779296875</AltitudeMeters>
            <DistanceMeters>NAN</DistanceMeters>
          </Trackpoint>
          <Trackpoint>
            <Time>2019-10-05T10:09:58.000Z</Time>
            <Position>
              <LatitudeDegrees>42.205076850950717926025390625</LatitudeDegrees>
              <LongitudeDegrees>-5.58081974275410175323486328125</LongitudeDegrees>
            </Position>
            <AltitudeMeters>631.5999755859375</AltitudeMeters>
            <DistanceMeters>NAN</DistanceMeters>
          </Trackpoint>
          <Trackpoint>
            <Time>2019-10-05T10:10:01.000Z</Time>
            <Position>
              <LatitudeDegrees>42.20491969026625156402587890625</LatitudeDegrees>
              <LongitudeDegrees>-5.58086819015443325042724609375</LongitudeDegrees>
            </Position>
            <AltitudeMeters>632.20001220703125</AltitudeMeters>
            <DistanceMeters>NAN</DistanceMeters>
          </Trackpoint>
          <Trackpoint>
            <Time>2019-10-05T10:10:09.000Z</Time>
            <Position>
              <LatitudeDegrees>42.2044996730983257293701171875</LatitudeDegrees>
              <LongitudeDegrees>-5.580992661416530609130859375</LongitudeDegrees>
            </Position>
            <AltitudeMeters>632</AltitudeMeters>
            <DistanceMeters>NAN</DistanceMeters>
          </Trackpoint>
          <Trackpoint>
            <Time>2019-10-05T10:10:13.000Z</Time>
            <Position>
              <LatitudeDegrees>42.2043082304298877716064453125</LatitudeDegrees>
              <LongitudeDegrees>-5.5810441263020038604736328125</LongitudeDegrees>
            </Position>
            <AltitudeMeters>632</AltitudeMeters>
            <DistanceMeters>NAN</DistanceMeters>
          </Trackpoint>
          <Trackpoint>
            <Time>2019-10-05T10:10:16.000Z</Time>
            <Position>
              <LatitudeDegrees>42.20417554490268230438232421875</LatitudeDegrees>
              <LongitudeDegrees>-5.58108176104724407196044921875</LongitudeDegrees>
            </Position>
            <AltitudeMeters>632.20001220703125</AltitudeMeters>
            <DistanceMeters>NAN</DistanceMeters>
          </Trackpoint>
          <Trackpoint>
            <Time>2019-10-05T10:10:27.000Z</Time>
            <Position>
              <LatitudeDegrees>42.2036849521100521087646484375</LatitudeDegrees>
              <LongitudeDegrees>-5.5812161229550838470458984375</LongitudeDegrees>
            </Position>
            <AltitudeMeters>632.20001220703125</AltitudeMeters>
            <DistanceMeters>NAN</DistanceMeters>
          </Trackpoint>
          <Trackpoint>
            <Time>2019-10-05T10:10:31.000Z</Time>
            <Position>
              <LatitudeDegrees>42.2034968622028827667236328125</LatitudeDegrees>
              <LongitudeDegrees>-5.5812744610011577606201171875</LongitudeDegrees>
            </Position>
            <AltitudeMeters>632.4000244140625</AltitudeMeters>
            <DistanceMeters>NAN</DistanceMeters>
          </Trackpoint>
          <Trackpoint>
            <Time>2019-10-05T10:10:35.000Z</Time>
            <Position>
              <LatitudeDegrees>42.2033024020493030548095703125</LatitudeDegrees>
              <LongitudeDegrees>-5.5813301168382167816162109375</LongitudeDegrees>
            </Position>
            <AltitudeMeters>632</AltitudeMeters>
            <DistanceMeters>NAN</DistanceMeters>
          </Trackpoint>
          <Trackpoint>
            <Time>2019-10-05T10:10:43.000Z</Time>
            <Position>
              <LatitudeDegrees>42.20289386808872222900390625</LatitudeDegrees>
              <LongitudeDegrees>-5.5814397521317005157470703125</LongitudeDegrees>
            </Position>
            <AltitudeMeters>632</AltitudeMeters>
            <DistanceMeters>NAN</DistanceMeters>
          </Trackpoint>
          <Trackpoint>
            <Time>2019-10-05T10:10:47.000Z</Time>
            <Position>
              <LatitudeDegrees>42.2026853263378143310546875</LatitudeDegrees>
              <LongitudeDegrees>-5.5814970843493938446044921875</LongitudeDegrees>
            </Position>
            <AltitudeMeters>631.4000244140625</AltitudeMeters>
            <DistanceMeters>NAN</DistanceMeters>
          </Trackpoint>
          <Trackpoint>
            <Time>2019-10-05T10:10:54.000Z</Time>
            <Position>
              <LatitudeDegrees>42.2023244015872478485107421875</LatitudeDegrees>
              <LongitudeDegrees>-5.58160378597676753997802734375</LongitudeDegrees>
            </Position>
            <AltitudeMeters>631.5999755859375</AltitudeMeters>
            <DistanceMeters>NAN</DistanceMeters>
          </Trackpoint>
          <Trackpoint>
            <Time>2019-10-05T10:11:00.000Z</Time>
            <Position>
              <LatitudeDegrees>42.20201150514185428619384765625</LatitudeDegrees>
              <LongitudeDegrees>-5.58169263415038585662841796875</LongitudeDegrees>
            </Position>
            <AltitudeMeters>631.20001220703125</AltitudeMeters>
            <DistanceMeters>NAN</DistanceMeters>
          </Trackpoint>
          <Trackpoint>
            <Time>2019-10-05T10:11:04.000Z</Time>
            <Position>
              <LatitudeDegrees>42.20180162228643894195556640625</LatitudeDegrees>
              <LongitudeDegrees>-5.58175616897642612457275390625</LongitudeDegrees>
            </Position>
            <AltitudeMeters>631.5999755859375</AltitudeMeters>
            <DistanceMeters>NAN</DistanceMeters>
          </Trackpoint>
          <Trackpoint>
            <Time>2019-10-05T10:11:14.000Z</Time>
            <Position>
              <LatitudeDegrees>42.20127657987177371978759765625</LatitudeDegrees>
              <LongitudeDegrees>-5.58190335519611835479736328125</LongitudeDegrees>
            </Position>
            <AltitudeMeters>631.20001220703125</AltitudeMeters>
            <DistanceMeters>NAN</DistanceMeters>
          </Trackpoint>
          <Trackpoint>
            <Time>2019-10-05T10:11:16.000Z</Time>
            <Position>
              <LatitudeDegrees>42.20117214135825634002685546875</LatitudeDegrees>
              <LongitudeDegrees>-5.5819326080381870269775390625</LongitudeDegrees>
            </Position>
            <AltitudeMeters>631.4000244140625</AltitudeMeters>
            <DistanceMeters>NAN</DistanceMeters>
          </Trackpoint>
          <Trackpoint>
            <Time>2019-10-05T10:11:26.000Z</Time>
            <Position>
              <LatitudeDegrees>42.200641147792339324951171875</LatitudeDegrees>
              <LongitudeDegrees>-5.5820851586759090423583984375</LongitudeDegrees>
            </Position>
            <AltitudeMeters>631.5999755859375</AltitudeMeters>
            <DistanceMeters>NAN</DistanceMeters>
          </Trackpoint>
          <Trackpoint>
            <Time>2019-10-05T10:11:28.000Z</Time>
            <Position>
              <LatitudeDegrees>42.2005326859652996063232421875</LatitudeDegrees>
              <LongitudeDegrees>-5.5821156688034534454345703125</LongitudeDegrees>
            </Position>
            <AltitudeMeters>631.5999755859375</AltitudeMeters>
            <DistanceMeters>NAN</DistanceMeters>
          </Trackpoint>
          <Trackpoint>
            <Time>2019-10-05T10:11:38.000Z</Time>
            <Position>
              <LatitudeDegrees>42.1999923884868621826171875</LatitudeDegrees>
              <LongitudeDegrees>-5.5822655372321605682373046875</LongitudeDegrees>
            </Position>
            <AltitudeMeters>631.4000244140625</AltitudeMeters>
            <DistanceMeters>NAN</DistanceMeters>
          </Trackpoint>
          <Trackpoint>
            <Time>2019-10-05T10:11:42.000Z</Time>
            <Position>
              <LatitudeDegrees>42.1997726149857044219970703125</LatitudeDegrees>
              <LongitudeDegrees>-5.58232831768691539764404296875</LongitudeDegrees>
            </Position>
            <AltitudeMeters>631.20001220703125</AltitudeMeters>
            <DistanceMeters>NAN</DistanceMeters>
          </Trackpoint>
          <Trackpoint>
            <Time>2019-10-05T10:11:52.000Z</Time>
            <Position>
              <LatitudeDegrees>42.19921597279608249664306640625</LatitudeDegrees>
              <LongitudeDegrees>-5.58249025605618953704833984375</LongitudeDegrees>
            </Position>
            <AltitudeMeters>631</AltitudeMeters>
            <DistanceMeters>NAN</DistanceMeters>
          </Trackpoint>
          <Trackpoint>
            <Time>2019-10-05T10:12:02.000Z</Time>
            <Position>
              <LatitudeDegrees>42.19865740276873111724853515625</LatitudeDegrees>
              <LongitudeDegrees>-5.5826573073863983154296875</LongitudeDegrees>
            </Position>
            <AltitudeMeters>630.79998779296875</AltitudeMeters>
            <DistanceMeters>NAN</DistanceMeters>
          </Trackpoint>
          <Trackpoint>
            <Time>2019-10-05T10:12:03.000Z</Time>
            <Position>
              <LatitudeDegrees>42.19860233366489410400390625</LatitudeDegrees>
              <LongitudeDegrees>-5.58267281390726566314697265625</LongitudeDegrees>
            </Position>
            <AltitudeMeters>630.4000244140625</AltitudeMeters>
            <DistanceMeters>NAN</DistanceMeters>
          </Trackpoint>
          <Trackpoint>
            <Time>2019-10-05T10:12:12.000Z</Time>
            <Position>
              <LatitudeDegrees>42.198111824691295623779296875</LatitudeDegrees>
              <LongitudeDegrees>-5.58281262405216693878173828125</LongitudeDegrees>
            </Position>
            <AltitudeMeters>630.79998779296875</AltitudeMeters>
            <DistanceMeters>NAN</DistanceMeters>
          </Trackpoint>
          <Trackpoint>
            <Time>2019-10-05T10:12:22.000Z</Time>
            <Position>
              <LatitudeDegrees>42.1975638158619403839111328125</LatitudeDegrees>
              <LongitudeDegrees>-5.58296634815633296966552734375</LongitudeDegrees>
            </Position>
            <AltitudeMeters>631.20001220703125</AltitudeMeters>
            <DistanceMeters>NAN</DistanceMeters>
          </Trackpoint>
          <Trackpoint>
            <Time>2019-10-05T10:12:24.000Z</Time>
            <Position>
              <LatitudeDegrees>42.19745275564491748809814453125</LatitudeDegrees>
              <LongitudeDegrees>-5.58299618773162364959716796875</LongitudeDegrees>
            </Position>
            <AltitudeMeters>630.79998779296875</AltitudeMeters>
            <DistanceMeters>NAN</DistanceMeters>
          </Trackpoint>
          <Trackpoint>
            <Time>2019-10-05T10:12:34.000Z</Time>
            <Position>
              <LatitudeDegrees>42.19689301215112209320068359375</LatitudeDegrees>
              <LongitudeDegrees>-5.58315695263445377349853515625</LongitudeDegrees>
            </Position>
            <AltitudeMeters>630.4000244140625</AltitudeMeters>
            <DistanceMeters>NAN</DistanceMeters>
          </Trackpoint>
          <Trackpoint>
            <Time>2019-10-05T10:12:36.000Z</Time>
            <Position>
              <LatitudeDegrees>42.19678086228668689727783203125</LatitudeDegrees>
              <LongitudeDegrees>-5.58318863622844219207763671875</LongitudeDegrees>
            </Position>
            <AltitudeMeters>630.20001220703125</AltitudeMeters>
            <DistanceMeters>NAN</DistanceMeters>
          </Trackpoint>
          <Trackpoint>
            <Time>2019-10-05T10:12:44.000Z</Time>
            <Position>
              <LatitudeDegrees>42.19633184373378753662109375</LatitudeDegrees>
              <LongitudeDegrees>-5.583319477736949920654296875</LongitudeDegrees>
            </Position>
            <AltitudeMeters>630</AltitudeMeters>
            <DistanceMeters>NAN</DistanceMeters>
          </Trackpoint>
          <Trackpoint>
            <Time>2019-10-05T10:12:54.000Z</Time>
            <Position>
              <LatitudeDegrees>42.19577788375318050384521484375</LatitudeDegrees>
              <LongitudeDegrees>-5.583470351994037628173828125</LongitudeDegrees>
            </Position>
            <AltitudeMeters>630</AltitudeMeters>
            <DistanceMeters>NAN</DistanceMeters>
          </Trackpoint>
          <Trackpoint>
            <Time>2019-10-05T10:12:55.000Z</Time>
            <Position>
              <LatitudeDegrees>42.195724658668041229248046875</LatitudeDegrees>
              <LongitudeDegrees>-5.58348552323877811431884765625</LongitudeDegrees>
            </Position>
            <AltitudeMeters>630</AltitudeMeters>
            <DistanceMeters>NAN</DistanceMeters>
          </Trackpoint>
          <Trackpoint>
            <Time>2019-10-05T10:13:02.000Z</Time>
            <Position>
              <LatitudeDegrees>42.1953489817678928375244140625</LatitudeDegrees>
              <LongitudeDegrees>-5.5835969187319278717041015625</LongitudeDegrees>
            </Position>
            <AltitudeMeters>629.79998779296875</AltitudeMeters>
            <DistanceMeters>NAN</DistanceMeters>
          </Trackpoint>
          <Trackpoint>
            <Time>2019-10-05T10:13:05.000Z</Time>
            <Position>
              <LatitudeDegrees>42.19518830068409442901611328125</LatitudeDegrees>
              <LongitudeDegrees>-5.58364100754261016845703125</LongitudeDegrees>
            </Position>
            <AltitudeMeters>630</AltitudeMeters>
            <DistanceMeters>NAN</DistanceMeters>
          </Trackpoint>
          <Trackpoint>
            <Time>2019-10-05T10:13:15.000Z</Time>
            <Position>
              <LatitudeDegrees>42.19465604983270168304443359375</LatitudeDegrees>
              <LongitudeDegrees>-5.58379330672323703765869140625</LongitudeDegrees>
            </Position>
            <AltitudeMeters>629.5999755859375</AltitudeMeters>
            <DistanceMeters>NAN</DistanceMeters>
          </Trackpoint>
          <Trackpoint>
            <Time>2019-10-05T10:13:20.000Z</Time>
            <Position>
              <LatitudeDegrees>42.1943860687315464019775390625</LatitudeDegrees>
              <LongitudeDegrees>-5.5838748626410961151123046875</LongitudeDegrees>
            </Position>
            <AltitudeMeters>629.20001220703125</AltitudeMeters>
            <DistanceMeters>NAN</DistanceMeters>
          </Trackpoint>
          <Trackpoint>
            <Time>2019-10-05T10:13:25.000Z</Time>
            <Position>
              <LatitudeDegrees>42.19411843456327915191650390625</LatitudeDegrees>
              <LongitudeDegrees>-5.5839502997696399688720703125</LongitudeDegrees>
            </Position>
            <AltitudeMeters>629.5999755859375</AltitudeMeters>
            <DistanceMeters>NAN</DistanceMeters>
          </Trackpoint>
          <Trackpoint>
            <Time>2019-10-05T10:13:34.000Z</Time>
            <Position>
              <LatitudeDegrees>42.19363245181739330291748046875</LatitudeDegrees>
              <LongitudeDegrees>-5.5840840749442577362060546875</LongitudeDegrees>
            </Position>
            <AltitudeMeters>629.4000244140625</AltitudeMeters>
            <DistanceMeters>NAN</DistanceMeters>
          </Trackpoint>
          <Trackpoint>
            <Time>2019-10-05T10:13:44.000Z</Time>
            <Position>
              <LatitudeDegrees>42.19309349544346332550048828125</LatitudeDegrees>
              <LongitudeDegrees>-5.5842426605522632598876953125</LongitudeDegrees>
            </Position>
            <AltitudeMeters>629.5999755859375</AltitudeMeters>
            <DistanceMeters>NAN</DistanceMeters>
          </Trackpoint>
          <Trackpoint>
            <Time>2019-10-05T10:13:45.000Z</Time>
            <Position>
              <LatitudeDegrees>42.19303884543478488922119140625</LatitudeDegrees>
              <LongitudeDegrees>-5.5842600949108600616455078125</LongitudeDegrees>
            </Position>
            <AltitudeMeters>629.4000244140625</AltitudeMeters>
            <DistanceMeters>NAN</DistanceMeters>
          </Trackpoint>
          <Trackpoint>
            <Time>2019-10-05T10:13:55.000Z</Time>
            <Position>
              <LatitudeDegrees>42.19249821268022060394287109375</LatitudeDegrees>
              <LongitudeDegrees>-5.5844102986156940460205078125</LongitudeDegrees>
            </Position>
            <AltitudeMeters>629.20001220703125</AltitudeMeters>
            <DistanceMeters>NAN</DistanceMeters>
          </Trackpoint>
          <Trackpoint>
            <Time>2019-10-05T10:14:05.000Z</Time>
            <Position>
              <LatitudeDegrees>42.1919620223343372344970703125</LatitudeDegrees>
              <LongitudeDegrees>-5.58455907739698886871337890625</LongitudeDegrees>
            </Position>
            <AltitudeMeters>629.5999755859375</AltitudeMeters>
            <DistanceMeters>NAN</DistanceMeters>
          </Trackpoint>
          <Trackpoint>
            <Time>2019-10-05T10:14:06.000Z</Time>
            <Position>
              <LatitudeDegrees>42.19190594740211963653564453125</LatitudeDegrees>
              <LongitudeDegrees>-5.584577433764934539794921875</LongitudeDegrees>
            </Position>
            <AltitudeMeters>629.5999755859375</AltitudeMeters>
            <DistanceMeters>NAN</DistanceMeters>
          </Trackpoint>
          <Trackpoint>
            <Time>2019-10-05T10:14:14.000Z</Time>
            <Position>
              <LatitudeDegrees>42.19142901711165904998779296875</LatitudeDegrees>
              <LongitudeDegrees>-5.58471682481467723846435546875</LongitudeDegrees>
            </Position>
            <AltitudeMeters>628.79998779296875</AltitudeMeters>
            <DistanceMeters>NAN</DistanceMeters>
          </Trackpoint>
          <Trackpoint>
            <Time>2019-10-05T10:14:20.000Z</Time>
            <Position>
              <LatitudeDegrees>42.191083431243896484375</LatitudeDegrees>
              <LongitudeDegrees>-5.58481522835791110992431640625</LongitudeDegrees>
            </Position>
            <AltitudeMeters>629.4000244140625</AltitudeMeters>
            <DistanceMeters>NAN</DistanceMeters>
          </Trackpoint>
          <Trackpoint>
            <Time>2019-10-05T10:14:29.000Z</Time>
            <Position>
              <LatitudeDegrees>42.19056098721921443939208984375</LatitudeDegrees>
              <LongitudeDegrees>-5.584965012967586517333984375</LongitudeDegrees>
            </Position>
            <AltitudeMeters>629</AltitudeMeters>
            <DistanceMeters>NAN</DistanceMeters>
          </Trackpoint>
          <Trackpoint>
            <Time>2019-10-05T10:14:32.000Z</Time>
            <Position>
              <LatitudeDegrees>42.1903868950903415679931640625</LatitudeDegrees>
              <LongitudeDegrees>-5.5850131250917911529541015625</LongitudeDegrees>
            </Position>
            <AltitudeMeters>628.20001220703125</AltitudeMeters>
            <DistanceMeters>NAN</DistanceMeters>
          </Trackpoint>
          <Trackpoint>
            <Time>2019-10-05T10:14:41.000Z</Time>
            <Position>
              <LatitudeDegrees>42.1898697316646575927734375</LatitudeDegrees>
              <LongitudeDegrees>-5.58516316115856170654296875</LongitudeDegrees>
            </Position>
            <AltitudeMeters>628.20001220703125</AltitudeMeters>
            <DistanceMeters>NAN</DistanceMeters>
          </Trackpoint>
          <Trackpoint>
            <Time>2019-10-05T10:14:43.000Z</Time>
            <Position>
              <LatitudeDegrees>42.18975481577217578887939453125</LatitudeDegrees>
              <LongitudeDegrees>-5.58519861660897731781005859375</LongitudeDegrees>
            </Position>
            <AltitudeMeters>628</AltitudeMeters>
            <DistanceMeters>NAN</DistanceMeters>
          </Trackpoint>
          <Trackpoint>
            <Time>2019-10-05T10:14:52.000Z</Time>
            <Position>
              <LatitudeDegrees>42.18923446722328662872314453125</LatitudeDegrees>
              <LongitudeDegrees>-5.585346557199954986572265625</LongitudeDegrees>
            </Position>
            <AltitudeMeters>627.79998779296875</AltitudeMeters>
            <DistanceMeters>NAN</DistanceMeters>
          </Trackpoint>
          <Trackpoint>
            <Time>2019-10-05T10:14:55.000Z</Time>
            <Position>
              <LatitudeDegrees>42.18906381167471408843994140625</LatitudeDegrees>
              <LongitudeDegrees>-5.5853950046002864837646484375</LongitudeDegrees>
            </Position>
            <AltitudeMeters>628</AltitudeMeters>
            <DistanceMeters>NAN</DistanceMeters>
          </Trackpoint>
          <Trackpoint>
            <Time>2019-10-05T10:15:04.000Z</Time>
            <Position>
              <LatitudeDegrees>42.188565842807292938232421875</LatitudeDegrees>
              <LongitudeDegrees>-5.58554210700094699859619140625</LongitudeDegrees>
            </Position>
            <AltitudeMeters>627.4000244140625</AltitudeMeters>
            <DistanceMeters>NAN</DistanceMeters>
          </Trackpoint>
          <Trackpoint>
            <Time>2019-10-05T10:15:14.000Z</Time>
            <Position>
              <LatitudeDegrees>42.18803736381232738494873046875</LatitudeDegrees>
              <LongitudeDegrees>-5.58569214306771755218505859375</LongitudeDegrees>
            </Position>
            <AltitudeMeters>627.79998779296875</AltitudeMeters>
            <DistanceMeters>NAN</DistanceMeters>
          </Trackpoint>
          <Trackpoint>
            <Time>2019-10-05T10:15:16.000Z</Time>
            <Position>
              <LatitudeDegrees>42.187931500375270843505859375</LatitudeDegrees>
              <LongitudeDegrees>-5.58571997098624706268310546875</LongitudeDegrees>
            </Position>
            <AltitudeMeters>628.20001220703125</AltitudeMeters>
            <DistanceMeters>NAN</DistanceMeters>
          </Trackpoint>
          <Trackpoint>
            <Time>2019-10-05T10:15:26.000Z</Time>
            <Position>
              <LatitudeDegrees>42.1873975731432437896728515625</LatitudeDegrees>
              <LongitudeDegrees>-5.58587000705301761627197265625</LongitudeDegrees>
            </Position>
            <AltitudeMeters>628</AltitudeMeters>
            <DistanceMeters>NAN</DistanceMeters>
          </Trackpoint>
          <Trackpoint>
            <Time>2019-10-05T10:15:27.000Z</Time>
            <Position>
              <LatitudeDegrees>42.187343426048755645751953125</LatitudeDegrees>
              <LongitudeDegrees>-5.5858868546783924102783203125</LongitudeDegrees>
            </Position>
            <AltitudeMeters>628.20001220703125</AltitudeMeters>
            <DistanceMeters>NAN</DistanceMeters>
          </Trackpoint>
          <Trackpoint>
            <Time>2019-10-05T10:15:37.000Z</Time>
            <Position>
              <LatitudeDegrees>42.18680329620838165283203125</LatitudeDegrees>
              <LongitudeDegrees>-5.58604133315384387969970703125</LongitudeDegrees>
            </Position>
            <AltitudeMeters>628</AltitudeMeters>
            <DistanceMeters>NAN</DistanceMeters>
          </Trackpoint>
          <Trackpoint>
            <Time>2019-10-05T10:15:47.000Z</Time>
            <Position>
              <LatitudeDegrees>42.18627280555665493011474609375</LatitudeDegrees>
              <LongitudeDegrees>-5.58618986047804355621337890625</LongitudeDegrees>
            </Position>
            <AltitudeMeters>627.4000244140625</AltitudeMeters>
            <DistanceMeters>NAN</DistanceMeters>
          </Trackpoint>
          <Trackpoint>
            <Time>2019-10-05T10:15:49.000Z</Time>
            <Position>
              <LatitudeDegrees>42.1861671097576618194580078125</LatitudeDegrees>
              <LongitudeDegrees>-5.5862165987491607666015625</LongitudeDegrees>
            </Position>
            <AltitudeMeters>627.79998779296875</AltitudeMeters>
            <DistanceMeters>NAN</DistanceMeters>
          </Trackpoint>
          <Trackpoint>
            <Time>2019-10-05T10:15:59.000Z</Time>
            <Position>
              <LatitudeDegrees>42.18563661910593509674072265625</LatitudeDegrees>
              <LongitudeDegrees>-5.58637359179556369781494140625</LongitudeDegrees>
            </Position>
            <AltitudeMeters>627.79998779296875</AltitudeMeters>
            <DistanceMeters>NAN</DistanceMeters>
          </Trackpoint>
          <Trackpoint>
            <Time>2019-10-05T10:16:00.000Z</Time>
            <Position>
              <LatitudeDegrees>42.18558280728757381439208984375</LatitudeDegrees>
              <LongitudeDegrees>-5.5863904394209384918212890625</LongitudeDegrees>
            </Position>
            <AltitudeMeters>627.5999755859375</AltitudeMeters>
            <DistanceMeters>NAN</DistanceMeters>
          </Trackpoint>
          <Trackpoint>
            <Time>2019-10-05T10:16:10.000Z</Time>
            <Position>
              <LatitudeDegrees>42.1850482933223247528076171875</LatitudeDegrees>
              <LongitudeDegrees>-5.586547516286373138427734375</LongitudeDegrees>
            </Position>
            <AltitudeMeters>628.20001220703125</AltitudeMeters>
            <DistanceMeters>NAN</DistanceMeters>
          </Trackpoint>
          <Trackpoint>
            <Time>2019-10-05T10:16:18.000Z</Time>
            <Position>
              <LatitudeDegrees>42.184611260890960693359375</LatitudeDegrees>
              <LongitudeDegrees>-5.58665237389504909515380859375</LongitudeDegrees>
            </Position>
            <AltitudeMeters>627.5999755859375</AltitudeMeters>
            <DistanceMeters>NAN</DistanceMeters>
          </Trackpoint>
          <Trackpoint>
            <Time>2019-10-05T10:16:26.000Z</Time>
            <Position>
              <LatitudeDegrees>42.18417179770767688751220703125</LatitudeDegrees>
              <LongitudeDegrees>-5.58679184876382350921630859375</LongitudeDegrees>
            </Position>
            <AltitudeMeters>627.4000244140625</AltitudeMeters>
            <DistanceMeters>NAN</DistanceMeters>
          </Trackpoint>
          <Trackpoint>
            <Time>2019-10-05T10:16:32.000Z</Time>
            <Position>
              <LatitudeDegrees>42.18384423293173313140869140625</LatitudeDegrees>
              <LongitudeDegrees>-5.58688706718385219573974609375</LongitudeDegrees>
            </Position>
            <AltitudeMeters>627.5999755859375</AltitudeMeters>
            <DistanceMeters>NAN</DistanceMeters>
          </Trackpoint>
          <Trackpoint>
            <Time>2019-10-05T10:16:37.000Z</Time>
            <Position>
              <LatitudeDegrees>42.1835747547447681427001953125</LatitudeDegrees>
              <LongitudeDegrees>-5.5869630910456180572509765625</LongitudeDegrees>
            </Position>
            <AltitudeMeters>627.79998779296875</AltitudeMeters>
            <DistanceMeters>NAN</DistanceMeters>
          </Trackpoint>
          <Trackpoint>
            <Time>2019-10-05T10:16:47.000Z</Time>
            <Position>
              <LatitudeDegrees>42.18302347697317600250244140625</LatitudeDegrees>
              <LongitudeDegrees>-5.58711958117783069610595703125</LongitudeDegrees>
            </Position>
            <AltitudeMeters>627.79998779296875</AltitudeMeters>
            <DistanceMeters>NAN</DistanceMeters>
          </Trackpoint>
          <Trackpoint>
            <Time>2019-10-05T10:16:55.000Z</Time>
            <Position>
              <LatitudeDegrees>42.182589881122112274169921875</LatitudeDegrees>
              <LongitudeDegrees>-5.58724262751638889312744140625</LongitudeDegrees>
            </Position>
            <AltitudeMeters>627.20001220703125</AltitudeMeters>
            <DistanceMeters>NAN</DistanceMeters>
          </Trackpoint>
          <Trackpoint>
            <Time>2019-10-05T10:16:58.000Z</Time>
            <Position>
              <LatitudeDegrees>42.1824291162192821502685546875</LatitudeDegrees>
              <LongitudeDegrees>-5.5872923322021961212158203125</LongitudeDegrees>
            </Position>
            <AltitudeMeters>627.20001220703125</AltitudeMeters>
            <DistanceMeters>NAN</DistanceMeters>
          </Trackpoint>
          <Trackpoint>
            <Time>2019-10-05T10:17:08.000Z</Time>
            <Position>
              <LatitudeDegrees>42.18187968246638774871826171875</LatitudeDegrees>
              <LongitudeDegrees>-5.58744848705828189849853515625</LongitudeDegrees>
            </Position>
            <AltitudeMeters>626.5999755859375</AltitudeMeters>
            <DistanceMeters>NAN</DistanceMeters>
          </Trackpoint>
          <Trackpoint>
            <Time>2019-10-05T10:17:09.000Z</Time>
            <Position>
              <LatitudeDegrees>42.1818257868289947509765625</LatitudeDegrees>
              <LongitudeDegrees>-5.5874623171985149383544921875</LongitudeDegrees>
            </Position>
            <AltitudeMeters>626.79998779296875</AltitudeMeters>
            <DistanceMeters>NAN</DistanceMeters>
          </Trackpoint>
          <Trackpoint>
            <Time>2019-10-05T10:17:19.000Z</Time>
            <Position>
              <LatitudeDegrees>42.1812807954847812652587890625</LatitudeDegrees>
              <LongitudeDegrees>-5.587615706026554107666015625</LongitudeDegrees>
            </Position>
            <AltitudeMeters>627.20001220703125</AltitudeMeters>
            <DistanceMeters>NAN</DistanceMeters>
          </Trackpoint>
          <Trackpoint>
            <Time>2019-10-05T10:17:20.000Z</Time>
            <Position>
              <LatitudeDegrees>42.18122589401900768280029296875</LatitudeDegrees>
              <LongitudeDegrees>-5.587631799280643463134765625</LongitudeDegrees>
            </Position>
            <AltitudeMeters>627.20001220703125</AltitudeMeters>
            <DistanceMeters>NAN</DistanceMeters>
          </Trackpoint>
          <Trackpoint>
            <Time>2019-10-05T10:17:30.000Z</Time>
            <Position>
              <LatitudeDegrees>42.1806742809712886810302734375</LatitudeDegrees>
              <LongitudeDegrees>-5.58779306709766387939453125</LongitudeDegrees>
            </Position>
            <AltitudeMeters>627</AltitudeMeters>
            <DistanceMeters>NAN</DistanceMeters>
          </Trackpoint>
          <Trackpoint>
            <Time>2019-10-05T10:17:31.000Z</Time>
            <Position>
              <LatitudeDegrees>42.18061937950551509857177734375</LatitudeDegrees>
              <LongitudeDegrees>-5.58780991472303867340087890625</LongitudeDegrees>
            </Position>
            <AltitudeMeters>627</AltitudeMeters>
            <DistanceMeters>NAN</DistanceMeters>
          </Trackpoint>
          <Trackpoint>
            <Time>2019-10-05T10:17:41.000Z</Time>
            <Position>
              <LatitudeDegrees>42.1800743043422698974609375</LatitudeDegrees>
              <LongitudeDegrees>-5.58796497993171215057373046875</LongitudeDegrees>
            </Position>
            <AltitudeMeters>626.79998779296875</AltitudeMeters>
            <DistanceMeters>NAN</DistanceMeters>
          </Trackpoint>
          <Trackpoint>
            <Time>2019-10-05T10:17:43.000Z</Time>
            <Position>
              <LatitudeDegrees>42.1799634955823421478271484375</LatitudeDegrees>
              <LongitudeDegrees>-5.58800253085792064666748046875</LongitudeDegrees>
            </Position>
            <AltitudeMeters>626.4000244140625</AltitudeMeters>
            <DistanceMeters>NAN</DistanceMeters>
          </Trackpoint>
          <Trackpoint>
            <Time>2019-10-05T10:17:44.000Z</Time>
            <Position>
              <LatitudeDegrees>42.17990825884044170379638671875</LatitudeDegrees>
              <LongitudeDegrees>-5.58801644481718540191650390625</LongitudeDegrees>
            </Position>
            <AltitudeMeters>626</AltitudeMeters>
            <DistanceMeters>NAN</DistanceMeters>
          </Trackpoint>
          <Trackpoint>
            <Time>2019-10-05T10:17:50.000Z</Time>
            <Position>
              <LatitudeDegrees>42.1795685403048992156982421875</LatitudeDegrees>
              <LongitudeDegrees>-5.5881060473620891571044921875</LongitudeDegrees>
            </Position>
            <AltitudeMeters>625.79998779296875</AltitudeMeters>
            <DistanceMeters>NAN</DistanceMeters>
          </Trackpoint>
          <Trackpoint>
            <Time>2019-10-05T10:17:58.000Z</Time>
            <Position>
              <LatitudeDegrees>42.1791355311870574951171875</LatitudeDegrees>
              <LongitudeDegrees>-5.58822548948228359222412109375</LongitudeDegrees>
            </Position>
            <AltitudeMeters>626.5999755859375</AltitudeMeters>
            <DistanceMeters>NAN</DistanceMeters>
          </Trackpoint>
          <Trackpoint>
            <Time>2019-10-05T10:18:08.000Z</Time>
            <Position>
              <LatitudeDegrees>42.17861182987689971923828125</LatitudeDegrees>
              <LongitudeDegrees>-5.5883806385099887847900390625</LongitudeDegrees>
            </Position>
            <AltitudeMeters>626.79998779296875</AltitudeMeters>
            <DistanceMeters>NAN</DistanceMeters>
          </Trackpoint>
          <Trackpoint>
            <Time>2019-10-05T10:18:09.000Z</Time>
            <Position>
              <LatitudeDegrees>42.178559191524982452392578125</LatitudeDegrees>
              <LongitudeDegrees>-5.58839413337409496307373046875</LongitudeDegrees>
            </Position>
            <AltitudeMeters>626.5999755859375</AltitudeMeters>
            <DistanceMeters>NAN</DistanceMeters>
          </Trackpoint>
          <Trackpoint>
            <Time>2019-10-05T10:18:19.000Z</Time>
            <Position>
              <LatitudeDegrees>42.17804060317575931549072265625</LatitudeDegrees>
              <LongitudeDegrees>-5.58854718692600727081298828125</LongitudeDegrees>
            </Position>
            <AltitudeMeters>626.4000244140625</AltitudeMeters>
            <DistanceMeters>NAN</DistanceMeters>
          </Trackpoint>
          <Trackpoint>
            <Time>2019-10-05T10:18:22.000Z</Time>
            <Position>
              <LatitudeDegrees>42.17788520269095897674560546875</LatitudeDegrees>
              <LongitudeDegrees>-5.58859546668827533721923828125</LongitudeDegrees>
            </Position>
            <AltitudeMeters>626.5999755859375</AltitudeMeters>
            <DistanceMeters>NAN</DistanceMeters>
          </Trackpoint>
          <Trackpoint>
            <Time>2019-10-05T10:18:31.000Z</Time>
            <Position>
              <LatitudeDegrees>42.17740491963922977447509765625</LatitudeDegrees>
              <LongitudeDegrees>-5.588724799454212188720703125</LongitudeDegrees>
            </Position>
            <AltitudeMeters>626.79998779296875</AltitudeMeters>
            <DistanceMeters>NAN</DistanceMeters>
          </Trackpoint>
          <Trackpoint>
            <Time>2019-10-05T10:18:32.000Z</Time>
            <Position>
              <LatitudeDegrees>42.1773518621921539306640625</LatitudeDegrees>
              <LongitudeDegrees>-5.58874097652733325958251953125</LongitudeDegrees>
            </Position>
            <AltitudeMeters>627.20001220703125</AltitudeMeters>
            <DistanceMeters>NAN</DistanceMeters>
          </Trackpoint>
          <Trackpoint>
            <Time>2019-10-05T10:18:40.000Z</Time>
            <Position>
              <LatitudeDegrees>42.17692614533007144927978515625</LatitudeDegrees>
              <LongitudeDegrees>-5.58886117301881313323974609375</LongitudeDegrees>
            </Position>
            <AltitudeMeters>626.4000244140625</AltitudeMeters>
            <DistanceMeters>NAN</DistanceMeters>
          </Trackpoint>
          <Trackpoint>
            <Time>2019-10-05T10:18:41.000Z</Time>
            <Position>
              <LatitudeDegrees>42.17687333934009075164794921875</LatitudeDegrees>
              <LongitudeDegrees>-5.5888760089874267578125</LongitudeDegrees>
            </Position>
            <AltitudeMeters>626.20001220703125</AltitudeMeters>
            <DistanceMeters>NAN</DistanceMeters>
          </Trackpoint>
          <Trackpoint>
            <Time>2019-10-05T10:18:51.000Z</Time>
            <Position>
              <LatitudeDegrees>42.17635064385831356048583984375</LatitudeDegrees>
              <LongitudeDegrees>-5.58902017772197723388671875</LongitudeDegrees>
            </Position>
            <AltitudeMeters>626.4000244140625</AltitudeMeters>
            <DistanceMeters>NAN</DistanceMeters>
          </Trackpoint>
          <Trackpoint>
            <Time>2019-10-05T10:18:52.000Z</Time>
            <Position>
              <LatitudeDegrees>42.1762969158589839935302734375</LatitudeDegrees>
              <LongitudeDegrees>-5.5890347622334957122802734375</LongitudeDegrees>
            </Position>
            <AltitudeMeters>626.5999755859375</AltitudeMeters>
            <DistanceMeters>NAN</DistanceMeters>
          </Trackpoint>
          <Trackpoint>
            <Time>2019-10-05T10:19:01.000Z</Time>
            <Position>
              <LatitudeDegrees>42.17581017874181270599365234375</LatitudeDegrees>
              <LongitudeDegrees>-5.5891745723783969879150390625</LongitudeDegrees>
            </Position>
            <AltitudeMeters>626.5999755859375</AltitudeMeters>
            <DistanceMeters>NAN</DistanceMeters>
          </Trackpoint>
          <Trackpoint>
            <Time>2019-10-05T10:19:02.000Z</Time>
            <Position>
              <LatitudeDegrees>42.175754941999912261962890625</LatitudeDegrees>
              <LongitudeDegrees>-5.589183457195758819580078125</LongitudeDegrees>
            </Position>
            <AltitudeMeters>626.4000244140625</AltitudeMeters>
            <DistanceMeters>NAN</DistanceMeters>
          </Trackpoint>
          <Trackpoint>
            <Time>2019-10-05T10:19:03.000Z</Time>
            <Position>
              <LatitudeDegrees>42.17570020817220211029052734375</LatitudeDegrees>
              <LongitudeDegrees>-5.58920080773532390594482421875</LongitudeDegrees>
            </Position>
            <AltitudeMeters>626</AltitudeMeters>
            <DistanceMeters>NAN</DistanceMeters>
          </Trackpoint>
          <Trackpoint>
            <Time>2019-10-05T10:19:09.000Z</Time>
            <Position>
              <LatitudeDegrees>42.1753708831965923309326171875</LatitudeDegrees>
              <LongitudeDegrees>-5.589312873780727386474609375</LongitudeDegrees>
            </Position>
            <AltitudeMeters>625.5999755859375</AltitudeMeters>
            <DistanceMeters>NAN</DistanceMeters>
          </Trackpoint>
          <Trackpoint>
            <Time>2019-10-05T10:19:19.000Z</Time>
            <Position>
              <LatitudeDegrees>42.17480787076056003570556640625</LatitudeDegrees>
              <LongitudeDegrees>-5.58948009274899959564208984375</LongitudeDegrees>
            </Position>
            <AltitudeMeters>626.4000244140625</AltitudeMeters>
            <DistanceMeters>NAN</DistanceMeters>
          </Trackpoint>
          <Trackpoint>
            <Time>2019-10-05T10:19:28.000Z</Time>
            <Position>
              <LatitudeDegrees>42.17430629767477512359619140625</LatitudeDegrees>
              <LongitudeDegrees>-5.589616298675537109375</LongitudeDegrees>
            </Position>
            <AltitudeMeters>626.20001220703125</AltitudeMeters>
            <DistanceMeters>NAN</DistanceMeters>
          </Trackpoint>
          <Trackpoint>
            <Time>2019-10-05T10:19:30.000Z</Time>
            <Position>
              <LatitudeDegrees>42.17419716529548168182373046875</LatitudeDegrees>
              <LongitudeDegrees>-5.58965158648788928985595703125</LongitudeDegrees>
            </Position>
            <AltitudeMeters>625.79998779296875</AltitudeMeters>
            <DistanceMeters>NAN</DistanceMeters>
          </Trackpoint>
          <Trackpoint>
            <Time>2019-10-05T10:19:39.000Z</Time>
            <Position>
              <LatitudeDegrees>42.17370464466512203216552734375</LatitudeDegrees>
              <LongitudeDegrees>-5.58979659341275691986083984375</LongitudeDegrees>
            </Position>
            <AltitudeMeters>626</AltitudeMeters>
            <DistanceMeters>NAN</DistanceMeters>
          </Trackpoint>
          <Trackpoint>
            <Time>2019-10-05T10:19:40.000Z</Time>
            <Position>
              <LatitudeDegrees>42.17364882118999958038330078125</LatitudeDegrees>
              <LongitudeDegrees>-5.5898126028478145599365234375</LongitudeDegrees>
            </Position>
            <AltitudeMeters>626</AltitudeMeters>
            <DistanceMeters>NAN</DistanceMeters>
          </Trackpoint>
          <Trackpoint>
            <Time>2019-10-05T10:19:47.000Z</Time>
            <Position>
              <LatitudeDegrees>42.1732666902244091033935546875</LatitudeDegrees>
              <LongitudeDegrees>-5.5899215675890445709228515625</LongitudeDegrees>
            </Position>
            <AltitudeMeters>625.4000244140625</AltitudeMeters>
            <DistanceMeters>NAN</DistanceMeters>
          </Trackpoint>
          <Trackpoint>
            <Time>2019-10-05T10:19:57.000Z</Time>
            <Position>
              <LatitudeDegrees>42.17272781766951084136962890625</LatitudeDegrees>
              <LongitudeDegrees>-5.5900655686855316162109375</LongitudeDegrees>
            </Position>
            <AltitudeMeters>625.5999755859375</AltitudeMeters>
            <DistanceMeters>NAN</DistanceMeters>
          </Trackpoint>
          <Trackpoint>
            <Time>2019-10-05T10:20:00.000Z</Time>
            <Position>
              <LatitudeDegrees>42.172562777996063232421875</LatitudeDegrees>
              <LongitudeDegrees>-5.5901170335710048675537109375</LongitudeDegrees>
            </Position>
            <AltitudeMeters>625.5999755859375</AltitudeMeters>
            <DistanceMeters>NAN</DistanceMeters>
          </Trackpoint>
          <Trackpoint>
            <Time>2019-10-05T10:20:06.000Z</Time>
            <Position>
              <LatitudeDegrees>42.17223110608756542205810546875</LatitudeDegrees>
              <LongitudeDegrees>-5.59021644294261932373046875</LongitudeDegrees>
            </Position>
            <AltitudeMeters>625.4000244140625</AltitudeMeters>
            <DistanceMeters>NAN</DistanceMeters>
          </Trackpoint>
          <Trackpoint>
            <Time>2019-10-05T10:20:10.000Z</Time>
            <Position>
              <LatitudeDegrees>42.1720167808234691619873046875</LatitudeDegrees>
              <LongitudeDegrees>-5.5902772955596446990966796875</LongitudeDegrees>
            </Position>
            <AltitudeMeters>625.5999755859375</AltitudeMeters>
            <DistanceMeters>NAN</DistanceMeters>
          </Trackpoint>
          <Trackpoint>
            <Time>2019-10-05T10:20:14.000Z</Time>
            <Position>
              <LatitudeDegrees>42.17180312611162662506103515625</LatitudeDegrees>
              <LongitudeDegrees>-5.590334795415401458740234375</LongitudeDegrees>
            </Position>
            <AltitudeMeters>625.5999755859375</AltitudeMeters>
            <DistanceMeters>NAN</DistanceMeters>
          </Trackpoint>
          <Trackpoint>
            <Time>2019-10-05T10:20:23.000Z</Time>
            <Position>
              <LatitudeDegrees>42.17132384888827800750732421875</LatitudeDegrees>
              <LongitudeDegrees>-5.59047552756965160369873046875</LongitudeDegrees>
            </Position>
            <AltitudeMeters>625.4000244140625</AltitudeMeters>
            <DistanceMeters>NAN</DistanceMeters>
          </Trackpoint>
          <Trackpoint>
            <Time>2019-10-05T10:20:30.000Z</Time>
            <Position>
              <LatitudeDegrees>42.1709495969116687774658203125</LatitudeDegrees>
              <LongitudeDegrees>-5.59058583341538906097412109375</LongitudeDegrees>
            </Position>
            <AltitudeMeters>625.20001220703125</AltitudeMeters>
            <DistanceMeters>NAN</DistanceMeters>
          </Trackpoint>
          <Trackpoint>
            <Time>2019-10-05T10:20:34.000Z</Time>
            <Position>
              <LatitudeDegrees>42.170733511447906494140625</LatitudeDegrees>
              <LongitudeDegrees>-5.5906454287469387054443359375</LongitudeDegrees>
            </Position>
            <AltitudeMeters>625.20001220703125</AltitudeMeters>
            <DistanceMeters>NAN</DistanceMeters>
          </Trackpoint>
          <Trackpoint>
            <Time>2019-10-05T10:20:44.000Z</Time>
            <Position>
              <LatitudeDegrees>42.1701888553798198699951171875</LatitudeDegrees>
              <LongitudeDegrees>-5.59080560691654682159423828125</LongitudeDegrees>
            </Position>
            <AltitudeMeters>625.20001220703125</AltitudeMeters>
            <DistanceMeters>NAN</DistanceMeters>
          </Trackpoint>
          <Trackpoint>
            <Time>2019-10-05T10:20:54.000Z</Time>
            <Position>
              <LatitudeDegrees>42.16964528895914554595947265625</LatitudeDegrees>
              <LongitudeDegrees>-5.590968467295169830322265625</LongitudeDegrees>
            </Position>
            <AltitudeMeters>624.79998779296875</AltitudeMeters>
            <DistanceMeters>NAN</DistanceMeters>
          </Trackpoint>
          <Trackpoint>
            <Time>2019-10-05T10:20:57.000Z</Time>
            <Position>
              <LatitudeDegrees>42.1694841049611568450927734375</LatitudeDegrees>
              <LongitudeDegrees>-5.5910097062587738037109375</LongitudeDegrees>
            </Position>
            <AltitudeMeters>624.5999755859375</AltitudeMeters>
            <DistanceMeters>NAN</DistanceMeters>
          </Trackpoint>
          <Trackpoint>
            <Time>2019-10-05T10:21:05.000Z</Time>
            <Position>
              <LatitudeDegrees>42.16906073503196239471435546875</LatitudeDegrees>
              <LongitudeDegrees>-5.591134093701839447021484375</LongitudeDegrees>
            </Position>
            <AltitudeMeters>625</AltitudeMeters>
            <DistanceMeters>NAN</DistanceMeters>
          </Trackpoint>
          <Trackpoint>
            <Time>2019-10-05T10:21:13.000Z</Time>
            <Position>
              <LatitudeDegrees>42.16861397959291934967041015625</LatitudeDegrees>
              <LongitudeDegrees>-5.59126828797161579132080078125</LongitudeDegrees>
            </Position>
            <AltitudeMeters>624.79998779296875</AltitudeMeters>
            <DistanceMeters>NAN</DistanceMeters>
          </Trackpoint>
          <Trackpoint>
            <Time>2019-10-05T10:21:21.000Z</Time>
            <Position>
              <LatitudeDegrees>42.16814157553017139434814453125</LatitudeDegrees>
              <LongitudeDegrees>-5.59140508063137531280517578125</LongitudeDegrees>
            </Position>
            <AltitudeMeters>624.4000244140625</AltitudeMeters>
            <DistanceMeters>NAN</DistanceMeters>
          </Trackpoint>
          <Trackpoint>
            <Time>2019-10-05T10:21:22.000Z</Time>
            <Position>
              <LatitudeDegrees>42.16807837598025798797607421875</LatitudeDegrees>
              <LongitudeDegrees>-5.59142452664673328399658203125</LongitudeDegrees>
            </Position>
            <AltitudeMeters>624.5999755859375</AltitudeMeters>
            <DistanceMeters>NAN</DistanceMeters>
          </Trackpoint>
          <Trackpoint>
            <Time>2019-10-05T10:21:29.000Z</Time>
            <Position>
              <LatitudeDegrees>42.16766363941133022308349609375</LatitudeDegrees>
              <LongitudeDegrees>-5.59154455550014972686767578125</LongitudeDegrees>
            </Position>
            <AltitudeMeters>624.4000244140625</AltitudeMeters>
            <DistanceMeters>NAN</DistanceMeters>
          </Trackpoint>
          <Trackpoint>
            <Time>2019-10-05T10:21:30.000Z</Time>
            <Position>
              <LatitudeDegrees>42.16760563664138317108154296875</LatitudeDegrees>
              <LongitudeDegrees>-5.59156291186809539794921875</LongitudeDegrees>
            </Position>
            <AltitudeMeters>624.5999755859375</AltitudeMeters>
            <DistanceMeters>NAN</DistanceMeters>
          </Trackpoint>
          <Trackpoint>
            <Time>2019-10-05T10:21:39.000Z</Time>
            <Position>
              <LatitudeDegrees>42.167074643075466156005859375</LatitudeDegrees>
              <LongitudeDegrees>-5.59171269647777080535888671875</LongitudeDegrees>
            </Position>
            <AltitudeMeters>624.5999755859375</AltitudeMeters>
            <DistanceMeters>NAN</DistanceMeters>
          </Trackpoint>
          <Trackpoint>
            <Time>2019-10-05T10:21:41.000Z</Time>
            <Position>
              <LatitudeDegrees>42.16695721261203289031982421875</LatitudeDegrees>
              <LongitudeDegrees>-5.5917447991669178009033203125</LongitudeDegrees>
            </Position>
            <AltitudeMeters>624.79998779296875</AltitudeMeters>
            <DistanceMeters>NAN</DistanceMeters>
          </Trackpoint>
          <Trackpoint>
            <Time>2019-10-05T10:21:50.000Z</Time>
            <Position>
              <LatitudeDegrees>42.16641205362975597381591796875</LatitudeDegrees>
              <LongitudeDegrees>-5.59190430678427219390869140625</LongitudeDegrees>
            </Position>
            <AltitudeMeters>624.4000244140625</AltitudeMeters>
            <DistanceMeters>NAN</DistanceMeters>
          </Trackpoint>
          <Trackpoint>
            <Time>2019-10-05T10:21:52.000Z</Time>
            <Position>
              <LatitudeDegrees>42.1662889234721660614013671875</LatitudeDegrees>
              <LongitudeDegrees>-5.5919406004250049591064453125</LongitudeDegrees>
            </Position>
            <AltitudeMeters>624.4000244140625</AltitudeMeters>
            <DistanceMeters>NAN</DistanceMeters>
          </Trackpoint>
          <Trackpoint>
            <Time>2019-10-05T10:22:00.000Z</Time>
            <Position>
              <LatitudeDegrees>42.1657907031476497650146484375</LatitudeDegrees>
              <LongitudeDegrees>-5.59208594262599945068359375</LongitudeDegrees>
            </Position>
            <AltitudeMeters>624</AltitudeMeters>
            <DistanceMeters>NAN</DistanceMeters>
          </Trackpoint>
          <Trackpoint>
            <Time>2019-10-05T10:22:02.000Z</Time>
            <Position>
              <LatitudeDegrees>42.16566656716167926788330078125</LatitudeDegrees>
              <LongitudeDegrees>-5.5921223200857639312744140625</LongitudeDegrees>
            </Position>
            <AltitudeMeters>624.20001220703125</AltitudeMeters>
            <DistanceMeters>NAN</DistanceMeters>
          </Trackpoint>
          <Trackpoint>
            <Time>2019-10-05T10:22:11.000Z</Time>
            <Position>
              <LatitudeDegrees>42.16510598547756671905517578125</LatitudeDegrees>
              <LongitudeDegrees>-5.59228300116956233978271484375</LongitudeDegrees>
            </Position>
            <AltitudeMeters>624</AltitudeMeters>
            <DistanceMeters>NAN</DistanceMeters>
          </Trackpoint>
          <Trackpoint>
            <Time>2019-10-05T10:22:13.000Z</Time>
            <Position>
              <LatitudeDegrees>42.16498293913900852203369140625</LatitudeDegrees>
              <LongitudeDegrees>-5.59231988154351711273193359375</LongitudeDegrees>
            </Position>
            <AltitudeMeters>624.20001220703125</AltitudeMeters>
            <DistanceMeters>NAN</DistanceMeters>
          </Trackpoint>
          <Trackpoint>
            <Time>2019-10-05T10:22:22.000Z</Time>
            <Position>
              <LatitudeDegrees>42.1644345112144947052001953125</LatitudeDegrees>
              <LongitudeDegrees>-5.59248500503599643707275390625</LongitudeDegrees>
            </Position>
            <AltitudeMeters>623.79998779296875</AltitudeMeters>
            <DistanceMeters>NAN</DistanceMeters>
          </Trackpoint>
          <Trackpoint>
            <Time>2019-10-05T10:22:25.000Z</Time>
            <Position>
              <LatitudeDegrees>42.16425128281116485595703125</LatitudeDegrees>
              <LongitudeDegrees>-5.5925390683114528656005859375</LongitudeDegrees>
            </Position>
            <AltitudeMeters>623.79998779296875</AltitudeMeters>
            <DistanceMeters>NAN</DistanceMeters>
          </Trackpoint>
          <Trackpoint>
            <Time>2019-10-05T10:22:34.000Z</Time>
            <Position>
              <LatitudeDegrees>42.163703776895999908447265625</LatitudeDegrees>
              <LongitudeDegrees>-5.59269857592880725860595703125</LongitudeDegrees>
            </Position>
            <AltitudeMeters>623.4000244140625</AltitudeMeters>
            <DistanceMeters>NAN</DistanceMeters>
          </Trackpoint>
          <Trackpoint>
            <Time>2019-10-05T10:22:37.000Z</Time>
            <Position>
              <LatitudeDegrees>42.16352113522589206695556640625</LatitudeDegrees>
              <LongitudeDegrees>-5.59275238774716854095458984375</LongitudeDegrees>
            </Position>
            <AltitudeMeters>623.79998779296875</AltitudeMeters>
            <DistanceMeters>NAN</DistanceMeters>
          </Trackpoint>
          <Trackpoint>
            <Time>2019-10-05T10:22:43.000Z</Time>
            <Position>
              <LatitudeDegrees>42.1631554327905178070068359375</LatitudeDegrees>
              <LongitudeDegrees>-5.59285582043230533599853515625</LongitudeDegrees>
            </Position>
            <AltitudeMeters>622.79998779296875</AltitudeMeters>
            <DistanceMeters>NAN</DistanceMeters>
          </Trackpoint>
          <Trackpoint>
            <Time>2019-10-05T10:22:45.000Z</Time>
            <Position>
              <LatitudeDegrees>42.16303213499486446380615234375</LatitudeDegrees>
              <LongitudeDegrees>-5.59289286844432353973388671875</LongitudeDegrees>
            </Position>
            <AltitudeMeters>623</AltitudeMeters>
            <DistanceMeters>NAN</DistanceMeters>
          </Trackpoint>
          <Trackpoint>
            <Time>2019-10-05T10:22:52.000Z</Time>
            <Position>
              <LatitudeDegrees>42.16260574758052825927734375</LatitudeDegrees>
              <LongitudeDegrees>-5.59301775880157947540283203125</LongitudeDegrees>
            </Position>
            <AltitudeMeters>623</AltitudeMeters>
            <DistanceMeters>NAN</DistanceMeters>
          </Trackpoint>
          <Trackpoint>
            <Time>2019-10-05T10:23:01.000Z</Time>
            <Position>
              <LatitudeDegrees>42.1620594151318073272705078125</LatitudeDegrees>
              <LongitudeDegrees>-5.59317500330507755279541015625</LongitudeDegrees>
            </Position>
            <AltitudeMeters>623</AltitudeMeters>
            <DistanceMeters>NAN</DistanceMeters>
          </Trackpoint>
          <Trackpoint>
            <Time>2019-10-05T10:23:03.000Z</Time>
            <Position>
              <LatitudeDegrees>42.1619367040693759918212890625</LatitudeDegrees>
              <LongitudeDegrees>-5.593209452927112579345703125</LongitudeDegrees>
            </Position>
            <AltitudeMeters>623</AltitudeMeters>
            <DistanceMeters>NAN</DistanceMeters>
          </Trackpoint>
          <Trackpoint>
            <Time>2019-10-05T10:23:07.000Z</Time>
            <Position>
              <LatitudeDegrees>42.16169404797255992889404296875</LatitudeDegrees>
              <LongitudeDegrees>-5.59328078292310237884521484375</LongitudeDegrees>
            </Position>
            <AltitudeMeters>623.20001220703125</AltitudeMeters>
            <DistanceMeters>NAN</DistanceMeters>
          </Trackpoint>
          <Trackpoint>
            <Time>2019-10-05T10:23:11.000Z</Time>
            <Position>
              <LatitudeDegrees>42.16145248152315616607666015625</LatitudeDegrees>
              <LongitudeDegrees>-5.59335018508136272430419921875</LongitudeDegrees>
            </Position>
            <AltitudeMeters>623.20001220703125</AltitudeMeters>
            <DistanceMeters>NAN</DistanceMeters>
          </Trackpoint>
          <Trackpoint>
            <Time>2019-10-05T10:23:20.000Z</Time>
            <Position>
              <LatitudeDegrees>42.160905562341213226318359375</LatitudeDegrees>
              <LongitudeDegrees>-5.59350608848035335540771484375</LongitudeDegrees>
            </Position>
            <AltitudeMeters>623.4000244140625</AltitudeMeters>
            <DistanceMeters>NAN</DistanceMeters>
          </Trackpoint>
          <Trackpoint>
            <Time>2019-10-05T10:23:29.000Z</Time>
            <Position>
              <LatitudeDegrees>42.16036434285342693328857421875</LatitudeDegrees>
              <LongitudeDegrees>-5.59366366825997829437255859375</LongitudeDegrees>
            </Position>
            <AltitudeMeters>623.4000244140625</AltitudeMeters>
            <DistanceMeters>NAN</DistanceMeters>
          </Trackpoint>
          <Trackpoint>
            <Time>2019-10-05T10:23:30.000Z</Time>
            <Position>
              <LatitudeDegrees>42.16030365787446498870849609375</LatitudeDegrees>
              <LongitudeDegrees>-5.59368244372308254241943359375</LongitudeDegrees>
            </Position>
            <AltitudeMeters>623.20001220703125</AltitudeMeters>
            <DistanceMeters>NAN</DistanceMeters>
          </Trackpoint>
          <Trackpoint>
            <Time>2019-10-05T10:23:39.000Z</Time>
            <Position>
              <LatitudeDegrees>42.15975162573158740997314453125</LatitudeDegrees>
              <LongitudeDegrees>-5.59384304098784923553466796875</LongitudeDegrees>
            </Position>
            <AltitudeMeters>623.20001220703125</AltitudeMeters>
            <DistanceMeters>NAN</DistanceMeters>
          </Trackpoint>
          <Trackpoint>
            <Time>2019-10-05T10:23:48.000Z</Time>
            <Position>
              <LatitudeDegrees>42.159207053482532501220703125</LatitudeDegrees>
              <LongitudeDegrees>-5.59400900267064571380615234375</LongitudeDegrees>
            </Position>
            <AltitudeMeters>623</AltitudeMeters>
            <DistanceMeters>NAN</DistanceMeters>
          </Trackpoint>
          <Trackpoint>
            <Time>2019-10-05T10:23:56.000Z</Time>
            <Position>
              <LatitudeDegrees>42.1587321348488330841064453125</LatitudeDegrees>
              <LongitudeDegrees>-5.5941473878920078277587890625</LongitudeDegrees>
            </Position>
            <AltitudeMeters>622.4000244140625</AltitudeMeters>
            <DistanceMeters>NAN</DistanceMeters>
          </Trackpoint>
          <Trackpoint>
            <Time>2019-10-05T10:24:05.000Z</Time>
            <Position>
              <LatitudeDegrees>42.1582116186618804931640625</LatitudeDegrees>
              <LongitudeDegrees>-5.59429566375911235809326171875</LongitudeDegrees>
            </Position>
            <AltitudeMeters>623.79998779296875</AltitudeMeters>
            <DistanceMeters>NAN</DistanceMeters>
          </Trackpoint>
          <Trackpoint>
            <Time>2019-10-05T10:24:06.000Z</Time>
            <Position>
              <LatitudeDegrees>42.15815453790128231048583984375</LatitudeDegrees>
              <LongitudeDegrees>-5.5943110026419162750244140625</LongitudeDegrees>
            </Position>
            <AltitudeMeters>623.79998779296875</AltitudeMeters>
            <DistanceMeters>NAN</DistanceMeters>
          </Trackpoint>
          <Trackpoint>
            <Time>2019-10-05T10:24:16.000Z</Time>
            <Position>
              <LatitudeDegrees>42.157593704760074615478515625</LatitudeDegrees>
              <LongitudeDegrees>-5.59446640312671661376953125</LongitudeDegrees>
            </Position>
            <AltitudeMeters>624</AltitudeMeters>
            <DistanceMeters>NAN</DistanceMeters>
          </Trackpoint>
          <Trackpoint>
            <Time>2019-10-05T10:24:19.000Z</Time>
            <Position>
              <LatitudeDegrees>42.15742832981050014495849609375</LatitudeDegrees>
              <LongitudeDegrees>-5.5945161916315555572509765625</LongitudeDegrees>
            </Position>
            <AltitudeMeters>623.79998779296875</AltitudeMeters>
            <DistanceMeters>NAN</DistanceMeters>
          </Trackpoint>
          <Trackpoint>
            <Time>2019-10-05T10:24:28.000Z</Time>
            <Position>
              <LatitudeDegrees>42.1569249965250492095947265625</LatitudeDegrees>
              <LongitudeDegrees>-5.59466798789799213409423828125</LongitudeDegrees>
            </Position>
            <AltitudeMeters>623.5999755859375</AltitudeMeters>
            <DistanceMeters>NAN</DistanceMeters>
          </Trackpoint>
          <Trackpoint>
            <Time>2019-10-05T10:24:38.000Z</Time>
            <Position>
              <LatitudeDegrees>42.15636634267866611480712890625</LatitudeDegrees>
              <LongitudeDegrees>-5.5948318541049957275390625</LongitudeDegrees>
            </Position>
            <AltitudeMeters>623.20001220703125</AltitudeMeters>
            <DistanceMeters>NAN</DistanceMeters>
          </Trackpoint>
          <Trackpoint>
            <Time>2019-10-05T10:24:39.000Z</Time>
            <Position>
              <LatitudeDegrees>42.156312279403209686279296875</LatitudeDegrees>
              <LongitudeDegrees>-5.59484886936843395233154296875</LongitudeDegrees>
            </Position>
            <AltitudeMeters>623</AltitudeMeters>
            <DistanceMeters>NAN</DistanceMeters>
          </Trackpoint>
          <Trackpoint>
            <Time>2019-10-05T10:24:49.000Z</Time>
            <Position>
              <LatitudeDegrees>42.15576536022126674652099609375</LatitudeDegrees>
              <LongitudeDegrees>-5.595010556280612945556640625</LongitudeDegrees>
            </Position>
            <AltitudeMeters>623.79998779296875</AltitudeMeters>
            <DistanceMeters>NAN</DistanceMeters>
          </Trackpoint>
          <Trackpoint>
            <Time>2019-10-05T10:24:51.000Z</Time>
            <Position>
              <LatitudeDegrees>42.1556556411087512969970703125</LatitudeDegrees>
              <LongitudeDegrees>-5.59504349716007709503173828125</LongitudeDegrees>
            </Position>
            <AltitudeMeters>624</AltitudeMeters>
            <DistanceMeters>NAN</DistanceMeters>
          </Trackpoint>
          <Trackpoint>
            <Time>2019-10-05T10:25:01.000Z</Time>
            <Position>
              <LatitudeDegrees>42.1551061235368251800537109375</LatitudeDegrees>
              <LongitudeDegrees>-5.59519520960748195648193359375</LongitudeDegrees>
            </Position>
            <AltitudeMeters>623.4000244140625</AltitudeMeters>
            <DistanceMeters>NAN</DistanceMeters>
          </Trackpoint>
          <Trackpoint>
            <Time>2019-10-05T10:25:11.000Z</Time>
            <Position>
              <LatitudeDegrees>42.15456490404903888702392578125</LatitudeDegrees>
              <LongitudeDegrees>-5.595353543758392333984375</LongitudeDegrees>
            </Position>
            <AltitudeMeters>623.5999755859375</AltitudeMeters>
            <DistanceMeters>NAN</DistanceMeters>
          </Trackpoint>
          <Trackpoint>
            <Time>2019-10-05T10:25:15.000Z</Time>
            <Position>
              <LatitudeDegrees>42.154350243508815765380859375</LatitudeDegrees>
              <LongitudeDegrees>-5.5954180844128131866455078125</LongitudeDegrees>
            </Position>
            <AltitudeMeters>623.5999755859375</AltitudeMeters>
            <DistanceMeters>NAN</DistanceMeters>
          </Trackpoint>
          <Trackpoint>
            <Time>2019-10-05T10:25:25.000Z</Time>
            <Position>
              <LatitudeDegrees>42.15380684472620487213134765625</LatitudeDegrees>
              <LongitudeDegrees>-5.59557222761213779449462890625</LongitudeDegrees>
            </Position>
            <AltitudeMeters>624</AltitudeMeters>
            <DistanceMeters>NAN</DistanceMeters>
          </Trackpoint>
          <Trackpoint>
            <Time>2019-10-05T10:25:34.000Z</Time>
            <Position>
              <LatitudeDegrees>42.15331817977130413055419921875</LatitudeDegrees>
              <LongitudeDegrees>-5.59571187011897563934326171875</LongitudeDegrees>
            </Position>
            <AltitudeMeters>624.20001220703125</AltitudeMeters>
            <DistanceMeters>NAN</DistanceMeters>
          </Trackpoint>
          <Trackpoint>
            <Time>2019-10-05T10:25:41.000Z</Time>
            <Position>
              <LatitudeDegrees>42.152926661074161529541015625</LatitudeDegrees>
              <LongitudeDegrees>-5.59582033194601535797119140625</LongitudeDegrees>
            </Position>
            <AltitudeMeters>624</AltitudeMeters>
            <DistanceMeters>NAN</DistanceMeters>
          </Trackpoint>
          <Trackpoint>
            <Time>2019-10-05T10:25:48.000Z</Time>
            <Position>
              <LatitudeDegrees>42.1525117568671703338623046875</LatitudeDegrees>
              <LongitudeDegrees>-5.59594186954200267791748046875</LongitudeDegrees>
            </Position>
            <AltitudeMeters>624</AltitudeMeters>
            <DistanceMeters>NAN</DistanceMeters>
          </Trackpoint>
          <Trackpoint>
            <Time>2019-10-05T10:25:56.000Z</Time>
            <Position>
              <LatitudeDegrees>42.15206273831427097320556640625</LatitudeDegrees>
              <LongitudeDegrees>-5.5960792489349842071533203125</LongitudeDegrees>
            </Position>
            <AltitudeMeters>623.20001220703125</AltitudeMeters>
            <DistanceMeters>NAN</DistanceMeters>
          </Trackpoint>
          <Trackpoint>
            <Time>2019-10-05T10:26:06.000Z</Time>
            <Position>
              <LatitudeDegrees>42.15151011943817138671875</LatitudeDegrees>
              <LongitudeDegrees>-5.5962361581623554229736328125</LongitudeDegrees>
            </Position>
            <AltitudeMeters>623.4000244140625</AltitudeMeters>
            <DistanceMeters>NAN</DistanceMeters>
          </Trackpoint>
          <Trackpoint>
            <Time>2019-10-05T10:26:07.000Z</Time>
            <Position>
              <LatitudeDegrees>42.15145421214401721954345703125</LatitudeDegrees>
              <LongitudeDegrees>-5.59625149704515933990478515625</LongitudeDegrees>
            </Position>
            <AltitudeMeters>623.4000244140625</AltitudeMeters>
            <DistanceMeters>NAN</DistanceMeters>
          </Trackpoint>
          <Trackpoint>
            <Time>2019-10-05T10:26:12.000Z</Time>
            <Position>
              <LatitudeDegrees>42.15117543004453182220458984375</LatitudeDegrees>
              <LongitudeDegrees>-5.59633615426719188690185546875</LongitudeDegrees>
            </Position>
            <AltitudeMeters>622.79998779296875</AltitudeMeters>
            <DistanceMeters>NAN</DistanceMeters>
          </Trackpoint>
          <Trackpoint>
            <Time>2019-10-05T10:26:20.000Z</Time>
            <Position>
              <LatitudeDegrees>42.15072800405323505401611328125</LatitudeDegrees>
              <LongitudeDegrees>-5.5964631401002407073974609375</LongitudeDegrees>
            </Position>
            <AltitudeMeters>622.5999755859375</AltitudeMeters>
            <DistanceMeters>NAN</DistanceMeters>
          </Trackpoint>
          <Trackpoint>
            <Time>2019-10-05T10:26:29.000Z</Time>
            <Position>
              <LatitudeDegrees>42.1502258442342281341552734375</LatitudeDegrees>
              <LongitudeDegrees>-5.59661686420440673828125</LongitudeDegrees>
            </Position>
            <AltitudeMeters>622.4000244140625</AltitudeMeters>
            <DistanceMeters>NAN</DistanceMeters>
          </Trackpoint>
          <Trackpoint>
            <Time>2019-10-05T10:26:33.000Z</Time>
            <Position>
              <LatitudeDegrees>42.15000363998115062713623046875</LatitudeDegrees>
              <LongitudeDegrees>-5.59667612425982952117919921875</LongitudeDegrees>
            </Position>
            <AltitudeMeters>622.4000244140625</AltitudeMeters>
            <DistanceMeters>NAN</DistanceMeters>
          </Trackpoint>
          <Trackpoint>
            <Time>2019-10-05T10:26:42.000Z</Time>
            <Position>
              <LatitudeDegrees>42.149508185684680938720703125</LatitudeDegrees>
              <LongitudeDegrees>-5.59683705680072307586669921875</LongitudeDegrees>
            </Position>
            <AltitudeMeters>622.5999755859375</AltitudeMeters>
            <DistanceMeters>NAN</DistanceMeters>
          </Trackpoint>
          <Trackpoint>
            <Time>2019-10-05T10:26:51.000Z</Time>
            <Position>
              <LatitudeDegrees>42.14902195148169994354248046875</LatitudeDegrees>
              <LongitudeDegrees>-5.59706144034862518310546875</LongitudeDegrees>
            </Position>
            <AltitudeMeters>622.4000244140625</AltitudeMeters>
            <DistanceMeters>NAN</DistanceMeters>
          </Trackpoint>
          <Trackpoint>
            <Time>2019-10-05T10:27:00.000Z</Time>
            <Position>
              <LatitudeDegrees>42.1485578455030918121337890625</LatitudeDegrees>
              <LongitudeDegrees>-5.597373582422733306884765625</LongitudeDegrees>
            </Position>
            <AltitudeMeters>622.79998779296875</AltitudeMeters>
            <DistanceMeters>NAN</DistanceMeters>
          </Trackpoint>
          <Trackpoint>
            <Time>2019-10-05T10:27:09.000Z</Time>
            <Position>
              <LatitudeDegrees>42.148144952952861785888671875</LatitudeDegrees>
              <LongitudeDegrees>-5.5977767519652843475341796875</LongitudeDegrees>
            </Position>
            <AltitudeMeters>622.79998779296875</AltitudeMeters>
            <DistanceMeters>NAN</DistanceMeters>
          </Trackpoint>
          <Trackpoint>
            <Time>2019-10-05T10:27:16.000Z</Time>
            <Position>
              <LatitudeDegrees>42.14783440344035625457763671875</LatitudeDegrees>
              <LongitudeDegrees>-5.59811018407344818115234375</LongitudeDegrees>
            </Position>
            <AltitudeMeters>623</AltitudeMeters>
            <DistanceMeters>NAN</DistanceMeters>
          </Trackpoint>
          <Trackpoint>
            <Time>2019-10-05T10:27:26.000Z</Time>
            <Position>
              <LatitudeDegrees>42.14738957583904266357421875</LatitudeDegrees>
              <LongitudeDegrees>-5.59859524480998516082763671875</LongitudeDegrees>
            </Position>
            <AltitudeMeters>623</AltitudeMeters>
            <DistanceMeters>NAN</DistanceMeters>
          </Trackpoint>
          <Trackpoint>
            <Time>2019-10-05T10:27:35.000Z</Time>
            <Position>
              <LatitudeDegrees>42.14700208045542240142822265625</LatitudeDegrees>
              <LongitudeDegrees>-5.5990182794630527496337890625</LongitudeDegrees>
            </Position>
            <AltitudeMeters>623.20001220703125</AltitudeMeters>
            <DistanceMeters>NAN</DistanceMeters>
          </Trackpoint>
          <Trackpoint>
            <Time>2019-10-05T10:27:42.000Z</Time>
            <Position>
              <LatitudeDegrees>42.1466853283345699310302734375</LatitudeDegrees>
              <LongitudeDegrees>-5.5993076227605342864990234375</LongitudeDegrees>
            </Position>
            <AltitudeMeters>624</AltitudeMeters>
            <DistanceMeters>NAN</DistanceMeters>
          </Trackpoint>
          <Trackpoint>
            <Time>2019-10-05T10:27:43.000Z</Time>
            <Position>
              <LatitudeDegrees>42.1466400660574436187744140625</LatitudeDegrees>
              <LongitudeDegrees>-5.59934307821094989776611328125</LongitudeDegrees>
            </Position>
            <AltitudeMeters>623.79998779296875</AltitudeMeters>
            <DistanceMeters>NAN</DistanceMeters>
          </Trackpoint>
          <Trackpoint>
            <Time>2019-10-05T10:27:48.000Z</Time>
            <Position>
              <LatitudeDegrees>42.14640042744576930999755859375</LatitudeDegrees>
              <LongitudeDegrees>-5.599508620798587799072265625</LongitudeDegrees>
            </Position>
            <AltitudeMeters>622.79998779296875</AltitudeMeters>
            <DistanceMeters>NAN</DistanceMeters>
          </Trackpoint>
          <Trackpoint>
            <Time>2019-10-05T10:27:51.000Z</Time>
            <Position>
              <LatitudeDegrees>42.14625072665512561798095703125</LatitudeDegrees>
              <LongitudeDegrees>-5.59959336183965206146240234375</LongitudeDegrees>
            </Position>
            <AltitudeMeters>623.5999755859375</AltitudeMeters>
            <DistanceMeters>NAN</DistanceMeters>
          </Trackpoint>
          <Trackpoint>
            <Time>2019-10-05T10:27:59.000Z</Time>
            <Position>
              <LatitudeDegrees>42.14583330787718296051025390625</LatitudeDegrees>
              <LongitudeDegrees>-5.59975437819957733154296875</LongitudeDegrees>
            </Position>
            <AltitudeMeters>623.79998779296875</AltitudeMeters>
            <DistanceMeters>NAN</DistanceMeters>
          </Trackpoint>
          <Trackpoint>
            <Time>2019-10-05T10:28:00.000Z</Time>
            <Position>
              <LatitudeDegrees>42.1457814238965511322021484375</LatitudeDegrees>
              <LongitudeDegrees>-5.5997698009014129638671875</LongitudeDegrees>
            </Position>
            <AltitudeMeters>623.79998779296875</AltitudeMeters>
            <DistanceMeters>NAN</DistanceMeters>
          </Trackpoint>
          <Trackpoint>
            <Time>2019-10-05T10:28:03.000Z</Time>
            <Position>
              <LatitudeDegrees>42.14562308974564075469970703125</LatitudeDegrees>
              <LongitudeDegrees>-5.59980575926601886749267578125</LongitudeDegrees>
            </Position>
            <AltitudeMeters>624</AltitudeMeters>
            <DistanceMeters>NAN</DistanceMeters>
          </Trackpoint>
          <Trackpoint>
            <Time>2019-10-05T10:28:06.000Z</Time>
            <Position>
              <LatitudeDegrees>42.14545897208154201507568359375</LatitudeDegrees>
              <LongitudeDegrees>-5.59984113089740276336669921875</LongitudeDegrees>
            </Position>
            <AltitudeMeters>624.20001220703125</AltitudeMeters>
            <DistanceMeters>NAN</DistanceMeters>
          </Trackpoint>
          <Trackpoint>
            <Time>2019-10-05T10:28:16.000Z</Time>
            <Position>
              <LatitudeDegrees>42.14491926133632659912109375</LatitudeDegrees>
              <LongitudeDegrees>-5.59995881281793117523193359375</LongitudeDegrees>
            </Position>
            <AltitudeMeters>623.79998779296875</AltitudeMeters>
            <DistanceMeters>NAN</DistanceMeters>
          </Trackpoint>
          <Trackpoint>
            <Time>2019-10-05T10:28:17.000Z</Time>
            <Position>
              <LatitudeDegrees>42.14486503042280673980712890625</LatitudeDegrees>
              <LongitudeDegrees>-5.599969290196895599365234375</LongitudeDegrees>
            </Position>
            <AltitudeMeters>624</AltitudeMeters>
            <DistanceMeters>NAN</DistanceMeters>
          </Trackpoint>
          <Trackpoint>
            <Time>2019-10-05T10:28:27.000Z</Time>
            <Position>
              <LatitudeDegrees>42.1443209610879421234130859375</LatitudeDegrees>
              <LongitudeDegrees>-5.6000623293220996856689453125</LongitudeDegrees>
            </Position>
            <AltitudeMeters>623.79998779296875</AltitudeMeters>
            <DistanceMeters>NAN</DistanceMeters>
          </Trackpoint>
          <Trackpoint>
            <Time>2019-10-05T10:28:28.000Z</Time>
            <Position>
              <LatitudeDegrees>42.14426723308861255645751953125</LatitudeDegrees>
              <LongitudeDegrees>-5.60007263906300067901611328125</LongitudeDegrees>
            </Position>
            <AltitudeMeters>623.79998779296875</AltitudeMeters>
            <DistanceMeters>NAN</DistanceMeters>
          </Trackpoint>
          <Trackpoint>
            <Time>2019-10-05T10:28:37.000Z</Time>
            <Position>
              <LatitudeDegrees>42.14376381598412990570068359375</LatitudeDegrees>
              <LongitudeDegrees>-5.600159727036952972412109375</LongitudeDegrees>
            </Position>
            <AltitudeMeters>623.5999755859375</AltitudeMeters>
            <DistanceMeters>NAN</DistanceMeters>
          </Trackpoint>
          <Trackpoint>
            <Time>2019-10-05T10:28:45.000Z</Time>
            <Position>
              <LatitudeDegrees>42.14330951683223247528076171875</LatitudeDegrees>
              <LongitudeDegrees>-5.60024698264896869659423828125</LongitudeDegrees>
            </Position>
            <AltitudeMeters>623.20001220703125</AltitudeMeters>
            <DistanceMeters>NAN</DistanceMeters>
          </Trackpoint>
          <Trackpoint>
            <Time>2019-10-05T10:28:54.000Z</Time>
            <Position>
              <LatitudeDegrees>42.14279201813042163848876953125</LatitudeDegrees>
              <LongitudeDegrees>-5.60034605674445629119873046875</LongitudeDegrees>
            </Position>
            <AltitudeMeters>623.20001220703125</AltitudeMeters>
            <DistanceMeters>NAN</DistanceMeters>
          </Trackpoint>
          <Trackpoint>
            <Time>2019-10-05T10:28:55.000Z</Time>
            <Position>
              <LatitudeDegrees>42.14273703284561634063720703125</LatitudeDegrees>
              <LongitudeDegrees>-5.600357539951801300048828125</LongitudeDegrees>
            </Position>
            <AltitudeMeters>623.20001220703125</AltitudeMeters>
            <DistanceMeters>NAN</DistanceMeters>
          </Trackpoint>
          <Trackpoint>
            <Time>2019-10-05T10:29:05.000Z</Time>
            <Position>
              <LatitudeDegrees>42.14219748973846435546875</LatitudeDegrees>
              <LongitudeDegrees>-5.60046407394111156463623046875</LongitudeDegrees>
            </Position>
            <AltitudeMeters>623.5999755859375</AltitudeMeters>
            <DistanceMeters>NAN</DistanceMeters>
          </Trackpoint>
          <Trackpoint>
            <Time>2019-10-05T10:29:08.000Z</Time>
            <Position>
              <LatitudeDegrees>42.14203588664531707763671875</LatitudeDegrees>
              <LongitudeDegrees>-5.6004924885928630828857421875</LongitudeDegrees>
            </Position>
            <AltitudeMeters>622.4000244140625</AltitudeMeters>
            <DistanceMeters>NAN</DistanceMeters>
          </Trackpoint>
          <Trackpoint>
            <Time>2019-10-05T10:29:15.000Z</Time>
            <Position>
              <LatitudeDegrees>42.14166314341127872467041015625</LatitudeDegrees>
              <LongitudeDegrees>-5.60056616552174091339111328125</LongitudeDegrees>
            </Position>
            <AltitudeMeters>623.20001220703125</AltitudeMeters>
            <DistanceMeters>NAN</DistanceMeters>
          </Trackpoint>
          <Trackpoint>
            <Time>2019-10-05T10:29:24.000Z</Time>
            <Position>
              <LatitudeDegrees>42.1411774121224880218505859375</LatitudeDegrees>
              <LongitudeDegrees>-5.6006587855517864227294921875</LongitudeDegrees>
            </Position>
            <AltitudeMeters>623</AltitudeMeters>
            <DistanceMeters>NAN</DistanceMeters>
          </Trackpoint>
          <Trackpoint>
            <Time>2019-10-05T10:29:34.000Z</Time>
            <Position>
              <LatitudeDegrees>42.14063283987343311309814453125</LatitudeDegrees>
              <LongitudeDegrees>-5.60077940113842487335205078125</LongitudeDegrees>
            </Position>
            <AltitudeMeters>622.79998779296875</AltitudeMeters>
            <DistanceMeters>NAN</DistanceMeters>
          </Trackpoint>
          <Trackpoint>
            <Time>2019-10-05T10:29:37.000Z</Time>
            <Position>
              <LatitudeDegrees>42.1404689736664295196533203125</LatitudeDegrees>
              <LongitudeDegrees>-5.60080982744693756103515625</LongitudeDegrees>
            </Position>
            <AltitudeMeters>622.79998779296875</AltitudeMeters>
            <DistanceMeters>NAN</DistanceMeters>
          </Trackpoint>
          <Trackpoint>
            <Time>2019-10-05T10:29:41.000Z</Time>
            <Position>
              <LatitudeDegrees>42.14025221765041351318359375</LatitudeDegrees>
              <LongitudeDegrees>-5.60084712691605091094970703125</LongitudeDegrees>
            </Position>
            <AltitudeMeters>623</AltitudeMeters>
            <DistanceMeters>NAN</DistanceMeters>
          </Trackpoint>
          <Trackpoint>
            <Time>2019-10-05T10:29:45.000Z</Time>
            <Position>
              <LatitudeDegrees>42.140038646757602691650390625</LatitudeDegrees>
              <LongitudeDegrees>-5.60088534839451313018798828125</LongitudeDegrees>
            </Position>
            <AltitudeMeters>623.4000244140625</AltitudeMeters>
            <DistanceMeters>NAN</DistanceMeters>
          </Trackpoint>
          <Trackpoint>
            <Time>2019-10-05T10:29:50.000Z</Time>
            <Position>
              <LatitudeDegrees>42.13976732455193996429443359375</LatitudeDegrees>
              <LongitudeDegrees>-5.60094066895544528961181640625</LongitudeDegrees>
            </Position>
            <AltitudeMeters>623.20001220703125</AltitudeMeters>
            <DistanceMeters>NAN</DistanceMeters>
          </Trackpoint>
          <Trackpoint>
            <Time>2019-10-05T10:29:55.000Z</Time>
            <Position>
              <LatitudeDegrees>42.1394978463649749755859375</LatitudeDegrees>
              <LongitudeDegrees>-5.60099431313574314117431640625</LongitudeDegrees>
            </Position>
            <AltitudeMeters>622.5999755859375</AltitudeMeters>
            <DistanceMeters>NAN</DistanceMeters>
          </Trackpoint>
          <Trackpoint>
            <Time>2019-10-05T10:29:59.000Z</Time>
            <Position>
              <LatitudeDegrees>42.139278240501880645751953125</LatitudeDegrees>
              <LongitudeDegrees>-5.60103387571871280670166015625</LongitudeDegrees>
            </Position>
            <AltitudeMeters>622.5999755859375</AltitudeMeters>
            <DistanceMeters>NAN</DistanceMeters>
          </Trackpoint>
          <Trackpoint>
            <Time>2019-10-05T10:30:00.000Z</Time>
            <Position>
              <LatitudeDegrees>42.1392234228551387786865234375</LatitudeDegrees>
              <LongitudeDegrees>-5.6010467000305652618408203125</LongitudeDegrees>
            </Position>
            <AltitudeMeters>622.4000244140625</AltitudeMeters>
            <DistanceMeters>NAN</DistanceMeters>
          </Trackpoint>
          <Trackpoint>
            <Time>2019-10-05T10:30:08.000Z</Time>
            <Position>
              <LatitudeDegrees>42.138777673244476318359375</LatitudeDegrees>
              <LongitudeDegrees>-5.60113311745226383209228515625</LongitudeDegrees>
            </Position>
            <AltitudeMeters>623.4000244140625</AltitudeMeters>
            <DistanceMeters>NAN</DistanceMeters>
          </Trackpoint>
          <Trackpoint>
            <Time>2019-10-05T10:30:09.000Z</Time>
            <Position>
              <LatitudeDegrees>42.138722352683544158935546875</LatitudeDegrees>
              <LongitudeDegrees>-5.601143427193164825439453125</LongitudeDegrees>
            </Position>
            <AltitudeMeters>623.5999755859375</AltitudeMeters>
            <DistanceMeters>NAN</DistanceMeters>
          </Trackpoint>
          <Trackpoint>
            <Time>2019-10-05T10:30:18.000Z</Time>
            <Position>
              <LatitudeDegrees>42.13823075406253337860107421875</LatitudeDegrees>
              <LongitudeDegrees>-5.60122783295810222625732421875</LongitudeDegrees>
            </Position>
            <AltitudeMeters>623.5999755859375</AltitudeMeters>
            <DistanceMeters>NAN</DistanceMeters>
          </Trackpoint>
          <Trackpoint>
            <Time>2019-10-05T10:30:28.000Z</Time>
            <Position>
              <LatitudeDegrees>42.1376838348805904388427734375</LatitudeDegrees>
              <LongitudeDegrees>-5.60132975690066814422607421875</LongitudeDegrees>
            </Position>
            <AltitudeMeters>623.20001220703125</AltitudeMeters>
            <DistanceMeters>NAN</DistanceMeters>
          </Trackpoint>
          <Trackpoint>
            <Time>2019-10-05T10:30:30.000Z</Time>
            <Position>
              <LatitudeDegrees>42.13757403194904327392578125</LatitudeDegrees>
              <LongitudeDegrees>-5.60134786181151866912841796875</LongitudeDegrees>
            </Position>
            <AltitudeMeters>623.4000244140625</AltitudeMeters>
            <DistanceMeters>NAN</DistanceMeters>
          </Trackpoint>
          <Trackpoint>
            <Time>2019-10-05T10:30:39.000Z</Time>
            <Position>
              <LatitudeDegrees>42.13708897121250629425048828125</LatitudeDegrees>
              <LongitudeDegrees>-5.60143536888062953948974609375</LongitudeDegrees>
            </Position>
            <AltitudeMeters>622.79998779296875</AltitudeMeters>
            <DistanceMeters>NAN</DistanceMeters>
          </Trackpoint>
          <Trackpoint>
            <Time>2019-10-05T10:30:49.000Z</Time>
            <Position>
              <LatitudeDegrees>42.1365445666015148162841796875</LatitudeDegrees>
              <LongitudeDegrees>-5.60153628699481487274169921875</LongitudeDegrees>
            </Position>
            <AltitudeMeters>623.20001220703125</AltitudeMeters>
            <DistanceMeters>NAN</DistanceMeters>
          </Trackpoint>
          <Trackpoint>
            <Time>2019-10-05T10:30:59.000Z</Time>
            <Position>
              <LatitudeDegrees>42.13599513284862041473388671875</LatitudeDegrees>
              <LongitudeDegrees>-5.60163854621350765228271484375</LongitudeDegrees>
            </Position>
            <AltitudeMeters>622.5999755859375</AltitudeMeters>
            <DistanceMeters>NAN</DistanceMeters>
          </Trackpoint>
          <Trackpoint>
            <Time>2019-10-05T10:31:00.000Z</Time>
            <Position>
              <LatitudeDegrees>42.13594056665897369384765625</LatitudeDegrees>
              <LongitudeDegrees>-5.60165011323988437652587890625</LongitudeDegrees>
            </Position>
            <AltitudeMeters>622.5999755859375</AltitudeMeters>
            <DistanceMeters>NAN</DistanceMeters>
          </Trackpoint>
          <Trackpoint>
            <Time>2019-10-05T10:31:03.000Z</Time>
            <Position>
              <LatitudeDegrees>42.13577820919454097747802734375</LatitudeDegrees>
              <LongitudeDegrees>-5.60168431140482425689697265625</LongitudeDegrees>
            </Position>
            <AltitudeMeters>622.5999755859375</AltitudeMeters>
            <DistanceMeters>NAN</DistanceMeters>
          </Trackpoint>
          <Trackpoint>
            <Time>2019-10-05T10:31:09.000Z</Time>
            <Position>
              <LatitudeDegrees>42.135450057685375213623046875</LatitudeDegrees>
              <LongitudeDegrees>-5.601737201213836669921875</LongitudeDegrees>
            </Position>
            <AltitudeMeters>622.5999755859375</AltitudeMeters>
            <DistanceMeters>NAN</DistanceMeters>
          </Trackpoint>
          <Trackpoint>
            <Time>2019-10-05T10:31:19.000Z</Time>
            <Position>
              <LatitudeDegrees>42.1349037252366542816162109375</LatitudeDegrees>
              <LongitudeDegrees>-5.601839460432529449462890625</LongitudeDegrees>
            </Position>
            <AltitudeMeters>623.20001220703125</AltitudeMeters>
            <DistanceMeters>NAN</DistanceMeters>
          </Trackpoint>
          <Trackpoint>
            <Time>2019-10-05T10:31:21.000Z</Time>
            <Position>
              <LatitudeDegrees>42.13479249738156795501708984375</LatitudeDegrees>
              <LongitudeDegrees>-5.60186318121850490570068359375</LongitudeDegrees>
            </Position>
            <AltitudeMeters>623.4000244140625</AltitudeMeters>
            <DistanceMeters>NAN</DistanceMeters>
          </Trackpoint>
          <Trackpoint>
            <Time>2019-10-05T10:31:30.000Z</Time>
            <Position>
              <LatitudeDegrees>42.13429444469511508941650390625</LatitudeDegrees>
              <LongitudeDegrees>-5.6019506044685840606689453125</LongitudeDegrees>
            </Position>
            <AltitudeMeters>622.5999755859375</AltitudeMeters>
            <DistanceMeters>NAN</DistanceMeters>
          </Trackpoint>
          <Trackpoint>
            <Time>2019-10-05T10:31:40.000Z</Time>
            <Position>
              <LatitudeDegrees>42.1337503753602504730224609375</LatitudeDegrees>
              <LongitudeDegrees>-5.60205060057342052459716796875</LongitudeDegrees>
            </Position>
            <AltitudeMeters>623</AltitudeMeters>
            <DistanceMeters>NAN</DistanceMeters>
          </Trackpoint>
          <Trackpoint>
            <Time>2019-10-05T10:31:41.000Z</Time>
            <Position>
              <LatitudeDegrees>42.1336960606276988983154296875</LatitudeDegrees>
              <LongitudeDegrees>-5.6020622514188289642333984375</LongitudeDegrees>
            </Position>
            <AltitudeMeters>623</AltitudeMeters>
            <DistanceMeters>NAN</DistanceMeters>
          </Trackpoint>
          <Trackpoint>
            <Time>2019-10-05T10:31:50.000Z</Time>
            <Position>
              <LatitudeDegrees>42.13321519084274768829345703125</LatitudeDegrees>
              <LongitudeDegrees>-5.602150261402130126953125</LongitudeDegrees>
            </Position>
            <AltitudeMeters>623</AltitudeMeters>
            <DistanceMeters>NAN</DistanceMeters>
          </Trackpoint>
          <Trackpoint>
            <Time>2019-10-05T10:31:59.000Z</Time>
            <Position>
              <LatitudeDegrees>42.13273926638066768646240234375</LatitudeDegrees>
              <LongitudeDegrees>-5.60224271379411220550537109375</LongitudeDegrees>
            </Position>
            <AltitudeMeters>623</AltitudeMeters>
            <DistanceMeters>NAN</DistanceMeters>
          </Trackpoint>
          <Trackpoint>
            <Time>2019-10-05T10:32:03.000Z</Time>
            <Position>
              <LatitudeDegrees>42.132524438202381134033203125</LatitudeDegrees>
              <LongitudeDegrees>-5.60228101909160614013671875</LongitudeDegrees>
            </Position>
            <AltitudeMeters>623.79998779296875</AltitudeMeters>
            <DistanceMeters>NAN</DistanceMeters>
          </Trackpoint>
          <Trackpoint>
            <Time>2019-10-05T10:32:06.000Z</Time>
            <Position>
              <LatitudeDegrees>42.13236141018569469451904296875</LatitudeDegrees>
              <LongitudeDegrees>-5.602310858666896820068359375</LongitudeDegrees>
            </Position>
            <AltitudeMeters>622.5999755859375</AltitudeMeters>
            <DistanceMeters>NAN</DistanceMeters>
          </Trackpoint>
          <Trackpoint>
            <Time>2019-10-05T10:32:07.000Z</Time>
            <Position>
              <LatitudeDegrees>42.1323063410818576812744140625</LatitudeDegrees>
              <LongitudeDegrees>-5.60232049785554409027099609375</LongitudeDegrees>
            </Position>
            <AltitudeMeters>622.79998779296875</AltitudeMeters>
            <DistanceMeters>NAN</DistanceMeters>
          </Trackpoint>
          <Trackpoint>
            <Time>2019-10-05T10:32:13.000Z</Time>
            <Position>
              <LatitudeDegrees>42.131988666951656341552734375</LatitudeDegrees>
              <LongitudeDegrees>-5.6023720465600490570068359375</LongitudeDegrees>
            </Position>
            <AltitudeMeters>623.5999755859375</AltitudeMeters>
            <DistanceMeters>NAN</DistanceMeters>
          </Trackpoint>
          <Trackpoint>
            <Time>2019-10-05T10:32:14.000Z</Time>
            <Position>
              <LatitudeDegrees>42.13193560950458049774169921875</LatitudeDegrees>
              <LongitudeDegrees>-5.60238000936806201934814453125</LongitudeDegrees>
            </Position>
            <AltitudeMeters>623.79998779296875</AltitudeMeters>
            <DistanceMeters>NAN</DistanceMeters>
          </Trackpoint>
          <Trackpoint>
            <Time>2019-10-05T10:32:24.000Z</Time>
            <Position>
              <LatitudeDegrees>42.13141274638473987579345703125</LatitudeDegrees>
              <LongitudeDegrees>-5.60247975401580333709716796875</LongitudeDegrees>
            </Position>
            <AltitudeMeters>623.4000244140625</AltitudeMeters>
            <DistanceMeters>NAN</DistanceMeters>
          </Trackpoint>
          <Trackpoint>
            <Time>2019-10-05T10:32:26.000Z</Time>
            <Position>
              <LatitudeDegrees>42.1313092298805713653564453125</LatitudeDegrees>
              <LongitudeDegrees>-5.60249819420278072357177734375</LongitudeDegrees>
            </Position>
            <AltitudeMeters>623.4000244140625</AltitudeMeters>
            <DistanceMeters>NAN</DistanceMeters>
          </Trackpoint>
          <Trackpoint>
            <Time>2019-10-05T10:32:36.000Z</Time>
            <Position>
              <LatitudeDegrees>42.13078276254236698150634765625</LatitudeDegrees>
              <LongitudeDegrees>-5.6025876291096210479736328125</LongitudeDegrees>
            </Position>
            <AltitudeMeters>623.4000244140625</AltitudeMeters>
            <DistanceMeters>NAN</DistanceMeters>
          </Trackpoint>
          <Trackpoint>
            <Time>2019-10-05T10:32:40.000Z</Time>
            <Position>
              <LatitudeDegrees>42.13057287968695163726806640625</LatitudeDegrees>
              <LongitudeDegrees>-5.60262442566454410552978515625</LongitudeDegrees>
            </Position>
            <AltitudeMeters>623.20001220703125</AltitudeMeters>
            <DistanceMeters>NAN</DistanceMeters>
          </Trackpoint>
          <Trackpoint>
            <Time>2019-10-05T10:32:50.000Z</Time>
            <Position>
              <LatitudeDegrees>42.1300430595874786376953125</LatitudeDegrees>
              <LongitudeDegrees>-5.6027257628738880157470703125</LongitudeDegrees>
            </Position>
            <AltitudeMeters>623.5999755859375</AltitudeMeters>
            <DistanceMeters>NAN</DistanceMeters>
          </Trackpoint>
          <Trackpoint>
            <Time>2019-10-05T10:32:51.000Z</Time>
            <Position>
              <LatitudeDegrees>42.1299894154071807861328125</LatitudeDegrees>
              <LongitudeDegrees>-5.60273657552897930145263671875</LongitudeDegrees>
            </Position>
            <AltitudeMeters>623.79998779296875</AltitudeMeters>
            <DistanceMeters>NAN</DistanceMeters>
          </Trackpoint>
          <Trackpoint>
            <Time>2019-10-05T10:33:01.000Z</Time>
            <Position>
              <LatitudeDegrees>42.12944886647164821624755859375</LatitudeDegrees>
              <LongitudeDegrees>-5.60283564962446689605712890625</LongitudeDegrees>
            </Position>
            <AltitudeMeters>623.4000244140625</AltitudeMeters>
            <DistanceMeters>NAN</DistanceMeters>
          </Trackpoint>
          <Trackpoint>
            <Time>2019-10-05T10:33:03.000Z</Time>
            <Position>
              <LatitudeDegrees>42.12934258393943309783935546875</LatitudeDegrees>
              <LongitudeDegrees>-5.6028548441827297210693359375</LongitudeDegrees>
            </Position>
            <AltitudeMeters>623.79998779296875</AltitudeMeters>
            <DistanceMeters>NAN</DistanceMeters>
          </Trackpoint>
          <Trackpoint>
            <Time>2019-10-05T10:33:13.000Z</Time>
            <Position>
              <LatitudeDegrees>42.12880848906934261322021484375</LatitudeDegrees>
              <LongitudeDegrees>-5.60296556912362575531005859375</LongitudeDegrees>
            </Position>
            <AltitudeMeters>623.20001220703125</AltitudeMeters>
            <DistanceMeters>NAN</DistanceMeters>
          </Trackpoint>
          <Trackpoint>
            <Time>2019-10-05T10:33:23.000Z</Time>
            <Position>
              <LatitudeDegrees>42.1282619051635265350341796875</LatitudeDegrees>
              <LongitudeDegrees>-5.60306061990559101104736328125</LongitudeDegrees>
            </Position>
            <AltitudeMeters>624.20001220703125</AltitudeMeters>
            <DistanceMeters>NAN</DistanceMeters>
          </Trackpoint>
          <Trackpoint>
            <Time>2019-10-05T10:33:28.000Z</Time>
            <Position>
              <LatitudeDegrees>42.12797717191278934478759765625</LatitudeDegrees>
              <LongitudeDegrees>-5.603113509714603424072265625</LongitudeDegrees>
            </Position>
            <AltitudeMeters>623.79998779296875</AltitudeMeters>
            <DistanceMeters>NAN</DistanceMeters>
          </Trackpoint>
          <Trackpoint>
            <Time>2019-10-05T10:33:33.000Z</Time>
            <Position>
              <LatitudeDegrees>42.12769185192883014678955078125</LatitudeDegrees>
              <LongitudeDegrees>-5.60316237621009349822998046875</LongitudeDegrees>
            </Position>
            <AltitudeMeters>623.79998779296875</AltitudeMeters>
            <DistanceMeters>NAN</DistanceMeters>
          </Trackpoint>
          <Trackpoint>
            <Time>2019-10-05T10:33:42.000Z</Time>
            <Position>
              <LatitudeDegrees>42.1271772868931293487548828125</LatitudeDegrees>
              <LongitudeDegrees>-5.60324921272695064544677734375</LongitudeDegrees>
            </Position>
            <AltitudeMeters>623.5999755859375</AltitudeMeters>
            <DistanceMeters>NAN</DistanceMeters>
          </Trackpoint>
          <Trackpoint>
            <Time>2019-10-05T10:33:46.000Z</Time>
            <Position>
              <LatitudeDegrees>42.12695491500198841094970703125</LatitudeDegrees>
              <LongitudeDegrees>-5.60328475199639797210693359375</LongitudeDegrees>
            </Position>
            <AltitudeMeters>623.5999755859375</AltitudeMeters>
            <DistanceMeters>NAN</DistanceMeters>
          </Trackpoint>
          <Trackpoint>
            <Time>2019-10-05T10:33:55.000Z</Time>
            <Position>
              <LatitudeDegrees>42.12644898332655429840087890625</LatitudeDegrees>
              <LongitudeDegrees>-5.603383742272853851318359375</LongitudeDegrees>
            </Position>
            <AltitudeMeters>623.5999755859375</AltitudeMeters>
            <DistanceMeters>NAN</DistanceMeters>
          </Trackpoint>
          <Trackpoint>
            <Time>2019-10-05T10:33:58.000Z</Time>
            <Position>
              <LatitudeDegrees>42.1262784115970134735107421875</LatitudeDegrees>
              <LongitudeDegrees>-5.60341483913362026214599609375</LongitudeDegrees>
            </Position>
            <AltitudeMeters>623.5999755859375</AltitudeMeters>
            <DistanceMeters>NAN</DistanceMeters>
          </Trackpoint>
          <Trackpoint>
            <Time>2019-10-05T10:34:06.000Z</Time>
            <Position>
              <LatitudeDegrees>42.12582939304411411285400390625</LatitudeDegrees>
              <LongitudeDegrees>-5.60349212028086185455322265625</LongitudeDegrees>
            </Position>
            <AltitudeMeters>623</AltitudeMeters>
            <DistanceMeters>NAN</DistanceMeters>
          </Trackpoint>
          <Trackpoint>
            <Time>2019-10-05T10:34:16.000Z</Time>
            <Position>
              <LatitudeDegrees>42.1252715773880481719970703125</LatitudeDegrees>
              <LongitudeDegrees>-5.60360058210790157318115234375</LongitudeDegrees>
            </Position>
            <AltitudeMeters>623.20001220703125</AltitudeMeters>
            <DistanceMeters>NAN</DistanceMeters>
          </Trackpoint>
          <Trackpoint>
            <Time>2019-10-05T10:34:26.000Z</Time>
            <Position>
              <LatitudeDegrees>42.12471552193164825439453125</LatitudeDegrees>
              <LongitudeDegrees>-5.6036983989179134368896484375</LongitudeDegrees>
            </Position>
            <AltitudeMeters>622.79998779296875</AltitudeMeters>
            <DistanceMeters>NAN</DistanceMeters>
          </Trackpoint>
          <Trackpoint>
            <Time>2019-10-05T10:34:27.000Z</Time>
            <Position>
              <LatitudeDegrees>42.12465994991362094879150390625</LatitudeDegrees>
              <LongitudeDegrees>-5.60370686464011669158935546875</LongitudeDegrees>
            </Position>
            <AltitudeMeters>623</AltitudeMeters>
            <DistanceMeters>NAN</DistanceMeters>
          </Trackpoint>
          <Trackpoint>
            <Time>2019-10-05T10:34:37.000Z</Time>
            <Position>
              <LatitudeDegrees>42.12409459054470062255859375</LatitudeDegrees>
              <LongitudeDegrees>-5.6038053520023822784423828125</LongitudeDegrees>
            </Position>
            <AltitudeMeters>623.5999755859375</AltitudeMeters>
            <DistanceMeters>NAN</DistanceMeters>
          </Trackpoint>
          <Trackpoint>
            <Time>2019-10-05T10:34:46.000Z</Time>
            <Position>
              <LatitudeDegrees>42.12358036078512668609619140625</LatitudeDegrees>
              <LongitudeDegrees>-5.60389512218534946441650390625</LongitudeDegrees>
            </Position>
            <AltitudeMeters>623.20001220703125</AltitudeMeters>
            <DistanceMeters>NAN</DistanceMeters>
          </Trackpoint>
          <Trackpoint>
            <Time>2019-10-05T10:34:49.000Z</Time>
            <Position>
              <LatitudeDegrees>42.12340928614139556884765625</LatitudeDegrees>
              <LongitudeDegrees>-5.6039273925125598907470703125</LongitudeDegrees>
            </Position>
            <AltitudeMeters>622.5999755859375</AltitudeMeters>
            <DistanceMeters>NAN</DistanceMeters>
          </Trackpoint>
          <Trackpoint>
            <Time>2019-10-05T10:34:55.000Z</Time>
            <Position>
              <LatitudeDegrees>42.1230691485106945037841796875</LatitudeDegrees>
              <LongitudeDegrees>-5.6039880774915218353271484375</LongitudeDegrees>
            </Position>
            <AltitudeMeters>622.79998779296875</AltitudeMeters>
            <DistanceMeters>NAN</DistanceMeters>
          </Trackpoint>
          <Trackpoint>
            <Time>2019-10-05T10:35:03.000Z</Time>
            <Position>
              <LatitudeDegrees>42.12262348271906375885009765625</LatitudeDegrees>
              <LongitudeDegrees>-5.60407348908483982086181640625</LongitudeDegrees>
            </Position>
            <AltitudeMeters>621.79998779296875</AltitudeMeters>
            <DistanceMeters>NAN</DistanceMeters>
          </Trackpoint>
          <Trackpoint>
            <Time>2019-10-05T10:35:13.000Z</Time>
            <Position>
              <LatitudeDegrees>42.12206575088202953338623046875</LatitudeDegrees>
              <LongitudeDegrees>-5.604174323379993438720703125</LongitudeDegrees>
            </Position>
            <AltitudeMeters>622.4000244140625</AltitudeMeters>
            <DistanceMeters>NAN</DistanceMeters>
          </Trackpoint>
          <Trackpoint>
            <Time>2019-10-05T10:35:22.000Z</Time>
            <Position>
              <LatitudeDegrees>42.1215550415217876434326171875</LatitudeDegrees>
              <LongitudeDegrees>-5.6042767502367496490478515625</LongitudeDegrees>
            </Position>
            <AltitudeMeters>622.20001220703125</AltitudeMeters>
            <DistanceMeters>NAN</DistanceMeters>
          </Trackpoint>
          <Trackpoint>
            <Time>2019-10-05T10:35:31.000Z</Time>
            <Position>
              <LatitudeDegrees>42.12107241153717041015625</LatitudeDegrees>
              <LongitudeDegrees>-5.60435545630753040313720703125</LongitudeDegrees>
            </Position>
            <AltitudeMeters>621.79998779296875</AltitudeMeters>
            <DistanceMeters>NAN</DistanceMeters>
          </Trackpoint>
          <Trackpoint>
            <Time>2019-10-05T10:35:37.000Z</Time>
            <Position>
              <LatitudeDegrees>42.1207631193101406097412109375</LatitudeDegrees>
              <LongitudeDegrees>-5.60441429726779460906982421875</LongitudeDegrees>
            </Position>
            <AltitudeMeters>621.79998779296875</AltitudeMeters>
            <DistanceMeters>NAN</DistanceMeters>
          </Trackpoint>
          <Trackpoint>
            <Time>2019-10-05T10:35:46.000Z</Time>
            <Position>
              <LatitudeDegrees>42.12029700167477130889892578125</LatitudeDegrees>
              <LongitudeDegrees>-5.60450331307947635650634765625</LongitudeDegrees>
            </Position>
            <AltitudeMeters>622.20001220703125</AltitudeMeters>
            <DistanceMeters>NAN</DistanceMeters>
          </Trackpoint>
          <Trackpoint>
            <Time>2019-10-05T10:35:55.000Z</Time>
            <Position>
              <LatitudeDegrees>42.1198300458490848541259765625</LatitudeDegrees>
              <LongitudeDegrees>-5.60461898334324359893798828125</LongitudeDegrees>
            </Position>
            <AltitudeMeters>622</AltitudeMeters>
            <DistanceMeters>NAN</DistanceMeters>
          </Trackpoint>
          <Trackpoint>
            <Time>2019-10-05T10:36:05.000Z</Time>
            <Position>
              <LatitudeDegrees>42.11930827237665653228759765625</LatitudeDegrees>
              <LongitudeDegrees>-5.60478813014924526214599609375</LongitudeDegrees>
            </Position>
            <AltitudeMeters>622.4000244140625</AltitudeMeters>
            <DistanceMeters>NAN</DistanceMeters>
          </Trackpoint>
          <Trackpoint>
            <Time>2019-10-05T10:36:06.000Z</Time>
            <Position>
              <LatitudeDegrees>42.1192573942244052886962890625</LatitudeDegrees>
              <LongitudeDegrees>-5.60480824671685695648193359375</LongitudeDegrees>
            </Position>
            <AltitudeMeters>622.20001220703125</AltitudeMeters>
            <DistanceMeters>NAN</DistanceMeters>
          </Trackpoint>
          <Trackpoint>
            <Time>2019-10-05T10:36:10.000Z</Time>
            <Position>
              <LatitudeDegrees>42.11912185885012149810791015625</LatitudeDegrees>
              <LongitudeDegrees>-5.60487463138997554779052734375</LongitudeDegrees>
            </Position>
            <AltitudeMeters>622.5999755859375</AltitudeMeters>
            <DistanceMeters>NAN</DistanceMeters>
          </Trackpoint>
          <Trackpoint>
            <Time>2019-10-05T10:36:13.000Z</Time>
            <Position>
              <LatitudeDegrees>42.1191157400608062744140625</LatitudeDegrees>
              <LongitudeDegrees>-5.6048799119889736175537109375</LongitudeDegrees>
            </Position>
            <AltitudeMeters>623.5999755859375</AltitudeMeters>
            <DistanceMeters>NAN</DistanceMeters>
          </Trackpoint>
          <Trackpoint>
            <Time>2019-10-05T10:36:18.000Z</Time>
            <Position>
              <LatitudeDegrees>42.11911196820437908172607421875</LatitudeDegrees>
              <LongitudeDegrees>-5.6048815883696079254150390625</LongitudeDegrees>
            </Position>
            <AltitudeMeters>623.20001220703125</AltitudeMeters>
            <DistanceMeters>NAN</DistanceMeters>
          </Trackpoint>
          <Trackpoint>
            <Time>2019-10-05T10:36:23.000Z</Time>
            <Position>
              <LatitudeDegrees>42.11911196820437908172607421875</LatitudeDegrees>
              <LongitudeDegrees>-5.6048815883696079254150390625</LongitudeDegrees>
            </Position>
            <AltitudeMeters>623.4000244140625</AltitudeMeters>
            <DistanceMeters>NAN</DistanceMeters>
          </Trackpoint>
          <Trackpoint>
            <Time>2019-10-05T10:36:34.000Z</Time>
            <Position>
              <LatitudeDegrees>42.11911196820437908172607421875</LatitudeDegrees>
              <LongitudeDegrees>-5.6048815883696079254150390625</LongitudeDegrees>
            </Position>
            <AltitudeMeters>623.4000244140625</AltitudeMeters>
            <DistanceMeters>NAN</DistanceMeters>
          </Trackpoint>
          <Trackpoint>
            <Time>2019-10-05T10:36:47.000Z</Time>
            <Position>
              <LatitudeDegrees>42.11911196820437908172607421875</LatitudeDegrees>
              <LongitudeDegrees>-5.6048815883696079254150390625</LongitudeDegrees>
            </Position>
            <AltitudeMeters>623.20001220703125</AltitudeMeters>
            <DistanceMeters>NAN</DistanceMeters>
          </Trackpoint>
          <Trackpoint>
            <Time>2019-10-05T10:36:56.000Z</Time>
            <Position>
              <LatitudeDegrees>42.1191098727285861968994140625</LatitudeDegrees>
              <LongitudeDegrees>-5.604880750179290771484375</LongitudeDegrees>
            </Position>
            <AltitudeMeters>622.79998779296875</AltitudeMeters>
            <DistanceMeters>NAN</DistanceMeters>
          </Trackpoint>
          <Trackpoint>
            <Time>2019-10-05T10:37:02.000Z</Time>
            <Position>
              <LatitudeDegrees>42.1191098727285861968994140625</LatitudeDegrees>
              <LongitudeDegrees>-5.604880750179290771484375</LongitudeDegrees>
            </Position>
            <AltitudeMeters>623.20001220703125</AltitudeMeters>
            <DistanceMeters>NAN</DistanceMeters>
          </Trackpoint>
          <Trackpoint>
            <Time>2019-10-05T10:37:15.000Z</Time>
            <Position>
              <LatitudeDegrees>42.1191098727285861968994140625</LatitudeDegrees>
              <LongitudeDegrees>-5.604880750179290771484375</LongitudeDegrees>
            </Position>
            <AltitudeMeters>623</AltitudeMeters>
            <DistanceMeters>NAN</DistanceMeters>
          </Trackpoint>
          <Trackpoint>
            <Time>2019-10-05T10:37:39.000Z</Time>
            <Position>
              <LatitudeDegrees>42.11910962127149105072021484375</LatitudeDegrees>
              <LongitudeDegrees>-5.604875050485134124755859375</LongitudeDegrees>
            </Position>
            <AltitudeMeters>623.20001220703125</AltitudeMeters>
            <DistanceMeters>NAN</DistanceMeters>
          </Trackpoint>
          <Trackpoint>
            <Time>2019-10-05T10:37:51.000Z</Time>
            <Position>
              <LatitudeDegrees>42.11910962127149105072021484375</LatitudeDegrees>
              <LongitudeDegrees>-5.604875050485134124755859375</LongitudeDegrees>
            </Position>
            <AltitudeMeters>623.20001220703125</AltitudeMeters>
            <DistanceMeters>NAN</DistanceMeters>
          </Trackpoint>
          <Trackpoint>
            <Time>2019-10-05T10:38:03.000Z</Time>
            <Position>
              <LatitudeDegrees>42.11910962127149105072021484375</LatitudeDegrees>
              <LongitudeDegrees>-5.604875050485134124755859375</LongitudeDegrees>
            </Position>
            <AltitudeMeters>623.4000244140625</AltitudeMeters>
            <DistanceMeters>NAN</DistanceMeters>
          </Trackpoint>
          <Trackpoint>
            <Time>2019-10-05T10:38:04.000Z</Time>
            <Position>
              <LatitudeDegrees>42.11910962127149105072021484375</LatitudeDegrees>
              <LongitudeDegrees>-5.604875050485134124755859375</LongitudeDegrees>
            </Position>
            <AltitudeMeters>623.5999755859375</AltitudeMeters>
            <DistanceMeters>NAN</DistanceMeters>
          </Trackpoint>
          <Trackpoint>
            <Time>2019-10-05T10:38:05.000Z</Time>
            <Position>
              <LatitudeDegrees>42.11910962127149105072021484375</LatitudeDegrees>
              <LongitudeDegrees>-5.604875050485134124755859375</LongitudeDegrees>
            </Position>
            <AltitudeMeters>623.5999755859375</AltitudeMeters>
            <DistanceMeters>NAN</DistanceMeters>
          </Trackpoint>
          <Trackpoint>
            <Time>2019-10-05T10:38:08.000Z</Time>
            <Position>
              <LatitudeDegrees>42.11910962127149105072021484375</LatitudeDegrees>
              <LongitudeDegrees>-5.604875050485134124755859375</LongitudeDegrees>
            </Position>
            <AltitudeMeters>623.20001220703125</AltitudeMeters>
            <DistanceMeters>NAN</DistanceMeters>
          </Trackpoint>
          <Trackpoint>
            <Time>2019-10-05T10:38:12.000Z</Time>
            <Position>
              <LatitudeDegrees>42.11911104619503021240234375</LatitudeDegrees>
              <LongitudeDegrees>-5.60487597249448299407958984375</LongitudeDegrees>
            </Position>
            <AltitudeMeters>623.4000244140625</AltitudeMeters>
            <DistanceMeters>NAN</DistanceMeters>
          </Trackpoint>
          <Trackpoint>
            <Time>2019-10-05T10:38:18.000Z</Time>
            <Position>
              <LatitudeDegrees>42.11911104619503021240234375</LatitudeDegrees>
              <LongitudeDegrees>-5.60487597249448299407958984375</LongitudeDegrees>
            </Position>
            <AltitudeMeters>623.20001220703125</AltitudeMeters>
            <DistanceMeters>NAN</DistanceMeters>
          </Trackpoint>
          <Trackpoint>
            <Time>2019-10-05T10:38:19.000Z</Time>
            <Position>
              <LatitudeDegrees>42.11911104619503021240234375</LatitudeDegrees>
              <LongitudeDegrees>-5.60487597249448299407958984375</LongitudeDegrees>
            </Position>
            <AltitudeMeters>623.20001220703125</AltitudeMeters>
            <DistanceMeters>NAN</DistanceMeters>
          </Trackpoint>
          <Trackpoint>
            <Time>2019-10-05T10:38:20.000Z</Time>
            <Position>
              <LatitudeDegrees>42.11911104619503021240234375</LatitudeDegrees>
              <LongitudeDegrees>-5.60487597249448299407958984375</LongitudeDegrees>
            </Position>
            <AltitudeMeters>623.20001220703125</AltitudeMeters>
            <DistanceMeters>NAN</DistanceMeters>
          </Trackpoint>
          <Trackpoint>
            <Time>2019-10-05T10:38:24.000Z</Time>
            <Position>
              <LatitudeDegrees>42.11911104619503021240234375</LatitudeDegrees>
              <LongitudeDegrees>-5.60487597249448299407958984375</LongitudeDegrees>
            </Position>
            <AltitudeMeters>623.20001220703125</AltitudeMeters>
            <DistanceMeters>NAN</DistanceMeters>
          </Trackpoint>
          <Trackpoint>
            <Time>2019-10-05T10:38:32.000Z</Time>
            <Position>
              <LatitudeDegrees>42.11911104619503021240234375</LatitudeDegrees>
              <LongitudeDegrees>-5.60487597249448299407958984375</LongitudeDegrees>
            </Position>
            <AltitudeMeters>623</AltitudeMeters>
            <DistanceMeters>NAN</DistanceMeters>
          </Trackpoint>
          <Trackpoint>
            <Time>2019-10-05T10:38:40.000Z</Time>
            <Position>
              <LatitudeDegrees>42.11911104619503021240234375</LatitudeDegrees>
              <LongitudeDegrees>-5.60487597249448299407958984375</LongitudeDegrees>
            </Position>
            <AltitudeMeters>623.20001220703125</AltitudeMeters>
            <DistanceMeters>NAN</DistanceMeters>
          </Trackpoint>
          <Trackpoint>
            <Time>2019-10-05T10:38:52.000Z</Time>
            <Position>
              <LatitudeDegrees>42.11911247111856937408447265625</LatitudeDegrees>
              <LongitudeDegrees>-5.60488133691251277923583984375</LongitudeDegrees>
            </Position>
            <AltitudeMeters>623.20001220703125</AltitudeMeters>
            <DistanceMeters>NAN</DistanceMeters>
          </Trackpoint>
          <Trackpoint>
            <Time>2019-10-05T10:38:54.000Z</Time>
            <Position>
              <LatitudeDegrees>42.11911247111856937408447265625</LatitudeDegrees>
              <LongitudeDegrees>-5.60488133691251277923583984375</LongitudeDegrees>
            </Position>
            <AltitudeMeters>623.20001220703125</AltitudeMeters>
            <DistanceMeters>NAN</DistanceMeters>
          </Trackpoint>
          <Trackpoint>
            <Time>2019-10-05T10:38:57.000Z</Time>
            <Position>
              <LatitudeDegrees>42.11911247111856937408447265625</LatitudeDegrees>
              <LongitudeDegrees>-5.60488133691251277923583984375</LongitudeDegrees>
            </Position>
            <AltitudeMeters>623.20001220703125</AltitudeMeters>
            <DistanceMeters>NAN</DistanceMeters>
          </Trackpoint>
          <Trackpoint>
            <Time>2019-10-05T10:38:59.000Z</Time>
            <Position>
              <LatitudeDegrees>42.11911247111856937408447265625</LatitudeDegrees>
              <LongitudeDegrees>-5.60488133691251277923583984375</LongitudeDegrees>
            </Position>
            <AltitudeMeters>623.20001220703125</AltitudeMeters>
            <DistanceMeters>NAN</DistanceMeters>
          </Trackpoint>
          <Trackpoint>
            <Time>2019-10-05T10:39:04.000Z</Time>
            <Position>
              <LatitudeDegrees>42.11911247111856937408447265625</LatitudeDegrees>
              <LongitudeDegrees>-5.60488133691251277923583984375</LongitudeDegrees>
            </Position>
            <AltitudeMeters>623.20001220703125</AltitudeMeters>
            <DistanceMeters>NAN</DistanceMeters>
          </Trackpoint>
          <Trackpoint>
            <Time>2019-10-05T10:39:06.000Z</Time>
            <Position>
              <LatitudeDegrees>42.11911247111856937408447265625</LatitudeDegrees>
              <LongitudeDegrees>-5.60488133691251277923583984375</LongitudeDegrees>
            </Position>
            <AltitudeMeters>623.20001220703125</AltitudeMeters>
            <DistanceMeters>NAN</DistanceMeters>
          </Trackpoint>
          <Trackpoint>
            <Time>2019-10-05T10:39:07.000Z</Time>
            <Position>
              <LatitudeDegrees>42.11911247111856937408447265625</LatitudeDegrees>
              <LongitudeDegrees>-5.60488133691251277923583984375</LongitudeDegrees>
            </Position>
            <AltitudeMeters>623.20001220703125</AltitudeMeters>
            <DistanceMeters>NAN</DistanceMeters>
          </Trackpoint>
          <Trackpoint>
            <Time>2019-10-05T10:39:10.000Z</Time>
            <Position>
              <LatitudeDegrees>42.11911247111856937408447265625</LatitudeDegrees>
              <LongitudeDegrees>-5.60488133691251277923583984375</LongitudeDegrees>
            </Position>
            <AltitudeMeters>623.20001220703125</AltitudeMeters>
            <DistanceMeters>NAN</DistanceMeters>
          </Trackpoint>
          <Trackpoint>
            <Time>2019-10-05T10:39:21.000Z</Time>
            <Position>
              <LatitudeDegrees>42.11911247111856937408447265625</LatitudeDegrees>
              <LongitudeDegrees>-5.60488133691251277923583984375</LongitudeDegrees>
            </Position>
            <AltitudeMeters>623.20001220703125</AltitudeMeters>
            <DistanceMeters>NAN</DistanceMeters>
          </Trackpoint>
          <Trackpoint>
            <Time>2019-10-05T10:39:26.000Z</Time>
            <Position>
              <LatitudeDegrees>42.11911247111856937408447265625</LatitudeDegrees>
              <LongitudeDegrees>-5.60488133691251277923583984375</LongitudeDegrees>
            </Position>
            <AltitudeMeters>623.4000244140625</AltitudeMeters>
            <DistanceMeters>NAN</DistanceMeters>
          </Trackpoint>
          <Trackpoint>
            <Time>2019-10-05T10:39:37.000Z</Time>
            <Position>
              <LatitudeDegrees>42.11911372840404510498046875</LatitudeDegrees>
              <LongitudeDegrees>-5.604877732694149017333984375</LongitudeDegrees>
            </Position>
            <AltitudeMeters>623.20001220703125</AltitudeMeters>
            <DistanceMeters>NAN</DistanceMeters>
          </Trackpoint>
          <Trackpoint>
            <Time>2019-10-05T10:39:39.000Z</Time>
            <Position>
              <LatitudeDegrees>42.11911372840404510498046875</LatitudeDegrees>
              <LongitudeDegrees>-5.604877732694149017333984375</LongitudeDegrees>
            </Position>
            <AltitudeMeters>623.4000244140625</AltitudeMeters>
            <DistanceMeters>NAN</DistanceMeters>
          </Trackpoint>
          <Trackpoint>
            <Time>2019-10-05T10:39:42.000Z</Time>
            <Position>
              <LatitudeDegrees>42.11911372840404510498046875</LatitudeDegrees>
              <LongitudeDegrees>-5.604877732694149017333984375</LongitudeDegrees>
            </Position>
            <AltitudeMeters>623.20001220703125</AltitudeMeters>
            <DistanceMeters>NAN</DistanceMeters>
          </Trackpoint>
          <Trackpoint>
            <Time>2019-10-05T10:39:47.000Z</Time>
            <Position>
              <LatitudeDegrees>42.11911372840404510498046875</LatitudeDegrees>
              <LongitudeDegrees>-5.604877732694149017333984375</LongitudeDegrees>
            </Position>
            <AltitudeMeters>623.4000244140625</AltitudeMeters>
            <DistanceMeters>NAN</DistanceMeters>
          </Trackpoint>
          <Trackpoint>
            <Time>2019-10-05T10:39:48.000Z</Time>
            <Position>
              <LatitudeDegrees>42.11911372840404510498046875</LatitudeDegrees>
              <LongitudeDegrees>-5.604877732694149017333984375</LongitudeDegrees>
            </Position>
            <AltitudeMeters>623.20001220703125</AltitudeMeters>
            <DistanceMeters>NAN</DistanceMeters>
          </Trackpoint>
          <Trackpoint>
            <Time>2019-10-05T10:39:57.000Z</Time>
            <Position>
              <LatitudeDegrees>42.11911372840404510498046875</LatitudeDegrees>
              <LongitudeDegrees>-5.604877732694149017333984375</LongitudeDegrees>
            </Position>
            <AltitudeMeters>623.20001220703125</AltitudeMeters>
            <DistanceMeters>NAN</DistanceMeters>
          </Trackpoint>
          <Trackpoint>
            <Time>2019-10-05T10:39:59.000Z</Time>
            <Position>
              <LatitudeDegrees>42.11911372840404510498046875</LatitudeDegrees>
              <LongitudeDegrees>-5.604877732694149017333984375</LongitudeDegrees>
            </Position>
            <AltitudeMeters>623.4000244140625</AltitudeMeters>
            <DistanceMeters>NAN</DistanceMeters>
          </Trackpoint>
          <Trackpoint>
            <Time>2019-10-05T10:40:11.000Z</Time>
            <Position>
              <LatitudeDegrees>42.11911372840404510498046875</LatitudeDegrees>
              <LongitudeDegrees>-5.604877732694149017333984375</LongitudeDegrees>
            </Position>
            <AltitudeMeters>623.4000244140625</AltitudeMeters>
            <DistanceMeters>NAN</DistanceMeters>
          </Trackpoint>
          <Trackpoint>
            <Time>2019-10-05T10:40:12.000Z</Time>
            <Position>
              <LatitudeDegrees>42.1191125549376010894775390625</LatitudeDegrees>
              <LongitudeDegrees>-5.60487932525575160980224609375</LongitudeDegrees>
            </Position>
            <AltitudeMeters>623.4000244140625</AltitudeMeters>
            <DistanceMeters>NAN</DistanceMeters>
          </Trackpoint>
          <Trackpoint>
            <Time>2019-10-05T10:40:15.000Z</Time>
            <Position>
              <LatitudeDegrees>42.1191125549376010894775390625</LatitudeDegrees>
              <LongitudeDegrees>-5.60487932525575160980224609375</LongitudeDegrees>
            </Position>
            <AltitudeMeters>623.20001220703125</AltitudeMeters>
            <DistanceMeters>NAN</DistanceMeters>
          </Trackpoint>
          <Trackpoint>
            <Time>2019-10-05T10:40:25.000Z</Time>
            <Position>
              <LatitudeDegrees>42.1191125549376010894775390625</LatitudeDegrees>
              <LongitudeDegrees>-5.60487932525575160980224609375</LongitudeDegrees>
            </Position>
            <AltitudeMeters>623.4000244140625</AltitudeMeters>
            <DistanceMeters>NAN</DistanceMeters>
          </Trackpoint>
          <Trackpoint>
            <Time>2019-10-05T10:40:27.000Z</Time>
            <Position>
              <LatitudeDegrees>42.1191125549376010894775390625</LatitudeDegrees>
              <LongitudeDegrees>-5.60487932525575160980224609375</LongitudeDegrees>
            </Position>
            <AltitudeMeters>623.4000244140625</AltitudeMeters>
            <DistanceMeters>NAN</DistanceMeters>
          </Trackpoint>
          <Trackpoint>
            <Time>2019-10-05T10:40:32.000Z</Time>
            <Position>
              <LatitudeDegrees>42.1191125549376010894775390625</LatitudeDegrees>
              <LongitudeDegrees>-5.60487932525575160980224609375</LongitudeDegrees>
            </Position>
            <AltitudeMeters>623.20001220703125</AltitudeMeters>
            <DistanceMeters>NAN</DistanceMeters>
          </Trackpoint>
          <Trackpoint>
            <Time>2019-10-05T10:40:45.000Z</Time>
            <Position>
              <LatitudeDegrees>42.1191125549376010894775390625</LatitudeDegrees>
              <LongitudeDegrees>-5.60487932525575160980224609375</LongitudeDegrees>
            </Position>
            <AltitudeMeters>623.4000244140625</AltitudeMeters>
            <DistanceMeters>NAN</DistanceMeters>
          </Trackpoint>
          <Trackpoint>
            <Time>2019-10-05T10:40:46.000Z</Time>
            <Position>
              <LatitudeDegrees>42.1191125549376010894775390625</LatitudeDegrees>
              <LongitudeDegrees>-5.60487932525575160980224609375</LongitudeDegrees>
            </Position>
            <AltitudeMeters>623.4000244140625</AltitudeMeters>
            <DistanceMeters>NAN</DistanceMeters>
          </Trackpoint>
          <Trackpoint>
            <Time>2019-10-05T10:40:56.000Z</Time>
            <Position>
              <LatitudeDegrees>42.1191102080047130584716796875</LatitudeDegrees>
              <LongitudeDegrees>-5.60487915761768817901611328125</LongitudeDegrees>
            </Position>
            <AltitudeMeters>623.5999755859375</AltitudeMeters>
            <DistanceMeters>NAN</DistanceMeters>
          </Trackpoint>
          <Trackpoint>
            <Time>2019-10-05T10:41:01.000Z</Time>
            <Position>
              <LatitudeDegrees>42.1191102080047130584716796875</LatitudeDegrees>
              <LongitudeDegrees>-5.60487915761768817901611328125</LongitudeDegrees>
            </Position>
            <AltitudeMeters>623.4000244140625</AltitudeMeters>
            <DistanceMeters>NAN</DistanceMeters>
          </Trackpoint>
          <Trackpoint>
            <Time>2019-10-05T10:41:07.000Z</Time>
            <Position>
              <LatitudeDegrees>42.1191102080047130584716796875</LatitudeDegrees>
              <LongitudeDegrees>-5.60487915761768817901611328125</LongitudeDegrees>
            </Position>
            <AltitudeMeters>623.20001220703125</AltitudeMeters>
            <DistanceMeters>NAN</DistanceMeters>
          </Trackpoint>
          <Trackpoint>
            <Time>2019-10-05T10:41:08.000Z</Time>
            <Position>
              <LatitudeDegrees>42.1191102080047130584716796875</LatitudeDegrees>
              <LongitudeDegrees>-5.60487915761768817901611328125</LongitudeDegrees>
            </Position>
            <AltitudeMeters>623.20001220703125</AltitudeMeters>
            <DistanceMeters>NAN</DistanceMeters>
          </Trackpoint>
          <Trackpoint>
            <Time>2019-10-05T10:41:14.000Z</Time>
            <Position>
              <LatitudeDegrees>42.1191102080047130584716796875</LatitudeDegrees>
              <LongitudeDegrees>-5.60487915761768817901611328125</LongitudeDegrees>
            </Position>
            <AltitudeMeters>623.5999755859375</AltitudeMeters>
            <DistanceMeters>NAN</DistanceMeters>
          </Trackpoint>
          <Trackpoint>
            <Time>2019-10-05T10:41:18.000Z</Time>
            <Position>
              <LatitudeDegrees>42.1191102080047130584716796875</LatitudeDegrees>
              <LongitudeDegrees>-5.60487915761768817901611328125</LongitudeDegrees>
            </Position>
            <AltitudeMeters>623.4000244140625</AltitudeMeters>
            <DistanceMeters>NAN</DistanceMeters>
          </Trackpoint>
          <Trackpoint>
            <Time>2019-10-05T10:41:19.000Z</Time>
            <Position>
              <LatitudeDegrees>42.1191102080047130584716796875</LatitudeDegrees>
              <LongitudeDegrees>-5.60487915761768817901611328125</LongitudeDegrees>
            </Position>
            <AltitudeMeters>623.20001220703125</AltitudeMeters>
            <DistanceMeters>NAN</DistanceMeters>
          </Trackpoint>
          <Trackpoint>
            <Time>2019-10-05T10:41:37.000Z</Time>
            <Position>
              <LatitudeDegrees>42.11910945363342761993408203125</LatitudeDegrees>
              <LongitudeDegrees>-5.60487739741802215576171875</LongitudeDegrees>
            </Position>
            <AltitudeMeters>623.5999755859375</AltitudeMeters>
            <DistanceMeters>NAN</DistanceMeters>
          </Trackpoint>
          <Trackpoint>
            <Time>2019-10-05T10:41:49.000Z</Time>
            <Position>
              <LatitudeDegrees>42.11910945363342761993408203125</LatitudeDegrees>
              <LongitudeDegrees>-5.60487739741802215576171875</LongitudeDegrees>
            </Position>
            <AltitudeMeters>623.5999755859375</AltitudeMeters>
            <DistanceMeters>NAN</DistanceMeters>
          </Trackpoint>
          <Trackpoint>
            <Time>2019-10-05T10:41:51.000Z</Time>
            <Position>
              <LatitudeDegrees>42.11910945363342761993408203125</LatitudeDegrees>
              <LongitudeDegrees>-5.60487739741802215576171875</LongitudeDegrees>
            </Position>
            <AltitudeMeters>623.20001220703125</AltitudeMeters>
            <DistanceMeters>NAN</DistanceMeters>
          </Trackpoint>
          <Trackpoint>
            <Time>2019-10-05T10:41:54.000Z</Time>
            <Position>
              <LatitudeDegrees>42.11910945363342761993408203125</LatitudeDegrees>
              <LongitudeDegrees>-5.60487739741802215576171875</LongitudeDegrees>
            </Position>
            <AltitudeMeters>623.4000244140625</AltitudeMeters>
            <DistanceMeters>NAN</DistanceMeters>
          </Trackpoint>
          <Trackpoint>
            <Time>2019-10-05T10:41:58.000Z</Time>
            <Position>
              <LatitudeDegrees>42.1191011555492877960205078125</LatitudeDegrees>
              <LongitudeDegrees>-5.6048795767128467559814453125</LongitudeDegrees>
            </Position>
            <AltitudeMeters>623.4000244140625</AltitudeMeters>
            <DistanceMeters>NAN</DistanceMeters>
          </Trackpoint>
          <Trackpoint>
            <Time>2019-10-05T10:42:00.000Z</Time>
            <Position>
              <LatitudeDegrees>42.1190672926604747772216796875</LatitudeDegrees>
              <LongitudeDegrees>-5.6048846058547496795654296875</LongitudeDegrees>
            </Position>
            <AltitudeMeters>623.4000244140625</AltitudeMeters>
            <DistanceMeters>NAN</DistanceMeters>
          </Trackpoint>
          <Trackpoint>
            <Time>2019-10-05T10:42:03.000Z</Time>
            <Position>
              <LatitudeDegrees>42.11900484748184680938720703125</LatitudeDegrees>
              <LongitudeDegrees>-5.6048990227282047271728515625</LongitudeDegrees>
            </Position>
            <AltitudeMeters>623.5999755859375</AltitudeMeters>
            <DistanceMeters>NAN</DistanceMeters>
          </Trackpoint>
          <Trackpoint>
            <Time>2019-10-05T10:42:06.000Z</Time>
            <Position>
              <LatitudeDegrees>42.11891658604145050048828125</LatitudeDegrees>
              <LongitudeDegrees>-5.6049389205873012542724609375</LongitudeDegrees>
            </Position>
            <AltitudeMeters>623</AltitudeMeters>
            <DistanceMeters>NAN</DistanceMeters>
          </Trackpoint>
          <Trackpoint>
            <Time>2019-10-05T10:42:08.000Z</Time>
            <Position>
              <LatitudeDegrees>42.1188433282077312469482421875</LatitudeDegrees>
              <LongitudeDegrees>-5.604972951114177703857421875</LongitudeDegrees>
            </Position>
            <AltitudeMeters>622.79998779296875</AltitudeMeters>
            <DistanceMeters>NAN</DistanceMeters>
          </Trackpoint>
          <Trackpoint>
            <Time>2019-10-05T10:42:10.000Z</Time>
            <Position>
              <LatitudeDegrees>42.11877283640205860137939453125</LatitudeDegrees>
              <LongitudeDegrees>-5.6050079874694347381591796875</LongitudeDegrees>
            </Position>
            <AltitudeMeters>622.79998779296875</AltitudeMeters>
            <DistanceMeters>NAN</DistanceMeters>
          </Trackpoint>
          <Trackpoint>
            <Time>2019-10-05T10:42:11.000Z</Time>
            <Position>
              <LatitudeDegrees>42.1187343634665012359619140625</LatitudeDegrees>
              <LongitudeDegrees>-5.60502332635223865509033203125</LongitudeDegrees>
            </Position>
            <AltitudeMeters>622.5999755859375</AltitudeMeters>
            <DistanceMeters>NAN</DistanceMeters>
          </Trackpoint>
          <Trackpoint>
            <Time>2019-10-05T10:42:15.000Z</Time>
            <Position>
              <LatitudeDegrees>42.11857435293495655059814453125</LatitudeDegrees>
              <LongitudeDegrees>-5.605100356042385101318359375</LongitudeDegrees>
            </Position>
            <AltitudeMeters>623</AltitudeMeters>
            <DistanceMeters>NAN</DistanceMeters>
          </Trackpoint>
          <Trackpoint>
            <Time>2019-10-05T10:42:20.000Z</Time>
            <Position>
              <LatitudeDegrees>42.11835642345249652862548828125</LatitudeDegrees>
              <LongitudeDegrees>-5.60519934631884098052978515625</LongitudeDegrees>
            </Position>
            <AltitudeMeters>622.5999755859375</AltitudeMeters>
            <DistanceMeters>NAN</DistanceMeters>
          </Trackpoint>
          <Trackpoint>
            <Time>2019-10-05T10:42:26.000Z</Time>
            <Position>
              <LatitudeDegrees>42.118080072104930877685546875</LatitudeDegrees>
              <LongitudeDegrees>-5.605331361293792724609375</LongitudeDegrees>
            </Position>
            <AltitudeMeters>622.79998779296875</AltitudeMeters>
            <DistanceMeters>NAN</DistanceMeters>
          </Trackpoint>
          <Trackpoint>
            <Time>2019-10-05T10:42:37.000Z</Time>
            <Position>
              <LatitudeDegrees>42.11756282486021518707275390625</LatitudeDegrees>
              <LongitudeDegrees>-5.60558591969311237335205078125</LongitudeDegrees>
            </Position>
            <AltitudeMeters>622.5999755859375</AltitudeMeters>
            <DistanceMeters>NAN</DistanceMeters>
          </Trackpoint>
          <Trackpoint>
            <Time>2019-10-05T10:42:38.000Z</Time>
            <Position>
              <LatitudeDegrees>42.11751286871731281280517578125</LatitudeDegrees>
              <LongitudeDegrees>-5.6056104786694049835205078125</LongitudeDegrees>
            </Position>
            <AltitudeMeters>622.79998779296875</AltitudeMeters>
            <DistanceMeters>NAN</DistanceMeters>
          </Trackpoint>
          <Trackpoint>
            <Time>2019-10-05T10:42:48.000Z</Time>
            <Position>
              <LatitudeDegrees>42.1170204319059848785400390625</LatitudeDegrees>
              <LongitudeDegrees>-5.60584701597690582275390625</LongitudeDegrees>
            </Position>
            <AltitudeMeters>622.4000244140625</AltitudeMeters>
            <DistanceMeters>NAN</DistanceMeters>
          </Trackpoint>
          <Trackpoint>
            <Time>2019-10-05T10:42:56.000Z</Time>
            <Position>
              <LatitudeDegrees>42.11662757210433483123779296875</LatitudeDegrees>
              <LongitudeDegrees>-5.60603284277021884918212890625</LongitudeDegrees>
            </Position>
            <AltitudeMeters>622.20001220703125</AltitudeMeters>
            <DistanceMeters>NAN</DistanceMeters>
          </Trackpoint>
          <Trackpoint>
            <Time>2019-10-05T10:43:04.000Z</Time>
            <Position>
              <LatitudeDegrees>42.11623311974108219146728515625</LatitudeDegrees>
              <LongitudeDegrees>-5.606224536895751953125</LongitudeDegrees>
            </Position>
            <AltitudeMeters>622</AltitudeMeters>
            <DistanceMeters>NAN</DistanceMeters>
          </Trackpoint>
          <Trackpoint>
            <Time>2019-10-05T10:43:12.000Z</Time>
            <Position>
              <LatitudeDegrees>42.11584269069135189056396484375</LatitudeDegrees>
              <LongitudeDegrees>-5.60642243362963199615478515625</LongitudeDegrees>
            </Position>
            <AltitudeMeters>622.5999755859375</AltitudeMeters>
            <DistanceMeters>NAN</DistanceMeters>
          </Trackpoint>
          <Trackpoint>
            <Time>2019-10-05T10:43:13.000Z</Time>
            <Position>
              <LatitudeDegrees>42.11579608730971813201904296875</LatitudeDegrees>
              <LongitudeDegrees>-5.606448166072368621826171875</LongitudeDegrees>
            </Position>
            <AltitudeMeters>622.5999755859375</AltitudeMeters>
            <DistanceMeters>NAN</DistanceMeters>
          </Trackpoint>
          <Trackpoint>
            <Time>2019-10-05T10:43:23.000Z</Time>
            <Position>
              <LatitudeDegrees>42.1153014712035655975341796875</LatitudeDegrees>
              <LongitudeDegrees>-5.60670238919556140899658203125</LongitudeDegrees>
            </Position>
            <AltitudeMeters>622.4000244140625</AltitudeMeters>
            <DistanceMeters>NAN</DistanceMeters>
          </Trackpoint>
          <Trackpoint>
            <Time>2019-10-05T10:43:31.000Z</Time>
            <Position>
              <LatitudeDegrees>42.1148977987468242645263671875</LatitudeDegrees>
              <LongitudeDegrees>-5.60689936392009258270263671875</LongitudeDegrees>
            </Position>
            <AltitudeMeters>622.5999755859375</AltitudeMeters>
            <DistanceMeters>NAN</DistanceMeters>
          </Trackpoint>
          <Trackpoint>
            <Time>2019-10-05T10:43:41.000Z</Time>
            <Position>
              <LatitudeDegrees>42.114378623664379119873046875</LatitudeDegrees>
              <LongitudeDegrees>-5.60714478604495525360107421875</LongitudeDegrees>
            </Position>
            <AltitudeMeters>621.79998779296875</AltitudeMeters>
            <DistanceMeters>NAN</DistanceMeters>
          </Trackpoint>
          <Trackpoint>
            <Time>2019-10-05T10:43:42.000Z</Time>
            <Position>
              <LatitudeDegrees>42.11432590149343013763427734375</LatitudeDegrees>
              <LongitudeDegrees>-5.6071651540696620941162109375</LongitudeDegrees>
            </Position>
            <AltitudeMeters>621.79998779296875</AltitudeMeters>
            <DistanceMeters>NAN</DistanceMeters>
          </Trackpoint>
          <Trackpoint>
            <Time>2019-10-05T10:43:52.000Z</Time>
            <Position>
              <LatitudeDegrees>42.11381192319095134735107421875</LatitudeDegrees>
              <LongitudeDegrees>-5.60740546323359012603759765625</LongitudeDegrees>
            </Position>
            <AltitudeMeters>622.5999755859375</AltitudeMeters>
            <DistanceMeters>NAN</DistanceMeters>
          </Trackpoint>
          <Trackpoint>
            <Time>2019-10-05T10:43:54.000Z</Time>
            <Position>
              <LatitudeDegrees>42.11370765231549739837646484375</LatitudeDegrees>
              <LongitudeDegrees>-5.607455670833587646484375</LongitudeDegrees>
            </Position>
            <AltitudeMeters>622.79998779296875</AltitudeMeters>
            <DistanceMeters>NAN</DistanceMeters>
          </Trackpoint>
          <Trackpoint>
            <Time>2019-10-05T10:44:01.000Z</Time>
            <Position>
              <LatitudeDegrees>42.113337926566600799560546875</LatitudeDegrees>
              <LongitudeDegrees>-5.6076288409531116485595703125</LongitudeDegrees>
            </Position>
            <AltitudeMeters>623</AltitudeMeters>
            <DistanceMeters>NAN</DistanceMeters>
          </Trackpoint>
          <Trackpoint>
            <Time>2019-10-05T10:44:05.000Z</Time>
            <Position>
              <LatitudeDegrees>42.11313030682504177093505859375</LatitudeDegrees>
              <LongitudeDegrees>-5.60772565193474292755126953125</LongitudeDegrees>
            </Position>
            <AltitudeMeters>622.20001220703125</AltitudeMeters>
            <DistanceMeters>NAN</DistanceMeters>
          </Trackpoint>
          <Trackpoint>
            <Time>2019-10-05T10:44:15.000Z</Time>
            <Position>
              <LatitudeDegrees>42.11261448450386524200439453125</LatitudeDegrees>
              <LongitudeDegrees>-5.6079698167741298675537109375</LongitudeDegrees>
            </Position>
            <AltitudeMeters>622.79998779296875</AltitudeMeters>
            <DistanceMeters>NAN</DistanceMeters>
          </Trackpoint>
          <Trackpoint>
            <Time>2019-10-05T10:44:17.000Z</Time>
            <Position>
              <LatitudeDegrees>42.11251289583742618560791015625</LatitudeDegrees>
              <LongitudeDegrees>-5.60802220366895198822021484375</LongitudeDegrees>
            </Position>
            <AltitudeMeters>622.79998779296875</AltitudeMeters>
            <DistanceMeters>NAN</DistanceMeters>
          </Trackpoint>
          <Trackpoint>
            <Time>2019-10-05T10:44:27.000Z</Time>
            <Position>
              <LatitudeDegrees>42.11199581623077392578125</LatitudeDegrees>
              <LongitudeDegrees>-5.608268044888973236083984375</LongitudeDegrees>
            </Position>
            <AltitudeMeters>622.5999755859375</AltitudeMeters>
            <DistanceMeters>NAN</DistanceMeters>
          </Trackpoint>
          <Trackpoint>
            <Time>2019-10-05T10:44:31.000Z</Time>
            <Position>
              <LatitudeDegrees>42.111792303621768951416015625</LatitudeDegrees>
              <LongitudeDegrees>-5.60836653225123882293701171875</LongitudeDegrees>
            </Position>
            <AltitudeMeters>622.4000244140625</AltitudeMeters>
            <DistanceMeters>NAN</DistanceMeters>
          </Trackpoint>
          <Trackpoint>
            <Time>2019-10-05T10:44:41.000Z</Time>
            <Position>
              <LatitudeDegrees>42.11127673275768756866455078125</LatitudeDegrees>
              <LongitudeDegrees>-5.6086021475493907928466796875</LongitudeDegrees>
            </Position>
            <AltitudeMeters>622.4000244140625</AltitudeMeters>
            <DistanceMeters>NAN</DistanceMeters>
          </Trackpoint>
          <Trackpoint>
            <Time>2019-10-05T10:44:43.000Z</Time>
            <Position>
              <LatitudeDegrees>42.11117514409124851226806640625</LatitudeDegrees>
              <LongitudeDegrees>-5.60865386389195919036865234375</LongitudeDegrees>
            </Position>
            <AltitudeMeters>622.4000244140625</AltitudeMeters>
            <DistanceMeters>NAN</DistanceMeters>
          </Trackpoint>
          <Trackpoint>
            <Time>2019-10-05T10:44:53.000Z</Time>
            <Position>
              <LatitudeDegrees>42.11065865121781826019287109375</LatitudeDegrees>
              <LongitudeDegrees>-5.60889660380780696868896484375</LongitudeDegrees>
            </Position>
            <AltitudeMeters>622.4000244140625</AltitudeMeters>
            <DistanceMeters>NAN</DistanceMeters>
          </Trackpoint>
          <Trackpoint>
            <Time>2019-10-05T10:44:55.000Z</Time>
            <Position>
              <LatitudeDegrees>42.11055479943752288818359375</LatitudeDegrees>
              <LongitudeDegrees>-5.608946643769741058349609375</LongitudeDegrees>
            </Position>
            <AltitudeMeters>622.20001220703125</AltitudeMeters>
            <DistanceMeters>NAN</DistanceMeters>
          </Trackpoint>
          <Trackpoint>
            <Time>2019-10-05T10:45:05.000Z</Time>
            <Position>
              <LatitudeDegrees>42.11004576645791530609130859375</LatitudeDegrees>
              <LongitudeDegrees>-5.6091897189617156982421875</LongitudeDegrees>
            </Position>
            <AltitudeMeters>622.4000244140625</AltitudeMeters>
            <DistanceMeters>NAN</DistanceMeters>
          </Trackpoint>
          <Trackpoint>
            <Time>2019-10-05T10:45:07.000Z</Time>
            <Position>
              <LatitudeDegrees>42.109943591058254241943359375</LatitudeDegrees>
              <LongitudeDegrees>-5.60923741199076175689697265625</LongitudeDegrees>
            </Position>
            <AltitudeMeters>622.5999755859375</AltitudeMeters>
            <DistanceMeters>NAN</DistanceMeters>
          </Trackpoint>
          <Trackpoint>
            <Time>2019-10-05T10:45:17.000Z</Time>
            <Position>
              <LatitudeDegrees>42.10943405516445636749267578125</LatitudeDegrees>
              <LongitudeDegrees>-5.60949574224650859832763671875</LongitudeDegrees>
            </Position>
            <AltitudeMeters>622.79998779296875</AltitudeMeters>
            <DistanceMeters>NAN</DistanceMeters>
          </Trackpoint>
          <Trackpoint>
            <Time>2019-10-05T10:45:18.000Z</Time>
            <Position>
              <LatitudeDegrees>42.10938133299350738525390625</LatitudeDegrees>
              <LongitudeDegrees>-5.60952139087021350860595703125</LongitudeDegrees>
            </Position>
            <AltitudeMeters>623</AltitudeMeters>
            <DistanceMeters>NAN</DistanceMeters>
          </Trackpoint>
          <Trackpoint>
            <Time>2019-10-05T10:45:27.000Z</Time>
            <Position>
              <LatitudeDegrees>42.10891772992908954620361328125</LatitudeDegrees>
              <LongitudeDegrees>-5.60974904336035251617431640625</LongitudeDegrees>
            </Position>
            <AltitudeMeters>623.5999755859375</AltitudeMeters>
            <DistanceMeters>NAN</DistanceMeters>
          </Trackpoint>
          <Trackpoint>
            <Time>2019-10-05T10:45:28.000Z</Time>
            <Position>
              <LatitudeDegrees>42.10886442102491855621337890625</LatitudeDegrees>
              <LongitudeDegrees>-5.609773434698581695556640625</LongitudeDegrees>
            </Position>
            <AltitudeMeters>623.5999755859375</AltitudeMeters>
            <DistanceMeters>NAN</DistanceMeters>
          </Trackpoint>
          <Trackpoint>
            <Time>2019-10-05T10:45:33.000Z</Time>
            <Position>
              <LatitudeDegrees>42.1086006425321102142333984375</LatitudeDegrees>
              <LongitudeDegrees>-5.60989941470324993133544921875</LongitudeDegrees>
            </Position>
            <AltitudeMeters>622.5999755859375</AltitudeMeters>
            <DistanceMeters>NAN</DistanceMeters>
          </Trackpoint>
          <Trackpoint>
            <Time>2019-10-05T10:45:40.000Z</Time>
            <Position>
              <LatitudeDegrees>42.1082335151731967926025390625</LatitudeDegrees>
              <LongitudeDegrees>-5.61007685959339141845703125</LongitudeDegrees>
            </Position>
            <AltitudeMeters>623</AltitudeMeters>
            <DistanceMeters>NAN</DistanceMeters>
          </Trackpoint>
          <Trackpoint>
            <Time>2019-10-05T10:45:50.000Z</Time>
            <Position>
              <LatitudeDegrees>42.10769682191312313079833984375</LatitudeDegrees>
              <LongitudeDegrees>-5.61032898724079132080078125</LongitudeDegrees>
            </Position>
            <AltitudeMeters>623</AltitudeMeters>
            <DistanceMeters>NAN</DistanceMeters>
          </Trackpoint>
          <Trackpoint>
            <Time>2019-10-05T10:45:53.000Z</Time>
            <Position>
              <LatitudeDegrees>42.10753940977156162261962890625</LatitudeDegrees>
              <LongitudeDegrees>-5.6104039214551448822021484375</LongitudeDegrees>
            </Position>
            <AltitudeMeters>623.20001220703125</AltitudeMeters>
            <DistanceMeters>NAN</DistanceMeters>
          </Trackpoint>
          <Trackpoint>
            <Time>2019-10-05T10:46:02.000Z</Time>
            <Position>
              <LatitudeDegrees>42.107070274651050567626953125</LatitudeDegrees>
              <LongitudeDegrees>-5.6106359325349330902099609375</LongitudeDegrees>
            </Position>
            <AltitudeMeters>623.20001220703125</AltitudeMeters>
            <DistanceMeters>NAN</DistanceMeters>
          </Trackpoint>
          <Trackpoint>
            <Time>2019-10-05T10:46:09.000Z</Time>
            <Position>
              <LatitudeDegrees>42.1066989563405513763427734375</LatitudeDegrees>
              <LongitudeDegrees>-5.61081170104444026947021484375</LongitudeDegrees>
            </Position>
            <AltitudeMeters>623.4000244140625</AltitudeMeters>
            <DistanceMeters>NAN</DistanceMeters>
          </Trackpoint>
          <Trackpoint>
            <Time>2019-10-05T10:46:19.000Z</Time>
            <Position>
              <LatitudeDegrees>42.10613560862839221954345703125</LatitudeDegrees>
              <LongitudeDegrees>-5.61108377762138843536376953125</LongitudeDegrees>
            </Position>
            <AltitudeMeters>622.79998779296875</AltitudeMeters>
            <DistanceMeters>NAN</DistanceMeters>
          </Trackpoint>
          <Trackpoint>
            <Time>2019-10-05T10:46:21.000Z</Time>
            <Position>
              <LatitudeDegrees>42.1060468442738056182861328125</LatitudeDegrees>
              <LongitudeDegrees>-5.611130297183990478515625</LongitudeDegrees>
            </Position>
            <AltitudeMeters>622.5999755859375</AltitudeMeters>
            <DistanceMeters>NAN</DistanceMeters>
          </Trackpoint>
          <Trackpoint>
            <Time>2019-10-05T10:46:30.000Z</Time>
            <Position>
              <LatitudeDegrees>42.105554826557636260986328125</LatitudeDegrees>
              <LongitudeDegrees>-5.611355267465114593505859375</LongitudeDegrees>
            </Position>
            <AltitudeMeters>622.20001220703125</AltitudeMeters>
            <DistanceMeters>NAN</DistanceMeters>
          </Trackpoint>
          <Trackpoint>
            <Time>2019-10-05T10:46:40.000Z</Time>
            <Position>
              <LatitudeDegrees>42.105015702545642852783203125</LatitudeDegrees>
              <LongitudeDegrees>-5.61161250807344913482666015625</LongitudeDegrees>
            </Position>
            <AltitudeMeters>622.4000244140625</AltitudeMeters>
            <DistanceMeters>NAN</DistanceMeters>
          </Trackpoint>
          <Trackpoint>
            <Time>2019-10-05T10:46:43.000Z</Time>
            <Position>
              <LatitudeDegrees>42.1048519201576709747314453125</LatitudeDegrees>
              <LongitudeDegrees>-5.61168811284005641937255859375</LongitudeDegrees>
            </Position>
            <AltitudeMeters>622.5999755859375</AltitudeMeters>
            <DistanceMeters>NAN</DistanceMeters>
          </Trackpoint>
          <Trackpoint>
            <Time>2019-10-05T10:46:53.000Z</Time>
            <Position>
              <LatitudeDegrees>42.10431690327823162078857421875</LatitudeDegrees>
              <LongitudeDegrees>-5.61195147223770618438720703125</LongitudeDegrees>
            </Position>
            <AltitudeMeters>622.20001220703125</AltitudeMeters>
            <DistanceMeters>NAN</DistanceMeters>
          </Trackpoint>
          <Trackpoint>
            <Time>2019-10-05T10:47:03.000Z</Time>
            <Position>
              <LatitudeDegrees>42.10378331132233142852783203125</LatitudeDegrees>
              <LongitudeDegrees>-5.61220326460897922515869140625</LongitudeDegrees>
            </Position>
            <AltitudeMeters>622</AltitudeMeters>
            <DistanceMeters>NAN</DistanceMeters>
          </Trackpoint>
          <Trackpoint>
            <Time>2019-10-05T10:47:05.000Z</Time>
            <Position>
              <LatitudeDegrees>42.103676609694957733154296875</LatitudeDegrees>
              <LongitudeDegrees>-5.612257830798625946044921875</LongitudeDegrees>
            </Position>
            <AltitudeMeters>622</AltitudeMeters>
            <DistanceMeters>NAN</DistanceMeters>
          </Trackpoint>
          <Trackpoint>
            <Time>2019-10-05T10:47:15.000Z</Time>
            <Position>
              <LatitudeDegrees>42.1031470410525798797607421875</LatitudeDegrees>
              <LongitudeDegrees>-5.6125097908079624176025390625</LongitudeDegrees>
            </Position>
            <AltitudeMeters>622.20001220703125</AltitudeMeters>
            <DistanceMeters>NAN</DistanceMeters>
          </Trackpoint>
          <Trackpoint>
            <Time>2019-10-05T10:47:24.000Z</Time>
            <Position>
              <LatitudeDegrees>42.10266415961086750030517578125</LatitudeDegrees>
              <LongitudeDegrees>-5.6127391196787357330322265625</LongitudeDegrees>
            </Position>
            <AltitudeMeters>621.79998779296875</AltitudeMeters>
            <DistanceMeters>NAN</DistanceMeters>
          </Trackpoint>
          <Trackpoint>
            <Time>2019-10-05T10:47:29.000Z</Time>
            <Position>
              <LatitudeDegrees>42.102398537099361419677734375</LatitudeDegrees>
              <LongitudeDegrees>-5.6128656864166259765625</LongitudeDegrees>
            </Position>
            <AltitudeMeters>622.4000244140625</AltitudeMeters>
            <DistanceMeters>NAN</DistanceMeters>
          </Trackpoint>
          <Trackpoint>
            <Time>2019-10-05T10:47:37.000Z</Time>
            <Position>
              <LatitudeDegrees>42.10196896456182003021240234375</LatitudeDegrees>
              <LongitudeDegrees>-5.61306358315050601959228515625</LongitudeDegrees>
            </Position>
            <AltitudeMeters>622</AltitudeMeters>
            <DistanceMeters>NAN</DistanceMeters>
          </Trackpoint>
          <Trackpoint>
            <Time>2019-10-05T10:47:39.000Z</Time>
            <Position>
              <LatitudeDegrees>42.1018672920763492584228515625</LatitudeDegrees>
              <LongitudeDegrees>-5.6131136231124401092529296875</LongitudeDegrees>
            </Position>
            <AltitudeMeters>621.4000244140625</AltitudeMeters>
            <DistanceMeters>NAN</DistanceMeters>
          </Trackpoint>
          <Trackpoint>
            <Time>2019-10-05T10:47:44.000Z</Time>
            <Position>
              <LatitudeDegrees>42.10160938091576099395751953125</LatitudeDegrees>
              <LongitudeDegrees>-5.61324563808739185333251953125</LongitudeDegrees>
            </Position>
            <AltitudeMeters>622</AltitudeMeters>
            <DistanceMeters>NAN</DistanceMeters>
          </Trackpoint>
          <Trackpoint>
            <Time>2019-10-05T10:47:46.000Z</Time>
            <Position>
              <LatitudeDegrees>42.101511396467685699462890625</LatitudeDegrees>
              <LongitudeDegrees>-5.61329090036451816558837890625</LongitudeDegrees>
            </Position>
            <AltitudeMeters>621.79998779296875</AltitudeMeters>
            <DistanceMeters>NAN</DistanceMeters>
          </Trackpoint>
          <Trackpoint>
            <Time>2019-10-05T10:47:56.000Z</Time>
            <Position>
              <LatitudeDegrees>42.10098811425268650054931640625</LatitudeDegrees>
              <LongitudeDegrees>-5.61354696750640869140625</LongitudeDegrees>
            </Position>
            <AltitudeMeters>621.79998779296875</AltitudeMeters>
            <DistanceMeters>NAN</DistanceMeters>
          </Trackpoint>
          <Trackpoint>
            <Time>2019-10-05T10:48:06.000Z</Time>
            <Position>
              <LatitudeDegrees>42.10045670159161090850830078125</LatitudeDegrees>
              <LongitudeDegrees>-5.61379976570606231689453125</LongitudeDegrees>
            </Position>
            <AltitudeMeters>621.5999755859375</AltitudeMeters>
            <DistanceMeters>NAN</DistanceMeters>
          </Trackpoint>
          <Trackpoint>
            <Time>2019-10-05T10:48:07.000Z</Time>
            <Position>
              <LatitudeDegrees>42.1003992855548858642578125</LatitudeDegrees>
              <LongitudeDegrees>-5.6138280965387821197509765625</LongitudeDegrees>
            </Position>
            <AltitudeMeters>621.79998779296875</AltitudeMeters>
            <DistanceMeters>NAN</DistanceMeters>
          </Trackpoint>
          <Trackpoint>
            <Time>2019-10-05T10:48:17.000Z</Time>
            <Position>
              <LatitudeDegrees>42.099875919520854949951171875</LatitudeDegrees>
              <LongitudeDegrees>-5.6140758655965328216552734375</LongitudeDegrees>
            </Position>
            <AltitudeMeters>621.5999755859375</AltitudeMeters>
            <DistanceMeters>NAN</DistanceMeters>
          </Trackpoint>
          <Trackpoint>
            <Time>2019-10-05T10:48:18.000Z</Time>
            <Position>
              <LatitudeDegrees>42.09982370026409626007080078125</LatitudeDegrees>
              <LongitudeDegrees>-5.61410092748701572418212890625</LongitudeDegrees>
            </Position>
            <AltitudeMeters>621.79998779296875</AltitudeMeters>
            <DistanceMeters>NAN</DistanceMeters>
          </Trackpoint>
          <Trackpoint>
            <Time>2019-10-05T10:48:29.000Z</Time>
            <Position>
              <LatitudeDegrees>42.0993020944297313690185546875</LatitudeDegrees>
              <LongitudeDegrees>-5.61435095965862274169921875</LongitudeDegrees>
            </Position>
            <AltitudeMeters>621.4000244140625</AltitudeMeters>
            <DistanceMeters>NAN</DistanceMeters>
          </Trackpoint>
          <Trackpoint>
            <Time>2019-10-05T10:48:33.000Z</Time>
            <Position>
              <LatitudeDegrees>42.099088020622730255126953125</LatitudeDegrees>
              <LongitudeDegrees>-5.61445196159183979034423828125</LongitudeDegrees>
            </Position>
            <AltitudeMeters>621.5999755859375</AltitudeMeters>
            <DistanceMeters>NAN</DistanceMeters>
          </Trackpoint>
          <Trackpoint>
            <Time>2019-10-05T10:48:43.000Z</Time>
            <Position>
              <LatitudeDegrees>42.0985591225326061248779296875</LatitudeDegrees>
              <LongitudeDegrees>-5.61469973064959049224853515625</LongitudeDegrees>
            </Position>
            <AltitudeMeters>621.5999755859375</AltitudeMeters>
            <DistanceMeters>NAN</DistanceMeters>
          </Trackpoint>
          <Trackpoint>
            <Time>2019-10-05T10:48:46.000Z</Time>
            <Position>
              <LatitudeDegrees>42.09840263240039348602294921875</LatitudeDegrees>
              <LongitudeDegrees>-5.6147675402462482452392578125</LongitudeDegrees>
            </Position>
            <AltitudeMeters>622.20001220703125</AltitudeMeters>
            <DistanceMeters>NAN</DistanceMeters>
          </Trackpoint>
          <Trackpoint>
            <Time>2019-10-05T10:48:56.000Z</Time>
            <Position>
              <LatitudeDegrees>42.0978661067783832550048828125</LatitudeDegrees>
              <LongitudeDegrees>-5.6150059215724468231201171875</LongitudeDegrees>
            </Position>
            <AltitudeMeters>621.5999755859375</AltitudeMeters>
            <DistanceMeters>NAN</DistanceMeters>
          </Trackpoint>
          <Trackpoint>
            <Time>2019-10-05T10:49:05.000Z</Time>
            <Position>
              <LatitudeDegrees>42.09738112986087799072265625</LatitudeDegrees>
              <LongitudeDegrees>-5.61524413526058197021484375</LongitudeDegrees>
            </Position>
            <AltitudeMeters>621.5999755859375</AltitudeMeters>
            <DistanceMeters>NAN</DistanceMeters>
          </Trackpoint>
          <Trackpoint>
            <Time>2019-10-05T10:49:13.000Z</Time>
            <Position>
              <LatitudeDegrees>42.09694786928594112396240234375</LatitudeDegrees>
              <LongitudeDegrees>-5.61545494012534618377685546875</LongitudeDegrees>
            </Position>
            <AltitudeMeters>622</AltitudeMeters>
            <DistanceMeters>NAN</DistanceMeters>
          </Trackpoint>
          <Trackpoint>
            <Time>2019-10-05T10:49:22.000Z</Time>
            <Position>
              <LatitudeDegrees>42.09645819850265979766845703125</LatitudeDegrees>
              <LongitudeDegrees>-5.6156872026622295379638671875</LongitudeDegrees>
            </Position>
            <AltitudeMeters>623</AltitudeMeters>
            <DistanceMeters>NAN</DistanceMeters>
          </Trackpoint>
          <Trackpoint>
            <Time>2019-10-05T10:49:24.000Z</Time>
            <Position>
              <LatitudeDegrees>42.09634336642920970916748046875</LatitudeDegrees>
              <LongitudeDegrees>-5.6157421879470348358154296875</LongitudeDegrees>
            </Position>
            <AltitudeMeters>622</AltitudeMeters>
            <DistanceMeters>NAN</DistanceMeters>
          </Trackpoint>
          <Trackpoint>
            <Time>2019-10-05T10:49:33.000Z</Time>
            <Position>
              <LatitudeDegrees>42.09586031734943389892578125</LatitudeDegrees>
              <LongitudeDegrees>-5.61598367057740688323974609375</LongitudeDegrees>
            </Position>
            <AltitudeMeters>621.79998779296875</AltitudeMeters>
            <DistanceMeters>NAN</DistanceMeters>
          </Trackpoint>
          <Trackpoint>
            <Time>2019-10-05T10:49:41.000Z</Time>
            <Position>
              <LatitudeDegrees>42.09543610922992229461669921875</LatitudeDegrees>
              <LongitudeDegrees>-5.6161924637854099273681640625</LongitudeDegrees>
            </Position>
            <AltitudeMeters>621.79998779296875</AltitudeMeters>
            <DistanceMeters>NAN</DistanceMeters>
          </Trackpoint>
          <Trackpoint>
            <Time>2019-10-05T10:49:50.000Z</Time>
            <Position>
              <LatitudeDegrees>42.0949570834636688232421875</LatitudeDegrees>
              <LongitudeDegrees>-5.6164288334548473358154296875</LongitudeDegrees>
            </Position>
            <AltitudeMeters>621.79998779296875</AltitudeMeters>
            <DistanceMeters>NAN</DistanceMeters>
          </Trackpoint>
          <Trackpoint>
            <Time>2019-10-05T10:49:59.000Z</Time>
            <Position>
              <LatitudeDegrees>42.09447227418422698974609375</LatitudeDegrees>
              <LongitudeDegrees>-5.616653300821781158447265625</LongitudeDegrees>
            </Position>
            <AltitudeMeters>621.4000244140625</AltitudeMeters>
            <DistanceMeters>NAN</DistanceMeters>
          </Trackpoint>
          <Trackpoint>
            <Time>2019-10-05T10:50:09.000Z</Time>
            <Position>
              <LatitudeDegrees>42.09393189288675785064697265625</LatitudeDegrees>
              <LongitudeDegrees>-5.61690199188888072967529296875</LongitudeDegrees>
            </Position>
            <AltitudeMeters>621.79998779296875</AltitudeMeters>
            <DistanceMeters>NAN</DistanceMeters>
          </Trackpoint>
          <Trackpoint>
            <Time>2019-10-05T10:50:15.000Z</Time>
            <Position>
              <LatitudeDegrees>42.093608267605304718017578125</LatitudeDegrees>
              <LongitudeDegrees>-5.617062337696552276611328125</LongitudeDegrees>
            </Position>
            <AltitudeMeters>621.5999755859375</AltitudeMeters>
            <DistanceMeters>NAN</DistanceMeters>
          </Trackpoint>
          <Trackpoint>
            <Time>2019-10-05T10:50:18.000Z</Time>
            <Position>
              <LatitudeDegrees>42.09344423376023769378662109375</LatitudeDegrees>
              <LongitudeDegrees>-5.61713869683444499969482421875</LongitudeDegrees>
            </Position>
            <AltitudeMeters>622</AltitudeMeters>
            <DistanceMeters>NAN</DistanceMeters>
          </Trackpoint>
          <Trackpoint>
            <Time>2019-10-05T10:50:27.000Z</Time>
            <Position>
              <LatitudeDegrees>42.09295271895825862884521484375</LatitudeDegrees>
              <LongitudeDegrees>-5.6173677742481231689453125</LongitudeDegrees>
            </Position>
            <AltitudeMeters>621.4000244140625</AltitudeMeters>
            <DistanceMeters>NAN</DistanceMeters>
          </Trackpoint>
          <Trackpoint>
            <Time>2019-10-05T10:50:36.000Z</Time>
            <Position>
              <LatitudeDegrees>42.09245667792856693267822265625</LatitudeDegrees>
              <LongitudeDegrees>-5.61760506592690944671630859375</LongitudeDegrees>
            </Position>
            <AltitudeMeters>621.20001220703125</AltitudeMeters>
            <DistanceMeters>NAN</DistanceMeters>
          </Trackpoint>
          <Trackpoint>
            <Time>2019-10-05T10:50:45.000Z</Time>
            <Position>
              <LatitudeDegrees>42.0919598825275897979736328125</LatitudeDegrees>
              <LongitudeDegrees>-5.6178396753966808319091796875</LongitudeDegrees>
            </Position>
            <AltitudeMeters>621.5999755859375</AltitudeMeters>
            <DistanceMeters>NAN</DistanceMeters>
          </Trackpoint>
          <Trackpoint>
            <Time>2019-10-05T10:50:47.000Z</Time>
            <Position>
              <LatitudeDegrees>42.09184647537767887115478515625</LatitudeDegrees>
              <LongitudeDegrees>-5.61789373867213726043701171875</LongitudeDegrees>
            </Position>
            <AltitudeMeters>620.79998779296875</AltitudeMeters>
            <DistanceMeters>NAN</DistanceMeters>
          </Trackpoint>
          <Trackpoint>
            <Time>2019-10-05T10:50:56.000Z</Time>
            <Position>
              <LatitudeDegrees>42.09135227836668491363525390625</LatitudeDegrees>
              <LongitudeDegrees>-5.618125498294830322265625</LongitudeDegrees>
            </Position>
            <AltitudeMeters>622.5999755859375</AltitudeMeters>
            <DistanceMeters>NAN</DistanceMeters>
          </Trackpoint>
          <Trackpoint>
            <Time>2019-10-05T10:51:00.000Z</Time>
            <Position>
              <LatitudeDegrees>42.091131247580051422119140625</LatitudeDegrees>
              <LongitudeDegrees>-5.618223734200000762939453125</LongitudeDegrees>
            </Position>
            <AltitudeMeters>621.4000244140625</AltitudeMeters>
            <DistanceMeters>NAN</DistanceMeters>
          </Trackpoint>
          <Trackpoint>
            <Time>2019-10-05T10:51:06.000Z</Time>
            <Position>
              <LatitudeDegrees>42.09080443717539310455322265625</LatitudeDegrees>
              <LongitudeDegrees>-5.6183816492557525634765625</LongitudeDegrees>
            </Position>
            <AltitudeMeters>621.4000244140625</AltitudeMeters>
            <DistanceMeters>NAN</DistanceMeters>
          </Trackpoint>
          <Trackpoint>
            <Time>2019-10-05T10:51:16.000Z</Time>
            <Position>
              <LatitudeDegrees>42.090259529650211334228515625</LatitudeDegrees>
              <LongitudeDegrees>-5.6186336092650890350341796875</LongitudeDegrees>
            </Position>
            <AltitudeMeters>621.20001220703125</AltitudeMeters>
            <DistanceMeters>NAN</DistanceMeters>
          </Trackpoint>
          <Trackpoint>
            <Time>2019-10-05T10:51:18.000Z</Time>
            <Position>
              <LatitudeDegrees>42.0901505649089813232421875</LatitudeDegrees>
              <LongitudeDegrees>-5.61868281103670597076416015625</LongitudeDegrees>
            </Position>
            <AltitudeMeters>622</AltitudeMeters>
            <DistanceMeters>NAN</DistanceMeters>
          </Trackpoint>
          <Trackpoint>
            <Time>2019-10-05T10:51:28.000Z</Time>
            <Position>
              <LatitudeDegrees>42.089605741202831268310546875</LatitudeDegrees>
              <LongitudeDegrees>-5.61894466169178485870361328125</LongitudeDegrees>
            </Position>
            <AltitudeMeters>621.79998779296875</AltitudeMeters>
            <DistanceMeters>NAN</DistanceMeters>
          </Trackpoint>
          <Trackpoint>
            <Time>2019-10-05T10:51:38.000Z</Time>
            <Position>
              <LatitudeDegrees>42.0890694670379161834716796875</LatitudeDegrees>
              <LongitudeDegrees>-5.6192019023001194000244140625</LongitudeDegrees>
            </Position>
            <AltitudeMeters>621.79998779296875</AltitudeMeters>
            <DistanceMeters>NAN</DistanceMeters>
          </Trackpoint>
          <Trackpoint>
            <Time>2019-10-05T10:51:48.000Z</Time>
            <Position>
              <LatitudeDegrees>42.08852824755012989044189453125</LatitudeDegrees>
              <LongitudeDegrees>-5.61946190893650054931640625</LongitudeDegrees>
            </Position>
            <AltitudeMeters>622</AltitudeMeters>
            <DistanceMeters>NAN</DistanceMeters>
          </Trackpoint>
          <Trackpoint>
            <Time>2019-10-05T10:51:50.000Z</Time>
            <Position>
              <LatitudeDegrees>42.088420875370502471923828125</LatitudeDegrees>
              <LongitudeDegrees>-5.619512535631656646728515625</LongitudeDegrees>
            </Position>
            <AltitudeMeters>621.5999755859375</AltitudeMeters>
            <DistanceMeters>NAN</DistanceMeters>
          </Trackpoint>
          <Trackpoint>
            <Time>2019-10-05T10:51:58.000Z</Time>
            <Position>
              <LatitudeDegrees>42.08798660896718502044677734375</LatitudeDegrees>
              <LongitudeDegrees>-5.6197252683341503143310546875</LongitudeDegrees>
            </Position>
            <AltitudeMeters>621.4000244140625</AltitudeMeters>
            <DistanceMeters>NAN</DistanceMeters>
          </Trackpoint>
          <Trackpoint>
            <Time>2019-10-05T10:52:08.000Z</Time>
            <Position>
              <LatitudeDegrees>42.0874420367181301116943359375</LatitudeDegrees>
              <LongitudeDegrees>-5.6199817545711994171142578125</LongitudeDegrees>
            </Position>
            <AltitudeMeters>621</AltitudeMeters>
            <DistanceMeters>NAN</DistanceMeters>
          </Trackpoint>
          <Trackpoint>
            <Time>2019-10-05T10:52:16.000Z</Time>
            <Position>
              <LatitudeDegrees>42.08701045252382755279541015625</LatitudeDegrees>
              <LongitudeDegrees>-5.62018870376050472259521484375</LongitudeDegrees>
            </Position>
            <AltitudeMeters>621</AltitudeMeters>
            <DistanceMeters>NAN</DistanceMeters>
          </Trackpoint>
          <Trackpoint>
            <Time>2019-10-05T10:52:25.000Z</Time>
            <Position>
              <LatitudeDegrees>42.08652488887310028076171875</LatitudeDegrees>
              <LongitudeDegrees>-5.6204330362379550933837890625</LongitudeDegrees>
            </Position>
            <AltitudeMeters>621.20001220703125</AltitudeMeters>
            <DistanceMeters>NAN</DistanceMeters>
          </Trackpoint>
          <Trackpoint>
            <Time>2019-10-05T10:52:32.000Z</Time>
            <Position>
              <LatitudeDegrees>42.0861378125846385955810546875</LatitudeDegrees>
              <LongitudeDegrees>-5.620614923536777496337890625</LongitudeDegrees>
            </Position>
            <AltitudeMeters>620.20001220703125</AltitudeMeters>
            <DistanceMeters>NAN</DistanceMeters>
          </Trackpoint>
          <Trackpoint>
            <Time>2019-10-05T10:52:33.000Z</Time>
            <Position>
              <LatitudeDegrees>42.08608425222337245941162109375</LatitudeDegrees>
              <LongitudeDegrees>-5.6206400692462921142578125</LongitudeDegrees>
            </Position>
            <AltitudeMeters>620.4000244140625</AltitudeMeters>
            <DistanceMeters>NAN</DistanceMeters>
          </Trackpoint>
          <Trackpoint>
            <Time>2019-10-05T10:52:41.000Z</Time>
            <Position>
              <LatitudeDegrees>42.08565987646579742431640625</LatitudeDegrees>
              <LongitudeDegrees>-5.62083184719085693359375</LongitudeDegrees>
            </Position>
            <AltitudeMeters>620.20001220703125</AltitudeMeters>
            <DistanceMeters>NAN</DistanceMeters>
          </Trackpoint>
          <Trackpoint>
            <Time>2019-10-05T10:52:51.000Z</Time>
            <Position>
              <LatitudeDegrees>42.08513952791690826416015625</LatitudeDegrees>
              <LongitudeDegrees>-5.62108942307531833648681640625</LongitudeDegrees>
            </Position>
            <AltitudeMeters>620.5999755859375</AltitudeMeters>
            <DistanceMeters>NAN</DistanceMeters>
          </Trackpoint>
          <Trackpoint>
            <Time>2019-10-05T10:52:58.000Z</Time>
            <Position>
              <LatitudeDegrees>42.08477784879505634307861328125</LatitudeDegrees>
              <LongitudeDegrees>-5.62125957570970058441162109375</LongitudeDegrees>
            </Position>
            <AltitudeMeters>620.79998779296875</AltitudeMeters>
            <DistanceMeters>NAN</DistanceMeters>
          </Trackpoint>
          <Trackpoint>
            <Time>2019-10-05T10:53:02.000Z</Time>
            <Position>
              <LatitudeDegrees>42.08457081578671932220458984375</LatitudeDegrees>
              <LongitudeDegrees>-5.62136099673807621002197265625</LongitudeDegrees>
            </Position>
            <AltitudeMeters>620.5999755859375</AltitudeMeters>
            <DistanceMeters>NAN</DistanceMeters>
          </Trackpoint>
          <Trackpoint>
            <Time>2019-10-05T10:53:11.000Z</Time>
            <Position>
              <LatitudeDegrees>42.0841075479984283447265625</LatitudeDegrees>
              <LongitudeDegrees>-5.6215769983828067779541015625</LongitudeDegrees>
            </Position>
            <AltitudeMeters>620.5999755859375</AltitudeMeters>
            <DistanceMeters>NAN</DistanceMeters>
          </Trackpoint>
          <Trackpoint>
            <Time>2019-10-05T10:53:21.000Z</Time>
            <Position>
              <LatitudeDegrees>42.08359113894402980804443359375</LatitudeDegrees>
              <LongitudeDegrees>-5.62183055095374584197998046875</LongitudeDegrees>
            </Position>
            <AltitudeMeters>620.4000244140625</AltitudeMeters>
            <DistanceMeters>NAN</DistanceMeters>
          </Trackpoint>
          <Trackpoint>
            <Time>2019-10-05T10:53:31.000Z</Time>
            <Position>
              <LatitudeDegrees>42.0830722153186798095703125</LatitudeDegrees>
              <LongitudeDegrees>-5.6220765598118305206298828125</LongitudeDegrees>
            </Position>
            <AltitudeMeters>619.79998779296875</AltitudeMeters>
            <DistanceMeters>NAN</DistanceMeters>
          </Trackpoint>
          <Trackpoint>
            <Time>2019-10-05T10:53:40.000Z</Time>
            <Position>
              <LatitudeDegrees>42.082607187330722808837890625</LatitudeDegrees>
              <LongitudeDegrees>-5.6222914718091487884521484375</LongitudeDegrees>
            </Position>
            <AltitudeMeters>620.20001220703125</AltitudeMeters>
            <DistanceMeters>NAN</DistanceMeters>
          </Trackpoint>
          <Trackpoint>
            <Time>2019-10-05T10:53:48.000Z</Time>
            <Position>
              <LatitudeDegrees>42.08218901418149471282958984375</LatitudeDegrees>
              <LongitudeDegrees>-5.62248551286756992340087890625</LongitudeDegrees>
            </Position>
            <AltitudeMeters>620.4000244140625</AltitudeMeters>
            <DistanceMeters>NAN</DistanceMeters>
          </Trackpoint>
          <Trackpoint>
            <Time>2019-10-05T10:53:58.000Z</Time>
            <Position>
              <LatitudeDegrees>42.0816588588058948516845703125</LatitudeDegrees>
              <LongitudeDegrees>-5.62273420393466949462890625</LongitudeDegrees>
            </Position>
            <AltitudeMeters>621</AltitudeMeters>
            <DistanceMeters>NAN</DistanceMeters>
          </Trackpoint>
          <Trackpoint>
            <Time>2019-10-05T10:53:59.000Z</Time>
            <Position>
              <LatitudeDegrees>42.08160697482526302337646484375</LatitudeDegrees>
              <LongitudeDegrees>-5.62275909818708896636962890625</LongitudeDegrees>
            </Position>
            <AltitudeMeters>620.79998779296875</AltitudeMeters>
            <DistanceMeters>NAN</DistanceMeters>
          </Trackpoint>
          <Trackpoint>
            <Time>2019-10-05T10:54:09.000Z</Time>
            <Position>
              <LatitudeDegrees>42.0810905657708644866943359375</LatitudeDegrees>
              <LongitudeDegrees>-5.62301189638674259185791015625</LongitudeDegrees>
            </Position>
            <AltitudeMeters>620.79998779296875</AltitudeMeters>
            <DistanceMeters>NAN</DistanceMeters>
          </Trackpoint>
          <Trackpoint>
            <Time>2019-10-05T10:54:11.000Z</Time>
            <Position>
              <LatitudeDegrees>42.0809879712760448455810546875</LatitudeDegrees>
              <LongitudeDegrees>-5.62306151725351810455322265625</LongitudeDegrees>
            </Position>
            <AltitudeMeters>621</AltitudeMeters>
            <DistanceMeters>NAN</DistanceMeters>
          </Trackpoint>
          <Trackpoint>
            <Time>2019-10-05T10:54:21.000Z</Time>
            <Position>
              <LatitudeDegrees>42.0804662816226482391357421875</LatitudeDegrees>
              <LongitudeDegrees>-5.62330442480742931365966796875</LongitudeDegrees>
            </Position>
            <AltitudeMeters>621.20001220703125</AltitudeMeters>
            <DistanceMeters>NAN</DistanceMeters>
          </Trackpoint>
          <Trackpoint>
            <Time>2019-10-05T10:54:31.000Z</Time>
            <Position>
              <LatitudeDegrees>42.07994232885539531707763671875</LatitudeDegrees>
              <LongitudeDegrees>-5.6235517747700214385986328125</LongitudeDegrees>
            </Position>
            <AltitudeMeters>621.4000244140625</AltitudeMeters>
            <DistanceMeters>NAN</DistanceMeters>
          </Trackpoint>
          <Trackpoint>
            <Time>2019-10-05T10:54:32.000Z</Time>
            <Position>
              <LatitudeDegrees>42.0798899419605731964111328125</LatitudeDegrees>
              <LongitudeDegrees>-5.62357700429856777191162109375</LongitudeDegrees>
            </Position>
            <AltitudeMeters>621.5999755859375</AltitudeMeters>
            <DistanceMeters>NAN</DistanceMeters>
          </Trackpoint>
          <Trackpoint>
            <Time>2019-10-05T10:54:41.000Z</Time>
            <Position>
              <LatitudeDegrees>42.07941393367946147918701171875</LatitudeDegrees>
              <LongitudeDegrees>-5.62380834482610225677490234375</LongitudeDegrees>
            </Position>
            <AltitudeMeters>621.4000244140625</AltitudeMeters>
            <DistanceMeters>NAN</DistanceMeters>
          </Trackpoint>
          <Trackpoint>
            <Time>2019-10-05T10:54:51.000Z</Time>
            <Position>
              <LatitudeDegrees>42.07888252101838588714599609375</LatitudeDegrees>
              <LongitudeDegrees>-5.62406047247350215911865234375</LongitudeDegrees>
            </Position>
            <AltitudeMeters>621.5999755859375</AltitudeMeters>
            <DistanceMeters>NAN</DistanceMeters>
          </Trackpoint>
          <Trackpoint>
            <Time>2019-10-05T10:54:52.000Z</Time>
            <Position>
              <LatitudeDegrees>42.078829295933246612548828125</LatitudeDegrees>
              <LongitudeDegrees>-5.624085031449794769287109375</LongitudeDegrees>
            </Position>
            <AltitudeMeters>621.5999755859375</AltitudeMeters>
            <DistanceMeters>NAN</DistanceMeters>
          </Trackpoint>
          <Trackpoint>
            <Time>2019-10-05T10:55:00.000Z</Time>
            <Position>
              <LatitudeDegrees>42.07840240560472011566162109375</LatitudeDegrees>
              <LongitudeDegrees>-5.6242880411446094512939453125</LongitudeDegrees>
            </Position>
            <AltitudeMeters>621</AltitudeMeters>
            <DistanceMeters>NAN</DistanceMeters>
          </Trackpoint>
          <Trackpoint>
            <Time>2019-10-05T10:55:07.000Z</Time>
            <Position>
              <LatitudeDegrees>42.0780274830758571624755859375</LatitudeDegrees>
              <LongitudeDegrees>-5.62446045689284801483154296875</LongitudeDegrees>
            </Position>
            <AltitudeMeters>620.4000244140625</AltitudeMeters>
            <DistanceMeters>NAN</DistanceMeters>
          </Trackpoint>
          <Trackpoint>
            <Time>2019-10-05T10:55:08.000Z</Time>
            <Position>
              <LatitudeDegrees>42.077975012362003326416015625</LatitudeDegrees>
              <LongitudeDegrees>-5.6244841776788234710693359375</LongitudeDegrees>
            </Position>
            <AltitudeMeters>620.20001220703125</AltitudeMeters>
            <DistanceMeters>NAN</DistanceMeters>
          </Trackpoint>
          <Trackpoint>
            <Time>2019-10-05T10:55:14.000Z</Time>
            <Position>
              <LatitudeDegrees>42.07766546867787837982177734375</LatitudeDegrees>
              <LongitudeDegrees>-5.62463664449751377105712890625</LongitudeDegrees>
            </Position>
            <AltitudeMeters>620.5999755859375</AltitudeMeters>
            <DistanceMeters>NAN</DistanceMeters>
          </Trackpoint>
          <Trackpoint>
            <Time>2019-10-05T10:55:22.000Z</Time>
            <Position>
              <LatitudeDegrees>42.07721703685820102691650390625</LatitudeDegrees>
              <LongitudeDegrees>-5.62485474161803722381591796875</LongitudeDegrees>
            </Position>
            <AltitudeMeters>620.79998779296875</AltitudeMeters>
            <DistanceMeters>NAN</DistanceMeters>
          </Trackpoint>
          <Trackpoint>
            <Time>2019-10-05T10:55:31.000Z</Time>
            <Position>
              <LatitudeDegrees>42.07668998278677463531494140625</LatitudeDegrees>
              <LongitudeDegrees>-5.62509396113455295562744140625</LongitudeDegrees>
            </Position>
            <AltitudeMeters>621.20001220703125</AltitudeMeters>
            <DistanceMeters>NAN</DistanceMeters>
          </Trackpoint>
          <Trackpoint>
            <Time>2019-10-05T10:55:33.000Z</Time>
            <Position>
              <LatitudeDegrees>42.076575569808483123779296875</LatitudeDegrees>
              <LongitudeDegrees>-5.625148527324199676513671875</LongitudeDegrees>
            </Position>
            <AltitudeMeters>621.20001220703125</AltitudeMeters>
            <DistanceMeters>NAN</DistanceMeters>
          </Trackpoint>
          <Trackpoint>
            <Time>2019-10-05T10:55:42.000Z</Time>
            <Position>
              <LatitudeDegrees>42.07605949603021144866943359375</LatitudeDegrees>
              <LongitudeDegrees>-5.62539227306842803955078125</LongitudeDegrees>
            </Position>
            <AltitudeMeters>620.5999755859375</AltitudeMeters>
            <DistanceMeters>NAN</DistanceMeters>
          </Trackpoint>
          <Trackpoint>
            <Time>2019-10-05T10:55:43.000Z</Time>
            <Position>
              <LatitudeDegrees>42.076003253459930419921875</LatitudeDegrees>
              <LongitudeDegrees>-5.62541984952986240386962890625</LongitudeDegrees>
            </Position>
            <AltitudeMeters>620.4000244140625</AltitudeMeters>
            <DistanceMeters>NAN</DistanceMeters>
          </Trackpoint>
          <Trackpoint>
            <Time>2019-10-05T10:55:53.000Z</Time>
            <Position>
              <LatitudeDegrees>42.0754681527614593505859375</LatitudeDegrees>
              <LongitudeDegrees>-5.62568471767008304595947265625</LongitudeDegrees>
            </Position>
            <AltitudeMeters>621.4000244140625</AltitudeMeters>
            <DistanceMeters>NAN</DistanceMeters>
          </Trackpoint>
          <Trackpoint>
            <Time>2019-10-05T10:55:54.000Z</Time>
            <Position>
              <LatitudeDegrees>42.07541576586663722991943359375</LatitudeDegrees>
              <LongitudeDegrees>-5.62570919282734394073486328125</LongitudeDegrees>
            </Position>
            <AltitudeMeters>621.4000244140625</AltitudeMeters>
            <DistanceMeters>NAN</DistanceMeters>
          </Trackpoint>
          <Trackpoint>
            <Time>2019-10-05T10:56:04.000Z</Time>
            <Position>
              <LatitudeDegrees>42.0748941600322723388671875</LatitudeDegrees>
              <LongitudeDegrees>-5.62595126219093799591064453125</LongitudeDegrees>
            </Position>
            <AltitudeMeters>620.5999755859375</AltitudeMeters>
            <DistanceMeters>NAN</DistanceMeters>
          </Trackpoint>
          <Trackpoint>
            <Time>2019-10-05T10:56:14.000Z</Time>
            <Position>
              <LatitudeDegrees>42.07438261248171329498291015625</LatitudeDegrees>
              <LongitudeDegrees>-5.62619433738291263580322265625</LongitudeDegrees>
            </Position>
            <AltitudeMeters>621.20001220703125</AltitudeMeters>
            <DistanceMeters>NAN</DistanceMeters>
          </Trackpoint>
          <Trackpoint>
            <Time>2019-10-05T10:56:24.000Z</Time>
            <Position>
              <LatitudeDegrees>42.0738636888563632965087890625</LatitudeDegrees>
              <LongitudeDegrees>-5.62643674202263355255126953125</LongitudeDegrees>
            </Position>
            <AltitudeMeters>621.20001220703125</AltitudeMeters>
            <DistanceMeters>NAN</DistanceMeters>
          </Trackpoint>
          <Trackpoint>
            <Time>2019-10-05T10:56:25.000Z</Time>
            <Position>
              <LatitudeDegrees>42.07381230778992176055908203125</LatitudeDegrees>
              <LongitudeDegrees>-5.62646155245602130889892578125</LongitudeDegrees>
            </Position>
            <AltitudeMeters>621.4000244140625</AltitudeMeters>
            <DistanceMeters>NAN</DistanceMeters>
          </Trackpoint>
          <Trackpoint>
            <Time>2019-10-05T10:56:35.000Z</Time>
            <Position>
              <LatitudeDegrees>42.07329296506941318511962890625</LatitudeDegrees>
              <LongitudeDegrees>-5.626713596284389495849609375</LongitudeDegrees>
            </Position>
            <AltitudeMeters>621</AltitudeMeters>
            <DistanceMeters>NAN</DistanceMeters>
          </Trackpoint>
          <Trackpoint>
            <Time>2019-10-05T10:56:45.000Z</Time>
            <Position>
              <LatitudeDegrees>42.0727690123021602630615234375</LatitudeDegrees>
              <LongitudeDegrees>-5.62696530483663082122802734375</LongitudeDegrees>
            </Position>
            <AltitudeMeters>620.4000244140625</AltitudeMeters>
            <DistanceMeters>NAN</DistanceMeters>
          </Trackpoint>
          <Trackpoint>
            <Time>2019-10-05T10:56:46.000Z</Time>
            <Position>
              <LatitudeDegrees>42.0727173797786235809326171875</LatitudeDegrees>
              <LongitudeDegrees>-5.62698961235582828521728515625</LongitudeDegrees>
            </Position>
            <AltitudeMeters>620.20001220703125</AltitudeMeters>
            <DistanceMeters>NAN</DistanceMeters>
          </Trackpoint>
          <Trackpoint>
            <Time>2019-10-05T10:56:49.000Z</Time>
            <Position>
              <LatitudeDegrees>42.07255720160901546478271484375</LatitudeDegrees>
              <LongitudeDegrees>-5.62706136144697666168212890625</LongitudeDegrees>
            </Position>
            <AltitudeMeters>621.4000244140625</AltitudeMeters>
            <DistanceMeters>NAN</DistanceMeters>
          </Trackpoint>
          <Trackpoint>
            <Time>2019-10-05T10:56:56.000Z</Time>
            <Position>
              <LatitudeDegrees>42.07218873314559459686279296875</LatitudeDegrees>
              <LongitudeDegrees>-5.62723821960389614105224609375</LongitudeDegrees>
            </Position>
            <AltitudeMeters>620.4000244140625</AltitudeMeters>
            <DistanceMeters>NAN</DistanceMeters>
          </Trackpoint>
          <Trackpoint>
            <Time>2019-10-05T10:57:03.000Z</Time>
            <Position>
              <LatitudeDegrees>42.07182043232023715972900390625</LatitudeDegrees>
              <LongitudeDegrees>-5.627411305904388427734375</LongitudeDegrees>
            </Position>
            <AltitudeMeters>621.20001220703125</AltitudeMeters>
            <DistanceMeters>NAN</DistanceMeters>
          </Trackpoint>
          <Trackpoint>
            <Time>2019-10-05T10:57:07.000Z</Time>
            <Position>
              <LatitudeDegrees>42.07161314785480499267578125</LatitudeDegrees>
              <LongitudeDegrees>-5.62750962562859058380126953125</LongitudeDegrees>
            </Position>
            <AltitudeMeters>621.4000244140625</AltitudeMeters>
            <DistanceMeters>NAN</DistanceMeters>
          </Trackpoint>
          <Trackpoint>
            <Time>2019-10-05T10:57:17.000Z</Time>
            <Position>
              <LatitudeDegrees>42.07108341157436370849609375</LatitudeDegrees>
              <LongitudeDegrees>-5.62776259146630764007568359375</LongitudeDegrees>
            </Position>
            <AltitudeMeters>621.4000244140625</AltitudeMeters>
            <DistanceMeters>NAN</DistanceMeters>
          </Trackpoint>
          <Trackpoint>
            <Time>2019-10-05T10:57:18.000Z</Time>
            <Position>
              <LatitudeDegrees>42.0710289292037487030029296875</LatitudeDegrees>
              <LongitudeDegrees>-5.62778949737548828125</LongitudeDegrees>
            </Position>
            <AltitudeMeters>621</AltitudeMeters>
            <DistanceMeters>NAN</DistanceMeters>
          </Trackpoint>
          <Trackpoint>
            <Time>2019-10-05T10:57:28.000Z</Time>
            <Position>
              <LatitudeDegrees>42.070497684180736541748046875</LatitudeDegrees>
              <LongitudeDegrees>-5.62804154120385646820068359375</LongitudeDegrees>
            </Position>
            <AltitudeMeters>621</AltitudeMeters>
            <DistanceMeters>NAN</DistanceMeters>
          </Trackpoint>
          <Trackpoint>
            <Time>2019-10-05T10:57:29.000Z</Time>
            <Position>
              <LatitudeDegrees>42.0704452134668827056884765625</LatitudeDegrees>
              <LongitudeDegrees>-5.62806702218949794769287109375</LongitudeDegrees>
            </Position>
            <AltitudeMeters>621</AltitudeMeters>
            <DistanceMeters>NAN</DistanceMeters>
          </Trackpoint>
          <Trackpoint>
            <Time>2019-10-05T10:57:38.000Z</Time>
            <Position>
              <LatitudeDegrees>42.06997641362249851226806640625</LatitudeDegrees>
              <LongitudeDegrees>-5.628295429050922393798828125</LongitudeDegrees>
            </Position>
            <AltitudeMeters>620.20001220703125</AltitudeMeters>
            <DistanceMeters>NAN</DistanceMeters>
          </Trackpoint>
          <Trackpoint>
            <Time>2019-10-05T10:57:41.000Z</Time>
            <Position>
              <LatitudeDegrees>42.0698209293186664581298828125</LatitudeDegrees>
              <LongitudeDegrees>-5.62837027944624423980712890625</LongitudeDegrees>
            </Position>
            <AltitudeMeters>620.4000244140625</AltitudeMeters>
            <DistanceMeters>NAN</DistanceMeters>
          </Trackpoint>
          <Trackpoint>
            <Time>2019-10-05T10:57:51.000Z</Time>
            <Position>
              <LatitudeDegrees>42.06929177977144718170166015625</LatitudeDegrees>
              <LongitudeDegrees>-5.62861754558980464935302734375</LongitudeDegrees>
            </Position>
            <AltitudeMeters>620.5999755859375</AltitudeMeters>
            <DistanceMeters>NAN</DistanceMeters>
          </Trackpoint>
          <Trackpoint>
            <Time>2019-10-05T10:57:52.000Z</Time>
            <Position>
              <LatitudeDegrees>42.06923780031502246856689453125</LatitudeDegrees>
              <LongitudeDegrees>-5.62864336185157299041748046875</LongitudeDegrees>
            </Position>
            <AltitudeMeters>620.5999755859375</AltitudeMeters>
            <DistanceMeters>NAN</DistanceMeters>
          </Trackpoint>
          <Trackpoint>
            <Time>2019-10-05T10:58:02.000Z</Time>
            <Position>
              <LatitudeDegrees>42.068707644939422607421875</LatitudeDegrees>
              <LongitudeDegrees>-5.6289000995457172393798828125</LongitudeDegrees>
            </Position>
            <AltitudeMeters>620.79998779296875</AltitudeMeters>
            <DistanceMeters>NAN</DistanceMeters>
          </Trackpoint>
          <Trackpoint>
            <Time>2019-10-05T10:58:06.000Z</Time>
            <Position>
              <LatitudeDegrees>42.0684929005801677703857421875</LatitudeDegrees>
              <LongitudeDegrees>-5.62900294549763202667236328125</LongitudeDegrees>
            </Position>
            <AltitudeMeters>620.5999755859375</AltitudeMeters>
            <DistanceMeters>NAN</DistanceMeters>
          </Trackpoint>
          <Trackpoint>
            <Time>2019-10-05T10:58:16.000Z</Time>
            <Position>
              <LatitudeDegrees>42.06794916652143001556396484375</LatitudeDegrees>
              <LongitudeDegrees>-5.6292595155537128448486328125</LongitudeDegrees>
            </Position>
            <AltitudeMeters>620.4000244140625</AltitudeMeters>
            <DistanceMeters>NAN</DistanceMeters>
          </Trackpoint>
          <Trackpoint>
            <Time>2019-10-05T10:58:17.000Z</Time>
            <Position>
              <LatitudeDegrees>42.0678951032459735870361328125</LatitudeDegrees>
              <LongitudeDegrees>-5.62928474508225917816162109375</LongitudeDegrees>
            </Position>
            <AltitudeMeters>620</AltitudeMeters>
            <DistanceMeters>NAN</DistanceMeters>
          </Trackpoint>
          <Trackpoint>
            <Time>2019-10-05T10:58:27.000Z</Time>
            <Position>
              <LatitudeDegrees>42.06736293621361255645751953125</LatitudeDegrees>
              <LongitudeDegrees>-5.62953921966254711151123046875</LongitudeDegrees>
            </Position>
            <AltitudeMeters>620.4000244140625</AltitudeMeters>
            <DistanceMeters>NAN</DistanceMeters>
          </Trackpoint>
          <Trackpoint>
            <Time>2019-10-05T10:58:36.000Z</Time>
            <Position>
              <LatitudeDegrees>42.06688147969543933868408203125</LatitudeDegrees>
              <LongitudeDegrees>-5.6297684647142887115478515625</LongitudeDegrees>
            </Position>
            <AltitudeMeters>620.4000244140625</AltitudeMeters>
            <DistanceMeters>NAN</DistanceMeters>
          </Trackpoint>
          <Trackpoint>
            <Time>2019-10-05T10:58:44.000Z</Time>
            <Position>
              <LatitudeDegrees>42.06645819358527660369873046875</LatitudeDegrees>
              <LongitudeDegrees>-5.62996669672429561614990234375</LongitudeDegrees>
            </Position>
            <AltitudeMeters>619.79998779296875</AltitudeMeters>
            <DistanceMeters>NAN</DistanceMeters>
          </Trackpoint>
          <Trackpoint>
            <Time>2019-10-05T10:58:52.000Z</Time>
            <Position>
              <LatitudeDegrees>42.06604379229247570037841796875</LatitudeDegrees>
              <LongitudeDegrees>-5.63016786240041255950927734375</LongitudeDegrees>
            </Position>
            <AltitudeMeters>620</AltitudeMeters>
            <DistanceMeters>NAN</DistanceMeters>
          </Trackpoint>
          <Trackpoint>
            <Time>2019-10-05T10:58:58.000Z</Time>
            <Position>
              <LatitudeDegrees>42.0657322369515895843505859375</LatitudeDegrees>
              <LongitudeDegrees>-5.6303156353533267974853515625</LongitudeDegrees>
            </Position>
            <AltitudeMeters>619.20001220703125</AltitudeMeters>
            <DistanceMeters>NAN</DistanceMeters>
          </Trackpoint>
          <Trackpoint>
            <Time>2019-10-05T10:59:03.000Z</Time>
            <Position>
              <LatitudeDegrees>42.06547348760068416595458984375</LatitudeDegrees>
              <LongitudeDegrees>-5.63044178299605846405029296875</LongitudeDegrees>
            </Position>
            <AltitudeMeters>619.4000244140625</AltitudeMeters>
            <DistanceMeters>NAN</DistanceMeters>
          </Trackpoint>
          <Trackpoint>
            <Time>2019-10-05T10:59:10.000Z</Time>
            <Position>
              <LatitudeDegrees>42.06510032527148723602294921875</LatitudeDegrees>
              <LongitudeDegrees>-5.630619227886199951171875</LongitudeDegrees>
            </Position>
            <AltitudeMeters>620</AltitudeMeters>
            <DistanceMeters>NAN</DistanceMeters>
          </Trackpoint>
          <Trackpoint>
            <Time>2019-10-05T10:59:14.000Z</Time>
            <Position>
              <LatitudeDegrees>42.0648863352835178375244140625</LatitudeDegrees>
              <LongitudeDegrees>-5.63072458840906620025634765625</LongitudeDegrees>
            </Position>
            <AltitudeMeters>620.20001220703125</AltitudeMeters>
            <DistanceMeters>NAN</DistanceMeters>
          </Trackpoint>
          <Trackpoint>
            <Time>2019-10-05T10:59:18.000Z</Time>
            <Position>
              <LatitudeDegrees>42.0646668970584869384765625</LatitudeDegrees>
              <LongitudeDegrees>-5.6308259256184101104736328125</LongitudeDegrees>
            </Position>
            <AltitudeMeters>620</AltitudeMeters>
            <DistanceMeters>NAN</DistanceMeters>
          </Trackpoint>
          <Trackpoint>
            <Time>2019-10-05T10:59:28.000Z</Time>
            <Position>
              <LatitudeDegrees>42.0641225762665271759033203125</LatitudeDegrees>
              <LongitudeDegrees>-5.63108257949352264404296875</LongitudeDegrees>
            </Position>
            <AltitudeMeters>619.79998779296875</AltitudeMeters>
            <DistanceMeters>NAN</DistanceMeters>
          </Trackpoint>
          <Trackpoint>
            <Time>2019-10-05T10:59:31.000Z</Time>
            <Position>
              <LatitudeDegrees>42.0639636553823947906494140625</LatitudeDegrees>
              <LongitudeDegrees>-5.63116111792623996734619140625</LongitudeDegrees>
            </Position>
            <AltitudeMeters>619.20001220703125</AltitudeMeters>
            <DistanceMeters>NAN</DistanceMeters>
          </Trackpoint>
          <Trackpoint>
            <Time>2019-10-05T10:59:37.000Z</Time>
            <Position>
              <LatitudeDegrees>42.063648663461208343505859375</LatitudeDegrees>
              <LongitudeDegrees>-5.63131031580269336700439453125</LongitudeDegrees>
            </Position>
            <AltitudeMeters>619.20001220703125</AltitudeMeters>
            <DistanceMeters>NAN</DistanceMeters>
          </Trackpoint>
          <Trackpoint>
            <Time>2019-10-05T10:59:43.000Z</Time>
            <Position>
              <LatitudeDegrees>42.0633343420922756195068359375</LatitudeDegrees>
              <LongitudeDegrees>-5.631457753479480743408203125</LongitudeDegrees>
            </Position>
            <AltitudeMeters>619.5999755859375</AltitudeMeters>
            <DistanceMeters>NAN</DistanceMeters>
          </Trackpoint>
          <Trackpoint>
            <Time>2019-10-05T10:59:50.000Z</Time>
            <Position>
              <LatitudeDegrees>42.0629605092108249664306640625</LatitudeDegrees>
              <LongitudeDegrees>-5.63163218088448047637939453125</LongitudeDegrees>
            </Position>
            <AltitudeMeters>619.5999755859375</AltitudeMeters>
            <DistanceMeters>NAN</DistanceMeters>
          </Trackpoint>
          <Trackpoint>
            <Time>2019-10-05T10:59:57.000Z</Time>
            <Position>
              <LatitudeDegrees>42.0625880174338817596435546875</LatitudeDegrees>
              <LongitudeDegrees>-5.63180786557495594024658203125</LongitudeDegrees>
            </Position>
            <AltitudeMeters>618.4000244140625</AltitudeMeters>
            <DistanceMeters>NAN</DistanceMeters>
          </Trackpoint>
          <Trackpoint>
            <Time>2019-10-05T11:00:05.000Z</Time>
            <Position>
              <LatitudeDegrees>42.062168754637241363525390625</LatitudeDegrees>
              <LongitudeDegrees>-5.63200735487043857574462890625</LongitudeDegrees>
            </Position>
            <AltitudeMeters>619.20001220703125</AltitudeMeters>
            <DistanceMeters>NAN</DistanceMeters>
          </Trackpoint>
          <Trackpoint>
            <Time>2019-10-05T11:00:13.000Z</Time>
            <Position>
              <LatitudeDegrees>42.0617474801838397979736328125</LatitudeDegrees>
              <LongitudeDegrees>-5.63220642507076263427734375</LongitudeDegrees>
            </Position>
            <AltitudeMeters>618.79998779296875</AltitudeMeters>
            <DistanceMeters>NAN</DistanceMeters>
          </Trackpoint>
          <Trackpoint>
            <Time>2019-10-05T11:00:20.000Z</Time>
            <Position>
              <LatitudeDegrees>42.0613783411681652069091796875</LatitudeDegrees>
              <LongitudeDegrees>-5.6323792599141597747802734375</LongitudeDegrees>
            </Position>
            <AltitudeMeters>619</AltitudeMeters>
            <DistanceMeters>NAN</DistanceMeters>
          </Trackpoint>
          <Trackpoint>
            <Time>2019-10-05T11:00:23.000Z</Time>
            <Position>
              <LatitudeDegrees>42.06122134812176227569580078125</LatitudeDegrees>
              <LongitudeDegrees>-5.63245452940464019775390625</LongitudeDegrees>
            </Position>
            <AltitudeMeters>618.79998779296875</AltitudeMeters>
            <DistanceMeters>NAN</DistanceMeters>
          </Trackpoint>
          <Trackpoint>
            <Time>2019-10-05T11:00:33.000Z</Time>
            <Position>
              <LatitudeDegrees>42.06070451997220516204833984375</LatitudeDegrees>
              <LongitudeDegrees>-5.6326967664062976837158203125</LongitudeDegrees>
            </Position>
            <AltitudeMeters>618.5999755859375</AltitudeMeters>
            <DistanceMeters>NAN</DistanceMeters>
          </Trackpoint>
          <Trackpoint>
            <Time>2019-10-05T11:00:34.000Z</Time>
            <Position>
              <LatitudeDegrees>42.06064886413514614105224609375</LatitudeDegrees>
              <LongitudeDegrees>-5.63272275030612945556640625</LongitudeDegrees>
            </Position>
            <AltitudeMeters>618.79998779296875</AltitudeMeters>
            <DistanceMeters>NAN</DistanceMeters>
          </Trackpoint>
          <Trackpoint>
            <Time>2019-10-05T11:00:42.000Z</Time>
            <Position>
              <LatitudeDegrees>42.0602018572390079498291015625</LatitudeDegrees>
              <LongitudeDegrees>-5.63294126652181148529052734375</LongitudeDegrees>
            </Position>
            <AltitudeMeters>618.20001220703125</AltitudeMeters>
            <DistanceMeters>NAN</DistanceMeters>
          </Trackpoint>
          <Trackpoint>
            <Time>2019-10-05T11:00:51.000Z</Time>
            <Position>
              <LatitudeDegrees>42.05971344374120235443115234375</LatitudeDegrees>
              <LongitudeDegrees>-5.6331701762974262237548828125</LongitudeDegrees>
            </Position>
            <AltitudeMeters>618.79998779296875</AltitudeMeters>
            <DistanceMeters>NAN</DistanceMeters>
          </Trackpoint>
          <Trackpoint>
            <Time>2019-10-05T11:01:01.000Z</Time>
            <Position>
              <LatitudeDegrees>42.0591812767088413238525390625</LatitudeDegrees>
              <LongitudeDegrees>-5.6334172748029232025146484375</LongitudeDegrees>
            </Position>
            <AltitudeMeters>618.5999755859375</AltitudeMeters>
            <DistanceMeters>NAN</DistanceMeters>
          </Trackpoint>
          <Trackpoint>
            <Time>2019-10-05T11:01:03.000Z</Time>
            <Position>
              <LatitudeDegrees>42.059075832366943359375</LatitudeDegrees>
              <LongitudeDegrees>-5.63347117044031620025634765625</LongitudeDegrees>
            </Position>
            <AltitudeMeters>618.5999755859375</AltitudeMeters>
            <DistanceMeters>NAN</DistanceMeters>
          </Trackpoint>
          <Trackpoint>
            <Time>2019-10-05T11:01:11.000Z</Time>
            <Position>
              <LatitudeDegrees>42.058646678924560546875</LatitudeDegrees>
              <LongitudeDegrees>-5.6336747668683528900146484375</LongitudeDegrees>
            </Position>
            <AltitudeMeters>619</AltitudeMeters>
            <DistanceMeters>NAN</DistanceMeters>
          </Trackpoint>
          <Trackpoint>
            <Time>2019-10-05T11:01:21.000Z</Time>
            <Position>
              <LatitudeDegrees>42.05810160376131534576416015625</LatitudeDegrees>
              <LongitudeDegrees>-5.63393888063728809356689453125</LongitudeDegrees>
            </Position>
            <AltitudeMeters>618.4000244140625</AltitudeMeters>
            <DistanceMeters>NAN</DistanceMeters>
          </Trackpoint>
          <Trackpoint>
            <Time>2019-10-05T11:01:24.000Z</Time>
            <Position>
              <LatitudeDegrees>42.05794050358235836029052734375</LatitudeDegrees>
              <LongitudeDegrees>-5.63401565887033939361572265625</LongitudeDegrees>
            </Position>
            <AltitudeMeters>618.79998779296875</AltitudeMeters>
            <DistanceMeters>NAN</DistanceMeters>
          </Trackpoint>
          <Trackpoint>
            <Time>2019-10-05T11:01:34.000Z</Time>
            <Position>
              <LatitudeDegrees>42.0573954284191131591796875</LatitudeDegrees>
              <LongitudeDegrees>-5.6342791020870208740234375</LongitudeDegrees>
            </Position>
            <AltitudeMeters>618.5999755859375</AltitudeMeters>
            <DistanceMeters>NAN</DistanceMeters>
          </Trackpoint>
          <Trackpoint>
            <Time>2019-10-05T11:01:36.000Z</Time>
            <Position>
              <LatitudeDegrees>42.05728403292596340179443359375</LatitudeDegrees>
              <LongitudeDegrees>-5.63433283008635044097900390625</LongitudeDegrees>
            </Position>
            <AltitudeMeters>618.5999755859375</AltitudeMeters>
            <DistanceMeters>NAN</DistanceMeters>
          </Trackpoint>
          <Trackpoint>
            <Time>2019-10-05T11:01:45.000Z</Time>
            <Position>
              <LatitudeDegrees>42.05675547011196613311767578125</LatitudeDegrees>
              <LongitudeDegrees>-5.634579844772815704345703125</LongitudeDegrees>
            </Position>
            <AltitudeMeters>618.20001220703125</AltitudeMeters>
            <DistanceMeters>NAN</DistanceMeters>
          </Trackpoint>
          <Trackpoint>
            <Time>2019-10-05T11:01:46.000Z</Time>
            <Position>
              <LatitudeDegrees>42.0566941983997821807861328125</LatitudeDegrees>
              <LongitudeDegrees>-5.6346081756055355072021484375</LongitudeDegrees>
            </Position>
            <AltitudeMeters>618.20001220703125</AltitudeMeters>
            <DistanceMeters>NAN</DistanceMeters>
          </Trackpoint>
          <Trackpoint>
            <Time>2019-10-05T11:01:55.000Z</Time>
            <Position>
              <LatitudeDegrees>42.0561668090522289276123046875</LatitudeDegrees>
              <LongitudeDegrees>-5.63486172817647457122802734375</LongitudeDegrees>
            </Position>
            <AltitudeMeters>617.79998779296875</AltitudeMeters>
            <DistanceMeters>NAN</DistanceMeters>
          </Trackpoint>
          <Trackpoint>
            <Time>2019-10-05T11:01:57.000Z</Time>
            <Position>
              <LatitudeDegrees>42.05605038441717624664306640625</LatitudeDegrees>
              <LongitudeDegrees>-5.634916126728057861328125</LongitudeDegrees>
            </Position>
            <AltitudeMeters>617.5999755859375</AltitudeMeters>
            <DistanceMeters>NAN</DistanceMeters>
          </Trackpoint>
          <Trackpoint>
            <Time>2019-10-05T11:02:03.000Z</Time>
            <Position>
              <LatitudeDegrees>42.05571460537612438201904296875</LatitudeDegrees>
              <LongitudeDegrees>-5.63507546670734882354736328125</LongitudeDegrees>
            </Position>
            <AltitudeMeters>617.20001220703125</AltitudeMeters>
            <DistanceMeters>NAN</DistanceMeters>
          </Trackpoint>
          <Trackpoint>
            <Time>2019-10-05T11:02:07.000Z</Time>
            <Position>
              <LatitudeDegrees>42.05549843609333038330078125</LatitudeDegrees>
              <LongitudeDegrees>-5.635175965726375579833984375</LongitudeDegrees>
            </Position>
            <AltitudeMeters>618</AltitudeMeters>
            <DistanceMeters>NAN</DistanceMeters>
          </Trackpoint>
          <Trackpoint>
            <Time>2019-10-05T11:02:09.000Z</Time>
            <Position>
              <LatitudeDegrees>42.0553918182849884033203125</LatitudeDegrees>
              <LongitudeDegrees>-5.635228268802165985107421875</LongitudeDegrees>
            </Position>
            <AltitudeMeters>618.20001220703125</AltitudeMeters>
            <DistanceMeters>NAN</DistanceMeters>
          </Trackpoint>
          <Trackpoint>
            <Time>2019-10-05T11:02:17.000Z</Time>
            <Position>
              <LatitudeDegrees>42.054971046745777130126953125</LatitudeDegrees>
              <LongitudeDegrees>-5.6354316137731075286865234375</LongitudeDegrees>
            </Position>
            <AltitudeMeters>618.20001220703125</AltitudeMeters>
            <DistanceMeters>NAN</DistanceMeters>
          </Trackpoint>
          <Trackpoint>
            <Time>2019-10-05T11:02:26.000Z</Time>
            <Position>
              <LatitudeDegrees>42.05449386499822139739990234375</LatitudeDegrees>
              <LongitudeDegrees>-5.63566203229129314422607421875</LongitudeDegrees>
            </Position>
            <AltitudeMeters>617.79998779296875</AltitudeMeters>
            <DistanceMeters>NAN</DistanceMeters>
          </Trackpoint>
          <Trackpoint>
            <Time>2019-10-05T11:02:27.000Z</Time>
            <Position>
              <LatitudeDegrees>42.0544404722750186920166015625</LatitudeDegrees>
              <LongitudeDegrees>-5.63568793237209320068359375</LongitudeDegrees>
            </Position>
            <AltitudeMeters>617.5999755859375</AltitudeMeters>
            <DistanceMeters>NAN</DistanceMeters>
          </Trackpoint>
          <Trackpoint>
            <Time>2019-10-05T11:02:37.000Z</Time>
            <Position>
              <LatitudeDegrees>42.05391081981360912322998046875</LatitudeDegrees>
              <LongitudeDegrees>-5.635940730571746826171875</LongitudeDegrees>
            </Position>
            <AltitudeMeters>618</AltitudeMeters>
            <DistanceMeters>NAN</DistanceMeters>
          </Trackpoint>
          <Trackpoint>
            <Time>2019-10-05T11:02:38.000Z</Time>
            <Position>
              <LatitudeDegrees>42.05385717563331127166748046875</LatitudeDegrees>
              <LongitudeDegrees>-5.63596243970096111297607421875</LongitudeDegrees>
            </Position>
            <AltitudeMeters>618</AltitudeMeters>
            <DistanceMeters>NAN</DistanceMeters>
          </Trackpoint>
          <Trackpoint>
            <Time>2019-10-05T11:02:47.000Z</Time>
            <Position>
              <LatitudeDegrees>42.05337890423834323883056640625</LatitudeDegrees>
              <LongitudeDegrees>-5.63619663007557392120361328125</LongitudeDegrees>
            </Position>
            <AltitudeMeters>617.5999755859375</AltitudeMeters>
            <DistanceMeters>NAN</DistanceMeters>
          </Trackpoint>
          <Trackpoint>
            <Time>2019-10-05T11:02:55.000Z</Time>
            <Position>
              <LatitudeDegrees>42.0529501698911190032958984375</LatitudeDegrees>
              <LongitudeDegrees>-5.6363928504288196563720703125</LongitudeDegrees>
            </Position>
            <AltitudeMeters>617.5999755859375</AltitudeMeters>
            <DistanceMeters>NAN</DistanceMeters>
          </Trackpoint>
          <Trackpoint>
            <Time>2019-10-05T11:02:59.000Z</Time>
            <Position>
              <LatitudeDegrees>42.05273953266441822052001953125</LatitudeDegrees>
              <LongitudeDegrees>-5.63649452291429042816162109375</LongitudeDegrees>
            </Position>
            <AltitudeMeters>617.79998779296875</AltitudeMeters>
            <DistanceMeters>NAN</DistanceMeters>
          </Trackpoint>
          <Trackpoint>
            <Time>2019-10-05T11:03:09.000Z</Time>
            <Position>
              <LatitudeDegrees>42.05221298150718212127685546875</LatitudeDegrees>
              <LongitudeDegrees>-5.636744387447834014892578125</LongitudeDegrees>
            </Position>
            <AltitudeMeters>617.79998779296875</AltitudeMeters>
            <DistanceMeters>NAN</DistanceMeters>
          </Trackpoint>
          <Trackpoint>
            <Time>2019-10-05T11:03:10.000Z</Time>
            <Position>
              <LatitudeDegrees>42.0521599240601062774658203125</LatitudeDegrees>
              <LongitudeDegrees>-5.63677062280476093292236328125</LongitudeDegrees>
            </Position>
            <AltitudeMeters>618</AltitudeMeters>
            <DistanceMeters>NAN</DistanceMeters>
          </Trackpoint>
          <Trackpoint>
            <Time>2019-10-05T11:03:15.000Z</Time>
            <Position>
              <LatitudeDegrees>42.05189748667180538177490234375</LatitudeDegrees>
              <LongitudeDegrees>-5.6369031406939029693603515625</LongitudeDegrees>
            </Position>
            <AltitudeMeters>617.20001220703125</AltitudeMeters>
            <DistanceMeters>NAN</DistanceMeters>
          </Trackpoint>
          <Trackpoint>
            <Time>2019-10-05T11:03:22.000Z</Time>
            <Position>
              <LatitudeDegrees>42.05153387971222400665283203125</LatitudeDegrees>
              <LongitudeDegrees>-5.63707203604280948638916015625</LongitudeDegrees>
            </Position>
            <AltitudeMeters>618</AltitudeMeters>
            <DistanceMeters>NAN</DistanceMeters>
          </Trackpoint>
          <Trackpoint>
            <Time>2019-10-05T11:03:23.000Z</Time>
            <Position>
              <LatitudeDegrees>42.0514558441936969757080078125</LatitudeDegrees>
              <LongitudeDegrees>-5.63710908405482769012451171875</LongitudeDegrees>
            </Position>
            <AltitudeMeters>618.4000244140625</AltitudeMeters>
            <DistanceMeters>NAN</DistanceMeters>
          </Trackpoint>
          <Trackpoint>
            <Time>2019-10-05T11:03:32.000Z</Time>
            <Position>
              <LatitudeDegrees>42.05100984312593936920166015625</LatitudeDegrees>
              <LongitudeDegrees>-5.63732005655765533447265625</LongitudeDegrees>
            </Position>
            <AltitudeMeters>617.5999755859375</AltitudeMeters>
            <DistanceMeters>NAN</DistanceMeters>
          </Trackpoint>
          <Trackpoint>
            <Time>2019-10-05T11:03:42.000Z</Time>
            <Position>
              <LatitudeDegrees>42.05048144795000553131103515625</LatitudeDegrees>
              <LongitudeDegrees>-5.63754896633327007293701171875</LongitudeDegrees>
            </Position>
            <AltitudeMeters>618.4000244140625</AltitudeMeters>
            <DistanceMeters>NAN</DistanceMeters>
          </Trackpoint>
          <Trackpoint>
            <Time>2019-10-05T11:03:44.000Z</Time>
            <Position>
              <LatitudeDegrees>42.0503718964755535125732421875</LatitudeDegrees>
              <LongitudeDegrees>-5.6375971622765064239501953125</LongitudeDegrees>
            </Position>
            <AltitudeMeters>618.4000244140625</AltitudeMeters>
            <DistanceMeters>NAN</DistanceMeters>
          </Trackpoint>
          <Trackpoint>
            <Time>2019-10-05T11:03:52.000Z</Time>
            <Position>
              <LatitudeDegrees>42.04994416795670986175537109375</LatitudeDegrees>
              <LongitudeDegrees>-5.63778500072658061981201171875</LongitudeDegrees>
            </Position>
            <AltitudeMeters>617.79998779296875</AltitudeMeters>
            <DistanceMeters>NAN</DistanceMeters>
          </Trackpoint>
          <Trackpoint>
            <Time>2019-10-05T11:03:59.000Z</Time>
            <Position>
              <LatitudeDegrees>42.0495767891407012939453125</LatitudeDegrees>
              <LongitudeDegrees>-5.6379510462284088134765625</LongitudeDegrees>
            </Position>
            <AltitudeMeters>617.79998779296875</AltitudeMeters>
            <DistanceMeters>NAN</DistanceMeters>
          </Trackpoint>
          <Trackpoint>
            <Time>2019-10-05T11:04:07.000Z</Time>
            <Position>
              <LatitudeDegrees>42.049155347049236297607421875</LatitudeDegrees>
              <LongitudeDegrees>-5.63813402317464351654052734375</LongitudeDegrees>
            </Position>
            <AltitudeMeters>617.79998779296875</AltitudeMeters>
            <DistanceMeters>NAN</DistanceMeters>
          </Trackpoint>
          <Trackpoint>
            <Time>2019-10-05T11:04:09.000Z</Time>
            <Position>
              <LatitudeDegrees>42.04904772341251373291015625</LatitudeDegrees>
              <LongitudeDegrees>-5.63817241229116916656494140625</LongitudeDegrees>
            </Position>
            <AltitudeMeters>618</AltitudeMeters>
            <DistanceMeters>NAN</DistanceMeters>
          </Trackpoint>
          <Trackpoint>
            <Time>2019-10-05T11:04:11.000Z</Time>
            <Position>
              <LatitudeDegrees>42.0489432848989963531494140625</LatitudeDegrees>
              <LongitudeDegrees>-5.63822907395660877227783203125</LongitudeDegrees>
            </Position>
            <AltitudeMeters>617.79998779296875</AltitudeMeters>
            <DistanceMeters>NAN</DistanceMeters>
          </Trackpoint>
          <Trackpoint>
            <Time>2019-10-05T11:04:14.000Z</Time>
            <Position>
              <LatitudeDegrees>42.04878193326294422149658203125</LatitudeDegrees>
              <LongitudeDegrees>-5.6383102945983409881591796875</LongitudeDegrees>
            </Position>
            <AltitudeMeters>618.20001220703125</AltitudeMeters>
            <DistanceMeters>NAN</DistanceMeters>
          </Trackpoint>
          <Trackpoint>
            <Time>2019-10-05T11:04:24.000Z</Time>
            <Position>
              <LatitudeDegrees>42.04825823195278644561767578125</LatitudeDegrees>
              <LongitudeDegrees>-5.6385721452534198760986328125</LongitudeDegrees>
            </Position>
            <AltitudeMeters>617.5999755859375</AltitudeMeters>
            <DistanceMeters>NAN</DistanceMeters>
          </Trackpoint>
          <Trackpoint>
            <Time>2019-10-05T11:04:26.000Z</Time>
            <Position>
              <LatitudeDegrees>42.04815496690571308135986328125</LatitudeDegrees>
              <LongitudeDegrees>-5.63862922601401805877685546875</LongitudeDegrees>
            </Position>
            <AltitudeMeters>617.4000244140625</AltitudeMeters>
            <DistanceMeters>NAN</DistanceMeters>
          </Trackpoint>
          <Trackpoint>
            <Time>2019-10-05T11:04:32.000Z</Time>
            <Position>
              <LatitudeDegrees>42.047849781811237335205078125</LatitudeDegrees>
              <LongitudeDegrees>-5.6388162262737751007080078125</LongitudeDegrees>
            </Position>
            <AltitudeMeters>617.20001220703125</AltitudeMeters>
            <DistanceMeters>NAN</DistanceMeters>
          </Trackpoint>
          <Trackpoint>
            <Time>2019-10-05T11:04:37.000Z</Time>
            <Position>
              <LatitudeDegrees>42.04759933054447174072265625</LatitudeDegrees>
              <LongitudeDegrees>-5.63898302614688873291015625</LongitudeDegrees>
            </Position>
            <AltitudeMeters>617.5999755859375</AltitudeMeters>
            <DistanceMeters>NAN</DistanceMeters>
          </Trackpoint>
          <Trackpoint>
            <Time>2019-10-05T11:04:46.000Z</Time>
            <Position>
              <LatitudeDegrees>42.04716841690242290496826171875</LatitudeDegrees>
              <LongitudeDegrees>-5.63930011354386806488037109375</LongitudeDegrees>
            </Position>
            <AltitudeMeters>617.4000244140625</AltitudeMeters>
            <DistanceMeters>NAN</DistanceMeters>
          </Trackpoint>
          <Trackpoint>
            <Time>2019-10-05T11:04:52.000Z</Time>
            <Position>
              <LatitudeDegrees>42.04687915742397308349609375</LatitudeDegrees>
              <LongitudeDegrees>-5.6395481340587139129638671875</LongitudeDegrees>
            </Position>
            <AltitudeMeters>617</AltitudeMeters>
            <DistanceMeters>NAN</DistanceMeters>
          </Trackpoint>
          <Trackpoint>
            <Time>2019-10-05T11:04:57.000Z</Time>
            <Position>
              <LatitudeDegrees>42.04663574695587158203125</LatitudeDegrees>
              <LongitudeDegrees>-5.63975541852414608001708984375</LongitudeDegrees>
            </Position>
            <AltitudeMeters>617.4000244140625</AltitudeMeters>
            <DistanceMeters>NAN</DistanceMeters>
          </Trackpoint>
          <Trackpoint>
            <Time>2019-10-05T11:04:59.000Z</Time>
            <Position>
              <LatitudeDegrees>42.046537511050701141357421875</LatitudeDegrees>
              <LongitudeDegrees>-5.639838315546512603759765625</LongitudeDegrees>
            </Position>
            <AltitudeMeters>616.5999755859375</AltitudeMeters>
            <DistanceMeters>NAN</DistanceMeters>
          </Trackpoint>
          <Trackpoint>
            <Time>2019-10-05T11:05:08.000Z</Time>
            <Position>
              <LatitudeDegrees>42.046096958220005035400390625</LatitudeDegrees>
              <LongitudeDegrees>-5.6401978991925716400146484375</LongitudeDegrees>
            </Position>
            <AltitudeMeters>616.5999755859375</AltitudeMeters>
            <DistanceMeters>NAN</DistanceMeters>
          </Trackpoint>
          <Trackpoint>
            <Time>2019-10-05T11:05:09.000Z</Time>
            <Position>
              <LatitudeDegrees>42.04604993574321269989013671875</LatitudeDegrees>
              <LongitudeDegrees>-5.64023603685200214385986328125</LongitudeDegrees>
            </Position>
            <AltitudeMeters>616.20001220703125</AltitudeMeters>
            <DistanceMeters>NAN</DistanceMeters>
          </Trackpoint>
          <Trackpoint>
            <Time>2019-10-05T11:05:14.000Z</Time>
            <Position>
              <LatitudeDegrees>42.04581809230148792266845703125</LatitudeDegrees>
              <LongitudeDegrees>-5.640439800918102264404296875</LongitudeDegrees>
            </Position>
            <AltitudeMeters>617.20001220703125</AltitudeMeters>
            <DistanceMeters>NAN</DistanceMeters>
          </Trackpoint>
          <Trackpoint>
            <Time>2019-10-05T11:05:15.000Z</Time>
            <Position>
              <LatitudeDegrees>42.0457725785672664642333984375</LatitudeDegrees>
              <LongitudeDegrees>-5.64048011787235736846923828125</LongitudeDegrees>
            </Position>
            <AltitudeMeters>617.20001220703125</AltitudeMeters>
            <DistanceMeters>NAN</DistanceMeters>
          </Trackpoint>
          <Trackpoint>
            <Time>2019-10-05T11:05:25.000Z</Time>
            <Position>
              <LatitudeDegrees>42.04530260525643825531005859375</LatitudeDegrees>
              <LongitudeDegrees>-5.64086032100021839141845703125</LongitudeDegrees>
            </Position>
            <AltitudeMeters>617.4000244140625</AltitudeMeters>
            <DistanceMeters>NAN</DistanceMeters>
          </Trackpoint>
          <Trackpoint>
            <Time>2019-10-05T11:05:34.000Z</Time>
            <Position>
              <LatitudeDegrees>42.04488837160170078277587890625</LatitudeDegrees>
              <LongitudeDegrees>-5.6412003748118877410888671875</LongitudeDegrees>
            </Position>
            <AltitudeMeters>616.4000244140625</AltitudeMeters>
            <DistanceMeters>NAN</DistanceMeters>
          </Trackpoint>
          <Trackpoint>
            <Time>2019-10-05T11:05:43.000Z</Time>
            <Position>
              <LatitudeDegrees>42.04446760006248950958251953125</LatitudeDegrees>
              <LongitudeDegrees>-5.6415353156626224517822265625</LongitudeDegrees>
            </Position>
            <AltitudeMeters>615.79998779296875</AltitudeMeters>
            <DistanceMeters>NAN</DistanceMeters>
          </Trackpoint>
          <Trackpoint>
            <Time>2019-10-05T11:05:44.000Z</Time>
            <Position>
              <LatitudeDegrees>42.04442032612860202789306640625</LatitudeDegrees>
              <LongitudeDegrees>-5.6415718607604503631591796875</LongitudeDegrees>
            </Position>
            <AltitudeMeters>616.20001220703125</AltitudeMeters>
            <DistanceMeters>NAN</DistanceMeters>
          </Trackpoint>
          <Trackpoint>
            <Time>2019-10-05T11:05:45.000Z</Time>
            <Position>
              <LatitudeDegrees>42.04437305219471454620361328125</LatitudeDegrees>
              <LongitudeDegrees>-5.64160832203924655914306640625</LongitudeDegrees>
            </Position>
            <AltitudeMeters>616.79998779296875</AltitudeMeters>
            <DistanceMeters>NAN</DistanceMeters>
          </Trackpoint>
          <Trackpoint>
            <Time>2019-10-05T11:05:54.000Z</Time>
            <Position>
              <LatitudeDegrees>42.04395093955099582672119140625</LatitudeDegrees>
              <LongitudeDegrees>-5.6419453583657741546630859375</LongitudeDegrees>
            </Position>
            <AltitudeMeters>617</AltitudeMeters>
            <DistanceMeters>NAN</DistanceMeters>
          </Trackpoint>
          <Trackpoint>
            <Time>2019-10-05T11:06:01.000Z</Time>
            <Position>
              <LatitudeDegrees>42.04362572170794010162353515625</LatitudeDegrees>
              <LongitudeDegrees>-5.64220301806926727294921875</LongitudeDegrees>
            </Position>
            <AltitudeMeters>617.5999755859375</AltitudeMeters>
            <DistanceMeters>NAN</DistanceMeters>
          </Trackpoint>
          <Trackpoint>
            <Time>2019-10-05T11:06:10.000Z</Time>
            <Position>
              <LatitudeDegrees>42.04319472424685955047607421875</LatitudeDegrees>
              <LongitudeDegrees>-5.6425451673567295074462890625</LongitudeDegrees>
            </Position>
            <AltitudeMeters>617.20001220703125</AltitudeMeters>
            <DistanceMeters>NAN</DistanceMeters>
          </Trackpoint>
          <Trackpoint>
            <Time>2019-10-05T11:06:20.000Z</Time>
            <Position>
              <LatitudeDegrees>42.04270471818745136260986328125</LatitudeDegrees>
              <LongitudeDegrees>-5.642934255301952362060546875</LongitudeDegrees>
            </Position>
            <AltitudeMeters>617.20001220703125</AltitudeMeters>
            <DistanceMeters>NAN</DistanceMeters>
          </Trackpoint>
          <Trackpoint>
            <Time>2019-10-05T11:06:21.000Z</Time>
            <Position>
              <LatitudeDegrees>42.0426561869680881500244140625</LatitudeDegrees>
              <LongitudeDegrees>-5.6429759971797466278076171875</LongitudeDegrees>
            </Position>
            <AltitudeMeters>617.4000244140625</AltitudeMeters>
            <DistanceMeters>NAN</DistanceMeters>
          </Trackpoint>
          <Trackpoint>
            <Time>2019-10-05T11:06:30.000Z</Time>
            <Position>
              <LatitudeDegrees>42.04221890307962894439697265625</LatitudeDegrees>
              <LongitudeDegrees>-5.64332879148423671722412109375</LongitudeDegrees>
            </Position>
            <AltitudeMeters>617.4000244140625</AltitudeMeters>
            <DistanceMeters>NAN</DistanceMeters>
          </Trackpoint>
          <Trackpoint>
            <Time>2019-10-05T11:06:34.000Z</Time>
            <Position>
              <LatitudeDegrees>42.0420208387076854705810546875</LatitudeDegrees>
              <LongitudeDegrees>-5.6434822641313076019287109375</LongitudeDegrees>
            </Position>
            <AltitudeMeters>617.20001220703125</AltitudeMeters>
            <DistanceMeters>NAN</DistanceMeters>
          </Trackpoint>
          <Trackpoint>
            <Time>2019-10-05T11:06:41.000Z</Time>
            <Position>
              <LatitudeDegrees>42.04167525283992290496826171875</LatitudeDegrees>
              <LongitudeDegrees>-5.64375869929790496826171875</LongitudeDegrees>
            </Position>
            <AltitudeMeters>616.79998779296875</AltitudeMeters>
            <DistanceMeters>NAN</DistanceMeters>
          </Trackpoint>
          <Trackpoint>
            <Time>2019-10-05T11:06:45.000Z</Time>
            <Position>
              <LatitudeDegrees>42.04148079268634319305419921875</LatitudeDegrees>
              <LongitudeDegrees>-5.64391284249722957611083984375</LongitudeDegrees>
            </Position>
            <AltitudeMeters>616.5999755859375</AltitudeMeters>
            <DistanceMeters>NAN</DistanceMeters>
          </Trackpoint>
          <Trackpoint>
            <Time>2019-10-05T11:06:55.000Z</Time>
            <Position>
              <LatitudeDegrees>42.04099497757852077484130859375</LatitudeDegrees>
              <LongitudeDegrees>-5.64430360682308673858642578125</LongitudeDegrees>
            </Position>
            <AltitudeMeters>616.4000244140625</AltitudeMeters>
            <DistanceMeters>NAN</DistanceMeters>
          </Trackpoint>
          <Trackpoint>
            <Time>2019-10-05T11:06:56.000Z</Time>
            <Position>
              <LatitudeDegrees>42.0409462787210941314697265625</LatitudeDegrees>
              <LongitudeDegrees>-5.6443415768444538116455078125</LongitudeDegrees>
            </Position>
            <AltitudeMeters>616.4000244140625</AltitudeMeters>
            <DistanceMeters>NAN</DistanceMeters>
          </Trackpoint>
          <Trackpoint>
            <Time>2019-10-05T11:06:58.000Z</Time>
            <Position>
              <LatitudeDegrees>42.04084862954914569854736328125</LatitudeDegrees>
              <LongitudeDegrees>-5.64441961236298084259033203125</LongitudeDegrees>
            </Position>
            <AltitudeMeters>615.79998779296875</AltitudeMeters>
            <DistanceMeters>NAN</DistanceMeters>
          </Trackpoint>
          <Trackpoint>
            <Time>2019-10-05T11:07:05.000Z</Time>
            <Position>
              <LatitudeDegrees>42.04050832428038120269775390625</LatitudeDegrees>
              <LongitudeDegrees>-5.64469755627214908599853515625</LongitudeDegrees>
            </Position>
            <AltitudeMeters>616.4000244140625</AltitudeMeters>
            <DistanceMeters>NAN</DistanceMeters>
          </Trackpoint>
          <Trackpoint>
            <Time>2019-10-05T11:07:07.000Z</Time>
            <Position>
              <LatitudeDegrees>42.04041176475584506988525390625</LatitudeDegrees>
              <LongitudeDegrees>-5.64477466978132724761962890625</LongitudeDegrees>
            </Position>
            <AltitudeMeters>616.4000244140625</AltitudeMeters>
            <DistanceMeters>NAN</DistanceMeters>
          </Trackpoint>
          <Trackpoint>
            <Time>2019-10-05T11:07:17.000Z</Time>
            <Position>
              <LatitudeDegrees>42.03992578200995922088623046875</LatitudeDegrees>
              <LongitudeDegrees>-5.6451633386313915252685546875</LongitudeDegrees>
            </Position>
            <AltitudeMeters>615.5999755859375</AltitudeMeters>
            <DistanceMeters>NAN</DistanceMeters>
          </Trackpoint>
          <Trackpoint>
            <Time>2019-10-05T11:07:27.000Z</Time>
            <Position>
              <LatitudeDegrees>42.03943761996924877166748046875</LatitudeDegrees>
              <LongitudeDegrees>-5.6455472297966480255126953125</LongitudeDegrees>
            </Position>
            <AltitudeMeters>616.20001220703125</AltitudeMeters>
            <DistanceMeters>NAN</DistanceMeters>
          </Trackpoint>
          <Trackpoint>
            <Time>2019-10-05T11:07:37.000Z</Time>
            <Position>
              <LatitudeDegrees>42.03894727863371372222900390625</LatitudeDegrees>
              <LongitudeDegrees>-5.6459364853799343109130859375</LongitudeDegrees>
            </Position>
            <AltitudeMeters>616.4000244140625</AltitudeMeters>
            <DistanceMeters>NAN</DistanceMeters>
          </Trackpoint>
          <Trackpoint>
            <Time>2019-10-05T11:07:41.000Z</Time>
            <Position>
              <LatitudeDegrees>42.03875265084207057952880859375</LatitudeDegrees>
              <LongitudeDegrees>-5.64609381370246410369873046875</LongitudeDegrees>
            </Position>
            <AltitudeMeters>616.20001220703125</AltitudeMeters>
            <DistanceMeters>NAN</DistanceMeters>
          </Trackpoint>
          <Trackpoint>
            <Time>2019-10-05T11:07:51.000Z</Time>
            <Position>
              <LatitudeDegrees>42.03826390206813812255859375</LatitudeDegrees>
              <LongitudeDegrees>-5.64648306928575038909912109375</LongitudeDegrees>
            </Position>
            <AltitudeMeters>616.20001220703125</AltitudeMeters>
            <DistanceMeters>NAN</DistanceMeters>
          </Trackpoint>
          <Trackpoint>
            <Time>2019-10-05T11:07:58.000Z</Time>
            <Position>
              <LatitudeDegrees>42.037917561829090118408203125</LatitudeDegrees>
              <LongitudeDegrees>-5.64676067791879177093505859375</LongitudeDegrees>
            </Position>
            <AltitudeMeters>616.79998779296875</AltitudeMeters>
            <DistanceMeters>NAN</DistanceMeters>
          </Trackpoint>
          <Trackpoint>
            <Time>2019-10-05T11:08:01.000Z</Time>
            <Position>
              <LatitudeDegrees>42.037768699228763580322265625</LatitudeDegrees>
              <LongitudeDegrees>-5.64688389189541339874267578125</LongitudeDegrees>
            </Position>
            <AltitudeMeters>616.79998779296875</AltitudeMeters>
            <DistanceMeters>NAN</DistanceMeters>
          </Trackpoint>
          <Trackpoint>
            <Time>2019-10-05T11:08:08.000Z</Time>
            <Position>
              <LatitudeDegrees>42.0374124683439731597900390625</LatitudeDegrees>
              <LongitudeDegrees>-5.64716267399489879608154296875</LongitudeDegrees>
            </Position>
            <AltitudeMeters>615.79998779296875</AltitudeMeters>
            <DistanceMeters>NAN</DistanceMeters>
          </Trackpoint>
          <Trackpoint>
            <Time>2019-10-05T11:08:14.000Z</Time>
            <Position>
              <LatitudeDegrees>42.03711231239140033721923828125</LatitudeDegrees>
              <LongitudeDegrees>-5.6474018096923828125</LongitudeDegrees>
            </Position>
            <AltitudeMeters>616</AltitudeMeters>
            <DistanceMeters>NAN</DistanceMeters>
          </Trackpoint>
          <Trackpoint>
            <Time>2019-10-05T11:08:24.000Z</Time>
            <Position>
              <LatitudeDegrees>42.036593221127986907958984375</LatitudeDegrees>
              <LongitudeDegrees>-5.647813193500041961669921875</LongitudeDegrees>
            </Position>
            <AltitudeMeters>616.20001220703125</AltitudeMeters>
            <DistanceMeters>NAN</DistanceMeters>
          </Trackpoint>
          <Trackpoint>
            <Time>2019-10-05T11:08:33.000Z</Time>
            <Position>
              <LatitudeDegrees>42.0361712761223316192626953125</LatitudeDegrees>
              <LongitudeDegrees>-5.64815190620720386505126953125</LongitudeDegrees>
            </Position>
            <AltitudeMeters>616.20001220703125</AltitudeMeters>
            <DistanceMeters>NAN</DistanceMeters>
          </Trackpoint>
          <Trackpoint>
            <Time>2019-10-05T11:08:40.000Z</Time>
            <Position>
              <LatitudeDegrees>42.03579920344054698944091796875</LatitudeDegrees>
              <LongitudeDegrees>-5.6484487093985080718994140625</LongitudeDegrees>
            </Position>
            <AltitudeMeters>615.5999755859375</AltitudeMeters>
            <DistanceMeters>NAN</DistanceMeters>
          </Trackpoint>
          <Trackpoint>
            <Time>2019-10-05T11:08:46.000Z</Time>
            <Position>
              <LatitudeDegrees>42.03548572026193141937255859375</LatitudeDegrees>
              <LongitudeDegrees>-5.6487035192549228668212890625</LongitudeDegrees>
            </Position>
            <AltitudeMeters>615</AltitudeMeters>
            <DistanceMeters>NAN</DistanceMeters>
          </Trackpoint>
          <Trackpoint>
            <Time>2019-10-05T11:08:48.000Z</Time>
            <Position>
              <LatitudeDegrees>42.0353825390338897705078125</LatitudeDegrees>
              <LongitudeDegrees>-5.64878524281084537506103515625</LongitudeDegrees>
            </Position>
            <AltitudeMeters>615.4000244140625</AltitudeMeters>
            <DistanceMeters>NAN</DistanceMeters>
          </Trackpoint>
          <Trackpoint>
            <Time>2019-10-05T11:08:57.000Z</Time>
            <Position>
              <LatitudeDegrees>42.03491038642823696136474609375</LatitudeDegrees>
              <LongitudeDegrees>-5.64916469156742095947265625</LongitudeDegrees>
            </Position>
            <AltitudeMeters>614.5999755859375</AltitudeMeters>
            <DistanceMeters>NAN</DistanceMeters>
          </Trackpoint>
          <Trackpoint>
            <Time>2019-10-05T11:09:02.000Z</Time>
            <Position>
              <LatitudeDegrees>42.03465230762958526611328125</LatitudeDegrees>
              <LongitudeDegrees>-5.649364180862903594970703125</LongitudeDegrees>
            </Position>
            <AltitudeMeters>614.5999755859375</AltitudeMeters>
            <DistanceMeters>NAN</DistanceMeters>
          </Trackpoint>
          <Trackpoint>
            <Time>2019-10-05T11:09:06.000Z</Time>
            <Position>
              <LatitudeDegrees>42.034456171095371246337890625</LatitudeDegrees>
              <LongitudeDegrees>-5.64953123219311237335205078125</LongitudeDegrees>
            </Position>
            <AltitudeMeters>615</AltitudeMeters>
            <DistanceMeters>NAN</DistanceMeters>
          </Trackpoint>
          <Trackpoint>
            <Time>2019-10-05T11:09:15.000Z</Time>
            <Position>
              <LatitudeDegrees>42.03401536680757999420166015625</LatitudeDegrees>
              <LongitudeDegrees>-5.64987036399543285369873046875</LongitudeDegrees>
            </Position>
            <AltitudeMeters>614.79998779296875</AltitudeMeters>
            <DistanceMeters>NAN</DistanceMeters>
          </Trackpoint>
          <Trackpoint>
            <Time>2019-10-05T11:09:25.000Z</Time>
            <Position>
              <LatitudeDegrees>42.03353516757488250732421875</LatitudeDegrees>
              <LongitudeDegrees>-5.65025593154132366180419921875</LongitudeDegrees>
            </Position>
            <AltitudeMeters>615.20001220703125</AltitudeMeters>
            <DistanceMeters>NAN</DistanceMeters>
          </Trackpoint>
          <Trackpoint>
            <Time>2019-10-05T11:09:28.000Z</Time>
            <Position>
              <LatitudeDegrees>42.0333948545157909393310546875</LatitudeDegrees>
              <LongitudeDegrees>-5.6503695063292980194091796875</LongitudeDegrees>
            </Position>
            <AltitudeMeters>615</AltitudeMeters>
            <DistanceMeters>NAN</DistanceMeters>
          </Trackpoint>
          <Trackpoint>
            <Time>2019-10-05T11:09:33.000Z</Time>
            <Position>
              <LatitudeDegrees>42.03315806575119495391845703125</LatitudeDegrees>
              <LongitudeDegrees>-5.65056321211159229278564453125</LongitudeDegrees>
            </Position>
            <AltitudeMeters>615.79998779296875</AltitudeMeters>
            <DistanceMeters>NAN</DistanceMeters>
          </Trackpoint>
          <Trackpoint>
            <Time>2019-10-05T11:09:41.000Z</Time>
            <Position>
              <LatitudeDegrees>42.03277434222400188446044921875</LatitudeDegrees>
              <LongitudeDegrees>-5.65086630173027515411376953125</LongitudeDegrees>
            </Position>
            <AltitudeMeters>616</AltitudeMeters>
            <DistanceMeters>NAN</DistanceMeters>
          </Trackpoint>
          <Trackpoint>
            <Time>2019-10-05T11:09:46.000Z</Time>
            <Position>
              <LatitudeDegrees>42.032533697783946990966796875</LatitudeDegrees>
              <LongitudeDegrees>-5.65105640329420566558837890625</LongitudeDegrees>
            </Position>
            <AltitudeMeters>615.79998779296875</AltitudeMeters>
            <DistanceMeters>NAN</DistanceMeters>
          </Trackpoint>
          <Trackpoint>
            <Time>2019-10-05T11:09:51.000Z</Time>
            <Position>
              <LatitudeDegrees>42.03229171223938465118408203125</LatitudeDegrees>
              <LongitudeDegrees>-5.651246421039104461669921875</LongitudeDegrees>
            </Position>
            <AltitudeMeters>614.79998779296875</AltitudeMeters>
            <DistanceMeters>NAN</DistanceMeters>
          </Trackpoint>
          <Trackpoint>
            <Time>2019-10-05T11:09:52.000Z</Time>
            <Position>
              <LatitudeDegrees>42.03224360011518001556396484375</LatitudeDegrees>
              <LongitudeDegrees>-5.6512838043272495269775390625</LongitudeDegrees>
            </Position>
            <AltitudeMeters>614.5999755859375</AltitudeMeters>
            <DistanceMeters>NAN</DistanceMeters>
          </Trackpoint>
          <Trackpoint>
            <Time>2019-10-05T11:10:01.000Z</Time>
            <Position>
              <LatitudeDegrees>42.03181880526244640350341796875</LatitudeDegrees>
              <LongitudeDegrees>-5.6516314856708049774169921875</LongitudeDegrees>
            </Position>
            <AltitudeMeters>614.5999755859375</AltitudeMeters>
            <DistanceMeters>NAN</DistanceMeters>
          </Trackpoint>
          <Trackpoint>
            <Time>2019-10-05T11:10:11.000Z</Time>
            <Position>
              <LatitudeDegrees>42.0313453115522861480712890625</LatitudeDegrees>
              <LongitudeDegrees>-5.65200322307646274566650390625</LongitudeDegrees>
            </Position>
            <AltitudeMeters>615</AltitudeMeters>
            <DistanceMeters>NAN</DistanceMeters>
          </Trackpoint>
          <Trackpoint>
            <Time>2019-10-05T11:10:12.000Z</Time>
            <Position>
              <LatitudeDegrees>42.0312973670661449432373046875</LatitudeDegrees>
              <LongitudeDegrees>-5.65204144455492496490478515625</LongitudeDegrees>
            </Position>
            <AltitudeMeters>615</AltitudeMeters>
            <DistanceMeters>NAN</DistanceMeters>
          </Trackpoint>
          <Trackpoint>
            <Time>2019-10-05T11:10:22.000Z</Time>
            <Position>
              <LatitudeDegrees>42.0308169163763523101806640625</LatitudeDegrees>
              <LongitudeDegrees>-5.65242466516792774200439453125</LongitudeDegrees>
            </Position>
            <AltitudeMeters>615.20001220703125</AltitudeMeters>
            <DistanceMeters>NAN</DistanceMeters>
          </Trackpoint>
          <Trackpoint>
            <Time>2019-10-05T11:10:23.000Z</Time>
            <Position>
              <LatitudeDegrees>42.03076989389955997467041015625</LatitudeDegrees>
              <LongitudeDegrees>-5.65246338956058025360107421875</LongitudeDegrees>
            </Position>
            <AltitudeMeters>615</AltitudeMeters>
            <DistanceMeters>NAN</DistanceMeters>
          </Trackpoint>
          <Trackpoint>
            <Time>2019-10-05T11:10:33.000Z</Time>
            <Position>
              <LatitudeDegrees>42.0302868448197841644287109375</LatitudeDegrees>
              <LongitudeDegrees>-5.65284661017358303070068359375</LongitudeDegrees>
            </Position>
            <AltitudeMeters>615.20001220703125</AltitudeMeters>
            <DistanceMeters>NAN</DistanceMeters>
          </Trackpoint>
          <Trackpoint>
            <Time>2019-10-05T11:10:36.000Z</Time>
            <Position>
              <LatitudeDegrees>42.03014359809458255767822265625</LatitudeDegrees>
              <LongitudeDegrees>-5.652963705360889434814453125</LongitudeDegrees>
            </Position>
            <AltitudeMeters>615</AltitudeMeters>
            <DistanceMeters>NAN</DistanceMeters>
          </Trackpoint>
          <Trackpoint>
            <Time>2019-10-05T11:10:46.000Z</Time>
            <Position>
              <LatitudeDegrees>42.0296558551490306854248046875</LatitudeDegrees>
              <LongitudeDegrees>-5.653357990086078643798828125</LongitudeDegrees>
            </Position>
            <AltitudeMeters>615.5999755859375</AltitudeMeters>
            <DistanceMeters>NAN</DistanceMeters>
          </Trackpoint>
          <Trackpoint>
            <Time>2019-10-05T11:10:48.000Z</Time>
            <Position>
              <LatitudeDegrees>42.02955921180546283721923828125</LatitudeDegrees>
              <LongitudeDegrees>-5.65343569032847881317138671875</LongitudeDegrees>
            </Position>
            <AltitudeMeters>615.5999755859375</AltitudeMeters>
            <DistanceMeters>NAN</DistanceMeters>
          </Trackpoint>
          <Trackpoint>
            <Time>2019-10-05T11:10:50.000Z</Time>
            <Position>
              <LatitudeDegrees>42.029461897909641265869140625</LatitudeDegrees>
              <LongitudeDegrees>-5.65351498313248157501220703125</LongitudeDegrees>
            </Position>
            <AltitudeMeters>615.79998779296875</AltitudeMeters>
            <DistanceMeters>NAN</DistanceMeters>
          </Trackpoint>
          <Trackpoint>
            <Time>2019-10-05T11:10:58.000Z</Time>
            <Position>
              <LatitudeDegrees>42.02907373197376728057861328125</LatitudeDegrees>
              <LongitudeDegrees>-5.65382209606468677520751953125</LongitudeDegrees>
            </Position>
            <AltitudeMeters>615</AltitudeMeters>
            <DistanceMeters>NAN</DistanceMeters>
          </Trackpoint>
          <Trackpoint>
            <Time>2019-10-05T11:11:08.000Z</Time>
            <Position>
              <LatitudeDegrees>42.02858456410467624664306640625</LatitudeDegrees>
              <LongitudeDegrees>-5.65420866943895816802978515625</LongitudeDegrees>
            </Position>
            <AltitudeMeters>615.20001220703125</AltitudeMeters>
            <DistanceMeters>NAN</DistanceMeters>
          </Trackpoint>
          <Trackpoint>
            <Time>2019-10-05T11:11:11.000Z</Time>
            <Position>
              <LatitudeDegrees>42.02843855135142803192138671875</LatitudeDegrees>
              <LongitudeDegrees>-5.654324591159820556640625</LongitudeDegrees>
            </Position>
            <AltitudeMeters>614.79998779296875</AltitudeMeters>
            <DistanceMeters>NAN</DistanceMeters>
          </Trackpoint>
          <Trackpoint>
            <Time>2019-10-05T11:11:19.000Z</Time>
            <Position>
              <LatitudeDegrees>42.02805675566196441650390625</LatitudeDegrees>
              <LongitudeDegrees>-5.65463463775813579559326171875</LongitudeDegrees>
            </Position>
            <AltitudeMeters>615.20001220703125</AltitudeMeters>
            <DistanceMeters>NAN</DistanceMeters>
          </Trackpoint>
          <Trackpoint>
            <Time>2019-10-05T11:11:29.000Z</Time>
            <Position>
              <LatitudeDegrees>42.02758141793310642242431640625</LatitudeDegrees>
              <LongitudeDegrees>-5.6550179421901702880859375</LongitudeDegrees>
            </Position>
            <AltitudeMeters>615</AltitudeMeters>
            <DistanceMeters>NAN</DistanceMeters>
          </Trackpoint>
          <Trackpoint>
            <Time>2019-10-05T11:11:32.000Z</Time>
            <Position>
              <LatitudeDegrees>42.02743775211274623870849609375</LatitudeDegrees>
              <LongitudeDegrees>-5.6551327742636203765869140625</LongitudeDegrees>
            </Position>
            <AltitudeMeters>615.20001220703125</AltitudeMeters>
            <DistanceMeters>NAN</DistanceMeters>
          </Trackpoint>
          <Trackpoint>
            <Time>2019-10-05T11:11:41.000Z</Time>
            <Position>
              <LatitudeDegrees>42.02699870802462100982666015625</LatitudeDegrees>
              <LongitudeDegrees>-5.65547886304557323455810546875</LongitudeDegrees>
            </Position>
            <AltitudeMeters>616</AltitudeMeters>
            <DistanceMeters>NAN</DistanceMeters>
          </Trackpoint>
          <Trackpoint>
            <Time>2019-10-05T11:11:50.000Z</Time>
            <Position>
              <LatitudeDegrees>42.02655069530010223388671875</LatitudeDegrees>
              <LongitudeDegrees>-5.65583760850131511688232421875</LongitudeDegrees>
            </Position>
            <AltitudeMeters>615</AltitudeMeters>
            <DistanceMeters>NAN</DistanceMeters>
          </Trackpoint>
          <Trackpoint>
            <Time>2019-10-05T11:11:54.000Z</Time>
            <Position>
              <LatitudeDegrees>42.02635430730879306793212890625</LatitudeDegrees>
              <LongitudeDegrees>-5.655999965965747833251953125</LongitudeDegrees>
            </Position>
            <AltitudeMeters>615.4000244140625</AltitudeMeters>
            <DistanceMeters>NAN</DistanceMeters>
          </Trackpoint>
          <Trackpoint>
            <Time>2019-10-05T11:12:01.000Z</Time>
            <Position>
              <LatitudeDegrees>42.02599539421498775482177734375</LatitudeDegrees>
              <LongitudeDegrees>-5.65627656877040863037109375</LongitudeDegrees>
            </Position>
            <AltitudeMeters>615.79998779296875</AltitudeMeters>
            <DistanceMeters>NAN</DistanceMeters>
          </Trackpoint>
          <Trackpoint>
            <Time>2019-10-05T11:12:08.000Z</Time>
            <Position>
              <LatitudeDegrees>42.02562491409480571746826171875</LatitudeDegrees>
              <LongitudeDegrees>-5.65657588653266429901123046875</LongitudeDegrees>
            </Position>
            <AltitudeMeters>615.4000244140625</AltitudeMeters>
            <DistanceMeters>NAN</DistanceMeters>
          </Trackpoint>
          <Trackpoint>
            <Time>2019-10-05T11:12:14.000Z</Time>
            <Position>
              <LatitudeDegrees>42.02529785223305225372314453125</LatitudeDegrees>
              <LongitudeDegrees>-5.65683974884450435638427734375</LongitudeDegrees>
            </Position>
            <AltitudeMeters>614.79998779296875</AltitudeMeters>
            <DistanceMeters>NAN</DistanceMeters>
          </Trackpoint>
          <Trackpoint>
            <Time>2019-10-05T11:12:17.000Z</Time>
            <Position>
              <LatitudeDegrees>42.02514664269983768463134765625</LatitudeDegrees>
              <LongitudeDegrees>-5.6569667346775531768798828125</LongitudeDegrees>
            </Position>
            <AltitudeMeters>614.79998779296875</AltitudeMeters>
            <DistanceMeters>NAN</DistanceMeters>
          </Trackpoint>
          <Trackpoint>
            <Time>2019-10-05T11:12:27.000Z</Time>
            <Position>
              <LatitudeDegrees>42.0246521942317485809326171875</LatitudeDegrees>
              <LongitudeDegrees>-5.65734618343412876129150390625</LongitudeDegrees>
            </Position>
            <AltitudeMeters>615.4000244140625</AltitudeMeters>
            <DistanceMeters>NAN</DistanceMeters>
          </Trackpoint>
          <Trackpoint>
            <Time>2019-10-05T11:12:28.000Z</Time>
            <Position>
              <LatitudeDegrees>42.0246042497456073760986328125</LatitudeDegrees>
              <LongitudeDegrees>-5.65738541074097156524658203125</LongitudeDegrees>
            </Position>
            <AltitudeMeters>615.20001220703125</AltitudeMeters>
            <DistanceMeters>NAN</DistanceMeters>
          </Trackpoint>
          <Trackpoint>
            <Time>2019-10-05T11:12:37.000Z</Time>
            <Position>
              <LatitudeDegrees>42.02417786233127117156982421875</LatitudeDegrees>
              <LongitudeDegrees>-5.65772806294262409210205078125</LongitudeDegrees>
            </Position>
            <AltitudeMeters>614.5999755859375</AltitudeMeters>
            <DistanceMeters>NAN</DistanceMeters>
          </Trackpoint>
          <Trackpoint>
            <Time>2019-10-05T11:12:47.000Z</Time>
            <Position>
              <LatitudeDegrees>42.023707889020442962646484375</LatitudeDegrees>
              <LongitudeDegrees>-5.658094771206378936767578125</LongitudeDegrees>
            </Position>
            <AltitudeMeters>614.5999755859375</AltitudeMeters>
            <DistanceMeters>NAN</DistanceMeters>
          </Trackpoint>
          <Trackpoint>
            <Time>2019-10-05T11:12:57.000Z</Time>
            <Position>
              <LatitudeDegrees>42.02324462123215198516845703125</LatitudeDegrees>
              <LongitudeDegrees>-5.65847924910485744476318359375</LongitudeDegrees>
            </Position>
            <AltitudeMeters>614.5999755859375</AltitudeMeters>
            <DistanceMeters>NAN</DistanceMeters>
          </Trackpoint>
          <Trackpoint>
            <Time>2019-10-05T11:12:58.000Z</Time>
            <Position>
              <LatitudeDegrees>42.02319919131696224212646484375</LatitudeDegrees>
              <LongitudeDegrees>-5.65851797349750995635986328125</LongitudeDegrees>
            </Position>
            <AltitudeMeters>615</AltitudeMeters>
            <DistanceMeters>NAN</DistanceMeters>
          </Trackpoint>
          <Trackpoint>
            <Time>2019-10-05T11:13:08.000Z</Time>
            <Position>
              <LatitudeDegrees>42.022761404514312744140625</LatitudeDegrees>
              <LongitudeDegrees>-5.658943355083465576171875</LongitudeDegrees>
            </Position>
            <AltitudeMeters>614.79998779296875</AltitudeMeters>
            <DistanceMeters>NAN</DistanceMeters>
          </Trackpoint>
          <Trackpoint>
            <Time>2019-10-05T11:13:18.000Z</Time>
            <Position>
              <LatitudeDegrees>42.0223361067473888397216796875</LatitudeDegrees>
              <LongitudeDegrees>-5.6593948043882846832275390625</LongitudeDegrees>
            </Position>
            <AltitudeMeters>614.5999755859375</AltitudeMeters>
            <DistanceMeters>NAN</DistanceMeters>
          </Trackpoint>
          <Trackpoint>
            <Time>2019-10-05T11:13:28.000Z</Time>
            <Position>
              <LatitudeDegrees>42.02191776596009731292724609375</LatitudeDegrees>
              <LongitudeDegrees>-5.65986310131847858428955078125</LongitudeDegrees>
            </Position>
            <AltitudeMeters>615.4000244140625</AltitudeMeters>
            <DistanceMeters>NAN</DistanceMeters>
          </Trackpoint>
          <Trackpoint>
            <Time>2019-10-05T11:13:30.000Z</Time>
            <Position>
              <LatitudeDegrees>42.02183377929031848907470703125</LatitudeDegrees>
              <LongitudeDegrees>-5.65996267832815647125244140625</LongitudeDegrees>
            </Position>
            <AltitudeMeters>615.20001220703125</AltitudeMeters>
            <DistanceMeters>NAN</DistanceMeters>
          </Trackpoint>
          <Trackpoint>
            <Time>2019-10-05T11:13:40.000Z</Time>
            <Position>
              <LatitudeDegrees>42.021430693566799163818359375</LatitudeDegrees>
              <LongitudeDegrees>-5.6604494154453277587890625</LongitudeDegrees>
            </Position>
            <AltitudeMeters>615.4000244140625</AltitudeMeters>
            <DistanceMeters>NAN</DistanceMeters>
          </Trackpoint>
          <Trackpoint>
            <Time>2019-10-05T11:13:47.000Z</Time>
            <Position>
              <LatitudeDegrees>42.02117227949202060699462890625</LatitudeDegrees>
              <LongitudeDegrees>-5.660786367952823638916015625</LongitudeDegrees>
            </Position>
            <AltitudeMeters>615.79998779296875</AltitudeMeters>
            <DistanceMeters>NAN</DistanceMeters>
          </Trackpoint>
          <Trackpoint>
            <Time>2019-10-05T11:13:52.000Z</Time>
            <Position>
              <LatitudeDegrees>42.0210053957998752593994140625</LatitudeDegrees>
              <LongitudeDegrees>-5.66102944314479827880859375</LongitudeDegrees>
            </Position>
            <AltitudeMeters>616</AltitudeMeters>
            <DistanceMeters>NAN</DistanceMeters>
          </Trackpoint>
          <Trackpoint>
            <Time>2019-10-05T11:13:57.000Z</Time>
            <Position>
              <LatitudeDegrees>42.020845301449298858642578125</LatitudeDegrees>
              <LongitudeDegrees>-5.6612777151167392730712890625</LongitudeDegrees>
            </Position>
            <AltitudeMeters>616.4000244140625</AltitudeMeters>
            <DistanceMeters>NAN</DistanceMeters>
          </Trackpoint>
          <Trackpoint>
            <Time>2019-10-05T11:14:07.000Z</Time>
            <Position>
              <LatitudeDegrees>42.02054481022059917449951171875</LatitudeDegrees>
              <LongitudeDegrees>-5.66178188659250736236572265625</LongitudeDegrees>
            </Position>
            <AltitudeMeters>616.5999755859375</AltitudeMeters>
            <DistanceMeters>NAN</DistanceMeters>
          </Trackpoint>
          <Trackpoint>
            <Time>2019-10-05T11:14:12.000Z</Time>
            <Position>
              <LatitudeDegrees>42.02041053213179111480712890625</LatitudeDegrees>
              <LongitudeDegrees>-5.66203803755342960357666015625</LongitudeDegrees>
            </Position>
            <AltitudeMeters>617.20001220703125</AltitudeMeters>
            <DistanceMeters>NAN</DistanceMeters>
          </Trackpoint>
          <Trackpoint>
            <Time>2019-10-05T11:14:18.000Z</Time>
            <Position>
              <LatitudeDegrees>42.020253203809261322021484375</LatitudeDegrees>
              <LongitudeDegrees>-5.66235001198947429656982421875</LongitudeDegrees>
            </Position>
            <AltitudeMeters>617.20001220703125</AltitudeMeters>
            <DistanceMeters>NAN</DistanceMeters>
          </Trackpoint>
          <Trackpoint>
            <Time>2019-10-05T11:14:25.000Z</Time>
            <Position>
              <LatitudeDegrees>42.0200599171221256256103515625</LatitudeDegrees>
              <LongitudeDegrees>-5.66272149793803691864013671875</LongitudeDegrees>
            </Position>
            <AltitudeMeters>617.4000244140625</AltitudeMeters>
            <DistanceMeters>NAN</DistanceMeters>
          </Trackpoint>
          <Trackpoint>
            <Time>2019-10-05T11:14:29.000Z</Time>
            <Position>
              <LatitudeDegrees>42.0199516229331493377685546875</LatitudeDegrees>
              <LongitudeDegrees>-5.6629385054111480712890625</LongitudeDegrees>
            </Position>
            <AltitudeMeters>617.79998779296875</AltitudeMeters>
            <DistanceMeters>NAN</DistanceMeters>
          </Trackpoint>
          <Trackpoint>
            <Time>2019-10-05T11:14:32.000Z</Time>
            <Position>
              <LatitudeDegrees>42.01986989937722682952880859375</LatitudeDegrees>
              <LongitudeDegrees>-5.663107149302959442138671875</LongitudeDegrees>
            </Position>
            <AltitudeMeters>618.20001220703125</AltitudeMeters>
            <DistanceMeters>NAN</DistanceMeters>
          </Trackpoint>
          <Trackpoint>
            <Time>2019-10-05T11:14:40.000Z</Time>
            <Position>
              <LatitudeDegrees>42.01964668929576873779296875</LatitudeDegrees>
              <LongitudeDegrees>-5.66352247260510921478271484375</LongitudeDegrees>
            </Position>
            <AltitudeMeters>618.5999755859375</AltitudeMeters>
            <DistanceMeters>NAN</DistanceMeters>
          </Trackpoint>
          <Trackpoint>
            <Time>2019-10-05T11:14:44.000Z</Time>
            <Position>
              <LatitudeDegrees>42.01953361742198467254638671875</LatitudeDegrees>
              <LongitudeDegrees>-5.66371290944516658782958984375</LongitudeDegrees>
            </Position>
            <AltitudeMeters>619.20001220703125</AltitudeMeters>
            <DistanceMeters>NAN</DistanceMeters>
          </Trackpoint>
          <Trackpoint>
            <Time>2019-10-05T11:14:51.000Z</Time>
            <Position>
              <LatitudeDegrees>42.0193290151655673980712890625</LatitudeDegrees>
              <LongitudeDegrees>-5.66403913311660289764404296875</LongitudeDegrees>
            </Position>
            <AltitudeMeters>620.20001220703125</AltitudeMeters>
            <DistanceMeters>NAN</DistanceMeters>
          </Trackpoint>
          <Trackpoint>
            <Time>2019-10-05T11:14:52.000Z</Time>
            <Position>
              <LatitudeDegrees>42.01930009759962558746337890625</LatitudeDegrees>
              <LongitudeDegrees>-5.66408422775566577911376953125</LongitudeDegrees>
            </Position>
            <AltitudeMeters>620.4000244140625</AltitudeMeters>
            <DistanceMeters>NAN</DistanceMeters>
          </Trackpoint>
          <Trackpoint>
            <Time>2019-10-05T11:15:04.000Z</Time>
            <Position>
              <LatitudeDegrees>42.01892458833754062652587890625</LatitudeDegrees>
              <LongitudeDegrees>-5.664585717022418975830078125</LongitudeDegrees>
            </Position>
            <AltitudeMeters>621.20001220703125</AltitudeMeters>
            <DistanceMeters>NAN</DistanceMeters>
          </Trackpoint>
          <Trackpoint>
            <Time>2019-10-05T11:15:10.000Z</Time>
            <Position>
              <LatitudeDegrees>42.01872669160366058349609375</LatitudeDegrees>
              <LongitudeDegrees>-5.6648121960461139678955078125</LongitudeDegrees>
            </Position>
            <AltitudeMeters>622.20001220703125</AltitudeMeters>
            <DistanceMeters>NAN</DistanceMeters>
          </Trackpoint>
          <Trackpoint>
            <Time>2019-10-05T11:15:14.000Z</Time>
            <Position>
              <LatitudeDegrees>42.01859165914356708526611328125</LatitudeDegrees>
              <LongitudeDegrees>-5.6649582087993621826171875</LongitudeDegrees>
            </Position>
            <AltitudeMeters>622.79998779296875</AltitudeMeters>
            <DistanceMeters>NAN</DistanceMeters>
          </Trackpoint>
          <Trackpoint>
            <Time>2019-10-05T11:15:22.000Z</Time>
            <Position>
              <LatitudeDegrees>42.0183075964450836181640625</LatitudeDegrees>
              <LongitudeDegrees>-5.665235482156276702880859375</LongitudeDegrees>
            </Position>
            <AltitudeMeters>623.20001220703125</AltitudeMeters>
            <DistanceMeters>NAN</DistanceMeters>
          </Trackpoint>
          <Trackpoint>
            <Time>2019-10-05T11:15:23.000Z</Time>
            <Position>
              <LatitudeDegrees>42.018271386623382568359375</LatitudeDegrees>
              <LongitudeDegrees>-5.66526867449283599853515625</LongitudeDegrees>
            </Position>
            <AltitudeMeters>623.5999755859375</AltitudeMeters>
            <DistanceMeters>NAN</DistanceMeters>
          </Trackpoint>
          <Trackpoint>
            <Time>2019-10-05T11:15:27.000Z</Time>
            <Position>
              <LatitudeDegrees>42.01812545768916606903076171875</LatitudeDegrees>
              <LongitudeDegrees>-5.66539448685944080352783203125</LongitudeDegrees>
            </Position>
            <AltitudeMeters>624.20001220703125</AltitudeMeters>
            <DistanceMeters>NAN</DistanceMeters>
          </Trackpoint>
          <Trackpoint>
            <Time>2019-10-05T11:15:31.000Z</Time>
            <Position>
              <LatitudeDegrees>42.01797567307949066162109375</LatitudeDegrees>
              <LongitudeDegrees>-5.66551384516060352325439453125</LongitudeDegrees>
            </Position>
            <AltitudeMeters>624.79998779296875</AltitudeMeters>
            <DistanceMeters>NAN</DistanceMeters>
          </Trackpoint>
          <Trackpoint>
            <Time>2019-10-05T11:15:36.000Z</Time>
            <Position>
              <LatitudeDegrees>42.01778448186814785003662109375</LatitudeDegrees>
              <LongitudeDegrees>-5.6656503863632678985595703125</LongitudeDegrees>
            </Position>
            <AltitudeMeters>624.20001220703125</AltitudeMeters>
            <DistanceMeters>NAN</DistanceMeters>
          </Trackpoint>
          <Trackpoint>
            <Time>2019-10-05T11:15:43.000Z</Time>
            <Position>
              <LatitudeDegrees>42.0175148360431194305419921875</LatitudeDegrees>
              <LongitudeDegrees>-5.66582766361534595489501953125</LongitudeDegrees>
            </Position>
            <AltitudeMeters>623.5999755859375</AltitudeMeters>
            <DistanceMeters>NAN</DistanceMeters>
          </Trackpoint>
          <Trackpoint>
            <Time>2019-10-05T11:15:46.000Z</Time>
            <Position>
              <LatitudeDegrees>42.01739824377000331878662109375</LatitudeDegrees>
              <LongitudeDegrees>-5.66590058617293834686279296875</LongitudeDegrees>
            </Position>
            <AltitudeMeters>625</AltitudeMeters>
            <DistanceMeters>NAN</DistanceMeters>
          </Trackpoint>
          <Trackpoint>
            <Time>2019-10-05T11:15:52.000Z</Time>
            <Position>
              <LatitudeDegrees>42.01714712195098400115966796875</LatitudeDegrees>
              <LongitudeDegrees>-5.66603033803403377532958984375</LongitudeDegrees>
            </Position>
            <AltitudeMeters>625.5999755859375</AltitudeMeters>
            <DistanceMeters>NAN</DistanceMeters>
          </Trackpoint>
          <Trackpoint>
            <Time>2019-10-05T11:15:53.000Z</Time>
            <Position>
              <LatitudeDegrees>42.01710437424480915069580078125</LatitudeDegrees>
              <LongitudeDegrees>-5.66605229862034320831298828125</LongitudeDegrees>
            </Position>
            <AltitudeMeters>626</AltitudeMeters>
            <DistanceMeters>NAN</DistanceMeters>
          </Trackpoint>
          <Trackpoint>
            <Time>2019-10-05T11:15:57.000Z</Time>
            <Position>
              <LatitudeDegrees>42.01693673618137836456298828125</LatitudeDegrees>
              <LongitudeDegrees>-5.66613393835723400115966796875</LongitudeDegrees>
            </Position>
            <AltitudeMeters>624.5999755859375</AltitudeMeters>
            <DistanceMeters>NAN</DistanceMeters>
          </Trackpoint>
          <Trackpoint>
            <Time>2019-10-05T11:16:02.000Z</Time>
            <Position>
              <LatitudeDegrees>42.01672283001244068145751953125</LatitudeDegrees>
              <LongitudeDegrees>-5.66621742211282253265380859375</LongitudeDegrees>
            </Position>
            <AltitudeMeters>625.20001220703125</AltitudeMeters>
            <DistanceMeters>NAN</DistanceMeters>
          </Trackpoint>
          <Trackpoint>
            <Time>2019-10-05T11:16:09.000Z</Time>
            <Position>
              <LatitudeDegrees>42.01640834100544452667236328125</LatitudeDegrees>
              <LongitudeDegrees>-5.6663261353969573974609375</LongitudeDegrees>
            </Position>
            <AltitudeMeters>624.79998779296875</AltitudeMeters>
            <DistanceMeters>NAN</DistanceMeters>
          </Trackpoint>
          <Trackpoint>
            <Time>2019-10-05T11:16:10.000Z</Time>
            <Position>
              <LatitudeDegrees>42.0163614861667156219482421875</LatitudeDegrees>
              <LongitudeDegrees>-5.666335187852382659912109375</LongitudeDegrees>
            </Position>
            <AltitudeMeters>624.79998779296875</AltitudeMeters>
            <DistanceMeters>NAN</DistanceMeters>
          </Trackpoint>
          <Trackpoint>
            <Time>2019-10-05T11:16:17.000Z</Time>
            <Position>
              <LatitudeDegrees>42.0160248689353466033935546875</LatitudeDegrees>
              <LongitudeDegrees>-5.6664074398577213287353515625</LongitudeDegrees>
            </Position>
            <AltitudeMeters>624.4000244140625</AltitudeMeters>
            <DistanceMeters>NAN</DistanceMeters>
          </Trackpoint>
          <Trackpoint>
            <Time>2019-10-05T11:16:25.000Z</Time>
            <Position>
              <LatitudeDegrees>42.01560728251934051513671875</LatitudeDegrees>
              <LongitudeDegrees>-5.66648111678659915924072265625</LongitudeDegrees>
            </Position>
            <AltitudeMeters>623.79998779296875</AltitudeMeters>
            <DistanceMeters>NAN</DistanceMeters>
          </Trackpoint>
          <Trackpoint>
            <Time>2019-10-05T11:16:30.000Z</Time>
            <Position>
              <LatitudeDegrees>42.015344761312007904052734375</LatitudeDegrees>
              <LongitudeDegrees>-5.6664924323558807373046875</LongitudeDegrees>
            </Position>
            <AltitudeMeters>624</AltitudeMeters>
            <DistanceMeters>NAN</DistanceMeters>
          </Trackpoint>
          <Trackpoint>
            <Time>2019-10-05T11:16:33.000Z</Time>
            <Position>
              <LatitudeDegrees>42.0151806436479091644287109375</LatitudeDegrees>
              <LongitudeDegrees>-5.6664936058223247528076171875</LongitudeDegrees>
            </Position>
            <AltitudeMeters>624</AltitudeMeters>
            <DistanceMeters>NAN</DistanceMeters>
          </Trackpoint>
          <Trackpoint>
            <Time>2019-10-05T11:16:35.000Z</Time>
            <Position>
              <LatitudeDegrees>42.015067152678966522216796875</LatitudeDegrees>
              <LongitudeDegrees>-5.66647835075855255126953125</LongitudeDegrees>
            </Position>
            <AltitudeMeters>623.5999755859375</AltitudeMeters>
            <DistanceMeters>NAN</DistanceMeters>
          </Trackpoint>
          <Trackpoint>
            <Time>2019-10-05T11:16:39.000Z</Time>
            <Position>
              <LatitudeDegrees>42.01483287848532199859619140625</LatitudeDegrees>
              <LongitudeDegrees>-5.66645580343902111053466796875</LongitudeDegrees>
            </Position>
            <AltitudeMeters>622.4000244140625</AltitudeMeters>
            <DistanceMeters>NAN</DistanceMeters>
          </Trackpoint>
          <Trackpoint>
            <Time>2019-10-05T11:16:40.000Z</Time>
            <Position>
              <LatitudeDegrees>42.01477303169667720794677734375</LatitudeDegrees>
              <LongitudeDegrees>-5.6664490140974521636962890625</LongitudeDegrees>
            </Position>
            <AltitudeMeters>622</AltitudeMeters>
            <DistanceMeters>NAN</DistanceMeters>
          </Trackpoint>
          <Trackpoint>
            <Time>2019-10-05T11:16:43.000Z</Time>
            <Position>
              <LatitudeDegrees>42.0145925693213939666748046875</LatitudeDegrees>
              <LongitudeDegrees>-5.666437447071075439453125</LongitudeDegrees>
            </Position>
            <AltitudeMeters>621.79998779296875</AltitudeMeters>
            <DistanceMeters>NAN</DistanceMeters>
          </Trackpoint>
          <Trackpoint>
            <Time>2019-10-05T11:16:46.000Z</Time>
            <Position>
              <LatitudeDegrees>42.01441646553575992584228515625</LatitudeDegrees>
              <LongitudeDegrees>-5.66643434576690196990966796875</LongitudeDegrees>
            </Position>
            <AltitudeMeters>621.5999755859375</AltitudeMeters>
            <DistanceMeters>NAN</DistanceMeters>
          </Trackpoint>
          <Trackpoint>
            <Time>2019-10-05T11:16:47.000Z</Time>
            <Position>
              <LatitudeDegrees>42.01435695402324199676513671875</LatitudeDegrees>
              <LongitudeDegrees>-5.66644012928009033203125</LongitudeDegrees>
            </Position>
            <AltitudeMeters>621.4000244140625</AltitudeMeters>
            <DistanceMeters>NAN</DistanceMeters>
          </Trackpoint>
          <Trackpoint>
            <Time>2019-10-05T11:16:48.000Z</Time>
            <Position>
              <LatitudeDegrees>42.01429677195847034454345703125</LatitudeDegrees>
              <LongitudeDegrees>-5.66644079983234405517578125</LongitudeDegrees>
            </Position>
            <AltitudeMeters>621.4000244140625</AltitudeMeters>
            <DistanceMeters>NAN</DistanceMeters>
          </Trackpoint>
          <Trackpoint>
            <Time>2019-10-05T11:16:50.000Z</Time>
            <Position>
              <LatitudeDegrees>42.01417339034378528594970703125</LatitudeDegrees>
              <LongitudeDegrees>-5.66644021309912204742431640625</LongitudeDegrees>
            </Position>
            <AltitudeMeters>620.20001220703125</AltitudeMeters>
            <DistanceMeters>NAN</DistanceMeters>
          </Trackpoint>
          <Trackpoint>
            <Time>2019-10-05T11:16:53.000Z</Time>
            <Position>
              <LatitudeDegrees>42.013981528580188751220703125</LatitudeDegrees>
              <LongitudeDegrees>-5.66646519117057323455810546875</LongitudeDegrees>
            </Position>
            <AltitudeMeters>619.79998779296875</AltitudeMeters>
            <DistanceMeters>NAN</DistanceMeters>
          </Trackpoint>
          <Trackpoint>
            <Time>2019-10-05T11:16:55.000Z</Time>
            <Position>
              <LatitudeDegrees>42.01384616084396839141845703125</LatitudeDegrees>
              <LongitudeDegrees>-5.66648505628108978271484375</LongitudeDegrees>
            </Position>
            <AltitudeMeters>619.20001220703125</AltitudeMeters>
            <DistanceMeters>NAN</DistanceMeters>
          </Trackpoint>
          <Trackpoint>
            <Time>2019-10-05T11:16:58.000Z</Time>
            <Position>
              <LatitudeDegrees>42.01363678090274333953857421875</LatitudeDegrees>
              <LongitudeDegrees>-5.6665204279124736785888671875</LongitudeDegrees>
            </Position>
            <AltitudeMeters>617.79998779296875</AltitudeMeters>
            <DistanceMeters>NAN</DistanceMeters>
          </Trackpoint>
          <Trackpoint>
            <Time>2019-10-05T11:17:02.000Z</Time>
            <Position>
              <LatitudeDegrees>42.01334911398589611053466796875</LatitudeDegrees>
              <LongitudeDegrees>-5.66659636795520782470703125</LongitudeDegrees>
            </Position>
            <AltitudeMeters>617</AltitudeMeters>
            <DistanceMeters>NAN</DistanceMeters>
          </Trackpoint>
          <Trackpoint>
            <Time>2019-10-05T11:17:03.000Z</Time>
            <Position>
              <LatitudeDegrees>42.01327702961862087249755859375</LatitudeDegrees>
              <LongitudeDegrees>-5.6666211783885955810546875</LongitudeDegrees>
            </Position>
            <AltitudeMeters>616.4000244140625</AltitudeMeters>
            <DistanceMeters>NAN</DistanceMeters>
          </Trackpoint>
          <Trackpoint>
            <Time>2019-10-05T11:17:06.000Z</Time>
            <Position>
              <LatitudeDegrees>42.0130613632500171661376953125</LatitudeDegrees>
              <LongitudeDegrees>-5.6667075119912624359130859375</LongitudeDegrees>
            </Position>
            <AltitudeMeters>615.79998779296875</AltitudeMeters>
            <DistanceMeters>NAN</DistanceMeters>
          </Trackpoint>
          <Trackpoint>
            <Time>2019-10-05T11:17:09.000Z</Time>
            <Position>
              <LatitudeDegrees>42.01285458169877529144287109375</LatitudeDegrees>
              <LongitudeDegrees>-5.66681421361863613128662109375</LongitudeDegrees>
            </Position>
            <AltitudeMeters>615.20001220703125</AltitudeMeters>
            <DistanceMeters>NAN</DistanceMeters>
          </Trackpoint>
          <Trackpoint>
            <Time>2019-10-05T11:17:10.000Z</Time>
            <Position>
              <LatitudeDegrees>42.01278769411146640777587890625</LatitudeDegrees>
              <LongitudeDegrees>-5.66685251891613006591796875</LongitudeDegrees>
            </Position>
            <AltitudeMeters>615</AltitudeMeters>
            <DistanceMeters>NAN</DistanceMeters>
          </Trackpoint>
          <Trackpoint>
            <Time>2019-10-05T11:17:17.000Z</Time>
            <Position>
              <LatitudeDegrees>42.0123663358390331268310546875</LatitudeDegrees>
              <LongitudeDegrees>-5.66711269319057464599609375</LongitudeDegrees>
            </Position>
            <AltitudeMeters>615.20001220703125</AltitudeMeters>
            <DistanceMeters>NAN</DistanceMeters>
          </Trackpoint>
          <Trackpoint>
            <Time>2019-10-05T11:17:25.000Z</Time>
            <Position>
              <LatitudeDegrees>42.011982612311840057373046875</LatitudeDegrees>
              <LongitudeDegrees>-5.66739608533680438995361328125</LongitudeDegrees>
            </Position>
            <AltitudeMeters>616</AltitudeMeters>
            <DistanceMeters>NAN</DistanceMeters>
          </Trackpoint>
          <Trackpoint>
            <Time>2019-10-05T11:17:26.000Z</Time>
            <Position>
              <LatitudeDegrees>42.011942379176616668701171875</LatitudeDegrees>
              <LongitudeDegrees>-5.66742919385433197021484375</LongitudeDegrees>
            </Position>
            <AltitudeMeters>616.4000244140625</AltitudeMeters>
            <DistanceMeters>NAN</DistanceMeters>
          </Trackpoint>
          <Trackpoint>
            <Time>2019-10-05T11:17:32.000Z</Time>
            <Position>
              <LatitudeDegrees>42.01170776970684528350830078125</LatitudeDegrees>
              <LongitudeDegrees>-5.66761837340891361236572265625</LongitudeDegrees>
            </Position>
            <AltitudeMeters>616.20001220703125</AltitudeMeters>
            <DistanceMeters>NAN</DistanceMeters>
          </Trackpoint>
          <Trackpoint>
            <Time>2019-10-05T11:17:34.000Z</Time>
            <Position>
              <LatitudeDegrees>42.01162780635058879852294921875</LatitudeDegrees>
              <LongitudeDegrees>-5.66767604090273380279541015625</LongitudeDegrees>
            </Position>
            <AltitudeMeters>616.4000244140625</AltitudeMeters>
            <DistanceMeters>NAN</DistanceMeters>
          </Trackpoint>
          <Trackpoint>
            <Time>2019-10-05T11:17:37.000Z</Time>
            <Position>
              <LatitudeDegrees>42.01151766814291477203369140625</LatitudeDegrees>
              <LongitudeDegrees>-5.66777561791241168975830078125</LongitudeDegrees>
            </Position>
            <AltitudeMeters>616.5999755859375</AltitudeMeters>
            <DistanceMeters>NAN</DistanceMeters>
          </Trackpoint>
          <Trackpoint>
            <Time>2019-10-05T11:17:39.000Z</Time>
            <Position>
              <LatitudeDegrees>42.01144189573824405670166015625</LatitudeDegrees>
              <LongitudeDegrees>-5.66783328540623188018798828125</LongitudeDegrees>
            </Position>
            <AltitudeMeters>616.79998779296875</AltitudeMeters>
            <DistanceMeters>NAN</DistanceMeters>
          </Trackpoint>
          <Trackpoint>
            <Time>2019-10-05T11:17:47.000Z</Time>
            <Position>
              <LatitudeDegrees>42.0111331902444362640380859375</LatitudeDegrees>
              <LongitudeDegrees>-5.66807133145630359649658203125</LongitudeDegrees>
            </Position>
            <AltitudeMeters>616.79998779296875</AltitudeMeters>
            <DistanceMeters>NAN</DistanceMeters>
          </Trackpoint>
          <Trackpoint>
            <Time>2019-10-05T11:17:48.000Z</Time>
            <Position>
              <LatitudeDegrees>42.01109371148049831390380859375</LatitudeDegrees>
              <LongitudeDegrees>-5.66810050047934055328369140625</LongitudeDegrees>
            </Position>
            <AltitudeMeters>617</AltitudeMeters>
            <DistanceMeters>NAN</DistanceMeters>
          </Trackpoint>
          <Trackpoint>
            <Time>2019-10-05T11:17:50.000Z</Time>
            <Position>
              <LatitudeDegrees>42.01101508922874927520751953125</LatitudeDegrees>
              <LongitudeDegrees>-5.66816319711506366729736328125</LongitudeDegrees>
            </Position>
            <AltitudeMeters>617.5999755859375</AltitudeMeters>
            <DistanceMeters>NAN</DistanceMeters>
          </Trackpoint>
          <Trackpoint>
            <Time>2019-10-05T11:17:56.000Z</Time>
            <Position>
              <LatitudeDegrees>42.010782994329929351806640625</LatitudeDegrees>
              <LongitudeDegrees>-5.668357908725738525390625</LongitudeDegrees>
            </Position>
            <AltitudeMeters>616.79998779296875</AltitudeMeters>
            <DistanceMeters>NAN</DistanceMeters>
          </Trackpoint>
          <Trackpoint>
            <Time>2019-10-05T11:17:57.000Z</Time>
            <Position>
              <LatitudeDegrees>42.0107439346611499786376953125</LatitudeDegrees>
              <LongitudeDegrees>-5.66838665865361690521240234375</LongitudeDegrees>
            </Position>
            <AltitudeMeters>616.79998779296875</AltitudeMeters>
            <DistanceMeters>NAN</DistanceMeters>
          </Trackpoint>
          <Trackpoint>
            <Time>2019-10-05T11:18:00.000Z</Time>
            <Position>
              <LatitudeDegrees>42.010625414550304412841796875</LatitudeDegrees>
              <LongitudeDegrees>-5.6684747524559497833251953125</LongitudeDegrees>
            </Position>
            <AltitudeMeters>617.5999755859375</AltitudeMeters>
            <DistanceMeters>NAN</DistanceMeters>
          </Trackpoint>
          <Trackpoint>
            <Time>2019-10-05T11:18:04.000Z</Time>
            <Position>
              <LatitudeDegrees>42.0104696787893772125244140625</LatitudeDegrees>
              <LongitudeDegrees>-5.66859863698482513427734375</LongitudeDegrees>
            </Position>
            <AltitudeMeters>617.5999755859375</AltitudeMeters>
            <DistanceMeters>NAN</DistanceMeters>
          </Trackpoint>
          <Trackpoint>
            <Time>2019-10-05T11:18:12.000Z</Time>
            <Position>
              <LatitudeDegrees>42.01013549230992794036865234375</LatitudeDegrees>
              <LongitudeDegrees>-5.66887113265693187713623046875</LongitudeDegrees>
            </Position>
            <AltitudeMeters>617.5999755859375</AltitudeMeters>
            <DistanceMeters>NAN</DistanceMeters>
          </Trackpoint>
          <Trackpoint>
            <Time>2019-10-05T11:18:13.000Z</Time>
            <Position>
              <LatitudeDegrees>42.01009274460375308990478515625</LatitudeDegrees>
              <LongitudeDegrees>-5.668906085193157196044921875</LongitudeDegrees>
            </Position>
            <AltitudeMeters>617.79998779296875</AltitudeMeters>
            <DistanceMeters>NAN</DistanceMeters>
          </Trackpoint>
          <Trackpoint>
            <Time>2019-10-05T11:18:21.000Z</Time>
            <Position>
              <LatitudeDegrees>42.0097434706985950469970703125</LatitudeDegrees>
              <LongitudeDegrees>-5.66917925141751766204833984375</LongitudeDegrees>
            </Position>
            <AltitudeMeters>616.79998779296875</AltitudeMeters>
            <DistanceMeters>NAN</DistanceMeters>
          </Trackpoint>
          <Trackpoint>
            <Time>2019-10-05T11:18:25.000Z</Time>
            <Position>
              <LatitudeDegrees>42.00956904329359531402587890625</LatitudeDegrees>
              <LongitudeDegrees>-5.6693297065794467926025390625</LongitudeDegrees>
            </Position>
            <AltitudeMeters>616.79998779296875</AltitudeMeters>
            <DistanceMeters>NAN</DistanceMeters>
          </Trackpoint>
          <Trackpoint>
            <Time>2019-10-05T11:18:27.000Z</Time>
            <Position>
              <LatitudeDegrees>42.009512297809123992919921875</LatitudeDegrees>
              <LongitudeDegrees>-5.66944596357643604278564453125</LongitudeDegrees>
            </Position>
            <AltitudeMeters>616.5999755859375</AltitudeMeters>
            <DistanceMeters>NAN</DistanceMeters>
          </Trackpoint>
          <Trackpoint>
            <Time>2019-10-05T11:18:31.000Z</Time>
            <Position>
              <LatitudeDegrees>42.00938992202281951904296875</LatitudeDegrees>
              <LongitudeDegrees>-5.669669173657894134521484375</LongitudeDegrees>
            </Position>
            <AltitudeMeters>616.5999755859375</AltitudeMeters>
            <DistanceMeters>NAN</DistanceMeters>
          </Trackpoint>
          <Trackpoint>
            <Time>2019-10-05T11:18:33.000Z</Time>
            <Position>
              <LatitudeDegrees>42.0092885009944438934326171875</LatitudeDegrees>
              <LongitudeDegrees>-5.66970898769795894622802734375</LongitudeDegrees>
            </Position>
            <AltitudeMeters>616.79998779296875</AltitudeMeters>
            <DistanceMeters>NAN</DistanceMeters>
          </Trackpoint>
          <Trackpoint>
            <Time>2019-10-05T11:18:34.000Z</Time>
            <Position>
              <LatitudeDegrees>42.00923569500446319580078125</LatitudeDegrees>
              <LongitudeDegrees>-5.66971083171665668487548828125</LongitudeDegrees>
            </Position>
            <AltitudeMeters>616.20001220703125</AltitudeMeters>
            <DistanceMeters>NAN</DistanceMeters>
          </Trackpoint>
          <Trackpoint>
            <Time>2019-10-05T11:18:35.000Z</Time>
            <Position>
              <LatitudeDegrees>42.009184062480926513671875</LatitudeDegrees>
              <LongitudeDegrees>-5.66971083171665668487548828125</LongitudeDegrees>
            </Position>
            <AltitudeMeters>616</AltitudeMeters>
            <DistanceMeters>NAN</DistanceMeters>
          </Trackpoint>
          <Trackpoint>
            <Time>2019-10-05T11:18:37.000Z</Time>
            <Position>
              <LatitudeDegrees>42.00907886959612369537353515625</LatitudeDegrees>
              <LongitudeDegrees>-5.66972089000046253204345703125</LongitudeDegrees>
            </Position>
            <AltitudeMeters>616</AltitudeMeters>
            <DistanceMeters>NAN</DistanceMeters>
          </Trackpoint>
          <Trackpoint>
            <Time>2019-10-05T11:18:38.000Z</Time>
            <Position>
              <LatitudeDegrees>42.00902857817709445953369140625</LatitudeDegrees>
              <LongitudeDegrees>-5.66974167712032794952392578125</LongitudeDegrees>
            </Position>
            <AltitudeMeters>616.20001220703125</AltitudeMeters>
            <DistanceMeters>NAN</DistanceMeters>
          </Trackpoint>
          <Trackpoint>
            <Time>2019-10-05T11:18:43.000Z</Time>
            <Position>
              <LatitudeDegrees>42.008787430822849273681640625</LatitudeDegrees>
              <LongitudeDegrees>-5.6698879413306713104248046875</LongitudeDegrees>
            </Position>
            <AltitudeMeters>616.20001220703125</AltitudeMeters>
            <DistanceMeters>NAN</DistanceMeters>
          </Trackpoint>
          <Trackpoint>
            <Time>2019-10-05T11:18:44.000Z</Time>
            <Position>
              <LatitudeDegrees>42.0087420009076595306396484375</LatitudeDegrees>
              <LongitudeDegrees>-5.66992339678108692169189453125</LongitudeDegrees>
            </Position>
            <AltitudeMeters>616.5999755859375</AltitudeMeters>
            <DistanceMeters>NAN</DistanceMeters>
          </Trackpoint>
          <Trackpoint>
            <Time>2019-10-05T11:18:52.000Z</Time>
            <Position>
              <LatitudeDegrees>42.00837311334908008575439453125</LatitudeDegrees>
              <LongitudeDegrees>-5.6701890192925930023193359375</LongitudeDegrees>
            </Position>
            <AltitudeMeters>615.5999755859375</AltitudeMeters>
            <DistanceMeters>NAN</DistanceMeters>
          </Trackpoint>
          <Trackpoint>
            <Time>2019-10-05T11:19:02.000Z</Time>
            <Position>
              <LatitudeDegrees>42.00789584778249263763427734375</LatitudeDegrees>
              <LongitudeDegrees>-5.6705196015536785125732421875</LongitudeDegrees>
            </Position>
            <AltitudeMeters>615</AltitudeMeters>
            <DistanceMeters>NAN</DistanceMeters>
          </Trackpoint>
          <Trackpoint>
            <Time>2019-10-05T11:19:11.000Z</Time>
            <Position>
              <LatitudeDegrees>42.00746283866465091705322265625</LatitudeDegrees>
              <LongitudeDegrees>-5.67083618603646755218505859375</LongitudeDegrees>
            </Position>
            <AltitudeMeters>615.4000244140625</AltitudeMeters>
            <DistanceMeters>NAN</DistanceMeters>
          </Trackpoint>
          <Trackpoint>
            <Time>2019-10-05T11:19:20.000Z</Time>
            <Position>
              <LatitudeDegrees>42.00702580623328685760498046875</LatitudeDegrees>
              <LongitudeDegrees>-5.67115746438503265380859375</LongitudeDegrees>
            </Position>
            <AltitudeMeters>614.20001220703125</AltitudeMeters>
            <DistanceMeters>NAN</DistanceMeters>
          </Trackpoint>
          <Trackpoint>
            <Time>2019-10-05T11:19:29.000Z</Time>
            <Position>
              <LatitudeDegrees>42.0065965689718723297119140625</LatitudeDegrees>
              <LongitudeDegrees>-5.67145921289920806884765625</LongitudeDegrees>
            </Position>
            <AltitudeMeters>614.5999755859375</AltitudeMeters>
            <DistanceMeters>NAN</DistanceMeters>
          </Trackpoint>
          <Trackpoint>
            <Time>2019-10-05T11:19:31.000Z</Time>
            <Position>
              <LatitudeDegrees>42.00650629587471485137939453125</LatitudeDegrees>
              <LongitudeDegrees>-5.671520568430423736572265625</LongitudeDegrees>
            </Position>
            <AltitudeMeters>614.20001220703125</AltitudeMeters>
            <DistanceMeters>NAN</DistanceMeters>
          </Trackpoint>
          <Trackpoint>
            <Time>2019-10-05T11:19:32.000Z</Time>
            <Position>
              <LatitudeDegrees>42.00646136887371540069580078125</LatitudeDegrees>
              <LongitudeDegrees>-5.67155032418668270111083984375</LongitudeDegrees>
            </Position>
            <AltitudeMeters>613.79998779296875</AltitudeMeters>
            <DistanceMeters>NAN</DistanceMeters>
          </Trackpoint>
          <Trackpoint>
            <Time>2019-10-05T11:19:36.000Z</Time>
            <Position>
              <LatitudeDegrees>42.00628233142197132110595703125</LatitudeDegrees>
              <LongitudeDegrees>-5.6716823391616344451904296875</LongitudeDegrees>
            </Position>
            <AltitudeMeters>614.20001220703125</AltitudeMeters>
            <DistanceMeters>NAN</DistanceMeters>
          </Trackpoint>
          <Trackpoint>
            <Time>2019-10-05T11:19:42.000Z</Time>
            <Position>
              <LatitudeDegrees>42.00602215714752674102783203125</LatitudeDegrees>
              <LongitudeDegrees>-5.67187470383942127227783203125</LongitudeDegrees>
            </Position>
            <AltitudeMeters>615</AltitudeMeters>
            <DistanceMeters>NAN</DistanceMeters>
          </Trackpoint>
          <Trackpoint>
            <Time>2019-10-05T11:19:44.000Z</Time>
            <Position>
              <LatitudeDegrees>42.00593582354485988616943359375</LatitudeDegrees>
              <LongitudeDegrees>-5.6719317846000194549560546875</LongitudeDegrees>
            </Position>
            <AltitudeMeters>614.79998779296875</AltitudeMeters>
            <DistanceMeters>NAN</DistanceMeters>
          </Trackpoint>
          <Trackpoint>
            <Time>2019-10-05T11:19:53.000Z</Time>
            <Position>
              <LatitudeDegrees>42.005569450557231903076171875</LatitudeDegrees>
              <LongitudeDegrees>-5.6721813976764678955078125</LongitudeDegrees>
            </Position>
            <AltitudeMeters>614.79998779296875</AltitudeMeters>
            <DistanceMeters>NAN</DistanceMeters>
          </Trackpoint>
          <Trackpoint>
            <Time>2019-10-05T11:19:59.000Z</Time>
            <Position>
              <LatitudeDegrees>42.00533299706876277923583984375</LatitudeDegrees>
              <LongitudeDegrees>-5.67237258888781070709228515625</LongitudeDegrees>
            </Position>
            <AltitudeMeters>614.5999755859375</AltitudeMeters>
            <DistanceMeters>NAN</DistanceMeters>
          </Trackpoint>
          <Trackpoint>
            <Time>2019-10-05T11:20:07.000Z</Time>
            <Position>
              <LatitudeDegrees>42.005007527768611907958984375</LatitudeDegrees>
              <LongitudeDegrees>-5.67260828800499439239501953125</LongitudeDegrees>
            </Position>
            <AltitudeMeters>615.20001220703125</AltitudeMeters>
            <DistanceMeters>NAN</DistanceMeters>
          </Trackpoint>
          <Trackpoint>
            <Time>2019-10-05T11:20:16.000Z</Time>
            <Position>
              <LatitudeDegrees>42.00464853085577487945556640625</LatitudeDegrees>
              <LongitudeDegrees>-5.6728581525385379791259765625</LongitudeDegrees>
            </Position>
            <AltitudeMeters>615.5999755859375</AltitudeMeters>
            <DistanceMeters>NAN</DistanceMeters>
          </Trackpoint>
          <Trackpoint>
            <Time>2019-10-05T11:20:24.000Z</Time>
            <Position>
              <LatitudeDegrees>42.0043327845633029937744140625</LatitudeDegrees>
              <LongitudeDegrees>-5.67307147197425365447998046875</LongitudeDegrees>
            </Position>
            <AltitudeMeters>615.5999755859375</AltitudeMeters>
            <DistanceMeters>NAN</DistanceMeters>
          </Trackpoint>
          <Trackpoint>
            <Time>2019-10-05T11:20:32.000Z</Time>
            <Position>
              <LatitudeDegrees>42.00405961833894252777099609375</LatitudeDegrees>
              <LongitudeDegrees>-5.6732628308236598968505859375</LongitudeDegrees>
            </Position>
            <AltitudeMeters>615.4000244140625</AltitudeMeters>
            <DistanceMeters>NAN</DistanceMeters>
          </Trackpoint>
          <Trackpoint>
            <Time>2019-10-05T11:20:33.000Z</Time>
            <Position>
              <LatitudeDegrees>42.00402575545012950897216796875</LatitudeDegrees>
              <LongitudeDegrees>-5.67329376004636287689208984375</LongitudeDegrees>
            </Position>
            <AltitudeMeters>615.20001220703125</AltitudeMeters>
            <DistanceMeters>NAN</DistanceMeters>
          </Trackpoint>
          <Trackpoint>
            <Time>2019-10-05T11:20:34.000Z</Time>
            <Position>
              <LatitudeDegrees>42.00399474240839481353759765625</LatitudeDegrees>
              <LongitudeDegrees>-5.67332728765904903411865234375</LongitudeDegrees>
            </Position>
            <AltitudeMeters>615.4000244140625</AltitudeMeters>
            <DistanceMeters>NAN</DistanceMeters>
          </Trackpoint>
          <Trackpoint>
            <Time>2019-10-05T11:20:38.000Z</Time>
            <Position>
              <LatitudeDegrees>42.00386029668152332305908203125</LatitudeDegrees>
              <LongitudeDegrees>-5.67345486022531986236572265625</LongitudeDegrees>
            </Position>
            <AltitudeMeters>616</AltitudeMeters>
            <DistanceMeters>NAN</DistanceMeters>
          </Trackpoint>
          <Trackpoint>
            <Time>2019-10-05T11:20:39.000Z</Time>
            <Position>
              <LatitudeDegrees>42.0038241706788539886474609375</LatitudeDegrees>
              <LongitudeDegrees>-5.673483274877071380615234375</LongitudeDegrees>
            </Position>
            <AltitudeMeters>616.20001220703125</AltitudeMeters>
            <DistanceMeters>NAN</DistanceMeters>
          </Trackpoint>
          <Trackpoint>
            <Time>2019-10-05T11:20:47.000Z</Time>
            <Position>
              <LatitudeDegrees>42.00353524647653102874755859375</LatitudeDegrees>
              <LongitudeDegrees>-5.67369282245635986328125</LongitudeDegrees>
            </Position>
            <AltitudeMeters>616.20001220703125</AltitudeMeters>
            <DistanceMeters>NAN</DistanceMeters>
          </Trackpoint>
          <Trackpoint>
            <Time>2019-10-05T11:20:50.000Z</Time>
            <Position>
              <LatitudeDegrees>42.0035033114254474639892578125</LatitudeDegrees>
              <LongitudeDegrees>-5.6737478077411651611328125</LongitudeDegrees>
            </Position>
            <AltitudeMeters>617</AltitudeMeters>
            <DistanceMeters>NAN</DistanceMeters>
          </Trackpoint>
          <Trackpoint>
            <Time>2019-10-05T11:20:51.000Z</Time>
            <Position>
              <LatitudeDegrees>42.00350037775933742523193359375</LatitudeDegrees>
              <LongitudeDegrees>-5.67376381717622280120849609375</LongitudeDegrees>
            </Position>
            <AltitudeMeters>617.20001220703125</AltitudeMeters>
            <DistanceMeters>NAN</DistanceMeters>
          </Trackpoint>
          <Trackpoint>
            <Time>2019-10-05T11:20:55.000Z</Time>
            <Position>
              <LatitudeDegrees>42.0034533552825450897216796875</LatitudeDegrees>
              <LongitudeDegrees>-5.67382819019258022308349609375</LongitudeDegrees>
            </Position>
            <AltitudeMeters>617.79998779296875</AltitudeMeters>
            <DistanceMeters>NAN</DistanceMeters>
          </Trackpoint>
          <Trackpoint>
            <Time>2019-10-05T11:20:58.000Z</Time>
            <Position>
              <LatitudeDegrees>42.0033408701419830322265625</LatitudeDegrees>
              <LongitudeDegrees>-5.67385233007371425628662109375</LongitudeDegrees>
            </Position>
            <AltitudeMeters>617.5999755859375</AltitudeMeters>
            <DistanceMeters>NAN</DistanceMeters>
          </Trackpoint>
          <Trackpoint>
            <Time>2019-10-05T11:21:02.000Z</Time>
            <Position>
              <LatitudeDegrees>42.00315437279641628265380859375</LatitudeDegrees>
              <LongitudeDegrees>-5.6738602928817272186279296875</LongitudeDegrees>
            </Position>
            <AltitudeMeters>615.5999755859375</AltitudeMeters>
            <DistanceMeters>NAN</DistanceMeters>
          </Trackpoint>
          <Trackpoint>
            <Time>2019-10-05T11:21:05.000Z</Time>
            <Position>
              <LatitudeDegrees>42.00302210636436939239501953125</LatitudeDegrees>
              <LongitudeDegrees>-5.6738864444196224212646484375</LongitudeDegrees>
            </Position>
            <AltitudeMeters>616.20001220703125</AltitudeMeters>
            <DistanceMeters>NAN</DistanceMeters>
          </Trackpoint>
          <Trackpoint>
            <Time>2019-10-05T11:21:08.000Z</Time>
            <Position>
              <LatitudeDegrees>42.00290543027222156524658203125</LatitudeDegrees>
              <LongitudeDegrees>-5.6739105843007564544677734375</LongitudeDegrees>
            </Position>
            <AltitudeMeters>616</AltitudeMeters>
            <DistanceMeters>NAN</DistanceMeters>
          </Trackpoint>
          <Trackpoint>
            <Time>2019-10-05T11:21:10.000Z</Time>
            <Position>
              <LatitudeDegrees>42.0028258860111236572265625</LatitudeDegrees>
              <LongitudeDegrees>-5.6739233247935771942138671875</LongitudeDegrees>
            </Position>
            <AltitudeMeters>616.20001220703125</AltitudeMeters>
            <DistanceMeters>NAN</DistanceMeters>
          </Trackpoint>
          <Trackpoint>
            <Time>2019-10-05T11:21:18.000Z</Time>
            <Position>
              <LatitudeDegrees>42.00248457491397857666015625</LatitudeDegrees>
              <LongitudeDegrees>-5.67395442165434360504150390625</LongitudeDegrees>
            </Position>
            <AltitudeMeters>615.4000244140625</AltitudeMeters>
            <DistanceMeters>NAN</DistanceMeters>
          </Trackpoint>
          <Trackpoint>
            <Time>2019-10-05T11:21:22.000Z</Time>
            <Position>
              <LatitudeDegrees>42.00231936760246753692626953125</LatitudeDegrees>
              <LongitudeDegrees>-5.6740212254226207733154296875</LongitudeDegrees>
            </Position>
            <AltitudeMeters>616.20001220703125</AltitudeMeters>
            <DistanceMeters>NAN</DistanceMeters>
          </Trackpoint>
          <Trackpoint>
            <Time>2019-10-05T11:21:25.000Z</Time>
            <Position>
              <LatitudeDegrees>42.00219489634037017822265625</LatitudeDegrees>
              <LongitudeDegrees>-5.6740938127040863037109375</LongitudeDegrees>
            </Position>
            <AltitudeMeters>616.20001220703125</AltitudeMeters>
            <DistanceMeters>NAN</DistanceMeters>
          </Trackpoint>
          <Trackpoint>
            <Time>2019-10-05T11:21:34.000Z</Time>
            <Position>
              <LatitudeDegrees>42.001808993518352508544921875</LatitudeDegrees>
              <LongitudeDegrees>-5.6743323616683483123779296875</LongitudeDegrees>
            </Position>
            <AltitudeMeters>616.20001220703125</AltitudeMeters>
            <DistanceMeters>NAN</DistanceMeters>
          </Trackpoint>
          <Trackpoint>
            <Time>2019-10-05T11:21:40.000Z</Time>
            <Position>
              <LatitudeDegrees>42.001550830900669097900390625</LatitudeDegrees>
              <LongitudeDegrees>-5.67448608577251434326171875</LongitudeDegrees>
            </Position>
            <AltitudeMeters>615.4000244140625</AltitudeMeters>
            <DistanceMeters>NAN</DistanceMeters>
          </Trackpoint>
          <Trackpoint>
            <Time>2019-10-05T11:21:41.000Z</Time>
            <Position>
              <LatitudeDegrees>42.00150665827095508575439453125</LatitudeDegrees>
              <LongitudeDegrees>-5.674510896205902099609375</LongitudeDegrees>
            </Position>
            <AltitudeMeters>615.4000244140625</AltitudeMeters>
            <DistanceMeters>NAN</DistanceMeters>
          </Trackpoint>
          <Trackpoint>
            <Time>2019-10-05T11:21:49.000Z</Time>
            <Position>
              <LatitudeDegrees>42.001152522861957550048828125</LatitudeDegrees>
              <LongitudeDegrees>-5.67474491894245147705078125</LongitudeDegrees>
            </Position>
            <AltitudeMeters>615.20001220703125</AltitudeMeters>
            <DistanceMeters>NAN</DistanceMeters>
          </Trackpoint>
          <Trackpoint>
            <Time>2019-10-05T11:21:53.000Z</Time>
            <Position>
              <LatitudeDegrees>42.0009709708392620086669921875</LatitudeDegrees>
              <LongitudeDegrees>-5.67487140186131000518798828125</LongitudeDegrees>
            </Position>
            <AltitudeMeters>614.4000244140625</AltitudeMeters>
            <DistanceMeters>NAN</DistanceMeters>
          </Trackpoint>
          <Trackpoint>
            <Time>2019-10-05T11:21:57.000Z</Time>
            <Position>
              <LatitudeDegrees>42.00078480876982212066650390625</LatitudeDegrees>
              <LongitudeDegrees>-5.6750069372355937957763671875</LongitudeDegrees>
            </Position>
            <AltitudeMeters>614.5999755859375</AltitudeMeters>
            <DistanceMeters>NAN</DistanceMeters>
          </Trackpoint>
          <Trackpoint>
            <Time>2019-10-05T11:22:05.000Z</Time>
            <Position>
              <LatitudeDegrees>42.0004080422222614288330078125</LatitudeDegrees>
              <LongitudeDegrees>-5.67526065744459629058837890625</LongitudeDegrees>
            </Position>
            <AltitudeMeters>614.4000244140625</AltitudeMeters>
            <DistanceMeters>NAN</DistanceMeters>
          </Trackpoint>
          <Trackpoint>
            <Time>2019-10-05T11:22:09.000Z</Time>
            <Position>
              <LatitudeDegrees>42.00024652294814586639404296875</LatitudeDegrees>
              <LongitudeDegrees>-5.67538999021053314208984375</LongitudeDegrees>
            </Position>
            <AltitudeMeters>614.20001220703125</AltitudeMeters>
            <DistanceMeters>NAN</DistanceMeters>
          </Trackpoint>
          <Trackpoint>
            <Time>2019-10-05T11:22:12.000Z</Time>
            <Position>
              <LatitudeDegrees>42.00012288987636566162109375</LatitudeDegrees>
              <LongitudeDegrees>-5.6754759885370731353759765625</LongitudeDegrees>
            </Position>
            <AltitudeMeters>613.79998779296875</AltitudeMeters>
            <DistanceMeters>NAN</DistanceMeters>
          </Trackpoint>
          <Trackpoint>
            <Time>2019-10-05T11:22:16.000Z</Time>
            <Position>
              <LatitudeDegrees>41.9999614544212818145751953125</LatitudeDegrees>
              <LongitudeDegrees>-5.67560213617980480194091796875</LongitudeDegrees>
            </Position>
            <AltitudeMeters>614.20001220703125</AltitudeMeters>
            <DistanceMeters>NAN</DistanceMeters>
          </Trackpoint>
          <Trackpoint>
            <Time>2019-10-05T11:22:20.000Z</Time>
            <Position>
              <LatitudeDegrees>41.999792642891407012939453125</LatitudeDegrees>
              <LongitudeDegrees>-5.67571797408163547515869140625</LongitudeDegrees>
            </Position>
            <AltitudeMeters>614</AltitudeMeters>
            <DistanceMeters>NAN</DistanceMeters>
          </Trackpoint>
          <Trackpoint>
            <Time>2019-10-05T11:22:23.000Z</Time>
            <Position>
              <LatitudeDegrees>41.99966154992580413818359375</LatitudeDegrees>
              <LongitudeDegrees>-5.67579567432403564453125</LongitudeDegrees>
            </Position>
            <AltitudeMeters>614.20001220703125</AltitudeMeters>
            <DistanceMeters>NAN</DistanceMeters>
          </Trackpoint>
          <Trackpoint>
            <Time>2019-10-05T11:22:26.000Z</Time>
            <Position>
              <LatitudeDegrees>41.9995336420834064483642578125</LatitudeDegrees>
              <LongitudeDegrees>-5.67589826881885528564453125</LongitudeDegrees>
            </Position>
            <AltitudeMeters>614</AltitudeMeters>
            <DistanceMeters>NAN</DistanceMeters>
          </Trackpoint>
          <Trackpoint>
            <Time>2019-10-05T11:22:33.000Z</Time>
            <Position>
              <LatitudeDegrees>41.9992104358971118927001953125</LatitudeDegrees>
              <LongitudeDegrees>-5.67614763043820858001708984375</LongitudeDegrees>
            </Position>
            <AltitudeMeters>613.20001220703125</AltitudeMeters>
            <DistanceMeters>NAN</DistanceMeters>
          </Trackpoint>
          <Trackpoint>
            <Time>2019-10-05T11:22:40.000Z</Time>
            <Position>
              <LatitudeDegrees>41.99887088499963283538818359375</LatitudeDegrees>
              <LongitudeDegrees>-5.6763855926692485809326171875</LongitudeDegrees>
            </Position>
            <AltitudeMeters>612.4000244140625</AltitudeMeters>
            <DistanceMeters>NAN</DistanceMeters>
          </Trackpoint>
          <Trackpoint>
            <Time>2019-10-05T11:22:41.000Z</Time>
            <Position>
              <LatitudeDegrees>41.99882327578961849212646484375</LatitudeDegrees>
              <LongitudeDegrees>-5.67641886882483959197998046875</LongitudeDegrees>
            </Position>
            <AltitudeMeters>612.20001220703125</AltitudeMeters>
            <DistanceMeters>NAN</DistanceMeters>
          </Trackpoint>
          <Trackpoint>
            <Time>2019-10-05T11:22:47.000Z</Time>
            <Position>
              <LatitudeDegrees>41.99856511317193508148193359375</LatitudeDegrees>
              <LongitudeDegrees>-5.67661534063518047332763671875</LongitudeDegrees>
            </Position>
            <AltitudeMeters>613</AltitudeMeters>
            <DistanceMeters>NAN</DistanceMeters>
          </Trackpoint>
          <Trackpoint>
            <Time>2019-10-05T11:22:50.000Z</Time>
            <Position>
              <LatitudeDegrees>41.99843653477728366851806640625</LatitudeDegrees>
              <LongitudeDegrees>-5.67671039141714572906494140625</LongitudeDegrees>
            </Position>
            <AltitudeMeters>612.4000244140625</AltitudeMeters>
            <DistanceMeters>NAN</DistanceMeters>
          </Trackpoint>
          <Trackpoint>
            <Time>2019-10-05T11:22:54.000Z</Time>
            <Position>
              <LatitudeDegrees>41.99827275238931179046630859375</LatitudeDegrees>
              <LongitudeDegrees>-5.67683813162147998809814453125</LongitudeDegrees>
            </Position>
            <AltitudeMeters>612.79998779296875</AltitudeMeters>
            <DistanceMeters>NAN</DistanceMeters>
          </Trackpoint>
          <Trackpoint>
            <Time>2019-10-05T11:22:55.000Z</Time>
            <Position>
              <LatitudeDegrees>41.9982341118156909942626953125</LatitudeDegrees>
              <LongitudeDegrees>-5.67686612717807292938232421875</LongitudeDegrees>
            </Position>
            <AltitudeMeters>613.20001220703125</AltitudeMeters>
            <DistanceMeters>NAN</DistanceMeters>
          </Trackpoint>
          <Trackpoint>
            <Time>2019-10-05T11:22:57.000Z</Time>
            <Position>
              <LatitudeDegrees>41.99815875850617885589599609375</LatitudeDegrees>
              <LongitudeDegrees>-5.67691641859710216522216796875</LongitudeDegrees>
            </Position>
            <AltitudeMeters>613</AltitudeMeters>
            <DistanceMeters>NAN</DistanceMeters>
          </Trackpoint>
          <Trackpoint>
            <Time>2019-10-05T11:23:02.000Z</Time>
            <Position>
              <LatitudeDegrees>41.99799095280468463897705078125</LatitudeDegrees>
              <LongitudeDegrees>-5.677035860717296600341796875</LongitudeDegrees>
            </Position>
            <AltitudeMeters>612.5999755859375</AltitudeMeters>
            <DistanceMeters>NAN</DistanceMeters>
          </Trackpoint>
          <Trackpoint>
            <Time>2019-10-05T11:23:04.000Z</Time>
            <Position>
              <LatitudeDegrees>41.997924484312534332275390625</LatitudeDegrees>
              <LongitudeDegrees>-5.67707399837672710418701171875</LongitudeDegrees>
            </Position>
            <AltitudeMeters>612.79998779296875</AltitudeMeters>
            <DistanceMeters>NAN</DistanceMeters>
          </Trackpoint>
          <Trackpoint>
            <Time>2019-10-05T11:23:07.000Z</Time>
            <Position>
              <LatitudeDegrees>41.997823230922222137451171875</LatitudeDegrees>
              <LongitudeDegrees>-5.67714340053498744964599609375</LongitudeDegrees>
            </Position>
            <AltitudeMeters>613</AltitudeMeters>
            <DistanceMeters>NAN</DistanceMeters>
          </Trackpoint>
          <Trackpoint>
            <Time>2019-10-05T11:23:10.000Z</Time>
            <Position>
              <LatitudeDegrees>41.9977144338190555572509765625</LatitudeDegrees>
              <LongitudeDegrees>-5.6772130541503429412841796875</LongitudeDegrees>
            </Position>
            <AltitudeMeters>612.79998779296875</AltitudeMeters>
            <DistanceMeters>NAN</DistanceMeters>
          </Trackpoint>
          <Trackpoint>
            <Time>2019-10-05T11:23:15.000Z</Time>
            <Position>
              <LatitudeDegrees>41.9975323788821697235107421875</LatitudeDegrees>
              <LongitudeDegrees>-5.677288658916950225830078125</LongitudeDegrees>
            </Position>
            <AltitudeMeters>612.79998779296875</AltitudeMeters>
            <DistanceMeters>NAN</DistanceMeters>
          </Trackpoint>
          <Trackpoint>
            <Time>2019-10-05T11:23:18.000Z</Time>
            <Position>
              <LatitudeDegrees>41.99739717878401279449462890625</LatitudeDegrees>
              <LongitudeDegrees>-5.67730483599007129669189453125</LongitudeDegrees>
            </Position>
            <AltitudeMeters>612.79998779296875</AltitudeMeters>
            <DistanceMeters>NAN</DistanceMeters>
          </Trackpoint>
          <Trackpoint>
            <Time>2019-10-05T11:23:20.000Z</Time>
            <Position>
              <LatitudeDegrees>41.997306905686855316162109375</LatitudeDegrees>
              <LongitudeDegrees>-5.67727633751928806304931640625</LongitudeDegrees>
            </Position>
            <AltitudeMeters>612.5999755859375</AltitudeMeters>
            <DistanceMeters>NAN</DistanceMeters>
          </Trackpoint>
          <Trackpoint>
            <Time>2019-10-05T11:23:21.000Z</Time>
            <Position>
              <LatitudeDegrees>41.99726021848618984222412109375</LatitudeDegrees>
              <LongitudeDegrees>-5.67727315239608287811279296875</LongitudeDegrees>
            </Position>
            <AltitudeMeters>612.4000244140625</AltitudeMeters>
            <DistanceMeters>NAN</DistanceMeters>
          </Trackpoint>
          <Trackpoint>
            <Time>2019-10-05T11:23:24.000Z</Time>
            <Position>
              <LatitudeDegrees>41.997126527130603790283203125</LatitudeDegrees>
              <LongitudeDegrees>-5.67732092924416065216064453125</LongitudeDegrees>
            </Position>
            <AltitudeMeters>612.4000244140625</AltitudeMeters>
            <DistanceMeters>NAN</DistanceMeters>
          </Trackpoint>
          <Trackpoint>
            <Time>2019-10-05T11:23:25.000Z</Time>
            <Position>
              <LatitudeDegrees>41.997082270681858062744140625</LatitudeDegrees>
              <LongitudeDegrees>-5.67733819596469402313232421875</LongitudeDegrees>
            </Position>
            <AltitudeMeters>612.4000244140625</AltitudeMeters>
            <DistanceMeters>NAN</DistanceMeters>
          </Trackpoint>
          <Trackpoint>
            <Time>2019-10-05T11:23:32.000Z</Time>
            <Position>
              <LatitudeDegrees>41.9967793487012386322021484375</LatitudeDegrees>
              <LongitudeDegrees>-5.67750331945717334747314453125</LongitudeDegrees>
            </Position>
            <AltitudeMeters>612.20001220703125</AltitudeMeters>
            <DistanceMeters>NAN</DistanceMeters>
          </Trackpoint>
          <Trackpoint>
            <Time>2019-10-05T11:23:40.000Z</Time>
            <Position>
              <LatitudeDegrees>41.99641607701778411865234375</LatitudeDegrees>
              <LongitudeDegrees>-5.67765922285616397857666015625</LongitudeDegrees>
            </Position>
            <AltitudeMeters>611.79998779296875</AltitudeMeters>
            <DistanceMeters>NAN</DistanceMeters>
          </Trackpoint>
          <Trackpoint>
            <Time>2019-10-05T11:23:42.000Z</Time>
            <Position>
              <LatitudeDegrees>41.9963361136615276336669921875</LatitudeDegrees>
              <LongitudeDegrees>-5.67769593559205532073974609375</LongitudeDegrees>
            </Position>
            <AltitudeMeters>611</AltitudeMeters>
            <DistanceMeters>NAN</DistanceMeters>
          </Trackpoint>
          <Trackpoint>
            <Time>2019-10-05T11:23:45.000Z</Time>
            <Position>
              <LatitudeDegrees>41.996204517781734466552734375</LatitudeDegrees>
              <LongitudeDegrees>-5.6777719594538211822509765625</LongitudeDegrees>
            </Position>
            <AltitudeMeters>610.79998779296875</AltitudeMeters>
            <DistanceMeters>NAN</DistanceMeters>
          </Trackpoint>
          <Trackpoint>
            <Time>2019-10-05T11:23:50.000Z</Time>
            <Position>
              <LatitudeDegrees>41.99598181061446666717529296875</LatitudeDegrees>
              <LongitudeDegrees>-5.67792325280606746673583984375</LongitudeDegrees>
            </Position>
            <AltitudeMeters>609.79998779296875</AltitudeMeters>
            <DistanceMeters>NAN</DistanceMeters>
          </Trackpoint>
          <Trackpoint>
            <Time>2019-10-05T11:23:53.000Z</Time>
            <Position>
              <LatitudeDegrees>41.99583864770829677581787109375</LatitudeDegrees>
              <LongitudeDegrees>-5.6779883801937103271484375</LongitudeDegrees>
            </Position>
            <AltitudeMeters>610</AltitudeMeters>
            <DistanceMeters>NAN</DistanceMeters>
          </Trackpoint>
          <Trackpoint>
            <Time>2019-10-05T11:23:55.000Z</Time>
            <Position>
              <LatitudeDegrees>41.99574544094502925872802734375</LatitudeDegrees>
              <LongitudeDegrees>-5.67803892306983470916748046875</LongitudeDegrees>
            </Position>
            <AltitudeMeters>610.20001220703125</AltitudeMeters>
            <DistanceMeters>NAN</DistanceMeters>
          </Trackpoint>
          <Trackpoint>
            <Time>2019-10-05T11:24:02.000Z</Time>
            <Position>
              <LatitudeDegrees>41.99541703797876834869384765625</LatitudeDegrees>
              <LongitudeDegrees>-5.67820228636264801025390625</LongitudeDegrees>
            </Position>
            <AltitudeMeters>610.4000244140625</AltitudeMeters>
            <DistanceMeters>NAN</DistanceMeters>
          </Trackpoint>
          <Trackpoint>
            <Time>2019-10-05T11:24:04.000Z</Time>
            <Position>
              <LatitudeDegrees>41.99532148428261280059814453125</LatitudeDegrees>
              <LongitudeDegrees>-5.678250230848789215087890625</LongitudeDegrees>
            </Position>
            <AltitudeMeters>610.5999755859375</AltitudeMeters>
            <DistanceMeters>NAN</DistanceMeters>
          </Trackpoint>
          <Trackpoint>
            <Time>2019-10-05T11:24:15.000Z</Time>
            <Position>
              <LatitudeDegrees>41.99479191564023494720458984375</LatitudeDegrees>
              <LongitudeDegrees>-5.6785162724554538726806640625</LongitudeDegrees>
            </Position>
            <AltitudeMeters>609.79998779296875</AltitudeMeters>
            <DistanceMeters>NAN</DistanceMeters>
          </Trackpoint>
          <Trackpoint>
            <Time>2019-10-05T11:24:24.000Z</Time>
            <Position>
              <LatitudeDegrees>41.99438254348933696746826171875</LatitudeDegrees>
              <LongitudeDegrees>-5.67873512394726276397705078125</LongitudeDegrees>
            </Position>
            <AltitudeMeters>609.5999755859375</AltitudeMeters>
            <DistanceMeters>NAN</DistanceMeters>
          </Trackpoint>
          <Trackpoint>
            <Time>2019-10-05T11:24:31.000Z</Time>
            <Position>
              <LatitudeDegrees>41.99412203393876552581787109375</LatitudeDegrees>
              <LongitudeDegrees>-5.6789588369429111480712890625</LongitudeDegrees>
            </Position>
            <AltitudeMeters>609.5999755859375</AltitudeMeters>
            <DistanceMeters>NAN</DistanceMeters>
          </Trackpoint>
          <Trackpoint>
            <Time>2019-10-05T11:24:33.000Z</Time>
            <Position>
              <LatitudeDegrees>41.9940550625324249267578125</LatitudeDegrees>
              <LongitudeDegrees>-5.67904273979365825653076171875</LongitudeDegrees>
            </Position>
            <AltitudeMeters>609.5999755859375</AltitudeMeters>
            <DistanceMeters>NAN</DistanceMeters>
          </Trackpoint>
          <Trackpoint>
            <Time>2019-10-05T11:24:38.000Z</Time>
            <Position>
              <LatitudeDegrees>41.9938976503908634185791015625</LatitudeDegrees>
              <LongitudeDegrees>-5.679281540215015411376953125</LongitudeDegrees>
            </Position>
            <AltitudeMeters>609.79998779296875</AltitudeMeters>
            <DistanceMeters>NAN</DistanceMeters>
          </Trackpoint>
          <Trackpoint>
            <Time>2019-10-05T11:24:45.000Z</Time>
            <Position>
              <LatitudeDegrees>41.99372020550072193145751953125</LatitudeDegrees>
              <LongitudeDegrees>-5.67969401367008686065673828125</LongitudeDegrees>
            </Position>
            <AltitudeMeters>610</AltitudeMeters>
            <DistanceMeters>NAN</DistanceMeters>
          </Trackpoint>
          <Trackpoint>
            <Time>2019-10-05T11:24:48.000Z</Time>
            <Position>
              <LatitudeDegrees>41.99366924352943897247314453125</LatitudeDegrees>
              <LongitudeDegrees>-5.67989584989845752716064453125</LongitudeDegrees>
            </Position>
            <AltitudeMeters>610</AltitudeMeters>
            <DistanceMeters>NAN</DistanceMeters>
          </Trackpoint>
          <Trackpoint>
            <Time>2019-10-05T11:24:51.000Z</Time>
            <Position>
              <LatitudeDegrees>41.99364493601024150848388671875</LatitudeDegrees>
              <LongitudeDegrees>-5.68010422401130199432373046875</LongitudeDegrees>
            </Position>
            <AltitudeMeters>610</AltitudeMeters>
            <DistanceMeters>NAN</DistanceMeters>
          </Trackpoint>
          <Trackpoint>
            <Time>2019-10-05T11:24:59.000Z</Time>
            <Position>
              <LatitudeDegrees>41.99363303370773792266845703125</LatitudeDegrees>
              <LongitudeDegrees>-5.6806603632867336273193359375</LongitudeDegrees>
            </Position>
            <AltitudeMeters>609.5999755859375</AltitudeMeters>
            <DistanceMeters>NAN</DistanceMeters>
          </Trackpoint>
          <Trackpoint>
            <Time>2019-10-05T11:25:07.000Z</Time>
            <Position>
              <LatitudeDegrees>41.99372582137584686279296875</LatitudeDegrees>
              <LongitudeDegrees>-5.68118129856884479522705078125</LongitudeDegrees>
            </Position>
            <AltitudeMeters>610.20001220703125</AltitudeMeters>
            <DistanceMeters>NAN</DistanceMeters>
          </Trackpoint>
          <Trackpoint>
            <Time>2019-10-05T11:25:08.000Z</Time>
            <Position>
              <LatitudeDegrees>41.99374535121023654937744140625</LatitudeDegrees>
              <LongitudeDegrees>-5.68123980425298213958740234375</LongitudeDegrees>
            </Position>
            <AltitudeMeters>609.79998779296875</AltitudeMeters>
            <DistanceMeters>NAN</DistanceMeters>
          </Trackpoint>
          <Trackpoint>
            <Time>2019-10-05T11:25:13.000Z</Time>
            <Position>
              <LatitudeDegrees>41.99384442530572414398193359375</LatitudeDegrees>
              <LongitudeDegrees>-5.68154658190906047821044921875</LongitudeDegrees>
            </Position>
            <AltitudeMeters>609.4000244140625</AltitudeMeters>
            <DistanceMeters>NAN</DistanceMeters>
          </Trackpoint>
          <Trackpoint>
            <Time>2019-10-05T11:25:22.000Z</Time>
            <Position>
              <LatitudeDegrees>41.99401675723493099212646484375</LatitudeDegrees>
              <LongitudeDegrees>-5.68209827877581119537353515625</LongitudeDegrees>
            </Position>
            <AltitudeMeters>609.5999755859375</AltitudeMeters>
            <DistanceMeters>NAN</DistanceMeters>
          </Trackpoint>
          <Trackpoint>
            <Time>2019-10-05T11:25:26.000Z</Time>
            <Position>
              <LatitudeDegrees>41.99406922794878482818603515625</LatitudeDegrees>
              <LongitudeDegrees>-5.6822837702929973602294921875</LongitudeDegrees>
            </Position>
            <AltitudeMeters>610</AltitudeMeters>
            <DistanceMeters>NAN</DistanceMeters>
          </Trackpoint>
          <Trackpoint>
            <Time>2019-10-05T11:25:32.000Z</Time>
            <Position>
              <LatitudeDegrees>41.99415237642824649810791015625</LatitudeDegrees>
              <LongitudeDegrees>-5.6825831718742847442626953125</LongitudeDegrees>
            </Position>
            <AltitudeMeters>610.5999755859375</AltitudeMeters>
            <DistanceMeters>NAN</DistanceMeters>
          </Trackpoint>
          <Trackpoint>
            <Time>2019-10-05T11:25:39.000Z</Time>
            <Position>
              <LatitudeDegrees>41.99428162537515163421630859375</LatitudeDegrees>
              <LongitudeDegrees>-5.68301551043987274169921875</LongitudeDegrees>
            </Position>
            <AltitudeMeters>610</AltitudeMeters>
            <DistanceMeters>NAN</DistanceMeters>
          </Trackpoint>
          <Trackpoint>
            <Time>2019-10-05T11:25:43.000Z</Time>
            <Position>
              <LatitudeDegrees>41.9943355210125446319580078125</LatitudeDegrees>
              <LongitudeDegrees>-5.6831900216639041900634765625</LongitudeDegrees>
            </Position>
            <AltitudeMeters>610</AltitudeMeters>
            <DistanceMeters>NAN</DistanceMeters>
          </Trackpoint>
          <Trackpoint>
            <Time>2019-10-05T11:25:45.000Z</Time>
            <Position>
              <LatitudeDegrees>41.99440182186663150787353515625</LatitudeDegrees>
              <LongitudeDegrees>-5.68330250680446624755859375</LongitudeDegrees>
            </Position>
            <AltitudeMeters>609.20001220703125</AltitudeMeters>
            <DistanceMeters>NAN</DistanceMeters>
          </Trackpoint>
          <Trackpoint>
            <Time>2019-10-05T11:25:49.000Z</Time>
            <Position>
              <LatitudeDegrees>41.994477845728397369384765625</LatitudeDegrees>
              <LongitudeDegrees>-5.683535523712635040283203125</LongitudeDegrees>
            </Position>
            <AltitudeMeters>609.5999755859375</AltitudeMeters>
            <DistanceMeters>NAN</DistanceMeters>
          </Trackpoint>
          <Trackpoint>
            <Time>2019-10-05T11:25:50.000Z</Time>
            <Position>
              <LatitudeDegrees>41.99450039304792881011962890625</LatitudeDegrees>
              <LongitudeDegrees>-5.683597885072231292724609375</LongitudeDegrees>
            </Position>
            <AltitudeMeters>609.5999755859375</AltitudeMeters>
            <DistanceMeters>NAN</DistanceMeters>
          </Trackpoint>
          <Trackpoint>
            <Time>2019-10-05T11:25:59.000Z</Time>
            <Position>
              <LatitudeDegrees>41.99467624537646770477294921875</LatitudeDegrees>
              <LongitudeDegrees>-5.6841695308685302734375</LongitudeDegrees>
            </Position>
            <AltitudeMeters>609.79998779296875</AltitudeMeters>
            <DistanceMeters>NAN</DistanceMeters>
          </Trackpoint>
          <Trackpoint>
            <Time>2019-10-05T11:26:08.000Z</Time>
            <Position>
              <LatitudeDegrees>41.99480080045759677886962890625</LatitudeDegrees>
              <LongitudeDegrees>-5.684703290462493896484375</LongitudeDegrees>
            </Position>
            <AltitudeMeters>609.79998779296875</AltitudeMeters>
            <DistanceMeters>NAN</DistanceMeters>
          </Trackpoint>
          <Trackpoint>
            <Time>2019-10-05T11:26:15.000Z</Time>
            <Position>
              <LatitudeDegrees>41.994914710521697998046875</LatitudeDegrees>
              <LongitudeDegrees>-5.6850655563175678253173828125</LongitudeDegrees>
            </Position>
            <AltitudeMeters>610.4000244140625</AltitudeMeters>
            <DistanceMeters>NAN</DistanceMeters>
          </Trackpoint>
          <Trackpoint>
            <Time>2019-10-05T11:26:18.000Z</Time>
            <Position>
              <LatitudeDegrees>41.99491999112069606781005859375</LatitudeDegrees>
              <LongitudeDegrees>-5.68507678806781768798828125</LongitudeDegrees>
            </Position>
            <AltitudeMeters>611.4000244140625</AltitudeMeters>
            <DistanceMeters>NAN</DistanceMeters>
          </Trackpoint>
          <Trackpoint>
            <Time>2019-10-05T11:26:33.000Z</Time>
            <Position>
              <LatitudeDegrees>41.994921751320362091064453125</LatitudeDegrees>
              <LongitudeDegrees>-5.68507905118167400360107421875</LongitudeDegrees>
            </Position>
            <AltitudeMeters>611</AltitudeMeters>
            <DistanceMeters>NAN</DistanceMeters>
          </Trackpoint>
          <Trackpoint>
            <Time>2019-10-05T11:26:38.000Z</Time>
            <Position>
              <LatitudeDegrees>41.994921751320362091064453125</LatitudeDegrees>
              <LongitudeDegrees>-5.68507905118167400360107421875</LongitudeDegrees>
            </Position>
            <AltitudeMeters>610.79998779296875</AltitudeMeters>
            <DistanceMeters>NAN</DistanceMeters>
          </Trackpoint>
          <Trackpoint>
            <Time>2019-10-05T11:26:47.000Z</Time>
            <Position>
              <LatitudeDegrees>41.994921751320362091064453125</LatitudeDegrees>
              <LongitudeDegrees>-5.68507905118167400360107421875</LongitudeDegrees>
            </Position>
            <AltitudeMeters>611</AltitudeMeters>
            <DistanceMeters>NAN</DistanceMeters>
          </Trackpoint>
          <Trackpoint>
            <Time>2019-10-05T11:26:50.000Z</Time>
            <Position>
              <LatitudeDegrees>41.994921751320362091064453125</LatitudeDegrees>
              <LongitudeDegrees>-5.68507905118167400360107421875</LongitudeDegrees>
            </Position>
            <AltitudeMeters>611</AltitudeMeters>
            <DistanceMeters>NAN</DistanceMeters>
          </Trackpoint>
          <Trackpoint>
            <Time>2019-10-05T11:26:56.000Z</Time>
            <Position>
              <LatitudeDegrees>41.994921751320362091064453125</LatitudeDegrees>
              <LongitudeDegrees>-5.68507905118167400360107421875</LongitudeDegrees>
            </Position>
            <AltitudeMeters>611</AltitudeMeters>
            <DistanceMeters>NAN</DistanceMeters>
          </Trackpoint>
          <Trackpoint>
            <Time>2019-10-05T11:26:57.000Z</Time>
            <Position>
              <LatitudeDegrees>41.99492334388196468353271484375</LatitudeDegrees>
              <LongitudeDegrees>-5.68507871590554714202880859375</LongitudeDegrees>
            </Position>
            <AltitudeMeters>611</AltitudeMeters>
            <DistanceMeters>NAN</DistanceMeters>
          </Trackpoint>
          <Trackpoint>
            <Time>2019-10-05T11:26:58.000Z</Time>
            <Position>
              <LatitudeDegrees>41.99492334388196468353271484375</LatitudeDegrees>
              <LongitudeDegrees>-5.68507871590554714202880859375</LongitudeDegrees>
            </Position>
            <AltitudeMeters>611</AltitudeMeters>
            <DistanceMeters>NAN</DistanceMeters>
          </Trackpoint>
          <Trackpoint>
            <Time>2019-10-05T11:27:00.000Z</Time>
            <Position>
              <LatitudeDegrees>41.99492334388196468353271484375</LatitudeDegrees>
              <LongitudeDegrees>-5.68507871590554714202880859375</LongitudeDegrees>
            </Position>
            <AltitudeMeters>610.79998779296875</AltitudeMeters>
            <DistanceMeters>NAN</DistanceMeters>
          </Trackpoint>
          <Trackpoint>
            <Time>2019-10-05T11:27:01.000Z</Time>
            <Position>
              <LatitudeDegrees>41.99492334388196468353271484375</LatitudeDegrees>
              <LongitudeDegrees>-5.68507871590554714202880859375</LongitudeDegrees>
            </Position>
            <AltitudeMeters>611</AltitudeMeters>
            <DistanceMeters>NAN</DistanceMeters>
          </Trackpoint>
          <Trackpoint>
            <Time>2019-10-05T11:27:04.000Z</Time>
            <Position>
              <LatitudeDegrees>41.99492334388196468353271484375</LatitudeDegrees>
              <LongitudeDegrees>-5.68507871590554714202880859375</LongitudeDegrees>
            </Position>
            <AltitudeMeters>610.79998779296875</AltitudeMeters>
            <DistanceMeters>NAN</DistanceMeters>
          </Trackpoint>
          <Trackpoint>
            <Time>2019-10-05T11:27:07.000Z</Time>
            <Position>
              <LatitudeDegrees>41.99492334388196468353271484375</LatitudeDegrees>
              <LongitudeDegrees>-5.68507871590554714202880859375</LongitudeDegrees>
            </Position>
            <AltitudeMeters>611</AltitudeMeters>
            <DistanceMeters>NAN</DistanceMeters>
          </Trackpoint>
          <Trackpoint>
            <Time>2019-10-05T11:27:13.000Z</Time>
            <Position>
              <LatitudeDegrees>41.99492334388196468353271484375</LatitudeDegrees>
              <LongitudeDegrees>-5.68507871590554714202880859375</LongitudeDegrees>
            </Position>
            <AltitudeMeters>611</AltitudeMeters>
            <DistanceMeters>NAN</DistanceMeters>
          </Trackpoint>
          <Trackpoint>
            <Time>2019-10-05T11:27:16.000Z</Time>
            <Position>
              <LatitudeDegrees>41.99492334388196468353271484375</LatitudeDegrees>
              <LongitudeDegrees>-5.68507871590554714202880859375</LongitudeDegrees>
            </Position>
            <AltitudeMeters>610.79998779296875</AltitudeMeters>
            <DistanceMeters>NAN</DistanceMeters>
          </Trackpoint>
          <Trackpoint>
            <Time>2019-10-05T11:27:18.000Z</Time>
            <Position>
              <LatitudeDegrees>41.99492334388196468353271484375</LatitudeDegrees>
              <LongitudeDegrees>-5.68507871590554714202880859375</LongitudeDegrees>
            </Position>
            <AltitudeMeters>610.79998779296875</AltitudeMeters>
            <DistanceMeters>NAN</DistanceMeters>
          </Trackpoint>
          <Trackpoint>
            <Time>2019-10-05T11:27:21.000Z</Time>
            <Position>
              <LatitudeDegrees>41.99492334388196468353271484375</LatitudeDegrees>
              <LongitudeDegrees>-5.68507871590554714202880859375</LongitudeDegrees>
            </Position>
            <AltitudeMeters>610.79998779296875</AltitudeMeters>
            <DistanceMeters>NAN</DistanceMeters>
          </Trackpoint>
          <Trackpoint>
            <Time>2019-10-05T11:27:33.000Z</Time>
            <Position>
              <LatitudeDegrees>41.99492334388196468353271484375</LatitudeDegrees>
              <LongitudeDegrees>-5.68507871590554714202880859375</LongitudeDegrees>
            </Position>
            <AltitudeMeters>611</AltitudeMeters>
            <DistanceMeters>NAN</DistanceMeters>
          </Trackpoint>
          <Trackpoint>
            <Time>2019-10-05T11:27:55.000Z</Time>
            <Position>
              <LatitudeDegrees>41.99492552317678928375244140625</LatitudeDegrees>
              <LongitudeDegrees>-5.6850819848477840423583984375</LongitudeDegrees>
            </Position>
            <AltitudeMeters>611</AltitudeMeters>
            <DistanceMeters>NAN</DistanceMeters>
          </Trackpoint>
          <Trackpoint>
            <Time>2019-10-05T11:27:56.000Z</Time>
            <Position>
              <LatitudeDegrees>41.99492552317678928375244140625</LatitudeDegrees>
              <LongitudeDegrees>-5.6850819848477840423583984375</LongitudeDegrees>
            </Position>
            <AltitudeMeters>611</AltitudeMeters>
            <DistanceMeters>NAN</DistanceMeters>
          </Trackpoint>
          <Trackpoint>
            <Time>2019-10-05T11:28:18.000Z</Time>
            <Position>
              <LatitudeDegrees>41.994926445186138153076171875</LatitudeDegrees>
              <LongitudeDegrees>-5.68508273921906948089599609375</LongitudeDegrees>
            </Position>
            <AltitudeMeters>611.20001220703125</AltitudeMeters>
            <DistanceMeters>NAN</DistanceMeters>
          </Trackpoint>
          <Trackpoint>
            <Time>2019-10-05T11:28:21.000Z</Time>
            <Position>
              <LatitudeDegrees>41.994926445186138153076171875</LatitudeDegrees>
              <LongitudeDegrees>-5.68508273921906948089599609375</LongitudeDegrees>
            </Position>
            <AltitudeMeters>611.20001220703125</AltitudeMeters>
            <DistanceMeters>NAN</DistanceMeters>
          </Trackpoint>
          <Trackpoint>
            <Time>2019-10-05T11:28:41.000Z</Time>
            <Position>
              <LatitudeDegrees>41.994926445186138153076171875</LatitudeDegrees>
              <LongitudeDegrees>-5.68508273921906948089599609375</LongitudeDegrees>
            </Position>
            <AltitudeMeters>611.4000244140625</AltitudeMeters>
            <DistanceMeters>NAN</DistanceMeters>
          </Trackpoint>
          <Trackpoint>
            <Time>2019-10-05T11:28:48.000Z</Time>
            <Position>
              <LatitudeDegrees>41.994926445186138153076171875</LatitudeDegrees>
              <LongitudeDegrees>-5.68508273921906948089599609375</LongitudeDegrees>
            </Position>
            <AltitudeMeters>611.20001220703125</AltitudeMeters>
            <DistanceMeters>NAN</DistanceMeters>
          </Trackpoint>
          <Trackpoint>
            <Time>2019-10-05T11:28:50.000Z</Time>
            <Position>
              <LatitudeDegrees>41.994926445186138153076171875</LatitudeDegrees>
              <LongitudeDegrees>-5.68508273921906948089599609375</LongitudeDegrees>
            </Position>
            <AltitudeMeters>611.20001220703125</AltitudeMeters>
            <DistanceMeters>NAN</DistanceMeters>
          </Trackpoint>
          <Trackpoint>
            <Time>2019-10-05T11:29:04.000Z</Time>
            <Position>
              <LatitudeDegrees>41.99492745101451873779296875</LatitudeDegrees>
              <LongitudeDegrees>-5.68508173339068889617919921875</LongitudeDegrees>
            </Position>
            <AltitudeMeters>611.20001220703125</AltitudeMeters>
            <DistanceMeters>NAN</DistanceMeters>
          </Trackpoint>
          <Trackpoint>
            <Time>2019-10-05T11:29:25.000Z</Time>
            <Position>
              <LatitudeDegrees>41.99492745101451873779296875</LatitudeDegrees>
              <LongitudeDegrees>-5.68508173339068889617919921875</LongitudeDegrees>
            </Position>
            <AltitudeMeters>611</AltitudeMeters>
            <DistanceMeters>NAN</DistanceMeters>
          </Trackpoint>
          <Trackpoint>
            <Time>2019-10-05T11:29:43.000Z</Time>
            <Position>
              <LatitudeDegrees>41.994929127395153045654296875</LatitudeDegrees>
              <LongitudeDegrees>-5.68508349359035491943359375</LongitudeDegrees>
            </Position>
            <AltitudeMeters>611.5999755859375</AltitudeMeters>
            <DistanceMeters>NAN</DistanceMeters>
          </Trackpoint>
          <Trackpoint>
            <Time>2019-10-05T11:29:47.000Z</Time>
            <Position>
              <LatitudeDegrees>41.994929127395153045654296875</LatitudeDegrees>
              <LongitudeDegrees>-5.68508349359035491943359375</LongitudeDegrees>
            </Position>
            <AltitudeMeters>611.20001220703125</AltitudeMeters>
            <DistanceMeters>NAN</DistanceMeters>
          </Trackpoint>
          <Trackpoint>
            <Time>2019-10-05T11:29:49.000Z</Time>
            <Position>
              <LatitudeDegrees>41.994929127395153045654296875</LatitudeDegrees>
              <LongitudeDegrees>-5.68508349359035491943359375</LongitudeDegrees>
            </Position>
            <AltitudeMeters>611</AltitudeMeters>
            <DistanceMeters>NAN</DistanceMeters>
          </Trackpoint>
          <Trackpoint>
            <Time>2019-10-05T11:29:50.000Z</Time>
            <Position>
              <LatitudeDegrees>41.994929127395153045654296875</LatitudeDegrees>
              <LongitudeDegrees>-5.68508349359035491943359375</LongitudeDegrees>
            </Position>
            <AltitudeMeters>611.20001220703125</AltitudeMeters>
            <DistanceMeters>NAN</DistanceMeters>
          </Trackpoint>
          <Trackpoint>
            <Time>2019-10-05T11:29:56.000Z</Time>
            <Position>
              <LatitudeDegrees>41.994929127395153045654296875</LatitudeDegrees>
              <LongitudeDegrees>-5.68508349359035491943359375</LongitudeDegrees>
            </Position>
            <AltitudeMeters>611.20001220703125</AltitudeMeters>
            <DistanceMeters>NAN</DistanceMeters>
          </Trackpoint>
          <Trackpoint>
            <Time>2019-10-05T11:30:03.000Z</Time>
            <Position>
              <LatitudeDegrees>41.994929127395153045654296875</LatitudeDegrees>
              <LongitudeDegrees>-5.68508349359035491943359375</LongitudeDegrees>
            </Position>
            <AltitudeMeters>611</AltitudeMeters>
            <DistanceMeters>NAN</DistanceMeters>
          </Trackpoint>
          <Trackpoint>
            <Time>2019-10-05T11:30:09.000Z</Time>
            <Position>
              <LatitudeDegrees>41.994929127395153045654296875</LatitudeDegrees>
              <LongitudeDegrees>-5.68508349359035491943359375</LongitudeDegrees>
            </Position>
            <AltitudeMeters>611.20001220703125</AltitudeMeters>
            <DistanceMeters>NAN</DistanceMeters>
          </Trackpoint>
          <Trackpoint>
            <Time>2019-10-05T11:30:15.000Z</Time>
            <Position>
              <LatitudeDegrees>41.994929127395153045654296875</LatitudeDegrees>
              <LongitudeDegrees>-5.68508349359035491943359375</LongitudeDegrees>
            </Position>
            <AltitudeMeters>611.4000244140625</AltitudeMeters>
            <DistanceMeters>NAN</DistanceMeters>
          </Trackpoint>
          <Trackpoint>
            <Time>2019-10-05T11:30:18.000Z</Time>
            <Position>
              <LatitudeDegrees>41.99492787010967731475830078125</LatitudeDegrees>
              <LongitudeDegrees>-5.6850829906761646270751953125</LongitudeDegrees>
            </Position>
            <AltitudeMeters>611.4000244140625</AltitudeMeters>
            <DistanceMeters>NAN</DistanceMeters>
          </Trackpoint>
          <Trackpoint>
            <Time>2019-10-05T11:30:30.000Z</Time>
            <Position>
              <LatitudeDegrees>41.9949240982532501220703125</LatitudeDegrees>
              <LongitudeDegrees>-5.685091204941272735595703125</LongitudeDegrees>
            </Position>
            <AltitudeMeters>611.20001220703125</AltitudeMeters>
            <DistanceMeters>NAN</DistanceMeters>
          </Trackpoint>
          <Trackpoint>
            <Time>2019-10-05T11:30:36.000Z</Time>
            <Position>
              <LatitudeDegrees>41.99492049403488636016845703125</LatitudeDegrees>
              <LongitudeDegrees>-5.68509615026414394378662109375</LongitudeDegrees>
            </Position>
            <AltitudeMeters>611.4000244140625</AltitudeMeters>
            <DistanceMeters>NAN</DistanceMeters>
          </Trackpoint>
          <Trackpoint>
            <Time>2019-10-05T11:30:39.000Z</Time>
            <Position>
              <LatitudeDegrees>41.9949212484061717987060546875</LatitudeDegrees>
              <LongitudeDegrees>-5.68514443002641201019287109375</LongitudeDegrees>
            </Position>
            <AltitudeMeters>611</AltitudeMeters>
            <DistanceMeters>NAN</DistanceMeters>
          </Trackpoint>
          <Trackpoint>
            <Time>2019-10-05T11:30:41.000Z</Time>
            <Position>
              <LatitudeDegrees>41.99490993283689022064208984375</LatitudeDegrees>
              <LongitudeDegrees>-5.685202516615390777587890625</LongitudeDegrees>
            </Position>
            <AltitudeMeters>611</AltitudeMeters>
            <DistanceMeters>NAN</DistanceMeters>
          </Trackpoint>
          <Trackpoint>
            <Time>2019-10-05T11:30:42.000Z</Time>
            <Position>
              <LatitudeDegrees>41.9948806799948215484619140625</LatitudeDegrees>
              <LongitudeDegrees>-5.6852046959102153778076171875</LongitudeDegrees>
            </Position>
            <AltitudeMeters>611.20001220703125</AltitudeMeters>
            <DistanceMeters>NAN</DistanceMeters>
          </Trackpoint>
          <Trackpoint>
            <Time>2019-10-05T11:30:43.000Z</Time>
            <Position>
              <LatitudeDegrees>41.99486215598881244659423828125</LatitudeDegrees>
              <LongitudeDegrees>-5.68517829291522502899169921875</LongitudeDegrees>
            </Position>
            <AltitudeMeters>610.4000244140625</AltitudeMeters>
            <DistanceMeters>NAN</DistanceMeters>
          </Trackpoint>
          <Trackpoint>
            <Time>2019-10-05T11:30:44.000Z</Time>
            <Position>
              <LatitudeDegrees>41.99484832584857940673828125</LatitudeDegrees>
              <LongitudeDegrees>-5.68513923324644565582275390625</LongitudeDegrees>
            </Position>
            <AltitudeMeters>611</AltitudeMeters>
            <DistanceMeters>NAN</DistanceMeters>
          </Trackpoint>
          <Trackpoint>
            <Time>2019-10-05T11:30:46.000Z</Time>
            <Position>
              <LatitudeDegrees>41.9948203302919864654541015625</LatitudeDegrees>
              <LongitudeDegrees>-5.6850518099963665008544921875</LongitudeDegrees>
            </Position>
            <AltitudeMeters>611</AltitudeMeters>
            <DistanceMeters>NAN</DistanceMeters>
          </Trackpoint>
          <Trackpoint>
            <Time>2019-10-05T11:30:48.000Z</Time>
            <Position>
              <LatitudeDegrees>41.99479241855442523956298828125</LatitudeDegrees>
              <LongitudeDegrees>-5.68495885469019412994384765625</LongitudeDegrees>
            </Position>
            <AltitudeMeters>610.5999755859375</AltitudeMeters>
            <DistanceMeters>NAN</DistanceMeters>
          </Trackpoint>
          <Trackpoint>
            <Time>2019-10-05T11:30:50.000Z</Time>
            <Position>
              <LatitudeDegrees>41.99476257897913455963134765625</LatitudeDegrees>
              <LongitudeDegrees>-5.68486355245113372802734375</LongitudeDegrees>
            </Position>
            <AltitudeMeters>611</AltitudeMeters>
            <DistanceMeters>NAN</DistanceMeters>
          </Trackpoint>
          <Trackpoint>
            <Time>2019-10-05T11:30:58.000Z</Time>
            <Position>
              <LatitudeDegrees>41.994646154344081878662109375</LatitudeDegrees>
              <LongitudeDegrees>-5.684449486434459686279296875</LongitudeDegrees>
            </Position>
            <AltitudeMeters>610.79998779296875</AltitudeMeters>
            <DistanceMeters>NAN</DistanceMeters>
          </Trackpoint>
          <Trackpoint>
            <Time>2019-10-05T11:31:05.000Z</Time>
            <Position>
              <LatitudeDegrees>41.99453073553740978240966796875</LatitudeDegrees>
              <LongitudeDegrees>-5.68408529274165630340576171875</LongitudeDegrees>
            </Position>
            <AltitudeMeters>611</AltitudeMeters>
            <DistanceMeters>NAN</DistanceMeters>
          </Trackpoint>
          <Trackpoint>
            <Time>2019-10-05T11:31:10.000Z</Time>
            <Position>
              <LatitudeDegrees>41.9944386184215545654296875</LatitudeDegrees>
              <LongitudeDegrees>-5.6838287226855754852294921875</LongitudeDegrees>
            </Position>
            <AltitudeMeters>610.79998779296875</AltitudeMeters>
            <DistanceMeters>NAN</DistanceMeters>
          </Trackpoint>
          <Trackpoint>
            <Time>2019-10-05T11:31:14.000Z</Time>
            <Position>
              <LatitudeDegrees>41.99435890652239322662353515625</LatitudeDegrees>
              <LongitudeDegrees>-5.68363049067556858062744140625</LongitudeDegrees>
            </Position>
            <AltitudeMeters>611.4000244140625</AltitudeMeters>
            <DistanceMeters>NAN</DistanceMeters>
          </Trackpoint>
          <Trackpoint>
            <Time>2019-10-05T11:31:19.000Z</Time>
            <Position>
              <LatitudeDegrees>41.9942496903240680694580078125</LatitudeDegrees>
              <LongitudeDegrees>-5.68338456563651561737060546875</LongitudeDegrees>
            </Position>
            <AltitudeMeters>612</AltitudeMeters>
            <DistanceMeters>NAN</DistanceMeters>
          </Trackpoint>
          <Trackpoint>
            <Time>2019-10-05T11:31:20.000Z</Time>
            <Position>
              <LatitudeDegrees>41.99422529898583889007568359375</LatitudeDegrees>
              <LongitudeDegrees>-5.6833341903984546661376953125</LongitudeDegrees>
            </Position>
            <AltitudeMeters>612.4000244140625</AltitudeMeters>
            <DistanceMeters>NAN</DistanceMeters>
          </Trackpoint>
          <Trackpoint>
            <Time>2019-10-05T11:31:22.000Z</Time>
            <Position>
              <LatitudeDegrees>41.99418640695512294769287109375</LatitudeDegrees>
              <LongitudeDegrees>-5.68324475549161434173583984375</LongitudeDegrees>
            </Position>
            <AltitudeMeters>612.4000244140625</AltitudeMeters>
            <DistanceMeters>NAN</DistanceMeters>
          </Trackpoint>
          <Trackpoint>
            <Time>2019-10-05T11:31:25.000Z</Time>
            <Position>
              <LatitudeDegrees>41.994122453033924102783203125</LatitudeDegrees>
              <LongitudeDegrees>-5.6830991618335247039794921875</LongitudeDegrees>
            </Position>
            <AltitudeMeters>612.5999755859375</AltitudeMeters>
            <DistanceMeters>NAN</DistanceMeters>
          </Trackpoint>
          <Trackpoint>
            <Time>2019-10-05T11:31:32.000Z</Time>
            <Position>
              <LatitudeDegrees>41.9939477741718292236328125</LatitudeDegrees>
              <LongitudeDegrees>-5.6827380694448947906494140625</LongitudeDegrees>
            </Position>
            <AltitudeMeters>613</AltitudeMeters>
            <DistanceMeters>NAN</DistanceMeters>
          </Trackpoint>
          <Trackpoint>
            <Time>2019-10-05T11:31:33.000Z</Time>
            <Position>
              <LatitudeDegrees>41.9939345307648181915283203125</LatitudeDegrees>
              <LongitudeDegrees>-5.682708062231540679931640625</LongitudeDegrees>
            </Position>
            <AltitudeMeters>613</AltitudeMeters>
            <DistanceMeters>NAN</DistanceMeters>
          </Trackpoint>
          <Trackpoint>
            <Time>2019-10-05T11:31:35.000Z</Time>
            <Position>
              <LatitudeDegrees>41.99388884939253330230712890625</LatitudeDegrees>
              <LongitudeDegrees>-5.6826103292405605316162109375</LongitudeDegrees>
            </Position>
            <AltitudeMeters>613.5999755859375</AltitudeMeters>
            <DistanceMeters>NAN</DistanceMeters>
          </Trackpoint>
          <Trackpoint>
            <Time>2019-10-05T11:31:43.000Z</Time>
            <Position>
              <LatitudeDegrees>41.993704028427600860595703125</LatitudeDegrees>
              <LongitudeDegrees>-5.68222618661820888519287109375</LongitudeDegrees>
            </Position>
            <AltitudeMeters>614.5999755859375</AltitudeMeters>
            <DistanceMeters>NAN</DistanceMeters>
          </Trackpoint>
          <Trackpoint>
            <Time>2019-10-05T11:31:44.000Z</Time>
            <Position>
              <LatitudeDegrees>41.9936824031174182891845703125</LatitudeDegrees>
              <LongitudeDegrees>-5.6821774877607822418212890625</LongitudeDegrees>
            </Position>
            <AltitudeMeters>614.5999755859375</AltitudeMeters>
            <DistanceMeters>NAN</DistanceMeters>
          </Trackpoint>
          <Trackpoint>
            <Time>2019-10-05T11:31:47.000Z</Time>
            <Position>
              <LatitudeDegrees>41.993618197739124298095703125</LatitudeDegrees>
              <LongitudeDegrees>-5.6820440478622913360595703125</LongitudeDegrees>
            </Position>
            <AltitudeMeters>614.4000244140625</AltitudeMeters>
            <DistanceMeters>NAN</DistanceMeters>
          </Trackpoint>
          <Trackpoint>
            <Time>2019-10-05T11:31:51.000Z</Time>
            <Position>
              <LatitudeDegrees>41.99353479780256748199462890625</LatitudeDegrees>
              <LongitudeDegrees>-5.68186157383024692535400390625</LongitudeDegrees>
            </Position>
            <AltitudeMeters>615.20001220703125</AltitudeMeters>
            <DistanceMeters>NAN</DistanceMeters>
          </Trackpoint>
          <Trackpoint>
            <Time>2019-10-05T11:31:54.000Z</Time>
            <Position>
              <LatitudeDegrees>41.993470005691051483154296875</LatitudeDegrees>
              <LongitudeDegrees>-5.68172612227499485015869140625</LongitudeDegrees>
            </Position>
            <AltitudeMeters>615.79998779296875</AltitudeMeters>
            <DistanceMeters>NAN</DistanceMeters>
          </Trackpoint>
          <Trackpoint>
            <Time>2019-10-05T11:31:57.000Z</Time>
            <Position>
              <LatitudeDegrees>41.9934044592082500457763671875</LatitudeDegrees>
              <LongitudeDegrees>-5.68158279173076152801513671875</LongitudeDegrees>
            </Position>
            <AltitudeMeters>616.4000244140625</AltitudeMeters>
            <DistanceMeters>NAN</DistanceMeters>
          </Trackpoint>
          <Trackpoint>
            <Time>2019-10-05T11:31:59.000Z</Time>
            <Position>
              <LatitudeDegrees>41.99335911311209201812744140625</LatitudeDegrees>
              <LongitudeDegrees>-5.68148975260555744171142578125</LongitudeDegrees>
            </Position>
            <AltitudeMeters>616.5999755859375</AltitudeMeters>
            <DistanceMeters>NAN</DistanceMeters>
          </Trackpoint>
          <Trackpoint>
            <Time>2019-10-05T11:32:02.000Z</Time>
            <Position>
              <LatitudeDegrees>41.99329197406768798828125</LatitudeDegrees>
              <LongitudeDegrees>-5.68134876899421215057373046875</LongitudeDegrees>
            </Position>
            <AltitudeMeters>616.79998779296875</AltitudeMeters>
            <DistanceMeters>NAN</DistanceMeters>
          </Trackpoint>
          <Trackpoint>
            <Time>2019-10-05T11:32:09.000Z</Time>
            <Position>
              <LatitudeDegrees>41.9931385852396488189697265625</LatitudeDegrees>
              <LongitudeDegrees>-5.681021623313426971435546875</LongitudeDegrees>
            </Position>
            <AltitudeMeters>617.5999755859375</AltitudeMeters>
            <DistanceMeters>NAN</DistanceMeters>
          </Trackpoint>
          <Trackpoint>
            <Time>2019-10-05T11:32:13.000Z</Time>
            <Position>
              <LatitudeDegrees>41.99304814450442790985107421875</LatitudeDegrees>
              <LongitudeDegrees>-5.680828504264354705810546875</LongitudeDegrees>
            </Position>
            <AltitudeMeters>618</AltitudeMeters>
            <DistanceMeters>NAN</DistanceMeters>
          </Trackpoint>
          <Trackpoint>
            <Time>2019-10-05T11:32:19.000Z</Time>
            <Position>
              <LatitudeDegrees>41.99290179647505283355712890625</LatitudeDegrees>
              <LongitudeDegrees>-5.68051560781896114349365234375</LongitudeDegrees>
            </Position>
            <AltitudeMeters>617.5999755859375</AltitudeMeters>
            <DistanceMeters>NAN</DistanceMeters>
          </Trackpoint>
          <Trackpoint>
            <Time>2019-10-05T11:32:21.000Z</Time>
            <Position>
              <LatitudeDegrees>41.99284899048507213592529296875</LatitudeDegrees>
              <LongitudeDegrees>-5.68039842881262302398681640625</LongitudeDegrees>
            </Position>
            <AltitudeMeters>616.5999755859375</AltitudeMeters>
            <DistanceMeters>NAN</DistanceMeters>
          </Trackpoint>
          <Trackpoint>
            <Time>2019-10-05T11:32:26.000Z</Time>
            <Position>
              <LatitudeDegrees>41.99271320365369319915771484375</LatitudeDegrees>
              <LongitudeDegrees>-5.680081844329833984375</LongitudeDegrees>
            </Position>
            <AltitudeMeters>615.5999755859375</AltitudeMeters>
            <DistanceMeters>NAN</DistanceMeters>
          </Trackpoint>
          <Trackpoint>
            <Time>2019-10-05T11:32:27.000Z</Time>
            <Position>
              <LatitudeDegrees>41.9926852919161319732666015625</LatitudeDegrees>
              <LongitudeDegrees>-5.680010430514812469482421875</LongitudeDegrees>
            </Position>
            <AltitudeMeters>615.20001220703125</AltitudeMeters>
            <DistanceMeters>NAN</DistanceMeters>
          </Trackpoint>
          <Trackpoint>
            <Time>2019-10-05T11:32:30.000Z</Time>
            <Position>
              <LatitudeDegrees>41.99260038323700428009033203125</LatitudeDegrees>
              <LongitudeDegrees>-5.6797782517969608306884765625</LongitudeDegrees>
            </Position>
            <AltitudeMeters>614.20001220703125</AltitudeMeters>
            <DistanceMeters>NAN</DistanceMeters>
          </Trackpoint>
          <Trackpoint>
            <Time>2019-10-05T11:32:32.000Z</Time>
            <Position>
              <LatitudeDegrees>41.99253601022064685821533203125</LatitudeDegrees>
              <LongitudeDegrees>-5.679590664803981781005859375</LongitudeDegrees>
            </Position>
            <AltitudeMeters>612.79998779296875</AltitudeMeters>
            <DistanceMeters>NAN</DistanceMeters>
          </Trackpoint>
          <Trackpoint>
            <Time>2019-10-05T11:32:34.000Z</Time>
            <Position>
              <LatitudeDegrees>41.99249041266739368438720703125</LatitudeDegrees>
              <LongitudeDegrees>-5.67944104783236980438232421875</LongitudeDegrees>
            </Position>
            <AltitudeMeters>612.79998779296875</AltitudeMeters>
            <DistanceMeters>NAN</DistanceMeters>
          </Trackpoint>
          <Trackpoint>
            <Time>2019-10-05T11:32:37.000Z</Time>
            <Position>
              <LatitudeDegrees>41.99241430498659610748291015625</LatitudeDegrees>
              <LongitudeDegrees>-5.679161846637725830078125</LongitudeDegrees>
            </Position>
            <AltitudeMeters>611.5999755859375</AltitudeMeters>
            <DistanceMeters>NAN</DistanceMeters>
          </Trackpoint>
          <Trackpoint>
            <Time>2019-10-05T11:32:39.000Z</Time>
            <Position>
              <LatitudeDegrees>41.9923701323568820953369140625</LatitudeDegrees>
              <LongitudeDegrees>-5.67897417582571506500244140625</LongitudeDegrees>
            </Position>
            <AltitudeMeters>611.4000244140625</AltitudeMeters>
            <DistanceMeters>NAN</DistanceMeters>
          </Trackpoint>
          <Trackpoint>
            <Time>2019-10-05T11:32:41.000Z</Time>
            <Position>
              <LatitudeDegrees>41.99233568273484706878662109375</LatitudeDegrees>
              <LongitudeDegrees>-5.67878139205276966094970703125</LongitudeDegrees>
            </Position>
            <AltitudeMeters>611</AltitudeMeters>
            <DistanceMeters>NAN</DistanceMeters>
          </Trackpoint>
          <Trackpoint>
            <Time>2019-10-05T11:32:43.000Z</Time>
            <Position>
              <LatitudeDegrees>41.99230425059795379638671875</LatitudeDegrees>
              <LongitudeDegrees>-5.678584165871143341064453125</LongitudeDegrees>
            </Position>
            <AltitudeMeters>610.5999755859375</AltitudeMeters>
            <DistanceMeters>NAN</DistanceMeters>
          </Trackpoint>
          <Trackpoint>
            <Time>2019-10-05T11:32:45.000Z</Time>
            <Position>
              <LatitudeDegrees>41.99227382428944110870361328125</LatitudeDegrees>
              <LongitudeDegrees>-5.6783818267285823822021484375</LongitudeDegrees>
            </Position>
            <AltitudeMeters>610.4000244140625</AltitudeMeters>
            <DistanceMeters>NAN</DistanceMeters>
          </Trackpoint>
          <Trackpoint>
            <Time>2019-10-05T11:32:48.000Z</Time>
            <Position>
              <LatitudeDegrees>41.9922338426113128662109375</LatitudeDegrees>
              <LongitudeDegrees>-5.67807043902575969696044921875</LongitudeDegrees>
            </Position>
            <AltitudeMeters>609.20001220703125</AltitudeMeters>
            <DistanceMeters>NAN</DistanceMeters>
          </Trackpoint>
          <Trackpoint>
            <Time>2019-10-05T11:32:49.000Z</Time>
            <Position>
              <LatitudeDegrees>41.9922256283462047576904296875</LatitudeDegrees>
              <LongitudeDegrees>-5.677965246140956878662109375</LongitudeDegrees>
            </Position>
            <AltitudeMeters>609.20001220703125</AltitudeMeters>
            <DistanceMeters>NAN</DistanceMeters>
          </Trackpoint>
          <Trackpoint>
            <Time>2019-10-05T11:32:51.000Z</Time>
            <Position>
              <LatitudeDegrees>41.99220945127308368682861328125</LatitudeDegrees>
              <LongitudeDegrees>-5.677760057151317596435546875</LongitudeDegrees>
            </Position>
            <AltitudeMeters>608.79998779296875</AltitudeMeters>
            <DistanceMeters>NAN</DistanceMeters>
          </Trackpoint>
          <Trackpoint>
            <Time>2019-10-05T11:32:53.000Z</Time>
            <Position>
              <LatitudeDegrees>41.99218413792550563812255859375</LatitudeDegrees>
              <LongitudeDegrees>-5.67758881486952304840087890625</LongitudeDegrees>
            </Position>
            <AltitudeMeters>609</AltitudeMeters>
            <DistanceMeters>NAN</DistanceMeters>
          </Trackpoint>
          <Trackpoint>
            <Time>2019-10-05T11:32:54.000Z</Time>
            <Position>
              <LatitudeDegrees>41.9921716488897800445556640625</LatitudeDegrees>
              <LongitudeDegrees>-5.6775305606424808502197265625</LongitudeDegrees>
            </Position>
            <AltitudeMeters>608.79998779296875</AltitudeMeters>
            <DistanceMeters>NAN</DistanceMeters>
          </Trackpoint>
          <Trackpoint>
            <Time>2019-10-05T11:32:55.000Z</Time>
            <Position>
              <LatitudeDegrees>41.9921381212770938873291015625</LatitudeDegrees>
              <LongitudeDegrees>-5.677477419376373291015625</LongitudeDegrees>
            </Position>
            <AltitudeMeters>608.79998779296875</AltitudeMeters>
            <DistanceMeters>NAN</DistanceMeters>
          </Trackpoint>
          <Trackpoint>
            <Time>2019-10-05T11:32:57.000Z</Time>
            <Position>
              <LatitudeDegrees>41.99203879572451114654541015625</LatitudeDegrees>
              <LongitudeDegrees>-5.67742570303380489349365234375</LongitudeDegrees>
            </Position>
            <AltitudeMeters>608.79998779296875</AltitudeMeters>
            <DistanceMeters>NAN</DistanceMeters>
          </Trackpoint>
          <Trackpoint>
            <Time>2019-10-05T11:33:00.000Z</Time>
            <Position>
              <LatitudeDegrees>41.99190015904605388641357421875</LatitudeDegrees>
              <LongitudeDegrees>-5.67751974798738956451416015625</LongitudeDegrees>
            </Position>
            <AltitudeMeters>608.79998779296875</AltitudeMeters>
            <DistanceMeters>NAN</DistanceMeters>
          </Trackpoint>
          <Trackpoint>
            <Time>2019-10-05T11:33:02.000Z</Time>
            <Position>
              <LatitudeDegrees>41.9918326847255229949951171875</LatitudeDegrees>
              <LongitudeDegrees>-5.6776328198611736297607421875</LongitudeDegrees>
            </Position>
            <AltitudeMeters>608.5999755859375</AltitudeMeters>
            <DistanceMeters>NAN</DistanceMeters>
          </Trackpoint>
          <Trackpoint>
            <Time>2019-10-05T11:33:03.000Z</Time>
            <Position>
              <LatitudeDegrees>41.99180133640766143798828125</LatitudeDegrees>
              <LongitudeDegrees>-5.67769375629723072052001953125</LongitudeDegrees>
            </Position>
            <AltitudeMeters>608.20001220703125</AltitudeMeters>
            <DistanceMeters>NAN</DistanceMeters>
          </Trackpoint>
          <Trackpoint>
            <Time>2019-10-05T11:33:04.000Z</Time>
            <Position>
              <LatitudeDegrees>41.9917770288884639739990234375</LatitudeDegrees>
              <LongitudeDegrees>-5.6777612306177616119384765625</LongitudeDegrees>
            </Position>
            <AltitudeMeters>608</AltitudeMeters>
            <DistanceMeters>NAN</DistanceMeters>
          </Trackpoint>
          <Trackpoint>
            <Time>2019-10-05T11:33:10.000Z</Time>
            <Position>
              <LatitudeDegrees>41.99168658815324306488037109375</LatitudeDegrees>
              <LongitudeDegrees>-5.67817588336765766143798828125</LongitudeDegrees>
            </Position>
            <AltitudeMeters>607.5999755859375</AltitudeMeters>
            <DistanceMeters>NAN</DistanceMeters>
          </Trackpoint>
          <Trackpoint>
            <Time>2019-10-05T11:33:16.000Z</Time>
            <Position>
              <LatitudeDegrees>41.9916499592363834381103515625</LatitudeDegrees>
              <LongitudeDegrees>-5.67859229631721973419189453125</LongitudeDegrees>
            </Position>
            <AltitudeMeters>607.79998779296875</AltitudeMeters>
            <DistanceMeters>NAN</DistanceMeters>
          </Trackpoint>
          <Trackpoint>
            <Time>2019-10-05T11:33:22.000Z</Time>
            <Position>
              <LatitudeDegrees>41.9916839897632598876953125</LatitudeDegrees>
              <LongitudeDegrees>-5.67900954745709896087646484375</LongitudeDegrees>
            </Position>
            <AltitudeMeters>608</AltitudeMeters>
            <DistanceMeters>NAN</DistanceMeters>
          </Trackpoint>
          <Trackpoint>
            <Time>2019-10-05T11:33:23.000Z</Time>
            <Position>
              <LatitudeDegrees>41.9916942156851291656494140625</LatitudeDegrees>
              <LongitudeDegrees>-5.67907744087278842926025390625</LongitudeDegrees>
            </Position>
            <AltitudeMeters>608.20001220703125</AltitudeMeters>
            <DistanceMeters>NAN</DistanceMeters>
          </Trackpoint>
          <Trackpoint>
            <Time>2019-10-05T11:33:24.000Z</Time>
            <Position>
              <LatitudeDegrees>41.9917207024991512298583984375</LatitudeDegrees>
              <LongitudeDegrees>-5.67920275032520294189453125</LongitudeDegrees>
            </Position>
            <AltitudeMeters>608</AltitudeMeters>
            <DistanceMeters>NAN</DistanceMeters>
          </Trackpoint>
          <Trackpoint>
            <Time>2019-10-05T11:33:28.000Z</Time>
            <Position>
              <LatitudeDegrees>41.99179404415190219879150390625</LatitudeDegrees>
              <LongitudeDegrees>-5.6793849729001522064208984375</LongitudeDegrees>
            </Position>
            <AltitudeMeters>608.20001220703125</AltitudeMeters>
            <DistanceMeters>NAN</DistanceMeters>
          </Trackpoint>
          <Trackpoint>
            <Time>2019-10-05T11:33:32.000Z</Time>
            <Position>
              <LatitudeDegrees>41.99200392700731754302978515625</LatitudeDegrees>
              <LongitudeDegrees>-5.6795888207852840423583984375</LongitudeDegrees>
            </Position>
            <AltitudeMeters>608</AltitudeMeters>
            <DistanceMeters>NAN</DistanceMeters>
          </Trackpoint>
          <Trackpoint>
            <Time>2019-10-05T11:33:33.000Z</Time>
            <Position>
              <LatitudeDegrees>41.99201918207108974456787109375</LatitudeDegrees>
              <LongitudeDegrees>-5.67959728650748729705810546875</LongitudeDegrees>
            </Position>
            <AltitudeMeters>608</AltitudeMeters>
            <DistanceMeters>NAN</DistanceMeters>
          </Trackpoint>
          <Trackpoint>
            <Time>2019-10-05T11:33:34.000Z</Time>
            <Position>
              <LatitudeDegrees>41.9920687191188335418701171875</LatitudeDegrees>
              <LongitudeDegrees>-5.67961773835122585296630859375</LongitudeDegrees>
            </Position>
            <AltitudeMeters>607.4000244140625</AltitudeMeters>
            <DistanceMeters>NAN</DistanceMeters>
          </Trackpoint>
          <Trackpoint>
            <Time>2019-10-05T11:33:37.000Z</Time>
            <Position>
              <LatitudeDegrees>41.9922239519655704498291015625</LatitudeDegrees>
              <LongitudeDegrees>-5.67962092347443103790283203125</LongitudeDegrees>
            </Position>
            <AltitudeMeters>607.4000244140625</AltitudeMeters>
            <DistanceMeters>NAN</DistanceMeters>
          </Trackpoint>
          <Trackpoint>
            <Time>2019-10-05T11:33:40.000Z</Time>
            <Position>
              <LatitudeDegrees>41.99237356893718242645263671875</LatitudeDegrees>
              <LongitudeDegrees>-5.679558478295803070068359375</LongitudeDegrees>
            </Position>
            <AltitudeMeters>607.4000244140625</AltitudeMeters>
            <DistanceMeters>NAN</DistanceMeters>
          </Trackpoint>
          <Trackpoint>
            <Time>2019-10-05T11:33:41.000Z</Time>
            <Position>
              <LatitudeDegrees>41.99242218397557735443115234375</LatitudeDegrees>
              <LongitudeDegrees>-5.67953106947243213653564453125</LongitudeDegrees>
            </Position>
            <AltitudeMeters>607.4000244140625</AltitudeMeters>
            <DistanceMeters>NAN</DistanceMeters>
          </Trackpoint>
          <Trackpoint>
            <Time>2019-10-05T11:33:45.000Z</Time>
            <Position>
              <LatitudeDegrees>41.99262284673750400543212890625</LatitudeDegrees>
              <LongitudeDegrees>-5.67941120825707912445068359375</LongitudeDegrees>
            </Position>
            <AltitudeMeters>607.4000244140625</AltitudeMeters>
            <DistanceMeters>NAN</DistanceMeters>
          </Trackpoint>
          <Trackpoint>
            <Time>2019-10-05T11:33:53.000Z</Time>
            <Position>
              <LatitudeDegrees>41.9929930754005908966064453125</LatitudeDegrees>
              <LongitudeDegrees>-5.67916628904640674591064453125</LongitudeDegrees>
            </Position>
            <AltitudeMeters>607.79998779296875</AltitudeMeters>
            <DistanceMeters>NAN</DistanceMeters>
          </Trackpoint>
          <Trackpoint>
            <Time>2019-10-05T11:33:56.000Z</Time>
            <Position>
              <LatitudeDegrees>41.99317068792879581451416015625</LatitudeDegrees>
              <LongitudeDegrees>-5.6790560670197010040283203125</LongitudeDegrees>
            </Position>
            <AltitudeMeters>608</AltitudeMeters>
            <DistanceMeters>NAN</DistanceMeters>
          </Trackpoint>
          <Trackpoint>
            <Time>2019-10-05T11:34:00.000Z</Time>
            <Position>
              <LatitudeDegrees>41.993316113948822021484375</LatitudeDegrees>
              <LongitudeDegrees>-5.67896529100835323333740234375</LongitudeDegrees>
            </Position>
            <AltitudeMeters>607.79998779296875</AltitudeMeters>
            <DistanceMeters>NAN</DistanceMeters>
          </Trackpoint>
          <Trackpoint>
            <Time>2019-10-05T11:34:03.000Z</Time>
            <Position>
              <LatitudeDegrees>41.9934493862092494964599609375</LatitudeDegrees>
              <LongitudeDegrees>-5.6788790412247180938720703125</LongitudeDegrees>
            </Position>
            <AltitudeMeters>608.20001220703125</AltitudeMeters>
            <DistanceMeters>NAN</DistanceMeters>
          </Trackpoint>
          <Trackpoint>
            <Time>2019-10-05T11:34:07.000Z</Time>
            <Position>
              <LatitudeDegrees>41.993629932403564453125</LatitudeDegrees>
              <LongitudeDegrees>-5.67876295186579227447509765625</LongitudeDegrees>
            </Position>
            <AltitudeMeters>608.4000244140625</AltitudeMeters>
            <DistanceMeters>NAN</DistanceMeters>
          </Trackpoint>
          <Trackpoint>
            <Time>2019-10-05T11:34:12.000Z</Time>
            <Position>
              <LatitudeDegrees>41.99382447637617588043212890625</LatitudeDegrees>
              <LongitudeDegrees>-5.67862481810152530670166015625</LongitudeDegrees>
            </Position>
            <AltitudeMeters>608.5999755859375</AltitudeMeters>
            <DistanceMeters>NAN</DistanceMeters>
          </Trackpoint>
          <Trackpoint>
            <Time>2019-10-05T11:34:13.000Z</Time>
            <Position>
              <LatitudeDegrees>41.99385113082826137542724609375</LatitudeDegrees>
              <LongitudeDegrees>-5.67859078757464885711669921875</LongitudeDegrees>
            </Position>
            <AltitudeMeters>608.79998779296875</AltitudeMeters>
            <DistanceMeters>NAN</DistanceMeters>
          </Trackpoint>
          <Trackpoint>
            <Time>2019-10-05T11:34:16.000Z</Time>
            <Position>
              <LatitudeDegrees>41.9939117319881916046142578125</LatitudeDegrees>
              <LongitudeDegrees>-5.67847645841538906097412109375</LongitudeDegrees>
            </Position>
            <AltitudeMeters>608.5999755859375</AltitudeMeters>
            <DistanceMeters>NAN</DistanceMeters>
          </Trackpoint>
          <Trackpoint>
            <Time>2019-10-05T11:34:18.000Z</Time>
            <Position>
              <LatitudeDegrees>41.9939549826085567474365234375</LatitudeDegrees>
              <LongitudeDegrees>-5.6784156896173954010009765625</LongitudeDegrees>
            </Position>
            <AltitudeMeters>609</AltitudeMeters>
            <DistanceMeters>NAN</DistanceMeters>
          </Trackpoint>
          <Trackpoint>
            <Time>2019-10-05T11:34:21.000Z</Time>
            <Position>
              <LatitudeDegrees>41.9940240494906902313232421875</LatitudeDegrees>
              <LongitudeDegrees>-5.67832524888217449188232421875</LongitudeDegrees>
            </Position>
            <AltitudeMeters>609</AltitudeMeters>
            <DistanceMeters>NAN</DistanceMeters>
          </Trackpoint>
          <Trackpoint>
            <Time>2019-10-05T11:34:23.000Z</Time>
            <Position>
              <LatitudeDegrees>41.99407861568033695220947265625</LatitudeDegrees>
              <LongitudeDegrees>-5.6782788969576358795166015625</LongitudeDegrees>
            </Position>
            <AltitudeMeters>609.20001220703125</AltitudeMeters>
            <DistanceMeters>NAN</DistanceMeters>
          </Trackpoint>
          <Trackpoint>
            <Time>2019-10-05T11:34:28.000Z</Time>
            <Position>
              <LatitudeDegrees>41.99425958096981048583984375</LatitudeDegrees>
              <LongitudeDegrees>-5.67816565744578838348388671875</LongitudeDegrees>
            </Position>
            <AltitudeMeters>609</AltitudeMeters>
            <DistanceMeters>NAN</DistanceMeters>
          </Trackpoint>
          <Trackpoint>
            <Time>2019-10-05T11:34:29.000Z</Time>
            <Position>
              <LatitudeDegrees>41.99429973028600215911865234375</LatitudeDegrees>
              <LongitudeDegrees>-5.67813799716532230377197265625</LongitudeDegrees>
            </Position>
            <AltitudeMeters>608.79998779296875</AltitudeMeters>
            <DistanceMeters>NAN</DistanceMeters>
          </Trackpoint>
          <Trackpoint>
            <Time>2019-10-05T11:34:33.000Z</Time>
            <Position>
              <LatitudeDegrees>41.99446669779717922210693359375</LatitudeDegrees>
              <LongitudeDegrees>-5.67802500911056995391845703125</LongitudeDegrees>
            </Position>
            <AltitudeMeters>609.5999755859375</AltitudeMeters>
            <DistanceMeters>NAN</DistanceMeters>
          </Trackpoint>
          <Trackpoint>
            <Time>2019-10-05T11:34:34.000Z</Time>
            <Position>
              <LatitudeDegrees>41.99450902640819549560546875</LatitudeDegrees>
              <LongitudeDegrees>-5.677998773753643035888671875</LongitudeDegrees>
            </Position>
            <AltitudeMeters>609.5999755859375</AltitudeMeters>
            <DistanceMeters>NAN</DistanceMeters>
          </Trackpoint>
          <Trackpoint>
            <Time>2019-10-05T11:34:37.000Z</Time>
            <Position>
              <LatitudeDegrees>41.99463886208832263946533203125</LatitudeDegrees>
              <LongitudeDegrees>-5.6779157929122447967529296875</LongitudeDegrees>
            </Position>
            <AltitudeMeters>609</AltitudeMeters>
            <DistanceMeters>NAN</DistanceMeters>
          </Trackpoint>
          <Trackpoint>
            <Time>2019-10-05T11:34:40.000Z</Time>
            <Position>
              <LatitudeDegrees>41.99477397836744785308837890625</LatitudeDegrees>
              <LongitudeDegrees>-5.6778366677463054656982421875</LongitudeDegrees>
            </Position>
            <AltitudeMeters>608</AltitudeMeters>
            <DistanceMeters>NAN</DistanceMeters>
          </Trackpoint>
          <Trackpoint>
            <Time>2019-10-05T11:34:43.000Z</Time>
            <Position>
              <LatitudeDegrees>41.99490574188530445098876953125</LatitudeDegrees>
              <LongitudeDegrees>-5.67775326780974864959716796875</LongitudeDegrees>
            </Position>
            <AltitudeMeters>609.20001220703125</AltitudeMeters>
            <DistanceMeters>NAN</DistanceMeters>
          </Trackpoint>
          <Trackpoint>
            <Time>2019-10-05T11:34:47.000Z</Time>
            <Position>
              <LatitudeDegrees>41.9950805045664310455322265625</LatitudeDegrees>
              <LongitudeDegrees>-5.67764547653496265411376953125</LongitudeDegrees>
            </Position>
            <AltitudeMeters>609.4000244140625</AltitudeMeters>
            <DistanceMeters>NAN</DistanceMeters>
          </Trackpoint>
          <Trackpoint>
            <Time>2019-10-05T11:34:51.000Z</Time>
            <Position>
              <LatitudeDegrees>41.99524370022118091583251953125</LatitudeDegrees>
              <LongitudeDegrees>-5.6775335781276226043701171875</LongitudeDegrees>
            </Position>
            <AltitudeMeters>609.5999755859375</AltitudeMeters>
            <DistanceMeters>NAN</DistanceMeters>
          </Trackpoint>
          <Trackpoint>
            <Time>2019-10-05T11:34:55.000Z</Time>
            <Position>
              <LatitudeDegrees>41.99540681205689907073974609375</LatitudeDegrees>
              <LongitudeDegrees>-5.6774425506591796875</LongitudeDegrees>
            </Position>
            <AltitudeMeters>609.5999755859375</AltitudeMeters>
            <DistanceMeters>NAN</DistanceMeters>
          </Trackpoint>
          <Trackpoint>
            <Time>2019-10-05T11:35:06.000Z</Time>
            <Position>
              <LatitudeDegrees>41.995841078460216522216796875</LatitudeDegrees>
              <LongitudeDegrees>-5.67717776633799076080322265625</LongitudeDegrees>
            </Position>
            <AltitudeMeters>610.79998779296875</AltitudeMeters>
            <DistanceMeters>NAN</DistanceMeters>
          </Trackpoint>
          <Trackpoint>
            <Time>2019-10-05T11:35:15.000Z</Time>
            <Position>
              <LatitudeDegrees>41.9962093792855739593505859375</LatitudeDegrees>
              <LongitudeDegrees>-5.676956735551357269287109375</LongitudeDegrees>
            </Position>
            <AltitudeMeters>610.79998779296875</AltitudeMeters>
            <DistanceMeters>NAN</DistanceMeters>
          </Trackpoint>
          <Trackpoint>
            <Time>2019-10-05T11:35:25.000Z</Time>
            <Position>
              <LatitudeDegrees>41.99660324491560459136962890625</LatitudeDegrees>
              <LongitudeDegrees>-5.676720030605792999267578125</LongitudeDegrees>
            </Position>
            <AltitudeMeters>610.5999755859375</AltitudeMeters>
            <DistanceMeters>NAN</DistanceMeters>
          </Trackpoint>
          <Trackpoint>
            <Time>2019-10-05T11:35:34.000Z</Time>
            <Position>
              <LatitudeDegrees>41.99692075140774250030517578125</LatitudeDegrees>
              <LongitudeDegrees>-5.67651785910129547119140625</LongitudeDegrees>
            </Position>
            <AltitudeMeters>611.79998779296875</AltitudeMeters>
            <DistanceMeters>NAN</DistanceMeters>
          </Trackpoint>
          <Trackpoint>
            <Time>2019-10-05T11:35:38.000Z</Time>
            <Position>
              <LatitudeDegrees>41.99696567840874195098876953125</LatitudeDegrees>
              <LongitudeDegrees>-5.67648231983184814453125</LongitudeDegrees>
            </Position>
            <AltitudeMeters>611.5999755859375</AltitudeMeters>
            <DistanceMeters>NAN</DistanceMeters>
          </Trackpoint>
          <Trackpoint>
            <Time>2019-10-05T11:35:42.000Z</Time>
            <Position>
              <LatitudeDegrees>41.99707481078803539276123046875</LatitudeDegrees>
              <LongitudeDegrees>-5.67640428431332111358642578125</LongitudeDegrees>
            </Position>
            <AltitudeMeters>611.20001220703125</AltitudeMeters>
            <DistanceMeters>NAN</DistanceMeters>
          </Trackpoint>
          <Trackpoint>
            <Time>2019-10-05T11:35:49.000Z</Time>
            <Position>
              <LatitudeDegrees>41.99725158512592315673828125</LatitudeDegrees>
              <LongitudeDegrees>-5.67629062570631504058837890625</LongitudeDegrees>
            </Position>
            <AltitudeMeters>611.5999755859375</AltitudeMeters>
            <DistanceMeters>NAN</DistanceMeters>
          </Trackpoint>
          <Trackpoint>
            <Time>2019-10-05T11:35:50.000Z</Time>
            <Position>
              <LatitudeDegrees>41.9972597993910312652587890625</LatitudeDegrees>
              <LongitudeDegrees>-5.67628878168761730194091796875</LongitudeDegrees>
            </Position>
            <AltitudeMeters>611.5999755859375</AltitudeMeters>
            <DistanceMeters>NAN</DistanceMeters>
          </Trackpoint>
          <Trackpoint>
            <Time>2019-10-05T11:35:51.000Z</Time>
            <Position>
              <LatitudeDegrees>41.9972571171820163726806640625</LatitudeDegrees>
              <LongitudeDegrees>-5.6762913800776004791259765625</LongitudeDegrees>
            </Position>
            <AltitudeMeters>611.79998779296875</AltitudeMeters>
            <DistanceMeters>NAN</DistanceMeters>
          </Trackpoint>
          <Trackpoint>
            <Time>2019-10-05T11:35:52.000Z</Time>
            <Position>
              <LatitudeDegrees>41.9972571171820163726806640625</LatitudeDegrees>
              <LongitudeDegrees>-5.6762913800776004791259765625</LongitudeDegrees>
            </Position>
            <AltitudeMeters>611.79998779296875</AltitudeMeters>
            <DistanceMeters>NAN</DistanceMeters>
          </Trackpoint>
          <Trackpoint>
            <Time>2019-10-05T11:35:56.000Z</Time>
            <Position>
              <LatitudeDegrees>41.99726323597133159637451171875</LatitudeDegrees>
              <LongitudeDegrees>-5.67628961987793445587158203125</LongitudeDegrees>
            </Position>
            <AltitudeMeters>611.79998779296875</AltitudeMeters>
            <DistanceMeters>NAN</DistanceMeters>
          </Trackpoint>
          <Trackpoint>
            <Time>2019-10-05T11:35:59.000Z</Time>
            <Position>
              <LatitudeDegrees>41.99730615131556987762451171875</LatitudeDegrees>
              <LongitudeDegrees>-5.676268078386783599853515625</LongitudeDegrees>
            </Position>
            <AltitudeMeters>611.5999755859375</AltitudeMeters>
            <DistanceMeters>NAN</DistanceMeters>
          </Trackpoint>
          <Trackpoint>
            <Time>2019-10-05T11:36:04.000Z</Time>
            <Position>
              <LatitudeDegrees>41.9974465481936931610107421875</LatitudeDegrees>
              <LongitudeDegrees>-5.67619205452501773834228515625</LongitudeDegrees>
            </Position>
            <AltitudeMeters>611.5999755859375</AltitudeMeters>
            <DistanceMeters>NAN</DistanceMeters>
          </Trackpoint>
          <Trackpoint>
            <Time>2019-10-05T11:36:11.000Z</Time>
            <Position>
              <LatitudeDegrees>41.99768903665244579315185546875</LatitudeDegrees>
              <LongitudeDegrees>-5.67603212781250476837158203125</LongitudeDegrees>
            </Position>
            <AltitudeMeters>611.5999755859375</AltitudeMeters>
            <DistanceMeters>NAN</DistanceMeters>
          </Trackpoint>
          <Trackpoint>
            <Time>2019-10-05T11:36:21.000Z</Time>
            <Position>
              <LatitudeDegrees>41.99807946570217609405517578125</LatitudeDegrees>
              <LongitudeDegrees>-5.675783269107341766357421875</LongitudeDegrees>
            </Position>
            <AltitudeMeters>611</AltitudeMeters>
            <DistanceMeters>NAN</DistanceMeters>
          </Trackpoint>
          <Trackpoint>
            <Time>2019-10-05T11:36:25.000Z</Time>
            <Position>
              <LatitudeDegrees>41.998284570872783660888671875</LatitudeDegrees>
              <LongitudeDegrees>-5.6756530143320560455322265625</LongitudeDegrees>
            </Position>
            <AltitudeMeters>610.5999755859375</AltitudeMeters>
            <DistanceMeters>NAN</DistanceMeters>
          </Trackpoint>
          <Trackpoint>
            <Time>2019-10-05T11:36:28.000Z</Time>
            <Position>
              <LatitudeDegrees>41.9983648695051670074462890625</LatitudeDegrees>
              <LongitudeDegrees>-5.67559962160885334014892578125</LongitudeDegrees>
            </Position>
            <AltitudeMeters>610.20001220703125</AltitudeMeters>
            <DistanceMeters>NAN</DistanceMeters>
          </Trackpoint>
          <Trackpoint>
            <Time>2019-10-05T11:36:35.000Z</Time>
            <Position>
              <LatitudeDegrees>41.9986387901008129119873046875</LatitudeDegrees>
              <LongitudeDegrees>-5.67543298937380313873291015625</LongitudeDegrees>
            </Position>
            <AltitudeMeters>611</AltitudeMeters>
            <DistanceMeters>NAN</DistanceMeters>
          </Trackpoint>
          <Trackpoint>
            <Time>2019-10-05T11:36:37.000Z</Time>
            <Position>
              <LatitudeDegrees>41.9987152330577373504638671875</LatitudeDegrees>
              <LongitudeDegrees>-5.67538001574575901031494140625</LongitudeDegrees>
            </Position>
            <AltitudeMeters>611</AltitudeMeters>
            <DistanceMeters>NAN</DistanceMeters>
          </Trackpoint>
          <Trackpoint>
            <Time>2019-10-05T11:36:43.000Z</Time>
            <Position>
              <LatitudeDegrees>41.998949088156223297119140625</LatitudeDegrees>
              <LongitudeDegrees>-5.6752298958599567413330078125</LongitudeDegrees>
            </Position>
            <AltitudeMeters>610.5999755859375</AltitudeMeters>
            <DistanceMeters>NAN</DistanceMeters>
          </Trackpoint>
          <Trackpoint>
            <Time>2019-10-05T11:36:44.000Z</Time>
            <Position>
              <LatitudeDegrees>41.9989871419966220855712890625</LatitudeDegrees>
              <LongitudeDegrees>-5.67520634271204471588134765625</LongitudeDegrees>
            </Position>
            <AltitudeMeters>610.4000244140625</AltitudeMeters>
            <DistanceMeters>NAN</DistanceMeters>
          </Trackpoint>
          <Trackpoint>
            <Time>2019-10-05T11:36:53.000Z</Time>
            <Position>
              <LatitudeDegrees>41.9993256032466888427734375</LatitudeDegrees>
              <LongitudeDegrees>-5.67499034106731414794921875</LongitudeDegrees>
            </Position>
            <AltitudeMeters>611.5999755859375</AltitudeMeters>
            <DistanceMeters>NAN</DistanceMeters>
          </Trackpoint>
          <Trackpoint>
            <Time>2019-10-05T11:36:55.000Z</Time>
            <Position>
              <LatitudeDegrees>41.99939441867172718048095703125</LatitudeDegrees>
              <LongitudeDegrees>-5.67494549788534641265869140625</LongitudeDegrees>
            </Position>
            <AltitudeMeters>611.4000244140625</AltitudeMeters>
            <DistanceMeters>NAN</DistanceMeters>
          </Trackpoint>
          <Trackpoint>
            <Time>2019-10-05T11:37:01.000Z</Time>
            <Position>
              <LatitudeDegrees>41.999578736722469329833984375</LatitudeDegrees>
              <LongitudeDegrees>-5.6748185120522975921630859375</LongitudeDegrees>
            </Position>
            <AltitudeMeters>611.79998779296875</AltitudeMeters>
            <DistanceMeters>NAN</DistanceMeters>
          </Trackpoint>
          <Trackpoint>
            <Time>2019-10-05T11:37:02.000Z</Time>
            <Position>
              <LatitudeDegrees>41.9995996914803981781005859375</LatitudeDegrees>
              <LongitudeDegrees>-5.6748045980930328369140625</LongitudeDegrees>
            </Position>
            <AltitudeMeters>611.79998779296875</AltitudeMeters>
            <DistanceMeters>NAN</DistanceMeters>
          </Trackpoint>
          <Trackpoint>
            <Time>2019-10-05T11:37:05.000Z</Time>
            <Position>
              <LatitudeDegrees>41.999603211879730224609375</LatitudeDegrees>
              <LongitudeDegrees>-5.6748040951788425445556640625</LongitudeDegrees>
            </Position>
            <AltitudeMeters>611.5999755859375</AltitudeMeters>
            <DistanceMeters>NAN</DistanceMeters>
          </Trackpoint>
          <Trackpoint>
            <Time>2019-10-05T11:37:10.000Z</Time>
            <Position>
              <LatitudeDegrees>41.999603211879730224609375</LatitudeDegrees>
              <LongitudeDegrees>-5.6748040951788425445556640625</LongitudeDegrees>
            </Position>
            <AltitudeMeters>611.5999755859375</AltitudeMeters>
            <DistanceMeters>NAN</DistanceMeters>
          </Trackpoint>
          <Trackpoint>
            <Time>2019-10-05T11:37:17.000Z</Time>
            <Position>
              <LatitudeDegrees>41.999603211879730224609375</LatitudeDegrees>
              <LongitudeDegrees>-5.6748040951788425445556640625</LongitudeDegrees>
            </Position>
            <AltitudeMeters>611.79998779296875</AltitudeMeters>
            <DistanceMeters>NAN</DistanceMeters>
          </Trackpoint>
          <Trackpoint>
            <Time>2019-10-05T11:37:18.000Z</Time>
            <Position>
              <LatitudeDegrees>41.999603211879730224609375</LatitudeDegrees>
              <LongitudeDegrees>-5.6748040951788425445556640625</LongitudeDegrees>
            </Position>
            <AltitudeMeters>611.79998779296875</AltitudeMeters>
            <DistanceMeters>NAN</DistanceMeters>
          </Trackpoint>
          <Trackpoint>
            <Time>2019-10-05T11:37:20.000Z</Time>
            <Position>
              <LatitudeDegrees>41.999603211879730224609375</LatitudeDegrees>
              <LongitudeDegrees>-5.6748040951788425445556640625</LongitudeDegrees>
            </Position>
            <AltitudeMeters>611.5999755859375</AltitudeMeters>
            <DistanceMeters>NAN</DistanceMeters>
          </Trackpoint>
          <Trackpoint>
            <Time>2019-10-05T11:37:21.000Z</Time>
            <Position>
              <LatitudeDegrees>41.999603211879730224609375</LatitudeDegrees>
              <LongitudeDegrees>-5.6748040951788425445556640625</LongitudeDegrees>
            </Position>
            <AltitudeMeters>611.79998779296875</AltitudeMeters>
            <DistanceMeters>NAN</DistanceMeters>
          </Trackpoint>
          <Trackpoint>
            <Time>2019-10-05T11:37:31.000Z</Time>
            <Position>
              <LatitudeDegrees>41.999603211879730224609375</LatitudeDegrees>
              <LongitudeDegrees>-5.6748040951788425445556640625</LongitudeDegrees>
            </Position>
            <AltitudeMeters>611.79998779296875</AltitudeMeters>
            <DistanceMeters>NAN</DistanceMeters>
          </Trackpoint>
          <Trackpoint>
            <Time>2019-10-05T11:37:36.000Z</Time>
            <Position>
              <LatitudeDegrees>41.999603211879730224609375</LatitudeDegrees>
              <LongitudeDegrees>-5.6748040951788425445556640625</LongitudeDegrees>
            </Position>
            <AltitudeMeters>611.79998779296875</AltitudeMeters>
            <DistanceMeters>NAN</DistanceMeters>
          </Trackpoint>
          <Trackpoint>
            <Time>2019-10-05T11:37:39.000Z</Time>
            <Position>
              <LatitudeDegrees>41.999603211879730224609375</LatitudeDegrees>
              <LongitudeDegrees>-5.6748040951788425445556640625</LongitudeDegrees>
            </Position>
            <AltitudeMeters>612</AltitudeMeters>
            <DistanceMeters>NAN</DistanceMeters>
          </Trackpoint>
          <Trackpoint>
            <Time>2019-10-05T11:37:44.000Z</Time>
            <Position>
              <LatitudeDegrees>41.99960262514650821685791015625</LatitudeDegrees>
              <LongitudeDegrees>-5.67480183206498622894287109375</LongitudeDegrees>
            </Position>
            <AltitudeMeters>612</AltitudeMeters>
            <DistanceMeters>NAN</DistanceMeters>
          </Trackpoint>
          <Trackpoint>
            <Time>2019-10-05T11:37:47.000Z</Time>
            <Position>
              <LatitudeDegrees>41.99960262514650821685791015625</LatitudeDegrees>
              <LongitudeDegrees>-5.67480183206498622894287109375</LongitudeDegrees>
            </Position>
            <AltitudeMeters>611.79998779296875</AltitudeMeters>
            <DistanceMeters>NAN</DistanceMeters>
          </Trackpoint>
          <Trackpoint>
            <Time>2019-10-05T11:37:53.000Z</Time>
            <Position>
              <LatitudeDegrees>41.99960262514650821685791015625</LatitudeDegrees>
              <LongitudeDegrees>-5.67480183206498622894287109375</LongitudeDegrees>
            </Position>
            <AltitudeMeters>612</AltitudeMeters>
            <DistanceMeters>NAN</DistanceMeters>
          </Trackpoint>
          <Trackpoint>
            <Time>2019-10-05T11:38:01.000Z</Time>
            <Position>
              <LatitudeDegrees>41.99960262514650821685791015625</LatitudeDegrees>
              <LongitudeDegrees>-5.67480183206498622894287109375</LongitudeDegrees>
            </Position>
            <AltitudeMeters>612.20001220703125</AltitudeMeters>
            <DistanceMeters>NAN</DistanceMeters>
          </Trackpoint>
          <Trackpoint>
            <Time>2019-10-05T11:38:09.000Z</Time>
            <Position>
              <LatitudeDegrees>41.99960262514650821685791015625</LatitudeDegrees>
              <LongitudeDegrees>-5.67480183206498622894287109375</LongitudeDegrees>
            </Position>
            <AltitudeMeters>612</AltitudeMeters>
            <DistanceMeters>NAN</DistanceMeters>
          </Trackpoint>
          <Trackpoint>
            <Time>2019-10-05T11:38:11.000Z</Time>
            <Position>
              <LatitudeDegrees>41.99960262514650821685791015625</LatitudeDegrees>
              <LongitudeDegrees>-5.67480183206498622894287109375</LongitudeDegrees>
            </Position>
            <AltitudeMeters>612</AltitudeMeters>
            <DistanceMeters>NAN</DistanceMeters>
          </Trackpoint>
          <Trackpoint>
            <Time>2019-10-05T11:38:18.000Z</Time>
            <Position>
              <LatitudeDegrees>41.99960262514650821685791015625</LatitudeDegrees>
              <LongitudeDegrees>-5.67480183206498622894287109375</LongitudeDegrees>
            </Position>
            <AltitudeMeters>612.20001220703125</AltitudeMeters>
            <DistanceMeters>NAN</DistanceMeters>
          </Trackpoint>
          <Trackpoint>
            <Time>2019-10-05T11:38:21.000Z</Time>
            <Position>
              <LatitudeDegrees>41.99960262514650821685791015625</LatitudeDegrees>
              <LongitudeDegrees>-5.67480183206498622894287109375</LongitudeDegrees>
            </Position>
            <AltitudeMeters>611.79998779296875</AltitudeMeters>
            <DistanceMeters>NAN</DistanceMeters>
          </Trackpoint>
          <Trackpoint>
            <Time>2019-10-05T11:38:23.000Z</Time>
            <Position>
              <LatitudeDegrees>41.99960262514650821685791015625</LatitudeDegrees>
              <LongitudeDegrees>-5.67480183206498622894287109375</LongitudeDegrees>
            </Position>
            <AltitudeMeters>612.20001220703125</AltitudeMeters>
            <DistanceMeters>NAN</DistanceMeters>
          </Trackpoint>
          <Trackpoint>
            <Time>2019-10-05T11:38:27.000Z</Time>
            <Position>
              <LatitudeDegrees>41.99960564263164997100830078125</LatitudeDegrees>
              <LongitudeDegrees>-5.6748020835220813751220703125</LongitudeDegrees>
            </Position>
            <AltitudeMeters>612.20001220703125</AltitudeMeters>
            <DistanceMeters>NAN</DistanceMeters>
          </Trackpoint>
          <Trackpoint>
            <Time>2019-10-05T11:38:29.000Z</Time>
            <Position>
              <LatitudeDegrees>41.99960564263164997100830078125</LatitudeDegrees>
              <LongitudeDegrees>-5.6748020835220813751220703125</LongitudeDegrees>
            </Position>
            <AltitudeMeters>612</AltitudeMeters>
            <DistanceMeters>NAN</DistanceMeters>
          </Trackpoint>
          <Trackpoint>
            <Time>2019-10-05T11:38:33.000Z</Time>
            <Position>
              <LatitudeDegrees>41.99960564263164997100830078125</LatitudeDegrees>
              <LongitudeDegrees>-5.6748020835220813751220703125</LongitudeDegrees>
            </Position>
            <AltitudeMeters>612</AltitudeMeters>
            <DistanceMeters>NAN</DistanceMeters>
          </Trackpoint>
          <Trackpoint>
            <Time>2019-10-05T11:38:40.000Z</Time>
            <Position>
              <LatitudeDegrees>41.99960564263164997100830078125</LatitudeDegrees>
              <LongitudeDegrees>-5.6748020835220813751220703125</LongitudeDegrees>
            </Position>
            <AltitudeMeters>612.20001220703125</AltitudeMeters>
            <DistanceMeters>NAN</DistanceMeters>
          </Trackpoint>
          <Trackpoint>
            <Time>2019-10-05T11:38:42.000Z</Time>
            <Position>
              <LatitudeDegrees>41.99960564263164997100830078125</LatitudeDegrees>
              <LongitudeDegrees>-5.6748020835220813751220703125</LongitudeDegrees>
            </Position>
            <AltitudeMeters>612.20001220703125</AltitudeMeters>
            <DistanceMeters>NAN</DistanceMeters>
          </Trackpoint>
          <Trackpoint>
            <Time>2019-10-05T11:38:44.000Z</Time>
            <Position>
              <LatitudeDegrees>41.99960564263164997100830078125</LatitudeDegrees>
              <LongitudeDegrees>-5.6748020835220813751220703125</LongitudeDegrees>
            </Position>
            <AltitudeMeters>612</AltitudeMeters>
            <DistanceMeters>NAN</DistanceMeters>
          </Trackpoint>
          <Trackpoint>
            <Time>2019-10-05T11:38:52.000Z</Time>
            <Position>
              <LatitudeDegrees>41.99960564263164997100830078125</LatitudeDegrees>
              <LongitudeDegrees>-5.6748020835220813751220703125</LongitudeDegrees>
            </Position>
            <AltitudeMeters>612.20001220703125</AltitudeMeters>
            <DistanceMeters>NAN</DistanceMeters>
          </Trackpoint>
          <Trackpoint>
            <Time>2019-10-05T11:38:56.000Z</Time>
            <Position>
              <LatitudeDegrees>41.99960564263164997100830078125</LatitudeDegrees>
              <LongitudeDegrees>-5.6748020835220813751220703125</LongitudeDegrees>
            </Position>
            <AltitudeMeters>612.20001220703125</AltitudeMeters>
            <DistanceMeters>NAN</DistanceMeters>
          </Trackpoint>
          <Trackpoint>
            <Time>2019-10-05T11:39:10.000Z</Time>
            <Position>
              <LatitudeDegrees>41.999608576297760009765625</LatitudeDegrees>
              <LongitudeDegrees>-5.67480250261723995208740234375</LongitudeDegrees>
            </Position>
            <AltitudeMeters>612.20001220703125</AltitudeMeters>
            <DistanceMeters>NAN</DistanceMeters>
          </Trackpoint>
          <Trackpoint>
            <Time>2019-10-05T11:39:13.000Z</Time>
            <Position>
              <LatitudeDegrees>41.999608576297760009765625</LatitudeDegrees>
              <LongitudeDegrees>-5.67480250261723995208740234375</LongitudeDegrees>
            </Position>
            <AltitudeMeters>612</AltitudeMeters>
            <DistanceMeters>NAN</DistanceMeters>
          </Trackpoint>
          <Trackpoint>
            <Time>2019-10-05T11:39:26.000Z</Time>
            <Position>
              <LatitudeDegrees>41.999608576297760009765625</LatitudeDegrees>
              <LongitudeDegrees>-5.67480250261723995208740234375</LongitudeDegrees>
            </Position>
            <AltitudeMeters>612</AltitudeMeters>
            <DistanceMeters>NAN</DistanceMeters>
          </Trackpoint>
          <Trackpoint>
            <Time>2019-10-05T11:39:29.000Z</Time>
            <Position>
              <LatitudeDegrees>41.999608576297760009765625</LatitudeDegrees>
              <LongitudeDegrees>-5.67480250261723995208740234375</LongitudeDegrees>
            </Position>
            <AltitudeMeters>612</AltitudeMeters>
            <DistanceMeters>NAN</DistanceMeters>
          </Trackpoint>
          <Trackpoint>
            <Time>2019-10-05T11:39:42.000Z</Time>
            <Position>
              <LatitudeDegrees>41.999608576297760009765625</LatitudeDegrees>
              <LongitudeDegrees>-5.67480250261723995208740234375</LongitudeDegrees>
            </Position>
            <AltitudeMeters>612</AltitudeMeters>
            <DistanceMeters>NAN</DistanceMeters>
          </Trackpoint>
          <Trackpoint>
            <Time>2019-10-05T11:39:45.000Z</Time>
            <Position>
              <LatitudeDegrees>41.99961033649742603302001953125</LatitudeDegrees>
              <LongitudeDegrees>-5.6747983954846858978271484375</LongitudeDegrees>
            </Position>
            <AltitudeMeters>612</AltitudeMeters>
            <DistanceMeters>NAN</DistanceMeters>
          </Trackpoint>
          <Trackpoint>
            <Time>2019-10-05T11:39:59.000Z</Time>
            <Position>
              <LatitudeDegrees>41.99961033649742603302001953125</LatitudeDegrees>
              <LongitudeDegrees>-5.6747983954846858978271484375</LongitudeDegrees>
            </Position>
            <AltitudeMeters>612.20001220703125</AltitudeMeters>
            <DistanceMeters>NAN</DistanceMeters>
          </Trackpoint>
          <Trackpoint>
            <Time>2019-10-05T11:40:00.000Z</Time>
            <Position>
              <LatitudeDegrees>41.99961033649742603302001953125</LatitudeDegrees>
              <LongitudeDegrees>-5.6747983954846858978271484375</LongitudeDegrees>
            </Position>
            <AltitudeMeters>612.20001220703125</AltitudeMeters>
            <DistanceMeters>NAN</DistanceMeters>
          </Trackpoint>
          <Trackpoint>
            <Time>2019-10-05T11:40:02.000Z</Time>
            <Position>
              <LatitudeDegrees>41.99961033649742603302001953125</LatitudeDegrees>
              <LongitudeDegrees>-5.6747983954846858978271484375</LongitudeDegrees>
            </Position>
            <AltitudeMeters>612.20001220703125</AltitudeMeters>
            <DistanceMeters>NAN</DistanceMeters>
          </Trackpoint>
          <Trackpoint>
            <Time>2019-10-05T11:40:04.000Z</Time>
            <Position>
              <LatitudeDegrees>41.99961033649742603302001953125</LatitudeDegrees>
              <LongitudeDegrees>-5.6747983954846858978271484375</LongitudeDegrees>
            </Position>
            <AltitudeMeters>612.20001220703125</AltitudeMeters>
            <DistanceMeters>NAN</DistanceMeters>
          </Trackpoint>
          <Trackpoint>
            <Time>2019-10-05T11:40:09.000Z</Time>
            <Position>
              <LatitudeDegrees>41.99961033649742603302001953125</LatitudeDegrees>
              <LongitudeDegrees>-5.6747983954846858978271484375</LongitudeDegrees>
            </Position>
            <AltitudeMeters>612.20001220703125</AltitudeMeters>
            <DistanceMeters>NAN</DistanceMeters>
          </Trackpoint>
          <Trackpoint>
            <Time>2019-10-05T11:40:11.000Z</Time>
            <Position>
              <LatitudeDegrees>41.99961033649742603302001953125</LatitudeDegrees>
              <LongitudeDegrees>-5.6747983954846858978271484375</LongitudeDegrees>
            </Position>
            <AltitudeMeters>612.20001220703125</AltitudeMeters>
            <DistanceMeters>NAN</DistanceMeters>
          </Trackpoint>
          <Trackpoint>
            <Time>2019-10-05T11:40:15.000Z</Time>
            <Position>
              <LatitudeDegrees>41.99961033649742603302001953125</LatitudeDegrees>
              <LongitudeDegrees>-5.6747983954846858978271484375</LongitudeDegrees>
            </Position>
            <AltitudeMeters>612</AltitudeMeters>
            <DistanceMeters>NAN</DistanceMeters>
          </Trackpoint>
          <Trackpoint>
            <Time>2019-10-05T11:40:19.000Z</Time>
            <Position>
              <LatitudeDegrees>41.99961033649742603302001953125</LatitudeDegrees>
              <LongitudeDegrees>-5.6747983954846858978271484375</LongitudeDegrees>
            </Position>
            <AltitudeMeters>612.20001220703125</AltitudeMeters>
            <DistanceMeters>NAN</DistanceMeters>
          </Trackpoint>
          <Trackpoint>
            <Time>2019-10-05T11:40:22.000Z</Time>
            <Position>
              <LatitudeDegrees>41.99961033649742603302001953125</LatitudeDegrees>
              <LongitudeDegrees>-5.6747983954846858978271484375</LongitudeDegrees>
            </Position>
            <AltitudeMeters>612</AltitudeMeters>
            <DistanceMeters>NAN</DistanceMeters>
          </Trackpoint>
          <Trackpoint>
            <Time>2019-10-05T11:40:26.000Z</Time>
            <Position>
              <LatitudeDegrees>41.99961167760193347930908203125</LatitudeDegrees>
              <LongitudeDegrees>-5.67480786703526973724365234375</LongitudeDegrees>
            </Position>
            <AltitudeMeters>612</AltitudeMeters>
            <DistanceMeters>NAN</DistanceMeters>
          </Trackpoint>
          <Trackpoint>
            <Time>2019-10-05T11:40:37.000Z</Time>
            <Position>
              <LatitudeDegrees>41.99963715858757495880126953125</LatitudeDegrees>
              <LongitudeDegrees>-5.67479060031473636627197265625</LongitudeDegrees>
            </Position>
            <AltitudeMeters>611.79998779296875</AltitudeMeters>
            <DistanceMeters>NAN</DistanceMeters>
          </Trackpoint>
          <Trackpoint>
            <Time>2019-10-05T11:40:41.000Z</Time>
            <Position>
              <LatitudeDegrees>41.99970840476453304290771484375</LatitudeDegrees>
              <LongitudeDegrees>-5.6747303344309329986572265625</LongitudeDegrees>
            </Position>
            <AltitudeMeters>612.20001220703125</AltitudeMeters>
            <DistanceMeters>NAN</DistanceMeters>
          </Trackpoint>
          <Trackpoint>
            <Time>2019-10-05T11:40:43.000Z</Time>
            <Position>
              <LatitudeDegrees>41.9997529126703739166259765625</LatitudeDegrees>
              <LongitudeDegrees>-5.67469370551407337188720703125</LongitudeDegrees>
            </Position>
            <AltitudeMeters>612.20001220703125</AltitudeMeters>
            <DistanceMeters>NAN</DistanceMeters>
          </Trackpoint>
          <Trackpoint>
            <Time>2019-10-05T11:40:46.000Z</Time>
            <Position>
              <LatitudeDegrees>41.99982977472245693206787109375</LatitudeDegrees>
              <LongitudeDegrees>-5.6746478565037250518798828125</LongitudeDegrees>
            </Position>
            <AltitudeMeters>612</AltitudeMeters>
            <DistanceMeters>NAN</DistanceMeters>
          </Trackpoint>
          <Trackpoint>
            <Time>2019-10-05T11:40:51.000Z</Time>
            <Position>
              <LatitudeDegrees>41.99996841140091419219970703125</LatitudeDegrees>
              <LongitudeDegrees>-5.6745603494346141815185546875</LongitudeDegrees>
            </Position>
            <AltitudeMeters>612</AltitudeMeters>
            <DistanceMeters>NAN</DistanceMeters>
          </Trackpoint>
          <Trackpoint>
            <Time>2019-10-05T11:40:59.000Z</Time>
            <Position>
              <LatitudeDegrees>42.00022825039923191070556640625</LatitudeDegrees>
              <LongitudeDegrees>-5.6744513846933841705322265625</LongitudeDegrees>
            </Position>
            <AltitudeMeters>611.79998779296875</AltitudeMeters>
            <DistanceMeters>NAN</DistanceMeters>
          </Trackpoint>
          <Trackpoint>
            <Time>2019-10-05T11:41:06.000Z</Time>
            <Position>
              <LatitudeDegrees>42.00046462006866931915283203125</LatitudeDegrees>
              <LongitudeDegrees>-5.67430905997753143310546875</LongitudeDegrees>
            </Position>
            <AltitudeMeters>611.20001220703125</AltitudeMeters>
            <DistanceMeters>NAN</DistanceMeters>
          </Trackpoint>
          <Trackpoint>
            <Time>2019-10-05T11:41:14.000Z</Time>
            <Position>
              <LatitudeDegrees>42.00073770247399806976318359375</LatitudeDegrees>
              <LongitudeDegrees>-5.67411887459456920623779296875</LongitudeDegrees>
            </Position>
            <AltitudeMeters>612.5999755859375</AltitudeMeters>
            <DistanceMeters>NAN</DistanceMeters>
          </Trackpoint>
          <Trackpoint>
            <Time>2019-10-05T11:41:19.000Z</Time>
            <Position>
              <LatitudeDegrees>42.00090936385095119476318359375</LatitudeDegrees>
              <LongitudeDegrees>-5.67400052212178707122802734375</LongitudeDegrees>
            </Position>
            <AltitudeMeters>613</AltitudeMeters>
            <DistanceMeters>NAN</DistanceMeters>
          </Trackpoint>
          <Trackpoint>
            <Time>2019-10-05T11:41:23.000Z</Time>
            <Position>
              <LatitudeDegrees>42.0010554604232311248779296875</LatitudeDegrees>
              <LongitudeDegrees>-5.67391133867204189300537109375</LongitudeDegrees>
            </Position>
            <AltitudeMeters>613.20001220703125</AltitudeMeters>
            <DistanceMeters>NAN</DistanceMeters>
          </Trackpoint>
          <Trackpoint>
            <Time>2019-10-05T11:41:29.000Z</Time>
            <Position>
              <LatitudeDegrees>42.0012837834656238555908203125</LatitudeDegrees>
              <LongitudeDegrees>-5.673780329525470733642578125</LongitudeDegrees>
            </Position>
            <AltitudeMeters>613.4000244140625</AltitudeMeters>
            <DistanceMeters>NAN</DistanceMeters>
          </Trackpoint>
          <Trackpoint>
            <Time>2019-10-05T11:41:33.000Z</Time>
            <Position>
              <LatitudeDegrees>42.001438848674297332763671875</LatitudeDegrees>
              <LongitudeDegrees>-5.67367874085903167724609375</LongitudeDegrees>
            </Position>
            <AltitudeMeters>613.20001220703125</AltitudeMeters>
            <DistanceMeters>NAN</DistanceMeters>
          </Trackpoint>
          <Trackpoint>
            <Time>2019-10-05T11:41:45.000Z</Time>
            <Position>
              <LatitudeDegrees>42.001904547214508056640625</LatitudeDegrees>
              <LongitudeDegrees>-5.67338026128709316253662109375</LongitudeDegrees>
            </Position>
            <AltitudeMeters>613</AltitudeMeters>
            <DistanceMeters>NAN</DistanceMeters>
          </Trackpoint>
          <Trackpoint>
            <Time>2019-10-05T11:41:56.000Z</Time>
            <Position>
              <LatitudeDegrees>42.00233981944620609283447265625</LatitudeDegrees>
              <LongitudeDegrees>-5.67310550250113010406494140625</LongitudeDegrees>
            </Position>
            <AltitudeMeters>613</AltitudeMeters>
            <DistanceMeters>NAN</DistanceMeters>
          </Trackpoint>
          <Trackpoint>
            <Time>2019-10-05T11:42:02.000Z</Time>
            <Position>
              <LatitudeDegrees>42.0025206170976161956787109375</LatitudeDegrees>
              <LongitudeDegrees>-5.6729376129806041717529296875</LongitudeDegrees>
            </Position>
            <AltitudeMeters>613.5999755859375</AltitudeMeters>
            <DistanceMeters>NAN</DistanceMeters>
          </Trackpoint>
          <Trackpoint>
            <Time>2019-10-05T11:42:03.000Z</Time>
            <Position>
              <LatitudeDegrees>42.00254090130329132080078125</LatitudeDegrees>
              <LongitudeDegrees>-5.6729191727936267852783203125</LongitudeDegrees>
            </Position>
            <AltitudeMeters>613.79998779296875</AltitudeMeters>
            <DistanceMeters>NAN</DistanceMeters>
          </Trackpoint>
          <Trackpoint>
            <Time>2019-10-05T11:42:06.000Z</Time>
            <Position>
              <LatitudeDegrees>42.00261390767991542816162109375</LatitudeDegrees>
              <LongitudeDegrees>-5.67286963574588298797607421875</LongitudeDegrees>
            </Position>
            <AltitudeMeters>613.5999755859375</AltitudeMeters>
            <DistanceMeters>NAN</DistanceMeters>
          </Trackpoint>
          <Trackpoint>
            <Time>2019-10-05T11:42:08.000Z</Time>
            <Position>
              <LatitudeDegrees>42.00265489518642425537109375</LatitudeDegrees>
              <LongitudeDegrees>-5.67281649447977542877197265625</LongitudeDegrees>
            </Position>
            <AltitudeMeters>613.5999755859375</AltitudeMeters>
            <DistanceMeters>NAN</DistanceMeters>
          </Trackpoint>
          <Trackpoint>
            <Time>2019-10-05T11:42:12.000Z</Time>
            <Position>
              <LatitudeDegrees>42.002661935985088348388671875</LatitudeDegrees>
              <LongitudeDegrees>-5.67263527773320674896240234375</LongitudeDegrees>
            </Position>
            <AltitudeMeters>613.20001220703125</AltitudeMeters>
            <DistanceMeters>NAN</DistanceMeters>
          </Trackpoint>
          <Trackpoint>
            <Time>2019-10-05T11:42:13.000Z</Time>
            <Position>
              <LatitudeDegrees>42.0026443339884281158447265625</LatitudeDegrees>
              <LongitudeDegrees>-5.67258381284773349761962890625</LongitudeDegrees>
            </Position>
            <AltitudeMeters>612.79998779296875</AltitudeMeters>
            <DistanceMeters>NAN</DistanceMeters>
          </Trackpoint>
          <Trackpoint>
            <Time>2019-10-05T11:42:14.000Z</Time>
            <Position>
              <LatitudeDegrees>42.002630420029163360595703125</LatitudeDegrees>
              <LongitudeDegrees>-5.672526396811008453369140625</LongitudeDegrees>
            </Position>
            <AltitudeMeters>612.4000244140625</AltitudeMeters>
            <DistanceMeters>NAN</DistanceMeters>
          </Trackpoint>
          <Trackpoint>
            <Time>2019-10-05T11:42:15.000Z</Time>
            <Position>
              <LatitudeDegrees>42.00260871089994907379150390625</LatitudeDegrees>
              <LongitudeDegrees>-5.6724719144403934478759765625</LongitudeDegrees>
            </Position>
            <AltitudeMeters>612.5999755859375</AltitudeMeters>
            <DistanceMeters>NAN</DistanceMeters>
          </Trackpoint>
          <Trackpoint>
            <Time>2019-10-05T11:42:16.000Z</Time>
            <Position>
              <LatitudeDegrees>42.00258775614202022552490234375</LatitudeDegrees>
              <LongitudeDegrees>-5.67241315729916095733642578125</LongitudeDegrees>
            </Position>
            <AltitudeMeters>612.4000244140625</AltitudeMeters>
            <DistanceMeters>NAN</DistanceMeters>
          </Trackpoint>
          <Trackpoint>
            <Time>2019-10-05T11:42:19.000Z</Time>
            <Position>
              <LatitudeDegrees>42.00251550413668155670166015625</LatitudeDegrees>
              <LongitudeDegrees>-5.672235377132892608642578125</LongitudeDegrees>
            </Position>
            <AltitudeMeters>611.5999755859375</AltitudeMeters>
            <DistanceMeters>NAN</DistanceMeters>
          </Trackpoint>
          <Trackpoint>
            <Time>2019-10-05T11:42:20.000Z</Time>
            <Position>
              <LatitudeDegrees>42.002488933503627777099609375</LatitudeDegrees>
              <LongitudeDegrees>-5.67216840572655200958251953125</LongitudeDegrees>
            </Position>
            <AltitudeMeters>611.20001220703125</AltitudeMeters>
            <DistanceMeters>NAN</DistanceMeters>
          </Trackpoint>
          <Trackpoint>
            <Time>2019-10-05T11:42:22.000Z</Time>
            <Position>
              <LatitudeDegrees>42.0024404861032962799072265625</LatitudeDegrees>
              <LongitudeDegrees>-5.67205332219600677490234375</LongitudeDegrees>
            </Position>
            <AltitudeMeters>611.4000244140625</AltitudeMeters>
            <DistanceMeters>NAN</DistanceMeters>
          </Trackpoint>
          <Trackpoint>
            <Time>2019-10-05T11:42:28.000Z</Time>
            <Position>
              <LatitudeDegrees>42.00229103676974773406982421875</LatitudeDegrees>
              <LongitudeDegrees>-5.67168963141739368438720703125</LongitudeDegrees>
            </Position>
            <AltitudeMeters>611</AltitudeMeters>
            <DistanceMeters>NAN</DistanceMeters>
          </Trackpoint>
          <Trackpoint>
            <Time>2019-10-05T11:42:30.000Z</Time>
            <Position>
              <LatitudeDegrees>42.00224309228360652923583984375</LatitudeDegrees>
              <LongitudeDegrees>-5.67157882265746593475341796875</LongitudeDegrees>
            </Position>
            <AltitudeMeters>611</AltitudeMeters>
            <DistanceMeters>NAN</DistanceMeters>
          </Trackpoint>
          <Trackpoint>
            <Time>2019-10-05T11:42:35.000Z</Time>
            <Position>
              <LatitudeDegrees>42.002130858600139617919921875</LatitudeDegrees>
              <LongitudeDegrees>-5.67130959592759609222412109375</LongitudeDegrees>
            </Position>
            <AltitudeMeters>611</AltitudeMeters>
            <DistanceMeters>NAN</DistanceMeters>
          </Trackpoint>
          <Trackpoint>
            <Time>2019-10-05T11:42:39.000Z</Time>
            <Position>
              <LatitudeDegrees>42.0020373165607452392578125</LatitudeDegrees>
              <LongitudeDegrees>-5.671088732779026031494140625</LongitudeDegrees>
            </Position>
            <AltitudeMeters>610.79998779296875</AltitudeMeters>
            <DistanceMeters>NAN</DistanceMeters>
          </Trackpoint>
          <Trackpoint>
            <Time>2019-10-05T11:42:40.000Z</Time>
            <Position>
              <LatitudeDegrees>42.00201527215540409088134765625</LatitudeDegrees>
              <LongitudeDegrees>-5.67103466950356960296630859375</LongitudeDegrees>
            </Position>
            <AltitudeMeters>610.79998779296875</AltitudeMeters>
            <DistanceMeters>NAN</DistanceMeters>
          </Trackpoint>
          <Trackpoint>
            <Time>2019-10-05T11:42:43.000Z</Time>
            <Position>
              <LatitudeDegrees>42.00195257551968097686767578125</LatitudeDegrees>
              <LongitudeDegrees>-5.6708699651062488555908203125</LongitudeDegrees>
            </Position>
            <AltitudeMeters>611</AltitudeMeters>
            <DistanceMeters>NAN</DistanceMeters>
          </Trackpoint>
          <Trackpoint>
            <Time>2019-10-05T11:42:45.000Z</Time>
            <Position>
              <LatitudeDegrees>42.00191385112702846527099609375</LatitudeDegrees>
              <LongitudeDegrees>-5.6707653589546680450439453125</LongitudeDegrees>
            </Position>
            <AltitudeMeters>611</AltitudeMeters>
            <DistanceMeters>NAN</DistanceMeters>
          </Trackpoint>
          <Trackpoint>
            <Time>2019-10-05T11:42:47.000Z</Time>
            <Position>
              <LatitudeDegrees>42.00187127105891704559326171875</LatitudeDegrees>
              <LongitudeDegrees>-5.67067466676235198974609375</LongitudeDegrees>
            </Position>
            <AltitudeMeters>611</AltitudeMeters>
            <DistanceMeters>NAN</DistanceMeters>
          </Trackpoint>
          <Trackpoint>
            <Time>2019-10-05T11:42:48.000Z</Time>
            <Position>
              <LatitudeDegrees>42.00184763409197330474853515625</LatitudeDegrees>
              <LongitudeDegrees>-5.670632757246494293212890625</LongitudeDegrees>
            </Position>
            <AltitudeMeters>611</AltitudeMeters>
            <DistanceMeters>NAN</DistanceMeters>
          </Trackpoint>
          <Trackpoint>
            <Time>2019-10-05T11:42:49.000Z</Time>
            <Position>
              <LatitudeDegrees>42.00183170847594738006591796875</LatitudeDegrees>
              <LongitudeDegrees>-5.6705856509506702423095703125</LongitudeDegrees>
            </Position>
            <AltitudeMeters>611</AltitudeMeters>
            <DistanceMeters>NAN</DistanceMeters>
          </Trackpoint>
          <Trackpoint>
            <Time>2019-10-05T11:42:51.000Z</Time>
            <Position>
              <LatitudeDegrees>42.001804299652576446533203125</LatitudeDegrees>
              <LongitudeDegrees>-5.670487917959690093994140625</LongitudeDegrees>
            </Position>
            <AltitudeMeters>611</AltitudeMeters>
            <DistanceMeters>NAN</DistanceMeters>
          </Trackpoint>
          <Trackpoint>
            <Time>2019-10-05T11:42:53.000Z</Time>
            <Position>
              <LatitudeDegrees>42.0017642341554164886474609375</LatitudeDegrees>
              <LongitudeDegrees>-5.6704005785286426544189453125</LongitudeDegrees>
            </Position>
            <AltitudeMeters>610.5999755859375</AltitudeMeters>
            <DistanceMeters>NAN</DistanceMeters>
          </Trackpoint>
          <Trackpoint>
            <Time>2019-10-05T11:43:01.000Z</Time>
            <Position>
              <LatitudeDegrees>42.00163423083722591400146484375</LatitudeDegrees>
              <LongitudeDegrees>-5.67009933292865753173828125</LongitudeDegrees>
            </Position>
            <AltitudeMeters>611.20001220703125</AltitudeMeters>
            <DistanceMeters>NAN</DistanceMeters>
          </Trackpoint>
          <Trackpoint>
            <Time>2019-10-05T11:43:07.000Z</Time>
            <Position>
              <LatitudeDegrees>42.00152174569666385650634765625</LatitudeDegrees>
              <LongitudeDegrees>-5.66985684446990489959716796875</LongitudeDegrees>
            </Position>
            <AltitudeMeters>611.20001220703125</AltitudeMeters>
            <DistanceMeters>NAN</DistanceMeters>
          </Trackpoint>
          <Trackpoint>
            <Time>2019-10-05T11:43:09.000Z</Time>
            <Position>
              <LatitudeDegrees>42.001496516168117523193359375</LatitudeDegrees>
              <LongitudeDegrees>-5.66975533962249755859375</LongitudeDegrees>
            </Position>
            <AltitudeMeters>610.79998779296875</AltitudeMeters>
            <DistanceMeters>NAN</DistanceMeters>
          </Trackpoint>
          <Trackpoint>
            <Time>2019-10-05T11:43:11.000Z</Time>
            <Position>
              <LatitudeDegrees>42.00146458111703395843505859375</LatitudeDegrees>
              <LongitudeDegrees>-5.66965132020413875579833984375</LongitudeDegrees>
            </Position>
            <AltitudeMeters>610.79998779296875</AltitudeMeters>
            <DistanceMeters>NAN</DistanceMeters>
          </Trackpoint>
          <Trackpoint>
            <Time>2019-10-05T11:43:15.000Z</Time>
            <Position>
              <LatitudeDegrees>42.00139584951102733612060546875</LatitudeDegrees>
              <LongitudeDegrees>-5.6694607995450496673583984375</LongitudeDegrees>
            </Position>
            <AltitudeMeters>610.4000244140625</AltitudeMeters>
            <DistanceMeters>NAN</DistanceMeters>
          </Trackpoint>
          <Trackpoint>
            <Time>2019-10-05T11:43:23.000Z</Time>
            <Position>
              <LatitudeDegrees>42.00125075876712799072265625</LatitudeDegrees>
              <LongitudeDegrees>-5.66906928084790706634521484375</LongitudeDegrees>
            </Position>
            <AltitudeMeters>610.5999755859375</AltitudeMeters>
            <DistanceMeters>NAN</DistanceMeters>
          </Trackpoint>
          <Trackpoint>
            <Time>2019-10-05T11:43:25.000Z</Time>
            <Position>
              <LatitudeDegrees>42.00121111236512660980224609375</LatitudeDegrees>
              <LongitudeDegrees>-5.668970458209514617919921875</LongitudeDegrees>
            </Position>
            <AltitudeMeters>611</AltitudeMeters>
            <DistanceMeters>NAN</DistanceMeters>
          </Trackpoint>
          <Trackpoint>
            <Time>2019-10-05T11:43:34.000Z</Time>
            <Position>
              <LatitudeDegrees>42.001031823456287384033203125</LatitudeDegrees>
              <LongitudeDegrees>-5.668511129915714263916015625</LongitudeDegrees>
            </Position>
            <AltitudeMeters>610.79998779296875</AltitudeMeters>
            <DistanceMeters>NAN</DistanceMeters>
          </Trackpoint>
          <Trackpoint>
            <Time>2019-10-05T11:43:44.000Z</Time>
            <Position>
              <LatitudeDegrees>42.00081448070704936981201171875</LatitudeDegrees>
              <LongitudeDegrees>-5.6679993309080600738525390625</LongitudeDegrees>
            </Position>
            <AltitudeMeters>610.4000244140625</AltitudeMeters>
            <DistanceMeters>NAN</DistanceMeters>
          </Trackpoint>
          <Trackpoint>
            <Time>2019-10-05T11:43:45.000Z</Time>
            <Position>
              <LatitudeDegrees>42.000793106853961944580078125</LatitudeDegrees>
              <LongitudeDegrees>-5.66794627346098423004150390625</LongitudeDegrees>
            </Position>
            <AltitudeMeters>610.20001220703125</AltitudeMeters>
            <DistanceMeters>NAN</DistanceMeters>
          </Trackpoint>
          <Trackpoint>
            <Time>2019-10-05T11:43:51.000Z</Time>
            <Position>
              <LatitudeDegrees>42.00066444464027881622314453125</LatitudeDegrees>
              <LongitudeDegrees>-5.66762826405465602874755859375</LongitudeDegrees>
            </Position>
            <AltitudeMeters>610.5999755859375</AltitudeMeters>
            <DistanceMeters>NAN</DistanceMeters>
          </Trackpoint>
          <Trackpoint>
            <Time>2019-10-05T11:43:54.000Z</Time>
            <Position>
              <LatitudeDegrees>42.00060308910906314849853515625</LatitudeDegrees>
              <LongitudeDegrees>-5.66747085191309452056884765625</LongitudeDegrees>
            </Position>
            <AltitudeMeters>610</AltitudeMeters>
            <DistanceMeters>NAN</DistanceMeters>
          </Trackpoint>
          <Trackpoint>
            <Time>2019-10-05T11:44:03.000Z</Time>
            <Position>
              <LatitudeDegrees>42.00041365809738636016845703125</LatitudeDegrees>
              <LongitudeDegrees>-5.6670022197067737579345703125</LongitudeDegrees>
            </Position>
            <AltitudeMeters>610.4000244140625</AltitudeMeters>
            <DistanceMeters>NAN</DistanceMeters>
          </Trackpoint>
          <Trackpoint>
            <Time>2019-10-05T11:44:07.000Z</Time>
            <Position>
              <LatitudeDegrees>42.00032179243862628936767578125</LatitudeDegrees>
              <LongitudeDegrees>-5.66677473485469818115234375</LongitudeDegrees>
            </Position>
            <AltitudeMeters>610.20001220703125</AltitudeMeters>
            <DistanceMeters>NAN</DistanceMeters>
          </Trackpoint>
          <Trackpoint>
            <Time>2019-10-05T11:44:11.000Z</Time>
            <Position>
              <LatitudeDegrees>42.0002497918903827667236328125</LatitudeDegrees>
              <LongitudeDegrees>-5.666598714888095855712890625</LongitudeDegrees>
            </Position>
            <AltitudeMeters>610.79998779296875</AltitudeMeters>
            <DistanceMeters>NAN</DistanceMeters>
          </Trackpoint>
          <Trackpoint>
            <Time>2019-10-05T11:44:20.000Z</Time>
            <Position>
              <LatitudeDegrees>42.0000788010656833648681640625</LatitudeDegrees>
              <LongitudeDegrees>-5.66617987118661403656005859375</LongitudeDegrees>
            </Position>
            <AltitudeMeters>610.5999755859375</AltitudeMeters>
            <DistanceMeters>NAN</DistanceMeters>
          </Trackpoint>
          <Trackpoint>
            <Time>2019-10-05T11:44:28.000Z</Time>
            <Position>
              <LatitudeDegrees>41.999921388924121856689453125</LatitudeDegrees>
              <LongitudeDegrees>-5.66579866223037242889404296875</LongitudeDegrees>
            </Position>
            <AltitudeMeters>610.20001220703125</AltitudeMeters>
            <DistanceMeters>NAN</DistanceMeters>
          </Trackpoint>
          <Trackpoint>
            <Time>2019-10-05T11:44:29.000Z</Time>
            <Position>
              <LatitudeDegrees>41.99990487657487392425537109375</LatitudeDegrees>
              <LongitudeDegrees>-5.6657526455819606781005859375</LongitudeDegrees>
            </Position>
            <AltitudeMeters>610.20001220703125</AltitudeMeters>
            <DistanceMeters>NAN</DistanceMeters>
          </Trackpoint>
          <Trackpoint>
            <Time>2019-10-05T11:44:36.000Z</Time>
            <Position>
              <LatitudeDegrees>41.99975567869842052459716796875</LatitudeDegrees>
              <LongitudeDegrees>-5.66541342996060848236083984375</LongitudeDegrees>
            </Position>
            <AltitudeMeters>610.20001220703125</AltitudeMeters>
            <DistanceMeters>NAN</DistanceMeters>
          </Trackpoint>
          <Trackpoint>
            <Time>2019-10-05T11:44:37.000Z</Time>
            <Position>
              <LatitudeDegrees>41.99972466565668582916259765625</LatitudeDegrees>
              <LongitudeDegrees>-5.66537386737763881683349609375</LongitudeDegrees>
            </Position>
            <AltitudeMeters>610.4000244140625</AltitudeMeters>
            <DistanceMeters>NAN</DistanceMeters>
          </Trackpoint>
          <Trackpoint>
            <Time>2019-10-05T11:44:39.000Z</Time>
            <Position>
              <LatitudeDegrees>41.99966163374483585357666015625</LatitudeDegrees>
              <LongitudeDegrees>-5.66529474221169948577880859375</LongitudeDegrees>
            </Position>
            <AltitudeMeters>610</AltitudeMeters>
            <DistanceMeters>NAN</DistanceMeters>
          </Trackpoint>
          <Trackpoint>
            <Time>2019-10-05T11:44:42.000Z</Time>
            <Position>
              <LatitudeDegrees>41.999616287648677825927734375</LatitudeDegrees>
              <LongitudeDegrees>-5.66512911580502986907958984375</LongitudeDegrees>
            </Position>
            <AltitudeMeters>609.5999755859375</AltitudeMeters>
            <DistanceMeters>NAN</DistanceMeters>
          </Trackpoint>
          <Trackpoint>
            <Time>2019-10-05T11:44:44.000Z</Time>
            <Position>
              <LatitudeDegrees>41.9995946623384952545166015625</LatitudeDegrees>
              <LongitudeDegrees>-5.66501646302640438079833984375</LongitudeDegrees>
            </Position>
            <AltitudeMeters>610</AltitudeMeters>
            <DistanceMeters>NAN</DistanceMeters>
          </Trackpoint>
          <Trackpoint>
            <Time>2019-10-05T11:44:48.000Z</Time>
            <Position>
              <LatitudeDegrees>41.99951260350644588470458984375</LatitudeDegrees>
              <LongitudeDegrees>-5.66480674780905246734619140625</LongitudeDegrees>
            </Position>
            <AltitudeMeters>609.79998779296875</AltitudeMeters>
            <DistanceMeters>NAN</DistanceMeters>
          </Trackpoint>
          <Trackpoint>
            <Time>2019-10-05T11:44:59.000Z</Time>
            <Position>
              <LatitudeDegrees>41.9992841966450214385986328125</LatitudeDegrees>
              <LongitudeDegrees>-5.664232671260833740234375</LongitudeDegrees>
            </Position>
            <AltitudeMeters>609.4000244140625</AltitudeMeters>
            <DistanceMeters>NAN</DistanceMeters>
          </Trackpoint>
          <Trackpoint>
            <Time>2019-10-05T11:45:11.000Z</Time>
            <Position>
              <LatitudeDegrees>41.9990439713001251220703125</LatitudeDegrees>
              <LongitudeDegrees>-5.6636085547506809234619140625</LongitudeDegrees>
            </Position>
            <AltitudeMeters>609.5999755859375</AltitudeMeters>
            <DistanceMeters>NAN</DistanceMeters>
          </Trackpoint>
          <Trackpoint>
            <Time>2019-10-05T11:45:16.000Z</Time>
            <Position>
              <LatitudeDegrees>41.9989447295665740966796875</LatitudeDegrees>
              <LongitudeDegrees>-5.663368664681911468505859375</LongitudeDegrees>
            </Position>
            <AltitudeMeters>609.79998779296875</AltitudeMeters>
            <DistanceMeters>NAN</DistanceMeters>
          </Trackpoint>
          <Trackpoint>
            <Time>2019-10-05T11:45:18.000Z</Time>
            <Position>
              <LatitudeDegrees>41.99890357442200183868408203125</LatitudeDegrees>
              <LongitudeDegrees>-5.66326732747256755828857421875</LongitudeDegrees>
            </Position>
            <AltitudeMeters>609.4000244140625</AltitudeMeters>
            <DistanceMeters>NAN</DistanceMeters>
          </Trackpoint>
          <Trackpoint>
            <Time>2019-10-05T11:45:24.000Z</Time>
            <Position>
              <LatitudeDegrees>41.9987812824547290802001953125</LatitudeDegrees>
              <LongitudeDegrees>-5.66295686177909374237060546875</LongitudeDegrees>
            </Position>
            <AltitudeMeters>609.4000244140625</AltitudeMeters>
            <DistanceMeters>NAN</DistanceMeters>
          </Trackpoint>
          <Trackpoint>
            <Time>2019-10-05T11:45:25.000Z</Time>
            <Position>
              <LatitudeDegrees>41.99875764548778533935546875</LatitudeDegrees>
              <LongitudeDegrees>-5.6629118509590625762939453125</LongitudeDegrees>
            </Position>
            <AltitudeMeters>609.5999755859375</AltitudeMeters>
            <DistanceMeters>NAN</DistanceMeters>
          </Trackpoint>
          <Trackpoint>
            <Time>2019-10-05T11:45:26.000Z</Time>
            <Position>
              <LatitudeDegrees>41.99871783144772052764892578125</LatitudeDegrees>
              <LongitudeDegrees>-5.66280598752200603485107421875</LongitudeDegrees>
            </Position>
            <AltitudeMeters>609.5999755859375</AltitudeMeters>
            <DistanceMeters>NAN</DistanceMeters>
          </Trackpoint>
          <Trackpoint>
            <Time>2019-10-05T11:45:29.000Z</Time>
            <Position>
              <LatitudeDegrees>41.99867927469313144683837890625</LatitudeDegrees>
              <LongitudeDegrees>-5.66270180046558380126953125</LongitudeDegrees>
            </Position>
            <AltitudeMeters>609.79998779296875</AltitudeMeters>
            <DistanceMeters>NAN</DistanceMeters>
          </Trackpoint>
          <Trackpoint>
            <Time>2019-10-05T11:45:35.000Z</Time>
            <Position>
              <LatitudeDegrees>41.99855002574622631072998046875</LatitudeDegrees>
              <LongitudeDegrees>-5.662399716675281524658203125</LongitudeDegrees>
            </Position>
            <AltitudeMeters>609.4000244140625</AltitudeMeters>
            <DistanceMeters>NAN</DistanceMeters>
          </Trackpoint>
          <Trackpoint>
            <Time>2019-10-05T11:45:38.000Z</Time>
            <Position>
              <LatitudeDegrees>41.99849034659564495086669921875</LatitudeDegrees>
              <LongitudeDegrees>-5.66224372945725917816162109375</LongitudeDegrees>
            </Position>
            <AltitudeMeters>609.5999755859375</AltitudeMeters>
            <DistanceMeters>NAN</DistanceMeters>
          </Trackpoint>
          <Trackpoint>
            <Time>2019-10-05T11:45:42.000Z</Time>
            <Position>
              <LatitudeDegrees>41.998415328562259674072265625</LatitudeDegrees>
              <LongitudeDegrees>-5.66203116439282894134521484375</LongitudeDegrees>
            </Position>
            <AltitudeMeters>609.4000244140625</AltitudeMeters>
            <DistanceMeters>NAN</DistanceMeters>
          </Trackpoint>
          <Trackpoint>
            <Time>2019-10-05T11:45:43.000Z</Time>
            <Position>
              <LatitudeDegrees>41.99839345179498195648193359375</LatitudeDegrees>
              <LongitudeDegrees>-5.6619811244308948516845703125</LongitudeDegrees>
            </Position>
            <AltitudeMeters>610</AltitudeMeters>
            <DistanceMeters>NAN</DistanceMeters>
          </Trackpoint>
          <Trackpoint>
            <Time>2019-10-05T11:45:46.000Z</Time>
            <Position>
              <LatitudeDegrees>41.9983313418924808502197265625</LatitudeDegrees>
              <LongitudeDegrees>-5.6618386320769786834716796875</LongitudeDegrees>
            </Position>
            <AltitudeMeters>609.4000244140625</AltitudeMeters>
            <DistanceMeters>NAN</DistanceMeters>
          </Trackpoint>
          <Trackpoint>
            <Time>2019-10-05T11:45:49.000Z</Time>
            <Position>
              <LatitudeDegrees>41.99827208183705806732177734375</LatitudeDegrees>
              <LongitudeDegrees>-5.6616820581257343292236328125</LongitudeDegrees>
            </Position>
            <AltitudeMeters>609.5999755859375</AltitudeMeters>
            <DistanceMeters>NAN</DistanceMeters>
          </Trackpoint>
          <Trackpoint>
            <Time>2019-10-05T11:45:52.000Z</Time>
            <Position>
              <LatitudeDegrees>41.99821407906711101531982421875</LatitudeDegrees>
              <LongitudeDegrees>-5.66152540035545825958251953125</LongitudeDegrees>
            </Position>
            <AltitudeMeters>609.20001220703125</AltitudeMeters>
            <DistanceMeters>NAN</DistanceMeters>
          </Trackpoint>
          <Trackpoint>
            <Time>2019-10-05T11:45:56.000Z</Time>
            <Position>
              <LatitudeDegrees>41.99812598526477813720703125</LatitudeDegrees>
              <LongitudeDegrees>-5.66132104955613613128662109375</LongitudeDegrees>
            </Position>
            <AltitudeMeters>609</AltitudeMeters>
            <DistanceMeters>NAN</DistanceMeters>
          </Trackpoint>
          <Trackpoint>
            <Time>2019-10-05T11:45:58.000Z</Time>
            <Position>
              <LatitudeDegrees>41.99806203134357929229736328125</LatitudeDegrees>
              <LongitudeDegrees>-5.66123622469604015350341796875</LongitudeDegrees>
            </Position>
            <AltitudeMeters>609</AltitudeMeters>
            <DistanceMeters>NAN</DistanceMeters>
          </Trackpoint>
          <Trackpoint>
            <Time>2019-10-05T11:45:59.000Z</Time>
            <Position>
              <LatitudeDegrees>41.99803202413022518157958984375</LatitudeDegrees>
              <LongitudeDegrees>-5.66119515337049961090087890625</LongitudeDegrees>
            </Position>
            <AltitudeMeters>609.20001220703125</AltitudeMeters>
            <DistanceMeters>NAN</DistanceMeters>
          </Trackpoint>
          <Trackpoint>
            <Time>2019-10-05T11:46:01.000Z</Time>
            <Position>
              <LatitudeDegrees>41.99799095280468463897705078125</LatitudeDegrees>
              <LongitudeDegrees>-5.66109515726566314697265625</LongitudeDegrees>
            </Position>
            <AltitudeMeters>609.20001220703125</AltitudeMeters>
            <DistanceMeters>NAN</DistanceMeters>
          </Trackpoint>
          <Trackpoint>
            <Time>2019-10-05T11:46:02.000Z</Time>
            <Position>
              <LatitudeDegrees>41.99798047542572021484375</LatitudeDegrees>
              <LongitudeDegrees>-5.66104209981858730316162109375</LongitudeDegrees>
            </Position>
            <AltitudeMeters>609.20001220703125</AltitudeMeters>
            <DistanceMeters>NAN</DistanceMeters>
          </Trackpoint>
          <Trackpoint>
            <Time>2019-10-05T11:46:04.000Z</Time>
            <Position>
              <LatitudeDegrees>41.99795843102037906646728515625</LatitudeDegrees>
              <LongitudeDegrees>-5.66093288362026214599609375</LongitudeDegrees>
            </Position>
            <AltitudeMeters>609.20001220703125</AltitudeMeters>
            <DistanceMeters>NAN</DistanceMeters>
          </Trackpoint>
          <Trackpoint>
            <Time>2019-10-05T11:46:05.000Z</Time>
            <Position>
              <LatitudeDegrees>41.99794351123273372650146484375</LatitudeDegrees>
              <LongitudeDegrees>-5.66088032908737659454345703125</LongitudeDegrees>
            </Position>
            <AltitudeMeters>609</AltitudeMeters>
            <DistanceMeters>NAN</DistanceMeters>
          </Trackpoint>
          <Trackpoint>
            <Time>2019-10-05T11:46:08.000Z</Time>
            <Position>
              <LatitudeDegrees>41.99788064695894718170166015625</LatitudeDegrees>
              <LongitudeDegrees>-5.6607117690145969390869140625</LongitudeDegrees>
            </Position>
            <AltitudeMeters>608.5999755859375</AltitudeMeters>
            <DistanceMeters>NAN</DistanceMeters>
          </Trackpoint>
          <Trackpoint>
            <Time>2019-10-05T11:46:09.000Z</Time>
            <Position>
              <LatitudeDegrees>41.99786706827580928802490234375</LatitudeDegrees>
              <LongitudeDegrees>-5.66067673265933990478515625</LongitudeDegrees>
            </Position>
            <AltitudeMeters>608.4000244140625</AltitudeMeters>
            <DistanceMeters>NAN</DistanceMeters>
          </Trackpoint>
          <Trackpoint>
            <Time>2019-10-05T11:46:12.000Z</Time>
            <Position>
              <LatitudeDegrees>41.997806467115879058837890625</LatitudeDegrees>
              <LongitudeDegrees>-5.660525858402252197265625</LongitudeDegrees>
            </Position>
            <AltitudeMeters>609.20001220703125</AltitudeMeters>
            <DistanceMeters>NAN</DistanceMeters>
          </Trackpoint>
          <Trackpoint>
            <Time>2019-10-05T11:46:17.000Z</Time>
            <Position>
              <LatitudeDegrees>41.99770630337297916412353515625</LatitudeDegrees>
              <LongitudeDegrees>-5.66027817316353321075439453125</LongitudeDegrees>
            </Position>
            <AltitudeMeters>609</AltitudeMeters>
            <DistanceMeters>NAN</DistanceMeters>
          </Trackpoint>
          <Trackpoint>
            <Time>2019-10-05T11:46:25.000Z</Time>
            <Position>
              <LatitudeDegrees>41.99754436500370502471923828125</LatitudeDegrees>
              <LongitudeDegrees>-5.65987818874418735504150390625</LongitudeDegrees>
            </Position>
            <AltitudeMeters>608.79998779296875</AltitudeMeters>
            <DistanceMeters>NAN</DistanceMeters>
          </Trackpoint>
          <Trackpoint>
            <Time>2019-10-05T11:46:26.000Z</Time>
            <Position>
              <LatitudeDegrees>41.99752592481672763824462890625</LatitudeDegrees>
              <LongitudeDegrees>-5.659828819334506988525390625</LongitudeDegrees>
            </Position>
            <AltitudeMeters>609.20001220703125</AltitudeMeters>
            <DistanceMeters>NAN</DistanceMeters>
          </Trackpoint>
          <Trackpoint>
            <Time>2019-10-05T11:46:37.000Z</Time>
            <Position>
              <LatitudeDegrees>41.99729022569954395294189453125</LatitudeDegrees>
              <LongitudeDegrees>-5.65927569754421710968017578125</LongitudeDegrees>
            </Position>
            <AltitudeMeters>609.79998779296875</AltitudeMeters>
            <DistanceMeters>NAN</DistanceMeters>
          </Trackpoint>
          <Trackpoint>
            <Time>2019-10-05T11:46:44.000Z</Time>
            <Position>
              <LatitudeDegrees>41.997151672840118408203125</LatitudeDegrees>
              <LongitudeDegrees>-5.65891041420400142669677734375</LongitudeDegrees>
            </Position>
            <AltitudeMeters>610.20001220703125</AltitudeMeters>
            <DistanceMeters>NAN</DistanceMeters>
          </Trackpoint>
          <Trackpoint>
            <Time>2019-10-05T11:46:46.000Z</Time>
            <Position>
              <LatitudeDegrees>41.99711403809487819671630859375</LatitudeDegrees>
              <LongitudeDegrees>-5.658805556595325469970703125</LongitudeDegrees>
            </Position>
            <AltitudeMeters>610</AltitudeMeters>
            <DistanceMeters>NAN</DistanceMeters>
          </Trackpoint>
          <Trackpoint>
            <Time>2019-10-05T11:46:55.000Z</Time>
            <Position>
              <LatitudeDegrees>41.9969392754137516021728515625</LatitudeDegrees>
              <LongitudeDegrees>-5.65834530629217624664306640625</LongitudeDegrees>
            </Position>
            <AltitudeMeters>610</AltitudeMeters>
            <DistanceMeters>NAN</DistanceMeters>
          </Trackpoint>
          <Trackpoint>
            <Time>2019-10-05T11:47:01.000Z</Time>
            <Position>
              <LatitudeDegrees>41.99682176113128662109375</LatitudeDegrees>
              <LongitudeDegrees>-5.65805361606180667877197265625</LongitudeDegrees>
            </Position>
            <AltitudeMeters>610</AltitudeMeters>
            <DistanceMeters>NAN</DistanceMeters>
          </Trackpoint>
          <Trackpoint>
            <Time>2019-10-05T11:47:02.000Z</Time>
            <Position>
              <LatitudeDegrees>41.9967917539179325103759765625</LatitudeDegrees>
              <LongitudeDegrees>-5.65801288001239299774169921875</LongitudeDegrees>
            </Position>
            <AltitudeMeters>609.5999755859375</AltitudeMeters>
            <DistanceMeters>NAN</DistanceMeters>
          </Trackpoint>
          <Trackpoint>
            <Time>2019-10-05T11:47:06.000Z</Time>
            <Position>
              <LatitudeDegrees>41.99662051163613796234130859375</LatitudeDegrees>
              <LongitudeDegrees>-5.65791833214461803436279296875</LongitudeDegrees>
            </Position>
            <AltitudeMeters>610</AltitudeMeters>
            <DistanceMeters>NAN</DistanceMeters>
          </Trackpoint>
          <Trackpoint>
            <Time>2019-10-05T11:47:07.000Z</Time>
            <Position>
              <LatitudeDegrees>41.996604166924953460693359375</LatitudeDegrees>
              <LongitudeDegrees>-5.65793895162642002105712890625</LongitudeDegrees>
            </Position>
            <AltitudeMeters>610</AltitudeMeters>
            <DistanceMeters>NAN</DistanceMeters>
          </Trackpoint>
          <Trackpoint>
            <Time>2019-10-05T11:47:10.000Z</Time>
            <Position>
              <LatitudeDegrees>41.9965054281055927276611328125</LatitudeDegrees>
              <LongitudeDegrees>-5.65796543844044208526611328125</LongitudeDegrees>
            </Position>
            <AltitudeMeters>610.79998779296875</AltitudeMeters>
            <DistanceMeters>NAN</DistanceMeters>
          </Trackpoint>
          <Trackpoint>
            <Time>2019-10-05T11:47:14.000Z</Time>
            <Position>
              <LatitudeDegrees>41.996458657085895538330078125</LatitudeDegrees>
              <LongitudeDegrees>-5.65797708928585052490234375</LongitudeDegrees>
            </Position>
            <AltitudeMeters>610.4000244140625</AltitudeMeters>
            <DistanceMeters>NAN</DistanceMeters>
          </Trackpoint>
          <Trackpoint>
            <Time>2019-10-05T11:47:26.000Z</Time>
            <Position>
              <LatitudeDegrees>41.99645957909524440765380859375</LatitudeDegrees>
              <LongitudeDegrees>-5.65797231160104274749755859375</LongitudeDegrees>
            </Position>
            <AltitudeMeters>610.5999755859375</AltitudeMeters>
            <DistanceMeters>NAN</DistanceMeters>
          </Trackpoint>
          <Trackpoint>
            <Time>2019-10-05T11:47:35.000Z</Time>
            <Position>
              <LatitudeDegrees>41.99645957909524440765380859375</LatitudeDegrees>
              <LongitudeDegrees>-5.65797231160104274749755859375</LongitudeDegrees>
            </Position>
            <AltitudeMeters>610.5999755859375</AltitudeMeters>
            <DistanceMeters>NAN</DistanceMeters>
          </Trackpoint>
          <Trackpoint>
            <Time>2019-10-05T11:47:37.000Z</Time>
            <Position>
              <LatitudeDegrees>41.99645957909524440765380859375</LatitudeDegrees>
              <LongitudeDegrees>-5.65797231160104274749755859375</LongitudeDegrees>
            </Position>
            <AltitudeMeters>610.5999755859375</AltitudeMeters>
            <DistanceMeters>NAN</DistanceMeters>
          </Trackpoint>
          <Trackpoint>
            <Time>2019-10-05T11:47:39.000Z</Time>
            <Position>
              <LatitudeDegrees>41.99645957909524440765380859375</LatitudeDegrees>
              <LongitudeDegrees>-5.65797231160104274749755859375</LongitudeDegrees>
            </Position>
            <AltitudeMeters>610.4000244140625</AltitudeMeters>
            <DistanceMeters>NAN</DistanceMeters>
          </Trackpoint>
          <Trackpoint>
            <Time>2019-10-05T11:47:43.000Z</Time>
            <Position>
              <LatitudeDegrees>41.99645957909524440765380859375</LatitudeDegrees>
              <LongitudeDegrees>-5.65797231160104274749755859375</LongitudeDegrees>
            </Position>
            <AltitudeMeters>610.4000244140625</AltitudeMeters>
            <DistanceMeters>NAN</DistanceMeters>
          </Trackpoint>
          <Trackpoint>
            <Time>2019-10-05T11:47:49.000Z</Time>
            <Position>
              <LatitudeDegrees>41.99645957909524440765380859375</LatitudeDegrees>
              <LongitudeDegrees>-5.65797231160104274749755859375</LongitudeDegrees>
            </Position>
            <AltitudeMeters>610.4000244140625</AltitudeMeters>
            <DistanceMeters>NAN</DistanceMeters>
          </Trackpoint>
          <Trackpoint>
            <Time>2019-10-05T11:47:59.000Z</Time>
            <Position>
              <LatitudeDegrees>41.9964564777910709381103515625</LatitudeDegrees>
              <LongitudeDegrees>-5.6579725630581378936767578125</LongitudeDegrees>
            </Position>
            <AltitudeMeters>610.5999755859375</AltitudeMeters>
            <DistanceMeters>NAN</DistanceMeters>
          </Trackpoint>
          <Trackpoint>
            <Time>2019-10-05T11:48:00.000Z</Time>
            <Position>
              <LatitudeDegrees>41.9964564777910709381103515625</LatitudeDegrees>
              <LongitudeDegrees>-5.6579725630581378936767578125</LongitudeDegrees>
            </Position>
            <AltitudeMeters>610.5999755859375</AltitudeMeters>
            <DistanceMeters>NAN</DistanceMeters>
          </Trackpoint>
          <Trackpoint>
            <Time>2019-10-05T11:48:02.000Z</Time>
            <Position>
              <LatitudeDegrees>41.9964564777910709381103515625</LatitudeDegrees>
              <LongitudeDegrees>-5.6579725630581378936767578125</LongitudeDegrees>
            </Position>
            <AltitudeMeters>610.5999755859375</AltitudeMeters>
            <DistanceMeters>NAN</DistanceMeters>
          </Trackpoint>
          <Trackpoint>
            <Time>2019-10-05T11:48:05.000Z</Time>
            <Position>
              <LatitudeDegrees>41.9964564777910709381103515625</LatitudeDegrees>
              <LongitudeDegrees>-5.6579725630581378936767578125</LongitudeDegrees>
            </Position>
            <AltitudeMeters>610.4000244140625</AltitudeMeters>
            <DistanceMeters>NAN</DistanceMeters>
          </Trackpoint>
          <Trackpoint>
            <Time>2019-10-05T11:48:14.000Z</Time>
            <Position>
              <LatitudeDegrees>41.9964564777910709381103515625</LatitudeDegrees>
              <LongitudeDegrees>-5.6579725630581378936767578125</LongitudeDegrees>
            </Position>
            <AltitudeMeters>610.4000244140625</AltitudeMeters>
            <DistanceMeters>NAN</DistanceMeters>
          </Trackpoint>
          <Trackpoint>
            <Time>2019-10-05T11:48:18.000Z</Time>
            <Position>
              <LatitudeDegrees>41.9964564777910709381103515625</LatitudeDegrees>
              <LongitudeDegrees>-5.6579725630581378936767578125</LongitudeDegrees>
            </Position>
            <AltitudeMeters>610.5999755859375</AltitudeMeters>
            <DistanceMeters>NAN</DistanceMeters>
          </Trackpoint>
          <Trackpoint>
            <Time>2019-10-05T11:48:23.000Z</Time>
            <Position>
              <LatitudeDegrees>41.9964564777910709381103515625</LatitudeDegrees>
              <LongitudeDegrees>-5.6579725630581378936767578125</LongitudeDegrees>
            </Position>
            <AltitudeMeters>610.5999755859375</AltitudeMeters>
            <DistanceMeters>NAN</DistanceMeters>
          </Trackpoint>
          <Trackpoint>
            <Time>2019-10-05T11:48:28.000Z</Time>
            <Position>
              <LatitudeDegrees>41.9964564777910709381103515625</LatitudeDegrees>
              <LongitudeDegrees>-5.6579725630581378936767578125</LongitudeDegrees>
            </Position>
            <AltitudeMeters>610.5999755859375</AltitudeMeters>
            <DistanceMeters>NAN</DistanceMeters>
          </Trackpoint>
          <Trackpoint>
            <Time>2019-10-05T11:48:34.000Z</Time>
            <Position>
              <LatitudeDegrees>41.99645086191594600677490234375</LatitudeDegrees>
              <LongitudeDegrees>-5.6579762510955333709716796875</LongitudeDegrees>
            </Position>
            <AltitudeMeters>610.5999755859375</AltitudeMeters>
            <DistanceMeters>NAN</DistanceMeters>
          </Trackpoint>
          <Trackpoint>
            <Time>2019-10-05T11:48:36.000Z</Time>
            <Position>
              <LatitudeDegrees>41.99641582556068897247314453125</LatitudeDegrees>
              <LongitudeDegrees>-5.65796560607850551605224609375</LongitudeDegrees>
            </Position>
            <AltitudeMeters>610.5999755859375</AltitudeMeters>
            <DistanceMeters>NAN</DistanceMeters>
          </Trackpoint>
          <Trackpoint>
            <Time>2019-10-05T11:48:39.000Z</Time>
            <Position>
              <LatitudeDegrees>41.99634608812630176544189453125</LatitudeDegrees>
              <LongitudeDegrees>-5.6579356826841831207275390625</LongitudeDegrees>
            </Position>
            <AltitudeMeters>610.4000244140625</AltitudeMeters>
            <DistanceMeters>NAN</DistanceMeters>
          </Trackpoint>
          <Trackpoint>
            <Time>2019-10-05T11:48:41.000Z</Time>
            <Position>
              <LatitudeDegrees>41.996295042335987091064453125</LatitudeDegrees>
              <LongitudeDegrees>-5.6578927673399448394775390625</LongitudeDegrees>
            </Position>
            <AltitudeMeters>610</AltitudeMeters>
            <DistanceMeters>NAN</DistanceMeters>
          </Trackpoint>
          <Trackpoint>
            <Time>2019-10-05T11:48:42.000Z</Time>
            <Position>
              <LatitudeDegrees>41.9962703995406627655029296875</LatitudeDegrees>
              <LongitudeDegrees>-5.65786502324044704437255859375</LongitudeDegrees>
            </Position>
            <AltitudeMeters>610</AltitudeMeters>
            <DistanceMeters>NAN</DistanceMeters>
          </Trackpoint>
          <Trackpoint>
            <Time>2019-10-05T11:48:47.000Z</Time>
            <Position>
              <LatitudeDegrees>41.99613042175769805908203125</LatitudeDegrees>
              <LongitudeDegrees>-5.657731331884860992431640625</LongitudeDegrees>
            </Position>
            <AltitudeMeters>610.5999755859375</AltitudeMeters>
            <DistanceMeters>NAN</DistanceMeters>
          </Trackpoint>
          <Trackpoint>
            <Time>2019-10-05T11:48:48.000Z</Time>
            <Position>
              <LatitudeDegrees>41.99609563685953617095947265625</LatitudeDegrees>
              <LongitudeDegrees>-5.6577127240598201751708984375</LongitudeDegrees>
            </Position>
            <AltitudeMeters>610.4000244140625</AltitudeMeters>
            <DistanceMeters>NAN</DistanceMeters>
          </Trackpoint>
          <Trackpoint>
            <Time>2019-10-05T11:48:52.000Z</Time>
            <Position>
              <LatitudeDegrees>41.9959438405930995941162109375</LatitudeDegrees>
              <LongitudeDegrees>-5.65766368992626667022705078125</LongitudeDegrees>
            </Position>
            <AltitudeMeters>610</AltitudeMeters>
            <DistanceMeters>NAN</DistanceMeters>
          </Trackpoint>
          <Trackpoint>
            <Time>2019-10-05T11:48:53.000Z</Time>
            <Position>
              <LatitudeDegrees>41.9959052838385105133056640625</LatitudeDegrees>
              <LongitudeDegrees>-5.65764558501541614532470703125</LongitudeDegrees>
            </Position>
            <AltitudeMeters>610</AltitudeMeters>
            <DistanceMeters>NAN</DistanceMeters>
          </Trackpoint>
          <Trackpoint>
            <Time>2019-10-05T11:48:55.000Z</Time>
            <Position>
              <LatitudeDegrees>41.99583060108125209808349609375</LatitudeDegrees>
              <LongitudeDegrees>-5.65760602243244647979736328125</LongitudeDegrees>
            </Position>
            <AltitudeMeters>610</AltitudeMeters>
            <DistanceMeters>NAN</DistanceMeters>
          </Trackpoint>
          <Trackpoint>
            <Time>2019-10-05T11:48:58.000Z</Time>
            <Position>
              <LatitudeDegrees>41.99574627913534641265869140625</LatitudeDegrees>
              <LongitudeDegrees>-5.65749487839639186859130859375</LongitudeDegrees>
            </Position>
            <AltitudeMeters>609.79998779296875</AltitudeMeters>
            <DistanceMeters>NAN</DistanceMeters>
          </Trackpoint>
          <Trackpoint>
            <Time>2019-10-05T11:49:00.000Z</Time>
            <Position>
              <LatitudeDegrees>41.99569682590663433074951171875</LatitudeDegrees>
              <LongitudeDegrees>-5.65740703605115413665771484375</LongitudeDegrees>
            </Position>
            <AltitudeMeters>609.5999755859375</AltitudeMeters>
            <DistanceMeters>NAN</DistanceMeters>
          </Trackpoint>
          <Trackpoint>
            <Time>2019-10-05T11:49:02.000Z</Time>
            <Position>
              <LatitudeDegrees>41.99564837850630283355712890625</LatitudeDegrees>
              <LongitudeDegrees>-5.657323300838470458984375</LongitudeDegrees>
            </Position>
            <AltitudeMeters>609.4000244140625</AltitudeMeters>
            <DistanceMeters>NAN</DistanceMeters>
          </Trackpoint>
          <Trackpoint>
            <Time>2019-10-05T11:49:05.000Z</Time>
            <Position>
              <LatitudeDegrees>41.99556841515004634857177734375</LatitudeDegrees>
              <LongitudeDegrees>-5.657196901738643646240234375</LongitudeDegrees>
            </Position>
            <AltitudeMeters>609.4000244140625</AltitudeMeters>
            <DistanceMeters>NAN</DistanceMeters>
          </Trackpoint>
          <Trackpoint>
            <Time>2019-10-05T11:49:10.000Z</Time>
            <Position>
              <LatitudeDegrees>41.99544788338243961334228515625</LatitudeDegrees>
              <LongitudeDegrees>-5.65695583820343017578125</LongitudeDegrees>
            </Position>
            <AltitudeMeters>609.20001220703125</AltitudeMeters>
            <DistanceMeters>NAN</DistanceMeters>
          </Trackpoint>
          <Trackpoint>
            <Time>2019-10-05T11:49:11.000Z</Time>
            <Position>
              <LatitudeDegrees>41.99542072601616382598876953125</LatitudeDegrees>
              <LongitudeDegrees>-5.6569088995456695556640625</LongitudeDegrees>
            </Position>
            <AltitudeMeters>608.79998779296875</AltitudeMeters>
            <DistanceMeters>NAN</DistanceMeters>
          </Trackpoint>
          <Trackpoint>
            <Time>2019-10-05T11:49:12.000Z</Time>
            <Position>
              <LatitudeDegrees>41.9953936524689197540283203125</LatitudeDegrees>
              <LongitudeDegrees>-5.656860284507274627685546875</LongitudeDegrees>
            </Position>
            <AltitudeMeters>608.79998779296875</AltitudeMeters>
            <DistanceMeters>NAN</DistanceMeters>
          </Trackpoint>
          <Trackpoint>
            <Time>2019-10-05T11:49:20.000Z</Time>
            <Position>
              <LatitudeDegrees>41.9951747171580791473388671875</LatitudeDegrees>
              <LongitudeDegrees>-5.6564792431890964508056640625</LongitudeDegrees>
            </Position>
            <AltitudeMeters>608.4000244140625</AltitudeMeters>
            <DistanceMeters>NAN</DistanceMeters>
          </Trackpoint>
          <Trackpoint>
            <Time>2019-10-05T11:49:22.000Z</Time>
            <Position>
              <LatitudeDegrees>41.99512719176709651947021484375</LatitudeDegrees>
              <LongitudeDegrees>-5.65637991763651371002197265625</LongitudeDegrees>
            </Position>
            <AltitudeMeters>608.4000244140625</AltitudeMeters>
            <DistanceMeters>NAN</DistanceMeters>
          </Trackpoint>
          <Trackpoint>
            <Time>2019-10-05T11:49:25.000Z</Time>
            <Position>
              <LatitudeDegrees>41.9951043091714382171630859375</LatitudeDegrees>
              <LongitudeDegrees>-5.65621093846857547760009765625</LongitudeDegrees>
            </Position>
            <AltitudeMeters>608.20001220703125</AltitudeMeters>
            <DistanceMeters>NAN</DistanceMeters>
          </Trackpoint>
          <Trackpoint>
            <Time>2019-10-05T11:49:28.000Z</Time>
            <Position>
              <LatitudeDegrees>41.99515166692435741424560546875</LatitudeDegrees>
              <LongitudeDegrees>-5.65604045055806636810302734375</LongitudeDegrees>
            </Position>
            <AltitudeMeters>608.20001220703125</AltitudeMeters>
            <DistanceMeters>NAN</DistanceMeters>
          </Trackpoint>
          <Trackpoint>
            <Time>2019-10-05T11:49:29.000Z</Time>
            <Position>
              <LatitudeDegrees>41.9951750524342060089111328125</LatitudeDegrees>
              <LongitudeDegrees>-5.655987896025180816650390625</LongitudeDegrees>
            </Position>
            <AltitudeMeters>608.4000244140625</AltitudeMeters>
            <DistanceMeters>NAN</DistanceMeters>
          </Trackpoint>
          <Trackpoint>
            <Time>2019-10-05T11:49:30.000Z</Time>
            <Position>
              <LatitudeDegrees>41.995199024677276611328125</LatitudeDegrees>
              <LongitudeDegrees>-5.65593768842518329620361328125</LongitudeDegrees>
            </Position>
            <AltitudeMeters>608.20001220703125</AltitudeMeters>
            <DistanceMeters>NAN</DistanceMeters>
          </Trackpoint>
          <Trackpoint>
            <Time>2019-10-05T11:49:35.000Z</Time>
            <Position>
              <LatitudeDegrees>41.995322071015834808349609375</LatitudeDegrees>
              <LongitudeDegrees>-5.65568958409130573272705078125</LongitudeDegrees>
            </Position>
            <AltitudeMeters>608.5999755859375</AltitudeMeters>
            <DistanceMeters>NAN</DistanceMeters>
          </Trackpoint>
          <Trackpoint>
            <Time>2019-10-05T11:49:38.000Z</Time>
            <Position>
              <LatitudeDegrees>41.99539407156407833099365234375</LatitudeDegrees>
              <LongitudeDegrees>-5.6555391289293766021728515625</LongitudeDegrees>
            </Position>
            <AltitudeMeters>608.79998779296875</AltitudeMeters>
            <DistanceMeters>NAN</DistanceMeters>
          </Trackpoint>
          <Trackpoint>
            <Time>2019-10-05T11:49:41.000Z</Time>
            <Position>
              <LatitudeDegrees>41.9954600371420383453369140625</LatitudeDegrees>
              <LongitudeDegrees>-5.65539319999516010284423828125</LongitudeDegrees>
            </Position>
            <AltitudeMeters>608.79998779296875</AltitudeMeters>
            <DistanceMeters>NAN</DistanceMeters>
          </Trackpoint>
          <Trackpoint>
            <Time>2019-10-05T11:49:43.000Z</Time>
            <Position>
              <LatitudeDegrees>41.995504461228847503662109375</LatitudeDegrees>
              <LongitudeDegrees>-5.65529890358448028564453125</LongitudeDegrees>
            </Position>
            <AltitudeMeters>609.4000244140625</AltitudeMeters>
            <DistanceMeters>NAN</DistanceMeters>
          </Trackpoint>
          <Trackpoint>
            <Time>2019-10-05T11:49:44.000Z</Time>
            <Position>
              <LatitudeDegrees>41.995519213378429412841796875</LatitudeDegrees>
              <LongitudeDegrees>-5.6552427448332309722900390625</LongitudeDegrees>
            </Position>
            <AltitudeMeters>609.4000244140625</AltitudeMeters>
            <DistanceMeters>NAN</DistanceMeters>
          </Trackpoint>
          <Trackpoint>
            <Time>2019-10-05T11:49:47.000Z</Time>
            <Position>
              <LatitudeDegrees>41.99548979289829730987548828125</LatitudeDegrees>
              <LongitudeDegrees>-5.655070580542087554931640625</LongitudeDegrees>
            </Position>
            <AltitudeMeters>608.5999755859375</AltitudeMeters>
            <DistanceMeters>NAN</DistanceMeters>
          </Trackpoint>
          <Trackpoint>
            <Time>2019-10-05T11:49:51.000Z</Time>
            <Position>
              <LatitudeDegrees>41.99541100300848484039306640625</LatitudeDegrees>
              <LongitudeDegrees>-5.65484301187098026275634765625</LongitudeDegrees>
            </Position>
            <AltitudeMeters>608.5999755859375</AltitudeMeters>
            <DistanceMeters>NAN</DistanceMeters>
          </Trackpoint>
          <Trackpoint>
            <Time>2019-10-05T11:49:57.000Z</Time>
            <Position>
              <LatitudeDegrees>41.9952766411006450653076171875</LatitudeDegrees>
              <LongitudeDegrees>-5.6545002758502960205078125</LongitudeDegrees>
            </Position>
            <AltitudeMeters>608.4000244140625</AltitudeMeters>
            <DistanceMeters>NAN</DistanceMeters>
          </Trackpoint>
          <Trackpoint>
            <Time>2019-10-05T11:50:00.000Z</Time>
            <Position>
              <LatitudeDegrees>41.99520665220916271209716796875</LatitudeDegrees>
              <LongitudeDegrees>-5.65432920120656490325927734375</LongitudeDegrees>
            </Position>
            <AltitudeMeters>608.79998779296875</AltitudeMeters>
            <DistanceMeters>NAN</DistanceMeters>
          </Trackpoint>
          <Trackpoint>
            <Time>2019-10-05T11:50:07.000Z</Time>
            <Position>
              <LatitudeDegrees>41.9950406067073345184326171875</LatitudeDegrees>
              <LongitudeDegrees>-5.65388143993914127349853515625</LongitudeDegrees>
            </Position>
            <AltitudeMeters>608.4000244140625</AltitudeMeters>
            <DistanceMeters>NAN</DistanceMeters>
          </Trackpoint>
          <Trackpoint>
            <Time>2019-10-05T11:50:17.000Z</Time>
            <Position>
              <LatitudeDegrees>41.99482209049165248870849609375</LatitudeDegrees>
              <LongitudeDegrees>-5.6533413939177989959716796875</LongitudeDegrees>
            </Position>
            <AltitudeMeters>608.4000244140625</AltitudeMeters>
            <DistanceMeters>NAN</DistanceMeters>
          </Trackpoint>
          <Trackpoint>
            <Time>2019-10-05T11:50:22.000Z</Time>
            <Position>
              <LatitudeDegrees>41.99470340274274349212646484375</LatitudeDegrees>
              <LongitudeDegrees>-5.65304593183100223541259765625</LongitudeDegrees>
            </Position>
            <AltitudeMeters>607.79998779296875</AltitudeMeters>
            <DistanceMeters>NAN</DistanceMeters>
          </Trackpoint>
          <Trackpoint>
            <Time>2019-10-05T11:50:25.000Z</Time>
            <Position>
              <LatitudeDegrees>41.99463383294641971588134765625</LatitudeDegrees>
              <LongitudeDegrees>-5.65286739729344844818115234375</LongitudeDegrees>
            </Position>
            <AltitudeMeters>608.20001220703125</AltitudeMeters>
            <DistanceMeters>NAN</DistanceMeters>
          </Trackpoint>
          <Trackpoint>
            <Time>2019-10-05T11:50:32.000Z</Time>
            <Position>
              <LatitudeDegrees>41.99445798061788082122802734375</LatitudeDegrees>
              <LongitudeDegrees>-5.65247043035924434661865234375</LongitudeDegrees>
            </Position>
            <AltitudeMeters>608</AltitudeMeters>
            <DistanceMeters>NAN</DistanceMeters>
          </Trackpoint>
          <Trackpoint>
            <Time>2019-10-05T11:50:33.000Z</Time>
            <Position>
              <LatitudeDegrees>41.99443333782255649566650390625</LatitudeDegrees>
              <LongitudeDegrees>-5.65241418778896331787109375</LongitudeDegrees>
            </Position>
            <AltitudeMeters>608</AltitudeMeters>
            <DistanceMeters>NAN</DistanceMeters>
          </Trackpoint>
          <Trackpoint>
            <Time>2019-10-05T11:50:43.000Z</Time>
            <Position>
              <LatitudeDegrees>41.9941802881658077239990234375</LatitudeDegrees>
              <LongitudeDegrees>-5.65186374820768833160400390625</LongitudeDegrees>
            </Position>
            <AltitudeMeters>607.20001220703125</AltitudeMeters>
            <DistanceMeters>NAN</DistanceMeters>
          </Trackpoint>
          <Trackpoint>
            <Time>2019-10-05T11:50:44.000Z</Time>
            <Position>
              <LatitudeDegrees>41.99414667673408985137939453125</LatitudeDegrees>
              <LongitudeDegrees>-5.65182502381503582000732421875</LongitudeDegrees>
            </Position>
            <AltitudeMeters>607.4000244140625</AltitudeMeters>
            <DistanceMeters>NAN</DistanceMeters>
          </Trackpoint>
          <Trackpoint>
            <Time>2019-10-05T11:50:47.000Z</Time>
            <Position>
              <LatitudeDegrees>41.9940431602299213409423828125</LatitudeDegrees>
              <LongitudeDegrees>-5.65173961222171783447265625</LongitudeDegrees>
            </Position>
            <AltitudeMeters>608.20001220703125</AltitudeMeters>
            <DistanceMeters>NAN</DistanceMeters>
          </Trackpoint>
          <Trackpoint>
            <Time>2019-10-05T11:50:48.000Z</Time>
            <Position>
              <LatitudeDegrees>41.99401206336915493011474609375</LatitudeDegrees>
              <LongitudeDegrees>-5.6517040729522705078125</LongitudeDegrees>
            </Position>
            <AltitudeMeters>608</AltitudeMeters>
            <DistanceMeters>NAN</DistanceMeters>
          </Trackpoint>
          <Trackpoint>
            <Time>2019-10-05T11:50:51.000Z</Time>
            <Position>
              <LatitudeDegrees>41.9939083792269229888916015625</LatitudeDegrees>
              <LongitudeDegrees>-5.651623271405696868896484375</LongitudeDegrees>
            </Position>
            <AltitudeMeters>608.20001220703125</AltitudeMeters>
            <DistanceMeters>NAN</DistanceMeters>
          </Trackpoint>
          <Trackpoint>
            <Time>2019-10-05T11:50:52.000Z</Time>
            <Position>
              <LatitudeDegrees>41.99387133121490478515625</LatitudeDegrees>
              <LongitudeDegrees>-5.6516093574464321136474609375</LongitudeDegrees>
            </Position>
            <AltitudeMeters>608.20001220703125</AltitudeMeters>
            <DistanceMeters>NAN</DistanceMeters>
          </Trackpoint>
          <Trackpoint>
            <Time>2019-10-05T11:50:55.000Z</Time>
            <Position>
              <LatitudeDegrees>41.99376110918819904327392578125</LatitudeDegrees>
              <LongitudeDegrees>-5.65156535245478153228759765625</LongitudeDegrees>
            </Position>
            <AltitudeMeters>608.20001220703125</AltitudeMeters>
            <DistanceMeters>NAN</DistanceMeters>
          </Trackpoint>
          <Trackpoint>
            <Time>2019-10-05T11:50:57.000Z</Time>
            <Position>
              <LatitudeDegrees>41.99368986301124095916748046875</LatitudeDegrees>
              <LongitudeDegrees>-5.6515878997743129730224609375</LongitudeDegrees>
            </Position>
            <AltitudeMeters>608.20001220703125</AltitudeMeters>
            <DistanceMeters>NAN</DistanceMeters>
          </Trackpoint>
          <Trackpoint>
            <Time>2019-10-05T11:51:00.000Z</Time>
            <Position>
              <LatitudeDegrees>41.99356849305331707000732421875</LatitudeDegrees>
              <LongitudeDegrees>-5.65165537409484386444091796875</LongitudeDegrees>
            </Position>
            <AltitudeMeters>608.20001220703125</AltitudeMeters>
            <DistanceMeters>NAN</DistanceMeters>
          </Trackpoint>
          <Trackpoint>
            <Time>2019-10-05T11:51:03.000Z</Time>
            <Position>
              <LatitudeDegrees>41.9934272579848766326904296875</LatitudeDegrees>
              <LongitudeDegrees>-5.65169309265911579132080078125</LongitudeDegrees>
            </Position>
            <AltitudeMeters>608</AltitudeMeters>
            <DistanceMeters>NAN</DistanceMeters>
          </Trackpoint>
          <Trackpoint>
            <Time>2019-10-05T11:51:11.000Z</Time>
            <Position>
              <LatitudeDegrees>41.99303959496319293975830078125</LatitudeDegrees>
              <LongitudeDegrees>-5.6517840363085269927978515625</LongitudeDegrees>
            </Position>
            <AltitudeMeters>607.79998779296875</AltitudeMeters>
            <DistanceMeters>NAN</DistanceMeters>
          </Trackpoint>
          <Trackpoint>
            <Time>2019-10-05T11:51:12.000Z</Time>
            <Position>
              <LatitudeDegrees>41.99299089610576629638671875</LatitudeDegrees>
              <LongitudeDegrees>-5.6517951004207134246826171875</LongitudeDegrees>
            </Position>
            <AltitudeMeters>607.5999755859375</AltitudeMeters>
            <DistanceMeters>NAN</DistanceMeters>
          </Trackpoint>
          <Trackpoint>
            <Time>2019-10-05T11:51:17.000Z</Time>
            <Position>
              <LatitudeDegrees>41.99274706654250621795654296875</LatitudeDegrees>
              <LongitudeDegrees>-5.65184011124074459075927734375</LongitudeDegrees>
            </Position>
            <AltitudeMeters>608.4000244140625</AltitudeMeters>
            <DistanceMeters>NAN</DistanceMeters>
          </Trackpoint>
          <Trackpoint>
            <Time>2019-10-05T11:51:18.000Z</Time>
            <Position>
              <LatitudeDegrees>41.9926983676850795745849609375</LatitudeDegrees>
              <LongitudeDegrees>-5.6518514268100261688232421875</LongitudeDegrees>
            </Position>
            <AltitudeMeters>608.20001220703125</AltitudeMeters>
            <DistanceMeters>NAN</DistanceMeters>
          </Trackpoint>
          <Trackpoint>
            <Time>2019-10-05T11:51:23.000Z</Time>
            <Position>
              <LatitudeDegrees>41.99244984425604343414306640625</LatitudeDegrees>
              <LongitudeDegrees>-5.651888139545917510986328125</LongitudeDegrees>
            </Position>
            <AltitudeMeters>608</AltitudeMeters>
            <DistanceMeters>NAN</DistanceMeters>
          </Trackpoint>
          <Trackpoint>
            <Time>2019-10-05T11:51:28.000Z</Time>
            <Position>
              <LatitudeDegrees>41.99215882457792758941650390625</LatitudeDegrees>
              <LongitudeDegrees>-5.651937089860439300537109375</LongitudeDegrees>
            </Position>
            <AltitudeMeters>608</AltitudeMeters>
            <DistanceMeters>NAN</DistanceMeters>
          </Trackpoint>
          <Trackpoint>
            <Time>2019-10-05T11:51:31.000Z</Time>
            <Position>
              <LatitudeDegrees>41.99206578545272350311279296875</LatitudeDegrees>
              <LongitudeDegrees>-5.65194002352654933929443359375</LongitudeDegrees>
            </Position>
            <AltitudeMeters>607.5999755859375</AltitudeMeters>
            <DistanceMeters>NAN</DistanceMeters>
          </Trackpoint>
          <Trackpoint>
            <Time>2019-10-05T11:51:33.000Z</Time>
            <Position>
              <LatitudeDegrees>41.99200560338795185089111328125</LatitudeDegrees>
              <LongitudeDegrees>-5.651930384337902069091796875</LongitudeDegrees>
            </Position>
            <AltitudeMeters>608.20001220703125</AltitudeMeters>
            <DistanceMeters>NAN</DistanceMeters>
          </Trackpoint>
          <Trackpoint>
            <Time>2019-10-05T11:51:34.000Z</Time>
            <Position>
              <LatitudeDegrees>41.9919812120497226715087890625</LatitudeDegrees>
              <LongitudeDegrees>-5.651914291083812713623046875</LongitudeDegrees>
            </Position>
            <AltitudeMeters>608.4000244140625</AltitudeMeters>
            <DistanceMeters>NAN</DistanceMeters>
          </Trackpoint>
          <Trackpoint>
            <Time>2019-10-05T11:51:36.000Z</Time>
            <Position>
              <LatitudeDegrees>41.99194349348545074462890625</LatitudeDegrees>
              <LongitudeDegrees>-5.65183927305042743682861328125</LongitudeDegrees>
            </Position>
            <AltitudeMeters>608</AltitudeMeters>
            <DistanceMeters>NAN</DistanceMeters>
          </Trackpoint>
          <Trackpoint>
            <Time>2019-10-05T11:51:40.000Z</Time>
            <Position>
              <LatitudeDegrees>41.99189797975122928619384765625</LatitudeDegrees>
              <LongitudeDegrees>-5.65158898942172527313232421875</LongitudeDegrees>
            </Position>
            <AltitudeMeters>607.4000244140625</AltitudeMeters>
            <DistanceMeters>NAN</DistanceMeters>
          </Trackpoint>
          <Trackpoint>
            <Time>2019-10-05T11:51:43.000Z</Time>
            <Position>
              <LatitudeDegrees>41.99186436831951141357421875</LatitudeDegrees>
              <LongitudeDegrees>-5.651388578116893768310546875</LongitudeDegrees>
            </Position>
            <AltitudeMeters>607</AltitudeMeters>
            <DistanceMeters>NAN</DistanceMeters>
          </Trackpoint>
          <Trackpoint>
            <Time>2019-10-05T11:51:46.000Z</Time>
            <Position>
              <LatitudeDegrees>41.99183025397360324859619140625</LatitudeDegrees>
              <LongitudeDegrees>-5.65116184763610363006591796875</LongitudeDegrees>
            </Position>
            <AltitudeMeters>607.4000244140625</AltitudeMeters>
            <DistanceMeters>NAN</DistanceMeters>
          </Trackpoint>
          <Trackpoint>
            <Time>2019-10-05T11:51:47.000Z</Time>
            <Position>
              <LatitudeDegrees>41.9918232969939708709716796875</LatitudeDegrees>
              <LongitudeDegrees>-5.65113217569887638092041015625</LongitudeDegrees>
            </Position>
            <AltitudeMeters>607.4000244140625</AltitudeMeters>
            <DistanceMeters>NAN</DistanceMeters>
          </Trackpoint>
          <Trackpoint>
            <Time>2019-10-05T11:51:54.000Z</Time>
            <Position>
              <LatitudeDegrees>41.99171525426208972930908203125</LatitudeDegrees>
              <LongitudeDegrees>-5.6507010944187641143798828125</LongitudeDegrees>
            </Position>
            <AltitudeMeters>607.4000244140625</AltitudeMeters>
            <DistanceMeters>NAN</DistanceMeters>
          </Trackpoint>
          <Trackpoint>
            <Time>2019-10-05T11:51:56.000Z</Time>
            <Position>
              <LatitudeDegrees>41.99168642051517963409423828125</LatitudeDegrees>
              <LongitudeDegrees>-5.65057964064180850982666015625</LongitudeDegrees>
            </Position>
            <AltitudeMeters>606.79998779296875</AltitudeMeters>
            <DistanceMeters>NAN</DistanceMeters>
          </Trackpoint>
          <Trackpoint>
            <Time>2019-10-05T11:52:03.000Z</Time>
            <Position>
              <LatitudeDegrees>41.991599835455417633056640625</LatitudeDegrees>
              <LongitudeDegrees>-5.650154761970043182373046875</LongitudeDegrees>
            </Position>
            <AltitudeMeters>607.20001220703125</AltitudeMeters>
            <DistanceMeters>NAN</DistanceMeters>
          </Trackpoint>
          <Trackpoint>
            <Time>2019-10-05T11:52:09.000Z</Time>
            <Position>
              <LatitudeDegrees>41.99151006527245044708251953125</LatitudeDegrees>
              <LongitudeDegrees>-5.64978403039276599884033203125</LongitudeDegrees>
            </Position>
            <AltitudeMeters>607</AltitudeMeters>
            <DistanceMeters>NAN</DistanceMeters>
          </Trackpoint>
          <Trackpoint>
            <Time>2019-10-05T11:52:19.000Z</Time>
            <Position>
              <LatitudeDegrees>41.9913569279015064239501953125</LatitudeDegrees>
              <LongitudeDegrees>-5.6491410546004772186279296875</LongitudeDegrees>
            </Position>
            <AltitudeMeters>606.4000244140625</AltitudeMeters>
            <DistanceMeters>NAN</DistanceMeters>
          </Trackpoint>
          <Trackpoint>
            <Time>2019-10-05T11:52:29.000Z</Time>
            <Position>
              <LatitudeDegrees>41.9912100769579410552978515625</LatitudeDegrees>
              <LongitudeDegrees>-5.64849137328565120697021484375</LongitudeDegrees>
            </Position>
            <AltitudeMeters>605.5999755859375</AltitudeMeters>
            <DistanceMeters>NAN</DistanceMeters>
          </Trackpoint>
          <Trackpoint>
            <Time>2019-10-05T11:52:38.000Z</Time>
            <Position>
              <LatitudeDegrees>41.9910786487162113189697265625</LatitudeDegrees>
              <LongitudeDegrees>-5.647912435233592987060546875</LongitudeDegrees>
            </Position>
            <AltitudeMeters>606</AltitudeMeters>
            <DistanceMeters>NAN</DistanceMeters>
          </Trackpoint>
          <Trackpoint>
            <Time>2019-10-05T11:52:46.000Z</Time>
            <Position>
              <LatitudeDegrees>41.99096038006246089935302734375</LatitudeDegrees>
              <LongitudeDegrees>-5.6473905779421329498291015625</LongitudeDegrees>
            </Position>
            <AltitudeMeters>606</AltitudeMeters>
            <DistanceMeters>NAN</DistanceMeters>
          </Trackpoint>
          <Trackpoint>
            <Time>2019-10-05T11:52:55.000Z</Time>
            <Position>
              <LatitudeDegrees>41.99082291685044765472412109375</LatitudeDegrees>
              <LongitudeDegrees>-5.64682404510676860809326171875</LongitudeDegrees>
            </Position>
            <AltitudeMeters>605.79998779296875</AltitudeMeters>
            <DistanceMeters>NAN</DistanceMeters>
          </Trackpoint>
          <Trackpoint>
            <Time>2019-10-05T11:52:59.000Z</Time>
            <Position>
              <LatitudeDegrees>41.99076759628951549530029296875</LatitudeDegrees>
              <LongitudeDegrees>-5.64657024107873439788818359375</LongitudeDegrees>
            </Position>
            <AltitudeMeters>606.5999755859375</AltitudeMeters>
            <DistanceMeters>NAN</DistanceMeters>
          </Trackpoint>
          <Trackpoint>
            <Time>2019-10-05T11:53:01.000Z</Time>
            <Position>
              <LatitudeDegrees>41.9907410256564617156982421875</LatitudeDegrees>
              <LongitudeDegrees>-5.6464444287121295928955078125</LongitudeDegrees>
            </Position>
            <AltitudeMeters>606.79998779296875</AltitudeMeters>
            <DistanceMeters>NAN</DistanceMeters>
          </Trackpoint>
          <Trackpoint>
            <Time>2019-10-05T11:53:04.000Z</Time>
            <Position>
              <LatitudeDegrees>41.99069534428417682647705078125</LatitudeDegrees>
              <LongitudeDegrees>-5.646254159510135650634765625</LongitudeDegrees>
            </Position>
            <AltitudeMeters>605.79998779296875</AltitudeMeters>
            <DistanceMeters>NAN</DistanceMeters>
          </Trackpoint>
          <Trackpoint>
            <Time>2019-10-05T11:53:15.000Z</Time>
            <Position>
              <LatitudeDegrees>41.99053122662007808685302734375</LatitudeDegrees>
              <LongitudeDegrees>-5.645546726882457733154296875</LongitudeDegrees>
            </Position>
            <AltitudeMeters>606.5999755859375</AltitudeMeters>
            <DistanceMeters>NAN</DistanceMeters>
          </Trackpoint>
          <Trackpoint>
            <Time>2019-10-05T11:53:16.000Z</Time>
            <Position>
              <LatitudeDegrees>41.99051714502274990081787109375</LatitudeDegrees>
              <LongitudeDegrees>-5.6454821862280368804931640625</LongitudeDegrees>
            </Position>
            <AltitudeMeters>606.79998779296875</AltitudeMeters>
            <DistanceMeters>NAN</DistanceMeters>
          </Trackpoint>
          <Trackpoint>
            <Time>2019-10-05T11:53:27.000Z</Time>
            <Position>
              <LatitudeDegrees>41.990363337099552154541015625</LatitudeDegrees>
              <LongitudeDegrees>-5.64477852545678615570068359375</LongitudeDegrees>
            </Position>
            <AltitudeMeters>606.4000244140625</AltitudeMeters>
            <DistanceMeters>NAN</DistanceMeters>
          </Trackpoint>
          <Trackpoint>
            <Time>2019-10-05T11:53:33.000Z</Time>
            <Position>
              <LatitudeDegrees>41.9902800209820270538330078125</LatitudeDegrees>
              <LongitudeDegrees>-5.64441273920238018035888671875</LongitudeDegrees>
            </Position>
            <AltitudeMeters>606.79998779296875</AltitudeMeters>
            <DistanceMeters>NAN</DistanceMeters>
          </Trackpoint>
          <Trackpoint>
            <Time>2019-10-05T11:53:35.000Z</Time>
            <Position>
              <LatitudeDegrees>41.990245319902896881103515625</LatitudeDegrees>
              <LongitudeDegrees>-5.64429036341607570648193359375</LongitudeDegrees>
            </Position>
            <AltitudeMeters>606.4000244140625</AltitudeMeters>
            <DistanceMeters>NAN</DistanceMeters>
          </Trackpoint>
          <Trackpoint>
            <Time>2019-10-05T11:53:37.000Z</Time>
            <Position>
              <LatitudeDegrees>41.990215815603733062744140625</LatitudeDegrees>
              <LongitudeDegrees>-5.64416505396366119384765625</LongitudeDegrees>
            </Position>
            <AltitudeMeters>606.20001220703125</AltitudeMeters>
            <DistanceMeters>NAN</DistanceMeters>
          </Trackpoint>
          <Trackpoint>
            <Time>2019-10-05T11:53:39.000Z</Time>
            <Position>
              <LatitudeDegrees>41.99019360356032848358154296875</LatitudeDegrees>
              <LongitudeDegrees>-5.6440371461212635040283203125</LongitudeDegrees>
            </Position>
            <AltitudeMeters>605.79998779296875</AltitudeMeters>
            <DistanceMeters>NAN</DistanceMeters>
          </Trackpoint>
          <Trackpoint>
            <Time>2019-10-05T11:53:43.000Z</Time>
            <Position>
              <LatitudeDegrees>41.990135349333286285400390625</LatitudeDegrees>
              <LongitudeDegrees>-5.64378208480775356292724609375</LongitudeDegrees>
            </Position>
            <AltitudeMeters>605.4000244140625</AltitudeMeters>
            <DistanceMeters>NAN</DistanceMeters>
          </Trackpoint>
          <Trackpoint>
            <Time>2019-10-05T11:53:46.000Z</Time>
            <Position>
              <LatitudeDegrees>41.99008396826684474945068359375</LatitudeDegrees>
              <LongitudeDegrees>-5.64355895854532718658447265625</LongitudeDegrees>
            </Position>
            <AltitudeMeters>605.5999755859375</AltitudeMeters>
            <DistanceMeters>NAN</DistanceMeters>
          </Trackpoint>
          <Trackpoint>
            <Time>2019-10-05T11:53:53.000Z</Time>
            <Position>
              <LatitudeDegrees>41.98995941318571567535400390625</LatitudeDegrees>
              <LongitudeDegrees>-5.6431469880044460296630859375</LongitudeDegrees>
            </Position>
            <AltitudeMeters>605.79998779296875</AltitudeMeters>
            <DistanceMeters>NAN</DistanceMeters>
          </Trackpoint>
          <Trackpoint>
            <Time>2019-10-05T11:54:02.000Z</Time>
            <Position>
              <LatitudeDegrees>41.989727653563022613525390625</LatitudeDegrees>
              <LongitudeDegrees>-5.64260358922183513641357421875</LongitudeDegrees>
            </Position>
            <AltitudeMeters>606</AltitudeMeters>
            <DistanceMeters>NAN</DistanceMeters>
          </Trackpoint>
          <Trackpoint>
            <Time>2019-10-05T11:54:06.000Z</Time>
            <Position>
              <LatitudeDegrees>41.989624388515949249267578125</LatitudeDegrees>
              <LongitudeDegrees>-5.64236051402986049652099609375</LongitudeDegrees>
            </Position>
            <AltitudeMeters>606.4000244140625</AltitudeMeters>
            <DistanceMeters>NAN</DistanceMeters>
          </Trackpoint>
          <Trackpoint>
            <Time>2019-10-05T11:54:14.000Z</Time>
            <Position>
              <LatitudeDegrees>41.98942498303949832916259765625</LatitudeDegrees>
              <LongitudeDegrees>-5.64187176525592803955078125</LongitudeDegrees>
            </Position>
            <AltitudeMeters>605.5999755859375</AltitudeMeters>
            <DistanceMeters>NAN</DistanceMeters>
          </Trackpoint>
          <Trackpoint>
            <Time>2019-10-05T11:54:24.000Z</Time>
            <Position>
              <LatitudeDegrees>41.98916330002248287200927734375</LatitudeDegrees>
              <LongitudeDegrees>-5.6412570364773273468017578125</LongitudeDegrees>
            </Position>
            <AltitudeMeters>605.4000244140625</AltitudeMeters>
            <DistanceMeters>NAN</DistanceMeters>
          </Trackpoint>
          <Trackpoint>
            <Time>2019-10-05T11:54:35.000Z</Time>
            <Position>
              <LatitudeDegrees>41.98888351209461688995361328125</LatitudeDegrees>
              <LongitudeDegrees>-5.64059964381158351898193359375</LongitudeDegrees>
            </Position>
            <AltitudeMeters>605.5999755859375</AltitudeMeters>
            <DistanceMeters>NAN</DistanceMeters>
          </Trackpoint>
          <Trackpoint>
            <Time>2019-10-05T11:54:38.000Z</Time>
            <Position>
              <LatitudeDegrees>41.98880723677575588226318359375</LatitudeDegrees>
              <LongitudeDegrees>-5.64041658304631710052490234375</LongitudeDegrees>
            </Position>
            <AltitudeMeters>605.5999755859375</AltitudeMeters>
            <DistanceMeters>NAN</DistanceMeters>
          </Trackpoint>
          <Trackpoint>
            <Time>2019-10-05T11:54:44.000Z</Time>
            <Position>
              <LatitudeDegrees>41.98864747770130634307861328125</LatitudeDegrees>
              <LongitudeDegrees>-5.64004073850810527801513671875</LongitudeDegrees>
            </Position>
            <AltitudeMeters>605.20001220703125</AltitudeMeters>
            <DistanceMeters>NAN</DistanceMeters>
          </Trackpoint>
          <Trackpoint>
            <Time>2019-10-05T11:54:48.000Z</Time>
            <Position>
              <LatitudeDegrees>41.98853566311299800872802734375</LatitudeDegrees>
              <LongitudeDegrees>-5.63976748846471309661865234375</LongitudeDegrees>
            </Position>
            <AltitudeMeters>605.4000244140625</AltitudeMeters>
            <DistanceMeters>NAN</DistanceMeters>
          </Trackpoint>
          <Trackpoint>
            <Time>2019-10-05T11:54:51.000Z</Time>
            <Position>
              <LatitudeDegrees>41.98844614438712596893310546875</LatitudeDegrees>
              <LongitudeDegrees>-5.6395561806857585906982421875</LongitudeDegrees>
            </Position>
            <AltitudeMeters>605.4000244140625</AltitudeMeters>
            <DistanceMeters>NAN</DistanceMeters>
          </Trackpoint>
          <Trackpoint>
            <Time>2019-10-05T11:54:55.000Z</Time>
            <Position>
              <LatitudeDegrees>41.9883404485881328582763671875</LatitudeDegrees>
              <LongitudeDegrees>-5.63929005526006221771240234375</LongitudeDegrees>
            </Position>
            <AltitudeMeters>605.5999755859375</AltitudeMeters>
            <DistanceMeters>NAN</DistanceMeters>
          </Trackpoint>
          <Trackpoint>
            <Time>2019-10-05T11:54:58.000Z</Time>
            <Position>
              <LatitudeDegrees>41.98825805447995662689208984375</LatitudeDegrees>
              <LongitudeDegrees>-5.63909391872584819793701171875</LongitudeDegrees>
            </Position>
            <AltitudeMeters>605.79998779296875</AltitudeMeters>
            <DistanceMeters>NAN</DistanceMeters>
          </Trackpoint>
          <Trackpoint>
            <Time>2019-10-05T11:55:06.000Z</Time>
            <Position>
              <LatitudeDegrees>41.98801849968731403350830078125</LatitudeDegrees>
              <LongitudeDegrees>-5.6385309062898159027099609375</LongitudeDegrees>
            </Position>
            <AltitudeMeters>604.5999755859375</AltitudeMeters>
            <DistanceMeters>NAN</DistanceMeters>
          </Trackpoint>
          <Trackpoint>
            <Time>2019-10-05T11:55:07.000Z</Time>
            <Position>
              <LatitudeDegrees>41.9880125485360622406005859375</LatitudeDegrees>
              <LongitudeDegrees>-5.6385154835879802703857421875</LongitudeDegrees>
            </Position>
            <AltitudeMeters>604.20001220703125</AltitudeMeters>
            <DistanceMeters>NAN</DistanceMeters>
          </Trackpoint>
          <Trackpoint>
            <Time>2019-10-05T11:55:10.000Z</Time>
            <Position>
              <LatitudeDegrees>41.98793836869299411773681640625</LatitudeDegrees>
              <LongitudeDegrees>-5.638343654572963714599609375</LongitudeDegrees>
            </Position>
            <AltitudeMeters>605.5999755859375</AltitudeMeters>
            <DistanceMeters>NAN</DistanceMeters>
          </Trackpoint>
          <Trackpoint>
            <Time>2019-10-05T11:55:15.000Z</Time>
            <Position>
              <LatitudeDegrees>41.9878214411437511444091796875</LatitudeDegrees>
              <LongitudeDegrees>-5.638051293790340423583984375</LongitudeDegrees>
            </Position>
            <AltitudeMeters>605.5999755859375</AltitudeMeters>
            <DistanceMeters>NAN</DistanceMeters>
          </Trackpoint>
          <Trackpoint>
            <Time>2019-10-05T11:55:24.000Z</Time>
            <Position>
              <LatitudeDegrees>41.9876025058329105377197265625</LatitudeDegrees>
              <LongitudeDegrees>-5.63753052614629268646240234375</LongitudeDegrees>
            </Position>
            <AltitudeMeters>605.79998779296875</AltitudeMeters>
            <DistanceMeters>NAN</DistanceMeters>
          </Trackpoint>
          <Trackpoint>
            <Time>2019-10-05T11:55:32.000Z</Time>
            <Position>
              <LatitudeDegrees>41.98740712366998195648193359375</LatitudeDegrees>
              <LongitudeDegrees>-5.637070275843143463134765625</LongitudeDegrees>
            </Position>
            <AltitudeMeters>605.79998779296875</AltitudeMeters>
            <DistanceMeters>NAN</DistanceMeters>
          </Trackpoint>
          <Trackpoint>
            <Time>2019-10-05T11:55:42.000Z</Time>
            <Position>
              <LatitudeDegrees>41.98716455139219760894775390625</LatitudeDegrees>
              <LongitudeDegrees>-5.63648982904851436614990234375</LongitudeDegrees>
            </Position>
            <AltitudeMeters>606.4000244140625</AltitudeMeters>
            <DistanceMeters>NAN</DistanceMeters>
          </Trackpoint>
          <Trackpoint>
            <Time>2019-10-05T11:55:53.000Z</Time>
            <Position>
              <LatitudeDegrees>41.98689800687134265899658203125</LatitudeDegrees>
              <LongitudeDegrees>-5.6358429975807666778564453125</LongitudeDegrees>
            </Position>
            <AltitudeMeters>606</AltitudeMeters>
            <DistanceMeters>NAN</DistanceMeters>
          </Trackpoint>
          <Trackpoint>
            <Time>2019-10-05T11:56:02.000Z</Time>
            <Position>
              <LatitudeDegrees>41.9866895489394664764404296875</LatitudeDegrees>
              <LongitudeDegrees>-5.6353249959647655487060546875</LongitudeDegrees>
            </Position>
            <AltitudeMeters>606.4000244140625</AltitudeMeters>
            <DistanceMeters>NAN</DistanceMeters>
          </Trackpoint>
          <Trackpoint>
            <Time>2019-10-05T11:56:12.000Z</Time>
            <Position>
              <LatitudeDegrees>41.98644362390041351318359375</LatitudeDegrees>
              <LongitudeDegrees>-5.63473834656178951263427734375</LongitudeDegrees>
            </Position>
            <AltitudeMeters>605.79998779296875</AltitudeMeters>
            <DistanceMeters>NAN</DistanceMeters>
          </Trackpoint>
          <Trackpoint>
            <Time>2019-10-05T11:56:22.000Z</Time>
            <Position>
              <LatitudeDegrees>41.9861866347491741180419921875</LatitudeDegrees>
              <LongitudeDegrees>-5.63413233496248722076416015625</LongitudeDegrees>
            </Position>
            <AltitudeMeters>605.20001220703125</AltitudeMeters>
            <DistanceMeters>NAN</DistanceMeters>
          </Trackpoint>
          <Trackpoint>
            <Time>2019-10-05T11:56:31.000Z</Time>
            <Position>
              <LatitudeDegrees>41.98596644215285778045654296875</LatitudeDegrees>
              <LongitudeDegrees>-5.63359849154949188232421875</LongitudeDegrees>
            </Position>
            <AltitudeMeters>605.5999755859375</AltitudeMeters>
            <DistanceMeters>NAN</DistanceMeters>
          </Trackpoint>
          <Trackpoint>
            <Time>2019-10-05T11:56:32.000Z</Time>
            <Position>
              <LatitudeDegrees>41.98594431392848491668701171875</LatitudeDegrees>
              <LongitudeDegrees>-5.6335389800369739532470703125</LongitudeDegrees>
            </Position>
            <AltitudeMeters>605.20001220703125</AltitudeMeters>
            <DistanceMeters>NAN</DistanceMeters>
          </Trackpoint>
          <Trackpoint>
            <Time>2019-10-05T11:56:40.000Z</Time>
            <Position>
              <LatitudeDegrees>41.98575471527874469757080078125</LatitudeDegrees>
              <LongitudeDegrees>-5.633083172142505645751953125</LongitudeDegrees>
            </Position>
            <AltitudeMeters>605.4000244140625</AltitudeMeters>
            <DistanceMeters>NAN</DistanceMeters>
          </Trackpoint>
          <Trackpoint>
            <Time>2019-10-05T11:56:48.000Z</Time>
            <Position>
              <LatitudeDegrees>41.9855754263699054718017578125</LatitudeDegrees>
              <LongitudeDegrees>-5.63265829347074031829833984375</LongitudeDegrees>
            </Position>
            <AltitudeMeters>606</AltitudeMeters>
            <DistanceMeters>NAN</DistanceMeters>
          </Trackpoint>
          <Trackpoint>
            <Time>2019-10-05T11:56:57.000Z</Time>
            <Position>
              <LatitudeDegrees>41.985389180481433868408203125</LatitudeDegrees>
              <LongitudeDegrees>-5.63216946087777614593505859375</LongitudeDegrees>
            </Position>
            <AltitudeMeters>606.4000244140625</AltitudeMeters>
            <DistanceMeters>NAN</DistanceMeters>
          </Trackpoint>
          <Trackpoint>
            <Time>2019-10-05T11:57:00.000Z</Time>
            <Position>
              <LatitudeDegrees>41.985373757779598236083984375</LatitudeDegrees>
              <LongitudeDegrees>-5.6319940276443958282470703125</LongitudeDegrees>
            </Position>
            <AltitudeMeters>606.79998779296875</AltitudeMeters>
            <DistanceMeters>NAN</DistanceMeters>
          </Trackpoint>
          <Trackpoint>
            <Time>2019-10-05T11:57:03.000Z</Time>
            <Position>
              <LatitudeDegrees>41.9853823073208332061767578125</LatitudeDegrees>
              <LongitudeDegrees>-5.6318143196403980255126953125</LongitudeDegrees>
            </Position>
            <AltitudeMeters>606.4000244140625</AltitudeMeters>
            <DistanceMeters>NAN</DistanceMeters>
          </Trackpoint>
          <Trackpoint>
            <Time>2019-10-05T11:57:12.000Z</Time>
            <Position>
              <LatitudeDegrees>41.985413990914821624755859375</LatitudeDegrees>
              <LongitudeDegrees>-5.6312762014567852020263671875</LongitudeDegrees>
            </Position>
            <AltitudeMeters>606.20001220703125</AltitudeMeters>
            <DistanceMeters>NAN</DistanceMeters>
          </Trackpoint>
          <Trackpoint>
            <Time>2019-10-05T11:57:14.000Z</Time>
            <Position>
              <LatitudeDegrees>41.98540435172617435455322265625</LatitudeDegrees>
              <LongitudeDegrees>-5.6311585195362567901611328125</LongitudeDegrees>
            </Position>
            <AltitudeMeters>606.20001220703125</AltitudeMeters>
            <DistanceMeters>NAN</DistanceMeters>
          </Trackpoint>
          <Trackpoint>
            <Time>2019-10-05T11:57:18.000Z</Time>
            <Position>
              <LatitudeDegrees>41.98535439558327198028564453125</LatitudeDegrees>
              <LongitudeDegrees>-5.630939416587352752685546875</LongitudeDegrees>
            </Position>
            <AltitudeMeters>606</AltitudeMeters>
            <DistanceMeters>NAN</DistanceMeters>
          </Trackpoint>
          <Trackpoint>
            <Time>2019-10-05T11:57:26.000Z</Time>
            <Position>
              <LatitudeDegrees>41.9852270744740962982177734375</LatitudeDegrees>
              <LongitudeDegrees>-5.630514286458492279052734375</LongitudeDegrees>
            </Position>
            <AltitudeMeters>606.4000244140625</AltitudeMeters>
            <DistanceMeters>NAN</DistanceMeters>
          </Trackpoint>
          <Trackpoint>
            <Time>2019-10-05T11:57:36.000Z</Time>
            <Position>
              <LatitudeDegrees>41.98506957851350307464599609375</LatitudeDegrees>
              <LongitudeDegrees>-5.6299714744091033935546875</LongitudeDegrees>
            </Position>
            <AltitudeMeters>607</AltitudeMeters>
            <DistanceMeters>NAN</DistanceMeters>
          </Trackpoint>
          <Trackpoint>
            <Time>2019-10-05T11:57:37.000Z</Time>
            <Position>
              <LatitudeDegrees>41.985055916011333465576171875</LatitudeDegrees>
              <LongitudeDegrees>-5.629920177161693572998046875</LongitudeDegrees>
            </Position>
            <AltitudeMeters>607.20001220703125</AltitudeMeters>
            <DistanceMeters>NAN</DistanceMeters>
          </Trackpoint>
          <Trackpoint>
            <Time>2019-10-05T11:57:39.000Z</Time>
            <Position>
              <LatitudeDegrees>41.98502331040799617767333984375</LatitudeDegrees>
              <LongitudeDegrees>-5.62980123795568943023681640625</LongitudeDegrees>
            </Position>
            <AltitudeMeters>606.79998779296875</AltitudeMeters>
            <DistanceMeters>NAN</DistanceMeters>
          </Trackpoint>
          <Trackpoint>
            <Time>2019-10-05T11:57:42.000Z</Time>
            <Position>
              <LatitudeDegrees>41.98496044613420963287353515625</LatitudeDegrees>
              <LongitudeDegrees>-5.6296147406101226806640625</LongitudeDegrees>
            </Position>
            <AltitudeMeters>607</AltitudeMeters>
            <DistanceMeters>NAN</DistanceMeters>
          </Trackpoint>
          <Trackpoint>
            <Time>2019-10-05T11:57:46.000Z</Time>
            <Position>
              <LatitudeDegrees>41.98491300456225872039794921875</LatitudeDegrees>
              <LongitudeDegrees>-5.62936688773334026336669921875</LongitudeDegrees>
            </Position>
            <AltitudeMeters>607</AltitudeMeters>
            <DistanceMeters>NAN</DistanceMeters>
          </Trackpoint>
          <Trackpoint>
            <Time>2019-10-05T11:57:47.000Z</Time>
            <Position>
              <LatitudeDegrees>41.9849112443625926971435546875</LatitudeDegrees>
              <LongitudeDegrees>-5.62923797406256198883056640625</LongitudeDegrees>
            </Position>
            <AltitudeMeters>606.5999755859375</AltitudeMeters>
            <DistanceMeters>NAN</DistanceMeters>
          </Trackpoint>
          <Trackpoint>
            <Time>2019-10-05T11:57:51.000Z</Time>
            <Position>
              <LatitudeDegrees>41.98490864597260951995849609375</LatitudeDegrees>
              <LongitudeDegrees>-5.62902423553168773651123046875</LongitudeDegrees>
            </Position>
            <AltitudeMeters>606</AltitudeMeters>
            <DistanceMeters>NAN</DistanceMeters>
          </Trackpoint>
          <Trackpoint>
            <Time>2019-10-05T11:57:52.000Z</Time>
            <Position>
              <LatitudeDegrees>41.98492121882736682891845703125</LatitudeDegrees>
              <LongitudeDegrees>-5.628957264125347137451171875</LongitudeDegrees>
            </Position>
            <AltitudeMeters>605.79998779296875</AltitudeMeters>
            <DistanceMeters>NAN</DistanceMeters>
          </Trackpoint>
          <Trackpoint>
            <Time>2019-10-05T11:57:54.000Z</Time>
            <Position>
              <LatitudeDegrees>41.98495625518262386322021484375</LatitudeDegrees>
              <LongitudeDegrees>-5.62883044593036174774169921875</LongitudeDegrees>
            </Position>
            <AltitudeMeters>606</AltitudeMeters>
            <DistanceMeters>NAN</DistanceMeters>
          </Trackpoint>
          <Trackpoint>
            <Time>2019-10-05T11:57:55.000Z</Time>
            <Position>
              <LatitudeDegrees>41.98496128432452678680419921875</LatitudeDegrees>
              <LongitudeDegrees>-5.6287726946175098419189453125</LongitudeDegrees>
            </Position>
            <AltitudeMeters>605.79998779296875</AltitudeMeters>
            <DistanceMeters>NAN</DistanceMeters>
          </Trackpoint>
          <Trackpoint>
            <Time>2019-10-05T11:57:57.000Z</Time>
            <Position>
              <LatitudeDegrees>41.984958015382289886474609375</LatitudeDegrees>
              <LongitudeDegrees>-5.6286523304879665374755859375</LongitudeDegrees>
            </Position>
            <AltitudeMeters>605.79998779296875</AltitudeMeters>
            <DistanceMeters>NAN</DistanceMeters>
          </Trackpoint>
          <Trackpoint>
            <Time>2019-10-05T11:58:00.000Z</Time>
            <Position>
              <LatitudeDegrees>41.98501643724739551544189453125</LatitudeDegrees>
              <LongitudeDegrees>-5.6284709461033344268798828125</LongitudeDegrees>
            </Position>
            <AltitudeMeters>605.79998779296875</AltitudeMeters>
            <DistanceMeters>NAN</DistanceMeters>
          </Trackpoint>
          <Trackpoint>
            <Time>2019-10-05T11:58:01.000Z</Time>
            <Position>
              <LatitudeDegrees>41.9850443489849567413330078125</LatitudeDegrees>
              <LongitudeDegrees>-5.6284129433333873748779296875</LongitudeDegrees>
            </Position>
            <AltitudeMeters>606.4000244140625</AltitudeMeters>
            <DistanceMeters>NAN</DistanceMeters>
          </Trackpoint>
          <Trackpoint>
            <Time>2019-10-05T11:58:03.000Z</Time>
            <Position>
              <LatitudeDegrees>41.98509036563336849212646484375</LatitudeDegrees>
              <LongitudeDegrees>-5.62830087728798389434814453125</LongitudeDegrees>
            </Position>
            <AltitudeMeters>606.4000244140625</AltitudeMeters>
            <DistanceMeters>NAN</DistanceMeters>
          </Trackpoint>
          <Trackpoint>
            <Time>2019-10-05T11:58:05.000Z</Time>
            <Position>
              <LatitudeDegrees>41.98511534370481967926025390625</LatitudeDegrees>
              <LongitudeDegrees>-5.628162659704685211181640625</LongitudeDegrees>
            </Position>
            <AltitudeMeters>606.4000244140625</AltitudeMeters>
            <DistanceMeters>NAN</DistanceMeters>
          </Trackpoint>
          <Trackpoint>
            <Time>2019-10-05T11:58:07.000Z</Time>
            <Position>
              <LatitudeDegrees>41.9851268269121646881103515625</LatitudeDegrees>
              <LongitudeDegrees>-5.62808663584291934967041015625</LongitudeDegrees>
            </Position>
            <AltitudeMeters>607.20001220703125</AltitudeMeters>
            <DistanceMeters>NAN</DistanceMeters>
          </Trackpoint>
          <Trackpoint>
            <Time>2019-10-05T11:58:09.000Z</Time>
            <Position>
              <LatitudeDegrees>41.9851358793675899505615234375</LatitudeDegrees>
              <LongitudeDegrees>-5.628013126552104949951171875</LongitudeDegrees>
            </Position>
            <AltitudeMeters>608.5999755859375</AltitudeMeters>
            <DistanceMeters>NAN</DistanceMeters>
          </Trackpoint>
          <Trackpoint>
            <Time>2019-10-05T11:58:13.000Z</Time>
            <Position>
              <LatitudeDegrees>41.98514719493687152862548828125</LatitudeDegrees>
              <LongitudeDegrees>-5.62785143963992595672607421875</LongitudeDegrees>
            </Position>
            <AltitudeMeters>609</AltitudeMeters>
            <DistanceMeters>NAN</DistanceMeters>
          </Trackpoint>
          <Trackpoint>
            <Time>2019-10-05T11:58:16.000Z</Time>
            <Position>
              <LatitudeDegrees>41.985134370625019073486328125</LatitudeDegrees>
              <LongitudeDegrees>-5.627717413008213043212890625</LongitudeDegrees>
            </Position>
            <AltitudeMeters>609</AltitudeMeters>
            <DistanceMeters>NAN</DistanceMeters>
          </Trackpoint>
          <Trackpoint>
            <Time>2019-10-05T11:58:19.000Z</Time>
            <Position>
              <LatitudeDegrees>41.98514400981366634368896484375</LatitudeDegrees>
              <LongitudeDegrees>-5.62757802195847034454345703125</LongitudeDegrees>
            </Position>
            <AltitudeMeters>608.5999755859375</AltitudeMeters>
            <DistanceMeters>NAN</DistanceMeters>
          </Trackpoint>
          <Trackpoint>
            <Time>2019-10-05T11:58:20.000Z</Time>
            <Position>
              <LatitudeDegrees>41.9851489551365375518798828125</LatitudeDegrees>
              <LongitudeDegrees>-5.627528317272663116455078125</LongitudeDegrees>
            </Position>
            <AltitudeMeters>608.4000244140625</AltitudeMeters>
            <DistanceMeters>NAN</DistanceMeters>
          </Trackpoint>
          <Trackpoint>
            <Time>2019-10-05T11:58:27.000Z</Time>
            <Position>
              <LatitudeDegrees>41.98513998650014400482177734375</LatitudeDegrees>
              <LongitudeDegrees>-5.62715842388570308685302734375</LongitudeDegrees>
            </Position>
            <AltitudeMeters>608</AltitudeMeters>
            <DistanceMeters>NAN</DistanceMeters>
          </Trackpoint>
          <Trackpoint>
            <Time>2019-10-05T11:58:28.000Z</Time>
            <Position>
              <LatitudeDegrees>41.9851291738450527191162109375</LatitudeDegrees>
              <LongitudeDegrees>-5.62710645608603954315185546875</LongitudeDegrees>
            </Position>
            <AltitudeMeters>608.20001220703125</AltitudeMeters>
            <DistanceMeters>NAN</DistanceMeters>
          </Trackpoint>
          <Trackpoint>
            <Time>2019-10-05T11:58:39.000Z</Time>
            <Position>
              <LatitudeDegrees>41.9849471189081668853759765625</LatitudeDegrees>
              <LongitudeDegrees>-5.62653145752847194671630859375</LongitudeDegrees>
            </Position>
            <AltitudeMeters>608.4000244140625</AltitudeMeters>
            <DistanceMeters>NAN</DistanceMeters>
          </Trackpoint>
          <Trackpoint>
            <Time>2019-10-05T11:58:47.000Z</Time>
            <Position>
              <LatitudeDegrees>41.98486380279064178466796875</LatitudeDegrees>
              <LongitudeDegrees>-5.62608855776488780975341796875</LongitudeDegrees>
            </Position>
            <AltitudeMeters>608.5999755859375</AltitudeMeters>
            <DistanceMeters>NAN</DistanceMeters>
          </Trackpoint>
          <Trackpoint>
            <Time>2019-10-05T11:58:54.000Z</Time>
            <Position>
              <LatitudeDegrees>41.984783671796321868896484375</LatitudeDegrees>
              <LongitudeDegrees>-5.6257039122283458709716796875</LongitudeDegrees>
            </Position>
            <AltitudeMeters>608.20001220703125</AltitudeMeters>
            <DistanceMeters>NAN</DistanceMeters>
          </Trackpoint>
          <Trackpoint>
            <Time>2019-10-05T11:59:02.000Z</Time>
            <Position>
              <LatitudeDegrees>41.9846410118043422698974609375</LatitudeDegrees>
              <LongitudeDegrees>-5.625295378267765045166015625</LongitudeDegrees>
            </Position>
            <AltitudeMeters>609</AltitudeMeters>
            <DistanceMeters>NAN</DistanceMeters>
          </Trackpoint>
          <Trackpoint>
            <Time>2019-10-05T11:59:05.000Z</Time>
            <Position>
              <LatitudeDegrees>41.984604634344577789306640625</LatitudeDegrees>
              <LongitudeDegrees>-5.62515548430383205413818359375</LongitudeDegrees>
            </Position>
            <AltitudeMeters>609.5999755859375</AltitudeMeters>
            <DistanceMeters>NAN</DistanceMeters>
          </Trackpoint>
          <Trackpoint>
            <Time>2019-10-05T11:59:08.000Z</Time>
            <Position>
              <LatitudeDegrees>41.9845739565789699554443359375</LatitudeDegrees>
              <LongitudeDegrees>-5.625014416873455047607421875</LongitudeDegrees>
            </Position>
            <AltitudeMeters>610.5999755859375</AltitudeMeters>
            <DistanceMeters>NAN</DistanceMeters>
          </Trackpoint>
          <Trackpoint>
            <Time>2019-10-05T11:59:09.000Z</Time>
            <Position>
              <LatitudeDegrees>41.98455945588648319244384765625</LatitudeDegrees>
              <LongitudeDegrees>-5.6249686516821384429931640625</LongitudeDegrees>
            </Position>
            <AltitudeMeters>610.5999755859375</AltitudeMeters>
            <DistanceMeters>NAN</DistanceMeters>
          </Trackpoint>
          <Trackpoint>
            <Time>2019-10-05T11:59:12.000Z</Time>
            <Position>
              <LatitudeDegrees>41.98451385833323001861572265625</LatitudeDegrees>
              <LongitudeDegrees>-5.62482389621436595916748046875</LongitudeDegrees>
            </Position>
            <AltitudeMeters>610.79998779296875</AltitudeMeters>
            <DistanceMeters>NAN</DistanceMeters>
          </Trackpoint>
          <Trackpoint>
            <Time>2019-10-05T11:59:14.000Z</Time>
            <Position>
              <LatitudeDegrees>41.98448351584374904632568359375</LatitudeDegrees>
              <LongitudeDegrees>-5.62472331337630748748779296875</LongitudeDegrees>
            </Position>
            <AltitudeMeters>611.20001220703125</AltitudeMeters>
            <DistanceMeters>NAN</DistanceMeters>
          </Trackpoint>
          <Trackpoint>
            <Time>2019-10-05T11:59:19.000Z</Time>
            <Position>
              <LatitudeDegrees>41.98440908454358577728271484375</LatitudeDegrees>
              <LongitudeDegrees>-5.6244675815105438232421875</LongitudeDegrees>
            </Position>
            <AltitudeMeters>611.4000244140625</AltitudeMeters>
            <DistanceMeters>NAN</DistanceMeters>
          </Trackpoint>
          <Trackpoint>
            <Time>2019-10-05T11:59:23.000Z</Time>
            <Position>
              <LatitudeDegrees>41.98434705846011638641357421875</LatitudeDegrees>
              <LongitudeDegrees>-5.6242675893008708953857421875</LongitudeDegrees>
            </Position>
            <AltitudeMeters>611.20001220703125</AltitudeMeters>
            <DistanceMeters>NAN</DistanceMeters>
          </Trackpoint>
          <Trackpoint>
            <Time>2019-10-05T11:59:29.000Z</Time>
            <Position>
              <LatitudeDegrees>41.9842567853629589080810546875</LatitudeDegrees>
              <LongitudeDegrees>-5.6239668466150760650634765625</LongitudeDegrees>
            </Position>
            <AltitudeMeters>611.79998779296875</AltitudeMeters>
            <DistanceMeters>NAN</DistanceMeters>
          </Trackpoint>
          <Trackpoint>
            <Time>2019-10-05T11:59:32.000Z</Time>
            <Position>
              <LatitudeDegrees>41.984204985201358795166015625</LatitudeDegrees>
              <LongitudeDegrees>-5.6238203309476375579833984375</LongitudeDegrees>
            </Position>
            <AltitudeMeters>612</AltitudeMeters>
            <DistanceMeters>NAN</DistanceMeters>
          </Trackpoint>
          <Trackpoint>
            <Time>2019-10-05T11:59:33.000Z</Time>
            <Position>
              <LatitudeDegrees>41.9841830246150493621826171875</LatitudeDegrees>
              <LongitudeDegrees>-5.62377632595598697662353515625</LongitudeDegrees>
            </Position>
            <AltitudeMeters>612</AltitudeMeters>
            <DistanceMeters>NAN</DistanceMeters>
          </Trackpoint>
          <Trackpoint>
            <Time>2019-10-05T11:59:34.000Z</Time>
            <Position>
              <LatitudeDegrees>41.9841659255325794219970703125</LatitudeDegrees>
              <LongitudeDegrees>-5.62372720800340175628662109375</LongitudeDegrees>
            </Position>
            <AltitudeMeters>611.5999755859375</AltitudeMeters>
            <DistanceMeters>NAN</DistanceMeters>
          </Trackpoint>
          <Trackpoint>
            <Time>2019-10-05T11:59:37.000Z</Time>
            <Position>
              <LatitudeDegrees>41.98412124998867511749267578125</LatitudeDegrees>
              <LongitudeDegrees>-5.6235873140394687652587890625</LongitudeDegrees>
            </Position>
            <AltitudeMeters>612.4000244140625</AltitudeMeters>
            <DistanceMeters>NAN</DistanceMeters>
          </Trackpoint>
          <Trackpoint>
            <Time>2019-10-05T11:59:40.000Z</Time>
            <Position>
              <LatitudeDegrees>41.98407389223575592041015625</LatitudeDegrees>
              <LongitudeDegrees>-5.62346284277737140655517578125</LongitudeDegrees>
            </Position>
            <AltitudeMeters>612.20001220703125</AltitudeMeters>
            <DistanceMeters>NAN</DistanceMeters>
          </Trackpoint>
          <Trackpoint>
            <Time>2019-10-05T11:59:43.000Z</Time>
            <Position>
              <LatitudeDegrees>41.98403290472924709320068359375</LatitudeDegrees>
              <LongitudeDegrees>-5.623326636850833892822265625</LongitudeDegrees>
            </Position>
            <AltitudeMeters>612.5999755859375</AltitudeMeters>
            <DistanceMeters>NAN</DistanceMeters>
          </Trackpoint>
          <Trackpoint>
            <Time>2019-10-05T11:59:48.000Z</Time>
            <Position>
              <LatitudeDegrees>41.98395377956330776214599609375</LatitudeDegrees>
              <LongitudeDegrees>-5.62310409732162952423095703125</LongitudeDegrees>
            </Position>
            <AltitudeMeters>612.79998779296875</AltitudeMeters>
            <DistanceMeters>NAN</DistanceMeters>
          </Trackpoint>
          <Trackpoint>
            <Time>2019-10-05T11:59:49.000Z</Time>
            <Position>
              <LatitudeDegrees>41.983942799270153045654296875</LatitudeDegrees>
              <LongitudeDegrees>-5.6230622716248035430908203125</LongitudeDegrees>
            </Position>
            <AltitudeMeters>612.79998779296875</AltitudeMeters>
            <DistanceMeters>NAN</DistanceMeters>
          </Trackpoint>
          <Trackpoint>
            <Time>2019-10-05T11:59:56.000Z</Time>
            <Position>
              <LatitudeDegrees>41.98384934104979038238525390625</LatitudeDegrees>
              <LongitudeDegrees>-5.62275524251163005828857421875</LongitudeDegrees>
            </Position>
            <AltitudeMeters>612.79998779296875</AltitudeMeters>
            <DistanceMeters>NAN</DistanceMeters>
          </Trackpoint>
          <Trackpoint>
            <Time>2019-10-05T12:00:03.000Z</Time>
            <Position>
              <LatitudeDegrees>41.98374473489820957183837890625</LatitudeDegrees>
              <LongitudeDegrees>-5.62242197804152965545654296875</LongitudeDegrees>
            </Position>
            <AltitudeMeters>612.4000244140625</AltitudeMeters>
            <DistanceMeters>NAN</DistanceMeters>
          </Trackpoint>
          <Trackpoint>
            <Time>2019-10-05T12:00:10.000Z</Time>
            <Position>
              <LatitudeDegrees>41.98363811708986759185791015625</LatitudeDegrees>
              <LongitudeDegrees>-5.6220929883420467376708984375</LongitudeDegrees>
            </Position>
            <AltitudeMeters>612.79998779296875</AltitudeMeters>
            <DistanceMeters>NAN</DistanceMeters>
          </Trackpoint>
          <Trackpoint>
            <Time>2019-10-05T12:00:18.000Z</Time>
            <Position>
              <LatitudeDegrees>41.983512304723262786865234375</LatitudeDegrees>
              <LongitudeDegrees>-5.6217329017817974090576171875</LongitudeDegrees>
            </Position>
            <AltitudeMeters>612.79998779296875</AltitudeMeters>
            <DistanceMeters>NAN</DistanceMeters>
          </Trackpoint>
          <Trackpoint>
            <Time>2019-10-05T12:00:19.000Z</Time>
            <Position>
              <LatitudeDegrees>41.983492858707904815673828125</LatitudeDegrees>
              <LongitudeDegrees>-5.62171052210032939910888671875</LongitudeDegrees>
            </Position>
            <AltitudeMeters>613</AltitudeMeters>
            <DistanceMeters>NAN</DistanceMeters>
          </Trackpoint>
          <Trackpoint>
            <Time>2019-10-05T12:00:21.000Z</Time>
            <Position>
              <LatitudeDegrees>41.98345907963812351226806640625</LatitudeDegrees>
              <LongitudeDegrees>-5.62171353958547115325927734375</LongitudeDegrees>
            </Position>
            <AltitudeMeters>613.4000244140625</AltitudeMeters>
            <DistanceMeters>NAN</DistanceMeters>
          </Trackpoint>
          <Trackpoint>
            <Time>2019-10-05T12:00:24.000Z</Time>
            <Position>
              <LatitudeDegrees>41.9834400527179241180419921875</LatitudeDegrees>
              <LongitudeDegrees>-5.62178847379982471466064453125</LongitudeDegrees>
            </Position>
            <AltitudeMeters>612.5999755859375</AltitudeMeters>
            <DistanceMeters>NAN</DistanceMeters>
          </Trackpoint>
          <Trackpoint>
            <Time>2019-10-05T12:00:26.000Z</Time>
            <Position>
              <LatitudeDegrees>41.9834430702030658721923828125</LatitudeDegrees>
              <LongitudeDegrees>-5.621863491833209991455078125</LongitudeDegrees>
            </Position>
            <AltitudeMeters>612.4000244140625</AltitudeMeters>
            <DistanceMeters>NAN</DistanceMeters>
          </Trackpoint>
          <Trackpoint>
            <Time>2019-10-05T12:00:29.000Z</Time>
            <Position>
              <LatitudeDegrees>41.9834630191326141357421875</LatitudeDegrees>
              <LongitudeDegrees>-5.621983520686626434326171875</LongitudeDegrees>
            </Position>
            <AltitudeMeters>611.4000244140625</AltitudeMeters>
            <DistanceMeters>NAN</DistanceMeters>
          </Trackpoint>
          <Trackpoint>
            <Time>2019-10-05T12:00:31.000Z</Time>
            <Position>
              <LatitudeDegrees>41.98346209712326526641845703125</LatitudeDegrees>
              <LongitudeDegrees>-5.62208066694438457489013671875</LongitudeDegrees>
            </Position>
            <AltitudeMeters>610.20001220703125</AltitudeMeters>
            <DistanceMeters>NAN</DistanceMeters>
          </Trackpoint>
          <Trackpoint>
            <Time>2019-10-05T12:00:32.000Z</Time>
            <Position>
              <LatitudeDegrees>41.9834621809422969818115234375</LatitudeDegrees>
              <LongitudeDegrees>-5.62214017845690250396728515625</LongitudeDegrees>
            </Position>
            <AltitudeMeters>610</AltitudeMeters>
            <DistanceMeters>NAN</DistanceMeters>
          </Trackpoint>
          <Trackpoint>
            <Time>2019-10-05T12:00:34.000Z</Time>
            <Position>
              <LatitudeDegrees>41.9834735803306102752685546875</LatitudeDegrees>
              <LongitudeDegrees>-5.62225467525422573089599609375</LongitudeDegrees>
            </Position>
            <AltitudeMeters>609.4000244140625</AltitudeMeters>
            <DistanceMeters>NAN</DistanceMeters>
          </Trackpoint>
          <Trackpoint>
            <Time>2019-10-05T12:00:35.000Z</Time>
            <Position>
              <LatitudeDegrees>41.98348389007151126861572265625</LatitudeDegrees>
              <LongitudeDegrees>-5.622302033007144927978515625</LongitudeDegrees>
            </Position>
            <AltitudeMeters>609</AltitudeMeters>
            <DistanceMeters>NAN</DistanceMeters>
          </Trackpoint>
          <Trackpoint>
            <Time>2019-10-05T12:00:37.000Z</Time>
            <Position>
              <LatitudeDegrees>41.98349880985915660858154296875</LatitudeDegrees>
              <LongitudeDegrees>-5.62238308601081371307373046875</LongitudeDegrees>
            </Position>
            <AltitudeMeters>608.4000244140625</AltitudeMeters>
            <DistanceMeters>NAN</DistanceMeters>
          </Trackpoint>
          <Trackpoint>
            <Time>2019-10-05T12:00:39.000Z</Time>
            <Position>
              <LatitudeDegrees>41.98348791338503360748291015625</LatitudeDegrees>
              <LongitudeDegrees>-5.6224574334919452667236328125</LongitudeDegrees>
            </Position>
            <AltitudeMeters>607.79998779296875</AltitudeMeters>
            <DistanceMeters>NAN</DistanceMeters>
          </Trackpoint>
          <Trackpoint>
            <Time>2019-10-05T12:00:40.000Z</Time>
            <Position>
              <LatitudeDegrees>41.98346913792192935943603515625</LatitudeDegrees>
              <LongitudeDegrees>-5.622491799294948577880859375</LongitudeDegrees>
            </Position>
            <AltitudeMeters>607.20001220703125</AltitudeMeters>
            <DistanceMeters>NAN</DistanceMeters>
          </Trackpoint>
          <Trackpoint>
            <Time>2019-10-05T12:00:41.000Z</Time>
            <Position>
              <LatitudeDegrees>41.98344365693628787994384765625</LatitudeDegrees>
              <LongitudeDegrees>-5.62252239324152469635009765625</LongitudeDegrees>
            </Position>
            <AltitudeMeters>607.20001220703125</AltitudeMeters>
            <DistanceMeters>NAN</DistanceMeters>
          </Trackpoint>
          <Trackpoint>
            <Time>2019-10-05T12:00:43.000Z</Time>
            <Position>
              <LatitudeDegrees>41.98339554481208324432373046875</LatitudeDegrees>
              <LongitudeDegrees>-5.62257201410830020904541015625</LongitudeDegrees>
            </Position>
            <AltitudeMeters>606.79998779296875</AltitudeMeters>
            <DistanceMeters>NAN</DistanceMeters>
          </Trackpoint>
          <Trackpoint>
            <Time>2019-10-05T12:00:46.000Z</Time>
            <Position>
              <LatitudeDegrees>41.98329496197402477264404296875</LatitudeDegrees>
              <LongitudeDegrees>-5.62262129969894886016845703125</LongitudeDegrees>
            </Position>
            <AltitudeMeters>607.20001220703125</AltitudeMeters>
            <DistanceMeters>NAN</DistanceMeters>
          </Trackpoint>
          <Trackpoint>
            <Time>2019-10-05T12:00:51.000Z</Time>
            <Position>
              <LatitudeDegrees>41.9831607677042484283447265625</LatitudeDegrees>
              <LongitudeDegrees>-5.6227139197289943695068359375</LongitudeDegrees>
            </Position>
            <AltitudeMeters>607</AltitudeMeters>
            <DistanceMeters>NAN</DistanceMeters>
          </Trackpoint>
          <Trackpoint>
            <Time>2019-10-05T12:00:56.000Z</Time>
            <Position>
              <LatitudeDegrees>41.98303244076669216156005859375</LatitudeDegrees>
              <LongitudeDegrees>-5.6227348744869232177734375</LongitudeDegrees>
            </Position>
            <AltitudeMeters>607</AltitudeMeters>
            <DistanceMeters>NAN</DistanceMeters>
          </Trackpoint>
          <Trackpoint>
            <Time>2019-10-05T12:00:58.000Z</Time>
            <Position>
              <LatitudeDegrees>41.98298064060509204864501953125</LatitudeDegrees>
              <LongitudeDegrees>-5.62271274626255035400390625</LongitudeDegrees>
            </Position>
            <AltitudeMeters>607</AltitudeMeters>
            <DistanceMeters>NAN</DistanceMeters>
          </Trackpoint>
          <Trackpoint>
            <Time>2019-10-05T12:01:01.000Z</Time>
            <Position>
              <LatitudeDegrees>41.98290553875267505645751953125</LatitudeDegrees>
              <LongitudeDegrees>-5.62264502048492431640625</LongitudeDegrees>
            </Position>
            <AltitudeMeters>607.20001220703125</AltitudeMeters>
            <DistanceMeters>NAN</DistanceMeters>
          </Trackpoint>
          <Trackpoint>
            <Time>2019-10-05T12:01:05.000Z</Time>
            <Position>
              <LatitudeDegrees>41.98279255069792270660400390625</LatitudeDegrees>
              <LongitudeDegrees>-5.62256254255771636962890625</LongitudeDegrees>
            </Position>
            <AltitudeMeters>608</AltitudeMeters>
            <DistanceMeters>NAN</DistanceMeters>
          </Trackpoint>
          <Trackpoint>
            <Time>2019-10-05T12:01:07.000Z</Time>
            <Position>
              <LatitudeDegrees>41.98273655958473682403564453125</LatitudeDegrees>
              <LongitudeDegrees>-5.622536726295948028564453125</LongitudeDegrees>
            </Position>
            <AltitudeMeters>608</AltitudeMeters>
            <DistanceMeters>NAN</DistanceMeters>
          </Trackpoint>
          <Trackpoint>
            <Time>2019-10-05T12:01:08.000Z</Time>
            <Position>
              <LatitudeDegrees>41.98271174915134906768798828125</LatitudeDegrees>
              <LongitudeDegrees>-5.62253161333501338958740234375</LongitudeDegrees>
            </Position>
            <AltitudeMeters>608</AltitudeMeters>
            <DistanceMeters>NAN</DistanceMeters>
          </Trackpoint>
          <Trackpoint>
            <Time>2019-10-05T12:01:12.000Z</Time>
            <Position>
              <LatitudeDegrees>41.9826114177703857421875</LatitudeDegrees>
              <LongitudeDegrees>-5.62255105935037136077880859375</LongitudeDegrees>
            </Position>
            <AltitudeMeters>607.5999755859375</AltitudeMeters>
            <DistanceMeters>NAN</DistanceMeters>
          </Trackpoint>
          <Trackpoint>
            <Time>2019-10-05T12:01:14.000Z</Time>
            <Position>
              <LatitudeDegrees>41.98257185518741607666015625</LatitudeDegrees>
              <LongitudeDegrees>-5.6225630454719066619873046875</LongitudeDegrees>
            </Position>
            <AltitudeMeters>608.20001220703125</AltitudeMeters>
            <DistanceMeters>NAN</DistanceMeters>
          </Trackpoint>
          <Trackpoint>
            <Time>2019-10-05T12:01:16.000Z</Time>
            <Position>
              <LatitudeDegrees>41.98257730342447757720947265625</LatitudeDegrees>
              <LongitudeDegrees>-5.62256447039544582366943359375</LongitudeDegrees>
            </Position>
            <AltitudeMeters>608</AltitudeMeters>
            <DistanceMeters>NAN</DistanceMeters>
          </Trackpoint>
          <Trackpoint>
            <Time>2019-10-05T12:01:28.000Z</Time>
            <Position>
              <LatitudeDegrees>41.98256741277873516082763671875</LatitudeDegrees>
              <LongitudeDegrees>-5.62256664969027042388916015625</LongitudeDegrees>
            </Position>
            <AltitudeMeters>608.4000244140625</AltitudeMeters>
            <DistanceMeters>NAN</DistanceMeters>
          </Trackpoint>
          <Trackpoint>
            <Time>2019-10-05T12:01:30.000Z</Time>
            <Position>
              <LatitudeDegrees>41.98255651630461215972900390625</LatitudeDegrees>
              <LongitudeDegrees>-5.622573606669902801513671875</LongitudeDegrees>
            </Position>
            <AltitudeMeters>608.4000244140625</AltitudeMeters>
            <DistanceMeters>NAN</DistanceMeters>
          </Trackpoint>
          <Trackpoint>
            <Time>2019-10-05T12:01:36.000Z</Time>
            <Position>
              <LatitudeDegrees>41.98256070725619792938232421875</LatitudeDegrees>
              <LongitudeDegrees>-5.62256899662315845489501953125</LongitudeDegrees>
            </Position>
            <AltitudeMeters>608.4000244140625</AltitudeMeters>
            <DistanceMeters>NAN</DistanceMeters>
          </Trackpoint>
          <Trackpoint>
            <Time>2019-10-05T12:01:39.000Z</Time>
            <Position>
              <LatitudeDegrees>41.98256070725619792938232421875</LatitudeDegrees>
              <LongitudeDegrees>-5.62256899662315845489501953125</LongitudeDegrees>
            </Position>
            <AltitudeMeters>608.4000244140625</AltitudeMeters>
            <DistanceMeters>NAN</DistanceMeters>
          </Trackpoint>
          <Trackpoint>
            <Time>2019-10-05T12:01:40.000Z</Time>
            <Position>
              <LatitudeDegrees>41.98256070725619792938232421875</LatitudeDegrees>
              <LongitudeDegrees>-5.62256899662315845489501953125</LongitudeDegrees>
            </Position>
            <AltitudeMeters>608.4000244140625</AltitudeMeters>
            <DistanceMeters>NAN</DistanceMeters>
          </Trackpoint>
          <Trackpoint>
            <Time>2019-10-05T12:01:41.000Z</Time>
            <Position>
              <LatitudeDegrees>41.98256070725619792938232421875</LatitudeDegrees>
              <LongitudeDegrees>-5.62256899662315845489501953125</LongitudeDegrees>
            </Position>
            <AltitudeMeters>608.20001220703125</AltitudeMeters>
            <DistanceMeters>NAN</DistanceMeters>
          </Trackpoint>
          <Trackpoint>
            <Time>2019-10-05T12:01:44.000Z</Time>
            <Position>
              <LatitudeDegrees>41.98256070725619792938232421875</LatitudeDegrees>
              <LongitudeDegrees>-5.62256899662315845489501953125</LongitudeDegrees>
            </Position>
            <AltitudeMeters>608.20001220703125</AltitudeMeters>
            <DistanceMeters>NAN</DistanceMeters>
          </Trackpoint>
          <Trackpoint>
            <Time>2019-10-05T12:01:47.000Z</Time>
            <Position>
              <LatitudeDegrees>41.98256070725619792938232421875</LatitudeDegrees>
              <LongitudeDegrees>-5.62256899662315845489501953125</LongitudeDegrees>
            </Position>
            <AltitudeMeters>608.4000244140625</AltitudeMeters>
            <DistanceMeters>NAN</DistanceMeters>
          </Trackpoint>
          <Trackpoint>
            <Time>2019-10-05T12:02:00.000Z</Time>
            <Position>
              <LatitudeDegrees>41.98256070725619792938232421875</LatitudeDegrees>
              <LongitudeDegrees>-5.62256899662315845489501953125</LongitudeDegrees>
            </Position>
            <AltitudeMeters>608.20001220703125</AltitudeMeters>
            <DistanceMeters>NAN</DistanceMeters>
          </Trackpoint>
          <Trackpoint>
            <Time>2019-10-05T12:02:09.000Z</Time>
            <Position>
              <LatitudeDegrees>41.98256070725619792938232421875</LatitudeDegrees>
              <LongitudeDegrees>-5.62256899662315845489501953125</LongitudeDegrees>
            </Position>
            <AltitudeMeters>608</AltitudeMeters>
            <DistanceMeters>NAN</DistanceMeters>
          </Trackpoint>
          <Trackpoint>
            <Time>2019-10-05T12:02:15.000Z</Time>
            <Position>
              <LatitudeDegrees>41.982501111924648284912109375</LatitudeDegrees>
              <LongitudeDegrees>-5.6225885264575481414794921875</LongitudeDegrees>
            </Position>
            <AltitudeMeters>608.20001220703125</AltitudeMeters>
            <DistanceMeters>NAN</DistanceMeters>
          </Trackpoint>
          <Trackpoint>
            <Time>2019-10-05T12:02:17.000Z</Time>
            <Position>
              <LatitudeDegrees>41.98245492763817310333251953125</LatitudeDegrees>
              <LongitudeDegrees>-5.62260604463517665863037109375</LongitudeDegrees>
            </Position>
            <AltitudeMeters>608</AltitudeMeters>
            <DistanceMeters>NAN</DistanceMeters>
          </Trackpoint>
          <Trackpoint>
            <Time>2019-10-05T12:02:20.000Z</Time>
            <Position>
              <LatitudeDegrees>41.9823805801570415496826171875</LatitudeDegrees>
              <LongitudeDegrees>-5.62265465967357158660888671875</LongitudeDegrees>
            </Position>
            <AltitudeMeters>607.79998779296875</AltitudeMeters>
            <DistanceMeters>NAN</DistanceMeters>
          </Trackpoint>
          <Trackpoint>
            <Time>2019-10-05T12:02:22.000Z</Time>
            <Position>
              <LatitudeDegrees>41.98232919909060001373291015625</LatitudeDegrees>
              <LongitudeDegrees>-5.62270863912999629974365234375</LongitudeDegrees>
            </Position>
            <AltitudeMeters>607.5999755859375</AltitudeMeters>
            <DistanceMeters>NAN</DistanceMeters>
          </Trackpoint>
          <Trackpoint>
            <Time>2019-10-05T12:02:24.000Z</Time>
            <Position>
              <LatitudeDegrees>41.98227756656706333160400390625</LatitudeDegrees>
              <LongitudeDegrees>-5.622762702405452728271484375</LongitudeDegrees>
            </Position>
            <AltitudeMeters>607.5999755859375</AltitudeMeters>
            <DistanceMeters>NAN</DistanceMeters>
          </Trackpoint>
          <Trackpoint>
            <Time>2019-10-05T12:02:26.000Z</Time>
            <Position>
              <LatitudeDegrees>41.98222610168159008026123046875</LatitudeDegrees>
              <LongitudeDegrees>-5.62281056307256221771240234375</LongitudeDegrees>
            </Position>
            <AltitudeMeters>606.79998779296875</AltitudeMeters>
            <DistanceMeters>NAN</DistanceMeters>
          </Trackpoint>
          <Trackpoint>
            <Time>2019-10-05T12:02:28.000Z</Time>
            <Position>
              <LatitudeDegrees>41.982178576290607452392578125</LatitudeDegrees>
              <LongitudeDegrees>-5.62286202795803546905517578125</LongitudeDegrees>
            </Position>
            <AltitudeMeters>607.20001220703125</AltitudeMeters>
            <DistanceMeters>NAN</DistanceMeters>
          </Trackpoint>
          <Trackpoint>
            <Time>2019-10-05T12:02:35.000Z</Time>
            <Position>
              <LatitudeDegrees>41.9820060767233371734619140625</LatitudeDegrees>
              <LongitudeDegrees>-5.6230170093476772308349609375</LongitudeDegrees>
            </Position>
            <AltitudeMeters>607.20001220703125</AltitudeMeters>
            <DistanceMeters>NAN</DistanceMeters>
          </Trackpoint>
          <Trackpoint>
            <Time>2019-10-05T12:02:40.000Z</Time>
            <Position>
              <LatitudeDegrees>41.981890238821506500244140625</LatitudeDegrees>
              <LongitudeDegrees>-5.623100660741329193115234375</LongitudeDegrees>
            </Position>
            <AltitudeMeters>607.20001220703125</AltitudeMeters>
            <DistanceMeters>NAN</DistanceMeters>
          </Trackpoint>
          <Trackpoint>
            <Time>2019-10-05T12:02:46.000Z</Time>
            <Position>
              <LatitudeDegrees>41.981750093400478363037109375</LatitudeDegrees>
              <LongitudeDegrees>-5.62322328798472881317138671875</LongitudeDegrees>
            </Position>
            <AltitudeMeters>607</AltitudeMeters>
            <DistanceMeters>NAN</DistanceMeters>
          </Trackpoint>
          <Trackpoint>
            <Time>2019-10-05T12:02:49.000Z</Time>
            <Position>
              <LatitudeDegrees>41.98169033043086528778076171875</LatitudeDegrees>
              <LongitudeDegrees>-5.62329201959073543548583984375</LongitudeDegrees>
            </Position>
            <AltitudeMeters>606.79998779296875</AltitudeMeters>
            <DistanceMeters>NAN</DistanceMeters>
          </Trackpoint>
          <Trackpoint>
            <Time>2019-10-05T12:02:53.000Z</Time>
            <Position>
              <LatitudeDegrees>41.9816218502819538116455078125</LatitudeDegrees>
              <LongitudeDegrees>-5.62338598072528839111328125</LongitudeDegrees>
            </Position>
            <AltitudeMeters>607</AltitudeMeters>
            <DistanceMeters>NAN</DistanceMeters>
          </Trackpoint>
          <Trackpoint>
            <Time>2019-10-05T12:02:59.000Z</Time>
            <Position>
              <LatitudeDegrees>41.9814974628388881683349609375</LatitudeDegrees>
              <LongitudeDegrees>-5.6235395371913909912109375</LongitudeDegrees>
            </Position>
            <AltitudeMeters>606.5999755859375</AltitudeMeters>
            <DistanceMeters>NAN</DistanceMeters>
          </Trackpoint>
          <Trackpoint>
            <Time>2019-10-05T12:03:08.000Z</Time>
            <Position>
              <LatitudeDegrees>41.981335692107677459716796875</LatitudeDegrees>
              <LongitudeDegrees>-5.62377800233662128448486328125</LongitudeDegrees>
            </Position>
            <AltitudeMeters>607</AltitudeMeters>
            <DistanceMeters>NAN</DistanceMeters>
          </Trackpoint>
          <Trackpoint>
            <Time>2019-10-05T12:03:09.000Z</Time>
            <Position>
              <LatitudeDegrees>41.9813231192529201507568359375</LatitudeDegrees>
              <LongitudeDegrees>-5.62378940172493457794189453125</LongitudeDegrees>
            </Position>
            <AltitudeMeters>607</AltitudeMeters>
            <DistanceMeters>NAN</DistanceMeters>
          </Trackpoint>
          <Trackpoint>
            <Time>2019-10-05T12:03:12.000Z</Time>
            <Position>
              <LatitudeDegrees>41.98127374984323978424072265625</LatitudeDegrees>
              <LongitudeDegrees>-5.62384556047618389129638671875</LongitudeDegrees>
            </Position>
            <AltitudeMeters>606.5999755859375</AltitudeMeters>
            <DistanceMeters>NAN</DistanceMeters>
          </Trackpoint>
          <Trackpoint>
            <Time>2019-10-05T12:03:14.000Z</Time>
            <Position>
              <LatitudeDegrees>41.98124038986861705780029296875</LatitudeDegrees>
              <LongitudeDegrees>-5.62388696707785129547119140625</LongitudeDegrees>
            </Position>
            <AltitudeMeters>606.5999755859375</AltitudeMeters>
            <DistanceMeters>NAN</DistanceMeters>
          </Trackpoint>
          <Trackpoint>
            <Time>2019-10-05T12:03:18.000Z</Time>
            <Position>
              <LatitudeDegrees>41.98116981424391269683837890625</LatitudeDegrees>
              <LongitudeDegrees>-5.623987130820751190185546875</LongitudeDegrees>
            </Position>
            <AltitudeMeters>606.20001220703125</AltitudeMeters>
            <DistanceMeters>NAN</DistanceMeters>
          </Trackpoint>
          <Trackpoint>
            <Time>2019-10-05T12:03:21.000Z</Time>
            <Position>
              <LatitudeDegrees>41.98111684061586856842041015625</LatitudeDegrees>
              <LongitudeDegrees>-5.62407539226114749908447265625</LongitudeDegrees>
            </Position>
            <AltitudeMeters>606.5999755859375</AltitudeMeters>
            <DistanceMeters>NAN</DistanceMeters>
          </Trackpoint>
          <Trackpoint>
            <Time>2019-10-05T12:03:23.000Z</Time>
            <Position>
              <LatitudeDegrees>41.98107224889099597930908203125</LatitudeDegrees>
              <LongitudeDegrees>-5.62414077110588550567626953125</LongitudeDegrees>
            </Position>
            <AltitudeMeters>606</AltitudeMeters>
            <DistanceMeters>NAN</DistanceMeters>
          </Trackpoint>
          <Trackpoint>
            <Time>2019-10-05T12:03:33.000Z</Time>
            <Position>
              <LatitudeDegrees>41.9808554090559482574462890625</LatitudeDegrees>
              <LongitudeDegrees>-5.6245120055973529815673828125</LongitudeDegrees>
            </Position>
            <AltitudeMeters>607.5999755859375</AltitudeMeters>
            <DistanceMeters>NAN</DistanceMeters>
          </Trackpoint>
          <Trackpoint>
            <Time>2019-10-05T12:03:34.000Z</Time>
            <Position>
              <LatitudeDegrees>41.98083520866930484771728515625</LatitudeDegrees>
              <LongitudeDegrees>-5.6245453655719757080078125</LongitudeDegrees>
            </Position>
            <AltitudeMeters>607.79998779296875</AltitudeMeters>
            <DistanceMeters>NAN</DistanceMeters>
          </Trackpoint>
          <Trackpoint>
            <Time>2019-10-05T12:03:39.000Z</Time>
            <Position>
              <LatitudeDegrees>41.98074384592473506927490234375</LatitudeDegrees>
              <LongitudeDegrees>-5.624755583703517913818359375</LongitudeDegrees>
            </Position>
            <AltitudeMeters>607.4000244140625</AltitudeMeters>
            <DistanceMeters>NAN</DistanceMeters>
          </Trackpoint>
          <Trackpoint>
            <Time>2019-10-05T12:03:40.000Z</Time>
            <Position>
              <LatitudeDegrees>41.9807166047394275665283203125</LatitudeDegrees>
              <LongitudeDegrees>-5.62480612657964229583740234375</LongitudeDegrees>
            </Position>
            <AltitudeMeters>606.4000244140625</AltitudeMeters>
            <DistanceMeters>NAN</DistanceMeters>
          </Trackpoint>
          <Trackpoint>
            <Time>2019-10-05T12:03:45.000Z</Time>
            <Position>
              <LatitudeDegrees>41.98056598193943500518798828125</LatitudeDegrees>
              <LongitudeDegrees>-5.625039227306842803955078125</LongitudeDegrees>
            </Position>
            <AltitudeMeters>605.79998779296875</AltitudeMeters>
            <DistanceMeters>NAN</DistanceMeters>
          </Trackpoint>
          <Trackpoint>
            <Time>2019-10-05T12:03:52.000Z</Time>
            <Position>
              <LatitudeDegrees>41.98038727976381778717041015625</LatitudeDegrees>
              <LongitudeDegrees>-5.62536234967410564422607421875</LongitudeDegrees>
            </Position>
            <AltitudeMeters>606.20001220703125</AltitudeMeters>
            <DistanceMeters>NAN</DistanceMeters>
          </Trackpoint>
          <Trackpoint>
            <Time>2019-10-05T12:03:59.000Z</Time>
            <Position>
              <LatitudeDegrees>41.98022425174713134765625</LatitudeDegrees>
              <LongitudeDegrees>-5.625712461769580841064453125</LongitudeDegrees>
            </Position>
            <AltitudeMeters>605.79998779296875</AltitudeMeters>
            <DistanceMeters>NAN</DistanceMeters>
          </Trackpoint>
          <Trackpoint>
            <Time>2019-10-05T12:04:02.000Z</Time>
            <Position>
              <LatitudeDegrees>41.98015652596950531005859375</LatitudeDegrees>
              <LongitudeDegrees>-5.62587750144302845001220703125</LongitudeDegrees>
            </Position>
            <AltitudeMeters>606</AltitudeMeters>
            <DistanceMeters>NAN</DistanceMeters>
          </Trackpoint>
          <Trackpoint>
            <Time>2019-10-05T12:04:05.000Z</Time>
            <Position>
              <LatitudeDegrees>41.98007329367101192474365234375</LatitudeDegrees>
              <LongitudeDegrees>-5.6260133720934391021728515625</LongitudeDegrees>
            </Position>
            <AltitudeMeters>606</AltitudeMeters>
            <DistanceMeters>NAN</DistanceMeters>
          </Trackpoint>
          <Trackpoint>
            <Time>2019-10-05T12:04:09.000Z</Time>
            <Position>
              <LatitudeDegrees>41.97995745576918125152587890625</LatitudeDegrees>
              <LongitudeDegrees>-5.62618008814752101898193359375</LongitudeDegrees>
            </Position>
            <AltitudeMeters>605.5999755859375</AltitudeMeters>
            <DistanceMeters>NAN</DistanceMeters>
          </Trackpoint>
          <Trackpoint>
            <Time>2019-10-05T12:04:11.000Z</Time>
            <Position>
              <LatitudeDegrees>41.97992443107068538665771484375</LatitudeDegrees>
              <LongitudeDegrees>-5.6262665055692195892333984375</LongitudeDegrees>
            </Position>
            <AltitudeMeters>606</AltitudeMeters>
            <DistanceMeters>NAN</DistanceMeters>
          </Trackpoint>
          <Trackpoint>
            <Time>2019-10-05T12:04:19.000Z</Time>
            <Position>
              <LatitudeDegrees>41.97974522598087787628173828125</LatitudeDegrees>
              <LongitudeDegrees>-5.62666020356118679046630859375</LongitudeDegrees>
            </Position>
            <AltitudeMeters>605.79998779296875</AltitudeMeters>
            <DistanceMeters>NAN</DistanceMeters>
          </Trackpoint>
          <Trackpoint>
            <Time>2019-10-05T12:04:20.000Z</Time>
            <Position>
              <LatitudeDegrees>41.97971622459590435028076171875</LatitudeDegrees>
              <LongitudeDegrees>-5.62670462764799594879150390625</LongitudeDegrees>
            </Position>
            <AltitudeMeters>605.5999755859375</AltitudeMeters>
            <DistanceMeters>NAN</DistanceMeters>
          </Trackpoint>
          <Trackpoint>
            <Time>2019-10-05T12:04:22.000Z</Time>
            <Position>
              <LatitudeDegrees>41.9796608202159404754638671875</LatitudeDegrees>
              <LongitudeDegrees>-5.626791380345821380615234375</LongitudeDegrees>
            </Position>
            <AltitudeMeters>605.4000244140625</AltitudeMeters>
            <DistanceMeters>NAN</DistanceMeters>
          </Trackpoint>
          <Trackpoint>
            <Time>2019-10-05T12:04:25.000Z</Time>
            <Position>
              <LatitudeDegrees>41.97958328761160373687744140625</LatitudeDegrees>
              <LongitudeDegrees>-5.62693077139556407928466796875</LongitudeDegrees>
            </Position>
            <AltitudeMeters>605.79998779296875</AltitudeMeters>
            <DistanceMeters>NAN</DistanceMeters>
          </Trackpoint>
          <Trackpoint>
            <Time>2019-10-05T12:04:31.000Z</Time>
            <Position>
              <LatitudeDegrees>41.97941891849040985107421875</LatitudeDegrees>
              <LongitudeDegrees>-5.62722296454012393951416015625</LongitudeDegrees>
            </Position>
            <AltitudeMeters>606.4000244140625</AltitudeMeters>
            <DistanceMeters>NAN</DistanceMeters>
          </Trackpoint>
          <Trackpoint>
            <Time>2019-10-05T12:04:34.000Z</Time>
            <Position>
              <LatitudeDegrees>41.9793490134179592132568359375</LatitudeDegrees>
              <LongitudeDegrees>-5.6273402273654937744140625</LongitudeDegrees>
            </Position>
            <AltitudeMeters>606.5999755859375</AltitudeMeters>
            <DistanceMeters>NAN</DistanceMeters>
          </Trackpoint>
          <Trackpoint>
            <Time>2019-10-05T12:04:41.000Z</Time>
            <Position>
              <LatitudeDegrees>41.979111135005950927734375</LatitudeDegrees>
              <LongitudeDegrees>-5.627648346126079559326171875</LongitudeDegrees>
            </Position>
            <AltitudeMeters>605.4000244140625</AltitudeMeters>
            <DistanceMeters>NAN</DistanceMeters>
          </Trackpoint>
          <Trackpoint>
            <Time>2019-10-05T12:04:42.000Z</Time>
            <Position>
              <LatitudeDegrees>41.97907014749944210052490234375</LatitudeDegrees>
              <LongitudeDegrees>-5.62768396921455860137939453125</LongitudeDegrees>
            </Position>
            <AltitudeMeters>605.20001220703125</AltitudeMeters>
            <DistanceMeters>NAN</DistanceMeters>
          </Trackpoint>
          <Trackpoint>
            <Time>2019-10-05T12:04:44.000Z</Time>
            <Position>
              <LatitudeDegrees>41.97899688966572284698486328125</LatitudeDegrees>
              <LongitudeDegrees>-5.62775890342891216278076171875</LongitudeDegrees>
            </Position>
            <AltitudeMeters>605</AltitudeMeters>
            <DistanceMeters>NAN</DistanceMeters>
          </Trackpoint>
          <Trackpoint>
            <Time>2019-10-05T12:04:47.000Z</Time>
            <Position>
              <LatitudeDegrees>41.97888289578258991241455078125</LatitudeDegrees>
              <LongitudeDegrees>-5.62787608243525028228759765625</LongitudeDegrees>
            </Position>
            <AltitudeMeters>604.79998779296875</AltitudeMeters>
            <DistanceMeters>NAN</DistanceMeters>
          </Trackpoint>
          <Trackpoint>
            <Time>2019-10-05T12:04:52.000Z</Time>
            <Position>
              <LatitudeDegrees>41.97868810035288333892822265625</LatitudeDegrees>
              <LongitudeDegrees>-5.6279811076819896697998046875</LongitudeDegrees>
            </Position>
            <AltitudeMeters>605.20001220703125</AltitudeMeters>
            <DistanceMeters>NAN</DistanceMeters>
          </Trackpoint>
          <Trackpoint>
            <Time>2019-10-05T12:04:53.000Z</Time>
            <Position>
              <LatitudeDegrees>41.97865222580730915069580078125</LatitudeDegrees>
              <LongitudeDegrees>-5.6280065886676311492919921875</LongitudeDegrees>
            </Position>
            <AltitudeMeters>605.4000244140625</AltitudeMeters>
            <DistanceMeters>NAN</DistanceMeters>
          </Trackpoint>
          <Trackpoint>
            <Time>2019-10-05T12:04:55.000Z</Time>
            <Position>
              <LatitudeDegrees>41.97857712395489215850830078125</LatitudeDegrees>
              <LongitudeDegrees>-5.6280488334596157073974609375</LongitudeDegrees>
            </Position>
            <AltitudeMeters>605.5999755859375</AltitudeMeters>
            <DistanceMeters>NAN</DistanceMeters>
          </Trackpoint>
          <Trackpoint>
            <Time>2019-10-05T12:04:57.000Z</Time>
            <Position>
              <LatitudeDegrees>41.97849263437092304229736328125</LatitudeDegrees>
              <LongitudeDegrees>-5.6280590593814849853515625</LongitudeDegrees>
            </Position>
            <AltitudeMeters>605.5999755859375</AltitudeMeters>
            <DistanceMeters>NAN</DistanceMeters>
          </Trackpoint>
          <Trackpoint>
            <Time>2019-10-05T12:05:00.000Z</Time>
            <Position>
              <LatitudeDegrees>41.978404037654399871826171875</LatitudeDegrees>
              <LongitudeDegrees>-5.62807356007397174835205078125</LongitudeDegrees>
            </Position>
            <AltitudeMeters>606.5999755859375</AltitudeMeters>
            <DistanceMeters>NAN</DistanceMeters>
          </Trackpoint>
          <Trackpoint>
            <Time>2019-10-05T12:05:01.000Z</Time>
            <Position>
              <LatitudeDegrees>41.97837478481233119964599609375</LatitudeDegrees>
              <LongitudeDegrees>-5.628081522881984710693359375</LongitudeDegrees>
            </Position>
            <AltitudeMeters>607.4000244140625</AltitudeMeters>
            <DistanceMeters>NAN</DistanceMeters>
          </Trackpoint>
          <Trackpoint>
            <Time>2019-10-05T12:05:03.000Z</Time>
            <Position>
              <LatitudeDegrees>41.97832650505006313323974609375</LatitudeDegrees>
              <LongitudeDegrees>-5.62809267081320285797119140625</LongitudeDegrees>
            </Position>
            <AltitudeMeters>607.5999755859375</AltitudeMeters>
            <DistanceMeters>NAN</DistanceMeters>
          </Trackpoint>
          <Trackpoint>
            <Time>2019-10-05T12:05:05.000Z</Time>
            <Position>
              <LatitudeDegrees>41.97826313786208629608154296875</LatitudeDegrees>
              <LongitudeDegrees>-5.6281125359237194061279296875</LongitudeDegrees>
            </Position>
            <AltitudeMeters>608</AltitudeMeters>
            <DistanceMeters>NAN</DistanceMeters>
          </Trackpoint>
          <Trackpoint>
            <Time>2019-10-05T12:05:08.000Z</Time>
            <Position>
              <LatitudeDegrees>41.97815735824406147003173828125</LatitudeDegrees>
              <LongitudeDegrees>-5.628140866756439208984375</LongitudeDegrees>
            </Position>
            <AltitudeMeters>607.4000244140625</AltitudeMeters>
            <DistanceMeters>NAN</DistanceMeters>
          </Trackpoint>
          <Trackpoint>
            <Time>2019-10-05T12:05:12.000Z</Time>
            <Position>
              <LatitudeDegrees>41.97801402769982814788818359375</LatitudeDegrees>
              <LongitudeDegrees>-5.62818772159516811370849609375</LongitudeDegrees>
            </Position>
            <AltitudeMeters>607.20001220703125</AltitudeMeters>
            <DistanceMeters>NAN</DistanceMeters>
          </Trackpoint>
          <Trackpoint>
            <Time>2019-10-05T12:05:20.000Z</Time>
            <Position>
              <LatitudeDegrees>41.97770490311086177825927734375</LatitudeDegrees>
              <LongitudeDegrees>-5.62828897498548030853271484375</LongitudeDegrees>
            </Position>
            <AltitudeMeters>606.79998779296875</AltitudeMeters>
            <DistanceMeters>NAN</DistanceMeters>
          </Trackpoint>
          <Trackpoint>
            <Time>2019-10-05T12:05:21.000Z</Time>
            <Position>
              <LatitudeDegrees>41.977669112384319305419921875</LatitudeDegrees>
              <LongitudeDegrees>-5.62829869799315929412841796875</LongitudeDegrees>
            </Position>
            <AltitudeMeters>606.20001220703125</AltitudeMeters>
            <DistanceMeters>NAN</DistanceMeters>
          </Trackpoint>
          <Trackpoint>
            <Time>2019-10-05T12:05:25.000Z</Time>
            <Position>
              <LatitudeDegrees>41.9775180704891681671142578125</LatitudeDegrees>
              <LongitudeDegrees>-5.6283381767570972442626953125</LongitudeDegrees>
            </Position>
            <AltitudeMeters>607.4000244140625</AltitudeMeters>
            <DistanceMeters>NAN</DistanceMeters>
          </Trackpoint>
          <Trackpoint>
            <Time>2019-10-05T12:05:26.000Z</Time>
            <Position>
              <LatitudeDegrees>41.97747968137264251708984375</LatitudeDegrees>
              <LongitudeDegrees>-5.62833507545292377471923828125</LongitudeDegrees>
            </Position>
            <AltitudeMeters>607.5999755859375</AltitudeMeters>
            <DistanceMeters>NAN</DistanceMeters>
          </Trackpoint>
          <Trackpoint>
            <Time>2019-10-05T12:05:29.000Z</Time>
            <Position>
              <LatitudeDegrees>41.97736677713692188262939453125</LatitudeDegrees>
              <LongitudeDegrees>-5.628310181200504302978515625</LongitudeDegrees>
            </Position>
            <AltitudeMeters>607.5999755859375</AltitudeMeters>
            <DistanceMeters>NAN</DistanceMeters>
          </Trackpoint>
          <Trackpoint>
            <Time>2019-10-05T12:05:31.000Z</Time>
            <Position>
              <LatitudeDegrees>41.97727843187749385833740234375</LatitudeDegrees>
              <LongitudeDegrees>-5.62828897498548030853271484375</LongitudeDegrees>
            </Position>
            <AltitudeMeters>608.4000244140625</AltitudeMeters>
            <DistanceMeters>NAN</DistanceMeters>
          </Trackpoint>
          <Trackpoint>
            <Time>2019-10-05T12:05:32.000Z</Time>
            <Position>
              <LatitudeDegrees>41.977266781032085418701171875</LatitudeDegrees>
              <LongitudeDegrees>-5.6282959319651126861572265625</LongitudeDegrees>
            </Position>
            <AltitudeMeters>608.5999755859375</AltitudeMeters>
            <DistanceMeters>NAN</DistanceMeters>
          </Trackpoint>
          <Trackpoint>
            <Time>2019-10-05T12:05:33.000Z</Time>
            <Position>
              <LatitudeDegrees>41.97723719291388988494873046875</LatitudeDegrees>
              <LongitudeDegrees>-5.62830037437379360198974609375</LongitudeDegrees>
            </Position>
            <AltitudeMeters>609.79998779296875</AltitudeMeters>
            <DistanceMeters>NAN</DistanceMeters>
          </Trackpoint>
          <Trackpoint>
            <Time>2019-10-05T12:05:39.000Z</Time>
            <Position>
              <LatitudeDegrees>41.97703904472291469573974609375</LatitudeDegrees>
              <LongitudeDegrees>-5.62835083343088626861572265625</LongitudeDegrees>
            </Position>
            <AltitudeMeters>609.20001220703125</AltitudeMeters>
            <DistanceMeters>NAN</DistanceMeters>
          </Trackpoint>
          <Trackpoint>
            <Time>2019-10-05T12:05:45.000Z</Time>
            <Position>
              <LatitudeDegrees>41.97684961371123790740966796875</LatitudeDegrees>
              <LongitudeDegrees>-5.62840498052537441253662109375</LongitudeDegrees>
            </Position>
            <AltitudeMeters>609.5999755859375</AltitudeMeters>
            <DistanceMeters>NAN</DistanceMeters>
          </Trackpoint>
          <Trackpoint>
            <Time>2019-10-05T12:05:46.000Z</Time>
            <Position>
              <LatitudeDegrees>41.9768186844885349273681640625</LatitudeDegrees>
              <LongitudeDegrees>-5.6284323893487453460693359375</LongitudeDegrees>
            </Position>
            <AltitudeMeters>609.20001220703125</AltitudeMeters>
            <DistanceMeters>NAN</DistanceMeters>
          </Trackpoint>
          <Trackpoint>
            <Time>2019-10-05T12:05:51.000Z</Time>
            <Position>
              <LatitudeDegrees>41.9767063669860363006591796875</LatitudeDegrees>
              <LongitudeDegrees>-5.62861922197043895721435546875</LongitudeDegrees>
            </Position>
            <AltitudeMeters>609</AltitudeMeters>
            <DistanceMeters>NAN</DistanceMeters>
          </Trackpoint>
          <Trackpoint>
            <Time>2019-10-05T12:05:53.000Z</Time>
            <Position>
              <LatitudeDegrees>41.9766681455075740814208984375</LatitudeDegrees>
              <LongitudeDegrees>-5.628704130649566650390625</LongitudeDegrees>
            </Position>
            <AltitudeMeters>608.79998779296875</AltitudeMeters>
            <DistanceMeters>NAN</DistanceMeters>
          </Trackpoint>
          <Trackpoint>
            <Time>2019-10-05T12:05:55.000Z</Time>
            <Position>
              <LatitudeDegrees>41.97661777026951313018798828125</LatitudeDegrees>
              <LongitudeDegrees>-5.6287636421620845794677734375</LongitudeDegrees>
            </Position>
            <AltitudeMeters>608.79998779296875</AltitudeMeters>
            <DistanceMeters>NAN</DistanceMeters>
          </Trackpoint>
          <Trackpoint>
            <Time>2019-10-05T12:05:56.000Z</Time>
            <Position>
              <LatitudeDegrees>41.976592540740966796875</LatitudeDegrees>
              <LongitudeDegrees>-5.628782920539379119873046875</LongitudeDegrees>
            </Position>
            <AltitudeMeters>609</AltitudeMeters>
            <DistanceMeters>NAN</DistanceMeters>
          </Trackpoint>
          <Trackpoint>
            <Time>2019-10-05T12:05:59.000Z</Time>
            <Position>
              <LatitudeDegrees>41.97648902423679828643798828125</LatitudeDegrees>
              <LongitudeDegrees>-5.6288337148725986480712890625</LongitudeDegrees>
            </Position>
            <AltitudeMeters>608.5999755859375</AltitudeMeters>
            <DistanceMeters>NAN</DistanceMeters>
          </Trackpoint>
          <Trackpoint>
            <Time>2019-10-05T12:06:01.000Z</Time>
            <Position>
              <LatitudeDegrees>41.9764166884124279022216796875</LatitudeDegrees>
              <LongitudeDegrees>-5.62887637875974178314208984375</LongitudeDegrees>
            </Position>
            <AltitudeMeters>608.4000244140625</AltitudeMeters>
            <DistanceMeters>NAN</DistanceMeters>
          </Trackpoint>
          <Trackpoint>
            <Time>2019-10-05T12:06:04.000Z</Time>
            <Position>
              <LatitudeDegrees>41.9763432629406452178955078125</LatitudeDegrees>
              <LongitudeDegrees>-5.6289698369801044464111328125</LongitudeDegrees>
            </Position>
            <AltitudeMeters>608.5999755859375</AltitudeMeters>
            <DistanceMeters>NAN</DistanceMeters>
          </Trackpoint>
          <Trackpoint>
            <Time>2019-10-05T12:06:05.000Z</Time>
            <Position>
              <LatitudeDegrees>41.97632172144949436187744140625</LatitudeDegrees>
              <LongitudeDegrees>-5.6290050409734249114990234375</LongitudeDegrees>
            </Position>
            <AltitudeMeters>608.5999755859375</AltitudeMeters>
            <DistanceMeters>NAN</DistanceMeters>
          </Trackpoint>
          <Trackpoint>
            <Time>2019-10-05T12:06:11.000Z</Time>
            <Position>
              <LatitudeDegrees>41.97615324519574642181396484375</LatitudeDegrees>
              <LongitudeDegrees>-5.62916421331465244293212890625</LongitudeDegrees>
            </Position>
            <AltitudeMeters>608</AltitudeMeters>
            <DistanceMeters>NAN</DistanceMeters>
          </Trackpoint>
          <Trackpoint>
            <Time>2019-10-05T12:06:17.000Z</Time>
            <Position>
              <LatitudeDegrees>41.97602181695401668548583984375</LatitudeDegrees>
              <LongitudeDegrees>-5.6292568333446979522705078125</LongitudeDegrees>
            </Position>
            <AltitudeMeters>609.20001220703125</AltitudeMeters>
            <DistanceMeters>NAN</DistanceMeters>
          </Trackpoint>
          <Trackpoint>
            <Time>2019-10-05T12:06:19.000Z</Time>
            <Position>
              <LatitudeDegrees>41.9759821705520153045654296875</LatitudeDegrees>
              <LongitudeDegrees>-5.6292803026735782623291015625</LongitudeDegrees>
            </Position>
            <AltitudeMeters>609.79998779296875</AltitudeMeters>
            <DistanceMeters>NAN</DistanceMeters>
          </Trackpoint>
          <Trackpoint>
            <Time>2019-10-05T12:06:25.000Z</Time>
            <Position>
              <LatitudeDegrees>41.9758777320384979248046875</LatitudeDegrees>
              <LongitudeDegrees>-5.6293429993093013763427734375</LongitudeDegrees>
            </Position>
            <AltitudeMeters>610.5999755859375</AltitudeMeters>
            <DistanceMeters>NAN</DistanceMeters>
          </Trackpoint>
          <Trackpoint>
            <Time>2019-10-05T12:06:27.000Z</Time>
            <Position>
              <LatitudeDegrees>41.9758482277393341064453125</LatitudeDegrees>
              <LongitudeDegrees>-5.6293748505413532257080078125</LongitudeDegrees>
            </Position>
            <AltitudeMeters>611</AltitudeMeters>
            <DistanceMeters>NAN</DistanceMeters>
          </Trackpoint>
          <Trackpoint>
            <Time>2019-10-05T12:06:30.000Z</Time>
            <Position>
              <LatitudeDegrees>41.9758001156151294708251953125</LatitudeDegrees>
              <LongitudeDegrees>-5.629415251314640045166015625</LongitudeDegrees>
            </Position>
            <AltitudeMeters>611.79998779296875</AltitudeMeters>
            <DistanceMeters>NAN</DistanceMeters>
          </Trackpoint>
          <Trackpoint>
            <Time>2019-10-05T12:06:31.000Z</Time>
            <Position>
              <LatitudeDegrees>41.9757838547229766845703125</LatitudeDegrees>
              <LongitudeDegrees>-5.6294264830648899078369140625</LongitudeDegrees>
            </Position>
            <AltitudeMeters>611.79998779296875</AltitudeMeters>
            <DistanceMeters>NAN</DistanceMeters>
          </Trackpoint>
          <Trackpoint>
            <Time>2019-10-05T12:06:32.000Z</Time>
            <Position>
              <LatitudeDegrees>41.9757608883082866668701171875</LatitudeDegrees>
              <LongitudeDegrees>-5.6294425763189792633056640625</LongitudeDegrees>
            </Position>
            <AltitudeMeters>612.20001220703125</AltitudeMeters>
            <DistanceMeters>NAN</DistanceMeters>
          </Trackpoint>
          <Trackpoint>
            <Time>2019-10-05T12:06:36.000Z</Time>
            <Position>
              <LatitudeDegrees>41.975707747042179107666015625</LatitudeDegrees>
              <LongitudeDegrees>-5.62949781306087970733642578125</LongitudeDegrees>
            </Position>
            <AltitudeMeters>613</AltitudeMeters>
            <DistanceMeters>NAN</DistanceMeters>
          </Trackpoint>
          <Trackpoint>
            <Time>2019-10-05T12:06:37.000Z</Time>
            <Position>
              <LatitudeDegrees>41.975691318511962890625</LatitudeDegrees>
              <LongitudeDegrees>-5.629511140286922454833984375</LongitudeDegrees>
            </Position>
            <AltitudeMeters>613.20001220703125</AltitudeMeters>
            <DistanceMeters>NAN</DistanceMeters>
          </Trackpoint>
          <Trackpoint>
            <Time>2019-10-05T12:06:40.000Z</Time>
            <Position>
              <LatitudeDegrees>41.97564211674034595489501953125</LatitudeDegrees>
              <LongitudeDegrees>-5.62955598346889019012451171875</LongitudeDegrees>
            </Position>
            <AltitudeMeters>614</AltitudeMeters>
            <DistanceMeters>NAN</DistanceMeters>
          </Trackpoint>
          <Trackpoint>
            <Time>2019-10-05T12:06:42.000Z</Time>
            <Position>
              <LatitudeDegrees>41.9756106846034526824951171875</LatitudeDegrees>
              <LongitudeDegrees>-5.62958096154034137725830078125</LongitudeDegrees>
            </Position>
            <AltitudeMeters>614.4000244140625</AltitudeMeters>
            <DistanceMeters>NAN</DistanceMeters>
          </Trackpoint>
          <Trackpoint>
            <Time>2019-10-05T12:06:46.000Z</Time>
            <Position>
              <LatitudeDegrees>41.97554890997707843780517578125</LatitudeDegrees>
              <LongitudeDegrees>-5.6296296603977680206298828125</LongitudeDegrees>
            </Position>
            <AltitudeMeters>615.4000244140625</AltitudeMeters>
            <DistanceMeters>NAN</DistanceMeters>
          </Trackpoint>
          <Trackpoint>
            <Time>2019-10-05T12:06:48.000Z</Time>
            <Position>
              <LatitudeDegrees>41.9755268655717372894287109375</LatitudeDegrees>
              <LongitudeDegrees>-5.62966243363916873931884765625</LongitudeDegrees>
            </Position>
            <AltitudeMeters>616.20001220703125</AltitudeMeters>
            <DistanceMeters>NAN</DistanceMeters>
          </Trackpoint>
          <Trackpoint>
            <Time>2019-10-05T12:06:52.000Z</Time>
            <Position>
              <LatitudeDegrees>41.97548353113234043121337890625</LatitudeDegrees>
              <LongitudeDegrees>-5.629720352590084075927734375</LongitudeDegrees>
            </Position>
            <AltitudeMeters>616.79998779296875</AltitudeMeters>
            <DistanceMeters>NAN</DistanceMeters>
          </Trackpoint>
          <Trackpoint>
            <Time>2019-10-05T12:06:55.000Z</Time>
            <Position>
              <LatitudeDegrees>41.97543676011264324188232421875</LatitudeDegrees>
              <LongitudeDegrees>-5.62976100482046604156494140625</LongitudeDegrees>
            </Position>
            <AltitudeMeters>617.4000244140625</AltitudeMeters>
            <DistanceMeters>NAN</DistanceMeters>
          </Trackpoint>
          <Trackpoint>
            <Time>2019-10-05T12:06:57.000Z</Time>
            <Position>
              <LatitudeDegrees>41.97541345842182636260986328125</LatitudeDegrees>
              <LongitudeDegrees>-5.6297922693192958831787109375</LongitudeDegrees>
            </Position>
            <AltitudeMeters>617.79998779296875</AltitudeMeters>
            <DistanceMeters>NAN</DistanceMeters>
          </Trackpoint>
          <Trackpoint>
            <Time>2019-10-05T12:07:01.000Z</Time>
            <Position>
              <LatitudeDegrees>41.9753632508218288421630859375</LatitudeDegrees>
              <LongitudeDegrees>-5.6298593245446681976318359375</LongitudeDegrees>
            </Position>
            <AltitudeMeters>618.5999755859375</AltitudeMeters>
            <DistanceMeters>NAN</DistanceMeters>
          </Trackpoint>
          <Trackpoint>
            <Time>2019-10-05T12:07:02.000Z</Time>
            <Position>
              <LatitudeDegrees>41.97534858249127864837646484375</LatitudeDegrees>
              <LongitudeDegrees>-5.62987114302814006805419921875</LongitudeDegrees>
            </Position>
            <AltitudeMeters>619</AltitudeMeters>
            <DistanceMeters>NAN</DistanceMeters>
          </Trackpoint>
          <Trackpoint>
            <Time>2019-10-05T12:07:07.000Z</Time>
            <Position>
              <LatitudeDegrees>41.97528923861682415008544921875</LatitudeDegrees>
              <LongitudeDegrees>-5.62994356267154216766357421875</LongitudeDegrees>
            </Position>
            <AltitudeMeters>620.20001220703125</AltitudeMeters>
            <DistanceMeters>NAN</DistanceMeters>
          </Trackpoint>
          <Trackpoint>
            <Time>2019-10-05T12:07:11.000Z</Time>
            <Position>
              <LatitudeDegrees>41.975247077643871307373046875</LatitudeDegrees>
              <LongitudeDegrees>-5.6300098635256290435791015625</LongitudeDegrees>
            </Position>
            <AltitudeMeters>621.4000244140625</AltitudeMeters>
            <DistanceMeters>NAN</DistanceMeters>
          </Trackpoint>
          <Trackpoint>
            <Time>2019-10-05T12:07:16.000Z</Time>
            <Position>
              <LatitudeDegrees>41.9751915894448757171630859375</LatitudeDegrees>
              <LongitudeDegrees>-5.6300899945199489593505859375</LongitudeDegrees>
            </Position>
            <AltitudeMeters>622.5999755859375</AltitudeMeters>
            <DistanceMeters>NAN</DistanceMeters>
          </Trackpoint>
          <Trackpoint>
            <Time>2019-10-05T12:07:17.000Z</Time>
            <Position>
              <LatitudeDegrees>41.97517842985689640045166015625</LatitudeDegrees>
              <LongitudeDegrees>-5.63010399229824542999267578125</LongitudeDegrees>
            </Position>
            <AltitudeMeters>622.79998779296875</AltitudeMeters>
            <DistanceMeters>NAN</DistanceMeters>
          </Trackpoint>
          <Trackpoint>
            <Time>2019-10-05T12:07:20.000Z</Time>
            <Position>
              <LatitudeDegrees>41.97514289058744907379150390625</LatitudeDegrees>
              <LongitudeDegrees>-5.63015495426952838897705078125</LongitudeDegrees>
            </Position>
            <AltitudeMeters>623.5999755859375</AltitudeMeters>
            <DistanceMeters>NAN</DistanceMeters>
          </Trackpoint>
          <Trackpoint>
            <Time>2019-10-05T12:07:23.000Z</Time>
            <Position>
              <LatitudeDegrees>41.9751084409654140472412109375</LatitudeDegrees>
              <LongitudeDegrees>-5.63020239584147930145263671875</LongitudeDegrees>
            </Position>
            <AltitudeMeters>624.79998779296875</AltitudeMeters>
            <DistanceMeters>NAN</DistanceMeters>
          </Trackpoint>
          <Trackpoint>
            <Time>2019-10-05T12:07:26.000Z</Time>
            <Position>
              <LatitudeDegrees>41.97506929747760295867919921875</LatitudeDegrees>
              <LongitudeDegrees>-5.63024112023413181304931640625</LongitudeDegrees>
            </Position>
            <AltitudeMeters>626</AltitudeMeters>
            <DistanceMeters>NAN</DistanceMeters>
          </Trackpoint>
          <Trackpoint>
            <Time>2019-10-05T12:07:31.000Z</Time>
            <Position>
              <LatitudeDegrees>41.97500559501349925994873046875</LatitudeDegrees>
              <LongitudeDegrees>-5.630294345319271087646484375</LongitudeDegrees>
            </Position>
            <AltitudeMeters>627</AltitudeMeters>
            <DistanceMeters>NAN</DistanceMeters>
          </Trackpoint>
          <Trackpoint>
            <Time>2019-10-05T12:07:34.000Z</Time>
            <Position>
              <LatitudeDegrees>41.97496016509830951690673828125</LatitudeDegrees>
              <LongitudeDegrees>-5.63032544218003749847412109375</LongitudeDegrees>
            </Position>
            <AltitudeMeters>627.5999755859375</AltitudeMeters>
            <DistanceMeters>NAN</DistanceMeters>
          </Trackpoint>
          <Trackpoint>
            <Time>2019-10-05T12:07:37.000Z</Time>
            <Position>
              <LatitudeDegrees>41.97490601800382137298583984375</LatitudeDegrees>
              <LongitudeDegrees>-5.63035192899405956268310546875</LongitudeDegrees>
            </Position>
            <AltitudeMeters>628.4000244140625</AltitudeMeters>
            <DistanceMeters>NAN</DistanceMeters>
          </Trackpoint>
          <Trackpoint>
            <Time>2019-10-05T12:07:38.000Z</Time>
            <Position>
              <LatitudeDegrees>41.9748948700726032257080078125</LatitudeDegrees>
              <LongitudeDegrees>-5.6303585506975650787353515625</LongitudeDegrees>
            </Position>
            <AltitudeMeters>630.5999755859375</AltitudeMeters>
            <DistanceMeters>NAN</DistanceMeters>
          </Trackpoint>
          <Trackpoint>
            <Time>2019-10-05T12:07:39.000Z</Time>
            <Position>
              <LatitudeDegrees>41.97487651370465755462646484375</LatitudeDegrees>
              <LongitudeDegrees>-5.6303632445633411407470703125</LongitudeDegrees>
            </Position>
            <AltitudeMeters>629</AltitudeMeters>
            <DistanceMeters>NAN</DistanceMeters>
          </Trackpoint>
          <Trackpoint>
            <Time>2019-10-05T12:07:41.000Z</Time>
            <Position>
              <LatitudeDegrees>41.97484172880649566650390625</LatitudeDegrees>
              <LongitudeDegrees>-5.6303692795336246490478515625</LongitudeDegrees>
            </Position>
            <AltitudeMeters>629.20001220703125</AltitudeMeters>
            <DistanceMeters>NAN</DistanceMeters>
          </Trackpoint>
          <Trackpoint>
            <Time>2019-10-05T12:07:48.000Z</Time>
            <Position>
              <LatitudeDegrees>41.9747195206582546234130859375</LatitudeDegrees>
              <LongitudeDegrees>-5.6303706206381320953369140625</LongitudeDegrees>
            </Position>
            <AltitudeMeters>630.20001220703125</AltitudeMeters>
            <DistanceMeters>NAN</DistanceMeters>
          </Trackpoint>
          <Trackpoint>
            <Time>2019-10-05T12:07:50.000Z</Time>
            <Position>
              <LatitudeDegrees>41.9746833108365535736083984375</LatitudeDegrees>
              <LongitudeDegrees>-5.630370117723941802978515625</LongitudeDegrees>
            </Position>
            <AltitudeMeters>630.4000244140625</AltitudeMeters>
            <DistanceMeters>NAN</DistanceMeters>
          </Trackpoint>
          <Trackpoint>
            <Time>2019-10-05T12:07:57.000Z</Time>
            <Position>
              <LatitudeDegrees>41.9745371304452419281005859375</LatitudeDegrees>
              <LongitudeDegrees>-5.630367435514926910400390625</LongitudeDegrees>
            </Position>
            <AltitudeMeters>630.4000244140625</AltitudeMeters>
            <DistanceMeters>NAN</DistanceMeters>
          </Trackpoint>
          <Trackpoint>
            <Time>2019-10-05T12:08:06.000Z</Time>
            <Position>
              <LatitudeDegrees>41.97428785264492034912109375</LatitudeDegrees>
              <LongitudeDegrees>-5.6303790025413036346435546875</LongitudeDegrees>
            </Position>
            <AltitudeMeters>630.20001220703125</AltitudeMeters>
            <DistanceMeters>NAN</DistanceMeters>
          </Trackpoint>
          <Trackpoint>
            <Time>2019-10-05T12:08:14.000Z</Time>
            <Position>
              <LatitudeDegrees>41.97403413243591785430908203125</LatitudeDegrees>
              <LongitudeDegrees>-5.630414374172687530517578125</LongitudeDegrees>
            </Position>
            <AltitudeMeters>630.20001220703125</AltitudeMeters>
            <DistanceMeters>NAN</DistanceMeters>
          </Trackpoint>
          <Trackpoint>
            <Time>2019-10-05T12:08:22.000Z</Time>
            <Position>
              <LatitudeDegrees>41.9737710244953632354736328125</LatitudeDegrees>
              <LongitudeDegrees>-5.63043558038771152496337890625</LongitudeDegrees>
            </Position>
            <AltitudeMeters>630</AltitudeMeters>
            <DistanceMeters>NAN</DistanceMeters>
          </Trackpoint>
          <Trackpoint>
            <Time>2019-10-05T12:08:26.000Z</Time>
            <Position>
              <LatitudeDegrees>41.97363733313977718353271484375</LatitudeDegrees>
              <LongitudeDegrees>-5.630445219576358795166015625</LongitudeDegrees>
            </Position>
            <AltitudeMeters>630.20001220703125</AltitudeMeters>
            <DistanceMeters>NAN</DistanceMeters>
          </Trackpoint>
          <Trackpoint>
            <Time>2019-10-05T12:08:33.000Z</Time>
            <Position>
              <LatitudeDegrees>41.97336894460022449493408203125</LatitudeDegrees>
              <LongitudeDegrees>-5.63046525232493877410888671875</LongitudeDegrees>
            </Position>
            <AltitudeMeters>630.20001220703125</AltitudeMeters>
            <DistanceMeters>NAN</DistanceMeters>
          </Trackpoint>
          <Trackpoint>
            <Time>2019-10-05T12:08:36.000Z</Time>
            <Position>
              <LatitudeDegrees>41.97329736314713954925537109375</LatitudeDegrees>
              <LongitudeDegrees>-5.63046575523912906646728515625</LongitudeDegrees>
            </Position>
            <AltitudeMeters>630.20001220703125</AltitudeMeters>
            <DistanceMeters>NAN</DistanceMeters>
          </Trackpoint>
          <Trackpoint>
            <Time>2019-10-05T12:08:44.000Z</Time>
            <Position>
              <LatitudeDegrees>41.973029561340808868408203125</LatitudeDegrees>
              <LongitudeDegrees>-5.6304810941219329833984375</LongitudeDegrees>
            </Position>
            <AltitudeMeters>630</AltitudeMeters>
            <DistanceMeters>NAN</DistanceMeters>
          </Trackpoint>
          <Trackpoint>
            <Time>2019-10-05T12:08:47.000Z</Time>
            <Position>
              <LatitudeDegrees>41.97293073870241641998291015625</LatitudeDegrees>
              <LongitudeDegrees>-5.630487464368343353271484375</LongitudeDegrees>
            </Position>
            <AltitudeMeters>630.5999755859375</AltitudeMeters>
            <DistanceMeters>NAN</DistanceMeters>
          </Trackpoint>
          <Trackpoint>
            <Time>2019-10-05T12:08:55.000Z</Time>
            <Position>
              <LatitudeDegrees>41.97266000322997570037841796875</LatitudeDegrees>
              <LongitudeDegrees>-5.63050498254597187042236328125</LongitudeDegrees>
            </Position>
            <AltitudeMeters>630.5999755859375</AltitudeMeters>
            <DistanceMeters>NAN</DistanceMeters>
          </Trackpoint>
          <Trackpoint>
            <Time>2019-10-05T12:08:56.000Z</Time>
            <Position>
              <LatitudeDegrees>41.9726247154176235198974609375</LatitudeDegrees>
              <LongitudeDegrees>-5.63050548546016216278076171875</LongitudeDegrees>
            </Position>
            <AltitudeMeters>630.5999755859375</AltitudeMeters>
            <DistanceMeters>NAN</DistanceMeters>
          </Trackpoint>
          <Trackpoint>
            <Time>2019-10-05T12:09:05.000Z</Time>
            <Position>
              <LatitudeDegrees>41.97231014259159564971923828125</LatitudeDegrees>
              <LongitudeDegrees>-5.630525015294551849365234375</LongitudeDegrees>
            </Position>
            <AltitudeMeters>630.5999755859375</AltitudeMeters>
            <DistanceMeters>NAN</DistanceMeters>
          </Trackpoint>
          <Trackpoint>
            <Time>2019-10-05T12:09:13.000Z</Time>
            <Position>
              <LatitudeDegrees>41.97202499024569988250732421875</LatitudeDegrees>
              <LongitudeDegrees>-5.6305486522614955902099609375</LongitudeDegrees>
            </Position>
            <AltitudeMeters>629.5999755859375</AltitudeMeters>
            <DistanceMeters>NAN</DistanceMeters>
          </Trackpoint>
          <Trackpoint>
            <Time>2019-10-05T12:09:21.000Z</Time>
            <Position>
              <LatitudeDegrees>41.971770934760570526123046875</LatitudeDegrees>
              <LongitudeDegrees>-5.630639009177684783935546875</LongitudeDegrees>
            </Position>
            <AltitudeMeters>630.20001220703125</AltitudeMeters>
            <DistanceMeters>NAN</DistanceMeters>
          </Trackpoint>
          <Trackpoint>
            <Time>2019-10-05T12:09:27.000Z</Time>
            <Position>
              <LatitudeDegrees>41.9716478884220123291015625</LatitudeDegrees>
              <LongitudeDegrees>-5.63085115514695644378662109375</LongitudeDegrees>
            </Position>
            <AltitudeMeters>630.20001220703125</AltitudeMeters>
            <DistanceMeters>NAN</DistanceMeters>
          </Trackpoint>
          <Trackpoint>
            <Time>2019-10-05T12:09:38.000Z</Time>
            <Position>
              <LatitudeDegrees>41.97142124176025390625</LatitudeDegrees>
              <LongitudeDegrees>-5.6312336213886737823486328125</LongitudeDegrees>
            </Position>
            <AltitudeMeters>630.4000244140625</AltitudeMeters>
            <DistanceMeters>NAN</DistanceMeters>
          </Trackpoint>
          <Trackpoint>
            <Time>2019-10-05T12:09:46.000Z</Time>
            <Position>
              <LatitudeDegrees>41.971274055540561676025390625</LatitudeDegrees>
              <LongitudeDegrees>-5.63151835463941097259521484375</LongitudeDegrees>
            </Position>
            <AltitudeMeters>630</AltitudeMeters>
            <DistanceMeters>NAN</DistanceMeters>
          </Trackpoint>
          <Trackpoint>
            <Time>2019-10-05T12:09:52.000Z</Time>
            <Position>
              <LatitudeDegrees>41.97117154486477375030517578125</LatitudeDegrees>
              <LongitudeDegrees>-5.6317358650267124176025390625</LongitudeDegrees>
            </Position>
            <AltitudeMeters>629.79998779296875</AltitudeMeters>
            <DistanceMeters>NAN</DistanceMeters>
          </Trackpoint>
          <Trackpoint>
            <Time>2019-10-05T12:09:54.000Z</Time>
            <Position>
              <LatitudeDegrees>41.971145980060100555419921875</LatitudeDegrees>
              <LongitudeDegrees>-5.63180769793689250946044921875</LongitudeDegrees>
            </Position>
            <AltitudeMeters>630.20001220703125</AltitudeMeters>
            <DistanceMeters>NAN</DistanceMeters>
          </Trackpoint>
          <Trackpoint>
            <Time>2019-10-05T12:09:58.000Z</Time>
            <Position>
              <LatitudeDegrees>41.9710951857268810272216796875</LatitudeDegrees>
              <LongitudeDegrees>-5.631944239139556884765625</LongitudeDegrees>
            </Position>
            <AltitudeMeters>630.20001220703125</AltitudeMeters>
            <DistanceMeters>NAN</DistanceMeters>
          </Trackpoint>
          <Trackpoint>
            <Time>2019-10-05T12:10:07.000Z</Time>
            <Position>
              <LatitudeDegrees>41.97096937336027622222900390625</LatitudeDegrees>
              <LongitudeDegrees>-5.63224942423403263092041015625</LongitudeDegrees>
            </Position>
            <AltitudeMeters>630.4000244140625</AltitudeMeters>
            <DistanceMeters>NAN</DistanceMeters>
          </Trackpoint>
          <Trackpoint>
            <Time>2019-10-05T12:10:13.000Z</Time>
            <Position>
              <LatitudeDegrees>41.97090533562004566192626953125</LatitudeDegrees>
              <LongitudeDegrees>-5.6323990412056446075439453125</LongitudeDegrees>
            </Position>
            <AltitudeMeters>630.79998779296875</AltitudeMeters>
            <DistanceMeters>NAN</DistanceMeters>
          </Trackpoint>
          <Trackpoint>
            <Time>2019-10-05T12:10:14.000Z</Time>
            <Position>
              <LatitudeDegrees>41.97089510969817638397216796875</LatitudeDegrees>
              <LongitudeDegrees>-5.6324147991836071014404296875</LongitudeDegrees>
            </Position>
            <AltitudeMeters>631.20001220703125</AltitudeMeters>
            <DistanceMeters>NAN</DistanceMeters>
          </Trackpoint>
          <Trackpoint>
            <Time>2019-10-05T12:10:17.000Z</Time>
            <Position>
              <LatitudeDegrees>41.97089393623173236846923828125</LatitudeDegrees>
              <LongitudeDegrees>-5.6324171461164951324462890625</LongitudeDegrees>
            </Position>
            <AltitudeMeters>631.20001220703125</AltitudeMeters>
            <DistanceMeters>NAN</DistanceMeters>
          </Trackpoint>
          <Trackpoint>
            <Time>2019-10-05T12:10:28.000Z</Time>
            <Position>
              <LatitudeDegrees>41.97089393623173236846923828125</LatitudeDegrees>
              <LongitudeDegrees>-5.6324171461164951324462890625</LongitudeDegrees>
            </Position>
            <AltitudeMeters>631</AltitudeMeters>
            <DistanceMeters>NAN</DistanceMeters>
          </Trackpoint>
          <Trackpoint>
            <Time>2019-10-05T12:10:29.000Z</Time>
            <Position>
              <LatitudeDegrees>41.97089225985109806060791015625</LatitudeDegrees>
              <LongitudeDegrees>-5.63242661766707897186279296875</LongitudeDegrees>
            </Position>
            <AltitudeMeters>631</AltitudeMeters>
            <DistanceMeters>NAN</DistanceMeters>
          </Trackpoint>
          <Trackpoint>
            <Time>2019-10-05T12:10:30.000Z</Time>
            <Position>
              <LatitudeDegrees>41.97088236920535564422607421875</LatitudeDegrees>
              <LongitudeDegrees>-5.63244958408176898956298828125</LongitudeDegrees>
            </Position>
            <AltitudeMeters>631</AltitudeMeters>
            <DistanceMeters>NAN</DistanceMeters>
          </Trackpoint>
          <Trackpoint>
            <Time>2019-10-05T12:10:34.000Z</Time>
            <Position>
              <LatitudeDegrees>41.970832161605358123779296875</LatitudeDegrees>
              <LongitudeDegrees>-5.6325643323361873626708984375</LongitudeDegrees>
            </Position>
            <AltitudeMeters>631</AltitudeMeters>
            <DistanceMeters>NAN</DistanceMeters>
          </Trackpoint>
          <Trackpoint>
            <Time>2019-10-05T12:10:35.000Z</Time>
            <Position>
              <LatitudeDegrees>41.97081900201737880706787109375</LatitudeDegrees>
              <LongitudeDegrees>-5.632599033415317535400390625</LongitudeDegrees>
            </Position>
            <AltitudeMeters>631.20001220703125</AltitudeMeters>
            <DistanceMeters>NAN</DistanceMeters>
          </Trackpoint>
          <Trackpoint>
            <Time>2019-10-05T12:10:41.000Z</Time>
            <Position>
              <LatitudeDegrees>41.97069176472723484039306640625</LatitudeDegrees>
              <LongitudeDegrees>-5.6328211538493633270263671875</LongitudeDegrees>
            </Position>
            <AltitudeMeters>631</AltitudeMeters>
            <DistanceMeters>NAN</DistanceMeters>
          </Trackpoint>
          <Trackpoint>
            <Time>2019-10-05T12:10:48.000Z</Time>
            <Position>
              <LatitudeDegrees>41.97054684162139892578125</LatitudeDegrees>
              <LongitudeDegrees>-5.63308945856988430023193359375</LongitudeDegrees>
            </Position>
            <AltitudeMeters>630.79998779296875</AltitudeMeters>
            <DistanceMeters>NAN</DistanceMeters>
          </Trackpoint>
          <Trackpoint>
            <Time>2019-10-05T12:10:57.000Z</Time>
            <Position>
              <LatitudeDegrees>41.97034274227917194366455078125</LatitudeDegrees>
              <LongitudeDegrees>-5.6334501318633556365966796875</LongitudeDegrees>
            </Position>
            <AltitudeMeters>630.4000244140625</AltitudeMeters>
            <DistanceMeters>NAN</DistanceMeters>
          </Trackpoint>
          <Trackpoint>
            <Time>2019-10-05T12:10:59.000Z</Time>
            <Position>
              <LatitudeDegrees>41.97029127739369869232177734375</LatitudeDegrees>
              <LongitudeDegrees>-5.63352665863931179046630859375</LongitudeDegrees>
            </Position>
            <AltitudeMeters>630.4000244140625</AltitudeMeters>
            <DistanceMeters>NAN</DistanceMeters>
          </Trackpoint>
          <Trackpoint>
            <Time>2019-10-05T12:11:01.000Z</Time>
            <Position>
              <LatitudeDegrees>41.97023880667984485626220703125</LatitudeDegrees>
              <LongitudeDegrees>-5.6336040236055850982666015625</LongitudeDegrees>
            </Position>
            <AltitudeMeters>630.5999755859375</AltitudeMeters>
            <DistanceMeters>NAN</DistanceMeters>
          </Trackpoint>
          <Trackpoint>
            <Time>2019-10-05T12:11:05.000Z</Time>
            <Position>
              <LatitudeDegrees>41.970126070082187652587890625</LatitudeDegrees>
              <LongitudeDegrees>-5.63375699333846569061279296875</LongitudeDegrees>
            </Position>
            <AltitudeMeters>630.5999755859375</AltitudeMeters>
            <DistanceMeters>NAN</DistanceMeters>
          </Trackpoint>
          <Trackpoint>
            <Time>2019-10-05T12:11:08.000Z</Time>
            <Position>
              <LatitudeDegrees>41.97004652582108974456787109375</LatitudeDegrees>
              <LongitudeDegrees>-5.633872412145137786865234375</LongitudeDegrees>
            </Position>
            <AltitudeMeters>630.5999755859375</AltitudeMeters>
            <DistanceMeters>NAN</DistanceMeters>
          </Trackpoint>
          <Trackpoint>
            <Time>2019-10-05T12:11:10.000Z</Time>
            <Position>
              <LatitudeDegrees>41.969985254108905792236328125</LatitudeDegrees>
              <LongitudeDegrees>-5.633938126266002655029296875</LongitudeDegrees>
            </Position>
            <AltitudeMeters>630.20001220703125</AltitudeMeters>
            <DistanceMeters>NAN</DistanceMeters>
          </Trackpoint>
          <Trackpoint>
            <Time>2019-10-05T12:11:12.000Z</Time>
            <Position>
              <LatitudeDegrees>41.9699213840067386627197265625</LatitudeDegrees>
              <LongitudeDegrees>-5.63399788923561573028564453125</LongitudeDegrees>
            </Position>
            <AltitudeMeters>630.20001220703125</AltitudeMeters>
            <DistanceMeters>NAN</DistanceMeters>
          </Trackpoint>
          <Trackpoint>
            <Time>2019-10-05T12:11:14.000Z</Time>
            <Position>
              <LatitudeDegrees>41.96986061520874500274658203125</LatitudeDegrees>
              <LongitudeDegrees>-5.63406142406165599822998046875</LongitudeDegrees>
            </Position>
            <AltitudeMeters>630</AltitudeMeters>
            <DistanceMeters>NAN</DistanceMeters>
          </Trackpoint>
          <Trackpoint>
            <Time>2019-10-05T12:11:18.000Z</Time>
            <Position>
              <LatitudeDegrees>41.9697249121963977813720703125</LatitudeDegrees>
              <LongitudeDegrees>-5.634149350225925445556640625</LongitudeDegrees>
            </Position>
            <AltitudeMeters>630.20001220703125</AltitudeMeters>
            <DistanceMeters>NAN</DistanceMeters>
          </Trackpoint>
          <Trackpoint>
            <Time>2019-10-05T12:11:24.000Z</Time>
            <Position>
              <LatitudeDegrees>41.969563476741313934326171875</LatitudeDegrees>
              <LongitudeDegrees>-5.63425504602491855621337890625</LongitudeDegrees>
            </Position>
            <AltitudeMeters>630.79998779296875</AltitudeMeters>
            <DistanceMeters>NAN</DistanceMeters>
          </Trackpoint>
          <Trackpoint>
            <Time>2019-10-05T12:11:31.000Z</Time>
            <Position>
              <LatitudeDegrees>41.96956289000809192657470703125</LatitudeDegrees>
              <LongitudeDegrees>-5.6342547945678234100341796875</LongitudeDegrees>
            </Position>
            <AltitudeMeters>630.79998779296875</AltitudeMeters>
            <DistanceMeters>NAN</DistanceMeters>
          </Trackpoint>
          <Trackpoint>
            <Time>2019-10-05T12:11:32.000Z</Time>
            <Position>
              <LatitudeDegrees>41.96956289000809192657470703125</LatitudeDegrees>
              <LongitudeDegrees>-5.6342547945678234100341796875</LongitudeDegrees>
            </Position>
            <AltitudeMeters>630.79998779296875</AltitudeMeters>
            <DistanceMeters>NAN</DistanceMeters>
          </Trackpoint>
          <Trackpoint>
            <Time>2019-10-05T12:11:36.000Z</Time>
            <Position>
              <LatitudeDegrees>41.96956289000809192657470703125</LatitudeDegrees>
              <LongitudeDegrees>-5.6342547945678234100341796875</LongitudeDegrees>
            </Position>
            <AltitudeMeters>630.79998779296875</AltitudeMeters>
            <DistanceMeters>NAN</DistanceMeters>
          </Trackpoint>
          <Trackpoint>
            <Time>2019-10-05T12:11:38.000Z</Time>
            <Position>
              <LatitudeDegrees>41.96956289000809192657470703125</LatitudeDegrees>
              <LongitudeDegrees>-5.6342547945678234100341796875</LongitudeDegrees>
            </Position>
            <AltitudeMeters>630.79998779296875</AltitudeMeters>
            <DistanceMeters>NAN</DistanceMeters>
          </Trackpoint>
          <Trackpoint>
            <Time>2019-10-05T12:11:45.000Z</Time>
            <Position>
              <LatitudeDegrees>41.96956289000809192657470703125</LatitudeDegrees>
              <LongitudeDegrees>-5.6342547945678234100341796875</LongitudeDegrees>
            </Position>
            <AltitudeMeters>631</AltitudeMeters>
            <DistanceMeters>NAN</DistanceMeters>
          </Trackpoint>
          <Trackpoint>
            <Time>2019-10-05T12:11:48.000Z</Time>
            <Position>
              <LatitudeDegrees>41.96956289000809192657470703125</LatitudeDegrees>
              <LongitudeDegrees>-5.6342547945678234100341796875</LongitudeDegrees>
            </Position>
            <AltitudeMeters>630.5999755859375</AltitudeMeters>
            <DistanceMeters>NAN</DistanceMeters>
          </Trackpoint>
          <Trackpoint>
            <Time>2019-10-05T12:12:05.000Z</Time>
            <Position>
              <LatitudeDegrees>41.96956289000809192657470703125</LatitudeDegrees>
              <LongitudeDegrees>-5.6342547945678234100341796875</LongitudeDegrees>
            </Position>
            <AltitudeMeters>631</AltitudeMeters>
            <DistanceMeters>NAN</DistanceMeters>
          </Trackpoint>
          <Trackpoint>
            <Time>2019-10-05T12:12:07.000Z</Time>
            <Position>
              <LatitudeDegrees>41.9695663265883922576904296875</LatitudeDegrees>
              <LongitudeDegrees>-5.63425219617784023284912109375</LongitudeDegrees>
            </Position>
            <AltitudeMeters>631</AltitudeMeters>
            <DistanceMeters>NAN</DistanceMeters>
          </Trackpoint>
          <Trackpoint>
            <Time>2019-10-05T12:12:09.000Z</Time>
            <Position>
              <LatitudeDegrees>41.969572193920612335205078125</LatitudeDegrees>
              <LongitudeDegrees>-5.63425839878618717193603515625</LongitudeDegrees>
            </Position>
            <AltitudeMeters>630.5999755859375</AltitudeMeters>
            <DistanceMeters>NAN</DistanceMeters>
          </Trackpoint>
          <Trackpoint>
            <Time>2019-10-05T12:12:11.000Z</Time>
            <Position>
              <LatitudeDegrees>41.96959507651627063751220703125</LatitudeDegrees>
              <LongitudeDegrees>-5.63424901105463504791259765625</LongitudeDegrees>
            </Position>
            <AltitudeMeters>631</AltitudeMeters>
            <DistanceMeters>NAN</DistanceMeters>
          </Trackpoint>
          <Trackpoint>
            <Time>2019-10-05T12:12:13.000Z</Time>
            <Position>
              <LatitudeDegrees>41.969628520309925079345703125</LatitudeDegrees>
              <LongitudeDegrees>-5.63422210514545440673828125</LongitudeDegrees>
            </Position>
            <AltitudeMeters>631</AltitudeMeters>
            <DistanceMeters>NAN</DistanceMeters>
          </Trackpoint>
          <Trackpoint>
            <Time>2019-10-05T12:12:15.000Z</Time>
            <Position>
              <LatitudeDegrees>41.96968040429055690765380859375</LatitudeDegrees>
              <LongitudeDegrees>-5.634178854525089263916015625</LongitudeDegrees>
            </Position>
            <AltitudeMeters>630.4000244140625</AltitudeMeters>
            <DistanceMeters>NAN</DistanceMeters>
          </Trackpoint>
          <Trackpoint>
            <Time>2019-10-05T12:12:22.000Z</Time>
            <Position>
              <LatitudeDegrees>41.96988710202276706695556640625</LatitudeDegrees>
              <LongitudeDegrees>-5.63397173769772052764892578125</LongitudeDegrees>
            </Position>
            <AltitudeMeters>630.4000244140625</AltitudeMeters>
            <DistanceMeters>NAN</DistanceMeters>
          </Trackpoint>
          <Trackpoint>
            <Time>2019-10-05T12:12:25.000Z</Time>
            <Position>
              <LatitudeDegrees>41.9699743576347827911376953125</LatitudeDegrees>
              <LongitudeDegrees>-5.63388012349605560302734375</LongitudeDegrees>
            </Position>
            <AltitudeMeters>630</AltitudeMeters>
            <DistanceMeters>NAN</DistanceMeters>
          </Trackpoint>
          <Trackpoint>
            <Time>2019-10-05T12:12:30.000Z</Time>
            <Position>
              <LatitudeDegrees>41.97010955773293972015380859375</LatitudeDegrees>
              <LongitudeDegrees>-5.63371173106133937835693359375</LongitudeDegrees>
            </Position>
            <AltitudeMeters>630.4000244140625</AltitudeMeters>
            <DistanceMeters>NAN</DistanceMeters>
          </Trackpoint>
          <Trackpoint>
            <Time>2019-10-05T12:12:37.000Z</Time>
            <Position>
              <LatitudeDegrees>41.97030837647616863250732421875</LatitudeDegrees>
              <LongitudeDegrees>-5.63346949405968189239501953125</LongitudeDegrees>
            </Position>
            <AltitudeMeters>631.20001220703125</AltitudeMeters>
            <DistanceMeters>NAN</DistanceMeters>
          </Trackpoint>
          <Trackpoint>
            <Time>2019-10-05T12:12:38.000Z</Time>
            <Position>
              <LatitudeDegrees>41.9703371264040470123291015625</LatitudeDegrees>
              <LongitudeDegrees>-5.6334337033331394195556640625</LongitudeDegrees>
            </Position>
            <AltitudeMeters>631.20001220703125</AltitudeMeters>
            <DistanceMeters>NAN</DistanceMeters>
          </Trackpoint>
          <Trackpoint>
            <Time>2019-10-05T12:12:46.000Z</Time>
            <Position>
              <LatitudeDegrees>41.97053083218634128570556640625</LatitudeDegrees>
              <LongitudeDegrees>-5.63311343081295490264892578125</LongitudeDegrees>
            </Position>
            <AltitudeMeters>630.79998779296875</AltitudeMeters>
            <DistanceMeters>NAN</DistanceMeters>
          </Trackpoint>
          <Trackpoint>
            <Time>2019-10-05T12:12:51.000Z</Time>
            <Position>
              <LatitudeDegrees>41.97064432315528392791748046875</LatitudeDegrees>
              <LongitudeDegrees>-5.63290086574852466583251953125</LongitudeDegrees>
            </Position>
            <AltitudeMeters>630.79998779296875</AltitudeMeters>
            <DistanceMeters>NAN</DistanceMeters>
          </Trackpoint>
          <Trackpoint>
            <Time>2019-10-05T12:12:53.000Z</Time>
            <Position>
              <LatitudeDegrees>41.97069293819367885589599609375</LatitudeDegrees>
              <LongitudeDegrees>-5.63281537033617496490478515625</LongitudeDegrees>
            </Position>
            <AltitudeMeters>630.5999755859375</AltitudeMeters>
            <DistanceMeters>NAN</DistanceMeters>
          </Trackpoint>
          <Trackpoint>
            <Time>2019-10-05T12:12:55.000Z</Time>
            <Position>
              <LatitudeDegrees>41.97074037976562976837158203125</LatitudeDegrees>
              <LongitudeDegrees>-5.63272668980062007904052734375</LongitudeDegrees>
            </Position>
            <AltitudeMeters>630.79998779296875</AltitudeMeters>
            <DistanceMeters>NAN</DistanceMeters>
          </Trackpoint>
          <Trackpoint>
            <Time>2019-10-05T12:12:57.000Z</Time>
            <Position>
              <LatitudeDegrees>41.97078782133758068084716796875</LatitudeDegrees>
              <LongitudeDegrees>-5.63263750635087490081787109375</LongitudeDegrees>
            </Position>
            <AltitudeMeters>630.5999755859375</AltitudeMeters>
            <DistanceMeters>NAN</DistanceMeters>
          </Trackpoint>
          <Trackpoint>
            <Time>2019-10-05T12:12:58.000Z</Time>
            <Position>
              <LatitudeDegrees>41.9708148948848247528076171875</LatitudeDegrees>
              <LongitudeDegrees>-5.63259660266339778900146484375</LongitudeDegrees>
            </Position>
            <AltitudeMeters>630.20001220703125</AltitudeMeters>
            <DistanceMeters>NAN</DistanceMeters>
          </Trackpoint>
          <Trackpoint>
            <Time>2019-10-05T12:12:59.000Z</Time>
            <Position>
              <LatitudeDegrees>41.97083744220435619354248046875</LatitudeDegrees>
              <LongitudeDegrees>-5.63255100511014461517333984375</LongitudeDegrees>
            </Position>
            <AltitudeMeters>630.20001220703125</AltitudeMeters>
            <DistanceMeters>NAN</DistanceMeters>
          </Trackpoint>
          <Trackpoint>
            <Time>2019-10-05T12:13:01.000Z</Time>
            <Position>
              <LatitudeDegrees>41.97088102810084819793701171875</LatitudeDegrees>
              <LongitudeDegrees>-5.63246123492717742919921875</LongitudeDegrees>
            </Position>
            <AltitudeMeters>630.79998779296875</AltitudeMeters>
            <DistanceMeters>NAN</DistanceMeters>
          </Trackpoint>
          <Trackpoint>
            <Time>2019-10-05T12:13:03.000Z</Time>
            <Position>
              <LatitudeDegrees>41.97089075110852718353271484375</LatitudeDegrees>
              <LongitudeDegrees>-5.63235939480364322662353515625</LongitudeDegrees>
            </Position>
            <AltitudeMeters>631</AltitudeMeters>
            <DistanceMeters>NAN</DistanceMeters>
          </Trackpoint>
          <Trackpoint>
            <Time>2019-10-05T12:13:06.000Z</Time>
            <Position>
              <LatitudeDegrees>41.9708410464227199554443359375</LatitudeDegrees>
              <LongitudeDegrees>-5.6322096101939678192138671875</LongitudeDegrees>
            </Position>
            <AltitudeMeters>630.79998779296875</AltitudeMeters>
            <DistanceMeters>NAN</DistanceMeters>
          </Trackpoint>
          <Trackpoint>
            <Time>2019-10-05T12:13:07.000Z</Time>
            <Position>
              <LatitudeDegrees>41.97082302533090114593505859375</LatitudeDegrees>
              <LongitudeDegrees>-5.63216191716492176055908203125</LongitudeDegrees>
            </Position>
            <AltitudeMeters>631</AltitudeMeters>
            <DistanceMeters>NAN</DistanceMeters>
          </Trackpoint>
          <Trackpoint>
            <Time>2019-10-05T12:13:08.000Z</Time>
            <Position>
              <LatitudeDegrees>41.970799975097179412841796875</LatitudeDegrees>
              <LongitudeDegrees>-5.632114224135875701904296875</LongitudeDegrees>
            </Position>
            <AltitudeMeters>631.20001220703125</AltitudeMeters>
            <DistanceMeters>NAN</DistanceMeters>
          </Trackpoint>
          <Trackpoint>
            <Time>2019-10-05T12:13:13.000Z</Time>
            <Position>
              <LatitudeDegrees>41.97067768312990665435791015625</LatitudeDegrees>
              <LongitudeDegrees>-5.63188187777996063232421875</LongitudeDegrees>
            </Position>
            <AltitudeMeters>631.20001220703125</AltitudeMeters>
            <DistanceMeters>NAN</DistanceMeters>
          </Trackpoint>
          <Trackpoint>
            <Time>2019-10-05T12:13:21.000Z</Time>
            <Position>
              <LatitudeDegrees>41.9704916886985301971435546875</LatitudeDegrees>
              <LongitudeDegrees>-5.63152036629617214202880859375</LongitudeDegrees>
            </Position>
            <AltitudeMeters>631.4000244140625</AltitudeMeters>
            <DistanceMeters>NAN</DistanceMeters>
          </Trackpoint>
          <Trackpoint>
            <Time>2019-10-05T12:13:33.000Z</Time>
            <Position>
              <LatitudeDegrees>41.97020695544779300689697265625</LatitudeDegrees>
              <LongitudeDegrees>-5.63097185455262660980224609375</LongitudeDegrees>
            </Position>
            <AltitudeMeters>631.20001220703125</AltitudeMeters>
            <DistanceMeters>NAN</DistanceMeters>
          </Trackpoint>
          <Trackpoint>
            <Time>2019-10-05T12:13:43.000Z</Time>
            <Position>
              <LatitudeDegrees>41.96992926299571990966796875</LatitudeDegrees>
              <LongitudeDegrees>-5.6304542720317840576171875</LongitudeDegrees>
            </Position>
            <AltitudeMeters>631.20001220703125</AltitudeMeters>
            <DistanceMeters>NAN</DistanceMeters>
          </Trackpoint>
          <Trackpoint>
            <Time>2019-10-05T12:13:53.000Z</Time>
            <Position>
              <LatitudeDegrees>41.96970018558204174041748046875</LatitudeDegrees>
              <LongitudeDegrees>-5.630006678402423858642578125</LongitudeDegrees>
            </Position>
            <AltitudeMeters>631.20001220703125</AltitudeMeters>
            <DistanceMeters>NAN</DistanceMeters>
          </Trackpoint>
          <Trackpoint>
            <Time>2019-10-05T12:14:02.000Z</Time>
            <Position>
              <LatitudeDegrees>41.96946951560676097869873046875</LatitudeDegrees>
              <LongitudeDegrees>-5.62957878224551677703857421875</LongitudeDegrees>
            </Position>
            <AltitudeMeters>631</AltitudeMeters>
            <DistanceMeters>NAN</DistanceMeters>
          </Trackpoint>
          <Trackpoint>
            <Time>2019-10-05T12:14:11.000Z</Time>
            <Position>
              <LatitudeDegrees>41.969236917793750762939453125</LatitudeDegrees>
              <LongitudeDegrees>-5.6291317753493785858154296875</LongitudeDegrees>
            </Position>
            <AltitudeMeters>631.20001220703125</AltitudeMeters>
            <DistanceMeters>NAN</DistanceMeters>
          </Trackpoint>
          <Trackpoint>
            <Time>2019-10-05T12:14:17.000Z</Time>
            <Position>
              <LatitudeDegrees>41.96909266524016857147216796875</LatitudeDegrees>
              <LongitudeDegrees>-5.62884737737476825714111328125</LongitudeDegrees>
            </Position>
            <AltitudeMeters>631.20001220703125</AltitudeMeters>
            <DistanceMeters>NAN</DistanceMeters>
          </Trackpoint>
          <Trackpoint>
            <Time>2019-10-05T12:14:19.000Z</Time>
            <Position>
              <LatitudeDegrees>41.9690483249723911285400390625</LatitudeDegrees>
              <LongitudeDegrees>-5.62876221723854541778564453125</LongitudeDegrees>
            </Position>
            <AltitudeMeters>631.20001220703125</AltitudeMeters>
            <DistanceMeters>NAN</DistanceMeters>
          </Trackpoint>
          <Trackpoint>
            <Time>2019-10-05T12:14:22.000Z</Time>
            <Position>
              <LatitudeDegrees>41.9689772464334964752197265625</LatitudeDegrees>
              <LongitudeDegrees>-5.6286268495023250579833984375</LongitudeDegrees>
            </Position>
            <AltitudeMeters>631.20001220703125</AltitudeMeters>
            <DistanceMeters>NAN</DistanceMeters>
          </Trackpoint>
          <Trackpoint>
            <Time>2019-10-05T12:14:27.000Z</Time>
            <Position>
              <LatitudeDegrees>41.968845985829830169677734375</LatitudeDegrees>
              <LongitudeDegrees>-5.62837061472237110137939453125</LongitudeDegrees>
            </Position>
            <AltitudeMeters>631.5999755859375</AltitudeMeters>
            <DistanceMeters>NAN</DistanceMeters>
          </Trackpoint>
          <Trackpoint>
            <Time>2019-10-05T12:14:32.000Z</Time>
            <Position>
              <LatitudeDegrees>41.96876744739711284637451171875</LatitudeDegrees>
              <LongitudeDegrees>-5.62821471132338047027587890625</LongitudeDegrees>
            </Position>
            <AltitudeMeters>631.5999755859375</AltitudeMeters>
            <DistanceMeters>NAN</DistanceMeters>
          </Trackpoint>
          <Trackpoint>
            <Time>2019-10-05T12:14:34.000Z</Time>
            <Position>
              <LatitudeDegrees>41.96873475797474384307861328125</LatitudeDegrees>
              <LongitudeDegrees>-5.62816567718982696533203125</LongitudeDegrees>
            </Position>
            <AltitudeMeters>631.5999755859375</AltitudeMeters>
            <DistanceMeters>NAN</DistanceMeters>
          </Trackpoint>
          <Trackpoint>
            <Time>2019-10-05T12:14:37.000Z</Time>
            <Position>
              <LatitudeDegrees>41.96869502775371074676513671875</LatitudeDegrees>
              <LongitudeDegrees>-5.6281225942075252532958984375</LongitudeDegrees>
            </Position>
            <AltitudeMeters>631.5999755859375</AltitudeMeters>
            <DistanceMeters>NAN</DistanceMeters>
          </Trackpoint>
          <Trackpoint>
            <Time>2019-10-05T12:14:38.000Z</Time>
            <Position>
              <LatitudeDegrees>41.9686714746057987213134765625</LatitudeDegrees>
              <LongitudeDegrees>-5.62813055701553821563720703125</LongitudeDegrees>
            </Position>
            <AltitudeMeters>631.79998779296875</AltitudeMeters>
            <DistanceMeters>NAN</DistanceMeters>
          </Trackpoint>
          <Trackpoint>
            <Time>2019-10-05T12:14:41.000Z</Time>
            <Position>
              <LatitudeDegrees>41.9686008989810943603515625</LatitudeDegrees>
              <LongitudeDegrees>-5.62820767052471637725830078125</LongitudeDegrees>
            </Position>
            <AltitudeMeters>631.5999755859375</AltitudeMeters>
            <DistanceMeters>NAN</DistanceMeters>
          </Trackpoint>
          <Trackpoint>
            <Time>2019-10-05T12:14:42.000Z</Time>
            <Position>
              <LatitudeDegrees>41.96857206523418426513671875</LatitudeDegrees>
              <LongitudeDegrees>-5.62823683954775333404541015625</LongitudeDegrees>
            </Position>
            <AltitudeMeters>631.4000244140625</AltitudeMeters>
            <DistanceMeters>NAN</DistanceMeters>
          </Trackpoint>
          <Trackpoint>
            <Time>2019-10-05T12:14:46.000Z</Time>
            <Position>
              <LatitudeDegrees>41.96845027618110179901123046875</LatitudeDegrees>
              <LongitudeDegrees>-5.62836147844791412353515625</LongitudeDegrees>
            </Position>
            <AltitudeMeters>631.5999755859375</AltitudeMeters>
            <DistanceMeters>NAN</DistanceMeters>
          </Trackpoint>
          <Trackpoint>
            <Time>2019-10-05T12:14:49.000Z</Time>
            <Position>
              <LatitudeDegrees>41.96834684349596500396728515625</LatitudeDegrees>
              <LongitudeDegrees>-5.6284667551517486572265625</LongitudeDegrees>
            </Position>
            <AltitudeMeters>631.4000244140625</AltitudeMeters>
            <DistanceMeters>NAN</DistanceMeters>
          </Trackpoint>
          <Trackpoint>
            <Time>2019-10-05T12:14:50.000Z</Time>
            <Position>
              <LatitudeDegrees>41.96831264533102512359619140625</LatitudeDegrees>
              <LongitudeDegrees>-5.62850355170667171478271484375</LongitudeDegrees>
            </Position>
            <AltitudeMeters>631.4000244140625</AltitudeMeters>
            <DistanceMeters>NAN</DistanceMeters>
          </Trackpoint>
          <Trackpoint>
            <Time>2019-10-05T12:14:56.000Z</Time>
            <Position>
              <LatitudeDegrees>41.96811474859714508056640625</LatitudeDegrees>
              <LongitudeDegrees>-5.62870706431567668914794921875</LongitudeDegrees>
            </Position>
            <AltitudeMeters>630.79998779296875</AltitudeMeters>
            <DistanceMeters>NAN</DistanceMeters>
          </Trackpoint>
          <Trackpoint>
            <Time>2019-10-05T12:14:58.000Z</Time>
            <Position>
              <LatitudeDegrees>41.96805029176175594329833984375</LatitudeDegrees>
              <LongitudeDegrees>-5.62877311371266841888427734375</LongitudeDegrees>
            </Position>
            <AltitudeMeters>631</AltitudeMeters>
            <DistanceMeters>NAN</DistanceMeters>
          </Trackpoint>
          <Trackpoint>
            <Time>2019-10-05T12:15:02.000Z</Time>
            <Position>
              <LatitudeDegrees>41.967910230159759521484375</LatitudeDegrees>
              <LongitudeDegrees>-5.62892281450331211090087890625</LongitudeDegrees>
            </Position>
            <AltitudeMeters>631</AltitudeMeters>
            <DistanceMeters>NAN</DistanceMeters>
          </Trackpoint>
          <Trackpoint>
            <Time>2019-10-05T12:15:05.000Z</Time>
            <Position>
              <LatitudeDegrees>41.9678047858178615570068359375</LatitudeDegrees>
              <LongitudeDegrees>-5.62903597019612789154052734375</LongitudeDegrees>
            </Position>
            <AltitudeMeters>631.4000244140625</AltitudeMeters>
            <DistanceMeters>NAN</DistanceMeters>
          </Trackpoint>
          <Trackpoint>
            <Time>2019-10-05T12:15:06.000Z</Time>
            <Position>
              <LatitudeDegrees>41.96776966564357280731201171875</LatitudeDegrees>
              <LongitudeDegrees>-5.6290680728852748870849609375</LongitudeDegrees>
            </Position>
            <AltitudeMeters>631.5999755859375</AltitudeMeters>
            <DistanceMeters>NAN</DistanceMeters>
          </Trackpoint>
          <Trackpoint>
            <Time>2019-10-05T12:15:09.000Z</Time>
            <Position>
              <LatitudeDegrees>41.96767377667129039764404296875</LatitudeDegrees>
              <LongitudeDegrees>-5.6291683204472064971923828125</LongitudeDegrees>
            </Position>
            <AltitudeMeters>631.79998779296875</AltitudeMeters>
            <DistanceMeters>NAN</DistanceMeters>
          </Trackpoint>
          <Trackpoint>
            <Time>2019-10-05T12:15:11.000Z</Time>
            <Position>
              <LatitudeDegrees>41.96761191822588443756103515625</LatitudeDegrees>
              <LongitudeDegrees>-5.62923395074903964996337890625</LongitudeDegrees>
            </Position>
            <AltitudeMeters>631.79998779296875</AltitudeMeters>
            <DistanceMeters>NAN</DistanceMeters>
          </Trackpoint>
          <Trackpoint>
            <Time>2019-10-05T12:15:13.000Z</Time>
            <Position>
              <LatitudeDegrees>41.967545785009860992431640625</LatitudeDegrees>
              <LongitudeDegrees>-5.62930293381214141845703125</LongitudeDegrees>
            </Position>
            <AltitudeMeters>631.5999755859375</AltitudeMeters>
            <DistanceMeters>NAN</DistanceMeters>
          </Trackpoint>
          <Trackpoint>
            <Time>2019-10-05T12:15:17.000Z</Time>
            <Position>
              <LatitudeDegrees>41.967410333454608917236328125</LatitudeDegrees>
              <LongitudeDegrees>-5.62944282777607440948486328125</LongitudeDegrees>
            </Position>
            <AltitudeMeters>631</AltitudeMeters>
            <DistanceMeters>NAN</DistanceMeters>
          </Trackpoint>
          <Trackpoint>
            <Time>2019-10-05T12:15:23.000Z</Time>
            <Position>
              <LatitudeDegrees>41.96720321662724018096923828125</LatitudeDegrees>
              <LongitudeDegrees>-5.62966075725853443145751953125</LongitudeDegrees>
            </Position>
            <AltitudeMeters>631.4000244140625</AltitudeMeters>
            <DistanceMeters>NAN</DistanceMeters>
          </Trackpoint>
          <Trackpoint>
            <Time>2019-10-05T12:15:33.000Z</Time>
            <Position>
              <LatitudeDegrees>41.966851092875003814697265625</LatitudeDegrees>
              <LongitudeDegrees>-5.6300373561680316925048828125</LongitudeDegrees>
            </Position>
            <AltitudeMeters>630.79998779296875</AltitudeMeters>
            <DistanceMeters>NAN</DistanceMeters>
          </Trackpoint>
          <Trackpoint>
            <Time>2019-10-05T12:15:41.000Z</Time>
            <Position>
              <LatitudeDegrees>41.96656350977718830108642578125</LatitudeDegrees>
              <LongitudeDegrees>-5.630330555140972137451171875</LongitudeDegrees>
            </Position>
            <AltitudeMeters>630.5999755859375</AltitudeMeters>
            <DistanceMeters>NAN</DistanceMeters>
          </Trackpoint>
          <Trackpoint>
            <Time>2019-10-05T12:15:42.000Z</Time>
            <Position>
              <LatitudeDegrees>41.96652813814580440521240234375</LatitudeDegrees>
              <LongitudeDegrees>-5.6303692795336246490478515625</LongitudeDegrees>
            </Position>
            <AltitudeMeters>630.4000244140625</AltitudeMeters>
            <DistanceMeters>NAN</DistanceMeters>
          </Trackpoint>
          <Trackpoint>
            <Time>2019-10-05T12:15:49.000Z</Time>
            <Position>
              <LatitudeDegrees>41.96627198718488216400146484375</LatitudeDegrees>
              <LongitudeDegrees>-5.6306388415396213531494140625</LongitudeDegrees>
            </Position>
            <AltitudeMeters>631.5999755859375</AltitudeMeters>
            <DistanceMeters>NAN</DistanceMeters>
          </Trackpoint>
          <Trackpoint>
            <Time>2019-10-05T12:15:59.000Z</Time>
            <Position>
              <LatitudeDegrees>41.9659074582159519195556640625</LatitudeDegrees>
              <LongitudeDegrees>-5.63102466054260730743408203125</LongitudeDegrees>
            </Position>
            <AltitudeMeters>630.79998779296875</AltitudeMeters>
            <DistanceMeters>NAN</DistanceMeters>
          </Trackpoint>
          <Trackpoint>
            <Time>2019-10-05T12:16:04.000Z</Time>
            <Position>
              <LatitudeDegrees>41.9657227210700511932373046875</LatitudeDegrees>
              <LongitudeDegrees>-5.63121090643107891082763671875</LongitudeDegrees>
            </Position>
            <AltitudeMeters>632.20001220703125</AltitudeMeters>
            <DistanceMeters>NAN</DistanceMeters>
          </Trackpoint>
          <Trackpoint>
            <Time>2019-10-05T12:16:06.000Z</Time>
            <Position>
              <LatitudeDegrees>41.9656504690647125244140625</LatitudeDegrees>
              <LongitudeDegrees>-5.63128910958766937255859375</LongitudeDegrees>
            </Position>
            <AltitudeMeters>630.79998779296875</AltitudeMeters>
            <DistanceMeters>NAN</DistanceMeters>
          </Trackpoint>
          <Trackpoint>
            <Time>2019-10-05T12:16:09.000Z</Time>
            <Position>
              <LatitudeDegrees>41.9655369780957698822021484375</LatitudeDegrees>
              <LongitudeDegrees>-5.63140067271888256072998046875</LongitudeDegrees>
            </Position>
            <AltitudeMeters>631.4000244140625</AltitudeMeters>
            <DistanceMeters>NAN</DistanceMeters>
          </Trackpoint>
          <Trackpoint>
            <Time>2019-10-05T12:16:21.000Z</Time>
            <Position>
              <LatitudeDegrees>41.9650970958173274993896484375</LatitudeDegrees>
              <LongitudeDegrees>-5.6318676285445690155029296875</LongitudeDegrees>
            </Position>
            <AltitudeMeters>632</AltitudeMeters>
            <DistanceMeters>NAN</DistanceMeters>
          </Trackpoint>
          <Trackpoint>
            <Time>2019-10-05T12:16:30.000Z</Time>
            <Position>
              <LatitudeDegrees>41.96474581025540828704833984375</LatitudeDegrees>
              <LongitudeDegrees>-5.63222427852451801300048828125</LongitudeDegrees>
            </Position>
            <AltitudeMeters>631.4000244140625</AltitudeMeters>
            <DistanceMeters>NAN</DistanceMeters>
          </Trackpoint>
          <Trackpoint>
            <Time>2019-10-05T12:16:35.000Z</Time>
            <Position>
              <LatitudeDegrees>41.9645425491034984588623046875</LatitudeDegrees>
              <LongitudeDegrees>-5.63243315555155277252197265625</LongitudeDegrees>
            </Position>
            <AltitudeMeters>630.79998779296875</AltitudeMeters>
            <DistanceMeters>NAN</DistanceMeters>
          </Trackpoint>
          <Trackpoint>
            <Time>2019-10-05T12:16:36.000Z</Time>
            <Position>
              <LatitudeDegrees>41.96449778974056243896484375</LatitudeDegrees>
              <LongitudeDegrees>-5.6324808485805988311767578125</LongitudeDegrees>
            </Position>
            <AltitudeMeters>630.5999755859375</AltitudeMeters>
            <DistanceMeters>NAN</DistanceMeters>
          </Trackpoint>
          <Trackpoint>
            <Time>2019-10-05T12:16:43.000Z</Time>
            <Position>
              <LatitudeDegrees>41.96416880004107952117919921875</LatitudeDegrees>
              <LongitudeDegrees>-5.63282710500061511993408203125</LongitudeDegrees>
            </Position>
            <AltitudeMeters>630.4000244140625</AltitudeMeters>
            <DistanceMeters>NAN</DistanceMeters>
          </Trackpoint>
          <Trackpoint>
            <Time>2019-10-05T12:16:52.000Z</Time>
            <Position>
              <LatitudeDegrees>41.9637610204517841339111328125</LatitudeDegrees>
              <LongitudeDegrees>-5.63325139693915843963623046875</LongitudeDegrees>
            </Position>
            <AltitudeMeters>629.5999755859375</AltitudeMeters>
            <DistanceMeters>NAN</DistanceMeters>
          </Trackpoint>
          <Trackpoint>
            <Time>2019-10-05T12:16:53.000Z</Time>
            <Position>
              <LatitudeDegrees>41.96371533907949924468994140625</LatitudeDegrees>
              <LongitudeDegrees>-5.63329732976853847503662109375</LongitudeDegrees>
            </Position>
            <AltitudeMeters>629.20001220703125</AltitudeMeters>
            <DistanceMeters>NAN</DistanceMeters>
          </Trackpoint>
          <Trackpoint>
            <Time>2019-10-05T12:16:58.000Z</Time>
            <Position>
              <LatitudeDegrees>41.96349472738802433013916015625</LatitudeDegrees>
              <LongitudeDegrees>-5.63352414406836032867431640625</LongitudeDegrees>
            </Position>
            <AltitudeMeters>629.5999755859375</AltitudeMeters>
            <DistanceMeters>NAN</DistanceMeters>
          </Trackpoint>
          <Trackpoint>
            <Time>2019-10-05T12:17:03.000Z</Time>
            <Position>
              <LatitudeDegrees>41.96328333579003810882568359375</LatitudeDegrees>
              <LongitudeDegrees>-5.633753053843975067138671875</LongitudeDegrees>
            </Position>
            <AltitudeMeters>630</AltitudeMeters>
            <DistanceMeters>NAN</DistanceMeters>
          </Trackpoint>
          <Trackpoint>
            <Time>2019-10-05T12:17:13.000Z</Time>
            <Position>
              <LatitudeDegrees>41.96285820566117763519287109375</LatitudeDegrees>
              <LongitudeDegrees>-5.63418933190405368804931640625</LongitudeDegrees>
            </Position>
            <AltitudeMeters>630</AltitudeMeters>
            <DistanceMeters>NAN</DistanceMeters>
          </Trackpoint>
          <Trackpoint>
            <Time>2019-10-05T12:17:15.000Z</Time>
            <Position>
              <LatitudeDegrees>41.96277589537203311920166015625</LatitudeDegrees>
              <LongitudeDegrees>-5.63427667133510112762451171875</LongitudeDegrees>
            </Position>
            <AltitudeMeters>630.20001220703125</AltitudeMeters>
            <DistanceMeters>NAN</DistanceMeters>
          </Trackpoint>
          <Trackpoint>
            <Time>2019-10-05T12:17:25.000Z</Time>
            <Position>
              <LatitudeDegrees>41.96234959177672863006591796875</LatitudeDegrees>
              <LongitudeDegrees>-5.63472309149801731109619140625</LongitudeDegrees>
            </Position>
            <AltitudeMeters>629.20001220703125</AltitudeMeters>
            <DistanceMeters>NAN</DistanceMeters>
          </Trackpoint>
          <Trackpoint>
            <Time>2019-10-05T12:17:26.000Z</Time>
            <Position>
              <LatitudeDegrees>41.962305419147014617919921875</LatitudeDegrees>
              <LongitudeDegrees>-5.63476382754743099212646484375</LongitudeDegrees>
            </Position>
            <AltitudeMeters>629.4000244140625</AltitudeMeters>
            <DistanceMeters>NAN</DistanceMeters>
          </Trackpoint>
          <Trackpoint>
            <Time>2019-10-05T12:17:36.000Z</Time>
            <Position>
              <LatitudeDegrees>41.9618864916265010833740234375</LatitudeDegrees>
              <LongitudeDegrees>-5.63519868068397045135498046875</LongitudeDegrees>
            </Position>
            <AltitudeMeters>630.20001220703125</AltitudeMeters>
            <DistanceMeters>NAN</DistanceMeters>
          </Trackpoint>
          <Trackpoint>
            <Time>2019-10-05T12:17:45.000Z</Time>
            <Position>
              <LatitudeDegrees>41.96150972507894039154052734375</LatitudeDegrees>
              <LongitudeDegrees>-5.63559028320014476776123046875</LongitudeDegrees>
            </Position>
            <AltitudeMeters>629.5999755859375</AltitudeMeters>
            <DistanceMeters>NAN</DistanceMeters>
          </Trackpoint>
          <Trackpoint>
            <Time>2019-10-05T12:17:55.000Z</Time>
            <Position>
              <LatitudeDegrees>41.9610871933400630950927734375</LatitudeDegrees>
              <LongitudeDegrees>-5.6360310874879360198974609375</LongitudeDegrees>
            </Position>
            <AltitudeMeters>630</AltitudeMeters>
            <DistanceMeters>NAN</DistanceMeters>
          </Trackpoint>
          <Trackpoint>
            <Time>2019-10-05T12:17:58.000Z</Time>
            <Position>
              <LatitudeDegrees>41.96096037514507770538330078125</LatitudeDegrees>
              <LongitudeDegrees>-5.6361638568341732025146484375</LongitudeDegrees>
            </Position>
            <AltitudeMeters>630</AltitudeMeters>
            <DistanceMeters>NAN</DistanceMeters>
          </Trackpoint>
          <Trackpoint>
            <Time>2019-10-05T12:18:08.000Z</Time>
            <Position>
              <LatitudeDegrees>41.9605314731597900390625</LatitudeDegrees>
              <LongitudeDegrees>-5.6366080977022647857666015625</LongitudeDegrees>
            </Position>
            <AltitudeMeters>629.5999755859375</AltitudeMeters>
            <DistanceMeters>NAN</DistanceMeters>
          </Trackpoint>
          <Trackpoint>
            <Time>2019-10-05T12:18:17.000Z</Time>
            <Position>
              <LatitudeDegrees>41.96014632470905780792236328125</LatitudeDegrees>
              <LongitudeDegrees>-5.6370077468454837799072265625</LongitudeDegrees>
            </Position>
            <AltitudeMeters>629.79998779296875</AltitudeMeters>
            <DistanceMeters>NAN</DistanceMeters>
          </Trackpoint>
          <Trackpoint>
            <Time>2019-10-05T12:18:20.000Z</Time>
            <Position>
              <LatitudeDegrees>41.9600190035998821258544921875</LatitudeDegrees>
              <LongitudeDegrees>-5.63713976182043552398681640625</LongitudeDegrees>
            </Position>
            <AltitudeMeters>629.4000244140625</AltitudeMeters>
            <DistanceMeters>NAN</DistanceMeters>
          </Trackpoint>
          <Trackpoint>
            <Time>2019-10-05T12:18:30.000Z</Time>
            <Position>
              <LatitudeDegrees>41.9595935381948947906494140625</LatitudeDegrees>
              <LongitudeDegrees>-5.63758484087884426116943359375</LongitudeDegrees>
            </Position>
            <AltitudeMeters>629.79998779296875</AltitudeMeters>
            <DistanceMeters>NAN</DistanceMeters>
          </Trackpoint>
          <Trackpoint>
            <Time>2019-10-05T12:18:31.000Z</Time>
            <Position>
              <LatitudeDegrees>41.9595502875745296478271484375</LatitudeDegrees>
              <LongitudeDegrees>-5.63762926496565341949462890625</LongitudeDegrees>
            </Position>
            <AltitudeMeters>630.20001220703125</AltitudeMeters>
            <DistanceMeters>NAN</DistanceMeters>
          </Trackpoint>
          <Trackpoint>
            <Time>2019-10-05T12:18:41.000Z</Time>
            <Position>
              <LatitudeDegrees>41.95911618880927562713623046875</LatitudeDegrees>
              <LongitudeDegrees>-5.6380786187946796417236328125</LongitudeDegrees>
            </Position>
            <AltitudeMeters>630</AltitudeMeters>
            <DistanceMeters>NAN</DistanceMeters>
          </Trackpoint>
          <Trackpoint>
            <Time>2019-10-05T12:18:43.000Z</Time>
            <Position>
              <LatitudeDegrees>41.9590299390256404876708984375</LatitudeDegrees>
              <LongitudeDegrees>-5.638168640434741973876953125</LongitudeDegrees>
            </Position>
            <AltitudeMeters>630</AltitudeMeters>
            <DistanceMeters>NAN</DistanceMeters>
          </Trackpoint>
          <Trackpoint>
            <Time>2019-10-05T12:18:52.000Z</Time>
            <Position>
              <LatitudeDegrees>41.95864252746105194091796875</LatitudeDegrees>
              <LongitudeDegrees>-5.638571642339229583740234375</LongitudeDegrees>
            </Position>
            <AltitudeMeters>630</AltitudeMeters>
            <DistanceMeters>NAN</DistanceMeters>
          </Trackpoint>
          <Trackpoint>
            <Time>2019-10-05T12:19:02.000Z</Time>
            <Position>
              <LatitudeDegrees>41.958213709294795989990234375</LatitudeDegrees>
              <LongitudeDegrees>-5.6390204094350337982177734375</LongitudeDegrees>
            </Position>
            <AltitudeMeters>629.79998779296875</AltitudeMeters>
            <DistanceMeters>NAN</DistanceMeters>
          </Trackpoint>
          <Trackpoint>
            <Time>2019-10-05T12:19:12.000Z</Time>
            <Position>
              <LatitudeDegrees>41.95778296329081058502197265625</LatitudeDegrees>
              <LongitudeDegrees>-5.6394686736166477203369140625</LongitudeDegrees>
            </Position>
            <AltitudeMeters>629.20001220703125</AltitudeMeters>
            <DistanceMeters>NAN</DistanceMeters>
          </Trackpoint>
          <Trackpoint>
            <Time>2019-10-05T12:19:20.000Z</Time>
            <Position>
              <LatitudeDegrees>41.9574268162250518798828125</LatitudeDegrees>
              <LongitudeDegrees>-5.63984024338424205780029296875</LongitudeDegrees>
            </Position>
            <AltitudeMeters>629.20001220703125</AltitudeMeters>
            <DistanceMeters>NAN</DistanceMeters>
          </Trackpoint>
          <Trackpoint>
            <Time>2019-10-05T12:19:29.000Z</Time>
            <Position>
              <LatitudeDegrees>41.9570135883986949920654296875</LatitudeDegrees>
              <LongitudeDegrees>-5.6402673013508319854736328125</LongitudeDegrees>
            </Position>
            <AltitudeMeters>629.20001220703125</AltitudeMeters>
            <DistanceMeters>NAN</DistanceMeters>
          </Trackpoint>
          <Trackpoint>
            <Time>2019-10-05T12:19:39.000Z</Time>
            <Position>
              <LatitudeDegrees>41.95657462812960147857666015625</LatitudeDegrees>
              <LongitudeDegrees>-5.6407195888459682464599609375</LongitudeDegrees>
            </Position>
            <AltitudeMeters>629.20001220703125</AltitudeMeters>
            <DistanceMeters>NAN</DistanceMeters>
          </Trackpoint>
          <Trackpoint>
            <Time>2019-10-05T12:19:47.000Z</Time>
            <Position>
              <LatitudeDegrees>41.95623968727886676788330078125</LatitudeDegrees>
              <LongitudeDegrees>-5.641066767275333404541015625</LongitudeDegrees>
            </Position>
            <AltitudeMeters>629.5999755859375</AltitudeMeters>
            <DistanceMeters>NAN</DistanceMeters>
          </Trackpoint>
          <Trackpoint>
            <Time>2019-10-05T12:19:57.000Z</Time>
            <Position>
              <LatitudeDegrees>41.9558174908161163330078125</LatitudeDegrees>
              <LongitudeDegrees>-5.64150237478315830230712890625</LongitudeDegrees>
            </Position>
            <AltitudeMeters>629.5999755859375</AltitudeMeters>
            <DistanceMeters>NAN</DistanceMeters>
          </Trackpoint>
          <Trackpoint>
            <Time>2019-10-05T12:20:05.000Z</Time>
            <Position>
              <LatitudeDegrees>41.9554760120809078216552734375</LatitudeDegrees>
              <LongitudeDegrees>-5.64185391180217266082763671875</LongitudeDegrees>
            </Position>
            <AltitudeMeters>629.79998779296875</AltitudeMeters>
            <DistanceMeters>NAN</DistanceMeters>
          </Trackpoint>
          <Trackpoint>
            <Time>2019-10-05T12:20:12.000Z</Time>
            <Position>
              <LatitudeDegrees>41.955172084271907806396484375</LatitudeDegrees>
              <LongitudeDegrees>-5.6421699933707714080810546875</LongitudeDegrees>
            </Position>
            <AltitudeMeters>629.79998779296875</AltitudeMeters>
            <DistanceMeters>NAN</DistanceMeters>
          </Trackpoint>
          <Trackpoint>
            <Time>2019-10-05T12:20:21.000Z</Time>
            <Position>
              <LatitudeDegrees>41.954788863658905029296875</LatitudeDegrees>
              <LongitudeDegrees>-5.6425629369914531707763671875</LongitudeDegrees>
            </Position>
            <AltitudeMeters>629.20001220703125</AltitudeMeters>
            <DistanceMeters>NAN</DistanceMeters>
          </Trackpoint>
          <Trackpoint>
            <Time>2019-10-05T12:20:31.000Z</Time>
            <Position>
              <LatitudeDegrees>41.9543717801570892333984375</LatitudeDegrees>
              <LongitudeDegrees>-5.64300055615603923797607421875</LongitudeDegrees>
            </Position>
            <AltitudeMeters>629</AltitudeMeters>
            <DistanceMeters>NAN</DistanceMeters>
          </Trackpoint>
          <Trackpoint>
            <Time>2019-10-05T12:20:32.000Z</Time>
            <Position>
              <LatitudeDegrees>41.95432928390800952911376953125</LatitudeDegrees>
              <LongitudeDegrees>-5.64304548315703868865966796875</LongitudeDegrees>
            </Position>
            <AltitudeMeters>628.79998779296875</AltitudeMeters>
            <DistanceMeters>NAN</DistanceMeters>
          </Trackpoint>
          <Trackpoint>
            <Time>2019-10-05T12:20:40.000Z</Time>
            <Position>
              <LatitudeDegrees>41.95397087372839450836181640625</LatitudeDegrees>
              <LongitudeDegrees>-5.64341939985752105712890625</LongitudeDegrees>
            </Position>
            <AltitudeMeters>628.5999755859375</AltitudeMeters>
            <DistanceMeters>NAN</DistanceMeters>
          </Trackpoint>
          <Trackpoint>
            <Time>2019-10-05T12:20:41.000Z</Time>
            <Position>
              <LatitudeDegrees>41.9539210014045238494873046875</LatitudeDegrees>
              <LongitudeDegrees>-5.6434701941907405853271484375</LongitudeDegrees>
            </Position>
            <AltitudeMeters>628.4000244140625</AltitudeMeters>
            <DistanceMeters>NAN</DistanceMeters>
          </Trackpoint>
          <Trackpoint>
            <Time>2019-10-05T12:20:45.000Z</Time>
            <Position>
              <LatitudeDegrees>41.95372067391872406005859375</LatitudeDegrees>
              <LongitudeDegrees>-5.643677227199077606201171875</LongitudeDegrees>
            </Position>
            <AltitudeMeters>627.4000244140625</AltitudeMeters>
            <DistanceMeters>NAN</DistanceMeters>
          </Trackpoint>
          <Trackpoint>
            <Time>2019-10-05T12:20:49.000Z</Time>
            <Position>
              <LatitudeDegrees>41.9535136409103870391845703125</LatitudeDegrees>
              <LongitudeDegrees>-5.6438882835209369659423828125</LongitudeDegrees>
            </Position>
            <AltitudeMeters>626.4000244140625</AltitudeMeters>
            <DistanceMeters>NAN</DistanceMeters>
          </Trackpoint>
          <Trackpoint>
            <Time>2019-10-05T12:20:51.000Z</Time>
            <Position>
              <LatitudeDegrees>41.9534115493297576904296875</LatitudeDegrees>
              <LongitudeDegrees>-5.64399833790957927703857421875</LongitudeDegrees>
            </Position>
            <AltitudeMeters>626.5999755859375</AltitudeMeters>
            <DistanceMeters>NAN</DistanceMeters>
          </Trackpoint>
          <Trackpoint>
            <Time>2019-10-05T12:20:59.000Z</Time>
            <Position>
              <LatitudeDegrees>41.953002177178859710693359375</LatitudeDegrees>
              <LongitudeDegrees>-5.644422210752964019775390625</LongitudeDegrees>
            </Position>
            <AltitudeMeters>625.4000244140625</AltitudeMeters>
            <DistanceMeters>NAN</DistanceMeters>
          </Trackpoint>
          <Trackpoint>
            <Time>2019-10-05T12:21:00.000Z</Time>
            <Position>
              <LatitudeDegrees>41.95295532234013080596923828125</LatitudeDegrees>
              <LongitudeDegrees>-5.64447342418134212493896484375</LongitudeDegrees>
            </Position>
            <AltitudeMeters>625.4000244140625</AltitudeMeters>
            <DistanceMeters>NAN</DistanceMeters>
          </Trackpoint>
          <Trackpoint>
            <Time>2019-10-05T12:21:03.000Z</Time>
            <Position>
              <LatitudeDegrees>41.95281232707202434539794921875</LatitudeDegrees>
              <LongitudeDegrees>-5.64462346024811267852783203125</LongitudeDegrees>
            </Position>
            <AltitudeMeters>626.4000244140625</AltitudeMeters>
            <DistanceMeters>NAN</DistanceMeters>
          </Trackpoint>
          <Trackpoint>
            <Time>2019-10-05T12:21:10.000Z</Time>
            <Position>
              <LatitudeDegrees>41.95249758660793304443359375</LatitudeDegrees>
              <LongitudeDegrees>-5.6449494324624538421630859375</LongitudeDegrees>
            </Position>
            <AltitudeMeters>626</AltitudeMeters>
            <DistanceMeters>NAN</DistanceMeters>
          </Trackpoint>
          <Trackpoint>
            <Time>2019-10-05T12:21:18.000Z</Time>
            <Position>
              <LatitudeDegrees>41.95216834545135498046875</LatitudeDegrees>
              <LongitudeDegrees>-5.6452961079776287078857421875</LongitudeDegrees>
            </Position>
            <AltitudeMeters>626.4000244140625</AltitudeMeters>
            <DistanceMeters>NAN</DistanceMeters>
          </Trackpoint>
          <Trackpoint>
            <Time>2019-10-05T12:21:25.000Z</Time>
            <Position>
              <LatitudeDegrees>41.95188579149544239044189453125</LatitudeDegrees>
              <LongitudeDegrees>-5.64559106715023517608642578125</LongitudeDegrees>
            </Position>
            <AltitudeMeters>627.79998779296875</AltitudeMeters>
            <DistanceMeters>NAN</DistanceMeters>
          </Trackpoint>
          <Trackpoint>
            <Time>2019-10-05T12:21:33.000Z</Time>
            <Position>
              <LatitudeDegrees>41.951552443206310272216796875</LatitudeDegrees>
              <LongitudeDegrees>-5.64593799412250518798828125</LongitudeDegrees>
            </Position>
            <AltitudeMeters>627.5999755859375</AltitudeMeters>
            <DistanceMeters>NAN</DistanceMeters>
          </Trackpoint>
          <Trackpoint>
            <Time>2019-10-05T12:21:42.000Z</Time>
            <Position>
              <LatitudeDegrees>41.951179616153240203857421875</LatitudeDegrees>
              <LongitudeDegrees>-5.6463222205638885498046875</LongitudeDegrees>
            </Position>
            <AltitudeMeters>628.5999755859375</AltitudeMeters>
            <DistanceMeters>NAN</DistanceMeters>
          </Trackpoint>
          <Trackpoint>
            <Time>2019-10-05T12:21:43.000Z</Time>
            <Position>
              <LatitudeDegrees>41.95113837718963623046875</LatitudeDegrees>
              <LongitudeDegrees>-5.64636555500328540802001953125</LongitudeDegrees>
            </Position>
            <AltitudeMeters>628.79998779296875</AltitudeMeters>
            <DistanceMeters>NAN</DistanceMeters>
          </Trackpoint>
          <Trackpoint>
            <Time>2019-10-05T12:21:48.000Z</Time>
            <Position>
              <LatitudeDegrees>41.95093712769448757171630859375</LatitudeDegrees>
              <LongitudeDegrees>-5.64657661132514476776123046875</LongitudeDegrees>
            </Position>
            <AltitudeMeters>629.20001220703125</AltitudeMeters>
            <DistanceMeters>NAN</DistanceMeters>
          </Trackpoint>
          <Trackpoint>
            <Time>2019-10-05T12:21:51.000Z</Time>
            <Position>
              <LatitudeDegrees>41.9508193619549274444580078125</LatitudeDegrees>
              <LongitudeDegrees>-5.6467005796730518341064453125</LongitudeDegrees>
            </Position>
            <AltitudeMeters>629</AltitudeMeters>
            <DistanceMeters>NAN</DistanceMeters>
          </Trackpoint>
          <Trackpoint>
            <Time>2019-10-05T12:22:00.000Z</Time>
            <Position>
              <LatitudeDegrees>41.9504559226334095001220703125</LatitudeDegrees>
              <LongitudeDegrees>-5.647082962095737457275390625</LongitudeDegrees>
            </Position>
            <AltitudeMeters>629.20001220703125</AltitudeMeters>
            <DistanceMeters>NAN</DistanceMeters>
          </Trackpoint>
          <Trackpoint>
            <Time>2019-10-05T12:22:07.000Z</Time>
            <Position>
              <LatitudeDegrees>41.95014621131122112274169921875</LatitudeDegrees>
              <LongitudeDegrees>-5.64740222878754138946533203125</LongitudeDegrees>
            </Position>
            <AltitudeMeters>627.79998779296875</AltitudeMeters>
            <DistanceMeters>NAN</DistanceMeters>
          </Trackpoint>
          <Trackpoint>
            <Time>2019-10-05T12:22:09.000Z</Time>
            <Position>
              <LatitudeDegrees>41.95005082525312900543212890625</LatitudeDegrees>
              <LongitudeDegrees>-5.647501386702060699462890625</LongitudeDegrees>
            </Position>
            <AltitudeMeters>627.4000244140625</AltitudeMeters>
            <DistanceMeters>NAN</DistanceMeters>
          </Trackpoint>
          <Trackpoint>
            <Time>2019-10-05T12:22:14.000Z</Time>
            <Position>
              <LatitudeDegrees>41.9498012959957122802734375</LatitudeDegrees>
              <LongitudeDegrees>-5.6477587111294269561767578125</LongitudeDegrees>
            </Position>
            <AltitudeMeters>626.5999755859375</AltitudeMeters>
            <DistanceMeters>NAN</DistanceMeters>
          </Trackpoint>
          <Trackpoint>
            <Time>2019-10-05T12:22:18.000Z</Time>
            <Position>
              <LatitudeDegrees>41.94959317333996295928955078125</LatitudeDegrees>
              <LongitudeDegrees>-5.6479773111641407012939453125</LongitudeDegrees>
            </Position>
            <AltitudeMeters>626.4000244140625</AltitudeMeters>
            <DistanceMeters>NAN</DistanceMeters>
          </Trackpoint>
          <Trackpoint>
            <Time>2019-10-05T12:22:23.000Z</Time>
            <Position>
              <LatitudeDegrees>41.94932813756167888641357421875</LatitudeDegrees>
              <LongitudeDegrees>-5.64825986512005329132080078125</LongitudeDegrees>
            </Position>
            <AltitudeMeters>625.5999755859375</AltitudeMeters>
            <DistanceMeters>NAN</DistanceMeters>
          </Trackpoint>
          <Trackpoint>
            <Time>2019-10-05T12:22:27.000Z</Time>
            <Position>
              <LatitudeDegrees>41.94911037571728229522705078125</LatitudeDegrees>
              <LongitudeDegrees>-5.6484805606305599212646484375</LongitudeDegrees>
            </Position>
            <AltitudeMeters>625</AltitudeMeters>
            <DistanceMeters>NAN</DistanceMeters>
          </Trackpoint>
          <Trackpoint>
            <Time>2019-10-05T12:22:32.000Z</Time>
            <Position>
              <LatitudeDegrees>41.94883276708424091339111328125</LatitudeDegrees>
              <LongitudeDegrees>-5.64877149648964405059814453125</LongitudeDegrees>
            </Position>
            <AltitudeMeters>624.4000244140625</AltitudeMeters>
            <DistanceMeters>NAN</DistanceMeters>
          </Trackpoint>
          <Trackpoint>
            <Time>2019-10-05T12:22:37.000Z</Time>
            <Position>
              <LatitudeDegrees>41.94854736328125</LatitudeDegrees>
              <LongitudeDegrees>-5.64906553365290164947509765625</LongitudeDegrees>
            </Position>
            <AltitudeMeters>623.4000244140625</AltitudeMeters>
            <DistanceMeters>NAN</DistanceMeters>
          </Trackpoint>
          <Trackpoint>
            <Time>2019-10-05T12:22:39.000Z</Time>
            <Position>
              <LatitudeDegrees>41.94843378849327564239501953125</LatitudeDegrees>
              <LongitudeDegrees>-5.64918053336441516876220703125</LongitudeDegrees>
            </Position>
            <AltitudeMeters>623</AltitudeMeters>
            <DistanceMeters>NAN</DistanceMeters>
          </Trackpoint>
          <Trackpoint>
            <Time>2019-10-05T12:22:47.000Z</Time>
            <Position>
              <LatitudeDegrees>41.94800077937543392181396484375</LatitudeDegrees>
              <LongitudeDegrees>-5.64963466487824916839599609375</LongitudeDegrees>
            </Position>
            <AltitudeMeters>623</AltitudeMeters>
            <DistanceMeters>NAN</DistanceMeters>
          </Trackpoint>
          <Trackpoint>
            <Time>2019-10-05T12:22:49.000Z</Time>
            <Position>
              <LatitudeDegrees>41.94789751432836055755615234375</LatitudeDegrees>
              <LongitudeDegrees>-5.64974295906722545623779296875</LongitudeDegrees>
            </Position>
            <AltitudeMeters>622.5999755859375</AltitudeMeters>
            <DistanceMeters>NAN</DistanceMeters>
          </Trackpoint>
          <Trackpoint>
            <Time>2019-10-05T12:22:50.000Z</Time>
            <Position>
              <LatitudeDegrees>41.94784588180482387542724609375</LatitudeDegrees>
              <LongitudeDegrees>-5.649794004857540130615234375</LongitudeDegrees>
            </Position>
            <AltitudeMeters>622.20001220703125</AltitudeMeters>
            <DistanceMeters>NAN</DistanceMeters>
          </Trackpoint>
          <Trackpoint>
            <Time>2019-10-05T12:22:58.000Z</Time>
            <Position>
              <LatitudeDegrees>41.9474511779844760894775390625</LatitudeDegrees>
              <LongitudeDegrees>-5.6502038799226284027099609375</LongitudeDegrees>
            </Position>
            <AltitudeMeters>622.4000244140625</AltitudeMeters>
            <DistanceMeters>NAN</DistanceMeters>
          </Trackpoint>
          <Trackpoint>
            <Time>2019-10-05T12:23:05.000Z</Time>
            <Position>
              <LatitudeDegrees>41.947108022868633270263671875</LatitudeDegrees>
              <LongitudeDegrees>-5.650555752217769622802734375</LongitudeDegrees>
            </Position>
            <AltitudeMeters>623</AltitudeMeters>
            <DistanceMeters>NAN</DistanceMeters>
          </Trackpoint>
          <Trackpoint>
            <Time>2019-10-05T12:23:07.000Z</Time>
            <Position>
              <LatitudeDegrees>41.94701205007731914520263671875</LatitudeDegrees>
              <LongitudeDegrees>-5.650659687817096710205078125</LongitudeDegrees>
            </Position>
            <AltitudeMeters>622.79998779296875</AltitudeMeters>
            <DistanceMeters>NAN</DistanceMeters>
          </Trackpoint>
          <Trackpoint>
            <Time>2019-10-05T12:23:10.000Z</Time>
            <Position>
              <LatitudeDegrees>41.946865618228912353515625</LatitudeDegrees>
              <LongitudeDegrees>-5.65081181935966014862060546875</LongitudeDegrees>
            </Position>
            <AltitudeMeters>622.4000244140625</AltitudeMeters>
            <DistanceMeters>NAN</DistanceMeters>
          </Trackpoint>
          <Trackpoint>
            <Time>2019-10-05T12:23:17.000Z</Time>
            <Position>
              <LatitudeDegrees>41.94652740843594074249267578125</LatitudeDegrees>
              <LongitudeDegrees>-5.65116352401673793792724609375</LongitudeDegrees>
            </Position>
            <AltitudeMeters>622.4000244140625</AltitudeMeters>
            <DistanceMeters>NAN</DistanceMeters>
          </Trackpoint>
          <Trackpoint>
            <Time>2019-10-05T12:23:26.000Z</Time>
            <Position>
              <LatitudeDegrees>41.94609808735549449920654296875</LatitudeDegrees>
              <LongitudeDegrees>-5.651612542569637298583984375</LongitudeDegrees>
            </Position>
            <AltitudeMeters>622.20001220703125</AltitudeMeters>
            <DistanceMeters>NAN</DistanceMeters>
          </Trackpoint>
          <Trackpoint>
            <Time>2019-10-05T12:23:28.000Z</Time>
            <Position>
              <LatitudeDegrees>41.94600353948771953582763671875</LatitudeDegrees>
              <LongitudeDegrees>-5.65171052701771259307861328125</LongitudeDegrees>
            </Position>
            <AltitudeMeters>622.4000244140625</AltitudeMeters>
            <DistanceMeters>NAN</DistanceMeters>
          </Trackpoint>
          <Trackpoint>
            <Time>2019-10-05T12:23:38.000Z</Time>
            <Position>
              <LatitudeDegrees>41.9455478154122829437255859375</LatitudeDegrees>
              <LongitudeDegrees>-5.6521813385188579559326171875</LongitudeDegrees>
            </Position>
            <AltitudeMeters>621.5999755859375</AltitudeMeters>
            <DistanceMeters>NAN</DistanceMeters>
          </Trackpoint>
          <Trackpoint>
            <Time>2019-10-05T12:23:39.000Z</Time>
            <Position>
              <LatitudeDegrees>41.94550481624901294708251953125</LatitudeDegrees>
              <LongitudeDegrees>-5.6522269360721111297607421875</LongitudeDegrees>
            </Position>
            <AltitudeMeters>621.4000244140625</AltitudeMeters>
            <DistanceMeters>NAN</DistanceMeters>
          </Trackpoint>
          <Trackpoint>
            <Time>2019-10-05T12:23:48.000Z</Time>
            <Position>
              <LatitudeDegrees>41.945116482675075531005859375</LatitudeDegrees>
              <LongitudeDegrees>-5.65262834541499614715576171875</LongitudeDegrees>
            </Position>
            <AltitudeMeters>621.20001220703125</AltitudeMeters>
            <DistanceMeters>NAN</DistanceMeters>
          </Trackpoint>
          <Trackpoint>
            <Time>2019-10-05T12:23:50.000Z</Time>
            <Position>
              <LatitudeDegrees>41.945032663643360137939453125</LatitudeDegrees>
              <LongitudeDegrees>-5.65271459519863128662109375</LongitudeDegrees>
            </Position>
            <AltitudeMeters>621.20001220703125</AltitudeMeters>
            <DistanceMeters>NAN</DistanceMeters>
          </Trackpoint>
          <Trackpoint>
            <Time>2019-10-05T12:23:55.000Z</Time>
            <Position>
              <LatitudeDegrees>41.94482537917792797088623046875</LatitudeDegrees>
              <LongitudeDegrees>-5.6529367156326770782470703125</LongitudeDegrees>
            </Position>
            <AltitudeMeters>621.20001220703125</AltitudeMeters>
            <DistanceMeters>NAN</DistanceMeters>
          </Trackpoint>
          <Trackpoint>
            <Time>2019-10-05T12:23:59.000Z</Time>
            <Position>
              <LatitudeDegrees>41.9446579925715923309326171875</LatitudeDegrees>
              <LongitudeDegrees>-5.65310619771480560302734375</LongitudeDegrees>
            </Position>
            <AltitudeMeters>622.4000244140625</AltitudeMeters>
            <DistanceMeters>NAN</DistanceMeters>
          </Trackpoint>
          <Trackpoint>
            <Time>2019-10-05T12:24:02.000Z</Time>
            <Position>
              <LatitudeDegrees>41.94453184492886066436767578125</LatitudeDegrees>
              <LongitudeDegrees>-5.6532384641468524932861328125</LongitudeDegrees>
            </Position>
            <AltitudeMeters>621</AltitudeMeters>
            <DistanceMeters>NAN</DistanceMeters>
          </Trackpoint>
          <Trackpoint>
            <Time>2019-10-05T12:24:09.000Z</Time>
            <Position>
              <LatitudeDegrees>41.94422070868313312530517578125</LatitudeDegrees>
              <LongitudeDegrees>-5.65355479717254638671875</LongitudeDegrees>
            </Position>
            <AltitudeMeters>621.4000244140625</AltitudeMeters>
            <DistanceMeters>NAN</DistanceMeters>
          </Trackpoint>
          <Trackpoint>
            <Time>2019-10-05T12:24:19.000Z</Time>
            <Position>
              <LatitudeDegrees>41.94375534541904926300048828125</LatitudeDegrees>
              <LongitudeDegrees>-5.65403449349105358123779296875</LongitudeDegrees>
            </Position>
            <AltitudeMeters>620.79998779296875</AltitudeMeters>
            <DistanceMeters>NAN</DistanceMeters>
          </Trackpoint>
          <Trackpoint>
            <Time>2019-10-05T12:24:20.000Z</Time>
            <Position>
              <LatitudeDegrees>41.94370807148516178131103515625</LatitudeDegrees>
              <LongitudeDegrees>-5.65408394671976566314697265625</LongitudeDegrees>
            </Position>
            <AltitudeMeters>620.79998779296875</AltitudeMeters>
            <DistanceMeters>NAN</DistanceMeters>
          </Trackpoint>
          <Trackpoint>
            <Time>2019-10-05T12:24:29.000Z</Time>
            <Position>
              <LatitudeDegrees>41.94328092969954013824462890625</LatitudeDegrees>
              <LongitudeDegrees>-5.65452885814011096954345703125</LongitudeDegrees>
            </Position>
            <AltitudeMeters>619.79998779296875</AltitudeMeters>
            <DistanceMeters>NAN</DistanceMeters>
          </Trackpoint>
          <Trackpoint>
            <Time>2019-10-05T12:24:32.000Z</Time>
            <Position>
              <LatitudeDegrees>41.94314329884946346282958984375</LatitudeDegrees>
              <LongitudeDegrees>-5.6546767987310886383056640625</LongitudeDegrees>
            </Position>
            <AltitudeMeters>619.79998779296875</AltitudeMeters>
            <DistanceMeters>NAN</DistanceMeters>
          </Trackpoint>
          <Trackpoint>
            <Time>2019-10-05T12:24:40.000Z</Time>
            <Position>
              <LatitudeDegrees>41.9428025744855403900146484375</LatitudeDegrees>
              <LongitudeDegrees>-5.655029676854610443115234375</LongitudeDegrees>
            </Position>
            <AltitudeMeters>620.4000244140625</AltitudeMeters>
            <DistanceMeters>NAN</DistanceMeters>
          </Trackpoint>
          <Trackpoint>
            <Time>2019-10-05T12:24:43.000Z</Time>
            <Position>
              <LatitudeDegrees>41.9426827132701873779296875</LatitudeDegrees>
              <LongitudeDegrees>-5.65515138208866119384765625</LongitudeDegrees>
            </Position>
            <AltitudeMeters>621</AltitudeMeters>
            <DistanceMeters>NAN</DistanceMeters>
          </Trackpoint>
          <Trackpoint>
            <Time>2019-10-05T12:24:48.000Z</Time>
            <Position>
              <LatitudeDegrees>41.94248800165951251983642578125</LatitudeDegrees>
              <LongitudeDegrees>-5.65535464324057102203369140625</LongitudeDegrees>
            </Position>
            <AltitudeMeters>621.4000244140625</AltitudeMeters>
            <DistanceMeters>NAN</DistanceMeters>
          </Trackpoint>
          <Trackpoint>
            <Time>2019-10-05T12:24:51.000Z</Time>
            <Position>
              <LatitudeDegrees>41.9423744268715381622314453125</LatitudeDegrees>
              <LongitudeDegrees>-5.65547299571335315704345703125</LongitudeDegrees>
            </Position>
            <AltitudeMeters>622.20001220703125</AltitudeMeters>
            <DistanceMeters>NAN</DistanceMeters>
          </Trackpoint>
          <Trackpoint>
            <Time>2019-10-05T12:24:56.000Z</Time>
            <Position>
              <LatitudeDegrees>41.9421967305243015289306640625</LatitudeDegrees>
              <LongitudeDegrees>-5.65566175617277622222900390625</LongitudeDegrees>
            </Position>
            <AltitudeMeters>622.5999755859375</AltitudeMeters>
            <DistanceMeters>NAN</DistanceMeters>
          </Trackpoint>
          <Trackpoint>
            <Time>2019-10-05T12:24:57.000Z</Time>
            <Position>
              <LatitudeDegrees>41.9421608559787273406982421875</LatitudeDegrees>
              <LongitudeDegrees>-5.65569696016609668731689453125</LongitudeDegrees>
            </Position>
            <AltitudeMeters>623</AltitudeMeters>
            <DistanceMeters>NAN</DistanceMeters>
          </Trackpoint>
          <Trackpoint>
            <Time>2019-10-05T12:24:58.000Z</Time>
            <Position>
              <LatitudeDegrees>41.942128837108612060546875</LatitudeDegrees>
              <LongitudeDegrees>-5.65573400817811489105224609375</LongitudeDegrees>
            </Position>
            <AltitudeMeters>623.20001220703125</AltitudeMeters>
            <DistanceMeters>NAN</DistanceMeters>
          </Trackpoint>
          <Trackpoint>
            <Time>2019-10-05T12:25:01.000Z</Time>
            <Position>
              <LatitudeDegrees>41.94202817045152187347412109375</LatitudeDegrees>
              <LongitudeDegrees>-5.65583207644522190093994140625</LongitudeDegrees>
            </Position>
            <AltitudeMeters>623.5999755859375</AltitudeMeters>
            <DistanceMeters>NAN</DistanceMeters>
          </Trackpoint>
          <Trackpoint>
            <Time>2019-10-05T12:25:03.000Z</Time>
            <Position>
              <LatitudeDegrees>41.9419650547206401824951171875</LatitudeDegrees>
              <LongitudeDegrees>-5.65589879639446735382080078125</LongitudeDegrees>
            </Position>
            <AltitudeMeters>623.4000244140625</AltitudeMeters>
            <DistanceMeters>NAN</DistanceMeters>
          </Trackpoint>
          <Trackpoint>
            <Time>2019-10-05T12:25:06.000Z</Time>
            <Position>
              <LatitudeDegrees>41.94187738001346588134765625</LatitudeDegrees>
              <LongitudeDegrees>-5.6559887342154979705810546875</LongitudeDegrees>
            </Position>
            <AltitudeMeters>624.20001220703125</AltitudeMeters>
            <DistanceMeters>NAN</DistanceMeters>
          </Trackpoint>
          <Trackpoint>
            <Time>2019-10-05T12:25:12.000Z</Time>
            <Position>
              <LatitudeDegrees>41.94170462898910045623779296875</LatitudeDegrees>
              <LongitudeDegrees>-5.6561684422194957733154296875</LongitudeDegrees>
            </Position>
            <AltitudeMeters>624.79998779296875</AltitudeMeters>
            <DistanceMeters>NAN</DistanceMeters>
          </Trackpoint>
          <Trackpoint>
            <Time>2019-10-05T12:25:16.000Z</Time>
            <Position>
              <LatitudeDegrees>41.94159013219177722930908203125</LatitudeDegrees>
              <LongitudeDegrees>-5.65628528594970703125</LongitudeDegrees>
            </Position>
            <AltitudeMeters>625.4000244140625</AltitudeMeters>
            <DistanceMeters>NAN</DistanceMeters>
          </Trackpoint>
          <Trackpoint>
            <Time>2019-10-05T12:25:21.000Z</Time>
            <Position>
              <LatitudeDegrees>41.9414433650672435760498046875</LatitudeDegrees>
              <LongitudeDegrees>-5.65644127316772937774658203125</LongitudeDegrees>
            </Position>
            <AltitudeMeters>626.20001220703125</AltitudeMeters>
            <DistanceMeters>NAN</DistanceMeters>
          </Trackpoint>
          <Trackpoint>
            <Time>2019-10-05T12:25:22.000Z</Time>
            <Position>
              <LatitudeDegrees>41.9414135254919528961181640625</LatitudeDegrees>
              <LongitudeDegrees>-5.6564690172672271728515625</LongitudeDegrees>
            </Position>
            <AltitudeMeters>626.4000244140625</AltitudeMeters>
            <DistanceMeters>NAN</DistanceMeters>
          </Trackpoint>
          <Trackpoint>
            <Time>2019-10-05T12:25:30.000Z</Time>
            <Position>
              <LatitudeDegrees>41.94117824546992778778076171875</LatitudeDegrees>
              <LongitudeDegrees>-5.656708739697933197021484375</LongitudeDegrees>
            </Position>
            <AltitudeMeters>626.5999755859375</AltitudeMeters>
            <DistanceMeters>NAN</DistanceMeters>
          </Trackpoint>
          <Trackpoint>
            <Time>2019-10-05T12:25:39.000Z</Time>
            <Position>
              <LatitudeDegrees>41.940905414521694183349609375</LatitudeDegrees>
              <LongitudeDegrees>-5.656991042196750640869140625</LongitudeDegrees>
            </Position>
            <AltitudeMeters>627.5999755859375</AltitudeMeters>
            <DistanceMeters>NAN</DistanceMeters>
          </Trackpoint>
          <Trackpoint>
            <Time>2019-10-05T12:25:41.000Z</Time>
            <Position>
              <LatitudeDegrees>41.94084112532436847686767578125</LatitudeDegrees>
              <LongitudeDegrees>-5.65704728476703166961669921875</LongitudeDegrees>
            </Position>
            <AltitudeMeters>628.20001220703125</AltitudeMeters>
            <DistanceMeters>NAN</DistanceMeters>
          </Trackpoint>
          <Trackpoint>
            <Time>2019-10-05T12:25:49.000Z</Time>
            <Position>
              <LatitudeDegrees>41.94059218280017375946044921875</LatitudeDegrees>
              <LongitudeDegrees>-5.65731902606785297393798828125</LongitudeDegrees>
            </Position>
            <AltitudeMeters>627.79998779296875</AltitudeMeters>
            <DistanceMeters>NAN</DistanceMeters>
          </Trackpoint>
          <Trackpoint>
            <Time>2019-10-05T12:25:58.000Z</Time>
            <Position>
              <LatitudeDegrees>41.94025154225528240203857421875</LatitudeDegrees>
              <LongitudeDegrees>-5.65767944790422916412353515625</LongitudeDegrees>
            </Position>
            <AltitudeMeters>627</AltitudeMeters>
            <DistanceMeters>NAN</DistanceMeters>
          </Trackpoint>
          <Trackpoint>
            <Time>2019-10-05T12:26:00.000Z</Time>
            <Position>
              <LatitudeDegrees>41.94016889669001102447509765625</LatitudeDegrees>
              <LongitudeDegrees>-5.65776997245848178863525390625</LongitudeDegrees>
            </Position>
            <AltitudeMeters>626.4000244140625</AltitudeMeters>
            <DistanceMeters>NAN</DistanceMeters>
          </Trackpoint>
          <Trackpoint>
            <Time>2019-10-05T12:26:05.000Z</Time>
            <Position>
              <LatitudeDegrees>41.939936466515064239501953125</LatitudeDegrees>
              <LongitudeDegrees>-5.65800885669887065887451171875</LongitudeDegrees>
            </Position>
            <AltitudeMeters>625.5999755859375</AltitudeMeters>
            <DistanceMeters>NAN</DistanceMeters>
          </Trackpoint>
          <Trackpoint>
            <Time>2019-10-05T12:26:07.000Z</Time>
            <Position>
              <LatitudeDegrees>41.9398368895053863525390625</LatitudeDegrees>
              <LongitudeDegrees>-5.65811161883175373077392578125</LongitudeDegrees>
            </Position>
            <AltitudeMeters>625.4000244140625</AltitudeMeters>
            <DistanceMeters>NAN</DistanceMeters>
          </Trackpoint>
          <Trackpoint>
            <Time>2019-10-05T12:26:10.000Z</Time>
            <Position>
              <LatitudeDegrees>41.939678974449634552001953125</LatitudeDegrees>
              <LongitudeDegrees>-5.6582756526768207550048828125</LongitudeDegrees>
            </Position>
            <AltitudeMeters>624.20001220703125</AltitudeMeters>
            <DistanceMeters>NAN</DistanceMeters>
          </Trackpoint>
          <Trackpoint>
            <Time>2019-10-05T12:26:14.000Z</Time>
            <Position>
              <LatitudeDegrees>41.93945534527301788330078125</LatitudeDegrees>
              <LongitudeDegrees>-5.6584962643682956695556640625</LongitudeDegrees>
            </Position>
            <AltitudeMeters>623.5999755859375</AltitudeMeters>
            <DistanceMeters>NAN</DistanceMeters>
          </Trackpoint>
          <Trackpoint>
            <Time>2019-10-05T12:26:15.000Z</Time>
            <Position>
              <LatitudeDegrees>41.939396671950817108154296875</LatitudeDegrees>
              <LongitudeDegrees>-5.6585492379963397979736328125</LongitudeDegrees>
            </Position>
            <AltitudeMeters>623.20001220703125</AltitudeMeters>
            <DistanceMeters>NAN</DistanceMeters>
          </Trackpoint>
          <Trackpoint>
            <Time>2019-10-05T12:26:17.000Z</Time>
            <Position>
              <LatitudeDegrees>41.93928829394280910491943359375</LatitudeDegrees>
              <LongitudeDegrees>-5.65866784192621707916259765625</LongitudeDegrees>
            </Position>
            <AltitudeMeters>622</AltitudeMeters>
            <DistanceMeters>NAN</DistanceMeters>
          </Trackpoint>
          <Trackpoint>
            <Time>2019-10-05T12:26:20.000Z</Time>
            <Position>
              <LatitudeDegrees>41.9391215778887271881103515625</LatitudeDegrees>
              <LongitudeDegrees>-5.6588436104357242584228515625</LongitudeDegrees>
            </Position>
            <AltitudeMeters>621.20001220703125</AltitudeMeters>
            <DistanceMeters>NAN</DistanceMeters>
          </Trackpoint>
          <Trackpoint>
            <Time>2019-10-05T12:26:21.000Z</Time>
            <Position>
              <LatitudeDegrees>41.93906533531844615936279296875</LatitudeDegrees>
              <LongitudeDegrees>-5.65890370868146419525146484375</LongitudeDegrees>
            </Position>
            <AltitudeMeters>621</AltitudeMeters>
            <DistanceMeters>NAN</DistanceMeters>
          </Trackpoint>
          <Trackpoint>
            <Time>2019-10-05T12:26:26.000Z</Time>
            <Position>
              <LatitudeDegrees>41.93877674639225006103515625</LatitudeDegrees>
              <LongitudeDegrees>-5.6592040322721004486083984375</LongitudeDegrees>
            </Position>
            <AltitudeMeters>619.79998779296875</AltitudeMeters>
            <DistanceMeters>NAN</DistanceMeters>
          </Trackpoint>
          <Trackpoint>
            <Time>2019-10-05T12:26:29.000Z</Time>
            <Position>
              <LatitudeDegrees>41.93859779275953769683837890625</LatitudeDegrees>
              <LongitudeDegrees>-5.659383572638034820556640625</LongitudeDegrees>
            </Position>
            <AltitudeMeters>619.79998779296875</AltitudeMeters>
            <DistanceMeters>NAN</DistanceMeters>
          </Trackpoint>
          <Trackpoint>
            <Time>2019-10-05T12:26:30.000Z</Time>
            <Position>
              <LatitudeDegrees>41.9385118782520294189453125</LatitudeDegrees>
              <LongitudeDegrees>-5.6594759412109851837158203125</LongitudeDegrees>
            </Position>
            <AltitudeMeters>620</AltitudeMeters>
            <DistanceMeters>NAN</DistanceMeters>
          </Trackpoint>
          <Trackpoint>
            <Time>2019-10-05T12:26:34.000Z</Time>
            <Position>
              <LatitudeDegrees>41.9383013248443603515625</LatitudeDegrees>
              <LongitudeDegrees>-5.659700073301792144775390625</LongitudeDegrees>
            </Position>
            <AltitudeMeters>618.20001220703125</AltitudeMeters>
            <DistanceMeters>NAN</DistanceMeters>
          </Trackpoint>
          <Trackpoint>
            <Time>2019-10-05T12:26:39.000Z</Time>
            <Position>
              <LatitudeDegrees>41.93800217472016811370849609375</LatitudeDegrees>
              <LongitudeDegrees>-5.66001011990010738372802734375</LongitudeDegrees>
            </Position>
            <AltitudeMeters>618</AltitudeMeters>
            <DistanceMeters>NAN</DistanceMeters>
          </Trackpoint>
          <Trackpoint>
            <Time>2019-10-05T12:26:49.000Z</Time>
            <Position>
              <LatitudeDegrees>41.93744662217795848846435546875</LatitudeDegrees>
              <LongitudeDegrees>-5.66060255281627178192138671875</LongitudeDegrees>
            </Position>
            <AltitudeMeters>618.20001220703125</AltitudeMeters>
            <DistanceMeters>NAN</DistanceMeters>
          </Trackpoint>
          <Trackpoint>
            <Time>2019-10-05T12:26:54.000Z</Time>
            <Position>
              <LatitudeDegrees>41.93718443624675273895263671875</LatitudeDegrees>
              <LongitudeDegrees>-5.66086113452911376953125</LongitudeDegrees>
            </Position>
            <AltitudeMeters>619</AltitudeMeters>
            <DistanceMeters>NAN</DistanceMeters>
          </Trackpoint>
          <Trackpoint>
            <Time>2019-10-05T12:26:57.000Z</Time>
            <Position>
              <LatitudeDegrees>41.937032304704189300537109375</LatitudeDegrees>
              <LongitudeDegrees>-5.66101871430873870849609375</LongitudeDegrees>
            </Position>
            <AltitudeMeters>618.79998779296875</AltitudeMeters>
            <DistanceMeters>NAN</DistanceMeters>
          </Trackpoint>
          <Trackpoint>
            <Time>2019-10-05T12:27:06.000Z</Time>
            <Position>
              <LatitudeDegrees>41.93659518845379352569580078125</LatitudeDegrees>
              <LongitudeDegrees>-5.66148801706731319427490234375</LongitudeDegrees>
            </Position>
            <AltitudeMeters>619.20001220703125</AltitudeMeters>
            <DistanceMeters>NAN</DistanceMeters>
          </Trackpoint>
          <Trackpoint>
            <Time>2019-10-05T12:27:07.000Z</Time>
            <Position>
              <LatitudeDegrees>41.936544142663478851318359375</LatitudeDegrees>
              <LongitudeDegrees>-5.6615362130105495452880859375</LongitudeDegrees>
            </Position>
            <AltitudeMeters>619.20001220703125</AltitudeMeters>
            <DistanceMeters>NAN</DistanceMeters>
          </Trackpoint>
          <Trackpoint>
            <Time>2019-10-05T12:27:08.000Z</Time>
            <Position>
              <LatitudeDegrees>41.9364963658154010772705078125</LatitudeDegrees>
              <LongitudeDegrees>-5.66158591769635677337646484375</LongitudeDegrees>
            </Position>
            <AltitudeMeters>619.20001220703125</AltitudeMeters>
            <DistanceMeters>NAN</DistanceMeters>
          </Trackpoint>
          <Trackpoint>
            <Time>2019-10-05T12:27:15.000Z</Time>
            <Position>
              <LatitudeDegrees>41.9361595809459686279296875</LatitudeDegrees>
              <LongitudeDegrees>-5.6619278155267238616943359375</LongitudeDegrees>
            </Position>
            <AltitudeMeters>619.79998779296875</AltitudeMeters>
            <DistanceMeters>NAN</DistanceMeters>
          </Trackpoint>
          <Trackpoint>
            <Time>2019-10-05T12:27:16.000Z</Time>
            <Position>
              <LatitudeDegrees>41.93611339665949344635009765625</LatitudeDegrees>
              <LongitudeDegrees>-5.66197735257446765899658203125</LongitudeDegrees>
            </Position>
            <AltitudeMeters>620.4000244140625</AltitudeMeters>
            <DistanceMeters>NAN</DistanceMeters>
          </Trackpoint>
          <Trackpoint>
            <Time>2019-10-05T12:27:24.000Z</Time>
            <Position>
              <LatitudeDegrees>41.93574375472962856292724609375</LatitudeDegrees>
              <LongitudeDegrees>-5.662356130778789520263671875</LongitudeDegrees>
            </Position>
            <AltitudeMeters>621.4000244140625</AltitudeMeters>
            <DistanceMeters>NAN</DistanceMeters>
          </Trackpoint>
          <Trackpoint>
            <Time>2019-10-05T12:27:27.000Z</Time>
            <Position>
              <LatitudeDegrees>41.9356070458889007568359375</LatitudeDegrees>
              <LongitudeDegrees>-5.66249803639948368072509765625</LongitudeDegrees>
            </Position>
            <AltitudeMeters>621.79998779296875</AltitudeMeters>
            <DistanceMeters>NAN</DistanceMeters>
          </Trackpoint>
          <Trackpoint>
            <Time>2019-10-05T12:27:37.000Z</Time>
            <Position>
              <LatitudeDegrees>41.935148052871227264404296875</LatitudeDegrees>
              <LongitudeDegrees>-5.66298200748860836029052734375</LongitudeDegrees>
            </Position>
            <AltitudeMeters>621</AltitudeMeters>
            <DistanceMeters>NAN</DistanceMeters>
          </Trackpoint>
          <Trackpoint>
            <Time>2019-10-05T12:27:38.000Z</Time>
            <Position>
              <LatitudeDegrees>41.93510337732732295989990234375</LatitudeDegrees>
              <LongitudeDegrees>-5.6630323827266693115234375</LongitudeDegrees>
            </Position>
            <AltitudeMeters>621</AltitudeMeters>
            <DistanceMeters>NAN</DistanceMeters>
          </Trackpoint>
          <Trackpoint>
            <Time>2019-10-05T12:27:46.000Z</Time>
            <Position>
              <LatitudeDegrees>41.934732310473918914794921875</LatitudeDegrees>
              <LongitudeDegrees>-5.66344837658107280731201171875</LongitudeDegrees>
            </Position>
            <AltitudeMeters>620.4000244140625</AltitudeMeters>
            <DistanceMeters>NAN</DistanceMeters>
          </Trackpoint>
          <Trackpoint>
            <Time>2019-10-05T12:27:47.000Z</Time>
            <Position>
              <LatitudeDegrees>41.93468629382550716400146484375</LatitudeDegrees>
              <LongitudeDegrees>-5.663500763475894927978515625</LongitudeDegrees>
            </Position>
            <AltitudeMeters>620</AltitudeMeters>
            <DistanceMeters>NAN</DistanceMeters>
          </Trackpoint>
          <Trackpoint>
            <Time>2019-10-05T12:27:54.000Z</Time>
            <Position>
              <LatitudeDegrees>41.93437851034104824066162109375</LatitudeDegrees>
              <LongitudeDegrees>-5.66391960717737674713134765625</LongitudeDegrees>
            </Position>
            <AltitudeMeters>619.79998779296875</AltitudeMeters>
            <DistanceMeters>NAN</DistanceMeters>
          </Trackpoint>
          <Trackpoint>
            <Time>2019-10-05T12:28:02.000Z</Time>
            <Position>
              <LatitudeDegrees>41.9340942800045013427734375</LatitudeDegrees>
              <LongitudeDegrees>-5.6644403748214244842529296875</LongitudeDegrees>
            </Position>
            <AltitudeMeters>619.5999755859375</AltitudeMeters>
            <DistanceMeters>NAN</DistanceMeters>
          </Trackpoint>
          <Trackpoint>
            <Time>2019-10-05T12:28:09.000Z</Time>
            <Position>
              <LatitudeDegrees>41.933818347752094268798828125</LatitudeDegrees>
              <LongitudeDegrees>-5.66481999121606349945068359375</LongitudeDegrees>
            </Position>
            <AltitudeMeters>620.5999755859375</AltitudeMeters>
            <DistanceMeters>NAN</DistanceMeters>
          </Trackpoint>
          <Trackpoint>
            <Time>2019-10-05T12:28:13.000Z</Time>
            <Position>
              <LatitudeDegrees>41.93359698168933391571044921875</LatitudeDegrees>
              <LongitudeDegrees>-5.66493415273725986480712890625</LongitudeDegrees>
            </Position>
            <AltitudeMeters>620</AltitudeMeters>
            <DistanceMeters>NAN</DistanceMeters>
          </Trackpoint>
          <Trackpoint>
            <Time>2019-10-05T12:28:14.000Z</Time>
            <Position>
              <LatitudeDegrees>41.93353914655745029449462890625</LatitudeDegrees>
              <LongitudeDegrees>-5.66494655795395374298095703125</LongitudeDegrees>
            </Position>
            <AltitudeMeters>620.20001220703125</AltitudeMeters>
            <DistanceMeters>NAN</DistanceMeters>
          </Trackpoint>
          <Trackpoint>
            <Time>2019-10-05T12:28:20.000Z</Time>
            <Position>
              <LatitudeDegrees>41.93319733254611492156982421875</LatitudeDegrees>
              <LongitudeDegrees>-5.66504026763141155242919921875</LongitudeDegrees>
            </Position>
            <AltitudeMeters>619.5999755859375</AltitudeMeters>
            <DistanceMeters>NAN</DistanceMeters>
          </Trackpoint>
          <Trackpoint>
            <Time>2019-10-05T12:28:29.000Z</Time>
            <Position>
              <LatitudeDegrees>41.93269458599388599395751953125</LatitudeDegrees>
              <LongitudeDegrees>-5.66518510691821575164794921875</LongitudeDegrees>
            </Position>
            <AltitudeMeters>620</AltitudeMeters>
            <DistanceMeters>NAN</DistanceMeters>
          </Trackpoint>
          <Trackpoint>
            <Time>2019-10-05T12:28:34.000Z</Time>
            <Position>
              <LatitudeDegrees>41.932419240474700927734375</LatitudeDegrees>
              <LongitudeDegrees>-5.665288455784320831298828125</LongitudeDegrees>
            </Position>
            <AltitudeMeters>619.5999755859375</AltitudeMeters>
            <DistanceMeters>NAN</DistanceMeters>
          </Trackpoint>
          <Trackpoint>
            <Time>2019-10-05T12:28:35.000Z</Time>
            <Position>
              <LatitudeDegrees>41.93236551247537136077880859375</LatitudeDegrees>
              <LongitudeDegrees>-5.6653194688260555267333984375</LongitudeDegrees>
            </Position>
            <AltitudeMeters>620.20001220703125</AltitudeMeters>
            <DistanceMeters>NAN</DistanceMeters>
          </Trackpoint>
          <Trackpoint>
            <Time>2019-10-05T12:28:43.000Z</Time>
            <Position>
              <LatitudeDegrees>41.93193702958524227142333984375</LatitudeDegrees>
              <LongitudeDegrees>-5.66555324010550975799560546875</LongitudeDegrees>
            </Position>
            <AltitudeMeters>620</AltitudeMeters>
            <DistanceMeters>NAN</DistanceMeters>
          </Trackpoint>
          <Trackpoint>
            <Time>2019-10-05T12:28:49.000Z</Time>
            <Position>
              <LatitudeDegrees>41.9315959699451923370361328125</LatitudeDegrees>
              <LongitudeDegrees>-5.6657355464994907379150390625</LongitudeDegrees>
            </Position>
            <AltitudeMeters>618.79998779296875</AltitudeMeters>
            <DistanceMeters>NAN</DistanceMeters>
          </Trackpoint>
          <Trackpoint>
            <Time>2019-10-05T12:28:51.000Z</Time>
            <Position>
              <LatitudeDegrees>41.93146797828376293182373046875</LatitudeDegrees>
              <LongitudeDegrees>-5.66580100916326045989990234375</LongitudeDegrees>
            </Position>
            <AltitudeMeters>617.79998779296875</AltitudeMeters>
            <DistanceMeters>NAN</DistanceMeters>
          </Trackpoint>
          <Trackpoint>
            <Time>2019-10-05T12:28:53.000Z</Time>
            <Position>
              <LatitudeDegrees>41.9313307665288448333740234375</LatitudeDegrees>
              <LongitudeDegrees>-5.66586680710315704345703125</LongitudeDegrees>
            </Position>
            <AltitudeMeters>617.4000244140625</AltitudeMeters>
            <DistanceMeters>NAN</DistanceMeters>
          </Trackpoint>
          <Trackpoint>
            <Time>2019-10-05T12:28:55.000Z</Time>
            <Position>
              <LatitudeDegrees>41.93118634633719921112060546875</LatitudeDegrees>
              <LongitudeDegrees>-5.6659360416233539581298828125</LongitudeDegrees>
            </Position>
            <AltitudeMeters>616</AltitudeMeters>
            <DistanceMeters>NAN</DistanceMeters>
          </Trackpoint>
          <Trackpoint>
            <Time>2019-10-05T12:28:58.000Z</Time>
            <Position>
              <LatitudeDegrees>41.93096120841801166534423828125</LatitudeDegrees>
              <LongitudeDegrees>-5.66604651510715484619140625</LongitudeDegrees>
            </Position>
            <AltitudeMeters>615</AltitudeMeters>
            <DistanceMeters>NAN</DistanceMeters>
          </Trackpoint>
          <Trackpoint>
            <Time>2019-10-05T12:28:59.000Z</Time>
            <Position>
              <LatitudeDegrees>41.93088308908045291900634765625</LatitudeDegrees>
              <LongitudeDegrees>-5.66608901135623455047607421875</LongitudeDegrees>
            </Position>
            <AltitudeMeters>614.79998779296875</AltitudeMeters>
            <DistanceMeters>NAN</DistanceMeters>
          </Trackpoint>
          <Trackpoint>
            <Time>2019-10-05T12:29:01.000Z</Time>
            <Position>
              <LatitudeDegrees>41.93072207272052764892578125</LatitudeDegrees>
              <LongitudeDegrees>-5.66617584787309169769287109375</LongitudeDegrees>
            </Position>
            <AltitudeMeters>613</AltitudeMeters>
            <DistanceMeters>NAN</DistanceMeters>
          </Trackpoint>
          <Trackpoint>
            <Time>2019-10-05T12:29:03.000Z</Time>
            <Position>
              <LatitudeDegrees>41.93055619485676288604736328125</LatitudeDegrees>
              <LongitudeDegrees>-5.66627894528210163116455078125</LongitudeDegrees>
            </Position>
            <AltitudeMeters>612</AltitudeMeters>
            <DistanceMeters>NAN</DistanceMeters>
          </Trackpoint>
          <Trackpoint>
            <Time>2019-10-05T12:29:04.000Z</Time>
            <Position>
              <LatitudeDegrees>41.93047237582504749298095703125</LatitudeDegrees>
              <LongitudeDegrees>-5.66633485257625579833984375</LongitudeDegrees>
            </Position>
            <AltitudeMeters>611.5999755859375</AltitudeMeters>
            <DistanceMeters>NAN</DistanceMeters>
          </Trackpoint>
          <Trackpoint>
            <Time>2019-10-05T12:29:05.000Z</Time>
            <Position>
              <LatitudeDegrees>41.93038813769817352294921875</LatitudeDegrees>
              <LongitudeDegrees>-5.66639721393585205078125</LongitudeDegrees>
            </Position>
            <AltitudeMeters>611</AltitudeMeters>
            <DistanceMeters>NAN</DistanceMeters>
          </Trackpoint>
          <Trackpoint>
            <Time>2019-10-05T12:29:07.000Z</Time>
            <Position>
              <LatitudeDegrees>41.9302166439592838287353515625</LatitudeDegrees>
              <LongitudeDegrees>-5.6665298156440258026123046875</LongitudeDegrees>
            </Position>
            <AltitudeMeters>609.5999755859375</AltitudeMeters>
            <DistanceMeters>NAN</DistanceMeters>
          </Trackpoint>
          <Trackpoint>
            <Time>2019-10-05T12:29:09.000Z</Time>
            <Position>
              <LatitudeDegrees>41.9300459884107112884521484375</LatitudeDegrees>
              <LongitudeDegrees>-5.666682533919811248779296875</LongitudeDegrees>
            </Position>
            <AltitudeMeters>608.20001220703125</AltitudeMeters>
            <DistanceMeters>NAN</DistanceMeters>
          </Trackpoint>
          <Trackpoint>
            <Time>2019-10-05T12:29:10.000Z</Time>
            <Position>
              <LatitudeDegrees>41.92995965480804443359375</LatitudeDegrees>
              <LongitudeDegrees>-5.6667598150670528411865234375</LongitudeDegrees>
            </Position>
            <AltitudeMeters>607.20001220703125</AltitudeMeters>
            <DistanceMeters>NAN</DistanceMeters>
          </Trackpoint>
          <Trackpoint>
            <Time>2019-10-05T12:29:12.000Z</Time>
            <Position>
              <LatitudeDegrees>41.92979193292558193206787109375</LatitudeDegrees>
              <LongitudeDegrees>-5.666930973529815673828125</LongitudeDegrees>
            </Position>
            <AltitudeMeters>606.4000244140625</AltitudeMeters>
            <DistanceMeters>NAN</DistanceMeters>
          </Trackpoint>
          <Trackpoint>
            <Time>2019-10-05T12:29:13.000Z</Time>
            <Position>
              <LatitudeDegrees>41.92970861680805683135986328125</LatitudeDegrees>
              <LongitudeDegrees>-5.66702191717922687530517578125</LongitudeDegrees>
            </Position>
            <AltitudeMeters>605.5999755859375</AltitudeMeters>
            <DistanceMeters>NAN</DistanceMeters>
          </Trackpoint>
          <Trackpoint>
            <Time>2019-10-05T12:29:15.000Z</Time>
            <Position>
              <LatitudeDegrees>41.92955070175230503082275390625</LatitudeDegrees>
              <LongitudeDegrees>-5.66720950417220592498779296875</LongitudeDegrees>
            </Position>
            <AltitudeMeters>604.20001220703125</AltitudeMeters>
            <DistanceMeters>NAN</DistanceMeters>
          </Trackpoint>
          <Trackpoint>
            <Time>2019-10-05T12:29:16.000Z</Time>
            <Position>
              <LatitudeDegrees>41.9294776953756809234619140625</LatitudeDegrees>
              <LongitudeDegrees>-5.66730321384966373443603515625</LongitudeDegrees>
            </Position>
            <AltitudeMeters>604</AltitudeMeters>
            <DistanceMeters>NAN</DistanceMeters>
          </Trackpoint>
          <Trackpoint>
            <Time>2019-10-05T12:29:18.000Z</Time>
            <Position>
              <LatitudeDegrees>41.92933528684079647064208984375</LatitudeDegrees>
              <LongitudeDegrees>-5.66749365068972110748291015625</LongitudeDegrees>
            </Position>
            <AltitudeMeters>603</AltitudeMeters>
            <DistanceMeters>NAN</DistanceMeters>
          </Trackpoint>
          <Trackpoint>
            <Time>2019-10-05T12:29:22.000Z</Time>
            <Position>
              <LatitudeDegrees>41.92909128963947296142578125</LatitudeDegrees>
              <LongitudeDegrees>-5.667884163558483123779296875</LongitudeDegrees>
            </Position>
            <AltitudeMeters>602.79998779296875</AltitudeMeters>
            <DistanceMeters>NAN</DistanceMeters>
          </Trackpoint>
          <Trackpoint>
            <Time>2019-10-05T12:29:29.000Z</Time>
            <Position>
              <LatitudeDegrees>41.92874872125685214996337890625</LatitudeDegrees>
              <LongitudeDegrees>-5.66852663643658161163330078125</LongitudeDegrees>
            </Position>
            <AltitudeMeters>602.79998779296875</AltitudeMeters>
            <DistanceMeters>NAN</DistanceMeters>
          </Trackpoint>
          <Trackpoint>
            <Time>2019-10-05T12:29:30.000Z</Time>
            <Position>
              <LatitudeDegrees>41.92870798520743846893310546875</LatitudeDegrees>
              <LongitudeDegrees>-5.6686115451157093048095703125</LongitudeDegrees>
            </Position>
            <AltitudeMeters>601.79998779296875</AltitudeMeters>
            <DistanceMeters>NAN</DistanceMeters>
          </Trackpoint>
          <Trackpoint>
            <Time>2019-10-05T12:29:35.000Z</Time>
            <Position>
              <LatitudeDegrees>41.92852861247956752777099609375</LatitudeDegrees>
              <LongitudeDegrees>-5.6690172292292118072509765625</LongitudeDegrees>
            </Position>
            <AltitudeMeters>603.20001220703125</AltitudeMeters>
            <DistanceMeters>NAN</DistanceMeters>
          </Trackpoint>
          <Trackpoint>
            <Time>2019-10-05T12:29:36.000Z</Time>
            <Position>
              <LatitudeDegrees>41.92849508486688137054443359375</LatitudeDegrees>
              <LongitudeDegrees>-5.6690943427383899688720703125</LongitudeDegrees>
            </Position>
            <AltitudeMeters>603.20001220703125</AltitudeMeters>
            <DistanceMeters>NAN</DistanceMeters>
          </Trackpoint>
          <Trackpoint>
            <Time>2019-10-05T12:29:40.000Z</Time>
            <Position>
              <LatitudeDegrees>41.92836575210094451904296875</LatitudeDegrees>
              <LongitudeDegrees>-5.66939164884388446807861328125</LongitudeDegrees>
            </Position>
            <AltitudeMeters>604.20001220703125</AltitudeMeters>
            <DistanceMeters>NAN</DistanceMeters>
          </Trackpoint>
          <Trackpoint>
            <Time>2019-10-05T12:29:45.000Z</Time>
            <Position>
              <LatitudeDegrees>41.92820993252098560333251953125</LatitudeDegrees>
              <LongitudeDegrees>-5.66975659690797328948974609375</LongitudeDegrees>
            </Position>
            <AltitudeMeters>604.20001220703125</AltitudeMeters>
            <DistanceMeters>NAN</DistanceMeters>
          </Trackpoint>
          <Trackpoint>
            <Time>2019-10-05T12:29:53.000Z</Time>
            <Position>
              <LatitudeDegrees>41.927967108786106109619140625</LatitudeDegrees>
              <LongitudeDegrees>-5.67033830098807811737060546875</LongitudeDegrees>
            </Position>
            <AltitudeMeters>604.20001220703125</AltitudeMeters>
            <DistanceMeters>NAN</DistanceMeters>
          </Trackpoint>
          <Trackpoint>
            <Time>2019-10-05T12:29:55.000Z</Time>
            <Position>
              <LatitudeDegrees>41.92790583707392215728759765625</LatitudeDegrees>
              <LongitudeDegrees>-5.67048112861812114715576171875</LongitudeDegrees>
            </Position>
            <AltitudeMeters>603.79998779296875</AltitudeMeters>
            <DistanceMeters>NAN</DistanceMeters>
          </Trackpoint>
          <Trackpoint>
            <Time>2019-10-05T12:29:59.000Z</Time>
            <Position>
              <LatitudeDegrees>41.927787400782108306884765625</LatitudeDegrees>
              <LongitudeDegrees>-5.67076527513563632965087890625</LongitudeDegrees>
            </Position>
            <AltitudeMeters>603.79998779296875</AltitudeMeters>
            <DistanceMeters>NAN</DistanceMeters>
          </Trackpoint>
          <Trackpoint>
            <Time>2019-10-05T12:30:05.000Z</Time>
            <Position>
              <LatitudeDegrees>41.92760576494038105010986328125</LatitudeDegrees>
              <LongitudeDegrees>-5.6711921654641628265380859375</LongitudeDegrees>
            </Position>
            <AltitudeMeters>603.79998779296875</AltitudeMeters>
            <DistanceMeters>NAN</DistanceMeters>
          </Trackpoint>
          <Trackpoint>
            <Time>2019-10-05T12:30:09.000Z</Time>
            <Position>
              <LatitudeDegrees>41.92748129367828369140625</LatitudeDegrees>
              <LongitudeDegrees>-5.67147455178201198577880859375</LongitudeDegrees>
            </Position>
            <AltitudeMeters>603.79998779296875</AltitudeMeters>
            <DistanceMeters>NAN</DistanceMeters>
          </Trackpoint>
          <Trackpoint>
            <Time>2019-10-05T12:30:10.000Z</Time>
            <Position>
              <LatitudeDegrees>41.927448771893978118896484375</LatitudeDegrees>
              <LongitudeDegrees>-5.671545378863811492919921875</LongitudeDegrees>
            </Position>
            <AltitudeMeters>603.20001220703125</AltitudeMeters>
            <DistanceMeters>NAN</DistanceMeters>
          </Trackpoint>
          <Trackpoint>
            <Time>2019-10-05T12:30:14.000Z</Time>
            <Position>
              <LatitudeDegrees>41.9273285754024982452392578125</LatitudeDegrees>
              <LongitudeDegrees>-5.6718248315155506134033203125</LongitudeDegrees>
            </Position>
            <AltitudeMeters>603</AltitudeMeters>
            <DistanceMeters>NAN</DistanceMeters>
          </Trackpoint>
          <Trackpoint>
            <Time>2019-10-05T12:30:23.000Z</Time>
            <Position>
              <LatitudeDegrees>41.92705842666327953338623046875</LatitudeDegrees>
              <LongitudeDegrees>-5.6724628619849681854248046875</LongitudeDegrees>
            </Position>
            <AltitudeMeters>603.5999755859375</AltitudeMeters>
            <DistanceMeters>NAN</DistanceMeters>
          </Trackpoint>
          <Trackpoint>
            <Time>2019-10-05T12:30:26.000Z</Time>
            <Position>
              <LatitudeDegrees>41.9269624538719654083251953125</LatitudeDegrees>
              <LongitudeDegrees>-5.67268204875290393829345703125</LongitudeDegrees>
            </Position>
            <AltitudeMeters>604.20001220703125</AltitudeMeters>
            <DistanceMeters>NAN</DistanceMeters>
          </Trackpoint>
          <Trackpoint>
            <Time>2019-10-05T12:30:33.000Z</Time>
            <Position>
              <LatitudeDegrees>41.92674343474209308624267578125</LatitudeDegrees>
              <LongitudeDegrees>-5.673174820840358734130859375</LongitudeDegrees>
            </Position>
            <AltitudeMeters>604.4000244140625</AltitudeMeters>
            <DistanceMeters>NAN</DistanceMeters>
          </Trackpoint>
          <Trackpoint>
            <Time>2019-10-05T12:30:39.000Z</Time>
            <Position>
              <LatitudeDegrees>41.92655215971171855926513671875</LatitudeDegrees>
              <LongitudeDegrees>-5.67356742918491363525390625</LongitudeDegrees>
            </Position>
            <AltitudeMeters>605.20001220703125</AltitudeMeters>
            <DistanceMeters>NAN</DistanceMeters>
          </Trackpoint>
          <Trackpoint>
            <Time>2019-10-05T12:30:41.000Z</Time>
            <Position>
              <LatitudeDegrees>41.926478482782840728759765625</LatitudeDegrees>
              <LongitudeDegrees>-5.6736983545124530792236328125</LongitudeDegrees>
            </Position>
            <AltitudeMeters>605.20001220703125</AltitudeMeters>
            <DistanceMeters>NAN</DistanceMeters>
          </Trackpoint>
          <Trackpoint>
            <Time>2019-10-05T12:30:49.000Z</Time>
            <Position>
              <LatitudeDegrees>41.92614630796015262603759765625</LatitudeDegrees>
              <LongitudeDegrees>-5.674228258430957794189453125</LongitudeDegrees>
            </Position>
            <AltitudeMeters>604.79998779296875</AltitudeMeters>
            <DistanceMeters>NAN</DistanceMeters>
          </Trackpoint>
          <Trackpoint>
            <Time>2019-10-05T12:30:53.000Z</Time>
            <Position>
              <LatitudeDegrees>41.92595603875815868377685546875</LatitudeDegrees>
              <LongitudeDegrees>-5.67448583431541919708251953125</LongitudeDegrees>
            </Position>
            <AltitudeMeters>604.20001220703125</AltitudeMeters>
            <DistanceMeters>NAN</DistanceMeters>
          </Trackpoint>
          <Trackpoint>
            <Time>2019-10-05T12:30:56.000Z</Time>
            <Position>
              <LatitudeDegrees>41.9258062541484832763671875</LatitudeDegrees>
              <LongitudeDegrees>-5.67465640604496002197265625</LongitudeDegrees>
            </Position>
            <AltitudeMeters>605</AltitudeMeters>
            <DistanceMeters>NAN</DistanceMeters>
          </Trackpoint>
          <Trackpoint>
            <Time>2019-10-05T12:30:57.000Z</Time>
            <Position>
              <LatitudeDegrees>41.9257537834346294403076171875</LatitudeDegrees>
              <LongitudeDegrees>-5.67470963113009929656982421875</LongitudeDegrees>
            </Position>
            <AltitudeMeters>605.4000244140625</AltitudeMeters>
            <DistanceMeters>NAN</DistanceMeters>
          </Trackpoint>
          <Trackpoint>
            <Time>2019-10-05T12:31:05.000Z</Time>
            <Position>
              <LatitudeDegrees>41.92533192224800586700439453125</LatitudeDegrees>
              <LongitudeDegrees>-5.67511506378650665283203125</LongitudeDegrees>
            </Position>
            <AltitudeMeters>604.20001220703125</AltitudeMeters>
            <DistanceMeters>NAN</DistanceMeters>
          </Trackpoint>
          <Trackpoint>
            <Time>2019-10-05T12:31:14.000Z</Time>
            <Position>
              <LatitudeDegrees>41.924863122403621673583984375</LatitudeDegrees>
              <LongitudeDegrees>-5.67548797465860843658447265625</LongitudeDegrees>
            </Position>
            <AltitudeMeters>605</AltitudeMeters>
            <DistanceMeters>NAN</DistanceMeters>
          </Trackpoint>
          <Trackpoint>
            <Time>2019-10-05T12:31:15.000Z</Time>
            <Position>
              <LatitudeDegrees>41.9248119927942752838134765625</LatitudeDegrees>
              <LongitudeDegrees>-5.6755279563367366790771484375</LongitudeDegrees>
            </Position>
            <AltitudeMeters>605</AltitudeMeters>
            <DistanceMeters>NAN</DistanceMeters>
          </Trackpoint>
          <Trackpoint>
            <Time>2019-10-05T12:31:21.000Z</Time>
            <Position>
              <LatitudeDegrees>41.924505718052387237548828125</LatitudeDegrees>
              <LongitudeDegrees>-5.67575602792203426361083984375</LongitudeDegrees>
            </Position>
            <AltitudeMeters>605.4000244140625</AltitudeMeters>
            <DistanceMeters>NAN</DistanceMeters>
          </Trackpoint>
          <Trackpoint>
            <Time>2019-10-05T12:31:22.000Z</Time>
            <Position>
              <LatitudeDegrees>41.92445517517626285552978515625</LatitudeDegrees>
              <LongitudeDegrees>-5.67579424940049648284912109375</LongitudeDegrees>
            </Position>
            <AltitudeMeters>605.5999755859375</AltitudeMeters>
            <DistanceMeters>NAN</DistanceMeters>
          </Trackpoint>
          <Trackpoint>
            <Time>2019-10-05T12:31:30.000Z</Time>
            <Position>
              <LatitudeDegrees>41.92404831759631633758544921875</LatitudeDegrees>
              <LongitudeDegrees>-5.676120556890964508056640625</LongitudeDegrees>
            </Position>
            <AltitudeMeters>604.79998779296875</AltitudeMeters>
            <DistanceMeters>NAN</DistanceMeters>
          </Trackpoint>
          <Trackpoint>
            <Time>2019-10-05T12:31:32.000Z</Time>
            <Position>
              <LatitudeDegrees>41.9239429570734500885009765625</LatitudeDegrees>
              <LongitudeDegrees>-5.67620135843753814697265625</LongitudeDegrees>
            </Position>
            <AltitudeMeters>604.4000244140625</AltitudeMeters>
            <DistanceMeters>NAN</DistanceMeters>
          </Trackpoint>
          <Trackpoint>
            <Time>2019-10-05T12:31:38.000Z</Time>
            <Position>
              <LatitudeDegrees>41.9236257858574390411376953125</LatitudeDegrees>
              <LongitudeDegrees>-5.6764469482004642486572265625</LongitudeDegrees>
            </Position>
            <AltitudeMeters>604.5999755859375</AltitudeMeters>
            <DistanceMeters>NAN</DistanceMeters>
          </Trackpoint>
          <Trackpoint>
            <Time>2019-10-05T12:31:47.000Z</Time>
            <Position>
              <LatitudeDegrees>41.9231547228991985321044921875</LatitudeDegrees>
              <LongitudeDegrees>-5.67680611275136470794677734375</LongitudeDegrees>
            </Position>
            <AltitudeMeters>605</AltitudeMeters>
            <DistanceMeters>NAN</DistanceMeters>
          </Trackpoint>
          <Trackpoint>
            <Time>2019-10-05T12:31:48.000Z</Time>
            <Position>
              <LatitudeDegrees>41.92310317419469356536865234375</LatitudeDegrees>
              <LongitudeDegrees>-5.67684466950595378875732421875</LongitudeDegrees>
            </Position>
            <AltitudeMeters>605</AltitudeMeters>
            <DistanceMeters>NAN</DistanceMeters>
          </Trackpoint>
          <Trackpoint>
            <Time>2019-10-05T12:31:56.000Z</Time>
            <Position>
              <LatitudeDegrees>41.92268558777868747711181640625</LatitudeDegrees>
              <LongitudeDegrees>-5.67717407830059528350830078125</LongitudeDegrees>
            </Position>
            <AltitudeMeters>604.4000244140625</AltitudeMeters>
            <DistanceMeters>NAN</DistanceMeters>
          </Trackpoint>
          <Trackpoint>
            <Time>2019-10-05T12:32:05.000Z</Time>
            <Position>
              <LatitudeDegrees>41.9222186319530010223388671875</LatitudeDegrees>
              <LongitudeDegrees>-5.6775345839560031890869140625</LongitudeDegrees>
            </Position>
            <AltitudeMeters>604.20001220703125</AltitudeMeters>
            <DistanceMeters>NAN</DistanceMeters>
          </Trackpoint>
          <Trackpoint>
            <Time>2019-10-05T12:32:07.000Z</Time>
            <Position>
              <LatitudeDegrees>41.9221157021820545196533203125</LatitudeDegrees>
              <LongitudeDegrees>-5.67761496640741825103759765625</LongitudeDegrees>
            </Position>
            <AltitudeMeters>604.4000244140625</AltitudeMeters>
            <DistanceMeters>NAN</DistanceMeters>
          </Trackpoint>
          <Trackpoint>
            <Time>2019-10-05T12:32:16.000Z</Time>
            <Position>
              <LatitudeDegrees>41.9216479919850826263427734375</LatitudeDegrees>
              <LongitudeDegrees>-5.67797807045280933380126953125</LongitudeDegrees>
            </Position>
            <AltitudeMeters>605.20001220703125</AltitudeMeters>
            <DistanceMeters>NAN</DistanceMeters>
          </Trackpoint>
          <Trackpoint>
            <Time>2019-10-05T12:32:19.000Z</Time>
            <Position>
              <LatitudeDegrees>41.92149032838642597198486328125</LatitudeDegrees>
              <LongitudeDegrees>-5.67809809930622577667236328125</LongitudeDegrees>
            </Position>
            <AltitudeMeters>605.5999755859375</AltitudeMeters>
            <DistanceMeters>NAN</DistanceMeters>
          </Trackpoint>
          <Trackpoint>
            <Time>2019-10-05T12:32:24.000Z</Time>
            <Position>
              <LatitudeDegrees>41.92122747190296649932861328125</LatitudeDegrees>
              <LongitudeDegrees>-5.67830647341907024383544921875</LongitudeDegrees>
            </Position>
            <AltitudeMeters>604.79998779296875</AltitudeMeters>
            <DistanceMeters>NAN</DistanceMeters>
          </Trackpoint>
          <Trackpoint>
            <Time>2019-10-05T12:32:31.000Z</Time>
            <Position>
              <LatitudeDegrees>41.92085196264088153839111328125</LatitudeDegrees>
              <LongitudeDegrees>-5.67859497852623462677001953125</LongitudeDegrees>
            </Position>
            <AltitudeMeters>604.4000244140625</AltitudeMeters>
            <DistanceMeters>NAN</DistanceMeters>
          </Trackpoint>
          <Trackpoint>
            <Time>2019-10-05T12:32:35.000Z</Time>
            <Position>
              <LatitudeDegrees>41.9206475280225276947021484375</LatitudeDegrees>
              <LongitudeDegrees>-5.678770579397678375244140625</LongitudeDegrees>
            </Position>
            <AltitudeMeters>604.4000244140625</AltitudeMeters>
            <DistanceMeters>NAN</DistanceMeters>
          </Trackpoint>
          <Trackpoint>
            <Time>2019-10-05T12:32:40.000Z</Time>
            <Position>
              <LatitudeDegrees>41.92042683251202106475830078125</LatitudeDegrees>
              <LongitudeDegrees>-5.67901206202805042266845703125</LongitudeDegrees>
            </Position>
            <AltitudeMeters>605.79998779296875</AltitudeMeters>
            <DistanceMeters>NAN</DistanceMeters>
          </Trackpoint>
          <Trackpoint>
            <Time>2019-10-05T12:32:41.000Z</Time>
            <Position>
              <LatitudeDegrees>41.9203846715390682220458984375</LatitudeDegrees>
              <LongitudeDegrees>-5.67906017415225505828857421875</LongitudeDegrees>
            </Position>
            <AltitudeMeters>605.79998779296875</AltitudeMeters>
            <DistanceMeters>NAN</DistanceMeters>
          </Trackpoint>
          <Trackpoint>
            <Time>2019-10-05T12:32:50.000Z</Time>
            <Position>
              <LatitudeDegrees>41.92003455944359302520751953125</LatitudeDegrees>
              <LongitudeDegrees>-5.67946560680866241455078125</LongitudeDegrees>
            </Position>
            <AltitudeMeters>606.5999755859375</AltitudeMeters>
            <DistanceMeters>NAN</DistanceMeters>
          </Trackpoint>
          <Trackpoint>
            <Time>2019-10-05T12:32:54.000Z</Time>
            <Position>
              <LatitudeDegrees>41.91987412981688976287841796875</LatitudeDegrees>
              <LongitudeDegrees>-5.67964171059429645538330078125</LongitudeDegrees>
            </Position>
            <AltitudeMeters>607.20001220703125</AltitudeMeters>
            <DistanceMeters>NAN</DistanceMeters>
          </Trackpoint>
          <Trackpoint>
            <Time>2019-10-05T12:32:59.000Z</Time>
            <Position>
              <LatitudeDegrees>41.91967631690204143524169921875</LatitudeDegrees>
              <LongitudeDegrees>-5.67987975664436817169189453125</LongitudeDegrees>
            </Position>
            <AltitudeMeters>606.5999755859375</AltitudeMeters>
            <DistanceMeters>NAN</DistanceMeters>
          </Trackpoint>
          <Trackpoint>
            <Time>2019-10-05T12:33:06.000Z</Time>
            <Position>
              <LatitudeDegrees>41.91939870826900005340576171875</LatitudeDegrees>
              <LongitudeDegrees>-5.68020497448742389678955078125</LongitudeDegrees>
            </Position>
            <AltitudeMeters>607</AltitudeMeters>
            <DistanceMeters>NAN</DistanceMeters>
          </Trackpoint>
          <Trackpoint>
            <Time>2019-10-05T12:33:10.000Z</Time>
            <Position>
              <LatitudeDegrees>41.91926023922860622406005859375</LatitudeDegrees>
              <LongitudeDegrees>-5.6804239936172962188720703125</LongitudeDegrees>
            </Position>
            <AltitudeMeters>606</AltitudeMeters>
            <DistanceMeters>NAN</DistanceMeters>
          </Trackpoint>
          <Trackpoint>
            <Time>2019-10-05T12:33:14.000Z</Time>
            <Position>
              <LatitudeDegrees>41.9191361032426357269287109375</LatitudeDegrees>
              <LongitudeDegrees>-5.680653154850006103515625</LongitudeDegrees>
            </Position>
            <AltitudeMeters>606.20001220703125</AltitudeMeters>
            <DistanceMeters>NAN</DistanceMeters>
          </Trackpoint>
          <Trackpoint>
            <Time>2019-10-05T12:33:19.000Z</Time>
            <Position>
              <LatitudeDegrees>41.9189768470823764801025390625</LatitudeDegrees>
              <LongitudeDegrees>-5.68094241432845592498779296875</LongitudeDegrees>
            </Position>
            <AltitudeMeters>606.5999755859375</AltitudeMeters>
            <DistanceMeters>NAN</DistanceMeters>
          </Trackpoint>
          <Trackpoint>
            <Time>2019-10-05T12:33:20.000Z</Time>
            <Position>
              <LatitudeDegrees>41.91894139163196086883544921875</LatitudeDegrees>
              <LongitudeDegrees>-5.68100242875516414642333984375</LongitudeDegrees>
            </Position>
            <AltitudeMeters>606.4000244140625</AltitudeMeters>
            <DistanceMeters>NAN</DistanceMeters>
          </Trackpoint>
          <Trackpoint>
            <Time>2019-10-05T12:33:26.000Z</Time>
            <Position>
              <LatitudeDegrees>41.9186978973448276519775390625</LatitudeDegrees>
              <LongitudeDegrees>-5.6813392974436283111572265625</LongitudeDegrees>
            </Position>
            <AltitudeMeters>605.79998779296875</AltitudeMeters>
            <DistanceMeters>NAN</DistanceMeters>
          </Trackpoint>
          <Trackpoint>
            <Time>2019-10-05T12:33:30.000Z</Time>
            <Position>
              <LatitudeDegrees>41.91850469447672367095947265625</LatitudeDegrees>
              <LongitudeDegrees>-5.68153283558785915374755859375</LongitudeDegrees>
            </Position>
            <AltitudeMeters>605.79998779296875</AltitudeMeters>
            <DistanceMeters>NAN</DistanceMeters>
          </Trackpoint>
          <Trackpoint>
            <Time>2019-10-05T12:33:32.000Z</Time>
            <Position>
              <LatitudeDegrees>41.91841215826570987701416015625</LatitudeDegrees>
              <LongitudeDegrees>-5.68161698989570140838623046875</LongitudeDegrees>
            </Position>
            <AltitudeMeters>605.5999755859375</AltitudeMeters>
            <DistanceMeters>NAN</DistanceMeters>
          </Trackpoint>
          <Trackpoint>
            <Time>2019-10-05T12:33:42.000Z</Time>
            <Position>
              <LatitudeDegrees>41.9179205596446990966796875</LatitudeDegrees>
              <LongitudeDegrees>-5.682030133903026580810546875</LongitudeDegrees>
            </Position>
            <AltitudeMeters>606</AltitudeMeters>
            <DistanceMeters>NAN</DistanceMeters>
          </Trackpoint>
          <Trackpoint>
            <Time>2019-10-05T12:33:47.000Z</Time>
            <Position>
              <LatitudeDegrees>41.9176764786243438720703125</LatitudeDegrees>
              <LongitudeDegrees>-5.68222668953239917755126953125</LongitudeDegrees>
            </Position>
            <AltitudeMeters>604.79998779296875</AltitudeMeters>
            <DistanceMeters>NAN</DistanceMeters>
          </Trackpoint>
          <Trackpoint>
            <Time>2019-10-05T12:33:52.000Z</Time>
            <Position>
              <LatitudeDegrees>41.91743801347911357879638671875</LatitudeDegrees>
              <LongitudeDegrees>-5.6824165396392345428466796875</LongitudeDegrees>
            </Position>
            <AltitudeMeters>605.5999755859375</AltitudeMeters>
            <DistanceMeters>NAN</DistanceMeters>
          </Trackpoint>
          <Trackpoint>
            <Time>2019-10-05T12:33:54.000Z</Time>
            <Position>
              <LatitudeDegrees>41.91734631545841693878173828125</LatitudeDegrees>
              <LongitudeDegrees>-5.6824936531484127044677734375</LongitudeDegrees>
            </Position>
            <AltitudeMeters>606</AltitudeMeters>
            <DistanceMeters>NAN</DistanceMeters>
          </Trackpoint>
          <Trackpoint>
            <Time>2019-10-05T12:34:04.000Z</Time>
            <Position>
              <LatitudeDegrees>41.91689503379166126251220703125</LatitudeDegrees>
              <LongitudeDegrees>-5.68286924622952938079833984375</LongitudeDegrees>
            </Position>
            <AltitudeMeters>605</AltitudeMeters>
            <DistanceMeters>NAN</DistanceMeters>
          </Trackpoint>
          <Trackpoint>
            <Time>2019-10-05T12:34:11.000Z</Time>
            <Position>
              <LatitudeDegrees>41.9165809638798236846923828125</LatitudeDegrees>
              <LongitudeDegrees>-5.683129169046878814697265625</LongitudeDegrees>
            </Position>
            <AltitudeMeters>604.20001220703125</AltitudeMeters>
            <DistanceMeters>NAN</DistanceMeters>
          </Trackpoint>
          <Trackpoint>
            <Time>2019-10-05T12:34:14.000Z</Time>
            <Position>
              <LatitudeDegrees>41.9164458476006984710693359375</LatitudeDegrees>
              <LongitudeDegrees>-5.68323721177875995635986328125</LongitudeDegrees>
            </Position>
            <AltitudeMeters>605.4000244140625</AltitudeMeters>
            <DistanceMeters>NAN</DistanceMeters>
          </Trackpoint>
          <Trackpoint>
            <Time>2019-10-05T12:34:15.000Z</Time>
            <Position>
              <LatitudeDegrees>41.91640184260904788970947265625</LatitudeDegrees>
              <LongitudeDegrees>-5.6832751818001270294189453125</LongitudeDegrees>
            </Position>
            <AltitudeMeters>605.5999755859375</AltitudeMeters>
            <DistanceMeters>NAN</DistanceMeters>
          </Trackpoint>
          <Trackpoint>
            <Time>2019-10-05T12:34:25.000Z</Time>
            <Position>
              <LatitudeDegrees>41.915947459638118743896484375</LatitudeDegrees>
              <LongitudeDegrees>-5.68365446291863918304443359375</LongitudeDegrees>
            </Position>
            <AltitudeMeters>605.4000244140625</AltitudeMeters>
            <DistanceMeters>NAN</DistanceMeters>
          </Trackpoint>
          <Trackpoint>
            <Time>2019-10-05T12:34:35.000Z</Time>
            <Position>
              <LatitudeDegrees>41.915486119687557220458984375</LatitudeDegrees>
              <LongitudeDegrees>-5.68403215147554874420166015625</LongitudeDegrees>
            </Position>
            <AltitudeMeters>605.20001220703125</AltitudeMeters>
            <DistanceMeters>NAN</DistanceMeters>
          </Trackpoint>
          <Trackpoint>
            <Time>2019-10-05T12:34:36.000Z</Time>
            <Position>
              <LatitudeDegrees>41.91544077359139919281005859375</LatitudeDegrees>
              <LongitudeDegrees>-5.68407171405851840972900390625</LongitudeDegrees>
            </Position>
            <AltitudeMeters>605.20001220703125</AltitudeMeters>
            <DistanceMeters>NAN</DistanceMeters>
          </Trackpoint>
          <Trackpoint>
            <Time>2019-10-05T12:34:47.000Z</Time>
            <Position>
              <LatitudeDegrees>41.91495344974100589752197265625</LatitudeDegrees>
              <LongitudeDegrees>-5.6844828464090824127197265625</LongitudeDegrees>
            </Position>
            <AltitudeMeters>605.5999755859375</AltitudeMeters>
            <DistanceMeters>NAN</DistanceMeters>
          </Trackpoint>
          <Trackpoint>
            <Time>2019-10-05T12:34:56.000Z</Time>
            <Position>
              <LatitudeDegrees>41.91455296240746974945068359375</LatitudeDegrees>
              <LongitudeDegrees>-5.68481585942208766937255859375</LongitudeDegrees>
            </Position>
            <AltitudeMeters>605.79998779296875</AltitudeMeters>
            <DistanceMeters>NAN</DistanceMeters>
          </Trackpoint>
          <Trackpoint>
            <Time>2019-10-05T12:35:01.000Z</Time>
            <Position>
              <LatitudeDegrees>41.91433251835405826568603515625</LatitudeDegrees>
              <LongitudeDegrees>-5.68500042892992496490478515625</LongitudeDegrees>
            </Position>
            <AltitudeMeters>606.5999755859375</AltitudeMeters>
            <DistanceMeters>NAN</DistanceMeters>
          </Trackpoint>
          <Trackpoint>
            <Time>2019-10-05T12:35:07.000Z</Time>
            <Position>
              <LatitudeDegrees>41.9140580110251903533935546875</LatitudeDegrees>
              <LongitudeDegrees>-5.68523109890520572662353515625</LongitudeDegrees>
            </Position>
            <AltitudeMeters>606.5999755859375</AltitudeMeters>
            <DistanceMeters>NAN</DistanceMeters>
          </Trackpoint>
          <Trackpoint>
            <Time>2019-10-05T12:35:16.000Z</Time>
            <Position>
              <LatitudeDegrees>41.9136478006839752197265625</LatitudeDegrees>
              <LongitudeDegrees>-5.6855736672878265380859375</LongitudeDegrees>
            </Position>
            <AltitudeMeters>606.5999755859375</AltitudeMeters>
            <DistanceMeters>NAN</DistanceMeters>
          </Trackpoint>
          <Trackpoint>
            <Time>2019-10-05T12:35:26.000Z</Time>
            <Position>
              <LatitudeDegrees>41.913187466561794281005859375</LatitudeDegrees>
              <LongitudeDegrees>-5.685950852930545806884765625</LongitudeDegrees>
            </Position>
            <AltitudeMeters>607.20001220703125</AltitudeMeters>
            <DistanceMeters>NAN</DistanceMeters>
          </Trackpoint>
          <Trackpoint>
            <Time>2019-10-05T12:35:27.000Z</Time>
            <Position>
              <LatitudeDegrees>41.91314279101788997650146484375</LatitudeDegrees>
              <LongitudeDegrees>-5.68599184043705463409423828125</LongitudeDegrees>
            </Position>
            <AltitudeMeters>607.5999755859375</AltitudeMeters>
            <DistanceMeters>NAN</DistanceMeters>
          </Trackpoint>
          <Trackpoint>
            <Time>2019-10-05T12:35:35.000Z</Time>
            <Position>
              <LatitudeDegrees>41.912777759134769439697265625</LatitudeDegrees>
              <LongitudeDegrees>-5.6862943433225154876708984375</LongitudeDegrees>
            </Position>
            <AltitudeMeters>607.20001220703125</AltitudeMeters>
            <DistanceMeters>NAN</DistanceMeters>
          </Trackpoint>
          <Trackpoint>
            <Time>2019-10-05T12:35:45.000Z</Time>
            <Position>
              <LatitudeDegrees>41.91231809556484222412109375</LatitudeDegrees>
              <LongitudeDegrees>-5.68667815066874027252197265625</LongitudeDegrees>
            </Position>
            <AltitudeMeters>607.79998779296875</AltitudeMeters>
            <DistanceMeters>NAN</DistanceMeters>
          </Trackpoint>
          <Trackpoint>
            <Time>2019-10-05T12:35:53.000Z</Time>
            <Position>
              <LatitudeDegrees>41.911940239369869232177734375</LatitudeDegrees>
              <LongitudeDegrees>-5.68698895163834095001220703125</LongitudeDegrees>
            </Position>
            <AltitudeMeters>606.5999755859375</AltitudeMeters>
            <DistanceMeters>NAN</DistanceMeters>
          </Trackpoint>
          <Trackpoint>
            <Time>2019-10-05T12:35:58.000Z</Time>
            <Position>
              <LatitudeDegrees>41.91170076839625835418701171875</LatitudeDegrees>
              <LongitudeDegrees>-5.68719531409442424774169921875</LongitudeDegrees>
            </Position>
            <AltitudeMeters>607.5999755859375</AltitudeMeters>
            <DistanceMeters>NAN</DistanceMeters>
          </Trackpoint>
          <Trackpoint>
            <Time>2019-10-05T12:36:05.000Z</Time>
            <Position>
              <LatitudeDegrees>41.9113687612116336822509765625</LatitudeDegrees>
              <LongitudeDegrees>-5.6874738447368144989013671875</LongitudeDegrees>
            </Position>
            <AltitudeMeters>607.5999755859375</AltitudeMeters>
            <DistanceMeters>NAN</DistanceMeters>
          </Trackpoint>
          <Trackpoint>
            <Time>2019-10-05T12:36:14.000Z</Time>
            <Position>
              <LatitudeDegrees>41.9109503366053104400634765625</LatitudeDegrees>
              <LongitudeDegrees>-5.68781775422394275665283203125</LongitudeDegrees>
            </Position>
            <AltitudeMeters>607.20001220703125</AltitudeMeters>
            <DistanceMeters>NAN</DistanceMeters>
          </Trackpoint>
          <Trackpoint>
            <Time>2019-10-05T12:36:15.000Z</Time>
            <Position>
              <LatitudeDegrees>41.9109033979475498199462890625</LatitudeDegrees>
              <LongitudeDegrees>-5.6878567300736904144287109375</LongitudeDegrees>
            </Position>
            <AltitudeMeters>607.20001220703125</AltitudeMeters>
            <DistanceMeters>NAN</DistanceMeters>
          </Trackpoint>
          <Trackpoint>
            <Time>2019-10-05T12:36:23.000Z</Time>
            <Position>
              <LatitudeDegrees>41.9105164892971515655517578125</LatitudeDegrees>
              <LongitudeDegrees>-5.688179098069667816162109375</LongitudeDegrees>
            </Position>
            <AltitudeMeters>606.5999755859375</AltitudeMeters>
            <DistanceMeters>NAN</DistanceMeters>
          </Trackpoint>
          <Trackpoint>
            <Time>2019-10-05T12:36:25.000Z</Time>
            <Position>
              <LatitudeDegrees>41.9104185886681079864501953125</LatitudeDegrees>
              <LongitudeDegrees>-5.68826048634946346282958984375</LongitudeDegrees>
            </Position>
            <AltitudeMeters>606.5999755859375</AltitudeMeters>
            <DistanceMeters>NAN</DistanceMeters>
          </Trackpoint>
          <Trackpoint>
            <Time>2019-10-05T12:36:34.000Z</Time>
            <Position>
              <LatitudeDegrees>41.90993788652122020721435546875</LatitudeDegrees>
              <LongitudeDegrees>-5.68866248242557048797607421875</LongitudeDegrees>
            </Position>
            <AltitudeMeters>606.20001220703125</AltitudeMeters>
            <DistanceMeters>NAN</DistanceMeters>
          </Trackpoint>
          <Trackpoint>
            <Time>2019-10-05T12:36:41.000Z</Time>
            <Position>
              <LatitudeDegrees>41.90958551131188869476318359375</LatitudeDegrees>
              <LongitudeDegrees>-5.68895417265594005584716796875</LongitudeDegrees>
            </Position>
            <AltitudeMeters>605.4000244140625</AltitudeMeters>
            <DistanceMeters>NAN</DistanceMeters>
          </Trackpoint>
          <Trackpoint>
            <Time>2019-10-05T12:36:43.000Z</Time>
            <Position>
              <LatitudeDegrees>41.909488029778003692626953125</LatitudeDegrees>
              <LongitudeDegrees>-5.689036734402179718017578125</LongitudeDegrees>
            </Position>
            <AltitudeMeters>605.4000244140625</AltitudeMeters>
            <DistanceMeters>NAN</DistanceMeters>
          </Trackpoint>
          <Trackpoint>
            <Time>2019-10-05T12:36:52.000Z</Time>
            <Position>
              <LatitudeDegrees>41.9090523384511470794677734375</LatitudeDegrees>
              <LongitudeDegrees>-5.6894011795520782470703125</LongitudeDegrees>
            </Position>
            <AltitudeMeters>605.4000244140625</AltitudeMeters>
            <DistanceMeters>NAN</DistanceMeters>
          </Trackpoint>
          <Trackpoint>
            <Time>2019-10-05T12:37:00.000Z</Time>
            <Position>
              <LatitudeDegrees>41.9086910784244537353515625</LatitudeDegrees>
              <LongitudeDegrees>-5.68969764746725559234619140625</LongitudeDegrees>
            </Position>
            <AltitudeMeters>605.79998779296875</AltitudeMeters>
            <DistanceMeters>NAN</DistanceMeters>
          </Trackpoint>
          <Trackpoint>
            <Time>2019-10-05T12:37:10.000Z</Time>
            <Position>
              <LatitudeDegrees>41.9082453288137912750244140625</LatitudeDegrees>
              <LongitudeDegrees>-5.690071396529674530029296875</LongitudeDegrees>
            </Position>
            <AltitudeMeters>605.5999755859375</AltitudeMeters>
            <DistanceMeters>NAN</DistanceMeters>
          </Trackpoint>
          <Trackpoint>
            <Time>2019-10-05T12:37:11.000Z</Time>
            <Position>
              <LatitudeDegrees>41.90819528885185718536376953125</LatitudeDegrees>
              <LongitudeDegrees>-5.69010685198009014129638671875</LongitudeDegrees>
            </Position>
            <AltitudeMeters>605.4000244140625</AltitudeMeters>
            <DistanceMeters>NAN</DistanceMeters>
          </Trackpoint>
          <Trackpoint>
            <Time>2019-10-05T12:37:15.000Z</Time>
            <Position>
              <LatitudeDegrees>41.90802312456071376800537109375</LatitudeDegrees>
              <LongitudeDegrees>-5.69026644341647624969482421875</LongitudeDegrees>
            </Position>
            <AltitudeMeters>605.79998779296875</AltitudeMeters>
            <DistanceMeters>NAN</DistanceMeters>
          </Trackpoint>
          <Trackpoint>
            <Time>2019-10-05T12:37:17.000Z</Time>
            <Position>
              <LatitudeDegrees>41.90796026028692722320556640625</LatitudeDegrees>
              <LongitudeDegrees>-5.69037725217640399932861328125</LongitudeDegrees>
            </Position>
            <AltitudeMeters>606.20001220703125</AltitudeMeters>
            <DistanceMeters>NAN</DistanceMeters>
          </Trackpoint>
          <Trackpoint>
            <Time>2019-10-05T12:37:20.000Z</Time>
            <Position>
              <LatitudeDegrees>41.9079291634261608123779296875</LatitudeDegrees>
              <LongitudeDegrees>-5.6905909068882465362548828125</LongitudeDegrees>
            </Position>
            <AltitudeMeters>606.5999755859375</AltitudeMeters>
            <DistanceMeters>NAN</DistanceMeters>
          </Trackpoint>
          <Trackpoint>
            <Time>2019-10-05T12:37:21.000Z</Time>
            <Position>
              <LatitudeDegrees>41.90791751258075237274169921875</LatitudeDegrees>
              <LongitudeDegrees>-5.6906696967780590057373046875</LongitudeDegrees>
            </Position>
            <AltitudeMeters>606.5999755859375</AltitudeMeters>
            <DistanceMeters>NAN</DistanceMeters>
          </Trackpoint>
          <Trackpoint>
            <Time>2019-10-05T12:37:22.000Z</Time>
            <Position>
              <LatitudeDegrees>41.9079030118882656097412109375</LatitudeDegrees>
              <LongitudeDegrees>-5.6907404400408267974853515625</LongitudeDegrees>
            </Position>
            <AltitudeMeters>606.4000244140625</AltitudeMeters>
            <DistanceMeters>NAN</DistanceMeters>
          </Trackpoint>
          <Trackpoint>
            <Time>2019-10-05T12:37:25.000Z</Time>
            <Position>
              <LatitudeDegrees>41.90781139768660068511962890625</LatitudeDegrees>
              <LongitudeDegrees>-5.69092140533030033111572265625</LongitudeDegrees>
            </Position>
            <AltitudeMeters>606.20001220703125</AltitudeMeters>
            <DistanceMeters>NAN</DistanceMeters>
          </Trackpoint>
          <Trackpoint>
            <Time>2019-10-05T12:37:27.000Z</Time>
            <Position>
              <LatitudeDegrees>41.90771785564720630645751953125</LatitudeDegrees>
              <LongitudeDegrees>-5.69099365733563899993896484375</LongitudeDegrees>
            </Position>
            <AltitudeMeters>606</AltitudeMeters>
            <DistanceMeters>NAN</DistanceMeters>
          </Trackpoint>
          <Trackpoint>
            <Time>2019-10-05T12:37:28.000Z</Time>
            <Position>
              <LatitudeDegrees>41.9076636247336864471435546875</LatitudeDegrees>
              <LongitudeDegrees>-5.69101595319807529449462890625</LongitudeDegrees>
            </Position>
            <AltitudeMeters>605.4000244140625</AltitudeMeters>
            <DistanceMeters>NAN</DistanceMeters>
          </Trackpoint>
          <Trackpoint>
            <Time>2019-10-05T12:37:29.000Z</Time>
            <Position>
              <LatitudeDegrees>41.90760545432567596435546875</LatitudeDegrees>
              <LongitudeDegrees>-5.69102802313864231109619140625</LongitudeDegrees>
            </Position>
            <AltitudeMeters>605.4000244140625</AltitudeMeters>
            <DistanceMeters>NAN</DistanceMeters>
          </Trackpoint>
          <Trackpoint>
            <Time>2019-10-05T12:37:32.000Z</Time>
            <Position>
              <LatitudeDegrees>41.90743270330131053924560546875</LatitudeDegrees>
              <LongitudeDegrees>-5.69100287742912769317626953125</LongitudeDegrees>
            </Position>
            <AltitudeMeters>606</AltitudeMeters>
            <DistanceMeters>NAN</DistanceMeters>
          </Trackpoint>
          <Trackpoint>
            <Time>2019-10-05T12:37:33.000Z</Time>
            <Position>
              <LatitudeDegrees>41.9073766283690929412841796875</LatitudeDegrees>
              <LongitudeDegrees>-5.6909905560314655303955078125</LongitudeDegrees>
            </Position>
            <AltitudeMeters>606.79998779296875</AltitudeMeters>
            <DistanceMeters>NAN</DistanceMeters>
          </Trackpoint>
          <Trackpoint>
            <Time>2019-10-05T12:37:37.000Z</Time>
            <Position>
              <LatitudeDegrees>41.90715216100215911865234375</LatitudeDegrees>
              <LongitudeDegrees>-5.6909912265837192535400390625</LongitudeDegrees>
            </Position>
            <AltitudeMeters>606.20001220703125</AltitudeMeters>
            <DistanceMeters>NAN</DistanceMeters>
          </Trackpoint>
          <Trackpoint>
            <Time>2019-10-05T12:37:38.000Z</Time>
            <Position>
              <LatitudeDegrees>41.90709390677511692047119140625</LatitudeDegrees>
              <LongitudeDegrees>-5.69102567620575428009033203125</LongitudeDegrees>
            </Position>
            <AltitudeMeters>606</AltitudeMeters>
            <DistanceMeters>NAN</DistanceMeters>
          </Trackpoint>
          <Trackpoint>
            <Time>2019-10-05T12:37:39.000Z</Time>
            <Position>
              <LatitudeDegrees>41.90704193897545337677001953125</LatitudeDegrees>
              <LongitudeDegrees>-5.69106289185583591461181640625</LongitudeDegrees>
            </Position>
            <AltitudeMeters>605.79998779296875</AltitudeMeters>
            <DistanceMeters>NAN</DistanceMeters>
          </Trackpoint>
          <Trackpoint>
            <Time>2019-10-05T12:37:44.000Z</Time>
            <Position>
              <LatitudeDegrees>41.9067875482141971588134765625</LatitudeDegrees>
              <LongitudeDegrees>-5.69127612747251987457275390625</LongitudeDegrees>
            </Position>
            <AltitudeMeters>605.79998779296875</AltitudeMeters>
            <DistanceMeters>NAN</DistanceMeters>
          </Trackpoint>
          <Trackpoint>
            <Time>2019-10-05T12:37:53.000Z</Time>
            <Position>
              <LatitudeDegrees>41.90629343502223491668701171875</LatitudeDegrees>
              <LongitudeDegrees>-5.6916926242411136627197265625</LongitudeDegrees>
            </Position>
            <AltitudeMeters>605</AltitudeMeters>
            <DistanceMeters>NAN</DistanceMeters>
          </Trackpoint>
          <Trackpoint>
            <Time>2019-10-05T12:37:56.000Z</Time>
            <Position>
              <LatitudeDegrees>41.90612143836915493011474609375</LatitudeDegrees>
              <LongitudeDegrees>-5.691840648651123046875</LongitudeDegrees>
            </Position>
            <AltitudeMeters>604.20001220703125</AltitudeMeters>
            <DistanceMeters>NAN</DistanceMeters>
          </Trackpoint>
          <Trackpoint>
            <Time>2019-10-05T12:37:57.000Z</Time>
            <Position>
              <LatitudeDegrees>41.9060656987130641937255859375</LatitudeDegrees>
              <LongitudeDegrees>-5.6918880902230739593505859375</LongitudeDegrees>
            </Position>
            <AltitudeMeters>604</AltitudeMeters>
            <DistanceMeters>NAN</DistanceMeters>
          </Trackpoint>
          <Trackpoint>
            <Time>2019-10-05T12:38:06.000Z</Time>
            <Position>
              <LatitudeDegrees>41.90557141788303852081298828125</LatitudeDegrees>
              <LongitudeDegrees>-5.69230525754392147064208984375</LongitudeDegrees>
            </Position>
            <AltitudeMeters>604.20001220703125</AltitudeMeters>
            <DistanceMeters>NAN</DistanceMeters>
          </Trackpoint>
          <Trackpoint>
            <Time>2019-10-05T12:38:10.000Z</Time>
            <Position>
              <LatitudeDegrees>41.90535667352378368377685546875</LatitudeDegrees>
              <LongitudeDegrees>-5.6924821995198726654052734375</LongitudeDegrees>
            </Position>
            <AltitudeMeters>603.4000244140625</AltitudeMeters>
            <DistanceMeters>NAN</DistanceMeters>
          </Trackpoint>
          <Trackpoint>
            <Time>2019-10-05T12:38:19.000Z</Time>
            <Position>
              <LatitudeDegrees>41.9049037992954254150390625</LatitudeDegrees>
              <LongitudeDegrees>-5.6928664259612560272216796875</LongitudeDegrees>
            </Position>
            <AltitudeMeters>604.4000244140625</AltitudeMeters>
            <DistanceMeters>NAN</DistanceMeters>
          </Trackpoint>
          <Trackpoint>
            <Time>2019-10-05T12:38:21.000Z</Time>
            <Position>
              <LatitudeDegrees>41.90480522811412811279296875</LatitudeDegrees>
              <LongitudeDegrees>-5.69294261746108531951904296875</LongitudeDegrees>
            </Position>
            <AltitudeMeters>605</AltitudeMeters>
            <DistanceMeters>NAN</DistanceMeters>
          </Trackpoint>
          <Trackpoint>
            <Time>2019-10-05T12:38:31.000Z</Time>
            <Position>
              <LatitudeDegrees>41.904321424663066864013671875</LatitudeDegrees>
              <LongitudeDegrees>-5.6933428533375263214111328125</LongitudeDegrees>
            </Position>
            <AltitudeMeters>604.5999755859375</AltitudeMeters>
            <DistanceMeters>NAN</DistanceMeters>
          </Trackpoint>
          <Trackpoint>
            <Time>2019-10-05T12:38:33.000Z</Time>
            <Position>
              <LatitudeDegrees>41.904226206243038177490234375</LatitudeDegrees>
              <LongitudeDegrees>-5.69341904483735561370849609375</LongitudeDegrees>
            </Position>
            <AltitudeMeters>604.79998779296875</AltitudeMeters>
            <DistanceMeters>NAN</DistanceMeters>
          </Trackpoint>
          <Trackpoint>
            <Time>2019-10-05T12:38:41.000Z</Time>
            <Position>
              <LatitudeDegrees>41.90384943969547748565673828125</LatitudeDegrees>
              <LongitudeDegrees>-5.6937361322343349456787109375</LongitudeDegrees>
            </Position>
            <AltitudeMeters>604.5999755859375</AltitudeMeters>
            <DistanceMeters>NAN</DistanceMeters>
          </Trackpoint>
          <Trackpoint>
            <Time>2019-10-05T12:38:47.000Z</Time>
            <Position>
              <LatitudeDegrees>41.9035732559859752655029296875</LatitudeDegrees>
              <LongitudeDegrees>-5.69396655075252056121826171875</LongitudeDegrees>
            </Position>
            <AltitudeMeters>605.4000244140625</AltitudeMeters>
            <DistanceMeters>NAN</DistanceMeters>
          </Trackpoint>
          <Trackpoint>
            <Time>2019-10-05T12:38:48.000Z</Time>
            <Position>
              <LatitudeDegrees>41.9035253114998340606689453125</LatitudeDegrees>
              <LongitudeDegrees>-5.69400720298290252685546875</LongitudeDegrees>
            </Position>
            <AltitudeMeters>605.20001220703125</AltitudeMeters>
            <DistanceMeters>NAN</DistanceMeters>
          </Trackpoint>
          <Trackpoint>
            <Time>2019-10-05T12:38:54.000Z</Time>
            <Position>
              <LatitudeDegrees>41.90323404036462306976318359375</LatitudeDegrees>
              <LongitudeDegrees>-5.69425472058355808258056640625</LongitudeDegrees>
            </Position>
            <AltitudeMeters>605.79998779296875</AltitudeMeters>
            <DistanceMeters>NAN</DistanceMeters>
          </Trackpoint>
          <Trackpoint>
            <Time>2019-10-05T12:38:55.000Z</Time>
            <Position>
              <LatitudeDegrees>41.90318559296429157257080078125</LatitudeDegrees>
              <LongitudeDegrees>-5.6942973844707012176513671875</LongitudeDegrees>
            </Position>
            <AltitudeMeters>605.5999755859375</AltitudeMeters>
            <DistanceMeters>NAN</DistanceMeters>
          </Trackpoint>
          <Trackpoint>
            <Time>2019-10-05T12:39:01.000Z</Time>
            <Position>
              <LatitudeDegrees>41.90289281308650970458984375</LatitudeDegrees>
              <LongitudeDegrees>-5.69453937001526355743408203125</LongitudeDegrees>
            </Position>
            <AltitudeMeters>605</AltitudeMeters>
            <DistanceMeters>NAN</DistanceMeters>
          </Trackpoint>
          <Trackpoint>
            <Time>2019-10-05T12:39:04.000Z</Time>
            <Position>
              <LatitudeDegrees>41.90274168737232685089111328125</LatitudeDegrees>
              <LongitudeDegrees>-5.69465990178287029266357421875</LongitudeDegrees>
            </Position>
            <AltitudeMeters>605.5999755859375</AltitudeMeters>
            <DistanceMeters>NAN</DistanceMeters>
          </Trackpoint>
          <Trackpoint>
            <Time>2019-10-05T12:39:13.000Z</Time>
            <Position>
              <LatitudeDegrees>41.90231974236667156219482421875</LatitudeDegrees>
              <LongitudeDegrees>-5.69501428864896297454833984375</LongitudeDegrees>
            </Position>
            <AltitudeMeters>605.5999755859375</AltitudeMeters>
            <DistanceMeters>NAN</DistanceMeters>
          </Trackpoint>
          <Trackpoint>
            <Time>2019-10-05T12:39:20.000Z</Time>
            <Position>
              <LatitudeDegrees>41.90199368633329868316650390625</LatitudeDegrees>
              <LongitudeDegrees>-5.69529759697616100311279296875</LongitudeDegrees>
            </Position>
            <AltitudeMeters>606.4000244140625</AltitudeMeters>
            <DistanceMeters>NAN</DistanceMeters>
          </Trackpoint>
          <Trackpoint>
            <Time>2019-10-05T12:39:21.000Z</Time>
            <Position>
              <LatitudeDegrees>41.90194674767553806304931640625</LatitudeDegrees>
              <LongitudeDegrees>-5.69533799774944782257080078125</LongitudeDegrees>
            </Position>
            <AltitudeMeters>606.20001220703125</AltitudeMeters>
            <DistanceMeters>NAN</DistanceMeters>
          </Trackpoint>
          <Trackpoint>
            <Time>2019-10-05T12:39:29.000Z</Time>
            <Position>
              <LatitudeDegrees>41.90158096142113208770751953125</LatitudeDegrees>
              <LongitudeDegrees>-5.6956936419010162353515625</LongitudeDegrees>
            </Position>
            <AltitudeMeters>605.4000244140625</AltitudeMeters>
            <DistanceMeters>NAN</DistanceMeters>
          </Trackpoint>
          <Trackpoint>
            <Time>2019-10-05T12:39:31.000Z</Time>
            <Position>
              <LatitudeDegrees>41.9014955498278141021728515625</LatitudeDegrees>
              <LongitudeDegrees>-5.6957928836345672607421875</LongitudeDegrees>
            </Position>
            <AltitudeMeters>605.4000244140625</AltitudeMeters>
            <DistanceMeters>NAN</DistanceMeters>
          </Trackpoint>
          <Trackpoint>
            <Time>2019-10-05T12:39:37.000Z</Time>
            <Position>
              <LatitudeDegrees>41.9012481160461902618408203125</LatitudeDegrees>
              <LongitudeDegrees>-5.69610008038580417633056640625</LongitudeDegrees>
            </Position>
            <AltitudeMeters>605.4000244140625</AltitudeMeters>
            <DistanceMeters>NAN</DistanceMeters>
          </Trackpoint>
          <Trackpoint>
            <Time>2019-10-05T12:39:47.000Z</Time>
            <Position>
              <LatitudeDegrees>41.9008618779480457305908203125</LatitudeDegrees>
              <LongitudeDegrees>-5.6966614164412021636962890625</LongitudeDegrees>
            </Position>
            <AltitudeMeters>605.20001220703125</AltitudeMeters>
            <DistanceMeters>NAN</DistanceMeters>
          </Trackpoint>
          <Trackpoint>
            <Time>2019-10-05T12:39:55.000Z</Time>
            <Position>
              <LatitudeDegrees>41.90055820159614086151123046875</LatitudeDegrees>
              <LongitudeDegrees>-5.6971205770969390869140625</LongitudeDegrees>
            </Position>
            <AltitudeMeters>604.4000244140625</AltitudeMeters>
            <DistanceMeters>NAN</DistanceMeters>
          </Trackpoint>
          <Trackpoint>
            <Time>2019-10-05T12:39:57.000Z</Time>
            <Position>
              <LatitudeDegrees>41.90048418939113616943359375</LatitudeDegrees>
              <LongitudeDegrees>-5.6972327269613742828369140625</LongitudeDegrees>
            </Position>
            <AltitudeMeters>604.4000244140625</AltitudeMeters>
            <DistanceMeters>NAN</DistanceMeters>
          </Trackpoint>
          <Trackpoint>
            <Time>2019-10-05T12:40:07.000Z</Time>
            <Position>
              <LatitudeDegrees>41.90011211670935153961181640625</LatitudeDegrees>
              <LongitudeDegrees>-5.6977906264364719390869140625</LongitudeDegrees>
            </Position>
            <AltitudeMeters>604.79998779296875</AltitudeMeters>
            <DistanceMeters>NAN</DistanceMeters>
          </Trackpoint>
          <Trackpoint>
            <Time>2019-10-05T12:40:15.000Z</Time>
            <Position>
              <LatitudeDegrees>41.8998131342232227325439453125</LatitudeDegrees>
              <LongitudeDegrees>-5.69824316538870334625244140625</LongitudeDegrees>
            </Position>
            <AltitudeMeters>605.4000244140625</AltitudeMeters>
            <DistanceMeters>NAN</DistanceMeters>
          </Trackpoint>
          <Trackpoint>
            <Time>2019-10-05T12:40:18.000Z</Time>
            <Position>
              <LatitudeDegrees>41.8996981345117092132568359375</LatitudeDegrees>
              <LongitudeDegrees>-5.6984135694801807403564453125</LongitudeDegrees>
            </Position>
            <AltitudeMeters>605.20001220703125</AltitudeMeters>
            <DistanceMeters>NAN</DistanceMeters>
          </Trackpoint>
          <Trackpoint>
            <Time>2019-10-05T12:40:28.000Z</Time>
            <Position>
              <LatitudeDegrees>41.89933628775179386138916015625</LatitudeDegrees>
              <LongitudeDegrees>-5.69896526634693145751953125</LongitudeDegrees>
            </Position>
            <AltitudeMeters>605.5999755859375</AltitudeMeters>
            <DistanceMeters>NAN</DistanceMeters>
          </Trackpoint>
          <Trackpoint>
            <Time>2019-10-05T12:40:38.000Z</Time>
            <Position>
              <LatitudeDegrees>41.89897519536316394805908203125</LatitudeDegrees>
              <LongitudeDegrees>-5.69951134733855724334716796875</LongitudeDegrees>
            </Position>
            <AltitudeMeters>606.20001220703125</AltitudeMeters>
            <DistanceMeters>NAN</DistanceMeters>
          </Trackpoint>
          <Trackpoint>
            <Time>2019-10-05T12:40:40.000Z</Time>
            <Position>
              <LatitudeDegrees>41.898903362452983856201171875</LatitudeDegrees>
              <LongitudeDegrees>-5.69961846806108951568603515625</LongitudeDegrees>
            </Position>
            <AltitudeMeters>606.4000244140625</AltitudeMeters>
            <DistanceMeters>NAN</DistanceMeters>
          </Trackpoint>
          <Trackpoint>
            <Time>2019-10-05T12:40:50.000Z</Time>
            <Position>
              <LatitudeDegrees>41.898544616997241973876953125</LatitudeDegrees>
              <LongitudeDegrees>-5.70016262121498584747314453125</LongitudeDegrees>
            </Position>
            <AltitudeMeters>606.5999755859375</AltitudeMeters>
            <DistanceMeters>NAN</DistanceMeters>
          </Trackpoint>
          <Trackpoint>
            <Time>2019-10-05T12:40:51.000Z</Time>
            <Position>
              <LatitudeDegrees>41.89850681461393833160400390625</LatitudeDegrees>
              <LongitudeDegrees>-5.700219534337520599365234375</LongitudeDegrees>
            </Position>
            <AltitudeMeters>606.5999755859375</AltitudeMeters>
            <DistanceMeters>NAN</DistanceMeters>
          </Trackpoint>
          <Trackpoint>
            <Time>2019-10-05T12:41:00.000Z</Time>
            <Position>
              <LatitudeDegrees>41.89820288680493831634521484375</LatitudeDegrees>
              <LongitudeDegrees>-5.70068724453449249267578125</LongitudeDegrees>
            </Position>
            <AltitudeMeters>607.5999755859375</AltitudeMeters>
            <DistanceMeters>NAN</DistanceMeters>
          </Trackpoint>
          <Trackpoint>
            <Time>2019-10-05T12:41:08.000Z</Time>
            <Position>
              <LatitudeDegrees>41.89795511774718761444091796875</LatitudeDegrees>
              <LongitudeDegrees>-5.7010599039494991302490234375</LongitudeDegrees>
            </Position>
            <AltitudeMeters>607.79998779296875</AltitudeMeters>
            <DistanceMeters>NAN</DistanceMeters>
          </Trackpoint>
          <Trackpoint>
            <Time>2019-10-05T12:41:12.000Z</Time>
            <Position>
              <LatitudeDegrees>41.89783014357089996337890625</LatitudeDegrees>
              <LongitudeDegrees>-5.7012431323528289794921875</LongitudeDegrees>
            </Position>
            <AltitudeMeters>608.79998779296875</AltitudeMeters>
            <DistanceMeters>NAN</DistanceMeters>
          </Trackpoint>
          <Trackpoint>
            <Time>2019-10-05T12:41:18.000Z</Time>
            <Position>
              <LatitudeDegrees>41.89764582552015781402587890625</LatitudeDegrees>
              <LongitudeDegrees>-5.70152568630874156951904296875</LongitudeDegrees>
            </Position>
            <AltitudeMeters>608.79998779296875</AltitudeMeters>
            <DistanceMeters>NAN</DistanceMeters>
          </Trackpoint>
          <Trackpoint>
            <Time>2019-10-05T12:41:27.000Z</Time>
            <Position>
              <LatitudeDegrees>41.89736486412584781646728515625</LatitudeDegrees>
              <LongitudeDegrees>-5.7019378244876861572265625</LongitudeDegrees>
            </Position>
            <AltitudeMeters>609.79998779296875</AltitudeMeters>
            <DistanceMeters>NAN</DistanceMeters>
          </Trackpoint>
          <Trackpoint>
            <Time>2019-10-05T12:41:28.000Z</Time>
            <Position>
              <LatitudeDegrees>41.89733326435089111328125</LatitudeDegrees>
              <LongitudeDegrees>-5.7019832544028759002685546875</LongitudeDegrees>
            </Position>
            <AltitudeMeters>609.79998779296875</AltitudeMeters>
            <DistanceMeters>NAN</DistanceMeters>
          </Trackpoint>
          <Trackpoint>
            <Time>2019-10-05T12:41:38.000Z</Time>
            <Position>
              <LatitudeDegrees>41.89699463546276092529296875</LatitudeDegrees>
              <LongitudeDegrees>-5.70242254994809627532958984375</LongitudeDegrees>
            </Position>
            <AltitudeMeters>609.5999755859375</AltitudeMeters>
            <DistanceMeters>NAN</DistanceMeters>
          </Trackpoint>
          <Trackpoint>
            <Time>2019-10-05T12:41:48.000Z</Time>
            <Position>
              <LatitudeDegrees>41.8966172821819782257080078125</LatitudeDegrees>
              <LongitudeDegrees>-5.70282488130033016204833984375</LongitudeDegrees>
            </Position>
            <AltitudeMeters>610.4000244140625</AltitudeMeters>
            <DistanceMeters>NAN</DistanceMeters>
          </Trackpoint>
          <Trackpoint>
            <Time>2019-10-05T12:41:53.000Z</Time>
            <Position>
              <LatitudeDegrees>41.89640698023140430450439453125</LatitudeDegrees>
              <LongitudeDegrees>-5.7030175812542438507080078125</LongitudeDegrees>
            </Position>
            <AltitudeMeters>609.79998779296875</AltitudeMeters>
            <DistanceMeters>NAN</DistanceMeters>
          </Trackpoint>
          <Trackpoint>
            <Time>2019-10-05T12:41:55.000Z</Time>
            <Position>
              <LatitudeDegrees>41.8963148631155490875244140625</LatitudeDegrees>
              <LongitudeDegrees>-5.7030911743640899658203125</LongitudeDegrees>
            </Position>
            <AltitudeMeters>609</AltitudeMeters>
            <DistanceMeters>NAN</DistanceMeters>
          </Trackpoint>
          <Trackpoint>
            <Time>2019-10-05T12:41:57.000Z</Time>
            <Position>
              <LatitudeDegrees>41.89621436409652233123779296875</LatitudeDegrees>
              <LongitudeDegrees>-5.7031662762165069580078125</LongitudeDegrees>
            </Position>
            <AltitudeMeters>608.5999755859375</AltitudeMeters>
            <DistanceMeters>NAN</DistanceMeters>
          </Trackpoint>
          <Trackpoint>
            <Time>2019-10-05T12:42:02.000Z</Time>
            <Position>
              <LatitudeDegrees>41.895954273641109466552734375</LatitudeDegrees>
              <LongitudeDegrees>-5.703355036675930023193359375</LongitudeDegrees>
            </Position>
            <AltitudeMeters>608.79998779296875</AltitudeMeters>
            <DistanceMeters>NAN</DistanceMeters>
          </Trackpoint>
          <Trackpoint>
            <Time>2019-10-05T12:42:09.000Z</Time>
            <Position>
              <LatitudeDegrees>41.8956007249653339385986328125</LatitudeDegrees>
              <LongitudeDegrees>-5.70358629338443279266357421875</LongitudeDegrees>
            </Position>
            <AltitudeMeters>608.79998779296875</AltitudeMeters>
            <DistanceMeters>NAN</DistanceMeters>
          </Trackpoint>
          <Trackpoint>
            <Time>2019-10-05T12:42:16.000Z</Time>
            <Position>
              <LatitudeDegrees>41.8952647782862186431884765625</LatitudeDegrees>
              <LongitudeDegrees>-5.703809671103954315185546875</LongitudeDegrees>
            </Position>
            <AltitudeMeters>609.4000244140625</AltitudeMeters>
            <DistanceMeters>NAN</DistanceMeters>
          </Trackpoint>
          <Trackpoint>
            <Time>2019-10-05T12:42:20.000Z</Time>
            <Position>
              <LatitudeDegrees>41.89509303309023380279541015625</LatitudeDegrees>
              <LongitudeDegrees>-5.7039090804755687713623046875</LongitudeDegrees>
            </Position>
            <AltitudeMeters>609.79998779296875</AltitudeMeters>
            <DistanceMeters>NAN</DistanceMeters>
          </Trackpoint>
          <Trackpoint>
            <Time>2019-10-05T12:42:23.000Z</Time>
            <Position>
              <LatitudeDegrees>41.89497820101678371429443359375</LatitudeDegrees>
              <LongitudeDegrees>-5.70398376323282718658447265625</LongitudeDegrees>
            </Position>
            <AltitudeMeters>611</AltitudeMeters>
            <DistanceMeters>NAN</DistanceMeters>
          </Trackpoint>
          <Trackpoint>
            <Time>2019-10-05T12:42:30.000Z</Time>
            <Position>
              <LatitudeDegrees>41.89474786631762981414794921875</LatitudeDegrees>
              <LongitudeDegrees>-5.70413966663181781768798828125</LongitudeDegrees>
            </Position>
            <AltitudeMeters>611.79998779296875</AltitudeMeters>
            <DistanceMeters>NAN</DistanceMeters>
          </Trackpoint>
          <Trackpoint>
            <Time>2019-10-05T12:42:31.000Z</Time>
            <Position>
              <LatitudeDegrees>41.89471752382814884185791015625</LatitudeDegrees>
              <LongitudeDegrees>-5.70415726862847805023193359375</LongitudeDegrees>
            </Position>
            <AltitudeMeters>612</AltitudeMeters>
            <DistanceMeters>NAN</DistanceMeters>
          </Trackpoint>
          <Trackpoint>
            <Time>2019-10-05T12:42:35.000Z</Time>
            <Position>
              <LatitudeDegrees>41.89460269175469875335693359375</LatitudeDegrees>
              <LongitudeDegrees>-5.70423337630927562713623046875</LongitudeDegrees>
            </Position>
            <AltitudeMeters>613.20001220703125</AltitudeMeters>
            <DistanceMeters>NAN</DistanceMeters>
          </Trackpoint>
          <Trackpoint>
            <Time>2019-10-05T12:42:39.000Z</Time>
            <Position>
              <LatitudeDegrees>41.894491799175739288330078125</LatitudeDegrees>
              <LongitudeDegrees>-5.7043094001710414886474609375</LongitudeDegrees>
            </Position>
            <AltitudeMeters>614.20001220703125</AltitudeMeters>
            <DistanceMeters>NAN</DistanceMeters>
          </Trackpoint>
          <Trackpoint>
            <Time>2019-10-05T12:42:40.000Z</Time>
            <Position>
              <LatitudeDegrees>41.8944646418094635009765625</LatitudeDegrees>
              <LongitudeDegrees>-5.70432540960609912872314453125</LongitudeDegrees>
            </Position>
            <AltitudeMeters>614.4000244140625</AltitudeMeters>
            <DistanceMeters>NAN</DistanceMeters>
          </Trackpoint>
          <Trackpoint>
            <Time>2019-10-05T12:42:44.000Z</Time>
            <Position>
              <LatitudeDegrees>41.89435391686856746673583984375</LatitudeDegrees>
              <LongitudeDegrees>-5.70438642986118793487548828125</LongitudeDegrees>
            </Position>
            <AltitudeMeters>615</AltitudeMeters>
            <DistanceMeters>NAN</DistanceMeters>
          </Trackpoint>
          <Trackpoint>
            <Time>2019-10-05T12:42:46.000Z</Time>
            <Position>
              <LatitudeDegrees>41.8942998535931110382080078125</LatitudeDegrees>
              <LongitudeDegrees>-5.70441878400743007659912109375</LongitudeDegrees>
            </Position>
            <AltitudeMeters>615.5999755859375</AltitudeMeters>
            <DistanceMeters>NAN</DistanceMeters>
          </Trackpoint>
          <Trackpoint>
            <Time>2019-10-05T12:42:49.000Z</Time>
            <Position>
              <LatitudeDegrees>41.89421561546623706817626953125</LatitudeDegrees>
              <LongitudeDegrees>-5.70446823723614215850830078125</LongitudeDegrees>
            </Position>
            <AltitudeMeters>616</AltitudeMeters>
            <DistanceMeters>NAN</DistanceMeters>
          </Trackpoint>
          <Trackpoint>
            <Time>2019-10-05T12:42:53.000Z</Time>
            <Position>
              <LatitudeDegrees>41.8941079080104827880859375</LatitudeDegrees>
              <LongitudeDegrees>-5.70454535074532032012939453125</LongitudeDegrees>
            </Position>
            <AltitudeMeters>616.5999755859375</AltitudeMeters>
            <DistanceMeters>NAN</DistanceMeters>
          </Trackpoint>
          <Trackpoint>
            <Time>2019-10-05T12:42:55.000Z</Time>
            <Position>
              <LatitudeDegrees>41.89405585639178752899169921875</LatitudeDegrees>
              <LongitudeDegrees>-5.7045771181583404541015625</LongitudeDegrees>
            </Position>
            <AltitudeMeters>617</AltitudeMeters>
            <DistanceMeters>NAN</DistanceMeters>
          </Trackpoint>
          <Trackpoint>
            <Time>2019-10-05T12:42:59.000Z</Time>
            <Position>
              <LatitudeDegrees>41.89394772984087467193603515625</LatitudeDegrees>
              <LongitudeDegrees>-5.70465364493429660797119140625</LongitudeDegrees>
            </Position>
            <AltitudeMeters>617.79998779296875</AltitudeMeters>
            <DistanceMeters>NAN</DistanceMeters>
          </Trackpoint>
          <Trackpoint>
            <Time>2019-10-05T12:43:02.000Z</Time>
            <Position>
              <LatitudeDegrees>41.893868185579776763916015625</LatitudeDegrees>
              <LongitudeDegrees>-5.7047117315232753753662109375</LongitudeDegrees>
            </Position>
            <AltitudeMeters>619</AltitudeMeters>
            <DistanceMeters>NAN</DistanceMeters>
          </Trackpoint>
          <Trackpoint>
            <Time>2019-10-05T12:43:03.000Z</Time>
            <Position>
              <LatitudeDegrees>41.89384169876575469970703125</LatitudeDegrees>
              <LongitudeDegrees>-5.70473067462444305419921875</LongitudeDegrees>
            </Position>
            <AltitudeMeters>619.20001220703125</AltitudeMeters>
            <DistanceMeters>NAN</DistanceMeters>
          </Trackpoint>
          <Trackpoint>
            <Time>2019-10-05T12:43:08.000Z</Time>
            <Position>
              <LatitudeDegrees>41.89370146952569484710693359375</LatitudeDegrees>
              <LongitudeDegrees>-5.70481709204614162445068359375</LongitudeDegrees>
            </Position>
            <AltitudeMeters>619.79998779296875</AltitudeMeters>
            <DistanceMeters>NAN</DistanceMeters>
          </Trackpoint>
          <Trackpoint>
            <Time>2019-10-05T12:43:09.000Z</Time>
            <Position>
              <LatitudeDegrees>41.8936745636165142059326171875</LatitudeDegrees>
              <LongitudeDegrees>-5.70483301766216754913330078125</LongitudeDegrees>
            </Position>
            <AltitudeMeters>620.20001220703125</AltitudeMeters>
            <DistanceMeters>NAN</DistanceMeters>
          </Trackpoint>
          <Trackpoint>
            <Time>2019-10-05T12:43:10.000Z</Time>
            <Position>
              <LatitudeDegrees>41.89364765770733356475830078125</LatitudeDegrees>
              <LongitudeDegrees>-5.70484869182109832763671875</LongitudeDegrees>
            </Position>
            <AltitudeMeters>620.20001220703125</AltitudeMeters>
            <DistanceMeters>NAN</DistanceMeters>
          </Trackpoint>
          <Trackpoint>
            <Time>2019-10-05T12:43:16.000Z</Time>
            <Position>
              <LatitudeDegrees>41.8934868089854717254638671875</LatitudeDegrees>
              <LongitudeDegrees>-5.7049460895359516143798828125</LongitudeDegrees>
            </Position>
            <AltitudeMeters>621.20001220703125</AltitudeMeters>
            <DistanceMeters>NAN</DistanceMeters>
          </Trackpoint>
          <Trackpoint>
            <Time>2019-10-05T12:43:19.000Z</Time>
            <Position>
              <LatitudeDegrees>41.8934060074388980865478515625</LatitudeDegrees>
              <LongitudeDegrees>-5.70499889552593231201171875</LongitudeDegrees>
            </Position>
            <AltitudeMeters>621.20001220703125</AltitudeMeters>
            <DistanceMeters>NAN</DistanceMeters>
          </Trackpoint>
          <Trackpoint>
            <Time>2019-10-05T12:43:22.000Z</Time>
            <Position>
              <LatitudeDegrees>41.8933164887130260467529296875</LatitudeDegrees>
              <LongitudeDegrees>-5.70504927076399326324462890625</LongitudeDegrees>
            </Position>
            <AltitudeMeters>622.4000244140625</AltitudeMeters>
            <DistanceMeters>NAN</DistanceMeters>
          </Trackpoint>
          <Trackpoint>
            <Time>2019-10-05T12:43:29.000Z</Time>
            <Position>
              <LatitudeDegrees>41.89310803078114986419677734375</LatitudeDegrees>
              <LongitudeDegrees>-5.70518304593861103057861328125</LongitudeDegrees>
            </Position>
            <AltitudeMeters>622.79998779296875</AltitudeMeters>
            <DistanceMeters>NAN</DistanceMeters>
          </Trackpoint>
          <Trackpoint>
            <Time>2019-10-05T12:43:35.000Z</Time>
            <Position>
              <LatitudeDegrees>41.89292974770069122314453125</LatitudeDegrees>
              <LongitudeDegrees>-5.7052998058497905731201171875</LongitudeDegrees>
            </Position>
            <AltitudeMeters>623.4000244140625</AltitudeMeters>
            <DistanceMeters>NAN</DistanceMeters>
          </Trackpoint>
          <Trackpoint>
            <Time>2019-10-05T12:43:39.000Z</Time>
            <Position>
              <LatitudeDegrees>41.89280594699084758758544921875</LatitudeDegrees>
              <LongitudeDegrees>-5.7053806073963642120361328125</LongitudeDegrees>
            </Position>
            <AltitudeMeters>623.79998779296875</AltitudeMeters>
            <DistanceMeters>NAN</DistanceMeters>
          </Trackpoint>
          <Trackpoint>
            <Time>2019-10-05T12:43:44.000Z</Time>
            <Position>
              <LatitudeDegrees>41.8926492892205715179443359375</LatitudeDegrees>
              <LongitudeDegrees>-5.7054815255105495452880859375</LongitudeDegrees>
            </Position>
            <AltitudeMeters>624.79998779296875</AltitudeMeters>
            <DistanceMeters>NAN</DistanceMeters>
          </Trackpoint>
          <Trackpoint>
            <Time>2019-10-05T12:43:48.000Z</Time>
            <Position>
              <LatitudeDegrees>41.89252339303493499755859375</LatitudeDegrees>
              <LongitudeDegrees>-5.705560147762298583984375</LongitudeDegrees>
            </Position>
            <AltitudeMeters>624.79998779296875</AltitudeMeters>
            <DistanceMeters>NAN</DistanceMeters>
          </Trackpoint>
          <Trackpoint>
            <Time>2019-10-05T12:43:58.000Z</Time>
            <Position>
              <LatitudeDegrees>41.8921923078596591949462890625</LatitudeDegrees>
              <LongitudeDegrees>-5.70576600730419158935546875</LongitudeDegrees>
            </Position>
            <AltitudeMeters>625.5999755859375</AltitudeMeters>
            <DistanceMeters>NAN</DistanceMeters>
          </Trackpoint>
          <Trackpoint>
            <Time>2019-10-05T12:44:05.000Z</Time>
            <Position>
              <LatitudeDegrees>41.89195132814347743988037109375</LatitudeDegrees>
              <LongitudeDegrees>-5.70591981522738933563232421875</LongitudeDegrees>
            </Position>
            <AltitudeMeters>625.79998779296875</AltitudeMeters>
            <DistanceMeters>NAN</DistanceMeters>
          </Trackpoint>
          <Trackpoint>
            <Time>2019-10-05T12:44:09.000Z</Time>
            <Position>
              <LatitudeDegrees>41.8918137811124324798583984375</LatitudeDegrees>
              <LongitudeDegrees>-5.7060045562684535980224609375</LongitudeDegrees>
            </Position>
            <AltitudeMeters>626</AltitudeMeters>
            <DistanceMeters>NAN</DistanceMeters>
          </Trackpoint>
          <Trackpoint>
            <Time>2019-10-05T12:44:14.000Z</Time>
            <Position>
              <LatitudeDegrees>41.8916391022503376007080078125</LatitudeDegrees>
              <LongitudeDegrees>-5.70611394010484218597412109375</LongitudeDegrees>
            </Position>
            <AltitudeMeters>625.79998779296875</AltitudeMeters>
            <DistanceMeters>NAN</DistanceMeters>
          </Trackpoint>
          <Trackpoint>
            <Time>2019-10-05T12:44:21.000Z</Time>
            <Position>
              <LatitudeDegrees>41.89139418303966522216796875</LatitudeDegrees>
              <LongitudeDegrees>-5.70627034641802310943603515625</LongitudeDegrees>
            </Position>
            <AltitudeMeters>626</AltitudeMeters>
            <DistanceMeters>NAN</DistanceMeters>
          </Trackpoint>
          <Trackpoint>
            <Time>2019-10-05T12:44:26.000Z</Time>
            <Position>
              <LatitudeDegrees>41.8912210129201412200927734375</LatitudeDegrees>
              <LongitudeDegrees>-5.7063891179859638214111328125</LongitudeDegrees>
            </Position>
            <AltitudeMeters>626.20001220703125</AltitudeMeters>
            <DistanceMeters>NAN</DistanceMeters>
          </Trackpoint>
          <Trackpoint>
            <Time>2019-10-05T12:44:31.000Z</Time>
            <Position>
              <LatitudeDegrees>41.89104055054485797882080078125</LatitudeDegrees>
              <LongitudeDegrees>-5.70649766363203525543212890625</LongitudeDegrees>
            </Position>
            <AltitudeMeters>626.5999755859375</AltitudeMeters>
            <DistanceMeters>NAN</DistanceMeters>
          </Trackpoint>
          <Trackpoint>
            <Time>2019-10-05T12:44:39.000Z</Time>
            <Position>
              <LatitudeDegrees>41.89074466936290264129638671875</LatitudeDegrees>
              <LongitudeDegrees>-5.70668307133018970489501953125</LongitudeDegrees>
            </Position>
            <AltitudeMeters>626.4000244140625</AltitudeMeters>
            <DistanceMeters>NAN</DistanceMeters>
          </Trackpoint>
          <Trackpoint>
            <Time>2019-10-05T12:44:41.000Z</Time>
            <Position>
              <LatitudeDegrees>41.890670992434024810791015625</LatitudeDegrees>
              <LongitudeDegrees>-5.70673554204404354095458984375</LongitudeDegrees>
            </Position>
            <AltitudeMeters>626.4000244140625</AltitudeMeters>
            <DistanceMeters>NAN</DistanceMeters>
          </Trackpoint>
          <Trackpoint>
            <Time>2019-10-05T12:44:48.000Z</Time>
            <Position>
              <LatitudeDegrees>41.89039179123938083648681640625</LatitudeDegrees>
              <LongitudeDegrees>-5.706918351352214813232421875</LongitudeDegrees>
            </Position>
            <AltitudeMeters>626.4000244140625</AltitudeMeters>
            <DistanceMeters>NAN</DistanceMeters>
          </Trackpoint>
          <Trackpoint>
            <Time>2019-10-05T12:44:59.000Z</Time>
            <Position>
              <LatitudeDegrees>41.8899167887866497039794921875</LatitudeDegrees>
              <LongitudeDegrees>-5.70722806267440319061279296875</LongitudeDegrees>
            </Position>
            <AltitudeMeters>625.79998779296875</AltitudeMeters>
            <DistanceMeters>NAN</DistanceMeters>
          </Trackpoint>
          <Trackpoint>
            <Time>2019-10-05T12:45:08.000Z</Time>
            <Position>
              <LatitudeDegrees>41.8894918262958526611328125</LatitudeDegrees>
              <LongitudeDegrees>-5.70749812759459018707275390625</LongitudeDegrees>
            </Position>
            <AltitudeMeters>625.79998779296875</AltitudeMeters>
            <DistanceMeters>NAN</DistanceMeters>
          </Trackpoint>
          <Trackpoint>
            <Time>2019-10-05T12:45:10.000Z</Time>
            <Position>
              <LatitudeDegrees>41.8893947638571262359619140625</LatitudeDegrees>
              <LongitudeDegrees>-5.70755914784967899322509765625</LongitudeDegrees>
            </Position>
            <AltitudeMeters>625</AltitudeMeters>
            <DistanceMeters>NAN</DistanceMeters>
          </Trackpoint>
          <Trackpoint>
            <Time>2019-10-05T12:45:12.000Z</Time>
            <Position>
              <LatitudeDegrees>41.88929812051355838775634765625</LatitudeDegrees>
              <LongitudeDegrees>-5.70762201212346553802490234375</LongitudeDegrees>
            </Position>
            <AltitudeMeters>624.79998779296875</AltitudeMeters>
            <DistanceMeters>NAN</DistanceMeters>
          </Trackpoint>
          <Trackpoint>
            <Time>2019-10-05T12:45:20.000Z</Time>
            <Position>
              <LatitudeDegrees>41.88890567980706691741943359375</LatitudeDegrees>
              <LongitudeDegrees>-5.70787464268505573272705078125</LongitudeDegrees>
            </Position>
            <AltitudeMeters>625.20001220703125</AltitudeMeters>
            <DistanceMeters>NAN</DistanceMeters>
          </Trackpoint>
          <Trackpoint>
            <Time>2019-10-05T12:45:29.000Z</Time>
            <Position>
              <LatitudeDegrees>41.8884526379406452178955078125</LatitudeDegrees>
              <LongitudeDegrees>-5.70815493352711200714111328125</LongitudeDegrees>
            </Position>
            <AltitudeMeters>625</AltitudeMeters>
            <DistanceMeters>NAN</DistanceMeters>
          </Trackpoint>
          <Trackpoint>
            <Time>2019-10-05T12:45:39.000Z</Time>
            <Position>
              <LatitudeDegrees>41.88797478564083576202392578125</LatitudeDegrees>
              <LongitudeDegrees>-5.70846221409738063812255859375</LongitudeDegrees>
            </Position>
            <AltitudeMeters>625.20001220703125</AltitudeMeters>
            <DistanceMeters>NAN</DistanceMeters>
          </Trackpoint>
          <Trackpoint>
            <Time>2019-10-05T12:45:46.000Z</Time>
            <Position>
              <LatitudeDegrees>41.887666247785091400146484375</LatitudeDegrees>
              <LongitudeDegrees>-5.7086565904319286346435546875</LongitudeDegrees>
            </Position>
            <AltitudeMeters>625.79998779296875</AltitudeMeters>
            <DistanceMeters>NAN</DistanceMeters>
          </Trackpoint>
          <Trackpoint>
            <Time>2019-10-05T12:45:48.000Z</Time>
            <Position>
              <LatitudeDegrees>41.887589134275913238525390625</LatitudeDegrees>
              <LongitudeDegrees>-5.7087068818509578704833984375</LongitudeDegrees>
            </Position>
            <AltitudeMeters>626</AltitudeMeters>
            <DistanceMeters>NAN</DistanceMeters>
          </Trackpoint>
          <Trackpoint>
            <Time>2019-10-05T12:45:50.000Z</Time>
            <Position>
              <LatitudeDegrees>41.8875426985323429107666015625</LatitudeDegrees>
              <LongitudeDegrees>-5.70871568284928798675537109375</LongitudeDegrees>
            </Position>
            <AltitudeMeters>626.5999755859375</AltitudeMeters>
            <DistanceMeters>NAN</DistanceMeters>
          </Trackpoint>
          <Trackpoint>
            <Time>2019-10-05T12:45:53.000Z</Time>
            <Position>
              <LatitudeDegrees>41.8875611387193202972412109375</LatitudeDegrees>
              <LongitudeDegrees>-5.70865097455680370330810546875</LongitudeDegrees>
            </Position>
            <AltitudeMeters>626.4000244140625</AltitudeMeters>
            <DistanceMeters>NAN</DistanceMeters>
          </Trackpoint>
          <Trackpoint>
            <Time>2019-10-05T12:45:55.000Z</Time>
            <Position>
              <LatitudeDegrees>41.88761067576706409454345703125</LatitudeDegrees>
              <LongitudeDegrees>-5.7086113281548023223876953125</LongitudeDegrees>
            </Position>
            <AltitudeMeters>626</AltitudeMeters>
            <DistanceMeters>NAN</DistanceMeters>
          </Trackpoint>
          <Trackpoint>
            <Time>2019-10-05T12:45:59.000Z</Time>
            <Position>
              <LatitudeDegrees>41.88772064633667469024658203125</LatitudeDegrees>
              <LongitudeDegrees>-5.708518289029598236083984375</LongitudeDegrees>
            </Position>
            <AltitudeMeters>626</AltitudeMeters>
            <DistanceMeters>NAN</DistanceMeters>
          </Trackpoint>
          <Trackpoint>
            <Time>2019-10-05T12:46:02.000Z</Time>
            <Position>
              <LatitudeDegrees>41.8877069838345050811767578125</LatitudeDegrees>
              <LongitudeDegrees>-5.70843807421624660491943359375</LongitudeDegrees>
            </Position>
            <AltitudeMeters>626.4000244140625</AltitudeMeters>
            <DistanceMeters>NAN</DistanceMeters>
          </Trackpoint>
          <Trackpoint>
            <Time>2019-10-05T12:46:04.000Z</Time>
            <Position>
              <LatitudeDegrees>41.88766918145120143890380859375</LatitudeDegrees>
              <LongitudeDegrees>-5.708417706191539764404296875</LongitudeDegrees>
            </Position>
            <AltitudeMeters>626.5999755859375</AltitudeMeters>
            <DistanceMeters>NAN</DistanceMeters>
          </Trackpoint>
          <Trackpoint>
            <Time>2019-10-05T12:46:06.000Z</Time>
            <Position>
              <LatitudeDegrees>41.8876409344375133514404296875</LatitudeDegrees>
              <LongitudeDegrees>-5.708400942385196685791015625</LongitudeDegrees>
            </Position>
            <AltitudeMeters>626.4000244140625</AltitudeMeters>
            <DistanceMeters>NAN</DistanceMeters>
          </Trackpoint>
          <Trackpoint>
            <Time>2019-10-05T12:46:08.000Z</Time>
            <Position>
              <LatitudeDegrees>41.887642107903957366943359375</LatitudeDegrees>
              <LongitudeDegrees>-5.708401612937450408935546875</LongitudeDegrees>
            </Position>
            <AltitudeMeters>626.5999755859375</AltitudeMeters>
            <DistanceMeters>NAN</DistanceMeters>
          </Trackpoint>
          <Trackpoint>
            <Time>2019-10-05T12:46:15.000Z</Time>
            <Position>
              <LatitudeDegrees>41.887642107903957366943359375</LatitudeDegrees>
              <LongitudeDegrees>-5.708401612937450408935546875</LongitudeDegrees>
            </Position>
            <AltitudeMeters>626.79998779296875</AltitudeMeters>
            <DistanceMeters>NAN</DistanceMeters>
          </Trackpoint>
          <Trackpoint>
            <Time>2019-10-05T12:46:17.000Z</Time>
            <Position>
              <LatitudeDegrees>41.88764118589460849761962890625</LatitudeDegrees>
              <LongitudeDegrees>-5.70840069092810153961181640625</LongitudeDegrees>
            </Position>
            <AltitudeMeters>626.79998779296875</AltitudeMeters>
            <DistanceMeters>NAN</DistanceMeters>
          </Trackpoint>
          <Trackpoint>
            <Time>2019-10-05T12:46:22.000Z</Time>
            <Position>
              <LatitudeDegrees>41.88764085061848163604736328125</LatitudeDegrees>
              <LongitudeDegrees>-5.7084004394710063934326171875</LongitudeDegrees>
            </Position>
            <AltitudeMeters>626.4000244140625</AltitudeMeters>
            <DistanceMeters>NAN</DistanceMeters>
          </Trackpoint>
          <Trackpoint>
            <Time>2019-10-05T12:46:28.000Z</Time>
            <Position>
              <LatitudeDegrees>41.88762727193534374237060546875</LatitudeDegrees>
              <LongitudeDegrees>-5.708382837474346160888671875</LongitudeDegrees>
            </Position>
            <AltitudeMeters>626.79998779296875</AltitudeMeters>
            <DistanceMeters>NAN</DistanceMeters>
          </Trackpoint>
          <Trackpoint>
            <Time>2019-10-05T12:46:34.000Z</Time>
            <Position>
              <LatitudeDegrees>41.8876291997730731964111328125</LatitudeDegrees>
              <LongitudeDegrees>-5.70838510058820247650146484375</LongitudeDegrees>
            </Position>
            <AltitudeMeters>626.79998779296875</AltitudeMeters>
            <DistanceMeters>NAN</DistanceMeters>
          </Trackpoint>
          <Trackpoint>
            <Time>2019-10-05T12:46:45.000Z</Time>
            <Position>
              <LatitudeDegrees>41.8876291997730731964111328125</LatitudeDegrees>
              <LongitudeDegrees>-5.70838510058820247650146484375</LongitudeDegrees>
            </Position>
            <AltitudeMeters>626.79998779296875</AltitudeMeters>
            <DistanceMeters>NAN</DistanceMeters>
          </Trackpoint>
          <Trackpoint>
            <Time>2019-10-05T12:46:52.000Z</Time>
            <Position>
              <LatitudeDegrees>41.8876291997730731964111328125</LatitudeDegrees>
              <LongitudeDegrees>-5.70838510058820247650146484375</LongitudeDegrees>
            </Position>
            <AltitudeMeters>626.5999755859375</AltitudeMeters>
            <DistanceMeters>NAN</DistanceMeters>
          </Trackpoint>
          <Trackpoint>
            <Time>2019-10-05T12:47:01.000Z</Time>
            <Position>
              <LatitudeDegrees>41.8876291997730731964111328125</LatitudeDegrees>
              <LongitudeDegrees>-5.70838510058820247650146484375</LongitudeDegrees>
            </Position>
            <AltitudeMeters>626.79998779296875</AltitudeMeters>
            <DistanceMeters>NAN</DistanceMeters>
          </Trackpoint>
          <Trackpoint>
            <Time>2019-10-05T12:47:06.000Z</Time>
            <Position>
              <LatitudeDegrees>41.88762710429728031158447265625</LatitudeDegrees>
              <LongitudeDegrees>-5.70838275365531444549560546875</LongitudeDegrees>
            </Position>
            <AltitudeMeters>627</AltitudeMeters>
            <DistanceMeters>NAN</DistanceMeters>
          </Trackpoint>
          <Trackpoint>
            <Time>2019-10-05T12:47:08.000Z</Time>
            <Position>
              <LatitudeDegrees>41.88762710429728031158447265625</LatitudeDegrees>
              <LongitudeDegrees>-5.70838275365531444549560546875</LongitudeDegrees>
            </Position>
            <AltitudeMeters>627</AltitudeMeters>
            <DistanceMeters>NAN</DistanceMeters>
          </Trackpoint>
          <Trackpoint>
            <Time>2019-10-05T12:47:14.000Z</Time>
            <Position>
              <LatitudeDegrees>41.88762710429728031158447265625</LatitudeDegrees>
              <LongitudeDegrees>-5.70838275365531444549560546875</LongitudeDegrees>
            </Position>
            <AltitudeMeters>627</AltitudeMeters>
            <DistanceMeters>NAN</DistanceMeters>
          </Trackpoint>
          <Trackpoint>
            <Time>2019-10-05T12:47:18.000Z</Time>
            <Position>
              <LatitudeDegrees>41.88762710429728031158447265625</LatitudeDegrees>
              <LongitudeDegrees>-5.70838275365531444549560546875</LongitudeDegrees>
            </Position>
            <AltitudeMeters>626.79998779296875</AltitudeMeters>
            <DistanceMeters>NAN</DistanceMeters>
          </Trackpoint>
          <Trackpoint>
            <Time>2019-10-05T12:47:22.000Z</Time>
            <Position>
              <LatitudeDegrees>41.88762710429728031158447265625</LatitudeDegrees>
              <LongitudeDegrees>-5.70838275365531444549560546875</LongitudeDegrees>
            </Position>
            <AltitudeMeters>626.79998779296875</AltitudeMeters>
            <DistanceMeters>NAN</DistanceMeters>
          </Trackpoint>
          <Trackpoint>
            <Time>2019-10-05T12:47:30.000Z</Time>
            <Position>
              <LatitudeDegrees>41.88762710429728031158447265625</LatitudeDegrees>
              <LongitudeDegrees>-5.70838275365531444549560546875</LongitudeDegrees>
            </Position>
            <AltitudeMeters>626.79998779296875</AltitudeMeters>
            <DistanceMeters>NAN</DistanceMeters>
          </Trackpoint>
          <Trackpoint>
            <Time>2019-10-05T12:47:41.000Z</Time>
            <Position>
              <LatitudeDegrees>41.8876278586685657501220703125</LatitudeDegrees>
              <LongitudeDegrees>-5.7083830051124095916748046875</LongitudeDegrees>
            </Position>
            <AltitudeMeters>627</AltitudeMeters>
            <DistanceMeters>NAN</DistanceMeters>
          </Trackpoint>
          <Trackpoint>
            <Time>2019-10-05T12:47:47.000Z</Time>
            <Position>
              <LatitudeDegrees>41.887640766799449920654296875</LatitudeDegrees>
              <LongitudeDegrees>-5.70840672589838504791259765625</LongitudeDegrees>
            </Position>
            <AltitudeMeters>626.5999755859375</AltitudeMeters>
            <DistanceMeters>NAN</DistanceMeters>
          </Trackpoint>
          <Trackpoint>
            <Time>2019-10-05T12:47:52.000Z</Time>
            <Position>
              <LatitudeDegrees>41.88764512538909912109375</LatitudeDegrees>
              <LongitudeDegrees>-5.7084104977548122406005859375</LongitudeDegrees>
            </Position>
            <AltitudeMeters>626.5999755859375</AltitudeMeters>
            <DistanceMeters>NAN</DistanceMeters>
          </Trackpoint>
          <Trackpoint>
            <Time>2019-10-05T12:47:53.000Z</Time>
            <Position>
              <LatitudeDegrees>41.88764512538909912109375</LatitudeDegrees>
              <LongitudeDegrees>-5.7084104977548122406005859375</LongitudeDegrees>
            </Position>
            <AltitudeMeters>626.5999755859375</AltitudeMeters>
            <DistanceMeters>NAN</DistanceMeters>
          </Trackpoint>
          <Trackpoint>
            <Time>2019-10-05T12:48:02.000Z</Time>
            <Position>
              <LatitudeDegrees>41.88764512538909912109375</LatitudeDegrees>
              <LongitudeDegrees>-5.7084104977548122406005859375</LongitudeDegrees>
            </Position>
            <AltitudeMeters>626.79998779296875</AltitudeMeters>
            <DistanceMeters>NAN</DistanceMeters>
          </Trackpoint>
          <Trackpoint>
            <Time>2019-10-05T12:48:27.000Z</Time>
            <Position>
              <LatitudeDegrees>41.88764512538909912109375</LatitudeDegrees>
              <LongitudeDegrees>-5.7084104977548122406005859375</LongitudeDegrees>
            </Position>
            <AltitudeMeters>626.79998779296875</AltitudeMeters>
            <DistanceMeters>NAN</DistanceMeters>
          </Trackpoint>
          <Trackpoint>
            <Time>2019-10-05T12:48:31.000Z</Time>
            <Position>
              <LatitudeDegrees>41.8876456283032894134521484375</LatitudeDegrees>
              <LongitudeDegrees>-5.70841007865965366363525390625</LongitudeDegrees>
            </Position>
            <AltitudeMeters>626.4000244140625</AltitudeMeters>
            <DistanceMeters>NAN</DistanceMeters>
          </Trackpoint>
          <Trackpoint>
            <Time>2019-10-05T12:48:37.000Z</Time>
            <Position>
              <LatitudeDegrees>41.88764638267457485198974609375</LatitudeDegrees>
              <LongitudeDegrees>-5.7084104977548122406005859375</LongitudeDegrees>
            </Position>
            <AltitudeMeters>626.79998779296875</AltitudeMeters>
            <DistanceMeters>NAN</DistanceMeters>
          </Trackpoint>
          <Trackpoint>
            <Time>2019-10-05T12:48:43.000Z</Time>
            <Position>
              <LatitudeDegrees>41.8876597099006175994873046875</LatitudeDegrees>
              <LongitudeDegrees>-5.70841393433511257171630859375</LongitudeDegrees>
            </Position>
            <AltitudeMeters>626.5999755859375</AltitudeMeters>
            <DistanceMeters>NAN</DistanceMeters>
          </Trackpoint>
          <Trackpoint>
            <Time>2019-10-05T12:48:48.000Z</Time>
            <Position>
              <LatitudeDegrees>41.88773053698241710662841796875</LatitudeDegrees>
              <LongitudeDegrees>-5.70843840949237346649169921875</LongitudeDegrees>
            </Position>
            <AltitudeMeters>626.20001220703125</AltitudeMeters>
            <DistanceMeters>NAN</DistanceMeters>
          </Trackpoint>
          <Trackpoint>
            <Time>2019-10-05T12:48:49.000Z</Time>
            <Position>
              <LatitudeDegrees>41.88774126581847667694091796875</LatitudeDegrees>
              <LongitudeDegrees>-5.70845517329871654510498046875</LongitudeDegrees>
            </Position>
            <AltitudeMeters>626.20001220703125</AltitudeMeters>
            <DistanceMeters>NAN</DistanceMeters>
          </Trackpoint>
          <Trackpoint>
            <Time>2019-10-05T12:48:52.000Z</Time>
            <Position>
              <LatitudeDegrees>41.88773523084819316864013671875</LatitudeDegrees>
              <LongitudeDegrees>-5.70851049385964870452880859375</LongitudeDegrees>
            </Position>
            <AltitudeMeters>626.5999755859375</AltitudeMeters>
            <DistanceMeters>NAN</DistanceMeters>
          </Trackpoint>
          <Trackpoint>
            <Time>2019-10-05T12:48:53.000Z</Time>
            <Position>
              <LatitudeDegrees>41.88772483728826045989990234375</LatitudeDegrees>
              <LongitudeDegrees>-5.7085335440933704376220703125</LongitudeDegrees>
            </Position>
            <AltitudeMeters>626.4000244140625</AltitudeMeters>
            <DistanceMeters>NAN</DistanceMeters>
          </Trackpoint>
          <Trackpoint>
            <Time>2019-10-05T12:48:59.000Z</Time>
            <Position>
              <LatitudeDegrees>41.88762023113667964935302734375</LatitudeDegrees>
              <LongitudeDegrees>-5.7086726836860179901123046875</LongitudeDegrees>
            </Position>
            <AltitudeMeters>626.79998779296875</AltitudeMeters>
            <DistanceMeters>NAN</DistanceMeters>
          </Trackpoint>
          <Trackpoint>
            <Time>2019-10-05T12:49:03.000Z</Time>
            <Position>
              <LatitudeDegrees>41.88751176930963993072509765625</LatitudeDegrees>
              <LongitudeDegrees>-5.7087571732699871063232421875</LongitudeDegrees>
            </Position>
            <AltitudeMeters>626.79998779296875</AltitudeMeters>
            <DistanceMeters>NAN</DistanceMeters>
          </Trackpoint>
          <Trackpoint>
            <Time>2019-10-05T12:49:05.000Z</Time>
            <Position>
              <LatitudeDegrees>41.88744555227458477020263671875</LatitudeDegrees>
              <LongitudeDegrees>-5.7087970711290836334228515625</LongitudeDegrees>
            </Position>
            <AltitudeMeters>627</AltitudeMeters>
            <DistanceMeters>NAN</DistanceMeters>
          </Trackpoint>
          <Trackpoint>
            <Time>2019-10-05T12:49:12.000Z</Time>
            <Position>
              <LatitudeDegrees>41.88719593919813632965087890625</LatitudeDegrees>
              <LongitudeDegrees>-5.70895758457481861114501953125</LongitudeDegrees>
            </Position>
            <AltitudeMeters>626.79998779296875</AltitudeMeters>
            <DistanceMeters>NAN</DistanceMeters>
          </Trackpoint>
          <Trackpoint>
            <Time>2019-10-05T12:49:17.000Z</Time>
            <Position>
              <LatitudeDegrees>41.88701941631734371185302734375</LatitudeDegrees>
              <LongitudeDegrees>-5.7090698182582855224609375</LongitudeDegrees>
            </Position>
            <AltitudeMeters>626.79998779296875</AltitudeMeters>
            <DistanceMeters>NAN</DistanceMeters>
          </Trackpoint>
          <Trackpoint>
            <Time>2019-10-05T12:49:21.000Z</Time>
            <Position>
              <LatitudeDegrees>41.88687055371701717376708984375</LatitudeDegrees>
              <LongitudeDegrees>-5.70916059426963329315185546875</LongitudeDegrees>
            </Position>
            <AltitudeMeters>626.5999755859375</AltitudeMeters>
            <DistanceMeters>NAN</DistanceMeters>
          </Trackpoint>
          <Trackpoint>
            <Time>2019-10-05T12:49:26.000Z</Time>
            <Position>
              <LatitudeDegrees>41.88666419126093387603759765625</LatitudeDegrees>
              <LongitudeDegrees>-5.7092989794909954071044921875</LongitudeDegrees>
            </Position>
            <AltitudeMeters>625.79998779296875</AltitudeMeters>
            <DistanceMeters>NAN</DistanceMeters>
          </Trackpoint>
          <Trackpoint>
            <Time>2019-10-05T12:49:28.000Z</Time>
            <Position>
              <LatitudeDegrees>41.8865717388689517974853515625</LatitudeDegrees>
              <LongitudeDegrees>-5.70936008356511592864990234375</LongitudeDegrees>
            </Position>
            <AltitudeMeters>625.5999755859375</AltitudeMeters>
            <DistanceMeters>NAN</DistanceMeters>
          </Trackpoint>
          <Trackpoint>
            <Time>2019-10-05T12:49:33.000Z</Time>
            <Position>
              <LatitudeDegrees>41.88632857985794544219970703125</LatitudeDegrees>
              <LongitudeDegrees>-5.7095135562121868133544921875</LongitudeDegrees>
            </Position>
            <AltitudeMeters>624.5999755859375</AltitudeMeters>
            <DistanceMeters>NAN</DistanceMeters>
          </Trackpoint>
          <Trackpoint>
            <Time>2019-10-05T12:49:35.000Z</Time>
            <Position>
              <LatitudeDegrees>41.88622665591537952423095703125</LatitudeDegrees>
              <LongitudeDegrees>-5.70957818068563938140869140625</LongitudeDegrees>
            </Position>
            <AltitudeMeters>624.20001220703125</AltitudeMeters>
            <DistanceMeters>NAN</DistanceMeters>
          </Trackpoint>
          <Trackpoint>
            <Time>2019-10-05T12:49:37.000Z</Time>
            <Position>
              <LatitudeDegrees>41.8861194513738155364990234375</LatitudeDegrees>
              <LongitudeDegrees>-5.70964406244456768035888671875</LongitudeDegrees>
            </Position>
            <AltitudeMeters>623.5999755859375</AltitudeMeters>
            <DistanceMeters>NAN</DistanceMeters>
          </Trackpoint>
          <Trackpoint>
            <Time>2019-10-05T12:49:40.000Z</Time>
            <Position>
              <LatitudeDegrees>41.8859481252729892730712890625</LatitudeDegrees>
              <LongitudeDegrees>-5.70975034497678279876708984375</LongitudeDegrees>
            </Position>
            <AltitudeMeters>622.79998779296875</AltitudeMeters>
            <DistanceMeters>NAN</DistanceMeters>
          </Trackpoint>
          <Trackpoint>
            <Time>2019-10-05T12:49:41.000Z</Time>
            <Position>
              <LatitudeDegrees>41.88588769175112247467041015625</LatitudeDegrees>
              <LongitudeDegrees>-5.70978705771267414093017578125</LongitudeDegrees>
            </Position>
            <AltitudeMeters>622.4000244140625</AltitudeMeters>
            <DistanceMeters>NAN</DistanceMeters>
          </Trackpoint>
          <Trackpoint>
            <Time>2019-10-05T12:49:43.000Z</Time>
            <Position>
              <LatitudeDegrees>41.88576078973710536956787109375</LatitudeDegrees>
              <LongitudeDegrees>-5.7098583877086639404296875</LongitudeDegrees>
            </Position>
            <AltitudeMeters>621.79998779296875</AltitudeMeters>
            <DistanceMeters>NAN</DistanceMeters>
          </Trackpoint>
          <Trackpoint>
            <Time>2019-10-05T12:49:44.000Z</Time>
            <Position>
              <LatitudeDegrees>41.88569373451173305511474609375</LatitudeDegrees>
              <LongitudeDegrees>-5.709896273910999298095703125</LongitudeDegrees>
            </Position>
            <AltitudeMeters>621.4000244140625</AltitudeMeters>
            <DistanceMeters>NAN</DistanceMeters>
          </Trackpoint>
          <Trackpoint>
            <Time>2019-10-05T12:49:45.000Z</Time>
            <Position>
              <LatitudeDegrees>41.8856249190866947174072265625</LatitudeDegrees>
              <LongitudeDegrees>-5.70993357338011264801025390625</LongitudeDegrees>
            </Position>
            <AltitudeMeters>621.20001220703125</AltitudeMeters>
            <DistanceMeters>NAN</DistanceMeters>
          </Trackpoint>
          <Trackpoint>
            <Time>2019-10-05T12:49:46.000Z</Time>
            <Position>
              <LatitudeDegrees>41.885550655424594879150390625</LatitudeDegrees>
              <LongitudeDegrees>-5.70996995083987712860107421875</LongitudeDegrees>
            </Position>
            <AltitudeMeters>620.4000244140625</AltitudeMeters>
            <DistanceMeters>NAN</DistanceMeters>
          </Trackpoint>
          <Trackpoint>
            <Time>2019-10-05T12:49:48.000Z</Time>
            <Position>
              <LatitudeDegrees>41.88539835624396800994873046875</LatitudeDegrees>
              <LongitudeDegrees>-5.71003801189363002777099609375</LongitudeDegrees>
            </Position>
            <AltitudeMeters>619.4000244140625</AltitudeMeters>
            <DistanceMeters>NAN</DistanceMeters>
          </Trackpoint>
          <Trackpoint>
            <Time>2019-10-05T12:49:50.000Z</Time>
            <Position>
              <LatitudeDegrees>41.88523440621793270111083984375</LatitudeDegrees>
              <LongitudeDegrees>-5.71010339073836803436279296875</LongitudeDegrees>
            </Position>
            <AltitudeMeters>618.20001220703125</AltitudeMeters>
            <DistanceMeters>NAN</DistanceMeters>
          </Trackpoint>
          <Trackpoint>
            <Time>2019-10-05T12:49:51.000Z</Time>
            <Position>
              <LatitudeDegrees>41.8851484917104244232177734375</LatitudeDegrees>
              <LongitudeDegrees>-5.71013524197041988372802734375</LongitudeDegrees>
            </Position>
            <AltitudeMeters>617.20001220703125</AltitudeMeters>
            <DistanceMeters>NAN</DistanceMeters>
          </Trackpoint>
          <Trackpoint>
            <Time>2019-10-05T12:49:53.000Z</Time>
            <Position>
              <LatitudeDegrees>41.88496987335383892059326171875</LatitudeDegrees>
              <LongitudeDegrees>-5.71019433438777923583984375</LongitudeDegrees>
            </Position>
            <AltitudeMeters>616</AltitudeMeters>
            <DistanceMeters>NAN</DistanceMeters>
          </Trackpoint>
          <Trackpoint>
            <Time>2019-10-05T12:49:55.000Z</Time>
            <Position>
              <LatitudeDegrees>41.8847833760082721710205078125</LatitudeDegrees>
              <LongitudeDegrees>-5.71024336852133274078369140625</LongitudeDegrees>
            </Position>
            <AltitudeMeters>614.20001220703125</AltitudeMeters>
            <DistanceMeters>NAN</DistanceMeters>
          </Trackpoint>
          <Trackpoint>
            <Time>2019-10-05T12:49:56.000Z</Time>
            <Position>
              <LatitudeDegrees>41.88468731939792633056640625</LatitudeDegrees>
              <LongitudeDegrees>-5.710267089307308197021484375</LongitudeDegrees>
            </Position>
            <AltitudeMeters>613.5999755859375</AltitudeMeters>
            <DistanceMeters>NAN</DistanceMeters>
          </Trackpoint>
          <Trackpoint>
            <Time>2019-10-05T12:49:57.000Z</Time>
            <Position>
              <LatitudeDegrees>41.88458933494985103607177734375</LatitudeDegrees>
              <LongitudeDegrees>-5.71028678677976131439208984375</LongitudeDegrees>
            </Position>
            <AltitudeMeters>613</AltitudeMeters>
            <DistanceMeters>NAN</DistanceMeters>
          </Trackpoint>
          <Trackpoint>
            <Time>2019-10-05T12:49:59.000Z</Time>
            <Position>
              <LatitudeDegrees>41.884389929473400115966796875</LatitudeDegrees>
              <LongitudeDegrees>-5.7103198952972888946533203125</LongitudeDegrees>
            </Position>
            <AltitudeMeters>611.5999755859375</AltitudeMeters>
            <DistanceMeters>NAN</DistanceMeters>
          </Trackpoint>
          <Trackpoint>
            <Time>2019-10-05T12:50:01.000Z</Time>
            <Position>
              <LatitudeDegrees>41.8841850757598876953125</LatitudeDegrees>
              <LongitudeDegrees>-5.710338838398456573486328125</LongitudeDegrees>
            </Position>
            <AltitudeMeters>610.4000244140625</AltitudeMeters>
            <DistanceMeters>NAN</DistanceMeters>
          </Trackpoint>
          <Trackpoint>
            <Time>2019-10-05T12:50:02.000Z</Time>
            <Position>
              <LatitudeDegrees>41.8840818107128143310546875</LatitudeDegrees>
              <LongitudeDegrees>-5.71034529246389865875244140625</LongitudeDegrees>
            </Position>
            <AltitudeMeters>609.4000244140625</AltitudeMeters>
            <DistanceMeters>NAN</DistanceMeters>
          </Trackpoint>
          <Trackpoint>
            <Time>2019-10-05T12:50:04.000Z</Time>
            <Position>
              <LatitudeDegrees>41.883874274790287017822265625</LatitudeDegrees>
              <LongitudeDegrees>-5.71034881286323070526123046875</LongitudeDegrees>
            </Position>
            <AltitudeMeters>608.20001220703125</AltitudeMeters>
            <DistanceMeters>NAN</DistanceMeters>
          </Trackpoint>
          <Trackpoint>
            <Time>2019-10-05T12:50:06.000Z</Time>
            <Position>
              <LatitudeDegrees>41.8836635537445545196533203125</LatitudeDegrees>
              <LongitudeDegrees>-5.71033992804586887359619140625</LongitudeDegrees>
            </Position>
            <AltitudeMeters>607</AltitudeMeters>
            <DistanceMeters>NAN</DistanceMeters>
          </Trackpoint>
          <Trackpoint>
            <Time>2019-10-05T12:50:09.000Z</Time>
            <Position>
              <LatitudeDegrees>41.88335015438497066497802734375</LatitudeDegrees>
              <LongitudeDegrees>-5.71031159721314907073974609375</LongitudeDegrees>
            </Position>
            <AltitudeMeters>605.79998779296875</AltitudeMeters>
            <DistanceMeters>NAN</DistanceMeters>
          </Trackpoint>
          <Trackpoint>
            <Time>2019-10-05T12:50:14.000Z</Time>
            <Position>
              <LatitudeDegrees>41.88285310752689838409423828125</LatitudeDegrees>
              <LongitudeDegrees>-5.71025258861482143402099609375</LongitudeDegrees>
            </Position>
            <AltitudeMeters>605.20001220703125</AltitudeMeters>
            <DistanceMeters>NAN</DistanceMeters>
          </Trackpoint>
          <Trackpoint>
            <Time>2019-10-05T12:50:16.000Z</Time>
            <Position>
              <LatitudeDegrees>41.8826656043529510498046875</LatitudeDegrees>
              <LongitudeDegrees>-5.7102300412952899932861328125</LongitudeDegrees>
            </Position>
            <AltitudeMeters>606</AltitudeMeters>
            <DistanceMeters>NAN</DistanceMeters>
          </Trackpoint>
          <Trackpoint>
            <Time>2019-10-05T12:50:22.000Z</Time>
            <Position>
              <LatitudeDegrees>41.8821581639349460601806640625</LatitudeDegrees>
              <LongitudeDegrees>-5.71017128415405750274658203125</LongitudeDegrees>
            </Position>
            <AltitudeMeters>606.79998779296875</AltitudeMeters>
            <DistanceMeters>NAN</DistanceMeters>
          </Trackpoint>
          <Trackpoint>
            <Time>2019-10-05T12:50:26.000Z</Time>
            <Position>
              <LatitudeDegrees>41.88186169601976871490478515625</LatitudeDegrees>
              <LongitudeDegrees>-5.71013054810464382171630859375</LongitudeDegrees>
            </Position>
            <AltitudeMeters>607.4000244140625</AltitudeMeters>
            <DistanceMeters>NAN</DistanceMeters>
          </Trackpoint>
          <Trackpoint>
            <Time>2019-10-05T12:50:29.000Z</Time>
            <Position>
              <LatitudeDegrees>41.881656758487224578857421875</LatitudeDegrees>
              <LongitudeDegrees>-5.7100979425013065338134765625</LongitudeDegrees>
            </Position>
            <AltitudeMeters>608.20001220703125</AltitudeMeters>
            <DistanceMeters>NAN</DistanceMeters>
          </Trackpoint>
          <Trackpoint>
            <Time>2019-10-05T12:50:34.000Z</Time>
            <Position>
              <LatitudeDegrees>41.88135492615401744842529296875</LatitudeDegrees>
              <LongitudeDegrees>-5.71004220284521579742431640625</LongitudeDegrees>
            </Position>
            <AltitudeMeters>609</AltitudeMeters>
            <DistanceMeters>NAN</DistanceMeters>
          </Trackpoint>
          <Trackpoint>
            <Time>2019-10-05T12:50:36.000Z</Time>
            <Position>
              <LatitudeDegrees>41.88124948181211948394775390625</LatitudeDegrees>
              <LongitudeDegrees>-5.7100141234695911407470703125</LongitudeDegrees>
            </Position>
            <AltitudeMeters>609.20001220703125</AltitudeMeters>
            <DistanceMeters>NAN</DistanceMeters>
          </Trackpoint>
          <Trackpoint>
            <Time>2019-10-05T12:50:39.000Z</Time>
            <Position>
              <LatitudeDegrees>41.8811018764972686767578125</LatitudeDegrees>
              <LongitudeDegrees>-5.70996223948895931243896484375</LongitudeDegrees>
            </Position>
            <AltitudeMeters>609.5999755859375</AltitudeMeters>
            <DistanceMeters>NAN</DistanceMeters>
          </Trackpoint>
          <Trackpoint>
            <Time>2019-10-05T12:50:42.000Z</Time>
            <Position>
              <LatitudeDegrees>41.88097489066421985626220703125</LatitudeDegrees>
              <LongitudeDegrees>-5.70990306325256824493408203125</LongitudeDegrees>
            </Position>
            <AltitudeMeters>610.20001220703125</AltitudeMeters>
            <DistanceMeters>NAN</DistanceMeters>
          </Trackpoint>
          <Trackpoint>
            <Time>2019-10-05T12:50:43.000Z</Time>
            <Position>
              <LatitudeDegrees>41.880933903157711029052734375</LatitudeDegrees>
              <LongitudeDegrees>-5.70988227613270282745361328125</LongitudeDegrees>
            </Position>
            <AltitudeMeters>610.4000244140625</AltitudeMeters>
            <DistanceMeters>NAN</DistanceMeters>
          </Trackpoint>
          <Trackpoint>
            <Time>2019-10-05T12:50:47.000Z</Time>
            <Position>
              <LatitudeDegrees>41.88078579492866992950439453125</LatitudeDegrees>
              <LongitudeDegrees>-5.70979041047394275665283203125</LongitudeDegrees>
            </Position>
            <AltitudeMeters>611.4000244140625</AltitudeMeters>
            <DistanceMeters>NAN</DistanceMeters>
          </Trackpoint>
          <Trackpoint>
            <Time>2019-10-05T12:50:50.000Z</Time>
            <Position>
              <LatitudeDegrees>41.8806842900812625885009765625</LatitudeDegrees>
              <LongitudeDegrees>-5.70971782319247722625732421875</LongitudeDegrees>
            </Position>
            <AltitudeMeters>611.79998779296875</AltitudeMeters>
            <DistanceMeters>NAN</DistanceMeters>
          </Trackpoint>
          <Trackpoint>
            <Time>2019-10-05T12:50:51.000Z</Time>
            <Position>
              <LatitudeDegrees>41.88065151683986186981201171875</LatitudeDegrees>
              <LongitudeDegrees>-5.70969217456877231597900390625</LongitudeDegrees>
            </Position>
            <AltitudeMeters>612</AltitudeMeters>
            <DistanceMeters>NAN</DistanceMeters>
          </Trackpoint>
          <Trackpoint>
            <Time>2019-10-05T12:50:52.000Z</Time>
            <Position>
              <LatitudeDegrees>41.88062033616006374359130859375</LatitudeDegrees>
              <LongitudeDegrees>-5.70966686122119426727294921875</LongitudeDegrees>
            </Position>
            <AltitudeMeters>612.4000244140625</AltitudeMeters>
            <DistanceMeters>NAN</DistanceMeters>
          </Trackpoint>
          <Trackpoint>
            <Time>2019-10-05T12:50:56.000Z</Time>
            <Position>
              <LatitudeDegrees>41.88049712218344211578369140625</LatitudeDegrees>
              <LongitudeDegrees>-5.70955437608063220977783203125</LongitudeDegrees>
            </Position>
            <AltitudeMeters>613</AltitudeMeters>
            <DistanceMeters>NAN</DistanceMeters>
          </Trackpoint>
          <Trackpoint>
            <Time>2019-10-05T12:50:58.000Z</Time>
            <Position>
              <LatitudeDegrees>41.88043476082384586334228515625</LatitudeDegrees>
              <LongitudeDegrees>-5.7095031626522541046142578125</LongitudeDegrees>
            </Position>
            <AltitudeMeters>613.4000244140625</AltitudeMeters>
            <DistanceMeters>NAN</DistanceMeters>
          </Trackpoint>
          <Trackpoint>
            <Time>2019-10-05T12:50:59.000Z</Time>
            <Position>
              <LatitudeDegrees>41.88040508888661861419677734375</LatitudeDegrees>
              <LongitudeDegrees>-5.7094763405621051788330078125</LongitudeDegrees>
            </Position>
            <AltitudeMeters>614</AltitudeMeters>
            <DistanceMeters>NAN</DistanceMeters>
          </Trackpoint>
          <Trackpoint>
            <Time>2019-10-05T12:51:02.000Z</Time>
            <Position>
              <LatitudeDegrees>41.88031171448528766632080078125</LatitudeDegrees>
              <LongitudeDegrees>-5.70940501056611537933349609375</LongitudeDegrees>
            </Position>
            <AltitudeMeters>614</AltitudeMeters>
            <DistanceMeters>NAN</DistanceMeters>
          </Trackpoint>
          <Trackpoint>
            <Time>2019-10-05T12:51:06.000Z</Time>
            <Position>
              <LatitudeDegrees>41.8801874108612537384033203125</LatitudeDegrees>
              <LongitudeDegrees>-5.70932018570601940155029296875</LongitudeDegrees>
            </Position>
            <AltitudeMeters>614.79998779296875</AltitudeMeters>
            <DistanceMeters>NAN</DistanceMeters>
          </Trackpoint>
          <Trackpoint>
            <Time>2019-10-05T12:51:07.000Z</Time>
            <Position>
              <LatitudeDegrees>41.88015413470566272735595703125</LatitudeDegrees>
              <LongitudeDegrees>-5.709302835166454315185546875</LongitudeDegrees>
            </Position>
            <AltitudeMeters>615</AltitudeMeters>
            <DistanceMeters>NAN</DistanceMeters>
          </Trackpoint>
          <Trackpoint>
            <Time>2019-10-05T12:51:11.000Z</Time>
            <Position>
              <LatitudeDegrees>41.88001633621752262115478515625</LatitudeDegrees>
              <LongitudeDegrees>-5.7092480175197124481201171875</LongitudeDegrees>
            </Position>
            <AltitudeMeters>615.20001220703125</AltitudeMeters>
            <DistanceMeters>NAN</DistanceMeters>
          </Trackpoint>
          <Trackpoint>
            <Time>2019-10-05T12:51:14.000Z</Time>
            <Position>
              <LatitudeDegrees>41.87991139478981494903564453125</LatitudeDegrees>
              <LongitudeDegrees>-5.7092195190489292144775390625</LongitudeDegrees>
            </Position>
            <AltitudeMeters>615.5999755859375</AltitudeMeters>
            <DistanceMeters>NAN</DistanceMeters>
          </Trackpoint>
          <Trackpoint>
            <Time>2019-10-05T12:51:18.000Z</Time>
            <Position>
              <LatitudeDegrees>41.87978088855743408203125</LatitudeDegrees>
              <LongitudeDegrees>-5.7091732509434223175048828125</LongitudeDegrees>
            </Position>
            <AltitudeMeters>616.20001220703125</AltitudeMeters>
            <DistanceMeters>NAN</DistanceMeters>
          </Trackpoint>
          <Trackpoint>
            <Time>2019-10-05T12:51:20.000Z</Time>
            <Position>
              <LatitudeDegrees>41.87971559353172779083251953125</LatitudeDegrees>
              <LongitudeDegrees>-5.709146596491336822509765625</LongitudeDegrees>
            </Position>
            <AltitudeMeters>616.79998779296875</AltitudeMeters>
            <DistanceMeters>NAN</DistanceMeters>
          </Trackpoint>
          <Trackpoint>
            <Time>2019-10-05T12:51:22.000Z</Time>
            <Position>
              <LatitudeDegrees>41.879651807248592376708984375</LatitudeDegrees>
              <LongitudeDegrees>-5.70912270806729793548583984375</LongitudeDegrees>
            </Position>
            <AltitudeMeters>617.20001220703125</AltitudeMeters>
            <DistanceMeters>NAN</DistanceMeters>
          </Trackpoint>
          <Trackpoint>
            <Time>2019-10-05T12:51:26.000Z</Time>
            <Position>
              <LatitudeDegrees>41.8795433454215526580810546875</LatitudeDegrees>
              <LongitudeDegrees>-5.7090813852846622467041015625</LongitudeDegrees>
            </Position>
            <AltitudeMeters>618.20001220703125</AltitudeMeters>
            <DistanceMeters>NAN</DistanceMeters>
          </Trackpoint>
          <Trackpoint>
            <Time>2019-10-05T12:51:31.000Z</Time>
            <Position>
              <LatitudeDegrees>41.8794147670269012451171875</LatitudeDegrees>
              <LongitudeDegrees>-5.70903587155044078826904296875</LongitudeDegrees>
            </Position>
            <AltitudeMeters>619.5999755859375</AltitudeMeters>
            <DistanceMeters>NAN</DistanceMeters>
          </Trackpoint>
          <Trackpoint>
            <Time>2019-10-05T12:51:32.000Z</Time>
            <Position>
              <LatitudeDegrees>41.87938735820353031158447265625</LatitudeDegrees>
              <LongitudeDegrees>-5.70903293788433074951171875</LongitudeDegrees>
            </Position>
            <AltitudeMeters>619.79998779296875</AltitudeMeters>
            <DistanceMeters>NAN</DistanceMeters>
          </Trackpoint>
          <Trackpoint>
            <Time>2019-10-05T12:51:36.000Z</Time>
            <Position>
              <LatitudeDegrees>41.87927487306296825408935546875</LatitudeDegrees>
              <LongitudeDegrees>-5.70903838612139225006103515625</LongitudeDegrees>
            </Position>
            <AltitudeMeters>620.79998779296875</AltitudeMeters>
            <DistanceMeters>NAN</DistanceMeters>
          </Trackpoint>
          <Trackpoint>
            <Time>2019-10-05T12:51:40.000Z</Time>
            <Position>
              <LatitudeDegrees>41.87915400601923465728759765625</LatitudeDegrees>
              <LongitudeDegrees>-5.7090465165674686431884765625</LongitudeDegrees>
            </Position>
            <AltitudeMeters>621</AltitudeMeters>
            <DistanceMeters>NAN</DistanceMeters>
          </Trackpoint>
          <Trackpoint>
            <Time>2019-10-05T12:51:48.000Z</Time>
            <Position>
              <LatitudeDegrees>41.8789100088179111480712890625</LatitudeDegrees>
              <LongitudeDegrees>-5.7090605981647968292236328125</LongitudeDegrees>
            </Position>
            <AltitudeMeters>622.20001220703125</AltitudeMeters>
            <DistanceMeters>NAN</DistanceMeters>
          </Trackpoint>
          <Trackpoint>
            <Time>2019-10-05T12:51:50.000Z</Time>
            <Position>
              <LatitudeDegrees>41.87885217368602752685546875</LatitudeDegrees>
              <LongitudeDegrees>-5.70907275192439556121826171875</LongitudeDegrees>
            </Position>
            <AltitudeMeters>622.4000244140625</AltitudeMeters>
            <DistanceMeters>NAN</DistanceMeters>
          </Trackpoint>
          <Trackpoint>
            <Time>2019-10-05T12:51:54.000Z</Time>
            <Position>
              <LatitudeDegrees>41.87873273156583309173583984375</LatitudeDegrees>
              <LongitudeDegrees>-5.7091021724045276641845703125</LongitudeDegrees>
            </Position>
            <AltitudeMeters>623.20001220703125</AltitudeMeters>
            <DistanceMeters>NAN</DistanceMeters>
          </Trackpoint>
          <Trackpoint>
            <Time>2019-10-05T12:52:00.000Z</Time>
            <Position>
              <LatitudeDegrees>41.87854765914380550384521484375</LatitudeDegrees>
              <LongitudeDegrees>-5.70915095508098602294921875</LongitudeDegrees>
            </Position>
            <AltitudeMeters>624.20001220703125</AltitudeMeters>
            <DistanceMeters>NAN</DistanceMeters>
          </Trackpoint>
          <Trackpoint>
            <Time>2019-10-05T12:52:01.000Z</Time>
            <Position>
              <LatitudeDegrees>41.878517903387546539306640625</LatitudeDegrees>
              <LongitudeDegrees>-5.70915875025093555450439453125</LongitudeDegrees>
            </Position>
            <AltitudeMeters>624.5999755859375</AltitudeMeters>
            <DistanceMeters>NAN</DistanceMeters>
          </Trackpoint>
          <Trackpoint>
            <Time>2019-10-05T12:52:07.000Z</Time>
            <Position>
              <LatitudeDegrees>41.87833576463162899017333984375</LatitudeDegrees>
              <LongitudeDegrees>-5.70921692065894603729248046875</LongitudeDegrees>
            </Position>
            <AltitudeMeters>625.4000244140625</AltitudeMeters>
            <DistanceMeters>NAN</DistanceMeters>
          </Trackpoint>
          <Trackpoint>
            <Time>2019-10-05T12:52:11.000Z</Time>
            <Position>
              <LatitudeDegrees>41.8782029114663600921630859375</LatitudeDegrees>
              <LongitudeDegrees>-5.70925279520452022552490234375</LongitudeDegrees>
            </Position>
            <AltitudeMeters>625.5999755859375</AltitudeMeters>
            <DistanceMeters>NAN</DistanceMeters>
          </Trackpoint>
          <Trackpoint>
            <Time>2019-10-05T12:52:20.000Z</Time>
            <Position>
              <LatitudeDegrees>41.877913735806941986083984375</LatitudeDegrees>
              <LongitudeDegrees>-5.70935882627964019775390625</LongitudeDegrees>
            </Position>
            <AltitudeMeters>626</AltitudeMeters>
            <DistanceMeters>NAN</DistanceMeters>
          </Trackpoint>
          <Trackpoint>
            <Time>2019-10-05T12:52:26.000Z</Time>
            <Position>
              <LatitudeDegrees>41.8776936270296573638916015625</LatitudeDegrees>
              <LongitudeDegrees>-5.7094511948525905609130859375</LongitudeDegrees>
            </Position>
            <AltitudeMeters>626.20001220703125</AltitudeMeters>
            <DistanceMeters>NAN</DistanceMeters>
          </Trackpoint>
          <Trackpoint>
            <Time>2019-10-05T12:52:33.000Z</Time>
            <Position>
              <LatitudeDegrees>41.8774173595011234283447265625</LatitudeDegrees>
              <LongitudeDegrees>-5.70961724035441875457763671875</LongitudeDegrees>
            </Position>
            <AltitudeMeters>625.20001220703125</AltitudeMeters>
            <DistanceMeters>NAN</DistanceMeters>
          </Trackpoint>
          <Trackpoint>
            <Time>2019-10-05T12:52:35.000Z</Time>
            <Position>
              <LatitudeDegrees>41.87733479775488376617431640625</LatitudeDegrees>
              <LongitudeDegrees>-5.7096610777080059051513671875</LongitudeDegrees>
            </Position>
            <AltitudeMeters>625.20001220703125</AltitudeMeters>
            <DistanceMeters>NAN</DistanceMeters>
          </Trackpoint>
          <Trackpoint>
            <Time>2019-10-05T12:52:42.000Z</Time>
            <Position>
              <LatitudeDegrees>41.8770509026944637298583984375</LatitudeDegrees>
              <LongitudeDegrees>-5.7098189927637577056884765625</LongitudeDegrees>
            </Position>
            <AltitudeMeters>625.4000244140625</AltitudeMeters>
            <DistanceMeters>NAN</DistanceMeters>
          </Trackpoint>
          <Trackpoint>
            <Time>2019-10-05T12:52:44.000Z</Time>
            <Position>
              <LatitudeDegrees>41.876972615718841552734375</LatitudeDegrees>
              <LongitudeDegrees>-5.70986148901283740997314453125</LongitudeDegrees>
            </Position>
            <AltitudeMeters>625.5999755859375</AltitudeMeters>
            <DistanceMeters>NAN</DistanceMeters>
          </Trackpoint>
          <Trackpoint>
            <Time>2019-10-05T12:52:47.000Z</Time>
            <Position>
              <LatitudeDegrees>41.8768856115639209747314453125</LatitudeDegrees>
              <LongitudeDegrees>-5.70992653258144855499267578125</LongitudeDegrees>
            </Position>
            <AltitudeMeters>625.79998779296875</AltitudeMeters>
            <DistanceMeters>NAN</DistanceMeters>
          </Trackpoint>
          <Trackpoint>
            <Time>2019-10-05T12:52:48.000Z</Time>
            <Position>
              <LatitudeDegrees>41.87687412835657596588134765625</LatitudeDegrees>
              <LongitudeDegrees>-5.70994849316775798797607421875</LongitudeDegrees>
            </Position>
            <AltitudeMeters>625.79998779296875</AltitudeMeters>
            <DistanceMeters>NAN</DistanceMeters>
          </Trackpoint>
          <Trackpoint>
            <Time>2019-10-05T13:22:04.000Z</Time>
            <Position>
              <LatitudeDegrees>41.87662594020366668701171875</LatitudeDegrees>
              <LongitudeDegrees>-5.71007556281983852386474609375</LongitudeDegrees>
            </Position>
            <AltitudeMeters>630.20001220703125</AltitudeMeters>
            <DistanceMeters>NAN</DistanceMeters>
          </Trackpoint>
          <Trackpoint>
            <Time>2019-10-05T13:22:12.000Z</Time>
            <Position>
              <LatitudeDegrees>41.87636249698698520660400390625</LatitudeDegrees>
              <LongitudeDegrees>-5.710210092365741729736328125</LongitudeDegrees>
            </Position>
            <AltitudeMeters>629.4000244140625</AltitudeMeters>
            <DistanceMeters>NAN</DistanceMeters>
          </Trackpoint>
          <Trackpoint>
            <Time>2019-10-05T13:22:19.000Z</Time>
            <Position>
              <LatitudeDegrees>41.87612411566078662872314453125</LatitudeDegrees>
              <LongitudeDegrees>-5.71033473126590251922607421875</LongitudeDegrees>
            </Position>
            <AltitudeMeters>629.79998779296875</AltitudeMeters>
            <DistanceMeters>NAN</DistanceMeters>
          </Trackpoint>
          <Trackpoint>
            <Time>2019-10-05T13:22:26.000Z</Time>
            <Position>
              <LatitudeDegrees>41.87587064690887928009033203125</LatitudeDegrees>
              <LongitudeDegrees>-5.71047789417207241058349609375</LongitudeDegrees>
            </Position>
            <AltitudeMeters>629.5999755859375</AltitudeMeters>
            <DistanceMeters>NAN</DistanceMeters>
          </Trackpoint>
          <Trackpoint>
            <Time>2019-10-05T13:22:29.000Z</Time>
            <Position>
              <LatitudeDegrees>41.87576335854828357696533203125</LatitudeDegrees>
              <LongitudeDegrees>-5.71053589694201946258544921875</LongitudeDegrees>
            </Position>
            <AltitudeMeters>629.20001220703125</AltitudeMeters>
            <DistanceMeters>NAN</DistanceMeters>
          </Trackpoint>
          <Trackpoint>
            <Time>2019-10-05T13:22:36.000Z</Time>
            <Position>
              <LatitudeDegrees>41.87550477683544158935546875</LatitudeDegrees>
              <LongitudeDegrees>-5.71067453362047672271728515625</LongitudeDegrees>
            </Position>
            <AltitudeMeters>629.4000244140625</AltitudeMeters>
            <DistanceMeters>NAN</DistanceMeters>
          </Trackpoint>
          <Trackpoint>
            <Time>2019-10-05T13:22:40.000Z</Time>
            <Position>
              <LatitudeDegrees>41.87536052428185939788818359375</LatitudeDegrees>
              <LongitudeDegrees>-5.7107621245086193084716796875</LongitudeDegrees>
            </Position>
            <AltitudeMeters>630</AltitudeMeters>
            <DistanceMeters>NAN</DistanceMeters>
          </Trackpoint>
          <Trackpoint>
            <Time>2019-10-05T13:22:43.000Z</Time>
            <Position>
              <LatitudeDegrees>41.87524770386517047882080078125</LatitudeDegrees>
              <LongitudeDegrees>-5.7108187861740589141845703125</LongitudeDegrees>
            </Position>
            <AltitudeMeters>630.4000244140625</AltitudeMeters>
            <DistanceMeters>NAN</DistanceMeters>
          </Trackpoint>
          <Trackpoint>
            <Time>2019-10-05T13:22:45.000Z</Time>
            <Position>
              <LatitudeDegrees>41.87517293728888034820556640625</LatitudeDegrees>
              <LongitudeDegrees>-5.71086279116570949554443359375</LongitudeDegrees>
            </Position>
            <AltitudeMeters>630.20001220703125</AltitudeMeters>
            <DistanceMeters>NAN</DistanceMeters>
          </Trackpoint>
          <Trackpoint>
            <Time>2019-10-05T13:22:54.000Z</Time>
            <Position>
              <LatitudeDegrees>41.874835230410099029541015625</LatitudeDegrees>
              <LongitudeDegrees>-5.711051635444164276123046875</LongitudeDegrees>
            </Position>
            <AltitudeMeters>630.5999755859375</AltitudeMeters>
            <DistanceMeters>NAN</DistanceMeters>
          </Trackpoint>
          <Trackpoint>
            <Time>2019-10-05T13:22:55.000Z</Time>
            <Position>
              <LatitudeDegrees>41.87479675747454166412353515625</LatitudeDegrees>
              <LongitudeDegrees>-5.71107208728790283203125</LongitudeDegrees>
            </Position>
            <AltitudeMeters>630.5999755859375</AltitudeMeters>
            <DistanceMeters>NAN</DistanceMeters>
          </Trackpoint>
          <Trackpoint>
            <Time>2019-10-05T13:23:07.000Z</Time>
            <Position>
              <LatitudeDegrees>41.8743355013430118560791015625</LatitudeDegrees>
              <LongitudeDegrees>-5.7113277353346347808837890625</LongitudeDegrees>
            </Position>
            <AltitudeMeters>630.5999755859375</AltitudeMeters>
            <DistanceMeters>NAN</DistanceMeters>
          </Trackpoint>
          <Trackpoint>
            <Time>2019-10-05T13:23:16.000Z</Time>
            <Position>
              <LatitudeDegrees>41.87397382222115993499755859375</LatitudeDegrees>
              <LongitudeDegrees>-5.71152412332594394683837890625</LongitudeDegrees>
            </Position>
            <AltitudeMeters>630.4000244140625</AltitudeMeters>
            <DistanceMeters>NAN</DistanceMeters>
          </Trackpoint>
          <Trackpoint>
            <Time>2019-10-05T13:23:25.000Z</Time>
            <Position>
              <LatitudeDegrees>41.87361088581383228302001953125</LatitudeDegrees>
              <LongitudeDegrees>-5.71172193624079227447509765625</LongitudeDegrees>
            </Position>
            <AltitudeMeters>630.4000244140625</AltitudeMeters>
            <DistanceMeters>NAN</DistanceMeters>
          </Trackpoint>
          <Trackpoint>
            <Time>2019-10-05T13:23:34.000Z</Time>
            <Position>
              <LatitudeDegrees>41.873248703777790069580078125</LatitudeDegrees>
              <LongitudeDegrees>-5.71192494593560695648193359375</LongitudeDegrees>
            </Position>
            <AltitudeMeters>630.4000244140625</AltitudeMeters>
            <DistanceMeters>NAN</DistanceMeters>
          </Trackpoint>
          <Trackpoint>
            <Time>2019-10-05T13:23:42.000Z</Time>
            <Position>
              <LatitudeDegrees>41.87291401438415050506591796875</LatitudeDegrees>
              <LongitudeDegrees>-5.712106414139270782470703125</LongitudeDegrees>
            </Position>
            <AltitudeMeters>629.79998779296875</AltitudeMeters>
            <DistanceMeters>NAN</DistanceMeters>
          </Trackpoint>
          <Trackpoint>
            <Time>2019-10-05T13:23:47.000Z</Time>
            <Position>
              <LatitudeDegrees>41.87271368689835071563720703125</LatitudeDegrees>
              <LongitudeDegrees>-5.7122396863996982574462890625</LongitudeDegrees>
            </Position>
            <AltitudeMeters>630</AltitudeMeters>
            <DistanceMeters>NAN</DistanceMeters>
          </Trackpoint>
          <Trackpoint>
            <Time>2019-10-05T13:23:49.000Z</Time>
            <Position>
              <LatitudeDegrees>41.87265484593808650970458984375</LatitudeDegrees>
              <LongitudeDegrees>-5.71232895366847515106201171875</LongitudeDegrees>
            </Position>
            <AltitudeMeters>630</AltitudeMeters>
            <DistanceMeters>NAN</DistanceMeters>
          </Trackpoint>
          <Trackpoint>
            <Time>2019-10-05T13:23:51.000Z</Time>
            <Position>
              <LatitudeDegrees>41.87261025421321392059326171875</LatitudeDegrees>
              <LongitudeDegrees>-5.7124321348965167999267578125</LongitudeDegrees>
            </Position>
            <AltitudeMeters>630</AltitudeMeters>
            <DistanceMeters>NAN</DistanceMeters>
          </Trackpoint>
          <Trackpoint>
            <Time>2019-10-05T13:23:54.000Z</Time>
            <Position>
              <LatitudeDegrees>41.872524507343769073486328125</LatitudeDegrees>
              <LongitudeDegrees>-5.7125709392130374908447265625</LongitudeDegrees>
            </Position>
            <AltitudeMeters>630</AltitudeMeters>
            <DistanceMeters>NAN</DistanceMeters>
          </Trackpoint>
          <Trackpoint>
            <Time>2019-10-05T13:23:55.000Z</Time>
            <Position>
              <LatitudeDegrees>41.87248729169368743896484375</LatitudeDegrees>
              <LongitudeDegrees>-5.712605975568294525146484375</LongitudeDegrees>
            </Position>
            <AltitudeMeters>630</AltitudeMeters>
            <DistanceMeters>NAN</DistanceMeters>
          </Trackpoint>
          <Trackpoint>
            <Time>2019-10-05T13:23:59.000Z</Time>
            <Position>
              <LatitudeDegrees>41.87231068499386310577392578125</LatitudeDegrees>
              <LongitudeDegrees>-5.71266154758632183074951171875</LongitudeDegrees>
            </Position>
            <AltitudeMeters>630.20001220703125</AltitudeMeters>
            <DistanceMeters>NAN</DistanceMeters>
          </Trackpoint>
          <Trackpoint>
            <Time>2019-10-05T13:24:02.000Z</Time>
            <Position>
              <LatitudeDegrees>41.87217791564762592315673828125</LatitudeDegrees>
              <LongitudeDegrees>-5.71262667886912822723388671875</LongitudeDegrees>
            </Position>
            <AltitudeMeters>630.5999755859375</AltitudeMeters>
            <DistanceMeters>NAN</DistanceMeters>
          </Trackpoint>
          <Trackpoint>
            <Time>2019-10-05T13:24:04.000Z</Time>
            <Position>
              <LatitudeDegrees>41.8720911629498004913330078125</LatitudeDegrees>
              <LongitudeDegrees>-5.7126108370721340179443359375</LongitudeDegrees>
            </Position>
            <AltitudeMeters>630.5999755859375</AltitudeMeters>
            <DistanceMeters>NAN</DistanceMeters>
          </Trackpoint>
          <Trackpoint>
            <Time>2019-10-05T13:24:09.000Z</Time>
            <Position>
              <LatitudeDegrees>41.87187449075281620025634765625</LatitudeDegrees>
              <LongitudeDegrees>-5.71268669329583644866943359375</LongitudeDegrees>
            </Position>
            <AltitudeMeters>629.4000244140625</AltitudeMeters>
            <DistanceMeters>NAN</DistanceMeters>
          </Trackpoint>
          <Trackpoint>
            <Time>2019-10-05T13:24:15.000Z</Time>
            <Position>
              <LatitudeDegrees>41.871624290943145751953125</LatitudeDegrees>
              <LongitudeDegrees>-5.71282784454524517059326171875</LongitudeDegrees>
            </Position>
            <AltitudeMeters>630.5999755859375</AltitudeMeters>
            <DistanceMeters>NAN</DistanceMeters>
          </Trackpoint>
          <Trackpoint>
            <Time>2019-10-05T13:24:18.000Z</Time>
            <Position>
              <LatitudeDegrees>41.87149764038622379302978515625</LatitudeDegrees>
              <LongitudeDegrees>-5.7128981687128543853759765625</LongitudeDegrees>
            </Position>
            <AltitudeMeters>630</AltitudeMeters>
            <DistanceMeters>NAN</DistanceMeters>
          </Trackpoint>
          <Trackpoint>
            <Time>2019-10-05T13:24:20.000Z</Time>
            <Position>
              <LatitudeDegrees>41.8714152462780475616455078125</LatitudeDegrees>
              <LongitudeDegrees>-5.7129467837512493133544921875</LongitudeDegrees>
            </Position>
            <AltitudeMeters>630.20001220703125</AltitudeMeters>
            <DistanceMeters>NAN</DistanceMeters>
          </Trackpoint>
          <Trackpoint>
            <Time>2019-10-05T13:24:25.000Z</Time>
            <Position>
              <LatitudeDegrees>41.87121198512613773345947265625</LatitudeDegrees>
              <LongitudeDegrees>-5.713065974414348602294921875</LongitudeDegrees>
            </Position>
            <AltitudeMeters>630.4000244140625</AltitudeMeters>
            <DistanceMeters>NAN</DistanceMeters>
          </Trackpoint>
          <Trackpoint>
            <Time>2019-10-05T13:24:35.000Z</Time>
            <Position>
              <LatitudeDegrees>41.8707980029284954071044921875</LatitudeDegrees>
              <LongitudeDegrees>-5.713283233344554901123046875</LongitudeDegrees>
            </Position>
            <AltitudeMeters>630.4000244140625</AltitudeMeters>
            <DistanceMeters>NAN</DistanceMeters>
          </Trackpoint>
          <Trackpoint>
            <Time>2019-10-05T13:24:39.000Z</Time>
            <Position>
              <LatitudeDegrees>41.87062852084636688232421875</LatitudeDegrees>
              <LongitudeDegrees>-5.71337702684104442596435546875</LongitudeDegrees>
            </Position>
            <AltitudeMeters>630.20001220703125</AltitudeMeters>
            <DistanceMeters>NAN</DistanceMeters>
          </Trackpoint>
          <Trackpoint>
            <Time>2019-10-05T13:24:46.000Z</Time>
            <Position>
              <LatitudeDegrees>41.87030707485973834991455078125</LatitudeDegrees>
              <LongitudeDegrees>-5.71355522610247135162353515625</LongitudeDegrees>
            </Position>
            <AltitudeMeters>629</AltitudeMeters>
            <DistanceMeters>NAN</DistanceMeters>
          </Trackpoint>
          <Trackpoint>
            <Time>2019-10-05T13:24:56.000Z</Time>
            <Position>
              <LatitudeDegrees>41.8697868101298809051513671875</LatitudeDegrees>
              <LongitudeDegrees>-5.7138409651815891265869140625</LongitudeDegrees>
            </Position>
            <AltitudeMeters>628.20001220703125</AltitudeMeters>
            <DistanceMeters>NAN</DistanceMeters>
          </Trackpoint>
          <Trackpoint>
            <Time>2019-10-05T13:24:57.000Z</Time>
            <Position>
              <LatitudeDegrees>41.86973408795893192291259765625</LatitudeDegrees>
              <LongitudeDegrees>-5.71386803872883319854736328125</LongitudeDegrees>
            </Position>
            <AltitudeMeters>628</AltitudeMeters>
            <DistanceMeters>NAN</DistanceMeters>
          </Trackpoint>
          <Trackpoint>
            <Time>2019-10-05T13:25:06.000Z</Time>
            <Position>
              <LatitudeDegrees>41.869279034435749053955078125</LatitudeDegrees>
              <LongitudeDegrees>-5.71411765180528163909912109375</LongitudeDegrees>
            </Position>
            <AltitudeMeters>628.4000244140625</AltitudeMeters>
            <DistanceMeters>NAN</DistanceMeters>
          </Trackpoint>
          <Trackpoint>
            <Time>2019-10-05T13:25:12.000Z</Time>
            <Position>
              <LatitudeDegrees>41.86900352127850055694580078125</LatitudeDegrees>
              <LongitudeDegrees>-5.71426860988140106201171875</LongitudeDegrees>
            </Position>
            <AltitudeMeters>629</AltitudeMeters>
            <DistanceMeters>NAN</DistanceMeters>
          </Trackpoint>
          <Trackpoint>
            <Time>2019-10-05T13:25:14.000Z</Time>
            <Position>
              <LatitudeDegrees>41.8689197860658168792724609375</LatitudeDegrees>
              <LongitudeDegrees>-5.7143130339682102203369140625</LongitudeDegrees>
            </Position>
            <AltitudeMeters>629</AltitudeMeters>
            <DistanceMeters>NAN</DistanceMeters>
          </Trackpoint>
          <Trackpoint>
            <Time>2019-10-05T13:25:20.000Z</Time>
            <Position>
              <LatitudeDegrees>41.86868718825280666351318359375</LatitudeDegrees>
              <LongitudeDegrees>-5.71444605477154254913330078125</LongitudeDegrees>
            </Position>
            <AltitudeMeters>630</AltitudeMeters>
            <DistanceMeters>NAN</DistanceMeters>
          </Trackpoint>
          <Trackpoint>
            <Time>2019-10-05T13:25:21.000Z</Time>
            <Position>
              <LatitudeDegrees>41.86864762566983699798583984375</LatitudeDegrees>
              <LongitudeDegrees>-5.71446843445301055908203125</LongitudeDegrees>
            </Position>
            <AltitudeMeters>630.20001220703125</AltitudeMeters>
            <DistanceMeters>NAN</DistanceMeters>
          </Trackpoint>
          <Trackpoint>
            <Time>2019-10-05T13:25:27.000Z</Time>
            <Position>
              <LatitudeDegrees>41.86840496957302093505859375</LatitudeDegrees>
              <LongitudeDegrees>-5.71460698731243610382080078125</LongitudeDegrees>
            </Position>
            <AltitudeMeters>630.5999755859375</AltitudeMeters>
            <DistanceMeters>NAN</DistanceMeters>
          </Trackpoint>
          <Trackpoint>
            <Time>2019-10-05T13:25:33.000Z</Time>
            <Position>
              <LatitudeDegrees>41.868153512477874755859375</LatitudeDegrees>
              <LongitudeDegrees>-5.71474160067737102508544921875</LongitudeDegrees>
            </Position>
            <AltitudeMeters>631</AltitudeMeters>
            <DistanceMeters>NAN</DistanceMeters>
          </Trackpoint>
          <Trackpoint>
            <Time>2019-10-05T13:25:36.000Z</Time>
            <Position>
              <LatitudeDegrees>41.86802451498806476593017578125</LatitudeDegrees>
              <LongitudeDegrees>-5.7148159481585025787353515625</LongitudeDegrees>
            </Position>
            <AltitudeMeters>630.4000244140625</AltitudeMeters>
            <DistanceMeters>NAN</DistanceMeters>
          </Trackpoint>
          <Trackpoint>
            <Time>2019-10-05T13:25:42.000Z</Time>
            <Position>
              <LatitudeDegrees>41.86778529547154903411865234375</LatitudeDegrees>
              <LongitudeDegrees>-5.7149480469524860382080078125</LongitudeDegrees>
            </Position>
            <AltitudeMeters>631.20001220703125</AltitudeMeters>
            <DistanceMeters>NAN</DistanceMeters>
          </Trackpoint>
          <Trackpoint>
            <Time>2019-10-05T13:25:45.000Z</Time>
            <Position>
              <LatitudeDegrees>41.86766375787556171417236328125</LatitudeDegrees>
              <LongitudeDegrees>-5.71501216851174831390380859375</LongitudeDegrees>
            </Position>
            <AltitudeMeters>631</AltitudeMeters>
            <DistanceMeters>NAN</DistanceMeters>
          </Trackpoint>
          <Trackpoint>
            <Time>2019-10-05T13:25:48.000Z</Time>
            <Position>
              <LatitudeDegrees>41.867546327412128448486328125</LatitudeDegrees>
              <LongitudeDegrees>-5.71507821790874004364013671875</LongitudeDegrees>
            </Position>
            <AltitudeMeters>630.20001220703125</AltitudeMeters>
            <DistanceMeters>NAN</DistanceMeters>
          </Trackpoint>
          <Trackpoint>
            <Time>2019-10-05T13:25:55.000Z</Time>
            <Position>
              <LatitudeDegrees>41.86727047897875308990478515625</LatitudeDegrees>
              <LongitudeDegrees>-5.71522842161357402801513671875</LongitudeDegrees>
            </Position>
            <AltitudeMeters>630.5999755859375</AltitudeMeters>
            <DistanceMeters>NAN</DistanceMeters>
          </Trackpoint>
          <Trackpoint>
            <Time>2019-10-05T13:26:04.000Z</Time>
            <Position>
              <LatitudeDegrees>41.86693671159446239471435546875</LatitudeDegrees>
              <LongitudeDegrees>-5.71540226228535175323486328125</LongitudeDegrees>
            </Position>
            <AltitudeMeters>631.5999755859375</AltitudeMeters>
            <DistanceMeters>NAN</DistanceMeters>
          </Trackpoint>
          <Trackpoint>
            <Time>2019-10-05T13:26:08.000Z</Time>
            <Position>
              <LatitudeDegrees>41.86680997721850872039794921875</LatitudeDegrees>
              <LongitudeDegrees>-5.71547937579452991485595703125</LongitudeDegrees>
            </Position>
            <AltitudeMeters>632.20001220703125</AltitudeMeters>
            <DistanceMeters>NAN</DistanceMeters>
          </Trackpoint>
          <Trackpoint>
            <Time>2019-10-05T13:26:12.000Z</Time>
            <Position>
              <LatitudeDegrees>41.866689361631870269775390625</LatitudeDegrees>
              <LongitudeDegrees>-5.71554609574377536773681640625</LongitudeDegrees>
            </Position>
            <AltitudeMeters>632.79998779296875</AltitudeMeters>
            <DistanceMeters>NAN</DistanceMeters>
          </Trackpoint>
          <Trackpoint>
            <Time>2019-10-05T13:26:15.000Z</Time>
            <Position>
              <LatitudeDegrees>41.86659808270633220672607421875</LatitudeDegrees>
              <LongitudeDegrees>-5.7155954651534557342529296875</LongitudeDegrees>
            </Position>
            <AltitudeMeters>633.20001220703125</AltitudeMeters>
            <DistanceMeters>NAN</DistanceMeters>
          </Trackpoint>
          <Trackpoint>
            <Time>2019-10-05T13:26:19.000Z</Time>
            <Position>
              <LatitudeDegrees>41.8664793111383914947509765625</LatitudeDegrees>
              <LongitudeDegrees>-5.71564986370503902435302734375</LongitudeDegrees>
            </Position>
            <AltitudeMeters>634.79998779296875</AltitudeMeters>
            <DistanceMeters>NAN</DistanceMeters>
          </Trackpoint>
          <Trackpoint>
            <Time>2019-10-05T13:26:20.000Z</Time>
            <Position>
              <LatitudeDegrees>41.8664491362869739532470703125</LatitudeDegrees>
              <LongitudeDegrees>-5.7156648673117160797119140625</LongitudeDegrees>
            </Position>
            <AltitudeMeters>634.79998779296875</AltitudeMeters>
            <DistanceMeters>NAN</DistanceMeters>
          </Trackpoint>
          <Trackpoint>
            <Time>2019-10-05T13:26:26.000Z</Time>
            <Position>
              <LatitudeDegrees>41.86627454124391078948974609375</LatitudeDegrees>
              <LongitudeDegrees>-5.71577106602489948272705078125</LongitudeDegrees>
            </Position>
            <AltitudeMeters>635.79998779296875</AltitudeMeters>
            <DistanceMeters>NAN</DistanceMeters>
          </Trackpoint>
          <Trackpoint>
            <Time>2019-10-05T13:26:27.000Z</Time>
            <Position>
              <LatitudeDegrees>41.8662452884018421173095703125</LatitudeDegrees>
              <LongitudeDegrees>-5.7157889194786548614501953125</LongitudeDegrees>
            </Position>
            <AltitudeMeters>636</AltitudeMeters>
            <DistanceMeters>NAN</DistanceMeters>
          </Trackpoint>
          <Trackpoint>
            <Time>2019-10-05T13:26:33.000Z</Time>
            <Position>
              <LatitudeDegrees>41.86606817878782749176025390625</LatitudeDegrees>
              <LongitudeDegrees>-5.71587399579584598541259765625</LongitudeDegrees>
            </Position>
            <AltitudeMeters>636.79998779296875</AltitudeMeters>
            <DistanceMeters>NAN</DistanceMeters>
          </Trackpoint>
          <Trackpoint>
            <Time>2019-10-05T13:26:35.000Z</Time>
            <Position>
              <LatitudeDegrees>41.8660082481801509857177734375</LatitudeDegrees>
              <LongitudeDegrees>-5.71591037325561046600341796875</LongitudeDegrees>
            </Position>
            <AltitudeMeters>636.79998779296875</AltitudeMeters>
            <DistanceMeters>NAN</DistanceMeters>
          </Trackpoint>
          <Trackpoint>
            <Time>2019-10-05T13:26:42.000Z</Time>
            <Position>
              <LatitudeDegrees>41.86579476110637187957763671875</LatitudeDegrees>
              <LongitudeDegrees>-5.71603358723223209381103515625</LongitudeDegrees>
            </Position>
            <AltitudeMeters>637.4000244140625</AltitudeMeters>
            <DistanceMeters>NAN</DistanceMeters>
          </Trackpoint>
          <Trackpoint>
            <Time>2019-10-05T13:26:45.000Z</Time>
            <Position>
              <LatitudeDegrees>41.8657054938375949859619140625</LatitudeDegrees>
              <LongitudeDegrees>-5.716085471212863922119140625</LongitudeDegrees>
            </Position>
            <AltitudeMeters>638</AltitudeMeters>
            <DistanceMeters>NAN</DistanceMeters>
          </Trackpoint>
          <Trackpoint>
            <Time>2019-10-05T13:26:52.000Z</Time>
            <Position>
              <LatitudeDegrees>41.86550323851406574249267578125</LatitudeDegrees>
              <LongitudeDegrees>-5.7162003032863140106201171875</LongitudeDegrees>
            </Position>
            <AltitudeMeters>639.20001220703125</AltitudeMeters>
            <DistanceMeters>NAN</DistanceMeters>
          </Trackpoint>
          <Trackpoint>
            <Time>2019-10-05T13:26:53.000Z</Time>
            <Position>
              <LatitudeDegrees>41.86547205783426761627197265625</LatitudeDegrees>
              <LongitudeDegrees>-5.716216899454593658447265625</LongitudeDegrees>
            </Position>
            <AltitudeMeters>639.4000244140625</AltitudeMeters>
            <DistanceMeters>NAN</DistanceMeters>
          </Trackpoint>
          <Trackpoint>
            <Time>2019-10-05T13:26:58.000Z</Time>
            <Position>
              <LatitudeDegrees>41.86529654078185558319091796875</LatitudeDegrees>
              <LongitudeDegrees>-5.71630574762821197509765625</LongitudeDegrees>
            </Position>
            <AltitudeMeters>640.20001220703125</AltitudeMeters>
            <DistanceMeters>NAN</DistanceMeters>
          </Trackpoint>
          <Trackpoint>
            <Time>2019-10-05T13:26:59.000Z</Time>
            <Position>
              <LatitudeDegrees>41.86529000289738178253173828125</LatitudeDegrees>
              <LongitudeDegrees>-5.7163091003894805908203125</LongitudeDegrees>
            </Position>
            <AltitudeMeters>642.79998779296875</AltitudeMeters>
            <DistanceMeters>NAN</DistanceMeters>
          </Trackpoint>
          <Trackpoint>
            <Time>2019-10-05T13:27:00.000Z</Time>
            <Position>
              <LatitudeDegrees>41.86526049859821796417236328125</LatitudeDegrees>
              <LongitudeDegrees>-5.71632360108196735382080078125</LongitudeDegrees>
            </Position>
            <AltitudeMeters>640.79998779296875</AltitudeMeters>
            <DistanceMeters>NAN</DistanceMeters>
          </Trackpoint>
          <Trackpoint>
            <Time>2019-10-05T13:27:03.000Z</Time>
            <Position>
              <LatitudeDegrees>41.8651697225868701934814453125</LatitudeDegrees>
              <LongitudeDegrees>-5.7163753174245357513427734375</LongitudeDegrees>
            </Position>
            <AltitudeMeters>640.79998779296875</AltitudeMeters>
            <DistanceMeters>NAN</DistanceMeters>
          </Trackpoint>
          <Trackpoint>
            <Time>2019-10-05T13:27:12.000Z</Time>
            <Position>
              <LatitudeDegrees>41.864893622696399688720703125</LatitudeDegrees>
              <LongitudeDegrees>-5.71653063409030437469482421875</LongitudeDegrees>
            </Position>
            <AltitudeMeters>641.5999755859375</AltitudeMeters>
            <DistanceMeters>NAN</DistanceMeters>
          </Trackpoint>
          <Trackpoint>
            <Time>2019-10-05T13:27:17.000Z</Time>
            <Position>
              <LatitudeDegrees>41.86473662964999675750732421875</LatitudeDegrees>
              <LongitudeDegrees>-5.7166214101016521453857421875</LongitudeDegrees>
            </Position>
            <AltitudeMeters>641.79998779296875</AltitudeMeters>
            <DistanceMeters>NAN</DistanceMeters>
          </Trackpoint>
          <Trackpoint>
            <Time>2019-10-05T13:27:21.000Z</Time>
            <Position>
              <LatitudeDegrees>41.86460419557988643646240234375</LatitudeDegrees>
              <LongitudeDegrees>-5.716689638793468475341796875</LongitudeDegrees>
            </Position>
            <AltitudeMeters>641.5999755859375</AltitudeMeters>
            <DistanceMeters>NAN</DistanceMeters>
          </Trackpoint>
          <Trackpoint>
            <Time>2019-10-05T13:27:23.000Z</Time>
            <Position>
              <LatitudeDegrees>41.86453630216419696807861328125</LatitudeDegrees>
              <LongitudeDegrees>-5.71672576479613780975341796875</LongitudeDegrees>
            </Position>
            <AltitudeMeters>641.79998779296875</AltitudeMeters>
            <DistanceMeters>NAN</DistanceMeters>
          </Trackpoint>
          <Trackpoint>
            <Time>2019-10-05T13:27:25.000Z</Time>
            <Position>
              <LatitudeDegrees>41.864468492567539215087890625</LatitudeDegrees>
              <LongitudeDegrees>-5.716760046780109405517578125</LongitudeDegrees>
            </Position>
            <AltitudeMeters>643</AltitudeMeters>
            <DistanceMeters>NAN</DistanceMeters>
          </Trackpoint>
          <Trackpoint>
            <Time>2019-10-05T13:27:32.000Z</Time>
            <Position>
              <LatitudeDegrees>41.8642081506550312042236328125</LatitudeDegrees>
              <LongitudeDegrees>-5.71689876727759838104248046875</LongitudeDegrees>
            </Position>
            <AltitudeMeters>642.20001220703125</AltitudeMeters>
            <DistanceMeters>NAN</DistanceMeters>
          </Trackpoint>
          <Trackpoint>
            <Time>2019-10-05T13:27:39.000Z</Time>
            <Position>
              <LatitudeDegrees>41.86392090283334255218505859375</LatitudeDegrees>
              <LongitudeDegrees>-5.7170505635440349578857421875</LongitudeDegrees>
            </Position>
            <AltitudeMeters>641.79998779296875</AltitudeMeters>
            <DistanceMeters>NAN</DistanceMeters>
          </Trackpoint>
          <Trackpoint>
            <Time>2019-10-05T13:27:41.000Z</Time>
            <Position>
              <LatitudeDegrees>41.86383322812616825103759765625</LatitudeDegrees>
              <LongitudeDegrees>-5.71709808893501758575439453125</LongitudeDegrees>
            </Position>
            <AltitudeMeters>641.5999755859375</AltitudeMeters>
            <DistanceMeters>NAN</DistanceMeters>
          </Trackpoint>
          <Trackpoint>
            <Time>2019-10-05T13:27:48.000Z</Time>
            <Position>
              <LatitudeDegrees>41.8634799309074878692626953125</LatitudeDegrees>
              <LongitudeDegrees>-5.717270337045192718505859375</LongitudeDegrees>
            </Position>
            <AltitudeMeters>640.4000244140625</AltitudeMeters>
            <DistanceMeters>NAN</DistanceMeters>
          </Trackpoint>
          <Trackpoint>
            <Time>2019-10-05T13:27:49.000Z</Time>
            <Position>
              <LatitudeDegrees>41.86342435888946056365966796875</LatitudeDegrees>
              <LongitudeDegrees>-5.71729741059243679046630859375</LongitudeDegrees>
            </Position>
            <AltitudeMeters>639.4000244140625</AltitudeMeters>
            <DistanceMeters>NAN</DistanceMeters>
          </Trackpoint>
          <Trackpoint>
            <Time>2019-10-05T13:27:53.000Z</Time>
            <Position>
              <LatitudeDegrees>41.86318513937294483184814453125</LatitudeDegrees>
              <LongitudeDegrees>-5.7174086384475231170654296875</LongitudeDegrees>
            </Position>
            <AltitudeMeters>638.4000244140625</AltitudeMeters>
            <DistanceMeters>NAN</DistanceMeters>
          </Trackpoint>
          <Trackpoint>
            <Time>2019-10-05T13:27:57.000Z</Time>
            <Position>
              <LatitudeDegrees>41.86290971003472805023193359375</LatitudeDegrees>
              <LongitudeDegrees>-5.71753562428057193756103515625</LongitudeDegrees>
            </Position>
            <AltitudeMeters>637.20001220703125</AltitudeMeters>
            <DistanceMeters>NAN</DistanceMeters>
          </Trackpoint>
          <Trackpoint>
            <Time>2019-10-05T13:27:59.000Z</Time>
            <Position>
              <LatitudeDegrees>41.86279512941837310791015625</LatitudeDegrees>
              <LongitudeDegrees>-5.71759329177439212799072265625</LongitudeDegrees>
            </Position>
            <AltitudeMeters>636</AltitudeMeters>
            <DistanceMeters>NAN</DistanceMeters>
          </Trackpoint>
          <Trackpoint>
            <Time>2019-10-05T13:28:05.000Z</Time>
            <Position>
              <LatitudeDegrees>41.8624041974544525146484375</LatitudeDegrees>
              <LongitudeDegrees>-5.7177737541496753692626953125</LongitudeDegrees>
            </Position>
            <AltitudeMeters>636</AltitudeMeters>
            <DistanceMeters>NAN</DistanceMeters>
          </Trackpoint>
          <Trackpoint>
            <Time>2019-10-05T13:28:06.000Z</Time>
            <Position>
              <LatitudeDegrees>41.8623430095613002777099609375</LatitudeDegrees>
              <LongitudeDegrees>-5.717801414430141448974609375</LongitudeDegrees>
            </Position>
            <AltitudeMeters>635.79998779296875</AltitudeMeters>
            <DistanceMeters>NAN</DistanceMeters>
          </Trackpoint>
          <Trackpoint>
            <Time>2019-10-05T13:28:09.000Z</Time>
            <Position>
              <LatitudeDegrees>41.862167827785015106201171875</LatitudeDegrees>
              <LongitudeDegrees>-5.71788397617638111114501953125</LongitudeDegrees>
            </Position>
            <AltitudeMeters>636</AltitudeMeters>
            <DistanceMeters>NAN</DistanceMeters>
          </Trackpoint>
          <Trackpoint>
            <Time>2019-10-05T13:28:14.000Z</Time>
            <Position>
              <LatitudeDegrees>41.861893571913242340087890625</LatitudeDegrees>
              <LongitudeDegrees>-5.71801372803747653961181640625</LongitudeDegrees>
            </Position>
            <AltitudeMeters>637</AltitudeMeters>
            <DistanceMeters>NAN</DistanceMeters>
          </Trackpoint>
          <Trackpoint>
            <Time>2019-10-05T13:28:23.000Z</Time>
            <Position>
              <LatitudeDegrees>41.86144606210291385650634765625</LatitudeDegrees>
              <LongitudeDegrees>-5.71822511963546276092529296875</LongitudeDegrees>
            </Position>
            <AltitudeMeters>636.5999755859375</AltitudeMeters>
            <DistanceMeters>NAN</DistanceMeters>
          </Trackpoint>
          <Trackpoint>
            <Time>2019-10-05T13:28:27.000Z</Time>
            <Position>
              <LatitudeDegrees>41.8612473271787166595458984375</LatitudeDegrees>
              <LongitudeDegrees>-5.71831631474196910858154296875</LongitudeDegrees>
            </Position>
            <AltitudeMeters>637</AltitudeMeters>
            <DistanceMeters>NAN</DistanceMeters>
          </Trackpoint>
          <Trackpoint>
            <Time>2019-10-05T13:28:34.000Z</Time>
            <Position>
              <LatitudeDegrees>41.86090257950127124786376953125</LatitudeDegrees>
              <LongitudeDegrees>-5.71847724728286266326904296875</LongitudeDegrees>
            </Position>
            <AltitudeMeters>637.4000244140625</AltitudeMeters>
            <DistanceMeters>NAN</DistanceMeters>
          </Trackpoint>
          <Trackpoint>
            <Time>2019-10-05T13:28:44.000Z</Time>
            <Position>
              <LatitudeDegrees>41.86040838249027729034423828125</LatitudeDegrees>
              <LongitudeDegrees>-5.71871009655296802520751953125</LongitudeDegrees>
            </Position>
            <AltitudeMeters>637</AltitudeMeters>
            <DistanceMeters>NAN</DistanceMeters>
          </Trackpoint>
          <Trackpoint>
            <Time>2019-10-05T13:28:55.000Z</Time>
            <Position>
              <LatitudeDegrees>41.8598775565624237060546875</LatitudeDegrees>
              <LongitudeDegrees>-5.7189539261162281036376953125</LongitudeDegrees>
            </Position>
            <AltitudeMeters>636.79998779296875</AltitudeMeters>
            <DistanceMeters>NAN</DistanceMeters>
          </Trackpoint>
          <Trackpoint>
            <Time>2019-10-05T13:28:56.000Z</Time>
            <Position>
              <LatitudeDegrees>41.85982986353337764739990234375</LatitudeDegrees>
              <LongitudeDegrees>-5.71897588670253753662109375</LongitudeDegrees>
            </Position>
            <AltitudeMeters>637.20001220703125</AltitudeMeters>
            <DistanceMeters>NAN</DistanceMeters>
          </Trackpoint>
          <Trackpoint>
            <Time>2019-10-05T13:29:06.000Z</Time>
            <Position>
              <LatitudeDegrees>41.85934723354876041412353515625</LatitudeDegrees>
              <LongitudeDegrees>-5.7191983424127101898193359375</LongitudeDegrees>
            </Position>
            <AltitudeMeters>637.79998779296875</AltitudeMeters>
            <DistanceMeters>NAN</DistanceMeters>
          </Trackpoint>
          <Trackpoint>
            <Time>2019-10-05T13:29:10.000Z</Time>
            <Position>
              <LatitudeDegrees>41.859160400927066802978515625</LatitudeDegrees>
              <LongitudeDegrees>-5.71928568184375762939453125</LongitudeDegrees>
            </Position>
            <AltitudeMeters>638.20001220703125</AltitudeMeters>
            <DistanceMeters>NAN</DistanceMeters>
          </Trackpoint>
          <Trackpoint>
            <Time>2019-10-05T13:29:15.000Z</Time>
            <Position>
              <LatitudeDegrees>41.85891925357282161712646484375</LatitudeDegrees>
              <LongitudeDegrees>-5.71938090026378631591796875</LongitudeDegrees>
            </Position>
            <AltitudeMeters>638.5999755859375</AltitudeMeters>
            <DistanceMeters>NAN</DistanceMeters>
          </Trackpoint>
          <Trackpoint>
            <Time>2019-10-05T13:29:17.000Z</Time>
            <Position>
              <LatitudeDegrees>41.8587770126760005950927734375</LatitudeDegrees>
              <LongitudeDegrees>-5.71945440955460071563720703125</LongitudeDegrees>
            </Position>
            <AltitudeMeters>639.20001220703125</AltitudeMeters>
            <DistanceMeters>NAN</DistanceMeters>
          </Trackpoint>
          <Trackpoint>
            <Time>2019-10-05T13:29:23.000Z</Time>
            <Position>
              <LatitudeDegrees>41.85853921808302402496337890625</LatitudeDegrees>
              <LongitudeDegrees>-5.71955398656427860260009765625</LongitudeDegrees>
            </Position>
            <AltitudeMeters>639.20001220703125</AltitudeMeters>
            <DistanceMeters>NAN</DistanceMeters>
          </Trackpoint>
          <Trackpoint>
            <Time>2019-10-05T13:29:31.000Z</Time>
            <Position>
              <LatitudeDegrees>41.85816873796284198760986328125</LatitudeDegrees>
              <LongitudeDegrees>-5.71972749195992946624755859375</LongitudeDegrees>
            </Position>
            <AltitudeMeters>640.20001220703125</AltitudeMeters>
            <DistanceMeters>NAN</DistanceMeters>
          </Trackpoint>
          <Trackpoint>
            <Time>2019-10-05T13:29:36.000Z</Time>
            <Position>
              <LatitudeDegrees>41.85794997029006481170654296875</LatitudeDegrees>
              <LongitudeDegrees>-5.71982673369348049163818359375</LongitudeDegrees>
            </Position>
            <AltitudeMeters>640.4000244140625</AltitudeMeters>
            <DistanceMeters>NAN</DistanceMeters>
          </Trackpoint>
          <Trackpoint>
            <Time>2019-10-05T13:29:39.000Z</Time>
            <Position>
              <LatitudeDegrees>41.85782960616052150726318359375</LatitudeDegrees>
              <LongitudeDegrees>-5.71988440118730068206787109375</LongitudeDegrees>
            </Position>
            <AltitudeMeters>640</AltitudeMeters>
            <DistanceMeters>NAN</DistanceMeters>
          </Trackpoint>
          <Trackpoint>
            <Time>2019-10-05T13:29:47.000Z</Time>
            <Position>
              <LatitudeDegrees>41.85752970166504383087158203125</LatitudeDegrees>
              <LongitudeDegrees>-5.7200288213789463043212890625</LongitudeDegrees>
            </Position>
            <AltitudeMeters>641.5999755859375</AltitudeMeters>
            <DistanceMeters>NAN</DistanceMeters>
          </Trackpoint>
          <Trackpoint>
            <Time>2019-10-05T13:29:50.000Z</Time>
            <Position>
              <LatitudeDegrees>41.857419647276401519775390625</LatitudeDegrees>
              <LongitudeDegrees>-5.7200821302831172943115234375</LongitudeDegrees>
            </Position>
            <AltitudeMeters>641.79998779296875</AltitudeMeters>
            <DistanceMeters>NAN</DistanceMeters>
          </Trackpoint>
          <Trackpoint>
            <Time>2019-10-05T13:29:58.000Z</Time>
            <Position>
              <LatitudeDegrees>41.857144050300121307373046875</LatitudeDegrees>
              <LongitudeDegrees>-5.720210038125514984130859375</LongitudeDegrees>
            </Position>
            <AltitudeMeters>642.79998779296875</AltitudeMeters>
            <DistanceMeters>NAN</DistanceMeters>
          </Trackpoint>
          <Trackpoint>
            <Time>2019-10-05T13:30:00.000Z</Time>
            <Position>
              <LatitudeDegrees>41.85707640834152698516845703125</LatitudeDegrees>
              <LongitudeDegrees>-5.72024197317659854888916015625</LongitudeDegrees>
            </Position>
            <AltitudeMeters>643</AltitudeMeters>
            <DistanceMeters>NAN</DistanceMeters>
          </Trackpoint>
          <Trackpoint>
            <Time>2019-10-05T13:30:06.000Z</Time>
            <Position>
              <LatitudeDegrees>41.856875158846378326416015625</LatitudeDegrees>
              <LongitudeDegrees>-5.7203382812440395355224609375</LongitudeDegrees>
            </Position>
            <AltitudeMeters>643.79998779296875</AltitudeMeters>
            <DistanceMeters>NAN</DistanceMeters>
          </Trackpoint>
          <Trackpoint>
            <Time>2019-10-05T13:30:12.000Z</Time>
            <Position>
              <LatitudeDegrees>41.856675334274768829345703125</LatitudeDegrees>
              <LongitudeDegrees>-5.7204251177608966827392578125</LongitudeDegrees>
            </Position>
            <AltitudeMeters>643.79998779296875</AltitudeMeters>
            <DistanceMeters>NAN</DistanceMeters>
          </Trackpoint>
          <Trackpoint>
            <Time>2019-10-05T13:30:24.000Z</Time>
            <Position>
              <LatitudeDegrees>41.856266297399997711181640625</LatitudeDegrees>
              <LongitudeDegrees>-5.7206118665635585784912109375</LongitudeDegrees>
            </Position>
            <AltitudeMeters>644.5999755859375</AltitudeMeters>
            <DistanceMeters>NAN</DistanceMeters>
          </Trackpoint>
          <Trackpoint>
            <Time>2019-10-05T13:30:26.000Z</Time>
            <Position>
              <LatitudeDegrees>41.85619966126978397369384765625</LatitudeDegrees>
              <LongitudeDegrees>-5.72064329870045185089111328125</LongitudeDegrees>
            </Position>
            <AltitudeMeters>645.4000244140625</AltitudeMeters>
            <DistanceMeters>NAN</DistanceMeters>
          </Trackpoint>
          <Trackpoint>
            <Time>2019-10-05T13:30:34.000Z</Time>
            <Position>
              <LatitudeDegrees>41.8559211306273937225341796875</LatitudeDegrees>
              <LongitudeDegrees>-5.72077699005603790283203125</LongitudeDegrees>
            </Position>
            <AltitudeMeters>645.5999755859375</AltitudeMeters>
            <DistanceMeters>NAN</DistanceMeters>
          </Trackpoint>
          <Trackpoint>
            <Time>2019-10-05T13:30:41.000Z</Time>
            <Position>
              <LatitudeDegrees>41.85567093081772327423095703125</LatitudeDegrees>
              <LongitudeDegrees>-5.72088964283466339111328125</LongitudeDegrees>
            </Position>
            <AltitudeMeters>646.5999755859375</AltitudeMeters>
            <DistanceMeters>NAN</DistanceMeters>
          </Trackpoint>
          <Trackpoint>
            <Time>2019-10-05T13:30:46.000Z</Time>
            <Position>
              <LatitudeDegrees>41.85549147427082061767578125</LatitudeDegrees>
              <LongitudeDegrees>-5.72097681462764739990234375</LongitudeDegrees>
            </Position>
            <AltitudeMeters>646</AltitudeMeters>
            <DistanceMeters>NAN</DistanceMeters>
          </Trackpoint>
          <Trackpoint>
            <Time>2019-10-05T13:30:54.000Z</Time>
            <Position>
              <LatitudeDegrees>41.85520045459270477294921875</LatitudeDegrees>
              <LongitudeDegrees>-5.72110748849809169769287109375</LongitudeDegrees>
            </Position>
            <AltitudeMeters>645.5999755859375</AltitudeMeters>
            <DistanceMeters>NAN</DistanceMeters>
          </Trackpoint>
          <Trackpoint>
            <Time>2019-10-05T13:30:55.000Z</Time>
            <Position>
              <LatitudeDegrees>41.855164580047130584716796875</LatitudeDegrees>
              <LongitudeDegrees>-5.72112190537154674530029296875</LongitudeDegrees>
            </Position>
            <AltitudeMeters>645.4000244140625</AltitudeMeters>
            <DistanceMeters>NAN</DistanceMeters>
          </Trackpoint>
          <Trackpoint>
            <Time>2019-10-05T13:30:58.000Z</Time>
            <Position>
              <LatitudeDegrees>41.8550577946007251739501953125</LatitudeDegrees>
              <LongitudeDegrees>-5.72117035277187824249267578125</LongitudeDegrees>
            </Position>
            <AltitudeMeters>646.4000244140625</AltitudeMeters>
            <DistanceMeters>NAN</DistanceMeters>
          </Trackpoint>
          <Trackpoint>
            <Time>2019-10-05T13:31:06.000Z</Time>
            <Position>
              <LatitudeDegrees>41.8547734804451465606689453125</LatitudeDegrees>
              <LongitudeDegrees>-5.7213018648326396942138671875</LongitudeDegrees>
            </Position>
            <AltitudeMeters>646.79998779296875</AltitudeMeters>
            <DistanceMeters>NAN</DistanceMeters>
          </Trackpoint>
          <Trackpoint>
            <Time>2019-10-05T13:31:11.000Z</Time>
            <Position>
              <LatitudeDegrees>41.854591928422451019287109375</LatitudeDegrees>
              <LongitudeDegrees>-5.72139096446335315704345703125</LongitudeDegrees>
            </Position>
            <AltitudeMeters>647.4000244140625</AltitudeMeters>
            <DistanceMeters>NAN</DistanceMeters>
          </Trackpoint>
          <Trackpoint>
            <Time>2019-10-05T13:31:12.000Z</Time>
            <Position>
              <LatitudeDegrees>41.8545572273433208465576171875</LatitudeDegrees>
              <LongitudeDegrees>-5.721408315002918243408203125</LongitudeDegrees>
            </Position>
            <AltitudeMeters>647.4000244140625</AltitudeMeters>
            <DistanceMeters>NAN</DistanceMeters>
          </Trackpoint>
          <Trackpoint>
            <Time>2019-10-05T13:31:14.000Z</Time>
            <Position>
              <LatitudeDegrees>41.8544874899089336395263671875</LatitudeDegrees>
              <LongitudeDegrees>-5.72144175879657268524169921875</LongitudeDegrees>
            </Position>
            <AltitudeMeters>647.5999755859375</AltitudeMeters>
            <DistanceMeters>NAN</DistanceMeters>
          </Trackpoint>
          <Trackpoint>
            <Time>2019-10-05T13:31:23.000Z</Time>
            <Position>
              <LatitudeDegrees>41.85416989959776401519775390625</LatitudeDegrees>
              <LongitudeDegrees>-5.721586011350154876708984375</LongitudeDegrees>
            </Position>
            <AltitudeMeters>648.4000244140625</AltitudeMeters>
            <DistanceMeters>NAN</DistanceMeters>
          </Trackpoint>
          <Trackpoint>
            <Time>2019-10-05T13:31:24.000Z</Time>
            <Position>
              <LatitudeDegrees>41.85413452796638011932373046875</LatitudeDegrees>
              <LongitudeDegrees>-5.7216037809848785400390625</LongitudeDegrees>
            </Position>
            <AltitudeMeters>648.5999755859375</AltitudeMeters>
            <DistanceMeters>NAN</DistanceMeters>
          </Trackpoint>
          <Trackpoint>
            <Time>2019-10-05T13:31:34.000Z</Time>
            <Position>
              <LatitudeDegrees>41.85377217829227447509765625</LatitudeDegrees>
              <LongitudeDegrees>-5.7217672280967235565185546875</LongitudeDegrees>
            </Position>
            <AltitudeMeters>648.79998779296875</AltitudeMeters>
            <DistanceMeters>NAN</DistanceMeters>
          </Trackpoint>
          <Trackpoint>
            <Time>2019-10-05T13:31:41.000Z</Time>
            <Position>
              <LatitudeDegrees>41.85352147556841373443603515625</LatitudeDegrees>
              <LongitudeDegrees>-5.72188599966466426849365234375</LongitudeDegrees>
            </Position>
            <AltitudeMeters>649.4000244140625</AltitudeMeters>
            <DistanceMeters>NAN</DistanceMeters>
          </Trackpoint>
          <Trackpoint>
            <Time>2019-10-05T13:31:42.000Z</Time>
            <Position>
              <LatitudeDegrees>41.8534860201179981231689453125</LatitudeDegrees>
              <LongitudeDegrees>-5.7219041883945465087890625</LongitudeDegrees>
            </Position>
            <AltitudeMeters>649.5999755859375</AltitudeMeters>
            <DistanceMeters>NAN</DistanceMeters>
          </Trackpoint>
          <Trackpoint>
            <Time>2019-10-05T13:31:48.000Z</Time>
            <Position>
              <LatitudeDegrees>41.8532644025981426239013671875</LatitudeDegrees>
              <LongitudeDegrees>-5.7220069505274295806884765625</LongitudeDegrees>
            </Position>
            <AltitudeMeters>649.79998779296875</AltitudeMeters>
            <DistanceMeters>NAN</DistanceMeters>
          </Trackpoint>
          <Trackpoint>
            <Time>2019-10-05T13:31:58.000Z</Time>
            <Position>
              <LatitudeDegrees>41.8529038131237030029296875</LatitudeDegrees>
              <LongitudeDegrees>-5.72217903099954128265380859375</LongitudeDegrees>
            </Position>
            <AltitudeMeters>649.4000244140625</AltitudeMeters>
            <DistanceMeters>NAN</DistanceMeters>
          </Trackpoint>
          <Trackpoint>
            <Time>2019-10-05T13:32:07.000Z</Time>
            <Position>
              <LatitudeDegrees>41.8525760807096958160400390625</LatitudeDegrees>
              <LongitudeDegrees>-5.722330994904041290283203125</LongitudeDegrees>
            </Position>
            <AltitudeMeters>649.79998779296875</AltitudeMeters>
            <DistanceMeters>NAN</DistanceMeters>
          </Trackpoint>
          <Trackpoint>
            <Time>2019-10-05T13:32:18.000Z</Time>
            <Position>
              <LatitudeDegrees>41.85217265971004962921142578125</LatitudeDegrees>
              <LongitudeDegrees>-5.72251128964126110076904296875</LongitudeDegrees>
            </Position>
            <AltitudeMeters>650.5999755859375</AltitudeMeters>
            <DistanceMeters>NAN</DistanceMeters>
          </Trackpoint>
          <Trackpoint>
            <Time>2019-10-05T13:32:30.000Z</Time>
            <Position>
              <LatitudeDegrees>41.8517315201461315155029296875</LatitudeDegrees>
              <LongitudeDegrees>-5.72271932847797870635986328125</LongitudeDegrees>
            </Position>
            <AltitudeMeters>651.20001220703125</AltitudeMeters>
            <DistanceMeters>NAN</DistanceMeters>
          </Trackpoint>
          <Trackpoint>
            <Time>2019-10-05T13:32:39.000Z</Time>
            <Position>
              <LatitudeDegrees>41.8513878621160984039306640625</LatitudeDegrees>
              <LongitudeDegrees>-5.72287925519049167633056640625</LongitudeDegrees>
            </Position>
            <AltitudeMeters>651.5999755859375</AltitudeMeters>
            <DistanceMeters>NAN</DistanceMeters>
          </Trackpoint>
          <Trackpoint>
            <Time>2019-10-05T13:32:40.000Z</Time>
            <Position>
              <LatitudeDegrees>41.8513493053615093231201171875</LatitudeDegrees>
              <LongitudeDegrees>-5.72289451025426387786865234375</LongitudeDegrees>
            </Position>
            <AltitudeMeters>651.79998779296875</AltitudeMeters>
            <DistanceMeters>NAN</DistanceMeters>
          </Trackpoint>
          <Trackpoint>
            <Time>2019-10-05T13:32:47.000Z</Time>
            <Position>
              <LatitudeDegrees>41.85107362456619739532470703125</LatitudeDegrees>
              <LongitudeDegrees>-5.72301923297345638275146484375</LongitudeDegrees>
            </Position>
            <AltitudeMeters>652.4000244140625</AltitudeMeters>
            <DistanceMeters>NAN</DistanceMeters>
          </Trackpoint>
          <Trackpoint>
            <Time>2019-10-05T13:32:56.000Z</Time>
            <Position>
              <LatitudeDegrees>41.85070415027439594268798828125</LatitudeDegrees>
              <LongitudeDegrees>-5.72318485938012599945068359375</LongitudeDegrees>
            </Position>
            <AltitudeMeters>652.20001220703125</AltitudeMeters>
            <DistanceMeters>NAN</DistanceMeters>
          </Trackpoint>
          <Trackpoint>
            <Time>2019-10-05T13:32:58.000Z</Time>
            <Position>
              <LatitudeDegrees>41.8506150506436824798583984375</LatitudeDegrees>
              <LongitudeDegrees>-5.723226852715015411376953125</LongitudeDegrees>
            </Position>
            <AltitudeMeters>652</AltitudeMeters>
            <DistanceMeters>NAN</DistanceMeters>
          </Trackpoint>
          <Trackpoint>
            <Time>2019-10-05T13:33:07.000Z</Time>
            <Position>
              <LatitudeDegrees>41.8502526171505451202392578125</LatitudeDegrees>
              <LongitudeDegrees>-5.72339591570198535919189453125</LongitudeDegrees>
            </Position>
            <AltitudeMeters>652.20001220703125</AltitudeMeters>
            <DistanceMeters>NAN</DistanceMeters>
          </Trackpoint>
          <Trackpoint>
            <Time>2019-10-05T13:33:10.000Z</Time>
            <Position>
              <LatitudeDegrees>41.85012848116457462310791015625</LatitudeDegrees>
              <LongitudeDegrees>-5.72345090098679065704345703125</LongitudeDegrees>
            </Position>
            <AltitudeMeters>652</AltitudeMeters>
            <DistanceMeters>NAN</DistanceMeters>
          </Trackpoint>
          <Trackpoint>
            <Time>2019-10-05T13:33:15.000Z</Time>
            <Position>
              <LatitudeDegrees>41.849919520318508148193359375</LatitudeDegrees>
              <LongitudeDegrees>-5.7235441915690898895263671875</LongitudeDegrees>
            </Position>
            <AltitudeMeters>651.5999755859375</AltitudeMeters>
            <DistanceMeters>NAN</DistanceMeters>
          </Trackpoint>
          <Trackpoint>
            <Time>2019-10-05T13:33:18.000Z</Time>
            <Position>
              <LatitudeDegrees>41.84979379177093505859375</LatitudeDegrees>
              <LongitudeDegrees>-5.72359657846391201019287109375</LongitudeDegrees>
            </Position>
            <AltitudeMeters>652</AltitudeMeters>
            <DistanceMeters>NAN</DistanceMeters>
          </Trackpoint>
          <Trackpoint>
            <Time>2019-10-05T13:33:27.000Z</Time>
            <Position>
              <LatitudeDegrees>41.8494276702404022216796875</LatitudeDegrees>
              <LongitudeDegrees>-5.723767317831516265869140625</LongitudeDegrees>
            </Position>
            <AltitudeMeters>651.79998779296875</AltitudeMeters>
            <DistanceMeters>NAN</DistanceMeters>
          </Trackpoint>
          <Trackpoint>
            <Time>2019-10-05T13:33:38.000Z</Time>
            <Position>
              <LatitudeDegrees>41.84897504746913909912109375</LatitudeDegrees>
              <LongitudeDegrees>-5.7239713333547115325927734375</LongitudeDegrees>
            </Position>
            <AltitudeMeters>652.20001220703125</AltitudeMeters>
            <DistanceMeters>NAN</DistanceMeters>
          </Trackpoint>
          <Trackpoint>
            <Time>2019-10-05T13:33:49.000Z</Time>
            <Position>
              <LatitudeDegrees>41.848534159362316131591796875</LatitudeDegrees>
              <LongitudeDegrees>-5.72418683208525180816650390625</LongitudeDegrees>
            </Position>
            <AltitudeMeters>652</AltitudeMeters>
            <DistanceMeters>NAN</DistanceMeters>
          </Trackpoint>
          <Trackpoint>
            <Time>2019-10-05T13:33:51.000Z</Time>
            <Position>
              <LatitudeDegrees>41.84845226816833019256591796875</LatitudeDegrees>
              <LongitudeDegrees>-5.7242201082408428192138671875</LongitudeDegrees>
            </Position>
            <AltitudeMeters>652.20001220703125</AltitudeMeters>
            <DistanceMeters>NAN</DistanceMeters>
          </Trackpoint>
          <Trackpoint>
            <Time>2019-10-05T13:33:57.000Z</Time>
            <Position>
              <LatitudeDegrees>41.84822000563144683837890625</LatitudeDegrees>
              <LongitudeDegrees>-5.7243297435343265533447265625</LongitudeDegrees>
            </Position>
            <AltitudeMeters>652.20001220703125</AltitudeMeters>
            <DistanceMeters>NAN</DistanceMeters>
          </Trackpoint>
          <Trackpoint>
            <Time>2019-10-05T13:34:04.000Z</Time>
            <Position>
              <LatitudeDegrees>41.84795086272060871124267578125</LatitudeDegrees>
              <LongitudeDegrees>-5.724449940025806427001953125</LongitudeDegrees>
            </Position>
            <AltitudeMeters>652.79998779296875</AltitudeMeters>
            <DistanceMeters>NAN</DistanceMeters>
          </Trackpoint>
          <Trackpoint>
            <Time>2019-10-05T13:34:05.000Z</Time>
            <Position>
              <LatitudeDegrees>41.84791347943246364593505859375</LatitudeDegrees>
              <LongitudeDegrees>-5.72446645237505435943603515625</LongitudeDegrees>
            </Position>
            <AltitudeMeters>652.79998779296875</AltitudeMeters>
            <DistanceMeters>NAN</DistanceMeters>
          </Trackpoint>
          <Trackpoint>
            <Time>2019-10-05T13:34:09.000Z</Time>
            <Position>
              <LatitudeDegrees>41.84776679612696170806884765625</LatitudeDegrees>
              <LongitudeDegrees>-5.72452177293598651885986328125</LongitudeDegrees>
            </Position>
            <AltitudeMeters>653</AltitudeMeters>
            <DistanceMeters>NAN</DistanceMeters>
          </Trackpoint>
          <Trackpoint>
            <Time>2019-10-05T13:34:14.000Z</Time>
            <Position>
              <LatitudeDegrees>41.84757870621979236602783203125</LatitudeDegrees>
              <LongitudeDegrees>-5.72460022754967212677001953125</LongitudeDegrees>
            </Position>
            <AltitudeMeters>654</AltitudeMeters>
            <DistanceMeters>NAN</DistanceMeters>
          </Trackpoint>
          <Trackpoint>
            <Time>2019-10-05T13:34:16.000Z</Time>
            <Position>
              <LatitudeDegrees>41.8475006707012653350830078125</LatitudeDegrees>
              <LongitudeDegrees>-5.72463266551494598388671875</LongitudeDegrees>
            </Position>
            <AltitudeMeters>654</AltitudeMeters>
            <DistanceMeters>NAN</DistanceMeters>
          </Trackpoint>
          <Trackpoint>
            <Time>2019-10-05T13:34:22.000Z</Time>
            <Position>
              <LatitudeDegrees>41.84727343730628490447998046875</LatitudeDegrees>
              <LongitudeDegrees>-5.724704749882221221923828125</LongitudeDegrees>
            </Position>
            <AltitudeMeters>654.20001220703125</AltitudeMeters>
            <DistanceMeters>NAN</DistanceMeters>
          </Trackpoint>
          <Trackpoint>
            <Time>2019-10-05T13:34:23.000Z</Time>
            <Position>
              <LatitudeDegrees>41.84723655693233013153076171875</LatitudeDegrees>
              <LongitudeDegrees>-5.72471941821277141571044921875</LongitudeDegrees>
            </Position>
            <AltitudeMeters>654.5999755859375</AltitudeMeters>
            <DistanceMeters>NAN</DistanceMeters>
          </Trackpoint>
          <Trackpoint>
            <Time>2019-10-05T13:34:30.000Z</Time>
            <Position>
              <LatitudeDegrees>41.84697210788726806640625</LatitudeDegrees>
              <LongitudeDegrees>-5.724817402660846710205078125</LongitudeDegrees>
            </Position>
            <AltitudeMeters>655.20001220703125</AltitudeMeters>
            <DistanceMeters>NAN</DistanceMeters>
          </Trackpoint>
          <Trackpoint>
            <Time>2019-10-05T13:34:37.000Z</Time>
            <Position>
              <LatitudeDegrees>41.84670682065188884735107421875</LatitudeDegrees>
              <LongitudeDegrees>-5.72490918450057506561279296875</LongitudeDegrees>
            </Position>
            <AltitudeMeters>656</AltitudeMeters>
            <DistanceMeters>NAN</DistanceMeters>
          </Trackpoint>
          <Trackpoint>
            <Time>2019-10-05T13:34:40.000Z</Time>
            <Position>
              <LatitudeDegrees>41.8465860374271869659423828125</LatitudeDegrees>
              <LongitudeDegrees>-5.724948830902576446533203125</LongitudeDegrees>
            </Position>
            <AltitudeMeters>656.20001220703125</AltitudeMeters>
            <DistanceMeters>NAN</DistanceMeters>
          </Trackpoint>
          <Trackpoint>
            <Time>2019-10-05T13:34:45.000Z</Time>
            <Position>
              <LatitudeDegrees>41.84639769606292247772216796875</LatitudeDegrees>
              <LongitudeDegrees>-5.72501278482377529144287109375</LongitudeDegrees>
            </Position>
            <AltitudeMeters>657.20001220703125</AltitudeMeters>
            <DistanceMeters>NAN</DistanceMeters>
          </Trackpoint>
          <Trackpoint>
            <Time>2019-10-05T13:34:48.000Z</Time>
            <Position>
              <LatitudeDegrees>41.84627967886626720428466796875</LatitudeDegrees>
              <LongitudeDegrees>-5.72505285032093524932861328125</LongitudeDegrees>
            </Position>
            <AltitudeMeters>657.20001220703125</AltitudeMeters>
            <DistanceMeters>NAN</DistanceMeters>
          </Trackpoint>
          <Trackpoint>
            <Time>2019-10-05T13:34:57.000Z</Time>
            <Position>
              <LatitudeDegrees>41.84592939913272857666015625</LatitudeDegrees>
              <LongitudeDegrees>-5.72516885586082935333251953125</LongitudeDegrees>
            </Position>
            <AltitudeMeters>657.20001220703125</AltitudeMeters>
            <DistanceMeters>NAN</DistanceMeters>
          </Trackpoint>
          <Trackpoint>
            <Time>2019-10-05T13:35:09.000Z</Time>
            <Position>
              <LatitudeDegrees>41.84547870419919490814208984375</LatitudeDegrees>
              <LongitudeDegrees>-5.72533062659204006195068359375</LongitudeDegrees>
            </Position>
            <AltitudeMeters>657</AltitudeMeters>
            <DistanceMeters>NAN</DistanceMeters>
          </Trackpoint>
          <Trackpoint>
            <Time>2019-10-05T13:35:15.000Z</Time>
            <Position>
              <LatitudeDegrees>41.8452526442706584930419921875</LatitudeDegrees>
              <LongitudeDegrees>-5.725406818091869354248046875</LongitudeDegrees>
            </Position>
            <AltitudeMeters>658.5999755859375</AltitudeMeters>
            <DistanceMeters>NAN</DistanceMeters>
          </Trackpoint>
          <Trackpoint>
            <Time>2019-10-05T13:35:17.000Z</Time>
            <Position>
              <LatitudeDegrees>41.84517444111406803131103515625</LatitudeDegrees>
              <LongitudeDegrees>-5.7254326343536376953125</LongitudeDegrees>
            </Position>
            <AltitudeMeters>659.20001220703125</AltitudeMeters>
            <DistanceMeters>NAN</DistanceMeters>
          </Trackpoint>
          <Trackpoint>
            <Time>2019-10-05T13:35:27.000Z</Time>
            <Position>
              <LatitudeDegrees>41.8447876162827014923095703125</LatitudeDegrees>
              <LongitudeDegrees>-5.72555710561573505401611328125</LongitudeDegrees>
            </Position>
            <AltitudeMeters>659.20001220703125</AltitudeMeters>
            <DistanceMeters>NAN</DistanceMeters>
          </Trackpoint>
          <Trackpoint>
            <Time>2019-10-05T13:35:35.000Z</Time>
            <Position>
              <LatitudeDegrees>41.844474971294403076171875</LatitudeDegrees>
              <LongitudeDegrees>-5.72566422633826732635498046875</LongitudeDegrees>
            </Position>
            <AltitudeMeters>659.5999755859375</AltitudeMeters>
            <DistanceMeters>NAN</DistanceMeters>
          </Trackpoint>
          <Trackpoint>
            <Time>2019-10-05T13:35:40.000Z</Time>
            <Position>
              <LatitudeDegrees>41.84428394772112369537353515625</LatitudeDegrees>
              <LongitudeDegrees>-5.72573103010654449462890625</LongitudeDegrees>
            </Position>
            <AltitudeMeters>660</AltitudeMeters>
            <DistanceMeters>NAN</DistanceMeters>
          </Trackpoint>
          <Trackpoint>
            <Time>2019-10-05T13:35:43.000Z</Time>
            <Position>
              <LatitudeDegrees>41.84416794218122959136962890625</LatitudeDegrees>
              <LongitudeDegrees>-5.725768245756626129150390625</LongitudeDegrees>
            </Position>
            <AltitudeMeters>660.5999755859375</AltitudeMeters>
            <DistanceMeters>NAN</DistanceMeters>
          </Trackpoint>
          <Trackpoint>
            <Time>2019-10-05T13:35:51.000Z</Time>
            <Position>
              <LatitudeDegrees>41.843857057392597198486328125</LatitudeDegrees>
              <LongitudeDegrees>-5.7258807308971881866455078125</LongitudeDegrees>
            </Position>
            <AltitudeMeters>661.4000244140625</AltitudeMeters>
            <DistanceMeters>NAN</DistanceMeters>
          </Trackpoint>
          <Trackpoint>
            <Time>2019-10-05T13:35:53.000Z</Time>
            <Position>
              <LatitudeDegrees>41.84377701021730899810791015625</LatitudeDegrees>
              <LongitudeDegrees>-5.7259038649499416351318359375</LongitudeDegrees>
            </Position>
            <AltitudeMeters>661.79998779296875</AltitudeMeters>
            <DistanceMeters>NAN</DistanceMeters>
          </Trackpoint>
          <Trackpoint>
            <Time>2019-10-05T13:35:58.000Z</Time>
            <Position>
              <LatitudeDegrees>41.84357735328376293182373046875</LatitudeDegrees>
              <LongitudeDegrees>-5.72597016580402851104736328125</LongitudeDegrees>
            </Position>
            <AltitudeMeters>660.5999755859375</AltitudeMeters>
            <DistanceMeters>NAN</DistanceMeters>
          </Trackpoint>
          <Trackpoint>
            <Time>2019-10-05T13:36:05.000Z</Time>
            <Position>
              <LatitudeDegrees>41.8432855792343616485595703125</LatitudeDegrees>
              <LongitudeDegrees>-5.7260681502521038055419921875</LongitudeDegrees>
            </Position>
            <AltitudeMeters>660.5999755859375</AltitudeMeters>
            <DistanceMeters>NAN</DistanceMeters>
          </Trackpoint>
          <Trackpoint>
            <Time>2019-10-05T13:36:14.000Z</Time>
            <Position>
              <LatitudeDegrees>41.84287411160767078399658203125</LatitudeDegrees>
              <LongitudeDegrees>-5.7262096367776393890380859375</LongitudeDegrees>
            </Position>
            <AltitudeMeters>662.20001220703125</AltitudeMeters>
            <DistanceMeters>NAN</DistanceMeters>
          </Trackpoint>
          <Trackpoint>
            <Time>2019-10-05T13:36:16.000Z</Time>
            <Position>
              <LatitudeDegrees>41.84277906082570552825927734375</LatitudeDegrees>
              <LongitudeDegrees>-5.72624173946678638458251953125</LongitudeDegrees>
            </Position>
            <AltitudeMeters>662.4000244140625</AltitudeMeters>
            <DistanceMeters>NAN</DistanceMeters>
          </Trackpoint>
          <Trackpoint>
            <Time>2019-10-05T13:36:22.000Z</Time>
            <Position>
              <LatitudeDegrees>41.84249055571854114532470703125</LatitudeDegrees>
              <LongitudeDegrees>-5.72634181939065456390380859375</LongitudeDegrees>
            </Position>
            <AltitudeMeters>662</AltitudeMeters>
            <DistanceMeters>NAN</DistanceMeters>
          </Trackpoint>
          <Trackpoint>
            <Time>2019-10-05T13:36:25.000Z</Time>
            <Position>
              <LatitudeDegrees>41.84234504587948322296142578125</LatitudeDegrees>
              <LongitudeDegrees>-5.7263906858861446380615234375</LongitudeDegrees>
            </Position>
            <AltitudeMeters>661.79998779296875</AltitudeMeters>
            <DistanceMeters>NAN</DistanceMeters>
          </Trackpoint>
          <Trackpoint>
            <Time>2019-10-05T13:36:30.000Z</Time>
            <Position>
              <LatitudeDegrees>41.84209610335528850555419921875</LatitudeDegrees>
              <LongitudeDegrees>-5.72647324763238430023193359375</LongitudeDegrees>
            </Position>
            <AltitudeMeters>661.4000244140625</AltitudeMeters>
            <DistanceMeters>NAN</DistanceMeters>
          </Trackpoint>
          <Trackpoint>
            <Time>2019-10-05T13:36:32.000Z</Time>
            <Position>
              <LatitudeDegrees>41.84199501760303974151611328125</LatitudeDegrees>
              <LongitudeDegrees>-5.72650744579732418060302734375</LongitudeDegrees>
            </Position>
            <AltitudeMeters>661</AltitudeMeters>
            <DistanceMeters>NAN</DistanceMeters>
          </Trackpoint>
          <Trackpoint>
            <Time>2019-10-05T13:36:42.000Z</Time>
            <Position>
              <LatitudeDegrees>41.84147567488253116607666015625</LatitudeDegrees>
              <LongitudeDegrees>-5.72668187320232391357421875</LongitudeDegrees>
            </Position>
            <AltitudeMeters>660.79998779296875</AltitudeMeters>
            <DistanceMeters>NAN</DistanceMeters>
          </Trackpoint>
          <Trackpoint>
            <Time>2019-10-05T13:36:43.000Z</Time>
            <Position>
              <LatitudeDegrees>41.841422952711582183837890625</LatitudeDegrees>
              <LongitudeDegrees>-5.72669955901801586151123046875</LongitudeDegrees>
            </Position>
            <AltitudeMeters>660.79998779296875</AltitudeMeters>
            <DistanceMeters>NAN</DistanceMeters>
          </Trackpoint>
          <Trackpoint>
            <Time>2019-10-05T13:36:52.000Z</Time>
            <Position>
              <LatitudeDegrees>41.84094451367855072021484375</LatitudeDegrees>
              <LongitudeDegrees>-5.72686426341533660888671875</LongitudeDegrees>
            </Position>
            <AltitudeMeters>660.20001220703125</AltitudeMeters>
            <DistanceMeters>NAN</DistanceMeters>
          </Trackpoint>
          <Trackpoint>
            <Time>2019-10-05T13:36:53.000Z</Time>
            <Position>
              <LatitudeDegrees>41.8408917076885700225830078125</LatitudeDegrees>
              <LongitudeDegrees>-5.7268832065165042877197265625</LongitudeDegrees>
            </Position>
            <AltitudeMeters>659.79998779296875</AltitudeMeters>
            <DistanceMeters>NAN</DistanceMeters>
          </Trackpoint>
          <Trackpoint>
            <Time>2019-10-05T13:37:03.000Z</Time>
            <Position>
              <LatitudeDegrees>41.84035618789494037628173828125</LatitudeDegrees>
              <LongitudeDegrees>-5.72706668637692928314208984375</LongitudeDegrees>
            </Position>
            <AltitudeMeters>660.5999755859375</AltitudeMeters>
            <DistanceMeters>NAN</DistanceMeters>
          </Trackpoint>
          <Trackpoint>
            <Time>2019-10-05T13:37:04.000Z</Time>
            <Position>
              <LatitudeDegrees>41.84030338190495967864990234375</LatitudeDegrees>
              <LongitudeDegrees>-5.72708428837358951568603515625</LongitudeDegrees>
            </Position>
            <AltitudeMeters>660.4000244140625</AltitudeMeters>
            <DistanceMeters>NAN</DistanceMeters>
          </Trackpoint>
          <Trackpoint>
            <Time>2019-10-05T13:37:14.000Z</Time>
            <Position>
              <LatitudeDegrees>41.8397635035216808319091796875</LatitudeDegrees>
              <LongitudeDegrees>-5.72726634331047534942626953125</LongitudeDegrees>
            </Position>
            <AltitudeMeters>660.20001220703125</AltitudeMeters>
            <DistanceMeters>NAN</DistanceMeters>
          </Trackpoint>
          <Trackpoint>
            <Time>2019-10-05T13:37:16.000Z</Time>
            <Position>
              <LatitudeDegrees>41.8396548740565776824951171875</LatitudeDegrees>
              <LongitudeDegrees>-5.7273036427795886993408203125</LongitudeDegrees>
            </Position>
            <AltitudeMeters>660</AltitudeMeters>
            <DistanceMeters>NAN</DistanceMeters>
          </Trackpoint>
          <Trackpoint>
            <Time>2019-10-05T13:37:26.000Z</Time>
            <Position>
              <LatitudeDegrees>41.83910778723657131195068359375</LatitudeDegrees>
              <LongitudeDegrees>-5.72748661972582340240478515625</LongitudeDegrees>
            </Position>
            <AltitudeMeters>659.5999755859375</AltitudeMeters>
            <DistanceMeters>NAN</DistanceMeters>
          </Trackpoint>
          <Trackpoint>
            <Time>2019-10-05T13:37:36.000Z</Time>
            <Position>
              <LatitudeDegrees>41.83855910785496234893798828125</LatitudeDegrees>
              <LongitudeDegrees>-5.72767102159559726715087890625</LongitudeDegrees>
            </Position>
            <AltitudeMeters>660.4000244140625</AltitudeMeters>
            <DistanceMeters>NAN</DistanceMeters>
          </Trackpoint>
          <Trackpoint>
            <Time>2019-10-05T13:37:39.000Z</Time>
            <Position>
              <LatitudeDegrees>41.83839063160121440887451171875</LatitudeDegrees>
              <LongitudeDegrees>-5.72772718034684658050537109375</LongitudeDegrees>
            </Position>
            <AltitudeMeters>659.79998779296875</AltitudeMeters>
            <DistanceMeters>NAN</DistanceMeters>
          </Trackpoint>
          <Trackpoint>
            <Time>2019-10-05T13:37:46.000Z</Time>
            <Position>
              <LatitudeDegrees>41.83799634687602519989013671875</LatitudeDegrees>
              <LongitudeDegrees>-5.72785936295986175537109375</LongitudeDegrees>
            </Position>
            <AltitudeMeters>659.20001220703125</AltitudeMeters>
            <DistanceMeters>NAN</DistanceMeters>
          </Trackpoint>
          <Trackpoint>
            <Time>2019-10-05T13:37:54.000Z</Time>
            <Position>
              <LatitudeDegrees>41.83753852732479572296142578125</LatitudeDegrees>
              <LongitudeDegrees>-5.7280177809298038482666015625</LongitudeDegrees>
            </Position>
            <AltitudeMeters>658.20001220703125</AltitudeMeters>
            <DistanceMeters>NAN</DistanceMeters>
          </Trackpoint>
          <Trackpoint>
            <Time>2019-10-05T13:37:56.000Z</Time>
            <Position>
              <LatitudeDegrees>41.837424449622631072998046875</LatitudeDegrees>
              <LongitudeDegrees>-5.7280549965798854827880859375</LongitudeDegrees>
            </Position>
            <AltitudeMeters>658.5999755859375</AltitudeMeters>
            <DistanceMeters>NAN</DistanceMeters>
          </Trackpoint>
          <Trackpoint>
            <Time>2019-10-05T13:38:08.000Z</Time>
            <Position>
              <LatitudeDegrees>41.836802847683429718017578125</LatitudeDegrees>
              <LongitudeDegrees>-5.728266052901744842529296875</LongitudeDegrees>
            </Position>
            <AltitudeMeters>659.4000244140625</AltitudeMeters>
            <DistanceMeters>NAN</DistanceMeters>
          </Trackpoint>
          <Trackpoint>
            <Time>2019-10-05T13:38:18.000Z</Time>
            <Position>
              <LatitudeDegrees>41.83624436147511005401611328125</LatitudeDegrees>
              <LongitudeDegrees>-5.72846445254981517791748046875</LongitudeDegrees>
            </Position>
            <AltitudeMeters>659</AltitudeMeters>
            <DistanceMeters>NAN</DistanceMeters>
          </Trackpoint>
          <Trackpoint>
            <Time>2019-10-05T13:38:21.000Z</Time>
            <Position>
              <LatitudeDegrees>41.836074627935886383056640625</LatitudeDegrees>
              <LongitudeDegrees>-5.72852396406233310699462890625</LongitudeDegrees>
            </Position>
            <AltitudeMeters>658.79998779296875</AltitudeMeters>
            <DistanceMeters>NAN</DistanceMeters>
          </Trackpoint>
          <Trackpoint>
            <Time>2019-10-05T13:38:22.000Z</Time>
            <Position>
              <LatitudeDegrees>41.83601905591785907745361328125</LatitudeDegrees>
              <LongitudeDegrees>-5.7285431586205959320068359375</LongitudeDegrees>
            </Position>
            <AltitudeMeters>658.4000244140625</AltitudeMeters>
            <DistanceMeters>NAN</DistanceMeters>
          </Trackpoint>
          <Trackpoint>
            <Time>2019-10-05T13:38:32.000Z</Time>
            <Position>
              <LatitudeDegrees>41.83547188527882099151611328125</LatitudeDegrees>
              <LongitudeDegrees>-5.7287248782813549041748046875</LongitudeDegrees>
            </Position>
            <AltitudeMeters>658.20001220703125</AltitudeMeters>
            <DistanceMeters>NAN</DistanceMeters>
          </Trackpoint>
          <Trackpoint>
            <Time>2019-10-05T13:38:33.000Z</Time>
            <Position>
              <LatitudeDegrees>41.8354166485369205474853515625</LatitudeDegrees>
              <LongitudeDegrees>-5.72874390520155429840087890625</LongitudeDegrees>
            </Position>
            <AltitudeMeters>658</AltitudeMeters>
            <DistanceMeters>NAN</DistanceMeters>
          </Trackpoint>
          <Trackpoint>
            <Time>2019-10-05T13:38:42.000Z</Time>
            <Position>
              <LatitudeDegrees>41.83490241877734661102294921875</LatitudeDegrees>
              <LongitudeDegrees>-5.7289236970245838165283203125</LongitudeDegrees>
            </Position>
            <AltitudeMeters>657.79998779296875</AltitudeMeters>
            <DistanceMeters>NAN</DistanceMeters>
          </Trackpoint>
          <Trackpoint>
            <Time>2019-10-05T13:38:43.000Z</Time>
            <Position>
              <LatitudeDegrees>41.83484039269387722015380859375</LatitudeDegrees>
              <LongitudeDegrees>-5.72894104756414890289306640625</LongitudeDegrees>
            </Position>
            <AltitudeMeters>657.4000244140625</AltitudeMeters>
            <DistanceMeters>NAN</DistanceMeters>
          </Trackpoint>
          <Trackpoint>
            <Time>2019-10-05T13:38:48.000Z</Time>
            <Position>
              <LatitudeDegrees>41.8345199525356292724609375</LatitudeDegrees>
              <LongitudeDegrees>-5.72904766537249088287353515625</LongitudeDegrees>
            </Position>
            <AltitudeMeters>657</AltitudeMeters>
            <DistanceMeters>NAN</DistanceMeters>
          </Trackpoint>
          <Trackpoint>
            <Time>2019-10-05T13:38:50.000Z</Time>
            <Position>
              <LatitudeDegrees>41.8343883566558361053466796875</LatitudeDegrees>
              <LongitudeDegrees>-5.7290926761925220489501953125</LongitudeDegrees>
            </Position>
            <AltitudeMeters>656</AltitudeMeters>
            <DistanceMeters>NAN</DistanceMeters>
          </Trackpoint>
          <Trackpoint>
            <Time>2019-10-05T13:38:51.000Z</Time>
            <Position>
              <LatitudeDegrees>41.83432406745851039886474609375</LatitudeDegrees>
              <LongitudeDegrees>-5.7291164807975292205810546875</LongitudeDegrees>
            </Position>
            <AltitudeMeters>655.5999755859375</AltitudeMeters>
            <DistanceMeters>NAN</DistanceMeters>
          </Trackpoint>
          <Trackpoint>
            <Time>2019-10-05T13:38:58.000Z</Time>
            <Position>
              <LatitudeDegrees>41.83387513272464275360107421875</LatitudeDegrees>
              <LongitudeDegrees>-5.7292660139501094818115234375</LongitudeDegrees>
            </Position>
            <AltitudeMeters>656</AltitudeMeters>
            <DistanceMeters>NAN</DistanceMeters>
          </Trackpoint>
          <Trackpoint>
            <Time>2019-10-05T13:39:00.000Z</Time>
            <Position>
              <LatitudeDegrees>41.83374873362481594085693359375</LatitudeDegrees>
              <LongitudeDegrees>-5.7293109409511089324951171875</LongitudeDegrees>
            </Position>
            <AltitudeMeters>655.5999755859375</AltitudeMeters>
            <DistanceMeters>NAN</DistanceMeters>
          </Trackpoint>
          <Trackpoint>
            <Time>2019-10-05T13:39:02.000Z</Time>
            <Position>
              <LatitudeDegrees>41.8335873819887638092041015625</LatitudeDegrees>
              <LongitudeDegrees>-5.729363746941089630126953125</LongitudeDegrees>
            </Position>
            <AltitudeMeters>654.5999755859375</AltitudeMeters>
            <DistanceMeters>NAN</DistanceMeters>
          </Trackpoint>
          <Trackpoint>
            <Time>2019-10-05T13:39:10.000Z</Time>
            <Position>
              <LatitudeDegrees>41.833145655691623687744140625</LatitudeDegrees>
              <LongitudeDegrees>-5.7295117713510990142822265625</LongitudeDegrees>
            </Position>
            <AltitudeMeters>654.4000244140625</AltitudeMeters>
            <DistanceMeters>NAN</DistanceMeters>
          </Trackpoint>
          <Trackpoint>
            <Time>2019-10-05T13:39:18.000Z</Time>
            <Position>
              <LatitudeDegrees>41.83270216919481754302978515625</LatitudeDegrees>
              <LongitudeDegrees>-5.7296609692275524139404296875</LongitudeDegrees>
            </Position>
            <AltitudeMeters>654.79998779296875</AltitudeMeters>
            <DistanceMeters>NAN</DistanceMeters>
          </Trackpoint>
          <Trackpoint>
            <Time>2019-10-05T13:39:28.000Z</Time>
            <Position>
              <LatitudeDegrees>41.83217369019985198974609375</LatitudeDegrees>
              <LongitudeDegrees>-5.72984151542186737060546875</LongitudeDegrees>
            </Position>
            <AltitudeMeters>655</AltitudeMeters>
            <DistanceMeters>NAN</DistanceMeters>
          </Trackpoint>
          <Trackpoint>
            <Time>2019-10-05T13:39:38.000Z</Time>
            <Position>
              <LatitudeDegrees>41.83161847293376922607421875</LatitudeDegrees>
              <LongitudeDegrees>-5.73003404773771762847900390625</LongitudeDegrees>
            </Position>
            <AltitudeMeters>654.79998779296875</AltitudeMeters>
            <DistanceMeters>NAN</DistanceMeters>
          </Trackpoint>
          <Trackpoint>
            <Time>2019-10-05T13:39:39.000Z</Time>
            <Position>
              <LatitudeDegrees>41.83155988343060016632080078125</LatitudeDegrees>
              <LongitudeDegrees>-5.73005475103855133056640625</LongitudeDegrees>
            </Position>
            <AltitudeMeters>654.4000244140625</AltitudeMeters>
            <DistanceMeters>NAN</DistanceMeters>
          </Trackpoint>
          <Trackpoint>
            <Time>2019-10-05T13:39:42.000Z</Time>
            <Position>
              <LatitudeDegrees>41.83138302527368068695068359375</LatitudeDegrees>
              <LongitudeDegrees>-5.73011401109397411346435546875</LongitudeDegrees>
            </Position>
            <AltitudeMeters>653.5999755859375</AltitudeMeters>
            <DistanceMeters>NAN</DistanceMeters>
          </Trackpoint>
          <Trackpoint>
            <Time>2019-10-05T13:39:44.000Z</Time>
            <Position>
              <LatitudeDegrees>41.83126115240156650543212890625</LatitudeDegrees>
              <LongitudeDegrees>-5.73015390895307064056396484375</LongitudeDegrees>
            </Position>
            <AltitudeMeters>652.5999755859375</AltitudeMeters>
            <DistanceMeters>NAN</DistanceMeters>
          </Trackpoint>
          <Trackpoint>
            <Time>2019-10-05T13:39:48.000Z</Time>
            <Position>
              <LatitudeDegrees>41.83101455681025981903076171875</LatitudeDegrees>
              <LongitudeDegrees>-5.730242170393466949462890625</LongitudeDegrees>
            </Position>
            <AltitudeMeters>651.5999755859375</AltitudeMeters>
            <DistanceMeters>NAN</DistanceMeters>
          </Trackpoint>
          <Trackpoint>
            <Time>2019-10-05T13:39:49.000Z</Time>
            <Position>
              <LatitudeDegrees>41.83096040971577167510986328125</LatitudeDegrees>
              <LongitudeDegrees>-5.73028584010899066925048828125</LongitudeDegrees>
            </Position>
            <AltitudeMeters>651.79998779296875</AltitudeMeters>
            <DistanceMeters>NAN</DistanceMeters>
          </Trackpoint>
          <Trackpoint>
            <Time>2019-10-05T13:39:51.000Z</Time>
            <Position>
              <LatitudeDegrees>41.83087307028472423553466796875</LatitudeDegrees>
              <LongitudeDegrees>-5.730418860912322998046875</LongitudeDegrees>
            </Position>
            <AltitudeMeters>652.4000244140625</AltitudeMeters>
            <DistanceMeters>NAN</DistanceMeters>
          </Trackpoint>
          <Trackpoint>
            <Time>2019-10-05T13:39:55.000Z</Time>
            <Position>
              <LatitudeDegrees>41.83067576028406620025634765625</LatitudeDegrees>
              <LongitudeDegrees>-5.73064559139311313629150390625</LongitudeDegrees>
            </Position>
            <AltitudeMeters>651.79998779296875</AltitudeMeters>
            <DistanceMeters>NAN</DistanceMeters>
          </Trackpoint>
          <Trackpoint>
            <Time>2019-10-05T13:39:56.000Z</Time>
            <Position>
              <LatitudeDegrees>41.830613650381565093994140625</LatitudeDegrees>
              <LongitudeDegrees>-5.7306704856455326080322265625</LongitudeDegrees>
            </Position>
            <AltitudeMeters>651.5999755859375</AltitudeMeters>
            <DistanceMeters>NAN</DistanceMeters>
          </Trackpoint>
          <Trackpoint>
            <Time>2019-10-05T13:39:58.000Z</Time>
            <Position>
              <LatitudeDegrees>41.8304810486733913421630859375</LatitudeDegrees>
              <LongitudeDegrees>-5.730660594999790191650390625</LongitudeDegrees>
            </Position>
            <AltitudeMeters>650.79998779296875</AltitudeMeters>
            <DistanceMeters>NAN</DistanceMeters>
          </Trackpoint>
          <Trackpoint>
            <Time>2019-10-05T13:40:01.000Z</Time>
            <Position>
              <LatitudeDegrees>41.8303080461919307708740234375</LatitudeDegrees>
              <LongitudeDegrees>-5.73058373294770717620849609375</LongitudeDegrees>
            </Position>
            <AltitudeMeters>651.20001220703125</AltitudeMeters>
            <DistanceMeters>NAN</DistanceMeters>
          </Trackpoint>
          <Trackpoint>
            <Time>2019-10-05T13:40:02.000Z</Time>
            <Position>
              <LatitudeDegrees>41.830251216888427734375</LatitudeDegrees>
              <LongitudeDegrees>-5.7305618561804294586181640625</LongitudeDegrees>
            </Position>
            <AltitudeMeters>651.4000244140625</AltitudeMeters>
            <DistanceMeters>NAN</DistanceMeters>
          </Trackpoint>
          <Trackpoint>
            <Time>2019-10-05T13:40:04.000Z</Time>
            <Position>
              <LatitudeDegrees>41.83013395406305789947509765625</LatitudeDegrees>
              <LongitudeDegrees>-5.7305462658405303955078125</LongitudeDegrees>
            </Position>
            <AltitudeMeters>651</AltitudeMeters>
            <DistanceMeters>NAN</DistanceMeters>
          </Trackpoint>
          <Trackpoint>
            <Time>2019-10-05T13:40:06.000Z</Time>
            <Position>
              <LatitudeDegrees>41.8300250731408596038818359375</LatitudeDegrees>
              <LongitudeDegrees>-5.73057644069194793701171875</LongitudeDegrees>
            </Position>
            <AltitudeMeters>651.5999755859375</AltitudeMeters>
            <DistanceMeters>NAN</DistanceMeters>
          </Trackpoint>
          <Trackpoint>
            <Time>2019-10-05T13:40:12.000Z</Time>
            <Position>
              <LatitudeDegrees>41.82969507761299610137939453125</LatitudeDegrees>
              <LongitudeDegrees>-5.7306828908622264862060546875</LongitudeDegrees>
            </Position>
            <AltitudeMeters>652</AltitudeMeters>
            <DistanceMeters>NAN</DistanceMeters>
          </Trackpoint>
          <Trackpoint>
            <Time>2019-10-05T13:40:16.000Z</Time>
            <Position>
              <LatitudeDegrees>41.8294772319495677947998046875</LatitudeDegrees>
              <LongitudeDegrees>-5.73075824417173862457275390625</LongitudeDegrees>
            </Position>
            <AltitudeMeters>651.5999755859375</AltitudeMeters>
            <DistanceMeters>NAN</DistanceMeters>
          </Trackpoint>
          <Trackpoint>
            <Time>2019-10-05T13:40:19.000Z</Time>
            <Position>
              <LatitudeDegrees>41.82931303046643733978271484375</LatitudeDegrees>
              <LongitudeDegrees>-5.7308144867420196533203125</LongitudeDegrees>
            </Position>
            <AltitudeMeters>652.79998779296875</AltitudeMeters>
            <DistanceMeters>NAN</DistanceMeters>
          </Trackpoint>
          <Trackpoint>
            <Time>2019-10-05T13:40:25.000Z</Time>
            <Position>
              <LatitudeDegrees>41.82898831553757190704345703125</LatitudeDegrees>
              <LongitudeDegrees>-5.730904005467891693115234375</LongitudeDegrees>
            </Position>
            <AltitudeMeters>653.20001220703125</AltitudeMeters>
            <DistanceMeters>NAN</DistanceMeters>
          </Trackpoint>
          <Trackpoint>
            <Time>2019-10-05T13:40:34.000Z</Time>
            <Position>
              <LatitudeDegrees>41.82849009521305561065673828125</LatitudeDegrees>
              <LongitudeDegrees>-5.730961002409458160400390625</LongitudeDegrees>
            </Position>
            <AltitudeMeters>653.4000244140625</AltitudeMeters>
            <DistanceMeters>NAN</DistanceMeters>
          </Trackpoint>
          <Trackpoint>
            <Time>2019-10-05T13:40:44.000Z</Time>
            <Position>
              <LatitudeDegrees>41.82794895954430103302001953125</LatitudeDegrees>
              <LongitudeDegrees>-5.73097617365419864654541015625</LongitudeDegrees>
            </Position>
            <AltitudeMeters>653</AltitudeMeters>
            <DistanceMeters>NAN</DistanceMeters>
          </Trackpoint>
          <Trackpoint>
            <Time>2019-10-05T13:40:45.000Z</Time>
            <Position>
              <LatitudeDegrees>41.8278953991830348968505859375</LatitudeDegrees>
              <LongitudeDegrees>-5.730975084006786346435546875</LongitudeDegrees>
            </Position>
            <AltitudeMeters>653</AltitudeMeters>
            <DistanceMeters>NAN</DistanceMeters>
          </Trackpoint>
          <Trackpoint>
            <Time>2019-10-05T13:40:55.000Z</Time>
            <Position>
              <LatitudeDegrees>41.82735920883715152740478515625</LatitudeDegrees>
              <LongitudeDegrees>-5.73097801767289638519287109375</LongitudeDegrees>
            </Position>
            <AltitudeMeters>653.20001220703125</AltitudeMeters>
            <DistanceMeters>NAN</DistanceMeters>
          </Trackpoint>
          <Trackpoint>
            <Time>2019-10-05T13:41:05.000Z</Time>
            <Position>
              <LatitudeDegrees>41.82681522332131862640380859375</LatitudeDegrees>
              <LongitudeDegrees>-5.73105295188724994659423828125</LongitudeDegrees>
            </Position>
            <AltitudeMeters>653.20001220703125</AltitudeMeters>
            <DistanceMeters>NAN</DistanceMeters>
          </Trackpoint>
          <Trackpoint>
            <Time>2019-10-05T13:41:07.000Z</Time>
            <Position>
              <LatitudeDegrees>41.82670600712299346923828125</LatitudeDegrees>
              <LongitudeDegrees>-5.73108094744384288787841796875</LongitudeDegrees>
            </Position>
            <AltitudeMeters>653.20001220703125</AltitudeMeters>
            <DistanceMeters>NAN</DistanceMeters>
          </Trackpoint>
          <Trackpoint>
            <Time>2019-10-05T13:41:15.000Z</Time>
            <Position>
              <LatitudeDegrees>41.82626201771199703216552734375</LatitudeDegrees>
              <LongitudeDegrees>-5.73122285306453704833984375</LongitudeDegrees>
            </Position>
            <AltitudeMeters>652.4000244140625</AltitudeMeters>
            <DistanceMeters>NAN</DistanceMeters>
          </Trackpoint>
          <Trackpoint>
            <Time>2019-10-05T13:41:24.000Z</Time>
            <Position>
              <LatitudeDegrees>41.825755499303340911865234375</LatitudeDegrees>
              <LongitudeDegrees>-5.73141354136168956756591796875</LongitudeDegrees>
            </Position>
            <AltitudeMeters>652</AltitudeMeters>
            <DistanceMeters>NAN</DistanceMeters>
          </Trackpoint>
          <Trackpoint>
            <Time>2019-10-05T13:41:25.000Z</Time>
            <Position>
              <LatitudeDegrees>41.82570076547563076019287109375</LatitudeDegrees>
              <LongitudeDegrees>-5.731427706778049468994140625</LongitudeDegrees>
            </Position>
            <AltitudeMeters>651.4000244140625</AltitudeMeters>
            <DistanceMeters>NAN</DistanceMeters>
          </Trackpoint>
          <Trackpoint>
            <Time>2019-10-05T13:41:32.000Z</Time>
            <Position>
              <LatitudeDegrees>41.8252792395651340484619140625</LatitudeDegrees>
              <LongitudeDegrees>-5.73158034123480319976806640625</LongitudeDegrees>
            </Position>
            <AltitudeMeters>651.4000244140625</AltitudeMeters>
            <DistanceMeters>NAN</DistanceMeters>
          </Trackpoint>
          <Trackpoint>
            <Time>2019-10-05T13:41:40.000Z</Time>
            <Position>
              <LatitudeDegrees>41.82479250244796276092529296875</LatitudeDegrees>
              <LongitudeDegrees>-5.73176197707653045654296875</LongitudeDegrees>
            </Position>
            <AltitudeMeters>651</AltitudeMeters>
            <DistanceMeters>NAN</DistanceMeters>
          </Trackpoint>
          <Trackpoint>
            <Time>2019-10-05T13:41:49.000Z</Time>
            <Position>
              <LatitudeDegrees>41.82423024438321590423583984375</LatitudeDegrees>
              <LongitudeDegrees>-5.731976218521595001220703125</LongitudeDegrees>
            </Position>
            <AltitudeMeters>650.4000244140625</AltitudeMeters>
            <DistanceMeters>NAN</DistanceMeters>
          </Trackpoint>
          <Trackpoint>
            <Time>2019-10-05T13:41:50.000Z</Time>
            <Position>
              <LatitudeDegrees>41.82416838593780994415283203125</LatitudeDegrees>
              <LongitudeDegrees>-5.7319995202124118804931640625</LongitudeDegrees>
            </Position>
            <AltitudeMeters>650.4000244140625</AltitudeMeters>
            <DistanceMeters>NAN</DistanceMeters>
          </Trackpoint>
          <Trackpoint>
            <Time>2019-10-05T13:41:58.000Z</Time>
            <Position>
              <LatitudeDegrees>41.82365641929209232330322265625</LatitudeDegrees>
              <LongitudeDegrees>-5.73218316771090030670166015625</LongitudeDegrees>
            </Position>
            <AltitudeMeters>650.20001220703125</AltitudeMeters>
            <DistanceMeters>NAN</DistanceMeters>
          </Trackpoint>
          <Trackpoint>
            <Time>2019-10-05T13:42:00.000Z</Time>
            <Position>
              <LatitudeDegrees>41.8235254101455211639404296875</LatitudeDegrees>
              <LongitudeDegrees>-5.73223295621573925018310546875</LongitudeDegrees>
            </Position>
            <AltitudeMeters>650</AltitudeMeters>
            <DistanceMeters>NAN</DistanceMeters>
          </Trackpoint>
          <Trackpoint>
            <Time>2019-10-05T13:42:05.000Z</Time>
            <Position>
              <LatitudeDegrees>41.82314344681799411773681640625</LatitudeDegrees>
              <LongitudeDegrees>-5.7323710061609745025634765625</LongitudeDegrees>
            </Position>
            <AltitudeMeters>649</AltitudeMeters>
            <DistanceMeters>NAN</DistanceMeters>
          </Trackpoint>
          <Trackpoint>
            <Time>2019-10-05T13:42:11.000Z</Time>
            <Position>
              <LatitudeDegrees>41.82279677130281925201416015625</LatitudeDegrees>
              <LongitudeDegrees>-5.7325041107833385467529296875</LongitudeDegrees>
            </Position>
            <AltitudeMeters>648.4000244140625</AltitudeMeters>
            <DistanceMeters>NAN</DistanceMeters>
          </Trackpoint>
          <Trackpoint>
            <Time>2019-10-05T13:42:17.000Z</Time>
            <Position>
              <LatitudeDegrees>41.82238957844674587249755859375</LatitudeDegrees>
              <LongitudeDegrees>-5.73265054263174533843994140625</LongitudeDegrees>
            </Position>
            <AltitudeMeters>647.79998779296875</AltitudeMeters>
            <DistanceMeters>NAN</DistanceMeters>
          </Trackpoint>
          <Trackpoint>
            <Time>2019-10-05T13:42:21.000Z</Time>
            <Position>
              <LatitudeDegrees>41.82212018407881259918212890625</LatitudeDegrees>
              <LongitudeDegrees>-5.73274995200335979461669921875</LongitudeDegrees>
            </Position>
            <AltitudeMeters>647.20001220703125</AltitudeMeters>
            <DistanceMeters>NAN</DistanceMeters>
          </Trackpoint>
          <Trackpoint>
            <Time>2019-10-05T13:42:22.000Z</Time>
            <Position>
              <LatitudeDegrees>41.82205371558666229248046875</LatitudeDegrees>
              <LongitudeDegrees>-5.73277652263641357421875</LongitudeDegrees>
            </Position>
            <AltitudeMeters>646.4000244140625</AltitudeMeters>
            <DistanceMeters>NAN</DistanceMeters>
          </Trackpoint>
          <Trackpoint>
            <Time>2019-10-05T13:42:30.000Z</Time>
            <Position>
              <LatitudeDegrees>41.82153336703777313232421875</LatitudeDegrees>
              <LongitudeDegrees>-5.7329661212861537933349609375</LongitudeDegrees>
            </Position>
            <AltitudeMeters>645.5999755859375</AltitudeMeters>
            <DistanceMeters>NAN</DistanceMeters>
          </Trackpoint>
          <Trackpoint>
            <Time>2019-10-05T13:42:31.000Z</Time>
            <Position>
              <LatitudeDegrees>41.82147142477333545684814453125</LatitudeDegrees>
              <LongitudeDegrees>-5.73299445211887359619140625</LongitudeDegrees>
            </Position>
            <AltitudeMeters>645.5999755859375</AltitudeMeters>
            <DistanceMeters>NAN</DistanceMeters>
          </Trackpoint>
          <Trackpoint>
            <Time>2019-10-05T13:42:33.000Z</Time>
            <Position>
              <LatitudeDegrees>41.821344606578350067138671875</LatitudeDegrees>
              <LongitudeDegrees>-5.73304407298564910888671875</LongitudeDegrees>
            </Position>
            <AltitudeMeters>645</AltitudeMeters>
            <DistanceMeters>NAN</DistanceMeters>
          </Trackpoint>
          <Trackpoint>
            <Time>2019-10-05T13:42:39.000Z</Time>
            <Position>
              <LatitudeDegrees>41.82096499018371105194091796875</LatitudeDegrees>
              <LongitudeDegrees>-5.733183212578296661376953125</LongitudeDegrees>
            </Position>
            <AltitudeMeters>644.5999755859375</AltitudeMeters>
            <DistanceMeters>NAN</DistanceMeters>
          </Trackpoint>
          <Trackpoint>
            <Time>2019-10-05T13:42:47.000Z</Time>
            <Position>
              <LatitudeDegrees>41.8204435519874095916748046875</LatitudeDegrees>
              <LongitudeDegrees>-5.733379684388637542724609375</LongitudeDegrees>
            </Position>
            <AltitudeMeters>644.5999755859375</AltitudeMeters>
            <DistanceMeters>NAN</DistanceMeters>
          </Trackpoint>
          <Trackpoint>
            <Time>2019-10-05T13:42:50.000Z</Time>
            <Position>
              <LatitudeDegrees>41.8202326633036136627197265625</LatitudeDegrees>
              <LongitudeDegrees>-5.7334562949836254119873046875</LongitudeDegrees>
            </Position>
            <AltitudeMeters>644</AltitudeMeters>
            <DistanceMeters>NAN</DistanceMeters>
          </Trackpoint>
          <Trackpoint>
            <Time>2019-10-05T13:42:53.000Z</Time>
            <Position>
              <LatitudeDegrees>41.820011548697948455810546875</LatitudeDegrees>
              <LongitudeDegrees>-5.73354254476726055145263671875</LongitudeDegrees>
            </Position>
            <AltitudeMeters>642.5999755859375</AltitudeMeters>
            <DistanceMeters>NAN</DistanceMeters>
          </Trackpoint>
          <Trackpoint>
            <Time>2019-10-05T13:42:54.000Z</Time>
            <Position>
              <LatitudeDegrees>41.8199366144835948944091796875</LatitudeDegrees>
              <LongitudeDegrees>-5.733573138713836669921875</LongitudeDegrees>
            </Position>
            <AltitudeMeters>642</AltitudeMeters>
            <DistanceMeters>NAN</DistanceMeters>
          </Trackpoint>
          <Trackpoint>
            <Time>2019-10-05T13:42:57.000Z</Time>
            <Position>
              <LatitudeDegrees>41.81970971636474132537841796875</LatitudeDegrees>
              <LongitudeDegrees>-5.73367011733353137969970703125</LongitudeDegrees>
            </Position>
            <AltitudeMeters>641.20001220703125</AltitudeMeters>
            <DistanceMeters>NAN</DistanceMeters>
          </Trackpoint>
          <Trackpoint>
            <Time>2019-10-05T13:42:59.000Z</Time>
            <Position>
              <LatitudeDegrees>41.81955163367092609405517578125</LatitudeDegrees>
              <LongitudeDegrees>-5.73374270461499691009521484375</LongitudeDegrees>
            </Position>
            <AltitudeMeters>640</AltitudeMeters>
            <DistanceMeters>NAN</DistanceMeters>
          </Trackpoint>
          <Trackpoint>
            <Time>2019-10-05T13:43:03.000Z</Time>
            <Position>
              <LatitudeDegrees>41.81923362426459789276123046875</LatitudeDegrees>
              <LongitudeDegrees>-5.733898021280765533447265625</LongitudeDegrees>
            </Position>
            <AltitudeMeters>639.5999755859375</AltitudeMeters>
            <DistanceMeters>NAN</DistanceMeters>
          </Trackpoint>
          <Trackpoint>
            <Time>2019-10-05T13:43:09.000Z</Time>
            <Position>
              <LatitudeDegrees>41.81875602342188358306884765625</LatitudeDegrees>
              <LongitudeDegrees>-5.7341216504573822021484375</LongitudeDegrees>
            </Position>
            <AltitudeMeters>639</AltitudeMeters>
            <DistanceMeters>NAN</DistanceMeters>
          </Trackpoint>
          <Trackpoint>
            <Time>2019-10-05T13:43:11.000Z</Time>
            <Position>
              <LatitudeDegrees>41.81859768927097320556640625</LatitudeDegrees>
              <LongitudeDegrees>-5.7341875322163105010986328125</LongitudeDegrees>
            </Position>
            <AltitudeMeters>638</AltitudeMeters>
            <DistanceMeters>NAN</DistanceMeters>
          </Trackpoint>
          <Trackpoint>
            <Time>2019-10-05T13:43:14.000Z</Time>
            <Position>
              <LatitudeDegrees>41.81836978532373905181884765625</LatitudeDegrees>
              <LongitudeDegrees>-5.734278224408626556396484375</LongitudeDegrees>
            </Position>
            <AltitudeMeters>636.5999755859375</AltitudeMeters>
            <DistanceMeters>NAN</DistanceMeters>
          </Trackpoint>
          <Trackpoint>
            <Time>2019-10-05T13:43:19.000Z</Time>
            <Position>
              <LatitudeDegrees>41.81799561716616153717041015625</LatitudeDegrees>
              <LongitudeDegrees>-5.7344094850122928619384765625</LongitudeDegrees>
            </Position>
            <AltitudeMeters>637.4000244140625</AltitudeMeters>
            <DistanceMeters>NAN</DistanceMeters>
          </Trackpoint>
          <Trackpoint>
            <Time>2019-10-05T13:43:21.000Z</Time>
            <Position>
              <LatitudeDegrees>41.81785278953611850738525390625</LatitudeDegrees>
              <LongitudeDegrees>-5.73446086607873439788818359375</LongitudeDegrees>
            </Position>
            <AltitudeMeters>637.79998779296875</AltitudeMeters>
            <DistanceMeters>NAN</DistanceMeters>
          </Trackpoint>
          <Trackpoint>
            <Time>2019-10-05T13:43:26.000Z</Time>
            <Position>
              <LatitudeDegrees>41.8175025098025798797607421875</LatitudeDegrees>
              <LongitudeDegrees>-5.7345677353441715240478515625</LongitudeDegrees>
            </Position>
            <AltitudeMeters>638.5999755859375</AltitudeMeters>
            <DistanceMeters>NAN</DistanceMeters>
          </Trackpoint>
          <Trackpoint>
            <Time>2019-10-05T13:43:27.000Z</Time>
            <Position>
              <LatitudeDegrees>41.817431934177875518798828125</LatitudeDegrees>
              <LongitudeDegrees>-5.7345905341207981109619140625</LongitudeDegrees>
            </Position>
            <AltitudeMeters>639.20001220703125</AltitudeMeters>
            <DistanceMeters>NAN</DistanceMeters>
          </Trackpoint>
          <Trackpoint>
            <Time>2019-10-05T13:43:30.000Z</Time>
            <Position>
              <LatitudeDegrees>41.81722548790276050567626953125</LatitudeDegrees>
              <LongitudeDegrees>-5.73464945890009403228759765625</LongitudeDegrees>
            </Position>
            <AltitudeMeters>638.79998779296875</AltitudeMeters>
            <DistanceMeters>NAN</DistanceMeters>
          </Trackpoint>
          <Trackpoint>
            <Time>2019-10-05T13:43:35.000Z</Time>
            <Position>
              <LatitudeDegrees>41.81690060533583164215087890625</LatitudeDegrees>
              <LongitudeDegrees>-5.7347385585308074951171875</LongitudeDegrees>
            </Position>
            <AltitudeMeters>638.4000244140625</AltitudeMeters>
            <DistanceMeters>NAN</DistanceMeters>
          </Trackpoint>
          <Trackpoint>
            <Time>2019-10-05T13:43:36.000Z</Time>
            <Position>
              <LatitudeDegrees>41.816837154328823089599609375</LatitudeDegrees>
              <LongitudeDegrees>-5.7347564958035945892333984375</LongitudeDegrees>
            </Position>
            <AltitudeMeters>637.5999755859375</AltitudeMeters>
            <DistanceMeters>NAN</DistanceMeters>
          </Trackpoint>
          <Trackpoint>
            <Time>2019-10-05T13:43:42.000Z</Time>
            <Position>
              <LatitudeDegrees>41.81645602919161319732666015625</LatitudeDegrees>
              <LongitudeDegrees>-5.73486504144966602325439453125</LongitudeDegrees>
            </Position>
            <AltitudeMeters>637.5999755859375</AltitudeMeters>
            <DistanceMeters>NAN</DistanceMeters>
          </Trackpoint>
          <Trackpoint>
            <Time>2019-10-05T13:43:49.000Z</Time>
            <Position>
              <LatitudeDegrees>41.81598312221467494964599609375</LatitudeDegrees>
              <LongitudeDegrees>-5.7350123114883899688720703125</LongitudeDegrees>
            </Position>
            <AltitudeMeters>636.5999755859375</AltitudeMeters>
            <DistanceMeters>NAN</DistanceMeters>
          </Trackpoint>
          <Trackpoint>
            <Time>2019-10-05T13:43:52.000Z</Time>
            <Position>
              <LatitudeDegrees>41.81577223353087902069091796875</LatitudeDegrees>
              <LongitudeDegrees>-5.73508481495082378387451171875</LongitudeDegrees>
            </Position>
            <AltitudeMeters>635.5999755859375</AltitudeMeters>
            <DistanceMeters>NAN</DistanceMeters>
          </Trackpoint>
          <Trackpoint>
            <Time>2019-10-05T13:43:56.000Z</Time>
            <Position>
              <LatitudeDegrees>41.81548557244241237640380859375</LatitudeDegrees>
              <LongitudeDegrees>-5.73519847355782985687255859375</LongitudeDegrees>
            </Position>
            <AltitudeMeters>635.5999755859375</AltitudeMeters>
            <DistanceMeters>NAN</DistanceMeters>
          </Trackpoint>
          <Trackpoint>
            <Time>2019-10-05T13:44:01.000Z</Time>
            <Position>
              <LatitudeDegrees>41.81511827744543552398681640625</LatitudeDegrees>
              <LongitudeDegrees>-5.73536946438252925872802734375</LongitudeDegrees>
            </Position>
            <AltitudeMeters>633.79998779296875</AltitudeMeters>
            <DistanceMeters>NAN</DistanceMeters>
          </Trackpoint>
          <Trackpoint>
            <Time>2019-10-05T13:44:05.000Z</Time>
            <Position>
              <LatitudeDegrees>41.81481937877833843231201171875</LatitudeDegrees>
              <LongitudeDegrees>-5.7355101965367794036865234375</LongitudeDegrees>
            </Position>
            <AltitudeMeters>633.20001220703125</AltitudeMeters>
            <DistanceMeters>NAN</DistanceMeters>
          </Trackpoint>
          <Trackpoint>
            <Time>2019-10-05T13:44:10.000Z</Time>
            <Position>
              <LatitudeDegrees>41.81442928500473499298095703125</LatitudeDegrees>
              <LongitudeDegrees>-5.7356872223317623138427734375</LongitudeDegrees>
            </Position>
            <AltitudeMeters>632.4000244140625</AltitudeMeters>
            <DistanceMeters>NAN</DistanceMeters>
          </Trackpoint>
          <Trackpoint>
            <Time>2019-10-05T13:44:13.000Z</Time>
            <Position>
              <LatitudeDegrees>41.81419006548821926116943359375</LatitudeDegrees>
              <LongitudeDegrees>-5.7357810996472835540771484375</LongitudeDegrees>
            </Position>
            <AltitudeMeters>631.79998779296875</AltitudeMeters>
            <DistanceMeters>NAN</DistanceMeters>
          </Trackpoint>
          <Trackpoint>
            <Time>2019-10-05T13:44:16.000Z</Time>
            <Position>
              <LatitudeDegrees>41.813946403563022613525390625</LatitudeDegrees>
              <LongitudeDegrees>-5.73586181737482547760009765625</LongitudeDegrees>
            </Position>
            <AltitudeMeters>631.4000244140625</AltitudeMeters>
            <DistanceMeters>NAN</DistanceMeters>
          </Trackpoint>
          <Trackpoint>
            <Time>2019-10-05T13:44:18.000Z</Time>
            <Position>
              <LatitudeDegrees>41.81378044188022613525390625</LatitudeDegrees>
              <LongitudeDegrees>-5.73590205051004886627197265625</LongitudeDegrees>
            </Position>
            <AltitudeMeters>630.20001220703125</AltitudeMeters>
            <DistanceMeters>NAN</DistanceMeters>
          </Trackpoint>
          <Trackpoint>
            <Time>2019-10-05T13:44:20.000Z</Time>
            <Position>
              <LatitudeDegrees>41.81361070834100246429443359375</LatitudeDegrees>
              <LongitudeDegrees>-5.73593373410403728485107421875</LongitudeDegrees>
            </Position>
            <AltitudeMeters>630</AltitudeMeters>
            <DistanceMeters>NAN</DistanceMeters>
          </Trackpoint>
          <Trackpoint>
            <Time>2019-10-05T13:44:27.000Z</Time>
            <Position>
              <LatitudeDegrees>41.8130300939083099365234375</LatitudeDegrees>
              <LongitudeDegrees>-5.736027024686336517333984375</LongitudeDegrees>
            </Position>
            <AltitudeMeters>629.5999755859375</AltitudeMeters>
            <DistanceMeters>NAN</DistanceMeters>
          </Trackpoint>
          <Trackpoint>
            <Time>2019-10-05T13:44:28.000Z</Time>
            <Position>
              <LatitudeDegrees>41.8129477836191654205322265625</LatitudeDegrees>
              <LongitudeDegrees>-5.73604437522590160369873046875</LongitudeDegrees>
            </Position>
            <AltitudeMeters>628.5999755859375</AltitudeMeters>
            <DistanceMeters>NAN</DistanceMeters>
          </Trackpoint>
          <Trackpoint>
            <Time>2019-10-05T13:44:34.000Z</Time>
            <Position>
              <LatitudeDegrees>41.81247009895741939544677734375</LatitudeDegrees>
              <LongitudeDegrees>-5.73616121895611286163330078125</LongitudeDegrees>
            </Position>
            <AltitudeMeters>627.5999755859375</AltitudeMeters>
            <DistanceMeters>NAN</DistanceMeters>
          </Trackpoint>
          <Trackpoint>
            <Time>2019-10-05T13:44:35.000Z</Time>
            <Position>
              <LatitudeDegrees>41.81239231489598751068115234375</LatitudeDegrees>
              <LongitudeDegrees>-5.73619776405394077301025390625</LongitudeDegrees>
            </Position>
            <AltitudeMeters>627.4000244140625</AltitudeMeters>
            <DistanceMeters>NAN</DistanceMeters>
          </Trackpoint>
          <Trackpoint>
            <Time>2019-10-05T13:44:39.000Z</Time>
            <Position>
              <LatitudeDegrees>41.81210079230368137359619140625</LatitudeDegrees>
              <LongitudeDegrees>-5.73641753755509853363037109375</LongitudeDegrees>
            </Position>
            <AltitudeMeters>626.4000244140625</AltitudeMeters>
            <DistanceMeters>NAN</DistanceMeters>
          </Trackpoint>
          <Trackpoint>
            <Time>2019-10-05T13:44:43.000Z</Time>
            <Position>
              <LatitudeDegrees>41.81181865744292736053466796875</LatitudeDegrees>
              <LongitudeDegrees>-5.736684165894985198974609375</LongitudeDegrees>
            </Position>
            <AltitudeMeters>625.4000244140625</AltitudeMeters>
            <DistanceMeters>NAN</DistanceMeters>
          </Trackpoint>
          <Trackpoint>
            <Time>2019-10-05T13:44:46.000Z</Time>
            <Position>
              <LatitudeDegrees>41.8116003088653087615966796875</LatitudeDegrees>
              <LongitudeDegrees>-5.7368851639330387115478515625</LongitudeDegrees>
            </Position>
            <AltitudeMeters>624.4000244140625</AltitudeMeters>
            <DistanceMeters>NAN</DistanceMeters>
          </Trackpoint>
          <Trackpoint>
            <Time>2019-10-05T13:44:48.000Z</Time>
            <Position>
              <LatitudeDegrees>41.811446584761142730712890625</LatitudeDegrees>
              <LongitudeDegrees>-5.737006366252899169921875</LongitudeDegrees>
            </Position>
            <AltitudeMeters>623.79998779296875</AltitudeMeters>
            <DistanceMeters>NAN</DistanceMeters>
          </Trackpoint>
          <Trackpoint>
            <Time>2019-10-05T13:44:53.000Z</Time>
            <Position>
              <LatitudeDegrees>41.81105523370206356048583984375</LatitudeDegrees>
              <LongitudeDegrees>-5.73726712726056575775146484375</LongitudeDegrees>
            </Position>
            <AltitudeMeters>624</AltitudeMeters>
            <DistanceMeters>NAN</DistanceMeters>
          </Trackpoint>
          <Trackpoint>
            <Time>2019-10-05T13:45:00.000Z</Time>
            <Position>
              <LatitudeDegrees>41.8105093203485012054443359375</LatitudeDegrees>
              <LongitudeDegrees>-5.7375993020832538604736328125</LongitudeDegrees>
            </Position>
            <AltitudeMeters>623.79998779296875</AltitudeMeters>
            <DistanceMeters>NAN</DistanceMeters>
          </Trackpoint>
          <Trackpoint>
            <Time>2019-10-05T13:45:01.000Z</Time>
            <Position>
              <LatitudeDegrees>41.81043229065835475921630859375</LatitudeDegrees>
              <LongitudeDegrees>-5.7376425527036190032958984375</LongitudeDegrees>
            </Position>
            <AltitudeMeters>623.4000244140625</AltitudeMeters>
            <DistanceMeters>NAN</DistanceMeters>
          </Trackpoint>
          <Trackpoint>
            <Time>2019-10-05T13:45:05.000Z</Time>
            <Position>
              <LatitudeDegrees>41.81012484245002269744873046875</LatitudeDegrees>
              <LongitudeDegrees>-5.73789057321846485137939453125</LongitudeDegrees>
            </Position>
            <AltitudeMeters>623.20001220703125</AltitudeMeters>
            <DistanceMeters>NAN</DistanceMeters>
          </Trackpoint>
          <Trackpoint>
            <Time>2019-10-05T13:45:06.000Z</Time>
            <Position>
              <LatitudeDegrees>41.81006290018558502197265625</LatitudeDegrees>
              <LongitudeDegrees>-5.73797087185084819793701171875</LongitudeDegrees>
            </Position>
            <AltitudeMeters>623.20001220703125</AltitudeMeters>
            <DistanceMeters>NAN</DistanceMeters>
          </Trackpoint>
          <Trackpoint>
            <Time>2019-10-05T13:45:12.000Z</Time>
            <Position>
              <LatitudeDegrees>41.80974799208343029022216796875</LatitudeDegrees>
              <LongitudeDegrees>-5.73845551349222660064697265625</LongitudeDegrees>
            </Position>
            <AltitudeMeters>622.5999755859375</AltitudeMeters>
            <DistanceMeters>NAN</DistanceMeters>
          </Trackpoint>
          <Trackpoint>
            <Time>2019-10-05T13:45:14.000Z</Time>
            <Position>
              <LatitudeDegrees>41.8096325732767581939697265625</LatitudeDegrees>
              <LongitudeDegrees>-5.7386277616024017333984375</LongitudeDegrees>
            </Position>
            <AltitudeMeters>621.79998779296875</AltitudeMeters>
            <DistanceMeters>NAN</DistanceMeters>
          </Trackpoint>
          <Trackpoint>
            <Time>2019-10-05T13:45:20.000Z</Time>
            <Position>
              <LatitudeDegrees>41.80926628410816192626953125</LatitudeDegrees>
              <LongitudeDegrees>-5.73912137188017368316650390625</LongitudeDegrees>
            </Position>
            <AltitudeMeters>621.5999755859375</AltitudeMeters>
            <DistanceMeters>NAN</DistanceMeters>
          </Trackpoint>
          <Trackpoint>
            <Time>2019-10-05T13:45:22.000Z</Time>
            <Position>
              <LatitudeDegrees>41.80914130993187427520751953125</LatitudeDegrees>
              <LongitudeDegrees>-5.73927878402173519134521484375</LongitudeDegrees>
            </Position>
            <AltitudeMeters>620.4000244140625</AltitudeMeters>
            <DistanceMeters>NAN</DistanceMeters>
          </Trackpoint>
          <Trackpoint>
            <Time>2019-10-05T13:45:23.000Z</Time>
            <Position>
              <LatitudeDegrees>41.8090797029435634613037109375</LatitudeDegrees>
              <LongitudeDegrees>-5.7393554784357547760009765625</LongitudeDegrees>
            </Position>
            <AltitudeMeters>620.5999755859375</AltitudeMeters>
            <DistanceMeters>NAN</DistanceMeters>
          </Trackpoint>
          <Trackpoint>
            <Time>2019-10-05T13:45:30.000Z</Time>
            <Position>
              <LatitudeDegrees>41.808674521744251251220703125</LatitudeDegrees>
              <LongitudeDegrees>-5.73983601294457912445068359375</LongitudeDegrees>
            </Position>
            <AltitudeMeters>620.79998779296875</AltitudeMeters>
            <DistanceMeters>NAN</DistanceMeters>
          </Trackpoint>
          <Trackpoint>
            <Time>2019-10-05T13:45:31.000Z</Time>
            <Position>
              <LatitudeDegrees>41.808620877563953399658203125</LatitudeDegrees>
              <LongitudeDegrees>-5.739902146160602569580078125</LongitudeDegrees>
            </Position>
            <AltitudeMeters>621.5999755859375</AltitudeMeters>
            <DistanceMeters>NAN</DistanceMeters>
          </Trackpoint>
          <Trackpoint>
            <Time>2019-10-05T13:45:38.000Z</Time>
            <Position>
              <LatitudeDegrees>41.80825483985245227813720703125</LatitudeDegrees>
              <LongitudeDegrees>-5.7403482310473918914794921875</LongitudeDegrees>
            </Position>
            <AltitudeMeters>621.20001220703125</AltitudeMeters>
            <DistanceMeters>NAN</DistanceMeters>
          </Trackpoint>
          <Trackpoint>
            <Time>2019-10-05T13:45:46.000Z</Time>
            <Position>
              <LatitudeDegrees>41.8078445456922054290771484375</LatitudeDegrees>
              <LongitudeDegrees>-5.7408420927822589874267578125</LongitudeDegrees>
            </Position>
            <AltitudeMeters>621.4000244140625</AltitudeMeters>
            <DistanceMeters>NAN</DistanceMeters>
          </Trackpoint>
          <Trackpoint>
            <Time>2019-10-05T13:45:47.000Z</Time>
            <Position>
              <LatitudeDegrees>41.80779316462576389312744140625</LatitudeDegrees>
              <LongitudeDegrees>-5.7408984191715717315673828125</LongitudeDegrees>
            </Position>
            <AltitudeMeters>621.4000244140625</AltitudeMeters>
            <DistanceMeters>NAN</DistanceMeters>
          </Trackpoint>
          <Trackpoint>
            <Time>2019-10-05T13:45:54.000Z</Time>
            <Position>
              <LatitudeDegrees>41.807460822165012359619140625</LatitudeDegrees>
              <LongitudeDegrees>-5.74131525121629238128662109375</LongitudeDegrees>
            </Position>
            <AltitudeMeters>621.79998779296875</AltitudeMeters>
            <DistanceMeters>NAN</DistanceMeters>
          </Trackpoint>
          <Trackpoint>
            <Time>2019-10-05T13:46:00.000Z</Time>
            <Position>
              <LatitudeDegrees>41.8071716465055942535400390625</LatitudeDegrees>
              <LongitudeDegrees>-5.741654969751834869384765625</LongitudeDegrees>
            </Position>
            <AltitudeMeters>621.79998779296875</AltitudeMeters>
            <DistanceMeters>NAN</DistanceMeters>
          </Trackpoint>
          <Trackpoint>
            <Time>2019-10-05T13:46:09.000Z</Time>
            <Position>
              <LatitudeDegrees>41.80673050694167613983154296875</LatitudeDegrees>
              <LongitudeDegrees>-5.74213265441358089447021484375</LongitudeDegrees>
            </Position>
            <AltitudeMeters>622.20001220703125</AltitudeMeters>
            <DistanceMeters>NAN</DistanceMeters>
          </Trackpoint>
          <Trackpoint>
            <Time>2019-10-05T13:46:10.000Z</Time>
            <Position>
              <LatitudeDegrees>41.8066799640655517578125</LatitudeDegrees>
              <LongitudeDegrees>-5.7421815209090709686279296875</LongitudeDegrees>
            </Position>
            <AltitudeMeters>622</AltitudeMeters>
            <DistanceMeters>NAN</DistanceMeters>
          </Trackpoint>
          <Trackpoint>
            <Time>2019-10-05T13:46:13.000Z</Time>
            <Position>
              <LatitudeDegrees>41.8065279163420200347900390625</LatitudeDegrees>
              <LongitudeDegrees>-5.74232661165297031402587890625</LongitudeDegrees>
            </Position>
            <AltitudeMeters>622.79998779296875</AltitudeMeters>
            <DistanceMeters>NAN</DistanceMeters>
          </Trackpoint>
          <Trackpoint>
            <Time>2019-10-05T13:46:19.000Z</Time>
            <Position>
              <LatitudeDegrees>41.80623547174036502838134765625</LatitudeDegrees>
              <LongitudeDegrees>-5.742627941071987152099609375</LongitudeDegrees>
            </Position>
            <AltitudeMeters>622.79998779296875</AltitudeMeters>
            <DistanceMeters>NAN</DistanceMeters>
          </Trackpoint>
          <Trackpoint>
            <Time>2019-10-05T13:46:26.000Z</Time>
            <Position>
              <LatitudeDegrees>41.80588661693036556243896484375</LatitudeDegrees>
              <LongitudeDegrees>-5.74296883307397365570068359375</LongitudeDegrees>
            </Position>
            <AltitudeMeters>622.4000244140625</AltitudeMeters>
            <DistanceMeters>NAN</DistanceMeters>
          </Trackpoint>
          <Trackpoint>
            <Time>2019-10-05T13:46:35.000Z</Time>
            <Position>
              <LatitudeDegrees>41.80543717928230762481689453125</LatitudeDegrees>
              <LongitudeDegrees>-5.743409134447574615478515625</LongitudeDegrees>
            </Position>
            <AltitudeMeters>622.5999755859375</AltitudeMeters>
            <DistanceMeters>NAN</DistanceMeters>
          </Trackpoint>
          <Trackpoint>
            <Time>2019-10-05T13:46:37.000Z</Time>
            <Position>
              <LatitudeDegrees>41.80533844046294689178466796875</LatitudeDegrees>
              <LongitudeDegrees>-5.74350628070533275604248046875</LongitudeDegrees>
            </Position>
            <AltitudeMeters>622.79998779296875</AltitudeMeters>
            <DistanceMeters>NAN</DistanceMeters>
          </Trackpoint>
          <Trackpoint>
            <Time>2019-10-05T13:46:46.000Z</Time>
            <Position>
              <LatitudeDegrees>41.8049068562686443328857421875</LatitudeDegrees>
              <LongitudeDegrees>-5.74394700117409229278564453125</LongitudeDegrees>
            </Position>
            <AltitudeMeters>623</AltitudeMeters>
            <DistanceMeters>NAN</DistanceMeters>
          </Trackpoint>
          <Trackpoint>
            <Time>2019-10-05T13:46:47.000Z</Time>
            <Position>
              <LatitudeDegrees>41.80485798977315425872802734375</LatitudeDegrees>
              <LongitudeDegrees>-5.74399444274604320526123046875</LongitudeDegrees>
            </Position>
            <AltitudeMeters>623.20001220703125</AltitudeMeters>
            <DistanceMeters>NAN</DistanceMeters>
          </Trackpoint>
          <Trackpoint>
            <Time>2019-10-05T13:46:49.000Z</Time>
            <Position>
              <LatitudeDegrees>41.804760508239269256591796875</LatitudeDegrees>
              <LongitudeDegrees>-5.744089744985103607177734375</LongitudeDegrees>
            </Position>
            <AltitudeMeters>623.79998779296875</AltitudeMeters>
            <DistanceMeters>NAN</DistanceMeters>
          </Trackpoint>
          <Trackpoint>
            <Time>2019-10-05T13:46:58.000Z</Time>
            <Position>
              <LatitudeDegrees>41.804324649274349212646484375</LatitudeDegrees>
              <LongitudeDegrees>-5.74453993700444698333740234375</LongitudeDegrees>
            </Position>
            <AltitudeMeters>624</AltitudeMeters>
            <DistanceMeters>NAN</DistanceMeters>
          </Trackpoint>
          <Trackpoint>
            <Time>2019-10-05T13:47:06.000Z</Time>
            <Position>
              <LatitudeDegrees>41.8039372377097606658935546875</LatitudeDegrees>
              <LongitudeDegrees>-5.74492265470325946807861328125</LongitudeDegrees>
            </Position>
            <AltitudeMeters>624.4000244140625</AltitudeMeters>
            <DistanceMeters>NAN</DistanceMeters>
          </Trackpoint>
          <Trackpoint>
            <Time>2019-10-05T13:47:10.000Z</Time>
            <Position>
              <LatitudeDegrees>41.803751327097415924072265625</LatitudeDegrees>
              <LongitudeDegrees>-5.74510755948722362518310546875</LongitudeDegrees>
            </Position>
            <AltitudeMeters>625</AltitudeMeters>
            <DistanceMeters>NAN</DistanceMeters>
          </Trackpoint>
          <Trackpoint>
            <Time>2019-10-05T13:47:13.000Z</Time>
            <Position>
              <LatitudeDegrees>41.80361361242830753326416015625</LatitudeDegrees>
              <LongitudeDegrees>-5.74524301104247570037841796875</LongitudeDegrees>
            </Position>
            <AltitudeMeters>625.4000244140625</AltitudeMeters>
            <DistanceMeters>NAN</DistanceMeters>
          </Trackpoint>
          <Trackpoint>
            <Time>2019-10-05T13:47:16.000Z</Time>
            <Position>
              <LatitudeDegrees>41.80347816087305545806884765625</LatitudeDegrees>
              <LongitudeDegrees>-5.74537628330290317535400390625</LongitudeDegrees>
            </Position>
            <AltitudeMeters>626</AltitudeMeters>
            <DistanceMeters>NAN</DistanceMeters>
          </Trackpoint>
          <Trackpoint>
            <Time>2019-10-05T13:47:23.000Z</Time>
            <Position>
              <LatitudeDegrees>41.80316501297056674957275390625</LatitudeDegrees>
              <LongitudeDegrees>-5.7456886768341064453125</LongitudeDegrees>
            </Position>
            <AltitudeMeters>626.5999755859375</AltitudeMeters>
            <DistanceMeters>NAN</DistanceMeters>
          </Trackpoint>
          <Trackpoint>
            <Time>2019-10-05T13:47:27.000Z</Time>
            <Position>
              <LatitudeDegrees>41.80298144929111003875732421875</LatitudeDegrees>
              <LongitudeDegrees>-5.7458816282451152801513671875</LongitudeDegrees>
            </Position>
            <AltitudeMeters>627</AltitudeMeters>
            <DistanceMeters>NAN</DistanceMeters>
          </Trackpoint>
          <Trackpoint>
            <Time>2019-10-05T13:47:30.000Z</Time>
            <Position>
              <LatitudeDegrees>41.8028445728123188018798828125</LatitudeDegrees>
              <LongitudeDegrees>-5.7460086978971958160400390625</LongitudeDegrees>
            </Position>
            <AltitudeMeters>627</AltitudeMeters>
            <DistanceMeters>NAN</DistanceMeters>
          </Trackpoint>
          <Trackpoint>
            <Time>2019-10-05T13:47:38.000Z</Time>
            <Position>
              <LatitudeDegrees>41.8025119788944721221923828125</LatitudeDegrees>
              <LongitudeDegrees>-5.74634137563407421112060546875</LongitudeDegrees>
            </Position>
            <AltitudeMeters>627.79998779296875</AltitudeMeters>
            <DistanceMeters>NAN</DistanceMeters>
          </Trackpoint>
          <Trackpoint>
            <Time>2019-10-05T13:47:42.000Z</Time>
            <Position>
              <LatitudeDegrees>41.8023527227342128753662109375</LatitudeDegrees>
              <LongitudeDegrees>-5.746502391993999481201171875</LongitudeDegrees>
            </Position>
            <AltitudeMeters>628.4000244140625</AltitudeMeters>
            <DistanceMeters>NAN</DistanceMeters>
          </Trackpoint>
          <Trackpoint>
            <Time>2019-10-05T13:47:49.000Z</Time>
            <Position>
              <LatitudeDegrees>41.8020732700824737548828125</LatitudeDegrees>
              <LongitudeDegrees>-5.746786035597324371337890625</LongitudeDegrees>
            </Position>
            <AltitudeMeters>629.4000244140625</AltitudeMeters>
            <DistanceMeters>NAN</DistanceMeters>
          </Trackpoint>
          <Trackpoint>
            <Time>2019-10-05T13:47:59.000Z</Time>
            <Position>
              <LatitudeDegrees>41.80166213773190975189208984375</LatitudeDegrees>
              <LongitudeDegrees>-5.74719917960464954376220703125</LongitudeDegrees>
            </Position>
            <AltitudeMeters>629.5999755859375</AltitudeMeters>
            <DistanceMeters>NAN</DistanceMeters>
          </Trackpoint>
          <Trackpoint>
            <Time>2019-10-05T13:48:09.000Z</Time>
            <Position>
              <LatitudeDegrees>41.80123038589954376220703125</LatitudeDegrees>
              <LongitudeDegrees>-5.7476300932466983795166015625</LongitudeDegrees>
            </Position>
            <AltitudeMeters>630.4000244140625</AltitudeMeters>
            <DistanceMeters>NAN</DistanceMeters>
          </Trackpoint>
          <Trackpoint>
            <Time>2019-10-05T13:48:13.000Z</Time>
            <Position>
              <LatitudeDegrees>41.80106534622609615325927734375</LatitudeDegrees>
              <LongitudeDegrees>-5.74779949150979518890380859375</LongitudeDegrees>
            </Position>
            <AltitudeMeters>628</AltitudeMeters>
            <DistanceMeters>NAN</DistanceMeters>
          </Trackpoint>
          <Trackpoint>
            <Time>2019-10-05T13:48:16.000Z</Time>
            <Position>
              <LatitudeDegrees>41.8009469099342823028564453125</LatitudeDegrees>
              <LongitudeDegrees>-5.74791365303099155426025390625</LongitudeDegrees>
            </Position>
            <AltitudeMeters>628.4000244140625</AltitudeMeters>
            <DistanceMeters>NAN</DistanceMeters>
          </Trackpoint>
          <Trackpoint>
            <Time>2019-10-05T13:48:20.000Z</Time>
            <Position>
              <LatitudeDegrees>41.8007933534681797027587890625</LatitudeDegrees>
              <LongitudeDegrees>-5.74806771241128444671630859375</LongitudeDegrees>
            </Position>
            <AltitudeMeters>629.20001220703125</AltitudeMeters>
            <DistanceMeters>NAN</DistanceMeters>
          </Trackpoint>
          <Trackpoint>
            <Time>2019-10-05T13:48:23.000Z</Time>
            <Position>
              <LatitudeDegrees>41.80067977868020534515380859375</LatitudeDegrees>
              <LongitudeDegrees>-5.74817885644733905792236328125</LongitudeDegrees>
            </Position>
            <AltitudeMeters>628.79998779296875</AltitudeMeters>
            <DistanceMeters>NAN</DistanceMeters>
          </Trackpoint>
          <Trackpoint>
            <Time>2019-10-05T13:48:29.000Z</Time>
            <Position>
              <LatitudeDegrees>41.80045656859874725341796875</LatitudeDegrees>
              <LongitudeDegrees>-5.74840382672846317291259765625</LongitudeDegrees>
            </Position>
            <AltitudeMeters>630.20001220703125</AltitudeMeters>
            <DistanceMeters>NAN</DistanceMeters>
          </Trackpoint>
          <Trackpoint>
            <Time>2019-10-05T13:48:33.000Z</Time>
            <Position>
              <LatitudeDegrees>41.80030158720910549163818359375</LatitudeDegrees>
              <LongitudeDegrees>-5.7485510967671871185302734375</LongitudeDegrees>
            </Position>
            <AltitudeMeters>629.79998779296875</AltitudeMeters>
            <DistanceMeters>NAN</DistanceMeters>
          </Trackpoint>
          <Trackpoint>
            <Time>2019-10-05T13:48:42.000Z</Time>
            <Position>
              <LatitudeDegrees>41.79994619451463222503662109375</LatitudeDegrees>
              <LongitudeDegrees>-5.74885376729071140289306640625</LongitudeDegrees>
            </Position>
            <AltitudeMeters>630.20001220703125</AltitudeMeters>
            <DistanceMeters>NAN</DistanceMeters>
          </Trackpoint>
          <Trackpoint>
            <Time>2019-10-05T13:48:46.000Z</Time>
            <Position>
              <LatitudeDegrees>41.799780316650867462158203125</LatitudeDegrees>
              <LongitudeDegrees>-5.74897505342960357666015625</LongitudeDegrees>
            </Position>
            <AltitudeMeters>630.20001220703125</AltitudeMeters>
            <DistanceMeters>NAN</DistanceMeters>
          </Trackpoint>
          <Trackpoint>
            <Time>2019-10-05T13:48:55.000Z</Time>
            <Position>
              <LatitudeDegrees>41.7994049750268459320068359375</LatitudeDegrees>
              <LongitudeDegrees>-5.74923849664628505706787109375</LongitudeDegrees>
            </Position>
            <AltitudeMeters>630.20001220703125</AltitudeMeters>
            <DistanceMeters>NAN</DistanceMeters>
          </Trackpoint>
          <Trackpoint>
            <Time>2019-10-05T13:49:04.000Z</Time>
            <Position>
              <LatitudeDegrees>41.79900876246392726898193359375</LatitudeDegrees>
              <LongitudeDegrees>-5.74947754852473735809326171875</LongitudeDegrees>
            </Position>
            <AltitudeMeters>630.20001220703125</AltitudeMeters>
            <DistanceMeters>NAN</DistanceMeters>
          </Trackpoint>
          <Trackpoint>
            <Time>2019-10-05T13:49:15.000Z</Time>
            <Position>
              <LatitudeDegrees>41.79852194152772426605224609375</LatitudeDegrees>
              <LongitudeDegrees>-5.74971542693674564361572265625</LongitudeDegrees>
            </Position>
            <AltitudeMeters>630.20001220703125</AltitudeMeters>
            <DistanceMeters>NAN</DistanceMeters>
          </Trackpoint>
          <Trackpoint>
            <Time>2019-10-05T13:49:27.000Z</Time>
            <Position>
              <LatitudeDegrees>41.79798248223960399627685546875</LatitudeDegrees>
              <LongitudeDegrees>-5.74992463923990726470947265625</LongitudeDegrees>
            </Position>
            <AltitudeMeters>631.20001220703125</AltitudeMeters>
            <DistanceMeters>NAN</DistanceMeters>
          </Trackpoint>
          <Trackpoint>
            <Time>2019-10-05T13:49:34.000Z</Time>
            <Position>
              <LatitudeDegrees>41.797659359872341156005859375</LatitudeDegrees>
              <LongitudeDegrees>-5.75001432560384273529052734375</LongitudeDegrees>
            </Position>
            <AltitudeMeters>630.79998779296875</AltitudeMeters>
            <DistanceMeters>NAN</DistanceMeters>
          </Trackpoint>
          <Trackpoint>
            <Time>2019-10-05T13:49:39.000Z</Time>
            <Position>
              <LatitudeDegrees>41.7974276840686798095703125</LatitudeDegrees>
              <LongitudeDegrees>-5.75007048435509204864501953125</LongitudeDegrees>
            </Position>
            <AltitudeMeters>631.20001220703125</AltitudeMeters>
            <DistanceMeters>NAN</DistanceMeters>
          </Trackpoint>
          <Trackpoint>
            <Time>2019-10-05T13:49:45.000Z</Time>
            <Position>
              <LatitudeDegrees>41.79714999161660671234130859375</LatitudeDegrees>
              <LongitudeDegrees>-5.75012614019215106964111328125</LongitudeDegrees>
            </Position>
            <AltitudeMeters>631.4000244140625</AltitudeMeters>
            <DistanceMeters>NAN</DistanceMeters>
          </Trackpoint>
          <Trackpoint>
            <Time>2019-10-05T13:49:54.000Z</Time>
            <Position>
              <LatitudeDegrees>41.79674229584634304046630859375</LatitudeDegrees>
              <LongitudeDegrees>-5.75017877854406833648681640625</LongitudeDegrees>
            </Position>
            <AltitudeMeters>632.4000244140625</AltitudeMeters>
            <DistanceMeters>NAN</DistanceMeters>
          </Trackpoint>
          <Trackpoint>
            <Time>2019-10-05T13:49:56.000Z</Time>
            <Position>
              <LatitudeDegrees>41.79665294475853443145751953125</LatitudeDegrees>
              <LongitudeDegrees>-5.75018615461885929107666015625</LongitudeDegrees>
            </Position>
            <AltitudeMeters>632.5999755859375</AltitudeMeters>
            <DistanceMeters>NAN</DistanceMeters>
          </Trackpoint>
          <Trackpoint>
            <Time>2019-10-05T13:50:02.000Z</Time>
            <Position>
              <LatitudeDegrees>41.79637231864035129547119140625</LatitudeDegrees>
              <LongitudeDegrees>-5.75021733529865741729736328125</LongitudeDegrees>
            </Position>
            <AltitudeMeters>633.5999755859375</AltitudeMeters>
            <DistanceMeters>NAN</DistanceMeters>
          </Trackpoint>
          <Trackpoint>
            <Time>2019-10-05T13:50:07.000Z</Time>
            <Position>
              <LatitudeDegrees>41.79614223539829254150390625</LatitudeDegrees>
              <LongitudeDegrees>-5.75023979879915714263916015625</LongitudeDegrees>
            </Position>
            <AltitudeMeters>633.4000244140625</AltitudeMeters>
            <DistanceMeters>NAN</DistanceMeters>
          </Trackpoint>
          <Trackpoint>
            <Time>2019-10-05T13:50:12.000Z</Time>
            <Position>
              <LatitudeDegrees>41.795905865728855133056640625</LatitudeDegrees>
              <LongitudeDegrees>-5.75025714933872222900390625</LongitudeDegrees>
            </Position>
            <AltitudeMeters>634.5999755859375</AltitudeMeters>
            <DistanceMeters>NAN</DistanceMeters>
          </Trackpoint>
          <Trackpoint>
            <Time>2019-10-05T13:50:19.000Z</Time>
            <Position>
              <LatitudeDegrees>41.7955834977328777313232421875</LatitudeDegrees>
              <LongitudeDegrees>-5.750291682779788970947265625</LongitudeDegrees>
            </Position>
            <AltitudeMeters>634.79998779296875</AltitudeMeters>
            <DistanceMeters>NAN</DistanceMeters>
          </Trackpoint>
          <Trackpoint>
            <Time>2019-10-05T13:50:26.000Z</Time>
            <Position>
              <LatitudeDegrees>41.79525149054825305938720703125</LatitudeDegrees>
              <LongitudeDegrees>-5.7503203488886356353759765625</LongitudeDegrees>
            </Position>
            <AltitudeMeters>635.5999755859375</AltitudeMeters>
            <DistanceMeters>NAN</DistanceMeters>
          </Trackpoint>
          <Trackpoint>
            <Time>2019-10-05T13:50:30.000Z</Time>
            <Position>
              <LatitudeDegrees>41.79505887441337108612060546875</LatitudeDegrees>
              <LongitudeDegrees>-5.75033652596175670623779296875</LongitudeDegrees>
            </Position>
            <AltitudeMeters>636</AltitudeMeters>
            <DistanceMeters>NAN</DistanceMeters>
          </Trackpoint>
          <Trackpoint>
            <Time>2019-10-05T13:50:41.000Z</Time>
            <Position>
              <LatitudeDegrees>41.79451840929687023162841796875</LatitudeDegrees>
              <LongitudeDegrees>-5.750391595065593719482421875</LongitudeDegrees>
            </Position>
            <AltitudeMeters>635.20001220703125</AltitudeMeters>
            <DistanceMeters>NAN</DistanceMeters>
          </Trackpoint>
          <Trackpoint>
            <Time>2019-10-05T13:50:42.000Z</Time>
            <Position>
              <LatitudeDegrees>41.79447147063910961151123046875</LatitudeDegrees>
              <LongitudeDegrees>-5.75039704330265522003173828125</LongitudeDegrees>
            </Position>
            <AltitudeMeters>635.4000244140625</AltitudeMeters>
            <DistanceMeters>NAN</DistanceMeters>
          </Trackpoint>
          <Trackpoint>
            <Time>2019-10-05T13:50:53.000Z</Time>
            <Position>
              <LatitudeDegrees>41.7939466796815395355224609375</LatitudeDegrees>
              <LongitudeDegrees>-5.75049662031233310699462890625</LongitudeDegrees>
            </Position>
            <AltitudeMeters>635.5999755859375</AltitudeMeters>
            <DistanceMeters>NAN</DistanceMeters>
          </Trackpoint>
          <Trackpoint>
            <Time>2019-10-05T13:50:54.000Z</Time>
            <Position>
              <LatitudeDegrees>41.7938960529863834381103515625</LatitudeDegrees>
              <LongitudeDegrees>-5.75050500221550464630126953125</LongitudeDegrees>
            </Position>
            <AltitudeMeters>635.79998779296875</AltitudeMeters>
            <DistanceMeters>NAN</DistanceMeters>
          </Trackpoint>
          <Trackpoint>
            <Time>2019-10-05T13:51:03.000Z</Time>
            <Position>
              <LatitudeDegrees>41.79346740245819091796875</LatitudeDegrees>
              <LongitudeDegrees>-5.75063358061015605926513671875</LongitudeDegrees>
            </Position>
            <AltitudeMeters>636.79998779296875</AltitudeMeters>
            <DistanceMeters>NAN</DistanceMeters>
          </Trackpoint>
          <Trackpoint>
            <Time>2019-10-05T13:51:13.000Z</Time>
            <Position>
              <LatitudeDegrees>41.7929928191006183624267578125</LatitudeDegrees>
              <LongitudeDegrees>-5.7508041523396968841552734375</LongitudeDegrees>
            </Position>
            <AltitudeMeters>636.5999755859375</AltitudeMeters>
            <DistanceMeters>NAN</DistanceMeters>
          </Trackpoint>
          <Trackpoint>
            <Time>2019-10-05T13:51:24.000Z</Time>
            <Position>
              <LatitudeDegrees>41.7924781702458858489990234375</LatitudeDegrees>
              <LongitudeDegrees>-5.75101629830896854400634765625</LongitudeDegrees>
            </Position>
            <AltitudeMeters>636.79998779296875</AltitudeMeters>
            <DistanceMeters>NAN</DistanceMeters>
          </Trackpoint>
          <Trackpoint>
            <Time>2019-10-05T13:51:27.000Z</Time>
            <Position>
              <LatitudeDegrees>41.79233408533036708831787109375</LatitudeDegrees>
              <LongitudeDegrees>-5.75106717646121978759765625</LongitudeDegrees>
            </Position>
            <AltitudeMeters>636.20001220703125</AltitudeMeters>
            <DistanceMeters>NAN</DistanceMeters>
          </Trackpoint>
          <Trackpoint>
            <Time>2019-10-05T13:51:38.000Z</Time>
            <Position>
              <LatitudeDegrees>41.79181809537112712860107421875</LatitudeDegrees>
              <LongitudeDegrees>-5.7512752152979373931884765625</LongitudeDegrees>
            </Position>
            <AltitudeMeters>636.20001220703125</AltitudeMeters>
            <DistanceMeters>NAN</DistanceMeters>
          </Trackpoint>
          <Trackpoint>
            <Time>2019-10-05T13:51:46.000Z</Time>
            <Position>
              <LatitudeDegrees>41.79144191555678844451904296875</LatitudeDegrees>
              <LongitudeDegrees>-5.7514257542788982391357421875</LongitudeDegrees>
            </Position>
            <AltitudeMeters>637</AltitudeMeters>
            <DistanceMeters>NAN</DistanceMeters>
          </Trackpoint>
          <Trackpoint>
            <Time>2019-10-05T13:51:57.000Z</Time>
            <Position>
              <LatitudeDegrees>41.790927350521087646484375</LatitudeDegrees>
              <LongitudeDegrees>-5.75163069181144237518310546875</LongitudeDegrees>
            </Position>
            <AltitudeMeters>637.20001220703125</AltitudeMeters>
            <DistanceMeters>NAN</DistanceMeters>
          </Trackpoint>
          <Trackpoint>
            <Time>2019-10-05T13:51:58.000Z</Time>
            <Position>
              <LatitudeDegrees>41.790878064930438995361328125</LatitudeDegrees>
              <LongitudeDegrees>-5.75164963491261005401611328125</LongitudeDegrees>
            </Position>
            <AltitudeMeters>637.5999755859375</AltitudeMeters>
            <DistanceMeters>NAN</DistanceMeters>
          </Trackpoint>
          <Trackpoint>
            <Time>2019-10-05T13:51:59.000Z</Time>
            <Position>
              <LatitudeDegrees>41.7908321321010589599609375</LatitudeDegrees>
              <LongitudeDegrees>-5.75166556052863597869873046875</LongitudeDegrees>
            </Position>
            <AltitudeMeters>638</AltitudeMeters>
            <DistanceMeters>NAN</DistanceMeters>
          </Trackpoint>
          <Trackpoint>
            <Time>2019-10-05T13:52:04.000Z</Time>
            <Position>
              <LatitudeDegrees>41.7905982770025730133056640625</LatitudeDegrees>
              <LongitudeDegrees>-5.751753486692905426025390625</LongitudeDegrees>
            </Position>
            <AltitudeMeters>637</AltitudeMeters>
            <DistanceMeters>NAN</DistanceMeters>
          </Trackpoint>
          <Trackpoint>
            <Time>2019-10-05T13:52:09.000Z</Time>
            <Position>
              <LatitudeDegrees>41.79036869667470455169677734375</LatitudeDegrees>
              <LongitudeDegrees>-5.7518394850194454193115234375</LongitudeDegrees>
            </Position>
            <AltitudeMeters>637.5999755859375</AltitudeMeters>
            <DistanceMeters>NAN</DistanceMeters>
          </Trackpoint>
          <Trackpoint>
            <Time>2019-10-05T13:52:13.000Z</Time>
            <Position>
              <LatitudeDegrees>41.7901855520904064178466796875</LatitudeDegrees>
              <LongitudeDegrees>-5.7519139163196086883544921875</LongitudeDegrees>
            </Position>
            <AltitudeMeters>638</AltitudeMeters>
            <DistanceMeters>NAN</DistanceMeters>
          </Trackpoint>
          <Trackpoint>
            <Time>2019-10-05T13:52:19.000Z</Time>
            <Position>
              <LatitudeDegrees>41.78991003893315792083740234375</LatitudeDegrees>
              <LongitudeDegrees>-5.75202472507953643798828125</LongitudeDegrees>
            </Position>
            <AltitudeMeters>638.79998779296875</AltitudeMeters>
            <DistanceMeters>NAN</DistanceMeters>
          </Trackpoint>
          <Trackpoint>
            <Time>2019-10-05T13:52:26.000Z</Time>
            <Position>
              <LatitudeDegrees>41.78957945667207241058349609375</LatitudeDegrees>
              <LongitudeDegrees>-5.75215791352093219757080078125</LongitudeDegrees>
            </Position>
            <AltitudeMeters>639.20001220703125</AltitudeMeters>
            <DistanceMeters>NAN</DistanceMeters>
          </Trackpoint>
          <Trackpoint>
            <Time>2019-10-05T13:52:27.000Z</Time>
            <Position>
              <LatitudeDegrees>41.78953285329043865203857421875</LatitudeDegrees>
              <LongitudeDegrees>-5.75217685662209987640380859375</LongitudeDegrees>
            </Position>
            <AltitudeMeters>639</AltitudeMeters>
            <DistanceMeters>NAN</DistanceMeters>
          </Trackpoint>
          <Trackpoint>
            <Time>2019-10-05T13:52:38.000Z</Time>
            <Position>
              <LatitudeDegrees>41.78899909369647502899169921875</LatitudeDegrees>
              <LongitudeDegrees>-5.7523822970688343048095703125</LongitudeDegrees>
            </Position>
            <AltitudeMeters>639.4000244140625</AltitudeMeters>
            <DistanceMeters>NAN</DistanceMeters>
          </Trackpoint>
          <Trackpoint>
            <Time>2019-10-05T13:52:39.000Z</Time>
            <Position>
              <LatitudeDegrees>41.788948886096477508544921875</LatitudeDegrees>
              <LongitudeDegrees>-5.75240266509354114532470703125</LongitudeDegrees>
            </Position>
            <AltitudeMeters>639.20001220703125</AltitudeMeters>
            <DistanceMeters>NAN</DistanceMeters>
          </Trackpoint>
          <Trackpoint>
            <Time>2019-10-05T13:52:50.000Z</Time>
            <Position>
              <LatitudeDegrees>41.788417138159275054931640625</LatitudeDegrees>
              <LongitudeDegrees>-5.752612464129924774169921875</LongitudeDegrees>
            </Position>
            <AltitudeMeters>639.4000244140625</AltitudeMeters>
            <DistanceMeters>NAN</DistanceMeters>
          </Trackpoint>
          <Trackpoint>
            <Time>2019-10-05T13:52:51.000Z</Time>
            <Position>
              <LatitudeDegrees>41.7883676849305629730224609375</LatitudeDegrees>
              <LongitudeDegrees>-5.7526342570781707763671875</LongitudeDegrees>
            </Position>
            <AltitudeMeters>639.4000244140625</AltitudeMeters>
            <DistanceMeters>NAN</DistanceMeters>
          </Trackpoint>
          <Trackpoint>
            <Time>2019-10-05T13:53:02.000Z</Time>
            <Position>
              <LatitudeDegrees>41.78783115930855274200439453125</LatitudeDegrees>
              <LongitudeDegrees>-5.7528446428477764129638671875</LongitudeDegrees>
            </Position>
            <AltitudeMeters>639.4000244140625</AltitudeMeters>
            <DistanceMeters>NAN</DistanceMeters>
          </Trackpoint>
          <Trackpoint>
            <Time>2019-10-05T13:53:03.000Z</Time>
            <Position>
              <LatitudeDegrees>41.78778371773660182952880859375</LatitudeDegrees>
              <LongitudeDegrees>-5.75286383740603923797607421875</LongitudeDegrees>
            </Position>
            <AltitudeMeters>639.4000244140625</AltitudeMeters>
            <DistanceMeters>NAN</DistanceMeters>
          </Trackpoint>
          <Trackpoint>
            <Time>2019-10-05T13:53:08.000Z</Time>
            <Position>
              <LatitudeDegrees>41.78754516877233982086181640625</LatitudeDegrees>
              <LongitudeDegrees>-5.7529707066714763641357421875</LongitudeDegrees>
            </Position>
            <AltitudeMeters>639.20001220703125</AltitudeMeters>
            <DistanceMeters>NAN</DistanceMeters>
          </Trackpoint>
          <Trackpoint>
            <Time>2019-10-05T13:53:14.000Z</Time>
            <Position>
              <LatitudeDegrees>41.78726705722510814666748046875</LatitudeDegrees>
              <LongitudeDegrees>-5.75311026535928249359130859375</LongitudeDegrees>
            </Position>
            <AltitudeMeters>638.79998779296875</AltitudeMeters>
            <DistanceMeters>NAN</DistanceMeters>
          </Trackpoint>
          <Trackpoint>
            <Time>2019-10-05T13:53:24.000Z</Time>
            <Position>
              <LatitudeDegrees>41.78679163567721843719482421875</LatitudeDegrees>
              <LongitudeDegrees>-5.75340765528380870819091796875</LongitudeDegrees>
            </Position>
            <AltitudeMeters>639</AltitudeMeters>
            <DistanceMeters>NAN</DistanceMeters>
          </Trackpoint>
          <Trackpoint>
            <Time>2019-10-05T13:53:30.000Z</Time>
            <Position>
              <LatitudeDegrees>41.7864780686795711517333984375</LatitudeDegrees>
              <LongitudeDegrees>-5.75363698415458202362060546875</LongitudeDegrees>
            </Position>
            <AltitudeMeters>638.20001220703125</AltitudeMeters>
            <DistanceMeters>NAN</DistanceMeters>
          </Trackpoint>
          <Trackpoint>
            <Time>2019-10-05T13:53:31.000Z</Time>
            <Position>
              <LatitudeDegrees>41.78642098791897296905517578125</LatitudeDegrees>
              <LongitudeDegrees>-5.75367704965174198150634765625</LongitudeDegrees>
            </Position>
            <AltitudeMeters>637.5999755859375</AltitudeMeters>
            <DistanceMeters>NAN</DistanceMeters>
          </Trackpoint>
          <Trackpoint>
            <Time>2019-10-05T13:53:35.000Z</Time>
            <Position>
              <LatitudeDegrees>41.78620473481714725494384765625</LatitudeDegrees>
              <LongitudeDegrees>-5.75384234078228473663330078125</LongitudeDegrees>
            </Position>
            <AltitudeMeters>637</AltitudeMeters>
            <DistanceMeters>NAN</DistanceMeters>
          </Trackpoint>
          <Trackpoint>
            <Time>2019-10-05T13:53:36.000Z</Time>
            <Position>
              <LatitudeDegrees>41.78615100681781768798828125</LatitudeDegrees>
              <LongitudeDegrees>-5.7538841664791107177734375</LongitudeDegrees>
            </Position>
            <AltitudeMeters>636</AltitudeMeters>
            <DistanceMeters>NAN</DistanceMeters>
          </Trackpoint>
          <Trackpoint>
            <Time>2019-10-05T13:53:38.000Z</Time>
            <Position>
              <LatitudeDegrees>41.78604246117174625396728515625</LatitudeDegrees>
              <LongitudeDegrees>-5.7539698295295238494873046875</LongitudeDegrees>
            </Position>
            <AltitudeMeters>635.79998779296875</AltitudeMeters>
            <DistanceMeters>NAN</DistanceMeters>
          </Trackpoint>
          <Trackpoint>
            <Time>2019-10-05T13:53:46.000Z</Time>
            <Position>
              <LatitudeDegrees>41.78562370128929615020751953125</LatitudeDegrees>
              <LongitudeDegrees>-5.75429278425872325897216796875</LongitudeDegrees>
            </Position>
            <AltitudeMeters>636</AltitudeMeters>
            <DistanceMeters>NAN</DistanceMeters>
          </Trackpoint>
          <Trackpoint>
            <Time>2019-10-05T13:53:55.000Z</Time>
            <Position>
              <LatitudeDegrees>41.785123385488986968994140625</LatitudeDegrees>
              <LongitudeDegrees>-5.754687488079071044921875</LongitudeDegrees>
            </Position>
            <AltitudeMeters>635.20001220703125</AltitudeMeters>
            <DistanceMeters>NAN</DistanceMeters>
          </Trackpoint>
          <Trackpoint>
            <Time>2019-10-05T13:53:57.000Z</Time>
            <Position>
              <LatitudeDegrees>41.78500779904425144195556640625</LatitudeDegrees>
              <LongitudeDegrees>-5.754777006804943084716796875</LongitudeDegrees>
            </Position>
            <AltitudeMeters>634.4000244140625</AltitudeMeters>
            <DistanceMeters>NAN</DistanceMeters>
          </Trackpoint>
          <Trackpoint>
            <Time>2019-10-05T13:54:05.000Z</Time>
            <Position>
              <LatitudeDegrees>41.7845498956739902496337890625</LatitudeDegrees>
              <LongitudeDegrees>-5.75513583607971668243408203125</LongitudeDegrees>
            </Position>
            <AltitudeMeters>633.79998779296875</AltitudeMeters>
            <DistanceMeters>NAN</DistanceMeters>
          </Trackpoint>
          <Trackpoint>
            <Time>2019-10-05T13:54:06.000Z</Time>
            <Position>
              <LatitudeDegrees>41.78449315018951892852783203125</LatitudeDegrees>
              <LongitudeDegrees>-5.75518034398555755615234375</LongitudeDegrees>
            </Position>
            <AltitudeMeters>633.5999755859375</AltitudeMeters>
            <DistanceMeters>NAN</DistanceMeters>
          </Trackpoint>
          <Trackpoint>
            <Time>2019-10-05T13:54:07.000Z</Time>
            <Position>
              <LatitudeDegrees>41.78438552655279636383056640625</LatitudeDegrees>
              <LongitudeDegrees>-5.7552633248269557952880859375</LongitudeDegrees>
            </Position>
            <AltitudeMeters>633.4000244140625</AltitudeMeters>
            <DistanceMeters>NAN</DistanceMeters>
          </Trackpoint>
          <Trackpoint>
            <Time>2019-10-05T13:54:13.000Z</Time>
            <Position>
              <LatitudeDegrees>41.784092746675014495849609375</LatitudeDegrees>
              <LongitudeDegrees>-5.7554916478693485260009765625</LongitudeDegrees>
            </Position>
            <AltitudeMeters>632</AltitudeMeters>
            <DistanceMeters>NAN</DistanceMeters>
          </Trackpoint>
          <Trackpoint>
            <Time>2019-10-05T13:54:16.000Z</Time>
            <Position>
              <LatitudeDegrees>41.78392116911709308624267578125</LatitudeDegrees>
              <LongitudeDegrees>-5.75562399812042713165283203125</LongitudeDegrees>
            </Position>
            <AltitudeMeters>632</AltitudeMeters>
            <DistanceMeters>NAN</DistanceMeters>
          </Trackpoint>
          <Trackpoint>
            <Time>2019-10-05T13:54:25.000Z</Time>
            <Position>
              <LatitudeDegrees>41.78340283222496509552001953125</LatitudeDegrees>
              <LongitudeDegrees>-5.75599598698318004608154296875</LongitudeDegrees>
            </Position>
            <AltitudeMeters>632</AltitudeMeters>
            <DistanceMeters>NAN</DistanceMeters>
          </Trackpoint>
          <Trackpoint>
            <Time>2019-10-05T13:54:34.000Z</Time>
            <Position>
              <LatitudeDegrees>41.78287410177290439605712890625</LatitudeDegrees>
              <LongitudeDegrees>-5.7563147507607936859130859375</LongitudeDegrees>
            </Position>
            <AltitudeMeters>631</AltitudeMeters>
            <DistanceMeters>NAN</DistanceMeters>
          </Trackpoint>
          <Trackpoint>
            <Time>2019-10-05T13:54:37.000Z</Time>
            <Position>
              <LatitudeDegrees>41.782700680196285247802734375</LatitudeDegrees>
              <LongitudeDegrees>-5.75641214847564697265625</LongitudeDegrees>
            </Position>
            <AltitudeMeters>630.5999755859375</AltitudeMeters>
            <DistanceMeters>NAN</DistanceMeters>
          </Trackpoint>
          <Trackpoint>
            <Time>2019-10-05T13:54:43.000Z</Time>
            <Position>
              <LatitudeDegrees>41.7823685891926288604736328125</LatitudeDegrees>
              <LongitudeDegrees>-5.75659512542188167572021484375</LongitudeDegrees>
            </Position>
            <AltitudeMeters>629.79998779296875</AltitudeMeters>
            <DistanceMeters>NAN</DistanceMeters>
          </Trackpoint>
          <Trackpoint>
            <Time>2019-10-05T13:54:46.000Z</Time>
            <Position>
              <LatitudeDegrees>41.7822110094130039215087890625</LatitudeDegrees>
              <LongitudeDegrees>-5.756676681339740753173828125</LongitudeDegrees>
            </Position>
            <AltitudeMeters>629.5999755859375</AltitudeMeters>
            <DistanceMeters>NAN</DistanceMeters>
          </Trackpoint>
          <Trackpoint>
            <Time>2019-10-05T13:54:51.000Z</Time>
            <Position>
              <LatitudeDegrees>41.7819525115191936492919921875</LatitudeDegrees>
              <LongitudeDegrees>-5.75682411901652812957763671875</LongitudeDegrees>
            </Position>
            <AltitudeMeters>631</AltitudeMeters>
            <DistanceMeters>NAN</DistanceMeters>
          </Trackpoint>
          <Trackpoint>
            <Time>2019-10-05T13:54:53.000Z</Time>
            <Position>
              <LatitudeDegrees>41.781851761043071746826171875</LatitudeDegrees>
              <LongitudeDegrees>-5.756879858672618865966796875</LongitudeDegrees>
            </Position>
            <AltitudeMeters>630</AltitudeMeters>
            <DistanceMeters>NAN</DistanceMeters>
          </Trackpoint>
          <Trackpoint>
            <Time>2019-10-05T13:54:57.000Z</Time>
            <Position>
              <LatitudeDegrees>41.78164648823440074920654296875</LatitudeDegrees>
              <LongitudeDegrees>-5.75699058361351490020751953125</LongitudeDegrees>
            </Position>
            <AltitudeMeters>630.20001220703125</AltitudeMeters>
            <DistanceMeters>NAN</DistanceMeters>
          </Trackpoint>
          <Trackpoint>
            <Time>2019-10-05T13:55:05.000Z</Time>
            <Position>
              <LatitudeDegrees>41.7812330089509487152099609375</LatitudeDegrees>
              <LongitudeDegrees>-5.7572216726839542388916015625</LongitudeDegrees>
            </Position>
            <AltitudeMeters>619.79998779296875</AltitudeMeters>
            <DistanceMeters>NAN</DistanceMeters>
          </Trackpoint>
          <Trackpoint>
            <Time>2019-10-05T13:55:06.000Z</Time>
            <Position>
              <LatitudeDegrees>41.78118078969419002532958984375</LatitudeDegrees>
              <LongitudeDegrees>-5.757250003516674041748046875</LongitudeDegrees>
            </Position>
            <AltitudeMeters>630</AltitudeMeters>
            <DistanceMeters>NAN</DistanceMeters>
          </Trackpoint>
          <Trackpoint>
            <Time>2019-10-05T13:55:08.000Z</Time>
            <Position>
              <LatitudeDegrees>41.7810760997235774993896484375</LatitudeDegrees>
              <LongitudeDegrees>-5.75730674900114536285400390625</LongitudeDegrees>
            </Position>
            <AltitudeMeters>630.79998779296875</AltitudeMeters>
            <DistanceMeters>NAN</DistanceMeters>
          </Trackpoint>
          <Trackpoint>
            <Time>2019-10-05T13:55:18.000Z</Time>
            <Position>
              <LatitudeDegrees>41.78055650554597377777099609375</LatitudeDegrees>
              <LongitudeDegrees>-5.75759089551866054534912109375</LongitudeDegrees>
            </Position>
            <AltitudeMeters>630.20001220703125</AltitudeMeters>
            <DistanceMeters>NAN</DistanceMeters>
          </Trackpoint>
          <Trackpoint>
            <Time>2019-10-05T13:55:27.000Z</Time>
            <Position>
              <LatitudeDegrees>41.780083179473876953125</LatitudeDegrees>
              <LongitudeDegrees>-5.75785174034535884857177734375</LongitudeDegrees>
            </Position>
            <AltitudeMeters>629.20001220703125</AltitudeMeters>
            <DistanceMeters>NAN</DistanceMeters>
          </Trackpoint>
          <Trackpoint>
            <Time>2019-10-05T13:55:37.000Z</Time>
            <Position>
              <LatitudeDegrees>41.77955755032598972320556640625</LatitudeDegrees>
              <LongitudeDegrees>-5.7581426762044429779052734375</LongitudeDegrees>
            </Position>
            <AltitudeMeters>629.20001220703125</AltitudeMeters>
            <DistanceMeters>NAN</DistanceMeters>
          </Trackpoint>
          <Trackpoint>
            <Time>2019-10-05T13:55:38.000Z</Time>
            <Position>
              <LatitudeDegrees>41.77950256504118442535400390625</LatitudeDegrees>
              <LongitudeDegrees>-5.75817360542714595794677734375</LongitudeDegrees>
            </Position>
            <AltitudeMeters>629</AltitudeMeters>
            <DistanceMeters>NAN</DistanceMeters>
          </Trackpoint>
          <Trackpoint>
            <Time>2019-10-05T13:55:48.000Z</Time>
            <Position>
              <LatitudeDegrees>41.7789682187139987945556640625</LatitudeDegrees>
              <LongitudeDegrees>-5.7584680616855621337890625</LongitudeDegrees>
            </Position>
            <AltitudeMeters>628.20001220703125</AltitudeMeters>
            <DistanceMeters>NAN</DistanceMeters>
          </Trackpoint>
          <Trackpoint>
            <Time>2019-10-05T13:55:58.000Z</Time>
            <Position>
              <LatitudeDegrees>41.7784408293664455413818359375</LatitudeDegrees>
              <LongitudeDegrees>-5.75875782407820224761962890625</LongitudeDegrees>
            </Position>
            <AltitudeMeters>628.5999755859375</AltitudeMeters>
            <DistanceMeters>NAN</DistanceMeters>
          </Trackpoint>
          <Trackpoint>
            <Time>2019-10-05T13:55:59.000Z</Time>
            <Position>
              <LatitudeDegrees>41.77838676609098911285400390625</LatitudeDegrees>
              <LongitudeDegrees>-5.758785903453826904296875</LongitudeDegrees>
            </Position>
            <AltitudeMeters>628.5999755859375</AltitudeMeters>
            <DistanceMeters>NAN</DistanceMeters>
          </Trackpoint>
          <Trackpoint>
            <Time>2019-10-05T13:56:04.000Z</Time>
            <Position>
              <LatitudeDegrees>41.77809205837547779083251953125</LatitudeDegrees>
              <LongitudeDegrees>-5.75894339941442012786865234375</LongitudeDegrees>
            </Position>
            <AltitudeMeters>627.79998779296875</AltitudeMeters>
            <DistanceMeters>NAN</DistanceMeters>
          </Trackpoint>
          <Trackpoint>
            <Time>2019-10-05T13:56:12.000Z</Time>
            <Position>
              <LatitudeDegrees>41.777694337069988250732421875</LatitudeDegrees>
              <LongitudeDegrees>-5.75915462337434291839599609375</LongitudeDegrees>
            </Position>
            <AltitudeMeters>627</AltitudeMeters>
            <DistanceMeters>NAN</DistanceMeters>
          </Trackpoint>
          <Trackpoint>
            <Time>2019-10-05T13:56:22.000Z</Time>
            <Position>
              <LatitudeDegrees>41.77718077786266803741455078125</LatitudeDegrees>
              <LongitudeDegrees>-5.7594348303973674774169921875</LongitudeDegrees>
            </Position>
            <AltitudeMeters>627</AltitudeMeters>
            <DistanceMeters>NAN</DistanceMeters>
          </Trackpoint>
          <Trackpoint>
            <Time>2019-10-05T13:56:23.000Z</Time>
            <Position>
              <LatitudeDegrees>41.7771298997104167938232421875</LatitudeDegrees>
              <LongitudeDegrees>-5.75946290977299213409423828125</LongitudeDegrees>
            </Position>
            <AltitudeMeters>627.20001220703125</AltitudeMeters>
            <DistanceMeters>NAN</DistanceMeters>
          </Trackpoint>
          <Trackpoint>
            <Time>2019-10-05T13:56:28.000Z</Time>
            <Position>
              <LatitudeDegrees>41.77687534131109714508056640625</LatitudeDegrees>
              <LongitudeDegrees>-5.75960556976497173309326171875</LongitudeDegrees>
            </Position>
            <AltitudeMeters>626.5999755859375</AltitudeMeters>
            <DistanceMeters>NAN</DistanceMeters>
          </Trackpoint>
          <Trackpoint>
            <Time>2019-10-05T13:56:36.000Z</Time>
            <Position>
              <LatitudeDegrees>41.77645926363766193389892578125</LatitudeDegrees>
              <LongitudeDegrees>-5.75983154587447643280029296875</LongitudeDegrees>
            </Position>
            <AltitudeMeters>626.5999755859375</AltitudeMeters>
            <DistanceMeters>NAN</DistanceMeters>
          </Trackpoint>
          <Trackpoint>
            <Time>2019-10-05T13:56:44.000Z</Time>
            <Position>
              <LatitudeDegrees>41.7760680802166461944580078125</LatitudeDegrees>
              <LongitudeDegrees>-5.76004453003406524658203125</LongitudeDegrees>
            </Position>
            <AltitudeMeters>627.5999755859375</AltitudeMeters>
            <DistanceMeters>NAN</DistanceMeters>
          </Trackpoint>
          <Trackpoint>
            <Time>2019-10-05T13:56:53.000Z</Time>
            <Position>
              <LatitudeDegrees>41.7756100930273532867431640625</LatitudeDegrees>
              <LongitudeDegrees>-5.76029372401535511016845703125</LongitudeDegrees>
            </Position>
            <AltitudeMeters>626.5999755859375</AltitudeMeters>
            <DistanceMeters>NAN</DistanceMeters>
          </Trackpoint>
          <Trackpoint>
            <Time>2019-10-05T13:56:55.000Z</Time>
            <Position>
              <LatitudeDegrees>41.77550657652318477630615234375</LatitudeDegrees>
              <LongitudeDegrees>-5.76035189442336559295654296875</LongitudeDegrees>
            </Position>
            <AltitudeMeters>625.79998779296875</AltitudeMeters>
            <DistanceMeters>NAN</DistanceMeters>
          </Trackpoint>
          <Trackpoint>
            <Time>2019-10-05T13:56:56.000Z</Time>
            <Position>
              <LatitudeDegrees>41.775455363094806671142578125</LatitudeDegrees>
              <LongitudeDegrees>-5.76038156636059284210205078125</LongitudeDegrees>
            </Position>
            <AltitudeMeters>625.5999755859375</AltitudeMeters>
            <DistanceMeters>NAN</DistanceMeters>
          </Trackpoint>
          <Trackpoint>
            <Time>2019-10-05T13:57:05.000Z</Time>
            <Position>
              <LatitudeDegrees>41.77495001815259456634521484375</LatitudeDegrees>
              <LongitudeDegrees>-5.7606579177081584930419921875</LongitudeDegrees>
            </Position>
            <AltitudeMeters>625</AltitudeMeters>
            <DistanceMeters>NAN</DistanceMeters>
          </Trackpoint>
          <Trackpoint>
            <Time>2019-10-05T13:57:06.000Z</Time>
            <Position>
              <LatitudeDegrees>41.77494063042104244232177734375</LatitudeDegrees>
              <LongitudeDegrees>-5.76066135428845882415771484375</LongitudeDegrees>
            </Position>
            <AltitudeMeters>625</AltitudeMeters>
            <DistanceMeters>NAN</DistanceMeters>
          </Trackpoint>
          <Trackpoint>
            <Time>2019-10-05T13:57:09.000Z</Time>
            <Position>
              <LatitudeDegrees>41.774789504706859588623046875</LatitudeDegrees>
              <LongitudeDegrees>-5.76073997654020786285400390625</LongitudeDegrees>
            </Position>
            <AltitudeMeters>624.5999755859375</AltitudeMeters>
            <DistanceMeters>NAN</DistanceMeters>
          </Trackpoint>
          <Trackpoint>
            <Time>2019-10-05T13:57:16.000Z</Time>
            <Position>
              <LatitudeDegrees>41.774447523057460784912109375</LatitudeDegrees>
              <LongitudeDegrees>-5.760923288762569427490234375</LongitudeDegrees>
            </Position>
            <AltitudeMeters>625.4000244140625</AltitudeMeters>
            <DistanceMeters>NAN</DistanceMeters>
          </Trackpoint>
          <Trackpoint>
            <Time>2019-10-05T13:57:21.000Z</Time>
            <Position>
              <LatitudeDegrees>41.77423152141273021697998046875</LatitudeDegrees>
              <LongitudeDegrees>-5.76104876585304737091064453125</LongitudeDegrees>
            </Position>
            <AltitudeMeters>626.20001220703125</AltitudeMeters>
            <DistanceMeters>NAN</DistanceMeters>
          </Trackpoint>
          <Trackpoint>
            <Time>2019-10-05T13:57:24.000Z</Time>
            <Position>
              <LatitudeDegrees>41.77411417476832866668701171875</LatitudeDegrees>
              <LongitudeDegrees>-5.76111582107841968536376953125</LongitudeDegrees>
            </Position>
            <AltitudeMeters>626.4000244140625</AltitudeMeters>
            <DistanceMeters>NAN</DistanceMeters>
          </Trackpoint>
          <Trackpoint>
            <Time>2019-10-05T13:57:30.000Z</Time>
            <Position>
              <LatitudeDegrees>41.7739018611609935760498046875</LatitudeDegrees>
              <LongitudeDegrees>-5.76122939586639404296875</LongitudeDegrees>
            </Position>
            <AltitudeMeters>627.4000244140625</AltitudeMeters>
            <DistanceMeters>NAN</DistanceMeters>
          </Trackpoint>
          <Trackpoint>
            <Time>2019-10-05T13:57:32.000Z</Time>
            <Position>
              <LatitudeDegrees>41.773832626640796661376953125</LatitudeDegrees>
              <LongitudeDegrees>-5.7612697966396808624267578125</LongitudeDegrees>
            </Position>
            <AltitudeMeters>628.4000244140625</AltitudeMeters>
            <DistanceMeters>NAN</DistanceMeters>
          </Trackpoint>
          <Trackpoint>
            <Time>2019-10-05T13:57:33.000Z</Time>
            <Position>
              <LatitudeDegrees>41.7737974226474761962890625</LatitudeDegrees>
              <LongitudeDegrees>-5.761288739740848541259765625</LongitudeDegrees>
            </Position>
            <AltitudeMeters>628.5999755859375</AltitudeMeters>
            <DistanceMeters>NAN</DistanceMeters>
          </Trackpoint>
          <Trackpoint>
            <Time>2019-10-05T13:57:39.000Z</Time>
            <Position>
              <LatitudeDegrees>41.77359156310558319091796875</LatitudeDegrees>
              <LongitudeDegrees>-5.76139904558658599853515625</LongitudeDegrees>
            </Position>
            <AltitudeMeters>629.5999755859375</AltitudeMeters>
            <DistanceMeters>NAN</DistanceMeters>
          </Trackpoint>
          <Trackpoint>
            <Time>2019-10-05T13:57:42.000Z</Time>
            <Position>
              <LatitudeDegrees>41.7734898068010807037353515625</LatitudeDegrees>
              <LongitudeDegrees>-5.76144791208207607269287109375</LongitudeDegrees>
            </Position>
            <AltitudeMeters>630.4000244140625</AltitudeMeters>
            <DistanceMeters>NAN</DistanceMeters>
          </Trackpoint>
          <Trackpoint>
            <Time>2019-10-05T13:57:46.000Z</Time>
            <Position>
              <LatitudeDegrees>41.77335494197905063629150390625</LatitudeDegrees>
              <LongitudeDegrees>-5.76152418740093708038330078125</LongitudeDegrees>
            </Position>
            <AltitudeMeters>630.79998779296875</AltitudeMeters>
            <DistanceMeters>NAN</DistanceMeters>
          </Trackpoint>
          <Trackpoint>
            <Time>2019-10-05T13:57:50.000Z</Time>
            <Position>
              <LatitudeDegrees>41.7732185684144496917724609375</LatitudeDegrees>
              <LongitudeDegrees>-5.76159861870110034942626953125</LongitudeDegrees>
            </Position>
            <AltitudeMeters>631.79998779296875</AltitudeMeters>
            <DistanceMeters>NAN</DistanceMeters>
          </Trackpoint>
          <Trackpoint>
            <Time>2019-10-05T13:57:51.000Z</Time>
            <Position>
              <LatitudeDegrees>41.77318428643047809600830078125</LatitudeDegrees>
              <LongitudeDegrees>-5.7616154663264751434326171875</LongitudeDegrees>
            </Position>
            <AltitudeMeters>632.20001220703125</AltitudeMeters>
            <DistanceMeters>NAN</DistanceMeters>
          </Trackpoint>
          <Trackpoint>
            <Time>2019-10-05T13:57:56.000Z</Time>
            <Position>
              <LatitudeDegrees>41.77301497198641300201416015625</LatitudeDegrees>
              <LongitudeDegrees>-5.76171596534550189971923828125</LongitudeDegrees>
            </Position>
            <AltitudeMeters>632.79998779296875</AltitudeMeters>
            <DistanceMeters>NAN</DistanceMeters>
          </Trackpoint>
          <Trackpoint>
            <Time>2019-10-05T13:58:00.000Z</Time>
            <Position>
              <LatitudeDegrees>41.77287952043116092681884765625</LatitudeDegrees>
              <LongitudeDegrees>-5.76178804971277713775634765625</LongitudeDegrees>
            </Position>
            <AltitudeMeters>633</AltitudeMeters>
            <DistanceMeters>NAN</DistanceMeters>
          </Trackpoint>
          <Trackpoint>
            <Time>2019-10-05T13:58:08.000Z</Time>
            <Position>
              <LatitudeDegrees>41.77257106639444828033447265625</LatitudeDegrees>
              <LongitudeDegrees>-5.76195468194782733917236328125</LongitudeDegrees>
            </Position>
            <AltitudeMeters>633.79998779296875</AltitudeMeters>
            <DistanceMeters>NAN</DistanceMeters>
          </Trackpoint>
          <Trackpoint>
            <Time>2019-10-05T13:58:09.000Z</Time>
            <Position>
              <LatitudeDegrees>41.77255882881581783294677734375</LatitudeDegrees>
              <LongitudeDegrees>-5.76196172274649143218994140625</LongitudeDegrees>
            </Position>
            <AltitudeMeters>633.79998779296875</AltitudeMeters>
            <DistanceMeters>NAN</DistanceMeters>
          </Trackpoint>
          <Trackpoint>
            <Time>2019-10-05T13:58:17.000Z</Time>
            <Position>
              <LatitudeDegrees>41.7722533084452152252197265625</LatitudeDegrees>
              <LongitudeDegrees>-5.76213036663830280303955078125</LongitudeDegrees>
            </Position>
            <AltitudeMeters>633.79998779296875</AltitudeMeters>
            <DistanceMeters>NAN</DistanceMeters>
          </Trackpoint>
          <Trackpoint>
            <Time>2019-10-05T13:58:26.000Z</Time>
            <Position>
              <LatitudeDegrees>41.77188894711434841156005859375</LatitudeDegrees>
              <LongitudeDegrees>-5.76232532970607280731201171875</LongitudeDegrees>
            </Position>
            <AltitudeMeters>634</AltitudeMeters>
            <DistanceMeters>NAN</DistanceMeters>
          </Trackpoint>
          <Trackpoint>
            <Time>2019-10-05T13:58:31.000Z</Time>
            <Position>
              <LatitudeDegrees>41.771648637950420379638671875</LatitudeDegrees>
              <LongitudeDegrees>-5.76245675794780254364013671875</LongitudeDegrees>
            </Position>
            <AltitudeMeters>632.5999755859375</AltitudeMeters>
            <DistanceMeters>NAN</DistanceMeters>
          </Trackpoint>
          <Trackpoint>
            <Time>2019-10-05T13:58:33.000Z</Time>
            <Position>
              <LatitudeDegrees>41.77153925411403179168701171875</LatitudeDegrees>
              <LongitudeDegrees>-5.76251710765063762664794921875</LongitudeDegrees>
            </Position>
            <AltitudeMeters>632.20001220703125</AltitudeMeters>
            <DistanceMeters>NAN</DistanceMeters>
          </Trackpoint>
          <Trackpoint>
            <Time>2019-10-05T13:58:39.000Z</Time>
            <Position>
              <LatitudeDegrees>41.77117883227765560150146484375</LatitudeDegrees>
              <LongitudeDegrees>-5.76271458528935909271240234375</LongitudeDegrees>
            </Position>
            <AltitudeMeters>631.4000244140625</AltitudeMeters>
            <DistanceMeters>NAN</DistanceMeters>
          </Trackpoint>
          <Trackpoint>
            <Time>2019-10-05T13:58:41.000Z</Time>
            <Position>
              <LatitudeDegrees>41.77104539237916469573974609375</LatitudeDegrees>
              <LongitudeDegrees>-5.762783400714397430419921875</LongitudeDegrees>
            </Position>
            <AltitudeMeters>630.79998779296875</AltitudeMeters>
            <DistanceMeters>NAN</DistanceMeters>
          </Trackpoint>
          <Trackpoint>
            <Time>2019-10-05T13:58:42.000Z</Time>
            <Position>
              <LatitudeDegrees>41.77097565494477748870849609375</LatitudeDegrees>
              <LongitudeDegrees>-5.7628186047077178955078125</LongitudeDegrees>
            </Position>
            <AltitudeMeters>630.4000244140625</AltitudeMeters>
            <DistanceMeters>NAN</DistanceMeters>
          </Trackpoint>
          <Trackpoint>
            <Time>2019-10-05T13:58:45.000Z</Time>
            <Position>
              <LatitudeDegrees>41.7707613296806812286376953125</LatitudeDegrees>
              <LongitudeDegrees>-5.76293737627565860748291015625</LongitudeDegrees>
            </Position>
            <AltitudeMeters>628.4000244140625</AltitudeMeters>
            <DistanceMeters>NAN</DistanceMeters>
          </Trackpoint>
          <Trackpoint>
            <Time>2019-10-05T13:58:48.000Z</Time>
            <Position>
              <LatitudeDegrees>41.770540885627269744873046875</LatitudeDegrees>
              <LongitudeDegrees>-5.76306067407131195068359375</LongitudeDegrees>
            </Position>
            <AltitudeMeters>627</AltitudeMeters>
            <DistanceMeters>NAN</DistanceMeters>
          </Trackpoint>
          <Trackpoint>
            <Time>2019-10-05T13:58:53.000Z</Time>
            <Position>
              <LatitudeDegrees>41.770165376365184783935546875</LatitudeDegrees>
              <LongitudeDegrees>-5.7632690481841564178466796875</LongitudeDegrees>
            </Position>
            <AltitudeMeters>625.5999755859375</AltitudeMeters>
            <DistanceMeters>NAN</DistanceMeters>
          </Trackpoint>
          <Trackpoint>
            <Time>2019-10-05T13:58:55.000Z</Time>
            <Position>
              <LatitudeDegrees>41.770010478794574737548828125</LatitudeDegrees>
              <LongitudeDegrees>-5.7633498497307300567626953125</LongitudeDegrees>
            </Position>
            <AltitudeMeters>624.4000244140625</AltitudeMeters>
            <DistanceMeters>NAN</DistanceMeters>
          </Trackpoint>
          <Trackpoint>
            <Time>2019-10-05T13:58:56.000Z</Time>
            <Position>
              <LatitudeDegrees>41.76993479020893573760986328125</LatitudeDegrees>
              <LongitudeDegrees>-5.76339318417012691497802734375</LongitudeDegrees>
            </Position>
            <AltitudeMeters>624</AltitudeMeters>
            <DistanceMeters>NAN</DistanceMeters>
          </Trackpoint>
          <Trackpoint>
            <Time>2019-10-05T13:58:59.000Z</Time>
            <Position>
              <LatitudeDegrees>41.769702024757862091064453125</LatitudeDegrees>
              <LongitudeDegrees>-5.7635205052793025970458984375</LongitudeDegrees>
            </Position>
            <AltitudeMeters>623.4000244140625</AltitudeMeters>
            <DistanceMeters>NAN</DistanceMeters>
          </Trackpoint>
          <Trackpoint>
            <Time>2019-10-05T13:59:02.000Z</Time>
            <Position>
              <LatitudeDegrees>41.76946808584034442901611328125</LatitudeDegrees>
              <LongitudeDegrees>-5.76365117914974689483642578125</LongitudeDegrees>
            </Position>
            <AltitudeMeters>622.4000244140625</AltitudeMeters>
            <DistanceMeters>NAN</DistanceMeters>
          </Trackpoint>
          <Trackpoint>
            <Time>2019-10-05T13:59:04.000Z</Time>
            <Position>
              <LatitudeDegrees>41.7693154513835906982421875</LatitudeDegrees>
              <LongitudeDegrees>-5.76373198069632053375244140625</LongitudeDegrees>
            </Position>
            <AltitudeMeters>622</AltitudeMeters>
            <DistanceMeters>NAN</DistanceMeters>
          </Trackpoint>
          <Trackpoint>
            <Time>2019-10-05T13:59:06.000Z</Time>
            <Position>
              <LatitudeDegrees>41.7691654153168201446533203125</LatitudeDegrees>
              <LongitudeDegrees>-5.76381630264222621917724609375</LongitudeDegrees>
            </Position>
            <AltitudeMeters>619</AltitudeMeters>
            <DistanceMeters>NAN</DistanceMeters>
          </Trackpoint>
          <Trackpoint>
            <Time>2019-10-05T13:59:07.000Z</Time>
            <Position>
              <LatitudeDegrees>41.769091822206974029541015625</LatitudeDegrees>
              <LongitudeDegrees>-5.76385620050132274627685546875</LongitudeDegrees>
            </Position>
            <AltitudeMeters>621.4000244140625</AltitudeMeters>
            <DistanceMeters>NAN</DistanceMeters>
          </Trackpoint>
          <Trackpoint>
            <Time>2019-10-05T13:59:10.000Z</Time>
            <Position>
              <LatitudeDegrees>41.768880598247051239013671875</LatitudeDegrees>
              <LongitudeDegrees>-5.763979665935039520263671875</LongitudeDegrees>
            </Position>
            <AltitudeMeters>622.20001220703125</AltitudeMeters>
            <DistanceMeters>NAN</DistanceMeters>
          </Trackpoint>
          <Trackpoint>
            <Time>2019-10-05T13:59:12.000Z</Time>
            <Position>
              <LatitudeDegrees>41.76874539814889430999755859375</LatitudeDegrees>
              <LongitudeDegrees>-5.76405267231166362762451171875</LongitudeDegrees>
            </Position>
            <AltitudeMeters>622.79998779296875</AltitudeMeters>
            <DistanceMeters>NAN</DistanceMeters>
          </Trackpoint>
          <Trackpoint>
            <Time>2019-10-05T13:59:20.000Z</Time>
            <Position>
              <LatitudeDegrees>41.76825120113790035247802734375</LatitudeDegrees>
              <LongitudeDegrees>-5.764320306479930877685546875</LongitudeDegrees>
            </Position>
            <AltitudeMeters>623.20001220703125</AltitudeMeters>
            <DistanceMeters>NAN</DistanceMeters>
          </Trackpoint>
          <Trackpoint>
            <Time>2019-10-05T13:59:29.000Z</Time>
            <Position>
              <LatitudeDegrees>41.76773764193058013916015625</LatitudeDegrees>
              <LongitudeDegrees>-5.76459699310362339019775390625</LongitudeDegrees>
            </Position>
            <AltitudeMeters>623.20001220703125</AltitudeMeters>
            <DistanceMeters>NAN</DistanceMeters>
          </Trackpoint>
          <Trackpoint>
            <Time>2019-10-05T13:59:32.000Z</Time>
            <Position>
              <LatitudeDegrees>41.76756941713392734527587890625</LatitudeDegrees>
              <LongitudeDegrees>-5.76468785293400287628173828125</LongitudeDegrees>
            </Position>
            <AltitudeMeters>623.4000244140625</AltitudeMeters>
            <DistanceMeters>NAN</DistanceMeters>
          </Trackpoint>
          <Trackpoint>
            <Time>2019-10-05T13:59:39.000Z</Time>
            <Position>
              <LatitudeDegrees>41.76718317903578281402587890625</LatitudeDegrees>
              <LongitudeDegrees>-5.76489706523716449737548828125</LongitudeDegrees>
            </Position>
            <AltitudeMeters>623.79998779296875</AltitudeMeters>
            <DistanceMeters>NAN</DistanceMeters>
          </Trackpoint>
          <Trackpoint>
            <Time>2019-10-05T13:59:40.000Z</Time>
            <Position>
              <LatitudeDegrees>41.76713003776967525482177734375</LatitudeDegrees>
              <LongitudeDegrees>-5.7649286650121212005615234375</LongitudeDegrees>
            </Position>
            <AltitudeMeters>624</AltitudeMeters>
            <DistanceMeters>NAN</DistanceMeters>
          </Trackpoint>
          <Trackpoint>
            <Time>2019-10-05T13:59:42.000Z</Time>
            <Position>
              <LatitudeDegrees>41.7670280300080776214599609375</LatitudeDegrees>
              <LongitudeDegrees>-5.764987170696258544921875</LongitudeDegrees>
            </Position>
            <AltitudeMeters>624</AltitudeMeters>
            <DistanceMeters>NAN</DistanceMeters>
          </Trackpoint>
          <Trackpoint>
            <Time>2019-10-05T13:59:50.000Z</Time>
            <Position>
              <LatitudeDegrees>41.76663148216903209686279296875</LatitudeDegrees>
              <LongitudeDegrees>-5.76520250178873538970947265625</LongitudeDegrees>
            </Position>
            <AltitudeMeters>624</AltitudeMeters>
            <DistanceMeters>NAN</DistanceMeters>
          </Trackpoint>
          <Trackpoint>
            <Time>2019-10-05T13:59:54.000Z</Time>
            <Position>
              <LatitudeDegrees>41.76643568091094493865966796875</LatitudeDegrees>
              <LongitudeDegrees>-5.76531532220542430877685546875</LongitudeDegrees>
            </Position>
            <AltitudeMeters>624.4000244140625</AltitudeMeters>
            <DistanceMeters>NAN</DistanceMeters>
          </Trackpoint>
          <Trackpoint>
            <Time>2019-10-05T14:00:02.000Z</Time>
            <Position>
              <LatitudeDegrees>41.7660486884415149688720703125</LatitudeDegrees>
              <LongitudeDegrees>-5.76552604325115680694580078125</LongitudeDegrees>
            </Position>
            <AltitudeMeters>625.20001220703125</AltitudeMeters>
            <DistanceMeters>NAN</DistanceMeters>
          </Trackpoint>
          <Trackpoint>
            <Time>2019-10-05T14:00:03.000Z</Time>
            <Position>
              <LatitudeDegrees>41.76599982194602489471435546875</LatitudeDegrees>
              <LongitudeDegrees>-5.765551440417766571044921875</LongitudeDegrees>
            </Position>
            <AltitudeMeters>625.4000244140625</AltitudeMeters>
            <DistanceMeters>NAN</DistanceMeters>
          </Trackpoint>
          <Trackpoint>
            <Time>2019-10-05T14:00:14.000Z</Time>
            <Position>
              <LatitudeDegrees>41.7654683254659175872802734375</LatitudeDegrees>
              <LongitudeDegrees>-5.765811614692211151123046875</LongitudeDegrees>
            </Position>
            <AltitudeMeters>624.79998779296875</AltitudeMeters>
            <DistanceMeters>NAN</DistanceMeters>
          </Trackpoint>
          <Trackpoint>
            <Time>2019-10-05T14:00:24.000Z</Time>
            <Position>
              <LatitudeDegrees>41.7649610526859760284423828125</LatitudeDegrees>
              <LongitudeDegrees>-5.76602191664278507232666015625</LongitudeDegrees>
            </Position>
            <AltitudeMeters>625</AltitudeMeters>
            <DistanceMeters>NAN</DistanceMeters>
          </Trackpoint>
          <Trackpoint>
            <Time>2019-10-05T14:00:25.000Z</Time>
            <Position>
              <LatitudeDegrees>41.7649097554385662078857421875</LatitudeDegrees>
              <LongitudeDegrees>-5.76604463160037994384765625</LongitudeDegrees>
            </Position>
            <AltitudeMeters>624.5999755859375</AltitudeMeters>
            <DistanceMeters>NAN</DistanceMeters>
          </Trackpoint>
          <Trackpoint>
            <Time>2019-10-05T14:00:30.000Z</Time>
            <Position>
              <LatitudeDegrees>41.76463843323290348052978515625</LatitudeDegrees>
              <LongitudeDegrees>-5.7661453820765018463134765625</LongitudeDegrees>
            </Position>
            <AltitudeMeters>624</AltitudeMeters>
            <DistanceMeters>NAN</DistanceMeters>
          </Trackpoint>
          <Trackpoint>
            <Time>2019-10-05T14:00:34.000Z</Time>
            <Position>
              <LatitudeDegrees>41.76440373994410037994384765625</LatitudeDegrees>
              <LongitudeDegrees>-5.76623749919235706329345703125</LongitudeDegrees>
            </Position>
            <AltitudeMeters>623.4000244140625</AltitudeMeters>
            <DistanceMeters>NAN</DistanceMeters>
          </Trackpoint>
          <Trackpoint>
            <Time>2019-10-05T14:00:37.000Z</Time>
            <Position>
              <LatitudeDegrees>41.76422168500721454620361328125</LatitudeDegrees>
              <LongitudeDegrees>-5.76631729491055011749267578125</LongitudeDegrees>
            </Position>
            <AltitudeMeters>622.79998779296875</AltitudeMeters>
            <DistanceMeters>NAN</DistanceMeters>
          </Trackpoint>
          <Trackpoint>
            <Time>2019-10-05T14:00:39.000Z</Time>
            <Position>
              <LatitudeDegrees>41.7641258798539638519287109375</LatitudeDegrees>
              <LongitudeDegrees>-5.76643128879368305206298828125</LongitudeDegrees>
            </Position>
            <AltitudeMeters>622.20001220703125</AltitudeMeters>
            <DistanceMeters>NAN</DistanceMeters>
          </Trackpoint>
          <Trackpoint>
            <Time>2019-10-05T14:00:41.000Z</Time>
            <Position>
              <LatitudeDegrees>41.76403912715613842010498046875</LatitudeDegrees>
              <LongitudeDegrees>-5.76655969955027103424072265625</LongitudeDegrees>
            </Position>
            <AltitudeMeters>621.20001220703125</AltitudeMeters>
            <DistanceMeters>NAN</DistanceMeters>
          </Trackpoint>
          <Trackpoint>
            <Time>2019-10-05T14:00:44.000Z</Time>
            <Position>
              <LatitudeDegrees>41.763864867389202117919921875</LatitudeDegrees>
              <LongitudeDegrees>-5.7666677422821521759033203125</LongitudeDegrees>
            </Position>
            <AltitudeMeters>621.79998779296875</AltitudeMeters>
            <DistanceMeters>NAN</DistanceMeters>
          </Trackpoint>
          <Trackpoint>
            <Time>2019-10-05T14:00:47.000Z</Time>
            <Position>
              <LatitudeDegrees>41.7636591754853725433349609375</LatitudeDegrees>
              <LongitudeDegrees>-5.766641087830066680908203125</LongitudeDegrees>
            </Position>
            <AltitudeMeters>621.4000244140625</AltitudeMeters>
            <DistanceMeters>NAN</DistanceMeters>
          </Trackpoint>
          <Trackpoint>
            <Time>2019-10-05T14:00:48.000Z</Time>
            <Position>
              <LatitudeDegrees>41.76358952187001705169677734375</LatitudeDegrees>
              <LongitudeDegrees>-5.7666177861392498016357421875</LongitudeDegrees>
            </Position>
            <AltitudeMeters>621.20001220703125</AltitudeMeters>
            <DistanceMeters>NAN</DistanceMeters>
          </Trackpoint>
          <Trackpoint>
            <Time>2019-10-05T14:00:49.000Z</Time>
            <Position>
              <LatitudeDegrees>41.76351794041693210601806640625</LatitudeDegrees>
              <LongitudeDegrees>-5.766607224941253662109375</LongitudeDegrees>
            </Position>
            <AltitudeMeters>620.79998779296875</AltitudeMeters>
            <DistanceMeters>NAN</DistanceMeters>
          </Trackpoint>
          <Trackpoint>
            <Time>2019-10-05T14:00:51.000Z</Time>
            <Position>
              <LatitudeDegrees>41.76336924545466899871826171875</LatitudeDegrees>
              <LongitudeDegrees>-5.76663396321237087249755859375</LongitudeDegrees>
            </Position>
            <AltitudeMeters>619.79998779296875</AltitudeMeters>
            <DistanceMeters>NAN</DistanceMeters>
          </Trackpoint>
          <Trackpoint>
            <Time>2019-10-05T14:00:54.000Z</Time>
            <Position>
              <LatitudeDegrees>41.76314511336386203765869140625</LatitudeDegrees>
              <LongitudeDegrees>-5.76672163791954517364501953125</LongitudeDegrees>
            </Position>
            <AltitudeMeters>618.79998779296875</AltitudeMeters>
            <DistanceMeters>NAN</DistanceMeters>
          </Trackpoint>
          <Trackpoint>
            <Time>2019-10-05T14:00:59.000Z</Time>
            <Position>
              <LatitudeDegrees>41.76275686360895633697509765625</LatitudeDegrees>
              <LongitudeDegrees>-5.76687066815793514251708984375</LongitudeDegrees>
            </Position>
            <AltitudeMeters>617.79998779296875</AltitudeMeters>
            <DistanceMeters>NAN</DistanceMeters>
          </Trackpoint>
          <Trackpoint>
            <Time>2019-10-05T14:01:01.000Z</Time>
            <Position>
              <LatitudeDegrees>41.7626023851335048675537109375</LatitudeDegrees>
              <LongitudeDegrees>-5.76693244278430938720703125</LongitudeDegrees>
            </Position>
            <AltitudeMeters>617.5999755859375</AltitudeMeters>
            <DistanceMeters>NAN</DistanceMeters>
          </Trackpoint>
          <Trackpoint>
            <Time>2019-10-05T14:01:08.000Z</Time>
            <Position>
              <LatitudeDegrees>41.76208765245974063873291015625</LatitudeDegrees>
              <LongitudeDegrees>-5.76712816022336483001708984375</LongitudeDegrees>
            </Position>
            <AltitudeMeters>617.79998779296875</AltitudeMeters>
            <DistanceMeters>NAN</DistanceMeters>
          </Trackpoint>
          <Trackpoint>
            <Time>2019-10-05T14:01:10.000Z</Time>
            <Position>
              <LatitudeDegrees>41.761950440704822540283203125</LatitudeDegrees>
              <LongitudeDegrees>-5.76718247495591640472412109375</LongitudeDegrees>
            </Position>
            <AltitudeMeters>618.20001220703125</AltitudeMeters>
            <DistanceMeters>NAN</DistanceMeters>
          </Trackpoint>
          <Trackpoint>
            <Time>2019-10-05T14:01:18.000Z</Time>
            <Position>
              <LatitudeDegrees>41.76143822260200977325439453125</LatitudeDegrees>
              <LongitudeDegrees>-5.76736436225473880767822265625</LongitudeDegrees>
            </Position>
            <AltitudeMeters>618.20001220703125</AltitudeMeters>
            <DistanceMeters>NAN</DistanceMeters>
          </Trackpoint>
          <Trackpoint>
            <Time>2019-10-05T14:01:19.000Z</Time>
            <Position>
              <LatitudeDegrees>41.7613782919943332672119140625</LatitudeDegrees>
              <LongitudeDegrees>-5.76738380827009677886962890625</LongitudeDegrees>
            </Position>
            <AltitudeMeters>618.4000244140625</AltitudeMeters>
            <DistanceMeters>NAN</DistanceMeters>
          </Trackpoint>
          <Trackpoint>
            <Time>2019-10-05T14:01:22.000Z</Time>
            <Position>
              <LatitudeDegrees>41.76119975745677947998046875</LatitudeDegrees>
              <LongitudeDegrees>-5.76743829064071178436279296875</LongitudeDegrees>
            </Position>
            <AltitudeMeters>619.20001220703125</AltitudeMeters>
            <DistanceMeters>NAN</DistanceMeters>
          </Trackpoint>
          <Trackpoint>
            <Time>2019-10-05T14:01:27.000Z</Time>
            <Position>
              <LatitudeDegrees>41.7609018646180629730224609375</LatitudeDegrees>
              <LongitudeDegrees>-5.767519176006317138671875</LongitudeDegrees>
            </Position>
            <AltitudeMeters>618.4000244140625</AltitudeMeters>
            <DistanceMeters>NAN</DistanceMeters>
          </Trackpoint>
          <Trackpoint>
            <Time>2019-10-05T14:01:35.000Z</Time>
            <Position>
              <LatitudeDegrees>41.76041244529187679290771484375</LatitudeDegrees>
              <LongitudeDegrees>-5.7675488479435443878173828125</LongitudeDegrees>
            </Position>
            <AltitudeMeters>618.20001220703125</AltitudeMeters>
            <DistanceMeters>NAN</DistanceMeters>
          </Trackpoint>
          <Trackpoint>
            <Time>2019-10-05T14:01:41.000Z</Time>
            <Position>
              <LatitudeDegrees>41.76003928296267986297607421875</LatitudeDegrees>
              <LongitudeDegrees>-5.76757692731916904449462890625</LongitudeDegrees>
            </Position>
            <AltitudeMeters>618.5999755859375</AltitudeMeters>
            <DistanceMeters>NAN</DistanceMeters>
          </Trackpoint>
          <Trackpoint>
            <Time>2019-10-05T14:01:44.000Z</Time>
            <Position>
              <LatitudeDegrees>41.7598501034080982208251953125</LatitudeDegrees>
              <LongitudeDegrees>-5.76758782379329204559326171875</LongitudeDegrees>
            </Position>
            <AltitudeMeters>618</AltitudeMeters>
            <DistanceMeters>NAN</DistanceMeters>
          </Trackpoint>
          <Trackpoint>
            <Time>2019-10-05T14:01:49.000Z</Time>
            <Position>
              <LatitudeDegrees>41.759529411792755126953125</LatitudeDegrees>
              <LongitudeDegrees>-5.76760232448577880859375</LongitudeDegrees>
            </Position>
            <AltitudeMeters>619.20001220703125</AltitudeMeters>
            <DistanceMeters>NAN</DistanceMeters>
          </Trackpoint>
          <Trackpoint>
            <Time>2019-10-05T14:01:52.000Z</Time>
            <Position>
              <LatitudeDegrees>41.75933453254401683807373046875</LatitudeDegrees>
              <LongitudeDegrees>-5.7676122151315212249755859375</LongitudeDegrees>
            </Position>
            <AltitudeMeters>618.79998779296875</AltitudeMeters>
            <DistanceMeters>NAN</DistanceMeters>
          </Trackpoint>
          <Trackpoint>
            <Time>2019-10-05T14:01:59.000Z</Time>
            <Position>
              <LatitudeDegrees>41.7588851787149906158447265625</LatitudeDegrees>
              <LongitudeDegrees>-5.76762369833886623382568359375</LongitudeDegrees>
            </Position>
            <AltitudeMeters>618.20001220703125</AltitudeMeters>
            <DistanceMeters>NAN</DistanceMeters>
          </Trackpoint>
          <Trackpoint>
            <Time>2019-10-05T14:02:07.000Z</Time>
            <Position>
              <LatitudeDegrees>41.758373044431209564208984375</LatitudeDegrees>
              <LongitudeDegrees>-5.7676599919795989990234375</LongitudeDegrees>
            </Position>
            <AltitudeMeters>618.20001220703125</AltitudeMeters>
            <DistanceMeters>NAN</DistanceMeters>
          </Trackpoint>
          <Trackpoint>
            <Time>2019-10-05T14:02:13.000Z</Time>
            <Position>
              <LatitudeDegrees>41.75799292512238025665283203125</LatitudeDegrees>
              <LongitudeDegrees>-5.767716653645038604736328125</LongitudeDegrees>
            </Position>
            <AltitudeMeters>618</AltitudeMeters>
            <DistanceMeters>NAN</DistanceMeters>
          </Trackpoint>
          <Trackpoint>
            <Time>2019-10-05T14:02:18.000Z</Time>
            <Position>
              <LatitudeDegrees>41.75768346525728702545166015625</LatitudeDegrees>
              <LongitudeDegrees>-5.76778412796556949615478515625</LongitudeDegrees>
            </Position>
            <AltitudeMeters>618.20001220703125</AltitudeMeters>
            <DistanceMeters>NAN</DistanceMeters>
          </Trackpoint>
          <Trackpoint>
            <Time>2019-10-05T14:02:27.000Z</Time>
            <Position>
              <LatitudeDegrees>41.75715020857751369476318359375</LatitudeDegrees>
              <LongitudeDegrees>-5.76796241104602813720703125</LongitudeDegrees>
            </Position>
            <AltitudeMeters>617.20001220703125</AltitudeMeters>
            <DistanceMeters>NAN</DistanceMeters>
          </Trackpoint>
          <Trackpoint>
            <Time>2019-10-05T14:02:28.000Z</Time>
            <Position>
              <LatitudeDegrees>41.757093966007232666015625</LatitudeDegrees>
              <LongitudeDegrees>-5.76798864640295505523681640625</LongitudeDegrees>
            </Position>
            <AltitudeMeters>617.5999755859375</AltitudeMeters>
            <DistanceMeters>NAN</DistanceMeters>
          </Trackpoint>
          <Trackpoint>
            <Time>2019-10-05T14:02:31.000Z</Time>
            <Position>
              <LatitudeDegrees>41.75692490302026271820068359375</LatitudeDegrees>
              <LongitudeDegrees>-5.7680695317685604095458984375</LongitudeDegrees>
            </Position>
            <AltitudeMeters>616.79998779296875</AltitudeMeters>
            <DistanceMeters>NAN</DistanceMeters>
          </Trackpoint>
          <Trackpoint>
            <Time>2019-10-05T14:02:39.000Z</Time>
            <Position>
              <LatitudeDegrees>41.75647898577153682708740234375</LatitudeDegrees>
              <LongitudeDegrees>-5.76830682344734668731689453125</LongitudeDegrees>
            </Position>
            <AltitudeMeters>617</AltitudeMeters>
            <DistanceMeters>NAN</DistanceMeters>
          </Trackpoint>
          <Trackpoint>
            <Time>2019-10-05T14:02:48.000Z</Time>
            <Position>
              <LatitudeDegrees>41.7559629119932651519775390625</LatitudeDegrees>
              <LongitudeDegrees>-5.76862617395818233489990234375</LongitudeDegrees>
            </Position>
            <AltitudeMeters>616</AltitudeMeters>
            <DistanceMeters>NAN</DistanceMeters>
          </Trackpoint>
          <Trackpoint>
            <Time>2019-10-05T14:02:49.000Z</Time>
            <Position>
              <LatitudeDegrees>41.75590264610946178436279296875</LatitudeDegrees>
              <LongitudeDegrees>-5.76866447925567626953125</LongitudeDegrees>
            </Position>
            <AltitudeMeters>616</AltitudeMeters>
            <DistanceMeters>NAN</DistanceMeters>
          </Trackpoint>
          <Trackpoint>
            <Time>2019-10-05T14:02:50.000Z</Time>
            <Position>
              <LatitudeDegrees>41.7558418773114681243896484375</LatitudeDegrees>
              <LongitudeDegrees>-5.7687038742005825042724609375</LongitudeDegrees>
            </Position>
            <AltitudeMeters>615.5999755859375</AltitudeMeters>
            <DistanceMeters>NAN</DistanceMeters>
          </Trackpoint>
          <Trackpoint>
            <Time>2019-10-05T14:02:55.000Z</Time>
            <Position>
              <LatitudeDegrees>41.7555315792560577392578125</LatitudeDegrees>
              <LongitudeDegrees>-5.76890730299055576324462890625</LongitudeDegrees>
            </Position>
            <AltitudeMeters>614.4000244140625</AltitudeMeters>
            <DistanceMeters>NAN</DistanceMeters>
          </Trackpoint>
          <Trackpoint>
            <Time>2019-10-05T14:02:57.000Z</Time>
            <Position>
              <LatitudeDegrees>41.75540677271783351898193359375</LatitudeDegrees>
              <LongitudeDegrees>-5.76899128966033458709716796875</LongitudeDegrees>
            </Position>
            <AltitudeMeters>613.20001220703125</AltitudeMeters>
            <DistanceMeters>NAN</DistanceMeters>
          </Trackpoint>
          <Trackpoint>
            <Time>2019-10-05T14:02:58.000Z</Time>
            <Position>
              <LatitudeDegrees>41.75534256733953952789306640625</LatitudeDegrees>
              <LongitudeDegrees>-5.769032947719097137451171875</LongitudeDegrees>
            </Position>
            <AltitudeMeters>612.5999755859375</AltitudeMeters>
            <DistanceMeters>NAN</DistanceMeters>
          </Trackpoint>
          <Trackpoint>
            <Time>2019-10-05T14:02:59.000Z</Time>
            <Position>
              <LatitudeDegrees>41.75527752377092838287353515625</LatitudeDegrees>
              <LongitudeDegrees>-5.76907443813979625701904296875</LongitudeDegrees>
            </Position>
            <AltitudeMeters>611.79998779296875</AltitudeMeters>
            <DistanceMeters>NAN</DistanceMeters>
          </Trackpoint>
          <Trackpoint>
            <Time>2019-10-05T14:03:02.000Z</Time>
            <Position>
              <LatitudeDegrees>41.75508071668446063995361328125</LatitudeDegrees>
              <LongitudeDegrees>-5.76919781975448131561279296875</LongitudeDegrees>
            </Position>
            <AltitudeMeters>610.5999755859375</AltitudeMeters>
            <DistanceMeters>NAN</DistanceMeters>
          </Trackpoint>
          <Trackpoint>
            <Time>2019-10-05T14:03:05.000Z</Time>
            <Position>
              <LatitudeDegrees>41.75485189072787761688232421875</LatitudeDegrees>
              <LongitudeDegrees>-5.7693388871848583221435546875</LongitudeDegrees>
            </Position>
            <AltitudeMeters>609.4000244140625</AltitudeMeters>
            <DistanceMeters>NAN</DistanceMeters>
          </Trackpoint>
          <Trackpoint>
            <Time>2019-10-05T14:03:08.000Z</Time>
            <Position>
              <LatitudeDegrees>41.75467369146645069122314453125</LatitudeDegrees>
              <LongitudeDegrees>-5.76943770982325077056884765625</LongitudeDegrees>
            </Position>
            <AltitudeMeters>609.4000244140625</AltitudeMeters>
            <DistanceMeters>NAN</DistanceMeters>
          </Trackpoint>
          <Trackpoint>
            <Time>2019-10-05T14:03:11.000Z</Time>
            <Position>
              <LatitudeDegrees>41.754463054239749908447265625</LatitudeDegrees>
              <LongitudeDegrees>-5.76953812502324581146240234375</LongitudeDegrees>
            </Position>
            <AltitudeMeters>609</AltitudeMeters>
            <DistanceMeters>NAN</DistanceMeters>
          </Trackpoint>
          <Trackpoint>
            <Time>2019-10-05T14:03:13.000Z</Time>
            <Position>
              <LatitudeDegrees>41.7543224059045314788818359375</LatitudeDegrees>
              <LongitudeDegrees>-5.76960551552474498748779296875</LongitudeDegrees>
            </Position>
            <AltitudeMeters>609</AltitudeMeters>
            <DistanceMeters>NAN</DistanceMeters>
          </Trackpoint>
          <Trackpoint>
            <Time>2019-10-05T14:03:15.000Z</Time>
            <Position>
              <LatitudeDegrees>41.75418251194059848785400390625</LatitudeDegrees>
              <LongitudeDegrees>-5.76967257075011730194091796875</LongitudeDegrees>
            </Position>
            <AltitudeMeters>608.79998779296875</AltitudeMeters>
            <DistanceMeters>NAN</DistanceMeters>
          </Trackpoint>
          <Trackpoint>
            <Time>2019-10-05T14:03:16.000Z</Time>
            <Position>
              <LatitudeDegrees>41.7541126906871795654296875</LatitudeDegrees>
              <LongitudeDegrees>-5.76970475725829601287841796875</LongitudeDegrees>
            </Position>
            <AltitudeMeters>608.79998779296875</AltitudeMeters>
            <DistanceMeters>NAN</DistanceMeters>
          </Trackpoint>
          <Trackpoint>
            <Time>2019-10-05T14:03:23.000Z</Time>
            <Position>
              <LatitudeDegrees>41.75365646369755268096923828125</LatitudeDegrees>
              <LongitudeDegrees>-5.7699236087501049041748046875</LongitudeDegrees>
            </Position>
            <AltitudeMeters>608.79998779296875</AltitudeMeters>
            <DistanceMeters>NAN</DistanceMeters>
          </Trackpoint>
          <Trackpoint>
            <Time>2019-10-05T14:03:25.000Z</Time>
            <Position>
              <LatitudeDegrees>41.75353928469121456146240234375</LatitudeDegrees>
              <LongitudeDegrees>-5.7699779234826564788818359375</LongitudeDegrees>
            </Position>
            <AltitudeMeters>609.4000244140625</AltitudeMeters>
            <DistanceMeters>NAN</DistanceMeters>
          </Trackpoint>
          <Trackpoint>
            <Time>2019-10-05T14:03:29.000Z</Time>
            <Position>
              <LatitudeDegrees>41.75330735743045806884765625</LatitudeDegrees>
              <LongitudeDegrees>-5.770078338682651519775390625</LongitudeDegrees>
            </Position>
            <AltitudeMeters>610.4000244140625</AltitudeMeters>
            <DistanceMeters>NAN</DistanceMeters>
          </Trackpoint>
          <Trackpoint>
            <Time>2019-10-05T14:03:35.000Z</Time>
            <Position>
              <LatitudeDegrees>41.7529826425015926361083984375</LatitudeDegrees>
              <LongitudeDegrees>-5.77021437697112560272216796875</LongitudeDegrees>
            </Position>
            <AltitudeMeters>610.20001220703125</AltitudeMeters>
            <DistanceMeters>NAN</DistanceMeters>
          </Trackpoint>
          <Trackpoint>
            <Time>2019-10-05T14:03:40.000Z</Time>
            <Position>
              <LatitudeDegrees>41.75272741355001926422119140625</LatitudeDegrees>
              <LongitudeDegrees>-5.77033323235809803009033203125</LongitudeDegrees>
            </Position>
            <AltitudeMeters>610.5999755859375</AltitudeMeters>
            <DistanceMeters>NAN</DistanceMeters>
          </Trackpoint>
          <Trackpoint>
            <Time>2019-10-05T14:03:43.000Z</Time>
            <Position>
              <LatitudeDegrees>41.75257938914000988006591796875</LatitudeDegrees>
              <LongitudeDegrees>-5.7703986950218677520751953125</LongitudeDegrees>
            </Position>
            <AltitudeMeters>611.4000244140625</AltitudeMeters>
            <DistanceMeters>NAN</DistanceMeters>
          </Trackpoint>
          <Trackpoint>
            <Time>2019-10-05T14:03:46.000Z</Time>
            <Position>
              <LatitudeDegrees>41.752432622015476226806640625</LatitudeDegrees>
              <LongitudeDegrees>-5.77046625316143035888671875</LongitudeDegrees>
            </Position>
            <AltitudeMeters>611.4000244140625</AltitudeMeters>
            <DistanceMeters>NAN</DistanceMeters>
          </Trackpoint>
          <Trackpoint>
            <Time>2019-10-05T14:03:49.000Z</Time>
            <Position>
              <LatitudeDegrees>41.75228887237608432769775390625</LatitudeDegrees>
              <LongitudeDegrees>-5.77052517794072628021240234375</LongitudeDegrees>
            </Position>
            <AltitudeMeters>611.5999755859375</AltitudeMeters>
            <DistanceMeters>NAN</DistanceMeters>
          </Trackpoint>
          <Trackpoint>
            <Time>2019-10-05T14:03:51.000Z</Time>
            <Position>
              <LatitudeDegrees>41.75220136530697345733642578125</LatitudeDegrees>
              <LongitudeDegrees>-5.77056960202753543853759765625</LongitudeDegrees>
            </Position>
            <AltitudeMeters>611.5999755859375</AltitudeMeters>
            <DistanceMeters>NAN</DistanceMeters>
          </Trackpoint>
          <Trackpoint>
            <Time>2019-10-05T14:03:54.000Z</Time>
            <Position>
              <LatitudeDegrees>41.752075217664241790771484375</LatitudeDegrees>
              <LongitudeDegrees>-5.770625174045562744140625</LongitudeDegrees>
            </Position>
            <AltitudeMeters>612.4000244140625</AltitudeMeters>
            <DistanceMeters>NAN</DistanceMeters>
          </Trackpoint>
          <Trackpoint>
            <Time>2019-10-05T14:03:57.000Z</Time>
            <Position>
              <LatitudeDegrees>41.75195141695439815521240234375</LatitudeDegrees>
              <LongitudeDegrees>-5.77066800557076930999755859375</LongitudeDegrees>
            </Position>
            <AltitudeMeters>612.79998779296875</AltitudeMeters>
            <DistanceMeters>NAN</DistanceMeters>
          </Trackpoint>
          <Trackpoint>
            <Time>2019-10-05T14:03:59.000Z</Time>
            <Position>
              <LatitudeDegrees>41.75187162123620510101318359375</LatitudeDegrees>
              <LongitudeDegrees>-5.77070496976375579833984375</LongitudeDegrees>
            </Position>
            <AltitudeMeters>612.79998779296875</AltitudeMeters>
            <DistanceMeters>NAN</DistanceMeters>
          </Trackpoint>
          <Trackpoint>
            <Time>2019-10-05T14:04:01.000Z</Time>
            <Position>
              <LatitudeDegrees>41.7517947591841220855712890625</LatitudeDegrees>
              <LongitudeDegrees>-5.770746879279613494873046875</LongitudeDegrees>
            </Position>
            <AltitudeMeters>613.5999755859375</AltitudeMeters>
            <DistanceMeters>NAN</DistanceMeters>
          </Trackpoint>
          <Trackpoint>
            <Time>2019-10-05T14:04:08.000Z</Time>
            <Position>
              <LatitudeDegrees>41.75152109004557132720947265625</LatitudeDegrees>
              <LongitudeDegrees>-5.770866572856903076171875</LongitudeDegrees>
            </Position>
            <AltitudeMeters>614.79998779296875</AltitudeMeters>
            <DistanceMeters>NAN</DistanceMeters>
          </Trackpoint>
          <Trackpoint>
            <Time>2019-10-05T14:04:09.000Z</Time>
            <Position>
              <LatitudeDegrees>41.75148337148129940032958984375</LatitudeDegrees>
              <LongitudeDegrees>-5.770883671939373016357421875</LongitudeDegrees>
            </Position>
            <AltitudeMeters>614.79998779296875</AltitudeMeters>
            <DistanceMeters>NAN</DistanceMeters>
          </Trackpoint>
          <Trackpoint>
            <Time>2019-10-05T14:04:11.000Z</Time>
            <Position>
              <LatitudeDegrees>41.751406677067279815673828125</LatitudeDegrees>
              <LongitudeDegrees>-5.77091694809496402740478515625</LongitudeDegrees>
            </Position>
            <AltitudeMeters>615</AltitudeMeters>
            <DistanceMeters>NAN</DistanceMeters>
          </Trackpoint>
          <Trackpoint>
            <Time>2019-10-05T14:04:13.000Z</Time>
            <Position>
              <LatitudeDegrees>41.75132880918681621551513671875</LatitudeDegrees>
              <LongitudeDegrees>-5.770947039127349853515625</LongitudeDegrees>
            </Position>
            <AltitudeMeters>615.4000244140625</AltitudeMeters>
            <DistanceMeters>NAN</DistanceMeters>
          </Trackpoint>
          <Trackpoint>
            <Time>2019-10-05T14:04:16.000Z</Time>
            <Position>
              <LatitudeDegrees>41.751212216913700103759765625</LatitudeDegrees>
              <LongitudeDegrees>-5.7710065506398677825927734375</LongitudeDegrees>
            </Position>
            <AltitudeMeters>615.5999755859375</AltitudeMeters>
            <DistanceMeters>NAN</DistanceMeters>
          </Trackpoint>
          <Trackpoint>
            <Time>2019-10-05T14:04:20.000Z</Time>
            <Position>
              <LatitudeDegrees>41.7510561458766460418701171875</LatitudeDegrees>
              <LongitudeDegrees>-5.771072767674922943115234375</LongitudeDegrees>
            </Position>
            <AltitudeMeters>615.79998779296875</AltitudeMeters>
            <DistanceMeters>NAN</DistanceMeters>
          </Trackpoint>
          <Trackpoint>
            <Time>2019-10-05T14:04:26.000Z</Time>
            <Position>
              <LatitudeDegrees>41.75081885419785976409912109375</LatitudeDegrees>
              <LongitudeDegrees>-5.77117242850363254547119140625</LongitudeDegrees>
            </Position>
            <AltitudeMeters>616.4000244140625</AltitudeMeters>
            <DistanceMeters>NAN</DistanceMeters>
          </Trackpoint>
          <Trackpoint>
            <Time>2019-10-05T14:04:32.000Z</Time>
            <Position>
              <LatitudeDegrees>41.7505689896643161773681640625</LatitudeDegrees>
              <LongitudeDegrees>-5.771281979978084564208984375</LongitudeDegrees>
            </Position>
            <AltitudeMeters>617</AltitudeMeters>
            <DistanceMeters>NAN</DistanceMeters>
          </Trackpoint>
          <Trackpoint>
            <Time>2019-10-05T14:04:38.000Z</Time>
            <Position>
              <LatitudeDegrees>41.75031141377985477447509765625</LatitudeDegrees>
              <LongitudeDegrees>-5.77139823697507381439208984375</LongitudeDegrees>
            </Position>
            <AltitudeMeters>617</AltitudeMeters>
            <DistanceMeters>NAN</DistanceMeters>
          </Trackpoint>
          <Trackpoint>
            <Time>2019-10-05T14:04:48.000Z</Time>
            <Position>
              <LatitudeDegrees>41.7498595453798770904541015625</LatitudeDegrees>
              <LongitudeDegrees>-5.771593116223812103271484375</LongitudeDegrees>
            </Position>
            <AltitudeMeters>616.5999755859375</AltitudeMeters>
            <DistanceMeters>NAN</DistanceMeters>
          </Trackpoint>
          <Trackpoint>
            <Time>2019-10-05T14:04:55.000Z</Time>
            <Position>
              <LatitudeDegrees>41.7495403625071048736572265625</LatitudeDegrees>
              <LongitudeDegrees>-5.7717411406338214874267578125</LongitudeDegrees>
            </Position>
            <AltitudeMeters>617</AltitudeMeters>
            <DistanceMeters>NAN</DistanceMeters>
          </Trackpoint>
          <Trackpoint>
            <Time>2019-10-05T14:04:59.000Z</Time>
            <Position>
              <LatitudeDegrees>41.74935671500861644744873046875</LatitudeDegrees>
              <LongitudeDegrees>-5.77181808650493621826171875</LongitudeDegrees>
            </Position>
            <AltitudeMeters>616.79998779296875</AltitudeMeters>
            <DistanceMeters>NAN</DistanceMeters>
          </Trackpoint>
          <Trackpoint>
            <Time>2019-10-05T14:05:10.000Z</Time>
            <Position>
              <LatitudeDegrees>41.74885866232216358184814453125</LatitudeDegrees>
              <LongitudeDegrees>-5.7720432244241237640380859375</LongitudeDegrees>
            </Position>
            <AltitudeMeters>617</AltitudeMeters>
            <DistanceMeters>NAN</DistanceMeters>
          </Trackpoint>
          <Trackpoint>
            <Time>2019-10-05T14:05:20.000Z</Time>
            <Position>
              <LatitudeDegrees>41.7484128288924694061279296875</LatitudeDegrees>
              <LongitudeDegrees>-5.77225402928888797760009765625</LongitudeDegrees>
            </Position>
            <AltitudeMeters>617.4000244140625</AltitudeMeters>
            <DistanceMeters>NAN</DistanceMeters>
          </Trackpoint>
          <Trackpoint>
            <Time>2019-10-05T14:05:22.000Z</Time>
            <Position>
              <LatitudeDegrees>41.7483253218233585357666015625</LatitudeDegrees>
              <LongitudeDegrees>-5.77229225076735019683837890625</LongitudeDegrees>
            </Position>
            <AltitudeMeters>618</AltitudeMeters>
            <DistanceMeters>NAN</DistanceMeters>
          </Trackpoint>
          <Trackpoint>
            <Time>2019-10-05T14:05:30.000Z</Time>
            <Position>
              <LatitudeDegrees>41.7479677498340606689453125</LatitudeDegrees>
              <LongitudeDegrees>-5.7724504172801971435546875</LongitudeDegrees>
            </Position>
            <AltitudeMeters>617.79998779296875</AltitudeMeters>
            <DistanceMeters>NAN</DistanceMeters>
          </Trackpoint>
          <Trackpoint>
            <Time>2019-10-05T14:05:40.000Z</Time>
            <Position>
              <LatitudeDegrees>41.747513450682163238525390625</LatitudeDegrees>
              <LongitudeDegrees>-5.77265334315598011016845703125</LongitudeDegrees>
            </Position>
            <AltitudeMeters>618.4000244140625</AltitudeMeters>
            <DistanceMeters>NAN</DistanceMeters>
          </Trackpoint>
          <Trackpoint>
            <Time>2019-10-05T14:05:52.000Z</Time>
            <Position>
              <LatitudeDegrees>41.7469711415469646453857421875</LatitudeDegrees>
              <LongitudeDegrees>-5.77289993874728679656982421875</LongitudeDegrees>
            </Position>
            <AltitudeMeters>619</AltitudeMeters>
            <DistanceMeters>NAN</DistanceMeters>
          </Trackpoint>
          <Trackpoint>
            <Time>2019-10-05T14:05:55.000Z</Time>
            <Position>
              <LatitudeDegrees>41.7468358576297760009765625</LatitudeDegrees>
              <LongitudeDegrees>-5.77295945025980472564697265625</LongitudeDegrees>
            </Position>
            <AltitudeMeters>619</AltitudeMeters>
            <DistanceMeters>NAN</DistanceMeters>
          </Trackpoint>
          <Trackpoint>
            <Time>2019-10-05T14:06:05.000Z</Time>
            <Position>
              <LatitudeDegrees>41.74637921154499053955078125</LatitudeDegrees>
              <LongitudeDegrees>-5.7731647230684757232666015625</LongitudeDegrees>
            </Position>
            <AltitudeMeters>618.20001220703125</AltitudeMeters>
            <DistanceMeters>NAN</DistanceMeters>
          </Trackpoint>
          <Trackpoint>
            <Time>2019-10-05T14:06:09.000Z</Time>
            <Position>
              <LatitudeDegrees>41.746197827160358428955078125</LatitudeDegrees>
              <LongitudeDegrees>-5.7732443511486053466796875</LongitudeDegrees>
            </Position>
            <AltitudeMeters>618.5999755859375</AltitudeMeters>
            <DistanceMeters>NAN</DistanceMeters>
          </Trackpoint>
          <Trackpoint>
            <Time>2019-10-05T14:06:17.000Z</Time>
            <Position>
              <LatitudeDegrees>41.74582709558308124542236328125</LatitudeDegrees>
              <LongitudeDegrees>-5.7734181918203830718994140625</LongitudeDegrees>
            </Position>
            <AltitudeMeters>618.5999755859375</AltitudeMeters>
            <DistanceMeters>NAN</DistanceMeters>
          </Trackpoint>
          <Trackpoint>
            <Time>2019-10-05T14:06:28.000Z</Time>
            <Position>
              <LatitudeDegrees>41.7453075014054775238037109375</LatitudeDegrees>
              <LongitudeDegrees>-5.77365598641335964202880859375</LongitudeDegrees>
            </Position>
            <AltitudeMeters>618.4000244140625</AltitudeMeters>
            <DistanceMeters>NAN</DistanceMeters>
          </Trackpoint>
          <Trackpoint>
            <Time>2019-10-05T14:06:30.000Z</Time>
            <Position>
              <LatitudeDegrees>41.74521471373736858367919921875</LatitudeDegrees>
              <LongitudeDegrees>-5.7736976444721221923828125</LongitudeDegrees>
            </Position>
            <AltitudeMeters>618.4000244140625</AltitudeMeters>
            <DistanceMeters>NAN</DistanceMeters>
          </Trackpoint>
          <Trackpoint>
            <Time>2019-10-05T14:06:34.000Z</Time>
            <Position>
              <LatitudeDegrees>41.74502830021083354949951171875</LatitudeDegrees>
              <LongitudeDegrees>-5.77378238551318645477294921875</LongitudeDegrees>
            </Position>
            <AltitudeMeters>617.79998779296875</AltitudeMeters>
            <DistanceMeters>NAN</DistanceMeters>
          </Trackpoint>
          <Trackpoint>
            <Time>2019-10-05T14:06:39.000Z</Time>
            <Position>
              <LatitudeDegrees>41.7447960376739501953125</LatitudeDegrees>
              <LongitudeDegrees>-5.7738882489502429962158203125</LongitudeDegrees>
            </Position>
            <AltitudeMeters>617.79998779296875</AltitudeMeters>
            <DistanceMeters>NAN</DistanceMeters>
          </Trackpoint>
          <Trackpoint>
            <Time>2019-10-05T14:06:49.000Z</Time>
            <Position>
              <LatitudeDegrees>41.744337715208530426025390625</LatitudeDegrees>
              <LongitudeDegrees>-5.7740964554250240325927734375</LongitudeDegrees>
            </Position>
            <AltitudeMeters>617.79998779296875</AltitudeMeters>
            <DistanceMeters>NAN</DistanceMeters>
          </Trackpoint>
          <Trackpoint>
            <Time>2019-10-05T14:06:58.000Z</Time>
            <Position>
              <LatitudeDegrees>41.743935048580169677734375</LatitudeDegrees>
              <LongitudeDegrees>-5.77427909709513187408447265625</LongitudeDegrees>
            </Position>
            <AltitudeMeters>618.20001220703125</AltitudeMeters>
            <DistanceMeters>NAN</DistanceMeters>
          </Trackpoint>
          <Trackpoint>
            <Time>2019-10-05T14:07:09.000Z</Time>
            <Position>
              <LatitudeDegrees>41.74341025762259960174560546875</LatitudeDegrees>
              <LongitudeDegrees>-5.77451026998460292816162109375</LongitudeDegrees>
            </Position>
            <AltitudeMeters>617.79998779296875</AltitudeMeters>
            <DistanceMeters>NAN</DistanceMeters>
          </Trackpoint>
          <Trackpoint>
            <Time>2019-10-05T14:07:18.000Z</Time>
            <Position>
              <LatitudeDegrees>41.7430058307945728302001953125</LatitudeDegrees>
              <LongitudeDegrees>-5.77468712814152240753173828125</LongitudeDegrees>
            </Position>
            <AltitudeMeters>617.5999755859375</AltitudeMeters>
            <DistanceMeters>NAN</DistanceMeters>
          </Trackpoint>
          <Trackpoint>
            <Time>2019-10-05T14:07:25.000Z</Time>
            <Position>
              <LatitudeDegrees>41.742686815559864044189453125</LatitudeDegrees>
              <LongitudeDegrees>-5.774837248027324676513671875</LongitudeDegrees>
            </Position>
            <AltitudeMeters>618</AltitudeMeters>
            <DistanceMeters>NAN</DistanceMeters>
          </Trackpoint>
          <Trackpoint>
            <Time>2019-10-05T14:07:35.000Z</Time>
            <Position>
              <LatitudeDegrees>41.742222793400287628173828125</LatitudeDegrees>
              <LongitudeDegrees>-5.7750415988266468048095703125</LongitudeDegrees>
            </Position>
            <AltitudeMeters>618</AltitudeMeters>
            <DistanceMeters>NAN</DistanceMeters>
          </Trackpoint>
          <Trackpoint>
            <Time>2019-10-05T14:07:45.000Z</Time>
            <Position>
              <LatitudeDegrees>41.7417611181735992431640625</LatitudeDegrees>
              <LongitudeDegrees>-5.77525609172880649566650390625</LongitudeDegrees>
            </Position>
            <AltitudeMeters>617.79998779296875</AltitudeMeters>
            <DistanceMeters>NAN</DistanceMeters>
          </Trackpoint>
          <Trackpoint>
            <Time>2019-10-05T14:07:55.000Z</Time>
            <Position>
              <LatitudeDegrees>41.74130723811686038970947265625</LatitudeDegrees>
              <LongitudeDegrees>-5.77546144835650920867919921875</LongitudeDegrees>
            </Position>
            <AltitudeMeters>618</AltitudeMeters>
            <DistanceMeters>NAN</DistanceMeters>
          </Trackpoint>
          <Trackpoint>
            <Time>2019-10-05T14:08:06.000Z</Time>
            <Position>
              <LatitudeDegrees>41.740803904831409454345703125</LatitudeDegrees>
              <LongitudeDegrees>-5.7756843231618404388427734375</LongitudeDegrees>
            </Position>
            <AltitudeMeters>618.4000244140625</AltitudeMeters>
            <DistanceMeters>NAN</DistanceMeters>
          </Trackpoint>
          <Trackpoint>
            <Time>2019-10-05T14:08:14.000Z</Time>
            <Position>
              <LatitudeDegrees>41.740437112748622894287109375</LatitudeDegrees>
              <LongitudeDegrees>-5.7758487761020660400390625</LongitudeDegrees>
            </Position>
            <AltitudeMeters>618.79998779296875</AltitudeMeters>
            <DistanceMeters>NAN</DistanceMeters>
          </Trackpoint>
          <Trackpoint>
            <Time>2019-10-05T14:08:25.000Z</Time>
            <Position>
              <LatitudeDegrees>41.7399219609797000885009765625</LatitudeDegrees>
              <LongitudeDegrees>-5.77608271501958370208740234375</LongitudeDegrees>
            </Position>
            <AltitudeMeters>618.4000244140625</AltitudeMeters>
            <DistanceMeters>NAN</DistanceMeters>
          </Trackpoint>
          <Trackpoint>
            <Time>2019-10-05T14:08:26.000Z</Time>
            <Position>
              <LatitudeDegrees>41.7398755252361297607421875</LatitudeDegrees>
              <LongitudeDegrees>-5.77610299922525882720947265625</LongitudeDegrees>
            </Position>
            <AltitudeMeters>618.4000244140625</AltitudeMeters>
            <DistanceMeters>NAN</DistanceMeters>
          </Trackpoint>
          <Trackpoint>
            <Time>2019-10-05T14:08:36.000Z</Time>
            <Position>
              <LatitudeDegrees>41.73940840177237987518310546875</LatitudeDegrees>
              <LongitudeDegrees>-5.77630835585296154022216796875</LongitudeDegrees>
            </Position>
            <AltitudeMeters>618.5999755859375</AltitudeMeters>
            <DistanceMeters>NAN</DistanceMeters>
          </Trackpoint>
          <Trackpoint>
            <Time>2019-10-05T14:08:47.000Z</Time>
            <Position>
              <LatitudeDegrees>41.7388906516134738922119140625</LatitudeDegrees>
              <LongitudeDegrees>-5.77654254622757434844970703125</LongitudeDegrees>
            </Position>
            <AltitudeMeters>618.5999755859375</AltitudeMeters>
            <DistanceMeters>NAN</DistanceMeters>
          </Trackpoint>
          <Trackpoint>
            <Time>2019-10-05T14:08:48.000Z</Time>
            <Position>
              <LatitudeDegrees>41.738845221698284149169921875</LatitudeDegrees>
              <LongitudeDegrees>-5.7765640877187252044677734375</LongitudeDegrees>
            </Position>
            <AltitudeMeters>618.5999755859375</AltitudeMeters>
            <DistanceMeters>NAN</DistanceMeters>
          </Trackpoint>
          <Trackpoint>
            <Time>2019-10-05T14:08:57.000Z</Time>
            <Position>
              <LatitudeDegrees>41.7384286411106586456298828125</LatitudeDegrees>
              <LongitudeDegrees>-5.77674756757915019989013671875</LongitudeDegrees>
            </Position>
            <AltitudeMeters>618.4000244140625</AltitudeMeters>
            <DistanceMeters>NAN</DistanceMeters>
          </Trackpoint>
          <Trackpoint>
            <Time>2019-10-05T14:09:08.000Z</Time>
            <Position>
              <LatitudeDegrees>41.737921871244907379150390625</LatitudeDegrees>
              <LongitudeDegrees>-5.776978991925716400146484375</LongitudeDegrees>
            </Position>
            <AltitudeMeters>618</AltitudeMeters>
            <DistanceMeters>NAN</DistanceMeters>
          </Trackpoint>
          <Trackpoint>
            <Time>2019-10-05T14:09:17.000Z</Time>
            <Position>
              <LatitudeDegrees>41.73749766312539577484130859375</LatitudeDegrees>
              <LongitudeDegrees>-5.7771739549934864044189453125</LongitudeDegrees>
            </Position>
            <AltitudeMeters>617.4000244140625</AltitudeMeters>
            <DistanceMeters>NAN</DistanceMeters>
          </Trackpoint>
          <Trackpoint>
            <Time>2019-10-05T14:09:24.000Z</Time>
            <Position>
              <LatitudeDegrees>41.7371582798659801483154296875</LatitudeDegrees>
              <LongitudeDegrees>-5.77732558362185955047607421875</LongitudeDegrees>
            </Position>
            <AltitudeMeters>618.4000244140625</AltitudeMeters>
            <DistanceMeters>NAN</DistanceMeters>
          </Trackpoint>
          <Trackpoint>
            <Time>2019-10-05T14:09:35.000Z</Time>
            <Position>
              <LatitudeDegrees>41.73662393353879451751708984375</LatitudeDegrees>
              <LongitudeDegrees>-5.77756446786224842071533203125</LongitudeDegrees>
            </Position>
            <AltitudeMeters>618</AltitudeMeters>
            <DistanceMeters>NAN</DistanceMeters>
          </Trackpoint>
          <Trackpoint>
            <Time>2019-10-05T14:09:44.000Z</Time>
            <Position>
              <LatitudeDegrees>41.736224032938480377197265625</LatitudeDegrees>
              <LongitudeDegrees>-5.77773730270564556121826171875</LongitudeDegrees>
            </Position>
            <AltitudeMeters>618.79998779296875</AltitudeMeters>
            <DistanceMeters>NAN</DistanceMeters>
          </Trackpoint>
          <Trackpoint>
            <Time>2019-10-05T14:09:47.000Z</Time>
            <Position>
              <LatitudeDegrees>41.736095286905765533447265625</LatitudeDegrees>
              <LongitudeDegrees>-5.77779564075171947479248046875</LongitudeDegrees>
            </Position>
            <AltitudeMeters>619</AltitudeMeters>
            <DistanceMeters>NAN</DistanceMeters>
          </Trackpoint>
          <Trackpoint>
            <Time>2019-10-05T14:09:54.000Z</Time>
            <Position>
              <LatitudeDegrees>41.7358253896236419677734375</LatitudeDegrees>
              <LongitudeDegrees>-5.777917094528675079345703125</LongitudeDegrees>
            </Position>
            <AltitudeMeters>620</AltitudeMeters>
            <DistanceMeters>NAN</DistanceMeters>
          </Trackpoint>
          <Trackpoint>
            <Time>2019-10-05T14:09:55.000Z</Time>
            <Position>
              <LatitudeDegrees>41.7357886768877506256103515625</LatitudeDegrees>
              <LongitudeDegrees>-5.77793494798243045806884765625</LongitudeDegrees>
            </Position>
            <AltitudeMeters>620.4000244140625</AltitudeMeters>
            <DistanceMeters>NAN</DistanceMeters>
          </Trackpoint>
          <Trackpoint>
            <Time>2019-10-05T14:10:05.000Z</Time>
            <Position>
              <LatitudeDegrees>41.7354202084243297576904296875</LatitudeDegrees>
              <LongitudeDegrees>-5.7781003229320049285888671875</LongitudeDegrees>
            </Position>
            <AltitudeMeters>620.5999755859375</AltitudeMeters>
            <DistanceMeters>NAN</DistanceMeters>
          </Trackpoint>
          <Trackpoint>
            <Time>2019-10-05T14:10:08.000Z</Time>
            <Position>
              <LatitudeDegrees>41.7353092320263385772705078125</LatitudeDegrees>
              <LongitudeDegrees>-5.7781462557613849639892578125</LongitudeDegrees>
            </Position>
            <AltitudeMeters>621.79998779296875</AltitudeMeters>
            <DistanceMeters>NAN</DistanceMeters>
          </Trackpoint>
          <Trackpoint>
            <Time>2019-10-05T14:10:15.000Z</Time>
            <Position>
              <LatitudeDegrees>41.73505760729312896728515625</LatitudeDegrees>
              <LongitudeDegrees>-5.77826251275837421417236328125</LongitudeDegrees>
            </Position>
            <AltitudeMeters>622.4000244140625</AltitudeMeters>
            <DistanceMeters>NAN</DistanceMeters>
          </Trackpoint>
          <Trackpoint>
            <Time>2019-10-05T14:10:19.000Z</Time>
            <Position>
              <LatitudeDegrees>41.73491653986275196075439453125</LatitudeDegrees>
              <LongitudeDegrees>-5.77833040617406368255615234375</LongitudeDegrees>
            </Position>
            <AltitudeMeters>622.79998779296875</AltitudeMeters>
            <DistanceMeters>NAN</DistanceMeters>
          </Trackpoint>
          <Trackpoint>
            <Time>2019-10-05T14:10:25.000Z</Time>
            <Position>
              <LatitudeDegrees>41.7347095906734466552734375</LatitudeDegrees>
              <LongitudeDegrees>-5.77843685634434223175048828125</LongitudeDegrees>
            </Position>
            <AltitudeMeters>623.79998779296875</AltitudeMeters>
            <DistanceMeters>NAN</DistanceMeters>
          </Trackpoint>
          <Trackpoint>
            <Time>2019-10-05T14:10:28.000Z</Time>
            <Position>
              <LatitudeDegrees>41.7346135340631008148193359375</LatitudeDegrees>
              <LongitudeDegrees>-5.77848765067756175994873046875</LongitudeDegrees>
            </Position>
            <AltitudeMeters>623.79998779296875</AltitudeMeters>
            <DistanceMeters>NAN</DistanceMeters>
          </Trackpoint>
          <Trackpoint>
            <Time>2019-10-05T14:10:32.000Z</Time>
            <Position>
              <LatitudeDegrees>41.73448705114424228668212890625</LatitudeDegrees>
              <LongitudeDegrees>-5.77855755575001239776611328125</LongitudeDegrees>
            </Position>
            <AltitudeMeters>624.4000244140625</AltitudeMeters>
            <DistanceMeters>NAN</DistanceMeters>
          </Trackpoint>
          <Trackpoint>
            <Time>2019-10-05T14:10:36.000Z</Time>
            <Position>
              <LatitudeDegrees>41.73437003977596759796142578125</LatitudeDegrees>
              <LongitudeDegrees>-5.77863416634500026702880859375</LongitudeDegrees>
            </Position>
            <AltitudeMeters>625</AltitudeMeters>
            <DistanceMeters>NAN</DistanceMeters>
          </Trackpoint>
          <Trackpoint>
            <Time>2019-10-05T14:10:39.000Z</Time>
            <Position>
              <LatitudeDegrees>41.7342839576303958892822265625</LatitudeDegrees>
              <LongitudeDegrees>-5.77869233675301074981689453125</LongitudeDegrees>
            </Position>
            <AltitudeMeters>625.79998779296875</AltitudeMeters>
            <DistanceMeters>NAN</DistanceMeters>
          </Trackpoint>
          <Trackpoint>
            <Time>2019-10-05T14:10:41.000Z</Time>
            <Position>
              <LatitudeDegrees>41.73422838561236858367919921875</LatitudeDegrees>
              <LongitudeDegrees>-5.7787336595356464385986328125</LongitudeDegrees>
            </Position>
            <AltitudeMeters>626.20001220703125</AltitudeMeters>
            <DistanceMeters>NAN</DistanceMeters>
          </Trackpoint>
          <Trackpoint>
            <Time>2019-10-05T14:10:45.000Z</Time>
            <Position>
              <LatitudeDegrees>41.7341109551489353179931640625</LatitudeDegrees>
              <LongitudeDegrees>-5.77880850993096828460693359375</LongitudeDegrees>
            </Position>
            <AltitudeMeters>627.4000244140625</AltitudeMeters>
            <DistanceMeters>NAN</DistanceMeters>
          </Trackpoint>
          <Trackpoint>
            <Time>2019-10-05T14:10:47.000Z</Time>
            <Position>
              <LatitudeDegrees>41.73404934816062450408935546875</LatitudeDegrees>
              <LongitudeDegrees>-5.77884337864816188812255859375</LongitudeDegrees>
            </Position>
            <AltitudeMeters>627.79998779296875</AltitudeMeters>
            <DistanceMeters>NAN</DistanceMeters>
          </Trackpoint>
          <Trackpoint>
            <Time>2019-10-05T14:10:52.000Z</Time>
            <Position>
              <LatitudeDegrees>41.733905933797359466552734375</LatitudeDegrees>
              <LongitudeDegrees>-5.77893960289657115936279296875</LongitudeDegrees>
            </Position>
            <AltitudeMeters>628.4000244140625</AltitudeMeters>
            <DistanceMeters>NAN</DistanceMeters>
          </Trackpoint>
          <Trackpoint>
            <Time>2019-10-05T14:10:55.000Z</Time>
            <Position>
              <LatitudeDegrees>41.73381767235696315765380859375</LatitudeDegrees>
              <LongitudeDegrees>-5.77899995259940624237060546875</LongitudeDegrees>
            </Position>
            <AltitudeMeters>628.79998779296875</AltitudeMeters>
            <DistanceMeters>NAN</DistanceMeters>
          </Trackpoint>
          <Trackpoint>
            <Time>2019-10-05T14:10:58.000Z</Time>
            <Position>
              <LatitudeDegrees>41.7337213642895221710205078125</LatitudeDegrees>
              <LongitudeDegrees>-5.779058374464511871337890625</LongitudeDegrees>
            </Position>
            <AltitudeMeters>629.5999755859375</AltitudeMeters>
            <DistanceMeters>NAN</DistanceMeters>
          </Trackpoint>
          <Trackpoint>
            <Time>2019-10-05T14:11:03.000Z</Time>
            <Position>
              <LatitudeDegrees>41.73356629908084869384765625</LatitudeDegrees>
              <LongitudeDegrees>-5.77915535308420658111572265625</LongitudeDegrees>
            </Position>
            <AltitudeMeters>630.4000244140625</AltitudeMeters>
            <DistanceMeters>NAN</DistanceMeters>
          </Trackpoint>
          <Trackpoint>
            <Time>2019-10-05T14:11:06.000Z</Time>
            <Position>
              <LatitudeDegrees>41.733475439250469207763671875</LatitudeDegrees>
              <LongitudeDegrees>-5.77921955846250057220458984375</LongitudeDegrees>
            </Position>
            <AltitudeMeters>630.79998779296875</AltitudeMeters>
            <DistanceMeters>NAN</DistanceMeters>
          </Trackpoint>
          <Trackpoint>
            <Time>2019-10-05T14:11:10.000Z</Time>
            <Position>
              <LatitudeDegrees>41.73335172235965728759765625</LatitudeDegrees>
              <LongitudeDegrees>-5.77929264865815639495849609375</LongitudeDegrees>
            </Position>
            <AltitudeMeters>631.79998779296875</AltitudeMeters>
            <DistanceMeters>NAN</DistanceMeters>
          </Trackpoint>
          <Trackpoint>
            <Time>2019-10-05T14:11:19.000Z</Time>
            <Position>
              <LatitudeDegrees>41.7330715991556644439697265625</LatitudeDegrees>
              <LongitudeDegrees>-5.77946950681507587432861328125</LongitudeDegrees>
            </Position>
            <AltitudeMeters>632.4000244140625</AltitudeMeters>
            <DistanceMeters>NAN</DistanceMeters>
          </Trackpoint>
          <Trackpoint>
            <Time>2019-10-05T14:11:23.000Z</Time>
            <Position>
              <LatitudeDegrees>41.73295014537870883941650390625</LatitudeDegrees>
              <LongitudeDegrees>-5.77954687178134918212890625</LongitudeDegrees>
            </Position>
            <AltitudeMeters>632.79998779296875</AltitudeMeters>
            <DistanceMeters>NAN</DistanceMeters>
          </Trackpoint>
          <Trackpoint>
            <Time>2019-10-05T14:11:28.000Z</Time>
            <Position>
              <LatitudeDegrees>41.7328000254929065704345703125</LatitudeDegrees>
              <LongitudeDegrees>-5.77963831834495067596435546875</LongitudeDegrees>
            </Position>
            <AltitudeMeters>633.4000244140625</AltitudeMeters>
            <DistanceMeters>NAN</DistanceMeters>
          </Trackpoint>
          <Trackpoint>
            <Time>2019-10-05T14:11:30.000Z</Time>
            <Position>
              <LatitudeDegrees>41.73274110071361064910888671875</LatitudeDegrees>
              <LongitudeDegrees>-5.77967905439436435699462890625</LongitudeDegrees>
            </Position>
            <AltitudeMeters>633.79998779296875</AltitudeMeters>
            <DistanceMeters>NAN</DistanceMeters>
          </Trackpoint>
          <Trackpoint>
            <Time>2019-10-05T14:11:38.000Z</Time>
            <Position>
              <LatitudeDegrees>41.7324898950755596160888671875</LatitudeDegrees>
              <LongitudeDegrees>-5.77983747236430644989013671875</LongitudeDegrees>
            </Position>
            <AltitudeMeters>634.4000244140625</AltitudeMeters>
            <DistanceMeters>NAN</DistanceMeters>
          </Trackpoint>
          <Trackpoint>
            <Time>2019-10-05T14:11:46.000Z</Time>
            <Position>
              <LatitudeDegrees>41.73222251236438751220703125</LatitudeDegrees>
              <LongitudeDegrees>-5.78001181595027446746826171875</LongitudeDegrees>
            </Position>
            <AltitudeMeters>634.5999755859375</AltitudeMeters>
            <DistanceMeters>NAN</DistanceMeters>
          </Trackpoint>
          <Trackpoint>
            <Time>2019-10-05T14:11:47.000Z</Time>
            <Position>
              <LatitudeDegrees>41.73218655399978160858154296875</LatitudeDegrees>
              <LongitudeDegrees>-5.78003059141337871551513671875</LongitudeDegrees>
            </Position>
            <AltitudeMeters>635</AltitudeMeters>
            <DistanceMeters>NAN</DistanceMeters>
          </Trackpoint>
          <Trackpoint>
            <Time>2019-10-05T14:11:51.000Z</Time>
            <Position>
              <LatitudeDegrees>41.73204691149294376373291015625</LatitudeDegrees>
              <LongitudeDegrees>-5.78011390753090381622314453125</LongitudeDegrees>
            </Position>
            <AltitudeMeters>634</AltitudeMeters>
            <DistanceMeters>NAN</DistanceMeters>
          </Trackpoint>
          <Trackpoint>
            <Time>2019-10-05T14:11:57.000Z</Time>
            <Position>
              <LatitudeDegrees>41.73183803446590900421142578125</LatitudeDegrees>
              <LongitudeDegrees>-5.780249275267124176025390625</LongitudeDegrees>
            </Position>
            <AltitudeMeters>634.20001220703125</AltitudeMeters>
            <DistanceMeters>NAN</DistanceMeters>
          </Trackpoint>
          <Trackpoint>
            <Time>2019-10-05T14:12:06.000Z</Time>
            <Position>
              <LatitudeDegrees>41.7315088771283626556396484375</LatitudeDegrees>
              <LongitudeDegrees>-5.780452452600002288818359375</LongitudeDegrees>
            </Position>
            <AltitudeMeters>634.4000244140625</AltitudeMeters>
            <DistanceMeters>NAN</DistanceMeters>
          </Trackpoint>
          <Trackpoint>
            <Time>2019-10-05T14:12:07.000Z</Time>
            <Position>
              <LatitudeDegrees>41.7314713262021541595458984375</LatitudeDegrees>
              <LongitudeDegrees>-5.7804750837385654449462890625</LongitudeDegrees>
            </Position>
            <AltitudeMeters>634.5999755859375</AltitudeMeters>
            <DistanceMeters>NAN</DistanceMeters>
          </Trackpoint>
          <Trackpoint>
            <Time>2019-10-05T14:12:10.000Z</Time>
            <Position>
              <LatitudeDegrees>41.731358505785465240478515625</LatitudeDegrees>
              <LongitudeDegrees>-5.78054825775325298309326171875</LongitudeDegrees>
            </Position>
            <AltitudeMeters>635</AltitudeMeters>
            <DistanceMeters>NAN</DistanceMeters>
          </Trackpoint>
          <Trackpoint>
            <Time>2019-10-05T14:12:16.000Z</Time>
            <Position>
              <LatitudeDegrees>41.731128506362438201904296875</LatitudeDegrees>
              <LongitudeDegrees>-5.7807075977325439453125</LongitudeDegrees>
            </Position>
            <AltitudeMeters>634.4000244140625</AltitudeMeters>
            <DistanceMeters>NAN</DistanceMeters>
          </Trackpoint>
          <Trackpoint>
            <Time>2019-10-05T14:12:21.000Z</Time>
            <Position>
              <LatitudeDegrees>41.73092105425894260406494140625</LatitudeDegrees>
              <LongitudeDegrees>-5.7808351702988147735595703125</LongitudeDegrees>
            </Position>
            <AltitudeMeters>634</AltitudeMeters>
            <DistanceMeters>NAN</DistanceMeters>
          </Trackpoint>
          <Trackpoint>
            <Time>2019-10-05T14:12:22.000Z</Time>
            <Position>
              <LatitudeDegrees>41.73088199459016323089599609375</LatitudeDegrees>
              <LongitudeDegrees>-5.780867524445056915283203125</LongitudeDegrees>
            </Position>
            <AltitudeMeters>634</AltitudeMeters>
            <DistanceMeters>NAN</DistanceMeters>
          </Trackpoint>
          <Trackpoint>
            <Time>2019-10-05T14:12:24.000Z</Time>
            <Position>
              <LatitudeDegrees>41.73080370761454105377197265625</LatitudeDegrees>
              <LongitudeDegrees>-5.78091504983603954315185546875</LongitudeDegrees>
            </Position>
            <AltitudeMeters>634.4000244140625</AltitudeMeters>
            <DistanceMeters>NAN</DistanceMeters>
          </Trackpoint>
          <Trackpoint>
            <Time>2019-10-05T14:12:28.000Z</Time>
            <Position>
              <LatitudeDegrees>41.730657108128070831298828125</LatitudeDegrees>
              <LongitudeDegrees>-5.78100465238094329833984375</LongitudeDegrees>
            </Position>
            <AltitudeMeters>634.5999755859375</AltitudeMeters>
            <DistanceMeters>NAN</DistanceMeters>
          </Trackpoint>
          <Trackpoint>
            <Time>2019-10-05T14:12:32.000Z</Time>
            <Position>
              <LatitudeDegrees>41.73050229437649250030517578125</LatitudeDegrees>
              <LongitudeDegrees>-5.78111185692250728607177734375</LongitudeDegrees>
            </Position>
            <AltitudeMeters>634</AltitudeMeters>
            <DistanceMeters>NAN</DistanceMeters>
          </Trackpoint>
          <Trackpoint>
            <Time>2019-10-05T14:12:41.000Z</Time>
            <Position>
              <LatitudeDegrees>41.73012209124863147735595703125</LatitudeDegrees>
              <LongitudeDegrees>-5.78135057352483272552490234375</LongitudeDegrees>
            </Position>
            <AltitudeMeters>633.79998779296875</AltitudeMeters>
            <DistanceMeters>NAN</DistanceMeters>
          </Trackpoint>
          <Trackpoint>
            <Time>2019-10-05T14:12:43.000Z</Time>
            <Position>
              <LatitudeDegrees>41.73003709875047206878662109375</LatitudeDegrees>
              <LongitudeDegrees>-5.78140706755220890045166015625</LongitudeDegrees>
            </Position>
            <AltitudeMeters>633.79998779296875</AltitudeMeters>
            <DistanceMeters>NAN</DistanceMeters>
          </Trackpoint>
          <Trackpoint>
            <Time>2019-10-05T14:12:48.000Z</Time>
            <Position>
              <LatitudeDegrees>41.72981883399188518524169921875</LatitudeDegrees>
              <LongitudeDegrees>-5.7815466262400150299072265625</LongitudeDegrees>
            </Position>
            <AltitudeMeters>634</AltitudeMeters>
            <DistanceMeters>NAN</DistanceMeters>
          </Trackpoint>
          <Trackpoint>
            <Time>2019-10-05T14:12:53.000Z</Time>
            <Position>
              <LatitudeDegrees>41.72959637828171253204345703125</LatitudeDegrees>
              <LongitudeDegrees>-5.78168501146137714385986328125</LongitudeDegrees>
            </Position>
            <AltitudeMeters>634.20001220703125</AltitudeMeters>
            <DistanceMeters>NAN</DistanceMeters>
          </Trackpoint>
          <Trackpoint>
            <Time>2019-10-05T14:13:01.000Z</Time>
            <Position>
              <LatitudeDegrees>41.729243583977222442626953125</LatitudeDegrees>
              <LongitudeDegrees>-5.7819105684757232666015625</LongitudeDegrees>
            </Position>
            <AltitudeMeters>633.5999755859375</AltitudeMeters>
            <DistanceMeters>NAN</DistanceMeters>
          </Trackpoint>
          <Trackpoint>
            <Time>2019-10-05T14:13:04.000Z</Time>
            <Position>
              <LatitudeDegrees>41.72910955734550952911376953125</LatitudeDegrees>
              <LongitudeDegrees>-5.7819938845932483673095703125</LongitudeDegrees>
            </Position>
            <AltitudeMeters>633.4000244140625</AltitudeMeters>
            <DistanceMeters>NAN</DistanceMeters>
          </Trackpoint>
          <Trackpoint>
            <Time>2019-10-05T14:13:13.000Z</Time>
            <Position>
              <LatitudeDegrees>41.72871510498225688934326171875</LatitudeDegrees>
              <LongitudeDegrees>-5.782236121594905853271484375</LongitudeDegrees>
            </Position>
            <AltitudeMeters>633.20001220703125</AltitudeMeters>
            <DistanceMeters>NAN</DistanceMeters>
          </Trackpoint>
          <Trackpoint>
            <Time>2019-10-05T14:13:14.000Z</Time>
            <Position>
              <LatitudeDegrees>41.7286727763712406158447265625</LatitudeDegrees>
              <LongitudeDegrees>-5.78226503916084766387939453125</LongitudeDegrees>
            </Position>
            <AltitudeMeters>632.5999755859375</AltitudeMeters>
            <DistanceMeters>NAN</DistanceMeters>
          </Trackpoint>
          <Trackpoint>
            <Time>2019-10-05T14:13:21.000Z</Time>
            <Position>
              <LatitudeDegrees>41.7283710278570652008056640625</LatitudeDegrees>
              <LongitudeDegrees>-5.78244474716484546661376953125</LongitudeDegrees>
            </Position>
            <AltitudeMeters>633.79998779296875</AltitudeMeters>
            <DistanceMeters>NAN</DistanceMeters>
          </Trackpoint>
          <Trackpoint>
            <Time>2019-10-05T14:13:23.000Z</Time>
            <Position>
              <LatitudeDegrees>41.72828259877860546112060546875</LatitudeDegrees>
              <LongitudeDegrees>-5.78249202109873294830322265625</LongitudeDegrees>
            </Position>
            <AltitudeMeters>633.5999755859375</AltitudeMeters>
            <DistanceMeters>NAN</DistanceMeters>
          </Trackpoint>
          <Trackpoint>
            <Time>2019-10-05T14:13:28.000Z</Time>
            <Position>
              <LatitudeDegrees>41.7280679382383823394775390625</LatitudeDegrees>
              <LongitudeDegrees>-5.782614983618259429931640625</LongitudeDegrees>
            </Position>
            <AltitudeMeters>633.20001220703125</AltitudeMeters>
            <DistanceMeters>NAN</DistanceMeters>
          </Trackpoint>
          <Trackpoint>
            <Time>2019-10-05T14:13:33.000Z</Time>
            <Position>
              <LatitudeDegrees>41.7278557084500789642333984375</LatitudeDegrees>
              <LongitudeDegrees>-5.78272185288369655609130859375</LongitudeDegrees>
            </Position>
            <AltitudeMeters>633</AltitudeMeters>
            <DistanceMeters>NAN</DistanceMeters>
          </Trackpoint>
          <Trackpoint>
            <Time>2019-10-05T14:13:39.000Z</Time>
            <Position>
              <LatitudeDegrees>41.7275990545749664306640625</LatitudeDegrees>
              <LongitudeDegrees>-5.7828401215374469757080078125</LongitudeDegrees>
            </Position>
            <AltitudeMeters>633.4000244140625</AltitudeMeters>
            <DistanceMeters>NAN</DistanceMeters>
          </Trackpoint>
          <Trackpoint>
            <Time>2019-10-05T14:13:44.000Z</Time>
            <Position>
              <LatitudeDegrees>41.72738690860569477081298828125</LatitudeDegrees>
              <LongitudeDegrees>-5.78293592669069766998291015625</LongitudeDegrees>
            </Position>
            <AltitudeMeters>634</AltitudeMeters>
            <DistanceMeters>NAN</DistanceMeters>
          </Trackpoint>
          <Trackpoint>
            <Time>2019-10-05T14:13:50.000Z</Time>
            <Position>
              <LatitudeDegrees>41.7271358706057071685791015625</LatitudeDegrees>
              <LongitudeDegrees>-5.783048160374164581298828125</LongitudeDegrees>
            </Position>
            <AltitudeMeters>635.20001220703125</AltitudeMeters>
            <DistanceMeters>NAN</DistanceMeters>
          </Trackpoint>
          <Trackpoint>
            <Time>2019-10-05T14:13:53.000Z</Time>
            <Position>
              <LatitudeDegrees>41.72701173461973667144775390625</LatitudeDegrees>
              <LongitudeDegrees>-5.78310616314411163330078125</LongitudeDegrees>
            </Position>
            <AltitudeMeters>636.20001220703125</AltitudeMeters>
            <DistanceMeters>NAN</DistanceMeters>
          </Trackpoint>
          <Trackpoint>
            <Time>2019-10-05T14:13:54.000Z</Time>
            <Position>
              <LatitudeDegrees>41.72696948982775211334228515625</LatitudeDegrees>
              <LongitudeDegrees>-5.783123932778835296630859375</LongitudeDegrees>
            </Position>
            <AltitudeMeters>636.20001220703125</AltitudeMeters>
            <DistanceMeters>NAN</DistanceMeters>
          </Trackpoint>
          <Trackpoint>
            <Time>2019-10-05T14:13:57.000Z</Time>
            <Position>
              <LatitudeDegrees>41.726842336356639862060546875</LatitudeDegrees>
              <LongitudeDegrees>-5.78317045234143733978271484375</LongitudeDegrees>
            </Position>
            <AltitudeMeters>635.20001220703125</AltitudeMeters>
            <DistanceMeters>NAN</DistanceMeters>
          </Trackpoint>
          <Trackpoint>
            <Time>2019-10-05T14:14:02.000Z</Time>
            <Position>
              <LatitudeDegrees>41.72662599943578243255615234375</LatitudeDegrees>
              <LongitudeDegrees>-5.7832649163901805877685546875</LongitudeDegrees>
            </Position>
            <AltitudeMeters>635.79998779296875</AltitudeMeters>
            <DistanceMeters>NAN</DistanceMeters>
          </Trackpoint>
          <Trackpoint>
            <Time>2019-10-05T14:14:13.000Z</Time>
            <Position>
              <LatitudeDegrees>41.726128868758678436279296875</LatitudeDegrees>
              <LongitudeDegrees>-5.783486701548099517822265625</LongitudeDegrees>
            </Position>
            <AltitudeMeters>636.20001220703125</AltitudeMeters>
            <DistanceMeters>NAN</DistanceMeters>
          </Trackpoint>
          <Trackpoint>
            <Time>2019-10-05T14:14:18.000Z</Time>
            <Position>
              <LatitudeDegrees>41.72588051296770572662353515625</LatitudeDegrees>
              <LongitudeDegrees>-5.7835971750319004058837890625</LongitudeDegrees>
            </Position>
            <AltitudeMeters>635.20001220703125</AltitudeMeters>
            <DistanceMeters>NAN</DistanceMeters>
          </Trackpoint>
          <Trackpoint>
            <Time>2019-10-05T14:14:21.000Z</Time>
            <Position>
              <LatitudeDegrees>41.72572008334100246429443359375</LatitudeDegrees>
              <LongitudeDegrees>-5.783659704029560089111328125</LongitudeDegrees>
            </Position>
            <AltitudeMeters>634.79998779296875</AltitudeMeters>
            <DistanceMeters>NAN</DistanceMeters>
          </Trackpoint>
          <Trackpoint>
            <Time>2019-10-05T14:14:25.000Z</Time>
            <Position>
              <LatitudeDegrees>41.7254933528602123260498046875</LatitudeDegrees>
              <LongitudeDegrees>-5.78375467099249362945556640625</LongitudeDegrees>
            </Position>
            <AltitudeMeters>634</AltitudeMeters>
            <DistanceMeters>NAN</DistanceMeters>
          </Trackpoint>
          <Trackpoint>
            <Time>2019-10-05T14:14:27.000Z</Time>
            <Position>
              <LatitudeDegrees>41.725376509130001068115234375</LatitudeDegrees>
              <LongitudeDegrees>-5.7838104106485843658447265625</LongitudeDegrees>
            </Position>
            <AltitudeMeters>634</AltitudeMeters>
            <DistanceMeters>NAN</DistanceMeters>
          </Trackpoint>
          <Trackpoint>
            <Time>2019-10-05T14:14:32.000Z</Time>
            <Position>
              <LatitudeDegrees>41.72507400624454021453857421875</LatitudeDegrees>
              <LongitudeDegrees>-5.78394569456577301025390625</LongitudeDegrees>
            </Position>
            <AltitudeMeters>632.5999755859375</AltitudeMeters>
            <DistanceMeters>NAN</DistanceMeters>
          </Trackpoint>
          <Trackpoint>
            <Time>2019-10-05T14:14:36.000Z</Time>
            <Position>
              <LatitudeDegrees>41.7248291708528995513916015625</LatitudeDegrees>
              <LongitudeDegrees>-5.78405390493571758270263671875</LongitudeDegrees>
            </Position>
            <AltitudeMeters>632</AltitudeMeters>
            <DistanceMeters>NAN</DistanceMeters>
          </Trackpoint>
          <Trackpoint>
            <Time>2019-10-05T14:14:40.000Z</Time>
            <Position>
              <LatitudeDegrees>41.72458768822252750396728515625</LatitudeDegrees>
              <LongitudeDegrees>-5.78414686024188995361328125</LongitudeDegrees>
            </Position>
            <AltitudeMeters>631.4000244140625</AltitudeMeters>
            <DistanceMeters>NAN</DistanceMeters>
          </Trackpoint>
          <Trackpoint>
            <Time>2019-10-05T14:14:43.000Z</Time>
            <Position>
              <LatitudeDegrees>41.7244201339781284332275390625</LatitudeDegrees>
              <LongitudeDegrees>-5.78422472812235355377197265625</LongitudeDegrees>
            </Position>
            <AltitudeMeters>630.79998779296875</AltitudeMeters>
            <DistanceMeters>NAN</DistanceMeters>
          </Trackpoint>
          <Trackpoint>
            <Time>2019-10-05T14:14:44.000Z</Time>
            <Position>
              <LatitudeDegrees>41.7243775539100170135498046875</LatitudeDegrees>
              <LongitudeDegrees>-5.78424132429063320159912109375</LongitudeDegrees>
            </Position>
            <AltitudeMeters>630.5999755859375</AltitudeMeters>
            <DistanceMeters>NAN</DistanceMeters>
          </Trackpoint>
          <Trackpoint>
            <Time>2019-10-05T14:14:47.000Z</Time>
            <Position>
              <LatitudeDegrees>41.724289543926715850830078125</LatitudeDegrees>
              <LongitudeDegrees>-5.78434274531900882720947265625</LongitudeDegrees>
            </Position>
            <AltitudeMeters>631.4000244140625</AltitudeMeters>
            <DistanceMeters>NAN</DistanceMeters>
          </Trackpoint>
          <Trackpoint>
            <Time>2019-10-05T14:14:48.000Z</Time>
            <Position>
              <LatitudeDegrees>41.72427135519683361053466796875</LatitudeDegrees>
              <LongitudeDegrees>-5.784387923777103424072265625</LongitudeDegrees>
            </Position>
            <AltitudeMeters>631.20001220703125</AltitudeMeters>
            <DistanceMeters>NAN</DistanceMeters>
          </Trackpoint>
          <Trackpoint>
            <Time>2019-10-05T14:14:52.000Z</Time>
            <Position>
              <LatitudeDegrees>41.7241720296442508697509765625</LatitudeDegrees>
              <LongitudeDegrees>-5.78459353186190128326416015625</LongitudeDegrees>
            </Position>
            <AltitudeMeters>631</AltitudeMeters>
            <DistanceMeters>NAN</DistanceMeters>
          </Trackpoint>
          <Trackpoint>
            <Time>2019-10-05T14:14:53.000Z</Time>
            <Position>
              <LatitudeDegrees>41.72413674183189868927001953125</LatitudeDegrees>
              <LongitudeDegrees>-5.78464600257575511932373046875</LongitudeDegrees>
            </Position>
            <AltitudeMeters>631.20001220703125</AltitudeMeters>
            <DistanceMeters>NAN</DistanceMeters>
          </Trackpoint>
          <Trackpoint>
            <Time>2019-10-05T14:14:56.000Z</Time>
            <Position>
              <LatitudeDegrees>41.72399123199284076690673828125</LatitudeDegrees>
              <LongitudeDegrees>-5.78473602421581745147705078125</LongitudeDegrees>
            </Position>
            <AltitudeMeters>631</AltitudeMeters>
            <DistanceMeters>NAN</DistanceMeters>
          </Trackpoint>
          <Trackpoint>
            <Time>2019-10-05T14:15:00.000Z</Time>
            <Position>
              <LatitudeDegrees>41.72378294169902801513671875</LatitudeDegrees>
              <LongitudeDegrees>-5.784680955111980438232421875</LongitudeDegrees>
            </Position>
            <AltitudeMeters>630.79998779296875</AltitudeMeters>
            <DistanceMeters>NAN</DistanceMeters>
          </Trackpoint>
          <Trackpoint>
            <Time>2019-10-05T14:15:03.000Z</Time>
            <Position>
              <LatitudeDegrees>41.723678000271320343017578125</LatitudeDegrees>
              <LongitudeDegrees>-5.784487836062908172607421875</LongitudeDegrees>
            </Position>
            <AltitudeMeters>631.4000244140625</AltitudeMeters>
            <DistanceMeters>NAN</DistanceMeters>
          </Trackpoint>
          <Trackpoint>
            <Time>2019-10-05T14:15:06.000Z</Time>
            <Position>
              <LatitudeDegrees>41.7236724682152271270751953125</LatitudeDegrees>
              <LongitudeDegrees>-5.78423562459647655487060546875</LongitudeDegrees>
            </Position>
            <AltitudeMeters>631.5999755859375</AltitudeMeters>
            <DistanceMeters>NAN</DistanceMeters>
          </Trackpoint>
          <Trackpoint>
            <Time>2019-10-05T14:15:11.000Z</Time>
            <Position>
              <LatitudeDegrees>41.7236741445958614349365234375</LatitudeDegrees>
              <LongitudeDegrees>-5.7838030345737934112548828125</LongitudeDegrees>
            </Position>
            <AltitudeMeters>631</AltitudeMeters>
            <DistanceMeters>NAN</DistanceMeters>
          </Trackpoint>
          <Trackpoint>
            <Time>2019-10-05T14:15:13.000Z</Time>
            <Position>
              <LatitudeDegrees>41.72361371107399463653564453125</LatitudeDegrees>
              <LongitudeDegrees>-5.78362693078815937042236328125</LongitudeDegrees>
            </Position>
            <AltitudeMeters>630.4000244140625</AltitudeMeters>
            <DistanceMeters>NAN</DistanceMeters>
          </Trackpoint>
          <Trackpoint>
            <Time>2019-10-05T14:15:15.000Z</Time>
            <Position>
              <LatitudeDegrees>41.72354757785797119140625</LatitudeDegrees>
              <LongitudeDegrees>-5.78344638459384441375732421875</LongitudeDegrees>
            </Position>
            <AltitudeMeters>629.5999755859375</AltitudeMeters>
            <DistanceMeters>NAN</DistanceMeters>
          </Trackpoint>
          <Trackpoint>
            <Time>2019-10-05T14:15:17.000Z</Time>
            <Position>
              <LatitudeDegrees>41.7234796844422817230224609375</LatitudeDegrees>
              <LongitudeDegrees>-5.7832598872482776641845703125</LongitudeDegrees>
            </Position>
            <AltitudeMeters>629</AltitudeMeters>
            <DistanceMeters>NAN</DistanceMeters>
          </Trackpoint>
          <Trackpoint>
            <Time>2019-10-05T14:15:21.000Z</Time>
            <Position>
              <LatitudeDegrees>41.723350770771503448486328125</LatitudeDegrees>
              <LongitudeDegrees>-5.7828669436275959014892578125</LongitudeDegrees>
            </Position>
            <AltitudeMeters>627.79998779296875</AltitudeMeters>
            <DistanceMeters>NAN</DistanceMeters>
          </Trackpoint>
          <Trackpoint>
            <Time>2019-10-05T14:15:22.000Z</Time>
            <Position>
              <LatitudeDegrees>41.72332520596683025360107421875</LatitudeDegrees>
              <LongitudeDegrees>-5.78276015818119049072265625</LongitudeDegrees>
            </Position>
            <AltitudeMeters>627.5999755859375</AltitudeMeters>
            <DistanceMeters>NAN</DistanceMeters>
          </Trackpoint>
          <Trackpoint>
            <Time>2019-10-05T14:15:25.000Z</Time>
            <Position>
              <LatitudeDegrees>41.723261587321758270263671875</LatitudeDegrees>
              <LongitudeDegrees>-5.7824334315955638885498046875</LongitudeDegrees>
            </Position>
            <AltitudeMeters>626.4000244140625</AltitudeMeters>
            <DistanceMeters>NAN</DistanceMeters>
          </Trackpoint>
          <Trackpoint>
            <Time>2019-10-05T14:15:28.000Z</Time>
            <Position>
              <LatitudeDegrees>41.72321674413979053497314453125</LatitudeDegrees>
              <LongitudeDegrees>-5.7821035198867321014404296875</LongitudeDegrees>
            </Position>
            <AltitudeMeters>625.79998779296875</AltitudeMeters>
            <DistanceMeters>NAN</DistanceMeters>
          </Trackpoint>
          <Trackpoint>
            <Time>2019-10-05T14:15:29.000Z</Time>
            <Position>
              <LatitudeDegrees>41.72320484183728694915771484375</LatitudeDegrees>
              <LongitudeDegrees>-5.7819952256977558135986328125</LongitudeDegrees>
            </Position>
            <AltitudeMeters>625.5999755859375</AltitudeMeters>
            <DistanceMeters>NAN</DistanceMeters>
          </Trackpoint>
          <Trackpoint>
            <Time>2019-10-05T14:15:31.000Z</Time>
            <Position>
              <LatitudeDegrees>41.72317952848970890045166015625</LatitudeDegrees>
              <LongitudeDegrees>-5.7817818224430084228515625</LongitudeDegrees>
            </Position>
            <AltitudeMeters>625.79998779296875</AltitudeMeters>
            <DistanceMeters>NAN</DistanceMeters>
          </Trackpoint>
          <Trackpoint>
            <Time>2019-10-05T14:15:37.000Z</Time>
            <Position>
              <LatitudeDegrees>41.7231366969645023345947265625</LatitudeDegrees>
              <LongitudeDegrees>-5.78118109144270420074462890625</LongitudeDegrees>
            </Position>
            <AltitudeMeters>626.79998779296875</AltitudeMeters>
            <DistanceMeters>NAN</DistanceMeters>
          </Trackpoint>
          <Trackpoint>
            <Time>2019-10-05T14:15:39.000Z</Time>
            <Position>
              <LatitudeDegrees>41.723116748034954071044921875</LatitudeDegrees>
              <LongitudeDegrees>-5.7810121960937976837158203125</LongitudeDegrees>
            </Position>
            <AltitudeMeters>627.20001220703125</AltitudeMeters>
            <DistanceMeters>NAN</DistanceMeters>
          </Trackpoint>
          <Trackpoint>
            <Time>2019-10-05T14:15:42.000Z</Time>
            <Position>
              <LatitudeDegrees>41.7230870760977268218994140625</LatitudeDegrees>
              <LongitudeDegrees>-5.7807845436036586761474609375</LongitudeDegrees>
            </Position>
            <AltitudeMeters>627.79998779296875</AltitudeMeters>
            <DistanceMeters>NAN</DistanceMeters>
          </Trackpoint>
          <Trackpoint>
            <Time>2019-10-05T14:15:45.000Z</Time>
            <Position>
              <LatitudeDegrees>41.72306603752076625823974609375</LatitudeDegrees>
              <LongitudeDegrees>-5.7805525325238704681396484375</LongitudeDegrees>
            </Position>
            <AltitudeMeters>628.4000244140625</AltitudeMeters>
            <DistanceMeters>NAN</DistanceMeters>
          </Trackpoint>
          <Trackpoint>
            <Time>2019-10-05T14:15:47.000Z</Time>
            <Position>
              <LatitudeDegrees>41.723042987287044525146484375</LatitudeDegrees>
              <LongitudeDegrees>-5.7804043404757976531982421875</LongitudeDegrees>
            </Position>
            <AltitudeMeters>628.79998779296875</AltitudeMeters>
            <DistanceMeters>NAN</DistanceMeters>
          </Trackpoint>
          <Trackpoint>
            <Time>2019-10-05T14:15:49.000Z</Time>
            <Position>
              <LatitudeDegrees>41.7230139859020709991455078125</LatitudeDegrees>
              <LongitudeDegrees>-5.78026059083640575408935546875</LongitudeDegrees>
            </Position>
            <AltitudeMeters>629.5999755859375</AltitudeMeters>
            <DistanceMeters>NAN</DistanceMeters>
          </Trackpoint>
          <Trackpoint>
            <Time>2019-10-05T14:15:50.000Z</Time>
            <Position>
              <LatitudeDegrees>41.72299294732511043548583984375</LatitudeDegrees>
              <LongitudeDegrees>-5.78019252978265285491943359375</LongitudeDegrees>
            </Position>
            <AltitudeMeters>629.5999755859375</AltitudeMeters>
            <DistanceMeters>NAN</DistanceMeters>
          </Trackpoint>
          <Trackpoint>
            <Time>2019-10-05T14:15:51.000Z</Time>
            <Position>
              <LatitudeDegrees>41.72296545468270778656005859375</LatitudeDegrees>
              <LongitudeDegrees>-5.78012933023273944854736328125</LongitudeDegrees>
            </Position>
            <AltitudeMeters>630</AltitudeMeters>
            <DistanceMeters>NAN</DistanceMeters>
          </Trackpoint>
          <Trackpoint>
            <Time>2019-10-05T14:15:53.000Z</Time>
            <Position>
              <LatitudeDegrees>41.72288431786000728607177734375</LatitudeDegrees>
              <LongitudeDegrees>-5.78002153895795345306396484375</LongitudeDegrees>
            </Position>
            <AltitudeMeters>630.5999755859375</AltitudeMeters>
            <DistanceMeters>NAN</DistanceMeters>
          </Trackpoint>
          <Trackpoint>
            <Time>2019-10-05T14:15:55.000Z</Time>
            <Position>
              <LatitudeDegrees>41.72280804254114627838134765625</LatitudeDegrees>
              <LongitudeDegrees>-5.77990553341805934906005859375</LongitudeDegrees>
            </Position>
            <AltitudeMeters>630.4000244140625</AltitudeMeters>
            <DistanceMeters>NAN</DistanceMeters>
          </Trackpoint>
          <Trackpoint>
            <Time>2019-10-05T14:15:57.000Z</Time>
            <Position>
              <LatitudeDegrees>41.72276546247303485870361328125</LatitudeDegrees>
              <LongitudeDegrees>-5.77976371161639690399169921875</LongitudeDegrees>
            </Position>
            <AltitudeMeters>629.79998779296875</AltitudeMeters>
            <DistanceMeters>NAN</DistanceMeters>
          </Trackpoint>
          <Trackpoint>
            <Time>2019-10-05T14:16:00.000Z</Time>
            <Position>
              <LatitudeDegrees>41.72276160679757595062255859375</LatitudeDegrees>
              <LongitudeDegrees>-5.77953136526048183441162109375</LongitudeDegrees>
            </Position>
            <AltitudeMeters>630.79998779296875</AltitudeMeters>
            <DistanceMeters>NAN</DistanceMeters>
          </Trackpoint>
          <Trackpoint>
            <Time>2019-10-05T14:16:01.000Z</Time>
            <Position>
              <LatitudeDegrees>41.7227568291127681732177734375</LatitudeDegrees>
              <LongitudeDegrees>-5.77945425175130367279052734375</LongitudeDegrees>
            </Position>
            <AltitudeMeters>631</AltitudeMeters>
            <DistanceMeters>NAN</DistanceMeters>
          </Trackpoint>
          <Trackpoint>
            <Time>2019-10-05T14:16:03.000Z</Time>
            <Position>
              <LatitudeDegrees>41.72272942028939723968505859375</LatitudeDegrees>
              <LongitudeDegrees>-5.77930941246449947357177734375</LongitudeDegrees>
            </Position>
            <AltitudeMeters>631.20001220703125</AltitudeMeters>
            <DistanceMeters>NAN</DistanceMeters>
          </Trackpoint>
          <Trackpoint>
            <Time>2019-10-05T14:16:05.000Z</Time>
            <Position>
              <LatitudeDegrees>41.7226699925959110260009765625</LatitudeDegrees>
              <LongitudeDegrees>-5.77918745577335357666015625</LongitudeDegrees>
            </Position>
            <AltitudeMeters>631.20001220703125</AltitudeMeters>
            <DistanceMeters>NAN</DistanceMeters>
          </Trackpoint>
          <Trackpoint>
            <Time>2019-10-05T14:16:14.000Z</Time>
            <Position>
              <LatitudeDegrees>41.72238693572580814361572265625</LatitudeDegrees>
              <LongitudeDegrees>-5.77864422462880611419677734375</LongitudeDegrees>
            </Position>
            <AltitudeMeters>631.4000244140625</AltitudeMeters>
            <DistanceMeters>NAN</DistanceMeters>
          </Trackpoint>
          <Trackpoint>
            <Time>2019-10-05T14:16:20.000Z</Time>
            <Position>
              <LatitudeDegrees>41.72216079197824001312255859375</LatitudeDegrees>
              <LongitudeDegrees>-5.778272151947021484375</LongitudeDegrees>
            </Position>
            <AltitudeMeters>631.4000244140625</AltitudeMeters>
            <DistanceMeters>NAN</DistanceMeters>
          </Trackpoint>
          <Trackpoint>
            <Time>2019-10-05T14:16:21.000Z</Time>
            <Position>
              <LatitudeDegrees>41.7221060581505298614501953125</LatitudeDegrees>
              <LongitudeDegrees>-5.778229236602783203125</LongitudeDegrees>
            </Position>
            <AltitudeMeters>631</AltitudeMeters>
            <DistanceMeters>NAN</DistanceMeters>
          </Trackpoint>
          <Trackpoint>
            <Time>2019-10-05T14:16:24.000Z</Time>
            <Position>
              <LatitudeDegrees>41.72192978672683238983154296875</LatitudeDegrees>
              <LongitudeDegrees>-5.7781581580638885498046875</LongitudeDegrees>
            </Position>
            <AltitudeMeters>630.20001220703125</AltitudeMeters>
            <DistanceMeters>NAN</DistanceMeters>
          </Trackpoint>
          <Trackpoint>
            <Time>2019-10-05T14:16:25.000Z</Time>
            <Position>
              <LatitudeDegrees>41.721881590783596038818359375</LatitudeDegrees>
              <LongitudeDegrees>-5.7781080342829227447509765625</LongitudeDegrees>
            </Position>
            <AltitudeMeters>629.5999755859375</AltitudeMeters>
            <DistanceMeters>NAN</DistanceMeters>
          </Trackpoint>
          <Trackpoint>
            <Time>2019-10-05T14:16:27.000Z</Time>
            <Position>
              <LatitudeDegrees>41.72181596048176288604736328125</LatitudeDegrees>
              <LongitudeDegrees>-5.7779621891677379608154296875</LongitudeDegrees>
            </Position>
            <AltitudeMeters>630.20001220703125</AltitudeMeters>
            <DistanceMeters>NAN</DistanceMeters>
          </Trackpoint>
          <Trackpoint>
            <Time>2019-10-05T14:16:30.000Z</Time>
            <Position>
              <LatitudeDegrees>41.72179986722767353057861328125</LatitudeDegrees>
              <LongitudeDegrees>-5.77769639901816844940185546875</LongitudeDegrees>
            </Position>
            <AltitudeMeters>630</AltitudeMeters>
            <DistanceMeters>NAN</DistanceMeters>
          </Trackpoint>
          <Trackpoint>
            <Time>2019-10-05T14:16:31.000Z</Time>
            <Position>
              <LatitudeDegrees>41.72178762964904308319091796875</LatitudeDegrees>
              <LongitudeDegrees>-5.77760620974004268646240234375</LongitudeDegrees>
            </Position>
            <AltitudeMeters>629.5999755859375</AltitudeMeters>
            <DistanceMeters>NAN</DistanceMeters>
          </Trackpoint>
          <Trackpoint>
            <Time>2019-10-05T14:16:33.000Z</Time>
            <Position>
              <LatitudeDegrees>41.72171403653919696807861328125</LatitudeDegrees>
              <LongitudeDegrees>-5.7774482108652591705322265625</LongitudeDegrees>
            </Position>
            <AltitudeMeters>629.4000244140625</AltitudeMeters>
            <DistanceMeters>NAN</DistanceMeters>
          </Trackpoint>
          <Trackpoint>
            <Time>2019-10-05T14:16:36.000Z</Time>
            <Position>
              <LatitudeDegrees>41.7215109430253505706787109375</LatitudeDegrees>
              <LongitudeDegrees>-5.77736849896609783172607421875</LongitudeDegrees>
            </Position>
            <AltitudeMeters>628.20001220703125</AltitudeMeters>
            <DistanceMeters>NAN</DistanceMeters>
          </Trackpoint>
          <Trackpoint>
            <Time>2019-10-05T14:16:39.000Z</Time>
            <Position>
              <LatitudeDegrees>41.7213034071028232574462890625</LatitudeDegrees>
              <LongitudeDegrees>-5.77745743095874786376953125</LongitudeDegrees>
            </Position>
            <AltitudeMeters>627.20001220703125</AltitudeMeters>
            <DistanceMeters>NAN</DistanceMeters>
          </Trackpoint>
          <Trackpoint>
            <Time>2019-10-05T14:16:40.000Z</Time>
            <Position>
              <LatitudeDegrees>41.7212464101612567901611328125</LatitudeDegrees>
              <LongitudeDegrees>-5.777518451213836669921875</LongitudeDegrees>
            </Position>
            <AltitudeMeters>626.5999755859375</AltitudeMeters>
            <DistanceMeters>NAN</DistanceMeters>
          </Trackpoint>
          <Trackpoint>
            <Time>2019-10-05T14:16:42.000Z</Time>
            <Position>
              <LatitudeDegrees>41.72115311957895755767822265625</LatitudeDegrees>
              <LongitudeDegrees>-5.77766672708094120025634765625</LongitudeDegrees>
            </Position>
            <AltitudeMeters>626</AltitudeMeters>
            <DistanceMeters>NAN</DistanceMeters>
          </Trackpoint>
          <Trackpoint>
            <Time>2019-10-05T14:16:46.000Z</Time>
            <Position>
              <LatitudeDegrees>41.72105555422604084014892578125</LatitudeDegrees>
              <LongitudeDegrees>-5.7780215330421924591064453125</LongitudeDegrees>
            </Position>
            <AltitudeMeters>625.5999755859375</AltitudeMeters>
            <DistanceMeters>NAN</DistanceMeters>
          </Trackpoint>
          <Trackpoint>
            <Time>2019-10-05T14:16:47.000Z</Time>
            <Position>
              <LatitudeDegrees>41.7210382036864757537841796875</LatitudeDegrees>
              <LongitudeDegrees>-5.7781130634248256683349609375</LongitudeDegrees>
            </Position>
            <AltitudeMeters>625.4000244140625</AltitudeMeters>
            <DistanceMeters>NAN</DistanceMeters>
          </Trackpoint>
          <Trackpoint>
            <Time>2019-10-05T14:16:50.000Z</Time>
            <Position>
              <LatitudeDegrees>41.72099537216126918792724609375</LatitudeDegrees>
              <LongitudeDegrees>-5.77838907949626445770263671875</LongitudeDegrees>
            </Position>
            <AltitudeMeters>624.20001220703125</AltitudeMeters>
            <DistanceMeters>NAN</DistanceMeters>
          </Trackpoint>
          <Trackpoint>
            <Time>2019-10-05T14:16:54.000Z</Time>
            <Position>
              <LatitudeDegrees>41.7209329269826412200927734375</LatitudeDegrees>
              <LongitudeDegrees>-5.77875964343547821044921875</LongitudeDegrees>
            </Position>
            <AltitudeMeters>623.5999755859375</AltitudeMeters>
            <DistanceMeters>NAN</DistanceMeters>
          </Trackpoint>
          <Trackpoint>
            <Time>2019-10-05T14:16:56.000Z</Time>
            <Position>
              <LatitudeDegrees>41.72089730389416217803955078125</LatitudeDegrees>
              <LongitudeDegrees>-5.77894228510558605194091796875</LongitudeDegrees>
            </Position>
            <AltitudeMeters>622.4000244140625</AltitudeMeters>
            <DistanceMeters>NAN</DistanceMeters>
          </Trackpoint>
          <Trackpoint>
            <Time>2019-10-05T14:17:03.000Z</Time>
            <Position>
              <LatitudeDegrees>41.7207314260303974151611328125</LatitudeDegrees>
              <LongitudeDegrees>-5.77956807799637317657470703125</LongitudeDegrees>
            </Position>
            <AltitudeMeters>622.4000244140625</AltitudeMeters>
            <DistanceMeters>NAN</DistanceMeters>
          </Trackpoint>
          <Trackpoint>
            <Time>2019-10-05T14:17:08.000Z</Time>
            <Position>
              <LatitudeDegrees>41.7205647937953472137451171875</LatitudeDegrees>
              <LongitudeDegrees>-5.78000477515161037445068359375</LongitudeDegrees>
            </Position>
            <AltitudeMeters>620.79998779296875</AltitudeMeters>
            <DistanceMeters>NAN</DistanceMeters>
          </Trackpoint>
          <Trackpoint>
            <Time>2019-10-05T14:17:11.000Z</Time>
            <Position>
              <LatitudeDegrees>41.72045205719769001007080078125</LatitudeDegrees>
              <LongitudeDegrees>-5.7802367024123668670654296875</LongitudeDegrees>
            </Position>
            <AltitudeMeters>621.20001220703125</AltitudeMeters>
            <DistanceMeters>NAN</DistanceMeters>
          </Trackpoint>
          <Trackpoint>
            <Time>2019-10-05T14:17:14.000Z</Time>
            <Position>
              <LatitudeDegrees>41.7203233949840068817138671875</LatitudeDegrees>
              <LongitudeDegrees>-5.780469216406345367431640625</LongitudeDegrees>
            </Position>
            <AltitudeMeters>619.79998779296875</AltitudeMeters>
            <DistanceMeters>NAN</DistanceMeters>
          </Trackpoint>
          <Trackpoint>
            <Time>2019-10-05T14:17:19.000Z</Time>
            <Position>
              <LatitudeDegrees>41.72009029425680637359619140625</LatitudeDegrees>
              <LongitudeDegrees>-5.780826620757579803466796875</LongitudeDegrees>
            </Position>
            <AltitudeMeters>619.79998779296875</AltitudeMeters>
            <DistanceMeters>NAN</DistanceMeters>
          </Trackpoint>
          <Trackpoint>
            <Time>2019-10-05T14:17:26.000Z</Time>
            <Position>
              <LatitudeDegrees>41.7197339795529842376708984375</LatitudeDegrees>
              <LongitudeDegrees>-5.78127496875822544097900390625</LongitudeDegrees>
            </Position>
            <AltitudeMeters>619.20001220703125</AltitudeMeters>
            <DistanceMeters>NAN</DistanceMeters>
          </Trackpoint>
          <Trackpoint>
            <Time>2019-10-05T14:17:31.000Z</Time>
            <Position>
              <LatitudeDegrees>41.71946835704147815704345703125</LatitudeDegrees>
              <LongitudeDegrees>-5.78157990239560604095458984375</LongitudeDegrees>
            </Position>
            <AltitudeMeters>618.79998779296875</AltitudeMeters>
            <DistanceMeters>NAN</DistanceMeters>
          </Trackpoint>
          <Trackpoint>
            <Time>2019-10-05T14:17:34.000Z</Time>
            <Position>
              <LatitudeDegrees>41.71930977143347263336181640625</LatitudeDegrees>
              <LongitudeDegrees>-5.78176178969442844390869140625</LongitudeDegrees>
            </Position>
            <AltitudeMeters>617.79998779296875</AltitudeMeters>
            <DistanceMeters>NAN</DistanceMeters>
          </Trackpoint>
          <Trackpoint>
            <Time>2019-10-05T14:17:39.000Z</Time>
            <Position>
              <LatitudeDegrees>41.71905554831027984619140625</LatitudeDegrees>
              <LongitudeDegrees>-5.7820589281618595123291015625</LongitudeDegrees>
            </Position>
            <AltitudeMeters>618.4000244140625</AltitudeMeters>
            <DistanceMeters>NAN</DistanceMeters>
          </Trackpoint>
          <Trackpoint>
            <Time>2019-10-05T14:17:44.000Z</Time>
            <Position>
              <LatitudeDegrees>41.71881305985152721405029296875</LatitudeDegrees>
              <LongitudeDegrees>-5.7823429070413112640380859375</LongitudeDegrees>
            </Position>
            <AltitudeMeters>618.5999755859375</AltitudeMeters>
            <DistanceMeters>NAN</DistanceMeters>
          </Trackpoint>
          <Trackpoint>
            <Time>2019-10-05T14:17:53.000Z</Time>
            <Position>
              <LatitudeDegrees>41.71838994137942790985107421875</LatitudeDegrees>
              <LongitudeDegrees>-5.78285110183060169219970703125</LongitudeDegrees>
            </Position>
            <AltitudeMeters>617.5999755859375</AltitudeMeters>
            <DistanceMeters>NAN</DistanceMeters>
          </Trackpoint>
          <Trackpoint>
            <Time>2019-10-05T14:17:54.000Z</Time>
            <Position>
              <LatitudeDegrees>41.71834342181682586669921875</LatitudeDegrees>
              <LongitudeDegrees>-5.7829068414866924285888671875</LongitudeDegrees>
            </Position>
            <AltitudeMeters>617.5999755859375</AltitudeMeters>
            <DistanceMeters>NAN</DistanceMeters>
          </Trackpoint>
          <Trackpoint>
            <Time>2019-10-05T14:18:02.000Z</Time>
            <Position>
              <LatitudeDegrees>41.717972941696643829345703125</LatitudeDegrees>
              <LongitudeDegrees>-5.78335233964025974273681640625</LongitudeDegrees>
            </Position>
            <AltitudeMeters>618.20001220703125</AltitudeMeters>
            <DistanceMeters>NAN</DistanceMeters>
          </Trackpoint>
          <Trackpoint>
            <Time>2019-10-05T14:18:11.000Z</Time>
            <Position>
              <LatitudeDegrees>41.71757186762988567352294921875</LatitudeDegrees>
              <LongitudeDegrees>-5.783866234123706817626953125</LongitudeDegrees>
            </Position>
            <AltitudeMeters>617.5999755859375</AltitudeMeters>
            <DistanceMeters>NAN</DistanceMeters>
          </Trackpoint>
          <Trackpoint>
            <Time>2019-10-05T14:18:13.000Z</Time>
            <Position>
              <LatitudeDegrees>41.71748285181820392608642578125</LatitudeDegrees>
              <LongitudeDegrees>-5.78398014418780803680419921875</LongitudeDegrees>
            </Position>
            <AltitudeMeters>616.79998779296875</AltitudeMeters>
            <DistanceMeters>NAN</DistanceMeters>
          </Trackpoint>
          <Trackpoint>
            <Time>2019-10-05T14:18:14.000Z</Time>
            <Position>
              <LatitudeDegrees>41.71744077466428279876708984375</LatitudeDegrees>
              <LongitudeDegrees>-5.7840373925864696502685546875</LongitudeDegrees>
            </Position>
            <AltitudeMeters>616.20001220703125</AltitudeMeters>
            <DistanceMeters>NAN</DistanceMeters>
          </Trackpoint>
          <Trackpoint>
            <Time>2019-10-05T14:18:23.000Z</Time>
            <Position>
              <LatitudeDegrees>41.717055626213550567626953125</LatitudeDegrees>
              <LongitudeDegrees>-5.7845450006425380706787109375</LongitudeDegrees>
            </Position>
            <AltitudeMeters>617</AltitudeMeters>
            <DistanceMeters>NAN</DistanceMeters>
          </Trackpoint>
          <Trackpoint>
            <Time>2019-10-05T14:18:32.000Z</Time>
            <Position>
              <LatitudeDegrees>41.71667433343827724456787109375</LatitudeDegrees>
              <LongitudeDegrees>-5.78505403362214565277099609375</LongitudeDegrees>
            </Position>
            <AltitudeMeters>617.20001220703125</AltitudeMeters>
            <DistanceMeters>NAN</DistanceMeters>
          </Trackpoint>
          <Trackpoint>
            <Time>2019-10-05T14:18:34.000Z</Time>
            <Position>
              <LatitudeDegrees>41.71658900566399097442626953125</LatitudeDegrees>
              <LongitudeDegrees>-5.78516987152397632598876953125</LongitudeDegrees>
            </Position>
            <AltitudeMeters>617.4000244140625</AltitudeMeters>
            <DistanceMeters>NAN</DistanceMeters>
          </Trackpoint>
          <Trackpoint>
            <Time>2019-10-05T14:18:43.000Z</Time>
            <Position>
              <LatitudeDegrees>41.71618826687335968017578125</LatitudeDegrees>
              <LongitudeDegrees>-5.78568619675934314727783203125</LongitudeDegrees>
            </Position>
            <AltitudeMeters>616.5999755859375</AltitudeMeters>
            <DistanceMeters>NAN</DistanceMeters>
          </Trackpoint>
          <Trackpoint>
            <Time>2019-10-05T14:18:44.000Z</Time>
            <Position>
              <LatitudeDegrees>41.7161441780626773834228515625</LatitudeDegrees>
              <LongitudeDegrees>-5.7857442833483219146728515625</LongitudeDegrees>
            </Position>
            <AltitudeMeters>616.79998779296875</AltitudeMeters>
            <DistanceMeters>NAN</DistanceMeters>
          </Trackpoint>
          <Trackpoint>
            <Time>2019-10-05T14:18:53.000Z</Time>
            <Position>
              <LatitudeDegrees>41.7157260887324810028076171875</LatitudeDegrees>
              <LongitudeDegrees>-5.78624895773828029632568359375</LongitudeDegrees>
            </Position>
            <AltitudeMeters>616</AltitudeMeters>
            <DistanceMeters>NAN</DistanceMeters>
          </Trackpoint>
          <Trackpoint>
            <Time>2019-10-05T14:18:54.000Z</Time>
            <Position>
              <LatitudeDegrees>41.7156794853508472442626953125</LatitudeDegrees>
              <LongitudeDegrees>-5.78630411066114902496337890625</LongitudeDegrees>
            </Position>
            <AltitudeMeters>616.20001220703125</AltitudeMeters>
            <DistanceMeters>NAN</DistanceMeters>
          </Trackpoint>
          <Trackpoint>
            <Time>2019-10-05T14:18:56.000Z</Time>
            <Position>
              <LatitudeDegrees>41.71558745205402374267578125</LatitudeDegrees>
              <LongitudeDegrees>-5.78641039319336414337158203125</LongitudeDegrees>
            </Position>
            <AltitudeMeters>615.5999755859375</AltitudeMeters>
            <DistanceMeters>NAN</DistanceMeters>
          </Trackpoint>
          <Trackpoint>
            <Time>2019-10-05T14:19:03.000Z</Time>
            <Position>
              <LatitudeDegrees>41.7152600549161434173583984375</LatitudeDegrees>
              <LongitudeDegrees>-5.78678020276129245758056640625</LongitudeDegrees>
            </Position>
            <AltitudeMeters>614.5999755859375</AltitudeMeters>
            <DistanceMeters>NAN</DistanceMeters>
          </Trackpoint>
          <Trackpoint>
            <Time>2019-10-05T14:19:04.000Z</Time>
            <Position>
              <LatitudeDegrees>41.71521219424903392791748046875</LatitudeDegrees>
              <LongitudeDegrees>-5.78682999126613140106201171875</LongitudeDegrees>
            </Position>
            <AltitudeMeters>614.5999755859375</AltitudeMeters>
            <DistanceMeters>NAN</DistanceMeters>
          </Trackpoint>
          <Trackpoint>
            <Time>2019-10-05T14:19:13.000Z</Time>
            <Position>
              <LatitudeDegrees>41.7147702164947986602783203125</LatitudeDegrees>
              <LongitudeDegrees>-5.7872808538377285003662109375</LongitudeDegrees>
            </Position>
            <AltitudeMeters>615</AltitudeMeters>
            <DistanceMeters>NAN</DistanceMeters>
          </Trackpoint>
          <Trackpoint>
            <Time>2019-10-05T14:19:15.000Z</Time>
            <Position>
              <LatitudeDegrees>41.71467013657093048095703125</LatitudeDegrees>
              <LongitudeDegrees>-5.78738160431385040283203125</LongitudeDegrees>
            </Position>
            <AltitudeMeters>614.5999755859375</AltitudeMeters>
            <DistanceMeters>NAN</DistanceMeters>
          </Trackpoint>
          <Trackpoint>
            <Time>2019-10-05T14:19:24.000Z</Time>
            <Position>
              <LatitudeDegrees>41.71420854516327381134033203125</LatitudeDegrees>
              <LongitudeDegrees>-5.78781821765005588531494140625</LongitudeDegrees>
            </Position>
            <AltitudeMeters>615.20001220703125</AltitudeMeters>
            <DistanceMeters>NAN</DistanceMeters>
          </Trackpoint>
          <Trackpoint>
            <Time>2019-10-05T14:19:26.000Z</Time>
            <Position>
              <LatitudeDegrees>41.714103184640407562255859375</LatitudeDegrees>
              <LongitudeDegrees>-5.7879141904413700103759765625</LongitudeDegrees>
            </Position>
            <AltitudeMeters>614.5999755859375</AltitudeMeters>
            <DistanceMeters>NAN</DistanceMeters>
          </Trackpoint>
          <Trackpoint>
            <Time>2019-10-05T14:19:35.000Z</Time>
            <Position>
              <LatitudeDegrees>41.71362985856831073760986328125</LatitudeDegrees>
              <LongitudeDegrees>-5.78831878490746021270751953125</LongitudeDegrees>
            </Position>
            <AltitudeMeters>614</AltitudeMeters>
            <DistanceMeters>NAN</DistanceMeters>
          </Trackpoint>
          <Trackpoint>
            <Time>2019-10-05T14:19:36.000Z</Time>
            <Position>
              <LatitudeDegrees>41.7135752923786640167236328125</LatitudeDegrees>
              <LongitudeDegrees>-5.7883631251752376556396484375</LongitudeDegrees>
            </Position>
            <AltitudeMeters>614</AltitudeMeters>
            <DistanceMeters>NAN</DistanceMeters>
          </Trackpoint>
          <Trackpoint>
            <Time>2019-10-05T14:19:44.000Z</Time>
            <Position>
              <LatitudeDegrees>41.7131404392421245574951171875</LatitudeDegrees>
              <LongitudeDegrees>-5.7887037657201290130615234375</LongitudeDegrees>
            </Position>
            <AltitudeMeters>613.4000244140625</AltitudeMeters>
            <DistanceMeters>NAN</DistanceMeters>
          </Trackpoint>
          <Trackpoint>
            <Time>2019-10-05T14:19:46.000Z</Time>
            <Position>
              <LatitudeDegrees>41.713030301034450531005859375</LatitudeDegrees>
              <LongitudeDegrees>-5.78878263942897319793701171875</LongitudeDegrees>
            </Position>
            <AltitudeMeters>613.20001220703125</AltitudeMeters>
            <DistanceMeters>NAN</DistanceMeters>
          </Trackpoint>
          <Trackpoint>
            <Time>2019-10-05T14:19:55.000Z</Time>
            <Position>
              <LatitudeDegrees>41.712531410157680511474609375</LatitudeDegrees>
              <LongitudeDegrees>-5.78913015313446521759033203125</LongitudeDegrees>
            </Position>
            <AltitudeMeters>613.20001220703125</AltitudeMeters>
            <DistanceMeters>NAN</DistanceMeters>
          </Trackpoint>
          <Trackpoint>
            <Time>2019-10-05T14:20:04.000Z</Time>
            <Position>
              <LatitudeDegrees>41.7120216228067874908447265625</LatitudeDegrees>
              <LongitudeDegrees>-5.7894608192145824432373046875</LongitudeDegrees>
            </Position>
            <AltitudeMeters>613.20001220703125</AltitudeMeters>
            <DistanceMeters>NAN</DistanceMeters>
          </Trackpoint>
          <Trackpoint>
            <Time>2019-10-05T14:20:13.000Z</Time>
            <Position>
              <LatitudeDegrees>41.71149113215506076812744140625</LatitudeDegrees>
              <LongitudeDegrees>-5.78976533375680446624755859375</LongitudeDegrees>
            </Position>
            <AltitudeMeters>613</AltitudeMeters>
            <DistanceMeters>NAN</DistanceMeters>
          </Trackpoint>
          <Trackpoint>
            <Time>2019-10-05T14:20:16.000Z</Time>
            <Position>
              <LatitudeDegrees>41.71131134033203125</LatitudeDegrees>
              <LongitudeDegrees>-5.78985921107232570648193359375</LongitudeDegrees>
            </Position>
            <AltitudeMeters>613.4000244140625</AltitudeMeters>
            <DistanceMeters>NAN</DistanceMeters>
          </Trackpoint>
          <Trackpoint>
            <Time>2019-10-05T14:20:25.000Z</Time>
            <Position>
              <LatitudeDegrees>41.710759811103343963623046875</LatitudeDegrees>
              <LongitudeDegrees>-5.790129862725734710693359375</LongitudeDegrees>
            </Position>
            <AltitudeMeters>613.20001220703125</AltitudeMeters>
            <DistanceMeters>NAN</DistanceMeters>
          </Trackpoint>
          <Trackpoint>
            <Time>2019-10-05T14:20:26.000Z</Time>
            <Position>
              <LatitudeDegrees>41.71069820411503314971923828125</LatitudeDegrees>
              <LongitudeDegrees>-5.7901551760733127593994140625</LongitudeDegrees>
            </Position>
            <AltitudeMeters>613.20001220703125</AltitudeMeters>
            <DistanceMeters>NAN</DistanceMeters>
          </Trackpoint>
          <Trackpoint>
            <Time>2019-10-05T14:20:35.000Z</Time>
            <Position>
              <LatitudeDegrees>41.71013678424060344696044921875</LatitudeDegrees>
              <LongitudeDegrees>-5.790392048656940460205078125</LongitudeDegrees>
            </Position>
            <AltitudeMeters>612.4000244140625</AltitudeMeters>
            <DistanceMeters>NAN</DistanceMeters>
          </Trackpoint>
          <Trackpoint>
            <Time>2019-10-05T14:20:36.000Z</Time>
            <Position>
              <LatitudeDegrees>41.71007241122424602508544921875</LatitudeDegrees>
              <LongitudeDegrees>-5.7904166914522647857666015625</LongitudeDegrees>
            </Position>
            <AltitudeMeters>612.4000244140625</AltitudeMeters>
            <DistanceMeters>NAN</DistanceMeters>
          </Trackpoint>
          <Trackpoint>
            <Time>2019-10-05T14:20:44.000Z</Time>
            <Position>
              <LatitudeDegrees>41.70956228859722614288330078125</LatitudeDegrees>
              <LongitudeDegrees>-5.79060570336878299713134765625</LongitudeDegrees>
            </Position>
            <AltitudeMeters>611.5999755859375</AltitudeMeters>
            <DistanceMeters>NAN</DistanceMeters>
          </Trackpoint>
          <Trackpoint>
            <Time>2019-10-05T14:20:46.000Z</Time>
            <Position>
              <LatitudeDegrees>41.70943387784063816070556640625</LatitudeDegrees>
              <LongitudeDegrees>-5.790648870170116424560546875</LongitudeDegrees>
            </Position>
            <AltitudeMeters>612.20001220703125</AltitudeMeters>
            <DistanceMeters>NAN</DistanceMeters>
          </Trackpoint>
          <Trackpoint>
            <Time>2019-10-05T14:20:48.000Z</Time>
            <Position>
              <LatitudeDegrees>41.70930161140859127044677734375</LatitudeDegrees>
              <LongitudeDegrees>-5.7906859181821346282958984375</LongitudeDegrees>
            </Position>
            <AltitudeMeters>611.20001220703125</AltitudeMeters>
            <DistanceMeters>NAN</DistanceMeters>
          </Trackpoint>
          <Trackpoint>
            <Time>2019-10-05T14:20:54.000Z</Time>
            <Position>
              <LatitudeDegrees>41.7089042253792285919189453125</LatitudeDegrees>
              <LongitudeDegrees>-5.790800750255584716796875</LongitudeDegrees>
            </Position>
            <AltitudeMeters>610.5999755859375</AltitudeMeters>
            <DistanceMeters>NAN</DistanceMeters>
          </Trackpoint>
          <Trackpoint>
            <Time>2019-10-05T14:20:56.000Z</Time>
            <Position>
              <LatitudeDegrees>41.7087764851748943328857421875</LatitudeDegrees>
              <LongitudeDegrees>-5.790834613144397735595703125</LongitudeDegrees>
            </Position>
            <AltitudeMeters>609.79998779296875</AltitudeMeters>
            <DistanceMeters>NAN</DistanceMeters>
          </Trackpoint>
          <Trackpoint>
            <Time>2019-10-05T14:21:01.000Z</Time>
            <Position>
              <LatitudeDegrees>41.7084495909512042999267578125</LatitudeDegrees>
              <LongitudeDegrees>-5.79090963117778301239013671875</LongitudeDegrees>
            </Position>
            <AltitudeMeters>609.5999755859375</AltitudeMeters>
            <DistanceMeters>NAN</DistanceMeters>
          </Trackpoint>
          <Trackpoint>
            <Time>2019-10-05T14:21:07.000Z</Time>
            <Position>
              <LatitudeDegrees>41.70807098038494586944580078125</LatitudeDegrees>
              <LongitudeDegrees>-5.79098573885858058929443359375</LongitudeDegrees>
            </Position>
            <AltitudeMeters>608.4000244140625</AltitudeMeters>
            <DistanceMeters>NAN</DistanceMeters>
          </Trackpoint>
          <Trackpoint>
            <Time>2019-10-05T14:21:10.000Z</Time>
            <Position>
              <LatitudeDegrees>41.707880795001983642578125</LatitudeDegrees>
              <LongitudeDegrees>-5.79102328978478908538818359375</LongitudeDegrees>
            </Position>
            <AltitudeMeters>608.5999755859375</AltitudeMeters>
            <DistanceMeters>NAN</DistanceMeters>
          </Trackpoint>
          <Trackpoint>
            <Time>2019-10-05T14:21:18.000Z</Time>
            <Position>
              <LatitudeDegrees>41.707392968237400054931640625</LatitudeDegrees>
              <LongitudeDegrees>-5.7910939492285251617431640625</LongitudeDegrees>
            </Position>
            <AltitudeMeters>608</AltitudeMeters>
            <DistanceMeters>NAN</DistanceMeters>
          </Trackpoint>
          <Trackpoint>
            <Time>2019-10-05T14:21:27.000Z</Time>
            <Position>
              <LatitudeDegrees>41.7068446241319179534912109375</LatitudeDegrees>
              <LongitudeDegrees>-5.79116578213870525360107421875</LongitudeDegrees>
            </Position>
            <AltitudeMeters>608.20001220703125</AltitudeMeters>
            <DistanceMeters>NAN</DistanceMeters>
          </Trackpoint>
          <Trackpoint>
            <Time>2019-10-05T14:21:34.000Z</Time>
            <Position>
              <LatitudeDegrees>41.7064171470701694488525390625</LatitudeDegrees>
              <LongitudeDegrees>-5.79122344963252544403076171875</LongitudeDegrees>
            </Position>
            <AltitudeMeters>606.79998779296875</AltitudeMeters>
            <DistanceMeters>NAN</DistanceMeters>
          </Trackpoint>
          <Trackpoint>
            <Time>2019-10-05T14:21:38.000Z</Time>
            <Position>
              <LatitudeDegrees>41.70617482624948024749755859375</LatitudeDegrees>
              <LongitudeDegrees>-5.79125898890197277069091796875</LongitudeDegrees>
            </Position>
            <AltitudeMeters>607.20001220703125</AltitudeMeters>
            <DistanceMeters>NAN</DistanceMeters>
          </Trackpoint>
          <Trackpoint>
            <Time>2019-10-05T14:21:47.000Z</Time>
            <Position>
              <LatitudeDegrees>41.70566336251795291900634765625</LatitudeDegrees>
              <LongitudeDegrees>-5.7913162373006343841552734375</LongitudeDegrees>
            </Position>
            <AltitudeMeters>607.20001220703125</AltitudeMeters>
            <DistanceMeters>NAN</DistanceMeters>
          </Trackpoint>
          <Trackpoint>
            <Time>2019-10-05T14:21:55.000Z</Time>
            <Position>
              <LatitudeDegrees>41.7052332870662212371826171875</LatitudeDegrees>
              <LongitudeDegrees>-5.79137834720313549041748046875</LongitudeDegrees>
            </Position>
            <AltitudeMeters>607.79998779296875</AltitudeMeters>
            <DistanceMeters>NAN</DistanceMeters>
          </Trackpoint>
          <Trackpoint>
            <Time>2019-10-05T14:21:58.000Z</Time>
            <Position>
              <LatitudeDegrees>41.70506942085921764373779296875</LatitudeDegrees>
              <LongitudeDegrees>-5.791391842067241668701171875</LongitudeDegrees>
            </Position>
            <AltitudeMeters>608</AltitudeMeters>
            <DistanceMeters>NAN</DistanceMeters>
          </Trackpoint>
          <Trackpoint>
            <Time>2019-10-05T14:22:03.000Z</Time>
            <Position>
              <LatitudeDegrees>41.70479231514036655426025390625</LatitudeDegrees>
              <LongitudeDegrees>-5.79142880626022815704345703125</LongitudeDegrees>
            </Position>
            <AltitudeMeters>607.5999755859375</AltitudeMeters>
            <DistanceMeters>NAN</DistanceMeters>
          </Trackpoint>
          <Trackpoint>
            <Time>2019-10-05T14:22:13.000Z</Time>
            <Position>
              <LatitudeDegrees>41.70424439013004302978515625</LatitudeDegrees>
              <LongitudeDegrees>-5.791501142084598541259765625</LongitudeDegrees>
            </Position>
            <AltitudeMeters>607.5999755859375</AltitudeMeters>
            <DistanceMeters>NAN</DistanceMeters>
          </Trackpoint>
          <Trackpoint>
            <Time>2019-10-05T14:22:17.000Z</Time>
            <Position>
              <LatitudeDegrees>41.7040286399424076080322265625</LatitudeDegrees>
              <LongitudeDegrees>-5.79152989201247692108154296875</LongitudeDegrees>
            </Position>
            <AltitudeMeters>607.79998779296875</AltitudeMeters>
            <DistanceMeters>NAN</DistanceMeters>
          </Trackpoint>
          <Trackpoint>
            <Time>2019-10-05T14:22:27.000Z</Time>
            <Position>
              <LatitudeDegrees>41.70348339714109897613525390625</LatitudeDegrees>
              <LongitudeDegrees>-5.79163961112499237060546875</LongitudeDegrees>
            </Position>
            <AltitudeMeters>607.4000244140625</AltitudeMeters>
            <DistanceMeters>NAN</DistanceMeters>
          </Trackpoint>
          <Trackpoint>
            <Time>2019-10-05T14:22:28.000Z</Time>
            <Position>
              <LatitudeDegrees>41.70342765748500823974609375</LatitudeDegrees>
              <LongitudeDegrees>-5.791653692722320556640625</LongitudeDegrees>
            </Position>
            <AltitudeMeters>607.4000244140625</AltitudeMeters>
            <DistanceMeters>NAN</DistanceMeters>
          </Trackpoint>
          <Trackpoint>
            <Time>2019-10-05T14:22:36.000Z</Time>
            <Position>
              <LatitudeDegrees>41.70299557037651538848876953125</LatitudeDegrees>
              <LongitudeDegrees>-5.7917703688144683837890625</LongitudeDegrees>
            </Position>
            <AltitudeMeters>607.4000244140625</AltitudeMeters>
            <DistanceMeters>NAN</DistanceMeters>
          </Trackpoint>
          <Trackpoint>
            <Time>2019-10-05T14:22:45.000Z</Time>
            <Position>
              <LatitudeDegrees>41.7025118507444858551025390625</LatitudeDegrees>
              <LongitudeDegrees>-5.7919183932244777679443359375</LongitudeDegrees>
            </Position>
            <AltitudeMeters>607.5999755859375</AltitudeMeters>
            <DistanceMeters>NAN</DistanceMeters>
          </Trackpoint>
          <Trackpoint>
            <Time>2019-10-05T14:22:55.000Z</Time>
            <Position>
              <LatitudeDegrees>41.70197498984634876251220703125</LatitudeDegrees>
              <LongitudeDegrees>-5.7920726202428340911865234375</LongitudeDegrees>
            </Position>
            <AltitudeMeters>607.4000244140625</AltitudeMeters>
            <DistanceMeters>NAN</DistanceMeters>
          </Trackpoint>
          <Trackpoint>
            <Time>2019-10-05T14:22:56.000Z</Time>
            <Position>
              <LatitudeDegrees>41.7019221000373363494873046875</LatitudeDegrees>
              <LongitudeDegrees>-5.79208846203982830047607421875</LongitudeDegrees>
            </Position>
            <AltitudeMeters>607.4000244140625</AltitudeMeters>
            <DistanceMeters>NAN</DistanceMeters>
          </Trackpoint>
          <Trackpoint>
            <Time>2019-10-05T14:23:05.000Z</Time>
            <Position>
              <LatitudeDegrees>41.7014448344707489013671875</LatitudeDegrees>
              <LongitudeDegrees>-5.7922258414328098297119140625</LongitudeDegrees>
            </Position>
            <AltitudeMeters>607.5999755859375</AltitudeMeters>
            <DistanceMeters>NAN</DistanceMeters>
          </Trackpoint>
          <Trackpoint>
            <Time>2019-10-05T14:23:13.000Z</Time>
            <Position>
              <LatitudeDegrees>41.7010218836367130279541015625</LatitudeDegrees>
              <LongitudeDegrees>-5.79236774705350399017333984375</LongitudeDegrees>
            </Position>
            <AltitudeMeters>608.20001220703125</AltitudeMeters>
            <DistanceMeters>NAN</DistanceMeters>
          </Trackpoint>
          <Trackpoint>
            <Time>2019-10-05T14:23:21.000Z</Time>
            <Position>
              <LatitudeDegrees>41.700595580041408538818359375</LatitudeDegrees>
              <LongitudeDegrees>-5.79252482391893863677978515625</LongitudeDegrees>
            </Position>
            <AltitudeMeters>608.79998779296875</AltitudeMeters>
            <DistanceMeters>NAN</DistanceMeters>
          </Trackpoint>
          <Trackpoint>
            <Time>2019-10-05T14:23:23.000Z</Time>
            <Position>
              <LatitudeDegrees>41.7004861123859882354736328125</LatitudeDegrees>
              <LongitudeDegrees>-5.79256790690124034881591796875</LongitudeDegrees>
            </Position>
            <AltitudeMeters>609</AltitudeMeters>
            <DistanceMeters>NAN</DistanceMeters>
          </Trackpoint>
          <Trackpoint>
            <Time>2019-10-05T14:23:30.000Z</Time>
            <Position>
              <LatitudeDegrees>41.70013650320470333099365234375</LatitudeDegrees>
              <LongitudeDegrees>-5.792720876634120941162109375</LongitudeDegrees>
            </Position>
            <AltitudeMeters>609.4000244140625</AltitudeMeters>
            <DistanceMeters>NAN</DistanceMeters>
          </Trackpoint>
          <Trackpoint>
            <Time>2019-10-05T14:23:39.000Z</Time>
            <Position>
              <LatitudeDegrees>41.69969536364078521728515625</LatitudeDegrees>
              <LongitudeDegrees>-5.79292438924312591552734375</LongitudeDegrees>
            </Position>
            <AltitudeMeters>609.79998779296875</AltitudeMeters>
            <DistanceMeters>NAN</DistanceMeters>
          </Trackpoint>
          <Trackpoint>
            <Time>2019-10-05T14:23:41.000Z</Time>
            <Position>
              <LatitudeDegrees>41.699597798287868499755859375</LatitudeDegrees>
              <LongitudeDegrees>-5.79297191463410854339599609375</LongitudeDegrees>
            </Position>
            <AltitudeMeters>609.79998779296875</AltitudeMeters>
            <DistanceMeters>NAN</DistanceMeters>
          </Trackpoint>
          <Trackpoint>
            <Time>2019-10-05T14:23:45.000Z</Time>
            <Position>
              <LatitudeDegrees>41.69940836727619171142578125</LatitudeDegrees>
              <LongitudeDegrees>-5.79307199455797672271728515625</LongitudeDegrees>
            </Position>
            <AltitudeMeters>610</AltitudeMeters>
            <DistanceMeters>NAN</DistanceMeters>
          </Trackpoint>
          <Trackpoint>
            <Time>2019-10-05T14:23:51.000Z</Time>
            <Position>
              <LatitudeDegrees>41.6991218738257884979248046875</LatitudeDegrees>
              <LongitudeDegrees>-5.7932273112237453460693359375</LongitudeDegrees>
            </Position>
            <AltitudeMeters>610.20001220703125</AltitudeMeters>
            <DistanceMeters>NAN</DistanceMeters>
          </Trackpoint>
          <Trackpoint>
            <Time>2019-10-05T14:24:02.000Z</Time>
            <Position>
              <LatitudeDegrees>41.6985964961349964141845703125</LatitudeDegrees>
              <LongitudeDegrees>-5.79352998174726963043212890625</LongitudeDegrees>
            </Position>
            <AltitudeMeters>611</AltitudeMeters>
            <DistanceMeters>NAN</DistanceMeters>
          </Trackpoint>
          <Trackpoint>
            <Time>2019-10-05T14:24:12.000Z</Time>
            <Position>
              <LatitudeDegrees>41.69812970794737339019775390625</LatitudeDegrees>
              <LongitudeDegrees>-5.79382720403373241424560546875</LongitudeDegrees>
            </Position>
            <AltitudeMeters>611.4000244140625</AltitudeMeters>
            <DistanceMeters>NAN</DistanceMeters>
          </Trackpoint>
          <Trackpoint>
            <Time>2019-10-05T14:24:16.000Z</Time>
            <Position>
              <LatitudeDegrees>41.69794597662985324859619140625</LatitudeDegrees>
              <LongitudeDegrees>-5.79395092092454433441162109375</LongitudeDegrees>
            </Position>
            <AltitudeMeters>611.79998779296875</AltitudeMeters>
            <DistanceMeters>NAN</DistanceMeters>
          </Trackpoint>
          <Trackpoint>
            <Time>2019-10-05T14:24:27.000Z</Time>
            <Position>
              <LatitudeDegrees>41.6974521987140178680419921875</LatitudeDegrees>
              <LongitudeDegrees>-5.7943238317966461181640625</LongitudeDegrees>
            </Position>
            <AltitudeMeters>611.79998779296875</AltitudeMeters>
            <DistanceMeters>NAN</DistanceMeters>
          </Trackpoint>
          <Trackpoint>
            <Time>2019-10-05T14:24:28.000Z</Time>
            <Position>
              <LatitudeDegrees>41.6974062658846378326416015625</LatitudeDegrees>
              <LongitudeDegrees>-5.79435727559030055999755859375</LongitudeDegrees>
            </Position>
            <AltitudeMeters>611.5999755859375</AltitudeMeters>
            <DistanceMeters>NAN</DistanceMeters>
          </Trackpoint>
          <Trackpoint>
            <Time>2019-10-05T14:24:37.000Z</Time>
            <Position>
              <LatitudeDegrees>41.69699664227664470672607421875</LatitudeDegrees>
              <LongitudeDegrees>-5.79467947594821453094482421875</LongitudeDegrees>
            </Position>
            <AltitudeMeters>612.20001220703125</AltitudeMeters>
            <DistanceMeters>NAN</DistanceMeters>
          </Trackpoint>
          <Trackpoint>
            <Time>2019-10-05T14:24:42.000Z</Time>
            <Position>
              <LatitudeDegrees>41.69677552767097949981689453125</LatitudeDegrees>
              <LongitudeDegrees>-5.794864632189273834228515625</LongitudeDegrees>
            </Position>
            <AltitudeMeters>612.4000244140625</AltitudeMeters>
            <DistanceMeters>NAN</DistanceMeters>
          </Trackpoint>
          <Trackpoint>
            <Time>2019-10-05T14:24:46.000Z</Time>
            <Position>
              <LatitudeDegrees>41.6965945623815059661865234375</LatitudeDegrees>
              <LongitudeDegrees>-5.795018188655376434326171875</LongitudeDegrees>
            </Position>
            <AltitudeMeters>612.4000244140625</AltitudeMeters>
            <DistanceMeters>NAN</DistanceMeters>
          </Trackpoint>
          <Trackpoint>
            <Time>2019-10-05T14:24:55.000Z</Time>
            <Position>
              <LatitudeDegrees>41.696193404495716094970703125</LatitudeDegrees>
              <LongitudeDegrees>-5.7953861542046070098876953125</LongitudeDegrees>
            </Position>
            <AltitudeMeters>611.79998779296875</AltitudeMeters>
            <DistanceMeters>NAN</DistanceMeters>
          </Trackpoint>
          <Trackpoint>
            <Time>2019-10-05T14:25:05.000Z</Time>
            <Position>
              <LatitudeDegrees>41.6957744769752025604248046875</LatitudeDegrees>
              <LongitudeDegrees>-5.79579410143196582794189453125</LongitudeDegrees>
            </Position>
            <AltitudeMeters>612.4000244140625</AltitudeMeters>
            <DistanceMeters>NAN</DistanceMeters>
          </Trackpoint>
          <Trackpoint>
            <Time>2019-10-05T14:25:14.000Z</Time>
            <Position>
              <LatitudeDegrees>41.6953972913324832916259765625</LatitudeDegrees>
              <LongitudeDegrees>-5.79616625793278217315673828125</LongitudeDegrees>
            </Position>
            <AltitudeMeters>613.20001220703125</AltitudeMeters>
            <DistanceMeters>NAN</DistanceMeters>
          </Trackpoint>
          <Trackpoint>
            <Time>2019-10-05T14:25:16.000Z</Time>
            <Position>
              <LatitudeDegrees>41.6953154839575290679931640625</LatitudeDegrees>
              <LongitudeDegrees>-5.79625695012509822845458984375</LongitudeDegrees>
            </Position>
            <AltitudeMeters>613.5999755859375</AltitudeMeters>
            <DistanceMeters>NAN</DistanceMeters>
          </Trackpoint>
          <Trackpoint>
            <Time>2019-10-05T14:25:23.000Z</Time>
            <Position>
              <LatitudeDegrees>41.69503008015453815460205078125</LatitudeDegrees>
              <LongitudeDegrees>-5.79658183269202709197998046875</LongitudeDegrees>
            </Position>
            <AltitudeMeters>613.20001220703125</AltitudeMeters>
            <DistanceMeters>NAN</DistanceMeters>
          </Trackpoint>
          <Trackpoint>
            <Time>2019-10-05T14:25:33.000Z</Time>
            <Position>
              <LatitudeDegrees>41.6946318559348583221435546875</LatitudeDegrees>
              <LongitudeDegrees>-5.7970414124429225921630859375</LongitudeDegrees>
            </Position>
            <AltitudeMeters>613.5999755859375</AltitudeMeters>
            <DistanceMeters>NAN</DistanceMeters>
          </Trackpoint>
          <Trackpoint>
            <Time>2019-10-05T14:25:34.000Z</Time>
            <Position>
              <LatitudeDegrees>41.69459321536123752593994140625</LatitudeDegrees>
              <LongitudeDegrees>-5.79708960838615894317626953125</LongitudeDegrees>
            </Position>
            <AltitudeMeters>613.20001220703125</AltitudeMeters>
            <DistanceMeters>NAN</DistanceMeters>
          </Trackpoint>
          <Trackpoint>
            <Time>2019-10-05T14:25:39.000Z</Time>
            <Position>
              <LatitudeDegrees>41.6944008506834506988525390625</LatitudeDegrees>
              <LongitudeDegrees>-5.79732279293239116668701171875</LongitudeDegrees>
            </Position>
            <AltitudeMeters>613.4000244140625</AltitudeMeters>
            <DistanceMeters>NAN</DistanceMeters>
          </Trackpoint>
          <Trackpoint>
            <Time>2019-10-05T14:25:42.000Z</Time>
            <Position>
              <LatitudeDegrees>41.69428342022001743316650390625</LatitudeDegrees>
              <LongitudeDegrees>-5.79746067523956298828125</LongitudeDegrees>
            </Position>
            <AltitudeMeters>613.5999755859375</AltitudeMeters>
            <DistanceMeters>NAN</DistanceMeters>
          </Trackpoint>
          <Trackpoint>
            <Time>2019-10-05T14:25:52.000Z</Time>
            <Position>
              <LatitudeDegrees>41.69390439055860042572021484375</LatitudeDegrees>
              <LongitudeDegrees>-5.79794120974838733673095703125</LongitudeDegrees>
            </Position>
            <AltitudeMeters>614.5999755859375</AltitudeMeters>
            <DistanceMeters>NAN</DistanceMeters>
          </Trackpoint>
          <Trackpoint>
            <Time>2019-10-05T14:26:01.000Z</Time>
            <Position>
              <LatitudeDegrees>41.693552769720554351806640625</LatitudeDegrees>
              <LongitudeDegrees>-5.79837438650429248809814453125</LongitudeDegrees>
            </Position>
            <AltitudeMeters>614</AltitudeMeters>
            <DistanceMeters>NAN</DistanceMeters>
          </Trackpoint>
          <Trackpoint>
            <Time>2019-10-05T14:26:08.000Z</Time>
            <Position>
              <LatitudeDegrees>41.69330609031021595001220703125</LatitudeDegrees>
              <LongitudeDegrees>-5.79870027489960193634033203125</LongitudeDegrees>
            </Position>
            <AltitudeMeters>614.5999755859375</AltitudeMeters>
            <DistanceMeters>NAN</DistanceMeters>
          </Trackpoint>
          <Trackpoint>
            <Time>2019-10-05T14:26:16.000Z</Time>
            <Position>
              <LatitudeDegrees>41.6930392943322658538818359375</LatitudeDegrees>
              <LongitudeDegrees>-5.79905549995601177215576171875</LongitudeDegrees>
            </Position>
            <AltitudeMeters>614.79998779296875</AltitudeMeters>
            <DistanceMeters>NAN</DistanceMeters>
          </Trackpoint>
          <Trackpoint>
            <Time>2019-10-05T14:26:26.000Z</Time>
            <Position>
              <LatitudeDegrees>41.69270443730056285858154296875</LatitudeDegrees>
              <LongitudeDegrees>-5.7994812168180942535400390625</LongitudeDegrees>
            </Position>
            <AltitudeMeters>615.4000244140625</AltitudeMeters>
            <DistanceMeters>NAN</DistanceMeters>
          </Trackpoint>
          <Trackpoint>
            <Time>2019-10-05T14:26:28.000Z</Time>
            <Position>
              <LatitudeDegrees>41.6926349513232707977294921875</LatitudeDegrees>
              <LongitudeDegrees>-5.79956411384046077728271484375</LongitudeDegrees>
            </Position>
            <AltitudeMeters>615.5999755859375</AltitudeMeters>
            <DistanceMeters>NAN</DistanceMeters>
          </Trackpoint>
          <Trackpoint>
            <Time>2019-10-05T14:26:35.000Z</Time>
            <Position>
              <LatitudeDegrees>41.69237066991627216339111328125</LatitudeDegrees>
              <LongitudeDegrees>-5.79988832585513591766357421875</LongitudeDegrees>
            </Position>
            <AltitudeMeters>615.5999755859375</AltitudeMeters>
            <DistanceMeters>NAN</DistanceMeters>
          </Trackpoint>
          <Trackpoint>
            <Time>2019-10-05T14:26:44.000Z</Time>
            <Position>
              <LatitudeDegrees>41.6920160315930843353271484375</LatitudeDegrees>
              <LongitudeDegrees>-5.800301469862461090087890625</LongitudeDegrees>
            </Position>
            <AltitudeMeters>615.4000244140625</AltitudeMeters>
            <DistanceMeters>NAN</DistanceMeters>
          </Trackpoint>
          <Trackpoint>
            <Time>2019-10-05T14:26:52.000Z</Time>
            <Position>
              <LatitudeDegrees>41.6917300410568714141845703125</LatitudeDegrees>
              <LongitudeDegrees>-5.80061453394591808319091796875</LongitudeDegrees>
            </Position>
            <AltitudeMeters>615.79998779296875</AltitudeMeters>
            <DistanceMeters>NAN</DistanceMeters>
          </Trackpoint>
          <Trackpoint>
            <Time>2019-10-05T14:27:00.000Z</Time>
            <Position>
              <LatitudeDegrees>41.6914482414722442626953125</LatitudeDegrees>
              <LongitudeDegrees>-5.80091477371752262115478515625</LongitudeDegrees>
            </Position>
            <AltitudeMeters>616.20001220703125</AltitudeMeters>
            <DistanceMeters>NAN</DistanceMeters>
          </Trackpoint>
          <Trackpoint>
            <Time>2019-10-05T14:27:05.000Z</Time>
            <Position>
              <LatitudeDegrees>41.69126375578343868255615234375</LatitudeDegrees>
              <LongitudeDegrees>-5.80110269598662853240966796875</LongitudeDegrees>
            </Position>
            <AltitudeMeters>616.5999755859375</AltitudeMeters>
            <DistanceMeters>NAN</DistanceMeters>
          </Trackpoint>
          <Trackpoint>
            <Time>2019-10-05T14:27:09.000Z</Time>
            <Position>
              <LatitudeDegrees>41.6911111213266849517822265625</LatitudeDegrees>
              <LongitudeDegrees>-5.8012487925589084625244140625</LongitudeDegrees>
            </Position>
            <AltitudeMeters>615.79998779296875</AltitudeMeters>
            <DistanceMeters>NAN</DistanceMeters>
          </Trackpoint>
          <Trackpoint>
            <Time>2019-10-05T14:27:18.000Z</Time>
            <Position>
              <LatitudeDegrees>41.69077358208596706390380859375</LatitudeDegrees>
              <LongitudeDegrees>-5.801566801965236663818359375</LongitudeDegrees>
            </Position>
            <AltitudeMeters>616</AltitudeMeters>
            <DistanceMeters>NAN</DistanceMeters>
          </Trackpoint>
          <Trackpoint>
            <Time>2019-10-05T14:27:19.000Z</Time>
            <Position>
              <LatitudeDegrees>41.69073586352169513702392578125</LatitudeDegrees>
              <LongitudeDegrees>-5.80160192213952541351318359375</LongitudeDegrees>
            </Position>
            <AltitudeMeters>615.4000244140625</AltitudeMeters>
            <DistanceMeters>NAN</DistanceMeters>
          </Trackpoint>
          <Trackpoint>
            <Time>2019-10-05T14:27:26.000Z</Time>
            <Position>
              <LatitudeDegrees>41.6904687322676181793212890625</LatitudeDegrees>
              <LongitudeDegrees>-5.8018258027732372283935546875</LongitudeDegrees>
            </Position>
            <AltitudeMeters>616.79998779296875</AltitudeMeters>
            <DistanceMeters>NAN</DistanceMeters>
          </Trackpoint>
          <Trackpoint>
            <Time>2019-10-05T14:27:28.000Z</Time>
            <Position>
              <LatitudeDegrees>41.69039136730134487152099609375</LatitudeDegrees>
              <LongitudeDegrees>-5.80188388936221599578857421875</LongitudeDegrees>
            </Position>
            <AltitudeMeters>617</AltitudeMeters>
            <DistanceMeters>NAN</DistanceMeters>
          </Trackpoint>
          <Trackpoint>
            <Time>2019-10-05T14:27:36.000Z</Time>
            <Position>
              <LatitudeDegrees>41.6900647245347499847412109375</LatitudeDegrees>
              <LongitudeDegrees>-5.80207063816487789154052734375</LongitudeDegrees>
            </Position>
            <AltitudeMeters>617.79998779296875</AltitudeMeters>
            <DistanceMeters>NAN</DistanceMeters>
          </Trackpoint>
          <Trackpoint>
            <Time>2019-10-05T14:27:37.000Z</Time>
            <Position>
              <LatitudeDegrees>41.69002440758049488067626953125</LatitudeDegrees>
              <LongitudeDegrees>-5.8020926825702190399169921875</LongitudeDegrees>
            </Position>
            <AltitudeMeters>617.4000244140625</AltitudeMeters>
            <DistanceMeters>NAN</DistanceMeters>
          </Trackpoint>
          <Trackpoint>
            <Time>2019-10-05T14:27:43.000Z</Time>
            <Position>
              <LatitudeDegrees>41.68977378867566585540771484375</LatitudeDegrees>
              <LongitudeDegrees>-5.80220072530210018157958984375</LongitudeDegrees>
            </Position>
            <AltitudeMeters>618.79998779296875</AltitudeMeters>
            <DistanceMeters>NAN</DistanceMeters>
          </Trackpoint>
          <Trackpoint>
            <Time>2019-10-05T14:27:47.000Z</Time>
            <Position>
              <LatitudeDegrees>41.68960698880255222320556640625</LatitudeDegrees>
              <LongitudeDegrees>-5.802259147167205810546875</LongitudeDegrees>
            </Position>
            <AltitudeMeters>619.4000244140625</AltitudeMeters>
            <DistanceMeters>NAN</DistanceMeters>
          </Trackpoint>
          <Trackpoint>
            <Time>2019-10-05T14:27:50.000Z</Time>
            <Position>
              <LatitudeDegrees>41.68948126025497913360595703125</LatitudeDegrees>
              <LongitudeDegrees>-5.8022911660373210906982421875</LongitudeDegrees>
            </Position>
            <AltitudeMeters>619.79998779296875</AltitudeMeters>
            <DistanceMeters>NAN</DistanceMeters>
          </Trackpoint>
          <Trackpoint>
            <Time>2019-10-05T14:27:55.000Z</Time>
            <Position>
              <LatitudeDegrees>41.68927338905632495880126953125</LatitudeDegrees>
              <LongitudeDegrees>-5.80231589265167713165283203125</LongitudeDegrees>
            </Position>
            <AltitudeMeters>620.4000244140625</AltitudeMeters>
            <DistanceMeters>NAN</DistanceMeters>
          </Trackpoint>
          <Trackpoint>
            <Time>2019-10-05T14:27:57.000Z</Time>
            <Position>
              <LatitudeDegrees>41.68918806128203868865966796875</LatitudeDegrees>
              <LongitudeDegrees>-5.80231555737555027008056640625</LongitudeDegrees>
            </Position>
            <AltitudeMeters>621</AltitudeMeters>
            <DistanceMeters>NAN</DistanceMeters>
          </Trackpoint>
          <Trackpoint>
            <Time>2019-10-05T14:28:03.000Z</Time>
            <Position>
              <LatitudeDegrees>41.68893970549106597900390625</LatitudeDegrees>
              <LongitudeDegrees>-5.8022656850516796112060546875</LongitudeDegrees>
            </Position>
            <AltitudeMeters>621</AltitudeMeters>
            <DistanceMeters>NAN</DistanceMeters>
          </Trackpoint>
          <Trackpoint>
            <Time>2019-10-05T14:28:11.000Z</Time>
            <Position>
              <LatitudeDegrees>41.68862932361662387847900390625</LatitudeDegrees>
              <LongitudeDegrees>-5.80211858265101909637451171875</LongitudeDegrees>
            </Position>
            <AltitudeMeters>622</AltitudeMeters>
            <DistanceMeters>NAN</DistanceMeters>
          </Trackpoint>
          <Trackpoint>
            <Time>2019-10-05T14:28:18.000Z</Time>
            <Position>
              <LatitudeDegrees>41.6883494518697261810302734375</LatitudeDegrees>
              <LongitudeDegrees>-5.80196720547974109649658203125</LongitudeDegrees>
            </Position>
            <AltitudeMeters>623</AltitudeMeters>
            <DistanceMeters>NAN</DistanceMeters>
          </Trackpoint>
          <Trackpoint>
            <Time>2019-10-05T14:28:19.000Z</Time>
            <Position>
              <LatitudeDegrees>41.68830745853483676910400390625</LatitudeDegrees>
              <LongitudeDegrees>-5.80195379443466663360595703125</LongitudeDegrees>
            </Position>
            <AltitudeMeters>623</AltitudeMeters>
            <DistanceMeters>NAN</DistanceMeters>
          </Trackpoint>
          <Trackpoint>
            <Time>2019-10-05T14:28:22.000Z</Time>
            <Position>
              <LatitudeDegrees>41.68817619793117046356201171875</LatitudeDegrees>
              <LongitudeDegrees>-5.80193300731480121612548828125</LongitudeDegrees>
            </Position>
            <AltitudeMeters>623</AltitudeMeters>
            <DistanceMeters>NAN</DistanceMeters>
          </Trackpoint>
          <Trackpoint>
            <Time>2019-10-05T14:28:25.000Z</Time>
            <Position>
              <LatitudeDegrees>41.68804879300296306610107421875</LatitudeDegrees>
              <LongitudeDegrees>-5.80196334980428218841552734375</LongitudeDegrees>
            </Position>
            <AltitudeMeters>622.79998779296875</AltitudeMeters>
            <DistanceMeters>NAN</DistanceMeters>
          </Trackpoint>
          <Trackpoint>
            <Time>2019-10-05T14:28:30.000Z</Time>
            <Position>
              <LatitudeDegrees>41.687895990908145904541015625</LatitudeDegrees>
              <LongitudeDegrees>-5.80214775167405605316162109375</LongitudeDegrees>
            </Position>
            <AltitudeMeters>623.5999755859375</AltitudeMeters>
            <DistanceMeters>NAN</DistanceMeters>
          </Trackpoint>
          <Trackpoint>
            <Time>2019-10-05T14:28:32.000Z</Time>
            <Position>
              <LatitudeDegrees>41.6878884471952915191650390625</LatitudeDegrees>
              <LongitudeDegrees>-5.802248753607273101806640625</LongitudeDegrees>
            </Position>
            <AltitudeMeters>624.4000244140625</AltitudeMeters>
            <DistanceMeters>NAN</DistanceMeters>
          </Trackpoint>
          <Trackpoint>
            <Time>2019-10-05T14:28:34.000Z</Time>
            <Position>
              <LatitudeDegrees>41.6879145987331867218017578125</LatitudeDegrees>
              <LongitudeDegrees>-5.80234556458890438079833984375</LongitudeDegrees>
            </Position>
            <AltitudeMeters>625</AltitudeMeters>
            <DistanceMeters>NAN</DistanceMeters>
          </Trackpoint>
          <Trackpoint>
            <Time>2019-10-05T14:28:36.000Z</Time>
            <Position>
              <LatitudeDegrees>41.68794904835522174835205078125</LatitudeDegrees>
              <LongitudeDegrees>-5.80244245938956737518310546875</LongitudeDegrees>
            </Position>
            <AltitudeMeters>625.5999755859375</AltitudeMeters>
            <DistanceMeters>NAN</DistanceMeters>
          </Trackpoint>
          <Trackpoint>
            <Time>2019-10-05T14:28:38.000Z</Time>
            <Position>
              <LatitudeDegrees>41.68797486461699008941650390625</LatitudeDegrees>
              <LongitudeDegrees>-5.80254455097019672393798828125</LongitudeDegrees>
            </Position>
            <AltitudeMeters>625.79998779296875</AltitudeMeters>
            <DistanceMeters>NAN</DistanceMeters>
          </Trackpoint>
          <Trackpoint>
            <Time>2019-10-05T14:28:40.000Z</Time>
            <Position>
              <LatitudeDegrees>41.6879933886229991912841796875</LatitudeDegrees>
              <LongitudeDegrees>-5.80265007913112640380859375</LongitudeDegrees>
            </Position>
            <AltitudeMeters>626.5999755859375</AltitudeMeters>
            <DistanceMeters>NAN</DistanceMeters>
          </Trackpoint>
          <Trackpoint>
            <Time>2019-10-05T14:28:45.000Z</Time>
            <Position>
              <LatitudeDegrees>41.68796380050480365753173828125</LatitudeDegrees>
              <LongitudeDegrees>-5.8029310405254364013671875</LongitudeDegrees>
            </Position>
            <AltitudeMeters>625.5999755859375</AltitudeMeters>
            <DistanceMeters>NAN</DistanceMeters>
          </Trackpoint>
          <Trackpoint>
            <Time>2019-10-05T14:28:46.000Z</Time>
            <Position>
              <LatitudeDegrees>41.68794770725071430206298828125</LatitudeDegrees>
              <LongitudeDegrees>-5.80298460088670253753662109375</LongitudeDegrees>
            </Position>
            <AltitudeMeters>625.5999755859375</AltitudeMeters>
            <DistanceMeters>NAN</DistanceMeters>
          </Trackpoint>
          <Trackpoint>
            <Time>2019-10-05T14:28:48.000Z</Time>
            <Position>
              <LatitudeDegrees>41.68792105279862880706787109375</LatitudeDegrees>
              <LongitudeDegrees>-5.80309532582759857177734375</LongitudeDegrees>
            </Position>
            <AltitudeMeters>626.4000244140625</AltitudeMeters>
            <DistanceMeters>NAN</DistanceMeters>
          </Trackpoint>
          <Trackpoint>
            <Time>2019-10-05T14:28:49.000Z</Time>
            <Position>
              <LatitudeDegrees>41.6879130899906158447265625</LatitudeDegrees>
              <LongitudeDegrees>-5.80315425060689449310302734375</LongitudeDegrees>
            </Position>
            <AltitudeMeters>626.79998779296875</AltitudeMeters>
            <DistanceMeters>NAN</DistanceMeters>
          </Trackpoint>
          <Trackpoint>
            <Time>2019-10-05T14:28:52.000Z</Time>
            <Position>
              <LatitudeDegrees>41.6879211366176605224609375</LatitudeDegrees>
              <LongitudeDegrees>-5.80332607962191104888916015625</LongitudeDegrees>
            </Position>
            <AltitudeMeters>627</AltitudeMeters>
            <DistanceMeters>NAN</DistanceMeters>
          </Trackpoint>
          <Trackpoint>
            <Time>2019-10-05T14:28:56.000Z</Time>
            <Position>
              <LatitudeDegrees>41.687983162701129913330078125</LatitudeDegrees>
              <LongitudeDegrees>-5.80354602076113224029541015625</LongitudeDegrees>
            </Position>
            <AltitudeMeters>627.4000244140625</AltitudeMeters>
            <DistanceMeters>NAN</DistanceMeters>
          </Trackpoint>
          <Trackpoint>
            <Time>2019-10-05T14:28:58.000Z</Time>
            <Position>
              <LatitudeDegrees>41.6880165226757526397705078125</LatitudeDegrees>
              <LongitudeDegrees>-5.80365012399852275848388671875</LongitudeDegrees>
            </Position>
            <AltitudeMeters>627.5999755859375</AltitudeMeters>
            <DistanceMeters>NAN</DistanceMeters>
          </Trackpoint>
          <Trackpoint>
            <Time>2019-10-05T14:28:59.000Z</Time>
            <Position>
              <LatitudeDegrees>41.68803202919661998748779296875</LatitudeDegrees>
              <LongitudeDegrees>-5.80370292998850345611572265625</LongitudeDegrees>
            </Position>
            <AltitudeMeters>627.79998779296875</AltitudeMeters>
            <DistanceMeters>NAN</DistanceMeters>
          </Trackpoint>
          <Trackpoint>
            <Time>2019-10-05T14:29:03.000Z</Time>
            <Position>
              <LatitudeDegrees>41.68809841386973857879638671875</LatitudeDegrees>
              <LongitudeDegrees>-5.80391071736812591552734375</LongitudeDegrees>
            </Position>
            <AltitudeMeters>629</AltitudeMeters>
            <DistanceMeters>NAN</DistanceMeters>
          </Trackpoint>
          <Trackpoint>
            <Time>2019-10-05T14:29:08.000Z</Time>
            <Position>
              <LatitudeDegrees>41.68818474747240543365478515625</LatitudeDegrees>
              <LongitudeDegrees>-5.80417986027896404266357421875</LongitudeDegrees>
            </Position>
            <AltitudeMeters>628.79998779296875</AltitudeMeters>
            <DistanceMeters>NAN</DistanceMeters>
          </Trackpoint>
          <Trackpoint>
            <Time>2019-10-05T14:29:14.000Z</Time>
            <Position>
              <LatitudeDegrees>41.68829689733684062957763671875</LatitudeDegrees>
              <LongitudeDegrees>-5.804532654583454132080078125</LongitudeDegrees>
            </Position>
            <AltitudeMeters>628</AltitudeMeters>
            <DistanceMeters>NAN</DistanceMeters>
          </Trackpoint>
          <Trackpoint>
            <Time>2019-10-05T14:29:16.000Z</Time>
            <Position>
              <LatitudeDegrees>41.68833863921463489532470703125</LatitudeDegrees>
              <LongitudeDegrees>-5.804660730063915252685546875</LongitudeDegrees>
            </Position>
            <AltitudeMeters>628</AltitudeMeters>
            <DistanceMeters>NAN</DistanceMeters>
          </Trackpoint>
          <Trackpoint>
            <Time>2019-10-05T14:29:21.000Z</Time>
            <Position>
              <LatitudeDegrees>41.6884564049541950225830078125</LatitudeDegrees>
              <LongitudeDegrees>-5.80502391792833805084228515625</LongitudeDegrees>
            </Position>
            <AltitudeMeters>626.79998779296875</AltitudeMeters>
            <DistanceMeters>NAN</DistanceMeters>
          </Trackpoint>
          <Trackpoint>
            <Time>2019-10-05T14:29:23.000Z</Time>
            <Position>
              <LatitudeDegrees>41.68851382099092006683349609375</LatitudeDegrees>
              <LongitudeDegrees>-5.8051889576017856597900390625</LongitudeDegrees>
            </Position>
            <AltitudeMeters>625.5999755859375</AltitudeMeters>
            <DistanceMeters>NAN</DistanceMeters>
          </Trackpoint>
          <Trackpoint>
            <Time>2019-10-05T14:29:25.000Z</Time>
            <Position>
              <LatitudeDegrees>41.6885755956172943115234375</LatitudeDegrees>
              <LongitudeDegrees>-5.8053706772625446319580078125</LongitudeDegrees>
            </Position>
            <AltitudeMeters>624.4000244140625</AltitudeMeters>
            <DistanceMeters>NAN</DistanceMeters>
          </Trackpoint>
          <Trackpoint>
            <Time>2019-10-05T14:29:27.000Z</Time>
            <Position>
              <LatitudeDegrees>41.688641645014286041259765625</LatitudeDegrees>
              <LongitudeDegrees>-5.805563628673553466796875</LongitudeDegrees>
            </Position>
            <AltitudeMeters>622.79998779296875</AltitudeMeters>
            <DistanceMeters>NAN</DistanceMeters>
          </Trackpoint>
          <Trackpoint>
            <Time>2019-10-05T14:29:29.000Z</Time>
            <Position>
              <LatitudeDegrees>41.68870694003999233245849609375</LatitudeDegrees>
              <LongitudeDegrees>-5.805763788521289825439453125</LongitudeDegrees>
            </Position>
            <AltitudeMeters>621.5999755859375</AltitudeMeters>
            <DistanceMeters>NAN</DistanceMeters>
          </Trackpoint>
          <Trackpoint>
            <Time>2019-10-05T14:29:33.000Z</Time>
            <Position>
              <LatitudeDegrees>41.6888384521007537841796875</LatitudeDegrees>
              <LongitudeDegrees>-5.806184895336627960205078125</LongitudeDegrees>
            </Position>
            <AltitudeMeters>620</AltitudeMeters>
            <DistanceMeters>NAN</DistanceMeters>
          </Trackpoint>
          <Trackpoint>
            <Time>2019-10-05T14:29:35.000Z</Time>
            <Position>
              <LatitudeDegrees>41.68891464360058307647705078125</LatitudeDegrees>
              <LongitudeDegrees>-5.8064013160765171051025390625</LongitudeDegrees>
            </Position>
            <AltitudeMeters>618.79998779296875</AltitudeMeters>
            <DistanceMeters>NAN</DistanceMeters>
          </Trackpoint>
          <Trackpoint>
            <Time>2019-10-05T14:29:36.000Z</Time>
            <Position>
              <LatitudeDegrees>41.68895177543163299560546875</LatitudeDegrees>
              <LongitudeDegrees>-5.8065119571983814239501953125</LongitudeDegrees>
            </Position>
            <AltitudeMeters>618.20001220703125</AltitudeMeters>
            <DistanceMeters>NAN</DistanceMeters>
          </Trackpoint>
          <Trackpoint>
            <Time>2019-10-05T14:29:39.000Z</Time>
            <Position>
              <LatitudeDegrees>41.68908731080591678619384765625</LatitudeDegrees>
              <LongitudeDegrees>-5.8068210817873477935791015625</LongitudeDegrees>
            </Position>
            <AltitudeMeters>618</AltitudeMeters>
            <DistanceMeters>NAN</DistanceMeters>
          </Trackpoint>
          <Trackpoint>
            <Time>2019-10-05T14:29:40.000Z</Time>
            <Position>
              <LatitudeDegrees>41.68914682231843471527099609375</LatitudeDegrees>
              <LongitudeDegrees>-5.80690297298133373260498046875</LongitudeDegrees>
            </Position>
            <AltitudeMeters>617.4000244140625</AltitudeMeters>
            <DistanceMeters>NAN</DistanceMeters>
          </Trackpoint>
          <Trackpoint>
            <Time>2019-10-05T14:29:41.000Z</Time>
            <Position>
              <LatitudeDegrees>41.6892127878963947296142578125</LatitudeDegrees>
              <LongitudeDegrees>-5.8069652505218982696533203125</LongitudeDegrees>
            </Position>
            <AltitudeMeters>617.5999755859375</AltitudeMeters>
            <DistanceMeters>NAN</DistanceMeters>
          </Trackpoint>
          <Trackpoint>
            <Time>2019-10-05T14:29:43.000Z</Time>
            <Position>
              <LatitudeDegrees>41.68935536406934261322021484375</LatitudeDegrees>
              <LongitudeDegrees>-5.80704814754426479339599609375</LongitudeDegrees>
            </Position>
            <AltitudeMeters>618.5999755859375</AltitudeMeters>
            <DistanceMeters>NAN</DistanceMeters>
          </Trackpoint>
          <Trackpoint>
            <Time>2019-10-05T14:29:44.000Z</Time>
            <Position>
              <LatitudeDegrees>41.68942275457084178924560546875</LatitudeDegrees>
              <LongitudeDegrees>-5.80709181725978851318359375</LongitudeDegrees>
            </Position>
            <AltitudeMeters>618</AltitudeMeters>
            <DistanceMeters>NAN</DistanceMeters>
          </Trackpoint>
          <Trackpoint>
            <Time>2019-10-05T14:29:47.000Z</Time>
            <Position>
              <LatitudeDegrees>41.6896027140319347381591796875</LatitudeDegrees>
              <LongitudeDegrees>-5.80726884305477142333984375</LongitudeDegrees>
            </Position>
            <AltitudeMeters>617.5999755859375</AltitudeMeters>
            <DistanceMeters>NAN</DistanceMeters>
          </Trackpoint>
          <Trackpoint>
            <Time>2019-10-05T14:29:48.000Z</Time>
            <Position>
              <LatitudeDegrees>41.68964470736682415008544921875</LatitudeDegrees>
              <LongitudeDegrees>-5.80734939314424991607666015625</LongitudeDegrees>
            </Position>
            <AltitudeMeters>617.5999755859375</AltitudeMeters>
            <DistanceMeters>NAN</DistanceMeters>
          </Trackpoint>
          <Trackpoint>
            <Time>2019-10-05T14:29:49.000Z</Time>
            <Position>
              <LatitudeDegrees>41.689668931066989898681640625</LatitudeDegrees>
              <LongitudeDegrees>-5.8074406720697879791259765625</LongitudeDegrees>
            </Position>
            <AltitudeMeters>617.20001220703125</AltitudeMeters>
            <DistanceMeters>NAN</DistanceMeters>
          </Trackpoint>
          <Trackpoint>
            <Time>2019-10-05T14:29:51.000Z</Time>
            <Position>
              <LatitudeDegrees>41.6896955855190753936767578125</LatitudeDegrees>
              <LongitudeDegrees>-5.807618200778961181640625</LongitudeDegrees>
            </Position>
            <AltitudeMeters>616.4000244140625</AltitudeMeters>
            <DistanceMeters>NAN</DistanceMeters>
          </Trackpoint>
          <Trackpoint>
            <Time>2019-10-05T14:29:54.000Z</Time>
            <Position>
              <LatitudeDegrees>41.68965375982224941253662109375</LatitudeDegrees>
              <LongitudeDegrees>-5.80785683356225490570068359375</LongitudeDegrees>
            </Position>
            <AltitudeMeters>617.79998779296875</AltitudeMeters>
            <DistanceMeters>NAN</DistanceMeters>
          </Trackpoint>
          <Trackpoint>
            <Time>2019-10-05T14:29:56.000Z</Time>
            <Position>
              <LatitudeDegrees>41.6895866207778453826904296875</LatitudeDegrees>
              <LongitudeDegrees>-5.807977616786956787109375</LongitudeDegrees>
            </Position>
            <AltitudeMeters>618.4000244140625</AltitudeMeters>
            <DistanceMeters>NAN</DistanceMeters>
          </Trackpoint>
          <Trackpoint>
            <Time>2019-10-05T14:29:58.000Z</Time>
            <Position>
              <LatitudeDegrees>41.68950556777417659759521484375</LatitudeDegrees>
              <LongitudeDegrees>-5.80806906335055828094482421875</LongitudeDegrees>
            </Position>
            <AltitudeMeters>619.79998779296875</AltitudeMeters>
            <DistanceMeters>NAN</DistanceMeters>
          </Trackpoint>
          <Trackpoint>
            <Time>2019-10-05T14:30:02.000Z</Time>
            <Position>
              <LatitudeDegrees>41.68931781314313411712646484375</LatitudeDegrees>
              <LongitudeDegrees>-5.8081578277051448822021484375</LongitudeDegrees>
            </Position>
            <AltitudeMeters>619.4000244140625</AltitudeMeters>
            <DistanceMeters>NAN</DistanceMeters>
          </Trackpoint>
          <Trackpoint>
            <Time>2019-10-05T14:30:07.000Z</Time>
            <Position>
              <LatitudeDegrees>41.689088903367519378662109375</LatitudeDegrees>
              <LongitudeDegrees>-5.80809454433619976043701171875</LongitudeDegrees>
            </Position>
            <AltitudeMeters>620.5999755859375</AltitudeMeters>
            <DistanceMeters>NAN</DistanceMeters>
          </Trackpoint>
          <Trackpoint>
            <Time>2019-10-05T14:30:11.000Z</Time>
            <Position>
              <LatitudeDegrees>41.68893358670175075531005859375</LatitudeDegrees>
              <LongitudeDegrees>-5.80794333480298519134521484375</LongitudeDegrees>
            </Position>
            <AltitudeMeters>620.5999755859375</AltitudeMeters>
            <DistanceMeters>NAN</DistanceMeters>
          </Trackpoint>
          <Trackpoint>
            <Time>2019-10-05T14:30:12.000Z</Time>
            <Position>
              <LatitudeDegrees>41.688896119594573974609375</LatitudeDegrees>
              <LongitudeDegrees>-5.80789924599230289459228515625</LongitudeDegrees>
            </Position>
            <AltitudeMeters>620.79998779296875</AltitudeMeters>
            <DistanceMeters>NAN</DistanceMeters>
          </Trackpoint>
          <Trackpoint>
            <Time>2019-10-05T14:30:13.000Z</Time>
            <Position>
              <LatitudeDegrees>41.6888584010303020477294921875</LatitudeDegrees>
              <LongitudeDegrees>-5.80785884521901607513427734375</LongitudeDegrees>
            </Position>
            <AltitudeMeters>621</AltitudeMeters>
            <DistanceMeters>NAN</DistanceMeters>
          </Trackpoint>
          <Trackpoint>
            <Time>2019-10-05T14:30:14.000Z</Time>
            <Position>
              <LatitudeDegrees>41.6888171620666980743408203125</LatitudeDegrees>
              <LongitudeDegrees>-5.80782464705407619476318359375</LongitudeDegrees>
            </Position>
            <AltitudeMeters>621</AltitudeMeters>
            <DistanceMeters>NAN</DistanceMeters>
          </Trackpoint>
          <Trackpoint>
            <Time>2019-10-05T14:30:18.000Z</Time>
            <Position>
              <LatitudeDegrees>41.68864206410944461822509765625</LatitudeDegrees>
              <LongitudeDegrees>-5.80773420631885528564453125</LongitudeDegrees>
            </Position>
            <AltitudeMeters>621.4000244140625</AltitudeMeters>
            <DistanceMeters>NAN</DistanceMeters>
          </Trackpoint>
          <Trackpoint>
            <Time>2019-10-05T14:30:19.000Z</Time>
            <Position>
              <LatitudeDegrees>41.688598059117794036865234375</LatitudeDegrees>
              <LongitudeDegrees>-5.80771903507411479949951171875</LongitudeDegrees>
            </Position>
            <AltitudeMeters>621.4000244140625</AltitudeMeters>
            <DistanceMeters>NAN</DistanceMeters>
          </Trackpoint>
          <Trackpoint>
            <Time>2019-10-05T14:30:23.000Z</Time>
            <Position>
              <LatitudeDegrees>41.6884253919124603271484375</LatitudeDegrees>
              <LongitudeDegrees>-5.807662792503833770751953125</LongitudeDegrees>
            </Position>
            <AltitudeMeters>622.4000244140625</AltitudeMeters>
            <DistanceMeters>NAN</DistanceMeters>
          </Trackpoint>
          <Trackpoint>
            <Time>2019-10-05T14:30:27.000Z</Time>
            <Position>
              <LatitudeDegrees>41.68825968168675899505615234375</LatitudeDegrees>
              <LongitudeDegrees>-5.80760336481034755706787109375</LongitudeDegrees>
            </Position>
            <AltitudeMeters>623</AltitudeMeters>
            <DistanceMeters>NAN</DistanceMeters>
          </Trackpoint>
          <Trackpoint>
            <Time>2019-10-05T14:30:31.000Z</Time>
            <Position>
              <LatitudeDegrees>41.68809606693685054779052734375</LatitudeDegrees>
              <LongitudeDegrees>-5.80752910114824771881103515625</LongitudeDegrees>
            </Position>
            <AltitudeMeters>622.5999755859375</AltitudeMeters>
            <DistanceMeters>NAN</DistanceMeters>
          </Trackpoint>
          <Trackpoint>
            <Time>2019-10-05T14:30:33.000Z</Time>
            <Position>
              <LatitudeDegrees>41.68801191262900829315185546875</LatitudeDegrees>
              <LongitudeDegrees>-5.80749414861202239990234375</LongitudeDegrees>
            </Position>
            <AltitudeMeters>623.4000244140625</AltitudeMeters>
            <DistanceMeters>NAN</DistanceMeters>
          </Trackpoint>
          <Trackpoint>
            <Time>2019-10-05T14:30:37.000Z</Time>
            <Position>
              <LatitudeDegrees>41.687851734459400177001953125</LatitudeDegrees>
              <LongitudeDegrees>-5.807409994304180145263671875</LongitudeDegrees>
            </Position>
            <AltitudeMeters>624.4000244140625</AltitudeMeters>
            <DistanceMeters>NAN</DistanceMeters>
          </Trackpoint>
          <Trackpoint>
            <Time>2019-10-05T14:30:46.000Z</Time>
            <Position>
              <LatitudeDegrees>41.6874988563358783721923828125</LatitudeDegrees>
              <LongitudeDegrees>-5.80720136873424053192138671875</LongitudeDegrees>
            </Position>
            <AltitudeMeters>625.4000244140625</AltitudeMeters>
            <DistanceMeters>NAN</DistanceMeters>
          </Trackpoint>
          <Trackpoint>
            <Time>2019-10-05T14:30:48.000Z</Time>
            <Position>
              <LatitudeDegrees>41.68741914443671703338623046875</LatitudeDegrees>
              <LongitudeDegrees>-5.8071570284664630889892578125</LongitudeDegrees>
            </Position>
            <AltitudeMeters>625.5999755859375</AltitudeMeters>
            <DistanceMeters>NAN</DistanceMeters>
          </Trackpoint>
          <Trackpoint>
            <Time>2019-10-05T14:31:00.000Z</Time>
            <Position>
              <LatitudeDegrees>41.68692008592188358306884765625</LatitudeDegrees>
              <LongitudeDegrees>-5.806876905262470245361328125</LongitudeDegrees>
            </Position>
            <AltitudeMeters>626.20001220703125</AltitudeMeters>
            <DistanceMeters>NAN</DistanceMeters>
          </Trackpoint>
          <Trackpoint>
            <Time>2019-10-05T14:31:06.000Z</Time>
            <Position>
              <LatitudeDegrees>41.68666477315127849578857421875</LatitudeDegrees>
              <LongitudeDegrees>-5.806733071804046630859375</LongitudeDegrees>
            </Position>
            <AltitudeMeters>626.79998779296875</AltitudeMeters>
            <DistanceMeters>NAN</DistanceMeters>
          </Trackpoint>
          <Trackpoint>
            <Time>2019-10-05T14:31:12.000Z</Time>
            <Position>
              <LatitudeDegrees>41.68640434741973876953125</LatitudeDegrees>
              <LongitudeDegrees>-5.8065842092037200927734375</LongitudeDegrees>
            </Position>
            <AltitudeMeters>626.5999755859375</AltitudeMeters>
            <DistanceMeters>NAN</DistanceMeters>
          </Trackpoint>
          <Trackpoint>
            <Time>2019-10-05T14:31:22.000Z</Time>
            <Position>
              <LatitudeDegrees>41.6859545744955539703369140625</LatitudeDegrees>
              <LongitudeDegrees>-5.8063642680644989013671875</LongitudeDegrees>
            </Position>
            <AltitudeMeters>626.4000244140625</AltitudeMeters>
            <DistanceMeters>NAN</DistanceMeters>
          </Trackpoint>
          <Trackpoint>
            <Time>2019-10-05T14:31:24.000Z</Time>
            <Position>
              <LatitudeDegrees>41.68586455285549163818359375</LatitudeDegrees>
              <LongitudeDegrees>-5.8063208498060703277587890625</LongitudeDegrees>
            </Position>
            <AltitudeMeters>625.79998779296875</AltitudeMeters>
            <DistanceMeters>NAN</DistanceMeters>
          </Trackpoint>
          <Trackpoint>
            <Time>2019-10-05T14:31:33.000Z</Time>
            <Position>
              <LatitudeDegrees>41.6854426078498363494873046875</LatitudeDegrees>
              <LongitudeDegrees>-5.80618028528988361358642578125</LongitudeDegrees>
            </Position>
            <AltitudeMeters>626.20001220703125</AltitudeMeters>
            <DistanceMeters>NAN</DistanceMeters>
          </Trackpoint>
          <Trackpoint>
            <Time>2019-10-05T14:31:44.000Z</Time>
            <Position>
              <LatitudeDegrees>41.684910692274570465087890625</LatitudeDegrees>
              <LongitudeDegrees>-5.8060750924050807952880859375</LongitudeDegrees>
            </Position>
            <AltitudeMeters>626</AltitudeMeters>
            <DistanceMeters>NAN</DistanceMeters>
          </Trackpoint>
          <Trackpoint>
            <Time>2019-10-05T14:31:45.000Z</Time>
            <Position>
              <LatitudeDegrees>41.68486266396939754486083984375</LatitudeDegrees>
              <LongitudeDegrees>-5.80606947652995586395263671875</LongitudeDegrees>
            </Position>
            <AltitudeMeters>626.20001220703125</AltitudeMeters>
            <DistanceMeters>NAN</DistanceMeters>
          </Trackpoint>
          <Trackpoint>
            <Time>2019-10-05T14:31:56.000Z</Time>
            <Position>
              <LatitudeDegrees>41.6843385435640811920166015625</LatitudeDegrees>
              <LongitudeDegrees>-5.80603829585015773773193359375</LongitudeDegrees>
            </Position>
            <AltitudeMeters>626.5999755859375</AltitudeMeters>
            <DistanceMeters>NAN</DistanceMeters>
          </Trackpoint>
          <Trackpoint>
            <Time>2019-10-05T14:32:05.000Z</Time>
            <Position>
              <LatitudeDegrees>41.68390193022787570953369140625</LatitudeDegrees>
              <LongitudeDegrees>-5.80604173243045806884765625</LongitudeDegrees>
            </Position>
            <AltitudeMeters>627</AltitudeMeters>
            <DistanceMeters>NAN</DistanceMeters>
          </Trackpoint>
          <Trackpoint>
            <Time>2019-10-05T14:32:07.000Z</Time>
            <Position>
              <LatitudeDegrees>41.68380595743656158447265625</LatitudeDegrees>
              <LongitudeDegrees>-5.8060395531356334686279296875</LongitudeDegrees>
            </Position>
            <AltitudeMeters>627.4000244140625</AltitudeMeters>
            <DistanceMeters>NAN</DistanceMeters>
          </Trackpoint>
          <Trackpoint>
            <Time>2019-10-05T14:32:11.000Z</Time>
            <Position>
              <LatitudeDegrees>41.683616526424884796142578125</LatitudeDegrees>
              <LongitudeDegrees>-5.80604835413396358489990234375</LongitudeDegrees>
            </Position>
            <AltitudeMeters>627.79998779296875</AltitudeMeters>
            <DistanceMeters>NAN</DistanceMeters>
          </Trackpoint>
          <Trackpoint>
            <Time>2019-10-05T14:32:16.000Z</Time>
            <Position>
              <LatitudeDegrees>41.68337303213775157928466796875</LatitudeDegrees>
              <LongitudeDegrees>-5.8060424029827117919921875</LongitudeDegrees>
            </Position>
            <AltitudeMeters>627.20001220703125</AltitudeMeters>
            <DistanceMeters>NAN</DistanceMeters>
          </Trackpoint>
          <Trackpoint>
            <Time>2019-10-05T14:32:22.000Z</Time>
            <Position>
              <LatitudeDegrees>41.683082096278667449951171875</LatitudeDegrees>
              <LongitudeDegrees>-5.8060419000685214996337890625</LongitudeDegrees>
            </Position>
            <AltitudeMeters>626.79998779296875</AltitudeMeters>
            <DistanceMeters>NAN</DistanceMeters>
          </Trackpoint>
          <Trackpoint>
            <Time>2019-10-05T14:32:26.000Z</Time>
            <Position>
              <LatitudeDegrees>41.6828958503901958465576171875</LatitudeDegrees>
              <LongitudeDegrees>-5.80604173243045806884765625</LongitudeDegrees>
            </Position>
            <AltitudeMeters>627.79998779296875</AltitudeMeters>
            <DistanceMeters>NAN</DistanceMeters>
          </Trackpoint>
          <Trackpoint>
            <Time>2019-10-05T14:32:37.000Z</Time>
            <Position>
              <LatitudeDegrees>41.68236167170107364654541015625</LatitudeDegrees>
              <LongitudeDegrees>-5.80604332499206066131591796875</LongitudeDegrees>
            </Position>
            <AltitudeMeters>628.4000244140625</AltitudeMeters>
            <DistanceMeters>NAN</DistanceMeters>
          </Trackpoint>
          <Trackpoint>
            <Time>2019-10-05T14:32:45.000Z</Time>
            <Position>
              <LatitudeDegrees>41.68198146857321262359619140625</LatitudeDegrees>
              <LongitudeDegrees>-5.8060549758374691009521484375</LongitudeDegrees>
            </Position>
            <AltitudeMeters>628</AltitudeMeters>
            <DistanceMeters>NAN</DistanceMeters>
          </Trackpoint>
          <Trackpoint>
            <Time>2019-10-05T14:32:56.000Z</Time>
            <Position>
              <LatitudeDegrees>41.681450642645359039306640625</LatitudeDegrees>
              <LongitudeDegrees>-5.8060593344271183013916015625</LongitudeDegrees>
            </Position>
            <AltitudeMeters>628</AltitudeMeters>
            <DistanceMeters>NAN</DistanceMeters>
          </Trackpoint>
          <Trackpoint>
            <Time>2019-10-05T14:33:05.000Z</Time>
            <Position>
              <LatitudeDegrees>41.6809918172657489776611328125</LatitudeDegrees>
              <LongitudeDegrees>-5.80607433803379535675048828125</LongitudeDegrees>
            </Position>
            <AltitudeMeters>628</AltitudeMeters>
            <DistanceMeters>NAN</DistanceMeters>
          </Trackpoint>
          <Trackpoint>
            <Time>2019-10-05T14:33:14.000Z</Time>
            <Position>
              <LatitudeDegrees>41.680510528385639190673828125</LatitudeDegrees>
              <LongitudeDegrees>-5.806078948080539703369140625</LongitudeDegrees>
            </Position>
            <AltitudeMeters>627.20001220703125</AltitudeMeters>
            <DistanceMeters>NAN</DistanceMeters>
          </Trackpoint>
          <Trackpoint>
            <Time>2019-10-05T14:33:16.000Z</Time>
            <Position>
              <LatitudeDegrees>41.68037868104875087738037109375</LatitudeDegrees>
              <LongitudeDegrees>-5.80607869662344455718994140625</LongitudeDegrees>
            </Position>
            <AltitudeMeters>626.20001220703125</AltitudeMeters>
            <DistanceMeters>NAN</DistanceMeters>
          </Trackpoint>
          <Trackpoint>
            <Time>2019-10-05T14:33:22.000Z</Time>
            <Position>
              <LatitudeDegrees>41.67998054064810276031494140625</LatitudeDegrees>
              <LongitudeDegrees>-5.80608573742210865020751953125</LongitudeDegrees>
            </Position>
            <AltitudeMeters>626</AltitudeMeters>
            <DistanceMeters>NAN</DistanceMeters>
          </Trackpoint>
          <Trackpoint>
            <Time>2019-10-05T14:33:25.000Z</Time>
            <Position>
              <LatitudeDegrees>41.67978130280971527099609375</LatitudeDegrees>
              <LongitudeDegrees>-5.8060781098902225494384765625</LongitudeDegrees>
            </Position>
            <AltitudeMeters>625</AltitudeMeters>
            <DistanceMeters>NAN</DistanceMeters>
          </Trackpoint>
          <Trackpoint>
            <Time>2019-10-05T14:33:29.000Z</Time>
            <Position>
              <LatitudeDegrees>41.67951551266014575958251953125</LatitudeDegrees>
              <LongitudeDegrees>-5.80608858726918697357177734375</LongitudeDegrees>
            </Position>
            <AltitudeMeters>623.5999755859375</AltitudeMeters>
            <DistanceMeters>NAN</DistanceMeters>
          </Trackpoint>
          <Trackpoint>
            <Time>2019-10-05T14:33:36.000Z</Time>
            <Position>
              <LatitudeDegrees>41.67905786074697971343994140625</LatitudeDegrees>
              <LongitudeDegrees>-5.80608909018337726593017578125</LongitudeDegrees>
            </Position>
            <AltitudeMeters>622.4000244140625</AltitudeMeters>
            <DistanceMeters>NAN</DistanceMeters>
          </Trackpoint>
          <Trackpoint>
            <Time>2019-10-05T14:33:38.000Z</Time>
            <Position>
              <LatitudeDegrees>41.67892442084848880767822265625</LatitudeDegrees>
              <LongitudeDegrees>-5.8060915209352970123291015625</LongitudeDegrees>
            </Position>
            <AltitudeMeters>621.79998779296875</AltitudeMeters>
            <DistanceMeters>NAN</DistanceMeters>
          </Trackpoint>
          <Trackpoint>
            <Time>2019-10-05T14:33:40.000Z</Time>
            <Position>
              <LatitudeDegrees>41.67879316024482250213623046875</LatitudeDegrees>
              <LongitudeDegrees>-5.8060935325920581817626953125</LongitudeDegrees>
            </Position>
            <AltitudeMeters>621.4000244140625</AltitudeMeters>
            <DistanceMeters>NAN</DistanceMeters>
          </Trackpoint>
          <Trackpoint>
            <Time>2019-10-05T14:33:47.000Z</Time>
            <Position>
              <LatitudeDegrees>41.67835143394768238067626953125</LatitudeDegrees>
              <LongitudeDegrees>-5.80609126947820186614990234375</LongitudeDegrees>
            </Position>
            <AltitudeMeters>621.20001220703125</AltitudeMeters>
            <DistanceMeters>NAN</DistanceMeters>
          </Trackpoint>
          <Trackpoint>
            <Time>2019-10-05T14:33:56.000Z</Time>
            <Position>
              <LatitudeDegrees>41.677840389311313629150390625</LatitudeDegrees>
              <LongitudeDegrees>-5.80609805881977081298828125</LongitudeDegrees>
            </Position>
            <AltitudeMeters>621.20001220703125</AltitudeMeters>
            <DistanceMeters>NAN</DistanceMeters>
          </Trackpoint>
          <Trackpoint>
            <Time>2019-10-05T14:34:05.000Z</Time>
            <Position>
              <LatitudeDegrees>41.6773483715951442718505859375</LatitudeDegrees>
              <LongitudeDegrees>-5.80610652454197406768798828125</LongitudeDegrees>
            </Position>
            <AltitudeMeters>621.4000244140625</AltitudeMeters>
            <DistanceMeters>NAN</DistanceMeters>
          </Trackpoint>
          <Trackpoint>
            <Time>2019-10-05T14:34:14.000Z</Time>
            <Position>
              <LatitudeDegrees>41.67684906162321567535400390625</LatitudeDegrees>
              <LongitudeDegrees>-5.8061119727790355682373046875</LongitudeDegrees>
            </Position>
            <AltitudeMeters>622.20001220703125</AltitudeMeters>
            <DistanceMeters>NAN</DistanceMeters>
          </Trackpoint>
          <Trackpoint>
            <Time>2019-10-05T14:34:15.000Z</Time>
            <Position>
              <LatitudeDegrees>41.676793657243251800537109375</LatitudeDegrees>
              <LongitudeDegrees>-5.80611390061676502227783203125</LongitudeDegrees>
            </Position>
            <AltitudeMeters>622.4000244140625</AltitudeMeters>
            <DistanceMeters>NAN</DistanceMeters>
          </Trackpoint>
          <Trackpoint>
            <Time>2019-10-05T14:34:23.000Z</Time>
            <Position>
              <LatitudeDegrees>41.67633843608200550079345703125</LatitudeDegrees>
              <LongitudeDegrees>-5.80611809156835079193115234375</LongitudeDegrees>
            </Position>
            <AltitudeMeters>621.4000244140625</AltitudeMeters>
            <DistanceMeters>NAN</DistanceMeters>
          </Trackpoint>
          <Trackpoint>
            <Time>2019-10-05T14:34:31.000Z</Time>
            <Position>
              <LatitudeDegrees>41.6758852265775203704833984375</LatitudeDegrees>
              <LongitudeDegrees>-5.80612110905349254608154296875</LongitudeDegrees>
            </Position>
            <AltitudeMeters>621.20001220703125</AltitudeMeters>
            <DistanceMeters>NAN</DistanceMeters>
          </Trackpoint>
          <Trackpoint>
            <Time>2019-10-05T14:34:34.000Z</Time>
            <Position>
              <LatitudeDegrees>41.6757162474095821380615234375</LatitudeDegrees>
              <LongitudeDegrees>-5.80611691810190677642822265625</LongitudeDegrees>
            </Position>
            <AltitudeMeters>621.20001220703125</AltitudeMeters>
            <DistanceMeters>NAN</DistanceMeters>
          </Trackpoint>
          <Trackpoint>
            <Time>2019-10-05T14:34:40.000Z</Time>
            <Position>
              <LatitudeDegrees>41.6753953881561756134033203125</LatitudeDegrees>
              <LongitudeDegrees>-5.8061116375029087066650390625</LongitudeDegrees>
            </Position>
            <AltitudeMeters>621</AltitudeMeters>
            <DistanceMeters>NAN</DistanceMeters>
          </Trackpoint>
          <Trackpoint>
            <Time>2019-10-05T14:34:41.000Z</Time>
            <Position>
              <LatitudeDegrees>41.67534090578556060791015625</LatitudeDegrees>
              <LongitudeDegrees>-5.8061102963984012603759765625</LongitudeDegrees>
            </Position>
            <AltitudeMeters>621.20001220703125</AltitudeMeters>
            <DistanceMeters>NAN</DistanceMeters>
          </Trackpoint>
          <Trackpoint>
            <Time>2019-10-05T14:34:44.000Z</Time>
            <Position>
              <LatitudeDegrees>41.67518760077655315399169921875</LatitudeDegrees>
              <LongitudeDegrees>-5.806119851768016815185546875</LongitudeDegrees>
            </Position>
            <AltitudeMeters>620.20001220703125</AltitudeMeters>
            <DistanceMeters>NAN</DistanceMeters>
          </Trackpoint>
          <Trackpoint>
            <Time>2019-10-05T14:34:47.000Z</Time>
            <Position>
              <LatitudeDegrees>41.67502918280661106109619140625</LatitudeDegrees>
              <LongitudeDegrees>-5.8061200194060802459716796875</LongitudeDegrees>
            </Position>
            <AltitudeMeters>620.20001220703125</AltitudeMeters>
            <DistanceMeters>NAN</DistanceMeters>
          </Trackpoint>
          <Trackpoint>
            <Time>2019-10-05T14:34:54.000Z</Time>
            <Position>
              <LatitudeDegrees>41.67462819255888462066650390625</LatitudeDegrees>
              <LongitudeDegrees>-5.80613418482244014739990234375</LongitudeDegrees>
            </Position>
            <AltitudeMeters>620.4000244140625</AltitudeMeters>
            <DistanceMeters>NAN</DistanceMeters>
          </Trackpoint>
          <Trackpoint>
            <Time>2019-10-05T14:35:04.000Z</Time>
            <Position>
              <LatitudeDegrees>41.67405755259096622467041015625</LatitudeDegrees>
              <LongitudeDegrees>-5.806137286126613616943359375</LongitudeDegrees>
            </Position>
            <AltitudeMeters>620.20001220703125</AltitudeMeters>
            <DistanceMeters>NAN</DistanceMeters>
          </Trackpoint>
          <Trackpoint>
            <Time>2019-10-05T14:35:05.000Z</Time>
            <Position>
              <LatitudeDegrees>41.6740031540393829345703125</LatitudeDegrees>
              <LongitudeDegrees>-5.806136615574359893798828125</LongitudeDegrees>
            </Position>
            <AltitudeMeters>620</AltitudeMeters>
            <DistanceMeters>NAN</DistanceMeters>
          </Trackpoint>
          <Trackpoint>
            <Time>2019-10-05T14:35:09.000Z</Time>
            <Position>
              <LatitudeDegrees>41.6737778484821319580078125</LatitudeDegrees>
              <LongitudeDegrees>-5.80614156089723110198974609375</LongitudeDegrees>
            </Position>
            <AltitudeMeters>621.20001220703125</AltitudeMeters>
            <DistanceMeters>NAN</DistanceMeters>
          </Trackpoint>
          <Trackpoint>
            <Time>2019-10-05T14:35:16.000Z</Time>
            <Position>
              <LatitudeDegrees>41.6733787022531032562255859375</LatitudeDegrees>
              <LongitudeDegrees>-5.80613854341208934783935546875</LongitudeDegrees>
            </Position>
            <AltitudeMeters>621</AltitudeMeters>
            <DistanceMeters>NAN</DistanceMeters>
          </Trackpoint>
          <Trackpoint>
            <Time>2019-10-05T14:35:22.000Z</Time>
            <Position>
              <LatitudeDegrees>41.67303144000470638275146484375</LatitudeDegrees>
              <LongitudeDegrees>-5.80614474602043628692626953125</LongitudeDegrees>
            </Position>
            <AltitudeMeters>620</AltitudeMeters>
            <DistanceMeters>NAN</DistanceMeters>
          </Trackpoint>
          <Trackpoint>
            <Time>2019-10-05T14:35:26.000Z</Time>
            <Position>
              <LatitudeDegrees>41.67280546389520168304443359375</LatitudeDegrees>
              <LongitudeDegrees>-5.8061478473246097564697265625</LongitudeDegrees>
            </Position>
            <AltitudeMeters>619.79998779296875</AltitudeMeters>
            <DistanceMeters>NAN</DistanceMeters>
          </Trackpoint>
          <Trackpoint>
            <Time>2019-10-05T14:35:28.000Z</Time>
            <Position>
              <LatitudeDegrees>41.6726942360401153564453125</LatitudeDegrees>
              <LongitudeDegrees>-5.8061481826007366180419921875</LongitudeDegrees>
            </Position>
            <AltitudeMeters>619</AltitudeMeters>
            <DistanceMeters>NAN</DistanceMeters>
          </Trackpoint>
          <Trackpoint>
            <Time>2019-10-05T14:35:38.000Z</Time>
            <Position>
              <LatitudeDegrees>41.67213298380374908447265625</LatitudeDegrees>
              <LongitudeDegrees>-5.80615161918103694915771484375</LongitudeDegrees>
            </Position>
            <AltitudeMeters>619.5999755859375</AltitudeMeters>
            <DistanceMeters>NAN</DistanceMeters>
          </Trackpoint>
          <Trackpoint>
            <Time>2019-10-05T14:35:39.000Z</Time>
            <Position>
              <LatitudeDegrees>41.6720759868621826171875</LatitudeDegrees>
              <LongitudeDegrees>-5.80615329556167125701904296875</LongitudeDegrees>
            </Position>
            <AltitudeMeters>619.4000244140625</AltitudeMeters>
            <DistanceMeters>NAN</DistanceMeters>
          </Trackpoint>
          <Trackpoint>
            <Time>2019-10-05T14:35:47.000Z</Time>
            <Position>
              <LatitudeDegrees>41.6716322489082813262939453125</LatitudeDegrees>
              <LongitudeDegrees>-5.80615798942744731903076171875</LongitudeDegrees>
            </Position>
            <AltitudeMeters>619.79998779296875</AltitudeMeters>
            <DistanceMeters>NAN</DistanceMeters>
          </Trackpoint>
          <Trackpoint>
            <Time>2019-10-05T14:35:48.000Z</Time>
            <Position>
              <LatitudeDegrees>41.67157709598541259765625</LatitudeDegrees>
              <LongitudeDegrees>-5.80615798942744731903076171875</LongitudeDegrees>
            </Position>
            <AltitudeMeters>619.5999755859375</AltitudeMeters>
            <DistanceMeters>NAN</DistanceMeters>
          </Trackpoint>
          <Trackpoint>
            <Time>2019-10-05T14:35:51.000Z</Time>
            <Position>
              <LatitudeDegrees>41.6714089550077915191650390625</LatitudeDegrees>
              <LongitudeDegrees>-5.80616251565515995025634765625</LongitudeDegrees>
            </Position>
            <AltitudeMeters>620</AltitudeMeters>
            <DistanceMeters>NAN</DistanceMeters>
          </Trackpoint>
          <Trackpoint>
            <Time>2019-10-05T14:36:00.000Z</Time>
            <Position>
              <LatitudeDegrees>41.670909225940704345703125</LatitudeDegrees>
              <LongitudeDegrees>-5.80616913735866546630859375</LongitudeDegrees>
            </Position>
            <AltitudeMeters>619.5999755859375</AltitudeMeters>
            <DistanceMeters>NAN</DistanceMeters>
          </Trackpoint>
          <Trackpoint>
            <Time>2019-10-05T14:36:09.000Z</Time>
            <Position>
              <LatitudeDegrees>41.6704071499407291412353515625</LatitudeDegrees>
              <LongitudeDegrees>-5.80616804771125316619873046875</LongitudeDegrees>
            </Position>
            <AltitudeMeters>619.5999755859375</AltitudeMeters>
            <DistanceMeters>NAN</DistanceMeters>
          </Trackpoint>
          <Trackpoint>
            <Time>2019-10-05T14:36:17.000Z</Time>
            <Position>
              <LatitudeDegrees>41.66994220577180385589599609375</LatitudeDegrees>
              <LongitudeDegrees>-5.80617316067218780517578125</LongitudeDegrees>
            </Position>
            <AltitudeMeters>619.4000244140625</AltitudeMeters>
            <DistanceMeters>NAN</DistanceMeters>
          </Trackpoint>
          <Trackpoint>
            <Time>2019-10-05T14:36:20.000Z</Time>
            <Position>
              <LatitudeDegrees>41.66975830681622028350830078125</LatitudeDegrees>
              <LongitudeDegrees>-5.8061709813773632049560546875</LongitudeDegrees>
            </Position>
            <AltitudeMeters>619</AltitudeMeters>
            <DistanceMeters>NAN</DistanceMeters>
          </Trackpoint>
          <Trackpoint>
            <Time>2019-10-05T14:36:23.000Z</Time>
            <Position>
              <LatitudeDegrees>41.66957071982324123382568359375</LatitudeDegrees>
              <LongitudeDegrees>-5.80617693252861499786376953125</LongitudeDegrees>
            </Position>
            <AltitudeMeters>618.79998779296875</AltitudeMeters>
            <DistanceMeters>NAN</DistanceMeters>
          </Trackpoint>
          <Trackpoint>
            <Time>2019-10-05T14:36:31.000Z</Time>
            <Position>
              <LatitudeDegrees>41.669081635773181915283203125</LatitudeDegrees>
              <LongitudeDegrees>-5.8061880804598331451416015625</LongitudeDegrees>
            </Position>
            <AltitudeMeters>618.79998779296875</AltitudeMeters>
            <DistanceMeters>NAN</DistanceMeters>
          </Trackpoint>
          <Trackpoint>
            <Time>2019-10-05T14:36:40.000Z</Time>
            <Position>
              <LatitudeDegrees>41.66852549649775028228759765625</LatitudeDegrees>
              <LongitudeDegrees>-5.806189589202404022216796875</LongitudeDegrees>
            </Position>
            <AltitudeMeters>618.79998779296875</AltitudeMeters>
            <DistanceMeters>NAN</DistanceMeters>
          </Trackpoint>
          <Trackpoint>
            <Time>2019-10-05T14:36:41.000Z</Time>
            <Position>
              <LatitudeDegrees>41.66846363805234432220458984375</LatitudeDegrees>
              <LongitudeDegrees>-5.806188918650150299072265625</LongitudeDegrees>
            </Position>
            <AltitudeMeters>618.79998779296875</AltitudeMeters>
            <DistanceMeters>NAN</DistanceMeters>
          </Trackpoint>
          <Trackpoint>
            <Time>2019-10-05T14:36:50.000Z</Time>
            <Position>
              <LatitudeDegrees>41.6679133661091327667236328125</LatitudeDegrees>
              <LongitudeDegrees>-5.8061924390494823455810546875</LongitudeDegrees>
            </Position>
            <AltitudeMeters>619.4000244140625</AltitudeMeters>
            <DistanceMeters>NAN</DistanceMeters>
          </Trackpoint>
          <Trackpoint>
            <Time>2019-10-05T14:36:53.000Z</Time>
            <Position>
              <LatitudeDegrees>41.66773173026740550994873046875</LatitudeDegrees>
              <LongitudeDegrees>-5.8061954565346240997314453125</LongitudeDegrees>
            </Position>
            <AltitudeMeters>619.5999755859375</AltitudeMeters>
            <DistanceMeters>NAN</DistanceMeters>
          </Trackpoint>
          <Trackpoint>
            <Time>2019-10-05T14:37:02.000Z</Time>
            <Position>
              <LatitudeDegrees>41.6671941988170146942138671875</LatitudeDegrees>
              <LongitudeDegrees>-5.80619235523045063018798828125</LongitudeDegrees>
            </Position>
            <AltitudeMeters>619</AltitudeMeters>
            <DistanceMeters>NAN</DistanceMeters>
          </Trackpoint>
          <Trackpoint>
            <Time>2019-10-05T14:37:10.000Z</Time>
            <Position>
              <LatitudeDegrees>41.66672439314424991607666015625</LatitudeDegrees>
              <LongitudeDegrees>-5.806205011904239654541015625</LongitudeDegrees>
            </Position>
            <AltitudeMeters>619.5999755859375</AltitudeMeters>
            <DistanceMeters>NAN</DistanceMeters>
          </Trackpoint>
          <Trackpoint>
            <Time>2019-10-05T14:37:19.000Z</Time>
            <Position>
              <LatitudeDegrees>41.6661887057125568389892578125</LatitudeDegrees>
              <LongitudeDegrees>-5.806207023561000823974609375</LongitudeDegrees>
            </Position>
            <AltitudeMeters>619.20001220703125</AltitudeMeters>
            <DistanceMeters>NAN</DistanceMeters>
          </Trackpoint>
          <Trackpoint>
            <Time>2019-10-05T14:37:20.000Z</Time>
            <Position>
              <LatitudeDegrees>41.66613095439970493316650390625</LatitudeDegrees>
              <LongitudeDegrees>-5.8062081970274448394775390625</LongitudeDegrees>
            </Position>
            <AltitudeMeters>619.20001220703125</AltitudeMeters>
            <DistanceMeters>NAN</DistanceMeters>
          </Trackpoint>
          <Trackpoint>
            <Time>2019-10-05T14:37:29.000Z</Time>
            <Position>
              <LatitudeDegrees>41.6656172275543212890625</LatitudeDegrees>
              <LongitudeDegrees>-5.80621632747352123260498046875</LongitudeDegrees>
            </Position>
            <AltitudeMeters>619.79998779296875</AltitudeMeters>
            <DistanceMeters>NAN</DistanceMeters>
          </Trackpoint>
          <Trackpoint>
            <Time>2019-10-05T14:37:31.000Z</Time>
            <Position>
              <LatitudeDegrees>41.66550717316567897796630859375</LatitudeDegrees>
              <LongitudeDegrees>-5.8062175847589969635009765625</LongitudeDegrees>
            </Position>
            <AltitudeMeters>620</AltitudeMeters>
            <DistanceMeters>NAN</DistanceMeters>
          </Trackpoint>
          <Trackpoint>
            <Time>2019-10-05T14:37:38.000Z</Time>
            <Position>
              <LatitudeDegrees>41.665123365819454193115234375</LatitudeDegrees>
              <LongitudeDegrees>-5.806222446262836456298828125</LongitudeDegrees>
            </Position>
            <AltitudeMeters>620.79998779296875</AltitudeMeters>
            <DistanceMeters>NAN</DistanceMeters>
          </Trackpoint>
          <Trackpoint>
            <Time>2019-10-05T14:37:47.000Z</Time>
            <Position>
              <LatitudeDegrees>41.66462481021881103515625</LatitudeDegrees>
              <LongitudeDegrees>-5.80622412264347076416015625</LongitudeDegrees>
            </Position>
            <AltitudeMeters>620.5999755859375</AltitudeMeters>
            <DistanceMeters>NAN</DistanceMeters>
          </Trackpoint>
          <Trackpoint>
            <Time>2019-10-05T14:37:56.000Z</Time>
            <Position>
              <LatitudeDegrees>41.66411611251533031463623046875</LatitudeDegrees>
              <LongitudeDegrees>-5.80623074434697628021240234375</LongitudeDegrees>
            </Position>
            <AltitudeMeters>620.5999755859375</AltitudeMeters>
            <DistanceMeters>NAN</DistanceMeters>
          </Trackpoint>
          <Trackpoint>
            <Time>2019-10-05T14:38:00.000Z</Time>
            <Position>
              <LatitudeDegrees>41.66389650665223598480224609375</LatitudeDegrees>
              <LongitudeDegrees>-5.80623426474630832672119140625</LongitudeDegrees>
            </Position>
            <AltitudeMeters>621.5999755859375</AltitudeMeters>
            <DistanceMeters>NAN</DistanceMeters>
          </Trackpoint>
          <Trackpoint>
            <Time>2019-10-05T14:38:07.000Z</Time>
            <Position>
              <LatitudeDegrees>41.66351311840116977691650390625</LatitudeDegrees>
              <LongitudeDegrees>-5.80624080263078212738037109375</LongitudeDegrees>
            </Position>
            <AltitudeMeters>621.20001220703125</AltitudeMeters>
            <DistanceMeters>NAN</DistanceMeters>
          </Trackpoint>
          <Trackpoint>
            <Time>2019-10-05T14:38:17.000Z</Time>
            <Position>
              <LatitudeDegrees>41.66297617368400096893310546875</LatitudeDegrees>
              <LongitudeDegrees>-5.8062467537820339202880859375</LongitudeDegrees>
            </Position>
            <AltitudeMeters>622</AltitudeMeters>
            <DistanceMeters>NAN</DistanceMeters>
          </Trackpoint>
          <Trackpoint>
            <Time>2019-10-05T14:38:18.000Z</Time>
            <Position>
              <LatitudeDegrees>41.66292387060821056365966796875</LatitudeDegrees>
              <LongitudeDegrees>-5.8062457479536533355712890625</LongitudeDegrees>
            </Position>
            <AltitudeMeters>622.20001220703125</AltitudeMeters>
            <DistanceMeters>NAN</DistanceMeters>
          </Trackpoint>
          <Trackpoint>
            <Time>2019-10-05T14:38:27.000Z</Time>
            <Position>
              <LatitudeDegrees>41.66246001608669757843017578125</LatitudeDegrees>
              <LongitudeDegrees>-5.8062531240284442901611328125</LongitudeDegrees>
            </Position>
            <AltitudeMeters>622.5999755859375</AltitudeMeters>
            <DistanceMeters>NAN</DistanceMeters>
          </Trackpoint>
          <Trackpoint>
            <Time>2019-10-05T14:38:30.000Z</Time>
            <Position>
              <LatitudeDegrees>41.662312410771846771240234375</LatitudeDegrees>
              <LongitudeDegrees>-5.8062548004090785980224609375</LongitudeDegrees>
            </Position>
            <AltitudeMeters>622.5999755859375</AltitudeMeters>
            <DistanceMeters>NAN</DistanceMeters>
          </Trackpoint>
          <Trackpoint>
            <Time>2019-10-05T14:38:40.000Z</Time>
            <Position>
              <LatitudeDegrees>41.6618099994957447052001953125</LatitudeDegrees>
              <LongitudeDegrees>-5.80625505186617374420166015625</LongitudeDegrees>
            </Position>
            <AltitudeMeters>623.5999755859375</AltitudeMeters>
            <DistanceMeters>NAN</DistanceMeters>
          </Trackpoint>
          <Trackpoint>
            <Time>2019-10-05T14:38:42.000Z</Time>
            <Position>
              <LatitudeDegrees>41.66170866228640079498291015625</LatitudeDegrees>
              <LongitudeDegrees>-5.80625873990356922149658203125</LongitudeDegrees>
            </Position>
            <AltitudeMeters>623.5999755859375</AltitudeMeters>
            <DistanceMeters>NAN</DistanceMeters>
          </Trackpoint>
          <Trackpoint>
            <Time>2019-10-05T14:38:50.000Z</Time>
            <Position>
              <LatitudeDegrees>41.6613040678203105926513671875</LatitudeDegrees>
              <LongitudeDegrees>-5.8062638528645038604736328125</LongitudeDegrees>
            </Position>
            <AltitudeMeters>624.20001220703125</AltitudeMeters>
            <DistanceMeters>NAN</DistanceMeters>
          </Trackpoint>
          <Trackpoint>
            <Time>2019-10-05T14:38:51.000Z</Time>
            <Position>
              <LatitudeDegrees>41.66125302202999591827392578125</LatitudeDegrees>
              <LongitudeDegrees>-5.80626460723578929901123046875</LongitudeDegrees>
            </Position>
            <AltitudeMeters>624.5999755859375</AltitudeMeters>
            <DistanceMeters>NAN</DistanceMeters>
          </Trackpoint>
          <Trackpoint>
            <Time>2019-10-05T14:38:57.000Z</Time>
            <Position>
              <LatitudeDegrees>41.66094683110713958740234375</LatitudeDegrees>
              <LongitudeDegrees>-5.80626863054931163787841796875</LongitudeDegrees>
            </Position>
            <AltitudeMeters>625.20001220703125</AltitudeMeters>
            <DistanceMeters>NAN</DistanceMeters>
          </Trackpoint>
          <Trackpoint>
            <Time>2019-10-05T14:38:59.000Z</Time>
            <Position>
              <LatitudeDegrees>41.66084532625973224639892578125</LatitudeDegrees>
              <LongitudeDegrees>-5.80627642571926116943359375</LongitudeDegrees>
            </Position>
            <AltitudeMeters>625.5999755859375</AltitudeMeters>
            <DistanceMeters>NAN</DistanceMeters>
          </Trackpoint>
          <Trackpoint>
            <Time>2019-10-05T14:39:03.000Z</Time>
            <Position>
              <LatitudeDegrees>41.66064240038394927978515625</LatitudeDegrees>
              <LongitudeDegrees>-5.80627097748219966888427734375</LongitudeDegrees>
            </Position>
            <AltitudeMeters>625.5999755859375</AltitudeMeters>
            <DistanceMeters>NAN</DistanceMeters>
          </Trackpoint>
          <Trackpoint>
            <Time>2019-10-05T14:39:07.000Z</Time>
            <Position>
              <LatitudeDegrees>41.66043461300432682037353515625</LatitudeDegrees>
              <LongitudeDegrees>-5.80627416260540485382080078125</LongitudeDegrees>
            </Position>
            <AltitudeMeters>625.5999755859375</AltitudeMeters>
            <DistanceMeters>NAN</DistanceMeters>
          </Trackpoint>
          <Trackpoint>
            <Time>2019-10-05T14:39:15.000Z</Time>
            <Position>
              <LatitudeDegrees>41.66002188809216022491455078125</LatitudeDegrees>
              <LongitudeDegrees>-5.80627349205315113067626953125</LongitudeDegrees>
            </Position>
            <AltitudeMeters>626.4000244140625</AltitudeMeters>
            <DistanceMeters>NAN</DistanceMeters>
          </Trackpoint>
          <Trackpoint>
            <Time>2019-10-05T14:39:24.000Z</Time>
            <Position>
              <LatitudeDegrees>41.659566499292850494384765625</LatitudeDegrees>
              <LongitudeDegrees>-5.806280113756656646728515625</LongitudeDegrees>
            </Position>
            <AltitudeMeters>627.20001220703125</AltitudeMeters>
            <DistanceMeters>NAN</DistanceMeters>
          </Trackpoint>
          <Trackpoint>
            <Time>2019-10-05T14:39:35.000Z</Time>
            <Position>
              <LatitudeDegrees>41.65900885127484798431396484375</LatitudeDegrees>
              <LongitudeDegrees>-5.8062960393726825714111328125</LongitudeDegrees>
            </Position>
            <AltitudeMeters>628</AltitudeMeters>
            <DistanceMeters>NAN</DistanceMeters>
          </Trackpoint>
          <Trackpoint>
            <Time>2019-10-05T14:39:38.000Z</Time>
            <Position>
              <LatitudeDegrees>41.65885579772293567657470703125</LatitudeDegrees>
              <LongitudeDegrees>-5.806305594742298126220703125</LongitudeDegrees>
            </Position>
            <AltitudeMeters>628.20001220703125</AltitudeMeters>
            <DistanceMeters>NAN</DistanceMeters>
          </Trackpoint>
          <Trackpoint>
            <Time>2019-10-05T14:39:43.000Z</Time>
            <Position>
              <LatitudeDegrees>41.6586094535887241363525390625</LatitudeDegrees>
              <LongitudeDegrees>-5.8063084445893764495849609375</LongitudeDegrees>
            </Position>
            <AltitudeMeters>629</AltitudeMeters>
            <DistanceMeters>NAN</DistanceMeters>
          </Trackpoint>
          <Trackpoint>
            <Time>2019-10-05T14:39:51.000Z</Time>
            <Position>
              <LatitudeDegrees>41.65819882415235042572021484375</LatitudeDegrees>
              <LongitudeDegrees>-5.806312970817089080810546875</LongitudeDegrees>
            </Position>
            <AltitudeMeters>628.79998779296875</AltitudeMeters>
            <DistanceMeters>NAN</DistanceMeters>
          </Trackpoint>
          <Trackpoint>
            <Time>2019-10-05T14:40:01.000Z</Time>
            <Position>
              <LatitudeDegrees>41.65764746256172657012939453125</LatitudeDegrees>
              <LongitudeDegrees>-5.8063267171382904052734375</LongitudeDegrees>
            </Position>
            <AltitudeMeters>627.79998779296875</AltitudeMeters>
            <DistanceMeters>NAN</DistanceMeters>
          </Trackpoint>
          <Trackpoint>
            <Time>2019-10-05T14:40:02.000Z</Time>
            <Position>
              <LatitudeDegrees>41.6575861908495426177978515625</LatitudeDegrees>
              <LongitudeDegrees>-5.8063288964331150054931640625</LongitudeDegrees>
            </Position>
            <AltitudeMeters>627.5999755859375</AltitudeMeters>
            <DistanceMeters>NAN</DistanceMeters>
          </Trackpoint>
          <Trackpoint>
            <Time>2019-10-05T14:40:04.000Z</Time>
            <Position>
              <LatitudeDegrees>41.6574619710445404052734375</LatitudeDegrees>
              <LongitudeDegrees>-5.80633149482309818267822265625</LongitudeDegrees>
            </Position>
            <AltitudeMeters>627.20001220703125</AltitudeMeters>
            <DistanceMeters>NAN</DistanceMeters>
          </Trackpoint>
          <Trackpoint>
            <Time>2019-10-05T14:40:09.000Z</Time>
            <Position>
              <LatitudeDegrees>41.6571412794291973114013671875</LatitudeDegrees>
              <LongitudeDegrees>-5.806336440145969390869140625</LongitudeDegrees>
            </Position>
            <AltitudeMeters>626.4000244140625</AltitudeMeters>
            <DistanceMeters>NAN</DistanceMeters>
          </Trackpoint>
          <Trackpoint>
            <Time>2019-10-05T14:40:10.000Z</Time>
            <Position>
              <LatitudeDegrees>41.65707648731768131256103515625</LatitudeDegrees>
              <LongitudeDegrees>-5.80633811652660369873046875</LongitudeDegrees>
            </Position>
            <AltitudeMeters>625.79998779296875</AltitudeMeters>
            <DistanceMeters>NAN</DistanceMeters>
          </Trackpoint>
          <Trackpoint>
            <Time>2019-10-05T14:40:14.000Z</Time>
            <Position>
              <LatitudeDegrees>41.656806506216526031494140625</LatitudeDegrees>
              <LongitudeDegrees>-5.806348510086536407470703125</LongitudeDegrees>
            </Position>
            <AltitudeMeters>624.79998779296875</AltitudeMeters>
            <DistanceMeters>NAN</DistanceMeters>
          </Trackpoint>
          <Trackpoint>
            <Time>2019-10-05T14:40:16.000Z</Time>
            <Position>
              <LatitudeDegrees>41.65666510351002216339111328125</LatitudeDegrees>
              <LongitudeDegrees>-5.8063399605453014373779296875</LongitudeDegrees>
            </Position>
            <AltitudeMeters>623.79998779296875</AltitudeMeters>
            <DistanceMeters>NAN</DistanceMeters>
          </Trackpoint>
          <Trackpoint>
            <Time>2019-10-05T14:40:17.000Z</Time>
            <Position>
              <LatitudeDegrees>41.6565934382379055023193359375</LatitudeDegrees>
              <LongitudeDegrees>-5.8063379488885402679443359375</LongitudeDegrees>
            </Position>
            <AltitudeMeters>623.4000244140625</AltitudeMeters>
            <DistanceMeters>NAN</DistanceMeters>
          </Trackpoint>
          <Trackpoint>
            <Time>2019-10-05T14:40:20.000Z</Time>
            <Position>
              <LatitudeDegrees>41.65636754594743251800537109375</LatitudeDegrees>
              <LongitudeDegrees>-5.80632261000573635101318359375</LongitudeDegrees>
            </Position>
            <AltitudeMeters>621.79998779296875</AltitudeMeters>
            <DistanceMeters>NAN</DistanceMeters>
          </Trackpoint>
          <Trackpoint>
            <Time>2019-10-05T14:40:23.000Z</Time>
            <Position>
              <LatitudeDegrees>41.65613167919218540191650390625</LatitudeDegrees>
              <LongitudeDegrees>-5.80629327334463596343994140625</LongitudeDegrees>
            </Position>
            <AltitudeMeters>620.79998779296875</AltitudeMeters>
            <DistanceMeters>NAN</DistanceMeters>
          </Trackpoint>
          <Trackpoint>
            <Time>2019-10-05T14:40:24.000Z</Time>
            <Position>
              <LatitudeDegrees>41.6560509614646434783935546875</LatitudeDegrees>
              <LongitudeDegrees>-5.80627583898603916168212890625</LongitudeDegrees>
            </Position>
            <AltitudeMeters>620.20001220703125</AltitudeMeters>
            <DistanceMeters>NAN</DistanceMeters>
          </Trackpoint>
          <Trackpoint>
            <Time>2019-10-05T14:40:25.000Z</Time>
            <Position>
              <LatitudeDegrees>41.655966304242610931396484375</LatitudeDegrees>
              <LongitudeDegrees>-5.80625924281775951385498046875</LongitudeDegrees>
            </Position>
            <AltitudeMeters>619.5999755859375</AltitudeMeters>
            <DistanceMeters>NAN</DistanceMeters>
          </Trackpoint>
          <Trackpoint>
            <Time>2019-10-05T14:40:28.000Z</Time>
            <Position>
              <LatitudeDegrees>41.65571518242359161376953125</LatitudeDegrees>
              <LongitudeDegrees>-5.80619788728654384613037109375</LongitudeDegrees>
            </Position>
            <AltitudeMeters>618.4000244140625</AltitudeMeters>
            <DistanceMeters>NAN</DistanceMeters>
          </Trackpoint>
          <Trackpoint>
            <Time>2019-10-05T14:40:30.000Z</Time>
            <Position>
              <LatitudeDegrees>41.6555388271808624267578125</LatitudeDegrees>
              <LongitudeDegrees>-5.80613695085048675537109375</LongitudeDegrees>
            </Position>
            <AltitudeMeters>617.4000244140625</AltitudeMeters>
            <DistanceMeters>NAN</DistanceMeters>
          </Trackpoint>
          <Trackpoint>
            <Time>2019-10-05T14:40:31.000Z</Time>
            <Position>
              <LatitudeDegrees>41.6554484702646732330322265625</LatitudeDegrees>
              <LongitudeDegrees>-5.80610208213329315185546875</LongitudeDegrees>
            </Position>
            <AltitudeMeters>616.79998779296875</AltitudeMeters>
            <DistanceMeters>NAN</DistanceMeters>
          </Trackpoint>
          <Trackpoint>
            <Time>2019-10-05T14:40:32.000Z</Time>
            <Position>
              <LatitudeDegrees>41.655360125005245208740234375</LatitudeDegrees>
              <LongitudeDegrees>-5.80606293864548206329345703125</LongitudeDegrees>
            </Position>
            <AltitudeMeters>615.79998779296875</AltitudeMeters>
            <DistanceMeters>NAN</DistanceMeters>
          </Trackpoint>
          <Trackpoint>
            <Time>2019-10-05T14:40:34.000Z</Time>
            <Position>
              <LatitudeDegrees>41.65518435649573802947998046875</LatitudeDegrees>
              <LongitudeDegrees>-5.80597509630024433135986328125</LongitudeDegrees>
            </Position>
            <AltitudeMeters>614.5999755859375</AltitudeMeters>
            <DistanceMeters>NAN</DistanceMeters>
          </Trackpoint>
          <Trackpoint>
            <Time>2019-10-05T14:40:36.000Z</Time>
            <Position>
              <LatitudeDegrees>41.65501085110008716583251953125</LatitudeDegrees>
              <LongitudeDegrees>-5.80588172189891338348388671875</LongitudeDegrees>
            </Position>
            <AltitudeMeters>613.20001220703125</AltitudeMeters>
            <DistanceMeters>NAN</DistanceMeters>
          </Trackpoint>
          <Trackpoint>
            <Time>2019-10-05T14:40:37.000Z</Time>
            <Position>
              <LatitudeDegrees>41.65492451749742031097412109375</LatitudeDegrees>
              <LongitudeDegrees>-5.80582589842379093170166015625</LongitudeDegrees>
            </Position>
            <AltitudeMeters>613</AltitudeMeters>
            <DistanceMeters>NAN</DistanceMeters>
          </Trackpoint>
          <Trackpoint>
            <Time>2019-10-05T14:40:40.000Z</Time>
            <Position>
              <LatitudeDegrees>41.65466618724167346954345703125</LatitudeDegrees>
              <LongitudeDegrees>-5.8056469447910785675048828125</LongitudeDegrees>
            </Position>
            <AltitudeMeters>611.79998779296875</AltitudeMeters>
            <DistanceMeters>NAN</DistanceMeters>
          </Trackpoint>
          <Trackpoint>
            <Time>2019-10-05T14:40:43.000Z</Time>
            <Position>
              <LatitudeDegrees>41.654415316879749298095703125</LatitudeDegrees>
              <LongitudeDegrees>-5.80544619821012020111083984375</LongitudeDegrees>
            </Position>
            <AltitudeMeters>610.5999755859375</AltitudeMeters>
            <DistanceMeters>NAN</DistanceMeters>
          </Trackpoint>
          <Trackpoint>
            <Time>2019-10-05T14:40:45.000Z</Time>
            <Position>
              <LatitudeDegrees>41.65424658916890621185302734375</LatitudeDegrees>
              <LongitudeDegrees>-5.8053029514849185943603515625</LongitudeDegrees>
            </Position>
            <AltitudeMeters>609.4000244140625</AltitudeMeters>
            <DistanceMeters>NAN</DistanceMeters>
          </Trackpoint>
          <Trackpoint>
            <Time>2019-10-05T14:40:48.000Z</Time>
            <Position>
              <LatitudeDegrees>41.65399194695055484771728515625</LatitudeDegrees>
              <LongitudeDegrees>-5.80508686602115631103515625</LongitudeDegrees>
            </Position>
            <AltitudeMeters>608.20001220703125</AltitudeMeters>
            <DistanceMeters>NAN</DistanceMeters>
          </Trackpoint>
          <Trackpoint>
            <Time>2019-10-05T14:40:51.000Z</Time>
            <Position>
              <LatitudeDegrees>41.6537283360958099365234375</LatitudeDegrees>
              <LongitudeDegrees>-5.80488435924053192138671875</LongitudeDegrees>
            </Position>
            <AltitudeMeters>606.79998779296875</AltitudeMeters>
            <DistanceMeters>NAN</DistanceMeters>
          </Trackpoint>
          <Trackpoint>
            <Time>2019-10-05T14:40:52.000Z</Time>
            <Position>
              <LatitudeDegrees>41.65363848209381103515625</LatitudeDegrees>
              <LongitudeDegrees>-5.8048228360712528228759765625</LongitudeDegrees>
            </Position>
            <AltitudeMeters>606.20001220703125</AltitudeMeters>
            <DistanceMeters>NAN</DistanceMeters>
          </Trackpoint>
          <Trackpoint>
            <Time>2019-10-05T14:40:54.000Z</Time>
            <Position>
              <LatitudeDegrees>41.65345801971852779388427734375</LatitudeDegrees>
              <LongitudeDegrees>-5.80471730791032314300537109375</LongitudeDegrees>
            </Position>
            <AltitudeMeters>605.5999755859375</AltitudeMeters>
            <DistanceMeters>NAN</DistanceMeters>
          </Trackpoint>
          <Trackpoint>
            <Time>2019-10-05T14:40:56.000Z</Time>
            <Position>
              <LatitudeDegrees>41.653276383876800537109375</LatitudeDegrees>
              <LongitudeDegrees>-5.80463516525924205780029296875</LongitudeDegrees>
            </Position>
            <AltitudeMeters>603.79998779296875</AltitudeMeters>
            <DistanceMeters>NAN</DistanceMeters>
          </Trackpoint>
          <Trackpoint>
            <Time>2019-10-05T14:40:57.000Z</Time>
            <Position>
              <LatitudeDegrees>41.65318745188415050506591796875</LatitudeDegrees>
              <LongitudeDegrees>-5.80460448749363422393798828125</LongitudeDegrees>
            </Position>
            <AltitudeMeters>603.5999755859375</AltitudeMeters>
            <DistanceMeters>NAN</DistanceMeters>
          </Trackpoint>
          <Trackpoint>
            <Time>2019-10-05T14:41:02.000Z</Time>
            <Position>
              <LatitudeDegrees>41.65277975611388683319091796875</LatitudeDegrees>
              <LongitudeDegrees>-5.80447523854672908782958984375</LongitudeDegrees>
            </Position>
            <AltitudeMeters>605.4000244140625</AltitudeMeters>
            <DistanceMeters>NAN</DistanceMeters>
          </Trackpoint>
          <Trackpoint>
            <Time>2019-10-05T14:41:03.000Z</Time>
            <Position>
              <LatitudeDegrees>41.65270599536597728729248046875</LatitudeDegrees>
              <LongitudeDegrees>-5.80445042811334133148193359375</LongitudeDegrees>
            </Position>
            <AltitudeMeters>606.20001220703125</AltitudeMeters>
            <DistanceMeters>NAN</DistanceMeters>
          </Trackpoint>
          <Trackpoint>
            <Time>2019-10-05T14:41:07.000Z</Time>
            <Position>
              <LatitudeDegrees>41.652433834969997406005859375</LatitudeDegrees>
              <LongitudeDegrees>-5.8043541200459003448486328125</LongitudeDegrees>
            </Position>
            <AltitudeMeters>606.79998779296875</AltitudeMeters>
            <DistanceMeters>NAN</DistanceMeters>
          </Trackpoint>
          <Trackpoint>
            <Time>2019-10-05T14:41:09.000Z</Time>
            <Position>
              <LatitudeDegrees>41.6523040831089019775390625</LatitudeDegrees>
              <LongitudeDegrees>-5.804305337369441986083984375</LongitudeDegrees>
            </Position>
            <AltitudeMeters>607.20001220703125</AltitudeMeters>
            <DistanceMeters>NAN</DistanceMeters>
          </Trackpoint>
          <Trackpoint>
            <Time>2019-10-05T14:41:15.000Z</Time>
            <Position>
              <LatitudeDegrees>41.65192656219005584716796875</LatitudeDegrees>
              <LongitudeDegrees>-5.80418673343956470489501953125</LongitudeDegrees>
            </Position>
            <AltitudeMeters>606.20001220703125</AltitudeMeters>
            <DistanceMeters>NAN</DistanceMeters>
          </Trackpoint>
          <Trackpoint>
            <Time>2019-10-05T14:41:19.000Z</Time>
            <Position>
              <LatitudeDegrees>41.6516849957406520843505859375</LatitudeDegrees>
              <LongitudeDegrees>-5.8041110448539257049560546875</LongitudeDegrees>
            </Position>
            <AltitudeMeters>606.79998779296875</AltitudeMeters>
            <DistanceMeters>NAN</DistanceMeters>
          </Trackpoint>
          <Trackpoint>
            <Time>2019-10-05T14:41:24.000Z</Time>
            <Position>
              <LatitudeDegrees>41.65138366632163524627685546875</LatitudeDegrees>
              <LongitudeDegrees>-5.8039987273514270782470703125</LongitudeDegrees>
            </Position>
            <AltitudeMeters>606.4000244140625</AltitudeMeters>
            <DistanceMeters>NAN</DistanceMeters>
          </Trackpoint>
          <Trackpoint>
            <Time>2019-10-05T14:41:29.000Z</Time>
            <Position>
              <LatitudeDegrees>41.65109247900545597076416015625</LatitudeDegrees>
              <LongitudeDegrees>-5.8039035089313983917236328125</LongitudeDegrees>
            </Position>
            <AltitudeMeters>606.5999755859375</AltitudeMeters>
            <DistanceMeters>NAN</DistanceMeters>
          </Trackpoint>
          <Trackpoint>
            <Time>2019-10-05T14:41:38.000Z</Time>
            <Position>
              <LatitudeDegrees>41.65062208659946918487548828125</LatitudeDegrees>
              <LongitudeDegrees>-5.803730003535747528076171875</LongitudeDegrees>
            </Position>
            <AltitudeMeters>607</AltitudeMeters>
            <DistanceMeters>NAN</DistanceMeters>
          </Trackpoint>
          <Trackpoint>
            <Time>2019-10-05T14:41:44.000Z</Time>
            <Position>
              <LatitudeDegrees>41.6503113694489002227783203125</LatitudeDegrees>
              <LongitudeDegrees>-5.80364710651338100433349609375</LongitudeDegrees>
            </Position>
            <AltitudeMeters>607</AltitudeMeters>
            <DistanceMeters>NAN</DistanceMeters>
          </Trackpoint>
          <Trackpoint>
            <Time>2019-10-05T14:41:54.000Z</Time>
            <Position>
              <LatitudeDegrees>41.64979143999516963958740234375</LatitudeDegrees>
              <LongitudeDegrees>-5.80347427166998386383056640625</LongitudeDegrees>
            </Position>
            <AltitudeMeters>606.5999755859375</AltitudeMeters>
            <DistanceMeters>NAN</DistanceMeters>
          </Trackpoint>
          <Trackpoint>
            <Time>2019-10-05T14:41:57.000Z</Time>
            <Position>
              <LatitudeDegrees>41.64964492432773113250732421875</LatitudeDegrees>
              <LongitudeDegrees>-5.80343236215412616729736328125</LongitudeDegrees>
            </Position>
            <AltitudeMeters>607.79998779296875</AltitudeMeters>
            <DistanceMeters>NAN</DistanceMeters>
          </Trackpoint>
          <Trackpoint>
            <Time>2019-10-05T14:41:58.000Z</Time>
            <Position>
              <LatitudeDegrees>41.64959664456546306610107421875</LatitudeDegrees>
              <LongitudeDegrees>-5.803418867290019989013671875</LongitudeDegrees>
            </Position>
            <AltitudeMeters>608</AltitudeMeters>
            <DistanceMeters>NAN</DistanceMeters>
          </Trackpoint>
          <Trackpoint>
            <Time>2019-10-05T14:42:01.000Z</Time>
            <Position>
              <LatitudeDegrees>41.64945867843925952911376953125</LatitudeDegrees>
              <LongitudeDegrees>-5.80337226390838623046875</LongitudeDegrees>
            </Position>
            <AltitudeMeters>607.5999755859375</AltitudeMeters>
            <DistanceMeters>NAN</DistanceMeters>
          </Trackpoint>
          <Trackpoint>
            <Time>2019-10-05T14:42:10.000Z</Time>
            <Position>
              <LatitudeDegrees>41.64906271733343601226806640625</LatitudeDegrees>
              <LongitudeDegrees>-5.80322382040321826934814453125</LongitudeDegrees>
            </Position>
            <AltitudeMeters>608.4000244140625</AltitudeMeters>
            <DistanceMeters>NAN</DistanceMeters>
          </Trackpoint>
          <Trackpoint>
            <Time>2019-10-05T14:42:17.000Z</Time>
            <Position>
              <LatitudeDegrees>41.6487553529441356658935546875</LatitudeDegrees>
              <LongitudeDegrees>-5.80311887897551059722900390625</LongitudeDegrees>
            </Position>
            <AltitudeMeters>608.5999755859375</AltitudeMeters>
            <DistanceMeters>NAN</DistanceMeters>
          </Trackpoint>
          <Trackpoint>
            <Time>2019-10-05T14:42:18.000Z</Time>
            <Position>
              <LatitudeDegrees>41.64871017448604106903076171875</LatitudeDegrees>
              <LongitudeDegrees>-5.80310328863561153411865234375</LongitudeDegrees>
            </Position>
            <AltitudeMeters>608.5999755859375</AltitudeMeters>
            <DistanceMeters>NAN</DistanceMeters>
          </Trackpoint>
          <Trackpoint>
            <Time>2019-10-05T14:42:22.000Z</Time>
            <Position>
              <LatitudeDegrees>41.6485313884913921356201171875</LatitudeDegrees>
              <LongitudeDegrees>-5.8030431903898715972900390625</LongitudeDegrees>
            </Position>
            <AltitudeMeters>609</AltitudeMeters>
            <DistanceMeters>NAN</DistanceMeters>
          </Trackpoint>
          <Trackpoint>
            <Time>2019-10-05T14:42:28.000Z</Time>
            <Position>
              <LatitudeDegrees>41.64826090447604656219482421875</LatitudeDegrees>
              <LongitudeDegrees>-5.80295023508369922637939453125</LongitudeDegrees>
            </Position>
            <AltitudeMeters>608</AltitudeMeters>
            <DistanceMeters>NAN</DistanceMeters>
          </Trackpoint>
          <Trackpoint>
            <Time>2019-10-05T14:42:31.000Z</Time>
            <Position>
              <LatitudeDegrees>41.6481320746243000030517578125</LatitudeDegrees>
              <LongitudeDegrees>-5.802907906472682952880859375</LongitudeDegrees>
            </Position>
            <AltitudeMeters>609.4000244140625</AltitudeMeters>
            <DistanceMeters>NAN</DistanceMeters>
          </Trackpoint>
          <Trackpoint>
            <Time>2019-10-05T14:42:38.000Z</Time>
            <Position>
              <LatitudeDegrees>41.64781532250344753265380859375</LatitudeDegrees>
              <LongitudeDegrees>-5.80280204303562641143798828125</LongitudeDegrees>
            </Position>
            <AltitudeMeters>610.20001220703125</AltitudeMeters>
            <DistanceMeters>NAN</DistanceMeters>
          </Trackpoint>
          <Trackpoint>
            <Time>2019-10-05T14:42:41.000Z</Time>
            <Position>
              <LatitudeDegrees>41.64767433889210224151611328125</LatitudeDegrees>
              <LongitudeDegrees>-5.80275091342628002166748046875</LongitudeDegrees>
            </Position>
            <AltitudeMeters>610.4000244140625</AltitudeMeters>
            <DistanceMeters>NAN</DistanceMeters>
          </Trackpoint>
          <Trackpoint>
            <Time>2019-10-05T14:42:48.000Z</Time>
            <Position>
              <LatitudeDegrees>41.64735482074320316314697265625</LatitudeDegrees>
              <LongitudeDegrees>-5.8026411943137645721435546875</LongitudeDegrees>
            </Position>
            <AltitudeMeters>610.20001220703125</AltitudeMeters>
            <DistanceMeters>NAN</DistanceMeters>
          </Trackpoint>
          <Trackpoint>
            <Time>2019-10-05T14:42:53.000Z</Time>
            <Position>
              <LatitudeDegrees>41.647133789956569671630859375</LatitudeDegrees>
              <LongitudeDegrees>-5.8025644160807132720947265625</LongitudeDegrees>
            </Position>
            <AltitudeMeters>611.4000244140625</AltitudeMeters>
            <DistanceMeters>NAN</DistanceMeters>
          </Trackpoint>
          <Trackpoint>
            <Time>2019-10-05T14:42:58.000Z</Time>
            <Position>
              <LatitudeDegrees>41.646908819675445556640625</LatitudeDegrees>
              <LongitudeDegrees>-5.8024883083999156951904296875</LongitudeDegrees>
            </Position>
            <AltitudeMeters>610.79998779296875</AltitudeMeters>
            <DistanceMeters>NAN</DistanceMeters>
          </Trackpoint>
          <Trackpoint>
            <Time>2019-10-05T14:43:07.000Z</Time>
            <Position>
              <LatitudeDegrees>41.64650405757129192352294921875</LatitudeDegrees>
              <LongitudeDegrees>-5.80235193483531475067138671875</LongitudeDegrees>
            </Position>
            <AltitudeMeters>611.4000244140625</AltitudeMeters>
            <DistanceMeters>NAN</DistanceMeters>
          </Trackpoint>
          <Trackpoint>
            <Time>2019-10-05T14:43:15.000Z</Time>
            <Position>
              <LatitudeDegrees>41.64614413864910602569580078125</LatitudeDegrees>
              <LongitudeDegrees>-5.8022321574389934539794921875</LongitudeDegrees>
            </Position>
            <AltitudeMeters>612.20001220703125</AltitudeMeters>
            <DistanceMeters>NAN</DistanceMeters>
          </Trackpoint>
          <Trackpoint>
            <Time>2019-10-05T14:43:19.000Z</Time>
            <Position>
              <LatitudeDegrees>41.64596359245479106903076171875</LatitudeDegrees>
              <LongitudeDegrees>-5.802169628441333770751953125</LongitudeDegrees>
            </Position>
            <AltitudeMeters>612</AltitudeMeters>
            <DistanceMeters>NAN</DistanceMeters>
          </Trackpoint>
          <Trackpoint>
            <Time>2019-10-05T14:43:26.000Z</Time>
            <Position>
              <LatitudeDegrees>41.64564524777233600616455078125</LatitudeDegrees>
              <LongitudeDegrees>-5.802060998976230621337890625</LongitudeDegrees>
            </Position>
            <AltitudeMeters>612.5999755859375</AltitudeMeters>
            <DistanceMeters>NAN</DistanceMeters>
          </Trackpoint>
          <Trackpoint>
            <Time>2019-10-05T14:43:31.000Z</Time>
            <Position>
              <LatitudeDegrees>41.64541876874864101409912109375</LatitudeDegrees>
              <LongitudeDegrees>-5.80198111943900585174560546875</LongitudeDegrees>
            </Position>
            <AltitudeMeters>613.20001220703125</AltitudeMeters>
            <DistanceMeters>NAN</DistanceMeters>
          </Trackpoint>
          <Trackpoint>
            <Time>2019-10-05T14:43:39.000Z</Time>
            <Position>
              <LatitudeDegrees>41.6450492106378078460693359375</LatitudeDegrees>
              <LongitudeDegrees>-5.80186528153717517852783203125</LongitudeDegrees>
            </Position>
            <AltitudeMeters>612.5999755859375</AltitudeMeters>
            <DistanceMeters>NAN</DistanceMeters>
          </Trackpoint>
          <Trackpoint>
            <Time>2019-10-05T14:43:45.000Z</Time>
            <Position>
              <LatitudeDegrees>41.64477889426052570343017578125</LatitudeDegrees>
              <LongitudeDegrees>-5.80176117829978466033935546875</LongitudeDegrees>
            </Position>
            <AltitudeMeters>612.5999755859375</AltitudeMeters>
            <DistanceMeters>NAN</DistanceMeters>
          </Trackpoint>
          <Trackpoint>
            <Time>2019-10-05T14:43:48.000Z</Time>
            <Position>
              <LatitudeDegrees>41.64463791064918041229248046875</LatitudeDegrees>
              <LongitudeDegrees>-5.80172002315521240234375</LongitudeDegrees>
            </Position>
            <AltitudeMeters>612.79998779296875</AltitudeMeters>
            <DistanceMeters>NAN</DistanceMeters>
          </Trackpoint>
          <Trackpoint>
            <Time>2019-10-05T14:43:54.000Z</Time>
            <Position>
              <LatitudeDegrees>41.64436734281480312347412109375</LatitudeDegrees>
              <LongitudeDegrees>-5.801631510257720947265625</LongitudeDegrees>
            </Position>
            <AltitudeMeters>614</AltitudeMeters>
            <DistanceMeters>NAN</DistanceMeters>
          </Trackpoint>
          <Trackpoint>
            <Time>2019-10-05T14:44:00.000Z</Time>
            <Position>
              <LatitudeDegrees>41.644092835485935211181640625</LatitudeDegrees>
              <LongitudeDegrees>-5.80153335817158222198486328125</LongitudeDegrees>
            </Position>
            <AltitudeMeters>613.79998779296875</AltitudeMeters>
            <DistanceMeters>NAN</DistanceMeters>
          </Trackpoint>
          <Trackpoint>
            <Time>2019-10-05T14:44:12.000Z</Time>
            <Position>
              <LatitudeDegrees>41.643545329570770263671875</LatitudeDegrees>
              <LongitudeDegrees>-5.8013512194156646728515625</LongitudeDegrees>
            </Position>
            <AltitudeMeters>614</AltitudeMeters>
            <DistanceMeters>NAN</DistanceMeters>
          </Trackpoint>
          <Trackpoint>
            <Time>2019-10-05T14:44:13.000Z</Time>
            <Position>
              <LatitudeDegrees>41.64348942227661609649658203125</LatitudeDegrees>
              <LongitudeDegrees>-5.8013312704861164093017578125</LongitudeDegrees>
            </Position>
            <AltitudeMeters>614.20001220703125</AltitudeMeters>
            <DistanceMeters>NAN</DistanceMeters>
          </Trackpoint>
          <Trackpoint>
            <Time>2019-10-05T14:44:15.000Z</Time>
            <Position>
              <LatitudeDegrees>41.6434050165116786956787109375</LatitudeDegrees>
              <LongitudeDegrees>-5.8013047836720943450927734375</LongitudeDegrees>
            </Position>
            <AltitudeMeters>615</AltitudeMeters>
            <DistanceMeters>NAN</DistanceMeters>
          </Trackpoint>
          <Trackpoint>
            <Time>2019-10-05T14:44:24.000Z</Time>
            <Position>
              <LatitudeDegrees>41.64299723692238330841064453125</LatitudeDegrees>
              <LongitudeDegrees>-5.8011673204600811004638671875</LongitudeDegrees>
            </Position>
            <AltitudeMeters>614.5999755859375</AltitudeMeters>
            <DistanceMeters>NAN</DistanceMeters>
          </Trackpoint>
          <Trackpoint>
            <Time>2019-10-05T14:44:36.000Z</Time>
            <Position>
              <LatitudeDegrees>41.64243984036147594451904296875</LatitudeDegrees>
              <LongitudeDegrees>-5.80098115839064121246337890625</LongitudeDegrees>
            </Position>
            <AltitudeMeters>615.20001220703125</AltitudeMeters>
            <DistanceMeters>NAN</DistanceMeters>
          </Trackpoint>
          <Trackpoint>
            <Time>2019-10-05T14:44:37.000Z</Time>
            <Position>
              <LatitudeDegrees>41.6423892974853515625</LatitudeDegrees>
              <LongitudeDegrees>-5.800963975489139556884765625</LongitudeDegrees>
            </Position>
            <AltitudeMeters>615.4000244140625</AltitudeMeters>
            <DistanceMeters>NAN</DistanceMeters>
          </Trackpoint>
          <Trackpoint>
            <Time>2019-10-05T14:44:49.000Z</Time>
            <Position>
              <LatitudeDegrees>41.6418434679508209228515625</LatitudeDegrees>
              <LongitudeDegrees>-5.80077462829649448394775390625</LongitudeDegrees>
            </Position>
            <AltitudeMeters>615.5999755859375</AltitudeMeters>
            <DistanceMeters>NAN</DistanceMeters>
          </Trackpoint>
          <Trackpoint>
            <Time>2019-10-05T14:44:52.000Z</Time>
            <Position>
              <LatitudeDegrees>41.6417081840336322784423828125</LatitudeDegrees>
              <LongitudeDegrees>-5.80072693526744842529296875</LongitudeDegrees>
            </Position>
            <AltitudeMeters>615.79998779296875</AltitudeMeters>
            <DistanceMeters>NAN</DistanceMeters>
          </Trackpoint>
          <Trackpoint>
            <Time>2019-10-05T14:44:58.000Z</Time>
            <Position>
              <LatitudeDegrees>41.64141724817454814910888671875</LatitudeDegrees>
              <LongitudeDegrees>-5.80062978900969028472900390625</LongitudeDegrees>
            </Position>
            <AltitudeMeters>616.20001220703125</AltitudeMeters>
            <DistanceMeters>NAN</DistanceMeters>
          </Trackpoint>
          <Trackpoint>
            <Time>2019-10-05T14:44:59.000Z</Time>
            <Position>
              <LatitudeDegrees>41.6413698904216289520263671875</LatitudeDegrees>
              <LongitudeDegrees>-5.800612606108188629150390625</LongitudeDegrees>
            </Position>
            <AltitudeMeters>615.5999755859375</AltitudeMeters>
            <DistanceMeters>NAN</DistanceMeters>
          </Trackpoint>
          <Trackpoint>
            <Time>2019-10-05T14:45:07.000Z</Time>
            <Position>
              <LatitudeDegrees>41.6409628652036190032958984375</LatitudeDegrees>
              <LongitudeDegrees>-5.80047723837196826934814453125</LongitudeDegrees>
            </Position>
            <AltitudeMeters>616.79998779296875</AltitudeMeters>
            <DistanceMeters>NAN</DistanceMeters>
          </Trackpoint>
          <Trackpoint>
            <Time>2019-10-05T14:45:13.000Z</Time>
            <Position>
              <LatitudeDegrees>41.64066589437425136566162109375</LatitudeDegrees>
              <LongitudeDegrees>-5.80037020146846771240234375</LongitudeDegrees>
            </Position>
            <AltitudeMeters>616.5999755859375</AltitudeMeters>
            <DistanceMeters>NAN</DistanceMeters>
          </Trackpoint>
          <Trackpoint>
            <Time>2019-10-05T14:45:15.000Z</Time>
            <Position>
              <LatitudeDegrees>41.640557348728179931640625</LatitudeDegrees>
              <LongitudeDegrees>-5.80033659003674983978271484375</LongitudeDegrees>
            </Position>
            <AltitudeMeters>617</AltitudeMeters>
            <DistanceMeters>NAN</DistanceMeters>
          </Trackpoint>
          <Trackpoint>
            <Time>2019-10-05T14:45:17.000Z</Time>
            <Position>
              <LatitudeDegrees>41.64045902900397777557373046875</LatitudeDegrees>
              <LongitudeDegrees>-5.80030088312923908233642578125</LongitudeDegrees>
            </Position>
            <AltitudeMeters>617.20001220703125</AltitudeMeters>
            <DistanceMeters>NAN</DistanceMeters>
          </Trackpoint>
          <Trackpoint>
            <Time>2019-10-05T14:45:20.000Z</Time>
            <Position>
              <LatitudeDegrees>41.64031184278428554534912109375</LatitudeDegrees>
              <LongitudeDegrees>-5.80025729723274707794189453125</LongitudeDegrees>
            </Position>
            <AltitudeMeters>617.5999755859375</AltitudeMeters>
            <DistanceMeters>NAN</DistanceMeters>
          </Trackpoint>
          <Trackpoint>
            <Time>2019-10-05T14:45:23.000Z</Time>
            <Position>
              <LatitudeDegrees>41.64016298018395900726318359375</LatitudeDegrees>
              <LongitudeDegrees>-5.80020080320537090301513671875</LongitudeDegrees>
            </Position>
            <AltitudeMeters>617</AltitudeMeters>
            <DistanceMeters>NAN</DistanceMeters>
          </Trackpoint>
          <Trackpoint>
            <Time>2019-10-05T14:45:28.000Z</Time>
            <Position>
              <LatitudeDegrees>41.639915965497493743896484375</LatitudeDegrees>
              <LongitudeDegrees>-5.8001189120113849639892578125</LongitudeDegrees>
            </Position>
            <AltitudeMeters>618.4000244140625</AltitudeMeters>
            <DistanceMeters>NAN</DistanceMeters>
          </Trackpoint>
          <Trackpoint>
            <Time>2019-10-05T14:45:33.000Z</Time>
            <Position>
              <LatitudeDegrees>41.6396814398467540740966796875</LatitudeDegrees>
              <LongitudeDegrees>-5.8000391162931919097900390625</LongitudeDegrees>
            </Position>
            <AltitudeMeters>618.5999755859375</AltitudeMeters>
            <DistanceMeters>NAN</DistanceMeters>
          </Trackpoint>
          <Trackpoint>
            <Time>2019-10-05T14:45:42.000Z</Time>
            <Position>
              <LatitudeDegrees>41.6392542980611324310302734375</LatitudeDegrees>
              <LongitudeDegrees>-5.79989570192992687225341796875</LongitudeDegrees>
            </Position>
            <AltitudeMeters>620</AltitudeMeters>
            <DistanceMeters>NAN</DistanceMeters>
          </Trackpoint>
          <Trackpoint>
            <Time>2019-10-05T14:45:43.000Z</Time>
            <Position>
              <LatitudeDegrees>41.63921029306948184967041015625</LatitudeDegrees>
              <LongitudeDegrees>-5.7998835481703281402587890625</LongitudeDegrees>
            </Position>
            <AltitudeMeters>619.79998779296875</AltitudeMeters>
            <DistanceMeters>NAN</DistanceMeters>
          </Trackpoint>
          <Trackpoint>
            <Time>2019-10-05T14:45:55.000Z</Time>
            <Position>
              <LatitudeDegrees>41.63869145326316356658935546875</LatitudeDegrees>
              <LongitudeDegrees>-5.79970492981374263763427734375</LongitudeDegrees>
            </Position>
            <AltitudeMeters>620.5999755859375</AltitudeMeters>
            <DistanceMeters>NAN</DistanceMeters>
          </Trackpoint>
          <Trackpoint>
            <Time>2019-10-05T14:46:04.000Z</Time>
            <Position>
              <LatitudeDegrees>41.6382987610995769500732421875</LatitudeDegrees>
              <LongitudeDegrees>-5.79956763423979282379150390625</LongitudeDegrees>
            </Position>
            <AltitudeMeters>621.20001220703125</AltitudeMeters>
            <DistanceMeters>NAN</DistanceMeters>
          </Trackpoint>
          <Trackpoint>
            <Time>2019-10-05T14:46:05.000Z</Time>
            <Position>
              <LatitudeDegrees>41.63825542666018009185791015625</LatitudeDegrees>
              <LongitudeDegrees>-5.79955237917602062225341796875</LongitudeDegrees>
            </Position>
            <AltitudeMeters>621.4000244140625</AltitudeMeters>
            <DistanceMeters>NAN</DistanceMeters>
          </Trackpoint>
          <Trackpoint>
            <Time>2019-10-05T14:46:10.000Z</Time>
            <Position>
              <LatitudeDegrees>41.63803833536803722381591796875</LatitudeDegrees>
              <LongitudeDegrees>-5.7994845695793628692626953125</LongitudeDegrees>
            </Position>
            <AltitudeMeters>622.4000244140625</AltitudeMeters>
            <DistanceMeters>NAN</DistanceMeters>
          </Trackpoint>
          <Trackpoint>
            <Time>2019-10-05T14:46:16.000Z</Time>
            <Position>
              <LatitudeDegrees>41.63778017275035381317138671875</LatitudeDegrees>
              <LongitudeDegrees>-5.799398235976696014404296875</LongitudeDegrees>
            </Position>
            <AltitudeMeters>621.4000244140625</AltitudeMeters>
            <DistanceMeters>NAN</DistanceMeters>
          </Trackpoint>
          <Trackpoint>
            <Time>2019-10-05T14:46:26.000Z</Time>
            <Position>
              <LatitudeDegrees>41.6373549588024616241455078125</LatitudeDegrees>
              <LongitudeDegrees>-5.7992552407085895538330078125</LongitudeDegrees>
            </Position>
            <AltitudeMeters>622.5999755859375</AltitudeMeters>
            <DistanceMeters>NAN</DistanceMeters>
          </Trackpoint>
          <Trackpoint>
            <Time>2019-10-05T14:46:37.000Z</Time>
            <Position>
              <LatitudeDegrees>41.63688716478645801544189453125</LatitudeDegrees>
              <LongitudeDegrees>-5.79909170977771282196044921875</LongitudeDegrees>
            </Position>
            <AltitudeMeters>623.20001220703125</AltitudeMeters>
            <DistanceMeters>NAN</DistanceMeters>
          </Trackpoint>
          <Trackpoint>
            <Time>2019-10-05T14:46:43.000Z</Time>
            <Position>
              <LatitudeDegrees>41.6366284154355525970458984375</LatitudeDegrees>
              <LongitudeDegrees>-5.79900520853698253631591796875</LongitudeDegrees>
            </Position>
            <AltitudeMeters>623.4000244140625</AltitudeMeters>
            <DistanceMeters>NAN</DistanceMeters>
          </Trackpoint>
          <Trackpoint>
            <Time>2019-10-05T14:46:49.000Z</Time>
            <Position>
              <LatitudeDegrees>41.63636882789433002471923828125</LatitudeDegrees>
              <LongitudeDegrees>-5.79891334287822246551513671875</LongitudeDegrees>
            </Position>
            <AltitudeMeters>624</AltitudeMeters>
            <DistanceMeters>NAN</DistanceMeters>
          </Trackpoint>
          <Trackpoint>
            <Time>2019-10-05T14:46:56.000Z</Time>
            <Position>
              <LatitudeDegrees>41.63605861365795135498046875</LatitudeDegrees>
              <LongitudeDegrees>-5.79881527461111545562744140625</LongitudeDegrees>
            </Position>
            <AltitudeMeters>624.4000244140625</AltitudeMeters>
            <DistanceMeters>NAN</DistanceMeters>
          </Trackpoint>
          <Trackpoint>
            <Time>2019-10-05T14:46:58.000Z</Time>
            <Position>
              <LatitudeDegrees>41.63597102276980876922607421875</LatitudeDegrees>
              <LongitudeDegrees>-5.7987861894071102142333984375</LongitudeDegrees>
            </Position>
            <AltitudeMeters>624.4000244140625</AltitudeMeters>
            <DistanceMeters>NAN</DistanceMeters>
          </Trackpoint>
          <Trackpoint>
            <Time>2019-10-05T14:47:06.000Z</Time>
            <Position>
              <LatitudeDegrees>41.63562702946364879608154296875</LatitudeDegrees>
              <LongitudeDegrees>-5.7986715249717235565185546875</LongitudeDegrees>
            </Position>
            <AltitudeMeters>625</AltitudeMeters>
            <DistanceMeters>NAN</DistanceMeters>
          </Trackpoint>
          <Trackpoint>
            <Time>2019-10-05T14:47:15.000Z</Time>
            <Position>
              <LatitudeDegrees>41.635230481624603271484375</LatitudeDegrees>
              <LongitudeDegrees>-5.7985333912074565887451171875</LongitudeDegrees>
            </Position>
            <AltitudeMeters>625.5999755859375</AltitudeMeters>
            <DistanceMeters>NAN</DistanceMeters>
          </Trackpoint>
          <Trackpoint>
            <Time>2019-10-05T14:47:17.000Z</Time>
            <Position>
              <LatitudeDegrees>41.6351404599845409393310546875</LatitudeDegrees>
              <LongitudeDegrees>-5.79850279726088047027587890625</LongitudeDegrees>
            </Position>
            <AltitudeMeters>625.5999755859375</AltitudeMeters>
            <DistanceMeters>NAN</DistanceMeters>
          </Trackpoint>
          <Trackpoint>
            <Time>2019-10-05T14:47:29.000Z</Time>
            <Position>
              <LatitudeDegrees>41.63459572009742259979248046875</LatitudeDegrees>
              <LongitudeDegrees>-5.798317976295948028564453125</LongitudeDegrees>
            </Position>
            <AltitudeMeters>625.79998779296875</AltitudeMeters>
            <DistanceMeters>NAN</DistanceMeters>
          </Trackpoint>
          <Trackpoint>
            <Time>2019-10-05T14:47:38.000Z</Time>
            <Position>
              <LatitudeDegrees>41.63416421972215175628662109375</LatitudeDegrees>
              <LongitudeDegrees>-5.798166431486606597900390625</LongitudeDegrees>
            </Position>
            <AltitudeMeters>625.4000244140625</AltitudeMeters>
            <DistanceMeters>NAN</DistanceMeters>
          </Trackpoint>
          <Trackpoint>
            <Time>2019-10-05T14:47:48.000Z</Time>
            <Position>
              <LatitudeDegrees>41.63363951258361339569091796875</LatitudeDegrees>
              <LongitudeDegrees>-5.79798571765422821044921875</LongitudeDegrees>
            </Position>
            <AltitudeMeters>626</AltitudeMeters>
            <DistanceMeters>NAN</DistanceMeters>
          </Trackpoint>
          <Trackpoint>
            <Time>2019-10-05T14:47:49.000Z</Time>
            <Position>
              <LatitudeDegrees>41.63358788006007671356201171875</LatitudeDegrees>
              <LongitudeDegrees>-5.797968618571758270263671875</LongitudeDegrees>
            </Position>
            <AltitudeMeters>626.20001220703125</AltitudeMeters>
            <DistanceMeters>NAN</DistanceMeters>
          </Trackpoint>
          <Trackpoint>
            <Time>2019-10-05T14:47:57.000Z</Time>
            <Position>
              <LatitudeDegrees>41.633164845407009124755859375</LatitudeDegrees>
              <LongitudeDegrees>-5.79782478511333465576171875</LongitudeDegrees>
            </Position>
            <AltitudeMeters>626.4000244140625</AltitudeMeters>
            <DistanceMeters>NAN</DistanceMeters>
          </Trackpoint>
          <Trackpoint>
            <Time>2019-10-05T14:47:59.000Z</Time>
            <Position>
              <LatitudeDegrees>41.63306099362671375274658203125</LatitudeDegrees>
              <LongitudeDegrees>-5.79778916202485561370849609375</LongitudeDegrees>
            </Position>
            <AltitudeMeters>626</AltitudeMeters>
            <DistanceMeters>NAN</DistanceMeters>
          </Trackpoint>
          <Trackpoint>
            <Time>2019-10-05T14:48:07.000Z</Time>
            <Position>
              <LatitudeDegrees>41.63264147937297821044921875</LatitudeDegrees>
              <LongitudeDegrees>-5.79764331690967082977294921875</LongitudeDegrees>
            </Position>
            <AltitudeMeters>626.4000244140625</AltitudeMeters>
            <DistanceMeters>NAN</DistanceMeters>
          </Trackpoint>
          <Trackpoint>
            <Time>2019-10-05T14:48:11.000Z</Time>
            <Position>
              <LatitudeDegrees>41.63243017159402370452880859375</LatitudeDegrees>
              <LongitudeDegrees>-5.79757072962820529937744140625</LongitudeDegrees>
            </Position>
            <AltitudeMeters>626.4000244140625</AltitudeMeters>
            <DistanceMeters>NAN</DistanceMeters>
          </Trackpoint>
          <Trackpoint>
            <Time>2019-10-05T14:48:14.000Z</Time>
            <Position>
              <LatitudeDegrees>41.6322704963386058807373046875</LatitudeDegrees>
              <LongitudeDegrees>-5.79751339741051197052001953125</LongitudeDegrees>
            </Position>
            <AltitudeMeters>626.79998779296875</AltitudeMeters>
            <DistanceMeters>NAN</DistanceMeters>
          </Trackpoint>
          <Trackpoint>
            <Time>2019-10-05T14:48:19.000Z</Time>
            <Position>
              <LatitudeDegrees>41.63200420327484607696533203125</LatitudeDegrees>
              <LongitudeDegrees>-5.79742974601686000823974609375</LongitudeDegrees>
            </Position>
            <AltitudeMeters>625.79998779296875</AltitudeMeters>
            <DistanceMeters>NAN</DistanceMeters>
          </Trackpoint>
          <Trackpoint>
            <Time>2019-10-05T14:48:20.000Z</Time>
            <Position>
              <LatitudeDegrees>41.63194854743778705596923828125</LatitudeDegrees>
              <LongitudeDegrees>-5.79742337577044963836669921875</LongitudeDegrees>
            </Position>
            <AltitudeMeters>625.79998779296875</AltitudeMeters>
            <DistanceMeters>NAN</DistanceMeters>
          </Trackpoint>
          <Trackpoint>
            <Time>2019-10-05T14:48:23.000Z</Time>
            <Position>
              <LatitudeDegrees>41.63179784081876277923583984375</LatitudeDegrees>
              <LongitudeDegrees>-5.79747743904590606689453125</LongitudeDegrees>
            </Position>
            <AltitudeMeters>625.79998779296875</AltitudeMeters>
            <DistanceMeters>NAN</DistanceMeters>
          </Trackpoint>
          <Trackpoint>
            <Time>2019-10-05T14:48:24.000Z</Time>
            <Position>
              <LatitudeDegrees>41.6317531652748584747314453125</LatitudeDegrees>
              <LongitudeDegrees>-5.797514654695987701416015625</LongitudeDegrees>
            </Position>
            <AltitudeMeters>625.79998779296875</AltitudeMeters>
            <DistanceMeters>NAN</DistanceMeters>
          </Trackpoint>
          <Trackpoint>
            <Time>2019-10-05T14:48:26.000Z</Time>
            <Position>
              <LatitudeDegrees>41.63165518082678318023681640625</LatitudeDegrees>
              <LongitudeDegrees>-5.797581039369106292724609375</LongitudeDegrees>
            </Position>
            <AltitudeMeters>625.5999755859375</AltitudeMeters>
            <DistanceMeters>NAN</DistanceMeters>
          </Trackpoint>
          <Trackpoint>
            <Time>2019-10-05T14:48:28.000Z</Time>
            <Position>
              <LatitudeDegrees>41.631548814475536346435546875</LatitudeDegrees>
              <LongitudeDegrees>-5.7976113818585872650146484375</LongitudeDegrees>
            </Position>
            <AltitudeMeters>626</AltitudeMeters>
            <DistanceMeters>NAN</DistanceMeters>
          </Trackpoint>
          <Trackpoint>
            <Time>2019-10-05T14:48:31.000Z</Time>
            <Position>
              <LatitudeDegrees>41.631387881934642791748046875</LatitudeDegrees>
              <LongitudeDegrees>-5.79756100662052631378173828125</LongitudeDegrees>
            </Position>
            <AltitudeMeters>626.20001220703125</AltitudeMeters>
            <DistanceMeters>NAN</DistanceMeters>
          </Trackpoint>
          <Trackpoint>
            <Time>2019-10-05T14:48:34.000Z</Time>
            <Position>
              <LatitudeDegrees>41.6312420368194580078125</LatitudeDegrees>
              <LongitudeDegrees>-5.7973528839647769927978515625</LongitudeDegrees>
            </Position>
            <AltitudeMeters>626.79998779296875</AltitudeMeters>
            <DistanceMeters>NAN</DistanceMeters>
          </Trackpoint>
          <Trackpoint>
            <Time>2019-10-05T14:48:35.000Z</Time>
            <Position>
              <LatitudeDegrees>41.63123507983982563018798828125</LatitudeDegrees>
              <LongitudeDegrees>-5.7973337732255458831787109375</LongitudeDegrees>
            </Position>
            <AltitudeMeters>626.79998779296875</AltitudeMeters>
            <DistanceMeters>NAN</DistanceMeters>
          </Trackpoint>
          <Trackpoint>
            <Time>2019-10-05T14:48:36.000Z</Time>
            <Position>
              <LatitudeDegrees>41.63120171986520290374755859375</LatitudeDegrees>
              <LongitudeDegrees>-5.7972697354853153228759765625</LongitudeDegrees>
            </Position>
            <AltitudeMeters>626.5999755859375</AltitudeMeters>
            <DistanceMeters>NAN</DistanceMeters>
          </Trackpoint>
          <Trackpoint>
            <Time>2019-10-05T14:48:37.000Z</Time>
            <Position>
              <LatitudeDegrees>41.63116266019642353057861328125</LatitudeDegrees>
              <LongitudeDegrees>-5.79721030779182910919189453125</LongitudeDegrees>
            </Position>
            <AltitudeMeters>626.4000244140625</AltitudeMeters>
            <DistanceMeters>NAN</DistanceMeters>
          </Trackpoint>
          <Trackpoint>
            <Time>2019-10-05T14:48:39.000Z</Time>
            <Position>
              <LatitudeDegrees>41.6310581378638744354248046875</LatitudeDegrees>
              <LongitudeDegrees>-5.7971285842359066009521484375</LongitudeDegrees>
            </Position>
            <AltitudeMeters>626.20001220703125</AltitudeMeters>
            <DistanceMeters>NAN</DistanceMeters>
          </Trackpoint>
          <Trackpoint>
            <Time>2019-10-05T14:48:47.000Z</Time>
            <Position>
              <LatitudeDegrees>41.6306226141750812530517578125</LatitudeDegrees>
              <LongitudeDegrees>-5.79693823121488094329833984375</LongitudeDegrees>
            </Position>
            <AltitudeMeters>626.5999755859375</AltitudeMeters>
            <DistanceMeters>NAN</DistanceMeters>
          </Trackpoint>
          <Trackpoint>
            <Time>2019-10-05T14:48:57.000Z</Time>
            <Position>
              <LatitudeDegrees>41.63010167889297008514404296875</LatitudeDegrees>
              <LongitudeDegrees>-5.7967627979815006256103515625</LongitudeDegrees>
            </Position>
            <AltitudeMeters>627.4000244140625</AltitudeMeters>
            <DistanceMeters>NAN</DistanceMeters>
          </Trackpoint>
          <Trackpoint>
            <Time>2019-10-05T14:48:58.000Z</Time>
            <Position>
              <LatitudeDegrees>41.630048453807830810546875</LatitudeDegrees>
              <LongitudeDegrees>-5.79674645327031612396240234375</LongitudeDegrees>
            </Position>
            <AltitudeMeters>627.4000244140625</AltitudeMeters>
            <DistanceMeters>NAN</DistanceMeters>
          </Trackpoint>
          <Trackpoint>
            <Time>2019-10-05T14:49:00.000Z</Time>
            <Position>
              <LatitudeDegrees>41.62994585931301116943359375</LatitudeDegrees>
              <LongitudeDegrees>-5.79671309329569339752197265625</LongitudeDegrees>
            </Position>
            <AltitudeMeters>627.79998779296875</AltitudeMeters>
            <DistanceMeters>NAN</DistanceMeters>
          </Trackpoint>
          <Trackpoint>
            <Time>2019-10-05T14:49:07.000Z</Time>
            <Position>
              <LatitudeDegrees>41.62958778440952301025390625</LatitudeDegrees>
              <LongitudeDegrees>-5.79659256152808666229248046875</LongitudeDegrees>
            </Position>
            <AltitudeMeters>628</AltitudeMeters>
            <DistanceMeters>NAN</DistanceMeters>
          </Trackpoint>
          <Trackpoint>
            <Time>2019-10-05T14:49:17.000Z</Time>
            <Position>
              <LatitudeDegrees>41.62907942198216915130615234375</LatitudeDegrees>
              <LongitudeDegrees>-5.79641905613243579864501953125</LongitudeDegrees>
            </Position>
            <AltitudeMeters>627.79998779296875</AltitudeMeters>
            <DistanceMeters>NAN</DistanceMeters>
          </Trackpoint>
          <Trackpoint>
            <Time>2019-10-05T14:49:27.000Z</Time>
            <Position>
              <LatitudeDegrees>41.62856175564229488372802734375</LatitudeDegrees>
              <LongitudeDegrees>-5.79623825848102569580078125</LongitudeDegrees>
            </Position>
            <AltitudeMeters>628.79998779296875</AltitudeMeters>
            <DistanceMeters>NAN</DistanceMeters>
          </Trackpoint>
          <Trackpoint>
            <Time>2019-10-05T14:49:28.000Z</Time>
            <Position>
              <LatitudeDegrees>41.62851045839488506317138671875</LatitudeDegrees>
              <LongitudeDegrees>-5.7962201535701751708984375</LongitudeDegrees>
            </Position>
            <AltitudeMeters>628.79998779296875</AltitudeMeters>
            <DistanceMeters>NAN</DistanceMeters>
          </Trackpoint>
          <Trackpoint>
            <Time>2019-10-05T14:49:38.000Z</Time>
            <Position>
              <LatitudeDegrees>41.62799715064465999603271484375</LatitudeDegrees>
              <LongitudeDegrees>-5.79604446887969970703125</LongitudeDegrees>
            </Position>
            <AltitudeMeters>628.5999755859375</AltitudeMeters>
            <DistanceMeters>NAN</DistanceMeters>
          </Trackpoint>
          <Trackpoint>
            <Time>2019-10-05T14:49:42.000Z</Time>
            <Position>
              <LatitudeDegrees>41.62779296748340129852294921875</LatitudeDegrees>
              <LongitudeDegrees>-5.795977078378200531005859375</LongitudeDegrees>
            </Position>
            <AltitudeMeters>628.5999755859375</AltitudeMeters>
            <DistanceMeters>NAN</DistanceMeters>
          </Trackpoint>
          <Trackpoint>
            <Time>2019-10-05T14:49:43.000Z</Time>
            <Position>
              <LatitudeDegrees>41.62774167023599147796630859375</LatitudeDegrees>
              <LongitudeDegrees>-5.79595956020057201385498046875</LongitudeDegrees>
            </Position>
            <AltitudeMeters>628.79998779296875</AltitudeMeters>
            <DistanceMeters>NAN</DistanceMeters>
          </Trackpoint>
          <Trackpoint>
            <Time>2019-10-05T14:49:52.000Z</Time>
            <Position>
              <LatitudeDegrees>41.62728887982666492462158203125</LatitudeDegrees>
              <LongitudeDegrees>-5.7958025671541690826416015625</LongitudeDegrees>
            </Position>
            <AltitudeMeters>629</AltitudeMeters>
            <DistanceMeters>NAN</DistanceMeters>
          </Trackpoint>
          <Trackpoint>
            <Time>2019-10-05T14:49:59.000Z</Time>
            <Position>
              <LatitudeDegrees>41.6269617341458797454833984375</LatitudeDegrees>
              <LongitudeDegrees>-5.79569117166101932525634765625</LongitudeDegrees>
            </Position>
            <AltitudeMeters>629.79998779296875</AltitudeMeters>
            <DistanceMeters>NAN</DistanceMeters>
          </Trackpoint>
          <Trackpoint>
            <Time>2019-10-05T14:50:00.000Z</Time>
            <Position>
              <LatitudeDegrees>41.6269168071448802947998046875</LatitudeDegrees>
              <LongitudeDegrees>-5.795677341520786285400390625</LongitudeDegrees>
            </Position>
            <AltitudeMeters>630</AltitudeMeters>
            <DistanceMeters>NAN</DistanceMeters>
          </Trackpoint>
          <Trackpoint>
            <Time>2019-10-05T14:50:09.000Z</Time>
            <Position>
              <LatitudeDegrees>41.62651925347745418548583984375</LatitudeDegrees>
              <LongitudeDegrees>-5.7955376990139484405517578125</LongitudeDegrees>
            </Position>
            <AltitudeMeters>630.4000244140625</AltitudeMeters>
            <DistanceMeters>NAN</DistanceMeters>
          </Trackpoint>
          <Trackpoint>
            <Time>2019-10-05T14:50:10.000Z</Time>
            <Position>
              <LatitudeDegrees>41.6264752484858036041259765625</LatitudeDegrees>
              <LongitudeDegrees>-5.795522443950176239013671875</LongitudeDegrees>
            </Position>
            <AltitudeMeters>630.79998779296875</AltitudeMeters>
            <DistanceMeters>NAN</DistanceMeters>
          </Trackpoint>
          <Trackpoint>
            <Time>2019-10-05T14:50:17.000Z</Time>
            <Position>
              <LatitudeDegrees>41.626167632639408111572265625</LatitudeDegrees>
              <LongitudeDegrees>-5.79541574232280254364013671875</LongitudeDegrees>
            </Position>
            <AltitudeMeters>630.79998779296875</AltitudeMeters>
            <DistanceMeters>NAN</DistanceMeters>
          </Trackpoint>
          <Trackpoint>
            <Time>2019-10-05T14:50:19.000Z</Time>
            <Position>
              <LatitudeDegrees>41.6260799579322338104248046875</LatitudeDegrees>
              <LongitudeDegrees>-5.79538590274751186370849609375</LongitudeDegrees>
            </Position>
            <AltitudeMeters>631.20001220703125</AltitudeMeters>
            <DistanceMeters>NAN</DistanceMeters>
          </Trackpoint>
          <Trackpoint>
            <Time>2019-10-05T14:50:22.000Z</Time>
            <Position>
              <LatitudeDegrees>41.62595179863274097442626953125</LatitudeDegrees>
              <LongitudeDegrees>-5.7953395508229732513427734375</LongitudeDegrees>
            </Position>
            <AltitudeMeters>631.79998779296875</AltitudeMeters>
            <DistanceMeters>NAN</DistanceMeters>
          </Trackpoint>
          <Trackpoint>
            <Time>2019-10-05T14:50:33.000Z</Time>
            <Position>
              <LatitudeDegrees>41.62548174150288105010986328125</LatitudeDegrees>
              <LongitudeDegrees>-5.79517752863466739654541015625</LongitudeDegrees>
            </Position>
            <AltitudeMeters>632.79998779296875</AltitudeMeters>
            <DistanceMeters>NAN</DistanceMeters>
          </Trackpoint>
          <Trackpoint>
            <Time>2019-10-05T14:50:36.000Z</Time>
            <Position>
              <LatitudeDegrees>41.625351570546627044677734375</LatitudeDegrees>
              <LongitudeDegrees>-5.79513343982398509979248046875</LongitudeDegrees>
            </Position>
            <AltitudeMeters>633</AltitudeMeters>
            <DistanceMeters>NAN</DistanceMeters>
          </Trackpoint>
          <Trackpoint>
            <Time>2019-10-05T14:50:44.000Z</Time>
            <Position>
              <LatitudeDegrees>41.624999530613422393798828125</LatitudeDegrees>
              <LongitudeDegrees>-5.7950076274573802947998046875</LongitudeDegrees>
            </Position>
            <AltitudeMeters>633.20001220703125</AltitudeMeters>
            <DistanceMeters>NAN</DistanceMeters>
          </Trackpoint>
          <Trackpoint>
            <Time>2019-10-05T14:50:50.000Z</Time>
            <Position>
              <LatitudeDegrees>41.624738015234470367431640625</LatitudeDegrees>
              <LongitudeDegrees>-5.79491735436022281646728515625</LongitudeDegrees>
            </Position>
            <AltitudeMeters>634</AltitudeMeters>
            <DistanceMeters>NAN</DistanceMeters>
          </Trackpoint>
          <Trackpoint>
            <Time>2019-10-05T14:50:55.000Z</Time>
            <Position>
              <LatitudeDegrees>41.6245205886662006378173828125</LatitudeDegrees>
              <LongitudeDegrees>-5.794840157032012939453125</LongitudeDegrees>
            </Position>
            <AltitudeMeters>633.79998779296875</AltitudeMeters>
            <DistanceMeters>NAN</DistanceMeters>
          </Trackpoint>
          <Trackpoint>
            <Time>2019-10-05T14:51:04.000Z</Time>
            <Position>
              <LatitudeDegrees>41.62411565892398357391357421875</LatitudeDegrees>
              <LongitudeDegrees>-5.79470001161098480224609375</LongitudeDegrees>
            </Position>
            <AltitudeMeters>634.79998779296875</AltitudeMeters>
            <DistanceMeters>NAN</DistanceMeters>
          </Trackpoint>
          <Trackpoint>
            <Time>2019-10-05T14:51:07.000Z</Time>
            <Position>
              <LatitudeDegrees>41.6239596717059612274169921875</LatitudeDegrees>
              <LongitudeDegrees>-5.79464628361165523529052734375</LongitudeDegrees>
            </Position>
            <AltitudeMeters>635.20001220703125</AltitudeMeters>
            <DistanceMeters>NAN</DistanceMeters>
          </Trackpoint>
          <Trackpoint>
            <Time>2019-10-05T14:51:10.000Z</Time>
            <Position>
              <LatitudeDegrees>41.62380150519311428070068359375</LatitudeDegrees>
              <LongitudeDegrees>-5.79458610154688358306884765625</LongitudeDegrees>
            </Position>
            <AltitudeMeters>634.20001220703125</AltitudeMeters>
            <DistanceMeters>NAN</DistanceMeters>
          </Trackpoint>
          <Trackpoint>
            <Time>2019-10-05T14:51:11.000Z</Time>
            <Position>
              <LatitudeDegrees>41.623747609555721282958984375</LatitudeDegrees>
              <LongitudeDegrees>-5.79456849955022335052490234375</LongitudeDegrees>
            </Position>
            <AltitudeMeters>634.4000244140625</AltitudeMeters>
            <DistanceMeters>NAN</DistanceMeters>
          </Trackpoint>
          <Trackpoint>
            <Time>2019-10-05T14:51:19.000Z</Time>
            <Position>
              <LatitudeDegrees>41.6233316995203495025634765625</LatitudeDegrees>
              <LongitudeDegrees>-5.794429443776607513427734375</LongitudeDegrees>
            </Position>
            <AltitudeMeters>634.20001220703125</AltitudeMeters>
            <DistanceMeters>NAN</DistanceMeters>
          </Trackpoint>
          <Trackpoint>
            <Time>2019-10-05T14:51:29.000Z</Time>
            <Position>
              <LatitudeDegrees>41.62280850112438201904296875</LatitudeDegrees>
              <LongitudeDegrees>-5.79425132833421230316162109375</LongitudeDegrees>
            </Position>
            <AltitudeMeters>634.20001220703125</AltitudeMeters>
            <DistanceMeters>NAN</DistanceMeters>
          </Trackpoint>
          <Trackpoint>
            <Time>2019-10-05T14:51:31.000Z</Time>
            <Position>
              <LatitudeDegrees>41.6227047331631183624267578125</LatitudeDegrees>
              <LongitudeDegrees>-5.79421377740800380706787109375</LongitudeDegrees>
            </Position>
            <AltitudeMeters>634.5999755859375</AltitudeMeters>
            <DistanceMeters>NAN</DistanceMeters>
          </Trackpoint>
          <Trackpoint>
            <Time>2019-10-05T14:51:41.000Z</Time>
            <Position>
              <LatitudeDegrees>41.6222182475030422210693359375</LatitudeDegrees>
              <LongitudeDegrees>-5.7940430380403995513916015625</LongitudeDegrees>
            </Position>
            <AltitudeMeters>634.79998779296875</AltitudeMeters>
            <DistanceMeters>NAN</DistanceMeters>
          </Trackpoint>
          <Trackpoint>
            <Time>2019-10-05T14:51:46.000Z</Time>
            <Position>
              <LatitudeDegrees>41.6219989769160747528076171875</LatitudeDegrees>
              <LongitudeDegrees>-5.793969444930553436279296875</LongitudeDegrees>
            </Position>
            <AltitudeMeters>635.4000244140625</AltitudeMeters>
            <DistanceMeters>NAN</DistanceMeters>
          </Trackpoint>
          <Trackpoint>
            <Time>2019-10-05T14:51:52.000Z</Time>
            <Position>
              <LatitudeDegrees>41.62173964083194732666015625</LatitudeDegrees>
              <LongitudeDegrees>-5.79387866891920566558837890625</LongitudeDegrees>
            </Position>
            <AltitudeMeters>636</AltitudeMeters>
            <DistanceMeters>NAN</DistanceMeters>
          </Trackpoint>
          <Trackpoint>
            <Time>2019-10-05T14:51:58.000Z</Time>
            <Position>
              <LatitudeDegrees>41.62147971801459789276123046875</LatitudeDegrees>
              <LongitudeDegrees>-5.793793760240077972412109375</LongitudeDegrees>
            </Position>
            <AltitudeMeters>636.5999755859375</AltitudeMeters>
            <DistanceMeters>NAN</DistanceMeters>
          </Trackpoint>
          <Trackpoint>
            <Time>2019-10-05T14:52:01.000Z</Time>
            <Position>
              <LatitudeDegrees>41.62134678103029727935791015625</LatitudeDegrees>
              <LongitudeDegrees>-5.79374774359166622161865234375</LongitudeDegrees>
            </Position>
            <AltitudeMeters>636.20001220703125</AltitudeMeters>
            <DistanceMeters>NAN</DistanceMeters>
          </Trackpoint>
          <Trackpoint>
            <Time>2019-10-05T14:52:12.000Z</Time>
            <Position>
              <LatitudeDegrees>41.62086700089275836944580078125</LatitudeDegrees>
              <LongitudeDegrees>-5.7935806922614574432373046875</LongitudeDegrees>
            </Position>
            <AltitudeMeters>637.5999755859375</AltitudeMeters>
            <DistanceMeters>NAN</DistanceMeters>
          </Trackpoint>
          <Trackpoint>
            <Time>2019-10-05T14:52:14.000Z</Time>
            <Position>
              <LatitudeDegrees>41.6207638196647167205810546875</LatitudeDegrees>
              <LongitudeDegrees>-5.793544985353946685791015625</LongitudeDegrees>
            </Position>
            <AltitudeMeters>637.4000244140625</AltitudeMeters>
            <DistanceMeters>NAN</DistanceMeters>
          </Trackpoint>
          <Trackpoint>
            <Time>2019-10-05T14:52:24.000Z</Time>
            <Position>
              <LatitudeDegrees>41.62033776752650737762451171875</LatitudeDegrees>
              <LongitudeDegrees>-5.7933979667723178863525390625</LongitudeDegrees>
            </Position>
            <AltitudeMeters>639</AltitudeMeters>
            <DistanceMeters>NAN</DistanceMeters>
          </Trackpoint>
          <Trackpoint>
            <Time>2019-10-05T14:52:26.000Z</Time>
            <Position>
              <LatitudeDegrees>41.62024958990514278411865234375</LatitudeDegrees>
              <LongitudeDegrees>-5.7933661155402660369873046875</LongitudeDegrees>
            </Position>
            <AltitudeMeters>639.20001220703125</AltitudeMeters>
            <DistanceMeters>NAN</DistanceMeters>
          </Trackpoint>
          <Trackpoint>
            <Time>2019-10-05T14:52:38.000Z</Time>
            <Position>
              <LatitudeDegrees>41.61971884779632091522216796875</LatitudeDegrees>
              <LongitudeDegrees>-5.79318867065012454986572265625</LongitudeDegrees>
            </Position>
            <AltitudeMeters>639.20001220703125</AltitudeMeters>
            <DistanceMeters>NAN</DistanceMeters>
          </Trackpoint>
          <Trackpoint>
            <Time>2019-10-05T14:52:50.000Z</Time>
            <Position>
              <LatitudeDegrees>41.6191940568387508392333984375</LatitudeDegrees>
              <LongitudeDegrees>-5.79300326295197010040283203125</LongitudeDegrees>
            </Position>
            <AltitudeMeters>639.4000244140625</AltitudeMeters>
            <DistanceMeters>NAN</DistanceMeters>
          </Trackpoint>
          <Trackpoint>
            <Time>2019-10-05T14:52:53.000Z</Time>
            <Position>
              <LatitudeDegrees>41.61906279623508453369140625</LatitudeDegrees>
              <LongitudeDegrees>-5.792957246303558349609375</LongitudeDegrees>
            </Position>
            <AltitudeMeters>640</AltitudeMeters>
            <DistanceMeters>NAN</DistanceMeters>
          </Trackpoint>
          <Trackpoint>
            <Time>2019-10-05T14:52:58.000Z</Time>
            <Position>
              <LatitudeDegrees>41.61884243600070476531982421875</LatitudeDegrees>
              <LongitudeDegrees>-5.79287904314696788787841796875</LongitudeDegrees>
            </Position>
            <AltitudeMeters>640.4000244140625</AltitudeMeters>
            <DistanceMeters>NAN</DistanceMeters>
          </Trackpoint>
          <Trackpoint>
            <Time>2019-10-05T14:53:05.000Z</Time>
            <Position>
              <LatitudeDegrees>41.61853632889688014984130859375</LatitudeDegrees>
              <LongitudeDegrees>-5.792774856090545654296875</LongitudeDegrees>
            </Position>
            <AltitudeMeters>641.20001220703125</AltitudeMeters>
            <DistanceMeters>NAN</DistanceMeters>
          </Trackpoint>
          <Trackpoint>
            <Time>2019-10-05T14:53:10.000Z</Time>
            <Position>
              <LatitudeDegrees>41.618317477405071258544921875</LatitudeDegrees>
              <LongitudeDegrees>-5.79269464127719402313232421875</LongitudeDegrees>
            </Position>
            <AltitudeMeters>641</AltitudeMeters>
            <DistanceMeters>NAN</DistanceMeters>
          </Trackpoint>
          <Trackpoint>
            <Time>2019-10-05T14:53:20.000Z</Time>
            <Position>
              <LatitudeDegrees>41.6178524494171142578125</LatitudeDegrees>
              <LongitudeDegrees>-5.792537145316600799560546875</LongitudeDegrees>
            </Position>
            <AltitudeMeters>640.4000244140625</AltitudeMeters>
            <DistanceMeters>NAN</DistanceMeters>
          </Trackpoint>
          <Trackpoint>
            <Time>2019-10-05T14:53:21.000Z</Time>
            <Position>
              <LatitudeDegrees>41.6178053431212902069091796875</LatitudeDegrees>
              <LongitudeDegrees>-5.7925212197005748748779296875</LongitudeDegrees>
            </Position>
            <AltitudeMeters>640</AltitudeMeters>
            <DistanceMeters>NAN</DistanceMeters>
          </Trackpoint>
          <Trackpoint>
            <Time>2019-10-05T14:53:26.000Z</Time>
            <Position>
              <LatitudeDegrees>41.61754340864717960357666015625</LatitudeDegrees>
              <LongitudeDegrees>-5.7924300245940685272216796875</LongitudeDegrees>
            </Position>
            <AltitudeMeters>640</AltitudeMeters>
            <DistanceMeters>NAN</DistanceMeters>
          </Trackpoint>
          <Trackpoint>
            <Time>2019-10-05T14:53:34.000Z</Time>
            <Position>
              <LatitudeDegrees>41.61710000596940517425537109375</LatitudeDegrees>
              <LongitudeDegrees>-5.7922717742621898651123046875</LongitudeDegrees>
            </Position>
            <AltitudeMeters>639.79998779296875</AltitudeMeters>
            <DistanceMeters>NAN</DistanceMeters>
          </Trackpoint>
          <Trackpoint>
            <Time>2019-10-05T14:53:40.000Z</Time>
            <Position>
              <LatitudeDegrees>41.6167354770004749298095703125</LatitudeDegrees>
              <LongitudeDegrees>-5.79213850200176239013671875</LongitudeDegrees>
            </Position>
            <AltitudeMeters>639.20001220703125</AltitudeMeters>
            <DistanceMeters>NAN</DistanceMeters>
          </Trackpoint>
          <Trackpoint>
            <Time>2019-10-05T14:53:49.000Z</Time>
            <Position>
              <LatitudeDegrees>41.6161963529884815216064453125</LatitudeDegrees>
              <LongitudeDegrees>-5.79195200465619564056396484375</LongitudeDegrees>
            </Position>
            <AltitudeMeters>640.20001220703125</AltitudeMeters>
            <DistanceMeters>NAN</DistanceMeters>
          </Trackpoint>
          <Trackpoint>
            <Time>2019-10-05T14:53:50.000Z</Time>
            <Position>
              <LatitudeDegrees>41.616140864789485931396484375</LatitudeDegrees>
              <LongitudeDegrees>-5.7919334806501865386962890625</LongitudeDegrees>
            </Position>
            <AltitudeMeters>640.4000244140625</AltitudeMeters>
            <DistanceMeters>NAN</DistanceMeters>
          </Trackpoint>
          <Trackpoint>
            <Time>2019-10-05T14:53:57.000Z</Time>
            <Position>
              <LatitudeDegrees>41.61578505299985408782958984375</LatitudeDegrees>
              <LongitudeDegrees>-5.79180967994034290313720703125</LongitudeDegrees>
            </Position>
            <AltitudeMeters>641</AltitudeMeters>
            <DistanceMeters>NAN</DistanceMeters>
          </Trackpoint>
          <Trackpoint>
            <Time>2019-10-05T14:54:06.000Z</Time>
            <Position>
              <LatitudeDegrees>41.61538657732307910919189453125</LatitudeDegrees>
              <LongitudeDegrees>-5.79167473129928112030029296875</LongitudeDegrees>
            </Position>
            <AltitudeMeters>641.79998779296875</AltitudeMeters>
            <DistanceMeters>NAN</DistanceMeters>
          </Trackpoint>
          <Trackpoint>
            <Time>2019-10-05T14:54:08.000Z</Time>
            <Position>
              <LatitudeDegrees>41.61529856733977794647216796875</LatitudeDegrees>
              <LongitudeDegrees>-5.79164363443851470947265625</LongitudeDegrees>
            </Position>
            <AltitudeMeters>642</AltitudeMeters>
            <DistanceMeters>NAN</DistanceMeters>
          </Trackpoint>
          <Trackpoint>
            <Time>2019-10-05T14:54:17.000Z</Time>
            <Position>
              <LatitudeDegrees>41.6148968227207660675048828125</LatitudeDegrees>
              <LongitudeDegrees>-5.79150843434035778045654296875</LongitudeDegrees>
            </Position>
            <AltitudeMeters>642.5999755859375</AltitudeMeters>
            <DistanceMeters>NAN</DistanceMeters>
          </Trackpoint>
          <Trackpoint>
            <Time>2019-10-05T14:54:29.000Z</Time>
            <Position>
              <LatitudeDegrees>41.61436968483030796051025390625</LatitudeDegrees>
              <LongitudeDegrees>-5.7913256250321865081787109375</LongitudeDegrees>
            </Position>
            <AltitudeMeters>643.20001220703125</AltitudeMeters>
            <DistanceMeters>NAN</DistanceMeters>
          </Trackpoint>
          <Trackpoint>
            <Time>2019-10-05T14:54:39.000Z</Time>
            <Position>
              <LatitudeDegrees>41.61392795853316783905029296875</LatitudeDegrees>
              <LongitudeDegrees>-5.7911744154989719390869140625</LongitudeDegrees>
            </Position>
            <AltitudeMeters>644.20001220703125</AltitudeMeters>
            <DistanceMeters>NAN</DistanceMeters>
          </Trackpoint>
          <Trackpoint>
            <Time>2019-10-05T14:54:50.000Z</Time>
            <Position>
              <LatitudeDegrees>41.6134363599121570587158203125</LatitudeDegrees>
              <LongitudeDegrees>-5.79100568778812885284423828125</LongitudeDegrees>
            </Position>
            <AltitudeMeters>644.79998779296875</AltitudeMeters>
            <DistanceMeters>NAN</DistanceMeters>
          </Trackpoint>
          <Trackpoint>
            <Time>2019-10-05T14:55:00.000Z</Time>
            <Position>
              <LatitudeDegrees>41.61299228668212890625</LatitudeDegrees>
              <LongitudeDegrees>-5.790851376950740814208984375</LongitudeDegrees>
            </Position>
            <AltitudeMeters>643.79998779296875</AltitudeMeters>
            <DistanceMeters>NAN</DistanceMeters>
          </Trackpoint>
          <Trackpoint>
            <Time>2019-10-05T14:55:09.000Z</Time>
            <Position>
              <LatitudeDegrees>41.6125820763409137725830078125</LatitudeDegrees>
              <LongitudeDegrees>-5.79071818850934505462646484375</LongitudeDegrees>
            </Position>
            <AltitudeMeters>644.4000244140625</AltitudeMeters>
            <DistanceMeters>NAN</DistanceMeters>
          </Trackpoint>
          <Trackpoint>
            <Time>2019-10-05T14:55:18.000Z</Time>
            <Position>
              <LatitudeDegrees>41.61217027343809604644775390625</LatitudeDegrees>
              <LongitudeDegrees>-5.79057184047996997833251953125</LongitudeDegrees>
            </Position>
            <AltitudeMeters>644.20001220703125</AltitudeMeters>
            <DistanceMeters>NAN</DistanceMeters>
          </Trackpoint>
          <Trackpoint>
            <Time>2019-10-05T14:55:27.000Z</Time>
            <Position>
              <LatitudeDegrees>41.61175377666950225830078125</LatitudeDegrees>
              <LongitudeDegrees>-5.7904254086315631866455078125</LongitudeDegrees>
            </Position>
            <AltitudeMeters>644.4000244140625</AltitudeMeters>
            <DistanceMeters>NAN</DistanceMeters>
          </Trackpoint>
          <Trackpoint>
            <Time>2019-10-05T14:55:28.000Z</Time>
            <Position>
              <LatitudeDegrees>41.611706502735614776611328125</LatitudeDegrees>
              <LongitudeDegrees>-5.79041359014809131622314453125</LongitudeDegrees>
            </Position>
            <AltitudeMeters>644.4000244140625</AltitudeMeters>
            <DistanceMeters>NAN</DistanceMeters>
          </Trackpoint>
          <Trackpoint>
            <Time>2019-10-05T14:55:34.000Z</Time>
            <Position>
              <LatitudeDegrees>41.61142562516033649444580078125</LatitudeDegrees>
              <LongitudeDegrees>-5.7903110794723033905029296875</LongitudeDegrees>
            </Position>
            <AltitudeMeters>644.79998779296875</AltitudeMeters>
            <DistanceMeters>NAN</DistanceMeters>
          </Trackpoint>
          <Trackpoint>
            <Time>2019-10-05T14:55:44.000Z</Time>
            <Position>
              <LatitudeDegrees>41.6109444200992584228515625</LatitudeDegrees>
              <LongitudeDegrees>-5.79014696180820465087890625</LongitudeDegrees>
            </Position>
            <AltitudeMeters>644.4000244140625</AltitudeMeters>
            <DistanceMeters>NAN</DistanceMeters>
          </Trackpoint>
          <Trackpoint>
            <Time>2019-10-05T14:55:50.000Z</Time>
            <Position>
              <LatitudeDegrees>41.61063219420611858367919921875</LatitudeDegrees>
              <LongitudeDegrees>-5.79003967344760894775390625</LongitudeDegrees>
            </Position>
            <AltitudeMeters>643.79998779296875</AltitudeMeters>
            <DistanceMeters>NAN</DistanceMeters>
          </Trackpoint>
          <Trackpoint>
            <Time>2019-10-05T14:55:59.000Z</Time>
            <Position>
              <LatitudeDegrees>41.61017118953168392181396484375</LatitudeDegrees>
              <LongitudeDegrees>-5.78988544642925262451171875</LongitudeDegrees>
            </Position>
            <AltitudeMeters>645</AltitudeMeters>
            <DistanceMeters>NAN</DistanceMeters>
          </Trackpoint>
          <Trackpoint>
            <Time>2019-10-05T14:56:08.000Z</Time>
            <Position>
              <LatitudeDegrees>41.6097268648445606231689453125</LatitudeDegrees>
              <LongitudeDegrees>-5.7897327281534671783447265625</LongitudeDegrees>
            </Position>
            <AltitudeMeters>644.5999755859375</AltitudeMeters>
            <DistanceMeters>NAN</DistanceMeters>
          </Trackpoint>
          <Trackpoint>
            <Time>2019-10-05T14:56:18.000Z</Time>
            <Position>
              <LatitudeDegrees>41.60921079106628894805908203125</LatitudeDegrees>
              <LongitudeDegrees>-5.789550840854644775390625</LongitudeDegrees>
            </Position>
            <AltitudeMeters>644.5999755859375</AltitudeMeters>
            <DistanceMeters>NAN</DistanceMeters>
          </Trackpoint>
          <Trackpoint>
            <Time>2019-10-05T14:56:19.000Z</Time>
            <Position>
              <LatitudeDegrees>41.6091585718095302581787109375</LatitudeDegrees>
              <LongitudeDegrees>-5.789531059563159942626953125</LongitudeDegrees>
            </Position>
            <AltitudeMeters>644.5999755859375</AltitudeMeters>
            <DistanceMeters>NAN</DistanceMeters>
          </Trackpoint>
          <Trackpoint>
            <Time>2019-10-05T14:56:28.000Z</Time>
            <Position>
              <LatitudeDegrees>41.6086891852319240570068359375</LatitudeDegrees>
              <LongitudeDegrees>-5.78937591053545475006103515625</LongitudeDegrees>
            </Position>
            <AltitudeMeters>644</AltitudeMeters>
            <DistanceMeters>NAN</DistanceMeters>
          </Trackpoint>
          <Trackpoint>
            <Time>2019-10-05T14:56:37.000Z</Time>
            <Position>
              <LatitudeDegrees>41.60822709091007709503173828125</LatitudeDegrees>
              <LongitudeDegrees>-5.78920726664364337921142578125</LongitudeDegrees>
            </Position>
            <AltitudeMeters>644.5999755859375</AltitudeMeters>
            <DistanceMeters>NAN</DistanceMeters>
          </Trackpoint>
          <Trackpoint>
            <Time>2019-10-05T14:56:46.000Z</Time>
            <Position>
              <LatitudeDegrees>41.607759632170200347900390625</LatitudeDegrees>
              <LongitudeDegrees>-5.78904599882662296295166015625</LongitudeDegrees>
            </Position>
            <AltitudeMeters>645</AltitudeMeters>
            <DistanceMeters>NAN</DistanceMeters>
          </Trackpoint>
          <Trackpoint>
            <Time>2019-10-05T14:56:52.000Z</Time>
            <Position>
              <LatitudeDegrees>41.60744941793382167816162109375</LatitudeDegrees>
              <LongitudeDegrees>-5.78893728554248809814453125</LongitudeDegrees>
            </Position>
            <AltitudeMeters>645.4000244140625</AltitudeMeters>
            <DistanceMeters>NAN</DistanceMeters>
          </Trackpoint>
          <Trackpoint>
            <Time>2019-10-05T14:56:54.000Z</Time>
            <Position>
              <LatitudeDegrees>41.60734430886805057525634765625</LatitudeDegrees>
              <LongitudeDegrees>-5.78890317119657993316650390625</LongitudeDegrees>
            </Position>
            <AltitudeMeters>645.20001220703125</AltitudeMeters>
            <DistanceMeters>NAN</DistanceMeters>
          </Trackpoint>
          <Trackpoint>
            <Time>2019-10-05T14:57:03.000Z</Time>
            <Position>
              <LatitudeDegrees>41.606867127120494842529296875</LatitudeDegrees>
              <LongitudeDegrees>-5.788736455142498016357421875</LongitudeDegrees>
            </Position>
            <AltitudeMeters>645.20001220703125</AltitudeMeters>
            <DistanceMeters>NAN</DistanceMeters>
          </Trackpoint>
          <Trackpoint>
            <Time>2019-10-05T14:57:12.000Z</Time>
            <Position>
              <LatitudeDegrees>41.60635205917060375213623046875</LatitudeDegrees>
              <LongitudeDegrees>-5.78855347819626331329345703125</LongitudeDegrees>
            </Position>
            <AltitudeMeters>644.5999755859375</AltitudeMeters>
            <DistanceMeters>NAN</DistanceMeters>
          </Trackpoint>
          <Trackpoint>
            <Time>2019-10-05T14:57:13.000Z</Time>
            <Position>
              <LatitudeDegrees>41.6062902845442295074462890625</LatitudeDegrees>
              <LongitudeDegrees>-5.7885302603244781494140625</LongitudeDegrees>
            </Position>
            <AltitudeMeters>644.79998779296875</AltitudeMeters>
            <DistanceMeters>NAN</DistanceMeters>
          </Trackpoint>
          <Trackpoint>
            <Time>2019-10-05T14:57:17.000Z</Time>
            <Position>
              <LatitudeDegrees>41.60606405697762966156005859375</LatitudeDegrees>
              <LongitudeDegrees>-5.78843898139894008636474609375</LongitudeDegrees>
            </Position>
            <AltitudeMeters>644.20001220703125</AltitudeMeters>
            <DistanceMeters>NAN</DistanceMeters>
          </Trackpoint>
          <Trackpoint>
            <Time>2019-10-05T14:57:18.000Z</Time>
            <Position>
              <LatitudeDegrees>41.60600957460701465606689453125</LatitudeDegrees>
              <LongitudeDegrees>-5.78842364251613616943359375</LongitudeDegrees>
            </Position>
            <AltitudeMeters>644.4000244140625</AltitudeMeters>
            <DistanceMeters>NAN</DistanceMeters>
          </Trackpoint>
          <Trackpoint>
            <Time>2019-10-05T14:57:24.000Z</Time>
            <Position>
              <LatitudeDegrees>41.6057008691132068634033203125</LatitudeDegrees>
              <LongitudeDegrees>-5.78834175132215023040771484375</LongitudeDegrees>
            </Position>
            <AltitudeMeters>644</AltitudeMeters>
            <DistanceMeters>NAN</DistanceMeters>
          </Trackpoint>
          <Trackpoint>
            <Time>2019-10-05T14:57:28.000Z</Time>
            <Position>
              <LatitudeDegrees>41.60546760074794292449951171875</LatitudeDegrees>
              <LongitudeDegrees>-5.78828173689544200897216796875</LongitudeDegrees>
            </Position>
            <AltitudeMeters>643.79998779296875</AltitudeMeters>
            <DistanceMeters>NAN</DistanceMeters>
          </Trackpoint>
          <Trackpoint>
            <Time>2019-10-05T14:57:29.000Z</Time>
            <Position>
              <LatitudeDegrees>41.60540607757866382598876953125</LatitudeDegrees>
              <LongitudeDegrees>-5.78826011158525943756103515625</LongitudeDegrees>
            </Position>
            <AltitudeMeters>643.79998779296875</AltitudeMeters>
            <DistanceMeters>NAN</DistanceMeters>
          </Trackpoint>
          <Trackpoint>
            <Time>2019-10-05T14:57:35.000Z</Time>
            <Position>
              <LatitudeDegrees>41.6050440631806850433349609375</LatitudeDegrees>
              <LongitudeDegrees>-5.78811845742166042327880859375</LongitudeDegrees>
            </Position>
            <AltitudeMeters>643.20001220703125</AltitudeMeters>
            <DistanceMeters>NAN</DistanceMeters>
          </Trackpoint>
          <Trackpoint>
            <Time>2019-10-05T14:57:36.000Z</Time>
            <Position>
              <LatitudeDegrees>41.60498656332492828369140625</LatitudeDegrees>
              <LongitudeDegrees>-5.7880952395498752593994140625</LongitudeDegrees>
            </Position>
            <AltitudeMeters>643.79998779296875</AltitudeMeters>
            <DistanceMeters>NAN</DistanceMeters>
          </Trackpoint>
          <Trackpoint>
            <Time>2019-10-05T14:57:43.000Z</Time>
            <Position>
              <LatitudeDegrees>41.6045964695513248443603515625</LatitudeDegrees>
              <LongitudeDegrees>-5.787947215139865875244140625</LongitudeDegrees>
            </Position>
            <AltitudeMeters>643.5999755859375</AltitudeMeters>
            <DistanceMeters>NAN</DistanceMeters>
          </Trackpoint>
          <Trackpoint>
            <Time>2019-10-05T14:57:53.000Z</Time>
            <Position>
              <LatitudeDegrees>41.60403630696237087249755859375</LatitudeDegrees>
              <LongitudeDegrees>-5.78775099478662014007568359375</LongitudeDegrees>
            </Position>
            <AltitudeMeters>643.20001220703125</AltitudeMeters>
            <DistanceMeters>NAN</DistanceMeters>
          </Trackpoint>
          <Trackpoint>
            <Time>2019-10-05T14:57:56.000Z</Time>
            <Position>
              <LatitudeDegrees>41.6038635559380054473876953125</LatitudeDegrees>
              <LongitudeDegrees>-5.78768745996057987213134765625</LongitudeDegrees>
            </Position>
            <AltitudeMeters>642</AltitudeMeters>
            <DistanceMeters>NAN</DistanceMeters>
          </Trackpoint>
          <Trackpoint>
            <Time>2019-10-05T14:58:03.000Z</Time>
            <Position>
              <LatitudeDegrees>41.60345544107258319854736328125</LatitudeDegrees>
              <LongitudeDegrees>-5.78754664398729801177978515625</LongitudeDegrees>
            </Position>
            <AltitudeMeters>641.5999755859375</AltitudeMeters>
            <DistanceMeters>NAN</DistanceMeters>
          </Trackpoint>
          <Trackpoint>
            <Time>2019-10-05T14:58:11.000Z</Time>
            <Position>
              <LatitudeDegrees>41.6030086018145084381103515625</LatitudeDegrees>
              <LongitudeDegrees>-5.78739526681602001190185546875</LongitudeDegrees>
            </Position>
            <AltitudeMeters>641.5999755859375</AltitudeMeters>
            <DistanceMeters>NAN</DistanceMeters>
          </Trackpoint>
          <Trackpoint>
            <Time>2019-10-05T14:58:13.000Z</Time>
            <Position>
              <LatitudeDegrees>41.6029013134539127349853515625</LatitudeDegrees>
              <LongitudeDegrees>-5.78735654242336750030517578125</LongitudeDegrees>
            </Position>
            <AltitudeMeters>641</AltitudeMeters>
            <DistanceMeters>NAN</DistanceMeters>
          </Trackpoint>
          <Trackpoint>
            <Time>2019-10-05T14:58:18.000Z</Time>
            <Position>
              <LatitudeDegrees>41.60264139063656330108642578125</LatitudeDegrees>
              <LongitudeDegrees>-5.78726836480200290679931640625</LongitudeDegrees>
            </Position>
            <AltitudeMeters>641.4000244140625</AltitudeMeters>
            <DistanceMeters>NAN</DistanceMeters>
          </Trackpoint>
          <Trackpoint>
            <Time>2019-10-05T14:58:20.000Z</Time>
            <Position>
              <LatitudeDegrees>41.6025378741323947906494140625</LatitudeDegrees>
              <LongitudeDegrees>-5.78723165206611156463623046875</LongitudeDegrees>
            </Position>
            <AltitudeMeters>641.79998779296875</AltitudeMeters>
            <DistanceMeters>NAN</DistanceMeters>
          </Trackpoint>
          <Trackpoint>
            <Time>2019-10-05T14:58:28.000Z</Time>
            <Position>
              <LatitudeDegrees>41.602121628820896148681640625</LatitudeDegrees>
              <LongitudeDegrees>-5.787090249359607696533203125</LongitudeDegrees>
            </Position>
            <AltitudeMeters>641.4000244140625</AltitudeMeters>
            <DistanceMeters>NAN</DistanceMeters>
          </Trackpoint>
          <Trackpoint>
            <Time>2019-10-05T14:58:32.000Z</Time>
            <Position>
              <LatitudeDegrees>41.6019176132977008819580078125</LatitudeDegrees>
              <LongitudeDegrees>-5.78701791353523731231689453125</LongitudeDegrees>
            </Position>
            <AltitudeMeters>642</AltitudeMeters>
            <DistanceMeters>NAN</DistanceMeters>
          </Trackpoint>
          <Trackpoint>
            <Time>2019-10-05T14:58:40.000Z</Time>
            <Position>
              <LatitudeDegrees>41.6015115939080715179443359375</LatitudeDegrees>
              <LongitudeDegrees>-5.78687491826713085174560546875</LongitudeDegrees>
            </Position>
            <AltitudeMeters>642.20001220703125</AltitudeMeters>
            <DistanceMeters>NAN</DistanceMeters>
          </Trackpoint>
          <Trackpoint>
            <Time>2019-10-05T14:58:51.000Z</Time>
            <Position>
              <LatitudeDegrees>41.600970290601253509521484375</LatitudeDegrees>
              <LongitudeDegrees>-5.78668733127415180206298828125</LongitudeDegrees>
            </Position>
            <AltitudeMeters>642.4000244140625</AltitudeMeters>
            <DistanceMeters>NAN</DistanceMeters>
          </Trackpoint>
          <Trackpoint>
            <Time>2019-10-05T14:58:53.000Z</Time>
            <Position>
              <LatitudeDegrees>41.6008702106773853302001953125</LatitudeDegrees>
              <LongitudeDegrees>-5.78665296547114849090576171875</LongitudeDegrees>
            </Position>
            <AltitudeMeters>642.4000244140625</AltitudeMeters>
            <DistanceMeters>NAN</DistanceMeters>
          </Trackpoint>
          <Trackpoint>
            <Time>2019-10-05T14:59:00.000Z</Time>
            <Position>
              <LatitudeDegrees>41.60050115548074245452880859375</LatitudeDegrees>
              <LongitudeDegrees>-5.786518268287181854248046875</LongitudeDegrees>
            </Position>
            <AltitudeMeters>642.20001220703125</AltitudeMeters>
            <DistanceMeters>NAN</DistanceMeters>
          </Trackpoint>
          <Trackpoint>
            <Time>2019-10-05T14:59:01.000Z</Time>
            <Position>
              <LatitudeDegrees>41.60044650547206401824951171875</LatitudeDegrees>
              <LongitudeDegrees>-5.7864993251860141754150390625</LongitudeDegrees>
            </Position>
            <AltitudeMeters>642</AltitudeMeters>
            <DistanceMeters>NAN</DistanceMeters>
          </Trackpoint>
          <Trackpoint>
            <Time>2019-10-05T14:59:09.000Z</Time>
            <Position>
              <LatitudeDegrees>41.59998063929378986358642578125</LatitudeDegrees>
              <LongitudeDegrees>-5.78633847646415233612060546875</LongitudeDegrees>
            </Position>
            <AltitudeMeters>641</AltitudeMeters>
            <DistanceMeters>NAN</DistanceMeters>
          </Trackpoint>
          <Trackpoint>
            <Time>2019-10-05T14:59:10.000Z</Time>
            <Position>
              <LatitudeDegrees>41.59991945140063762664794921875</LatitudeDegrees>
              <LongitudeDegrees>-5.78631542623043060302734375</LongitudeDegrees>
            </Position>
            <AltitudeMeters>640.79998779296875</AltitudeMeters>
            <DistanceMeters>NAN</DistanceMeters>
          </Trackpoint>
          <Trackpoint>
            <Time>2019-10-05T14:59:19.000Z</Time>
            <Position>
              <LatitudeDegrees>41.59936331212520599365234375</LatitudeDegrees>
              <LongitudeDegrees>-5.786117613315582275390625</LongitudeDegrees>
            </Position>
            <AltitudeMeters>640</AltitudeMeters>
            <DistanceMeters>NAN</DistanceMeters>
          </Trackpoint>
          <Trackpoint>
            <Time>2019-10-05T14:59:20.000Z</Time>
            <Position>
              <LatitudeDegrees>41.59930162131786346435546875</LatitudeDegrees>
              <LongitudeDegrees>-5.786096155643463134765625</LongitudeDegrees>
            </Position>
            <AltitudeMeters>639.5999755859375</AltitudeMeters>
            <DistanceMeters>NAN</DistanceMeters>
          </Trackpoint>
          <Trackpoint>
            <Time>2019-10-05T14:59:23.000Z</Time>
            <Position>
              <LatitudeDegrees>41.59911562688648700714111328125</LatitudeDegrees>
              <LongitudeDegrees>-5.78602851368486881256103515625</LongitudeDegrees>
            </Position>
            <AltitudeMeters>640</AltitudeMeters>
            <DistanceMeters>NAN</DistanceMeters>
          </Trackpoint>
          <Trackpoint>
            <Time>2019-10-05T14:59:28.000Z</Time>
            <Position>
              <LatitudeDegrees>41.59879929386079311370849609375</LatitudeDegrees>
              <LongitudeDegrees>-5.7859206385910511016845703125</LongitudeDegrees>
            </Position>
            <AltitudeMeters>639.4000244140625</AltitudeMeters>
            <DistanceMeters>NAN</DistanceMeters>
          </Trackpoint>
          <Trackpoint>
            <Time>2019-10-05T14:59:32.000Z</Time>
            <Position>
              <LatitudeDegrees>41.59855035133659839630126953125</LatitudeDegrees>
              <LongitudeDegrees>-5.785836316645145416259765625</LongitudeDegrees>
            </Position>
            <AltitudeMeters>639</AltitudeMeters>
            <DistanceMeters>NAN</DistanceMeters>
          </Trackpoint>
          <Trackpoint>
            <Time>2019-10-05T14:59:39.000Z</Time>
            <Position>
              <LatitudeDegrees>41.59812672995030879974365234375</LatitudeDegrees>
              <LongitudeDegrees>-5.7856835983693599700927734375</LongitudeDegrees>
            </Position>
            <AltitudeMeters>638.79998779296875</AltitudeMeters>
            <DistanceMeters>NAN</DistanceMeters>
          </Trackpoint>
          <Trackpoint>
            <Time>2019-10-05T14:59:46.000Z</Time>
            <Position>
              <LatitudeDegrees>41.59769774414598941802978515625</LatitudeDegrees>
              <LongitudeDegrees>-5.7855374179780483245849609375</LongitudeDegrees>
            </Position>
            <AltitudeMeters>638.20001220703125</AltitudeMeters>
            <DistanceMeters>NAN</DistanceMeters>
          </Trackpoint>
          <Trackpoint>
            <Time>2019-10-05T14:59:55.000Z</Time>
            <Position>
              <LatitudeDegrees>41.5971838496625423431396484375</LatitudeDegrees>
              <LongitudeDegrees>-5.7853583805263042449951171875</LongitudeDegrees>
            </Position>
            <AltitudeMeters>638.79998779296875</AltitudeMeters>
            <DistanceMeters>NAN</DistanceMeters>
          </Trackpoint>
          <Trackpoint>
            <Time>2019-10-05T14:59:58.000Z</Time>
            <Position>
              <LatitudeDegrees>41.59701914526522159576416015625</LatitudeDegrees>
              <LongitudeDegrees>-5.7853035628795623779296875</LongitudeDegrees>
            </Position>
            <AltitudeMeters>639.4000244140625</AltitudeMeters>
            <DistanceMeters>NAN</DistanceMeters>
          </Trackpoint>
          <Trackpoint>
            <Time>2019-10-05T15:00:05.000Z</Time>
            <Position>
              <LatitudeDegrees>41.5966373495757579803466796875</LatitudeDegrees>
              <LongitudeDegrees>-5.78517255373299121856689453125</LongitudeDegrees>
            </Position>
            <AltitudeMeters>638.4000244140625</AltitudeMeters>
            <DistanceMeters>NAN</DistanceMeters>
          </Trackpoint>
          <Trackpoint>
            <Time>2019-10-05T15:00:15.000Z</Time>
            <Position>
              <LatitudeDegrees>41.59609629772603511810302734375</LatitudeDegrees>
              <LongitudeDegrees>-5.78497976996004581451416015625</LongitudeDegrees>
            </Position>
            <AltitudeMeters>638.79998779296875</AltitudeMeters>
            <DistanceMeters>NAN</DistanceMeters>
          </Trackpoint>
          <Trackpoint>
            <Time>2019-10-05T15:00:16.000Z</Time>
            <Position>
              <LatitudeDegrees>41.59600920975208282470703125</LatitudeDegrees>
              <LongitudeDegrees>-5.7849486730992794036865234375</LongitudeDegrees>
            </Position>
            <AltitudeMeters>639</AltitudeMeters>
            <DistanceMeters>NAN</DistanceMeters>
          </Trackpoint>
          <Trackpoint>
            <Time>2019-10-05T15:00:26.000Z</Time>
            <Position>
              <LatitudeDegrees>41.59549883566796779632568359375</LatitudeDegrees>
              <LongitudeDegrees>-5.7847733236849308013916015625</LongitudeDegrees>
            </Position>
            <AltitudeMeters>637.79998779296875</AltitudeMeters>
            <DistanceMeters>NAN</DistanceMeters>
          </Trackpoint>
          <Trackpoint>
            <Time>2019-10-05T15:00:36.000Z</Time>
            <Position>
              <LatitudeDegrees>41.59494579769670963287353515625</LatitudeDegrees>
              <LongitudeDegrees>-5.7845815457403659820556640625</LongitudeDegrees>
            </Position>
            <AltitudeMeters>637.5999755859375</AltitudeMeters>
            <DistanceMeters>NAN</DistanceMeters>
          </Trackpoint>
          <Trackpoint>
            <Time>2019-10-05T15:00:37.000Z</Time>
            <Position>
              <LatitudeDegrees>41.59489072859287261962890625</LatitudeDegrees>
              <LongitudeDegrees>-5.784561596810817718505859375</LongitudeDegrees>
            </Position>
            <AltitudeMeters>637.5999755859375</AltitudeMeters>
            <DistanceMeters>NAN</DistanceMeters>
          </Trackpoint>
          <Trackpoint>
            <Time>2019-10-05T15:00:47.000Z</Time>
            <Position>
              <LatitudeDegrees>41.5943410433828830718994140625</LatitudeDegrees>
              <LongitudeDegrees>-5.784366130828857421875</LongitudeDegrees>
            </Position>
            <AltitudeMeters>638</AltitudeMeters>
            <DistanceMeters>NAN</DistanceMeters>
          </Trackpoint>
          <Trackpoint>
            <Time>2019-10-05T15:00:50.000Z</Time>
            <Position>
              <LatitudeDegrees>41.59417164511978626251220703125</LatitudeDegrees>
              <LongitudeDegrees>-5.78431315720081329345703125</LongitudeDegrees>
            </Position>
            <AltitudeMeters>638</AltitudeMeters>
            <DistanceMeters>NAN</DistanceMeters>
          </Trackpoint>
          <Trackpoint>
            <Time>2019-10-05T15:00:59.000Z</Time>
            <Position>
              <LatitudeDegrees>41.59366923384368419647216796875</LatitudeDegrees>
              <LongitudeDegrees>-5.7841450162231922149658203125</LongitudeDegrees>
            </Position>
            <AltitudeMeters>637.20001220703125</AltitudeMeters>
            <DistanceMeters>NAN</DistanceMeters>
          </Trackpoint>
          <Trackpoint>
            <Time>2019-10-05T15:01:04.000Z</Time>
            <Position>
              <LatitudeDegrees>41.5933969058096408843994140625</LatitudeDegrees>
              <LongitudeDegrees>-5.784049294888973236083984375</LongitudeDegrees>
            </Position>
            <AltitudeMeters>636.79998779296875</AltitudeMeters>
            <DistanceMeters>NAN</DistanceMeters>
          </Trackpoint>
          <Trackpoint>
            <Time>2019-10-05T15:01:11.000Z</Time>
            <Position>
              <LatitudeDegrees>41.59305752255022525787353515625</LatitudeDegrees>
              <LongitudeDegrees>-5.78393169678747653961181640625</LongitudeDegrees>
            </Position>
            <AltitudeMeters>638</AltitudeMeters>
            <DistanceMeters>NAN</DistanceMeters>
          </Trackpoint>
          <Trackpoint>
            <Time>2019-10-05T15:01:16.000Z</Time>
            <Position>
              <LatitudeDegrees>41.59283121116459369659423828125</LatitudeDegrees>
              <LongitudeDegrees>-5.7838586904108524322509765625</LongitudeDegrees>
            </Position>
            <AltitudeMeters>638.20001220703125</AltitudeMeters>
            <DistanceMeters>NAN</DistanceMeters>
          </Trackpoint>
          <Trackpoint>
            <Time>2019-10-05T15:01:17.000Z</Time>
            <Position>
              <LatitudeDegrees>41.59275510348379611968994140625</LatitudeDegrees>
              <LongitudeDegrees>-5.78382759355008602142333984375</LongitudeDegrees>
            </Position>
            <AltitudeMeters>638.79998779296875</AltitudeMeters>
            <DistanceMeters>NAN</DistanceMeters>
          </Trackpoint>
          <Trackpoint>
            <Time>2019-10-05T15:01:20.000Z</Time>
            <Position>
              <LatitudeDegrees>41.5926556102931499481201171875</LatitudeDegrees>
              <LongitudeDegrees>-5.78379607759416103363037109375</LongitudeDegrees>
            </Position>
            <AltitudeMeters>639.4000244140625</AltitudeMeters>
            <DistanceMeters>NAN</DistanceMeters>
          </Trackpoint>
          <Trackpoint>
            <Time>2019-10-05T15:01:25.000Z</Time>
            <Position>
              <LatitudeDegrees>41.5924423746764659881591796875</LatitudeDegrees>
              <LongitudeDegrees>-5.78370831906795501708984375</LongitudeDegrees>
            </Position>
            <AltitudeMeters>639.20001220703125</AltitudeMeters>
            <DistanceMeters>NAN</DistanceMeters>
          </Trackpoint>
          <Trackpoint>
            <Time>2019-10-05T15:01:27.000Z</Time>
            <Position>
              <LatitudeDegrees>41.5923562087118625640869140625</LatitudeDegrees>
              <LongitudeDegrees>-5.783685855567455291748046875</LongitudeDegrees>
            </Position>
            <AltitudeMeters>639.4000244140625</AltitudeMeters>
            <DistanceMeters>NAN</DistanceMeters>
          </Trackpoint>
          <Trackpoint>
            <Time>2019-10-05T15:01:29.000Z</Time>
            <Position>
              <LatitudeDegrees>41.592267863452434539794921875</LatitudeDegrees>
              <LongitudeDegrees>-5.783656351268291473388671875</LongitudeDegrees>
            </Position>
            <AltitudeMeters>639.79998779296875</AltitudeMeters>
            <DistanceMeters>NAN</DistanceMeters>
          </Trackpoint>
          <Trackpoint>
            <Time>2019-10-05T15:01:34.000Z</Time>
            <Position>
              <LatitudeDegrees>41.59205487929284572601318359375</LatitudeDegrees>
              <LongitudeDegrees>-5.78357915394008159637451171875</LongitudeDegrees>
            </Position>
            <AltitudeMeters>640.4000244140625</AltitudeMeters>
            <DistanceMeters>NAN</DistanceMeters>
          </Trackpoint>
          <Trackpoint>
            <Time>2019-10-05T15:01:35.000Z</Time>
            <Position>
              <LatitudeDegrees>41.59201313741505146026611328125</LatitudeDegrees>
              <LongitudeDegrees>-5.78356674872338771820068359375</LongitudeDegrees>
            </Position>
            <AltitudeMeters>640.5999755859375</AltitudeMeters>
            <DistanceMeters>NAN</DistanceMeters>
          </Trackpoint>
          <Trackpoint>
            <Time>2019-10-05T15:01:37.000Z</Time>
            <Position>
              <LatitudeDegrees>41.59192797727882862091064453125</LatitudeDegrees>
              <LongitudeDegrees>-5.783538334071636199951171875</LongitudeDegrees>
            </Position>
            <AltitudeMeters>641</AltitudeMeters>
            <DistanceMeters>NAN</DistanceMeters>
          </Trackpoint>
          <Trackpoint>
            <Time>2019-10-05T15:01:41.000Z</Time>
            <Position>
              <LatitudeDegrees>41.59175346605479717254638671875</LatitudeDegrees>
              <LongitudeDegrees>-5.7834769785404205322265625</LongitudeDegrees>
            </Position>
            <AltitudeMeters>640.79998779296875</AltitudeMeters>
            <DistanceMeters>NAN</DistanceMeters>
          </Trackpoint>
          <Trackpoint>
            <Time>2019-10-05T15:01:43.000Z</Time>
            <Position>
              <LatitudeDegrees>41.59165824763476848602294921875</LatitudeDegrees>
              <LongitudeDegrees>-5.7834439538419246673583984375</LongitudeDegrees>
            </Position>
            <AltitudeMeters>641.20001220703125</AltitudeMeters>
            <DistanceMeters>NAN</DistanceMeters>
          </Trackpoint>
          <Trackpoint>
            <Time>2019-10-05T15:01:49.000Z</Time>
            <Position>
              <LatitudeDegrees>41.591370999813079833984375</LatitudeDegrees>
              <LongitudeDegrees>-5.78334697522222995758056640625</LongitudeDegrees>
            </Position>
            <AltitudeMeters>641</AltitudeMeters>
            <DistanceMeters>NAN</DistanceMeters>
          </Trackpoint>
          <Trackpoint>
            <Time>2019-10-05T15:01:53.000Z</Time>
            <Position>
              <LatitudeDegrees>41.591174863278865814208984375</LatitudeDegrees>
              <LongitudeDegrees>-5.78327757306396961212158203125</LongitudeDegrees>
            </Position>
            <AltitudeMeters>641.4000244140625</AltitudeMeters>
            <DistanceMeters>NAN</DistanceMeters>
          </Trackpoint>
          <Trackpoint>
            <Time>2019-10-05T15:02:01.000Z</Time>
            <Position>
              <LatitudeDegrees>41.59079323522746562957763671875</LatitudeDegrees>
              <LongitudeDegrees>-5.78314480371773242950439453125</LongitudeDegrees>
            </Position>
            <AltitudeMeters>641.20001220703125</AltitudeMeters>
            <DistanceMeters>NAN</DistanceMeters>
          </Trackpoint>
          <Trackpoint>
            <Time>2019-10-05T15:02:09.000Z</Time>
            <Position>
              <LatitudeDegrees>41.59039668738842010498046875</LatitudeDegrees>
              <LongitudeDegrees>-5.78301094472408294677734375</LongitudeDegrees>
            </Position>
            <AltitudeMeters>640.79998779296875</AltitudeMeters>
            <DistanceMeters>NAN</DistanceMeters>
          </Trackpoint>
          <Trackpoint>
            <Time>2019-10-05T15:02:18.000Z</Time>
            <Position>
              <LatitudeDegrees>41.58994381316006183624267578125</LatitudeDegrees>
              <LongitudeDegrees>-5.78285126946866512298583984375</LongitudeDegrees>
            </Position>
            <AltitudeMeters>640.4000244140625</AltitudeMeters>
            <DistanceMeters>NAN</DistanceMeters>
          </Trackpoint>
          <Trackpoint>
            <Time>2019-10-05T15:02:28.000Z</Time>
            <Position>
              <LatitudeDegrees>41.58943452872335910797119140625</LatitudeDegrees>
              <LongitudeDegrees>-5.7826758362352848052978515625</LongitudeDegrees>
            </Position>
            <AltitudeMeters>641.20001220703125</AltitudeMeters>
            <DistanceMeters>NAN</DistanceMeters>
          </Trackpoint>
          <Trackpoint>
            <Time>2019-10-05T15:02:36.000Z</Time>
            <Position>
              <LatitudeDegrees>41.5890078060328960418701171875</LatitudeDegrees>
              <LongitudeDegrees>-5.782525800168514251708984375</LongitudeDegrees>
            </Position>
            <AltitudeMeters>641</AltitudeMeters>
            <DistanceMeters>NAN</DistanceMeters>
          </Trackpoint>
          <Trackpoint>
            <Time>2019-10-05T15:02:41.000Z</Time>
            <Position>
              <LatitudeDegrees>41.58874151296913623809814453125</LatitudeDegrees>
              <LongitudeDegrees>-5.78243250958621501922607421875</LongitudeDegrees>
            </Position>
            <AltitudeMeters>640.79998779296875</AltitudeMeters>
            <DistanceMeters>NAN</DistanceMeters>
          </Trackpoint>
          <Trackpoint>
            <Time>2019-10-05T15:02:46.000Z</Time>
            <Position>
              <LatitudeDegrees>41.58846960403025150299072265625</LatitudeDegrees>
              <LongitudeDegrees>-5.782337374985218048095703125</LongitudeDegrees>
            </Position>
            <AltitudeMeters>640</AltitudeMeters>
            <DistanceMeters>NAN</DistanceMeters>
          </Trackpoint>
          <Trackpoint>
            <Time>2019-10-05T15:02:49.000Z</Time>
            <Position>
              <LatitudeDegrees>41.58830733038485050201416015625</LatitudeDegrees>
              <LongitudeDegrees>-5.78228297643363475799560546875</LongitudeDegrees>
            </Position>
            <AltitudeMeters>639.5999755859375</AltitudeMeters>
            <DistanceMeters>NAN</DistanceMeters>
          </Trackpoint>
          <Trackpoint>
            <Time>2019-10-05T15:02:54.000Z</Time>
            <Position>
              <LatitudeDegrees>41.5880344994366168975830078125</LatitudeDegrees>
              <LongitudeDegrees>-5.782185159623622894287109375</LongitudeDegrees>
            </Position>
            <AltitudeMeters>639.4000244140625</AltitudeMeters>
            <DistanceMeters>NAN</DistanceMeters>
          </Trackpoint>
          <Trackpoint>
            <Time>2019-10-05T15:02:55.000Z</Time>
            <Position>
              <LatitudeDegrees>41.58797842450439929962158203125</LatitudeDegrees>
              <LongitudeDegrees>-5.782167725265026092529296875</LongitudeDegrees>
            </Position>
            <AltitudeMeters>639</AltitudeMeters>
            <DistanceMeters>NAN</DistanceMeters>
          </Trackpoint>
          <Trackpoint>
            <Time>2019-10-05T15:03:02.000Z</Time>
            <Position>
              <LatitudeDegrees>41.58759185113012790679931640625</LatitudeDegrees>
              <LongitudeDegrees>-5.78203353099524974822998046875</LongitudeDegrees>
            </Position>
            <AltitudeMeters>639</AltitudeMeters>
            <DistanceMeters>NAN</DistanceMeters>
          </Trackpoint>
          <Trackpoint>
            <Time>2019-10-05T15:03:05.000Z</Time>
            <Position>
              <LatitudeDegrees>41.58742857165634632110595703125</LatitudeDegrees>
              <LongitudeDegrees>-5.78198223374783992767333984375</LongitudeDegrees>
            </Position>
            <AltitudeMeters>638.5999755859375</AltitudeMeters>
            <DistanceMeters>NAN</DistanceMeters>
          </Trackpoint>
          <Trackpoint>
            <Time>2019-10-05T15:03:15.000Z</Time>
            <Position>
              <LatitudeDegrees>41.58689246512949466705322265625</LatitudeDegrees>
              <LongitudeDegrees>-5.7818005979061126708984375</LongitudeDegrees>
            </Position>
            <AltitudeMeters>639</AltitudeMeters>
            <DistanceMeters>NAN</DistanceMeters>
          </Trackpoint>
          <Trackpoint>
            <Time>2019-10-05T15:03:17.000Z</Time>
            <Position>
              <LatitudeDegrees>41.58678618259727954864501953125</LatitudeDegrees>
              <LongitudeDegrees>-5.78176430426537990570068359375</LongitudeDegrees>
            </Position>
            <AltitudeMeters>638.79998779296875</AltitudeMeters>
            <DistanceMeters>NAN</DistanceMeters>
          </Trackpoint>
          <Trackpoint>
            <Time>2019-10-05T15:03:18.000Z</Time>
            <Position>
              <LatitudeDegrees>41.58673237077891826629638671875</LatitudeDegrees>
              <LongitudeDegrees>-5.78174318186938762664794921875</LongitudeDegrees>
            </Position>
            <AltitudeMeters>638.4000244140625</AltitudeMeters>
            <DistanceMeters>NAN</DistanceMeters>
          </Trackpoint>
          <Trackpoint>
            <Time>2019-10-05T15:03:28.000Z</Time>
            <Position>
              <LatitudeDegrees>41.58619006164371967315673828125</LatitudeDegrees>
              <LongitudeDegrees>-5.78156230039894580841064453125</LongitudeDegrees>
            </Position>
            <AltitudeMeters>638</AltitudeMeters>
            <DistanceMeters>NAN</DistanceMeters>
          </Trackpoint>
          <Trackpoint>
            <Time>2019-10-05T15:03:38.000Z</Time>
            <Position>
              <LatitudeDegrees>41.58565043471753597259521484375</LatitudeDegrees>
              <LongitudeDegrees>-5.78137706033885478973388671875</LongitudeDegrees>
            </Position>
            <AltitudeMeters>638.20001220703125</AltitudeMeters>
            <DistanceMeters>NAN</DistanceMeters>
          </Trackpoint>
          <Trackpoint>
            <Time>2019-10-05T15:03:40.000Z</Time>
            <Position>
              <LatitudeDegrees>41.585540212690830230712890625</LatitudeDegrees>
              <LongitudeDegrees>-5.7813394255936145782470703125</LongitudeDegrees>
            </Position>
            <AltitudeMeters>638.4000244140625</AltitudeMeters>
            <DistanceMeters>NAN</DistanceMeters>
          </Trackpoint>
          <Trackpoint>
            <Time>2019-10-05T15:03:50.000Z</Time>
            <Position>
              <LatitudeDegrees>41.58498507924377918243408203125</LatitudeDegrees>
              <LongitudeDegrees>-5.78114571981132030487060546875</LongitudeDegrees>
            </Position>
            <AltitudeMeters>637.79998779296875</AltitudeMeters>
            <DistanceMeters>NAN</DistanceMeters>
          </Trackpoint>
          <Trackpoint>
            <Time>2019-10-05T15:03:51.000Z</Time>
            <Position>
              <LatitudeDegrees>41.58492791466414928436279296875</LatitudeDegrees>
              <LongitudeDegrees>-5.78112535178661346435546875</LongitudeDegrees>
            </Position>
            <AltitudeMeters>638</AltitudeMeters>
            <DistanceMeters>NAN</DistanceMeters>
          </Trackpoint>
          <Trackpoint>
            <Time>2019-10-05T15:04:01.000Z</Time>
            <Position>
              <LatitudeDegrees>41.584375798702239990234375</LatitudeDegrees>
              <LongitudeDegrees>-5.7809310592710971832275390625</LongitudeDegrees>
            </Position>
            <AltitudeMeters>638.20001220703125</AltitudeMeters>
            <DistanceMeters>NAN</DistanceMeters>
          </Trackpoint>
          <Trackpoint>
            <Time>2019-10-05T15:04:11.000Z</Time>
            <Position>
              <LatitudeDegrees>41.58383927308022975921630859375</LatitudeDegrees>
              <LongitudeDegrees>-5.7807439751923084259033203125</LongitudeDegrees>
            </Position>
            <AltitudeMeters>639.20001220703125</AltitudeMeters>
            <DistanceMeters>NAN</DistanceMeters>
          </Trackpoint>
          <Trackpoint>
            <Time>2019-10-05T15:04:13.000Z</Time>
            <Position>
              <LatitudeDegrees>41.58373081125319004058837890625</LatitudeDegrees>
              <LongitudeDegrees>-5.78071095049381256103515625</LongitudeDegrees>
            </Position>
            <AltitudeMeters>639.5999755859375</AltitudeMeters>
            <DistanceMeters>NAN</DistanceMeters>
          </Trackpoint>
          <Trackpoint>
            <Time>2019-10-05T15:04:19.000Z</Time>
            <Position>
              <LatitudeDegrees>41.58341565169394016265869140625</LatitudeDegrees>
              <LongitudeDegrees>-5.7805967889726161956787109375</LongitudeDegrees>
            </Position>
            <AltitudeMeters>639.5999755859375</AltitudeMeters>
            <DistanceMeters>NAN</DistanceMeters>
          </Trackpoint>
          <Trackpoint>
            <Time>2019-10-05T15:04:24.000Z</Time>
            <Position>
              <LatitudeDegrees>41.5831579081714153289794921875</LatitudeDegrees>
              <LongitudeDegrees>-5.78052110038697719573974609375</LongitudeDegrees>
            </Position>
            <AltitudeMeters>640</AltitudeMeters>
            <DistanceMeters>NAN</DistanceMeters>
          </Trackpoint>
          <Trackpoint>
            <Time>2019-10-05T15:04:27.000Z</Time>
            <Position>
              <LatitudeDegrees>41.58300879411399364471435546875</LatitudeDegrees>
              <LongitudeDegrees>-5.7804648578166961669921875</LongitudeDegrees>
            </Position>
            <AltitudeMeters>640.5999755859375</AltitudeMeters>
            <DistanceMeters>NAN</DistanceMeters>
          </Trackpoint>
          <Trackpoint>
            <Time>2019-10-05T15:04:29.000Z</Time>
            <Position>
              <LatitudeDegrees>41.5829108096659183502197265625</LatitudeDegrees>
              <LongitudeDegrees>-5.78043543733656406402587890625</LongitudeDegrees>
            </Position>
            <AltitudeMeters>641</AltitudeMeters>
            <DistanceMeters>NAN</DistanceMeters>
          </Trackpoint>
          <Trackpoint>
            <Time>2019-10-05T15:04:31.000Z</Time>
            <Position>
              <LatitudeDegrees>41.58280964009463787078857421875</LatitudeDegrees>
              <LongitudeDegrees>-5.7804046757519245147705078125</LongitudeDegrees>
            </Position>
            <AltitudeMeters>641.5999755859375</AltitudeMeters>
            <DistanceMeters>NAN</DistanceMeters>
          </Trackpoint>
          <Trackpoint>
            <Time>2019-10-05T15:04:35.000Z</Time>
            <Position>
              <LatitudeDegrees>41.58260528929531574249267578125</LatitudeDegrees>
              <LongitudeDegrees>-5.78033451922237873077392578125</LongitudeDegrees>
            </Position>
            <AltitudeMeters>641.4000244140625</AltitudeMeters>
            <DistanceMeters>NAN</DistanceMeters>
          </Trackpoint>
          <Trackpoint>
            <Time>2019-10-05T15:04:38.000Z</Time>
            <Position>
              <LatitudeDegrees>41.58245709724724292755126953125</LatitudeDegrees>
              <LongitudeDegrees>-5.7802833057940006256103515625</LongitudeDegrees>
            </Position>
            <AltitudeMeters>641.79998779296875</AltitudeMeters>
            <DistanceMeters>NAN</DistanceMeters>
          </Trackpoint>
          <Trackpoint>
            <Time>2019-10-05T15:04:48.000Z</Time>
            <Position>
              <LatitudeDegrees>41.5819633193314075469970703125</LatitudeDegrees>
              <LongitudeDegrees>-5.7801089622080326080322265625</LongitudeDegrees>
            </Position>
            <AltitudeMeters>641.79998779296875</AltitudeMeters>
            <DistanceMeters>NAN</DistanceMeters>
          </Trackpoint>
          <Trackpoint>
            <Time>2019-10-05T15:04:58.000Z</Time>
            <Position>
              <LatitudeDegrees>41.5814429707825183868408203125</LatitudeDegrees>
              <LongitudeDegrees>-5.77993051148951053619384765625</LongitudeDegrees>
            </Position>
            <AltitudeMeters>641.79998779296875</AltitudeMeters>
            <DistanceMeters>NAN</DistanceMeters>
          </Trackpoint>
          <Trackpoint>
            <Time>2019-10-05T15:05:00.000Z</Time>
            <Position>
              <LatitudeDegrees>41.58133442513644695281982421875</LatitudeDegrees>
              <LongitudeDegrees>-5.77989614568650722503662109375</LongitudeDegrees>
            </Position>
            <AltitudeMeters>642</AltitudeMeters>
            <DistanceMeters>NAN</DistanceMeters>
          </Trackpoint>
          <Trackpoint>
            <Time>2019-10-05T15:05:05.000Z</Time>
            <Position>
              <LatitudeDegrees>41.581044830381870269775390625</LatitudeDegrees>
              <LongitudeDegrees>-5.7797914557158946990966796875</LongitudeDegrees>
            </Position>
            <AltitudeMeters>640.4000244140625</AltitudeMeters>
            <DistanceMeters>NAN</DistanceMeters>
          </Trackpoint>
          <Trackpoint>
            <Time>2019-10-05T15:05:08.000Z</Time>
            <Position>
              <LatitudeDegrees>41.58085883595049381256103515625</LatitudeDegrees>
              <LongitudeDegrees>-5.779731273651123046875</LongitudeDegrees>
            </Position>
            <AltitudeMeters>639.5999755859375</AltitudeMeters>
            <DistanceMeters>NAN</DistanceMeters>
          </Trackpoint>
          <Trackpoint>
            <Time>2019-10-05T15:05:11.000Z</Time>
            <Position>
              <LatitudeDegrees>41.58067158423364162445068359375</LatitudeDegrees>
              <LongitudeDegrees>-5.77966765500605106353759765625</LongitudeDegrees>
            </Position>
            <AltitudeMeters>639.20001220703125</AltitudeMeters>
            <DistanceMeters>NAN</DistanceMeters>
          </Trackpoint>
          <Trackpoint>
            <Time>2019-10-05T15:05:15.000Z</Time>
            <Position>
              <LatitudeDegrees>41.58042490482330322265625</LatitudeDegrees>
              <LongitudeDegrees>-5.7795812375843524932861328125</LongitudeDegrees>
            </Position>
            <AltitudeMeters>638.5999755859375</AltitudeMeters>
            <DistanceMeters>NAN</DistanceMeters>
          </Trackpoint>
          <Trackpoint>
            <Time>2019-10-05T15:05:16.000Z</Time>
            <Position>
              <LatitudeDegrees>41.58036447130143642425537109375</LatitudeDegrees>
              <LongitudeDegrees>-5.77956036664545536041259765625</LongitudeDegrees>
            </Position>
            <AltitudeMeters>639</AltitudeMeters>
            <DistanceMeters>NAN</DistanceMeters>
          </Trackpoint>
          <Trackpoint>
            <Time>2019-10-05T15:05:24.000Z</Time>
            <Position>
              <LatitudeDegrees>41.57988569699227809906005859375</LatitudeDegrees>
              <LongitudeDegrees>-5.779399685561656951904296875</LongitudeDegrees>
            </Position>
            <AltitudeMeters>638.20001220703125</AltitudeMeters>
            <DistanceMeters>NAN</DistanceMeters>
          </Trackpoint>
          <Trackpoint>
            <Time>2019-10-05T15:05:26.000Z</Time>
            <Position>
              <LatitudeDegrees>41.57976516522467136383056640625</LatitudeDegrees>
              <LongitudeDegrees>-5.77935819514095783233642578125</LongitudeDegrees>
            </Position>
            <AltitudeMeters>637.4000244140625</AltitudeMeters>
            <DistanceMeters>NAN</DistanceMeters>
          </Trackpoint>
          <Trackpoint>
            <Time>2019-10-05T15:05:31.000Z</Time>
            <Position>
              <LatitudeDegrees>41.57947313971817493438720703125</LatitudeDegrees>
              <LongitudeDegrees>-5.7792553491890430450439453125</LongitudeDegrees>
            </Position>
            <AltitudeMeters>638.4000244140625</AltitudeMeters>
            <DistanceMeters>NAN</DistanceMeters>
          </Trackpoint>
          <Trackpoint>
            <Time>2019-10-05T15:05:37.000Z</Time>
            <Position>
              <LatitudeDegrees>41.5791429765522480010986328125</LatitudeDegrees>
              <LongitudeDegrees>-5.77914194203913211822509765625</LongitudeDegrees>
            </Position>
            <AltitudeMeters>638.4000244140625</AltitudeMeters>
            <DistanceMeters>NAN</DistanceMeters>
          </Trackpoint>
          <Trackpoint>
            <Time>2019-10-05T15:05:46.000Z</Time>
            <Position>
              <LatitudeDegrees>41.57867870293557643890380859375</LatitudeDegrees>
              <LongitudeDegrees>-5.7789864577353000640869140625</LongitudeDegrees>
            </Position>
            <AltitudeMeters>639.4000244140625</AltitudeMeters>
            <DistanceMeters>NAN</DistanceMeters>
          </Trackpoint>
          <Trackpoint>
            <Time>2019-10-05T15:05:55.000Z</Time>
            <Position>
              <LatitudeDegrees>41.57822105102241039276123046875</LatitudeDegrees>
              <LongitudeDegrees>-5.7788446359336376190185546875</LongitudeDegrees>
            </Position>
            <AltitudeMeters>640.20001220703125</AltitudeMeters>
            <DistanceMeters>NAN</DistanceMeters>
          </Trackpoint>
          <Trackpoint>
            <Time>2019-10-05T15:05:56.000Z</Time>
            <Position>
              <LatitudeDegrees>41.5781700052320957183837890625</LatitudeDegrees>
              <LongitudeDegrees>-5.7788315601646900177001953125</LongitudeDegrees>
            </Position>
            <AltitudeMeters>640.4000244140625</AltitudeMeters>
            <DistanceMeters>NAN</DistanceMeters>
          </Trackpoint>
          <Trackpoint>
            <Time>2019-10-05T15:05:59.000Z</Time>
            <Position>
              <LatitudeDegrees>41.5780167840421199798583984375</LatitudeDegrees>
              <LongitudeDegrees>-5.7787832804024219512939453125</LongitudeDegrees>
            </Position>
            <AltitudeMeters>640.4000244140625</AltitudeMeters>
            <DistanceMeters>NAN</DistanceMeters>
          </Trackpoint>
          <Trackpoint>
            <Time>2019-10-05T15:06:03.000Z</Time>
            <Position>
              <LatitudeDegrees>41.57780715264379978179931640625</LatitudeDegrees>
              <LongitudeDegrees>-5.77872871421277523040771484375</LongitudeDegrees>
            </Position>
            <AltitudeMeters>640.4000244140625</AltitudeMeters>
            <DistanceMeters>NAN</DistanceMeters>
          </Trackpoint>
          <Trackpoint>
            <Time>2019-10-05T15:06:12.000Z</Time>
            <Position>
              <LatitudeDegrees>41.5773083455860614776611328125</LatitudeDegrees>
              <LongitudeDegrees>-5.7785596512258052825927734375</LongitudeDegrees>
            </Position>
            <AltitudeMeters>640.20001220703125</AltitudeMeters>
            <DistanceMeters>NAN</DistanceMeters>
          </Trackpoint>
          <Trackpoint>
            <Time>2019-10-05T15:06:22.000Z</Time>
            <Position>
              <LatitudeDegrees>41.57674751244485378265380859375</LatitudeDegrees>
              <LongitudeDegrees>-5.77836561016738414764404296875</LongitudeDegrees>
            </Position>
            <AltitudeMeters>640</AltitudeMeters>
            <DistanceMeters>NAN</DistanceMeters>
          </Trackpoint>
          <Trackpoint>
            <Time>2019-10-05T15:06:24.000Z</Time>
            <Position>
              <LatitudeDegrees>41.57663469202816486358642578125</LatitudeDegrees>
              <LongitudeDegrees>-5.7783269695937633514404296875</LongitudeDegrees>
            </Position>
            <AltitudeMeters>640.20001220703125</AltitudeMeters>
            <DistanceMeters>NAN</DistanceMeters>
          </Trackpoint>
          <Trackpoint>
            <Time>2019-10-05T15:06:33.000Z</Time>
            <Position>
              <LatitudeDegrees>41.57611853443086147308349609375</LatitudeDegrees>
              <LongitudeDegrees>-5.77816109172999858856201171875</LongitudeDegrees>
            </Position>
            <AltitudeMeters>640.20001220703125</AltitudeMeters>
            <DistanceMeters>NAN</DistanceMeters>
          </Trackpoint>
          <Trackpoint>
            <Time>2019-10-05T15:06:36.000Z</Time>
            <Position>
              <LatitudeDegrees>41.5759457834064960479736328125</LatitudeDegrees>
              <LongitudeDegrees>-5.7780993171036243438720703125</LongitudeDegrees>
            </Position>
            <AltitudeMeters>639.79998779296875</AltitudeMeters>
            <DistanceMeters>NAN</DistanceMeters>
          </Trackpoint>
          <Trackpoint>
            <Time>2019-10-05T15:06:45.000Z</Time>
            <Position>
              <LatitudeDegrees>41.57542820088565349578857421875</LatitudeDegrees>
              <LongitudeDegrees>-5.7779135741293430328369140625</LongitudeDegrees>
            </Position>
            <AltitudeMeters>640</AltitudeMeters>
            <DistanceMeters>NAN</DistanceMeters>
          </Trackpoint>
          <Trackpoint>
            <Time>2019-10-05T15:06:46.000Z</Time>
            <Position>
              <LatitudeDegrees>41.57536935992538928985595703125</LatitudeDegrees>
              <LongitudeDegrees>-5.7778921164572238922119140625</LongitudeDegrees>
            </Position>
            <AltitudeMeters>639.79998779296875</AltitudeMeters>
            <DistanceMeters>NAN</DistanceMeters>
          </Trackpoint>
          <Trackpoint>
            <Time>2019-10-05T15:06:53.000Z</Time>
            <Position>
              <LatitudeDegrees>41.574962921440601348876953125</LatitudeDegrees>
              <LongitudeDegrees>-5.77775054611265659332275390625</LongitudeDegrees>
            </Position>
            <AltitudeMeters>639.4000244140625</AltitudeMeters>
            <DistanceMeters>NAN</DistanceMeters>
          </Trackpoint>
          <Trackpoint>
            <Time>2019-10-05T15:06:57.000Z</Time>
            <Position>
              <LatitudeDegrees>41.57473124563694000244140625</LatitudeDegrees>
              <LongitudeDegrees>-5.777668654918670654296875</LongitudeDegrees>
            </Position>
            <AltitudeMeters>639.79998779296875</AltitudeMeters>
            <DistanceMeters>NAN</DistanceMeters>
          </Trackpoint>
          <Trackpoint>
            <Time>2019-10-05T15:07:06.000Z</Time>
            <Position>
              <LatitudeDegrees>41.57421500422060489654541015625</LatitudeDegrees>
              <LongitudeDegrees>-5.7774581015110015869140625</LongitudeDegrees>
            </Position>
            <AltitudeMeters>639.4000244140625</AltitudeMeters>
            <DistanceMeters>NAN</DistanceMeters>
          </Trackpoint>
          <Trackpoint>
            <Time>2019-10-05T15:07:14.000Z</Time>
            <Position>
              <LatitudeDegrees>41.57371326349675655364990234375</LatitudeDegrees>
              <LongitudeDegrees>-5.7772718556225299835205078125</LongitudeDegrees>
            </Position>
            <AltitudeMeters>638</AltitudeMeters>
            <DistanceMeters>NAN</DistanceMeters>
          </Trackpoint>
          <Trackpoint>
            <Time>2019-10-05T15:07:15.000Z</Time>
            <Position>
              <LatitudeDegrees>41.5736456215381622314453125</LatitudeDegrees>
              <LongitudeDegrees>-5.77724779956042766571044921875</LongitudeDegrees>
            </Position>
            <AltitudeMeters>637.5999755859375</AltitudeMeters>
            <DistanceMeters>NAN</DistanceMeters>
          </Trackpoint>
          <Trackpoint>
            <Time>2019-10-05T15:07:18.000Z</Time>
            <Position>
              <LatitudeDegrees>41.573437415063381195068359375</LatitudeDegrees>
              <LongitudeDegrees>-5.7771766372025012969970703125</LongitudeDegrees>
            </Position>
            <AltitudeMeters>637</AltitudeMeters>
            <DistanceMeters>NAN</DistanceMeters>
          </Trackpoint>
          <Trackpoint>
            <Time>2019-10-05T15:07:26.000Z</Time>
            <Position>
              <LatitudeDegrees>41.57287088222801685333251953125</LatitudeDegrees>
              <LongitudeDegrees>-5.77698427252471446990966796875</LongitudeDegrees>
            </Position>
            <AltitudeMeters>636.20001220703125</AltitudeMeters>
            <DistanceMeters>NAN</DistanceMeters>
          </Trackpoint>
          <Trackpoint>
            <Time>2019-10-05T15:07:32.000Z</Time>
            <Position>
              <LatitudeDegrees>41.5724491886794567108154296875</LatitudeDegrees>
              <LongitudeDegrees>-5.77683490701019763946533203125</LongitudeDegrees>
            </Position>
            <AltitudeMeters>636.79998779296875</AltitudeMeters>
            <DistanceMeters>NAN</DistanceMeters>
          </Trackpoint>
          <Trackpoint>
            <Time>2019-10-05T15:07:36.000Z</Time>
            <Position>
              <LatitudeDegrees>41.5721910260617733001708984375</LatitudeDegrees>
              <LongitudeDegrees>-5.77674505300819873809814453125</LongitudeDegrees>
            </Position>
            <AltitudeMeters>636.79998779296875</AltitudeMeters>
            <DistanceMeters>NAN</DistanceMeters>
          </Trackpoint>
          <Trackpoint>
            <Time>2019-10-05T15:07:43.000Z</Time>
            <Position>
              <LatitudeDegrees>41.5717840008437633514404296875</LatitudeDegrees>
              <LongitudeDegrees>-5.7766086794435977935791015625</LongitudeDegrees>
            </Position>
            <AltitudeMeters>637.4000244140625</AltitudeMeters>
            <DistanceMeters>NAN</DistanceMeters>
          </Trackpoint>
          <Trackpoint>
            <Time>2019-10-05T15:07:52.000Z</Time>
            <Position>
              <LatitudeDegrees>41.57126088626682758331298828125</LatitudeDegrees>
              <LongitudeDegrees>-5.77643240801990032196044921875</LongitudeDegrees>
            </Position>
            <AltitudeMeters>636.4000244140625</AltitudeMeters>
            <DistanceMeters>NAN</DistanceMeters>
          </Trackpoint>
          <Trackpoint>
            <Time>2019-10-05T15:08:01.000Z</Time>
            <Position>
              <LatitudeDegrees>41.5707201696932315826416015625</LatitudeDegrees>
              <LongitudeDegrees>-5.7762444019317626953125</LongitudeDegrees>
            </Position>
            <AltitudeMeters>636.4000244140625</AltitudeMeters>
            <DistanceMeters>NAN</DistanceMeters>
          </Trackpoint>
          <Trackpoint>
            <Time>2019-10-05T15:08:02.000Z</Time>
            <Position>
              <LatitudeDegrees>41.570657975971698760986328125</LatitudeDegrees>
              <LongitudeDegrees>-5.77622336335480213165283203125</LongitudeDegrees>
            </Position>
            <AltitudeMeters>635.79998779296875</AltitudeMeters>
            <DistanceMeters>NAN</DistanceMeters>
          </Trackpoint>
          <Trackpoint>
            <Time>2019-10-05T15:08:04.000Z</Time>
            <Position>
              <LatitudeDegrees>41.57053484581410884857177734375</LatitudeDegrees>
              <LongitudeDegrees>-5.77618162147700786590576171875</LongitudeDegrees>
            </Position>
            <AltitudeMeters>635.4000244140625</AltitudeMeters>
            <DistanceMeters>NAN</DistanceMeters>
          </Trackpoint>
          <Trackpoint>
            <Time>2019-10-05T15:08:07.000Z</Time>
            <Position>
              <LatitudeDegrees>41.57034340314567089080810546875</LatitudeDegrees>
              <LongitudeDegrees>-5.77611288987100124359130859375</LongitudeDegrees>
            </Position>
            <AltitudeMeters>634.5999755859375</AltitudeMeters>
            <DistanceMeters>NAN</DistanceMeters>
          </Trackpoint>
          <Trackpoint>
            <Time>2019-10-05T15:08:12.000Z</Time>
            <Position>
              <LatitudeDegrees>41.5700016729533672332763671875</LatitudeDegrees>
              <LongitudeDegrees>-5.7759927771985530853271484375</LongitudeDegrees>
            </Position>
            <AltitudeMeters>634</AltitudeMeters>
            <DistanceMeters>NAN</DistanceMeters>
          </Trackpoint>
          <Trackpoint>
            <Time>2019-10-05T15:08:13.000Z</Time>
            <Position>
              <LatitudeDegrees>41.56993285752832889556884765625</LatitudeDegrees>
              <LongitudeDegrees>-5.775969810783863067626953125</LongitudeDegrees>
            </Position>
            <AltitudeMeters>633.4000244140625</AltitudeMeters>
            <DistanceMeters>NAN</DistanceMeters>
          </Trackpoint>
          <Trackpoint>
            <Time>2019-10-05T15:08:18.000Z</Time>
            <Position>
              <LatitudeDegrees>41.5695899538695812225341796875</LatitudeDegrees>
              <LongitudeDegrees>-5.77584265731275081634521484375</LongitudeDegrees>
            </Position>
            <AltitudeMeters>632.79998779296875</AltitudeMeters>
            <DistanceMeters>NAN</DistanceMeters>
          </Trackpoint>
          <Trackpoint>
            <Time>2019-10-05T15:08:20.000Z</Time>
            <Position>
              <LatitudeDegrees>41.56945492140948772430419921875</LatitudeDegrees>
              <LongitudeDegrees>-5.77579974196851253509521484375</LongitudeDegrees>
            </Position>
            <AltitudeMeters>633.4000244140625</AltitudeMeters>
            <DistanceMeters>NAN</DistanceMeters>
          </Trackpoint>
          <Trackpoint>
            <Time>2019-10-05T15:08:25.000Z</Time>
            <Position>
              <LatitudeDegrees>41.56914864666759967803955078125</LatitudeDegrees>
              <LongitudeDegrees>-5.77570066787302494049072265625</LongitudeDegrees>
            </Position>
            <AltitudeMeters>634</AltitudeMeters>
            <DistanceMeters>NAN</DistanceMeters>
          </Trackpoint>
          <Trackpoint>
            <Time>2019-10-05T15:08:32.000Z</Time>
            <Position>
              <LatitudeDegrees>41.56875260174274444580078125</LatitudeDegrees>
              <LongitudeDegrees>-5.7755579240620136260986328125</LongitudeDegrees>
            </Position>
            <AltitudeMeters>634</AltitudeMeters>
            <DistanceMeters>NAN</DistanceMeters>
          </Trackpoint>
          <Trackpoint>
            <Time>2019-10-05T15:08:34.000Z</Time>
            <Position>
              <LatitudeDegrees>41.5686421282589435577392578125</LatitudeDegrees>
              <LongitudeDegrees>-5.77551811002194881439208984375</LongitudeDegrees>
            </Position>
            <AltitudeMeters>634.79998779296875</AltitudeMeters>
            <DistanceMeters>NAN</DistanceMeters>
          </Trackpoint>
          <Trackpoint>
            <Time>2019-10-05T15:08:38.000Z</Time>
            <Position>
              <LatitudeDegrees>41.5684208460152149200439453125</LatitudeDegrees>
              <LongitudeDegrees>-5.775445438921451568603515625</LongitudeDegrees>
            </Position>
            <AltitudeMeters>635.20001220703125</AltitudeMeters>
            <DistanceMeters>NAN</DistanceMeters>
          </Trackpoint>
          <Trackpoint>
            <Time>2019-10-05T15:08:39.000Z</Time>
            <Position>
              <LatitudeDegrees>41.56836912967264652252197265625</LatitudeDegrees>
              <LongitudeDegrees>-5.7754288427531719207763671875</LongitudeDegrees>
            </Position>
            <AltitudeMeters>635.4000244140625</AltitudeMeters>
            <DistanceMeters>NAN</DistanceMeters>
          </Trackpoint>
          <Trackpoint>
            <Time>2019-10-05T15:08:41.000Z</Time>
            <Position>
              <LatitudeDegrees>41.56827240251004695892333984375</LatitudeDegrees>
              <LongitudeDegrees>-5.77539623714983463287353515625</LongitudeDegrees>
            </Position>
            <AltitudeMeters>636</AltitudeMeters>
            <DistanceMeters>NAN</DistanceMeters>
          </Trackpoint>
          <Trackpoint>
            <Time>2019-10-05T15:08:46.000Z</Time>
            <Position>
              <LatitudeDegrees>41.56805380247533321380615234375</LatitudeDegrees>
              <LongitudeDegrees>-5.77532415278255939483642578125</LongitudeDegrees>
            </Position>
            <AltitudeMeters>636.79998779296875</AltitudeMeters>
            <DistanceMeters>NAN</DistanceMeters>
          </Trackpoint>
          <Trackpoint>
            <Time>2019-10-05T15:08:49.000Z</Time>
            <Position>
              <LatitudeDegrees>41.56793394125998020172119140625</LatitudeDegrees>
              <LongitudeDegrees>-5.77528224326670169830322265625</LongitudeDegrees>
            </Position>
            <AltitudeMeters>637.20001220703125</AltitudeMeters>
            <DistanceMeters>NAN</DistanceMeters>
          </Trackpoint>
          <Trackpoint>
            <Time>2019-10-05T15:08:53.000Z</Time>
            <Position>
              <LatitudeDegrees>41.5677818097174167633056640625</LatitudeDegrees>
              <LongitudeDegrees>-5.7752340473234653472900390625</LongitudeDegrees>
            </Position>
            <AltitudeMeters>638</AltitudeMeters>
            <DistanceMeters>NAN</DistanceMeters>
          </Trackpoint>
          <Trackpoint>
            <Time>2019-10-05T15:08:54.000Z</Time>
            <Position>
              <LatitudeDegrees>41.567744426429271697998046875</LatitudeDegrees>
              <LongitudeDegrees>-5.77521988190710544586181640625</LongitudeDegrees>
            </Position>
            <AltitudeMeters>638.4000244140625</AltitudeMeters>
            <DistanceMeters>NAN</DistanceMeters>
          </Trackpoint>
          <Trackpoint>
            <Time>2019-10-05T15:08:58.000Z</Time>
            <Position>
              <LatitudeDegrees>41.567589528858661651611328125</LatitudeDegrees>
              <LongitudeDegrees>-5.77517009340226650238037109375</LongitudeDegrees>
            </Position>
            <AltitudeMeters>638.5999755859375</AltitudeMeters>
            <DistanceMeters>NAN</DistanceMeters>
          </Trackpoint>
          <Trackpoint>
            <Time>2019-10-05T15:09:00.000Z</Time>
            <Position>
              <LatitudeDegrees>41.56751216389238834381103515625</LatitudeDegrees>
              <LongitudeDegrees>-5.77514000236988067626953125</LongitudeDegrees>
            </Position>
            <AltitudeMeters>638.79998779296875</AltitudeMeters>
            <DistanceMeters>NAN</DistanceMeters>
          </Trackpoint>
          <Trackpoint>
            <Time>2019-10-05T15:09:05.000Z</Time>
            <Position>
              <LatitudeDegrees>41.56732323579490184783935546875</LatitudeDegrees>
              <LongitudeDegrees>-5.77507420442998409271240234375</LongitudeDegrees>
            </Position>
            <AltitudeMeters>639</AltitudeMeters>
            <DistanceMeters>NAN</DistanceMeters>
          </Trackpoint>
          <Trackpoint>
            <Time>2019-10-05T15:09:08.000Z</Time>
            <Position>
              <LatitudeDegrees>41.56720605678856372833251953125</LatitudeDegrees>
              <LongitudeDegrees>-5.77503832988440990447998046875</LongitudeDegrees>
            </Position>
            <AltitudeMeters>639.5999755859375</AltitudeMeters>
            <DistanceMeters>NAN</DistanceMeters>
          </Trackpoint>
          <Trackpoint>
            <Time>2019-10-05T15:09:09.000Z</Time>
            <Position>
              <LatitudeDegrees>41.56716817058622837066650390625</LatitudeDegrees>
              <LongitudeDegrees>-5.7750226557254791259765625</LongitudeDegrees>
            </Position>
            <AltitudeMeters>639.5999755859375</AltitudeMeters>
            <DistanceMeters>NAN</DistanceMeters>
          </Trackpoint>
          <Trackpoint>
            <Time>2019-10-05T15:09:14.000Z</Time>
            <Position>
              <LatitudeDegrees>41.56696734018623828887939453125</LatitudeDegrees>
              <LongitudeDegrees>-5.774951241910457611083984375</LongitudeDegrees>
            </Position>
            <AltitudeMeters>640.20001220703125</AltitudeMeters>
            <DistanceMeters>NAN</DistanceMeters>
          </Trackpoint>
          <Trackpoint>
            <Time>2019-10-05T15:09:17.000Z</Time>
            <Position>
              <LatitudeDegrees>41.5668370015919208526611328125</LatitudeDegrees>
              <LongitudeDegrees>-5.77490530908107757568359375</LongitudeDegrees>
            </Position>
            <AltitudeMeters>640.20001220703125</AltitudeMeters>
            <DistanceMeters>NAN</DistanceMeters>
          </Trackpoint>
          <Trackpoint>
            <Time>2019-10-05T15:09:22.000Z</Time>
            <Position>
              <LatitudeDegrees>41.5666137076914310455322265625</LatitudeDegrees>
              <LongitudeDegrees>-5.77483146451413631439208984375</LongitudeDegrees>
            </Position>
            <AltitudeMeters>640.79998779296875</AltitudeMeters>
            <DistanceMeters>NAN</DistanceMeters>
          </Trackpoint>
          <Trackpoint>
            <Time>2019-10-05T15:09:25.000Z</Time>
            <Position>
              <LatitudeDegrees>41.56648253090679645538330078125</LatitudeDegrees>
              <LongitudeDegrees>-5.77478729188442230224609375</LongitudeDegrees>
            </Position>
            <AltitudeMeters>641</AltitudeMeters>
            <DistanceMeters>NAN</DistanceMeters>
          </Trackpoint>
          <Trackpoint>
            <Time>2019-10-05T15:09:36.000Z</Time>
            <Position>
              <LatitudeDegrees>41.56598900444805622100830078125</LatitudeDegrees>
              <LongitudeDegrees>-5.77461965382099151611328125</LongitudeDegrees>
            </Position>
            <AltitudeMeters>640.5999755859375</AltitudeMeters>
            <DistanceMeters>NAN</DistanceMeters>
          </Trackpoint>
          <Trackpoint>
            <Time>2019-10-05T15:09:38.000Z</Time>
            <Position>
              <LatitudeDegrees>41.5658995695412158966064453125</LatitudeDegrees>
              <LongitudeDegrees>-5.77458805404603481292724609375</LongitudeDegrees>
            </Position>
            <AltitudeMeters>639</AltitudeMeters>
            <DistanceMeters>NAN</DistanceMeters>
          </Trackpoint>
          <Trackpoint>
            <Time>2019-10-05T15:09:45.000Z</Time>
            <Position>
              <LatitudeDegrees>41.5655587613582611083984375</LatitudeDegrees>
              <LongitudeDegrees>-5.77446685172617435455322265625</LongitudeDegrees>
            </Position>
            <AltitudeMeters>639.79998779296875</AltitudeMeters>
            <DistanceMeters>NAN</DistanceMeters>
          </Trackpoint>
          <Trackpoint>
            <Time>2019-10-05T15:09:55.000Z</Time>
            <Position>
              <LatitudeDegrees>41.56502190046012401580810546875</LatitudeDegrees>
              <LongitudeDegrees>-5.77428144402801990509033203125</LongitudeDegrees>
            </Position>
            <AltitudeMeters>638</AltitudeMeters>
            <DistanceMeters>NAN</DistanceMeters>
          </Trackpoint>
          <Trackpoint>
            <Time>2019-10-05T15:10:02.000Z</Time>
            <Position>
              <LatitudeDegrees>41.56459794379770755767822265625</LatitudeDegrees>
              <LongitudeDegrees>-5.7741321623325347900390625</LongitudeDegrees>
            </Position>
            <AltitudeMeters>637</AltitudeMeters>
            <DistanceMeters>NAN</DistanceMeters>
          </Trackpoint>
          <Trackpoint>
            <Time>2019-10-05T15:10:03.000Z</Time>
            <Position>
              <LatitudeDegrees>41.5645360015332698822021484375</LatitudeDegrees>
              <LongitudeDegrees>-5.7741108722984790802001953125</LongitudeDegrees>
            </Position>
            <AltitudeMeters>637.4000244140625</AltitudeMeters>
            <DistanceMeters>NAN</DistanceMeters>
          </Trackpoint>
          <Trackpoint>
            <Time>2019-10-05T15:10:05.000Z</Time>
            <Position>
              <LatitudeDegrees>41.56440733931958675384521484375</LatitudeDegrees>
              <LongitudeDegrees>-5.7740662805736064910888671875</LongitudeDegrees>
            </Position>
            <AltitudeMeters>637</AltitudeMeters>
            <DistanceMeters>NAN</DistanceMeters>
          </Trackpoint>
          <Trackpoint>
            <Time>2019-10-05T15:10:09.000Z</Time>
            <Position>
              <LatitudeDegrees>41.5641366876661777496337890625</LatitudeDegrees>
              <LongitudeDegrees>-5.7739724032580852508544921875</LongitudeDegrees>
            </Position>
            <AltitudeMeters>635.79998779296875</AltitudeMeters>
            <DistanceMeters>NAN</DistanceMeters>
          </Trackpoint>
          <Trackpoint>
            <Time>2019-10-05T15:10:14.000Z</Time>
            <Position>
              <LatitudeDegrees>41.56377400271594524383544921875</LatitudeDegrees>
              <LongitudeDegrees>-5.77385128475725650787353515625</LongitudeDegrees>
            </Position>
            <AltitudeMeters>634.4000244140625</AltitudeMeters>
            <DistanceMeters>NAN</DistanceMeters>
          </Trackpoint>
          <Trackpoint>
            <Time>2019-10-05T15:10:17.000Z</Time>
            <Position>
              <LatitudeDegrees>41.56355188228189945220947265625</LatitudeDegrees>
              <LongitudeDegrees>-5.7737732492387294769287109375</LongitudeDegrees>
            </Position>
            <AltitudeMeters>633.5999755859375</AltitudeMeters>
            <DistanceMeters>NAN</DistanceMeters>
          </Trackpoint>
          <Trackpoint>
            <Time>2019-10-05T15:10:18.000Z</Time>
            <Position>
              <LatitudeDegrees>41.5634773671627044677734375</LatitudeDegrees>
              <LongitudeDegrees>-5.77374936081469058990478515625</LongitudeDegrees>
            </Position>
            <AltitudeMeters>633</AltitudeMeters>
            <DistanceMeters>NAN</DistanceMeters>
          </Trackpoint>
          <Trackpoint>
            <Time>2019-10-05T15:10:21.000Z</Time>
            <Position>
              <LatitudeDegrees>41.56325365416705608367919921875</LatitudeDegrees>
              <LongitudeDegrees>-5.7736760191619396209716796875</LongitudeDegrees>
            </Position>
            <AltitudeMeters>632.20001220703125</AltitudeMeters>
            <DistanceMeters>NAN</DistanceMeters>
          </Trackpoint>
          <Trackpoint>
            <Time>2019-10-05T15:10:23.000Z</Time>
            <Position>
              <LatitudeDegrees>41.56310562975704669952392578125</LatitudeDegrees>
              <LongitudeDegrees>-5.77362732030451297760009765625</LongitudeDegrees>
            </Position>
            <AltitudeMeters>631.79998779296875</AltitudeMeters>
            <DistanceMeters>NAN</DistanceMeters>
          </Trackpoint>
          <Trackpoint>
            <Time>2019-10-05T15:10:25.000Z</Time>
            <Position>
              <LatitudeDegrees>41.56295810826122760772705078125</LatitudeDegrees>
              <LongitudeDegrees>-5.77357619069516658782958984375</LongitudeDegrees>
            </Position>
            <AltitudeMeters>631</AltitudeMeters>
            <DistanceMeters>NAN</DistanceMeters>
          </Trackpoint>
          <Trackpoint>
            <Time>2019-10-05T15:10:27.000Z</Time>
            <Position>
              <LatitudeDegrees>41.56281226314604282379150390625</LatitudeDegrees>
              <LongitudeDegrees>-5.77352137304842472076416015625</LongitudeDegrees>
            </Position>
            <AltitudeMeters>630.79998779296875</AltitudeMeters>
            <DistanceMeters>NAN</DistanceMeters>
          </Trackpoint>
          <Trackpoint>
            <Time>2019-10-05T15:10:33.000Z</Time>
            <Position>
              <LatitudeDegrees>41.56237439252436161041259765625</LatitudeDegrees>
              <LongitudeDegrees>-5.77337619848549365997314453125</LongitudeDegrees>
            </Position>
            <AltitudeMeters>630.4000244140625</AltitudeMeters>
            <DistanceMeters>NAN</DistanceMeters>
          </Trackpoint>
          <Trackpoint>
            <Time>2019-10-05T15:10:35.000Z</Time>
            <Position>
              <LatitudeDegrees>41.562229134142398834228515625</LatitudeDegrees>
              <LongitudeDegrees>-5.773325152695178985595703125</LongitudeDegrees>
            </Position>
            <AltitudeMeters>629.4000244140625</AltitudeMeters>
            <DistanceMeters>NAN</DistanceMeters>
          </Trackpoint>
          <Trackpoint>
            <Time>2019-10-05T15:10:42.000Z</Time>
            <Position>
              <LatitudeDegrees>41.56172127462923526763916015625</LatitudeDegrees>
              <LongitudeDegrees>-5.77314603142440319061279296875</LongitudeDegrees>
            </Position>
            <AltitudeMeters>629.4000244140625</AltitudeMeters>
            <DistanceMeters>NAN</DistanceMeters>
          </Trackpoint>
          <Trackpoint>
            <Time>2019-10-05T15:10:46.000Z</Time>
            <Position>
              <LatitudeDegrees>41.56143151223659515380859375</LatitudeDegrees>
              <LongitudeDegrees>-5.77304544858634471893310546875</LongitudeDegrees>
            </Position>
            <AltitudeMeters>628.79998779296875</AltitudeMeters>
            <DistanceMeters>NAN</DistanceMeters>
          </Trackpoint>
          <Trackpoint>
            <Time>2019-10-05T15:10:50.000Z</Time>
            <Position>
              <LatitudeDegrees>41.56113672070205211639404296875</LatitudeDegrees>
              <LongitudeDegrees>-5.7729464583098888397216796875</LongitudeDegrees>
            </Position>
            <AltitudeMeters>628.4000244140625</AltitudeMeters>
            <DistanceMeters>NAN</DistanceMeters>
          </Trackpoint>
          <Trackpoint>
            <Time>2019-10-05T15:10:57.000Z</Time>
            <Position>
              <LatitudeDegrees>41.560624502599239349365234375</LatitudeDegrees>
              <LongitudeDegrees>-5.772767923772335052490234375</LongitudeDegrees>
            </Position>
            <AltitudeMeters>627.79998779296875</AltitudeMeters>
            <DistanceMeters>NAN</DistanceMeters>
          </Trackpoint>
          <Trackpoint>
            <Time>2019-10-05T15:10:58.000Z</Time>
            <Position>
              <LatitudeDegrees>41.56055199913680553436279296875</LatitudeDegrees>
              <LongitudeDegrees>-5.7727427780628204345703125</LongitudeDegrees>
            </Position>
            <AltitudeMeters>627.5999755859375</AltitudeMeters>
            <DistanceMeters>NAN</DistanceMeters>
          </Trackpoint>
          <Trackpoint>
            <Time>2019-10-05T15:11:03.000Z</Time>
            <Position>
              <LatitudeDegrees>41.56019509769976139068603515625</LatitudeDegrees>
              <LongitudeDegrees>-5.77261512167751789093017578125</LongitudeDegrees>
            </Position>
            <AltitudeMeters>627.4000244140625</AltitudeMeters>
            <DistanceMeters>NAN</DistanceMeters>
          </Trackpoint>
          <Trackpoint>
            <Time>2019-10-05T15:11:09.000Z</Time>
            <Position>
              <LatitudeDegrees>41.55977834947407245635986328125</LatitudeDegrees>
              <LongitudeDegrees>-5.77247380279004573822021484375</LongitudeDegrees>
            </Position>
            <AltitudeMeters>627.4000244140625</AltitudeMeters>
            <DistanceMeters>NAN</DistanceMeters>
          </Trackpoint>
          <Trackpoint>
            <Time>2019-10-05T15:11:16.000Z</Time>
            <Position>
              <LatitudeDegrees>41.55931927263736724853515625</LatitudeDegrees>
              <LongitudeDegrees>-5.77232359908521175384521484375</LongitudeDegrees>
            </Position>
            <AltitudeMeters>626.4000244140625</AltitudeMeters>
            <DistanceMeters>NAN</DistanceMeters>
          </Trackpoint>
          <Trackpoint>
            <Time>2019-10-05T15:11:17.000Z</Time>
            <Position>
              <LatitudeDegrees>41.55925531871616840362548828125</LatitudeDegrees>
              <LongitudeDegrees>-5.77230155467987060546875</LongitudeDegrees>
            </Position>
            <AltitudeMeters>626.20001220703125</AltitudeMeters>
            <DistanceMeters>NAN</DistanceMeters>
          </Trackpoint>
          <Trackpoint>
            <Time>2019-10-05T15:11:24.000Z</Time>
            <Position>
              <LatitudeDegrees>41.55880101956427097320556640625</LatitudeDegrees>
              <LongitudeDegrees>-5.77214774675667285919189453125</LongitudeDegrees>
            </Position>
            <AltitudeMeters>625.20001220703125</AltitudeMeters>
            <DistanceMeters>NAN</DistanceMeters>
          </Trackpoint>
          <Trackpoint>
            <Time>2019-10-05T15:11:25.000Z</Time>
            <Position>
              <LatitudeDegrees>41.5587350539863109588623046875</LatitudeDegrees>
              <LongitudeDegrees>-5.77212729491293430328369140625</LongitudeDegrees>
            </Position>
            <AltitudeMeters>625.20001220703125</AltitudeMeters>
            <DistanceMeters>NAN</DistanceMeters>
          </Trackpoint>
          <Trackpoint>
            <Time>2019-10-05T15:11:33.000Z</Time>
            <Position>
              <LatitudeDegrees>41.55820288695394992828369140625</LatitudeDegrees>
              <LongitudeDegrees>-5.771998465061187744140625</LongitudeDegrees>
            </Position>
            <AltitudeMeters>624.4000244140625</AltitudeMeters>
            <DistanceMeters>NAN</DistanceMeters>
          </Trackpoint>
          <Trackpoint>
            <Time>2019-10-05T15:11:34.000Z</Time>
            <Position>
              <LatitudeDegrees>41.55813507735729217529296875</LatitudeDegrees>
              <LongitudeDegrees>-5.77198312617838382720947265625</LongitudeDegrees>
            </Position>
            <AltitudeMeters>624.20001220703125</AltitudeMeters>
            <DistanceMeters>NAN</DistanceMeters>
          </Trackpoint>
          <Trackpoint>
            <Time>2019-10-05T15:11:38.000Z</Time>
            <Position>
              <LatitudeDegrees>41.5578640066087245941162109375</LatitudeDegrees>
              <LongitudeDegrees>-5.7719275541603565216064453125</LongitudeDegrees>
            </Position>
            <AltitudeMeters>623.79998779296875</AltitudeMeters>
            <DistanceMeters>NAN</DistanceMeters>
          </Trackpoint>
          <Trackpoint>
            <Time>2019-10-05T15:11:41.000Z</Time>
            <Position>
              <LatitudeDegrees>41.5576618351042270660400390625</LatitudeDegrees>
              <LongitudeDegrees>-5.7718950323760509490966796875</LongitudeDegrees>
            </Position>
            <AltitudeMeters>622.5999755859375</AltitudeMeters>
            <DistanceMeters>NAN</DistanceMeters>
          </Trackpoint>
          <Trackpoint>
            <Time>2019-10-05T15:11:44.000Z</Time>
            <Position>
              <LatitudeDegrees>41.55745807103812694549560546875</LatitudeDegrees>
              <LongitudeDegrees>-5.77186779119074344635009765625</LongitudeDegrees>
            </Position>
            <AltitudeMeters>624</AltitudeMeters>
            <DistanceMeters>NAN</DistanceMeters>
          </Trackpoint>
          <Trackpoint>
            <Time>2019-10-05T15:11:45.000Z</Time>
            <Position>
              <LatitudeDegrees>41.55739068053662776947021484375</LatitudeDegrees>
              <LongitudeDegrees>-5.77185488305985927581787109375</LongitudeDegrees>
            </Position>
            <AltitudeMeters>623</AltitudeMeters>
            <DistanceMeters>NAN</DistanceMeters>
          </Trackpoint>
          <Trackpoint>
            <Time>2019-10-05T15:11:46.000Z</Time>
            <Position>
              <LatitudeDegrees>41.5573265589773654937744140625</LatitudeDegrees>
              <LongitudeDegrees>-5.7718430645763874053955078125</LongitudeDegrees>
            </Position>
            <AltitudeMeters>622.79998779296875</AltitudeMeters>
            <DistanceMeters>NAN</DistanceMeters>
          </Trackpoint>
          <Trackpoint>
            <Time>2019-10-05T15:11:52.000Z</Time>
            <Position>
              <LatitudeDegrees>41.55692699365317821502685546875</LatitudeDegrees>
              <LongitudeDegrees>-5.77177911065518856048583984375</LongitudeDegrees>
            </Position>
            <AltitudeMeters>621.20001220703125</AltitudeMeters>
            <DistanceMeters>NAN</DistanceMeters>
          </Trackpoint>
          <Trackpoint>
            <Time>2019-10-05T15:11:53.000Z</Time>
            <Position>
              <LatitudeDegrees>41.55685910023748874664306640625</LatitudeDegrees>
              <LongitudeDegrees>-5.77177039347589015960693359375</LongitudeDegrees>
            </Position>
            <AltitudeMeters>620.79998779296875</AltitudeMeters>
            <DistanceMeters>NAN</DistanceMeters>
          </Trackpoint>
          <Trackpoint>
            <Time>2019-10-05T15:11:56.000Z</Time>
            <Position>
              <LatitudeDegrees>41.55665307305753231048583984375</LatitudeDegrees>
              <LongitudeDegrees>-5.771737955510616302490234375</LongitudeDegrees>
            </Position>
            <AltitudeMeters>620</AltitudeMeters>
            <DistanceMeters>NAN</DistanceMeters>
          </Trackpoint>
          <Trackpoint>
            <Time>2019-10-05T15:12:00.000Z</Time>
            <Position>
              <LatitudeDegrees>41.55637362040579319000244140625</LatitudeDegrees>
              <LongitudeDegrees>-5.7716958783566951751708984375</LongitudeDegrees>
            </Position>
            <AltitudeMeters>619</AltitudeMeters>
            <DistanceMeters>NAN</DistanceMeters>
          </Trackpoint>
          <Trackpoint>
            <Time>2019-10-05T15:12:03.000Z</Time>
            <Position>
              <LatitudeDegrees>41.55616365373134613037109375</LatitudeDegrees>
              <LongitudeDegrees>-5.77166528441011905670166015625</LongitudeDegrees>
            </Position>
            <AltitudeMeters>618.5999755859375</AltitudeMeters>
            <DistanceMeters>NAN</DistanceMeters>
          </Trackpoint>
          <Trackpoint>
            <Time>2019-10-05T15:12:07.000Z</Time>
            <Position>
              <LatitudeDegrees>41.55588260851800441741943359375</LatitudeDegrees>
              <LongitudeDegrees>-5.77161985449492931365966796875</LongitudeDegrees>
            </Position>
            <AltitudeMeters>617.79998779296875</AltitudeMeters>
            <DistanceMeters>NAN</DistanceMeters>
          </Trackpoint>
          <Trackpoint>
            <Time>2019-10-05T15:12:13.000Z</Time>
            <Position>
              <LatitudeDegrees>41.55546401627361774444580078125</LatitudeDegrees>
              <LongitudeDegrees>-5.7715439982712268829345703125</LongitudeDegrees>
            </Position>
            <AltitudeMeters>616.79998779296875</AltitudeMeters>
            <DistanceMeters>NAN</DistanceMeters>
          </Trackpoint>
          <Trackpoint>
            <Time>2019-10-05T15:12:14.000Z</Time>
            <Position>
              <LatitudeDegrees>41.55539494939148426055908203125</LatitudeDegrees>
              <LongitudeDegrees>-5.7715332694351673126220703125</LongitudeDegrees>
            </Position>
            <AltitudeMeters>616.5999755859375</AltitudeMeters>
            <DistanceMeters>NAN</DistanceMeters>
          </Trackpoint>
          <Trackpoint>
            <Time>2019-10-05T15:12:19.000Z</Time>
            <Position>
              <LatitudeDegrees>41.5550493635237216949462890625</LatitudeDegrees>
              <LongitudeDegrees>-5.771478116512298583984375</LongitudeDegrees>
            </Position>
            <AltitudeMeters>616.20001220703125</AltitudeMeters>
            <DistanceMeters>NAN</DistanceMeters>
          </Trackpoint>
          <Trackpoint>
            <Time>2019-10-05T15:12:22.000Z</Time>
            <Position>
              <LatitudeDegrees>41.5548133291304111480712890625</LatitudeDegrees>
              <LongitudeDegrees>-5.77144316397607326507568359375</LongitudeDegrees>
            </Position>
            <AltitudeMeters>616.20001220703125</AltitudeMeters>
            <DistanceMeters>NAN</DistanceMeters>
          </Trackpoint>
          <Trackpoint>
            <Time>2019-10-05T15:12:30.000Z</Time>
            <Position>
              <LatitudeDegrees>41.55431921593844890594482421875</LatitudeDegrees>
              <LongitudeDegrees>-5.771364457905292510986328125</LongitudeDegrees>
            </Position>
            <AltitudeMeters>616.4000244140625</AltitudeMeters>
            <DistanceMeters>NAN</DistanceMeters>
          </Trackpoint>
          <Trackpoint>
            <Time>2019-10-05T15:12:33.000Z</Time>
            <Position>
              <LatitudeDegrees>41.55413129366934299468994140625</LatitudeDegrees>
              <LongitudeDegrees>-5.77133336104452610015869140625</LongitudeDegrees>
            </Position>
            <AltitudeMeters>617</AltitudeMeters>
            <DistanceMeters>NAN</DistanceMeters>
          </Trackpoint>
          <Trackpoint>
            <Time>2019-10-05T15:12:39.000Z</Time>
            <Position>
              <LatitudeDegrees>41.55376198701560497283935546875</LatitudeDegrees>
              <LongitudeDegrees>-5.77127167023718357086181640625</LongitudeDegrees>
            </Position>
            <AltitudeMeters>616.79998779296875</AltitudeMeters>
            <DistanceMeters>NAN</DistanceMeters>
          </Trackpoint>
          <Trackpoint>
            <Time>2019-10-05T15:12:44.000Z</Time>
            <Position>
              <LatitudeDegrees>41.553462333977222442626953125</LatitudeDegrees>
              <LongitudeDegrees>-5.7712228037416934967041015625</LongitudeDegrees>
            </Position>
            <AltitudeMeters>616</AltitudeMeters>
            <DistanceMeters>NAN</DistanceMeters>
          </Trackpoint>
          <Trackpoint>
            <Time>2019-10-05T15:12:51.000Z</Time>
            <Position>
              <LatitudeDegrees>41.55303728766739368438720703125</LatitudeDegrees>
              <LongitudeDegrees>-5.77115164138376712799072265625</LongitudeDegrees>
            </Position>
            <AltitudeMeters>616.20001220703125</AltitudeMeters>
            <DistanceMeters>NAN</DistanceMeters>
          </Trackpoint>
          <Trackpoint>
            <Time>2019-10-05T15:12:53.000Z</Time>
            <Position>
              <LatitudeDegrees>41.55291507951915264129638671875</LatitudeDegrees>
              <LongitudeDegrees>-5.77113420702517032623291015625</LongitudeDegrees>
            </Position>
            <AltitudeMeters>616</AltitudeMeters>
            <DistanceMeters>NAN</DistanceMeters>
          </Trackpoint>
          <Trackpoint>
            <Time>2019-10-05T15:12:57.000Z</Time>
            <Position>
              <LatitudeDegrees>41.55267812311649322509765625</LatitudeDegrees>
              <LongitudeDegrees>-5.7710945606231689453125</LongitudeDegrees>
            </Position>
            <AltitudeMeters>615.79998779296875</AltitudeMeters>
            <DistanceMeters>NAN</DistanceMeters>
          </Trackpoint>
          <Trackpoint>
            <Time>2019-10-05T15:13:00.000Z</Time>
            <Position>
              <LatitudeDegrees>41.55250336043536663055419921875</LatitudeDegrees>
              <LongitudeDegrees>-5.7710689119994640350341796875</LongitudeDegrees>
            </Position>
            <AltitudeMeters>616.4000244140625</AltitudeMeters>
            <DistanceMeters>NAN</DistanceMeters>
          </Trackpoint>
          <Trackpoint>
            <Time>2019-10-05T15:13:07.000Z</Time>
            <Position>
              <LatitudeDegrees>41.55208828859031200408935546875</LatitudeDegrees>
              <LongitudeDegrees>-5.7710082270205020904541015625</LongitudeDegrees>
            </Position>
            <AltitudeMeters>616.5999755859375</AltitudeMeters>
            <DistanceMeters>NAN</DistanceMeters>
          </Trackpoint>
          <Trackpoint>
            <Time>2019-10-05T15:13:13.000Z</Time>
            <Position>
              <LatitudeDegrees>41.55173071660101413726806640625</LatitudeDegrees>
              <LongitudeDegrees>-5.7709535770118236541748046875</LongitudeDegrees>
            </Position>
            <AltitudeMeters>617</AltitudeMeters>
            <DistanceMeters>NAN</DistanceMeters>
          </Trackpoint>
          <Trackpoint>
            <Time>2019-10-05T15:13:15.000Z</Time>
            <Position>
              <LatitudeDegrees>41.55161286704242229461669921875</LatitudeDegrees>
              <LongitudeDegrees>-5.7709344662725925445556640625</LongitudeDegrees>
            </Position>
            <AltitudeMeters>617.4000244140625</AltitudeMeters>
            <DistanceMeters>NAN</DistanceMeters>
          </Trackpoint>
          <Trackpoint>
            <Time>2019-10-05T15:13:16.000Z</Time>
            <Position>
              <LatitudeDegrees>41.55155318789184093475341796875</LatitudeDegrees>
              <LongitudeDegrees>-5.77092415653169155120849609375</LongitudeDegrees>
            </Position>
            <AltitudeMeters>617.79998779296875</AltitudeMeters>
            <DistanceMeters>NAN</DistanceMeters>
          </Trackpoint>
          <Trackpoint>
            <Time>2019-10-05T15:13:19.000Z</Time>
            <Position>
              <LatitudeDegrees>41.55137725174427032470703125</LatitudeDegrees>
              <LongitudeDegrees>-5.77090077102184295654296875</LongitudeDegrees>
            </Position>
            <AltitudeMeters>616.5999755859375</AltitudeMeters>
            <DistanceMeters>NAN</DistanceMeters>
          </Trackpoint>
          <Trackpoint>
            <Time>2019-10-05T15:13:24.000Z</Time>
            <Position>
              <LatitudeDegrees>41.55109117738902568817138671875</LatitudeDegrees>
              <LongitudeDegrees>-5.77085475437343120574951171875</LongitudeDegrees>
            </Position>
            <AltitudeMeters>617.79998779296875</AltitudeMeters>
            <DistanceMeters>NAN</DistanceMeters>
          </Trackpoint>
          <Trackpoint>
            <Time>2019-10-05T15:13:26.000Z</Time>
            <Position>
              <LatitudeDegrees>41.550960838794708251953125</LatitudeDegrees>
              <LongitudeDegrees>-5.7708322070538997650146484375</LongitudeDegrees>
            </Position>
            <AltitudeMeters>617.79998779296875</AltitudeMeters>
            <DistanceMeters>NAN</DistanceMeters>
          </Trackpoint>
          <Trackpoint>
            <Time>2019-10-05T15:13:34.000Z</Time>
            <Position>
              <LatitudeDegrees>41.5505325235426425933837890625</LatitudeDegrees>
              <LongitudeDegrees>-5.77075500972568988800048828125</LongitudeDegrees>
            </Position>
            <AltitudeMeters>618.5999755859375</AltitudeMeters>
            <DistanceMeters>NAN</DistanceMeters>
          </Trackpoint>
          <Trackpoint>
            <Time>2019-10-05T15:13:35.000Z</Time>
            <Position>
              <LatitudeDegrees>41.55047745443880558013916015625</LatitudeDegrees>
              <LongitudeDegrees>-5.77074478380382061004638671875</LongitudeDegrees>
            </Position>
            <AltitudeMeters>619.20001220703125</AltitudeMeters>
            <DistanceMeters>NAN</DistanceMeters>
          </Trackpoint>
          <Trackpoint>
            <Time>2019-10-05T15:13:42.000Z</Time>
            <Position>
              <LatitudeDegrees>41.55008853413164615631103515625</LatitudeDegrees>
              <LongitudeDegrees>-5.770654343068599700927734375</LongitudeDegrees>
            </Position>
            <AltitudeMeters>619.20001220703125</AltitudeMeters>
            <DistanceMeters>NAN</DistanceMeters>
          </Trackpoint>
          <Trackpoint>
            <Time>2019-10-05T15:13:47.000Z</Time>
            <Position>
              <LatitudeDegrees>41.5498063154518604278564453125</LatitudeDegrees>
              <LongitudeDegrees>-5.77056013047695159912109375</LongitudeDegrees>
            </Position>
            <AltitudeMeters>620.20001220703125</AltitudeMeters>
            <DistanceMeters>NAN</DistanceMeters>
          </Trackpoint>
          <Trackpoint>
            <Time>2019-10-05T15:13:49.000Z</Time>
            <Position>
              <LatitudeDegrees>41.54969559051096439361572265625</LatitudeDegrees>
              <LongitudeDegrees>-5.77051185071468353271484375</LongitudeDegrees>
            </Position>
            <AltitudeMeters>619.79998779296875</AltitudeMeters>
            <DistanceMeters>NAN</DistanceMeters>
          </Trackpoint>
          <Trackpoint>
            <Time>2019-10-05T15:13:54.000Z</Time>
            <Position>
              <LatitudeDegrees>41.5494103543460369110107421875</LatitudeDegrees>
              <LongitudeDegrees>-5.77038042247295379638671875</LongitudeDegrees>
            </Position>
            <AltitudeMeters>619.79998779296875</AltitudeMeters>
            <DistanceMeters>NAN</DistanceMeters>
          </Trackpoint>
          <Trackpoint>
            <Time>2019-10-05T15:13:58.000Z</Time>
            <Position>
              <LatitudeDegrees>41.54918245039880275726318359375</LatitudeDegrees>
              <LongitudeDegrees>-5.77025125734508037567138671875</LongitudeDegrees>
            </Position>
            <AltitudeMeters>619.20001220703125</AltitudeMeters>
            <DistanceMeters>NAN</DistanceMeters>
          </Trackpoint>
          <Trackpoint>
            <Time>2019-10-05T15:14:00.000Z</Time>
            <Position>
              <LatitudeDegrees>41.54907180927693843841552734375</LatitudeDegrees>
              <LongitudeDegrees>-5.77018537558615207672119140625</LongitudeDegrees>
            </Position>
            <AltitudeMeters>618.5999755859375</AltitudeMeters>
            <DistanceMeters>NAN</DistanceMeters>
          </Trackpoint>
          <Trackpoint>
            <Time>2019-10-05T15:14:06.000Z</Time>
            <Position>
              <LatitudeDegrees>41.548736281692981719970703125</LatitudeDegrees>
              <LongitudeDegrees>-5.7699692063033580780029296875</LongitudeDegrees>
            </Position>
            <AltitudeMeters>618.20001220703125</AltitudeMeters>
            <DistanceMeters>NAN</DistanceMeters>
          </Trackpoint>
          <Trackpoint>
            <Time>2019-10-05T15:14:09.000Z</Time>
            <Position>
              <LatitudeDegrees>41.54856353066861629486083984375</LatitudeDegrees>
              <LongitudeDegrees>-5.76985613442957401275634765625</LongitudeDegrees>
            </Position>
            <AltitudeMeters>618</AltitudeMeters>
            <DistanceMeters>NAN</DistanceMeters>
          </Trackpoint>
          <Trackpoint>
            <Time>2019-10-05T15:14:16.000Z</Time>
            <Position>
              <LatitudeDegrees>41.5481594391167163848876953125</LatitudeDegrees>
              <LongitudeDegrees>-5.76960417442023754119873046875</LongitudeDegrees>
            </Position>
            <AltitudeMeters>617.79998779296875</AltitudeMeters>
            <DistanceMeters>NAN</DistanceMeters>
          </Trackpoint>
          <Trackpoint>
            <Time>2019-10-05T15:14:19.000Z</Time>
            <Position>
              <LatitudeDegrees>41.547985263168811798095703125</LatitudeDegrees>
              <LongitudeDegrees>-5.7694947905838489532470703125</LongitudeDegrees>
            </Position>
            <AltitudeMeters>617</AltitudeMeters>
            <DistanceMeters>NAN</DistanceMeters>
          </Trackpoint>
          <Trackpoint>
            <Time>2019-10-05T15:14:21.000Z</Time>
            <Position>
              <LatitudeDegrees>41.54786984436213970184326171875</LatitudeDegrees>
              <LongitudeDegrees>-5.7694186829030513763427734375</LongitudeDegrees>
            </Position>
            <AltitudeMeters>617.20001220703125</AltitudeMeters>
            <DistanceMeters>NAN</DistanceMeters>
          </Trackpoint>
          <Trackpoint>
            <Time>2019-10-05T15:14:29.000Z</Time>
            <Position>
              <LatitudeDegrees>41.54740230180323123931884765625</LatitudeDegrees>
              <LongitudeDegrees>-5.7691229693591594696044921875</LongitudeDegrees>
            </Position>
            <AltitudeMeters>616.79998779296875</AltitudeMeters>
            <DistanceMeters>NAN</DistanceMeters>
          </Trackpoint>
          <Trackpoint>
            <Time>2019-10-05T15:14:34.000Z</Time>
            <Position>
              <LatitudeDegrees>41.5471076779067516326904296875</LatitudeDegrees>
              <LongitudeDegrees>-5.76893814839422702789306640625</LongitudeDegrees>
            </Position>
            <AltitudeMeters>617.20001220703125</AltitudeMeters>
            <DistanceMeters>NAN</DistanceMeters>
          </Trackpoint>
          <Trackpoint>
            <Time>2019-10-05T15:14:39.000Z</Time>
            <Position>
              <LatitudeDegrees>41.54681615531444549560546875</LatitudeDegrees>
              <LongitudeDegrees>-5.76874938793480396270751953125</LongitudeDegrees>
            </Position>
            <AltitudeMeters>615.79998779296875</AltitudeMeters>
            <DistanceMeters>NAN</DistanceMeters>
          </Trackpoint>
          <Trackpoint>
            <Time>2019-10-05T15:14:44.000Z</Time>
            <Position>
              <LatitudeDegrees>41.54653075151145458221435546875</LatitudeDegrees>
              <LongitudeDegrees>-5.76857437379658222198486328125</LongitudeDegrees>
            </Position>
            <AltitudeMeters>615.5999755859375</AltitudeMeters>
            <DistanceMeters>NAN</DistanceMeters>
          </Trackpoint>
          <Trackpoint>
            <Time>2019-10-05T15:14:53.000Z</Time>
            <Position>
              <LatitudeDegrees>41.54601526446640491485595703125</LatitudeDegrees>
              <LongitudeDegrees>-5.76824580319225788116455078125</LongitudeDegrees>
            </Position>
            <AltitudeMeters>615.4000244140625</AltitudeMeters>
            <DistanceMeters>NAN</DistanceMeters>
          </Trackpoint>
          <Trackpoint>
            <Time>2019-10-05T15:14:54.000Z</Time>
            <Position>
              <LatitudeDegrees>41.54595726169645786285400390625</LatitudeDegrees>
              <LongitudeDegrees>-5.76820691116154193878173828125</LongitudeDegrees>
            </Position>
            <AltitudeMeters>614.79998779296875</AltitudeMeters>
            <DistanceMeters>NAN</DistanceMeters>
          </Trackpoint>
          <Trackpoint>
            <Time>2019-10-05T15:14:57.000Z</Time>
            <Position>
              <LatitudeDegrees>41.5457742847502231597900390625</LatitudeDegrees>
              <LongitudeDegrees>-5.76809073798358440399169921875</LongitudeDegrees>
            </Position>
            <AltitudeMeters>614.5999755859375</AltitudeMeters>
            <DistanceMeters>NAN</DistanceMeters>
          </Trackpoint>
          <Trackpoint>
            <Time>2019-10-05T15:15:04.000Z</Time>
            <Position>
              <LatitudeDegrees>41.5453367494046688079833984375</LatitudeDegrees>
              <LongitudeDegrees>-5.76781866140663623809814453125</LongitudeDegrees>
            </Position>
            <AltitudeMeters>614.20001220703125</AltitudeMeters>
            <DistanceMeters>NAN</DistanceMeters>
          </Trackpoint>
          <Trackpoint>
            <Time>2019-10-05T15:15:09.000Z</Time>
            <Position>
              <LatitudeDegrees>41.545023433864116668701171875</LatitudeDegrees>
              <LongitudeDegrees>-5.76761464588344097137451171875</LongitudeDegrees>
            </Position>
            <AltitudeMeters>613.4000244140625</AltitudeMeters>
            <DistanceMeters>NAN</DistanceMeters>
          </Trackpoint>
          <Trackpoint>
            <Time>2019-10-05T15:15:12.000Z</Time>
            <Position>
              <LatitudeDegrees>41.54483878053724765777587890625</LatitudeDegrees>
              <LongitudeDegrees>-5.7674985565245151519775390625</LongitudeDegrees>
            </Position>
            <AltitudeMeters>613.5999755859375</AltitudeMeters>
            <DistanceMeters>NAN</DistanceMeters>
          </Trackpoint>
          <Trackpoint>
            <Time>2019-10-05T15:15:13.000Z</Time>
            <Position>
              <LatitudeDegrees>41.54477893374860286712646484375</LatitudeDegrees>
              <LongitudeDegrees>-5.76745740137994289398193359375</LongitudeDegrees>
            </Position>
            <AltitudeMeters>614</AltitudeMeters>
            <DistanceMeters>NAN</DistanceMeters>
          </Trackpoint>
          <Trackpoint>
            <Time>2019-10-05T15:15:15.000Z</Time>
            <Position>
              <LatitudeDegrees>41.54465488158166408538818359375</LatitudeDegrees>
              <LongitudeDegrees>-5.76740107499063014984130859375</LongitudeDegrees>
            </Position>
            <AltitudeMeters>613.4000244140625</AltitudeMeters>
            <DistanceMeters>NAN</DistanceMeters>
          </Trackpoint>
          <Trackpoint>
            <Time>2019-10-05T15:15:17.000Z</Time>
            <Position>
              <LatitudeDegrees>41.54452814720571041107177734375</LatitudeDegrees>
              <LongitudeDegrees>-5.7673909328877925872802734375</LongitudeDegrees>
            </Position>
            <AltitudeMeters>613.20001220703125</AltitudeMeters>
            <DistanceMeters>NAN</DistanceMeters>
          </Trackpoint>
          <Trackpoint>
            <Time>2019-10-05T15:15:20.000Z</Time>
            <Position>
              <LatitudeDegrees>41.54436528682708740234375</LatitudeDegrees>
              <LongitudeDegrees>-5.7674868218600749969482421875</LongitudeDegrees>
            </Position>
            <AltitudeMeters>613</AltitudeMeters>
            <DistanceMeters>NAN</DistanceMeters>
          </Trackpoint>
          <Trackpoint>
            <Time>2019-10-05T15:15:21.000Z</Time>
            <Position>
              <LatitudeDegrees>41.544313989579677581787109375</LatitudeDegrees>
              <LongitudeDegrees>-5.76752378605306148529052734375</LongitudeDegrees>
            </Position>
            <AltitudeMeters>612.79998779296875</AltitudeMeters>
            <DistanceMeters>NAN</DistanceMeters>
          </Trackpoint>
          <Trackpoint>
            <Time>2019-10-05T15:15:22.000Z</Time>
            <Position>
              <LatitudeDegrees>41.54425841756165027618408203125</LatitudeDegrees>
              <LongitudeDegrees>-5.76755161397159099578857421875</LongitudeDegrees>
            </Position>
            <AltitudeMeters>612.79998779296875</AltitudeMeters>
            <DistanceMeters>NAN</DistanceMeters>
          </Trackpoint>
          <Trackpoint>
            <Time>2019-10-05T15:15:24.000Z</Time>
            <Position>
              <LatitudeDegrees>41.5441391430795192718505859375</LatitudeDegrees>
              <LongitudeDegrees>-5.767547674477100372314453125</LongitudeDegrees>
            </Position>
            <AltitudeMeters>613.20001220703125</AltitudeMeters>
            <DistanceMeters>NAN</DistanceMeters>
          </Trackpoint>
          <Trackpoint>
            <Time>2019-10-05T15:15:27.000Z</Time>
            <Position>
              <LatitudeDegrees>41.5439943037927150726318359375</LatitudeDegrees>
              <LongitudeDegrees>-5.76738699339330196380615234375</LongitudeDegrees>
            </Position>
            <AltitudeMeters>613.20001220703125</AltitudeMeters>
            <DistanceMeters>NAN</DistanceMeters>
          </Trackpoint>
          <Trackpoint>
            <Time>2019-10-05T15:15:30.000Z</Time>
            <Position>
              <LatitudeDegrees>41.54396169818937778472900390625</LatitudeDegrees>
              <LongitudeDegrees>-5.76722840778529644012451171875</LongitudeDegrees>
            </Position>
            <AltitudeMeters>613.20001220703125</AltitudeMeters>
            <DistanceMeters>NAN</DistanceMeters>
          </Trackpoint>
          <Trackpoint>
            <Time>2019-10-05T15:15:31.000Z</Time>
            <Position>
              <LatitudeDegrees>41.5439522266387939453125</LatitudeDegrees>
              <LongitudeDegrees>-5.76714827679097652435302734375</LongitudeDegrees>
            </Position>
            <AltitudeMeters>613.20001220703125</AltitudeMeters>
            <DistanceMeters>NAN</DistanceMeters>
          </Trackpoint>
          <Trackpoint>
            <Time>2019-10-05T15:15:33.000Z</Time>
            <Position>
              <LatitudeDegrees>41.5439168550074100494384765625</LatitudeDegrees>
              <LongitudeDegrees>-5.766998492181301116943359375</LongitudeDegrees>
            </Position>
            <AltitudeMeters>613.5999755859375</AltitudeMeters>
            <DistanceMeters>NAN</DistanceMeters>
          </Trackpoint>
          <Trackpoint>
            <Time>2019-10-05T15:15:35.000Z</Time>
            <Position>
              <LatitudeDegrees>41.54383412562310695648193359375</LatitudeDegrees>
              <LongitudeDegrees>-5.7668873481452465057373046875</LongitudeDegrees>
            </Position>
            <AltitudeMeters>613.5999755859375</AltitudeMeters>
            <DistanceMeters>NAN</DistanceMeters>
          </Trackpoint>
          <Trackpoint>
            <Time>2019-10-05T15:15:37.000Z</Time>
            <Position>
              <LatitudeDegrees>41.54373823665082454681396484375</LatitudeDegrees>
              <LongitudeDegrees>-5.7668075524270534515380859375</LongitudeDegrees>
            </Position>
            <AltitudeMeters>613.5999755859375</AltitudeMeters>
            <DistanceMeters>NAN</DistanceMeters>
          </Trackpoint>
          <Trackpoint>
            <Time>2019-10-05T15:15:40.000Z</Time>
            <Position>
              <LatitudeDegrees>41.5435956604778766632080078125</LatitudeDegrees>
              <LongitudeDegrees>-5.76671090908348560333251953125</LongitudeDegrees>
            </Position>
            <AltitudeMeters>613.79998779296875</AltitudeMeters>
            <DistanceMeters>NAN</DistanceMeters>
          </Trackpoint>
          <Trackpoint>
            <Time>2019-10-05T15:15:44.000Z</Time>
            <Position>
              <LatitudeDegrees>41.54340866021811962127685546875</LatitudeDegrees>
              <LongitudeDegrees>-5.76659171842038631439208984375</LongitudeDegrees>
            </Position>
            <AltitudeMeters>614.4000244140625</AltitudeMeters>
            <DistanceMeters>NAN</DistanceMeters>
          </Trackpoint>
          <Trackpoint>
            <Time>2019-10-05T15:15:45.000Z</Time>
            <Position>
              <LatitudeDegrees>41.5433599613606929779052734375</LatitudeDegrees>
              <LongitudeDegrees>-5.76656070537865161895751953125</LongitudeDegrees>
            </Position>
            <AltitudeMeters>614.5999755859375</AltitudeMeters>
            <DistanceMeters>NAN</DistanceMeters>
          </Trackpoint>
          <Trackpoint>
            <Time>2019-10-05T15:15:49.000Z</Time>
            <Position>
              <LatitudeDegrees>41.5431688539683818817138671875</LatitudeDegrees>
              <LongitudeDegrees>-5.7664417661726474761962890625</LongitudeDegrees>
            </Position>
            <AltitudeMeters>615.5999755859375</AltitudeMeters>
            <DistanceMeters>NAN</DistanceMeters>
          </Trackpoint>
          <Trackpoint>
            <Time>2019-10-05T15:15:51.000Z</Time>
            <Position>
              <LatitudeDegrees>41.54307237826287746429443359375</LatitudeDegrees>
              <LongitudeDegrees>-5.766381584107875823974609375</LongitudeDegrees>
            </Position>
            <AltitudeMeters>615.79998779296875</AltitudeMeters>
            <DistanceMeters>NAN</DistanceMeters>
          </Trackpoint>
          <Trackpoint>
            <Time>2019-10-05T15:15:55.000Z</Time>
            <Position>
              <LatitudeDegrees>41.5428842045366764068603515625</LatitudeDegrees>
              <LongitudeDegrees>-5.76625744812190532684326171875</LongitudeDegrees>
            </Position>
            <AltitudeMeters>616.20001220703125</AltitudeMeters>
            <DistanceMeters>NAN</DistanceMeters>
          </Trackpoint>
          <Trackpoint>
            <Time>2019-10-05T15:15:57.000Z</Time>
            <Position>
              <LatitudeDegrees>41.5427886508405208587646484375</LatitudeDegrees>
              <LongitudeDegrees>-5.7662008702754974365234375</LongitudeDegrees>
            </Position>
            <AltitudeMeters>616.5999755859375</AltitudeMeters>
            <DistanceMeters>NAN</DistanceMeters>
          </Trackpoint>
          <Trackpoint>
            <Time>2019-10-05T15:15:59.000Z</Time>
            <Position>
              <LatitudeDegrees>41.54269360005855560302734375</LatitudeDegrees>
              <LongitudeDegrees>-5.76614328660070896148681640625</LongitudeDegrees>
            </Position>
            <AltitudeMeters>616.79998779296875</AltitudeMeters>
            <DistanceMeters>NAN</DistanceMeters>
          </Trackpoint>
          <Trackpoint>
            <Time>2019-10-05T15:16:03.000Z</Time>
            <Position>
              <LatitudeDegrees>41.5425083599984645843505859375</LatitudeDegrees>
              <LongitudeDegrees>-5.7660184800624847412109375</LongitudeDegrees>
            </Position>
            <AltitudeMeters>617.5999755859375</AltitudeMeters>
            <DistanceMeters>NAN</DistanceMeters>
          </Trackpoint>
          <Trackpoint>
            <Time>2019-10-05T15:16:04.000Z</Time>
            <Position>
              <LatitudeDegrees>41.54245966114103794097900390625</LatitudeDegrees>
              <LongitudeDegrees>-5.76599207706749439239501953125</LongitudeDegrees>
            </Position>
            <AltitudeMeters>617.79998779296875</AltitudeMeters>
            <DistanceMeters>NAN</DistanceMeters>
          </Trackpoint>
          <Trackpoint>
            <Time>2019-10-05T15:16:05.000Z</Time>
            <Position>
              <LatitudeDegrees>41.54241339303553104400634765625</LatitudeDegrees>
              <LongitudeDegrees>-5.76596508733928203582763671875</LongitudeDegrees>
            </Position>
            <AltitudeMeters>618.20001220703125</AltitudeMeters>
            <DistanceMeters>NAN</DistanceMeters>
          </Trackpoint>
          <Trackpoint>
            <Time>2019-10-05T15:16:08.000Z</Time>
            <Position>
              <LatitudeDegrees>41.54227928258478641510009765625</LatitudeDegrees>
              <LongitudeDegrees>-5.76587456278502941131591796875</LongitudeDegrees>
            </Position>
            <AltitudeMeters>619</AltitudeMeters>
            <DistanceMeters>NAN</DistanceMeters>
          </Trackpoint>
          <Trackpoint>
            <Time>2019-10-05T15:16:12.000Z</Time>
            <Position>
              <LatitudeDegrees>41.542093455791473388671875</LatitudeDegrees>
              <LongitudeDegrees>-5.7657578028738498687744140625</LongitudeDegrees>
            </Position>
            <AltitudeMeters>619.20001220703125</AltitudeMeters>
            <DistanceMeters>NAN</DistanceMeters>
          </Trackpoint>
          <Trackpoint>
            <Time>2019-10-05T15:16:13.000Z</Time>
            <Position>
              <LatitudeDegrees>41.54204794205725193023681640625</LatitudeDegrees>
              <LongitudeDegrees>-5.76572947204113006591796875</LongitudeDegrees>
            </Position>
            <AltitudeMeters>619.4000244140625</AltitudeMeters>
            <DistanceMeters>NAN</DistanceMeters>
          </Trackpoint>
          <Trackpoint>
            <Time>2019-10-05T15:16:17.000Z</Time>
            <Position>
              <LatitudeDegrees>41.541865132749080657958984375</LatitudeDegrees>
              <LongitudeDegrees>-5.7656226865947246551513671875</LongitudeDegrees>
            </Position>
            <AltitudeMeters>619.79998779296875</AltitudeMeters>
            <DistanceMeters>NAN</DistanceMeters>
          </Trackpoint>
          <Trackpoint>
            <Time>2019-10-05T15:16:18.000Z</Time>
            <Position>
              <LatitudeDegrees>41.54182196594774723052978515625</LatitudeDegrees>
              <LongitudeDegrees>-5.7655945234000682830810546875</LongitudeDegrees>
            </Position>
            <AltitudeMeters>620.20001220703125</AltitudeMeters>
            <DistanceMeters>NAN</DistanceMeters>
          </Trackpoint>
          <Trackpoint>
            <Time>2019-10-05T15:16:20.000Z</Time>
            <Position>
              <LatitudeDegrees>41.5417305193841457366943359375</LatitudeDegrees>
              <LongitudeDegrees>-5.7655472494661808013916015625</LongitudeDegrees>
            </Position>
            <AltitudeMeters>620.4000244140625</AltitudeMeters>
            <DistanceMeters>NAN</DistanceMeters>
          </Trackpoint>
          <Trackpoint>
            <Time>2019-10-05T15:16:21.000Z</Time>
            <Position>
              <LatitudeDegrees>41.541682742536067962646484375</LatitudeDegrees>
              <LongitudeDegrees>-5.76553643681108951568603515625</LongitudeDegrees>
            </Position>
            <AltitudeMeters>620.20001220703125</AltitudeMeters>
            <DistanceMeters>NAN</DistanceMeters>
          </Trackpoint>
          <Trackpoint>
            <Time>2019-10-05T15:16:25.000Z</Time>
            <Position>
              <LatitudeDegrees>41.5414696745574474334716796875</LatitudeDegrees>
              <LongitudeDegrees>-5.7656241953372955322265625</LongitudeDegrees>
            </Position>
            <AltitudeMeters>620.20001220703125</AltitudeMeters>
            <DistanceMeters>NAN</DistanceMeters>
          </Trackpoint>
          <Trackpoint>
            <Time>2019-10-05T15:16:26.000Z</Time>
            <Position>
              <LatitudeDegrees>41.5414482168853282928466796875</LatitudeDegrees>
              <LongitudeDegrees>-5.76563919894397258758544921875</LongitudeDegrees>
            </Position>
            <AltitudeMeters>620.20001220703125</AltitudeMeters>
            <DistanceMeters>NAN</DistanceMeters>
          </Trackpoint>
          <Trackpoint>
            <Time>2019-10-05T15:16:28.000Z</Time>
            <Position>
              <LatitudeDegrees>41.5413711033761501312255859375</LatitudeDegrees>
              <LongitudeDegrees>-5.76571614481508731842041015625</LongitudeDegrees>
            </Position>
            <AltitudeMeters>619.5999755859375</AltitudeMeters>
            <DistanceMeters>NAN</DistanceMeters>
          </Trackpoint>
          <Trackpoint>
            <Time>2019-10-05T15:16:29.000Z</Time>
            <Position>
              <LatitudeDegrees>41.54132994823157787322998046875</LatitudeDegrees>
              <LongitudeDegrees>-5.7657497562468051910400390625</LongitudeDegrees>
            </Position>
            <AltitudeMeters>619.20001220703125</AltitudeMeters>
            <DistanceMeters>NAN</DistanceMeters>
          </Trackpoint>
          <Trackpoint>
            <Time>2019-10-05T15:16:32.000Z</Time>
            <Position>
              <LatitudeDegrees>41.54119952581822872161865234375</LatitudeDegrees>
              <LongitudeDegrees>-5.76583407819271087646484375</LongitudeDegrees>
            </Position>
            <AltitudeMeters>618.4000244140625</AltitudeMeters>
            <DistanceMeters>NAN</DistanceMeters>
          </Trackpoint>
          <Trackpoint>
            <Time>2019-10-05T15:16:33.000Z</Time>
            <Position>
              <LatitudeDegrees>41.54115132987499237060546875</LatitudeDegrees>
              <LongitudeDegrees>-5.76584924943745136260986328125</LongitudeDegrees>
            </Position>
            <AltitudeMeters>619.79998779296875</AltitudeMeters>
            <DistanceMeters>NAN</DistanceMeters>
          </Trackpoint>
          <Trackpoint>
            <Time>2019-10-05T15:16:36.000Z</Time>
            <Position>
              <LatitudeDegrees>41.54100338928401470184326171875</LatitudeDegrees>
              <LongitudeDegrees>-5.76585561968386173248291015625</LongitudeDegrees>
            </Position>
            <AltitudeMeters>620</AltitudeMeters>
            <DistanceMeters>NAN</DistanceMeters>
          </Trackpoint>
          <Trackpoint>
            <Time>2019-10-05T15:16:41.000Z</Time>
            <Position>
              <LatitudeDegrees>41.540779173374176025390625</LatitudeDegrees>
              <LongitudeDegrees>-5.76573961414396762847900390625</LongitudeDegrees>
            </Position>
            <AltitudeMeters>620</AltitudeMeters>
            <DistanceMeters>NAN</DistanceMeters>
          </Trackpoint>
          <Trackpoint>
            <Time>2019-10-05T15:16:43.000Z</Time>
            <Position>
              <LatitudeDegrees>41.54070113785564899444580078125</LatitudeDegrees>
              <LongitudeDegrees>-5.76566216535866260528564453125</LongitudeDegrees>
            </Position>
            <AltitudeMeters>620.4000244140625</AltitudeMeters>
            <DistanceMeters>NAN</DistanceMeters>
          </Trackpoint>
          <Trackpoint>
            <Time>2019-10-05T15:16:44.000Z</Time>
            <Position>
              <LatitudeDegrees>41.5406660176813602447509765625</LatitudeDegrees>
              <LongitudeDegrees>-5.76561279594898223876953125</LongitudeDegrees>
            </Position>
            <AltitudeMeters>620.4000244140625</AltitudeMeters>
            <DistanceMeters>NAN</DistanceMeters>
          </Trackpoint>
          <Trackpoint>
            <Time>2019-10-05T15:16:46.000Z</Time>
            <Position>
              <LatitudeDegrees>41.5406070090830326080322265625</LatitudeDegrees>
              <LongitudeDegrees>-5.7655050046741962432861328125</LongitudeDegrees>
            </Position>
            <AltitudeMeters>620.5999755859375</AltitudeMeters>
            <DistanceMeters>NAN</DistanceMeters>
          </Trackpoint>
          <Trackpoint>
            <Time>2019-10-05T15:16:47.000Z</Time>
            <Position>
              <LatitudeDegrees>41.54058312065899372100830078125</LatitudeDegrees>
              <LongitudeDegrees>-5.7654449902474880218505859375</LongitudeDegrees>
            </Position>
            <AltitudeMeters>620.5999755859375</AltitudeMeters>
            <DistanceMeters>NAN</DistanceMeters>
          </Trackpoint>
          <Trackpoint>
            <Time>2019-10-05T15:16:51.000Z</Time>
            <Position>
              <LatitudeDegrees>41.54050625860691070556640625</LatitudeDegrees>
              <LongitudeDegrees>-5.76519411988556385040283203125</LongitudeDegrees>
            </Position>
            <AltitudeMeters>621</AltitudeMeters>
            <DistanceMeters>NAN</DistanceMeters>
          </Trackpoint>
          <Trackpoint>
            <Time>2019-10-05T15:16:55.000Z</Time>
            <Position>
              <LatitudeDegrees>41.5404078550636768341064453125</LatitudeDegrees>
              <LongitudeDegrees>-5.7649484463036060333251953125</LongitudeDegrees>
            </Position>
            <AltitudeMeters>620.5999755859375</AltitudeMeters>
            <DistanceMeters>NAN</DistanceMeters>
          </Trackpoint>
          <Trackpoint>
            <Time>2019-10-05T15:16:57.000Z</Time>
            <Position>
              <LatitudeDegrees>41.54032479040324687957763671875</LatitudeDegrees>
              <LongitudeDegrees>-5.76485264115035533905029296875</LongitudeDegrees>
            </Position>
            <AltitudeMeters>620.4000244140625</AltitudeMeters>
            <DistanceMeters>NAN</DistanceMeters>
          </Trackpoint>
          <Trackpoint>
            <Time>2019-10-05T15:17:00.000Z</Time>
            <Position>
              <LatitudeDegrees>41.54016369022428989410400390625</LatitudeDegrees>
              <LongitudeDegrees>-5.76476530171930789947509765625</LongitudeDegrees>
            </Position>
            <AltitudeMeters>619</AltitudeMeters>
            <DistanceMeters>NAN</DistanceMeters>
          </Trackpoint>
          <Trackpoint>
            <Time>2019-10-05T15:17:01.000Z</Time>
            <Position>
              <LatitudeDegrees>41.54010702855885028839111328125</LatitudeDegrees>
              <LongitudeDegrees>-5.7647429220378398895263671875</LongitudeDegrees>
            </Position>
            <AltitudeMeters>618.79998779296875</AltitudeMeters>
            <DistanceMeters>NAN</DistanceMeters>
          </Trackpoint>
          <Trackpoint>
            <Time>2019-10-05T15:17:06.000Z</Time>
            <Position>
              <LatitudeDegrees>41.5398043580353260040283203125</LatitudeDegrees>
              <LongitudeDegrees>-5.764658264815807342529296875</LongitudeDegrees>
            </Position>
            <AltitudeMeters>618</AltitudeMeters>
            <DistanceMeters>NAN</DistanceMeters>
          </Trackpoint>
          <Trackpoint>
            <Time>2019-10-05T15:17:07.000Z</Time>
            <Position>
              <LatitudeDegrees>41.53974090702831745147705078125</LatitudeDegrees>
              <LongitudeDegrees>-5.76464342884719371795654296875</LongitudeDegrees>
            </Position>
            <AltitudeMeters>617.79998779296875</AltitudeMeters>
            <DistanceMeters>NAN</DistanceMeters>
          </Trackpoint>
          <Trackpoint>
            <Time>2019-10-05T15:17:08.000Z</Time>
            <Position>
              <LatitudeDegrees>41.53967703692615032196044921875</LatitudeDegrees>
              <LongitudeDegrees>-5.764628760516643524169921875</LongitudeDegrees>
            </Position>
            <AltitudeMeters>617.4000244140625</AltitudeMeters>
            <DistanceMeters>NAN</DistanceMeters>
          </Trackpoint>
          <Trackpoint>
            <Time>2019-10-05T15:17:10.000Z</Time>
            <Position>
              <LatitudeDegrees>41.5395502187311649322509765625</LatitudeDegrees>
              <LongitudeDegrees>-5.76459447853267192840576171875</LongitudeDegrees>
            </Position>
            <AltitudeMeters>616.5999755859375</AltitudeMeters>
            <DistanceMeters>NAN</DistanceMeters>
          </Trackpoint>
          <Trackpoint>
            <Time>2019-10-05T15:17:13.000Z</Time>
            <Position>
              <LatitudeDegrees>41.53936154209077358245849609375</LatitudeDegrees>
              <LongitudeDegrees>-5.76455743052065372467041015625</LongitudeDegrees>
            </Position>
            <AltitudeMeters>616.20001220703125</AltitudeMeters>
            <DistanceMeters>NAN</DistanceMeters>
          </Trackpoint>
          <Trackpoint>
            <Time>2019-10-05T15:17:16.000Z</Time>
            <Position>
              <LatitudeDegrees>41.53917076997458934783935546875</LatitudeDegrees>
              <LongitudeDegrees>-5.76452071778476238250732421875</LongitudeDegrees>
            </Position>
            <AltitudeMeters>616.4000244140625</AltitudeMeters>
            <DistanceMeters>NAN</DistanceMeters>
          </Trackpoint>
          <Trackpoint>
            <Time>2019-10-05T15:17:21.000Z</Time>
            <Position>
              <LatitudeDegrees>41.538851670920848846435546875</LatitudeDegrees>
              <LongitudeDegrees>-5.7644378207623958587646484375</LongitudeDegrees>
            </Position>
            <AltitudeMeters>616.4000244140625</AltitudeMeters>
            <DistanceMeters>NAN</DistanceMeters>
          </Trackpoint>
          <Trackpoint>
            <Time>2019-10-05T15:17:24.000Z</Time>
            <Position>
              <LatitudeDegrees>41.53865846805274486541748046875</LatitudeDegrees>
              <LongitudeDegrees>-5.76438392512500286102294921875</LongitudeDegrees>
            </Position>
            <AltitudeMeters>616.20001220703125</AltitudeMeters>
            <DistanceMeters>NAN</DistanceMeters>
          </Trackpoint>
          <Trackpoint>
            <Time>2019-10-05T15:17:33.000Z</Time>
            <Position>
              <LatitudeDegrees>41.53808958828449249267578125</LatitudeDegrees>
              <LongitudeDegrees>-5.76422835700213909149169921875</LongitudeDegrees>
            </Position>
            <AltitudeMeters>617</AltitudeMeters>
            <DistanceMeters>NAN</DistanceMeters>
          </Trackpoint>
          <Trackpoint>
            <Time>2019-10-05T15:17:34.000Z</Time>
            <Position>
              <LatitudeDegrees>41.53802923858165740966796875</LatitudeDegrees>
              <LongitudeDegrees>-5.76420807279646396636962890625</LongitudeDegrees>
            </Position>
            <AltitudeMeters>616.79998779296875</AltitudeMeters>
            <DistanceMeters>NAN</DistanceMeters>
          </Trackpoint>
          <Trackpoint>
            <Time>2019-10-05T15:17:43.000Z</Time>
            <Position>
              <LatitudeDegrees>41.53749623335897922515869140625</LatitudeDegrees>
              <LongitudeDegrees>-5.76399181969463825225830078125</LongitudeDegrees>
            </Position>
            <AltitudeMeters>616.5999755859375</AltitudeMeters>
            <DistanceMeters>NAN</DistanceMeters>
          </Trackpoint>
          <Trackpoint>
            <Time>2019-10-05T15:17:44.000Z</Time>
            <Position>
              <LatitudeDegrees>41.537438146770000457763671875</LatitudeDegrees>
              <LongitudeDegrees>-5.763961561024188995361328125</LongitudeDegrees>
            </Position>
            <AltitudeMeters>616.20001220703125</AltitudeMeters>
            <DistanceMeters>NAN</DistanceMeters>
          </Trackpoint>
          <Trackpoint>
            <Time>2019-10-05T15:17:51.000Z</Time>
            <Position>
              <LatitudeDegrees>41.53703992255032062530517578125</LatitudeDegrees>
              <LongitudeDegrees>-5.7637035660445690155029296875</LongitudeDegrees>
            </Position>
            <AltitudeMeters>615</AltitudeMeters>
            <DistanceMeters>NAN</DistanceMeters>
          </Trackpoint>
          <Trackpoint>
            <Time>2019-10-05T15:17:52.000Z</Time>
            <Position>
              <LatitudeDegrees>41.5369820035994052886962890625</LatitudeDegrees>
              <LongitudeDegrees>-5.76366324909031391143798828125</LongitudeDegrees>
            </Position>
            <AltitudeMeters>615.20001220703125</AltitudeMeters>
            <DistanceMeters>NAN</DistanceMeters>
          </Trackpoint>
          <Trackpoint>
            <Time>2019-10-05T15:17:59.000Z</Time>
            <Position>
              <LatitudeDegrees>41.536560393869876861572265625</LatitudeDegrees>
              <LongitudeDegrees>-5.76335370540618896484375</LongitudeDegrees>
            </Position>
            <AltitudeMeters>614</AltitudeMeters>
            <DistanceMeters>NAN</DistanceMeters>
          </Trackpoint>
          <Trackpoint>
            <Time>2019-10-05T15:18:04.000Z</Time>
            <Position>
              <LatitudeDegrees>41.536273062229156494140625</LatitudeDegrees>
              <LongitudeDegrees>-5.7631324231624603271484375</LongitudeDegrees>
            </Position>
            <AltitudeMeters>613.5999755859375</AltitudeMeters>
            <DistanceMeters>NAN</DistanceMeters>
          </Trackpoint>
          <Trackpoint>
            <Time>2019-10-05T15:18:08.000Z</Time>
            <Position>
              <LatitudeDegrees>41.53604817576706409454345703125</LatitudeDegrees>
              <LongitudeDegrees>-5.76296252198517322540283203125</LongitudeDegrees>
            </Position>
            <AltitudeMeters>614</AltitudeMeters>
            <DistanceMeters>NAN</DistanceMeters>
          </Trackpoint>
          <Trackpoint>
            <Time>2019-10-05T15:18:15.000Z</Time>
            <Position>
              <LatitudeDegrees>41.535661183297634124755859375</LatitudeDegrees>
              <LongitudeDegrees>-5.7626682333648204803466796875</LongitudeDegrees>
            </Position>
            <AltitudeMeters>613.5999755859375</AltitudeMeters>
            <DistanceMeters>NAN</DistanceMeters>
          </Trackpoint>
          <Trackpoint>
            <Time>2019-10-05T15:18:24.000Z</Time>
            <Position>
              <LatitudeDegrees>41.53518266044557094573974609375</LatitudeDegrees>
              <LongitudeDegrees>-5.76230672188103199005126953125</LongitudeDegrees>
            </Position>
            <AltitudeMeters>613.79998779296875</AltitudeMeters>
            <DistanceMeters>NAN</DistanceMeters>
          </Trackpoint>
          <Trackpoint>
            <Time>2019-10-05T15:18:27.000Z</Time>
            <Position>
              <LatitudeDegrees>41.53500194661319255828857421875</LatitudeDegrees>
              <LongitudeDegrees>-5.76217780821025371551513671875</LongitudeDegrees>
            </Position>
            <AltitudeMeters>614</AltitudeMeters>
            <DistanceMeters>NAN</DistanceMeters>
          </Trackpoint>
          <Trackpoint>
            <Time>2019-10-05T15:18:34.000Z</Time>
            <Position>
              <LatitudeDegrees>41.5346622280776500701904296875</LatitudeDegrees>
              <LongitudeDegrees>-5.7619282789528369903564453125</LongitudeDegrees>
            </Position>
            <AltitudeMeters>614.20001220703125</AltitudeMeters>
            <DistanceMeters>NAN</DistanceMeters>
          </Trackpoint>
          <Trackpoint>
            <Time>2019-10-05T15:18:36.000Z</Time>
            <Position>
              <LatitudeDegrees>41.5345606394112110137939453125</LatitudeDegrees>
              <LongitudeDegrees>-5.76184672303497791290283203125</LongitudeDegrees>
            </Position>
            <AltitudeMeters>614.4000244140625</AltitudeMeters>
            <DistanceMeters>NAN</DistanceMeters>
          </Trackpoint>
          <Trackpoint>
            <Time>2019-10-05T15:18:42.000Z</Time>
            <Position>
              <LatitudeDegrees>41.534241624176502227783203125</LatitudeDegrees>
              <LongitudeDegrees>-5.76159861870110034942626953125</LongitudeDegrees>
            </Position>
            <AltitudeMeters>614.5999755859375</AltitudeMeters>
            <DistanceMeters>NAN</DistanceMeters>
          </Trackpoint>
          <Trackpoint>
            <Time>2019-10-05T15:18:43.000Z</Time>
            <Position>
              <LatitudeDegrees>41.53418697416782379150390625</LatitudeDegrees>
              <LongitudeDegrees>-5.76156123541295528411865234375</LongitudeDegrees>
            </Position>
            <AltitudeMeters>615</AltitudeMeters>
            <DistanceMeters>NAN</DistanceMeters>
          </Trackpoint>
          <Trackpoint>
            <Time>2019-10-05T15:18:44.000Z</Time>
            <Position>
              <LatitudeDegrees>41.53413257561624050140380859375</LatitudeDegrees>
              <LongitudeDegrees>-5.7615219242870807647705078125</LongitudeDegrees>
            </Position>
            <AltitudeMeters>615.20001220703125</AltitudeMeters>
            <DistanceMeters>NAN</DistanceMeters>
          </Trackpoint>
          <Trackpoint>
            <Time>2019-10-05T15:18:50.000Z</Time>
            <Position>
              <LatitudeDegrees>41.53381171636283397674560546875</LatitudeDegrees>
              <LongitudeDegrees>-5.76127407141029834747314453125</LongitudeDegrees>
            </Position>
            <AltitudeMeters>615</AltitudeMeters>
            <DistanceMeters>NAN</DistanceMeters>
          </Trackpoint>
          <Trackpoint>
            <Time>2019-10-05T15:18:52.000Z</Time>
            <Position>
              <LatitudeDegrees>41.53370912186801433563232421875</LatitudeDegrees>
              <LongitudeDegrees>-5.761202238500118255615234375</LongitudeDegrees>
            </Position>
            <AltitudeMeters>615</AltitudeMeters>
            <DistanceMeters>NAN</DistanceMeters>
          </Trackpoint>
          <Trackpoint>
            <Time>2019-10-05T15:18:55.000Z</Time>
            <Position>
              <LatitudeDegrees>41.5335601754486560821533203125</LatitudeDegrees>
              <LongitudeDegrees>-5.761090256273746490478515625</LongitudeDegrees>
            </Position>
            <AltitudeMeters>616</AltitudeMeters>
            <DistanceMeters>NAN</DistanceMeters>
          </Trackpoint>
          <Trackpoint>
            <Time>2019-10-05T15:18:58.000Z</Time>
            <Position>
              <LatitudeDegrees>41.533409468829631805419921875</LatitudeDegrees>
              <LongitudeDegrees>-5.76098171062767505645751953125</LongitudeDegrees>
            </Position>
            <AltitudeMeters>614.79998779296875</AltitudeMeters>
            <DistanceMeters>NAN</DistanceMeters>
          </Trackpoint>
          <Trackpoint>
            <Time>2019-10-05T15:19:01.000Z</Time>
            <Position>
              <LatitudeDegrees>41.53325490653514862060546875</LatitudeDegrees>
              <LongitudeDegrees>-5.76087324880063533782958984375</LongitudeDegrees>
            </Position>
            <AltitudeMeters>614.20001220703125</AltitudeMeters>
            <DistanceMeters>NAN</DistanceMeters>
          </Trackpoint>
          <Trackpoint>
            <Time>2019-10-05T15:19:10.000Z</Time>
            <Position>
              <LatitudeDegrees>41.5327524952590465545654296875</LatitudeDegrees>
              <LongitudeDegrees>-5.7605720870196819305419921875</LongitudeDegrees>
            </Position>
            <AltitudeMeters>613.79998779296875</AltitudeMeters>
            <DistanceMeters>NAN</DistanceMeters>
          </Trackpoint>
          <Trackpoint>
            <Time>2019-10-05T15:19:11.000Z</Time>
            <Position>
              <LatitudeDegrees>41.5326948277652263641357421875</LatitudeDegrees>
              <LongitudeDegrees>-5.76054417528212070465087890625</LongitudeDegrees>
            </Position>
            <AltitudeMeters>613.79998779296875</AltitudeMeters>
            <DistanceMeters>NAN</DistanceMeters>
          </Trackpoint>
          <Trackpoint>
            <Time>2019-10-05T15:19:19.000Z</Time>
            <Position>
              <LatitudeDegrees>41.5322308056056499481201171875</LatitudeDegrees>
              <LongitudeDegrees>-5.7603508047759532928466796875</LongitudeDegrees>
            </Position>
            <AltitudeMeters>612.5999755859375</AltitudeMeters>
            <DistanceMeters>NAN</DistanceMeters>
          </Trackpoint>
          <Trackpoint>
            <Time>2019-10-05T15:19:22.000Z</Time>
            <Position>
              <LatitudeDegrees>41.53199401684105396270751953125</LatitudeDegrees>
              <LongitudeDegrees>-5.76025969348847866058349609375</LongitudeDegrees>
            </Position>
            <AltitudeMeters>613.20001220703125</AltitudeMeters>
            <DistanceMeters>NAN</DistanceMeters>
          </Trackpoint>
          <Trackpoint>
            <Time>2019-10-05T15:19:24.000Z</Time>
            <Position>
              <LatitudeDegrees>41.5319345891475677490234375</LatitudeDegrees>
              <LongitudeDegrees>-5.7602351345121860504150390625</LongitudeDegrees>
            </Position>
            <AltitudeMeters>611</AltitudeMeters>
            <DistanceMeters>NAN</DistanceMeters>
          </Trackpoint>
          <Trackpoint>
            <Time>2019-10-05T15:19:25.000Z</Time>
            <Position>
              <LatitudeDegrees>41.5318754129111766815185546875</LatitudeDegrees>
              <LongitudeDegrees>-5.76021082699298858642578125</LongitudeDegrees>
            </Position>
            <AltitudeMeters>613</AltitudeMeters>
            <DistanceMeters>NAN</DistanceMeters>
          </Trackpoint>
          <Trackpoint>
            <Time>2019-10-05T15:19:32.000Z</Time>
            <Position>
              <LatitudeDegrees>41.53145807795226573944091796875</LatitudeDegrees>
              <LongitudeDegrees>-5.7600436918437480926513671875</LongitudeDegrees>
            </Position>
            <AltitudeMeters>612.20001220703125</AltitudeMeters>
            <DistanceMeters>NAN</DistanceMeters>
          </Trackpoint>
          <Trackpoint>
            <Time>2019-10-05T15:19:33.000Z</Time>
            <Position>
              <LatitudeDegrees>41.53140074573457241058349609375</LatitudeDegrees>
              <LongitudeDegrees>-5.7600195519626140594482421875</LongitudeDegrees>
            </Position>
            <AltitudeMeters>612.20001220703125</AltitudeMeters>
            <DistanceMeters>NAN</DistanceMeters>
          </Trackpoint>
          <Trackpoint>
            <Time>2019-10-05T15:19:37.000Z</Time>
            <Position>
              <LatitudeDegrees>41.531170494854450225830078125</LatitudeDegrees>
              <LongitudeDegrees>-5.7599333859980106353759765625</LongitudeDegrees>
            </Position>
            <AltitudeMeters>611.5999755859375</AltitudeMeters>
            <DistanceMeters>NAN</DistanceMeters>
          </Trackpoint>
          <Trackpoint>
            <Time>2019-10-05T15:19:43.000Z</Time>
            <Position>
              <LatitudeDegrees>41.53082205913960933685302734375</LatitudeDegrees>
              <LongitudeDegrees>-5.75979885645210742950439453125</LongitudeDegrees>
            </Position>
            <AltitudeMeters>611.20001220703125</AltitudeMeters>
            <DistanceMeters>NAN</DistanceMeters>
          </Trackpoint>
          <Trackpoint>
            <Time>2019-10-05T15:19:44.000Z</Time>
            <Position>
              <LatitudeDegrees>41.530759446322917938232421875</LatitudeDegrees>
              <LongitudeDegrees>-5.759788043797016143798828125</LongitudeDegrees>
            </Position>
            <AltitudeMeters>611.4000244140625</AltitudeMeters>
            <DistanceMeters>NAN</DistanceMeters>
          </Trackpoint>
          <Trackpoint>
            <Time>2019-10-05T15:19:48.000Z</Time>
            <Position>
              <LatitudeDegrees>41.53051100671291351318359375</LatitudeDegrees>
              <LongitudeDegrees>-5.759775303304195404052734375</LongitudeDegrees>
            </Position>
            <AltitudeMeters>611</AltitudeMeters>
            <DistanceMeters>NAN</DistanceMeters>
          </Trackpoint>
          <Trackpoint>
            <Time>2019-10-05T15:19:49.000Z</Time>
            <Position>
              <LatitudeDegrees>41.53045157901942729949951171875</LatitudeDegrees>
              <LongitudeDegrees>-5.7597902230918407440185546875</LongitudeDegrees>
            </Position>
            <AltitudeMeters>610.79998779296875</AltitudeMeters>
            <DistanceMeters>NAN</DistanceMeters>
          </Trackpoint>
          <Trackpoint>
            <Time>2019-10-05T15:19:52.000Z</Time>
            <Position>
              <LatitudeDegrees>41.53027824126183986663818359375</LatitudeDegrees>
              <LongitudeDegrees>-5.75987261720001697540283203125</LongitudeDegrees>
            </Position>
            <AltitudeMeters>611</AltitudeMeters>
            <DistanceMeters>NAN</DistanceMeters>
          </Trackpoint>
          <Trackpoint>
            <Time>2019-10-05T15:19:56.000Z</Time>
            <Position>
              <LatitudeDegrees>41.5300401113927364349365234375</LatitudeDegrees>
              <LongitudeDegrees>-5.75982752256095409393310546875</LongitudeDegrees>
            </Position>
            <AltitudeMeters>611.20001220703125</AltitudeMeters>
            <DistanceMeters>NAN</DistanceMeters>
          </Trackpoint>
          <Trackpoint>
            <Time>2019-10-05T15:20:00.000Z</Time>
            <Position>
              <LatitudeDegrees>41.52984087355434894561767578125</LatitudeDegrees>
              <LongitudeDegrees>-5.7596373371779918670654296875</LongitudeDegrees>
            </Position>
            <AltitudeMeters>611.79998779296875</AltitudeMeters>
            <DistanceMeters>NAN</DistanceMeters>
          </Trackpoint>
          <Trackpoint>
            <Time>2019-10-05T15:20:05.000Z</Time>
            <Position>
              <LatitudeDegrees>41.5295683778822422027587890625</LatitudeDegrees>
              <LongitudeDegrees>-5.759379006922245025634765625</LongitudeDegrees>
            </Position>
            <AltitudeMeters>610.4000244140625</AltitudeMeters>
            <DistanceMeters>NAN</DistanceMeters>
          </Trackpoint>
          <Trackpoint>
            <Time>2019-10-05T15:20:06.000Z</Time>
            <Position>
              <LatitudeDegrees>41.5295023284852504730224609375</LatitudeDegrees>
              <LongitudeDegrees>-5.7593402825295925140380859375</LongitudeDegrees>
            </Position>
            <AltitudeMeters>609.79998779296875</AltitudeMeters>
            <DistanceMeters>NAN</DistanceMeters>
          </Trackpoint>
          <Trackpoint>
            <Time>2019-10-05T15:20:07.000Z</Time>
            <Position>
              <LatitudeDegrees>41.52943585999310016632080078125</LatitudeDegrees>
              <LongitudeDegrees>-5.75931052677333354949951171875</LongitudeDegrees>
            </Position>
            <AltitudeMeters>609.4000244140625</AltitudeMeters>
            <DistanceMeters>NAN</DistanceMeters>
          </Trackpoint>
          <Trackpoint>
            <Time>2019-10-05T15:20:12.000Z</Time>
            <Position>
              <LatitudeDegrees>41.5290914475917816162109375</LatitudeDegrees>
              <LongitudeDegrees>-5.7591847144067287445068359375</LongitudeDegrees>
            </Position>
            <AltitudeMeters>607.79998779296875</AltitudeMeters>
            <DistanceMeters>NAN</DistanceMeters>
          </Trackpoint>
          <Trackpoint>
            <Time>2019-10-05T15:20:19.000Z</Time>
            <Position>
              <LatitudeDegrees>41.5286215580999851226806640625</LatitudeDegrees>
              <LongitudeDegrees>-5.75898916460573673248291015625</LongitudeDegrees>
            </Position>
            <AltitudeMeters>607</AltitudeMeters>
            <DistanceMeters>NAN</DistanceMeters>
          </Trackpoint>
          <Trackpoint>
            <Time>2019-10-05T15:20:20.000Z</Time>
            <Position>
              <LatitudeDegrees>41.52855525724589824676513671875</LatitudeDegrees>
              <LongitudeDegrees>-5.75896150432527065277099609375</LongitudeDegrees>
            </Position>
            <AltitudeMeters>606.79998779296875</AltitudeMeters>
            <DistanceMeters>NAN</DistanceMeters>
          </Trackpoint>
          <Trackpoint>
            <Time>2019-10-05T15:20:25.000Z</Time>
            <Position>
              <LatitudeDegrees>41.52822869829833507537841796875</LatitudeDegrees>
              <LongitudeDegrees>-5.75882169418036937713623046875</LongitudeDegrees>
            </Position>
            <AltitudeMeters>606</AltitudeMeters>
            <DistanceMeters>NAN</DistanceMeters>
          </Trackpoint>
          <Trackpoint>
            <Time>2019-10-05T15:20:28.000Z</Time>
            <Position>
              <LatitudeDegrees>41.5279818512499332427978515625</LatitudeDegrees>
              <LongitudeDegrees>-5.75872915796935558319091796875</LongitudeDegrees>
            </Position>
            <AltitudeMeters>605.79998779296875</AltitudeMeters>
            <DistanceMeters>NAN</DistanceMeters>
          </Trackpoint>
          <Trackpoint>
            <Time>2019-10-05T15:20:30.000Z</Time>
            <Position>
              <LatitudeDegrees>41.527904905378818511962890625</LatitudeDegrees>
              <LongitudeDegrees>-5.7587025873363018035888671875</LongitudeDegrees>
            </Position>
            <AltitudeMeters>606</AltitudeMeters>
            <DistanceMeters>NAN</DistanceMeters>
          </Trackpoint>
          <Trackpoint>
            <Time>2019-10-05T15:20:36.000Z</Time>
            <Position>
              <LatitudeDegrees>41.5275205112993717193603515625</LatitudeDegrees>
              <LongitudeDegrees>-5.758548192679882049560546875</LongitudeDegrees>
            </Position>
            <AltitudeMeters>604.5999755859375</AltitudeMeters>
            <DistanceMeters>NAN</DistanceMeters>
          </Trackpoint>
          <Trackpoint>
            <Time>2019-10-05T15:20:38.000Z</Time>
            <Position>
              <LatitudeDegrees>41.527394615113735198974609375</LatitudeDegrees>
              <LongitudeDegrees>-5.758494548499584197998046875</LongitudeDegrees>
            </Position>
            <AltitudeMeters>604.4000244140625</AltitudeMeters>
            <DistanceMeters>NAN</DistanceMeters>
          </Trackpoint>
          <Trackpoint>
            <Time>2019-10-05T15:20:44.000Z</Time>
            <Position>
              <LatitudeDegrees>41.527007035911083221435546875</LatitudeDegrees>
              <LongitudeDegrees>-5.758338309824466705322265625</LongitudeDegrees>
            </Position>
            <AltitudeMeters>603.4000244140625</AltitudeMeters>
            <DistanceMeters>NAN</DistanceMeters>
          </Trackpoint>
          <Trackpoint>
            <Time>2019-10-05T15:20:46.000Z</Time>
            <Position>
              <LatitudeDegrees>41.52688088826835155487060546875</LatitudeDegrees>
              <LongitudeDegrees>-5.7582888565957546234130859375</LongitudeDegrees>
            </Position>
            <AltitudeMeters>603.4000244140625</AltitudeMeters>
            <DistanceMeters>NAN</DistanceMeters>
          </Trackpoint>
          <Trackpoint>
            <Time>2019-10-05T15:20:54.000Z</Time>
            <Position>
              <LatitudeDegrees>41.526378057897090911865234375</LatitudeDegrees>
              <LongitudeDegrees>-5.7580860145390033721923828125</LongitudeDegrees>
            </Position>
            <AltitudeMeters>603.5999755859375</AltitudeMeters>
            <DistanceMeters>NAN</DistanceMeters>
          </Trackpoint>
          <Trackpoint>
            <Time>2019-10-05T15:20:55.000Z</Time>
            <Position>
              <LatitudeDegrees>41.526317037642002105712890625</LatitudeDegrees>
              <LongitudeDegrees>-5.75805776752531528472900390625</LongitudeDegrees>
            </Position>
            <AltitudeMeters>603.5999755859375</AltitudeMeters>
            <DistanceMeters>NAN</DistanceMeters>
          </Trackpoint>
          <Trackpoint>
            <Time>2019-10-05T15:21:03.000Z</Time>
            <Position>
              <LatitudeDegrees>41.5258246846497058868408203125</LatitudeDegrees>
              <LongitudeDegrees>-5.75786632485687732696533203125</LongitudeDegrees>
            </Position>
            <AltitudeMeters>603.4000244140625</AltitudeMeters>
            <DistanceMeters>NAN</DistanceMeters>
          </Trackpoint>
          <Trackpoint>
            <Time>2019-10-05T15:21:04.000Z</Time>
            <Position>
              <LatitudeDegrees>41.5257660113275051116943359375</LatitudeDegrees>
              <LongitudeDegrees>-5.757840760052204132080078125</LongitudeDegrees>
            </Position>
            <AltitudeMeters>603.4000244140625</AltitudeMeters>
            <DistanceMeters>NAN</DistanceMeters>
          </Trackpoint>
          <Trackpoint>
            <Time>2019-10-05T15:21:12.000Z</Time>
            <Position>
              <LatitudeDegrees>41.525292098522186279296875</LatitudeDegrees>
              <LongitudeDegrees>-5.757651664316654205322265625</LongitudeDegrees>
            </Position>
            <AltitudeMeters>603</AltitudeMeters>
            <DistanceMeters>NAN</DistanceMeters>
          </Trackpoint>
          <Trackpoint>
            <Time>2019-10-05T15:21:21.000Z</Time>
            <Position>
              <LatitudeDegrees>41.52475255541503429412841796875</LatitudeDegrees>
              <LongitudeDegrees>-5.75743834488093852996826171875</LongitudeDegrees>
            </Position>
            <AltitudeMeters>603</AltitudeMeters>
            <DistanceMeters>NAN</DistanceMeters>
          </Trackpoint>
          <Trackpoint>
            <Time>2019-10-05T15:21:23.000Z</Time>
            <Position>
              <LatitudeDegrees>41.5246300958096981048583984375</LatitudeDegrees>
              <LongitudeDegrees>-5.75739509426057338714599609375</LongitudeDegrees>
            </Position>
            <AltitudeMeters>602.79998779296875</AltitudeMeters>
            <DistanceMeters>NAN</DistanceMeters>
          </Trackpoint>
          <Trackpoint>
            <Time>2019-10-05T15:21:32.000Z</Time>
            <Position>
              <LatitudeDegrees>41.52405719272792339324951171875</LatitudeDegrees>
              <LongitudeDegrees>-5.757171548902988433837890625</LongitudeDegrees>
            </Position>
            <AltitudeMeters>603.4000244140625</AltitudeMeters>
            <DistanceMeters>NAN</DistanceMeters>
          </Trackpoint>
          <Trackpoint>
            <Time>2019-10-05T15:21:33.000Z</Time>
            <Position>
              <LatitudeDegrees>41.5240259282290935516357421875</LatitudeDegrees>
              <LongitudeDegrees>-5.75716073624789714813232421875</LongitudeDegrees>
            </Position>
            <AltitudeMeters>597.5999755859375</AltitudeMeters>
            <DistanceMeters>NAN</DistanceMeters>
          </Trackpoint>
          <Trackpoint>
            <Time>2019-10-05T15:21:34.000Z</Time>
            <Position>
              <LatitudeDegrees>41.52396532706916332244873046875</LatitudeDegrees>
              <LongitudeDegrees>-5.75713567435741424560546875</LongitudeDegrees>
            </Position>
            <AltitudeMeters>602.4000244140625</AltitudeMeters>
            <DistanceMeters>NAN</DistanceMeters>
          </Trackpoint>
          <Trackpoint>
            <Time>2019-10-05T15:21:42.000Z</Time>
            <Position>
              <LatitudeDegrees>41.5234831161797046661376953125</LatitudeDegrees>
              <LongitudeDegrees>-5.75693224556744098663330078125</LongitudeDegrees>
            </Position>
            <AltitudeMeters>602.20001220703125</AltitudeMeters>
            <DistanceMeters>NAN</DistanceMeters>
          </Trackpoint>
          <Trackpoint>
            <Time>2019-10-05T15:21:47.000Z</Time>
            <Position>
              <LatitudeDegrees>41.52318547479808330535888671875</LatitudeDegrees>
              <LongitudeDegrees>-5.7568106241524219512939453125</LongitudeDegrees>
            </Position>
            <AltitudeMeters>601.20001220703125</AltitudeMeters>
            <DistanceMeters>NAN</DistanceMeters>
          </Trackpoint>
          <Trackpoint>
            <Time>2019-10-05T15:21:52.000Z</Time>
            <Position>
              <LatitudeDegrees>41.522890515625476837158203125</LatitudeDegrees>
              <LongitudeDegrees>-5.75668280012905597686767578125</LongitudeDegrees>
            </Position>
            <AltitudeMeters>600.79998779296875</AltitudeMeters>
            <DistanceMeters>NAN</DistanceMeters>
          </Trackpoint>
          <Trackpoint>
            <Time>2019-10-05T15:21:58.000Z</Time>
            <Position>
              <LatitudeDegrees>41.52252204716205596923828125</LatitudeDegrees>
              <LongitudeDegrees>-5.75653963722288608551025390625</LongitudeDegrees>
            </Position>
            <AltitudeMeters>600.5999755859375</AltitudeMeters>
            <DistanceMeters>NAN</DistanceMeters>
          </Trackpoint>
          <Trackpoint>
            <Time>2019-10-05T15:22:04.000Z</Time>
            <Position>
              <LatitudeDegrees>41.52214528061449527740478515625</LatitudeDegrees>
              <LongitudeDegrees>-5.75640234164893627166748046875</LongitudeDegrees>
            </Position>
            <AltitudeMeters>599.79998779296875</AltitudeMeters>
            <DistanceMeters>NAN</DistanceMeters>
          </Trackpoint>
          <Trackpoint>
            <Time>2019-10-05T15:22:08.000Z</Time>
            <Position>
              <LatitudeDegrees>41.52189709246158599853515625</LatitudeDegrees>
              <LongitudeDegrees>-5.75630108825862407684326171875</LongitudeDegrees>
            </Position>
            <AltitudeMeters>599.4000244140625</AltitudeMeters>
            <DistanceMeters>NAN</DistanceMeters>
          </Trackpoint>
          <Trackpoint>
            <Time>2019-10-05T15:22:10.000Z</Time>
            <Position>
              <LatitudeDegrees>41.52177580632269382476806640625</LatitudeDegrees>
              <LongitudeDegrees>-5.756250210106372833251953125</LongitudeDegrees>
            </Position>
            <AltitudeMeters>599.4000244140625</AltitudeMeters>
            <DistanceMeters>NAN</DistanceMeters>
          </Trackpoint>
          <Trackpoint>
            <Time>2019-10-05T15:22:14.000Z</Time>
            <Position>
              <LatitudeDegrees>41.52153423987329006195068359375</LatitudeDegrees>
              <LongitudeDegrees>-5.75615289621055126190185546875</LongitudeDegrees>
            </Position>
            <AltitudeMeters>598.79998779296875</AltitudeMeters>
            <DistanceMeters>NAN</DistanceMeters>
          </Trackpoint>
          <Trackpoint>
            <Time>2019-10-05T15:22:19.000Z</Time>
            <Position>
              <LatitudeDegrees>41.52123651467263698577880859375</LatitudeDegrees>
              <LongitudeDegrees>-5.7560334540903568267822265625</LongitudeDegrees>
            </Position>
            <AltitudeMeters>598.5999755859375</AltitudeMeters>
            <DistanceMeters>NAN</DistanceMeters>
          </Trackpoint>
          <Trackpoint>
            <Time>2019-10-05T15:22:28.000Z</Time>
            <Position>
              <LatitudeDegrees>41.5207100473344326019287109375</LatitudeDegrees>
              <LongitudeDegrees>-5.75581326149404048919677734375</LongitudeDegrees>
            </Position>
            <AltitudeMeters>598</AltitudeMeters>
            <DistanceMeters>NAN</DistanceMeters>
          </Trackpoint>
          <Trackpoint>
            <Time>2019-10-05T15:22:29.000Z</Time>
            <Position>
              <LatitudeDegrees>41.520653553307056427001953125</LatitudeDegrees>
              <LongitudeDegrees>-5.7557890377938747406005859375</LongitudeDegrees>
            </Position>
            <AltitudeMeters>598</AltitudeMeters>
            <DistanceMeters>NAN</DistanceMeters>
          </Trackpoint>
          <Trackpoint>
            <Time>2019-10-05T15:22:31.000Z</Time>
            <Position>
              <LatitudeDegrees>41.520541571080684661865234375</LatitudeDegrees>
              <LongitudeDegrees>-5.75573530979454517364501953125</LongitudeDegrees>
            </Position>
            <AltitudeMeters>597.5999755859375</AltitudeMeters>
            <DistanceMeters>NAN</DistanceMeters>
          </Trackpoint>
          <Trackpoint>
            <Time>2019-10-05T15:22:36.000Z</Time>
            <Position>
              <LatitudeDegrees>41.520273685455322265625</LatitudeDegrees>
              <LongitudeDegrees>-5.755588710308074951171875</LongitudeDegrees>
            </Position>
            <AltitudeMeters>597.20001220703125</AltitudeMeters>
            <DistanceMeters>NAN</DistanceMeters>
          </Trackpoint>
          <Trackpoint>
            <Time>2019-10-05T15:22:41.000Z</Time>
            <Position>
              <LatitudeDegrees>41.51999230496585369110107421875</LatitudeDegrees>
              <LongitudeDegrees>-5.755454935133457183837890625</LongitudeDegrees>
            </Position>
            <AltitudeMeters>596.79998779296875</AltitudeMeters>
            <DistanceMeters>NAN</DistanceMeters>
          </Trackpoint>
          <Trackpoint>
            <Time>2019-10-05T15:22:42.000Z</Time>
            <Position>
              <LatitudeDegrees>41.51993430219590663909912109375</LatitudeDegrees>
              <LongitudeDegrees>-5.7554343156516551971435546875</LongitudeDegrees>
            </Position>
            <AltitudeMeters>596.4000244140625</AltitudeMeters>
            <DistanceMeters>NAN</DistanceMeters>
          </Trackpoint>
          <Trackpoint>
            <Time>2019-10-05T15:22:45.000Z</Time>
            <Position>
              <LatitudeDegrees>41.5197618864476680755615234375</LatitudeDegrees>
              <LongitudeDegrees>-5.7553960941731929779052734375</LongitudeDegrees>
            </Position>
            <AltitudeMeters>596</AltitudeMeters>
            <DistanceMeters>NAN</DistanceMeters>
          </Trackpoint>
          <Trackpoint>
            <Time>2019-10-05T15:22:47.000Z</Time>
            <Position>
              <LatitudeDegrees>41.5196473896503448486328125</LatitudeDegrees>
              <LongitudeDegrees>-5.7554014585912227630615234375</LongitudeDegrees>
            </Position>
            <AltitudeMeters>596.20001220703125</AltitudeMeters>
            <DistanceMeters>NAN</DistanceMeters>
          </Trackpoint>
          <Trackpoint>
            <Time>2019-10-05T15:22:50.000Z</Time>
            <Position>
              <LatitudeDegrees>41.51948100887238979339599609375</LatitudeDegrees>
              <LongitudeDegrees>-5.755462981760501861572265625</LongitudeDegrees>
            </Position>
            <AltitudeMeters>596.4000244140625</AltitudeMeters>
            <DistanceMeters>NAN</DistanceMeters>
          </Trackpoint>
          <Trackpoint>
            <Time>2019-10-05T15:22:54.000Z</Time>
            <Position>
              <LatitudeDegrees>41.51925117708742618560791015625</LatitudeDegrees>
              <LongitudeDegrees>-5.75544764287769794464111328125</LongitudeDegrees>
            </Position>
            <AltitudeMeters>596</AltitudeMeters>
            <DistanceMeters>NAN</DistanceMeters>
          </Trackpoint>
          <Trackpoint>
            <Time>2019-10-05T15:22:56.000Z</Time>
            <Position>
              <LatitudeDegrees>41.5191543661057949066162109375</LatitudeDegrees>
              <LongitudeDegrees>-5.75534689240157604217529296875</LongitudeDegrees>
            </Position>
            <AltitudeMeters>595</AltitudeMeters>
            <DistanceMeters>NAN</DistanceMeters>
          </Trackpoint>
          <Trackpoint>
            <Time>2019-10-05T15:22:57.000Z</Time>
            <Position>
              <LatitudeDegrees>41.51912008412182331085205078125</LatitudeDegrees>
              <LongitudeDegrees>-5.75527849607169628143310546875</LongitudeDegrees>
            </Position>
            <AltitudeMeters>595.5999755859375</AltitudeMeters>
            <DistanceMeters>NAN</DistanceMeters>
          </Trackpoint>
          <Trackpoint>
            <Time>2019-10-05T15:22:59.000Z</Time>
            <Position>
              <LatitudeDegrees>41.51905386708676815032958984375</LatitudeDegrees>
              <LongitudeDegrees>-5.75513541698455810546875</LongitudeDegrees>
            </Position>
            <AltitudeMeters>596.4000244140625</AltitudeMeters>
            <DistanceMeters>NAN</DistanceMeters>
          </Trackpoint>
          <Trackpoint>
            <Time>2019-10-05T15:23:00.000Z</Time>
            <Position>
              <LatitudeDegrees>41.51901447214186191558837890625</LatitudeDegrees>
              <LongitudeDegrees>-5.75506676919758319854736328125</LongitudeDegrees>
            </Position>
            <AltitudeMeters>595.79998779296875</AltitudeMeters>
            <DistanceMeters>NAN</DistanceMeters>
          </Trackpoint>
          <Trackpoint>
            <Time>2019-10-05T15:23:01.000Z</Time>
            <Position>
              <LatitudeDegrees>41.5189679525792598724365234375</LatitudeDegrees>
              <LongitudeDegrees>-5.7550053298473358154296875</LongitudeDegrees>
            </Position>
            <AltitudeMeters>595.20001220703125</AltitudeMeters>
            <DistanceMeters>NAN</DistanceMeters>
          </Trackpoint>
          <Trackpoint>
            <Time>2019-10-05T15:23:04.000Z</Time>
            <Position>
              <LatitudeDegrees>41.51879168115556240081787109375</LatitudeDegrees>
              <LongitudeDegrees>-5.7548888213932514190673828125</LongitudeDegrees>
            </Position>
            <AltitudeMeters>595.20001220703125</AltitudeMeters>
            <DistanceMeters>NAN</DistanceMeters>
          </Trackpoint>
          <Trackpoint>
            <Time>2019-10-05T15:23:05.000Z</Time>
            <Position>
              <LatitudeDegrees>41.51872806251049041748046875</LatitudeDegrees>
              <LongitudeDegrees>-5.7548618316650390625</LongitudeDegrees>
            </Position>
            <AltitudeMeters>595.20001220703125</AltitudeMeters>
            <DistanceMeters>NAN</DistanceMeters>
          </Trackpoint>
          <Trackpoint>
            <Time>2019-10-05T15:23:09.000Z</Time>
            <Position>
              <LatitudeDegrees>41.51847149245440959930419921875</LatitudeDegrees>
              <LongitudeDegrees>-5.754756219685077667236328125</LongitudeDegrees>
            </Position>
            <AltitudeMeters>594</AltitudeMeters>
            <DistanceMeters>NAN</DistanceMeters>
          </Trackpoint>
          <Trackpoint>
            <Time>2019-10-05T15:23:12.000Z</Time>
            <Position>
              <LatitudeDegrees>41.51828440837562084197998046875</LatitudeDegrees>
              <LongitudeDegrees>-5.75468371622264385223388671875</LongitudeDegrees>
            </Position>
            <AltitudeMeters>593.79998779296875</AltitudeMeters>
            <DistanceMeters>NAN</DistanceMeters>
          </Trackpoint>
          <Trackpoint>
            <Time>2019-10-05T15:23:20.000Z</Time>
            <Position>
              <LatitudeDegrees>41.51780379004776477813720703125</LatitudeDegrees>
              <LongitudeDegrees>-5.75446746312081813812255859375</LongitudeDegrees>
            </Position>
            <AltitudeMeters>594.20001220703125</AltitudeMeters>
            <DistanceMeters>NAN</DistanceMeters>
          </Trackpoint>
          <Trackpoint>
            <Time>2019-10-05T15:23:23.000Z</Time>
            <Position>
              <LatitudeDegrees>41.5176241658627986907958984375</LatitudeDegrees>
              <LongitudeDegrees>-5.75439588166773319244384765625</LongitudeDegrees>
            </Position>
            <AltitudeMeters>593.4000244140625</AltitudeMeters>
            <DistanceMeters>NAN</DistanceMeters>
          </Trackpoint>
          <Trackpoint>
            <Time>2019-10-05T15:23:25.000Z</Time>
            <Position>
              <LatitudeDegrees>41.517504639923572540283203125</LatitudeDegrees>
              <LongitudeDegrees>-5.7543468475341796875</LongitudeDegrees>
            </Position>
            <AltitudeMeters>593</AltitudeMeters>
            <DistanceMeters>NAN</DistanceMeters>
          </Trackpoint>
          <Trackpoint>
            <Time>2019-10-05T15:23:26.000Z</Time>
            <Position>
              <LatitudeDegrees>41.5174454636871814727783203125</LatitudeDegrees>
              <LongitudeDegrees>-5.75432463549077510833740234375</LongitudeDegrees>
            </Position>
            <AltitudeMeters>591.79998779296875</AltitudeMeters>
            <DistanceMeters>NAN</DistanceMeters>
          </Trackpoint>
          <Trackpoint>
            <Time>2019-10-05T15:23:28.000Z</Time>
            <Position>
              <LatitudeDegrees>41.51732769794762134552001953125</LatitudeDegrees>
              <LongitudeDegrees>-5.75427803210914134979248046875</LongitudeDegrees>
            </Position>
            <AltitudeMeters>592.4000244140625</AltitudeMeters>
            <DistanceMeters>NAN</DistanceMeters>
          </Trackpoint>
          <Trackpoint>
            <Time>2019-10-05T15:23:37.000Z</Time>
            <Position>
              <LatitudeDegrees>41.5167962014675140380859375</LatitudeDegrees>
              <LongitudeDegrees>-5.75406312011182308197021484375</LongitudeDegrees>
            </Position>
            <AltitudeMeters>591.79998779296875</AltitudeMeters>
            <DistanceMeters>NAN</DistanceMeters>
          </Trackpoint>
          <Trackpoint>
            <Time>2019-10-05T15:23:38.000Z</Time>
            <Position>
              <LatitudeDegrees>41.5167363546788692474365234375</LatitudeDegrees>
              <LongitudeDegrees>-5.75403931550681591033935546875</LongitudeDegrees>
            </Position>
            <AltitudeMeters>591.79998779296875</AltitudeMeters>
            <DistanceMeters>NAN</DistanceMeters>
          </Trackpoint>
          <Trackpoint>
            <Time>2019-10-05T15:23:47.000Z</Time>
            <Position>
              <LatitudeDegrees>41.5162079595029354095458984375</LatitudeDegrees>
              <LongitudeDegrees>-5.75382323004305362701416015625</LongitudeDegrees>
            </Position>
            <AltitudeMeters>590.79998779296875</AltitudeMeters>
            <DistanceMeters>NAN</DistanceMeters>
          </Trackpoint>
          <Trackpoint>
            <Time>2019-10-05T15:23:48.000Z</Time>
            <Position>
              <LatitudeDegrees>41.5161502920091152191162109375</LatitudeDegrees>
              <LongitudeDegrees>-5.75379489921033382415771484375</LongitudeDegrees>
            </Position>
            <AltitudeMeters>590.79998779296875</AltitudeMeters>
            <DistanceMeters>NAN</DistanceMeters>
          </Trackpoint>
          <Trackpoint>
            <Time>2019-10-05T15:23:53.000Z</Time>
            <Position>
              <LatitudeDegrees>41.51586103253066539764404296875</LatitudeDegrees>
              <LongitudeDegrees>-5.75367855839431285858154296875</LongitudeDegrees>
            </Position>
            <AltitudeMeters>590.5999755859375</AltitudeMeters>
            <DistanceMeters>NAN</DistanceMeters>
          </Trackpoint>
          <Trackpoint>
            <Time>2019-10-05T15:23:56.000Z</Time>
            <Position>
              <LatitudeDegrees>41.51569356210529804229736328125</LatitudeDegrees>
              <LongitudeDegrees>-5.7536167837679386138916015625</LongitudeDegrees>
            </Position>
            <AltitudeMeters>590.79998779296875</AltitudeMeters>
            <DistanceMeters>NAN</DistanceMeters>
          </Trackpoint>
          <Trackpoint>
            <Time>2019-10-05T15:24:02.000Z</Time>
            <Position>
              <LatitudeDegrees>41.515374295413494110107421875</LatitudeDegrees>
              <LongitudeDegrees>-5.7534980960190296173095703125</LongitudeDegrees>
            </Position>
            <AltitudeMeters>590.20001220703125</AltitudeMeters>
            <DistanceMeters>NAN</DistanceMeters>
          </Trackpoint>
          <Trackpoint>
            <Time>2019-10-05T15:24:04.000Z</Time>
            <Position>
              <LatitudeDegrees>41.51526876725256443023681640625</LatitudeDegrees>
              <LongitudeDegrees>-5.7534588687121868133544921875</LongitudeDegrees>
            </Position>
            <AltitudeMeters>589.5999755859375</AltitudeMeters>
            <DistanceMeters>NAN</DistanceMeters>
          </Trackpoint>
          <Trackpoint>
            <Time>2019-10-05T15:24:08.000Z</Time>
            <Position>
              <LatitudeDegrees>41.5150589682161808013916015625</LatitudeDegrees>
              <LongitudeDegrees>-5.7533740438520908355712890625</LongitudeDegrees>
            </Position>
            <AltitudeMeters>589.79998779296875</AltitudeMeters>
            <DistanceMeters>NAN</DistanceMeters>
          </Trackpoint>
          <Trackpoint>
            <Time>2019-10-05T15:24:17.000Z</Time>
            <Position>
              <LatitudeDegrees>41.514568626880645751953125</LatitudeDegrees>
              <LongitudeDegrees>-5.753168351948261260986328125</LongitudeDegrees>
            </Position>
            <AltitudeMeters>589</AltitudeMeters>
            <DistanceMeters>NAN</DistanceMeters>
          </Trackpoint>
          <Trackpoint>
            <Time>2019-10-05T15:24:22.000Z</Time>
            <Position>
              <LatitudeDegrees>41.5143042616546154022216796875</LatitudeDegrees>
              <LongitudeDegrees>-5.75306818820536136627197265625</LongitudeDegrees>
            </Position>
            <AltitudeMeters>589</AltitudeMeters>
            <DistanceMeters>NAN</DistanceMeters>
          </Trackpoint>
          <Trackpoint>
            <Time>2019-10-05T15:24:25.000Z</Time>
            <Position>
              <LatitudeDegrees>41.51416788809001445770263671875</LatitudeDegrees>
              <LongitudeDegrees>-5.75301110744476318359375</LongitudeDegrees>
            </Position>
            <AltitudeMeters>589.5999755859375</AltitudeMeters>
            <DistanceMeters>NAN</DistanceMeters>
          </Trackpoint>
          <Trackpoint>
            <Time>2019-10-05T15:24:28.000Z</Time>
            <Position>
              <LatitudeDegrees>41.514121033251285552978515625</LatitudeDegrees>
              <LongitudeDegrees>-5.75298093259334564208984375</LongitudeDegrees>
            </Position>
            <AltitudeMeters>590.20001220703125</AltitudeMeters>
            <DistanceMeters>NAN</DistanceMeters>
          </Trackpoint>
          <Trackpoint>
            <Time>2019-10-05T15:24:29.000Z</Time>
            <Position>
              <LatitudeDegrees>41.51411340571939945220947265625</LatitudeDegrees>
              <LongitudeDegrees>-5.752984620630741119384765625</LongitudeDegrees>
            </Position>
            <AltitudeMeters>590</AltitudeMeters>
            <DistanceMeters>NAN</DistanceMeters>
          </Trackpoint>
          <Trackpoint>
            <Time>2019-10-05T15:24:32.000Z</Time>
            <Position>
              <LatitudeDegrees>41.51410720311105251312255859375</LatitudeDegrees>
              <LongitudeDegrees>-5.7529784180223941802978515625</LongitudeDegrees>
            </Position>
            <AltitudeMeters>590</AltitudeMeters>
            <DistanceMeters>NAN</DistanceMeters>
          </Trackpoint>
          <Trackpoint>
            <Time>2019-10-05T15:24:38.000Z</Time>
            <Position>
              <LatitudeDegrees>41.5141118131577968597412109375</LatitudeDegrees>
              <LongitudeDegrees>-5.75298353098332881927490234375</LongitudeDegrees>
            </Position>
            <AltitudeMeters>590.20001220703125</AltitudeMeters>
            <DistanceMeters>NAN</DistanceMeters>
          </Trackpoint>
          <Trackpoint>
            <Time>2019-10-05T15:24:45.000Z</Time>
            <Position>
              <LatitudeDegrees>41.5141118131577968597412109375</LatitudeDegrees>
              <LongitudeDegrees>-5.75298353098332881927490234375</LongitudeDegrees>
            </Position>
            <AltitudeMeters>590.20001220703125</AltitudeMeters>
            <DistanceMeters>NAN</DistanceMeters>
          </Trackpoint>
          <Trackpoint>
            <Time>2019-10-05T15:24:48.000Z</Time>
            <Position>
              <LatitudeDegrees>41.5141118131577968597412109375</LatitudeDegrees>
              <LongitudeDegrees>-5.75298353098332881927490234375</LongitudeDegrees>
            </Position>
            <AltitudeMeters>590.4000244140625</AltitudeMeters>
            <DistanceMeters>NAN</DistanceMeters>
          </Trackpoint>
          <Trackpoint>
            <Time>2019-10-05T15:24:52.000Z</Time>
            <Position>
              <LatitudeDegrees>41.5141118131577968597412109375</LatitudeDegrees>
              <LongitudeDegrees>-5.75298353098332881927490234375</LongitudeDegrees>
            </Position>
            <AltitudeMeters>590.20001220703125</AltitudeMeters>
            <DistanceMeters>NAN</DistanceMeters>
          </Trackpoint>
          <Trackpoint>
            <Time>2019-10-05T15:24:59.000Z</Time>
            <Position>
              <LatitudeDegrees>41.5141118131577968597412109375</LatitudeDegrees>
              <LongitudeDegrees>-5.75298353098332881927490234375</LongitudeDegrees>
            </Position>
            <AltitudeMeters>590.4000244140625</AltitudeMeters>
            <DistanceMeters>NAN</DistanceMeters>
          </Trackpoint>
          <Trackpoint>
            <Time>2019-10-05T15:25:07.000Z</Time>
            <Position>
              <LatitudeDegrees>41.5141118131577968597412109375</LatitudeDegrees>
              <LongitudeDegrees>-5.75298353098332881927490234375</LongitudeDegrees>
            </Position>
            <AltitudeMeters>590</AltitudeMeters>
            <DistanceMeters>NAN</DistanceMeters>
          </Trackpoint>
          <Trackpoint>
            <Time>2019-10-05T15:25:12.000Z</Time>
            <Position>
              <LatitudeDegrees>41.51400603353977203369140625</LatitudeDegrees>
              <LongitudeDegrees>-5.75292192399501800537109375</LongitudeDegrees>
            </Position>
            <AltitudeMeters>590</AltitudeMeters>
            <DistanceMeters>NAN</DistanceMeters>
          </Trackpoint>
          <Trackpoint>
            <Time>2019-10-05T15:25:16.000Z</Time>
            <Position>
              <LatitudeDegrees>41.5138251520693302154541015625</LatitudeDegrees>
              <LongitudeDegrees>-5.75285461731255054473876953125</LongitudeDegrees>
            </Position>
            <AltitudeMeters>589.4000244140625</AltitudeMeters>
            <DistanceMeters>NAN</DistanceMeters>
          </Trackpoint>
          <Trackpoint>
            <Time>2019-10-05T15:25:17.000Z</Time>
            <Position>
              <LatitudeDegrees>41.51378332637250423431396484375</LatitudeDegrees>
              <LongitudeDegrees>-5.752839110791683197021484375</LongitudeDegrees>
            </Position>
            <AltitudeMeters>589.4000244140625</AltitudeMeters>
            <DistanceMeters>NAN</DistanceMeters>
          </Trackpoint>
          <Trackpoint>
            <Time>2019-10-05T15:25:28.000Z</Time>
            <Position>
              <LatitudeDegrees>41.51332743465900421142578125</LatitudeDegrees>
              <LongitudeDegrees>-5.75265797786414623260498046875</LongitudeDegrees>
            </Position>
            <AltitudeMeters>589.20001220703125</AltitudeMeters>
            <DistanceMeters>NAN</DistanceMeters>
          </Trackpoint>
          <Trackpoint>
            <Time>2019-10-05T15:25:37.000Z</Time>
            <Position>
              <LatitudeDegrees>41.51293373666703701019287109375</LatitudeDegrees>
              <LongitudeDegrees>-5.7525023259222507476806640625</LongitudeDegrees>
            </Position>
            <AltitudeMeters>588.4000244140625</AltitudeMeters>
            <DistanceMeters>NAN</DistanceMeters>
          </Trackpoint>
          <Trackpoint>
            <Time>2019-10-05T15:25:38.000Z</Time>
            <Position>
              <LatitudeDegrees>41.51288931258022785186767578125</LatitudeDegrees>
              <LongitudeDegrees>-5.752483047544956207275390625</LongitudeDegrees>
            </Position>
            <AltitudeMeters>588.4000244140625</AltitudeMeters>
            <DistanceMeters>NAN</DistanceMeters>
          </Trackpoint>
          <Trackpoint>
            <Time>2019-10-05T15:25:47.000Z</Time>
            <Position>
              <LatitudeDegrees>41.51249653659760951995849609375</LatitudeDegrees>
              <LongitudeDegrees>-5.7523132301867008209228515625</LongitudeDegrees>
            </Position>
            <AltitudeMeters>588.4000244140625</AltitudeMeters>
            <DistanceMeters>NAN</DistanceMeters>
          </Trackpoint>
          <Trackpoint>
            <Time>2019-10-05T15:25:48.000Z</Time>
            <Position>
              <LatitudeDegrees>41.5124538727104663848876953125</LatitudeDegrees>
              <LongitudeDegrees>-5.7522968016564846038818359375</LongitudeDegrees>
            </Position>
            <AltitudeMeters>588.5999755859375</AltitudeMeters>
            <DistanceMeters>NAN</DistanceMeters>
          </Trackpoint>
          <Trackpoint>
            <Time>2019-10-05T15:25:54.000Z</Time>
            <Position>
              <LatitudeDegrees>41.51213728822767734527587890625</LatitudeDegrees>
              <LongitudeDegrees>-5.75218406505882740020751953125</LongitudeDegrees>
            </Position>
            <AltitudeMeters>588.20001220703125</AltitudeMeters>
            <DistanceMeters>NAN</DistanceMeters>
          </Trackpoint>
          <Trackpoint>
            <Time>2019-10-05T15:26:00.000Z</Time>
            <Position>
              <LatitudeDegrees>41.5118067897856235504150390625</LatitudeDegrees>
              <LongitudeDegrees>-5.752059929072856903076171875</LongitudeDegrees>
            </Position>
            <AltitudeMeters>588.20001220703125</AltitudeMeters>
            <DistanceMeters>NAN</DistanceMeters>
          </Trackpoint>
          <Trackpoint>
            <Time>2019-10-05T15:26:01.000Z</Time>
            <Position>
              <LatitudeDegrees>41.51175071485340595245361328125</LatitudeDegrees>
              <LongitudeDegrees>-5.7520409859716892242431640625</LongitudeDegrees>
            </Position>
            <AltitudeMeters>587.79998779296875</AltitudeMeters>
            <DistanceMeters>NAN</DistanceMeters>
          </Trackpoint>
          <Trackpoint>
            <Time>2019-10-05T15:26:02.000Z</Time>
            <Position>
              <LatitudeDegrees>41.51169505901634693145751953125</LatitudeDegrees>
              <LongitudeDegrees>-5.75202615000307559967041015625</LongitudeDegrees>
            </Position>
            <AltitudeMeters>587.4000244140625</AltitudeMeters>
            <DistanceMeters>NAN</DistanceMeters>
          </Trackpoint>
          <Trackpoint>
            <Time>2019-10-05T15:26:03.000Z</Time>
            <Position>
              <LatitudeDegrees>41.5116364695131778717041015625</LatitudeDegrees>
              <LongitudeDegrees>-5.7520081289112567901611328125</LongitudeDegrees>
            </Position>
            <AltitudeMeters>587.20001220703125</AltitudeMeters>
            <DistanceMeters>NAN</DistanceMeters>
          </Trackpoint>
          <Trackpoint>
            <Time>2019-10-05T15:26:07.000Z</Time>
            <Position>
              <LatitudeDegrees>41.511403955519199371337890625</LatitudeDegrees>
              <LongitudeDegrees>-5.75193378143012523651123046875</LongitudeDegrees>
            </Position>
            <AltitudeMeters>586</AltitudeMeters>
            <DistanceMeters>NAN</DistanceMeters>
          </Trackpoint>
          <Trackpoint>
            <Time>2019-10-05T15:26:10.000Z</Time>
            <Position>
              <LatitudeDegrees>41.51123799383640289306640625</LatitudeDegrees>
              <LongitudeDegrees>-5.7518830709159374237060546875</LongitudeDegrees>
            </Position>
            <AltitudeMeters>585.20001220703125</AltitudeMeters>
            <DistanceMeters>NAN</DistanceMeters>
          </Trackpoint>
          <Trackpoint>
            <Time>2019-10-05T15:26:14.000Z</Time>
            <Position>
              <LatitudeDegrees>41.511059291660785675048828125</LatitudeDegrees>
              <LongitudeDegrees>-5.7518207095563411712646484375</LongitudeDegrees>
            </Position>
            <AltitudeMeters>585.79998779296875</AltitudeMeters>
            <DistanceMeters>NAN</DistanceMeters>
          </Trackpoint>
          <Trackpoint>
            <Time>2019-10-05T15:26:15.000Z</Time>
            <Position>
              <LatitudeDegrees>41.51105434633791446685791015625</LatitudeDegrees>
              <LongitudeDegrees>-5.7517895288765430450439453125</LongitudeDegrees>
            </Position>
            <AltitudeMeters>586.4000244140625</AltitudeMeters>
            <DistanceMeters>NAN</DistanceMeters>
          </Trackpoint>
          <Trackpoint>
            <Time>2019-10-05T15:26:17.000Z</Time>
            <Position>
              <LatitudeDegrees>41.5110869519412517547607421875</LatitudeDegrees>
              <LongitudeDegrees>-5.75177938677370548248291015625</LongitudeDegrees>
            </Position>
            <AltitudeMeters>586.79998779296875</AltitudeMeters>
            <DistanceMeters>NAN</DistanceMeters>
          </Trackpoint>
          <Trackpoint>
            <Time>2019-10-05T15:26:18.000Z</Time>
            <Position>
              <LatitudeDegrees>41.5111074037849903106689453125</LatitudeDegrees>
              <LongitudeDegrees>-5.751791037619113922119140625</LongitudeDegrees>
            </Position>
            <AltitudeMeters>586.5999755859375</AltitudeMeters>
            <DistanceMeters>NAN</DistanceMeters>
          </Trackpoint>
          <Trackpoint>
            <Time>2019-10-05T15:26:20.000Z</Time>
            <Position>
              <LatitudeDegrees>41.5111486427485942840576171875</LatitudeDegrees>
              <LongitudeDegrees>-5.75181190855801105499267578125</LongitudeDegrees>
            </Position>
            <AltitudeMeters>586.79998779296875</AltitudeMeters>
            <DistanceMeters>NAN</DistanceMeters>
          </Trackpoint>
          <Trackpoint>
            <Time>2019-10-05T15:26:24.000Z</Time>
            <Position>
              <LatitudeDegrees>41.511262468993663787841796875</LatitudeDegrees>
              <LongitudeDegrees>-5.75186421163380146026611328125</LongitudeDegrees>
            </Position>
            <AltitudeMeters>587.20001220703125</AltitudeMeters>
            <DistanceMeters>NAN</DistanceMeters>
          </Trackpoint>
          <Trackpoint>
            <Time>2019-10-05T15:26:25.000Z</Time>
            <Position>
              <LatitudeDegrees>41.511295326054096221923828125</LatitudeDegrees>
              <LongitudeDegrees>-5.7518780417740345001220703125</LongitudeDegrees>
            </Position>
            <AltitudeMeters>587.20001220703125</AltitudeMeters>
            <DistanceMeters>NAN</DistanceMeters>
          </Trackpoint>
          <Trackpoint>
            <Time>2019-10-05T15:26:33.000Z</Time>
            <Position>
              <LatitudeDegrees>41.5115667320787906646728515625</LatitudeDegrees>
              <LongitudeDegrees>-5.75196026824414730072021484375</LongitudeDegrees>
            </Position>
            <AltitudeMeters>587.20001220703125</AltitudeMeters>
            <DistanceMeters>NAN</DistanceMeters>
          </Trackpoint>
          <Trackpoint>
            <Time>2019-10-05T15:26:34.000Z</Time>
            <Position>
              <LatitudeDegrees>41.511601768434047698974609375</LatitudeDegrees>
              <LongitudeDegrees>-5.75196429155766963958740234375</LongitudeDegrees>
            </Position>
            <AltitudeMeters>587.4000244140625</AltitudeMeters>
            <DistanceMeters>NAN</DistanceMeters>
          </Trackpoint>
          <Trackpoint>
            <Time>2019-10-05T15:26:40.000Z</Time>
            <Position>
              <LatitudeDegrees>41.51180955581367015838623046875</LatitudeDegrees>
              <LongitudeDegrees>-5.75202782638370990753173828125</LongitudeDegrees>
            </Position>
            <AltitudeMeters>587.20001220703125</AltitudeMeters>
            <DistanceMeters>NAN</DistanceMeters>
          </Trackpoint>
          <Trackpoint>
            <Time>2019-10-05T15:26:43.000Z</Time>
            <Position>
              <LatitudeDegrees>41.51191064156591892242431640625</LatitudeDegrees>
              <LongitudeDegrees>-5.7520557381212711334228515625</LongitudeDegrees>
            </Position>
            <AltitudeMeters>587.5999755859375</AltitudeMeters>
            <DistanceMeters>NAN</DistanceMeters>
          </Trackpoint>
          <Trackpoint>
            <Time>2019-10-05T15:26:47.000Z</Time>
            <Position>
              <LatitudeDegrees>41.51205464266240596771240234375</LatitudeDegrees>
              <LongitudeDegrees>-5.752067975699901580810546875</LongitudeDegrees>
            </Position>
            <AltitudeMeters>587.5999755859375</AltitudeMeters>
            <DistanceMeters>NAN</DistanceMeters>
          </Trackpoint>
          <Trackpoint>
            <Time>2019-10-05T15:26:49.000Z</Time>
            <Position>
              <LatitudeDegrees>41.5121246315538883209228515625</LatitudeDegrees>
              <LongitudeDegrees>-5.75204626657068729400634765625</LongitudeDegrees>
            </Position>
            <AltitudeMeters>588.5999755859375</AltitudeMeters>
            <DistanceMeters>NAN</DistanceMeters>
          </Trackpoint>
          <Trackpoint>
            <Time>2019-10-05T15:26:50.000Z</Time>
            <Position>
              <LatitudeDegrees>41.51215757243335247039794921875</LatitudeDegrees>
              <LongitudeDegrees>-5.7520232163369655609130859375</LongitudeDegrees>
            </Position>
            <AltitudeMeters>588.5999755859375</AltitudeMeters>
            <DistanceMeters>NAN</DistanceMeters>
          </Trackpoint>
          <Trackpoint>
            <Time>2019-10-05T15:26:55.000Z</Time>
            <Position>
              <LatitudeDegrees>41.512282378971576690673828125</LatitudeDegrees>
              <LongitudeDegrees>-5.751876533031463623046875</LongitudeDegrees>
            </Position>
            <AltitudeMeters>589</AltitudeMeters>
            <DistanceMeters>NAN</DistanceMeters>
          </Trackpoint>
          <Trackpoint>
            <Time>2019-10-05T15:27:01.000Z</Time>
            <Position>
              <LatitudeDegrees>41.51239134371280670166015625</LatitudeDegrees>
              <LongitudeDegrees>-5.75169422663748264312744140625</LongitudeDegrees>
            </Position>
            <AltitudeMeters>588.5999755859375</AltitudeMeters>
            <DistanceMeters>NAN</DistanceMeters>
          </Trackpoint>
          <Trackpoint>
            <Time>2019-10-05T15:27:10.000Z</Time>
            <Position>
              <LatitudeDegrees>41.5125497616827487945556640625</LatitudeDegrees>
              <LongitudeDegrees>-5.75139365158975124359130859375</LongitudeDegrees>
            </Position>
            <AltitudeMeters>588.4000244140625</AltitudeMeters>
            <DistanceMeters>NAN</DistanceMeters>
          </Trackpoint>
          <Trackpoint>
            <Time>2019-10-05T15:27:13.000Z</Time>
            <Position>
              <LatitudeDegrees>41.5125985443592071533203125</LatitudeDegrees>
              <LongitudeDegrees>-5.7513414323329925537109375</LongitudeDegrees>
            </Position>
            <AltitudeMeters>588.4000244140625</AltitudeMeters>
            <DistanceMeters>NAN</DistanceMeters>
          </Trackpoint>
          <Trackpoint>
            <Time>2019-10-05T15:27:19.000Z</Time>
            <Position>
              <LatitudeDegrees>41.512714885175228118896484375</LatitudeDegrees>
              <LongitudeDegrees>-5.7511722855269908905029296875</LongitudeDegrees>
            </Position>
            <AltitudeMeters>588.20001220703125</AltitudeMeters>
            <DistanceMeters>NAN</DistanceMeters>
          </Trackpoint>
          <Trackpoint>
            <Time>2019-10-05T15:27:24.000Z</Time>
            <Position>
              <LatitudeDegrees>41.51281940750777721405029296875</LatitudeDegrees>
              <LongitudeDegrees>-5.7510624825954437255859375</LongitudeDegrees>
            </Position>
            <AltitudeMeters>588.4000244140625</AltitudeMeters>
            <DistanceMeters>NAN</DistanceMeters>
          </Trackpoint>
          <Trackpoint>
            <Time>2019-10-05T15:27:26.000Z</Time>
            <Position>
              <LatitudeDegrees>41.512865088880062103271484375</LatitudeDegrees>
              <LongitudeDegrees>-5.75102694332599639892578125</LongitudeDegrees>
            </Position>
            <AltitudeMeters>588.4000244140625</AltitudeMeters>
            <DistanceMeters>NAN</DistanceMeters>
          </Trackpoint>
          <Trackpoint>
            <Time>2019-10-05T15:27:33.000Z</Time>
            <Position>
              <LatitudeDegrees>41.51299123652279376983642578125</LatitudeDegrees>
              <LongitudeDegrees>-5.75093080289661884307861328125</LongitudeDegrees>
            </Position>
            <AltitudeMeters>588.5999755859375</AltitudeMeters>
            <DistanceMeters>NAN</DistanceMeters>
          </Trackpoint>
          <Trackpoint>
            <Time>2019-10-05T15:27:36.000Z</Time>
            <Position>
              <LatitudeDegrees>41.5130411088466644287109375</LatitudeDegrees>
              <LongitudeDegrees>-5.75089124031364917755126953125</LongitudeDegrees>
            </Position>
            <AltitudeMeters>588.5999755859375</AltitudeMeters>
            <DistanceMeters>NAN</DistanceMeters>
          </Trackpoint>
          <Trackpoint>
            <Time>2019-10-05T15:27:38.000Z</Time>
            <Position>
              <LatitudeDegrees>41.513057537376880645751953125</LatitudeDegrees>
              <LongitudeDegrees>-5.7508718781173229217529296875</LongitudeDegrees>
            </Position>
            <AltitudeMeters>588.4000244140625</AltitudeMeters>
            <DistanceMeters>NAN</DistanceMeters>
          </Trackpoint>
          <Trackpoint>
            <Time>2019-10-05T15:27:54.000Z</Time>
            <Position>
              <LatitudeDegrees>41.513062901794910430908203125</LatitudeDegrees>
              <LongitudeDegrees>-5.75086693279445171356201171875</LongitudeDegrees>
            </Position>
            <AltitudeMeters>588.79998779296875</AltitudeMeters>
            <DistanceMeters>NAN</DistanceMeters>
          </Trackpoint>
          <Trackpoint>
            <Time>2019-10-05T15:28:00.000Z</Time>
            <Position>
              <LatitudeDegrees>41.513062901794910430908203125</LatitudeDegrees>
              <LongitudeDegrees>-5.75086693279445171356201171875</LongitudeDegrees>
            </Position>
            <AltitudeMeters>588.79998779296875</AltitudeMeters>
            <DistanceMeters>NAN</DistanceMeters>
          </Trackpoint>
          <Trackpoint>
            <Time>2019-10-05T15:28:08.000Z</Time>
            <Position>
              <LatitudeDegrees>41.513062901794910430908203125</LatitudeDegrees>
              <LongitudeDegrees>-5.75086693279445171356201171875</LongitudeDegrees>
            </Position>
            <AltitudeMeters>588.79998779296875</AltitudeMeters>
            <DistanceMeters>NAN</DistanceMeters>
          </Trackpoint>
          <Trackpoint>
            <Time>2019-10-05T15:28:20.000Z</Time>
            <Position>
              <LatitudeDegrees>41.513062231242656707763671875</LatitudeDegrees>
              <LongitudeDegrees>-5.75086760334670543670654296875</LongitudeDegrees>
            </Position>
            <AltitudeMeters>588.79998779296875</AltitudeMeters>
            <DistanceMeters>NAN</DistanceMeters>
          </Trackpoint>
          <Trackpoint>
            <Time>2019-10-05T15:28:24.000Z</Time>
            <Position>
              <LatitudeDegrees>41.513062231242656707763671875</LatitudeDegrees>
              <LongitudeDegrees>-5.75086760334670543670654296875</LongitudeDegrees>
            </Position>
            <AltitudeMeters>588.79998779296875</AltitudeMeters>
            <DistanceMeters>NAN</DistanceMeters>
          </Trackpoint>
          <Trackpoint>
            <Time>2019-10-05T15:28:27.000Z</Time>
            <Position>
              <LatitudeDegrees>41.513062231242656707763671875</LatitudeDegrees>
              <LongitudeDegrees>-5.75086760334670543670654296875</LongitudeDegrees>
            </Position>
            <AltitudeMeters>588.79998779296875</AltitudeMeters>
            <DistanceMeters>NAN</DistanceMeters>
          </Trackpoint>
          <Trackpoint>
            <Time>2019-10-05T15:28:44.000Z</Time>
            <Position>
              <LatitudeDegrees>41.513062231242656707763671875</LatitudeDegrees>
              <LongitudeDegrees>-5.75086760334670543670654296875</LongitudeDegrees>
            </Position>
            <AltitudeMeters>589.5999755859375</AltitudeMeters>
            <DistanceMeters>NAN</DistanceMeters>
          </Trackpoint>
          <Trackpoint>
            <Time>2019-10-05T15:28:45.000Z</Time>
            <Position>
              <LatitudeDegrees>41.513062231242656707763671875</LatitudeDegrees>
              <LongitudeDegrees>-5.75086760334670543670654296875</LongitudeDegrees>
            </Position>
            <AltitudeMeters>589.4000244140625</AltitudeMeters>
            <DistanceMeters>NAN</DistanceMeters>
          </Trackpoint>
          <Trackpoint>
            <Time>2019-10-05T15:28:50.000Z</Time>
            <Position>
              <LatitudeDegrees>41.513062231242656707763671875</LatitudeDegrees>
              <LongitudeDegrees>-5.75086760334670543670654296875</LongitudeDegrees>
            </Position>
            <AltitudeMeters>589.20001220703125</AltitudeMeters>
            <DistanceMeters>NAN</DistanceMeters>
          </Trackpoint>
          <Trackpoint>
            <Time>2019-10-05T15:28:52.000Z</Time>
            <Position>
              <LatitudeDegrees>41.513062231242656707763671875</LatitudeDegrees>
              <LongitudeDegrees>-5.75086760334670543670654296875</LongitudeDegrees>
            </Position>
            <AltitudeMeters>589.4000244140625</AltitudeMeters>
            <DistanceMeters>NAN</DistanceMeters>
          </Trackpoint>
          <Trackpoint>
            <Time>2019-10-05T15:28:57.000Z</Time>
            <Position>
              <LatitudeDegrees>41.513062231242656707763671875</LatitudeDegrees>
              <LongitudeDegrees>-5.75086760334670543670654296875</LongitudeDegrees>
            </Position>
            <AltitudeMeters>589.20001220703125</AltitudeMeters>
            <DistanceMeters>NAN</DistanceMeters>
          </Trackpoint>
          <Trackpoint>
            <Time>2019-10-05T15:29:00.000Z</Time>
            <Position>
              <LatitudeDegrees>41.51307002641260623931884765625</LatitudeDegrees>
              <LongitudeDegrees>-5.7508584670722484588623046875</LongitudeDegrees>
            </Position>
            <AltitudeMeters>588.5999755859375</AltitudeMeters>
            <DistanceMeters>NAN</DistanceMeters>
          </Trackpoint>
          <Trackpoint>
            <Time>2019-10-05T15:29:02.000Z</Time>
            <Position>
              <LatitudeDegrees>41.51309634558856487274169921875</LatitudeDegrees>
              <LongitudeDegrees>-5.75082418508827686309814453125</LongitudeDegrees>
            </Position>
            <AltitudeMeters>588.79998779296875</AltitudeMeters>
            <DistanceMeters>NAN</DistanceMeters>
          </Trackpoint>
          <Trackpoint>
            <Time>2019-10-05T15:29:06.000Z</Time>
            <Position>
              <LatitudeDegrees>41.513156108558177947998046875</LatitudeDegrees>
              <LongitudeDegrees>-5.75081094168126583099365234375</LongitudeDegrees>
            </Position>
            <AltitudeMeters>588.79998779296875</AltitudeMeters>
            <DistanceMeters>NAN</DistanceMeters>
          </Trackpoint>
          <Trackpoint>
            <Time>2019-10-05T15:29:07.000Z</Time>
            <Position>
              <LatitudeDegrees>41.51317748241126537322998046875</LatitudeDegrees>
              <LongitudeDegrees>-5.7508319802582263946533203125</LongitudeDegrees>
            </Position>
            <AltitudeMeters>589</AltitudeMeters>
            <DistanceMeters>NAN</DistanceMeters>
          </Trackpoint>
          <Trackpoint>
            <Time>2019-10-05T15:29:08.000Z</Time>
            <Position>
              <LatitudeDegrees>41.51316842995584011077880859375</LatitudeDegrees>
              <LongitudeDegrees>-5.75085670687258243560791015625</LongitudeDegrees>
            </Position>
            <AltitudeMeters>589.20001220703125</AltitudeMeters>
            <DistanceMeters>NAN</DistanceMeters>
          </Trackpoint>
          <Trackpoint>
            <Time>2019-10-05T15:29:10.000Z</Time>
            <Position>
              <LatitudeDegrees>41.513140015304088592529296875</LatitudeDegrees>
              <LongitudeDegrees>-5.750884115695953369140625</LongitudeDegrees>
            </Position>
            <AltitudeMeters>588.20001220703125</AltitudeMeters>
            <DistanceMeters>NAN</DistanceMeters>
          </Trackpoint>
          <Trackpoint>
            <Time>2019-10-05T15:29:12.000Z</Time>
            <Position>
              <LatitudeDegrees>41.51310523040592670440673828125</LatitudeDegrees>
              <LongitudeDegrees>-5.7508987002074718475341796875</LongitudeDegrees>
            </Position>
            <AltitudeMeters>588.4000244140625</AltitudeMeters>
            <DistanceMeters>NAN</DistanceMeters>
          </Trackpoint>
          <Trackpoint>
            <Time>2019-10-05T15:29:13.000Z</Time>
            <Position>
              <LatitudeDegrees>41.51309232227504253387451171875</LatitudeDegrees>
              <LongitudeDegrees>-5.750913284718990325927734375</LongitudeDegrees>
            </Position>
            <AltitudeMeters>588.4000244140625</AltitudeMeters>
            <DistanceMeters>NAN</DistanceMeters>
          </Trackpoint>
          <Trackpoint>
            <Time>2019-10-05T15:29:15.000Z</Time>
            <Position>
              <LatitudeDegrees>41.51305829174816608428955078125</LatitudeDegrees>
              <LongitudeDegrees>-5.75092904269695281982421875</LongitudeDegrees>
            </Position>
            <AltitudeMeters>588.20001220703125</AltitudeMeters>
            <DistanceMeters>NAN</DistanceMeters>
          </Trackpoint>
          <Trackpoint>
            <Time>2019-10-05T15:29:16.000Z</Time>
            <Position>
              <LatitudeDegrees>41.51304488070309162139892578125</LatitudeDegrees>
              <LongitudeDegrees>-5.7509416155517101287841796875</LongitudeDegrees>
            </Position>
            <AltitudeMeters>588.4000244140625</AltitudeMeters>
            <DistanceMeters>NAN</DistanceMeters>
          </Trackpoint>
          <Trackpoint>
            <Time>2019-10-05T15:29:17.000Z</Time>
            <Position>
              <LatitudeDegrees>41.51303012855350971221923828125</LatitudeDegrees>
              <LongitudeDegrees>-5.7509506680071353912353515625</LongitudeDegrees>
            </Position>
            <AltitudeMeters>588.4000244140625</AltitudeMeters>
            <DistanceMeters>NAN</DistanceMeters>
          </Trackpoint>
          <Trackpoint>
            <Time>2019-10-05T15:29:19.000Z</Time>
            <Position>
              <LatitudeDegrees>41.51301302947103977203369140625</LatitudeDegrees>
              <LongitudeDegrees>-5.750976987183094024658203125</LongitudeDegrees>
            </Position>
            <AltitudeMeters>588.5999755859375</AltitudeMeters>
            <DistanceMeters>NAN</DistanceMeters>
          </Trackpoint>
          <Trackpoint>
            <Time>2019-10-05T15:29:23.000Z</Time>
            <Position>
              <LatitudeDegrees>41.51296977885067462921142578125</LatitudeDegrees>
              <LongitudeDegrees>-5.751035325229167938232421875</LongitudeDegrees>
            </Position>
            <AltitudeMeters>588.20001220703125</AltitudeMeters>
            <DistanceMeters>NAN</DistanceMeters>
          </Trackpoint>
          <Trackpoint>
            <Time>2019-10-05T15:29:25.000Z</Time>
            <Position>
              <LatitudeDegrees>41.51294496841728687286376953125</LatitudeDegrees>
              <LongitudeDegrees>-5.751055777072906494140625</LongitudeDegrees>
            </Position>
            <AltitudeMeters>588.20001220703125</AltitudeMeters>
            <DistanceMeters>NAN</DistanceMeters>
          </Trackpoint>
          <Trackpoint>
            <Time>2019-10-05T15:29:28.000Z</Time>
            <Position>
              <LatitudeDegrees>41.51292569003999233245849609375</LatitudeDegrees>
              <LongitudeDegrees>-5.75106441043317317962646484375</LongitudeDegrees>
            </Position>
            <AltitudeMeters>588.4000244140625</AltitudeMeters>
            <DistanceMeters>NAN</DistanceMeters>
          </Trackpoint>
          <Trackpoint>
            <Time>2019-10-05T15:29:30.000Z</Time>
            <Position>
              <LatitudeDegrees>41.51292569003999233245849609375</LatitudeDegrees>
              <LongitudeDegrees>-5.75106441043317317962646484375</LongitudeDegrees>
            </Position>
            <AltitudeMeters>588.5999755859375</AltitudeMeters>
            <DistanceMeters>NAN</DistanceMeters>
          </Trackpoint>
          <Trackpoint>
            <Time>2019-10-05T15:29:46.000Z</Time>
            <Position>
              <LatitudeDegrees>41.51292569003999233245849609375</LatitudeDegrees>
              <LongitudeDegrees>-5.75106441043317317962646484375</LongitudeDegrees>
            </Position>
            <AltitudeMeters>588.4000244140625</AltitudeMeters>
            <DistanceMeters>NAN</DistanceMeters>
          </Trackpoint>
          <Trackpoint>
            <Time>2019-10-05T15:29:54.000Z</Time>
            <Position>
              <LatitudeDegrees>41.51292569003999233245849609375</LatitudeDegrees>
              <LongitudeDegrees>-5.75106441043317317962646484375</LongitudeDegrees>
            </Position>
            <AltitudeMeters>588.4000244140625</AltitudeMeters>
            <DistanceMeters>NAN</DistanceMeters>
          </Trackpoint>
          <Trackpoint>
            <Time>2019-10-05T15:29:57.000Z</Time>
            <Position>
              <LatitudeDegrees>41.51292569003999233245849609375</LatitudeDegrees>
              <LongitudeDegrees>-5.75106441043317317962646484375</LongitudeDegrees>
            </Position>
            <AltitudeMeters>588.4000244140625</AltitudeMeters>
            <DistanceMeters>NAN</DistanceMeters>
          </Trackpoint>
          <Trackpoint>
            <Time>2019-10-05T15:30:04.000Z</Time>
            <Position>
              <LatitudeDegrees>41.51292569003999233245849609375</LatitudeDegrees>
              <LongitudeDegrees>-5.75106441043317317962646484375</LongitudeDegrees>
            </Position>
            <AltitudeMeters>588.4000244140625</AltitudeMeters>
            <DistanceMeters>NAN</DistanceMeters>
          </Trackpoint>
          <Trackpoint>
            <Time>2019-10-05T15:30:11.000Z</Time>
            <Position>
              <LatitudeDegrees>41.51291437447071075439453125</LatitudeDegrees>
              <LongitudeDegrees>-5.75106189586222171783447265625</LongitudeDegrees>
            </Position>
            <AltitudeMeters>588.79998779296875</AltitudeMeters>
            <DistanceMeters>NAN</DistanceMeters>
          </Trackpoint>
          <Trackpoint>
            <Time>2019-10-05T15:30:18.000Z</Time>
            <Position>
              <LatitudeDegrees>41.51291437447071075439453125</LatitudeDegrees>
              <LongitudeDegrees>-5.75106189586222171783447265625</LongitudeDegrees>
            </Position>
            <AltitudeMeters>588.5999755859375</AltitudeMeters>
            <DistanceMeters>NAN</DistanceMeters>
          </Trackpoint>
          <Trackpoint>
            <Time>2019-10-05T15:30:23.000Z</Time>
            <Position>
              <LatitudeDegrees>41.512843631207942962646484375</LatitudeDegrees>
              <LongitudeDegrees>-5.751078240573406219482421875</LongitudeDegrees>
            </Position>
            <AltitudeMeters>588.4000244140625</AltitudeMeters>
            <DistanceMeters>NAN</DistanceMeters>
          </Trackpoint>
          <Trackpoint>
            <Time>2019-10-05T15:30:26.000Z</Time>
            <Position>
              <LatitudeDegrees>41.512771546840667724609375</LatitudeDegrees>
              <LongitudeDegrees>-5.7511343993246555328369140625</LongitudeDegrees>
            </Position>
            <AltitudeMeters>588.20001220703125</AltitudeMeters>
            <DistanceMeters>NAN</DistanceMeters>
          </Trackpoint>
          <Trackpoint>
            <Time>2019-10-05T15:30:29.000Z</Time>
            <Position>
              <LatitudeDegrees>41.51270491071045398712158203125</LatitudeDegrees>
              <LongitudeDegrees>-5.7511991076171398162841796875</LongitudeDegrees>
            </Position>
            <AltitudeMeters>588.20001220703125</AltitudeMeters>
            <DistanceMeters>NAN</DistanceMeters>
          </Trackpoint>
          <Trackpoint>
            <Time>2019-10-05T15:30:36.000Z</Time>
            <Position>
              <LatitudeDegrees>41.51254816912114620208740234375</LatitudeDegrees>
              <LongitudeDegrees>-5.75137236155569553375244140625</LongitudeDegrees>
            </Position>
            <AltitudeMeters>588.4000244140625</AltitudeMeters>
            <DistanceMeters>NAN</DistanceMeters>
          </Trackpoint>
          <Trackpoint>
            <Time>2019-10-05T15:30:39.000Z</Time>
            <Position>
              <LatitudeDegrees>41.5125544555485248565673828125</LatitudeDegrees>
              <LongitudeDegrees>-5.75137428939342498779296875</LongitudeDegrees>
            </Position>
            <AltitudeMeters>588.5999755859375</AltitudeMeters>
            <DistanceMeters>NAN</DistanceMeters>
          </Trackpoint>
          <Trackpoint>
            <Time>2019-10-05T15:30:40.000Z</Time>
            <Position>
              <LatitudeDegrees>41.512553282082080841064453125</LatitudeDegrees>
              <LongitudeDegrees>-5.75141242705285549163818359375</LongitudeDegrees>
            </Position>
            <AltitudeMeters>588.79998779296875</AltitudeMeters>
            <DistanceMeters>NAN</DistanceMeters>
          </Trackpoint>
          <Trackpoint>
            <Time>2019-10-05T15:30:44.000Z</Time>
            <Position>
              <LatitudeDegrees>41.5125556290149688720703125</LatitudeDegrees>
              <LongitudeDegrees>-5.7514797337353229522705078125</LongitudeDegrees>
            </Position>
            <AltitudeMeters>589</AltitudeMeters>
            <DistanceMeters>NAN</DistanceMeters>
          </Trackpoint>
          <Trackpoint>
            <Time>2019-10-05T15:30:45.000Z</Time>
            <Position>
              <LatitudeDegrees>41.5125618316233158111572265625</LatitudeDegrees>
              <LongitudeDegrees>-5.751484930515289306640625</LongitudeDegrees>
            </Position>
            <AltitudeMeters>589</AltitudeMeters>
            <DistanceMeters>NAN</DistanceMeters>
          </Trackpoint>
          <Trackpoint>
            <Time>2019-10-05T15:30:48.000Z</Time>
            <Position>
              <LatitudeDegrees>41.51257649995386600494384765625</LatitudeDegrees>
              <LongitudeDegrees>-5.7515541650354862213134765625</LongitudeDegrees>
            </Position>
            <AltitudeMeters>589</AltitudeMeters>
            <DistanceMeters>NAN</DistanceMeters>
          </Trackpoint>
          <Trackpoint>
            <Time>2019-10-05T15:30:49.000Z</Time>
            <Position>
              <LatitudeDegrees>41.5125789307057857513427734375</LatitudeDegrees>
              <LongitudeDegrees>-5.7515541650354862213134765625</LongitudeDegrees>
            </Position>
            <AltitudeMeters>588.5999755859375</AltitudeMeters>
            <DistanceMeters>NAN</DistanceMeters>
          </Trackpoint>
          <Trackpoint>
            <Time>2019-10-05T15:30:50.000Z</Time>
            <Position>
              <LatitudeDegrees>41.5125722251832485198974609375</LatitudeDegrees>
              <LongitudeDegrees>-5.7515736110508441925048828125</LongitudeDegrees>
            </Position>
            <AltitudeMeters>588.5999755859375</AltitudeMeters>
            <DistanceMeters>NAN</DistanceMeters>
          </Trackpoint>
          <Trackpoint>
            <Time>2019-10-05T15:30:52.000Z</Time>
            <Position>
              <LatitudeDegrees>41.5125836245715618133544921875</LatitudeDegrees>
              <LongitudeDegrees>-5.75164921581745147705078125</LongitudeDegrees>
            </Position>
            <AltitudeMeters>588.79998779296875</AltitudeMeters>
            <DistanceMeters>NAN</DistanceMeters>
          </Trackpoint>
          <Trackpoint>
            <Time>2019-10-05T15:30:56.000Z</Time>
            <Position>
              <LatitudeDegrees>41.512570716440677642822265625</LatitudeDegrees>
              <LongitudeDegrees>-5.7517737708985805511474609375</LongitudeDegrees>
            </Position>
            <AltitudeMeters>588.79998779296875</AltitudeMeters>
            <DistanceMeters>NAN</DistanceMeters>
          </Trackpoint>
          <Trackpoint>
            <Time>2019-10-05T15:30:59.000Z</Time>
            <Position>
              <LatitudeDegrees>41.512519754469394683837890625</LatitudeDegrees>
              <LongitudeDegrees>-5.75184811837971210479736328125</LongitudeDegrees>
            </Position>
            <AltitudeMeters>589.4000244140625</AltitudeMeters>
            <DistanceMeters>NAN</DistanceMeters>
          </Trackpoint>
          <Trackpoint>
            <Time>2019-10-05T15:31:00.000Z</Time>
            <Position>
              <LatitudeDegrees>41.51250693015754222869873046875</LatitudeDegrees>
              <LongitudeDegrees>-5.75186312198638916015625</LongitudeDegrees>
            </Position>
            <AltitudeMeters>589.20001220703125</AltitudeMeters>
            <DistanceMeters>NAN</DistanceMeters>
          </Trackpoint>
          <Trackpoint>
            <Time>2019-10-05T15:31:03.000Z</Time>
            <Position>
              <LatitudeDegrees>41.5124662779271602630615234375</LatitudeDegrees>
              <LongitudeDegrees>-5.7519008405506610870361328125</LongitudeDegrees>
            </Position>
            <AltitudeMeters>589.4000244140625</AltitudeMeters>
            <DistanceMeters>NAN</DistanceMeters>
          </Trackpoint>
          <Trackpoint>
            <Time>2019-10-05T15:31:06.000Z</Time>
            <Position>
              <LatitudeDegrees>41.5124542079865932464599609375</LatitudeDegrees>
              <LongitudeDegrees>-5.751906372606754302978515625</LongitudeDegrees>
            </Position>
            <AltitudeMeters>589.4000244140625</AltitudeMeters>
            <DistanceMeters>NAN</DistanceMeters>
          </Trackpoint>
          <Trackpoint>
            <Time>2019-10-05T15:31:18.000Z</Time>
            <Position>
              <LatitudeDegrees>41.5124542079865932464599609375</LatitudeDegrees>
              <LongitudeDegrees>-5.751906372606754302978515625</LongitudeDegrees>
            </Position>
            <AltitudeMeters>589.5999755859375</AltitudeMeters>
            <DistanceMeters>NAN</DistanceMeters>
          </Trackpoint>
          <Trackpoint>
            <Time>2019-10-05T15:31:26.000Z</Time>
            <Position>
              <LatitudeDegrees>41.51244892738759517669677734375</LatitudeDegrees>
              <LongitudeDegrees>-5.7519112341105937957763671875</LongitudeDegrees>
            </Position>
            <AltitudeMeters>589.4000244140625</AltitudeMeters>
            <DistanceMeters>NAN</DistanceMeters>
          </Trackpoint>
          <Trackpoint>
            <Time>2019-10-05T15:31:31.000Z</Time>
            <Position>
              <LatitudeDegrees>41.51235588826239109039306640625</LatitudeDegrees>
              <LongitudeDegrees>-5.75201206840574741363525390625</LongitudeDegrees>
            </Position>
            <AltitudeMeters>589.4000244140625</AltitudeMeters>
            <DistanceMeters>NAN</DistanceMeters>
          </Trackpoint>
          <Trackpoint>
            <Time>2019-10-05T15:31:33.000Z</Time>
            <Position>
              <LatitudeDegrees>41.512290425598621368408203125</LatitudeDegrees>
              <LongitudeDegrees>-5.752057246863842010498046875</LongitudeDegrees>
            </Position>
            <AltitudeMeters>589.20001220703125</AltitudeMeters>
            <DistanceMeters>NAN</DistanceMeters>
          </Trackpoint>
          <Trackpoint>
            <Time>2019-10-05T15:31:35.000Z</Time>
            <Position>
              <LatitudeDegrees>41.5121993981301784515380859375</LatitudeDegrees>
              <LongitudeDegrees>-5.75210209004580974578857421875</LongitudeDegrees>
            </Position>
            <AltitudeMeters>589.4000244140625</AltitudeMeters>
            <DistanceMeters>NAN</DistanceMeters>
          </Trackpoint>
          <Trackpoint>
            <Time>2019-10-05T15:31:40.000Z</Time>
            <Position>
              <LatitudeDegrees>41.5119415707886219024658203125</LatitudeDegrees>
              <LongitudeDegrees>-5.752091109752655029296875</LongitudeDegrees>
            </Position>
            <AltitudeMeters>588.20001220703125</AltitudeMeters>
            <DistanceMeters>NAN</DistanceMeters>
          </Trackpoint>
          <Trackpoint>
            <Time>2019-10-05T15:31:41.000Z</Time>
            <Position>
              <LatitudeDegrees>41.5119415707886219024658203125</LatitudeDegrees>
              <LongitudeDegrees>-5.752091109752655029296875</LongitudeDegrees>
            </Position>
            <AltitudeMeters>588.20001220703125</AltitudeMeters>
            <DistanceMeters>NAN</DistanceMeters>
          </Trackpoint>
          <Trackpoint>
            <Time>2019-10-05T15:31:45.000Z</Time>
            <Position>
              <LatitudeDegrees>41.5117652155458927154541015625</LatitudeDegrees>
              <LongitudeDegrees>-5.75205381028354167938232421875</LongitudeDegrees>
            </Position>
            <AltitudeMeters>587.5999755859375</AltitudeMeters>
            <DistanceMeters>NAN</DistanceMeters>
          </Trackpoint>
          <Trackpoint>
            <Time>2019-10-05T15:31:47.000Z</Time>
            <Position>
              <LatitudeDegrees>41.51167192496359348297119140625</LatitudeDegrees>
              <LongitudeDegrees>-5.75203989632427692413330078125</LongitudeDegrees>
            </Position>
            <AltitudeMeters>587.20001220703125</AltitudeMeters>
            <DistanceMeters>NAN</DistanceMeters>
          </Trackpoint>
          <Trackpoint>
            <Time>2019-10-05T15:31:48.000Z</Time>
            <Position>
              <LatitudeDegrees>41.51162498630583286285400390625</LatitudeDegrees>
              <LongitudeDegrees>-5.75202279724180698394775390625</LongitudeDegrees>
            </Position>
            <AltitudeMeters>587</AltitudeMeters>
            <DistanceMeters>NAN</DistanceMeters>
          </Trackpoint>
          <Trackpoint>
            <Time>2019-10-05T15:31:56.000Z</Time>
            <Position>
              <LatitudeDegrees>41.5112467110157012939453125</LatitudeDegrees>
              <LongitudeDegrees>-5.75191400013864040374755859375</LongitudeDegrees>
            </Position>
            <AltitudeMeters>586.4000244140625</AltitudeMeters>
            <DistanceMeters>NAN</DistanceMeters>
          </Trackpoint>
          <Trackpoint>
            <Time>2019-10-05T15:32:02.000Z</Time>
            <Position>
              <LatitudeDegrees>41.511087454855442047119140625</LatitudeDegrees>
              <LongitudeDegrees>-5.75188600458204746246337890625</LongitudeDegrees>
            </Position>
            <AltitudeMeters>586.79998779296875</AltitudeMeters>
            <DistanceMeters>NAN</DistanceMeters>
          </Trackpoint>
          <Trackpoint>
            <Time>2019-10-05T15:32:03.000Z</Time>
            <Position>
              <LatitudeDegrees>41.51107865385711193084716796875</LatitudeDegrees>
              <LongitudeDegrees>-5.75188064016401767730712890625</LongitudeDegrees>
            </Position>
            <AltitudeMeters>587</AltitudeMeters>
            <DistanceMeters>NAN</DistanceMeters>
          </Trackpoint>
          <Trackpoint>
            <Time>2019-10-05T15:32:04.000Z</Time>
            <Position>
              <LatitudeDegrees>41.5110799111425876617431640625</LatitudeDegrees>
              <LongitudeDegrees>-5.75188231654465198516845703125</LongitudeDegrees>
            </Position>
            <AltitudeMeters>587</AltitudeMeters>
            <DistanceMeters>NAN</DistanceMeters>
          </Trackpoint>
          <Trackpoint>
            <Time>2019-10-05T15:32:05.000Z</Time>
            <Position>
              <LatitudeDegrees>41.511083431541919708251953125</LatitudeDegrees>
              <LongitudeDegrees>-5.7518790476024150848388671875</LongitudeDegrees>
            </Position>
            <AltitudeMeters>587.20001220703125</AltitudeMeters>
            <DistanceMeters>NAN</DistanceMeters>
          </Trackpoint>
          <Trackpoint>
            <Time>2019-10-05T15:32:07.000Z</Time>
            <Position>
              <LatitudeDegrees>41.5110849402844905853271484375</LatitudeDegrees>
              <LongitudeDegrees>-5.7518827356398105621337890625</LongitudeDegrees>
            </Position>
            <AltitudeMeters>587.4000244140625</AltitudeMeters>
            <DistanceMeters>NAN</DistanceMeters>
          </Trackpoint>
          <Trackpoint>
            <Time>2019-10-05T15:32:10.000Z</Time>
            <Position>
              <LatitudeDegrees>41.5110849402844905853271484375</LatitudeDegrees>
              <LongitudeDegrees>-5.7518827356398105621337890625</LongitudeDegrees>
            </Position>
            <AltitudeMeters>587.20001220703125</AltitudeMeters>
            <DistanceMeters>NAN</DistanceMeters>
          </Trackpoint>
          <Trackpoint>
            <Time>2019-10-05T15:32:16.000Z</Time>
            <Position>
              <LatitudeDegrees>41.51108133606612682342529296875</LatitudeDegrees>
              <LongitudeDegrees>-5.75188198126852512359619140625</LongitudeDegrees>
            </Position>
            <AltitudeMeters>587</AltitudeMeters>
            <DistanceMeters>NAN</DistanceMeters>
          </Trackpoint>
          <Trackpoint>
            <Time>2019-10-05T15:32:20.000Z</Time>
            <Position>
              <LatitudeDegrees>41.51100472547113895416259765625</LatitudeDegrees>
              <LongitudeDegrees>-5.75186672620475292205810546875</LongitudeDegrees>
            </Position>
            <AltitudeMeters>586.5999755859375</AltitudeMeters>
            <DistanceMeters>NAN</DistanceMeters>
          </Trackpoint>
          <Trackpoint>
            <Time>2019-10-05T15:32:22.000Z</Time>
            <Position>
              <LatitudeDegrees>41.51093515567481517791748046875</LatitudeDegrees>
              <LongitudeDegrees>-5.7518428377807140350341796875</LongitudeDegrees>
            </Position>
            <AltitudeMeters>586</AltitudeMeters>
            <DistanceMeters>NAN</DistanceMeters>
          </Trackpoint>
          <Trackpoint>
            <Time>2019-10-05T15:32:25.000Z</Time>
            <Position>
              <LatitudeDegrees>41.5108083374798297882080078125</LatitudeDegrees>
              <LongitudeDegrees>-5.75179732404649257659912109375</LongitudeDegrees>
            </Position>
            <AltitudeMeters>585.5999755859375</AltitudeMeters>
            <DistanceMeters>NAN</DistanceMeters>
          </Trackpoint>
          <Trackpoint>
            <Time>2019-10-05T15:32:27.000Z</Time>
            <Position>
              <LatitudeDegrees>41.5107037313282489776611328125</LatitudeDegrees>
              <LongitudeDegrees>-5.75176748447120189666748046875</LongitudeDegrees>
            </Position>
            <AltitudeMeters>584.4000244140625</AltitudeMeters>
            <DistanceMeters>NAN</DistanceMeters>
          </Trackpoint>
          <Trackpoint>
            <Time>2019-10-05T15:32:32.000Z</Time>
            <Position>
              <LatitudeDegrees>41.51042151264846324920654296875</LatitudeDegrees>
              <LongitudeDegrees>-5.7516715116798877716064453125</LongitudeDegrees>
            </Position>
            <AltitudeMeters>583.5999755859375</AltitudeMeters>
            <DistanceMeters>NAN</DistanceMeters>
          </Trackpoint>
          <Trackpoint>
            <Time>2019-10-05T15:32:33.000Z</Time>
            <Position>
              <LatitudeDegrees>41.510360576212406158447265625</LatitudeDegrees>
              <LongitudeDegrees>-5.7516517303884029388427734375</LongitudeDegrees>
            </Position>
            <AltitudeMeters>583</AltitudeMeters>
            <DistanceMeters>NAN</DistanceMeters>
          </Trackpoint>
          <Trackpoint>
            <Time>2019-10-05T15:32:35.000Z</Time>
            <Position>
              <LatitudeDegrees>41.5102340094745159149169921875</LatitudeDegrees>
              <LongitudeDegrees>-5.75161174871027469635009765625</LongitudeDegrees>
            </Position>
            <AltitudeMeters>583</AltitudeMeters>
            <DistanceMeters>NAN</DistanceMeters>
          </Trackpoint>
          <Trackpoint>
            <Time>2019-10-05T15:32:37.000Z</Time>
            <Position>
              <LatitudeDegrees>41.51010132394731044769287109375</LatitudeDegrees>
              <LongitudeDegrees>-5.75156967155635356903076171875</LongitudeDegrees>
            </Position>
            <AltitudeMeters>581.79998779296875</AltitudeMeters>
            <DistanceMeters>NAN</DistanceMeters>
          </Trackpoint>
          <Trackpoint>
            <Time>2019-10-05T15:32:38.000Z</Time>
            <Position>
              <LatitudeDegrees>41.5100331790745258331298828125</LatitudeDegrees>
              <LongitudeDegrees>-5.75154326856136322021484375</LongitudeDegrees>
            </Position>
            <AltitudeMeters>581</AltitudeMeters>
            <DistanceMeters>NAN</DistanceMeters>
          </Trackpoint>
          <Trackpoint>
            <Time>2019-10-05T15:32:39.000Z</Time>
            <Position>
              <LatitudeDegrees>41.5099631063640117645263671875</LatitudeDegrees>
              <LongitudeDegrees>-5.7515226490795612335205078125</LongitudeDegrees>
            </Position>
            <AltitudeMeters>580.20001220703125</AltitudeMeters>
            <DistanceMeters>NAN</DistanceMeters>
          </Trackpoint>
          <Trackpoint>
            <Time>2019-10-05T15:32:44.000Z</Time>
            <Position>
              <LatitudeDegrees>41.50956287048757076263427734375</LatitudeDegrees>
              <LongitudeDegrees>-5.75138074345886707305908203125</LongitudeDegrees>
            </Position>
            <AltitudeMeters>579.79998779296875</AltitudeMeters>
            <DistanceMeters>NAN</DistanceMeters>
          </Trackpoint>
          <Trackpoint>
            <Time>2019-10-05T15:32:47.000Z</Time>
            <Position>
              <LatitudeDegrees>41.50936556048691272735595703125</LatitudeDegrees>
              <LongitudeDegrees>-5.7513144426047801971435546875</LongitudeDegrees>
            </Position>
            <AltitudeMeters>578.79998779296875</AltitudeMeters>
            <DistanceMeters>NAN</DistanceMeters>
          </Trackpoint>
          <Trackpoint>
            <Time>2019-10-05T15:32:49.000Z</Time>
            <Position>
              <LatitudeDegrees>41.509201191365718841552734375</LatitudeDegrees>
              <LongitudeDegrees>-5.75125627219676971435546875</LongitudeDegrees>
            </Position>
            <AltitudeMeters>577.20001220703125</AltitudeMeters>
            <DistanceMeters>NAN</DistanceMeters>
          </Trackpoint>
          <Trackpoint>
            <Time>2019-10-05T15:32:51.000Z</Time>
            <Position>
              <LatitudeDegrees>41.50902877561748027801513671875</LatitudeDegrees>
              <LongitudeDegrees>-5.75120707042515277862548828125</LongitudeDegrees>
            </Position>
            <AltitudeMeters>575.79998779296875</AltitudeMeters>
            <DistanceMeters>NAN</DistanceMeters>
          </Trackpoint>
          <Trackpoint>
            <Time>2019-10-05T15:32:53.000Z</Time>
            <Position>
              <LatitudeDegrees>41.508857198059558868408203125</LatitudeDegrees>
              <LongitudeDegrees>-5.751157701015472412109375</LongitudeDegrees>
            </Position>
            <AltitudeMeters>574.20001220703125</AltitudeMeters>
            <DistanceMeters>NAN</DistanceMeters>
          </Trackpoint>
          <Trackpoint>
            <Time>2019-10-05T15:32:56.000Z</Time>
            <Position>
              <LatitudeDegrees>41.5085961855947971343994140625</LatitudeDegrees>
              <LongitudeDegrees>-5.75107899494469165802001953125</LongitudeDegrees>
            </Position>
            <AltitudeMeters>573.20001220703125</AltitudeMeters>
            <DistanceMeters>NAN</DistanceMeters>
          </Trackpoint>
          <Trackpoint>
            <Time>2019-10-05T15:32:57.000Z</Time>
            <Position>
              <LatitudeDegrees>41.50850624777376651763916015625</LatitudeDegrees>
              <LongitudeDegrees>-5.7510556094348430633544921875</LongitudeDegrees>
            </Position>
            <AltitudeMeters>573</AltitudeMeters>
            <DistanceMeters>NAN</DistanceMeters>
          </Trackpoint>
          <Trackpoint>
            <Time>2019-10-05T15:32:58.000Z</Time>
            <Position>
              <LatitudeDegrees>41.50841622613370418548583984375</LatitudeDegrees>
              <LongitudeDegrees>-5.751033984124660491943359375</LongitudeDegrees>
            </Position>
            <AltitudeMeters>572.5999755859375</AltitudeMeters>
            <DistanceMeters>NAN</DistanceMeters>
          </Trackpoint>
          <Trackpoint>
            <Time>2019-10-05T15:32:59.000Z</Time>
            <Position>
              <LatitudeDegrees>41.50832368992269039154052734375</LatitudeDegrees>
              <LongitudeDegrees>-5.75101277790963649749755859375</LongitudeDegrees>
            </Position>
            <AltitudeMeters>572</AltitudeMeters>
            <DistanceMeters>NAN</DistanceMeters>
          </Trackpoint>
          <Trackpoint>
            <Time>2019-10-05T15:33:01.000Z</Time>
            <Position>
              <LatitudeDegrees>41.50813308544456958770751953125</LatitudeDegrees>
              <LongitudeDegrees>-5.75096952728927135467529296875</LongitudeDegrees>
            </Position>
            <AltitudeMeters>570.79998779296875</AltitudeMeters>
            <DistanceMeters>NAN</DistanceMeters>
          </Trackpoint>
          <Trackpoint>
            <Time>2019-10-05T15:33:03.000Z</Time>
            <Position>
              <LatitudeDegrees>41.5079370327293872833251953125</LatitudeDegrees>
              <LongitudeDegrees>-5.75093599967658519744873046875</LongitudeDegrees>
            </Position>
            <AltitudeMeters>568.79998779296875</AltitudeMeters>
            <DistanceMeters>NAN</DistanceMeters>
          </Trackpoint>
          <Trackpoint>
            <Time>2019-10-05T15:33:05.000Z</Time>
            <Position>
              <LatitudeDegrees>41.5077392198145389556884765625</LatitudeDegrees>
              <LongitudeDegrees>-5.75092024169862270355224609375</LongitudeDegrees>
            </Position>
            <AltitudeMeters>567.79998779296875</AltitudeMeters>
            <DistanceMeters>NAN</DistanceMeters>
          </Trackpoint>
          <Trackpoint>
            <Time>2019-10-05T15:33:06.000Z</Time>
            <Position>
              <LatitudeDegrees>41.50764106772840023040771484375</LatitudeDegrees>
              <LongitudeDegrees>-5.7509060762822628021240234375</LongitudeDegrees>
            </Position>
            <AltitudeMeters>567.79998779296875</AltitudeMeters>
            <DistanceMeters>NAN</DistanceMeters>
          </Trackpoint>
          <Trackpoint>
            <Time>2019-10-05T15:33:08.000Z</Time>
            <Position>
              <LatitudeDegrees>41.507445685565471649169921875</LatitudeDegrees>
              <LongitudeDegrees>-5.75088202022016048431396484375</LongitudeDegrees>
            </Position>
            <AltitudeMeters>566.4000244140625</AltitudeMeters>
            <DistanceMeters>NAN</DistanceMeters>
          </Trackpoint>
          <Trackpoint>
            <Time>2019-10-05T15:33:12.000Z</Time>
            <Position>
              <LatitudeDegrees>41.5071053802967071533203125</LatitudeDegrees>
              <LongitudeDegrees>-5.750857628881931304931640625</LongitudeDegrees>
            </Position>
            <AltitudeMeters>565</AltitudeMeters>
            <DistanceMeters>NAN</DistanceMeters>
          </Trackpoint>
          <Trackpoint>
            <Time>2019-10-05T15:33:14.000Z</Time>
            <Position>
              <LatitudeDegrees>41.506942771375179290771484375</LatitudeDegrees>
              <LongitudeDegrees>-5.750835835933685302734375</LongitudeDegrees>
            </Position>
            <AltitudeMeters>563.79998779296875</AltitudeMeters>
            <DistanceMeters>NAN</DistanceMeters>
          </Trackpoint>
          <Trackpoint>
            <Time>2019-10-05T15:33:16.000Z</Time>
            <Position>
              <LatitudeDegrees>41.50676666758954524993896484375</LatitudeDegrees>
              <LongitudeDegrees>-5.7508276216685771942138671875</LongitudeDegrees>
            </Position>
            <AltitudeMeters>561</AltitudeMeters>
            <DistanceMeters>NAN</DistanceMeters>
          </Trackpoint>
          <Trackpoint>
            <Time>2019-10-05T15:33:17.000Z</Time>
            <Position>
              <LatitudeDegrees>41.5066747181117534637451171875</LatitudeDegrees>
              <LongitudeDegrees>-5.75082083232700824737548828125</LongitudeDegrees>
            </Position>
            <AltitudeMeters>561.20001220703125</AltitudeMeters>
            <DistanceMeters>NAN</DistanceMeters>
          </Trackpoint>
          <Trackpoint>
            <Time>2019-10-05T15:33:21.000Z</Time>
            <Position>
              <LatitudeDegrees>41.5063028968870639801025390625</LatitudeDegrees>
              <LongitudeDegrees>-5.75075428001582622528076171875</LongitudeDegrees>
            </Position>
            <AltitudeMeters>558.79998779296875</AltitudeMeters>
            <DistanceMeters>NAN</DistanceMeters>
          </Trackpoint>
          <Trackpoint>
            <Time>2019-10-05T15:33:22.000Z</Time>
            <Position>
              <LatitudeDegrees>41.50620826520025730133056640625</LatitudeDegrees>
              <LongitudeDegrees>-5.750720836222171783447265625</LongitudeDegrees>
            </Position>
            <AltitudeMeters>558</AltitudeMeters>
            <DistanceMeters>NAN</DistanceMeters>
          </Trackpoint>
          <Trackpoint>
            <Time>2019-10-05T15:33:24.000Z</Time>
            <Position>
              <LatitudeDegrees>41.50605387054383754730224609375</LatitudeDegrees>
              <LongitudeDegrees>-5.75062352232635021209716796875</LongitudeDegrees>
            </Position>
            <AltitudeMeters>557.5999755859375</AltitudeMeters>
            <DistanceMeters>NAN</DistanceMeters>
          </Trackpoint>
          <Trackpoint>
            <Time>2019-10-05T15:33:25.000Z</Time>
            <Position>
              <LatitudeDegrees>41.5059847198426723480224609375</LatitudeDegrees>
              <LongitudeDegrees>-5.75052260421216487884521484375</LongitudeDegrees>
            </Position>
            <AltitudeMeters>557.4000244140625</AltitudeMeters>
            <DistanceMeters>NAN</DistanceMeters>
          </Trackpoint>
          <Trackpoint>
            <Time>2019-10-05T15:33:28.000Z</Time>
            <Position>
              <LatitudeDegrees>41.50581548921763896942138671875</LatitudeDegrees>
              <LongitudeDegrees>-5.75022630393505096435546875</LongitudeDegrees>
            </Position>
            <AltitudeMeters>558</AltitudeMeters>
            <DistanceMeters>NAN</DistanceMeters>
          </Trackpoint>
          <Trackpoint>
            <Time>2019-10-05T15:33:29.000Z</Time>
            <Position>
              <LatitudeDegrees>41.5057969652116298675537109375</LatitudeDegrees>
              <LongitudeDegrees>-5.7501889206469058990478515625</LongitudeDegrees>
            </Position>
            <AltitudeMeters>558.20001220703125</AltitudeMeters>
            <DistanceMeters>NAN</DistanceMeters>
          </Trackpoint>
          <Trackpoint>
            <Time>2019-10-05T15:33:30.000Z</Time>
            <Position>
              <LatitudeDegrees>41.50576134212315082550048828125</LatitudeDegrees>
              <LongitudeDegrees>-5.750109292566776275634765625</LongitudeDegrees>
            </Position>
            <AltitudeMeters>559.20001220703125</AltitudeMeters>
            <DistanceMeters>NAN</DistanceMeters>
          </Trackpoint>
          <Trackpoint>
            <Time>2019-10-05T15:33:34.000Z</Time>
            <Position>
              <LatitudeDegrees>41.50561365298926830291748046875</LatitudeDegrees>
              <LongitudeDegrees>-5.7498233020305633544921875</LongitudeDegrees>
            </Position>
            <AltitudeMeters>558.79998779296875</AltitudeMeters>
            <DistanceMeters>NAN</DistanceMeters>
          </Trackpoint>
          <Trackpoint>
            <Time>2019-10-05T15:33:35.000Z</Time>
            <Position>
              <LatitudeDegrees>41.50558062829077243804931640625</LatitudeDegrees>
              <LongitudeDegrees>-5.7497611083090305328369140625</LongitudeDegrees>
            </Position>
            <AltitudeMeters>559</AltitudeMeters>
            <DistanceMeters>NAN</DistanceMeters>
          </Trackpoint>
          <Trackpoint>
            <Time>2019-10-05T15:33:37.000Z</Time>
            <Position>
              <LatitudeDegrees>41.5055056102573871612548828125</LatitudeDegrees>
              <LongitudeDegrees>-5.74963915161788463592529296875</LongitudeDegrees>
            </Position>
            <AltitudeMeters>559.5999755859375</AltitudeMeters>
            <DistanceMeters>NAN</DistanceMeters>
          </Trackpoint>
          <Trackpoint>
            <Time>2019-10-05T15:33:39.000Z</Time>
            <Position>
              <LatitudeDegrees>41.50543997995555400848388671875</LatitudeDegrees>
              <LongitudeDegrees>-5.74952901341021060943603515625</LongitudeDegrees>
            </Position>
            <AltitudeMeters>559.79998779296875</AltitudeMeters>
            <DistanceMeters>NAN</DistanceMeters>
          </Trackpoint>
          <Trackpoint>
            <Time>2019-10-05T15:33:40.000Z</Time>
            <Position>
              <LatitudeDegrees>41.5053785406053066253662109375</LatitudeDegrees>
              <LongitudeDegrees>-5.749430023133754730224609375</LongitudeDegrees>
            </Position>
            <AltitudeMeters>560</AltitudeMeters>
            <DistanceMeters>NAN</DistanceMeters>
          </Trackpoint>
          <Trackpoint>
            <Time>2019-10-05T15:33:41.000Z</Time>
            <Position>
              <LatitudeDegrees>41.5053785406053066253662109375</LatitudeDegrees>
              <LongitudeDegrees>-5.749430023133754730224609375</LongitudeDegrees>
            </Position>
            <AltitudeMeters>560</AltitudeMeters>
            <DistanceMeters>NAN</DistanceMeters>
          </Trackpoint>
          <Trackpoint>
            <Time>2019-10-05T15:33:42.000Z</Time>
            <Position>
              <LatitudeDegrees>41.50535029359161853790283203125</LatitudeDegrees>
              <LongitudeDegrees>-5.7493805699050426483154296875</LongitudeDegrees>
            </Position>
            <AltitudeMeters>560.4000244140625</AltitudeMeters>
            <DistanceMeters>NAN</DistanceMeters>
          </Trackpoint>
          <Trackpoint>
            <Time>2019-10-05T15:33:44.000Z</Time>
            <Position>
              <LatitudeDegrees>41.50528625585138797760009765625</LatitudeDegrees>
              <LongitudeDegrees>-5.74928107671439647674560546875</LongitudeDegrees>
            </Position>
            <AltitudeMeters>560.20001220703125</AltitudeMeters>
            <DistanceMeters>NAN</DistanceMeters>
          </Trackpoint>
          <Trackpoint>
            <Time>2019-10-05T15:33:46.000Z</Time>
            <Position>
              <LatitudeDegrees>41.50520042516291141510009765625</LatitudeDegrees>
              <LongitudeDegrees>-5.74923866428434848785400390625</LongitudeDegrees>
            </Position>
            <AltitudeMeters>560.20001220703125</AltitudeMeters>
            <DistanceMeters>NAN</DistanceMeters>
          </Trackpoint>
          <Trackpoint>
            <Time>2019-10-05T15:33:48.000Z</Time>
            <Position>
              <LatitudeDegrees>41.5051200427114963531494140625</LatitudeDegrees>
              <LongitudeDegrees>-5.74918418191373348236083984375</LongitudeDegrees>
            </Position>
            <AltitudeMeters>560.4000244140625</AltitudeMeters>
            <DistanceMeters>NAN</DistanceMeters>
          </Trackpoint>
          <Trackpoint>
            <Time>2019-10-05T15:33:50.000Z</Time>
            <Position>
              <LatitudeDegrees>41.5050776302814483642578125</LatitudeDegrees>
              <LongitudeDegrees>-5.74907689355313777923583984375</LongitudeDegrees>
            </Position>
            <AltitudeMeters>560.4000244140625</AltitudeMeters>
            <DistanceMeters>NAN</DistanceMeters>
          </Trackpoint>
          <Trackpoint>
            <Time>2019-10-05T15:33:53.000Z</Time>
            <Position>
              <LatitudeDegrees>41.505071260035037994384765625</LatitudeDegrees>
              <LongitudeDegrees>-5.7488887198269367218017578125</LongitudeDegrees>
            </Position>
            <AltitudeMeters>561.4000244140625</AltitudeMeters>
            <DistanceMeters>NAN</DistanceMeters>
          </Trackpoint>
          <Trackpoint>
            <Time>2019-10-05T15:33:55.000Z</Time>
            <Position>
              <LatitudeDegrees>41.5050563402473926544189453125</LatitudeDegrees>
              <LongitudeDegrees>-5.74877833016216754913330078125</LongitudeDegrees>
            </Position>
            <AltitudeMeters>561.4000244140625</AltitudeMeters>
            <DistanceMeters>NAN</DistanceMeters>
          </Trackpoint>
          <Trackpoint>
            <Time>2019-10-05T15:33:58.000Z</Time>
            <Position>
              <LatitudeDegrees>41.5049886144697666168212890625</LatitudeDegrees>
              <LongitudeDegrees>-5.74878302402794361114501953125</LongitudeDegrees>
            </Position>
            <AltitudeMeters>561.5999755859375</AltitudeMeters>
            <DistanceMeters>NAN</DistanceMeters>
          </Trackpoint>
          <Trackpoint>
            <Time>2019-10-05T15:34:01.000Z</Time>
            <Position>
              <LatitudeDegrees>41.5049198828637599945068359375</LatitudeDegrees>
              <LongitudeDegrees>-5.74876994825899600982666015625</LongitudeDegrees>
            </Position>
            <AltitudeMeters>562.4000244140625</AltitudeMeters>
            <DistanceMeters>NAN</DistanceMeters>
          </Trackpoint>
          <Trackpoint>
            <Time>2019-10-05T15:34:02.000Z</Time>
            <Position>
              <LatitudeDegrees>41.5049014426767826080322265625</LatitudeDegrees>
              <LongitudeDegrees>-5.748774223029613494873046875</LongitudeDegrees>
            </Position>
            <AltitudeMeters>563</AltitudeMeters>
            <DistanceMeters>NAN</DistanceMeters>
          </Trackpoint>
          <Trackpoint>
            <Time>2019-10-05T15:34:03.000Z</Time>
            <Position>
              <LatitudeDegrees>41.50488040409982204437255859375</LatitudeDegrees>
              <LongitudeDegrees>-5.7487707026302814483642578125</LongitudeDegrees>
            </Position>
            <AltitudeMeters>563</AltitudeMeters>
            <DistanceMeters>NAN</DistanceMeters>
          </Trackpoint>
          <Trackpoint>
            <Time>2019-10-05T15:34:04.000Z</Time>
            <Position>
              <LatitudeDegrees>41.50486196391284465789794921875</LatitudeDegrees>
              <LongitudeDegrees>-5.7487633265554904937744140625</LongitudeDegrees>
            </Position>
            <AltitudeMeters>563.5999755859375</AltitudeMeters>
            <DistanceMeters>NAN</DistanceMeters>
          </Trackpoint>
          <Trackpoint>
            <Time>2019-10-05T15:34:07.000Z</Time>
            <Position>
              <LatitudeDegrees>41.5047854371368885040283203125</LatitudeDegrees>
              <LongitudeDegrees>-5.74878738261759281158447265625</LongitudeDegrees>
            </Position>
            <AltitudeMeters>564.5999755859375</AltitudeMeters>
            <DistanceMeters>NAN</DistanceMeters>
          </Trackpoint>
          <Trackpoint>
            <Time>2019-10-05T15:34:08.000Z</Time>
            <Position>
              <LatitudeDegrees>41.5047589503228664398193359375</LatitudeDegrees>
              <LongitudeDegrees>-5.748797692358493804931640625</LongitudeDegrees>
            </Position>
            <AltitudeMeters>565</AltitudeMeters>
            <DistanceMeters>NAN</DistanceMeters>
          </Trackpoint>
          <Trackpoint>
            <Time>2019-10-05T15:34:11.000Z</Time>
            <Position>
              <LatitudeDegrees>41.50468946434557437896728515625</LatitudeDegrees>
              <LongitudeDegrees>-5.7488075830042362213134765625</LongitudeDegrees>
            </Position>
            <AltitudeMeters>565.5999755859375</AltitudeMeters>
            <DistanceMeters>NAN</DistanceMeters>
          </Trackpoint>
          <Trackpoint>
            <Time>2019-10-05T15:34:12.000Z</Time>
            <Position>
              <LatitudeDegrees>41.50466280989348888397216796875</LatitudeDegrees>
              <LongitudeDegrees>-5.74881085194647312164306640625</LongitudeDegrees>
            </Position>
            <AltitudeMeters>565.79998779296875</AltitudeMeters>
            <DistanceMeters>NAN</DistanceMeters>
          </Trackpoint>
          <Trackpoint>
            <Time>2019-10-05T15:34:14.000Z</Time>
            <Position>
              <LatitudeDegrees>41.5046271868050098419189453125</LatitudeDegrees>
              <LongitudeDegrees>-5.7488082535564899444580078125</LongitudeDegrees>
            </Position>
            <AltitudeMeters>566.20001220703125</AltitudeMeters>
            <DistanceMeters>NAN</DistanceMeters>
          </Trackpoint>
          <Trackpoint>
            <Time>2019-10-05T15:34:17.000Z</Time>
            <Position>
              <LatitudeDegrees>41.50459106080234050750732421875</LatitudeDegrees>
              <LongitudeDegrees>-5.7487676851451396942138671875</LongitudeDegrees>
            </Position>
            <AltitudeMeters>566.79998779296875</AltitudeMeters>
            <DistanceMeters>NAN</DistanceMeters>
          </Trackpoint>
          <Trackpoint>
            <Time>2019-10-05T15:34:19.000Z</Time>
            <Position>
              <LatitudeDegrees>41.5045896358788013458251953125</LatitudeDegrees>
              <LongitudeDegrees>-5.74872099794447422027587890625</LongitudeDegrees>
            </Position>
            <AltitudeMeters>567</AltitudeMeters>
            <DistanceMeters>NAN</DistanceMeters>
          </Trackpoint>
          <Trackpoint>
            <Time>2019-10-05T15:34:25.000Z</Time>
            <Position>
              <LatitudeDegrees>41.5046050585806369781494140625</LatitudeDegrees>
              <LongitudeDegrees>-5.7485722191631793975830078125</LongitudeDegrees>
            </Position>
            <AltitudeMeters>566.79998779296875</AltitudeMeters>
            <DistanceMeters>NAN</DistanceMeters>
          </Trackpoint>
          <Trackpoint>
            <Time>2019-10-05T15:34:32.000Z</Time>
            <Position>
              <LatitudeDegrees>41.50463263504207134246826171875</LatitudeDegrees>
              <LongitudeDegrees>-5.74847138486802577972412109375</LongitudeDegrees>
            </Position>
            <AltitudeMeters>566.4000244140625</AltitudeMeters>
            <DistanceMeters>NAN</DistanceMeters>
          </Trackpoint>
          <Trackpoint>
            <Time>2019-10-05T15:34:33.000Z</Time>
            <Position>
              <LatitudeDegrees>41.50463104248046875</LatitudeDegrees>
              <LongitudeDegrees>-5.7484719716012477874755859375</LongitudeDegrees>
            </Position>
            <AltitudeMeters>566.4000244140625</AltitudeMeters>
            <DistanceMeters>NAN</DistanceMeters>
          </Trackpoint>
          <Trackpoint>
            <Time>2019-10-05T15:34:37.000Z</Time>
            <Position>
              <LatitudeDegrees>41.50464604608714580535888671875</LatitudeDegrees>
              <LongitudeDegrees>-5.7485205866396427154541015625</LongitudeDegrees>
            </Position>
            <AltitudeMeters>566.5999755859375</AltitudeMeters>
            <DistanceMeters>NAN</DistanceMeters>
          </Trackpoint>
          <Trackpoint>
            <Time>2019-10-05T15:34:41.000Z</Time>
            <Position>
              <LatitudeDegrees>41.50463431142270565032958984375</LatitudeDegrees>
              <LongitudeDegrees>-5.7485926710069179534912109375</LongitudeDegrees>
            </Position>
            <AltitudeMeters>567</AltitudeMeters>
            <DistanceMeters>NAN</DistanceMeters>
          </Trackpoint>
          <Trackpoint>
            <Time>2019-10-05T15:34:44.000Z</Time>
            <Position>
              <LatitudeDegrees>41.50460346601903438568115234375</LatitudeDegrees>
              <LongitudeDegrees>-5.7486466504633426666259765625</LongitudeDegrees>
            </Position>
            <AltitudeMeters>566.79998779296875</AltitudeMeters>
            <DistanceMeters>NAN</DistanceMeters>
          </Trackpoint>
          <Trackpoint>
            <Time>2019-10-05T15:34:45.000Z</Time>
            <Position>
              <LatitudeDegrees>41.5045960061252117156982421875</LatitudeDegrees>
              <LongitudeDegrees>-5.7486593909561634063720703125</LongitudeDegrees>
            </Position>
            <AltitudeMeters>566.4000244140625</AltitudeMeters>
            <DistanceMeters>NAN</DistanceMeters>
          </Trackpoint>
          <Trackpoint>
            <Time>2019-10-05T15:34:51.000Z</Time>
            <Position>
              <LatitudeDegrees>41.50453037582337856292724609375</LatitudeDegrees>
              <LongitudeDegrees>-5.74871647171676158905029296875</LongitudeDegrees>
            </Position>
            <AltitudeMeters>567</AltitudeMeters>
            <DistanceMeters>NAN</DistanceMeters>
          </Trackpoint>
          <Trackpoint>
            <Time>2019-10-05T15:34:52.000Z</Time>
            <Position>
              <LatitudeDegrees>41.50450891815125942230224609375</LatitudeDegrees>
              <LongitudeDegrees>-5.74872083030641078948974609375</LongitudeDegrees>
            </Position>
            <AltitudeMeters>567</AltitudeMeters>
            <DistanceMeters>NAN</DistanceMeters>
          </Trackpoint>
          <Trackpoint>
            <Time>2019-10-05T15:34:58.000Z</Time>
            <Position>
              <LatitudeDegrees>41.50441822595894336700439453125</LatitudeDegrees>
              <LongitudeDegrees>-5.7487356662750244140625</LongitudeDegrees>
            </Position>
            <AltitudeMeters>567.79998779296875</AltitudeMeters>
            <DistanceMeters>NAN</DistanceMeters>
          </Trackpoint>
          <Trackpoint>
            <Time>2019-10-05T15:34:59.000Z</Time>
            <Position>
              <LatitudeDegrees>41.504401378333568572998046875</LatitudeDegrees>
              <LongitudeDegrees>-5.7487351633608341217041015625</LongitudeDegrees>
            </Position>
            <AltitudeMeters>568.4000244140625</AltitudeMeters>
            <DistanceMeters>NAN</DistanceMeters>
          </Trackpoint>
          <Trackpoint>
            <Time>2019-10-05T15:35:02.000Z</Time>
            <Position>
              <LatitudeDegrees>41.5043499134480953216552734375</LatitudeDegrees>
              <LongitudeDegrees>-5.748735330998897552490234375</LongitudeDegrees>
            </Position>
            <AltitudeMeters>569.5999755859375</AltitudeMeters>
            <DistanceMeters>NAN</DistanceMeters>
          </Trackpoint>
          <Trackpoint>
            <Time>2019-10-05T15:35:04.000Z</Time>
            <Position>
              <LatitudeDegrees>41.50431747548282146453857421875</LatitudeDegrees>
              <LongitudeDegrees>-5.74873373843729496002197265625</LongitudeDegrees>
            </Position>
            <AltitudeMeters>569.5999755859375</AltitudeMeters>
            <DistanceMeters>NAN</DistanceMeters>
          </Trackpoint>
          <Trackpoint>
            <Time>2019-10-05T15:35:09.000Z</Time>
            <Position>
              <LatitudeDegrees>41.50423231534659862518310546875</LatitudeDegrees>
              <LongitudeDegrees>-5.74873809702694416046142578125</LongitudeDegrees>
            </Position>
            <AltitudeMeters>571</AltitudeMeters>
            <DistanceMeters>NAN</DistanceMeters>
          </Trackpoint>
          <Trackpoint>
            <Time>2019-10-05T15:35:10.000Z</Time>
            <Position>
              <LatitudeDegrees>41.50421286933124065399169921875</LatitudeDegrees>
              <LongitudeDegrees>-5.748725943267345428466796875</LongitudeDegrees>
            </Position>
            <AltitudeMeters>571</AltitudeMeters>
            <DistanceMeters>NAN</DistanceMeters>
          </Trackpoint>
          <Trackpoint>
            <Time>2019-10-05T15:35:14.000Z</Time>
            <Position>
              <LatitudeDegrees>41.50414128787815570831298828125</LatitudeDegrees>
              <LongitudeDegrees>-5.74865813367068767547607421875</LongitudeDegrees>
            </Position>
            <AltitudeMeters>571.20001220703125</AltitudeMeters>
            <DistanceMeters>NAN</DistanceMeters>
          </Trackpoint>
          <Trackpoint>
            <Time>2019-10-05T15:35:21.000Z</Time>
            <Position>
              <LatitudeDegrees>41.5040106140077114105224609375</LatitudeDegrees>
              <LongitudeDegrees>-5.74854413978755474090576171875</LongitudeDegrees>
            </Position>
            <AltitudeMeters>572</AltitudeMeters>
            <DistanceMeters>NAN</DistanceMeters>
          </Trackpoint>
          <Trackpoint>
            <Time>2019-10-05T15:35:25.000Z</Time>
            <Position>
              <LatitudeDegrees>41.503945402801036834716796875</LatitudeDegrees>
              <LongitudeDegrees>-5.74848060496151447296142578125</LongitudeDegrees>
            </Position>
            <AltitudeMeters>572.4000244140625</AltitudeMeters>
            <DistanceMeters>NAN</DistanceMeters>
          </Trackpoint>
          <Trackpoint>
            <Time>2019-10-05T15:35:27.000Z</Time>
            <Position>
              <LatitudeDegrees>41.50391899980604648590087890625</LatitudeDegrees>
              <LongitudeDegrees>-5.74844037182629108428955078125</LongitudeDegrees>
            </Position>
            <AltitudeMeters>572.20001220703125</AltitudeMeters>
            <DistanceMeters>NAN</DistanceMeters>
          </Trackpoint>
          <Trackpoint>
            <Time>2019-10-05T15:35:28.000Z</Time>
            <Position>
              <LatitudeDegrees>41.5038949437439441680908203125</LatitudeDegrees>
              <LongitudeDegrees>-5.7484314031898975372314453125</LongitudeDegrees>
            </Position>
            <AltitudeMeters>572.20001220703125</AltitudeMeters>
            <DistanceMeters>NAN</DistanceMeters>
          </Trackpoint>
          <Trackpoint>
            <Time>2019-10-05T15:35:32.000Z</Time>
            <Position>
              <LatitudeDegrees>41.5038382820785045623779296875</LatitudeDegrees>
              <LongitudeDegrees>-5.74835454113781452178955078125</LongitudeDegrees>
            </Position>
            <AltitudeMeters>573</AltitudeMeters>
            <DistanceMeters>NAN</DistanceMeters>
          </Trackpoint>
          <Trackpoint>
            <Time>2019-10-05T15:35:36.000Z</Time>
            <Position>
              <LatitudeDegrees>41.503763012588024139404296875</LatitudeDegrees>
              <LongitudeDegrees>-5.74827742762863636016845703125</LongitudeDegrees>
            </Position>
            <AltitudeMeters>573</AltitudeMeters>
            <DistanceMeters>NAN</DistanceMeters>
          </Trackpoint>
          <Trackpoint>
            <Time>2019-10-05T15:35:38.000Z</Time>
            <Position>
              <LatitudeDegrees>41.5037309937179088592529296875</LatitudeDegrees>
              <LongitudeDegrees>-5.7482325844466686248779296875</LongitudeDegrees>
            </Position>
            <AltitudeMeters>572.79998779296875</AltitudeMeters>
            <DistanceMeters>NAN</DistanceMeters>
          </Trackpoint>
          <Trackpoint>
            <Time>2019-10-05T15:35:44.000Z</Time>
            <Position>
              <LatitudeDegrees>41.5036367811262607574462890625</LatitudeDegrees>
              <LongitudeDegrees>-5.7480944506824016571044921875</LongitudeDegrees>
            </Position>
            <AltitudeMeters>573</AltitudeMeters>
            <DistanceMeters>NAN</DistanceMeters>
          </Trackpoint>
          <Trackpoint>
            <Time>2019-10-05T15:35:47.000Z</Time>
            <Position>
              <LatitudeDegrees>41.50359663181006908416748046875</LatitudeDegrees>
              <LongitudeDegrees>-5.74803703464567661285400390625</LongitudeDegrees>
            </Position>
            <AltitudeMeters>573.4000244140625</AltitudeMeters>
            <DistanceMeters>NAN</DistanceMeters>
          </Trackpoint>
          <Trackpoint>
            <Time>2019-10-05T15:35:48.000Z</Time>
            <Position>
              <LatitudeDegrees>41.5035975538194179534912109375</LatitudeDegrees>
              <LongitudeDegrees>-5.747995711863040924072265625</LongitudeDegrees>
            </Position>
            <AltitudeMeters>573.4000244140625</AltitudeMeters>
            <DistanceMeters>NAN</DistanceMeters>
          </Trackpoint>
          <Trackpoint>
            <Time>2019-10-05T15:35:49.000Z</Time>
            <Position>
              <LatitudeDegrees>41.503594033420085906982421875</LatitudeDegrees>
              <LongitudeDegrees>-5.74793728999793529510498046875</LongitudeDegrees>
            </Position>
            <AltitudeMeters>573.5999755859375</AltitudeMeters>
            <DistanceMeters>NAN</DistanceMeters>
          </Trackpoint>
          <Trackpoint>
            <Time>2019-10-05T15:35:53.000Z</Time>
            <Position>
              <LatitudeDegrees>41.503533013164997100830078125</LatitudeDegrees>
              <LongitudeDegrees>-5.7478035986423492431640625</LongitudeDegrees>
            </Position>
            <AltitudeMeters>573.5999755859375</AltitudeMeters>
            <DistanceMeters>NAN</DistanceMeters>
          </Trackpoint>
          <Trackpoint>
            <Time>2019-10-05T15:35:59.000Z</Time>
            <Position>
              <LatitudeDegrees>41.503504849970340728759765625</LatitudeDegrees>
              <LongitudeDegrees>-5.747577957808971405029296875</LongitudeDegrees>
            </Position>
            <AltitudeMeters>574.5999755859375</AltitudeMeters>
            <DistanceMeters>NAN</DistanceMeters>
          </Trackpoint>
          <Trackpoint>
            <Time>2019-10-05T15:36:02.000Z</Time>
            <Position>
              <LatitudeDegrees>41.503498815000057220458984375</LatitudeDegrees>
              <LongitudeDegrees>-5.74747963808476924896240234375</LongitudeDegrees>
            </Position>
            <AltitudeMeters>574.5999755859375</AltitudeMeters>
            <DistanceMeters>NAN</DistanceMeters>
          </Trackpoint>
          <Trackpoint>
            <Time>2019-10-05T15:36:05.000Z</Time>
            <Position>
              <LatitudeDegrees>41.5034912712872028350830078125</LatitudeDegrees>
              <LongitudeDegrees>-5.74738995172083377838134765625</LongitudeDegrees>
            </Position>
            <AltitudeMeters>574.5999755859375</AltitudeMeters>
            <DistanceMeters>NAN</DistanceMeters>
          </Trackpoint>
          <Trackpoint>
            <Time>2019-10-05T15:36:08.000Z</Time>
            <Position>
              <LatitudeDegrees>41.50349051691591739654541015625</LatitudeDegrees>
              <LongitudeDegrees>-5.74733890593051910400390625</LongitudeDegrees>
            </Position>
            <AltitudeMeters>574.4000244140625</AltitudeMeters>
            <DistanceMeters>NAN</DistanceMeters>
          </Trackpoint>
          <Trackpoint>
            <Time>2019-10-05T15:36:13.000Z</Time>
            <Position>
              <LatitudeDegrees>41.50356176309287548065185546875</LatitudeDegrees>
              <LongitudeDegrees>-5.74723036028444766998291015625</LongitudeDegrees>
            </Position>
            <AltitudeMeters>574.5999755859375</AltitudeMeters>
            <DistanceMeters>NAN</DistanceMeters>
          </Trackpoint>
          <Trackpoint>
            <Time>2019-10-05T15:36:15.000Z</Time>
            <Position>
              <LatitudeDegrees>41.50358372367918491363525390625</LatitudeDegrees>
              <LongitudeDegrees>-5.7472046278417110443115234375</LongitudeDegrees>
            </Position>
            <AltitudeMeters>574.79998779296875</AltitudeMeters>
            <DistanceMeters>NAN</DistanceMeters>
          </Trackpoint>
          <Trackpoint>
            <Time>2019-10-05T15:36:18.000Z</Time>
            <Position>
              <LatitudeDegrees>41.5036297403275966644287109375</LatitudeDegrees>
              <LongitudeDegrees>-5.7471301965415477752685546875</LongitudeDegrees>
            </Position>
            <AltitudeMeters>574.4000244140625</AltitudeMeters>
            <DistanceMeters>NAN</DistanceMeters>
          </Trackpoint>
          <Trackpoint>
            <Time>2019-10-05T15:36:23.000Z</Time>
            <Position>
              <LatitudeDegrees>41.503671817481517791748046875</LatitudeDegrees>
              <LongitudeDegrees>-5.74696616269648075103759765625</LongitudeDegrees>
            </Position>
            <AltitudeMeters>574.20001220703125</AltitudeMeters>
            <DistanceMeters>NAN</DistanceMeters>
          </Trackpoint>
          <Trackpoint>
            <Time>2019-10-05T15:36:24.000Z</Time>
            <Position>
              <LatitudeDegrees>41.50365698151290416717529296875</LatitudeDegrees>
              <LongitudeDegrees>-5.74693749658763408660888671875</LongitudeDegrees>
            </Position>
            <AltitudeMeters>574.20001220703125</AltitudeMeters>
            <DistanceMeters>NAN</DistanceMeters>
          </Trackpoint>
          <Trackpoint>
            <Time>2019-10-05T15:36:28.000Z</Time>
            <Position>
              <LatitudeDegrees>41.5035898424685001373291015625</LatitudeDegrees>
              <LongitudeDegrees>-5.74682014994323253631591796875</LongitudeDegrees>
            </Position>
            <AltitudeMeters>574.4000244140625</AltitudeMeters>
            <DistanceMeters>NAN</DistanceMeters>
          </Trackpoint>
          <Trackpoint>
            <Time>2019-10-05T15:36:31.000Z</Time>
            <Position>
              <LatitudeDegrees>41.50354449637234210968017578125</LatitudeDegrees>
              <LongitudeDegrees>-5.74675644747912883758544921875</LongitudeDegrees>
            </Position>
            <AltitudeMeters>574.5999755859375</AltitudeMeters>
            <DistanceMeters>NAN</DistanceMeters>
          </Trackpoint>
          <Trackpoint>
            <Time>2019-10-05T15:36:36.000Z</Time>
            <Position>
              <LatitudeDegrees>41.50344743393361568450927734375</LatitudeDegrees>
              <LongitudeDegrees>-5.74665200896561145782470703125</LongitudeDegrees>
            </Position>
            <AltitudeMeters>573.79998779296875</AltitudeMeters>
            <DistanceMeters>NAN</DistanceMeters>
          </Trackpoint>
          <Trackpoint>
            <Time>2019-10-05T15:36:37.000Z</Time>
            <Position>
              <LatitudeDegrees>41.5034322626888751983642578125</LatitudeDegrees>
              <LongitudeDegrees>-5.74663080275058746337890625</LongitudeDegrees>
            </Position>
            <AltitudeMeters>574</AltitudeMeters>
            <DistanceMeters>NAN</DistanceMeters>
          </Trackpoint>
          <Trackpoint>
            <Time>2019-10-05T15:36:42.000Z</Time>
            <Position>
              <LatitudeDegrees>41.5033859945833683013916015625</LatitudeDegrees>
              <LongitudeDegrees>-5.74649593792855739593505859375</LongitudeDegrees>
            </Position>
            <AltitudeMeters>573.5999755859375</AltitudeMeters>
            <DistanceMeters>NAN</DistanceMeters>
          </Trackpoint>
          <Trackpoint>
            <Time>2019-10-05T15:36:43.000Z</Time>
            <Position>
              <LatitudeDegrees>41.50337937287986278533935546875</LatitudeDegrees>
              <LongitudeDegrees>-5.74646987020969390869140625</LongitudeDegrees>
            </Position>
            <AltitudeMeters>573.5999755859375</AltitudeMeters>
            <DistanceMeters>NAN</DistanceMeters>
          </Trackpoint>
          <Trackpoint>
            <Time>2019-10-05T15:36:48.000Z</Time>
            <Position>
              <LatitudeDegrees>41.5033561550080776214599609375</LatitudeDegrees>
              <LongitudeDegrees>-5.74631924740970134735107421875</LongitudeDegrees>
            </Position>
            <AltitudeMeters>572.4000244140625</AltitudeMeters>
            <DistanceMeters>NAN</DistanceMeters>
          </Trackpoint>
          <Trackpoint>
            <Time>2019-10-05T15:36:50.000Z</Time>
            <Position>
              <LatitudeDegrees>41.50335305370390415191650390625</LatitudeDegrees>
              <LongitudeDegrees>-5.74624590575695037841796875</LongitudeDegrees>
            </Position>
            <AltitudeMeters>572.79998779296875</AltitudeMeters>
            <DistanceMeters>NAN</DistanceMeters>
          </Trackpoint>
          <Trackpoint>
            <Time>2019-10-05T15:36:54.000Z</Time>
            <Position>
              <LatitudeDegrees>41.503360010683536529541015625</LatitudeDegrees>
              <LongitudeDegrees>-5.74617683887481689453125</LongitudeDegrees>
            </Position>
            <AltitudeMeters>573.5999755859375</AltitudeMeters>
            <DistanceMeters>NAN</DistanceMeters>
          </Trackpoint>
          <Trackpoint>
            <Time>2019-10-05T15:36:55.000Z</Time>
            <Position>
              <LatitudeDegrees>41.50335364043712615966796875</LatitudeDegrees>
              <LongitudeDegrees>-5.74616183526813983917236328125</LongitudeDegrees>
            </Position>
            <AltitudeMeters>573.20001220703125</AltitudeMeters>
            <DistanceMeters>NAN</DistanceMeters>
          </Trackpoint>
          <Trackpoint>
            <Time>2019-10-05T15:36:56.000Z</Time>
            <Position>
              <LatitudeDegrees>41.50335053913295269012451171875</LatitudeDegrees>
              <LongitudeDegrees>-5.74615412391722202301025390625</LongitudeDegrees>
            </Position>
            <AltitudeMeters>573.20001220703125</AltitudeMeters>
            <DistanceMeters>NAN</DistanceMeters>
          </Trackpoint>
          <Trackpoint>
            <Time>2019-10-05T15:37:02.000Z</Time>
            <Position>
              <LatitudeDegrees>41.50334165431559085845947265625</LatitudeDegrees>
              <LongitudeDegrees>-5.74605940841138362884521484375</LongitudeDegrees>
            </Position>
            <AltitudeMeters>573.5999755859375</AltitudeMeters>
            <DistanceMeters>NAN</DistanceMeters>
          </Trackpoint>
          <Trackpoint>
            <Time>2019-10-05T15:37:04.000Z</Time>
            <Position>
              <LatitudeDegrees>41.5033484436571598052978515625</LatitudeDegrees>
              <LongitudeDegrees>-5.746045745909214019775390625</LongitudeDegrees>
            </Position>
            <AltitudeMeters>573.5999755859375</AltitudeMeters>
            <DistanceMeters>NAN</DistanceMeters>
          </Trackpoint>
          <Trackpoint>
            <Time>2019-10-05T15:37:06.000Z</Time>
            <Position>
              <LatitudeDegrees>41.5033501200377941131591796875</LatitudeDegrees>
              <LongitudeDegrees>-5.74606276117265224456787109375</LongitudeDegrees>
            </Position>
            <AltitudeMeters>573</AltitudeMeters>
            <DistanceMeters>NAN</DistanceMeters>
          </Trackpoint>
          <Trackpoint>
            <Time>2019-10-05T15:37:07.000Z</Time>
            <Position>
              <LatitudeDegrees>41.5033595077693462371826171875</LatitudeDegrees>
              <LongitudeDegrees>-5.74607424437999725341796875</LongitudeDegrees>
            </Position>
            <AltitudeMeters>572.79998779296875</AltitudeMeters>
            <DistanceMeters>NAN</DistanceMeters>
          </Trackpoint>
          <Trackpoint>
            <Time>2019-10-05T15:37:10.000Z</Time>
            <Position>
              <LatitudeDegrees>41.50341692380607128143310546875</LatitudeDegrees>
              <LongitudeDegrees>-5.74609779752790927886962890625</LongitudeDegrees>
            </Position>
            <AltitudeMeters>572.79998779296875</AltitudeMeters>
            <DistanceMeters>NAN</DistanceMeters>
          </Trackpoint>
          <Trackpoint>
            <Time>2019-10-05T15:37:14.000Z</Time>
            <Position>
              <LatitudeDegrees>41.50346553884446620941162109375</LatitudeDegrees>
              <LongitudeDegrees>-5.746045745909214019775390625</LongitudeDegrees>
            </Position>
            <AltitudeMeters>574</AltitudeMeters>
            <DistanceMeters>NAN</DistanceMeters>
          </Trackpoint>
          <Trackpoint>
            <Time>2019-10-05T15:37:18.000Z</Time>
            <Position>
              <LatitudeDegrees>41.5035247988998889923095703125</LatitudeDegrees>
              <LongitudeDegrees>-5.74602101929485797882080078125</LongitudeDegrees>
            </Position>
            <AltitudeMeters>574.20001220703125</AltitudeMeters>
            <DistanceMeters>NAN</DistanceMeters>
          </Trackpoint>
          <Trackpoint>
            <Time>2019-10-05T15:37:20.000Z</Time>
            <Position>
              <LatitudeDegrees>41.503559164702892303466796875</LatitudeDegrees>
              <LongitudeDegrees>-5.74601749889552593231201171875</LongitudeDegrees>
            </Position>
            <AltitudeMeters>574.4000244140625</AltitudeMeters>
            <DistanceMeters>NAN</DistanceMeters>
          </Trackpoint>
          <Trackpoint>
            <Time>2019-10-05T15:37:23.000Z</Time>
            <Position>
              <LatitudeDegrees>41.5035970509052276611328125</LatitudeDegrees>
              <LongitudeDegrees>-5.74599780142307281494140625</LongitudeDegrees>
            </Position>
            <AltitudeMeters>574.5999755859375</AltitudeMeters>
            <DistanceMeters>NAN</DistanceMeters>
          </Trackpoint>
          <Trackpoint>
            <Time>2019-10-05T15:37:25.000Z</Time>
            <Position>
              <LatitudeDegrees>41.5036324225366115570068359375</LatitudeDegrees>
              <LongitudeDegrees>-5.7459838874638080596923828125</LongitudeDegrees>
            </Position>
            <AltitudeMeters>575</AltitudeMeters>
            <DistanceMeters>NAN</DistanceMeters>
          </Trackpoint>
          <Trackpoint>
            <Time>2019-10-05T15:37:28.000Z</Time>
            <Position>
              <LatitudeDegrees>41.503688581287860870361328125</LatitudeDegrees>
              <LongitudeDegrees>-5.745936445891857147216796875</LongitudeDegrees>
            </Position>
            <AltitudeMeters>575</AltitudeMeters>
            <DistanceMeters>NAN</DistanceMeters>
          </Trackpoint>
          <Trackpoint>
            <Time>2019-10-05T15:37:32.000Z</Time>
            <Position>
              <LatitudeDegrees>41.503738872706890106201171875</LatitudeDegrees>
              <LongitudeDegrees>-5.7458849810063838958740234375</LongitudeDegrees>
            </Position>
            <AltitudeMeters>575</AltitudeMeters>
            <DistanceMeters>NAN</DistanceMeters>
          </Trackpoint>
          <Trackpoint>
            <Time>2019-10-05T15:37:37.000Z</Time>
            <Position>
              <LatitudeDegrees>41.50379410944879055023193359375</LatitudeDegrees>
              <LongitudeDegrees>-5.74571214616298675537109375</LongitudeDegrees>
            </Position>
            <AltitudeMeters>575</AltitudeMeters>
            <DistanceMeters>NAN</DistanceMeters>
          </Trackpoint>
          <Trackpoint>
            <Time>2019-10-05T15:37:39.000Z</Time>
            <Position>
              <LatitudeDegrees>41.50382562540471553802490234375</LatitudeDegrees>
              <LongitudeDegrees>-5.7456419058144092559814453125</LongitudeDegrees>
            </Position>
            <AltitudeMeters>575.4000244140625</AltitudeMeters>
            <DistanceMeters>NAN</DistanceMeters>
          </Trackpoint>
          <Trackpoint>
            <Time>2019-10-05T15:37:41.000Z</Time>
            <Position>
              <LatitudeDegrees>41.5038547106087207794189453125</LatitudeDegrees>
              <LongitudeDegrees>-5.74557795189321041107177734375</LongitudeDegrees>
            </Position>
            <AltitudeMeters>575.5999755859375</AltitudeMeters>
            <DistanceMeters>NAN</DistanceMeters>
          </Trackpoint>
          <Trackpoint>
            <Time>2019-10-05T15:37:44.000Z</Time>
            <Position>
              <LatitudeDegrees>41.50389938615262508392333984375</LatitudeDegrees>
              <LongitudeDegrees>-5.7454913668334484100341796875</LongitudeDegrees>
            </Position>
            <AltitudeMeters>575.4000244140625</AltitudeMeters>
            <DistanceMeters>NAN</DistanceMeters>
          </Trackpoint>
          <Trackpoint>
            <Time>2019-10-05T15:37:49.000Z</Time>
            <Position>
              <LatitudeDegrees>41.50394464842975139617919921875</LatitudeDegrees>
              <LongitudeDegrees>-5.74534962885081768035888671875</LongitudeDegrees>
            </Position>
            <AltitudeMeters>575.4000244140625</AltitudeMeters>
            <DistanceMeters>NAN</DistanceMeters>
          </Trackpoint>
          <Trackpoint>
            <Time>2019-10-05T15:37:50.000Z</Time>
            <Position>
              <LatitudeDegrees>41.50399041362106800079345703125</LatitudeDegrees>
              <LongitudeDegrees>-5.7453696615993976593017578125</LongitudeDegrees>
            </Position>
            <AltitudeMeters>575.5999755859375</AltitudeMeters>
            <DistanceMeters>NAN</DistanceMeters>
          </Trackpoint>
          <Trackpoint>
            <Time>2019-10-05T15:37:51.000Z</Time>
            <Position>
              <LatitudeDegrees>41.504058055579662322998046875</LatitudeDegrees>
              <LongitudeDegrees>-5.74540461413562297821044921875</LongitudeDegrees>
            </Position>
            <AltitudeMeters>575.5999755859375</AltitudeMeters>
            <DistanceMeters>NAN</DistanceMeters>
          </Trackpoint>
          <Trackpoint>
            <Time>2019-10-05T15:37:55.000Z</Time>
            <Position>
              <LatitudeDegrees>41.50415754877030849456787109375</LatitudeDegrees>
              <LongitudeDegrees>-5.7454172708094120025634765625</LongitudeDegrees>
            </Position>
            <AltitudeMeters>575.5999755859375</AltitudeMeters>
            <DistanceMeters>NAN</DistanceMeters>
          </Trackpoint>
          <Trackpoint>
            <Time>2019-10-05T15:37:59.000Z</Time>
            <Position>
              <LatitudeDegrees>41.5042114444077014923095703125</LatitudeDegrees>
              <LongitudeDegrees>-5.7453252375125885009765625</LongitudeDegrees>
            </Position>
            <AltitudeMeters>575.5999755859375</AltitudeMeters>
            <DistanceMeters>NAN</DistanceMeters>
          </Trackpoint>
          <Trackpoint>
            <Time>2019-10-05T15:38:02.000Z</Time>
            <Position>
              <LatitudeDegrees>41.5042546950280666351318359375</LatitudeDegrees>
              <LongitudeDegrees>-5.74519447982311248779296875</LongitudeDegrees>
            </Position>
            <AltitudeMeters>575</AltitudeMeters>
            <DistanceMeters>NAN</DistanceMeters>
          </Trackpoint>
          <Trackpoint>
            <Time>2019-10-05T15:38:03.000Z</Time>
            <Position>
              <LatitudeDegrees>41.50426500476896762847900390625</LatitudeDegrees>
              <LongitudeDegrees>-5.74515081010758876800537109375</LongitudeDegrees>
            </Position>
            <AltitudeMeters>575</AltitudeMeters>
            <DistanceMeters>NAN</DistanceMeters>
          </Trackpoint>
          <Trackpoint>
            <Time>2019-10-05T15:38:09.000Z</Time>
            <Position>
              <LatitudeDegrees>41.50439911521971225738525390625</LatitudeDegrees>
              <LongitudeDegrees>-5.74487873353064060211181640625</LongitudeDegrees>
            </Position>
            <AltitudeMeters>575.5999755859375</AltitudeMeters>
            <DistanceMeters>NAN</DistanceMeters>
          </Trackpoint>
          <Trackpoint>
            <Time>2019-10-05T15:38:14.000Z</Time>
            <Position>
              <LatitudeDegrees>41.50449299253523349761962890625</LatitudeDegrees>
              <LongitudeDegrees>-5.7447745464742183685302734375</LongitudeDegrees>
            </Position>
            <AltitudeMeters>575.20001220703125</AltitudeMeters>
            <DistanceMeters>NAN</DistanceMeters>
          </Trackpoint>
          <Trackpoint>
            <Time>2019-10-05T15:38:19.000Z</Time>
            <Position>
              <LatitudeDegrees>41.50456323288381099700927734375</LatitudeDegrees>
              <LongitudeDegrees>-5.74468645267188549041748046875</LongitudeDegrees>
            </Position>
            <AltitudeMeters>574.79998779296875</AltitudeMeters>
            <DistanceMeters>NAN</DistanceMeters>
          </Trackpoint>
          <Trackpoint>
            <Time>2019-10-05T15:38:21.000Z</Time>
            <Position>
              <LatitudeDegrees>41.50457429699599742889404296875</LatitudeDegrees>
              <LongitudeDegrees>-5.744646973907947540283203125</LongitudeDegrees>
            </Position>
            <AltitudeMeters>575</AltitudeMeters>
            <DistanceMeters>NAN</DistanceMeters>
          </Trackpoint>
          <Trackpoint>
            <Time>2019-10-05T15:38:24.000Z</Time>
            <Position>
              <LatitudeDegrees>41.50461235083639621734619140625</LatitudeDegrees>
              <LongitudeDegrees>-5.7445904798805713653564453125</LongitudeDegrees>
            </Position>
            <AltitudeMeters>574.4000244140625</AltitudeMeters>
            <DistanceMeters>NAN</DistanceMeters>
          </Trackpoint>
          <Trackpoint>
            <Time>2019-10-05T15:38:27.000Z</Time>
            <Position>
              <LatitudeDegrees>41.50473355315625667572021484375</LatitudeDegrees>
              <LongitudeDegrees>-5.744533650577068328857421875</LongitudeDegrees>
            </Position>
            <AltitudeMeters>574.5999755859375</AltitudeMeters>
            <DistanceMeters>NAN</DistanceMeters>
          </Trackpoint>
          <Trackpoint>
            <Time>2019-10-05T15:38:32.000Z</Time>
            <Position>
              <LatitudeDegrees>41.504886858165264129638671875</LatitudeDegrees>
              <LongitudeDegrees>-5.744359306991100311279296875</LongitudeDegrees>
            </Position>
            <AltitudeMeters>574</AltitudeMeters>
            <DistanceMeters>NAN</DistanceMeters>
          </Trackpoint>
          <Trackpoint>
            <Time>2019-10-05T15:38:34.000Z</Time>
            <Position>
              <LatitudeDegrees>41.504943184554576873779296875</LatitudeDegrees>
              <LongitudeDegrees>-5.744280517101287841796875</LongitudeDegrees>
            </Position>
            <AltitudeMeters>573.79998779296875</AltitudeMeters>
            <DistanceMeters>NAN</DistanceMeters>
          </Trackpoint>
          <Trackpoint>
            <Time>2019-10-05T15:38:40.000Z</Time>
            <Position>
              <LatitudeDegrees>41.5051113255321979522705078125</LatitudeDegrees>
              <LongitudeDegrees>-5.7439822889864444732666015625</LongitudeDegrees>
            </Position>
            <AltitudeMeters>574.20001220703125</AltitudeMeters>
            <DistanceMeters>NAN</DistanceMeters>
          </Trackpoint>
          <Trackpoint>
            <Time>2019-10-05T15:38:41.000Z</Time>
            <Position>
              <LatitudeDegrees>41.5051113255321979522705078125</LatitudeDegrees>
              <LongitudeDegrees>-5.7439822889864444732666015625</LongitudeDegrees>
            </Position>
            <AltitudeMeters>574.20001220703125</AltitudeMeters>
            <DistanceMeters>NAN</DistanceMeters>
          </Trackpoint>
          <Trackpoint>
            <Time>2019-10-05T15:38:47.000Z</Time>
            <Position>
              <LatitudeDegrees>41.5052098967134952545166015625</LatitudeDegrees>
              <LongitudeDegrees>-5.74384591542184352874755859375</LongitudeDegrees>
            </Position>
            <AltitudeMeters>574.5999755859375</AltitudeMeters>
            <DistanceMeters>NAN</DistanceMeters>
          </Trackpoint>
          <Trackpoint>
            <Time>2019-10-05T15:38:48.000Z</Time>
            <Position>
              <LatitudeDegrees>41.505226157605648040771484375</LatitudeDegrees>
              <LongitudeDegrees>-5.74382965452969074249267578125</LongitudeDegrees>
            </Position>
            <AltitudeMeters>574.5999755859375</AltitudeMeters>
            <DistanceMeters>NAN</DistanceMeters>
          </Trackpoint>
          <Trackpoint>
            <Time>2019-10-05T15:38:52.000Z</Time>
            <Position>
              <LatitudeDegrees>41.505291871726512908935546875</LatitudeDegrees>
              <LongitudeDegrees>-5.74375069700181484222412109375</LongitudeDegrees>
            </Position>
            <AltitudeMeters>574.5999755859375</AltitudeMeters>
            <DistanceMeters>NAN</DistanceMeters>
          </Trackpoint>
          <Trackpoint>
            <Time>2019-10-05T15:38:54.000Z</Time>
            <Position>
              <LatitudeDegrees>41.5053275786340236663818359375</LatitudeDegrees>
              <LongitudeDegrees>-5.74371700175106525421142578125</LongitudeDegrees>
            </Position>
            <AltitudeMeters>574.4000244140625</AltitudeMeters>
            <DistanceMeters>NAN</DistanceMeters>
          </Trackpoint>
          <Trackpoint>
            <Time>2019-10-05T15:38:55.000Z</Time>
            <Position>
              <LatitudeDegrees>41.50534157641232013702392578125</LatitudeDegrees>
              <LongitudeDegrees>-5.74370317161083221435546875</LongitudeDegrees>
            </Position>
            <AltitudeMeters>574.4000244140625</AltitudeMeters>
            <DistanceMeters>NAN</DistanceMeters>
          </Trackpoint>
          <Trackpoint>
            <Time>2019-10-05T15:38:59.000Z</Time>
            <Position>
              <LatitudeDegrees>41.5054248087108135223388671875</LatitudeDegrees>
              <LongitudeDegrees>-5.74363150633871555328369140625</LongitudeDegrees>
            </Position>
            <AltitudeMeters>574.5999755859375</AltitudeMeters>
            <DistanceMeters>NAN</DistanceMeters>
          </Trackpoint>
          <Trackpoint>
            <Time>2019-10-05T15:39:00.000Z</Time>
            <Position>
              <LatitudeDegrees>41.50543863885104656219482421875</LatitudeDegrees>
              <LongitudeDegrees>-5.74359864927828311920166015625</LongitudeDegrees>
            </Position>
            <AltitudeMeters>574.5999755859375</AltitudeMeters>
            <DistanceMeters>NAN</DistanceMeters>
          </Trackpoint>
          <Trackpoint>
            <Time>2019-10-05T15:39:02.000Z</Time>
            <Position>
              <LatitudeDegrees>41.50546696968376636505126953125</LatitudeDegrees>
              <LongitudeDegrees>-5.743592865765094757080078125</LongitudeDegrees>
            </Position>
            <AltitudeMeters>574.5999755859375</AltitudeMeters>
            <DistanceMeters>NAN</DistanceMeters>
          </Trackpoint>
          <Trackpoint>
            <Time>2019-10-05T15:39:08.000Z</Time>
            <Position>
              <LatitudeDegrees>41.50554508902132511138916015625</LatitudeDegrees>
              <LongitudeDegrees>-5.74359965510666370391845703125</LongitudeDegrees>
            </Position>
            <AltitudeMeters>574.20001220703125</AltitudeMeters>
            <DistanceMeters>NAN</DistanceMeters>
          </Trackpoint>
          <Trackpoint>
            <Time>2019-10-05T15:39:09.000Z</Time>
            <Position>
              <LatitudeDegrees>41.50555665604770183563232421875</LatitudeDegrees>
              <LongitudeDegrees>-5.74361474253237247467041015625</LongitudeDegrees>
            </Position>
            <AltitudeMeters>574.4000244140625</AltitudeMeters>
            <DistanceMeters>NAN</DistanceMeters>
          </Trackpoint>
          <Trackpoint>
            <Time>2019-10-05T15:39:16.000Z</Time>
            <Position>
              <LatitudeDegrees>41.50567299686372280120849609375</LatitudeDegrees>
              <LongitudeDegrees>-5.7437073625624179840087890625</LongitudeDegrees>
            </Position>
            <AltitudeMeters>574.4000244140625</AltitudeMeters>
            <DistanceMeters>NAN</DistanceMeters>
          </Trackpoint>
          <Trackpoint>
            <Time>2019-10-05T15:39:22.000Z</Time>
            <Position>
              <LatitudeDegrees>41.505749188363552093505859375</LatitudeDegrees>
              <LongitudeDegrees>-5.7438116334378719329833984375</LongitudeDegrees>
            </Position>
            <AltitudeMeters>574.5999755859375</AltitudeMeters>
            <DistanceMeters>NAN</DistanceMeters>
          </Trackpoint>
          <Trackpoint>
            <Time>2019-10-05T15:39:23.000Z</Time>
            <Position>
              <LatitudeDegrees>41.50576301850378513336181640625</LatitudeDegrees>
              <LongitudeDegrees>-5.74383770115673542022705078125</LongitudeDegrees>
            </Position>
            <AltitudeMeters>574.5999755859375</AltitudeMeters>
            <DistanceMeters>NAN</DistanceMeters>
          </Trackpoint>
          <Trackpoint>
            <Time>2019-10-05T15:39:25.000Z</Time>
            <Position>
              <LatitudeDegrees>41.50579134933650493621826171875</LatitudeDegrees>
              <LongitudeDegrees>-5.743867121636867523193359375</LongitudeDegrees>
            </Position>
            <AltitudeMeters>574.4000244140625</AltitudeMeters>
            <DistanceMeters>NAN</DistanceMeters>
          </Trackpoint>
          <Trackpoint>
            <Time>2019-10-05T15:39:27.000Z</Time>
            <Position>
              <LatitudeDegrees>41.50579755194485187530517578125</LatitudeDegrees>
              <LongitudeDegrees>-5.7438682951033115386962890625</LongitudeDegrees>
            </Position>
            <AltitudeMeters>574.5999755859375</AltitudeMeters>
            <DistanceMeters>NAN</DistanceMeters>
          </Trackpoint>
          <Trackpoint>
            <Time>2019-10-05T15:39:31.000Z</Time>
            <Position>
              <LatitudeDegrees>41.50579755194485187530517578125</LatitudeDegrees>
              <LongitudeDegrees>-5.7438682951033115386962890625</LongitudeDegrees>
            </Position>
            <AltitudeMeters>574.5999755859375</AltitudeMeters>
            <DistanceMeters>NAN</DistanceMeters>
          </Trackpoint>
          <Trackpoint>
            <Time>2019-10-05T15:39:34.000Z</Time>
            <Position>
              <LatitudeDegrees>41.50579755194485187530517578125</LatitudeDegrees>
              <LongitudeDegrees>-5.7438682951033115386962890625</LongitudeDegrees>
            </Position>
            <AltitudeMeters>574.5999755859375</AltitudeMeters>
            <DistanceMeters>NAN</DistanceMeters>
          </Trackpoint>
          <Trackpoint>
            <Time>2019-10-05T15:39:37.000Z</Time>
            <Position>
              <LatitudeDegrees>41.50579755194485187530517578125</LatitudeDegrees>
              <LongitudeDegrees>-5.7438682951033115386962890625</LongitudeDegrees>
            </Position>
            <AltitudeMeters>574.79998779296875</AltitudeMeters>
            <DistanceMeters>NAN</DistanceMeters>
          </Trackpoint>
          <Trackpoint>
            <Time>2019-10-05T15:39:39.000Z</Time>
            <Position>
              <LatitudeDegrees>41.50579755194485187530517578125</LatitudeDegrees>
              <LongitudeDegrees>-5.7438682951033115386962890625</LongitudeDegrees>
            </Position>
            <AltitudeMeters>574.5999755859375</AltitudeMeters>
            <DistanceMeters>NAN</DistanceMeters>
          </Trackpoint>
          <Trackpoint>
            <Time>2019-10-05T15:39:40.000Z</Time>
            <Position>
              <LatitudeDegrees>41.50579755194485187530517578125</LatitudeDegrees>
              <LongitudeDegrees>-5.7438682951033115386962890625</LongitudeDegrees>
            </Position>
            <AltitudeMeters>574.4000244140625</AltitudeMeters>
            <DistanceMeters>NAN</DistanceMeters>
          </Trackpoint>
          <Trackpoint>
            <Time>2019-10-05T15:39:44.000Z</Time>
            <Position>
              <LatitudeDegrees>41.50579755194485187530517578125</LatitudeDegrees>
              <LongitudeDegrees>-5.7438682951033115386962890625</LongitudeDegrees>
            </Position>
            <AltitudeMeters>574.5999755859375</AltitudeMeters>
            <DistanceMeters>NAN</DistanceMeters>
          </Trackpoint>
          <Trackpoint>
            <Time>2019-10-05T15:39:46.000Z</Time>
            <Position>
              <LatitudeDegrees>41.50579755194485187530517578125</LatitudeDegrees>
              <LongitudeDegrees>-5.7438682951033115386962890625</LongitudeDegrees>
            </Position>
            <AltitudeMeters>574.5999755859375</AltitudeMeters>
            <DistanceMeters>NAN</DistanceMeters>
          </Trackpoint>
          <Trackpoint>
            <Time>2019-10-05T15:39:50.000Z</Time>
            <Position>
              <LatitudeDegrees>41.50579755194485187530517578125</LatitudeDegrees>
              <LongitudeDegrees>-5.7438682951033115386962890625</LongitudeDegrees>
            </Position>
            <AltitudeMeters>574.5999755859375</AltitudeMeters>
            <DistanceMeters>NAN</DistanceMeters>
          </Trackpoint>
          <Trackpoint>
            <Time>2019-10-05T15:39:54.000Z</Time>
            <Position>
              <LatitudeDegrees>41.50579755194485187530517578125</LatitudeDegrees>
              <LongitudeDegrees>-5.7438682951033115386962890625</LongitudeDegrees>
            </Position>
            <AltitudeMeters>574.5999755859375</AltitudeMeters>
            <DistanceMeters>NAN</DistanceMeters>
          </Trackpoint>
          <Trackpoint>
            <Time>2019-10-05T15:39:58.000Z</Time>
            <Position>
              <LatitudeDegrees>41.50579755194485187530517578125</LatitudeDegrees>
              <LongitudeDegrees>-5.7438682951033115386962890625</LongitudeDegrees>
            </Position>
            <AltitudeMeters>574.5999755859375</AltitudeMeters>
            <DistanceMeters>NAN</DistanceMeters>
          </Trackpoint>
          <Trackpoint>
            <Time>2019-10-05T15:40:05.000Z</Time>
            <Position>
              <LatitudeDegrees>41.50579755194485187530517578125</LatitudeDegrees>
              <LongitudeDegrees>-5.7438682951033115386962890625</LongitudeDegrees>
            </Position>
            <AltitudeMeters>574.4000244140625</AltitudeMeters>
            <DistanceMeters>NAN</DistanceMeters>
          </Trackpoint>
          <Trackpoint>
            <Time>2019-10-05T15:40:13.000Z</Time>
            <Position>
              <LatitudeDegrees>41.5057885833084583282470703125</LatitudeDegrees>
              <LongitudeDegrees>-5.7438847236335277557373046875</LongitudeDegrees>
            </Position>
            <AltitudeMeters>574.4000244140625</AltitudeMeters>
            <DistanceMeters>NAN</DistanceMeters>
          </Trackpoint>
          <Trackpoint>
            <Time>2019-10-05T15:40:14.000Z</Time>
            <Position>
              <LatitudeDegrees>41.5057875774800777435302734375</LatitudeDegrees>
              <LongitudeDegrees>-5.74388883076608180999755859375</LongitudeDegrees>
            </Position>
            <AltitudeMeters>574.5999755859375</AltitudeMeters>
            <DistanceMeters>NAN</DistanceMeters>
          </Trackpoint>
          <Trackpoint>
            <Time>2019-10-06T08:25:32.000Z</Time>
            <Position>
              <LatitudeDegrees>41.5039616636931896209716796875</LatitudeDegrees>
              <LongitudeDegrees>-5.73989166878163814544677734375</LongitudeDegrees>
            </Position>
            <AltitudeMeters>620</AltitudeMeters>
            <DistanceMeters>NAN</DistanceMeters>
          </Trackpoint>
          <Trackpoint>
            <Time>2019-10-06T08:25:33.000Z</Time>
            <Position>
              <LatitudeDegrees>41.503885053098201751708984375</LatitudeDegrees>
              <LongitudeDegrees>-5.73989585973322391510009765625</LongitudeDegrees>
            </Position>
            <AltitudeMeters>620</AltitudeMeters>
            <DistanceMeters>NAN</DistanceMeters>
          </Trackpoint>
          <Trackpoint>
            <Time>2019-10-06T08:25:37.000Z</Time>
            <Position>
              <LatitudeDegrees>41.5035821311175823211669921875</LatitudeDegrees>
              <LongitudeDegrees>-5.73991480283439159393310546875</LongitudeDegrees>
            </Position>
            <AltitudeMeters>619.79998779296875</AltitudeMeters>
            <DistanceMeters>NAN</DistanceMeters>
          </Trackpoint>
          <Trackpoint>
            <Time>2019-10-06T08:25:38.000Z</Time>
            <Position>
              <LatitudeDegrees>41.5035093761980533599853515625</LatitudeDegrees>
              <LongitudeDegrees>-5.73991589248180389404296875</LongitudeDegrees>
            </Position>
            <AltitudeMeters>618.79998779296875</AltitudeMeters>
            <DistanceMeters>NAN</DistanceMeters>
          </Trackpoint>
          <Trackpoint>
            <Time>2019-10-06T08:25:42.000Z</Time>
            <Position>
              <LatitudeDegrees>41.5031948871910572052001953125</LatitudeDegrees>
              <LongitudeDegrees>-5.7399179041385650634765625</LongitudeDegrees>
            </Position>
            <AltitudeMeters>617.79998779296875</AltitudeMeters>
            <DistanceMeters>NAN</DistanceMeters>
          </Trackpoint>
          <Trackpoint>
            <Time>2019-10-06T08:25:44.000Z</Time>
            <Position>
              <LatitudeDegrees>41.50303521193563938140869140625</LatitudeDegrees>
              <LongitudeDegrees>-5.73992435820400714874267578125</LongitudeDegrees>
            </Position>
            <AltitudeMeters>617</AltitudeMeters>
            <DistanceMeters>NAN</DistanceMeters>
          </Trackpoint>
          <Trackpoint>
            <Time>2019-10-06T08:25:45.000Z</Time>
            <Position>
              <LatitudeDegrees>41.502954997122287750244140625</LatitudeDegrees>
              <LongitudeDegrees>-5.73991966433823108673095703125</LongitudeDegrees>
            </Position>
            <AltitudeMeters>616.4000244140625</AltitudeMeters>
            <DistanceMeters>NAN</DistanceMeters>
          </Trackpoint>
          <Trackpoint>
            <Time>2019-10-06T08:25:47.000Z</Time>
            <Position>
              <LatitudeDegrees>41.502810157835483551025390625</LatitudeDegrees>
              <LongitudeDegrees>-5.73990725912153720855712890625</LongitudeDegrees>
            </Position>
            <AltitudeMeters>614.79998779296875</AltitudeMeters>
            <DistanceMeters>NAN</DistanceMeters>
          </Trackpoint>
          <Trackpoint>
            <Time>2019-10-06T08:25:49.000Z</Time>
            <Position>
              <LatitudeDegrees>41.50269021280109882354736328125</LatitudeDegrees>
              <LongitudeDegrees>-5.73989569209516048431396484375</LongitudeDegrees>
            </Position>
            <AltitudeMeters>615</AltitudeMeters>
            <DistanceMeters>NAN</DistanceMeters>
          </Trackpoint>
          <Trackpoint>
            <Time>2019-10-06T08:25:53.000Z</Time>
            <Position>
              <LatitudeDegrees>41.502435319125652313232421875</LatitudeDegrees>
              <LongitudeDegrees>-5.7398991286754608154296875</LongitudeDegrees>
            </Position>
            <AltitudeMeters>613.79998779296875</AltitudeMeters>
            <DistanceMeters>NAN</DistanceMeters>
          </Trackpoint>
          <Trackpoint>
            <Time>2019-10-06T08:25:54.000Z</Time>
            <Position>
              <LatitudeDegrees>41.50236851535737514495849609375</LatitudeDegrees>
              <LongitudeDegrees>-5.73989770375192165374755859375</LongitudeDegrees>
            </Position>
            <AltitudeMeters>613.5999755859375</AltitudeMeters>
            <DistanceMeters>NAN</DistanceMeters>
          </Trackpoint>
          <Trackpoint>
            <Time>2019-10-06T08:25:58.000Z</Time>
            <Position>
              <LatitudeDegrees>41.5021132864058017730712890625</LatitudeDegrees>
              <LongitudeDegrees>-5.73988529853522777557373046875</LongitudeDegrees>
            </Position>
            <AltitudeMeters>613.5999755859375</AltitudeMeters>
            <DistanceMeters>NAN</DistanceMeters>
          </Trackpoint>
          <Trackpoint>
            <Time>2019-10-06T08:25:59.000Z</Time>
            <Position>
              <LatitudeDegrees>41.5020489133894443511962890625</LatitudeDegrees>
              <LongitudeDegrees>-5.73988663963973522186279296875</LongitudeDegrees>
            </Position>
            <AltitudeMeters>613.5999755859375</AltitudeMeters>
            <DistanceMeters>NAN</DistanceMeters>
          </Trackpoint>
          <Trackpoint>
            <Time>2019-10-06T08:26:00.000Z</Time>
            <Position>
              <LatitudeDegrees>41.5019877254962921142578125</LatitudeDegrees>
              <LongitudeDegrees>-5.73988462798297405242919921875</LongitudeDegrees>
            </Position>
            <AltitudeMeters>613.79998779296875</AltitudeMeters>
            <DistanceMeters>NAN</DistanceMeters>
          </Trackpoint>
          <Trackpoint>
            <Time>2019-10-06T08:26:07.000Z</Time>
            <Position>
              <LatitudeDegrees>41.5015671215951442718505859375</LatitudeDegrees>
              <LongitudeDegrees>-5.739886723458766937255859375</LongitudeDegrees>
            </Position>
            <AltitudeMeters>613.79998779296875</AltitudeMeters>
            <DistanceMeters>NAN</DistanceMeters>
          </Trackpoint>
          <Trackpoint>
            <Time>2019-10-06T08:26:08.000Z</Time>
            <Position>
              <LatitudeDegrees>41.50150903500616550445556640625</LatitudeDegrees>
              <LongitudeDegrees>-5.7398857176303863525390625</LongitudeDegrees>
            </Position>
            <AltitudeMeters>613.79998779296875</AltitudeMeters>
            <DistanceMeters>NAN</DistanceMeters>
          </Trackpoint>
          <Trackpoint>
            <Time>2019-10-06T08:26:11.000Z</Time>
            <Position>
              <LatitudeDegrees>41.50133435614407062530517578125</LatitudeDegrees>
              <LongitudeDegrees>-5.7398815266788005828857421875</LongitudeDegrees>
            </Position>
            <AltitudeMeters>613.5999755859375</AltitudeMeters>
            <DistanceMeters>NAN</DistanceMeters>
          </Trackpoint>
          <Trackpoint>
            <Time>2019-10-06T08:26:16.000Z</Time>
            <Position>
              <LatitudeDegrees>41.501047611236572265625</LatitudeDegrees>
              <LongitudeDegrees>-5.73989837430417537689208984375</LongitudeDegrees>
            </Position>
            <AltitudeMeters>613.79998779296875</AltitudeMeters>
            <DistanceMeters>NAN</DistanceMeters>
          </Trackpoint>
          <Trackpoint>
            <Time>2019-10-06T08:26:20.000Z</Time>
            <Position>
              <LatitudeDegrees>41.5008633770048618316650390625</LatitudeDegrees>
              <LongitudeDegrees>-5.73990625329315662384033203125</LongitudeDegrees>
            </Position>
            <AltitudeMeters>613.5999755859375</AltitudeMeters>
            <DistanceMeters>NAN</DistanceMeters>
          </Trackpoint>
          <Trackpoint>
            <Time>2019-10-06T08:26:21.000Z</Time>
            <Position>
              <LatitudeDegrees>41.50081668980419635772705078125</LatitudeDegrees>
              <LongitudeDegrees>-5.7399120368063449859619140625</LongitudeDegrees>
            </Position>
            <AltitudeMeters>614</AltitudeMeters>
            <DistanceMeters>NAN</DistanceMeters>
          </Trackpoint>
          <Trackpoint>
            <Time>2019-10-06T08:26:25.000Z</Time>
            <Position>
              <LatitudeDegrees>41.50063849054276943206787109375</LatitudeDegrees>
              <LongitudeDegrees>-5.73993357829749584197998046875</LongitudeDegrees>
            </Position>
            <AltitudeMeters>613.5999755859375</AltitudeMeters>
            <DistanceMeters>NAN</DistanceMeters>
          </Trackpoint>
          <Trackpoint>
            <Time>2019-10-06T08:26:27.000Z</Time>
            <Position>
              <LatitudeDegrees>41.500545702874660491943359375</LatitudeDegrees>
              <LongitudeDegrees>-5.7399435527622699737548828125</LongitudeDegrees>
            </Position>
            <AltitudeMeters>613.5999755859375</AltitudeMeters>
            <DistanceMeters>NAN</DistanceMeters>
          </Trackpoint>
          <Trackpoint>
            <Time>2019-10-06T08:26:29.000Z</Time>
            <Position>
              <LatitudeDegrees>41.50045040063560009002685546875</LatitudeDegrees>
              <LongitudeDegrees>-5.7399512641131877899169921875</LongitudeDegrees>
            </Position>
            <AltitudeMeters>613.79998779296875</AltitudeMeters>
            <DistanceMeters>NAN</DistanceMeters>
          </Trackpoint>
          <Trackpoint>
            <Time>2019-10-06T08:26:31.000Z</Time>
            <Position>
              <LatitudeDegrees>41.500357277691364288330078125</LatitudeDegrees>
              <LongitudeDegrees>-5.73996844701468944549560546875</LongitudeDegrees>
            </Position>
            <AltitudeMeters>614</AltitudeMeters>
            <DistanceMeters>NAN</DistanceMeters>
          </Trackpoint>
          <Trackpoint>
            <Time>2019-10-06T08:26:32.000Z</Time>
            <Position>
              <LatitudeDegrees>41.5003054775297641754150390625</LatitudeDegrees>
              <LongitudeDegrees>-5.7399723865091800689697265625</LongitudeDegrees>
            </Position>
            <AltitudeMeters>613.79998779296875</AltitudeMeters>
            <DistanceMeters>NAN</DistanceMeters>
          </Trackpoint>
          <Trackpoint>
            <Time>2019-10-06T08:26:36.000Z</Time>
            <Position>
              <LatitudeDegrees>41.50010473094880580902099609375</LatitudeDegrees>
              <LongitudeDegrees>-5.73999292217195034027099609375</LongitudeDegrees>
            </Position>
            <AltitudeMeters>613.79998779296875</AltitudeMeters>
            <DistanceMeters>NAN</DistanceMeters>
          </Trackpoint>
          <Trackpoint>
            <Time>2019-10-06T08:26:41.000Z</Time>
            <Position>
              <LatitudeDegrees>41.4998474903404712677001953125</LatitudeDegrees>
              <LongitudeDegrees>-5.73999376036226749420166015625</LongitudeDegrees>
            </Position>
            <AltitudeMeters>614.20001220703125</AltitudeMeters>
            <DistanceMeters>NAN</DistanceMeters>
          </Trackpoint>
          <Trackpoint>
            <Time>2019-10-06T08:26:43.000Z</Time>
            <Position>
              <LatitudeDegrees>41.49973793886601924896240234375</LatitudeDegrees>
              <LongitudeDegrees>-5.73999174870550632476806640625</LongitudeDegrees>
            </Position>
            <AltitudeMeters>614</AltitudeMeters>
            <DistanceMeters>NAN</DistanceMeters>
          </Trackpoint>
          <Trackpoint>
            <Time>2019-10-06T08:26:50.000Z</Time>
            <Position>
              <LatitudeDegrees>41.49936226196587085723876953125</LatitudeDegrees>
              <LongitudeDegrees>-5.73998051695525646209716796875</LongitudeDegrees>
            </Position>
            <AltitudeMeters>613.79998779296875</AltitudeMeters>
            <DistanceMeters>NAN</DistanceMeters>
          </Trackpoint>
          <Trackpoint>
            <Time>2019-10-06T08:26:57.000Z</Time>
            <Position>
              <LatitudeDegrees>41.498975269496440887451171875</LatitudeDegrees>
              <LongitudeDegrees>-5.73996727354824542999267578125</LongitudeDegrees>
            </Position>
            <AltitudeMeters>613.5999755859375</AltitudeMeters>
            <DistanceMeters>NAN</DistanceMeters>
          </Trackpoint>
          <Trackpoint>
            <Time>2019-10-06T08:27:00.000Z</Time>
            <Position>
              <LatitudeDegrees>41.498859263956546783447265625</LatitudeDegrees>
              <LongitudeDegrees>-5.73996492661535739898681640625</LongitudeDegrees>
            </Position>
            <AltitudeMeters>614.79998779296875</AltitudeMeters>
            <DistanceMeters>NAN</DistanceMeters>
          </Trackpoint>
          <Trackpoint>
            <Time>2019-10-06T08:27:04.000Z</Time>
            <Position>
              <LatitudeDegrees>41.498829759657382965087890625</LatitudeDegrees>
              <LongitudeDegrees>-5.73995470069348812103271484375</LongitudeDegrees>
            </Position>
            <AltitudeMeters>615.20001220703125</AltitudeMeters>
            <DistanceMeters>NAN</DistanceMeters>
          </Trackpoint>
          <Trackpoint>
            <Time>2019-10-06T08:27:10.000Z</Time>
            <Position>
              <LatitudeDegrees>41.498829759657382965087890625</LatitudeDegrees>
              <LongitudeDegrees>-5.73995470069348812103271484375</LongitudeDegrees>
            </Position>
            <AltitudeMeters>615.4000244140625</AltitudeMeters>
            <DistanceMeters>NAN</DistanceMeters>
          </Trackpoint>
          <Trackpoint>
            <Time>2019-10-06T08:27:12.000Z</Time>
            <Position>
              <LatitudeDegrees>41.498829759657382965087890625</LatitudeDegrees>
              <LongitudeDegrees>-5.73995470069348812103271484375</LongitudeDegrees>
            </Position>
            <AltitudeMeters>615.4000244140625</AltitudeMeters>
            <DistanceMeters>NAN</DistanceMeters>
          </Trackpoint>
          <Trackpoint>
            <Time>2019-10-06T08:27:14.000Z</Time>
            <Position>
              <LatitudeDegrees>41.498829759657382965087890625</LatitudeDegrees>
              <LongitudeDegrees>-5.73995470069348812103271484375</LongitudeDegrees>
            </Position>
            <AltitudeMeters>615.20001220703125</AltitudeMeters>
            <DistanceMeters>NAN</DistanceMeters>
          </Trackpoint>
          <Trackpoint>
            <Time>2019-10-06T08:27:15.000Z</Time>
            <Position>
              <LatitudeDegrees>41.498829759657382965087890625</LatitudeDegrees>
              <LongitudeDegrees>-5.73995470069348812103271484375</LongitudeDegrees>
            </Position>
            <AltitudeMeters>615</AltitudeMeters>
            <DistanceMeters>NAN</DistanceMeters>
          </Trackpoint>
          <Trackpoint>
            <Time>2019-10-06T08:27:21.000Z</Time>
            <Position>
              <LatitudeDegrees>41.498829759657382965087890625</LatitudeDegrees>
              <LongitudeDegrees>-5.73995470069348812103271484375</LongitudeDegrees>
            </Position>
            <AltitudeMeters>614.79998779296875</AltitudeMeters>
            <DistanceMeters>NAN</DistanceMeters>
          </Trackpoint>
          <Trackpoint>
            <Time>2019-10-06T08:27:23.000Z</Time>
            <Position>
              <LatitudeDegrees>41.498829759657382965087890625</LatitudeDegrees>
              <LongitudeDegrees>-5.73995470069348812103271484375</LongitudeDegrees>
            </Position>
            <AltitudeMeters>615.20001220703125</AltitudeMeters>
            <DistanceMeters>NAN</DistanceMeters>
          </Trackpoint>
          <Trackpoint>
            <Time>2019-10-06T08:27:24.000Z</Time>
            <Position>
              <LatitudeDegrees>41.498829759657382965087890625</LatitudeDegrees>
              <LongitudeDegrees>-5.73995470069348812103271484375</LongitudeDegrees>
            </Position>
            <AltitudeMeters>615.20001220703125</AltitudeMeters>
            <DistanceMeters>NAN</DistanceMeters>
          </Trackpoint>
          <Trackpoint>
            <Time>2019-10-06T08:27:32.000Z</Time>
            <Position>
              <LatitudeDegrees>41.498829759657382965087890625</LatitudeDegrees>
              <LongitudeDegrees>-5.73995470069348812103271484375</LongitudeDegrees>
            </Position>
            <AltitudeMeters>614.79998779296875</AltitudeMeters>
            <DistanceMeters>NAN</DistanceMeters>
          </Trackpoint>
          <Trackpoint>
            <Time>2019-10-06T08:27:36.000Z</Time>
            <Position>
              <LatitudeDegrees>41.498829759657382965087890625</LatitudeDegrees>
              <LongitudeDegrees>-5.73995470069348812103271484375</LongitudeDegrees>
            </Position>
            <AltitudeMeters>615</AltitudeMeters>
            <DistanceMeters>NAN</DistanceMeters>
          </Trackpoint>
          <Trackpoint>
            <Time>2019-10-06T08:27:39.000Z</Time>
            <Position>
              <LatitudeDegrees>41.498829759657382965087890625</LatitudeDegrees>
              <LongitudeDegrees>-5.73995470069348812103271484375</LongitudeDegrees>
            </Position>
            <AltitudeMeters>615</AltitudeMeters>
            <DistanceMeters>NAN</DistanceMeters>
          </Trackpoint>
          <Trackpoint>
            <Time>2019-10-06T08:27:41.000Z</Time>
            <Position>
              <LatitudeDegrees>41.49882313795387744903564453125</LatitudeDegrees>
              <LongitudeDegrees>-5.73995553888380527496337890625</LongitudeDegrees>
            </Position>
            <AltitudeMeters>614.79998779296875</AltitudeMeters>
            <DistanceMeters>NAN</DistanceMeters>
          </Trackpoint>
          <Trackpoint>
            <Time>2019-10-06T08:27:46.000Z</Time>
            <Position>
              <LatitudeDegrees>41.498635299503803253173828125</LatitudeDegrees>
              <LongitudeDegrees>-5.73992720805108547210693359375</LongitudeDegrees>
            </Position>
            <AltitudeMeters>614.5999755859375</AltitudeMeters>
            <DistanceMeters>NAN</DistanceMeters>
          </Trackpoint>
          <Trackpoint>
            <Time>2019-10-06T08:27:47.000Z</Time>
            <Position>
              <LatitudeDegrees>41.49859246797859668731689453125</LatitudeDegrees>
              <LongitudeDegrees>-5.739924609661102294921875</LongitudeDegrees>
            </Position>
            <AltitudeMeters>614.5999755859375</AltitudeMeters>
            <DistanceMeters>NAN</DistanceMeters>
          </Trackpoint>
          <Trackpoint>
            <Time>2019-10-06T08:27:49.000Z</Time>
            <Position>
              <LatitudeDegrees>41.49849490262567996978759765625</LatitudeDegrees>
              <LongitudeDegrees>-5.7399170659482479095458984375</LongitudeDegrees>
            </Position>
            <AltitudeMeters>614.4000244140625</AltitudeMeters>
            <DistanceMeters>NAN</DistanceMeters>
          </Trackpoint>
          <Trackpoint>
            <Time>2019-10-06T08:27:50.000Z</Time>
            <Position>
              <LatitudeDegrees>41.4984463714063167572021484375</LatitudeDegrees>
              <LongitudeDegrees>-5.739912204444408416748046875</LongitudeDegrees>
            </Position>
            <AltitudeMeters>614.4000244140625</AltitudeMeters>
            <DistanceMeters>NAN</DistanceMeters>
          </Trackpoint>
          <Trackpoint>
            <Time>2019-10-06T08:27:52.000Z</Time>
            <Position>
              <LatitudeDegrees>41.49834805168211460113525390625</LatitudeDegrees>
              <LongitudeDegrees>-5.73989979922771453857421875</LongitudeDegrees>
            </Position>
            <AltitudeMeters>614.20001220703125</AltitudeMeters>
            <DistanceMeters>NAN</DistanceMeters>
          </Trackpoint>
          <Trackpoint>
            <Time>2019-10-06T08:27:54.000Z</Time>
            <Position>
              <LatitudeDegrees>41.49824763648211956024169921875</LatitudeDegrees>
              <LongitudeDegrees>-5.73989468626677989959716796875</LongitudeDegrees>
            </Position>
            <AltitudeMeters>613.79998779296875</AltitudeMeters>
            <DistanceMeters>NAN</DistanceMeters>
          </Trackpoint>
          <Trackpoint>
            <Time>2019-10-06T08:27:58.000Z</Time>
            <Position>
              <LatitudeDegrees>41.49804512970149517059326171875</LatitudeDegrees>
              <LongitudeDegrees>-5.7398942671716213226318359375</LongitudeDegrees>
            </Position>
            <AltitudeMeters>613.79998779296875</AltitudeMeters>
            <DistanceMeters>NAN</DistanceMeters>
          </Trackpoint>
          <Trackpoint>
            <Time>2019-10-06T08:27:59.000Z</Time>
            <Position>
              <LatitudeDegrees>41.4979940839111804962158203125</LatitudeDegrees>
              <LongitudeDegrees>-5.7398932613432407379150390625</LongitudeDegrees>
            </Position>
            <AltitudeMeters>613.79998779296875</AltitudeMeters>
            <DistanceMeters>NAN</DistanceMeters>
          </Trackpoint>
          <Trackpoint>
            <Time>2019-10-06T08:28:06.000Z</Time>
            <Position>
              <LatitudeDegrees>41.49762310087680816650390625</LatitudeDegrees>
              <LongitudeDegrees>-5.7399130426347255706787109375</LongitudeDegrees>
            </Position>
            <AltitudeMeters>613.5999755859375</AltitudeMeters>
            <DistanceMeters>NAN</DistanceMeters>
          </Trackpoint>
          <Trackpoint>
            <Time>2019-10-06T08:28:09.000Z</Time>
            <Position>
              <LatitudeDegrees>41.49745403788983821868896484375</LatitudeDegrees>
              <LongitudeDegrees>-5.739946402609348297119140625</LongitudeDegrees>
            </Position>
            <AltitudeMeters>613</AltitudeMeters>
            <DistanceMeters>NAN</DistanceMeters>
          </Trackpoint>
          <Trackpoint>
            <Time>2019-10-06T08:28:13.000Z</Time>
            <Position>
              <LatitudeDegrees>41.497224457561969757080078125</LatitudeDegrees>
              <LongitudeDegrees>-5.73999744839966297149658203125</LongitudeDegrees>
            </Position>
            <AltitudeMeters>612.79998779296875</AltitudeMeters>
            <DistanceMeters>NAN</DistanceMeters>
          </Trackpoint>
          <Trackpoint>
            <Time>2019-10-06T08:28:18.000Z</Time>
            <Position>
              <LatitudeDegrees>41.49695280008018016815185546875</LatitudeDegrees>
              <LongitudeDegrees>-5.74010238982737064361572265625</LongitudeDegrees>
            </Position>
            <AltitudeMeters>613</AltitudeMeters>
            <DistanceMeters>NAN</DistanceMeters>
          </Trackpoint>
          <Trackpoint>
            <Time>2019-10-06T08:28:25.000Z</Time>
            <Position>
              <LatitudeDegrees>41.49656086228787899017333984375</LatitudeDegrees>
              <LongitudeDegrees>-5.74033708311617374420166015625</LongitudeDegrees>
            </Position>
            <AltitudeMeters>612.20001220703125</AltitudeMeters>
            <DistanceMeters>NAN</DistanceMeters>
          </Trackpoint>
          <Trackpoint>
            <Time>2019-10-06T08:28:32.000Z</Time>
            <Position>
              <LatitudeDegrees>41.49625089950859546661376953125</LatitudeDegrees>
              <LongitudeDegrees>-5.740521065890789031982421875</LongitudeDegrees>
            </Position>
            <AltitudeMeters>611.5999755859375</AltitudeMeters>
            <DistanceMeters>NAN</DistanceMeters>
          </Trackpoint>
          <Trackpoint>
            <Time>2019-10-06T08:28:36.000Z</Time>
            <Position>
              <LatitudeDegrees>41.4960493147373199462890625</LatitudeDegrees>
              <LongitudeDegrees>-5.74065727181732654571533203125</LongitudeDegrees>
            </Position>
            <AltitudeMeters>611.20001220703125</AltitudeMeters>
            <DistanceMeters>NAN</DistanceMeters>
          </Trackpoint>
          <Trackpoint>
            <Time>2019-10-06T08:28:40.000Z</Time>
            <Position>
              <LatitudeDegrees>41.49585016071796417236328125</LatitudeDegrees>
              <LongitudeDegrees>-5.7407869398593902587890625</LongitudeDegrees>
            </Position>
            <AltitudeMeters>610.5999755859375</AltitudeMeters>
            <DistanceMeters>NAN</DistanceMeters>
          </Trackpoint>
          <Trackpoint>
            <Time>2019-10-06T08:28:44.000Z</Time>
            <Position>
              <LatitudeDegrees>41.49563868530094623565673828125</LatitudeDegrees>
              <LongitudeDegrees>-5.74090738780796527862548828125</LongitudeDegrees>
            </Position>
            <AltitudeMeters>611</AltitudeMeters>
            <DistanceMeters>NAN</DistanceMeters>
          </Trackpoint>
          <Trackpoint>
            <Time>2019-10-06T08:28:52.000Z</Time>
            <Position>
              <LatitudeDegrees>41.49524456821382045745849609375</LatitudeDegrees>
              <LongitudeDegrees>-5.74116974137723445892333984375</LongitudeDegrees>
            </Position>
            <AltitudeMeters>610.4000244140625</AltitudeMeters>
            <DistanceMeters>NAN</DistanceMeters>
          </Trackpoint>
          <Trackpoint>
            <Time>2019-10-06T08:29:00.000Z</Time>
            <Position>
              <LatitudeDegrees>41.49484911002218723297119140625</LatitudeDegrees>
              <LongitudeDegrees>-5.741423629224300384521484375</LongitudeDegrees>
            </Position>
            <AltitudeMeters>610.20001220703125</AltitudeMeters>
            <DistanceMeters>NAN</DistanceMeters>
          </Trackpoint>
          <Trackpoint>
            <Time>2019-10-06T08:29:08.000Z</Time>
            <Position>
              <LatitudeDegrees>41.49448013864457607269287109375</LatitudeDegrees>
              <LongitudeDegrees>-5.74163761921226978302001953125</LongitudeDegrees>
            </Position>
            <AltitudeMeters>610.5999755859375</AltitudeMeters>
            <DistanceMeters>NAN</DistanceMeters>
          </Trackpoint>
          <Trackpoint>
            <Time>2019-10-06T08:29:11.000Z</Time>
            <Position>
              <LatitudeDegrees>41.49436078034341335296630859375</LatitudeDegrees>
              <LongitudeDegrees>-5.74171121232211589813232421875</LongitudeDegrees>
            </Position>
            <AltitudeMeters>611.4000244140625</AltitudeMeters>
            <DistanceMeters>NAN</DistanceMeters>
          </Trackpoint>
          <Trackpoint>
            <Time>2019-10-06T08:29:12.000Z</Time>
            <Position>
              <LatitudeDegrees>41.494316942989826202392578125</LatitudeDegrees>
              <LongitudeDegrees>-5.7417379505932331085205078125</LongitudeDegrees>
            </Position>
            <AltitudeMeters>611.5999755859375</AltitudeMeters>
            <DistanceMeters>NAN</DistanceMeters>
          </Trackpoint>
          <Trackpoint>
            <Time>2019-10-06T08:29:16.000Z</Time>
            <Position>
              <LatitudeDegrees>41.49414871819317340850830078125</LatitudeDegrees>
              <LongitudeDegrees>-5.7418449036777019500732421875</LongitudeDegrees>
            </Position>
            <AltitudeMeters>611.4000244140625</AltitudeMeters>
            <DistanceMeters>NAN</DistanceMeters>
          </Trackpoint>
          <Trackpoint>
            <Time>2019-10-06T08:29:18.000Z</Time>
            <Position>
              <LatitudeDegrees>41.4940644800662994384765625</LatitudeDegrees>
              <LongitudeDegrees>-5.741904415190219879150390625</LongitudeDegrees>
            </Position>
            <AltitudeMeters>611.5999755859375</AltitudeMeters>
            <DistanceMeters>NAN</DistanceMeters>
          </Trackpoint>
          <Trackpoint>
            <Time>2019-10-06T08:29:20.000Z</Time>
            <Position>
              <LatitudeDegrees>41.49397722445428371429443359375</LatitudeDegrees>
              <LongitudeDegrees>-5.7419575564563274383544921875</LongitudeDegrees>
            </Position>
            <AltitudeMeters>611.79998779296875</AltitudeMeters>
            <DistanceMeters>NAN</DistanceMeters>
          </Trackpoint>
          <Trackpoint>
            <Time>2019-10-06T08:29:26.000Z</Time>
            <Position>
              <LatitudeDegrees>41.4937337301671504974365234375</LatitudeDegrees>
              <LongitudeDegrees>-5.74210164137184619903564453125</LongitudeDegrees>
            </Position>
            <AltitudeMeters>612.5999755859375</AltitudeMeters>
            <DistanceMeters>NAN</DistanceMeters>
          </Trackpoint>
          <Trackpoint>
            <Time>2019-10-06T08:29:28.000Z</Time>
            <Position>
              <LatitudeDegrees>41.493655107915401458740234375</LatitudeDegrees>
              <LongitudeDegrees>-5.7421550340950489044189453125</LongitudeDegrees>
            </Position>
            <AltitudeMeters>612.20001220703125</AltitudeMeters>
            <DistanceMeters>NAN</DistanceMeters>
          </Trackpoint>
          <Trackpoint>
            <Time>2019-10-06T08:29:31.000Z</Time>
            <Position>
              <LatitudeDegrees>41.4935436286032199859619140625</LatitudeDegrees>
              <LongitudeDegrees>-5.74223005212843418121337890625</LongitudeDegrees>
            </Position>
            <AltitudeMeters>612</AltitudeMeters>
            <DistanceMeters>NAN</DistanceMeters>
          </Trackpoint>
          <Trackpoint>
            <Time>2019-10-06T08:29:34.000Z</Time>
            <Position>
              <LatitudeDegrees>41.49343072436749935150146484375</LatitudeDegrees>
              <LongitudeDegrees>-5.7422945089638233184814453125</LongitudeDegrees>
            </Position>
            <AltitudeMeters>612.20001220703125</AltitudeMeters>
            <DistanceMeters>NAN</DistanceMeters>
          </Trackpoint>
          <Trackpoint>
            <Time>2019-10-06T08:29:36.000Z</Time>
            <Position>
              <LatitudeDegrees>41.49335972964763641357421875</LatitudeDegrees>
              <LongitudeDegrees>-5.7423387654125690460205078125</LongitudeDegrees>
            </Position>
            <AltitudeMeters>612.4000244140625</AltitudeMeters>
            <DistanceMeters>NAN</DistanceMeters>
          </Trackpoint>
          <Trackpoint>
            <Time>2019-10-06T08:29:38.000Z</Time>
            <Position>
              <LatitudeDegrees>41.4932931773364543914794921875</LatitudeDegrees>
              <LongitudeDegrees>-5.7423803396522998809814453125</LongitudeDegrees>
            </Position>
            <AltitudeMeters>612.4000244140625</AltitudeMeters>
            <DistanceMeters>NAN</DistanceMeters>
          </Trackpoint>
          <Trackpoint>
            <Time>2019-10-06T08:29:40.000Z</Time>
            <Position>
              <LatitudeDegrees>41.49321916513144969940185546875</LatitudeDegrees>
              <LongitudeDegrees>-5.74242333881556987762451171875</LongitudeDegrees>
            </Position>
            <AltitudeMeters>612.4000244140625</AltitudeMeters>
            <DistanceMeters>NAN</DistanceMeters>
          </Trackpoint>
          <Trackpoint>
            <Time>2019-10-06T08:29:41.000Z</Time>
            <Position>
              <LatitudeDegrees>41.4931822009384632110595703125</LatitudeDegrees>
              <LongitudeDegrees>-5.7424463890492916107177734375</LongitudeDegrees>
            </Position>
            <AltitudeMeters>612.5999755859375</AltitudeMeters>
            <DistanceMeters>NAN</DistanceMeters>
          </Trackpoint>
          <Trackpoint>
            <Time>2019-10-06T08:29:42.000Z</Time>
            <Position>
              <LatitudeDegrees>41.49314406327903270721435546875</LatitudeDegrees>
              <LongitudeDegrees>-5.74246667325496673583984375</LongitudeDegrees>
            </Position>
            <AltitudeMeters>612.79998779296875</AltitudeMeters>
            <DistanceMeters>NAN</DistanceMeters>
          </Trackpoint>
          <Trackpoint>
            <Time>2019-10-06T08:29:48.000Z</Time>
            <Position>
              <LatitudeDegrees>41.49291926063597202301025390625</LatitudeDegrees>
              <LongitudeDegrees>-5.74260975234210491180419921875</LongitudeDegrees>
            </Position>
            <AltitudeMeters>613.20001220703125</AltitudeMeters>
            <DistanceMeters>NAN</DistanceMeters>
          </Trackpoint>
          <Trackpoint>
            <Time>2019-10-06T08:29:49.000Z</Time>
            <Position>
              <LatitudeDegrees>41.4928844757378101348876953125</LatitudeDegrees>
              <LongitudeDegrees>-5.74263439513742923736572265625</LongitudeDegrees>
            </Position>
            <AltitudeMeters>613.4000244140625</AltitudeMeters>
            <DistanceMeters>NAN</DistanceMeters>
          </Trackpoint>
          <Trackpoint>
            <Time>2019-10-06T08:29:55.000Z</Time>
            <Position>
              <LatitudeDegrees>41.49266294203698635101318359375</LatitudeDegrees>
              <LongitudeDegrees>-5.7427789829671382904052734375</LongitudeDegrees>
            </Position>
            <AltitudeMeters>613.5999755859375</AltitudeMeters>
            <DistanceMeters>NAN</DistanceMeters>
          </Trackpoint>
          <Trackpoint>
            <Time>2019-10-06T08:29:58.000Z</Time>
            <Position>
              <LatitudeDegrees>41.4925522170960903167724609375</LatitudeDegrees>
              <LongitudeDegrees>-5.74284846894443035125732421875</LongitudeDegrees>
            </Position>
            <AltitudeMeters>613.79998779296875</AltitudeMeters>
            <DistanceMeters>NAN</DistanceMeters>
          </Trackpoint>
          <Trackpoint>
            <Time>2019-10-06T08:30:08.000Z</Time>
            <Position>
              <LatitudeDegrees>41.49218500591814517974853515625</LatitudeDegrees>
              <LongitudeDegrees>-5.743061117827892303466796875</LongitudeDegrees>
            </Position>
            <AltitudeMeters>614.4000244140625</AltitudeMeters>
            <DistanceMeters>NAN</DistanceMeters>
          </Trackpoint>
          <Trackpoint>
            <Time>2019-10-06T08:30:15.000Z</Time>
            <Position>
              <LatitudeDegrees>41.49193237535655498504638671875</LatitudeDegrees>
              <LongitudeDegrees>-5.74323688633739948272705078125</LongitudeDegrees>
            </Position>
            <AltitudeMeters>615.20001220703125</AltitudeMeters>
            <DistanceMeters>NAN</DistanceMeters>
          </Trackpoint>
          <Trackpoint>
            <Time>2019-10-06T08:30:16.000Z</Time>
            <Position>
              <LatitudeDegrees>41.4918959140777587890625</LatitudeDegrees>
              <LongitudeDegrees>-5.74327074922621250152587890625</LongitudeDegrees>
            </Position>
            <AltitudeMeters>614.79998779296875</AltitudeMeters>
            <DistanceMeters>NAN</DistanceMeters>
          </Trackpoint>
          <Trackpoint>
            <Time>2019-10-06T08:30:23.000Z</Time>
            <Position>
              <LatitudeDegrees>41.491636075079441070556640625</LatitudeDegrees>
              <LongitudeDegrees>-5.74345774948596954345703125</LongitudeDegrees>
            </Position>
            <AltitudeMeters>615.4000244140625</AltitudeMeters>
            <DistanceMeters>NAN</DistanceMeters>
          </Trackpoint>
          <Trackpoint>
            <Time>2019-10-06T08:30:26.000Z</Time>
            <Position>
              <LatitudeDegrees>41.49152987636625766754150390625</LatitudeDegrees>
              <LongitudeDegrees>-5.74353821575641632080078125</LongitudeDegrees>
            </Position>
            <AltitudeMeters>616</AltitudeMeters>
            <DistanceMeters>NAN</DistanceMeters>
          </Trackpoint>
          <Trackpoint>
            <Time>2019-10-06T08:30:28.000Z</Time>
            <Position>
              <LatitudeDegrees>41.49145712144672870635986328125</LatitudeDegrees>
              <LongitudeDegrees>-5.74358389712870121002197265625</LongitudeDegrees>
            </Position>
            <AltitudeMeters>616.20001220703125</AltitudeMeters>
            <DistanceMeters>NAN</DistanceMeters>
          </Trackpoint>
          <Trackpoint>
            <Time>2019-10-06T08:30:29.000Z</Time>
            <Position>
              <LatitudeDegrees>41.49141940288245677947998046875</LatitudeDegrees>
              <LongitudeDegrees>-5.74360066093504428863525390625</LongitudeDegrees>
            </Position>
            <AltitudeMeters>616.5999755859375</AltitudeMeters>
            <DistanceMeters>NAN</DistanceMeters>
          </Trackpoint>
          <Trackpoint>
            <Time>2019-10-06T08:30:35.000Z</Time>
            <Position>
              <LatitudeDegrees>41.4912144653499126434326171875</LatitudeDegrees>
              <LongitudeDegrees>-5.7437489368021488189697265625</LongitudeDegrees>
            </Position>
            <AltitudeMeters>617.20001220703125</AltitudeMeters>
            <DistanceMeters>NAN</DistanceMeters>
          </Trackpoint>
          <Trackpoint>
            <Time>2019-10-06T08:30:42.000Z</Time>
            <Position>
              <LatitudeDegrees>41.49097390472888946533203125</LatitudeDegrees>
              <LongitudeDegrees>-5.7439142279326915740966796875</LongitudeDegrees>
            </Position>
            <AltitudeMeters>618.4000244140625</AltitudeMeters>
            <DistanceMeters>NAN</DistanceMeters>
          </Trackpoint>
          <Trackpoint>
            <Time>2019-10-06T08:30:43.000Z</Time>
            <Position>
              <LatitudeDegrees>41.490939371287822723388671875</LatitudeDegrees>
              <LongitudeDegrees>-5.74393451213836669921875</LongitudeDegrees>
            </Position>
            <AltitudeMeters>618.20001220703125</AltitudeMeters>
            <DistanceMeters>NAN</DistanceMeters>
          </Trackpoint>
          <Trackpoint>
            <Time>2019-10-06T08:30:49.000Z</Time>
            <Position>
              <LatitudeDegrees>41.49072135798633098602294921875</LatitudeDegrees>
              <LongitudeDegrees>-5.744048841297626495361328125</LongitudeDegrees>
            </Position>
            <AltitudeMeters>619.20001220703125</AltitudeMeters>
            <DistanceMeters>NAN</DistanceMeters>
          </Trackpoint>
          <Trackpoint>
            <Time>2019-10-06T08:30:50.000Z</Time>
            <Position>
              <LatitudeDegrees>41.4906897582113742828369140625</LatitudeDegrees>
              <LongitudeDegrees>-5.74407155625522136688232421875</LongitudeDegrees>
            </Position>
            <AltitudeMeters>619.4000244140625</AltitudeMeters>
            <DistanceMeters>NAN</DistanceMeters>
          </Trackpoint>
          <Trackpoint>
            <Time>2019-10-06T08:30:54.000Z</Time>
            <Position>
              <LatitudeDegrees>41.49060535244643688201904296875</LatitudeDegrees>
              <LongitudeDegrees>-5.7441987097263336181640625</LongitudeDegrees>
            </Position>
            <AltitudeMeters>620.20001220703125</AltitudeMeters>
            <DistanceMeters>NAN</DistanceMeters>
          </Trackpoint>
          <Trackpoint>
            <Time>2019-10-06T08:30:55.000Z</Time>
            <Position>
              <LatitudeDegrees>41.4905878342688083648681640625</LatitudeDegrees>
              <LongitudeDegrees>-5.744231902062892913818359375</LongitudeDegrees>
            </Position>
            <AltitudeMeters>620.5999755859375</AltitudeMeters>
            <DistanceMeters>NAN</DistanceMeters>
          </Trackpoint>
          <Trackpoint>
            <Time>2019-10-06T08:30:59.000Z</Time>
            <Position>
              <LatitudeDegrees>41.4905563183128833770751953125</LatitudeDegrees>
              <LongitudeDegrees>-5.7443889789283275604248046875</LongitudeDegrees>
            </Position>
            <AltitudeMeters>621.4000244140625</AltitudeMeters>
            <DistanceMeters>NAN</DistanceMeters>
          </Trackpoint>
          <Trackpoint>
            <Time>2019-10-06T08:31:04.000Z</Time>
            <Position>
              <LatitudeDegrees>41.490514241158962249755859375</LatitudeDegrees>
              <LongitudeDegrees>-5.74461353011429309844970703125</LongitudeDegrees>
            </Position>
            <AltitudeMeters>621.5999755859375</AltitudeMeters>
            <DistanceMeters>NAN</DistanceMeters>
          </Trackpoint>
          <Trackpoint>
            <Time>2019-10-06T08:31:06.000Z</Time>
            <Position>
              <LatitudeDegrees>41.4904775284230709075927734375</LatitudeDegrees>
              <LongitudeDegrees>-5.7446997798979282379150390625</LongitudeDegrees>
            </Position>
            <AltitudeMeters>621.79998779296875</AltitudeMeters>
            <DistanceMeters>NAN</DistanceMeters>
          </Trackpoint>
          <Trackpoint>
            <Time>2019-10-06T08:31:11.000Z</Time>
            <Position>
              <LatitudeDegrees>41.49031919427216053009033203125</LatitudeDegrees>
              <LongitudeDegrees>-5.74483833275735378265380859375</LongitudeDegrees>
            </Position>
            <AltitudeMeters>621.20001220703125</AltitudeMeters>
            <DistanceMeters>NAN</DistanceMeters>
          </Trackpoint>
          <Trackpoint>
            <Time>2019-10-06T08:31:12.000Z</Time>
            <Position>
              <LatitudeDegrees>41.4902798831462860107421875</LatitudeDegrees>
              <LongitudeDegrees>-5.74484269134700298309326171875</LongitudeDegrees>
            </Position>
            <AltitudeMeters>621.4000244140625</AltitudeMeters>
            <DistanceMeters>NAN</DistanceMeters>
          </Trackpoint>
          <Trackpoint>
            <Time>2019-10-06T08:31:15.000Z</Time>
            <Position>
              <LatitudeDegrees>41.4901637099683284759521484375</LatitudeDegrees>
              <LongitudeDegrees>-5.74481653980910778045654296875</LongitudeDegrees>
            </Position>
            <AltitudeMeters>621.79998779296875</AltitudeMeters>
            <DistanceMeters>NAN</DistanceMeters>
          </Trackpoint>
          <Trackpoint>
            <Time>2019-10-06T08:31:19.000Z</Time>
            <Position>
              <LatitudeDegrees>41.49003672413527965545654296875</LatitudeDegrees>
              <LongitudeDegrees>-5.7446803338825702667236328125</LongitudeDegrees>
            </Position>
            <AltitudeMeters>622.4000244140625</AltitudeMeters>
            <DistanceMeters>NAN</DistanceMeters>
          </Trackpoint>
          <Trackpoint>
            <Time>2019-10-06T08:31:21.000Z</Time>
            <Position>
              <LatitudeDegrees>41.4899741113185882568359375</LatitudeDegrees>
              <LongitudeDegrees>-5.7446062378585338592529296875</LongitudeDegrees>
            </Position>
            <AltitudeMeters>622.4000244140625</AltitudeMeters>
            <DistanceMeters>NAN</DistanceMeters>
          </Trackpoint>
          <Trackpoint>
            <Time>2019-10-06T08:31:24.000Z</Time>
            <Position>
              <LatitudeDegrees>41.4898844249546527862548828125</LatitudeDegrees>
              <LongitudeDegrees>-5.7444942556321620941162109375</LongitudeDegrees>
            </Position>
            <AltitudeMeters>622.5999755859375</AltitudeMeters>
            <DistanceMeters>NAN</DistanceMeters>
          </Trackpoint>
          <Trackpoint>
            <Time>2019-10-06T08:31:25.000Z</Time>
            <Position>
              <LatitudeDegrees>41.48984796367585659027099609375</LatitudeDegrees>
              <LongitudeDegrees>-5.744473300874233245849609375</LongitudeDegrees>
            </Position>
            <AltitudeMeters>622.79998779296875</AltitudeMeters>
            <DistanceMeters>NAN</DistanceMeters>
          </Trackpoint>
          <Trackpoint>
            <Time>2019-10-06T08:31:26.000Z</Time>
            <Position>
              <LatitudeDegrees>41.48981024511158466339111328125</LatitudeDegrees>
              <LongitudeDegrees>-5.7444587163627147674560546875</LongitudeDegrees>
            </Position>
            <AltitudeMeters>622.5999755859375</AltitudeMeters>
            <DistanceMeters>NAN</DistanceMeters>
          </Trackpoint>
          <Trackpoint>
            <Time>2019-10-06T08:31:33.000Z</Time>
            <Position>
              <LatitudeDegrees>41.48957488127052783966064453125</LatitudeDegrees>
              <LongitudeDegrees>-5.74437397532165050506591796875</LongitudeDegrees>
            </Position>
            <AltitudeMeters>623.20001220703125</AltitudeMeters>
            <DistanceMeters>NAN</DistanceMeters>
          </Trackpoint>
          <Trackpoint>
            <Time>2019-10-06T08:31:37.000Z</Time>
            <Position>
              <LatitudeDegrees>41.48944127373397350311279296875</LatitudeDegrees>
              <LongitudeDegrees>-5.74433156289160251617431640625</LongitudeDegrees>
            </Position>
            <AltitudeMeters>623.4000244140625</AltitudeMeters>
            <DistanceMeters>NAN</DistanceMeters>
          </Trackpoint>
          <Trackpoint>
            <Time>2019-10-06T08:31:43.000Z</Time>
            <Position>
              <LatitudeDegrees>41.48924329318106174468994140625</LatitudeDegrees>
              <LongitudeDegrees>-5.74426920153200626373291015625</LongitudeDegrees>
            </Position>
            <AltitudeMeters>623.4000244140625</AltitudeMeters>
            <DistanceMeters>NAN</DistanceMeters>
          </Trackpoint>
          <Trackpoint>
            <Time>2019-10-06T08:31:49.000Z</Time>
            <Position>
              <LatitudeDegrees>41.48903810419142246246337890625</LatitudeDegrees>
              <LongitudeDegrees>-5.74419141747057437896728515625</LongitudeDegrees>
            </Position>
            <AltitudeMeters>623.5999755859375</AltitudeMeters>
            <DistanceMeters>NAN</DistanceMeters>
          </Trackpoint>
          <Trackpoint>
            <Time>2019-10-06T08:31:51.000Z</Time>
            <Position>
              <LatitudeDegrees>41.48897029459476470947265625</LatitudeDegrees>
              <LongitudeDegrees>-5.744167864322662353515625</LongitudeDegrees>
            </Position>
            <AltitudeMeters>624</AltitudeMeters>
            <DistanceMeters>NAN</DistanceMeters>
          </Trackpoint>
          <Trackpoint>
            <Time>2019-10-06T08:31:52.000Z</Time>
            <Position>
              <LatitudeDegrees>41.48893618024885654449462890625</LatitudeDegrees>
              <LongitudeDegrees>-5.74415738694369792938232421875</LongitudeDegrees>
            </Position>
            <AltitudeMeters>624</AltitudeMeters>
            <DistanceMeters>NAN</DistanceMeters>
          </Trackpoint>
          <Trackpoint>
            <Time>2019-10-06T08:31:58.000Z</Time>
            <Position>
              <LatitudeDegrees>41.4887364394962787628173828125</LatitudeDegrees>
              <LongitudeDegrees>-5.7440806925296783447265625</LongitudeDegrees>
            </Position>
            <AltitudeMeters>624</AltitudeMeters>
            <DistanceMeters>NAN</DistanceMeters>
          </Trackpoint>
          <Trackpoint>
            <Time>2019-10-06T08:32:02.000Z</Time>
            <Position>
              <LatitudeDegrees>41.4886013232171535491943359375</LatitudeDegrees>
              <LongitudeDegrees>-5.74402662925422191619873046875</LongitudeDegrees>
            </Position>
            <AltitudeMeters>624.20001220703125</AltitudeMeters>
            <DistanceMeters>NAN</DistanceMeters>
          </Trackpoint>
          <Trackpoint>
            <Time>2019-10-06T08:32:10.000Z</Time>
            <Position>
              <LatitudeDegrees>41.4883277378976345062255859375</LatitudeDegrees>
              <LongitudeDegrees>-5.7439385354518890380859375</LongitudeDegrees>
            </Position>
            <AltitudeMeters>624.4000244140625</AltitudeMeters>
            <DistanceMeters>NAN</DistanceMeters>
          </Trackpoint>
          <Trackpoint>
            <Time>2019-10-06T08:32:13.000Z</Time>
            <Position>
              <LatitudeDegrees>41.48822505958378314971923828125</LatitudeDegrees>
              <LongitudeDegrees>-5.74390567839145660400390625</LongitudeDegrees>
            </Position>
            <AltitudeMeters>624</AltitudeMeters>
            <DistanceMeters>NAN</DistanceMeters>
          </Trackpoint>
          <Trackpoint>
            <Time>2019-10-06T08:32:23.000Z</Time>
            <Position>
              <LatitudeDegrees>41.4878948964178562164306640625</LatitudeDegrees>
              <LongitudeDegrees>-5.7438220269978046417236328125</LongitudeDegrees>
            </Position>
            <AltitudeMeters>624.5999755859375</AltitudeMeters>
            <DistanceMeters>NAN</DistanceMeters>
          </Trackpoint>
          <Trackpoint>
            <Time>2019-10-06T08:32:28.000Z</Time>
            <Position>
              <LatitudeDegrees>41.487731449306011199951171875</LatitudeDegrees>
              <LongitudeDegrees>-5.74377425014972686767578125</LongitudeDegrees>
            </Position>
            <AltitudeMeters>624.5999755859375</AltitudeMeters>
            <DistanceMeters>NAN</DistanceMeters>
          </Trackpoint>
          <Trackpoint>
            <Time>2019-10-06T08:32:30.000Z</Time>
            <Position>
              <LatitudeDegrees>41.48767084814608097076416015625</LatitudeDegrees>
              <LongitudeDegrees>-5.7437449134886264801025390625</LongitudeDegrees>
            </Position>
            <AltitudeMeters>624.79998779296875</AltitudeMeters>
            <DistanceMeters>NAN</DistanceMeters>
          </Trackpoint>
          <Trackpoint>
            <Time>2019-10-06T08:32:32.000Z</Time>
            <Position>
              <LatitudeDegrees>41.48761033080518245697021484375</LatitudeDegrees>
              <LongitudeDegrees>-5.74372890405356884002685546875</LongitudeDegrees>
            </Position>
            <AltitudeMeters>625</AltitudeMeters>
            <DistanceMeters>NAN</DistanceMeters>
          </Trackpoint>
          <Trackpoint>
            <Time>2019-10-06T08:32:36.000Z</Time>
            <Position>
              <LatitudeDegrees>41.48750388063490390777587890625</LatitudeDegrees>
              <LongitudeDegrees>-5.7436909340322017669677734375</LongitudeDegrees>
            </Position>
            <AltitudeMeters>625</AltitudeMeters>
            <DistanceMeters>NAN</DistanceMeters>
          </Trackpoint>
          <Trackpoint>
            <Time>2019-10-06T08:32:40.000Z</Time>
            <Position>
              <LatitudeDegrees>41.48740522563457489013671875</LatitudeDegrees>
              <LongitudeDegrees>-5.743659920990467071533203125</LongitudeDegrees>
            </Position>
            <AltitudeMeters>625.20001220703125</AltitudeMeters>
            <DistanceMeters>NAN</DistanceMeters>
          </Trackpoint>
          <Trackpoint>
            <Time>2019-10-06T08:32:44.000Z</Time>
            <Position>
              <LatitudeDegrees>41.4873004518449306488037109375</LatitudeDegrees>
              <LongitudeDegrees>-5.74361105449497699737548828125</LongitudeDegrees>
            </Position>
            <AltitudeMeters>625</AltitudeMeters>
            <DistanceMeters>NAN</DistanceMeters>
          </Trackpoint>
          <Trackpoint>
            <Time>2019-10-06T08:32:53.000Z</Time>
            <Position>
              <LatitudeDegrees>41.48703482933342456817626953125</LatitudeDegrees>
              <LongitudeDegrees>-5.74351835064589977264404296875</LongitudeDegrees>
            </Position>
            <AltitudeMeters>625.20001220703125</AltitudeMeters>
            <DistanceMeters>NAN</DistanceMeters>
          </Trackpoint>
          <Trackpoint>
            <Time>2019-10-06T08:33:01.000Z</Time>
            <Position>
              <LatitudeDegrees>41.4868086017668247222900390625</LatitudeDegrees>
              <LongitudeDegrees>-5.7434518821537494659423828125</LongitudeDegrees>
            </Position>
            <AltitudeMeters>624.4000244140625</AltitudeMeters>
            <DistanceMeters>NAN</DistanceMeters>
          </Trackpoint>
          <Trackpoint>
            <Time>2019-10-06T08:33:04.000Z</Time>
            <Position>
              <LatitudeDegrees>41.48672503419220447540283203125</LatitudeDegrees>
              <LongitudeDegrees>-5.7434458471834659576416015625</LongitudeDegrees>
            </Position>
            <AltitudeMeters>625</AltitudeMeters>
            <DistanceMeters>NAN</DistanceMeters>
          </Trackpoint>
          <Trackpoint>
            <Time>2019-10-06T08:33:07.000Z</Time>
            <Position>
              <LatitudeDegrees>41.48665227927267551422119140625</LatitudeDegrees>
              <LongitudeDegrees>-5.74343168176710605621337890625</LongitudeDegrees>
            </Position>
            <AltitudeMeters>625</AltitudeMeters>
            <DistanceMeters>NAN</DistanceMeters>
          </Trackpoint>
          <Trackpoint>
            <Time>2019-10-06T08:33:14.000Z</Time>
            <Position>
              <LatitudeDegrees>41.48649687878787517547607421875</LatitudeDegrees>
              <LongitudeDegrees>-5.74338759295642375946044921875</LongitudeDegrees>
            </Position>
            <AltitudeMeters>625</AltitudeMeters>
            <DistanceMeters>NAN</DistanceMeters>
          </Trackpoint>
          <Trackpoint>
            <Time>2019-10-06T08:33:17.000Z</Time>
            <Position>
              <LatitudeDegrees>41.48645547218620777130126953125</LatitudeDegrees>
              <LongitudeDegrees>-5.7433831505477428436279296875</LongitudeDegrees>
            </Position>
            <AltitudeMeters>625</AltitudeMeters>
            <DistanceMeters>NAN</DistanceMeters>
          </Trackpoint>
          <Trackpoint>
            <Time>2019-10-06T08:33:19.000Z</Time>
            <Position>
              <LatitudeDegrees>41.4864508621394634246826171875</LatitudeDegrees>
              <LongitudeDegrees>-5.74338256381452083587646484375</LongitudeDegrees>
            </Position>
            <AltitudeMeters>625</AltitudeMeters>
            <DistanceMeters>NAN</DistanceMeters>
          </Trackpoint>
          <Trackpoint>
            <Time>2019-10-06T08:33:23.000Z</Time>
            <Position>
              <LatitudeDegrees>41.48645094595849514007568359375</LatitudeDegrees>
              <LongitudeDegrees>-5.7433821447193622589111328125</LongitudeDegrees>
            </Position>
            <AltitudeMeters>625.20001220703125</AltitudeMeters>
            <DistanceMeters>NAN</DistanceMeters>
          </Trackpoint>
          <Trackpoint>
            <Time>2019-10-06T08:33:33.000Z</Time>
            <Position>
              <LatitudeDegrees>41.48644323460757732391357421875</LatitudeDegrees>
              <LongitudeDegrees>-5.7433620281517505645751953125</LongitudeDegrees>
            </Position>
            <AltitudeMeters>624.79998779296875</AltitudeMeters>
            <DistanceMeters>NAN</DistanceMeters>
          </Trackpoint>
          <Trackpoint>
            <Time>2019-10-06T08:33:38.000Z</Time>
            <Position>
              <LatitudeDegrees>41.4864022471010684967041015625</LatitudeDegrees>
              <LongitudeDegrees>-5.74328474700450897216796875</LongitudeDegrees>
            </Position>
            <AltitudeMeters>624.79998779296875</AltitudeMeters>
            <DistanceMeters>NAN</DistanceMeters>
          </Trackpoint>
          <Trackpoint>
            <Time>2019-10-06T08:33:41.000Z</Time>
            <Position>
              <LatitudeDegrees>41.48631532676517963409423828125</LatitudeDegrees>
              <LongitudeDegrees>-5.7432760298252105712890625</LongitudeDegrees>
            </Position>
            <AltitudeMeters>625</AltitudeMeters>
            <DistanceMeters>NAN</DistanceMeters>
          </Trackpoint>
          <Trackpoint>
            <Time>2019-10-06T08:33:42.000Z</Time>
            <Position>
              <LatitudeDegrees>41.48628431372344493865966796875</LatitudeDegrees>
              <LongitudeDegrees>-5.7432738505303859710693359375</LongitudeDegrees>
            </Position>
            <AltitudeMeters>625</AltitudeMeters>
            <DistanceMeters>NAN</DistanceMeters>
          </Trackpoint>
          <Trackpoint>
            <Time>2019-10-06T08:33:44.000Z</Time>
            <Position>
              <LatitudeDegrees>41.486214660108089447021484375</LatitudeDegrees>
              <LongitudeDegrees>-5.74326572008430957794189453125</LongitudeDegrees>
            </Position>
            <AltitudeMeters>625</AltitudeMeters>
            <DistanceMeters>NAN</DistanceMeters>
          </Trackpoint>
          <Trackpoint>
            <Time>2019-10-06T08:33:47.000Z</Time>
            <Position>
              <LatitudeDegrees>41.4861061982810497283935546875</LatitudeDegrees>
              <LongitudeDegrees>-5.74323772452771663665771484375</LongitudeDegrees>
            </Position>
            <AltitudeMeters>625</AltitudeMeters>
            <DistanceMeters>NAN</DistanceMeters>
          </Trackpoint>
          <Trackpoint>
            <Time>2019-10-06T08:33:50.000Z</Time>
            <Position>
              <LatitudeDegrees>41.48599429987370967864990234375</LatitudeDegrees>
              <LongitudeDegrees>-5.74319849722087383270263671875</LongitudeDegrees>
            </Position>
            <AltitudeMeters>624.79998779296875</AltitudeMeters>
            <DistanceMeters>NAN</DistanceMeters>
          </Trackpoint>
          <Trackpoint>
            <Time>2019-10-06T08:33:54.000Z</Time>
            <Position>
              <LatitudeDegrees>41.48583956994116306304931640625</LatitudeDegrees>
              <LongitudeDegrees>-5.74315843172371387481689453125</LongitudeDegrees>
            </Position>
            <AltitudeMeters>625.4000244140625</AltitudeMeters>
            <DistanceMeters>NAN</DistanceMeters>
          </Trackpoint>
          <Trackpoint>
            <Time>2019-10-06T08:33:56.000Z</Time>
            <Position>
              <LatitudeDegrees>41.48575776256620883941650390625</LatitudeDegrees>
              <LongitudeDegrees>-5.74313596822321414947509765625</LongitudeDegrees>
            </Position>
            <AltitudeMeters>625.20001220703125</AltitudeMeters>
            <DistanceMeters>NAN</DistanceMeters>
          </Trackpoint>
          <Trackpoint>
            <Time>2019-10-06T08:34:01.000Z</Time>
            <Position>
              <LatitudeDegrees>41.48555575869977474212646484375</LatitudeDegrees>
              <LongitudeDegrees>-5.743084587156772613525390625</LongitudeDegrees>
            </Position>
            <AltitudeMeters>625.5999755859375</AltitudeMeters>
            <DistanceMeters>NAN</DistanceMeters>
          </Trackpoint>
          <Trackpoint>
            <Time>2019-10-06T08:34:06.000Z</Time>
            <Position>
              <LatitudeDegrees>41.4853526651859283447265625</LatitudeDegrees>
              <LongitudeDegrees>-5.7430066354572772979736328125</LongitudeDegrees>
            </Position>
            <AltitudeMeters>626</AltitudeMeters>
            <DistanceMeters>NAN</DistanceMeters>
          </Trackpoint>
          <Trackpoint>
            <Time>2019-10-06T08:34:07.000Z</Time>
            <Position>
              <LatitudeDegrees>41.48531167767941951751708984375</LatitudeDegrees>
              <LongitudeDegrees>-5.742990039288997650146484375</LongitudeDegrees>
            </Position>
            <AltitudeMeters>626.20001220703125</AltitudeMeters>
            <DistanceMeters>NAN</DistanceMeters>
          </Trackpoint>
          <Trackpoint>
            <Time>2019-10-06T08:34:13.000Z</Time>
            <Position>
              <LatitudeDegrees>41.48507304489612579345703125</LatitudeDegrees>
              <LongitudeDegrees>-5.7428980059921741485595703125</LongitudeDegrees>
            </Position>
            <AltitudeMeters>626.5999755859375</AltitudeMeters>
            <DistanceMeters>NAN</DistanceMeters>
          </Trackpoint>
          <Trackpoint>
            <Time>2019-10-06T08:34:14.000Z</Time>
            <Position>
              <LatitudeDegrees>41.4850339852273464202880859375</LatitudeDegrees>
              <LongitudeDegrees>-5.74288534931838512420654296875</LongitudeDegrees>
            </Position>
            <AltitudeMeters>627</AltitudeMeters>
            <DistanceMeters>NAN</DistanceMeters>
          </Trackpoint>
          <Trackpoint>
            <Time>2019-10-06T08:34:15.000Z</Time>
            <Position>
              <LatitudeDegrees>41.48499350063502788543701171875</LatitudeDegrees>
              <LongitudeDegrees>-5.7428725250065326690673828125</LongitudeDegrees>
            </Position>
            <AltitudeMeters>627.20001220703125</AltitudeMeters>
            <DistanceMeters>NAN</DistanceMeters>
          </Trackpoint>
          <Trackpoint>
            <Time>2019-10-06T08:34:20.000Z</Time>
            <Position>
              <LatitudeDegrees>41.48479971103370189666748046875</LatitudeDegrees>
              <LongitudeDegrees>-5.74282131157815456390380859375</LongitudeDegrees>
            </Position>
            <AltitudeMeters>627.4000244140625</AltitudeMeters>
            <DistanceMeters>NAN</DistanceMeters>
          </Trackpoint>
          <Trackpoint>
            <Time>2019-10-06T08:34:24.000Z</Time>
            <Position>
              <LatitudeDegrees>41.48464799858629703521728515625</LatitudeDegrees>
              <LongitudeDegrees>-5.742778815329074859619140625</LongitudeDegrees>
            </Position>
            <AltitudeMeters>627.79998779296875</AltitudeMeters>
            <DistanceMeters>NAN</DistanceMeters>
          </Trackpoint>
          <Trackpoint>
            <Time>2019-10-06T08:34:26.000Z</Time>
            <Position>
              <LatitudeDegrees>41.4845749922096729278564453125</LatitudeDegrees>
              <LongitudeDegrees>-5.742751322686672210693359375</LongitudeDegrees>
            </Position>
            <AltitudeMeters>628.20001220703125</AltitudeMeters>
            <DistanceMeters>NAN</DistanceMeters>
          </Trackpoint>
          <Trackpoint>
            <Time>2019-10-06T08:34:32.000Z</Time>
            <Position>
              <LatitudeDegrees>41.48435513488948345184326171875</LatitudeDegrees>
              <LongitudeDegrees>-5.74266691692173480987548828125</LongitudeDegrees>
            </Position>
            <AltitudeMeters>628</AltitudeMeters>
            <DistanceMeters>NAN</DistanceMeters>
          </Trackpoint>
          <Trackpoint>
            <Time>2019-10-06T08:34:40.000Z</Time>
            <Position>
              <LatitudeDegrees>41.4840308390557765960693359375</LatitudeDegrees>
              <LongitudeDegrees>-5.74259935878217220306396484375</LongitudeDegrees>
            </Position>
            <AltitudeMeters>628.4000244140625</AltitudeMeters>
            <DistanceMeters>NAN</DistanceMeters>
          </Trackpoint>
          <Trackpoint>
            <Time>2019-10-06T08:34:49.000Z</Time>
            <Position>
              <LatitudeDegrees>41.483676619827747344970703125</LatitudeDegrees>
              <LongitudeDegrees>-5.74248268269002437591552734375</LongitudeDegrees>
            </Position>
            <AltitudeMeters>629.20001220703125</AltitudeMeters>
            <DistanceMeters>NAN</DistanceMeters>
          </Trackpoint>
          <Trackpoint>
            <Time>2019-10-06T08:34:58.000Z</Time>
            <Position>
              <LatitudeDegrees>41.48331217467784881591796875</LatitudeDegrees>
              <LongitudeDegrees>-5.74237220920622348785400390625</LongitudeDegrees>
            </Position>
            <AltitudeMeters>628.79998779296875</AltitudeMeters>
            <DistanceMeters>NAN</DistanceMeters>
          </Trackpoint>
          <Trackpoint>
            <Time>2019-10-06T08:34:59.000Z</Time>
            <Position>
              <LatitudeDegrees>41.483272612094879150390625</LatitudeDegrees>
              <LongitudeDegrees>-5.7423595525324344635009765625</LongitudeDegrees>
            </Position>
            <AltitudeMeters>628.79998779296875</AltitudeMeters>
            <DistanceMeters>NAN</DistanceMeters>
          </Trackpoint>
          <Trackpoint>
            <Time>2019-10-06T08:35:06.000Z</Time>
            <Position>
              <LatitudeDegrees>41.48299022577702999114990234375</LatitudeDegrees>
              <LongitudeDegrees>-5.74225075542926788330078125</LongitudeDegrees>
            </Position>
            <AltitudeMeters>628.79998779296875</AltitudeMeters>
            <DistanceMeters>NAN</DistanceMeters>
          </Trackpoint>
          <Trackpoint>
            <Time>2019-10-06T08:35:09.000Z</Time>
            <Position>
              <LatitudeDegrees>41.4828781597316265106201171875</LatitudeDegrees>
              <LongitudeDegrees>-5.74220323003828525543212890625</LongitudeDegrees>
            </Position>
            <AltitudeMeters>628.79998779296875</AltitudeMeters>
            <DistanceMeters>NAN</DistanceMeters>
          </Trackpoint>
          <Trackpoint>
            <Time>2019-10-06T08:35:13.000Z</Time>
            <Position>
              <LatitudeDegrees>41.4827497489750385284423828125</LatitudeDegrees>
              <LongitudeDegrees>-5.74212200939655303955078125</LongitudeDegrees>
            </Position>
            <AltitudeMeters>629</AltitudeMeters>
            <DistanceMeters>NAN</DistanceMeters>
          </Trackpoint>
          <Trackpoint>
            <Time>2019-10-06T08:35:15.000Z</Time>
            <Position>
              <LatitudeDegrees>41.4826887287199497222900390625</LatitudeDegrees>
              <LongitudeDegrees>-5.74207448400557041168212890625</LongitudeDegrees>
            </Position>
            <AltitudeMeters>629</AltitudeMeters>
            <DistanceMeters>NAN</DistanceMeters>
          </Trackpoint>
          <Trackpoint>
            <Time>2019-10-06T08:35:16.000Z</Time>
            <Position>
              <LatitudeDegrees>41.4826588891446590423583984375</LatitudeDegrees>
              <LongitudeDegrees>-5.7420457340776920318603515625</LongitudeDegrees>
            </Position>
            <AltitudeMeters>629</AltitudeMeters>
            <DistanceMeters>NAN</DistanceMeters>
          </Trackpoint>
          <Trackpoint>
            <Time>2019-10-06T08:35:26.000Z</Time>
            <Position>
              <LatitudeDegrees>41.48236342705786228179931640625</LatitudeDegrees>
              <LongitudeDegrees>-5.74179318733513355255126953125</LongitudeDegrees>
            </Position>
            <AltitudeMeters>628.79998779296875</AltitudeMeters>
            <DistanceMeters>NAN</DistanceMeters>
          </Trackpoint>
          <Trackpoint>
            <Time>2019-10-06T08:35:28.000Z</Time>
            <Position>
              <LatitudeDegrees>41.482311375439167022705078125</LatitudeDegrees>
              <LongitudeDegrees>-5.74173920787870883941650390625</LongitudeDegrees>
            </Position>
            <AltitudeMeters>628.5999755859375</AltitudeMeters>
            <DistanceMeters>NAN</DistanceMeters>
          </Trackpoint>
          <Trackpoint>
            <Time>2019-10-06T08:35:35.000Z</Time>
            <Position>
              <LatitudeDegrees>41.4821291528642177581787109375</LatitudeDegrees>
              <LongitudeDegrees>-5.7415565662086009979248046875</LongitudeDegrees>
            </Position>
            <AltitudeMeters>628.5999755859375</AltitudeMeters>
            <DistanceMeters>NAN</DistanceMeters>
          </Trackpoint>
          <Trackpoint>
            <Time>2019-10-06T08:35:40.000Z</Time>
            <Position>
              <LatitudeDegrees>41.48198842070996761322021484375</LatitudeDegrees>
              <LongitudeDegrees>-5.74140611104667186737060546875</LongitudeDegrees>
            </Position>
            <AltitudeMeters>628.20001220703125</AltitudeMeters>
            <DistanceMeters>NAN</DistanceMeters>
          </Trackpoint>
          <Trackpoint>
            <Time>2019-10-06T08:35:43.000Z</Time>
            <Position>
              <LatitudeDegrees>41.481903009116649627685546875</LatitudeDegrees>
              <LongitudeDegrees>-5.7413215376436710357666015625</LongitudeDegrees>
            </Position>
            <AltitudeMeters>628.4000244140625</AltitudeMeters>
            <DistanceMeters>NAN</DistanceMeters>
          </Trackpoint>
          <Trackpoint>
            <Time>2019-10-06T08:35:47.000Z</Time>
            <Position>
              <LatitudeDegrees>41.48179764859378337860107421875</LatitudeDegrees>
              <LongitudeDegrees>-5.7412055321037769317626953125</LongitudeDegrees>
            </Position>
            <AltitudeMeters>628.20001220703125</AltitudeMeters>
            <DistanceMeters>NAN</DistanceMeters>
          </Trackpoint>
          <Trackpoint>
            <Time>2019-10-06T08:35:51.000Z</Time>
            <Position>
              <LatitudeDegrees>41.48169455118477344512939453125</LatitudeDegrees>
              <LongitudeDegrees>-5.74109916575253009796142578125</LongitudeDegrees>
            </Position>
            <AltitudeMeters>628.20001220703125</AltitudeMeters>
            <DistanceMeters>NAN</DistanceMeters>
          </Trackpoint>
          <Trackpoint>
            <Time>2019-10-06T08:35:52.000Z</Time>
            <Position>
              <LatitudeDegrees>41.48166940547525882720947265625</LatitudeDegrees>
              <LongitudeDegrees>-5.74106932617723941802978515625</LongitudeDegrees>
            </Position>
            <AltitudeMeters>628.20001220703125</AltitudeMeters>
            <DistanceMeters>NAN</DistanceMeters>
          </Trackpoint>
          <Trackpoint>
            <Time>2019-10-06T08:35:55.000Z</Time>
            <Position>
              <LatitudeDegrees>41.481593549251556396484375</LatitudeDegrees>
              <LongitudeDegrees>-5.74098567478358745574951171875</LongitudeDegrees>
            </Position>
            <AltitudeMeters>628.20001220703125</AltitudeMeters>
            <DistanceMeters>NAN</DistanceMeters>
          </Trackpoint>
          <Trackpoint>
            <Time>2019-10-06T08:36:01.000Z</Time>
            <Position>
              <LatitudeDegrees>41.48143923841416835784912109375</LatitudeDegrees>
              <LongitudeDegrees>-5.74082055129110813140869140625</LongitudeDegrees>
            </Position>
            <AltitudeMeters>627.5999755859375</AltitudeMeters>
            <DistanceMeters>NAN</DistanceMeters>
          </Trackpoint>
          <Trackpoint>
            <Time>2019-10-06T08:36:06.000Z</Time>
            <Position>
              <LatitudeDegrees>41.481313593685626983642578125</LatitudeDegrees>
              <LongitudeDegrees>-5.74070043861865997314453125</LongitudeDegrees>
            </Position>
            <AltitudeMeters>627.4000244140625</AltitudeMeters>
            <DistanceMeters>NAN</DistanceMeters>
          </Trackpoint>
          <Trackpoint>
            <Time>2019-10-06T08:36:08.000Z</Time>
            <Position>
              <LatitudeDegrees>41.48130261339247226715087890625</LatitudeDegrees>
              <LongitudeDegrees>-5.74064335785806179046630859375</LongitudeDegrees>
            </Position>
            <AltitudeMeters>627.5999755859375</AltitudeMeters>
            <DistanceMeters>NAN</DistanceMeters>
          </Trackpoint>
          <Trackpoint>
            <Time>2019-10-06T08:36:10.000Z</Time>
            <Position>
              <LatitudeDegrees>41.481266655027866363525390625</LatitudeDegrees>
              <LongitudeDegrees>-5.740617625415325164794921875</LongitudeDegrees>
            </Position>
            <AltitudeMeters>627.4000244140625</AltitudeMeters>
            <DistanceMeters>NAN</DistanceMeters>
          </Trackpoint>
          <Trackpoint>
            <Time>2019-10-06T08:36:12.000Z</Time>
            <Position>
              <LatitudeDegrees>41.4812193810939788818359375</LatitudeDegrees>
              <LongitudeDegrees>-5.74059289880096912384033203125</LongitudeDegrees>
            </Position>
            <AltitudeMeters>627.20001220703125</AltitudeMeters>
            <DistanceMeters>NAN</DistanceMeters>
          </Trackpoint>
          <Trackpoint>
            <Time>2019-10-06T08:36:13.000Z</Time>
            <Position>
              <LatitudeDegrees>41.48119364865124225616455078125</LatitudeDegrees>
              <LongitudeDegrees>-5.74057613499462604522705078125</LongitudeDegrees>
            </Position>
            <AltitudeMeters>627.20001220703125</AltitudeMeters>
            <DistanceMeters>NAN</DistanceMeters>
          </Trackpoint>
          <Trackpoint>
            <Time>2019-10-06T08:36:16.000Z</Time>
            <Position>
              <LatitudeDegrees>41.4811213128268718719482421875</LatitudeDegrees>
              <LongitudeDegrees>-5.740504302084445953369140625</LongitudeDegrees>
            </Position>
            <AltitudeMeters>626.79998779296875</AltitudeMeters>
            <DistanceMeters>NAN</DistanceMeters>
          </Trackpoint>
          <Trackpoint>
            <Time>2019-10-06T08:36:18.000Z</Time>
            <Position>
              <LatitudeDegrees>41.48110873997211456298828125</LatitudeDegrees>
              <LongitudeDegrees>-5.74045074172317981719970703125</LongitudeDegrees>
            </Position>
            <AltitudeMeters>626.79998779296875</AltitudeMeters>
            <DistanceMeters>NAN</DistanceMeters>
          </Trackpoint>
          <Trackpoint>
            <Time>2019-10-06T08:36:19.000Z</Time>
            <Position>
              <LatitudeDegrees>41.4811263419687747955322265625</LatitudeDegrees>
              <LongitudeDegrees>-5.740428529679775238037109375</LongitudeDegrees>
            </Position>
            <AltitudeMeters>626.5999755859375</AltitudeMeters>
            <DistanceMeters>NAN</DistanceMeters>
          </Trackpoint>
          <Trackpoint>
            <Time>2019-10-06T08:36:22.000Z</Time>
            <Position>
              <LatitudeDegrees>41.48119054734706878662109375</LatitudeDegrees>
              <LongitudeDegrees>-5.74046649970114231109619140625</LongitudeDegrees>
            </Position>
            <AltitudeMeters>627</AltitudeMeters>
            <DistanceMeters>NAN</DistanceMeters>
          </Trackpoint>
          <Trackpoint>
            <Time>2019-10-06T08:36:24.000Z</Time>
            <Position>
              <LatitudeDegrees>41.48123689927160739898681640625</LatitudeDegrees>
              <LongitudeDegrees>-5.74052500538527965545654296875</LongitudeDegrees>
            </Position>
            <AltitudeMeters>627.20001220703125</AltitudeMeters>
            <DistanceMeters>NAN</DistanceMeters>
          </Trackpoint>
          <Trackpoint>
            <Time>2019-10-06T08:36:25.000Z</Time>
            <Position>
              <LatitudeDegrees>41.48125433363020420074462890625</LatitudeDegrees>
              <LongitudeDegrees>-5.740542523562908172607421875</LongitudeDegrees>
            </Position>
            <AltitudeMeters>628.20001220703125</AltitudeMeters>
            <DistanceMeters>NAN</DistanceMeters>
          </Trackpoint>
          <Trackpoint>
            <Time>2019-10-06T08:36:28.000Z</Time>
            <Position>
              <LatitudeDegrees>41.48132457397878170013427734375</LatitudeDegrees>
              <LongitudeDegrees>-5.74061620049178600311279296875</LongitudeDegrees>
            </Position>
            <AltitudeMeters>627.4000244140625</AltitudeMeters>
            <DistanceMeters>NAN</DistanceMeters>
          </Trackpoint>
          <Trackpoint>
            <Time>2019-10-06T08:36:36.000Z</Time>
            <Position>
              <LatitudeDegrees>41.48151241242885589599609375</LatitudeDegrees>
              <LongitudeDegrees>-5.74081669561564922332763671875</LongitudeDegrees>
            </Position>
            <AltitudeMeters>627.79998779296875</AltitudeMeters>
            <DistanceMeters>NAN</DistanceMeters>
          </Trackpoint>
          <Trackpoint>
            <Time>2019-10-06T08:36:38.000Z</Time>
            <Position>
              <LatitudeDegrees>41.4815534837543964385986328125</LatitudeDegrees>
              <LongitudeDegrees>-5.74087939225137233734130859375</LongitudeDegrees>
            </Position>
            <AltitudeMeters>627.79998779296875</AltitudeMeters>
            <DistanceMeters>NAN</DistanceMeters>
          </Trackpoint>
          <Trackpoint>
            <Time>2019-10-06T08:36:42.000Z</Time>
            <Position>
              <LatitudeDegrees>41.4816550724208354949951171875</LatitudeDegrees>
              <LongitudeDegrees>-5.74098232202231884002685546875</LongitudeDegrees>
            </Position>
            <AltitudeMeters>628</AltitudeMeters>
            <DistanceMeters>NAN</DistanceMeters>
          </Trackpoint>
          <Trackpoint>
            <Time>2019-10-06T08:36:43.000Z</Time>
            <Position>
              <LatitudeDegrees>41.4816822297871112823486328125</LatitudeDegrees>
              <LongitudeDegrees>-5.74101048521697521209716796875</LongitudeDegrees>
            </Position>
            <AltitudeMeters>627.79998779296875</AltitudeMeters>
            <DistanceMeters>NAN</DistanceMeters>
          </Trackpoint>
          <Trackpoint>
            <Time>2019-10-06T08:36:48.000Z</Time>
            <Position>
              <LatitudeDegrees>41.4818133227527141571044921875</LatitudeDegrees>
              <LongitudeDegrees>-5.7411673106253147125244140625</LongitudeDegrees>
            </Position>
            <AltitudeMeters>628.4000244140625</AltitudeMeters>
            <DistanceMeters>NAN</DistanceMeters>
          </Trackpoint>
          <Trackpoint>
            <Time>2019-10-06T08:36:50.000Z</Time>
            <Position>
              <LatitudeDegrees>41.4818709902465343475341796875</LatitudeDegrees>
              <LongitudeDegrees>-5.741222798824310302734375</LongitudeDegrees>
            </Position>
            <AltitudeMeters>628.4000244140625</AltitudeMeters>
            <DistanceMeters>NAN</DistanceMeters>
          </Trackpoint>
          <Trackpoint>
            <Time>2019-10-06T08:36:55.000Z</Time>
            <Position>
              <LatitudeDegrees>41.48202245123684406280517578125</LatitudeDegrees>
              <LongitudeDegrees>-5.74136436916887760162353515625</LongitudeDegrees>
            </Position>
            <AltitudeMeters>627.79998779296875</AltitudeMeters>
            <DistanceMeters>NAN</DistanceMeters>
          </Trackpoint>
          <Trackpoint>
            <Time>2019-10-06T08:36:58.000Z</Time>
            <Position>
              <LatitudeDegrees>41.4821045100688934326171875</LatitudeDegrees>
              <LongitudeDegrees>-5.741459168493747711181640625</LongitudeDegrees>
            </Position>
            <AltitudeMeters>628</AltitudeMeters>
            <DistanceMeters>NAN</DistanceMeters>
          </Trackpoint>
          <Trackpoint>
            <Time>2019-10-06T08:37:06.000Z</Time>
            <Position>
              <LatitudeDegrees>41.48233844898641109466552734375</LatitudeDegrees>
              <LongitudeDegrees>-5.7417003996670246124267578125</LongitudeDegrees>
            </Position>
            <AltitudeMeters>628.4000244140625</AltitudeMeters>
            <DistanceMeters>NAN</DistanceMeters>
          </Trackpoint>
          <Trackpoint>
            <Time>2019-10-06T08:37:14.000Z</Time>
            <Position>
              <LatitudeDegrees>41.4825765788555145263671875</LatitudeDegrees>
              <LongitudeDegrees>-5.74193894863128662109375</LongitudeDegrees>
            </Position>
            <AltitudeMeters>628.5999755859375</AltitudeMeters>
            <DistanceMeters>NAN</DistanceMeters>
          </Trackpoint>
          <Trackpoint>
            <Time>2019-10-06T08:37:17.000Z</Time>
            <Position>
              <LatitudeDegrees>41.482620500028133392333984375</LatitudeDegrees>
              <LongitudeDegrees>-5.74204749427735805511474609375</LongitudeDegrees>
            </Position>
            <AltitudeMeters>629</AltitudeMeters>
            <DistanceMeters>NAN</DistanceMeters>
          </Trackpoint>
          <Trackpoint>
            <Time>2019-10-06T08:37:18.000Z</Time>
            <Position>
              <LatitudeDegrees>41.482605077326297760009765625</LatitudeDegrees>
              <LongitudeDegrees>-5.7420718856155872344970703125</LongitudeDegrees>
            </Position>
            <AltitudeMeters>629.20001220703125</AltitudeMeters>
            <DistanceMeters>NAN</DistanceMeters>
          </Trackpoint>
          <Trackpoint>
            <Time>2019-10-06T08:37:19.000Z</Time>
            <Position>
              <LatitudeDegrees>41.48258118890225887298583984375</LatitudeDegrees>
              <LongitudeDegrees>-5.7420745678246021270751953125</LongitudeDegrees>
            </Position>
            <AltitudeMeters>629.4000244140625</AltitudeMeters>
            <DistanceMeters>NAN</DistanceMeters>
          </Trackpoint>
          <Trackpoint>
            <Time>2019-10-06T08:37:21.000Z</Time>
            <Position>
              <LatitudeDegrees>41.4825284667313098907470703125</LatitudeDegrees>
              <LongitudeDegrees>-5.742059648036956787109375</LongitudeDegrees>
            </Position>
            <AltitudeMeters>629.4000244140625</AltitudeMeters>
            <DistanceMeters>NAN</DistanceMeters>
          </Trackpoint>
          <Trackpoint>
            <Time>2019-10-06T08:37:25.000Z</Time>
            <Position>
              <LatitudeDegrees>41.48239444009959697723388671875</LatitudeDegrees>
              <LongitudeDegrees>-5.7419860549271106719970703125</LongitudeDegrees>
            </Position>
            <AltitudeMeters>629.4000244140625</AltitudeMeters>
            <DistanceMeters>NAN</DistanceMeters>
          </Trackpoint>
          <Trackpoint>
            <Time>2019-10-06T08:37:32.000Z</Time>
            <Position>
              <LatitudeDegrees>41.482143402099609375</LatitudeDegrees>
              <LongitudeDegrees>-5.7418660260736942291259765625</LongitudeDegrees>
            </Position>
            <AltitudeMeters>628.4000244140625</AltitudeMeters>
            <DistanceMeters>NAN</DistanceMeters>
          </Trackpoint>
          <Trackpoint>
            <Time>2019-10-06T08:37:33.000Z</Time>
            <Position>
              <LatitudeDegrees>41.48209906183183193206787109375</LatitudeDegrees>
              <LongitudeDegrees>-5.74184146709740161895751953125</LongitudeDegrees>
            </Position>
            <AltitudeMeters>628.20001220703125</AltitudeMeters>
            <DistanceMeters>NAN</DistanceMeters>
          </Trackpoint>
          <Trackpoint>
            <Time>2019-10-06T08:37:36.000Z</Time>
            <Position>
              <LatitudeDegrees>41.48194667883217334747314453125</LatitudeDegrees>
              <LongitudeDegrees>-5.74178178794682025909423828125</LongitudeDegrees>
            </Position>
            <AltitudeMeters>627</AltitudeMeters>
            <DistanceMeters>NAN</DistanceMeters>
          </Trackpoint>
          <Trackpoint>
            <Time>2019-10-06T08:37:38.000Z</Time>
            <Position>
              <LatitudeDegrees>41.48183184675872325897216796875</LatitudeDegrees>
              <LongitudeDegrees>-5.741742141544818878173828125</LongitudeDegrees>
            </Position>
            <AltitudeMeters>626.4000244140625</AltitudeMeters>
            <DistanceMeters>NAN</DistanceMeters>
          </Trackpoint>
          <Trackpoint>
            <Time>2019-10-06T08:37:39.000Z</Time>
            <Position>
              <LatitudeDegrees>41.48177250288426876068115234375</LatitudeDegrees>
              <LongitudeDegrees>-5.7417201809585094451904296875</LongitudeDegrees>
            </Position>
            <AltitudeMeters>626</AltitudeMeters>
            <DistanceMeters>NAN</DistanceMeters>
          </Trackpoint>
          <Trackpoint>
            <Time>2019-10-06T08:37:43.000Z</Time>
            <Position>
              <LatitudeDegrees>41.48151911795139312744140625</LatitudeDegrees>
              <LongitudeDegrees>-5.74164683930575847625732421875</LongitudeDegrees>
            </Position>
            <AltitudeMeters>624.4000244140625</AltitudeMeters>
            <DistanceMeters>NAN</DistanceMeters>
          </Trackpoint>
          <Trackpoint>
            <Time>2019-10-06T08:37:45.000Z</Time>
            <Position>
              <LatitudeDegrees>41.4813781343400478363037109375</LatitudeDegrees>
              <LongitudeDegrees>-5.7416088692843914031982421875</LongitudeDegrees>
            </Position>
            <AltitudeMeters>623.20001220703125</AltitudeMeters>
            <DistanceMeters>NAN</DistanceMeters>
          </Trackpoint>
          <Trackpoint>
            <Time>2019-10-06T08:37:47.000Z</Time>
            <Position>
              <LatitudeDegrees>41.48123614490032196044921875</LatitudeDegrees>
              <LongitudeDegrees>-5.7415800355374813079833984375</LongitudeDegrees>
            </Position>
            <AltitudeMeters>622.20001220703125</AltitudeMeters>
            <DistanceMeters>NAN</DistanceMeters>
          </Trackpoint>
          <Trackpoint>
            <Time>2019-10-06T08:37:52.000Z</Time>
            <Position>
              <LatitudeDegrees>41.480895169079303741455078125</LatitudeDegrees>
              <LongitudeDegrees>-5.74151122011244297027587890625</LongitudeDegrees>
            </Position>
            <AltitudeMeters>621.5999755859375</AltitudeMeters>
            <DistanceMeters>NAN</DistanceMeters>
          </Trackpoint>
          <Trackpoint>
            <Time>2019-10-06T08:37:54.000Z</Time>
            <Position>
              <LatitudeDegrees>41.48076717741787433624267578125</LatitudeDegrees>
              <LongitudeDegrees>-5.7415035925805568695068359375</LongitudeDegrees>
            </Position>
            <AltitudeMeters>621.79998779296875</AltitudeMeters>
            <DistanceMeters>NAN</DistanceMeters>
          </Trackpoint>
          <Trackpoint>
            <Time>2019-10-06T08:37:57.000Z</Time>
            <Position>
              <LatitudeDegrees>41.48059182800352573394775390625</LatitudeDegrees>
              <LongitudeDegrees>-5.7414968870580196380615234375</LongitudeDegrees>
            </Position>
            <AltitudeMeters>622</AltitudeMeters>
            <DistanceMeters>NAN</DistanceMeters>
          </Trackpoint>
          <Trackpoint>
            <Time>2019-10-06T08:38:02.000Z</Time>
            <Position>
              <LatitudeDegrees>41.48032628931105136871337890625</LatitudeDegrees>
              <LongitudeDegrees>-5.74144743382930755615234375</LongitudeDegrees>
            </Position>
            <AltitudeMeters>622.4000244140625</AltitudeMeters>
            <DistanceMeters>NAN</DistanceMeters>
          </Trackpoint>
          <Trackpoint>
            <Time>2019-10-06T08:38:04.000Z</Time>
            <Position>
              <LatitudeDegrees>41.48022403009235858917236328125</LatitudeDegrees>
              <LongitudeDegrees>-5.7414301671087741851806640625</LongitudeDegrees>
            </Position>
            <AltitudeMeters>622.5999755859375</AltitudeMeters>
            <DistanceMeters>NAN</DistanceMeters>
          </Trackpoint>
          <Trackpoint>
            <Time>2019-10-06T08:38:13.000Z</Time>
            <Position>
              <LatitudeDegrees>41.47979311645030975341796875</LatitudeDegrees>
              <LongitudeDegrees>-5.7413386367261409759521484375</LongitudeDegrees>
            </Position>
            <AltitudeMeters>623.20001220703125</AltitudeMeters>
            <DistanceMeters>NAN</DistanceMeters>
          </Trackpoint>
          <Trackpoint>
            <Time>2019-10-06T08:38:17.000Z</Time>
            <Position>
              <LatitudeDegrees>41.47960410453379154205322265625</LatitudeDegrees>
              <LongitudeDegrees>-5.74126303195953369140625</LongitudeDegrees>
            </Position>
            <AltitudeMeters>622.4000244140625</AltitudeMeters>
            <DistanceMeters>NAN</DistanceMeters>
          </Trackpoint>
          <Trackpoint>
            <Time>2019-10-06T08:38:22.000Z</Time>
            <Position>
              <LatitudeDegrees>41.47935901768505573272705078125</LatitudeDegrees>
              <LongitudeDegrees>-5.74118197895586490631103515625</LongitudeDegrees>
            </Position>
            <AltitudeMeters>622.79998779296875</AltitudeMeters>
            <DistanceMeters>NAN</DistanceMeters>
          </Trackpoint>
          <Trackpoint>
            <Time>2019-10-06T08:38:25.000Z</Time>
            <Position>
              <LatitudeDegrees>41.47921233437955379486083984375</LatitudeDegrees>
              <LongitudeDegrees>-5.7411287538707256317138671875</LongitudeDegrees>
            </Position>
            <AltitudeMeters>622.5999755859375</AltitudeMeters>
            <DistanceMeters>NAN</DistanceMeters>
          </Trackpoint>
          <Trackpoint>
            <Time>2019-10-06T08:38:32.000Z</Time>
            <Position>
              <LatitudeDegrees>41.47886574268341064453125</LatitudeDegrees>
              <LongitudeDegrees>-5.74102406390011310577392578125</LongitudeDegrees>
            </Position>
            <AltitudeMeters>622.5999755859375</AltitudeMeters>
            <DistanceMeters>NAN</DistanceMeters>
          </Trackpoint>
          <Trackpoint>
            <Time>2019-10-06T08:38:42.000Z</Time>
            <Position>
              <LatitudeDegrees>41.47837665863335132598876953125</LatitudeDegrees>
              <LongitudeDegrees>-5.74086464010179042816162109375</LongitudeDegrees>
            </Position>
            <AltitudeMeters>623</AltitudeMeters>
            <DistanceMeters>NAN</DistanceMeters>
          </Trackpoint>
          <Trackpoint>
            <Time>2019-10-06T08:38:46.000Z</Time>
            <Position>
              <LatitudeDegrees>41.47818974219262599945068359375</LatitudeDegrees>
              <LongitudeDegrees>-5.740777887403964996337890625</LongitudeDegrees>
            </Position>
            <AltitudeMeters>622.79998779296875</AltitudeMeters>
            <DistanceMeters>NAN</DistanceMeters>
          </Trackpoint>
          <Trackpoint>
            <Time>2019-10-06T08:38:50.000Z</Time>
            <Position>
              <LatitudeDegrees>41.47800701670348644256591796875</LatitudeDegrees>
              <LongitudeDegrees>-5.74068836867809295654296875</LongitudeDegrees>
            </Position>
            <AltitudeMeters>623.20001220703125</AltitudeMeters>
            <DistanceMeters>NAN</DistanceMeters>
          </Trackpoint>
          <Trackpoint>
            <Time>2019-10-06T08:38:57.000Z</Time>
            <Position>
              <LatitudeDegrees>41.477666795253753662109375</LatitudeDegrees>
              <LongitudeDegrees>-5.74060924351215362548828125</LongitudeDegrees>
            </Position>
            <AltitudeMeters>623</AltitudeMeters>
            <DistanceMeters>NAN</DistanceMeters>
          </Trackpoint>
          <Trackpoint>
            <Time>2019-10-06T08:39:01.000Z</Time>
            <Position>
              <LatitudeDegrees>41.47747166454792022705078125</LatitudeDegrees>
              <LongitudeDegrees>-5.74056523852050304412841796875</LongitudeDegrees>
            </Position>
            <AltitudeMeters>623.20001220703125</AltitudeMeters>
            <DistanceMeters>NAN</DistanceMeters>
          </Trackpoint>
          <Trackpoint>
            <Time>2019-10-06T08:39:04.000Z</Time>
            <Position>
              <LatitudeDegrees>41.47732255049049854278564453125</LatitudeDegrees>
              <LongitudeDegrees>-5.74053707532584667205810546875</LongitudeDegrees>
            </Position>
            <AltitudeMeters>623.4000244140625</AltitudeMeters>
            <DistanceMeters>NAN</DistanceMeters>
          </Trackpoint>
          <Trackpoint>
            <Time>2019-10-06T08:39:12.000Z</Time>
            <Position>
              <LatitudeDegrees>41.4769357256591320037841796875</LatitudeDegrees>
              <LongitudeDegrees>-5.74041838757693767547607421875</LongitudeDegrees>
            </Position>
            <AltitudeMeters>623</AltitudeMeters>
            <DistanceMeters>NAN</DistanceMeters>
          </Trackpoint>
          <Trackpoint>
            <Time>2019-10-06T08:39:15.000Z</Time>
            <Position>
              <LatitudeDegrees>41.47679801099002361297607421875</LatitudeDegrees>
              <LongitudeDegrees>-5.74037362821400165557861328125</LongitudeDegrees>
            </Position>
            <AltitudeMeters>623.5999755859375</AltitudeMeters>
            <DistanceMeters>NAN</DistanceMeters>
          </Trackpoint>
          <Trackpoint>
            <Time>2019-10-06T08:39:18.000Z</Time>
            <Position>
              <LatitudeDegrees>41.476655937731266021728515625</LatitudeDegrees>
              <LongitudeDegrees>-5.74031897820532321929931640625</LongitudeDegrees>
            </Position>
            <AltitudeMeters>623.79998779296875</AltitudeMeters>
            <DistanceMeters>NAN</DistanceMeters>
          </Trackpoint>
          <Trackpoint>
            <Time>2019-10-06T08:39:22.000Z</Time>
            <Position>
              <LatitudeDegrees>41.47646457888185977935791015625</LatitudeDegrees>
              <LongitudeDegrees>-5.74025728739798069000244140625</LongitudeDegrees>
            </Position>
            <AltitudeMeters>624.20001220703125</AltitudeMeters>
            <DistanceMeters>NAN</DistanceMeters>
          </Trackpoint>
          <Trackpoint>
            <Time>2019-10-06T08:39:27.000Z</Time>
            <Position>
              <LatitudeDegrees>41.47622401826083660125732421875</LatitudeDegrees>
              <LongitudeDegrees>-5.7401779107749462127685546875</LongitudeDegrees>
            </Position>
            <AltitudeMeters>624.20001220703125</AltitudeMeters>
            <DistanceMeters>NAN</DistanceMeters>
          </Trackpoint>
          <Trackpoint>
            <Time>2019-10-06T08:39:33.000Z</Time>
            <Position>
              <LatitudeDegrees>41.47595227696001529693603515625</LatitudeDegrees>
              <LongitudeDegrees>-5.74008964933454990386962890625</LongitudeDegrees>
            </Position>
            <AltitudeMeters>625.4000244140625</AltitudeMeters>
            <DistanceMeters>NAN</DistanceMeters>
          </Trackpoint>
          <Trackpoint>
            <Time>2019-10-06T08:39:38.000Z</Time>
            <Position>
              <LatitudeDegrees>41.47573686204850673675537109375</LatitudeDegrees>
              <LongitudeDegrees>-5.74001471512019634246826171875</LongitudeDegrees>
            </Position>
            <AltitudeMeters>625.4000244140625</AltitudeMeters>
            <DistanceMeters>NAN</DistanceMeters>
          </Trackpoint>
          <Trackpoint>
            <Time>2019-10-06T08:39:41.000Z</Time>
            <Position>
              <LatitudeDegrees>41.47561825811862945556640625</LatitudeDegrees>
              <LongitudeDegrees>-5.73994933627545833587646484375</LongitudeDegrees>
            </Position>
            <AltitudeMeters>625.5999755859375</AltitudeMeters>
            <DistanceMeters>NAN</DistanceMeters>
          </Trackpoint>
          <Trackpoint>
            <Time>2019-10-06T08:39:44.000Z</Time>
            <Position>
              <LatitudeDegrees>41.47550200112164020538330078125</LatitudeDegrees>
              <LongitudeDegrees>-5.7398830354213714599609375</LongitudeDegrees>
            </Position>
            <AltitudeMeters>625.79998779296875</AltitudeMeters>
            <DistanceMeters>NAN</DistanceMeters>
          </Trackpoint>
          <Trackpoint>
            <Time>2019-10-06T08:39:50.000Z</Time>
            <Position>
              <LatitudeDegrees>41.475248448550701141357421875</LatitudeDegrees>
              <LongitudeDegrees>-5.73982729576528072357177734375</LongitudeDegrees>
            </Position>
            <AltitudeMeters>626.4000244140625</AltitudeMeters>
            <DistanceMeters>NAN</DistanceMeters>
          </Trackpoint>
          <Trackpoint>
            <Time>2019-10-06T08:39:52.000Z</Time>
            <Position>
              <LatitudeDegrees>41.47516488097608089447021484375</LatitudeDegrees>
              <LongitudeDegrees>-5.73980902321636676788330078125</LongitudeDegrees>
            </Position>
            <AltitudeMeters>626.4000244140625</AltitudeMeters>
            <DistanceMeters>NAN</DistanceMeters>
          </Trackpoint>
          <Trackpoint>
            <Time>2019-10-06T08:39:57.000Z</Time>
            <Position>
              <LatitudeDegrees>41.474968492984771728515625</LatitudeDegrees>
              <LongitudeDegrees>-5.7397467456758022308349609375</LongitudeDegrees>
            </Position>
            <AltitudeMeters>626.5999755859375</AltitudeMeters>
            <DistanceMeters>NAN</DistanceMeters>
          </Trackpoint>
          <Trackpoint>
            <Time>2019-10-06T08:39:58.000Z</Time>
            <Position>
              <LatitudeDegrees>41.474926583468914031982421875</LatitudeDegrees>
              <LongitudeDegrees>-5.73973995633423328399658203125</LongitudeDegrees>
            </Position>
            <AltitudeMeters>626.5999755859375</AltitudeMeters>
            <DistanceMeters>NAN</DistanceMeters>
          </Trackpoint>
          <Trackpoint>
            <Time>2019-10-06T08:40:06.000Z</Time>
            <Position>
              <LatitudeDegrees>41.47458367981016635894775390625</LatitudeDegrees>
              <LongitudeDegrees>-5.7396609149873256683349609375</LongitudeDegrees>
            </Position>
            <AltitudeMeters>627.20001220703125</AltitudeMeters>
            <DistanceMeters>NAN</DistanceMeters>
          </Trackpoint>
          <Trackpoint>
            <Time>2019-10-06T08:40:09.000Z</Time>
            <Position>
              <LatitudeDegrees>41.47446088492870330810546875</LatitudeDegrees>
              <LongitudeDegrees>-5.7396133057773113250732421875</LongitudeDegrees>
            </Position>
            <AltitudeMeters>627.79998779296875</AltitudeMeters>
            <DistanceMeters>NAN</DistanceMeters>
          </Trackpoint>
          <Trackpoint>
            <Time>2019-10-06T08:40:14.000Z</Time>
            <Position>
              <LatitudeDegrees>41.47425837814807891845703125</LatitudeDegrees>
              <LongitudeDegrees>-5.7395371980965137481689453125</LongitudeDegrees>
            </Position>
            <AltitudeMeters>628</AltitudeMeters>
            <DistanceMeters>NAN</DistanceMeters>
          </Trackpoint>
          <Trackpoint>
            <Time>2019-10-06T08:40:22.000Z</Time>
            <Position>
              <LatitudeDegrees>41.4739353395998477935791015625</LatitudeDegrees>
              <LongitudeDegrees>-5.73942781426012516021728515625</LongitudeDegrees>
            </Position>
            <AltitudeMeters>628.79998779296875</AltitudeMeters>
            <DistanceMeters>NAN</DistanceMeters>
          </Trackpoint>
          <Trackpoint>
            <Time>2019-10-06T08:40:23.000Z</Time>
            <Position>
              <LatitudeDegrees>41.4738947711884975433349609375</LatitudeDegrees>
              <LongitudeDegrees>-5.739412643015384674072265625</LongitudeDegrees>
            </Position>
            <AltitudeMeters>628.20001220703125</AltitudeMeters>
            <DistanceMeters>NAN</DistanceMeters>
          </Trackpoint>
          <Trackpoint>
            <Time>2019-10-06T08:40:35.000Z</Time>
            <Position>
              <LatitudeDegrees>41.473407447338104248046875</LatitudeDegrees>
              <LongitudeDegrees>-5.7392401434481143951416015625</LongitudeDegrees>
            </Position>
            <AltitudeMeters>629.5999755859375</AltitudeMeters>
            <DistanceMeters>NAN</DistanceMeters>
          </Trackpoint>
          <Trackpoint>
            <Time>2019-10-06T08:40:38.000Z</Time>
            <Position>
              <LatitudeDegrees>41.473286412656307220458984375</LatitudeDegrees>
              <LongitudeDegrees>-5.7391910254955291748046875</LongitudeDegrees>
            </Position>
            <AltitudeMeters>629.79998779296875</AltitudeMeters>
            <DistanceMeters>NAN</DistanceMeters>
          </Trackpoint>
          <Trackpoint>
            <Time>2019-10-06T08:40:39.000Z</Time>
            <Position>
              <LatitudeDegrees>41.47324592806398868560791015625</LatitudeDegrees>
              <LongitudeDegrees>-5.7391834817826747894287109375</LongitudeDegrees>
            </Position>
            <AltitudeMeters>630</AltitudeMeters>
            <DistanceMeters>NAN</DistanceMeters>
          </Trackpoint>
          <Trackpoint>
            <Time>2019-10-06T08:40:43.000Z</Time>
            <Position>
              <LatitudeDegrees>41.473079882562160491943359375</LatitudeDegrees>
              <LongitudeDegrees>-5.73913059197366237640380859375</LongitudeDegrees>
            </Position>
            <AltitudeMeters>630.4000244140625</AltitudeMeters>
            <DistanceMeters>NAN</DistanceMeters>
          </Trackpoint>
          <Trackpoint>
            <Time>2019-10-06T08:40:49.000Z</Time>
            <Position>
              <LatitudeDegrees>41.4728238992393016815185546875</LatitudeDegrees>
              <LongitudeDegrees>-5.7390483655035495758056640625</LongitudeDegrees>
            </Position>
            <AltitudeMeters>631</AltitudeMeters>
            <DistanceMeters>NAN</DistanceMeters>
          </Trackpoint>
          <Trackpoint>
            <Time>2019-10-06T08:40:50.000Z</Time>
            <Position>
              <LatitudeDegrees>41.4727833308279514312744140625</LatitudeDegrees>
              <LongitudeDegrees>-5.739029757678508758544921875</LongitudeDegrees>
            </Position>
            <AltitudeMeters>631.4000244140625</AltitudeMeters>
            <DistanceMeters>NAN</DistanceMeters>
          </Trackpoint>
          <Trackpoint>
            <Time>2019-10-06T08:40:51.000Z</Time>
            <Position>
              <LatitudeDegrees>41.4727434329688549041748046875</LatitudeDegrees>
              <LongitudeDegrees>-5.73900930583477020263671875</LongitudeDegrees>
            </Position>
            <AltitudeMeters>631</AltitudeMeters>
            <DistanceMeters>NAN</DistanceMeters>
          </Trackpoint>
          <Trackpoint>
            <Time>2019-10-06T08:40:54.000Z</Time>
            <Position>
              <LatitudeDegrees>41.4726163633167743682861328125</LatitudeDegrees>
              <LongitudeDegrees>-5.7389665581285953521728515625</LongitudeDegrees>
            </Position>
            <AltitudeMeters>631.4000244140625</AltitudeMeters>
            <DistanceMeters>NAN</DistanceMeters>
          </Trackpoint>
          <Trackpoint>
            <Time>2019-10-06T08:40:57.000Z</Time>
            <Position>
              <LatitudeDegrees>41.47248736582696437835693359375</LatitudeDegrees>
              <LongitudeDegrees>-5.7389558292925357818603515625</LongitudeDegrees>
            </Position>
            <AltitudeMeters>632</AltitudeMeters>
            <DistanceMeters>NAN</DistanceMeters>
          </Trackpoint>
          <Trackpoint>
            <Time>2019-10-06T08:40:58.000Z</Time>
            <Position>
              <LatitudeDegrees>41.47244294174015522003173828125</LatitudeDegrees>
              <LongitudeDegrees>-5.73895121924579143524169921875</LongitudeDegrees>
            </Position>
            <AltitudeMeters>632.20001220703125</AltitudeMeters>
            <DistanceMeters>NAN</DistanceMeters>
          </Trackpoint>
          <Trackpoint>
            <Time>2019-10-06T08:40:59.000Z</Time>
            <Position>
              <LatitudeDegrees>41.4724056422710418701171875</LatitudeDegrees>
              <LongitudeDegrees>-5.7389474473893642425537109375</LongitudeDegrees>
            </Position>
            <AltitudeMeters>632.4000244140625</AltitudeMeters>
            <DistanceMeters>NAN</DistanceMeters>
          </Trackpoint>
          <Trackpoint>
            <Time>2019-10-06T08:41:02.000Z</Time>
            <Position>
              <LatitudeDegrees>41.4723144471645355224609375</LatitudeDegrees>
              <LongitudeDegrees>-5.738975442945957183837890625</LongitudeDegrees>
            </Position>
            <AltitudeMeters>632.79998779296875</AltitudeMeters>
            <DistanceMeters>NAN</DistanceMeters>
          </Trackpoint>
          <Trackpoint>
            <Time>2019-10-06T08:41:03.000Z</Time>
            <Position>
              <LatitudeDegrees>41.472308747470378875732421875</LatitudeDegrees>
              <LongitudeDegrees>-5.739012993872165679931640625</LongitudeDegrees>
            </Position>
            <AltitudeMeters>632.79998779296875</AltitudeMeters>
            <DistanceMeters>NAN</DistanceMeters>
          </Trackpoint>
          <Trackpoint>
            <Time>2019-10-06T08:41:07.000Z</Time>
            <Position>
              <LatitudeDegrees>41.472195088863372802734375</LatitudeDegrees>
              <LongitudeDegrees>-5.7391117326915264129638671875</LongitudeDegrees>
            </Position>
            <AltitudeMeters>632.79998779296875</AltitudeMeters>
            <DistanceMeters>NAN</DistanceMeters>
          </Trackpoint>
          <Trackpoint>
            <Time>2019-10-06T08:41:12.000Z</Time>
            <Position>
              <LatitudeDegrees>41.472009010612964630126953125</LatitudeDegrees>
              <LongitudeDegrees>-5.73912371881306171417236328125</LongitudeDegrees>
            </Position>
            <AltitudeMeters>633.5999755859375</AltitudeMeters>
            <DistanceMeters>NAN</DistanceMeters>
          </Trackpoint>
          <Trackpoint>
            <Time>2019-10-06T08:41:15.000Z</Time>
            <Position>
              <LatitudeDegrees>41.47190482355654239654541015625</LatitudeDegrees>
              <LongitudeDegrees>-5.73908130638301372528076171875</LongitudeDegrees>
            </Position>
            <AltitudeMeters>633.4000244140625</AltitudeMeters>
            <DistanceMeters>NAN</DistanceMeters>
          </Trackpoint>
          <Trackpoint>
            <Time>2019-10-06T08:41:18.000Z</Time>
            <Position>
              <LatitudeDegrees>41.47180373780429363250732421875</LatitudeDegrees>
              <LongitudeDegrees>-5.73901944793760776519775390625</LongitudeDegrees>
            </Position>
            <AltitudeMeters>633.79998779296875</AltitudeMeters>
            <DistanceMeters>NAN</DistanceMeters>
          </Trackpoint>
          <Trackpoint>
            <Time>2019-10-06T08:41:20.000Z</Time>
            <Position>
              <LatitudeDegrees>41.4717583917081356048583984375</LatitudeDegrees>
              <LongitudeDegrees>-5.73894250206649303436279296875</LongitudeDegrees>
            </Position>
            <AltitudeMeters>633.79998779296875</AltitudeMeters>
            <DistanceMeters>NAN</DistanceMeters>
          </Trackpoint>
          <Trackpoint>
            <Time>2019-10-06T08:41:22.000Z</Time>
            <Position>
              <LatitudeDegrees>41.4717243611812591552734375</LatitudeDegrees>
              <LongitudeDegrees>-5.738851390779018402099609375</LongitudeDegrees>
            </Position>
            <AltitudeMeters>634.4000244140625</AltitudeMeters>
            <DistanceMeters>NAN</DistanceMeters>
          </Trackpoint>
          <Trackpoint>
            <Time>2019-10-06T08:41:25.000Z</Time>
            <Position>
              <LatitudeDegrees>41.47165990434587001800537109375</LatitudeDegrees>
              <LongitudeDegrees>-5.73871828615665435791015625</LongitudeDegrees>
            </Position>
            <AltitudeMeters>634.4000244140625</AltitudeMeters>
            <DistanceMeters>NAN</DistanceMeters>
          </Trackpoint>
          <Trackpoint>
            <Time>2019-10-06T08:41:27.000Z</Time>
            <Position>
              <LatitudeDegrees>41.47160508669912815093994140625</LatitudeDegrees>
              <LongitudeDegrees>-5.73864058591425418853759765625</LongitudeDegrees>
            </Position>
            <AltitudeMeters>634.4000244140625</AltitudeMeters>
            <DistanceMeters>NAN</DistanceMeters>
          </Trackpoint>
          <Trackpoint>
            <Time>2019-10-06T08:41:29.000Z</Time>
            <Position>
              <LatitudeDegrees>41.47153920494019985198974609375</LatitudeDegrees>
              <LongitudeDegrees>-5.73858392424881458282470703125</LongitudeDegrees>
            </Position>
            <AltitudeMeters>634.20001220703125</AltitudeMeters>
            <DistanceMeters>NAN</DistanceMeters>
          </Trackpoint>
          <Trackpoint>
            <Time>2019-10-06T08:41:30.000Z</Time>
            <Position>
              <LatitudeDegrees>41.4715055935084819793701171875</LatitudeDegrees>
              <LongitudeDegrees>-5.73855643160641193389892578125</LongitudeDegrees>
            </Position>
            <AltitudeMeters>634.5999755859375</AltitudeMeters>
            <DistanceMeters>NAN</DistanceMeters>
          </Trackpoint>
          <Trackpoint>
            <Time>2019-10-06T08:41:36.000Z</Time>
            <Position>
              <LatitudeDegrees>41.47129009477794170379638671875</LatitudeDegrees>
              <LongitudeDegrees>-5.7384485565125942230224609375</LongitudeDegrees>
            </Position>
            <AltitudeMeters>635.5999755859375</AltitudeMeters>
            <DistanceMeters>NAN</DistanceMeters>
          </Trackpoint>
          <Trackpoint>
            <Time>2019-10-06T08:41:40.000Z</Time>
            <Position>
              <LatitudeDegrees>41.471138298511505126953125</LatitudeDegrees>
              <LongitudeDegrees>-5.738398097455501556396484375</LongitudeDegrees>
            </Position>
            <AltitudeMeters>635.79998779296875</AltitudeMeters>
            <DistanceMeters>NAN</DistanceMeters>
          </Trackpoint>
          <Trackpoint>
            <Time>2019-10-06T08:41:46.000Z</Time>
            <Position>
              <LatitudeDegrees>41.4709118194878101348876953125</LatitudeDegrees>
              <LongitudeDegrees>-5.73831050656735897064208984375</LongitudeDegrees>
            </Position>
            <AltitudeMeters>636.4000244140625</AltitudeMeters>
            <DistanceMeters>NAN</DistanceMeters>
          </Trackpoint>
          <Trackpoint>
            <Time>2019-10-06T08:41:52.000Z</Time>
            <Position>
              <LatitudeDegrees>41.4707039482891559600830078125</LatitudeDegrees>
              <LongitudeDegrees>-5.73821076191961765289306640625</LongitudeDegrees>
            </Position>
            <AltitudeMeters>636.79998779296875</AltitudeMeters>
            <DistanceMeters>NAN</DistanceMeters>
          </Trackpoint>
          <Trackpoint>
            <Time>2019-10-06T08:41:55.000Z</Time>
            <Position>
              <LatitudeDegrees>41.4706050418317317962646484375</LatitudeDegrees>
              <LongitudeDegrees>-5.73817874304950237274169921875</LongitudeDegrees>
            </Position>
            <AltitudeMeters>637.5999755859375</AltitudeMeters>
            <DistanceMeters>NAN</DistanceMeters>
          </Trackpoint>
          <Trackpoint>
            <Time>2019-10-06T08:42:00.000Z</Time>
            <Position>
              <LatitudeDegrees>41.47045492194592952728271484375</LatitudeDegrees>
              <LongitudeDegrees>-5.7381476461887359619140625</LongitudeDegrees>
            </Position>
            <AltitudeMeters>637.79998779296875</AltitudeMeters>
            <DistanceMeters>NAN</DistanceMeters>
          </Trackpoint>
          <Trackpoint>
            <Time>2019-10-06T08:42:05.000Z</Time>
            <Position>
              <LatitudeDegrees>41.4703307859599590301513671875</LatitudeDegrees>
              <LongitudeDegrees>-5.73810632340610027313232421875</LongitudeDegrees>
            </Position>
            <AltitudeMeters>638</AltitudeMeters>
            <DistanceMeters>NAN</DistanceMeters>
          </Trackpoint>
          <Trackpoint>
            <Time>2019-10-06T08:42:11.000Z</Time>
            <Position>
              <LatitudeDegrees>41.47021620534360408782958984375</LatitudeDegrees>
              <LongitudeDegrees>-5.7380720414221286773681640625</LongitudeDegrees>
            </Position>
            <AltitudeMeters>638.4000244140625</AltitudeMeters>
            <DistanceMeters>NAN</DistanceMeters>
          </Trackpoint>
          <Trackpoint>
            <Time>2019-10-06T08:42:18.000Z</Time>
            <Position>
              <LatitudeDegrees>41.46999391727149486541748046875</LatitudeDegrees>
              <LongitudeDegrees>-5.7379979453980922698974609375</LongitudeDegrees>
            </Position>
            <AltitudeMeters>639</AltitudeMeters>
            <DistanceMeters>NAN</DistanceMeters>
          </Trackpoint>
          <Trackpoint>
            <Time>2019-10-06T08:42:19.000Z</Time>
            <Position>
              <LatitudeDegrees>41.4699552766978740692138671875</LatitudeDegrees>
              <LongitudeDegrees>-5.7379855401813983917236328125</LongitudeDegrees>
            </Position>
            <AltitudeMeters>639</AltitudeMeters>
            <DistanceMeters>NAN</DistanceMeters>
          </Trackpoint>
          <Trackpoint>
            <Time>2019-10-06T08:42:24.000Z</Time>
            <Position>
              <LatitudeDegrees>41.46979627199470996856689453125</LatitudeDegrees>
              <LongitudeDegrees>-5.73792167007923126220703125</LongitudeDegrees>
            </Position>
            <AltitudeMeters>639.4000244140625</AltitudeMeters>
            <DistanceMeters>NAN</DistanceMeters>
          </Trackpoint>
          <Trackpoint>
            <Time>2019-10-06T08:42:29.000Z</Time>
            <Position>
              <LatitudeDegrees>41.469696275889873504638671875</LatitudeDegrees>
              <LongitudeDegrees>-5.73788453824818134307861328125</LongitudeDegrees>
            </Position>
            <AltitudeMeters>640</AltitudeMeters>
            <DistanceMeters>NAN</DistanceMeters>
          </Trackpoint>
          <Trackpoint>
            <Time>2019-10-06T08:42:33.000Z</Time>
            <Position>
              <LatitudeDegrees>41.46962176077067852020263671875</LatitudeDegrees>
              <LongitudeDegrees>-5.7378494180738925933837890625</LongitudeDegrees>
            </Position>
            <AltitudeMeters>640.20001220703125</AltitudeMeters>
            <DistanceMeters>NAN</DistanceMeters>
          </Trackpoint>
          <Trackpoint>
            <Time>2019-10-06T08:42:35.000Z</Time>
            <Position>
              <LatitudeDegrees>41.469568870961666107177734375</LatitudeDegrees>
              <LongitudeDegrees>-5.73782385326921939849853515625</LongitudeDegrees>
            </Position>
            <AltitudeMeters>639.79998779296875</AltitudeMeters>
            <DistanceMeters>NAN</DistanceMeters>
          </Trackpoint>
          <Trackpoint>
            <Time>2019-10-06T08:42:41.000Z</Time>
            <Position>
              <LatitudeDegrees>41.4693640172481536865234375</LatitudeDegrees>
              <LongitudeDegrees>-5.7377655990421772003173828125</LongitudeDegrees>
            </Position>
            <AltitudeMeters>640.4000244140625</AltitudeMeters>
            <DistanceMeters>NAN</DistanceMeters>
          </Trackpoint>
          <Trackpoint>
            <Time>2019-10-06T08:42:43.000Z</Time>
            <Position>
              <LatitudeDegrees>41.46929017268121242523193359375</LatitudeDegrees>
              <LongitudeDegrees>-5.737730562686920166015625</LongitudeDegrees>
            </Position>
            <AltitudeMeters>640.4000244140625</AltitudeMeters>
            <DistanceMeters>NAN</DistanceMeters>
          </Trackpoint>
          <Trackpoint>
            <Time>2019-10-06T08:42:48.000Z</Time>
            <Position>
              <LatitudeDegrees>41.46910543553531169891357421875</LatitudeDegrees>
              <LongitudeDegrees>-5.73762302286922931671142578125</LongitudeDegrees>
            </Position>
            <AltitudeMeters>640.79998779296875</AltitudeMeters>
            <DistanceMeters>NAN</DistanceMeters>
          </Trackpoint>
          <Trackpoint>
            <Time>2019-10-06T08:42:57.000Z</Time>
            <Position>
              <LatitudeDegrees>41.4687766134738922119140625</LatitudeDegrees>
              <LongitudeDegrees>-5.7374085299670696258544921875</LongitudeDegrees>
            </Position>
            <AltitudeMeters>640.4000244140625</AltitudeMeters>
            <DistanceMeters>NAN</DistanceMeters>
          </Trackpoint>
          <Trackpoint>
            <Time>2019-10-06T08:42:58.000Z</Time>
            <Position>
              <LatitudeDegrees>41.4687405712902545928955078125</LatitudeDegrees>
              <LongitudeDegrees>-5.73738112114369869232177734375</LongitudeDegrees>
            </Position>
            <AltitudeMeters>640.4000244140625</AltitudeMeters>
            <DistanceMeters>NAN</DistanceMeters>
          </Trackpoint>
          <Trackpoint>
            <Time>2019-10-06T08:43:02.000Z</Time>
            <Position>
              <LatitudeDegrees>41.468599922955036163330078125</LatitudeDegrees>
              <LongitudeDegrees>-5.73727232404053211212158203125</LongitudeDegrees>
            </Position>
            <AltitudeMeters>640.79998779296875</AltitudeMeters>
            <DistanceMeters>NAN</DistanceMeters>
          </Trackpoint>
          <Trackpoint>
            <Time>2019-10-06T08:43:04.000Z</Time>
            <Position>
              <LatitudeDegrees>41.46853010170161724090576171875</LatitudeDegrees>
              <LongitudeDegrees>-5.73721113614737987518310546875</LongitudeDegrees>
            </Position>
            <AltitudeMeters>640.5999755859375</AltitudeMeters>
            <DistanceMeters>NAN</DistanceMeters>
          </Trackpoint>
          <Trackpoint>
            <Time>2019-10-06T08:43:09.000Z</Time>
            <Position>
              <LatitudeDegrees>41.4683385752141475677490234375</LatitudeDegrees>
              <LongitudeDegrees>-5.73710200376808643341064453125</LongitudeDegrees>
            </Position>
            <AltitudeMeters>640.20001220703125</AltitudeMeters>
            <DistanceMeters>NAN</DistanceMeters>
          </Trackpoint>
          <Trackpoint>
            <Time>2019-10-06T08:43:11.000Z</Time>
            <Position>
              <LatitudeDegrees>41.46826456300914287567138671875</LatitudeDegrees>
              <LongitudeDegrees>-5.73704584501683712005615234375</LongitudeDegrees>
            </Position>
            <AltitudeMeters>640.20001220703125</AltitudeMeters>
            <DistanceMeters>NAN</DistanceMeters>
          </Trackpoint>
          <Trackpoint>
            <Time>2019-10-06T08:43:15.000Z</Time>
            <Position>
              <LatitudeDegrees>41.46812173537909984588623046875</LatitudeDegrees>
              <LongitudeDegrees>-5.73692925274372100830078125</LongitudeDegrees>
            </Position>
            <AltitudeMeters>640.20001220703125</AltitudeMeters>
            <DistanceMeters>NAN</DistanceMeters>
          </Trackpoint>
          <Trackpoint>
            <Time>2019-10-06T08:43:18.000Z</Time>
            <Position>
              <LatitudeDegrees>41.46802182309329509735107421875</LatitudeDegrees>
              <LongitudeDegrees>-5.7368333637714385986328125</LongitudeDegrees>
            </Position>
            <AltitudeMeters>640.20001220703125</AltitudeMeters>
            <DistanceMeters>NAN</DistanceMeters>
          </Trackpoint>
          <Trackpoint>
            <Time>2019-10-06T08:43:19.000Z</Time>
            <Position>
              <LatitudeDegrees>41.4679888822138309478759765625</LatitudeDegrees>
              <LongitudeDegrees>-5.7368000037968158721923828125</LongitudeDegrees>
            </Position>
            <AltitudeMeters>640.4000244140625</AltitudeMeters>
            <DistanceMeters>NAN</DistanceMeters>
          </Trackpoint>
          <Trackpoint>
            <Time>2019-10-06T08:43:26.000Z</Time>
            <Position>
              <LatitudeDegrees>41.46773382090032100677490234375</LatitudeDegrees>
              <LongitudeDegrees>-5.73657277040183544158935546875</LongitudeDegrees>
            </Position>
            <AltitudeMeters>640.4000244140625</AltitudeMeters>
            <DistanceMeters>NAN</DistanceMeters>
          </Trackpoint>
          <Trackpoint>
            <Time>2019-10-06T08:43:35.000Z</Time>
            <Position>
              <LatitudeDegrees>41.467393599450588226318359375</LatitudeDegrees>
              <LongitudeDegrees>-5.736292563378810882568359375</LongitudeDegrees>
            </Position>
            <AltitudeMeters>640</AltitudeMeters>
            <DistanceMeters>NAN</DistanceMeters>
          </Trackpoint>
          <Trackpoint>
            <Time>2019-10-06T08:43:36.000Z</Time>
            <Position>
              <LatitudeDegrees>41.46735713817179203033447265625</LatitudeDegrees>
              <LongitudeDegrees>-5.73626062832772731781005859375</LongitudeDegrees>
            </Position>
            <AltitudeMeters>639.79998779296875</AltitudeMeters>
            <DistanceMeters>NAN</DistanceMeters>
          </Trackpoint>
          <Trackpoint>
            <Time>2019-10-06T08:43:44.000Z</Time>
            <Position>
              <LatitudeDegrees>41.467063017189502716064453125</LatitudeDegrees>
              <LongitudeDegrees>-5.73599609546363353729248046875</LongitudeDegrees>
            </Position>
            <AltitudeMeters>639.5999755859375</AltitudeMeters>
            <DistanceMeters>NAN</DistanceMeters>
          </Trackpoint>
          <Trackpoint>
            <Time>2019-10-06T08:43:54.000Z</Time>
            <Position>
              <LatitudeDegrees>41.46668340079486370086669921875</LatitudeDegrees>
              <LongitudeDegrees>-5.73571479879319667816162109375</LongitudeDegrees>
            </Position>
            <AltitudeMeters>639.5999755859375</AltitudeMeters>
            <DistanceMeters>NAN</DistanceMeters>
          </Trackpoint>
          <Trackpoint>
            <Time>2019-10-06T08:44:03.000Z</Time>
            <Position>
              <LatitudeDegrees>41.466391123831272125244140625</LatitudeDegrees>
              <LongitudeDegrees>-5.7354676164686679840087890625</LongitudeDegrees>
            </Position>
            <AltitudeMeters>640</AltitudeMeters>
            <DistanceMeters>NAN</DistanceMeters>
          </Trackpoint>
          <Trackpoint>
            <Time>2019-10-06T08:44:07.000Z</Time>
            <Position>
              <LatitudeDegrees>41.46625994704663753509521484375</LatitudeDegrees>
              <LongitudeDegrees>-5.73535907082259654998779296875</LongitudeDegrees>
            </Position>
            <AltitudeMeters>640</AltitudeMeters>
            <DistanceMeters>NAN</DistanceMeters>
          </Trackpoint>
          <Trackpoint>
            <Time>2019-10-06T08:44:10.000Z</Time>
            <Position>
              <LatitudeDegrees>41.466157101094722747802734375</LatitudeDegrees>
              <LongitudeDegrees>-5.7352642714977264404296875</LongitudeDegrees>
            </Position>
            <AltitudeMeters>640</AltitudeMeters>
            <DistanceMeters>NAN</DistanceMeters>
          </Trackpoint>
          <Trackpoint>
            <Time>2019-10-06T08:44:21.000Z</Time>
            <Position>
              <LatitudeDegrees>41.4657618105411529541015625</LatitudeDegrees>
              <LongitudeDegrees>-5.73495422489941120147705078125</LongitudeDegrees>
            </Position>
            <AltitudeMeters>640.20001220703125</AltitudeMeters>
            <DistanceMeters>NAN</DistanceMeters>
          </Trackpoint>
          <Trackpoint>
            <Time>2019-10-06T08:44:31.000Z</Time>
            <Position>
              <LatitudeDegrees>41.46537280641496181488037109375</LatitudeDegrees>
              <LongitudeDegrees>-5.7347171008586883544921875</LongitudeDegrees>
            </Position>
            <AltitudeMeters>640.4000244140625</AltitudeMeters>
            <DistanceMeters>NAN</DistanceMeters>
          </Trackpoint>
          <Trackpoint>
            <Time>2019-10-06T08:44:40.000Z</Time>
            <Position>
              <LatitudeDegrees>41.46502076648175716400146484375</LatitudeDegrees>
              <LongitudeDegrees>-5.73449523188173770904541015625</LongitudeDegrees>
            </Position>
            <AltitudeMeters>641.20001220703125</AltitudeMeters>
            <DistanceMeters>NAN</DistanceMeters>
          </Trackpoint>
          <Trackpoint>
            <Time>2019-10-06T08:44:50.000Z</Time>
            <Position>
              <LatitudeDegrees>41.4646109752357006072998046875</LatitudeDegrees>
              <LongitudeDegrees>-5.7343203015625476837158203125</LongitudeDegrees>
            </Position>
            <AltitudeMeters>641.79998779296875</AltitudeMeters>
            <DistanceMeters>NAN</DistanceMeters>
          </Trackpoint>
          <Trackpoint>
            <Time>2019-10-06T08:44:56.000Z</Time>
            <Position>
              <LatitudeDegrees>41.4643702469766139984130859375</LatitudeDegrees>
              <LongitudeDegrees>-5.73423363268375396728515625</LongitudeDegrees>
            </Position>
            <AltitudeMeters>642.20001220703125</AltitudeMeters>
            <DistanceMeters>NAN</DistanceMeters>
          </Trackpoint>
          <Trackpoint>
            <Time>2019-10-06T08:45:00.000Z</Time>
            <Position>
              <LatitudeDegrees>41.4642141759395599365234375</LatitudeDegrees>
              <LongitudeDegrees>-5.73416699655354022979736328125</LongitudeDegrees>
            </Position>
            <AltitudeMeters>642.79998779296875</AltitudeMeters>
            <DistanceMeters>NAN</DistanceMeters>
          </Trackpoint>
          <Trackpoint>
            <Time>2019-10-06T08:45:10.000Z</Time>
            <Position>
              <LatitudeDegrees>41.463808827102184295654296875</LatitudeDegrees>
              <LongitudeDegrees>-5.73401846922934055328369140625</LongitudeDegrees>
            </Position>
            <AltitudeMeters>643.4000244140625</AltitudeMeters>
            <DistanceMeters>NAN</DistanceMeters>
          </Trackpoint>
          <Trackpoint>
            <Time>2019-10-06T08:45:18.000Z</Time>
            <Position>
              <LatitudeDegrees>41.46349643357098102569580078125</LatitudeDegrees>
              <LongitudeDegrees>-5.73389030992984771728515625</LongitudeDegrees>
            </Position>
            <AltitudeMeters>644</AltitudeMeters>
            <DistanceMeters>NAN</DistanceMeters>
          </Trackpoint>
          <Trackpoint>
            <Time>2019-10-06T08:45:20.000Z</Time>
            <Position>
              <LatitudeDegrees>41.46341965533792972564697265625</LatitudeDegrees>
              <LongitudeDegrees>-5.73386943899095058441162109375</LongitudeDegrees>
            </Position>
            <AltitudeMeters>644.4000244140625</AltitudeMeters>
            <DistanceMeters>NAN</DistanceMeters>
          </Trackpoint>
          <Trackpoint>
            <Time>2019-10-06T08:45:25.000Z</Time>
            <Position>
              <LatitudeDegrees>41.46323894150555133819580078125</LatitudeDegrees>
              <LongitudeDegrees>-5.73383742012083530426025390625</LongitudeDegrees>
            </Position>
            <AltitudeMeters>644.4000244140625</AltitudeMeters>
            <DistanceMeters>NAN</DistanceMeters>
          </Trackpoint>
          <Trackpoint>
            <Time>2019-10-06T08:45:27.000Z</Time>
            <Position>
              <LatitudeDegrees>41.4631676115095615386962890625</LatitudeDegrees>
              <LongitudeDegrees>-5.733796767890453338623046875</LongitudeDegrees>
            </Position>
            <AltitudeMeters>644.5999755859375</AltitudeMeters>
            <DistanceMeters>NAN</DistanceMeters>
          </Trackpoint>
          <Trackpoint>
            <Time>2019-10-06T08:45:30.000Z</Time>
            <Position>
              <LatitudeDegrees>41.4630562998354434967041015625</LatitudeDegrees>
              <LongitudeDegrees>-5.73374681174755096435546875</LongitudeDegrees>
            </Position>
            <AltitudeMeters>644.79998779296875</AltitudeMeters>
            <DistanceMeters>NAN</DistanceMeters>
          </Trackpoint>
          <Trackpoint>
            <Time>2019-10-06T08:45:36.000Z</Time>
            <Position>
              <LatitudeDegrees>41.46282613277435302734375</LatitudeDegrees>
              <LongitudeDegrees>-5.73367363773286342620849609375</LongitudeDegrees>
            </Position>
            <AltitudeMeters>645</AltitudeMeters>
            <DistanceMeters>NAN</DistanceMeters>
          </Trackpoint>
          <Trackpoint>
            <Time>2019-10-06T08:45:39.000Z</Time>
            <Position>
              <LatitudeDegrees>41.46271490491926670074462890625</LatitudeDegrees>
              <LongitudeDegrees>-5.7336200773715972900390625</LongitudeDegrees>
            </Position>
            <AltitudeMeters>645.4000244140625</AltitudeMeters>
            <DistanceMeters>NAN</DistanceMeters>
          </Trackpoint>
          <Trackpoint>
            <Time>2019-10-06T08:45:40.000Z</Time>
            <Position>
              <LatitudeDegrees>41.4626774378120899200439453125</LatitudeDegrees>
              <LongitudeDegrees>-5.73360172100365161895751953125</LongitudeDegrees>
            </Position>
            <AltitudeMeters>645.4000244140625</AltitudeMeters>
            <DistanceMeters>NAN</DistanceMeters>
          </Trackpoint>
          <Trackpoint>
            <Time>2019-10-06T08:45:47.000Z</Time>
            <Position>
              <LatitudeDegrees>41.46240963600575923919677734375</LatitudeDegrees>
              <LongitudeDegrees>-5.73348931968212127685546875</LongitudeDegrees>
            </Position>
            <AltitudeMeters>646</AltitudeMeters>
            <DistanceMeters>NAN</DistanceMeters>
          </Trackpoint>
          <Trackpoint>
            <Time>2019-10-06T08:45:48.000Z</Time>
            <Position>
              <LatitudeDegrees>41.46237074397504329681396484375</LatitudeDegrees>
              <LongitudeDegrees>-5.73347532190382480621337890625</LongitudeDegrees>
            </Position>
            <AltitudeMeters>646</AltitudeMeters>
            <DistanceMeters>NAN</DistanceMeters>
          </Trackpoint>
          <Trackpoint>
            <Time>2019-10-06T08:45:56.000Z</Time>
            <Position>
              <LatitudeDegrees>41.4620672352612018585205078125</LatitudeDegrees>
              <LongitudeDegrees>-5.73337239213287830352783203125</LongitudeDegrees>
            </Position>
            <AltitudeMeters>646.4000244140625</AltitudeMeters>
            <DistanceMeters>NAN</DistanceMeters>
          </Trackpoint>
          <Trackpoint>
            <Time>2019-10-06T08:45:57.000Z</Time>
            <Position>
              <LatitudeDegrees>41.46202960051596164703369140625</LatitudeDegrees>
              <LongitudeDegrees>-5.73335965164005756378173828125</LongitudeDegrees>
            </Position>
            <AltitudeMeters>646.4000244140625</AltitudeMeters>
            <DistanceMeters>NAN</DistanceMeters>
          </Trackpoint>
          <Trackpoint>
            <Time>2019-10-06T08:46:03.000Z</Time>
            <Position>
              <LatitudeDegrees>41.46180479787290096282958984375</LatitudeDegrees>
              <LongitudeDegrees>-5.73327616788446903228759765625</LongitudeDegrees>
            </Position>
            <AltitudeMeters>647</AltitudeMeters>
            <DistanceMeters>NAN</DistanceMeters>
          </Trackpoint>
          <Trackpoint>
            <Time>2019-10-06T08:46:07.000Z</Time>
            <Position>
              <LatitudeDegrees>41.461648643016815185546875</LatitudeDegrees>
              <LongitudeDegrees>-5.73321782983839511871337890625</LongitudeDegrees>
            </Position>
            <AltitudeMeters>647.20001220703125</AltitudeMeters>
            <DistanceMeters>NAN</DistanceMeters>
          </Trackpoint>
          <Trackpoint>
            <Time>2019-10-06T08:46:11.000Z</Time>
            <Position>
              <LatitudeDegrees>41.461490057408809661865234375</LatitudeDegrees>
              <LongitudeDegrees>-5.73317407630383968353271484375</LongitudeDegrees>
            </Position>
            <AltitudeMeters>647.4000244140625</AltitudeMeters>
            <DistanceMeters>NAN</DistanceMeters>
          </Trackpoint>
          <Trackpoint>
            <Time>2019-10-06T08:46:16.000Z</Time>
            <Position>
              <LatitudeDegrees>41.4612914063036441802978515625</LatitudeDegrees>
              <LongitudeDegrees>-5.73310031555593013763427734375</LongitudeDegrees>
            </Position>
            <AltitudeMeters>647.5999755859375</AltitudeMeters>
            <DistanceMeters>NAN</DistanceMeters>
          </Trackpoint>
          <Trackpoint>
            <Time>2019-10-06T08:46:26.000Z</Time>
            <Position>
              <LatitudeDegrees>41.46090810187160968780517578125</LatitudeDegrees>
              <LongitudeDegrees>-5.732938461005687713623046875</LongitudeDegrees>
            </Position>
            <AltitudeMeters>648.5999755859375</AltitudeMeters>
            <DistanceMeters>NAN</DistanceMeters>
          </Trackpoint>
          <Trackpoint>
            <Time>2019-10-06T08:46:35.000Z</Time>
            <Position>
              <LatitudeDegrees>41.46056033670902252197265625</LatitudeDegrees>
              <LongitudeDegrees>-5.732817761600017547607421875</LongitudeDegrees>
            </Position>
            <AltitudeMeters>649</AltitudeMeters>
            <DistanceMeters>NAN</DistanceMeters>
          </Trackpoint>
          <Trackpoint>
            <Time>2019-10-06T08:46:41.000Z</Time>
            <Position>
              <LatitudeDegrees>41.4603227935731410980224609375</LatitudeDegrees>
              <LongitudeDegrees>-5.73277316987514495849609375</LongitudeDegrees>
            </Position>
            <AltitudeMeters>649.79998779296875</AltitudeMeters>
            <DistanceMeters>NAN</DistanceMeters>
          </Trackpoint>
          <Trackpoint>
            <Time>2019-10-06T08:46:43.000Z</Time>
            <Position>
              <LatitudeDegrees>41.4602483622729778289794921875</LatitudeDegrees>
              <LongitudeDegrees>-5.73273402638733386993408203125</LongitudeDegrees>
            </Position>
            <AltitudeMeters>649.79998779296875</AltitudeMeters>
            <DistanceMeters>NAN</DistanceMeters>
          </Trackpoint>
          <Trackpoint>
            <Time>2019-10-06T08:46:44.000Z</Time>
            <Position>
              <LatitudeDegrees>41.46021156571805477142333984375</LatitudeDegrees>
              <LongitudeDegrees>-5.73271424509584903717041015625</LongitudeDegrees>
            </Position>
            <AltitudeMeters>649.79998779296875</AltitudeMeters>
            <DistanceMeters>NAN</DistanceMeters>
          </Trackpoint>
          <Trackpoint>
            <Time>2019-10-06T08:46:51.000Z</Time>
            <Position>
              <LatitudeDegrees>41.45997226238250732421875</LatitudeDegrees>
              <LongitudeDegrees>-5.7326224632561206817626953125</LongitudeDegrees>
            </Position>
            <AltitudeMeters>650.5999755859375</AltitudeMeters>
            <DistanceMeters>NAN</DistanceMeters>
          </Trackpoint>
          <Trackpoint>
            <Time>2019-10-06T08:46:53.000Z</Time>
            <Position>
              <LatitudeDegrees>41.4599065482616424560546875</LatitudeDegrees>
              <LongitudeDegrees>-5.73262296617031097412109375</LongitudeDegrees>
            </Position>
            <AltitudeMeters>650.79998779296875</AltitudeMeters>
            <DistanceMeters>NAN</DistanceMeters>
          </Trackpoint>
          <Trackpoint>
            <Time>2019-10-06T08:46:57.000Z</Time>
            <Position>
              <LatitudeDegrees>41.4597697556018829345703125</LatitudeDegrees>
              <LongitudeDegrees>-5.73255364783108234405517578125</LongitudeDegrees>
            </Position>
            <AltitudeMeters>650.79998779296875</AltitudeMeters>
            <DistanceMeters>NAN</DistanceMeters>
          </Trackpoint>
          <Trackpoint>
            <Time>2019-10-06T08:47:04.000Z</Time>
            <Position>
              <LatitudeDegrees>41.45952458493411540985107421875</LatitudeDegrees>
              <LongitudeDegrees>-5.73240444995462894439697265625</LongitudeDegrees>
            </Position>
            <AltitudeMeters>651.20001220703125</AltitudeMeters>
            <DistanceMeters>NAN</DistanceMeters>
          </Trackpoint>
          <Trackpoint>
            <Time>2019-10-06T08:47:07.000Z</Time>
            <Position>
              <LatitudeDegrees>41.45941796712577342987060546875</LatitudeDegrees>
              <LongitudeDegrees>-5.73234074749052524566650390625</LongitudeDegrees>
            </Position>
            <AltitudeMeters>651.4000244140625</AltitudeMeters>
            <DistanceMeters>NAN</DistanceMeters>
          </Trackpoint>
          <Trackpoint>
            <Time>2019-10-06T08:47:10.000Z</Time>
            <Position>
              <LatitudeDegrees>41.45930715836584568023681640625</LatitudeDegrees>
              <LongitudeDegrees>-5.73226950131356716156005859375</LongitudeDegrees>
            </Position>
            <AltitudeMeters>651.79998779296875</AltitudeMeters>
            <DistanceMeters>NAN</DistanceMeters>
          </Trackpoint>
          <Trackpoint>
            <Time>2019-10-06T08:47:11.000Z</Time>
            <Position>
              <LatitudeDegrees>41.45927446894347667694091796875</LatitudeDegrees>
              <LongitudeDegrees>-5.73223865590989589691162109375</LongitudeDegrees>
            </Position>
            <AltitudeMeters>651.79998779296875</AltitudeMeters>
            <DistanceMeters>NAN</DistanceMeters>
          </Trackpoint>
          <Trackpoint>
            <Time>2019-10-06T08:47:15.000Z</Time>
            <Position>
              <LatitudeDegrees>41.45913340151309967041015625</LatitudeDegrees>
              <LongitudeDegrees>-5.73213270865380764007568359375</LongitudeDegrees>
            </Position>
            <AltitudeMeters>652</AltitudeMeters>
            <DistanceMeters>NAN</DistanceMeters>
          </Trackpoint>
          <Trackpoint>
            <Time>2019-10-06T08:47:23.000Z</Time>
            <Position>
              <LatitudeDegrees>41.4588495902717113494873046875</LatitudeDegrees>
              <LongitudeDegrees>-5.73192785494029521942138671875</LongitudeDegrees>
            </Position>
            <AltitudeMeters>651.79998779296875</AltitudeMeters>
            <DistanceMeters>NAN</DistanceMeters>
          </Trackpoint>
          <Trackpoint>
            <Time>2019-10-06T08:47:26.000Z</Time>
            <Position>
              <LatitudeDegrees>41.45873551256954669952392578125</LatitudeDegrees>
              <LongitudeDegrees>-5.73184940032660961151123046875</LongitudeDegrees>
            </Position>
            <AltitudeMeters>651.4000244140625</AltitudeMeters>
            <DistanceMeters>NAN</DistanceMeters>
          </Trackpoint>
          <Trackpoint>
            <Time>2019-10-06T08:47:28.000Z</Time>
            <Position>
              <LatitudeDegrees>41.458649933338165283203125</LatitudeDegrees>
              <LongitudeDegrees>-5.73185384273529052734375</LongitudeDegrees>
            </Position>
            <AltitudeMeters>651.79998779296875</AltitudeMeters>
            <DistanceMeters>NAN</DistanceMeters>
          </Trackpoint>
          <Trackpoint>
            <Time>2019-10-06T08:47:35.000Z</Time>
            <Position>
              <LatitudeDegrees>41.4583641104400157928466796875</LatitudeDegrees>
              <LongitudeDegrees>-5.731824003159999847412109375</LongitudeDegrees>
            </Position>
            <AltitudeMeters>652.20001220703125</AltitudeMeters>
            <DistanceMeters>NAN</DistanceMeters>
          </Trackpoint>
          <Trackpoint>
            <Time>2019-10-06T08:47:43.000Z</Time>
            <Position>
              <LatitudeDegrees>41.4580335281789302825927734375</LatitudeDegrees>
              <LongitudeDegrees>-5.73175770230591297149658203125</LongitudeDegrees>
            </Position>
            <AltitudeMeters>652.20001220703125</AltitudeMeters>
            <DistanceMeters>NAN</DistanceMeters>
          </Trackpoint>
          <Trackpoint>
            <Time>2019-10-06T08:47:44.000Z</Time>
            <Position>
              <LatitudeDegrees>41.45799254067242145538330078125</LatitudeDegrees>
              <LongitudeDegrees>-5.73174412362277507781982421875</LongitudeDegrees>
            </Position>
            <AltitudeMeters>652.20001220703125</AltitudeMeters>
            <DistanceMeters>NAN</DistanceMeters>
          </Trackpoint>
          <Trackpoint>
            <Time>2019-10-06T08:47:45.000Z</Time>
            <Position>
              <LatitudeDegrees>41.457950882613658905029296875</LatitudeDegrees>
              <LongitudeDegrees>-5.73172685690224170684814453125</LongitudeDegrees>
            </Position>
            <AltitudeMeters>652.20001220703125</AltitudeMeters>
            <DistanceMeters>NAN</DistanceMeters>
          </Trackpoint>
          <Trackpoint>
            <Time>2019-10-06T08:47:47.000Z</Time>
            <Position>
              <LatitudeDegrees>41.4578632079064846038818359375</LatitudeDegrees>
              <LongitudeDegrees>-5.731704644858837127685546875</LongitudeDegrees>
            </Position>
            <AltitudeMeters>652.20001220703125</AltitudeMeters>
            <DistanceMeters>NAN</DistanceMeters>
          </Trackpoint>
          <Trackpoint>
            <Time>2019-10-06T08:47:52.000Z</Time>
            <Position>
              <LatitudeDegrees>41.45764720626175403594970703125</LatitudeDegrees>
              <LongitudeDegrees>-5.731663741171360015869140625</LongitudeDegrees>
            </Position>
            <AltitudeMeters>652</AltitudeMeters>
            <DistanceMeters>NAN</DistanceMeters>
          </Trackpoint>
          <Trackpoint>
            <Time>2019-10-06T08:47:55.000Z</Time>
            <Position>
              <LatitudeDegrees>41.4575218968093395233154296875</LatitudeDegrees>
              <LongitudeDegrees>-5.73164186440408229827880859375</LongitudeDegrees>
            </Position>
            <AltitudeMeters>652</AltitudeMeters>
            <DistanceMeters>NAN</DistanceMeters>
          </Trackpoint>
          <Trackpoint>
            <Time>2019-10-06T08:47:57.000Z</Time>
            <Position>
              <LatitudeDegrees>41.45743883214890956878662109375</LatitudeDegrees>
              <LongitudeDegrees>-5.7316226698458194732666015625</LongitudeDegrees>
            </Position>
            <AltitudeMeters>652.20001220703125</AltitudeMeters>
            <DistanceMeters>NAN</DistanceMeters>
          </Trackpoint>
          <Trackpoint>
            <Time>2019-10-06T08:48:00.000Z</Time>
            <Position>
              <LatitudeDegrees>41.45731444470584392547607421875</LatitudeDegrees>
              <LongitudeDegrees>-5.73159844614565372467041015625</LongitudeDegrees>
            </Position>
            <AltitudeMeters>652.4000244140625</AltitudeMeters>
            <DistanceMeters>NAN</DistanceMeters>
          </Trackpoint>
          <Trackpoint>
            <Time>2019-10-06T08:48:05.000Z</Time>
            <Position>
              <LatitudeDegrees>41.45711378194391727447509765625</LatitudeDegrees>
              <LongitudeDegrees>-5.731552429497241973876953125</LongitudeDegrees>
            </Position>
            <AltitudeMeters>653</AltitudeMeters>
            <DistanceMeters>NAN</DistanceMeters>
          </Trackpoint>
          <Trackpoint>
            <Time>2019-10-06T08:48:10.000Z</Time>
            <Position>
              <LatitudeDegrees>41.45691613666713237762451171875</LatitudeDegrees>
              <LongitudeDegrees>-5.7314877212047576904296875</LongitudeDegrees>
            </Position>
            <AltitudeMeters>653</AltitudeMeters>
            <DistanceMeters>NAN</DistanceMeters>
          </Trackpoint>
          <Trackpoint>
            <Time>2019-10-06T08:48:17.000Z</Time>
            <Position>
              <LatitudeDegrees>41.4566397853195667266845703125</LatitudeDegrees>
              <LongitudeDegrees>-5.7314275391399860382080078125</LongitudeDegrees>
            </Position>
            <AltitudeMeters>653.4000244140625</AltitudeMeters>
            <DistanceMeters>NAN</DistanceMeters>
          </Trackpoint>
          <Trackpoint>
            <Time>2019-10-06T08:48:19.000Z</Time>
            <Position>
              <LatitudeDegrees>41.45655906759202480316162109375</LatitudeDegrees>
              <LongitudeDegrees>-5.731423683464527130126953125</LongitudeDegrees>
            </Position>
            <AltitudeMeters>653.79998779296875</AltitudeMeters>
            <DistanceMeters>NAN</DistanceMeters>
          </Trackpoint>
          <Trackpoint>
            <Time>2019-10-06T08:48:21.000Z</Time>
            <Position>
              <LatitudeDegrees>41.456481032073497772216796875</LatitudeDegrees>
              <LongitudeDegrees>-5.73141320608556270599365234375</LongitudeDegrees>
            </Position>
            <AltitudeMeters>654.20001220703125</AltitudeMeters>
            <DistanceMeters>NAN</DistanceMeters>
          </Trackpoint>
          <Trackpoint>
            <Time>2019-10-06T08:48:27.000Z</Time>
            <Position>
              <LatitudeDegrees>41.45624072290956974029541015625</LatitudeDegrees>
              <LongitudeDegrees>-5.7313524372875690460205078125</LongitudeDegrees>
            </Position>
            <AltitudeMeters>654.5999755859375</AltitudeMeters>
            <DistanceMeters>NAN</DistanceMeters>
          </Trackpoint>
          <Trackpoint>
            <Time>2019-10-06T08:48:33.000Z</Time>
            <Position>
              <LatitudeDegrees>41.4560101367533206939697265625</LatitudeDegrees>
              <LongitudeDegrees>-5.73130809701979160308837890625</LongitudeDegrees>
            </Position>
            <AltitudeMeters>655.20001220703125</AltitudeMeters>
            <DistanceMeters>NAN</DistanceMeters>
          </Trackpoint>
          <Trackpoint>
            <Time>2019-10-06T08:48:36.000Z</Time>
            <Position>
              <LatitudeDegrees>41.45587912760674953460693359375</LatitudeDegrees>
              <LongitudeDegrees>-5.73128043673932552337646484375</LongitudeDegrees>
            </Position>
            <AltitudeMeters>655.4000244140625</AltitudeMeters>
            <DistanceMeters>NAN</DistanceMeters>
          </Trackpoint>
          <Trackpoint>
            <Time>2019-10-06T08:48:43.000Z</Time>
            <Position>
              <LatitudeDegrees>41.45561702549457550048828125</LatitudeDegrees>
              <LongitudeDegrees>-5.7312141358852386474609375</LongitudeDegrees>
            </Position>
            <AltitudeMeters>656</AltitudeMeters>
            <DistanceMeters>NAN</DistanceMeters>
          </Trackpoint>
          <Trackpoint>
            <Time>2019-10-06T08:48:46.000Z</Time>
            <Position>
              <LatitudeDegrees>41.45549993030726909637451171875</LatitudeDegrees>
              <LongitudeDegrees>-5.7311739027500152587890625</LongitudeDegrees>
            </Position>
            <AltitudeMeters>656.20001220703125</AltitudeMeters>
            <DistanceMeters>NAN</DistanceMeters>
          </Trackpoint>
          <Trackpoint>
            <Time>2019-10-06T08:48:47.000Z</Time>
            <Position>
              <LatitudeDegrees>41.4554599486291408538818359375</LatitudeDegrees>
              <LongitudeDegrees>-5.73116761632263660430908203125</LongitudeDegrees>
            </Position>
            <AltitudeMeters>656</AltitudeMeters>
            <DistanceMeters>NAN</DistanceMeters>
          </Trackpoint>
          <Trackpoint>
            <Time>2019-10-06T08:48:49.000Z</Time>
            <Position>
              <LatitudeDegrees>41.45538057200610637664794921875</LatitudeDegrees>
              <LongitudeDegrees>-5.7311519421637058258056640625</LongitudeDegrees>
            </Position>
            <AltitudeMeters>656.4000244140625</AltitudeMeters>
            <DistanceMeters>NAN</DistanceMeters>
          </Trackpoint>
          <Trackpoint>
            <Time>2019-10-06T08:48:53.000Z</Time>
            <Position>
              <LatitudeDegrees>41.4552168734371662139892578125</LatitudeDegrees>
              <LongitudeDegrees>-5.7311324961483478546142578125</LongitudeDegrees>
            </Position>
            <AltitudeMeters>656.79998779296875</AltitudeMeters>
            <DistanceMeters>NAN</DistanceMeters>
          </Trackpoint>
          <Trackpoint>
            <Time>2019-10-06T08:48:57.000Z</Time>
            <Position>
              <LatitudeDegrees>41.45505485124886035919189453125</LatitudeDegrees>
              <LongitudeDegrees>-5.7311117090284824371337890625</LongitudeDegrees>
            </Position>
            <AltitudeMeters>657.4000244140625</AltitudeMeters>
            <DistanceMeters>NAN</DistanceMeters>
          </Trackpoint>
          <Trackpoint>
            <Time>2019-10-06T08:48:58.000Z</Time>
            <Position>
              <LatitudeDegrees>41.455014534294605255126953125</LatitudeDegrees>
              <LongitudeDegrees>-5.7310979627072811126708984375</LongitudeDegrees>
            </Position>
            <AltitudeMeters>657.5999755859375</AltitudeMeters>
            <DistanceMeters>NAN</DistanceMeters>
          </Trackpoint>
          <Trackpoint>
            <Time>2019-10-06T08:49:02.000Z</Time>
            <Position>
              <LatitudeDegrees>41.4548554457724094390869140625</LatitudeDegrees>
              <LongitudeDegrees>-5.73106166906654834747314453125</LongitudeDegrees>
            </Position>
            <AltitudeMeters>657.5999755859375</AltitudeMeters>
            <DistanceMeters>NAN</DistanceMeters>
          </Trackpoint>
          <Trackpoint>
            <Time>2019-10-06T08:49:10.000Z</Time>
            <Position>
              <LatitudeDegrees>41.45454439334571361541748046875</LatitudeDegrees>
              <LongitudeDegrees>-5.73096536099910736083984375</LongitudeDegrees>
            </Position>
            <AltitudeMeters>658.4000244140625</AltitudeMeters>
            <DistanceMeters>NAN</DistanceMeters>
          </Trackpoint>
          <Trackpoint>
            <Time>2019-10-06T08:49:11.000Z</Time>
            <Position>
              <LatitudeDegrees>41.45450524985790252685546875</LatitudeDegrees>
              <LongitudeDegrees>-5.73095320723950862884521484375</LongitudeDegrees>
            </Position>
            <AltitudeMeters>658.4000244140625</AltitudeMeters>
            <DistanceMeters>NAN</DistanceMeters>
          </Trackpoint>
          <Trackpoint>
            <Time>2019-10-06T08:49:12.000Z</Time>
            <Position>
              <LatitudeDegrees>41.45446677692234516143798828125</LatitudeDegrees>
              <LongitudeDegrees>-5.730956979095935821533203125</LongitudeDegrees>
            </Position>
            <AltitudeMeters>658.4000244140625</AltitudeMeters>
            <DistanceMeters>NAN</DistanceMeters>
          </Trackpoint>
          <Trackpoint>
            <Time>2019-10-06T08:49:20.000Z</Time>
            <Position>
              <LatitudeDegrees>41.4541433192789554595947265625</LatitudeDegrees>
              <LongitudeDegrees>-5.73091842234134674072265625</LongitudeDegrees>
            </Position>
            <AltitudeMeters>659</AltitudeMeters>
            <DistanceMeters>NAN</DistanceMeters>
          </Trackpoint>
          <Trackpoint>
            <Time>2019-10-06T08:49:23.000Z</Time>
            <Position>
              <LatitudeDegrees>41.45402379333972930908203125</LatitudeDegrees>
              <LongitudeDegrees>-5.730890929698944091796875</LongitudeDegrees>
            </Position>
            <AltitudeMeters>659.5999755859375</AltitudeMeters>
            <DistanceMeters>NAN</DistanceMeters>
          </Trackpoint>
          <Trackpoint>
            <Time>2019-10-06T08:49:27.000Z</Time>
            <Position>
              <LatitudeDegrees>41.4538918621838092803955078125</LatitudeDegrees>
              <LongitudeDegrees>-5.73084323666989803314208984375</LongitudeDegrees>
            </Position>
            <AltitudeMeters>659.79998779296875</AltitudeMeters>
            <DistanceMeters>NAN</DistanceMeters>
          </Trackpoint>
          <Trackpoint>
            <Time>2019-10-06T08:49:32.000Z</Time>
            <Position>
              <LatitudeDegrees>41.45377107895910739898681640625</LatitudeDegrees>
              <LongitudeDegrees>-5.73081574402749538421630859375</LongitudeDegrees>
            </Position>
            <AltitudeMeters>660.5999755859375</AltitudeMeters>
            <DistanceMeters>NAN</DistanceMeters>
          </Trackpoint>
          <Trackpoint>
            <Time>2019-10-06T08:49:37.000Z</Time>
            <Position>
              <LatitudeDegrees>41.453632526099681854248046875</LatitudeDegrees>
              <LongitudeDegrees>-5.73073678649961948394775390625</LongitudeDegrees>
            </Position>
            <AltitudeMeters>660.79998779296875</AltitudeMeters>
            <DistanceMeters>NAN</DistanceMeters>
          </Trackpoint>
          <Trackpoint>
            <Time>2019-10-06T08:49:43.000Z</Time>
            <Position>
              <LatitudeDegrees>41.45341761410236358642578125</LatitudeDegrees>
              <LongitudeDegrees>-5.730712227523326873779296875</LongitudeDegrees>
            </Position>
            <AltitudeMeters>661.5999755859375</AltitudeMeters>
            <DistanceMeters>NAN</DistanceMeters>
          </Trackpoint>
          <Trackpoint>
            <Time>2019-10-06T08:49:44.000Z</Time>
            <Position>
              <LatitudeDegrees>41.4533798955380916595458984375</LatitudeDegrees>
              <LongitudeDegrees>-5.73071616701781749725341796875</LongitudeDegrees>
            </Position>
            <AltitudeMeters>661.5999755859375</AltitudeMeters>
            <DistanceMeters>NAN</DistanceMeters>
          </Trackpoint>
          <Trackpoint>
            <Time>2019-10-06T08:49:51.000Z</Time>
            <Position>
              <LatitudeDegrees>41.45308728329837322235107421875</LatitudeDegrees>
              <LongitudeDegrees>-5.73071197606623172760009765625</LongitudeDegrees>
            </Position>
            <AltitudeMeters>661.79998779296875</AltitudeMeters>
            <DistanceMeters>NAN</DistanceMeters>
          </Trackpoint>
          <Trackpoint>
            <Time>2019-10-06T08:49:55.000Z</Time>
            <Position>
              <LatitudeDegrees>41.45292249508202075958251953125</LatitudeDegrees>
              <LongitudeDegrees>-5.73069856502115726470947265625</LongitudeDegrees>
            </Position>
            <AltitudeMeters>662.79998779296875</AltitudeMeters>
            <DistanceMeters>NAN</DistanceMeters>
          </Trackpoint>
          <Trackpoint>
            <Time>2019-10-06T08:50:01.000Z</Time>
            <Position>
              <LatitudeDegrees>41.4526751451194286346435546875</LatitudeDegrees>
              <LongitudeDegrees>-5.7306976430118083953857421875</LongitudeDegrees>
            </Position>
            <AltitudeMeters>663.20001220703125</AltitudeMeters>
            <DistanceMeters>NAN</DistanceMeters>
          </Trackpoint>
          <Trackpoint>
            <Time>2019-10-06T08:50:08.000Z</Time>
            <Position>
              <LatitudeDegrees>41.45238286815583705902099609375</LatitudeDegrees>
              <LongitudeDegrees>-5.730719603598117828369140625</LongitudeDegrees>
            </Position>
            <AltitudeMeters>663.79998779296875</AltitudeMeters>
            <DistanceMeters>NAN</DistanceMeters>
          </Trackpoint>
          <Trackpoint>
            <Time>2019-10-06T08:50:11.000Z</Time>
            <Position>
              <LatitudeDegrees>41.452261917293071746826171875</LatitudeDegrees>
              <LongitudeDegrees>-5.73073829524219036102294921875</LongitudeDegrees>
            </Position>
            <AltitudeMeters>664</AltitudeMeters>
            <DistanceMeters>NAN</DistanceMeters>
          </Trackpoint>
          <Trackpoint>
            <Time>2019-10-06T08:50:15.000Z</Time>
            <Position>
              <LatitudeDegrees>41.4520988054573535919189453125</LatitudeDegrees>
              <LongitudeDegrees>-5.73077852837741374969482421875</LongitudeDegrees>
            </Position>
            <AltitudeMeters>662.4000244140625</AltitudeMeters>
            <DistanceMeters>NAN</DistanceMeters>
          </Trackpoint>
          <Trackpoint>
            <Time>2019-10-06T08:50:16.000Z</Time>
            <Position>
              <LatitudeDegrees>41.45206016488373279571533203125</LatitudeDegrees>
              <LongitudeDegrees>-5.73079369962215423583984375</LongitudeDegrees>
            </Position>
            <AltitudeMeters>663.5999755859375</AltitudeMeters>
            <DistanceMeters>NAN</DistanceMeters>
          </Trackpoint>
          <Trackpoint>
            <Time>2019-10-06T08:50:17.000Z</Time>
            <Position>
              <LatitudeDegrees>41.4520213566720485687255859375</LatitudeDegrees>
              <LongitudeDegrees>-5.73079797439277172088623046875</LongitudeDegrees>
            </Position>
            <AltitudeMeters>664</AltitudeMeters>
            <DistanceMeters>NAN</DistanceMeters>
          </Trackpoint>
          <Trackpoint>
            <Time>2019-10-06T08:50:18.000Z</Time>
            <Position>
              <LatitudeDegrees>41.45198539830744266510009765625</LatitudeDegrees>
              <LongitudeDegrees>-5.73080300353467464447021484375</LongitudeDegrees>
            </Position>
            <AltitudeMeters>665.4000244140625</AltitudeMeters>
            <DistanceMeters>NAN</DistanceMeters>
          </Trackpoint>
          <Trackpoint>
            <Time>2019-10-06T08:50:19.000Z</Time>
            <Position>
              <LatitudeDegrees>41.45195673219859600067138671875</LatitudeDegrees>
              <LongitudeDegrees>-5.7307970523834228515625</LongitudeDegrees>
            </Position>
            <AltitudeMeters>664.5999755859375</AltitudeMeters>
            <DistanceMeters>NAN</DistanceMeters>
          </Trackpoint>
          <Trackpoint>
            <Time>2019-10-06T08:50:24.000Z</Time>
            <Position>
              <LatitudeDegrees>41.45178104750812053680419921875</LatitudeDegrees>
              <LongitudeDegrees>-5.73086972348392009735107421875</LongitudeDegrees>
            </Position>
            <AltitudeMeters>665.4000244140625</AltitudeMeters>
            <DistanceMeters>NAN</DistanceMeters>
          </Trackpoint>
          <Trackpoint>
            <Time>2019-10-06T08:50:31.000Z</Time>
            <Position>
              <LatitudeDegrees>41.451524309813976287841796875</LatitudeDegrees>
              <LongitudeDegrees>-5.73097416199743747711181640625</LongitudeDegrees>
            </Position>
            <AltitudeMeters>666.20001220703125</AltitudeMeters>
            <DistanceMeters>NAN</DistanceMeters>
          </Trackpoint>
          <Trackpoint>
            <Time>2019-10-06T08:50:32.000Z</Time>
            <Position>
              <LatitudeDegrees>41.4514879323542118072509765625</LatitudeDegrees>
              <LongitudeDegrees>-5.730995871126651763916015625</LongitudeDegrees>
            </Position>
            <AltitudeMeters>666.5999755859375</AltitudeMeters>
            <DistanceMeters>NAN</DistanceMeters>
          </Trackpoint>
          <Trackpoint>
            <Time>2019-10-06T08:50:38.000Z</Time>
            <Position>
              <LatitudeDegrees>41.451272182166576385498046875</LatitudeDegrees>
              <LongitudeDegrees>-5.731123946607112884521484375</LongitudeDegrees>
            </Position>
            <AltitudeMeters>667</AltitudeMeters>
            <DistanceMeters>NAN</DistanceMeters>
          </Trackpoint>
          <Trackpoint>
            <Time>2019-10-06T08:50:44.000Z</Time>
            <Position>
              <LatitudeDegrees>41.4510554261505603790283203125</LatitudeDegrees>
              <LongitudeDegrees>-5.73126987554132938385009765625</LongitudeDegrees>
            </Position>
            <AltitudeMeters>667.5999755859375</AltitudeMeters>
            <DistanceMeters>NAN</DistanceMeters>
          </Trackpoint>
          <Trackpoint>
            <Time>2019-10-06T08:50:46.000Z</Time>
            <Position>
              <LatitudeDegrees>41.45098510198295116424560546875</LatitudeDegrees>
              <LongitudeDegrees>-5.73132519610226154327392578125</LongitudeDegrees>
            </Position>
            <AltitudeMeters>668.20001220703125</AltitudeMeters>
            <DistanceMeters>NAN</DistanceMeters>
          </Trackpoint>
          <Trackpoint>
            <Time>2019-10-06T08:50:50.000Z</Time>
            <Position>
              <LatitudeDegrees>41.45084403455257415771484375</LatitudeDegrees>
              <LongitudeDegrees>-5.73143080808222293853759765625</LongitudeDegrees>
            </Position>
            <AltitudeMeters>668.5999755859375</AltitudeMeters>
            <DistanceMeters>NAN</DistanceMeters>
          </Trackpoint>
          <Trackpoint>
            <Time>2019-10-06T08:50:55.000Z</Time>
            <Position>
              <LatitudeDegrees>41.4506829343736171722412109375</LatitudeDegrees>
              <LongitudeDegrees>-5.73157615028321743011474609375</LongitudeDegrees>
            </Position>
            <AltitudeMeters>669.4000244140625</AltitudeMeters>
            <DistanceMeters>NAN</DistanceMeters>
          </Trackpoint>
          <Trackpoint>
            <Time>2019-10-06T08:50:57.000Z</Time>
            <Position>
              <LatitudeDegrees>41.45062099210917949676513671875</LatitudeDegrees>
              <LongitudeDegrees>-5.731632895767688751220703125</LongitudeDegrees>
            </Position>
            <AltitudeMeters>670</AltitudeMeters>
            <DistanceMeters>NAN</DistanceMeters>
          </Trackpoint>
          <Trackpoint>
            <Time>2019-10-06T08:51:05.000Z</Time>
            <Position>
              <LatitudeDegrees>41.4503909088671207427978515625</LatitudeDegrees>
              <LongitudeDegrees>-5.73188946582376956939697265625</LongitudeDegrees>
            </Position>
            <AltitudeMeters>670.20001220703125</AltitudeMeters>
            <DistanceMeters>NAN</DistanceMeters>
          </Trackpoint>
          <Trackpoint>
            <Time>2019-10-06T08:51:12.000Z</Time>
            <Position>
              <LatitudeDegrees>41.45020575262606143951416015625</LatitudeDegrees>
              <LongitudeDegrees>-5.73213036172091960906982421875</LongitudeDegrees>
            </Position>
            <AltitudeMeters>671.20001220703125</AltitudeMeters>
            <DistanceMeters>NAN</DistanceMeters>
          </Trackpoint>
          <Trackpoint>
            <Time>2019-10-06T08:51:18.000Z</Time>
            <Position>
              <LatitudeDegrees>41.45005789585411548614501953125</LatitudeDegrees>
              <LongitudeDegrees>-5.73234225623309612274169921875</LongitudeDegrees>
            </Position>
            <AltitudeMeters>671.79998779296875</AltitudeMeters>
            <DistanceMeters>NAN</DistanceMeters>
          </Trackpoint>
          <Trackpoint>
            <Time>2019-10-06T08:51:26.000Z</Time>
            <Position>
              <LatitudeDegrees>41.44986360333859920501708984375</LatitudeDegrees>
              <LongitudeDegrees>-5.73262321762740612030029296875</LongitudeDegrees>
            </Position>
            <AltitudeMeters>672.20001220703125</AltitudeMeters>
            <DistanceMeters>NAN</DistanceMeters>
          </Trackpoint>
          <Trackpoint>
            <Time>2019-10-06T08:51:31.000Z</Time>
            <Position>
              <LatitudeDegrees>41.44973468966782093048095703125</LatitudeDegrees>
              <LongitudeDegrees>-5.7327911071479320526123046875</LongitudeDegrees>
            </Position>
            <AltitudeMeters>673.20001220703125</AltitudeMeters>
            <DistanceMeters>NAN</DistanceMeters>
          </Trackpoint>
          <Trackpoint>
            <Time>2019-10-06T08:51:32.000Z</Time>
            <Position>
              <LatitudeDegrees>41.4497086219489574432373046875</LatitudeDegrees>
              <LongitudeDegrees>-5.73282304219901561737060546875</LongitudeDegrees>
            </Position>
            <AltitudeMeters>673.4000244140625</AltitudeMeters>
            <DistanceMeters>NAN</DistanceMeters>
          </Trackpoint>
          <Trackpoint>
            <Time>2019-10-06T08:51:39.000Z</Time>
            <Position>
              <LatitudeDegrees>41.449532099068164825439453125</LatitudeDegrees>
              <LongitudeDegrees>-5.733067877590656280517578125</LongitudeDegrees>
            </Position>
            <AltitudeMeters>674.4000244140625</AltitudeMeters>
            <DistanceMeters>NAN</DistanceMeters>
          </Trackpoint>
          <Trackpoint>
            <Time>2019-10-06T08:51:43.000Z</Time>
            <Position>
              <LatitudeDegrees>41.44942673854529857635498046875</LatitudeDegrees>
              <LongitudeDegrees>-5.73319830000400543212890625</LongitudeDegrees>
            </Position>
            <AltitudeMeters>674.5999755859375</AltitudeMeters>
            <DistanceMeters>NAN</DistanceMeters>
          </Trackpoint>
          <Trackpoint>
            <Time>2019-10-06T08:51:51.000Z</Time>
            <Position>
              <LatitudeDegrees>41.4492125809192657470703125</LatitudeDegrees>
              <LongitudeDegrees>-5.7334645092487335205078125</LongitudeDegrees>
            </Position>
            <AltitudeMeters>675.5999755859375</AltitudeMeters>
            <DistanceMeters>NAN</DistanceMeters>
          </Trackpoint>
          <Trackpoint>
            <Time>2019-10-06T08:51:52.000Z</Time>
            <Position>
              <LatitudeDegrees>41.4491830766201019287109375</LatitudeDegrees>
              <LongitudeDegrees>-5.73349208571016788482666015625</LongitudeDegrees>
            </Position>
            <AltitudeMeters>675.79998779296875</AltitudeMeters>
            <DistanceMeters>NAN</DistanceMeters>
          </Trackpoint>
          <Trackpoint>
            <Time>2019-10-06T08:51:59.000Z</Time>
            <Position>
              <LatitudeDegrees>41.44897989928722381591796875</LatitudeDegrees>
              <LongitudeDegrees>-5.733716972172260284423828125</LongitudeDegrees>
            </Position>
            <AltitudeMeters>676.5999755859375</AltitudeMeters>
            <DistanceMeters>NAN</DistanceMeters>
          </Trackpoint>
          <Trackpoint>
            <Time>2019-10-06T08:52:00.000Z</Time>
            <Position>
              <LatitudeDegrees>41.4489498920738697052001953125</LatitudeDegrees>
              <LongitudeDegrees>-5.7337486557662487030029296875</LongitudeDegrees>
            </Position>
            <AltitudeMeters>676.20001220703125</AltitudeMeters>
            <DistanceMeters>NAN</DistanceMeters>
          </Trackpoint>
          <Trackpoint>
            <Time>2019-10-06T08:52:03.000Z</Time>
            <Position>
              <LatitudeDegrees>41.4488573558628559112548828125</LatitudeDegrees>
              <LongitudeDegrees>-5.73384630493819713592529296875</LongitudeDegrees>
            </Position>
            <AltitudeMeters>677.79998779296875</AltitudeMeters>
            <DistanceMeters>NAN</DistanceMeters>
          </Trackpoint>
          <Trackpoint>
            <Time>2019-10-06T08:52:08.000Z</Time>
            <Position>
              <LatitudeDegrees>41.44869617186486721038818359375</LatitudeDegrees>
              <LongitudeDegrees>-5.73398628272116184234619140625</LongitudeDegrees>
            </Position>
            <AltitudeMeters>678.20001220703125</AltitudeMeters>
            <DistanceMeters>NAN</DistanceMeters>
          </Trackpoint>
          <Trackpoint>
            <Time>2019-10-06T08:52:12.000Z</Time>
            <Position>
              <LatitudeDegrees>41.4485581219196319580078125</LatitudeDegrees>
              <LongitudeDegrees>-5.7340913079679012298583984375</LongitudeDegrees>
            </Position>
            <AltitudeMeters>678.79998779296875</AltitudeMeters>
            <DistanceMeters>NAN</DistanceMeters>
          </Trackpoint>
          <Trackpoint>
            <Time>2019-10-06T08:52:16.000Z</Time>
            <Position>
              <LatitudeDegrees>41.44842610694468021392822265625</LatitudeDegrees>
              <LongitudeDegrees>-5.734196417033672332763671875</LongitudeDegrees>
            </Position>
            <AltitudeMeters>679.4000244140625</AltitudeMeters>
            <DistanceMeters>NAN</DistanceMeters>
          </Trackpoint>
          <Trackpoint>
            <Time>2019-10-06T08:52:21.000Z</Time>
            <Position>
              <LatitudeDegrees>41.44824908114969730377197265625</LatitudeDegrees>
              <LongitudeDegrees>-5.73430965654551982879638671875</LongitudeDegrees>
            </Position>
            <AltitudeMeters>679.79998779296875</AltitudeMeters>
            <DistanceMeters>NAN</DistanceMeters>
          </Trackpoint>
          <Trackpoint>
            <Time>2019-10-06T08:52:25.000Z</Time>
            <Position>
              <LatitudeDegrees>41.44810273312032222747802734375</LatitudeDegrees>
              <LongitudeDegrees>-5.7343927212059497833251953125</LongitudeDegrees>
            </Position>
            <AltitudeMeters>680</AltitudeMeters>
            <DistanceMeters>NAN</DistanceMeters>
          </Trackpoint>
          <Trackpoint>
            <Time>2019-10-06T08:52:38.000Z</Time>
            <Position>
              <LatitudeDegrees>41.44761339761316776275634765625</LatitudeDegrees>
              <LongitudeDegrees>-5.73466680943965911865234375</LongitudeDegrees>
            </Position>
            <AltitudeMeters>681</AltitudeMeters>
            <DistanceMeters>NAN</DistanceMeters>
          </Trackpoint>
          <Trackpoint>
            <Time>2019-10-06T08:52:47.000Z</Time>
            <Position>
              <LatitudeDegrees>41.44726336933672428131103515625</LatitudeDegrees>
              <LongitudeDegrees>-5.73485716246068477630615234375</LongitudeDegrees>
            </Position>
            <AltitudeMeters>681.20001220703125</AltitudeMeters>
            <DistanceMeters>NAN</DistanceMeters>
          </Trackpoint>
          <Trackpoint>
            <Time>2019-10-06T08:52:53.000Z</Time>
            <Position>
              <LatitudeDegrees>41.4470277540385723114013671875</LatitudeDegrees>
              <LongitudeDegrees>-5.73498289100825786590576171875</LongitudeDegrees>
            </Position>
            <AltitudeMeters>681.79998779296875</AltitudeMeters>
            <DistanceMeters>NAN</DistanceMeters>
          </Trackpoint>
          <Trackpoint>
            <Time>2019-10-06T08:52:59.000Z</Time>
            <Position>
              <LatitudeDegrees>41.44678912125527858734130859375</LatitudeDegrees>
              <LongitudeDegrees>-5.7350984774529933929443359375</LongitudeDegrees>
            </Position>
            <AltitudeMeters>682</AltitudeMeters>
            <DistanceMeters>NAN</DistanceMeters>
          </Trackpoint>
          <Trackpoint>
            <Time>2019-10-06T08:53:04.000Z</Time>
            <Position>
              <LatitudeDegrees>41.4465885423123836517333984375</LatitudeDegrees>
              <LongitudeDegrees>-5.7351822964847087860107421875</LongitudeDegrees>
            </Position>
            <AltitudeMeters>682.20001220703125</AltitudeMeters>
            <DistanceMeters>NAN</DistanceMeters>
          </Trackpoint>
          <Trackpoint>
            <Time>2019-10-06T08:53:09.000Z</Time>
            <Position>
              <LatitudeDegrees>41.44637924619019031524658203125</LatitudeDegrees>
              <LongitudeDegrees>-5.73522848077118396759033203125</LongitudeDegrees>
            </Position>
            <AltitudeMeters>682.5999755859375</AltitudeMeters>
            <DistanceMeters>NAN</DistanceMeters>
          </Trackpoint>
          <Trackpoint>
            <Time>2019-10-06T08:53:17.000Z</Time>
            <Position>
              <LatitudeDegrees>41.44602268002927303314208984375</LatitudeDegrees>
              <LongitudeDegrees>-5.735209286212921142578125</LongitudeDegrees>
            </Position>
            <AltitudeMeters>682.4000244140625</AltitudeMeters>
            <DistanceMeters>NAN</DistanceMeters>
          </Trackpoint>
          <Trackpoint>
            <Time>2019-10-06T08:53:23.000Z</Time>
            <Position>
              <LatitudeDegrees>41.44576971419155597686767578125</LatitudeDegrees>
              <LongitudeDegrees>-5.735117755830287933349609375</LongitudeDegrees>
            </Position>
            <AltitudeMeters>683</AltitudeMeters>
            <DistanceMeters>NAN</DistanceMeters>
          </Trackpoint>
          <Trackpoint>
            <Time>2019-10-06T08:53:25.000Z</Time>
            <Position>
              <LatitudeDegrees>41.44569125957787036895751953125</LatitudeDegrees>
              <LongitudeDegrees>-5.7350713200867176055908203125</LongitudeDegrees>
            </Position>
            <AltitudeMeters>683.20001220703125</AltitudeMeters>
            <DistanceMeters>NAN</DistanceMeters>
          </Trackpoint>
          <Trackpoint>
            <Time>2019-10-06T08:53:29.000Z</Time>
            <Position>
              <LatitudeDegrees>41.4455433189868927001953125</LatitudeDegrees>
              <LongitudeDegrees>-5.7349502854049205780029296875</LongitudeDegrees>
            </Position>
            <AltitudeMeters>683.20001220703125</AltitudeMeters>
            <DistanceMeters>NAN</DistanceMeters>
          </Trackpoint>
          <Trackpoint>
            <Time>2019-10-06T08:53:32.000Z</Time>
            <Position>
              <LatitudeDegrees>41.44544013775885105133056640625</LatitudeDegrees>
              <LongitudeDegrees>-5.73483620770275592803955078125</LongitudeDegrees>
            </Position>
            <AltitudeMeters>683</AltitudeMeters>
            <DistanceMeters>NAN</DistanceMeters>
          </Trackpoint>
          <Trackpoint>
            <Time>2019-10-06T08:53:40.000Z</Time>
            <Position>
              <LatitudeDegrees>41.4451736770570278167724609375</LatitudeDegrees>
              <LongitudeDegrees>-5.7345000095665454864501953125</LongitudeDegrees>
            </Position>
            <AltitudeMeters>683</AltitudeMeters>
            <DistanceMeters>NAN</DistanceMeters>
          </Trackpoint>
          <Trackpoint>
            <Time>2019-10-06T08:53:44.000Z</Time>
            <Position>
              <LatitudeDegrees>41.44504149444401264190673828125</LatitudeDegrees>
              <LongitudeDegrees>-5.73432139120995998382568359375</LongitudeDegrees>
            </Position>
            <AltitudeMeters>683</AltitudeMeters>
            <DistanceMeters>NAN</DistanceMeters>
          </Trackpoint>
          <Trackpoint>
            <Time>2019-10-06T08:53:55.000Z</Time>
            <Position>
              <LatitudeDegrees>41.44463882781565189361572265625</LatitudeDegrees>
              <LongitudeDegrees>-5.7337741367518901824951171875</LongitudeDegrees>
            </Position>
            <AltitudeMeters>682.79998779296875</AltitudeMeters>
            <DistanceMeters>NAN</DistanceMeters>
          </Trackpoint>
          <Trackpoint>
            <Time>2019-10-06T08:54:00.000Z</Time>
            <Position>
              <LatitudeDegrees>41.44444830715656280517578125</LatitudeDegrees>
              <LongitudeDegrees>-5.73351371102035045623779296875</LongitudeDegrees>
            </Position>
            <AltitudeMeters>682.20001220703125</AltitudeMeters>
            <DistanceMeters>NAN</DistanceMeters>
          </Trackpoint>
          <Trackpoint>
            <Time>2019-10-06T08:54:05.000Z</Time>
            <Position>
              <LatitudeDegrees>41.44425594247877597808837890625</LatitudeDegrees>
              <LongitudeDegrees>-5.73325353674590587615966796875</LongitudeDegrees>
            </Position>
            <AltitudeMeters>681.79998779296875</AltitudeMeters>
            <DistanceMeters>NAN</DistanceMeters>
          </Trackpoint>
          <Trackpoint>
            <Time>2019-10-06T08:54:09.000Z</Time>
            <Position>
              <LatitudeDegrees>41.4441034756600856781005859375</LatitudeDegrees>
              <LongitudeDegrees>-5.7330418936908245086669921875</LongitudeDegrees>
            </Position>
            <AltitudeMeters>681.4000244140625</AltitudeMeters>
            <DistanceMeters>NAN</DistanceMeters>
          </Trackpoint>
          <Trackpoint>
            <Time>2019-10-06T08:54:13.000Z</Time>
            <Position>
              <LatitudeDegrees>41.44395067356526851654052734375</LatitudeDegrees>
              <LongitudeDegrees>-5.732842572033405303955078125</LongitudeDegrees>
            </Position>
            <AltitudeMeters>681.4000244140625</AltitudeMeters>
            <DistanceMeters>NAN</DistanceMeters>
          </Trackpoint>
          <Trackpoint>
            <Time>2019-10-06T08:54:14.000Z</Time>
            <Position>
              <LatitudeDegrees>41.4439123682677745819091796875</LatitudeDegrees>
              <LongitudeDegrees>-5.7327924482524394989013671875</LongitudeDegrees>
            </Position>
            <AltitudeMeters>681.4000244140625</AltitudeMeters>
            <DistanceMeters>NAN</DistanceMeters>
          </Trackpoint>
          <Trackpoint>
            <Time>2019-10-06T08:54:21.000Z</Time>
            <Position>
              <LatitudeDegrees>41.44363962113857269287109375</LatitudeDegrees>
              <LongitudeDegrees>-5.7324357144534587860107421875</LongitudeDegrees>
            </Position>
            <AltitudeMeters>681.5999755859375</AltitudeMeters>
            <DistanceMeters>NAN</DistanceMeters>
          </Trackpoint>
          <Trackpoint>
            <Time>2019-10-06T08:54:24.000Z</Time>
            <Position>
              <LatitudeDegrees>41.4435184188187122344970703125</LatitudeDegrees>
              <LongitudeDegrees>-5.73227620683610439300537109375</LongitudeDegrees>
            </Position>
            <AltitudeMeters>681.20001220703125</AltitudeMeters>
            <DistanceMeters>NAN</DistanceMeters>
          </Trackpoint>
          <Trackpoint>
            <Time>2019-10-06T08:54:29.000Z</Time>
            <Position>
              <LatitudeDegrees>41.4433197677135467529296875</LatitudeDegrees>
              <LongitudeDegrees>-5.732028521597385406494140625</LongitudeDegrees>
            </Position>
            <AltitudeMeters>681</AltitudeMeters>
            <DistanceMeters>NAN</DistanceMeters>
          </Trackpoint>
          <Trackpoint>
            <Time>2019-10-06T08:54:33.000Z</Time>
            <Position>
              <LatitudeDegrees>41.44314718432724475860595703125</LatitudeDegrees>
              <LongitudeDegrees>-5.731834061443805694580078125</LongitudeDegrees>
            </Position>
            <AltitudeMeters>680.79998779296875</AltitudeMeters>
            <DistanceMeters>NAN</DistanceMeters>
          </Trackpoint>
          <Trackpoint>
            <Time>2019-10-06T08:54:36.000Z</Time>
            <Position>
              <LatitudeDegrees>41.443014331161975860595703125</LatitudeDegrees>
              <LongitudeDegrees>-5.73170221410691738128662109375</LongitudeDegrees>
            </Position>
            <AltitudeMeters>681</AltitudeMeters>
            <DistanceMeters>NAN</DistanceMeters>
          </Trackpoint>
          <Trackpoint>
            <Time>2019-10-06T08:54:42.000Z</Time>
            <Position>
              <LatitudeDegrees>41.442748792469501495361328125</LatitudeDegrees>
              <LongitudeDegrees>-5.73143550194799900054931640625</LongitudeDegrees>
            </Position>
            <AltitudeMeters>680.79998779296875</AltitudeMeters>
            <DistanceMeters>NAN</DistanceMeters>
          </Trackpoint>
          <Trackpoint>
            <Time>2019-10-06T08:54:51.000Z</Time>
            <Position>
              <LatitudeDegrees>41.44235811196267604827880859375</LatitudeDegrees>
              <LongitudeDegrees>-5.73110206983983516693115234375</LongitudeDegrees>
            </Position>
            <AltitudeMeters>681.5999755859375</AltitudeMeters>
            <DistanceMeters>NAN</DistanceMeters>
          </Trackpoint>
          <Trackpoint>
            <Time>2019-10-06T08:54:53.000Z</Time>
            <Position>
              <LatitudeDegrees>41.4422742091119289398193359375</LatitudeDegrees>
              <LongitudeDegrees>-5.731042809784412384033203125</LongitudeDegrees>
            </Position>
            <AltitudeMeters>682</AltitudeMeters>
            <DistanceMeters>NAN</DistanceMeters>
          </Trackpoint>
          <Trackpoint>
            <Time>2019-10-06T08:54:57.000Z</Time>
            <Position>
              <LatitudeDegrees>41.44211201928555965423583984375</LatitudeDegrees>
              <LongitudeDegrees>-5.730936191976070404052734375</LongitudeDegrees>
            </Position>
            <AltitudeMeters>682.4000244140625</AltitudeMeters>
            <DistanceMeters>NAN</DistanceMeters>
          </Trackpoint>
          <Trackpoint>
            <Time>2019-10-06T08:55:00.000Z</Time>
            <Position>
              <LatitudeDegrees>41.44198830239474773406982421875</LatitudeDegrees>
              <LongitudeDegrees>-5.73085815645754337310791015625</LongitudeDegrees>
            </Position>
            <AltitudeMeters>683.20001220703125</AltitudeMeters>
            <DistanceMeters>NAN</DistanceMeters>
          </Trackpoint>
          <Trackpoint>
            <Time>2019-10-06T08:55:04.000Z</Time>
            <Position>
              <LatitudeDegrees>41.441824100911617279052734375</LatitudeDegrees>
              <LongitudeDegrees>-5.73076779954135417938232421875</LongitudeDegrees>
            </Position>
            <AltitudeMeters>684.20001220703125</AltitudeMeters>
            <DistanceMeters>NAN</DistanceMeters>
          </Trackpoint>
          <Trackpoint>
            <Time>2019-10-06T08:55:08.000Z</Time>
            <Position>
              <LatitudeDegrees>41.44165269099175930023193359375</LatitudeDegrees>
              <LongitudeDegrees>-5.73070024140179157257080078125</LongitudeDegrees>
            </Position>
            <AltitudeMeters>684.4000244140625</AltitudeMeters>
            <DistanceMeters>NAN</DistanceMeters>
          </Trackpoint>
          <Trackpoint>
            <Time>2019-10-06T08:55:09.000Z</Time>
            <Position>
              <LatitudeDegrees>41.44161145202815532684326171875</LatitudeDegrees>
              <LongitudeDegrees>-5.73068247176706790924072265625</LongitudeDegrees>
            </Position>
            <AltitudeMeters>684.4000244140625</AltitudeMeters>
            <DistanceMeters>NAN</DistanceMeters>
          </Trackpoint>
          <Trackpoint>
            <Time>2019-10-06T08:55:12.000Z</Time>
            <Position>
              <LatitudeDegrees>41.441480778157711029052734375</LatitudeDegrees>
              <LongitudeDegrees>-5.73063653893768787384033203125</LongitudeDegrees>
            </Position>
            <AltitudeMeters>685.20001220703125</AltitudeMeters>
            <DistanceMeters>NAN</DistanceMeters>
          </Trackpoint>
          <Trackpoint>
            <Time>2019-10-06T08:55:17.000Z</Time>
            <Position>
              <LatitudeDegrees>41.44126452505588531494140625</LatitudeDegrees>
              <LongitudeDegrees>-5.73055573739111423492431640625</LongitudeDegrees>
            </Position>
            <AltitudeMeters>686</AltitudeMeters>
            <DistanceMeters>NAN</DistanceMeters>
          </Trackpoint>
          <Trackpoint>
            <Time>2019-10-06T08:55:18.000Z</Time>
            <Position>
              <LatitudeDegrees>41.44122236408293247222900390625</LatitudeDegrees>
              <LongitudeDegrees>-5.73054282926023006439208984375</LongitudeDegrees>
            </Position>
            <AltitudeMeters>686.4000244140625</AltitudeMeters>
            <DistanceMeters>NAN</DistanceMeters>
          </Trackpoint>
          <Trackpoint>
            <Time>2019-10-06T08:55:19.000Z</Time>
            <Position>
              <LatitudeDegrees>41.44117810763418674468994140625</LatitudeDegrees>
              <LongitudeDegrees>-5.7305276580154895782470703125</LongitudeDegrees>
            </Position>
            <AltitudeMeters>686.4000244140625</AltitudeMeters>
            <DistanceMeters>NAN</DistanceMeters>
          </Trackpoint>
          <Trackpoint>
            <Time>2019-10-06T08:55:24.000Z</Time>
            <Position>
              <LatitudeDegrees>41.440958417952060699462890625</LatitudeDegrees>
              <LongitudeDegrees>-5.7304505445063114166259765625</LongitudeDegrees>
            </Position>
            <AltitudeMeters>687</AltitudeMeters>
            <DistanceMeters>NAN</DistanceMeters>
          </Trackpoint>
          <Trackpoint>
            <Time>2019-10-06T08:55:25.000Z</Time>
            <Position>
              <LatitudeDegrees>41.4409143291413784027099609375</LatitudeDegrees>
              <LongitudeDegrees>-5.73043788783252239227294921875</LongitudeDegrees>
            </Position>
            <AltitudeMeters>687.5999755859375</AltitudeMeters>
            <DistanceMeters>NAN</DistanceMeters>
          </Trackpoint>
          <Trackpoint>
            <Time>2019-10-06T08:55:28.000Z</Time>
            <Position>
              <LatitudeDegrees>41.44078306853771209716796875</LatitudeDegrees>
              <LongitudeDegrees>-5.730390362441539764404296875</LongitudeDegrees>
            </Position>
            <AltitudeMeters>688</AltitudeMeters>
            <DistanceMeters>NAN</DistanceMeters>
          </Trackpoint>
          <Trackpoint>
            <Time>2019-10-06T08:55:33.000Z</Time>
            <Position>
              <LatitudeDegrees>41.440564133226871490478515625</LatitudeDegrees>
              <LongitudeDegrees>-5.73031953535974025726318359375</LongitudeDegrees>
            </Position>
            <AltitudeMeters>688.4000244140625</AltitudeMeters>
            <DistanceMeters>NAN</DistanceMeters>
          </Trackpoint>
          <Trackpoint>
            <Time>2019-10-06T08:55:35.000Z</Time>
            <Position>
              <LatitudeDegrees>41.4404808171093463897705078125</LatitudeDegrees>
              <LongitudeDegrees>-5.7302835769951343536376953125</LongitudeDegrees>
            </Position>
            <AltitudeMeters>688.5999755859375</AltitudeMeters>
            <DistanceMeters>NAN</DistanceMeters>
          </Trackpoint>
          <Trackpoint>
            <Time>2019-10-06T08:55:36.000Z</Time>
            <Position>
              <LatitudeDegrees>41.44042926840484142303466796875</LatitudeDegrees>
              <LongitudeDegrees>-5.73026396334171295166015625</LongitudeDegrees>
            </Position>
            <AltitudeMeters>688.79998779296875</AltitudeMeters>
            <DistanceMeters>NAN</DistanceMeters>
          </Trackpoint>
          <Trackpoint>
            <Time>2019-10-06T08:55:41.000Z</Time>
            <Position>
              <LatitudeDegrees>41.440222151577472686767578125</LatitudeDegrees>
              <LongitudeDegrees>-5.73019866831600666046142578125</LongitudeDegrees>
            </Position>
            <AltitudeMeters>689.20001220703125</AltitudeMeters>
            <DistanceMeters>NAN</DistanceMeters>
          </Trackpoint>
          <Trackpoint>
            <Time>2019-10-06T08:55:42.000Z</Time>
            <Position>
              <LatitudeDegrees>41.440180242061614990234375</LatitudeDegrees>
              <LongitudeDegrees>-5.73018223978579044342041015625</LongitudeDegrees>
            </Position>
            <AltitudeMeters>689.5999755859375</AltitudeMeters>
            <DistanceMeters>NAN</DistanceMeters>
          </Trackpoint>
          <Trackpoint>
            <Time>2019-10-06T08:55:44.000Z</Time>
            <Position>
              <LatitudeDegrees>41.4400915615260601043701171875</LatitudeDegrees>
              <LongitudeDegrees>-5.73015189729630947113037109375</LongitudeDegrees>
            </Position>
            <AltitudeMeters>689.79998779296875</AltitudeMeters>
            <DistanceMeters>NAN</DistanceMeters>
          </Trackpoint>
          <Trackpoint>
            <Time>2019-10-06T08:55:50.000Z</Time>
            <Position>
              <LatitudeDegrees>41.43983214162290096282958984375</LatitudeDegrees>
              <LongitudeDegrees>-5.7300619594752788543701171875</LongitudeDegrees>
            </Position>
            <AltitudeMeters>690.5999755859375</AltitudeMeters>
            <DistanceMeters>NAN</DistanceMeters>
          </Trackpoint>
          <Trackpoint>
            <Time>2019-10-06T08:55:53.000Z</Time>
            <Position>
              <LatitudeDegrees>41.439703144133090972900390625</LatitudeDegrees>
              <LongitudeDegrees>-5.73001828975975513458251953125</LongitudeDegrees>
            </Position>
            <AltitudeMeters>691</AltitudeMeters>
            <DistanceMeters>NAN</DistanceMeters>
          </Trackpoint>
          <Trackpoint>
            <Time>2019-10-06T08:55:59.000Z</Time>
            <Position>
              <LatitudeDegrees>41.43944196403026580810546875</LatitudeDegrees>
              <LongitudeDegrees>-5.72992390953004360198974609375</LongitudeDegrees>
            </Position>
            <AltitudeMeters>691.79998779296875</AltitudeMeters>
            <DistanceMeters>NAN</DistanceMeters>
          </Trackpoint>
          <Trackpoint>
            <Time>2019-10-06T08:56:03.000Z</Time>
            <Position>
              <LatitudeDegrees>41.43927290104329586029052734375</LatitudeDegrees>
              <LongitudeDegrees>-5.72987160645425319671630859375</LongitudeDegrees>
            </Position>
            <AltitudeMeters>692.20001220703125</AltitudeMeters>
            <DistanceMeters>NAN</DistanceMeters>
          </Trackpoint>
          <Trackpoint>
            <Time>2019-10-06T08:56:09.000Z</Time>
            <Position>
              <LatitudeDegrees>41.439018510282039642333984375</LatitudeDegrees>
              <LongitudeDegrees>-5.72978242300450801849365234375</LongitudeDegrees>
            </Position>
            <AltitudeMeters>692.79998779296875</AltitudeMeters>
            <DistanceMeters>NAN</DistanceMeters>
          </Trackpoint>
          <Trackpoint>
            <Time>2019-10-06T08:56:12.000Z</Time>
            <Position>
              <LatitudeDegrees>41.43889211118221282958984375</LatitudeDegrees>
              <LongitudeDegrees>-5.7297384180128574371337890625</LongitudeDegrees>
            </Position>
            <AltitudeMeters>692.79998779296875</AltitudeMeters>
            <DistanceMeters>NAN</DistanceMeters>
          </Trackpoint>
          <Trackpoint>
            <Time>2019-10-06T08:56:22.000Z</Time>
            <Position>
              <LatitudeDegrees>41.4384596049785614013671875</LatitudeDegrees>
              <LongitudeDegrees>-5.72959165088832378387451171875</LongitudeDegrees>
            </Position>
            <AltitudeMeters>692.5999755859375</AltitudeMeters>
            <DistanceMeters>NAN</DistanceMeters>
          </Trackpoint>
          <Trackpoint>
            <Time>2019-10-06T08:56:29.000Z</Time>
            <Position>
              <LatitudeDegrees>41.4381538331508636474609375</LatitudeDegrees>
              <LongitudeDegrees>-5.7294832728803157806396484375</LongitudeDegrees>
            </Position>
            <AltitudeMeters>693.20001220703125</AltitudeMeters>
            <DistanceMeters>NAN</DistanceMeters>
          </Trackpoint>
          <Trackpoint>
            <Time>2019-10-06T08:56:33.000Z</Time>
            <Position>
              <LatitudeDegrees>41.4379712752997875213623046875</LatitudeDegrees>
              <LongitudeDegrees>-5.729424767196178436279296875</LongitudeDegrees>
            </Position>
            <AltitudeMeters>693.20001220703125</AltitudeMeters>
            <DistanceMeters>NAN</DistanceMeters>
          </Trackpoint>
          <Trackpoint>
            <Time>2019-10-06T08:56:40.000Z</Time>
            <Position>
              <LatitudeDegrees>41.4376215822994709014892578125</LatitudeDegrees>
              <LongitudeDegrees>-5.72930834256112575531005859375</LongitudeDegrees>
            </Position>
            <AltitudeMeters>692.79998779296875</AltitudeMeters>
            <DistanceMeters>NAN</DistanceMeters>
          </Trackpoint>
          <Trackpoint>
            <Time>2019-10-06T08:56:50.000Z</Time>
            <Position>
              <LatitudeDegrees>41.437115482985973358154296875</LatitudeDegrees>
              <LongitudeDegrees>-5.72912192903459072113037109375</LongitudeDegrees>
            </Position>
            <AltitudeMeters>693.4000244140625</AltitudeMeters>
            <DistanceMeters>NAN</DistanceMeters>
          </Trackpoint>
          <Trackpoint>
            <Time>2019-10-06T08:56:51.000Z</Time>
            <Position>
              <LatitudeDegrees>41.43706561066210269927978515625</LatitudeDegrees>
              <LongitudeDegrees>-5.72910181246697902679443359375</LongitudeDegrees>
            </Position>
            <AltitudeMeters>693.4000244140625</AltitudeMeters>
            <DistanceMeters>NAN</DistanceMeters>
          </Trackpoint>
          <Trackpoint>
            <Time>2019-10-06T08:57:00.000Z</Time>
            <Position>
              <LatitudeDegrees>41.4365996606647968292236328125</LatitudeDegrees>
              <LongitudeDegrees>-5.728942640125751495361328125</LongitudeDegrees>
            </Position>
            <AltitudeMeters>693.5999755859375</AltitudeMeters>
            <DistanceMeters>NAN</DistanceMeters>
          </Trackpoint>
          <Trackpoint>
            <Time>2019-10-06T08:57:07.000Z</Time>
            <Position>
              <LatitudeDegrees>41.43623580224812030792236328125</LatitudeDegrees>
              <LongitudeDegrees>-5.72882051579654216766357421875</LongitudeDegrees>
            </Position>
            <AltitudeMeters>693.79998779296875</AltitudeMeters>
            <DistanceMeters>NAN</DistanceMeters>
          </Trackpoint>
          <Trackpoint>
            <Time>2019-10-06T08:57:15.000Z</Time>
            <Position>
              <LatitudeDegrees>41.4358211494982242584228515625</LatitudeDegrees>
              <LongitudeDegrees>-5.72867886163294315338134765625</LongitudeDegrees>
            </Position>
            <AltitudeMeters>694.4000244140625</AltitudeMeters>
            <DistanceMeters>NAN</DistanceMeters>
          </Trackpoint>
          <Trackpoint>
            <Time>2019-10-06T08:57:25.000Z</Time>
            <Position>
              <LatitudeDegrees>41.43529786728322505950927734375</LatitudeDegrees>
              <LongitudeDegrees>-5.7285010814666748046875</LongitudeDegrees>
            </Position>
            <AltitudeMeters>694.4000244140625</AltitudeMeters>
            <DistanceMeters>NAN</DistanceMeters>
          </Trackpoint>
          <Trackpoint>
            <Time>2019-10-06T08:57:28.000Z</Time>
            <Position>
              <LatitudeDegrees>41.43514296971261501312255859375</LatitudeDegrees>
              <LongitudeDegrees>-5.72844676673412322998046875</LongitudeDegrees>
            </Position>
            <AltitudeMeters>695</AltitudeMeters>
            <DistanceMeters>NAN</DistanceMeters>
          </Trackpoint>
          <Trackpoint>
            <Time>2019-10-06T08:57:36.000Z</Time>
            <Position>
              <LatitudeDegrees>41.4347214438021183013916015625</LatitudeDegrees>
              <LongitudeDegrees>-5.728300251066684722900390625</LongitudeDegrees>
            </Position>
            <AltitudeMeters>695.20001220703125</AltitudeMeters>
            <DistanceMeters>NAN</DistanceMeters>
          </Trackpoint>
          <Trackpoint>
            <Time>2019-10-06T08:57:47.000Z</Time>
            <Position>
              <LatitudeDegrees>41.4341689087450504302978515625</LatitudeDegrees>
              <LongitudeDegrees>-5.7281106524169445037841796875</LongitudeDegrees>
            </Position>
            <AltitudeMeters>695.4000244140625</AltitudeMeters>
            <DistanceMeters>NAN</DistanceMeters>
          </Trackpoint>
          <Trackpoint>
            <Time>2019-10-06T08:57:56.000Z</Time>
            <Position>
              <LatitudeDegrees>41.43371536396443843841552734375</LatitudeDegrees>
              <LongitudeDegrees>-5.72795055806636810302734375</LongitudeDegrees>
            </Position>
            <AltitudeMeters>695.79998779296875</AltitudeMeters>
            <DistanceMeters>NAN</DistanceMeters>
          </Trackpoint>
          <Trackpoint>
            <Time>2019-10-06T08:57:58.000Z</Time>
            <Position>
              <LatitudeDegrees>41.43361427821218967437744140625</LatitudeDegrees>
              <LongitudeDegrees>-5.72791325859725475311279296875</LongitudeDegrees>
            </Position>
            <AltitudeMeters>696</AltitudeMeters>
            <DistanceMeters>NAN</DistanceMeters>
          </Trackpoint>
          <Trackpoint>
            <Time>2019-10-06T08:58:05.000Z</Time>
            <Position>
              <LatitudeDegrees>41.4332636632025241851806640625</LatitudeDegrees>
              <LongitudeDegrees>-5.72779037989675998687744140625</LongitudeDegrees>
            </Position>
            <AltitudeMeters>696.4000244140625</AltitudeMeters>
            <DistanceMeters>NAN</DistanceMeters>
          </Trackpoint>
          <Trackpoint>
            <Time>2019-10-06T08:58:08.000Z</Time>
            <Position>
              <LatitudeDegrees>41.4331151358783245086669921875</LatitudeDegrees>
              <LongitudeDegrees>-5.72774134576320648193359375</LongitudeDegrees>
            </Position>
            <AltitudeMeters>697</AltitudeMeters>
            <DistanceMeters>NAN</DistanceMeters>
          </Trackpoint>
          <Trackpoint>
            <Time>2019-10-06T08:58:15.000Z</Time>
            <Position>
              <LatitudeDegrees>41.43277340568602085113525390625</LatitudeDegrees>
              <LongitudeDegrees>-5.72761720977723598480224609375</LongitudeDegrees>
            </Position>
            <AltitudeMeters>697.79998779296875</AltitudeMeters>
            <DistanceMeters>NAN</DistanceMeters>
          </Trackpoint>
          <Trackpoint>
            <Time>2019-10-06T08:58:18.000Z</Time>
            <Position>
              <LatitudeDegrees>41.432625465095043182373046875</LatitudeDegrees>
              <LongitudeDegrees>-5.72756431996822357177734375</LongitudeDegrees>
            </Position>
            <AltitudeMeters>698</AltitudeMeters>
            <DistanceMeters>NAN</DistanceMeters>
          </Trackpoint>
          <Trackpoint>
            <Time>2019-10-06T08:58:25.000Z</Time>
            <Position>
              <LatitudeDegrees>41.43227937631309032440185546875</LatitudeDegrees>
              <LongitudeDegrees>-5.72744370438158512115478515625</LongitudeDegrees>
            </Position>
            <AltitudeMeters>698.5999755859375</AltitudeMeters>
            <DistanceMeters>NAN</DistanceMeters>
          </Trackpoint>
          <Trackpoint>
            <Time>2019-10-06T08:58:26.000Z</Time>
            <Position>
              <LatitudeDegrees>41.43223126418888568878173828125</LatitudeDegrees>
              <LongitudeDegrees>-5.72742610238492488861083984375</LongitudeDegrees>
            </Position>
            <AltitudeMeters>698.5999755859375</AltitudeMeters>
            <DistanceMeters>NAN</DistanceMeters>
          </Trackpoint>
          <Trackpoint>
            <Time>2019-10-06T08:58:29.000Z</Time>
            <Position>
              <LatitudeDegrees>41.4320844970643520355224609375</LatitudeDegrees>
              <LongitudeDegrees>-5.72737446986138820648193359375</LongitudeDegrees>
            </Position>
            <AltitudeMeters>699</AltitudeMeters>
            <DistanceMeters>NAN</DistanceMeters>
          </Trackpoint>
          <Trackpoint>
            <Time>2019-10-06T08:58:38.000Z</Time>
            <Position>
              <LatitudeDegrees>41.4316427707672119140625</LatitudeDegrees>
              <LongitudeDegrees>-5.72722275741398334503173828125</LongitudeDegrees>
            </Position>
            <AltitudeMeters>699.5999755859375</AltitudeMeters>
            <DistanceMeters>NAN</DistanceMeters>
          </Trackpoint>
          <Trackpoint>
            <Time>2019-10-06T08:58:46.000Z</Time>
            <Position>
              <LatitudeDegrees>41.43125183880329132080078125</LatitudeDegrees>
              <LongitudeDegrees>-5.727085880935192108154296875</LongitudeDegrees>
            </Position>
            <AltitudeMeters>700</AltitudeMeters>
            <DistanceMeters>NAN</DistanceMeters>
          </Trackpoint>
          <Trackpoint>
            <Time>2019-10-06T08:58:49.000Z</Time>
            <Position>
              <LatitudeDegrees>41.43110171891748905181884765625</LatitudeDegrees>
              <LongitudeDegrees>-5.727032907307147979736328125</LongitudeDegrees>
            </Position>
            <AltitudeMeters>699.5999755859375</AltitudeMeters>
            <DistanceMeters>NAN</DistanceMeters>
          </Trackpoint>
          <Trackpoint>
            <Time>2019-10-06T08:58:59.000Z</Time>
            <Position>
              <LatitudeDegrees>41.430576257407665252685546875</LatitudeDegrees>
              <LongitudeDegrees>-5.72684808634221553802490234375</LongitudeDegrees>
            </Position>
            <AltitudeMeters>699.79998779296875</AltitudeMeters>
            <DistanceMeters>NAN</DistanceMeters>
          </Trackpoint>
          <Trackpoint>
            <Time>2019-10-06T08:59:07.000Z</Time>
            <Position>
              <LatitudeDegrees>41.43015213310718536376953125</LatitudeDegrees>
              <LongitudeDegrees>-5.72669855318963527679443359375</LongitudeDegrees>
            </Position>
            <AltitudeMeters>699.5999755859375</AltitudeMeters>
            <DistanceMeters>NAN</DistanceMeters>
          </Trackpoint>
          <Trackpoint>
            <Time>2019-10-06T08:59:11.000Z</Time>
            <Position>
              <LatitudeDegrees>41.4299404062330722808837890625</LatitudeDegrees>
              <LongitudeDegrees>-5.7266302406787872314453125</LongitudeDegrees>
            </Position>
            <AltitudeMeters>699.5999755859375</AltitudeMeters>
            <DistanceMeters>NAN</DistanceMeters>
          </Trackpoint>
          <Trackpoint>
            <Time>2019-10-06T08:59:16.000Z</Time>
            <Position>
              <LatitudeDegrees>41.429675035178661346435546875</LatitudeDegrees>
              <LongitudeDegrees>-5.72653560899198055267333984375</LongitudeDegrees>
            </Position>
            <AltitudeMeters>699.4000244140625</AltitudeMeters>
            <DistanceMeters>NAN</DistanceMeters>
          </Trackpoint>
          <Trackpoint>
            <Time>2019-10-06T08:59:18.000Z</Time>
            <Position>
              <LatitudeDegrees>41.4295695908367633819580078125</LatitudeDegrees>
              <LongitudeDegrees>-5.7264956273138523101806640625</LongitudeDegrees>
            </Position>
            <AltitudeMeters>699</AltitudeMeters>
            <DistanceMeters>NAN</DistanceMeters>
          </Trackpoint>
          <Trackpoint>
            <Time>2019-10-06T08:59:20.000Z</Time>
            <Position>
              <LatitudeDegrees>41.4294629730284214019775390625</LatitudeDegrees>
              <LongitudeDegrees>-5.72645950131118297576904296875</LongitudeDegrees>
            </Position>
            <AltitudeMeters>699.20001220703125</AltitudeMeters>
            <DistanceMeters>NAN</DistanceMeters>
          </Trackpoint>
          <Trackpoint>
            <Time>2019-10-06T08:59:30.000Z</Time>
            <Position>
              <LatitudeDegrees>41.4289315603673458099365234375</LatitudeDegrees>
              <LongitudeDegrees>-5.72627208195626735687255859375</LongitudeDegrees>
            </Position>
            <AltitudeMeters>699.4000244140625</AltitudeMeters>
            <DistanceMeters>NAN</DistanceMeters>
          </Trackpoint>
          <Trackpoint>
            <Time>2019-10-06T08:59:40.000Z</Time>
            <Position>
              <LatitudeDegrees>41.42840341664850711822509765625</LatitudeDegrees>
              <LongitudeDegrees>-5.7260825671255588531494140625</LongitudeDegrees>
            </Position>
            <AltitudeMeters>700</AltitudeMeters>
            <DistanceMeters>NAN</DistanceMeters>
          </Trackpoint>
          <Trackpoint>
            <Time>2019-10-06T08:59:49.000Z</Time>
            <Position>
              <LatitudeDegrees>41.4279418252408504486083984375</LatitudeDegrees>
              <LongitudeDegrees>-5.72592088021337985992431640625</LongitudeDegrees>
            </Position>
            <AltitudeMeters>699.5999755859375</AltitudeMeters>
            <DistanceMeters>NAN</DistanceMeters>
          </Trackpoint>
          <Trackpoint>
            <Time>2019-10-06T08:59:50.000Z</Time>
            <Position>
              <LatitudeDegrees>41.4278918690979480743408203125</LatitudeDegrees>
              <LongitudeDegrees>-5.72590135037899017333984375</LongitudeDegrees>
            </Position>
            <AltitudeMeters>699.79998779296875</AltitudeMeters>
            <DistanceMeters>NAN</DistanceMeters>
          </Trackpoint>
          <Trackpoint>
            <Time>2019-10-06T08:59:59.000Z</Time>
            <Position>
              <LatitudeDegrees>41.4274208061397075653076171875</LatitudeDegrees>
              <LongitudeDegrees>-5.7257419265806674957275390625</LongitudeDegrees>
            </Position>
            <AltitudeMeters>699.5999755859375</AltitudeMeters>
            <DistanceMeters>NAN</DistanceMeters>
          </Trackpoint>
          <Trackpoint>
            <Time>2019-10-06T09:00:01.000Z</Time>
            <Position>
              <LatitudeDegrees>41.42731678672134876251220703125</LatitudeDegrees>
              <LongitudeDegrees>-5.7257053814828395843505859375</LongitudeDegrees>
            </Position>
            <AltitudeMeters>700.20001220703125</AltitudeMeters>
            <DistanceMeters>NAN</DistanceMeters>
          </Trackpoint>
          <Trackpoint>
            <Time>2019-10-06T09:00:11.000Z</Time>
            <Position>
              <LatitudeDegrees>41.4267998747527599334716796875</LatitudeDegrees>
              <LongitudeDegrees>-5.7255243323743343353271484375</LongitudeDegrees>
            </Position>
            <AltitudeMeters>700</AltitudeMeters>
            <DistanceMeters>NAN</DistanceMeters>
          </Trackpoint>
          <Trackpoint>
            <Time>2019-10-06T09:00:12.000Z</Time>
            <Position>
              <LatitudeDegrees>41.4267495833337306976318359375</LatitudeDegrees>
              <LongitudeDegrees>-5.7255065627396106719970703125</LongitudeDegrees>
            </Position>
            <AltitudeMeters>700.20001220703125</AltitudeMeters>
            <DistanceMeters>NAN</DistanceMeters>
          </Trackpoint>
          <Trackpoint>
            <Time>2019-10-06T09:00:22.000Z</Time>
            <Position>
              <LatitudeDegrees>41.42623468302190303802490234375</LatitudeDegrees>
              <LongitudeDegrees>-5.725318305194377899169921875</LongitudeDegrees>
            </Position>
            <AltitudeMeters>700.20001220703125</AltitudeMeters>
            <DistanceMeters>NAN</DistanceMeters>
          </Trackpoint>
          <Trackpoint>
            <Time>2019-10-06T09:00:32.000Z</Time>
            <Position>
              <LatitudeDegrees>41.4257165975868701934814453125</LatitudeDegrees>
              <LongitudeDegrees>-5.7251387648284435272216796875</LongitudeDegrees>
            </Position>
            <AltitudeMeters>700.5999755859375</AltitudeMeters>
            <DistanceMeters>NAN</DistanceMeters>
          </Trackpoint>
          <Trackpoint>
            <Time>2019-10-06T09:00:33.000Z</Time>
            <Position>
              <LatitudeDegrees>41.4256642945110797882080078125</LatitudeDegrees>
              <LongitudeDegrees>-5.72511789388954639434814453125</LongitudeDegrees>
            </Position>
            <AltitudeMeters>700.4000244140625</AltitudeMeters>
            <DistanceMeters>NAN</DistanceMeters>
          </Trackpoint>
          <Trackpoint>
            <Time>2019-10-06T09:00:38.000Z</Time>
            <Position>
              <LatitudeDegrees>41.4254017733037471771240234375</LatitudeDegrees>
              <LongitudeDegrees>-5.72502669878304004669189453125</LongitudeDegrees>
            </Position>
            <AltitudeMeters>701.4000244140625</AltitudeMeters>
            <DistanceMeters>NAN</DistanceMeters>
          </Trackpoint>
          <Trackpoint>
            <Time>2019-10-06T09:00:41.000Z</Time>
            <Position>
              <LatitudeDegrees>41.42524444498121738433837890625</LatitudeDegrees>
              <LongitudeDegrees>-5.72497841902077198028564453125</LongitudeDegrees>
            </Position>
            <AltitudeMeters>700</AltitudeMeters>
            <DistanceMeters>NAN</DistanceMeters>
          </Trackpoint>
          <Trackpoint>
            <Time>2019-10-06T09:00:42.000Z</Time>
            <Position>
              <LatitudeDegrees>41.42519180662930011749267578125</LatitudeDegrees>
              <LongitudeDegrees>-5.72496081702411174774169921875</LongitudeDegrees>
            </Position>
            <AltitudeMeters>700.20001220703125</AltitudeMeters>
            <DistanceMeters>NAN</DistanceMeters>
          </Trackpoint>
          <Trackpoint>
            <Time>2019-10-06T09:00:43.000Z</Time>
            <Position>
              <LatitudeDegrees>41.425135396420955657958984375</LatitudeDegrees>
              <LongitudeDegrees>-5.72493977844715118408203125</LongitudeDegrees>
            </Position>
            <AltitudeMeters>701</AltitudeMeters>
            <DistanceMeters>NAN</DistanceMeters>
          </Trackpoint>
          <Trackpoint>
            <Time>2019-10-06T09:00:52.000Z</Time>
            <Position>
              <LatitudeDegrees>41.424673385918140411376953125</LatitudeDegrees>
              <LongitudeDegrees>-5.72477591224014759063720703125</LongitudeDegrees>
            </Position>
            <AltitudeMeters>700.79998779296875</AltitudeMeters>
            <DistanceMeters>NAN</DistanceMeters>
          </Trackpoint>
          <Trackpoint>
            <Time>2019-10-06T09:01:02.000Z</Time>
            <Position>
              <LatitudeDegrees>41.42415379174053668975830078125</LatitudeDegrees>
              <LongitudeDegrees>-5.72459016926586627960205078125</LongitudeDegrees>
            </Position>
            <AltitudeMeters>701.5999755859375</AltitudeMeters>
            <DistanceMeters>NAN</DistanceMeters>
          </Trackpoint>
          <Trackpoint>
            <Time>2019-10-06T09:01:03.000Z</Time>
            <Position>
              <LatitudeDegrees>41.4241015724837779998779296875</LatitudeDegrees>
              <LongitudeDegrees>-5.724571645259857177734375</LongitudeDegrees>
            </Position>
            <AltitudeMeters>701</AltitudeMeters>
            <DistanceMeters>NAN</DistanceMeters>
          </Trackpoint>
          <Trackpoint>
            <Time>2019-10-06T09:01:13.000Z</Time>
            <Position>
              <LatitudeDegrees>41.4235782064497470855712890625</LatitudeDegrees>
              <LongitudeDegrees>-5.72438866831362247467041015625</LongitudeDegrees>
            </Position>
            <AltitudeMeters>701.79998779296875</AltitudeMeters>
            <DistanceMeters>NAN</DistanceMeters>
          </Trackpoint>
          <Trackpoint>
            <Time>2019-10-06T09:01:15.000Z</Time>
            <Position>
              <LatitudeDegrees>41.42347284592688083648681640625</LatitudeDegrees>
              <LongitudeDegrees>-5.72435262612998485565185546875</LongitudeDegrees>
            </Position>
            <AltitudeMeters>701.79998779296875</AltitudeMeters>
            <DistanceMeters>NAN</DistanceMeters>
          </Trackpoint>
          <Trackpoint>
            <Time>2019-10-06T09:01:17.000Z</Time>
            <Position>
              <LatitudeDegrees>41.4233686588704586029052734375</LatitudeDegrees>
              <LongitudeDegrees>-5.72431742213666439056396484375</LongitudeDegrees>
            </Position>
            <AltitudeMeters>702</AltitudeMeters>
            <DistanceMeters>NAN</DistanceMeters>
          </Trackpoint>
          <Trackpoint>
            <Time>2019-10-06T09:01:24.000Z</Time>
            <Position>
              <LatitudeDegrees>41.42300094477832317352294921875</LatitudeDegrees>
              <LongitudeDegrees>-5.72418867610394954681396484375</LongitudeDegrees>
            </Position>
            <AltitudeMeters>701.5999755859375</AltitudeMeters>
            <DistanceMeters>NAN</DistanceMeters>
          </Trackpoint>
          <Trackpoint>
            <Time>2019-10-06T09:01:27.000Z</Time>
            <Position>
              <LatitudeDegrees>41.42284219153225421905517578125</LatitudeDegrees>
              <LongitudeDegrees>-5.7241349481046199798583984375</LongitudeDegrees>
            </Position>
            <AltitudeMeters>701</AltitudeMeters>
            <DistanceMeters>NAN</DistanceMeters>
          </Trackpoint>
          <Trackpoint>
            <Time>2019-10-06T09:01:34.000Z</Time>
            <Position>
              <LatitudeDegrees>41.4224791713058948516845703125</LatitudeDegrees>
              <LongitudeDegrees>-5.72399966418743133544921875</LongitudeDegrees>
            </Position>
            <AltitudeMeters>701.5999755859375</AltitudeMeters>
            <DistanceMeters>NAN</DistanceMeters>
          </Trackpoint>
          <Trackpoint>
            <Time>2019-10-06T09:01:35.000Z</Time>
            <Position>
              <LatitudeDegrees>41.42242711968719959259033203125</LatitudeDegrees>
              <LongitudeDegrees>-5.72398088872432708740234375</LongitudeDegrees>
            </Position>
            <AltitudeMeters>702</AltitudeMeters>
            <DistanceMeters>NAN</DistanceMeters>
          </Trackpoint>
          <Trackpoint>
            <Time>2019-10-06T09:01:45.000Z</Time>
            <Position>
              <LatitudeDegrees>41.42191498540341854095458984375</LatitudeDegrees>
              <LongitudeDegrees>-5.723809897899627685546875</LongitudeDegrees>
            </Position>
            <AltitudeMeters>702.5999755859375</AltitudeMeters>
            <DistanceMeters>NAN</DistanceMeters>
          </Trackpoint>
          <Trackpoint>
            <Time>2019-10-06T09:01:50.000Z</Time>
            <Position>
              <LatitudeDegrees>41.4216636121273040771484375</LatitudeDegrees>
              <LongitudeDegrees>-5.72372339665889739990234375</LongitudeDegrees>
            </Position>
            <AltitudeMeters>703</AltitudeMeters>
            <DistanceMeters>NAN</DistanceMeters>
          </Trackpoint>
          <Trackpoint>
            <Time>2019-10-06T09:01:54.000Z</Time>
            <Position>
              <LatitudeDegrees>41.42146638594567775726318359375</LatitudeDegrees>
              <LongitudeDegrees>-5.7236508093774318695068359375</LongitudeDegrees>
            </Position>
            <AltitudeMeters>703</AltitudeMeters>
            <DistanceMeters>NAN</DistanceMeters>
          </Trackpoint>
          <Trackpoint>
            <Time>2019-10-06T09:02:01.000Z</Time>
            <Position>
              <LatitudeDegrees>41.42110831104218959808349609375</LatitudeDegrees>
              <LongitudeDegrees>-5.72352893650531768798828125</LongitudeDegrees>
            </Position>
            <AltitudeMeters>703.79998779296875</AltitudeMeters>
            <DistanceMeters>NAN</DistanceMeters>
          </Trackpoint>
          <Trackpoint>
            <Time>2019-10-06T09:02:04.000Z</Time>
            <Position>
              <LatitudeDegrees>41.42096129246056079864501953125</LatitudeDegrees>
              <LongitudeDegrees>-5.72347973473370075225830078125</LongitudeDegrees>
            </Position>
            <AltitudeMeters>704.20001220703125</AltitudeMeters>
            <DistanceMeters>NAN</DistanceMeters>
          </Trackpoint>
          <Trackpoint>
            <Time>2019-10-06T09:02:11.000Z</Time>
            <Position>
              <LatitudeDegrees>41.4206455461680889129638671875</LatitudeDegrees>
              <LongitudeDegrees>-5.72335333563387393951416015625</LongitudeDegrees>
            </Position>
            <AltitudeMeters>705</AltitudeMeters>
            <DistanceMeters>NAN</DistanceMeters>
          </Trackpoint>
          <Trackpoint>
            <Time>2019-10-06T09:02:14.000Z</Time>
            <Position>
              <LatitudeDegrees>41.42051235772669315338134765625</LatitudeDegrees>
              <LongitudeDegrees>-5.72330941446125507354736328125</LongitudeDegrees>
            </Position>
            <AltitudeMeters>705.5999755859375</AltitudeMeters>
            <DistanceMeters>NAN</DistanceMeters>
          </Trackpoint>
          <Trackpoint>
            <Time>2019-10-06T09:02:20.000Z</Time>
            <Position>
              <LatitudeDegrees>41.4202509261667728424072265625</LatitudeDegrees>
              <LongitudeDegrees>-5.72321905754506587982177734375</LongitudeDegrees>
            </Position>
            <AltitudeMeters>706.5999755859375</AltitudeMeters>
            <DistanceMeters>NAN</DistanceMeters>
          </Trackpoint>
          <Trackpoint>
            <Time>2019-10-06T09:02:22.000Z</Time>
            <Position>
              <LatitudeDegrees>41.42016719095408916473388671875</LatitudeDegrees>
              <LongitudeDegrees>-5.72318636812269687652587890625</LongitudeDegrees>
            </Position>
            <AltitudeMeters>706.79998779296875</AltitudeMeters>
            <DistanceMeters>NAN</DistanceMeters>
          </Trackpoint>
          <Trackpoint>
            <Time>2019-10-06T09:02:28.000Z</Time>
            <Position>
              <LatitudeDegrees>41.41990877687931060791015625</LatitudeDegrees>
              <LongitudeDegrees>-5.72309601120650768280029296875</LongitudeDegrees>
            </Position>
            <AltitudeMeters>707.79998779296875</AltitudeMeters>
            <DistanceMeters>NAN</DistanceMeters>
          </Trackpoint>
          <Trackpoint>
            <Time>2019-10-06T09:02:29.000Z</Time>
            <Position>
              <LatitudeDegrees>41.41986728645861148834228515625</LatitudeDegrees>
              <LongitudeDegrees>-5.723080001771450042724609375</LongitudeDegrees>
            </Position>
            <AltitudeMeters>708</AltitudeMeters>
            <DistanceMeters>NAN</DistanceMeters>
          </Trackpoint>
          <Trackpoint>
            <Time>2019-10-06T09:02:33.000Z</Time>
            <Position>
              <LatitudeDegrees>41.419697888195514678955078125</LatitudeDegrees>
              <LongitudeDegrees>-5.7230181433260440826416015625</LongitudeDegrees>
            </Position>
            <AltitudeMeters>709</AltitudeMeters>
            <DistanceMeters>NAN</DistanceMeters>
          </Trackpoint>
          <Trackpoint>
            <Time>2019-10-06T09:02:38.000Z</Time>
            <Position>
              <LatitudeDegrees>41.41948540695011615753173828125</LatitudeDegrees>
              <LongitudeDegrees>-5.72295351885259151458740234375</LongitudeDegrees>
            </Position>
            <AltitudeMeters>709.79998779296875</AltitudeMeters>
            <DistanceMeters>NAN</DistanceMeters>
          </Trackpoint>
          <Trackpoint>
            <Time>2019-10-06T09:02:40.000Z</Time>
            <Position>
              <LatitudeDegrees>41.41940209083259105682373046875</LatitudeDegrees>
              <LongitudeDegrees>-5.7229356653988361358642578125</LongitudeDegrees>
            </Position>
            <AltitudeMeters>710.20001220703125</AltitudeMeters>
            <DistanceMeters>NAN</DistanceMeters>
          </Trackpoint>
          <Trackpoint>
            <Time>2019-10-06T09:02:46.000Z</Time>
            <Position>
              <LatitudeDegrees>41.41914275474846363067626953125</LatitudeDegrees>
              <LongitudeDegrees>-5.72293340228497982025146484375</LongitudeDegrees>
            </Position>
            <AltitudeMeters>710.79998779296875</AltitudeMeters>
            <DistanceMeters>NAN</DistanceMeters>
          </Trackpoint>
          <Trackpoint>
            <Time>2019-10-06T09:02:47.000Z</Time>
            <Position>
              <LatitudeDegrees>41.4190992526710033416748046875</LatitudeDegrees>
              <LongitudeDegrees>-5.7229380123317241668701171875</LongitudeDegrees>
            </Position>
            <AltitudeMeters>711.20001220703125</AltitudeMeters>
            <DistanceMeters>NAN</DistanceMeters>
          </Trackpoint>
          <Trackpoint>
            <Time>2019-10-06T09:02:57.000Z</Time>
            <Position>
              <LatitudeDegrees>41.418647132813930511474609375</LatitudeDegrees>
              <LongitudeDegrees>-5.72301956824958324432373046875</LongitudeDegrees>
            </Position>
            <AltitudeMeters>712</AltitudeMeters>
            <DistanceMeters>NAN</DistanceMeters>
          </Trackpoint>
          <Trackpoint>
            <Time>2019-10-06T09:03:04.000Z</Time>
            <Position>
              <LatitudeDegrees>41.41832937486469745635986328125</LatitudeDegrees>
              <LongitudeDegrees>-5.72313372977077960968017578125</LongitudeDegrees>
            </Position>
            <AltitudeMeters>712.4000244140625</AltitudeMeters>
            <DistanceMeters>NAN</DistanceMeters>
          </Trackpoint>
          <Trackpoint>
            <Time>2019-10-06T09:03:06.000Z</Time>
            <Position>
              <LatitudeDegrees>41.41823817975819110870361328125</LatitudeDegrees>
              <LongitudeDegrees>-5.72317094542086124420166015625</LongitudeDegrees>
            </Position>
            <AltitudeMeters>712</AltitudeMeters>
            <DistanceMeters>NAN</DistanceMeters>
          </Trackpoint>
          <Trackpoint>
            <Time>2019-10-06T09:03:14.000Z</Time>
            <Position>
              <LatitudeDegrees>41.41787541098892688751220703125</LatitudeDegrees>
              <LongitudeDegrees>-5.72332911193370819091796875</LongitudeDegrees>
            </Position>
            <AltitudeMeters>712.5999755859375</AltitudeMeters>
            <DistanceMeters>NAN</DistanceMeters>
          </Trackpoint>
          <Trackpoint>
            <Time>2019-10-06T09:03:23.000Z</Time>
            <Position>
              <LatitudeDegrees>41.41746704466640949249267578125</LatitudeDegrees>
              <LongitudeDegrees>-5.7235054671764373779296875</LongitudeDegrees>
            </Position>
            <AltitudeMeters>713</AltitudeMeters>
            <DistanceMeters>NAN</DistanceMeters>
          </Trackpoint>
          <Trackpoint>
            <Time>2019-10-06T09:03:25.000Z</Time>
            <Position>
              <LatitudeDegrees>41.4173749275505542755126953125</LatitudeDegrees>
              <LongitudeDegrees>-5.7235418446362018585205078125</LongitudeDegrees>
            </Position>
            <AltitudeMeters>712.5999755859375</AltitudeMeters>
            <DistanceMeters>NAN</DistanceMeters>
          </Trackpoint>
          <Trackpoint>
            <Time>2019-10-06T09:03:28.000Z</Time>
            <Position>
              <LatitudeDegrees>41.4172384701669216156005859375</LatitudeDegrees>
              <LongitudeDegrees>-5.72359926067292690277099609375</LongitudeDegrees>
            </Position>
            <AltitudeMeters>713.4000244140625</AltitudeMeters>
            <DistanceMeters>NAN</DistanceMeters>
          </Trackpoint>
          <Trackpoint>
            <Time>2019-10-06T09:03:29.000Z</Time>
            <Position>
              <LatitudeDegrees>41.4171942137181758880615234375</LatitudeDegrees>
              <LongitudeDegrees>-5.72362574748694896697998046875</LongitudeDegrees>
            </Position>
            <AltitudeMeters>713.5999755859375</AltitudeMeters>
            <DistanceMeters>NAN</DistanceMeters>
          </Trackpoint>
          <Trackpoint>
            <Time>2019-10-06T09:03:31.000Z</Time>
            <Position>
              <LatitudeDegrees>41.41711123287677764892578125</LatitudeDegrees>
              <LongitudeDegrees>-5.72369389235973358154296875</LongitudeDegrees>
            </Position>
            <AltitudeMeters>713.20001220703125</AltitudeMeters>
            <DistanceMeters>NAN</DistanceMeters>
          </Trackpoint>
          <Trackpoint>
            <Time>2019-10-06T09:03:34.000Z</Time>
            <Position>
              <LatitudeDegrees>41.4170104824006557464599609375</LatitudeDegrees>
              <LongitudeDegrees>-5.7238315232098102569580078125</LongitudeDegrees>
            </Position>
            <AltitudeMeters>713.79998779296875</AltitudeMeters>
            <DistanceMeters>NAN</DistanceMeters>
          </Trackpoint>
          <Trackpoint>
            <Time>2019-10-06T09:03:35.000Z</Time>
            <Position>
              <LatitudeDegrees>41.41697251237928867340087890625</LatitudeDegrees>
              <LongitudeDegrees>-5.72387200780212879180908203125</LongitudeDegrees>
            </Position>
            <AltitudeMeters>713.5999755859375</AltitudeMeters>
            <DistanceMeters>NAN</DistanceMeters>
          </Trackpoint>
          <Trackpoint>
            <Time>2019-10-06T09:03:36.000Z</Time>
            <Position>
              <LatitudeDegrees>41.41693060286343097686767578125</LatitudeDegrees>
              <LongitudeDegrees>-5.72390218265354633331298828125</LongitudeDegrees>
            </Position>
            <AltitudeMeters>713.5999755859375</AltitudeMeters>
            <DistanceMeters>NAN</DistanceMeters>
          </Trackpoint>
          <Trackpoint>
            <Time>2019-10-06T09:03:40.000Z</Time>
            <Position>
              <LatitudeDegrees>41.41674452461302280426025390625</LatitudeDegrees>
              <LongitudeDegrees>-5.72390637360513210296630859375</LongitudeDegrees>
            </Position>
            <AltitudeMeters>714.20001220703125</AltitudeMeters>
            <DistanceMeters>NAN</DistanceMeters>
          </Trackpoint>
          <Trackpoint>
            <Time>2019-10-06T09:03:41.000Z</Time>
            <Position>
              <LatitudeDegrees>41.41670219600200653076171875</LatitudeDegrees>
              <LongitudeDegrees>-5.7238771207630634307861328125</LongitudeDegrees>
            </Position>
            <AltitudeMeters>714.5999755859375</AltitudeMeters>
            <DistanceMeters>NAN</DistanceMeters>
          </Trackpoint>
          <Trackpoint>
            <Time>2019-10-06T09:03:43.000Z</Time>
            <Position>
              <LatitudeDegrees>41.41664008609950542449951171875</LatitudeDegrees>
              <LongitudeDegrees>-5.72378232143819332122802734375</LongitudeDegrees>
            </Position>
            <AltitudeMeters>714.79998779296875</AltitudeMeters>
            <DistanceMeters>NAN</DistanceMeters>
          </Trackpoint>
          <Trackpoint>
            <Time>2019-10-06T09:03:47.000Z</Time>
            <Position>
              <LatitudeDegrees>41.416607983410358428955078125</LatitudeDegrees>
              <LongitudeDegrees>-5.72352700866758823394775390625</LongitudeDegrees>
            </Position>
            <AltitudeMeters>714.79998779296875</AltitudeMeters>
            <DistanceMeters>NAN</DistanceMeters>
          </Trackpoint>
          <Trackpoint>
            <Time>2019-10-06T09:03:49.000Z</Time>
            <Position>
              <LatitudeDegrees>41.4166426844894886016845703125</LatitudeDegrees>
              <LongitudeDegrees>-5.72339641861617565155029296875</LongitudeDegrees>
            </Position>
            <AltitudeMeters>714.5999755859375</AltitudeMeters>
            <DistanceMeters>NAN</DistanceMeters>
          </Trackpoint>
          <Trackpoint>
            <Time>2019-10-06T09:03:53.000Z</Time>
            <Position>
              <LatitudeDegrees>41.41671292483806610107421875</LatitudeDegrees>
              <LongitudeDegrees>-5.72312417440116405487060546875</LongitudeDegrees>
            </Position>
            <AltitudeMeters>714.20001220703125</AltitudeMeters>
            <DistanceMeters>NAN</DistanceMeters>
          </Trackpoint>
          <Trackpoint>
            <Time>2019-10-06T09:03:58.000Z</Time>
            <Position>
              <LatitudeDegrees>41.41672038473188877105712890625</LatitudeDegrees>
              <LongitudeDegrees>-5.722750090062618255615234375</LongitudeDegrees>
            </Position>
            <AltitudeMeters>714</AltitudeMeters>
            <DistanceMeters>NAN</DistanceMeters>
          </Trackpoint>
          <Trackpoint>
            <Time>2019-10-06T09:04:04.000Z</Time>
            <Position>
              <LatitudeDegrees>41.41668920405209064483642578125</LatitudeDegrees>
              <LongitudeDegrees>-5.722300149500370025634765625</LongitudeDegrees>
            </Position>
            <AltitudeMeters>714</AltitudeMeters>
            <DistanceMeters>NAN</DistanceMeters>
          </Trackpoint>
          <Trackpoint>
            <Time>2019-10-06T09:04:07.000Z</Time>
            <Position>
              <LatitudeDegrees>41.41667327843606472015380859375</LatitudeDegrees>
              <LongitudeDegrees>-5.72207392193377017974853515625</LongitudeDegrees>
            </Position>
            <AltitudeMeters>713.5999755859375</AltitudeMeters>
            <DistanceMeters>NAN</DistanceMeters>
          </Trackpoint>
          <Trackpoint>
            <Time>2019-10-06T09:04:08.000Z</Time>
            <Position>
              <LatitudeDegrees>41.41666824929416179656982421875</LatitudeDegrees>
              <LongitudeDegrees>-5.72200032882392406463623046875</LongitudeDegrees>
            </Position>
            <AltitudeMeters>713.5999755859375</AltitudeMeters>
            <DistanceMeters>NAN</DistanceMeters>
          </Trackpoint>
          <Trackpoint>
            <Time>2019-10-06T09:04:15.000Z</Time>
            <Position>
              <LatitudeDegrees>41.41663321293890476226806640625</LatitudeDegrees>
              <LongitudeDegrees>-5.72149205021560192108154296875</LongitudeDegrees>
            </Position>
            <AltitudeMeters>713.4000244140625</AltitudeMeters>
            <DistanceMeters>NAN</DistanceMeters>
          </Trackpoint>
          <Trackpoint>
            <Time>2019-10-06T09:04:18.000Z</Time>
            <Position>
              <LatitudeDegrees>41.416619718074798583984375</LatitudeDegrees>
              <LongitudeDegrees>-5.7212599553167819976806640625</LongitudeDegrees>
            </Position>
            <AltitudeMeters>713</AltitudeMeters>
            <DistanceMeters>NAN</DistanceMeters>
          </Trackpoint>
          <Trackpoint>
            <Time>2019-10-06T09:04:24.000Z</Time>
            <Position>
              <LatitudeDegrees>41.41658023931086063385009765625</LatitudeDegrees>
              <LongitudeDegrees>-5.7208006270229816436767578125</LongitudeDegrees>
            </Position>
            <AltitudeMeters>713.4000244140625</AltitudeMeters>
            <DistanceMeters>NAN</DistanceMeters>
          </Trackpoint>
          <Trackpoint>
            <Time>2019-10-06T09:04:25.000Z</Time>
            <Position>
              <LatitudeDegrees>41.41656649298965930938720703125</LatitudeDegrees>
              <LongitudeDegrees>-5.720727704465389251708984375</LongitudeDegrees>
            </Position>
            <AltitudeMeters>713.20001220703125</AltitudeMeters>
            <DistanceMeters>NAN</DistanceMeters>
          </Trackpoint>
          <Trackpoint>
            <Time>2019-10-06T09:04:27.000Z</Time>
            <Position>
              <LatitudeDegrees>41.41652508638799190521240234375</LatitudeDegrees>
              <LongitudeDegrees>-5.72058663703501224517822265625</LongitudeDegrees>
            </Position>
            <AltitudeMeters>713.4000244140625</AltitudeMeters>
            <DistanceMeters>NAN</DistanceMeters>
          </Trackpoint>
          <Trackpoint>
            <Time>2019-10-06T09:04:29.000Z</Time>
            <Position>
              <LatitudeDegrees>41.41645350493490695953369140625</LatitudeDegrees>
              <LongitudeDegrees>-5.7204720564186573028564453125</LongitudeDegrees>
            </Position>
            <AltitudeMeters>713.20001220703125</AltitudeMeters>
            <DistanceMeters>NAN</DistanceMeters>
          </Trackpoint>
          <Trackpoint>
            <Time>2019-10-06T09:04:34.000Z</Time>
            <Position>
              <LatitudeDegrees>41.4162028022110462188720703125</LatitudeDegrees>
              <LongitudeDegrees>-5.7203144766390323638916015625</LongitudeDegrees>
            </Position>
            <AltitudeMeters>713</AltitudeMeters>
            <DistanceMeters>NAN</DistanceMeters>
          </Trackpoint>
          <Trackpoint>
            <Time>2019-10-06T09:04:36.000Z</Time>
            <Position>
              <LatitudeDegrees>41.41609325073659420013427734375</LatitudeDegrees>
              <LongitudeDegrees>-5.7203221879899501800537109375</LongitudeDegrees>
            </Position>
            <AltitudeMeters>713</AltitudeMeters>
            <DistanceMeters>NAN</DistanceMeters>
          </Trackpoint>
          <Trackpoint>
            <Time>2019-10-06T09:04:37.000Z</Time>
            <Position>
              <LatitudeDegrees>41.4160411991178989410400390625</LatitudeDegrees>
              <LongitudeDegrees>-5.720336437225341796875</LongitudeDegrees>
            </Position>
            <AltitudeMeters>713.20001220703125</AltitudeMeters>
            <DistanceMeters>NAN</DistanceMeters>
          </Trackpoint>
          <Trackpoint>
            <Time>2019-10-06T09:04:38.000Z</Time>
            <Position>
              <LatitudeDegrees>41.41599141061305999755859375</LatitudeDegrees>
              <LongitudeDegrees>-5.72035931982100009918212890625</LongitudeDegrees>
            </Position>
            <AltitudeMeters>713.4000244140625</AltitudeMeters>
            <DistanceMeters>NAN</DistanceMeters>
          </Trackpoint>
          <Trackpoint>
            <Time>2019-10-06T09:04:43.000Z</Time>
            <Position>
              <LatitudeDegrees>41.4157823659479618072509765625</LatitudeDegrees>
              <LongitudeDegrees>-5.72051807306706905364990234375</LongitudeDegrees>
            </Position>
            <AltitudeMeters>714.4000244140625</AltitudeMeters>
            <DistanceMeters>NAN</DistanceMeters>
          </Trackpoint>
          <Trackpoint>
            <Time>2019-10-06T09:04:44.000Z</Time>
            <Position>
              <LatitudeDegrees>41.4157464914023876190185546875</LatitudeDegrees>
              <LongitudeDegrees>-5.72054422460496425628662109375</LongitudeDegrees>
            </Position>
            <AltitudeMeters>714.5999755859375</AltitudeMeters>
            <DistanceMeters>NAN</DistanceMeters>
          </Trackpoint>
          <Trackpoint>
            <Time>2019-10-06T09:04:48.000Z</Time>
            <Position>
              <LatitudeDegrees>41.4155910909175872802734375</LatitudeDegrees>
              <LongitudeDegrees>-5.72065335698425769805908203125</LongitudeDegrees>
            </Position>
            <AltitudeMeters>715.5999755859375</AltitudeMeters>
            <DistanceMeters>NAN</DistanceMeters>
          </Trackpoint>
          <Trackpoint>
            <Time>2019-10-06T09:04:49.000Z</Time>
            <Position>
              <LatitudeDegrees>41.41556988470256328582763671875</LatitudeDegrees>
              <LongitudeDegrees>-5.7206665165722370147705078125</LongitudeDegrees>
            </Position>
            <AltitudeMeters>717.5999755859375</AltitudeMeters>
            <DistanceMeters>NAN</DistanceMeters>
          </Trackpoint>
          <Trackpoint>
            <Time>2019-10-06T09:04:50.000Z</Time>
            <Position>
              <LatitudeDegrees>41.4155339263379573822021484375</LatitudeDegrees>
              <LongitudeDegrees>-5.7206864655017852783203125</LongitudeDegrees>
            </Position>
            <AltitudeMeters>716</AltitudeMeters>
            <DistanceMeters>NAN</DistanceMeters>
          </Trackpoint>
          <Trackpoint>
            <Time>2019-10-06T09:04:51.000Z</Time>
            <Position>
              <LatitudeDegrees>41.41549796797335147857666015625</LatitudeDegrees>
              <LongitudeDegrees>-5.7207000441849231719970703125</LongitudeDegrees>
            </Position>
            <AltitudeMeters>716.5999755859375</AltitudeMeters>
            <DistanceMeters>NAN</DistanceMeters>
          </Trackpoint>
          <Trackpoint>
            <Time>2019-10-06T09:04:53.000Z</Time>
            <Position>
              <LatitudeDegrees>41.41542538069188594818115234375</LatitudeDegrees>
              <LongitudeDegrees>-5.7207322306931018829345703125</LongitudeDegrees>
            </Position>
            <AltitudeMeters>717.20001220703125</AltitudeMeters>
            <DistanceMeters>NAN</DistanceMeters>
          </Trackpoint>
          <Trackpoint>
            <Time>2019-10-06T09:04:56.000Z</Time>
            <Position>
              <LatitudeDegrees>41.41531239263713359832763671875</LatitudeDegrees>
              <LongitudeDegrees>-5.72077355347573757171630859375</LongitudeDegrees>
            </Position>
            <AltitudeMeters>717.5999755859375</AltitudeMeters>
            <DistanceMeters>NAN</DistanceMeters>
          </Trackpoint>
          <Trackpoint>
            <Time>2019-10-06T09:04:58.000Z</Time>
            <Position>
              <LatitudeDegrees>41.41523645259439945220947265625</LatitudeDegrees>
              <LongitudeDegrees>-5.72078813798725605010986328125</LongitudeDegrees>
            </Position>
            <AltitudeMeters>717.79998779296875</AltitudeMeters>
            <DistanceMeters>NAN</DistanceMeters>
          </Trackpoint>
          <Trackpoint>
            <Time>2019-10-06T09:05:00.000Z</Time>
            <Position>
              <LatitudeDegrees>41.41516202129423618316650390625</LatitudeDegrees>
              <LongitudeDegrees>-5.72079786099493503570556640625</LongitudeDegrees>
            </Position>
            <AltitudeMeters>718.5999755859375</AltitudeMeters>
            <DistanceMeters>NAN</DistanceMeters>
          </Trackpoint>
          <Trackpoint>
            <Time>2019-10-06T09:05:04.000Z</Time>
            <Position>
              <LatitudeDegrees>41.41502154059708118438720703125</LatitudeDegrees>
              <LongitudeDegrees>-5.72079082019627094268798828125</LongitudeDegrees>
            </Position>
            <AltitudeMeters>719</AltitudeMeters>
            <DistanceMeters>NAN</DistanceMeters>
          </Trackpoint>
          <Trackpoint>
            <Time>2019-10-06T09:05:05.000Z</Time>
            <Position>
              <LatitudeDegrees>41.41498633660376071929931640625</LatitudeDegrees>
              <LongitudeDegrees>-5.72078277356922626495361328125</LongitudeDegrees>
            </Position>
            <AltitudeMeters>719.4000244140625</AltitudeMeters>
            <DistanceMeters>NAN</DistanceMeters>
          </Trackpoint>
          <Trackpoint>
            <Time>2019-10-06T09:05:07.000Z</Time>
            <Position>
              <LatitudeDegrees>41.41491458751261234283447265625</LatitudeDegrees>
              <LongitudeDegrees>-5.72076751850545406341552734375</LongitudeDegrees>
            </Position>
            <AltitudeMeters>719.5999755859375</AltitudeMeters>
            <DistanceMeters>NAN</DistanceMeters>
          </Trackpoint>
          <Trackpoint>
            <Time>2019-10-06T09:05:13.000Z</Time>
            <Position>
              <LatitudeDegrees>41.41470487229526042938232421875</LatitudeDegrees>
              <LongitudeDegrees>-5.72072393260896205902099609375</LongitudeDegrees>
            </Position>
            <AltitudeMeters>720.20001220703125</AltitudeMeters>
            <DistanceMeters>NAN</DistanceMeters>
          </Trackpoint>
          <Trackpoint>
            <Time>2019-10-06T09:05:14.000Z</Time>
            <Position>
              <LatitudeDegrees>41.4146685786545276641845703125</LatitudeDegrees>
              <LongitudeDegrees>-5.7207124494016170501708984375</LongitudeDegrees>
            </Position>
            <AltitudeMeters>720.5999755859375</AltitudeMeters>
            <DistanceMeters>NAN</DistanceMeters>
          </Trackpoint>
          <Trackpoint>
            <Time>2019-10-06T09:05:21.000Z</Time>
            <Position>
              <LatitudeDegrees>41.41441452316939830780029296875</LatitudeDegrees>
              <LongitudeDegrees>-5.72063340805470943450927734375</LongitudeDegrees>
            </Position>
            <AltitudeMeters>722</AltitudeMeters>
            <DistanceMeters>NAN</DistanceMeters>
          </Trackpoint>
          <Trackpoint>
            <Time>2019-10-06T09:05:27.000Z</Time>
            <Position>
              <LatitudeDegrees>41.414186619222164154052734375</LatitudeDegrees>
              <LongitudeDegrees>-5.7205562107264995574951171875</LongitudeDegrees>
            </Position>
            <AltitudeMeters>722.4000244140625</AltitudeMeters>
            <DistanceMeters>NAN</DistanceMeters>
          </Trackpoint>
          <Trackpoint>
            <Time>2019-10-06T09:05:29.000Z</Time>
            <Position>
              <LatitudeDegrees>41.41410849988460540771484375</LatitudeDegrees>
              <LongitudeDegrees>-5.72053064592182636260986328125</LongitudeDegrees>
            </Position>
            <AltitudeMeters>722.4000244140625</AltitudeMeters>
            <DistanceMeters>NAN</DistanceMeters>
          </Trackpoint>
          <Trackpoint>
            <Time>2019-10-06T09:05:32.000Z</Time>
            <Position>
              <LatitudeDegrees>41.4139889739453792572021484375</LatitudeDegrees>
              <LongitudeDegrees>-5.72048664093017578125</LongitudeDegrees>
            </Position>
            <AltitudeMeters>723</AltitudeMeters>
            <DistanceMeters>NAN</DistanceMeters>
          </Trackpoint>
          <Trackpoint>
            <Time>2019-10-06T09:05:39.000Z</Time>
            <Position>
              <LatitudeDegrees>41.4137041568756103515625</LatitudeDegrees>
              <LongitudeDegrees>-5.72038446553051471710205078125</LongitudeDegrees>
            </Position>
            <AltitudeMeters>724</AltitudeMeters>
            <DistanceMeters>NAN</DistanceMeters>
          </Trackpoint>
          <Trackpoint>
            <Time>2019-10-06T09:05:46.000Z</Time>
            <Position>
              <LatitudeDegrees>41.4134039171040058135986328125</LatitudeDegrees>
              <LongitudeDegrees>-5.72027633897960186004638671875</LongitudeDegrees>
            </Position>
            <AltitudeMeters>724.20001220703125</AltitudeMeters>
            <DistanceMeters>NAN</DistanceMeters>
          </Trackpoint>
          <Trackpoint>
            <Time>2019-10-06T09:05:49.000Z</Time>
            <Position>
              <LatitudeDegrees>41.41327299177646636962890625</LatitudeDegrees>
              <LongitudeDegrees>-5.72022981941699981689453125</LongitudeDegrees>
            </Position>
            <AltitudeMeters>723.79998779296875</AltitudeMeters>
            <DistanceMeters>NAN</DistanceMeters>
          </Trackpoint>
          <Trackpoint>
            <Time>2019-10-06T09:05:58.000Z</Time>
            <Position>
              <LatitudeDegrees>41.41287602484226226806640625</LatitudeDegrees>
              <LongitudeDegrees>-5.72009512223303318023681640625</LongitudeDegrees>
            </Position>
            <AltitudeMeters>724.20001220703125</AltitudeMeters>
            <DistanceMeters>NAN</DistanceMeters>
          </Trackpoint>
          <Trackpoint>
            <Time>2019-10-06T09:06:02.000Z</Time>
            <Position>
              <LatitudeDegrees>41.4126995019614696502685546875</LatitudeDegrees>
              <LongitudeDegrees>-5.72002957575023174285888671875</LongitudeDegrees>
            </Position>
            <AltitudeMeters>724.4000244140625</AltitudeMeters>
            <DistanceMeters>NAN</DistanceMeters>
          </Trackpoint>
          <Trackpoint>
            <Time>2019-10-06T09:06:03.000Z</Time>
            <Position>
              <LatitudeDegrees>41.4126552455127239227294921875</LatitudeDegrees>
              <LongitudeDegrees>-5.7200140692293643951416015625</LongitudeDegrees>
            </Position>
            <AltitudeMeters>724.4000244140625</AltitudeMeters>
            <DistanceMeters>NAN</DistanceMeters>
          </Trackpoint>
          <Trackpoint>
            <Time>2019-10-06T09:06:07.000Z</Time>
            <Position>
              <LatitudeDegrees>41.41247897408902645111083984375</LatitudeDegrees>
              <LongitudeDegrees>-5.7199542224407196044921875</LongitudeDegrees>
            </Position>
            <AltitudeMeters>724.5999755859375</AltitudeMeters>
            <DistanceMeters>NAN</DistanceMeters>
          </Trackpoint>
          <Trackpoint>
            <Time>2019-10-06T09:06:11.000Z</Time>
            <Position>
              <LatitudeDegrees>41.4123001880943775177001953125</LatitudeDegrees>
              <LongitudeDegrees>-5.71989093907177448272705078125</LongitudeDegrees>
            </Position>
            <AltitudeMeters>724.79998779296875</AltitudeMeters>
            <DistanceMeters>NAN</DistanceMeters>
          </Trackpoint>
          <Trackpoint>
            <Time>2019-10-06T09:06:14.000Z</Time>
            <Position>
              <LatitudeDegrees>41.41216456890106201171875</LatitudeDegrees>
              <LongitudeDegrees>-5.71984165348112583160400390625</LongitudeDegrees>
            </Position>
            <AltitudeMeters>724.79998779296875</AltitudeMeters>
            <DistanceMeters>NAN</DistanceMeters>
          </Trackpoint>
          <Trackpoint>
            <Time>2019-10-06T09:06:21.000Z</Time>
            <Position>
              <LatitudeDegrees>41.41184396110475063323974609375</LatitudeDegrees>
              <LongitudeDegrees>-5.719732940196990966796875</LongitudeDegrees>
            </Position>
            <AltitudeMeters>725.20001220703125</AltitudeMeters>
            <DistanceMeters>NAN</DistanceMeters>
          </Trackpoint>
          <Trackpoint>
            <Time>2019-10-06T09:06:25.000Z</Time>
            <Position>
              <LatitudeDegrees>41.411659978330135345458984375</LatitudeDegrees>
              <LongitudeDegrees>-5.7196704111993312835693359375</LongitudeDegrees>
            </Position>
            <AltitudeMeters>725.20001220703125</AltitudeMeters>
            <DistanceMeters>NAN</DistanceMeters>
          </Trackpoint>
          <Trackpoint>
            <Time>2019-10-06T09:06:34.000Z</Time>
            <Position>
              <LatitudeDegrees>41.411239206790924072265625</LatitudeDegrees>
              <LongitudeDegrees>-5.719524063169956207275390625</LongitudeDegrees>
            </Position>
            <AltitudeMeters>725.4000244140625</AltitudeMeters>
            <DistanceMeters>NAN</DistanceMeters>
          </Trackpoint>
          <Trackpoint>
            <Time>2019-10-06T09:06:37.000Z</Time>
            <Position>
              <LatitudeDegrees>41.41110233031213283538818359375</LatitudeDegrees>
              <LongitudeDegrees>-5.719477795064449310302734375</LongitudeDegrees>
            </Position>
            <AltitudeMeters>726.4000244140625</AltitudeMeters>
            <DistanceMeters>NAN</DistanceMeters>
          </Trackpoint>
          <Trackpoint>
            <Time>2019-10-06T09:06:43.000Z</Time>
            <Position>
              <LatitudeDegrees>41.41082958318293094635009765625</LatitudeDegrees>
              <LongitudeDegrees>-5.71938148699700832366943359375</LongitudeDegrees>
            </Position>
            <AltitudeMeters>726.5999755859375</AltitudeMeters>
            <DistanceMeters>NAN</DistanceMeters>
          </Trackpoint>
          <Trackpoint>
            <Time>2019-10-06T09:06:51.000Z</Time>
            <Position>
              <LatitudeDegrees>41.4104761183261871337890625</LatitudeDegrees>
              <LongitudeDegrees>-5.7192553393542766571044921875</LongitudeDegrees>
            </Position>
            <AltitudeMeters>727.5999755859375</AltitudeMeters>
            <DistanceMeters>NAN</DistanceMeters>
          </Trackpoint>
          <Trackpoint>
            <Time>2019-10-06T09:06:52.000Z</Time>
            <Position>
              <LatitudeDegrees>41.4104353822767734527587890625</LatitudeDegrees>
              <LongitudeDegrees>-5.7192385755479335784912109375</LongitudeDegrees>
            </Position>
            <AltitudeMeters>727.5999755859375</AltitudeMeters>
            <DistanceMeters>NAN</DistanceMeters>
          </Trackpoint>
          <Trackpoint>
            <Time>2019-10-06T09:06:58.000Z</Time>
            <Position>
              <LatitudeDegrees>41.4101757109165191650390625</LatitudeDegrees>
              <LongitudeDegrees>-5.7191493920981884002685546875</LongitudeDegrees>
            </Position>
            <AltitudeMeters>729</AltitudeMeters>
            <DistanceMeters>NAN</DistanceMeters>
          </Trackpoint>
          <Trackpoint>
            <Time>2019-10-06T09:07:01.000Z</Time>
            <Position>
              <LatitudeDegrees>41.41004570759832859039306640625</LatitudeDegrees>
              <LongitudeDegrees>-5.71910371072590351104736328125</LongitudeDegrees>
            </Position>
            <AltitudeMeters>729.4000244140625</AltitudeMeters>
            <DistanceMeters>NAN</DistanceMeters>
          </Trackpoint>
          <Trackpoint>
            <Time>2019-10-06T09:07:05.000Z</Time>
            <Position>
              <LatitudeDegrees>41.4098737947642803192138671875</LatitudeDegrees>
              <LongitudeDegrees>-5.71904470212757587432861328125</LongitudeDegrees>
            </Position>
            <AltitudeMeters>730.20001220703125</AltitudeMeters>
            <DistanceMeters>NAN</DistanceMeters>
          </Trackpoint>
          <Trackpoint>
            <Time>2019-10-06T09:07:10.000Z</Time>
            <Position>
              <LatitudeDegrees>41.40966332517564296722412109375</LatitudeDegrees>
              <LongitudeDegrees>-5.7189725339412689208984375</LongitudeDegrees>
            </Position>
            <AltitudeMeters>731.20001220703125</AltitudeMeters>
            <DistanceMeters>NAN</DistanceMeters>
          </Trackpoint>
          <Trackpoint>
            <Time>2019-10-06T09:07:16.000Z</Time>
            <Position>
              <LatitudeDegrees>41.40941136516630649566650390625</LatitudeDegrees>
              <LongitudeDegrees>-5.71888913400471210479736328125</LongitudeDegrees>
            </Position>
            <AltitudeMeters>732</AltitudeMeters>
            <DistanceMeters>NAN</DistanceMeters>
          </Trackpoint>
          <Trackpoint>
            <Time>2019-10-06T09:07:17.000Z</Time>
            <Position>
              <LatitudeDegrees>41.4093710482120513916015625</LatitudeDegrees>
              <LongitudeDegrees>-5.718877315521240234375</LongitudeDegrees>
            </Position>
            <AltitudeMeters>732.4000244140625</AltitudeMeters>
            <DistanceMeters>NAN</DistanceMeters>
          </Trackpoint>
          <Trackpoint>
            <Time>2019-10-06T09:07:18.000Z</Time>
            <Position>
              <LatitudeDegrees>41.40932905487716197967529296875</LatitudeDegrees>
              <LongitudeDegrees>-5.71886231191456317901611328125</LongitudeDegrees>
            </Position>
            <AltitudeMeters>732.79998779296875</AltitudeMeters>
            <DistanceMeters>NAN</DistanceMeters>
          </Trackpoint>
          <Trackpoint>
            <Time>2019-10-06T09:07:22.000Z</Time>
            <Position>
              <LatitudeDegrees>41.4091650210320949554443359375</LatitudeDegrees>
              <LongitudeDegrees>-5.71880145929753780364990234375</LongitudeDegrees>
            </Position>
            <AltitudeMeters>733.4000244140625</AltitudeMeters>
            <DistanceMeters>NAN</DistanceMeters>
          </Trackpoint>
          <Trackpoint>
            <Time>2019-10-06T09:07:29.000Z</Time>
            <Position>
              <LatitudeDegrees>41.408877857029438018798828125</LatitudeDegrees>
              <LongitudeDegrees>-5.7186967693269252777099609375</LongitudeDegrees>
            </Position>
            <AltitudeMeters>733.4000244140625</AltitudeMeters>
            <DistanceMeters>NAN</DistanceMeters>
          </Trackpoint>
          <Trackpoint>
            <Time>2019-10-06T09:07:40.000Z</Time>
            <Position>
              <LatitudeDegrees>41.408409141004085540771484375</LatitudeDegrees>
              <LongitudeDegrees>-5.7185311429202556610107421875</LongitudeDegrees>
            </Position>
            <AltitudeMeters>733.5999755859375</AltitudeMeters>
            <DistanceMeters>NAN</DistanceMeters>
          </Trackpoint>
          <Trackpoint>
            <Time>2019-10-06T09:07:47.000Z</Time>
            <Position>
              <LatitudeDegrees>41.40806439332664012908935546875</LatitudeDegrees>
              <LongitudeDegrees>-5.71841572411358356475830078125</LongitudeDegrees>
            </Position>
            <AltitudeMeters>733.20001220703125</AltitudeMeters>
            <DistanceMeters>NAN</DistanceMeters>
          </Trackpoint>
          <Trackpoint>
            <Time>2019-10-06T09:07:48.000Z</Time>
            <Position>
              <LatitudeDegrees>41.408012844622135162353515625</LatitudeDegrees>
              <LongitudeDegrees>-5.71839728392660617828369140625</LongitudeDegrees>
            </Position>
            <AltitudeMeters>732.79998779296875</AltitudeMeters>
            <DistanceMeters>NAN</DistanceMeters>
          </Trackpoint>
          <Trackpoint>
            <Time>2019-10-06T09:07:54.000Z</Time>
            <Position>
              <LatitudeDegrees>41.40769089572131633758544921875</LatitudeDegrees>
              <LongitudeDegrees>-5.71828429587185382843017578125</LongitudeDegrees>
            </Position>
            <AltitudeMeters>732.20001220703125</AltitudeMeters>
            <DistanceMeters>NAN</DistanceMeters>
          </Trackpoint>
          <Trackpoint>
            <Time>2019-10-06T09:07:58.000Z</Time>
            <Position>
              <LatitudeDegrees>41.4074765704572200775146484375</LatitudeDegrees>
              <LongitudeDegrees>-5.71820936165750026702880859375</LongitudeDegrees>
            </Position>
            <AltitudeMeters>732.5999755859375</AltitudeMeters>
            <DistanceMeters>NAN</DistanceMeters>
          </Trackpoint>
          <Trackpoint>
            <Time>2019-10-06T09:08:02.000Z</Time>
            <Position>
              <LatitudeDegrees>41.4072703756392002105712890625</LatitudeDegrees>
              <LongitudeDegrees>-5.7181381992995738983154296875</LongitudeDegrees>
            </Position>
            <AltitudeMeters>733.20001220703125</AltitudeMeters>
            <DistanceMeters>NAN</DistanceMeters>
          </Trackpoint>
          <Trackpoint>
            <Time>2019-10-06T09:08:04.000Z</Time>
            <Position>
              <LatitudeDegrees>41.40716954134404659271240234375</LatitudeDegrees>
              <LongitudeDegrees>-5.71810408495366573333740234375</LongitudeDegrees>
            </Position>
            <AltitudeMeters>733.20001220703125</AltitudeMeters>
            <DistanceMeters>NAN</DistanceMeters>
          </Trackpoint>
          <Trackpoint>
            <Time>2019-10-06T09:08:09.000Z</Time>
            <Position>
              <LatitudeDegrees>41.40693099237978458404541015625</LatitudeDegrees>
              <LongitudeDegrees>-5.718021355569362640380859375</LongitudeDegrees>
            </Position>
            <AltitudeMeters>733.4000244140625</AltitudeMeters>
            <DistanceMeters>NAN</DistanceMeters>
          </Trackpoint>
          <Trackpoint>
            <Time>2019-10-06T09:08:17.000Z</Time>
            <Position>
              <LatitudeDegrees>41.406577527523040771484375</LatitudeDegrees>
              <LongitudeDegrees>-5.717897303402423858642578125</LongitudeDegrees>
            </Position>
            <AltitudeMeters>734.4000244140625</AltitudeMeters>
            <DistanceMeters>NAN</DistanceMeters>
          </Trackpoint>
          <Trackpoint>
            <Time>2019-10-06T09:08:18.000Z</Time>
            <Position>
              <LatitudeDegrees>41.406532935798168182373046875</LatitudeDegrees>
              <LongitudeDegrees>-5.71788288652896881103515625</LongitudeDegrees>
            </Position>
            <AltitudeMeters>734.5999755859375</AltitudeMeters>
            <DistanceMeters>NAN</DistanceMeters>
          </Trackpoint>
          <Trackpoint>
            <Time>2019-10-06T09:08:23.000Z</Time>
            <Position>
              <LatitudeDegrees>41.4063160121440887451171875</LatitudeDegrees>
              <LongitudeDegrees>-5.71780334226787090301513671875</LongitudeDegrees>
            </Position>
            <AltitudeMeters>735.4000244140625</AltitudeMeters>
            <DistanceMeters>NAN</DistanceMeters>
          </Trackpoint>
          <Trackpoint>
            <Time>2019-10-06T09:08:28.000Z</Time>
            <Position>
              <LatitudeDegrees>41.406102441251277923583984375</LatitudeDegrees>
              <LongitudeDegrees>-5.7177351973950862884521484375</LongitudeDegrees>
            </Position>
            <AltitudeMeters>735.5999755859375</AltitudeMeters>
            <DistanceMeters>NAN</DistanceMeters>
          </Trackpoint>
          <Trackpoint>
            <Time>2019-10-06T09:08:36.000Z</Time>
            <Position>
              <LatitudeDegrees>41.40575165860354900360107421875</LatitudeDegrees>
              <LongitudeDegrees>-5.71762514300644397735595703125</LongitudeDegrees>
            </Position>
            <AltitudeMeters>736.4000244140625</AltitudeMeters>
            <DistanceMeters>NAN</DistanceMeters>
          </Trackpoint>
          <Trackpoint>
            <Time>2019-10-06T09:08:38.000Z</Time>
            <Position>
              <LatitudeDegrees>41.4056633971631526947021484375</LatitudeDegrees>
              <LongitudeDegrees>-5.7175994105637073516845703125</LongitudeDegrees>
            </Position>
            <AltitudeMeters>736.20001220703125</AltitudeMeters>
            <DistanceMeters>NAN</DistanceMeters>
          </Trackpoint>
          <Trackpoint>
            <Time>2019-10-06T09:08:49.000Z</Time>
            <Position>
              <LatitudeDegrees>41.4051653444766998291015625</LatitudeDegrees>
              <LongitudeDegrees>-5.7174642942845821380615234375</LongitudeDegrees>
            </Position>
            <AltitudeMeters>736.5999755859375</AltitudeMeters>
            <DistanceMeters>NAN</DistanceMeters>
          </Trackpoint>
          <Trackpoint>
            <Time>2019-10-06T09:08:56.000Z</Time>
            <Position>
              <LatitudeDegrees>41.40485261566936969757080078125</LatitudeDegrees>
              <LongitudeDegrees>-5.71739531122148036956787109375</LongitudeDegrees>
            </Position>
            <AltitudeMeters>737</AltitudeMeters>
            <DistanceMeters>NAN</DistanceMeters>
          </Trackpoint>
          <Trackpoint>
            <Time>2019-10-06T09:08:57.000Z</Time>
            <Position>
              <LatitudeDegrees>41.40480986796319484710693359375</LatitudeDegrees>
              <LongitudeDegrees>-5.71738860569894313812255859375</LongitudeDegrees>
            </Position>
            <AltitudeMeters>737</AltitudeMeters>
            <DistanceMeters>NAN</DistanceMeters>
          </Trackpoint>
          <Trackpoint>
            <Time>2019-10-06T09:09:03.000Z</Time>
            <Position>
              <LatitudeDegrees>41.40455983579158782958984375</LatitudeDegrees>
              <LongitudeDegrees>-5.71734954603016376495361328125</LongitudeDegrees>
            </Position>
            <AltitudeMeters>736.79998779296875</AltitudeMeters>
            <DistanceMeters>NAN</DistanceMeters>
          </Trackpoint>
          <Trackpoint>
            <Time>2019-10-06T09:09:05.000Z</Time>
            <Position>
              <LatitudeDegrees>41.4044755138456821441650390625</LatitudeDegrees>
              <LongitudeDegrees>-5.71733772754669189453125</LongitudeDegrees>
            </Position>
            <AltitudeMeters>737</AltitudeMeters>
            <DistanceMeters>NAN</DistanceMeters>
          </Trackpoint>
          <Trackpoint>
            <Time>2019-10-06T09:09:13.000Z</Time>
            <Position>
              <LatitudeDegrees>41.404117606580257415771484375</LatitudeDegrees>
              <LongitudeDegrees>-5.71729875169694423675537109375</LongitudeDegrees>
            </Position>
            <AltitudeMeters>736.5999755859375</AltitudeMeters>
            <DistanceMeters>NAN</DistanceMeters>
          </Trackpoint>
          <Trackpoint>
            <Time>2019-10-06T09:09:14.000Z</Time>
            <Position>
              <LatitudeDegrees>41.4040731824934482574462890625</LatitudeDegrees>
              <LongitudeDegrees>-5.717295818030834197998046875</LongitudeDegrees>
            </Position>
            <AltitudeMeters>736.5999755859375</AltitudeMeters>
            <DistanceMeters>NAN</DistanceMeters>
          </Trackpoint>
          <Trackpoint>
            <Time>2019-10-06T09:09:17.000Z</Time>
            <Position>
              <LatitudeDegrees>41.40393664129078388214111328125</LatitudeDegrees>
              <LongitudeDegrees>-5.7172862626612186431884765625</LongitudeDegrees>
            </Position>
            <AltitudeMeters>736</AltitudeMeters>
            <DistanceMeters>NAN</DistanceMeters>
          </Trackpoint>
          <Trackpoint>
            <Time>2019-10-06T09:09:20.000Z</Time>
            <Position>
              <LatitudeDegrees>41.4037974178791046142578125</LatitudeDegrees>
              <LongitudeDegrees>-5.71727930568158626556396484375</LongitudeDegrees>
            </Position>
            <AltitudeMeters>735.79998779296875</AltitudeMeters>
            <DistanceMeters>NAN</DistanceMeters>
          </Trackpoint>
          <Trackpoint>
            <Time>2019-10-06T09:09:22.000Z</Time>
            <Position>
              <LatitudeDegrees>41.40370446257293224334716796875</LatitudeDegrees>
              <LongitudeDegrees>-5.71727662347257137298583984375</LongitudeDegrees>
            </Position>
            <AltitudeMeters>735.5999755859375</AltitudeMeters>
            <DistanceMeters>NAN</DistanceMeters>
          </Trackpoint>
          <Trackpoint>
            <Time>2019-10-06T09:09:24.000Z</Time>
            <Position>
              <LatitudeDegrees>41.403608657419681549072265625</LatitudeDegrees>
              <LongitudeDegrees>-5.71727545000612735748291015625</LongitudeDegrees>
            </Position>
            <AltitudeMeters>735.5999755859375</AltitudeMeters>
            <DistanceMeters>NAN</DistanceMeters>
          </Trackpoint>
          <Trackpoint>
            <Time>2019-10-06T09:09:26.000Z</Time>
            <Position>
              <LatitudeDegrees>41.40350966714322566986083984375</LatitudeDegrees>
              <LongitudeDegrees>-5.71727612055838108062744140625</LongitudeDegrees>
            </Position>
            <AltitudeMeters>735.20001220703125</AltitudeMeters>
            <DistanceMeters>NAN</DistanceMeters>
          </Trackpoint>
          <Trackpoint>
            <Time>2019-10-06T09:09:31.000Z</Time>
            <Position>
              <LatitudeDegrees>41.40325318090617656707763671875</LatitudeDegrees>
              <LongitudeDegrees>-5.71727528236806392669677734375</LongitudeDegrees>
            </Position>
            <AltitudeMeters>734</AltitudeMeters>
            <DistanceMeters>NAN</DistanceMeters>
          </Trackpoint>
          <Trackpoint>
            <Time>2019-10-06T09:09:33.000Z</Time>
            <Position>
              <LatitudeDegrees>41.40314823947846889495849609375</LatitudeDegrees>
              <LongitudeDegrees>-5.71727938950061798095703125</LongitudeDegrees>
            </Position>
            <AltitudeMeters>734</AltitudeMeters>
            <DistanceMeters>NAN</DistanceMeters>
          </Trackpoint>
          <Trackpoint>
            <Time>2019-10-06T09:09:39.000Z</Time>
            <Position>
              <LatitudeDegrees>41.40280759893357753753662109375</LatitudeDegrees>
              <LongitudeDegrees>-5.71728819049894809722900390625</LongitudeDegrees>
            </Position>
            <AltitudeMeters>733</AltitudeMeters>
            <DistanceMeters>NAN</DistanceMeters>
          </Trackpoint>
          <Trackpoint>
            <Time>2019-10-06T09:09:42.000Z</Time>
            <Position>
              <LatitudeDegrees>41.40262319706380367279052734375</LatitudeDegrees>
              <LongitudeDegrees>-5.717297494411468505859375</LongitudeDegrees>
            </Position>
            <AltitudeMeters>732.20001220703125</AltitudeMeters>
            <DistanceMeters>NAN</DistanceMeters>
          </Trackpoint>
          <Trackpoint>
            <Time>2019-10-06T09:09:43.000Z</Time>
            <Position>
              <LatitudeDegrees>41.40256066806614398956298828125</LatitudeDegrees>
              <LongitudeDegrees>-5.71730210445821285247802734375</LongitudeDegrees>
            </Position>
            <AltitudeMeters>731.79998779296875</AltitudeMeters>
            <DistanceMeters>NAN</DistanceMeters>
          </Trackpoint>
          <Trackpoint>
            <Time>2019-10-06T09:09:48.000Z</Time>
            <Position>
              <LatitudeDegrees>41.40223260037600994110107421875</LatitudeDegrees>
              <LongitudeDegrees>-5.71730621159076690673828125</LongitudeDegrees>
            </Position>
            <AltitudeMeters>731</AltitudeMeters>
            <DistanceMeters>NAN</DistanceMeters>
          </Trackpoint>
          <Trackpoint>
            <Time>2019-10-06T09:09:50.000Z</Time>
            <Position>
              <LatitudeDegrees>41.4020960591733455657958984375</LatitudeDegrees>
              <LongitudeDegrees>-5.71729489602148532867431640625</LongitudeDegrees>
            </Position>
            <AltitudeMeters>730.79998779296875</AltitudeMeters>
            <DistanceMeters>NAN</DistanceMeters>
          </Trackpoint>
          <Trackpoint>
            <Time>2019-10-06T09:09:51.000Z</Time>
            <Position>
              <LatitudeDegrees>41.4020263217389583587646484375</LatitudeDegrees>
              <LongitudeDegrees>-5.71728684939444065093994140625</LongitudeDegrees>
            </Position>
            <AltitudeMeters>730.4000244140625</AltitudeMeters>
            <DistanceMeters>NAN</DistanceMeters>
          </Trackpoint>
          <Trackpoint>
            <Time>2019-10-06T09:09:54.000Z</Time>
            <Position>
              <LatitudeDegrees>41.40181325376033782958984375</LatitudeDegrees>
              <LongitudeDegrees>-5.71725214831531047821044921875</LongitudeDegrees>
            </Position>
            <AltitudeMeters>729.5999755859375</AltitudeMeters>
            <DistanceMeters>NAN</DistanceMeters>
          </Trackpoint>
          <Trackpoint>
            <Time>2019-10-06T09:09:57.000Z</Time>
            <Position>
              <LatitudeDegrees>41.401591636240482330322265625</LatitudeDegrees>
              <LongitudeDegrees>-5.71721057407557964324951171875</LongitudeDegrees>
            </Position>
            <AltitudeMeters>728.20001220703125</AltitudeMeters>
            <DistanceMeters>NAN</DistanceMeters>
          </Trackpoint>
          <Trackpoint>
            <Time>2019-10-06T09:09:58.000Z</Time>
            <Position>
              <LatitudeDegrees>41.40151846222579479217529296875</LatitudeDegrees>
              <LongitudeDegrees>-5.7171923853456974029541015625</LongitudeDegrees>
            </Position>
            <AltitudeMeters>728.20001220703125</AltitudeMeters>
            <DistanceMeters>NAN</DistanceMeters>
          </Trackpoint>
          <Trackpoint>
            <Time>2019-10-06T09:10:05.000Z</Time>
            <Position>
              <LatitudeDegrees>41.401029042899608612060546875</LatitudeDegrees>
              <LongitudeDegrees>-5.71712340228259563446044921875</LongitudeDegrees>
            </Position>
            <AltitudeMeters>728.4000244140625</AltitudeMeters>
            <DistanceMeters>NAN</DistanceMeters>
          </Trackpoint>
          <Trackpoint>
            <Time>2019-10-06T09:10:07.000Z</Time>
            <Position>
              <LatitudeDegrees>41.4009158872067928314208984375</LatitudeDegrees>
              <LongitudeDegrees>-5.7171799801290035247802734375</LongitudeDegrees>
            </Position>
            <AltitudeMeters>728.5999755859375</AltitudeMeters>
            <DistanceMeters>NAN</DistanceMeters>
          </Trackpoint>
          <Trackpoint>
            <Time>2019-10-06T09:10:08.000Z</Time>
            <Position>
              <LatitudeDegrees>41.400875151157379150390625</LatitudeDegrees>
              <LongitudeDegrees>-5.7172383181750774383544921875</LongitudeDegrees>
            </Position>
            <AltitudeMeters>728.5999755859375</AltitudeMeters>
            <DistanceMeters>NAN</DistanceMeters>
          </Trackpoint>
          <Trackpoint>
            <Time>2019-10-06T09:10:11.000Z</Time>
            <Position>
              <LatitudeDegrees>41.4008067548274993896484375</LatitudeDegrees>
              <LongitudeDegrees>-5.71744996123015880584716796875</LongitudeDegrees>
            </Position>
            <AltitudeMeters>728.79998779296875</AltitudeMeters>
            <DistanceMeters>NAN</DistanceMeters>
          </Trackpoint>
          <Trackpoint>
            <Time>2019-10-06T09:10:12.000Z</Time>
            <Position>
              <LatitudeDegrees>41.40080449171364307403564453125</LatitudeDegrees>
              <LongitudeDegrees>-5.71752556599676609039306640625</LongitudeDegrees>
            </Position>
            <AltitudeMeters>728.4000244140625</AltitudeMeters>
            <DistanceMeters>NAN</DistanceMeters>
          </Trackpoint>
          <Trackpoint>
            <Time>2019-10-06T09:10:13.000Z</Time>
            <Position>
              <LatitudeDegrees>41.4008049108088016510009765625</LatitudeDegrees>
              <LongitudeDegrees>-5.71760184131562709808349609375</LongitudeDegrees>
            </Position>
            <AltitudeMeters>728.20001220703125</AltitudeMeters>
            <DistanceMeters>NAN</DistanceMeters>
          </Trackpoint>
          <Trackpoint>
            <Time>2019-10-06T09:10:16.000Z</Time>
            <Position>
              <LatitudeDegrees>41.40081354416906833648681640625</LatitudeDegrees>
              <LongitudeDegrees>-5.71781038306653499603271484375</LongitudeDegrees>
            </Position>
            <AltitudeMeters>728.20001220703125</AltitudeMeters>
            <DistanceMeters>NAN</DistanceMeters>
          </Trackpoint>
          <Trackpoint>
            <Time>2019-10-06T09:10:18.000Z</Time>
            <Position>
              <LatitudeDegrees>41.4008230157196521759033203125</LatitudeDegrees>
              <LongitudeDegrees>-5.71794097311794757843017578125</LongitudeDegrees>
            </Position>
            <AltitudeMeters>728.5999755859375</AltitudeMeters>
            <DistanceMeters>NAN</DistanceMeters>
          </Trackpoint>
          <Trackpoint>
            <Time>2019-10-06T09:10:19.000Z</Time>
            <Position>
              <LatitudeDegrees>41.40082611702382564544677734375</LatitudeDegrees>
              <LongitudeDegrees>-5.71800098754465579986572265625</LongitudeDegrees>
            </Position>
            <AltitudeMeters>729.4000244140625</AltitudeMeters>
            <DistanceMeters>NAN</DistanceMeters>
          </Trackpoint>
          <Trackpoint>
            <Time>2019-10-06T09:10:21.000Z</Time>
            <Position>
              <LatitudeDegrees>41.40082946978509426116943359375</LatitudeDegrees>
              <LongitudeDegrees>-5.71811221539974212646484375</LongitudeDegrees>
            </Position>
            <AltitudeMeters>730</AltitudeMeters>
            <DistanceMeters>NAN</DistanceMeters>
          </Trackpoint>
          <Trackpoint>
            <Time>2019-10-06T09:10:24.000Z</Time>
            <Position>
              <LatitudeDegrees>41.40084497630596160888671875</LatitudeDegrees>
              <LongitudeDegrees>-5.71827323175966739654541015625</LongitudeDegrees>
            </Position>
            <AltitudeMeters>730.4000244140625</AltitudeMeters>
            <DistanceMeters>NAN</DistanceMeters>
          </Trackpoint>
          <Trackpoint>
            <Time>2019-10-06T09:10:27.000Z</Time>
            <Position>
              <LatitudeDegrees>41.40087288804352283477783203125</LatitudeDegrees>
              <LongitudeDegrees>-5.718433074653148651123046875</LongitudeDegrees>
            </Position>
            <AltitudeMeters>731.20001220703125</AltitudeMeters>
            <DistanceMeters>NAN</DistanceMeters>
          </Trackpoint>
          <Trackpoint>
            <Time>2019-10-06T09:10:28.000Z</Time>
            <Position>
              <LatitudeDegrees>41.4008840359747409820556640625</LatitudeDegrees>
              <LongitudeDegrees>-5.7184852100908756256103515625</LongitudeDegrees>
            </Position>
            <AltitudeMeters>731.4000244140625</AltitudeMeters>
            <DistanceMeters>NAN</DistanceMeters>
          </Trackpoint>
          <Trackpoint>
            <Time>2019-10-06T09:10:29.000Z</Time>
            <Position>
              <LatitudeDegrees>41.4009048230946063995361328125</LatitudeDegrees>
              <LongitudeDegrees>-5.718531310558319091796875</LongitudeDegrees>
            </Position>
            <AltitudeMeters>731.5999755859375</AltitudeMeters>
            <DistanceMeters>NAN</DistanceMeters>
          </Trackpoint>
          <Trackpoint>
            <Time>2019-10-06T09:10:30.000Z</Time>
            <Position>
              <LatitudeDegrees>41.40092954970896244049072265625</LatitudeDegrees>
              <LongitudeDegrees>-5.71857850067317485809326171875</LongitudeDegrees>
            </Position>
            <AltitudeMeters>731.79998779296875</AltitudeMeters>
            <DistanceMeters>NAN</DistanceMeters>
          </Trackpoint>
          <Trackpoint>
            <Time>2019-10-06T09:10:31.000Z</Time>
            <Position>
              <LatitudeDegrees>41.400947235524654388427734375</LatitudeDegrees>
              <LongitudeDegrees>-5.7186283729970455169677734375</LongitudeDegrees>
            </Position>
            <AltitudeMeters>731.5999755859375</AltitudeMeters>
            <DistanceMeters>NAN</DistanceMeters>
          </Trackpoint>
          <Trackpoint>
            <Time>2019-10-06T09:10:34.000Z</Time>
            <Position>
              <LatitudeDegrees>41.4009370096027851104736328125</LatitudeDegrees>
              <LongitudeDegrees>-5.71879022754728794097900390625</LongitudeDegrees>
            </Position>
            <AltitudeMeters>731.79998779296875</AltitudeMeters>
            <DistanceMeters>NAN</DistanceMeters>
          </Trackpoint>
          <Trackpoint>
            <Time>2019-10-06T09:10:37.000Z</Time>
            <Position>
              <LatitudeDegrees>41.40083014033734798431396484375</LatitudeDegrees>
              <LongitudeDegrees>-5.7188764773309230804443359375</LongitudeDegrees>
            </Position>
            <AltitudeMeters>732</AltitudeMeters>
            <DistanceMeters>NAN</DistanceMeters>
          </Trackpoint>
          <Trackpoint>
            <Time>2019-10-06T09:10:41.000Z</Time>
            <Position>
              <LatitudeDegrees>41.40064389444887638092041015625</LatitudeDegrees>
              <LongitudeDegrees>-5.71882509626448154449462890625</LongitudeDegrees>
            </Position>
            <AltitudeMeters>732.20001220703125</AltitudeMeters>
            <DistanceMeters>NAN</DistanceMeters>
          </Trackpoint>
          <Trackpoint>
            <Time>2019-10-06T09:10:44.000Z</Time>
            <Position>
              <LatitudeDegrees>41.40050911344587802886962890625</LatitudeDegrees>
              <LongitudeDegrees>-5.71877983398735523223876953125</LongitudeDegrees>
            </Position>
            <AltitudeMeters>732.20001220703125</AltitudeMeters>
            <DistanceMeters>NAN</DistanceMeters>
          </Trackpoint>
          <Trackpoint>
            <Time>2019-10-06T09:10:47.000Z</Time>
            <Position>
              <LatitudeDegrees>41.4003829658031463623046875</LatitudeDegrees>
              <LongitudeDegrees>-5.71873490698635578155517578125</LongitudeDegrees>
            </Position>
            <AltitudeMeters>732.79998779296875</AltitudeMeters>
            <DistanceMeters>NAN</DistanceMeters>
          </Trackpoint>
          <Trackpoint>
            <Time>2019-10-06T09:10:51.000Z</Time>
            <Position>
              <LatitudeDegrees>41.40022697858512401580810546875</LatitudeDegrees>
              <LongitudeDegrees>-5.7186823524534702301025390625</LongitudeDegrees>
            </Position>
            <AltitudeMeters>733.79998779296875</AltitudeMeters>
            <DistanceMeters>NAN</DistanceMeters>
          </Trackpoint>
          <Trackpoint>
            <Time>2019-10-06T09:10:55.000Z</Time>
            <Position>
              <LatitudeDegrees>41.40007384121417999267578125</LatitudeDegrees>
              <LongitudeDegrees>-5.718642957508563995361328125</LongitudeDegrees>
            </Position>
            <AltitudeMeters>734.4000244140625</AltitudeMeters>
            <DistanceMeters>NAN</DistanceMeters>
          </Trackpoint>
          <Trackpoint>
            <Time>2019-10-06T09:10:58.000Z</Time>
            <Position>
              <LatitudeDegrees>41.3999511301517486572265625</LatitudeDegrees>
              <LongitudeDegrees>-5.71861705742776393890380859375</LongitudeDegrees>
            </Position>
            <AltitudeMeters>734.79998779296875</AltitudeMeters>
            <DistanceMeters>NAN</DistanceMeters>
          </Trackpoint>
          <Trackpoint>
            <Time>2019-10-06T09:11:02.000Z</Time>
            <Position>
              <LatitudeDegrees>41.39977033250033855438232421875</LatitudeDegrees>
              <LongitudeDegrees>-5.7186193205416202545166015625</LongitudeDegrees>
            </Position>
            <AltitudeMeters>735</AltitudeMeters>
            <DistanceMeters>NAN</DistanceMeters>
          </Trackpoint>
          <Trackpoint>
            <Time>2019-10-06T09:11:13.000Z</Time>
            <Position>
              <LatitudeDegrees>41.39927395619451999664306640625</LatitudeDegrees>
              <LongitudeDegrees>-5.71865729056298732757568359375</LongitudeDegrees>
            </Position>
            <AltitudeMeters>736</AltitudeMeters>
            <DistanceMeters>NAN</DistanceMeters>
          </Trackpoint>
          <Trackpoint>
            <Time>2019-10-06T09:11:14.000Z</Time>
            <Position>
              <LatitudeDegrees>41.39922785572707653045654296875</LatitudeDegrees>
              <LongitudeDegrees>-5.718660056591033935546875</LongitudeDegrees>
            </Position>
            <AltitudeMeters>736.20001220703125</AltitudeMeters>
            <DistanceMeters>NAN</DistanceMeters>
          </Trackpoint>
          <Trackpoint>
            <Time>2019-10-06T09:11:25.000Z</Time>
            <Position>
              <LatitudeDegrees>41.3987295515835285186767578125</LatitudeDegrees>
              <LongitudeDegrees>-5.71869559586048126220703125</LongitudeDegrees>
            </Position>
            <AltitudeMeters>736.79998779296875</AltitudeMeters>
            <DistanceMeters>NAN</DistanceMeters>
          </Trackpoint>
          <Trackpoint>
            <Time>2019-10-06T09:11:27.000Z</Time>
            <Position>
              <LatitudeDegrees>41.3986400328576564788818359375</LatitudeDegrees>
              <LongitudeDegrees>-5.71870028972625732421875</LongitudeDegrees>
            </Position>
            <AltitudeMeters>737.20001220703125</AltitudeMeters>
            <DistanceMeters>NAN</DistanceMeters>
          </Trackpoint>
          <Trackpoint>
            <Time>2019-10-06T09:11:35.000Z</Time>
            <Position>
              <LatitudeDegrees>41.39827885664999485015869140625</LatitudeDegrees>
              <LongitudeDegrees>-5.71873943321406841278076171875</LongitudeDegrees>
            </Position>
            <AltitudeMeters>737.20001220703125</AltitudeMeters>
            <DistanceMeters>NAN</DistanceMeters>
          </Trackpoint>
          <Trackpoint>
            <Time>2019-10-06T09:11:46.000Z</Time>
            <Position>
              <LatitudeDegrees>41.3977988250553607940673828125</LatitudeDegrees>
              <LongitudeDegrees>-5.71877731941640377044677734375</LongitudeDegrees>
            </Position>
            <AltitudeMeters>738</AltitudeMeters>
            <DistanceMeters>NAN</DistanceMeters>
          </Trackpoint>
          <Trackpoint>
            <Time>2019-10-06T09:11:49.000Z</Time>
            <Position>
              <LatitudeDegrees>41.3976627029478549957275390625</LatitudeDegrees>
              <LongitudeDegrees>-5.7187869586050510406494140625</LongitudeDegrees>
            </Position>
            <AltitudeMeters>738.20001220703125</AltitudeMeters>
            <DistanceMeters>NAN</DistanceMeters>
          </Trackpoint>
          <Trackpoint>
            <Time>2019-10-06T09:11:54.000Z</Time>
            <Position>
              <LatitudeDegrees>41.3974011875689029693603515625</LatitudeDegrees>
              <LongitudeDegrees>-5.7188070751726627349853515625</LongitudeDegrees>
            </Position>
            <AltitudeMeters>737.20001220703125</AltitudeMeters>
            <DistanceMeters>NAN</DistanceMeters>
          </Trackpoint>
          <Trackpoint>
            <Time>2019-10-06T09:11:55.000Z</Time>
            <Position>
              <LatitudeDegrees>41.39734863303601741790771484375</LatitudeDegrees>
              <LongitudeDegrees>-5.718811266124248504638671875</LongitudeDegrees>
            </Position>
            <AltitudeMeters>737</AltitudeMeters>
            <DistanceMeters>NAN</DistanceMeters>
          </Trackpoint>
          <Trackpoint>
            <Time>2019-10-06T09:12:02.000Z</Time>
            <Position>
              <LatitudeDegrees>41.39692752622067928314208984375</LatitudeDegrees>
              <LongitudeDegrees>-5.71884152479469776153564453125</LongitudeDegrees>
            </Position>
            <AltitudeMeters>736</AltitudeMeters>
            <DistanceMeters>NAN</DistanceMeters>
          </Trackpoint>
          <Trackpoint>
            <Time>2019-10-06T09:12:03.000Z</Time>
            <Position>
              <LatitudeDegrees>41.39686332084238529205322265625</LatitudeDegrees>
              <LongitudeDegrees>-5.7188456319272518157958984375</LongitudeDegrees>
            </Position>
            <AltitudeMeters>736</AltitudeMeters>
            <DistanceMeters>NAN</DistanceMeters>
          </Trackpoint>
          <Trackpoint>
            <Time>2019-10-06T09:12:06.000Z</Time>
            <Position>
              <LatitudeDegrees>41.39666617847979068756103515625</LatitudeDegrees>
              <LongitudeDegrees>-5.718858875334262847900390625</LongitudeDegrees>
            </Position>
            <AltitudeMeters>734.79998779296875</AltitudeMeters>
            <DistanceMeters>NAN</DistanceMeters>
          </Trackpoint>
          <Trackpoint>
            <Time>2019-10-06T09:12:10.000Z</Time>
            <Position>
              <LatitudeDegrees>41.3963923417031764984130859375</LatitudeDegrees>
              <LongitudeDegrees>-5.718874298036098480224609375</LongitudeDegrees>
            </Position>
            <AltitudeMeters>734.4000244140625</AltitudeMeters>
            <DistanceMeters>NAN</DistanceMeters>
          </Trackpoint>
          <Trackpoint>
            <Time>2019-10-06T09:12:13.000Z</Time>
            <Position>
              <LatitudeDegrees>41.396181620657444000244140625</LatitudeDegrees>
              <LongitudeDegrees>-5.71888980455696582794189453125</LongitudeDegrees>
            </Position>
            <AltitudeMeters>733.5999755859375</AltitudeMeters>
            <DistanceMeters>NAN</DistanceMeters>
          </Trackpoint>
          <Trackpoint>
            <Time>2019-10-06T09:12:19.000Z</Time>
            <Position>
              <LatitudeDegrees>41.39575758017599582672119140625</LatitudeDegrees>
              <LongitudeDegrees>-5.71892232634127140045166015625</LongitudeDegrees>
            </Position>
            <AltitudeMeters>732.5999755859375</AltitudeMeters>
            <DistanceMeters>NAN</DistanceMeters>
          </Trackpoint>
          <Trackpoint>
            <Time>2019-10-06T09:12:21.000Z</Time>
            <Position>
              <LatitudeDegrees>41.395618356764316558837890625</LatitudeDegrees>
              <LongitudeDegrees>-5.7189348153769969940185546875</LongitudeDegrees>
            </Position>
            <AltitudeMeters>732.20001220703125</AltitudeMeters>
            <DistanceMeters>NAN</DistanceMeters>
          </Trackpoint>
          <Trackpoint>
            <Time>2019-10-06T09:12:22.000Z</Time>
            <Position>
              <LatitudeDegrees>41.3955487869679927825927734375</LatitudeDegrees>
              <LongitudeDegrees>-5.71893967688083648681640625</LongitudeDegrees>
            </Position>
            <AltitudeMeters>731.79998779296875</AltitudeMeters>
            <DistanceMeters>NAN</DistanceMeters>
          </Trackpoint>
          <Trackpoint>
            <Time>2019-10-06T09:12:23.000Z</Time>
            <Position>
              <LatitudeDegrees>41.39548030681908130645751953125</LatitudeDegrees>
              <LongitudeDegrees>-5.71894596330821514129638671875</LongitudeDegrees>
            </Position>
            <AltitudeMeters>732</AltitudeMeters>
            <DistanceMeters>NAN</DistanceMeters>
          </Trackpoint>
          <Trackpoint>
            <Time>2019-10-06T09:12:25.000Z</Time>
            <Position>
              <LatitudeDegrees>41.3953457772731781005859375</LatitudeDegrees>
              <LongitudeDegrees>-5.718960799276828765869140625</LongitudeDegrees>
            </Position>
            <AltitudeMeters>732.20001220703125</AltitudeMeters>
            <DistanceMeters>NAN</DistanceMeters>
          </Trackpoint>
          <Trackpoint>
            <Time>2019-10-06T09:12:29.000Z</Time>
            <Position>
              <LatitudeDegrees>41.39509172178804874420166015625</LatitudeDegrees>
              <LongitudeDegrees>-5.7189814187586307525634765625</LongitudeDegrees>
            </Position>
            <AltitudeMeters>732.4000244140625</AltitudeMeters>
            <DistanceMeters>NAN</DistanceMeters>
          </Trackpoint>
          <Trackpoint>
            <Time>2019-10-06T09:12:32.000Z</Time>
            <Position>
              <LatitudeDegrees>41.394920647144317626953125</LatitudeDegrees>
              <LongitudeDegrees>-5.71899441070854663848876953125</LongitudeDegrees>
            </Position>
            <AltitudeMeters>733.4000244140625</AltitudeMeters>
            <DistanceMeters>NAN</DistanceMeters>
          </Trackpoint>
          <Trackpoint>
            <Time>2019-10-06T09:12:33.000Z</Time>
            <Position>
              <LatitudeDegrees>41.39486893080174922943115234375</LatitudeDegrees>
              <LongitudeDegrees>-5.71899734437465667724609375</LongitudeDegrees>
            </Position>
            <AltitudeMeters>733.5999755859375</AltitudeMeters>
            <DistanceMeters>NAN</DistanceMeters>
          </Trackpoint>
          <Trackpoint>
            <Time>2019-10-06T09:12:36.000Z</Time>
            <Position>
              <LatitudeDegrees>41.3947273604571819305419921875</LatitudeDegrees>
              <LongitudeDegrees>-5.719005726277828216552734375</LongitudeDegrees>
            </Position>
            <AltitudeMeters>734.5999755859375</AltitudeMeters>
            <DistanceMeters>NAN</DistanceMeters>
          </Trackpoint>
          <Trackpoint>
            <Time>2019-10-06T09:12:41.000Z</Time>
            <Position>
              <LatitudeDegrees>41.39451454393565654754638671875</LatitudeDegrees>
              <LongitudeDegrees>-5.71902684867382049560546875</LongitudeDegrees>
            </Position>
            <AltitudeMeters>734.79998779296875</AltitudeMeters>
            <DistanceMeters>NAN</DistanceMeters>
          </Trackpoint>
          <Trackpoint>
            <Time>2019-10-06T09:12:42.000Z</Time>
            <Position>
              <LatitudeDegrees>41.394473053514957427978515625</LatitudeDegrees>
              <LongitudeDegrees>-5.71903548203408718109130859375</LongitudeDegrees>
            </Position>
            <AltitudeMeters>735</AltitudeMeters>
            <DistanceMeters>NAN</DistanceMeters>
          </Trackpoint>
          <Trackpoint>
            <Time>2019-10-06T09:12:44.000Z</Time>
            <Position>
              <LatitudeDegrees>41.39439317397773265838623046875</LatitudeDegrees>
              <LongitudeDegrees>-5.71904302574694156646728515625</LongitudeDegrees>
            </Position>
            <AltitudeMeters>735.4000244140625</AltitudeMeters>
            <DistanceMeters>NAN</DistanceMeters>
          </Trackpoint>
          <Trackpoint>
            <Time>2019-10-06T09:12:48.000Z</Time>
            <Position>
              <LatitudeDegrees>41.3942361809313297271728515625</LatitudeDegrees>
              <LongitudeDegrees>-5.71905962191522121429443359375</LongitudeDegrees>
            </Position>
            <AltitudeMeters>736.20001220703125</AltitudeMeters>
            <DistanceMeters>NAN</DistanceMeters>
          </Trackpoint>
          <Trackpoint>
            <Time>2019-10-06T09:12:49.000Z</Time>
            <Position>
              <LatitudeDegrees>41.394196785986423492431640625</LatitudeDegrees>
              <LongitudeDegrees>-5.71906213648617267608642578125</LongitudeDegrees>
            </Position>
            <AltitudeMeters>736.20001220703125</AltitudeMeters>
            <DistanceMeters>NAN</DistanceMeters>
          </Trackpoint>
          <Trackpoint>
            <Time>2019-10-06T09:12:52.000Z</Time>
            <Position>
              <LatitudeDegrees>41.394078433513641357421875</LatitudeDegrees>
              <LongitudeDegrees>-5.71907605044543743133544921875</LongitudeDegrees>
            </Position>
            <AltitudeMeters>736.5999755859375</AltitudeMeters>
            <DistanceMeters>NAN</DistanceMeters>
          </Trackpoint>
          <Trackpoint>
            <Time>2019-10-06T09:12:56.000Z</Time>
            <Position>
              <LatitudeDegrees>41.39391758479177951812744140625</LatitudeDegrees>
              <LongitudeDegrees>-5.71909113787114620208740234375</LongitudeDegrees>
            </Position>
            <AltitudeMeters>736.5999755859375</AltitudeMeters>
            <DistanceMeters>NAN</DistanceMeters>
          </Trackpoint>
          <Trackpoint>
            <Time>2019-10-06T09:12:59.000Z</Time>
            <Position>
              <LatitudeDegrees>41.39379990287125110626220703125</LatitudeDegrees>
              <LongitudeDegrees>-5.71909658610820770263671875</LongitudeDegrees>
            </Position>
            <AltitudeMeters>737.5999755859375</AltitudeMeters>
            <DistanceMeters>NAN</DistanceMeters>
          </Trackpoint>
          <Trackpoint>
            <Time>2019-10-06T09:13:04.000Z</Time>
            <Position>
              <LatitudeDegrees>41.3935951329767704010009765625</LatitudeDegrees>
              <LongitudeDegrees>-5.7191135175526142120361328125</LongitudeDegrees>
            </Position>
            <AltitudeMeters>737.5999755859375</AltitudeMeters>
            <DistanceMeters>NAN</DistanceMeters>
          </Trackpoint>
          <Trackpoint>
            <Time>2019-10-06T09:13:05.000Z</Time>
            <Position>
              <LatitudeDegrees>41.39355313964188098907470703125</LatitudeDegrees>
              <LongitudeDegrees>-5.71912030689418315887451171875</LongitudeDegrees>
            </Position>
            <AltitudeMeters>737.5999755859375</AltitudeMeters>
            <DistanceMeters>NAN</DistanceMeters>
          </Trackpoint>
          <Trackpoint>
            <Time>2019-10-06T09:13:08.000Z</Time>
            <Position>
              <LatitudeDegrees>41.393429003655910491943359375</LatitudeDegrees>
              <LongitudeDegrees>-5.71913145482540130615234375</LongitudeDegrees>
            </Position>
            <AltitudeMeters>738.5999755859375</AltitudeMeters>
            <DistanceMeters>NAN</DistanceMeters>
          </Trackpoint>
          <Trackpoint>
            <Time>2019-10-06T09:13:14.000Z</Time>
            <Position>
              <LatitudeDegrees>41.39317193068563938140869140625</LatitudeDegrees>
              <LongitudeDegrees>-5.71913539431989192962646484375</LongitudeDegrees>
            </Position>
            <AltitudeMeters>738.79998779296875</AltitudeMeters>
            <DistanceMeters>NAN</DistanceMeters>
          </Trackpoint>
          <Trackpoint>
            <Time>2019-10-06T09:13:18.000Z</Time>
            <Position>
              <LatitudeDegrees>41.39300563372671604156494140625</LatitudeDegrees>
              <LongitudeDegrees>-5.71913539431989192962646484375</LongitudeDegrees>
            </Position>
            <AltitudeMeters>739.5999755859375</AltitudeMeters>
            <DistanceMeters>NAN</DistanceMeters>
          </Trackpoint>
          <Trackpoint>
            <Time>2019-10-06T09:13:26.000Z</Time>
            <Position>
              <LatitudeDegrees>41.39267303980886936187744140625</LatitudeDegrees>
              <LongitudeDegrees>-5.71910337544977664947509765625</LongitudeDegrees>
            </Position>
            <AltitudeMeters>740.4000244140625</AltitudeMeters>
            <DistanceMeters>NAN</DistanceMeters>
          </Trackpoint>
          <Trackpoint>
            <Time>2019-10-06T09:13:33.000Z</Time>
            <Position>
              <LatitudeDegrees>41.39238436706364154815673828125</LatitudeDegrees>
              <LongitudeDegrees>-5.71906046010553836822509765625</LongitudeDegrees>
            </Position>
            <AltitudeMeters>740.5999755859375</AltitudeMeters>
            <DistanceMeters>NAN</DistanceMeters>
          </Trackpoint>
          <Trackpoint>
            <Time>2019-10-06T09:13:34.000Z</Time>
            <Position>
              <LatitudeDegrees>41.3923442177474498748779296875</LatitudeDegrees>
              <LongitudeDegrees>-5.71905090473592281341552734375</LongitudeDegrees>
            </Position>
            <AltitudeMeters>740.4000244140625</AltitudeMeters>
            <DistanceMeters>NAN</DistanceMeters>
          </Trackpoint>
          <Trackpoint>
            <Time>2019-10-06T09:13:40.000Z</Time>
            <Position>
              <LatitudeDegrees>41.39209653250873088836669921875</LatitudeDegrees>
              <LongitudeDegrees>-5.71898703463375568389892578125</LongitudeDegrees>
            </Position>
            <AltitudeMeters>741.79998779296875</AltitudeMeters>
            <DistanceMeters>NAN</DistanceMeters>
          </Trackpoint>
          <Trackpoint>
            <Time>2019-10-06T09:13:43.000Z</Time>
            <Position>
              <LatitudeDegrees>41.39197650365531444549560546875</LatitudeDegrees>
              <LongitudeDegrees>-5.7189435325562953948974609375</LongitudeDegrees>
            </Position>
            <AltitudeMeters>741.79998779296875</AltitudeMeters>
            <DistanceMeters>NAN</DistanceMeters>
          </Trackpoint>
          <Trackpoint>
            <Time>2019-10-06T09:13:49.000Z</Time>
            <Position>
              <LatitudeDegrees>41.391753293573856353759765625</LatitudeDegrees>
              <LongitudeDegrees>-5.71883180178701877593994140625</LongitudeDegrees>
            </Position>
            <AltitudeMeters>742.79998779296875</AltitudeMeters>
            <DistanceMeters>NAN</DistanceMeters>
          </Trackpoint>
          <Trackpoint>
            <Time>2019-10-06T09:13:51.000Z</Time>
            <Position>
              <LatitudeDegrees>41.391682885587215423583984375</LatitudeDegrees>
              <LongitudeDegrees>-5.7187874615192413330078125</LongitudeDegrees>
            </Position>
            <AltitudeMeters>743</AltitudeMeters>
            <DistanceMeters>NAN</DistanceMeters>
          </Trackpoint>
          <Trackpoint>
            <Time>2019-10-06T09:13:58.000Z</Time>
            <Position>
              <LatitudeDegrees>41.39143637381494045257568359375</LatitudeDegrees>
              <LongitudeDegrees>-5.71862275712192058563232421875</LongitudeDegrees>
            </Position>
            <AltitudeMeters>744</AltitudeMeters>
            <DistanceMeters>NAN</DistanceMeters>
          </Trackpoint>
          <Trackpoint>
            <Time>2019-10-06T09:13:59.000Z</Time>
            <Position>
              <LatitudeDegrees>41.391400583088397979736328125</LatitudeDegrees>
              <LongitudeDegrees>-5.718599371612071990966796875</LongitudeDegrees>
            </Position>
            <AltitudeMeters>744</AltitudeMeters>
            <DistanceMeters>NAN</DistanceMeters>
          </Trackpoint>
          <Trackpoint>
            <Time>2019-10-06T09:14:06.000Z</Time>
            <Position>
              <LatitudeDegrees>41.3911734335124492645263671875</LatitudeDegrees>
              <LongitudeDegrees>-5.71842108853161334991455078125</LongitudeDegrees>
            </Position>
            <AltitudeMeters>745</AltitudeMeters>
            <DistanceMeters>NAN</DistanceMeters>
          </Trackpoint>
          <Trackpoint>
            <Time>2019-10-06T09:14:07.000Z</Time>
            <Position>
              <LatitudeDegrees>41.3911402411758899688720703125</LatitudeDegrees>
              <LongitudeDegrees>-5.71839812211692333221435546875</LongitudeDegrees>
            </Position>
            <AltitudeMeters>745</AltitudeMeters>
            <DistanceMeters>NAN</DistanceMeters>
          </Trackpoint>
          <Trackpoint>
            <Time>2019-10-06T09:14:11.000Z</Time>
            <Position>
              <LatitudeDegrees>41.3910088129341602325439453125</LatitudeDegrees>
              <LongitudeDegrees>-5.71830608882009983062744140625</LongitudeDegrees>
            </Position>
            <AltitudeMeters>746</AltitudeMeters>
            <DistanceMeters>NAN</DistanceMeters>
          </Trackpoint>
          <Trackpoint>
            <Time>2019-10-06T09:14:15.000Z</Time>
            <Position>
              <LatitudeDegrees>41.39087788760662078857421875</LatitudeDegrees>
              <LongitudeDegrees>-5.718201063573360443115234375</LongitudeDegrees>
            </Position>
            <AltitudeMeters>746.5999755859375</AltitudeMeters>
            <DistanceMeters>NAN</DistanceMeters>
          </Trackpoint>
          <Trackpoint>
            <Time>2019-10-06T09:14:20.000Z</Time>
            <Position>
              <LatitudeDegrees>41.3907137699425220489501953125</LatitudeDegrees>
              <LongitudeDegrees>-5.71808329783380031585693359375</LongitudeDegrees>
            </Position>
            <AltitudeMeters>747.5999755859375</AltitudeMeters>
            <DistanceMeters>NAN</DistanceMeters>
          </Trackpoint>
          <Trackpoint>
            <Time>2019-10-06T09:14:25.000Z</Time>
            <Position>
              <LatitudeDegrees>41.39055870473384857177734375</LatitudeDegrees>
              <LongitudeDegrees>-5.71797215379774570465087890625</LongitudeDegrees>
            </Position>
            <AltitudeMeters>747.79998779296875</AltitudeMeters>
            <DistanceMeters>NAN</DistanceMeters>
          </Trackpoint>
          <Trackpoint>
            <Time>2019-10-06T09:14:31.000Z</Time>
            <Position>
              <LatitudeDegrees>41.3903675973415374755859375</LatitudeDegrees>
              <LongitudeDegrees>-5.71785329841077327728271484375</LongitudeDegrees>
            </Position>
            <AltitudeMeters>748.79998779296875</AltitudeMeters>
            <DistanceMeters>NAN</DistanceMeters>
          </Trackpoint>
          <Trackpoint>
            <Time>2019-10-06T09:14:33.000Z</Time>
            <Position>
              <LatitudeDegrees>41.390304230153560638427734375</LatitudeDegrees>
              <LongitudeDegrees>-5.71781524457037448883056640625</LongitudeDegrees>
            </Position>
            <AltitudeMeters>749</AltitudeMeters>
            <DistanceMeters>NAN</DistanceMeters>
          </Trackpoint>
          <Trackpoint>
            <Time>2019-10-06T09:14:39.000Z</Time>
            <Position>
              <LatitudeDegrees>41.39011790044605731964111328125</LatitudeDegrees>
              <LongitudeDegrees>-5.71770661510527133941650390625</LongitudeDegrees>
            </Position>
            <AltitudeMeters>750</AltitudeMeters>
            <DistanceMeters>NAN</DistanceMeters>
          </Trackpoint>
          <Trackpoint>
            <Time>2019-10-06T09:14:43.000Z</Time>
            <Position>
              <LatitudeDegrees>41.3899935968220233917236328125</LatitudeDegrees>
              <LongitudeDegrees>-5.71764509193599224090576171875</LongitudeDegrees>
            </Position>
            <AltitudeMeters>750.4000244140625</AltitudeMeters>
            <DistanceMeters>NAN</DistanceMeters>
          </Trackpoint>
          <Trackpoint>
            <Time>2019-10-06T09:14:47.000Z</Time>
            <Position>
              <LatitudeDegrees>41.38986946083605289459228515625</LatitudeDegrees>
              <LongitudeDegrees>-5.717592202126979827880859375</LongitudeDegrees>
            </Position>
            <AltitudeMeters>751.20001220703125</AltitudeMeters>
            <DistanceMeters>NAN</DistanceMeters>
          </Trackpoint>
          <Trackpoint>
            <Time>2019-10-06T09:14:51.000Z</Time>
            <Position>
              <LatitudeDegrees>41.38974021188914775848388671875</LatitudeDegrees>
              <LongitudeDegrees>-5.71753679774701595306396484375</LongitudeDegrees>
            </Position>
            <AltitudeMeters>751.4000244140625</AltitudeMeters>
            <DistanceMeters>NAN</DistanceMeters>
          </Trackpoint>
          <Trackpoint>
            <Time>2019-10-06T09:14:55.000Z</Time>
            <Position>
              <LatitudeDegrees>41.3896100409328937530517578125</LatitudeDegrees>
              <LongitudeDegrees>-5.7174948044121265411376953125</LongitudeDegrees>
            </Position>
            <AltitudeMeters>752.4000244140625</AltitudeMeters>
            <DistanceMeters>NAN</DistanceMeters>
          </Trackpoint>
          <Trackpoint>
            <Time>2019-10-06T09:15:03.000Z</Time>
            <Position>
              <LatitudeDegrees>41.3893431611359119415283203125</LatitudeDegrees>
              <LongitudeDegrees>-5.7174106501042842864990234375</LongitudeDegrees>
            </Position>
            <AltitudeMeters>753.20001220703125</AltitudeMeters>
            <DistanceMeters>NAN</DistanceMeters>
          </Trackpoint>
          <Trackpoint>
            <Time>2019-10-06T09:15:04.000Z</Time>
            <Position>
              <LatitudeDegrees>41.389311142265796661376953125</LatitudeDegrees>
              <LongitudeDegrees>-5.71740067563951015472412109375</LongitudeDegrees>
            </Position>
            <AltitudeMeters>753.4000244140625</AltitudeMeters>
            <DistanceMeters>NAN</DistanceMeters>
          </Trackpoint>
          <Trackpoint>
            <Time>2019-10-06T09:15:11.000Z</Time>
            <Position>
              <LatitudeDegrees>41.389077119529247283935546875</LatitudeDegrees>
              <LongitudeDegrees>-5.71736094541847705841064453125</LongitudeDegrees>
            </Position>
            <AltitudeMeters>754.20001220703125</AltitudeMeters>
            <DistanceMeters>NAN</DistanceMeters>
          </Trackpoint>
          <Trackpoint>
            <Time>2019-10-06T09:15:12.000Z</Time>
            <Position>
              <LatitudeDegrees>41.3890434242784976959228515625</LatitudeDegrees>
              <LongitudeDegrees>-5.717358179390430450439453125</LongitudeDegrees>
            </Position>
            <AltitudeMeters>754.20001220703125</AltitudeMeters>
            <DistanceMeters>NAN</DistanceMeters>
          </Trackpoint>
          <Trackpoint>
            <Time>2019-10-06T09:15:16.000Z</Time>
            <Position>
              <LatitudeDegrees>41.38890487141907215118408203125</LatitudeDegrees>
              <LongitudeDegrees>-5.71734912693500518798828125</LongitudeDegrees>
            </Position>
            <AltitudeMeters>754.5999755859375</AltitudeMeters>
            <DistanceMeters>NAN</DistanceMeters>
          </Trackpoint>
          <Trackpoint>
            <Time>2019-10-06T09:15:23.000Z</Time>
            <Position>
              <LatitudeDegrees>41.3886642269790172576904296875</LatitudeDegrees>
              <LongitudeDegrees>-5.71733948774635791778564453125</LongitudeDegrees>
            </Position>
            <AltitudeMeters>755.20001220703125</AltitudeMeters>
            <DistanceMeters>NAN</DistanceMeters>
          </Trackpoint>
          <Trackpoint>
            <Time>2019-10-06T09:15:25.000Z</Time>
            <Position>
              <LatitudeDegrees>41.3885954953730106353759765625</LatitudeDegrees>
              <LongitudeDegrees>-5.7173409126698970794677734375</LongitudeDegrees>
            </Position>
            <AltitudeMeters>755.79998779296875</AltitudeMeters>
            <DistanceMeters>NAN</DistanceMeters>
          </Trackpoint>
          <Trackpoint>
            <Time>2019-10-06T09:15:36.000Z</Time>
            <Position>
              <LatitudeDegrees>41.38821269385516643524169921875</LatitudeDegrees>
              <LongitudeDegrees>-5.7173828221857547760009765625</LongitudeDegrees>
            </Position>
            <AltitudeMeters>756.79998779296875</AltitudeMeters>
            <DistanceMeters>NAN</DistanceMeters>
          </Trackpoint>
          <Trackpoint>
            <Time>2019-10-06T09:15:42.000Z</Time>
            <Position>
              <LatitudeDegrees>41.38800448738038539886474609375</LatitudeDegrees>
              <LongitudeDegrees>-5.717433281242847442626953125</LongitudeDegrees>
            </Position>
            <AltitudeMeters>758.20001220703125</AltitudeMeters>
            <DistanceMeters>NAN</DistanceMeters>
          </Trackpoint>
          <Trackpoint>
            <Time>2019-10-06T09:15:47.000Z</Time>
            <Position>
              <LatitudeDegrees>41.3878297246992588043212890625</LatitudeDegrees>
              <LongitudeDegrees>-5.717476196587085723876953125</LongitudeDegrees>
            </Position>
            <AltitudeMeters>758.4000244140625</AltitudeMeters>
            <DistanceMeters>NAN</DistanceMeters>
          </Trackpoint>
          <Trackpoint>
            <Time>2019-10-06T09:15:57.000Z</Time>
            <Position>
              <LatitudeDegrees>41.38747374527156352996826171875</LatitudeDegrees>
              <LongitudeDegrees>-5.71759320795536041259765625</LongitudeDegrees>
            </Position>
            <AltitudeMeters>758.79998779296875</AltitudeMeters>
            <DistanceMeters>NAN</DistanceMeters>
          </Trackpoint>
          <Trackpoint>
            <Time>2019-10-06T09:16:02.000Z</Time>
            <Position>
              <LatitudeDegrees>41.387290768325328826904296875</LatitudeDegrees>
              <LongitudeDegrees>-5.717659927904605865478515625</LongitudeDegrees>
            </Position>
            <AltitudeMeters>759.20001220703125</AltitudeMeters>
            <DistanceMeters>NAN</DistanceMeters>
          </Trackpoint>
          <Trackpoint>
            <Time>2019-10-06T09:16:08.000Z</Time>
            <Position>
              <LatitudeDegrees>41.38707359321415424346923828125</LatitudeDegrees>
              <LongitudeDegrees>-5.71773477829992771148681640625</LongitudeDegrees>
            </Position>
            <AltitudeMeters>759</AltitudeMeters>
            <DistanceMeters>NAN</DistanceMeters>
          </Trackpoint>
          <Trackpoint>
            <Time>2019-10-06T09:16:15.000Z</Time>
            <Position>
              <LatitudeDegrees>41.38678324408829212188720703125</LatitudeDegrees>
              <LongitudeDegrees>-5.7178337685763835906982421875</LongitudeDegrees>
            </Position>
            <AltitudeMeters>758.79998779296875</AltitudeMeters>
            <DistanceMeters>NAN</DistanceMeters>
          </Trackpoint>
          <Trackpoint>
            <Time>2019-10-06T09:16:17.000Z</Time>
            <Position>
              <LatitudeDegrees>41.3866956532001495361328125</LatitudeDegrees>
              <LongitudeDegrees>-5.71786385960876941680908203125</LongitudeDegrees>
            </Position>
            <AltitudeMeters>758.4000244140625</AltitudeMeters>
            <DistanceMeters>NAN</DistanceMeters>
          </Trackpoint>
          <Trackpoint>
            <Time>2019-10-06T09:16:22.000Z</Time>
            <Position>
              <LatitudeDegrees>41.38647898100316524505615234375</LatitudeDegrees>
              <LongitudeDegrees>-5.71794281713664531707763671875</LongitudeDegrees>
            </Position>
            <AltitudeMeters>758.4000244140625</AltitudeMeters>
            <DistanceMeters>NAN</DistanceMeters>
          </Trackpoint>
          <Trackpoint>
            <Time>2019-10-06T09:16:26.000Z</Time>
            <Position>
              <LatitudeDegrees>41.38630111701786518096923828125</LatitudeDegrees>
              <LongitudeDegrees>-5.71800299920141696929931640625</LongitudeDegrees>
            </Position>
            <AltitudeMeters>758.5999755859375</AltitudeMeters>
            <DistanceMeters>NAN</DistanceMeters>
          </Trackpoint>
          <Trackpoint>
            <Time>2019-10-06T09:16:32.000Z</Time>
            <Position>
              <LatitudeDegrees>41.38603113591670989990234375</LatitudeDegrees>
              <LongitudeDegrees>-5.71809821762144565582275390625</LongitudeDegrees>
            </Position>
            <AltitudeMeters>758.20001220703125</AltitudeMeters>
            <DistanceMeters>NAN</DistanceMeters>
          </Trackpoint>
          <Trackpoint>
            <Time>2019-10-06T09:16:35.000Z</Time>
            <Position>
              <LatitudeDegrees>41.3858950138092041015625</LatitudeDegrees>
              <LongitudeDegrees>-5.7181412167847156524658203125</LongitudeDegrees>
            </Position>
            <AltitudeMeters>758</AltitudeMeters>
            <DistanceMeters>NAN</DistanceMeters>
          </Trackpoint>
          <Trackpoint>
            <Time>2019-10-06T09:16:41.000Z</Time>
            <Position>
              <LatitudeDegrees>41.38562344014644622802734375</LatitudeDegrees>
              <LongitudeDegrees>-5.71823433972895145416259765625</LongitudeDegrees>
            </Position>
            <AltitudeMeters>758</AltitudeMeters>
            <DistanceMeters>NAN</DistanceMeters>
          </Trackpoint>
          <Trackpoint>
            <Time>2019-10-06T09:16:45.000Z</Time>
            <Position>
              <LatitudeDegrees>41.3854288123548030853271484375</LatitudeDegrees>
              <LongitudeDegrees>-5.71829997003078460693359375</LongitudeDegrees>
            </Position>
            <AltitudeMeters>758</AltitudeMeters>
            <DistanceMeters>NAN</DistanceMeters>
          </Trackpoint>
          <Trackpoint>
            <Time>2019-10-06T09:16:52.000Z</Time>
            <Position>
              <LatitudeDegrees>41.38506227172911167144775390625</LatitudeDegrees>
              <LongitudeDegrees>-5.71842025034129619598388671875</LongitudeDegrees>
            </Position>
            <AltitudeMeters>757.20001220703125</AltitudeMeters>
            <DistanceMeters>NAN</DistanceMeters>
          </Trackpoint>
          <Trackpoint>
            <Time>2019-10-06T09:16:55.000Z</Time>
            <Position>
              <LatitudeDegrees>41.38490150682628154754638671875</LatitudeDegrees>
              <LongitudeDegrees>-5.718471966683864593505859375</LongitudeDegrees>
            </Position>
            <AltitudeMeters>757.20001220703125</AltitudeMeters>
            <DistanceMeters>NAN</DistanceMeters>
          </Trackpoint>
          <Trackpoint>
            <Time>2019-10-06T09:17:02.000Z</Time>
            <Position>
              <LatitudeDegrees>41.38452918268740177154541015625</LatitudeDegrees>
              <LongitudeDegrees>-5.71860582567751407623291015625</LongitudeDegrees>
            </Position>
            <AltitudeMeters>756.20001220703125</AltitudeMeters>
            <DistanceMeters>NAN</DistanceMeters>
          </Trackpoint>
          <Trackpoint>
            <Time>2019-10-06T09:17:04.000Z</Time>
            <Position>
              <LatitudeDegrees>41.38442181050777435302734375</LatitudeDegrees>
              <LongitudeDegrees>-5.71863801218569278717041015625</LongitudeDegrees>
            </Position>
            <AltitudeMeters>756.20001220703125</AltitudeMeters>
            <DistanceMeters>NAN</DistanceMeters>
          </Trackpoint>
          <Trackpoint>
            <Time>2019-10-06T09:17:13.000Z</Time>
            <Position>
              <LatitudeDegrees>41.38391160406172275543212890625</LatitudeDegrees>
              <LongitudeDegrees>-5.71880598552525043487548828125</LongitudeDegrees>
            </Position>
            <AltitudeMeters>755.79998779296875</AltitudeMeters>
            <DistanceMeters>NAN</DistanceMeters>
          </Trackpoint>
          <Trackpoint>
            <Time>2019-10-06T09:17:16.000Z</Time>
            <Position>
              <LatitudeDegrees>41.3837282918393611907958984375</LatitudeDegrees>
              <LongitudeDegrees>-5.71886834688484668731689453125</LongitudeDegrees>
            </Position>
            <AltitudeMeters>755</AltitudeMeters>
            <DistanceMeters>NAN</DistanceMeters>
          </Trackpoint>
          <Trackpoint>
            <Time>2019-10-06T09:17:22.000Z</Time>
            <Position>
              <LatitudeDegrees>41.38333710841834545135498046875</LatitudeDegrees>
              <LongitudeDegrees>-5.7190075702965259552001953125</LongitudeDegrees>
            </Position>
            <AltitudeMeters>754.4000244140625</AltitudeMeters>
            <DistanceMeters>NAN</DistanceMeters>
          </Trackpoint>
          <Trackpoint>
            <Time>2019-10-06T09:17:23.000Z</Time>
            <Position>
              <LatitudeDegrees>41.3832692988216876983642578125</LatitudeDegrees>
              <LongitudeDegrees>-5.71903229691088199615478515625</LongitudeDegrees>
            </Position>
            <AltitudeMeters>753.5999755859375</AltitudeMeters>
            <DistanceMeters>NAN</DistanceMeters>
          </Trackpoint>
          <Trackpoint>
            <Time>2019-10-06T09:17:27.000Z</Time>
            <Position>
              <LatitudeDegrees>41.38297635130584239959716796875</LatitudeDegrees>
              <LongitudeDegrees>-5.71912835352122783660888671875</LongitudeDegrees>
            </Position>
            <AltitudeMeters>752.5999755859375</AltitudeMeters>
            <DistanceMeters>NAN</DistanceMeters>
          </Trackpoint>
          <Trackpoint>
            <Time>2019-10-06T09:17:30.000Z</Time>
            <Position>
              <LatitudeDegrees>41.382746435701847076416015625</LatitudeDegrees>
              <LongitudeDegrees>-5.7192043773829936981201171875</LongitudeDegrees>
            </Position>
            <AltitudeMeters>751.5999755859375</AltitudeMeters>
            <DistanceMeters>NAN</DistanceMeters>
          </Trackpoint>
          <Trackpoint>
            <Time>2019-10-06T09:17:31.000Z</Time>
            <Position>
              <LatitudeDegrees>41.38266840018332004547119140625</LatitudeDegrees>
              <LongitudeDegrees>-5.719231031835079193115234375</LongitudeDegrees>
            </Position>
            <AltitudeMeters>751.4000244140625</AltitudeMeters>
            <DistanceMeters>NAN</DistanceMeters>
          </Trackpoint>
          <Trackpoint>
            <Time>2019-10-06T09:17:35.000Z</Time>
            <Position>
              <LatitudeDegrees>41.38235340826213359832763671875</LatitudeDegrees>
              <LongitudeDegrees>-5.71933639235794544219970703125</LongitudeDegrees>
            </Position>
            <AltitudeMeters>749.5999755859375</AltitudeMeters>
            <DistanceMeters>NAN</DistanceMeters>
          </Trackpoint>
          <Trackpoint>
            <Time>2019-10-06T09:17:38.000Z</Time>
            <Position>
              <LatitudeDegrees>41.3821132667362689971923828125</LatitudeDegrees>
              <LongitudeDegrees>-5.71941711008548736572265625</LongitudeDegrees>
            </Position>
            <AltitudeMeters>748.5999755859375</AltitudeMeters>
            <DistanceMeters>NAN</DistanceMeters>
          </Trackpoint>
          <Trackpoint>
            <Time>2019-10-06T09:17:39.000Z</Time>
            <Position>
              <LatitudeDegrees>41.38203456066548824310302734375</LatitudeDegrees>
              <LongitudeDegrees>-5.7194427587091922760009765625</LongitudeDegrees>
            </Position>
            <AltitudeMeters>749.4000244140625</AltitudeMeters>
            <DistanceMeters>NAN</DistanceMeters>
          </Trackpoint>
          <Trackpoint>
            <Time>2019-10-06T09:17:45.000Z</Time>
            <Position>
              <LatitudeDegrees>41.3815530203282833099365234375</LatitudeDegrees>
              <LongitudeDegrees>-5.719602517783641815185546875</LongitudeDegrees>
            </Position>
            <AltitudeMeters>747.5999755859375</AltitudeMeters>
            <DistanceMeters>NAN</DistanceMeters>
          </Trackpoint>
          <Trackpoint>
            <Time>2019-10-06T09:17:47.000Z</Time>
            <Position>
              <LatitudeDegrees>41.3813917525112628936767578125</LatitudeDegrees>
              <LongitudeDegrees>-5.7196539826691150665283203125</LongitudeDegrees>
            </Position>
            <AltitudeMeters>746.5999755859375</AltitudeMeters>
            <DistanceMeters>NAN</DistanceMeters>
          </Trackpoint>
          <Trackpoint>
            <Time>2019-10-06T09:17:48.000Z</Time>
            <Position>
              <LatitudeDegrees>41.38131313025951385498046875</LatitudeDegrees>
              <LongitudeDegrees>-5.71967971511185169219970703125</LongitudeDegrees>
            </Position>
            <AltitudeMeters>746</AltitudeMeters>
            <DistanceMeters>NAN</DistanceMeters>
          </Trackpoint>
          <Trackpoint>
            <Time>2019-10-06T09:17:51.000Z</Time>
            <Position>
              <LatitudeDegrees>41.38108002953231334686279296875</LatitudeDegrees>
              <LongitudeDegrees>-5.7197599299252033233642578125</LongitudeDegrees>
            </Position>
            <AltitudeMeters>746.20001220703125</AltitudeMeters>
            <DistanceMeters>NAN</DistanceMeters>
          </Trackpoint>
          <Trackpoint>
            <Time>2019-10-06T09:17:54.000Z</Time>
            <Position>
              <LatitudeDegrees>41.38086226768791675567626953125</LatitudeDegrees>
              <LongitudeDegrees>-5.719837211072444915771484375</LongitudeDegrees>
            </Position>
            <AltitudeMeters>746.5999755859375</AltitudeMeters>
            <DistanceMeters>NAN</DistanceMeters>
          </Trackpoint>
          <Trackpoint>
            <Time>2019-10-06T09:17:56.000Z</Time>
            <Position>
              <LatitudeDegrees>41.3807258941233158111572265625</LatitudeDegrees>
              <LongitudeDegrees>-5.71987979114055633544921875</LongitudeDegrees>
            </Position>
            <AltitudeMeters>747</AltitudeMeters>
            <DistanceMeters>NAN</DistanceMeters>
          </Trackpoint>
          <Trackpoint>
            <Time>2019-10-06T09:17:58.000Z</Time>
            <Position>
              <LatitudeDegrees>41.38059832155704498291015625</LatitudeDegrees>
              <LongitudeDegrees>-5.719927065074443817138671875</LongitudeDegrees>
            </Position>
            <AltitudeMeters>747</AltitudeMeters>
            <DistanceMeters>NAN</DistanceMeters>
          </Trackpoint>
          <Trackpoint>
            <Time>2019-10-06T09:18:00.000Z</Time>
            <Position>
              <LatitudeDegrees>41.38047586195170879364013671875</LatitudeDegrees>
              <LongitudeDegrees>-5.71996687911450862884521484375</LongitudeDegrees>
            </Position>
            <AltitudeMeters>747.4000244140625</AltitudeMeters>
            <DistanceMeters>NAN</DistanceMeters>
          </Trackpoint>
          <Trackpoint>
            <Time>2019-10-06T09:18:03.000Z</Time>
            <Position>
              <LatitudeDegrees>41.3803114928305149078369140625</LatitudeDegrees>
              <LongitudeDegrees>-5.720020942389965057373046875</LongitudeDegrees>
            </Position>
            <AltitudeMeters>748.20001220703125</AltitudeMeters>
            <DistanceMeters>NAN</DistanceMeters>
          </Trackpoint>
          <Trackpoint>
            <Time>2019-10-06T09:18:04.000Z</Time>
            <Position>
              <LatitudeDegrees>41.380259357392787933349609375</LatitudeDegrees>
              <LongitudeDegrees>-5.72004030458629131317138671875</LongitudeDegrees>
            </Position>
            <AltitudeMeters>748.4000244140625</AltitudeMeters>
            <DistanceMeters>NAN</DistanceMeters>
          </Trackpoint>
          <Trackpoint>
            <Time>2019-10-06T09:18:08.000Z</Time>
            <Position>
              <LatitudeDegrees>41.380071938037872314453125</LatitudeDegrees>
              <LongitudeDegrees>-5.7201045937836170196533203125</LongitudeDegrees>
            </Position>
            <AltitudeMeters>749.4000244140625</AltitudeMeters>
            <DistanceMeters>NAN</DistanceMeters>
          </Trackpoint>
          <Trackpoint>
            <Time>2019-10-06T09:18:09.000Z</Time>
            <Position>
              <LatitudeDegrees>41.38003095053136348724365234375</LatitudeDegrees>
              <LongitudeDegrees>-5.72012060321867465972900390625</LongitudeDegrees>
            </Position>
            <AltitudeMeters>749.5999755859375</AltitudeMeters>
            <DistanceMeters>NAN</DistanceMeters>
          </Trackpoint>
          <Trackpoint>
            <Time>2019-10-06T09:18:10.000Z</Time>
            <Position>
              <LatitudeDegrees>41.37999080121517181396484375</LatitudeDegrees>
              <LongitudeDegrees>-5.7201320864260196685791015625</LongitudeDegrees>
            </Position>
            <AltitudeMeters>750</AltitudeMeters>
            <DistanceMeters>NAN</DistanceMeters>
          </Trackpoint>
          <Trackpoint>
            <Time>2019-10-06T09:18:13.000Z</Time>
            <Position>
              <LatitudeDegrees>41.3798726163804531097412109375</LatitudeDegrees>
              <LongitudeDegrees>-5.72017156518995761871337890625</LongitudeDegrees>
            </Position>
            <AltitudeMeters>750.5999755859375</AltitudeMeters>
            <DistanceMeters>NAN</DistanceMeters>
          </Trackpoint>
          <Trackpoint>
            <Time>2019-10-06T09:18:14.000Z</Time>
            <Position>
              <LatitudeDegrees>41.379835903644561767578125</LatitudeDegrees>
              <LongitudeDegrees>-5.72018229402601718902587890625</LongitudeDegrees>
            </Position>
            <AltitudeMeters>750.79998779296875</AltitudeMeters>
            <DistanceMeters>NAN</DistanceMeters>
          </Trackpoint>
          <Trackpoint>
            <Time>2019-10-06T09:18:18.000Z</Time>
            <Position>
              <LatitudeDegrees>41.37969466857612133026123046875</LatitudeDegrees>
              <LongitudeDegrees>-5.72022319771349430084228515625</LongitudeDegrees>
            </Position>
            <AltitudeMeters>751.5999755859375</AltitudeMeters>
            <DistanceMeters>NAN</DistanceMeters>
          </Trackpoint>
          <Trackpoint>
            <Time>2019-10-06T09:18:20.000Z</Time>
            <Position>
              <LatitudeDegrees>41.37962677516043186187744140625</LatitudeDegrees>
              <LongitudeDegrees>-5.72024884633719921112060546875</LongitudeDegrees>
            </Position>
            <AltitudeMeters>752.4000244140625</AltitudeMeters>
            <DistanceMeters>NAN</DistanceMeters>
          </Trackpoint>
          <Trackpoint>
            <Time>2019-10-06T09:18:22.000Z</Time>
            <Position>
              <LatitudeDegrees>41.37956156395375728607177734375</LatitudeDegrees>
              <LongitudeDegrees>-5.72027231566607952117919921875</LongitudeDegrees>
            </Position>
            <AltitudeMeters>752.4000244140625</AltitudeMeters>
            <DistanceMeters>NAN</DistanceMeters>
          </Trackpoint>
          <Trackpoint>
            <Time>2019-10-06T09:18:26.000Z</Time>
            <Position>
              <LatitudeDegrees>41.3794310577213764190673828125</LatitudeDegrees>
              <LongitudeDegrees>-5.72031833231449127197265625</LongitudeDegrees>
            </Position>
            <AltitudeMeters>753</AltitudeMeters>
            <DistanceMeters>NAN</DistanceMeters>
          </Trackpoint>
          <Trackpoint>
            <Time>2019-10-06T09:18:27.000Z</Time>
            <Position>
              <LatitudeDegrees>41.37939870357513427734375</LatitudeDegrees>
              <LongitudeDegrees>-5.7203298993408679962158203125</LongitudeDegrees>
            </Position>
            <AltitudeMeters>753.20001220703125</AltitudeMeters>
            <DistanceMeters>NAN</DistanceMeters>
          </Trackpoint>
          <Trackpoint>
            <Time>2019-10-06T09:18:28.000Z</Time>
            <Position>
              <LatitudeDegrees>41.37936584651470184326171875</LatitudeDegrees>
              <LongitudeDegrees>-5.72034155018627643585205078125</LongitudeDegrees>
            </Position>
            <AltitudeMeters>753.4000244140625</AltitudeMeters>
            <DistanceMeters>NAN</DistanceMeters>
          </Trackpoint>
          <Trackpoint>
            <Time>2019-10-06T09:18:32.000Z</Time>
            <Position>
              <LatitudeDegrees>41.37923433445394039154052734375</LatitudeDegrees>
              <LongitudeDegrees>-5.720384381711483001708984375</LongitudeDegrees>
            </Position>
            <AltitudeMeters>753.79998779296875</AltitudeMeters>
            <DistanceMeters>NAN</DistanceMeters>
          </Trackpoint>
          <Trackpoint>
            <Time>2019-10-06T09:18:36.000Z</Time>
            <Position>
              <LatitudeDegrees>41.3791014812886714935302734375</LatitudeDegrees>
              <LongitudeDegrees>-5.72043173946440219879150390625</LongitudeDegrees>
            </Position>
            <AltitudeMeters>754.20001220703125</AltitudeMeters>
            <DistanceMeters>NAN</DistanceMeters>
          </Trackpoint>
          <Trackpoint>
            <Time>2019-10-06T09:18:37.000Z</Time>
            <Position>
              <LatitudeDegrees>41.3790682889521121978759765625</LatitudeDegrees>
              <LongitudeDegrees>-5.7204425521194934844970703125</LongitudeDegrees>
            </Position>
            <AltitudeMeters>754.5999755859375</AltitudeMeters>
            <DistanceMeters>NAN</DistanceMeters>
          </Trackpoint>
          <Trackpoint>
            <Time>2019-10-06T09:18:44.000Z</Time>
            <Position>
              <LatitudeDegrees>41.3788275606930255889892578125</LatitudeDegrees>
              <LongitudeDegrees>-5.72052025236189365386962890625</LongitudeDegrees>
            </Position>
            <AltitudeMeters>755.4000244140625</AltitudeMeters>
            <DistanceMeters>NAN</DistanceMeters>
          </Trackpoint>
          <Trackpoint>
            <Time>2019-10-06T09:18:47.000Z</Time>
            <Position>
              <LatitudeDegrees>41.3787236250936985015869140625</LatitudeDegrees>
              <LongitudeDegrees>-5.720556043088436126708984375</LongitudeDegrees>
            </Position>
            <AltitudeMeters>755.5999755859375</AltitudeMeters>
            <DistanceMeters>NAN</DistanceMeters>
          </Trackpoint>
          <Trackpoint>
            <Time>2019-10-06T09:18:48.000Z</Time>
            <Position>
              <LatitudeDegrees>41.37868867255747318267822265625</LatitudeDegrees>
              <LongitudeDegrees>-5.72056937031447887420654296875</LongitudeDegrees>
            </Position>
            <AltitudeMeters>755.79998779296875</AltitudeMeters>
            <DistanceMeters>NAN</DistanceMeters>
          </Trackpoint>
          <Trackpoint>
            <Time>2019-10-06T09:18:56.000Z</Time>
            <Position>
              <LatitudeDegrees>41.37839614413678646087646484375</LatitudeDegrees>
              <LongitudeDegrees>-5.7206675224006175994873046875</LongitudeDegrees>
            </Position>
            <AltitudeMeters>756.4000244140625</AltitudeMeters>
            <DistanceMeters>NAN</DistanceMeters>
          </Trackpoint>
          <Trackpoint>
            <Time>2019-10-06T09:19:05.000Z</Time>
            <Position>
              <LatitudeDegrees>41.3780513964593410491943359375</LatitudeDegrees>
              <LongitudeDegrees>-5.72078478522598743438720703125</LongitudeDegrees>
            </Position>
            <AltitudeMeters>757</AltitudeMeters>
            <DistanceMeters>NAN</DistanceMeters>
          </Trackpoint>
          <Trackpoint>
            <Time>2019-10-06T09:19:09.000Z</Time>
            <Position>
              <LatitudeDegrees>41.3778980076313018798828125</LatitudeDegrees>
              <LongitudeDegrees>-5.720837004482746124267578125</LongitudeDegrees>
            </Position>
            <AltitudeMeters>756.5999755859375</AltitudeMeters>
            <DistanceMeters>NAN</DistanceMeters>
          </Trackpoint>
          <Trackpoint>
            <Time>2019-10-06T09:19:15.000Z</Time>
            <Position>
              <LatitudeDegrees>41.37765367515385150909423828125</LatitudeDegrees>
              <LongitudeDegrees>-5.72092241607606410980224609375</LongitudeDegrees>
            </Position>
            <AltitudeMeters>756</AltitudeMeters>
            <DistanceMeters>NAN</DistanceMeters>
          </Trackpoint>
          <Trackpoint>
            <Time>2019-10-06T09:19:17.000Z</Time>
            <Position>
              <LatitudeDegrees>41.3775669224560260772705078125</LatitudeDegrees>
              <LongitudeDegrees>-5.72095225565135478973388671875</LongitudeDegrees>
            </Position>
            <AltitudeMeters>756.4000244140625</AltitudeMeters>
            <DistanceMeters>NAN</DistanceMeters>
          </Trackpoint>
          <Trackpoint>
            <Time>2019-10-06T09:19:24.000Z</Time>
            <Position>
              <LatitudeDegrees>41.3772638328373432159423828125</LatitudeDegrees>
              <LongitudeDegrees>-5.72105485014617443084716796875</LongitudeDegrees>
            </Position>
            <AltitudeMeters>756.20001220703125</AltitudeMeters>
            <DistanceMeters>NAN</DistanceMeters>
          </Trackpoint>
          <Trackpoint>
            <Time>2019-10-06T09:19:29.000Z</Time>
            <Position>
              <LatitudeDegrees>41.3770450651645660400390625</LatitudeDegrees>
              <LongitudeDegrees>-5.72113112546503543853759765625</LongitudeDegrees>
            </Position>
            <AltitudeMeters>756.4000244140625</AltitudeMeters>
            <DistanceMeters>NAN</DistanceMeters>
          </Trackpoint>
          <Trackpoint>
            <Time>2019-10-06T09:19:30.000Z</Time>
            <Position>
              <LatitudeDegrees>41.3770021498203277587890625</LatitudeDegrees>
              <LongitudeDegrees>-5.72114537470042705535888671875</LongitudeDegrees>
            </Position>
            <AltitudeMeters>756.79998779296875</AltitudeMeters>
            <DistanceMeters>NAN</DistanceMeters>
          </Trackpoint>
          <Trackpoint>
            <Time>2019-10-06T09:19:31.000Z</Time>
            <Position>
              <LatitudeDegrees>41.37695856392383575439453125</LatitudeDegrees>
              <LongitudeDegrees>-5.72115073911845684051513671875</LongitudeDegrees>
            </Position>
            <AltitudeMeters>756.79998779296875</AltitudeMeters>
            <DistanceMeters>NAN</DistanceMeters>
          </Trackpoint>
          <Trackpoint>
            <Time>2019-10-06T09:19:35.000Z</Time>
            <Position>
              <LatitudeDegrees>41.37678287923336029052734375</LatitudeDegrees>
              <LongitudeDegrees>-5.72119499556720256805419921875</LongitudeDegrees>
            </Position>
            <AltitudeMeters>756.5999755859375</AltitudeMeters>
            <DistanceMeters>NAN</DistanceMeters>
          </Trackpoint>
          <Trackpoint>
            <Time>2019-10-06T09:19:40.000Z</Time>
            <Position>
              <LatitudeDegrees>41.37654894031584262847900390625</LatitudeDegrees>
              <LongitudeDegrees>-5.721283257007598876953125</LongitudeDegrees>
            </Position>
            <AltitudeMeters>756.4000244140625</AltitudeMeters>
            <DistanceMeters>NAN</DistanceMeters>
          </Trackpoint>
          <Trackpoint>
            <Time>2019-10-06T09:19:43.000Z</Time>
            <Position>
              <LatitudeDegrees>41.37640275992453098297119140625</LatitudeDegrees>
              <LongitudeDegrees>-5.7213301956653594970703125</LongitudeDegrees>
            </Position>
            <AltitudeMeters>756.20001220703125</AltitudeMeters>
            <DistanceMeters>NAN</DistanceMeters>
          </Trackpoint>
          <Trackpoint>
            <Time>2019-10-06T09:19:45.000Z</Time>
            <Position>
              <LatitudeDegrees>41.376300752162933349609375</LatitudeDegrees>
              <LongitudeDegrees>-5.72134771384298801422119140625</LongitudeDegrees>
            </Position>
            <AltitudeMeters>756</AltitudeMeters>
            <DistanceMeters>NAN</DistanceMeters>
          </Trackpoint>
          <Trackpoint>
            <Time>2019-10-06T09:19:49.000Z</Time>
            <Position>
              <LatitudeDegrees>41.37607536278665065765380859375</LatitudeDegrees>
              <LongitudeDegrees>-5.72141845710575580596923828125</LongitudeDegrees>
            </Position>
            <AltitudeMeters>754.5999755859375</AltitudeMeters>
            <DistanceMeters>NAN</DistanceMeters>
          </Trackpoint>
          <Trackpoint>
            <Time>2019-10-06T09:19:52.000Z</Time>
            <Position>
              <LatitudeDegrees>41.3758885301649570465087890625</LatitudeDegrees>
              <LongitudeDegrees>-5.7214892841875553131103515625</LongitudeDegrees>
            </Position>
            <AltitudeMeters>753.5999755859375</AltitudeMeters>
            <DistanceMeters>NAN</DistanceMeters>
          </Trackpoint>
          <Trackpoint>
            <Time>2019-10-06T09:19:54.000Z</Time>
            <Position>
              <LatitudeDegrees>41.37575131841003894805908203125</LatitudeDegrees>
              <LongitudeDegrees>-5.721537731587886810302734375</LongitudeDegrees>
            </Position>
            <AltitudeMeters>753.20001220703125</AltitudeMeters>
            <DistanceMeters>NAN</DistanceMeters>
          </Trackpoint>
          <Trackpoint>
            <Time>2019-10-06T09:19:55.000Z</Time>
            <Position>
              <LatitudeDegrees>41.37567780911922454833984375</LatitudeDegrees>
              <LongitudeDegrees>-5.72156555950641632080078125</LongitudeDegrees>
            </Position>
            <AltitudeMeters>752.4000244140625</AltitudeMeters>
            <DistanceMeters>NAN</DistanceMeters>
          </Trackpoint>
          <Trackpoint>
            <Time>2019-10-06T09:19:56.000Z</Time>
            <Position>
              <LatitudeDegrees>41.375603042542934417724609375</LatitudeDegrees>
              <LongitudeDegrees>-5.72159615345299243927001953125</LongitudeDegrees>
            </Position>
            <AltitudeMeters>751.79998779296875</AltitudeMeters>
            <DistanceMeters>NAN</DistanceMeters>
          </Trackpoint>
          <Trackpoint>
            <Time>2019-10-06T09:19:57.000Z</Time>
            <Position>
              <LatitudeDegrees>41.375528611242771148681640625</LatitudeDegrees>
              <LongitudeDegrees>-5.72163303382694721221923828125</LongitudeDegrees>
            </Position>
            <AltitudeMeters>750.79998779296875</AltitudeMeters>
            <DistanceMeters>NAN</DistanceMeters>
          </Trackpoint>
          <Trackpoint>
            <Time>2019-10-06T09:19:59.000Z</Time>
            <Position>
              <LatitudeDegrees>41.375369019806385040283203125</LatitudeDegrees>
              <LongitudeDegrees>-5.7216951437294483184814453125</LongitudeDegrees>
            </Position>
            <AltitudeMeters>749.79998779296875</AltitudeMeters>
            <DistanceMeters>NAN</DistanceMeters>
          </Trackpoint>
          <Trackpoint>
            <Time>2019-10-06T09:20:01.000Z</Time>
            <Position>
              <LatitudeDegrees>41.37519928626716136932373046875</LatitudeDegrees>
              <LongitudeDegrees>-5.72175071574747562408447265625</LongitudeDegrees>
            </Position>
            <AltitudeMeters>748.79998779296875</AltitudeMeters>
            <DistanceMeters>NAN</DistanceMeters>
          </Trackpoint>
          <Trackpoint>
            <Time>2019-10-06T09:20:02.000Z</Time>
            <Position>
              <LatitudeDegrees>41.37511320412158966064453125</LatitudeDegrees>
              <LongitudeDegrees>-5.7217789627611637115478515625</LongitudeDegrees>
            </Position>
            <AltitudeMeters>748.4000244140625</AltitudeMeters>
            <DistanceMeters>NAN</DistanceMeters>
          </Trackpoint>
          <Trackpoint>
            <Time>2019-10-06T09:20:05.000Z</Time>
            <Position>
              <LatitudeDegrees>41.374853365123271942138671875</LatitudeDegrees>
              <LongitudeDegrees>-5.721867978572845458984375</LongitudeDegrees>
            </Position>
            <AltitudeMeters>747.20001220703125</AltitudeMeters>
            <DistanceMeters>NAN</DistanceMeters>
          </Trackpoint>
          <Trackpoint>
            <Time>2019-10-06T09:20:07.000Z</Time>
            <Position>
              <LatitudeDegrees>41.374683044850826263427734375</LatitudeDegrees>
              <LongitudeDegrees>-5.72192371822893619537353515625</LongitudeDegrees>
            </Position>
            <AltitudeMeters>746.79998779296875</AltitudeMeters>
            <DistanceMeters>NAN</DistanceMeters>
          </Trackpoint>
          <Trackpoint>
            <Time>2019-10-06T09:20:08.000Z</Time>
            <Position>
              <LatitudeDegrees>41.37459796853363513946533203125</LatitudeDegrees>
              <LongitudeDegrees>-5.72195054031908512115478515625</LongitudeDegrees>
            </Position>
            <AltitudeMeters>746.79998779296875</AltitudeMeters>
            <DistanceMeters>NAN</DistanceMeters>
          </Trackpoint>
          <Trackpoint>
            <Time>2019-10-06T09:20:10.000Z</Time>
            <Position>
              <LatitudeDegrees>41.37443502433598041534423828125</LatitudeDegrees>
              <LongitudeDegrees>-5.72200678288936614990234375</LongitudeDegrees>
            </Position>
            <AltitudeMeters>746.20001220703125</AltitudeMeters>
            <DistanceMeters>NAN</DistanceMeters>
          </Trackpoint>
          <Trackpoint>
            <Time>2019-10-06T09:20:11.000Z</Time>
            <Position>
              <LatitudeDegrees>41.3743556477129459381103515625</LatitudeDegrees>
              <LongitudeDegrees>-5.72203620336949825286865234375</LongitudeDegrees>
            </Position>
            <AltitudeMeters>746</AltitudeMeters>
            <DistanceMeters>NAN</DistanceMeters>
          </Trackpoint>
          <Trackpoint>
            <Time>2019-10-06T09:20:15.000Z</Time>
            <Position>
              <LatitudeDegrees>41.37405046261847019195556640625</LatitudeDegrees>
              <LongitudeDegrees>-5.72214164771139621734619140625</LongitudeDegrees>
            </Position>
            <AltitudeMeters>747.20001220703125</AltitudeMeters>
            <DistanceMeters>NAN</DistanceMeters>
          </Trackpoint>
          <Trackpoint>
            <Time>2019-10-06T09:20:17.000Z</Time>
            <Position>
              <LatitudeDegrees>41.3739087246358394622802734375</LatitudeDegrees>
              <LongitudeDegrees>-5.7221916876733303070068359375</LongitudeDegrees>
            </Position>
            <AltitudeMeters>746.79998779296875</AltitudeMeters>
            <DistanceMeters>NAN</DistanceMeters>
          </Trackpoint>
          <Trackpoint>
            <Time>2019-10-06T09:20:25.000Z</Time>
            <Position>
              <LatitudeDegrees>41.37338577769696712493896484375</LatitudeDegrees>
              <LongitudeDegrees>-5.72237466461956501007080078125</LongitudeDegrees>
            </Position>
            <AltitudeMeters>747.20001220703125</AltitudeMeters>
            <DistanceMeters>NAN</DistanceMeters>
          </Trackpoint>
          <Trackpoint>
            <Time>2019-10-06T09:20:27.000Z</Time>
            <Position>
              <LatitudeDegrees>41.37326038442552089691162109375</LatitudeDegrees>
              <LongitudeDegrees>-5.72241925634443759918212890625</LongitudeDegrees>
            </Position>
            <AltitudeMeters>747.20001220703125</AltitudeMeters>
            <DistanceMeters>NAN</DistanceMeters>
          </Trackpoint>
          <Trackpoint>
            <Time>2019-10-06T09:20:35.000Z</Time>
            <Position>
              <LatitudeDegrees>41.37277876026928424835205078125</LatitudeDegrees>
              <LongitudeDegrees>-5.72258840315043926239013671875</LongitudeDegrees>
            </Position>
            <AltitudeMeters>747.4000244140625</AltitudeMeters>
            <DistanceMeters>NAN</DistanceMeters>
          </Trackpoint>
          <Trackpoint>
            <Time>2019-10-06T09:20:39.000Z</Time>
            <Position>
              <LatitudeDegrees>41.37253828346729278564453125</LatitudeDegrees>
              <LongitudeDegrees>-5.722672641277313232421875</LongitudeDegrees>
            </Position>
            <AltitudeMeters>747.4000244140625</AltitudeMeters>
            <DistanceMeters>NAN</DistanceMeters>
          </Trackpoint>
          <Trackpoint>
            <Time>2019-10-06T09:20:45.000Z</Time>
            <Position>
              <LatitudeDegrees>41.37214039452373981475830078125</LatitudeDegrees>
              <LongitudeDegrees>-5.7228119485080242156982421875</LongitudeDegrees>
            </Position>
            <AltitudeMeters>746.20001220703125</AltitudeMeters>
            <DistanceMeters>NAN</DistanceMeters>
          </Trackpoint>
          <Trackpoint>
            <Time>2019-10-06T09:20:46.000Z</Time>
            <Position>
              <LatitudeDegrees>41.3720687292516231536865234375</LatitudeDegrees>
              <LongitudeDegrees>-5.7228370942175388336181640625</LongitudeDegrees>
            </Position>
            <AltitudeMeters>745.4000244140625</AltitudeMeters>
            <DistanceMeters>NAN</DistanceMeters>
          </Trackpoint>
          <Trackpoint>
            <Time>2019-10-06T09:20:51.000Z</Time>
            <Position>
              <LatitudeDegrees>41.371699087321758270263671875</LatitudeDegrees>
              <LongitudeDegrees>-5.7229685224592685699462890625</LongitudeDegrees>
            </Position>
            <AltitudeMeters>744.20001220703125</AltitudeMeters>
            <DistanceMeters>NAN</DistanceMeters>
          </Trackpoint>
          <Trackpoint>
            <Time>2019-10-06T09:20:54.000Z</Time>
            <Position>
              <LatitudeDegrees>41.3714732788503170013427734375</LatitudeDegrees>
              <LongitudeDegrees>-5.72305108420550823211669921875</LongitudeDegrees>
            </Position>
            <AltitudeMeters>743</AltitudeMeters>
            <DistanceMeters>NAN</DistanceMeters>
          </Trackpoint>
          <Trackpoint>
            <Time>2019-10-06T09:20:58.000Z</Time>
            <Position>
              <LatitudeDegrees>41.37115451507270336151123046875</LatitudeDegrees>
              <LongitudeDegrees>-5.72315971367061138153076171875</LongitudeDegrees>
            </Position>
            <AltitudeMeters>741.5999755859375</AltitudeMeters>
            <DistanceMeters>NAN</DistanceMeters>
          </Trackpoint>
          <Trackpoint>
            <Time>2019-10-06T09:21:02.000Z</Time>
            <Position>
              <LatitudeDegrees>41.3708285428583621978759765625</LatitudeDegrees>
              <LongitudeDegrees>-5.7232696004211902618408203125</LongitudeDegrees>
            </Position>
            <AltitudeMeters>740.4000244140625</AltitudeMeters>
            <DistanceMeters>NAN</DistanceMeters>
          </Trackpoint>
          <Trackpoint>
            <Time>2019-10-06T09:21:04.000Z</Time>
            <Position>
              <LatitudeDegrees>41.370664425194263458251953125</LatitudeDegrees>
              <LongitudeDegrees>-5.7233215682208538055419921875</LongitudeDegrees>
            </Position>
            <AltitudeMeters>740.4000244140625</AltitudeMeters>
            <DistanceMeters>NAN</DistanceMeters>
          </Trackpoint>
          <Trackpoint>
            <Time>2019-10-06T09:21:07.000Z</Time>
            <Position>
              <LatitudeDegrees>41.3704178296029567718505859375</LatitudeDegrees>
              <LongitudeDegrees>-5.72339843027293682098388671875</LongitudeDegrees>
            </Position>
            <AltitudeMeters>739</AltitudeMeters>
            <DistanceMeters>NAN</DistanceMeters>
          </Trackpoint>
          <Trackpoint>
            <Time>2019-10-06T09:21:11.000Z</Time>
            <Position>
              <LatitudeDegrees>41.3700838945806026458740234375</LatitudeDegrees>
              <LongitudeDegrees>-5.7235083170235157012939453125</LongitudeDegrees>
            </Position>
            <AltitudeMeters>737.5999755859375</AltitudeMeters>
            <DistanceMeters>NAN</DistanceMeters>
          </Trackpoint>
          <Trackpoint>
            <Time>2019-10-06T09:21:13.000Z</Time>
            <Position>
              <LatitudeDegrees>41.36991432867944240570068359375</LatitudeDegrees>
              <LongitudeDegrees>-5.72356782853603363037109375</LongitudeDegrees>
            </Position>
            <AltitudeMeters>737</AltitudeMeters>
            <DistanceMeters>NAN</DistanceMeters>
          </Trackpoint>
          <Trackpoint>
            <Time>2019-10-06T09:21:16.000Z</Time>
            <Position>
              <LatitudeDegrees>41.36966220103204250335693359375</LatitudeDegrees>
              <LongitudeDegrees>-5.723656006157398223876953125</LongitudeDegrees>
            </Position>
            <AltitudeMeters>736.4000244140625</AltitudeMeters>
            <DistanceMeters>NAN</DistanceMeters>
          </Trackpoint>
          <Trackpoint>
            <Time>2019-10-06T09:21:17.000Z</Time>
            <Position>
              <LatitudeDegrees>41.36957754381000995635986328125</LatitudeDegrees>
              <LongitudeDegrees>-5.72368576191365718841552734375</LongitudeDegrees>
            </Position>
            <AltitudeMeters>736.20001220703125</AltitudeMeters>
            <DistanceMeters>NAN</DistanceMeters>
          </Trackpoint>
          <Trackpoint>
            <Time>2019-10-06T09:21:18.000Z</Time>
            <Position>
              <LatitudeDegrees>41.369491629302501678466796875</LatitudeDegrees>
              <LongitudeDegrees>-5.72371358983218669891357421875</LongitudeDegrees>
            </Position>
            <AltitudeMeters>735.4000244140625</AltitudeMeters>
            <DistanceMeters>NAN</DistanceMeters>
          </Trackpoint>
          <Trackpoint>
            <Time>2019-10-06T09:21:23.000Z</Time>
            <Position>
              <LatitudeDegrees>41.36906976811587810516357421875</LatitudeDegrees>
              <LongitudeDegrees>-5.723858177661895751953125</LongitudeDegrees>
            </Position>
            <AltitudeMeters>734.5999755859375</AltitudeMeters>
            <DistanceMeters>NAN</DistanceMeters>
          </Trackpoint>
          <Trackpoint>
            <Time>2019-10-06T09:21:25.000Z</Time>
            <Position>
              <LatitudeDegrees>41.36890028603374958038330078125</LatitudeDegrees>
              <LongitudeDegrees>-5.72391408495604991912841796875</LongitudeDegrees>
            </Position>
            <AltitudeMeters>734.20001220703125</AltitudeMeters>
            <DistanceMeters>NAN</DistanceMeters>
          </Trackpoint>
          <Trackpoint>
            <Time>2019-10-06T09:21:27.000Z</Time>
            <Position>
              <LatitudeDegrees>41.3687330670654773712158203125</LatitudeDegrees>
              <LongitudeDegrees>-5.72397393174469470977783203125</LongitudeDegrees>
            </Position>
            <AltitudeMeters>733.79998779296875</AltitudeMeters>
            <DistanceMeters>NAN</DistanceMeters>
          </Trackpoint>
          <Trackpoint>
            <Time>2019-10-06T09:21:30.000Z</Time>
            <Position>
              <LatitudeDegrees>41.36848504655063152313232421875</LatitudeDegrees>
              <LongitudeDegrees>-5.72406001389026641845703125</LongitudeDegrees>
            </Position>
            <AltitudeMeters>733</AltitudeMeters>
            <DistanceMeters>NAN</DistanceMeters>
          </Trackpoint>
          <Trackpoint>
            <Time>2019-10-06T09:21:34.000Z</Time>
            <Position>
              <LatitudeDegrees>41.36816251091659069061279296875</LatitudeDegrees>
              <LongitudeDegrees>-5.72417040355503559112548828125</LongitudeDegrees>
            </Position>
            <AltitudeMeters>732.5999755859375</AltitudeMeters>
            <DistanceMeters>NAN</DistanceMeters>
          </Trackpoint>
          <Trackpoint>
            <Time>2019-10-06T09:21:41.000Z</Time>
            <Position>
              <LatitudeDegrees>41.367625482380390167236328125</LatitudeDegrees>
              <LongitudeDegrees>-5.724357068538665771484375</LongitudeDegrees>
            </Position>
            <AltitudeMeters>732.79998779296875</AltitudeMeters>
            <DistanceMeters>NAN</DistanceMeters>
          </Trackpoint>
          <Trackpoint>
            <Time>2019-10-06T09:21:44.000Z</Time>
            <Position>
              <LatitudeDegrees>41.36740579269826412200927734375</LatitudeDegrees>
              <LongitudeDegrees>-5.72442236356437206268310546875</LongitudeDegrees>
            </Position>
            <AltitudeMeters>733.20001220703125</AltitudeMeters>
            <DistanceMeters>NAN</DistanceMeters>
          </Trackpoint>
          <Trackpoint>
            <Time>2019-10-06T09:21:49.000Z</Time>
            <Position>
              <LatitudeDegrees>41.3670694269239902496337890625</LatitudeDegrees>
              <LongitudeDegrees>-5.72455815039575099945068359375</LongitudeDegrees>
            </Position>
            <AltitudeMeters>733.20001220703125</AltitudeMeters>
            <DistanceMeters>NAN</DistanceMeters>
          </Trackpoint>
          <Trackpoint>
            <Time>2019-10-06T09:21:50.000Z</Time>
            <Position>
              <LatitudeDegrees>41.36700329370796680450439453125</LatitudeDegrees>
              <LongitudeDegrees>-5.7245815359055995941162109375</LongitudeDegrees>
            </Position>
            <AltitudeMeters>733.4000244140625</AltitudeMeters>
            <DistanceMeters>NAN</DistanceMeters>
          </Trackpoint>
          <Trackpoint>
            <Time>2019-10-06T09:21:52.000Z</Time>
            <Position>
              <LatitudeDegrees>41.366873793303966522216796875</LatitudeDegrees>
              <LongitudeDegrees>-5.7246271334588527679443359375</LongitudeDegrees>
            </Position>
            <AltitudeMeters>734</AltitudeMeters>
            <DistanceMeters>NAN</DistanceMeters>
          </Trackpoint>
          <Trackpoint>
            <Time>2019-10-06T09:21:58.000Z</Time>
            <Position>
              <LatitudeDegrees>41.36652099899947643280029296875</LatitudeDegrees>
              <LongitudeDegrees>-5.72474741376936435699462890625</LongitudeDegrees>
            </Position>
            <AltitudeMeters>734.5999755859375</AltitudeMeters>
            <DistanceMeters>NAN</DistanceMeters>
          </Trackpoint>
          <Trackpoint>
            <Time>2019-10-06T09:22:00.000Z</Time>
            <Position>
              <LatitudeDegrees>41.3664206676185131072998046875</LatitudeDegrees>
              <LongitudeDegrees>-5.7247857190668582916259765625</LongitudeDegrees>
            </Position>
            <AltitudeMeters>735</AltitudeMeters>
            <DistanceMeters>NAN</DistanceMeters>
          </Trackpoint>
          <Trackpoint>
            <Time>2019-10-06T09:22:04.000Z</Time>
            <Position>
              <LatitudeDegrees>41.3662386126816272735595703125</LatitudeDegrees>
              <LongitudeDegrees>-5.72484791278839111328125</LongitudeDegrees>
            </Position>
            <AltitudeMeters>736.4000244140625</AltitudeMeters>
            <DistanceMeters>NAN</DistanceMeters>
          </Trackpoint>
          <Trackpoint>
            <Time>2019-10-06T09:22:05.000Z</Time>
            <Position>
              <LatitudeDegrees>41.3661936856806278228759765625</LatitudeDegrees>
              <LongitudeDegrees>-5.724863670766353607177734375</LongitudeDegrees>
            </Position>
            <AltitudeMeters>736.20001220703125</AltitudeMeters>
            <DistanceMeters>NAN</DistanceMeters>
          </Trackpoint>
          <Trackpoint>
            <Time>2019-10-06T09:22:11.000Z</Time>
            <Position>
              <LatitudeDegrees>41.3659273087978363037109375</LatitudeDegrees>
              <LongitudeDegrees>-5.72495629079639911651611328125</LongitudeDegrees>
            </Position>
            <AltitudeMeters>736.79998779296875</AltitudeMeters>
            <DistanceMeters>NAN</DistanceMeters>
          </Trackpoint>
          <Trackpoint>
            <Time>2019-10-06T09:22:13.000Z</Time>
            <Position>
              <LatitudeDegrees>41.36583904735743999481201171875</LatitudeDegrees>
              <LongitudeDegrees>-5.7249858789145946502685546875</LongitudeDegrees>
            </Position>
            <AltitudeMeters>737.20001220703125</AltitudeMeters>
            <DistanceMeters>NAN</DistanceMeters>
          </Trackpoint>
          <Trackpoint>
            <Time>2019-10-06T09:22:14.000Z</Time>
            <Position>
              <LatitudeDegrees>41.365795545279979705810546875</LatitudeDegrees>
              <LongitudeDegrees>-5.725000463426113128662109375</LongitudeDegrees>
            </Position>
            <AltitudeMeters>737.5999755859375</AltitudeMeters>
            <DistanceMeters>NAN</DistanceMeters>
          </Trackpoint>
          <Trackpoint>
            <Time>2019-10-06T09:22:17.000Z</Time>
            <Position>
              <LatitudeDegrees>41.36566604487597942352294921875</LatitudeDegrees>
              <LongitudeDegrees>-5.72504614479839801788330078125</LongitudeDegrees>
            </Position>
            <AltitudeMeters>738</AltitudeMeters>
            <DistanceMeters>NAN</DistanceMeters>
          </Trackpoint>
          <Trackpoint>
            <Time>2019-10-06T09:22:21.000Z</Time>
            <Position>
              <LatitudeDegrees>41.36549773626029491424560546875</LatitudeDegrees>
              <LongitudeDegrees>-5.7251069135963916778564453125</LongitudeDegrees>
            </Position>
            <AltitudeMeters>739</AltitudeMeters>
            <DistanceMeters>NAN</DistanceMeters>
          </Trackpoint>
          <Trackpoint>
            <Time>2019-10-06T09:22:22.000Z</Time>
            <Position>
              <LatitudeDegrees>41.3654550723731517791748046875</LatitudeDegrees>
              <LongitudeDegrees>-5.7251223362982273101806640625</LongitudeDegrees>
            </Position>
            <AltitudeMeters>738.5999755859375</AltitudeMeters>
            <DistanceMeters>NAN</DistanceMeters>
          </Trackpoint>
          <Trackpoint>
            <Time>2019-10-06T09:22:30.000Z</Time>
            <Position>
              <LatitudeDegrees>41.36510244570672512054443359375</LatitudeDegrees>
              <LongitudeDegrees>-5.7252393476665019989013671875</LongitudeDegrees>
            </Position>
            <AltitudeMeters>739.79998779296875</AltitudeMeters>
            <DistanceMeters>NAN</DistanceMeters>
          </Trackpoint>
          <Trackpoint>
            <Time>2019-10-06T09:22:31.000Z</Time>
            <Position>
              <LatitudeDegrees>41.36506120674312114715576171875</LatitudeDegrees>
              <LongitudeDegrees>-5.72525317780673503875732421875</LongitudeDegrees>
            </Position>
            <AltitudeMeters>739.79998779296875</AltitudeMeters>
            <DistanceMeters>NAN</DistanceMeters>
          </Trackpoint>
          <Trackpoint>
            <Time>2019-10-06T09:22:36.000Z</Time>
            <Position>
              <LatitudeDegrees>41.364860795438289642333984375</LatitudeDegrees>
              <LongitudeDegrees>-5.7253235019743442535400390625</LongitudeDegrees>
            </Position>
            <AltitudeMeters>740.20001220703125</AltitudeMeters>
            <DistanceMeters>NAN</DistanceMeters>
          </Trackpoint>
          <Trackpoint>
            <Time>2019-10-06T09:22:38.000Z</Time>
            <Position>
              <LatitudeDegrees>41.36478074826300144195556640625</LatitudeDegrees>
              <LongitudeDegrees>-5.7253503240644931793212890625</LongitudeDegrees>
            </Position>
            <AltitudeMeters>740</AltitudeMeters>
            <DistanceMeters>NAN</DistanceMeters>
          </Trackpoint>
          <Trackpoint>
            <Time>2019-10-06T09:22:50.000Z</Time>
            <Position>
              <LatitudeDegrees>41.364270709455013275146484375</LatitudeDegrees>
              <LongitudeDegrees>-5.72552072815597057342529296875</LongitudeDegrees>
            </Position>
            <AltitudeMeters>740</AltitudeMeters>
            <DistanceMeters>NAN</DistanceMeters>
          </Trackpoint>
          <Trackpoint>
            <Time>2019-10-06T09:22:57.000Z</Time>
            <Position>
              <LatitudeDegrees>41.36390718631446361541748046875</LatitudeDegrees>
              <LongitudeDegrees>-5.72564125992357730865478515625</LongitudeDegrees>
            </Position>
            <AltitudeMeters>738.79998779296875</AltitudeMeters>
            <DistanceMeters>NAN</DistanceMeters>
          </Trackpoint>
          <Trackpoint>
            <Time>2019-10-06T09:22:58.000Z</Time>
            <Position>
              <LatitudeDegrees>41.36385060846805572509765625</LatitudeDegrees>
              <LongitudeDegrees>-5.725661627948284149169921875</LongitudeDegrees>
            </Position>
            <AltitudeMeters>738.5999755859375</AltitudeMeters>
            <DistanceMeters>NAN</DistanceMeters>
          </Trackpoint>
          <Trackpoint>
            <Time>2019-10-06T09:23:02.000Z</Time>
            <Position>
              <LatitudeDegrees>41.36361063458025455474853515625</LatitudeDegrees>
              <LongitudeDegrees>-5.72574553079903125762939453125</LongitudeDegrees>
            </Position>
            <AltitudeMeters>737.20001220703125</AltitudeMeters>
            <DistanceMeters>NAN</DistanceMeters>
          </Trackpoint>
          <Trackpoint>
            <Time>2019-10-06T09:23:05.000Z</Time>
            <Position>
              <LatitudeDegrees>41.36341684497892856597900390625</LatitudeDegrees>
              <LongitudeDegrees>-5.7258076407015323638916015625</LongitudeDegrees>
            </Position>
            <AltitudeMeters>736.4000244140625</AltitudeMeters>
            <DistanceMeters>NAN</DistanceMeters>
          </Trackpoint>
          <Trackpoint>
            <Time>2019-10-06T09:23:07.000Z</Time>
            <Position>
              <LatitudeDegrees>41.363283656537532806396484375</LatitudeDegrees>
              <LongitudeDegrees>-5.7258532382547855377197265625</LongitudeDegrees>
            </Position>
            <AltitudeMeters>736</AltitudeMeters>
            <DistanceMeters>NAN</DistanceMeters>
          </Trackpoint>
          <Trackpoint>
            <Time>2019-10-06T09:23:09.000Z</Time>
            <Position>
              <LatitudeDegrees>41.3631483726203441619873046875</LatitudeDegrees>
              <LongitudeDegrees>-5.725899673998355865478515625</LongitudeDegrees>
            </Position>
            <AltitudeMeters>735.5999755859375</AltitudeMeters>
            <DistanceMeters>NAN</DistanceMeters>
          </Trackpoint>
          <Trackpoint>
            <Time>2019-10-06T09:23:12.000Z</Time>
            <Position>
              <LatitudeDegrees>41.3629418425261974334716796875</LatitudeDegrees>
              <LongitudeDegrees>-5.72597234509885311126708984375</LongitudeDegrees>
            </Position>
            <AltitudeMeters>735</AltitudeMeters>
            <DistanceMeters>NAN</DistanceMeters>
          </Trackpoint>
          <Trackpoint>
            <Time>2019-10-06T09:23:14.000Z</Time>
            <Position>
              <LatitudeDegrees>41.362804882228374481201171875</LatitudeDegrees>
              <LongitudeDegrees>-5.7260181941092014312744140625</LongitudeDegrees>
            </Position>
            <AltitudeMeters>734.4000244140625</AltitudeMeters>
            <DistanceMeters>NAN</DistanceMeters>
          </Trackpoint>
          <Trackpoint>
            <Time>2019-10-06T09:23:15.000Z</Time>
            <Position>
              <LatitudeDegrees>41.36273606680333614349365234375</LatitudeDegrees>
              <LongitudeDegrees>-5.72603680193424224853515625</LongitudeDegrees>
            </Position>
            <AltitudeMeters>733.79998779296875</AltitudeMeters>
            <DistanceMeters>NAN</DistanceMeters>
          </Trackpoint>
          <Trackpoint>
            <Time>2019-10-06T09:23:17.000Z</Time>
            <Position>
              <LatitudeDegrees>41.36259994469583034515380859375</LatitudeDegrees>
              <LongitudeDegrees>-5.7260830700397491455078125</LongitudeDegrees>
            </Position>
            <AltitudeMeters>734</AltitudeMeters>
            <DistanceMeters>NAN</DistanceMeters>
          </Trackpoint>
          <Trackpoint>
            <Time>2019-10-06T09:23:21.000Z</Time>
            <Position>
              <LatitudeDegrees>41.36232585646212100982666015625</LatitudeDegrees>
              <LongitudeDegrees>-5.7261747680604457855224609375</LongitudeDegrees>
            </Position>
            <AltitudeMeters>734.20001220703125</AltitudeMeters>
            <DistanceMeters>NAN</DistanceMeters>
          </Trackpoint>
          <Trackpoint>
            <Time>2019-10-06T09:23:29.000Z</Time>
            <Position>
              <LatitudeDegrees>41.3618253730237483978271484375</LatitudeDegrees>
              <LongitudeDegrees>-5.72634081356227397918701171875</LongitudeDegrees>
            </Position>
            <AltitudeMeters>734.5999755859375</AltitudeMeters>
            <DistanceMeters>NAN</DistanceMeters>
          </Trackpoint>
          <Trackpoint>
            <Time>2019-10-06T09:23:30.000Z</Time>
            <Position>
              <LatitudeDegrees>41.361768878996372222900390625</LatitudeDegrees>
              <LongitudeDegrees>-5.726358331739902496337890625</LongitudeDegrees>
            </Position>
            <AltitudeMeters>735</AltitudeMeters>
            <DistanceMeters>NAN</DistanceMeters>
          </Trackpoint>
          <Trackpoint>
            <Time>2019-10-06T09:23:37.000Z</Time>
            <Position>
              <LatitudeDegrees>41.361418180167675018310546875</LatitudeDegrees>
              <LongitudeDegrees>-5.726470984518527984619140625</LongitudeDegrees>
            </Position>
            <AltitudeMeters>736.4000244140625</AltitudeMeters>
            <DistanceMeters>NAN</DistanceMeters>
          </Trackpoint>
          <Trackpoint>
            <Time>2019-10-06T09:23:44.000Z</Time>
            <Position>
              <LatitudeDegrees>41.36111718602478504180908203125</LatitudeDegrees>
              <LongitudeDegrees>-5.72656662203371524810791015625</LongitudeDegrees>
            </Position>
            <AltitudeMeters>737.4000244140625</AltitudeMeters>
            <DistanceMeters>NAN</DistanceMeters>
          </Trackpoint>
          <Trackpoint>
            <Time>2019-10-06T09:23:45.000Z</Time>
            <Position>
              <LatitudeDegrees>41.361074857413768768310546875</LatitudeDegrees>
              <LongitudeDegrees>-5.72657994925975799560546875</LongitudeDegrees>
            </Position>
            <AltitudeMeters>737.4000244140625</AltitudeMeters>
            <DistanceMeters>NAN</DistanceMeters>
          </Trackpoint>
          <Trackpoint>
            <Time>2019-10-06T09:23:48.000Z</Time>
            <Position>
              <LatitudeDegrees>41.360948793590068817138671875</LatitudeDegrees>
              <LongitudeDegrees>-5.7266275584697723388671875</LongitudeDegrees>
            </Position>
            <AltitudeMeters>737.4000244140625</AltitudeMeters>
            <DistanceMeters>NAN</DistanceMeters>
          </Trackpoint>
          <Trackpoint>
            <Time>2019-10-06T09:23:53.000Z</Time>
            <Position>
              <LatitudeDegrees>41.36073949746787548065185546875</LatitudeDegrees>
              <LongitudeDegrees>-5.7266977988183498382568359375</LongitudeDegrees>
            </Position>
            <AltitudeMeters>738.20001220703125</AltitudeMeters>
            <DistanceMeters>NAN</DistanceMeters>
          </Trackpoint>
          <Trackpoint>
            <Time>2019-10-06T09:23:55.000Z</Time>
            <Position>
              <LatitudeDegrees>41.36065618135035037994384765625</LatitudeDegrees>
              <LongitudeDegrees>-5.72672252543270587921142578125</LongitudeDegrees>
            </Position>
            <AltitudeMeters>738.4000244140625</AltitudeMeters>
            <DistanceMeters>NAN</DistanceMeters>
          </Trackpoint>
          <Trackpoint>
            <Time>2019-10-06T09:23:56.000Z</Time>
            <Position>
              <LatitudeDegrees>41.36061443947255611419677734375</LatitudeDegrees>
              <LongitudeDegrees>-5.7267350144684314727783203125</LongitudeDegrees>
            </Position>
            <AltitudeMeters>738.5999755859375</AltitudeMeters>
            <DistanceMeters>NAN</DistanceMeters>
          </Trackpoint>
          <Trackpoint>
            <Time>2019-10-06T09:24:01.000Z</Time>
            <Position>
              <LatitudeDegrees>41.36040338315069675445556640625</LatitudeDegrees>
              <LongitudeDegrees>-5.72679360397160053253173828125</LongitudeDegrees>
            </Position>
            <AltitudeMeters>739</AltitudeMeters>
            <DistanceMeters>NAN</DistanceMeters>
          </Trackpoint>
          <Trackpoint>
            <Time>2019-10-06T09:24:02.000Z</Time>
            <Position>
              <LatitudeDegrees>41.36036164127290248870849609375</LatitudeDegrees>
              <LongitudeDegrees>-5.72680684737861156463623046875</LongitudeDegrees>
            </Position>
            <AltitudeMeters>739.5999755859375</AltitudeMeters>
            <DistanceMeters>NAN</DistanceMeters>
          </Trackpoint>
          <Trackpoint>
            <Time>2019-10-06T09:24:07.000Z</Time>
            <Position>
              <LatitudeDegrees>41.3601550273597240447998046875</LatitudeDegrees>
              <LongitudeDegrees>-5.72687189094722270965576171875</LongitudeDegrees>
            </Position>
            <AltitudeMeters>740.20001220703125</AltitudeMeters>
            <DistanceMeters>NAN</DistanceMeters>
          </Trackpoint>
          <Trackpoint>
            <Time>2019-10-06T09:24:12.000Z</Time>
            <Position>
              <LatitudeDegrees>41.359953694045543670654296875</LatitudeDegrees>
              <LongitudeDegrees>-5.7269244454801082611083984375</LongitudeDegrees>
            </Position>
            <AltitudeMeters>740.5999755859375</AltitudeMeters>
            <DistanceMeters>NAN</DistanceMeters>
          </Trackpoint>
          <Trackpoint>
            <Time>2019-10-06T09:24:17.000Z</Time>
            <Position>
              <LatitudeDegrees>41.35976560413837432861328125</LatitudeDegrees>
              <LongitudeDegrees>-5.72697884403169155120849609375</LongitudeDegrees>
            </Position>
            <AltitudeMeters>741.20001220703125</AltitudeMeters>
            <DistanceMeters>NAN</DistanceMeters>
          </Trackpoint>
          <Trackpoint>
            <Time>2019-10-06T09:24:18.000Z</Time>
            <Position>
              <LatitudeDegrees>41.35972780175507068634033203125</LatitudeDegrees>
              <LongitudeDegrees>-5.72699041105806827545166015625</LongitudeDegrees>
            </Position>
            <AltitudeMeters>741.5999755859375</AltitudeMeters>
            <DistanceMeters>NAN</DistanceMeters>
          </Trackpoint>
          <Trackpoint>
            <Time>2019-10-06T09:24:23.000Z</Time>
            <Position>
              <LatitudeDegrees>41.3595401309430599212646484375</LatitudeDegrees>
              <LongitudeDegrees>-5.7270481623709201812744140625</LongitudeDegrees>
            </Position>
            <AltitudeMeters>742.5999755859375</AltitudeMeters>
            <DistanceMeters>NAN</DistanceMeters>
          </Trackpoint>
          <Trackpoint>
            <Time>2019-10-06T09:24:24.000Z</Time>
            <Position>
              <LatitudeDegrees>41.359501071274280548095703125</LatitudeDegrees>
              <LongitudeDegrees>-5.72706014849245548248291015625</LongitudeDegrees>
            </Position>
            <AltitudeMeters>742.5999755859375</AltitudeMeters>
            <DistanceMeters>NAN</DistanceMeters>
          </Trackpoint>
          <Trackpoint>
            <Time>2019-10-06T09:24:25.000Z</Time>
            <Position>
              <LatitudeDegrees>41.35946226306259632110595703125</LatitudeDegrees>
              <LongitudeDegrees>-5.7270739786326885223388671875</LongitudeDegrees>
            </Position>
            <AltitudeMeters>742.79998779296875</AltitudeMeters>
            <DistanceMeters>NAN</DistanceMeters>
          </Trackpoint>
          <Trackpoint>
            <Time>2019-10-06T09:24:31.000Z</Time>
            <Position>
              <LatitudeDegrees>41.35924098081886768341064453125</LatitudeDegrees>
              <LongitudeDegrees>-5.72714933194220066070556640625</LongitudeDegrees>
            </Position>
            <AltitudeMeters>743.79998779296875</AltitudeMeters>
            <DistanceMeters>NAN</DistanceMeters>
          </Trackpoint>
          <Trackpoint>
            <Time>2019-10-06T09:24:37.000Z</Time>
            <Position>
              <LatitudeDegrees>41.359038054943084716796875</LatitudeDegrees>
              <LongitudeDegrees>-5.72721269913017749786376953125</LongitudeDegrees>
            </Position>
            <AltitudeMeters>744.5999755859375</AltitudeMeters>
            <DistanceMeters>NAN</DistanceMeters>
          </Trackpoint>
          <Trackpoint>
            <Time>2019-10-06T09:24:38.000Z</Time>
            <Position>
              <LatitudeDegrees>41.35900494642555713653564453125</LatitudeDegrees>
              <LongitudeDegrees>-5.72722577489912509918212890625</LongitudeDegrees>
            </Position>
            <AltitudeMeters>744.79998779296875</AltitudeMeters>
            <DistanceMeters>NAN</DistanceMeters>
          </Trackpoint>
          <Trackpoint>
            <Time>2019-10-06T09:24:47.000Z</Time>
            <Position>
              <LatitudeDegrees>41.35869598947465419769287109375</LatitudeDegrees>
              <LongitudeDegrees>-5.72731965221464633941650390625</LongitudeDegrees>
            </Position>
            <AltitudeMeters>745.79998779296875</AltitudeMeters>
            <DistanceMeters>NAN</DistanceMeters>
          </Trackpoint>
          <Trackpoint>
            <Time>2019-10-06T09:24:49.000Z</Time>
            <Position>
              <LatitudeDegrees>41.3586174510419368743896484375</LatitudeDegrees>
              <LongitudeDegrees>-5.7273438759148120880126953125</LongitudeDegrees>
            </Position>
            <AltitudeMeters>746</AltitudeMeters>
            <DistanceMeters>NAN</DistanceMeters>
          </Trackpoint>
          <Trackpoint>
            <Time>2019-10-06T09:24:54.000Z</Time>
            <Position>
              <LatitudeDegrees>41.35841754265129566192626953125</LatitudeDegrees>
              <LongitudeDegrees>-5.7274065725505352020263671875</LongitudeDegrees>
            </Position>
            <AltitudeMeters>746.4000244140625</AltitudeMeters>
            <DistanceMeters>NAN</DistanceMeters>
          </Trackpoint>
          <Trackpoint>
            <Time>2019-10-06T09:25:00.000Z</Time>
            <Position>
              <LatitudeDegrees>41.35817446745932102203369140625</LatitudeDegrees>
              <LongitudeDegrees>-5.72748921811580657958984375</LongitudeDegrees>
            </Position>
            <AltitudeMeters>746.20001220703125</AltitudeMeters>
            <DistanceMeters>NAN</DistanceMeters>
          </Trackpoint>
          <Trackpoint>
            <Time>2019-10-06T09:25:02.000Z</Time>
            <Position>
              <LatitudeDegrees>41.35809131897985935211181640625</LatitudeDegrees>
              <LongitudeDegrees>-5.7275148667395114898681640625</LongitudeDegrees>
            </Position>
            <AltitudeMeters>746.20001220703125</AltitudeMeters>
            <DistanceMeters>NAN</DistanceMeters>
          </Trackpoint>
          <Trackpoint>
            <Time>2019-10-06T09:25:03.000Z</Time>
            <Position>
              <LatitudeDegrees>41.35804991237819194793701171875</LatitudeDegrees>
              <LongitudeDegrees>-5.72753213346004486083984375</LongitudeDegrees>
            </Position>
            <AltitudeMeters>746.20001220703125</AltitudeMeters>
            <DistanceMeters>NAN</DistanceMeters>
          </Trackpoint>
          <Trackpoint>
            <Time>2019-10-06T09:25:07.000Z</Time>
            <Position>
              <LatitudeDegrees>41.3578721322119235992431640625</LatitudeDegrees>
              <LongitudeDegrees>-5.7275976799428462982177734375</LongitudeDegrees>
            </Position>
            <AltitudeMeters>745.4000244140625</AltitudeMeters>
            <DistanceMeters>NAN</DistanceMeters>
          </Trackpoint>
          <Trackpoint>
            <Time>2019-10-06T09:25:09.000Z</Time>
            <Position>
              <LatitudeDegrees>41.357779763638973236083984375</LatitudeDegrees>
              <LongitudeDegrees>-5.72763397358357906341552734375</LongitudeDegrees>
            </Position>
            <AltitudeMeters>745</AltitudeMeters>
            <DistanceMeters>NAN</DistanceMeters>
          </Trackpoint>
          <Trackpoint>
            <Time>2019-10-06T09:25:12.000Z</Time>
            <Position>
              <LatitudeDegrees>41.3576340861618518829345703125</LatitudeDegrees>
              <LongitudeDegrees>-5.727694071829319000244140625</LongitudeDegrees>
            </Position>
            <AltitudeMeters>744.5999755859375</AltitudeMeters>
            <DistanceMeters>NAN</DistanceMeters>
          </Trackpoint>
          <Trackpoint>
            <Time>2019-10-06T09:25:16.000Z</Time>
            <Position>
              <LatitudeDegrees>41.3574354350566864013671875</LatitudeDegrees>
              <LongitudeDegrees>-5.7277753762900829315185546875</LongitudeDegrees>
            </Position>
            <AltitudeMeters>744.20001220703125</AltitudeMeters>
            <DistanceMeters>NAN</DistanceMeters>
          </Trackpoint>
          <Trackpoint>
            <Time>2019-10-06T09:25:17.000Z</Time>
            <Position>
              <LatitudeDegrees>41.3573843054473400115966796875</LatitudeDegrees>
              <LongitudeDegrees>-5.72779473848640918731689453125</LongitudeDegrees>
            </Position>
            <AltitudeMeters>744.5999755859375</AltitudeMeters>
            <DistanceMeters>NAN</DistanceMeters>
          </Trackpoint>
          <Trackpoint>
            <Time>2019-10-06T09:25:20.000Z</Time>
            <Position>
              <LatitudeDegrees>41.35722731240093708038330078125</LatitudeDegrees>
              <LongitudeDegrees>-5.72785156778991222381591796875</LongitudeDegrees>
            </Position>
            <AltitudeMeters>743.79998779296875</AltitudeMeters>
            <DistanceMeters>NAN</DistanceMeters>
          </Trackpoint>
          <Trackpoint>
            <Time>2019-10-06T09:25:24.000Z</Time>
            <Position>
              <LatitudeDegrees>41.35700158774852752685546875</LatitudeDegrees>
              <LongitudeDegrees>-5.72792365215718746185302734375</LongitudeDegrees>
            </Position>
            <AltitudeMeters>742.20001220703125</AltitudeMeters>
            <DistanceMeters>NAN</DistanceMeters>
          </Trackpoint>
          <Trackpoint>
            <Time>2019-10-06T09:25:25.000Z</Time>
            <Position>
              <LatitudeDegrees>41.35694366879761219024658203125</LatitudeDegrees>
              <LongitudeDegrees>-5.727940835058689117431640625</LongitudeDegrees>
            </Position>
            <AltitudeMeters>742.20001220703125</AltitudeMeters>
            <DistanceMeters>NAN</DistanceMeters>
          </Trackpoint>
          <Trackpoint>
            <Time>2019-10-06T09:25:29.000Z</Time>
            <Position>
              <LatitudeDegrees>41.35670931078493595123291015625</LatitudeDegrees>
              <LongitudeDegrees>-5.7280033640563488006591796875</LongitudeDegrees>
            </Position>
            <AltitudeMeters>742.20001220703125</AltitudeMeters>
            <DistanceMeters>NAN</DistanceMeters>
          </Trackpoint>
          <Trackpoint>
            <Time>2019-10-06T09:25:32.000Z</Time>
            <Position>
              <LatitudeDegrees>41.35652205906808376312255859375</LatitudeDegrees>
              <LongitudeDegrees>-5.72804971598088741302490234375</LongitudeDegrees>
            </Position>
            <AltitudeMeters>741.79998779296875</AltitudeMeters>
            <DistanceMeters>NAN</DistanceMeters>
          </Trackpoint>
          <Trackpoint>
            <Time>2019-10-06T09:25:33.000Z</Time>
            <Position>
              <LatitudeDegrees>41.3564586080610752105712890625</LatitudeDegrees>
              <LongitudeDegrees>-5.7280640490353107452392578125</LongitudeDegrees>
            </Position>
            <AltitudeMeters>741.5999755859375</AltitudeMeters>
            <DistanceMeters>NAN</DistanceMeters>
          </Trackpoint>
          <Trackpoint>
            <Time>2019-10-06T09:25:34.000Z</Time>
            <Position>
              <LatitudeDegrees>41.35639415122568607330322265625</LatitudeDegrees>
              <LongitudeDegrees>-5.72807704098522663116455078125</LongitudeDegrees>
            </Position>
            <AltitudeMeters>741</AltitudeMeters>
            <DistanceMeters>NAN</DistanceMeters>
          </Trackpoint>
          <Trackpoint>
            <Time>2019-10-06T09:25:38.000Z</Time>
            <Position>
              <LatitudeDegrees>41.35613523423671722412109375</LatitudeDegrees>
              <LongitudeDegrees>-5.72811408899724483489990234375</LongitudeDegrees>
            </Position>
            <AltitudeMeters>740.20001220703125</AltitudeMeters>
            <DistanceMeters>NAN</DistanceMeters>
          </Trackpoint>
          <Trackpoint>
            <Time>2019-10-06T09:25:41.000Z</Time>
            <Position>
              <LatitudeDegrees>41.355945132672786712646484375</LatitudeDegrees>
              <LongitudeDegrees>-5.7281528972089290618896484375</LongitudeDegrees>
            </Position>
            <AltitudeMeters>741</AltitudeMeters>
            <DistanceMeters>NAN</DistanceMeters>
          </Trackpoint>
          <Trackpoint>
            <Time>2019-10-06T09:25:49.000Z</Time>
            <Position>
              <LatitudeDegrees>41.35545604862272739410400390625</LatitudeDegrees>
              <LongitudeDegrees>-5.7282474450767040252685546875</LongitudeDegrees>
            </Position>
            <AltitudeMeters>740.5999755859375</AltitudeMeters>
            <DistanceMeters>NAN</DistanceMeters>
          </Trackpoint>
          <Trackpoint>
            <Time>2019-10-06T09:25:52.000Z</Time>
            <Position>
              <LatitudeDegrees>41.35530282743275165557861328125</LatitudeDegrees>
              <LongitudeDegrees>-5.728282146155834197998046875</LongitudeDegrees>
            </Position>
            <AltitudeMeters>742.4000244140625</AltitudeMeters>
            <DistanceMeters>NAN</DistanceMeters>
          </Trackpoint>
          <Trackpoint>
            <Time>2019-10-06T09:25:56.000Z</Time>
            <Position>
              <LatitudeDegrees>41.35511197149753570556640625</LatitudeDegrees>
              <LongitudeDegrees>-5.72831173427402973175048828125</LongitudeDegrees>
            </Position>
            <AltitudeMeters>742.5999755859375</AltitudeMeters>
            <DistanceMeters>NAN</DistanceMeters>
          </Trackpoint>
          <Trackpoint>
            <Time>2019-10-06T09:25:59.000Z</Time>
            <Position>
              <LatitudeDegrees>41.35497392155230045318603515625</LatitudeDegrees>
              <LongitudeDegrees>-5.72833185084164142608642578125</LongitudeDegrees>
            </Position>
            <AltitudeMeters>743</AltitudeMeters>
            <DistanceMeters>NAN</DistanceMeters>
          </Trackpoint>
          <Trackpoint>
            <Time>2019-10-06T09:26:01.000Z</Time>
            <Position>
              <LatitudeDegrees>41.35488138534128665924072265625</LatitudeDegrees>
              <LongitudeDegrees>-5.728350542485713958740234375</LongitudeDegrees>
            </Position>
            <AltitudeMeters>743.5999755859375</AltitudeMeters>
            <DistanceMeters>NAN</DistanceMeters>
          </Trackpoint>
          <Trackpoint>
            <Time>2019-10-06T09:26:04.000Z</Time>
            <Position>
              <LatitudeDegrees>41.3547426648437976837158203125</LatitudeDegrees>
              <LongitudeDegrees>-5.72837476618587970733642578125</LongitudeDegrees>
            </Position>
            <AltitudeMeters>743.79998779296875</AltitudeMeters>
            <DistanceMeters>NAN</DistanceMeters>
          </Trackpoint>
          <Trackpoint>
            <Time>2019-10-06T09:26:06.000Z</Time>
            <Position>
              <LatitudeDegrees>41.35464903898537158966064453125</LatitudeDegrees>
              <LongitudeDegrees>-5.72839178144931793212890625</LongitudeDegrees>
            </Position>
            <AltitudeMeters>744.20001220703125</AltitudeMeters>
            <DistanceMeters>NAN</DistanceMeters>
          </Trackpoint>
          <Trackpoint>
            <Time>2019-10-06T09:26:08.000Z</Time>
            <Position>
              <LatitudeDegrees>41.35455264709889888763427734375</LatitudeDegrees>
              <LongitudeDegrees>-5.72840921580791473388671875</LongitudeDegrees>
            </Position>
            <AltitudeMeters>744.79998779296875</AltitudeMeters>
            <DistanceMeters>NAN</DistanceMeters>
          </Trackpoint>
          <Trackpoint>
            <Time>2019-10-06T09:26:12.000Z</Time>
            <Position>
              <LatitudeDegrees>41.35436363518238067626953125</LatitudeDegrees>
              <LongitudeDegrees>-5.72844400070607662200927734375</LongitudeDegrees>
            </Position>
            <AltitudeMeters>745</AltitudeMeters>
            <DistanceMeters>NAN</DistanceMeters>
          </Trackpoint>
          <Trackpoint>
            <Time>2019-10-06T09:26:15.000Z</Time>
            <Position>
              <LatitudeDegrees>41.35421871207654476165771484375</LatitudeDegrees>
              <LongitudeDegrees>-5.72846964932978153228759765625</LongitudeDegrees>
            </Position>
            <AltitudeMeters>744.79998779296875</AltitudeMeters>
            <DistanceMeters>NAN</DistanceMeters>
          </Trackpoint>
          <Trackpoint>
            <Time>2019-10-06T09:26:25.000Z</Time>
            <Position>
              <LatitudeDegrees>41.35372770018875598907470703125</LatitudeDegrees>
              <LongitudeDegrees>-5.72856654413044452667236328125</LongitudeDegrees>
            </Position>
            <AltitudeMeters>745</AltitudeMeters>
            <DistanceMeters>NAN</DistanceMeters>
          </Trackpoint>
          <Trackpoint>
            <Time>2019-10-06T09:26:32.000Z</Time>
            <Position>
              <LatitudeDegrees>41.3533412106335163116455078125</LatitudeDegrees>
              <LongitudeDegrees>-5.728636197745800018310546875</LongitudeDegrees>
            </Position>
            <AltitudeMeters>743.79998779296875</AltitudeMeters>
            <DistanceMeters>NAN</DistanceMeters>
          </Trackpoint>
          <Trackpoint>
            <Time>2019-10-06T09:26:33.000Z</Time>
            <Position>
              <LatitudeDegrees>41.35328429751098155975341796875</LatitudeDegrees>
              <LongitudeDegrees>-5.72864927351474761962890625</LongitudeDegrees>
            </Position>
            <AltitudeMeters>743.5999755859375</AltitudeMeters>
            <DistanceMeters>NAN</DistanceMeters>
          </Trackpoint>
          <Trackpoint>
            <Time>2019-10-06T09:26:38.000Z</Time>
            <Position>
              <LatitudeDegrees>41.3529767654836177825927734375</LatitudeDegrees>
              <LongitudeDegrees>-5.72870752774178981781005859375</LongitudeDegrees>
            </Position>
            <AltitudeMeters>742.5999755859375</AltitudeMeters>
            <DistanceMeters>NAN</DistanceMeters>
          </Trackpoint>
          <Trackpoint>
            <Time>2019-10-06T09:26:42.000Z</Time>
            <Position>
              <LatitudeDegrees>41.35272338055074214935302734375</LatitudeDegrees>
              <LongitudeDegrees>-5.72875144891440868377685546875</LongitudeDegrees>
            </Position>
            <AltitudeMeters>742.4000244140625</AltitudeMeters>
            <DistanceMeters>NAN</DistanceMeters>
          </Trackpoint>
          <Trackpoint>
            <Time>2019-10-06T09:26:45.000Z</Time>
            <Position>
              <LatitudeDegrees>41.35253596119582653045654296875</LatitudeDegrees>
              <LongitudeDegrees>-5.72878497652709484100341796875</LongitudeDegrees>
            </Position>
            <AltitudeMeters>741.79998779296875</AltitudeMeters>
            <DistanceMeters>NAN</DistanceMeters>
          </Trackpoint>
          <Trackpoint>
            <Time>2019-10-06T09:26:48.000Z</Time>
            <Position>
              <LatitudeDegrees>41.3523472845554351806640625</LatitudeDegrees>
              <LongitudeDegrees>-5.72881816886365413665771484375</LongitudeDegrees>
            </Position>
            <AltitudeMeters>741.5999755859375</AltitudeMeters>
            <DistanceMeters>NAN</DistanceMeters>
          </Trackpoint>
          <Trackpoint>
            <Time>2019-10-06T09:26:50.000Z</Time>
            <Position>
              <LatitudeDegrees>41.352224238216876983642578125</LatitudeDegrees>
              <LongitudeDegrees>-5.728846751153469085693359375</LongitudeDegrees>
            </Position>
            <AltitudeMeters>741.5999755859375</AltitudeMeters>
            <DistanceMeters>NAN</DistanceMeters>
          </Trackpoint>
          <Trackpoint>
            <Time>2019-10-06T09:26:57.000Z</Time>
            <Position>
              <LatitudeDegrees>41.351809836924076080322265625</LatitudeDegrees>
              <LongitudeDegrees>-5.7289364375174045562744140625</LongitudeDegrees>
            </Position>
            <AltitudeMeters>741.79998779296875</AltitudeMeters>
            <DistanceMeters>NAN</DistanceMeters>
          </Trackpoint>
          <Trackpoint>
            <Time>2019-10-06T09:26:58.000Z</Time>
            <Position>
              <LatitudeDegrees>41.3517550192773342132568359375</LatitudeDegrees>
              <LongitudeDegrees>-5.72896049357950687408447265625</LongitudeDegrees>
            </Position>
            <AltitudeMeters>742</AltitudeMeters>
            <DistanceMeters>NAN</DistanceMeters>
          </Trackpoint>
          <Trackpoint>
            <Time>2019-10-06T09:27:02.000Z</Time>
            <Position>
              <LatitudeDegrees>41.3515667617321014404296875</LatitudeDegrees>
              <LongitudeDegrees>-5.72912695817649364471435546875</LongitudeDegrees>
            </Position>
            <AltitudeMeters>742</AltitudeMeters>
            <DistanceMeters>NAN</DistanceMeters>
          </Trackpoint>
          <Trackpoint>
            <Time>2019-10-06T09:27:03.000Z</Time>
            <Position>
              <LatitudeDegrees>41.3515213318169116973876953125</LatitudeDegrees>
              <LongitudeDegrees>-5.7291607372462749481201171875</LongitudeDegrees>
            </Position>
            <AltitudeMeters>742.20001220703125</AltitudeMeters>
            <DistanceMeters>NAN</DistanceMeters>
          </Trackpoint>
          <Trackpoint>
            <Time>2019-10-06T09:27:06.000Z</Time>
            <Position>
              <LatitudeDegrees>41.35137070901691913604736328125</LatitudeDegrees>
              <LongitudeDegrees>-5.72918529622256755828857421875</LongitudeDegrees>
            </Position>
            <AltitudeMeters>742.79998779296875</AltitudeMeters>
            <DistanceMeters>NAN</DistanceMeters>
          </Trackpoint>
          <Trackpoint>
            <Time>2019-10-06T09:27:10.000Z</Time>
            <Position>
              <LatitudeDegrees>41.35117976926267147064208984375</LatitudeDegrees>
              <LongitudeDegrees>-5.72907046414911746978759765625</LongitudeDegrees>
            </Position>
            <AltitudeMeters>743.20001220703125</AltitudeMeters>
            <DistanceMeters>NAN</DistanceMeters>
          </Trackpoint>
          <Trackpoint>
            <Time>2019-10-06T09:27:13.000Z</Time>
            <Position>
              <LatitudeDegrees>41.35101581923663616180419921875</LatitudeDegrees>
              <LongitudeDegrees>-5.72907976806163787841796875</LongitudeDegrees>
            </Position>
            <AltitudeMeters>742.79998779296875</AltitudeMeters>
            <DistanceMeters>NAN</DistanceMeters>
          </Trackpoint>
          <Trackpoint>
            <Time>2019-10-06T09:27:14.000Z</Time>
            <Position>
              <LatitudeDegrees>41.35096033103764057159423828125</LatitudeDegrees>
              <LongitudeDegrees>-5.7290883176028728485107421875</LongitudeDegrees>
            </Position>
            <AltitudeMeters>742.79998779296875</AltitudeMeters>
            <DistanceMeters>NAN</DistanceMeters>
          </Trackpoint>
          <Trackpoint>
            <Time>2019-10-06T09:27:20.000Z</Time>
            <Position>
              <LatitudeDegrees>41.35065690614283084869384765625</LatitudeDegrees>
              <LongitudeDegrees>-5.72914556600153446197509765625</LongitudeDegrees>
            </Position>
            <AltitudeMeters>742.79998779296875</AltitudeMeters>
            <DistanceMeters>NAN</DistanceMeters>
          </Trackpoint>
          <Trackpoint>
            <Time>2019-10-06T09:27:21.000Z</Time>
            <Position>
              <LatitudeDegrees>41.350614912807941436767578125</LatitudeDegrees>
              <LongitudeDegrees>-5.7291536964476108551025390625</LongitudeDegrees>
            </Position>
            <AltitudeMeters>743.20001220703125</AltitudeMeters>
            <DistanceMeters>NAN</DistanceMeters>
          </Trackpoint>
          <Trackpoint>
            <Time>2019-10-06T09:27:23.000Z</Time>
            <Position>
              <LatitudeDegrees>41.3505309261381626129150390625</LatitudeDegrees>
              <LongitudeDegrees>-5.729168616235256195068359375</LongitudeDegrees>
            </Position>
            <AltitudeMeters>743.5999755859375</AltitudeMeters>
            <DistanceMeters>NAN</DistanceMeters>
          </Trackpoint>
          <Trackpoint>
            <Time>2019-10-06T09:27:25.000Z</Time>
            <Position>
              <LatitudeDegrees>41.35044484399259090423583984375</LatitudeDegrees>
              <LongitudeDegrees>-5.72918697260320186614990234375</LongitudeDegrees>
            </Position>
            <AltitudeMeters>743.79998779296875</AltitudeMeters>
            <DistanceMeters>NAN</DistanceMeters>
          </Trackpoint>
          <Trackpoint>
            <Time>2019-10-06T09:27:28.000Z</Time>
            <Position>
              <LatitudeDegrees>41.3503089733421802520751953125</LatitudeDegrees>
              <LongitudeDegrees>-5.72921111248433589935302734375</LongitudeDegrees>
            </Position>
            <AltitudeMeters>743.79998779296875</AltitudeMeters>
            <DistanceMeters>NAN</DistanceMeters>
          </Trackpoint>
          <Trackpoint>
            <Time>2019-10-06T09:27:32.000Z</Time>
            <Position>
              <LatitudeDegrees>41.3501202128827571868896484375</LatitudeDegrees>
              <LongitudeDegrees>-5.7292480766773223876953125</LongitudeDegrees>
            </Position>
            <AltitudeMeters>744</AltitudeMeters>
            <DistanceMeters>NAN</DistanceMeters>
          </Trackpoint>
          <Trackpoint>
            <Time>2019-10-06T09:27:37.000Z</Time>
            <Position>
              <LatitudeDegrees>41.34988074190914630889892578125</LatitudeDegrees>
              <LongitudeDegrees>-5.7293005473911762237548828125</LongitudeDegrees>
            </Position>
            <AltitudeMeters>744.20001220703125</AltitudeMeters>
            <DistanceMeters>NAN</DistanceMeters>
          </Trackpoint>
          <Trackpoint>
            <Time>2019-10-06T09:27:45.000Z</Time>
            <Position>
              <LatitudeDegrees>41.34947757236659526824951171875</LatitudeDegrees>
              <LongitudeDegrees>-5.72937288321554660797119140625</LongitudeDegrees>
            </Position>
            <AltitudeMeters>743.79998779296875</AltitudeMeters>
            <DistanceMeters>NAN</DistanceMeters>
          </Trackpoint>
          <Trackpoint>
            <Time>2019-10-06T09:27:55.000Z</Time>
            <Position>
              <LatitudeDegrees>41.3489276356995105743408203125</LatitudeDegrees>
              <LongitudeDegrees>-5.72948746383190155029296875</LongitudeDegrees>
            </Position>
            <AltitudeMeters>743.20001220703125</AltitudeMeters>
            <DistanceMeters>NAN</DistanceMeters>
          </Trackpoint>
          <Trackpoint>
            <Time>2019-10-06T09:28:03.000Z</Time>
            <Position>
              <LatitudeDegrees>41.34845833294093608856201171875</LatitudeDegrees>
              <LongitudeDegrees>-5.72957103140652179718017578125</LongitudeDegrees>
            </Position>
            <AltitudeMeters>743.20001220703125</AltitudeMeters>
            <DistanceMeters>NAN</DistanceMeters>
          </Trackpoint>
          <Trackpoint>
            <Time>2019-10-06T09:28:06.000Z</Time>
            <Position>
              <LatitudeDegrees>41.3482792116701602935791015625</LatitudeDegrees>
              <LongitudeDegrees>-5.72960757650434970855712890625</LongitudeDegrees>
            </Position>
            <AltitudeMeters>742.5999755859375</AltitudeMeters>
            <DistanceMeters>NAN</DistanceMeters>
          </Trackpoint>
          <Trackpoint>
            <Time>2019-10-06T09:28:15.000Z</Time>
            <Position>
              <LatitudeDegrees>41.3477374054491519927978515625</LatitudeDegrees>
              <LongitudeDegrees>-5.72971855290234088897705078125</LongitudeDegrees>
            </Position>
            <AltitudeMeters>742.4000244140625</AltitudeMeters>
            <DistanceMeters>NAN</DistanceMeters>
          </Trackpoint>
          <Trackpoint>
            <Time>2019-10-06T09:28:16.000Z</Time>
            <Position>
              <LatitudeDegrees>41.34767596609890460968017578125</LatitudeDegrees>
              <LongitudeDegrees>-5.7297308743000030517578125</LongitudeDegrees>
            </Position>
            <AltitudeMeters>742</AltitudeMeters>
            <DistanceMeters>NAN</DistanceMeters>
          </Trackpoint>
          <Trackpoint>
            <Time>2019-10-06T09:28:24.000Z</Time>
            <Position>
              <LatitudeDegrees>41.34717908687889575958251953125</LatitudeDegrees>
              <LongitudeDegrees>-5.72981863282620906829833984375</LongitudeDegrees>
            </Position>
            <AltitudeMeters>741.79998779296875</AltitudeMeters>
            <DistanceMeters>NAN</DistanceMeters>
          </Trackpoint>
          <Trackpoint>
            <Time>2019-10-06T09:28:28.000Z</Time>
            <Position>
              <LatitudeDegrees>41.34693316183984279632568359375</LatitudeDegrees>
              <LongitudeDegrees>-5.7298631407320499420166015625</LongitudeDegrees>
            </Position>
            <AltitudeMeters>741.4000244140625</AltitudeMeters>
            <DistanceMeters>NAN</DistanceMeters>
          </Trackpoint>
          <Trackpoint>
            <Time>2019-10-06T09:28:35.000Z</Time>
            <Position>
              <LatitudeDegrees>41.346497051417827606201171875</LatitudeDegrees>
              <LongitudeDegrees>-5.72994905523955821990966796875</LongitudeDegrees>
            </Position>
            <AltitudeMeters>741.4000244140625</AltitudeMeters>
            <DistanceMeters>NAN</DistanceMeters>
          </Trackpoint>
          <Trackpoint>
            <Time>2019-10-06T09:28:44.000Z</Time>
            <Position>
              <LatitudeDegrees>41.34594242088496685028076171875</LatitudeDegrees>
              <LongitudeDegrees>-5.730051733553409576416015625</LongitudeDegrees>
            </Position>
            <AltitudeMeters>741</AltitudeMeters>
            <DistanceMeters>NAN</DistanceMeters>
          </Trackpoint>
          <Trackpoint>
            <Time>2019-10-06T09:28:46.000Z</Time>
            <Position>
              <LatitudeDegrees>41.345822475850582122802734375</LatitudeDegrees>
              <LongitudeDegrees>-5.7300787232816219329833984375</LongitudeDegrees>
            </Position>
            <AltitudeMeters>741.4000244140625</AltitudeMeters>
            <DistanceMeters>NAN</DistanceMeters>
          </Trackpoint>
          <Trackpoint>
            <Time>2019-10-06T09:28:53.000Z</Time>
            <Position>
              <LatitudeDegrees>41.34544537402689456939697265625</LatitudeDegrees>
              <LongitudeDegrees>-5.73015843518078327178955078125</LongitudeDegrees>
            </Position>
            <AltitudeMeters>742</AltitudeMeters>
            <DistanceMeters>NAN</DistanceMeters>
          </Trackpoint>
          <Trackpoint>
            <Time>2019-10-06T09:28:56.000Z</Time>
            <Position>
              <LatitudeDegrees>41.3452939130365848541259765625</LatitudeDegrees>
              <LongitudeDegrees>-5.7301866821944713592529296875</LongitudeDegrees>
            </Position>
            <AltitudeMeters>742.79998779296875</AltitudeMeters>
            <DistanceMeters>NAN</DistanceMeters>
          </Trackpoint>
          <Trackpoint>
            <Time>2019-10-06T09:29:01.000Z</Time>
            <Position>
              <LatitudeDegrees>41.3450516760349273681640625</LatitudeDegrees>
              <LongitudeDegrees>-5.73023303411900997161865234375</LongitudeDegrees>
            </Position>
            <AltitudeMeters>743.4000244140625</AltitudeMeters>
            <DistanceMeters>NAN</DistanceMeters>
          </Trackpoint>
          <Trackpoint>
            <Time>2019-10-06T09:29:05.000Z</Time>
            <Position>
              <LatitudeDegrees>41.3448563776910305023193359375</LatitudeDegrees>
              <LongitudeDegrees>-5.73026555590331554412841796875</LongitudeDegrees>
            </Position>
            <AltitudeMeters>744</AltitudeMeters>
            <DistanceMeters>NAN</DistanceMeters>
          </Trackpoint>
          <Trackpoint>
            <Time>2019-10-06T09:29:09.000Z</Time>
            <Position>
              <LatitudeDegrees>41.34467524476349353790283203125</LatitudeDegrees>
              <LongitudeDegrees>-5.73030293919146060943603515625</LongitudeDegrees>
            </Position>
            <AltitudeMeters>744.79998779296875</AltitudeMeters>
            <DistanceMeters>NAN</DistanceMeters>
          </Trackpoint>
          <Trackpoint>
            <Time>2019-10-06T09:29:14.000Z</Time>
            <Position>
              <LatitudeDegrees>41.344449520111083984375</LatitudeDegrees>
              <LongitudeDegrees>-5.73035507462918758392333984375</LongitudeDegrees>
            </Position>
            <AltitudeMeters>744.79998779296875</AltitudeMeters>
            <DistanceMeters>NAN</DistanceMeters>
          </Trackpoint>
          <Trackpoint>
            <Time>2019-10-06T09:29:18.000Z</Time>
            <Position>
              <LatitudeDegrees>41.34427106939256191253662109375</LatitudeDegrees>
              <LongitudeDegrees>-5.73038474656641483306884765625</LongitudeDegrees>
            </Position>
            <AltitudeMeters>745.20001220703125</AltitudeMeters>
            <DistanceMeters>NAN</DistanceMeters>
          </Trackpoint>
          <Trackpoint>
            <Time>2019-10-06T09:29:29.000Z</Time>
            <Position>
              <LatitudeDegrees>41.3437432609498500823974609375</LatitudeDegrees>
              <LongitudeDegrees>-5.73048231191933155059814453125</LongitudeDegrees>
            </Position>
            <AltitudeMeters>745.20001220703125</AltitudeMeters>
            <DistanceMeters>NAN</DistanceMeters>
          </Trackpoint>
          <Trackpoint>
            <Time>2019-10-06T09:29:38.000Z</Time>
            <Position>
              <LatitudeDegrees>41.34324814192950725555419921875</LatitudeDegrees>
              <LongitudeDegrees>-5.7305762730538845062255859375</LongitudeDegrees>
            </Position>
            <AltitudeMeters>744.4000244140625</AltitudeMeters>
            <DistanceMeters>NAN</DistanceMeters>
          </Trackpoint>
          <Trackpoint>
            <Time>2019-10-06T09:29:39.000Z</Time>
            <Position>
              <LatitudeDegrees>41.3431910611689090728759765625</LatitudeDegrees>
              <LongitudeDegrees>-5.73058582842350006103515625</LongitudeDegrees>
            </Position>
            <AltitudeMeters>744</AltitudeMeters>
            <DistanceMeters>NAN</DistanceMeters>
          </Trackpoint>
          <Trackpoint>
            <Time>2019-10-06T09:29:45.000Z</Time>
            <Position>
              <LatitudeDegrees>41.3428484089672565460205078125</LatitudeDegrees>
              <LongitudeDegrees>-5.730653218924999237060546875</LongitudeDegrees>
            </Position>
            <AltitudeMeters>743.5999755859375</AltitudeMeters>
            <DistanceMeters>NAN</DistanceMeters>
          </Trackpoint>
          <Trackpoint>
            <Time>2019-10-06T09:29:49.000Z</Time>
            <Position>
              <LatitudeDegrees>41.342621929943561553955078125</LatitudeDegrees>
              <LongitudeDegrees>-5.73069001547992229461669921875</LongitudeDegrees>
            </Position>
            <AltitudeMeters>743</AltitudeMeters>
            <DistanceMeters>NAN</DistanceMeters>
          </Trackpoint>
          <Trackpoint>
            <Time>2019-10-06T09:29:53.000Z</Time>
            <Position>
              <LatitudeDegrees>41.34240307845175266265869140625</LatitudeDegrees>
              <LongitudeDegrees>-5.7307301647961139678955078125</LongitudeDegrees>
            </Position>
            <AltitudeMeters>743</AltitudeMeters>
            <DistanceMeters>NAN</DistanceMeters>
          </Trackpoint>
          <Trackpoint>
            <Time>2019-10-06T09:29:59.000Z</Time>
            <Position>
              <LatitudeDegrees>41.34208716452121734619140625</LatitudeDegrees>
              <LongitudeDegrees>-5.73079411871731281280517578125</LongitudeDegrees>
            </Position>
            <AltitudeMeters>743.79998779296875</AltitudeMeters>
            <DistanceMeters>NAN</DistanceMeters>
          </Trackpoint>
          <Trackpoint>
            <Time>2019-10-06T09:30:09.000Z</Time>
            <Position>
              <LatitudeDegrees>41.34157310239970684051513671875</LatitudeDegrees>
              <LongitudeDegrees>-5.73089017532765865325927734375</LongitudeDegrees>
            </Position>
            <AltitudeMeters>744</AltitudeMeters>
            <DistanceMeters>NAN</DistanceMeters>
          </Trackpoint>
          <Trackpoint>
            <Time>2019-10-06T09:30:10.000Z</Time>
            <Position>
              <LatitudeDegrees>41.3415205478668212890625</LatitudeDegrees>
              <LongitudeDegrees>-5.73089973069727420806884765625</LongitudeDegrees>
            </Position>
            <AltitudeMeters>744</AltitudeMeters>
            <DistanceMeters>NAN</DistanceMeters>
          </Trackpoint>
          <Trackpoint>
            <Time>2019-10-06T09:30:20.000Z</Time>
            <Position>
              <LatitudeDegrees>41.34098536334931850433349609375</LatitudeDegrees>
              <LongitudeDegrees>-5.7310027442872524261474609375</LongitudeDegrees>
            </Position>
            <AltitudeMeters>744.20001220703125</AltitudeMeters>
            <DistanceMeters>NAN</DistanceMeters>
          </Trackpoint>
          <Trackpoint>
            <Time>2019-10-06T09:30:30.000Z</Time>
            <Position>
              <LatitudeDegrees>41.3404458202421665191650390625</LatitudeDegrees>
              <LongitudeDegrees>-5.73110056109726428985595703125</LongitudeDegrees>
            </Position>
            <AltitudeMeters>744.4000244140625</AltitudeMeters>
            <DistanceMeters>NAN</DistanceMeters>
          </Trackpoint>
          <Trackpoint>
            <Time>2019-10-06T09:30:31.000Z</Time>
            <Position>
              <LatitudeDegrees>41.34039494208991527557373046875</LatitudeDegrees>
              <LongitudeDegrees>-5.7311095297336578369140625</LongitudeDegrees>
            </Position>
            <AltitudeMeters>744.5999755859375</AltitudeMeters>
            <DistanceMeters>NAN</DistanceMeters>
          </Trackpoint>
          <Trackpoint>
            <Time>2019-10-06T09:30:38.000Z</Time>
            <Position>
              <LatitudeDegrees>41.3400910980999469757080078125</LatitudeDegrees>
              <LongitudeDegrees>-5.7311690412461757659912109375</LongitudeDegrees>
            </Position>
            <AltitudeMeters>745.20001220703125</AltitudeMeters>
            <DistanceMeters>NAN</DistanceMeters>
          </Trackpoint>
          <Trackpoint>
            <Time>2019-10-06T09:30:42.000Z</Time>
            <Position>
              <LatitudeDegrees>41.33994332514703273773193359375</LatitudeDegrees>
              <LongitudeDegrees>-5.7311951927840709686279296875</LongitudeDegrees>
            </Position>
            <AltitudeMeters>746.20001220703125</AltitudeMeters>
            <DistanceMeters>NAN</DistanceMeters>
          </Trackpoint>
          <Trackpoint>
            <Time>2019-10-06T09:30:46.000Z</Time>
            <Position>
              <LatitudeDegrees>41.33979563601315021514892578125</LatitudeDegrees>
              <LongitudeDegrees>-5.73121941648423671722412109375</LongitudeDegrees>
            </Position>
            <AltitudeMeters>747.4000244140625</AltitudeMeters>
            <DistanceMeters>NAN</DistanceMeters>
          </Trackpoint>
          <Trackpoint>
            <Time>2019-10-06T09:30:47.000Z</Time>
            <Position>
              <LatitudeDegrees>41.33976294659078121185302734375</LatitudeDegrees>
              <LongitudeDegrees>-5.7312280498445034027099609375</LongitudeDegrees>
            </Position>
            <AltitudeMeters>747.79998779296875</AltitudeMeters>
            <DistanceMeters>NAN</DistanceMeters>
          </Trackpoint>
          <Trackpoint>
            <Time>2019-10-06T09:30:50.000Z</Time>
            <Position>
              <LatitudeDegrees>41.3396562449634075164794921875</LatitudeDegrees>
              <LongitudeDegrees>-5.7312538661062717437744140625</LongitudeDegrees>
            </Position>
            <AltitudeMeters>748.4000244140625</AltitudeMeters>
            <DistanceMeters>NAN</DistanceMeters>
          </Trackpoint>
          <Trackpoint>
            <Time>2019-10-06T09:30:54.000Z</Time>
            <Position>
              <LatitudeDegrees>41.3395187817513942718505859375</LatitudeDegrees>
              <LongitudeDegrees>-5.73127758689224720001220703125</LongitudeDegrees>
            </Position>
            <AltitudeMeters>749.20001220703125</AltitudeMeters>
            <DistanceMeters>NAN</DistanceMeters>
          </Trackpoint>
          <Trackpoint>
            <Time>2019-10-06T09:30:57.000Z</Time>
            <Position>
              <LatitudeDegrees>41.3394094817340373992919921875</LatitudeDegrees>
              <LongitudeDegrees>-5.73129116557538509368896484375</LongitudeDegrees>
            </Position>
            <AltitudeMeters>749.5999755859375</AltitudeMeters>
            <DistanceMeters>NAN</DistanceMeters>
          </Trackpoint>
          <Trackpoint>
            <Time>2019-10-06T09:31:03.000Z</Time>
            <Position>
              <LatitudeDegrees>41.33918912149965763092041015625</LatitudeDegrees>
              <LongitudeDegrees>-5.731335170567035675048828125</LongitudeDegrees>
            </Position>
            <AltitudeMeters>750.79998779296875</AltitudeMeters>
            <DistanceMeters>NAN</DistanceMeters>
          </Trackpoint>
          <Trackpoint>
            <Time>2019-10-06T09:31:05.000Z</Time>
            <Position>
              <LatitudeDegrees>41.3391177915036678314208984375</LatitudeDegrees>
              <LongitudeDegrees>-5.73135118000209331512451171875</LongitudeDegrees>
            </Position>
            <AltitudeMeters>751</AltitudeMeters>
            <DistanceMeters>NAN</DistanceMeters>
          </Trackpoint>
          <Trackpoint>
            <Time>2019-10-06T09:31:08.000Z</Time>
            <Position>
              <LatitudeDegrees>41.33900958113372325897216796875</LatitudeDegrees>
              <LongitudeDegrees>-5.73137129656970500946044921875</LongitudeDegrees>
            </Position>
            <AltitudeMeters>751.79998779296875</AltitudeMeters>
            <DistanceMeters>NAN</DistanceMeters>
          </Trackpoint>
          <Trackpoint>
            <Time>2019-10-06T09:31:16.000Z</Time>
            <Position>
              <LatitudeDegrees>41.3387094251811504364013671875</LatitudeDegrees>
              <LongitudeDegrees>-5.731423683464527130126953125</LongitudeDegrees>
            </Position>
            <AltitudeMeters>752.5999755859375</AltitudeMeters>
            <DistanceMeters>NAN</DistanceMeters>
          </Trackpoint>
          <Trackpoint>
            <Time>2019-10-06T09:31:19.000Z</Time>
            <Position>
              <LatitudeDegrees>41.33859224617481231689453125</LatitudeDegrees>
              <LongitudeDegrees>-5.7314510084688663482666015625</LongitudeDegrees>
            </Position>
            <AltitudeMeters>752.79998779296875</AltitudeMeters>
            <DistanceMeters>NAN</DistanceMeters>
          </Trackpoint>
          <Trackpoint>
            <Time>2019-10-06T09:31:27.000Z</Time>
            <Position>
              <LatitudeDegrees>41.33826878853142261505126953125</LatitudeDegrees>
              <LongitudeDegrees>-5.7315143756568431854248046875</LongitudeDegrees>
            </Position>
            <AltitudeMeters>753.20001220703125</AltitudeMeters>
            <DistanceMeters>NAN</DistanceMeters>
          </Trackpoint>
          <Trackpoint>
            <Time>2019-10-06T09:31:30.000Z</Time>
            <Position>
              <LatitudeDegrees>41.338145993649959564208984375</LatitudeDegrees>
              <LongitudeDegrees>-5.7315405271947383880615234375</LongitudeDegrees>
            </Position>
            <AltitudeMeters>753.79998779296875</AltitudeMeters>
            <DistanceMeters>NAN</DistanceMeters>
          </Trackpoint>
          <Trackpoint>
            <Time>2019-10-06T09:31:36.000Z</Time>
            <Position>
              <LatitudeDegrees>41.33789294399321079254150390625</LatitudeDegrees>
              <LongitudeDegrees>-5.731594003736972808837890625</LongitudeDegrees>
            </Position>
            <AltitudeMeters>753.20001220703125</AltitudeMeters>
            <DistanceMeters>NAN</DistanceMeters>
          </Trackpoint>
          <Trackpoint>
            <Time>2019-10-06T09:31:38.000Z</Time>
            <Position>
              <LatitudeDegrees>41.33780711330473423004150390625</LatitudeDegrees>
              <LongitudeDegrees>-5.73160816915333271026611328125</LongitudeDegrees>
            </Position>
            <AltitudeMeters>752.79998779296875</AltitudeMeters>
            <DistanceMeters>NAN</DistanceMeters>
          </Trackpoint>
          <Trackpoint>
            <Time>2019-10-06T09:31:45.000Z</Time>
            <Position>
              <LatitudeDegrees>41.3374813087284564971923828125</LatitudeDegrees>
              <LongitudeDegrees>-5.7316665910184383392333984375</LongitudeDegrees>
            </Position>
            <AltitudeMeters>752.79998779296875</AltitudeMeters>
            <DistanceMeters>NAN</DistanceMeters>
          </Trackpoint>
          <Trackpoint>
            <Time>2019-10-06T09:31:47.000Z</Time>
            <Position>
              <LatitudeDegrees>41.3373787142336368560791015625</LatitudeDegrees>
              <LongitudeDegrees>-5.73168712668120861053466796875</LongitudeDegrees>
            </Position>
            <AltitudeMeters>752.5999755859375</AltitudeMeters>
            <DistanceMeters>NAN</DistanceMeters>
          </Trackpoint>
          <Trackpoint>
            <Time>2019-10-06T09:31:52.000Z</Time>
            <Position>
              <LatitudeDegrees>41.33709733374416828155517578125</LatitudeDegrees>
              <LongitudeDegrees>-5.73173657990992069244384765625</LongitudeDegrees>
            </Position>
            <AltitudeMeters>751.5999755859375</AltitudeMeters>
            <DistanceMeters>NAN</DistanceMeters>
          </Trackpoint>
          <Trackpoint>
            <Time>2019-10-06T09:31:55.000Z</Time>
            <Position>
              <LatitudeDegrees>41.33690790273249149322509765625</LatitudeDegrees>
              <LongitudeDegrees>-5.73177136480808258056640625</LongitudeDegrees>
            </Position>
            <AltitudeMeters>751</AltitudeMeters>
            <DistanceMeters>NAN</DistanceMeters>
          </Trackpoint>
          <Trackpoint>
            <Time>2019-10-06T09:31:56.000Z</Time>
            <Position>
              <LatitudeDegrees>41.336842440068721771240234375</LatitudeDegrees>
              <LongitudeDegrees>-5.731784440577030181884765625</LongitudeDegrees>
            </Position>
            <AltitudeMeters>750.20001220703125</AltitudeMeters>
            <DistanceMeters>NAN</DistanceMeters>
          </Trackpoint>
          <Trackpoint>
            <Time>2019-10-06T09:31:59.000Z</Time>
            <Position>
              <LatitudeDegrees>41.33663565851747989654541015625</LatitudeDegrees>
              <LongitudeDegrees>-5.73182341642677783966064453125</LongitudeDegrees>
            </Position>
            <AltitudeMeters>749.79998779296875</AltitudeMeters>
            <DistanceMeters>NAN</DistanceMeters>
          </Trackpoint>
          <Trackpoint>
            <Time>2019-10-06T09:32:01.000Z</Time>
            <Position>
              <LatitudeDegrees>41.3364878855645656585693359375</LatitudeDegrees>
              <LongitudeDegrees>-5.73184973560273647308349609375</LongitudeDegrees>
            </Position>
            <AltitudeMeters>749</AltitudeMeters>
            <DistanceMeters>NAN</DistanceMeters>
          </Trackpoint>
          <Trackpoint>
            <Time>2019-10-06T09:32:02.000Z</Time>
            <Position>
              <LatitudeDegrees>41.336412616074085235595703125</LatitudeDegrees>
              <LongitudeDegrees>-5.73186255991458892822265625</LongitudeDegrees>
            </Position>
            <AltitudeMeters>748.5999755859375</AltitudeMeters>
            <DistanceMeters>NAN</DistanceMeters>
          </Trackpoint>
          <Trackpoint>
            <Time>2019-10-06T09:32:04.000Z</Time>
            <Position>
              <LatitudeDegrees>41.33625310845673084259033203125</LatitudeDegrees>
              <LongitudeDegrees>-5.73189206421375274658203125</LongitudeDegrees>
            </Position>
            <AltitudeMeters>746.79998779296875</AltitudeMeters>
            <DistanceMeters>NAN</DistanceMeters>
          </Trackpoint>
          <Trackpoint>
            <Time>2019-10-06T09:32:07.000Z</Time>
            <Position>
              <LatitudeDegrees>41.335997544229030609130859375</LatitudeDegrees>
              <LongitudeDegrees>-5.73194210417568683624267578125</LongitudeDegrees>
            </Position>
            <AltitudeMeters>745.5999755859375</AltitudeMeters>
            <DistanceMeters>NAN</DistanceMeters>
          </Trackpoint>
          <Trackpoint>
            <Time>2019-10-06T09:32:08.000Z</Time>
            <Position>
              <LatitudeDegrees>41.33590794168412685394287109375</LatitudeDegrees>
              <LongitudeDegrees>-5.7319555990397930145263671875</LongitudeDegrees>
            </Position>
            <AltitudeMeters>744.4000244140625</AltitudeMeters>
            <DistanceMeters>NAN</DistanceMeters>
          </Trackpoint>
          <Trackpoint>
            <Time>2019-10-06T09:32:10.000Z</Time>
            <Position>
              <LatitudeDegrees>41.3357247970998287200927734375</LatitudeDegrees>
              <LongitudeDegrees>-5.73199206031858921051025390625</LongitudeDegrees>
            </Position>
            <AltitudeMeters>743.5999755859375</AltitudeMeters>
            <DistanceMeters>NAN</DistanceMeters>
          </Trackpoint>
          <Trackpoint>
            <Time>2019-10-06T09:32:11.000Z</Time>
            <Position>
              <LatitudeDegrees>41.33563083596527576446533203125</LatitudeDegrees>
              <LongitudeDegrees>-5.732009075582027435302734375</LongitudeDegrees>
            </Position>
            <AltitudeMeters>743.20001220703125</AltitudeMeters>
            <DistanceMeters>NAN</DistanceMeters>
          </Trackpoint>
          <Trackpoint>
            <Time>2019-10-06T09:32:12.000Z</Time>
            <Position>
              <LatitudeDegrees>41.3355377130210399627685546875</LatitudeDegrees>
              <LongitudeDegrees>-5.732027851045131683349609375</LongitudeDegrees>
            </Position>
            <AltitudeMeters>743.20001220703125</AltitudeMeters>
            <DistanceMeters>NAN</DistanceMeters>
          </Trackpoint>
          <Trackpoint>
            <Time>2019-10-06T09:32:16.000Z</Time>
            <Position>
              <LatitudeDegrees>41.33517385460436344146728515625</LatitudeDegrees>
              <LongitudeDegrees>-5.732103623449802398681640625</LongitudeDegrees>
            </Position>
            <AltitudeMeters>743</AltitudeMeters>
            <DistanceMeters>NAN</DistanceMeters>
          </Trackpoint>
          <Trackpoint>
            <Time>2019-10-06T09:32:23.000Z</Time>
            <Position>
              <LatitudeDegrees>41.33457622490823268890380859375</LatitudeDegrees>
              <LongitudeDegrees>-5.73221988044679164886474609375</LongitudeDegrees>
            </Position>
            <AltitudeMeters>743.20001220703125</AltitudeMeters>
            <DistanceMeters>NAN</DistanceMeters>
          </Trackpoint>
          <Trackpoint>
            <Time>2019-10-06T09:32:25.000Z</Time>
            <Position>
              <LatitudeDegrees>41.33441177196800708770751953125</LatitudeDegrees>
              <LongitudeDegrees>-5.7322536595165729522705078125</LongitudeDegrees>
            </Position>
            <AltitudeMeters>743</AltitudeMeters>
            <DistanceMeters>NAN</DistanceMeters>
          </Trackpoint>
          <Trackpoint>
            <Time>2019-10-06T09:32:26.000Z</Time>
            <Position>
              <LatitudeDegrees>41.33432979695498943328857421875</LatitudeDegrees>
              <LongitudeDegrees>-5.73226891458034515380859375</LongitudeDegrees>
            </Position>
            <AltitudeMeters>743</AltitudeMeters>
            <DistanceMeters>NAN</DistanceMeters>
          </Trackpoint>
          <Trackpoint>
            <Time>2019-10-06T09:32:31.000Z</Time>
            <Position>
              <LatitudeDegrees>41.333928219974040985107421875</LatitudeDegrees>
              <LongitudeDegrees>-5.7323374785482883453369140625</LongitudeDegrees>
            </Position>
            <AltitudeMeters>742</AltitudeMeters>
            <DistanceMeters>NAN</DistanceMeters>
          </Trackpoint>
          <Trackpoint>
            <Time>2019-10-06T09:32:35.000Z</Time>
            <Position>
              <LatitudeDegrees>41.333609037101268768310546875</LatitudeDegrees>
              <LongitudeDegrees>-5.732405371963977813720703125</LongitudeDegrees>
            </Position>
            <AltitudeMeters>741.4000244140625</AltitudeMeters>
            <DistanceMeters>NAN</DistanceMeters>
          </Trackpoint>
          <Trackpoint>
            <Time>2019-10-06T09:32:40.000Z</Time>
            <Position>
              <LatitudeDegrees>41.3332112319767475128173828125</LatitudeDegrees>
              <LongitudeDegrees>-5.73248072527348995208740234375</LongitudeDegrees>
            </Position>
            <AltitudeMeters>740.79998779296875</AltitudeMeters>
            <DistanceMeters>NAN</DistanceMeters>
          </Trackpoint>
          <Trackpoint>
            <Time>2019-10-06T09:32:44.000Z</Time>
            <Position>
              <LatitudeDegrees>41.3329011015594005584716796875</LatitudeDegrees>
              <LongitudeDegrees>-5.73253621347248554229736328125</LongitudeDegrees>
            </Position>
            <AltitudeMeters>740.79998779296875</AltitudeMeters>
            <DistanceMeters>NAN</DistanceMeters>
          </Trackpoint>
          <Trackpoint>
            <Time>2019-10-06T09:32:51.000Z</Time>
            <Position>
              <LatitudeDegrees>41.33238025009632110595703125</LatitudeDegrees>
              <LongitudeDegrees>-5.7326341979205608367919921875</LongitudeDegrees>
            </Position>
            <AltitudeMeters>740.5999755859375</AltitudeMeters>
            <DistanceMeters>NAN</DistanceMeters>
          </Trackpoint>
          <Trackpoint>
            <Time>2019-10-06T09:32:53.000Z</Time>
            <Position>
              <LatitudeDegrees>41.3322419486939907073974609375</LatitudeDegrees>
              <LongitudeDegrees>-5.7326660491526126861572265625</LongitudeDegrees>
            </Position>
            <AltitudeMeters>740.4000244140625</AltitudeMeters>
            <DistanceMeters>NAN</DistanceMeters>
          </Trackpoint>
          <Trackpoint>
            <Time>2019-10-06T09:33:01.000Z</Time>
            <Position>
              <LatitudeDegrees>41.33170693181455135345458984375</LatitudeDegrees>
              <LongitudeDegrees>-5.73276135139167308807373046875</LongitudeDegrees>
            </Position>
            <AltitudeMeters>740.5999755859375</AltitudeMeters>
            <DistanceMeters>NAN</DistanceMeters>
          </Trackpoint>
          <Trackpoint>
            <Time>2019-10-06T09:33:03.000Z</Time>
            <Position>
              <LatitudeDegrees>41.331574916839599609375</LatitudeDegrees>
              <LongitudeDegrees>-5.7327850721776485443115234375</LongitudeDegrees>
            </Position>
            <AltitudeMeters>741.4000244140625</AltitudeMeters>
            <DistanceMeters>NAN</DistanceMeters>
          </Trackpoint>
          <Trackpoint>
            <Time>2019-10-06T09:33:07.000Z</Time>
            <Position>
              <LatitudeDegrees>41.33132337592542171478271484375</LatitudeDegrees>
              <LongitudeDegrees>-5.73283913545310497283935546875</LongitudeDegrees>
            </Position>
            <AltitudeMeters>741</AltitudeMeters>
            <DistanceMeters>NAN</DistanceMeters>
          </Trackpoint>
          <Trackpoint>
            <Time>2019-10-06T09:33:11.000Z</Time>
            <Position>
              <LatitudeDegrees>41.3310775347054004669189453125</LatitudeDegrees>
              <LongitudeDegrees>-5.73288448154926300048828125</LongitudeDegrees>
            </Position>
            <AltitudeMeters>741.20001220703125</AltitudeMeters>
            <DistanceMeters>NAN</DistanceMeters>
          </Trackpoint>
          <Trackpoint>
            <Time>2019-10-06T09:33:20.000Z</Time>
            <Position>
              <LatitudeDegrees>41.3305221498012542724609375</LatitudeDegrees>
              <LongitudeDegrees>-5.73299420066177845001220703125</LongitudeDegrees>
            </Position>
            <AltitudeMeters>741.79998779296875</AltitudeMeters>
            <DistanceMeters>NAN</DistanceMeters>
          </Trackpoint>
          <Trackpoint>
            <Time>2019-10-06T09:33:23.000Z</Time>
            <Position>
              <LatitudeDegrees>41.330336742103099822998046875</LatitudeDegrees>
              <LongitudeDegrees>-5.733029656112194061279296875</LongitudeDegrees>
            </Position>
            <AltitudeMeters>741.20001220703125</AltitudeMeters>
            <DistanceMeters>NAN</DistanceMeters>
          </Trackpoint>
          <Trackpoint>
            <Time>2019-10-06T09:33:32.000Z</Time>
            <Position>
              <LatitudeDegrees>41.32978412322700023651123046875</LatitudeDegrees>
              <LongitudeDegrees>-5.73313526809215545654296875</LongitudeDegrees>
            </Position>
            <AltitudeMeters>741.5999755859375</AltitudeMeters>
            <DistanceMeters>NAN</DistanceMeters>
          </Trackpoint>
          <Trackpoint>
            <Time>2019-10-06T09:33:33.000Z</Time>
            <Position>
              <LatitudeDegrees>41.32972410880029201507568359375</LatitudeDegrees>
              <LongitudeDegrees>-5.7331468351185321807861328125</LongitudeDegrees>
            </Position>
            <AltitudeMeters>741.79998779296875</AltitudeMeters>
            <DistanceMeters>NAN</DistanceMeters>
          </Trackpoint>
          <Trackpoint>
            <Time>2019-10-06T09:33:42.000Z</Time>
            <Position>
              <LatitudeDegrees>41.32918364368379116058349609375</LatitudeDegrees>
              <LongitudeDegrees>-5.73325269855558872222900390625</LongitudeDegrees>
            </Position>
            <AltitudeMeters>742.20001220703125</AltitudeMeters>
            <DistanceMeters>NAN</DistanceMeters>
          </Trackpoint>
          <Trackpoint>
            <Time>2019-10-06T09:33:46.000Z</Time>
            <Position>
              <LatitudeDegrees>41.32894827984273433685302734375</LatitudeDegrees>
              <LongitudeDegrees>-5.73329293169081211090087890625</LongitudeDegrees>
            </Position>
            <AltitudeMeters>742.20001220703125</AltitudeMeters>
            <DistanceMeters>NAN</DistanceMeters>
          </Trackpoint>
          <Trackpoint>
            <Time>2019-10-06T09:33:56.000Z</Time>
            <Position>
              <LatitudeDegrees>41.32837261073291301727294921875</LatitudeDegrees>
              <LongitudeDegrees>-5.73340483009815216064453125</LongitudeDegrees>
            </Position>
            <AltitudeMeters>743</AltitudeMeters>
            <DistanceMeters>NAN</DistanceMeters>
          </Trackpoint>
          <Trackpoint>
            <Time>2019-10-06T09:34:04.000Z</Time>
            <Position>
              <LatitudeDegrees>41.32793809287250041961669921875</LatitudeDegrees>
              <LongitudeDegrees>-5.733490325510501861572265625</LongitudeDegrees>
            </Position>
            <AltitudeMeters>743.20001220703125</AltitudeMeters>
            <DistanceMeters>NAN</DistanceMeters>
          </Trackpoint>
          <Trackpoint>
            <Time>2019-10-06T09:34:14.000Z</Time>
            <Position>
              <LatitudeDegrees>41.3273941911756992340087890625</LatitudeDegrees>
              <LongitudeDegrees>-5.733591578900814056396484375</LongitudeDegrees>
            </Position>
            <AltitudeMeters>744</AltitudeMeters>
            <DistanceMeters>NAN</DistanceMeters>
          </Trackpoint>
          <Trackpoint>
            <Time>2019-10-06T09:34:15.000Z</Time>
            <Position>
              <LatitudeDegrees>41.327340714633464813232421875</LatitudeDegrees>
              <LongitudeDegrees>-5.73360331356525421142578125</LongitudeDegrees>
            </Position>
            <AltitudeMeters>744.20001220703125</AltitudeMeters>
            <DistanceMeters>NAN</DistanceMeters>
          </Trackpoint>
          <Trackpoint>
            <Time>2019-10-06T09:34:23.000Z</Time>
            <Position>
              <LatitudeDegrees>41.326912902295589447021484375</LatitudeDegrees>
              <LongitudeDegrees>-5.73368403129279613494873046875</LongitudeDegrees>
            </Position>
            <AltitudeMeters>743.79998779296875</AltitudeMeters>
            <DistanceMeters>NAN</DistanceMeters>
          </Trackpoint>
          <Trackpoint>
            <Time>2019-10-06T09:34:33.000Z</Time>
            <Position>
              <LatitudeDegrees>41.3263888657093048095703125</LatitudeDegrees>
              <LongitudeDegrees>-5.7337841950356960296630859375</LongitudeDegrees>
            </Position>
            <AltitudeMeters>744</AltitudeMeters>
            <DistanceMeters>NAN</DistanceMeters>
          </Trackpoint>
          <Trackpoint>
            <Time>2019-10-06T09:34:43.000Z</Time>
            <Position>
              <LatitudeDegrees>41.32586256600916385650634765625</LatitudeDegrees>
              <LongitudeDegrees>-5.73387765325605869293212890625</LongitudeDegrees>
            </Position>
            <AltitudeMeters>744.5999755859375</AltitudeMeters>
            <DistanceMeters>NAN</DistanceMeters>
          </Trackpoint>
          <Trackpoint>
            <Time>2019-10-06T09:34:53.000Z</Time>
            <Position>
              <LatitudeDegrees>41.3253307342529296875</LatitudeDegrees>
              <LongitudeDegrees>-5.73397404514253139495849609375</LongitudeDegrees>
            </Position>
            <AltitudeMeters>745.20001220703125</AltitudeMeters>
            <DistanceMeters>NAN</DistanceMeters>
          </Trackpoint>
          <Trackpoint>
            <Time>2019-10-06T09:35:03.000Z</Time>
            <Position>
              <LatitudeDegrees>41.3248082064092159271240234375</LatitudeDegrees>
              <LongitudeDegrees>-5.73407295159995555877685546875</LongitudeDegrees>
            </Position>
            <AltitudeMeters>746</AltitudeMeters>
            <DistanceMeters>NAN</DistanceMeters>
          </Trackpoint>
          <Trackpoint>
            <Time>2019-10-06T09:35:05.000Z</Time>
            <Position>
              <LatitudeDegrees>41.32470569573342800140380859375</LatitudeDegrees>
              <LongitudeDegrees>-5.7340960018336772918701171875</LongitudeDegrees>
            </Position>
            <AltitudeMeters>746.5999755859375</AltitudeMeters>
            <DistanceMeters>NAN</DistanceMeters>
          </Trackpoint>
          <Trackpoint>
            <Time>2019-10-06T09:35:15.000Z</Time>
            <Position>
              <LatitudeDegrees>41.324187107384204864501953125</LatitudeDegrees>
              <LongitudeDegrees>-5.7341932319104671478271484375</LongitudeDegrees>
            </Position>
            <AltitudeMeters>747</AltitudeMeters>
            <DistanceMeters>NAN</DistanceMeters>
          </Trackpoint>
          <Trackpoint>
            <Time>2019-10-06T09:35:22.000Z</Time>
            <Position>
              <LatitudeDegrees>41.32382693700492382049560546875</LatitudeDegrees>
              <LongitudeDegrees>-5.734257437288761138916015625</LongitudeDegrees>
            </Position>
            <AltitudeMeters>747.79998779296875</AltitudeMeters>
            <DistanceMeters>NAN</DistanceMeters>
          </Trackpoint>
          <Trackpoint>
            <Time>2019-10-06T09:35:26.000Z</Time>
            <Position>
              <LatitudeDegrees>41.323619149625301361083984375</LatitudeDegrees>
              <LongitudeDegrees>-5.73429238982498645782470703125</LongitudeDegrees>
            </Position>
            <AltitudeMeters>747.79998779296875</AltitudeMeters>
            <DistanceMeters>NAN</DistanceMeters>
          </Trackpoint>
          <Trackpoint>
            <Time>2019-10-06T09:35:35.000Z</Time>
            <Position>
              <LatitudeDegrees>41.3231536187231540679931640625</LatitudeDegrees>
              <LongitudeDegrees>-5.734372437000274658203125</LongitudeDegrees>
            </Position>
            <AltitudeMeters>748.79998779296875</AltitudeMeters>
            <DistanceMeters>NAN</DistanceMeters>
          </Trackpoint>
          <Trackpoint>
            <Time>2019-10-06T09:35:36.000Z</Time>
            <Position>
              <LatitudeDegrees>41.32310173474252223968505859375</LatitudeDegrees>
              <LongitudeDegrees>-5.734383501112461090087890625</LongitudeDegrees>
            </Position>
            <AltitudeMeters>748.79998779296875</AltitudeMeters>
            <DistanceMeters>NAN</DistanceMeters>
          </Trackpoint>
          <Trackpoint>
            <Time>2019-10-06T09:35:47.000Z</Time>
            <Position>
              <LatitudeDegrees>41.32254450581967830657958984375</LatitudeDegrees>
              <LongitudeDegrees>-5.73449858464300632476806640625</LongitudeDegrees>
            </Position>
            <AltitudeMeters>749.79998779296875</AltitudeMeters>
            <DistanceMeters>NAN</DistanceMeters>
          </Trackpoint>
          <Trackpoint>
            <Time>2019-10-06T09:35:50.000Z</Time>
            <Position>
              <LatitudeDegrees>41.32239111699163913726806640625</LatitudeDegrees>
              <LongitudeDegrees>-5.73452532291412353515625</LongitudeDegrees>
            </Position>
            <AltitudeMeters>749.79998779296875</AltitudeMeters>
            <DistanceMeters>NAN</DistanceMeters>
          </Trackpoint>
          <Trackpoint>
            <Time>2019-10-06T09:35:57.000Z</Time>
            <Position>
              <LatitudeDegrees>41.32203304208815097808837890625</LatitudeDegrees>
              <LongitudeDegrees>-5.73458709754049777984619140625</LongitudeDegrees>
            </Position>
            <AltitudeMeters>750.79998779296875</AltitudeMeters>
            <DistanceMeters>NAN</DistanceMeters>
          </Trackpoint>
          <Trackpoint>
            <Time>2019-10-06T09:35:58.000Z</Time>
            <Position>
              <LatitudeDegrees>41.321982331573963165283203125</LatitudeDegrees>
              <LongitudeDegrees>-5.73459598235785961151123046875</LongitudeDegrees>
            </Position>
            <AltitudeMeters>751</AltitudeMeters>
            <DistanceMeters>NAN</DistanceMeters>
          </Trackpoint>
          <Trackpoint>
            <Time>2019-10-06T09:36:06.000Z</Time>
            <Position>
              <LatitudeDegrees>41.321585364639759063720703125</LatitudeDegrees>
              <LongitudeDegrees>-5.734676532447338104248046875</LongitudeDegrees>
            </Position>
            <AltitudeMeters>751.5999755859375</AltitudeMeters>
            <DistanceMeters>NAN</DistanceMeters>
          </Trackpoint>
          <Trackpoint>
            <Time>2019-10-06T09:36:10.000Z</Time>
            <Position>
              <LatitudeDegrees>41.32140222005546092987060546875</LatitudeDegrees>
              <LongitudeDegrees>-5.73471508920192718505859375</LongitudeDegrees>
            </Position>
            <AltitudeMeters>752.20001220703125</AltitudeMeters>
            <DistanceMeters>NAN</DistanceMeters>
          </Trackpoint>
          <Trackpoint>
            <Time>2019-10-06T09:36:13.000Z</Time>
            <Position>
              <LatitudeDegrees>41.3212680257856845855712890625</LatitudeDegrees>
              <LongitudeDegrees>-5.73473579250276088714599609375</LongitudeDegrees>
            </Position>
            <AltitudeMeters>752.79998779296875</AltitudeMeters>
            <DistanceMeters>NAN</DistanceMeters>
          </Trackpoint>
          <Trackpoint>
            <Time>2019-10-06T09:36:16.000Z</Time>
            <Position>
              <LatitudeDegrees>41.32113098166882991790771484375</LatitudeDegrees>
              <LongitudeDegrees>-5.73476144112646579742431640625</LongitudeDegrees>
            </Position>
            <AltitudeMeters>753.20001220703125</AltitudeMeters>
            <DistanceMeters>NAN</DistanceMeters>
          </Trackpoint>
          <Trackpoint>
            <Time>2019-10-06T09:36:20.000Z</Time>
            <Position>
              <LatitudeDegrees>41.3209454901516437530517578125</LatitudeDegrees>
              <LongitudeDegrees>-5.734794549643993377685546875</LongitudeDegrees>
            </Position>
            <AltitudeMeters>753.4000244140625</AltitudeMeters>
            <DistanceMeters>NAN</DistanceMeters>
          </Trackpoint>
          <Trackpoint>
            <Time>2019-10-06T09:36:23.000Z</Time>
            <Position>
              <LatitudeDegrees>41.32080509327352046966552734375</LatitudeDegrees>
              <LongitudeDegrees>-5.73481776751577854156494140625</LongitudeDegrees>
            </Position>
            <AltitudeMeters>754.20001220703125</AltitudeMeters>
            <DistanceMeters>NAN</DistanceMeters>
          </Trackpoint>
          <Trackpoint>
            <Time>2019-10-06T09:36:28.000Z</Time>
            <Position>
              <LatitudeDegrees>41.3205899298191070556640625</LatitudeDegrees>
              <LongitudeDegrees>-5.73483922518789768218994140625</LongitudeDegrees>
            </Position>
            <AltitudeMeters>755</AltitudeMeters>
            <DistanceMeters>NAN</DistanceMeters>
          </Trackpoint>
          <Trackpoint>
            <Time>2019-10-06T09:36:30.000Z</Time>
            <Position>
              <LatitudeDegrees>41.3205056078732013702392578125</LatitudeDegrees>
              <LongitudeDegrees>-5.73484090156853199005126953125</LongitudeDegrees>
            </Position>
            <AltitudeMeters>755.79998779296875</AltitudeMeters>
            <DistanceMeters>NAN</DistanceMeters>
          </Trackpoint>
          <Trackpoint>
            <Time>2019-10-06T09:36:38.000Z</Time>
            <Position>
              <LatitudeDegrees>41.3201713375747203826904296875</LatitudeDegrees>
              <LongitudeDegrees>-5.73483687825500965118408203125</LongitudeDegrees>
            </Position>
            <AltitudeMeters>756.4000244140625</AltitudeMeters>
            <DistanceMeters>NAN</DistanceMeters>
          </Trackpoint>
          <Trackpoint>
            <Time>2019-10-06T09:36:43.000Z</Time>
            <Position>
              <LatitudeDegrees>41.3199624605476856231689453125</LatitudeDegrees>
              <LongitudeDegrees>-5.73481089435517787933349609375</LongitudeDegrees>
            </Position>
            <AltitudeMeters>757.5999755859375</AltitudeMeters>
            <DistanceMeters>NAN</DistanceMeters>
          </Trackpoint>
          <Trackpoint>
            <Time>2019-10-06T09:36:51.000Z</Time>
            <Position>
              <LatitudeDegrees>41.31962492130696773529052734375</LatitudeDegrees>
              <LongitudeDegrees>-5.7347471080720424652099609375</LongitudeDegrees>
            </Position>
            <AltitudeMeters>757.4000244140625</AltitudeMeters>
            <DistanceMeters>NAN</DistanceMeters>
          </Trackpoint>
          <Trackpoint>
            <Time>2019-10-06T09:36:59.000Z</Time>
            <Position>
              <LatitudeDegrees>41.3192852027714252471923828125</LatitudeDegrees>
              <LongitudeDegrees>-5.73467695154249668121337890625</LongitudeDegrees>
            </Position>
            <AltitudeMeters>757.4000244140625</AltitudeMeters>
            <DistanceMeters>NAN</DistanceMeters>
          </Trackpoint>
          <Trackpoint>
            <Time>2019-10-06T09:37:00.000Z</Time>
            <Position>
              <LatitudeDegrees>41.3192436285316944122314453125</LatitudeDegrees>
              <LongitudeDegrees>-5.7346663065254688262939453125</LongitudeDegrees>
            </Position>
            <AltitudeMeters>757.4000244140625</AltitudeMeters>
            <DistanceMeters>NAN</DistanceMeters>
          </Trackpoint>
          <Trackpoint>
            <Time>2019-10-06T09:37:10.000Z</Time>
            <Position>
              <LatitudeDegrees>41.318819336593151092529296875</LatitudeDegrees>
              <LongitudeDegrees>-5.7345154322683811187744140625</LongitudeDegrees>
            </Position>
            <AltitudeMeters>758.20001220703125</AltitudeMeters>
            <DistanceMeters>NAN</DistanceMeters>
          </Trackpoint>
          <Trackpoint>
            <Time>2019-10-06T09:37:13.000Z</Time>
            <Position>
              <LatitudeDegrees>41.31869302131235599517822265625</LatitudeDegrees>
              <LongitudeDegrees>-5.734456591308116912841796875</LongitudeDegrees>
            </Position>
            <AltitudeMeters>758.5999755859375</AltitudeMeters>
            <DistanceMeters>NAN</DistanceMeters>
          </Trackpoint>
          <Trackpoint>
            <Time>2019-10-06T09:37:19.000Z</Time>
            <Position>
              <LatitudeDegrees>41.318448521196842193603515625</LatitudeDegrees>
              <LongitudeDegrees>-5.73431946337223052978515625</LongitudeDegrees>
            </Position>
            <AltitudeMeters>758.79998779296875</AltitudeMeters>
            <DistanceMeters>NAN</DistanceMeters>
          </Trackpoint>
          <Trackpoint>
            <Time>2019-10-06T09:37:20.000Z</Time>
            <Position>
              <LatitudeDegrees>41.31840803660452365875244140625</LatitudeDegrees>
              <LongitudeDegrees>-5.73429373092949390411376953125</LongitudeDegrees>
            </Position>
            <AltitudeMeters>758.79998779296875</AltitudeMeters>
            <DistanceMeters>NAN</DistanceMeters>
          </Trackpoint>
          <Trackpoint>
            <Time>2019-10-06T09:37:28.000Z</Time>
            <Position>
              <LatitudeDegrees>41.31809773854911327362060546875</LatitudeDegrees>
              <LongitudeDegrees>-5.734073035418987274169921875</LongitudeDegrees>
            </Position>
            <AltitudeMeters>759.20001220703125</AltitudeMeters>
            <DistanceMeters>NAN</DistanceMeters>
          </Trackpoint>
          <Trackpoint>
            <Time>2019-10-06T09:37:29.000Z</Time>
            <Position>
              <LatitudeDegrees>41.31805934943258762359619140625</LatitudeDegrees>
              <LongitudeDegrees>-5.73404680006206035614013671875</LongitudeDegrees>
            </Position>
            <AltitudeMeters>759.5999755859375</AltitudeMeters>
            <DistanceMeters>NAN</DistanceMeters>
          </Trackpoint>
          <Trackpoint>
            <Time>2019-10-06T09:37:38.000Z</Time>
            <Position>
              <LatitudeDegrees>41.31771259009838104248046875</LatitudeDegrees>
              <LongitudeDegrees>-5.73379299603402614593505859375</LongitudeDegrees>
            </Position>
            <AltitudeMeters>760.4000244140625</AltitudeMeters>
            <DistanceMeters>NAN</DistanceMeters>
          </Trackpoint>
          <Trackpoint>
            <Time>2019-10-06T09:37:49.000Z</Time>
            <Position>
              <LatitudeDegrees>41.3172970153391361236572265625</LatitudeDegrees>
              <LongitudeDegrees>-5.7334904931485652923583984375</LongitudeDegrees>
            </Position>
            <AltitudeMeters>761.79998779296875</AltitudeMeters>
            <DistanceMeters>NAN</DistanceMeters>
          </Trackpoint>
          <Trackpoint>
            <Time>2019-10-06T09:37:59.000Z</Time>
            <Position>
              <LatitudeDegrees>41.31692670285701751708984375</LatitudeDegrees>
              <LongitudeDegrees>-5.7332269661128520965576171875</LongitudeDegrees>
            </Position>
            <AltitudeMeters>762.4000244140625</AltitudeMeters>
            <DistanceMeters>NAN</DistanceMeters>
          </Trackpoint>
          <Trackpoint>
            <Time>2019-10-06T09:38:01.000Z</Time>
            <Position>
              <LatitudeDegrees>41.31685294210910797119140625</LatitudeDegrees>
              <LongitudeDegrees>-5.73317776434123516082763671875</LongitudeDegrees>
            </Position>
            <AltitudeMeters>763</AltitudeMeters>
            <DistanceMeters>NAN</DistanceMeters>
          </Trackpoint>
          <Trackpoint>
            <Time>2019-10-06T09:38:08.000Z</Time>
            <Position>
              <LatitudeDegrees>41.3165939413011074066162109375</LatitudeDegrees>
              <LongitudeDegrees>-5.73300928808748722076416015625</LongitudeDegrees>
            </Position>
            <AltitudeMeters>763.79998779296875</AltitudeMeters>
            <DistanceMeters>NAN</DistanceMeters>
          </Trackpoint>
          <Trackpoint>
            <Time>2019-10-06T09:38:11.000Z</Time>
            <Position>
              <LatitudeDegrees>41.3164792768657207489013671875</LatitudeDegrees>
              <LongitudeDegrees>-5.73294474743306636810302734375</LongitudeDegrees>
            </Position>
            <AltitudeMeters>764</AltitudeMeters>
            <DistanceMeters>NAN</DistanceMeters>
          </Trackpoint>
          <Trackpoint>
            <Time>2019-10-06T09:38:18.000Z</Time>
            <Position>
              <LatitudeDegrees>41.31621549837291240692138671875</LatitudeDegrees>
              <LongitudeDegrees>-5.7328129000961780548095703125</LongitudeDegrees>
            </Position>
            <AltitudeMeters>765</AltitudeMeters>
            <DistanceMeters>NAN</DistanceMeters>
          </Trackpoint>
          <Trackpoint>
            <Time>2019-10-06T09:38:20.000Z</Time>
            <Position>
              <LatitudeDegrees>41.3161393068730831146240234375</LatitudeDegrees>
              <LongitudeDegrees>-5.7327787019312381744384765625</LongitudeDegrees>
            </Position>
            <AltitudeMeters>765.20001220703125</AltitudeMeters>
            <DistanceMeters>NAN</DistanceMeters>
          </Trackpoint>
          <Trackpoint>
            <Time>2019-10-06T09:38:28.000Z</Time>
            <Position>
              <LatitudeDegrees>41.31582993082702159881591796875</LatitudeDegrees>
              <LongitudeDegrees>-5.732668228447437286376953125</LongitudeDegrees>
            </Position>
            <AltitudeMeters>766.20001220703125</AltitudeMeters>
            <DistanceMeters>NAN</DistanceMeters>
          </Trackpoint>
          <Trackpoint>
            <Time>2019-10-06T09:38:29.000Z</Time>
            <Position>
              <LatitudeDegrees>41.315789110958576202392578125</LatitudeDegrees>
              <LongitudeDegrees>-5.73265758343040943145751953125</LongitudeDegrees>
            </Position>
            <AltitudeMeters>766.79998779296875</AltitudeMeters>
            <DistanceMeters>NAN</DistanceMeters>
          </Trackpoint>
          <Trackpoint>
            <Time>2019-10-06T09:38:36.000Z</Time>
            <Position>
              <LatitudeDegrees>41.31550923921167850494384765625</LatitudeDegrees>
              <LongitudeDegrees>-5.73258851654827594757080078125</LongitudeDegrees>
            </Position>
            <AltitudeMeters>767.79998779296875</AltitudeMeters>
            <DistanceMeters>NAN</DistanceMeters>
          </Trackpoint>
          <Trackpoint>
            <Time>2019-10-06T09:38:38.000Z</Time>
            <Position>
              <LatitudeDegrees>41.31543338298797607421875</LatitudeDegrees>
              <LongitudeDegrees>-5.732579044997692108154296875</LongitudeDegrees>
            </Position>
            <AltitudeMeters>767.5999755859375</AltitudeMeters>
            <DistanceMeters>NAN</DistanceMeters>
          </Trackpoint>
          <Trackpoint>
            <Time>2019-10-06T09:38:41.000Z</Time>
            <Position>
              <LatitudeDegrees>41.3153158687055110931396484375</LatitudeDegrees>
              <LongitudeDegrees>-5.73255666531622409820556640625</LongitudeDegrees>
            </Position>
            <AltitudeMeters>768.5999755859375</AltitudeMeters>
            <DistanceMeters>NAN</DistanceMeters>
          </Trackpoint>
          <Trackpoint>
            <Time>2019-10-06T09:38:47.000Z</Time>
            <Position>
              <LatitudeDegrees>41.31509232334792613983154296875</LatitudeDegrees>
              <LongitudeDegrees>-5.7325171865522861480712890625</LongitudeDegrees>
            </Position>
            <AltitudeMeters>768.79998779296875</AltitudeMeters>
            <DistanceMeters>NAN</DistanceMeters>
          </Trackpoint>
          <Trackpoint>
            <Time>2019-10-06T09:38:50.000Z</Time>
            <Position>
              <LatitudeDegrees>41.31498352624475955963134765625</LatitudeDegrees>
              <LongitudeDegrees>-5.73250587098300457000732421875</LongitudeDegrees>
            </Position>
            <AltitudeMeters>769.5999755859375</AltitudeMeters>
            <DistanceMeters>NAN</DistanceMeters>
          </Trackpoint>
          <Trackpoint>
            <Time>2019-10-06T09:38:54.000Z</Time>
            <Position>
              <LatitudeDegrees>41.3148384355008602142333984375</LatitudeDegrees>
              <LongitudeDegrees>-5.73248374275863170623779296875</LongitudeDegrees>
            </Position>
            <AltitudeMeters>770.4000244140625</AltitudeMeters>
            <DistanceMeters>NAN</DistanceMeters>
          </Trackpoint>
          <Trackpoint>
            <Time>2019-10-06T09:38:56.000Z</Time>
            <Position>
              <LatitudeDegrees>41.31476350128650665283203125</LatitudeDegrees>
              <LongitudeDegrees>-5.7324702478945255279541015625</LongitudeDegrees>
            </Position>
            <AltitudeMeters>770.79998779296875</AltitudeMeters>
            <DistanceMeters>NAN</DistanceMeters>
          </Trackpoint>
          <Trackpoint>
            <Time>2019-10-06T09:39:03.000Z</Time>
            <Position>
              <LatitudeDegrees>41.314500309526920318603515625</LatitudeDegrees>
              <LongitudeDegrees>-5.73243563063442707061767578125</LongitudeDegrees>
            </Position>
            <AltitudeMeters>771.5999755859375</AltitudeMeters>
            <DistanceMeters>NAN</DistanceMeters>
          </Trackpoint>
          <Trackpoint>
            <Time>2019-10-06T09:39:05.000Z</Time>
            <Position>
              <LatitudeDegrees>41.314427219331264495849609375</LatitudeDegrees>
              <LongitudeDegrees>-5.73242045938968658447265625</LongitudeDegrees>
            </Position>
            <AltitudeMeters>772</AltitudeMeters>
            <DistanceMeters>NAN</DistanceMeters>
          </Trackpoint>
          <Trackpoint>
            <Time>2019-10-06T09:39:09.000Z</Time>
            <Position>
              <LatitudeDegrees>41.31429218687117099761962890625</LatitudeDegrees>
              <LongitudeDegrees>-5.73241048492491245269775390625</LongitudeDegrees>
            </Position>
            <AltitudeMeters>772.4000244140625</AltitudeMeters>
            <DistanceMeters>NAN</DistanceMeters>
          </Trackpoint>
          <Trackpoint>
            <Time>2019-10-06T09:39:11.000Z</Time>
            <Position>
              <LatitudeDegrees>41.31424306891858577728271484375</LatitudeDegrees>
              <LongitudeDegrees>-5.73240277357399463653564453125</LongitudeDegrees>
            </Position>
            <AltitudeMeters>773</AltitudeMeters>
            <DistanceMeters>NAN</DistanceMeters>
          </Trackpoint>
          <Trackpoint>
            <Time>2019-10-06T09:39:13.000Z</Time>
            <Position>
              <LatitudeDegrees>41.31422680802643299102783203125</LatitudeDegrees>
              <LongitudeDegrees>-5.73239774443209171295166015625</LongitudeDegrees>
            </Position>
            <AltitudeMeters>773.4000244140625</AltitudeMeters>
            <DistanceMeters>NAN</DistanceMeters>
          </Trackpoint>
          <Trackpoint>
            <Time>2019-10-06T09:39:21.000Z</Time>
            <Position>
              <LatitudeDegrees>41.31422563455998897552490234375</LatitudeDegrees>
              <LongitudeDegrees>-5.73239288292825222015380859375</LongitudeDegrees>
            </Position>
            <AltitudeMeters>773.5999755859375</AltitudeMeters>
            <DistanceMeters>NAN</DistanceMeters>
          </Trackpoint>
          <Trackpoint>
            <Time>2019-10-06T09:39:26.000Z</Time>
            <Position>
              <LatitudeDegrees>41.31422563455998897552490234375</LatitudeDegrees>
              <LongitudeDegrees>-5.73239288292825222015380859375</LongitudeDegrees>
            </Position>
            <AltitudeMeters>773.79998779296875</AltitudeMeters>
            <DistanceMeters>NAN</DistanceMeters>
          </Trackpoint>
          <Trackpoint>
            <Time>2019-10-06T09:39:27.000Z</Time>
            <Position>
              <LatitudeDegrees>41.31422563455998897552490234375</LatitudeDegrees>
              <LongitudeDegrees>-5.73239288292825222015380859375</LongitudeDegrees>
            </Position>
            <AltitudeMeters>773.5999755859375</AltitudeMeters>
            <DistanceMeters>NAN</DistanceMeters>
          </Trackpoint>
          <Trackpoint>
            <Time>2019-10-06T09:39:36.000Z</Time>
            <Position>
              <LatitudeDegrees>41.31422563455998897552490234375</LatitudeDegrees>
              <LongitudeDegrees>-5.73239288292825222015380859375</LongitudeDegrees>
            </Position>
            <AltitudeMeters>773.4000244140625</AltitudeMeters>
            <DistanceMeters>NAN</DistanceMeters>
          </Trackpoint>
          <Trackpoint>
            <Time>2019-10-06T09:39:37.000Z</Time>
            <Position>
              <LatitudeDegrees>41.31422563455998897552490234375</LatitudeDegrees>
              <LongitudeDegrees>-5.73239288292825222015380859375</LongitudeDegrees>
            </Position>
            <AltitudeMeters>773.4000244140625</AltitudeMeters>
            <DistanceMeters>NAN</DistanceMeters>
          </Trackpoint>
          <Trackpoint>
            <Time>2019-10-06T09:39:39.000Z</Time>
            <Position>
              <LatitudeDegrees>41.31422563455998897552490234375</LatitudeDegrees>
              <LongitudeDegrees>-5.73239288292825222015380859375</LongitudeDegrees>
            </Position>
            <AltitudeMeters>773.20001220703125</AltitudeMeters>
            <DistanceMeters>NAN</DistanceMeters>
          </Trackpoint>
          <Trackpoint>
            <Time>2019-10-06T09:39:43.000Z</Time>
            <Position>
              <LatitudeDegrees>41.31422563455998897552490234375</LatitudeDegrees>
              <LongitudeDegrees>-5.73239288292825222015380859375</LongitudeDegrees>
            </Position>
            <AltitudeMeters>773.4000244140625</AltitudeMeters>
            <DistanceMeters>NAN</DistanceMeters>
          </Trackpoint>
          <Trackpoint>
            <Time>2019-10-06T09:39:46.000Z</Time>
            <Position>
              <LatitudeDegrees>41.31422563455998897552490234375</LatitudeDegrees>
              <LongitudeDegrees>-5.73239288292825222015380859375</LongitudeDegrees>
            </Position>
            <AltitudeMeters>773.5999755859375</AltitudeMeters>
            <DistanceMeters>NAN</DistanceMeters>
          </Trackpoint>
          <Trackpoint>
            <Time>2019-10-06T09:39:48.000Z</Time>
            <Position>
              <LatitudeDegrees>41.31422563455998897552490234375</LatitudeDegrees>
              <LongitudeDegrees>-5.73239288292825222015380859375</LongitudeDegrees>
            </Position>
            <AltitudeMeters>773.5999755859375</AltitudeMeters>
            <DistanceMeters>NAN</DistanceMeters>
          </Trackpoint>
          <Trackpoint>
            <Time>2019-10-06T09:39:50.000Z</Time>
            <Position>
              <LatitudeDegrees>41.31422563455998897552490234375</LatitudeDegrees>
              <LongitudeDegrees>-5.73239288292825222015380859375</LongitudeDegrees>
            </Position>
            <AltitudeMeters>773.4000244140625</AltitudeMeters>
            <DistanceMeters>NAN</DistanceMeters>
          </Trackpoint>
          <Trackpoint>
            <Time>2019-10-06T09:39:52.000Z</Time>
            <Position>
              <LatitudeDegrees>41.31422563455998897552490234375</LatitudeDegrees>
              <LongitudeDegrees>-5.73239288292825222015380859375</LongitudeDegrees>
            </Position>
            <AltitudeMeters>773.5999755859375</AltitudeMeters>
            <DistanceMeters>NAN</DistanceMeters>
          </Trackpoint>
          <Trackpoint>
            <Time>2019-10-06T09:39:53.000Z</Time>
            <Position>
              <LatitudeDegrees>41.31422563455998897552490234375</LatitudeDegrees>
              <LongitudeDegrees>-5.73239288292825222015380859375</LongitudeDegrees>
            </Position>
            <AltitudeMeters>773.5999755859375</AltitudeMeters>
            <DistanceMeters>NAN</DistanceMeters>
          </Trackpoint>
          <Trackpoint>
            <Time>2019-10-06T09:39:55.000Z</Time>
            <Position>
              <LatitudeDegrees>41.314222030341625213623046875</LatitudeDegrees>
              <LongitudeDegrees>-5.73239388875663280487060546875</LongitudeDegrees>
            </Position>
            <AltitudeMeters>773.5999755859375</AltitudeMeters>
            <DistanceMeters>NAN</DistanceMeters>
          </Trackpoint>
          <Trackpoint>
            <Time>2019-10-06T09:39:59.000Z</Time>
            <Position>
              <LatitudeDegrees>41.314222030341625213623046875</LatitudeDegrees>
              <LongitudeDegrees>-5.73239388875663280487060546875</LongitudeDegrees>
            </Position>
            <AltitudeMeters>773.5999755859375</AltitudeMeters>
            <DistanceMeters>NAN</DistanceMeters>
          </Trackpoint>
          <Trackpoint>
            <Time>2019-10-06T09:40:03.000Z</Time>
            <Position>
              <LatitudeDegrees>41.314222030341625213623046875</LatitudeDegrees>
              <LongitudeDegrees>-5.73239388875663280487060546875</LongitudeDegrees>
            </Position>
            <AltitudeMeters>773.79998779296875</AltitudeMeters>
            <DistanceMeters>NAN</DistanceMeters>
          </Trackpoint>
          <Trackpoint>
            <Time>2019-10-06T09:40:05.000Z</Time>
            <Position>
              <LatitudeDegrees>41.314222030341625213623046875</LatitudeDegrees>
              <LongitudeDegrees>-5.73239388875663280487060546875</LongitudeDegrees>
            </Position>
            <AltitudeMeters>773.4000244140625</AltitudeMeters>
            <DistanceMeters>NAN</DistanceMeters>
          </Trackpoint>
          <Trackpoint>
            <Time>2019-10-06T09:40:10.000Z</Time>
            <Position>
              <LatitudeDegrees>41.314222030341625213623046875</LatitudeDegrees>
              <LongitudeDegrees>-5.73239388875663280487060546875</LongitudeDegrees>
            </Position>
            <AltitudeMeters>773.4000244140625</AltitudeMeters>
            <DistanceMeters>NAN</DistanceMeters>
          </Trackpoint>
          <Trackpoint>
            <Time>2019-10-06T09:40:12.000Z</Time>
            <Position>
              <LatitudeDegrees>41.314222030341625213623046875</LatitudeDegrees>
              <LongitudeDegrees>-5.73239388875663280487060546875</LongitudeDegrees>
            </Position>
            <AltitudeMeters>773.4000244140625</AltitudeMeters>
            <DistanceMeters>NAN</DistanceMeters>
          </Trackpoint>
          <Trackpoint>
            <Time>2019-10-06T09:40:23.000Z</Time>
            <Position>
              <LatitudeDegrees>41.314222030341625213623046875</LatitudeDegrees>
              <LongitudeDegrees>-5.73239388875663280487060546875</LongitudeDegrees>
            </Position>
            <AltitudeMeters>773.5999755859375</AltitudeMeters>
            <DistanceMeters>NAN</DistanceMeters>
          </Trackpoint>
          <Trackpoint>
            <Time>2019-10-06T09:40:29.000Z</Time>
            <Position>
              <LatitudeDegrees>41.314222030341625213623046875</LatitudeDegrees>
              <LongitudeDegrees>-5.73239388875663280487060546875</LongitudeDegrees>
            </Position>
            <AltitudeMeters>773.4000244140625</AltitudeMeters>
            <DistanceMeters>NAN</DistanceMeters>
          </Trackpoint>
          <Trackpoint>
            <Time>2019-10-06T09:40:30.000Z</Time>
            <Position>
              <LatitudeDegrees>41.314222030341625213623046875</LatitudeDegrees>
              <LongitudeDegrees>-5.73239388875663280487060546875</LongitudeDegrees>
            </Position>
            <AltitudeMeters>773.4000244140625</AltitudeMeters>
            <DistanceMeters>NAN</DistanceMeters>
          </Trackpoint>
          <Trackpoint>
            <Time>2019-10-06T09:40:38.000Z</Time>
            <Position>
              <LatitudeDegrees>41.3142188452184200286865234375</LatitudeDegrees>
              <LongitudeDegrees>-5.73239321820437908172607421875</LongitudeDegrees>
            </Position>
            <AltitudeMeters>773.5999755859375</AltitudeMeters>
            <DistanceMeters>NAN</DistanceMeters>
          </Trackpoint>
          <Trackpoint>
            <Time>2019-10-06T09:40:41.000Z</Time>
            <Position>
              <LatitudeDegrees>41.3142188452184200286865234375</LatitudeDegrees>
              <LongitudeDegrees>-5.73239321820437908172607421875</LongitudeDegrees>
            </Position>
            <AltitudeMeters>773.79998779296875</AltitudeMeters>
            <DistanceMeters>NAN</DistanceMeters>
          </Trackpoint>
          <Trackpoint>
            <Time>2019-10-06T09:40:47.000Z</Time>
            <Position>
              <LatitudeDegrees>41.3142188452184200286865234375</LatitudeDegrees>
              <LongitudeDegrees>-5.73239321820437908172607421875</LongitudeDegrees>
            </Position>
            <AltitudeMeters>773.4000244140625</AltitudeMeters>
            <DistanceMeters>NAN</DistanceMeters>
          </Trackpoint>
          <Trackpoint>
            <Time>2019-10-06T09:40:51.000Z</Time>
            <Position>
              <LatitudeDegrees>41.3142188452184200286865234375</LatitudeDegrees>
              <LongitudeDegrees>-5.73239321820437908172607421875</LongitudeDegrees>
            </Position>
            <AltitudeMeters>773.4000244140625</AltitudeMeters>
            <DistanceMeters>NAN</DistanceMeters>
          </Trackpoint>
          <Trackpoint>
            <Time>2019-10-06T09:40:56.000Z</Time>
            <Position>
              <LatitudeDegrees>41.3142188452184200286865234375</LatitudeDegrees>
              <LongitudeDegrees>-5.73239321820437908172607421875</LongitudeDegrees>
            </Position>
            <AltitudeMeters>773.5999755859375</AltitudeMeters>
            <DistanceMeters>NAN</DistanceMeters>
          </Trackpoint>
          <Trackpoint>
            <Time>2019-10-06T09:41:03.000Z</Time>
            <Position>
              <LatitudeDegrees>41.3142188452184200286865234375</LatitudeDegrees>
              <LongitudeDegrees>-5.73239321820437908172607421875</LongitudeDegrees>
            </Position>
            <AltitudeMeters>773.79998779296875</AltitudeMeters>
            <DistanceMeters>NAN</DistanceMeters>
          </Trackpoint>
          <Trackpoint>
            <Time>2019-10-06T09:41:08.000Z</Time>
            <Position>
              <LatitudeDegrees>41.3142188452184200286865234375</LatitudeDegrees>
              <LongitudeDegrees>-5.73239321820437908172607421875</LongitudeDegrees>
            </Position>
            <AltitudeMeters>773.4000244140625</AltitudeMeters>
            <DistanceMeters>NAN</DistanceMeters>
          </Trackpoint>
          <Trackpoint>
            <Time>2019-10-06T09:41:16.000Z</Time>
            <Position>
              <LatitudeDegrees>41.3142171688377857208251953125</LatitudeDegrees>
              <LongitudeDegrees>-5.7323916256427764892578125</LongitudeDegrees>
            </Position>
            <AltitudeMeters>773.5999755859375</AltitudeMeters>
            <DistanceMeters>NAN</DistanceMeters>
          </Trackpoint>
          <Trackpoint>
            <Time>2019-10-06T09:41:19.000Z</Time>
            <Position>
              <LatitudeDegrees>41.31421029567718505859375</LatitudeDegrees>
              <LongitudeDegrees>-5.7323877699673175811767578125</LongitudeDegrees>
            </Position>
            <AltitudeMeters>774</AltitudeMeters>
            <DistanceMeters>NAN</DistanceMeters>
          </Trackpoint>
          <Trackpoint>
            <Time>2019-10-06T09:41:22.000Z</Time>
            <Position>
              <LatitudeDegrees>41.3141665421426296234130859375</LatitudeDegrees>
              <LongitudeDegrees>-5.73237008415162563323974609375</LongitudeDegrees>
            </Position>
            <AltitudeMeters>773.5999755859375</AltitudeMeters>
            <DistanceMeters>NAN</DistanceMeters>
          </Trackpoint>
          <Trackpoint>
            <Time>2019-10-06T09:41:27.000Z</Time>
            <Position>
              <LatitudeDegrees>41.3140243850648403167724609375</LatitudeDegrees>
              <LongitudeDegrees>-5.73233328759670257568359375</LongitudeDegrees>
            </Position>
            <AltitudeMeters>774</AltitudeMeters>
            <DistanceMeters>NAN</DistanceMeters>
          </Trackpoint>
          <Trackpoint>
            <Time>2019-10-06T09:41:28.000Z</Time>
            <Position>
              <LatitudeDegrees>41.313992701470851898193359375</LatitudeDegrees>
              <LongitudeDegrees>-5.732323229312896728515625</LongitudeDegrees>
            </Position>
            <AltitudeMeters>774.20001220703125</AltitudeMeters>
            <DistanceMeters>NAN</DistanceMeters>
          </Trackpoint>
          <Trackpoint>
            <Time>2019-10-06T09:41:29.000Z</Time>
            <Position>
              <LatitudeDegrees>41.3139603473246097564697265625</LatitudeDegrees>
              <LongitudeDegrees>-5.732313506305217742919921875</LongitudeDegrees>
            </Position>
            <AltitudeMeters>774.20001220703125</AltitudeMeters>
            <DistanceMeters>NAN</DistanceMeters>
          </Trackpoint>
          <Trackpoint>
            <Time>2019-10-06T09:41:33.000Z</Time>
            <Position>
              <LatitudeDegrees>41.31381810642778873443603515625</LatitudeDegrees>
              <LongitudeDegrees>-5.73227553628385066986083984375</LongitudeDegrees>
            </Position>
            <AltitudeMeters>774.5999755859375</AltitudeMeters>
            <DistanceMeters>NAN</DistanceMeters>
          </Trackpoint>
          <Trackpoint>
            <Time>2019-10-06T09:41:34.000Z</Time>
            <Position>
              <LatitudeDegrees>41.31378340534865856170654296875</LatitudeDegrees>
              <LongitudeDegrees>-5.73226061649620532989501953125</LongitudeDegrees>
            </Position>
            <AltitudeMeters>774.79998779296875</AltitudeMeters>
            <DistanceMeters>NAN</DistanceMeters>
          </Trackpoint>
          <Trackpoint>
            <Time>2019-10-06T09:41:36.000Z</Time>
            <Position>
              <LatitudeDegrees>41.3137115724384784698486328125</LatitudeDegrees>
              <LongitudeDegrees>-5.73222977109253406524658203125</LongitudeDegrees>
            </Position>
            <AltitudeMeters>775.20001220703125</AltitudeMeters>
            <DistanceMeters>NAN</DistanceMeters>
          </Trackpoint>
          <Trackpoint>
            <Time>2019-10-06T09:41:39.000Z</Time>
            <Position>
              <LatitudeDegrees>41.31360520608723163604736328125</LatitudeDegrees>
              <LongitudeDegrees>-5.73219138197600841522216796875</LongitudeDegrees>
            </Position>
            <AltitudeMeters>775</AltitudeMeters>
            <DistanceMeters>NAN</DistanceMeters>
          </Trackpoint>
          <Trackpoint>
            <Time>2019-10-06T09:41:42.000Z</Time>
            <Position>
              <LatitudeDegrees>41.31350277923047542572021484375</LatitudeDegrees>
              <LongitudeDegrees>-5.73214762844145298004150390625</LongitudeDegrees>
            </Position>
            <AltitudeMeters>775</AltitudeMeters>
            <DistanceMeters>NAN</DistanceMeters>
          </Trackpoint>
          <Trackpoint>
            <Time>2019-10-06T09:41:43.000Z</Time>
            <Position>
              <LatitudeDegrees>41.313467659056186676025390625</LatitudeDegrees>
              <LongitudeDegrees>-5.73213078081607818603515625</LongitudeDegrees>
            </Position>
            <AltitudeMeters>775.20001220703125</AltitudeMeters>
            <DistanceMeters>NAN</DistanceMeters>
          </Trackpoint>
          <Trackpoint>
            <Time>2019-10-06T09:41:47.000Z</Time>
            <Position>
              <LatitudeDegrees>41.31333631463348865509033203125</LatitudeDegrees>
              <LongitudeDegrees>-5.7320625521242618560791015625</LongitudeDegrees>
            </Position>
            <AltitudeMeters>776</AltitudeMeters>
            <DistanceMeters>NAN</DistanceMeters>
          </Trackpoint>
          <Trackpoint>
            <Time>2019-10-06T09:41:49.000Z</Time>
            <Position>
              <LatitudeDegrees>41.31327495910227298736572265625</LatitudeDegrees>
              <LongitudeDegrees>-5.7320307008922100067138671875</LongitudeDegrees>
            </Position>
            <AltitudeMeters>776.20001220703125</AltitudeMeters>
            <DistanceMeters>NAN</DistanceMeters>
          </Trackpoint>
          <Trackpoint>
            <Time>2019-10-06T09:41:51.000Z</Time>
            <Position>
              <LatitudeDegrees>41.31321578286588191986083984375</LatitudeDegrees>
              <LongitudeDegrees>-5.731994323432445526123046875</LongitudeDegrees>
            </Position>
            <AltitudeMeters>776.4000244140625</AltitudeMeters>
            <DistanceMeters>NAN</DistanceMeters>
          </Trackpoint>
          <Trackpoint>
            <Time>2019-10-06T09:42:00.000Z</Time>
            <Position>
              <LatitudeDegrees>41.31292426027357578277587890625</LatitudeDegrees>
              <LongitudeDegrees>-5.7317800819873809814453125</LongitudeDegrees>
            </Position>
            <AltitudeMeters>777.4000244140625</AltitudeMeters>
            <DistanceMeters>NAN</DistanceMeters>
          </Trackpoint>
          <Trackpoint>
            <Time>2019-10-06T09:42:07.000Z</Time>
            <Position>
              <LatitudeDegrees>41.3126908242702484130859375</LatitudeDegrees>
              <LongitudeDegrees>-5.73157547973096370697021484375</LongitudeDegrees>
            </Position>
            <AltitudeMeters>778.4000244140625</AltitudeMeters>
            <DistanceMeters>NAN</DistanceMeters>
          </Trackpoint>
          <Trackpoint>
            <Time>2019-10-06T09:42:10.000Z</Time>
            <Position>
              <LatitudeDegrees>41.3125987909734249114990234375</LatitudeDegrees>
              <LongitudeDegrees>-5.731482692062854766845703125</LongitudeDegrees>
            </Position>
            <AltitudeMeters>778.5999755859375</AltitudeMeters>
            <DistanceMeters>NAN</DistanceMeters>
          </Trackpoint>
          <Trackpoint>
            <Time>2019-10-06T09:42:17.000Z</Time>
            <Position>
              <LatitudeDegrees>41.312392763793468475341796875</LatitudeDegrees>
              <LongitudeDegrees>-5.731261409819126129150390625</LongitudeDegrees>
            </Position>
            <AltitudeMeters>779.4000244140625</AltitudeMeters>
            <DistanceMeters>NAN</DistanceMeters>
          </Trackpoint>
          <Trackpoint>
            <Time>2019-10-06T09:42:19.000Z</Time>
            <Position>
              <LatitudeDegrees>41.31233618594706058502197265625</LatitudeDegrees>
              <LongitudeDegrees>-5.73119779117405414581298828125</LongitudeDegrees>
            </Position>
            <AltitudeMeters>779.4000244140625</AltitudeMeters>
            <DistanceMeters>NAN</DistanceMeters>
          </Trackpoint>
          <Trackpoint>
            <Time>2019-10-06T09:42:27.000Z</Time>
            <Position>
              <LatitudeDegrees>41.31211490370333194732666015625</LatitudeDegrees>
              <LongitudeDegrees>-5.73093459941446781158447265625</LongitudeDegrees>
            </Position>
            <AltitudeMeters>780</AltitudeMeters>
            <DistanceMeters>NAN</DistanceMeters>
          </Trackpoint>
          <Trackpoint>
            <Time>2019-10-06T09:42:31.000Z</Time>
            <Position>
              <LatitudeDegrees>41.31200350821018218994140625</LatitudeDegrees>
              <LongitudeDegrees>-5.73079864494502544403076171875</LongitudeDegrees>
            </Position>
            <AltitudeMeters>780.5999755859375</AltitudeMeters>
            <DistanceMeters>NAN</DistanceMeters>
          </Trackpoint>
          <Trackpoint>
            <Time>2019-10-06T09:42:36.000Z</Time>
            <Position>
              <LatitudeDegrees>41.31187048740684986114501953125</LatitudeDegrees>
              <LongitudeDegrees>-5.73061759583652019500732421875</LongitudeDegrees>
            </Position>
            <AltitudeMeters>781</AltitudeMeters>
            <DistanceMeters>NAN</DistanceMeters>
          </Trackpoint>
          <Trackpoint>
            <Time>2019-10-06T09:42:41.000Z</Time>
            <Position>
              <LatitudeDegrees>41.31173570640385150909423828125</LatitudeDegrees>
              <LongitudeDegrees>-5.730455406010150909423828125</LongitudeDegrees>
            </Position>
            <AltitudeMeters>781.5999755859375</AltitudeMeters>
            <DistanceMeters>NAN</DistanceMeters>
          </Trackpoint>
          <Trackpoint>
            <Time>2019-10-06T09:42:43.000Z</Time>
            <Position>
              <LatitudeDegrees>41.311674602329730987548828125</LatitudeDegrees>
              <LongitudeDegrees>-5.7303834892809391021728515625</LongitudeDegrees>
            </Position>
            <AltitudeMeters>782</AltitudeMeters>
            <DistanceMeters>NAN</DistanceMeters>
          </Trackpoint>
          <Trackpoint>
            <Time>2019-10-06T09:42:48.000Z</Time>
            <Position>
              <LatitudeDegrees>41.3115275837481021881103515625</LatitudeDegrees>
              <LongitudeDegrees>-5.73019280098378658294677734375</LongitudeDegrees>
            </Position>
            <AltitudeMeters>782.79998779296875</AltitudeMeters>
            <DistanceMeters>NAN</DistanceMeters>
          </Trackpoint>
          <Trackpoint>
            <Time>2019-10-06T09:42:50.000Z</Time>
            <Position>
              <LatitudeDegrees>41.3114705868065357208251953125</LatitudeDegrees>
              <LongitudeDegrees>-5.73012155480682849884033203125</LongitudeDegrees>
            </Position>
            <AltitudeMeters>783.20001220703125</AltitudeMeters>
            <DistanceMeters>NAN</DistanceMeters>
          </Trackpoint>
          <Trackpoint>
            <Time>2019-10-06T09:42:55.000Z</Time>
            <Position>
              <LatitudeDegrees>41.31133521907031536102294921875</LatitudeDegrees>
              <LongitudeDegrees>-5.7299489714205265045166015625</LongitudeDegrees>
            </Position>
            <AltitudeMeters>783.79998779296875</AltitudeMeters>
            <DistanceMeters>NAN</DistanceMeters>
          </Trackpoint>
          <Trackpoint>
            <Time>2019-10-06T09:42:59.000Z</Time>
            <Position>
              <LatitudeDegrees>41.3112211413681507110595703125</LatitudeDegrees>
              <LongitudeDegrees>-5.7298074848949909210205078125</LongitudeDegrees>
            </Position>
            <AltitudeMeters>784.4000244140625</AltitudeMeters>
            <DistanceMeters>NAN</DistanceMeters>
          </Trackpoint>
          <Trackpoint>
            <Time>2019-10-06T09:43:06.000Z</Time>
            <Position>
              <LatitudeDegrees>41.3110102526843547821044921875</LatitudeDegrees>
              <LongitudeDegrees>-5.729558877646923065185546875</LongitudeDegrees>
            </Position>
            <AltitudeMeters>784.79998779296875</AltitudeMeters>
            <DistanceMeters>NAN</DistanceMeters>
          </Trackpoint>
          <Trackpoint>
            <Time>2019-10-06T09:43:10.000Z</Time>
            <Position>
              <LatitudeDegrees>41.3108801655471324920654296875</LatitudeDegrees>
              <LongitudeDegrees>-5.72944195009768009185791015625</LongitudeDegrees>
            </Position>
            <AltitudeMeters>785</AltitudeMeters>
            <DistanceMeters>NAN</DistanceMeters>
          </Trackpoint>
          <Trackpoint>
            <Time>2019-10-06T09:43:15.000Z</Time>
            <Position>
              <LatitudeDegrees>41.3107095099985599517822265625</LatitudeDegrees>
              <LongitudeDegrees>-5.72930012829601764678955078125</LongitudeDegrees>
            </Position>
            <AltitudeMeters>785.79998779296875</AltitudeMeters>
            <DistanceMeters>NAN</DistanceMeters>
          </Trackpoint>
          <Trackpoint>
            <Time>2019-10-06T09:43:19.000Z</Time>
            <Position>
              <LatitudeDegrees>41.31057213060557842254638671875</LatitudeDegrees>
              <LongitudeDegrees>-5.72919937781989574432373046875</LongitudeDegrees>
            </Position>
            <AltitudeMeters>786</AltitudeMeters>
            <DistanceMeters>NAN</DistanceMeters>
          </Trackpoint>
          <Trackpoint>
            <Time>2019-10-06T09:43:24.000Z</Time>
            <Position>
              <LatitudeDegrees>41.3103836216032505035400390625</LatitudeDegrees>
              <LongitudeDegrees>-5.72908915579319000244140625</LongitudeDegrees>
            </Position>
            <AltitudeMeters>786.20001220703125</AltitudeMeters>
            <DistanceMeters>NAN</DistanceMeters>
          </Trackpoint>
          <Trackpoint>
            <Time>2019-10-06T09:43:30.000Z</Time>
            <Position>
              <LatitudeDegrees>41.310156472027301788330078125</LatitudeDegrees>
              <LongitudeDegrees>-5.72893484495580196380615234375</LongitudeDegrees>
            </Position>
            <AltitudeMeters>787</AltitudeMeters>
            <DistanceMeters>NAN</DistanceMeters>
          </Trackpoint>
          <Trackpoint>
            <Time>2019-10-06T09:43:33.000Z</Time>
            <Position>
              <LatitudeDegrees>41.310037113726139068603515625</LatitudeDegrees>
              <LongitudeDegrees>-5.72886116802692413330078125</LongitudeDegrees>
            </Position>
            <AltitudeMeters>787.20001220703125</AltitudeMeters>
            <DistanceMeters>NAN</DistanceMeters>
          </Trackpoint>
          <Trackpoint>
            <Time>2019-10-06T09:43:41.000Z</Time>
            <Position>
              <LatitudeDegrees>41.3097358681261539459228515625</LatitudeDegrees>
              <LongitudeDegrees>-5.72869495488703250885009765625</LongitudeDegrees>
            </Position>
            <AltitudeMeters>787.4000244140625</AltitudeMeters>
            <DistanceMeters>NAN</DistanceMeters>
          </Trackpoint>
          <Trackpoint>
            <Time>2019-10-06T09:43:43.000Z</Time>
            <Position>
              <LatitudeDegrees>41.30966286174952983856201171875</LatitudeDegrees>
              <LongitudeDegrees>-5.72864801622927188873291015625</LongitudeDegrees>
            </Position>
            <AltitudeMeters>788.20001220703125</AltitudeMeters>
            <DistanceMeters>NAN</DistanceMeters>
          </Trackpoint>
          <Trackpoint>
            <Time>2019-10-06T09:43:50.000Z</Time>
            <Position>
              <LatitudeDegrees>41.3094024360179901123046875</LatitudeDegrees>
              <LongitudeDegrees>-5.72850015945732593536376953125</LongitudeDegrees>
            </Position>
            <AltitudeMeters>788.79998779296875</AltitudeMeters>
            <DistanceMeters>NAN</DistanceMeters>
          </Trackpoint>
          <Trackpoint>
            <Time>2019-10-06T09:43:53.000Z</Time>
            <Position>
              <LatitudeDegrees>41.30929020233452320098876953125</LatitudeDegrees>
              <LongitudeDegrees>-5.72843293659389019012451171875</LongitudeDegrees>
            </Position>
            <AltitudeMeters>789.20001220703125</AltitudeMeters>
            <DistanceMeters>NAN</DistanceMeters>
          </Trackpoint>
          <Trackpoint>
            <Time>2019-10-06T09:43:59.000Z</Time>
            <Position>
              <LatitudeDegrees>41.30907227285206317901611328125</LatitudeDegrees>
              <LongitudeDegrees>-5.728309638798236846923828125</LongitudeDegrees>
            </Position>
            <AltitudeMeters>790</AltitudeMeters>
            <DistanceMeters>NAN</DistanceMeters>
          </Trackpoint>
          <Trackpoint>
            <Time>2019-10-06T09:44:01.000Z</Time>
            <Position>
              <LatitudeDegrees>41.30899935029447078704833984375</LatitudeDegrees>
              <LongitudeDegrees>-5.72826546616852283477783203125</LongitudeDegrees>
            </Position>
            <AltitudeMeters>790.4000244140625</AltitudeMeters>
            <DistanceMeters>NAN</DistanceMeters>
          </Trackpoint>
          <Trackpoint>
            <Time>2019-10-06T09:44:08.000Z</Time>
            <Position>
              <LatitudeDegrees>41.30874806083738803863525390625</LatitudeDegrees>
              <LongitudeDegrees>-5.72810084559023380279541015625</LongitudeDegrees>
            </Position>
            <AltitudeMeters>791.4000244140625</AltitudeMeters>
            <DistanceMeters>NAN</DistanceMeters>
          </Trackpoint>
          <Trackpoint>
            <Time>2019-10-06T09:44:16.000Z</Time>
            <Position>
              <LatitudeDegrees>41.30846106447279453277587890625</LatitudeDegrees>
              <LongitudeDegrees>-5.7279215566813945770263671875</LongitudeDegrees>
            </Position>
            <AltitudeMeters>792.5999755859375</AltitudeMeters>
            <DistanceMeters>NAN</DistanceMeters>
          </Trackpoint>
          <Trackpoint>
            <Time>2019-10-06T09:44:17.000Z</Time>
            <Position>
              <LatitudeDegrees>41.30842418409883975982666015625</LatitudeDegrees>
              <LongitudeDegrees>-5.72790018282830715179443359375</LongitudeDegrees>
            </Position>
            <AltitudeMeters>792.79998779296875</AltitudeMeters>
            <DistanceMeters>NAN</DistanceMeters>
          </Trackpoint>
          <Trackpoint>
            <Time>2019-10-06T09:44:24.000Z</Time>
            <Position>
              <LatitudeDegrees>41.30818781442940235137939453125</LatitudeDegrees>
              <LongitudeDegrees>-5.72777881287038326263427734375</LongitudeDegrees>
            </Position>
            <AltitudeMeters>794</AltitudeMeters>
            <DistanceMeters>NAN</DistanceMeters>
          </Trackpoint>
          <Trackpoint>
            <Time>2019-10-06T09:44:25.000Z</Time>
            <Position>
              <LatitudeDegrees>41.30815495736896991729736328125</LatitudeDegrees>
              <LongitudeDegrees>-5.7277639769017696380615234375</LongitudeDegrees>
            </Position>
            <AltitudeMeters>794.20001220703125</AltitudeMeters>
            <DistanceMeters>NAN</DistanceMeters>
          </Trackpoint>
          <Trackpoint>
            <Time>2019-10-06T09:44:32.000Z</Time>
            <Position>
              <LatitudeDegrees>41.3079066015779972076416015625</LatitudeDegrees>
              <LongitudeDegrees>-5.72764076292514801025390625</LongitudeDegrees>
            </Position>
            <AltitudeMeters>795</AltitudeMeters>
            <DistanceMeters>NAN</DistanceMeters>
          </Trackpoint>
          <Trackpoint>
            <Time>2019-10-06T09:44:33.000Z</Time>
            <Position>
              <LatitudeDegrees>41.30787030793726444244384765625</LatitudeDegrees>
              <LongitudeDegrees>-5.727623663842678070068359375</LongitudeDegrees>
            </Position>
            <AltitudeMeters>795</AltitudeMeters>
            <DistanceMeters>NAN</DistanceMeters>
          </Trackpoint>
          <Trackpoint>
            <Time>2019-10-06T09:44:38.000Z</Time>
            <Position>
              <LatitudeDegrees>41.3076853193342685699462890625</LatitudeDegrees>
              <LongitudeDegrees>-5.72756758891046047210693359375</LongitudeDegrees>
            </Position>
            <AltitudeMeters>796</AltitudeMeters>
            <DistanceMeters>NAN</DistanceMeters>
          </Trackpoint>
          <Trackpoint>
            <Time>2019-10-06T09:44:40.000Z</Time>
            <Position>
              <LatitudeDegrees>41.3076135702431201934814453125</LatitudeDegrees>
              <LongitudeDegrees>-5.72754512540996074676513671875</LongitudeDegrees>
            </Position>
            <AltitudeMeters>796.20001220703125</AltitudeMeters>
            <DistanceMeters>NAN</DistanceMeters>
          </Trackpoint>
          <Trackpoint>
            <Time>2019-10-06T09:44:43.000Z</Time>
            <Position>
              <LatitudeDegrees>41.30751005373895168304443359375</LatitudeDegrees>
              <LongitudeDegrees>-5.72751578874886035919189453125</LongitudeDegrees>
            </Position>
            <AltitudeMeters>797.20001220703125</AltitudeMeters>
            <DistanceMeters>NAN</DistanceMeters>
          </Trackpoint>
          <Trackpoint>
            <Time>2019-10-06T09:44:49.000Z</Time>
            <Position>
              <LatitudeDegrees>41.30731366574764251708984375</LatitudeDegrees>
              <LongitudeDegrees>-5.7274669222533702850341796875</LongitudeDegrees>
            </Position>
            <AltitudeMeters>797.5999755859375</AltitudeMeters>
            <DistanceMeters>NAN</DistanceMeters>
          </Trackpoint>
          <Trackpoint>
            <Time>2019-10-06T09:44:54.000Z</Time>
            <Position>
              <LatitudeDegrees>41.3071451894938945770263671875</LatitudeDegrees>
              <LongitudeDegrees>-5.72743414901196956634521484375</LongitudeDegrees>
            </Position>
            <AltitudeMeters>798.4000244140625</AltitudeMeters>
            <DistanceMeters>NAN</DistanceMeters>
          </Trackpoint>
          <Trackpoint>
            <Time>2019-10-06T09:44:58.000Z</Time>
            <Position>
              <LatitudeDegrees>41.3070090673863887786865234375</LatitudeDegrees>
              <LongitudeDegrees>-5.72742375545203685760498046875</LongitudeDegrees>
            </Position>
            <AltitudeMeters>798.79998779296875</AltitudeMeters>
            <DistanceMeters>NAN</DistanceMeters>
          </Trackpoint>
          <Trackpoint>
            <Time>2019-10-06T09:45:04.000Z</Time>
            <Position>
              <LatitudeDegrees>41.30680731497704982757568359375</LatitudeDegrees>
              <LongitudeDegrees>-5.72741369716823101043701171875</LongitudeDegrees>
            </Position>
            <AltitudeMeters>799.5999755859375</AltitudeMeters>
            <DistanceMeters>NAN</DistanceMeters>
          </Trackpoint>
          <Trackpoint>
            <Time>2019-10-06T09:45:06.000Z</Time>
            <Position>
              <LatitudeDegrees>41.3067425228655338287353515625</LatitudeDegrees>
              <LongitudeDegrees>-5.72741352953016757965087890625</LongitudeDegrees>
            </Position>
            <AltitudeMeters>800.20001220703125</AltitudeMeters>
            <DistanceMeters>NAN</DistanceMeters>
          </Trackpoint>
          <Trackpoint>
            <Time>2019-10-06T09:45:11.000Z</Time>
            <Position>
              <LatitudeDegrees>41.3065762259066104888916015625</LatitudeDegrees>
              <LongitudeDegrees>-5.7274146191775798797607421875</LongitudeDegrees>
            </Position>
            <AltitudeMeters>800.5999755859375</AltitudeMeters>
            <DistanceMeters>NAN</DistanceMeters>
          </Trackpoint>
          <Trackpoint>
            <Time>2019-10-06T09:45:16.000Z</Time>
            <Position>
              <LatitudeDegrees>41.30641135387122631072998046875</LatitudeDegrees>
              <LongitudeDegrees>-5.727430544793605804443359375</LongitudeDegrees>
            </Position>
            <AltitudeMeters>801.4000244140625</AltitudeMeters>
            <DistanceMeters>NAN</DistanceMeters>
          </Trackpoint>
          <Trackpoint>
            <Time>2019-10-06T09:45:19.000Z</Time>
            <Position>
              <LatitudeDegrees>41.30631563253700733184814453125</LatitudeDegrees>
              <LongitudeDegrees>-5.72744219563901424407958984375</LongitudeDegrees>
            </Position>
            <AltitudeMeters>801.79998779296875</AltitudeMeters>
            <DistanceMeters>NAN</DistanceMeters>
          </Trackpoint>
          <Trackpoint>
            <Time>2019-10-06T09:45:25.000Z</Time>
            <Position>
              <LatitudeDegrees>41.30612251348793506622314453125</LatitudeDegrees>
              <LongitudeDegrees>-5.72746298275887966156005859375</LongitudeDegrees>
            </Position>
            <AltitudeMeters>802.79998779296875</AltitudeMeters>
            <DistanceMeters>NAN</DistanceMeters>
          </Trackpoint>
          <Trackpoint>
            <Time>2019-10-06T09:45:31.000Z</Time>
            <Position>
              <LatitudeDegrees>41.30593157373368740081787109375</LatitudeDegrees>
              <LongitudeDegrees>-5.72749416343867778778076171875</LongitudeDegrees>
            </Position>
            <AltitudeMeters>803.79998779296875</AltitudeMeters>
            <DistanceMeters>NAN</DistanceMeters>
          </Trackpoint>
          <Trackpoint>
            <Time>2019-10-06T09:45:32.000Z</Time>
            <Position>
              <LatitudeDegrees>41.3058994710445404052734375</LatitudeDegrees>
              <LongitudeDegrees>-5.7275044731795787811279296875</LongitudeDegrees>
            </Position>
            <AltitudeMeters>803.79998779296875</AltitudeMeters>
            <DistanceMeters>NAN</DistanceMeters>
          </Trackpoint>
          <Trackpoint>
            <Time>2019-10-06T09:45:36.000Z</Time>
            <Position>
              <LatitudeDegrees>41.30577131174504756927490234375</LatitudeDegrees>
              <LongitudeDegrees>-5.727529786527156829833984375</LongitudeDegrees>
            </Position>
            <AltitudeMeters>804.79998779296875</AltitudeMeters>
            <DistanceMeters>NAN</DistanceMeters>
          </Trackpoint>
          <Trackpoint>
            <Time>2019-10-06T09:45:41.000Z</Time>
            <Position>
              <LatitudeDegrees>41.3056089542806148529052734375</LatitudeDegrees>
              <LongitudeDegrees>-5.72756574489176273345947265625</LongitudeDegrees>
            </Position>
            <AltitudeMeters>805.5999755859375</AltitudeMeters>
            <DistanceMeters>NAN</DistanceMeters>
          </Trackpoint>
          <Trackpoint>
            <Time>2019-10-06T09:45:42.000Z</Time>
            <Position>
              <LatitudeDegrees>41.30557500757277011871337890625</LatitudeDegrees>
              <LongitudeDegrees>-5.7275735400617122650146484375</LongitudeDegrees>
            </Position>
            <AltitudeMeters>806</AltitudeMeters>
            <DistanceMeters>NAN</DistanceMeters>
          </Trackpoint>
          <Trackpoint>
            <Time>2019-10-06T09:45:47.000Z</Time>
            <Position>
              <LatitudeDegrees>41.305412985384464263916015625</LatitudeDegrees>
              <LongitudeDegrees>-5.727601535618305206298828125</LongitudeDegrees>
            </Position>
            <AltitudeMeters>807</AltitudeMeters>
            <DistanceMeters>NAN</DistanceMeters>
          </Trackpoint>
          <Trackpoint>
            <Time>2019-10-06T09:45:52.000Z</Time>
            <Position>
              <LatitudeDegrees>41.30524593405425548553466796875</LatitudeDegrees>
              <LongitudeDegrees>-5.7276198081672191619873046875</LongitudeDegrees>
            </Position>
            <AltitudeMeters>807.5999755859375</AltitudeMeters>
            <DistanceMeters>NAN</DistanceMeters>
          </Trackpoint>
          <Trackpoint>
            <Time>2019-10-06T09:45:56.000Z</Time>
            <Position>
              <LatitudeDegrees>41.305125989019870758056640625</LatitudeDegrees>
              <LongitudeDegrees>-5.7276556827127933502197265625</LongitudeDegrees>
            </Position>
            <AltitudeMeters>808.20001220703125</AltitudeMeters>
            <DistanceMeters>NAN</DistanceMeters>
          </Trackpoint>
          <Trackpoint>
            <Time>2019-10-06T09:45:59.000Z</Time>
            <Position>
              <LatitudeDegrees>41.30503454245626926422119140625</LatitudeDegrees>
              <LongitudeDegrees>-5.7276888750493526458740234375</LongitudeDegrees>
            </Position>
            <AltitudeMeters>808.5999755859375</AltitudeMeters>
            <DistanceMeters>NAN</DistanceMeters>
          </Trackpoint>
          <Trackpoint>
            <Time>2019-10-06T09:46:02.000Z</Time>
            <Position>
              <LatitudeDegrees>41.3049665652215480804443359375</LatitudeDegrees>
              <LongitudeDegrees>-5.72773070074617862701416015625</LongitudeDegrees>
            </Position>
            <AltitudeMeters>809.4000244140625</AltitudeMeters>
            <DistanceMeters>NAN</DistanceMeters>
          </Trackpoint>
          <Trackpoint>
            <Time>2019-10-06T09:46:04.000Z</Time>
            <Position>
              <LatitudeDegrees>41.30494393408298492431640625</LatitudeDegrees>
              <LongitudeDegrees>-5.72772349230945110321044921875</LongitudeDegrees>
            </Position>
            <AltitudeMeters>809.4000244140625</AltitudeMeters>
            <DistanceMeters>NAN</DistanceMeters>
          </Trackpoint>
          <Trackpoint>
            <Time>2019-10-06T09:46:09.000Z</Time>
            <Position>
              <LatitudeDegrees>41.30487813614308834075927734375</LatitudeDegrees>
              <LongitudeDegrees>-5.7276763021945953369140625</LongitudeDegrees>
            </Position>
            <AltitudeMeters>809.79998779296875</AltitudeMeters>
            <DistanceMeters>NAN</DistanceMeters>
          </Trackpoint>
          <Trackpoint>
            <Time>2019-10-06T09:46:10.000Z</Time>
            <Position>
              <LatitudeDegrees>41.30486615002155303955078125</LatitudeDegrees>
              <LongitudeDegrees>-5.727662555873394012451171875</LongitudeDegrees>
            </Position>
            <AltitudeMeters>809.79998779296875</AltitudeMeters>
            <DistanceMeters>NAN</DistanceMeters>
          </Trackpoint>
          <Trackpoint>
            <Time>2019-10-06T09:46:13.000Z</Time>
            <Position>
              <LatitudeDegrees>41.30479314364492893218994140625</LatitudeDegrees>
              <LongitudeDegrees>-5.72766331024467945098876953125</LongitudeDegrees>
            </Position>
            <AltitudeMeters>810.5999755859375</AltitudeMeters>
            <DistanceMeters>NAN</DistanceMeters>
          </Trackpoint>
          <Trackpoint>
            <Time>2019-10-06T09:46:15.000Z</Time>
            <Position>
              <LatitudeDegrees>41.304739415645599365234375</LatitudeDegrees>
              <LongitudeDegrees>-5.72767085395753383636474609375</LongitudeDegrees>
            </Position>
            <AltitudeMeters>810.5999755859375</AltitudeMeters>
            <DistanceMeters>NAN</DistanceMeters>
          </Trackpoint>
          <Trackpoint>
            <Time>2019-10-06T09:46:22.000Z</Time>
            <Position>
              <LatitudeDegrees>41.30452794022858142852783203125</LatitudeDegrees>
              <LongitudeDegrees>-5.72765844874083995819091796875</LongitudeDegrees>
            </Position>
            <AltitudeMeters>811.79998779296875</AltitudeMeters>
            <DistanceMeters>NAN</DistanceMeters>
          </Trackpoint>
          <Trackpoint>
            <Time>2019-10-06T09:46:23.000Z</Time>
            <Position>
              <LatitudeDegrees>41.30449927411973476409912109375</LatitudeDegrees>
              <LongitudeDegrees>-5.72765945456922054290771484375</LongitudeDegrees>
            </Position>
            <AltitudeMeters>811.5999755859375</AltitudeMeters>
            <DistanceMeters>NAN</DistanceMeters>
          </Trackpoint>
          <Trackpoint>
            <Time>2019-10-06T09:46:28.000Z</Time>
            <Position>
              <LatitudeDegrees>41.30434689112007617950439453125</LatitudeDegrees>
              <LongitudeDegrees>-5.72764319367706775665283203125</LongitudeDegrees>
            </Position>
            <AltitudeMeters>812.79998779296875</AltitudeMeters>
            <DistanceMeters>NAN</DistanceMeters>
          </Trackpoint>
          <Trackpoint>
            <Time>2019-10-06T09:46:33.000Z</Time>
            <Position>
              <LatitudeDegrees>41.304194927215576171875</LatitudeDegrees>
              <LongitudeDegrees>-5.72762123309075832366943359375</LongitudeDegrees>
            </Position>
            <AltitudeMeters>813.4000244140625</AltitudeMeters>
            <DistanceMeters>NAN</DistanceMeters>
          </Trackpoint>
          <Trackpoint>
            <Time>2019-10-06T09:46:34.000Z</Time>
            <Position>
              <LatitudeDegrees>41.30416341125965118408203125</LatitudeDegrees>
              <LongitudeDegrees>-5.72762039490044116973876953125</LongitudeDegrees>
            </Position>
            <AltitudeMeters>814</AltitudeMeters>
            <DistanceMeters>NAN</DistanceMeters>
          </Trackpoint>
          <Trackpoint>
            <Time>2019-10-06T09:46:40.000Z</Time>
            <Position>
              <LatitudeDegrees>41.30398110486567020416259765625</LatitudeDegrees>
              <LongitudeDegrees>-5.72758938185870647430419921875</LongitudeDegrees>
            </Position>
            <AltitudeMeters>815</AltitudeMeters>
            <DistanceMeters>NAN</DistanceMeters>
          </Trackpoint>
          <Trackpoint>
            <Time>2019-10-06T09:46:46.000Z</Time>
            <Position>
              <LatitudeDegrees>41.303796283900737762451171875</LatitudeDegrees>
              <LongitudeDegrees>-5.727529786527156829833984375</LongitudeDegrees>
            </Position>
            <AltitudeMeters>816.20001220703125</AltitudeMeters>
            <DistanceMeters>NAN</DistanceMeters>
          </Trackpoint>
          <Trackpoint>
            <Time>2019-10-06T09:46:50.000Z</Time>
            <Position>
              <LatitudeDegrees>41.3036744110286235809326171875</LatitudeDegrees>
              <LongitudeDegrees>-5.7274930737912654876708984375</LongitudeDegrees>
            </Position>
            <AltitudeMeters>816.79998779296875</AltitudeMeters>
            <DistanceMeters>NAN</DistanceMeters>
          </Trackpoint>
          <Trackpoint>
            <Time>2019-10-06T09:46:53.000Z</Time>
            <Position>
              <LatitudeDegrees>41.3035808689892292022705078125</LatitudeDegrees>
              <LongitudeDegrees>-5.72745795361697673797607421875</LongitudeDegrees>
            </Position>
            <AltitudeMeters>817.20001220703125</AltitudeMeters>
            <DistanceMeters>NAN</DistanceMeters>
          </Trackpoint>
          <Trackpoint>
            <Time>2019-10-06T09:46:55.000Z</Time>
            <Position>
              <LatitudeDegrees>41.303527057170867919921875</LatitudeDegrees>
              <LongitudeDegrees>-5.7274402678012847900390625</LongitudeDegrees>
            </Position>
            <AltitudeMeters>817.79998779296875</AltitudeMeters>
            <DistanceMeters>NAN</DistanceMeters>
          </Trackpoint>
          <Trackpoint>
            <Time>2019-10-06T09:46:58.000Z</Time>
            <Position>
              <LatitudeDegrees>41.303442232310771942138671875</LatitudeDegrees>
              <LongitudeDegrees>-5.7274042256176471710205078125</LongitudeDegrees>
            </Position>
            <AltitudeMeters>818.20001220703125</AltitudeMeters>
            <DistanceMeters>NAN</DistanceMeters>
          </Trackpoint>
          <Trackpoint>
            <Time>2019-10-06T09:47:02.000Z</Time>
            <Position>
              <LatitudeDegrees>41.30333066917955875396728515625</LatitudeDegrees>
              <LongitudeDegrees>-5.72734613902866840362548828125</LongitudeDegrees>
            </Position>
            <AltitudeMeters>818.79998779296875</AltitudeMeters>
            <DistanceMeters>NAN</DistanceMeters>
          </Trackpoint>
          <Trackpoint>
            <Time>2019-10-06T09:47:07.000Z</Time>
            <Position>
              <LatitudeDegrees>41.30318163894116878509521484375</LatitudeDegrees>
              <LongitudeDegrees>-5.7272748090326786041259765625</LongitudeDegrees>
            </Position>
            <AltitudeMeters>819.4000244140625</AltitudeMeters>
            <DistanceMeters>NAN</DistanceMeters>
          </Trackpoint>
          <Trackpoint>
            <Time>2019-10-06T09:47:11.000Z</Time>
            <Position>
              <LatitudeDegrees>41.3030672259628772735595703125</LatitudeDegrees>
              <LongitudeDegrees>-5.72720825672149658203125</LongitudeDegrees>
            </Position>
            <AltitudeMeters>820.4000244140625</AltitudeMeters>
            <DistanceMeters>NAN</DistanceMeters>
          </Trackpoint>
          <Trackpoint>
            <Time>2019-10-06T09:47:12.000Z</Time>
            <Position>
              <LatitudeDegrees>41.30304090678691864013671875</LatitudeDegrees>
              <LongitudeDegrees>-5.7271881401538848876953125</LongitudeDegrees>
            </Position>
            <AltitudeMeters>820.5999755859375</AltitudeMeters>
            <DistanceMeters>NAN</DistanceMeters>
          </Trackpoint>
          <Trackpoint>
            <Time>2019-10-06T09:47:19.000Z</Time>
            <Position>
              <LatitudeDegrees>41.30285826511681079864501953125</LatitudeDegrees>
              <LongitudeDegrees>-5.727059729397296905517578125</LongitudeDegrees>
            </Position>
            <AltitudeMeters>821.5999755859375</AltitudeMeters>
            <DistanceMeters>NAN</DistanceMeters>
          </Trackpoint>
          <Trackpoint>
            <Time>2019-10-06T09:47:20.000Z</Time>
            <Position>
              <LatitudeDegrees>41.30283848382532596588134765625</LatitudeDegrees>
              <LongitudeDegrees>-5.72704271413385868072509765625</LongitudeDegrees>
            </Position>
            <AltitudeMeters>821.79998779296875</AltitudeMeters>
            <DistanceMeters>NAN</DistanceMeters>
          </Trackpoint>
          <Trackpoint>
            <Time>2019-10-06T09:47:26.000Z</Time>
            <Position>
              <LatitudeDegrees>41.3026863522827625274658203125</LatitudeDegrees>
              <LongitudeDegrees>-5.726931989192962646484375</LongitudeDegrees>
            </Position>
            <AltitudeMeters>822.79998779296875</AltitudeMeters>
            <DistanceMeters>NAN</DistanceMeters>
          </Trackpoint>
          <Trackpoint>
            <Time>2019-10-06T09:47:27.000Z</Time>
            <Position>
              <LatitudeDegrees>41.30266229622066020965576171875</LatitudeDegrees>
              <LongitudeDegrees>-5.726912207901477813720703125</LongitudeDegrees>
            </Position>
            <AltitudeMeters>822.79998779296875</AltitudeMeters>
            <DistanceMeters>NAN</DistanceMeters>
          </Trackpoint>
          <Trackpoint>
            <Time>2019-10-06T09:47:32.000Z</Time>
            <Position>
              <LatitudeDegrees>41.30253120325505733489990234375</LatitudeDegrees>
              <LongitudeDegrees>-5.726815648376941680908203125</LongitudeDegrees>
            </Position>
            <AltitudeMeters>823.79998779296875</AltitudeMeters>
            <DistanceMeters>NAN</DistanceMeters>
          </Trackpoint>
          <Trackpoint>
            <Time>2019-10-06T09:47:35.000Z</Time>
            <Position>
              <LatitudeDegrees>41.3024576939642429351806640625</LatitudeDegrees>
              <LongitudeDegrees>-5.726754963397979736328125</LongitudeDegrees>
            </Position>
            <AltitudeMeters>824.4000244140625</AltitudeMeters>
            <DistanceMeters>NAN</DistanceMeters>
          </Trackpoint>
          <Trackpoint>
            <Time>2019-10-06T09:47:38.000Z</Time>
            <Position>
              <LatitudeDegrees>41.30238116718828678131103515625</LatitudeDegrees>
              <LongitudeDegrees>-5.72669520042836666107177734375</LongitudeDegrees>
            </Position>
            <AltitudeMeters>824.79998779296875</AltitudeMeters>
            <DistanceMeters>NAN</DistanceMeters>
          </Trackpoint>
          <Trackpoint>
            <Time>2019-10-06T09:47:44.000Z</Time>
            <Position>
              <LatitudeDegrees>41.3022240065038204193115234375</LatitudeDegrees>
              <LongitudeDegrees>-5.726583302021026611328125</LongitudeDegrees>
            </Position>
            <AltitudeMeters>825.5999755859375</AltitudeMeters>
            <DistanceMeters>NAN</DistanceMeters>
          </Trackpoint>
          <Trackpoint>
            <Time>2019-10-06T09:47:46.000Z</Time>
            <Position>
              <LatitudeDegrees>41.30217212252318859100341796875</LatitudeDegrees>
              <LongitudeDegrees>-5.72654767893254756927490234375</LongitudeDegrees>
            </Position>
            <AltitudeMeters>825.79998779296875</AltitudeMeters>
            <DistanceMeters>NAN</DistanceMeters>
          </Trackpoint>
          <Trackpoint>
            <Time>2019-10-06T09:47:51.000Z</Time>
            <Position>
              <LatitudeDegrees>41.3020335696637630462646484375</LatitudeDegrees>
              <LongitudeDegrees>-5.72644944302737712860107421875</LongitudeDegrees>
            </Position>
            <AltitudeMeters>827</AltitudeMeters>
            <DistanceMeters>NAN</DistanceMeters>
          </Trackpoint>
          <Trackpoint>
            <Time>2019-10-06T09:47:58.000Z</Time>
            <Position>
              <LatitudeDegrees>41.3018377684056758880615234375</LatitudeDegrees>
              <LongitudeDegrees>-5.726304687559604644775390625</LongitudeDegrees>
            </Position>
            <AltitudeMeters>828</AltitudeMeters>
            <DistanceMeters>NAN</DistanceMeters>
          </Trackpoint>
          <Trackpoint>
            <Time>2019-10-06T09:48:02.000Z</Time>
            <Position>
              <LatitudeDegrees>41.3017241097986698150634765625</LatitudeDegrees>
              <LongitudeDegrees>-5.72621894069015979766845703125</LongitudeDegrees>
            </Position>
            <AltitudeMeters>828.20001220703125</AltitudeMeters>
            <DistanceMeters>NAN</DistanceMeters>
          </Trackpoint>
          <Trackpoint>
            <Time>2019-10-06T09:48:07.000Z</Time>
            <Position>
              <LatitudeDegrees>41.30158388055860996246337890625</LatitudeDegrees>
              <LongitudeDegrees>-5.72611785493791103363037109375</LongitudeDegrees>
            </Position>
            <AltitudeMeters>829</AltitudeMeters>
            <DistanceMeters>NAN</DistanceMeters>
          </Trackpoint>
          <Trackpoint>
            <Time>2019-10-06T09:48:10.000Z</Time>
            <Position>
              <LatitudeDegrees>41.30149972625076770782470703125</LatitudeDegrees>
              <LongitudeDegrees>-5.72605691850185394287109375</LongitudeDegrees>
            </Position>
            <AltitudeMeters>829.20001220703125</AltitudeMeters>
            <DistanceMeters>NAN</DistanceMeters>
          </Trackpoint>
          <Trackpoint>
            <Time>2019-10-06T09:48:12.000Z</Time>
            <Position>
              <LatitudeDegrees>41.301448680460453033447265625</LatitudeDegrees>
              <LongitudeDegrees>-5.7260133326053619384765625</LongitudeDegrees>
            </Position>
            <AltitudeMeters>830.20001220703125</AltitudeMeters>
            <DistanceMeters>NAN</DistanceMeters>
          </Trackpoint>
          <Trackpoint>
            <Time>2019-10-06T09:48:17.000Z</Time>
            <Position>
              <LatitudeDegrees>41.30130895413458347320556640625</LatitudeDegrees>
              <LongitudeDegrees>-5.72591652162373065948486328125</LongitudeDegrees>
            </Position>
            <AltitudeMeters>831.20001220703125</AltitudeMeters>
            <DistanceMeters>NAN</DistanceMeters>
          </Trackpoint>
          <Trackpoint>
            <Time>2019-10-06T09:48:18.000Z</Time>
            <Position>
              <LatitudeDegrees>41.3012815453112125396728515625</LatitudeDegrees>
              <LongitudeDegrees>-5.7258974947035312652587890625</LongitudeDegrees>
            </Position>
            <AltitudeMeters>831.20001220703125</AltitudeMeters>
            <DistanceMeters>NAN</DistanceMeters>
          </Trackpoint>
          <Trackpoint>
            <Time>2019-10-06T09:48:27.000Z</Time>
            <Position>
              <LatitudeDegrees>41.301034279167652130126953125</LatitudeDegrees>
              <LongitudeDegrees>-5.72571384720504283905029296875</LongitudeDegrees>
            </Position>
            <AltitudeMeters>832.4000244140625</AltitudeMeters>
            <DistanceMeters>NAN</DistanceMeters>
          </Trackpoint>
          <Trackpoint>
            <Time>2019-10-06T09:48:29.000Z</Time>
            <Position>
              <LatitudeDegrees>41.30098122172057628631591796875</LatitudeDegrees>
              <LongitudeDegrees>-5.7256745360791683197021484375</LongitudeDegrees>
            </Position>
            <AltitudeMeters>832.5999755859375</AltitudeMeters>
            <DistanceMeters>NAN</DistanceMeters>
          </Trackpoint>
          <Trackpoint>
            <Time>2019-10-06T09:48:35.000Z</Time>
            <Position>
              <LatitudeDegrees>41.30081442184746265411376953125</LatitudeDegrees>
              <LongitudeDegrees>-5.72556163184344768524169921875</LongitudeDegrees>
            </Position>
            <AltitudeMeters>833.4000244140625</AltitudeMeters>
            <DistanceMeters>NAN</DistanceMeters>
          </Trackpoint>
          <Trackpoint>
            <Time>2019-10-06T09:48:40.000Z</Time>
            <Position>
              <LatitudeDegrees>41.300674192607402801513671875</LatitudeDegrees>
              <LongitudeDegrees>-5.72547043673694133758544921875</LongitudeDegrees>
            </Position>
            <AltitudeMeters>834.20001220703125</AltitudeMeters>
            <DistanceMeters>NAN</DistanceMeters>
          </Trackpoint>
          <Trackpoint>
            <Time>2019-10-06T09:48:41.000Z</Time>
            <Position>
              <LatitudeDegrees>41.3006472028791904449462890625</LatitudeDegrees>
              <LongitudeDegrees>-5.725455097854137420654296875</LongitudeDegrees>
            </Position>
            <AltitudeMeters>834.79998779296875</AltitudeMeters>
            <DistanceMeters>NAN</DistanceMeters>
          </Trackpoint>
          <Trackpoint>
            <Time>2019-10-06T09:48:48.000Z</Time>
            <Position>
              <LatitudeDegrees>41.300428099930286407470703125</LatitudeDegrees>
              <LongitudeDegrees>-5.7253335602581501007080078125</LongitudeDegrees>
            </Position>
            <AltitudeMeters>835.79998779296875</AltitudeMeters>
            <DistanceMeters>NAN</DistanceMeters>
          </Trackpoint>
          <Trackpoint>
            <Time>2019-10-06T09:48:51.000Z</Time>
            <Position>
              <LatitudeDegrees>41.3003504835069179534912109375</LatitudeDegrees>
              <LongitudeDegrees>-5.7252971827983856201171875</LongitudeDegrees>
            </Position>
            <AltitudeMeters>836.79998779296875</AltitudeMeters>
            <DistanceMeters>NAN</DistanceMeters>
          </Trackpoint>
          <Trackpoint>
            <Time>2019-10-06T09:48:55.000Z</Time>
            <Position>
              <LatitudeDegrees>41.30023338831961154937744140625</LatitudeDegrees>
              <LongitudeDegrees>-5.72524026967585086822509765625</LongitudeDegrees>
            </Position>
            <AltitudeMeters>837</AltitudeMeters>
            <DistanceMeters>NAN</DistanceMeters>
          </Trackpoint>
          <Trackpoint>
            <Time>2019-10-06T09:49:02.000Z</Time>
            <Position>
              <LatitudeDegrees>41.30002283491194248199462890625</LatitudeDegrees>
              <LongitudeDegrees>-5.72514806874096393585205078125</LongitudeDegrees>
            </Position>
            <AltitudeMeters>838</AltitudeMeters>
            <DistanceMeters>NAN</DistanceMeters>
          </Trackpoint>
          <Trackpoint>
            <Time>2019-10-06T09:49:07.000Z</Time>
            <Position>
              <LatitudeDegrees>41.2998770736157894134521484375</LatitudeDegrees>
              <LongitudeDegrees>-5.72508059442043304443359375</LongitudeDegrees>
            </Position>
            <AltitudeMeters>838.79998779296875</AltitudeMeters>
            <DistanceMeters>NAN</DistanceMeters>
          </Trackpoint>
          <Trackpoint>
            <Time>2019-10-06T09:49:09.000Z</Time>
            <Position>
              <LatitudeDegrees>41.29981714300811290740966796875</LatitudeDegrees>
              <LongitudeDegrees>-5.725058130919933319091796875</LongitudeDegrees>
            </Position>
            <AltitudeMeters>839</AltitudeMeters>
            <DistanceMeters>NAN</DistanceMeters>
          </Trackpoint>
          <Trackpoint>
            <Time>2019-10-06T09:49:15.000Z</Time>
            <Position>
              <LatitudeDegrees>41.29963424988090991973876953125</LatitudeDegrees>
              <LongitudeDegrees>-5.7250113599002361297607421875</LongitudeDegrees>
            </Position>
            <AltitudeMeters>840.20001220703125</AltitudeMeters>
            <DistanceMeters>NAN</DistanceMeters>
          </Trackpoint>
          <Trackpoint>
            <Time>2019-10-06T09:49:17.000Z</Time>
            <Position>
              <LatitudeDegrees>41.29957306198775768280029296875</LatitudeDegrees>
              <LongitudeDegrees>-5.72499434463679790496826171875</LongitudeDegrees>
            </Position>
            <AltitudeMeters>840.5999755859375</AltitudeMeters>
            <DistanceMeters>NAN</DistanceMeters>
          </Trackpoint>
          <Trackpoint>
            <Time>2019-10-06T09:49:22.000Z</Time>
            <Position>
              <LatitudeDegrees>41.2994301505386829376220703125</LatitudeDegrees>
              <LongitudeDegrees>-5.7249513454735279083251953125</LongitudeDegrees>
            </Position>
            <AltitudeMeters>841.4000244140625</AltitudeMeters>
            <DistanceMeters>NAN</DistanceMeters>
          </Trackpoint>
          <Trackpoint>
            <Time>2019-10-06T09:49:25.000Z</Time>
            <Position>
              <LatitudeDegrees>41.29934079945087432861328125</LatitudeDegrees>
              <LongitudeDegrees>-5.7249228470027446746826171875</LongitudeDegrees>
            </Position>
            <AltitudeMeters>841.5999755859375</AltitudeMeters>
            <DistanceMeters>NAN</DistanceMeters>
          </Trackpoint>
          <Trackpoint>
            <Time>2019-10-06T09:49:31.000Z</Time>
            <Position>
              <LatitudeDegrees>41.29915966652333736419677734375</LatitudeDegrees>
              <LongitudeDegrees>-5.72488621808588504791259765625</LongitudeDegrees>
            </Position>
            <AltitudeMeters>842.79998779296875</AltitudeMeters>
            <DistanceMeters>NAN</DistanceMeters>
          </Trackpoint>
          <Trackpoint>
            <Time>2019-10-06T09:49:33.000Z</Time>
            <Position>
              <LatitudeDegrees>41.29910049028694629669189453125</LatitudeDegrees>
              <LongitudeDegrees>-5.724876411259174346923828125</LongitudeDegrees>
            </Position>
            <AltitudeMeters>842.79998779296875</AltitudeMeters>
            <DistanceMeters>NAN</DistanceMeters>
          </Trackpoint>
          <Trackpoint>
            <Time>2019-10-06T09:49:38.000Z</Time>
            <Position>
              <LatitudeDegrees>41.2989503704011440277099609375</LatitudeDegrees>
              <LongitudeDegrees>-5.724863670766353607177734375</LongitudeDegrees>
            </Position>
            <AltitudeMeters>844</AltitudeMeters>
            <DistanceMeters>NAN</DistanceMeters>
          </Trackpoint>
          <Trackpoint>
            <Time>2019-10-06T09:49:44.000Z</Time>
            <Position>
              <LatitudeDegrees>41.29877083003520965576171875</LatitudeDegrees>
              <LongitudeDegrees>-5.72485788725316524505615234375</LongitudeDegrees>
            </Position>
            <AltitudeMeters>845.20001220703125</AltitudeMeters>
            <DistanceMeters>NAN</DistanceMeters>
          </Trackpoint>
          <Trackpoint>
            <Time>2019-10-06T09:49:52.000Z</Time>
            <Position>
              <LatitudeDegrees>41.2985235638916492462158203125</LatitudeDegrees>
              <LongitudeDegrees>-5.72484347037971019744873046875</LongitudeDegrees>
            </Position>
            <AltitudeMeters>846.20001220703125</AltitudeMeters>
            <DistanceMeters>NAN</DistanceMeters>
          </Trackpoint>
          <Trackpoint>
            <Time>2019-10-06T09:49:53.000Z</Time>
            <Position>
              <LatitudeDegrees>41.29849179647862911224365234375</LatitudeDegrees>
              <LongitudeDegrees>-5.7248438894748687744140625</LongitudeDegrees>
            </Position>
            <AltitudeMeters>846.5999755859375</AltitudeMeters>
            <DistanceMeters>NAN</DistanceMeters>
          </Trackpoint>
          <Trackpoint>
            <Time>2019-10-06T09:49:56.000Z</Time>
            <Position>
              <LatitudeDegrees>41.29839590750634670257568359375</LatitudeDegrees>
              <LongitudeDegrees>-5.7248450629413127899169921875</LongitudeDegrees>
            </Position>
            <AltitudeMeters>847.4000244140625</AltitudeMeters>
            <DistanceMeters>NAN</DistanceMeters>
          </Trackpoint>
          <Trackpoint>
            <Time>2019-10-06T09:50:03.000Z</Time>
            <Position>
              <LatitudeDegrees>41.29817613400518894195556640625</LatitudeDegrees>
              <LongitudeDegrees>-5.724842213094234466552734375</LongitudeDegrees>
            </Position>
            <AltitudeMeters>848.5999755859375</AltitudeMeters>
            <DistanceMeters>NAN</DistanceMeters>
          </Trackpoint>
          <Trackpoint>
            <Time>2019-10-06T09:50:05.000Z</Time>
            <Position>
              <LatitudeDegrees>41.2981091625988483428955078125</LatitudeDegrees>
              <LongitudeDegrees>-5.72484699077904224395751953125</LongitudeDegrees>
            </Position>
            <AltitudeMeters>848.79998779296875</AltitudeMeters>
            <DistanceMeters>NAN</DistanceMeters>
          </Trackpoint>
          <Trackpoint>
            <Time>2019-10-06T09:50:10.000Z</Time>
            <Position>
              <LatitudeDegrees>41.297943033277988433837890625</LatitudeDegrees>
              <LongitudeDegrees>-5.7248470745980739593505859375</LongitudeDegrees>
            </Position>
            <AltitudeMeters>850</AltitudeMeters>
            <DistanceMeters>NAN</DistanceMeters>
          </Trackpoint>
          <Trackpoint>
            <Time>2019-10-06T09:50:14.000Z</Time>
            <Position>
              <LatitudeDegrees>41.29780934192240238189697265625</LatitudeDegrees>
              <LongitudeDegrees>-5.72484900243580341339111328125</LongitudeDegrees>
            </Position>
            <AltitudeMeters>850.4000244140625</AltitudeMeters>
            <DistanceMeters>NAN</DistanceMeters>
          </Trackpoint>
          <Trackpoint>
            <Time>2019-10-06T09:50:19.000Z</Time>
            <Position>
              <LatitudeDegrees>41.297646649181842803955078125</LatitudeDegrees>
              <LongitudeDegrees>-5.72485336102545261383056640625</LongitudeDegrees>
            </Position>
            <AltitudeMeters>851</AltitudeMeters>
            <DistanceMeters>NAN</DistanceMeters>
          </Trackpoint>
          <Trackpoint>
            <Time>2019-10-06T09:50:26.000Z</Time>
            <Position>
              <LatitudeDegrees>41.29741405136883258819580078125</LatitudeDegrees>
              <LongitudeDegrees>-5.72484548203647136688232421875</LongitudeDegrees>
            </Position>
            <AltitudeMeters>852</AltitudeMeters>
            <DistanceMeters>NAN</DistanceMeters>
          </Trackpoint>
          <Trackpoint>
            <Time>2019-10-06T09:50:27.000Z</Time>
            <Position>
              <LatitudeDegrees>41.2973780930042266845703125</LatitudeDegrees>
              <LongitudeDegrees>-5.7248450629413127899169921875</LongitudeDegrees>
            </Position>
            <AltitudeMeters>852.20001220703125</AltitudeMeters>
            <DistanceMeters>NAN</DistanceMeters>
          </Trackpoint>
          <Trackpoint>
            <Time>2019-10-06T09:50:30.000Z</Time>
            <Position>
              <LatitudeDegrees>41.2972739897668361663818359375</LatitudeDegrees>
              <LongitudeDegrees>-5.72484321892261505126953125</LongitudeDegrees>
            </Position>
            <AltitudeMeters>852.4000244140625</AltitudeMeters>
            <DistanceMeters>NAN</DistanceMeters>
          </Trackpoint>
          <Trackpoint>
            <Time>2019-10-06T09:50:36.000Z</Time>
            <Position>
              <LatitudeDegrees>41.29706117324531078338623046875</LatitudeDegrees>
              <LongitudeDegrees>-5.72482419200241565704345703125</LongitudeDegrees>
            </Position>
            <AltitudeMeters>853</AltitudeMeters>
            <DistanceMeters>NAN</DistanceMeters>
          </Trackpoint>
          <Trackpoint>
            <Time>2019-10-06T09:50:40.000Z</Time>
            <Position>
              <LatitudeDegrees>41.2969199381768703460693359375</LatitudeDegrees>
              <LongitudeDegrees>-5.724810026586055755615234375</LongitudeDegrees>
            </Position>
            <AltitudeMeters>853.20001220703125</AltitudeMeters>
            <DistanceMeters>NAN</DistanceMeters>
          </Trackpoint>
          <Trackpoint>
            <Time>2019-10-06T09:50:45.000Z</Time>
            <Position>
              <LatitudeDegrees>41.296742074191570281982421875</LatitudeDegrees>
              <LongitudeDegrees>-5.72477323003113269805908203125</LongitudeDegrees>
            </Position>
            <AltitudeMeters>853.5999755859375</AltitudeMeters>
            <DistanceMeters>NAN</DistanceMeters>
          </Trackpoint>
          <Trackpoint>
            <Time>2019-10-06T09:50:46.000Z</Time>
            <Position>
              <LatitudeDegrees>41.29670578055083751678466796875</LatitudeDegrees>
              <LongitudeDegrees>-5.72476669214665889739990234375</LongitudeDegrees>
            </Position>
            <AltitudeMeters>853.5999755859375</AltitudeMeters>
            <DistanceMeters>NAN</DistanceMeters>
          </Trackpoint>
          <Trackpoint>
            <Time>2019-10-06T09:50:53.000Z</Time>
            <Position>
              <LatitudeDegrees>41.2964807264506816864013671875</LatitudeDegrees>
              <LongitudeDegrees>-5.7247300632297992706298828125</LongitudeDegrees>
            </Position>
            <AltitudeMeters>854.4000244140625</AltitudeMeters>
            <DistanceMeters>NAN</DistanceMeters>
          </Trackpoint>
          <Trackpoint>
            <Time>2019-10-06T09:50:58.000Z</Time>
            <Position>
              <LatitudeDegrees>41.296284087002277374267578125</LatitudeDegrees>
              <LongitudeDegrees>-5.72469444014132022857666015625</LongitudeDegrees>
            </Position>
            <AltitudeMeters>853.5999755859375</AltitudeMeters>
            <DistanceMeters>NAN</DistanceMeters>
          </Trackpoint>
          <Trackpoint>
            <Time>2019-10-06T09:50:59.000Z</Time>
            <Position>
              <LatitudeDegrees>41.29624444060027599334716796875</LatitudeDegrees>
              <LongitudeDegrees>-5.72469075210392475128173828125</LongitudeDegrees>
            </Position>
            <AltitudeMeters>853.79998779296875</AltitudeMeters>
            <DistanceMeters>NAN</DistanceMeters>
          </Trackpoint>
          <Trackpoint>
            <Time>2019-10-06T09:51:02.000Z</Time>
            <Position>
              <LatitudeDegrees>41.29612407647073268890380859375</LatitudeDegrees>
              <LongitudeDegrees>-5.724675245583057403564453125</LongitudeDegrees>
            </Position>
            <AltitudeMeters>853.5999755859375</AltitudeMeters>
            <DistanceMeters>NAN</DistanceMeters>
          </Trackpoint>
          <Trackpoint>
            <Time>2019-10-06T09:51:06.000Z</Time>
            <Position>
              <LatitudeDegrees>41.2959576956927776336669921875</LatitudeDegrees>
              <LongitudeDegrees>-5.72464314289391040802001953125</LongitudeDegrees>
            </Position>
            <AltitudeMeters>853.20001220703125</AltitudeMeters>
            <DistanceMeters>NAN</DistanceMeters>
          </Trackpoint>
          <Trackpoint>
            <Time>2019-10-06T09:51:09.000Z</Time>
            <Position>
              <LatitudeDegrees>41.29581662826240062713623046875</LatitudeDegrees>
              <LongitudeDegrees>-5.7246159017086029052734375</LongitudeDegrees>
            </Position>
            <AltitudeMeters>852.79998779296875</AltitudeMeters>
            <DistanceMeters>NAN</DistanceMeters>
          </Trackpoint>
          <Trackpoint>
            <Time>2019-10-06T09:51:10.000Z</Time>
            <Position>
              <LatitudeDegrees>41.2957660853862762451171875</LatitudeDegrees>
              <LongitudeDegrees>-5.72460156865417957305908203125</LongitudeDegrees>
            </Position>
            <AltitudeMeters>852.79998779296875</AltitudeMeters>
            <DistanceMeters>NAN</DistanceMeters>
          </Trackpoint>
          <Trackpoint>
            <Time>2019-10-06T09:51:13.000Z</Time>
            <Position>
              <LatitudeDegrees>41.29560925997793674468994140625</LatitudeDegrees>
              <LongitudeDegrees>-5.72456217370927333831787109375</LongitudeDegrees>
            </Position>
            <AltitudeMeters>852</AltitudeMeters>
            <DistanceMeters>NAN</DistanceMeters>
          </Trackpoint>
          <Trackpoint>
            <Time>2019-10-06T09:51:14.000Z</Time>
            <Position>
              <LatitudeDegrees>41.2955553643405437469482421875</LatitudeDegrees>
              <LongitudeDegrees>-5.72455144487321376800537109375</LongitudeDegrees>
            </Position>
            <AltitudeMeters>852</AltitudeMeters>
            <DistanceMeters>NAN</DistanceMeters>
          </Trackpoint>
          <Trackpoint>
            <Time>2019-10-06T09:51:21.000Z</Time>
            <Position>
              <LatitudeDegrees>41.2951644323766231536865234375</LatitudeDegrees>
              <LongitudeDegrees>-5.7244755886495113372802734375</LongitudeDegrees>
            </Position>
            <AltitudeMeters>851.4000244140625</AltitudeMeters>
            <DistanceMeters>NAN</DistanceMeters>
          </Trackpoint>
          <Trackpoint>
            <Time>2019-10-06T09:51:28.000Z</Time>
            <Position>
              <LatitudeDegrees>41.2947842292487621307373046875</LatitudeDegrees>
              <LongitudeDegrees>-5.7243998162448406219482421875</LongitudeDegrees>
            </Position>
            <AltitudeMeters>851.4000244140625</AltitudeMeters>
            <DistanceMeters>NAN</DistanceMeters>
          </Trackpoint>
          <Trackpoint>
            <Time>2019-10-06T09:51:37.000Z</Time>
            <Position>
              <LatitudeDegrees>41.29430629312992095947265625</LatitudeDegrees>
              <LongitudeDegrees>-5.724338628351688385009765625</LongitudeDegrees>
            </Position>
            <AltitudeMeters>851.4000244140625</AltitudeMeters>
            <DistanceMeters>NAN</DistanceMeters>
          </Trackpoint>
          <Trackpoint>
            <Time>2019-10-06T09:51:43.000Z</Time>
            <Position>
              <LatitudeDegrees>41.2939993478357791900634765625</LatitudeDegrees>
              <LongitudeDegrees>-5.72427534498274326324462890625</LongitudeDegrees>
            </Position>
            <AltitudeMeters>852.4000244140625</AltitudeMeters>
            <DistanceMeters>NAN</DistanceMeters>
          </Trackpoint>
          <Trackpoint>
            <Time>2019-10-06T09:51:46.000Z</Time>
            <Position>
              <LatitudeDegrees>41.2938514910638332366943359375</LatitudeDegrees>
              <LongitudeDegrees>-5.7242398895323276519775390625</LongitudeDegrees>
            </Position>
            <AltitudeMeters>852</AltitudeMeters>
            <DistanceMeters>NAN</DistanceMeters>
          </Trackpoint>
          <Trackpoint>
            <Time>2019-10-06T09:51:53.000Z</Time>
            <Position>
              <LatitudeDegrees>41.29350556991994380950927734375</LatitudeDegrees>
              <LongitudeDegrees>-5.7241681404411792755126953125</LongitudeDegrees>
            </Position>
            <AltitudeMeters>852.5999755859375</AltitudeMeters>
            <DistanceMeters>NAN</DistanceMeters>
          </Trackpoint>
          <Trackpoint>
            <Time>2019-10-06T09:51:54.000Z</Time>
            <Position>
              <LatitudeDegrees>41.29345561377704143524169921875</LatitudeDegrees>
              <LongitudeDegrees>-5.7241587527096271514892578125</LongitudeDegrees>
            </Position>
            <AltitudeMeters>852.20001220703125</AltitudeMeters>
            <DistanceMeters>NAN</DistanceMeters>
          </Trackpoint>
          <Trackpoint>
            <Time>2019-10-06T09:51:56.000Z</Time>
            <Position>
              <LatitudeDegrees>41.2933596409857273101806640625</LatitudeDegrees>
              <LongitudeDegrees>-5.72413939051330089569091796875</LongitudeDegrees>
            </Position>
            <AltitudeMeters>853</AltitudeMeters>
            <DistanceMeters>NAN</DistanceMeters>
          </Trackpoint>
          <Trackpoint>
            <Time>2019-10-06T09:52:01.000Z</Time>
            <Position>
              <LatitudeDegrees>41.2931108660995960235595703125</LatitudeDegrees>
              <LongitudeDegrees>-5.7240943796932697296142578125</LongitudeDegrees>
            </Position>
            <AltitudeMeters>853.20001220703125</AltitudeMeters>
            <DistanceMeters>NAN</DistanceMeters>
          </Trackpoint>
          <Trackpoint>
            <Time>2019-10-06T09:52:09.000Z</Time>
            <Position>
              <LatitudeDegrees>41.29268548451364040374755859375</LatitudeDegrees>
              <LongitudeDegrees>-5.72401248849928379058837890625</LongitudeDegrees>
            </Position>
            <AltitudeMeters>852.79998779296875</AltitudeMeters>
            <DistanceMeters>NAN</DistanceMeters>
          </Trackpoint>
          <Trackpoint>
            <Time>2019-10-06T09:52:12.000Z</Time>
            <Position>
              <LatitudeDegrees>41.29251466132700443267822265625</LatitudeDegrees>
              <LongitudeDegrees>-5.72397577576339244842529296875</LongitudeDegrees>
            </Position>
            <AltitudeMeters>851.79998779296875</AltitudeMeters>
            <DistanceMeters>NAN</DistanceMeters>
          </Trackpoint>
          <Trackpoint>
            <Time>2019-10-06T09:52:16.000Z</Time>
            <Position>
              <LatitudeDegrees>41.29227183759212493896484375</LatitudeDegrees>
              <LongitudeDegrees>-5.7239297591149806976318359375</LongitudeDegrees>
            </Position>
            <AltitudeMeters>851</AltitudeMeters>
            <DistanceMeters>NAN</DistanceMeters>
          </Trackpoint>
          <Trackpoint>
            <Time>2019-10-06T09:52:19.000Z</Time>
            <Position>
              <LatitudeDegrees>41.29207209683954715728759765625</LatitudeDegrees>
              <LongitudeDegrees>-5.723892040550708770751953125</LongitudeDegrees>
            </Position>
            <AltitudeMeters>850.5999755859375</AltitudeMeters>
            <DistanceMeters>NAN</DistanceMeters>
          </Trackpoint>
          <Trackpoint>
            <Time>2019-10-06T09:52:22.000Z</Time>
            <Position>
              <LatitudeDegrees>41.2918579392135143280029296875</LatitudeDegrees>
              <LongitudeDegrees>-5.72384870611131191253662109375</LongitudeDegrees>
            </Position>
            <AltitudeMeters>849.20001220703125</AltitudeMeters>
            <DistanceMeters>NAN</DistanceMeters>
          </Trackpoint>
          <Trackpoint>
            <Time>2019-10-06T09:52:23.000Z</Time>
            <Position>
              <LatitudeDegrees>41.2917831726372241973876953125</LatitudeDegrees>
              <LongitudeDegrees>-5.72383412159979343414306640625</LongitudeDegrees>
            </Position>
            <AltitudeMeters>848.79998779296875</AltitudeMeters>
            <DistanceMeters>NAN</DistanceMeters>
          </Trackpoint>
          <Trackpoint>
            <Time>2019-10-06T09:52:24.000Z</Time>
            <Position>
              <LatitudeDegrees>41.291707567870616912841796875</LatitudeDegrees>
              <LongitudeDegrees>-5.7238197885453701019287109375</LongitudeDegrees>
            </Position>
            <AltitudeMeters>848</AltitudeMeters>
            <DistanceMeters>NAN</DistanceMeters>
          </Trackpoint>
          <Trackpoint>
            <Time>2019-10-06T09:52:26.000Z</Time>
            <Position>
              <LatitudeDegrees>41.291552670300006866455078125</LatitudeDegrees>
              <LongitudeDegrees>-5.72378952987492084503173828125</LongitudeDegrees>
            </Position>
            <AltitudeMeters>846.79998779296875</AltitudeMeters>
            <DistanceMeters>NAN</DistanceMeters>
          </Trackpoint>
          <Trackpoint>
            <Time>2019-10-06T09:52:30.000Z</Time>
            <Position>
              <LatitudeDegrees>41.29121840000152587890625</LatitudeDegrees>
              <LongitudeDegrees>-5.72372582741081714630126953125</LongitudeDegrees>
            </Position>
            <AltitudeMeters>845.5999755859375</AltitudeMeters>
            <DistanceMeters>NAN</DistanceMeters>
          </Trackpoint>
          <Trackpoint>
            <Time>2019-10-06T09:52:32.000Z</Time>
            <Position>
              <LatitudeDegrees>41.291037686169147491455078125</LatitudeDegrees>
              <LongitudeDegrees>-5.72369062341749668121337890625</LongitudeDegrees>
            </Position>
            <AltitudeMeters>844.79998779296875</AltitudeMeters>
            <DistanceMeters>NAN</DistanceMeters>
          </Trackpoint>
          <Trackpoint>
            <Time>2019-10-06T09:52:33.000Z</Time>
            <Position>
              <LatitudeDegrees>41.29094188101589679718017578125</LatitudeDegrees>
              <LongitudeDegrees>-5.72367402724921703338623046875</LongitudeDegrees>
            </Position>
            <AltitudeMeters>844</AltitudeMeters>
            <DistanceMeters>NAN</DistanceMeters>
          </Trackpoint>
          <Trackpoint>
            <Time>2019-10-06T09:52:35.000Z</Time>
            <Position>
              <LatitudeDegrees>41.290756054222583770751953125</LatitudeDegrees>
              <LongitudeDegrees>-5.7236377336084842681884765625</LongitudeDegrees>
            </Position>
            <AltitudeMeters>843</AltitudeMeters>
            <DistanceMeters>NAN</DistanceMeters>
          </Trackpoint>
          <Trackpoint>
            <Time>2019-10-06T09:52:37.000Z</Time>
            <Position>
              <LatitudeDegrees>41.29056653939187526702880859375</LatitudeDegrees>
              <LongitudeDegrees>-5.7235998474061489105224609375</LongitudeDegrees>
            </Position>
            <AltitudeMeters>842.4000244140625</AltitudeMeters>
            <DistanceMeters>NAN</DistanceMeters>
          </Trackpoint>
          <Trackpoint>
            <Time>2019-10-06T09:52:39.000Z</Time>
            <Position>
              <LatitudeDegrees>41.29037559963762760162353515625</LatitudeDegrees>
              <LongitudeDegrees>-5.7235626317560672760009765625</LongitudeDegrees>
            </Position>
            <AltitudeMeters>842.4000244140625</AltitudeMeters>
            <DistanceMeters>NAN</DistanceMeters>
          </Trackpoint>
          <Trackpoint>
            <Time>2019-10-06T09:52:40.000Z</Time>
            <Position>
              <LatitudeDegrees>41.29027719609439373016357421875</LatitudeDegrees>
              <LongitudeDegrees>-5.72354461066424846649169921875</LongitudeDegrees>
            </Position>
            <AltitudeMeters>842.4000244140625</AltitudeMeters>
            <DistanceMeters>NAN</DistanceMeters>
          </Trackpoint>
          <Trackpoint>
            <Time>2019-10-06T09:52:41.000Z</Time>
            <Position>
              <LatitudeDegrees>41.29018306732177734375</LatitudeDegrees>
              <LongitudeDegrees>-5.723527260124683380126953125</LongitudeDegrees>
            </Position>
            <AltitudeMeters>841.5999755859375</AltitudeMeters>
            <DistanceMeters>NAN</DistanceMeters>
          </Trackpoint>
          <Trackpoint>
            <Time>2019-10-06T09:52:43.000Z</Time>
            <Position>
              <LatitudeDegrees>41.2899857573211193084716796875</LatitudeDegrees>
              <LongitudeDegrees>-5.72348929010331630706787109375</LongitudeDegrees>
            </Position>
            <AltitudeMeters>841</AltitudeMeters>
            <DistanceMeters>NAN</DistanceMeters>
          </Trackpoint>
          <Trackpoint>
            <Time>2019-10-06T09:52:44.000Z</Time>
            <Position>
              <LatitudeDegrees>41.2898925505578517913818359375</LatitudeDegrees>
              <LongitudeDegrees>-5.72347395122051239013671875</LongitudeDegrees>
            </Position>
            <AltitudeMeters>841</AltitudeMeters>
            <DistanceMeters>NAN</DistanceMeters>
          </Trackpoint>
          <Trackpoint>
            <Time>2019-10-06T09:52:45.000Z</Time>
            <Position>
              <LatitudeDegrees>41.289795152842998504638671875</LatitudeDegrees>
              <LongitudeDegrees>-5.723457522690296173095703125</LongitudeDegrees>
            </Position>
            <AltitudeMeters>840.20001220703125</AltitudeMeters>
            <DistanceMeters>NAN</DistanceMeters>
          </Trackpoint>
          <Trackpoint>
            <Time>2019-10-06T09:52:46.000Z</Time>
            <Position>
              <LatitudeDegrees>41.2896954081952571868896484375</LatitudeDegrees>
              <LongitudeDegrees>-5.723438747227191925048828125</LongitudeDegrees>
            </Position>
            <AltitudeMeters>839.4000244140625</AltitudeMeters>
            <DistanceMeters>NAN</DistanceMeters>
          </Trackpoint>
          <Trackpoint>
            <Time>2019-10-06T09:52:47.000Z</Time>
            <Position>
              <LatitudeDegrees>41.2895995192229747772216796875</LatitudeDegrees>
              <LongitudeDegrees>-5.7234198041260242462158203125</LongitudeDegrees>
            </Position>
            <AltitudeMeters>839.20001220703125</AltitudeMeters>
            <DistanceMeters>NAN</DistanceMeters>
          </Trackpoint>
          <Trackpoint>
            <Time>2019-10-06T09:52:48.000Z</Time>
            <Position>
              <LatitudeDegrees>41.2895029596984386444091796875</LatitudeDegrees>
              <LongitudeDegrees>-5.72340044192969799041748046875</LongitudeDegrees>
            </Position>
            <AltitudeMeters>838.5999755859375</AltitudeMeters>
            <DistanceMeters>NAN</DistanceMeters>
          </Trackpoint>
          <Trackpoint>
            <Time>2019-10-06T09:52:50.000Z</Time>
            <Position>
              <LatitudeDegrees>41.28930757753551006317138671875</LatitudeDegrees>
              <LongitudeDegrees>-5.723362304270267486572265625</LongitudeDegrees>
            </Position>
            <AltitudeMeters>838</AltitudeMeters>
            <DistanceMeters>NAN</DistanceMeters>
          </Trackpoint>
          <Trackpoint>
            <Time>2019-10-06T09:52:54.000Z</Time>
            <Position>
              <LatitudeDegrees>41.28893676213920116424560546875</LatitudeDegrees>
              <LongitudeDegrees>-5.7232719473540782928466796875</LongitudeDegrees>
            </Position>
            <AltitudeMeters>838</AltitudeMeters>
            <DistanceMeters>NAN</DistanceMeters>
          </Trackpoint>
          <Trackpoint>
            <Time>2019-10-06T09:52:55.000Z</Time>
            <Position>
              <LatitudeDegrees>41.288852356374263763427734375</LatitudeDegrees>
              <LongitudeDegrees>-5.72324638254940509796142578125</LongitudeDegrees>
            </Position>
            <AltitudeMeters>838.20001220703125</AltitudeMeters>
            <DistanceMeters>NAN</DistanceMeters>
          </Trackpoint>
          <Trackpoint>
            <Time>2019-10-06T09:52:58.000Z</Time>
            <Position>
              <LatitudeDegrees>41.288616657257080078125</LatitudeDegrees>
              <LongitudeDegrees>-5.72316809557378292083740234375</LongitudeDegrees>
            </Position>
            <AltitudeMeters>839.20001220703125</AltitudeMeters>
            <DistanceMeters>NAN</DistanceMeters>
          </Trackpoint>
          <Trackpoint>
            <Time>2019-10-06T09:53:00.000Z</Time>
            <Position>
              <LatitudeDegrees>41.2884864024817943572998046875</LatitudeDegrees>
              <LongitudeDegrees>-5.72311512194573879241943359375</LongitudeDegrees>
            </Position>
            <AltitudeMeters>840.79998779296875</AltitudeMeters>
            <DistanceMeters>NAN</DistanceMeters>
          </Trackpoint>
          <Trackpoint>
            <Time>2019-10-06T09:53:03.000Z</Time>
            <Position>
              <LatitudeDegrees>41.2883170880377292633056640625</LatitudeDegrees>
              <LongitudeDegrees>-5.7230412773787975311279296875</LongitudeDegrees>
            </Position>
            <AltitudeMeters>842.4000244140625</AltitudeMeters>
            <DistanceMeters>NAN</DistanceMeters>
          </Trackpoint>
          <Trackpoint>
            <Time>2019-10-06T09:53:05.000Z</Time>
            <Position>
              <LatitudeDegrees>41.28822379745543003082275390625</LatitudeDegrees>
              <LongitudeDegrees>-5.72299391962587833404541015625</LongitudeDegrees>
            </Position>
            <AltitudeMeters>843.5999755859375</AltitudeMeters>
            <DistanceMeters>NAN</DistanceMeters>
          </Trackpoint>
          <Trackpoint>
            <Time>2019-10-06T09:53:08.000Z</Time>
            <Position>
              <LatitudeDegrees>41.288116760551929473876953125</LatitudeDegrees>
              <LongitudeDegrees>-5.722929127514362335205078125</LongitudeDegrees>
            </Position>
            <AltitudeMeters>845</AltitudeMeters>
            <DistanceMeters>NAN</DistanceMeters>
          </Trackpoint>
          <Trackpoint>
            <Time>2019-10-06T09:53:10.000Z</Time>
            <Position>
              <LatitudeDegrees>41.28805682994425296783447265625</LatitudeDegrees>
              <LongitudeDegrees>-5.7228850387036800384521484375</LongitudeDegrees>
            </Position>
            <AltitudeMeters>845</AltitudeMeters>
            <DistanceMeters>NAN</DistanceMeters>
          </Trackpoint>
          <Trackpoint>
            <Time>2019-10-06T09:53:13.000Z</Time>
            <Position>
              <LatitudeDegrees>41.28796345554292201995849609375</LatitudeDegrees>
              <LongitudeDegrees>-5.7228300534188747406005859375</LongitudeDegrees>
            </Position>
            <AltitudeMeters>845.79998779296875</AltitudeMeters>
            <DistanceMeters>NAN</DistanceMeters>
          </Trackpoint>
          <Trackpoint>
            <Time>2019-10-06T09:53:15.000Z</Time>
            <Position>
              <LatitudeDegrees>41.28790176473557949066162109375</LatitudeDegrees>
              <LongitudeDegrees>-5.722786970436573028564453125</LongitudeDegrees>
            </Position>
            <AltitudeMeters>846.20001220703125</AltitudeMeters>
            <DistanceMeters>NAN</DistanceMeters>
          </Trackpoint>
          <Trackpoint>
            <Time>2019-10-06T09:53:17.000Z</Time>
            <Position>
              <LatitudeDegrees>41.287841834127902984619140625</LatitudeDegrees>
              <LongitudeDegrees>-5.7227464020252227783203125</LongitudeDegrees>
            </Position>
            <AltitudeMeters>846.79998779296875</AltitudeMeters>
            <DistanceMeters>NAN</DistanceMeters>
          </Trackpoint>
          <Trackpoint>
            <Time>2019-10-06T09:53:20.000Z</Time>
            <Position>
              <LatitudeDegrees>41.287750639021396636962890625</LatitudeDegrees>
              <LongitudeDegrees>-5.72268781252205371856689453125</LongitudeDegrees>
            </Position>
            <AltitudeMeters>847</AltitudeMeters>
            <DistanceMeters>NAN</DistanceMeters>
          </Trackpoint>
          <Trackpoint>
            <Time>2019-10-06T09:53:22.000Z</Time>
            <Position>
              <LatitudeDegrees>41.2876897864043712615966796875</LatitudeDegrees>
              <LongitudeDegrees>-5.72264380753040313720703125</LongitudeDegrees>
            </Position>
            <AltitudeMeters>847.4000244140625</AltitudeMeters>
            <DistanceMeters>NAN</DistanceMeters>
          </Trackpoint>
          <Trackpoint>
            <Time>2019-10-06T09:53:25.000Z</Time>
            <Position>
              <LatitudeDegrees>41.2875955738127231597900390625</LatitudeDegrees>
              <LongitudeDegrees>-5.72258337400853633880615234375</LongitudeDegrees>
            </Position>
            <AltitudeMeters>847.79998779296875</AltitudeMeters>
            <DistanceMeters>NAN</DistanceMeters>
          </Trackpoint>
          <Trackpoint>
            <Time>2019-10-06T09:53:27.000Z</Time>
            <Position>
              <LatitudeDegrees>41.2875288538634777069091796875</LatitudeDegrees>
              <LongitudeDegrees>-5.72253894992172718048095703125</LongitudeDegrees>
            </Position>
            <AltitudeMeters>848.4000244140625</AltitudeMeters>
            <DistanceMeters>NAN</DistanceMeters>
          </Trackpoint>
          <Trackpoint>
            <Time>2019-10-06T09:53:31.000Z</Time>
            <Position>
              <LatitudeDegrees>41.2873922288417816162109375</LatitudeDegrees>
              <LongitudeDegrees>-5.72244205512106418609619140625</LongitudeDegrees>
            </Position>
            <AltitudeMeters>848.5999755859375</AltitudeMeters>
            <DistanceMeters>NAN</DistanceMeters>
          </Trackpoint>
          <Trackpoint>
            <Time>2019-10-06T09:53:33.000Z</Time>
            <Position>
              <LatitudeDegrees>41.28732358105480670928955078125</LatitudeDegrees>
              <LongitudeDegrees>-5.72239167988300323486328125</LongitudeDegrees>
            </Position>
            <AltitudeMeters>848.5999755859375</AltitudeMeters>
            <DistanceMeters>NAN</DistanceMeters>
          </Trackpoint>
          <Trackpoint>
            <Time>2019-10-06T09:53:37.000Z</Time>
            <Position>
              <LatitudeDegrees>41.28718678839504718780517578125</LatitudeDegrees>
              <LongitudeDegrees>-5.72228514589369297027587890625</LongitudeDegrees>
            </Position>
            <AltitudeMeters>849.4000244140625</AltitudeMeters>
            <DistanceMeters>NAN</DistanceMeters>
          </Trackpoint>
          <Trackpoint>
            <Time>2019-10-06T09:53:43.000Z</Time>
            <Position>
              <LatitudeDegrees>41.28697657026350498199462890625</LatitudeDegrees>
              <LongitudeDegrees>-5.72213259525597095489501953125</LongitudeDegrees>
            </Position>
            <AltitudeMeters>849.79998779296875</AltitudeMeters>
            <DistanceMeters>NAN</DistanceMeters>
          </Trackpoint>
          <Trackpoint>
            <Time>2019-10-06T09:53:52.000Z</Time>
            <Position>
              <LatitudeDegrees>41.286660321056842803955078125</LatitudeDegrees>
              <LongitudeDegrees>-5.72188884951174259185791015625</LongitudeDegrees>
            </Position>
            <AltitudeMeters>850.5999755859375</AltitudeMeters>
            <DistanceMeters>NAN</DistanceMeters>
          </Trackpoint>
          <Trackpoint>
            <Time>2019-10-06T09:53:55.000Z</Time>
            <Position>
              <LatitudeDegrees>41.28654875792562961578369140625</LatitudeDegrees>
              <LongitudeDegrees>-5.72180653922259807586669921875</LongitudeDegrees>
            </Position>
            <AltitudeMeters>850.20001220703125</AltitudeMeters>
            <DistanceMeters>NAN</DistanceMeters>
          </Trackpoint>
          <Trackpoint>
            <Time>2019-10-06T09:54:04.000Z</Time>
            <Position>
              <LatitudeDegrees>41.2861771881580352783203125</LatitudeDegrees>
              <LongitudeDegrees>-5.72153664194047451019287109375</LongitudeDegrees>
            </Position>
            <AltitudeMeters>850.20001220703125</AltitudeMeters>
            <DistanceMeters>NAN</DistanceMeters>
          </Trackpoint>
          <Trackpoint>
            <Time>2019-10-06T09:54:13.000Z</Time>
            <Position>
              <LatitudeDegrees>41.2857797183096408843994140625</LatitudeDegrees>
              <LongitudeDegrees>-5.7212334685027599334716796875</LongitudeDegrees>
            </Position>
            <AltitudeMeters>850</AltitudeMeters>
            <DistanceMeters>NAN</DistanceMeters>
          </Trackpoint>
          <Trackpoint>
            <Time>2019-10-06T09:54:15.000Z</Time>
            <Position>
              <LatitudeDegrees>41.2856890261173248291015625</LatitudeDegrees>
              <LongitudeDegrees>-5.7211657427251338958740234375</LongitudeDegrees>
            </Position>
            <AltitudeMeters>850</AltitudeMeters>
            <DistanceMeters>NAN</DistanceMeters>
          </Trackpoint>
          <Trackpoint>
            <Time>2019-10-06T09:54:19.000Z</Time>
            <Position>
              <LatitudeDegrees>41.28550487570464611053466796875</LatitudeDegrees>
              <LongitudeDegrees>-5.72103020735085010528564453125</LongitudeDegrees>
            </Position>
            <AltitudeMeters>850</AltitudeMeters>
            <DistanceMeters>NAN</DistanceMeters>
          </Trackpoint>
          <Trackpoint>
            <Time>2019-10-06T09:54:22.000Z</Time>
            <Position>
              <LatitudeDegrees>41.2853644788265228271484375</LatitudeDegrees>
              <LongitudeDegrees>-5.7209273613989353179931640625</LongitudeDegrees>
            </Position>
            <AltitudeMeters>849.4000244140625</AltitudeMeters>
            <DistanceMeters>NAN</DistanceMeters>
          </Trackpoint>
          <Trackpoint>
            <Time>2019-10-06T09:54:27.000Z</Time>
            <Position>
              <LatitudeDegrees>41.28511880524456501007080078125</LatitudeDegrees>
              <LongitudeDegrees>-5.7207443006336688995361328125</LongitudeDegrees>
            </Position>
            <AltitudeMeters>849.4000244140625</AltitudeMeters>
            <DistanceMeters>NAN</DistanceMeters>
          </Trackpoint>
          <Trackpoint>
            <Time>2019-10-06T09:54:36.000Z</Time>
            <Position>
              <LatitudeDegrees>41.28464723937213420867919921875</LatitudeDegrees>
              <LongitudeDegrees>-5.7203900814056396484375</LongitudeDegrees>
            </Position>
            <AltitudeMeters>849.4000244140625</AltitudeMeters>
            <DistanceMeters>NAN</DistanceMeters>
          </Trackpoint>
          <Trackpoint>
            <Time>2019-10-06T09:54:37.000Z</Time>
            <Position>
              <LatitudeDegrees>41.28459041006863117218017578125</LatitudeDegrees>
              <LongitudeDegrees>-5.72035185992717742919921875</LongitudeDegrees>
            </Position>
            <AltitudeMeters>849.4000244140625</AltitudeMeters>
            <DistanceMeters>NAN</DistanceMeters>
          </Trackpoint>
          <Trackpoint>
            <Time>2019-10-06T09:54:40.000Z</Time>
            <Position>
              <LatitudeDegrees>41.2844265438616275787353515625</LatitudeDegrees>
              <LongitudeDegrees>-5.72023375891149044036865234375</LongitudeDegrees>
            </Position>
            <AltitudeMeters>848.4000244140625</AltitudeMeters>
            <DistanceMeters>NAN</DistanceMeters>
          </Trackpoint>
          <Trackpoint>
            <Time>2019-10-06T09:54:43.000Z</Time>
            <Position>
              <LatitudeDegrees>41.28427055664360523223876953125</LatitudeDegrees>
              <LongitudeDegrees>-5.7201146520674228668212890625</LongitudeDegrees>
            </Position>
            <AltitudeMeters>849.20001220703125</AltitudeMeters>
            <DistanceMeters>NAN</DistanceMeters>
          </Trackpoint>
          <Trackpoint>
            <Time>2019-10-06T09:54:44.000Z</Time>
            <Position>
              <LatitudeDegrees>41.28421758301556110382080078125</LatitudeDegrees>
              <LongitudeDegrees>-5.7200740836560726165771484375</LongitudeDegrees>
            </Position>
            <AltitudeMeters>849.5999755859375</AltitudeMeters>
            <DistanceMeters>NAN</DistanceMeters>
          </Trackpoint>
          <Trackpoint>
            <Time>2019-10-06T09:54:47.000Z</Time>
            <Position>
              <LatitudeDegrees>41.28406084142625331878662109375</LatitudeDegrees>
              <LongitudeDegrees>-5.719957910478115081787109375</LongitudeDegrees>
            </Position>
            <AltitudeMeters>849.4000244140625</AltitudeMeters>
            <DistanceMeters>NAN</DistanceMeters>
          </Trackpoint>
          <Trackpoint>
            <Time>2019-10-06T09:54:54.000Z</Time>
            <Position>
              <LatitudeDegrees>41.28370427526533603668212890625</LatitudeDegrees>
              <LongitudeDegrees>-5.7197036035358905792236328125</LongitudeDegrees>
            </Position>
            <AltitudeMeters>849.79998779296875</AltitudeMeters>
            <DistanceMeters>NAN</DistanceMeters>
          </Trackpoint>
          <Trackpoint>
            <Time>2019-10-06T09:54:56.000Z</Time>
            <Position>
              <LatitudeDegrees>41.28360285423696041107177734375</LatitudeDegrees>
              <LongitudeDegrees>-5.7196345366537570953369140625</LongitudeDegrees>
            </Position>
            <AltitudeMeters>849.79998779296875</AltitudeMeters>
            <DistanceMeters>NAN</DistanceMeters>
          </Trackpoint>
          <Trackpoint>
            <Time>2019-10-06T09:55:01.000Z</Time>
            <Position>
              <LatitudeDegrees>41.28334955312311649322509765625</LatitudeDegrees>
              <LongitudeDegrees>-5.719467736780643463134765625</LongitudeDegrees>
            </Position>
            <AltitudeMeters>850.5999755859375</AltitudeMeters>
            <DistanceMeters>NAN</DistanceMeters>
          </Trackpoint>
          <Trackpoint>
            <Time>2019-10-06T09:55:05.000Z</Time>
            <Position>
              <LatitudeDegrees>41.28313648514449596405029296875</LatitudeDegrees>
              <LongitudeDegrees>-5.71933840401470661163330078125</LongitudeDegrees>
            </Position>
            <AltitudeMeters>850</AltitudeMeters>
            <DistanceMeters>NAN</DistanceMeters>
          </Trackpoint>
          <Trackpoint>
            <Time>2019-10-06T09:55:10.000Z</Time>
            <Position>
              <LatitudeDegrees>41.2828437052667140960693359375</LatitudeDegrees>
              <LongitudeDegrees>-5.71918786503374576568603515625</LongitudeDegrees>
            </Position>
            <AltitudeMeters>849.5999755859375</AltitudeMeters>
            <DistanceMeters>NAN</DistanceMeters>
          </Trackpoint>
          <Trackpoint>
            <Time>2019-10-06T09:55:13.000Z</Time>
            <Position>
              <LatitudeDegrees>41.28265477716922760009765625</LatitudeDegrees>
              <LongitudeDegrees>-5.71910153143107891082763671875</LongitudeDegrees>
            </Position>
            <AltitudeMeters>849.20001220703125</AltitudeMeters>
            <DistanceMeters>NAN</DistanceMeters>
          </Trackpoint>
          <Trackpoint>
            <Time>2019-10-06T09:55:19.000Z</Time>
            <Position>
              <LatitudeDegrees>41.28225923515856266021728515625</LatitudeDegrees>
              <LongitudeDegrees>-5.71895954199135303497314453125</LongitudeDegrees>
            </Position>
            <AltitudeMeters>848.79998779296875</AltitudeMeters>
            <DistanceMeters>NAN</DistanceMeters>
          </Trackpoint>
          <Trackpoint>
            <Time>2019-10-06T09:55:21.000Z</Time>
            <Position>
              <LatitudeDegrees>41.2821258790791034698486328125</LatitudeDegrees>
              <LongitudeDegrees>-5.71891612373292446136474609375</LongitudeDegrees>
            </Position>
            <AltitudeMeters>848.20001220703125</AltitudeMeters>
            <DistanceMeters>NAN</DistanceMeters>
          </Trackpoint>
          <Trackpoint>
            <Time>2019-10-06T09:55:24.000Z</Time>
            <Position>
              <LatitudeDegrees>41.2819270603358745574951171875</LatitudeDegrees>
              <LongitudeDegrees>-5.718853175640106201171875</LongitudeDegrees>
            </Position>
            <AltitudeMeters>848.20001220703125</AltitudeMeters>
            <DistanceMeters>NAN</DistanceMeters>
          </Trackpoint>
          <Trackpoint>
            <Time>2019-10-06T09:55:27.000Z</Time>
            <Position>
              <LatitudeDegrees>41.28172681666910648345947265625</LatitudeDegrees>
              <LongitudeDegrees>-5.71878972463309764862060546875</LongitudeDegrees>
            </Position>
            <AltitudeMeters>848.20001220703125</AltitudeMeters>
            <DistanceMeters>NAN</DistanceMeters>
          </Trackpoint>
          <Trackpoint>
            <Time>2019-10-06T09:55:31.000Z</Time>
            <Position>
              <LatitudeDegrees>41.28145591355860233306884765625</LatitudeDegrees>
              <LongitudeDegrees>-5.71870900690555572509765625</LongitudeDegrees>
            </Position>
            <AltitudeMeters>847.5999755859375</AltitudeMeters>
            <DistanceMeters>NAN</DistanceMeters>
          </Trackpoint>
          <Trackpoint>
            <Time>2019-10-06T09:55:34.000Z</Time>
            <Position>
              <LatitudeDegrees>41.2812467850744724273681640625</LatitudeDegrees>
              <LongitudeDegrees>-5.7186528481543064117431640625</LongitudeDegrees>
            </Position>
            <AltitudeMeters>847</AltitudeMeters>
            <DistanceMeters>NAN</DistanceMeters>
          </Trackpoint>
          <Trackpoint>
            <Time>2019-10-06T09:55:36.000Z</Time>
            <Position>
              <LatitudeDegrees>41.2811051309108734130859375</LatitudeDegrees>
              <LongitudeDegrees>-5.718608088791370391845703125</LongitudeDegrees>
            </Position>
            <AltitudeMeters>845.79998779296875</AltitudeMeters>
            <DistanceMeters>NAN</DistanceMeters>
          </Trackpoint>
          <Trackpoint>
            <Time>2019-10-06T09:55:39.000Z</Time>
            <Position>
              <LatitudeDegrees>41.28088317811489105224609375</LatitudeDegrees>
              <LongitudeDegrees>-5.71854983456432819366455078125</LongitudeDegrees>
            </Position>
            <AltitudeMeters>845.4000244140625</AltitudeMeters>
            <DistanceMeters>NAN</DistanceMeters>
          </Trackpoint>
          <Trackpoint>
            <Time>2019-10-06T09:55:43.000Z</Time>
            <Position>
              <LatitudeDegrees>41.28058587200939655303955078125</LatitudeDegrees>
              <LongitudeDegrees>-5.71846417151391506195068359375</LongitudeDegrees>
            </Position>
            <AltitudeMeters>844.79998779296875</AltitudeMeters>
            <DistanceMeters>NAN</DistanceMeters>
          </Trackpoint>
          <Trackpoint>
            <Time>2019-10-06T09:55:47.000Z</Time>
            <Position>
              <LatitudeDegrees>41.28030541352927684783935546875</LatitudeDegrees>
              <LongitudeDegrees>-5.718380771577358245849609375</LongitudeDegrees>
            </Position>
            <AltitudeMeters>845.5999755859375</AltitudeMeters>
            <DistanceMeters>NAN</DistanceMeters>
          </Trackpoint>
          <Trackpoint>
            <Time>2019-10-06T09:55:49.000Z</Time>
            <Position>
              <LatitudeDegrees>41.2801732309162616729736328125</LatitudeDegrees>
              <LongitudeDegrees>-5.71834196336567401885986328125</LongitudeDegrees>
            </Position>
            <AltitudeMeters>846</AltitudeMeters>
            <DistanceMeters>NAN</DistanceMeters>
          </Trackpoint>
          <Trackpoint>
            <Time>2019-10-06T09:55:56.000Z</Time>
            <Position>
              <LatitudeDegrees>41.27972714602947235107421875</LatitudeDegrees>
              <LongitudeDegrees>-5.71821749210357666015625</LongitudeDegrees>
            </Position>
            <AltitudeMeters>846.79998779296875</AltitudeMeters>
            <DistanceMeters>NAN</DistanceMeters>
          </Trackpoint>
          <Trackpoint>
            <Time>2019-10-06T09:55:57.000Z</Time>
            <Position>
              <LatitudeDegrees>41.2796647846698760986328125</LatitudeDegrees>
              <LongitudeDegrees>-5.7182002253830432891845703125</LongitudeDegrees>
            </Position>
            <AltitudeMeters>847</AltitudeMeters>
            <DistanceMeters>NAN</DistanceMeters>
          </Trackpoint>
          <Trackpoint>
            <Time>2019-10-06T09:56:02.000Z</Time>
            <Position>
              <LatitudeDegrees>41.27935926429927349090576171875</LatitudeDegrees>
              <LongitudeDegrees>-5.718108527362346649169921875</LongitudeDegrees>
            </Position>
            <AltitudeMeters>847</AltitudeMeters>
            <DistanceMeters>NAN</DistanceMeters>
          </Trackpoint>
          <Trackpoint>
            <Time>2019-10-06T09:56:06.000Z</Time>
            <Position>
              <LatitudeDegrees>41.27911627292633056640625</LatitudeDegrees>
              <LongitudeDegrees>-5.71803887374699115753173828125</LongitudeDegrees>
            </Position>
            <AltitudeMeters>846.79998779296875</AltitudeMeters>
            <DistanceMeters>NAN</DistanceMeters>
          </Trackpoint>
          <Trackpoint>
            <Time>2019-10-06T09:56:07.000Z</Time>
            <Position>
              <LatitudeDegrees>41.2790540792047977447509765625</LatitudeDegrees>
              <LongitudeDegrees>-5.71802110411226749420166015625</LongitudeDegrees>
            </Position>
            <AltitudeMeters>847.4000244140625</AltitudeMeters>
            <DistanceMeters>NAN</DistanceMeters>
          </Trackpoint>
          <Trackpoint>
            <Time>2019-10-06T09:56:15.000Z</Time>
            <Position>
              <LatitudeDegrees>41.27855510450899600982666015625</LatitudeDegrees>
              <LongitudeDegrees>-5.717871822416782379150390625</LongitudeDegrees>
            </Position>
            <AltitudeMeters>846</AltitudeMeters>
            <DistanceMeters>NAN</DistanceMeters>
          </Trackpoint>
          <Trackpoint>
            <Time>2019-10-06T09:56:18.000Z</Time>
            <Position>
              <LatitudeDegrees>41.27836567349731922149658203125</LatitudeDegrees>
              <LongitudeDegrees>-5.71781910024583339691162109375</LongitudeDegrees>
            </Position>
            <AltitudeMeters>845.5999755859375</AltitudeMeters>
            <DistanceMeters>NAN</DistanceMeters>
          </Trackpoint>
          <Trackpoint>
            <Time>2019-10-06T09:56:24.000Z</Time>
            <Position>
              <LatitudeDegrees>41.277973987162113189697265625</LatitudeDegrees>
              <LongitudeDegrees>-5.717705190181732177734375</LongitudeDegrees>
            </Position>
            <AltitudeMeters>845</AltitudeMeters>
            <DistanceMeters>NAN</DistanceMeters>
          </Trackpoint>
          <Trackpoint>
            <Time>2019-10-06T09:56:25.000Z</Time>
            <Position>
              <LatitudeDegrees>41.27790316008031368255615234375</LatitudeDegrees>
              <LongitudeDegrees>-5.7176832295954227447509765625</LongitudeDegrees>
            </Position>
            <AltitudeMeters>844.4000244140625</AltitudeMeters>
            <DistanceMeters>NAN</DistanceMeters>
          </Trackpoint>
          <Trackpoint>
            <Time>2019-10-06T09:56:28.000Z</Time>
            <Position>
              <LatitudeDegrees>41.277672909200191497802734375</LatitudeDegrees>
              <LongitudeDegrees>-5.71761826984584331512451171875</LongitudeDegrees>
            </Position>
            <AltitudeMeters>843</AltitudeMeters>
            <DistanceMeters>NAN</DistanceMeters>
          </Trackpoint>
          <Trackpoint>
            <Time>2019-10-06T09:56:30.000Z</Time>
            <Position>
              <LatitudeDegrees>41.2775067798793315887451171875</LatitudeDegrees>
              <LongitudeDegrees>-5.71756596677005290985107421875</LongitudeDegrees>
            </Position>
            <AltitudeMeters>841.5999755859375</AltitudeMeters>
            <DistanceMeters>NAN</DistanceMeters>
          </Trackpoint>
          <Trackpoint>
            <Time>2019-10-06T09:56:31.000Z</Time>
            <Position>
              <LatitudeDegrees>41.27742036245763301849365234375</LatitudeDegrees>
              <LongitudeDegrees>-5.7175387255847454071044921875</LongitudeDegrees>
            </Position>
            <AltitudeMeters>841.4000244140625</AltitudeMeters>
            <DistanceMeters>NAN</DistanceMeters>
          </Trackpoint>
          <Trackpoint>
            <Time>2019-10-06T09:56:33.000Z</Time>
            <Position>
              <LatitudeDegrees>41.2772395648062229156494140625</LatitudeDegrees>
              <LongitudeDegrees>-5.717486254870891571044921875</LongitudeDegrees>
            </Position>
            <AltitudeMeters>840</AltitudeMeters>
            <DistanceMeters>NAN</DistanceMeters>
          </Trackpoint>
          <Trackpoint>
            <Time>2019-10-06T09:56:34.000Z</Time>
            <Position>
              <LatitudeDegrees>41.27714761532843112945556640625</LatitudeDegrees>
              <LongitudeDegrees>-5.717460103332996368408203125</LongitudeDegrees>
            </Position>
            <AltitudeMeters>839</AltitudeMeters>
            <DistanceMeters>NAN</DistanceMeters>
          </Trackpoint>
          <Trackpoint>
            <Time>2019-10-06T09:56:36.000Z</Time>
            <Position>
              <LatitudeDegrees>41.2769611179828643798828125</LatitudeDegrees>
              <LongitudeDegrees>-5.7174083031713962554931640625</LongitudeDegrees>
            </Position>
            <AltitudeMeters>838</AltitudeMeters>
            <DistanceMeters>NAN</DistanceMeters>
          </Trackpoint>
          <Trackpoint>
            <Time>2019-10-06T09:56:38.000Z</Time>
            <Position>
              <LatitudeDegrees>41.2767745368182659149169921875</LatitudeDegrees>
              <LongitudeDegrees>-5.7173543237149715423583984375</LongitudeDegrees>
            </Position>
            <AltitudeMeters>838.20001220703125</AltitudeMeters>
            <DistanceMeters>NAN</DistanceMeters>
          </Trackpoint>
          <Trackpoint>
            <Time>2019-10-06T09:56:39.000Z</Time>
            <Position>
              <LatitudeDegrees>41.276679150760173797607421875</LatitudeDegrees>
              <LongitudeDegrees>-5.71732632815837860107421875</LongitudeDegrees>
            </Position>
            <AltitudeMeters>837.79998779296875</AltitudeMeters>
            <DistanceMeters>NAN</DistanceMeters>
          </Trackpoint>
          <Trackpoint>
            <Time>2019-10-06T09:56:44.000Z</Time>
            <Position>
              <LatitudeDegrees>41.2762139551341533660888671875</LatitudeDegrees>
              <LongitudeDegrees>-5.7171954028308391571044921875</LongitudeDegrees>
            </Position>
            <AltitudeMeters>836.79998779296875</AltitudeMeters>
            <DistanceMeters>NAN</DistanceMeters>
          </Trackpoint>
          <Trackpoint>
            <Time>2019-10-06T09:56:49.000Z</Time>
            <Position>
              <LatitudeDegrees>41.27575613558292388916015625</LatitudeDegrees>
              <LongitudeDegrees>-5.71706489659845829010009765625</LongitudeDegrees>
            </Position>
            <AltitudeMeters>836.20001220703125</AltitudeMeters>
            <DistanceMeters>NAN</DistanceMeters>
          </Trackpoint>
          <Trackpoint>
            <Time>2019-10-06T09:56:53.000Z</Time>
            <Position>
              <LatitudeDegrees>41.2753931991755962371826171875</LatitudeDegrees>
              <LongitudeDegrees>-5.71696146391332149505615234375</LongitudeDegrees>
            </Position>
            <AltitudeMeters>835.5999755859375</AltitudeMeters>
            <DistanceMeters>NAN</DistanceMeters>
          </Trackpoint>
          <Trackpoint>
            <Time>2019-10-06T09:56:57.000Z</Time>
            <Position>
              <LatitudeDegrees>41.27503436990082263946533203125</LatitudeDegrees>
              <LongitudeDegrees>-5.71685836650431156158447265625</LongitudeDegrees>
            </Position>
            <AltitudeMeters>835</AltitudeMeters>
            <DistanceMeters>NAN</DistanceMeters>
          </Trackpoint>
          <Trackpoint>
            <Time>2019-10-06T09:56:58.000Z</Time>
            <Position>
              <LatitudeDegrees>41.27494384534657001495361328125</LatitudeDegrees>
              <LongitudeDegrees>-5.71683171205222606658935546875</LongitudeDegrees>
            </Position>
            <AltitudeMeters>835.20001220703125</AltitudeMeters>
            <DistanceMeters>NAN</DistanceMeters>
          </Trackpoint>
          <Trackpoint>
            <Time>2019-10-06T09:57:00.000Z</Time>
            <Position>
              <LatitudeDegrees>41.27476262860000133514404296875</LatitudeDegrees>
              <LongitudeDegrees>-5.71678276173770427703857421875</LongitudeDegrees>
            </Position>
            <AltitudeMeters>834.5999755859375</AltitudeMeters>
            <DistanceMeters>NAN</DistanceMeters>
          </Trackpoint>
          <Trackpoint>
            <Time>2019-10-06T09:57:04.000Z</Time>
            <Position>
              <LatitudeDegrees>41.27439885400235652923583984375</LatitudeDegrees>
              <LongitudeDegrees>-5.71667748503386974334716796875</LongitudeDegrees>
            </Position>
            <AltitudeMeters>833.4000244140625</AltitudeMeters>
            <DistanceMeters>NAN</DistanceMeters>
          </Trackpoint>
          <Trackpoint>
            <Time>2019-10-06T09:57:08.000Z</Time>
            <Position>
              <LatitudeDegrees>41.2740380130708217620849609375</LatitudeDegrees>
              <LongitudeDegrees>-5.7165691070258617401123046875</LongitudeDegrees>
            </Position>
            <AltitudeMeters>832</AltitudeMeters>
            <DistanceMeters>NAN</DistanceMeters>
          </Trackpoint>
          <Trackpoint>
            <Time>2019-10-06T09:57:14.000Z</Time>
            <Position>
              <LatitudeDegrees>41.273503415286540985107421875</LatitudeDegrees>
              <LongitudeDegrees>-5.71641127578914165496826171875</LongitudeDegrees>
            </Position>
            <AltitudeMeters>831.79998779296875</AltitudeMeters>
            <DistanceMeters>NAN</DistanceMeters>
          </Trackpoint>
          <Trackpoint>
            <Time>2019-10-06T09:57:17.000Z</Time>
            <Position>
              <LatitudeDegrees>41.27323846332728862762451171875</LatitudeDegrees>
              <LongitudeDegrees>-5.7163374312222003936767578125</LongitudeDegrees>
            </Position>
            <AltitudeMeters>831.5999755859375</AltitudeMeters>
            <DistanceMeters>NAN</DistanceMeters>
          </Trackpoint>
          <Trackpoint>
            <Time>2019-10-06T09:57:20.000Z</Time>
            <Position>
              <LatitudeDegrees>41.2729718349874019622802734375</LatitudeDegrees>
              <LongitudeDegrees>-5.71626727469265460968017578125</LongitudeDegrees>
            </Position>
            <AltitudeMeters>830.79998779296875</AltitudeMeters>
            <DistanceMeters>NAN</DistanceMeters>
          </Trackpoint>
          <Trackpoint>
            <Time>2019-10-06T09:57:23.000Z</Time>
            <Position>
              <LatitudeDegrees>41.27270772121846675872802734375</LatitudeDegrees>
              <LongitudeDegrees>-5.7161884009838104248046875</LongitudeDegrees>
            </Position>
            <AltitudeMeters>829.5999755859375</AltitudeMeters>
            <DistanceMeters>NAN</DistanceMeters>
          </Trackpoint>
          <Trackpoint>
            <Time>2019-10-06T09:57:25.000Z</Time>
            <Position>
              <LatitudeDegrees>41.27253153361380100250244140625</LatitudeDegrees>
              <LongitudeDegrees>-5.7161319069564342498779296875</LongitudeDegrees>
            </Position>
            <AltitudeMeters>830.4000244140625</AltitudeMeters>
            <DistanceMeters>NAN</DistanceMeters>
          </Trackpoint>
          <Trackpoint>
            <Time>2019-10-06T09:57:26.000Z</Time>
            <Position>
              <LatitudeDegrees>41.2724447809159755706787109375</LatitudeDegrees>
              <LongitudeDegrees>-5.7161024026572704315185546875</LongitudeDegrees>
            </Position>
            <AltitudeMeters>830</AltitudeMeters>
            <DistanceMeters>NAN</DistanceMeters>
          </Trackpoint>
          <Trackpoint>
            <Time>2019-10-06T09:57:28.000Z</Time>
            <Position>
              <LatitudeDegrees>41.2722701020538806915283203125</LatitudeDegrees>
              <LongitudeDegrees>-5.71604951284825801849365234375</LongitudeDegrees>
            </Position>
            <AltitudeMeters>829</AltitudeMeters>
            <DistanceMeters>NAN</DistanceMeters>
          </Trackpoint>
          <Trackpoint>
            <Time>2019-10-06T09:57:29.000Z</Time>
            <Position>
              <LatitudeDegrees>41.27218217588961124420166015625</LatitudeDegrees>
              <LongitudeDegrees>-5.7160249538719654083251953125</LongitudeDegrees>
            </Position>
            <AltitudeMeters>828.4000244140625</AltitudeMeters>
            <DistanceMeters>NAN</DistanceMeters>
          </Trackpoint>
          <Trackpoint>
            <Time>2019-10-06T09:57:32.000Z</Time>
            <Position>
              <LatitudeDegrees>41.27191194333136081695556640625</LatitudeDegrees>
              <LongitudeDegrees>-5.715953372418880462646484375</LongitudeDegrees>
            </Position>
            <AltitudeMeters>827.79998779296875</AltitudeMeters>
            <DistanceMeters>NAN</DistanceMeters>
          </Trackpoint>
          <Trackpoint>
            <Time>2019-10-06T09:57:33.000Z</Time>
            <Position>
              <LatitudeDegrees>41.27182091586291790008544921875</LatitudeDegrees>
              <LongitudeDegrees>-5.71592763997614383697509765625</LongitudeDegrees>
            </Position>
            <AltitudeMeters>827.4000244140625</AltitudeMeters>
            <DistanceMeters>NAN</DistanceMeters>
          </Trackpoint>
          <Trackpoint>
            <Time>2019-10-06T09:57:35.000Z</Time>
            <Position>
              <LatitudeDegrees>41.27163416706025600433349609375</LatitudeDegrees>
              <LongitudeDegrees>-5.71587500162422657012939453125</LongitudeDegrees>
            </Position>
            <AltitudeMeters>826</AltitudeMeters>
            <DistanceMeters>NAN</DistanceMeters>
          </Trackpoint>
          <Trackpoint>
            <Time>2019-10-06T09:57:37.000Z</Time>
            <Position>
              <LatitudeDegrees>41.271446160972118377685546875</LatitudeDegrees>
              <LongitudeDegrees>-5.71581892669200897216796875</LongitudeDegrees>
            </Position>
            <AltitudeMeters>824.79998779296875</AltitudeMeters>
            <DistanceMeters>NAN</DistanceMeters>
          </Trackpoint>
          <Trackpoint>
            <Time>2019-10-06T09:57:40.000Z</Time>
            <Position>
              <LatitudeDegrees>41.27116042189300060272216796875</LatitudeDegrees>
              <LongitudeDegrees>-5.71573653258383274078369140625</LongitudeDegrees>
            </Position>
            <AltitudeMeters>824.20001220703125</AltitudeMeters>
            <DistanceMeters>NAN</DistanceMeters>
          </Trackpoint>
          <Trackpoint>
            <Time>2019-10-06T09:57:42.000Z</Time>
            <Position>
              <LatitudeDegrees>41.27097082324326038360595703125</LatitudeDegrees>
              <LongitudeDegrees>-5.7156819663941860198974609375</LongitudeDegrees>
            </Position>
            <AltitudeMeters>823.5999755859375</AltitudeMeters>
            <DistanceMeters>NAN</DistanceMeters>
          </Trackpoint>
          <Trackpoint>
            <Time>2019-10-06T09:57:48.000Z</Time>
            <Position>
              <LatitudeDegrees>41.2704257480800151824951171875</LatitudeDegrees>
              <LongitudeDegrees>-5.71552463807165622711181640625</LongitudeDegrees>
            </Position>
            <AltitudeMeters>824.20001220703125</AltitudeMeters>
            <DistanceMeters>NAN</DistanceMeters>
          </Trackpoint>
          <Trackpoint>
            <Time>2019-10-06T09:57:50.000Z</Time>
            <Position>
              <LatitudeDegrees>41.27025165595114231109619140625</LatitudeDegrees>
              <LongitudeDegrees>-5.7154707424342632293701171875</LongitudeDegrees>
            </Position>
            <AltitudeMeters>823.4000244140625</AltitudeMeters>
            <DistanceMeters>NAN</DistanceMeters>
          </Trackpoint>
          <Trackpoint>
            <Time>2019-10-06T09:57:55.000Z</Time>
            <Position>
              <LatitudeDegrees>41.2698023021221160888671875</LatitudeDegrees>
              <LongitudeDegrees>-5.7153409905731678009033203125</LongitudeDegrees>
            </Position>
            <AltitudeMeters>822.4000244140625</AltitudeMeters>
            <DistanceMeters>NAN</DistanceMeters>
          </Trackpoint>
          <Trackpoint>
            <Time>2019-10-06T09:57:57.000Z</Time>
            <Position>
              <LatitudeDegrees>41.26961194910109043121337890625</LatitudeDegrees>
              <LongitudeDegrees>-5.7152886874973773956298828125</LongitudeDegrees>
            </Position>
            <AltitudeMeters>821.4000244140625</AltitudeMeters>
            <DistanceMeters>NAN</DistanceMeters>
          </Trackpoint>
          <Trackpoint>
            <Time>2019-10-06T09:57:58.000Z</Time>
            <Position>
              <LatitudeDegrees>41.26951396465301513671875</LatitudeDegrees>
              <LongitudeDegrees>-5.71525968611240386962890625</LongitudeDegrees>
            </Position>
            <AltitudeMeters>820.5999755859375</AltitudeMeters>
            <DistanceMeters>NAN</DistanceMeters>
          </Trackpoint>
          <Trackpoint>
            <Time>2019-10-06T09:57:59.000Z</Time>
            <Position>
              <LatitudeDegrees>41.26941447146236896514892578125</LatitudeDegrees>
              <LongitudeDegrees>-5.71523043327033519744873046875</LongitudeDegrees>
            </Position>
            <AltitudeMeters>820</AltitudeMeters>
            <DistanceMeters>NAN</DistanceMeters>
          </Trackpoint>
          <Trackpoint>
            <Time>2019-10-06T09:58:01.000Z</Time>
            <Position>
              <LatitudeDegrees>41.269212551414966583251953125</LatitudeDegrees>
              <LongitudeDegrees>-5.7151710055768489837646484375</LongitudeDegrees>
            </Position>
            <AltitudeMeters>818.5999755859375</AltitudeMeters>
            <DistanceMeters>NAN</DistanceMeters>
          </Trackpoint>
          <Trackpoint>
            <Time>2019-10-06T09:58:03.000Z</Time>
            <Position>
              <LatitudeDegrees>41.2690098769962787628173828125</LatitudeDegrees>
              <LongitudeDegrees>-5.71511023677885532379150390625</LongitudeDegrees>
            </Position>
            <AltitudeMeters>817.20001220703125</AltitudeMeters>
            <DistanceMeters>NAN</DistanceMeters>
          </Trackpoint>
          <Trackpoint>
            <Time>2019-10-06T09:58:08.000Z</Time>
            <Position>
              <LatitudeDegrees>41.26851006411015987396240234375</LatitudeDegrees>
              <LongitudeDegrees>-5.7149654813110828399658203125</LongitudeDegrees>
            </Position>
            <AltitudeMeters>816.79998779296875</AltitudeMeters>
            <DistanceMeters>NAN</DistanceMeters>
          </Trackpoint>
          <Trackpoint>
            <Time>2019-10-06T09:58:12.000Z</Time>
            <Position>
              <LatitudeDegrees>41.26813153736293315887451171875</LatitudeDegrees>
              <LongitudeDegrees>-5.714857019484043121337890625</LongitudeDegrees>
            </Position>
            <AltitudeMeters>816.79998779296875</AltitudeMeters>
            <DistanceMeters>NAN</DistanceMeters>
          </Trackpoint>
          <Trackpoint>
            <Time>2019-10-06T09:58:15.000Z</Time>
            <Position>
              <LatitudeDegrees>41.26785979606211185455322265625</LatitudeDegrees>
              <LongitudeDegrees>-5.7147773914039134979248046875</LongitudeDegrees>
            </Position>
            <AltitudeMeters>816.5999755859375</AltitudeMeters>
            <DistanceMeters>NAN</DistanceMeters>
          </Trackpoint>
          <Trackpoint>
            <Time>2019-10-06T09:58:19.000Z</Time>
            <Position>
              <LatitudeDegrees>41.26751697622239589691162109375</LatitudeDegrees>
              <LongitudeDegrees>-5.71468292735517024993896484375</LongitudeDegrees>
            </Position>
            <AltitudeMeters>817</AltitudeMeters>
            <DistanceMeters>NAN</DistanceMeters>
          </Trackpoint>
          <Trackpoint>
            <Time>2019-10-06T09:58:24.000Z</Time>
            <Position>
              <LatitudeDegrees>41.26711062155663967132568359375</LatitudeDegrees>
              <LongitudeDegrees>-5.71456591598689556121826171875</LongitudeDegrees>
            </Position>
            <AltitudeMeters>817</AltitudeMeters>
            <DistanceMeters>NAN</DistanceMeters>
          </Trackpoint>
          <Trackpoint>
            <Time>2019-10-06T09:58:31.000Z</Time>
            <Position>
              <LatitudeDegrees>41.2665720842778682708740234375</LatitudeDegrees>
              <LongitudeDegrees>-5.71441252715885639190673828125</LongitudeDegrees>
            </Position>
            <AltitudeMeters>817.79998779296875</AltitudeMeters>
            <DistanceMeters>NAN</DistanceMeters>
          </Trackpoint>
          <Trackpoint>
            <Time>2019-10-06T09:58:32.000Z</Time>
            <Position>
              <LatitudeDegrees>41.26649941317737102508544921875</LatitudeDegrees>
              <LongitudeDegrees>-5.71439190767705440521240234375</LongitudeDegrees>
            </Position>
            <AltitudeMeters>818</AltitudeMeters>
            <DistanceMeters>NAN</DistanceMeters>
          </Trackpoint>
          <Trackpoint>
            <Time>2019-10-06T09:58:40.000Z</Time>
            <Position>
              <LatitudeDegrees>41.26592977903783321380615234375</LatitudeDegrees>
              <LongitudeDegrees>-5.71422007866203784942626953125</LongitudeDegrees>
            </Position>
            <AltitudeMeters>818.20001220703125</AltitudeMeters>
            <DistanceMeters>NAN</DistanceMeters>
          </Trackpoint>
          <Trackpoint>
            <Time>2019-10-06T09:58:42.000Z</Time>
            <Position>
              <LatitudeDegrees>41.265787370502948760986328125</LatitudeDegrees>
              <LongitudeDegrees>-5.71418118663132190704345703125</LongitudeDegrees>
            </Position>
            <AltitudeMeters>817.79998779296875</AltitudeMeters>
            <DistanceMeters>NAN</DistanceMeters>
          </Trackpoint>
          <Trackpoint>
            <Time>2019-10-06T09:58:47.000Z</Time>
            <Position>
              <LatitudeDegrees>41.26543206162750720977783203125</LatitudeDegrees>
              <LongitudeDegrees>-5.7140790112316608428955078125</LongitudeDegrees>
            </Position>
            <AltitudeMeters>817.4000244140625</AltitudeMeters>
            <DistanceMeters>NAN</DistanceMeters>
          </Trackpoint>
          <Trackpoint>
            <Time>2019-10-06T09:58:49.000Z</Time>
            <Position>
              <LatitudeDegrees>41.26528973691165447235107421875</LatitudeDegrees>
              <LongitudeDegrees>-5.7140377722680568695068359375</LongitudeDegrees>
            </Position>
            <AltitudeMeters>817.5999755859375</AltitudeMeters>
            <DistanceMeters>NAN</DistanceMeters>
          </Trackpoint>
          <Trackpoint>
            <Time>2019-10-06T09:58:53.000Z</Time>
            <Position>
              <LatitudeDegrees>41.265016235411167144775390625</LatitudeDegrees>
              <LongitudeDegrees>-5.71396225132048130035400390625</LongitudeDegrees>
            </Position>
            <AltitudeMeters>818.4000244140625</AltitudeMeters>
            <DistanceMeters>NAN</DistanceMeters>
          </Trackpoint>
          <Trackpoint>
            <Time>2019-10-06T09:58:57.000Z</Time>
            <Position>
              <LatitudeDegrees>41.264752037823200225830078125</LatitudeDegrees>
              <LongitudeDegrees>-5.7138879038393497467041015625</LongitudeDegrees>
            </Position>
            <AltitudeMeters>818.79998779296875</AltitudeMeters>
            <DistanceMeters>NAN</DistanceMeters>
          </Trackpoint>
          <Trackpoint>
            <Time>2019-10-06T09:59:03.000Z</Time>
            <Position>
              <LatitudeDegrees>41.26438491046428680419921875</LatitudeDegrees>
              <LongitudeDegrees>-5.7137769274413585662841796875</LongitudeDegrees>
            </Position>
            <AltitudeMeters>819.5999755859375</AltitudeMeters>
            <DistanceMeters>NAN</DistanceMeters>
          </Trackpoint>
          <Trackpoint>
            <Time>2019-10-06T09:59:05.000Z</Time>
            <Position>
              <LatitudeDegrees>41.26427091658115386962890625</LatitudeDegrees>
              <LongitudeDegrees>-5.71374448947608470916748046875</LongitudeDegrees>
            </Position>
            <AltitudeMeters>819.79998779296875</AltitudeMeters>
            <DistanceMeters>NAN</DistanceMeters>
          </Trackpoint>
          <Trackpoint>
            <Time>2019-10-06T09:59:13.000Z</Time>
            <Position>
              <LatitudeDegrees>41.26385022886097431182861328125</LatitudeDegrees>
              <LongitudeDegrees>-5.7136163301765918731689453125</LongitudeDegrees>
            </Position>
            <AltitudeMeters>820.4000244140625</AltitudeMeters>
            <DistanceMeters>NAN</DistanceMeters>
          </Trackpoint>
          <Trackpoint>
            <Time>2019-10-06T09:59:16.000Z</Time>
            <Position>
              <LatitudeDegrees>41.26369600184261798858642578125</LatitudeDegrees>
              <LongitudeDegrees>-5.71357467211782932281494140625</LongitudeDegrees>
            </Position>
            <AltitudeMeters>820.5999755859375</AltitudeMeters>
            <DistanceMeters>NAN</DistanceMeters>
          </Trackpoint>
          <Trackpoint>
            <Time>2019-10-06T09:59:20.000Z</Time>
            <Position>
              <LatitudeDegrees>41.26349265687167644500732421875</LatitudeDegrees>
              <LongitudeDegrees>-5.71351180784404277801513671875</LongitudeDegrees>
            </Position>
            <AltitudeMeters>821.20001220703125</AltitudeMeters>
            <DistanceMeters>NAN</DistanceMeters>
          </Trackpoint>
          <Trackpoint>
            <Time>2019-10-06T09:59:21.000Z</Time>
            <Position>
              <LatitudeDegrees>41.26344077289104461669921875</LatitudeDegrees>
              <LongitudeDegrees>-5.7134954631328582763671875</LongitudeDegrees>
            </Position>
            <AltitudeMeters>821.5999755859375</AltitudeMeters>
            <DistanceMeters>NAN</DistanceMeters>
          </Trackpoint>
          <Trackpoint>
            <Time>2019-10-06T09:59:27.000Z</Time>
            <Position>
              <LatitudeDegrees>41.26312871463596820831298828125</LatitudeDegrees>
              <LongitudeDegrees>-5.7134096324443817138671875</LongitudeDegrees>
            </Position>
            <AltitudeMeters>821.5999755859375</AltitudeMeters>
            <DistanceMeters>NAN</DistanceMeters>
          </Trackpoint>
          <Trackpoint>
            <Time>2019-10-06T09:59:29.000Z</Time>
            <Position>
              <LatitudeDegrees>41.26302762888371944427490234375</LatitudeDegrees>
              <LongitudeDegrees>-5.71338105015456676483154296875</LongitudeDegrees>
            </Position>
            <AltitudeMeters>822.20001220703125</AltitudeMeters>
            <DistanceMeters>NAN</DistanceMeters>
          </Trackpoint>
          <Trackpoint>
            <Time>2019-10-06T09:59:38.000Z</Time>
            <Position>
              <LatitudeDegrees>41.26257249154150485992431640625</LatitudeDegrees>
              <LongitudeDegrees>-5.71324526332318782806396484375</LongitudeDegrees>
            </Position>
            <AltitudeMeters>822.5999755859375</AltitudeMeters>
            <DistanceMeters>NAN</DistanceMeters>
          </Trackpoint>
          <Trackpoint>
            <Time>2019-10-06T09:59:41.000Z</Time>
            <Position>
              <LatitudeDegrees>41.26242245547473430633544921875</LatitudeDegrees>
              <LongitudeDegrees>-5.7132025994360446929931640625</LongitudeDegrees>
            </Position>
            <AltitudeMeters>822.5999755859375</AltitudeMeters>
            <DistanceMeters>NAN</DistanceMeters>
          </Trackpoint>
          <Trackpoint>
            <Time>2019-10-06T09:59:48.000Z</Time>
            <Position>
              <LatitudeDegrees>41.2620775401592254638671875</LatitudeDegrees>
              <LongitudeDegrees>-5.7130815647542476654052734375</LongitudeDegrees>
            </Position>
            <AltitudeMeters>822.5999755859375</AltitudeMeters>
            <DistanceMeters>NAN</DistanceMeters>
          </Trackpoint>
          <Trackpoint>
            <Time>2019-10-06T09:59:57.000Z</Time>
            <Position>
              <LatitudeDegrees>41.26163170672953128814697265625</LatitudeDegrees>
              <LongitudeDegrees>-5.712869502604007720947265625</LongitudeDegrees>
            </Position>
            <AltitudeMeters>823.4000244140625</AltitudeMeters>
            <DistanceMeters>NAN</DistanceMeters>
          </Trackpoint>
          <Trackpoint>
            <Time>2019-10-06T10:00:06.000Z</Time>
            <Position>
              <LatitudeDegrees>41.2611885555088520050048828125</LatitudeDegrees>
              <LongitudeDegrees>-5.712579824030399322509765625</LongitudeDegrees>
            </Position>
            <AltitudeMeters>822.79998779296875</AltitudeMeters>
            <DistanceMeters>NAN</DistanceMeters>
          </Trackpoint>
          <Trackpoint>
            <Time>2019-10-06T10:00:14.000Z</Time>
            <Position>
              <LatitudeDegrees>41.2608100287616252899169921875</LatitudeDegrees>
              <LongitudeDegrees>-5.71224764920771121978759765625</LongitudeDegrees>
            </Position>
            <AltitudeMeters>823</AltitudeMeters>
            <DistanceMeters>NAN</DistanceMeters>
          </Trackpoint>
          <Trackpoint>
            <Time>2019-10-06T10:00:15.000Z</Time>
            <Position>
              <LatitudeDegrees>41.26076300628483295440673828125</LatitudeDegrees>
              <LongitudeDegrees>-5.71220003999769687652587890625</LongitudeDegrees>
            </Position>
            <AltitudeMeters>823</AltitudeMeters>
            <DistanceMeters>NAN</DistanceMeters>
          </Trackpoint>
          <Trackpoint>
            <Time>2019-10-06T10:00:23.000Z</Time>
            <Position>
              <LatitudeDegrees>41.2603902630507946014404296875</LatitudeDegrees>
              <LongitudeDegrees>-5.71177683770656585693359375</LongitudeDegrees>
            </Position>
            <AltitudeMeters>821.79998779296875</AltitudeMeters>
            <DistanceMeters>NAN</DistanceMeters>
          </Trackpoint>
          <Trackpoint>
            <Time>2019-10-06T10:00:24.000Z</Time>
            <Position>
              <LatitudeDegrees>41.2603450007736682891845703125</LatitudeDegrees>
              <LongitudeDegrees>-5.7117198407649993896484375</LongitudeDegrees>
            </Position>
            <AltitudeMeters>821.79998779296875</AltitudeMeters>
            <DistanceMeters>NAN</DistanceMeters>
          </Trackpoint>
          <Trackpoint>
            <Time>2019-10-06T10:00:26.000Z</Time>
            <Position>
              <LatitudeDegrees>41.26025623641908168792724609375</LatitudeDegrees>
              <LongitudeDegrees>-5.711604841053485870361328125</LongitudeDegrees>
            </Position>
            <AltitudeMeters>821.20001220703125</AltitudeMeters>
            <DistanceMeters>NAN</DistanceMeters>
          </Trackpoint>
          <Trackpoint>
            <Time>2019-10-06T10:00:31.000Z</Time>
            <Position>
              <LatitudeDegrees>41.26005590893328189849853515625</LatitudeDegrees>
              <LongitudeDegrees>-5.711304433643817901611328125</LongitudeDegrees>
            </Position>
            <AltitudeMeters>820.5999755859375</AltitudeMeters>
            <DistanceMeters>NAN</DistanceMeters>
          </Trackpoint>
          <Trackpoint>
            <Time>2019-10-06T10:00:32.000Z</Time>
            <Position>
              <LatitudeDegrees>41.26001802273094654083251953125</LatitudeDegrees>
              <LongitudeDegrees>-5.71124182082712650299072265625</LongitudeDegrees>
            </Position>
            <AltitudeMeters>820.5999755859375</AltitudeMeters>
            <DistanceMeters>NAN</DistanceMeters>
          </Trackpoint>
          <Trackpoint>
            <Time>2019-10-06T10:00:38.000Z</Time>
            <Position>
              <LatitudeDegrees>41.25980059616267681121826171875</LatitudeDegrees>
              <LongitudeDegrees>-5.71083898656070232391357421875</LongitudeDegrees>
            </Position>
            <AltitudeMeters>819.79998779296875</AltitudeMeters>
            <DistanceMeters>NAN</DistanceMeters>
          </Trackpoint>
          <Trackpoint>
            <Time>2019-10-06T10:00:42.000Z</Time>
            <Position>
              <LatitudeDegrees>41.259667240083217620849609375</LatitudeDegrees>
              <LongitudeDegrees>-5.7105584442615509033203125</LongitudeDegrees>
            </Position>
            <AltitudeMeters>819.5999755859375</AltitudeMeters>
            <DistanceMeters>NAN</DistanceMeters>
          </Trackpoint>
          <Trackpoint>
            <Time>2019-10-06T10:00:46.000Z</Time>
            <Position>
              <LatitudeDegrees>41.2595524080097675323486328125</LatitudeDegrees>
              <LongitudeDegrees>-5.710269771516323089599609375</LongitudeDegrees>
            </Position>
            <AltitudeMeters>818.79998779296875</AltitudeMeters>
            <DistanceMeters>NAN</DistanceMeters>
          </Trackpoint>
          <Trackpoint>
            <Time>2019-10-06T10:00:49.000Z</Time>
            <Position>
              <LatitudeDegrees>41.259474791586399078369140625</LatitudeDegrees>
              <LongitudeDegrees>-5.7100513391196727752685546875</LongitudeDegrees>
            </Position>
            <AltitudeMeters>820</AltitudeMeters>
            <DistanceMeters>NAN</DistanceMeters>
          </Trackpoint>
          <Trackpoint>
            <Time>2019-10-06T10:00:51.000Z</Time>
            <Position>
              <LatitudeDegrees>41.2594280205667018890380859375</LatitudeDegrees>
              <LongitudeDegrees>-5.7099044881761074066162109375</LongitudeDegrees>
            </Position>
            <AltitudeMeters>819.79998779296875</AltitudeMeters>
            <DistanceMeters>NAN</DistanceMeters>
          </Trackpoint>
          <Trackpoint>
            <Time>2019-10-06T10:00:58.000Z</Time>
            <Position>
              <LatitudeDegrees>41.2593006156384944915771484375</LatitudeDegrees>
              <LongitudeDegrees>-5.7093782722949981689453125</LongitudeDegrees>
            </Position>
            <AltitudeMeters>819.79998779296875</AltitudeMeters>
            <DistanceMeters>NAN</DistanceMeters>
          </Trackpoint>
          <Trackpoint>
            <Time>2019-10-06T10:01:00.000Z</Time>
            <Position>
              <LatitudeDegrees>41.25926918350160121917724609375</LatitudeDegrees>
              <LongitudeDegrees>-5.70923251099884510040283203125</LongitudeDegrees>
            </Position>
            <AltitudeMeters>820.4000244140625</AltitudeMeters>
            <DistanceMeters>NAN</DistanceMeters>
          </Trackpoint>
          <Trackpoint>
            <Time>2019-10-06T10:01:09.000Z</Time>
            <Position>
              <LatitudeDegrees>41.25916692428290843963623046875</LatitudeDegrees>
              <LongitudeDegrees>-5.708612166345119476318359375</LongitudeDegrees>
            </Position>
            <AltitudeMeters>821</AltitudeMeters>
            <DistanceMeters>NAN</DistanceMeters>
          </Trackpoint>
          <Trackpoint>
            <Time>2019-10-06T10:01:14.000Z</Time>
            <Position>
              <LatitudeDegrees>41.259121410548686981201171875</LatitudeDegrees>
              <LongitudeDegrees>-5.70828703232109546661376953125</LongitudeDegrees>
            </Position>
            <AltitudeMeters>822</AltitudeMeters>
            <DistanceMeters>NAN</DistanceMeters>
          </Trackpoint>
          <Trackpoint>
            <Time>2019-10-06T10:01:16.000Z</Time>
            <Position>
              <LatitudeDegrees>41.259100623428821563720703125</LatitudeDegrees>
              <LongitudeDegrees>-5.708154179155826568603515625</LongitudeDegrees>
            </Position>
            <AltitudeMeters>822</AltitudeMeters>
            <DistanceMeters>NAN</DistanceMeters>
          </Trackpoint>
          <Trackpoint>
            <Time>2019-10-06T10:01:25.000Z</Time>
            <Position>
              <LatitudeDegrees>41.259005405008792877197265625</LatitudeDegrees>
              <LongitudeDegrees>-5.7075585611164569854736328125</LongitudeDegrees>
            </Position>
            <AltitudeMeters>822.79998779296875</AltitudeMeters>
            <DistanceMeters>NAN</DistanceMeters>
          </Trackpoint>
          <Trackpoint>
            <Time>2019-10-06T10:01:30.000Z</Time>
            <Position>
              <LatitudeDegrees>41.25894295983016490936279296875</LatitudeDegrees>
              <LongitudeDegrees>-5.707236863672733306884765625</LongitudeDegrees>
            </Position>
            <AltitudeMeters>822.79998779296875</AltitudeMeters>
            <DistanceMeters>NAN</DistanceMeters>
          </Trackpoint>
          <Trackpoint>
            <Time>2019-10-06T10:01:31.000Z</Time>
            <Position>
              <LatitudeDegrees>41.25892770476639270782470703125</LatitudeDegrees>
              <LongitudeDegrees>-5.70717559196054935455322265625</LongitudeDegrees>
            </Position>
            <AltitudeMeters>823.4000244140625</AltitudeMeters>
            <DistanceMeters>NAN</DistanceMeters>
          </Trackpoint>
          <Trackpoint>
            <Time>2019-10-06T10:01:32.000Z</Time>
            <Position>
              <LatitudeDegrees>41.25891345553100109100341796875</LatitudeDegrees>
              <LongitudeDegrees>-5.70711515843868255615234375</LongitudeDegrees>
            </Position>
            <AltitudeMeters>823.79998779296875</AltitudeMeters>
            <DistanceMeters>NAN</DistanceMeters>
          </Trackpoint>
          <Trackpoint>
            <Time>2019-10-06T10:01:39.000Z</Time>
            <Position>
              <LatitudeDegrees>41.258806921541690826416015625</LatitudeDegrees>
              <LongitudeDegrees>-5.706716515123844146728515625</LongitudeDegrees>
            </Position>
            <AltitudeMeters>824.20001220703125</AltitudeMeters>
            <DistanceMeters>NAN</DistanceMeters>
          </Trackpoint>
          <Trackpoint>
            <Time>2019-10-06T10:01:41.000Z</Time>
            <Position>
              <LatitudeDegrees>41.25877230428159236907958984375</LatitudeDegrees>
              <LongitudeDegrees>-5.7066070474684238433837890625</LongitudeDegrees>
            </Position>
            <AltitudeMeters>824.4000244140625</AltitudeMeters>
            <DistanceMeters>NAN</DistanceMeters>
          </Trackpoint>
          <Trackpoint>
            <Time>2019-10-06T10:01:46.000Z</Time>
            <Position>
              <LatitudeDegrees>41.2586843781173229217529296875</LatitudeDegrees>
              <LongitudeDegrees>-5.70633807219564914703369140625</LongitudeDegrees>
            </Position>
            <AltitudeMeters>824.79998779296875</AltitudeMeters>
            <DistanceMeters>NAN</DistanceMeters>
          </Trackpoint>
          <Trackpoint>
            <Time>2019-10-06T10:01:55.000Z</Time>
            <Position>
              <LatitudeDegrees>41.25849737785756587982177734375</LatitudeDegrees>
              <LongitudeDegrees>-5.705866925418376922607421875</LongitudeDegrees>
            </Position>
            <AltitudeMeters>825.20001220703125</AltitudeMeters>
            <DistanceMeters>NAN</DistanceMeters>
          </Trackpoint>
          <Trackpoint>
            <Time>2019-10-06T10:02:03.000Z</Time>
            <Position>
              <LatitudeDegrees>41.25830434262752532958984375</LatitudeDegrees>
              <LongitudeDegrees>-5.70546425879001617431640625</LongitudeDegrees>
            </Position>
            <AltitudeMeters>825.4000244140625</AltitudeMeters>
            <DistanceMeters>NAN</DistanceMeters>
          </Trackpoint>
          <Trackpoint>
            <Time>2019-10-06T10:02:12.000Z</Time>
            <Position>
              <LatitudeDegrees>41.25804810784757137298583984375</LatitudeDegrees>
              <LongitudeDegrees>-5.705026723444461822509765625</LongitudeDegrees>
            </Position>
            <AltitudeMeters>825.5999755859375</AltitudeMeters>
            <DistanceMeters>NAN</DistanceMeters>
          </Trackpoint>
          <Trackpoint>
            <Time>2019-10-06T10:02:20.000Z</Time>
            <Position>
              <LatitudeDegrees>41.257795058190822601318359375</LatitudeDegrees>
              <LongitudeDegrees>-5.7046495378017425537109375</LongitudeDegrees>
            </Position>
            <AltitudeMeters>826.20001220703125</AltitudeMeters>
            <DistanceMeters>NAN</DistanceMeters>
          </Trackpoint>
          <Trackpoint>
            <Time>2019-10-06T10:02:21.000Z</Time>
            <Position>
              <LatitudeDegrees>41.2577613629400730133056640625</LatitudeDegrees>
              <LongitudeDegrees>-5.70460402406752109527587890625</LongitudeDegrees>
            </Position>
            <AltitudeMeters>826.5999755859375</AltitudeMeters>
            <DistanceMeters>NAN</DistanceMeters>
          </Trackpoint>
          <Trackpoint>
            <Time>2019-10-06T10:02:22.000Z</Time>
            <Position>
              <LatitudeDegrees>41.25772607512772083282470703125</LatitudeDegrees>
              <LongitudeDegrees>-5.70456043817102909088134765625</LongitudeDegrees>
            </Position>
            <AltitudeMeters>826.4000244140625</AltitudeMeters>
            <DistanceMeters>NAN</DistanceMeters>
          </Trackpoint>
          <Trackpoint>
            <Time>2019-10-06T10:02:29.000Z</Time>
            <Position>
              <LatitudeDegrees>41.2574730254709720611572265625</LatitudeDegrees>
              <LongitudeDegrees>-5.70425751619040966033935546875</LongitudeDegrees>
            </Position>
            <AltitudeMeters>826</AltitudeMeters>
            <DistanceMeters>NAN</DistanceMeters>
          </Trackpoint>
          <Trackpoint>
            <Time>2019-10-06T10:02:32.000Z</Time>
            <Position>
              <LatitudeDegrees>41.257355175912380218505859375</LatitudeDegrees>
              <LongitudeDegrees>-5.70413396693766117095947265625</LongitudeDegrees>
            </Position>
            <AltitudeMeters>826.20001220703125</AltitudeMeters>
            <DistanceMeters>NAN</DistanceMeters>
          </Trackpoint>
          <Trackpoint>
            <Time>2019-10-06T10:02:40.000Z</Time>
            <Position>
              <LatitudeDegrees>41.25700003467500209808349609375</LatitudeDegrees>
              <LongitudeDegrees>-5.70380724035203456878662109375</LongitudeDegrees>
            </Position>
            <AltitudeMeters>825.4000244140625</AltitudeMeters>
            <DistanceMeters>NAN</DistanceMeters>
          </Trackpoint>
          <Trackpoint>
            <Time>2019-10-06T10:02:42.000Z</Time>
            <Position>
              <LatitudeDegrees>41.25690422952175140380859375</LatitudeDegrees>
              <LongitudeDegrees>-5.7037293724715709686279296875</LongitudeDegrees>
            </Position>
            <AltitudeMeters>825.79998779296875</AltitudeMeters>
            <DistanceMeters>NAN</DistanceMeters>
          </Trackpoint>
          <Trackpoint>
            <Time>2019-10-06T10:02:48.000Z</Time>
            <Position>
              <LatitudeDegrees>41.256604827940464019775390625</LatitudeDegrees>
              <LongitudeDegrees>-5.70351295173168182373046875</LongitudeDegrees>
            </Position>
            <AltitudeMeters>825.4000244140625</AltitudeMeters>
            <DistanceMeters>NAN</DistanceMeters>
          </Trackpoint>
          <Trackpoint>
            <Time>2019-10-06T10:02:53.000Z</Time>
            <Position>
              <LatitudeDegrees>41.25633266754448413848876953125</LatitudeDegrees>
              <LongitudeDegrees>-5.70335411466658115386962890625</LongitudeDegrees>
            </Position>
            <AltitudeMeters>824.79998779296875</AltitudeMeters>
            <DistanceMeters>NAN</DistanceMeters>
          </Trackpoint>
          <Trackpoint>
            <Time>2019-10-06T10:02:57.000Z</Time>
            <Position>
              <LatitudeDegrees>41.2560957111418247222900390625</LatitudeDegrees>
              <LongitudeDegrees>-5.703237354755401611328125</LongitudeDegrees>
            </Position>
            <AltitudeMeters>824.20001220703125</AltitudeMeters>
            <DistanceMeters>NAN</DistanceMeters>
          </Trackpoint>
          <Trackpoint>
            <Time>2019-10-06T10:03:02.000Z</Time>
            <Position>
              <LatitudeDegrees>41.25578105449676513671875</LatitudeDegrees>
              <LongitudeDegrees>-5.70311238057911396026611328125</LongitudeDegrees>
            </Position>
            <AltitudeMeters>823.20001220703125</AltitudeMeters>
            <DistanceMeters>NAN</DistanceMeters>
          </Trackpoint>
          <Trackpoint>
            <Time>2019-10-06T10:03:08.000Z</Time>
            <Position>
              <LatitudeDegrees>41.255381070077419281005859375</LatitudeDegrees>
              <LongitudeDegrees>-5.70299654267728328704833984375</LongitudeDegrees>
            </Position>
            <AltitudeMeters>822.20001220703125</AltitudeMeters>
            <DistanceMeters>NAN</DistanceMeters>
          </Trackpoint>
          <Trackpoint>
            <Time>2019-10-06T10:03:10.000Z</Time>
            <Position>
              <LatitudeDegrees>41.25524218194186687469482421875</LatitudeDegrees>
              <LongitudeDegrees>-5.702969133853912353515625</LongitudeDegrees>
            </Position>
            <AltitudeMeters>822</AltitudeMeters>
            <DistanceMeters>NAN</DistanceMeters>
          </Trackpoint>
          <Trackpoint>
            <Time>2019-10-06T10:03:14.000Z</Time>
            <Position>
              <LatitudeDegrees>41.254959963262081146240234375</LatitudeDegrees>
              <LongitudeDegrees>-5.7029351033270359039306640625</LongitudeDegrees>
            </Position>
            <AltitudeMeters>821.5999755859375</AltitudeMeters>
            <DistanceMeters>NAN</DistanceMeters>
          </Trackpoint>
          <Trackpoint>
            <Time>2019-10-06T10:03:18.000Z</Time>
            <Position>
              <LatitudeDegrees>41.25466994941234588623046875</LatitudeDegrees>
              <LongitudeDegrees>-5.7029146514832973480224609375</LongitudeDegrees>
            </Position>
            <AltitudeMeters>820.79998779296875</AltitudeMeters>
            <DistanceMeters>NAN</DistanceMeters>
          </Trackpoint>
          <Trackpoint>
            <Time>2019-10-06T10:03:19.000Z</Time>
            <Position>
              <LatitudeDegrees>41.2545966915786266326904296875</LatitudeDegrees>
              <LongitudeDegrees>-5.7029129751026630401611328125</LongitudeDegrees>
            </Position>
            <AltitudeMeters>820.79998779296875</AltitudeMeters>
            <DistanceMeters>NAN</DistanceMeters>
          </Trackpoint>
          <Trackpoint>
            <Time>2019-10-06T10:03:24.000Z</Time>
            <Position>
              <LatitudeDegrees>41.25422294251620769500732421875</LatitudeDegrees>
              <LongitudeDegrees>-5.702936947345733642578125</LongitudeDegrees>
            </Position>
            <AltitudeMeters>819.5999755859375</AltitudeMeters>
            <DistanceMeters>NAN</DistanceMeters>
          </Trackpoint>
          <Trackpoint>
            <Time>2019-10-06T10:03:27.000Z</Time>
            <Position>
              <LatitudeDegrees>41.25400316901504993438720703125</LatitudeDegrees>
              <LongitudeDegrees>-5.70296821184456348419189453125</LongitudeDegrees>
            </Position>
            <AltitudeMeters>819.4000244140625</AltitudeMeters>
            <DistanceMeters>NAN</DistanceMeters>
          </Trackpoint>
          <Trackpoint>
            <Time>2019-10-06T10:03:30.000Z</Time>
            <Position>
              <LatitudeDegrees>41.253784485161304473876953125</LatitudeDegrees>
              <LongitudeDegrees>-5.7030279748141765594482421875</LongitudeDegrees>
            </Position>
            <AltitudeMeters>819</AltitudeMeters>
            <DistanceMeters>NAN</DistanceMeters>
          </Trackpoint>
          <Trackpoint>
            <Time>2019-10-06T10:03:32.000Z</Time>
            <Position>
              <LatitudeDegrees>41.253638304769992828369140625</LatitudeDegrees>
              <LongitudeDegrees>-5.70307038724422454833984375</LongitudeDegrees>
            </Position>
            <AltitudeMeters>818.4000244140625</AltitudeMeters>
            <DistanceMeters>NAN</DistanceMeters>
          </Trackpoint>
          <Trackpoint>
            <Time>2019-10-06T10:03:33.000Z</Time>
            <Position>
              <LatitudeDegrees>41.25356487929821014404296875</LatitudeDegrees>
              <LongitudeDegrees>-5.7030926831066608428955078125</LongitudeDegrees>
            </Position>
            <AltitudeMeters>818.5999755859375</AltitudeMeters>
            <DistanceMeters>NAN</DistanceMeters>
          </Trackpoint>
          <Trackpoint>
            <Time>2019-10-06T10:03:38.000Z</Time>
            <Position>
              <LatitudeDegrees>41.2531928904354572296142578125</LatitudeDegrees>
              <LongitudeDegrees>-5.70320575498044490814208984375</LongitudeDegrees>
            </Position>
            <AltitudeMeters>817.4000244140625</AltitudeMeters>
            <DistanceMeters>NAN</DistanceMeters>
          </Trackpoint>
          <Trackpoint>
            <Time>2019-10-06T10:03:40.000Z</Time>
            <Position>
              <LatitudeDegrees>41.25304226763546466827392578125</LatitudeDegrees>
              <LongitudeDegrees>-5.703258812427520751953125</LongitudeDegrees>
            </Position>
            <AltitudeMeters>816.79998779296875</AltitudeMeters>
            <DistanceMeters>NAN</DistanceMeters>
          </Trackpoint>
          <Trackpoint>
            <Time>2019-10-06T10:03:44.000Z</Time>
            <Position>
              <LatitudeDegrees>41.25273750163614749908447265625</LatitudeDegrees>
              <LongitudeDegrees>-5.703372471034526824951171875</LongitudeDegrees>
            </Position>
            <AltitudeMeters>816.20001220703125</AltitudeMeters>
            <DistanceMeters>NAN</DistanceMeters>
          </Trackpoint>
          <Trackpoint>
            <Time>2019-10-06T10:03:49.000Z</Time>
            <Position>
              <LatitudeDegrees>41.2523526884615421295166015625</LatitudeDegrees>
              <LongitudeDegrees>-5.70351295173168182373046875</LongitudeDegrees>
            </Position>
            <AltitudeMeters>816</AltitudeMeters>
            <DistanceMeters>NAN</DistanceMeters>
          </Trackpoint>
          <Trackpoint>
            <Time>2019-10-06T10:03:51.000Z</Time>
            <Position>
              <LatitudeDegrees>41.25219888053834438323974609375</LatitudeDegrees>
              <LongitudeDegrees>-5.70357640273869037628173828125</LongitudeDegrees>
            </Position>
            <AltitudeMeters>815</AltitudeMeters>
            <DistanceMeters>NAN</DistanceMeters>
          </Trackpoint>
          <Trackpoint>
            <Time>2019-10-06T10:03:54.000Z</Time>
            <Position>
              <LatitudeDegrees>41.25196888111531734466552734375</LatitudeDegrees>
              <LongitudeDegrees>-5.70368184708058834075927734375</LongitudeDegrees>
            </Position>
            <AltitudeMeters>815</AltitudeMeters>
            <DistanceMeters>NAN</DistanceMeters>
          </Trackpoint>
          <Trackpoint>
            <Time>2019-10-06T10:03:56.000Z</Time>
            <Position>
              <LatitudeDegrees>41.25181415118277072906494140625</LatitudeDegrees>
              <LongitudeDegrees>-5.70375166833400726318359375</LongitudeDegrees>
            </Position>
            <AltitudeMeters>814.79998779296875</AltitudeMeters>
            <DistanceMeters>NAN</DistanceMeters>
          </Trackpoint>
          <Trackpoint>
            <Time>2019-10-06T10:03:58.000Z</Time>
            <Position>
              <LatitudeDegrees>41.251658499240875244140625</LatitudeDegrees>
              <LongitudeDegrees>-5.70382484234869480133056640625</LongitudeDegrees>
            </Position>
            <AltitudeMeters>814</AltitudeMeters>
            <DistanceMeters>NAN</DistanceMeters>
          </Trackpoint>
          <Trackpoint>
            <Time>2019-10-06T10:04:02.000Z</Time>
            <Position>
              <LatitudeDegrees>41.25135046429932117462158203125</LatitudeDegrees>
              <LongitudeDegrees>-5.70398636162281036376953125</LongitudeDegrees>
            </Position>
            <AltitudeMeters>813.20001220703125</AltitudeMeters>
            <DistanceMeters>NAN</DistanceMeters>
          </Trackpoint>
          <Trackpoint>
            <Time>2019-10-06T10:04:03.000Z</Time>
            <Position>
              <LatitudeDegrees>41.251273266971111297607421875</LatitudeDegrees>
              <LongitudeDegrees>-5.704027600586414337158203125</LongitudeDegrees>
            </Position>
            <AltitudeMeters>812.79998779296875</AltitudeMeters>
            <DistanceMeters>NAN</DistanceMeters>
          </Trackpoint>
          <Trackpoint>
            <Time>2019-10-06T10:04:05.000Z</Time>
            <Position>
              <LatitudeDegrees>41.2511195428669452667236328125</LatitudeDegrees>
              <LongitudeDegrees>-5.70411167107522487640380859375</LongitudeDegrees>
            </Position>
            <AltitudeMeters>812.5999755859375</AltitudeMeters>
            <DistanceMeters>NAN</DistanceMeters>
          </Trackpoint>
          <Trackpoint>
            <Time>2019-10-06T10:04:09.000Z</Time>
            <Position>
              <LatitudeDegrees>41.250821650028228759765625</LatitudeDegrees>
              <LongitudeDegrees>-5.70428819395601749420166015625</LongitudeDegrees>
            </Position>
            <AltitudeMeters>812.4000244140625</AltitudeMeters>
            <DistanceMeters>NAN</DistanceMeters>
          </Trackpoint>
          <Trackpoint>
            <Time>2019-10-06T10:04:10.000Z</Time>
            <Position>
              <LatitudeDegrees>41.25074763782322406768798828125</LatitudeDegrees>
              <LongitudeDegrees>-5.70433328859508037567138671875</LongitudeDegrees>
            </Position>
            <AltitudeMeters>812</AltitudeMeters>
            <DistanceMeters>NAN</DistanceMeters>
          </Trackpoint>
          <Trackpoint>
            <Time>2019-10-06T10:04:11.000Z</Time>
            <Position>
              <LatitudeDegrees>41.25067421235144138336181640625</LatitudeDegrees>
              <LongitudeDegrees>-5.7043771259486675262451171875</LongitudeDegrees>
            </Position>
            <AltitudeMeters>812</AltitudeMeters>
            <DistanceMeters>NAN</DistanceMeters>
          </Trackpoint>
          <Trackpoint>
            <Time>2019-10-06T10:04:13.000Z</Time>
            <Position>
              <LatitudeDegrees>41.25052887015044689178466796875</LatitudeDegrees>
              <LongitudeDegrees>-5.70446656085550785064697265625</LongitudeDegrees>
            </Position>
            <AltitudeMeters>811.79998779296875</AltitudeMeters>
            <DistanceMeters>NAN</DistanceMeters>
          </Trackpoint>
          <Trackpoint>
            <Time>2019-10-06T10:04:15.000Z</Time>
            <Position>
              <LatitudeDegrees>41.25038805417716503143310546875</LatitudeDegrees>
              <LongitudeDegrees>-5.704558007419109344482421875</LongitudeDegrees>
            </Position>
            <AltitudeMeters>811.4000244140625</AltitudeMeters>
            <DistanceMeters>NAN</DistanceMeters>
          </Trackpoint>
          <Trackpoint>
            <Time>2019-10-06T10:04:16.000Z</Time>
            <Position>
              <LatitudeDegrees>41.25032066367566585540771484375</LatitudeDegrees>
              <LongitudeDegrees>-5.7046064548194408416748046875</LongitudeDegrees>
            </Position>
            <AltitudeMeters>811.4000244140625</AltitudeMeters>
            <DistanceMeters>NAN</DistanceMeters>
          </Trackpoint>
          <Trackpoint>
            <Time>2019-10-06T10:04:18.000Z</Time>
            <Position>
              <LatitudeDegrees>41.25018537975847721099853515625</LatitudeDegrees>
              <LongitudeDegrees>-5.70470158942043781280517578125</LongitudeDegrees>
            </Position>
            <AltitudeMeters>811.4000244140625</AltitudeMeters>
            <DistanceMeters>NAN</DistanceMeters>
          </Trackpoint>
          <Trackpoint>
            <Time>2019-10-06T10:04:23.000Z</Time>
            <Position>
              <LatitudeDegrees>41.2498629279434680938720703125</LatitudeDegrees>
              <LongitudeDegrees>-5.70492119528353214263916015625</LongitudeDegrees>
            </Position>
            <AltitudeMeters>811.79998779296875</AltitudeMeters>
            <DistanceMeters>NAN</DistanceMeters>
          </Trackpoint>
          <Trackpoint>
            <Time>2019-10-06T10:04:30.000Z</Time>
            <Position>
              <LatitudeDegrees>41.24945749528706073760986328125</LatitudeDegrees>
              <LongitudeDegrees>-5.7052260451018810272216796875</LongitudeDegrees>
            </Position>
            <AltitudeMeters>812.20001220703125</AltitudeMeters>
            <DistanceMeters>NAN</DistanceMeters>
          </Trackpoint>
          <Trackpoint>
            <Time>2019-10-06T10:04:32.000Z</Time>
            <Position>
              <LatitudeDegrees>41.24935003928840160369873046875</LatitudeDegrees>
              <LongitudeDegrees>-5.705310367047786712646484375</LongitudeDegrees>
            </Position>
            <AltitudeMeters>812.79998779296875</AltitudeMeters>
            <DistanceMeters>NAN</DistanceMeters>
          </Trackpoint>
          <Trackpoint>
            <Time>2019-10-06T10:04:33.000Z</Time>
            <Position>
              <LatitudeDegrees>41.24929773621261119842529296875</LatitudeDegrees>
              <LongitudeDegrees>-5.705350935459136962890625</LongitudeDegrees>
            </Position>
            <AltitudeMeters>812.79998779296875</AltitudeMeters>
            <DistanceMeters>NAN</DistanceMeters>
          </Trackpoint>
          <Trackpoint>
            <Time>2019-10-06T10:04:37.000Z</Time>
            <Position>
              <LatitudeDegrees>41.24910294078290462493896484375</LatitudeDegrees>
              <LongitudeDegrees>-5.70550382137298583984375</LongitudeDegrees>
            </Position>
            <AltitudeMeters>813</AltitudeMeters>
            <DistanceMeters>NAN</DistanceMeters>
          </Trackpoint>
          <Trackpoint>
            <Time>2019-10-06T10:04:38.000Z</Time>
            <Position>
              <LatitudeDegrees>41.249056756496429443359375</LatitudeDegrees>
              <LongitudeDegrees>-5.70554095320403575897216796875</LongitudeDegrees>
            </Position>
            <AltitudeMeters>813.4000244140625</AltitudeMeters>
            <DistanceMeters>NAN</DistanceMeters>
          </Trackpoint>
          <Trackpoint>
            <Time>2019-10-06T10:04:41.000Z</Time>
            <Position>
              <LatitudeDegrees>41.24891635961830615997314453125</LatitudeDegrees>
              <LongitudeDegrees>-5.70565729402005672454833984375</LongitudeDegrees>
            </Position>
            <AltitudeMeters>813.79998779296875</AltitudeMeters>
            <DistanceMeters>NAN</DistanceMeters>
          </Trackpoint>
          <Trackpoint>
            <Time>2019-10-06T10:04:42.000Z</Time>
            <Position>
              <LatitudeDegrees>41.2488852627575397491455078125</LatitudeDegrees>
              <LongitudeDegrees>-5.7056833617389202117919921875</LongitudeDegrees>
            </Position>
            <AltitudeMeters>814</AltitudeMeters>
            <DistanceMeters>NAN</DistanceMeters>
          </Trackpoint>
          <Trackpoint>
            <Time>2019-10-06T10:04:46.000Z</Time>
            <Position>
              <LatitudeDegrees>41.24872592277824878692626953125</LatitudeDegrees>
              <LongitudeDegrees>-5.70580867119133472442626953125</LongitudeDegrees>
            </Position>
            <AltitudeMeters>814.5999755859375</AltitudeMeters>
            <DistanceMeters>NAN</DistanceMeters>
          </Trackpoint>
          <Trackpoint>
            <Time>2019-10-06T10:04:50.000Z</Time>
            <Position>
              <LatitudeDegrees>41.248572953045368194580078125</LatitudeDegrees>
              <LongitudeDegrees>-5.705928616225719451904296875</LongitudeDegrees>
            </Position>
            <AltitudeMeters>815.20001220703125</AltitudeMeters>
            <DistanceMeters>NAN</DistanceMeters>
          </Trackpoint>
          <Trackpoint>
            <Time>2019-10-06T10:04:55.000Z</Time>
            <Position>
              <LatitudeDegrees>41.248381175100803375244140625</LatitudeDegrees>
              <LongitudeDegrees>-5.70607312023639678955078125</LongitudeDegrees>
            </Position>
            <AltitudeMeters>815.79998779296875</AltitudeMeters>
            <DistanceMeters>NAN</DistanceMeters>
          </Trackpoint>
          <Trackpoint>
            <Time>2019-10-06T10:04:58.000Z</Time>
            <Position>
              <LatitudeDegrees>41.24826475046575069427490234375</LatitudeDegrees>
              <LongitudeDegrees>-5.70615769363939762115478515625</LongitudeDegrees>
            </Position>
            <AltitudeMeters>816.20001220703125</AltitudeMeters>
            <DistanceMeters>NAN</DistanceMeters>
          </Trackpoint>
          <Trackpoint>
            <Time>2019-10-06T10:05:04.000Z</Time>
            <Position>
              <LatitudeDegrees>41.24802804552018642425537109375</LatitudeDegrees>
              <LongitudeDegrees>-5.70631720125675201416015625</LongitudeDegrees>
            </Position>
            <AltitudeMeters>817.20001220703125</AltitudeMeters>
            <DistanceMeters>NAN</DistanceMeters>
          </Trackpoint>
          <Trackpoint>
            <Time>2019-10-06T10:05:05.000Z</Time>
            <Position>
              <LatitudeDegrees>41.24798781238496303558349609375</LatitudeDegrees>
              <LongitudeDegrees>-5.70634310133755207061767578125</LongitudeDegrees>
            </Position>
            <AltitudeMeters>817.4000244140625</AltitudeMeters>
            <DistanceMeters>NAN</DistanceMeters>
          </Trackpoint>
          <Trackpoint>
            <Time>2019-10-06T10:05:16.000Z</Time>
            <Position>
              <LatitudeDegrees>41.247538290917873382568359375</LatitudeDegrees>
              <LongitudeDegrees>-5.70661199279129505157470703125</LongitudeDegrees>
            </Position>
            <AltitudeMeters>818</AltitudeMeters>
            <DistanceMeters>NAN</DistanceMeters>
          </Trackpoint>
          <Trackpoint>
            <Time>2019-10-06T10:05:18.000Z</Time>
            <Position>
              <LatitudeDegrees>41.24745614826679229736328125</LatitudeDegrees>
              <LongitudeDegrees>-5.7066613622009754180908203125</LongitudeDegrees>
            </Position>
            <AltitudeMeters>818.4000244140625</AltitudeMeters>
            <DistanceMeters>NAN</DistanceMeters>
          </Trackpoint>
          <Trackpoint>
            <Time>2019-10-06T10:05:24.000Z</Time>
            <Position>
              <LatitudeDegrees>41.247201673686504364013671875</LatitudeDegrees>
              <LongitudeDegrees>-5.7067877613008022308349609375</LongitudeDegrees>
            </Position>
            <AltitudeMeters>819</AltitudeMeters>
            <DistanceMeters>NAN</DistanceMeters>
          </Trackpoint>
          <Trackpoint>
            <Time>2019-10-06T10:05:31.000Z</Time>
            <Position>
              <LatitudeDegrees>41.2468989193439483642578125</LatitudeDegrees>
              <LongitudeDegrees>-5.70691893808543682098388671875</LongitudeDegrees>
            </Position>
            <AltitudeMeters>819.5999755859375</AltitudeMeters>
            <DistanceMeters>NAN</DistanceMeters>
          </Trackpoint>
          <Trackpoint>
            <Time>2019-10-06T10:05:34.000Z</Time>
            <Position>
              <LatitudeDegrees>41.24676723964512348175048828125</LatitudeDegrees>
              <LongitudeDegrees>-5.7069641165435314178466796875</LongitudeDegrees>
            </Position>
            <AltitudeMeters>819.79998779296875</AltitudeMeters>
            <DistanceMeters>NAN</DistanceMeters>
          </Trackpoint>
          <Trackpoint>
            <Time>2019-10-06T10:05:43.000Z</Time>
            <Position>
              <LatitudeDegrees>41.24637329019606113433837890625</LatitudeDegrees>
              <LongitudeDegrees>-5.707111470401287078857421875</LongitudeDegrees>
            </Position>
            <AltitudeMeters>820.20001220703125</AltitudeMeters>
            <DistanceMeters>NAN</DistanceMeters>
          </Trackpoint>
          <Trackpoint>
            <Time>2019-10-06T10:05:48.000Z</Time>
            <Position>
              <LatitudeDegrees>41.24614882282912731170654296875</LatitudeDegrees>
              <LongitudeDegrees>-5.70717575959861278533935546875</LongitudeDegrees>
            </Position>
            <AltitudeMeters>820.4000244140625</AltitudeMeters>
            <DistanceMeters>NAN</DistanceMeters>
          </Trackpoint>
          <Trackpoint>
            <Time>2019-10-06T10:05:50.000Z</Time>
            <Position>
              <LatitudeDegrees>41.24605997465550899505615234375</LatitudeDegrees>
              <LongitudeDegrees>-5.70719964802265167236328125</LongitudeDegrees>
            </Position>
            <AltitudeMeters>820.5999755859375</AltitudeMeters>
            <DistanceMeters>NAN</DistanceMeters>
          </Trackpoint>
          <Trackpoint>
            <Time>2019-10-06T10:05:53.000Z</Time>
            <Position>
              <LatitudeDegrees>41.24592326581478118896484375</LatitudeDegrees>
              <LongitudeDegrees>-5.70723275654017925262451171875</LongitudeDegrees>
            </Position>
            <AltitudeMeters>820.20001220703125</AltitudeMeters>
            <DistanceMeters>NAN</DistanceMeters>
          </Trackpoint>
          <Trackpoint>
            <Time>2019-10-06T10:05:57.000Z</Time>
            <Position>
              <LatitudeDegrees>41.2457417137920856475830078125</LatitudeDegrees>
              <LongitudeDegrees>-5.70730098523199558258056640625</LongitudeDegrees>
            </Position>
            <AltitudeMeters>820.5999755859375</AltitudeMeters>
            <DistanceMeters>NAN</DistanceMeters>
          </Trackpoint>
          <Trackpoint>
            <Time>2019-10-06T10:05:59.000Z</Time>
            <Position>
              <LatitudeDegrees>41.24565026722848415374755859375</LatitudeDegrees>
              <LongitudeDegrees>-5.7073185034096240997314453125</LongitudeDegrees>
            </Position>
            <AltitudeMeters>820.79998779296875</AltitudeMeters>
            <DistanceMeters>NAN</DistanceMeters>
          </Trackpoint>
          <Trackpoint>
            <Time>2019-10-06T10:06:08.000Z</Time>
            <Position>
              <LatitudeDegrees>41.24522195197641849517822265625</LatitudeDegrees>
              <LongitudeDegrees>-5.7073547132313251495361328125</LongitudeDegrees>
            </Position>
            <AltitudeMeters>820.79998779296875</AltitudeMeters>
            <DistanceMeters>NAN</DistanceMeters>
          </Trackpoint>
          <Trackpoint>
            <Time>2019-10-06T10:06:15.000Z</Time>
            <Position>
              <LatitudeDegrees>41.2448813952505588531494140625</LatitudeDegrees>
              <LongitudeDegrees>-5.70736728608608245849609375</LongitudeDegrees>
            </Position>
            <AltitudeMeters>821</AltitudeMeters>
            <DistanceMeters>NAN</DistanceMeters>
          </Trackpoint>
          <Trackpoint>
            <Time>2019-10-06T10:06:20.000Z</Time>
            <Position>
              <LatitudeDegrees>41.24462063424289226531982421875</LatitudeDegrees>
              <LongitudeDegrees>-5.70736133493483066558837890625</LongitudeDegrees>
            </Position>
            <AltitudeMeters>821.20001220703125</AltitudeMeters>
            <DistanceMeters>NAN</DistanceMeters>
          </Trackpoint>
          <Trackpoint>
            <Time>2019-10-06T10:06:23.000Z</Time>
            <Position>
              <LatitudeDegrees>41.2444592826068401336669921875</LatitudeDegrees>
              <LongitudeDegrees>-5.7073614187538623809814453125</LongitudeDegrees>
            </Position>
            <AltitudeMeters>821</AltitudeMeters>
            <DistanceMeters>NAN</DistanceMeters>
          </Trackpoint>
          <Trackpoint>
            <Time>2019-10-06T10:06:30.000Z</Time>
            <Position>
              <LatitudeDegrees>41.24407363124191761016845703125</LatitudeDegrees>
              <LongitudeDegrees>-5.70732663385570049285888671875</LongitudeDegrees>
            </Position>
            <AltitudeMeters>821</AltitudeMeters>
            <DistanceMeters>NAN</DistanceMeters>
          </Trackpoint>
          <Trackpoint>
            <Time>2019-10-06T10:06:31.000Z</Time>
            <Position>
              <LatitudeDegrees>41.2440170533955097198486328125</LatitudeDegrees>
              <LongitudeDegrees>-5.7073188386857509613037109375</LongitudeDegrees>
            </Position>
            <AltitudeMeters>821</AltitudeMeters>
            <DistanceMeters>NAN</DistanceMeters>
          </Trackpoint>
          <Trackpoint>
            <Time>2019-10-06T10:06:38.000Z</Time>
            <Position>
              <LatitudeDegrees>41.243618242442607879638671875</LatitudeDegrees>
              <LongitudeDegrees>-5.70724583230912685394287109375</LongitudeDegrees>
            </Position>
            <AltitudeMeters>820.5999755859375</AltitudeMeters>
            <DistanceMeters>NAN</DistanceMeters>
          </Trackpoint>
          <Trackpoint>
            <Time>2019-10-06T10:06:41.000Z</Time>
            <Position>
              <LatitudeDegrees>41.24344498850405216217041015625</LatitudeDegrees>
              <LongitudeDegrees>-5.7072105444967746734619140625</LongitudeDegrees>
            </Position>
            <AltitudeMeters>820.5999755859375</AltitudeMeters>
            <DistanceMeters>NAN</DistanceMeters>
          </Trackpoint>
          <Trackpoint>
            <Time>2019-10-06T10:06:48.000Z</Time>
            <Position>
              <LatitudeDegrees>41.24303326942026615142822265625</LatitudeDegrees>
              <LongitudeDegrees>-5.7071216963231563568115234375</LongitudeDegrees>
            </Position>
            <AltitudeMeters>820</AltitudeMeters>
            <DistanceMeters>NAN</DistanceMeters>
          </Trackpoint>
          <Trackpoint>
            <Time>2019-10-06T10:06:57.000Z</Time>
            <Position>
              <LatitudeDegrees>41.24246447347104549407958984375</LatitudeDegrees>
              <LongitudeDegrees>-5.7069875858724117279052734375</LongitudeDegrees>
            </Position>
            <AltitudeMeters>819.5999755859375</AltitudeMeters>
            <DistanceMeters>NAN</DistanceMeters>
          </Trackpoint>
          <Trackpoint>
            <Time>2019-10-06T10:06:59.000Z</Time>
            <Position>
              <LatitudeDegrees>41.2423353083431720733642578125</LatitudeDegrees>
              <LongitudeDegrees>-5.7069587521255016326904296875</LongitudeDegrees>
            </Position>
            <AltitudeMeters>819.4000244140625</AltitudeMeters>
            <DistanceMeters>NAN</DistanceMeters>
          </Trackpoint>
          <Trackpoint>
            <Time>2019-10-06T10:07:08.000Z</Time>
            <Position>
              <LatitudeDegrees>41.24177380464971065521240234375</LatitudeDegrees>
              <LongitudeDegrees>-5.70682791061699390411376953125</LongitudeDegrees>
            </Position>
            <AltitudeMeters>820</AltitudeMeters>
            <DistanceMeters>NAN</DistanceMeters>
          </Trackpoint>
          <Trackpoint>
            <Time>2019-10-06T10:07:09.000Z</Time>
            <Position>
              <LatitudeDegrees>41.24171362258493900299072265625</LatitudeDegrees>
              <LongitudeDegrees>-5.70681340992450714111328125</LongitudeDegrees>
            </Position>
            <AltitudeMeters>819.79998779296875</AltitudeMeters>
            <DistanceMeters>NAN</DistanceMeters>
          </Trackpoint>
          <Trackpoint>
            <Time>2019-10-06T10:07:16.000Z</Time>
            <Position>
              <LatitudeDegrees>41.24130995012819766998291015625</LatitudeDegrees>
              <LongitudeDegrees>-5.70669941604137420654296875</LongitudeDegrees>
            </Position>
            <AltitudeMeters>819.5999755859375</AltitudeMeters>
            <DistanceMeters>NAN</DistanceMeters>
          </Trackpoint>
          <Trackpoint>
            <Time>2019-10-06T10:07:21.000Z</Time>
            <Position>
              <LatitudeDegrees>41.2410649470984935760498046875</LatitudeDegrees>
              <LongitudeDegrees>-5.7065979950129985809326171875</LongitudeDegrees>
            </Position>
            <AltitudeMeters>820.79998779296875</AltitudeMeters>
            <DistanceMeters>NAN</DistanceMeters>
          </Trackpoint>
          <Trackpoint>
            <Time>2019-10-06T10:07:22.000Z</Time>
            <Position>
              <LatitudeDegrees>41.241020858287811279296875</LatitudeDegrees>
              <LongitudeDegrees>-5.70658047683537006378173828125</LongitudeDegrees>
            </Position>
            <AltitudeMeters>821</AltitudeMeters>
            <DistanceMeters>NAN</DistanceMeters>
          </Trackpoint>
          <Trackpoint>
            <Time>2019-10-06T10:07:28.000Z</Time>
            <Position>
              <LatitudeDegrees>41.2407756038010120391845703125</LatitudeDegrees>
              <LongitudeDegrees>-5.70645843632519245147705078125</LongitudeDegrees>
            </Position>
            <AltitudeMeters>822</AltitudeMeters>
            <DistanceMeters>NAN</DistanceMeters>
          </Trackpoint>
          <Trackpoint>
            <Time>2019-10-06T10:07:29.000Z</Time>
            <Position>
              <LatitudeDegrees>41.24073863960802555084228515625</LatitudeDegrees>
              <LongitudeDegrees>-5.70644033141434192657470703125</LongitudeDegrees>
            </Position>
            <AltitudeMeters>822.4000244140625</AltitudeMeters>
            <DistanceMeters>NAN</DistanceMeters>
          </Trackpoint>
          <Trackpoint>
            <Time>2019-10-06T10:07:35.000Z</Time>
            <Position>
              <LatitudeDegrees>41.24052640981972217559814453125</LatitudeDegrees>
              <LongitudeDegrees>-5.7063197158277034759521484375</LongitudeDegrees>
            </Position>
            <AltitudeMeters>823.20001220703125</AltitudeMeters>
            <DistanceMeters>NAN</DistanceMeters>
          </Trackpoint>
          <Trackpoint>
            <Time>2019-10-06T10:07:39.000Z</Time>
            <Position>
              <LatitudeDegrees>41.2403920479118824005126953125</LatitudeDegrees>
              <LongitudeDegrees>-5.7062320411205291748046875</LongitudeDegrees>
            </Position>
            <AltitudeMeters>823.79998779296875</AltitudeMeters>
            <DistanceMeters>NAN</DistanceMeters>
          </Trackpoint>
          <Trackpoint>
            <Time>2019-10-06T10:07:43.000Z</Time>
            <Position>
              <LatitudeDegrees>41.2402606196701526641845703125</LatitudeDegrees>
              <LongitudeDegrees>-5.7061381638050079345703125</LongitudeDegrees>
            </Position>
            <AltitudeMeters>824.79998779296875</AltitudeMeters>
            <DistanceMeters>NAN</DistanceMeters>
          </Trackpoint>
          <Trackpoint>
            <Time>2019-10-06T10:07:49.000Z</Time>
            <Position>
              <LatitudeDegrees>41.24007496051490306854248046875</LatitudeDegrees>
              <LongitudeDegrees>-5.70599156431853771209716796875</LongitudeDegrees>
            </Position>
            <AltitudeMeters>825</AltitudeMeters>
            <DistanceMeters>NAN</DistanceMeters>
          </Trackpoint>
          <Trackpoint>
            <Time>2019-10-06T10:07:51.000Z</Time>
            <Position>
              <LatitudeDegrees>41.24001427553594112396240234375</LatitudeDegrees>
              <LongitudeDegrees>-5.705943368375301361083984375</LongitudeDegrees>
            </Position>
            <AltitudeMeters>825.79998779296875</AltitudeMeters>
            <DistanceMeters>NAN</DistanceMeters>
          </Trackpoint>
          <Trackpoint>
            <Time>2019-10-06T10:07:57.000Z</Time>
            <Position>
              <LatitudeDegrees>41.239826940000057220458984375</LatitudeDegrees>
              <LongitudeDegrees>-5.705777071416378021240234375</LongitudeDegrees>
            </Position>
            <AltitudeMeters>826.20001220703125</AltitudeMeters>
            <DistanceMeters>NAN</DistanceMeters>
          </Trackpoint>
          <Trackpoint>
            <Time>2019-10-06T10:08:02.000Z</Time>
            <Position>
              <LatitudeDegrees>41.23967774212360382080078125</LatitudeDegrees>
              <LongitudeDegrees>-5.7056334055960178375244140625</LongitudeDegrees>
            </Position>
            <AltitudeMeters>826.79998779296875</AltitudeMeters>
            <DistanceMeters>NAN</DistanceMeters>
          </Trackpoint>
          <Trackpoint>
            <Time>2019-10-06T10:08:06.000Z</Time>
            <Position>
              <LatitudeDegrees>41.23955645598471164703369140625</LatitudeDegrees>
              <LongitudeDegrees>-5.7055190764367580413818359375</LongitudeDegrees>
            </Position>
            <AltitudeMeters>827.4000244140625</AltitudeMeters>
            <DistanceMeters>NAN</DistanceMeters>
          </Trackpoint>
          <Trackpoint>
            <Time>2019-10-06T10:08:07.000Z</Time>
            <Position>
              <LatitudeDegrees>41.23952628113329410552978515625</LatitudeDegrees>
              <LongitudeDegrees>-5.7054949365556240081787109375</LongitudeDegrees>
            </Position>
            <AltitudeMeters>827.5999755859375</AltitudeMeters>
            <DistanceMeters>NAN</DistanceMeters>
          </Trackpoint>
          <Trackpoint>
            <Time>2019-10-06T10:08:09.000Z</Time>
            <Position>
              <LatitudeDegrees>41.23946928419172763824462890625</LatitudeDegrees>
              <LongitudeDegrees>-5.705441124737262725830078125</LongitudeDegrees>
            </Position>
            <AltitudeMeters>827.79998779296875</AltitudeMeters>
            <DistanceMeters>NAN</DistanceMeters>
          </Trackpoint>
          <Trackpoint>
            <Time>2019-10-06T10:08:16.000Z</Time>
            <Position>
              <LatitudeDegrees>41.239266693592071533203125</LatitudeDegrees>
              <LongitudeDegrees>-5.705251358449459075927734375</LongitudeDegrees>
            </Position>
            <AltitudeMeters>828.79998779296875</AltitudeMeters>
            <DistanceMeters>NAN</DistanceMeters>
          </Trackpoint>
          <Trackpoint>
            <Time>2019-10-06T10:08:18.000Z</Time>
            <Position>
              <LatitudeDegrees>41.2392090260982513427734375</LatitudeDegrees>
              <LongitudeDegrees>-5.70519578643143177032470703125</LongitudeDegrees>
            </Position>
            <AltitudeMeters>829</AltitudeMeters>
            <DistanceMeters>NAN</DistanceMeters>
          </Trackpoint>
          <Trackpoint>
            <Time>2019-10-06T10:08:26.000Z</Time>
            <Position>
              <LatitudeDegrees>41.23897039331495761871337890625</LatitudeDegrees>
              <LongitudeDegrees>-5.70498908869922161102294921875</LongitudeDegrees>
            </Position>
            <AltitudeMeters>829.79998779296875</AltitudeMeters>
            <DistanceMeters>NAN</DistanceMeters>
          </Trackpoint>
          <Trackpoint>
            <Time>2019-10-06T10:08:28.000Z</Time>
            <Position>
              <LatitudeDegrees>41.23890928924083709716796875</LatitudeDegrees>
              <LongitudeDegrees>-5.70493829436600208282470703125</LongitudeDegrees>
            </Position>
            <AltitudeMeters>830</AltitudeMeters>
            <DistanceMeters>NAN</DistanceMeters>
          </Trackpoint>
          <Trackpoint>
            <Time>2019-10-06T10:08:33.000Z</Time>
            <Position>
              <LatitudeDegrees>41.2387532182037830352783203125</LatitudeDegrees>
              <LongitudeDegrees>-5.70483016781508922576904296875</LongitudeDegrees>
            </Position>
            <AltitudeMeters>830.79998779296875</AltitudeMeters>
            <DistanceMeters>NAN</DistanceMeters>
          </Trackpoint>
          <Trackpoint>
            <Time>2019-10-06T10:08:36.000Z</Time>
            <Position>
              <LatitudeDegrees>41.2386576645076274871826171875</LatitudeDegrees>
              <LongitudeDegrees>-5.70475925691425800323486328125</LongitudeDegrees>
            </Position>
            <AltitudeMeters>831.4000244140625</AltitudeMeters>
            <DistanceMeters>NAN</DistanceMeters>
          </Trackpoint>
          <Trackpoint>
            <Time>2019-10-06T10:08:40.000Z</Time>
            <Position>
              <LatitudeDegrees>41.23852933757007122039794921875</LatitudeDegrees>
              <LongitudeDegrees>-5.70467828772962093353271484375</LongitudeDegrees>
            </Position>
            <AltitudeMeters>831.5999755859375</AltitudeMeters>
            <DistanceMeters>NAN</DistanceMeters>
          </Trackpoint>
          <Trackpoint>
            <Time>2019-10-06T10:08:51.000Z</Time>
            <Position>
              <LatitudeDegrees>41.238152571022510528564453125</LatitudeDegrees>
              <LongitudeDegrees>-5.70448835380375385284423828125</LongitudeDegrees>
            </Position>
            <AltitudeMeters>832</AltitudeMeters>
            <DistanceMeters>NAN</DistanceMeters>
          </Trackpoint>
          <Trackpoint>
            <Time>2019-10-06T10:08:52.000Z</Time>
            <Position>
              <LatitudeDegrees>41.23811678029596805572509765625</LatitudeDegrees>
              <LongitudeDegrees>-5.704471170902252197265625</LongitudeDegrees>
            </Position>
            <AltitudeMeters>832.4000244140625</AltitudeMeters>
            <DistanceMeters>NAN</DistanceMeters>
          </Trackpoint>
          <Trackpoint>
            <Time>2019-10-06T10:08:59.000Z</Time>
            <Position>
              <LatitudeDegrees>41.2378571927547454833984375</LatitudeDegrees>
              <LongitudeDegrees>-5.70437419228255748748779296875</LongitudeDegrees>
            </Position>
            <AltitudeMeters>832.5999755859375</AltitudeMeters>
            <DistanceMeters>NAN</DistanceMeters>
          </Trackpoint>
          <Trackpoint>
            <Time>2019-10-06T10:09:06.000Z</Time>
            <Position>
              <LatitudeDegrees>41.23757480643689632415771484375</LatitudeDegrees>
              <LongitudeDegrees>-5.7042933069169521331787109375</LongitudeDegrees>
            </Position>
            <AltitudeMeters>832.79998779296875</AltitudeMeters>
            <DistanceMeters>NAN</DistanceMeters>
          </Trackpoint>
          <Trackpoint>
            <Time>2019-10-06T10:09:15.000Z</Time>
            <Position>
              <LatitudeDegrees>41.2371479161083698272705078125</LatitudeDegrees>
              <LongitudeDegrees>-5.7042242400348186492919921875</LongitudeDegrees>
            </Position>
            <AltitudeMeters>832.20001220703125</AltitudeMeters>
            <DistanceMeters>NAN</DistanceMeters>
          </Trackpoint>
          <Trackpoint>
            <Time>2019-10-06T10:09:16.000Z</Time>
            <Position>
              <LatitudeDegrees>41.23709653504192829132080078125</LatitudeDegrees>
              <LongitudeDegrees>-5.7042198814451694488525390625</LongitudeDegrees>
            </Position>
            <AltitudeMeters>832</AltitudeMeters>
            <DistanceMeters>NAN</DistanceMeters>
          </Trackpoint>
          <Trackpoint>
            <Time>2019-10-06T10:09:21.000Z</Time>
            <Position>
              <LatitudeDegrees>41.23682362027466297149658203125</LatitudeDegrees>
              <LongitudeDegrees>-5.70420655421912670135498046875</LongitudeDegrees>
            </Position>
            <AltitudeMeters>831.79998779296875</AltitudeMeters>
            <DistanceMeters>NAN</DistanceMeters>
          </Trackpoint>
          <Trackpoint>
            <Time>2019-10-06T10:09:25.000Z</Time>
            <Position>
              <LatitudeDegrees>41.23659227974712848663330078125</LatitudeDegrees>
              <LongitudeDegrees>-5.70422415621578693389892578125</LongitudeDegrees>
            </Position>
            <AltitudeMeters>830.79998779296875</AltitudeMeters>
            <DistanceMeters>NAN</DistanceMeters>
          </Trackpoint>
          <Trackpoint>
            <Time>2019-10-06T10:09:32.000Z</Time>
            <Position>
              <LatitudeDegrees>41.2361414171755313873291015625</LatitudeDegrees>
              <LongitudeDegrees>-5.70429707877337932586669921875</LongitudeDegrees>
            </Position>
            <AltitudeMeters>830.20001220703125</AltitudeMeters>
            <DistanceMeters>NAN</DistanceMeters>
          </Trackpoint>
          <Trackpoint>
            <Time>2019-10-06T10:09:35.000Z</Time>
            <Position>
              <LatitudeDegrees>41.235930360853672027587890625</LatitudeDegrees>
              <LongitudeDegrees>-5.70435508154332637786865234375</LongitudeDegrees>
            </Position>
            <AltitudeMeters>829.5999755859375</AltitudeMeters>
            <DistanceMeters>NAN</DistanceMeters>
          </Trackpoint>
          <Trackpoint>
            <Time>2019-10-06T10:09:40.000Z</Time>
            <Position>
              <LatitudeDegrees>41.23556566424667835235595703125</LatitudeDegrees>
              <LongitudeDegrees>-5.70448793470859527587890625</LongitudeDegrees>
            </Position>
            <AltitudeMeters>828.5999755859375</AltitudeMeters>
            <DistanceMeters>NAN</DistanceMeters>
          </Trackpoint>
          <Trackpoint>
            <Time>2019-10-06T10:09:46.000Z</Time>
            <Position>
              <LatitudeDegrees>41.2351154722273349761962890625</LatitudeDegrees>
              <LongitudeDegrees>-5.70467778481543064117431640625</LongitudeDegrees>
            </Position>
            <AltitudeMeters>827.4000244140625</AltitudeMeters>
            <DistanceMeters>NAN</DistanceMeters>
          </Trackpoint>
          <Trackpoint>
            <Time>2019-10-06T10:09:48.000Z</Time>
            <Position>
              <LatitudeDegrees>41.2349649332463741302490234375</LatitudeDegrees>
              <LongitudeDegrees>-5.7047442533075809478759765625</LongitudeDegrees>
            </Position>
            <AltitudeMeters>826.79998779296875</AltitudeMeters>
            <DistanceMeters>NAN</DistanceMeters>
          </Trackpoint>
          <Trackpoint>
            <Time>2019-10-06T10:09:52.000Z</Time>
            <Position>
              <LatitudeDegrees>41.23467483557760715484619140625</LatitudeDegrees>
              <LongitudeDegrees>-5.70483955554664134979248046875</LongitudeDegrees>
            </Position>
            <AltitudeMeters>827</AltitudeMeters>
            <DistanceMeters>NAN</DistanceMeters>
          </Trackpoint>
          <Trackpoint>
            <Time>2019-10-06T10:09:53.000Z</Time>
            <Position>
              <LatitudeDegrees>41.23460702598094940185546875</LatitudeDegrees>
              <LongitudeDegrees>-5.7048592530190944671630859375</LongitudeDegrees>
            </Position>
            <AltitudeMeters>826.79998779296875</AltitudeMeters>
            <DistanceMeters>NAN</DistanceMeters>
          </Trackpoint>
          <Trackpoint>
            <Time>2019-10-06T10:09:55.000Z</Time>
            <Position>
              <LatitudeDegrees>41.23447584919631481170654296875</LatitudeDegrees>
              <LongitudeDegrees>-5.70489563047885894775390625</LongitudeDegrees>
            </Position>
            <AltitudeMeters>826.4000244140625</AltitudeMeters>
            <DistanceMeters>NAN</DistanceMeters>
          </Trackpoint>
          <Trackpoint>
            <Time>2019-10-06T10:09:57.000Z</Time>
            <Position>
              <LatitudeDegrees>41.23435623943805694580078125</LatitudeDegrees>
              <LongitudeDegrees>-5.70492471568286418914794921875</LongitudeDegrees>
            </Position>
            <AltitudeMeters>826.5999755859375</AltitudeMeters>
            <DistanceMeters>NAN</DistanceMeters>
          </Trackpoint>
          <Trackpoint>
            <Time>2019-10-06T10:09:59.000Z</Time>
            <Position>
              <LatitudeDegrees>41.23423629440367221832275390625</LatitudeDegrees>
              <LongitudeDegrees>-5.70494650863111019134521484375</LongitudeDegrees>
            </Position>
            <AltitudeMeters>826.4000244140625</AltitudeMeters>
            <DistanceMeters>NAN</DistanceMeters>
          </Trackpoint>
          <Trackpoint>
            <Time>2019-10-06T10:10:06.000Z</Time>
            <Position>
              <LatitudeDegrees>41.23378518037497997283935546875</LatitudeDegrees>
              <LongitudeDegrees>-5.7049886696040630340576171875</LongitudeDegrees>
            </Position>
            <AltitudeMeters>825.20001220703125</AltitudeMeters>
            <DistanceMeters>NAN</DistanceMeters>
          </Trackpoint>
          <Trackpoint>
            <Time>2019-10-06T10:10:12.000Z</Time>
            <Position>
              <LatitudeDegrees>41.2334206514060497283935546875</LatitudeDegrees>
              <LongitudeDegrees>-5.704963691532611846923828125</LongitudeDegrees>
            </Position>
            <AltitudeMeters>824.4000244140625</AltitudeMeters>
            <DistanceMeters>NAN</DistanceMeters>
          </Trackpoint>
          <Trackpoint>
            <Time>2019-10-06T10:10:15.000Z</Time>
            <Position>
              <LatitudeDegrees>41.23325292952358722686767578125</LatitudeDegrees>
              <LongitudeDegrees>-5.7049397192895412445068359375</LongitudeDegrees>
            </Position>
            <AltitudeMeters>824</AltitudeMeters>
            <DistanceMeters>NAN</DistanceMeters>
          </Trackpoint>
          <Trackpoint>
            <Time>2019-10-06T10:10:17.000Z</Time>
            <Position>
              <LatitudeDegrees>41.23313474468886852264404296875</LatitudeDegrees>
              <LongitudeDegrees>-5.70492052473127841949462890625</LongitudeDegrees>
            </Position>
            <AltitudeMeters>823.79998779296875</AltitudeMeters>
            <DistanceMeters>NAN</DistanceMeters>
          </Trackpoint>
          <Trackpoint>
            <Time>2019-10-06T10:10:19.000Z</Time>
            <Position>
              <LatitudeDegrees>41.233014799654483795166015625</LatitudeDegrees>
              <LongitudeDegrees>-5.70490091107785701751708984375</LongitudeDegrees>
            </Position>
            <AltitudeMeters>823.79998779296875</AltitudeMeters>
            <DistanceMeters>NAN</DistanceMeters>
          </Trackpoint>
          <Trackpoint>
            <Time>2019-10-06T10:10:20.000Z</Time>
            <Position>
              <LatitudeDegrees>41.23295419849455356597900390625</LatitudeDegrees>
              <LongitudeDegrees>-5.70489018224179744720458984375</LongitudeDegrees>
            </Position>
            <AltitudeMeters>823.4000244140625</AltitudeMeters>
            <DistanceMeters>NAN</DistanceMeters>
          </Trackpoint>
          <Trackpoint>
            <Time>2019-10-06T10:10:23.000Z</Time>
            <Position>
              <LatitudeDegrees>41.23277516104280948638916015625</LatitudeDegrees>
              <LongitudeDegrees>-5.70484944619238376617431640625</LongitudeDegrees>
            </Position>
            <AltitudeMeters>823</AltitudeMeters>
            <DistanceMeters>NAN</DistanceMeters>
          </Trackpoint>
          <Trackpoint>
            <Time>2019-10-06T10:10:26.000Z</Time>
            <Position>
              <LatitudeDegrees>41.23259511776268482208251953125</LatitudeDegrees>
              <LongitudeDegrees>-5.70481122471392154693603515625</LongitudeDegrees>
            </Position>
            <AltitudeMeters>823</AltitudeMeters>
            <DistanceMeters>NAN</DistanceMeters>
          </Trackpoint>
          <Trackpoint>
            <Time>2019-10-06T10:10:27.000Z</Time>
            <Position>
              <LatitudeDegrees>41.2325351871550083160400390625</LatitudeDegrees>
              <LongitudeDegrees>-5.70479370653629302978515625</LongitudeDegrees>
            </Position>
            <AltitudeMeters>823</AltitudeMeters>
            <DistanceMeters>NAN</DistanceMeters>
          </Trackpoint>
          <Trackpoint>
            <Time>2019-10-06T10:10:30.000Z</Time>
            <Position>
              <LatitudeDegrees>41.23235153965651988983154296875</LatitudeDegrees>
              <LongitudeDegrees>-5.7047533057630062103271484375</LongitudeDegrees>
            </Position>
            <AltitudeMeters>823.5999755859375</AltitudeMeters>
            <DistanceMeters>NAN</DistanceMeters>
          </Trackpoint>
          <Trackpoint>
            <Time>2019-10-06T10:10:32.000Z</Time>
            <Position>
              <LatitudeDegrees>41.23222656548023223876953125</LatitudeDegrees>
              <LongitudeDegrees>-5.70472522638738155364990234375</LongitudeDegrees>
            </Position>
            <AltitudeMeters>823.5999755859375</AltitudeMeters>
            <DistanceMeters>NAN</DistanceMeters>
          </Trackpoint>
          <Trackpoint>
            <Time>2019-10-06T10:10:34.000Z</Time>
            <Position>
              <LatitudeDegrees>41.232102178037166595458984375</LatitudeDegrees>
              <LongitudeDegrees>-5.70469421334564685821533203125</LongitudeDegrees>
            </Position>
            <AltitudeMeters>823.20001220703125</AltitudeMeters>
            <DistanceMeters>NAN</DistanceMeters>
          </Trackpoint>
          <Trackpoint>
            <Time>2019-10-06T10:10:41.000Z</Time>
            <Position>
              <LatitudeDegrees>41.23168434016406536102294921875</LatitudeDegrees>
              <LongitudeDegrees>-5.7046000845730304718017578125</LongitudeDegrees>
            </Position>
            <AltitudeMeters>824.20001220703125</AltitudeMeters>
            <DistanceMeters>NAN</DistanceMeters>
          </Trackpoint>
          <Trackpoint>
            <Time>2019-10-06T10:10:43.000Z</Time>
            <Position>
              <LatitudeDegrees>41.231571100652217864990234375</LatitudeDegrees>
              <LongitudeDegrees>-5.7045799680054187774658203125</LongitudeDegrees>
            </Position>
            <AltitudeMeters>824.79998779296875</AltitudeMeters>
            <DistanceMeters>NAN</DistanceMeters>
          </Trackpoint>
          <Trackpoint>
            <Time>2019-10-06T10:10:47.000Z</Time>
            <Position>
              <LatitudeDegrees>41.231353171169757843017578125</LatitudeDegrees>
              <LongitudeDegrees>-5.70452976040542125701904296875</LongitudeDegrees>
            </Position>
            <AltitudeMeters>825</AltitudeMeters>
            <DistanceMeters>NAN</DistanceMeters>
          </Trackpoint>
          <Trackpoint>
            <Time>2019-10-06T10:10:50.000Z</Time>
            <Position>
              <LatitudeDegrees>41.231193579733371734619140625</LatitudeDegrees>
              <LongitudeDegrees>-5.7044884376227855682373046875</LongitudeDegrees>
            </Position>
            <AltitudeMeters>825.4000244140625</AltitudeMeters>
            <DistanceMeters>NAN</DistanceMeters>
          </Trackpoint>
          <Trackpoint>
            <Time>2019-10-06T10:10:51.000Z</Time>
            <Position>
              <LatitudeDegrees>41.2311401031911373138427734375</LatitudeDegrees>
              <LongitudeDegrees>-5.70447829551994800567626953125</LongitudeDegrees>
            </Position>
            <AltitudeMeters>825.5999755859375</AltitudeMeters>
            <DistanceMeters>NAN</DistanceMeters>
          </Trackpoint>
          <Trackpoint>
            <Time>2019-10-06T10:10:55.000Z</Time>
            <Position>
              <LatitudeDegrees>41.2309277057647705078125</LatitudeDegrees>
              <LongitudeDegrees>-5.7044337876141071319580078125</LongitudeDegrees>
            </Position>
            <AltitudeMeters>826</AltitudeMeters>
            <DistanceMeters>NAN</DistanceMeters>
          </Trackpoint>
          <Trackpoint>
            <Time>2019-10-06T10:10:58.000Z</Time>
            <Position>
              <LatitudeDegrees>41.2307696230709552764892578125</LatitudeDegrees>
              <LongitudeDegrees>-5.7043999247252941131591796875</LongitudeDegrees>
            </Position>
            <AltitudeMeters>826.5999755859375</AltitudeMeters>
            <DistanceMeters>NAN</DistanceMeters>
          </Trackpoint>
          <Trackpoint>
            <Time>2019-10-06T10:11:03.000Z</Time>
            <Position>
              <LatitudeDegrees>41.23051037080585956573486328125</LatitudeDegrees>
              <LongitudeDegrees>-5.7043425925076007843017578125</LongitudeDegrees>
            </Position>
            <AltitudeMeters>827</AltitudeMeters>
            <DistanceMeters>NAN</DistanceMeters>
          </Trackpoint>
          <Trackpoint>
            <Time>2019-10-06T10:11:06.000Z</Time>
            <Position>
              <LatitudeDegrees>41.2303609214723110198974609375</LatitudeDegrees>
              <LongitudeDegrees>-5.70430629886686801910400390625</LongitudeDegrees>
            </Position>
            <AltitudeMeters>827.4000244140625</AltitudeMeters>
            <DistanceMeters>NAN</DistanceMeters>
          </Trackpoint>
          <Trackpoint>
            <Time>2019-10-06T10:11:08.000Z</Time>
            <Position>
              <LatitudeDegrees>41.2302636913955211639404296875</LatitudeDegrees>
              <LongitudeDegrees>-5.7042852602899074554443359375</LongitudeDegrees>
            </Position>
            <AltitudeMeters>827.5999755859375</AltitudeMeters>
            <DistanceMeters>NAN</DistanceMeters>
          </Trackpoint>
          <Trackpoint>
            <Time>2019-10-06T10:11:16.000Z</Time>
            <Position>
              <LatitudeDegrees>41.22986982576549053192138671875</LatitudeDegrees>
              <LongitudeDegrees>-5.70419817231595516204833984375</LongitudeDegrees>
            </Position>
            <AltitudeMeters>827.4000244140625</AltitudeMeters>
            <DistanceMeters>NAN</DistanceMeters>
          </Trackpoint>
          <Trackpoint>
            <Time>2019-10-06T10:11:27.000Z</Time>
            <Position>
              <LatitudeDegrees>41.2293242476880550384521484375</LatitudeDegrees>
              <LongitudeDegrees>-5.70407495833933353424072265625</LongitudeDegrees>
            </Position>
            <AltitudeMeters>828.4000244140625</AltitudeMeters>
            <DistanceMeters>NAN</DistanceMeters>
          </Trackpoint>
          <Trackpoint>
            <Time>2019-10-06T10:11:34.000Z</Time>
            <Position>
              <LatitudeDegrees>41.2289691902697086334228515625</LatitudeDegrees>
              <LongitudeDegrees>-5.703996084630489349365234375</LongitudeDegrees>
            </Position>
            <AltitudeMeters>828.5999755859375</AltitudeMeters>
            <DistanceMeters>NAN</DistanceMeters>
          </Trackpoint>
          <Trackpoint>
            <Time>2019-10-06T10:11:36.000Z</Time>
            <Position>
              <LatitudeDegrees>41.22886885888874530792236328125</LatitudeDegrees>
              <LongitudeDegrees>-5.7039721123874187469482421875</LongitudeDegrees>
            </Position>
            <AltitudeMeters>828.5999755859375</AltitudeMeters>
            <DistanceMeters>NAN</DistanceMeters>
          </Trackpoint>
          <Trackpoint>
            <Time>2019-10-06T10:11:44.000Z</Time>
            <Position>
              <LatitudeDegrees>41.2284585647284984588623046875</LatitudeDegrees>
              <LongitudeDegrees>-5.703891813755035400390625</LongitudeDegrees>
            </Position>
            <AltitudeMeters>828.4000244140625</AltitudeMeters>
            <DistanceMeters>NAN</DistanceMeters>
          </Trackpoint>
          <Trackpoint>
            <Time>2019-10-06T10:11:54.000Z</Time>
            <Position>
              <LatitudeDegrees>41.227934025228023529052734375</LatitudeDegrees>
              <LongitudeDegrees>-5.70377287454903125762939453125</LongitudeDegrees>
            </Position>
            <AltitudeMeters>828.79998779296875</AltitudeMeters>
            <DistanceMeters>NAN</DistanceMeters>
          </Trackpoint>
          <Trackpoint>
            <Time>2019-10-06T10:12:03.000Z</Time>
            <Position>
              <LatitudeDegrees>41.22741325758397579193115234375</LatitudeDegrees>
              <LongitudeDegrees>-5.7036812603473663330078125</LongitudeDegrees>
            </Position>
            <AltitudeMeters>828.79998779296875</AltitudeMeters>
            <DistanceMeters>NAN</DistanceMeters>
          </Trackpoint>
          <Trackpoint>
            <Time>2019-10-06T10:12:05.000Z</Time>
            <Position>
              <LatitudeDegrees>41.22729607857763767242431640625</LatitudeDegrees>
              <LongitudeDegrees>-5.703664831817150115966796875</LongitudeDegrees>
            </Position>
            <AltitudeMeters>828.79998779296875</AltitudeMeters>
            <DistanceMeters>NAN</DistanceMeters>
          </Trackpoint>
          <Trackpoint>
            <Time>2019-10-06T10:12:14.000Z</Time>
            <Position>
              <LatitudeDegrees>41.22675376944243907928466796875</LatitudeDegrees>
              <LongitudeDegrees>-5.70361646823585033416748046875</LongitudeDegrees>
            </Position>
            <AltitudeMeters>828</AltitudeMeters>
            <DistanceMeters>NAN</DistanceMeters>
          </Trackpoint>
          <Trackpoint>
            <Time>2019-10-06T10:12:15.000Z</Time>
            <Position>
              <LatitudeDegrees>41.226692162454128265380859375</LatitudeDegrees>
              <LongitudeDegrees>-5.70361395366489887237548828125</LongitudeDegrees>
            </Position>
            <AltitudeMeters>827.5999755859375</AltitudeMeters>
            <DistanceMeters>NAN</DistanceMeters>
          </Trackpoint>
          <Trackpoint>
            <Time>2019-10-06T10:12:21.000Z</Time>
            <Position>
              <LatitudeDegrees>41.226323358714580535888671875</LatitudeDegrees>
              <LongitudeDegrees>-5.70360691286623477935791015625</LongitudeDegrees>
            </Position>
            <AltitudeMeters>827.4000244140625</AltitudeMeters>
            <DistanceMeters>NAN</DistanceMeters>
          </Trackpoint>
          <Trackpoint>
            <Time>2019-10-06T10:12:24.000Z</Time>
            <Position>
              <LatitudeDegrees>41.226136274635791778564453125</LatitudeDegrees>
              <LongitudeDegrees>-5.7036093436181545257568359375</LongitudeDegrees>
            </Position>
            <AltitudeMeters>827.20001220703125</AltitudeMeters>
            <DistanceMeters>NAN</DistanceMeters>
          </Trackpoint>
          <Trackpoint>
            <Time>2019-10-06T10:12:30.000Z</Time>
            <Position>
              <LatitudeDegrees>41.225756742060184478759765625</LatitudeDegrees>
              <LongitudeDegrees>-5.70363474078476428985595703125</LongitudeDegrees>
            </Position>
            <AltitudeMeters>827</AltitudeMeters>
            <DistanceMeters>NAN</DistanceMeters>
          </Trackpoint>
          <Trackpoint>
            <Time>2019-10-06T10:12:34.000Z</Time>
            <Position>
              <LatitudeDegrees>41.22549748979508876800537109375</LatitudeDegrees>
              <LongitudeDegrees>-5.703662820160388946533203125</LongitudeDegrees>
            </Position>
            <AltitudeMeters>826.5999755859375</AltitudeMeters>
            <DistanceMeters>NAN</DistanceMeters>
          </Trackpoint>
          <Trackpoint>
            <Time>2019-10-06T10:12:35.000Z</Time>
            <Position>
              <LatitudeDegrees>41.225431524217128753662109375</LatitudeDegrees>
              <LongitudeDegrees>-5.7036733813583850860595703125</LongitudeDegrees>
            </Position>
            <AltitudeMeters>826.4000244140625</AltitudeMeters>
            <DistanceMeters>NAN</DistanceMeters>
          </Trackpoint>
          <Trackpoint>
            <Time>2019-10-06T10:12:39.000Z</Time>
            <Position>
              <LatitudeDegrees>41.22516875155270099639892578125</LatitudeDegrees>
              <LongitudeDegrees>-5.70371520705521106719970703125</LongitudeDegrees>
            </Position>
            <AltitudeMeters>825.5999755859375</AltitudeMeters>
            <DistanceMeters>NAN</DistanceMeters>
          </Trackpoint>
          <Trackpoint>
            <Time>2019-10-06T10:12:41.000Z</Time>
            <Position>
              <LatitudeDegrees>41.2250335514545440673828125</LatitudeDegrees>
              <LongitudeDegrees>-5.70373767055571079254150390625</LongitudeDegrees>
            </Position>
            <AltitudeMeters>825.4000244140625</AltitudeMeters>
            <DistanceMeters>NAN</DistanceMeters>
          </Trackpoint>
          <Trackpoint>
            <Time>2019-10-06T10:12:44.000Z</Time>
            <Position>
              <LatitudeDegrees>41.22482945211231708526611328125</LatitudeDegrees>
              <LongitudeDegrees>-5.70377522148191928863525390625</LongitudeDegrees>
            </Position>
            <AltitudeMeters>825.20001220703125</AltitudeMeters>
            <DistanceMeters>NAN</DistanceMeters>
          </Trackpoint>
          <Trackpoint>
            <Time>2019-10-06T10:12:46.000Z</Time>
            <Position>
              <LatitudeDegrees>41.22469089925289154052734375</LatitudeDegrees>
              <LongitudeDegrees>-5.7038034684956073760986328125</LongitudeDegrees>
            </Position>
            <AltitudeMeters>824.5999755859375</AltitudeMeters>
            <DistanceMeters>NAN</DistanceMeters>
          </Trackpoint>
          <Trackpoint>
            <Time>2019-10-06T10:12:50.000Z</Time>
            <Position>
              <LatitudeDegrees>41.22440985403954982757568359375</LatitudeDegrees>
              <LongitudeDegrees>-5.7038641534745693206787109375</LongitudeDegrees>
            </Position>
            <AltitudeMeters>824</AltitudeMeters>
            <DistanceMeters>NAN</DistanceMeters>
          </Trackpoint>
          <Trackpoint>
            <Time>2019-10-06T10:12:51.000Z</Time>
            <Position>
              <LatitudeDegrees>41.22433810494840145111083984375</LatitudeDegrees>
              <LongitudeDegrees>-5.70387932471930980682373046875</LongitudeDegrees>
            </Position>
            <AltitudeMeters>823.79998779296875</AltitudeMeters>
            <DistanceMeters>NAN</DistanceMeters>
          </Trackpoint>
          <Trackpoint>
            <Time>2019-10-06T10:12:56.000Z</Time>
            <Position>
              <LatitudeDegrees>41.22397550381720066070556640625</LatitudeDegrees>
              <LongitudeDegrees>-5.7039570249617099761962890625</LongitudeDegrees>
            </Position>
            <AltitudeMeters>823</AltitudeMeters>
            <DistanceMeters>NAN</DistanceMeters>
          </Trackpoint>
          <Trackpoint>
            <Time>2019-10-06T10:12:58.000Z</Time>
            <Position>
              <LatitudeDegrees>41.223830915987491607666015625</LatitudeDegrees>
              <LongitudeDegrees>-5.7039855234324932098388671875</LongitudeDegrees>
            </Position>
            <AltitudeMeters>822.79998779296875</AltitudeMeters>
            <DistanceMeters>NAN</DistanceMeters>
          </Trackpoint>
          <Trackpoint>
            <Time>2019-10-06T10:13:06.000Z</Time>
            <Position>
              <LatitudeDegrees>41.22323655523359775543212890625</LatitudeDegrees>
              <LongitudeDegrees>-5.70408753119409084320068359375</LongitudeDegrees>
            </Position>
            <AltitudeMeters>822</AltitudeMeters>
            <DistanceMeters>NAN</DistanceMeters>
          </Trackpoint>
          <Trackpoint>
            <Time>2019-10-06T10:13:08.000Z</Time>
            <Position>
              <LatitudeDegrees>41.22308601625263690948486328125</LatitudeDegrees>
              <LongitudeDegrees>-5.70410949178040027618408203125</LongitudeDegrees>
            </Position>
            <AltitudeMeters>821.5999755859375</AltitudeMeters>
            <DistanceMeters>NAN</DistanceMeters>
          </Trackpoint>
          <Trackpoint>
            <Time>2019-10-06T10:13:15.000Z</Time>
            <Position>
              <LatitudeDegrees>41.2225426174700260162353515625</LatitudeDegrees>
              <LongitudeDegrees>-5.70417277514934539794921875</LongitudeDegrees>
            </Position>
            <AltitudeMeters>820.79998779296875</AltitudeMeters>
            <DistanceMeters>NAN</DistanceMeters>
          </Trackpoint>
          <Trackpoint>
            <Time>2019-10-06T10:13:16.000Z</Time>
            <Position>
              <LatitudeDegrees>41.22246198356151580810546875</LatitudeDegrees>
              <LongitudeDegrees>-5.70417939685285091400146484375</LongitudeDegrees>
            </Position>
            <AltitudeMeters>821.20001220703125</AltitudeMeters>
            <DistanceMeters>NAN</DistanceMeters>
          </Trackpoint>
          <Trackpoint>
            <Time>2019-10-06T10:13:17.000Z</Time>
            <Position>
              <LatitudeDegrees>41.22238143347203731536865234375</LatitudeDegrees>
              <LongitudeDegrees>-5.7041866891086101531982421875</LongitudeDegrees>
            </Position>
            <AltitudeMeters>820.4000244140625</AltitudeMeters>
            <DistanceMeters>NAN</DistanceMeters>
          </Trackpoint>
          <Trackpoint>
            <Time>2019-10-06T10:13:22.000Z</Time>
            <Position>
              <LatitudeDegrees>41.221972145140171051025390625</LatitudeDegrees>
              <LongitudeDegrees>-5.7042051292955875396728515625</LongitudeDegrees>
            </Position>
            <AltitudeMeters>819.4000244140625</AltitudeMeters>
            <DistanceMeters>NAN</DistanceMeters>
          </Trackpoint>
          <Trackpoint>
            <Time>2019-10-06T10:13:24.000Z</Time>
            <Position>
              <LatitudeDegrees>41.22180626727640628814697265625</LatitudeDegrees>
              <LongitudeDegrees>-5.7042091526091098785400390625</LongitudeDegrees>
            </Position>
            <AltitudeMeters>818.4000244140625</AltitudeMeters>
            <DistanceMeters>NAN</DistanceMeters>
          </Trackpoint>
          <Trackpoint>
            <Time>2019-10-06T10:13:25.000Z</Time>
            <Position>
              <LatitudeDegrees>41.22172295115888118743896484375</LatitudeDegrees>
              <LongitudeDegrees>-5.7042101584374904632568359375</LongitudeDegrees>
            </Position>
            <AltitudeMeters>818.4000244140625</AltitudeMeters>
            <DistanceMeters>NAN</DistanceMeters>
          </Trackpoint>
          <Trackpoint>
            <Time>2019-10-06T10:13:27.000Z</Time>
            <Position>
              <LatitudeDegrees>41.2215552292764186859130859375</LatitudeDegrees>
              <LongitudeDegrees>-5.70420906879007816314697265625</LongitudeDegrees>
            </Position>
            <AltitudeMeters>818.4000244140625</AltitudeMeters>
            <DistanceMeters>NAN</DistanceMeters>
          </Trackpoint>
          <Trackpoint>
            <Time>2019-10-06T10:13:28.000Z</Time>
            <Position>
              <LatitudeDegrees>41.22147115878760814666748046875</LatitudeDegrees>
              <LongitudeDegrees>-5.70420563220977783203125</LongitudeDegrees>
            </Position>
            <AltitudeMeters>818.20001220703125</AltitudeMeters>
            <DistanceMeters>NAN</DistanceMeters>
          </Trackpoint>
          <Trackpoint>
            <Time>2019-10-06T10:13:29.000Z</Time>
            <Position>
              <LatitudeDegrees>41.22138733975589275360107421875</LatitudeDegrees>
              <LongitudeDegrees>-5.7042021118104457855224609375</LongitudeDegrees>
            </Position>
            <AltitudeMeters>818</AltitudeMeters>
            <DistanceMeters>NAN</DistanceMeters>
          </Trackpoint>
          <Trackpoint>
            <Time>2019-10-06T10:13:31.000Z</Time>
            <Position>
              <LatitudeDegrees>41.2212196178734302520751953125</LatitudeDegrees>
              <LongitudeDegrees>-5.7041950710117816925048828125</LongitudeDegrees>
            </Position>
            <AltitudeMeters>817.20001220703125</AltitudeMeters>
            <DistanceMeters>NAN</DistanceMeters>
          </Trackpoint>
          <Trackpoint>
            <Time>2019-10-06T10:13:32.000Z</Time>
            <Position>
              <LatitudeDegrees>41.22113521210849285125732421875</LatitudeDegrees>
              <LongitudeDegrees>-5.70419046096503734588623046875</LongitudeDegrees>
            </Position>
            <AltitudeMeters>817</AltitudeMeters>
            <DistanceMeters>NAN</DistanceMeters>
          </Trackpoint>
          <Trackpoint>
            <Time>2019-10-06T10:13:35.000Z</Time>
            <Position>
              <LatitudeDegrees>41.22087738476693630218505859375</LatitudeDegrees>
              <LongitudeDegrees>-5.70417344570159912109375</LongitudeDegrees>
            </Position>
            <AltitudeMeters>816</AltitudeMeters>
            <DistanceMeters>NAN</DistanceMeters>
          </Trackpoint>
          <Trackpoint>
            <Time>2019-10-06T10:13:39.000Z</Time>
            <Position>
              <LatitudeDegrees>41.2205299548804759979248046875</LatitudeDegrees>
              <LongitudeDegrees>-5.704143606126308441162109375</LongitudeDegrees>
            </Position>
            <AltitudeMeters>814.79998779296875</AltitudeMeters>
            <DistanceMeters>NAN</DistanceMeters>
          </Trackpoint>
          <Trackpoint>
            <Time>2019-10-06T10:13:41.000Z</Time>
            <Position>
              <LatitudeDegrees>41.2203217484056949615478515625</LatitudeDegrees>
              <LongitudeDegrees>-5.70411955006420612335205078125</LongitudeDegrees>
            </Position>
            <AltitudeMeters>813.79998779296875</AltitudeMeters>
            <DistanceMeters>NAN</DistanceMeters>
          </Trackpoint>
          <Trackpoint>
            <Time>2019-10-06T10:13:43.000Z</Time>
            <Position>
              <LatitudeDegrees>41.22017699293792247772216796875</LatitudeDegrees>
              <LongitudeDegrees>-5.70409943349659442901611328125</LongitudeDegrees>
            </Position>
            <AltitudeMeters>813.79998779296875</AltitudeMeters>
            <DistanceMeters>NAN</DistanceMeters>
          </Trackpoint>
          <Trackpoint>
            <Time>2019-10-06T10:13:46.000Z</Time>
            <Position>
              <LatitudeDegrees>41.21990709565579891204833984375</LatitudeDegrees>
              <LongitudeDegrees>-5.70405802689492702484130859375</LongitudeDegrees>
            </Position>
            <AltitudeMeters>812</AltitudeMeters>
            <DistanceMeters>NAN</DistanceMeters>
          </Trackpoint>
          <Trackpoint>
            <Time>2019-10-06T10:13:52.000Z</Time>
            <Position>
              <LatitudeDegrees>41.219367720186710357666015625</LatitudeDegrees>
              <LongitudeDegrees>-5.70394788868725299835205078125</LongitudeDegrees>
            </Position>
            <AltitudeMeters>810.79998779296875</AltitudeMeters>
            <DistanceMeters>NAN</DistanceMeters>
          </Trackpoint>
          <Trackpoint>
            <Time>2019-10-06T10:13:54.000Z</Time>
            <Position>
              <LatitudeDegrees>41.2191871739923954010009765625</LatitudeDegrees>
              <LongitudeDegrees>-5.70390346460044384002685546875</LongitudeDegrees>
            </Position>
            <AltitudeMeters>810</AltitudeMeters>
            <DistanceMeters>NAN</DistanceMeters>
          </Trackpoint>
          <Trackpoint>
            <Time>2019-10-06T10:13:58.000Z</Time>
            <Position>
              <LatitudeDegrees>41.21882784180343151092529296875</LatitudeDegrees>
              <LongitudeDegrees>-5.7038205675780773162841796875</LongitudeDegrees>
            </Position>
            <AltitudeMeters>809.5999755859375</AltitudeMeters>
            <DistanceMeters>NAN</DistanceMeters>
          </Trackpoint>
          <Trackpoint>
            <Time>2019-10-06T10:14:03.000Z</Time>
            <Position>
              <LatitudeDegrees>41.21839047409594058990478515625</LatitudeDegrees>
              <LongitudeDegrees>-5.7037142850458621978759765625</LongitudeDegrees>
            </Position>
            <AltitudeMeters>809</AltitudeMeters>
            <DistanceMeters>NAN</DistanceMeters>
          </Trackpoint>
          <Trackpoint>
            <Time>2019-10-06T10:14:09.000Z</Time>
            <Position>
              <LatitudeDegrees>41.2178903259336948394775390625</LatitudeDegrees>
              <LongitudeDegrees>-5.7035915739834308624267578125</LongitudeDegrees>
            </Position>
            <AltitudeMeters>808.4000244140625</AltitudeMeters>
            <DistanceMeters>NAN</DistanceMeters>
          </Trackpoint>
          <Trackpoint>
            <Time>2019-10-06T10:14:12.000Z</Time>
            <Position>
              <LatitudeDegrees>41.21766007505357265472412109375</LatitudeDegrees>
              <LongitudeDegrees>-5.703532062470912933349609375</LongitudeDegrees>
            </Position>
            <AltitudeMeters>809.5999755859375</AltitudeMeters>
            <DistanceMeters>NAN</DistanceMeters>
          </Trackpoint>
          <Trackpoint>
            <Time>2019-10-06T10:14:17.000Z</Time>
            <Position>
              <LatitudeDegrees>41.2173007428646087646484375</LatitudeDegrees>
              <LongitudeDegrees>-5.70344145409762859344482421875</LongitudeDegrees>
            </Position>
            <AltitudeMeters>810.79998779296875</AltitudeMeters>
            <DistanceMeters>NAN</DistanceMeters>
          </Trackpoint>
          <Trackpoint>
            <Time>2019-10-06T10:14:20.000Z</Time>
            <Position>
              <LatitudeDegrees>41.21709345839917659759521484375</LatitudeDegrees>
              <LongitudeDegrees>-5.70339359343051910400390625</LongitudeDegrees>
            </Position>
            <AltitudeMeters>810.79998779296875</AltitudeMeters>
            <DistanceMeters>NAN</DistanceMeters>
          </Trackpoint>
          <Trackpoint>
            <Time>2019-10-06T10:14:28.000Z</Time>
            <Position>
              <LatitudeDegrees>41.21653522364795207977294921875</LatitudeDegrees>
              <LongitudeDegrees>-5.70324531756341457366943359375</LongitudeDegrees>
            </Position>
            <AltitudeMeters>810.5999755859375</AltitudeMeters>
            <DistanceMeters>NAN</DistanceMeters>
          </Trackpoint>
          <Trackpoint>
            <Time>2019-10-06T10:14:32.000Z</Time>
            <Position>
              <LatitudeDegrees>41.21627521701157093048095703125</LatitudeDegrees>
              <LongitudeDegrees>-5.70318161509931087493896484375</LongitudeDegrees>
            </Position>
            <AltitudeMeters>810.4000244140625</AltitudeMeters>
            <DistanceMeters>NAN</DistanceMeters>
          </Trackpoint>
          <Trackpoint>
            <Time>2019-10-06T10:14:33.000Z</Time>
            <Position>
              <LatitudeDegrees>41.216207407414913177490234375</LatitudeDegrees>
              <LongitudeDegrees>-5.70316451601684093475341796875</LongitudeDegrees>
            </Position>
            <AltitudeMeters>810.5999755859375</AltitudeMeters>
            <DistanceMeters>NAN</DistanceMeters>
          </Trackpoint>
          <Trackpoint>
            <Time>2019-10-06T10:14:38.000Z</Time>
            <Position>
              <LatitudeDegrees>41.215872466564178466796875</LatitudeDegrees>
              <LongitudeDegrees>-5.70307835005223751068115234375</LongitudeDegrees>
            </Position>
            <AltitudeMeters>810.79998779296875</AltitudeMeters>
            <DistanceMeters>NAN</DistanceMeters>
          </Trackpoint>
          <Trackpoint>
            <Time>2019-10-06T10:14:44.000Z</Time>
            <Position>
              <LatitudeDegrees>41.215477846562862396240234375</LatitudeDegrees>
              <LongitudeDegrees>-5.7029793597757816314697265625</LongitudeDegrees>
            </Position>
            <AltitudeMeters>811</AltitudeMeters>
            <DistanceMeters>NAN</DistanceMeters>
          </Trackpoint>
          <Trackpoint>
            <Time>2019-10-06T10:14:46.000Z</Time>
            <Position>
              <LatitudeDegrees>41.2153469212353229522705078125</LatitudeDegrees>
              <LongitudeDegrees>-5.7029448263347148895263671875</LongitudeDegrees>
            </Position>
            <AltitudeMeters>810.79998779296875</AltitudeMeters>
            <DistanceMeters>NAN</DistanceMeters>
          </Trackpoint>
          <Trackpoint>
            <Time>2019-10-06T10:14:54.000Z</Time>
            <Position>
              <LatitudeDegrees>41.2148223817348480224609375</LatitudeDegrees>
              <LongitudeDegrees>-5.70281180553138256072998046875</LongitudeDegrees>
            </Position>
            <AltitudeMeters>811.20001220703125</AltitudeMeters>
            <DistanceMeters>NAN</DistanceMeters>
          </Trackpoint>
          <Trackpoint>
            <Time>2019-10-06T10:15:00.000Z</Time>
            <Position>
              <LatitudeDegrees>41.2144336290657520294189453125</LatitudeDegrees>
              <LongitudeDegrees>-5.70271943695843219757080078125</LongitudeDegrees>
            </Position>
            <AltitudeMeters>811.20001220703125</AltitudeMeters>
            <DistanceMeters>NAN</DistanceMeters>
          </Trackpoint>
          <Trackpoint>
            <Time>2019-10-06T10:15:02.000Z</Time>
            <Position>
              <LatitudeDegrees>41.2143047153949737548828125</LatitudeDegrees>
              <LongitudeDegrees>-5.70268683135509490966796875</LongitudeDegrees>
            </Position>
            <AltitudeMeters>812</AltitudeMeters>
            <DistanceMeters>NAN</DistanceMeters>
          </Trackpoint>
          <Trackpoint>
            <Time>2019-10-06T10:15:05.000Z</Time>
            <Position>
              <LatitudeDegrees>41.21411553584039211273193359375</LatitudeDegrees>
              <LongitudeDegrees>-5.70263410918414592742919921875</LongitudeDegrees>
            </Position>
            <AltitudeMeters>812</AltitudeMeters>
            <DistanceMeters>NAN</DistanceMeters>
          </Trackpoint>
          <Trackpoint>
            <Time>2019-10-06T10:15:14.000Z</Time>
            <Position>
              <LatitudeDegrees>41.21356400661170482635498046875</LatitudeDegrees>
              <LongitudeDegrees>-5.70250301621854305267333984375</LongitudeDegrees>
            </Position>
            <AltitudeMeters>812.5999755859375</AltitudeMeters>
            <DistanceMeters>NAN</DistanceMeters>
          </Trackpoint>
          <Trackpoint>
            <Time>2019-10-06T10:15:17.000Z</Time>
            <Position>
              <LatitudeDegrees>41.21338094584643840789794921875</LatitudeDegrees>
              <LongitudeDegrees>-5.70245691575109958648681640625</LongitudeDegrees>
            </Position>
            <AltitudeMeters>812.4000244140625</AltitudeMeters>
            <DistanceMeters>NAN</DistanceMeters>
          </Trackpoint>
          <Trackpoint>
            <Time>2019-10-06T10:15:26.000Z</Time>
            <Position>
              <LatitudeDegrees>41.2128367088735103607177734375</LatitudeDegrees>
              <LongitudeDegrees>-5.702315010130405426025390625</LongitudeDegrees>
            </Position>
            <AltitudeMeters>812.4000244140625</AltitudeMeters>
            <DistanceMeters>NAN</DistanceMeters>
          </Trackpoint>
          <Trackpoint>
            <Time>2019-10-06T10:15:27.000Z</Time>
            <Position>
              <LatitudeDegrees>41.21277694590389728546142578125</LatitudeDegrees>
              <LongitudeDegrees>-5.70230134762823581695556640625</LongitudeDegrees>
            </Position>
            <AltitudeMeters>812.79998779296875</AltitudeMeters>
            <DistanceMeters>NAN</DistanceMeters>
          </Trackpoint>
          <Trackpoint>
            <Time>2019-10-06T10:15:28.000Z</Time>
            <Position>
              <LatitudeDegrees>41.2127180211246013641357421875</LatitudeDegrees>
              <LongitudeDegrees>-5.70228709839284420013427734375</LongitudeDegrees>
            </Position>
            <AltitudeMeters>813</AltitudeMeters>
            <DistanceMeters>NAN</DistanceMeters>
          </Trackpoint>
          <Trackpoint>
            <Time>2019-10-06T10:15:37.000Z</Time>
            <Position>
              <LatitudeDegrees>41.21217562817037105560302734375</LatitudeDegrees>
              <LongitudeDegrees>-5.7021455280482769012451171875</LongitudeDegrees>
            </Position>
            <AltitudeMeters>813.4000244140625</AltitudeMeters>
            <DistanceMeters>NAN</DistanceMeters>
          </Trackpoint>
          <Trackpoint>
            <Time>2019-10-06T10:15:45.000Z</Time>
            <Position>
              <LatitudeDegrees>41.21169148944318294525146484375</LatitudeDegrees>
              <LongitudeDegrees>-5.70201854221522808074951171875</LongitudeDegrees>
            </Position>
            <AltitudeMeters>814</AltitudeMeters>
            <DistanceMeters>NAN</DistanceMeters>
          </Trackpoint>
          <Trackpoint>
            <Time>2019-10-06T10:15:49.000Z</Time>
            <Position>
              <LatitudeDegrees>41.21145327575504779815673828125</LatitudeDegrees>
              <LongitudeDegrees>-5.7019591145217418670654296875</LongitudeDegrees>
            </Position>
            <AltitudeMeters>813.79998779296875</AltitudeMeters>
            <DistanceMeters>NAN</DistanceMeters>
          </Trackpoint>
          <Trackpoint>
            <Time>2019-10-06T10:15:58.000Z</Time>
            <Position>
              <LatitudeDegrees>41.21091733686625957489013671875</LatitudeDegrees>
              <LongitudeDegrees>-5.70182626135647296905517578125</LongitudeDegrees>
            </Position>
            <AltitudeMeters>814.20001220703125</AltitudeMeters>
            <DistanceMeters>NAN</DistanceMeters>
          </Trackpoint>
          <Trackpoint>
            <Time>2019-10-06T10:15:59.000Z</Time>
            <Position>
              <LatitudeDegrees>41.2108579091727733612060546875</LatitudeDegrees>
              <LongitudeDegrees>-5.7018115930259227752685546875</LongitudeDegrees>
            </Position>
            <AltitudeMeters>814.20001220703125</AltitudeMeters>
            <DistanceMeters>NAN</DistanceMeters>
          </Trackpoint>
          <Trackpoint>
            <Time>2019-10-06T10:16:09.000Z</Time>
            <Position>
              <LatitudeDegrees>41.2102936394512653350830078125</LatitudeDegrees>
              <LongitudeDegrees>-5.70166633464395999908447265625</LongitudeDegrees>
            </Position>
            <AltitudeMeters>814.79998779296875</AltitudeMeters>
            <DistanceMeters>NAN</DistanceMeters>
          </Trackpoint>
          <Trackpoint>
            <Time>2019-10-06T10:16:15.000Z</Time>
            <Position>
              <LatitudeDegrees>41.2099664099514484405517578125</LatitudeDegrees>
              <LongitudeDegrees>-5.7015795819461345672607421875</LongitudeDegrees>
            </Position>
            <AltitudeMeters>815.20001220703125</AltitudeMeters>
            <DistanceMeters>NAN</DistanceMeters>
          </Trackpoint>
          <Trackpoint>
            <Time>2019-10-06T10:16:17.000Z</Time>
            <Position>
              <LatitudeDegrees>41.2098562717437744140625</LatitudeDegrees>
              <LongitudeDegrees>-5.701549239456653594970703125</LongitudeDegrees>
            </Position>
            <AltitudeMeters>815</AltitudeMeters>
            <DistanceMeters>NAN</DistanceMeters>
          </Trackpoint>
          <Trackpoint>
            <Time>2019-10-06T10:16:27.000Z</Time>
            <Position>
              <LatitudeDegrees>41.20932586491107940673828125</LatitudeDegrees>
              <LongitudeDegrees>-5.70141948759555816650390625</LongitudeDegrees>
            </Position>
            <AltitudeMeters>814.79998779296875</AltitudeMeters>
            <DistanceMeters>NAN</DistanceMeters>
          </Trackpoint>
          <Trackpoint>
            <Time>2019-10-06T10:16:31.000Z</Time>
            <Position>
              <LatitudeDegrees>41.2091158144176006317138671875</LatitudeDegrees>
              <LongitudeDegrees>-5.7013643346726894378662109375</LongitudeDegrees>
            </Position>
            <AltitudeMeters>815.5999755859375</AltitudeMeters>
            <DistanceMeters>NAN</DistanceMeters>
          </Trackpoint>
          <Trackpoint>
            <Time>2019-10-06T10:16:41.000Z</Time>
            <Position>
              <LatitudeDegrees>41.20857526548206806182861328125</LatitudeDegrees>
              <LongitudeDegrees>-5.70123516954481601715087890625</LongitudeDegrees>
            </Position>
            <AltitudeMeters>816</AltitudeMeters>
            <DistanceMeters>NAN</DistanceMeters>
          </Trackpoint>
          <Trackpoint>
            <Time>2019-10-06T10:16:49.000Z</Time>
            <Position>
              <LatitudeDegrees>41.20813571847975254058837890625</LatitudeDegrees>
              <LongitudeDegrees>-5.7011138834059238433837890625</LongitudeDegrees>
            </Position>
            <AltitudeMeters>816.20001220703125</AltitudeMeters>
            <DistanceMeters>NAN</DistanceMeters>
          </Trackpoint>
          <Trackpoint>
            <Time>2019-10-06T10:16:53.000Z</Time>
            <Position>
              <LatitudeDegrees>41.20791636407375335693359375</LatitudeDegrees>
              <LongitudeDegrees>-5.70106350816786289215087890625</LongitudeDegrees>
            </Position>
            <AltitudeMeters>816</AltitudeMeters>
            <DistanceMeters>NAN</DistanceMeters>
          </Trackpoint>
          <Trackpoint>
            <Time>2019-10-06T10:17:03.000Z</Time>
            <Position>
              <LatitudeDegrees>41.20737346820533275604248046875</LatitudeDegrees>
              <LongitudeDegrees>-5.70093694142997264862060546875</LongitudeDegrees>
            </Position>
            <AltitudeMeters>816</AltitudeMeters>
            <DistanceMeters>NAN</DistanceMeters>
          </Trackpoint>
          <Trackpoint>
            <Time>2019-10-06T10:17:13.000Z</Time>
            <Position>
              <LatitudeDegrees>41.2068258784711360931396484375</LatitudeDegrees>
              <LongitudeDegrees>-5.7007940299808979034423828125</LongitudeDegrees>
            </Position>
            <AltitudeMeters>816.79998779296875</AltitudeMeters>
            <DistanceMeters>NAN</DistanceMeters>
          </Trackpoint>
          <Trackpoint>
            <Time>2019-10-06T10:17:19.000Z</Time>
            <Position>
              <LatitudeDegrees>41.20649940334260463714599609375</LatitudeDegrees>
              <LongitudeDegrees>-5.70071683265268802642822265625</LongitudeDegrees>
            </Position>
            <AltitudeMeters>817.4000244140625</AltitudeMeters>
            <DistanceMeters>NAN</DistanceMeters>
          </Trackpoint>
          <Trackpoint>
            <Time>2019-10-06T10:17:25.000Z</Time>
            <Position>
              <LatitudeDegrees>41.20616898871958255767822265625</LatitudeDegrees>
              <LongitudeDegrees>-5.70063603110611438751220703125</LongitudeDegrees>
            </Position>
            <AltitudeMeters>817.4000244140625</AltitudeMeters>
            <DistanceMeters>NAN</DistanceMeters>
          </Trackpoint>
          <Trackpoint>
            <Time>2019-10-06T10:17:35.000Z</Time>
            <Position>
              <LatitudeDegrees>41.20560907758772373199462890625</LatitudeDegrees>
              <LongitudeDegrees>-5.70049253292381763458251953125</LongitudeDegrees>
            </Position>
            <AltitudeMeters>818.20001220703125</AltitudeMeters>
            <DistanceMeters>NAN</DistanceMeters>
          </Trackpoint>
          <Trackpoint>
            <Time>2019-10-06T10:17:44.000Z</Time>
            <Position>
              <LatitudeDegrees>41.205103062093257904052734375</LatitudeDegrees>
              <LongitudeDegrees>-5.70036470890045166015625</LongitudeDegrees>
            </Position>
            <AltitudeMeters>818.4000244140625</AltitudeMeters>
            <DistanceMeters>NAN</DistanceMeters>
          </Trackpoint>
          <Trackpoint>
            <Time>2019-10-06T10:17:47.000Z</Time>
            <Position>
              <LatitudeDegrees>41.20493366383016109466552734375</LatitudeDegrees>
              <LongitudeDegrees>-5.70032020099461078643798828125</LongitudeDegrees>
            </Position>
            <AltitudeMeters>818.5999755859375</AltitudeMeters>
            <DistanceMeters>NAN</DistanceMeters>
          </Trackpoint>
          <Trackpoint>
            <Time>2019-10-06T10:17:54.000Z</Time>
            <Position>
              <LatitudeDegrees>41.2045419774949550628662109375</LatitudeDegrees>
              <LongitudeDegrees>-5.70022447966039180755615234375</LongitudeDegrees>
            </Position>
            <AltitudeMeters>819.4000244140625</AltitudeMeters>
            <DistanceMeters>NAN</DistanceMeters>
          </Trackpoint>
          <Trackpoint>
            <Time>2019-10-06T10:17:58.000Z</Time>
            <Position>
              <LatitudeDegrees>41.2043180130422115325927734375</LatitudeDegrees>
              <LongitudeDegrees>-5.7001675665378570556640625</LongitudeDegrees>
            </Position>
            <AltitudeMeters>819.5999755859375</AltitudeMeters>
            <DistanceMeters>NAN</DistanceMeters>
          </Trackpoint>
          <Trackpoint>
            <Time>2019-10-06T10:18:08.000Z</Time>
            <Position>
              <LatitudeDegrees>41.20376564562320709228515625</LatitudeDegrees>
              <LongitudeDegrees>-5.70003370754420757293701171875</LongitudeDegrees>
            </Position>
            <AltitudeMeters>820</AltitudeMeters>
            <DistanceMeters>NAN</DistanceMeters>
          </Trackpoint>
          <Trackpoint>
            <Time>2019-10-06T10:18:10.000Z</Time>
            <Position>
              <LatitudeDegrees>41.203653328120708465576171875</LatitudeDegrees>
              <LongitudeDegrees>-5.700008980929851531982421875</LongitudeDegrees>
            </Position>
            <AltitudeMeters>820</AltitudeMeters>
            <DistanceMeters>NAN</DistanceMeters>
          </Trackpoint>
          <Trackpoint>
            <Time>2019-10-06T10:18:12.000Z</Time>
            <Position>
              <LatitudeDegrees>41.203543357551097869873046875</LatitudeDegrees>
              <LongitudeDegrees>-5.69997855462133884429931640625</LongitudeDegrees>
            </Position>
            <AltitudeMeters>820.4000244140625</AltitudeMeters>
            <DistanceMeters>NAN</DistanceMeters>
          </Trackpoint>
          <Trackpoint>
            <Time>2019-10-06T10:18:20.000Z</Time>
            <Position>
              <LatitudeDegrees>41.20310355909168720245361328125</LatitudeDegrees>
              <LongitudeDegrees>-5.699869506061077117919921875</LongitudeDegrees>
            </Position>
            <AltitudeMeters>820.79998779296875</AltitudeMeters>
            <DistanceMeters>NAN</DistanceMeters>
          </Trackpoint>
          <Trackpoint>
            <Time>2019-10-06T10:18:24.000Z</Time>
            <Position>
              <LatitudeDegrees>41.2028843723237514495849609375</LatitudeDegrees>
              <LongitudeDegrees>-5.6998130120337009429931640625</LongitudeDegrees>
            </Position>
            <AltitudeMeters>821.5999755859375</AltitudeMeters>
            <DistanceMeters>NAN</DistanceMeters>
          </Trackpoint>
          <Trackpoint>
            <Time>2019-10-06T10:18:30.000Z</Time>
            <Position>
              <LatitudeDegrees>41.20255890302360057830810546875</LatitudeDegrees>
              <LongitudeDegrees>-5.69973380304872989654541015625</LongitudeDegrees>
            </Position>
            <AltitudeMeters>821</AltitudeMeters>
            <DistanceMeters>NAN</DistanceMeters>
          </Trackpoint>
          <Trackpoint>
            <Time>2019-10-06T10:18:40.000Z</Time>
            <Position>
              <LatitudeDegrees>41.2020210362970829010009765625</LatitudeDegrees>
              <LongitudeDegrees>-5.6995964236557483673095703125</LongitudeDegrees>
            </Position>
            <AltitudeMeters>821.79998779296875</AltitudeMeters>
            <DistanceMeters>NAN</DistanceMeters>
          </Trackpoint>
          <Trackpoint>
            <Time>2019-10-06T10:18:41.000Z</Time>
            <Position>
              <LatitudeDegrees>41.2019673921167850494384765625</LatitudeDegrees>
              <LongitudeDegrees>-5.699582509696483612060546875</LongitudeDegrees>
            </Position>
            <AltitudeMeters>822</AltitudeMeters>
            <DistanceMeters>NAN</DistanceMeters>
          </Trackpoint>
          <Trackpoint>
            <Time>2019-10-06T10:18:48.000Z</Time>
            <Position>
              <LatitudeDegrees>41.20159439742565155029296875</LatitudeDegrees>
              <LongitudeDegrees>-5.69948234595358371734619140625</LongitudeDegrees>
            </Position>
            <AltitudeMeters>822.5999755859375</AltitudeMeters>
            <DistanceMeters>NAN</DistanceMeters>
          </Trackpoint>
          <Trackpoint>
            <Time>2019-10-06T10:18:50.000Z</Time>
            <Position>
              <LatitudeDegrees>41.2014891207218170166015625</LatitudeDegrees>
              <LongitudeDegrees>-5.69945384748280048370361328125</LongitudeDegrees>
            </Position>
            <AltitudeMeters>822.4000244140625</AltitudeMeters>
            <DistanceMeters>NAN</DistanceMeters>
          </Trackpoint>
          <Trackpoint>
            <Time>2019-10-06T10:19:00.000Z</Time>
            <Position>
              <LatitudeDegrees>41.2009679339826107025146484375</LatitudeDegrees>
              <LongitudeDegrees>-5.69932979531586170196533203125</LongitudeDegrees>
            </Position>
            <AltitudeMeters>823.4000244140625</AltitudeMeters>
            <DistanceMeters>NAN</DistanceMeters>
          </Trackpoint>
          <Trackpoint>
            <Time>2019-10-06T10:19:01.000Z</Time>
            <Position>
              <LatitudeDegrees>41.200916804373264312744140625</LatitudeDegrees>
              <LongitudeDegrees>-5.6993147917091846466064453125</LongitudeDegrees>
            </Position>
            <AltitudeMeters>823.5999755859375</AltitudeMeters>
            <DistanceMeters>NAN</DistanceMeters>
          </Trackpoint>
          <Trackpoint>
            <Time>2019-10-06T10:19:02.000Z</Time>
            <Position>
              <LatitudeDegrees>41.2008656747639179229736328125</LatitudeDegrees>
              <LongitudeDegrees>-5.69930515252053737640380859375</LongitudeDegrees>
            </Position>
            <AltitudeMeters>823.5999755859375</AltitudeMeters>
            <DistanceMeters>NAN</DistanceMeters>
          </Trackpoint>
          <Trackpoint>
            <Time>2019-10-06T10:19:07.000Z</Time>
            <Position>
              <LatitudeDegrees>41.200611032545566558837890625</LatitudeDegrees>
              <LongitudeDegrees>-5.6992423720657825469970703125</LongitudeDegrees>
            </Position>
            <AltitudeMeters>824</AltitudeMeters>
            <DistanceMeters>NAN</DistanceMeters>
          </Trackpoint>
          <Trackpoint>
            <Time>2019-10-06T10:19:15.000Z</Time>
            <Position>
              <LatitudeDegrees>41.2002061866223812103271484375</LatitudeDegrees>
              <LongitudeDegrees>-5.69913835264742374420166015625</LongitudeDegrees>
            </Position>
            <AltitudeMeters>825</AltitudeMeters>
            <DistanceMeters>NAN</DistanceMeters>
          </Trackpoint>
          <Trackpoint>
            <Time>2019-10-06T10:19:25.000Z</Time>
            <Position>
              <LatitudeDegrees>41.19970838539302349090576171875</LatitudeDegrees>
              <LongitudeDegrees>-5.69901782087981700897216796875</LongitudeDegrees>
            </Position>
            <AltitudeMeters>825.4000244140625</AltitudeMeters>
            <DistanceMeters>NAN</DistanceMeters>
          </Trackpoint>
          <Trackpoint>
            <Time>2019-10-06T10:19:33.000Z</Time>
            <Position>
              <LatitudeDegrees>41.1993073113262653350830078125</LatitudeDegrees>
              <LongitudeDegrees>-5.69891438819468021392822265625</LongitudeDegrees>
            </Position>
            <AltitudeMeters>826.20001220703125</AltitudeMeters>
            <DistanceMeters>NAN</DistanceMeters>
          </Trackpoint>
          <Trackpoint>
            <Time>2019-10-06T10:19:34.000Z</Time>
            <Position>
              <LatitudeDegrees>41.19925760664045810699462890625</LatitudeDegrees>
              <LongitudeDegrees>-5.6989010609686374664306640625</LongitudeDegrees>
            </Position>
            <AltitudeMeters>826</AltitudeMeters>
            <DistanceMeters>NAN</DistanceMeters>
          </Trackpoint>
          <Trackpoint>
            <Time>2019-10-06T10:19:45.000Z</Time>
            <Position>
              <LatitudeDegrees>41.19869300164282321929931640625</LatitudeDegrees>
              <LongitudeDegrees>-5.698761083185672760009765625</LongitudeDegrees>
            </Position>
            <AltitudeMeters>827</AltitudeMeters>
            <DistanceMeters>NAN</DistanceMeters>
          </Trackpoint>
          <Trackpoint>
            <Time>2019-10-06T10:19:46.000Z</Time>
            <Position>
              <LatitudeDegrees>41.198641620576381683349609375</LatitudeDegrees>
              <LongitudeDegrees>-5.69874758832156658172607421875</LongitudeDegrees>
            </Position>
            <AltitudeMeters>826.79998779296875</AltitudeMeters>
            <DistanceMeters>NAN</DistanceMeters>
          </Trackpoint>
          <Trackpoint>
            <Time>2019-10-06T10:19:50.000Z</Time>
            <Position>
              <LatitudeDegrees>41.198433749377727508544921875</LatitudeDegrees>
              <LongitudeDegrees>-5.69869226776063442230224609375</LongitudeDegrees>
            </Position>
            <AltitudeMeters>827.5999755859375</AltitudeMeters>
            <DistanceMeters>NAN</DistanceMeters>
          </Trackpoint>
          <Trackpoint>
            <Time>2019-10-06T10:19:58.000Z</Time>
            <Position>
              <LatitudeDegrees>41.19801591150462627410888671875</LatitudeDegrees>
              <LongitudeDegrees>-5.698586069047451019287109375</LongitudeDegrees>
            </Position>
            <AltitudeMeters>827.79998779296875</AltitudeMeters>
            <DistanceMeters>NAN</DistanceMeters>
          </Trackpoint>
          <Trackpoint>
            <Time>2019-10-06T10:20:07.000Z</Time>
            <Position>
              <LatitudeDegrees>41.19754283688962459564208984375</LatitudeDegrees>
              <LongitudeDegrees>-5.69846595637500286102294921875</LongitudeDegrees>
            </Position>
            <AltitudeMeters>828.5999755859375</AltitudeMeters>
            <DistanceMeters>NAN</DistanceMeters>
          </Trackpoint>
          <Trackpoint>
            <Time>2019-10-06T10:20:09.000Z</Time>
            <Position>
              <LatitudeDegrees>41.197435297071933746337890625</LatitudeDegrees>
              <LongitudeDegrees>-5.69843812845647335052490234375</LongitudeDegrees>
            </Position>
            <AltitudeMeters>828.5999755859375</AltitudeMeters>
            <DistanceMeters>NAN</DistanceMeters>
          </Trackpoint>
          <Trackpoint>
            <Time>2019-10-06T10:20:19.000Z</Time>
            <Position>
              <LatitudeDegrees>41.1969147808849811553955078125</LatitudeDegrees>
              <LongitudeDegrees>-5.6983056105673313140869140625</LongitudeDegrees>
            </Position>
            <AltitudeMeters>829.4000244140625</AltitudeMeters>
            <DistanceMeters>NAN</DistanceMeters>
          </Trackpoint>
          <Trackpoint>
            <Time>2019-10-06T10:20:26.000Z</Time>
            <Position>
              <LatitudeDegrees>41.19655041955411434173583984375</LatitudeDegrees>
              <LongitudeDegrees>-5.698221959173679351806640625</LongitudeDegrees>
            </Position>
            <AltitudeMeters>829.79998779296875</AltitudeMeters>
            <DistanceMeters>NAN</DistanceMeters>
          </Trackpoint>
          <Trackpoint>
            <Time>2019-10-06T10:20:29.000Z</Time>
            <Position>
              <LatitudeDegrees>41.19639719836413860321044921875</LatitudeDegrees>
              <LongitudeDegrees>-5.69818080402910709381103515625</LongitudeDegrees>
            </Position>
            <AltitudeMeters>829.5999755859375</AltitudeMeters>
            <DistanceMeters>NAN</DistanceMeters>
          </Trackpoint>
          <Trackpoint>
            <Time>2019-10-06T10:20:40.000Z</Time>
            <Position>
              <LatitudeDegrees>41.19583326391875743865966796875</LatitudeDegrees>
              <LongitudeDegrees>-5.698036216199398040771484375</LongitudeDegrees>
            </Position>
            <AltitudeMeters>830.20001220703125</AltitudeMeters>
            <DistanceMeters>NAN</DistanceMeters>
          </Trackpoint>
          <Trackpoint>
            <Time>2019-10-06T10:20:41.000Z</Time>
            <Position>
              <LatitudeDegrees>41.19578213430941104888916015625</LatitudeDegrees>
              <LongitudeDegrees>-5.6980196200311183929443359375</LongitudeDegrees>
            </Position>
            <AltitudeMeters>830.20001220703125</AltitudeMeters>
            <DistanceMeters>NAN</DistanceMeters>
          </Trackpoint>
          <Trackpoint>
            <Time>2019-10-06T10:20:50.000Z</Time>
            <Position>
              <LatitudeDegrees>41.19530168361961841583251953125</LatitudeDegrees>
              <LongitudeDegrees>-5.69789640605449676513671875</LongitudeDegrees>
            </Position>
            <AltitudeMeters>830.20001220703125</AltitudeMeters>
            <DistanceMeters>NAN</DistanceMeters>
          </Trackpoint>
          <Trackpoint>
            <Time>2019-10-06T10:20:57.000Z</Time>
            <Position>
              <LatitudeDegrees>41.19492449797689914703369140625</LatitudeDegrees>
              <LongitudeDegrees>-5.697803534567356109619140625</LongitudeDegrees>
            </Position>
            <AltitudeMeters>830</AltitudeMeters>
            <DistanceMeters>NAN</DistanceMeters>
          </Trackpoint>
          <Trackpoint>
            <Time>2019-10-06T10:21:02.000Z</Time>
            <Position>
              <LatitudeDegrees>41.1946483142673969268798828125</LatitudeDegrees>
              <LongitudeDegrees>-5.69773337803781032562255859375</LongitudeDegrees>
            </Position>
            <AltitudeMeters>830.4000244140625</AltitudeMeters>
            <DistanceMeters>NAN</DistanceMeters>
          </Trackpoint>
          <Trackpoint>
            <Time>2019-10-06T10:21:10.000Z</Time>
            <Position>
              <LatitudeDegrees>41.1941742338240146636962890625</LatitudeDegrees>
              <LongitudeDegrees>-5.6976142711937427520751953125</LongitudeDegrees>
            </Position>
            <AltitudeMeters>829.4000244140625</AltitudeMeters>
            <DistanceMeters>NAN</DistanceMeters>
          </Trackpoint>
          <Trackpoint>
            <Time>2019-10-06T10:21:18.000Z</Time>
            <Position>
              <LatitudeDegrees>41.1936785280704498291015625</LatitudeDegrees>
              <LongitudeDegrees>-5.697488375008106231689453125</LongitudeDegrees>
            </Position>
            <AltitudeMeters>829.20001220703125</AltitudeMeters>
            <DistanceMeters>NAN</DistanceMeters>
          </Trackpoint>
          <Trackpoint>
            <Time>2019-10-06T10:21:26.000Z</Time>
            <Position>
              <LatitudeDegrees>41.19316379539668560028076171875</LatitudeDegrees>
              <LongitudeDegrees>-5.69735996425151824951171875</LongitudeDegrees>
            </Position>
            <AltitudeMeters>828.5999755859375</AltitudeMeters>
            <DistanceMeters>NAN</DistanceMeters>
          </Trackpoint>
          <Trackpoint>
            <Time>2019-10-06T10:21:28.000Z</Time>
            <Position>
              <LatitudeDegrees>41.19303278625011444091796875</LatitudeDegrees>
              <LongitudeDegrees>-5.697328783571720123291015625</LongitudeDegrees>
            </Position>
            <AltitudeMeters>828.20001220703125</AltitudeMeters>
            <DistanceMeters>NAN</DistanceMeters>
          </Trackpoint>
          <Trackpoint>
            <Time>2019-10-06T10:21:36.000Z</Time>
            <Position>
              <LatitudeDegrees>41.19248972274363040924072265625</LatitudeDegrees>
              <LongitudeDegrees>-5.69719257764518260955810546875</LongitudeDegrees>
            </Position>
            <AltitudeMeters>827.5999755859375</AltitudeMeters>
            <DistanceMeters>NAN</DistanceMeters>
          </Trackpoint>
          <Trackpoint>
            <Time>2019-10-06T10:21:40.000Z</Time>
            <Position>
              <LatitudeDegrees>41.19220624677836894989013671875</LatitudeDegrees>
              <LongitudeDegrees>-5.6971190683543682098388671875</LongitudeDegrees>
            </Position>
            <AltitudeMeters>827.20001220703125</AltitudeMeters>
            <DistanceMeters>NAN</DistanceMeters>
          </Trackpoint>
          <Trackpoint>
            <Time>2019-10-06T10:21:46.000Z</Time>
            <Position>
              <LatitudeDegrees>41.19177860207855701446533203125</LatitudeDegrees>
              <LongitudeDegrees>-5.69701052270829677581787109375</LongitudeDegrees>
            </Position>
            <AltitudeMeters>826</AltitudeMeters>
            <DistanceMeters>NAN</DistanceMeters>
          </Trackpoint>
          <Trackpoint>
            <Time>2019-10-06T10:21:54.000Z</Time>
            <Position>
              <LatitudeDegrees>41.19121693074703216552734375</LatitudeDegrees>
              <LongitudeDegrees>-5.69686601869761943817138671875</LongitudeDegrees>
            </Position>
            <AltitudeMeters>826</AltitudeMeters>
            <DistanceMeters>NAN</DistanceMeters>
          </Trackpoint>
          <Trackpoint>
            <Time>2019-10-06T10:21:55.000Z</Time>
            <Position>
              <LatitudeDegrees>41.1911465227603912353515625</LatitudeDegrees>
              <LongitudeDegrees>-5.69684824906289577484130859375</LongitudeDegrees>
            </Position>
            <AltitudeMeters>826</AltitudeMeters>
            <DistanceMeters>NAN</DistanceMeters>
          </Trackpoint>
          <Trackpoint>
            <Time>2019-10-06T10:22:03.000Z</Time>
            <Position>
              <LatitudeDegrees>41.1905861087143421173095703125</LatitudeDegrees>
              <LongitudeDegrees>-5.696703493595123291015625</LongitudeDegrees>
            </Position>
            <AltitudeMeters>826</AltitudeMeters>
            <DistanceMeters>NAN</DistanceMeters>
          </Trackpoint>
          <Trackpoint>
            <Time>2019-10-06T10:22:07.000Z</Time>
            <Position>
              <LatitudeDegrees>41.19030824862420558929443359375</LatitudeDegrees>
              <LongitudeDegrees>-5.69663199596107006072998046875</LongitudeDegrees>
            </Position>
            <AltitudeMeters>826.5999755859375</AltitudeMeters>
            <DistanceMeters>NAN</DistanceMeters>
          </Trackpoint>
          <Trackpoint>
            <Time>2019-10-06T10:22:13.000Z</Time>
            <Position>
              <LatitudeDegrees>41.18989367969334125518798828125</LatitudeDegrees>
              <LongitudeDegrees>-5.69653275422751903533935546875</LongitudeDegrees>
            </Position>
            <AltitudeMeters>826.20001220703125</AltitudeMeters>
            <DistanceMeters>NAN</DistanceMeters>
          </Trackpoint>
          <Trackpoint>
            <Time>2019-10-06T10:22:18.000Z</Time>
            <Position>
              <LatitudeDegrees>41.189558319747447967529296875</LatitudeDegrees>
              <LongitudeDegrees>-5.6964505277574062347412109375</LongitudeDegrees>
            </Position>
            <AltitudeMeters>826.79998779296875</AltitudeMeters>
            <DistanceMeters>NAN</DistanceMeters>
          </Trackpoint>
          <Trackpoint>
            <Time>2019-10-06T10:22:23.000Z</Time>
            <Position>
              <LatitudeDegrees>41.18921793065965175628662109375</LatitudeDegrees>
              <LongitudeDegrees>-5.696365199983119964599609375</LongitudeDegrees>
            </Position>
            <AltitudeMeters>827.20001220703125</AltitudeMeters>
            <DistanceMeters>NAN</DistanceMeters>
          </Trackpoint>
          <Trackpoint>
            <Time>2019-10-06T10:22:29.000Z</Time>
            <Position>
              <LatitudeDegrees>41.188812665641307830810546875</LatitudeDegrees>
              <LongitudeDegrees>-5.69626688025891780853271484375</LongitudeDegrees>
            </Position>
            <AltitudeMeters>827.4000244140625</AltitudeMeters>
            <DistanceMeters>NAN</DistanceMeters>
          </Trackpoint>
          <Trackpoint>
            <Time>2019-10-06T10:22:37.000Z</Time>
            <Position>
              <LatitudeDegrees>41.18827932514250278472900390625</LatitudeDegrees>
              <LongitudeDegrees>-5.6961286626756191253662109375</LongitudeDegrees>
            </Position>
            <AltitudeMeters>828.20001220703125</AltitudeMeters>
            <DistanceMeters>NAN</DistanceMeters>
          </Trackpoint>
          <Trackpoint>
            <Time>2019-10-06T10:22:41.000Z</Time>
            <Position>
              <LatitudeDegrees>41.18801965378224849700927734375</LatitudeDegrees>
              <LongitudeDegrees>-5.69606043398380279541015625</LongitudeDegrees>
            </Position>
            <AltitudeMeters>828</AltitudeMeters>
            <DistanceMeters>NAN</DistanceMeters>
          </Trackpoint>
          <Trackpoint>
            <Time>2019-10-06T10:22:42.000Z</Time>
            <Position>
              <LatitudeDegrees>41.18795402348041534423828125</LatitudeDegrees>
              <LongitudeDegrees>-5.696044676005840301513671875</LongitudeDegrees>
            </Position>
            <AltitudeMeters>828.20001220703125</AltitudeMeters>
            <DistanceMeters>NAN</DistanceMeters>
          </Trackpoint>
          <Trackpoint>
            <Time>2019-10-06T10:22:50.000Z</Time>
            <Position>
              <LatitudeDegrees>41.18742168880999088287353515625</LatitudeDegrees>
              <LongitudeDegrees>-5.69591224193572998046875</LongitudeDegrees>
            </Position>
            <AltitudeMeters>828.5999755859375</AltitudeMeters>
            <DistanceMeters>NAN</DistanceMeters>
          </Trackpoint>
          <Trackpoint>
            <Time>2019-10-06T10:22:52.000Z</Time>
            <Position>
              <LatitudeDegrees>41.18728883564472198486328125</LatitudeDegrees>
              <LongitudeDegrees>-5.69587695412337779998779296875</LongitudeDegrees>
            </Position>
            <AltitudeMeters>828.5999755859375</AltitudeMeters>
            <DistanceMeters>NAN</DistanceMeters>
          </Trackpoint>
          <Trackpoint>
            <Time>2019-10-06T10:23:00.000Z</Time>
            <Position>
              <LatitudeDegrees>41.18675063364207744598388671875</LatitudeDegrees>
              <LongitudeDegrees>-5.695739574730396270751953125</LongitudeDegrees>
            </Position>
            <AltitudeMeters>829.20001220703125</AltitudeMeters>
            <DistanceMeters>NAN</DistanceMeters>
          </Trackpoint>
          <Trackpoint>
            <Time>2019-10-06T10:23:05.000Z</Time>
            <Position>
              <LatitudeDegrees>41.18641703389585018157958984375</LatitudeDegrees>
              <LongitudeDegrees>-5.6956532411277294158935546875</LongitudeDegrees>
            </Position>
            <AltitudeMeters>829</AltitudeMeters>
            <DistanceMeters>NAN</DistanceMeters>
          </Trackpoint>
          <Trackpoint>
            <Time>2019-10-06T10:23:13.000Z</Time>
            <Position>
              <LatitudeDegrees>41.18589819408953189849853515625</LatitudeDegrees>
              <LongitudeDegrees>-5.69552742876112461090087890625</LongitudeDegrees>
            </Position>
            <AltitudeMeters>829.79998779296875</AltitudeMeters>
            <DistanceMeters>NAN</DistanceMeters>
          </Trackpoint>
          <Trackpoint>
            <Time>2019-10-06T10:23:15.000Z</Time>
            <Position>
              <LatitudeDegrees>41.185775063931941986083984375</LatitudeDegrees>
              <LongitudeDegrees>-5.6954929791390895843505859375</LongitudeDegrees>
            </Position>
            <AltitudeMeters>829.5999755859375</AltitudeMeters>
            <DistanceMeters>NAN</DistanceMeters>
          </Trackpoint>
          <Trackpoint>
            <Time>2019-10-06T10:23:19.000Z</Time>
            <Position>
              <LatitudeDegrees>41.18553006090223789215087890625</LatitudeDegrees>
              <LongitudeDegrees>-5.695425756275653839111328125</LongitudeDegrees>
            </Position>
            <AltitudeMeters>830.4000244140625</AltitudeMeters>
            <DistanceMeters>NAN</DistanceMeters>
          </Trackpoint>
          <Trackpoint>
            <Time>2019-10-06T10:23:25.000Z</Time>
            <Position>
              <LatitudeDegrees>41.18516712449491024017333984375</LatitudeDegrees>
              <LongitudeDegrees>-5.695336572825908660888671875</LongitudeDegrees>
            </Position>
            <AltitudeMeters>830.5999755859375</AltitudeMeters>
            <DistanceMeters>NAN</DistanceMeters>
          </Trackpoint>
          <Trackpoint>
            <Time>2019-10-06T10:23:34.000Z</Time>
            <Position>
              <LatitudeDegrees>41.18462028913199901580810546875</LatitudeDegrees>
              <LongitudeDegrees>-5.69519969634711742401123046875</LongitudeDegrees>
            </Position>
            <AltitudeMeters>831</AltitudeMeters>
            <DistanceMeters>NAN</DistanceMeters>
          </Trackpoint>
          <Trackpoint>
            <Time>2019-10-06T10:23:43.000Z</Time>
            <Position>
              <LatitudeDegrees>41.1840653233230113983154296875</LatitudeDegrees>
              <LongitudeDegrees>-5.6950618140399456024169921875</LongitudeDegrees>
            </Position>
            <AltitudeMeters>831.20001220703125</AltitudeMeters>
            <DistanceMeters>NAN</DistanceMeters>
          </Trackpoint>
          <Trackpoint>
            <Time>2019-10-06T10:23:44.000Z</Time>
            <Position>
              <LatitudeDegrees>41.18400321342051029205322265625</LatitudeDegrees>
              <LongitudeDegrees>-5.6950473971664905548095703125</LongitudeDegrees>
            </Position>
            <AltitudeMeters>831.20001220703125</AltitudeMeters>
            <DistanceMeters>NAN</DistanceMeters>
          </Trackpoint>
          <Trackpoint>
            <Time>2019-10-06T10:23:48.000Z</Time>
            <Position>
              <LatitudeDegrees>41.18374966084957122802734375</LatitudeDegrees>
              <LongitudeDegrees>-5.69498662836849689483642578125</LongitudeDegrees>
            </Position>
            <AltitudeMeters>831.5999755859375</AltitudeMeters>
            <DistanceMeters>NAN</DistanceMeters>
          </Trackpoint>
          <Trackpoint>
            <Time>2019-10-06T10:23:54.000Z</Time>
            <Position>
              <LatitudeDegrees>41.18337557651102542877197265625</LatitudeDegrees>
              <LongitudeDegrees>-5.69488872773945331573486328125</LongitudeDegrees>
            </Position>
            <AltitudeMeters>832.20001220703125</AltitudeMeters>
            <DistanceMeters>NAN</DistanceMeters>
          </Trackpoint>
          <Trackpoint>
            <Time>2019-10-06T10:24:03.000Z</Time>
            <Position>
              <LatitudeDegrees>41.1828083731234073638916015625</LatitudeDegrees>
              <LongitudeDegrees>-5.69473818875849246978759765625</LongitudeDegrees>
            </Position>
            <AltitudeMeters>832.20001220703125</AltitudeMeters>
            <DistanceMeters>NAN</DistanceMeters>
          </Trackpoint>
          <Trackpoint>
            <Time>2019-10-06T10:24:05.000Z</Time>
            <Position>
              <LatitudeDegrees>41.18268423713743686676025390625</LatitudeDegrees>
              <LongitudeDegrees>-5.694707930088043212890625</LongitudeDegrees>
            </Position>
            <AltitudeMeters>832.4000244140625</AltitudeMeters>
            <DistanceMeters>NAN</DistanceMeters>
          </Trackpoint>
          <Trackpoint>
            <Time>2019-10-06T10:24:06.000Z</Time>
            <Position>
              <LatitudeDegrees>41.1826209537684917449951171875</LatitudeDegrees>
              <LongitudeDegrees>-5.694691836833953857421875</LongitudeDegrees>
            </Position>
            <AltitudeMeters>832.79998779296875</AltitudeMeters>
            <DistanceMeters>NAN</DistanceMeters>
          </Trackpoint>
          <Trackpoint>
            <Time>2019-10-06T10:24:15.000Z</Time>
            <Position>
              <LatitudeDegrees>41.1820431053638458251953125</LatitudeDegrees>
              <LongitudeDegrees>-5.6945562176406383514404296875</LongitudeDegrees>
            </Position>
            <AltitudeMeters>832.20001220703125</AltitudeMeters>
            <DistanceMeters>NAN</DistanceMeters>
          </Trackpoint>
          <Trackpoint>
            <Time>2019-10-06T10:24:18.000Z</Time>
            <Position>
              <LatitudeDegrees>41.18185007013380527496337890625</LatitudeDegrees>
              <LongitudeDegrees>-5.69451942108571529388427734375</LongitudeDegrees>
            </Position>
            <AltitudeMeters>831.79998779296875</AltitudeMeters>
            <DistanceMeters>NAN</DistanceMeters>
          </Trackpoint>
          <Trackpoint>
            <Time>2019-10-06T10:24:20.000Z</Time>
            <Position>
              <LatitudeDegrees>41.1817204020917415618896484375</LatitudeDegrees>
              <LongitudeDegrees>-5.694493688642978668212890625</LongitudeDegrees>
            </Position>
            <AltitudeMeters>832.79998779296875</AltitudeMeters>
            <DistanceMeters>NAN</DistanceMeters>
          </Trackpoint>
          <Trackpoint>
            <Time>2019-10-06T10:24:25.000Z</Time>
            <Position>
              <LatitudeDegrees>41.18139074184000492095947265625</LatitudeDegrees>
              <LongitudeDegrees>-5.69443157874047756195068359375</LongitudeDegrees>
            </Position>
            <AltitudeMeters>833</AltitudeMeters>
            <DistanceMeters>NAN</DistanceMeters>
          </Trackpoint>
          <Trackpoint>
            <Time>2019-10-06T10:24:33.000Z</Time>
            <Position>
              <LatitudeDegrees>41.1808483488857746124267578125</LatitudeDegrees>
              <LongitudeDegrees>-5.69437441416084766387939453125</LongitudeDegrees>
            </Position>
            <AltitudeMeters>832.4000244140625</AltitudeMeters>
            <DistanceMeters>NAN</DistanceMeters>
          </Trackpoint>
          <Trackpoint>
            <Time>2019-10-06T10:24:35.000Z</Time>
            <Position>
              <LatitudeDegrees>41.1807112209498882293701171875</LatitudeDegrees>
              <LongitudeDegrees>-5.69436636753380298614501953125</LongitudeDegrees>
            </Position>
            <AltitudeMeters>831.79998779296875</AltitudeMeters>
            <DistanceMeters>NAN</DistanceMeters>
          </Trackpoint>
          <Trackpoint>
            <Time>2019-10-06T10:24:40.000Z</Time>
            <Position>
              <LatitudeDegrees>41.18036337196826934814453125</LatitudeDegrees>
              <LongitudeDegrees>-5.6943557225167751312255859375</LongitudeDegrees>
            </Position>
            <AltitudeMeters>831.79998779296875</AltitudeMeters>
            <DistanceMeters>NAN</DistanceMeters>
          </Trackpoint>
          <Trackpoint>
            <Time>2019-10-06T10:24:44.000Z</Time>
            <Position>
              <LatitudeDegrees>41.180075705051422119140625</LatitudeDegrees>
              <LongitudeDegrees>-5.69435262121260166168212890625</LongitudeDegrees>
            </Position>
            <AltitudeMeters>831</AltitudeMeters>
            <DistanceMeters>NAN</DistanceMeters>
          </Trackpoint>
          <Trackpoint>
            <Time>2019-10-06T10:24:49.000Z</Time>
            <Position>
              <LatitudeDegrees>41.17970287799835205078125</LatitudeDegrees>
              <LongitudeDegrees>-5.6943620927631855010986328125</LongitudeDegrees>
            </Position>
            <AltitudeMeters>830.79998779296875</AltitudeMeters>
            <DistanceMeters>NAN</DistanceMeters>
          </Trackpoint>
          <Trackpoint>
            <Time>2019-10-06T10:24:53.000Z</Time>
            <Position>
              <LatitudeDegrees>41.17939601652324199676513671875</LatitudeDegrees>
              <LongitudeDegrees>-5.69437709636986255645751953125</LongitudeDegrees>
            </Position>
            <AltitudeMeters>830.4000244140625</AltitudeMeters>
            <DistanceMeters>NAN</DistanceMeters>
          </Trackpoint>
          <Trackpoint>
            <Time>2019-10-06T10:24:55.000Z</Time>
            <Position>
              <LatitudeDegrees>41.17924011312425136566162109375</LatitudeDegrees>
              <LongitudeDegrees>-5.6943832151591777801513671875</LongitudeDegrees>
            </Position>
            <AltitudeMeters>829.79998779296875</AltitudeMeters>
            <DistanceMeters>NAN</DistanceMeters>
          </Trackpoint>
          <Trackpoint>
            <Time>2019-10-06T10:25:01.000Z</Time>
            <Position>
              <LatitudeDegrees>41.1787622608244419097900390625</LatitudeDegrees>
              <LongitudeDegrees>-5.6944053433835506439208984375</LongitudeDegrees>
            </Position>
            <AltitudeMeters>828.5999755859375</AltitudeMeters>
            <DistanceMeters>NAN</DistanceMeters>
          </Trackpoint>
          <Trackpoint>
            <Time>2019-10-06T10:25:02.000Z</Time>
            <Position>
              <LatitudeDegrees>41.17867894470691680908203125</LatitudeDegrees>
              <LongitudeDegrees>-5.69440928287804126739501953125</LongitudeDegrees>
            </Position>
            <AltitudeMeters>828.4000244140625</AltitudeMeters>
            <DistanceMeters>NAN</DistanceMeters>
          </Trackpoint>
          <Trackpoint>
            <Time>2019-10-06T10:25:09.000Z</Time>
            <Position>
              <LatitudeDegrees>41.178065054118633270263671875</LatitudeDegrees>
              <LongitudeDegrees>-5.69443275220692157745361328125</LongitudeDegrees>
            </Position>
            <AltitudeMeters>826.79998779296875</AltitudeMeters>
            <DistanceMeters>NAN</DistanceMeters>
          </Trackpoint>
          <Trackpoint>
            <Time>2019-10-06T10:25:11.000Z</Time>
            <Position>
              <LatitudeDegrees>41.1778803169727325439453125</LatitudeDegrees>
              <LongitudeDegrees>-5.69444063119590282440185546875</LongitudeDegrees>
            </Position>
            <AltitudeMeters>826.79998779296875</AltitudeMeters>
            <DistanceMeters>NAN</DistanceMeters>
          </Trackpoint>
          <Trackpoint>
            <Time>2019-10-06T10:25:16.000Z</Time>
            <Position>
              <LatitudeDegrees>41.17740464396774768829345703125</LatitudeDegrees>
              <LongitudeDegrees>-5.69445672444999217987060546875</LongitudeDegrees>
            </Position>
            <AltitudeMeters>825.79998779296875</AltitudeMeters>
            <DistanceMeters>NAN</DistanceMeters>
          </Trackpoint>
          <Trackpoint>
            <Time>2019-10-06T10:25:19.000Z</Time>
            <Position>
              <LatitudeDegrees>41.17710717022418975830078125</LatitudeDegrees>
              <LongitudeDegrees>-5.694470219314098358154296875</LongitudeDegrees>
            </Position>
            <AltitudeMeters>824.5999755859375</AltitudeMeters>
            <DistanceMeters>NAN</DistanceMeters>
          </Trackpoint>
          <Trackpoint>
            <Time>2019-10-06T10:25:21.000Z</Time>
            <Position>
              <LatitudeDegrees>41.17690323852002620697021484375</LatitudeDegrees>
              <LongitudeDegrees>-5.69448052905499935150146484375</LongitudeDegrees>
            </Position>
            <AltitudeMeters>824.4000244140625</AltitudeMeters>
            <DistanceMeters>NAN</DistanceMeters>
          </Trackpoint>
          <Trackpoint>
            <Time>2019-10-06T10:25:22.000Z</Time>
            <Position>
              <LatitudeDegrees>41.17680047638714313507080078125</LatitudeDegrees>
              <LongitudeDegrees>-5.69448270834982395172119140625</LongitudeDegrees>
            </Position>
            <AltitudeMeters>823.5999755859375</AltitudeMeters>
            <DistanceMeters>NAN</DistanceMeters>
          </Trackpoint>
          <Trackpoint>
            <Time>2019-10-06T10:25:27.000Z</Time>
            <Position>
              <LatitudeDegrees>41.17626772262156009674072265625</LatitudeDegrees>
              <LongitudeDegrees>-5.6945054233074188232421875</LongitudeDegrees>
            </Position>
            <AltitudeMeters>822.20001220703125</AltitudeMeters>
            <DistanceMeters>NAN</DistanceMeters>
          </Trackpoint>
          <Trackpoint>
            <Time>2019-10-06T10:25:29.000Z</Time>
            <Position>
              <LatitudeDegrees>41.1760539002716541290283203125</LatitudeDegrees>
              <LongitudeDegrees>-5.694514475762844085693359375</LongitudeDegrees>
            </Position>
            <AltitudeMeters>820.79998779296875</AltitudeMeters>
            <DistanceMeters>NAN</DistanceMeters>
          </Trackpoint>
          <Trackpoint>
            <Time>2019-10-06T10:25:33.000Z</Time>
            <Position>
              <LatitudeDegrees>41.175622232258319854736328125</LatitudeDegrees>
              <LongitudeDegrees>-5.69453467614948749542236328125</LongitudeDegrees>
            </Position>
            <AltitudeMeters>819.79998779296875</AltitudeMeters>
            <DistanceMeters>NAN</DistanceMeters>
          </Trackpoint>
          <Trackpoint>
            <Time>2019-10-06T10:25:35.000Z</Time>
            <Position>
              <LatitudeDegrees>41.175407655537128448486328125</LatitudeDegrees>
              <LongitudeDegrees>-5.69454154931008815765380859375</LongitudeDegrees>
            </Position>
            <AltitudeMeters>818.5999755859375</AltitudeMeters>
            <DistanceMeters>NAN</DistanceMeters>
          </Trackpoint>
          <Trackpoint>
            <Time>2019-10-06T10:25:39.000Z</Time>
            <Position>
              <LatitudeDegrees>41.17498663254082202911376953125</LatitudeDegrees>
              <LongitudeDegrees>-5.69456040859222412109375</LongitudeDegrees>
            </Position>
            <AltitudeMeters>818.20001220703125</AltitudeMeters>
            <DistanceMeters>NAN</DistanceMeters>
          </Trackpoint>
          <Trackpoint>
            <Time>2019-10-06T10:25:44.000Z</Time>
            <Position>
              <LatitudeDegrees>41.174469552934169769287109375</LatitudeDegrees>
              <LongitudeDegrees>-5.69458278827369213104248046875</LongitudeDegrees>
            </Position>
            <AltitudeMeters>817.4000244140625</AltitudeMeters>
            <DistanceMeters>NAN</DistanceMeters>
          </Trackpoint>
          <Trackpoint>
            <Time>2019-10-06T10:25:45.000Z</Time>
            <Position>
              <LatitudeDegrees>41.1743681319057941436767578125</LatitudeDegrees>
              <LongitudeDegrees>-5.6945873983204364776611328125</LongitudeDegrees>
            </Position>
            <AltitudeMeters>816.4000244140625</AltitudeMeters>
            <DistanceMeters>NAN</DistanceMeters>
          </Trackpoint>
          <Trackpoint>
            <Time>2019-10-06T10:25:49.000Z</Time>
            <Position>
              <LatitudeDegrees>41.173972003161907196044921875</LatitudeDegrees>
              <LongitudeDegrees>-5.694604329764842987060546875</LongitudeDegrees>
            </Position>
            <AltitudeMeters>816.5999755859375</AltitudeMeters>
            <DistanceMeters>NAN</DistanceMeters>
          </Trackpoint>
          <Trackpoint>
            <Time>2019-10-06T10:25:53.000Z</Time>
            <Position>
              <LatitudeDegrees>41.17358853109180927276611328125</LatitudeDegrees>
              <LongitudeDegrees>-5.69462411105632781982421875</LongitudeDegrees>
            </Position>
            <AltitudeMeters>816.20001220703125</AltitudeMeters>
            <DistanceMeters>NAN</DistanceMeters>
          </Trackpoint>
          <Trackpoint>
            <Time>2019-10-06T10:25:58.000Z</Time>
            <Position>
              <LatitudeDegrees>41.1731125228106975555419921875</LatitudeDegrees>
              <LongitudeDegrees>-5.6946443952620029449462890625</LongitudeDegrees>
            </Position>
            <AltitudeMeters>815.4000244140625</AltitudeMeters>
            <DistanceMeters>NAN</DistanceMeters>
          </Trackpoint>
          <Trackpoint>
            <Time>2019-10-06T10:25:59.000Z</Time>
            <Position>
              <LatitudeDegrees>41.17301872931420803070068359375</LatitudeDegrees>
              <LongitudeDegrees>-5.69465219043195247650146484375</LongitudeDegrees>
            </Position>
            <AltitudeMeters>815.20001220703125</AltitudeMeters>
            <DistanceMeters>NAN</DistanceMeters>
          </Trackpoint>
          <Trackpoint>
            <Time>2019-10-06T10:26:05.000Z</Time>
            <Position>
              <LatitudeDegrees>41.1724627576768398284912109375</LatitudeDegrees>
              <LongitudeDegrees>-5.6946715526282787322998046875</LongitudeDegrees>
            </Position>
            <AltitudeMeters>814.79998779296875</AltitudeMeters>
            <DistanceMeters>NAN</DistanceMeters>
          </Trackpoint>
          <Trackpoint>
            <Time>2019-10-06T10:26:08.000Z</Time>
            <Position>
              <LatitudeDegrees>41.17219160310924053192138671875</LatitudeDegrees>
              <LongitudeDegrees>-5.6946816109120845794677734375</LongitudeDegrees>
            </Position>
            <AltitudeMeters>815</AltitudeMeters>
            <DistanceMeters>NAN</DistanceMeters>
          </Trackpoint>
          <Trackpoint>
            <Time>2019-10-06T10:26:14.000Z</Time>
            <Position>
              <LatitudeDegrees>41.171657256782054901123046875</LatitudeDegrees>
              <LongitudeDegrees>-5.69469594396650791168212890625</LongitudeDegrees>
            </Position>
            <AltitudeMeters>814.79998779296875</AltitudeMeters>
            <DistanceMeters>NAN</DistanceMeters>
          </Trackpoint>
          <Trackpoint>
            <Time>2019-10-06T10:26:17.000Z</Time>
            <Position>
              <LatitudeDegrees>41.17139272391796112060546875</LatitudeDegrees>
              <LongitudeDegrees>-5.6947131268680095672607421875</LongitudeDegrees>
            </Position>
            <AltitudeMeters>815</AltitudeMeters>
            <DistanceMeters>NAN</DistanceMeters>
          </Trackpoint>
          <Trackpoint>
            <Time>2019-10-06T10:26:23.000Z</Time>
            <Position>
              <LatitudeDegrees>41.1708644963800907135009765625</LatitudeDegrees>
              <LongitudeDegrees>-5.69472729228436946868896484375</LongitudeDegrees>
            </Position>
            <AltitudeMeters>815</AltitudeMeters>
            <DistanceMeters>NAN</DistanceMeters>
          </Trackpoint>
          <Trackpoint>
            <Time>2019-10-06T10:26:27.000Z</Time>
            <Position>
              <LatitudeDegrees>41.17052159272134304046630859375</LatitudeDegrees>
              <LongitudeDegrees>-5.6947456486523151397705078125</LongitudeDegrees>
            </Position>
            <AltitudeMeters>814.5999755859375</AltitudeMeters>
            <DistanceMeters>NAN</DistanceMeters>
          </Trackpoint>
          <Trackpoint>
            <Time>2019-10-06T10:26:34.000Z</Time>
            <Position>
              <LatitudeDegrees>41.1699585802853107452392578125</LatitudeDegrees>
              <LongitudeDegrees>-5.6947681121528148651123046875</LongitudeDegrees>
            </Position>
            <AltitudeMeters>815.20001220703125</AltitudeMeters>
            <DistanceMeters>NAN</DistanceMeters>
          </Trackpoint>
          <Trackpoint>
            <Time>2019-10-06T10:26:41.000Z</Time>
            <Position>
              <LatitudeDegrees>41.169425658881664276123046875</LatitudeDegrees>
              <LongitudeDegrees>-5.69478479214012622833251953125</LongitudeDegrees>
            </Position>
            <AltitudeMeters>815.79998779296875</AltitudeMeters>
            <DistanceMeters>NAN</DistanceMeters>
          </Trackpoint>
          <Trackpoint>
            <Time>2019-10-06T10:26:43.000Z</Time>
            <Position>
              <LatitudeDegrees>41.16927470080554485321044921875</LatitudeDegrees>
              <LongitudeDegrees>-5.69479401223361492156982421875</LongitudeDegrees>
            </Position>
            <AltitudeMeters>815.79998779296875</AltitudeMeters>
            <DistanceMeters>NAN</DistanceMeters>
          </Trackpoint>
          <Trackpoint>
            <Time>2019-10-06T10:26:48.000Z</Time>
            <Position>
              <LatitudeDegrees>41.16891193203628063201904296875</LatitudeDegrees>
              <LongitudeDegrees>-5.69481161423027515411376953125</LongitudeDegrees>
            </Position>
            <AltitudeMeters>816.5999755859375</AltitudeMeters>
            <DistanceMeters>NAN</DistanceMeters>
          </Trackpoint>
          <Trackpoint>
            <Time>2019-10-06T10:26:51.000Z</Time>
            <Position>
              <LatitudeDegrees>41.16869576275348663330078125</LatitudeDegrees>
              <LongitudeDegrees>-5.6948257796466350555419921875</LongitudeDegrees>
            </Position>
            <AltitudeMeters>816.20001220703125</AltitudeMeters>
            <DistanceMeters>NAN</DistanceMeters>
          </Trackpoint>
          <Trackpoint>
            <Time>2019-10-06T10:26:59.000Z</Time>
            <Position>
              <LatitudeDegrees>41.16813157685101032257080078125</LatitudeDegrees>
              <LongitudeDegrees>-5.694837011396884918212890625</LongitudeDegrees>
            </Position>
            <AltitudeMeters>817.20001220703125</AltitudeMeters>
            <DistanceMeters>NAN</DistanceMeters>
          </Trackpoint>
          <Trackpoint>
            <Time>2019-10-06T10:27:01.000Z</Time>
            <Position>
              <LatitudeDegrees>41.16799394600093364715576171875</LatitudeDegrees>
              <LongitudeDegrees>-5.694844722747802734375</LongitudeDegrees>
            </Position>
            <AltitudeMeters>816.79998779296875</AltitudeMeters>
            <DistanceMeters>NAN</DistanceMeters>
          </Trackpoint>
          <Trackpoint>
            <Time>2019-10-06T10:27:06.000Z</Time>
            <Position>
              <LatitudeDegrees>41.16765104234218597412109375</LatitudeDegrees>
              <LongitudeDegrees>-5.6948586367070674896240234375</LongitudeDegrees>
            </Position>
            <AltitudeMeters>817.5999755859375</AltitudeMeters>
            <DistanceMeters>NAN</DistanceMeters>
          </Trackpoint>
          <Trackpoint>
            <Time>2019-10-06T10:27:13.000Z</Time>
            <Position>
              <LatitudeDegrees>41.1671657301485538482666015625</LatitudeDegrees>
              <LongitudeDegrees>-5.69487095810472965240478515625</LongitudeDegrees>
            </Position>
            <AltitudeMeters>817.4000244140625</AltitudeMeters>
            <DistanceMeters>NAN</DistanceMeters>
          </Trackpoint>
          <Trackpoint>
            <Time>2019-10-06T10:27:21.000Z</Time>
            <Position>
              <LatitudeDegrees>41.16661436855792999267578125</LatitudeDegrees>
              <LongitudeDegrees>-5.6948948465287685394287109375</LongitudeDegrees>
            </Position>
            <AltitudeMeters>817.4000244140625</AltitudeMeters>
            <DistanceMeters>NAN</DistanceMeters>
          </Trackpoint>
          <Trackpoint>
            <Time>2019-10-06T10:27:25.000Z</Time>
            <Position>
              <LatitudeDegrees>41.16633717902004718780517578125</LatitudeDegrees>
              <LongitudeDegrees>-5.69489979185163974761962890625</LongitudeDegrees>
            </Position>
            <AltitudeMeters>817.5999755859375</AltitudeMeters>
            <DistanceMeters>NAN</DistanceMeters>
          </Trackpoint>
          <Trackpoint>
            <Time>2019-10-06T10:27:33.000Z</Time>
            <Position>
              <LatitudeDegrees>41.16577123291790485382080078125</LatitudeDegrees>
              <LongitudeDegrees>-5.69492560811340808868408203125</LongitudeDegrees>
            </Position>
            <AltitudeMeters>817.4000244140625</AltitudeMeters>
            <DistanceMeters>NAN</DistanceMeters>
          </Trackpoint>
          <Trackpoint>
            <Time>2019-10-06T10:27:35.000Z</Time>
            <Position>
              <LatitudeDegrees>41.1656291596591472625732421875</LatitudeDegrees>
              <LongitudeDegrees>-5.69492996670305728912353515625</LongitudeDegrees>
            </Position>
            <AltitudeMeters>817.20001220703125</AltitudeMeters>
            <DistanceMeters>NAN</DistanceMeters>
          </Trackpoint>
          <Trackpoint>
            <Time>2019-10-06T10:27:43.000Z</Time>
            <Position>
              <LatitudeDegrees>41.16507117636501789093017578125</LatitudeDegrees>
              <LongitudeDegrees>-5.69495025090873241424560546875</LongitudeDegrees>
            </Position>
            <AltitudeMeters>817.4000244140625</AltitudeMeters>
            <DistanceMeters>NAN</DistanceMeters>
          </Trackpoint>
          <Trackpoint>
            <Time>2019-10-06T10:27:51.000Z</Time>
            <Position>
              <LatitudeDegrees>41.16451730020344257354736328125</LatitudeDegrees>
              <LongitudeDegrees>-5.6949694454669952392578125</LongitudeDegrees>
            </Position>
            <AltitudeMeters>818</AltitudeMeters>
            <DistanceMeters>NAN</DistanceMeters>
          </Trackpoint>
          <Trackpoint>
            <Time>2019-10-06T10:27:54.000Z</Time>
            <Position>
              <LatitudeDegrees>41.1643121950328350067138671875</LatitudeDegrees>
              <LongitudeDegrees>-5.694980509579181671142578125</LongitudeDegrees>
            </Position>
            <AltitudeMeters>818.20001220703125</AltitudeMeters>
            <DistanceMeters>NAN</DistanceMeters>
          </Trackpoint>
          <Trackpoint>
            <Time>2019-10-06T10:28:02.000Z</Time>
            <Position>
              <LatitudeDegrees>41.16375857032835483551025390625</LatitudeDegrees>
              <LongitudeDegrees>-5.69500506855547428131103515625</LongitudeDegrees>
            </Position>
            <AltitudeMeters>818.20001220703125</AltitudeMeters>
            <DistanceMeters>NAN</DistanceMeters>
          </Trackpoint>
          <Trackpoint>
            <Time>2019-10-06T10:28:05.000Z</Time>
            <Position>
              <LatitudeDegrees>41.1635524593293666839599609375</LatitudeDegrees>
              <LongitudeDegrees>-5.69501210935413837432861328125</LongitudeDegrees>
            </Position>
            <AltitudeMeters>818.20001220703125</AltitudeMeters>
            <DistanceMeters>NAN</DistanceMeters>
          </Trackpoint>
          <Trackpoint>
            <Time>2019-10-06T10:28:13.000Z</Time>
            <Position>
              <LatitudeDegrees>41.162997074425220489501953125</LatitudeDegrees>
              <LongitudeDegrees>-5.69502887316048145294189453125</LongitudeDegrees>
            </Position>
            <AltitudeMeters>818.20001220703125</AltitudeMeters>
            <DistanceMeters>NAN</DistanceMeters>
          </Trackpoint>
          <Trackpoint>
            <Time>2019-10-06T10:28:14.000Z</Time>
            <Position>
              <LatitudeDegrees>41.16292658261954784393310546875</LatitudeDegrees>
              <LongitudeDegrees>-5.69503222592175006866455078125</LongitudeDegrees>
            </Position>
            <AltitudeMeters>818.4000244140625</AltitudeMeters>
            <DistanceMeters>NAN</DistanceMeters>
          </Trackpoint>
          <Trackpoint>
            <Time>2019-10-06T10:28:15.000Z</Time>
            <Position>
              <LatitudeDegrees>41.16285600699484348297119140625</LatitudeDegrees>
              <LongitudeDegrees>-5.69503247737884521484375</LongitudeDegrees>
            </Position>
            <AltitudeMeters>818.79998779296875</AltitudeMeters>
            <DistanceMeters>NAN</DistanceMeters>
          </Trackpoint>
          <Trackpoint>
            <Time>2019-10-06T10:28:18.000Z</Time>
            <Position>
              <LatitudeDegrees>41.1626448668539524078369140625</LatitudeDegrees>
              <LongitudeDegrees>-5.69504027254879474639892578125</LongitudeDegrees>
            </Position>
            <AltitudeMeters>817.4000244140625</AltitudeMeters>
            <DistanceMeters>NAN</DistanceMeters>
          </Trackpoint>
          <Trackpoint>
            <Time>2019-10-06T10:28:22.000Z</Time>
            <Position>
              <LatitudeDegrees>41.16236533038318157196044921875</LatitudeDegrees>
              <LongitudeDegrees>-5.69505058228969573974609375</LongitudeDegrees>
            </Position>
            <AltitudeMeters>817.79998779296875</AltitudeMeters>
            <DistanceMeters>NAN</DistanceMeters>
          </Trackpoint>
          <Trackpoint>
            <Time>2019-10-06T10:28:26.000Z</Time>
            <Position>
              <LatitudeDegrees>41.1620839498937129974365234375</LatitudeDegrees>
              <LongitudeDegrees>-5.695059299468994140625</LongitudeDegrees>
            </Position>
            <AltitudeMeters>818.4000244140625</AltitudeMeters>
            <DistanceMeters>NAN</DistanceMeters>
          </Trackpoint>
          <Trackpoint>
            <Time>2019-10-06T10:28:29.000Z</Time>
            <Position>
              <LatitudeDegrees>41.16187222301959991455078125</LatitudeDegrees>
              <LongitudeDegrees>-5.69506240077316761016845703125</LongitudeDegrees>
            </Position>
            <AltitudeMeters>817</AltitudeMeters>
            <DistanceMeters>NAN</DistanceMeters>
          </Trackpoint>
          <Trackpoint>
            <Time>2019-10-06T10:28:30.000Z</Time>
            <Position>
              <LatitudeDegrees>41.161801479756832122802734375</LatitudeDegrees>
              <LongitudeDegrees>-5.695062987506389617919921875</LongitudeDegrees>
            </Position>
            <AltitudeMeters>817.4000244140625</AltitudeMeters>
            <DistanceMeters>NAN</DistanceMeters>
          </Trackpoint>
          <Trackpoint>
            <Time>2019-10-06T10:28:37.000Z</Time>
            <Position>
              <LatitudeDegrees>41.16130317561328411102294921875</LatitudeDegrees>
              <LongitudeDegrees>-5.69507782347500324249267578125</LongitudeDegrees>
            </Position>
            <AltitudeMeters>818</AltitudeMeters>
            <DistanceMeters>NAN</DistanceMeters>
          </Trackpoint>
          <Trackpoint>
            <Time>2019-10-06T10:28:39.000Z</Time>
            <Position>
              <LatitudeDegrees>41.16115766577422618865966796875</LatitudeDegrees>
              <LongitudeDegrees>-5.695083774626255035400390625</LongitudeDegrees>
            </Position>
            <AltitudeMeters>818.20001220703125</AltitudeMeters>
            <DistanceMeters>NAN</DistanceMeters>
          </Trackpoint>
          <Trackpoint>
            <Time>2019-10-06T10:28:44.000Z</Time>
            <Position>
              <LatitudeDegrees>41.160795986652374267578125</LatitudeDegrees>
              <LongitudeDegrees>-5.69509291090071201324462890625</LongitudeDegrees>
            </Position>
            <AltitudeMeters>817</AltitudeMeters>
            <DistanceMeters>NAN</DistanceMeters>
          </Trackpoint>
          <Trackpoint>
            <Time>2019-10-06T10:28:46.000Z</Time>
            <Position>
              <LatitudeDegrees>41.1606529913842678070068359375</LatitudeDegrees>
              <LongitudeDegrees>-5.6950973533093929290771484375</LongitudeDegrees>
            </Position>
            <AltitudeMeters>817</AltitudeMeters>
            <DistanceMeters>NAN</DistanceMeters>
          </Trackpoint>
          <Trackpoint>
            <Time>2019-10-06T10:28:51.000Z</Time>
            <Position>
              <LatitudeDegrees>41.16029835306107997894287109375</LatitudeDegrees>
              <LongitudeDegrees>-5.695110596716403961181640625</LongitudeDegrees>
            </Position>
            <AltitudeMeters>816</AltitudeMeters>
            <DistanceMeters>NAN</DistanceMeters>
          </Trackpoint>
          <Trackpoint>
            <Time>2019-10-06T10:28:54.000Z</Time>
            <Position>
              <LatitudeDegrees>41.1600749753415584564208984375</LatitudeDegrees>
              <LongitudeDegrees>-5.6951157934963703155517578125</LongitudeDegrees>
            </Position>
            <AltitudeMeters>816.20001220703125</AltitudeMeters>
            <DistanceMeters>NAN</DistanceMeters>
          </Trackpoint>
          <Trackpoint>
            <Time>2019-10-06T10:28:55.000Z</Time>
            <Position>
              <LatitudeDegrees>41.1599998734891414642333984375</LatitudeDegrees>
              <LongitudeDegrees>-5.69511830806732177734375</LongitudeDegrees>
            </Position>
            <AltitudeMeters>815.4000244140625</AltitudeMeters>
            <DistanceMeters>NAN</DistanceMeters>
          </Trackpoint>
          <Trackpoint>
            <Time>2019-10-06T10:29:02.000Z</Time>
            <Position>
              <LatitudeDegrees>41.15945882163941860198974609375</LatitudeDegrees>
              <LongitudeDegrees>-5.695133395493030548095703125</LongitudeDegrees>
            </Position>
            <AltitudeMeters>815.20001220703125</AltitudeMeters>
            <DistanceMeters>NAN</DistanceMeters>
          </Trackpoint>
          <Trackpoint>
            <Time>2019-10-06T10:29:06.000Z</Time>
            <Position>
              <LatitudeDegrees>41.15913980640470981597900390625</LatitudeDegrees>
              <LongitudeDegrees>-5.69514202885329723358154296875</LongitudeDegrees>
            </Position>
            <AltitudeMeters>814</AltitudeMeters>
            <DistanceMeters>NAN</DistanceMeters>
          </Trackpoint>
          <Trackpoint>
            <Time>2019-10-06T10:29:12.000Z</Time>
            <Position>
              <LatitudeDegrees>41.15866639651358127593994140625</LatitudeDegrees>
              <LongitudeDegrees>-5.69515426643192768096923828125</LongitudeDegrees>
            </Position>
            <AltitudeMeters>812.4000244140625</AltitudeMeters>
            <DistanceMeters>NAN</DistanceMeters>
          </Trackpoint>
          <Trackpoint>
            <Time>2019-10-06T10:29:16.000Z</Time>
            <Position>
              <LatitudeDegrees>41.15835157223045825958251953125</LatitudeDegrees>
              <LongitudeDegrees>-5.69516130723059177398681640625</LongitudeDegrees>
            </Position>
            <AltitudeMeters>811.79998779296875</AltitudeMeters>
            <DistanceMeters>NAN</DistanceMeters>
          </Trackpoint>
          <Trackpoint>
            <Time>2019-10-06T10:29:22.000Z</Time>
            <Position>
              <LatitudeDegrees>41.157883107662200927734375</LatitudeDegrees>
              <LongitudeDegrees>-5.69517262279987335205078125</LongitudeDegrees>
            </Position>
            <AltitudeMeters>811</AltitudeMeters>
            <DistanceMeters>NAN</DistanceMeters>
          </Trackpoint>
          <Trackpoint>
            <Time>2019-10-06T10:29:26.000Z</Time>
            <Position>
              <LatitudeDegrees>41.157573647797107696533203125</LatitudeDegrees>
              <LongitudeDegrees>-5.695181675255298614501953125</LongitudeDegrees>
            </Position>
            <AltitudeMeters>811.20001220703125</AltitudeMeters>
            <DistanceMeters>NAN</DistanceMeters>
          </Trackpoint>
          <Trackpoint>
            <Time>2019-10-06T10:29:33.000Z</Time>
            <Position>
              <LatitudeDegrees>41.15703209303319454193115234375</LatitudeDegrees>
              <LongitudeDegrees>-5.6951932422816753387451171875</LongitudeDegrees>
            </Position>
            <AltitudeMeters>810.79998779296875</AltitudeMeters>
            <DistanceMeters>NAN</DistanceMeters>
          </Trackpoint>
          <Trackpoint>
            <Time>2019-10-06T10:29:39.000Z</Time>
            <Position>
              <LatitudeDegrees>41.1565703339874744415283203125</LatitudeDegrees>
              <LongitudeDegrees>-5.6952022947371006011962890625</LongitudeDegrees>
            </Position>
            <AltitudeMeters>811</AltitudeMeters>
            <DistanceMeters>NAN</DistanceMeters>
          </Trackpoint>
          <Trackpoint>
            <Time>2019-10-06T10:29:46.000Z</Time>
            <Position>
              <LatitudeDegrees>41.15603707730770111083984375</LatitudeDegrees>
              <LongitudeDegrees>-5.69521981291472911834716796875</LongitudeDegrees>
            </Position>
            <AltitudeMeters>810.4000244140625</AltitudeMeters>
            <DistanceMeters>NAN</DistanceMeters>
          </Trackpoint>
          <Trackpoint>
            <Time>2019-10-06T10:29:49.000Z</Time>
            <Position>
              <LatitudeDegrees>41.1558057367801666259765625</LatitudeDegrees>
              <LongitudeDegrees>-5.69521863944828510284423828125</LongitudeDegrees>
            </Position>
            <AltitudeMeters>810.20001220703125</AltitudeMeters>
            <DistanceMeters>NAN</DistanceMeters>
          </Trackpoint>
          <Trackpoint>
            <Time>2019-10-06T10:29:52.000Z</Time>
            <Position>
              <LatitudeDegrees>41.15557364188134670257568359375</LatitudeDegrees>
              <LongitudeDegrees>-5.69522769190371036529541015625</LongitudeDegrees>
            </Position>
            <AltitudeMeters>810</AltitudeMeters>
            <DistanceMeters>NAN</DistanceMeters>
          </Trackpoint>
          <Trackpoint>
            <Time>2019-10-06T10:29:55.000Z</Time>
            <Position>
              <LatitudeDegrees>41.155342720448970794677734375</LatitudeDegrees>
              <LongitudeDegrees>-5.69523372687399387359619140625</LongitudeDegrees>
            </Position>
            <AltitudeMeters>809</AltitudeMeters>
            <DistanceMeters>NAN</DistanceMeters>
          </Trackpoint>
          <Trackpoint>
            <Time>2019-10-06T10:29:59.000Z</Time>
            <Position>
              <LatitudeDegrees>41.15503652952611446380615234375</LatitudeDegrees>
              <LongitudeDegrees>-5.69524093531072139739990234375</LongitudeDegrees>
            </Position>
            <AltitudeMeters>809.20001220703125</AltitudeMeters>
            <DistanceMeters>NAN</DistanceMeters>
          </Trackpoint>
          <Trackpoint>
            <Time>2019-10-06T10:30:06.000Z</Time>
            <Position>
              <LatitudeDegrees>41.1545026861131191253662109375</LatitudeDegrees>
              <LongitudeDegrees>-5.69526289589703083038330078125</LongitudeDegrees>
            </Position>
            <AltitudeMeters>808.5999755859375</AltitudeMeters>
            <DistanceMeters>NAN</DistanceMeters>
          </Trackpoint>
          <Trackpoint>
            <Time>2019-10-06T10:30:08.000Z</Time>
            <Position>
              <LatitudeDegrees>41.15434996783733367919921875</LatitudeDegrees>
              <LongitudeDegrees>-5.6952616386115550994873046875</LongitudeDegrees>
            </Position>
            <AltitudeMeters>808.79998779296875</AltitudeMeters>
            <DistanceMeters>NAN</DistanceMeters>
          </Trackpoint>
          <Trackpoint>
            <Time>2019-10-06T10:30:15.000Z</Time>
            <Position>
              <LatitudeDegrees>41.15384705364704132080078125</LatitudeDegrees>
              <LongitudeDegrees>-5.6952609680593013763427734375</LongitudeDegrees>
            </Position>
            <AltitudeMeters>809</AltitudeMeters>
            <DistanceMeters>NAN</DistanceMeters>
          </Trackpoint>
          <Trackpoint>
            <Time>2019-10-06T10:30:19.000Z</Time>
            <Position>
              <LatitudeDegrees>41.1535660922527313232421875</LatitudeDegrees>
              <LongitudeDegrees>-5.69527412764728069305419921875</LongitudeDegrees>
            </Position>
            <AltitudeMeters>807.79998779296875</AltitudeMeters>
            <DistanceMeters>NAN</DistanceMeters>
          </Trackpoint>
          <Trackpoint>
            <Time>2019-10-06T10:30:23.000Z</Time>
            <Position>
              <LatitudeDegrees>41.15328202955424785614013671875</LatitudeDegrees>
              <LongitudeDegrees>-5.69528401829302310943603515625</LongitudeDegrees>
            </Position>
            <AltitudeMeters>807.5999755859375</AltitudeMeters>
            <DistanceMeters>NAN</DistanceMeters>
          </Trackpoint>
          <Trackpoint>
            <Time>2019-10-06T10:30:27.000Z</Time>
            <Position>
              <LatitudeDegrees>41.15298899821937084197998046875</LatitudeDegrees>
              <LongitudeDegrees>-5.69528385065495967864990234375</LongitudeDegrees>
            </Position>
            <AltitudeMeters>806.79998779296875</AltitudeMeters>
            <DistanceMeters>NAN</DistanceMeters>
          </Trackpoint>
          <Trackpoint>
            <Time>2019-10-06T10:30:30.000Z</Time>
            <Position>
              <LatitudeDegrees>41.15276285447180271148681640625</LatitudeDegrees>
              <LongitudeDegrees>-5.6952864490449428558349609375</LongitudeDegrees>
            </Position>
            <AltitudeMeters>806.5999755859375</AltitudeMeters>
            <DistanceMeters>NAN</DistanceMeters>
          </Trackpoint>
          <Trackpoint>
            <Time>2019-10-06T10:30:37.000Z</Time>
            <Position>
              <LatitudeDegrees>41.15221736021339893341064453125</LatitudeDegrees>
              <LongitudeDegrees>-5.69529927335679531097412109375</LongitudeDegrees>
            </Position>
            <AltitudeMeters>806.20001220703125</AltitudeMeters>
            <DistanceMeters>NAN</DistanceMeters>
          </Trackpoint>
          <Trackpoint>
            <Time>2019-10-06T10:30:40.000Z</Time>
            <Position>
              <LatitudeDegrees>41.1519850976765155792236328125</LatitudeDegrees>
              <LongitudeDegrees>-5.69530731998383998870849609375</LongitudeDegrees>
            </Position>
            <AltitudeMeters>805.5999755859375</AltitudeMeters>
            <DistanceMeters>NAN</DistanceMeters>
          </Trackpoint>
          <Trackpoint>
            <Time>2019-10-06T10:30:41.000Z</Time>
            <Position>
              <LatitudeDegrees>41.15188761614263057708740234375</LatitudeDegrees>
              <LongitudeDegrees>-5.6953069008886814117431640625</LongitudeDegrees>
            </Position>
            <AltitudeMeters>805.79998779296875</AltitudeMeters>
            <DistanceMeters>NAN</DistanceMeters>
          </Trackpoint>
          <Trackpoint>
            <Time>2019-10-06T10:30:47.000Z</Time>
            <Position>
              <LatitudeDegrees>41.151466928422451019287109375</LatitudeDegrees>
              <LongitudeDegrees>-5.69531452842056751251220703125</LongitudeDegrees>
            </Position>
            <AltitudeMeters>805.5999755859375</AltitudeMeters>
            <DistanceMeters>NAN</DistanceMeters>
          </Trackpoint>
          <Trackpoint>
            <Time>2019-10-06T10:30:49.000Z</Time>
            <Position>
              <LatitudeDegrees>41.15132368169724941253662109375</LatitudeDegrees>
              <LongitudeDegrees>-5.69531436078250408172607421875</LongitudeDegrees>
            </Position>
            <AltitudeMeters>805.4000244140625</AltitudeMeters>
            <DistanceMeters>NAN</DistanceMeters>
          </Trackpoint>
          <Trackpoint>
            <Time>2019-10-06T10:30:51.000Z</Time>
            <Position>
              <LatitudeDegrees>41.15117850713431835174560546875</LatitudeDegrees>
              <LongitudeDegrees>-5.695319138467311859130859375</LongitudeDegrees>
            </Position>
            <AltitudeMeters>805.4000244140625</AltitudeMeters>
            <DistanceMeters>NAN</DistanceMeters>
          </Trackpoint>
          <Trackpoint>
            <Time>2019-10-06T10:30:55.000Z</Time>
            <Position>
              <LatitudeDegrees>41.15088882856070995330810546875</LatitudeDegrees>
              <LongitudeDegrees>-5.69531989283859729766845703125</LongitudeDegrees>
            </Position>
            <AltitudeMeters>805.4000244140625</AltitudeMeters>
            <DistanceMeters>NAN</DistanceMeters>
          </Trackpoint>
          <Trackpoint>
            <Time>2019-10-06T10:30:59.000Z</Time>
            <Position>
              <LatitudeDegrees>41.15059847943484783172607421875</LatitudeDegrees>
              <LongitudeDegrees>-5.69533145986497402191162109375</LongitudeDegrees>
            </Position>
            <AltitudeMeters>805</AltitudeMeters>
            <DistanceMeters>NAN</DistanceMeters>
          </Trackpoint>
          <Trackpoint>
            <Time>2019-10-06T10:31:01.000Z</Time>
            <Position>
              <LatitudeDegrees>41.1504548974335193634033203125</LatitudeDegrees>
              <LongitudeDegrees>-5.6953333877027034759521484375</LongitudeDegrees>
            </Position>
            <AltitudeMeters>804.5999755859375</AltitudeMeters>
            <DistanceMeters>NAN</DistanceMeters>
          </Trackpoint>
          <Trackpoint>
            <Time>2019-10-06T10:31:06.000Z</Time>
            <Position>
              <LatitudeDegrees>41.15010268986225128173828125</LatitudeDegrees>
              <LongitudeDegrees>-5.695339925587177276611328125</LongitudeDegrees>
            </Position>
            <AltitudeMeters>804</AltitudeMeters>
            <DistanceMeters>NAN</DistanceMeters>
          </Trackpoint>
          <Trackpoint>
            <Time>2019-10-06T10:31:08.000Z</Time>
            <Position>
              <LatitudeDegrees>41.1499638855457305908203125</LatitudeDegrees>
              <LongitudeDegrees>-5.69534235633909702301025390625</LongitudeDegrees>
            </Position>
            <AltitudeMeters>804.20001220703125</AltitudeMeters>
            <DistanceMeters>NAN</DistanceMeters>
          </Trackpoint>
          <Trackpoint>
            <Time>2019-10-06T10:31:12.000Z</Time>
            <Position>
              <LatitudeDegrees>41.149687282741069793701171875</LatitudeDegrees>
              <LongitudeDegrees>-5.69534872658550739288330078125</LongitudeDegrees>
            </Position>
            <AltitudeMeters>805.20001220703125</AltitudeMeters>
            <DistanceMeters>NAN</DistanceMeters>
          </Trackpoint>
          <Trackpoint>
            <Time>2019-10-06T10:31:16.000Z</Time>
            <Position>
              <LatitudeDegrees>41.14940606988966464996337890625</LatitudeDegrees>
              <LongitudeDegrees>-5.6953561864793300628662109375</LongitudeDegrees>
            </Position>
            <AltitudeMeters>804.5999755859375</AltitudeMeters>
            <DistanceMeters>NAN</DistanceMeters>
          </Trackpoint>
          <Trackpoint>
            <Time>2019-10-06T10:31:17.000Z</Time>
            <Position>
              <LatitudeDegrees>41.14933633245527744293212890625</LatitudeDegrees>
              <LongitudeDegrees>-5.695357024669647216796875</LongitudeDegrees>
            </Position>
            <AltitudeMeters>804.5999755859375</AltitudeMeters>
            <DistanceMeters>NAN</DistanceMeters>
          </Trackpoint>
          <Trackpoint>
            <Time>2019-10-06T10:31:23.000Z</Time>
            <Position>
              <LatitudeDegrees>41.14891975186765193939208984375</LatitudeDegrees>
              <LongitudeDegrees>-5.6953638978302478790283203125</LongitudeDegrees>
            </Position>
            <AltitudeMeters>805.20001220703125</AltitudeMeters>
            <DistanceMeters>NAN</DistanceMeters>
          </Trackpoint>
          <Trackpoint>
            <Time>2019-10-06T10:31:25.000Z</Time>
            <Position>
              <LatitudeDegrees>41.1487795226275920867919921875</LatitudeDegrees>
              <LongitudeDegrees>-5.6953662447631359100341796875</LongitudeDegrees>
            </Position>
            <AltitudeMeters>805.4000244140625</AltitudeMeters>
            <DistanceMeters>NAN</DistanceMeters>
          </Trackpoint>
          <Trackpoint>
            <Time>2019-10-06T10:31:33.000Z</Time>
            <Position>
              <LatitudeDegrees>41.14821265451610088348388671875</LatitudeDegrees>
              <LongitudeDegrees>-5.69537018425762653350830078125</LongitudeDegrees>
            </Position>
            <AltitudeMeters>804.5999755859375</AltitudeMeters>
            <DistanceMeters>NAN</DistanceMeters>
          </Trackpoint>
          <Trackpoint>
            <Time>2019-10-06T10:31:34.000Z</Time>
            <Position>
              <LatitudeDegrees>41.14814207889139652252197265625</LatitudeDegrees>
              <LongitudeDegrees>-5.69537454284727573394775390625</LongitudeDegrees>
            </Position>
            <AltitudeMeters>804.5999755859375</AltitudeMeters>
            <DistanceMeters>NAN</DistanceMeters>
          </Trackpoint>
          <Trackpoint>
            <Time>2019-10-06T10:31:42.000Z</Time>
            <Position>
              <LatitudeDegrees>41.14756397902965545654296875</LatitudeDegrees>
              <LongitudeDegrees>-5.6953816674649715423583984375</LongitudeDegrees>
            </Position>
            <AltitudeMeters>804.20001220703125</AltitudeMeters>
            <DistanceMeters>NAN</DistanceMeters>
          </Trackpoint>
          <Trackpoint>
            <Time>2019-10-06T10:31:44.000Z</Time>
            <Position>
              <LatitudeDegrees>41.1474159546196460723876953125</LatitudeDegrees>
              <LongitudeDegrees>-5.69538183510303497314453125</LongitudeDegrees>
            </Position>
            <AltitudeMeters>804</AltitudeMeters>
            <DistanceMeters>NAN</DistanceMeters>
          </Trackpoint>
          <Trackpoint>
            <Time>2019-10-06T10:31:51.000Z</Time>
            <Position>
              <LatitudeDegrees>41.14688831381499767303466796875</LatitudeDegrees>
              <LongitudeDegrees>-5.6953932344913482666015625</LongitudeDegrees>
            </Position>
            <AltitudeMeters>804</AltitudeMeters>
            <DistanceMeters>NAN</DistanceMeters>
          </Trackpoint>
          <Trackpoint>
            <Time>2019-10-06T10:31:54.000Z</Time>
            <Position>
              <LatitudeDegrees>41.14666032604873180389404296875</LatitudeDegrees>
              <LongitudeDegrees>-5.69540002383291721343994140625</LongitudeDegrees>
            </Position>
            <AltitudeMeters>803.4000244140625</AltitudeMeters>
            <DistanceMeters>NAN</DistanceMeters>
          </Trackpoint>
          <Trackpoint>
            <Time>2019-10-06T10:31:59.000Z</Time>
            <Position>
              <LatitudeDegrees>41.146284900605678558349609375</LatitudeDegrees>
              <LongitudeDegrees>-5.6954105012118816375732421875</LongitudeDegrees>
            </Position>
            <AltitudeMeters>803.20001220703125</AltitudeMeters>
            <DistanceMeters>NAN</DistanceMeters>
          </Trackpoint>
          <Trackpoint>
            <Time>2019-10-06T10:32:06.000Z</Time>
            <Position>
              <LatitudeDegrees>41.1457476206123828887939453125</LatitudeDegrees>
              <LongitudeDegrees>-5.6954396702349185943603515625</LongitudeDegrees>
            </Position>
            <AltitudeMeters>802.4000244140625</AltitudeMeters>
            <DistanceMeters>NAN</DistanceMeters>
          </Trackpoint>
          <Trackpoint>
            <Time>2019-10-06T10:32:08.000Z</Time>
            <Position>
              <LatitudeDegrees>41.14560035057365894317626953125</LatitudeDegrees>
              <LongitudeDegrees>-5.69545366801321506500244140625</LongitudeDegrees>
            </Position>
            <AltitudeMeters>802.20001220703125</AltitudeMeters>
            <DistanceMeters>NAN</DistanceMeters>
          </Trackpoint>
          <Trackpoint>
            <Time>2019-10-06T10:32:16.000Z</Time>
            <Position>
              <LatitudeDegrees>41.14501881413161754608154296875</LatitudeDegrees>
              <LongitudeDegrees>-5.69551100023090839385986328125</LongitudeDegrees>
            </Position>
            <AltitudeMeters>801.79998779296875</AltitudeMeters>
            <DistanceMeters>NAN</DistanceMeters>
          </Trackpoint>
          <Trackpoint>
            <Time>2019-10-06T10:32:20.000Z</Time>
            <Position>
              <LatitudeDegrees>41.144720502197742462158203125</LatitudeDegrees>
              <LongitudeDegrees>-5.695538409054279327392578125</LongitudeDegrees>
            </Position>
            <AltitudeMeters>801.4000244140625</AltitudeMeters>
            <DistanceMeters>NAN</DistanceMeters>
          </Trackpoint>
          <Trackpoint>
            <Time>2019-10-06T10:32:25.000Z</Time>
            <Position>
              <LatitudeDegrees>41.144343651831150054931640625</LatitudeDegrees>
              <LongitudeDegrees>-5.695577971637248992919921875</LongitudeDegrees>
            </Position>
            <AltitudeMeters>801.5999755859375</AltitudeMeters>
            <DistanceMeters>NAN</DistanceMeters>
          </Trackpoint>
          <Trackpoint>
            <Time>2019-10-06T10:32:26.000Z</Time>
            <Position>
              <LatitudeDegrees>41.14426662214100360870361328125</LatitudeDegrees>
              <LongitudeDegrees>-5.695584677159786224365234375</LongitudeDegrees>
            </Position>
            <AltitudeMeters>801.5999755859375</AltitudeMeters>
            <DistanceMeters>NAN</DistanceMeters>
          </Trackpoint>
          <Trackpoint>
            <Time>2019-10-06T10:32:33.000Z</Time>
            <Position>
              <LatitudeDegrees>41.1437265761196613311767578125</LatitudeDegrees>
              <LongitudeDegrees>-5.69564142264425754547119140625</LongitudeDegrees>
            </Position>
            <AltitudeMeters>801.20001220703125</AltitudeMeters>
            <DistanceMeters>NAN</DistanceMeters>
          </Trackpoint>
          <Trackpoint>
            <Time>2019-10-06T10:32:37.000Z</Time>
            <Position>
              <LatitudeDegrees>41.14341460168361663818359375</LatitudeDegrees>
              <LongitudeDegrees>-5.69567897357046604156494140625</LongitudeDegrees>
            </Position>
            <AltitudeMeters>800.4000244140625</AltitudeMeters>
            <DistanceMeters>NAN</DistanceMeters>
          </Trackpoint>
          <Trackpoint>
            <Time>2019-10-06T10:32:39.000Z</Time>
            <Position>
              <LatitudeDegrees>41.1432585306465625762939453125</LatitudeDegrees>
              <LongitudeDegrees>-5.69568852894008159637451171875</LongitudeDegrees>
            </Position>
            <AltitudeMeters>800.20001220703125</AltitudeMeters>
            <DistanceMeters>NAN</DistanceMeters>
          </Trackpoint>
          <Trackpoint>
            <Time>2019-10-06T10:32:42.000Z</Time>
            <Position>
              <LatitudeDegrees>41.14302157424390316009521484375</LatitudeDegrees>
              <LongitudeDegrees>-5.69571065716445446014404296875</LongitudeDegrees>
            </Position>
            <AltitudeMeters>801.20001220703125</AltitudeMeters>
            <DistanceMeters>NAN</DistanceMeters>
          </Trackpoint>
          <Trackpoint>
            <Time>2019-10-06T10:32:45.000Z</Time>
            <Position>
              <LatitudeDegrees>41.14278436638414859771728515625</LatitudeDegrees>
              <LongitudeDegrees>-5.69573261775076389312744140625</LongitudeDegrees>
            </Position>
            <AltitudeMeters>800.20001220703125</AltitudeMeters>
            <DistanceMeters>NAN</DistanceMeters>
          </Trackpoint>
          <Trackpoint>
            <Time>2019-10-06T10:32:52.000Z</Time>
            <Position>
              <LatitudeDegrees>41.1422275565564632415771484375</LatitudeDegrees>
              <LongitudeDegrees>-5.695787854492664337158203125</LongitudeDegrees>
            </Position>
            <AltitudeMeters>800</AltitudeMeters>
            <DistanceMeters>NAN</DistanceMeters>
          </Trackpoint>
          <Trackpoint>
            <Time>2019-10-06T10:32:54.000Z</Time>
            <Position>
              <LatitudeDegrees>41.142067797482013702392578125</LatitudeDegrees>
              <LongitudeDegrees>-5.69580185227096080780029296875</LongitudeDegrees>
            </Position>
            <AltitudeMeters>799.5999755859375</AltitudeMeters>
            <DistanceMeters>NAN</DistanceMeters>
          </Trackpoint>
          <Trackpoint>
            <Time>2019-10-06T10:32:56.000Z</Time>
            <Position>
              <LatitudeDegrees>41.1419040150940418243408203125</LatitudeDegrees>
              <LongitudeDegrees>-5.6958195380866527557373046875</LongitudeDegrees>
            </Position>
            <AltitudeMeters>799</AltitudeMeters>
            <DistanceMeters>NAN</DistanceMeters>
          </Trackpoint>
          <Trackpoint>
            <Time>2019-10-06T10:33:00.000Z</Time>
            <Position>
              <LatitudeDegrees>41.1415757797658443450927734375</LatitudeDegrees>
              <LongitudeDegrees>-5.69585700519382953643798828125</LongitudeDegrees>
            </Position>
            <AltitudeMeters>798</AltitudeMeters>
            <DistanceMeters>NAN</DistanceMeters>
          </Trackpoint>
          <Trackpoint>
            <Time>2019-10-06T10:33:03.000Z</Time>
            <Position>
              <LatitudeDegrees>41.1413316987454891204833984375</LatitudeDegrees>
              <LongitudeDegrees>-5.69588382728397846221923828125</LongitudeDegrees>
            </Position>
            <AltitudeMeters>797</AltitudeMeters>
            <DistanceMeters>NAN</DistanceMeters>
          </Trackpoint>
          <Trackpoint>
            <Time>2019-10-06T10:33:06.000Z</Time>
            <Position>
              <LatitudeDegrees>41.1410886235535144805908203125</LatitudeDegrees>
              <LongitudeDegrees>-5.69590293802320957183837890625</LongitudeDegrees>
            </Position>
            <AltitudeMeters>796.5999755859375</AltitudeMeters>
            <DistanceMeters>NAN</DistanceMeters>
          </Trackpoint>
          <Trackpoint>
            <Time>2019-10-06T10:33:09.000Z</Time>
            <Position>
              <LatitudeDegrees>41.14084747619926929473876953125</LatitudeDegrees>
              <LongitudeDegrees>-5.695926658809185028076171875</LongitudeDegrees>
            </Position>
            <AltitudeMeters>796.79998779296875</AltitudeMeters>
            <DistanceMeters>NAN</DistanceMeters>
          </Trackpoint>
          <Trackpoint>
            <Time>2019-10-06T10:33:12.000Z</Time>
            <Position>
              <LatitudeDegrees>41.1405994556844234466552734375</LatitudeDegrees>
              <LongitudeDegrees>-5.69595674984157085418701171875</LongitudeDegrees>
            </Position>
            <AltitudeMeters>795</AltitudeMeters>
            <DistanceMeters>NAN</DistanceMeters>
          </Trackpoint>
          <Trackpoint>
            <Time>2019-10-06T10:33:17.000Z</Time>
            <Position>
              <LatitudeDegrees>41.1401686258614063262939453125</LatitudeDegrees>
              <LongitudeDegrees>-5.69599614478647708892822265625</LongitudeDegrees>
            </Position>
            <AltitudeMeters>794.20001220703125</AltitudeMeters>
            <DistanceMeters>NAN</DistanceMeters>
          </Trackpoint>
          <Trackpoint>
            <Time>2019-10-06T10:33:19.000Z</Time>
            <Position>
              <LatitudeDegrees>41.1399929411709308624267578125</LatitudeDegrees>
              <LongitudeDegrees>-5.69601743482053279876708984375</LongitudeDegrees>
            </Position>
            <AltitudeMeters>793.79998779296875</AltitudeMeters>
            <DistanceMeters>NAN</DistanceMeters>
          </Trackpoint>
          <Trackpoint>
            <Time>2019-10-06T10:33:22.000Z</Time>
            <Position>
              <LatitudeDegrees>41.13972187042236328125</LatitudeDegrees>
              <LongitudeDegrees>-5.69604274816811084747314453125</LongitudeDegrees>
            </Position>
            <AltitudeMeters>792.4000244140625</AltitudeMeters>
            <DistanceMeters>NAN</DistanceMeters>
          </Trackpoint>
          <Trackpoint>
            <Time>2019-10-06T10:33:25.000Z</Time>
            <Position>
              <LatitudeDegrees>41.1394454352557659149169921875</LatitudeDegrees>
              <LongitudeDegrees>-5.6960686482489109039306640625</LongitudeDegrees>
            </Position>
            <AltitudeMeters>792.4000244140625</AltitudeMeters>
            <DistanceMeters>NAN</DistanceMeters>
          </Trackpoint>
          <Trackpoint>
            <Time>2019-10-06T10:33:26.000Z</Time>
            <Position>
              <LatitudeDegrees>41.1393508873879909515380859375</LatitudeDegrees>
              <LongitudeDegrees>-5.6960770301520824432373046875</LongitudeDegrees>
            </Position>
            <AltitudeMeters>791.79998779296875</AltitudeMeters>
            <DistanceMeters>NAN</DistanceMeters>
          </Trackpoint>
          <Trackpoint>
            <Time>2019-10-06T10:33:27.000Z</Time>
            <Position>
              <LatitudeDegrees>41.139254160225391387939453125</LatitudeDegrees>
              <LongitudeDegrees>-5.6960854120552539825439453125</LongitudeDegrees>
            </Position>
            <AltitudeMeters>790.79998779296875</AltitudeMeters>
            <DistanceMeters>NAN</DistanceMeters>
          </Trackpoint>
          <Trackpoint>
            <Time>2019-10-06T10:33:29.000Z</Time>
            <Position>
              <LatitudeDegrees>41.13905777223408222198486328125</LatitudeDegrees>
              <LongitudeDegrees>-5.6961061991751194000244140625</LongitudeDegrees>
            </Position>
            <AltitudeMeters>790</AltitudeMeters>
            <DistanceMeters>NAN</DistanceMeters>
          </Trackpoint>
          <Trackpoint>
            <Time>2019-10-06T10:33:31.000Z</Time>
            <Position>
              <LatitudeDegrees>41.1388566903769969940185546875</LatitudeDegrees>
              <LongitudeDegrees>-5.69612656719982624053955078125</LongitudeDegrees>
            </Position>
            <AltitudeMeters>789.5999755859375</AltitudeMeters>
            <DistanceMeters>NAN</DistanceMeters>
          </Trackpoint>
          <Trackpoint>
            <Time>2019-10-06T10:33:33.000Z</Time>
            <Position>
              <LatitudeDegrees>41.1386538483202457427978515625</LatitudeDegrees>
              <LongitudeDegrees>-5.69614886306226253509521484375</LongitudeDegrees>
            </Position>
            <AltitudeMeters>788.5999755859375</AltitudeMeters>
            <DistanceMeters>NAN</DistanceMeters>
          </Trackpoint>
          <Trackpoint>
            <Time>2019-10-06T10:33:34.000Z</Time>
            <Position>
              <LatitudeDegrees>41.13855184055864810943603515625</LatitudeDegrees>
              <LongitudeDegrees>-5.6961588375270366668701171875</LongitudeDegrees>
            </Position>
            <AltitudeMeters>788.4000244140625</AltitudeMeters>
            <DistanceMeters>NAN</DistanceMeters>
          </Trackpoint>
          <Trackpoint>
            <Time>2019-10-06T10:33:35.000Z</Time>
            <Position>
              <LatitudeDegrees>41.13844941370189189910888671875</LatitudeDegrees>
              <LongitudeDegrees>-5.69617040455341339111328125</LongitudeDegrees>
            </Position>
            <AltitudeMeters>788.20001220703125</AltitudeMeters>
            <DistanceMeters>NAN</DistanceMeters>
          </Trackpoint>
          <Trackpoint>
            <Time>2019-10-06T10:33:36.000Z</Time>
            <Position>
              <LatitudeDegrees>41.1383460648357868194580078125</LatitudeDegrees>
              <LongitudeDegrees>-5.69618138484656810760498046875</LongitudeDegrees>
            </Position>
            <AltitudeMeters>788.20001220703125</AltitudeMeters>
            <DistanceMeters>NAN</DistanceMeters>
          </Trackpoint>
          <Trackpoint>
            <Time>2019-10-06T10:33:37.000Z</Time>
            <Position>
              <LatitudeDegrees>41.13824187777936458587646484375</LatitudeDegrees>
              <LongitudeDegrees>-5.6961923651397228240966796875</LongitudeDegrees>
            </Position>
            <AltitudeMeters>787.5999755859375</AltitudeMeters>
            <DistanceMeters>NAN</DistanceMeters>
          </Trackpoint>
          <Trackpoint>
            <Time>2019-10-06T10:33:38.000Z</Time>
            <Position>
              <LatitudeDegrees>41.13813458941876888275146484375</LatitudeDegrees>
              <LongitudeDegrees>-5.6961980648338794708251953125</LongitudeDegrees>
            </Position>
            <AltitudeMeters>787.4000244140625</AltitudeMeters>
            <DistanceMeters>NAN</DistanceMeters>
          </Trackpoint>
          <Trackpoint>
            <Time>2019-10-06T10:33:39.000Z</Time>
            <Position>
              <LatitudeDegrees>41.13802880980074405670166015625</LatitudeDegrees>
              <LongitudeDegrees>-5.69620753638446331024169921875</LongitudeDegrees>
            </Position>
            <AltitudeMeters>786.5999755859375</AltitudeMeters>
            <DistanceMeters>NAN</DistanceMeters>
          </Trackpoint>
          <Trackpoint>
            <Time>2019-10-06T10:33:40.000Z</Time>
            <Position>
              <LatitudeDegrees>41.13792235963046550750732421875</LatitudeDegrees>
              <LongitudeDegrees>-5.69621843285858631134033203125</LongitudeDegrees>
            </Position>
            <AltitudeMeters>786.20001220703125</AltitudeMeters>
            <DistanceMeters>NAN</DistanceMeters>
          </Trackpoint>
          <Trackpoint>
            <Time>2019-10-06T10:33:43.000Z</Time>
            <Position>
              <LatitudeDegrees>41.1376047693192958831787109375</LatitudeDegrees>
              <LongitudeDegrees>-5.6962434947490692138671875</LongitudeDegrees>
            </Position>
            <AltitudeMeters>786.20001220703125</AltitudeMeters>
            <DistanceMeters>NAN</DistanceMeters>
          </Trackpoint>
          <Trackpoint>
            <Time>2019-10-06T10:33:46.000Z</Time>
            <Position>
              <LatitudeDegrees>41.13728617317974567413330078125</LatitudeDegrees>
              <LongitudeDegrees>-5.696269981563091278076171875</LongitudeDegrees>
            </Position>
            <AltitudeMeters>784.20001220703125</AltitudeMeters>
            <DistanceMeters>NAN</DistanceMeters>
          </Trackpoint>
          <Trackpoint>
            <Time>2019-10-06T10:33:48.000Z</Time>
            <Position>
              <LatitudeDegrees>41.1370790563523769378662109375</LatitudeDegrees>
              <LongitudeDegrees>-5.6962912715971469879150390625</LongitudeDegrees>
            </Position>
            <AltitudeMeters>782.79998779296875</AltitudeMeters>
            <DistanceMeters>NAN</DistanceMeters>
          </Trackpoint>
          <Trackpoint>
            <Time>2019-10-06T10:33:50.000Z</Time>
            <Position>
              <LatitudeDegrees>41.13687529228627681732177734375</LatitudeDegrees>
              <LongitudeDegrees>-5.69631214253604412078857421875</LongitudeDegrees>
            </Position>
            <AltitudeMeters>782.79998779296875</AltitudeMeters>
            <DistanceMeters>NAN</DistanceMeters>
          </Trackpoint>
          <Trackpoint>
            <Time>2019-10-06T10:33:52.000Z</Time>
            <Position>
              <LatitudeDegrees>41.13667328841984272003173828125</LatitudeDegrees>
              <LongitudeDegrees>-5.69633762352168560028076171875</LongitudeDegrees>
            </Position>
            <AltitudeMeters>782.4000244140625</AltitudeMeters>
            <DistanceMeters>NAN</DistanceMeters>
          </Trackpoint>
          <Trackpoint>
            <Time>2019-10-06T10:33:54.000Z</Time>
            <Position>
              <LatitudeDegrees>41.1364725418388843536376953125</LatitudeDegrees>
              <LongitudeDegrees>-5.69635681807994842529296875</LongitudeDegrees>
            </Position>
            <AltitudeMeters>782.20001220703125</AltitudeMeters>
            <DistanceMeters>NAN</DistanceMeters>
          </Trackpoint>
          <Trackpoint>
            <Time>2019-10-06T10:33:55.000Z</Time>
            <Position>
              <LatitudeDegrees>41.13637137226760387420654296875</LatitudeDegrees>
              <LongitudeDegrees>-5.6963683851063251495361328125</LongitudeDegrees>
            </Position>
            <AltitudeMeters>782.20001220703125</AltitudeMeters>
            <DistanceMeters>NAN</DistanceMeters>
          </Trackpoint>
          <Trackpoint>
            <Time>2019-10-06T10:33:57.000Z</Time>
            <Position>
              <LatitudeDegrees>41.13616970367729663848876953125</LatitudeDegrees>
              <LongitudeDegrees>-5.696388669312000274658203125</LongitudeDegrees>
            </Position>
            <AltitudeMeters>781.79998779296875</AltitudeMeters>
            <DistanceMeters>NAN</DistanceMeters>
          </Trackpoint>
          <Trackpoint>
            <Time>2019-10-06T10:33:58.000Z</Time>
            <Position>
              <LatitudeDegrees>41.13607062958180904388427734375</LatitudeDegrees>
              <LongitudeDegrees>-5.696400068700313568115234375</LongitudeDegrees>
            </Position>
            <AltitudeMeters>781.20001220703125</AltitudeMeters>
            <DistanceMeters>NAN</DistanceMeters>
          </Trackpoint>
          <Trackpoint>
            <Time>2019-10-06T10:33:59.000Z</Time>
            <Position>
              <LatitudeDegrees>41.1359702982008457183837890625</LatitudeDegrees>
              <LongitudeDegrees>-5.69641205482184886932373046875</LongitudeDegrees>
            </Position>
            <AltitudeMeters>781.20001220703125</AltitudeMeters>
            <DistanceMeters>NAN</DistanceMeters>
          </Trackpoint>
          <Trackpoint>
            <Time>2019-10-06T10:34:01.000Z</Time>
            <Position>
              <LatitudeDegrees>41.1357718147337436676025390625</LatitudeDegrees>
              <LongitudeDegrees>-5.69643116556107997894287109375</LongitudeDegrees>
            </Position>
            <AltitudeMeters>780.79998779296875</AltitudeMeters>
            <DistanceMeters>NAN</DistanceMeters>
          </Trackpoint>
          <Trackpoint>
            <Time>2019-10-06T10:34:02.000Z</Time>
            <Position>
              <LatitudeDegrees>41.1356712318956851959228515625</LatitudeDegrees>
              <LongitudeDegrees>-5.6964421458542346954345703125</LongitudeDegrees>
            </Position>
            <AltitudeMeters>780</AltitudeMeters>
            <DistanceMeters>NAN</DistanceMeters>
          </Trackpoint>
          <Trackpoint>
            <Time>2019-10-06T10:34:04.000Z</Time>
            <Position>
              <LatitudeDegrees>41.13546989858150482177734375</LatitudeDegrees>
              <LongitudeDegrees>-5.69646335206925868988037109375</LongitudeDegrees>
            </Position>
            <AltitudeMeters>779</AltitudeMeters>
            <DistanceMeters>NAN</DistanceMeters>
          </Trackpoint>
          <Trackpoint>
            <Time>2019-10-06T10:34:06.000Z</Time>
            <Position>
              <LatitudeDegrees>41.1352722533047199249267578125</LatitudeDegrees>
              <LongitudeDegrees>-5.6964830495417118072509765625</LongitudeDegrees>
            </Position>
            <AltitudeMeters>778.4000244140625</AltitudeMeters>
            <DistanceMeters>NAN</DistanceMeters>
          </Trackpoint>
          <Trackpoint>
            <Time>2019-10-06T10:34:09.000Z</Time>
            <Position>
              <LatitudeDegrees>41.13497746177017688751220703125</LatitudeDegrees>
              <LongitudeDegrees>-5.6965135596692562103271484375</LongitudeDegrees>
            </Position>
            <AltitudeMeters>778</AltitudeMeters>
            <DistanceMeters>NAN</DistanceMeters>
          </Trackpoint>
          <Trackpoint>
            <Time>2019-10-06T10:34:10.000Z</Time>
            <Position>
              <LatitudeDegrees>41.134878806769847869873046875</LatitudeDegrees>
              <LongitudeDegrees>-5.6965239532291889190673828125</LongitudeDegrees>
            </Position>
            <AltitudeMeters>777.79998779296875</AltitudeMeters>
            <DistanceMeters>NAN</DistanceMeters>
          </Trackpoint>
          <Trackpoint>
            <Time>2019-10-06T10:34:12.000Z</Time>
            <Position>
              <LatitudeDegrees>41.1346825025975704193115234375</LatitudeDegrees>
              <LongitudeDegrees>-5.69654448889195919036865234375</LongitudeDegrees>
            </Position>
            <AltitudeMeters>777.5999755859375</AltitudeMeters>
            <DistanceMeters>NAN</DistanceMeters>
          </Trackpoint>
          <Trackpoint>
            <Time>2019-10-06T10:34:14.000Z</Time>
            <Position>
              <LatitudeDegrees>41.13448661752045154571533203125</LatitudeDegrees>
              <LongitudeDegrees>-5.69656225852668285369873046875</LongitudeDegrees>
            </Position>
            <AltitudeMeters>777.4000244140625</AltitudeMeters>
            <DistanceMeters>NAN</DistanceMeters>
          </Trackpoint>
          <Trackpoint>
            <Time>2019-10-06T10:34:17.000Z</Time>
            <Position>
              <LatitudeDegrees>41.13419978879392147064208984375</LatitudeDegrees>
              <LongitudeDegrees>-5.6965930201113224029541015625</LongitudeDegrees>
            </Position>
            <AltitudeMeters>776.20001220703125</AltitudeMeters>
            <DistanceMeters>NAN</DistanceMeters>
          </Trackpoint>
          <Trackpoint>
            <Time>2019-10-06T10:34:20.000Z</Time>
            <Position>
              <LatitudeDegrees>41.13392201252281665802001953125</LatitudeDegrees>
              <LongitudeDegrees>-5.6966248713433742523193359375</LongitudeDegrees>
            </Position>
            <AltitudeMeters>775.79998779296875</AltitudeMeters>
            <DistanceMeters>NAN</DistanceMeters>
          </Trackpoint>
          <Trackpoint>
            <Time>2019-10-06T10:34:23.000Z</Time>
            <Position>
              <LatitudeDegrees>41.1336560547351837158203125</LatitudeDegrees>
              <LongitudeDegrees>-5.69665462709963321685791015625</LongitudeDegrees>
            </Position>
            <AltitudeMeters>775.5999755859375</AltitudeMeters>
            <DistanceMeters>NAN</DistanceMeters>
          </Trackpoint>
          <Trackpoint>
            <Time>2019-10-06T10:34:29.000Z</Time>
            <Position>
              <LatitudeDegrees>41.13314048387110233306884765625</LatitudeDegrees>
              <LongitudeDegrees>-5.6967113725841045379638671875</LongitudeDegrees>
            </Position>
            <AltitudeMeters>776.4000244140625</AltitudeMeters>
            <DistanceMeters>NAN</DistanceMeters>
          </Trackpoint>
          <Trackpoint>
            <Time>2019-10-06T10:34:33.000Z</Time>
            <Position>
              <LatitudeDegrees>41.13282163627445697784423828125</LatitudeDegrees>
              <LongitudeDegrees>-5.69674414582550525665283203125</LongitudeDegrees>
            </Position>
            <AltitudeMeters>776.5999755859375</AltitudeMeters>
            <DistanceMeters>NAN</DistanceMeters>
          </Trackpoint>
          <Trackpoint>
            <Time>2019-10-06T10:34:35.000Z</Time>
            <Position>
              <LatitudeDegrees>41.1326674930751323699951171875</LatitudeDegrees>
              <LongitudeDegrees>-5.6967611610889434814453125</LongitudeDegrees>
            </Position>
            <AltitudeMeters>777</AltitudeMeters>
            <DistanceMeters>NAN</DistanceMeters>
          </Trackpoint>
          <Trackpoint>
            <Time>2019-10-06T10:34:40.000Z</Time>
            <Position>
              <LatitudeDegrees>41.13229357637465000152587890625</LatitudeDegrees>
              <LongitudeDegrees>-5.69679527543485164642333984375</LongitudeDegrees>
            </Position>
            <AltitudeMeters>776.79998779296875</AltitudeMeters>
            <DistanceMeters>NAN</DistanceMeters>
          </Trackpoint>
          <Trackpoint>
            <Time>2019-10-06T10:34:41.000Z</Time>
            <Position>
              <LatitudeDegrees>41.1322229169309139251708984375</LatitudeDegrees>
              <LongitudeDegrees>-5.6968040764331817626953125</LongitudeDegrees>
            </Position>
            <AltitudeMeters>777</AltitudeMeters>
            <DistanceMeters>NAN</DistanceMeters>
          </Trackpoint>
          <Trackpoint>
            <Time>2019-10-06T10:34:42.000Z</Time>
            <Position>
              <LatitudeDegrees>41.13215066492557525634765625</LatitudeDegrees>
              <LongitudeDegrees>-5.69681254215538501739501953125</LongitudeDegrees>
            </Position>
            <AltitudeMeters>777.4000244140625</AltitudeMeters>
            <DistanceMeters>NAN</DistanceMeters>
          </Trackpoint>
          <Trackpoint>
            <Time>2019-10-06T10:34:50.000Z</Time>
            <Position>
              <LatitudeDegrees>41.13160751760005950927734375</LatitudeDegrees>
              <LongitudeDegrees>-5.696862749755382537841796875</LongitudeDegrees>
            </Position>
            <AltitudeMeters>777.5999755859375</AltitudeMeters>
            <DistanceMeters>NAN</DistanceMeters>
          </Trackpoint>
          <Trackpoint>
            <Time>2019-10-06T10:34:51.000Z</Time>
            <Position>
              <LatitudeDegrees>41.1315409652888774871826171875</LatitudeDegrees>
              <LongitudeDegrees>-5.6968739815056324005126953125</LongitudeDegrees>
            </Position>
            <AltitudeMeters>778</AltitudeMeters>
            <DistanceMeters>NAN</DistanceMeters>
          </Trackpoint>
          <Trackpoint>
            <Time>2019-10-06T10:34:52.000Z</Time>
            <Position>
              <LatitudeDegrees>41.131473071873188018798828125</LatitudeDegrees>
              <LongitudeDegrees>-5.69688127376139163970947265625</LongitudeDegrees>
            </Position>
            <AltitudeMeters>778.4000244140625</AltitudeMeters>
            <DistanceMeters>NAN</DistanceMeters>
          </Trackpoint>
          <Trackpoint>
            <Time>2019-10-06T10:34:55.000Z</Time>
            <Position>
              <LatitudeDegrees>41.131270565092563629150390625</LatitudeDegrees>
              <LongitudeDegrees>-5.69690105505287647247314453125</LongitudeDegrees>
            </Position>
            <AltitudeMeters>777.20001220703125</AltitudeMeters>
            <DistanceMeters>NAN</DistanceMeters>
          </Trackpoint>
          <Trackpoint>
            <Time>2019-10-06T10:35:02.000Z</Time>
            <Position>
              <LatitudeDegrees>41.13080084323883056640625</LatitudeDegrees>
              <LongitudeDegrees>-5.6969450600445270538330078125</LongitudeDegrees>
            </Position>
            <AltitudeMeters>777.79998779296875</AltitudeMeters>
            <DistanceMeters>NAN</DistanceMeters>
          </Trackpoint>
          <Trackpoint>
            <Time>2019-10-06T10:35:07.000Z</Time>
            <Position>
              <LatitudeDegrees>41.1304714344441890716552734375</LatitudeDegrees>
              <LongitudeDegrees>-5.6969779171049594879150390625</LongitudeDegrees>
            </Position>
            <AltitudeMeters>778.20001220703125</AltitudeMeters>
            <DistanceMeters>NAN</DistanceMeters>
          </Trackpoint>
          <Trackpoint>
            <Time>2019-10-06T10:35:12.000Z</Time>
            <Position>
              <LatitudeDegrees>41.1301369965076446533203125</LatitudeDegrees>
              <LongitudeDegrees>-5.69701136089861392974853515625</LongitudeDegrees>
            </Position>
            <AltitudeMeters>777.79998779296875</AltitudeMeters>
            <DistanceMeters>NAN</DistanceMeters>
          </Trackpoint>
          <Trackpoint>
            <Time>2019-10-06T10:35:20.000Z</Time>
            <Position>
              <LatitudeDegrees>41.12960834987461566925048828125</LatitudeDegrees>
              <LongitudeDegrees>-5.6970620714128017425537109375</LongitudeDegrees>
            </Position>
            <AltitudeMeters>778</AltitudeMeters>
            <DistanceMeters>NAN</DistanceMeters>
          </Trackpoint>
          <Trackpoint>
            <Time>2019-10-06T10:35:21.000Z</Time>
            <Position>
              <LatitudeDegrees>41.12954230047762393951416015625</LatitudeDegrees>
              <LongitudeDegrees>-5.697071291506290435791015625</LongitudeDegrees>
            </Position>
            <AltitudeMeters>778.20001220703125</AltitudeMeters>
            <DistanceMeters>NAN</DistanceMeters>
          </Trackpoint>
          <Trackpoint>
            <Time>2019-10-06T10:35:29.000Z</Time>
            <Position>
              <LatitudeDegrees>41.12906277179718017578125</LatitudeDegrees>
              <LongitudeDegrees>-5.69711948744952678680419921875</LongitudeDegrees>
            </Position>
            <AltitudeMeters>779.4000244140625</AltitudeMeters>
            <DistanceMeters>NAN</DistanceMeters>
          </Trackpoint>
          <Trackpoint>
            <Time>2019-10-06T10:35:38.000Z</Time>
            <Position>
              <LatitudeDegrees>41.128557510673999786376953125</LatitudeDegrees>
              <LongitudeDegrees>-5.69716827012598514556884765625</LongitudeDegrees>
            </Position>
            <AltitudeMeters>780.4000244140625</AltitudeMeters>
            <DistanceMeters>NAN</DistanceMeters>
          </Trackpoint>
          <Trackpoint>
            <Time>2019-10-06T10:35:41.000Z</Time>
            <Position>
              <LatitudeDegrees>41.12839112989604473114013671875</LatitudeDegrees>
              <LongitudeDegrees>-5.69719157181680202484130859375</LongitudeDegrees>
            </Position>
            <AltitudeMeters>780.5999755859375</AltitudeMeters>
            <DistanceMeters>NAN</DistanceMeters>
          </Trackpoint>
          <Trackpoint>
            <Time>2019-10-06T10:35:45.000Z</Time>
            <Position>
              <LatitudeDegrees>41.12817697227001190185546875</LatitudeDegrees>
              <LongitudeDegrees>-5.69720565341413021087646484375</LongitudeDegrees>
            </Position>
            <AltitudeMeters>781.5999755859375</AltitudeMeters>
            <DistanceMeters>NAN</DistanceMeters>
          </Trackpoint>
          <Trackpoint>
            <Time>2019-10-06T10:35:46.000Z</Time>
            <Position>
              <LatitudeDegrees>41.1281231604516506195068359375</LatitudeDegrees>
              <LongitudeDegrees>-5.69721336476504802703857421875</LongitudeDegrees>
            </Position>
            <AltitudeMeters>782</AltitudeMeters>
            <DistanceMeters>NAN</DistanceMeters>
          </Trackpoint>
          <Trackpoint>
            <Time>2019-10-06T10:35:55.000Z</Time>
            <Position>
              <LatitudeDegrees>41.12765670754015445709228515625</LatitudeDegrees>
              <LongitudeDegrees>-5.69725678302347660064697265625</LongitudeDegrees>
            </Position>
            <AltitudeMeters>783.4000244140625</AltitudeMeters>
            <DistanceMeters>NAN</DistanceMeters>
          </Trackpoint>
          <Trackpoint>
            <Time>2019-10-06T10:36:01.000Z</Time>
            <Position>
              <LatitudeDegrees>41.12736468203365802764892578125</LatitudeDegrees>
              <LongitudeDegrees>-5.69728997536003589630126953125</LongitudeDegrees>
            </Position>
            <AltitudeMeters>784.4000244140625</AltitudeMeters>
            <DistanceMeters>NAN</DistanceMeters>
          </Trackpoint>
          <Trackpoint>
            <Time>2019-10-06T10:36:05.000Z</Time>
            <Position>
              <LatitudeDegrees>41.1271785199642181396484375</LatitudeDegrees>
              <LongitudeDegrees>-5.69731260649859905242919921875</LongitudeDegrees>
            </Position>
            <AltitudeMeters>785</AltitudeMeters>
            <DistanceMeters>NAN</DistanceMeters>
          </Trackpoint>
          <Trackpoint>
            <Time>2019-10-06T10:36:07.000Z</Time>
            <Position>
              <LatitudeDegrees>41.1270846426486968994140625</LatitudeDegrees>
              <LongitudeDegrees>-5.69732098840177059173583984375</LongitudeDegrees>
            </Position>
            <AltitudeMeters>785.5999755859375</AltitudeMeters>
            <DistanceMeters>NAN</DistanceMeters>
          </Trackpoint>
          <Trackpoint>
            <Time>2019-10-06T10:36:12.000Z</Time>
            <Position>
              <LatitudeDegrees>41.12686939537525177001953125</LatitudeDegrees>
              <LongitudeDegrees>-5.69733473472297191619873046875</LongitudeDegrees>
            </Position>
            <AltitudeMeters>786.5999755859375</AltitudeMeters>
            <DistanceMeters>NAN</DistanceMeters>
          </Trackpoint>
          <Trackpoint>
            <Time>2019-10-06T10:36:16.000Z</Time>
            <Position>
              <LatitudeDegrees>41.12670251168310642242431640625</LatitudeDegrees>
              <LongitudeDegrees>-5.6973537616431713104248046875</LongitudeDegrees>
            </Position>
            <AltitudeMeters>787</AltitudeMeters>
            <DistanceMeters>NAN</DistanceMeters>
          </Trackpoint>
          <Trackpoint>
            <Time>2019-10-06T10:36:21.000Z</Time>
            <Position>
              <LatitudeDegrees>41.12649279646575450897216796875</LatitudeDegrees>
              <LongitudeDegrees>-5.697374381124973297119140625</LongitudeDegrees>
            </Position>
            <AltitudeMeters>787.4000244140625</AltitudeMeters>
            <DistanceMeters>NAN</DistanceMeters>
          </Trackpoint>
          <Trackpoint>
            <Time>2019-10-06T10:36:24.000Z</Time>
            <Position>
              <LatitudeDegrees>41.12636891193687915802001953125</LatitudeDegrees>
              <LongitudeDegrees>-5.6973874568939208984375</LongitudeDegrees>
            </Position>
            <AltitudeMeters>788</AltitudeMeters>
            <DistanceMeters>NAN</DistanceMeters>
          </Trackpoint>
          <Trackpoint>
            <Time>2019-10-06T10:36:30.000Z</Time>
            <Position>
              <LatitudeDegrees>41.126125417649745941162109375</LatitudeDegrees>
              <LongitudeDegrees>-5.6974147818982601165771484375</LongitudeDegrees>
            </Position>
            <AltitudeMeters>789</AltitudeMeters>
            <DistanceMeters>NAN</DistanceMeters>
          </Trackpoint>
          <Trackpoint>
            <Time>2019-10-06T10:36:32.000Z</Time>
            <Position>
              <LatitudeDegrees>41.1260444484651088714599609375</LatitudeDegrees>
              <LongitudeDegrees>-5.697422325611114501953125</LongitudeDegrees>
            </Position>
            <AltitudeMeters>789.20001220703125</AltitudeMeters>
            <DistanceMeters>NAN</DistanceMeters>
          </Trackpoint>
          <Trackpoint>
            <Time>2019-10-06T10:36:41.000Z</Time>
            <Position>
              <LatitudeDegrees>41.12568427808582782745361328125</LatitudeDegrees>
              <LongitudeDegrees>-5.69745375774800777435302734375</LongitudeDegrees>
            </Position>
            <AltitudeMeters>790.5999755859375</AltitudeMeters>
            <DistanceMeters>NAN</DistanceMeters>
          </Trackpoint>
          <Trackpoint>
            <Time>2019-10-06T10:36:43.000Z</Time>
            <Position>
              <LatitudeDegrees>41.125605739653110504150390625</LatitudeDegrees>
              <LongitudeDegrees>-5.6974558532238006591796875</LongitudeDegrees>
            </Position>
            <AltitudeMeters>791.20001220703125</AltitudeMeters>
            <DistanceMeters>NAN</DistanceMeters>
          </Trackpoint>
          <Trackpoint>
            <Time>2019-10-06T10:36:50.000Z</Time>
            <Position>
              <LatitudeDegrees>41.12532435916364192962646484375</LatitudeDegrees>
              <LongitudeDegrees>-5.69744621403515338897705078125</LongitudeDegrees>
            </Position>
            <AltitudeMeters>791.79998779296875</AltitudeMeters>
            <DistanceMeters>NAN</DistanceMeters>
          </Trackpoint>
          <Trackpoint>
            <Time>2019-10-06T10:36:51.000Z</Time>
            <Position>
              <LatitudeDegrees>41.125283874571323394775390625</LatitudeDegrees>
              <LongitudeDegrees>-5.69743716157972812652587890625</LongitudeDegrees>
            </Position>
            <AltitudeMeters>792</AltitudeMeters>
            <DistanceMeters>NAN</DistanceMeters>
          </Trackpoint>
          <Trackpoint>
            <Time>2019-10-06T10:37:00.000Z</Time>
            <Position>
              <LatitudeDegrees>41.1249269731342792510986328125</LatitudeDegrees>
              <LongitudeDegrees>-5.69731009192764759063720703125</LongitudeDegrees>
            </Position>
            <AltitudeMeters>792.4000244140625</AltitudeMeters>
            <DistanceMeters>NAN</DistanceMeters>
          </Trackpoint>
          <Trackpoint>
            <Time>2019-10-06T10:37:02.000Z</Time>
            <Position>
              <LatitudeDegrees>41.12484876997768878936767578125</LatitudeDegrees>
              <LongitudeDegrees>-5.6972662545740604400634765625</LongitudeDegrees>
            </Position>
            <AltitudeMeters>793</AltitudeMeters>
            <DistanceMeters>NAN</DistanceMeters>
          </Trackpoint>
          <Trackpoint>
            <Time>2019-10-06T10:37:09.000Z</Time>
            <Position>
              <LatitudeDegrees>41.12458884716033935546875</LatitudeDegrees>
              <LongitudeDegrees>-5.69707422517240047454833984375</LongitudeDegrees>
            </Position>
            <AltitudeMeters>792.4000244140625</AltitudeMeters>
            <DistanceMeters>NAN</DistanceMeters>
          </Trackpoint>
          <Trackpoint>
            <Time>2019-10-06T10:37:15.000Z</Time>
            <Position>
              <LatitudeDegrees>41.12437401898205280303955078125</LatitudeDegrees>
              <LongitudeDegrees>-5.69686903618276119232177734375</LongitudeDegrees>
            </Position>
            <AltitudeMeters>793</AltitudeMeters>
            <DistanceMeters>NAN</DistanceMeters>
          </Trackpoint>
          <Trackpoint>
            <Time>2019-10-06T10:37:19.000Z</Time>
            <Position>
              <LatitudeDegrees>41.1242336221039295196533203125</LatitudeDegrees>
              <LongitudeDegrees>-5.69672252051532268524169921875</LongitudeDegrees>
            </Position>
            <AltitudeMeters>792.5999755859375</AltitudeMeters>
            <DistanceMeters>NAN</DistanceMeters>
          </Trackpoint>
          <Trackpoint>
            <Time>2019-10-06T10:37:27.000Z</Time>
            <Position>
              <LatitudeDegrees>41.1239358969032764434814453125</LatitudeDegrees>
              <LongitudeDegrees>-5.696450360119342803955078125</LongitudeDegrees>
            </Position>
            <AltitudeMeters>792.5999755859375</AltitudeMeters>
            <DistanceMeters>NAN</DistanceMeters>
          </Trackpoint>
          <Trackpoint>
            <Time>2019-10-06T10:37:28.000Z</Time>
            <Position>
              <LatitudeDegrees>41.12389474175870418548583984375</LatitudeDegrees>
              <LongitudeDegrees>-5.69642781279981136322021484375</LongitudeDegrees>
            </Position>
            <AltitudeMeters>792.79998779296875</AltitudeMeters>
            <DistanceMeters>NAN</DistanceMeters>
          </Trackpoint>
          <Trackpoint>
            <Time>2019-10-06T10:37:33.000Z</Time>
            <Position>
              <LatitudeDegrees>41.12368821166455745697021484375</LatitudeDegrees>
              <LongitudeDegrees>-5.6963266432285308837890625</LongitudeDegrees>
            </Position>
            <AltitudeMeters>793.20001220703125</AltitudeMeters>
            <DistanceMeters>NAN</DistanceMeters>
          </Trackpoint>
          <Trackpoint>
            <Time>2019-10-06T10:37:35.000Z</Time>
            <Position>
              <LatitudeDegrees>41.1236026324331760406494140625</LatitudeDegrees>
              <LongitudeDegrees>-5.69630292244255542755126953125</LongitudeDegrees>
            </Position>
            <AltitudeMeters>793.5999755859375</AltitudeMeters>
            <DistanceMeters>NAN</DistanceMeters>
          </Trackpoint>
          <Trackpoint>
            <Time>2019-10-06T10:37:38.000Z</Time>
            <Position>
              <LatitudeDegrees>41.1234708689153194427490234375</LatitudeDegrees>
              <LongitudeDegrees>-5.69628280587494373321533203125</LongitudeDegrees>
            </Position>
            <AltitudeMeters>793.5999755859375</AltitudeMeters>
            <DistanceMeters>NAN</DistanceMeters>
          </Trackpoint>
          <Trackpoint>
            <Time>2019-10-06T10:37:39.000Z</Time>
            <Position>
              <LatitudeDegrees>41.12342820502817630767822265625</LatitudeDegrees>
              <LongitudeDegrees>-5.69628414697945117950439453125</LongitudeDegrees>
            </Position>
            <AltitudeMeters>794</AltitudeMeters>
            <DistanceMeters>NAN</DistanceMeters>
          </Trackpoint>
          <Trackpoint>
            <Time>2019-10-06T10:37:42.000Z</Time>
            <Position>
              <LatitudeDegrees>41.1232998780906200408935546875</LatitudeDegrees>
              <LongitudeDegrees>-5.69629604928195476531982421875</LongitudeDegrees>
            </Position>
            <AltitudeMeters>794.20001220703125</AltitudeMeters>
            <DistanceMeters>NAN</DistanceMeters>
          </Trackpoint>
          <Trackpoint>
            <Time>2019-10-06T10:37:47.000Z</Time>
            <Position>
              <LatitudeDegrees>41.12309527583420276641845703125</LatitudeDegrees>
              <LongitudeDegrees>-5.69635924883186817169189453125</LongitudeDegrees>
            </Position>
            <AltitudeMeters>795.4000244140625</AltitudeMeters>
            <DistanceMeters>NAN</DistanceMeters>
          </Trackpoint>
          <Trackpoint>
            <Time>2019-10-06T10:37:49.000Z</Time>
            <Position>
              <LatitudeDegrees>41.12301774322986602783203125</LatitudeDegrees>
              <LongitudeDegrees>-5.6963975541293621063232421875</LongitudeDegrees>
            </Position>
            <AltitudeMeters>795.5999755859375</AltitudeMeters>
            <DistanceMeters>NAN</DistanceMeters>
          </Trackpoint>
          <Trackpoint>
            <Time>2019-10-06T10:37:53.000Z</Time>
            <Position>
              <LatitudeDegrees>41.12287516705691814422607421875</LatitudeDegrees>
              <LongitudeDegrees>-5.69650827907025814056396484375</LongitudeDegrees>
            </Position>
            <AltitudeMeters>796.4000244140625</AltitudeMeters>
            <DistanceMeters>NAN</DistanceMeters>
          </Trackpoint>
          <Trackpoint>
            <Time>2019-10-06T10:37:56.000Z</Time>
            <Position>
              <LatitudeDegrees>41.122777350246906280517578125</LatitudeDegrees>
              <LongitudeDegrees>-5.696609281003475189208984375</LongitudeDegrees>
            </Position>
            <AltitudeMeters>796.79998779296875</AltitudeMeters>
            <DistanceMeters>NAN</DistanceMeters>
          </Trackpoint>
          <Trackpoint>
            <Time>2019-10-06T10:38:00.000Z</Time>
            <Position>
              <LatitudeDegrees>41.1226571537554264068603515625</LatitudeDegrees>
              <LongitudeDegrees>-5.6967673636972904205322265625</LongitudeDegrees>
            </Position>
            <AltitudeMeters>797.5999755859375</AltitudeMeters>
            <DistanceMeters>NAN</DistanceMeters>
          </Trackpoint>
          <Trackpoint>
            <Time>2019-10-06T10:38:04.000Z</Time>
            <Position>
              <LatitudeDegrees>41.1225548945367336273193359375</LatitudeDegrees>
              <LongitudeDegrees>-5.69694799371063709259033203125</LongitudeDegrees>
            </Position>
            <AltitudeMeters>797.5999755859375</AltitudeMeters>
            <DistanceMeters>NAN</DistanceMeters>
          </Trackpoint>
          <Trackpoint>
            <Time>2019-10-06T10:38:07.000Z</Time>
            <Position>
              <LatitudeDegrees>41.12249731086194515228271484375</LatitudeDegrees>
              <LongitudeDegrees>-5.69710205309092998504638671875</LongitudeDegrees>
            </Position>
            <AltitudeMeters>798.79998779296875</AltitudeMeters>
            <DistanceMeters>NAN</DistanceMeters>
          </Trackpoint>
          <Trackpoint>
            <Time>2019-10-06T10:38:08.000Z</Time>
            <Position>
              <LatitudeDegrees>41.12248473800718784332275390625</LatitudeDegrees>
              <LongitudeDegrees>-5.69715737365186214447021484375</LongitudeDegrees>
            </Position>
            <AltitudeMeters>798.79998779296875</AltitudeMeters>
            <DistanceMeters>NAN</DistanceMeters>
          </Trackpoint>
          <Trackpoint>
            <Time>2019-10-06T10:38:11.000Z</Time>
            <Position>
              <LatitudeDegrees>41.12244986928999423980712890625</LatitudeDegrees>
              <LongitudeDegrees>-5.69732132367789745330810546875</LongitudeDegrees>
            </Position>
            <AltitudeMeters>799.20001220703125</AltitudeMeters>
            <DistanceMeters>NAN</DistanceMeters>
          </Trackpoint>
          <Trackpoint>
            <Time>2019-10-06T10:38:14.000Z</Time>
            <Position>
              <LatitudeDegrees>41.1224264837801456451416015625</LatitudeDegrees>
              <LongitudeDegrees>-5.6974932365119457244873046875</LongitudeDegrees>
            </Position>
            <AltitudeMeters>799.79998779296875</AltitudeMeters>
            <DistanceMeters>NAN</DistanceMeters>
          </Trackpoint>
          <Trackpoint>
            <Time>2019-10-06T10:38:15.000Z</Time>
            <Position>
              <LatitudeDegrees>41.12242707051336765289306640625</LatitudeDegrees>
              <LongitudeDegrees>-5.697552748024463653564453125</LongitudeDegrees>
            </Position>
            <AltitudeMeters>799.5999755859375</AltitudeMeters>
            <DistanceMeters>NAN</DistanceMeters>
          </Trackpoint>
          <Trackpoint>
            <Time>2019-10-06T10:38:17.000Z</Time>
            <Position>
              <LatitudeDegrees>41.12244986928999423980712890625</LatitudeDegrees>
              <LongitudeDegrees>-5.697667412459850311279296875</LongitudeDegrees>
            </Position>
            <AltitudeMeters>799.79998779296875</AltitudeMeters>
            <DistanceMeters>NAN</DistanceMeters>
          </Trackpoint>
          <Trackpoint>
            <Time>2019-10-06T10:38:20.000Z</Time>
            <Position>
              <LatitudeDegrees>41.12252421677112579345703125</LatitudeDegrees>
              <LongitudeDegrees>-5.69782742299139499664306640625</LongitudeDegrees>
            </Position>
            <AltitudeMeters>799.5999755859375</AltitudeMeters>
            <DistanceMeters>NAN</DistanceMeters>
          </Trackpoint>
          <Trackpoint>
            <Time>2019-10-06T10:38:21.000Z</Time>
            <Position>
              <LatitudeDegrees>41.1225468479096889495849609375</LatitudeDegrees>
              <LongitudeDegrees>-5.6978828273713588714599609375</LongitudeDegrees>
            </Position>
            <AltitudeMeters>799.79998779296875</AltitudeMeters>
            <DistanceMeters>NAN</DistanceMeters>
          </Trackpoint>
          <Trackpoint>
            <Time>2019-10-06T10:38:22.000Z</Time>
            <Position>
              <LatitudeDegrees>41.1225651204586029052734375</LatitudeDegrees>
              <LongitudeDegrees>-5.69794124923646450042724609375</LongitudeDegrees>
            </Position>
            <AltitudeMeters>799.4000244140625</AltitudeMeters>
            <DistanceMeters>NAN</DistanceMeters>
          </Trackpoint>
          <Trackpoint>
            <Time>2019-10-06T10:38:25.000Z</Time>
            <Position>
              <LatitudeDegrees>41.12254877574741840362548828125</LatitudeDegrees>
              <LongitudeDegrees>-5.69814291782677173614501953125</LongitudeDegrees>
            </Position>
            <AltitudeMeters>799.79998779296875</AltitudeMeters>
            <DistanceMeters>NAN</DistanceMeters>
          </Trackpoint>
          <Trackpoint>
            <Time>2019-10-06T10:38:29.000Z</Time>
            <Position>
              <LatitudeDegrees>41.122430004179477691650390625</LatitudeDegrees>
              <LongitudeDegrees>-5.69835782982409000396728515625</LongitudeDegrees>
            </Position>
            <AltitudeMeters>800.4000244140625</AltitudeMeters>
            <DistanceMeters>NAN</DistanceMeters>
          </Trackpoint>
          <Trackpoint>
            <Time>2019-10-06T10:38:31.000Z</Time>
            <Position>
              <LatitudeDegrees>41.12236864864826202392578125</LatitudeDegrees>
              <LongitudeDegrees>-5.69847282953560352325439453125</LongitudeDegrees>
            </Position>
            <AltitudeMeters>800.5999755859375</AltitudeMeters>
            <DistanceMeters>NAN</DistanceMeters>
          </Trackpoint>
          <Trackpoint>
            <Time>2019-10-06T10:38:34.000Z</Time>
            <Position>
              <LatitudeDegrees>41.12231542356312274932861328125</LatitudeDegrees>
              <LongitudeDegrees>-5.69867692887783050537109375</LongitudeDegrees>
            </Position>
            <AltitudeMeters>800.20001220703125</AltitudeMeters>
            <DistanceMeters>NAN</DistanceMeters>
          </Trackpoint>
          <Trackpoint>
            <Time>2019-10-06T10:38:35.000Z</Time>
            <Position>
              <LatitudeDegrees>41.12231098115444183349609375</LatitudeDegrees>
              <LongitudeDegrees>-5.69874959997832775115966796875</LongitudeDegrees>
            </Position>
            <AltitudeMeters>800.20001220703125</AltitudeMeters>
            <DistanceMeters>NAN</DistanceMeters>
          </Trackpoint>
          <Trackpoint>
            <Time>2019-10-06T10:38:39.000Z</Time>
            <Position>
              <LatitudeDegrees>41.1222942173480987548828125</LatitudeDegrees>
              <LongitudeDegrees>-5.69902754388749599456787109375</LongitudeDegrees>
            </Position>
            <AltitudeMeters>800.4000244140625</AltitudeMeters>
            <DistanceMeters>NAN</DistanceMeters>
          </Trackpoint>
          <Trackpoint>
            <Time>2019-10-06T10:38:46.000Z</Time>
            <Position>
              <LatitudeDegrees>41.12226747907698154449462890625</LatitudeDegrees>
              <LongitudeDegrees>-5.69952316582202911376953125</LongitudeDegrees>
            </Position>
            <AltitudeMeters>800.4000244140625</AltitudeMeters>
            <DistanceMeters>NAN</DistanceMeters>
          </Trackpoint>
          <Trackpoint>
            <Time>2019-10-06T10:38:49.000Z</Time>
            <Position>
              <LatitudeDegrees>41.1222799681127071380615234375</LatitudeDegrees>
              <LongitudeDegrees>-5.69973816163837909698486328125</LongitudeDegrees>
            </Position>
            <AltitudeMeters>800</AltitudeMeters>
            <DistanceMeters>NAN</DistanceMeters>
          </Trackpoint>
          <Trackpoint>
            <Time>2019-10-06T10:38:53.000Z</Time>
            <Position>
              <LatitudeDegrees>41.1223892681300640106201171875</LatitudeDegrees>
              <LongitudeDegrees>-5.7000037841498851776123046875</LongitudeDegrees>
            </Position>
            <AltitudeMeters>799.79998779296875</AltitudeMeters>
            <DistanceMeters>NAN</DistanceMeters>
          </Trackpoint>
          <Trackpoint>
            <Time>2019-10-06T10:38:55.000Z</Time>
            <Position>
              <LatitudeDegrees>41.1224274896085262298583984375</LatitudeDegrees>
              <LongitudeDegrees>-5.7001429237425327301025390625</LongitudeDegrees>
            </Position>
            <AltitudeMeters>800.20001220703125</AltitudeMeters>
            <DistanceMeters>NAN</DistanceMeters>
          </Trackpoint>
          <Trackpoint>
            <Time>2019-10-06T10:38:57.000Z</Time>
            <Position>
              <LatitudeDegrees>41.12242472358047962188720703125</LatitudeDegrees>
              <LongitudeDegrees>-5.700292289257049560546875</LongitudeDegrees>
            </Position>
            <AltitudeMeters>800.20001220703125</AltitudeMeters>
            <DistanceMeters>NAN</DistanceMeters>
          </Trackpoint>
          <Trackpoint>
            <Time>2019-10-06T10:39:00.000Z</Time>
            <Position>
              <LatitudeDegrees>41.1223362945020198822021484375</LatitudeDegrees>
              <LongitudeDegrees>-5.7004919461905956268310546875</LongitudeDegrees>
            </Position>
            <AltitudeMeters>799.79998779296875</AltitudeMeters>
            <DistanceMeters>NAN</DistanceMeters>
          </Trackpoint>
          <Trackpoint>
            <Time>2019-10-06T10:39:02.000Z</Time>
            <Position>
              <LatitudeDegrees>41.1222548224031925201416015625</LatitudeDegrees>
              <LongitudeDegrees>-5.7006072811782360076904296875</LongitudeDegrees>
            </Position>
            <AltitudeMeters>799.4000244140625</AltitudeMeters>
            <DistanceMeters>NAN</DistanceMeters>
          </Trackpoint>
          <Trackpoint>
            <Time>2019-10-06T10:39:05.000Z</Time>
            <Position>
              <LatitudeDegrees>41.12213823013007640838623046875</LatitudeDegrees>
              <LongitudeDegrees>-5.7007903419435024261474609375</LongitudeDegrees>
            </Position>
            <AltitudeMeters>799.5999755859375</AltitudeMeters>
            <DistanceMeters>NAN</DistanceMeters>
          </Trackpoint>
          <Trackpoint>
            <Time>2019-10-06T10:39:06.000Z</Time>
            <Position>
              <LatitudeDegrees>41.12210772000253200531005859375</LatitudeDegrees>
              <LongitudeDegrees>-5.70085865445435047149658203125</LongitudeDegrees>
            </Position>
            <AltitudeMeters>799.79998779296875</AltitudeMeters>
            <DistanceMeters>NAN</DistanceMeters>
          </Trackpoint>
          <Trackpoint>
            <Time>2019-10-06T10:39:12.000Z</Time>
            <Position>
              <LatitudeDegrees>41.1218865215778350830078125</LatitudeDegrees>
              <LongitudeDegrees>-5.70123500190675258636474609375</LongitudeDegrees>
            </Position>
            <AltitudeMeters>799.5999755859375</AltitudeMeters>
            <DistanceMeters>NAN</DistanceMeters>
          </Trackpoint>
          <Trackpoint>
            <Time>2019-10-06T10:39:13.000Z</Time>
            <Position>
              <LatitudeDegrees>41.1218434385955333709716796875</LatitudeDegrees>
              <LongitudeDegrees>-5.70129074156284332275390625</LongitudeDegrees>
            </Position>
            <AltitudeMeters>799.4000244140625</AltitudeMeters>
            <DistanceMeters>NAN</DistanceMeters>
          </Trackpoint>
          <Trackpoint>
            <Time>2019-10-06T10:39:15.000Z</Time>
            <Position>
              <LatitudeDegrees>41.1217498965561389923095703125</LatitudeDegrees>
              <LongitudeDegrees>-5.7013888098299503326416015625</LongitudeDegrees>
            </Position>
            <AltitudeMeters>799.5999755859375</AltitudeMeters>
            <DistanceMeters>NAN</DistanceMeters>
          </Trackpoint>
          <Trackpoint>
            <Time>2019-10-06T10:39:18.000Z</Time>
            <Position>
              <LatitudeDegrees>41.1215973459184169769287109375</LatitudeDegrees>
              <LongitudeDegrees>-5.70151411928236484527587890625</LongitudeDegrees>
            </Position>
            <AltitudeMeters>799.79998779296875</AltitudeMeters>
            <DistanceMeters>NAN</DistanceMeters>
          </Trackpoint>
          <Trackpoint>
            <Time>2019-10-06T10:39:19.000Z</Time>
            <Position>
              <LatitudeDegrees>41.12154110334813594818115234375</LatitudeDegrees>
              <LongitudeDegrees>-5.7015494070947170257568359375</LongitudeDegrees>
            </Position>
            <AltitudeMeters>799.5999755859375</AltitudeMeters>
            <DistanceMeters>NAN</DistanceMeters>
          </Trackpoint>
          <Trackpoint>
            <Time>2019-10-06T10:39:24.000Z</Time>
            <Position>
              <LatitudeDegrees>41.1212536878883838653564453125</LatitudeDegrees>
              <LongitudeDegrees>-5.70165610872209072113037109375</LongitudeDegrees>
            </Position>
            <AltitudeMeters>798.79998779296875</AltitudeMeters>
            <DistanceMeters>NAN</DistanceMeters>
          </Trackpoint>
          <Trackpoint>
            <Time>2019-10-06T10:39:25.000Z</Time>
            <Position>
              <LatitudeDegrees>41.1211940087378025054931640625</LatitudeDegrees>
              <LongitudeDegrees>-5.70166382007300853729248046875</LongitudeDegrees>
            </Position>
            <AltitudeMeters>798.79998779296875</AltitudeMeters>
            <DistanceMeters>NAN</DistanceMeters>
          </Trackpoint>
          <Trackpoint>
            <Time>2019-10-06T10:39:31.000Z</Time>
            <Position>
              <LatitudeDegrees>41.12084590829908847808837890625</LatitudeDegrees>
              <LongitudeDegrees>-5.70162978954613208770751953125</LongitudeDegrees>
            </Position>
            <AltitudeMeters>798.5999755859375</AltitudeMeters>
            <DistanceMeters>NAN</DistanceMeters>
          </Trackpoint>
          <Trackpoint>
            <Time>2019-10-06T10:39:37.000Z</Time>
            <Position>
              <LatitudeDegrees>41.12052102573215961456298828125</LatitudeDegrees>
              <LongitudeDegrees>-5.70145142264664173126220703125</LongitudeDegrees>
            </Position>
            <AltitudeMeters>798.79998779296875</AltitudeMeters>
            <DistanceMeters>NAN</DistanceMeters>
          </Trackpoint>
          <Trackpoint>
            <Time>2019-10-06T10:39:43.000Z</Time>
            <Position>
              <LatitudeDegrees>41.12025439739227294921875</LatitudeDegrees>
              <LongitudeDegrees>-5.70115386508405208587646484375</LongitudeDegrees>
            </Position>
            <AltitudeMeters>798.4000244140625</AltitudeMeters>
            <DistanceMeters>NAN</DistanceMeters>
          </Trackpoint>
          <Trackpoint>
            <Time>2019-10-06T10:39:50.000Z</Time>
            <Position>
              <LatitudeDegrees>41.12002967856824398040771484375</LatitudeDegrees>
              <LongitudeDegrees>-5.7007206045091152191162109375</LongitudeDegrees>
            </Position>
            <AltitudeMeters>798.79998779296875</AltitudeMeters>
            <DistanceMeters>NAN</DistanceMeters>
          </Trackpoint>
          <Trackpoint>
            <Time>2019-10-06T10:39:59.000Z</Time>
            <Position>
              <LatitudeDegrees>41.119747124612331390380859375</LatitudeDegrees>
              <LongitudeDegrees>-5.70015977136790752410888671875</LongitudeDegrees>
            </Position>
            <AltitudeMeters>799.20001220703125</AltitudeMeters>
            <DistanceMeters>NAN</DistanceMeters>
          </Trackpoint>
          <Trackpoint>
            <Time>2019-10-06T10:40:00.000Z</Time>
            <Position>
              <LatitudeDegrees>41.1197110824286937713623046875</LatitudeDegrees>
              <LongitudeDegrees>-5.70010478608310222625732421875</LongitudeDegrees>
            </Position>
            <AltitudeMeters>799.20001220703125</AltitudeMeters>
            <DistanceMeters>NAN</DistanceMeters>
          </Trackpoint>
          <Trackpoint>
            <Time>2019-10-06T10:40:06.000Z</Time>
            <Position>
              <LatitudeDegrees>41.11947119235992431640625</LatitudeDegrees>
              <LongitudeDegrees>-5.69981443695724010467529296875</LongitudeDegrees>
            </Position>
            <AltitudeMeters>799.5999755859375</AltitudeMeters>
            <DistanceMeters>NAN</DistanceMeters>
          </Trackpoint>
          <Trackpoint>
            <Time>2019-10-06T10:40:07.000Z</Time>
            <Position>
              <LatitudeDegrees>41.11942701973021030426025390625</LatitudeDegrees>
              <LongitudeDegrees>-5.69977286271750926971435546875</LongitudeDegrees>
            </Position>
            <AltitudeMeters>799.4000244140625</AltitudeMeters>
            <DistanceMeters>NAN</DistanceMeters>
          </Trackpoint>
          <Trackpoint>
            <Time>2019-10-06T10:40:08.000Z</Time>
            <Position>
              <LatitudeDegrees>41.11938192509114742279052734375</LatitudeDegrees>
              <LongitudeDegrees>-5.69973330013453960418701171875</LongitudeDegrees>
            </Position>
            <AltitudeMeters>799.79998779296875</AltitudeMeters>
            <DistanceMeters>NAN</DistanceMeters>
          </Trackpoint>
          <Trackpoint>
            <Time>2019-10-06T10:40:14.000Z</Time>
            <Position>
              <LatitudeDegrees>41.11908671446144580841064453125</LatitudeDegrees>
              <LongitudeDegrees>-5.69954236038029193878173828125</LongitudeDegrees>
            </Position>
            <AltitudeMeters>800</AltitudeMeters>
            <DistanceMeters>NAN</DistanceMeters>
          </Trackpoint>
          <Trackpoint>
            <Time>2019-10-06T10:40:20.000Z</Time>
            <Position>
              <LatitudeDegrees>41.11877440474927425384521484375</LatitudeDegrees>
              <LongitudeDegrees>-5.699432976543903350830078125</LongitudeDegrees>
            </Position>
            <AltitudeMeters>801.20001220703125</AltitudeMeters>
            <DistanceMeters>NAN</DistanceMeters>
          </Trackpoint>
          <Trackpoint>
            <Time>2019-10-06T10:40:21.000Z</Time>
            <Position>
              <LatitudeDegrees>41.118720509111881256103515625</LatitudeDegrees>
              <LongitudeDegrees>-5.69942568428814411163330078125</LongitudeDegrees>
            </Position>
            <AltitudeMeters>801.4000244140625</AltitudeMeters>
            <DistanceMeters>NAN</DistanceMeters>
          </Trackpoint>
          <Trackpoint>
            <Time>2019-10-06T10:40:30.000Z</Time>
            <Position>
              <LatitudeDegrees>41.1182355321943759918212890625</LatitudeDegrees>
              <LongitudeDegrees>-5.69937673397362232208251953125</LongitudeDegrees>
            </Position>
            <AltitudeMeters>802.20001220703125</AltitudeMeters>
            <DistanceMeters>NAN</DistanceMeters>
          </Trackpoint>
          <Trackpoint>
            <Time>2019-10-06T10:40:31.000Z</Time>
            <Position>
              <LatitudeDegrees>41.1181812174618244171142578125</LatitudeDegrees>
              <LongitudeDegrees>-5.69937187246978282928466796875</LongitudeDegrees>
            </Position>
            <AltitudeMeters>802.5999755859375</AltitudeMeters>
            <DistanceMeters>NAN</DistanceMeters>
          </Trackpoint>
          <Trackpoint>
            <Time>2019-10-06T10:40:41.000Z</Time>
            <Position>
              <LatitudeDegrees>41.11763530410826206207275390625</LatitudeDegrees>
              <LongitudeDegrees>-5.6993352435529232025146484375</LongitudeDegrees>
            </Position>
            <AltitudeMeters>803</AltitudeMeters>
            <DistanceMeters>NAN</DistanceMeters>
          </Trackpoint>
          <Trackpoint>
            <Time>2019-10-06T10:40:42.000Z</Time>
            <Position>
              <LatitudeDegrees>41.1175790615379810333251953125</LatitudeDegrees>
              <LongitudeDegrees>-5.6993265263736248016357421875</LongitudeDegrees>
            </Position>
            <AltitudeMeters>803</AltitudeMeters>
            <DistanceMeters>NAN</DistanceMeters>
          </Trackpoint>
          <Trackpoint>
            <Time>2019-10-06T10:40:51.000Z</Time>
            <Position>
              <LatitudeDegrees>41.1170451343059539794921875</LatitudeDegrees>
              <LongitudeDegrees>-5.69928956218063831329345703125</LongitudeDegrees>
            </Position>
            <AltitudeMeters>802.4000244140625</AltitudeMeters>
            <DistanceMeters>NAN</DistanceMeters>
          </Trackpoint>
          <Trackpoint>
            <Time>2019-10-06T10:40:52.000Z</Time>
            <Position>
              <LatitudeDegrees>41.11698453314602375030517578125</LatitudeDegrees>
              <LongitudeDegrees>-5.69928838871419429779052734375</LongitudeDegrees>
            </Position>
            <AltitudeMeters>802.20001220703125</AltitudeMeters>
            <DistanceMeters>NAN</DistanceMeters>
          </Trackpoint>
          <Trackpoint>
            <Time>2019-10-06T10:41:00.000Z</Time>
            <Position>
              <LatitudeDegrees>41.1164867319166660308837890625</LatitudeDegrees>
              <LongitudeDegrees>-5.69925067014992237091064453125</LongitudeDegrees>
            </Position>
            <AltitudeMeters>801.79998779296875</AltitudeMeters>
            <DistanceMeters>NAN</DistanceMeters>
          </Trackpoint>
          <Trackpoint>
            <Time>2019-10-06T10:41:02.000Z</Time>
            <Position>
              <LatitudeDegrees>41.1163532920181751251220703125</LatitudeDegrees>
              <LongitudeDegrees>-5.69923826493322849273681640625</LongitudeDegrees>
            </Position>
            <AltitudeMeters>801</AltitudeMeters>
            <DistanceMeters>NAN</DistanceMeters>
          </Trackpoint>
          <Trackpoint>
            <Time>2019-10-06T10:41:08.000Z</Time>
            <Position>
              <LatitudeDegrees>41.1159507930278778076171875</LatitudeDegrees>
              <LongitudeDegrees>-5.69921378977596759796142578125</LongitudeDegrees>
            </Position>
            <AltitudeMeters>800</AltitudeMeters>
            <DistanceMeters>NAN</DistanceMeters>
          </Trackpoint>
          <Trackpoint>
            <Time>2019-10-06T10:41:11.000Z</Time>
            <Position>
              <LatitudeDegrees>41.11574837006628513336181640625</LatitudeDegrees>
              <LongitudeDegrees>-5.6992034800350666046142578125</LongitudeDegrees>
            </Position>
            <AltitudeMeters>800</AltitudeMeters>
            <DistanceMeters>NAN</DistanceMeters>
          </Trackpoint>
          <Trackpoint>
            <Time>2019-10-06T10:41:14.000Z</Time>
            <Position>
              <LatitudeDegrees>41.1155436001718044281005859375</LatitudeDegrees>
              <LongitudeDegrees>-5.699187554419040679931640625</LongitudeDegrees>
            </Position>
            <AltitudeMeters>799.20001220703125</AltitudeMeters>
            <DistanceMeters>NAN</DistanceMeters>
          </Trackpoint>
          <Trackpoint>
            <Time>2019-10-06T10:41:16.000Z</Time>
            <Position>
              <LatitudeDegrees>41.11540655605494976043701171875</LatitudeDegrees>
              <LongitudeDegrees>-5.699176825582981109619140625</LongitudeDegrees>
            </Position>
            <AltitudeMeters>798.79998779296875</AltitudeMeters>
            <DistanceMeters>NAN</DistanceMeters>
          </Trackpoint>
          <Trackpoint>
            <Time>2019-10-06T10:41:20.000Z</Time>
            <Position>
              <LatitudeDegrees>41.11513380892574787139892578125</LatitudeDegrees>
              <LongitudeDegrees>-5.6991563737392425537109375</LongitudeDegrees>
            </Position>
            <AltitudeMeters>798.79998779296875</AltitudeMeters>
            <DistanceMeters>NAN</DistanceMeters>
          </Trackpoint>
          <Trackpoint>
            <Time>2019-10-06T10:41:23.000Z</Time>
            <Position>
              <LatitudeDegrees>41.1149275302886962890625</LatitudeDegrees>
              <LongitudeDegrees>-5.69914338178932666778564453125</LongitudeDegrees>
            </Position>
            <AltitudeMeters>798</AltitudeMeters>
            <DistanceMeters>NAN</DistanceMeters>
          </Trackpoint>
          <Trackpoint>
            <Time>2019-10-06T10:41:30.000Z</Time>
            <Position>
              <LatitudeDegrees>41.11444531939923763275146484375</LatitudeDegrees>
              <LongitudeDegrees>-5.69911102764308452606201171875</LongitudeDegrees>
            </Position>
            <AltitudeMeters>798</AltitudeMeters>
            <DistanceMeters>NAN</DistanceMeters>
          </Trackpoint>
          <Trackpoint>
            <Time>2019-10-06T10:41:31.000Z</Time>
            <Position>
              <LatitudeDegrees>41.11437675543129444122314453125</LatitudeDegrees>
              <LongitudeDegrees>-5.6991080939769744873046875</LongitudeDegrees>
            </Position>
            <AltitudeMeters>797.79998779296875</AltitudeMeters>
            <DistanceMeters>NAN</DistanceMeters>
          </Trackpoint>
          <Trackpoint>
            <Time>2019-10-06T10:41:39.000Z</Time>
            <Position>
              <LatitudeDegrees>41.11381852068006992340087890625</LatitudeDegrees>
              <LongitudeDegrees>-5.699095688760280609130859375</LongitudeDegrees>
            </Position>
            <AltitudeMeters>797.20001220703125</AltitudeMeters>
            <DistanceMeters>NAN</DistanceMeters>
          </Trackpoint>
          <Trackpoint>
            <Time>2019-10-06T10:41:42.000Z</Time>
            <Position>
              <LatitudeDegrees>41.11361383460462093353271484375</LatitudeDegrees>
              <LongitudeDegrees>-5.699090324342250823974609375</LongitudeDegrees>
            </Position>
            <AltitudeMeters>797.20001220703125</AltitudeMeters>
            <DistanceMeters>NAN</DistanceMeters>
          </Trackpoint>
          <Trackpoint>
            <Time>2019-10-06T10:41:47.000Z</Time>
            <Position>
              <LatitudeDegrees>41.113285683095455169677734375</LatitudeDegrees>
              <LongitudeDegrees>-5.6990931741893291473388671875</LongitudeDegrees>
            </Position>
            <AltitudeMeters>797.79998779296875</AltitudeMeters>
            <DistanceMeters>NAN</DistanceMeters>
          </Trackpoint>
          <Trackpoint>
            <Time>2019-10-06T10:41:52.000Z</Time>
            <Position>
              <LatitudeDegrees>41.11297287046909332275390625</LatitudeDegrees>
              <LongitudeDegrees>-5.6991002149879932403564453125</LongitudeDegrees>
            </Position>
            <AltitudeMeters>798.5999755859375</AltitudeMeters>
            <DistanceMeters>NAN</DistanceMeters>
          </Trackpoint>
          <Trackpoint>
            <Time>2019-10-06T10:41:53.000Z</Time>
            <Position>
              <LatitudeDegrees>41.11291277222335338592529296875</LatitudeDegrees>
              <LongitudeDegrees>-5.6991025619208812713623046875</LongitudeDegrees>
            </Position>
            <AltitudeMeters>798.4000244140625</AltitudeMeters>
            <DistanceMeters>NAN</DistanceMeters>
          </Trackpoint>
          <Trackpoint>
            <Time>2019-10-06T10:41:56.000Z</Time>
            <Position>
              <LatitudeDegrees>41.11273624934256076812744140625</LatitudeDegrees>
              <LongitudeDegrees>-5.6991149671375751495361328125</LongitudeDegrees>
            </Position>
            <AltitudeMeters>799</AltitudeMeters>
            <DistanceMeters>NAN</DistanceMeters>
          </Trackpoint>
          <Trackpoint>
            <Time>2019-10-06T10:42:01.000Z</Time>
            <Position>
              <LatitudeDegrees>41.11245444975793361663818359375</LatitudeDegrees>
              <LongitudeDegrees>-5.69913030602037906646728515625</LongitudeDegrees>
            </Position>
            <AltitudeMeters>799.4000244140625</AltitudeMeters>
            <DistanceMeters>NAN</DistanceMeters>
          </Trackpoint>
          <Trackpoint>
            <Time>2019-10-06T10:42:06.000Z</Time>
            <Position>
              <LatitudeDegrees>41.11217533238232135772705078125</LatitudeDegrees>
              <LongitudeDegrees>-5.6991548649966716766357421875</LongitudeDegrees>
            </Position>
            <AltitudeMeters>800</AltitudeMeters>
            <DistanceMeters>NAN</DistanceMeters>
          </Trackpoint>
          <Trackpoint>
            <Time>2019-10-06T10:42:10.000Z</Time>
            <Position>
              <LatitudeDegrees>41.1119480989873409271240234375</LatitudeDegrees>
              <LongitudeDegrees>-5.69916232489049434661865234375</LongitudeDegrees>
            </Position>
            <AltitudeMeters>800.4000244140625</AltitudeMeters>
            <DistanceMeters>NAN</DistanceMeters>
          </Trackpoint>
          <Trackpoint>
            <Time>2019-10-06T10:42:12.000Z</Time>
            <Position>
              <LatitudeDegrees>41.111833266913890838623046875</LatitudeDegrees>
              <LongitudeDegrees>-5.69917037151753902435302734375</LongitudeDegrees>
            </Position>
            <AltitudeMeters>800.4000244140625</AltitudeMeters>
            <DistanceMeters>NAN</DistanceMeters>
          </Trackpoint>
          <Trackpoint>
            <Time>2019-10-06T10:42:16.000Z</Time>
            <Position>
              <LatitudeDegrees>41.111598908901214599609375</LatitudeDegrees>
              <LongitudeDegrees>-5.6991899013519287109375</LongitudeDegrees>
            </Position>
            <AltitudeMeters>800.4000244140625</AltitudeMeters>
            <DistanceMeters>NAN</DistanceMeters>
          </Trackpoint>
          <Trackpoint>
            <Time>2019-10-06T10:42:18.000Z</Time>
            <Position>
              <LatitudeDegrees>41.1114897765219211578369140625</LatitudeDegrees>
              <LongitudeDegrees>-5.699198283255100250244140625</LongitudeDegrees>
            </Position>
            <AltitudeMeters>801</AltitudeMeters>
            <DistanceMeters>NAN</DistanceMeters>
          </Trackpoint>
          <Trackpoint>
            <Time>2019-10-06T10:42:23.000Z</Time>
            <Position>
              <LatitudeDegrees>41.11120395362377166748046875</LatitudeDegrees>
              <LongitudeDegrees>-5.69921965710818767547607421875</LongitudeDegrees>
            </Position>
            <AltitudeMeters>801.79998779296875</AltitudeMeters>
            <DistanceMeters>NAN</DistanceMeters>
          </Trackpoint>
          <Trackpoint>
            <Time>2019-10-06T10:42:28.000Z</Time>
            <Position>
              <LatitudeDegrees>41.11092944629490375518798828125</LatitudeDegrees>
              <LongitudeDegrees>-5.6992403604090213775634765625</LongitudeDegrees>
            </Position>
            <AltitudeMeters>802.20001220703125</AltitudeMeters>
            <DistanceMeters>NAN</DistanceMeters>
          </Trackpoint>
          <Trackpoint>
            <Time>2019-10-06T10:42:38.000Z</Time>
            <Position>
              <LatitudeDegrees>41.11037456430494785308837890625</LatitudeDegrees>
              <LongitudeDegrees>-5.69927640259265899658203125</LongitudeDegrees>
            </Position>
            <AltitudeMeters>803</AltitudeMeters>
            <DistanceMeters>NAN</DistanceMeters>
          </Trackpoint>
          <Trackpoint>
            <Time>2019-10-06T10:42:40.000Z</Time>
            <Position>
              <LatitudeDegrees>41.1102680303156375885009765625</LatitudeDegrees>
              <LongitudeDegrees>-5.69928436540067195892333984375</LongitudeDegrees>
            </Position>
            <AltitudeMeters>803.20001220703125</AltitudeMeters>
            <DistanceMeters>NAN</DistanceMeters>
          </Trackpoint>
          <Trackpoint>
            <Time>2019-10-06T10:42:48.000Z</Time>
            <Position>
              <LatitudeDegrees>41.1098378710448741912841796875</LatitudeDegrees>
              <LongitudeDegrees>-5.69931688718497753143310546875</LongitudeDegrees>
            </Position>
            <AltitudeMeters>803.79998779296875</AltitudeMeters>
            <DistanceMeters>NAN</DistanceMeters>
          </Trackpoint>
          <Trackpoint>
            <Time>2019-10-06T10:42:53.000Z</Time>
            <Position>
              <LatitudeDegrees>41.1095706559717655181884765625</LatitudeDegrees>
              <LongitudeDegrees>-5.69933230988681316375732421875</LongitudeDegrees>
            </Position>
            <AltitudeMeters>804.5999755859375</AltitudeMeters>
            <DistanceMeters>NAN</DistanceMeters>
          </Trackpoint>
          <Trackpoint>
            <Time>2019-10-06T10:43:00.000Z</Time>
            <Position>
              <LatitudeDegrees>41.1091934703290462493896484375</LatitudeDegrees>
              <LongitudeDegrees>-5.69936080835759639739990234375</LongitudeDegrees>
            </Position>
            <AltitudeMeters>804.4000244140625</AltitudeMeters>
            <DistanceMeters>NAN</DistanceMeters>
          </Trackpoint>
          <Trackpoint>
            <Time>2019-10-06T10:43:08.000Z</Time>
            <Position>
              <LatitudeDegrees>41.10876490361988544464111328125</LatitudeDegrees>
              <LongitudeDegrees>-5.6993882171809673309326171875</LongitudeDegrees>
            </Position>
            <AltitudeMeters>805.5999755859375</AltitudeMeters>
            <DistanceMeters>NAN</DistanceMeters>
          </Trackpoint>
          <Trackpoint>
            <Time>2019-10-06T10:43:11.000Z</Time>
            <Position>
              <LatitudeDegrees>41.10861000604927539825439453125</LatitudeDegrees>
              <LongitudeDegrees>-5.699399448931217193603515625</LongitudeDegrees>
            </Position>
            <AltitudeMeters>805.79998779296875</AltitudeMeters>
            <DistanceMeters>NAN</DistanceMeters>
          </Trackpoint>
          <Trackpoint>
            <Time>2019-10-06T10:43:19.000Z</Time>
            <Position>
              <LatitudeDegrees>41.1081829480826854705810546875</LatitudeDegrees>
              <LongitudeDegrees>-5.699430294334888458251953125</LongitudeDegrees>
            </Position>
            <AltitudeMeters>806.5999755859375</AltitudeMeters>
            <DistanceMeters>NAN</DistanceMeters>
          </Trackpoint>
          <Trackpoint>
            <Time>2019-10-06T10:43:24.000Z</Time>
            <Position>
              <LatitudeDegrees>41.10790709964931011199951171875</LatitudeDegrees>
              <LongitudeDegrees>-5.6994549371302127838134765625</LongitudeDegrees>
            </Position>
            <AltitudeMeters>806.79998779296875</AltitudeMeters>
            <DistanceMeters>NAN</DistanceMeters>
          </Trackpoint>
          <Trackpoint>
            <Time>2019-10-06T10:43:26.000Z</Time>
            <Position>
              <LatitudeDegrees>41.10779511742293834686279296875</LatitudeDegrees>
              <LongitudeDegrees>-5.6994636543095111846923828125</LongitudeDegrees>
            </Position>
            <AltitudeMeters>807</AltitudeMeters>
            <DistanceMeters>NAN</DistanceMeters>
          </Trackpoint>
          <Trackpoint>
            <Time>2019-10-06T10:43:27.000Z</Time>
            <Position>
              <LatitudeDegrees>41.10774113796651363372802734375</LatitudeDegrees>
              <LongitudeDegrees>-5.69946625269949436187744140625</LongitudeDegrees>
            </Position>
            <AltitudeMeters>807</AltitudeMeters>
            <DistanceMeters>NAN</DistanceMeters>
          </Trackpoint>
          <Trackpoint>
            <Time>2019-10-06T10:43:37.000Z</Time>
            <Position>
              <LatitudeDegrees>41.10720821656286716461181640625</LatitudeDegrees>
              <LongitudeDegrees>-5.6994998641312122344970703125</LongitudeDegrees>
            </Position>
            <AltitudeMeters>807</AltitudeMeters>
            <DistanceMeters>NAN</DistanceMeters>
          </Trackpoint>
          <Trackpoint>
            <Time>2019-10-06T10:43:39.000Z</Time>
            <Position>
              <LatitudeDegrees>41.10710109584033489227294921875</LatitudeDegrees>
              <LongitudeDegrees>-5.6995045579969882965087890625</LongitudeDegrees>
            </Position>
            <AltitudeMeters>807</AltitudeMeters>
            <DistanceMeters>NAN</DistanceMeters>
          </Trackpoint>
          <Trackpoint>
            <Time>2019-10-06T10:43:49.000Z</Time>
            <Position>
              <LatitudeDegrees>41.10653514973819255828857421875</LatitudeDegrees>
              <LongitudeDegrees>-5.699497349560260772705078125</LongitudeDegrees>
            </Position>
            <AltitudeMeters>806.5999755859375</AltitudeMeters>
            <DistanceMeters>NAN</DistanceMeters>
          </Trackpoint>
          <Trackpoint>
            <Time>2019-10-06T10:43:55.000Z</Time>
            <Position>
              <LatitudeDegrees>41.106191240251064300537109375</LatitudeDegrees>
              <LongitudeDegrees>-5.6994542665779590606689453125</LongitudeDegrees>
            </Position>
            <AltitudeMeters>806.4000244140625</AltitudeMeters>
            <DistanceMeters>NAN</DistanceMeters>
          </Trackpoint>
          <Trackpoint>
            <Time>2019-10-06T10:43:56.000Z</Time>
            <Position>
              <LatitudeDegrees>41.10613332130014896392822265625</LatitudeDegrees>
              <LongitudeDegrees>-5.69944714196026325225830078125</LongitudeDegrees>
            </Position>
            <AltitudeMeters>806.4000244140625</AltitudeMeters>
            <DistanceMeters>NAN</DistanceMeters>
          </Trackpoint>
          <Trackpoint>
            <Time>2019-10-06T10:43:58.000Z</Time>
            <Position>
              <LatitudeDegrees>41.10601513646543025970458984375</LatitudeDegrees>
              <LongitudeDegrees>-5.69943331182003021240234375</LongitudeDegrees>
            </Position>
            <AltitudeMeters>805.79998779296875</AltitudeMeters>
            <DistanceMeters>NAN</DistanceMeters>
          </Trackpoint>
          <Trackpoint>
            <Time>2019-10-06T10:44:00.000Z</Time>
            <Position>
              <LatitudeDegrees>41.10589477233588695526123046875</LatitudeDegrees>
              <LongitudeDegrees>-5.6994120217859745025634765625</LongitudeDegrees>
            </Position>
            <AltitudeMeters>805.79998779296875</AltitudeMeters>
            <DistanceMeters>NAN</DistanceMeters>
          </Trackpoint>
          <Trackpoint>
            <Time>2019-10-06T10:44:04.000Z</Time>
            <Position>
              <LatitudeDegrees>41.10564172267913818359375</LatitudeDegrees>
              <LongitudeDegrees>-5.6993640772998332977294921875</LongitudeDegrees>
            </Position>
            <AltitudeMeters>805.20001220703125</AltitudeMeters>
            <DistanceMeters>NAN</DistanceMeters>
          </Trackpoint>
          <Trackpoint>
            <Time>2019-10-06T10:44:06.000Z</Time>
            <Position>
              <LatitudeDegrees>41.10550719313323497772216796875</LatitudeDegrees>
              <LongitudeDegrees>-5.69933800958096981048583984375</LongitudeDegrees>
            </Position>
            <AltitudeMeters>804.4000244140625</AltitudeMeters>
            <DistanceMeters>NAN</DistanceMeters>
          </Trackpoint>
          <Trackpoint>
            <Time>2019-10-06T10:44:12.000Z</Time>
            <Position>
              <LatitudeDegrees>41.105081140995025634765625</LatitudeDegrees>
              <LongitudeDegrees>-5.69927112199366092681884765625</LongitudeDegrees>
            </Position>
            <AltitudeMeters>803.79998779296875</AltitudeMeters>
            <DistanceMeters>NAN</DistanceMeters>
          </Trackpoint>
          <Trackpoint>
            <Time>2019-10-06T10:44:13.000Z</Time>
            <Position>
              <LatitudeDegrees>41.1050109006464481353759765625</LatitudeDegrees>
              <LongitudeDegrees>-5.6992614828050136566162109375</LongitudeDegrees>
            </Position>
            <AltitudeMeters>803.20001220703125</AltitudeMeters>
            <DistanceMeters>NAN</DistanceMeters>
          </Trackpoint>
          <Trackpoint>
            <Time>2019-10-06T10:44:19.000Z</Time>
            <Position>
              <LatitudeDegrees>41.1046015284955501556396484375</LatitudeDegrees>
              <LongitudeDegrees>-5.699240528047084808349609375</LongitudeDegrees>
            </Position>
            <AltitudeMeters>803</AltitudeMeters>
            <DistanceMeters>NAN</DistanceMeters>
          </Trackpoint>
          <Trackpoint>
            <Time>2019-10-06T10:44:27.000Z</Time>
            <Position>
              <LatitudeDegrees>41.10406315885484218597412109375</LatitudeDegrees>
              <LongitudeDegrees>-5.6992594711482524871826171875</LongitudeDegrees>
            </Position>
            <AltitudeMeters>802.4000244140625</AltitudeMeters>
            <DistanceMeters>NAN</DistanceMeters>
          </Trackpoint>
          <Trackpoint>
            <Time>2019-10-06T10:44:28.000Z</Time>
            <Position>
              <LatitudeDegrees>41.10399526543915271759033203125</LatitudeDegrees>
              <LongitudeDegrees>-5.6992655061185359954833984375</LongitudeDegrees>
            </Position>
            <AltitudeMeters>802.5999755859375</AltitudeMeters>
            <DistanceMeters>NAN</DistanceMeters>
          </Trackpoint>
          <Trackpoint>
            <Time>2019-10-06T10:44:31.000Z</Time>
            <Position>
              <LatitudeDegrees>41.10378990881145000457763671875</LatitudeDegrees>
              <LongitudeDegrees>-5.6992812640964984893798828125</LongitudeDegrees>
            </Position>
            <AltitudeMeters>802</AltitudeMeters>
            <DistanceMeters>NAN</DistanceMeters>
          </Trackpoint>
          <Trackpoint>
            <Time>2019-10-06T10:44:36.000Z</Time>
            <Position>
              <LatitudeDegrees>41.10344038344919681549072265625</LatitudeDegrees>
              <LongitudeDegrees>-5.699305571615695953369140625</LongitudeDegrees>
            </Position>
            <AltitudeMeters>800.79998779296875</AltitudeMeters>
            <DistanceMeters>NAN</DistanceMeters>
          </Trackpoint>
          <Trackpoint>
            <Time>2019-10-06T10:44:37.000Z</Time>
            <Position>
              <LatitudeDegrees>41.10337047837674617767333984375</LatitudeDegrees>
              <LongitudeDegrees>-5.69931051693856716156005859375</LongitudeDegrees>
            </Position>
            <AltitudeMeters>800.79998779296875</AltitudeMeters>
            <DistanceMeters>NAN</DistanceMeters>
          </Trackpoint>
          <Trackpoint>
            <Time>2019-10-06T10:44:40.000Z</Time>
            <Position>
              <LatitudeDegrees>41.10316143371164798736572265625</LatitudeDegrees>
              <LongitudeDegrees>-5.699327029287815093994140625</LongitudeDegrees>
            </Position>
            <AltitudeMeters>801</AltitudeMeters>
            <DistanceMeters>NAN</DistanceMeters>
          </Trackpoint>
          <Trackpoint>
            <Time>2019-10-06T10:44:48.000Z</Time>
            <Position>
              <LatitudeDegrees>41.10259272158145904541015625</LatitudeDegrees>
              <LongitudeDegrees>-5.69937556050717830657958984375</LongitudeDegrees>
            </Position>
            <AltitudeMeters>800.4000244140625</AltitudeMeters>
            <DistanceMeters>NAN</DistanceMeters>
          </Trackpoint>
          <Trackpoint>
            <Time>2019-10-06T10:44:50.000Z</Time>
            <Position>
              <LatitudeDegrees>41.102444864809513092041015625</LatitudeDegrees>
              <LongitudeDegrees>-5.69938427768647670745849609375</LongitudeDegrees>
            </Position>
            <AltitudeMeters>800</AltitudeMeters>
            <DistanceMeters>NAN</DistanceMeters>
          </Trackpoint>
          <Trackpoint>
            <Time>2019-10-06T10:44:52.000Z</Time>
            <Position>
              <LatitudeDegrees>41.10230094753205776214599609375</LatitudeDegrees>
              <LongitudeDegrees>-5.69939685054123401641845703125</LongitudeDegrees>
            </Position>
            <AltitudeMeters>799.5999755859375</AltitudeMeters>
            <DistanceMeters>NAN</DistanceMeters>
          </Trackpoint>
          <Trackpoint>
            <Time>2019-10-06T10:44:56.000Z</Time>
            <Position>
              <LatitudeDegrees>41.10200959257781505584716796875</LatitudeDegrees>
              <LongitudeDegrees>-5.69941663183271884918212890625</LongitudeDegrees>
            </Position>
            <AltitudeMeters>799.4000244140625</AltitudeMeters>
            <DistanceMeters>NAN</DistanceMeters>
          </Trackpoint>
          <Trackpoint>
            <Time>2019-10-06T10:44:58.000Z</Time>
            <Position>
              <LatitudeDegrees>41.1018609814345836639404296875</LatitudeDegrees>
              <LongitudeDegrees>-5.699428953230381011962890625</LongitudeDegrees>
            </Position>
            <AltitudeMeters>799</AltitudeMeters>
            <DistanceMeters>NAN</DistanceMeters>
          </Trackpoint>
          <Trackpoint>
            <Time>2019-10-06T10:44:59.000Z</Time>
            <Position>
              <LatitudeDegrees>41.1017872206866741180419921875</LatitudeDegrees>
              <LongitudeDegrees>-5.69943574257194995880126953125</LongitudeDegrees>
            </Position>
            <AltitudeMeters>798.5999755859375</AltitudeMeters>
            <DistanceMeters>NAN</DistanceMeters>
          </Trackpoint>
          <Trackpoint>
            <Time>2019-10-06T10:45:04.000Z</Time>
            <Position>
              <LatitudeDegrees>41.10141581855714321136474609375</LatitudeDegrees>
              <LongitudeDegrees>-5.69945904426276683807373046875</LongitudeDegrees>
            </Position>
            <AltitudeMeters>797.79998779296875</AltitudeMeters>
            <DistanceMeters>NAN</DistanceMeters>
          </Trackpoint>
          <Trackpoint>
            <Time>2019-10-06T10:45:05.000Z</Time>
            <Position>
              <LatitudeDegrees>41.1013416387140750885009765625</LatitudeDegrees>
              <LongitudeDegrees>-5.69946373812854290008544921875</LongitudeDegrees>
            </Position>
            <AltitudeMeters>797.4000244140625</AltitudeMeters>
            <DistanceMeters>NAN</DistanceMeters>
          </Trackpoint>
          <Trackpoint>
            <Time>2019-10-06T10:45:07.000Z</Time>
            <Position>
              <LatitudeDegrees>41.10119520686566829681396484375</LatitudeDegrees>
              <LongitudeDegrees>-5.69947756826877593994140625</LongitudeDegrees>
            </Position>
            <AltitudeMeters>797.79998779296875</AltitudeMeters>
            <DistanceMeters>NAN</DistanceMeters>
          </Trackpoint>
          <Trackpoint>
            <Time>2019-10-06T10:45:13.000Z</Time>
            <Position>
              <LatitudeDegrees>41.10075817443430423736572265625</LatitudeDegrees>
              <LongitudeDegrees>-5.69951587356626987457275390625</LongitudeDegrees>
            </Position>
            <AltitudeMeters>796.79998779296875</AltitudeMeters>
            <DistanceMeters>NAN</DistanceMeters>
          </Trackpoint>
          <Trackpoint>
            <Time>2019-10-06T10:45:14.000Z</Time>
            <Position>
              <LatitudeDegrees>41.10068525187671184539794921875</LatitudeDegrees>
              <LongitudeDegrees>-5.6995213218033313751220703125</LongitudeDegrees>
            </Position>
            <AltitudeMeters>796.79998779296875</AltitudeMeters>
            <DistanceMeters>NAN</DistanceMeters>
          </Trackpoint>
          <Trackpoint>
            <Time>2019-10-06T10:45:15.000Z</Time>
            <Position>
              <LatitudeDegrees>41.10060788691043853759765625</LatitudeDegrees>
              <LongitudeDegrees>-5.6995256803929805755615234375</LongitudeDegrees>
            </Position>
            <AltitudeMeters>796.79998779296875</AltitudeMeters>
            <DistanceMeters>NAN</DistanceMeters>
          </Trackpoint>
          <Trackpoint>
            <Time>2019-10-06T10:45:16.000Z</Time>
            <Position>
              <LatitudeDegrees>41.10053571872413158416748046875</LatitudeDegrees>
              <LongitudeDegrees>-5.69953096099197864532470703125</LongitudeDegrees>
            </Position>
            <AltitudeMeters>796.79998779296875</AltitudeMeters>
            <DistanceMeters>NAN</DistanceMeters>
          </Trackpoint>
          <Trackpoint>
            <Time>2019-10-06T10:45:19.000Z</Time>
            <Position>
              <LatitudeDegrees>41.100312508642673492431640625</LatitudeDegrees>
              <LongitudeDegrees>-5.69954521022737026214599609375</LongitudeDegrees>
            </Position>
            <AltitudeMeters>796.5999755859375</AltitudeMeters>
            <DistanceMeters>NAN</DistanceMeters>
          </Trackpoint>
          <Trackpoint>
            <Time>2019-10-06T10:45:20.000Z</Time>
            <Position>
              <LatitudeDegrees>41.10023950226604938507080078125</LatitudeDegrees>
              <LongitudeDegrees>-5.69955040700733661651611328125</LongitudeDegrees>
            </Position>
            <AltitudeMeters>796.4000244140625</AltitudeMeters>
            <DistanceMeters>NAN</DistanceMeters>
          </Trackpoint>
          <Trackpoint>
            <Time>2019-10-06T10:45:21.000Z</Time>
            <Position>
              <LatitudeDegrees>41.1001664958894252777099609375</LatitudeDegrees>
              <LongitudeDegrees>-5.69955577142536640167236328125</LongitudeDegrees>
            </Position>
            <AltitudeMeters>796.20001220703125</AltitudeMeters>
            <DistanceMeters>NAN</DistanceMeters>
          </Trackpoint>
          <Trackpoint>
            <Time>2019-10-06T10:45:25.000Z</Time>
            <Position>
              <LatitudeDegrees>41.09986030496656894683837890625</LatitudeDegrees>
              <LongitudeDegrees>-5.699581168591976165771484375</LongitudeDegrees>
            </Position>
            <AltitudeMeters>795.79998779296875</AltitudeMeters>
            <DistanceMeters>NAN</DistanceMeters>
          </Trackpoint>
          <Trackpoint>
            <Time>2019-10-06T10:45:29.000Z</Time>
            <Position>
              <LatitudeDegrees>41.09955738298594951629638671875</LatitudeDegrees>
              <LongitudeDegrees>-5.69960505701601505279541015625</LongitudeDegrees>
            </Position>
            <AltitudeMeters>795.20001220703125</AltitudeMeters>
            <DistanceMeters>NAN</DistanceMeters>
          </Trackpoint>
          <Trackpoint>
            <Time>2019-10-06T10:45:32.000Z</Time>
            <Position>
              <LatitudeDegrees>41.0993323288857936859130859375</LatitudeDegrees>
              <LongitudeDegrees>-5.6996219046413898468017578125</LongitudeDegrees>
            </Position>
            <AltitudeMeters>795</AltitudeMeters>
            <DistanceMeters>NAN</DistanceMeters>
          </Trackpoint>
          <Trackpoint>
            <Time>2019-10-06T10:45:33.000Z</Time>
            <Position>
              <LatitudeDegrees>41.0992578975856304168701171875</LatitudeDegrees>
              <LongitudeDegrees>-5.69962584413588047027587890625</LongitudeDegrees>
            </Position>
            <AltitudeMeters>794.79998779296875</AltitudeMeters>
            <DistanceMeters>NAN</DistanceMeters>
          </Trackpoint>
          <Trackpoint>
            <Time>2019-10-06T10:45:39.000Z</Time>
            <Position>
              <LatitudeDegrees>41.09880368225276470184326171875</LatitudeDegrees>
              <LongitudeDegrees>-5.69966322742402553558349609375</LongitudeDegrees>
            </Position>
            <AltitudeMeters>794</AltitudeMeters>
            <DistanceMeters>NAN</DistanceMeters>
          </Trackpoint>
          <Trackpoint>
            <Time>2019-10-06T10:45:42.000Z</Time>
            <Position>
              <LatitudeDegrees>41.09858139418065547943115234375</LatitudeDegrees>
              <LongitudeDegrees>-5.6996772252023220062255859375</LongitudeDegrees>
            </Position>
            <AltitudeMeters>794.20001220703125</AltitudeMeters>
            <DistanceMeters>NAN</DistanceMeters>
          </Trackpoint>
          <Trackpoint>
            <Time>2019-10-06T10:45:50.000Z</Time>
            <Position>
              <LatitudeDegrees>41.0980190522968769073486328125</LatitudeDegrees>
              <LongitudeDegrees>-5.69972324185073375701904296875</LongitudeDegrees>
            </Position>
            <AltitudeMeters>793.4000244140625</AltitudeMeters>
            <DistanceMeters>NAN</DistanceMeters>
          </Trackpoint>
          <Trackpoint>
            <Time>2019-10-06T10:45:51.000Z</Time>
            <Position>
              <LatitudeDegrees>41.09795384109020233154296875</LatitudeDegrees>
              <LongitudeDegrees>-5.69972843863070011138916015625</LongitudeDegrees>
            </Position>
            <AltitudeMeters>793.4000244140625</AltitudeMeters>
            <DistanceMeters>NAN</DistanceMeters>
          </Trackpoint>
          <Trackpoint>
            <Time>2019-10-06T10:45:55.000Z</Time>
            <Position>
              <LatitudeDegrees>41.0976938344538211822509765625</LatitudeDegrees>
              <LongitudeDegrees>-5.69975039921700954437255859375</LongitudeDegrees>
            </Position>
            <AltitudeMeters>793.5999755859375</AltitudeMeters>
            <DistanceMeters>NAN</DistanceMeters>
          </Trackpoint>
          <Trackpoint>
            <Time>2019-10-06T10:45:59.000Z</Time>
            <Position>
              <LatitudeDegrees>41.09743877314031124114990234375</LatitudeDegrees>
              <LongitudeDegrees>-5.699768923223018646240234375</LongitudeDegrees>
            </Position>
            <AltitudeMeters>793.79998779296875</AltitudeMeters>
            <DistanceMeters>NAN</DistanceMeters>
          </Trackpoint>
          <Trackpoint>
            <Time>2019-10-06T10:46:06.000Z</Time>
            <Position>
              <LatitudeDegrees>41.0970236174762248992919921875</LatitudeDegrees>
              <LongitudeDegrees>-5.69981074891984462738037109375</LongitudeDegrees>
            </Position>
            <AltitudeMeters>794.20001220703125</AltitudeMeters>
            <DistanceMeters>NAN</DistanceMeters>
          </Trackpoint>
          <Trackpoint>
            <Time>2019-10-06T10:46:08.000Z</Time>
            <Position>
              <LatitudeDegrees>41.0969049297273159027099609375</LatitudeDegrees>
              <LongitudeDegrees>-5.69981963373720645904541015625</LongitudeDegrees>
            </Position>
            <AltitudeMeters>794.5999755859375</AltitudeMeters>
            <DistanceMeters>NAN</DistanceMeters>
          </Trackpoint>
          <Trackpoint>
            <Time>2019-10-06T10:46:11.000Z</Time>
            <Position>
              <LatitudeDegrees>41.0967339389026165008544921875</LatitudeDegrees>
              <LongitudeDegrees>-5.6998314522206783294677734375</LongitudeDegrees>
            </Position>
            <AltitudeMeters>794.79998779296875</AltitudeMeters>
            <DistanceMeters>NAN</DistanceMeters>
          </Trackpoint>
          <Trackpoint>
            <Time>2019-10-06T10:46:15.000Z</Time>
            <Position>
              <LatitudeDegrees>41.0965012572705745697021484375</LatitudeDegrees>
              <LongitudeDegrees>-5.6998475454747676849365234375</LongitudeDegrees>
            </Position>
            <AltitudeMeters>795</AltitudeMeters>
            <DistanceMeters>NAN</DistanceMeters>
          </Trackpoint>
          <Trackpoint>
            <Time>2019-10-06T10:46:16.000Z</Time>
            <Position>
              <LatitudeDegrees>41.0964442603290081024169921875</LatitudeDegrees>
              <LongitudeDegrees>-5.6998488865792751312255859375</LongitudeDegrees>
            </Position>
            <AltitudeMeters>795.20001220703125</AltitudeMeters>
            <DistanceMeters>NAN</DistanceMeters>
          </Trackpoint>
          <Trackpoint>
            <Time>2019-10-06T10:46:18.000Z</Time>
            <Position>
              <LatitudeDegrees>41.09632439911365509033203125</LatitudeDegrees>
              <LongitudeDegrees>-5.69985500536859035491943359375</LongitudeDegrees>
            </Position>
            <AltitudeMeters>795.5999755859375</AltitudeMeters>
            <DistanceMeters>NAN</DistanceMeters>
          </Trackpoint>
          <Trackpoint>
            <Time>2019-10-06T10:46:22.000Z</Time>
            <Position>
              <LatitudeDegrees>41.0960912145674228668212890625</LatitudeDegrees>
              <LongitudeDegrees>-5.69987411610782146453857421875</LongitudeDegrees>
            </Position>
            <AltitudeMeters>796</AltitudeMeters>
            <DistanceMeters>NAN</DistanceMeters>
          </Trackpoint>
          <Trackpoint>
            <Time>2019-10-06T10:46:27.000Z</Time>
            <Position>
              <LatitudeDegrees>41.0958035476505756378173828125</LatitudeDegrees>
              <LongitudeDegrees>-5.6998985074460506439208984375</LongitudeDegrees>
            </Position>
            <AltitudeMeters>795.79998779296875</AltitudeMeters>
            <DistanceMeters>NAN</DistanceMeters>
          </Trackpoint>
          <Trackpoint>
            <Time>2019-10-06T10:46:28.000Z</Time>
            <Position>
              <LatitudeDegrees>41.095747388899326324462890625</LatitudeDegrees>
              <LongitudeDegrees>-5.6999021954834461212158203125</LongitudeDegrees>
            </Position>
            <AltitudeMeters>795.79998779296875</AltitudeMeters>
            <DistanceMeters>NAN</DistanceMeters>
          </Trackpoint>
          <Trackpoint>
            <Time>2019-10-06T10:46:31.000Z</Time>
            <Position>
              <LatitudeDegrees>41.0955738835036754608154296875</LatitudeDegrees>
              <LongitudeDegrees>-5.699913762509822845458984375</LongitudeDegrees>
            </Position>
            <AltitudeMeters>796.5999755859375</AltitudeMeters>
            <DistanceMeters>NAN</DistanceMeters>
          </Trackpoint>
          <Trackpoint>
            <Time>2019-10-06T10:46:38.000Z</Time>
            <Position>
              <LatitudeDegrees>41.09516702592372894287109375</LatitudeDegrees>
              <LongitudeDegrees>-5.69994335062801837921142578125</LongitudeDegrees>
            </Position>
            <AltitudeMeters>796</AltitudeMeters>
            <DistanceMeters>NAN</DistanceMeters>
          </Trackpoint>
          <Trackpoint>
            <Time>2019-10-06T10:46:46.000Z</Time>
            <Position>
              <LatitudeDegrees>41.09469520859420299530029296875</LatitudeDegrees>
              <LongitudeDegrees>-5.699975788593292236328125</LongitudeDegrees>
            </Position>
            <AltitudeMeters>796.4000244140625</AltitudeMeters>
            <DistanceMeters>NAN</DistanceMeters>
          </Trackpoint>
          <Trackpoint>
            <Time>2019-10-06T10:46:54.000Z</Time>
            <Position>
              <LatitudeDegrees>41.0942113213241100311279296875</LatitudeDegrees>
              <LongitudeDegrees>-5.700013674795627593994140625</LongitudeDegrees>
            </Position>
            <AltitudeMeters>796</AltitudeMeters>
            <DistanceMeters>NAN</DistanceMeters>
          </Trackpoint>
          <Trackpoint>
            <Time>2019-10-06T10:47:02.000Z</Time>
            <Position>
              <LatitudeDegrees>41.093707568943500518798828125</LatitudeDegrees>
              <LongitudeDegrees>-5.70002205669879913330078125</LongitudeDegrees>
            </Position>
            <AltitudeMeters>795.4000244140625</AltitudeMeters>
            <DistanceMeters>NAN</DistanceMeters>
          </Trackpoint>
          <Trackpoint>
            <Time>2019-10-06T10:47:03.000Z</Time>
            <Position>
              <LatitudeDegrees>41.09364126808941364288330078125</LatitudeDegrees>
              <LongitudeDegrees>-5.7000215537846088409423828125</LongitudeDegrees>
            </Position>
            <AltitudeMeters>795.20001220703125</AltitudeMeters>
            <DistanceMeters>NAN</DistanceMeters>
          </Trackpoint>
          <Trackpoint>
            <Time>2019-10-06T10:47:08.000Z</Time>
            <Position>
              <LatitudeDegrees>41.09331219457089900970458984375</LatitudeDegrees>
              <LongitudeDegrees>-5.6999964080750942230224609375</LongitudeDegrees>
            </Position>
            <AltitudeMeters>794.4000244140625</AltitudeMeters>
            <DistanceMeters>NAN</DistanceMeters>
          </Trackpoint>
          <Trackpoint>
            <Time>2019-10-06T10:47:12.000Z</Time>
            <Position>
              <LatitudeDegrees>41.0930408723652362823486328125</LatitudeDegrees>
              <LongitudeDegrees>-5.69996413774788379669189453125</LongitudeDegrees>
            </Position>
            <AltitudeMeters>794.79998779296875</AltitudeMeters>
            <DistanceMeters>NAN</DistanceMeters>
          </Trackpoint>
          <Trackpoint>
            <Time>2019-10-06T10:47:15.000Z</Time>
            <Position>
              <LatitudeDegrees>41.092835180461406707763671875</LatitudeDegrees>
              <LongitudeDegrees>-5.69993446581065654754638671875</LongitudeDegrees>
            </Position>
            <AltitudeMeters>794.20001220703125</AltitudeMeters>
            <DistanceMeters>NAN</DistanceMeters>
          </Trackpoint>
          <Trackpoint>
            <Time>2019-10-06T10:47:21.000Z</Time>
            <Position>
              <LatitudeDegrees>41.09241499565541744232177734375</LatitudeDegrees>
              <LongitudeDegrees>-5.69983958266675472259521484375</LongitudeDegrees>
            </Position>
            <AltitudeMeters>792.4000244140625</AltitudeMeters>
            <DistanceMeters>NAN</DistanceMeters>
          </Trackpoint>
          <Trackpoint>
            <Time>2019-10-06T10:47:25.000Z</Time>
            <Position>
              <LatitudeDegrees>41.09213721938431262969970703125</LatitudeDegrees>
              <LongitudeDegrees>-5.69975894875824451446533203125</LongitudeDegrees>
            </Position>
            <AltitudeMeters>792.5999755859375</AltitudeMeters>
            <DistanceMeters>NAN</DistanceMeters>
          </Trackpoint>
          <Trackpoint>
            <Time>2019-10-06T10:47:26.000Z</Time>
            <Position>
              <LatitudeDegrees>41.0920662246644496917724609375</LatitudeDegrees>
              <LongitudeDegrees>-5.69973531179130077362060546875</LongitudeDegrees>
            </Position>
            <AltitudeMeters>792.5999755859375</AltitudeMeters>
            <DistanceMeters>NAN</DistanceMeters>
          </Trackpoint>
          <Trackpoint>
            <Time>2019-10-06T10:47:28.000Z</Time>
            <Position>
              <LatitudeDegrees>41.09192683361470699310302734375</LatitudeDegrees>
              <LongitudeDegrees>-5.69968652911484241485595703125</LongitudeDegrees>
            </Position>
            <AltitudeMeters>791.79998779296875</AltitudeMeters>
            <DistanceMeters>NAN</DistanceMeters>
          </Trackpoint>
          <Trackpoint>
            <Time>2019-10-06T10:47:29.000Z</Time>
            <Position>
              <LatitudeDegrees>41.091855503618717193603515625</LatitudeDegrees>
              <LongitudeDegrees>-5.69966020993888378143310546875</LongitudeDegrees>
            </Position>
            <AltitudeMeters>791.5999755859375</AltitudeMeters>
            <DistanceMeters>NAN</DistanceMeters>
          </Trackpoint>
          <Trackpoint>
            <Time>2019-10-06T10:47:30.000Z</Time>
            <Position>
              <LatitudeDegrees>41.09178300015628337860107421875</LatitudeDegrees>
              <LongitudeDegrees>-5.69963439367711544036865234375</LongitudeDegrees>
            </Position>
            <AltitudeMeters>791.4000244140625</AltitudeMeters>
            <DistanceMeters>NAN</DistanceMeters>
          </Trackpoint>
          <Trackpoint>
            <Time>2019-10-06T10:47:35.000Z</Time>
            <Position>
              <LatitudeDegrees>41.09142056666314601898193359375</LatitudeDegrees>
              <LongitudeDegrees>-5.69947622716426849365234375</LongitudeDegrees>
            </Position>
            <AltitudeMeters>790.79998779296875</AltitudeMeters>
            <DistanceMeters>NAN</DistanceMeters>
          </Trackpoint>
          <Trackpoint>
            <Time>2019-10-06T10:47:36.000Z</Time>
            <Position>
              <LatitudeDegrees>41.09134512953460216522216796875</LatitudeDegrees>
              <LongitudeDegrees>-5.6994435377418994903564453125</LongitudeDegrees>
            </Position>
            <AltitudeMeters>790.4000244140625</AltitudeMeters>
            <DistanceMeters>NAN</DistanceMeters>
          </Trackpoint>
          <Trackpoint>
            <Time>2019-10-06T10:47:37.000Z</Time>
            <Position>
              <LatitudeDegrees>41.091267764568328857421875</LatitudeDegrees>
              <LongitudeDegrees>-5.69940774701535701751708984375</LongitudeDegrees>
            </Position>
            <AltitudeMeters>790</AltitudeMeters>
            <DistanceMeters>NAN</DistanceMeters>
          </Trackpoint>
          <Trackpoint>
            <Time>2019-10-06T10:47:39.000Z</Time>
            <Position>
              <LatitudeDegrees>41.0911153815686702728271484375</LatitudeDegrees>
              <LongitudeDegrees>-5.69933717139065265655517578125</LongitudeDegrees>
            </Position>
            <AltitudeMeters>789.5999755859375</AltitudeMeters>
            <DistanceMeters>NAN</DistanceMeters>
          </Trackpoint>
          <Trackpoint>
            <Time>2019-10-06T10:47:42.000Z</Time>
            <Position>
              <LatitudeDegrees>41.09095805324614048004150390625</LatitudeDegrees>
              <LongitudeDegrees>-5.69926743395626544952392578125</LongitudeDegrees>
            </Position>
            <AltitudeMeters>789</AltitudeMeters>
            <DistanceMeters>NAN</DistanceMeters>
          </Trackpoint>
          <Trackpoint>
            <Time>2019-10-06T10:47:44.000Z</Time>
            <Position>
              <LatitudeDegrees>41.09079443849623203277587890625</LatitudeDegrees>
              <LongitudeDegrees>-5.69919317029416561126708984375</LongitudeDegrees>
            </Position>
            <AltitudeMeters>787.79998779296875</AltitudeMeters>
            <DistanceMeters>NAN</DistanceMeters>
          </Trackpoint>
          <Trackpoint>
            <Time>2019-10-06T10:47:45.000Z</Time>
            <Position>
              <LatitudeDegrees>41.09071254730224609375</LatitudeDegrees>
              <LongitudeDegrees>-5.6991562061011791229248046875</LongitudeDegrees>
            </Position>
            <AltitudeMeters>787.4000244140625</AltitudeMeters>
            <DistanceMeters>NAN</DistanceMeters>
          </Trackpoint>
          <Trackpoint>
            <Time>2019-10-06T10:47:48.000Z</Time>
            <Position>
              <LatitudeDegrees>41.09046050347387790679931640625</LatitudeDegrees>
              <LongitudeDegrees>-5.6990383565425872802734375</LongitudeDegrees>
            </Position>
            <AltitudeMeters>786.5999755859375</AltitudeMeters>
            <DistanceMeters>NAN</DistanceMeters>
          </Trackpoint>
          <Trackpoint>
            <Time>2019-10-06T10:47:50.000Z</Time>
            <Position>
              <LatitudeDegrees>41.090288423001766204833984375</LatitudeDegrees>
              <LongitudeDegrees>-5.69895646534860134124755859375</LongitudeDegrees>
            </Position>
            <AltitudeMeters>785.4000244140625</AltitudeMeters>
            <DistanceMeters>NAN</DistanceMeters>
          </Trackpoint>
          <Trackpoint>
            <Time>2019-10-06T10:47:52.000Z</Time>
            <Position>
              <LatitudeDegrees>41.09011449851095676422119140625</LatitudeDegrees>
              <LongitudeDegrees>-5.69886996410787105560302734375</LongitudeDegrees>
            </Position>
            <AltitudeMeters>785</AltitudeMeters>
            <DistanceMeters>NAN</DistanceMeters>
          </Trackpoint>
          <Trackpoint>
            <Time>2019-10-06T10:47:54.000Z</Time>
            <Position>
              <LatitudeDegrees>41.089937053620815277099609375</LatitudeDegrees>
              <LongitudeDegrees>-5.6987889111042022705078125</LongitudeDegrees>
            </Position>
            <AltitudeMeters>784</AltitudeMeters>
            <DistanceMeters>NAN</DistanceMeters>
          </Trackpoint>
          <Trackpoint>
            <Time>2019-10-06T10:47:58.000Z</Time>
            <Position>
              <LatitudeDegrees>41.0895818285644054412841796875</LatitudeDegrees>
              <LongitudeDegrees>-5.69862018339335918426513671875</LongitudeDegrees>
            </Position>
            <AltitudeMeters>782.5999755859375</AltitudeMeters>
            <DistanceMeters>NAN</DistanceMeters>
          </Trackpoint>
          <Trackpoint>
            <Time>2019-10-06T10:48:00.000Z</Time>
            <Position>
              <LatitudeDegrees>41.08940421603620052337646484375</LatitudeDegrees>
              <LongitudeDegrees>-5.69854022003710269927978515625</LongitudeDegrees>
            </Position>
            <AltitudeMeters>781.5999755859375</AltitudeMeters>
            <DistanceMeters>NAN</DistanceMeters>
          </Trackpoint>
          <Trackpoint>
            <Time>2019-10-06T10:48:02.000Z</Time>
            <Position>
              <LatitudeDegrees>41.08922802843153476715087890625</LatitudeDegrees>
              <LongitudeDegrees>-5.698458664119243621826171875</LongitudeDegrees>
            </Position>
            <AltitudeMeters>781.20001220703125</AltitudeMeters>
            <DistanceMeters>NAN</DistanceMeters>
          </Trackpoint>
          <Trackpoint>
            <Time>2019-10-06T10:48:06.000Z</Time>
            <Position>
              <LatitudeDegrees>41.08888269402086734771728515625</LatitudeDegrees>
              <LongitudeDegrees>-5.698304437100887298583984375</LongitudeDegrees>
            </Position>
            <AltitudeMeters>780.4000244140625</AltitudeMeters>
            <DistanceMeters>NAN</DistanceMeters>
          </Trackpoint>
          <Trackpoint>
            <Time>2019-10-06T10:48:09.000Z</Time>
            <Position>
              <LatitudeDegrees>41.08863475732505321502685546875</LatitudeDegrees>
              <LongitudeDegrees>-5.69818700663745403289794921875</LongitudeDegrees>
            </Position>
            <AltitudeMeters>780</AltitudeMeters>
            <DistanceMeters>NAN</DistanceMeters>
          </Trackpoint>
          <Trackpoint>
            <Time>2019-10-06T10:48:10.000Z</Time>
            <Position>
              <LatitudeDegrees>41.08855479396879673004150390625</LatitudeDegrees>
              <LongitudeDegrees>-5.6981500424444675445556640625</LongitudeDegrees>
            </Position>
            <AltitudeMeters>780</AltitudeMeters>
            <DistanceMeters>NAN</DistanceMeters>
          </Trackpoint>
          <Trackpoint>
            <Time>2019-10-06T10:48:15.000Z</Time>
            <Position>
              <LatitudeDegrees>41.08816604129970073699951171875</LatitudeDegrees>
              <LongitudeDegrees>-5.69797427393496036529541015625</LongitudeDegrees>
            </Position>
            <AltitudeMeters>779.5999755859375</AltitudeMeters>
            <DistanceMeters>NAN</DistanceMeters>
          </Trackpoint>
          <Trackpoint>
            <Time>2019-10-06T10:48:16.000Z</Time>
            <Position>
              <LatitudeDegrees>41.088092364370822906494140625</LatitudeDegrees>
              <LongitudeDegrees>-5.69794158451259136199951171875</LongitudeDegrees>
            </Position>
            <AltitudeMeters>779.79998779296875</AltitudeMeters>
            <DistanceMeters>NAN</DistanceMeters>
          </Trackpoint>
          <Trackpoint>
            <Time>2019-10-06T10:48:23.000Z</Time>
            <Position>
              <LatitudeDegrees>41.0875971615314483642578125</LatitudeDegrees>
              <LongitudeDegrees>-5.69771376438438892364501953125</LongitudeDegrees>
            </Position>
            <AltitudeMeters>779.5999755859375</AltitudeMeters>
            <DistanceMeters>NAN</DistanceMeters>
          </Trackpoint>
          <Trackpoint>
            <Time>2019-10-06T10:48:24.000Z</Time>
            <Position>
              <LatitudeDegrees>41.0875312797725200653076171875</LatitudeDegrees>
              <LongitudeDegrees>-5.6976813264191150665283203125</LongitudeDegrees>
            </Position>
            <AltitudeMeters>779.79998779296875</AltitudeMeters>
            <DistanceMeters>NAN</DistanceMeters>
          </Trackpoint>
          <Trackpoint>
            <Time>2019-10-06T10:48:32.000Z</Time>
            <Position>
              <LatitudeDegrees>41.0870183072984218597412109375</LatitudeDegrees>
              <LongitudeDegrees>-5.69744168780744075775146484375</LongitudeDegrees>
            </Position>
            <AltitudeMeters>780.20001220703125</AltitudeMeters>
            <DistanceMeters>NAN</DistanceMeters>
          </Trackpoint>
          <Trackpoint>
            <Time>2019-10-06T10:48:35.000Z</Time>
            <Position>
              <LatitudeDegrees>41.08683080412447452545166015625</LatitudeDegrees>
              <LongitudeDegrees>-5.69735920988023281097412109375</LongitudeDegrees>
            </Position>
            <AltitudeMeters>780.20001220703125</AltitudeMeters>
            <DistanceMeters>NAN</DistanceMeters>
          </Trackpoint>
          <Trackpoint>
            <Time>2019-10-06T10:48:39.000Z</Time>
            <Position>
              <LatitudeDegrees>41.08659066259860992431640625</LatitudeDegrees>
              <LongitudeDegrees>-5.69725493900477886199951171875</LongitudeDegrees>
            </Position>
            <AltitudeMeters>781</AltitudeMeters>
            <DistanceMeters>NAN</DistanceMeters>
          </Trackpoint>
          <Trackpoint>
            <Time>2019-10-06T10:48:41.000Z</Time>
            <Position>
              <LatitudeDegrees>41.08647474087774753570556640625</LatitudeDegrees>
              <LongitudeDegrees>-5.6971995346248149871826171875</LongitudeDegrees>
            </Position>
            <AltitudeMeters>780.79998779296875</AltitudeMeters>
            <DistanceMeters>NAN</DistanceMeters>
          </Trackpoint>
          <Trackpoint>
            <Time>2019-10-06T10:48:44.000Z</Time>
            <Position>
              <LatitudeDegrees>41.08630458824336528778076171875</LatitudeDegrees>
              <LongitudeDegrees>-5.6971204094588756561279296875</LongitudeDegrees>
            </Position>
            <AltitudeMeters>781.79998779296875</AltitudeMeters>
            <DistanceMeters>NAN</DistanceMeters>
          </Trackpoint>
          <Trackpoint>
            <Time>2019-10-06T10:48:51.000Z</Time>
            <Position>
              <LatitudeDegrees>41.0859085433185100555419921875</LatitudeDegrees>
              <LongitudeDegrees>-5.69694849662482738494873046875</LongitudeDegrees>
            </Position>
            <AltitudeMeters>781.4000244140625</AltitudeMeters>
            <DistanceMeters>NAN</DistanceMeters>
          </Trackpoint>
          <Trackpoint>
            <Time>2019-10-06T10:48:56.000Z</Time>
            <Position>
              <LatitudeDegrees>41.085646860301494598388671875</LatitudeDegrees>
              <LongitudeDegrees>-5.6968354247510433197021484375</LongitudeDegrees>
            </Position>
            <AltitudeMeters>781.79998779296875</AltitudeMeters>
            <DistanceMeters>NAN</DistanceMeters>
          </Trackpoint>
          <Trackpoint>
            <Time>2019-10-06T10:49:00.000Z</Time>
            <Position>
              <LatitudeDegrees>41.0854431800544261932373046875</LatitudeDegrees>
              <LongitudeDegrees>-5.69674649275839328765869140625</LongitudeDegrees>
            </Position>
            <AltitudeMeters>782.20001220703125</AltitudeMeters>
            <DistanceMeters>NAN</DistanceMeters>
          </Trackpoint>
          <Trackpoint>
            <Time>2019-10-06T10:49:02.000Z</Time>
            <Position>
              <LatitudeDegrees>41.08534402213990688323974609375</LatitudeDegrees>
              <LongitudeDegrees>-5.6967008113861083984375</LongitudeDegrees>
            </Position>
            <AltitudeMeters>783</AltitudeMeters>
            <DistanceMeters>NAN</DistanceMeters>
          </Trackpoint>
          <Trackpoint>
            <Time>2019-10-06T10:49:06.000Z</Time>
            <Position>
              <LatitudeDegrees>41.0851407609879970550537109375</LatitudeDegrees>
              <LongitudeDegrees>-5.6966057606041431427001953125</LongitudeDegrees>
            </Position>
            <AltitudeMeters>783</AltitudeMeters>
            <DistanceMeters>NAN</DistanceMeters>
          </Trackpoint>
          <Trackpoint>
            <Time>2019-10-06T10:49:10.000Z</Time>
            <Position>
              <LatitudeDegrees>41.08494152314960956573486328125</LatitudeDegrees>
              <LongitudeDegrees>-5.696512721478939056396484375</LongitudeDegrees>
            </Position>
            <AltitudeMeters>783.5999755859375</AltitudeMeters>
            <DistanceMeters>NAN</DistanceMeters>
          </Trackpoint>
          <Trackpoint>
            <Time>2019-10-06T10:49:17.000Z</Time>
            <Position>
              <LatitudeDegrees>41.084605492651462554931640625</LatitudeDegrees>
              <LongitudeDegrees>-5.69635438732802867889404296875</LongitudeDegrees>
            </Position>
            <AltitudeMeters>783.79998779296875</AltitudeMeters>
            <DistanceMeters>NAN</DistanceMeters>
          </Trackpoint>
          <Trackpoint>
            <Time>2019-10-06T10:49:18.000Z</Time>
            <Position>
              <LatitudeDegrees>41.084558553993701934814453125</LatitudeDegrees>
              <LongitudeDegrees>-5.6963325105607509613037109375</LongitudeDegrees>
            </Position>
            <AltitudeMeters>784</AltitudeMeters>
            <DistanceMeters>NAN</DistanceMeters>
          </Trackpoint>
          <Trackpoint>
            <Time>2019-10-06T10:49:25.000Z</Time>
            <Position>
              <LatitudeDegrees>41.08422696590423583984375</LatitudeDegrees>
              <LongitudeDegrees>-5.69618649780750274658203125</LongitudeDegrees>
            </Position>
            <AltitudeMeters>784.79998779296875</AltitudeMeters>
            <DistanceMeters>NAN</DistanceMeters>
          </Trackpoint>
          <Trackpoint>
            <Time>2019-10-06T10:49:27.000Z</Time>
            <Position>
              <LatitudeDegrees>41.08413652516901493072509765625</LatitudeDegrees>
              <LongitudeDegrees>-5.69615238346159458160400390625</LongitudeDegrees>
            </Position>
            <AltitudeMeters>785.4000244140625</AltitudeMeters>
            <DistanceMeters>NAN</DistanceMeters>
          </Trackpoint>
          <Trackpoint>
            <Time>2019-10-06T10:49:28.000Z</Time>
            <Position>
              <LatitudeDegrees>41.0840916819870471954345703125</LatitudeDegrees>
              <LongitudeDegrees>-5.69613243453204631805419921875</LongitudeDegrees>
            </Position>
            <AltitudeMeters>785.5999755859375</AltitudeMeters>
            <DistanceMeters>NAN</DistanceMeters>
          </Trackpoint>
          <Trackpoint>
            <Time>2019-10-06T10:49:38.000Z</Time>
            <Position>
              <LatitudeDegrees>41.0836543142795562744140625</LatitudeDegrees>
              <LongitudeDegrees>-5.6959244795143604278564453125</LongitudeDegrees>
            </Position>
            <AltitudeMeters>786</AltitudeMeters>
            <DistanceMeters>NAN</DistanceMeters>
          </Trackpoint>
          <Trackpoint>
            <Time>2019-10-06T10:49:41.000Z</Time>
            <Position>
              <LatitudeDegrees>41.08352548442780971527099609375</LatitudeDegrees>
              <LongitudeDegrees>-5.69586337544023990631103515625</LongitudeDegrees>
            </Position>
            <AltitudeMeters>786.4000244140625</AltitudeMeters>
            <DistanceMeters>NAN</DistanceMeters>
          </Trackpoint>
          <Trackpoint>
            <Time>2019-10-06T10:49:49.000Z</Time>
            <Position>
              <LatitudeDegrees>41.0831747017800807952880859375</LatitudeDegrees>
              <LongitudeDegrees>-5.69569942541420459747314453125</LongitudeDegrees>
            </Position>
            <AltitudeMeters>786.79998779296875</AltitudeMeters>
            <DistanceMeters>NAN</DistanceMeters>
          </Trackpoint>
          <Trackpoint>
            <Time>2019-10-06T10:49:55.000Z</Time>
            <Position>
              <LatitudeDegrees>41.08290522359311580657958984375</LatitudeDegrees>
              <LongitudeDegrees>-5.6955781392753124237060546875</LongitudeDegrees>
            </Position>
            <AltitudeMeters>787.79998779296875</AltitudeMeters>
            <DistanceMeters>NAN</DistanceMeters>
          </Trackpoint>
          <Trackpoint>
            <Time>2019-10-06T10:50:00.000Z</Time>
            <Position>
              <LatitudeDegrees>41.08269207179546356201171875</LatitudeDegrees>
              <LongitudeDegrees>-5.6954758800566196441650390625</LongitudeDegrees>
            </Position>
            <AltitudeMeters>787.79998779296875</AltitudeMeters>
            <DistanceMeters>NAN</DistanceMeters>
          </Trackpoint>
          <Trackpoint>
            <Time>2019-10-06T10:50:10.000Z</Time>
            <Position>
              <LatitudeDegrees>41.08226585201919078826904296875</LatitudeDegrees>
              <LongitudeDegrees>-5.69528770633041858673095703125</LongitudeDegrees>
            </Position>
            <AltitudeMeters>788.4000244140625</AltitudeMeters>
            <DistanceMeters>NAN</DistanceMeters>
          </Trackpoint>
          <Trackpoint>
            <Time>2019-10-06T10:50:13.000Z</Time>
            <Position>
              <LatitudeDegrees>41.08214062638580799102783203125</LatitudeDegrees>
              <LongitudeDegrees>-5.69522668607532978057861328125</LongitudeDegrees>
            </Position>
            <AltitudeMeters>789</AltitudeMeters>
            <DistanceMeters>NAN</DistanceMeters>
          </Trackpoint>
          <Trackpoint>
            <Time>2019-10-06T10:50:19.000Z</Time>
            <Position>
              <LatitudeDegrees>41.0818892531096935272216796875</LatitudeDegrees>
              <LongitudeDegrees>-5.69511068053543567657470703125</LongitudeDegrees>
            </Position>
            <AltitudeMeters>789.5999755859375</AltitudeMeters>
            <DistanceMeters>NAN</DistanceMeters>
          </Trackpoint>
          <Trackpoint>
            <Time>2019-10-06T10:50:25.000Z</Time>
            <Position>
              <LatitudeDegrees>41.0816458426415920257568359375</LatitudeDegrees>
              <LongitudeDegrees>-5.69499936886131763458251953125</LongitudeDegrees>
            </Position>
            <AltitudeMeters>790.5999755859375</AltitudeMeters>
            <DistanceMeters>NAN</DistanceMeters>
          </Trackpoint>
          <Trackpoint>
            <Time>2019-10-06T10:50:29.000Z</Time>
            <Position>
              <LatitudeDegrees>41.08148348517715930938720703125</LatitudeDegrees>
              <LongitudeDegrees>-5.69492443464696407318115234375</LongitudeDegrees>
            </Position>
            <AltitudeMeters>790</AltitudeMeters>
            <DistanceMeters>NAN</DistanceMeters>
          </Trackpoint>
          <Trackpoint>
            <Time>2019-10-06T10:50:39.000Z</Time>
            <Position>
              <LatitudeDegrees>41.08106262981891632080078125</LatitudeDegrees>
              <LongitudeDegrees>-5.69472963921725749969482421875</LongitudeDegrees>
            </Position>
            <AltitudeMeters>790</AltitudeMeters>
            <DistanceMeters>NAN</DistanceMeters>
          </Trackpoint>
          <Trackpoint>
            <Time>2019-10-06T10:50:48.000Z</Time>
            <Position>
              <LatitudeDegrees>41.08066339977085590362548828125</LatitudeDegrees>
              <LongitudeDegrees>-5.6945468299090862274169921875</LongitudeDegrees>
            </Position>
            <AltitudeMeters>790.79998779296875</AltitudeMeters>
            <DistanceMeters>NAN</DistanceMeters>
          </Trackpoint>
          <Trackpoint>
            <Time>2019-10-06T10:50:56.000Z</Time>
            <Position>
              <LatitudeDegrees>41.08029979281127452850341796875</LatitudeDegrees>
              <LongitudeDegrees>-5.694371648132801055908203125</LongitudeDegrees>
            </Position>
            <AltitudeMeters>790.79998779296875</AltitudeMeters>
            <DistanceMeters>NAN</DistanceMeters>
          </Trackpoint>
          <Trackpoint>
            <Time>2019-10-06T10:50:59.000Z</Time>
            <Position>
              <LatitudeDegrees>41.0801719687879085540771484375</LatitudeDegrees>
              <LongitudeDegrees>-5.69431205280125141143798828125</LongitudeDegrees>
            </Position>
            <AltitudeMeters>790.79998779296875</AltitudeMeters>
            <DistanceMeters>NAN</DistanceMeters>
          </Trackpoint>
          <Trackpoint>
            <Time>2019-10-06T10:51:02.000Z</Time>
            <Position>
              <LatitudeDegrees>41.08004347421228885650634765625</LatitudeDegrees>
              <LongitudeDegrees>-5.694262348115444183349609375</LongitudeDegrees>
            </Position>
            <AltitudeMeters>790.79998779296875</AltitudeMeters>
            <DistanceMeters>NAN</DistanceMeters>
          </Trackpoint>
          <Trackpoint>
            <Time>2019-10-06T10:51:03.000Z</Time>
            <Position>
              <LatitudeDegrees>41.07999770902097225189208984375</LatitudeDegrees>
              <LongitudeDegrees>-5.694239549338817596435546875</LongitudeDegrees>
            </Position>
            <AltitudeMeters>791</AltitudeMeters>
            <DistanceMeters>NAN</DistanceMeters>
          </Trackpoint>
          <Trackpoint>
            <Time>2019-10-06T10:51:11.000Z</Time>
            <Position>
              <LatitudeDegrees>41.079602502286434173583984375</LatitudeDegrees>
              <LongitudeDegrees>-5.6940673850476741790771484375</LongitudeDegrees>
            </Position>
            <AltitudeMeters>790.5999755859375</AltitudeMeters>
            <DistanceMeters>NAN</DistanceMeters>
          </Trackpoint>
          <Trackpoint>
            <Time>2019-10-06T10:51:16.000Z</Time>
            <Position>
              <LatitudeDegrees>41.07935833744704723358154296875</LatitudeDegrees>
              <LongitudeDegrees>-5.69395179860293865203857421875</LongitudeDegrees>
            </Position>
            <AltitudeMeters>790.79998779296875</AltitudeMeters>
            <DistanceMeters>NAN</DistanceMeters>
          </Trackpoint>
          <Trackpoint>
            <Time>2019-10-06T10:51:18.000Z</Time>
            <Position>
              <LatitudeDegrees>41.0792657174170017242431640625</LatitudeDegrees>
              <LongitudeDegrees>-5.69390603341162204742431640625</LongitudeDegrees>
            </Position>
            <AltitudeMeters>790.79998779296875</AltitudeMeters>
            <DistanceMeters>NAN</DistanceMeters>
          </Trackpoint>
          <Trackpoint>
            <Time>2019-10-06T10:51:20.000Z</Time>
            <Position>
              <LatitudeDegrees>41.07917301356792449951171875</LatitudeDegrees>
              <LongitudeDegrees>-5.6938672251999378204345703125</LongitudeDegrees>
            </Position>
            <AltitudeMeters>790.5999755859375</AltitudeMeters>
            <DistanceMeters>NAN</DistanceMeters>
          </Trackpoint>
          <Trackpoint>
            <Time>2019-10-06T10:51:27.000Z</Time>
            <Position>
              <LatitudeDegrees>41.07883027754724025726318359375</LatitudeDegrees>
              <LongitudeDegrees>-5.6937116570770740509033203125</LongitudeDegrees>
            </Position>
            <AltitudeMeters>789.79998779296875</AltitudeMeters>
            <DistanceMeters>NAN</DistanceMeters>
          </Trackpoint>
          <Trackpoint>
            <Time>2019-10-06T10:51:31.000Z</Time>
            <Position>
              <LatitudeDegrees>41.07862374745309352874755859375</LatitudeDegrees>
              <LongitudeDegrees>-5.693613253533840179443359375</LongitudeDegrees>
            </Position>
            <AltitudeMeters>789.5999755859375</AltitudeMeters>
            <DistanceMeters>NAN</DistanceMeters>
          </Trackpoint>
          <Trackpoint>
            <Time>2019-10-06T10:51:36.000Z</Time>
            <Position>
              <LatitudeDegrees>41.07835100032389163970947265625</LatitudeDegrees>
              <LongitudeDegrees>-5.69348475895822048187255859375</LongitudeDegrees>
            </Position>
            <AltitudeMeters>789</AltitudeMeters>
            <DistanceMeters>NAN</DistanceMeters>
          </Trackpoint>
          <Trackpoint>
            <Time>2019-10-06T10:51:42.000Z</Time>
            <Position>
              <LatitudeDegrees>41.078031398355960845947265625</LatitudeDegrees>
              <LongitudeDegrees>-5.69333606399595737457275390625</LongitudeDegrees>
            </Position>
            <AltitudeMeters>789.20001220703125</AltitudeMeters>
            <DistanceMeters>NAN</DistanceMeters>
          </Trackpoint>
          <Trackpoint>
            <Time>2019-10-06T10:51:43.000Z</Time>
            <Position>
              <LatitudeDegrees>41.0779760777950286865234375</LatitudeDegrees>
              <LongitudeDegrees>-5.69331175647675991058349609375</LongitudeDegrees>
            </Position>
            <AltitudeMeters>789</AltitudeMeters>
            <DistanceMeters>NAN</DistanceMeters>
          </Trackpoint>
          <Trackpoint>
            <Time>2019-10-06T10:51:48.000Z</Time>
            <Position>
              <LatitudeDegrees>41.0777029953896999359130859375</LatitudeDegrees>
              <LongitudeDegrees>-5.69318569265305995941162109375</LongitudeDegrees>
            </Position>
            <AltitudeMeters>788.4000244140625</AltitudeMeters>
            <DistanceMeters>NAN</DistanceMeters>
          </Trackpoint>
          <Trackpoint>
            <Time>2019-10-06T10:51:52.000Z</Time>
            <Position>
              <LatitudeDegrees>41.0774718225002288818359375</LatitudeDegrees>
              <LongitudeDegrees>-5.693079493939876556396484375</LongitudeDegrees>
            </Position>
            <AltitudeMeters>787.79998779296875</AltitudeMeters>
            <DistanceMeters>NAN</DistanceMeters>
          </Trackpoint>
          <Trackpoint>
            <Time>2019-10-06T10:51:53.000Z</Time>
            <Position>
              <LatitudeDegrees>41.077413149178028106689453125</LatitudeDegrees>
              <LongitudeDegrees>-5.69305158220231533050537109375</LongitudeDegrees>
            </Position>
            <AltitudeMeters>787.4000244140625</AltitudeMeters>
            <DistanceMeters>NAN</DistanceMeters>
          </Trackpoint>
          <Trackpoint>
            <Time>2019-10-06T10:51:56.000Z</Time>
            <Position>
              <LatitudeDegrees>41.07723486609756946563720703125</LatitudeDegrees>
              <LongitudeDegrees>-5.69296826608479022979736328125</LongitudeDegrees>
            </Position>
            <AltitudeMeters>787.5999755859375</AltitudeMeters>
            <DistanceMeters>NAN</DistanceMeters>
          </Trackpoint>
          <Trackpoint>
            <Time>2019-10-06T10:52:01.000Z</Time>
            <Position>
              <LatitudeDegrees>41.076924987137317657470703125</LatitudeDegrees>
              <LongitudeDegrees>-5.6928308866918087005615234375</LongitudeDegrees>
            </Position>
            <AltitudeMeters>786.79998779296875</AltitudeMeters>
            <DistanceMeters>NAN</DistanceMeters>
          </Trackpoint>
          <Trackpoint>
            <Time>2019-10-06T10:52:09.000Z</Time>
            <Position>
              <LatitudeDegrees>41.0764286108314990997314453125</LatitudeDegrees>
              <LongitudeDegrees>-5.69259996525943279266357421875</LongitudeDegrees>
            </Position>
            <AltitudeMeters>787.20001220703125</AltitudeMeters>
            <DistanceMeters>NAN</DistanceMeters>
          </Trackpoint>
          <Trackpoint>
            <Time>2019-10-06T10:52:10.000Z</Time>
            <Position>
              <LatitudeDegrees>41.0763659141957759857177734375</LatitudeDegrees>
              <LongitudeDegrees>-5.69257129915058612823486328125</LongitudeDegrees>
            </Position>
            <AltitudeMeters>787.4000244140625</AltitudeMeters>
            <DistanceMeters>NAN</DistanceMeters>
          </Trackpoint>
          <Trackpoint>
            <Time>2019-10-06T10:52:15.000Z</Time>
            <Position>
              <LatitudeDegrees>41.0760554485023021697998046875</LatitudeDegrees>
              <LongitudeDegrees>-5.69242511875927448272705078125</LongitudeDegrees>
            </Position>
            <AltitudeMeters>787</AltitudeMeters>
            <DistanceMeters>NAN</DistanceMeters>
          </Trackpoint>
          <Trackpoint>
            <Time>2019-10-06T10:52:23.000Z</Time>
            <Position>
              <LatitudeDegrees>41.07556016184389591217041015625</LatitudeDegrees>
              <LongitudeDegrees>-5.692202411592006683349609375</LongitudeDegrees>
            </Position>
            <AltitudeMeters>787.4000244140625</AltitudeMeters>
            <DistanceMeters>NAN</DistanceMeters>
          </Trackpoint>
          <Trackpoint>
            <Time>2019-10-06T10:52:30.000Z</Time>
            <Position>
              <LatitudeDegrees>41.07512379996478557586669921875</LatitudeDegrees>
              <LongitudeDegrees>-5.6920037604868412017822265625</LongitudeDegrees>
            </Position>
            <AltitudeMeters>787.79998779296875</AltitudeMeters>
            <DistanceMeters>NAN</DistanceMeters>
          </Trackpoint>
          <Trackpoint>
            <Time>2019-10-06T10:52:34.000Z</Time>
            <Position>
              <LatitudeDegrees>41.07487720437347888946533203125</LatitudeDegrees>
              <LongitudeDegrees>-5.6918901018798351287841796875</LongitudeDegrees>
            </Position>
            <AltitudeMeters>787</AltitudeMeters>
            <DistanceMeters>NAN</DistanceMeters>
          </Trackpoint>
          <Trackpoint>
            <Time>2019-10-06T10:52:43.000Z</Time>
            <Position>
              <LatitudeDegrees>41.07434101402759552001953125</LatitudeDegrees>
              <LongitudeDegrees>-5.69164241664111614227294921875</LongitudeDegrees>
            </Position>
            <AltitudeMeters>787.5999755859375</AltitudeMeters>
            <DistanceMeters>NAN</DistanceMeters>
          </Trackpoint>
          <Trackpoint>
            <Time>2019-10-06T10:52:45.000Z</Time>
            <Position>
              <LatitudeDegrees>41.0742231644690036773681640625</LatitudeDegrees>
              <LongitudeDegrees>-5.6915883533656597137451171875</LongitudeDegrees>
            </Position>
            <AltitudeMeters>787.5999755859375</AltitudeMeters>
            <DistanceMeters>NAN</DistanceMeters>
          </Trackpoint>
          <Trackpoint>
            <Time>2019-10-06T10:52:54.000Z</Time>
            <Position>
              <LatitudeDegrees>41.07369904406368732452392578125</LatitudeDegrees>
              <LongitudeDegrees>-5.69134770892560482025146484375</LongitudeDegrees>
            </Position>
            <AltitudeMeters>788.20001220703125</AltitudeMeters>
            <DistanceMeters>NAN</DistanceMeters>
          </Trackpoint>
          <Trackpoint>
            <Time>2019-10-06T10:52:56.000Z</Time>
            <Position>
              <LatitudeDegrees>41.0735831223428249359130859375</LatitudeDegrees>
              <LongitudeDegrees>-5.69129440002143383026123046875</LongitudeDegrees>
            </Position>
            <AltitudeMeters>788.4000244140625</AltitudeMeters>
            <DistanceMeters>NAN</DistanceMeters>
          </Trackpoint>
          <Trackpoint>
            <Time>2019-10-06T10:52:57.000Z</Time>
            <Position>
              <LatitudeDegrees>41.07352419756352901458740234375</LatitudeDegrees>
              <LongitudeDegrees>-5.69126808084547519683837890625</LongitudeDegrees>
            </Position>
            <AltitudeMeters>788.5999755859375</AltitudeMeters>
            <DistanceMeters>NAN</DistanceMeters>
          </Trackpoint>
          <Trackpoint>
            <Time>2019-10-06T10:53:05.000Z</Time>
            <Position>
              <LatitudeDegrees>41.07306369580328464508056640625</LatitudeDegrees>
              <LongitudeDegrees>-5.6910566054284572601318359375</LongitudeDegrees>
            </Position>
            <AltitudeMeters>788.4000244140625</AltitudeMeters>
            <DistanceMeters>NAN</DistanceMeters>
          </Trackpoint>
          <Trackpoint>
            <Time>2019-10-06T10:53:12.000Z</Time>
            <Position>
              <LatitudeDegrees>41.0726654715836048126220703125</LatitudeDegrees>
              <LongitudeDegrees>-5.69087932817637920379638671875</LongitudeDegrees>
            </Position>
            <AltitudeMeters>789</AltitudeMeters>
            <DistanceMeters>NAN</DistanceMeters>
          </Trackpoint>
          <Trackpoint>
            <Time>2019-10-06T10:53:16.000Z</Time>
            <Position>
              <LatitudeDegrees>41.0724394954741001129150390625</LatitudeDegrees>
              <LongitudeDegrees>-5.6907732971012592315673828125</LongitudeDegrees>
            </Position>
            <AltitudeMeters>788.4000244140625</AltitudeMeters>
            <DistanceMeters>NAN</DistanceMeters>
          </Trackpoint>
          <Trackpoint>
            <Time>2019-10-06T10:53:22.000Z</Time>
            <Position>
              <LatitudeDegrees>41.07210178859531879425048828125</LatitudeDegrees>
              <LongitudeDegrees>-5.6906170584261417388916015625</LongitudeDegrees>
            </Position>
            <AltitudeMeters>790</AltitudeMeters>
            <DistanceMeters>NAN</DistanceMeters>
          </Trackpoint>
          <Trackpoint>
            <Time>2019-10-06T10:53:27.000Z</Time>
            <Position>
              <LatitudeDegrees>41.07182116247713565826416015625</LatitudeDegrees>
              <LongitudeDegrees>-5.69048772566020488739013671875</LongitudeDegrees>
            </Position>
            <AltitudeMeters>789.5999755859375</AltitudeMeters>
            <DistanceMeters>NAN</DistanceMeters>
          </Trackpoint>
          <Trackpoint>
            <Time>2019-10-06T10:53:34.000Z</Time>
            <Position>
              <LatitudeDegrees>41.0714313201606273651123046875</LatitudeDegrees>
              <LongitudeDegrees>-5.69030106067657470703125</LongitudeDegrees>
            </Position>
            <AltitudeMeters>790.5999755859375</AltitudeMeters>
            <DistanceMeters>NAN</DistanceMeters>
          </Trackpoint>
          <Trackpoint>
            <Time>2019-10-06T10:53:38.000Z</Time>
            <Position>
              <LatitudeDegrees>41.07120458967983722686767578125</LatitudeDegrees>
              <LongitudeDegrees>-5.6902043335139751434326171875</LongitudeDegrees>
            </Position>
            <AltitudeMeters>791</AltitudeMeters>
            <DistanceMeters>NAN</DistanceMeters>
          </Trackpoint>
          <Trackpoint>
            <Time>2019-10-06T10:53:47.000Z</Time>
            <Position>
              <LatitudeDegrees>41.07069329358637332916259765625</LatitudeDegrees>
              <LongitudeDegrees>-5.689965784549713134765625</LongitudeDegrees>
            </Position>
            <AltitudeMeters>791</AltitudeMeters>
            <DistanceMeters>NAN</DistanceMeters>
          </Trackpoint>
          <Trackpoint>
            <Time>2019-10-06T10:53:56.000Z</Time>
            <Position>
              <LatitudeDegrees>41.07018937356770038604736328125</LatitudeDegrees>
              <LongitudeDegrees>-5.68973469547927379608154296875</LongitudeDegrees>
            </Position>
            <AltitudeMeters>791.4000244140625</AltitudeMeters>
            <DistanceMeters>NAN</DistanceMeters>
          </Trackpoint>
          <Trackpoint>
            <Time>2019-10-06T10:53:57.000Z</Time>
            <Position>
              <LatitudeDegrees>41.07013539411127567291259765625</LatitudeDegrees>
              <LongitudeDegrees>-5.68970854394137859344482421875</LongitudeDegrees>
            </Position>
            <AltitudeMeters>791.4000244140625</AltitudeMeters>
            <DistanceMeters>NAN</DistanceMeters>
          </Trackpoint>
          <Trackpoint>
            <Time>2019-10-06T10:54:06.000Z</Time>
            <Position>
              <LatitudeDegrees>41.06961605139076709747314453125</LatitudeDegrees>
              <LongitudeDegrees>-5.6894707493484020233154296875</LongitudeDegrees>
            </Position>
            <AltitudeMeters>791.79998779296875</AltitudeMeters>
            <DistanceMeters>NAN</DistanceMeters>
          </Trackpoint>
          <Trackpoint>
            <Time>2019-10-06T10:54:11.000Z</Time>
            <Position>
              <LatitudeDegrees>41.06933592818677425384521484375</LatitudeDegrees>
              <LongitudeDegrees>-5.6893453560769557952880859375</LongitudeDegrees>
            </Position>
            <AltitudeMeters>792.5999755859375</AltitudeMeters>
            <DistanceMeters>NAN</DistanceMeters>
          </Trackpoint>
          <Trackpoint>
            <Time>2019-10-06T10:54:14.000Z</Time>
            <Position>
              <LatitudeDegrees>41.06916904449462890625</LatitudeDegrees>
              <LongitudeDegrees>-5.68926933221518993377685546875</LongitudeDegrees>
            </Position>
            <AltitudeMeters>792.79998779296875</AltitudeMeters>
            <DistanceMeters>NAN</DistanceMeters>
          </Trackpoint>
          <Trackpoint>
            <Time>2019-10-06T10:54:23.000Z</Time>
            <Position>
              <LatitudeDegrees>41.06866152025759220123291015625</LatitudeDegrees>
              <LongitudeDegrees>-5.6890342198312282562255859375</LongitudeDegrees>
            </Position>
            <AltitudeMeters>793</AltitudeMeters>
            <DistanceMeters>NAN</DistanceMeters>
          </Trackpoint>
          <Trackpoint>
            <Time>2019-10-06T10:54:24.000Z</Time>
            <Position>
              <LatitudeDegrees>41.0686044394969940185546875</LatitudeDegrees>
              <LongitudeDegrees>-5.68900798447430133819580078125</LongitudeDegrees>
            </Position>
            <AltitudeMeters>792.79998779296875</AltitudeMeters>
            <DistanceMeters>NAN</DistanceMeters>
          </Trackpoint>
          <Trackpoint>
            <Time>2019-10-06T10:54:33.000Z</Time>
            <Position>
              <LatitudeDegrees>41.068094484508037567138671875</LatitudeDegrees>
              <LongitudeDegrees>-5.68877287209033966064453125</LongitudeDegrees>
            </Position>
            <AltitudeMeters>792.79998779296875</AltitudeMeters>
            <DistanceMeters>NAN</DistanceMeters>
          </Trackpoint>
          <Trackpoint>
            <Time>2019-10-06T10:54:35.000Z</Time>
            <Position>
              <LatitudeDegrees>41.0679823346436023712158203125</LatitudeDegrees>
              <LongitudeDegrees>-5.68872082047164440155029296875</LongitudeDegrees>
            </Position>
            <AltitudeMeters>792.4000244140625</AltitudeMeters>
            <DistanceMeters>NAN</DistanceMeters>
          </Trackpoint>
          <Trackpoint>
            <Time>2019-10-06T10:54:44.000Z</Time>
            <Position>
              <LatitudeDegrees>41.06747430749237537384033203125</LatitudeDegrees>
              <LongitudeDegrees>-5.688489563763141632080078125</LongitudeDegrees>
            </Position>
            <AltitudeMeters>792.4000244140625</AltitudeMeters>
            <DistanceMeters>NAN</DistanceMeters>
          </Trackpoint>
          <Trackpoint>
            <Time>2019-10-06T10:54:45.000Z</Time>
            <Position>
              <LatitudeDegrees>41.067418567836284637451171875</LatitudeDegrees>
              <LongitudeDegrees>-5.68846307694911956787109375</LongitudeDegrees>
            </Position>
            <AltitudeMeters>792.4000244140625</AltitudeMeters>
            <DistanceMeters>NAN</DistanceMeters>
          </Trackpoint>
          <Trackpoint>
            <Time>2019-10-06T10:54:54.000Z</Time>
            <Position>
              <LatitudeDegrees>41.06691741384565830230712890625</LatitudeDegrees>
              <LongitudeDegrees>-5.6882317364215850830078125</LongitudeDegrees>
            </Position>
            <AltitudeMeters>792.79998779296875</AltitudeMeters>
            <DistanceMeters>NAN</DistanceMeters>
          </Trackpoint>
          <Trackpoint>
            <Time>2019-10-06T10:54:55.000Z</Time>
            <Position>
              <LatitudeDegrees>41.0668621771037578582763671875</LatitudeDegrees>
              <LongitudeDegrees>-5.68820550106465816497802734375</LongitudeDegrees>
            </Position>
            <AltitudeMeters>793</AltitudeMeters>
            <DistanceMeters>NAN</DistanceMeters>
          </Trackpoint>
          <Trackpoint>
            <Time>2019-10-06T10:55:04.000Z</Time>
            <Position>
              <LatitudeDegrees>41.06635146774351596832275390625</LatitudeDegrees>
              <LongitudeDegrees>-5.68797885440289974212646484375</LongitudeDegrees>
            </Position>
            <AltitudeMeters>793</AltitudeMeters>
            <DistanceMeters>NAN</DistanceMeters>
          </Trackpoint>
          <Trackpoint>
            <Time>2019-10-06T10:55:05.000Z</Time>
            <Position>
              <LatitudeDegrees>41.06629530899226665496826171875</LatitudeDegrees>
              <LongitudeDegrees>-5.687951110303401947021484375</LongitudeDegrees>
            </Position>
            <AltitudeMeters>793.20001220703125</AltitudeMeters>
            <DistanceMeters>NAN</DistanceMeters>
          </Trackpoint>
          <Trackpoint>
            <Time>2019-10-06T10:55:14.000Z</Time>
            <Position>
              <LatitudeDegrees>41.06577512808144092559814453125</LatitudeDegrees>
              <LongitudeDegrees>-5.68770979531109333038330078125</LongitudeDegrees>
            </Position>
            <AltitudeMeters>793.5999755859375</AltitudeMeters>
            <DistanceMeters>NAN</DistanceMeters>
          </Trackpoint>
          <Trackpoint>
            <Time>2019-10-06T10:55:23.000Z</Time>
            <Position>
              <LatitudeDegrees>41.0652535222470760345458984375</LatitudeDegrees>
              <LongitudeDegrees>-5.68747543729841709136962890625</LongitudeDegrees>
            </Position>
            <AltitudeMeters>793.5999755859375</AltitudeMeters>
            <DistanceMeters>NAN</DistanceMeters>
          </Trackpoint>
          <Trackpoint>
            <Time>2019-10-06T10:55:32.000Z</Time>
            <Position>
              <LatitudeDegrees>41.06472202576696872711181640625</LatitudeDegrees>
              <LongitudeDegrees>-5.68723269738256931304931640625</LongitudeDegrees>
            </Position>
            <AltitudeMeters>794</AltitudeMeters>
            <DistanceMeters>NAN</DistanceMeters>
          </Trackpoint>
          <Trackpoint>
            <Time>2019-10-06T10:55:35.000Z</Time>
            <Position>
              <LatitudeDegrees>41.0645484365522861480712890625</LatitudeDegrees>
              <LongitudeDegrees>-5.68714720197021961212158203125</LongitudeDegrees>
            </Position>
            <AltitudeMeters>794.20001220703125</AltitudeMeters>
            <DistanceMeters>NAN</DistanceMeters>
          </Trackpoint>
          <Trackpoint>
            <Time>2019-10-06T10:55:44.000Z</Time>
            <Position>
              <LatitudeDegrees>41.0640217177569866180419921875</LatitudeDegrees>
              <LongitudeDegrees>-5.6869089044630527496337890625</LongitudeDegrees>
            </Position>
            <AltitudeMeters>794</AltitudeMeters>
            <DistanceMeters>NAN</DistanceMeters>
          </Trackpoint>
          <Trackpoint>
            <Time>2019-10-06T10:55:46.000Z</Time>
            <Position>
              <LatitudeDegrees>41.063904874026775360107421875</LatitudeDegrees>
              <LongitudeDegrees>-5.68685299716889858245849609375</LongitudeDegrees>
            </Position>
            <AltitudeMeters>794.5999755859375</AltitudeMeters>
            <DistanceMeters>NAN</DistanceMeters>
          </Trackpoint>
          <Trackpoint>
            <Time>2019-10-06T10:55:55.000Z</Time>
            <Position>
              <LatitudeDegrees>41.06337807141244411468505859375</LatitudeDegrees>
              <LongitudeDegrees>-5.68660832941532135009765625</LongitudeDegrees>
            </Position>
            <AltitudeMeters>794.5999755859375</AltitudeMeters>
            <DistanceMeters>NAN</DistanceMeters>
          </Trackpoint>
          <Trackpoint>
            <Time>2019-10-06T10:56:04.000Z</Time>
            <Position>
              <LatitudeDegrees>41.0628539510071277618408203125</LatitudeDegrees>
              <LongitudeDegrees>-5.68637221120297908782958984375</LongitudeDegrees>
            </Position>
            <AltitudeMeters>794.5999755859375</AltitudeMeters>
            <DistanceMeters>NAN</DistanceMeters>
          </Trackpoint>
          <Trackpoint>
            <Time>2019-10-06T10:56:05.000Z</Time>
            <Position>
              <LatitudeDegrees>41.06279519386589527130126953125</LatitudeDegrees>
              <LongitudeDegrees>-5.686345137655735015869140625</LongitudeDegrees>
            </Position>
            <AltitudeMeters>794.5999755859375</AltitudeMeters>
            <DistanceMeters>NAN</DistanceMeters>
          </Trackpoint>
          <Trackpoint>
            <Time>2019-10-06T10:56:14.000Z</Time>
            <Position>
              <LatitudeDegrees>41.06226495467126369476318359375</LatitudeDegrees>
              <LongitudeDegrees>-5.68609912879765033721923828125</LongitudeDegrees>
            </Position>
            <AltitudeMeters>795</AltitudeMeters>
            <DistanceMeters>NAN</DistanceMeters>
          </Trackpoint>
          <Trackpoint>
            <Time>2019-10-06T10:56:20.000Z</Time>
            <Position>
              <LatitudeDegrees>41.06190520338714122772216796875</LatitudeDegrees>
              <LongitudeDegrees>-5.68593299947679042816162109375</LongitudeDegrees>
            </Position>
            <AltitudeMeters>795.5999755859375</AltitudeMeters>
            <DistanceMeters>NAN</DistanceMeters>
          </Trackpoint>
          <Trackpoint>
            <Time>2019-10-06T10:56:28.000Z</Time>
            <Position>
              <LatitudeDegrees>41.06143062002956867218017578125</LatitudeDegrees>
              <LongitudeDegrees>-5.68571959622204303741455078125</LongitudeDegrees>
            </Position>
            <AltitudeMeters>795</AltitudeMeters>
            <DistanceMeters>NAN</DistanceMeters>
          </Trackpoint>
          <Trackpoint>
            <Time>2019-10-06T10:56:37.000Z</Time>
            <Position>
              <LatitudeDegrees>41.06091178022325038909912109375</LatitudeDegrees>
              <LongitudeDegrees>-5.6854776106774806976318359375</LongitudeDegrees>
            </Position>
            <AltitudeMeters>794.5999755859375</AltitudeMeters>
            <DistanceMeters>NAN</DistanceMeters>
          </Trackpoint>
          <Trackpoint>
            <Time>2019-10-06T10:56:38.000Z</Time>
            <Position>
              <LatitudeDegrees>41.06085461564362049102783203125</LatitudeDegrees>
              <LongitudeDegrees>-5.6854524649679660797119140625</LongitudeDegrees>
            </Position>
            <AltitudeMeters>794.4000244140625</AltitudeMeters>
            <DistanceMeters>NAN</DistanceMeters>
          </Trackpoint>
          <Trackpoint>
            <Time>2019-10-06T10:56:45.000Z</Time>
            <Position>
              <LatitudeDegrees>41.06044826097786426544189453125</LatitudeDegrees>
              <LongitudeDegrees>-5.685263536870479583740234375</LongitudeDegrees>
            </Position>
            <AltitudeMeters>795.5999755859375</AltitudeMeters>
            <DistanceMeters>NAN</DistanceMeters>
          </Trackpoint>
          <Trackpoint>
            <Time>2019-10-06T10:56:46.000Z</Time>
            <Position>
              <LatitudeDegrees>41.0603893361985683441162109375</LatitudeDegrees>
              <LongitudeDegrees>-5.68523663096129894256591796875</LongitudeDegrees>
            </Position>
            <AltitudeMeters>795.5999755859375</AltitudeMeters>
            <DistanceMeters>NAN</DistanceMeters>
          </Trackpoint>
          <Trackpoint>
            <Time>2019-10-06T10:56:55.000Z</Time>
            <Position>
              <LatitudeDegrees>41.05985842645168304443359375</LatitudeDegrees>
              <LongitudeDegrees>-5.68500109948217868804931640625</LongitudeDegrees>
            </Position>
            <AltitudeMeters>796</AltitudeMeters>
            <DistanceMeters>NAN</DistanceMeters>
          </Trackpoint>
          <Trackpoint>
            <Time>2019-10-06T10:56:57.000Z</Time>
            <Position>
              <LatitudeDegrees>41.05974351055920124053955078125</LatitudeDegrees>
              <LongitudeDegrees>-5.6849448569118976593017578125</LongitudeDegrees>
            </Position>
            <AltitudeMeters>796.20001220703125</AltitudeMeters>
            <DistanceMeters>NAN</DistanceMeters>
          </Trackpoint>
          <Trackpoint>
            <Time>2019-10-06T10:57:06.000Z</Time>
            <Position>
              <LatitudeDegrees>41.0592172108590602874755859375</LatitudeDegrees>
              <LongitudeDegrees>-5.6847019493579864501953125</LongitudeDegrees>
            </Position>
            <AltitudeMeters>796.4000244140625</AltitudeMeters>
            <DistanceMeters>NAN</DistanceMeters>
          </Trackpoint>
          <Trackpoint>
            <Time>2019-10-06T10:57:07.000Z</Time>
            <Position>
              <LatitudeDegrees>41.05915912427008152008056640625</LatitudeDegrees>
              <LongitudeDegrees>-5.6846752949059009552001953125</LongitudeDegrees>
            </Position>
            <AltitudeMeters>795.79998779296875</AltitudeMeters>
            <DistanceMeters>NAN</DistanceMeters>
          </Trackpoint>
          <Trackpoint>
            <Time>2019-10-06T10:57:15.000Z</Time>
            <Position>
              <LatitudeDegrees>41.0586894862353801727294921875</LatitudeDegrees>
              <LongitudeDegrees>-5.68445962853729724884033203125</LongitudeDegrees>
            </Position>
            <AltitudeMeters>796.20001220703125</AltitudeMeters>
            <DistanceMeters>NAN</DistanceMeters>
          </Trackpoint>
          <Trackpoint>
            <Time>2019-10-06T10:57:24.000Z</Time>
            <Position>
              <LatitudeDegrees>41.05815027840435504913330078125</LatitudeDegrees>
              <LongitudeDegrees>-5.68422384560108184814453125</LongitudeDegrees>
            </Position>
            <AltitudeMeters>796</AltitudeMeters>
            <DistanceMeters>NAN</DistanceMeters>
          </Trackpoint>
          <Trackpoint>
            <Time>2019-10-06T10:57:26.000Z</Time>
            <Position>
              <LatitudeDegrees>41.058030836284160614013671875</LatitudeDegrees>
              <LongitudeDegrees>-5.6841655075550079345703125</LongitudeDegrees>
            </Position>
            <AltitudeMeters>796.20001220703125</AltitudeMeters>
            <DistanceMeters>NAN</DistanceMeters>
          </Trackpoint>
          <Trackpoint>
            <Time>2019-10-06T10:57:31.000Z</Time>
            <Position>
              <LatitudeDegrees>41.0577369667589664459228515625</LatitudeDegrees>
              <LongitudeDegrees>-5.68402578122913837432861328125</LongitudeDegrees>
            </Position>
            <AltitudeMeters>796.79998779296875</AltitudeMeters>
            <DistanceMeters>NAN</DistanceMeters>
          </Trackpoint>
          <Trackpoint>
            <Time>2019-10-06T10:57:37.000Z</Time>
            <Position>
              <LatitudeDegrees>41.05738601647317409515380859375</LatitudeDegrees>
              <LongitudeDegrees>-5.68386736325919628143310546875</LongitudeDegrees>
            </Position>
            <AltitudeMeters>796.20001220703125</AltitudeMeters>
            <DistanceMeters>NAN</DistanceMeters>
          </Trackpoint>
          <Trackpoint>
            <Time>2019-10-06T10:57:46.000Z</Time>
            <Position>
              <LatitudeDegrees>41.05686080642044544219970703125</LatitudeDegrees>
              <LongitudeDegrees>-5.683627389371395111083984375</LongitudeDegrees>
            </Position>
            <AltitudeMeters>796.79998779296875</AltitudeMeters>
            <DistanceMeters>NAN</DistanceMeters>
          </Trackpoint>
          <Trackpoint>
            <Time>2019-10-06T10:57:49.000Z</Time>
            <Position>
              <LatitudeDegrees>41.05668176896870136260986328125</LatitudeDegrees>
              <LongitudeDegrees>-5.68354197777807712554931640625</LongitudeDegrees>
            </Position>
            <AltitudeMeters>796.79998779296875</AltitudeMeters>
            <DistanceMeters>NAN</DistanceMeters>
          </Trackpoint>
          <Trackpoint>
            <Time>2019-10-06T10:57:58.000Z</Time>
            <Position>
              <LatitudeDegrees>41.0561336763203144073486328125</LatitudeDegrees>
              <LongitudeDegrees>-5.6832946278154850006103515625</LongitudeDegrees>
            </Position>
            <AltitudeMeters>796.5999755859375</AltitudeMeters>
            <DistanceMeters>NAN</DistanceMeters>
          </Trackpoint>
          <Trackpoint>
            <Time>2019-10-06T10:58:06.000Z</Time>
            <Position>
              <LatitudeDegrees>41.055634953081607818603515625</LatitudeDegrees>
              <LongitudeDegrees>-5.6830673106014728546142578125</LongitudeDegrees>
            </Position>
            <AltitudeMeters>795.79998779296875</AltitudeMeters>
            <DistanceMeters>NAN</DistanceMeters>
          </Trackpoint>
          <Trackpoint>
            <Time>2019-10-06T10:58:07.000Z</Time>
            <Position>
              <LatitudeDegrees>41.05557166971266269683837890625</LatitudeDegrees>
              <LongitudeDegrees>-5.6830388121306896209716796875</LongitudeDegrees>
            </Position>
            <AltitudeMeters>795.5999755859375</AltitudeMeters>
            <DistanceMeters>NAN</DistanceMeters>
          </Trackpoint>
          <Trackpoint>
            <Time>2019-10-06T10:58:10.000Z</Time>
            <Position>
              <LatitudeDegrees>41.05537938885390758514404296875</LatitudeDegrees>
              <LongitudeDegrees>-5.6829504668712615966796875</LongitudeDegrees>
            </Position>
            <AltitudeMeters>795.20001220703125</AltitudeMeters>
            <DistanceMeters>NAN</DistanceMeters>
          </Trackpoint>
          <Trackpoint>
            <Time>2019-10-06T10:58:16.000Z</Time>
            <Position>
              <LatitudeDegrees>41.0549870319664478302001953125</LatitudeDegrees>
              <LongitudeDegrees>-5.6827732734382152557373046875</LongitudeDegrees>
            </Position>
            <AltitudeMeters>794.79998779296875</AltitudeMeters>
            <DistanceMeters>NAN</DistanceMeters>
          </Trackpoint>
          <Trackpoint>
            <Time>2019-10-06T10:58:20.000Z</Time>
            <Position>
              <LatitudeDegrees>41.05472006835043430328369140625</LatitudeDegrees>
              <LongitudeDegrees>-5.682655759155750274658203125</LongitudeDegrees>
            </Position>
            <AltitudeMeters>794.4000244140625</AltitudeMeters>
            <DistanceMeters>NAN</DistanceMeters>
          </Trackpoint>
          <Trackpoint>
            <Time>2019-10-06T10:58:26.000Z</Time>
            <Position>
              <LatitudeDegrees>41.05432075448334217071533203125</LatitudeDegrees>
              <LongitudeDegrees>-5.6824701838195323944091796875</LongitudeDegrees>
            </Position>
            <AltitudeMeters>795</AltitudeMeters>
            <DistanceMeters>NAN</DistanceMeters>
          </Trackpoint>
          <Trackpoint>
            <Time>2019-10-06T10:58:29.000Z</Time>
            <Position>
              <LatitudeDegrees>41.054116152226924896240234375</LatitudeDegrees>
              <LongitudeDegrees>-5.6823818385601043701171875</LongitudeDegrees>
            </Position>
            <AltitudeMeters>794.20001220703125</AltitudeMeters>
            <DistanceMeters>NAN</DistanceMeters>
          </Trackpoint>
          <Trackpoint>
            <Time>2019-10-06T10:58:32.000Z</Time>
            <Position>
              <LatitudeDegrees>41.05391423217952251434326171875</LatitudeDegrees>
              <LongitudeDegrees>-5.682290978729724884033203125</LongitudeDegrees>
            </Position>
            <AltitudeMeters>793.4000244140625</AltitudeMeters>
            <DistanceMeters>NAN</DistanceMeters>
          </Trackpoint>
          <Trackpoint>
            <Time>2019-10-06T10:58:36.000Z</Time>
            <Position>
              <LatitudeDegrees>41.0536496154963970184326171875</LatitudeDegrees>
              <LongitudeDegrees>-5.682167597115039825439453125</LongitudeDegrees>
            </Position>
            <AltitudeMeters>794</AltitudeMeters>
            <DistanceMeters>NAN</DistanceMeters>
          </Trackpoint>
          <Trackpoint>
            <Time>2019-10-06T10:58:39.000Z</Time>
            <Position>
              <LatitudeDegrees>41.05345138348639011383056640625</LatitudeDegrees>
              <LongitudeDegrees>-5.682080090045928955078125</LongitudeDegrees>
            </Position>
            <AltitudeMeters>793.20001220703125</AltitudeMeters>
            <DistanceMeters>NAN</DistanceMeters>
          </Trackpoint>
          <Trackpoint>
            <Time>2019-10-06T10:58:44.000Z</Time>
            <Position>
              <LatitudeDegrees>41.053120382130146026611328125</LatitudeDegrees>
              <LongitudeDegrees>-5.68192745558917522430419921875</LongitudeDegrees>
            </Position>
            <AltitudeMeters>793.5999755859375</AltitudeMeters>
            <DistanceMeters>NAN</DistanceMeters>
          </Trackpoint>
          <Trackpoint>
            <Time>2019-10-06T10:58:50.000Z</Time>
            <Position>
              <LatitudeDegrees>41.05271796695888042449951171875</LatitudeDegrees>
              <LongitudeDegrees>-5.68174104206264019012451171875</LongitudeDegrees>
            </Position>
            <AltitudeMeters>792.20001220703125</AltitudeMeters>
            <DistanceMeters>NAN</DistanceMeters>
          </Trackpoint>
          <Trackpoint>
            <Time>2019-10-06T10:58:53.000Z</Time>
            <Position>
              <LatitudeDegrees>41.05251797474920749664306640625</LatitudeDegrees>
              <LongitudeDegrees>-5.6816531158983707427978515625</LongitudeDegrees>
            </Position>
            <AltitudeMeters>792.20001220703125</AltitudeMeters>
            <DistanceMeters>NAN</DistanceMeters>
          </Trackpoint>
          <Trackpoint>
            <Time>2019-10-06T10:58:58.000Z</Time>
            <Position>
              <LatitudeDegrees>41.0521817766129970550537109375</LatitudeDegrees>
              <LongitudeDegrees>-5.681501068174839019775390625</LongitudeDegrees>
            </Position>
            <AltitudeMeters>791.20001220703125</AltitudeMeters>
            <DistanceMeters>NAN</DistanceMeters>
          </Trackpoint>
          <Trackpoint>
            <Time>2019-10-06T10:59:03.000Z</Time>
            <Position>
              <LatitudeDegrees>41.0518468357622623443603515625</LatitudeDegrees>
              <LongitudeDegrees>-5.68135128356516361236572265625</LongitudeDegrees>
            </Position>
            <AltitudeMeters>792</AltitudeMeters>
            <DistanceMeters>NAN</DistanceMeters>
          </Trackpoint>
          <Trackpoint>
            <Time>2019-10-06T10:59:07.000Z</Time>
            <Position>
              <LatitudeDegrees>41.05157534591853618621826171875</LatitudeDegrees>
              <LongitudeDegrees>-5.68122723139822483062744140625</LongitudeDegrees>
            </Position>
            <AltitudeMeters>792.4000244140625</AltitudeMeters>
            <DistanceMeters>NAN</DistanceMeters>
          </Trackpoint>
          <Trackpoint>
            <Time>2019-10-06T10:59:11.000Z</Time>
            <Position>
              <LatitudeDegrees>41.05129505507647991180419921875</LatitudeDegrees>
              <LongitudeDegrees>-5.68110317923128604888916015625</LongitudeDegrees>
            </Position>
            <AltitudeMeters>790.79998779296875</AltitudeMeters>
            <DistanceMeters>NAN</DistanceMeters>
          </Trackpoint>
          <Trackpoint>
            <Time>2019-10-06T10:59:12.000Z</Time>
            <Position>
              <LatitudeDegrees>41.05122582055628299713134765625</LatitudeDegrees>
              <LongitudeDegrees>-5.68107065744698047637939453125</LongitudeDegrees>
            </Position>
            <AltitudeMeters>790.79998779296875</AltitudeMeters>
            <DistanceMeters>NAN</DistanceMeters>
          </Trackpoint>
          <Trackpoint>
            <Time>2019-10-06T10:59:20.000Z</Time>
            <Position>
              <LatitudeDegrees>41.0506629757583141326904296875</LatitudeDegrees>
              <LongitudeDegrees>-5.6808109022676944732666015625</LongitudeDegrees>
            </Position>
            <AltitudeMeters>790.4000244140625</AltitudeMeters>
            <DistanceMeters>NAN</DistanceMeters>
          </Trackpoint>
          <Trackpoint>
            <Time>2019-10-06T10:59:23.000Z</Time>
            <Position>
              <LatitudeDegrees>41.050454936921596527099609375</LatitudeDegrees>
              <LongitudeDegrees>-5.6807148456573486328125</LongitudeDegrees>
            </Position>
            <AltitudeMeters>790.4000244140625</AltitudeMeters>
            <DistanceMeters>NAN</DistanceMeters>
          </Trackpoint>
          <Trackpoint>
            <Time>2019-10-06T10:59:27.000Z</Time>
            <Position>
              <LatitudeDegrees>41.0501838661730289459228515625</LatitudeDegrees>
              <LongitudeDegrees>-5.6805916316807270050048828125</LongitudeDegrees>
            </Position>
            <AltitudeMeters>790.4000244140625</AltitudeMeters>
            <DistanceMeters>NAN</DistanceMeters>
          </Trackpoint>
          <Trackpoint>
            <Time>2019-10-06T10:59:32.000Z</Time>
            <Position>
              <LatitudeDegrees>41.04984750039875507354736328125</LatitudeDegrees>
              <LongitudeDegrees>-5.6804387457668781280517578125</LongitudeDegrees>
            </Position>
            <AltitudeMeters>791</AltitudeMeters>
            <DistanceMeters>NAN</DistanceMeters>
          </Trackpoint>
          <Trackpoint>
            <Time>2019-10-06T10:59:36.000Z</Time>
            <Position>
              <LatitudeDegrees>41.049583218991756439208984375</LatitudeDegrees>
              <LongitudeDegrees>-5.68031360395252704620361328125</LongitudeDegrees>
            </Position>
            <AltitudeMeters>790.5999755859375</AltitudeMeters>
            <DistanceMeters>NAN</DistanceMeters>
          </Trackpoint>
          <Trackpoint>
            <Time>2019-10-06T10:59:40.000Z</Time>
            <Position>
              <LatitudeDegrees>41.0493319295346736907958984375</LatitudeDegrees>
              <LongitudeDegrees>-5.68020396865904331207275390625</LongitudeDegrees>
            </Position>
            <AltitudeMeters>790.5999755859375</AltitudeMeters>
            <DistanceMeters>NAN</DistanceMeters>
          </Trackpoint>
          <Trackpoint>
            <Time>2019-10-06T10:59:43.000Z</Time>
            <Position>
              <LatitudeDegrees>41.04915750212967395782470703125</LatitudeDegrees>
              <LongitudeDegrees>-5.6801195628941059112548828125</LongitudeDegrees>
            </Position>
            <AltitudeMeters>791.79998779296875</AltitudeMeters>
            <DistanceMeters>NAN</DistanceMeters>
          </Trackpoint>
          <Trackpoint>
            <Time>2019-10-06T10:59:50.000Z</Time>
            <Position>
              <LatitudeDegrees>41.04875567369163036346435546875</LatitudeDegrees>
              <LongitudeDegrees>-5.67994178272783756256103515625</LongitudeDegrees>
            </Position>
            <AltitudeMeters>793</AltitudeMeters>
            <DistanceMeters>NAN</DistanceMeters>
          </Trackpoint>
          <Trackpoint>
            <Time>2019-10-06T10:59:59.000Z</Time>
            <Position>
              <LatitudeDegrees>41.0482335649430751800537109375</LatitudeDegrees>
              <LongitudeDegrees>-5.6797122023999691009521484375</LongitudeDegrees>
            </Position>
            <AltitudeMeters>793.20001220703125</AltitudeMeters>
            <DistanceMeters>NAN</DistanceMeters>
          </Trackpoint>
          <Trackpoint>
            <Time>2019-10-06T11:00:00.000Z</Time>
            <Position>
              <LatitudeDegrees>41.04817396961152553558349609375</LatitudeDegrees>
              <LongitudeDegrees>-5.67968948744237422943115234375</LongitudeDegrees>
            </Position>
            <AltitudeMeters>793.20001220703125</AltitudeMeters>
            <DistanceMeters>NAN</DistanceMeters>
          </Trackpoint>
          <Trackpoint>
            <Time>2019-10-06T11:00:07.000Z</Time>
            <Position>
              <LatitudeDegrees>41.0477702133357524871826171875</LatitudeDegrees>
              <LongitudeDegrees>-5.67949804477393627166748046875</LongitudeDegrees>
            </Position>
            <AltitudeMeters>793.5999755859375</AltitudeMeters>
            <DistanceMeters>NAN</DistanceMeters>
          </Trackpoint>
          <Trackpoint>
            <Time>2019-10-06T11:00:08.000Z</Time>
            <Position>
              <LatitudeDegrees>41.0477127134799957275390625</LatitudeDegrees>
              <LongitudeDegrees>-5.6794703006744384765625</LongitudeDegrees>
            </Position>
            <AltitudeMeters>794</AltitudeMeters>
            <DistanceMeters>NAN</DistanceMeters>
          </Trackpoint>
          <Trackpoint>
            <Time>2019-10-06T11:00:09.000Z</Time>
            <Position>
              <LatitudeDegrees>41.04765445925295352935791015625</LatitudeDegrees>
              <LongitudeDegrees>-5.67944389767944812774658203125</LongitudeDegrees>
            </Position>
            <AltitudeMeters>794.20001220703125</AltitudeMeters>
            <DistanceMeters>NAN</DistanceMeters>
          </Trackpoint>
          <Trackpoint>
            <Time>2019-10-06T11:00:16.000Z</Time>
            <Position>
              <LatitudeDegrees>41.047256402671337127685546875</LatitudeDegrees>
              <LongitudeDegrees>-5.679262764751911163330078125</LongitudeDegrees>
            </Position>
            <AltitudeMeters>794.20001220703125</AltitudeMeters>
            <DistanceMeters>NAN</DistanceMeters>
          </Trackpoint>
          <Trackpoint>
            <Time>2019-10-06T11:00:23.000Z</Time>
            <Position>
              <LatitudeDegrees>41.0468552447855472564697265625</LatitudeDegrees>
              <LongitudeDegrees>-5.6790800392627716064453125</LongitudeDegrees>
            </Position>
            <AltitudeMeters>794.79998779296875</AltitudeMeters>
            <DistanceMeters>NAN</DistanceMeters>
          </Trackpoint>
          <Trackpoint>
            <Time>2019-10-06T11:00:28.000Z</Time>
            <Position>
              <LatitudeDegrees>41.04658023454248905181884765625</LatitudeDegrees>
              <LongitudeDegrees>-5.6789541430771350860595703125</LongitudeDegrees>
            </Position>
            <AltitudeMeters>795.4000244140625</AltitudeMeters>
            <DistanceMeters>NAN</DistanceMeters>
          </Trackpoint>
          <Trackpoint>
            <Time>2019-10-06T11:00:37.000Z</Time>
            <Position>
              <LatitudeDegrees>41.04610431008040904998779296875</LatitudeDegrees>
              <LongitudeDegrees>-5.67873193882405757904052734375</LongitudeDegrees>
            </Position>
            <AltitudeMeters>795.79998779296875</AltitudeMeters>
            <DistanceMeters>NAN</DistanceMeters>
          </Trackpoint>
          <Trackpoint>
            <Time>2019-10-06T11:00:47.000Z</Time>
            <Position>
              <LatitudeDegrees>41.04555211029946804046630859375</LatitudeDegrees>
              <LongitudeDegrees>-5.6784807331860065460205078125</LongitudeDegrees>
            </Position>
            <AltitudeMeters>795.5999755859375</AltitudeMeters>
            <DistanceMeters>NAN</DistanceMeters>
          </Trackpoint>
          <Trackpoint>
            <Time>2019-10-06T11:00:56.000Z</Time>
            <Position>
              <LatitudeDegrees>41.0450179316103458404541015625</LatitudeDegrees>
              <LongitudeDegrees>-5.678239166736602783203125</LongitudeDegrees>
            </Position>
            <AltitudeMeters>795.20001220703125</AltitudeMeters>
            <DistanceMeters>NAN</DistanceMeters>
          </Trackpoint>
          <Trackpoint>
            <Time>2019-10-06T11:00:58.000Z</Time>
            <Position>
              <LatitudeDegrees>41.04490033350884914398193359375</LatitudeDegrees>
              <LongitudeDegrees>-5.678184516727924346923828125</LongitudeDegrees>
            </Position>
            <AltitudeMeters>795.5999755859375</AltitudeMeters>
            <DistanceMeters>NAN</DistanceMeters>
          </Trackpoint>
          <Trackpoint>
            <Time>2019-10-06T11:01:06.000Z</Time>
            <Position>
              <LatitudeDegrees>41.044421307742595672607421875</LatitudeDegrees>
              <LongitudeDegrees>-5.67795644514262676239013671875</LongitudeDegrees>
            </Position>
            <AltitudeMeters>795.5999755859375</AltitudeMeters>
            <DistanceMeters>NAN</DistanceMeters>
          </Trackpoint>
          <Trackpoint>
            <Time>2019-10-06T11:01:14.000Z</Time>
            <Position>
              <LatitudeDegrees>41.043923087418079376220703125</LatitudeDegrees>
              <LongitudeDegrees>-5.67774287424981594085693359375</LongitudeDegrees>
            </Position>
            <AltitudeMeters>795.5999755859375</AltitudeMeters>
            <DistanceMeters>NAN</DistanceMeters>
          </Trackpoint>
          <Trackpoint>
            <Time>2019-10-06T11:01:22.000Z</Time>
            <Position>
              <LatitudeDegrees>41.04341556318104267120361328125</LatitudeDegrees>
              <LongitudeDegrees>-5.67752008326351642608642578125</LongitudeDegrees>
            </Position>
            <AltitudeMeters>794.20001220703125</AltitudeMeters>
            <DistanceMeters>NAN</DistanceMeters>
          </Trackpoint>
          <Trackpoint>
            <Time>2019-10-06T11:01:24.000Z</Time>
            <Position>
              <LatitudeDegrees>41.0432862304151058197021484375</LatitudeDegrees>
              <LongitudeDegrees>-5.67746945656836032867431640625</LongitudeDegrees>
            </Position>
            <AltitudeMeters>794.20001220703125</AltitudeMeters>
            <DistanceMeters>NAN</DistanceMeters>
          </Trackpoint>
          <Trackpoint>
            <Time>2019-10-06T11:01:30.000Z</Time>
            <Position>
              <LatitudeDegrees>41.0428798757493495941162109375</LatitudeDegrees>
              <LongitudeDegrees>-5.67730936221778392791748046875</LongitudeDegrees>
            </Position>
            <AltitudeMeters>793.5999755859375</AltitudeMeters>
            <DistanceMeters>NAN</DistanceMeters>
          </Trackpoint>
          <Trackpoint>
            <Time>2019-10-06T11:01:32.000Z</Time>
            <Position>
              <LatitudeDegrees>41.04273847304284572601318359375</LatitudeDegrees>
              <LongitudeDegrees>-5.67725806497037410736083984375</LongitudeDegrees>
            </Position>
            <AltitudeMeters>793</AltitudeMeters>
            <DistanceMeters>NAN</DistanceMeters>
          </Trackpoint>
          <Trackpoint>
            <Time>2019-10-06T11:01:38.000Z</Time>
            <Position>
              <LatitudeDegrees>41.04230831377208232879638671875</LatitudeDegrees>
              <LongitudeDegrees>-5.67712143994867801666259765625</LongitudeDegrees>
            </Position>
            <AltitudeMeters>792</AltitudeMeters>
            <DistanceMeters>NAN</DistanceMeters>
          </Trackpoint>
          <Trackpoint>
            <Time>2019-10-06T11:01:43.000Z</Time>
            <Position>
              <LatitudeDegrees>41.0419437848031520843505859375</LatitudeDegrees>
              <LongitudeDegrees>-5.67701063118875026702880859375</LongitudeDegrees>
            </Position>
            <AltitudeMeters>790.5999755859375</AltitudeMeters>
            <DistanceMeters>NAN</DistanceMeters>
          </Trackpoint>
          <Trackpoint>
            <Time>2019-10-06T11:01:46.000Z</Time>
            <Position>
              <LatitudeDegrees>41.04171772487461566925048828125</LatitudeDegrees>
              <LongitudeDegrees>-5.67694307304918766021728515625</LongitudeDegrees>
            </Position>
            <AltitudeMeters>789.79998779296875</AltitudeMeters>
            <DistanceMeters>NAN</DistanceMeters>
          </Trackpoint>
          <Trackpoint>
            <Time>2019-10-06T11:01:47.000Z</Time>
            <Position>
              <LatitudeDegrees>41.0416417010128498077392578125</LatitudeDegrees>
              <LongitudeDegrees>-5.67692027427256107330322265625</LongitudeDegrees>
            </Position>
            <AltitudeMeters>789.5999755859375</AltitudeMeters>
            <DistanceMeters>NAN</DistanceMeters>
          </Trackpoint>
          <Trackpoint>
            <Time>2019-10-06T11:01:50.000Z</Time>
            <Position>
              <LatitudeDegrees>41.041409187018871307373046875</LatitudeDegrees>
              <LongitudeDegrees>-5.6768492795526981353759765625</LongitudeDegrees>
            </Position>
            <AltitudeMeters>788.5999755859375</AltitudeMeters>
            <DistanceMeters>NAN</DistanceMeters>
          </Trackpoint>
          <Trackpoint>
            <Time>2019-10-06T11:01:53.000Z</Time>
            <Position>
              <LatitudeDegrees>41.0411669500172138214111328125</LatitudeDegrees>
              <LongitudeDegrees>-5.67676990292966365814208984375</LongitudeDegrees>
            </Position>
            <AltitudeMeters>787.4000244140625</AltitudeMeters>
            <DistanceMeters>NAN</DistanceMeters>
          </Trackpoint>
          <Trackpoint>
            <Time>2019-10-06T11:01:54.000Z</Time>
            <Position>
              <LatitudeDegrees>41.041083969175815582275390625</LatitudeDegrees>
              <LongitudeDegrees>-5.6767483614385128021240234375</LongitudeDegrees>
            </Position>
            <AltitudeMeters>787.4000244140625</AltitudeMeters>
            <DistanceMeters>NAN</DistanceMeters>
          </Trackpoint>
          <Trackpoint>
            <Time>2019-10-06T11:01:57.000Z</Time>
            <Position>
              <LatitudeDegrees>41.040825806558132171630859375</LatitudeDegrees>
              <LongitudeDegrees>-5.6766705773770809173583984375</LongitudeDegrees>
            </Position>
            <AltitudeMeters>786.20001220703125</AltitudeMeters>
            <DistanceMeters>NAN</DistanceMeters>
          </Trackpoint>
          <Trackpoint>
            <Time>2019-10-06T11:01:59.000Z</Time>
            <Position>
              <LatitudeDegrees>41.0406469367444515228271484375</LatitudeDegrees>
              <LongitudeDegrees>-5.67661852575838565826416015625</LongitudeDegrees>
            </Position>
            <AltitudeMeters>785.20001220703125</AltitudeMeters>
            <DistanceMeters>NAN</DistanceMeters>
          </Trackpoint>
          <Trackpoint>
            <Time>2019-10-06T11:02:01.000Z</Time>
            <Position>
              <LatitudeDegrees>41.040463037788867950439453125</LatitudeDegrees>
              <LongitudeDegrees>-5.67656286992132663726806640625</LongitudeDegrees>
            </Position>
            <AltitudeMeters>784.20001220703125</AltitudeMeters>
            <DistanceMeters>NAN</DistanceMeters>
          </Trackpoint>
          <Trackpoint>
            <Time>2019-10-06T11:02:02.000Z</Time>
            <Position>
              <LatitudeDegrees>41.04036823846399784088134765625</LatitudeDegrees>
              <LongitudeDegrees>-5.67653085105121135711669921875</LongitudeDegrees>
            </Position>
            <AltitudeMeters>783.20001220703125</AltitudeMeters>
            <DistanceMeters>NAN</DistanceMeters>
          </Trackpoint>
          <Trackpoint>
            <Time>2019-10-06T11:02:04.000Z</Time>
            <Position>
              <LatitudeDegrees>41.04017436504364013671875</LatitudeDegrees>
              <LongitudeDegrees>-5.67646631039679050445556640625</LongitudeDegrees>
            </Position>
            <AltitudeMeters>781.4000244140625</AltitudeMeters>
            <DistanceMeters>NAN</DistanceMeters>
          </Trackpoint>
          <Trackpoint>
            <Time>2019-10-06T11:02:05.000Z</Time>
            <Position>
              <LatitudeDegrees>41.04007839225232601165771484375</LatitudeDegrees>
              <LongitudeDegrees>-5.67643932066857814788818359375</LongitudeDegrees>
            </Position>
            <AltitudeMeters>780.20001220703125</AltitudeMeters>
            <DistanceMeters>NAN</DistanceMeters>
          </Trackpoint>
          <Trackpoint>
            <Time>2019-10-06T11:02:07.000Z</Time>
            <Position>
              <LatitudeDegrees>41.03988267481327056884765625</LatitudeDegrees>
              <LongitudeDegrees>-5.6763795576989650726318359375</LongitudeDegrees>
            </Position>
            <AltitudeMeters>780.4000244140625</AltitudeMeters>
            <DistanceMeters>NAN</DistanceMeters>
          </Trackpoint>
          <Trackpoint>
            <Time>2019-10-06T11:02:08.000Z</Time>
            <Position>
              <LatitudeDegrees>41.0397849418222904205322265625</LatitudeDegrees>
              <LongitudeDegrees>-5.6763493828475475311279296875</LongitudeDegrees>
            </Position>
            <AltitudeMeters>780.20001220703125</AltitudeMeters>
            <DistanceMeters>NAN</DistanceMeters>
          </Trackpoint>
          <Trackpoint>
            <Time>2019-10-06T11:02:11.000Z</Time>
            <Position>
              <LatitudeDegrees>41.0394791699945926666259765625</LatitudeDegrees>
              <LongitudeDegrees>-5.67625709809362888336181640625</LongitudeDegrees>
            </Position>
            <AltitudeMeters>779</AltitudeMeters>
            <DistanceMeters>NAN</DistanceMeters>
          </Trackpoint>
          <Trackpoint>
            <Time>2019-10-06T11:02:13.000Z</Time>
            <Position>
              <LatitudeDegrees>41.03926844894886016845703125</LatitudeDegrees>
              <LongitudeDegrees>-5.67619255743920803070068359375</LongitudeDegrees>
            </Position>
            <AltitudeMeters>776.79998779296875</AltitudeMeters>
            <DistanceMeters>NAN</DistanceMeters>
          </Trackpoint>
          <Trackpoint>
            <Time>2019-10-06T11:02:14.000Z</Time>
            <Position>
              <LatitudeDegrees>41.03916191495954990386962890625</LatitudeDegrees>
              <LongitudeDegrees>-5.67615978419780731201171875</LongitudeDegrees>
            </Position>
            <AltitudeMeters>775.20001220703125</AltitudeMeters>
            <DistanceMeters>NAN</DistanceMeters>
          </Trackpoint>
          <Trackpoint>
            <Time>2019-10-06T11:02:15.000Z</Time>
            <Position>
              <LatitudeDegrees>41.03905580006539821624755859375</LatitudeDegrees>
              <LongitudeDegrees>-5.67612835206091403961181640625</LongitudeDegrees>
            </Position>
            <AltitudeMeters>774.4000244140625</AltitudeMeters>
            <DistanceMeters>NAN</DistanceMeters>
          </Trackpoint>
          <Trackpoint>
            <Time>2019-10-06T11:02:16.000Z</Time>
            <Position>
              <LatitudeDegrees>41.03895060718059539794921875</LatitudeDegrees>
              <LongitudeDegrees>-5.6760959140956401824951171875</LongitudeDegrees>
            </Position>
            <AltitudeMeters>774</AltitudeMeters>
            <DistanceMeters>NAN</DistanceMeters>
          </Trackpoint>
          <Trackpoint>
            <Time>2019-10-06T11:02:21.000Z</Time>
            <Position>
              <LatitudeDegrees>41.03842715732753276824951171875</LatitudeDegrees>
              <LongitudeDegrees>-5.67593405954539775848388671875</LongitudeDegrees>
            </Position>
            <AltitudeMeters>772.5999755859375</AltitudeMeters>
            <DistanceMeters>NAN</DistanceMeters>
          </Trackpoint>
          <Trackpoint>
            <Time>2019-10-06T11:02:22.000Z</Time>
            <Position>
              <LatitudeDegrees>41.03832188062369823455810546875</LatitudeDegrees>
              <LongitudeDegrees>-5.67590153776109218597412109375</LongitudeDegrees>
            </Position>
            <AltitudeMeters>771</AltitudeMeters>
            <DistanceMeters>NAN</DistanceMeters>
          </Trackpoint>
          <Trackpoint>
            <Time>2019-10-06T11:02:24.000Z</Time>
            <Position>
              <LatitudeDegrees>41.03811199776828289031982421875</LatitudeDegrees>
              <LongitudeDegrees>-5.6758387573063373565673828125</LongitudeDegrees>
            </Position>
            <AltitudeMeters>769.79998779296875</AltitudeMeters>
            <DistanceMeters>NAN</DistanceMeters>
          </Trackpoint>
          <Trackpoint>
            <Time>2019-10-06T11:02:25.000Z</Time>
            <Position>
              <LatitudeDegrees>41.03800571523606777191162109375</LatitudeDegrees>
              <LongitudeDegrees>-5.67580439150333404541015625</LongitudeDegrees>
            </Position>
            <AltitudeMeters>770</AltitudeMeters>
            <DistanceMeters>NAN</DistanceMeters>
          </Trackpoint>
          <Trackpoint>
            <Time>2019-10-06T11:02:28.000Z</Time>
            <Position>
              <LatitudeDegrees>41.03768636472523212432861328125</LatitudeDegrees>
              <LongitudeDegrees>-5.67570607177913188934326171875</LongitudeDegrees>
            </Position>
            <AltitudeMeters>768.20001220703125</AltitudeMeters>
            <DistanceMeters>NAN</DistanceMeters>
          </Trackpoint>
          <Trackpoint>
            <Time>2019-10-06T11:02:30.000Z</Time>
            <Position>
              <LatitudeDegrees>41.03747111745178699493408203125</LatitudeDegrees>
              <LongitudeDegrees>-5.6756442971527576446533203125</LongitudeDegrees>
            </Position>
            <AltitudeMeters>766.79998779296875</AltitudeMeters>
            <DistanceMeters>NAN</DistanceMeters>
          </Trackpoint>
          <Trackpoint>
            <Time>2019-10-06T11:02:32.000Z</Time>
            <Position>
              <LatitudeDegrees>41.037255786359310150146484375</LatitudeDegrees>
              <LongitudeDegrees>-5.6755797564983367919921875</LongitudeDegrees>
            </Position>
            <AltitudeMeters>766.4000244140625</AltitudeMeters>
            <DistanceMeters>NAN</DistanceMeters>
          </Trackpoint>
          <Trackpoint>
            <Time>2019-10-06T11:02:34.000Z</Time>
            <Position>
              <LatitudeDegrees>41.03704313747584819793701171875</LatitudeDegrees>
              <LongitudeDegrees>-5.67551546730101108551025390625</LongitudeDegrees>
            </Position>
            <AltitudeMeters>766.20001220703125</AltitudeMeters>
            <DistanceMeters>NAN</DistanceMeters>
          </Trackpoint>
          <Trackpoint>
            <Time>2019-10-06T11:02:35.000Z</Time>
            <Position>
              <LatitudeDegrees>41.03693702258169651031494140625</LatitudeDegrees>
              <LongitudeDegrees>-5.67548227496445178985595703125</LongitudeDegrees>
            </Position>
            <AltitudeMeters>765.79998779296875</AltitudeMeters>
            <DistanceMeters>NAN</DistanceMeters>
          </Trackpoint>
          <Trackpoint>
            <Time>2019-10-06T11:02:38.000Z</Time>
            <Position>
              <LatitudeDegrees>41.03662789799273014068603515625</LatitudeDegrees>
              <LongitudeDegrees>-5.67538873292505741119384765625</LongitudeDegrees>
            </Position>
            <AltitudeMeters>764.5999755859375</AltitudeMeters>
            <DistanceMeters>NAN</DistanceMeters>
          </Trackpoint>
          <Trackpoint>
            <Time>2019-10-06T11:02:39.000Z</Time>
            <Position>
              <LatitudeDegrees>41.036528237164020538330078125</LatitudeDegrees>
              <LongitudeDegrees>-5.67535537295043468475341796875</LongitudeDegrees>
            </Position>
            <AltitudeMeters>764</AltitudeMeters>
            <DistanceMeters>NAN</DistanceMeters>
          </Trackpoint>
          <Trackpoint>
            <Time>2019-10-06T11:02:40.000Z</Time>
            <Position>
              <LatitudeDegrees>41.03643000125885009765625</LatitudeDegrees>
              <LongitudeDegrees>-5.67532620392739772796630859375</LongitudeDegrees>
            </Position>
            <AltitudeMeters>764.20001220703125</AltitudeMeters>
            <DistanceMeters>NAN</DistanceMeters>
          </Trackpoint>
          <Trackpoint>
            <Time>2019-10-06T11:02:45.000Z</Time>
            <Position>
              <LatitudeDegrees>41.0359762050211429595947265625</LatitudeDegrees>
              <LongitudeDegrees>-5.675185807049274444580078125</LongitudeDegrees>
            </Position>
            <AltitudeMeters>765.4000244140625</AltitudeMeters>
            <DistanceMeters>NAN</DistanceMeters>
          </Trackpoint>
          <Trackpoint>
            <Time>2019-10-06T11:02:46.000Z</Time>
            <Position>
              <LatitudeDegrees>41.035893224179744720458984375</LatitudeDegrees>
              <LongitudeDegrees>-5.67516510374844074249267578125</LongitudeDegrees>
            </Position>
            <AltitudeMeters>765.20001220703125</AltitudeMeters>
            <DistanceMeters>NAN</DistanceMeters>
          </Trackpoint>
          <Trackpoint>
            <Time>2019-10-06T11:02:47.000Z</Time>
            <Position>
              <LatitudeDegrees>41.035814099013805389404296875</LatitudeDegrees>
              <LongitudeDegrees>-5.67514054477214813232421875</LongitudeDegrees>
            </Position>
            <AltitudeMeters>765.79998779296875</AltitudeMeters>
            <DistanceMeters>NAN</DistanceMeters>
          </Trackpoint>
          <Trackpoint>
            <Time>2019-10-06T11:02:51.000Z</Time>
            <Position>
              <LatitudeDegrees>41.03552182205021381378173828125</LatitudeDegrees>
              <LongitudeDegrees>-5.67505647428333759307861328125</LongitudeDegrees>
            </Position>
            <AltitudeMeters>766.79998779296875</AltitudeMeters>
            <DistanceMeters>NAN</DistanceMeters>
          </Trackpoint>
          <Trackpoint>
            <Time>2019-10-06T11:02:52.000Z</Time>
            <Position>
              <LatitudeDegrees>41.03545493446290493011474609375</LatitudeDegrees>
              <LongitudeDegrees>-5.67503686062991619110107421875</LongitudeDegrees>
            </Position>
            <AltitudeMeters>766.79998779296875</AltitudeMeters>
            <DistanceMeters>NAN</DistanceMeters>
          </Trackpoint>
          <Trackpoint>
            <Time>2019-10-06T11:02:55.000Z</Time>
            <Position>
              <LatitudeDegrees>41.03526650927960872650146484375</LatitudeDegrees>
              <LongitudeDegrees>-5.6749784387648105621337890625</LongitudeDegrees>
            </Position>
            <AltitudeMeters>767.79998779296875</AltitudeMeters>
            <DistanceMeters>NAN</DistanceMeters>
          </Trackpoint>
          <Trackpoint>
            <Time>2019-10-06T11:02:56.000Z</Time>
            <Position>
              <LatitudeDegrees>41.0352077521383762359619140625</LatitudeDegrees>
              <LongitudeDegrees>-5.674962513148784637451171875</LongitudeDegrees>
            </Position>
            <AltitudeMeters>768.4000244140625</AltitudeMeters>
            <DistanceMeters>NAN</DistanceMeters>
          </Trackpoint>
          <Trackpoint>
            <Time>2019-10-06T11:02:58.000Z</Time>
            <Position>
              <LatitudeDegrees>41.03509736247360706329345703125</LatitudeDegrees>
              <LongitudeDegrees>-5.6749258004128932952880859375</LongitudeDegrees>
            </Position>
            <AltitudeMeters>769</AltitudeMeters>
            <DistanceMeters>NAN</DistanceMeters>
          </Trackpoint>
          <Trackpoint>
            <Time>2019-10-06T11:02:59.000Z</Time>
            <Position>
              <LatitudeDegrees>41.03504522703588008880615234375</LatitudeDegrees>
              <LongitudeDegrees>-5.67490912042558193206787109375</LongitudeDegrees>
            </Position>
            <AltitudeMeters>769.4000244140625</AltitudeMeters>
            <DistanceMeters>NAN</DistanceMeters>
          </Trackpoint>
          <Trackpoint>
            <Time>2019-10-06T11:03:00.000Z</Time>
            <Position>
              <LatitudeDegrees>41.03499476797878742218017578125</LatitudeDegrees>
              <LongitudeDegrees>-5.67489285953342914581298828125</LongitudeDegrees>
            </Position>
            <AltitudeMeters>769.5999755859375</AltitudeMeters>
            <DistanceMeters>NAN</DistanceMeters>
          </Trackpoint>
          <Trackpoint>
            <Time>2019-10-06T11:03:02.000Z</Time>
            <Position>
              <LatitudeDegrees>41.03489921428263187408447265625</LatitudeDegrees>
              <LongitudeDegrees>-5.6748636066913604736328125</LongitudeDegrees>
            </Position>
            <AltitudeMeters>770.20001220703125</AltitudeMeters>
            <DistanceMeters>NAN</DistanceMeters>
          </Trackpoint>
          <Trackpoint>
            <Time>2019-10-06T11:03:04.000Z</Time>
            <Position>
              <LatitudeDegrees>41.03481221012771129608154296875</LatitudeDegrees>
              <LongitudeDegrees>-5.67483686842024326324462890625</LongitudeDegrees>
            </Position>
            <AltitudeMeters>770.79998779296875</AltitudeMeters>
            <DistanceMeters>NAN</DistanceMeters>
          </Trackpoint>
          <Trackpoint>
            <Time>2019-10-06T11:03:06.000Z</Time>
            <Position>
              <LatitudeDegrees>41.03473040275275707244873046875</LatitudeDegrees>
              <LongitudeDegrees>-5.6748165003955364227294921875</LongitudeDegrees>
            </Position>
            <AltitudeMeters>771</AltitudeMeters>
            <DistanceMeters>NAN</DistanceMeters>
          </Trackpoint>
          <Trackpoint>
            <Time>2019-10-06T11:03:09.000Z</Time>
            <Position>
              <LatitudeDegrees>41.03462026454508304595947265625</LatitudeDegrees>
              <LongitudeDegrees>-5.6747819669544696807861328125</LongitudeDegrees>
            </Position>
            <AltitudeMeters>772</AltitudeMeters>
            <DistanceMeters>NAN</DistanceMeters>
          </Trackpoint>
          <Trackpoint>
            <Time>2019-10-06T11:03:13.000Z</Time>
            <Position>
              <LatitudeDegrees>41.034472994506359100341796875</LatitudeDegrees>
              <LongitudeDegrees>-5.67474902607500553131103515625</LongitudeDegrees>
            </Position>
            <AltitudeMeters>772.5999755859375</AltitudeMeters>
            <DistanceMeters>NAN</DistanceMeters>
          </Trackpoint>
          <Trackpoint>
            <Time>2019-10-06T11:03:15.000Z</Time>
            <Position>
              <LatitudeDegrees>41.03440116159617900848388671875</LatitudeDegrees>
              <LongitudeDegrees>-5.67473553121089935302734375</LongitudeDegrees>
            </Position>
            <AltitudeMeters>773</AltitudeMeters>
            <DistanceMeters>NAN</DistanceMeters>
          </Trackpoint>
          <Trackpoint>
            <Time>2019-10-06T11:03:22.000Z</Time>
            <Position>
              <LatitudeDegrees>41.034154482185840606689453125</LatitudeDegrees>
              <LongitudeDegrees>-5.67467509768903255462646484375</LongitudeDegrees>
            </Position>
            <AltitudeMeters>774.20001220703125</AltitudeMeters>
            <DistanceMeters>NAN</DistanceMeters>
          </Trackpoint>
          <Trackpoint>
            <Time>2019-10-06T11:03:27.000Z</Time>
            <Position>
              <LatitudeDegrees>41.03397754020988941192626953125</LatitudeDegrees>
              <LongitudeDegrees>-5.67462866194546222686767578125</LongitudeDegrees>
            </Position>
            <AltitudeMeters>775</AltitudeMeters>
            <DistanceMeters>NAN</DistanceMeters>
          </Trackpoint>
          <Trackpoint>
            <Time>2019-10-06T11:03:29.000Z</Time>
            <Position>
              <LatitudeDegrees>41.0339062102138996124267578125</LatitudeDegrees>
              <LongitudeDegrees>-5.67460770718753337860107421875</LongitudeDegrees>
            </Position>
            <AltitudeMeters>775.20001220703125</AltitudeMeters>
            <DistanceMeters>NAN</DistanceMeters>
          </Trackpoint>
          <Trackpoint>
            <Time>2019-10-06T11:03:30.000Z</Time>
            <Position>
              <LatitudeDegrees>41.03387243114411830902099609375</LatitudeDegrees>
              <LongitudeDegrees>-5.67459563724696636199951171875</LongitudeDegrees>
            </Position>
            <AltitudeMeters>776</AltitudeMeters>
            <DistanceMeters>NAN</DistanceMeters>
          </Trackpoint>
          <Trackpoint>
            <Time>2019-10-06T11:03:34.000Z</Time>
            <Position>
              <LatitudeDegrees>41.0337330400943756103515625</LatitudeDegrees>
              <LongitudeDegrees>-5.6745546497404575347900390625</LongitudeDegrees>
            </Position>
            <AltitudeMeters>776.4000244140625</AltitudeMeters>
            <DistanceMeters>NAN</DistanceMeters>
          </Trackpoint>
          <Trackpoint>
            <Time>2019-10-06T11:03:37.000Z</Time>
            <Position>
              <LatitudeDegrees>41.03363505564630031585693359375</LatitudeDegrees>
              <LongitudeDegrees>-5.674527324736118316650390625</LongitudeDegrees>
            </Position>
            <AltitudeMeters>776.79998779296875</AltitudeMeters>
            <DistanceMeters>NAN</DistanceMeters>
          </Trackpoint>
          <Trackpoint>
            <Time>2019-10-06T11:03:39.000Z</Time>
            <Position>
              <LatitudeDegrees>41.03357068262994289398193359375</LatitudeDegrees>
              <LongitudeDegrees>-5.67450997419655323028564453125</LongitudeDegrees>
            </Position>
            <AltitudeMeters>777</AltitudeMeters>
            <DistanceMeters>NAN</DistanceMeters>
          </Trackpoint>
          <Trackpoint>
            <Time>2019-10-06T11:03:44.000Z</Time>
            <Position>
              <LatitudeDegrees>41.03341276757419109344482421875</LatitudeDegrees>
              <LongitudeDegrees>-5.6744532287120819091796875</LongitudeDegrees>
            </Position>
            <AltitudeMeters>778.20001220703125</AltitudeMeters>
            <DistanceMeters>NAN</DistanceMeters>
          </Trackpoint>
          <Trackpoint>
            <Time>2019-10-06T11:03:45.000Z</Time>
            <Position>
              <LatitudeDegrees>41.033380329608917236328125</LatitudeDegrees>
              <LongitudeDegrees>-5.6744396500289440155029296875</LongitudeDegrees>
            </Position>
            <AltitudeMeters>778.5999755859375</AltitudeMeters>
            <DistanceMeters>NAN</DistanceMeters>
          </Trackpoint>
          <Trackpoint>
            <Time>2019-10-06T11:03:52.000Z</Time>
            <Position>
              <LatitudeDegrees>41.03315309621393680572509765625</LatitudeDegrees>
              <LongitudeDegrees>-5.67436932586133480072021484375</LongitudeDegrees>
            </Position>
            <AltitudeMeters>779.20001220703125</AltitudeMeters>
            <DistanceMeters>NAN</DistanceMeters>
          </Trackpoint>
          <Trackpoint>
            <Time>2019-10-06T11:03:56.000Z</Time>
            <Position>
              <LatitudeDegrees>41.0330214165151119232177734375</LatitudeDegrees>
              <LongitudeDegrees>-5.674327500164508819580078125</LongitudeDegrees>
            </Position>
            <AltitudeMeters>780</AltitudeMeters>
            <DistanceMeters>NAN</DistanceMeters>
          </Trackpoint>
          <Trackpoint>
            <Time>2019-10-06T11:03:58.000Z</Time>
            <Position>
              <LatitudeDegrees>41.03295545093715190887451171875</LatitudeDegrees>
              <LongitudeDegrees>-5.67430830560624599456787109375</LongitudeDegrees>
            </Position>
            <AltitudeMeters>780.4000244140625</AltitudeMeters>
            <DistanceMeters>NAN</DistanceMeters>
          </Trackpoint>
          <Trackpoint>
            <Time>2019-10-06T11:04:04.000Z</Time>
            <Position>
              <LatitudeDegrees>41.0327595658600330352783203125</LatitudeDegrees>
              <LongitudeDegrees>-5.6742478720843791961669921875</LongitudeDegrees>
            </Position>
            <AltitudeMeters>781.4000244140625</AltitudeMeters>
            <DistanceMeters>NAN</DistanceMeters>
          </Trackpoint>
          <Trackpoint>
            <Time>2019-10-06T11:04:06.000Z</Time>
            <Position>
              <LatitudeDegrees>41.03269435465335845947265625</LatitudeDegrees>
              <LongitudeDegrees>-5.67423932254314422607421875</LongitudeDegrees>
            </Position>
            <AltitudeMeters>781.79998779296875</AltitudeMeters>
            <DistanceMeters>NAN</DistanceMeters>
          </Trackpoint>
          <Trackpoint>
            <Time>2019-10-06T11:04:11.000Z</Time>
            <Position>
              <LatitudeDegrees>41.03254406712949275970458984375</LatitudeDegrees>
              <LongitudeDegrees>-5.6741975806653499603271484375</LongitudeDegrees>
            </Position>
            <AltitudeMeters>782.5999755859375</AltitudeMeters>
            <DistanceMeters>NAN</DistanceMeters>
          </Trackpoint>
          <Trackpoint>
            <Time>2019-10-06T11:04:14.000Z</Time>
            <Position>
              <LatitudeDegrees>41.032455973327159881591796875</LatitudeDegrees>
              <LongitudeDegrees>-5.67416681908071041107177734375</LongitudeDegrees>
            </Position>
            <AltitudeMeters>783.20001220703125</AltitudeMeters>
            <DistanceMeters>NAN</DistanceMeters>
          </Trackpoint>
          <Trackpoint>
            <Time>2019-10-06T11:04:17.000Z</Time>
            <Position>
              <LatitudeDegrees>41.0323689691722393035888671875</LatitudeDegrees>
              <LongitudeDegrees>-5.674137063324451446533203125</LongitudeDegrees>
            </Position>
            <AltitudeMeters>783.79998779296875</AltitudeMeters>
            <DistanceMeters>NAN</DistanceMeters>
          </Trackpoint>
          <Trackpoint>
            <Time>2019-10-06T11:04:23.000Z</Time>
            <Position>
              <LatitudeDegrees>41.032201163470745086669921875</LatitudeDegrees>
              <LongitudeDegrees>-5.6740547530353069305419921875</LongitudeDegrees>
            </Position>
            <AltitudeMeters>785</AltitudeMeters>
            <DistanceMeters>NAN</DistanceMeters>
          </Trackpoint>
          <Trackpoint>
            <Time>2019-10-06T11:04:31.000Z</Time>
            <Position>
              <LatitudeDegrees>41.0319600999355316162109375</LatitudeDegrees>
              <LongitudeDegrees>-5.67396950908005237579345703125</LongitudeDegrees>
            </Position>
            <AltitudeMeters>786.20001220703125</AltitudeMeters>
            <DistanceMeters>NAN</DistanceMeters>
          </Trackpoint>
          <Trackpoint>
            <Time>2019-10-06T11:04:38.000Z</Time>
            <Position>
              <LatitudeDegrees>41.0317480377852916717529296875</LatitudeDegrees>
              <LongitudeDegrees>-5.67390672862529754638671875</LongitudeDegrees>
            </Position>
            <AltitudeMeters>787.5999755859375</AltitudeMeters>
            <DistanceMeters>NAN</DistanceMeters>
          </Trackpoint>
          <Trackpoint>
            <Time>2019-10-06T11:04:40.000Z</Time>
            <Position>
              <LatitudeDegrees>41.03168810717761516571044921875</LatitudeDegrees>
              <LongitudeDegrees>-5.67388384602963924407958984375</LongitudeDegrees>
            </Position>
            <AltitudeMeters>787.5999755859375</AltitudeMeters>
            <DistanceMeters>NAN</DistanceMeters>
          </Trackpoint>
          <Trackpoint>
            <Time>2019-10-06T11:04:45.000Z</Time>
            <Position>
              <LatitudeDegrees>41.031529940664768218994140625</LatitudeDegrees>
              <LongitudeDegrees>-5.67385450936853885650634765625</LongitudeDegrees>
            </Position>
            <AltitudeMeters>788.79998779296875</AltitudeMeters>
            <DistanceMeters>NAN</DistanceMeters>
          </Trackpoint>
          <Trackpoint>
            <Time>2019-10-06T11:04:47.000Z</Time>
            <Position>
              <LatitudeDegrees>41.031462885439395904541015625</LatitudeDegrees>
              <LongitudeDegrees>-5.67385467700660228729248046875</LongitudeDegrees>
            </Position>
            <AltitudeMeters>789.20001220703125</AltitudeMeters>
            <DistanceMeters>NAN</DistanceMeters>
          </Trackpoint>
          <Trackpoint>
            <Time>2019-10-06T11:04:53.000Z</Time>
            <Position>
              <LatitudeDegrees>41.03127202950417995452880859375</LatitudeDegrees>
              <LongitudeDegrees>-5.6737945787608623504638671875</LongitudeDegrees>
            </Position>
            <AltitudeMeters>789.5999755859375</AltitudeMeters>
            <DistanceMeters>NAN</DistanceMeters>
          </Trackpoint>
          <Trackpoint>
            <Time>2019-10-06T11:04:54.000Z</Time>
            <Position>
              <LatitudeDegrees>41.03124034591019153594970703125</LatitudeDegrees>
              <LongitudeDegrees>-5.6737855263054370880126953125</LongitudeDegrees>
            </Position>
            <AltitudeMeters>789.79998779296875</AltitudeMeters>
            <DistanceMeters>NAN</DistanceMeters>
          </Trackpoint>
          <Trackpoint>
            <Time>2019-10-06T11:04:59.000Z</Time>
            <Position>
              <LatitudeDegrees>41.03108041919767856597900390625</LatitudeDegrees>
              <LongitudeDegrees>-5.6737322174012660980224609375</LongitudeDegrees>
            </Position>
            <AltitudeMeters>791.20001220703125</AltitudeMeters>
            <DistanceMeters>NAN</DistanceMeters>
          </Trackpoint>
          <Trackpoint>
            <Time>2019-10-06T11:05:02.000Z</Time>
            <Position>
              <LatitudeDegrees>41.0309810936450958251953125</LatitudeDegrees>
              <LongitudeDegrees>-5.67370531149208545684814453125</LongitudeDegrees>
            </Position>
            <AltitudeMeters>791.20001220703125</AltitudeMeters>
            <DistanceMeters>NAN</DistanceMeters>
          </Trackpoint>
          <Trackpoint>
            <Time>2019-10-06T11:05:10.000Z</Time>
            <Position>
              <LatitudeDegrees>41.03072066791355609893798828125</LatitudeDegrees>
              <LongitudeDegrees>-5.67362501285970211029052734375</LongitudeDegrees>
            </Position>
            <AltitudeMeters>792.20001220703125</AltitudeMeters>
            <DistanceMeters>NAN</DistanceMeters>
          </Trackpoint>
          <Trackpoint>
            <Time>2019-10-06T11:05:13.000Z</Time>
            <Position>
              <LatitudeDegrees>41.03062109090387821197509765625</LatitudeDegrees>
              <LongitudeDegrees>-5.67359215579926967620849609375</LongitudeDegrees>
            </Position>
            <AltitudeMeters>792.5999755859375</AltitudeMeters>
            <DistanceMeters>NAN</DistanceMeters>
          </Trackpoint>
          <Trackpoint>
            <Time>2019-10-06T11:05:18.000Z</Time>
            <Position>
              <LatitudeDegrees>41.03045471012592315673828125</LatitudeDegrees>
              <LongitudeDegrees>-5.6735377572476863861083984375</LongitudeDegrees>
            </Position>
            <AltitudeMeters>793.5999755859375</AltitudeMeters>
            <DistanceMeters>NAN</DistanceMeters>
          </Trackpoint>
          <Trackpoint>
            <Time>2019-10-06T11:05:24.000Z</Time>
            <Position>
              <LatitudeDegrees>41.03024776093661785125732421875</LatitudeDegrees>
              <LongitudeDegrees>-5.67347757518291473388671875</LongitudeDegrees>
            </Position>
            <AltitudeMeters>793.79998779296875</AltitudeMeters>
            <DistanceMeters>NAN</DistanceMeters>
          </Trackpoint>
          <Trackpoint>
            <Time>2019-10-06T11:05:30.000Z</Time>
            <Position>
              <LatitudeDegrees>41.03003502823412418365478515625</LatitudeDegrees>
              <LongitudeDegrees>-5.67341546528041362762451171875</LongitudeDegrees>
            </Position>
            <AltitudeMeters>794.5999755859375</AltitudeMeters>
            <DistanceMeters>NAN</DistanceMeters>
          </Trackpoint>
          <Trackpoint>
            <Time>2019-10-06T11:05:35.000Z</Time>
            <Position>
              <LatitudeDegrees>41.02985716424882411956787109375</LatitudeDegrees>
              <LongitudeDegrees>-5.673366598784923553466796875</LongitudeDegrees>
            </Position>
            <AltitudeMeters>795</AltitudeMeters>
            <DistanceMeters>NAN</DistanceMeters>
          </Trackpoint>
          <Trackpoint>
            <Time>2019-10-06T11:05:45.000Z</Time>
            <Position>
              <LatitudeDegrees>41.02946899831295013427734375</LatitudeDegrees>
              <LongitudeDegrees>-5.673249922692775726318359375</LongitudeDegrees>
            </Position>
            <AltitudeMeters>795.20001220703125</AltitudeMeters>
            <DistanceMeters>NAN</DistanceMeters>
          </Trackpoint>
          <Trackpoint>
            <Time>2019-10-06T11:05:48.000Z</Time>
            <Position>
              <LatitudeDegrees>41.029343269765377044677734375</LatitudeDegrees>
              <LongitudeDegrees>-5.6732095219194889068603515625</LongitudeDegrees>
            </Position>
            <AltitudeMeters>795.79998779296875</AltitudeMeters>
            <DistanceMeters>NAN</DistanceMeters>
          </Trackpoint>
          <Trackpoint>
            <Time>2019-10-06T11:05:56.000Z</Time>
            <Position>
              <LatitudeDegrees>41.02899692952632904052734375</LatitudeDegrees>
              <LongitudeDegrees>-5.6730982102453708648681640625</LongitudeDegrees>
            </Position>
            <AltitudeMeters>796.20001220703125</AltitudeMeters>
            <DistanceMeters>NAN</DistanceMeters>
          </Trackpoint>
          <Trackpoint>
            <Time>2019-10-06T11:06:04.000Z</Time>
            <Position>
              <LatitudeDegrees>41.02863960899412631988525390625</LatitudeDegrees>
              <LongitudeDegrees>-5.6729868985712528228759765625</LongitudeDegrees>
            </Position>
            <AltitudeMeters>796.79998779296875</AltitudeMeters>
            <DistanceMeters>NAN</DistanceMeters>
          </Trackpoint>
          <Trackpoint>
            <Time>2019-10-06T11:06:10.000Z</Time>
            <Position>
              <LatitudeDegrees>41.028366275131702423095703125</LatitudeDegrees>
              <LongitudeDegrees>-5.672905258834362030029296875</LongitudeDegrees>
            </Position>
            <AltitudeMeters>796.79998779296875</AltitudeMeters>
            <DistanceMeters>NAN</DistanceMeters>
          </Trackpoint>
          <Trackpoint>
            <Time>2019-10-06T11:06:15.000Z</Time>
            <Position>
              <LatitudeDegrees>41.0281354375183582305908203125</LatitudeDegrees>
              <LongitudeDegrees>-5.6728333421051502227783203125</LongitudeDegrees>
            </Position>
            <AltitudeMeters>797</AltitudeMeters>
            <DistanceMeters>NAN</DistanceMeters>
          </Trackpoint>
          <Trackpoint>
            <Time>2019-10-06T11:06:22.000Z</Time>
            <Position>
              <LatitudeDegrees>41.02781415916979312896728515625</LatitudeDegrees>
              <LongitudeDegrees>-5.67273401655256748199462890625</LongitudeDegrees>
            </Position>
            <AltitudeMeters>796.79998779296875</AltitudeMeters>
            <DistanceMeters>NAN</DistanceMeters>
          </Trackpoint>
          <Trackpoint>
            <Time>2019-10-06T11:06:26.000Z</Time>
            <Position>
              <LatitudeDegrees>41.02762925438582897186279296875</LatitudeDegrees>
              <LongitudeDegrees>-5.67268489859998226165771484375</LongitudeDegrees>
            </Position>
            <AltitudeMeters>797</AltitudeMeters>
            <DistanceMeters>NAN</DistanceMeters>
          </Trackpoint>
          <Trackpoint>
            <Time>2019-10-06T11:06:33.000Z</Time>
            <Position>
              <LatitudeDegrees>41.02730068378150463104248046875</LatitudeDegrees>
              <LongitudeDegrees>-5.67259018309414386749267578125</LongitudeDegrees>
            </Position>
            <AltitudeMeters>796.79998779296875</AltitudeMeters>
            <DistanceMeters>NAN</DistanceMeters>
          </Trackpoint>
          <Trackpoint>
            <Time>2019-10-06T11:06:37.000Z</Time>
            <Position>
              <LatitudeDegrees>41.02710354141891002655029296875</LatitudeDegrees>
              <LongitudeDegrees>-5.672528408467769622802734375</LongitudeDegrees>
            </Position>
            <AltitudeMeters>796.5999755859375</AltitudeMeters>
            <DistanceMeters>NAN</DistanceMeters>
          </Trackpoint>
          <Trackpoint>
            <Time>2019-10-06T11:06:40.000Z</Time>
            <Position>
              <LatitudeDegrees>41.02691511623561382293701171875</LatitudeDegrees>
              <LongitudeDegrees>-5.67247250117361545562744140625</LongitudeDegrees>
            </Position>
            <AltitudeMeters>797</AltitudeMeters>
            <DistanceMeters>NAN</DistanceMeters>
          </Trackpoint>
          <Trackpoint>
            <Time>2019-10-06T11:06:47.000Z</Time>
            <Position>
              <LatitudeDegrees>41.026562154293060302734375</LatitudeDegrees>
              <LongitudeDegrees>-5.672348700463771820068359375</LongitudeDegrees>
            </Position>
            <AltitudeMeters>795.79998779296875</AltitudeMeters>
            <DistanceMeters>NAN</DistanceMeters>
          </Trackpoint>
          <Trackpoint>
            <Time>2019-10-06T11:06:48.000Z</Time>
            <Position>
              <LatitudeDegrees>41.0265070013701915740966796875</LatitudeDegrees>
              <LongitudeDegrees>-5.6723284162580966949462890625</LongitudeDegrees>
            </Position>
            <AltitudeMeters>795.79998779296875</AltitudeMeters>
            <DistanceMeters>NAN</DistanceMeters>
          </Trackpoint>
          <Trackpoint>
            <Time>2019-10-06T11:06:57.000Z</Time>
            <Position>
              <LatitudeDegrees>41.02599981240928173065185546875</LatitudeDegrees>
              <LongitudeDegrees>-5.67215465940535068511962890625</LongitudeDegrees>
            </Position>
            <AltitudeMeters>795.79998779296875</AltitudeMeters>
            <DistanceMeters>NAN</DistanceMeters>
          </Trackpoint>
          <Trackpoint>
            <Time>2019-10-06T11:06:58.000Z</Time>
            <Position>
              <LatitudeDegrees>41.02594315074384212493896484375</LatitudeDegrees>
              <LongitudeDegrees>-5.672134459018707275390625</LongitudeDegrees>
            </Position>
            <AltitudeMeters>795.79998779296875</AltitudeMeters>
            <DistanceMeters>NAN</DistanceMeters>
          </Trackpoint>
          <Trackpoint>
            <Time>2019-10-06T11:07:06.000Z</Time>
            <Position>
              <LatitudeDegrees>41.02545700035989284515380859375</LatitudeDegrees>
              <LongitudeDegrees>-5.67198115400969982147216796875</LongitudeDegrees>
            </Position>
            <AltitudeMeters>794.79998779296875</AltitudeMeters>
            <DistanceMeters>NAN</DistanceMeters>
          </Trackpoint>
          <Trackpoint>
            <Time>2019-10-06T11:07:08.000Z</Time>
            <Position>
              <LatitudeDegrees>41.025332696735858917236328125</LatitudeDegrees>
              <LongitudeDegrees>-5.67194226197898387908935546875</LongitudeDegrees>
            </Position>
            <AltitudeMeters>794.79998779296875</AltitudeMeters>
            <DistanceMeters>NAN</DistanceMeters>
          </Trackpoint>
          <Trackpoint>
            <Time>2019-10-06T11:07:15.000Z</Time>
            <Position>
              <LatitudeDegrees>41.0248973406851291656494140625</LatitudeDegrees>
              <LongitudeDegrees>-5.6718080677092075347900390625</LongitudeDegrees>
            </Position>
            <AltitudeMeters>793.79998779296875</AltitudeMeters>
            <DistanceMeters>NAN</DistanceMeters>
          </Trackpoint>
          <Trackpoint>
            <Time>2019-10-06T11:07:19.000Z</Time>
            <Position>
              <LatitudeDegrees>41.02464638650417327880859375</LatitudeDegrees>
              <LongitudeDegrees>-5.67173589952290058135986328125</LongitudeDegrees>
            </Position>
            <AltitudeMeters>794.20001220703125</AltitudeMeters>
            <DistanceMeters>NAN</DistanceMeters>
          </Trackpoint>
          <Trackpoint>
            <Time>2019-10-06T11:07:28.000Z</Time>
            <Position>
              <LatitudeDegrees>41.02409058250486850738525390625</LatitudeDegrees>
              <LongitudeDegrees>-5.67156725563108921051025390625</LongitudeDegrees>
            </Position>
            <AltitudeMeters>794.5999755859375</AltitudeMeters>
            <DistanceMeters>NAN</DistanceMeters>
          </Trackpoint>
          <Trackpoint>
            <Time>2019-10-06T11:07:30.000Z</Time>
            <Position>
              <LatitudeDegrees>41.0239652730524539947509765625</LatitudeDegrees>
              <LongitudeDegrees>-5.67153037525713443756103515625</LongitudeDegrees>
            </Position>
            <AltitudeMeters>793.5999755859375</AltitudeMeters>
            <DistanceMeters>NAN</DistanceMeters>
          </Trackpoint>
          <Trackpoint>
            <Time>2019-10-06T11:07:39.000Z</Time>
            <Position>
              <LatitudeDegrees>41.0233953036367893218994140625</LatitudeDegrees>
              <LongitudeDegrees>-5.67135460674762725830078125</LongitudeDegrees>
            </Position>
            <AltitudeMeters>793.5999755859375</AltitudeMeters>
            <DistanceMeters>NAN</DistanceMeters>
          </Trackpoint>
          <Trackpoint>
            <Time>2019-10-06T11:07:42.000Z</Time>
            <Position>
              <LatitudeDegrees>41.023204028606414794921875</LatitudeDegrees>
              <LongitudeDegrees>-5.6712930835783481597900390625</LongitudeDegrees>
            </Position>
            <AltitudeMeters>793.79998779296875</AltitudeMeters>
            <DistanceMeters>NAN</DistanceMeters>
          </Trackpoint>
          <Trackpoint>
            <Time>2019-10-06T11:07:50.000Z</Time>
            <Position>
              <LatitudeDegrees>41.02267764508724212646484375</LatitudeDegrees>
              <LongitudeDegrees>-5.6711415387690067291259765625</LongitudeDegrees>
            </Position>
            <AltitudeMeters>793.5999755859375</AltitudeMeters>
            <DistanceMeters>NAN</DistanceMeters>
          </Trackpoint>
          <Trackpoint>
            <Time>2019-10-06T11:07:52.000Z</Time>
            <Position>
              <LatitudeDegrees>41.02254646830260753631591796875</LatitudeDegrees>
              <LongitudeDegrees>-5.67110055126249790191650390625</LongitudeDegrees>
            </Position>
            <AltitudeMeters>793.5999755859375</AltitudeMeters>
            <DistanceMeters>NAN</DistanceMeters>
          </Trackpoint>
          <Trackpoint>
            <Time>2019-10-06T11:07:56.000Z</Time>
            <Position>
              <LatitudeDegrees>41.022291071712970733642578125</LatitudeDegrees>
              <LongitudeDegrees>-5.671025030314922332763671875</LongitudeDegrees>
            </Position>
            <AltitudeMeters>793.20001220703125</AltitudeMeters>
            <DistanceMeters>NAN</DistanceMeters>
          </Trackpoint>
          <Trackpoint>
            <Time>2019-10-06T11:08:01.000Z</Time>
            <Position>
              <LatitudeDegrees>41.021969877183437347412109375</LatitudeDegrees>
              <LongitudeDegrees>-5.670933164656162261962890625</LongitudeDegrees>
            </Position>
            <AltitudeMeters>792.79998779296875</AltitudeMeters>
            <DistanceMeters>NAN</DistanceMeters>
          </Trackpoint>
          <Trackpoint>
            <Time>2019-10-06T11:08:02.000Z</Time>
            <Position>
              <LatitudeDegrees>41.02190407924354076385498046875</LatitudeDegrees>
              <LongitudeDegrees>-5.67091631703078746795654296875</LongitudeDegrees>
            </Position>
            <AltitudeMeters>792.79998779296875</AltitudeMeters>
            <DistanceMeters>NAN</DistanceMeters>
          </Trackpoint>
          <Trackpoint>
            <Time>2019-10-06T11:08:06.000Z</Time>
            <Position>
              <LatitudeDegrees>41.02164038456976413726806640625</LatitudeDegrees>
              <LongitudeDegrees>-5.67084423266351222991943359375</LongitudeDegrees>
            </Position>
            <AltitudeMeters>793.20001220703125</AltitudeMeters>
            <DistanceMeters>NAN</DistanceMeters>
          </Trackpoint>
          <Trackpoint>
            <Time>2019-10-06T11:08:09.000Z</Time>
            <Position>
              <LatitudeDegrees>41.02144139818847179412841796875</LatitudeDegrees>
              <LongitudeDegrees>-5.670796371996402740478515625</LongitudeDegrees>
            </Position>
            <AltitudeMeters>793.20001220703125</AltitudeMeters>
            <DistanceMeters>NAN</DistanceMeters>
          </Trackpoint>
          <Trackpoint>
            <Time>2019-10-06T11:08:11.000Z</Time>
            <Position>
              <LatitudeDegrees>41.02130980230867862701416015625</LatitudeDegrees>
              <LongitudeDegrees>-5.67076049745082855224609375</LongitudeDegrees>
            </Position>
            <AltitudeMeters>793.4000244140625</AltitudeMeters>
            <DistanceMeters>NAN</DistanceMeters>
          </Trackpoint>
          <Trackpoint>
            <Time>2019-10-06T11:08:18.000Z</Time>
            <Position>
              <LatitudeDegrees>41.020834632217884063720703125</LatitudeDegrees>
              <LongitudeDegrees>-5.670650191605091094970703125</LongitudeDegrees>
            </Position>
            <AltitudeMeters>792.79998779296875</AltitudeMeters>
            <DistanceMeters>NAN</DistanceMeters>
          </Trackpoint>
          <Trackpoint>
            <Time>2019-10-06T11:08:26.000Z</Time>
            <Position>
              <LatitudeDegrees>41.02026499807834625244140625</LatitudeDegrees>
              <LongitudeDegrees>-5.670545585453510284423828125</LongitudeDegrees>
            </Position>
            <AltitudeMeters>792.79998779296875</AltitudeMeters>
            <DistanceMeters>NAN</DistanceMeters>
          </Trackpoint>
          <Trackpoint>
            <Time>2019-10-06T11:08:29.000Z</Time>
            <Position>
              <LatitudeDegrees>41.02005301974713802337646484375</LatitudeDegrees>
              <LongitudeDegrees>-5.6705115549266338348388671875</LongitudeDegrees>
            </Position>
            <AltitudeMeters>792.5999755859375</AltitudeMeters>
            <DistanceMeters>NAN</DistanceMeters>
          </Trackpoint>
          <Trackpoint>
            <Time>2019-10-06T11:08:32.000Z</Time>
            <Position>
              <LatitudeDegrees>41.019840203225612640380859375</LatitudeDegrees>
              <LongitudeDegrees>-5.67047660239040851593017578125</LongitudeDegrees>
            </Position>
            <AltitudeMeters>791.5999755859375</AltitudeMeters>
            <DistanceMeters>NAN</DistanceMeters>
          </Trackpoint>
          <Trackpoint>
            <Time>2019-10-06T11:08:40.000Z</Time>
            <Position>
              <LatitudeDegrees>41.01927082054316997528076171875</LatitudeDegrees>
              <LongitudeDegrees>-5.67037819884717464447021484375</LongitudeDegrees>
            </Position>
            <AltitudeMeters>791</AltitudeMeters>
            <DistanceMeters>NAN</DistanceMeters>
          </Trackpoint>
          <Trackpoint>
            <Time>2019-10-06T11:08:47.000Z</Time>
            <Position>
              <LatitudeDegrees>41.018768660724163055419921875</LatitudeDegrees>
              <LongitudeDegrees>-5.670281387865543365478515625</LongitudeDegrees>
            </Position>
            <AltitudeMeters>790.5999755859375</AltitudeMeters>
            <DistanceMeters>NAN</DistanceMeters>
          </Trackpoint>
          <Trackpoint>
            <Time>2019-10-06T11:08:50.000Z</Time>
            <Position>
              <LatitudeDegrees>41.01855349726974964141845703125</LatitudeDegrees>
              <LongitudeDegrees>-5.6702416576445102691650390625</LongitudeDegrees>
            </Position>
            <AltitudeMeters>790.5999755859375</AltitudeMeters>
            <DistanceMeters>NAN</DistanceMeters>
          </Trackpoint>
          <Trackpoint>
            <Time>2019-10-06T11:08:58.000Z</Time>
            <Position>
              <LatitudeDegrees>41.0179831087589263916015625</LatitudeDegrees>
              <LongitudeDegrees>-5.670141912996768951416015625</LongitudeDegrees>
            </Position>
            <AltitudeMeters>789.5999755859375</AltitudeMeters>
            <DistanceMeters>NAN</DistanceMeters>
          </Trackpoint>
          <Trackpoint>
            <Time>2019-10-06T11:09:02.000Z</Time>
            <Position>
              <LatitudeDegrees>41.01770080626010894775390625</LatitudeDegrees>
              <LongitudeDegrees>-5.67009128630161285400390625</LongitudeDegrees>
            </Position>
            <AltitudeMeters>790.20001220703125</AltitudeMeters>
            <DistanceMeters>NAN</DistanceMeters>
          </Trackpoint>
          <Trackpoint>
            <Time>2019-10-06T11:09:10.000Z</Time>
            <Position>
              <LatitudeDegrees>41.0171360336244106292724609375</LatitudeDegrees>
              <LongitudeDegrees>-5.6699945591390132904052734375</LongitudeDegrees>
            </Position>
            <AltitudeMeters>789.5999755859375</AltitudeMeters>
            <DistanceMeters>NAN</DistanceMeters>
          </Trackpoint>
          <Trackpoint>
            <Time>2019-10-06T11:09:13.000Z</Time>
            <Position>
              <LatitudeDegrees>41.01692489348351955413818359375</LatitudeDegrees>
              <LongitudeDegrees>-5.66995407454669475555419921875</LongitudeDegrees>
            </Position>
            <AltitudeMeters>789.79998779296875</AltitudeMeters>
            <DistanceMeters>NAN</DistanceMeters>
          </Trackpoint>
          <Trackpoint>
            <Time>2019-10-06T11:09:21.000Z</Time>
            <Position>
              <LatitudeDegrees>41.01634318940341472625732421875</LatitudeDegrees>
              <LongitudeDegrees>-5.669858269393444061279296875</LongitudeDegrees>
            </Position>
            <AltitudeMeters>789</AltitudeMeters>
            <DistanceMeters>NAN</DistanceMeters>
          </Trackpoint>
          <Trackpoint>
            <Time>2019-10-06T11:09:22.000Z</Time>
            <Position>
              <LatitudeDegrees>41.0162690095603466033935546875</LatitudeDegrees>
              <LongitudeDegrees>-5.669844187796115875244140625</LongitudeDegrees>
            </Position>
            <AltitudeMeters>788.5999755859375</AltitudeMeters>
            <DistanceMeters>NAN</DistanceMeters>
          </Trackpoint>
          <Trackpoint>
            <Time>2019-10-06T11:09:23.000Z</Time>
            <Position>
              <LatitudeDegrees>41.0161959193646907806396484375</LatitudeDegrees>
              <LongitudeDegrees>-5.66982951946556568145751953125</LongitudeDegrees>
            </Position>
            <AltitudeMeters>788.5999755859375</AltitudeMeters>
            <DistanceMeters>NAN</DistanceMeters>
          </Trackpoint>
          <Trackpoint>
            <Time>2019-10-06T11:09:30.000Z</Time>
            <Position>
              <LatitudeDegrees>41.01569049060344696044921875</LatitudeDegrees>
              <LongitudeDegrees>-5.669747628271579742431640625</LongitudeDegrees>
            </Position>
            <AltitudeMeters>787.79998779296875</AltitudeMeters>
            <DistanceMeters>NAN</DistanceMeters>
          </Trackpoint>
          <Trackpoint>
            <Time>2019-10-06T11:09:34.000Z</Time>
            <Position>
              <LatitudeDegrees>41.015401817858219146728515625</LatitudeDegrees>
              <LongitudeDegrees>-5.66969834268093109130859375</LongitudeDegrees>
            </Position>
            <AltitudeMeters>787.4000244140625</AltitudeMeters>
            <DistanceMeters>NAN</DistanceMeters>
          </Trackpoint>
          <Trackpoint>
            <Time>2019-10-06T11:09:38.000Z</Time>
            <Position>
              <LatitudeDegrees>41.0151099599897861480712890625</LatitudeDegrees>
              <LongitudeDegrees>-5.66964779980480670928955078125</LongitudeDegrees>
            </Position>
            <AltitudeMeters>786.5999755859375</AltitudeMeters>
            <DistanceMeters>NAN</DistanceMeters>
          </Trackpoint>
          <Trackpoint>
            <Time>2019-10-06T11:09:40.000Z</Time>
            <Position>
              <LatitudeDegrees>41.0149661265313625335693359375</LatitudeDegrees>
              <LongitudeDegrees>-5.66962282173335552215576171875</LongitudeDegrees>
            </Position>
            <AltitudeMeters>786.20001220703125</AltitudeMeters>
            <DistanceMeters>NAN</DistanceMeters>
          </Trackpoint>
          <Trackpoint>
            <Time>2019-10-06T11:09:45.000Z</Time>
            <Position>
              <LatitudeDegrees>41.01460956037044525146484375</LatitudeDegrees>
              <LongitudeDegrees>-5.66956020891666412353515625</LongitudeDegrees>
            </Position>
            <AltitudeMeters>785</AltitudeMeters>
            <DistanceMeters>NAN</DistanceMeters>
          </Trackpoint>
          <Trackpoint>
            <Time>2019-10-06T11:09:47.000Z</Time>
            <Position>
              <LatitudeDegrees>41.01446681655943393707275390625</LatitudeDegrees>
              <LongitudeDegrees>-5.6695322133600711822509765625</LongitudeDegrees>
            </Position>
            <AltitudeMeters>786.20001220703125</AltitudeMeters>
            <DistanceMeters>NAN</DistanceMeters>
          </Trackpoint>
          <Trackpoint>
            <Time>2019-10-06T11:09:49.000Z</Time>
            <Position>
              <LatitudeDegrees>41.01432281546294689178466796875</LatitudeDegrees>
              <LongitudeDegrees>-5.6695070676505565643310546875</LongitudeDegrees>
            </Position>
            <AltitudeMeters>785</AltitudeMeters>
            <DistanceMeters>NAN</DistanceMeters>
          </Trackpoint>
          <Trackpoint>
            <Time>2019-10-06T11:09:51.000Z</Time>
            <Position>
              <LatitudeDegrees>41.01417982019484043121337890625</LatitudeDegrees>
              <LongitudeDegrees>-5.6694815866649150848388671875</LongitudeDegrees>
            </Position>
            <AltitudeMeters>784.79998779296875</AltitudeMeters>
            <DistanceMeters>NAN</DistanceMeters>
          </Trackpoint>
          <Trackpoint>
            <Time>2019-10-06T11:09:54.000Z</Time>
            <Position>
              <LatitudeDegrees>41.01396256126463413238525390625</LatitudeDegrees>
              <LongitudeDegrees>-5.66944462247192859649658203125</LongitudeDegrees>
            </Position>
            <AltitudeMeters>784.4000244140625</AltitudeMeters>
            <DistanceMeters>NAN</DistanceMeters>
          </Trackpoint>
          <Trackpoint>
            <Time>2019-10-06T11:10:00.000Z</Time>
            <Position>
              <LatitudeDegrees>41.0135225951671600341796875</LatitudeDegrees>
              <LongitudeDegrees>-5.66936717368662357330322265625</LongitudeDegrees>
            </Position>
            <AltitudeMeters>784.4000244140625</AltitudeMeters>
            <DistanceMeters>NAN</DistanceMeters>
          </Trackpoint>
          <Trackpoint>
            <Time>2019-10-06T11:10:06.000Z</Time>
            <Position>
              <LatitudeDegrees>41.013082377612590789794921875</LatitudeDegrees>
              <LongitudeDegrees>-5.66928737796843051910400390625</LongitudeDegrees>
            </Position>
            <AltitudeMeters>784</AltitudeMeters>
            <DistanceMeters>NAN</DistanceMeters>
          </Trackpoint>
          <Trackpoint>
            <Time>2019-10-06T11:10:13.000Z</Time>
            <Position>
              <LatitudeDegrees>41.0125782899558544158935546875</LatitudeDegrees>
              <LongitudeDegrees>-5.66919534467160701751708984375</LongitudeDegrees>
            </Position>
            <AltitudeMeters>783.79998779296875</AltitudeMeters>
            <DistanceMeters>NAN</DistanceMeters>
          </Trackpoint>
          <Trackpoint>
            <Time>2019-10-06T11:10:21.000Z</Time>
            <Position>
              <LatitudeDegrees>41.01202734746038913726806640625</LatitudeDegrees>
              <LongitudeDegrees>-5.6691047362983226776123046875</LongitudeDegrees>
            </Position>
            <AltitudeMeters>784.5999755859375</AltitudeMeters>
            <DistanceMeters>NAN</DistanceMeters>
          </Trackpoint>
          <Trackpoint>
            <Time>2019-10-06T11:10:22.000Z</Time>
            <Position>
              <LatitudeDegrees>41.01196079514920711517333984375</LatitudeDegrees>
              <LongitudeDegrees>-5.669092833995819091796875</LongitudeDegrees>
            </Position>
            <AltitudeMeters>784.5999755859375</AltitudeMeters>
            <DistanceMeters>NAN</DistanceMeters>
          </Trackpoint>
          <Trackpoint>
            <Time>2019-10-06T11:10:31.000Z</Time>
            <Position>
              <LatitudeDegrees>41.01138286292552947998046875</LatitudeDegrees>
              <LongitudeDegrees>-5.668989904224872589111328125</LongitudeDegrees>
            </Position>
            <AltitudeMeters>785</AltitudeMeters>
            <DistanceMeters>NAN</DistanceMeters>
          </Trackpoint>
          <Trackpoint>
            <Time>2019-10-06T11:10:32.000Z</Time>
            <Position>
              <LatitudeDegrees>41.01132092066109180450439453125</LatitudeDegrees>
              <LongitudeDegrees>-5.66897909156978130340576171875</LongitudeDegrees>
            </Position>
            <AltitudeMeters>785</AltitudeMeters>
            <DistanceMeters>NAN</DistanceMeters>
          </Trackpoint>
          <Trackpoint>
            <Time>2019-10-06T11:10:33.000Z</Time>
            <Position>
              <LatitudeDegrees>41.01125939749181270599365234375</LatitudeDegrees>
              <LongitudeDegrees>-5.66896785981953144073486328125</LongitudeDegrees>
            </Position>
            <AltitudeMeters>785.20001220703125</AltitudeMeters>
            <DistanceMeters>NAN</DistanceMeters>
          </Trackpoint>
          <Trackpoint>
            <Time>2019-10-06T11:10:41.000Z</Time>
            <Position>
              <LatitudeDegrees>41.0107785277068614959716796875</LatitudeDegrees>
              <LongitudeDegrees>-5.66888722591102123260498046875</LongitudeDegrees>
            </Position>
            <AltitudeMeters>785.4000244140625</AltitudeMeters>
            <DistanceMeters>NAN</DistanceMeters>
          </Trackpoint>
          <Trackpoint>
            <Time>2019-10-06T11:10:47.000Z</Time>
            <Position>
              <LatitudeDegrees>41.0104144178330898284912109375</LatitudeDegrees>
              <LongitudeDegrees>-5.668820254504680633544921875</LongitudeDegrees>
            </Position>
            <AltitudeMeters>785.5999755859375</AltitudeMeters>
            <DistanceMeters>NAN</DistanceMeters>
          </Trackpoint>
          <Trackpoint>
            <Time>2019-10-06T11:10:53.000Z</Time>
            <Position>
              <LatitudeDegrees>41.0100429318845272064208984375</LatitudeDegrees>
              <LongitudeDegrees>-5.668751858174800872802734375</LongitudeDegrees>
            </Position>
            <AltitudeMeters>785.5999755859375</AltitudeMeters>
            <DistanceMeters>NAN</DistanceMeters>
          </Trackpoint>
          <Trackpoint>
            <Time>2019-10-06T11:11:01.000Z</Time>
            <Position>
              <LatitudeDegrees>41.00954630412161350250244140625</LatitudeDegrees>
              <LongitudeDegrees>-5.6686635129153728485107421875</LongitudeDegrees>
            </Position>
            <AltitudeMeters>785.5999755859375</AltitudeMeters>
            <DistanceMeters>NAN</DistanceMeters>
          </Trackpoint>
          <Trackpoint>
            <Time>2019-10-06T11:11:10.000Z</Time>
            <Position>
              <LatitudeDegrees>41.008973233401775360107421875</LatitudeDegrees>
              <LongitudeDegrees>-5.668567456305027008056640625</LongitudeDegrees>
            </Position>
            <AltitudeMeters>785.4000244140625</AltitudeMeters>
            <DistanceMeters>NAN</DistanceMeters>
          </Trackpoint>
          <Trackpoint>
            <Time>2019-10-06T11:11:18.000Z</Time>
            <Position>
              <LatitudeDegrees>41.00844844244420528411865234375</LatitudeDegrees>
              <LongitudeDegrees>-5.668468885123729705810546875</LongitudeDegrees>
            </Position>
            <AltitudeMeters>784.5999755859375</AltitudeMeters>
            <DistanceMeters>NAN</DistanceMeters>
          </Trackpoint>
          <Trackpoint>
            <Time>2019-10-06T11:11:21.000Z</Time>
            <Position>
              <LatitudeDegrees>41.00824794732034206390380859375</LatitudeDegrees>
              <LongitudeDegrees>-5.66843560896813869476318359375</LongitudeDegrees>
            </Position>
            <AltitudeMeters>785</AltitudeMeters>
            <DistanceMeters>NAN</DistanceMeters>
          </Trackpoint>
          <Trackpoint>
            <Time>2019-10-06T11:11:26.000Z</Time>
            <Position>
              <LatitudeDegrees>41.0079088993370532989501953125</LatitudeDegrees>
              <LongitudeDegrees>-5.66837777383625507354736328125</LongitudeDegrees>
            </Position>
            <AltitudeMeters>783.79998779296875</AltitudeMeters>
            <DistanceMeters>NAN</DistanceMeters>
          </Trackpoint>
          <Trackpoint>
            <Time>2019-10-06T11:11:31.000Z</Time>
            <Position>
              <LatitudeDegrees>41.0075625590980052947998046875</LatitudeDegrees>
              <LongitudeDegrees>-5.66832077689468860626220703125</LongitudeDegrees>
            </Position>
            <AltitudeMeters>782.79998779296875</AltitudeMeters>
            <DistanceMeters>NAN</DistanceMeters>
          </Trackpoint>
          <Trackpoint>
            <Time>2019-10-06T11:11:39.000Z</Time>
            <Position>
              <LatitudeDegrees>41.00700139068067073822021484375</LatitudeDegrees>
              <LongitudeDegrees>-5.66822086460888385772705078125</LongitudeDegrees>
            </Position>
            <AltitudeMeters>783.79998779296875</AltitudeMeters>
            <DistanceMeters>NAN</DistanceMeters>
          </Trackpoint>
          <Trackpoint>
            <Time>2019-10-06T11:11:40.000Z</Time>
            <Position>
              <LatitudeDegrees>41.006932072341442108154296875</LatitudeDegrees>
              <LongitudeDegrees>-5.66820879466831684112548828125</LongitudeDegrees>
            </Position>
            <AltitudeMeters>783.5999755859375</AltitudeMeters>
            <DistanceMeters>NAN</DistanceMeters>
          </Trackpoint>
          <Trackpoint>
            <Time>2019-10-06T11:11:48.000Z</Time>
            <Position>
              <LatitudeDegrees>41.00639537908136844635009765625</LatitudeDegrees>
              <LongitudeDegrees>-5.66811290569603443145751953125</LongitudeDegrees>
            </Position>
            <AltitudeMeters>783.4000244140625</AltitudeMeters>
            <DistanceMeters>NAN</DistanceMeters>
          </Trackpoint>
          <Trackpoint>
            <Time>2019-10-06T11:11:49.000Z</Time>
            <Position>
              <LatitudeDegrees>41.0063310898840427398681640625</LatitudeDegrees>
              <LongitudeDegrees>-5.66810536198318004608154296875</LongitudeDegrees>
            </Position>
            <AltitudeMeters>783.79998779296875</AltitudeMeters>
            <DistanceMeters>NAN</DistanceMeters>
          </Trackpoint>
          <Trackpoint>
            <Time>2019-10-06T11:11:58.000Z</Time>
            <Position>
              <LatitudeDegrees>41.00577092729508876800537109375</LatitudeDegrees>
              <LongitudeDegrees>-5.668003857135772705078125</LongitudeDegrees>
            </Position>
            <AltitudeMeters>784</AltitudeMeters>
            <DistanceMeters>NAN</DistanceMeters>
          </Trackpoint>
          <Trackpoint>
            <Time>2019-10-06T11:11:59.000Z</Time>
            <Position>
              <LatitudeDegrees>41.00571074523031711578369140625</LatitudeDegrees>
              <LongitudeDegrees>-5.667993128299713134765625</LongitudeDegrees>
            </Position>
            <AltitudeMeters>784.20001220703125</AltitudeMeters>
            <DistanceMeters>NAN</DistanceMeters>
          </Trackpoint>
          <Trackpoint>
            <Time>2019-10-06T11:12:07.000Z</Time>
            <Position>
              <LatitudeDegrees>41.005225516855716705322265625</LatitudeDegrees>
              <LongitudeDegrees>-5.6679088063538074493408203125</LongitudeDegrees>
            </Position>
            <AltitudeMeters>784.5999755859375</AltitudeMeters>
            <DistanceMeters>NAN</DistanceMeters>
          </Trackpoint>
          <Trackpoint>
            <Time>2019-10-06T11:12:11.000Z</Time>
            <Position>
              <LatitudeDegrees>41.00498420186340808868408203125</LatitudeDegrees>
              <LongitudeDegrees>-5.667864382266998291015625</LongitudeDegrees>
            </Position>
            <AltitudeMeters>785</AltitudeMeters>
            <DistanceMeters>NAN</DistanceMeters>
          </Trackpoint>
          <Trackpoint>
            <Time>2019-10-06T11:12:15.000Z</Time>
            <Position>
              <LatitudeDegrees>41.00474079139530658721923828125</LatitudeDegrees>
              <LongitudeDegrees>-5.667819790542125701904296875</LongitudeDegrees>
            </Position>
            <AltitudeMeters>785</AltitudeMeters>
            <DistanceMeters>NAN</DistanceMeters>
          </Trackpoint>
          <Trackpoint>
            <Time>2019-10-06T11:12:22.000Z</Time>
            <Position>
              <LatitudeDegrees>41.00431524217128753662109375</LatitudeDegrees>
              <LongitudeDegrees>-5.66774778999388217926025390625</LongitudeDegrees>
            </Position>
            <AltitudeMeters>785.79998779296875</AltitudeMeters>
            <DistanceMeters>NAN</DistanceMeters>
          </Trackpoint>
          <Trackpoint>
            <Time>2019-10-06T11:12:25.000Z</Time>
            <Position>
              <LatitudeDegrees>41.00413821637630462646484375</LatitudeDegrees>
              <LongitudeDegrees>-5.667717196047306060791015625</LongitudeDegrees>
            </Position>
            <AltitudeMeters>786</AltitudeMeters>
            <DistanceMeters>NAN</DistanceMeters>
          </Trackpoint>
          <Trackpoint>
            <Time>2019-10-06T11:12:32.000Z</Time>
            <Position>
              <LatitudeDegrees>41.00373026914894580841064453125</LatitudeDegrees>
              <LongitudeDegrees>-5.66764703951776027679443359375</LongitudeDegrees>
            </Position>
            <AltitudeMeters>786</AltitudeMeters>
            <DistanceMeters>NAN</DistanceMeters>
          </Trackpoint>
          <Trackpoint>
            <Time>2019-10-06T11:12:41.000Z</Time>
            <Position>
              <LatitudeDegrees>41.0032032988965511322021484375</LatitudeDegrees>
              <LongitudeDegrees>-5.667550228536128997802734375</LongitudeDegrees>
            </Position>
            <AltitudeMeters>786.5999755859375</AltitudeMeters>
            <DistanceMeters>NAN</DistanceMeters>
          </Trackpoint>
          <Trackpoint>
            <Time>2019-10-06T11:12:42.000Z</Time>
            <Position>
              <LatitudeDegrees>41.0031451284885406494140625</LatitudeDegrees>
              <LongitudeDegrees>-5.66754209809005260467529296875</LongitudeDegrees>
            </Position>
            <AltitudeMeters>786.4000244140625</AltitudeMeters>
            <DistanceMeters>NAN</DistanceMeters>
          </Trackpoint>
          <Trackpoint>
            <Time>2019-10-06T11:12:47.000Z</Time>
            <Position>
              <LatitudeDegrees>41.0028559528291225433349609375</LatitudeDegrees>
              <LongitudeDegrees>-5.66749432124197483062744140625</LongitudeDegrees>
            </Position>
            <AltitudeMeters>787.20001220703125</AltitudeMeters>
            <DistanceMeters>NAN</DistanceMeters>
          </Trackpoint>
          <Trackpoint>
            <Time>2019-10-06T11:12:51.000Z</Time>
            <Position>
              <LatitudeDegrees>41.00262402556836605072021484375</LatitudeDegrees>
              <LongitudeDegrees>-5.6674682535231113433837890625</LongitudeDegrees>
            </Position>
            <AltitudeMeters>787.4000244140625</AltitudeMeters>
            <DistanceMeters>NAN</DistanceMeters>
          </Trackpoint>
          <Trackpoint>
            <Time>2019-10-06T11:12:53.000Z</Time>
            <Position>
              <LatitudeDegrees>41.0025096125900745391845703125</LatitudeDegrees>
              <LongitudeDegrees>-5.66748560406267642974853515625</LongitudeDegrees>
            </Position>
            <AltitudeMeters>787.5999755859375</AltitudeMeters>
            <DistanceMeters>NAN</DistanceMeters>
          </Trackpoint>
          <Trackpoint>
            <Time>2019-10-06T11:12:55.000Z</Time>
            <Position>
              <LatitudeDegrees>41.002403162419795989990234375</LatitudeDegrees>
              <LongitudeDegrees>-5.667540170252323150634765625</LongitudeDegrees>
            </Position>
            <AltitudeMeters>787.4000244140625</AltitudeMeters>
            <DistanceMeters>NAN</DistanceMeters>
          </Trackpoint>
          <Trackpoint>
            <Time>2019-10-06T11:12:56.000Z</Time>
            <Position>
              <LatitudeDegrees>41.00235362537205219268798828125</LatitudeDegrees>
              <LongitudeDegrees>-5.66757780499756336212158203125</LongitudeDegrees>
            </Position>
            <AltitudeMeters>787.5999755859375</AltitudeMeters>
            <DistanceMeters>NAN</DistanceMeters>
          </Trackpoint>
          <Trackpoint>
            <Time>2019-10-06T11:12:58.000Z</Time>
            <Position>
              <LatitudeDegrees>41.002248264849185943603515625</LatitudeDegrees>
              <LongitudeDegrees>-5.66763329319655895233154296875</LongitudeDegrees>
            </Position>
            <AltitudeMeters>788</AltitudeMeters>
            <DistanceMeters>NAN</DistanceMeters>
          </Trackpoint>
          <Trackpoint>
            <Time>2019-10-06T11:12:59.000Z</Time>
            <Position>
              <LatitudeDegrees>41.00219151936471462249755859375</LatitudeDegrees>
              <LongitudeDegrees>-5.66763840615749359130859375</LongitudeDegrees>
            </Position>
            <AltitudeMeters>787.79998779296875</AltitudeMeters>
            <DistanceMeters>NAN</DistanceMeters>
          </Trackpoint>
          <Trackpoint>
            <Time>2019-10-06T11:13:02.000Z</Time>
            <Position>
              <LatitudeDegrees>41.0020449198782444000244140625</LatitudeDegrees>
              <LongitudeDegrees>-5.6675497256219387054443359375</LongitudeDegrees>
            </Position>
            <AltitudeMeters>788</AltitudeMeters>
            <DistanceMeters>NAN</DistanceMeters>
          </Trackpoint>
          <Trackpoint>
            <Time>2019-10-06T11:13:04.000Z</Time>
            <Position>
              <LatitudeDegrees>41.00196420215070247650146484375</LatitudeDegrees>
              <LongitudeDegrees>-5.6674538366496562957763671875</LongitudeDegrees>
            </Position>
            <AltitudeMeters>788</AltitudeMeters>
            <DistanceMeters>NAN</DistanceMeters>
          </Trackpoint>
          <Trackpoint>
            <Time>2019-10-06T11:13:05.000Z</Time>
            <Position>
              <LatitudeDegrees>41.00192547775804996490478515625</LatitudeDegrees>
              <LongitudeDegrees>-5.66740228794515132904052734375</LongitudeDegrees>
            </Position>
            <AltitudeMeters>788.20001220703125</AltitudeMeters>
            <DistanceMeters>NAN</DistanceMeters>
          </Trackpoint>
          <Trackpoint>
            <Time>2019-10-06T11:13:06.000Z</Time>
            <Position>
              <LatitudeDegrees>41.001877449452877044677734375</LatitudeDegrees>
              <LongitudeDegrees>-5.66736725158989429473876953125</LongitudeDegrees>
            </Position>
            <AltitudeMeters>788.5999755859375</AltitudeMeters>
            <DistanceMeters>NAN</DistanceMeters>
          </Trackpoint>
          <Trackpoint>
            <Time>2019-10-06T11:13:07.000Z</Time>
            <Position>
              <LatitudeDegrees>41.001826487481594085693359375</LatitudeDegrees>
              <LongitudeDegrees>-5.66733791492879390716552734375</LongitudeDegrees>
            </Position>
            <AltitudeMeters>788.79998779296875</AltitudeMeters>
            <DistanceMeters>NAN</DistanceMeters>
          </Trackpoint>
          <Trackpoint>
            <Time>2019-10-06T11:13:11.000Z</Time>
            <Position>
              <LatitudeDegrees>41.00161300040781497955322265625</LatitudeDegrees>
              <LongitudeDegrees>-5.6672815047204494476318359375</LongitudeDegrees>
            </Position>
            <AltitudeMeters>789</AltitudeMeters>
            <DistanceMeters>NAN</DistanceMeters>
          </Trackpoint>
          <Trackpoint>
            <Time>2019-10-06T11:13:12.000Z</Time>
            <Position>
              <LatitudeDegrees>41.00156019441783428192138671875</LatitudeDegrees>
              <LongitudeDegrees>-5.66727236844599246978759765625</LongitudeDegrees>
            </Position>
            <AltitudeMeters>789.20001220703125</AltitudeMeters>
            <DistanceMeters>NAN</DistanceMeters>
          </Trackpoint>
          <Trackpoint>
            <Time>2019-10-06T11:13:15.000Z</Time>
            <Position>
              <LatitudeDegrees>41.0014001838862895965576171875</LatitudeDegrees>
              <LongitudeDegrees>-5.66724278032779693603515625</LongitudeDegrees>
            </Position>
            <AltitudeMeters>789.4000244140625</AltitudeMeters>
            <DistanceMeters>NAN</DistanceMeters>
          </Trackpoint>
          <Trackpoint>
            <Time>2019-10-06T11:13:24.000Z</Time>
            <Position>
              <LatitudeDegrees>41.000912524759769439697265625</LatitudeDegrees>
              <LongitudeDegrees>-5.6671279482543468475341796875</LongitudeDegrees>
            </Position>
            <AltitudeMeters>789.79998779296875</AltitudeMeters>
            <DistanceMeters>NAN</DistanceMeters>
          </Trackpoint>
          <Trackpoint>
            <Time>2019-10-06T11:13:32.000Z</Time>
            <Position>
              <LatitudeDegrees>41.00046115927398204803466796875</LatitudeDegrees>
              <LongitudeDegrees>-5.6670283712446689605712890625</LongitudeDegrees>
            </Position>
            <AltitudeMeters>789.4000244140625</AltitudeMeters>
            <DistanceMeters>NAN</DistanceMeters>
          </Trackpoint>
          <Trackpoint>
            <Time>2019-10-06T11:13:40.000Z</Time>
            <Position>
              <LatitudeDegrees>40.99997551180422306060791015625</LatitudeDegrees>
              <LongitudeDegrees>-5.66692753694951534271240234375</LongitudeDegrees>
            </Position>
            <AltitudeMeters>788.5999755859375</AltitudeMeters>
            <DistanceMeters>NAN</DistanceMeters>
          </Trackpoint>
          <Trackpoint>
            <Time>2019-10-06T11:13:43.000Z</Time>
            <Position>
              <LatitudeDegrees>40.9997735917568206787109375</LatitudeDegrees>
              <LongitudeDegrees>-5.666907168924808502197265625</LongitudeDegrees>
            </Position>
            <AltitudeMeters>788.4000244140625</AltitudeMeters>
            <DistanceMeters>NAN</DistanceMeters>
          </Trackpoint>
          <Trackpoint>
            <Time>2019-10-06T11:13:46.000Z</Time>
            <Position>
              <LatitudeDegrees>40.9995536506175994873046875</LatitudeDegrees>
              <LongitudeDegrees>-5.66691060550510883331298828125</LongitudeDegrees>
            </Position>
            <AltitudeMeters>787</AltitudeMeters>
            <DistanceMeters>NAN</DistanceMeters>
          </Trackpoint>
          <Trackpoint>
            <Time>2019-10-06T11:13:49.000Z</Time>
            <Position>
              <LatitudeDegrees>40.9993298538029193878173828125</LatitudeDegrees>
              <LongitudeDegrees>-5.66697992384433746337890625</LongitudeDegrees>
            </Position>
            <AltitudeMeters>785.79998779296875</AltitudeMeters>
            <DistanceMeters>NAN</DistanceMeters>
          </Trackpoint>
          <Trackpoint>
            <Time>2019-10-06T11:13:50.000Z</Time>
            <Position>
              <LatitudeDegrees>40.99926866590976715087890625</LatitudeDegrees>
              <LongitudeDegrees>-5.66700649447739124298095703125</LongitudeDegrees>
            </Position>
            <AltitudeMeters>785.79998779296875</AltitudeMeters>
            <DistanceMeters>NAN</DistanceMeters>
          </Trackpoint>
          <Trackpoint>
            <Time>2019-10-06T11:13:51.000Z</Time>
            <Position>
              <LatitudeDegrees>40.99921443499624729156494140625</LatitudeDegrees>
              <LongitudeDegrees>-5.66703901626169681549072265625</LongitudeDegrees>
            </Position>
            <AltitudeMeters>785.79998779296875</AltitudeMeters>
            <DistanceMeters>NAN</DistanceMeters>
          </Trackpoint>
          <Trackpoint>
            <Time>2019-10-06T11:13:53.000Z</Time>
            <Position>
              <LatitudeDegrees>40.9991256706416606903076171875</LatitudeDegrees>
              <LongitudeDegrees>-5.66710598766803741455078125</LongitudeDegrees>
            </Position>
            <AltitudeMeters>785.79998779296875</AltitudeMeters>
            <DistanceMeters>NAN</DistanceMeters>
          </Trackpoint>
          <Trackpoint>
            <Time>2019-10-06T11:13:54.000Z</Time>
            <Position>
              <LatitudeDegrees>40.9990837611258029937744140625</LatitudeDegrees>
              <LongitudeDegrees>-5.66714697517454624176025390625</LongitudeDegrees>
            </Position>
            <AltitudeMeters>785.79998779296875</AltitudeMeters>
            <DistanceMeters>NAN</DistanceMeters>
          </Trackpoint>
          <Trackpoint>
            <Time>2019-10-06T11:13:59.000Z</Time>
            <Position>
              <LatitudeDegrees>40.99884621798992156982421875</LatitudeDegrees>
              <LongitudeDegrees>-5.6673882901668548583984375</LongitudeDegrees>
            </Position>
            <AltitudeMeters>785.79998779296875</AltitudeMeters>
            <DistanceMeters>NAN</DistanceMeters>
          </Trackpoint>
          <Trackpoint>
            <Time>2019-10-06T11:14:00.000Z</Time>
            <Position>
              <LatitudeDegrees>40.99878980778157711029052734375</LatitudeDegrees>
              <LongitudeDegrees>-5.667426176369190216064453125</LongitudeDegrees>
            </Position>
            <AltitudeMeters>785.4000244140625</AltitudeMeters>
            <DistanceMeters>NAN</DistanceMeters>
          </Trackpoint>
          <Trackpoint>
            <Time>2019-10-06T11:14:03.000Z</Time>
            <Position>
              <LatitudeDegrees>40.99860724993050098419189453125</LatitudeDegrees>
              <LongitudeDegrees>-5.66748082637786865234375</LongitudeDegrees>
            </Position>
            <AltitudeMeters>785.20001220703125</AltitudeMeters>
            <DistanceMeters>NAN</DistanceMeters>
          </Trackpoint>
          <Trackpoint>
            <Time>2019-10-06T11:14:04.000Z</Time>
            <Position>
              <LatitudeDegrees>40.9985456429421901702880859375</LatitudeDegrees>
              <LongitudeDegrees>-5.66748560406267642974853515625</LongitudeDegrees>
            </Position>
            <AltitudeMeters>785</AltitudeMeters>
            <DistanceMeters>NAN</DistanceMeters>
          </Trackpoint>
          <Trackpoint>
            <Time>2019-10-06T11:14:06.000Z</Time>
            <Position>
              <LatitudeDegrees>40.99843072704970836639404296875</LatitudeDegrees>
              <LongitudeDegrees>-5.6674618832767009735107421875</LongitudeDegrees>
            </Position>
            <AltitudeMeters>785</AltitudeMeters>
            <DistanceMeters>NAN</DistanceMeters>
          </Trackpoint>
          <Trackpoint>
            <Time>2019-10-06T11:14:07.000Z</Time>
            <Position>
              <LatitudeDegrees>40.99837255664169788360595703125</LatitudeDegrees>
              <LongitudeDegrees>-5.6674300320446491241455078125</LongitudeDegrees>
            </Position>
            <AltitudeMeters>785.20001220703125</AltitudeMeters>
            <DistanceMeters>NAN</DistanceMeters>
          </Trackpoint>
          <Trackpoint>
            <Time>2019-10-06T11:14:11.000Z</Time>
            <Position>
              <LatitudeDegrees>40.9981899149715900421142578125</LatitudeDegrees>
              <LongitudeDegrees>-5.6672050617635250091552734375</LongitudeDegrees>
            </Position>
            <AltitudeMeters>785</AltitudeMeters>
            <DistanceMeters>NAN</DistanceMeters>
          </Trackpoint>
          <Trackpoint>
            <Time>2019-10-06T11:14:13.000Z</Time>
            <Position>
              <LatitudeDegrees>40.99812763743102550506591796875</LatitudeDegrees>
              <LongitudeDegrees>-5.66705594770610332489013671875</LongitudeDegrees>
            </Position>
            <AltitudeMeters>784.79998779296875</AltitudeMeters>
            <DistanceMeters>NAN</DistanceMeters>
          </Trackpoint>
          <Trackpoint>
            <Time>2019-10-06T11:14:14.000Z</Time>
            <Position>
              <LatitudeDegrees>40.99810048006474971771240234375</LatitudeDegrees>
              <LongitudeDegrees>-5.6669805943965911865234375</LongitudeDegrees>
            </Position>
            <AltitudeMeters>785.20001220703125</AltitudeMeters>
            <DistanceMeters>NAN</DistanceMeters>
          </Trackpoint>
          <Trackpoint>
            <Time>2019-10-06T11:14:16.000Z</Time>
            <Position>
              <LatitudeDegrees>40.99804951809346675872802734375</LatitudeDegrees>
              <LongitudeDegrees>-5.66683164797723293304443359375</LongitudeDegrees>
            </Position>
            <AltitudeMeters>785</AltitudeMeters>
            <DistanceMeters>NAN</DistanceMeters>
          </Trackpoint>
          <Trackpoint>
            <Time>2019-10-06T11:14:19.000Z</Time>
            <Position>
              <LatitudeDegrees>40.99790903739631175994873046875</LatitudeDegrees>
              <LongitudeDegrees>-5.66666753031313419342041015625</LongitudeDegrees>
            </Position>
            <AltitudeMeters>784.79998779296875</AltitudeMeters>
            <DistanceMeters>NAN</DistanceMeters>
          </Trackpoint>
          <Trackpoint>
            <Time>2019-10-06T11:14:21.000Z</Time>
            <Position>
              <LatitudeDegrees>40.997789762914180755615234375</LatitudeDegrees>
              <LongitudeDegrees>-5.66662319004535675048828125</LongitudeDegrees>
            </Position>
            <AltitudeMeters>784.4000244140625</AltitudeMeters>
            <DistanceMeters>NAN</DistanceMeters>
          </Trackpoint>
          <Trackpoint>
            <Time>2019-10-06T11:14:22.000Z</Time>
            <Position>
              <LatitudeDegrees>40.9977302514016628265380859375</LatitudeDegrees>
              <LongitudeDegrees>-5.666612796485424041748046875</LongitudeDegrees>
            </Position>
            <AltitudeMeters>785.20001220703125</AltitudeMeters>
            <DistanceMeters>NAN</DistanceMeters>
          </Trackpoint>
          <Trackpoint>
            <Time>2019-10-06T11:14:23.000Z</Time>
            <Position>
              <LatitudeDegrees>40.997671075165271759033203125</LatitudeDegrees>
              <LongitudeDegrees>-5.6666086055338382720947265625</LongitudeDegrees>
            </Position>
            <AltitudeMeters>785.4000244140625</AltitudeMeters>
            <DistanceMeters>NAN</DistanceMeters>
          </Trackpoint>
          <Trackpoint>
            <Time>2019-10-06T11:14:24.000Z</Time>
            <Position>
              <LatitudeDegrees>40.997611396014690399169921875</LatitudeDegrees>
              <LongitudeDegrees>-5.66661338321864604949951171875</LongitudeDegrees>
            </Position>
            <AltitudeMeters>786</AltitudeMeters>
            <DistanceMeters>NAN</DistanceMeters>
          </Trackpoint>
          <Trackpoint>
            <Time>2019-10-06T11:14:27.000Z</Time>
            <Position>
              <LatitudeDegrees>40.99743269383907318115234375</LatitudeDegrees>
              <LongitudeDegrees>-5.6666008941829204559326171875</LongitudeDegrees>
            </Position>
            <AltitudeMeters>785.79998779296875</AltitudeMeters>
            <DistanceMeters>NAN</DistanceMeters>
          </Trackpoint>
          <Trackpoint>
            <Time>2019-10-06T11:14:28.000Z</Time>
            <Position>
              <LatitudeDegrees>40.99737544544041156768798828125</LatitudeDegrees>
              <LongitudeDegrees>-5.66659368574619293212890625</LongitudeDegrees>
            </Position>
            <AltitudeMeters>786.20001220703125</AltitudeMeters>
            <DistanceMeters>NAN</DistanceMeters>
          </Trackpoint>
          <Trackpoint>
            <Time>2019-10-06T11:14:35.000Z</Time>
            <Position>
              <LatitudeDegrees>40.996992476284503936767578125</LatitudeDegrees>
              <LongitudeDegrees>-5.66648782230913639068603515625</LongitudeDegrees>
            </Position>
            <AltitudeMeters>786.79998779296875</AltitudeMeters>
            <DistanceMeters>NAN</DistanceMeters>
          </Trackpoint>
          <Trackpoint>
            <Time>2019-10-06T11:14:36.000Z</Time>
            <Position>
              <LatitudeDegrees>40.99693807773292064666748046875</LatitudeDegrees>
              <LongitudeDegrees>-5.66647038795053958892822265625</LongitudeDegrees>
            </Position>
            <AltitudeMeters>787</AltitudeMeters>
            <DistanceMeters>NAN</DistanceMeters>
          </Trackpoint>
          <Trackpoint>
            <Time>2019-10-06T11:14:38.000Z</Time>
            <Position>
              <LatitudeDegrees>40.9968270175158977508544921875</LatitudeDegrees>
              <LongitudeDegrees>-5.66645798273384571075439453125</LongitudeDegrees>
            </Position>
            <AltitudeMeters>787.20001220703125</AltitudeMeters>
            <DistanceMeters>NAN</DistanceMeters>
          </Trackpoint>
          <Trackpoint>
            <Time>2019-10-06T11:14:40.000Z</Time>
            <Position>
              <LatitudeDegrees>40.9967160411179065704345703125</LatitudeDegrees>
              <LongitudeDegrees>-5.6664708070456981658935546875</LongitudeDegrees>
            </Position>
            <AltitudeMeters>787.4000244140625</AltitudeMeters>
            <DistanceMeters>NAN</DistanceMeters>
          </Trackpoint>
          <Trackpoint>
            <Time>2019-10-06T11:14:44.000Z</Time>
            <Position>
              <LatitudeDegrees>40.99649735726416110992431640625</LatitudeDegrees>
              <LongitudeDegrees>-5.666405260562896728515625</LongitudeDegrees>
            </Position>
            <AltitudeMeters>787.5999755859375</AltitudeMeters>
            <DistanceMeters>NAN</DistanceMeters>
          </Trackpoint>
          <Trackpoint>
            <Time>2019-10-06T11:14:45.000Z</Time>
            <Position>
              <LatitudeDegrees>40.9964441321790218353271484375</LatitudeDegrees>
              <LongitudeDegrees>-5.666386149823665618896484375</LongitudeDegrees>
            </Position>
            <AltitudeMeters>788</AltitudeMeters>
            <DistanceMeters>NAN</DistanceMeters>
          </Trackpoint>
          <Trackpoint>
            <Time>2019-10-06T11:14:46.000Z</Time>
            <Position>
              <LatitudeDegrees>40.99639174528419971466064453125</LatitudeDegrees>
              <LongitudeDegrees>-5.6663769297301769256591796875</LongitudeDegrees>
            </Position>
            <AltitudeMeters>787.79998779296875</AltitudeMeters>
            <DistanceMeters>NAN</DistanceMeters>
          </Trackpoint>
          <Trackpoint>
            <Time>2019-10-06T11:14:49.000Z</Time>
            <Position>
              <LatitudeDegrees>40.99622930400073528289794921875</LatitudeDegrees>
              <LongitudeDegrees>-5.6663742475211620330810546875</LongitudeDegrees>
            </Position>
            <AltitudeMeters>788.20001220703125</AltitudeMeters>
            <DistanceMeters>NAN</DistanceMeters>
          </Trackpoint>
          <Trackpoint>
            <Time>2019-10-06T11:14:57.000Z</Time>
            <Position>
              <LatitudeDegrees>40.9958000667393207550048828125</LatitudeDegrees>
              <LongitudeDegrees>-5.66631465218961238861083984375</LongitudeDegrees>
            </Position>
            <AltitudeMeters>789</AltitudeMeters>
            <DistanceMeters>NAN</DistanceMeters>
          </Trackpoint>
          <Trackpoint>
            <Time>2019-10-06T11:14:58.000Z</Time>
            <Position>
              <LatitudeDegrees>40.9957475960254669189453125</LatitudeDegrees>
              <LongitudeDegrees>-5.66630677320063114166259765625</LongitudeDegrees>
            </Position>
            <AltitudeMeters>789</AltitudeMeters>
            <DistanceMeters>NAN</DistanceMeters>
          </Trackpoint>
          <Trackpoint>
            <Time>2019-10-06T11:15:03.000Z</Time>
            <Position>
              <LatitudeDegrees>40.99548683501780033111572265625</LatitudeDegrees>
              <LongitudeDegrees>-5.66625899635255336761474609375</LongitudeDegrees>
            </Position>
            <AltitudeMeters>789.79998779296875</AltitudeMeters>
            <DistanceMeters>NAN</DistanceMeters>
          </Trackpoint>
          <Trackpoint>
            <Time>2019-10-06T11:15:05.000Z</Time>
            <Position>
              <LatitudeDegrees>40.995383821427822113037109375</LatitudeDegrees>
              <LongitudeDegrees>-5.66624072380363941192626953125</LongitudeDegrees>
            </Position>
            <AltitudeMeters>790.20001220703125</AltitudeMeters>
            <DistanceMeters>NAN</DistanceMeters>
          </Trackpoint>
          <Trackpoint>
            <Time>2019-10-06T11:15:13.000Z</Time>
            <Position>
              <LatitudeDegrees>40.99496715702116489410400390625</LatitudeDegrees>
              <LongitudeDegrees>-5.666168220341205596923828125</LongitudeDegrees>
            </Position>
            <AltitudeMeters>790.79998779296875</AltitudeMeters>
            <DistanceMeters>NAN</DistanceMeters>
          </Trackpoint>
          <Trackpoint>
            <Time>2019-10-06T11:15:18.000Z</Time>
            <Position>
              <LatitudeDegrees>40.99471100606024265289306640625</LatitudeDegrees>
              <LongitudeDegrees>-5.66611985675990581512451171875</LongitudeDegrees>
            </Position>
            <AltitudeMeters>791.20001220703125</AltitudeMeters>
            <DistanceMeters>NAN</DistanceMeters>
          </Trackpoint>
          <Trackpoint>
            <Time>2019-10-06T11:15:22.000Z</Time>
            <Position>
              <LatitudeDegrees>40.9945062361657619476318359375</LatitudeDegrees>
              <LongitudeDegrees>-5.6660845689475536346435546875</LongitudeDegrees>
            </Position>
            <AltitudeMeters>792</AltitudeMeters>
            <DistanceMeters>NAN</DistanceMeters>
          </Trackpoint>
          <Trackpoint>
            <Time>2019-10-06T11:15:26.000Z</Time>
            <Position>
              <LatitudeDegrees>40.99430314265191555023193359375</LatitudeDegrees>
              <LongitudeDegrees>-5.666052885353565216064453125</LongitudeDegrees>
            </Position>
            <AltitudeMeters>792.5999755859375</AltitudeMeters>
            <DistanceMeters>NAN</DistanceMeters>
          </Trackpoint>
          <Trackpoint>
            <Time>2019-10-06T11:15:33.000Z</Time>
            <Position>
              <LatitudeDegrees>40.9939399547874927520751953125</LatitudeDegrees>
              <LongitudeDegrees>-5.66599152982234954833984375</LongitudeDegrees>
            </Position>
            <AltitudeMeters>792.79998779296875</AltitudeMeters>
            <DistanceMeters>NAN</DistanceMeters>
          </Trackpoint>
          <Trackpoint>
            <Time>2019-10-06T11:15:38.000Z</Time>
            <Position>
              <LatitudeDegrees>40.9936834685504436492919921875</LatitudeDegrees>
              <LongitudeDegrees>-5.66595129668712615966796875</LongitudeDegrees>
            </Position>
            <AltitudeMeters>793.5999755859375</AltitudeMeters>
            <DistanceMeters>NAN</DistanceMeters>
          </Trackpoint>
          <Trackpoint>
            <Time>2019-10-06T11:15:43.000Z</Time>
            <Position>
              <LatitudeDegrees>40.99343058653175830841064453125</LatitudeDegrees>
              <LongitudeDegrees>-5.66590712405741214752197265625</LongitudeDegrees>
            </Position>
            <AltitudeMeters>794.4000244140625</AltitudeMeters>
            <DistanceMeters>NAN</DistanceMeters>
          </Trackpoint>
          <Trackpoint>
            <Time>2019-10-06T11:15:48.000Z</Time>
            <Position>
              <LatitudeDegrees>40.99317594431340694427490234375</LatitudeDegrees>
              <LongitudeDegrees>-5.665858425199985504150390625</LongitudeDegrees>
            </Position>
            <AltitudeMeters>794.79998779296875</AltitudeMeters>
            <DistanceMeters>NAN</DistanceMeters>
          </Trackpoint>
          <Trackpoint>
            <Time>2019-10-06T11:15:55.000Z</Time>
            <Position>
              <LatitudeDegrees>40.9928191266953945159912109375</LatitudeDegrees>
              <LongitudeDegrees>-5.66582632251083850860595703125</LongitudeDegrees>
            </Position>
            <AltitudeMeters>795.5999755859375</AltitudeMeters>
            <DistanceMeters>NAN</DistanceMeters>
          </Trackpoint>
          <Trackpoint>
            <Time>2019-10-06T11:15:57.000Z</Time>
            <Position>
              <LatitudeDegrees>40.99272332154214382171630859375</LatitudeDegrees>
              <LongitudeDegrees>-5.66587326116859912872314453125</LongitudeDegrees>
            </Position>
            <AltitudeMeters>795.79998779296875</AltitudeMeters>
            <DistanceMeters>NAN</DistanceMeters>
          </Trackpoint>
          <Trackpoint>
            <Time>2019-10-06T11:15:59.000Z</Time>
            <Position>
              <LatitudeDegrees>40.99262089468538761138916015625</LatitudeDegrees>
              <LongitudeDegrees>-5.665902681648731231689453125</LongitudeDegrees>
            </Position>
            <AltitudeMeters>796</AltitudeMeters>
            <DistanceMeters>NAN</DistanceMeters>
          </Trackpoint>
          <Trackpoint>
            <Time>2019-10-06T11:16:02.000Z</Time>
            <Position>
              <LatitudeDegrees>40.99247169680893421173095703125</LatitudeDegrees>
              <LongitudeDegrees>-5.6658448465168476104736328125</LongitudeDegrees>
            </Position>
            <AltitudeMeters>796.20001220703125</AltitudeMeters>
            <DistanceMeters>NAN</DistanceMeters>
          </Trackpoint>
          <Trackpoint>
            <Time>2019-10-06T11:16:06.000Z</Time>
            <Position>
              <LatitudeDegrees>40.99230028688907623291015625</LatitudeDegrees>
              <LongitudeDegrees>-5.6656859256327152252197265625</LongitudeDegrees>
            </Position>
            <AltitudeMeters>796.20001220703125</AltitudeMeters>
            <DistanceMeters>NAN</DistanceMeters>
          </Trackpoint>
          <Trackpoint>
            <Time>2019-10-06T11:16:09.000Z</Time>
            <Position>
              <LatitudeDegrees>40.99214966408908367156982421875</LatitudeDegrees>
              <LongitudeDegrees>-5.66562867723405361175537109375</LongitudeDegrees>
            </Position>
            <AltitudeMeters>797</AltitudeMeters>
            <DistanceMeters>NAN</DistanceMeters>
          </Trackpoint>
          <Trackpoint>
            <Time>2019-10-06T11:16:11.000Z</Time>
            <Position>
              <LatitudeDegrees>40.99204623140394687652587890625</LatitudeDegrees>
              <LongitudeDegrees>-5.6656135059893131256103515625</LongitudeDegrees>
            </Position>
            <AltitudeMeters>797</AltitudeMeters>
            <DistanceMeters>NAN</DistanceMeters>
          </Trackpoint>
          <Trackpoint>
            <Time>2019-10-06T11:16:16.000Z</Time>
            <Position>
              <LatitudeDegrees>40.9917837940156459808349609375</LatitudeDegrees>
              <LongitudeDegrees>-5.6655699200928211212158203125</LongitudeDegrees>
            </Position>
            <AltitudeMeters>798</AltitudeMeters>
            <DistanceMeters>NAN</DistanceMeters>
          </Trackpoint>
          <Trackpoint>
            <Time>2019-10-06T11:16:20.000Z</Time>
            <Position>
              <LatitudeDegrees>40.9915769286453723907470703125</LatitudeDegrees>
              <LongitudeDegrees>-5.6655350513756275177001953125</LongitudeDegrees>
            </Position>
            <AltitudeMeters>798</AltitudeMeters>
            <DistanceMeters>NAN</DistanceMeters>
          </Trackpoint>
          <Trackpoint>
            <Time>2019-10-06T11:16:26.000Z</Time>
            <Position>
              <LatitudeDegrees>40.99126839078962802886962890625</LatitudeDegrees>
              <LongitudeDegrees>-5.66547914408147335052490234375</LongitudeDegrees>
            </Position>
            <AltitudeMeters>799</AltitudeMeters>
            <DistanceMeters>NAN</DistanceMeters>
          </Trackpoint>
          <Trackpoint>
            <Time>2019-10-06T11:16:28.000Z</Time>
            <Position>
              <LatitudeDegrees>40.9911688975989818572998046875</LatitudeDegrees>
              <LongitudeDegrees>-5.6654609553515911102294921875</LongitudeDegrees>
            </Position>
            <AltitudeMeters>799.4000244140625</AltitudeMeters>
            <DistanceMeters>NAN</DistanceMeters>
          </Trackpoint>
          <Trackpoint>
            <Time>2019-10-06T11:16:35.000Z</Time>
            <Position>
              <LatitudeDegrees>40.9908123314380645751953125</LatitudeDegrees>
              <LongitudeDegrees>-5.665397755801677703857421875</LongitudeDegrees>
            </Position>
            <AltitudeMeters>800.20001220703125</AltitudeMeters>
            <DistanceMeters>NAN</DistanceMeters>
          </Trackpoint>
          <Trackpoint>
            <Time>2019-10-06T11:16:39.000Z</Time>
            <Position>
              <LatitudeDegrees>40.9906123392283916473388671875</LatitudeDegrees>
              <LongitudeDegrees>-5.665361881256103515625</LongitudeDegrees>
            </Position>
            <AltitudeMeters>800.4000244140625</AltitudeMeters>
            <DistanceMeters>NAN</DistanceMeters>
          </Trackpoint>
          <Trackpoint>
            <Time>2019-10-06T11:16:45.000Z</Time>
            <Position>
              <LatitudeDegrees>40.9903105907142162322998046875</LatitudeDegrees>
              <LongitudeDegrees>-5.66530890762805938720703125</LongitudeDegrees>
            </Position>
            <AltitudeMeters>801.4000244140625</AltitudeMeters>
            <DistanceMeters>NAN</DistanceMeters>
          </Trackpoint>
          <Trackpoint>
            <Time>2019-10-06T11:16:49.000Z</Time>
            <Position>
              <LatitudeDegrees>40.99011319689452648162841796875</LatitudeDegrees>
              <LongitudeDegrees>-5.66527395509183406829833984375</LongitudeDegrees>
            </Position>
            <AltitudeMeters>801.79998779296875</AltitudeMeters>
            <DistanceMeters>NAN</DistanceMeters>
          </Trackpoint>
          <Trackpoint>
            <Time>2019-10-06T11:16:55.000Z</Time>
            <Position>
              <LatitudeDegrees>40.989830307662487030029296875</LatitudeDegrees>
              <LongitudeDegrees>-5.66522299312055110931396484375</LongitudeDegrees>
            </Position>
            <AltitudeMeters>802.4000244140625</AltitudeMeters>
            <DistanceMeters>NAN</DistanceMeters>
          </Trackpoint>
          <Trackpoint>
            <Time>2019-10-06T11:16:58.000Z</Time>
            <Position>
              <LatitudeDegrees>40.98969141952693462371826171875</LatitudeDegrees>
              <LongitudeDegrees>-5.66520371474325656890869140625</LongitudeDegrees>
            </Position>
            <AltitudeMeters>802.79998779296875</AltitudeMeters>
            <DistanceMeters>NAN</DistanceMeters>
          </Trackpoint>
          <Trackpoint>
            <Time>2019-10-06T11:17:01.000Z</Time>
            <Position>
              <LatitudeDegrees>40.98955010063946247100830078125</LatitudeDegrees>
              <LongitudeDegrees>-5.6651861965656280517578125</LongitudeDegrees>
            </Position>
            <AltitudeMeters>803.5999755859375</AltitudeMeters>
            <DistanceMeters>NAN</DistanceMeters>
          </Trackpoint>
          <Trackpoint>
            <Time>2019-10-06T11:17:08.000Z</Time>
            <Position>
              <LatitudeDegrees>40.9892206080257892608642578125</LatitudeDegrees>
              <LongitudeDegrees>-5.66512023098766803741455078125</LongitudeDegrees>
            </Position>
            <AltitudeMeters>804.5999755859375</AltitudeMeters>
            <DistanceMeters>NAN</DistanceMeters>
          </Trackpoint>
          <Trackpoint>
            <Time>2019-10-06T11:17:14.000Z</Time>
            <Position>
              <LatitudeDegrees>40.9889480285346508026123046875</LatitudeDegrees>
              <LongitudeDegrees>-5.6650747172534465789794921875</LongitudeDegrees>
            </Position>
            <AltitudeMeters>805.5999755859375</AltitudeMeters>
            <DistanceMeters>NAN</DistanceMeters>
          </Trackpoint>
          <Trackpoint>
            <Time>2019-10-06T11:17:17.000Z</Time>
            <Position>
              <LatitudeDegrees>40.98882146179676055908203125</LatitudeDegrees>
              <LongitudeDegrees>-5.66505066119134426116943359375</LongitudeDegrees>
            </Position>
            <AltitudeMeters>806</AltitudeMeters>
            <DistanceMeters>NAN</DistanceMeters>
          </Trackpoint>
          <Trackpoint>
            <Time>2019-10-06T11:17:19.000Z</Time>
            <Position>
              <LatitudeDegrees>40.98873856477439403533935546875</LatitudeDegrees>
              <LongitudeDegrees>-5.6650267727673053741455078125</LongitudeDegrees>
            </Position>
            <AltitudeMeters>806.79998779296875</AltitudeMeters>
            <DistanceMeters>NAN</DistanceMeters>
          </Trackpoint>
          <Trackpoint>
            <Time>2019-10-06T11:17:21.000Z</Time>
            <Position>
              <LatitudeDegrees>40.98865524865686893463134765625</LatitudeDegrees>
              <LongitudeDegrees>-5.66501176916062831878662109375</LongitudeDegrees>
            </Position>
            <AltitudeMeters>807.20001220703125</AltitudeMeters>
            <DistanceMeters>NAN</DistanceMeters>
          </Trackpoint>
          <Trackpoint>
            <Time>2019-10-06T11:17:24.000Z</Time>
            <Position>
              <LatitudeDegrees>40.988530777394771575927734375</LatitudeDegrees>
              <LongitudeDegrees>-5.66499819047749042510986328125</LongitudeDegrees>
            </Position>
            <AltitudeMeters>807</AltitudeMeters>
            <DistanceMeters>NAN</DistanceMeters>
          </Trackpoint>
          <Trackpoint>
            <Time>2019-10-06T11:17:27.000Z</Time>
            <Position>
              <LatitudeDegrees>40.98840840160846710205078125</LatitudeDegrees>
              <LongitudeDegrees>-5.6649801693856716156005859375</LongitudeDegrees>
            </Position>
            <AltitudeMeters>808</AltitudeMeters>
            <DistanceMeters>NAN</DistanceMeters>
          </Trackpoint>
          <Trackpoint>
            <Time>2019-10-06T11:17:33.000Z</Time>
            <Position>
              <LatitudeDegrees>40.98816297948360443115234375</LatitudeDegrees>
              <LongitudeDegrees>-5.66494504921138286590576171875</LongitudeDegrees>
            </Position>
            <AltitudeMeters>809.20001220703125</AltitudeMeters>
            <DistanceMeters>NAN</DistanceMeters>
          </Trackpoint>
          <Trackpoint>
            <Time>2019-10-06T11:17:39.000Z</Time>
            <Position>
              <LatitudeDegrees>40.9879230894148349761962890625</LatitudeDegrees>
              <LongitudeDegrees>-5.66489023156464099884033203125</LongitudeDegrees>
            </Position>
            <AltitudeMeters>810.20001220703125</AltitudeMeters>
            <DistanceMeters>NAN</DistanceMeters>
          </Trackpoint>
          <Trackpoint>
            <Time>2019-10-06T11:17:43.000Z</Time>
            <Position>
              <LatitudeDegrees>40.98776064813137054443359375</LatitudeDegrees>
              <LongitudeDegrees>-5.66486273892223834991455078125</LongitudeDegrees>
            </Position>
            <AltitudeMeters>811.20001220703125</AltitudeMeters>
            <DistanceMeters>NAN</DistanceMeters>
          </Trackpoint>
          <Trackpoint>
            <Time>2019-10-06T11:17:44.000Z</Time>
            <Position>
              <LatitudeDegrees>40.98771999590098857879638671875</LatitudeDegrees>
              <LongitudeDegrees>-5.66485485993325710296630859375</LongitudeDegrees>
            </Position>
            <AltitudeMeters>811</AltitudeMeters>
            <DistanceMeters>NAN</DistanceMeters>
          </Trackpoint>
          <Trackpoint>
            <Time>2019-10-06T11:17:52.000Z</Time>
            <Position>
              <LatitudeDegrees>40.98739184439182281494140625</LatitudeDegrees>
              <LongitudeDegrees>-5.66481269896030426025390625</LongitudeDegrees>
            </Position>
            <AltitudeMeters>812.20001220703125</AltitudeMeters>
            <DistanceMeters>NAN</DistanceMeters>
          </Trackpoint>
          <Trackpoint>
            <Time>2019-10-06T11:17:55.000Z</Time>
            <Position>
              <LatitudeDegrees>40.98727106116712093353271484375</LatitudeDegrees>
              <LongitudeDegrees>-5.6647927500307559967041015625</LongitudeDegrees>
            </Position>
            <AltitudeMeters>812.79998779296875</AltitudeMeters>
            <DistanceMeters>NAN</DistanceMeters>
          </Trackpoint>
          <Trackpoint>
            <Time>2019-10-06T11:17:57.000Z</Time>
            <Position>
              <LatitudeDegrees>40.9871908463537693023681640625</LatitudeDegrees>
              <LongitudeDegrees>-5.66477715969085693359375</LongitudeDegrees>
            </Position>
            <AltitudeMeters>813.4000244140625</AltitudeMeters>
            <DistanceMeters>NAN</DistanceMeters>
          </Trackpoint>
          <Trackpoint>
            <Time>2019-10-06T11:18:03.000Z</Time>
            <Position>
              <LatitudeDegrees>40.98696361295878887176513671875</LatitudeDegrees>
              <LongitudeDegrees>-5.6647357530891895294189453125</LongitudeDegrees>
            </Position>
            <AltitudeMeters>814.4000244140625</AltitudeMeters>
            <DistanceMeters>NAN</DistanceMeters>
          </Trackpoint>
          <Trackpoint>
            <Time>2019-10-06T11:18:06.000Z</Time>
            <Position>
              <LatitudeDegrees>40.986853055655956268310546875</LatitudeDegrees>
              <LongitudeDegrees>-5.6647166423499584197998046875</LongitudeDegrees>
            </Position>
            <AltitudeMeters>814.79998779296875</AltitudeMeters>
            <DistanceMeters>NAN</DistanceMeters>
          </Trackpoint>
          <Trackpoint>
            <Time>2019-10-06T11:18:13.000Z</Time>
            <Position>
              <LatitudeDegrees>40.9865910373628139495849609375</LatitudeDegrees>
              <LongitudeDegrees>-5.66466593183577060699462890625</LongitudeDegrees>
            </Position>
            <AltitudeMeters>816</AltitudeMeters>
            <DistanceMeters>NAN</DistanceMeters>
          </Trackpoint>
          <Trackpoint>
            <Time>2019-10-06T11:18:15.000Z</Time>
            <Position>
              <LatitudeDegrees>40.986514426767826080322265625</LatitudeDegrees>
              <LongitudeDegrees>-5.66465436480939388275146484375</LongitudeDegrees>
            </Position>
            <AltitudeMeters>816</AltitudeMeters>
            <DistanceMeters>NAN</DistanceMeters>
          </Trackpoint>
          <Trackpoint>
            <Time>2019-10-06T11:18:23.000Z</Time>
            <Position>
              <LatitudeDegrees>40.98621326498687267303466796875</LatitudeDegrees>
              <LongitudeDegrees>-5.66460340283811092376708984375</LongitudeDegrees>
            </Position>
            <AltitudeMeters>817</AltitudeMeters>
            <DistanceMeters>NAN</DistanceMeters>
          </Trackpoint>
          <Trackpoint>
            <Time>2019-10-06T11:18:27.000Z</Time>
            <Position>
              <LatitudeDegrees>40.98606272600591182708740234375</LatitudeDegrees>
              <LongitudeDegrees>-5.66457490436732769012451171875</LongitudeDegrees>
            </Position>
            <AltitudeMeters>817.79998779296875</AltitudeMeters>
            <DistanceMeters>NAN</DistanceMeters>
          </Trackpoint>
          <Trackpoint>
            <Time>2019-10-06T11:18:29.000Z</Time>
            <Position>
              <LatitudeDegrees>40.98598712123930454254150390625</LatitudeDegrees>
              <LongitudeDegrees>-5.664564929902553558349609375</LongitudeDegrees>
            </Position>
            <AltitudeMeters>818</AltitudeMeters>
            <DistanceMeters>NAN</DistanceMeters>
          </Trackpoint>
          <Trackpoint>
            <Time>2019-10-06T11:18:37.000Z</Time>
            <Position>
              <LatitudeDegrees>40.98569777794182300567626953125</LatitudeDegrees>
              <LongitudeDegrees>-5.66451002843677997589111328125</LongitudeDegrees>
            </Position>
            <AltitudeMeters>818.5999755859375</AltitudeMeters>
            <DistanceMeters>NAN</DistanceMeters>
          </Trackpoint>
          <Trackpoint>
            <Time>2019-10-06T11:18:38.000Z</Time>
            <Position>
              <LatitudeDegrees>40.985664166510105133056640625</LatitudeDegrees>
              <LongitudeDegrees>-5.66450382582843303680419921875</LongitudeDegrees>
            </Position>
            <AltitudeMeters>819.20001220703125</AltitudeMeters>
            <DistanceMeters>NAN</DistanceMeters>
          </Trackpoint>
          <Trackpoint>
            <Time>2019-10-06T11:18:44.000Z</Time>
            <Position>
              <LatitudeDegrees>40.98552745766937732696533203125</LatitudeDegrees>
              <LongitudeDegrees>-5.664493851363658905029296875</LongitudeDegrees>
            </Position>
            <AltitudeMeters>819.79998779296875</AltitudeMeters>
            <DistanceMeters>NAN</DistanceMeters>
          </Trackpoint>
          <Trackpoint>
            <Time>2019-10-06T11:18:45.000Z</Time>
            <Position>
              <LatitudeDegrees>40.98551739938557147979736328125</LatitudeDegrees>
              <LongitudeDegrees>-5.66450022161006927490234375</LongitudeDegrees>
            </Position>
            <AltitudeMeters>819.79998779296875</AltitudeMeters>
            <DistanceMeters>NAN</DistanceMeters>
          </Trackpoint>
          <Trackpoint>
            <Time>2019-10-06T11:18:48.000Z</Time>
            <Position>
              <LatitudeDegrees>40.98551874049007892608642578125</LatitudeDegrees>
              <LongitudeDegrees>-5.66450147889554500579833984375</LongitudeDegrees>
            </Position>
            <AltitudeMeters>819.79998779296875</AltitudeMeters>
            <DistanceMeters>NAN</DistanceMeters>
          </Trackpoint>
          <Trackpoint>
            <Time>2019-10-06T11:18:58.000Z</Time>
            <Position>
              <LatitudeDegrees>40.9854960255324840545654296875</LatitudeDegrees>
              <LongitudeDegrees>-5.66451304592192173004150390625</LongitudeDegrees>
            </Position>
            <AltitudeMeters>819.5999755859375</AltitudeMeters>
            <DistanceMeters>NAN</DistanceMeters>
          </Trackpoint>
          <Trackpoint>
            <Time>2019-10-06T11:19:02.000Z</Time>
            <Position>
              <LatitudeDegrees>40.98549108020961284637451171875</LatitudeDegrees>
              <LongitudeDegrees>-5.66452377475798130035400390625</LongitudeDegrees>
            </Position>
            <AltitudeMeters>819.79998779296875</AltitudeMeters>
            <DistanceMeters>NAN</DistanceMeters>
          </Trackpoint>
          <Trackpoint>
            <Time>2019-10-06T11:19:10.000Z</Time>
            <Position>
              <LatitudeDegrees>40.98549108020961284637451171875</LatitudeDegrees>
              <LongitudeDegrees>-5.66452377475798130035400390625</LongitudeDegrees>
            </Position>
            <AltitudeMeters>819.79998779296875</AltitudeMeters>
            <DistanceMeters>NAN</DistanceMeters>
          </Trackpoint>
          <Trackpoint>
            <Time>2019-10-06T11:19:11.000Z</Time>
            <Position>
              <LatitudeDegrees>40.98549108020961284637451171875</LatitudeDegrees>
              <LongitudeDegrees>-5.66452377475798130035400390625</LongitudeDegrees>
            </Position>
            <AltitudeMeters>819.79998779296875</AltitudeMeters>
            <DistanceMeters>NAN</DistanceMeters>
          </Trackpoint>
          <Trackpoint>
            <Time>2019-10-06T11:19:13.000Z</Time>
            <Position>
              <LatitudeDegrees>40.98549108020961284637451171875</LatitudeDegrees>
              <LongitudeDegrees>-5.66452377475798130035400390625</LongitudeDegrees>
            </Position>
            <AltitudeMeters>819.79998779296875</AltitudeMeters>
            <DistanceMeters>NAN</DistanceMeters>
          </Trackpoint>
          <Trackpoint>
            <Time>2019-10-06T11:19:20.000Z</Time>
            <Position>
              <LatitudeDegrees>40.98549108020961284637451171875</LatitudeDegrees>
              <LongitudeDegrees>-5.66452377475798130035400390625</LongitudeDegrees>
            </Position>
            <AltitudeMeters>819.79998779296875</AltitudeMeters>
            <DistanceMeters>NAN</DistanceMeters>
          </Trackpoint>
          <Trackpoint>
            <Time>2019-10-06T11:19:22.000Z</Time>
            <Position>
              <LatitudeDegrees>40.98549108020961284637451171875</LatitudeDegrees>
              <LongitudeDegrees>-5.66452377475798130035400390625</LongitudeDegrees>
            </Position>
            <AltitudeMeters>819.5999755859375</AltitudeMeters>
            <DistanceMeters>NAN</DistanceMeters>
          </Trackpoint>
          <Trackpoint>
            <Time>2019-10-06T11:19:30.000Z</Time>
            <Position>
              <LatitudeDegrees>40.98549108020961284637451171875</LatitudeDegrees>
              <LongitudeDegrees>-5.66452377475798130035400390625</LongitudeDegrees>
            </Position>
            <AltitudeMeters>819.5999755859375</AltitudeMeters>
            <DistanceMeters>NAN</DistanceMeters>
          </Trackpoint>
          <Trackpoint>
            <Time>2019-10-06T11:19:33.000Z</Time>
            <Position>
              <LatitudeDegrees>40.98548873327672481536865234375</LatitudeDegrees>
              <LongitudeDegrees>-5.66452142782509326934814453125</LongitudeDegrees>
            </Position>
            <AltitudeMeters>819.79998779296875</AltitudeMeters>
            <DistanceMeters>NAN</DistanceMeters>
          </Trackpoint>
          <Trackpoint>
            <Time>2019-10-06T11:19:37.000Z</Time>
            <Position>
              <LatitudeDegrees>40.98549108020961284637451171875</LatitudeDegrees>
              <LongitudeDegrees>-5.66452377475798130035400390625</LongitudeDegrees>
            </Position>
            <AltitudeMeters>819.79998779296875</AltitudeMeters>
            <DistanceMeters>NAN</DistanceMeters>
          </Trackpoint>
          <Trackpoint>
            <Time>2019-10-06T11:19:41.000Z</Time>
            <Position>
              <LatitudeDegrees>40.98548747599124908447265625</LatitudeDegrees>
              <LongitudeDegrees>-5.66452209837734699249267578125</LongitudeDegrees>
            </Position>
            <AltitudeMeters>820</AltitudeMeters>
            <DistanceMeters>NAN</DistanceMeters>
          </Trackpoint>
          <Trackpoint>
            <Time>2019-10-06T11:19:44.000Z</Time>
            <Position>
              <LatitudeDegrees>40.98546258173882961273193359375</LatitudeDegrees>
              <LongitudeDegrees>-5.66452058963477611541748046875</LongitudeDegrees>
            </Position>
            <AltitudeMeters>819.79998779296875</AltitudeMeters>
            <DistanceMeters>NAN</DistanceMeters>
          </Trackpoint>
          <Trackpoint>
            <Time>2019-10-06T11:19:49.000Z</Time>
            <Position>
              <LatitudeDegrees>40.98538429476320743560791015625</LatitudeDegrees>
              <LongitudeDegrees>-5.66457842476665973663330078125</LongitudeDegrees>
            </Position>
            <AltitudeMeters>820</AltitudeMeters>
            <DistanceMeters>NAN</DistanceMeters>
          </Trackpoint>
          <Trackpoint>
            <Time>2019-10-06T11:19:52.000Z</Time>
            <Position>
              <LatitudeDegrees>40.9853330813348293304443359375</LatitudeDegrees>
              <LongitudeDegrees>-5.66448840312659740447998046875</LongitudeDegrees>
            </Position>
            <AltitudeMeters>820</AltitudeMeters>
            <DistanceMeters>NAN</DistanceMeters>
          </Trackpoint>
          <Trackpoint>
            <Time>2019-10-06T11:19:54.000Z</Time>
            <Position>
              <LatitudeDegrees>40.9852791018784046173095703125</LatitudeDegrees>
              <LongitudeDegrees>-5.66444523632526397705078125</LongitudeDegrees>
            </Position>
            <AltitudeMeters>820.20001220703125</AltitudeMeters>
            <DistanceMeters>NAN</DistanceMeters>
          </Trackpoint>
          <Trackpoint>
            <Time>2019-10-06T11:19:56.000Z</Time>
            <Position>
              <LatitudeDegrees>40.9852066822350025177001953125</LatitudeDegrees>
              <LongitudeDegrees>-5.6644350104033946990966796875</LongitudeDegrees>
            </Position>
            <AltitudeMeters>820.4000244140625</AltitudeMeters>
            <DistanceMeters>NAN</DistanceMeters>
          </Trackpoint>
          <Trackpoint>
            <Time>2019-10-06T11:20:05.000Z</Time>
            <Position>
              <LatitudeDegrees>40.9848422370851039886474609375</LatitudeDegrees>
              <LongitudeDegrees>-5.66436368040740489959716796875</LongitudeDegrees>
            </Position>
            <AltitudeMeters>820.20001220703125</AltitudeMeters>
            <DistanceMeters>NAN</DistanceMeters>
          </Trackpoint>
          <Trackpoint>
            <Time>2019-10-06T11:20:11.000Z</Time>
            <Position>
              <LatitudeDegrees>40.9845783747732639312744140625</LatitudeDegrees>
              <LongitudeDegrees>-5.66431456245481967926025390625</LongitudeDegrees>
            </Position>
            <AltitudeMeters>819.79998779296875</AltitudeMeters>
            <DistanceMeters>NAN</DistanceMeters>
          </Trackpoint>
          <Trackpoint>
            <Time>2019-10-06T11:20:12.000Z</Time>
            <Position>
              <LatitudeDegrees>40.98453353159129619598388671875</LatitudeDegrees>
              <LongitudeDegrees>-5.66430785693228244781494140625</LongitudeDegrees>
            </Position>
            <AltitudeMeters>820</AltitudeMeters>
            <DistanceMeters>NAN</DistanceMeters>
          </Trackpoint>
          <Trackpoint>
            <Time>2019-10-06T11:20:20.000Z</Time>
            <Position>
              <LatitudeDegrees>40.98415844142436981201171875</LatitudeDegrees>
              <LongitudeDegrees>-5.6642418913543224334716796875</LongitudeDegrees>
            </Position>
            <AltitudeMeters>819.20001220703125</AltitudeMeters>
            <DistanceMeters>NAN</DistanceMeters>
          </Trackpoint>
          <Trackpoint>
            <Time>2019-10-06T11:20:24.000Z</Time>
            <Position>
              <LatitudeDegrees>40.98393036983907222747802734375</LatitudeDegrees>
              <LongitudeDegrees>-5.66420392133295536041259765625</LongitudeDegrees>
            </Position>
            <AltitudeMeters>818</AltitudeMeters>
            <DistanceMeters>NAN</DistanceMeters>
          </Trackpoint>
          <Trackpoint>
            <Time>2019-10-06T11:20:27.000Z</Time>
            <Position>
              <LatitudeDegrees>40.983743369579315185546875</LatitudeDegrees>
              <LongitudeDegrees>-5.66416896879673004150390625</LongitudeDegrees>
            </Position>
            <AltitudeMeters>817</AltitudeMeters>
            <DistanceMeters>NAN</DistanceMeters>
          </Trackpoint>
          <Trackpoint>
            <Time>2019-10-06T11:20:31.000Z</Time>
            <Position>
              <LatitudeDegrees>40.98347540013492107391357421875</LatitudeDegrees>
              <LongitudeDegrees>-5.66411976702511310577392578125</LongitudeDegrees>
            </Position>
            <AltitudeMeters>815.79998779296875</AltitudeMeters>
            <DistanceMeters>NAN</DistanceMeters>
          </Trackpoint>
          <Trackpoint>
            <Time>2019-10-06T11:20:34.000Z</Time>
            <Position>
              <LatitudeDegrees>40.983258225023746490478515625</LatitudeDegrees>
              <LongitudeDegrees>-5.6640829704701900482177734375</LongitudeDegrees>
            </Position>
            <AltitudeMeters>814.79998779296875</AltitudeMeters>
            <DistanceMeters>NAN</DistanceMeters>
          </Trackpoint>
          <Trackpoint>
            <Time>2019-10-06T11:20:38.000Z</Time>
            <Position>
              <LatitudeDegrees>40.9829588234424591064453125</LatitudeDegrees>
              <LongitudeDegrees>-5.66402949392795562744140625</LongitudeDegrees>
            </Position>
            <AltitudeMeters>813.4000244140625</AltitudeMeters>
            <DistanceMeters>NAN</DistanceMeters>
          </Trackpoint>
          <Trackpoint>
            <Time>2019-10-06T11:20:39.000Z</Time>
            <Position>
              <LatitudeDegrees>40.98288145847618579864501953125</LatitudeDegrees>
              <LongitudeDegrees>-5.66401549614965915679931640625</LongitudeDegrees>
            </Position>
            <AltitudeMeters>812.4000244140625</AltitudeMeters>
            <DistanceMeters>NAN</DistanceMeters>
          </Trackpoint>
          <Trackpoint>
            <Time>2019-10-06T11:20:40.000Z</Time>
            <Position>
              <LatitudeDegrees>40.9828024171292781829833984375</LatitudeDegrees>
              <LongitudeDegrees>-5.6640014983713626861572265625</LongitudeDegrees>
            </Position>
            <AltitudeMeters>812.5999755859375</AltitudeMeters>
            <DistanceMeters>NAN</DistanceMeters>
          </Trackpoint>
          <Trackpoint>
            <Time>2019-10-06T11:20:46.000Z</Time>
            <Position>
              <LatitudeDegrees>40.98231383599340915679931640625</LatitudeDegrees>
              <LongitudeDegrees>-5.66391189582645893096923828125</LongitudeDegrees>
            </Position>
            <AltitudeMeters>811.20001220703125</AltitudeMeters>
            <DistanceMeters>NAN</DistanceMeters>
          </Trackpoint>
          <Trackpoint>
            <Time>2019-10-06T11:20:48.000Z</Time>
            <Position>
              <LatitudeDegrees>40.9821461141109466552734375</LatitudeDegrees>
              <LongitudeDegrees>-5.66388205625116825103759765625</LongitudeDegrees>
            </Position>
            <AltitudeMeters>811</AltitudeMeters>
            <DistanceMeters>NAN</DistanceMeters>
          </Trackpoint>
          <Trackpoint>
            <Time>2019-10-06T11:20:51.000Z</Time>
            <Position>
              <LatitudeDegrees>40.98189507611095905303955078125</LatitudeDegrees>
              <LongitudeDegrees>-5.6638392247259616851806640625</LongitudeDegrees>
            </Position>
            <AltitudeMeters>810.20001220703125</AltitudeMeters>
            <DistanceMeters>NAN</DistanceMeters>
          </Trackpoint>
          <Trackpoint>
            <Time>2019-10-06T11:20:53.000Z</Time>
            <Position>
              <LatitudeDegrees>40.98172165453433990478515625</LatitudeDegrees>
              <LongitudeDegrees>-5.66381315700709819793701171875</LongitudeDegrees>
            </Position>
            <AltitudeMeters>809</AltitudeMeters>
            <DistanceMeters>NAN</DistanceMeters>
          </Trackpoint>
          <Trackpoint>
            <Time>2019-10-06T11:20:56.000Z</Time>
            <Position>
              <LatitudeDegrees>40.9814579598605632781982421875</LatitudeDegrees>
              <LongitudeDegrees>-5.66377175040543079376220703125</LongitudeDegrees>
            </Position>
            <AltitudeMeters>807.79998779296875</AltitudeMeters>
            <DistanceMeters>NAN</DistanceMeters>
          </Trackpoint>
          <Trackpoint>
            <Time>2019-10-06T11:20:58.000Z</Time>
            <Position>
              <LatitudeDegrees>40.981290154159069061279296875</LatitudeDegrees>
              <LongitudeDegrees>-5.6637473590672016143798828125</LongitudeDegrees>
            </Position>
            <AltitudeMeters>807.4000244140625</AltitudeMeters>
            <DistanceMeters>NAN</DistanceMeters>
          </Trackpoint>
          <Trackpoint>
            <Time>2019-10-06T11:21:01.000Z</Time>
            <Position>
              <LatitudeDegrees>40.98104280419647693634033203125</LatitudeDegrees>
              <LongitudeDegrees>-5.663714669644832611083984375</LongitudeDegrees>
            </Position>
            <AltitudeMeters>806.79998779296875</AltitudeMeters>
            <DistanceMeters>NAN</DistanceMeters>
          </Trackpoint>
          <Trackpoint>
            <Time>2019-10-06T11:21:02.000Z</Time>
            <Position>
              <LatitudeDegrees>40.98096284084022045135498046875</LatitudeDegrees>
              <LongitudeDegrees>-5.66370218060910701751708984375</LongitudeDegrees>
            </Position>
            <AltitudeMeters>806.5999755859375</AltitudeMeters>
            <DistanceMeters>NAN</DistanceMeters>
          </Trackpoint>
          <Trackpoint>
            <Time>2019-10-06T11:21:03.000Z</Time>
            <Position>
              <LatitudeDegrees>40.980884134769439697265625</LatitudeDegrees>
              <LongitudeDegrees>-5.66369287669658660888671875</LongitudeDegrees>
            </Position>
            <AltitudeMeters>806.20001220703125</AltitudeMeters>
            <DistanceMeters>NAN</DistanceMeters>
          </Trackpoint>
          <Trackpoint>
            <Time>2019-10-06T11:21:05.000Z</Time>
            <Position>
              <LatitudeDegrees>40.9807357750833034515380859375</LatitudeDegrees>
              <LongitudeDegrees>-5.663671754300594329833984375</LongitudeDegrees>
            </Position>
            <AltitudeMeters>806</AltitudeMeters>
            <DistanceMeters>NAN</DistanceMeters>
          </Trackpoint>
          <Trackpoint>
            <Time>2019-10-06T11:21:07.000Z</Time>
            <Position>
              <LatitudeDegrees>40.9806046821177005767822265625</LatitudeDegrees>
              <LongitudeDegrees>-5.66365264356136322021484375</LongitudeDegrees>
            </Position>
            <AltitudeMeters>805.79998779296875</AltitudeMeters>
            <DistanceMeters>NAN</DistanceMeters>
          </Trackpoint>
          <Trackpoint>
            <Time>2019-10-06T11:21:08.000Z</Time>
            <Position>
              <LatitudeDegrees>40.9805439971387386322021484375</LatitudeDegrees>
              <LongitudeDegrees>-5.66364048980176448822021484375</LongitudeDegrees>
            </Position>
            <AltitudeMeters>805.5999755859375</AltitudeMeters>
            <DistanceMeters>NAN</DistanceMeters>
          </Trackpoint>
          <Trackpoint>
            <Time>2019-10-06T11:21:10.000Z</Time>
            <Position>
              <LatitudeDegrees>40.9804266504943370819091796875</LatitudeDegrees>
              <LongitudeDegrees>-5.66361601464450359344482421875</LongitudeDegrees>
            </Position>
            <AltitudeMeters>805.4000244140625</AltitudeMeters>
            <DistanceMeters>NAN</DistanceMeters>
          </Trackpoint>
          <Trackpoint>
            <Time>2019-10-06T11:21:13.000Z</Time>
            <Position>
              <LatitudeDegrees>40.980291701853275299072265625</LatitudeDegrees>
              <LongitudeDegrees>-5.6636015139520168304443359375</LongitudeDegrees>
            </Position>
            <AltitudeMeters>805</AltitudeMeters>
            <DistanceMeters>NAN</DistanceMeters>
          </Trackpoint>
          <Trackpoint>
            <Time>2019-10-06T11:21:16.000Z</Time>
            <Position>
              <LatitudeDegrees>40.98022975958883762359619140625</LatitudeDegrees>
              <LongitudeDegrees>-5.6635998375713825225830078125</LongitudeDegrees>
            </Position>
            <AltitudeMeters>805.4000244140625</AltitudeMeters>
            <DistanceMeters>NAN</DistanceMeters>
          </Trackpoint>
          <Trackpoint>
            <Time>2019-10-06T11:21:17.000Z</Time>
            <Position>
              <LatitudeDegrees>40.98022506572306156158447265625</LatitudeDegrees>
              <LongitudeDegrees>-5.66359899938106536865234375</LongitudeDegrees>
            </Position>
            <AltitudeMeters>805.79998779296875</AltitudeMeters>
            <DistanceMeters>NAN</DistanceMeters>
          </Trackpoint>
          <Trackpoint>
            <Time>2019-10-06T11:21:20.000Z</Time>
            <Position>
              <LatitudeDegrees>40.98023227415978908538818359375</LatitudeDegrees>
              <LongitudeDegrees>-5.66359925083816051483154296875</LongitudeDegrees>
            </Position>
            <AltitudeMeters>805.5999755859375</AltitudeMeters>
            <DistanceMeters>NAN</DistanceMeters>
          </Trackpoint>
          <Trackpoint>
            <Time>2019-10-06T11:21:22.000Z</Time>
            <Position>
              <LatitudeDegrees>40.98023227415978908538818359375</LatitudeDegrees>
              <LongitudeDegrees>-5.66359925083816051483154296875</LongitudeDegrees>
            </Position>
            <AltitudeMeters>805.5999755859375</AltitudeMeters>
            <DistanceMeters>NAN</DistanceMeters>
          </Trackpoint>
          <Trackpoint>
            <Time>2019-10-06T11:21:35.000Z</Time>
            <Position>
              <LatitudeDegrees>40.98023227415978908538818359375</LatitudeDegrees>
              <LongitudeDegrees>-5.66359925083816051483154296875</LongitudeDegrees>
            </Position>
            <AltitudeMeters>805.79998779296875</AltitudeMeters>
            <DistanceMeters>NAN</DistanceMeters>
          </Trackpoint>
          <Trackpoint>
            <Time>2019-10-06T11:21:42.000Z</Time>
            <Position>
              <LatitudeDegrees>40.98023227415978908538818359375</LatitudeDegrees>
              <LongitudeDegrees>-5.66359925083816051483154296875</LongitudeDegrees>
            </Position>
            <AltitudeMeters>805.4000244140625</AltitudeMeters>
            <DistanceMeters>NAN</DistanceMeters>
          </Trackpoint>
          <Trackpoint>
            <Time>2019-10-06T11:21:51.000Z</Time>
            <Position>
              <LatitudeDegrees>40.98023227415978908538818359375</LatitudeDegrees>
              <LongitudeDegrees>-5.66359925083816051483154296875</LongitudeDegrees>
            </Position>
            <AltitudeMeters>805.5999755859375</AltitudeMeters>
            <DistanceMeters>NAN</DistanceMeters>
          </Trackpoint>
          <Trackpoint>
            <Time>2019-10-06T11:21:53.000Z</Time>
            <Position>
              <LatitudeDegrees>40.98023227415978908538818359375</LatitudeDegrees>
              <LongitudeDegrees>-5.66359925083816051483154296875</LongitudeDegrees>
            </Position>
            <AltitudeMeters>805.4000244140625</AltitudeMeters>
            <DistanceMeters>NAN</DistanceMeters>
          </Trackpoint>
          <Trackpoint>
            <Time>2019-10-06T11:22:01.000Z</Time>
            <Position>
              <LatitudeDegrees>40.9802274964749813079833984375</LatitudeDegrees>
              <LongitudeDegrees>-5.6636048667132854461669921875</LongitudeDegrees>
            </Position>
            <AltitudeMeters>805.5999755859375</AltitudeMeters>
            <DistanceMeters>NAN</DistanceMeters>
          </Trackpoint>
          <Trackpoint>
            <Time>2019-10-06T11:22:13.000Z</Time>
            <Position>
              <LatitudeDegrees>40.9802274964749813079833984375</LatitudeDegrees>
              <LongitudeDegrees>-5.6636048667132854461669921875</LongitudeDegrees>
            </Position>
            <AltitudeMeters>805.5999755859375</AltitudeMeters>
            <DistanceMeters>NAN</DistanceMeters>
          </Trackpoint>
          <Trackpoint>
            <Time>2019-10-06T11:22:15.000Z</Time>
            <Position>
              <LatitudeDegrees>40.9802274964749813079833984375</LatitudeDegrees>
              <LongitudeDegrees>-5.6636048667132854461669921875</LongitudeDegrees>
            </Position>
            <AltitudeMeters>805.79998779296875</AltitudeMeters>
            <DistanceMeters>NAN</DistanceMeters>
          </Trackpoint>
          <Trackpoint>
            <Time>2019-10-06T11:22:19.000Z</Time>
            <Position>
              <LatitudeDegrees>40.9802274964749813079833984375</LatitudeDegrees>
              <LongitudeDegrees>-5.6636048667132854461669921875</LongitudeDegrees>
            </Position>
            <AltitudeMeters>806</AltitudeMeters>
            <DistanceMeters>NAN</DistanceMeters>
          </Trackpoint>
          <Trackpoint>
            <Time>2019-10-06T11:22:24.000Z</Time>
            <Position>
              <LatitudeDegrees>40.9802274964749813079833984375</LatitudeDegrees>
              <LongitudeDegrees>-5.6636048667132854461669921875</LongitudeDegrees>
            </Position>
            <AltitudeMeters>806</AltitudeMeters>
            <DistanceMeters>NAN</DistanceMeters>
          </Trackpoint>
          <Trackpoint>
            <Time>2019-10-06T11:22:28.000Z</Time>
            <Position>
              <LatitudeDegrees>40.9802274964749813079833984375</LatitudeDegrees>
              <LongitudeDegrees>-5.6636048667132854461669921875</LongitudeDegrees>
            </Position>
            <AltitudeMeters>805.79998779296875</AltitudeMeters>
            <DistanceMeters>NAN</DistanceMeters>
          </Trackpoint>
          <Trackpoint>
            <Time>2019-10-06T11:22:44.000Z</Time>
            <Position>
              <LatitudeDegrees>40.9802258200943470001220703125</LatitudeDegrees>
              <LongitudeDegrees>-5.66361065022647380828857421875</LongitudeDegrees>
            </Position>
            <AltitudeMeters>806</AltitudeMeters>
            <DistanceMeters>NAN</DistanceMeters>
          </Trackpoint>
          <Trackpoint>
            <Time>2019-10-06T11:22:46.000Z</Time>
            <Position>
              <LatitudeDegrees>40.9802258200943470001220703125</LatitudeDegrees>
              <LongitudeDegrees>-5.66361065022647380828857421875</LongitudeDegrees>
            </Position>
            <AltitudeMeters>806</AltitudeMeters>
            <DistanceMeters>NAN</DistanceMeters>
          </Trackpoint>
          <Trackpoint>
            <Time>2019-10-06T11:22:48.000Z</Time>
            <Position>
              <LatitudeDegrees>40.9802258200943470001220703125</LatitudeDegrees>
              <LongitudeDegrees>-5.66361065022647380828857421875</LongitudeDegrees>
            </Position>
            <AltitudeMeters>805.79998779296875</AltitudeMeters>
            <DistanceMeters>NAN</DistanceMeters>
          </Trackpoint>
          <Trackpoint>
            <Time>2019-10-06T11:22:57.000Z</Time>
            <Position>
              <LatitudeDegrees>40.9802258200943470001220703125</LatitudeDegrees>
              <LongitudeDegrees>-5.66361065022647380828857421875</LongitudeDegrees>
            </Position>
            <AltitudeMeters>806</AltitudeMeters>
            <DistanceMeters>NAN</DistanceMeters>
          </Trackpoint>
          <Trackpoint>
            <Time>2019-10-06T11:23:04.000Z</Time>
            <Position>
              <LatitudeDegrees>40.9802258200943470001220703125</LatitudeDegrees>
              <LongitudeDegrees>-5.66361065022647380828857421875</LongitudeDegrees>
            </Position>
            <AltitudeMeters>806</AltitudeMeters>
            <DistanceMeters>NAN</DistanceMeters>
          </Trackpoint>
          <Trackpoint>
            <Time>2019-10-06T11:23:08.000Z</Time>
            <Position>
              <LatitudeDegrees>40.9802258200943470001220703125</LatitudeDegrees>
              <LongitudeDegrees>-5.66361065022647380828857421875</LongitudeDegrees>
            </Position>
            <AltitudeMeters>806.20001220703125</AltitudeMeters>
            <DistanceMeters>NAN</DistanceMeters>
          </Trackpoint>
          <Trackpoint>
            <Time>2019-10-06T11:23:18.000Z</Time>
            <Position>
              <LatitudeDegrees>40.98021852783858776092529296875</LatitudeDegrees>
              <LongitudeDegrees>-5.66361769102513790130615234375</LongitudeDegrees>
            </Position>
            <AltitudeMeters>806.4000244140625</AltitudeMeters>
            <DistanceMeters>NAN</DistanceMeters>
          </Trackpoint>
          <Trackpoint>
            <Time>2019-10-06T11:23:28.000Z</Time>
            <Position>
              <LatitudeDegrees>40.98021852783858776092529296875</LatitudeDegrees>
              <LongitudeDegrees>-5.66361769102513790130615234375</LongitudeDegrees>
            </Position>
            <AltitudeMeters>806.20001220703125</AltitudeMeters>
            <DistanceMeters>NAN</DistanceMeters>
          </Trackpoint>
          <Trackpoint>
            <Time>2019-10-06T11:23:29.000Z</Time>
            <Position>
              <LatitudeDegrees>40.98021852783858776092529296875</LatitudeDegrees>
              <LongitudeDegrees>-5.66361769102513790130615234375</LongitudeDegrees>
            </Position>
            <AltitudeMeters>806.20001220703125</AltitudeMeters>
            <DistanceMeters>NAN</DistanceMeters>
          </Trackpoint>
          <Trackpoint>
            <Time>2019-10-06T11:23:37.000Z</Time>
            <Position>
              <LatitudeDegrees>40.98021852783858776092529296875</LatitudeDegrees>
              <LongitudeDegrees>-5.66361769102513790130615234375</LongitudeDegrees>
            </Position>
            <AltitudeMeters>806.20001220703125</AltitudeMeters>
            <DistanceMeters>NAN</DistanceMeters>
          </Trackpoint>
          <Trackpoint>
            <Time>2019-10-06T11:23:38.000Z</Time>
            <Position>
              <LatitudeDegrees>40.98021852783858776092529296875</LatitudeDegrees>
              <LongitudeDegrees>-5.66361769102513790130615234375</LongitudeDegrees>
            </Position>
            <AltitudeMeters>806.20001220703125</AltitudeMeters>
            <DistanceMeters>NAN</DistanceMeters>
          </Trackpoint>
          <Trackpoint>
            <Time>2019-10-06T11:23:44.000Z</Time>
            <Position>
              <LatitudeDegrees>40.98021852783858776092529296875</LatitudeDegrees>
              <LongitudeDegrees>-5.66361769102513790130615234375</LongitudeDegrees>
            </Position>
            <AltitudeMeters>806.20001220703125</AltitudeMeters>
            <DistanceMeters>NAN</DistanceMeters>
          </Trackpoint>
          <Trackpoint>
            <Time>2019-10-06T11:23:45.000Z</Time>
            <Position>
              <LatitudeDegrees>40.98021852783858776092529296875</LatitudeDegrees>
              <LongitudeDegrees>-5.66361769102513790130615234375</LongitudeDegrees>
            </Position>
            <AltitudeMeters>806</AltitudeMeters>
            <DistanceMeters>NAN</DistanceMeters>
          </Trackpoint>
          <Trackpoint>
            <Time>2019-10-06T11:23:51.000Z</Time>
            <Position>
              <LatitudeDegrees>40.98021852783858776092529296875</LatitudeDegrees>
              <LongitudeDegrees>-5.66361769102513790130615234375</LongitudeDegrees>
            </Position>
            <AltitudeMeters>805.79998779296875</AltitudeMeters>
            <DistanceMeters>NAN</DistanceMeters>
          </Trackpoint>
          <Trackpoint>
            <Time>2019-10-06T11:23:55.000Z</Time>
            <Position>
              <LatitudeDegrees>40.98021852783858776092529296875</LatitudeDegrees>
              <LongitudeDegrees>-5.66361769102513790130615234375</LongitudeDegrees>
            </Position>
            <AltitudeMeters>805.79998779296875</AltitudeMeters>
            <DistanceMeters>NAN</DistanceMeters>
          </Trackpoint>
          <Trackpoint>
            <Time>2019-10-06T11:24:01.000Z</Time>
            <Position>
              <LatitudeDegrees>40.98021299578249454498291015625</LatitudeDegrees>
              <LongitudeDegrees>-5.66362506709992885589599609375</LongitudeDegrees>
            </Position>
            <AltitudeMeters>806</AltitudeMeters>
            <DistanceMeters>NAN</DistanceMeters>
          </Trackpoint>
          <Trackpoint>
            <Time>2019-10-06T11:24:06.000Z</Time>
            <Position>
              <LatitudeDegrees>40.98021299578249454498291015625</LatitudeDegrees>
              <LongitudeDegrees>-5.66362506709992885589599609375</LongitudeDegrees>
            </Position>
            <AltitudeMeters>806.20001220703125</AltitudeMeters>
            <DistanceMeters>NAN</DistanceMeters>
          </Trackpoint>
          <Trackpoint>
            <Time>2019-10-06T11:24:08.000Z</Time>
            <Position>
              <LatitudeDegrees>40.98021299578249454498291015625</LatitudeDegrees>
              <LongitudeDegrees>-5.66362506709992885589599609375</LongitudeDegrees>
            </Position>
            <AltitudeMeters>806</AltitudeMeters>
            <DistanceMeters>NAN</DistanceMeters>
          </Trackpoint>
          <Trackpoint>
            <Time>2019-10-06T11:24:13.000Z</Time>
            <Position>
              <LatitudeDegrees>40.98021299578249454498291015625</LatitudeDegrees>
              <LongitudeDegrees>-5.66362506709992885589599609375</LongitudeDegrees>
            </Position>
            <AltitudeMeters>806</AltitudeMeters>
            <DistanceMeters>NAN</DistanceMeters>
          </Trackpoint>
          <Trackpoint>
            <Time>2019-10-06T11:24:20.000Z</Time>
            <Position>
              <LatitudeDegrees>40.98021299578249454498291015625</LatitudeDegrees>
              <LongitudeDegrees>-5.66362506709992885589599609375</LongitudeDegrees>
            </Position>
            <AltitudeMeters>806</AltitudeMeters>
            <DistanceMeters>NAN</DistanceMeters>
          </Trackpoint>
          <Trackpoint>
            <Time>2019-10-06T11:24:29.000Z</Time>
            <Position>
              <LatitudeDegrees>40.98021299578249454498291015625</LatitudeDegrees>
              <LongitudeDegrees>-5.66362506709992885589599609375</LongitudeDegrees>
            </Position>
            <AltitudeMeters>805.79998779296875</AltitudeMeters>
            <DistanceMeters>NAN</DistanceMeters>
          </Trackpoint>
          <Trackpoint>
            <Time>2019-10-06T11:24:32.000Z</Time>
            <Position>
              <LatitudeDegrees>40.98021299578249454498291015625</LatitudeDegrees>
              <LongitudeDegrees>-5.66362506709992885589599609375</LongitudeDegrees>
            </Position>
            <AltitudeMeters>806</AltitudeMeters>
            <DistanceMeters>NAN</DistanceMeters>
          </Trackpoint>
          <Trackpoint>
            <Time>2019-10-06T11:24:33.000Z</Time>
            <Position>
              <LatitudeDegrees>40.98021299578249454498291015625</LatitudeDegrees>
              <LongitudeDegrees>-5.66362506709992885589599609375</LongitudeDegrees>
            </Position>
            <AltitudeMeters>806</AltitudeMeters>
            <DistanceMeters>NAN</DistanceMeters>
          </Trackpoint>
          <Trackpoint>
            <Time>2019-10-06T11:24:34.000Z</Time>
            <Position>
              <LatitudeDegrees>40.98021299578249454498291015625</LatitudeDegrees>
              <LongitudeDegrees>-5.66362506709992885589599609375</LongitudeDegrees>
            </Position>
            <AltitudeMeters>806</AltitudeMeters>
            <DistanceMeters>NAN</DistanceMeters>
          </Trackpoint>
          <Trackpoint>
            <Time>2019-10-06T11:24:35.000Z</Time>
            <Position>
              <LatitudeDegrees>40.98021299578249454498291015625</LatitudeDegrees>
              <LongitudeDegrees>-5.66362506709992885589599609375</LongitudeDegrees>
            </Position>
            <AltitudeMeters>806</AltitudeMeters>
            <DistanceMeters>NAN</DistanceMeters>
          </Trackpoint>
          <Trackpoint>
            <Time>2019-10-06T11:24:36.000Z</Time>
            <Position>
              <LatitudeDegrees>40.98021299578249454498291015625</LatitudeDegrees>
              <LongitudeDegrees>-5.66362506709992885589599609375</LongitudeDegrees>
            </Position>
            <AltitudeMeters>806</AltitudeMeters>
            <DistanceMeters>NAN</DistanceMeters>
          </Trackpoint>
          <Trackpoint>
            <Time>2019-10-06T11:24:37.000Z</Time>
            <Position>
              <LatitudeDegrees>40.98021148703992366790771484375</LatitudeDegrees>
              <LongitudeDegrees>-5.6636345386505126953125</LongitudeDegrees>
            </Position>
            <AltitudeMeters>806</AltitudeMeters>
            <DistanceMeters>NAN</DistanceMeters>
          </Trackpoint>
          <Trackpoint>
            <Time>2019-10-06T11:24:39.000Z</Time>
            <Position>
              <LatitudeDegrees>40.98021148703992366790771484375</LatitudeDegrees>
              <LongitudeDegrees>-5.6636345386505126953125</LongitudeDegrees>
            </Position>
            <AltitudeMeters>805.79998779296875</AltitudeMeters>
            <DistanceMeters>NAN</DistanceMeters>
          </Trackpoint>
          <Trackpoint>
            <Time>2019-10-06T11:24:40.000Z</Time>
            <Position>
              <LatitudeDegrees>40.98021148703992366790771484375</LatitudeDegrees>
              <LongitudeDegrees>-5.6636345386505126953125</LongitudeDegrees>
            </Position>
            <AltitudeMeters>805.79998779296875</AltitudeMeters>
            <DistanceMeters>NAN</DistanceMeters>
          </Trackpoint>
          <Trackpoint>
            <Time>2019-10-06T11:24:49.000Z</Time>
            <Position>
              <LatitudeDegrees>40.98021148703992366790771484375</LatitudeDegrees>
              <LongitudeDegrees>-5.6636345386505126953125</LongitudeDegrees>
            </Position>
            <AltitudeMeters>806</AltitudeMeters>
            <DistanceMeters>NAN</DistanceMeters>
          </Trackpoint>
          <Trackpoint>
            <Time>2019-10-06T11:24:51.000Z</Time>
            <Position>
              <LatitudeDegrees>40.98021148703992366790771484375</LatitudeDegrees>
              <LongitudeDegrees>-5.6636345386505126953125</LongitudeDegrees>
            </Position>
            <AltitudeMeters>806</AltitudeMeters>
            <DistanceMeters>NAN</DistanceMeters>
          </Trackpoint>
          <Trackpoint>
            <Time>2019-10-06T11:24:54.000Z</Time>
            <Position>
              <LatitudeDegrees>40.98021148703992366790771484375</LatitudeDegrees>
              <LongitudeDegrees>-5.6636345386505126953125</LongitudeDegrees>
            </Position>
            <AltitudeMeters>806</AltitudeMeters>
            <DistanceMeters>NAN</DistanceMeters>
          </Trackpoint>
          <Trackpoint>
            <Time>2019-10-06T11:24:58.000Z</Time>
            <Position>
              <LatitudeDegrees>40.98021148703992366790771484375</LatitudeDegrees>
              <LongitudeDegrees>-5.6636345386505126953125</LongitudeDegrees>
            </Position>
            <AltitudeMeters>806</AltitudeMeters>
            <DistanceMeters>NAN</DistanceMeters>
          </Trackpoint>
          <Trackpoint>
            <Time>2019-10-06T11:25:03.000Z</Time>
            <Position>
              <LatitudeDegrees>40.98021148703992366790771484375</LatitudeDegrees>
              <LongitudeDegrees>-5.6636345386505126953125</LongitudeDegrees>
            </Position>
            <AltitudeMeters>805.79998779296875</AltitudeMeters>
            <DistanceMeters>NAN</DistanceMeters>
          </Trackpoint>
          <Trackpoint>
            <Time>2019-10-06T11:25:04.000Z</Time>
            <Position>
              <LatitudeDegrees>40.98021148703992366790771484375</LatitudeDegrees>
              <LongitudeDegrees>-5.6636345386505126953125</LongitudeDegrees>
            </Position>
            <AltitudeMeters>806</AltitudeMeters>
            <DistanceMeters>NAN</DistanceMeters>
          </Trackpoint>
          <Trackpoint>
            <Time>2019-10-06T11:25:09.000Z</Time>
            <Position>
              <LatitudeDegrees>40.98020126111805438995361328125</LatitudeDegrees>
              <LongitudeDegrees>-5.6636306829750537872314453125</LongitudeDegrees>
            </Position>
            <AltitudeMeters>805.79998779296875</AltitudeMeters>
            <DistanceMeters>NAN</DistanceMeters>
          </Trackpoint>
          <Trackpoint>
            <Time>2019-10-06T11:25:11.000Z</Time>
            <Position>
              <LatitudeDegrees>40.98016538657248020172119140625</LatitudeDegrees>
              <LongitudeDegrees>-5.66361215896904468536376953125</LongitudeDegrees>
            </Position>
            <AltitudeMeters>805.5999755859375</AltitudeMeters>
            <DistanceMeters>NAN</DistanceMeters>
          </Trackpoint>
          <Trackpoint>
            <Time>2019-10-06T11:25:16.000Z</Time>
            <Position>
              <LatitudeDegrees>40.98002658225595951080322265625</LatitudeDegrees>
              <LongitudeDegrees>-5.66357159055769443511962890625</LongitudeDegrees>
            </Position>
            <AltitudeMeters>804.79998779296875</AltitudeMeters>
            <DistanceMeters>NAN</DistanceMeters>
          </Trackpoint>
          <Trackpoint>
            <Time>2019-10-06T11:25:17.000Z</Time>
            <Position>
              <LatitudeDegrees>40.97999338991940021514892578125</LatitudeDegrees>
              <LongitudeDegrees>-5.6635634601116180419921875</LongitudeDegrees>
            </Position>
            <AltitudeMeters>804.5999755859375</AltitudeMeters>
            <DistanceMeters>NAN</DistanceMeters>
          </Trackpoint>
          <Trackpoint>
            <Time>2019-10-06T11:25:22.000Z</Time>
            <Position>
              <LatitudeDegrees>40.97980747930705547332763671875</LatitudeDegrees>
              <LongitudeDegrees>-5.6635046191513538360595703125</LongitudeDegrees>
            </Position>
            <AltitudeMeters>804.5999755859375</AltitudeMeters>
            <DistanceMeters>NAN</DistanceMeters>
          </Trackpoint>
          <Trackpoint>
            <Time>2019-10-06T11:25:25.000Z</Time>
            <Position>
              <LatitudeDegrees>40.97973472438752651214599609375</LatitudeDegrees>
              <LongitudeDegrees>-5.6634891964495182037353515625</LongitudeDegrees>
            </Position>
            <AltitudeMeters>804.20001220703125</AltitudeMeters>
            <DistanceMeters>NAN</DistanceMeters>
          </Trackpoint>
          <Trackpoint>
            <Time>2019-10-06T11:25:27.000Z</Time>
            <Position>
              <LatitudeDegrees>40.97969952039420604705810546875</LatitudeDegrees>
              <LongitudeDegrees>-5.6634841673076152801513671875</LongitudeDegrees>
            </Position>
            <AltitudeMeters>804</AltitudeMeters>
            <DistanceMeters>NAN</DistanceMeters>
          </Trackpoint>
          <Trackpoint>
            <Time>2019-10-06T11:25:33.000Z</Time>
            <Position>
              <LatitudeDegrees>40.979643277823925018310546875</LatitudeDegrees>
              <LongitudeDegrees>-5.663469918072223663330078125</LongitudeDegrees>
            </Position>
            <AltitudeMeters>804</AltitudeMeters>
            <DistanceMeters>NAN</DistanceMeters>
          </Trackpoint>
          <Trackpoint>
            <Time>2019-10-06T11:25:38.000Z</Time>
            <Position>
              <LatitudeDegrees>40.9796478040516376495361328125</LatitudeDegrees>
              <LongitudeDegrees>-5.66346983425319194793701171875</LongitudeDegrees>
            </Position>
            <AltitudeMeters>804</AltitudeMeters>
            <DistanceMeters>NAN</DistanceMeters>
          </Trackpoint>
          <Trackpoint>
            <Time>2019-10-06T11:25:42.000Z</Time>
            <Position>
              <LatitudeDegrees>40.9796478040516376495361328125</LatitudeDegrees>
              <LongitudeDegrees>-5.66346983425319194793701171875</LongitudeDegrees>
            </Position>
            <AltitudeMeters>803.79998779296875</AltitudeMeters>
            <DistanceMeters>NAN</DistanceMeters>
          </Trackpoint>
          <Trackpoint>
            <Time>2019-10-06T11:25:43.000Z</Time>
            <Position>
              <LatitudeDegrees>40.9796478040516376495361328125</LatitudeDegrees>
              <LongitudeDegrees>-5.66346983425319194793701171875</LongitudeDegrees>
            </Position>
            <AltitudeMeters>803.5999755859375</AltitudeMeters>
            <DistanceMeters>NAN</DistanceMeters>
          </Trackpoint>
          <Trackpoint>
            <Time>2019-10-06T11:25:45.000Z</Time>
            <Position>
              <LatitudeDegrees>40.9796478040516376495361328125</LatitudeDegrees>
              <LongitudeDegrees>-5.66346983425319194793701171875</LongitudeDegrees>
            </Position>
            <AltitudeMeters>803.79998779296875</AltitudeMeters>
            <DistanceMeters>NAN</DistanceMeters>
          </Trackpoint>
          <Trackpoint>
            <Time>2019-10-06T11:25:50.000Z</Time>
            <Position>
              <LatitudeDegrees>40.9796478040516376495361328125</LatitudeDegrees>
              <LongitudeDegrees>-5.66346983425319194793701171875</LongitudeDegrees>
            </Position>
            <AltitudeMeters>804</AltitudeMeters>
            <DistanceMeters>NAN</DistanceMeters>
          </Trackpoint>
          <Trackpoint>
            <Time>2019-10-06T11:25:54.000Z</Time>
            <Position>
              <LatitudeDegrees>40.9796478040516376495361328125</LatitudeDegrees>
              <LongitudeDegrees>-5.66346983425319194793701171875</LongitudeDegrees>
            </Position>
            <AltitudeMeters>803.79998779296875</AltitudeMeters>
            <DistanceMeters>NAN</DistanceMeters>
          </Trackpoint>
          <Trackpoint>
            <Time>2019-10-06T11:26:00.000Z</Time>
            <Position>
              <LatitudeDegrees>40.9796478040516376495361328125</LatitudeDegrees>
              <LongitudeDegrees>-5.66346983425319194793701171875</LongitudeDegrees>
            </Position>
            <AltitudeMeters>804</AltitudeMeters>
            <DistanceMeters>NAN</DistanceMeters>
          </Trackpoint>
          <Trackpoint>
            <Time>2019-10-06T11:26:06.000Z</Time>
            <Position>
              <LatitudeDegrees>40.9796478040516376495361328125</LatitudeDegrees>
              <LongitudeDegrees>-5.66346983425319194793701171875</LongitudeDegrees>
            </Position>
            <AltitudeMeters>804.20001220703125</AltitudeMeters>
            <DistanceMeters>NAN</DistanceMeters>
          </Trackpoint>
          <Trackpoint>
            <Time>2019-10-06T11:26:14.000Z</Time>
            <Position>
              <LatitudeDegrees>40.9795899689197540283203125</LatitudeDegrees>
              <LongitudeDegrees>-5.66346195526421070098876953125</LongitudeDegrees>
            </Position>
            <AltitudeMeters>804.20001220703125</AltitudeMeters>
            <DistanceMeters>NAN</DistanceMeters>
          </Trackpoint>
          <Trackpoint>
            <Time>2019-10-06T11:26:18.000Z</Time>
            <Position>
              <LatitudeDegrees>40.97943230532109737396240234375</LatitudeDegrees>
              <LongitudeDegrees>-5.6634325347840785980224609375</LongitudeDegrees>
            </Position>
            <AltitudeMeters>803</AltitudeMeters>
            <DistanceMeters>NAN</DistanceMeters>
          </Trackpoint>
          <Trackpoint>
            <Time>2019-10-06T11:26:21.000Z</Time>
            <Position>
              <LatitudeDegrees>40.9792868793010711669921875</LatitudeDegrees>
              <LongitudeDegrees>-5.6634053774178028106689453125</LongitudeDegrees>
            </Position>
            <AltitudeMeters>802.4000244140625</AltitudeMeters>
            <DistanceMeters>NAN</DistanceMeters>
          </Trackpoint>
          <Trackpoint>
            <Time>2019-10-06T11:26:24.000Z</Time>
            <Position>
              <LatitudeDegrees>40.9791200794279575347900390625</LatitudeDegrees>
              <LongitudeDegrees>-5.66338299773633480072021484375</LongitudeDegrees>
            </Position>
            <AltitudeMeters>802</AltitudeMeters>
            <DistanceMeters>NAN</DistanceMeters>
          </Trackpoint>
          <Trackpoint>
            <Time>2019-10-06T11:26:25.000Z</Time>
            <Position>
              <LatitudeDegrees>40.97906182520091533660888671875</LatitudeDegrees>
              <LongitudeDegrees>-5.6633738614618778228759765625</LongitudeDegrees>
            </Position>
            <AltitudeMeters>801.4000244140625</AltitudeMeters>
            <DistanceMeters>NAN</DistanceMeters>
          </Trackpoint>
          <Trackpoint>
            <Time>2019-10-06T11:26:31.000Z</Time>
            <Position>
              <LatitudeDegrees>40.97867860458791255950927734375</LatitudeDegrees>
              <LongitudeDegrees>-5.66329901106655597686767578125</LongitudeDegrees>
            </Position>
            <AltitudeMeters>799.5999755859375</AltitudeMeters>
            <DistanceMeters>NAN</DistanceMeters>
          </Trackpoint>
          <Trackpoint>
            <Time>2019-10-06T11:26:32.000Z</Time>
            <Position>
              <LatitudeDegrees>40.97861020825803279876708984375</LatitudeDegrees>
              <LongitudeDegrees>-5.66328560002148151397705078125</LongitudeDegrees>
            </Position>
            <AltitudeMeters>799.79998779296875</AltitudeMeters>
            <DistanceMeters>NAN</DistanceMeters>
          </Trackpoint>
          <Trackpoint>
            <Time>2019-10-06T11:26:37.000Z</Time>
            <Position>
              <LatitudeDegrees>40.97825414501130580902099609375</LatitudeDegrees>
              <LongitudeDegrees>-5.66322055645287036895751953125</LongitudeDegrees>
            </Position>
            <AltitudeMeters>798.4000244140625</AltitudeMeters>
            <DistanceMeters>NAN</DistanceMeters>
          </Trackpoint>
          <Trackpoint>
            <Time>2019-10-06T11:26:39.000Z</Time>
            <Position>
              <LatitudeDegrees>40.97810394130647182464599609375</LatitudeDegrees>
              <LongitudeDegrees>-5.6631887890398502349853515625</LongitudeDegrees>
            </Position>
            <AltitudeMeters>797.4000244140625</AltitudeMeters>
            <DistanceMeters>NAN</DistanceMeters>
          </Trackpoint>
          <Trackpoint>
            <Time>2019-10-06T11:26:41.000Z</Time>
            <Position>
              <LatitudeDegrees>40.97794686444103717803955078125</LatitudeDegrees>
              <LongitudeDegrees>-5.66316322423517704010009765625</LongitudeDegrees>
            </Position>
            <AltitudeMeters>797.5999755859375</AltitudeMeters>
            <DistanceMeters>NAN</DistanceMeters>
          </Trackpoint>
          <Trackpoint>
            <Time>2019-10-06T11:26:43.000Z</Time>
            <Position>
              <LatitudeDegrees>40.9777880273759365081787109375</LatitudeDegrees>
              <LongitudeDegrees>-5.6631327979266643524169921875</LongitudeDegrees>
            </Position>
            <AltitudeMeters>797.20001220703125</AltitudeMeters>
            <DistanceMeters>NAN</DistanceMeters>
          </Trackpoint>
          <Trackpoint>
            <Time>2019-10-06T11:26:46.000Z</Time>
            <Position>
              <LatitudeDegrees>40.97754252143204212188720703125</LatitudeDegrees>
              <LongitudeDegrees>-5.66309030167758464813232421875</LongitudeDegrees>
            </Position>
            <AltitudeMeters>796.4000244140625</AltitudeMeters>
            <DistanceMeters>NAN</DistanceMeters>
          </Trackpoint>
          <Trackpoint>
            <Time>2019-10-06T11:26:50.000Z</Time>
            <Position>
              <LatitudeDegrees>40.9772106818854808807373046875</LatitudeDegrees>
              <LongitudeDegrees>-5.6630312092602252960205078125</LongitudeDegrees>
            </Position>
            <AltitudeMeters>795</AltitudeMeters>
            <DistanceMeters>NAN</DistanceMeters>
          </Trackpoint>
          <Trackpoint>
            <Time>2019-10-06T11:26:51.000Z</Time>
            <Position>
              <LatitudeDegrees>40.97713063471019268035888671875</LatitudeDegrees>
              <LongitudeDegrees>-5.66301754675805568695068359375</LongitudeDegrees>
            </Position>
            <AltitudeMeters>794.20001220703125</AltitudeMeters>
            <DistanceMeters>NAN</DistanceMeters>
          </Trackpoint>
          <Trackpoint>
            <Time>2019-10-06T11:26:52.000Z</Time>
            <Position>
              <LatitudeDegrees>40.9770517610013484954833984375</LatitudeDegrees>
              <LongitudeDegrees>-5.663002543151378631591796875</LongitudeDegrees>
            </Position>
            <AltitudeMeters>793.79998779296875</AltitudeMeters>
            <DistanceMeters>NAN</DistanceMeters>
          </Trackpoint>
          <Trackpoint>
            <Time>2019-10-06T11:26:53.000Z</Time>
            <Position>
              <LatitudeDegrees>40.97697816789150238037109375</LatitudeDegrees>
              <LongitudeDegrees>-5.66298988647758960723876953125</LongitudeDegrees>
            </Position>
            <AltitudeMeters>793.79998779296875</AltitudeMeters>
            <DistanceMeters>NAN</DistanceMeters>
          </Trackpoint>
          <Trackpoint>
            <Time>2019-10-06T11:26:54.000Z</Time>
            <Position>
              <LatitudeDegrees>40.976914130151271820068359375</LatitudeDegrees>
              <LongitudeDegrees>-5.6629836000502109527587890625</LongitudeDegrees>
            </Position>
            <AltitudeMeters>794.4000244140625</AltitudeMeters>
            <DistanceMeters>NAN</DistanceMeters>
          </Trackpoint>
          <Trackpoint>
            <Time>2019-10-06T11:26:56.000Z</Time>
            <Position>
              <LatitudeDegrees>40.9768083505332469940185546875</LatitudeDegrees>
              <LongitudeDegrees>-5.66297060810029506683349609375</LongitudeDegrees>
            </Position>
            <AltitudeMeters>795</AltitudeMeters>
            <DistanceMeters>NAN</DistanceMeters>
          </Trackpoint>
          <Trackpoint>
            <Time>2019-10-06T11:26:58.000Z</Time>
            <Position>
              <LatitudeDegrees>40.97672813571989536285400390625</LatitudeDegrees>
              <LongitudeDegrees>-5.6629561074078083038330078125</LongitudeDegrees>
            </Position>
            <AltitudeMeters>795</AltitudeMeters>
            <DistanceMeters>NAN</DistanceMeters>
          </Trackpoint>
          <Trackpoint>
            <Time>2019-10-06T11:27:00.000Z</Time>
            <Position>
              <LatitudeDegrees>40.97666024230420589447021484375</LatitudeDegrees>
              <LongitudeDegrees>-5.66295853815972805023193359375</LongitudeDegrees>
            </Position>
            <AltitudeMeters>795</AltitudeMeters>
            <DistanceMeters>NAN</DistanceMeters>
          </Trackpoint>
          <Trackpoint>
            <Time>2019-10-06T11:27:05.000Z</Time>
            <Position>
              <LatitudeDegrees>40.97653183154761791229248046875</LatitudeDegrees>
              <LongitudeDegrees>-5.66294764168560504913330078125</LongitudeDegrees>
            </Position>
            <AltitudeMeters>795</AltitudeMeters>
            <DistanceMeters>NAN</DistanceMeters>
          </Trackpoint>
          <Trackpoint>
            <Time>2019-10-06T11:27:09.000Z</Time>
            <Position>
              <LatitudeDegrees>40.976482294499874114990234375</LatitudeDegrees>
              <LongitudeDegrees>-5.6629440374672412872314453125</LongitudeDegrees>
            </Position>
            <AltitudeMeters>795</AltitudeMeters>
            <DistanceMeters>NAN</DistanceMeters>
          </Trackpoint>
          <Trackpoint>
            <Time>2019-10-06T11:27:10.000Z</Time>
            <Position>
              <LatitudeDegrees>40.976472236216068267822265625</LatitudeDegrees>
              <LongitudeDegrees>-5.6629457138478755950927734375</LongitudeDegrees>
            </Position>
            <AltitudeMeters>794.79998779296875</AltitudeMeters>
            <DistanceMeters>NAN</DistanceMeters>
          </Trackpoint>
          <Trackpoint>
            <Time>2019-10-06T11:27:13.000Z</Time>
            <Position>
              <LatitudeDegrees>40.976468883454799652099609375</LatitudeDegrees>
              <LongitudeDegrees>-5.6629447080194950103759765625</LongitudeDegrees>
            </Position>
            <AltitudeMeters>794.79998779296875</AltitudeMeters>
            <DistanceMeters>NAN</DistanceMeters>
          </Trackpoint>
          <Trackpoint>
            <Time>2019-10-06T11:27:16.000Z</Time>
            <Position>
              <LatitudeDegrees>40.97647164948284626007080078125</LatitudeDegrees>
              <LongitudeDegrees>-5.66294596530497074127197265625</LongitudeDegrees>
            </Position>
            <AltitudeMeters>794.5999755859375</AltitudeMeters>
            <DistanceMeters>NAN</DistanceMeters>
          </Trackpoint>
          <Trackpoint>
            <Time>2019-10-06T11:27:28.000Z</Time>
            <Position>
              <LatitudeDegrees>40.976459495723247528076171875</LatitudeDegrees>
              <LongitudeDegrees>-5.6629450432956218719482421875</LongitudeDegrees>
            </Position>
            <AltitudeMeters>794.5999755859375</AltitudeMeters>
            <DistanceMeters>NAN</DistanceMeters>
          </Trackpoint>
          <Trackpoint>
            <Time>2019-10-06T11:27:29.000Z</Time>
            <Position>
              <LatitudeDegrees>40.97644113935530185699462890625</LatitudeDegrees>
              <LongitudeDegrees>-5.66293959505856037139892578125</LongitudeDegrees>
            </Position>
            <AltitudeMeters>794.5999755859375</AltitudeMeters>
            <DistanceMeters>NAN</DistanceMeters>
          </Trackpoint>
          <Trackpoint>
            <Time>2019-10-06T11:27:31.000Z</Time>
            <Position>
              <LatitudeDegrees>40.9763822145760059356689453125</LatitudeDegrees>
              <LongitudeDegrees>-5.66292970441281795501708984375</LongitudeDegrees>
            </Position>
            <AltitudeMeters>794.20001220703125</AltitudeMeters>
            <DistanceMeters>NAN</DistanceMeters>
          </Trackpoint>
          <Trackpoint>
            <Time>2019-10-06T11:27:33.000Z</Time>
            <Position>
              <LatitudeDegrees>40.97630669362843036651611328125</LatitudeDegrees>
              <LongitudeDegrees>-5.6629108451306819915771484375</LongitudeDegrees>
            </Position>
            <AltitudeMeters>794.20001220703125</AltitudeMeters>
            <DistanceMeters>NAN</DistanceMeters>
          </Trackpoint>
          <Trackpoint>
            <Time>2019-10-06T11:27:35.000Z</Time>
            <Position>
              <LatitudeDegrees>40.97621918655931949615478515625</LatitudeDegrees>
              <LongitudeDegrees>-5.66289450041949748992919921875</LongitudeDegrees>
            </Position>
            <AltitudeMeters>794</AltitudeMeters>
            <DistanceMeters>NAN</DistanceMeters>
          </Trackpoint>
          <Trackpoint>
            <Time>2019-10-06T11:27:37.000Z</Time>
            <Position>
              <LatitudeDegrees>40.97611843608319759368896484375</LatitudeDegrees>
              <LongitudeDegrees>-5.66287136636674404144287109375</LongitudeDegrees>
            </Position>
            <AltitudeMeters>793.5999755859375</AltitudeMeters>
            <DistanceMeters>NAN</DistanceMeters>
          </Trackpoint>
          <Trackpoint>
            <Time>2019-10-06T11:27:38.000Z</Time>
            <Position>
              <LatitudeDegrees>40.97606395371258258819580078125</LatitudeDegrees>
              <LongitudeDegrees>-5.6628620624542236328125</LongitudeDegrees>
            </Position>
            <AltitudeMeters>793.20001220703125</AltitudeMeters>
            <DistanceMeters>NAN</DistanceMeters>
          </Trackpoint>
          <Trackpoint>
            <Time>2019-10-06T11:27:42.000Z</Time>
            <Position>
              <LatitudeDegrees>40.97584434784948825836181640625</LatitudeDegrees>
              <LongitudeDegrees>-5.6628193147480487823486328125</LongitudeDegrees>
            </Position>
            <AltitudeMeters>792.5999755859375</AltitudeMeters>
            <DistanceMeters>NAN</DistanceMeters>
          </Trackpoint>
          <Trackpoint>
            <Time>2019-10-06T11:27:43.000Z</Time>
            <Position>
              <LatitudeDegrees>40.97579120658338069915771484375</LatitudeDegrees>
              <LongitudeDegrees>-5.6628243438899517059326171875</LongitudeDegrees>
            </Position>
            <AltitudeMeters>792.5999755859375</AltitudeMeters>
            <DistanceMeters>NAN</DistanceMeters>
          </Trackpoint>
          <Trackpoint>
            <Time>2019-10-06T11:27:45.000Z</Time>
            <Position>
              <LatitudeDegrees>40.97567872144281864166259765625</LatitudeDegrees>
              <LongitudeDegrees>-5.6628032214939594268798828125</LongitudeDegrees>
            </Position>
            <AltitudeMeters>792.5999755859375</AltitudeMeters>
            <DistanceMeters>NAN</DistanceMeters>
          </Trackpoint>
          <Trackpoint>
            <Time>2019-10-06T11:27:51.000Z</Time>
            <Position>
              <LatitudeDegrees>40.9753388352692127227783203125</LatitudeDegrees>
              <LongitudeDegrees>-5.662786960601806640625</LongitudeDegrees>
            </Position>
            <AltitudeMeters>792.4000244140625</AltitudeMeters>
            <DistanceMeters>NAN</DistanceMeters>
          </Trackpoint>
          <Trackpoint>
            <Time>2019-10-06T11:27:53.000Z</Time>
            <Position>
              <LatitudeDegrees>40.9752208180725574493408203125</LatitudeDegrees>
              <LongitudeDegrees>-5.6627928279340267181396484375</LongitudeDegrees>
            </Position>
            <AltitudeMeters>792.4000244140625</AltitudeMeters>
            <DistanceMeters>NAN</DistanceMeters>
          </Trackpoint>
          <Trackpoint>
            <Time>2019-10-06T11:28:01.000Z</Time>
            <Position>
              <LatitudeDegrees>40.97474631853401660919189453125</LatitudeDegrees>
              <LongitudeDegrees>-5.6628498248755931854248046875</LongitudeDegrees>
            </Position>
            <AltitudeMeters>791.5999755859375</AltitudeMeters>
            <DistanceMeters>NAN</DistanceMeters>
          </Trackpoint>
          <Trackpoint>
            <Time>2019-10-06T11:28:02.000Z</Time>
            <Position>
              <LatitudeDegrees>40.97468697465956211090087890625</LatitudeDegrees>
              <LongitudeDegrees>-5.662857703864574432373046875</LongitudeDegrees>
            </Position>
            <AltitudeMeters>791.20001220703125</AltitudeMeters>
            <DistanceMeters>NAN</DistanceMeters>
          </Trackpoint>
          <Trackpoint>
            <Time>2019-10-06T11:28:04.000Z</Time>
            <Position>
              <LatitudeDegrees>40.97457029856741428375244140625</LatitudeDegrees>
              <LongitudeDegrees>-5.66287086345255374908447265625</LongitudeDegrees>
            </Position>
            <AltitudeMeters>790.5999755859375</AltitudeMeters>
            <DistanceMeters>NAN</DistanceMeters>
          </Trackpoint>
          <Trackpoint>
            <Time>2019-10-06T11:28:13.000Z</Time>
            <Position>
              <LatitudeDegrees>40.97404190339148044586181640625</LatitudeDegrees>
              <LongitudeDegrees>-5.66292718984186649322509765625</LongitudeDegrees>
            </Position>
            <AltitudeMeters>790.5999755859375</AltitudeMeters>
            <DistanceMeters>NAN</DistanceMeters>
          </Trackpoint>
          <Trackpoint>
            <Time>2019-10-06T11:28:17.000Z</Time>
            <Position>
              <LatitudeDegrees>40.97377854399383068084716796875</LatitudeDegrees>
              <LongitudeDegrees>-5.66296599805355072021484375</LongitudeDegrees>
            </Position>
            <AltitudeMeters>790</AltitudeMeters>
            <DistanceMeters>NAN</DistanceMeters>
          </Trackpoint>
          <Trackpoint>
            <Time>2019-10-06T11:28:22.000Z</Time>
            <Position>
              <LatitudeDegrees>40.97343170084059238433837890625</LatitudeDegrees>
              <LongitudeDegrees>-5.6630214862525463104248046875</LongitudeDegrees>
            </Position>
            <AltitudeMeters>789</AltitudeMeters>
            <DistanceMeters>NAN</DistanceMeters>
          </Trackpoint>
          <Trackpoint>
            <Time>2019-10-06T11:28:28.000Z</Time>
            <Position>
              <LatitudeDegrees>40.97305417992174625396728515625</LatitudeDegrees>
              <LongitudeDegrees>-5.66308544017374515533447265625</LongitudeDegrees>
            </Position>
            <AltitudeMeters>789.20001220703125</AltitudeMeters>
            <DistanceMeters>NAN</DistanceMeters>
          </Trackpoint>
          <Trackpoint>
            <Time>2019-10-06T11:28:32.000Z</Time>
            <Position>
              <LatitudeDegrees>40.97294420935213565826416015625</LatitudeDegrees>
              <LongitudeDegrees>-5.663108490407466888427734375</LongitudeDegrees>
            </Position>
            <AltitudeMeters>789.4000244140625</AltitudeMeters>
            <DistanceMeters>NAN</DistanceMeters>
          </Trackpoint>
          <Trackpoint>
            <Time>2019-10-06T11:28:36.000Z</Time>
            <Position>
              <LatitudeDegrees>40.9729030542075634002685546875</LatitudeDegrees>
              <LongitudeDegrees>-5.66311754286289215087890625</LongitudeDegrees>
            </Position>
            <AltitudeMeters>789.20001220703125</AltitudeMeters>
            <DistanceMeters>NAN</DistanceMeters>
          </Trackpoint>
          <Trackpoint>
            <Time>2019-10-06T11:28:37.000Z</Time>
            <Position>
              <LatitudeDegrees>40.9729114361107349395751953125</LatitudeDegrees>
              <LongitudeDegrees>-5.663116872310638427734375</LongitudeDegrees>
            </Position>
            <AltitudeMeters>789.20001220703125</AltitudeMeters>
            <DistanceMeters>NAN</DistanceMeters>
          </Trackpoint>
          <Trackpoint>
            <Time>2019-10-06T11:28:45.000Z</Time>
            <Position>
              <LatitudeDegrees>40.9729074127972126007080078125</LatitudeDegrees>
              <LongitudeDegrees>-5.66311745904386043548583984375</LongitudeDegrees>
            </Position>
            <AltitudeMeters>789.4000244140625</AltitudeMeters>
            <DistanceMeters>NAN</DistanceMeters>
          </Trackpoint>
          <Trackpoint>
            <Time>2019-10-06T11:28:47.000Z</Time>
            <Position>
              <LatitudeDegrees>40.9729074127972126007080078125</LatitudeDegrees>
              <LongitudeDegrees>-5.66311745904386043548583984375</LongitudeDegrees>
            </Position>
            <AltitudeMeters>789.4000244140625</AltitudeMeters>
            <DistanceMeters>NAN</DistanceMeters>
          </Trackpoint>
          <Trackpoint>
            <Time>2019-10-06T11:28:49.000Z</Time>
            <Position>
              <LatitudeDegrees>40.9729074127972126007080078125</LatitudeDegrees>
              <LongitudeDegrees>-5.66311745904386043548583984375</LongitudeDegrees>
            </Position>
            <AltitudeMeters>789</AltitudeMeters>
            <DistanceMeters>NAN</DistanceMeters>
          </Trackpoint>
          <Trackpoint>
            <Time>2019-10-06T11:28:58.000Z</Time>
            <Position>
              <LatitudeDegrees>40.9729074127972126007080078125</LatitudeDegrees>
              <LongitudeDegrees>-5.66311745904386043548583984375</LongitudeDegrees>
            </Position>
            <AltitudeMeters>789.5999755859375</AltitudeMeters>
            <DistanceMeters>NAN</DistanceMeters>
          </Trackpoint>
          <Trackpoint>
            <Time>2019-10-06T11:28:59.000Z</Time>
            <Position>
              <LatitudeDegrees>40.9729074127972126007080078125</LatitudeDegrees>
              <LongitudeDegrees>-5.66311745904386043548583984375</LongitudeDegrees>
            </Position>
            <AltitudeMeters>789.4000244140625</AltitudeMeters>
            <DistanceMeters>NAN</DistanceMeters>
          </Trackpoint>
          <Trackpoint>
            <Time>2019-10-06T11:29:00.000Z</Time>
            <Position>
              <LatitudeDegrees>40.9729074127972126007080078125</LatitudeDegrees>
              <LongitudeDegrees>-5.66311745904386043548583984375</LongitudeDegrees>
            </Position>
            <AltitudeMeters>789.20001220703125</AltitudeMeters>
            <DistanceMeters>NAN</DistanceMeters>
          </Trackpoint>
          <Trackpoint>
            <Time>2019-10-06T11:29:03.000Z</Time>
            <Position>
              <LatitudeDegrees>40.9729074127972126007080078125</LatitudeDegrees>
              <LongitudeDegrees>-5.66311745904386043548583984375</LongitudeDegrees>
            </Position>
            <AltitudeMeters>789.20001220703125</AltitudeMeters>
            <DistanceMeters>NAN</DistanceMeters>
          </Trackpoint>
          <Trackpoint>
            <Time>2019-10-06T11:29:05.000Z</Time>
            <Position>
              <LatitudeDegrees>40.9729074127972126007080078125</LatitudeDegrees>
              <LongitudeDegrees>-5.66311745904386043548583984375</LongitudeDegrees>
            </Position>
            <AltitudeMeters>789.4000244140625</AltitudeMeters>
            <DistanceMeters>NAN</DistanceMeters>
          </Trackpoint>
          <Trackpoint>
            <Time>2019-10-06T11:29:07.000Z</Time>
            <Position>
              <LatitudeDegrees>40.9729074127972126007080078125</LatitudeDegrees>
              <LongitudeDegrees>-5.66311745904386043548583984375</LongitudeDegrees>
            </Position>
            <AltitudeMeters>789.4000244140625</AltitudeMeters>
            <DistanceMeters>NAN</DistanceMeters>
          </Trackpoint>
          <Trackpoint>
            <Time>2019-10-06T11:29:09.000Z</Time>
            <Position>
              <LatitudeDegrees>40.9729074127972126007080078125</LatitudeDegrees>
              <LongitudeDegrees>-5.66311745904386043548583984375</LongitudeDegrees>
            </Position>
            <AltitudeMeters>789.4000244140625</AltitudeMeters>
            <DistanceMeters>NAN</DistanceMeters>
          </Trackpoint>
          <Trackpoint>
            <Time>2019-10-06T11:29:16.000Z</Time>
            <Position>
              <LatitudeDegrees>40.97290280275046825408935546875</LatitudeDegrees>
              <LongitudeDegrees>-5.6631270982325077056884765625</LongitudeDegrees>
            </Position>
            <AltitudeMeters>789.4000244140625</AltitudeMeters>
            <DistanceMeters>NAN</DistanceMeters>
          </Trackpoint>
          <Trackpoint>
            <Time>2019-10-06T11:29:18.000Z</Time>
            <Position>
              <LatitudeDegrees>40.97290280275046825408935546875</LatitudeDegrees>
              <LongitudeDegrees>-5.6631270982325077056884765625</LongitudeDegrees>
            </Position>
            <AltitudeMeters>789.20001220703125</AltitudeMeters>
            <DistanceMeters>NAN</DistanceMeters>
          </Trackpoint>
          <Trackpoint>
            <Time>2019-10-06T11:29:22.000Z</Time>
            <Position>
              <LatitudeDegrees>40.97289307974278926849365234375</LatitudeDegrees>
              <LongitudeDegrees>-5.663129277527332305908203125</LongitudeDegrees>
            </Position>
            <AltitudeMeters>789.4000244140625</AltitudeMeters>
            <DistanceMeters>NAN</DistanceMeters>
          </Trackpoint>
          <Trackpoint>
            <Time>2019-10-06T11:29:23.000Z</Time>
            <Position>
              <LatitudeDegrees>40.972861312329769134521484375</LatitudeDegrees>
              <LongitudeDegrees>-5.663137324154376983642578125</LongitudeDegrees>
            </Position>
            <AltitudeMeters>789.20001220703125</AltitudeMeters>
            <DistanceMeters>NAN</DistanceMeters>
          </Trackpoint>
          <Trackpoint>
            <Time>2019-10-06T11:29:27.000Z</Time>
            <Position>
              <LatitudeDegrees>40.9727169759571552276611328125</LatitudeDegrees>
              <LongitudeDegrees>-5.66316037438809871673583984375</LongitudeDegrees>
            </Position>
            <AltitudeMeters>788.79998779296875</AltitudeMeters>
            <DistanceMeters>NAN</DistanceMeters>
          </Trackpoint>
          <Trackpoint>
            <Time>2019-10-06T11:29:28.000Z</Time>
            <Position>
              <LatitudeDegrees>40.9726720489561557769775390625</LatitudeDegrees>
              <LongitudeDegrees>-5.66318191587924957275390625</LongitudeDegrees>
            </Position>
            <AltitudeMeters>788.5999755859375</AltitudeMeters>
            <DistanceMeters>NAN</DistanceMeters>
          </Trackpoint>
          <Trackpoint>
            <Time>2019-10-06T11:29:30.000Z</Time>
            <Position>
              <LatitudeDegrees>40.97259233705699443817138671875</LatitudeDegrees>
              <LongitudeDegrees>-5.66327671520411968231201171875</LongitudeDegrees>
            </Position>
            <AltitudeMeters>788</AltitudeMeters>
            <DistanceMeters>NAN</DistanceMeters>
          </Trackpoint>
          <Trackpoint>
            <Time>2019-10-06T11:29:31.000Z</Time>
            <Position>
              <LatitudeDegrees>40.97254875116050243377685546875</LatitudeDegrees>
              <LongitudeDegrees>-5.6633218936622142791748046875</LongitudeDegrees>
            </Position>
            <AltitudeMeters>787.79998779296875</AltitudeMeters>
            <DistanceMeters>NAN</DistanceMeters>
          </Trackpoint>
          <Trackpoint>
            <Time>2019-10-06T11:29:32.000Z</Time>
            <Position>
              <LatitudeDegrees>40.97249141894280910491943359375</LatitudeDegrees>
              <LongitudeDegrees>-5.663335137069225311279296875</LongitudeDegrees>
            </Position>
            <AltitudeMeters>788</AltitudeMeters>
            <DistanceMeters>NAN</DistanceMeters>
          </Trackpoint>
          <Trackpoint>
            <Time>2019-10-06T11:29:34.000Z</Time>
            <Position>
              <LatitudeDegrees>40.97237876616418361663818359375</LatitudeDegrees>
              <LongitudeDegrees>-5.66331409849226474761962890625</LongitudeDegrees>
            </Position>
            <AltitudeMeters>787.79998779296875</AltitudeMeters>
            <DistanceMeters>NAN</DistanceMeters>
          </Trackpoint>
          <Trackpoint>
            <Time>2019-10-06T11:29:36.000Z</Time>
            <Position>
              <LatitudeDegrees>40.9723330847918987274169921875</LatitudeDegrees>
              <LongitudeDegrees>-5.66318065859377384185791015625</LongitudeDegrees>
            </Position>
            <AltitudeMeters>786.79998779296875</AltitudeMeters>
            <DistanceMeters>NAN</DistanceMeters>
          </Trackpoint>
          <Trackpoint>
            <Time>2019-10-06T11:29:38.000Z</Time>
            <Position>
              <LatitudeDegrees>40.97235546447336673736572265625</LatitudeDegrees>
              <LongitudeDegrees>-5.66303414292633533477783203125</LongitudeDegrees>
            </Position>
            <AltitudeMeters>787.5999755859375</AltitudeMeters>
            <DistanceMeters>NAN</DistanceMeters>
          </Trackpoint>
          <Trackpoint>
            <Time>2019-10-06T11:29:39.000Z</Time>
            <Position>
              <LatitudeDegrees>40.97236099652945995330810546875</LatitudeDegrees>
              <LongitudeDegrees>-5.662966333329677581787109375</LongitudeDegrees>
            </Position>
            <AltitudeMeters>788</AltitudeMeters>
            <DistanceMeters>NAN</DistanceMeters>
          </Trackpoint>
          <Trackpoint>
            <Time>2019-10-06T11:29:41.000Z</Time>
            <Position>
              <LatitudeDegrees>40.97236082889139652252197265625</LatitudeDegrees>
              <LongitudeDegrees>-5.6628535129129886627197265625</LongitudeDegrees>
            </Position>
            <AltitudeMeters>788.20001220703125</AltitudeMeters>
            <DistanceMeters>NAN</DistanceMeters>
          </Trackpoint>
          <Trackpoint>
            <Time>2019-10-06T11:29:43.000Z</Time>
            <Position>
              <LatitudeDegrees>40.972341634333133697509765625</LatitudeDegrees>
              <LongitudeDegrees>-5.66276013851165771484375</LongitudeDegrees>
            </Position>
            <AltitudeMeters>789.20001220703125</AltitudeMeters>
            <DistanceMeters>NAN</DistanceMeters>
          </Trackpoint>
          <Trackpoint>
            <Time>2019-10-06T11:29:45.000Z</Time>
            <Position>
              <LatitudeDegrees>40.97231556661427021026611328125</LatitudeDegrees>
              <LongitudeDegrees>-5.662669278681278228759765625</LongitudeDegrees>
            </Position>
            <AltitudeMeters>789.4000244140625</AltitudeMeters>
            <DistanceMeters>NAN</DistanceMeters>
          </Trackpoint>
          <Trackpoint>
            <Time>2019-10-06T11:29:49.000Z</Time>
            <Position>
              <LatitudeDegrees>40.972270555794239044189453125</LatitudeDegrees>
              <LongitudeDegrees>-5.662477500736713409423828125</LongitudeDegrees>
            </Position>
            <AltitudeMeters>789.5999755859375</AltitudeMeters>
            <DistanceMeters>NAN</DistanceMeters>
          </Trackpoint>
          <Trackpoint>
            <Time>2019-10-06T11:29:52.000Z</Time>
            <Position>
              <LatitudeDegrees>40.9722378663718700408935546875</LatitudeDegrees>
              <LongitudeDegrees>-5.662327967584133148193359375</LongitudeDegrees>
            </Position>
            <AltitudeMeters>790.20001220703125</AltitudeMeters>
            <DistanceMeters>NAN</DistanceMeters>
          </Trackpoint>
          <Trackpoint>
            <Time>2019-10-06T11:29:55.000Z</Time>
            <Position>
              <LatitudeDegrees>40.9722023271024227142333984375</LatitudeDegrees>
              <LongitudeDegrees>-5.66218757070600986480712890625</LongitudeDegrees>
            </Position>
            <AltitudeMeters>790.4000244140625</AltitudeMeters>
            <DistanceMeters>NAN</DistanceMeters>
          </Trackpoint>
          <Trackpoint>
            <Time>2019-10-06T11:29:58.000Z</Time>
            <Position>
              <LatitudeDegrees>40.97216871567070484161376953125</LatitudeDegrees>
              <LongitudeDegrees>-5.66204734146595001220703125</LongitudeDegrees>
            </Position>
            <AltitudeMeters>790.5999755859375</AltitudeMeters>
            <DistanceMeters>NAN</DistanceMeters>
          </Trackpoint>
          <Trackpoint>
            <Time>2019-10-06T11:30:03.000Z</Time>
            <Position>
              <LatitudeDegrees>40.9721292369067668914794921875</LatitudeDegrees>
              <LongitudeDegrees>-5.66181776113808155059814453125</LongitudeDegrees>
            </Position>
            <AltitudeMeters>791.4000244140625</AltitudeMeters>
            <DistanceMeters>NAN</DistanceMeters>
          </Trackpoint>
          <Trackpoint>
            <Time>2019-10-06T11:30:06.000Z</Time>
            <Position>
              <LatitudeDegrees>40.97211155109107494354248046875</LatitudeDegrees>
              <LongitudeDegrees>-5.66172170452773571014404296875</LongitudeDegrees>
            </Position>
            <AltitudeMeters>792.20001220703125</AltitudeMeters>
            <DistanceMeters>NAN</DistanceMeters>
          </Trackpoint>
          <Trackpoint>
            <Time>2019-10-06T11:30:07.000Z</Time>
            <Position>
              <LatitudeDegrees>40.9721030853688716888427734375</LatitudeDegrees>
              <LongitudeDegrees>-5.66169572062790393829345703125</LongitudeDegrees>
            </Position>
            <AltitudeMeters>792.5999755859375</AltitudeMeters>
            <DistanceMeters>NAN</DistanceMeters>
          </Trackpoint>
          <Trackpoint>
            <Time>2019-10-06T11:30:12.000Z</Time>
            <Position>
              <LatitudeDegrees>40.97204868681728839874267578125</LatitudeDegrees>
              <LongitudeDegrees>-5.6615097261965274810791015625</LongitudeDegrees>
            </Position>
            <AltitudeMeters>792.5999755859375</AltitudeMeters>
            <DistanceMeters>NAN</DistanceMeters>
          </Trackpoint>
          <Trackpoint>
            <Time>2019-10-06T11:30:20.000Z</Time>
            <Position>
              <LatitudeDegrees>40.97196067683398723602294921875</LatitudeDegrees>
              <LongitudeDegrees>-5.66112734377384185791015625</LongitudeDegrees>
            </Position>
            <AltitudeMeters>793</AltitudeMeters>
            <DistanceMeters>NAN</DistanceMeters>
          </Trackpoint>
          <Trackpoint>
            <Time>2019-10-06T11:30:29.000Z</Time>
            <Position>
              <LatitudeDegrees>40.97185573540627956390380859375</LatitudeDegrees>
              <LongitudeDegrees>-5.66063943319022655487060546875</LongitudeDegrees>
            </Position>
            <AltitudeMeters>792.20001220703125</AltitudeMeters>
            <DistanceMeters>NAN</DistanceMeters>
          </Trackpoint>
          <Trackpoint>
            <Time>2019-10-06T11:30:33.000Z</Time>
            <Position>
              <LatitudeDegrees>40.9718013368546962738037109375</LatitudeDegrees>
              <LongitudeDegrees>-5.6603838689625263214111328125</LongitudeDegrees>
            </Position>
            <AltitudeMeters>791.79998779296875</AltitudeMeters>
            <DistanceMeters>NAN</DistanceMeters>
          </Trackpoint>
          <Trackpoint>
            <Time>2019-10-06T11:30:36.000Z</Time>
            <Position>
              <LatitudeDegrees>40.9717597626149654388427734375</LatitudeDegrees>
              <LongitudeDegrees>-5.66018530167639255523681640625</LongitudeDegrees>
            </Position>
            <AltitudeMeters>791.5999755859375</AltitudeMeters>
            <DistanceMeters>NAN</DistanceMeters>
          </Trackpoint>
          <Trackpoint>
            <Time>2019-10-06T11:30:37.000Z</Time>
            <Position>
              <LatitudeDegrees>40.97174442373216152191162109375</LatitudeDegrees>
              <LongitudeDegrees>-5.66011405549943447113037109375</LongitudeDegrees>
            </Position>
            <AltitudeMeters>791.20001220703125</AltitudeMeters>
            <DistanceMeters>NAN</DistanceMeters>
          </Trackpoint>
          <Trackpoint>
            <Time>2019-10-06T11:30:43.000Z</Time>
            <Position>
              <LatitudeDegrees>40.9716246463358402252197265625</LatitudeDegrees>
              <LongitudeDegrees>-5.65967031754553318023681640625</LongitudeDegrees>
            </Position>
            <AltitudeMeters>790.4000244140625</AltitudeMeters>
            <DistanceMeters>NAN</DistanceMeters>
          </Trackpoint>
          <Trackpoint>
            <Time>2019-10-06T11:30:44.000Z</Time>
            <Position>
              <LatitudeDegrees>40.97160712815821170806884765625</LatitudeDegrees>
              <LongitudeDegrees>-5.65959270112216472625732421875</LongitudeDegrees>
            </Position>
            <AltitudeMeters>790</AltitudeMeters>
            <DistanceMeters>NAN</DistanceMeters>
          </Trackpoint>
          <Trackpoint>
            <Time>2019-10-06T11:30:47.000Z</Time>
            <Position>
              <LatitudeDegrees>40.971556417644023895263671875</LatitudeDegrees>
              <LongitudeDegrees>-5.659352056682109832763671875</LongitudeDegrees>
            </Position>
            <AltitudeMeters>789.5999755859375</AltitudeMeters>
            <DistanceMeters>NAN</DistanceMeters>
          </Trackpoint>
          <Trackpoint>
            <Time>2019-10-06T11:30:50.000Z</Time>
            <Position>
              <LatitudeDegrees>40.97149531356990337371826171875</LatitudeDegrees>
              <LongitudeDegrees>-5.6591091491281986236572265625</LongitudeDegrees>
            </Position>
            <AltitudeMeters>789.20001220703125</AltitudeMeters>
            <DistanceMeters>NAN</DistanceMeters>
          </Trackpoint>
          <Trackpoint>
            <Time>2019-10-06T11:30:51.000Z</Time>
            <Position>
              <LatitudeDegrees>40.97147293388843536376953125</LatitudeDegrees>
              <LongitudeDegrees>-5.6590266712009906768798828125</LongitudeDegrees>
            </Position>
            <AltitudeMeters>789.20001220703125</AltitudeMeters>
            <DistanceMeters>NAN</DistanceMeters>
          </Trackpoint>
          <Trackpoint>
            <Time>2019-10-06T11:30:52.000Z</Time>
            <Position>
              <LatitudeDegrees>40.9714526496827602386474609375</LatitudeDegrees>
              <LongitudeDegrees>-5.6589435227215290069580078125</LongitudeDegrees>
            </Position>
            <AltitudeMeters>788.5999755859375</AltitudeMeters>
            <DistanceMeters>NAN</DistanceMeters>
          </Trackpoint>
          <Trackpoint>
            <Time>2019-10-06T11:30:54.000Z</Time>
            <Position>
              <LatitudeDegrees>40.97141585312783718109130859375</LatitudeDegrees>
              <LongitudeDegrees>-5.6587896309792995452880859375</LongitudeDegrees>
            </Position>
            <AltitudeMeters>788.4000244140625</AltitudeMeters>
            <DistanceMeters>NAN</DistanceMeters>
          </Trackpoint>
          <Trackpoint>
            <Time>2019-10-06T11:30:57.000Z</Time>
            <Position>
              <LatitudeDegrees>40.9713705070316791534423828125</LatitudeDegrees>
              <LongitudeDegrees>-5.658624172210693359375</LongitudeDegrees>
            </Position>
            <AltitudeMeters>789</AltitudeMeters>
            <DistanceMeters>NAN</DistanceMeters>
          </Trackpoint>
          <Trackpoint>
            <Time>2019-10-06T11:31:01.000Z</Time>
            <Position>
              <LatitudeDegrees>40.97134963609278202056884765625</LatitudeDegrees>
              <LongitudeDegrees>-5.6584860384464263916015625</LongitudeDegrees>
            </Position>
            <AltitudeMeters>789</AltitudeMeters>
            <DistanceMeters>NAN</DistanceMeters>
          </Trackpoint>
          <Trackpoint>
            <Time>2019-10-06T11:31:03.000Z</Time>
            <Position>
              <LatitudeDegrees>40.97133815288543701171875</LatitudeDegrees>
              <LongitudeDegrees>-5.65844957716763019561767578125</LongitudeDegrees>
            </Position>
            <AltitudeMeters>788.79998779296875</AltitudeMeters>
            <DistanceMeters>NAN</DistanceMeters>
          </Trackpoint>
          <Trackpoint>
            <Time>2019-10-06T11:31:04.000Z</Time>
            <Position>
              <LatitudeDegrees>40.97133823670446872711181640625</LatitudeDegrees>
              <LongitudeDegrees>-5.65843733958899974822998046875</LongitudeDegrees>
            </Position>
            <AltitudeMeters>788.79998779296875</AltitudeMeters>
            <DistanceMeters>NAN</DistanceMeters>
          </Trackpoint>
          <Trackpoint>
            <Time>2019-10-06T11:31:05.000Z</Time>
            <Position>
              <LatitudeDegrees>40.97133354283869266510009765625</LatitudeDegrees>
              <LongitudeDegrees>-5.65842376090586185455322265625</LongitudeDegrees>
            </Position>
            <AltitudeMeters>788.79998779296875</AltitudeMeters>
            <DistanceMeters>NAN</DistanceMeters>
          </Trackpoint>
          <Trackpoint>
            <Time>2019-10-06T11:31:06.000Z</Time>
            <Position>
              <LatitudeDegrees>40.97133689559996128082275390625</LatitudeDegrees>
              <LongitudeDegrees>-5.6584328971803188323974609375</LongitudeDegrees>
            </Position>
            <AltitudeMeters>788.79998779296875</AltitudeMeters>
            <DistanceMeters>NAN</DistanceMeters>
          </Trackpoint>
          <Trackpoint>
            <Time>2019-10-06T11:31:09.000Z</Time>
            <Position>
              <LatitudeDegrees>40.971332453191280364990234375</LatitudeDegrees>
              <LongitudeDegrees>-5.6584255211055278778076171875</LongitudeDegrees>
            </Position>
            <AltitudeMeters>788.79998779296875</AltitudeMeters>
            <DistanceMeters>NAN</DistanceMeters>
          </Trackpoint>
          <Trackpoint>
            <Time>2019-10-06T11:31:11.000Z</Time>
            <Position>
              <LatitudeDegrees>40.971332453191280364990234375</LatitudeDegrees>
              <LongitudeDegrees>-5.6584255211055278778076171875</LongitudeDegrees>
            </Position>
            <AltitudeMeters>788.5999755859375</AltitudeMeters>
            <DistanceMeters>NAN</DistanceMeters>
          </Trackpoint>
          <Trackpoint>
            <Time>2019-10-06T11:31:15.000Z</Time>
            <Position>
              <LatitudeDegrees>40.971332453191280364990234375</LatitudeDegrees>
              <LongitudeDegrees>-5.6584255211055278778076171875</LongitudeDegrees>
            </Position>
            <AltitudeMeters>788.5999755859375</AltitudeMeters>
            <DistanceMeters>NAN</DistanceMeters>
          </Trackpoint>
          <Trackpoint>
            <Time>2019-10-06T11:31:17.000Z</Time>
            <Position>
              <LatitudeDegrees>40.971332453191280364990234375</LatitudeDegrees>
              <LongitudeDegrees>-5.6584255211055278778076171875</LongitudeDegrees>
            </Position>
            <AltitudeMeters>788.79998779296875</AltitudeMeters>
            <DistanceMeters>NAN</DistanceMeters>
          </Trackpoint>
          <Trackpoint>
            <Time>2019-10-06T11:31:21.000Z</Time>
            <Position>
              <LatitudeDegrees>40.971332453191280364990234375</LatitudeDegrees>
              <LongitudeDegrees>-5.6584255211055278778076171875</LongitudeDegrees>
            </Position>
            <AltitudeMeters>789</AltitudeMeters>
            <DistanceMeters>NAN</DistanceMeters>
          </Trackpoint>
          <Trackpoint>
            <Time>2019-10-06T11:31:26.000Z</Time>
            <Position>
              <LatitudeDegrees>40.971332453191280364990234375</LatitudeDegrees>
              <LongitudeDegrees>-5.6584255211055278778076171875</LongitudeDegrees>
            </Position>
            <AltitudeMeters>789</AltitudeMeters>
            <DistanceMeters>NAN</DistanceMeters>
          </Trackpoint>
          <Trackpoint>
            <Time>2019-10-06T11:31:28.000Z</Time>
            <Position>
              <LatitudeDegrees>40.971332453191280364990234375</LatitudeDegrees>
              <LongitudeDegrees>-5.6584255211055278778076171875</LongitudeDegrees>
            </Position>
            <AltitudeMeters>789.20001220703125</AltitudeMeters>
            <DistanceMeters>NAN</DistanceMeters>
          </Trackpoint>
          <Trackpoint>
            <Time>2019-10-06T11:31:29.000Z</Time>
            <Position>
              <LatitudeDegrees>40.971332453191280364990234375</LatitudeDegrees>
              <LongitudeDegrees>-5.6584255211055278778076171875</LongitudeDegrees>
            </Position>
            <AltitudeMeters>789</AltitudeMeters>
            <DistanceMeters>NAN</DistanceMeters>
          </Trackpoint>
          <Trackpoint>
            <Time>2019-10-06T11:31:32.000Z</Time>
            <Position>
              <LatitudeDegrees>40.971332453191280364990234375</LatitudeDegrees>
              <LongitudeDegrees>-5.6584255211055278778076171875</LongitudeDegrees>
            </Position>
            <AltitudeMeters>789.20001220703125</AltitudeMeters>
            <DistanceMeters>NAN</DistanceMeters>
          </Trackpoint>
          <Trackpoint>
            <Time>2019-10-06T11:31:36.000Z</Time>
            <Position>
              <LatitudeDegrees>40.971332453191280364990234375</LatitudeDegrees>
              <LongitudeDegrees>-5.6584255211055278778076171875</LongitudeDegrees>
            </Position>
            <AltitudeMeters>789</AltitudeMeters>
            <DistanceMeters>NAN</DistanceMeters>
          </Trackpoint>
          <Trackpoint>
            <Time>2019-10-06T11:31:40.000Z</Time>
            <Position>
              <LatitudeDegrees>40.971332453191280364990234375</LatitudeDegrees>
              <LongitudeDegrees>-5.6584255211055278778076171875</LongitudeDegrees>
            </Position>
            <AltitudeMeters>789</AltitudeMeters>
            <DistanceMeters>NAN</DistanceMeters>
          </Trackpoint>
          <Trackpoint>
            <Time>2019-10-06T11:31:43.000Z</Time>
            <Position>
              <LatitudeDegrees>40.971332453191280364990234375</LatitudeDegrees>
              <LongitudeDegrees>-5.6584255211055278778076171875</LongitudeDegrees>
            </Position>
            <AltitudeMeters>789.20001220703125</AltitudeMeters>
            <DistanceMeters>NAN</DistanceMeters>
          </Trackpoint>
          <Trackpoint>
            <Time>2019-10-06T11:31:45.000Z</Time>
            <Position>
              <LatitudeDegrees>40.971332453191280364990234375</LatitudeDegrees>
              <LongitudeDegrees>-5.6584255211055278778076171875</LongitudeDegrees>
            </Position>
            <AltitudeMeters>789.20001220703125</AltitudeMeters>
            <DistanceMeters>NAN</DistanceMeters>
          </Trackpoint>
          <Trackpoint>
            <Time>2019-10-06T11:31:52.000Z</Time>
            <Position>
              <LatitudeDegrees>40.9713275916874408721923828125</LatitudeDegrees>
              <LongitudeDegrees>-5.65841822884976863861083984375</LongitudeDegrees>
            </Position>
            <AltitudeMeters>789</AltitudeMeters>
            <DistanceMeters>NAN</DistanceMeters>
          </Trackpoint>
          <Trackpoint>
            <Time>2019-10-06T11:31:55.000Z</Time>
            <Position>
              <LatitudeDegrees>40.9713275916874408721923828125</LatitudeDegrees>
              <LongitudeDegrees>-5.65841822884976863861083984375</LongitudeDegrees>
            </Position>
            <AltitudeMeters>789.20001220703125</AltitudeMeters>
            <DistanceMeters>NAN</DistanceMeters>
          </Trackpoint>
          <Trackpoint>
            <Time>2019-10-06T11:31:57.000Z</Time>
            <Position>
              <LatitudeDegrees>40.9713275916874408721923828125</LatitudeDegrees>
              <LongitudeDegrees>-5.65841822884976863861083984375</LongitudeDegrees>
            </Position>
            <AltitudeMeters>789.20001220703125</AltitudeMeters>
            <DistanceMeters>NAN</DistanceMeters>
          </Trackpoint>
          <Trackpoint>
            <Time>2019-10-06T11:31:58.000Z</Time>
            <Position>
              <LatitudeDegrees>40.9713275916874408721923828125</LatitudeDegrees>
              <LongitudeDegrees>-5.65841822884976863861083984375</LongitudeDegrees>
            </Position>
            <AltitudeMeters>789</AltitudeMeters>
            <DistanceMeters>NAN</DistanceMeters>
          </Trackpoint>
          <Trackpoint>
            <Time>2019-10-06T11:32:05.000Z</Time>
            <Position>
              <LatitudeDegrees>40.9713275916874408721923828125</LatitudeDegrees>
              <LongitudeDegrees>-5.65841822884976863861083984375</LongitudeDegrees>
            </Position>
            <AltitudeMeters>789.20001220703125</AltitudeMeters>
            <DistanceMeters>NAN</DistanceMeters>
          </Trackpoint>
          <Trackpoint>
            <Time>2019-10-06T11:32:08.000Z</Time>
            <Position>
              <LatitudeDegrees>40.9713275916874408721923828125</LatitudeDegrees>
              <LongitudeDegrees>-5.65841822884976863861083984375</LongitudeDegrees>
            </Position>
            <AltitudeMeters>789.20001220703125</AltitudeMeters>
            <DistanceMeters>NAN</DistanceMeters>
          </Trackpoint>
          <Trackpoint>
            <Time>2019-10-06T11:32:12.000Z</Time>
            <Position>
              <LatitudeDegrees>40.97130739130079746246337890625</LatitudeDegrees>
              <LongitudeDegrees>-5.6583299674093723297119140625</LongitudeDegrees>
            </Position>
            <AltitudeMeters>789</AltitudeMeters>
            <DistanceMeters>NAN</DistanceMeters>
          </Trackpoint>
          <Trackpoint>
            <Time>2019-10-06T11:32:14.000Z</Time>
            <Position>
              <LatitudeDegrees>40.9712736122310161590576171875</LatitudeDegrees>
              <LongitudeDegrees>-5.6582250259816646575927734375</LongitudeDegrees>
            </Position>
            <AltitudeMeters>789</AltitudeMeters>
            <DistanceMeters>NAN</DistanceMeters>
          </Trackpoint>
          <Trackpoint>
            <Time>2019-10-06T11:32:16.000Z</Time>
            <Position>
              <LatitudeDegrees>40.97123413346707820892333984375</LatitudeDegrees>
              <LongitudeDegrees>-5.658100806176662445068359375</LongitudeDegrees>
            </Position>
            <AltitudeMeters>788.20001220703125</AltitudeMeters>
            <DistanceMeters>NAN</DistanceMeters>
          </Trackpoint>
          <Trackpoint>
            <Time>2019-10-06T11:32:17.000Z</Time>
            <Position>
              <LatitudeDegrees>40.97122080624103546142578125</LatitudeDegrees>
              <LongitudeDegrees>-5.65803551115095615386962890625</LongitudeDegrees>
            </Position>
            <AltitudeMeters>787.5999755859375</AltitudeMeters>
            <DistanceMeters>NAN</DistanceMeters>
          </Trackpoint>
          <Trackpoint>
            <Time>2019-10-06T11:32:18.000Z</Time>
            <Position>
              <LatitudeDegrees>40.97121619619429111480712890625</LatitudeDegrees>
              <LongitudeDegrees>-5.6579665280878543853759765625</LongitudeDegrees>
            </Position>
            <AltitudeMeters>787.20001220703125</AltitudeMeters>
            <DistanceMeters>NAN</DistanceMeters>
          </Trackpoint>
          <Trackpoint>
            <Time>2019-10-06T11:32:20.000Z</Time>
            <Position>
              <LatitudeDegrees>40.97118593752384185791015625</LatitudeDegrees>
              <LongitudeDegrees>-5.65783853642642498016357421875</LongitudeDegrees>
            </Position>
            <AltitudeMeters>786.5999755859375</AltitudeMeters>
            <DistanceMeters>NAN</DistanceMeters>
          </Trackpoint>
          <Trackpoint>
            <Time>2019-10-06T11:32:21.000Z</Time>
            <Position>
              <LatitudeDegrees>40.97116984426975250244140625</LatitudeDegrees>
              <LongitudeDegrees>-5.65777282230556011199951171875</LongitudeDegrees>
            </Position>
            <AltitudeMeters>786.5999755859375</AltitudeMeters>
            <DistanceMeters>NAN</DistanceMeters>
          </Trackpoint>
          <Trackpoint>
            <Time>2019-10-06T11:32:22.000Z</Time>
            <Position>
              <LatitudeDegrees>40.97115567885339260101318359375</LatitudeDegrees>
              <LongitudeDegrees>-5.65770291723310947418212890625</LongitudeDegrees>
            </Position>
            <AltitudeMeters>786.5999755859375</AltitudeMeters>
            <DistanceMeters>NAN</DistanceMeters>
          </Trackpoint>
          <Trackpoint>
            <Time>2019-10-06T11:32:27.000Z</Time>
            <Position>
              <LatitudeDegrees>40.9710781462490558624267578125</LatitudeDegrees>
              <LongitudeDegrees>-5.65733059309422969818115234375</LongitudeDegrees>
            </Position>
            <AltitudeMeters>786.5999755859375</AltitudeMeters>
            <DistanceMeters>NAN</DistanceMeters>
          </Trackpoint>
          <Trackpoint>
            <Time>2019-10-06T11:32:28.000Z</Time>
            <Position>
              <LatitudeDegrees>40.97105978988111019134521484375</LatitudeDegrees>
              <LongitudeDegrees>-5.65725280903279781341552734375</LongitudeDegrees>
            </Position>
            <AltitudeMeters>786.5999755859375</AltitudeMeters>
            <DistanceMeters>NAN</DistanceMeters>
          </Trackpoint>
          <Trackpoint>
            <Time>2019-10-06T11:32:32.000Z</Time>
            <Position>
              <LatitudeDegrees>40.9709842689335346221923828125</LatitudeDegrees>
              <LongitudeDegrees>-5.65693228505551815032958984375</LongitudeDegrees>
            </Position>
            <AltitudeMeters>785.79998779296875</AltitudeMeters>
            <DistanceMeters>NAN</DistanceMeters>
          </Trackpoint>
          <Trackpoint>
            <Time>2019-10-06T11:32:34.000Z</Time>
            <Position>
              <LatitudeDegrees>40.97096289508044719696044921875</LatitudeDegrees>
              <LongitudeDegrees>-5.65676280297338962554931640625</LongitudeDegrees>
            </Position>
            <AltitudeMeters>785.20001220703125</AltitudeMeters>
            <DistanceMeters>NAN</DistanceMeters>
          </Trackpoint>
          <Trackpoint>
            <Time>2019-10-06T11:32:35.000Z</Time>
            <Position>
              <LatitudeDegrees>40.97094780765473842620849609375</LatitudeDegrees>
              <LongitudeDegrees>-5.65667630173265933990478515625</LongitudeDegrees>
            </Position>
            <AltitudeMeters>785</AltitudeMeters>
            <DistanceMeters>NAN</DistanceMeters>
          </Trackpoint>
          <Trackpoint>
            <Time>2019-10-06T11:32:37.000Z</Time>
            <Position>
              <LatitudeDegrees>40.9709158726036548614501953125</LatitudeDegrees>
              <LongitudeDegrees>-5.656510256230831146240234375</LongitudeDegrees>
            </Position>
            <AltitudeMeters>784</AltitudeMeters>
            <DistanceMeters>NAN</DistanceMeters>
          </Trackpoint>
          <Trackpoint>
            <Time>2019-10-06T11:32:42.000Z</Time>
            <Position>
              <LatitudeDegrees>40.97083565779030323028564453125</LatitudeDegrees>
              <LongitudeDegrees>-5.6560883112251758575439453125</LongitudeDegrees>
            </Position>
            <AltitudeMeters>784</AltitudeMeters>
            <DistanceMeters>NAN</DistanceMeters>
          </Trackpoint>
          <Trackpoint>
            <Time>2019-10-06T11:32:46.000Z</Time>
            <Position>
              <LatitudeDegrees>40.9707881323993206024169921875</LatitudeDegrees>
              <LongitudeDegrees>-5.65587021410465240478515625</LongitudeDegrees>
            </Position>
            <AltitudeMeters>784.5999755859375</AltitudeMeters>
            <DistanceMeters>NAN</DistanceMeters>
          </Trackpoint>
          <Trackpoint>
            <Time>2019-10-06T11:32:47.000Z</Time>
            <Position>
              <LatitudeDegrees>40.97078301943838596343994140625</LatitudeDegrees>
              <LongitudeDegrees>-5.65580986440181732177734375</LongitudeDegrees>
            </Position>
            <AltitudeMeters>784.4000244140625</AltitudeMeters>
            <DistanceMeters>NAN</DistanceMeters>
          </Trackpoint>
          <Trackpoint>
            <Time>2019-10-06T11:32:49.000Z</Time>
            <Position>
              <LatitudeDegrees>40.97075250931084156036376953125</LatitudeDegrees>
              <LongitudeDegrees>-5.65568472258746623992919921875</LongitudeDegrees>
            </Position>
            <AltitudeMeters>784.20001220703125</AltitudeMeters>
            <DistanceMeters>NAN</DistanceMeters>
          </Trackpoint>
          <Trackpoint>
            <Time>2019-10-06T11:32:51.000Z</Time>
            <Position>
              <LatitudeDegrees>40.97071948461234569549560546875</LatitudeDegrees>
              <LongitudeDegrees>-5.6555545516312122344970703125</LongitudeDegrees>
            </Position>
            <AltitudeMeters>784</AltitudeMeters>
            <DistanceMeters>NAN</DistanceMeters>
          </Trackpoint>
          <Trackpoint>
            <Time>2019-10-06T11:32:55.000Z</Time>
            <Position>
              <LatitudeDegrees>40.970664918422698974609375</LatitudeDegrees>
              <LongitudeDegrees>-5.65526428632438182830810546875</LongitudeDegrees>
            </Position>
            <AltitudeMeters>783.20001220703125</AltitudeMeters>
            <DistanceMeters>NAN</DistanceMeters>
          </Trackpoint>
          <Trackpoint>
            <Time>2019-10-06T11:32:57.000Z</Time>
            <Position>
              <LatitudeDegrees>40.97063465975224971771240234375</LatitudeDegrees>
              <LongitudeDegrees>-5.6551139988005161285400390625</LongitudeDegrees>
            </Position>
            <AltitudeMeters>782.5999755859375</AltitudeMeters>
            <DistanceMeters>NAN</DistanceMeters>
          </Trackpoint>
          <Trackpoint>
            <Time>2019-10-06T11:32:58.000Z</Time>
            <Position>
              <LatitudeDegrees>40.97061672247946262359619140625</LatitudeDegrees>
              <LongitudeDegrees>-5.6550367176532745361328125</LongitudeDegrees>
            </Position>
            <AltitudeMeters>782.4000244140625</AltitudeMeters>
            <DistanceMeters>NAN</DistanceMeters>
          </Trackpoint>
          <Trackpoint>
            <Time>2019-10-06T11:33:02.000Z</Time>
            <Position>
              <LatitudeDegrees>40.97055494785308837890625</LatitudeDegrees>
              <LongitudeDegrees>-5.6547177024185657501220703125</LongitudeDegrees>
            </Position>
            <AltitudeMeters>781.5999755859375</AltitudeMeters>
            <DistanceMeters>NAN</DistanceMeters>
          </Trackpoint>
          <Trackpoint>
            <Time>2019-10-06T11:33:05.000Z</Time>
            <Position>
              <LatitudeDegrees>40.97050222568213939666748046875</LatitudeDegrees>
              <LongitudeDegrees>-5.6544883735477924346923828125</LongitudeDegrees>
            </Position>
            <AltitudeMeters>781.20001220703125</AltitudeMeters>
            <DistanceMeters>NAN</DistanceMeters>
          </Trackpoint>
          <Trackpoint>
            <Time>2019-10-06T11:33:06.000Z</Time>
            <Position>
              <LatitudeDegrees>40.97048395313322544097900390625</LatitudeDegrees>
              <LongitudeDegrees>-5.65443456172943115234375</LongitudeDegrees>
            </Position>
            <AltitudeMeters>781.4000244140625</AltitudeMeters>
            <DistanceMeters>NAN</DistanceMeters>
          </Trackpoint>
          <Trackpoint>
            <Time>2019-10-06T11:33:08.000Z</Time>
            <Position>
              <LatitudeDegrees>40.97047783434391021728515625</LatitudeDegrees>
              <LongitudeDegrees>-5.6543552689254283905029296875</LongitudeDegrees>
            </Position>
            <AltitudeMeters>781.79998779296875</AltitudeMeters>
            <DistanceMeters>NAN</DistanceMeters>
          </Trackpoint>
          <Trackpoint>
            <Time>2019-10-06T11:33:13.000Z</Time>
            <Position>
              <LatitudeDegrees>40.97048730589449405670166015625</LatitudeDegrees>
              <LongitudeDegrees>-5.65423130057752132415771484375</LongitudeDegrees>
            </Position>
            <AltitudeMeters>782</AltitudeMeters>
            <DistanceMeters>NAN</DistanceMeters>
          </Trackpoint>
          <Trackpoint>
            <Time>2019-10-06T11:33:15.000Z</Time>
            <Position>
              <LatitudeDegrees>40.970493592321872711181640625</LatitudeDegrees>
              <LongitudeDegrees>-5.6542025506496429443359375</LongitudeDegrees>
            </Position>
            <AltitudeMeters>782</AltitudeMeters>
            <DistanceMeters>NAN</DistanceMeters>
          </Trackpoint>
          <Trackpoint>
            <Time>2019-10-06T11:33:19.000Z</Time>
            <Position>
              <LatitudeDegrees>40.9704940952360630035400390625</LatitudeDegrees>
              <LongitudeDegrees>-5.65420682542026042938232421875</LongitudeDegrees>
            </Position>
            <AltitudeMeters>781.79998779296875</AltitudeMeters>
            <DistanceMeters>NAN</DistanceMeters>
          </Trackpoint>
          <Trackpoint>
            <Time>2019-10-06T11:33:24.000Z</Time>
            <Position>
              <LatitudeDegrees>40.9704940952360630035400390625</LatitudeDegrees>
              <LongitudeDegrees>-5.65420682542026042938232421875</LongitudeDegrees>
            </Position>
            <AltitudeMeters>782</AltitudeMeters>
            <DistanceMeters>NAN</DistanceMeters>
          </Trackpoint>
          <Trackpoint>
            <Time>2019-10-06T11:33:25.000Z</Time>
            <Position>
              <LatitudeDegrees>40.9704940952360630035400390625</LatitudeDegrees>
              <LongitudeDegrees>-5.65420682542026042938232421875</LongitudeDegrees>
            </Position>
            <AltitudeMeters>782</AltitudeMeters>
            <DistanceMeters>NAN</DistanceMeters>
          </Trackpoint>
          <Trackpoint>
            <Time>2019-10-06T11:33:26.000Z</Time>
            <Position>
              <LatitudeDegrees>40.9704940952360630035400390625</LatitudeDegrees>
              <LongitudeDegrees>-5.65420682542026042938232421875</LongitudeDegrees>
            </Position>
            <AltitudeMeters>781.79998779296875</AltitudeMeters>
            <DistanceMeters>NAN</DistanceMeters>
          </Trackpoint>
          <Trackpoint>
            <Time>2019-10-06T11:33:29.000Z</Time>
            <Position>
              <LatitudeDegrees>40.9704940952360630035400390625</LatitudeDegrees>
              <LongitudeDegrees>-5.65420682542026042938232421875</LongitudeDegrees>
            </Position>
            <AltitudeMeters>781.79998779296875</AltitudeMeters>
            <DistanceMeters>NAN</DistanceMeters>
          </Trackpoint>
          <Trackpoint>
            <Time>2019-10-06T11:33:31.000Z</Time>
            <Position>
              <LatitudeDegrees>40.9704940952360630035400390625</LatitudeDegrees>
              <LongitudeDegrees>-5.65420682542026042938232421875</LongitudeDegrees>
            </Position>
            <AltitudeMeters>782</AltitudeMeters>
            <DistanceMeters>NAN</DistanceMeters>
          </Trackpoint>
          <Trackpoint>
            <Time>2019-10-06T11:33:33.000Z</Time>
            <Position>
              <LatitudeDegrees>40.9704940952360630035400390625</LatitudeDegrees>
              <LongitudeDegrees>-5.65420682542026042938232421875</LongitudeDegrees>
            </Position>
            <AltitudeMeters>782</AltitudeMeters>
            <DistanceMeters>NAN</DistanceMeters>
          </Trackpoint>
          <Trackpoint>
            <Time>2019-10-06T11:33:35.000Z</Time>
            <Position>
              <LatitudeDegrees>40.9704940952360630035400390625</LatitudeDegrees>
              <LongitudeDegrees>-5.65420682542026042938232421875</LongitudeDegrees>
            </Position>
            <AltitudeMeters>782</AltitudeMeters>
            <DistanceMeters>NAN</DistanceMeters>
          </Trackpoint>
          <Trackpoint>
            <Time>2019-10-06T11:33:38.000Z</Time>
            <Position>
              <LatitudeDegrees>40.9704940952360630035400390625</LatitudeDegrees>
              <LongitudeDegrees>-5.65420682542026042938232421875</LongitudeDegrees>
            </Position>
            <AltitudeMeters>782</AltitudeMeters>
            <DistanceMeters>NAN</DistanceMeters>
          </Trackpoint>
          <Trackpoint>
            <Time>2019-10-06T11:33:39.000Z</Time>
            <Position>
              <LatitudeDegrees>40.9704940952360630035400390625</LatitudeDegrees>
              <LongitudeDegrees>-5.65420682542026042938232421875</LongitudeDegrees>
            </Position>
            <AltitudeMeters>782</AltitudeMeters>
            <DistanceMeters>NAN</DistanceMeters>
          </Trackpoint>
          <Trackpoint>
            <Time>2019-10-06T11:33:40.000Z</Time>
            <Position>
              <LatitudeDegrees>40.9704940952360630035400390625</LatitudeDegrees>
              <LongitudeDegrees>-5.65420682542026042938232421875</LongitudeDegrees>
            </Position>
            <AltitudeMeters>782</AltitudeMeters>
            <DistanceMeters>NAN</DistanceMeters>
          </Trackpoint>
          <Trackpoint>
            <Time>2019-10-06T11:33:41.000Z</Time>
            <Position>
              <LatitudeDegrees>40.9704940952360630035400390625</LatitudeDegrees>
              <LongitudeDegrees>-5.65420682542026042938232421875</LongitudeDegrees>
            </Position>
            <AltitudeMeters>782</AltitudeMeters>
            <DistanceMeters>NAN</DistanceMeters>
          </Trackpoint>
          <Trackpoint>
            <Time>2019-10-06T11:33:44.000Z</Time>
            <Position>
              <LatitudeDegrees>40.9704940952360630035400390625</LatitudeDegrees>
              <LongitudeDegrees>-5.65420682542026042938232421875</LongitudeDegrees>
            </Position>
            <AltitudeMeters>781.79998779296875</AltitudeMeters>
            <DistanceMeters>NAN</DistanceMeters>
          </Trackpoint>
          <Trackpoint>
            <Time>2019-10-06T11:33:45.000Z</Time>
            <Position>
              <LatitudeDegrees>40.9704940952360630035400390625</LatitudeDegrees>
              <LongitudeDegrees>-5.65420682542026042938232421875</LongitudeDegrees>
            </Position>
            <AltitudeMeters>781.79998779296875</AltitudeMeters>
            <DistanceMeters>NAN</DistanceMeters>
          </Trackpoint>
          <Trackpoint>
            <Time>2019-10-06T11:33:49.000Z</Time>
            <Position>
              <LatitudeDegrees>40.9704940952360630035400390625</LatitudeDegrees>
              <LongitudeDegrees>-5.65420682542026042938232421875</LongitudeDegrees>
            </Position>
            <AltitudeMeters>782.20001220703125</AltitudeMeters>
            <DistanceMeters>NAN</DistanceMeters>
          </Trackpoint>
          <Trackpoint>
            <Time>2019-10-06T11:33:51.000Z</Time>
            <Position>
              <LatitudeDegrees>40.9704940952360630035400390625</LatitudeDegrees>
              <LongitudeDegrees>-5.65420682542026042938232421875</LongitudeDegrees>
            </Position>
            <AltitudeMeters>782.20001220703125</AltitudeMeters>
            <DistanceMeters>NAN</DistanceMeters>
          </Trackpoint>
          <Trackpoint>
            <Time>2019-10-06T11:33:53.000Z</Time>
            <Position>
              <LatitudeDegrees>40.9704940952360630035400390625</LatitudeDegrees>
              <LongitudeDegrees>-5.65420682542026042938232421875</LongitudeDegrees>
            </Position>
            <AltitudeMeters>782</AltitudeMeters>
            <DistanceMeters>NAN</DistanceMeters>
          </Trackpoint>
          <Trackpoint>
            <Time>2019-10-06T11:34:00.000Z</Time>
            <Position>
              <LatitudeDegrees>40.9704883955419063568115234375</LatitudeDegrees>
              <LongitudeDegrees>-5.65418981015682220458984375</LongitudeDegrees>
            </Position>
            <AltitudeMeters>782</AltitudeMeters>
            <DistanceMeters>NAN</DistanceMeters>
          </Trackpoint>
          <Trackpoint>
            <Time>2019-10-06T11:34:06.000Z</Time>
            <Position>
              <LatitudeDegrees>40.97047741524875164031982421875</LatitudeDegrees>
              <LongitudeDegrees>-5.65413189120590686798095703125</LongitudeDegrees>
            </Position>
            <AltitudeMeters>782</AltitudeMeters>
            <DistanceMeters>NAN</DistanceMeters>
          </Trackpoint>
          <Trackpoint>
            <Time>2019-10-06T11:34:09.000Z</Time>
            <Position>
              <LatitudeDegrees>40.9704490005970001220703125</LatitudeDegrees>
              <LongitudeDegrees>-5.65399124287068843841552734375</LongitudeDegrees>
            </Position>
            <AltitudeMeters>781.4000244140625</AltitudeMeters>
            <DistanceMeters>NAN</DistanceMeters>
          </Trackpoint>
          <Trackpoint>
            <Time>2019-10-06T11:34:10.000Z</Time>
            <Position>
              <LatitudeDegrees>40.97041237168014049530029296875</LatitudeDegrees>
              <LongitudeDegrees>-5.65394715406000614166259765625</LongitudeDegrees>
            </Position>
            <AltitudeMeters>781.20001220703125</AltitudeMeters>
            <DistanceMeters>NAN</DistanceMeters>
          </Trackpoint>
          <Trackpoint>
            <Time>2019-10-06T11:34:12.000Z</Time>
            <Position>
              <LatitudeDegrees>40.9703026525676250457763671875</LatitudeDegrees>
              <LongitudeDegrees>-5.65390775911509990692138671875</LongitudeDegrees>
            </Position>
            <AltitudeMeters>781</AltitudeMeters>
            <DistanceMeters>NAN</DistanceMeters>
          </Trackpoint>
          <Trackpoint>
            <Time>2019-10-06T11:34:13.000Z</Time>
            <Position>
              <LatitudeDegrees>40.97024071030318737030029296875</LatitudeDegrees>
              <LongitudeDegrees>-5.65390373580157756805419921875</LongitudeDegrees>
            </Position>
            <AltitudeMeters>780.5999755859375</AltitudeMeters>
            <DistanceMeters>NAN</DistanceMeters>
          </Trackpoint>
          <Trackpoint>
            <Time>2019-10-06T11:34:15.000Z</Time>
            <Position>
              <LatitudeDegrees>40.97011498175561428070068359375</LatitudeDegrees>
              <LongitudeDegrees>-5.65389744937419891357421875</LongitudeDegrees>
            </Position>
            <AltitudeMeters>779.4000244140625</AltitudeMeters>
            <DistanceMeters>NAN</DistanceMeters>
          </Trackpoint>
          <Trackpoint>
            <Time>2019-10-06T11:34:17.000Z</Time>
            <Position>
              <LatitudeDegrees>40.9700126387178897857666015625</LatitudeDegrees>
              <LongitudeDegrees>-5.65381991676986217498779296875</LongitudeDegrees>
            </Position>
            <AltitudeMeters>779</AltitudeMeters>
            <DistanceMeters>NAN</DistanceMeters>
          </Trackpoint>
          <Trackpoint>
            <Time>2019-10-06T11:34:18.000Z</Time>
            <Position>
              <LatitudeDegrees>40.969959832727909088134765625</LatitudeDegrees>
              <LongitudeDegrees>-5.65379024483263492584228515625</LongitudeDegrees>
            </Position>
            <AltitudeMeters>779.20001220703125</AltitudeMeters>
            <DistanceMeters>NAN</DistanceMeters>
          </Trackpoint>
          <Trackpoint>
            <Time>2019-10-06T11:34:24.000Z</Time>
            <Position>
              <LatitudeDegrees>40.96964928321540355682373046875</LatitudeDegrees>
              <LongitudeDegrees>-5.6536662764847278594970703125</LongitudeDegrees>
            </Position>
            <AltitudeMeters>779.79998779296875</AltitudeMeters>
            <DistanceMeters>NAN</DistanceMeters>
          </Trackpoint>
          <Trackpoint>
            <Time>2019-10-06T11:34:26.000Z</Time>
            <Position>
              <LatitudeDegrees>40.969551466405391693115234375</LatitudeDegrees>
              <LongitudeDegrees>-5.65362361259758472442626953125</LongitudeDegrees>
            </Position>
            <AltitudeMeters>780</AltitudeMeters>
            <DistanceMeters>NAN</DistanceMeters>
          </Trackpoint>
          <Trackpoint>
            <Time>2019-10-06T11:34:28.000Z</Time>
            <Position>
              <LatitudeDegrees>40.96945616416633129119873046875</LatitudeDegrees>
              <LongitudeDegrees>-5.65357449464499950408935546875</LongitudeDegrees>
            </Position>
            <AltitudeMeters>780.4000244140625</AltitudeMeters>
            <DistanceMeters>NAN</DistanceMeters>
          </Trackpoint>
          <Trackpoint>
            <Time>2019-10-06T11:34:30.000Z</Time>
            <Position>
              <LatitudeDegrees>40.96936949528753757476806640625</LatitudeDegrees>
              <LongitudeDegrees>-5.6535105407238006591796875</LongitudeDegrees>
            </Position>
            <AltitudeMeters>780.20001220703125</AltitudeMeters>
            <DistanceMeters>NAN</DistanceMeters>
          </Trackpoint>
          <Trackpoint>
            <Time>2019-10-06T11:34:31.000Z</Time>
            <Position>
              <LatitudeDegrees>40.96932775340974330902099609375</LatitudeDegrees>
              <LongitudeDegrees>-5.65347860567271709442138671875</LongitudeDegrees>
            </Position>
            <AltitudeMeters>780.4000244140625</AltitudeMeters>
            <DistanceMeters>NAN</DistanceMeters>
          </Trackpoint>
          <Trackpoint>
            <Time>2019-10-06T11:34:32.000Z</Time>
            <Position>
              <LatitudeDegrees>40.96928785555064678192138671875</LatitudeDegrees>
              <LongitudeDegrees>-5.653442479670047760009765625</LongitudeDegrees>
            </Position>
            <AltitudeMeters>780.5999755859375</AltitudeMeters>
            <DistanceMeters>NAN</DistanceMeters>
          </Trackpoint>
          <Trackpoint>
            <Time>2019-10-06T11:34:35.000Z</Time>
            <Position>
              <LatitudeDegrees>40.96919213421642780303955078125</LatitudeDegrees>
              <LongitudeDegrees>-5.65332454629242420196533203125</LongitudeDegrees>
            </Position>
            <AltitudeMeters>780.4000244140625</AltitudeMeters>
            <DistanceMeters>NAN</DistanceMeters>
          </Trackpoint>
          <Trackpoint>
            <Time>2019-10-06T11:34:37.000Z</Time>
            <Position>
              <LatitudeDegrees>40.96912876702845096588134765625</LatitudeDegrees>
              <LongitudeDegrees>-5.6532558985054492950439453125</LongitudeDegrees>
            </Position>
            <AltitudeMeters>780.79998779296875</AltitudeMeters>
            <DistanceMeters>NAN</DistanceMeters>
          </Trackpoint>
          <Trackpoint>
            <Time>2019-10-06T11:34:38.000Z</Time>
            <Position>
              <LatitudeDegrees>40.96909674815833568572998046875</LatitudeDegrees>
              <LongitudeDegrees>-5.65320946276187896728515625</LongitudeDegrees>
            </Position>
            <AltitudeMeters>780.79998779296875</AltitudeMeters>
            <DistanceMeters>NAN</DistanceMeters>
          </Trackpoint>
          <Trackpoint>
            <Time>2019-10-06T11:34:41.000Z</Time>
            <Position>
              <LatitudeDegrees>40.96904553472995758056640625</LatitudeDegrees>
              <LongitudeDegrees>-5.65312807448208332061767578125</LongitudeDegrees>
            </Position>
            <AltitudeMeters>781.20001220703125</AltitudeMeters>
            <DistanceMeters>NAN</DistanceMeters>
          </Trackpoint>
          <Trackpoint>
            <Time>2019-10-06T11:34:42.000Z</Time>
            <Position>
              <LatitudeDegrees>40.96904193051159381866455078125</LatitudeDegrees>
              <LongitudeDegrees>-5.65313260070979595184326171875</LongitudeDegrees>
            </Position>
            <AltitudeMeters>781.4000244140625</AltitudeMeters>
            <DistanceMeters>NAN</DistanceMeters>
          </Trackpoint>
          <Trackpoint>
            <Time>2019-10-06T11:34:44.000Z</Time>
            <Position>
              <LatitudeDegrees>40.96903153695166110992431640625</LatitudeDegrees>
              <LongitudeDegrees>-5.65312639810144901275634765625</LongitudeDegrees>
            </Position>
            <AltitudeMeters>782.20001220703125</AltitudeMeters>
            <DistanceMeters>NAN</DistanceMeters>
          </Trackpoint>
          <Trackpoint>
            <Time>2019-10-06T11:34:45.000Z</Time>
            <Position>
              <LatitudeDegrees>40.9690301120281219482421875</LatitudeDegrees>
              <LongitudeDegrees>-5.65312740392982959747314453125</LongitudeDegrees>
            </Position>
            <AltitudeMeters>782</AltitudeMeters>
            <DistanceMeters>NAN</DistanceMeters>
          </Trackpoint>
          <Trackpoint>
            <Time>2019-10-06T11:34:56.000Z</Time>
            <Position>
              <LatitudeDegrees>40.9690301120281219482421875</LatitudeDegrees>
              <LongitudeDegrees>-5.65312740392982959747314453125</LongitudeDegrees>
            </Position>
            <AltitudeMeters>782</AltitudeMeters>
            <DistanceMeters>NAN</DistanceMeters>
          </Trackpoint>
          <Trackpoint>
            <Time>2019-10-06T11:34:59.000Z</Time>
            <Position>
              <LatitudeDegrees>40.9690301120281219482421875</LatitudeDegrees>
              <LongitudeDegrees>-5.65312740392982959747314453125</LongitudeDegrees>
            </Position>
            <AltitudeMeters>782.20001220703125</AltitudeMeters>
            <DistanceMeters>NAN</DistanceMeters>
          </Trackpoint>
          <Trackpoint>
            <Time>2019-10-06T11:35:06.000Z</Time>
            <Position>
              <LatitudeDegrees>40.9690301120281219482421875</LatitudeDegrees>
              <LongitudeDegrees>-5.65312740392982959747314453125</LongitudeDegrees>
            </Position>
            <AltitudeMeters>782.20001220703125</AltitudeMeters>
            <DistanceMeters>NAN</DistanceMeters>
          </Trackpoint>
          <Trackpoint>
            <Time>2019-10-06T11:35:07.000Z</Time>
            <Position>
              <LatitudeDegrees>40.9690301120281219482421875</LatitudeDegrees>
              <LongitudeDegrees>-5.65312740392982959747314453125</LongitudeDegrees>
            </Position>
            <AltitudeMeters>782.20001220703125</AltitudeMeters>
            <DistanceMeters>NAN</DistanceMeters>
          </Trackpoint>
          <Trackpoint>
            <Time>2019-10-06T11:35:08.000Z</Time>
            <Position>
              <LatitudeDegrees>40.9690301120281219482421875</LatitudeDegrees>
              <LongitudeDegrees>-5.65312740392982959747314453125</LongitudeDegrees>
            </Position>
            <AltitudeMeters>782</AltitudeMeters>
            <DistanceMeters>NAN</DistanceMeters>
          </Trackpoint>
          <Trackpoint>
            <Time>2019-10-06T11:35:09.000Z</Time>
            <Position>
              <LatitudeDegrees>40.9690301120281219482421875</LatitudeDegrees>
              <LongitudeDegrees>-5.65312740392982959747314453125</LongitudeDegrees>
            </Position>
            <AltitudeMeters>782</AltitudeMeters>
            <DistanceMeters>NAN</DistanceMeters>
          </Trackpoint>
          <Trackpoint>
            <Time>2019-10-06T11:35:13.000Z</Time>
            <Position>
              <LatitudeDegrees>40.9690301120281219482421875</LatitudeDegrees>
              <LongitudeDegrees>-5.65312740392982959747314453125</LongitudeDegrees>
            </Position>
            <AltitudeMeters>782.4000244140625</AltitudeMeters>
            <DistanceMeters>NAN</DistanceMeters>
          </Trackpoint>
          <Trackpoint>
            <Time>2019-10-06T11:35:14.000Z</Time>
            <Position>
              <LatitudeDegrees>40.9690301120281219482421875</LatitudeDegrees>
              <LongitudeDegrees>-5.65312740392982959747314453125</LongitudeDegrees>
            </Position>
            <AltitudeMeters>782.4000244140625</AltitudeMeters>
            <DistanceMeters>NAN</DistanceMeters>
          </Trackpoint>
          <Trackpoint>
            <Time>2019-10-06T11:35:16.000Z</Time>
            <Position>
              <LatitudeDegrees>40.9690301120281219482421875</LatitudeDegrees>
              <LongitudeDegrees>-5.65312740392982959747314453125</LongitudeDegrees>
            </Position>
            <AltitudeMeters>782.20001220703125</AltitudeMeters>
            <DistanceMeters>NAN</DistanceMeters>
          </Trackpoint>
          <Trackpoint>
            <Time>2019-10-06T11:35:17.000Z</Time>
            <Position>
              <LatitudeDegrees>40.9690301120281219482421875</LatitudeDegrees>
              <LongitudeDegrees>-5.65312740392982959747314453125</LongitudeDegrees>
            </Position>
            <AltitudeMeters>782.20001220703125</AltitudeMeters>
            <DistanceMeters>NAN</DistanceMeters>
          </Trackpoint>
          <Trackpoint>
            <Time>2019-10-06T11:35:20.000Z</Time>
            <Position>
              <LatitudeDegrees>40.9690301120281219482421875</LatitudeDegrees>
              <LongitudeDegrees>-5.65312740392982959747314453125</LongitudeDegrees>
            </Position>
            <AltitudeMeters>782.20001220703125</AltitudeMeters>
            <DistanceMeters>NAN</DistanceMeters>
          </Trackpoint>
          <Trackpoint>
            <Time>2019-10-06T11:35:22.000Z</Time>
            <Position>
              <LatitudeDegrees>40.9690301120281219482421875</LatitudeDegrees>
              <LongitudeDegrees>-5.65312740392982959747314453125</LongitudeDegrees>
            </Position>
            <AltitudeMeters>782.4000244140625</AltitudeMeters>
            <DistanceMeters>NAN</DistanceMeters>
          </Trackpoint>
          <Trackpoint>
            <Time>2019-10-06T11:35:26.000Z</Time>
            <Position>
              <LatitudeDegrees>40.969012342393398284912109375</LatitudeDegrees>
              <LongitudeDegrees>-5.65311717800796031951904296875</LongitudeDegrees>
            </Position>
            <AltitudeMeters>782.20001220703125</AltitudeMeters>
            <DistanceMeters>NAN</DistanceMeters>
          </Trackpoint>
          <Trackpoint>
            <Time>2019-10-06T11:35:27.000Z</Time>
            <Position>
              <LatitudeDegrees>40.968993566930294036865234375</LatitudeDegrees>
              <LongitudeDegrees>-5.65309219993650913238525390625</LongitudeDegrees>
            </Position>
            <AltitudeMeters>782.4000244140625</AltitudeMeters>
            <DistanceMeters>NAN</DistanceMeters>
          </Trackpoint>
          <Trackpoint>
            <Time>2019-10-06T11:35:29.000Z</Time>
            <Position>
              <LatitudeDegrees>40.96894503571093082427978515625</LatitudeDegrees>
              <LongitudeDegrees>-5.65304526127874851226806640625</LongitudeDegrees>
            </Position>
            <AltitudeMeters>782.5999755859375</AltitudeMeters>
            <DistanceMeters>NAN</DistanceMeters>
          </Trackpoint>
          <Trackpoint>
            <Time>2019-10-06T11:35:30.000Z</Time>
            <Position>
              <LatitudeDegrees>40.96891276538372039794921875</LatitudeDegrees>
              <LongitudeDegrees>-5.65303109586238861083984375</LongitudeDegrees>
            </Position>
            <AltitudeMeters>782.4000244140625</AltitudeMeters>
            <DistanceMeters>NAN</DistanceMeters>
          </Trackpoint>
          <Trackpoint>
            <Time>2019-10-06T11:35:32.000Z</Time>
            <Position>
              <LatitudeDegrees>40.96883640624582767486572265625</LatitudeDegrees>
              <LongitudeDegrees>-5.65302631817758083343505859375</LongitudeDegrees>
            </Position>
            <AltitudeMeters>782.5999755859375</AltitudeMeters>
            <DistanceMeters>NAN</DistanceMeters>
          </Trackpoint>
          <Trackpoint>
            <Time>2019-10-06T11:35:34.000Z</Time>
            <Position>
              <LatitudeDegrees>40.96874906681478023529052734375</LatitudeDegrees>
              <LongitudeDegrees>-5.65304023213684558868408203125</LongitudeDegrees>
            </Position>
            <AltitudeMeters>783</AltitudeMeters>
            <DistanceMeters>NAN</DistanceMeters>
          </Trackpoint>
          <Trackpoint>
            <Time>2019-10-06T11:35:36.000Z</Time>
            <Position>
              <LatitudeDegrees>40.96864881925284862518310546875</LatitudeDegrees>
              <LongitudeDegrees>-5.65300083719193935394287109375</LongitudeDegrees>
            </Position>
            <AltitudeMeters>783.4000244140625</AltitudeMeters>
            <DistanceMeters>NAN</DistanceMeters>
          </Trackpoint>
          <Trackpoint>
            <Time>2019-10-06T11:35:37.000Z</Time>
            <Position>
              <LatitudeDegrees>40.96861059777438640594482421875</LatitudeDegrees>
              <LongitudeDegrees>-5.65296999178826808929443359375</LongitudeDegrees>
            </Position>
            <AltitudeMeters>783.5999755859375</AltitudeMeters>
            <DistanceMeters>NAN</DistanceMeters>
          </Trackpoint>
          <Trackpoint>
            <Time>2019-10-06T11:35:38.000Z</Time>
            <Position>
              <LatitudeDegrees>40.96857673488557338714599609375</LatitudeDegrees>
              <LongitudeDegrees>-5.65292204730212688446044921875</LongitudeDegrees>
            </Position>
            <AltitudeMeters>784</AltitudeMeters>
            <DistanceMeters>NAN</DistanceMeters>
          </Trackpoint>
          <Trackpoint>
            <Time>2019-10-06T11:35:40.000Z</Time>
            <Position>
              <LatitudeDegrees>40.96855108626186847686767578125</LatitudeDegrees>
              <LongitudeDegrees>-5.652809478342533111572265625</LongitudeDegrees>
            </Position>
            <AltitudeMeters>784.79998779296875</AltitudeMeters>
            <DistanceMeters>NAN</DistanceMeters>
          </Trackpoint>
          <Trackpoint>
            <Time>2019-10-06T11:35:41.000Z</Time>
            <Position>
              <LatitudeDegrees>40.968539603054523468017578125</LatitudeDegrees>
              <LongitudeDegrees>-5.65275306813418865203857421875</LongitudeDegrees>
            </Position>
            <AltitudeMeters>784.79998779296875</AltitudeMeters>
            <DistanceMeters>NAN</DistanceMeters>
          </Trackpoint>
          <Trackpoint>
            <Time>2019-10-06T11:35:43.000Z</Time>
            <Position>
              <LatitudeDegrees>40.968519486486911773681640625</LatitudeDegrees>
              <LongitudeDegrees>-5.6526420079171657562255859375</LongitudeDegrees>
            </Position>
            <AltitudeMeters>785</AltitudeMeters>
            <DistanceMeters>NAN</DistanceMeters>
          </Trackpoint>
          <Trackpoint>
            <Time>2019-10-06T11:35:44.000Z</Time>
            <Position>
              <LatitudeDegrees>40.96851889975368976593017578125</LatitudeDegrees>
              <LongitudeDegrees>-5.6525880284607410430908203125</LongitudeDegrees>
            </Position>
            <AltitudeMeters>785.20001220703125</AltitudeMeters>
            <DistanceMeters>NAN</DistanceMeters>
          </Trackpoint>
          <Trackpoint>
            <Time>2019-10-06T11:35:47.000Z</Time>
            <Position>
              <LatitudeDegrees>40.96852778457105159759521484375</LatitudeDegrees>
              <LongitudeDegrees>-5.65242751501500606536865234375</LongitudeDegrees>
            </Position>
            <AltitudeMeters>785.4000244140625</AltitudeMeters>
            <DistanceMeters>NAN</DistanceMeters>
          </Trackpoint>
          <Trackpoint>
            <Time>2019-10-06T11:35:48.000Z</Time>
            <Position>
              <LatitudeDegrees>40.96853197552263736724853515625</LatitudeDegrees>
              <LongitudeDegrees>-5.652372948825359344482421875</LongitudeDegrees>
            </Position>
            <AltitudeMeters>785.79998779296875</AltitudeMeters>
            <DistanceMeters>NAN</DistanceMeters>
          </Trackpoint>
          <Trackpoint>
            <Time>2019-10-06T11:35:52.000Z</Time>
            <Position>
              <LatitudeDegrees>40.96855997107923030853271484375</LatitudeDegrees>
              <LongitudeDegrees>-5.65215996466577053070068359375</LongitudeDegrees>
            </Position>
            <AltitudeMeters>786.5999755859375</AltitudeMeters>
            <DistanceMeters>NAN</DistanceMeters>
          </Trackpoint>
          <Trackpoint>
            <Time>2019-10-06T11:35:55.000Z</Time>
            <Position>
              <LatitudeDegrees>40.9685743041336536407470703125</LatitudeDegrees>
              <LongitudeDegrees>-5.652005486190319061279296875</LongitudeDegrees>
            </Position>
            <AltitudeMeters>786.79998779296875</AltitudeMeters>
            <DistanceMeters>NAN</DistanceMeters>
          </Trackpoint>
          <Trackpoint>
            <Time>2019-10-06T11:35:59.000Z</Time>
            <Position>
              <LatitudeDegrees>40.968569107353687286376953125</LatitudeDegrees>
              <LongitudeDegrees>-5.651800632476806640625</LongitudeDegrees>
            </Position>
            <AltitudeMeters>786.79998779296875</AltitudeMeters>
            <DistanceMeters>NAN</DistanceMeters>
          </Trackpoint>
          <Trackpoint>
            <Time>2019-10-06T11:36:01.000Z</Time>
            <Position>
              <LatitudeDegrees>40.9685689397156238555908203125</LatitudeDegrees>
              <LongitudeDegrees>-5.65169879235327243804931640625</LongitudeDegrees>
            </Position>
            <AltitudeMeters>787.20001220703125</AltitudeMeters>
            <DistanceMeters>NAN</DistanceMeters>
          </Trackpoint>
          <Trackpoint>
            <Time>2019-10-06T11:36:02.000Z</Time>
            <Position>
              <LatitudeDegrees>40.96857036463916301727294921875</LatitudeDegrees>
              <LongitudeDegrees>-5.65164330415427684783935546875</LongitudeDegrees>
            </Position>
            <AltitudeMeters>787.4000244140625</AltitudeMeters>
            <DistanceMeters>NAN</DistanceMeters>
          </Trackpoint>
          <Trackpoint>
            <Time>2019-10-06T11:36:04.000Z</Time>
            <Position>
              <LatitudeDegrees>40.96857639960944652557373046875</LatitudeDegrees>
              <LongitudeDegrees>-5.65154037438333034515380859375</LongitudeDegrees>
            </Position>
            <AltitudeMeters>787.79998779296875</AltitudeMeters>
            <DistanceMeters>NAN</DistanceMeters>
          </Trackpoint>
          <Trackpoint>
            <Time>2019-10-06T11:36:05.000Z</Time>
            <Position>
              <LatitudeDegrees>40.9685863740742206573486328125</LatitudeDegrees>
              <LongitudeDegrees>-5.651484467089176177978515625</LongitudeDegrees>
            </Position>
            <AltitudeMeters>788</AltitudeMeters>
            <DistanceMeters>NAN</DistanceMeters>
          </Trackpoint>
          <Trackpoint>
            <Time>2019-10-06T11:36:09.000Z</Time>
            <Position>
              <LatitudeDegrees>40.9686007909476757049560546875</LatitudeDegrees>
              <LongitudeDegrees>-5.65127517096698284149169921875</LongitudeDegrees>
            </Position>
            <AltitudeMeters>788.4000244140625</AltitudeMeters>
            <DistanceMeters>NAN</DistanceMeters>
          </Trackpoint>
          <Trackpoint>
            <Time>2019-10-06T11:36:13.000Z</Time>
            <Position>
              <LatitudeDegrees>40.96862752921879291534423828125</LatitudeDegrees>
              <LongitudeDegrees>-5.65105942077934741973876953125</LongitudeDegrees>
            </Position>
            <AltitudeMeters>789.20001220703125</AltitudeMeters>
            <DistanceMeters>NAN</DistanceMeters>
          </Trackpoint>
          <Trackpoint>
            <Time>2019-10-06T11:36:16.000Z</Time>
            <Position>
              <LatitudeDegrees>40.96863473765552043914794921875</LatitudeDegrees>
              <LongitudeDegrees>-5.65090854652225971221923828125</LongitudeDegrees>
            </Position>
            <AltitudeMeters>789.5999755859375</AltitudeMeters>
            <DistanceMeters>NAN</DistanceMeters>
          </Trackpoint>
          <Trackpoint>
            <Time>2019-10-06T11:36:22.000Z</Time>
            <Position>
              <LatitudeDegrees>40.968641526997089385986328125</LatitudeDegrees>
              <LongitudeDegrees>-5.6506182812154293060302734375</LongitudeDegrees>
            </Position>
            <AltitudeMeters>790.20001220703125</AltitudeMeters>
            <DistanceMeters>NAN</DistanceMeters>
          </Trackpoint>
          <Trackpoint>
            <Time>2019-10-06T11:36:24.000Z</Time>
            <Position>
              <LatitudeDegrees>40.96864278428256511688232421875</LatitudeDegrees>
              <LongitudeDegrees>-5.65053462982177734375</LongitudeDegrees>
            </Position>
            <AltitudeMeters>790.79998779296875</AltitudeMeters>
            <DistanceMeters>NAN</DistanceMeters>
          </Trackpoint>
          <Trackpoint>
            <Time>2019-10-06T11:36:31.000Z</Time>
            <Position>
              <LatitudeDegrees>40.9686557762324810028076171875</LatitudeDegrees>
              <LongitudeDegrees>-5.6502260081470012664794921875</LongitudeDegrees>
            </Position>
            <AltitudeMeters>791.4000244140625</AltitudeMeters>
            <DistanceMeters>NAN</DistanceMeters>
          </Trackpoint>
          <Trackpoint>
            <Time>2019-10-06T11:36:38.000Z</Time>
            <Position>
              <LatitudeDegrees>40.968677066266536712646484375</LatitudeDegrees>
              <LongitudeDegrees>-5.6498920731246471405029296875</LongitudeDegrees>
            </Position>
            <AltitudeMeters>792.4000244140625</AltitudeMeters>
            <DistanceMeters>NAN</DistanceMeters>
          </Trackpoint>
          <Trackpoint>
            <Time>2019-10-06T11:36:45.000Z</Time>
            <Position>
              <LatitudeDegrees>40.96868251450359821319580078125</LatitudeDegrees>
              <LongitudeDegrees>-5.6495561264455318450927734375</LongitudeDegrees>
            </Position>
            <AltitudeMeters>793.20001220703125</AltitudeMeters>
            <DistanceMeters>NAN</DistanceMeters>
          </Trackpoint>
          <Trackpoint>
            <Time>2019-10-06T11:36:48.000Z</Time>
            <Position>
              <LatitudeDegrees>40.9686879627406597137451171875</LatitudeDegrees>
              <LongitudeDegrees>-5.64941145479679107666015625</LongitudeDegrees>
            </Position>
            <AltitudeMeters>793.5999755859375</AltitudeMeters>
            <DistanceMeters>NAN</DistanceMeters>
          </Trackpoint>
          <Trackpoint>
            <Time>2019-10-06T11:36:50.000Z</Time>
            <Position>
              <LatitudeDegrees>40.96868335269391536712646484375</LatitudeDegrees>
              <LongitudeDegrees>-5.64933308400213718414306640625</LongitudeDegrees>
            </Position>
            <AltitudeMeters>793.79998779296875</AltitudeMeters>
            <DistanceMeters>NAN</DistanceMeters>
          </Trackpoint>
          <Trackpoint>
            <Time>2019-10-06T11:36:53.000Z</Time>
            <Position>
              <LatitudeDegrees>40.9686225838959217071533203125</LatitudeDegrees>
              <LongitudeDegrees>-5.64928312785923480987548828125</LongitudeDegrees>
            </Position>
            <AltitudeMeters>794.20001220703125</AltitudeMeters>
            <DistanceMeters>NAN</DistanceMeters>
          </Trackpoint>
          <Trackpoint>
            <Time>2019-10-06T11:36:57.000Z</Time>
            <Position>
              <LatitudeDegrees>40.9685862064361572265625</LatitudeDegrees>
              <LongitudeDegrees>-5.649274326860904693603515625</LongitudeDegrees>
            </Position>
            <AltitudeMeters>794</AltitudeMeters>
            <DistanceMeters>NAN</DistanceMeters>
          </Trackpoint>
          <Trackpoint>
            <Time>2019-10-06T11:36:58.000Z</Time>
            <Position>
              <LatitudeDegrees>40.96856533549726009368896484375</LatitudeDegrees>
              <LongitudeDegrees>-5.64927457831799983978271484375</LongitudeDegrees>
            </Position>
            <AltitudeMeters>793.5999755859375</AltitudeMeters>
            <DistanceMeters>NAN</DistanceMeters>
          </Trackpoint>
          <Trackpoint>
            <Time>2019-10-06T11:37:04.000Z</Time>
            <Position>
              <LatitudeDegrees>40.9684502519667148590087890625</LatitudeDegrees>
              <LongitudeDegrees>-5.64933543093502521514892578125</LongitudeDegrees>
            </Position>
            <AltitudeMeters>792.79998779296875</AltitudeMeters>
            <DistanceMeters>NAN</DistanceMeters>
          </Trackpoint>
          <Trackpoint>
            <Time>2019-10-06T11:37:08.000Z</Time>
            <Position>
              <LatitudeDegrees>40.9683676064014434814453125</LatitudeDegrees>
              <LongitudeDegrees>-5.64941472373902797698974609375</LongitudeDegrees>
            </Position>
            <AltitudeMeters>792.4000244140625</AltitudeMeters>
            <DistanceMeters>NAN</DistanceMeters>
          </Trackpoint>
          <Trackpoint>
            <Time>2019-10-06T11:37:09.000Z</Time>
            <Position>
              <LatitudeDegrees>40.9683493338525295257568359375</LatitudeDegrees>
              <LongitudeDegrees>-5.649447999894618988037109375</LongitudeDegrees>
            </Position>
            <AltitudeMeters>791.79998779296875</AltitudeMeters>
            <DistanceMeters>NAN</DistanceMeters>
          </Trackpoint>
          <Trackpoint>
            <Time>2019-10-06T11:37:10.000Z</Time>
            <Position>
              <LatitudeDegrees>40.96831505186855792999267578125</LatitudeDegrees>
              <LongitudeDegrees>-5.64947909675538539886474609375</LongitudeDegrees>
            </Position>
            <AltitudeMeters>791.79998779296875</AltitudeMeters>
            <DistanceMeters>NAN</DistanceMeters>
          </Trackpoint>
          <Trackpoint>
            <Time>2019-10-06T11:37:12.000Z</Time>
            <Position>
              <LatitudeDegrees>40.96826207824051380157470703125</LatitudeDegrees>
              <LongitudeDegrees>-5.6495326571166515350341796875</LongitudeDegrees>
            </Position>
            <AltitudeMeters>791.4000244140625</AltitudeMeters>
            <DistanceMeters>NAN</DistanceMeters>
          </Trackpoint>
          <Trackpoint>
            <Time>2019-10-06T11:37:14.000Z</Time>
            <Position>
              <LatitudeDegrees>40.96820239908993244171142578125</LatitudeDegrees>
              <LongitudeDegrees>-5.6496141292154788970947265625</LongitudeDegrees>
            </Position>
            <AltitudeMeters>790.5999755859375</AltitudeMeters>
            <DistanceMeters>NAN</DistanceMeters>
          </Trackpoint>
          <Trackpoint>
            <Time>2019-10-06T11:37:17.000Z</Time>
            <Position>
              <LatitudeDegrees>40.96811723895370960235595703125</LatitudeDegrees>
              <LongitudeDegrees>-5.649713538587093353271484375</LongitudeDegrees>
            </Position>
            <AltitudeMeters>790.79998779296875</AltitudeMeters>
            <DistanceMeters>NAN</DistanceMeters>
          </Trackpoint>
          <Trackpoint>
            <Time>2019-10-06T11:37:18.000Z</Time>
            <Position>
              <LatitudeDegrees>40.968079604208469390869140625</LatitudeDegrees>
              <LongitudeDegrees>-5.64974346198141574859619140625</LongitudeDegrees>
            </Position>
            <AltitudeMeters>790.20001220703125</AltitudeMeters>
            <DistanceMeters>NAN</DistanceMeters>
          </Trackpoint>
          <Trackpoint>
            <Time>2019-10-06T11:37:20.000Z</Time>
            <Position>
              <LatitudeDegrees>40.9680301509797573089599609375</LatitudeDegrees>
              <LongitudeDegrees>-5.64980716444551944732666015625</LongitudeDegrees>
            </Position>
            <AltitudeMeters>790.79998779296875</AltitudeMeters>
            <DistanceMeters>NAN</DistanceMeters>
          </Trackpoint>
          <Trackpoint>
            <Time>2019-10-06T11:37:22.000Z</Time>
            <Position>
              <LatitudeDegrees>40.96797466278076171875</LatitudeDegrees>
              <LongitudeDegrees>-5.64986734651029109954833984375</LongitudeDegrees>
            </Position>
            <AltitudeMeters>791</AltitudeMeters>
            <DistanceMeters>NAN</DistanceMeters>
          </Trackpoint>
          <Trackpoint>
            <Time>2019-10-06T11:37:24.000Z</Time>
            <Position>
              <LatitudeDegrees>40.96792638301849365234375</LatitudeDegrees>
              <LongitudeDegrees>-5.64991646446287631988525390625</LongitudeDegrees>
            </Position>
            <AltitudeMeters>791</AltitudeMeters>
            <DistanceMeters>NAN</DistanceMeters>
          </Trackpoint>
          <Trackpoint>
            <Time>2019-10-06T11:37:28.000Z</Time>
            <Position>
              <LatitudeDegrees>40.9678333438932895660400390625</LatitudeDegrees>
              <LongitudeDegrees>-5.65003347583115100860595703125</LongitudeDegrees>
            </Position>
            <AltitudeMeters>791.20001220703125</AltitudeMeters>
            <DistanceMeters>NAN</DistanceMeters>
          </Trackpoint>
          <Trackpoint>
            <Time>2019-10-06T11:37:29.000Z</Time>
            <Position>
              <LatitudeDegrees>40.9678115509450435638427734375</LatitudeDegrees>
              <LongitudeDegrees>-5.6500519998371601104736328125</LongitudeDegrees>
            </Position>
            <AltitudeMeters>791.5999755859375</AltitudeMeters>
            <DistanceMeters>NAN</DistanceMeters>
          </Trackpoint>
          <Trackpoint>
            <Time>2019-10-06T11:37:30.000Z</Time>
            <Position>
              <LatitudeDegrees>40.96778531558811664581298828125</LatitudeDegrees>
              <LongitudeDegrees>-5.65004856325685977935791015625</LongitudeDegrees>
            </Position>
            <AltitudeMeters>791.5999755859375</AltitudeMeters>
            <DistanceMeters>NAN</DistanceMeters>
          </Trackpoint>
          <Trackpoint>
            <Time>2019-10-06T11:37:32.000Z</Time>
            <Position>
              <LatitudeDegrees>40.9677428193390369415283203125</LatitudeDegrees>
              <LongitudeDegrees>-5.650076307356357574462890625</LongitudeDegrees>
            </Position>
            <AltitudeMeters>791.20001220703125</AltitudeMeters>
            <DistanceMeters>NAN</DistanceMeters>
          </Trackpoint>
          <Trackpoint>
            <Time>2019-10-06T11:37:34.000Z</Time>
            <Position>
              <LatitudeDegrees>40.96769143827259540557861328125</LatitudeDegrees>
              <LongitudeDegrees>-5.65008879639208316802978515625</LongitudeDegrees>
            </Position>
            <AltitudeMeters>791.79998779296875</AltitudeMeters>
            <DistanceMeters>NAN</DistanceMeters>
          </Trackpoint>
          <Trackpoint>
            <Time>2019-10-06T11:37:36.000Z</Time>
            <Position>
              <LatitudeDegrees>40.967647768557071685791015625</LatitudeDegrees>
              <LongitudeDegrees>-5.65009231679141521453857421875</LongitudeDegrees>
            </Position>
            <AltitudeMeters>792</AltitudeMeters>
            <DistanceMeters>NAN</DistanceMeters>
          </Trackpoint>
          <Trackpoint>
            <Time>2019-10-06T11:37:40.000Z</Time>
            <Position>
              <LatitudeDegrees>40.9675681404769420623779296875</LatitudeDegrees>
              <LongitudeDegrees>-5.65016943030059337615966796875</LongitudeDegrees>
            </Position>
            <AltitudeMeters>792</AltitudeMeters>
            <DistanceMeters>NAN</DistanceMeters>
          </Trackpoint>
          <Trackpoint>
            <Time>2019-10-06T11:37:42.000Z</Time>
            <Position>
              <LatitudeDegrees>40.96752581186592578887939453125</LatitudeDegrees>
              <LongitudeDegrees>-5.6501998566091060638427734375</LongitudeDegrees>
            </Position>
            <AltitudeMeters>792</AltitudeMeters>
            <DistanceMeters>NAN</DistanceMeters>
          </Trackpoint>
          <Trackpoint>
            <Time>2019-10-06T11:37:45.000Z</Time>
            <Position>
              <LatitudeDegrees>40.96743662841618061065673828125</LatitudeDegrees>
              <LongitudeDegrees>-5.65026171505451202392578125</LongitudeDegrees>
            </Position>
            <AltitudeMeters>792.20001220703125</AltitudeMeters>
            <DistanceMeters>NAN</DistanceMeters>
          </Trackpoint>
          <Trackpoint>
            <Time>2019-10-06T11:37:48.000Z</Time>
            <Position>
              <LatitudeDegrees>40.967381559312343597412109375</LatitudeDegrees>
              <LongitudeDegrees>-5.6502685882151126861572265625</LongitudeDegrees>
            </Position>
            <AltitudeMeters>792.4000244140625</AltitudeMeters>
            <DistanceMeters>NAN</DistanceMeters>
          </Trackpoint>
          <Trackpoint>
            <Time>2019-10-06T11:37:49.000Z</Time>
            <Position>
              <LatitudeDegrees>40.9673652984201908111572265625</LatitudeDegrees>
              <LongitudeDegrees>-5.65026666037738323211669921875</LongitudeDegrees>
            </Position>
            <AltitudeMeters>792.5999755859375</AltitudeMeters>
            <DistanceMeters>NAN</DistanceMeters>
          </Trackpoint>
          <Trackpoint>
            <Time>2019-10-06T11:37:50.000Z</Time>
            <Position>
              <LatitudeDegrees>40.96736236475408077239990234375</LatitudeDegrees>
              <LongitudeDegrees>-5.65026397816836833953857421875</LongitudeDegrees>
            </Position>
            <AltitudeMeters>792.5999755859375</AltitudeMeters>
            <DistanceMeters>NAN</DistanceMeters>
          </Trackpoint>
          <Trackpoint>
            <Time>2019-10-06T11:37:54.000Z</Time>
            <Position>
              <LatitudeDegrees>40.96735415048897266387939453125</LatitudeDegrees>
              <LongitudeDegrees>-5.65026364289224147796630859375</LongitudeDegrees>
            </Position>
            <AltitudeMeters>792.5999755859375</AltitudeMeters>
            <DistanceMeters>NAN</DistanceMeters>
          </Trackpoint>
          <Trackpoint>
            <Time>2019-10-06T11:37:59.000Z</Time>
            <Position>
              <LatitudeDegrees>40.96735415048897266387939453125</LatitudeDegrees>
              <LongitudeDegrees>-5.65026364289224147796630859375</LongitudeDegrees>
            </Position>
            <AltitudeMeters>792.5999755859375</AltitudeMeters>
            <DistanceMeters>NAN</DistanceMeters>
          </Trackpoint>
          <Trackpoint>
            <Time>2019-10-06T11:38:01.000Z</Time>
            <Position>
              <LatitudeDegrees>40.96735415048897266387939453125</LatitudeDegrees>
              <LongitudeDegrees>-5.65026364289224147796630859375</LongitudeDegrees>
            </Position>
            <AltitudeMeters>792.79998779296875</AltitudeMeters>
            <DistanceMeters>NAN</DistanceMeters>
          </Trackpoint>
          <Trackpoint>
            <Time>2019-10-06T11:38:10.000Z</Time>
            <Position>
              <LatitudeDegrees>40.96735415048897266387939453125</LatitudeDegrees>
              <LongitudeDegrees>-5.65026364289224147796630859375</LongitudeDegrees>
            </Position>
            <AltitudeMeters>792.5999755859375</AltitudeMeters>
            <DistanceMeters>NAN</DistanceMeters>
          </Trackpoint>
          <Trackpoint>
            <Time>2019-10-06T11:38:15.000Z</Time>
            <Position>
              <LatitudeDegrees>40.9673495404422283172607421875</LatitudeDegrees>
              <LongitudeDegrees>-5.650249309837818145751953125</LongitudeDegrees>
            </Position>
            <AltitudeMeters>792.79998779296875</AltitudeMeters>
            <DistanceMeters>NAN</DistanceMeters>
          </Trackpoint>
          <Trackpoint>
            <Time>2019-10-06T11:38:16.000Z</Time>
            <Position>
              <LatitudeDegrees>40.96735096536576747894287109375</LatitudeDegrees>
              <LongitudeDegrees>-5.6502387486398220062255859375</LongitudeDegrees>
            </Position>
            <AltitudeMeters>792.5999755859375</AltitudeMeters>
            <DistanceMeters>NAN</DistanceMeters>
          </Trackpoint>
          <Trackpoint>
            <Time>2019-10-06T11:38:20.000Z</Time>
            <Position>
              <LatitudeDegrees>40.9673941321671009063720703125</LatitudeDegrees>
              <LongitudeDegrees>-5.65025224350392818450927734375</LongitudeDegrees>
            </Position>
            <AltitudeMeters>791.4000244140625</AltitudeMeters>
            <DistanceMeters>NAN</DistanceMeters>
          </Trackpoint>
          <Trackpoint>
            <Time>2019-10-06T11:38:23.000Z</Time>
            <Position>
              <LatitudeDegrees>40.967435538768768310546875</LatitudeDegrees>
              <LongitudeDegrees>-5.65032047219574451446533203125</LongitudeDegrees>
            </Position>
            <AltitudeMeters>791.4000244140625</AltitudeMeters>
            <DistanceMeters>NAN</DistanceMeters>
          </Trackpoint>
          <Trackpoint>
            <Time>2019-10-06T11:38:25.000Z</Time>
            <Position>
              <LatitudeDegrees>40.96748448908329010009765625</LatitudeDegrees>
              <LongitudeDegrees>-5.65035467036068439483642578125</LongitudeDegrees>
            </Position>
            <AltitudeMeters>791.5999755859375</AltitudeMeters>
            <DistanceMeters>NAN</DistanceMeters>
          </Trackpoint>
          <Trackpoint>
            <Time>2019-10-06T11:38:27.000Z</Time>
            <Position>
              <LatitudeDegrees>40.96753486432135105133056640625</LatitudeDegrees>
              <LongitudeDegrees>-5.650392472743988037109375</LongitudeDegrees>
            </Position>
            <AltitudeMeters>791.4000244140625</AltitudeMeters>
            <DistanceMeters>NAN</DistanceMeters>
          </Trackpoint>
          <Trackpoint>
            <Time>2019-10-06T11:38:29.000Z</Time>
            <Position>
              <LatitudeDegrees>40.9675916098058223724365234375</LatitudeDegrees>
              <LongitudeDegrees>-5.65042256377637386322021484375</LongitudeDegrees>
            </Position>
            <AltitudeMeters>791.4000244140625</AltitudeMeters>
            <DistanceMeters>NAN</DistanceMeters>
          </Trackpoint>
          <Trackpoint>
            <Time>2019-10-06T11:38:32.000Z</Time>
            <Position>
              <LatitudeDegrees>40.9676871635019779205322265625</LatitudeDegrees>
              <LongitudeDegrees>-5.650462210178375244140625</LongitudeDegrees>
            </Position>
            <AltitudeMeters>791.4000244140625</AltitudeMeters>
            <DistanceMeters>NAN</DistanceMeters>
          </Trackpoint>
          <Trackpoint>
            <Time>2019-10-06T11:38:38.000Z</Time>
            <Position>
              <LatitudeDegrees>40.9679014049470424652099609375</LatitudeDegrees>
              <LongitudeDegrees>-5.6505508907139301300048828125</LongitudeDegrees>
            </Position>
            <AltitudeMeters>790.5999755859375</AltitudeMeters>
            <DistanceMeters>NAN</DistanceMeters>
          </Trackpoint>
          <Trackpoint>
            <Time>2019-10-06T11:38:39.000Z</Time>
            <Position>
              <LatitudeDegrees>40.96793786622583866119384765625</LatitudeDegrees>
              <LongitudeDegrees>-5.65057025291025638580322265625</LongitudeDegrees>
            </Position>
            <AltitudeMeters>790.4000244140625</AltitudeMeters>
            <DistanceMeters>NAN</DistanceMeters>
          </Trackpoint>
          <Trackpoint>
            <Time>2019-10-06T11:38:45.000Z</Time>
            <Position>
              <LatitudeDegrees>40.9681733138859272003173828125</LatitudeDegrees>
              <LongitudeDegrees>-5.65067318268120288848876953125</LongitudeDegrees>
            </Position>
            <AltitudeMeters>790.20001220703125</AltitudeMeters>
            <DistanceMeters>NAN</DistanceMeters>
          </Trackpoint>
          <Trackpoint>
            <Time>2019-10-06T11:38:49.000Z</Time>
            <Position>
              <LatitudeDegrees>40.96830231137573719024658203125</LatitudeDegrees>
              <LongitudeDegrees>-5.650708973407745361328125</LongitudeDegrees>
            </Position>
            <AltitudeMeters>789.79998779296875</AltitudeMeters>
            <DistanceMeters>NAN</DistanceMeters>
          </Trackpoint>
          <Trackpoint>
            <Time>2019-10-06T11:38:53.000Z</Time>
            <Position>
              <LatitudeDegrees>40.96836559474468231201171875</LatitudeDegrees>
              <LongitudeDegrees>-5.65070738084614276885986328125</LongitudeDegrees>
            </Position>
            <AltitudeMeters>790.5999755859375</AltitudeMeters>
            <DistanceMeters>NAN</DistanceMeters>
          </Trackpoint>
          <Trackpoint>
            <Time>2019-10-06T11:38:56.000Z</Time>
            <Position>
              <LatitudeDegrees>40.9683922491967678070068359375</LatitudeDegrees>
              <LongitudeDegrees>-5.6506843306124210357666015625</LongitudeDegrees>
            </Position>
            <AltitudeMeters>790.20001220703125</AltitudeMeters>
            <DistanceMeters>NAN</DistanceMeters>
          </Trackpoint>
          <Trackpoint>
            <Time>2019-10-06T11:38:59.000Z</Time>
            <Position>
              <LatitudeDegrees>40.96839685924351215362548828125</LatitudeDegrees>
              <LongitudeDegrees>-5.65068374387919902801513671875</LongitudeDegrees>
            </Position>
            <AltitudeMeters>791</AltitudeMeters>
            <DistanceMeters>NAN</DistanceMeters>
          </Trackpoint>
          <Trackpoint>
            <Time>2019-10-06T11:39:04.000Z</Time>
            <Position>
              <LatitudeDegrees>40.9684596396982669830322265625</LatitudeDegrees>
              <LongitudeDegrees>-5.650727413594722747802734375</LongitudeDegrees>
            </Position>
            <AltitudeMeters>790.5999755859375</AltitudeMeters>
            <DistanceMeters>NAN</DistanceMeters>
          </Trackpoint>
          <Trackpoint>
            <Time>2019-10-06T11:39:05.000Z</Time>
            <Position>
              <LatitudeDegrees>40.96846005879342555999755859375</LatitudeDegrees>
              <LongitudeDegrees>-5.650751553475856781005859375</LongitudeDegrees>
            </Position>
            <AltitudeMeters>790.5999755859375</AltitudeMeters>
            <DistanceMeters>NAN</DistanceMeters>
          </Trackpoint>
          <Trackpoint>
            <Time>2019-10-06T11:39:06.000Z</Time>
            <Position>
              <LatitudeDegrees>40.96845637075603008270263671875</LatitudeDegrees>
              <LongitudeDegrees>-5.650775022804737091064453125</LongitudeDegrees>
            </Position>
            <AltitudeMeters>790.20001220703125</AltitudeMeters>
            <DistanceMeters>NAN</DistanceMeters>
          </Trackpoint>
          <Trackpoint>
            <Time>2019-10-06T11:39:09.000Z</Time>
            <Position>
              <LatitudeDegrees>40.96849392168223857879638671875</LatitudeDegrees>
              <LongitudeDegrees>-5.65077058039605617523193359375</LongitudeDegrees>
            </Position>
            <AltitudeMeters>790</AltitudeMeters>
            <DistanceMeters>NAN</DistanceMeters>
          </Trackpoint>
          <Trackpoint>
            <Time>2019-10-06T11:39:12.000Z</Time>
            <Position>
              <LatitudeDegrees>40.968519151210784912109375</LatitudeDegrees>
              <LongitudeDegrees>-5.6506870128214359283447265625</LongitudeDegrees>
            </Position>
            <AltitudeMeters>790.20001220703125</AltitudeMeters>
            <DistanceMeters>NAN</DistanceMeters>
          </Trackpoint>
          <Trackpoint>
            <Time>2019-10-06T11:39:14.000Z</Time>
            <Position>
              <LatitudeDegrees>40.96852912567555904388427734375</LatitudeDegrees>
              <LongitudeDegrees>-5.650626830756664276123046875</LongitudeDegrees>
            </Position>
            <AltitudeMeters>790.4000244140625</AltitudeMeters>
            <DistanceMeters>NAN</DistanceMeters>
          </Trackpoint>
          <Trackpoint>
            <Time>2019-10-06T11:39:17.000Z</Time>
            <Position>
              <LatitudeDegrees>40.96854127943515777587890625</LatitudeDegrees>
              <LongitudeDegrees>-5.6505264155566692352294921875</LongitudeDegrees>
            </Position>
            <AltitudeMeters>790.4000244140625</AltitudeMeters>
            <DistanceMeters>NAN</DistanceMeters>
          </Trackpoint>
          <Trackpoint>
            <Time>2019-10-06T11:39:20.000Z</Time>
            <Position>
              <LatitudeDegrees>40.9685464762151241302490234375</LatitudeDegrees>
              <LongitudeDegrees>-5.65042641945183277130126953125</LongitudeDegrees>
            </Position>
            <AltitudeMeters>790.79998779296875</AltitudeMeters>
            <DistanceMeters>NAN</DistanceMeters>
          </Trackpoint>
          <Trackpoint>
            <Time>2019-10-06T11:39:21.000Z</Time>
            <Position>
              <LatitudeDegrees>40.96855242736637592315673828125</LatitudeDegrees>
              <LongitudeDegrees>-5.65039373002946376800537109375</LongitudeDegrees>
            </Position>
            <AltitudeMeters>791.20001220703125</AltitudeMeters>
            <DistanceMeters>NAN</DistanceMeters>
          </Trackpoint>
          <Trackpoint>
            <Time>2019-10-06T11:39:23.000Z</Time>
            <Position>
              <LatitudeDegrees>40.96857069991528987884521484375</LatitudeDegrees>
              <LongitudeDegrees>-5.6503269262611865997314453125</LongitudeDegrees>
            </Position>
            <AltitudeMeters>791.4000244140625</AltitudeMeters>
            <DistanceMeters>NAN</DistanceMeters>
          </Trackpoint>
          <Trackpoint>
            <Time>2019-10-06T11:39:26.000Z</Time>
            <Position>
              <LatitudeDegrees>40.968583859503269195556640625</LatitudeDegrees>
              <LongitudeDegrees>-5.65022818744182586669921875</LongitudeDegrees>
            </Position>
            <AltitudeMeters>791.79998779296875</AltitudeMeters>
            <DistanceMeters>NAN</DistanceMeters>
          </Trackpoint>
          <Trackpoint>
            <Time>2019-10-06T11:39:30.000Z</Time>
            <Position>
              <LatitudeDegrees>40.96860137768089771270751953125</LatitudeDegrees>
              <LongitudeDegrees>-5.6500878743827342987060546875</LongitudeDegrees>
            </Position>
            <AltitudeMeters>792</AltitudeMeters>
            <DistanceMeters>NAN</DistanceMeters>
          </Trackpoint>
          <Trackpoint>
            <Time>2019-10-06T11:39:31.000Z</Time>
            <Position>
              <LatitudeDegrees>40.96860506571829319000244140625</LatitudeDegrees>
              <LongitudeDegrees>-5.65005376003682613372802734375</LongitudeDegrees>
            </Position>
            <AltitudeMeters>792.5999755859375</AltitudeMeters>
            <DistanceMeters>NAN</DistanceMeters>
          </Trackpoint>
          <Trackpoint>
            <Time>2019-10-06T11:39:34.000Z</Time>
            <Position>
              <LatitudeDegrees>40.96862199716269969940185546875</LatitudeDegrees>
              <LongitudeDegrees>-5.6499490700662136077880859375</LongitudeDegrees>
            </Position>
            <AltitudeMeters>792.79998779296875</AltitudeMeters>
            <DistanceMeters>NAN</DistanceMeters>
          </Trackpoint>
          <Trackpoint>
            <Time>2019-10-06T11:39:38.000Z</Time>
            <Position>
              <LatitudeDegrees>40.96863725222647190093994140625</LatitudeDegrees>
              <LongitudeDegrees>-5.6497945077717304229736328125</LongitudeDegrees>
            </Position>
            <AltitudeMeters>793.20001220703125</AltitudeMeters>
            <DistanceMeters>NAN</DistanceMeters>
          </Trackpoint>
          <Trackpoint>
            <Time>2019-10-06T11:39:41.000Z</Time>
            <Position>
              <LatitudeDegrees>40.9686564467847347259521484375</LatitudeDegrees>
              <LongitudeDegrees>-5.64967120997607707977294921875</LongitudeDegrees>
            </Position>
            <AltitudeMeters>792.79998779296875</AltitudeMeters>
            <DistanceMeters>NAN</DistanceMeters>
          </Trackpoint>
          <Trackpoint>
            <Time>2019-10-06T11:39:43.000Z</Time>
            <Position>
              <LatitudeDegrees>40.96866323612630367279052734375</LatitudeDegrees>
              <LongitudeDegrees>-5.64959585666656494140625</LongitudeDegrees>
            </Position>
            <AltitudeMeters>793.20001220703125</AltitudeMeters>
            <DistanceMeters>NAN</DistanceMeters>
          </Trackpoint>
          <Trackpoint>
            <Time>2019-10-06T11:39:46.000Z</Time>
            <Position>
              <LatitudeDegrees>40.968664996325969696044921875</LatitudeDegrees>
              <LongitudeDegrees>-5.64948328770697116851806640625</LongitudeDegrees>
            </Position>
            <AltitudeMeters>793.5999755859375</AltitudeMeters>
            <DistanceMeters>NAN</DistanceMeters>
          </Trackpoint>
          <Trackpoint>
            <Time>2019-10-06T11:39:47.000Z</Time>
            <Position>
              <LatitudeDegrees>40.96865166909992694854736328125</LatitudeDegrees>
              <LongitudeDegrees>-5.64945328049361705780029296875</LongitudeDegrees>
            </Position>
            <AltitudeMeters>793.79998779296875</AltitudeMeters>
            <DistanceMeters>NAN</DistanceMeters>
          </Trackpoint>
          <Trackpoint>
            <Time>2019-10-06T11:39:50.000Z</Time>
            <Position>
              <LatitudeDegrees>40.968592576682567596435546875</LatitudeDegrees>
              <LongitudeDegrees>-5.64944305457174777984619140625</LongitudeDegrees>
            </Position>
            <AltitudeMeters>793.79998779296875</AltitudeMeters>
            <DistanceMeters>NAN</DistanceMeters>
          </Trackpoint>
          <Trackpoint>
            <Time>2019-10-06T11:39:51.000Z</Time>
            <Position>
              <LatitudeDegrees>40.9685686044394969940185546875</LatitudeDegrees>
              <LongitudeDegrees>-5.64945009537041187286376953125</LongitudeDegrees>
            </Position>
            <AltitudeMeters>793.79998779296875</AltitudeMeters>
            <DistanceMeters>NAN</DistanceMeters>
          </Trackpoint>
          <Trackpoint>
            <Time>2019-10-06T11:39:55.000Z</Time>
            <Position>
              <LatitudeDegrees>40.96850381232798099517822265625</LatitudeDegrees>
              <LongitudeDegrees>-5.64949552528560161590576171875</LongitudeDegrees>
            </Position>
            <AltitudeMeters>793.20001220703125</AltitudeMeters>
            <DistanceMeters>NAN</DistanceMeters>
          </Trackpoint>
          <Trackpoint>
            <Time>2019-10-06T11:39:58.000Z</Time>
            <Position>
              <LatitudeDegrees>40.9684596396982669830322265625</LatitudeDegrees>
              <LongitudeDegrees>-5.64953559078276157379150390625</LongitudeDegrees>
            </Position>
            <AltitudeMeters>792.5999755859375</AltitudeMeters>
            <DistanceMeters>NAN</DistanceMeters>
          </Trackpoint>
          <Trackpoint>
            <Time>2019-10-06T11:40:00.000Z</Time>
            <Position>
              <LatitudeDegrees>40.968425609171390533447265625</LatitudeDegrees>
              <LongitudeDegrees>-5.64957817085087299346923828125</LongitudeDegrees>
            </Position>
            <AltitudeMeters>792.20001220703125</AltitudeMeters>
            <DistanceMeters>NAN</DistanceMeters>
          </Trackpoint>
          <Trackpoint>
            <Time>2019-10-06T11:40:04.000Z</Time>
            <Position>
              <LatitudeDegrees>40.9683486633002758026123046875</LatitudeDegrees>
              <LongitudeDegrees>-5.649657882750034332275390625</LongitudeDegrees>
            </Position>
            <AltitudeMeters>792</AltitudeMeters>
            <DistanceMeters>NAN</DistanceMeters>
          </Trackpoint>
          <Trackpoint>
            <Time>2019-10-06T11:40:05.000Z</Time>
            <Position>
              <LatitudeDegrees>40.9683285467326641082763671875</LatitudeDegrees>
              <LongitudeDegrees>-5.64967967569828033447265625</LongitudeDegrees>
            </Position>
            <AltitudeMeters>791.4000244140625</AltitudeMeters>
            <DistanceMeters>NAN</DistanceMeters>
          </Trackpoint>
          <Trackpoint>
            <Time>2019-10-06T11:40:08.000Z</Time>
            <Position>
              <LatitudeDegrees>40.96826576627790927886962890625</LatitudeDegrees>
              <LongitudeDegrees>-5.6497539393603801727294921875</LongitudeDegrees>
            </Position>
            <AltitudeMeters>791.20001220703125</AltitudeMeters>
            <DistanceMeters>NAN</DistanceMeters>
          </Trackpoint>
          <Trackpoint>
            <Time>2019-10-06T11:40:09.000Z</Time>
            <Position>
              <LatitudeDegrees>40.96824313513934612274169921875</LatitudeDegrees>
              <LongitudeDegrees>-5.64977665431797504425048828125</LongitudeDegrees>
            </Position>
            <AltitudeMeters>791</AltitudeMeters>
            <DistanceMeters>NAN</DistanceMeters>
          </Trackpoint>
          <Trackpoint>
            <Time>2019-10-06T11:40:10.000Z</Time>
            <Position>
              <LatitudeDegrees>40.96822067163884639739990234375</LatitudeDegrees>
              <LongitudeDegrees>-5.6497968547046184539794921875</LongitudeDegrees>
            </Position>
            <AltitudeMeters>791</AltitudeMeters>
            <DistanceMeters>NAN</DistanceMeters>
          </Trackpoint>
          <Trackpoint>
            <Time>2019-10-06T11:40:13.000Z</Time>
            <Position>
              <LatitudeDegrees>40.9681498445570468902587890625</LatitudeDegrees>
              <LongitudeDegrees>-5.6498253531754016876220703125</LongitudeDegrees>
            </Position>
            <AltitudeMeters>791.5999755859375</AltitudeMeters>
            <DistanceMeters>NAN</DistanceMeters>
          </Trackpoint>
          <Trackpoint>
            <Time>2019-10-06T11:40:14.000Z</Time>
            <Position>
              <LatitudeDegrees>40.96812411211431026458740234375</LatitudeDegrees>
              <LongitudeDegrees>-5.64981152303516864776611328125</LongitudeDegrees>
            </Position>
            <AltitudeMeters>791.5999755859375</AltitudeMeters>
            <DistanceMeters>NAN</DistanceMeters>
          </Trackpoint>
          <Trackpoint>
            <Time>2019-10-06T11:40:20.000Z</Time>
            <Position>
              <LatitudeDegrees>40.96796862781047821044921875</LatitudeDegrees>
              <LongitudeDegrees>-5.64971186220645904541015625</LongitudeDegrees>
            </Position>
            <AltitudeMeters>792.4000244140625</AltitudeMeters>
            <DistanceMeters>NAN</DistanceMeters>
          </Trackpoint>
          <Trackpoint>
            <Time>2019-10-06T11:40:21.000Z</Time>
            <Position>
              <LatitudeDegrees>40.967933423817157745361328125</LatitudeDegrees>
              <LongitudeDegrees>-5.649708844721317291259765625</LongitudeDegrees>
            </Position>
            <AltitudeMeters>792.4000244140625</AltitudeMeters>
            <DistanceMeters>NAN</DistanceMeters>
          </Trackpoint>
          <Trackpoint>
            <Time>2019-10-06T11:40:25.000Z</Time>
            <Position>
              <LatitudeDegrees>40.96780442632734775543212890625</LatitudeDegrees>
              <LongitudeDegrees>-5.6496436335146427154541015625</LongitudeDegrees>
            </Position>
            <AltitudeMeters>793.20001220703125</AltitudeMeters>
            <DistanceMeters>NAN</DistanceMeters>
          </Trackpoint>
          <Trackpoint>
            <Time>2019-10-06T11:40:26.000Z</Time>
            <Position>
              <LatitudeDegrees>40.96777684986591339111328125</LatitudeDegrees>
              <LongitudeDegrees>-5.6496241874992847442626953125</LongitudeDegrees>
            </Position>
            <AltitudeMeters>793.4000244140625</AltitudeMeters>
            <DistanceMeters>NAN</DistanceMeters>
          </Trackpoint>
          <Trackpoint>
            <Time>2019-10-06T11:40:28.000Z</Time>
            <Position>
              <LatitudeDegrees>40.96771650016307830810546875</LatitudeDegrees>
              <LongitudeDegrees>-5.64959493465721607208251953125</LongitudeDegrees>
            </Position>
            <AltitudeMeters>793.79998779296875</AltitudeMeters>
            <DistanceMeters>NAN</DistanceMeters>
          </Trackpoint>
          <Trackpoint>
            <Time>2019-10-06T11:40:30.000Z</Time>
            <Position>
              <LatitudeDegrees>40.96767685376107692718505859375</LatitudeDegrees>
              <LongitudeDegrees>-5.64957750029861927032470703125</LongitudeDegrees>
            </Position>
            <AltitudeMeters>793.79998779296875</AltitudeMeters>
            <DistanceMeters>NAN</DistanceMeters>
          </Trackpoint>
          <Trackpoint>
            <Time>2019-10-06T11:40:35.000Z</Time>
            <Position>
              <LatitudeDegrees>40.96764768473803997039794921875</LatitudeDegrees>
              <LongitudeDegrees>-5.64958001486957073211669921875</LongitudeDegrees>
            </Position>
            <AltitudeMeters>794.20001220703125</AltitudeMeters>
            <DistanceMeters>NAN</DistanceMeters>
          </Trackpoint>
          <Trackpoint>
            <Time>2019-10-06T11:40:36.000Z</Time>
            <Position>
              <LatitudeDegrees>40.96761784516274929046630859375</LatitudeDegrees>
              <LongitudeDegrees>-5.6495588086545467376708984375</LongitudeDegrees>
            </Position>
            <AltitudeMeters>794.20001220703125</AltitudeMeters>
            <DistanceMeters>NAN</DistanceMeters>
          </Trackpoint>
          <Trackpoint>
            <Time>2019-10-06T11:40:41.000Z</Time>
            <Position>
              <LatitudeDegrees>40.967589430510997772216796875</LatitudeDegrees>
              <LongitudeDegrees>-5.64955118112266063690185546875</LongitudeDegrees>
            </Position>
            <AltitudeMeters>794.20001220703125</AltitudeMeters>
            <DistanceMeters>NAN</DistanceMeters>
          </Trackpoint>
          <Trackpoint>
            <Time>2019-10-06T11:40:46.000Z</Time>
            <Position>
              <LatitudeDegrees>40.96758130006492137908935546875</LatitudeDegrees>
              <LongitudeDegrees>-5.64951262436807155609130859375</LongitudeDegrees>
            </Position>
            <AltitudeMeters>794</AltitudeMeters>
            <DistanceMeters>NAN</DistanceMeters>
          </Trackpoint>
          <Trackpoint>
            <Time>2019-10-06T11:40:47.000Z</Time>
            <Position>
              <LatitudeDegrees>40.96757970750331878662109375</LatitudeDegrees>
              <LongitudeDegrees>-5.64951337873935699462890625</LongitudeDegrees>
            </Position>
            <AltitudeMeters>794</AltitudeMeters>
            <DistanceMeters>NAN</DistanceMeters>
          </Trackpoint>
          <Trackpoint>
            <Time>2019-10-06T11:40:49.000Z</Time>
            <Position>
              <LatitudeDegrees>40.96751223318278789520263671875</LatitudeDegrees>
              <LongitudeDegrees>-5.6494764983654022216796875</LongitudeDegrees>
            </Position>
            <AltitudeMeters>794</AltitudeMeters>
            <DistanceMeters>NAN</DistanceMeters>
          </Trackpoint>
          <Trackpoint>
            <Time>2019-10-06T11:40:52.000Z</Time>
            <Position>
              <LatitudeDegrees>40.96743629314005374908447265625</LatitudeDegrees>
              <LongitudeDegrees>-5.64941790886223316192626953125</LongitudeDegrees>
            </Position>
            <AltitudeMeters>794</AltitudeMeters>
            <DistanceMeters>NAN</DistanceMeters>
          </Trackpoint>
          <Trackpoint>
            <Time>2019-10-06T11:40:55.000Z</Time>
            <Position>
              <LatitudeDegrees>40.96739019267261028289794921875</LatitudeDegrees>
              <LongitudeDegrees>-5.6493450701236724853515625</LongitudeDegrees>
            </Position>
            <AltitudeMeters>793.5999755859375</AltitudeMeters>
            <DistanceMeters>NAN</DistanceMeters>
          </Trackpoint>
          <Trackpoint>
            <Time>2019-10-06T11:40:57.000Z</Time>
            <Position>
              <LatitudeDegrees>40.967381559312343597412109375</LatitudeDegrees>
              <LongitudeDegrees>-5.64927457831799983978271484375</LongitudeDegrees>
            </Position>
            <AltitudeMeters>793.79998779296875</AltitudeMeters>
            <DistanceMeters>NAN</DistanceMeters>
          </Trackpoint>
          <Trackpoint>
            <Time>2019-10-06T11:40:59.000Z</Time>
            <Position>
              <LatitudeDegrees>40.96739555709064006805419921875</LatitudeDegrees>
              <LongitudeDegrees>-5.6492161564528942108154296875</LongitudeDegrees>
            </Position>
            <AltitudeMeters>793.5999755859375</AltitudeMeters>
            <DistanceMeters>NAN</DistanceMeters>
          </Trackpoint>
          <Trackpoint>
            <Time>2019-10-06T11:41:07.000Z</Time>
            <Position>
              <LatitudeDegrees>40.96746646799147129058837890625</LatitudeDegrees>
              <LongitudeDegrees>-5.6490210257470607757568359375</LongitudeDegrees>
            </Position>
            <AltitudeMeters>793.5999755859375</AltitudeMeters>
            <DistanceMeters>NAN</DistanceMeters>
          </Trackpoint>
          <Trackpoint>
            <Time>2019-10-06T11:41:13.000Z</Time>
            <Position>
              <LatitudeDegrees>40.96760661341249942779541015625</LatitudeDegrees>
              <LongitudeDegrees>-5.64886403270065784454345703125</LongitudeDegrees>
            </Position>
            <AltitudeMeters>794.20001220703125</AltitudeMeters>
            <DistanceMeters>NAN</DistanceMeters>
          </Trackpoint>
          <Trackpoint>
            <Time>2019-10-06T11:41:19.000Z</Time>
            <Position>
              <LatitudeDegrees>40.96768523566424846649169921875</LatitudeDegrees>
              <LongitudeDegrees>-5.64868465997278690338134765625</LongitudeDegrees>
            </Position>
            <AltitudeMeters>794</AltitudeMeters>
            <DistanceMeters>NAN</DistanceMeters>
          </Trackpoint>
          <Trackpoint>
            <Time>2019-10-06T11:41:25.000Z</Time>
            <Position>
              <LatitudeDegrees>40.967789255082607269287109375</LatitudeDegrees>
              <LongitudeDegrees>-5.64853915013372898101806640625</LongitudeDegrees>
            </Position>
            <AltitudeMeters>794.5999755859375</AltitudeMeters>
            <DistanceMeters>NAN</DistanceMeters>
          </Trackpoint>
          <Trackpoint>
            <Time>2019-10-06T11:41:27.000Z</Time>
            <Position>
              <LatitudeDegrees>40.96781649626791477203369140625</LatitudeDegrees>
              <LongitudeDegrees>-5.648507885634899139404296875</LongitudeDegrees>
            </Position>
            <AltitudeMeters>795.20001220703125</AltitudeMeters>
            <DistanceMeters>NAN</DistanceMeters>
          </Trackpoint>
          <Trackpoint>
            <Time>2019-10-06T11:41:29.000Z</Time>
            <Position>
              <LatitudeDegrees>40.96782538108527660369873046875</LatitudeDegrees>
              <LongitudeDegrees>-5.64849548041820526123046875</LongitudeDegrees>
            </Position>
            <AltitudeMeters>795</AltitudeMeters>
            <DistanceMeters>NAN</DistanceMeters>
          </Trackpoint>
          <Trackpoint>
            <Time>2019-10-06T11:41:35.000Z</Time>
            <Position>
              <LatitudeDegrees>40.9678363613784313201904296875</LatitudeDegrees>
              <LongitudeDegrees>-5.6484948098659515380859375</LongitudeDegrees>
            </Position>
            <AltitudeMeters>795.20001220703125</AltitudeMeters>
            <DistanceMeters>NAN</DistanceMeters>
          </Trackpoint>
          <Trackpoint>
            <Time>2019-10-06T11:41:44.000Z</Time>
            <Position>
              <LatitudeDegrees>40.96783577464520931243896484375</LatitudeDegrees>
              <LongitudeDegrees>-5.64849573187530040740966796875</LongitudeDegrees>
            </Position>
            <AltitudeMeters>795.20001220703125</AltitudeMeters>
            <DistanceMeters>NAN</DistanceMeters>
          </Trackpoint>
          <Trackpoint>
            <Time>2019-10-06T11:41:49.000Z</Time>
            <Position>
              <LatitudeDegrees>40.96784885041415691375732421875</LatitudeDegrees>
              <LongitudeDegrees>-5.64857251010835170745849609375</LongitudeDegrees>
            </Position>
            <AltitudeMeters>794.4000244140625</AltitudeMeters>
            <DistanceMeters>NAN</DistanceMeters>
          </Trackpoint>
          <Trackpoint>
            <Time>2019-10-06T11:41:52.000Z</Time>
            <Position>
              <LatitudeDegrees>40.96781574189662933349609375</LatitudeDegrees>
              <LongitudeDegrees>-5.6486448459327220916748046875</LongitudeDegrees>
            </Position>
            <AltitudeMeters>794.5999755859375</AltitudeMeters>
            <DistanceMeters>NAN</DistanceMeters>
          </Trackpoint>
          <Trackpoint>
            <Time>2019-10-06T11:41:54.000Z</Time>
            <Position>
              <LatitudeDegrees>40.96780962310731410980224609375</LatitudeDegrees>
              <LongitudeDegrees>-5.64869957976043224334716796875</LongitudeDegrees>
            </Position>
            <AltitudeMeters>794.20001220703125</AltitudeMeters>
            <DistanceMeters>NAN</DistanceMeters>
          </Trackpoint>
          <Trackpoint>
            <Time>2019-10-06T11:41:55.000Z</Time>
            <Position>
              <LatitudeDegrees>40.96781481988728046417236328125</LatitudeDegrees>
              <LongitudeDegrees>-5.64872874878346920013427734375</LongitudeDegrees>
            </Position>
            <AltitudeMeters>794.20001220703125</AltitudeMeters>
            <DistanceMeters>NAN</DistanceMeters>
          </Trackpoint>
          <Trackpoint>
            <Time>2019-10-06T11:41:57.000Z</Time>
            <Position>
              <LatitudeDegrees>40.96784030087292194366455078125</LatitudeDegrees>
              <LongitudeDegrees>-5.64878272823989391326904296875</LongitudeDegrees>
            </Position>
            <AltitudeMeters>794.20001220703125</AltitudeMeters>
            <DistanceMeters>NAN</DistanceMeters>
          </Trackpoint>
          <Trackpoint>
            <Time>2019-10-06T11:41:59.000Z</Time>
            <Position>
              <LatitudeDegrees>40.96787718124687671661376953125</LatitudeDegrees>
              <LongitudeDegrees>-5.64882044680416584014892578125</LongitudeDegrees>
            </Position>
            <AltitudeMeters>794</AltitudeMeters>
            <DistanceMeters>NAN</DistanceMeters>
          </Trackpoint>
          <Trackpoint>
            <Time>2019-10-06T11:42:00.000Z</Time>
            <Position>
              <LatitudeDegrees>40.96789260394871234893798828125</LatitudeDegrees>
              <LongitudeDegrees>-5.6488403119146823883056640625</LongitudeDegrees>
            </Position>
            <AltitudeMeters>794</AltitudeMeters>
            <DistanceMeters>NAN</DistanceMeters>
          </Trackpoint>
          <Trackpoint>
            <Time>2019-10-06T11:42:04.000Z</Time>
            <Position>
              <LatitudeDegrees>40.9679262153804302215576171875</LatitudeDegrees>
              <LongitudeDegrees>-5.64888901077210903167724609375</LongitudeDegrees>
            </Position>
            <AltitudeMeters>793.4000244140625</AltitudeMeters>
            <DistanceMeters>NAN</DistanceMeters>
          </Trackpoint>
          <Trackpoint>
            <Time>2019-10-06T11:42:06.000Z</Time>
            <Position>
              <LatitudeDegrees>40.96794004552066326141357421875</LatitudeDegrees>
              <LongitudeDegrees>-5.64889135770499706268310546875</LongitudeDegrees>
            </Position>
            <AltitudeMeters>793.20001220703125</AltitudeMeters>
            <DistanceMeters>NAN</DistanceMeters>
          </Trackpoint>
          <Trackpoint>
            <Time>2019-10-06T11:42:09.000Z</Time>
            <Position>
              <LatitudeDegrees>40.96795479767024517059326171875</LatitudeDegrees>
              <LongitudeDegrees>-5.64893259666860103607177734375</LongitudeDegrees>
            </Position>
            <AltitudeMeters>793.5999755859375</AltitudeMeters>
            <DistanceMeters>NAN</DistanceMeters>
          </Trackpoint>
          <Trackpoint>
            <Time>2019-10-06T11:42:12.000Z</Time>
            <Position>
              <LatitudeDegrees>40.96795387566089630126953125</LatitudeDegrees>
              <LongitudeDegrees>-5.64900635741651058197021484375</LongitudeDegrees>
            </Position>
            <AltitudeMeters>793</AltitudeMeters>
            <DistanceMeters>NAN</DistanceMeters>
          </Trackpoint>
          <Trackpoint>
            <Time>2019-10-06T11:42:14.000Z</Time>
            <Position>
              <LatitudeDegrees>40.9679433144629001617431640625</LatitudeDegrees>
              <LongitudeDegrees>-5.64904927276074886322021484375</LongitudeDegrees>
            </Position>
            <AltitudeMeters>792.79998779296875</AltitudeMeters>
            <DistanceMeters>NAN</DistanceMeters>
          </Trackpoint>
          <Trackpoint>
            <Time>2019-10-06T11:42:16.000Z</Time>
            <Position>
              <LatitudeDegrees>40.9679295681416988372802734375</LatitudeDegrees>
              <LongitudeDegrees>-5.64909755252301692962646484375</LongitudeDegrees>
            </Position>
            <AltitudeMeters>793</AltitudeMeters>
            <DistanceMeters>NAN</DistanceMeters>
          </Trackpoint>
          <Trackpoint>
            <Time>2019-10-06T11:42:17.000Z</Time>
            <Position>
              <LatitudeDegrees>40.96791766583919525146484375</LatitudeDegrees>
              <LongitudeDegrees>-5.64912269823253154754638671875</LongitudeDegrees>
            </Position>
            <AltitudeMeters>792.5999755859375</AltitudeMeters>
            <DistanceMeters>NAN</DistanceMeters>
          </Trackpoint>
          <Trackpoint>
            <Time>2019-10-06T11:42:19.000Z</Time>
            <Position>
              <LatitudeDegrees>40.9678955376148223876953125</LatitudeDegrees>
              <LongitudeDegrees>-5.64917676150798797607421875</LongitudeDegrees>
            </Position>
            <AltitudeMeters>792.5999755859375</AltitudeMeters>
            <DistanceMeters>NAN</DistanceMeters>
          </Trackpoint>
          <Trackpoint>
            <Time>2019-10-06T11:42:20.000Z</Time>
            <Position>
              <LatitudeDegrees>40.96788489259779453277587890625</LatitudeDegrees>
              <LongitudeDegrees>-5.649203918874263763427734375</LongitudeDegrees>
            </Position>
            <AltitudeMeters>792.5999755859375</AltitudeMeters>
            <DistanceMeters>NAN</DistanceMeters>
          </Trackpoint>
          <Trackpoint>
            <Time>2019-10-06T11:42:21.000Z</Time>
            <Position>
              <LatitudeDegrees>40.96787366084754467010498046875</LatitudeDegrees>
              <LongitudeDegrees>-5.64923166297376155853271484375</LongitudeDegrees>
            </Position>
            <AltitudeMeters>792.79998779296875</AltitudeMeters>
            <DistanceMeters>NAN</DistanceMeters>
          </Trackpoint>
          <Trackpoint>
            <Time>2019-10-06T11:42:23.000Z</Time>
            <Position>
              <LatitudeDegrees>40.96784901805222034454345703125</LatitudeDegrees>
              <LongitudeDegrees>-5.6492895819246768951416015625</LongitudeDegrees>
            </Position>
            <AltitudeMeters>792.79998779296875</AltitudeMeters>
            <DistanceMeters>NAN</DistanceMeters>
          </Trackpoint>
          <Trackpoint>
            <Time>2019-10-06T11:42:25.000Z</Time>
            <Position>
              <LatitudeDegrees>40.96782387234270572662353515625</LatitudeDegrees>
              <LongitudeDegrees>-5.6493472494184970855712890625</LongitudeDegrees>
            </Position>
            <AltitudeMeters>792.5999755859375</AltitudeMeters>
            <DistanceMeters>NAN</DistanceMeters>
          </Trackpoint>
          <Trackpoint>
            <Time>2019-10-06T11:42:27.000Z</Time>
            <Position>
              <LatitudeDegrees>40.96779956482350826263427734375</LatitudeDegrees>
              <LongitudeDegrees>-5.649400390684604644775390625</LongitudeDegrees>
            </Position>
            <AltitudeMeters>792.5999755859375</AltitudeMeters>
            <DistanceMeters>NAN</DistanceMeters>
          </Trackpoint>
          <Trackpoint>
            <Time>2019-10-06T11:42:31.000Z</Time>
            <Position>
              <LatitudeDegrees>40.9677736647427082061767578125</LatitudeDegrees>
              <LongitudeDegrees>-5.64945277757942676544189453125</LongitudeDegrees>
            </Position>
            <AltitudeMeters>792.4000244140625</AltitudeMeters>
            <DistanceMeters>NAN</DistanceMeters>
          </Trackpoint>
          <Trackpoint>
            <Time>2019-10-06T11:42:32.000Z</Time>
            <Position>
              <LatitudeDegrees>40.96777559258043766021728515625</LatitudeDegrees>
              <LongitudeDegrees>-5.6494501791894435882568359375</LongitudeDegrees>
            </Position>
            <AltitudeMeters>792.5999755859375</AltitudeMeters>
            <DistanceMeters>NAN</DistanceMeters>
          </Trackpoint>
          <Trackpoint>
            <Time>2019-10-06T11:42:35.000Z</Time>
            <Position>
              <LatitudeDegrees>40.96777207218110561370849609375</LatitudeDegrees>
              <LongitudeDegrees>-5.64949485473334789276123046875</LongitudeDegrees>
            </Position>
            <AltitudeMeters>792.79998779296875</AltitudeMeters>
            <DistanceMeters>NAN</DistanceMeters>
          </Trackpoint>
          <Trackpoint>
            <Time>2019-10-06T11:42:37.000Z</Time>
            <Position>
              <LatitudeDegrees>40.9677344374358654022216796875</LatitudeDegrees>
              <LongitudeDegrees>-5.64949938096106052398681640625</LongitudeDegrees>
            </Position>
            <AltitudeMeters>792.5999755859375</AltitudeMeters>
            <DistanceMeters>NAN</DistanceMeters>
          </Trackpoint>
          <Trackpoint>
            <Time>2019-10-06T11:42:42.000Z</Time>
            <Position>
              <LatitudeDegrees>40.96761859953403472900390625</LatitudeDegrees>
              <LongitudeDegrees>-5.64946300350129604339599609375</LongitudeDegrees>
            </Position>
            <AltitudeMeters>793.4000244140625</AltitudeMeters>
            <DistanceMeters>NAN</DistanceMeters>
          </Trackpoint>
          <Trackpoint>
            <Time>2019-10-06T11:42:43.000Z</Time>
            <Position>
              <LatitudeDegrees>40.967598147690296173095703125</LatitudeDegrees>
              <LongitudeDegrees>-5.64945914782583713531494140625</LongitudeDegrees>
            </Position>
            <AltitudeMeters>793.4000244140625</AltitudeMeters>
            <DistanceMeters>NAN</DistanceMeters>
          </Trackpoint>
          <Trackpoint>
            <Time>2019-10-06T11:42:45.000Z</Time>
            <Position>
              <LatitudeDegrees>40.96757434308528900146484375</LatitudeDegrees>
              <LongitudeDegrees>-5.649450682103633880615234375</LongitudeDegrees>
            </Position>
            <AltitudeMeters>794</AltitudeMeters>
            <DistanceMeters>NAN</DistanceMeters>
          </Trackpoint>
          <Trackpoint>
            <Time>2019-10-06T11:42:48.000Z</Time>
            <Position>
              <LatitudeDegrees>40.9675678052008152008056640625</LatitudeDegrees>
              <LongitudeDegrees>-5.64945445396006107330322265625</LongitudeDegrees>
            </Position>
            <AltitudeMeters>794</AltitudeMeters>
            <DistanceMeters>NAN</DistanceMeters>
          </Trackpoint>
          <Trackpoint>
            <Time>2019-10-06T11:42:51.000Z</Time>
            <Position>
              <LatitudeDegrees>40.9675678052008152008056640625</LatitudeDegrees>
              <LongitudeDegrees>-5.64945445396006107330322265625</LongitudeDegrees>
            </Position>
            <AltitudeMeters>794</AltitudeMeters>
            <DistanceMeters>NAN</DistanceMeters>
          </Trackpoint>
          <Trackpoint>
            <Time>2019-10-06T11:42:56.000Z</Time>
            <Position>
              <LatitudeDegrees>40.9675678052008152008056640625</LatitudeDegrees>
              <LongitudeDegrees>-5.64945445396006107330322265625</LongitudeDegrees>
            </Position>
            <AltitudeMeters>793.79998779296875</AltitudeMeters>
            <DistanceMeters>NAN</DistanceMeters>
          </Trackpoint>
          <Trackpoint>
            <Time>2019-10-06T11:43:00.000Z</Time>
            <Position>
              <LatitudeDegrees>40.9675678052008152008056640625</LatitudeDegrees>
              <LongitudeDegrees>-5.64945445396006107330322265625</LongitudeDegrees>
            </Position>
            <AltitudeMeters>794</AltitudeMeters>
            <DistanceMeters>NAN</DistanceMeters>
          </Trackpoint>
          <Trackpoint>
            <Time>2019-10-06T11:43:05.000Z</Time>
            <Position>
              <LatitudeDegrees>40.9675678052008152008056640625</LatitudeDegrees>
              <LongitudeDegrees>-5.64945445396006107330322265625</LongitudeDegrees>
            </Position>
            <AltitudeMeters>793.79998779296875</AltitudeMeters>
            <DistanceMeters>NAN</DistanceMeters>
          </Trackpoint>
          <Trackpoint>
            <Time>2019-10-06T11:43:07.000Z</Time>
            <Position>
              <LatitudeDegrees>40.9675678052008152008056640625</LatitudeDegrees>
              <LongitudeDegrees>-5.64945445396006107330322265625</LongitudeDegrees>
            </Position>
            <AltitudeMeters>794</AltitudeMeters>
            <DistanceMeters>NAN</DistanceMeters>
          </Trackpoint>
          <Trackpoint>
            <Time>2019-10-06T11:43:16.000Z</Time>
            <Position>
              <LatitudeDegrees>40.9675678052008152008056640625</LatitudeDegrees>
              <LongitudeDegrees>-5.64945445396006107330322265625</LongitudeDegrees>
            </Position>
            <AltitudeMeters>794.20001220703125</AltitudeMeters>
            <DistanceMeters>NAN</DistanceMeters>
          </Trackpoint>
          <Trackpoint>
            <Time>2019-10-06T11:43:17.000Z</Time>
            <Position>
              <LatitudeDegrees>40.9675678052008152008056640625</LatitudeDegrees>
              <LongitudeDegrees>-5.64945445396006107330322265625</LongitudeDegrees>
            </Position>
            <AltitudeMeters>794</AltitudeMeters>
            <DistanceMeters>NAN</DistanceMeters>
          </Trackpoint>
          <Trackpoint>
            <Time>2019-10-06T11:43:24.000Z</Time>
            <Position>
              <LatitudeDegrees>40.9675678052008152008056640625</LatitudeDegrees>
              <LongitudeDegrees>-5.64945445396006107330322265625</LongitudeDegrees>
            </Position>
            <AltitudeMeters>794</AltitudeMeters>
            <DistanceMeters>NAN</DistanceMeters>
          </Trackpoint>
          <Trackpoint>
            <Time>2019-10-06T11:43:25.000Z</Time>
            <Position>
              <LatitudeDegrees>40.967565961182117462158203125</LatitudeDegrees>
              <LongitudeDegrees>-5.6494565494358539581298828125</LongitudeDegrees>
            </Position>
            <AltitudeMeters>794.20001220703125</AltitudeMeters>
            <DistanceMeters>NAN</DistanceMeters>
          </Trackpoint>
          <Trackpoint>
            <Time>2019-10-06T11:43:28.000Z</Time>
            <Position>
              <LatitudeDegrees>40.967565961182117462158203125</LatitudeDegrees>
              <LongitudeDegrees>-5.6494565494358539581298828125</LongitudeDegrees>
            </Position>
            <AltitudeMeters>794</AltitudeMeters>
            <DistanceMeters>NAN</DistanceMeters>
          </Trackpoint>
          <Trackpoint>
            <Time>2019-10-06T11:43:34.000Z</Time>
            <Position>
              <LatitudeDegrees>40.967565961182117462158203125</LatitudeDegrees>
              <LongitudeDegrees>-5.6494565494358539581298828125</LongitudeDegrees>
            </Position>
            <AltitudeMeters>794</AltitudeMeters>
            <DistanceMeters>NAN</DistanceMeters>
          </Trackpoint>
          <Trackpoint>
            <Time>2019-10-06T11:43:40.000Z</Time>
            <Position>
              <LatitudeDegrees>40.967565961182117462158203125</LatitudeDegrees>
              <LongitudeDegrees>-5.6494565494358539581298828125</LongitudeDegrees>
            </Position>
            <AltitudeMeters>793.79998779296875</AltitudeMeters>
            <DistanceMeters>NAN</DistanceMeters>
          </Trackpoint>
          <Trackpoint>
            <Time>2019-10-06T11:43:50.000Z</Time>
            <Position>
              <LatitudeDegrees>40.967565961182117462158203125</LatitudeDegrees>
              <LongitudeDegrees>-5.6494565494358539581298828125</LongitudeDegrees>
            </Position>
            <AltitudeMeters>794</AltitudeMeters>
            <DistanceMeters>NAN</DistanceMeters>
          </Trackpoint>
          <Trackpoint>
            <Time>2019-10-06T11:43:57.000Z</Time>
            <Position>
              <LatitudeDegrees>40.967565961182117462158203125</LatitudeDegrees>
              <LongitudeDegrees>-5.6494565494358539581298828125</LongitudeDegrees>
            </Position>
            <AltitudeMeters>794</AltitudeMeters>
            <DistanceMeters>NAN</DistanceMeters>
          </Trackpoint>
          <Trackpoint>
            <Time>2019-10-06T11:44:05.000Z</Time>
            <Position>
              <LatitudeDegrees>40.9675621055066585540771484375</LatitudeDegrees>
              <LongitudeDegrees>-5.64945378340780735015869140625</LongitudeDegrees>
            </Position>
            <AltitudeMeters>794</AltitudeMeters>
            <DistanceMeters>NAN</DistanceMeters>
          </Trackpoint>
          <Trackpoint>
            <Time>2019-10-06T11:44:09.000Z</Time>
            <Position>
              <LatitudeDegrees>40.9675621055066585540771484375</LatitudeDegrees>
              <LongitudeDegrees>-5.64945378340780735015869140625</LongitudeDegrees>
            </Position>
            <AltitudeMeters>793.79998779296875</AltitudeMeters>
            <DistanceMeters>NAN</DistanceMeters>
          </Trackpoint>
          <Trackpoint>
            <Time>2019-10-06T11:44:11.000Z</Time>
            <Position>
              <LatitudeDegrees>40.9675621055066585540771484375</LatitudeDegrees>
              <LongitudeDegrees>-5.64945378340780735015869140625</LongitudeDegrees>
            </Position>
            <AltitudeMeters>793.79998779296875</AltitudeMeters>
            <DistanceMeters>NAN</DistanceMeters>
          </Trackpoint>
          <Trackpoint>
            <Time>2019-10-06T11:44:17.000Z</Time>
            <Position>
              <LatitudeDegrees>40.9675621055066585540771484375</LatitudeDegrees>
              <LongitudeDegrees>-5.64945378340780735015869140625</LongitudeDegrees>
            </Position>
            <AltitudeMeters>794</AltitudeMeters>
            <DistanceMeters>NAN</DistanceMeters>
          </Trackpoint>
          <Trackpoint>
            <Time>2019-10-06T11:44:21.000Z</Time>
            <Position>
              <LatitudeDegrees>40.9675621055066585540771484375</LatitudeDegrees>
              <LongitudeDegrees>-5.64945378340780735015869140625</LongitudeDegrees>
            </Position>
            <AltitudeMeters>793.79998779296875</AltitudeMeters>
            <DistanceMeters>NAN</DistanceMeters>
          </Trackpoint>
          <Trackpoint>
            <Time>2019-10-06T11:44:33.000Z</Time>
            <Position>
              <LatitudeDegrees>40.9675621055066585540771484375</LatitudeDegrees>
              <LongitudeDegrees>-5.64945378340780735015869140625</LongitudeDegrees>
            </Position>
            <AltitudeMeters>794</AltitudeMeters>
            <DistanceMeters>NAN</DistanceMeters>
          </Trackpoint>
          <Trackpoint>
            <Time>2019-10-06T11:44:34.000Z</Time>
            <Position>
              <LatitudeDegrees>40.9675621055066585540771484375</LatitudeDegrees>
              <LongitudeDegrees>-5.64945378340780735015869140625</LongitudeDegrees>
            </Position>
            <AltitudeMeters>794</AltitudeMeters>
            <DistanceMeters>NAN</DistanceMeters>
          </Trackpoint>
          <Trackpoint>
            <Time>2019-10-06T11:44:36.000Z</Time>
            <Position>
              <LatitudeDegrees>40.9675621055066585540771484375</LatitudeDegrees>
              <LongitudeDegrees>-5.64945378340780735015869140625</LongitudeDegrees>
            </Position>
            <AltitudeMeters>794.20001220703125</AltitudeMeters>
            <DistanceMeters>NAN</DistanceMeters>
          </Trackpoint>
          <Trackpoint>
            <Time>2019-10-06T11:44:38.000Z</Time>
            <Position>
              <LatitudeDegrees>40.9675621055066585540771484375</LatitudeDegrees>
              <LongitudeDegrees>-5.64945378340780735015869140625</LongitudeDegrees>
            </Position>
            <AltitudeMeters>794</AltitudeMeters>
            <DistanceMeters>NAN</DistanceMeters>
          </Trackpoint>
          <Trackpoint>
            <Time>2019-10-06T11:44:39.000Z</Time>
            <Position>
              <LatitudeDegrees>40.9675621055066585540771484375</LatitudeDegrees>
              <LongitudeDegrees>-5.64945378340780735015869140625</LongitudeDegrees>
            </Position>
            <AltitudeMeters>793.79998779296875</AltitudeMeters>
            <DistanceMeters>NAN</DistanceMeters>
          </Trackpoint>
          <Trackpoint>
            <Time>2019-10-06T11:44:43.000Z</Time>
            <Position>
              <LatitudeDegrees>40.9675621055066585540771484375</LatitudeDegrees>
              <LongitudeDegrees>-5.64945378340780735015869140625</LongitudeDegrees>
            </Position>
            <AltitudeMeters>793.79998779296875</AltitudeMeters>
            <DistanceMeters>NAN</DistanceMeters>
          </Trackpoint>
          <Trackpoint>
            <Time>2019-10-06T11:44:49.000Z</Time>
            <Position>
              <LatitudeDegrees>40.9675577469170093536376953125</LatitudeDegrees>
              <LongitudeDegrees>-5.649451352655887603759765625</LongitudeDegrees>
            </Position>
            <AltitudeMeters>793.79998779296875</AltitudeMeters>
            <DistanceMeters>NAN</DistanceMeters>
          </Trackpoint>
          <Trackpoint>
            <Time>2019-10-06T11:44:50.000Z</Time>
            <Position>
              <LatitudeDegrees>40.9675577469170093536376953125</LatitudeDegrees>
              <LongitudeDegrees>-5.649451352655887603759765625</LongitudeDegrees>
            </Position>
            <AltitudeMeters>794</AltitudeMeters>
            <DistanceMeters>NAN</DistanceMeters>
          </Trackpoint>
          <Trackpoint>
            <Time>2019-10-06T11:44:51.000Z</Time>
            <Position>
              <LatitudeDegrees>40.9675577469170093536376953125</LatitudeDegrees>
              <LongitudeDegrees>-5.649451352655887603759765625</LongitudeDegrees>
            </Position>
            <AltitudeMeters>794</AltitudeMeters>
            <DistanceMeters>NAN</DistanceMeters>
          </Trackpoint>
          <Trackpoint>
            <Time>2019-10-06T11:44:55.000Z</Time>
            <Position>
              <LatitudeDegrees>40.9675577469170093536376953125</LatitudeDegrees>
              <LongitudeDegrees>-5.649451352655887603759765625</LongitudeDegrees>
            </Position>
            <AltitudeMeters>794.20001220703125</AltitudeMeters>
            <DistanceMeters>NAN</DistanceMeters>
          </Trackpoint>
          <Trackpoint>
            <Time>2019-10-06T11:45:12.000Z</Time>
            <Position>
              <LatitudeDegrees>40.9675577469170093536376953125</LatitudeDegrees>
              <LongitudeDegrees>-5.649451352655887603759765625</LongitudeDegrees>
            </Position>
            <AltitudeMeters>794.20001220703125</AltitudeMeters>
            <DistanceMeters>NAN</DistanceMeters>
          </Trackpoint>
          <Trackpoint>
            <Time>2019-10-06T11:45:19.000Z</Time>
            <Position>
              <LatitudeDegrees>40.9675577469170093536376953125</LatitudeDegrees>
              <LongitudeDegrees>-5.649451352655887603759765625</LongitudeDegrees>
            </Position>
            <AltitudeMeters>794</AltitudeMeters>
            <DistanceMeters>NAN</DistanceMeters>
          </Trackpoint>
          <Trackpoint>
            <Time>2019-10-07T08:25:26.000Z</Time>
            <Position>
              <LatitudeDegrees>40.95733291469514369964599609375</LatitudeDegrees>
              <LongitudeDegrees>-5.66560839302837848663330078125</LongitudeDegrees>
            </Position>
            <AltitudeMeters>762.79998779296875</AltitudeMeters>
            <DistanceMeters>NAN</DistanceMeters>
          </Trackpoint>
          <Trackpoint>
            <Time>2019-10-07T08:25:27.000Z</Time>
            <Position>
              <LatitudeDegrees>40.957292430102825164794921875</LatitudeDegrees>
              <LongitudeDegrees>-5.6656269170343875885009765625</LongitudeDegrees>
            </Position>
            <AltitudeMeters>762.79998779296875</AltitudeMeters>
            <DistanceMeters>NAN</DistanceMeters>
          </Trackpoint>
          <Trackpoint>
            <Time>2019-10-07T08:25:33.000Z</Time>
            <Position>
              <LatitudeDegrees>40.95704575069248676300048828125</LatitudeDegrees>
              <LongitudeDegrees>-5.665730349719524383544921875</LongitudeDegrees>
            </Position>
            <AltitudeMeters>763.20001220703125</AltitudeMeters>
            <DistanceMeters>NAN</DistanceMeters>
          </Trackpoint>
          <Trackpoint>
            <Time>2019-10-07T08:25:34.000Z</Time>
            <Position>
              <LatitudeDegrees>40.9570042602717876434326171875</LatitudeDegrees>
              <LongitudeDegrees>-5.66575239412486553192138671875</LongitudeDegrees>
            </Position>
            <AltitudeMeters>763</AltitudeMeters>
            <DistanceMeters>NAN</DistanceMeters>
          </Trackpoint>
          <Trackpoint>
            <Time>2019-10-07T08:25:35.000Z</Time>
            <Position>
              <LatitudeDegrees>40.9569630213081836700439453125</LatitudeDegrees>
              <LongitudeDegrees>-5.6657761149108409881591796875</LongitudeDegrees>
            </Position>
            <AltitudeMeters>762.79998779296875</AltitudeMeters>
            <DistanceMeters>NAN</DistanceMeters>
          </Trackpoint>
          <Trackpoint>
            <Time>2019-10-07T08:25:38.000Z</Time>
            <Position>
              <LatitudeDegrees>40.95683502964675426483154296875</LatitudeDegrees>
              <LongitudeDegrees>-5.665838308632373809814453125</LongitudeDegrees>
            </Position>
            <AltitudeMeters>763</AltitudeMeters>
            <DistanceMeters>NAN</DistanceMeters>
          </Trackpoint>
          <Trackpoint>
            <Time>2019-10-07T08:25:41.000Z</Time>
            <Position>
              <LatitudeDegrees>40.9567080438137054443359375</LatitudeDegrees>
              <LongitudeDegrees>-5.66590033471584320068359375</LongitudeDegrees>
            </Position>
            <AltitudeMeters>762.79998779296875</AltitudeMeters>
            <DistanceMeters>NAN</DistanceMeters>
          </Trackpoint>
          <Trackpoint>
            <Time>2019-10-07T08:25:44.000Z</Time>
            <Position>
              <LatitudeDegrees>40.95657996833324432373046875</LatitudeDegrees>
              <LongitudeDegrees>-5.665962696075439453125</LongitudeDegrees>
            </Position>
            <AltitudeMeters>763</AltitudeMeters>
            <DistanceMeters>NAN</DistanceMeters>
          </Trackpoint>
          <Trackpoint>
            <Time>2019-10-07T08:25:52.000Z</Time>
            <Position>
              <LatitudeDegrees>40.95622717402875423431396484375</LatitudeDegrees>
              <LongitudeDegrees>-5.66614064387977123260498046875</LongitudeDegrees>
            </Position>
            <AltitudeMeters>763.20001220703125</AltitudeMeters>
            <DistanceMeters>NAN</DistanceMeters>
          </Trackpoint>
          <Trackpoint>
            <Time>2019-10-07T08:25:55.000Z</Time>
            <Position>
              <LatitudeDegrees>40.9560949914157390594482421875</LatitudeDegrees>
              <LongitudeDegrees>-5.6662052683532238006591796875</LongitudeDegrees>
            </Position>
            <AltitudeMeters>763.20001220703125</AltitudeMeters>
            <DistanceMeters>NAN</DistanceMeters>
          </Trackpoint>
          <Trackpoint>
            <Time>2019-10-07T08:26:06.000Z</Time>
            <Position>
              <LatitudeDegrees>40.9555927477777004241943359375</LatitudeDegrees>
              <LongitudeDegrees>-5.66646116785705089569091796875</LongitudeDegrees>
            </Position>
            <AltitudeMeters>763.5999755859375</AltitudeMeters>
            <DistanceMeters>NAN</DistanceMeters>
          </Trackpoint>
          <Trackpoint>
            <Time>2019-10-07T08:26:17.000Z</Time>
            <Position>
              <LatitudeDegrees>40.95507751218974590301513671875</LatitudeDegrees>
              <LongitudeDegrees>-5.666710026562213897705078125</LongitudeDegrees>
            </Position>
            <AltitudeMeters>763.4000244140625</AltitudeMeters>
            <DistanceMeters>NAN</DistanceMeters>
          </Trackpoint>
          <Trackpoint>
            <Time>2019-10-07T08:26:18.000Z</Time>
            <Position>
              <LatitudeDegrees>40.95502965152263641357421875</LatitudeDegrees>
              <LongitudeDegrees>-5.6667338311672210693359375</LongitudeDegrees>
            </Position>
            <AltitudeMeters>763.20001220703125</AltitudeMeters>
            <DistanceMeters>NAN</DistanceMeters>
          </Trackpoint>
          <Trackpoint>
            <Time>2019-10-07T08:26:21.000Z</Time>
            <Position>
              <LatitudeDegrees>40.9548920206725597381591796875</LatitudeDegrees>
              <LongitudeDegrees>-5.6668124534189701080322265625</LongitudeDegrees>
            </Position>
            <AltitudeMeters>763.5999755859375</AltitudeMeters>
            <DistanceMeters>NAN</DistanceMeters>
          </Trackpoint>
          <Trackpoint>
            <Time>2019-10-07T08:26:24.000Z</Time>
            <Position>
              <LatitudeDegrees>40.9547797031700611114501953125</LatitudeDegrees>
              <LongitudeDegrees>-5.66693432629108428955078125</LongitudeDegrees>
            </Position>
            <AltitudeMeters>763.20001220703125</AltitudeMeters>
            <DistanceMeters>NAN</DistanceMeters>
          </Trackpoint>
          <Trackpoint>
            <Time>2019-10-07T08:26:26.000Z</Time>
            <Position>
              <LatitudeDegrees>40.95472714863717555999755859375</LatitudeDegrees>
              <LongitudeDegrees>-5.667044632136821746826171875</LongitudeDegrees>
            </Position>
            <AltitudeMeters>763.5999755859375</AltitudeMeters>
            <DistanceMeters>NAN</DistanceMeters>
          </Trackpoint>
          <Trackpoint>
            <Time>2019-10-07T08:26:28.000Z</Time>
            <Position>
              <LatitudeDegrees>40.95468020997941493988037109375</LatitudeDegrees>
              <LongitudeDegrees>-5.66715435124933719635009765625</LongitudeDegrees>
            </Position>
            <AltitudeMeters>763.79998779296875</AltitudeMeters>
            <DistanceMeters>NAN</DistanceMeters>
          </Trackpoint>
          <Trackpoint>
            <Time>2019-10-07T08:26:29.000Z</Time>
            <Position>
              <LatitudeDegrees>40.954657830297946929931640625</LatitudeDegrees>
              <LongitudeDegrees>-5.66721067763864994049072265625</LongitudeDegrees>
            </Position>
            <AltitudeMeters>764</AltitudeMeters>
            <DistanceMeters>NAN</DistanceMeters>
          </Trackpoint>
          <Trackpoint>
            <Time>2019-10-07T08:26:38.000Z</Time>
            <Position>
              <LatitudeDegrees>40.95448390580713748931884765625</LatitudeDegrees>
              <LongitudeDegrees>-5.6677482090890407562255859375</LongitudeDegrees>
            </Position>
            <AltitudeMeters>763.5999755859375</AltitudeMeters>
            <DistanceMeters>NAN</DistanceMeters>
          </Trackpoint>
          <Trackpoint>
            <Time>2019-10-07T08:26:44.000Z</Time>
            <Position>
              <LatitudeDegrees>40.954414419829845428466796875</LatitudeDegrees>
              <LongitudeDegrees>-5.66813704557716846466064453125</LongitudeDegrees>
            </Position>
            <AltitudeMeters>763.20001220703125</AltitudeMeters>
            <DistanceMeters>NAN</DistanceMeters>
          </Trackpoint>
          <Trackpoint>
            <Time>2019-10-07T08:26:52.000Z</Time>
            <Position>
              <LatitudeDegrees>40.9543572552502155303955078125</LatitudeDegrees>
              <LongitudeDegrees>-5.66864063031971454620361328125</LongitudeDegrees>
            </Position>
            <AltitudeMeters>764</AltitudeMeters>
            <DistanceMeters>NAN</DistanceMeters>
          </Trackpoint>
          <Trackpoint>
            <Time>2019-10-07T08:26:53.000Z</Time>
            <Position>
              <LatitudeDegrees>40.95436069183051586151123046875</LatitudeDegrees>
              <LongitudeDegrees>-5.6687007285654544830322265625</LongitudeDegrees>
            </Position>
            <AltitudeMeters>764.4000244140625</AltitudeMeters>
            <DistanceMeters>NAN</DistanceMeters>
          </Trackpoint>
          <Trackpoint>
            <Time>2019-10-07T08:26:57.000Z</Time>
            <Position>
              <LatitudeDegrees>40.9544276632368564605712890625</LatitudeDegrees>
              <LongitudeDegrees>-5.6689280457794666290283203125</LongitudeDegrees>
            </Position>
            <AltitudeMeters>763.79998779296875</AltitudeMeters>
            <DistanceMeters>NAN</DistanceMeters>
          </Trackpoint>
          <Trackpoint>
            <Time>2019-10-07T08:26:58.000Z</Time>
            <Position>
              <LatitudeDegrees>40.95445909537374973297119140625</LatitudeDegrees>
              <LongitudeDegrees>-5.66898194141685962677001953125</LongitudeDegrees>
            </Position>
            <AltitudeMeters>764</AltitudeMeters>
            <DistanceMeters>NAN</DistanceMeters>
          </Trackpoint>
          <Trackpoint>
            <Time>2019-10-07T08:26:59.000Z</Time>
            <Position>
              <LatitudeDegrees>40.954486839473247528076171875</LatitudeDegrees>
              <LongitudeDegrees>-5.66904095001518726348876953125</LongitudeDegrees>
            </Position>
            <AltitudeMeters>763.79998779296875</AltitudeMeters>
            <DistanceMeters>NAN</DistanceMeters>
          </Trackpoint>
          <Trackpoint>
            <Time>2019-10-07T08:27:02.000Z</Time>
            <Position>
              <LatitudeDegrees>40.9545500390231609344482421875</LatitudeDegrees>
              <LongitudeDegrees>-5.66923792473971843719482421875</LongitudeDegrees>
            </Position>
            <AltitudeMeters>763.4000244140625</AltitudeMeters>
            <DistanceMeters>NAN</DistanceMeters>
          </Trackpoint>
          <Trackpoint>
            <Time>2019-10-07T08:27:04.000Z</Time>
            <Position>
              <LatitudeDegrees>40.954565964639186859130859375</LatitudeDegrees>
              <LongitudeDegrees>-5.66936315037310123443603515625</LongitudeDegrees>
            </Position>
            <AltitudeMeters>763.5999755859375</AltitudeMeters>
            <DistanceMeters>NAN</DistanceMeters>
          </Trackpoint>
          <Trackpoint>
            <Time>2019-10-07T08:27:05.000Z</Time>
            <Position>
              <LatitudeDegrees>40.9545678086578845977783203125</LatitudeDegrees>
              <LongitudeDegrees>-5.6694192253053188323974609375</LongitudeDegrees>
            </Position>
            <AltitudeMeters>764.20001220703125</AltitudeMeters>
            <DistanceMeters>NAN</DistanceMeters>
          </Trackpoint>
          <Trackpoint>
            <Time>2019-10-07T08:27:06.000Z</Time>
            <Position>
              <LatitudeDegrees>40.95456152223050594329833984375</LatitudeDegrees>
              <LongitudeDegrees>-5.669474042952060699462890625</LongitudeDegrees>
            </Position>
            <AltitudeMeters>764.4000244140625</AltitudeMeters>
            <DistanceMeters>NAN</DistanceMeters>
          </Trackpoint>
          <Trackpoint>
            <Time>2019-10-07T08:27:11.000Z</Time>
            <Position>
              <LatitudeDegrees>40.95445037819445133209228515625</LatitudeDegrees>
              <LongitudeDegrees>-5.6697390787303447723388671875</LongitudeDegrees>
            </Position>
            <AltitudeMeters>764.4000244140625</AltitudeMeters>
            <DistanceMeters>NAN</DistanceMeters>
          </Trackpoint>
          <Trackpoint>
            <Time>2019-10-07T08:27:13.000Z</Time>
            <Position>
              <LatitudeDegrees>40.9543803893029689788818359375</LatitudeDegrees>
              <LongitudeDegrees>-5.66982532851397991180419921875</LongitudeDegrees>
            </Position>
            <AltitudeMeters>764.5999755859375</AltitudeMeters>
            <DistanceMeters>NAN</DistanceMeters>
          </Trackpoint>
          <Trackpoint>
            <Time>2019-10-07T08:27:15.000Z</Time>
            <Position>
              <LatitudeDegrees>40.95430470071732997894287109375</LatitudeDegrees>
              <LongitudeDegrees>-5.6698996759951114654541015625</LongitudeDegrees>
            </Position>
            <AltitudeMeters>764.79998779296875</AltitudeMeters>
            <DistanceMeters>NAN</DistanceMeters>
          </Trackpoint>
          <Trackpoint>
            <Time>2019-10-07T08:27:16.000Z</Time>
            <Position>
              <LatitudeDegrees>40.954265892505645751953125</LatitudeDegrees>
              <LongitudeDegrees>-5.6699271686375141143798828125</LongitudeDegrees>
            </Position>
            <AltitudeMeters>765</AltitudeMeters>
            <DistanceMeters>NAN</DistanceMeters>
          </Trackpoint>
          <Trackpoint>
            <Time>2019-10-07T08:27:17.000Z</Time>
            <Position>
              <LatitudeDegrees>40.954228006303310394287109375</LatitudeDegrees>
              <LongitudeDegrees>-5.66994854249060153961181640625</LongitudeDegrees>
            </Position>
            <AltitudeMeters>765.4000244140625</AltitudeMeters>
            <DistanceMeters>NAN</DistanceMeters>
          </Trackpoint>
          <Trackpoint>
            <Time>2019-10-07T08:27:21.000Z</Time>
            <Position>
              <LatitudeDegrees>40.95405005849897861480712890625</LatitudeDegrees>
              <LongitudeDegrees>-5.669954828917980194091796875</LongitudeDegrees>
            </Position>
            <AltitudeMeters>765.5999755859375</AltitudeMeters>
            <DistanceMeters>NAN</DistanceMeters>
          </Trackpoint>
          <Trackpoint>
            <Time>2019-10-07T08:27:23.000Z</Time>
            <Position>
              <LatitudeDegrees>40.9539317898452281951904296875</LatitudeDegrees>
              <LongitudeDegrees>-5.669919960200786590576171875</LongitudeDegrees>
            </Position>
            <AltitudeMeters>765.79998779296875</AltitudeMeters>
            <DistanceMeters>NAN</DistanceMeters>
          </Trackpoint>
          <Trackpoint>
            <Time>2019-10-07T08:27:29.000Z</Time>
            <Position>
              <LatitudeDegrees>40.9537066519260406494140625</LatitudeDegrees>
              <LongitudeDegrees>-5.66987327300012111663818359375</LongitudeDegrees>
            </Position>
            <AltitudeMeters>766.20001220703125</AltitudeMeters>
            <DistanceMeters>NAN</DistanceMeters>
          </Trackpoint>
          <Trackpoint>
            <Time>2019-10-07T08:27:30.000Z</Time>
            <Position>
              <LatitudeDegrees>40.95366449095308780670166015625</LatitudeDegrees>
              <LongitudeDegrees>-5.669873692095279693603515625</LongitudeDegrees>
            </Position>
            <AltitudeMeters>766.5999755859375</AltitudeMeters>
            <DistanceMeters>NAN</DistanceMeters>
          </Trackpoint>
          <Trackpoint>
            <Time>2019-10-07T08:27:34.000Z</Time>
            <Position>
              <LatitudeDegrees>40.9535157121717929840087890625</LatitudeDegrees>
              <LongitudeDegrees>-5.669892467558383941650390625</LongitudeDegrees>
            </Position>
            <AltitudeMeters>767.79998779296875</AltitudeMeters>
            <DistanceMeters>NAN</DistanceMeters>
          </Trackpoint>
          <Trackpoint>
            <Time>2019-10-07T08:27:35.000Z</Time>
            <Position>
              <LatitudeDegrees>40.95348143018782138824462890625</LatitudeDegrees>
              <LongitudeDegrees>-5.66989590413868427276611328125</LongitudeDegrees>
            </Position>
            <AltitudeMeters>767.79998779296875</AltitudeMeters>
            <DistanceMeters>NAN</DistanceMeters>
          </Trackpoint>
          <Trackpoint>
            <Time>2019-10-07T08:27:40.000Z</Time>
            <Position>
              <LatitudeDegrees>40.9533162228763103485107421875</LatitudeDegrees>
              <LongitudeDegrees>-5.66992339678108692169189453125</LongitudeDegrees>
            </Position>
            <AltitudeMeters>768.79998779296875</AltitudeMeters>
            <DistanceMeters>NAN</DistanceMeters>
          </Trackpoint>
          <Trackpoint>
            <Time>2019-10-07T08:27:42.000Z</Time>
            <Position>
              <LatitudeDegrees>40.95325939357280731201171875</LatitudeDegrees>
              <LongitudeDegrees>-5.669934712350368499755859375</LongitudeDegrees>
            </Position>
            <AltitudeMeters>769</AltitudeMeters>
            <DistanceMeters>NAN</DistanceMeters>
          </Trackpoint>
          <Trackpoint>
            <Time>2019-10-07T08:27:46.000Z</Time>
            <Position>
              <LatitudeDegrees>40.95313827507197856903076171875</LatitudeDegrees>
              <LongitudeDegrees>-5.669959522783756256103515625</LongitudeDegrees>
            </Position>
            <AltitudeMeters>770</AltitudeMeters>
            <DistanceMeters>NAN</DistanceMeters>
          </Trackpoint>
          <Trackpoint>
            <Time>2019-10-07T08:27:49.000Z</Time>
            <Position>
              <LatitudeDegrees>40.95304775051772594451904296875</LatitudeDegrees>
              <LongitudeDegrees>-5.66998525522649288177490234375</LongitudeDegrees>
            </Position>
            <AltitudeMeters>770.4000244140625</AltitudeMeters>
            <DistanceMeters>NAN</DistanceMeters>
          </Trackpoint>
          <Trackpoint>
            <Time>2019-10-07T08:27:54.000Z</Time>
            <Position>
              <LatitudeDegrees>40.952890925109386444091796875</LatitudeDegrees>
              <LongitudeDegrees>-5.670007131993770599365234375</LongitudeDegrees>
            </Position>
            <AltitudeMeters>771.20001220703125</AltitudeMeters>
            <DistanceMeters>NAN</DistanceMeters>
          </Trackpoint>
          <Trackpoint>
            <Time>2019-10-07T08:27:56.000Z</Time>
            <Position>
              <LatitudeDegrees>40.9528330899775028228759765625</LatitudeDegrees>
              <LongitudeDegrees>-5.6700140051543712615966796875</LongitudeDegrees>
            </Position>
            <AltitudeMeters>771.4000244140625</AltitudeMeters>
            <DistanceMeters>NAN</DistanceMeters>
          </Trackpoint>
          <Trackpoint>
            <Time>2019-10-07T08:28:00.000Z</Time>
            <Position>
              <LatitudeDegrees>40.95274885185062885284423828125</LatitudeDegrees>
              <LongitudeDegrees>-5.670027919113636016845703125</LongitudeDegrees>
            </Position>
            <AltitudeMeters>772.4000244140625</AltitudeMeters>
            <DistanceMeters>NAN</DistanceMeters>
          </Trackpoint>
          <Trackpoint>
            <Time>2019-10-07T08:28:02.000Z</Time>
            <Position>
              <LatitudeDegrees>40.9527195990085601806640625</LatitudeDegrees>
              <LongitudeDegrees>-5.670031942427158355712890625</LongitudeDegrees>
            </Position>
            <AltitudeMeters>772.20001220703125</AltitudeMeters>
            <DistanceMeters>NAN</DistanceMeters>
          </Trackpoint>
          <Trackpoint>
            <Time>2019-10-07T08:28:08.000Z</Time>
            <Position>
              <LatitudeDegrees>40.95268749631941318511962890625</LatitudeDegrees>
              <LongitudeDegrees>-5.67003454081714153289794921875</LongitudeDegrees>
            </Position>
            <AltitudeMeters>772.4000244140625</AltitudeMeters>
            <DistanceMeters>NAN</DistanceMeters>
          </Trackpoint>
          <Trackpoint>
            <Time>2019-10-07T08:28:12.000Z</Time>
            <Position>
              <LatitudeDegrees>40.95269219018518924713134765625</LatitudeDegrees>
              <LongitudeDegrees>-5.67003437317907810211181640625</LongitudeDegrees>
            </Position>
            <AltitudeMeters>772.79998779296875</AltitudeMeters>
            <DistanceMeters>NAN</DistanceMeters>
          </Trackpoint>
          <Trackpoint>
            <Time>2019-10-07T08:28:18.000Z</Time>
            <Position>
              <LatitudeDegrees>40.95269219018518924713134765625</LatitudeDegrees>
              <LongitudeDegrees>-5.67003437317907810211181640625</LongitudeDegrees>
            </Position>
            <AltitudeMeters>772.4000244140625</AltitudeMeters>
            <DistanceMeters>NAN</DistanceMeters>
          </Trackpoint>
          <Trackpoint>
            <Time>2019-10-07T08:28:20.000Z</Time>
            <Position>
              <LatitudeDegrees>40.95269219018518924713134765625</LatitudeDegrees>
              <LongitudeDegrees>-5.67003437317907810211181640625</LongitudeDegrees>
            </Position>
            <AltitudeMeters>772.4000244140625</AltitudeMeters>
            <DistanceMeters>NAN</DistanceMeters>
          </Trackpoint>
          <Trackpoint>
            <Time>2019-10-07T08:28:22.000Z</Time>
            <Position>
              <LatitudeDegrees>40.9526900947093963623046875</LatitudeDegrees>
              <LongitudeDegrees>-5.67003495991230010986328125</LongitudeDegrees>
            </Position>
            <AltitudeMeters>772.5999755859375</AltitudeMeters>
            <DistanceMeters>NAN</DistanceMeters>
          </Trackpoint>
          <Trackpoint>
            <Time>2019-10-07T08:28:24.000Z</Time>
            <Position>
              <LatitudeDegrees>40.95266855321824550628662109375</LatitudeDegrees>
              <LongitudeDegrees>-5.6700404919683933258056640625</LongitudeDegrees>
            </Position>
            <AltitudeMeters>772.4000244140625</AltitudeMeters>
            <DistanceMeters>NAN</DistanceMeters>
          </Trackpoint>
          <Trackpoint>
            <Time>2019-10-07T08:28:26.000Z</Time>
            <Position>
              <LatitudeDegrees>40.95263167284429073333740234375</LatitudeDegrees>
              <LongitudeDegrees>-5.67004879005253314971923828125</LongitudeDegrees>
            </Position>
            <AltitudeMeters>773.20001220703125</AltitudeMeters>
            <DistanceMeters>NAN</DistanceMeters>
          </Trackpoint>
          <Trackpoint>
            <Time>2019-10-07T08:28:28.000Z</Time>
            <Position>
              <LatitudeDegrees>40.9525886736810207366943359375</LatitudeDegrees>
              <LongitudeDegrees>-5.67006387747824192047119140625</LongitudeDegrees>
            </Position>
            <AltitudeMeters>773.4000244140625</AltitudeMeters>
            <DistanceMeters>NAN</DistanceMeters>
          </Trackpoint>
          <Trackpoint>
            <Time>2019-10-07T08:28:32.000Z</Time>
            <Position>
              <LatitudeDegrees>40.9524723328649997711181640625</LatitudeDegrees>
              <LongitudeDegrees>-5.6700813956558704376220703125</LongitudeDegrees>
            </Position>
            <AltitudeMeters>773</AltitudeMeters>
            <DistanceMeters>NAN</DistanceMeters>
          </Trackpoint>
          <Trackpoint>
            <Time>2019-10-07T08:28:39.000Z</Time>
            <Position>
              <LatitudeDegrees>40.95225750468671321868896484375</LatitudeDegrees>
              <LongitudeDegrees>-5.67011182196438312530517578125</LongitudeDegrees>
            </Position>
            <AltitudeMeters>774.20001220703125</AltitudeMeters>
            <DistanceMeters>NAN</DistanceMeters>
          </Trackpoint>
          <Trackpoint>
            <Time>2019-10-07T08:28:41.000Z</Time>
            <Position>
              <LatitudeDegrees>40.9521937184035778045654296875</LatitudeDegrees>
              <LongitudeDegrees>-5.67011668346822261810302734375</LongitudeDegrees>
            </Position>
            <AltitudeMeters>774.5999755859375</AltitudeMeters>
            <DistanceMeters>NAN</DistanceMeters>
          </Trackpoint>
          <Trackpoint>
            <Time>2019-10-07T08:28:42.000Z</Time>
            <Position>
              <LatitudeDegrees>40.9521625377237796783447265625</LatitudeDegrees>
              <LongitudeDegrees>-5.67011944949626922607421875</LongitudeDegrees>
            </Position>
            <AltitudeMeters>774.79998779296875</AltitudeMeters>
            <DistanceMeters>NAN</DistanceMeters>
          </Trackpoint>
          <Trackpoint>
            <Time>2019-10-07T08:28:49.000Z</Time>
            <Position>
              <LatitudeDegrees>40.9519402496516704559326171875</LatitudeDegrees>
              <LongitudeDegrees>-5.67016747780144214630126953125</LongitudeDegrees>
            </Position>
            <AltitudeMeters>775.79998779296875</AltitudeMeters>
            <DistanceMeters>NAN</DistanceMeters>
          </Trackpoint>
          <Trackpoint>
            <Time>2019-10-07T08:28:54.000Z</Time>
            <Position>
              <LatitudeDegrees>40.9517781436443328857421875</LatitudeDegrees>
              <LongitudeDegrees>-5.670196898281574249267578125</LongitudeDegrees>
            </Position>
            <AltitudeMeters>776.79998779296875</AltitudeMeters>
            <DistanceMeters>NAN</DistanceMeters>
          </Trackpoint>
          <Trackpoint>
            <Time>2019-10-07T08:28:55.000Z</Time>
            <Position>
              <LatitudeDegrees>40.95174637623131275177001953125</LatitudeDegrees>
              <LongitudeDegrees>-5.67020536400377750396728515625</LongitudeDegrees>
            </Position>
            <AltitudeMeters>777</AltitudeMeters>
            <DistanceMeters>NAN</DistanceMeters>
          </Trackpoint>
          <Trackpoint>
            <Time>2019-10-07T08:28:58.000Z</Time>
            <Position>
              <LatitudeDegrees>40.95164872705936431884765625</LatitudeDegrees>
              <LongitudeDegrees>-5.67023151554167270660400390625</LongitudeDegrees>
            </Position>
            <AltitudeMeters>777.4000244140625</AltitudeMeters>
            <DistanceMeters>NAN</DistanceMeters>
          </Trackpoint>
          <Trackpoint>
            <Time>2019-10-07T08:29:01.000Z</Time>
            <Position>
              <LatitudeDegrees>40.9515543468296527862548828125</LatitudeDegrees>
              <LongitudeDegrees>-5.67024978809058666229248046875</LongitudeDegrees>
            </Position>
            <AltitudeMeters>778.20001220703125</AltitudeMeters>
            <DistanceMeters>NAN</DistanceMeters>
          </Trackpoint>
          <Trackpoint>
            <Time>2019-10-07T08:29:07.000Z</Time>
            <Position>
              <LatitudeDegrees>40.95135494135320186614990234375</LatitudeDegrees>
              <LongitudeDegrees>-5.67026973702013492584228515625</LongitudeDegrees>
            </Position>
            <AltitudeMeters>779.20001220703125</AltitudeMeters>
            <DistanceMeters>NAN</DistanceMeters>
          </Trackpoint>
          <Trackpoint>
            <Time>2019-10-07T08:29:08.000Z</Time>
            <Position>
              <LatitudeDegrees>40.95132225193083286285400390625</LatitudeDegrees>
              <LongitudeDegrees>-5.67027459852397441864013671875</LongitudeDegrees>
            </Position>
            <AltitudeMeters>779.20001220703125</AltitudeMeters>
            <DistanceMeters>NAN</DistanceMeters>
          </Trackpoint>
          <Trackpoint>
            <Time>2019-10-07T08:29:16.000Z</Time>
            <Position>
              <LatitudeDegrees>40.9510591439902782440185546875</LatitudeDegrees>
              <LongitudeDegrees>-5.67030712030827999114990234375</LongitudeDegrees>
            </Position>
            <AltitudeMeters>780.20001220703125</AltitudeMeters>
            <DistanceMeters>NAN</DistanceMeters>
          </Trackpoint>
          <Trackpoint>
            <Time>2019-10-07T08:29:17.000Z</Time>
            <Position>
              <LatitudeDegrees>40.951027460396289825439453125</LatitudeDegrees>
              <LongitudeDegrees>-5.670310892164707183837890625</LongitudeDegrees>
            </Position>
            <AltitudeMeters>780.5999755859375</AltitudeMeters>
            <DistanceMeters>NAN</DistanceMeters>
          </Trackpoint>
          <Trackpoint>
            <Time>2019-10-07T08:29:26.000Z</Time>
            <Position>
              <LatitudeDegrees>40.9507319144904613494873046875</LatitudeDegrees>
              <LongitudeDegrees>-5.6703398935496807098388671875</LongitudeDegrees>
            </Position>
            <AltitudeMeters>781.79998779296875</AltitudeMeters>
            <DistanceMeters>NAN</DistanceMeters>
          </Trackpoint>
          <Trackpoint>
            <Time>2019-10-07T08:29:33.000Z</Time>
            <Position>
              <LatitudeDegrees>40.9504958800971508026123046875</LatitudeDegrees>
              <LongitudeDegrees>-5.6703502871096134185791015625</LongitudeDegrees>
            </Position>
            <AltitudeMeters>783</AltitudeMeters>
            <DistanceMeters>NAN</DistanceMeters>
          </Trackpoint>
          <Trackpoint>
            <Time>2019-10-07T08:29:35.000Z</Time>
            <Position>
              <LatitudeDegrees>40.950425304472446441650390625</LatitudeDegrees>
              <LongitudeDegrees>-5.67035322077572345733642578125</LongitudeDegrees>
            </Position>
            <AltitudeMeters>783.20001220703125</AltitudeMeters>
            <DistanceMeters>NAN</DistanceMeters>
          </Trackpoint>
          <Trackpoint>
            <Time>2019-10-07T08:29:43.000Z</Time>
            <Position>
              <LatitudeDegrees>40.9501498751342296600341796875</LatitudeDegrees>
              <LongitudeDegrees>-5.6703579984605312347412109375</LongitudeDegrees>
            </Position>
            <AltitudeMeters>783.79998779296875</AltitudeMeters>
            <DistanceMeters>NAN</DistanceMeters>
          </Trackpoint>
          <Trackpoint>
            <Time>2019-10-07T08:29:44.000Z</Time>
            <Position>
              <LatitudeDegrees>40.95011542551219463348388671875</LatitudeDegrees>
              <LongitudeDegrees>-5.670355819165706634521484375</LongitudeDegrees>
            </Position>
            <AltitudeMeters>784.20001220703125</AltitudeMeters>
            <DistanceMeters>NAN</DistanceMeters>
          </Trackpoint>
          <Trackpoint>
            <Time>2019-10-07T08:29:51.000Z</Time>
            <Position>
              <LatitudeDegrees>40.94988383352756500244140625</LatitudeDegrees>
              <LongitudeDegrees>-5.67034718580543994903564453125</LongitudeDegrees>
            </Position>
            <AltitudeMeters>784.5999755859375</AltitudeMeters>
            <DistanceMeters>NAN</DistanceMeters>
          </Trackpoint>
          <Trackpoint>
            <Time>2019-10-07T08:29:57.000Z</Time>
            <Position>
              <LatitudeDegrees>40.94976841472089290618896484375</LatitudeDegrees>
              <LongitudeDegrees>-5.67033964209258556365966796875</LongitudeDegrees>
            </Position>
            <AltitudeMeters>784.79998779296875</AltitudeMeters>
            <DistanceMeters>NAN</DistanceMeters>
          </Trackpoint>
          <Trackpoint>
            <Time>2019-10-07T08:30:01.000Z</Time>
            <Position>
              <LatitudeDegrees>40.94976581633090972900390625</LatitudeDegrees>
              <LongitudeDegrees>-5.670339055359363555908203125</LongitudeDegrees>
            </Position>
            <AltitudeMeters>784.79998779296875</AltitudeMeters>
            <DistanceMeters>NAN</DistanceMeters>
          </Trackpoint>
          <Trackpoint>
            <Time>2019-10-07T08:30:02.000Z</Time>
            <Position>
              <LatitudeDegrees>40.94976581633090972900390625</LatitudeDegrees>
              <LongitudeDegrees>-5.670339055359363555908203125</LongitudeDegrees>
            </Position>
            <AltitudeMeters>784.79998779296875</AltitudeMeters>
            <DistanceMeters>NAN</DistanceMeters>
          </Trackpoint>
          <Trackpoint>
            <Time>2019-10-07T08:30:05.000Z</Time>
            <Position>
              <LatitudeDegrees>40.94976581633090972900390625</LatitudeDegrees>
              <LongitudeDegrees>-5.670339055359363555908203125</LongitudeDegrees>
            </Position>
            <AltitudeMeters>784.79998779296875</AltitudeMeters>
            <DistanceMeters>NAN</DistanceMeters>
          </Trackpoint>
          <Trackpoint>
            <Time>2019-10-07T08:30:09.000Z</Time>
            <Position>
              <LatitudeDegrees>40.94976581633090972900390625</LatitudeDegrees>
              <LongitudeDegrees>-5.670339055359363555908203125</LongitudeDegrees>
            </Position>
            <AltitudeMeters>784.79998779296875</AltitudeMeters>
            <DistanceMeters>NAN</DistanceMeters>
          </Trackpoint>
          <Trackpoint>
            <Time>2019-10-07T08:30:11.000Z</Time>
            <Position>
              <LatitudeDegrees>40.94976581633090972900390625</LatitudeDegrees>
              <LongitudeDegrees>-5.670339055359363555908203125</LongitudeDegrees>
            </Position>
            <AltitudeMeters>785</AltitudeMeters>
            <DistanceMeters>NAN</DistanceMeters>
          </Trackpoint>
          <Trackpoint>
            <Time>2019-10-07T08:30:13.000Z</Time>
            <Position>
              <LatitudeDegrees>40.94976581633090972900390625</LatitudeDegrees>
              <LongitudeDegrees>-5.670339055359363555908203125</LongitudeDegrees>
            </Position>
            <AltitudeMeters>784.79998779296875</AltitudeMeters>
            <DistanceMeters>NAN</DistanceMeters>
          </Trackpoint>
          <Trackpoint>
            <Time>2019-10-07T08:30:16.000Z</Time>
            <Position>
              <LatitudeDegrees>40.94976137392222881317138671875</LatitudeDegrees>
              <LongitudeDegrees>-5.6703378818929195404052734375</LongitudeDegrees>
            </Position>
            <AltitudeMeters>785</AltitudeMeters>
            <DistanceMeters>NAN</DistanceMeters>
          </Trackpoint>
          <Trackpoint>
            <Time>2019-10-07T08:30:18.000Z</Time>
            <Position>
              <LatitudeDegrees>40.9497210569679737091064453125</LatitudeDegrees>
              <LongitudeDegrees>-5.67033193074166774749755859375</LongitudeDegrees>
            </Position>
            <AltitudeMeters>784.79998779296875</AltitudeMeters>
            <DistanceMeters>NAN</DistanceMeters>
          </Trackpoint>
          <Trackpoint>
            <Time>2019-10-07T08:30:20.000Z</Time>
            <Position>
              <LatitudeDegrees>40.9496637247502803802490234375</LatitudeDegrees>
              <LongitudeDegrees>-5.67032195627689361572265625</LongitudeDegrees>
            </Position>
            <AltitudeMeters>784.79998779296875</AltitudeMeters>
            <DistanceMeters>NAN</DistanceMeters>
          </Trackpoint>
          <Trackpoint>
            <Time>2019-10-07T08:30:21.000Z</Time>
            <Position>
              <LatitudeDegrees>40.949629358947277069091796875</LatitudeDegrees>
              <LongitudeDegrees>-5.67031684331595897674560546875</LongitudeDegrees>
            </Position>
            <AltitudeMeters>784.5999755859375</AltitudeMeters>
            <DistanceMeters>NAN</DistanceMeters>
          </Trackpoint>
          <Trackpoint>
            <Time>2019-10-07T08:30:24.000Z</Time>
            <Position>
              <LatitudeDegrees>40.9495135210454463958740234375</LatitudeDegrees>
              <LongitudeDegrees>-5.6702919490635395050048828125</LongitudeDegrees>
            </Position>
            <AltitudeMeters>784.5999755859375</AltitudeMeters>
            <DistanceMeters>NAN</DistanceMeters>
          </Trackpoint>
          <Trackpoint>
            <Time>2019-10-07T08:30:26.000Z</Time>
            <Position>
              <LatitudeDegrees>40.9494320489466190338134765625</LatitudeDegrees>
              <LongitudeDegrees>-5.67027728073298931121826171875</LongitudeDegrees>
            </Position>
            <AltitudeMeters>784.5999755859375</AltitudeMeters>
            <DistanceMeters>NAN</DistanceMeters>
          </Trackpoint>
          <Trackpoint>
            <Time>2019-10-07T08:30:27.000Z</Time>
            <Position>
              <LatitudeDegrees>40.94939257018268108367919921875</LatitudeDegrees>
              <LongitudeDegrees>-5.67027241922914981842041015625</LongitudeDegrees>
            </Position>
            <AltitudeMeters>784.79998779296875</AltitudeMeters>
            <DistanceMeters>NAN</DistanceMeters>
          </Trackpoint>
          <Trackpoint>
            <Time>2019-10-07T08:30:30.000Z</Time>
            <Position>
              <LatitudeDegrees>40.949267931282520294189453125</LatitudeDegrees>
              <LongitudeDegrees>-5.670243836939334869384765625</LongitudeDegrees>
            </Position>
            <AltitudeMeters>784.5999755859375</AltitudeMeters>
            <DistanceMeters>NAN</DistanceMeters>
          </Trackpoint>
          <Trackpoint>
            <Time>2019-10-07T08:30:35.000Z</Time>
            <Position>
              <LatitudeDegrees>40.94905209727585315704345703125</LatitudeDegrees>
              <LongitudeDegrees>-5.670194886624813079833984375</LongitudeDegrees>
            </Position>
            <AltitudeMeters>785</AltitudeMeters>
            <DistanceMeters>NAN</DistanceMeters>
          </Trackpoint>
          <Trackpoint>
            <Time>2019-10-07T08:30:40.000Z</Time>
            <Position>
              <LatitudeDegrees>40.9488268755376338958740234375</LatitudeDegrees>
              <LongitudeDegrees>-5.67015163600444793701171875</LongitudeDegrees>
            </Position>
            <AltitudeMeters>785</AltitudeMeters>
            <DistanceMeters>NAN</DistanceMeters>
          </Trackpoint>
          <Trackpoint>
            <Time>2019-10-07T08:30:42.000Z</Time>
            <Position>
              <LatitudeDegrees>40.94873492605984210968017578125</LatitudeDegrees>
              <LongitudeDegrees>-5.6701353751122951507568359375</LongitudeDegrees>
            </Position>
            <AltitudeMeters>785.20001220703125</AltitudeMeters>
            <DistanceMeters>NAN</DistanceMeters>
          </Trackpoint>
          <Trackpoint>
            <Time>2019-10-07T08:30:43.000Z</Time>
            <Position>
              <LatitudeDegrees>40.94868916086852550506591796875</LatitudeDegrees>
              <LongitudeDegrees>-5.67012925632297992706298828125</LongitudeDegrees>
            </Position>
            <AltitudeMeters>785.4000244140625</AltitudeMeters>
            <DistanceMeters>NAN</DistanceMeters>
          </Trackpoint>
          <Trackpoint>
            <Time>2019-10-07T08:30:51.000Z</Time>
            <Position>
              <LatitudeDegrees>40.9483422338962554931640625</LatitudeDegrees>
              <LongitudeDegrees>-5.67007108591496944427490234375</LongitudeDegrees>
            </Position>
            <AltitudeMeters>785.79998779296875</AltitudeMeters>
            <DistanceMeters>NAN</DistanceMeters>
          </Trackpoint>
          <Trackpoint>
            <Time>2019-10-07T08:31:01.000Z</Time>
            <Position>
              <LatitudeDegrees>40.94790302217006683349609375</LatitudeDegrees>
              <LongitudeDegrees>-5.67000553943216800689697265625</LongitudeDegrees>
            </Position>
            <AltitudeMeters>786.4000244140625</AltitudeMeters>
            <DistanceMeters>NAN</DistanceMeters>
          </Trackpoint>
          <Trackpoint>
            <Time>2019-10-07T08:31:02.000Z</Time>
            <Position>
              <LatitudeDegrees>40.947857759892940521240234375</LatitudeDegrees>
              <LongitudeDegrees>-5.6699989177286624908447265625</LongitudeDegrees>
            </Position>
            <AltitudeMeters>786.4000244140625</AltitudeMeters>
            <DistanceMeters>NAN</DistanceMeters>
          </Trackpoint>
          <Trackpoint>
            <Time>2019-10-07T08:31:12.000Z</Time>
            <Position>
              <LatitudeDegrees>40.9474093280732631683349609375</LatitudeDegrees>
              <LongitudeDegrees>-5.66993437707424163818359375</LongitudeDegrees>
            </Position>
            <AltitudeMeters>786.5999755859375</AltitudeMeters>
            <DistanceMeters>NAN</DistanceMeters>
          </Trackpoint>
          <Trackpoint>
            <Time>2019-10-07T08:31:20.000Z</Time>
            <Position>
              <LatitudeDegrees>40.94705167226493358612060546875</LatitudeDegrees>
              <LongitudeDegrees>-5.66988282836973667144775390625</LongitudeDegrees>
            </Position>
            <AltitudeMeters>786.5999755859375</AltitudeMeters>
            <DistanceMeters>NAN</DistanceMeters>
          </Trackpoint>
          <Trackpoint>
            <Time>2019-10-07T08:31:25.000Z</Time>
            <Position>
              <LatitudeDegrees>40.9468313120305538177490234375</LatitudeDegrees>
              <LongitudeDegrees>-5.669848211109638214111328125</LongitudeDegrees>
            </Position>
            <AltitudeMeters>787</AltitudeMeters>
            <DistanceMeters>NAN</DistanceMeters>
          </Trackpoint>
          <Trackpoint>
            <Time>2019-10-07T08:31:28.000Z</Time>
            <Position>
              <LatitudeDegrees>40.94670139253139495849609375</LatitudeDegrees>
              <LongitudeDegrees>-5.6698349677026271820068359375</LongitudeDegrees>
            </Position>
            <AltitudeMeters>787</AltitudeMeters>
            <DistanceMeters>NAN</DistanceMeters>
          </Trackpoint>
          <Trackpoint>
            <Time>2019-10-07T08:31:29.000Z</Time>
            <Position>
              <LatitudeDegrees>40.94665579497814178466796875</LatitudeDegrees>
              <LongitudeDegrees>-5.6698299385607242584228515625</LongitudeDegrees>
            </Position>
            <AltitudeMeters>787.5999755859375</AltitudeMeters>
            <DistanceMeters>NAN</DistanceMeters>
          </Trackpoint>
          <Trackpoint>
            <Time>2019-10-07T08:31:34.000Z</Time>
            <Position>
              <LatitudeDegrees>40.9464370273053646087646484375</LatitudeDegrees>
              <LongitudeDegrees>-5.6698007695376873016357421875</LongitudeDegrees>
            </Position>
            <AltitudeMeters>787.5999755859375</AltitudeMeters>
            <DistanceMeters>NAN</DistanceMeters>
          </Trackpoint>
          <Trackpoint>
            <Time>2019-10-07T08:31:39.000Z</Time>
            <Position>
              <LatitudeDegrees>40.94621432013809680938720703125</LatitudeDegrees>
              <LongitudeDegrees>-5.66977319307625293731689453125</LongitudeDegrees>
            </Position>
            <AltitudeMeters>787.5999755859375</AltitudeMeters>
            <DistanceMeters>NAN</DistanceMeters>
          </Trackpoint>
          <Trackpoint>
            <Time>2019-10-07T08:31:49.000Z</Time>
            <Position>
              <LatitudeDegrees>40.94577712006866931915283203125</LatitudeDegrees>
              <LongitudeDegrees>-5.66969105042517185211181640625</LongitudeDegrees>
            </Position>
            <AltitudeMeters>788.20001220703125</AltitudeMeters>
            <DistanceMeters>NAN</DistanceMeters>
          </Trackpoint>
          <Trackpoint>
            <Time>2019-10-07T08:31:56.000Z</Time>
            <Position>
              <LatitudeDegrees>40.945461206138134002685546875</LatitudeDegrees>
              <LongitudeDegrees>-5.66963640041649341583251953125</LongitudeDegrees>
            </Position>
            <AltitudeMeters>788.79998779296875</AltitudeMeters>
            <DistanceMeters>NAN</DistanceMeters>
          </Trackpoint>
          <Trackpoint>
            <Time>2019-10-07T08:31:59.000Z</Time>
            <Position>
              <LatitudeDegrees>40.94532868824899196624755859375</LatitudeDegrees>
              <LongitudeDegrees>-5.669611506164073944091796875</LongitudeDegrees>
            </Position>
            <AltitudeMeters>788.5999755859375</AltitudeMeters>
            <DistanceMeters>NAN</DistanceMeters>
          </Trackpoint>
          <Trackpoint>
            <Time>2019-10-07T08:32:11.000Z</Time>
            <Position>
              <LatitudeDegrees>40.9447955153882503509521484375</LatitudeDegrees>
              <LongitudeDegrees>-5.6695295311510562896728515625</LongitudeDegrees>
            </Position>
            <AltitudeMeters>789.4000244140625</AltitudeMeters>
            <DistanceMeters>NAN</DistanceMeters>
          </Trackpoint>
          <Trackpoint>
            <Time>2019-10-07T08:32:20.000Z</Time>
            <Position>
              <LatitudeDegrees>40.94439511187374591827392578125</LatitudeDegrees>
              <LongitudeDegrees>-5.66947697661817073822021484375</LongitudeDegrees>
            </Position>
            <AltitudeMeters>789.5999755859375</AltitudeMeters>
            <DistanceMeters>NAN</DistanceMeters>
          </Trackpoint>
          <Trackpoint>
            <Time>2019-10-07T08:32:29.000Z</Time>
            <Position>
              <LatitudeDegrees>40.94399060122668743133544921875</LatitudeDegrees>
              <LongitudeDegrees>-5.6694095022976398468017578125</LongitudeDegrees>
            </Position>
            <AltitudeMeters>790.20001220703125</AltitudeMeters>
            <DistanceMeters>NAN</DistanceMeters>
          </Trackpoint>
          <Trackpoint>
            <Time>2019-10-07T08:32:31.000Z</Time>
            <Position>
              <LatitudeDegrees>40.94390158541500568389892578125</LatitudeDegrees>
              <LongitudeDegrees>-5.66939785145223140716552734375</LongitudeDegrees>
            </Position>
            <AltitudeMeters>790.20001220703125</AltitudeMeters>
            <DistanceMeters>NAN</DistanceMeters>
          </Trackpoint>
          <Trackpoint>
            <Time>2019-10-07T08:32:41.000Z</Time>
            <Position>
              <LatitudeDegrees>40.943465642631053924560546875</LatitudeDegrees>
              <LongitudeDegrees>-5.6693253479897975921630859375</LongitudeDegrees>
            </Position>
            <AltitudeMeters>790.4000244140625</AltitudeMeters>
            <DistanceMeters>NAN</DistanceMeters>
          </Trackpoint>
          <Trackpoint>
            <Time>2019-10-07T08:32:47.000Z</Time>
            <Position>
              <LatitudeDegrees>40.9432059712707996368408203125</LatitudeDegrees>
              <LongitudeDegrees>-5.66928662359714508056640625</LongitudeDegrees>
            </Position>
            <AltitudeMeters>791.20001220703125</AltitudeMeters>
            <DistanceMeters>NAN</DistanceMeters>
          </Trackpoint>
          <Trackpoint>
            <Time>2019-10-07T08:32:51.000Z</Time>
            <Position>
              <LatitudeDegrees>40.94303523190319538116455078125</LatitudeDegrees>
              <LongitudeDegrees>-5.6692592985928058624267578125</LongitudeDegrees>
            </Position>
            <AltitudeMeters>791.79998779296875</AltitudeMeters>
            <DistanceMeters>NAN</DistanceMeters>
          </Trackpoint>
          <Trackpoint>
            <Time>2019-10-07T08:32:53.000Z</Time>
            <Position>
              <LatitudeDegrees>40.94295476563274860382080078125</LatitudeDegrees>
              <LongitudeDegrees>-5.669243037700653076171875</LongitudeDegrees>
            </Position>
            <AltitudeMeters>792.20001220703125</AltitudeMeters>
            <DistanceMeters>NAN</DistanceMeters>
          </Trackpoint>
          <Trackpoint>
            <Time>2019-10-07T08:33:00.000Z</Time>
            <Position>
              <LatitudeDegrees>40.94263440929353237152099609375</LatitudeDegrees>
              <LongitudeDegrees>-5.66919676959514617919921875</LongitudeDegrees>
            </Position>
            <AltitudeMeters>793</AltitudeMeters>
            <DistanceMeters>NAN</DistanceMeters>
          </Trackpoint>
          <Trackpoint>
            <Time>2019-10-07T08:33:02.000Z</Time>
            <Position>
              <LatitudeDegrees>40.94256634823977947235107421875</LatitudeDegrees>
              <LongitudeDegrees>-5.669189058244228363037109375</LongitudeDegrees>
            </Position>
            <AltitudeMeters>793.4000244140625</AltitudeMeters>
            <DistanceMeters>NAN</DistanceMeters>
          </Trackpoint>
          <Trackpoint>
            <Time>2019-10-07T08:33:07.000Z</Time>
            <Position>
              <LatitudeDegrees>40.94234758056700229644775390625</LatitudeDegrees>
              <LongitudeDegrees>-5.66915444098412990570068359375</LongitudeDegrees>
            </Position>
            <AltitudeMeters>794.4000244140625</AltitudeMeters>
            <DistanceMeters>NAN</DistanceMeters>
          </Trackpoint>
          <Trackpoint>
            <Time>2019-10-07T08:33:09.000Z</Time>
            <Position>
              <LatitudeDegrees>40.9422589838504791259765625</LatitudeDegrees>
              <LongitudeDegrees>-5.669136084616184234619140625</LongitudeDegrees>
            </Position>
            <AltitudeMeters>794.5999755859375</AltitudeMeters>
            <DistanceMeters>NAN</DistanceMeters>
          </Trackpoint>
          <Trackpoint>
            <Time>2019-10-07T08:33:13.000Z</Time>
            <Position>
              <LatitudeDegrees>40.9420891664922237396240234375</LatitudeDegrees>
              <LongitudeDegrees>-5.66910850815474987030029296875</LongitudeDegrees>
            </Position>
            <AltitudeMeters>795.20001220703125</AltitudeMeters>
            <DistanceMeters>NAN</DistanceMeters>
          </Trackpoint>
          <Trackpoint>
            <Time>2019-10-07T08:33:14.000Z</Time>
            <Position>
              <LatitudeDegrees>40.94204750843346118927001953125</LatitudeDegrees>
              <LongitudeDegrees>-5.6691033951938152313232421875</LongitudeDegrees>
            </Position>
            <AltitudeMeters>795.5999755859375</AltitudeMeters>
            <DistanceMeters>NAN</DistanceMeters>
          </Trackpoint>
          <Trackpoint>
            <Time>2019-10-07T08:33:18.000Z</Time>
            <Position>
              <LatitudeDegrees>40.94188724644482135772705078125</LatitudeDegrees>
              <LongitudeDegrees>-5.669082105159759521484375</LongitudeDegrees>
            </Position>
            <AltitudeMeters>796</AltitudeMeters>
            <DistanceMeters>NAN</DistanceMeters>
          </Trackpoint>
          <Trackpoint>
            <Time>2019-10-07T08:33:20.000Z</Time>
            <Position>
              <LatitudeDegrees>40.941810719668865203857421875</LatitudeDegrees>
              <LongitudeDegrees>-5.6690940074622631072998046875</LongitudeDegrees>
            </Position>
            <AltitudeMeters>796.5999755859375</AltitudeMeters>
            <DistanceMeters>NAN</DistanceMeters>
          </Trackpoint>
          <Trackpoint>
            <Time>2019-10-07T08:33:21.000Z</Time>
            <Position>
              <LatitudeDegrees>40.94177643768489360809326171875</LatitudeDegrees>
              <LongitudeDegrees>-5.669115297496318817138671875</LongitudeDegrees>
            </Position>
            <AltitudeMeters>797</AltitudeMeters>
            <DistanceMeters>NAN</DistanceMeters>
          </Trackpoint>
          <Trackpoint>
            <Time>2019-10-07T08:33:23.000Z</Time>
            <Position>
              <LatitudeDegrees>40.9417193569242954254150390625</LatitudeDegrees>
              <LongitudeDegrees>-5.66918780095875263214111328125</LongitudeDegrees>
            </Position>
            <AltitudeMeters>797.5999755859375</AltitudeMeters>
            <DistanceMeters>NAN</DistanceMeters>
          </Trackpoint>
          <Trackpoint>
            <Time>2019-10-07T08:33:27.000Z</Time>
            <Position>
              <LatitudeDegrees>40.94163008965551853179931640625</LatitudeDegrees>
              <LongitudeDegrees>-5.6693811714649200439453125</LongitudeDegrees>
            </Position>
            <AltitudeMeters>797.79998779296875</AltitudeMeters>
            <DistanceMeters>NAN</DistanceMeters>
          </Trackpoint>
          <Trackpoint>
            <Time>2019-10-07T08:33:28.000Z</Time>
            <Position>
              <LatitudeDegrees>40.94160226173698902130126953125</LatitudeDegrees>
              <LongitudeDegrees>-5.66942584700882434844970703125</LongitudeDegrees>
            </Position>
            <AltitudeMeters>798</AltitudeMeters>
            <DistanceMeters>NAN</DistanceMeters>
          </Trackpoint>
          <Trackpoint>
            <Time>2019-10-07T08:33:29.000Z</Time>
            <Position>
              <LatitudeDegrees>40.94157091341912746429443359375</LatitudeDegrees>
              <LongitudeDegrees>-5.6694678403437137603759765625</LongitudeDegrees>
            </Position>
            <AltitudeMeters>798.20001220703125</AltitudeMeters>
            <DistanceMeters>NAN</DistanceMeters>
          </Trackpoint>
          <Trackpoint>
            <Time>2019-10-07T08:33:33.000Z</Time>
            <Position>
              <LatitudeDegrees>40.94142221845686435699462890625</LatitudeDegrees>
              <LongitudeDegrees>-5.66959239542484283447265625</LongitudeDegrees>
            </Position>
            <AltitudeMeters>798.20001220703125</AltitudeMeters>
            <DistanceMeters>NAN</DistanceMeters>
          </Trackpoint>
          <Trackpoint>
            <Time>2019-10-07T08:33:38.000Z</Time>
            <Position>
              <LatitudeDegrees>40.9412053786218166351318359375</LatitudeDegrees>
              <LongitudeDegrees>-5.66964193247258663177490234375</LongitudeDegrees>
            </Position>
            <AltitudeMeters>798.79998779296875</AltitudeMeters>
            <DistanceMeters>NAN</DistanceMeters>
          </Trackpoint>
          <Trackpoint>
            <Time>2019-10-07T08:33:43.000Z</Time>
            <Position>
              <LatitudeDegrees>40.94099742360413074493408203125</LatitudeDegrees>
              <LongitudeDegrees>-5.66956691443920135498046875</LongitudeDegrees>
            </Position>
            <AltitudeMeters>798.79998779296875</AltitudeMeters>
            <DistanceMeters>NAN</DistanceMeters>
          </Trackpoint>
          <Trackpoint>
            <Time>2019-10-07T08:33:44.000Z</Time>
            <Position>
              <LatitudeDegrees>40.94095936976373195648193359375</LatitudeDegrees>
              <LongitudeDegrees>-5.669534392654895782470703125</LongitudeDegrees>
            </Position>
            <AltitudeMeters>799.20001220703125</AltitudeMeters>
            <DistanceMeters>NAN</DistanceMeters>
          </Trackpoint>
          <Trackpoint>
            <Time>2019-10-07T08:33:45.000Z</Time>
            <Position>
              <LatitudeDegrees>40.94092165119946002960205078125</LatitudeDegrees>
              <LongitudeDegrees>-5.669503547251224517822265625</LongitudeDegrees>
            </Position>
            <AltitudeMeters>799.4000244140625</AltitudeMeters>
            <DistanceMeters>NAN</DistanceMeters>
          </Trackpoint>
          <Trackpoint>
            <Time>2019-10-07T08:33:47.000Z</Time>
            <Position>
              <LatitudeDegrees>40.94084906391799449920654296875</LatitudeDegrees>
              <LongitudeDegrees>-5.66943640820682048797607421875</LongitudeDegrees>
            </Position>
            <AltitudeMeters>799.5999755859375</AltitudeMeters>
            <DistanceMeters>NAN</DistanceMeters>
          </Trackpoint>
          <Trackpoint>
            <Time>2019-10-07T08:33:48.000Z</Time>
            <Position>
              <LatitudeDegrees>40.94081905670464038848876953125</LatitudeDegrees>
              <LongitudeDegrees>-5.66939567215740680694580078125</LongitudeDegrees>
            </Position>
            <AltitudeMeters>799.79998779296875</AltitudeMeters>
            <DistanceMeters>NAN</DistanceMeters>
          </Trackpoint>
          <Trackpoint>
            <Time>2019-10-07T08:33:51.000Z</Time>
            <Position>
              <LatitudeDegrees>40.94074630178511142730712890625</LatitudeDegrees>
              <LongitudeDegrees>-5.66925820894539356231689453125</LongitudeDegrees>
            </Position>
            <AltitudeMeters>800.4000244140625</AltitudeMeters>
            <DistanceMeters>NAN</DistanceMeters>
          </Trackpoint>
          <Trackpoint>
            <Time>2019-10-07T08:33:53.000Z</Time>
            <Position>
              <LatitudeDegrees>40.9407113492488861083984375</LatitudeDegrees>
              <LongitudeDegrees>-5.66915527917444705963134765625</LongitudeDegrees>
            </Position>
            <AltitudeMeters>800.4000244140625</AltitudeMeters>
            <DistanceMeters>NAN</DistanceMeters>
          </Trackpoint>
          <Trackpoint>
            <Time>2019-10-07T08:33:56.000Z</Time>
            <Position>
              <LatitudeDegrees>40.940656699240207672119140625</LatitudeDegrees>
              <LongitudeDegrees>-5.66900365054607391357421875</LongitudeDegrees>
            </Position>
            <AltitudeMeters>800.5999755859375</AltitudeMeters>
            <DistanceMeters>NAN</DistanceMeters>
          </Trackpoint>
          <Trackpoint>
            <Time>2019-10-07T08:33:59.000Z</Time>
            <Position>
              <LatitudeDegrees>40.9405606426298618316650390625</LatitudeDegrees>
              <LongitudeDegrees>-5.66888437606394290924072265625</LongitudeDegrees>
            </Position>
            <AltitudeMeters>800.20001220703125</AltitudeMeters>
            <DistanceMeters>NAN</DistanceMeters>
          </Trackpoint>
          <Trackpoint>
            <Time>2019-10-07T08:34:02.000Z</Time>
            <Position>
              <LatitudeDegrees>40.94043533317744731903076171875</LatitudeDegrees>
              <LongitudeDegrees>-5.66884129308164119720458984375</LongitudeDegrees>
            </Position>
            <AltitudeMeters>800.79998779296875</AltitudeMeters>
            <DistanceMeters>NAN</DistanceMeters>
          </Trackpoint>
          <Trackpoint>
            <Time>2019-10-07T08:34:03.000Z</Time>
            <Position>
              <LatitudeDegrees>40.9403909929096698760986328125</LatitudeDegrees>
              <LongitudeDegrees>-5.6688348390161991119384765625</LongitudeDegrees>
            </Position>
            <AltitudeMeters>801.4000244140625</AltitudeMeters>
            <DistanceMeters>NAN</DistanceMeters>
          </Trackpoint>
          <Trackpoint>
            <Time>2019-10-07T08:34:15.000Z</Time>
            <Position>
              <LatitudeDegrees>40.93987726606428623199462890625</LatitudeDegrees>
              <LongitudeDegrees>-5.66876367665827274322509765625</LongitudeDegrees>
            </Position>
            <AltitudeMeters>802.4000244140625</AltitudeMeters>
            <DistanceMeters>NAN</DistanceMeters>
          </Trackpoint>
          <Trackpoint>
            <Time>2019-10-07T08:34:18.000Z</Time>
            <Position>
              <LatitudeDegrees>40.939749777317047119140625</LatitudeDegrees>
              <LongitudeDegrees>-5.66874305717647075653076171875</LongitudeDegrees>
            </Position>
            <AltitudeMeters>802.79998779296875</AltitudeMeters>
            <DistanceMeters>NAN</DistanceMeters>
          </Trackpoint>
          <Trackpoint>
            <Time>2019-10-07T08:34:28.000Z</Time>
            <Position>
              <LatitudeDegrees>40.93932338990271091461181640625</LatitudeDegrees>
              <LongitudeDegrees>-5.66867717541754245758056640625</LongitudeDegrees>
            </Position>
            <AltitudeMeters>803.79998779296875</AltitudeMeters>
            <DistanceMeters>NAN</DistanceMeters>
          </Trackpoint>
          <Trackpoint>
            <Time>2019-10-07T08:34:37.000Z</Time>
            <Position>
              <LatitudeDegrees>40.93892700970172882080078125</LatitudeDegrees>
              <LongitudeDegrees>-5.66860877908766269683837890625</LongitudeDegrees>
            </Position>
            <AltitudeMeters>803.5999755859375</AltitudeMeters>
            <DistanceMeters>NAN</DistanceMeters>
          </Trackpoint>
          <Trackpoint>
            <Time>2019-10-07T08:34:42.000Z</Time>
            <Position>
              <LatitudeDegrees>40.93870698474347591400146484375</LatitudeDegrees>
              <LongitudeDegrees>-5.6685738265514373779296875</LongitudeDegrees>
            </Position>
            <AltitudeMeters>804</AltitudeMeters>
            <DistanceMeters>NAN</DistanceMeters>
          </Trackpoint>
          <Trackpoint>
            <Time>2019-10-07T08:34:48.000Z</Time>
            <Position>
              <LatitudeDegrees>40.938443876802921295166015625</LatitudeDegrees>
              <LongitudeDegrees>-5.66852948628365993499755859375</LongitudeDegrees>
            </Position>
            <AltitudeMeters>804.20001220703125</AltitudeMeters>
            <DistanceMeters>NAN</DistanceMeters>
          </Trackpoint>
          <Trackpoint>
            <Time>2019-10-07T08:34:54.000Z</Time>
            <Position>
              <LatitudeDegrees>40.9381694532930850982666015625</LatitudeDegrees>
              <LongitudeDegrees>-5.66849042661488056182861328125</LongitudeDegrees>
            </Position>
            <AltitudeMeters>804.20001220703125</AltitudeMeters>
            <DistanceMeters>NAN</DistanceMeters>
          </Trackpoint>
          <Trackpoint>
            <Time>2019-10-07T08:34:55.000Z</Time>
            <Position>
              <LatitudeDegrees>40.93812393955886363983154296875</LatitudeDegrees>
              <LongitudeDegrees>-5.668484978377819061279296875</LongitudeDegrees>
            </Position>
            <AltitudeMeters>804.4000244140625</AltitudeMeters>
            <DistanceMeters>NAN</DistanceMeters>
          </Trackpoint>
          <Trackpoint>
            <Time>2019-10-07T08:35:04.000Z</Time>
            <Position>
              <LatitudeDegrees>40.93770752660930156707763671875</LatitudeDegrees>
              <LongitudeDegrees>-5.66842521540820598602294921875</LongitudeDegrees>
            </Position>
            <AltitudeMeters>804.4000244140625</AltitudeMeters>
            <DistanceMeters>NAN</DistanceMeters>
          </Trackpoint>
          <Trackpoint>
            <Time>2019-10-07T08:35:08.000Z</Time>
            <Position>
              <LatitudeDegrees>40.9375275671482086181640625</LatitudeDegrees>
              <LongitudeDegrees>-5.66839990206062793731689453125</LongitudeDegrees>
            </Position>
            <AltitudeMeters>804.4000244140625</AltitudeMeters>
            <DistanceMeters>NAN</DistanceMeters>
          </Trackpoint>
          <Trackpoint>
            <Time>2019-10-07T08:35:14.000Z</Time>
            <Position>
              <LatitudeDegrees>40.93726529739797115325927734375</LatitudeDegrees>
              <LongitudeDegrees>-5.66836385987699031829833984375</LongitudeDegrees>
            </Position>
            <AltitudeMeters>804.79998779296875</AltitudeMeters>
            <DistanceMeters>NAN</DistanceMeters>
          </Trackpoint>
          <Trackpoint>
            <Time>2019-10-07T08:35:18.000Z</Time>
            <Position>
              <LatitudeDegrees>40.93708575703203678131103515625</LatitudeDegrees>
              <LongitudeDegrees>-5.66833502613008022308349609375</LongitudeDegrees>
            </Position>
            <AltitudeMeters>805</AltitudeMeters>
            <DistanceMeters>NAN</DistanceMeters>
          </Trackpoint>
          <Trackpoint>
            <Time>2019-10-07T08:35:25.000Z</Time>
            <Position>
              <LatitudeDegrees>40.93677051365375518798828125</LatitudeDegrees>
              <LongitudeDegrees>-5.66828020848333835601806640625</LongitudeDegrees>
            </Position>
            <AltitudeMeters>805.79998779296875</AltitudeMeters>
            <DistanceMeters>NAN</DistanceMeters>
          </Trackpoint>
          <Trackpoint>
            <Time>2019-10-07T08:35:27.000Z</Time>
            <Position>
              <LatitudeDegrees>40.93667990528047084808349609375</LatitudeDegrees>
              <LongitudeDegrees>-5.668266378343105316162109375</LongitudeDegrees>
            </Position>
            <AltitudeMeters>805.79998779296875</AltitudeMeters>
            <DistanceMeters>NAN</DistanceMeters>
          </Trackpoint>
          <Trackpoint>
            <Time>2019-10-07T08:35:39.000Z</Time>
            <Position>
              <LatitudeDegrees>40.93613860197365283966064453125</LatitudeDegrees>
              <LongitudeDegrees>-5.6681773625314235687255859375</LongitudeDegrees>
            </Position>
            <AltitudeMeters>805.79998779296875</AltitudeMeters>
            <DistanceMeters>NAN</DistanceMeters>
          </Trackpoint>
          <Trackpoint>
            <Time>2019-10-07T08:35:48.000Z</Time>
            <Position>
              <LatitudeDegrees>40.93574448488652706146240234375</LatitudeDegrees>
              <LongitudeDegrees>-5.6681285798549652099609375</LongitudeDegrees>
            </Position>
            <AltitudeMeters>807</AltitudeMeters>
            <DistanceMeters>NAN</DistanceMeters>
          </Trackpoint>
          <Trackpoint>
            <Time>2019-10-07T08:35:50.000Z</Time>
            <Position>
              <LatitudeDegrees>40.93565664254128932952880859375</LatitudeDegrees>
              <LongitudeDegrees>-5.6681200303137302398681640625</LongitudeDegrees>
            </Position>
            <AltitudeMeters>807.5999755859375</AltitudeMeters>
            <DistanceMeters>NAN</DistanceMeters>
          </Trackpoint>
          <Trackpoint>
            <Time>2019-10-07T08:35:59.000Z</Time>
            <Position>
              <LatitudeDegrees>40.935249030590057373046875</LatitudeDegrees>
              <LongitudeDegrees>-5.66811474971473217010498046875</LongitudeDegrees>
            </Position>
            <AltitudeMeters>808</AltitudeMeters>
            <DistanceMeters>NAN</DistanceMeters>
          </Trackpoint>
          <Trackpoint>
            <Time>2019-10-07T08:36:00.000Z</Time>
            <Position>
              <LatitudeDegrees>40.9352032653987407684326171875</LatitudeDegrees>
              <LongitudeDegrees>-5.6681190244853496551513671875</LongitudeDegrees>
            </Position>
            <AltitudeMeters>807.79998779296875</AltitudeMeters>
            <DistanceMeters>NAN</DistanceMeters>
          </Trackpoint>
          <Trackpoint>
            <Time>2019-10-07T08:36:10.000Z</Time>
            <Position>
              <LatitudeDegrees>40.93475324101746082305908203125</LatitudeDegrees>
              <LongitudeDegrees>-5.66818683408200740814208984375</LongitudeDegrees>
            </Position>
            <AltitudeMeters>808.79998779296875</AltitudeMeters>
            <DistanceMeters>NAN</DistanceMeters>
          </Trackpoint>
          <Trackpoint>
            <Time>2019-10-07T08:36:13.000Z</Time>
            <Position>
              <LatitudeDegrees>40.934621728956699371337890625</LatitudeDegrees>
              <LongitudeDegrees>-5.66822111606597900390625</LongitudeDegrees>
            </Position>
            <AltitudeMeters>809.20001220703125</AltitudeMeters>
            <DistanceMeters>NAN</DistanceMeters>
          </Trackpoint>
          <Trackpoint>
            <Time>2019-10-07T08:36:20.000Z</Time>
            <Position>
              <LatitudeDegrees>40.9343174658715724945068359375</LatitudeDegrees>
              <LongitudeDegrees>-5.66832371056079864501953125</LongitudeDegrees>
            </Position>
            <AltitudeMeters>809.20001220703125</AltitudeMeters>
            <DistanceMeters>NAN</DistanceMeters>
          </Trackpoint>
          <Trackpoint>
            <Time>2019-10-07T08:36:29.000Z</Time>
            <Position>
              <LatitudeDegrees>40.9339399449527263641357421875</LatitudeDegrees>
              <LongitudeDegrees>-5.6684817932546138763427734375</LongitudeDegrees>
            </Position>
            <AltitudeMeters>810.4000244140625</AltitudeMeters>
            <DistanceMeters>NAN</DistanceMeters>
          </Trackpoint>
          <Trackpoint>
            <Time>2019-10-07T08:36:31.000Z</Time>
            <Position>
              <LatitudeDegrees>40.93385587446391582489013671875</LatitudeDegrees>
              <LongitudeDegrees>-5.66852395422756671905517578125</LongitudeDegrees>
            </Position>
            <AltitudeMeters>810.4000244140625</AltitudeMeters>
            <DistanceMeters>NAN</DistanceMeters>
          </Trackpoint>
          <Trackpoint>
            <Time>2019-10-07T08:36:41.000Z</Time>
            <Position>
              <LatitudeDegrees>40.933434180915355682373046875</LatitudeDegrees>
              <LongitudeDegrees>-5.6687171570956707000732421875</LongitudeDegrees>
            </Position>
            <AltitudeMeters>811.20001220703125</AltitudeMeters>
            <DistanceMeters>NAN</DistanceMeters>
          </Trackpoint>
          <Trackpoint>
            <Time>2019-10-07T08:36:46.000Z</Time>
            <Position>
              <LatitudeDegrees>40.93321884982287883758544921875</LatitudeDegrees>
              <LongitudeDegrees>-5.668804161250591278076171875</LongitudeDegrees>
            </Position>
            <AltitudeMeters>811.4000244140625</AltitudeMeters>
            <DistanceMeters>NAN</DistanceMeters>
          </Trackpoint>
          <Trackpoint>
            <Time>2019-10-07T08:36:53.000Z</Time>
            <Position>
              <LatitudeDegrees>40.93290218152105808258056640625</LatitudeDegrees>
              <LongitudeDegrees>-5.668911449611186981201171875</LongitudeDegrees>
            </Position>
            <AltitudeMeters>811.5999755859375</AltitudeMeters>
            <DistanceMeters>NAN</DistanceMeters>
          </Trackpoint>
          <Trackpoint>
            <Time>2019-10-07T08:37:03.000Z</Time>
            <Position>
              <LatitudeDegrees>40.93240697868168354034423828125</LatitudeDegrees>
              <LongitudeDegrees>-5.66900826059281826019287109375</LongitudeDegrees>
            </Position>
            <AltitudeMeters>811.20001220703125</AltitudeMeters>
            <DistanceMeters>NAN</DistanceMeters>
          </Trackpoint>
          <Trackpoint>
            <Time>2019-10-07T08:37:10.000Z</Time>
            <Position>
              <LatitudeDegrees>40.93203448690474033355712890625</LatitudeDegrees>
              <LongitudeDegrees>-5.669024772942066192626953125</LongitudeDegrees>
            </Position>
            <AltitudeMeters>810.4000244140625</AltitudeMeters>
            <DistanceMeters>NAN</DistanceMeters>
          </Trackpoint>
          <Trackpoint>
            <Time>2019-10-07T08:37:11.000Z</Time>
            <Position>
              <LatitudeDegrees>40.93197866342961788177490234375</LatitudeDegrees>
              <LongitudeDegrees>-5.66902435384690761566162109375</LongitudeDegrees>
            </Position>
            <AltitudeMeters>810.20001220703125</AltitudeMeters>
            <DistanceMeters>NAN</DistanceMeters>
          </Trackpoint>
          <Trackpoint>
            <Time>2019-10-07T08:37:12.000Z</Time>
            <Position>
              <LatitudeDegrees>40.931921415030956268310546875</LatitudeDegrees>
              <LongitudeDegrees>-5.6690235994756221771240234375</LongitudeDegrees>
            </Position>
            <AltitudeMeters>810.20001220703125</AltitudeMeters>
            <DistanceMeters>NAN</DistanceMeters>
          </Trackpoint>
          <Trackpoint>
            <Time>2019-10-07T08:37:18.000Z</Time>
            <Position>
              <LatitudeDegrees>40.93156032264232635498046875</LatitudeDegrees>
              <LongitudeDegrees>-5.66901446320116519927978515625</LongitudeDegrees>
            </Position>
            <AltitudeMeters>809.79998779296875</AltitudeMeters>
            <DistanceMeters>NAN</DistanceMeters>
          </Trackpoint>
          <Trackpoint>
            <Time>2019-10-07T08:37:22.000Z</Time>
            <Position>
              <LatitudeDegrees>40.93131464906036853790283203125</LatitudeDegrees>
              <LongitudeDegrees>-5.66901362501084804534912109375</LongitudeDegrees>
            </Position>
            <AltitudeMeters>809.5999755859375</AltitudeMeters>
            <DistanceMeters>NAN</DistanceMeters>
          </Trackpoint>
          <Trackpoint>
            <Time>2019-10-07T08:37:24.000Z</Time>
            <Position>
              <LatitudeDegrees>40.93119093216955661773681640625</LatitudeDegrees>
              <LongitudeDegrees>-5.669007338583469390869140625</LongitudeDegrees>
            </Position>
            <AltitudeMeters>809.4000244140625</AltitudeMeters>
            <DistanceMeters>NAN</DistanceMeters>
          </Trackpoint>
          <Trackpoint>
            <Time>2019-10-07T08:37:25.000Z</Time>
            <Position>
              <LatitudeDegrees>40.9311293251812458038330078125</LatitudeDegrees>
              <LongitudeDegrees>-5.6690041534602642059326171875</LongitudeDegrees>
            </Position>
            <AltitudeMeters>809</AltitudeMeters>
            <DistanceMeters>NAN</DistanceMeters>
          </Trackpoint>
          <Trackpoint>
            <Time>2019-10-07T08:37:31.000Z</Time>
            <Position>
              <LatitudeDegrees>40.93074417673051357269287109375</LatitudeDegrees>
              <LongitudeDegrees>-5.6689780019223690032958984375</LongitudeDegrees>
            </Position>
            <AltitudeMeters>807.4000244140625</AltitudeMeters>
            <DistanceMeters>NAN</DistanceMeters>
          </Trackpoint>
          <Trackpoint>
            <Time>2019-10-07T08:37:36.000Z</Time>
            <Position>
              <LatitudeDegrees>40.9303994290530681610107421875</LatitudeDegrees>
              <LongitudeDegrees>-5.668946318328380584716796875</LongitudeDegrees>
            </Position>
            <AltitudeMeters>807</AltitudeMeters>
            <DistanceMeters>NAN</DistanceMeters>
          </Trackpoint>
          <Trackpoint>
            <Time>2019-10-07T08:37:38.000Z</Time>
            <Position>
              <LatitudeDegrees>40.9302592836320400238037109375</LatitudeDegrees>
              <LongitudeDegrees>-5.6689307279884815216064453125</LongitudeDegrees>
            </Position>
            <AltitudeMeters>806.79998779296875</AltitudeMeters>
            <DistanceMeters>NAN</DistanceMeters>
          </Trackpoint>
          <Trackpoint>
            <Time>2019-10-07T08:37:39.000Z</Time>
            <Position>
              <LatitudeDegrees>40.93018912710249423980712890625</LatitudeDegrees>
              <LongitudeDegrees>-5.668920837342739105224609375</LongitudeDegrees>
            </Position>
            <AltitudeMeters>806.20001220703125</AltitudeMeters>
            <DistanceMeters>NAN</DistanceMeters>
          </Trackpoint>
          <Trackpoint>
            <Time>2019-10-07T08:37:40.000Z</Time>
            <Position>
              <LatitudeDegrees>40.930118970572948455810546875</LatitudeDegrees>
              <LongitudeDegrees>-5.6689129583537578582763671875</LongitudeDegrees>
            </Position>
            <AltitudeMeters>806.20001220703125</AltitudeMeters>
            <DistanceMeters>NAN</DistanceMeters>
          </Trackpoint>
          <Trackpoint>
            <Time>2019-10-07T08:37:42.000Z</Time>
            <Position>
              <LatitudeDegrees>40.929978825151920318603515625</LatitudeDegrees>
              <LongitudeDegrees>-5.66889644600450992584228515625</LongitudeDegrees>
            </Position>
            <AltitudeMeters>806</AltitudeMeters>
            <DistanceMeters>NAN</DistanceMeters>
          </Trackpoint>
          <Trackpoint>
            <Time>2019-10-07T08:37:47.000Z</Time>
            <Position>
              <LatitudeDegrees>40.92968118377029895782470703125</LatitudeDegrees>
              <LongitudeDegrees>-5.66886283457279205322265625</LongitudeDegrees>
            </Position>
            <AltitudeMeters>806</AltitudeMeters>
            <DistanceMeters>NAN</DistanceMeters>
          </Trackpoint>
          <Trackpoint>
            <Time>2019-10-07T08:37:50.000Z</Time>
            <Position>
              <LatitudeDegrees>40.929600298404693603515625</LatitudeDegrees>
              <LongitudeDegrees>-5.6688697077333927154541015625</LongitudeDegrees>
            </Position>
            <AltitudeMeters>806.5999755859375</AltitudeMeters>
            <DistanceMeters>NAN</DistanceMeters>
          </Trackpoint>
          <Trackpoint>
            <Time>2019-10-07T08:37:54.000Z</Time>
            <Position>
              <LatitudeDegrees>40.9295967780053615570068359375</LatitudeDegrees>
              <LongitudeDegrees>-5.668871216475963592529296875</LongitudeDegrees>
            </Position>
            <AltitudeMeters>806.4000244140625</AltitudeMeters>
            <DistanceMeters>NAN</DistanceMeters>
          </Trackpoint>
          <Trackpoint>
            <Time>2019-10-07T08:38:01.000Z</Time>
            <Position>
              <LatitudeDegrees>40.9295967780053615570068359375</LatitudeDegrees>
              <LongitudeDegrees>-5.668871216475963592529296875</LongitudeDegrees>
            </Position>
            <AltitudeMeters>806.4000244140625</AltitudeMeters>
            <DistanceMeters>NAN</DistanceMeters>
          </Trackpoint>
          <Trackpoint>
            <Time>2019-10-07T08:38:03.000Z</Time>
            <Position>
              <LatitudeDegrees>40.9295967780053615570068359375</LatitudeDegrees>
              <LongitudeDegrees>-5.668871216475963592529296875</LongitudeDegrees>
            </Position>
            <AltitudeMeters>806.4000244140625</AltitudeMeters>
            <DistanceMeters>NAN</DistanceMeters>
          </Trackpoint>
          <Trackpoint>
            <Time>2019-10-07T08:38:04.000Z</Time>
            <Position>
              <LatitudeDegrees>40.9295967780053615570068359375</LatitudeDegrees>
              <LongitudeDegrees>-5.668871216475963592529296875</LongitudeDegrees>
            </Position>
            <AltitudeMeters>806.20001220703125</AltitudeMeters>
            <DistanceMeters>NAN</DistanceMeters>
          </Trackpoint>
          <Trackpoint>
            <Time>2019-10-07T08:38:11.000Z</Time>
            <Position>
              <LatitudeDegrees>40.9295967780053615570068359375</LatitudeDegrees>
              <LongitudeDegrees>-5.668871216475963592529296875</LongitudeDegrees>
            </Position>
            <AltitudeMeters>806.20001220703125</AltitudeMeters>
            <DistanceMeters>NAN</DistanceMeters>
          </Trackpoint>
          <Trackpoint>
            <Time>2019-10-07T08:38:19.000Z</Time>
            <Position>
              <LatitudeDegrees>40.9295967780053615570068359375</LatitudeDegrees>
              <LongitudeDegrees>-5.668871216475963592529296875</LongitudeDegrees>
            </Position>
            <AltitudeMeters>806.4000244140625</AltitudeMeters>
            <DistanceMeters>NAN</DistanceMeters>
          </Trackpoint>
          <Trackpoint>
            <Time>2019-10-07T08:38:36.000Z</Time>
            <Position>
              <LatitudeDegrees>40.9295954369008541107177734375</LatitudeDegrees>
              <LongitudeDegrees>-5.668872892856597900390625</LongitudeDegrees>
            </Position>
            <AltitudeMeters>806.4000244140625</AltitudeMeters>
            <DistanceMeters>NAN</DistanceMeters>
          </Trackpoint>
          <Trackpoint>
            <Time>2019-10-07T08:38:38.000Z</Time>
            <Position>
              <LatitudeDegrees>40.9295954369008541107177734375</LatitudeDegrees>
              <LongitudeDegrees>-5.668872892856597900390625</LongitudeDegrees>
            </Position>
            <AltitudeMeters>806.4000244140625</AltitudeMeters>
            <DistanceMeters>NAN</DistanceMeters>
          </Trackpoint>
          <Trackpoint>
            <Time>2019-10-07T08:38:54.000Z</Time>
            <Position>
              <LatitudeDegrees>40.9295954369008541107177734375</LatitudeDegrees>
              <LongitudeDegrees>-5.668872892856597900390625</LongitudeDegrees>
            </Position>
            <AltitudeMeters>806.20001220703125</AltitudeMeters>
            <DistanceMeters>NAN</DistanceMeters>
          </Trackpoint>
          <Trackpoint>
            <Time>2019-10-07T08:38:56.000Z</Time>
            <Position>
              <LatitudeDegrees>40.9295954369008541107177734375</LatitudeDegrees>
              <LongitudeDegrees>-5.668872892856597900390625</LongitudeDegrees>
            </Position>
            <AltitudeMeters>806.20001220703125</AltitudeMeters>
            <DistanceMeters>NAN</DistanceMeters>
          </Trackpoint>
          <Trackpoint>
            <Time>2019-10-07T08:39:09.000Z</Time>
            <Position>
              <LatitudeDegrees>40.9295954369008541107177734375</LatitudeDegrees>
              <LongitudeDegrees>-5.668872892856597900390625</LongitudeDegrees>
            </Position>
            <AltitudeMeters>806.20001220703125</AltitudeMeters>
            <DistanceMeters>NAN</DistanceMeters>
          </Trackpoint>
          <Trackpoint>
            <Time>2019-10-07T08:39:18.000Z</Time>
            <Position>
              <LatitudeDegrees>40.9295954369008541107177734375</LatitudeDegrees>
              <LongitudeDegrees>-5.668871887028217315673828125</LongitudeDegrees>
            </Position>
            <AltitudeMeters>806.5999755859375</AltitudeMeters>
            <DistanceMeters>NAN</DistanceMeters>
          </Trackpoint>
          <Trackpoint>
            <Time>2019-10-07T08:39:20.000Z</Time>
            <Position>
              <LatitudeDegrees>40.9295954369008541107177734375</LatitudeDegrees>
              <LongitudeDegrees>-5.668871887028217315673828125</LongitudeDegrees>
            </Position>
            <AltitudeMeters>806.4000244140625</AltitudeMeters>
            <DistanceMeters>NAN</DistanceMeters>
          </Trackpoint>
          <Trackpoint>
            <Time>2019-10-07T08:39:27.000Z</Time>
            <Position>
              <LatitudeDegrees>40.9295954369008541107177734375</LatitudeDegrees>
              <LongitudeDegrees>-5.668871887028217315673828125</LongitudeDegrees>
            </Position>
            <AltitudeMeters>806.20001220703125</AltitudeMeters>
            <DistanceMeters>NAN</DistanceMeters>
          </Trackpoint>
          <Trackpoint>
            <Time>2019-10-07T08:39:35.000Z</Time>
            <Position>
              <LatitudeDegrees>40.9295954369008541107177734375</LatitudeDegrees>
              <LongitudeDegrees>-5.668871887028217315673828125</LongitudeDegrees>
            </Position>
            <AltitudeMeters>806.4000244140625</AltitudeMeters>
            <DistanceMeters>NAN</DistanceMeters>
          </Trackpoint>
          <Trackpoint>
            <Time>2019-10-07T08:39:45.000Z</Time>
            <Position>
              <LatitudeDegrees>40.9295954369008541107177734375</LatitudeDegrees>
              <LongitudeDegrees>-5.668871887028217315673828125</LongitudeDegrees>
            </Position>
            <AltitudeMeters>806.20001220703125</AltitudeMeters>
            <DistanceMeters>NAN</DistanceMeters>
          </Trackpoint>
          <Trackpoint>
            <Time>2019-10-07T08:39:48.000Z</Time>
            <Position>
              <LatitudeDegrees>40.9295954369008541107177734375</LatitudeDegrees>
              <LongitudeDegrees>-5.668871887028217315673828125</LongitudeDegrees>
            </Position>
            <AltitudeMeters>806.4000244140625</AltitudeMeters>
            <DistanceMeters>NAN</DistanceMeters>
          </Trackpoint>
          <Trackpoint>
            <Time>2019-10-07T08:39:51.000Z</Time>
            <Position>
              <LatitudeDegrees>40.92959652654826641082763671875</LatitudeDegrees>
              <LongitudeDegrees>-5.6688747368752956390380859375</LongitudeDegrees>
            </Position>
            <AltitudeMeters>806.4000244140625</AltitudeMeters>
            <DistanceMeters>NAN</DistanceMeters>
          </Trackpoint>
          <Trackpoint>
            <Time>2019-10-07T08:39:54.000Z</Time>
            <Position>
              <LatitudeDegrees>40.92959652654826641082763671875</LatitudeDegrees>
              <LongitudeDegrees>-5.6688747368752956390380859375</LongitudeDegrees>
            </Position>
            <AltitudeMeters>806.4000244140625</AltitudeMeters>
            <DistanceMeters>NAN</DistanceMeters>
          </Trackpoint>
          <Trackpoint>
            <Time>2019-10-07T08:39:58.000Z</Time>
            <Position>
              <LatitudeDegrees>40.92959652654826641082763671875</LatitudeDegrees>
              <LongitudeDegrees>-5.6688747368752956390380859375</LongitudeDegrees>
            </Position>
            <AltitudeMeters>806.4000244140625</AltitudeMeters>
            <DistanceMeters>NAN</DistanceMeters>
          </Trackpoint>
          <Trackpoint>
            <Time>2019-10-07T08:40:05.000Z</Time>
            <Position>
              <LatitudeDegrees>40.92959652654826641082763671875</LatitudeDegrees>
              <LongitudeDegrees>-5.6688747368752956390380859375</LongitudeDegrees>
            </Position>
            <AltitudeMeters>806.20001220703125</AltitudeMeters>
            <DistanceMeters>NAN</DistanceMeters>
          </Trackpoint>
          <Trackpoint>
            <Time>2019-10-07T08:40:07.000Z</Time>
            <Position>
              <LatitudeDegrees>40.92959652654826641082763671875</LatitudeDegrees>
              <LongitudeDegrees>-5.6688747368752956390380859375</LongitudeDegrees>
            </Position>
            <AltitudeMeters>806</AltitudeMeters>
            <DistanceMeters>NAN</DistanceMeters>
          </Trackpoint>
          <Trackpoint>
            <Time>2019-10-07T08:40:08.000Z</Time>
            <Position>
              <LatitudeDegrees>40.92959652654826641082763671875</LatitudeDegrees>
              <LongitudeDegrees>-5.6688747368752956390380859375</LongitudeDegrees>
            </Position>
            <AltitudeMeters>806</AltitudeMeters>
            <DistanceMeters>NAN</DistanceMeters>
          </Trackpoint>
          <Trackpoint>
            <Time>2019-10-07T08:40:14.000Z</Time>
            <Position>
              <LatitudeDegrees>40.92955076135694980621337890625</LatitudeDegrees>
              <LongitudeDegrees>-5.66885554231703281402587890625</LongitudeDegrees>
            </Position>
            <AltitudeMeters>806</AltitudeMeters>
            <DistanceMeters>NAN</DistanceMeters>
          </Trackpoint>
          <Trackpoint>
            <Time>2019-10-07T08:40:19.000Z</Time>
            <Position>
              <LatitudeDegrees>40.92939577996730804443359375</LatitudeDegrees>
              <LongitudeDegrees>-5.66883626393973827362060546875</LongitudeDegrees>
            </Position>
            <AltitudeMeters>805.4000244140625</AltitudeMeters>
            <DistanceMeters>NAN</DistanceMeters>
          </Trackpoint>
          <Trackpoint>
            <Time>2019-10-07T08:40:20.000Z</Time>
            <Position>
              <LatitudeDegrees>40.92934775166213512420654296875</LatitudeDegrees>
              <LongitudeDegrees>-5.66883039660751819610595703125</LongitudeDegrees>
            </Position>
            <AltitudeMeters>805</AltitudeMeters>
            <DistanceMeters>NAN</DistanceMeters>
          </Trackpoint>
          <Trackpoint>
            <Time>2019-10-07T08:40:23.000Z</Time>
            <Position>
              <LatitudeDegrees>40.9292038343846797943115234375</LatitudeDegrees>
              <LongitudeDegrees>-5.66881078295409679412841796875</LongitudeDegrees>
            </Position>
            <AltitudeMeters>804.79998779296875</AltitudeMeters>
            <DistanceMeters>NAN</DistanceMeters>
          </Trackpoint>
          <Trackpoint>
            <Time>2019-10-07T08:40:25.000Z</Time>
            <Position>
              <LatitudeDegrees>40.9290975518524646759033203125</LatitudeDegrees>
              <LongitudeDegrees>-5.6687969528138637542724609375</LongitudeDegrees>
            </Position>
            <AltitudeMeters>804.20001220703125</AltitudeMeters>
            <DistanceMeters>NAN</DistanceMeters>
          </Trackpoint>
          <Trackpoint>
            <Time>2019-10-07T08:40:29.000Z</Time>
            <Position>
              <LatitudeDegrees>40.92887216247618198394775390625</LatitudeDegrees>
              <LongitudeDegrees>-5.66876451484858989715576171875</LongitudeDegrees>
            </Position>
            <AltitudeMeters>804</AltitudeMeters>
            <DistanceMeters>NAN</DistanceMeters>
          </Trackpoint>
          <Trackpoint>
            <Time>2019-10-07T08:40:33.000Z</Time>
            <Position>
              <LatitudeDegrees>40.9286311827600002288818359375</LatitudeDegrees>
              <LongitudeDegrees>-5.6687305681407451629638671875</LongitudeDegrees>
            </Position>
            <AltitudeMeters>802.79998779296875</AltitudeMeters>
            <DistanceMeters>NAN</DistanceMeters>
          </Trackpoint>
          <Trackpoint>
            <Time>2019-10-07T08:40:34.000Z</Time>
            <Position>
              <LatitudeDegrees>40.92856773175299167633056640625</LatitudeDegrees>
              <LongitudeDegrees>-5.6687211804091930389404296875</LongitudeDegrees>
            </Position>
            <AltitudeMeters>802.79998779296875</AltitudeMeters>
            <DistanceMeters>NAN</DistanceMeters>
          </Trackpoint>
          <Trackpoint>
            <Time>2019-10-07T08:40:39.000Z</Time>
            <Position>
              <LatitudeDegrees>40.928231365978717803955078125</LatitudeDegrees>
              <LongitudeDegrees>-5.6686812825500965118408203125</LongitudeDegrees>
            </Position>
            <AltitudeMeters>801.4000244140625</AltitudeMeters>
            <DistanceMeters>NAN</DistanceMeters>
          </Trackpoint>
          <Trackpoint>
            <Time>2019-10-07T08:40:42.000Z</Time>
            <Position>
              <LatitudeDegrees>40.92801653780043125152587890625</LatitudeDegrees>
              <LongitudeDegrees>-5.668657310307025909423828125</LongitudeDegrees>
            </Position>
            <AltitudeMeters>800.4000244140625</AltitudeMeters>
            <DistanceMeters>NAN</DistanceMeters>
          </Trackpoint>
          <Trackpoint>
            <Time>2019-10-07T08:40:43.000Z</Time>
            <Position>
              <LatitudeDegrees>40.927943028509616851806640625</LatitudeDegrees>
              <LongitudeDegrees>-5.66864767111837863922119140625</LongitudeDegrees>
            </Position>
            <AltitudeMeters>800.20001220703125</AltitudeMeters>
            <DistanceMeters>NAN</DistanceMeters>
          </Trackpoint>
          <Trackpoint>
            <Time>2019-10-07T08:40:46.000Z</Time>
            <Position>
              <LatitudeDegrees>40.92771847732365131378173828125</LatitudeDegrees>
              <LongitudeDegrees>-5.66862219013273715972900390625</LongitudeDegrees>
            </Position>
            <AltitudeMeters>799.20001220703125</AltitudeMeters>
            <DistanceMeters>NAN</DistanceMeters>
          </Trackpoint>
          <Trackpoint>
            <Time>2019-10-07T08:40:51.000Z</Time>
            <Position>
              <LatitudeDegrees>40.9273339994251728057861328125</LatitudeDegrees>
              <LongitudeDegrees>-5.66857391037046909332275390625</LongitudeDegrees>
            </Position>
            <AltitudeMeters>797.79998779296875</AltitudeMeters>
            <DistanceMeters>NAN</DistanceMeters>
          </Trackpoint>
          <Trackpoint>
            <Time>2019-10-07T08:40:52.000Z</Time>
            <Position>
              <LatitudeDegrees>40.92725562863051891326904296875</LatitudeDegrees>
              <LongitudeDegrees>-5.6685636006295680999755859375</LongitudeDegrees>
            </Position>
            <AltitudeMeters>797</AltitudeMeters>
            <DistanceMeters>NAN</DistanceMeters>
          </Trackpoint>
          <Trackpoint>
            <Time>2019-10-07T08:40:53.000Z</Time>
            <Position>
              <LatitudeDegrees>40.927177257835865020751953125</LatitudeDegrees>
              <LongitudeDegrees>-5.66855496726930141448974609375</LongitudeDegrees>
            </Position>
            <AltitudeMeters>796.20001220703125</AltitudeMeters>
            <DistanceMeters>NAN</DistanceMeters>
          </Trackpoint>
          <Trackpoint>
            <Time>2019-10-07T08:41:00.000Z</Time>
            <Position>
              <LatitudeDegrees>40.92661424539983272552490234375</LatitudeDegrees>
              <LongitudeDegrees>-5.66848539747297763824462890625</LongitudeDegrees>
            </Position>
            <AltitudeMeters>795.79998779296875</AltitudeMeters>
            <DistanceMeters>NAN</DistanceMeters>
          </Trackpoint>
          <Trackpoint>
            <Time>2019-10-07T08:41:01.000Z</Time>
            <Position>
              <LatitudeDegrees>40.926532186567783355712890625</LatitudeDegrees>
              <LongitudeDegrees>-5.66847483627498149871826171875</LongitudeDegrees>
            </Position>
            <AltitudeMeters>795.20001220703125</AltitudeMeters>
            <DistanceMeters>NAN</DistanceMeters>
          </Trackpoint>
          <Trackpoint>
            <Time>2019-10-07T08:41:02.000Z</Time>
            <Position>
              <LatitudeDegrees>40.92644979245960712432861328125</LatitudeDegrees>
              <LongitudeDegrees>-5.668464861810207366943359375</LongitudeDegrees>
            </Position>
            <AltitudeMeters>795.20001220703125</AltitudeMeters>
            <DistanceMeters>NAN</DistanceMeters>
          </Trackpoint>
          <Trackpoint>
            <Time>2019-10-07T08:41:05.000Z</Time>
            <Position>
              <LatitudeDegrees>40.92620738781988620758056640625</LatitudeDegrees>
              <LongitudeDegrees>-5.66843502223491668701171875</LongitudeDegrees>
            </Position>
            <AltitudeMeters>794.5999755859375</AltitudeMeters>
            <DistanceMeters>NAN</DistanceMeters>
          </Trackpoint>
          <Trackpoint>
            <Time>2019-10-07T08:41:11.000Z</Time>
            <Position>
              <LatitudeDegrees>40.925747640430927276611328125</LatitudeDegrees>
              <LongitudeDegrees>-5.66838431172072887420654296875</LongitudeDegrees>
            </Position>
            <AltitudeMeters>794.79998779296875</AltitudeMeters>
            <DistanceMeters>NAN</DistanceMeters>
          </Trackpoint>
          <Trackpoint>
            <Time>2019-10-07T08:41:19.000Z</Time>
            <Position>
              <LatitudeDegrees>40.92520927079021930694580078125</LatitudeDegrees>
              <LongitudeDegrees>-5.66831524483859539031982421875</LongitudeDegrees>
            </Position>
            <AltitudeMeters>795.79998779296875</AltitudeMeters>
            <DistanceMeters>NAN</DistanceMeters>
          </Trackpoint>
          <Trackpoint>
            <Time>2019-10-07T08:41:21.000Z</Time>
            <Position>
              <LatitudeDegrees>40.925094187259674072265625</LatitudeDegrees>
              <LongitudeDegrees>-5.66830200143158435821533203125</LongitudeDegrees>
            </Position>
            <AltitudeMeters>796.4000244140625</AltitudeMeters>
            <DistanceMeters>NAN</DistanceMeters>
          </Trackpoint>
          <Trackpoint>
            <Time>2019-10-07T08:41:25.000Z</Time>
            <Position>
              <LatitudeDegrees>40.924890674650669097900390625</LatitudeDegrees>
              <LongitudeDegrees>-5.66828071139752864837646484375</LongitudeDegrees>
            </Position>
            <AltitudeMeters>797.5999755859375</AltitudeMeters>
            <DistanceMeters>NAN</DistanceMeters>
          </Trackpoint>
          <Trackpoint>
            <Time>2019-10-07T08:41:26.000Z</Time>
            <Position>
              <LatitudeDegrees>40.92484541237354278564453125</LatitudeDegrees>
              <LongitudeDegrees>-5.668276436626911163330078125</LongitudeDegrees>
            </Position>
            <AltitudeMeters>797.79998779296875</AltitudeMeters>
            <DistanceMeters>NAN</DistanceMeters>
          </Trackpoint>
          <Trackpoint>
            <Time>2019-10-07T08:41:29.000Z</Time>
            <Position>
              <LatitudeDegrees>40.9247232042253017425537109375</LatitudeDegrees>
              <LongitudeDegrees>-5.66826201975345611572265625</LongitudeDegrees>
            </Position>
            <AltitudeMeters>798.79998779296875</AltitudeMeters>
            <DistanceMeters>NAN</DistanceMeters>
          </Trackpoint>
          <Trackpoint>
            <Time>2019-10-07T08:41:32.000Z</Time>
            <Position>
              <LatitudeDegrees>40.92461164109408855438232421875</LatitudeDegrees>
              <LongitudeDegrees>-5.6682517938315868377685546875</LongitudeDegrees>
            </Position>
            <AltitudeMeters>799</AltitudeMeters>
            <DistanceMeters>NAN</DistanceMeters>
          </Trackpoint>
          <Trackpoint>
            <Time>2019-10-07T08:41:33.000Z</Time>
            <Position>
              <LatitudeDegrees>40.92457425780594348907470703125</LatitudeDegrees>
              <LongitudeDegrees>-5.66825422458350658416748046875</LongitudeDegrees>
            </Position>
            <AltitudeMeters>799.79998779296875</AltitudeMeters>
            <DistanceMeters>NAN</DistanceMeters>
          </Trackpoint>
          <Trackpoint>
            <Time>2019-10-07T08:41:35.000Z</Time>
            <Position>
              <LatitudeDegrees>40.9245012514293193817138671875</LatitudeDegrees>
              <LongitudeDegrees>-5.66825556568801403045654296875</LongitudeDegrees>
            </Position>
            <AltitudeMeters>800.20001220703125</AltitudeMeters>
            <DistanceMeters>NAN</DistanceMeters>
          </Trackpoint>
          <Trackpoint>
            <Time>2019-10-07T08:41:38.000Z</Time>
            <Position>
              <LatitudeDegrees>40.924396812915802001953125</LatitudeDegrees>
              <LongitudeDegrees>-5.668257661163806915283203125</LongitudeDegrees>
            </Position>
            <AltitudeMeters>801</AltitudeMeters>
            <DistanceMeters>NAN</DistanceMeters>
          </Trackpoint>
          <Trackpoint>
            <Time>2019-10-07T08:41:42.000Z</Time>
            <Position>
              <LatitudeDegrees>40.92426328919827938079833984375</LatitudeDegrees>
              <LongitudeDegrees>-5.66825472749769687652587890625</LongitudeDegrees>
            </Position>
            <AltitudeMeters>802.20001220703125</AltitudeMeters>
            <DistanceMeters>NAN</DistanceMeters>
          </Trackpoint>
          <Trackpoint>
            <Time>2019-10-07T08:41:46.000Z</Time>
            <Position>
              <LatitudeDegrees>40.92413135804235935211181640625</LatitudeDegrees>
              <LongitudeDegrees>-5.66825808025896549224853515625</LongitudeDegrees>
            </Position>
            <AltitudeMeters>803</AltitudeMeters>
            <DistanceMeters>NAN</DistanceMeters>
          </Trackpoint>
          <Trackpoint>
            <Time>2019-10-07T08:41:47.000Z</Time>
            <Position>
              <LatitudeDegrees>40.9240975789725780487060546875</LatitudeDegrees>
              <LongitudeDegrees>-5.6682600080966949462890625</LongitudeDegrees>
            </Position>
            <AltitudeMeters>803.4000244140625</AltitudeMeters>
            <DistanceMeters>NAN</DistanceMeters>
          </Trackpoint>
          <Trackpoint>
            <Time>2019-10-07T08:41:50.000Z</Time>
            <Position>
              <LatitudeDegrees>40.92399439774453639984130859375</LatitudeDegrees>
              <LongitudeDegrees>-5.66826679743826389312744140625</LongitudeDegrees>
            </Position>
            <AltitudeMeters>804.20001220703125</AltitudeMeters>
            <DistanceMeters>NAN</DistanceMeters>
          </Trackpoint>
          <Trackpoint>
            <Time>2019-10-07T08:41:52.000Z</Time>
            <Position>
              <LatitudeDegrees>40.92392482794821262359619140625</LatitudeDegrees>
              <LongitudeDegrees>-5.6682722456753253936767578125</LongitudeDegrees>
            </Position>
            <AltitudeMeters>804.4000244140625</AltitudeMeters>
            <DistanceMeters>NAN</DistanceMeters>
          </Trackpoint>
          <Trackpoint>
            <Time>2019-10-07T08:41:53.000Z</Time>
            <Position>
              <LatitudeDegrees>40.9238897077739238739013671875</LatitudeDegrees>
              <LongitudeDegrees>-5.66827702336013317108154296875</LongitudeDegrees>
            </Position>
            <AltitudeMeters>804.5999755859375</AltitudeMeters>
            <DistanceMeters>NAN</DistanceMeters>
          </Trackpoint>
          <Trackpoint>
            <Time>2019-10-07T08:41:56.000Z</Time>
            <Position>
              <LatitudeDegrees>40.92378325760364532470703125</LatitudeDegrees>
              <LongitudeDegrees>-5.6682967208325862884521484375</LongitudeDegrees>
            </Position>
            <AltitudeMeters>805</AltitudeMeters>
            <DistanceMeters>NAN</DistanceMeters>
          </Trackpoint>
          <Trackpoint>
            <Time>2019-10-07T08:42:00.000Z</Time>
            <Position>
              <LatitudeDegrees>40.92363732866942882537841796875</LatitudeDegrees>
              <LongitudeDegrees>-5.66832982935011386871337890625</LongitudeDegrees>
            </Position>
            <AltitudeMeters>805.4000244140625</AltitudeMeters>
            <DistanceMeters>NAN</DistanceMeters>
          </Trackpoint>
          <Trackpoint>
            <Time>2019-10-07T08:42:01.000Z</Time>
            <Position>
              <LatitudeDegrees>40.92360019683837890625</LatitudeDegrees>
              <LongitudeDegrees>-5.6683366186916828155517578125</LongitudeDegrees>
            </Position>
            <AltitudeMeters>805.5999755859375</AltitudeMeters>
            <DistanceMeters>NAN</DistanceMeters>
          </Trackpoint>
          <Trackpoint>
            <Time>2019-10-07T08:42:02.000Z</Time>
            <Position>
              <LatitudeDegrees>40.923562310636043548583984375</LatitudeDegrees>
              <LongitudeDegrees>-5.66834474913775920867919921875</LongitudeDegrees>
            </Position>
            <AltitudeMeters>805.79998779296875</AltitudeMeters>
            <DistanceMeters>NAN</DistanceMeters>
          </Trackpoint>
          <Trackpoint>
            <Time>2019-10-07T08:42:07.000Z</Time>
            <Position>
              <LatitudeDegrees>40.9233713708817958831787109375</LatitudeDegrees>
              <LongitudeDegrees>-5.66839537583291530609130859375</LongitudeDegrees>
            </Position>
            <AltitudeMeters>806.20001220703125</AltitudeMeters>
            <DistanceMeters>NAN</DistanceMeters>
          </Trackpoint>
          <Trackpoint>
            <Time>2019-10-07T08:42:12.000Z</Time>
            <Position>
              <LatitudeDegrees>40.92317716218531131744384765625</LatitudeDegrees>
              <LongitudeDegrees>-5.6684626825153827667236328125</LongitudeDegrees>
            </Position>
            <AltitudeMeters>806.20001220703125</AltitudeMeters>
            <DistanceMeters>NAN</DistanceMeters>
          </Trackpoint>
          <Trackpoint>
            <Time>2019-10-07T08:42:22.000Z</Time>
            <Position>
              <LatitudeDegrees>40.92276611365377902984619140625</LatitudeDegrees>
              <LongitudeDegrees>-5.66863995976746082305908203125</LongitudeDegrees>
            </Position>
            <AltitudeMeters>806.20001220703125</AltitudeMeters>
            <DistanceMeters>NAN</DistanceMeters>
          </Trackpoint>
          <Trackpoint>
            <Time>2019-10-07T08:42:30.000Z</Time>
            <Position>
              <LatitudeDegrees>40.9223846532404422760009765625</LatitudeDegrees>
              <LongitudeDegrees>-5.66882670857012271881103515625</LongitudeDegrees>
            </Position>
            <AltitudeMeters>805</AltitudeMeters>
            <DistanceMeters>NAN</DistanceMeters>
          </Trackpoint>
          <Trackpoint>
            <Time>2019-10-07T08:42:36.000Z</Time>
            <Position>
              <LatitudeDegrees>40.9220753610134124755859375</LatitudeDegrees>
              <LongitudeDegrees>-5.66895537078380584716796875</LongitudeDegrees>
            </Position>
            <AltitudeMeters>804.79998779296875</AltitudeMeters>
            <DistanceMeters>NAN</DistanceMeters>
          </Trackpoint>
          <Trackpoint>
            <Time>2019-10-07T08:42:38.000Z</Time>
            <Position>
              <LatitudeDegrees>40.92196664772927761077880859375</LatitudeDegrees>
              <LongitudeDegrees>-5.6689887307584285736083984375</LongitudeDegrees>
            </Position>
            <AltitudeMeters>804.4000244140625</AltitudeMeters>
            <DistanceMeters>NAN</DistanceMeters>
          </Trackpoint>
          <Trackpoint>
            <Time>2019-10-07T08:42:39.000Z</Time>
            <Position>
              <LatitudeDegrees>40.9219109080731868743896484375</LatitudeDegrees>
              <LongitudeDegrees>-5.6690028123557567596435546875</LongitudeDegrees>
            </Position>
            <AltitudeMeters>804.4000244140625</AltitudeMeters>
            <DistanceMeters>NAN</DistanceMeters>
          </Trackpoint>
          <Trackpoint>
            <Time>2019-10-07T08:42:43.000Z</Time>
            <Position>
              <LatitudeDegrees>40.92167906463146209716796875</LatitudeDegrees>
              <LongitudeDegrees>-5.66904522478580474853515625</LongitudeDegrees>
            </Position>
            <AltitudeMeters>803.5999755859375</AltitudeMeters>
            <DistanceMeters>NAN</DistanceMeters>
          </Trackpoint>
          <Trackpoint>
            <Time>2019-10-07T08:42:46.000Z</Time>
            <Position>
              <LatitudeDegrees>40.921497009694576263427734375</LatitudeDegrees>
              <LongitudeDegrees>-5.66905804909765720367431640625</LongitudeDegrees>
            </Position>
            <AltitudeMeters>804.4000244140625</AltitudeMeters>
            <DistanceMeters>NAN</DistanceMeters>
          </Trackpoint>
          <Trackpoint>
            <Time>2019-10-07T08:42:47.000Z</Time>
            <Position>
              <LatitudeDegrees>40.921433977782726287841796875</LatitudeDegrees>
              <LongitudeDegrees>-5.66905729472637176513671875</LongitudeDegrees>
            </Position>
            <AltitudeMeters>804.20001220703125</AltitudeMeters>
            <DistanceMeters>NAN</DistanceMeters>
          </Trackpoint>
          <Trackpoint>
            <Time>2019-10-07T08:42:50.000Z</Time>
            <Position>
              <LatitudeDegrees>40.92124027200043201446533203125</LatitudeDegrees>
              <LongitudeDegrees>-5.66904363222420215606689453125</LongitudeDegrees>
            </Position>
            <AltitudeMeters>803.4000244140625</AltitudeMeters>
            <DistanceMeters>NAN</DistanceMeters>
          </Trackpoint>
          <Trackpoint>
            <Time>2019-10-07T08:42:54.000Z</Time>
            <Position>
              <LatitudeDegrees>40.92098294757306575775146484375</LatitudeDegrees>
              <LongitudeDegrees>-5.66898881457746028900146484375</LongitudeDegrees>
            </Position>
            <AltitudeMeters>802.5999755859375</AltitudeMeters>
            <DistanceMeters>NAN</DistanceMeters>
          </Trackpoint>
          <Trackpoint>
            <Time>2019-10-07T08:43:00.000Z</Time>
            <Position>
              <LatitudeDegrees>40.92060458846390247344970703125</LatitudeDegrees>
              <LongitudeDegrees>-5.668830983340740203857421875</LongitudeDegrees>
            </Position>
            <AltitudeMeters>802.20001220703125</AltitudeMeters>
            <DistanceMeters>NAN</DistanceMeters>
          </Trackpoint>
          <Trackpoint>
            <Time>2019-10-07T08:43:02.000Z</Time>
            <Position>
              <LatitudeDegrees>40.92047617770731449127197265625</LatitudeDegrees>
              <LongitudeDegrees>-5.66875613294541835784912109375</LongitudeDegrees>
            </Position>
            <AltitudeMeters>801.79998779296875</AltitudeMeters>
            <DistanceMeters>NAN</DistanceMeters>
          </Trackpoint>
          <Trackpoint>
            <Time>2019-10-07T08:43:03.000Z</Time>
            <Position>
              <LatitudeDegrees>40.9204112179577350616455078125</LatitudeDegrees>
              <LongitudeDegrees>-5.66871531307697296142578125</LongitudeDegrees>
            </Position>
            <AltitudeMeters>801.20001220703125</AltitudeMeters>
            <DistanceMeters>NAN</DistanceMeters>
          </Trackpoint>
          <Trackpoint>
            <Time>2019-10-07T08:43:06.000Z</Time>
            <Position>
              <LatitudeDegrees>40.9202192723751068115234375</LatitudeDegrees>
              <LongitudeDegrees>-5.66856854595243930816650390625</LongitudeDegrees>
            </Position>
            <AltitudeMeters>800.4000244140625</AltitudeMeters>
            <DistanceMeters>NAN</DistanceMeters>
          </Trackpoint>
          <Trackpoint>
            <Time>2019-10-07T08:43:07.000Z</Time>
            <Position>
              <LatitudeDegrees>40.9201567433774471282958984375</LatitudeDegrees>
              <LongitudeDegrees>-5.66851146519184112548828125</LongitudeDegrees>
            </Position>
            <AltitudeMeters>800</AltitudeMeters>
            <DistanceMeters>NAN</DistanceMeters>
          </Trackpoint>
          <Trackpoint>
            <Time>2019-10-07T08:43:08.000Z</Time>
            <Position>
              <LatitudeDegrees>40.92009480111300945281982421875</LatitudeDegrees>
              <LongitudeDegrees>-5.66845086403191089630126953125</LongitudeDegrees>
            </Position>
            <AltitudeMeters>799.4000244140625</AltitudeMeters>
            <DistanceMeters>NAN</DistanceMeters>
          </Trackpoint>
          <Trackpoint>
            <Time>2019-10-07T08:43:09.000Z</Time>
            <Position>
              <LatitudeDegrees>40.92003352940082550048828125</LatitudeDegrees>
              <LongitudeDegrees>-5.66838783212006092071533203125</LongitudeDegrees>
            </Position>
            <AltitudeMeters>799</AltitudeMeters>
            <DistanceMeters>NAN</DistanceMeters>
          </Trackpoint>
          <Trackpoint>
            <Time>2019-10-07T08:43:10.000Z</Time>
            <Position>
              <LatitudeDegrees>40.91997393406927585601806640625</LatitudeDegrees>
              <LongitudeDegrees>-5.6683178432285785675048828125</LongitudeDegrees>
            </Position>
            <AltitudeMeters>798.5999755859375</AltitudeMeters>
            <DistanceMeters>NAN</DistanceMeters>
          </Trackpoint>
          <Trackpoint>
            <Time>2019-10-07T08:43:13.000Z</Time>
            <Position>
              <LatitudeDegrees>40.9197966568171977996826171875</LatitudeDegrees>
              <LongitudeDegrees>-5.66809262149035930633544921875</LongitudeDegrees>
            </Position>
            <AltitudeMeters>797.4000244140625</AltitudeMeters>
            <DistanceMeters>NAN</DistanceMeters>
          </Trackpoint>
          <Trackpoint>
            <Time>2019-10-07T08:43:15.000Z</Time>
            <Position>
              <LatitudeDegrees>40.9196823276579380035400390625</LatitudeDegrees>
              <LongitudeDegrees>-5.66792179830372333526611328125</LongitudeDegrees>
            </Position>
            <AltitudeMeters>796.4000244140625</AltitudeMeters>
            <DistanceMeters>NAN</DistanceMeters>
          </Trackpoint>
          <Trackpoint>
            <Time>2019-10-07T08:43:17.000Z</Time>
            <Position>
              <LatitudeDegrees>40.91956959106028079986572265625</LatitudeDegrees>
              <LongitudeDegrees>-5.66772649995982646942138671875</LongitudeDegrees>
            </Position>
            <AltitudeMeters>795</AltitudeMeters>
            <DistanceMeters>NAN</DistanceMeters>
          </Trackpoint>
          <Trackpoint>
            <Time>2019-10-07T08:43:18.000Z</Time>
            <Position>
              <LatitudeDegrees>40.9195099957287311553955078125</LatitudeDegrees>
              <LongitudeDegrees>-5.6676214747130870819091796875</LongitudeDegrees>
            </Position>
            <AltitudeMeters>793.79998779296875</AltitudeMeters>
            <DistanceMeters>NAN</DistanceMeters>
          </Trackpoint>
          <Trackpoint>
            <Time>2019-10-07T08:43:20.000Z</Time>
            <Position>
              <LatitudeDegrees>40.91939172707498073577880859375</LatitudeDegrees>
              <LongitudeDegrees>-5.66740580834448337554931640625</LongitudeDegrees>
            </Position>
            <AltitudeMeters>792.79998779296875</AltitudeMeters>
            <DistanceMeters>NAN</DistanceMeters>
          </Trackpoint>
          <Trackpoint>
            <Time>2019-10-07T08:43:22.000Z</Time>
            <Position>
              <LatitudeDegrees>40.9192659147083759307861328125</LatitudeDegrees>
              <LongitudeDegrees>-5.6671819277107715606689453125</LongitudeDegrees>
            </Position>
            <AltitudeMeters>791.20001220703125</AltitudeMeters>
            <DistanceMeters>NAN</DistanceMeters>
          </Trackpoint>
          <Trackpoint>
            <Time>2019-10-07T08:43:24.000Z</Time>
            <Position>
              <LatitudeDegrees>40.91913289390504360198974609375</LatitudeDegrees>
              <LongitudeDegrees>-5.66695251502096652984619140625</LongitudeDegrees>
            </Position>
            <AltitudeMeters>789.5999755859375</AltitudeMeters>
            <DistanceMeters>NAN</DistanceMeters>
          </Trackpoint>
          <Trackpoint>
            <Time>2019-10-07T08:43:25.000Z</Time>
            <Position>
              <LatitudeDegrees>40.9190583787858486175537109375</LatitudeDegrees>
              <LongitudeDegrees>-5.66683910787105560302734375</LongitudeDegrees>
            </Position>
            <AltitudeMeters>788.79998779296875</AltitudeMeters>
            <DistanceMeters>NAN</DistanceMeters>
          </Trackpoint>
          <Trackpoint>
            <Time>2019-10-07T08:43:26.000Z</Time>
            <Position>
              <LatitudeDegrees>40.9189772419631481170654296875</LatitudeDegrees>
              <LongitudeDegrees>-5.66673223860561847686767578125</LongitudeDegrees>
            </Position>
            <AltitudeMeters>788</AltitudeMeters>
            <DistanceMeters>NAN</DistanceMeters>
          </Trackpoint>
          <Trackpoint>
            <Time>2019-10-07T08:43:30.000Z</Time>
            <Position>
              <LatitudeDegrees>40.9186215139925479888916015625</LatitudeDegrees>
              <LongitudeDegrees>-5.6663658656179904937744140625</LongitudeDegrees>
            </Position>
            <AltitudeMeters>786.79998779296875</AltitudeMeters>
            <DistanceMeters>NAN</DistanceMeters>
          </Trackpoint>
          <Trackpoint>
            <Time>2019-10-07T08:43:34.000Z</Time>
            <Position>
              <LatitudeDegrees>40.91824189759790897369384765625</LatitudeDegrees>
              <LongitudeDegrees>-5.66611650399863719940185546875</LongitudeDegrees>
            </Position>
            <AltitudeMeters>786.20001220703125</AltitudeMeters>
            <DistanceMeters>NAN</DistanceMeters>
          </Trackpoint>
          <Trackpoint>
            <Time>2019-10-07T08:43:35.000Z</Time>
            <Position>
              <LatitudeDegrees>40.9181491099298000335693359375</LatitudeDegrees>
              <LongitudeDegrees>-5.66607492975890636444091796875</LongitudeDegrees>
            </Position>
            <AltitudeMeters>786.20001220703125</AltitudeMeters>
            <DistanceMeters>NAN</DistanceMeters>
          </Trackpoint>
          <Trackpoint>
            <Time>2019-10-07T08:43:40.000Z</Time>
            <Position>
              <LatitudeDegrees>40.9177400730550289154052734375</LatitudeDegrees>
              <LongitudeDegrees>-5.66593922674655914306640625</LongitudeDegrees>
            </Position>
            <AltitudeMeters>788.20001220703125</AltitudeMeters>
            <DistanceMeters>NAN</DistanceMeters>
          </Trackpoint>
          <Trackpoint>
            <Time>2019-10-07T08:43:41.000Z</Time>
            <Position>
              <LatitudeDegrees>40.917670838534832000732421875</LatitudeDegrees>
              <LongitudeDegrees>-5.6659202836453914642333984375</LongitudeDegrees>
            </Position>
            <AltitudeMeters>789.4000244140625</AltitudeMeters>
            <DistanceMeters>NAN</DistanceMeters>
          </Trackpoint>
          <Trackpoint>
            <Time>2019-10-07T08:43:42.000Z</Time>
            <Position>
              <LatitudeDegrees>40.917605459690093994140625</LatitudeDegrees>
              <LongitudeDegrees>-5.66590645350515842437744140625</LongitudeDegrees>
            </Position>
            <AltitudeMeters>790.5999755859375</AltitudeMeters>
            <DistanceMeters>NAN</DistanceMeters>
          </Trackpoint>
          <Trackpoint>
            <Time>2019-10-07T08:43:43.000Z</Time>
            <Position>
              <LatitudeDegrees>40.91754284687340259552001953125</LatitudeDegrees>
              <LongitudeDegrees>-5.6658911146223545074462890625</LongitudeDegrees>
            </Position>
            <AltitudeMeters>790.79998779296875</AltitudeMeters>
            <DistanceMeters>NAN</DistanceMeters>
          </Trackpoint>
          <Trackpoint>
            <Time>2019-10-07T08:43:44.000Z</Time>
            <Position>
              <LatitudeDegrees>40.9174832515418529510498046875</LatitudeDegrees>
              <LongitudeDegrees>-5.66587627865374088287353515625</LongitudeDegrees>
            </Position>
            <AltitudeMeters>791.20001220703125</AltitudeMeters>
            <DistanceMeters>NAN</DistanceMeters>
          </Trackpoint>
          <Trackpoint>
            <Time>2019-10-07T08:43:45.000Z</Time>
            <Position>
              <LatitudeDegrees>40.91742533259093761444091796875</LatitudeDegrees>
              <LongitudeDegrees>-5.66586152650415897369384765625</LongitudeDegrees>
            </Position>
            <AltitudeMeters>791.79998779296875</AltitudeMeters>
            <DistanceMeters>NAN</DistanceMeters>
          </Trackpoint>
          <Trackpoint>
            <Time>2019-10-07T08:43:47.000Z</Time>
            <Position>
              <LatitudeDegrees>40.91732039116322994232177734375</LatitudeDegrees>
              <LongitudeDegrees>-5.665836296975612640380859375</LongitudeDegrees>
            </Position>
            <AltitudeMeters>792.5999755859375</AltitudeMeters>
            <DistanceMeters>NAN</DistanceMeters>
          </Trackpoint>
          <Trackpoint>
            <Time>2019-10-07T08:43:49.000Z</Time>
            <Position>
              <LatitudeDegrees>40.9172224067151546478271484375</LatitudeDegrees>
              <LongitudeDegrees>-5.66581106744706630706787109375</LongitudeDegrees>
            </Position>
            <AltitudeMeters>793</AltitudeMeters>
            <DistanceMeters>NAN</DistanceMeters>
          </Trackpoint>
          <Trackpoint>
            <Time>2019-10-07T08:43:51.000Z</Time>
            <Position>
              <LatitudeDegrees>40.91713406145572662353515625</LatitudeDegrees>
              <LongitudeDegrees>-5.6657871790230274200439453125</LongitudeDegrees>
            </Position>
            <AltitudeMeters>793.79998779296875</AltitudeMeters>
            <DistanceMeters>NAN</DistanceMeters>
          </Trackpoint>
          <Trackpoint>
            <Time>2019-10-07T08:43:53.000Z</Time>
            <Position>
              <LatitudeDegrees>40.9170453809201717376708984375</LatitudeDegrees>
              <LongitudeDegrees>-5.66576563753187656402587890625</LongitudeDegrees>
            </Position>
            <AltitudeMeters>793.79998779296875</AltitudeMeters>
            <DistanceMeters>NAN</DistanceMeters>
          </Trackpoint>
          <Trackpoint>
            <Time>2019-10-07T08:43:54.000Z</Time>
            <Position>
              <LatitudeDegrees>40.91700221411883831024169921875</LatitudeDegrees>
              <LongitudeDegrees>-5.66575323231518268585205078125</LongitudeDegrees>
            </Position>
            <AltitudeMeters>794</AltitudeMeters>
            <DistanceMeters>NAN</DistanceMeters>
          </Trackpoint>
          <Trackpoint>
            <Time>2019-10-07T08:43:57.000Z</Time>
            <Position>
              <LatitudeDegrees>40.91687296517193317413330078125</LatitudeDegrees>
              <LongitudeDegrees>-5.665719620883464813232421875</LongitudeDegrees>
            </Position>
            <AltitudeMeters>795</AltitudeMeters>
            <DistanceMeters>NAN</DistanceMeters>
          </Trackpoint>
          <Trackpoint>
            <Time>2019-10-07T08:43:59.000Z</Time>
            <Position>
              <LatitudeDegrees>40.916785709559917449951171875</LatitudeDegrees>
              <LongitudeDegrees>-5.665695481002330780029296875</LongitudeDegrees>
            </Position>
            <AltitudeMeters>795</AltitudeMeters>
            <DistanceMeters>NAN</DistanceMeters>
          </Trackpoint>
          <Trackpoint>
            <Time>2019-10-07T08:44:01.000Z</Time>
            <Position>
              <LatitudeDegrees>40.91670331545174121856689453125</LatitudeDegrees>
              <LongitudeDegrees>-5.66567880101501941680908203125</LongitudeDegrees>
            </Position>
            <AltitudeMeters>795.5999755859375</AltitudeMeters>
            <DistanceMeters>NAN</DistanceMeters>
          </Trackpoint>
          <Trackpoint>
            <Time>2019-10-07T08:44:04.000Z</Time>
            <Position>
              <LatitudeDegrees>40.9165783412754535675048828125</LatitudeDegrees>
              <LongitudeDegrees>-5.66564979963004589080810546875</LongitudeDegrees>
            </Position>
            <AltitudeMeters>796.79998779296875</AltitudeMeters>
            <DistanceMeters>NAN</DistanceMeters>
          </Trackpoint>
          <Trackpoint>
            <Time>2019-10-07T08:44:06.000Z</Time>
            <Position>
              <LatitudeDegrees>40.91649745590984821319580078125</LatitudeDegrees>
              <LongitudeDegrees>-5.665620379149913787841796875</LongitudeDegrees>
            </Position>
            <AltitudeMeters>796.79998779296875</AltitudeMeters>
            <DistanceMeters>NAN</DistanceMeters>
          </Trackpoint>
          <Trackpoint>
            <Time>2019-10-07T08:44:09.000Z</Time>
            <Position>
              <LatitudeDegrees>40.91637910343706607818603515625</LatitudeDegrees>
              <LongitudeDegrees>-5.66557888872921466827392578125</LongitudeDegrees>
            </Position>
            <AltitudeMeters>797.4000244140625</AltitudeMeters>
            <DistanceMeters>NAN</DistanceMeters>
          </Trackpoint>
          <Trackpoint>
            <Time>2019-10-07T08:44:10.000Z</Time>
            <Position>
              <LatitudeDegrees>40.9163379482924938201904296875</LatitudeDegrees>
              <LongitudeDegrees>-5.66556581296026706695556640625</LongitudeDegrees>
            </Position>
            <AltitudeMeters>797.79998779296875</AltitudeMeters>
            <DistanceMeters>NAN</DistanceMeters>
          </Trackpoint>
          <Trackpoint>
            <Time>2019-10-07T08:44:15.000Z</Time>
            <Position>
              <LatitudeDegrees>40.91613083146512508392333984375</LatitudeDegrees>
              <LongitudeDegrees>-5.6655145995318889617919921875</LongitudeDegrees>
            </Position>
            <AltitudeMeters>798.20001220703125</AltitudeMeters>
            <DistanceMeters>NAN</DistanceMeters>
          </Trackpoint>
          <Trackpoint>
            <Time>2019-10-07T08:44:18.000Z</Time>
            <Position>
              <LatitudeDegrees>40.91600895859301090240478515625</LatitudeDegrees>
              <LongitudeDegrees>-5.665488950908184051513671875</LongitudeDegrees>
            </Position>
            <AltitudeMeters>799</AltitudeMeters>
            <DistanceMeters>NAN</DistanceMeters>
          </Trackpoint>
          <Trackpoint>
            <Time>2019-10-07T08:44:22.000Z</Time>
            <Position>
              <LatitudeDegrees>40.91584500856697559356689453125</LatitudeDegrees>
              <LongitudeDegrees>-5.66547696478664875030517578125</LongitudeDegrees>
            </Position>
            <AltitudeMeters>799.5999755859375</AltitudeMeters>
            <DistanceMeters>NAN</DistanceMeters>
          </Trackpoint>
          <Trackpoint>
            <Time>2019-10-07T08:44:25.000Z</Time>
            <Position>
              <LatitudeDegrees>40.91571777127683162689208984375</LatitudeDegrees>
              <LongitudeDegrees>-5.66549205221235752105712890625</LongitudeDegrees>
            </Position>
            <AltitudeMeters>799.79998779296875</AltitudeMeters>
            <DistanceMeters>NAN</DistanceMeters>
          </Trackpoint>
          <Trackpoint>
            <Time>2019-10-07T08:44:29.000Z</Time>
            <Position>
              <LatitudeDegrees>40.9155513904988765716552734375</LatitudeDegrees>
              <LongitudeDegrees>-5.66540689207613468170166015625</LongitudeDegrees>
            </Position>
            <AltitudeMeters>800</AltitudeMeters>
            <DistanceMeters>NAN</DistanceMeters>
          </Trackpoint>
          <Trackpoint>
            <Time>2019-10-07T08:44:34.000Z</Time>
            <Position>
              <LatitudeDegrees>40.91533455066382884979248046875</LatitudeDegrees>
              <LongitudeDegrees>-5.665310584008693695068359375</LongitudeDegrees>
            </Position>
            <AltitudeMeters>800</AltitudeMeters>
            <DistanceMeters>NAN</DistanceMeters>
          </Trackpoint>
          <Trackpoint>
            <Time>2019-10-07T08:44:38.000Z</Time>
            <Position>
              <LatitudeDegrees>40.91516121290624141693115234375</LatitudeDegrees>
              <LongitudeDegrees>-5.66525995731353759765625</LongitudeDegrees>
            </Position>
            <AltitudeMeters>800</AltitudeMeters>
            <DistanceMeters>NAN</DistanceMeters>
          </Trackpoint>
          <Trackpoint>
            <Time>2019-10-07T08:44:48.000Z</Time>
            <Position>
              <LatitudeDegrees>40.91473138891160488128662109375</LatitudeDegrees>
              <LongitudeDegrees>-5.6651367433369159698486328125</LongitudeDegrees>
            </Position>
            <AltitudeMeters>800.79998779296875</AltitudeMeters>
            <DistanceMeters>NAN</DistanceMeters>
          </Trackpoint>
          <Trackpoint>
            <Time>2019-10-07T08:44:55.000Z</Time>
            <Position>
              <LatitudeDegrees>40.9144017286598682403564453125</LatitudeDegrees>
              <LongitudeDegrees>-5.66504781134426593780517578125</LongitudeDegrees>
            </Position>
            <AltitudeMeters>801</AltitudeMeters>
            <DistanceMeters>NAN</DistanceMeters>
          </Trackpoint>
          <Trackpoint>
            <Time>2019-10-07T08:44:57.000Z</Time>
            <Position>
              <LatitudeDegrees>40.9143511019647121429443359375</LatitudeDegrees>
              <LongitudeDegrees>-5.6650358252227306365966796875</LongitudeDegrees>
            </Position>
            <AltitudeMeters>801.20001220703125</AltitudeMeters>
            <DistanceMeters>NAN</DistanceMeters>
          </Trackpoint>
          <Trackpoint>
            <Time>2019-10-07T08:45:08.000Z</Time>
            <Position>
              <LatitudeDegrees>40.9139058552682399749755859375</LatitudeDegrees>
              <LongitudeDegrees>-5.66491671837866306304931640625</LongitudeDegrees>
            </Position>
            <AltitudeMeters>801.79998779296875</AltitudeMeters>
            <DistanceMeters>NAN</DistanceMeters>
          </Trackpoint>
          <Trackpoint>
            <Time>2019-10-07T08:45:09.000Z</Time>
            <Position>
              <LatitudeDegrees>40.91386805288493633270263671875</LatitudeDegrees>
              <LongitudeDegrees>-5.664907582104206085205078125</LongitudeDegrees>
            </Position>
            <AltitudeMeters>802.4000244140625</AltitudeMeters>
            <DistanceMeters>NAN</DistanceMeters>
          </Trackpoint>
          <Trackpoint>
            <Time>2019-10-07T08:45:16.000Z</Time>
            <Position>
              <LatitudeDegrees>40.91361391358077526092529296875</LatitudeDegrees>
              <LongitudeDegrees>-5.66484010778367519378662109375</LongitudeDegrees>
            </Position>
            <AltitudeMeters>803.79998779296875</AltitudeMeters>
            <DistanceMeters>NAN</DistanceMeters>
          </Trackpoint>
          <Trackpoint>
            <Time>2019-10-07T08:45:18.000Z</Time>
            <Position>
              <LatitudeDegrees>40.9135430864989757537841796875</LatitudeDegrees>
              <LongitudeDegrees>-5.6648262776434421539306640625</LongitudeDegrees>
            </Position>
            <AltitudeMeters>804.79998779296875</AltitudeMeters>
            <DistanceMeters>NAN</DistanceMeters>
          </Trackpoint>
          <Trackpoint>
            <Time>2019-10-07T08:45:25.000Z</Time>
            <Position>
              <LatitudeDegrees>40.9132990054786205291748046875</LatitudeDegrees>
              <LongitudeDegrees>-5.66476835869252681732177734375</LongitudeDegrees>
            </Position>
            <AltitudeMeters>805.79998779296875</AltitudeMeters>
            <DistanceMeters>NAN</DistanceMeters>
          </Trackpoint>
          <Trackpoint>
            <Time>2019-10-07T08:45:26.000Z</Time>
            <Position>
              <LatitudeDegrees>40.9132638014853000640869140625</LatitudeDegrees>
              <LongitudeDegrees>-5.66476198844611644744873046875</LongitudeDegrees>
            </Position>
            <AltitudeMeters>806.20001220703125</AltitudeMeters>
            <DistanceMeters>NAN</DistanceMeters>
          </Trackpoint>
          <Trackpoint>
            <Time>2019-10-07T08:45:30.000Z</Time>
            <Position>
              <LatitudeDegrees>40.913120806217193603515625</LatitudeDegrees>
              <LongitudeDegrees>-5.66474338062107563018798828125</LongitudeDegrees>
            </Position>
            <AltitudeMeters>806.5999755859375</AltitudeMeters>
            <DistanceMeters>NAN</DistanceMeters>
          </Trackpoint>
          <Trackpoint>
            <Time>2019-10-07T08:45:33.000Z</Time>
            <Position>
              <LatitudeDegrees>40.9130146913230419158935546875</LatitudeDegrees>
              <LongitudeDegrees>-5.6647347472608089447021484375</LongitudeDegrees>
            </Position>
            <AltitudeMeters>807.4000244140625</AltitudeMeters>
            <DistanceMeters>NAN</DistanceMeters>
          </Trackpoint>
          <Trackpoint>
            <Time>2019-10-07T08:45:34.000Z</Time>
            <Position>
              <LatitudeDegrees>40.912978649139404296875</LatitudeDegrees>
              <LongitudeDegrees>-5.6647355854511260986328125</LongitudeDegrees>
            </Position>
            <AltitudeMeters>807.20001220703125</AltitudeMeters>
            <DistanceMeters>NAN</DistanceMeters>
          </Trackpoint>
          <Trackpoint>
            <Time>2019-10-07T08:45:41.000Z</Time>
            <Position>
              <LatitudeDegrees>40.9127377532422542572021484375</LatitudeDegrees>
              <LongitudeDegrees>-5.66471052356064319610595703125</LongitudeDegrees>
            </Position>
            <AltitudeMeters>808.4000244140625</AltitudeMeters>
            <DistanceMeters>NAN</DistanceMeters>
          </Trackpoint>
          <Trackpoint>
            <Time>2019-10-07T08:45:44.000Z</Time>
            <Position>
              <LatitudeDegrees>40.9126324765384197235107421875</LatitudeDegrees>
              <LongitudeDegrees>-5.664701722562313079833984375</LongitudeDegrees>
            </Position>
            <AltitudeMeters>809</AltitudeMeters>
            <DistanceMeters>NAN</DistanceMeters>
          </Trackpoint>
          <Trackpoint>
            <Time>2019-10-07T08:45:47.000Z</Time>
            <Position>
              <LatitudeDegrees>40.91252275742590427398681640625</LatitudeDegrees>
              <LongitudeDegrees>-5.66470264457166194915771484375</LongitudeDegrees>
            </Position>
            <AltitudeMeters>809.5999755859375</AltitudeMeters>
            <DistanceMeters>NAN</DistanceMeters>
          </Trackpoint>
          <Trackpoint>
            <Time>2019-10-07T08:45:53.000Z</Time>
            <Position>
              <LatitudeDegrees>40.9123106114566326141357421875</LatitudeDegrees>
              <LongitudeDegrees>-5.6647069193422794342041015625</LongitudeDegrees>
            </Position>
            <AltitudeMeters>810.79998779296875</AltitudeMeters>
            <DistanceMeters>NAN</DistanceMeters>
          </Trackpoint>
          <Trackpoint>
            <Time>2019-10-07T08:46:01.000Z</Time>
            <Position>
              <LatitudeDegrees>40.9120299853384494781494140625</LatitudeDegrees>
              <LongitudeDegrees>-5.66469828598201274871826171875</LongitudeDegrees>
            </Position>
            <AltitudeMeters>811.5999755859375</AltitudeMeters>
            <DistanceMeters>NAN</DistanceMeters>
          </Trackpoint>
          <Trackpoint>
            <Time>2019-10-07T08:46:03.000Z</Time>
            <Position>
              <LatitudeDegrees>40.91195697896182537078857421875</LatitudeDegrees>
              <LongitudeDegrees>-5.66470046527683734893798828125</LongitudeDegrees>
            </Position>
            <AltitudeMeters>812</AltitudeMeters>
            <DistanceMeters>NAN</DistanceMeters>
          </Trackpoint>
          <Trackpoint>
            <Time>2019-10-07T08:46:11.000Z</Time>
            <Position>
              <LatitudeDegrees>40.91164584271609783172607421875</LatitudeDegrees>
              <LongitudeDegrees>-5.66472326405346393585205078125</LongitudeDegrees>
            </Position>
            <AltitudeMeters>812.20001220703125</AltitudeMeters>
            <DistanceMeters>NAN</DistanceMeters>
          </Trackpoint>
          <Trackpoint>
            <Time>2019-10-07T08:46:13.000Z</Time>
            <Position>
              <LatitudeDegrees>40.91156621463596820831298828125</LatitudeDegrees>
              <LongitudeDegrees>-5.664726197719573974609375</LongitudeDegrees>
            </Position>
            <AltitudeMeters>813</AltitudeMeters>
            <DistanceMeters>NAN</DistanceMeters>
          </Trackpoint>
          <Trackpoint>
            <Time>2019-10-07T08:46:22.000Z</Time>
            <Position>
              <LatitudeDegrees>40.91120646335184574127197265625</LatitudeDegrees>
              <LongitudeDegrees>-5.664727203547954559326171875</LongitudeDegrees>
            </Position>
            <AltitudeMeters>813.20001220703125</AltitudeMeters>
            <DistanceMeters>NAN</DistanceMeters>
          </Trackpoint>
          <Trackpoint>
            <Time>2019-10-07T08:46:33.000Z</Time>
            <Position>
              <LatitudeDegrees>40.91072718612849712371826171875</LatitudeDegrees>
              <LongitudeDegrees>-5.66472644917666912078857421875</LongitudeDegrees>
            </Position>
            <AltitudeMeters>813.5999755859375</AltitudeMeters>
            <DistanceMeters>NAN</DistanceMeters>
          </Trackpoint>
          <Trackpoint>
            <Time>2019-10-07T08:46:39.000Z</Time>
            <Position>
              <LatitudeDegrees>40.910433568060398101806640625</LatitudeDegrees>
              <LongitudeDegrees>-5.664721839129924774169921875</LongitudeDegrees>
            </Position>
            <AltitudeMeters>812.5999755859375</AltitudeMeters>
            <DistanceMeters>NAN</DistanceMeters>
          </Trackpoint>
          <Trackpoint>
            <Time>2019-10-07T08:46:41.000Z</Time>
            <Position>
              <LatitudeDegrees>40.91032519005239009857177734375</LatitudeDegrees>
              <LongitudeDegrees>-5.66472058184444904327392578125</LongitudeDegrees>
            </Position>
            <AltitudeMeters>812.5999755859375</AltitudeMeters>
            <DistanceMeters>NAN</DistanceMeters>
          </Trackpoint>
          <Trackpoint>
            <Time>2019-10-07T08:46:45.000Z</Time>
            <Position>
              <LatitudeDegrees>40.9100967831909656524658203125</LatitudeDegrees>
              <LongitudeDegrees>-5.66471437923610210418701171875</LongitudeDegrees>
            </Position>
            <AltitudeMeters>811.79998779296875</AltitudeMeters>
            <DistanceMeters>NAN</DistanceMeters>
          </Trackpoint>
          <Trackpoint>
            <Time>2019-10-07T08:46:47.000Z</Time>
            <Position>
              <LatitudeDegrees>40.9099757485091686248779296875</LatitudeDegrees>
              <LongitudeDegrees>-5.66470901481807231903076171875</LongitudeDegrees>
            </Position>
            <AltitudeMeters>810.79998779296875</AltitudeMeters>
            <DistanceMeters>NAN</DistanceMeters>
          </Trackpoint>
          <Trackpoint>
            <Time>2019-10-07T08:46:50.000Z</Time>
            <Position>
              <LatitudeDegrees>40.90978170745074748992919921875</LatitudeDegrees>
              <LongitudeDegrees>-5.66470138728618621826171875</LongitudeDegrees>
            </Position>
            <AltitudeMeters>809.79998779296875</AltitudeMeters>
            <DistanceMeters>NAN</DistanceMeters>
          </Trackpoint>
          <Trackpoint>
            <Time>2019-10-07T08:46:53.000Z</Time>
            <Position>
              <LatitudeDegrees>40.9095781110227108001708984375</LatitudeDegrees>
              <LongitudeDegrees>-5.66469811834394931793212890625</LongitudeDegrees>
            </Position>
            <AltitudeMeters>809</AltitudeMeters>
            <DistanceMeters>NAN</DistanceMeters>
          </Trackpoint>
          <Trackpoint>
            <Time>2019-10-07T08:46:54.000Z</Time>
            <Position>
              <LatitudeDegrees>40.909506194293498992919921875</LatitudeDegrees>
              <LongitudeDegrees>-5.66469510085880756378173828125</LongitudeDegrees>
            </Position>
            <AltitudeMeters>808.5999755859375</AltitudeMeters>
            <DistanceMeters>NAN</DistanceMeters>
          </Trackpoint>
          <Trackpoint>
            <Time>2019-10-07T08:46:57.000Z</Time>
            <Position>
              <LatitudeDegrees>40.90928365476429462432861328125</LatitudeDegrees>
              <LongitudeDegrees>-5.66469443030655384063720703125</LongitudeDegrees>
            </Position>
            <AltitudeMeters>807.5999755859375</AltitudeMeters>
            <DistanceMeters>NAN</DistanceMeters>
          </Trackpoint>
          <Trackpoint>
            <Time>2019-10-07T08:46:58.000Z</Time>
            <Position>
              <LatitudeDegrees>40.90920788235962390899658203125</LatitudeDegrees>
              <LongitudeDegrees>-5.66469392739236354827880859375</LongitudeDegrees>
            </Position>
            <AltitudeMeters>807.20001220703125</AltitudeMeters>
            <DistanceMeters>NAN</DistanceMeters>
          </Trackpoint>
          <Trackpoint>
            <Time>2019-10-07T08:47:01.000Z</Time>
            <Position>
              <LatitudeDegrees>40.90898458845913410186767578125</LatitudeDegrees>
              <LongitudeDegrees>-5.66468797624111175537109375</LongitudeDegrees>
            </Position>
            <AltitudeMeters>806.5999755859375</AltitudeMeters>
            <DistanceMeters>NAN</DistanceMeters>
          </Trackpoint>
          <Trackpoint>
            <Time>2019-10-07T08:47:03.000Z</Time>
            <Position>
              <LatitudeDegrees>40.9088405035436153411865234375</LatitudeDegrees>
              <LongitudeDegrees>-5.664685629308223724365234375</LongitudeDegrees>
            </Position>
            <AltitudeMeters>806.5999755859375</AltitudeMeters>
            <DistanceMeters>NAN</DistanceMeters>
          </Trackpoint>
          <Trackpoint>
            <Time>2019-10-07T08:47:04.000Z</Time>
            <Position>
              <LatitudeDegrees>40.9087711013853549957275390625</LatitudeDegrees>
              <LongitudeDegrees>-5.664684288203716278076171875</LongitudeDegrees>
            </Position>
            <AltitudeMeters>806.79998779296875</AltitudeMeters>
            <DistanceMeters>NAN</DistanceMeters>
          </Trackpoint>
          <Trackpoint>
            <Time>2019-10-07T08:47:06.000Z</Time>
            <Position>
              <LatitudeDegrees>40.90863120742142200469970703125</LatitudeDegrees>
              <LongitudeDegrees>-5.66468437202274799346923828125</LongitudeDegrees>
            </Position>
            <AltitudeMeters>806.79998779296875</AltitudeMeters>
            <DistanceMeters>NAN</DistanceMeters>
          </Trackpoint>
          <Trackpoint>
            <Time>2019-10-07T08:47:08.000Z</Time>
            <Position>
              <LatitudeDegrees>40.9084968455135822296142578125</LatitudeDegrees>
              <LongitudeDegrees>-5.66468236036598682403564453125</LongitudeDegrees>
            </Position>
            <AltitudeMeters>806.5999755859375</AltitudeMeters>
            <DistanceMeters>NAN</DistanceMeters>
          </Trackpoint>
          <Trackpoint>
            <Time>2019-10-07T08:47:16.000Z</Time>
            <Position>
              <LatitudeDegrees>40.907971300184726715087890625</LatitudeDegrees>
              <LongitudeDegrees>-5.6646676920354366302490234375</LongitudeDegrees>
            </Position>
            <AltitudeMeters>806.5999755859375</AltitudeMeters>
            <DistanceMeters>NAN</DistanceMeters>
          </Trackpoint>
          <Trackpoint>
            <Time>2019-10-07T08:47:17.000Z</Time>
            <Position>
              <LatitudeDegrees>40.90790667571127414703369140625</LatitudeDegrees>
              <LongitudeDegrees>-5.66466341726481914520263671875</LongitudeDegrees>
            </Position>
            <AltitudeMeters>806.4000244140625</AltitudeMeters>
            <DistanceMeters>NAN</DistanceMeters>
          </Trackpoint>
          <Trackpoint>
            <Time>2019-10-07T08:47:26.000Z</Time>
            <Position>
              <LatitudeDegrees>40.90731323696672916412353515625</LatitudeDegrees>
              <LongitudeDegrees>-5.66461413167417049407958984375</LongitudeDegrees>
            </Position>
            <AltitudeMeters>805.5999755859375</AltitudeMeters>
            <DistanceMeters>NAN</DistanceMeters>
          </Trackpoint>
          <Trackpoint>
            <Time>2019-10-07T08:47:27.000Z</Time>
            <Position>
              <LatitudeDegrees>40.90724450536072254180908203125</LatitudeDegrees>
              <LongitudeDegrees>-5.66460725851356983184814453125</LongitudeDegrees>
            </Position>
            <AltitudeMeters>805.20001220703125</AltitudeMeters>
            <DistanceMeters>NAN</DistanceMeters>
          </Trackpoint>
          <Trackpoint>
            <Time>2019-10-07T08:47:28.000Z</Time>
            <Position>
              <LatitudeDegrees>40.90717493556439876556396484375</LatitudeDegrees>
              <LongitudeDegrees>-5.66460206173360347747802734375</LongitudeDegrees>
            </Position>
            <AltitudeMeters>805</AltitudeMeters>
            <DistanceMeters>NAN</DistanceMeters>
          </Trackpoint>
          <Trackpoint>
            <Time>2019-10-07T08:47:33.000Z</Time>
            <Position>
              <LatitudeDegrees>40.9068161062896251678466796875</LatitudeDegrees>
              <LongitudeDegrees>-5.6645972840487957000732421875</LongitudeDegrees>
            </Position>
            <AltitudeMeters>804</AltitudeMeters>
            <DistanceMeters>NAN</DistanceMeters>
          </Trackpoint>
          <Trackpoint>
            <Time>2019-10-07T08:47:36.000Z</Time>
            <Position>
              <LatitudeDegrees>40.906597338616847991943359375</LatitudeDegrees>
              <LongitudeDegrees>-5.66459183581173419952392578125</LongitudeDegrees>
            </Position>
            <AltitudeMeters>804.20001220703125</AltitudeMeters>
            <DistanceMeters>NAN</DistanceMeters>
          </Trackpoint>
          <Trackpoint>
            <Time>2019-10-07T08:47:41.000Z</Time>
            <Position>
              <LatitudeDegrees>40.90623465366661548614501953125</LatitudeDegrees>
              <LongitudeDegrees>-5.6645875610411167144775390625</LongitudeDegrees>
            </Position>
            <AltitudeMeters>802.79998779296875</AltitudeMeters>
            <DistanceMeters>NAN</DistanceMeters>
          </Trackpoint>
          <Trackpoint>
            <Time>2019-10-07T08:47:47.000Z</Time>
            <Position>
              <LatitudeDegrees>40.9058166481554508209228515625</LatitudeDegrees>
              <LongitudeDegrees>-5.664586387574672698974609375</LongitudeDegrees>
            </Position>
            <AltitudeMeters>803.20001220703125</AltitudeMeters>
            <DistanceMeters>NAN</DistanceMeters>
          </Trackpoint>
          <Trackpoint>
            <Time>2019-10-07T08:47:55.000Z</Time>
            <Position>
              <LatitudeDegrees>40.905299820005893707275390625</LatitudeDegrees>
              <LongitudeDegrees>-5.66457943059504032135009765625</LongitudeDegrees>
            </Position>
            <AltitudeMeters>803.20001220703125</AltitudeMeters>
            <DistanceMeters>NAN</DistanceMeters>
          </Trackpoint>
          <Trackpoint>
            <Time>2019-10-07T08:47:56.000Z</Time>
            <Position>
              <LatitudeDegrees>40.90523846447467803955078125</LatitudeDegrees>
              <LongitudeDegrees>-5.66457909531891345977783203125</LongitudeDegrees>
            </Position>
            <AltitudeMeters>803.5999755859375</AltitudeMeters>
            <DistanceMeters>NAN</DistanceMeters>
          </Trackpoint>
          <Trackpoint>
            <Time>2019-10-07T08:48:00.000Z</Time>
            <Position>
              <LatitudeDegrees>40.9049948863685131072998046875</LatitudeDegrees>
              <LongitudeDegrees>-5.6645728088915348052978515625</LongitudeDegrees>
            </Position>
            <AltitudeMeters>803.79998779296875</AltitudeMeters>
            <DistanceMeters>NAN</DistanceMeters>
          </Trackpoint>
          <Trackpoint>
            <Time>2019-10-07T08:48:04.000Z</Time>
            <Position>
              <LatitudeDegrees>40.9047575108706951141357421875</LatitudeDegrees>
              <LongitudeDegrees>-5.66457138396799564361572265625</LongitudeDegrees>
            </Position>
            <AltitudeMeters>803.4000244140625</AltitudeMeters>
            <DistanceMeters>NAN</DistanceMeters>
          </Trackpoint>
          <Trackpoint>
            <Time>2019-10-07T08:48:08.000Z</Time>
            <Position>
              <LatitudeDegrees>40.9045238234102725982666015625</LatitudeDegrees>
              <LongitudeDegrees>-5.66456803120672702789306640625</LongitudeDegrees>
            </Position>
            <AltitudeMeters>804</AltitudeMeters>
            <DistanceMeters>NAN</DistanceMeters>
          </Trackpoint>
          <Trackpoint>
            <Time>2019-10-07T08:48:16.000Z</Time>
            <Position>
              <LatitudeDegrees>40.9040598012506961822509765625</LatitudeDegrees>
              <LongitudeDegrees>-5.6645558774471282958984375</LongitudeDegrees>
            </Position>
            <AltitudeMeters>804.5999755859375</AltitudeMeters>
            <DistanceMeters>NAN</DistanceMeters>
          </Trackpoint>
          <Trackpoint>
            <Time>2019-10-07T08:48:18.000Z</Time>
            <Position>
              <LatitudeDegrees>40.9039444662630558013916015625</LatitudeDegrees>
              <LongitudeDegrees>-5.66455411724746227264404296875</LongitudeDegrees>
            </Position>
            <AltitudeMeters>804.5999755859375</AltitudeMeters>
            <DistanceMeters>NAN</DistanceMeters>
          </Trackpoint>
          <Trackpoint>
            <Time>2019-10-07T08:48:19.000Z</Time>
            <Position>
              <LatitudeDegrees>40.9038881398737430572509765625</LatitudeDegrees>
              <LongitudeDegrees>-5.6645536981523036956787109375</LongitudeDegrees>
            </Position>
            <AltitudeMeters>805</AltitudeMeters>
            <DistanceMeters>NAN</DistanceMeters>
          </Trackpoint>
          <Trackpoint>
            <Time>2019-10-07T08:48:29.000Z</Time>
            <Position>
              <LatitudeDegrees>40.90333686210215091705322265625</LatitudeDegrees>
              <LongitudeDegrees>-5.66454422660171985626220703125</LongitudeDegrees>
            </Position>
            <AltitudeMeters>805.5999755859375</AltitudeMeters>
            <DistanceMeters>NAN</DistanceMeters>
          </Trackpoint>
          <Trackpoint>
            <Time>2019-10-07T08:48:39.000Z</Time>
            <Position>
              <LatitudeDegrees>40.9028135798871517181396484375</LatitudeDegrees>
              <LongitudeDegrees>-5.6645349226891994476318359375</LongitudeDegrees>
            </Position>
            <AltitudeMeters>806.20001220703125</AltitudeMeters>
            <DistanceMeters>NAN</DistanceMeters>
          </Trackpoint>
          <Trackpoint>
            <Time>2019-10-07T08:48:41.000Z</Time>
            <Position>
              <LatitudeDegrees>40.90270704589784145355224609375</LatitudeDegrees>
              <LongitudeDegrees>-5.66453366540372371673583984375</LongitudeDegrees>
            </Position>
            <AltitudeMeters>806.20001220703125</AltitudeMeters>
            <DistanceMeters>NAN</DistanceMeters>
          </Trackpoint>
          <Trackpoint>
            <Time>2019-10-07T08:48:51.000Z</Time>
            <Position>
              <LatitudeDegrees>40.90217680670320987701416015625</LatitudeDegrees>
              <LongitudeDegrees>-5.66452595405280590057373046875</LongitudeDegrees>
            </Position>
            <AltitudeMeters>806.20001220703125</AltitudeMeters>
            <DistanceMeters>NAN</DistanceMeters>
          </Trackpoint>
          <Trackpoint>
            <Time>2019-10-07T08:48:53.000Z</Time>
            <Position>
              <LatitudeDegrees>40.9020716138184070587158203125</LatitudeDegrees>
              <LongitudeDegrees>-5.66452411003410816192626953125</LongitudeDegrees>
            </Position>
            <AltitudeMeters>805.5999755859375</AltitudeMeters>
            <DistanceMeters>NAN</DistanceMeters>
          </Trackpoint>
          <Trackpoint>
            <Time>2019-10-07T08:49:04.000Z</Time>
            <Position>
              <LatitudeDegrees>40.90150038711726665496826171875</LatitudeDegrees>
              <LongitudeDegrees>-5.664513967931270599365234375</LongitudeDegrees>
            </Position>
            <AltitudeMeters>806.5999755859375</AltitudeMeters>
            <DistanceMeters>NAN</DistanceMeters>
          </Trackpoint>
          <Trackpoint>
            <Time>2019-10-07T08:49:06.000Z</Time>
            <Position>
              <LatitudeDegrees>40.90139946900308132171630859375</LatitudeDegrees>
              <LongitudeDegrees>-5.66451287828385829925537109375</LongitudeDegrees>
            </Position>
            <AltitudeMeters>806.5999755859375</AltitudeMeters>
            <DistanceMeters>NAN</DistanceMeters>
          </Trackpoint>
          <Trackpoint>
            <Time>2019-10-07T08:49:16.000Z</Time>
            <Position>
              <LatitudeDegrees>40.900898315012454986572265625</LatitudeDegrees>
              <LongitudeDegrees>-5.66450432874262332916259765625</LongitudeDegrees>
            </Position>
            <AltitudeMeters>807</AltitudeMeters>
            <DistanceMeters>NAN</DistanceMeters>
          </Trackpoint>
          <Trackpoint>
            <Time>2019-10-07T08:49:19.000Z</Time>
            <Position>
              <LatitudeDegrees>40.9007576666772365570068359375</LatitudeDegrees>
              <LongitudeDegrees>-5.6644987128674983978271484375</LongitudeDegrees>
            </Position>
            <AltitudeMeters>807.5999755859375</AltitudeMeters>
            <DistanceMeters>NAN</DistanceMeters>
          </Trackpoint>
          <Trackpoint>
            <Time>2019-10-07T08:49:27.000Z</Time>
            <Position>
              <LatitudeDegrees>40.90039037168025970458984375</LatitudeDegrees>
              <LongitudeDegrees>-5.66449343226850032806396484375</LongitudeDegrees>
            </Position>
            <AltitudeMeters>807.4000244140625</AltitudeMeters>
            <DistanceMeters>NAN</DistanceMeters>
          </Trackpoint>
          <Trackpoint>
            <Time>2019-10-07T08:49:39.000Z</Time>
            <Position>
              <LatitudeDegrees>40.89984990656375885009765625</LatitudeDegrees>
              <LongitudeDegrees>-5.66448069177567958831787109375</LongitudeDegrees>
            </Position>
            <AltitudeMeters>808.4000244140625</AltitudeMeters>
            <DistanceMeters>NAN</DistanceMeters>
          </Trackpoint>
          <Trackpoint>
            <Time>2019-10-07T08:49:42.000Z</Time>
            <Position>
              <LatitudeDegrees>40.899716131389141082763671875</LatitudeDegrees>
              <LongitudeDegrees>-5.664475075900554656982421875</LongitudeDegrees>
            </Position>
            <AltitudeMeters>808.5999755859375</AltitudeMeters>
            <DistanceMeters>NAN</DistanceMeters>
          </Trackpoint>
          <Trackpoint>
            <Time>2019-10-07T08:49:49.000Z</Time>
            <Position>
              <LatitudeDegrees>40.8994001336395740509033203125</LatitudeDegrees>
              <LongitudeDegrees>-5.66446677781641483306884765625</LongitudeDegrees>
            </Position>
            <AltitudeMeters>809</AltitudeMeters>
            <DistanceMeters>NAN</DistanceMeters>
          </Trackpoint>
          <Trackpoint>
            <Time>2019-10-07T08:49:56.000Z</Time>
            <Position>
              <LatitudeDegrees>40.89908589608967304229736328125</LatitudeDegrees>
              <LongitudeDegrees>-5.6644635088741779327392578125</LongitudeDegrees>
            </Position>
            <AltitudeMeters>809.79998779296875</AltitudeMeters>
            <DistanceMeters>NAN</DistanceMeters>
          </Trackpoint>
          <Trackpoint>
            <Time>2019-10-07T08:50:00.000Z</Time>
            <Position>
              <LatitudeDegrees>40.89890568517148494720458984375</LatitudeDegrees>
              <LongitudeDegrees>-5.6644638441503047943115234375</LongitudeDegrees>
            </Position>
            <AltitudeMeters>809.5999755859375</AltitudeMeters>
            <DistanceMeters>NAN</DistanceMeters>
          </Trackpoint>
          <Trackpoint>
            <Time>2019-10-07T08:50:12.000Z</Time>
            <Position>
              <LatitudeDegrees>40.89836203493177890777587890625</LatitudeDegrees>
              <LongitudeDegrees>-5.66445470787584781646728515625</LongitudeDegrees>
            </Position>
            <AltitudeMeters>810</AltitudeMeters>
            <DistanceMeters>NAN</DistanceMeters>
          </Trackpoint>
          <Trackpoint>
            <Time>2019-10-07T08:50:23.000Z</Time>
            <Position>
              <LatitudeDegrees>40.8978565223515033721923828125</LatitudeDegrees>
              <LongitudeDegrees>-5.6644688732922077178955078125</LongitudeDegrees>
            </Position>
            <AltitudeMeters>810.20001220703125</AltitudeMeters>
            <DistanceMeters>NAN</DistanceMeters>
          </Trackpoint>
          <Trackpoint>
            <Time>2019-10-07T08:50:25.000Z</Time>
            <Position>
              <LatitudeDegrees>40.897762142121791839599609375</LatitudeDegrees>
              <LongitudeDegrees>-5.6644732318818569183349609375</LongitudeDegrees>
            </Position>
            <AltitudeMeters>810.79998779296875</AltitudeMeters>
            <DistanceMeters>NAN</DistanceMeters>
          </Trackpoint>
          <Trackpoint>
            <Time>2019-10-07T08:50:33.000Z</Time>
            <Position>
              <LatitudeDegrees>40.89739576913416385650634765625</LatitudeDegrees>
              <LongitudeDegrees>-5.6644861400127410888671875</LongitudeDegrees>
            </Position>
            <AltitudeMeters>811.20001220703125</AltitudeMeters>
            <DistanceMeters>NAN</DistanceMeters>
          </Trackpoint>
          <Trackpoint>
            <Time>2019-10-07T08:50:43.000Z</Time>
            <Position>
              <LatitudeDegrees>40.8969385363161563873291015625</LatitudeDegrees>
              <LongitudeDegrees>-5.66449494101107120513916015625</LongitudeDegrees>
            </Position>
            <AltitudeMeters>812</AltitudeMeters>
            <DistanceMeters>NAN</DistanceMeters>
          </Trackpoint>
          <Trackpoint>
            <Time>2019-10-07T08:50:53.000Z</Time>
            <Position>
              <LatitudeDegrees>40.8964835666120052337646484375</LatitudeDegrees>
              <LongitudeDegrees>-5.66448236815631389617919921875</LongitudeDegrees>
            </Position>
            <AltitudeMeters>812.4000244140625</AltitudeMeters>
            <DistanceMeters>NAN</DistanceMeters>
          </Trackpoint>
          <Trackpoint>
            <Time>2019-10-07T08:50:59.000Z</Time>
            <Position>
              <LatitudeDegrees>40.8962180279195308685302734375</LatitudeDegrees>
              <LongitudeDegrees>-5.66446342505514621734619140625</LongitudeDegrees>
            </Position>
            <AltitudeMeters>813</AltitudeMeters>
            <DistanceMeters>NAN</DistanceMeters>
          </Trackpoint>
          <Trackpoint>
            <Time>2019-10-07T08:51:04.000Z</Time>
            <Position>
              <LatitudeDegrees>40.89599833823740482330322265625</LatitudeDegrees>
              <LongitudeDegrees>-5.66445940174162387847900390625</LongitudeDegrees>
            </Position>
            <AltitudeMeters>813.20001220703125</AltitudeMeters>
            <DistanceMeters>NAN</DistanceMeters>
          </Trackpoint>
          <Trackpoint>
            <Time>2019-10-07T08:51:12.000Z</Time>
            <Position>
              <LatitudeDegrees>40.89565048925578594207763671875</LatitudeDegrees>
              <LongitudeDegrees>-5.66445596516132354736328125</LongitudeDegrees>
            </Position>
            <AltitudeMeters>814.20001220703125</AltitudeMeters>
            <DistanceMeters>NAN</DistanceMeters>
          </Trackpoint>
          <Trackpoint>
            <Time>2019-10-07T08:51:13.000Z</Time>
            <Position>
              <LatitudeDegrees>40.89560640044510364532470703125</LatitudeDegrees>
              <LongitudeDegrees>-5.664454288780689239501953125</LongitudeDegrees>
            </Position>
            <AltitudeMeters>813.79998779296875</AltitudeMeters>
            <DistanceMeters>NAN</DistanceMeters>
          </Trackpoint>
          <Trackpoint>
            <Time>2019-10-07T08:51:21.000Z</Time>
            <Position>
              <LatitudeDegrees>40.8952611498534679412841796875</LatitudeDegrees>
              <LongitudeDegrees>-5.66445303149521350860595703125</LongitudeDegrees>
            </Position>
            <AltitudeMeters>814.79998779296875</AltitudeMeters>
            <DistanceMeters>NAN</DistanceMeters>
          </Trackpoint>
          <Trackpoint>
            <Time>2019-10-07T08:51:23.000Z</Time>
            <Position>
              <LatitudeDegrees>40.89517372660338878631591796875</LatitudeDegrees>
              <LongitudeDegrees>-5.66445060074329376220703125</LongitudeDegrees>
            </Position>
            <AltitudeMeters>814.79998779296875</AltitudeMeters>
            <DistanceMeters>NAN</DistanceMeters>
          </Trackpoint>
          <Trackpoint>
            <Time>2019-10-07T08:51:25.000Z</Time>
            <Position>
              <LatitudeDegrees>40.89508655481040477752685546875</LatitudeDegrees>
              <LongitudeDegrees>-5.6644511036574840545654296875</LongitudeDegrees>
            </Position>
            <AltitudeMeters>815.20001220703125</AltitudeMeters>
            <DistanceMeters>NAN</DistanceMeters>
          </Trackpoint>
          <Trackpoint>
            <Time>2019-10-07T08:51:34.000Z</Time>
            <Position>
              <LatitudeDegrees>40.8947015739977359771728515625</LatitudeDegrees>
              <LongitudeDegrees>-5.66443308256566524505615234375</LongitudeDegrees>
            </Position>
            <AltitudeMeters>816</AltitudeMeters>
            <DistanceMeters>NAN</DistanceMeters>
          </Trackpoint>
          <Trackpoint>
            <Time>2019-10-07T08:51:36.000Z</Time>
            <Position>
              <LatitudeDegrees>40.89462320320308208465576171875</LatitudeDegrees>
              <LongitudeDegrees>-5.66443040035665035247802734375</LongitudeDegrees>
            </Position>
            <AltitudeMeters>816.5999755859375</AltitudeMeters>
            <DistanceMeters>NAN</DistanceMeters>
          </Trackpoint>
          <Trackpoint>
            <Time>2019-10-07T08:51:39.000Z</Time>
            <Position>
              <LatitudeDegrees>40.894500911235809326171875</LatitudeDegrees>
              <LongitudeDegrees>-5.66442235372960567474365234375</LongitudeDegrees>
            </Position>
            <AltitudeMeters>816.4000244140625</AltitudeMeters>
            <DistanceMeters>NAN</DistanceMeters>
          </Trackpoint>
          <Trackpoint>
            <Time>2019-10-07T08:51:41.000Z</Time>
            <Position>
              <LatitudeDegrees>40.89441516436636447906494140625</LatitudeDegrees>
              <LongitudeDegrees>-5.6644142232835292816162109375</LongitudeDegrees>
            </Position>
            <AltitudeMeters>817</AltitudeMeters>
            <DistanceMeters>NAN</DistanceMeters>
          </Trackpoint>
          <Trackpoint>
            <Time>2019-10-07T08:51:48.000Z</Time>
            <Position>
              <LatitudeDegrees>40.89411123655736446380615234375</LatitudeDegrees>
              <LongitudeDegrees>-5.6643855571746826171875</LongitudeDegrees>
            </Position>
            <AltitudeMeters>818</AltitudeMeters>
            <DistanceMeters>NAN</DistanceMeters>
          </Trackpoint>
          <Trackpoint>
            <Time>2019-10-07T08:51:50.000Z</Time>
            <Position>
              <LatitudeDegrees>40.89402423240244388580322265625</LatitudeDegrees>
              <LongitudeDegrees>-5.664383210241794586181640625</LongitudeDegrees>
            </Position>
            <AltitudeMeters>818</AltitudeMeters>
            <DistanceMeters>NAN</DistanceMeters>
          </Trackpoint>
          <Trackpoint>
            <Time>2019-10-07T08:51:55.000Z</Time>
            <Position>
              <LatitudeDegrees>40.89380680583417415618896484375</LatitudeDegrees>
              <LongitudeDegrees>-5.6643689610064029693603515625</LongitudeDegrees>
            </Position>
            <AltitudeMeters>819</AltitudeMeters>
            <DistanceMeters>NAN</DistanceMeters>
          </Trackpoint>
          <Trackpoint>
            <Time>2019-10-07T08:52:00.000Z</Time>
            <Position>
              <LatitudeDegrees>40.8935894630849361419677734375</LatitudeDegrees>
              <LongitudeDegrees>-5.66436820663511753082275390625</LongitudeDegrees>
            </Position>
            <AltitudeMeters>819.79998779296875</AltitudeMeters>
            <DistanceMeters>NAN</DistanceMeters>
          </Trackpoint>
          <Trackpoint>
            <Time>2019-10-07T08:52:04.000Z</Time>
            <Position>
              <LatitudeDegrees>40.89341402985155582427978515625</LatitudeDegrees>
              <LongitudeDegrees>-5.66436049528419971466064453125</LongitudeDegrees>
            </Position>
            <AltitudeMeters>820.20001220703125</AltitudeMeters>
            <DistanceMeters>NAN</DistanceMeters>
          </Trackpoint>
          <Trackpoint>
            <Time>2019-10-07T08:52:08.000Z</Time>
            <Position>
              <LatitudeDegrees>40.89323767460882663726806640625</LatitudeDegrees>
              <LongitudeDegrees>-5.66435831598937511444091796875</LongitudeDegrees>
            </Position>
            <AltitudeMeters>820.79998779296875</AltitudeMeters>
            <DistanceMeters>NAN</DistanceMeters>
          </Trackpoint>
          <Trackpoint>
            <Time>2019-10-07T08:52:12.000Z</Time>
            <Position>
              <LatitudeDegrees>40.89306634850800037384033203125</LatitudeDegrees>
              <LongitudeDegrees>-5.66436049528419971466064453125</LongitudeDegrees>
            </Position>
            <AltitudeMeters>821.20001220703125</AltitudeMeters>
            <DistanceMeters>NAN</DistanceMeters>
          </Trackpoint>
          <Trackpoint>
            <Time>2019-10-07T08:52:17.000Z</Time>
            <Position>
              <LatitudeDegrees>40.89285579510033130645751953125</LatitudeDegrees>
              <LongitudeDegrees>-5.6643532030284404754638671875</LongitudeDegrees>
            </Position>
            <AltitudeMeters>822.20001220703125</AltitudeMeters>
            <DistanceMeters>NAN</DistanceMeters>
          </Trackpoint>
          <Trackpoint>
            <Time>2019-10-07T08:52:24.000Z</Time>
            <Position>
              <LatitudeDegrees>40.89257315732538700103759765625</LatitudeDegrees>
              <LongitudeDegrees>-5.6643458269536495208740234375</LongitudeDegrees>
            </Position>
            <AltitudeMeters>823.4000244140625</AltitudeMeters>
            <DistanceMeters>NAN</DistanceMeters>
          </Trackpoint>
          <Trackpoint>
            <Time>2019-10-07T08:52:26.000Z</Time>
            <Position>
              <LatitudeDegrees>40.892488919198513031005859375</LatitudeDegrees>
              <LongitudeDegrees>-5.66434591077268123626708984375</LongitudeDegrees>
            </Position>
            <AltitudeMeters>823</AltitudeMeters>
            <DistanceMeters>NAN</DistanceMeters>
          </Trackpoint>
          <Trackpoint>
            <Time>2019-10-07T08:52:34.000Z</Time>
            <Position>
              <LatitudeDegrees>40.8921618573367595672607421875</LatitudeDegrees>
              <LongitudeDegrees>-5.66433182917535305023193359375</LongitudeDegrees>
            </Position>
            <AltitudeMeters>824.4000244140625</AltitudeMeters>
            <DistanceMeters>NAN</DistanceMeters>
          </Trackpoint>
          <Trackpoint>
            <Time>2019-10-07T08:52:37.000Z</Time>
            <Position>
              <LatitudeDegrees>40.89203939773142337799072265625</LatitudeDegrees>
              <LongitudeDegrees>-5.66433367319405078887939453125</LongitudeDegrees>
            </Position>
            <AltitudeMeters>824.79998779296875</AltitudeMeters>
            <DistanceMeters>NAN</DistanceMeters>
          </Trackpoint>
          <Trackpoint>
            <Time>2019-10-07T08:52:45.000Z</Time>
            <Position>
              <LatitudeDegrees>40.8917156048119068145751953125</LatitudeDegrees>
              <LongitudeDegrees>-5.6643270514905452728271484375</LongitudeDegrees>
            </Position>
            <AltitudeMeters>825.5999755859375</AltitudeMeters>
            <DistanceMeters>NAN</DistanceMeters>
          </Trackpoint>
          <Trackpoint>
            <Time>2019-10-07T08:52:47.000Z</Time>
            <Position>
              <LatitudeDegrees>40.8916364796459674835205078125</LatitudeDegrees>
              <LongitudeDegrees>-5.66432713530957698822021484375</LongitudeDegrees>
            </Position>
            <AltitudeMeters>825.5999755859375</AltitudeMeters>
            <DistanceMeters>NAN</DistanceMeters>
          </Trackpoint>
          <Trackpoint>
            <Time>2019-10-07T08:52:52.000Z</Time>
            <Position>
              <LatitudeDegrees>40.89143573306500911712646484375</LatitudeDegrees>
              <LongitudeDegrees>-5.6643193401396274566650390625</LongitudeDegrees>
            </Position>
            <AltitudeMeters>826.5999755859375</AltitudeMeters>
            <DistanceMeters>NAN</DistanceMeters>
          </Trackpoint>
          <Trackpoint>
            <Time>2019-10-07T08:52:58.000Z</Time>
            <Position>
              <LatitudeDegrees>40.89119550772011280059814453125</LatitudeDegrees>
              <LongitudeDegrees>-5.66431657411158084869384765625</LongitudeDegrees>
            </Position>
            <AltitudeMeters>827.5999755859375</AltitudeMeters>
            <DistanceMeters>NAN</DistanceMeters>
          </Trackpoint>
          <Trackpoint>
            <Time>2019-10-07T08:52:59.000Z</Time>
            <Position>
              <LatitudeDegrees>40.8911560289561748504638671875</LatitudeDegrees>
              <LongitudeDegrees>-5.6643169932067394256591796875</LongitudeDegrees>
            </Position>
            <AltitudeMeters>827.79998779296875</AltitudeMeters>
            <DistanceMeters>NAN</DistanceMeters>
          </Trackpoint>
          <Trackpoint>
            <Time>2019-10-07T08:53:09.000Z</Time>
            <Position>
              <LatitudeDegrees>40.89076719246804714202880859375</LatitudeDegrees>
              <LongitudeDegrees>-5.6643143109977245330810546875</LongitudeDegrees>
            </Position>
            <AltitudeMeters>828.5999755859375</AltitudeMeters>
            <DistanceMeters>NAN</DistanceMeters>
          </Trackpoint>
          <Trackpoint>
            <Time>2019-10-07T08:53:11.000Z</Time>
            <Position>
              <LatitudeDegrees>40.89069041423499584197998046875</LatitudeDegrees>
              <LongitudeDegrees>-5.6643133051693439483642578125</LongitudeDegrees>
            </Position>
            <AltitudeMeters>829</AltitudeMeters>
            <DistanceMeters>NAN</DistanceMeters>
          </Trackpoint>
          <Trackpoint>
            <Time>2019-10-07T08:53:19.000Z</Time>
            <Position>
              <LatitudeDegrees>40.89038372039794921875</LatitudeDegrees>
              <LongitudeDegrees>-5.6643091142177581787109375</LongitudeDegrees>
            </Position>
            <AltitudeMeters>829.4000244140625</AltitudeMeters>
            <DistanceMeters>NAN</DistanceMeters>
          </Trackpoint>
          <Trackpoint>
            <Time>2019-10-07T08:53:30.000Z</Time>
            <Position>
              <LatitudeDegrees>40.88996185921132564544677734375</LatitudeDegrees>
              <LongitudeDegrees>-5.6643002294003963470458984375</LongitudeDegrees>
            </Position>
            <AltitudeMeters>830</AltitudeMeters>
            <DistanceMeters>NAN</DistanceMeters>
          </Trackpoint>
          <Trackpoint>
            <Time>2019-10-07T08:53:38.000Z</Time>
            <Position>
              <LatitudeDegrees>40.88965575210750102996826171875</LatitudeDegrees>
              <LongitudeDegrees>-5.66429796628654003143310546875</LongitudeDegrees>
            </Position>
            <AltitudeMeters>831</AltitudeMeters>
            <DistanceMeters>NAN</DistanceMeters>
          </Trackpoint>
          <Trackpoint>
            <Time>2019-10-07T08:53:41.000Z</Time>
            <Position>
              <LatitudeDegrees>40.88954192586243152618408203125</LatitudeDegrees>
              <LongitudeDegrees>-5.66429595462977886199951171875</LongitudeDegrees>
            </Position>
            <AltitudeMeters>831.4000244140625</AltitudeMeters>
            <DistanceMeters>NAN</DistanceMeters>
          </Trackpoint>
          <Trackpoint>
            <Time>2019-10-07T08:53:52.000Z</Time>
            <Position>
              <LatitudeDegrees>40.88912350125610828399658203125</LatitudeDegrees>
              <LongitudeDegrees>-5.66428857855498790740966796875</LongitudeDegrees>
            </Position>
            <AltitudeMeters>831.79998779296875</AltitudeMeters>
            <DistanceMeters>NAN</DistanceMeters>
          </Trackpoint>
          <Trackpoint>
            <Time>2019-10-07T08:53:54.000Z</Time>
            <Position>
              <LatitudeDegrees>40.889045633375644683837890625</LatitudeDegrees>
              <LongitudeDegrees>-5.66428556106984615325927734375</LongitudeDegrees>
            </Position>
            <AltitudeMeters>832.20001220703125</AltitudeMeters>
            <DistanceMeters>NAN</DistanceMeters>
          </Trackpoint>
          <Trackpoint>
            <Time>2019-10-07T08:54:02.000Z</Time>
            <Position>
              <LatitudeDegrees>40.88874329812824726104736328125</LatitudeDegrees>
              <LongitudeDegrees>-5.664286650717258453369140625</LongitudeDegrees>
            </Position>
            <AltitudeMeters>832</AltitudeMeters>
            <DistanceMeters>NAN</DistanceMeters>
          </Trackpoint>
          <Trackpoint>
            <Time>2019-10-07T08:54:11.000Z</Time>
            <Position>
              <LatitudeDegrees>40.88840248994529247283935546875</LatitudeDegrees>
              <LongitudeDegrees>-5.6642807833850383758544921875</LongitudeDegrees>
            </Position>
            <AltitudeMeters>833.4000244140625</AltitudeMeters>
            <DistanceMeters>NAN</DistanceMeters>
          </Trackpoint>
          <Trackpoint>
            <Time>2019-10-07T08:54:13.000Z</Time>
            <Position>
              <LatitudeDegrees>40.88832654990255832672119140625</LatitudeDegrees>
              <LongitudeDegrees>-5.6642774306237697601318359375</LongitudeDegrees>
            </Position>
            <AltitudeMeters>833.5999755859375</AltitudeMeters>
            <DistanceMeters>NAN</DistanceMeters>
          </Trackpoint>
          <Trackpoint>
            <Time>2019-10-07T08:54:18.000Z</Time>
            <Position>
              <LatitudeDegrees>40.88813778944313526153564453125</LatitudeDegrees>
              <LongitudeDegrees>-5.6642750836908817291259765625</LongitudeDegrees>
            </Position>
            <AltitudeMeters>834.4000244140625</AltitudeMeters>
            <DistanceMeters>NAN</DistanceMeters>
          </Trackpoint>
          <Trackpoint>
            <Time>2019-10-07T08:54:24.000Z</Time>
            <Position>
              <LatitudeDegrees>40.887913405895233154296875</LatitudeDegrees>
              <LongitudeDegrees>-5.66426879726350307464599609375</LongitudeDegrees>
            </Position>
            <AltitudeMeters>834.4000244140625</AltitudeMeters>
            <DistanceMeters>NAN</DistanceMeters>
          </Trackpoint>
          <Trackpoint>
            <Time>2019-10-07T08:54:33.000Z</Time>
            <Position>
              <LatitudeDegrees>40.8875692449510097503662109375</LatitudeDegrees>
              <LongitudeDegrees>-5.66426225937902927398681640625</LongitudeDegrees>
            </Position>
            <AltitudeMeters>835.4000244140625</AltitudeMeters>
            <DistanceMeters>NAN</DistanceMeters>
          </Trackpoint>
          <Trackpoint>
            <Time>2019-10-07T08:54:34.000Z</Time>
            <Position>
              <LatitudeDegrees>40.8875316940248012542724609375</LatitudeDegrees>
              <LongitudeDegrees>-5.66426192410290241241455078125</LongitudeDegrees>
            </Position>
            <AltitudeMeters>835.79998779296875</AltitudeMeters>
            <DistanceMeters>NAN</DistanceMeters>
          </Trackpoint>
          <Trackpoint>
            <Time>2019-10-07T08:54:43.000Z</Time>
            <Position>
              <LatitudeDegrees>40.8871887065470218658447265625</LatitudeDegrees>
              <LongitudeDegrees>-5.664253793656826019287109375</LongitudeDegrees>
            </Position>
            <AltitudeMeters>836.5999755859375</AltitudeMeters>
            <DistanceMeters>NAN</DistanceMeters>
          </Trackpoint>
          <Trackpoint>
            <Time>2019-10-07T08:54:46.000Z</Time>
            <Position>
              <LatitudeDegrees>40.887071527540683746337890625</LatitudeDegrees>
              <LongitudeDegrees>-5.66425236873328685760498046875</LongitudeDegrees>
            </Position>
            <AltitudeMeters>836.5999755859375</AltitudeMeters>
            <DistanceMeters>NAN</DistanceMeters>
          </Trackpoint>
          <Trackpoint>
            <Time>2019-10-07T08:54:57.000Z</Time>
            <Position>
              <LatitudeDegrees>40.8866509236395359039306640625</LatitudeDegrees>
              <LongitudeDegrees>-5.664237700402736663818359375</LongitudeDegrees>
            </Position>
            <AltitudeMeters>837.5999755859375</AltitudeMeters>
            <DistanceMeters>NAN</DistanceMeters>
          </Trackpoint>
          <Trackpoint>
            <Time>2019-10-07T08:54:59.000Z</Time>
            <Position>
              <LatitudeDegrees>40.8865721337497234344482421875</LatitudeDegrees>
              <LongitudeDegrees>-5.66423845477402210235595703125</LongitudeDegrees>
            </Position>
            <AltitudeMeters>837.5999755859375</AltitudeMeters>
            <DistanceMeters>NAN</DistanceMeters>
          </Trackpoint>
          <Trackpoint>
            <Time>2019-10-07T08:55:05.000Z</Time>
            <Position>
              <LatitudeDegrees>40.88634238578379154205322265625</LatitudeDegrees>
              <LongitudeDegrees>-5.6642338447272777557373046875</LongitudeDegrees>
            </Position>
            <AltitudeMeters>838.4000244140625</AltitudeMeters>
            <DistanceMeters>NAN</DistanceMeters>
          </Trackpoint>
          <Trackpoint>
            <Time>2019-10-07T08:55:09.000Z</Time>
            <Position>
              <LatitudeDegrees>40.8861889131367206573486328125</LatitudeDegrees>
              <LongitudeDegrees>-5.66422940231859683990478515625</LongitudeDegrees>
            </Position>
            <AltitudeMeters>838.5999755859375</AltitudeMeters>
            <DistanceMeters>NAN</DistanceMeters>
          </Trackpoint>
          <Trackpoint>
            <Time>2019-10-07T08:55:15.000Z</Time>
            <Position>
              <LatitudeDegrees>40.8859629370272159576416015625</LatitudeDegrees>
              <LongitudeDegrees>-5.66421599127352237701416015625</LongitudeDegrees>
            </Position>
            <AltitudeMeters>839.20001220703125</AltitudeMeters>
            <DistanceMeters>NAN</DistanceMeters>
          </Trackpoint>
          <Trackpoint>
            <Time>2019-10-07T08:55:17.000Z</Time>
            <Position>
              <LatitudeDegrees>40.885885991156101226806640625</LatitudeDegrees>
              <LongitudeDegrees>-5.66421096213161945343017578125</LongitudeDegrees>
            </Position>
            <AltitudeMeters>839.79998779296875</AltitudeMeters>
            <DistanceMeters>NAN</DistanceMeters>
          </Trackpoint>
          <Trackpoint>
            <Time>2019-10-07T08:55:26.000Z</Time>
            <Position>
              <LatitudeDegrees>40.88553789071738719940185546875</LatitudeDegrees>
              <LongitudeDegrees>-5.664189420640468597412109375</LongitudeDegrees>
            </Position>
            <AltitudeMeters>839.5999755859375</AltitudeMeters>
            <DistanceMeters>NAN</DistanceMeters>
          </Trackpoint>
          <Trackpoint>
            <Time>2019-10-07T08:55:36.000Z</Time>
            <Position>
              <LatitudeDegrees>40.885140001773834228515625</LatitudeDegrees>
              <LongitudeDegrees>-5.6641486845910549163818359375</LongitudeDegrees>
            </Position>
            <AltitudeMeters>840.4000244140625</AltitudeMeters>
            <DistanceMeters>NAN</DistanceMeters>
          </Trackpoint>
          <Trackpoint>
            <Time>2019-10-07T08:55:39.000Z</Time>
            <Position>
              <LatitudeDegrees>40.88502458296716213226318359375</LatitudeDegrees>
              <LongitudeDegrees>-5.6641292385756969451904296875</LongitudeDegrees>
            </Position>
            <AltitudeMeters>841</AltitudeMeters>
            <DistanceMeters>NAN</DistanceMeters>
          </Trackpoint>
          <Trackpoint>
            <Time>2019-10-07T08:55:46.000Z</Time>
            <Position>
              <LatitudeDegrees>40.88475518859922885894775390625</LatitudeDegrees>
              <LongitudeDegrees>-5.66407685168087482452392578125</LongitudeDegrees>
            </Position>
            <AltitudeMeters>841.5999755859375</AltitudeMeters>
            <DistanceMeters>NAN</DistanceMeters>
          </Trackpoint>
          <Trackpoint>
            <Time>2019-10-07T08:55:58.000Z</Time>
            <Position>
              <LatitudeDegrees>40.88429099880158901214599609375</LatitudeDegrees>
              <LongitudeDegrees>-5.6639448367059230804443359375</LongitudeDegrees>
            </Position>
            <AltitudeMeters>842</AltitudeMeters>
            <DistanceMeters>NAN</DistanceMeters>
          </Trackpoint>
          <Trackpoint>
            <Time>2019-10-07T08:56:08.000Z</Time>
            <Position>
              <LatitudeDegrees>40.88388665579259395599365234375</LatitudeDegrees>
              <LongitudeDegrees>-5.66378717310726642608642578125</LongitudeDegrees>
            </Position>
            <AltitudeMeters>841.5999755859375</AltitudeMeters>
            <DistanceMeters>NAN</DistanceMeters>
          </Trackpoint>
          <Trackpoint>
            <Time>2019-10-07T08:56:16.000Z</Time>
            <Position>
              <LatitudeDegrees>40.88354886509478092193603515625</LatitudeDegrees>
              <LongitudeDegrees>-5.663609392940998077392578125</LongitudeDegrees>
            </Position>
            <AltitudeMeters>841.5999755859375</AltitudeMeters>
            <DistanceMeters>NAN</DistanceMeters>
          </Trackpoint>
          <Trackpoint>
            <Time>2019-10-07T08:56:21.000Z</Time>
            <Position>
              <LatitudeDegrees>40.88333956897258758544921875</LatitudeDegrees>
              <LongitudeDegrees>-5.663476288318634033203125</LongitudeDegrees>
            </Position>
            <AltitudeMeters>842</AltitudeMeters>
            <DistanceMeters>NAN</DistanceMeters>
          </Trackpoint>
          <Trackpoint>
            <Time>2019-10-07T08:56:25.000Z</Time>
            <Position>
              <LatitudeDegrees>40.88316346518695354461669921875</LatitudeDegrees>
              <LongitudeDegrees>-5.663357265293598175048828125</LongitudeDegrees>
            </Position>
            <AltitudeMeters>841.79998779296875</AltitudeMeters>
            <DistanceMeters>NAN</DistanceMeters>
          </Trackpoint>
          <Trackpoint>
            <Time>2019-10-07T08:56:32.000Z</Time>
            <Position>
              <LatitudeDegrees>40.88284076191484928131103515625</LatitudeDegrees>
              <LongitudeDegrees>-5.6631110049784183502197265625</LongitudeDegrees>
            </Position>
            <AltitudeMeters>840.79998779296875</AltitudeMeters>
            <DistanceMeters>NAN</DistanceMeters>
          </Trackpoint>
          <Trackpoint>
            <Time>2019-10-07T08:56:34.000Z</Time>
            <Position>
              <LatitudeDegrees>40.8827459625899791717529296875</LatitudeDegrees>
              <LongitudeDegrees>-5.66302894614636898040771484375</LongitudeDegrees>
            </Position>
            <AltitudeMeters>840.5999755859375</AltitudeMeters>
            <DistanceMeters>NAN</DistanceMeters>
          </Trackpoint>
          <Trackpoint>
            <Time>2019-10-07T08:56:40.000Z</Time>
            <Position>
              <LatitudeDegrees>40.88245150633156299591064453125</LatitudeDegrees>
              <LongitudeDegrees>-5.66276080906391143798828125</LongitudeDegrees>
            </Position>
            <AltitudeMeters>839.79998779296875</AltitudeMeters>
            <DistanceMeters>NAN</DistanceMeters>
          </Trackpoint>
          <Trackpoint>
            <Time>2019-10-07T08:56:42.000Z</Time>
            <Position>
              <LatitudeDegrees>40.88235410861670970916748046875</LatitudeDegrees>
              <LongitudeDegrees>-5.66266081295907497406005859375</LongitudeDegrees>
            </Position>
            <AltitudeMeters>839.4000244140625</AltitudeMeters>
            <DistanceMeters>NAN</DistanceMeters>
          </Trackpoint>
          <Trackpoint>
            <Time>2019-10-07T08:56:44.000Z</Time>
            <Position>
              <LatitudeDegrees>40.88225402869284152984619140625</LatitudeDegrees>
              <LongitudeDegrees>-5.6625591404736042022705078125</LongitudeDegrees>
            </Position>
            <AltitudeMeters>839.4000244140625</AltitudeMeters>
            <DistanceMeters>NAN</DistanceMeters>
          </Trackpoint>
          <Trackpoint>
            <Time>2019-10-07T08:56:46.000Z</Time>
            <Position>
              <LatitudeDegrees>40.88215730153024196624755859375</LatitudeDegrees>
              <LongitudeDegrees>-5.6624461524188518524169921875</LongitudeDegrees>
            </Position>
            <AltitudeMeters>838.20001220703125</AltitudeMeters>
            <DistanceMeters>NAN</DistanceMeters>
          </Trackpoint>
          <Trackpoint>
            <Time>2019-10-07T08:56:50.000Z</Time>
            <Position>
              <LatitudeDegrees>40.88195043615996837615966796875</LatitudeDegrees>
              <LongitudeDegrees>-5.66221900284290313720703125</LongitudeDegrees>
            </Position>
            <AltitudeMeters>837</AltitudeMeters>
            <DistanceMeters>NAN</DistanceMeters>
          </Trackpoint>
          <Trackpoint>
            <Time>2019-10-07T08:56:51.000Z</Time>
            <Position>
              <LatitudeDegrees>40.88189578615128993988037109375</LatitudeDegrees>
              <LongitudeDegrees>-5.66216024570167064666748046875</LongitudeDegrees>
            </Position>
            <AltitudeMeters>836.79998779296875</AltitudeMeters>
            <DistanceMeters>NAN</DistanceMeters>
          </Trackpoint>
          <Trackpoint>
            <Time>2019-10-07T08:56:55.000Z</Time>
            <Position>
              <LatitudeDegrees>40.88167659938335418701171875</LatitudeDegrees>
              <LongitudeDegrees>-5.661902166903018951416015625</LongitudeDegrees>
            </Position>
            <AltitudeMeters>835.79998779296875</AltitudeMeters>
            <DistanceMeters>NAN</DistanceMeters>
          </Trackpoint>
          <Trackpoint>
            <Time>2019-10-07T08:56:58.000Z</Time>
            <Position>
              <LatitudeDegrees>40.8815044350922107696533203125</LatitudeDegrees>
              <LongitudeDegrees>-5.66169706173241138458251953125</LongitudeDegrees>
            </Position>
            <AltitudeMeters>835</AltitudeMeters>
            <DistanceMeters>NAN</DistanceMeters>
          </Trackpoint>
          <Trackpoint>
            <Time>2019-10-07T08:56:59.000Z</Time>
            <Position>
              <LatitudeDegrees>40.88144634850323200225830078125</LatitudeDegrees>
              <LongitudeDegrees>-5.661623217165470123291015625</LongitudeDegrees>
            </Position>
            <AltitudeMeters>835</AltitudeMeters>
            <DistanceMeters>NAN</DistanceMeters>
          </Trackpoint>
          <Trackpoint>
            <Time>2019-10-07T08:57:00.000Z</Time>
            <Position>
              <LatitudeDegrees>40.88138549588620662689208984375</LatitudeDegrees>
              <LongitudeDegrees>-5.66155255772173404693603515625</LongitudeDegrees>
            </Position>
            <AltitudeMeters>834.4000244140625</AltitudeMeters>
            <DistanceMeters>NAN</DistanceMeters>
          </Trackpoint>
          <Trackpoint>
            <Time>2019-10-07T08:57:04.000Z</Time>
            <Position>
              <LatitudeDegrees>40.8811456896364688873291015625</LatitudeDegrees>
              <LongitudeDegrees>-5.66126422025263309478759765625</LongitudeDegrees>
            </Position>
            <AltitudeMeters>833.20001220703125</AltitudeMeters>
            <DistanceMeters>NAN</DistanceMeters>
          </Trackpoint>
          <Trackpoint>
            <Time>2019-10-07T08:57:07.000Z</Time>
            <Position>
              <LatitudeDegrees>40.880966149270534515380859375</LatitudeDegrees>
              <LongitudeDegrees>-5.66104042343795299530029296875</LongitudeDegrees>
            </Position>
            <AltitudeMeters>832.5999755859375</AltitudeMeters>
            <DistanceMeters>NAN</DistanceMeters>
          </Trackpoint>
          <Trackpoint>
            <Time>2019-10-07T08:57:08.000Z</Time>
            <Position>
              <LatitudeDegrees>40.8809061348438262939453125</LatitudeDegrees>
              <LongitudeDegrees>-5.66096414811909198760986328125</LongitudeDegrees>
            </Position>
            <AltitudeMeters>832.20001220703125</AltitudeMeters>
            <DistanceMeters>NAN</DistanceMeters>
          </Trackpoint>
          <Trackpoint>
            <Time>2019-10-07T08:57:09.000Z</Time>
            <Position>
              <LatitudeDegrees>40.88084511458873748779296875</LatitudeDegrees>
              <LongitudeDegrees>-5.66088854335248470306396484375</LongitudeDegrees>
            </Position>
            <AltitudeMeters>831.79998779296875</AltitudeMeters>
            <DistanceMeters>NAN</DistanceMeters>
          </Trackpoint>
          <Trackpoint>
            <Time>2019-10-07T08:57:12.000Z</Time>
            <Position>
              <LatitudeDegrees>40.88065694086253643035888671875</LatitudeDegrees>
              <LongitudeDegrees>-5.66066038794815540313720703125</LongitudeDegrees>
            </Position>
            <AltitudeMeters>831</AltitudeMeters>
            <DistanceMeters>NAN</DistanceMeters>
          </Trackpoint>
          <Trackpoint>
            <Time>2019-10-07T08:57:13.000Z</Time>
            <Position>
              <LatitudeDegrees>40.88059223257005214691162109375</LatitudeDegrees>
              <LongitudeDegrees>-5.66058478318154811859130859375</LongitudeDegrees>
            </Position>
            <AltitudeMeters>830.5999755859375</AltitudeMeters>
            <DistanceMeters>NAN</DistanceMeters>
          </Trackpoint>
          <Trackpoint>
            <Time>2019-10-07T08:57:15.000Z</Time>
            <Position>
              <LatitudeDegrees>40.88046348653733730316162109375</LatitudeDegrees>
              <LongitudeDegrees>-5.66043189726769924163818359375</LongitudeDegrees>
            </Position>
            <AltitudeMeters>829.4000244140625</AltitudeMeters>
            <DistanceMeters>NAN</DistanceMeters>
          </Trackpoint>
          <Trackpoint>
            <Time>2019-10-07T08:57:16.000Z</Time>
            <Position>
              <LatitudeDegrees>40.8803970180451869964599609375</LatitudeDegrees>
              <LongitudeDegrees>-5.66035897471010684967041015625</LongitudeDegrees>
            </Position>
            <AltitudeMeters>829.20001220703125</AltitudeMeters>
            <DistanceMeters>NAN</DistanceMeters>
          </Trackpoint>
          <Trackpoint>
            <Time>2019-10-07T08:57:17.000Z</Time>
            <Position>
              <LatitudeDegrees>40.88032937608659267425537109375</LatitudeDegrees>
              <LongitudeDegrees>-5.6602869741618633270263671875</LongitudeDegrees>
            </Position>
            <AltitudeMeters>829</AltitudeMeters>
            <DistanceMeters>NAN</DistanceMeters>
          </Trackpoint>
          <Trackpoint>
            <Time>2019-10-07T08:57:19.000Z</Time>
            <Position>
              <LatitudeDegrees>40.88019090704619884490966796875</LatitudeDegrees>
              <LongitudeDegrees>-5.66014976240694522857666015625</LongitudeDegrees>
            </Position>
            <AltitudeMeters>828</AltitudeMeters>
            <DistanceMeters>NAN</DistanceMeters>
          </Trackpoint>
          <Trackpoint>
            <Time>2019-10-07T08:57:23.000Z</Time>
            <Position>
              <LatitudeDegrees>40.87990977801382541656494140625</LatitudeDegrees>
              <LongitudeDegrees>-5.6598916836082935333251953125</LongitudeDegrees>
            </Position>
            <AltitudeMeters>827.79998779296875</AltitudeMeters>
            <DistanceMeters>NAN</DistanceMeters>
          </Trackpoint>
          <Trackpoint>
            <Time>2019-10-07T08:57:24.000Z</Time>
            <Position>
              <LatitudeDegrees>40.87983836419880390167236328125</LatitudeDegrees>
              <LongitudeDegrees>-5.6598336808383464813232421875</LongitudeDegrees>
            </Position>
            <AltitudeMeters>827.79998779296875</AltitudeMeters>
            <DistanceMeters>NAN</DistanceMeters>
          </Trackpoint>
          <Trackpoint>
            <Time>2019-10-07T08:57:28.000Z</Time>
            <Position>
              <LatitudeDegrees>40.879547931253910064697265625</LatitudeDegrees>
              <LongitudeDegrees>-5.659621618688106536865234375</LongitudeDegrees>
            </Position>
            <AltitudeMeters>826.5999755859375</AltitudeMeters>
            <DistanceMeters>NAN</DistanceMeters>
          </Trackpoint>
          <Trackpoint>
            <Time>2019-10-07T08:57:31.000Z</Time>
            <Position>
              <LatitudeDegrees>40.87933310307562351226806640625</LatitudeDegrees>
              <LongitudeDegrees>-5.65949429757893085479736328125</LongitudeDegrees>
            </Position>
            <AltitudeMeters>827.4000244140625</AltitudeMeters>
            <DistanceMeters>NAN</DistanceMeters>
          </Trackpoint>
          <Trackpoint>
            <Time>2019-10-07T08:57:34.000Z</Time>
            <Position>
              <LatitudeDegrees>40.87912640534341335296630859375</LatitudeDegrees>
              <LongitudeDegrees>-5.65938734449446201324462890625</LongitudeDegrees>
            </Position>
            <AltitudeMeters>827</AltitudeMeters>
            <DistanceMeters>NAN</DistanceMeters>
          </Trackpoint>
          <Trackpoint>
            <Time>2019-10-07T08:57:37.000Z</Time>
            <Position>
              <LatitudeDegrees>40.87892792187631130218505859375</LatitudeDegrees>
              <LongitudeDegrees>-5.65929832868278026580810546875</LongitudeDegrees>
            </Position>
            <AltitudeMeters>828</AltitudeMeters>
            <DistanceMeters>NAN</DistanceMeters>
          </Trackpoint>
          <Trackpoint>
            <Time>2019-10-07T08:57:38.000Z</Time>
            <Position>
              <LatitudeDegrees>40.878864638507366180419921875</LatitudeDegrees>
              <LongitudeDegrees>-5.65927469171583652496337890625</LongitudeDegrees>
            </Position>
            <AltitudeMeters>828</AltitudeMeters>
            <DistanceMeters>NAN</DistanceMeters>
          </Trackpoint>
          <Trackpoint>
            <Time>2019-10-07T08:57:43.000Z</Time>
            <Position>
              <LatitudeDegrees>40.8785645663738250732421875</LatitudeDegrees>
              <LongitudeDegrees>-5.6591780483722686767578125</LongitudeDegrees>
            </Position>
            <AltitudeMeters>829.20001220703125</AltitudeMeters>
            <DistanceMeters>NAN</DistanceMeters>
          </Trackpoint>
          <Trackpoint>
            <Time>2019-10-07T08:57:45.000Z</Time>
            <Position>
              <LatitudeDegrees>40.878450237214565277099609375</LatitudeDegrees>
              <LongitudeDegrees>-5.659150220453739166259765625</LongitudeDegrees>
            </Position>
            <AltitudeMeters>829.20001220703125</AltitudeMeters>
            <DistanceMeters>NAN</DistanceMeters>
          </Trackpoint>
          <Trackpoint>
            <Time>2019-10-07T08:57:50.000Z</Time>
            <Position>
              <LatitudeDegrees>40.878189392387866973876953125</LatitudeDegrees>
              <LongitudeDegrees>-5.65910252742469310760498046875</LongitudeDegrees>
            </Position>
            <AltitudeMeters>830.4000244140625</AltitudeMeters>
            <DistanceMeters>NAN</DistanceMeters>
          </Trackpoint>
          <Trackpoint>
            <Time>2019-10-07T08:57:53.000Z</Time>
            <Position>
              <LatitudeDegrees>40.8780406974256038665771484375</LatitudeDegrees>
              <LongitudeDegrees>-5.65908626653254032135009765625</LongitudeDegrees>
            </Position>
            <AltitudeMeters>831</AltitudeMeters>
            <DistanceMeters>NAN</DistanceMeters>
          </Trackpoint>
          <Trackpoint>
            <Time>2019-10-07T08:57:58.000Z</Time>
            <Position>
              <LatitudeDegrees>40.8778093568980693817138671875</LatitudeDegrees>
              <LongitudeDegrees>-5.65907637588679790496826171875</LongitudeDegrees>
            </Position>
            <AltitudeMeters>831.5999755859375</AltitudeMeters>
            <DistanceMeters>NAN</DistanceMeters>
          </Trackpoint>
          <Trackpoint>
            <Time>2019-10-07T08:58:01.000Z</Time>
            <Position>
              <LatitudeDegrees>40.87767474353313446044921875</LatitudeDegrees>
              <LongitudeDegrees>-5.65907738171517848968505859375</LongitudeDegrees>
            </Position>
            <AltitudeMeters>831.79998779296875</AltitudeMeters>
            <DistanceMeters>NAN</DistanceMeters>
          </Trackpoint>
          <Trackpoint>
            <Time>2019-10-07T08:58:09.000Z</Time>
            <Position>
              <LatitudeDegrees>40.87732396088540554046630859375</LatitudeDegrees>
              <LongitudeDegrees>-5.6591057963669300079345703125</LongitudeDegrees>
            </Position>
            <AltitudeMeters>832.5999755859375</AltitudeMeters>
            <DistanceMeters>NAN</DistanceMeters>
          </Trackpoint>
          <Trackpoint>
            <Time>2019-10-07T08:58:10.000Z</Time>
            <Position>
              <LatitudeDegrees>40.8772797882556915283203125</LatitudeDegrees>
              <LongitudeDegrees>-5.659109652042388916015625</LongitudeDegrees>
            </Position>
            <AltitudeMeters>833</AltitudeMeters>
            <DistanceMeters>NAN</DistanceMeters>
          </Trackpoint>
          <Trackpoint>
            <Time>2019-10-07T08:58:17.000Z</Time>
            <Position>
              <LatitudeDegrees>40.876977033913135528564453125</LatitudeDegrees>
              <LongitudeDegrees>-5.65916421823203563690185546875</LongitudeDegrees>
            </Position>
            <AltitudeMeters>833.79998779296875</AltitudeMeters>
            <DistanceMeters>NAN</DistanceMeters>
          </Trackpoint>
          <Trackpoint>
            <Time>2019-10-07T08:58:20.000Z</Time>
            <Position>
              <LatitudeDegrees>40.87684929370880126953125</LatitudeDegrees>
              <LongitudeDegrees>-5.65919104032218456268310546875</LongitudeDegrees>
            </Position>
            <AltitudeMeters>834.20001220703125</AltitudeMeters>
            <DistanceMeters>NAN</DistanceMeters>
          </Trackpoint>
          <Trackpoint>
            <Time>2019-10-07T08:58:27.000Z</Time>
            <Position>
              <LatitudeDegrees>40.87655165232717990875244140625</LatitudeDegrees>
              <LongitudeDegrees>-5.659267902374267578125</LongitudeDegrees>
            </Position>
            <AltitudeMeters>835</AltitudeMeters>
            <DistanceMeters>NAN</DistanceMeters>
          </Trackpoint>
          <Trackpoint>
            <Time>2019-10-07T08:58:32.000Z</Time>
            <Position>
              <LatitudeDegrees>40.87634126655757427215576171875</LatitudeDegrees>
              <LongitudeDegrees>-5.65932783298194408416748046875</LongitudeDegrees>
            </Position>
            <AltitudeMeters>835.5999755859375</AltitudeMeters>
            <DistanceMeters>NAN</DistanceMeters>
          </Trackpoint>
          <Trackpoint>
            <Time>2019-10-07T08:58:39.000Z</Time>
            <Position>
              <LatitudeDegrees>40.87604857049882411956787109375</LatitudeDegrees>
              <LongitudeDegrees>-5.65941684879362583160400390625</LongitudeDegrees>
            </Position>
            <AltitudeMeters>836.20001220703125</AltitudeMeters>
            <DistanceMeters>NAN</DistanceMeters>
          </Trackpoint>
          <Trackpoint>
            <Time>2019-10-07T08:58:41.000Z</Time>
            <Position>
              <LatitudeDegrees>40.8759628236293792724609375</LatitudeDegrees>
              <LongitudeDegrees>-5.6594434194266796112060546875</LongitudeDegrees>
            </Position>
            <AltitudeMeters>836</AltitudeMeters>
            <DistanceMeters>NAN</DistanceMeters>
          </Trackpoint>
          <Trackpoint>
            <Time>2019-10-07T08:58:47.000Z</Time>
            <Position>
              <LatitudeDegrees>40.87570709176361560821533203125</LatitudeDegrees>
              <LongitudeDegrees>-5.65952011384069919586181640625</LongitudeDegrees>
            </Position>
            <AltitudeMeters>837.20001220703125</AltitudeMeters>
            <DistanceMeters>NAN</DistanceMeters>
          </Trackpoint>
          <Trackpoint>
            <Time>2019-10-07T08:58:55.000Z</Time>
            <Position>
              <LatitudeDegrees>40.875365026295185089111328125</LatitudeDegrees>
              <LongitudeDegrees>-5.65961566753685474395751953125</LongitudeDegrees>
            </Position>
            <AltitudeMeters>838</AltitudeMeters>
            <DistanceMeters>NAN</DistanceMeters>
          </Trackpoint>
          <Trackpoint>
            <Time>2019-10-07T08:58:58.000Z</Time>
            <Position>
              <LatitudeDegrees>40.8752384595572948455810546875</LatitudeDegrees>
              <LongitudeDegrees>-5.65965103916823863983154296875</LongitudeDegrees>
            </Position>
            <AltitudeMeters>838.4000244140625</AltitudeMeters>
            <DistanceMeters>NAN</DistanceMeters>
          </Trackpoint>
          <Trackpoint>
            <Time>2019-10-07T08:59:06.000Z</Time>
            <Position>
              <LatitudeDegrees>40.87489505298435688018798828125</LatitudeDegrees>
              <LongitudeDegrees>-5.65972111187875270843505859375</LongitudeDegrees>
            </Position>
            <AltitudeMeters>838.5999755859375</AltitudeMeters>
            <DistanceMeters>NAN</DistanceMeters>
          </Trackpoint>
          <Trackpoint>
            <Time>2019-10-07T08:59:14.000Z</Time>
            <Position>
              <LatitudeDegrees>40.8745464496314525604248046875</LatitudeDegrees>
              <LongitudeDegrees>-5.65978447906672954559326171875</LongitudeDegrees>
            </Position>
            <AltitudeMeters>839.5999755859375</AltitudeMeters>
            <DistanceMeters>NAN</DistanceMeters>
          </Trackpoint>
          <Trackpoint>
            <Time>2019-10-07T08:59:17.000Z</Time>
            <Position>
              <LatitudeDegrees>40.87441158480942249298095703125</LatitudeDegrees>
              <LongitudeDegrees>-5.6598025001585483551025390625</LongitudeDegrees>
            </Position>
            <AltitudeMeters>839.4000244140625</AltitudeMeters>
            <DistanceMeters>NAN</DistanceMeters>
          </Trackpoint>
          <Trackpoint>
            <Time>2019-10-07T08:59:28.000Z</Time>
            <Position>
              <LatitudeDegrees>40.8739164657890796661376953125</LatitudeDegrees>
              <LongitudeDegrees>-5.6598246283829212188720703125</LongitudeDegrees>
            </Position>
            <AltitudeMeters>839.4000244140625</AltitudeMeters>
            <DistanceMeters>NAN</DistanceMeters>
          </Trackpoint>
          <Trackpoint>
            <Time>2019-10-07T08:59:36.000Z</Time>
            <Position>
              <LatitudeDegrees>40.8735469914972782135009765625</LatitudeDegrees>
              <LongitudeDegrees>-5.6597984768450260162353515625</LongitudeDegrees>
            </Position>
            <AltitudeMeters>839.5999755859375</AltitudeMeters>
            <DistanceMeters>NAN</DistanceMeters>
          </Trackpoint>
          <Trackpoint>
            <Time>2019-10-07T08:59:40.000Z</Time>
            <Position>
              <LatitudeDegrees>40.87335529737174510955810546875</LatitudeDegrees>
              <LongitudeDegrees>-5.65976838581264019012451171875</LongitudeDegrees>
            </Position>
            <AltitudeMeters>839.79998779296875</AltitudeMeters>
            <DistanceMeters>NAN</DistanceMeters>
          </Trackpoint>
          <Trackpoint>
            <Time>2019-10-07T08:59:46.000Z</Time>
            <Position>
              <LatitudeDegrees>40.87305237539112567901611328125</LatitudeDegrees>
              <LongitudeDegrees>-5.659701414406299591064453125</LongitudeDegrees>
            </Position>
            <AltitudeMeters>839.20001220703125</AltitudeMeters>
            <DistanceMeters>NAN</DistanceMeters>
          </Trackpoint>
          <Trackpoint>
            <Time>2019-10-07T08:59:49.000Z</Time>
            <Position>
              <LatitudeDegrees>40.87289295159280300140380859375</LatitudeDegrees>
              <LongitudeDegrees>-5.65965673886239528656005859375</LongitudeDegrees>
            </Position>
            <AltitudeMeters>839.20001220703125</AltitudeMeters>
            <DistanceMeters>NAN</DistanceMeters>
          </Trackpoint>
          <Trackpoint>
            <Time>2019-10-07T08:59:54.000Z</Time>
            <Position>
              <LatitudeDegrees>40.87261768989264965057373046875</LatitudeDegrees>
              <LongitudeDegrees>-5.65957375802099704742431640625</LongitudeDegrees>
            </Position>
            <AltitudeMeters>838.79998779296875</AltitudeMeters>
            <DistanceMeters>NAN</DistanceMeters>
          </Trackpoint>
          <Trackpoint>
            <Time>2019-10-07T09:00:01.000Z</Time>
            <Position>
              <LatitudeDegrees>40.87224871851503849029541015625</LatitudeDegrees>
              <LongitudeDegrees>-5.659426152706146240234375</LongitudeDegrees>
            </Position>
            <AltitudeMeters>838.79998779296875</AltitudeMeters>
            <DistanceMeters>NAN</DistanceMeters>
          </Trackpoint>
          <Trackpoint>
            <Time>2019-10-07T09:00:09.000Z</Time>
            <Position>
              <LatitudeDegrees>40.8718595467507839202880859375</LatitudeDegrees>
              <LongitudeDegrees>-5.659265555441379547119140625</LongitudeDegrees>
            </Position>
            <AltitudeMeters>839.5999755859375</AltitudeMeters>
            <DistanceMeters>NAN</DistanceMeters>
          </Trackpoint>
          <Trackpoint>
            <Time>2019-10-07T09:00:16.000Z</Time>
            <Position>
              <LatitudeDegrees>40.8715316466987133026123046875</LatitudeDegrees>
              <LongitudeDegrees>-5.659120045602321624755859375</LongitudeDegrees>
            </Position>
            <AltitudeMeters>840</AltitudeMeters>
            <DistanceMeters>NAN</DistanceMeters>
          </Trackpoint>
          <Trackpoint>
            <Time>2019-10-07T09:00:17.000Z</Time>
            <Position>
              <LatitudeDegrees>40.87148462422192096710205078125</LatitudeDegrees>
              <LongitudeDegrees>-5.659101270139217376708984375</LongitudeDegrees>
            </Position>
            <AltitudeMeters>840.20001220703125</AltitudeMeters>
            <DistanceMeters>NAN</DistanceMeters>
          </Trackpoint>
          <Trackpoint>
            <Time>2019-10-07T09:00:19.000Z</Time>
            <Position>
              <LatitudeDegrees>40.871392674744129180908203125</LatitudeDegrees>
              <LongitudeDegrees>-5.6590600311756134033203125</LongitudeDegrees>
            </Position>
            <AltitudeMeters>840.5999755859375</AltitudeMeters>
            <DistanceMeters>NAN</DistanceMeters>
          </Trackpoint>
          <Trackpoint>
            <Time>2019-10-07T09:00:24.000Z</Time>
            <Position>
              <LatitudeDegrees>40.87116711772978305816650390625</LatitudeDegrees>
              <LongitudeDegrees>-5.658967159688472747802734375</LongitudeDegrees>
            </Position>
            <AltitudeMeters>840.5999755859375</AltitudeMeters>
            <DistanceMeters>NAN</DistanceMeters>
          </Trackpoint>
          <Trackpoint>
            <Time>2019-10-07T09:00:25.000Z</Time>
            <Position>
              <LatitudeDegrees>40.87113124318420886993408203125</LatitudeDegrees>
              <LongitudeDegrees>-5.658960454165935516357421875</LongitudeDegrees>
            </Position>
            <AltitudeMeters>840.5999755859375</AltitudeMeters>
            <DistanceMeters>NAN</DistanceMeters>
          </Trackpoint>
          <Trackpoint>
            <Time>2019-10-07T09:00:28.000Z</Time>
            <Position>
              <LatitudeDegrees>40.87100937031209468841552734375</LatitudeDegrees>
              <LongitudeDegrees>-5.65893924795091152191162109375</LongitudeDegrees>
            </Position>
            <AltitudeMeters>841.5999755859375</AltitudeMeters>
            <DistanceMeters>NAN</DistanceMeters>
          </Trackpoint>
          <Trackpoint>
            <Time>2019-10-07T09:00:31.000Z</Time>
            <Position>
              <LatitudeDegrees>40.870891101658344268798828125</LatitudeDegrees>
              <LongitudeDegrees>-5.6589049659669399261474609375</LongitudeDegrees>
            </Position>
            <AltitudeMeters>841.20001220703125</AltitudeMeters>
            <DistanceMeters>NAN</DistanceMeters>
          </Trackpoint>
          <Trackpoint>
            <Time>2019-10-07T09:00:35.000Z</Time>
            <Position>
              <LatitudeDegrees>40.87074433453381061553955078125</LatitudeDegrees>
              <LongitudeDegrees>-5.65886012278497219085693359375</LongitudeDegrees>
            </Position>
            <AltitudeMeters>841.79998779296875</AltitudeMeters>
            <DistanceMeters>NAN</DistanceMeters>
          </Trackpoint>
          <Trackpoint>
            <Time>2019-10-07T09:00:37.000Z</Time>
            <Position>
              <LatitudeDegrees>40.8706681430339813232421875</LatitudeDegrees>
              <LongitudeDegrees>-5.65881720744073390960693359375</LongitudeDegrees>
            </Position>
            <AltitudeMeters>841.5999755859375</AltitudeMeters>
            <DistanceMeters>NAN</DistanceMeters>
          </Trackpoint>
          <Trackpoint>
            <Time>2019-10-07T09:00:45.000Z</Time>
            <Position>
              <LatitudeDegrees>40.87028584443032741546630859375</LatitudeDegrees>
              <LongitudeDegrees>-5.65862559713423252105712890625</LongitudeDegrees>
            </Position>
            <AltitudeMeters>842.79998779296875</AltitudeMeters>
            <DistanceMeters>NAN</DistanceMeters>
          </Trackpoint>
          <Trackpoint>
            <Time>2019-10-07T09:00:46.000Z</Time>
            <Position>
              <LatitudeDegrees>40.870241336524486541748046875</LatitudeDegrees>
              <LongitudeDegrees>-5.65860849805176258087158203125</LongitudeDegrees>
            </Position>
            <AltitudeMeters>843</AltitudeMeters>
            <DistanceMeters>NAN</DistanceMeters>
          </Trackpoint>
          <Trackpoint>
            <Time>2019-10-07T09:00:55.000Z</Time>
            <Position>
              <LatitudeDegrees>40.86985032074153423309326171875</LatitudeDegrees>
              <LongitudeDegrees>-5.65847103483974933624267578125</LongitudeDegrees>
            </Position>
            <AltitudeMeters>843.4000244140625</AltitudeMeters>
            <DistanceMeters>NAN</DistanceMeters>
          </Trackpoint>
          <Trackpoint>
            <Time>2019-10-07T09:01:00.000Z</Time>
            <Position>
              <LatitudeDegrees>40.869635157287120819091796875</LatitudeDegrees>
              <LongitudeDegrees>-5.65839911811053752899169921875</LongitudeDegrees>
            </Position>
            <AltitudeMeters>844.20001220703125</AltitudeMeters>
            <DistanceMeters>NAN</DistanceMeters>
          </Trackpoint>
          <Trackpoint>
            <Time>2019-10-07T09:01:05.000Z</Time>
            <Position>
              <LatitudeDegrees>40.86942435242235660552978515625</LatitudeDegrees>
              <LongitudeDegrees>-5.65832317806780338287353515625</LongitudeDegrees>
            </Position>
            <AltitudeMeters>844.5999755859375</AltitudeMeters>
            <DistanceMeters>NAN</DistanceMeters>
          </Trackpoint>
          <Trackpoint>
            <Time>2019-10-07T09:01:12.000Z</Time>
            <Position>
              <LatitudeDegrees>40.8691337518393993377685546875</LatitudeDegrees>
              <LongitudeDegrees>-5.6582240201532840728759765625</LongitudeDegrees>
            </Position>
            <AltitudeMeters>845.4000244140625</AltitudeMeters>
            <DistanceMeters>NAN</DistanceMeters>
          </Trackpoint>
          <Trackpoint>
            <Time>2019-10-07T09:01:16.000Z</Time>
            <Position>
              <LatitudeDegrees>40.8689694665372371673583984375</LatitudeDegrees>
              <LongitudeDegrees>-5.65817129798233509063720703125</LongitudeDegrees>
            </Position>
            <AltitudeMeters>845.4000244140625</AltitudeMeters>
            <DistanceMeters>NAN</DistanceMeters>
          </Trackpoint>
          <Trackpoint>
            <Time>2019-10-07T09:01:24.000Z</Time>
            <Position>
              <LatitudeDegrees>40.86864282377064228057861328125</LatitudeDegrees>
              <LongitudeDegrees>-5.6580617465078830718994140625</LongitudeDegrees>
            </Position>
            <AltitudeMeters>846.4000244140625</AltitudeMeters>
            <DistanceMeters>NAN</DistanceMeters>
          </Trackpoint>
          <Trackpoint>
            <Time>2019-10-07T09:01:26.000Z</Time>
            <Position>
              <LatitudeDegrees>40.86855984292924404144287109375</LatitudeDegrees>
              <LongitudeDegrees>-5.65803551115095615386962890625</LongitudeDegrees>
            </Position>
            <AltitudeMeters>846.4000244140625</AltitudeMeters>
            <DistanceMeters>NAN</DistanceMeters>
          </Trackpoint>
          <Trackpoint>
            <Time>2019-10-07T09:01:31.000Z</Time>
            <Position>
              <LatitudeDegrees>40.868357755243778228759765625</LatitudeDegrees>
              <LongitudeDegrees>-5.657967366278171539306640625</LongitudeDegrees>
            </Position>
            <AltitudeMeters>846.4000244140625</AltitudeMeters>
            <DistanceMeters>NAN</DistanceMeters>
          </Trackpoint>
          <Trackpoint>
            <Time>2019-10-07T09:01:35.000Z</Time>
            <Position>
              <LatitudeDegrees>40.868193805217742919921875</LatitudeDegrees>
              <LongitudeDegrees>-5.6579122133553028106689453125</LongitudeDegrees>
            </Position>
            <AltitudeMeters>847.20001220703125</AltitudeMeters>
            <DistanceMeters>NAN</DistanceMeters>
          </Trackpoint>
          <Trackpoint>
            <Time>2019-10-07T09:01:36.000Z</Time>
            <Position>
              <LatitudeDegrees>40.86815197952091693878173828125</LatitudeDegrees>
              <LongitudeDegrees>-5.6578984670341014862060546875</LongitudeDegrees>
            </Position>
            <AltitudeMeters>847.20001220703125</AltitudeMeters>
            <DistanceMeters>NAN</DistanceMeters>
          </Trackpoint>
          <Trackpoint>
            <Time>2019-10-07T09:01:39.000Z</Time>
            <Position>
              <LatitudeDegrees>40.8680259995162487030029296875</LatitudeDegrees>
              <LongitudeDegrees>-5.65785345621407032012939453125</LongitudeDegrees>
            </Position>
            <AltitudeMeters>847.4000244140625</AltitudeMeters>
            <DistanceMeters>NAN</DistanceMeters>
          </Trackpoint>
          <Trackpoint>
            <Time>2019-10-07T09:01:44.000Z</Time>
            <Position>
              <LatitudeDegrees>40.86782290600240230560302734375</LatitudeDegrees>
              <LongitudeDegrees>-5.65778531134128570556640625</LongitudeDegrees>
            </Position>
            <AltitudeMeters>847.5999755859375</AltitudeMeters>
            <DistanceMeters>NAN</DistanceMeters>
          </Trackpoint>
          <Trackpoint>
            <Time>2019-10-07T09:01:46.000Z</Time>
            <Position>
              <LatitudeDegrees>40.86774109862744808197021484375</LatitudeDegrees>
              <LongitudeDegrees>-5.6577576510608196258544921875</LongitudeDegrees>
            </Position>
            <AltitudeMeters>848.4000244140625</AltitudeMeters>
            <DistanceMeters>NAN</DistanceMeters>
          </Trackpoint>
          <Trackpoint>
            <Time>2019-10-07T09:01:49.000Z</Time>
            <Position>
              <LatitudeDegrees>40.86762039922177791595458984375</LatitudeDegrees>
              <LongitudeDegrees>-5.65771683119237422943115234375</LongitudeDegrees>
            </Position>
            <AltitudeMeters>848.79998779296875</AltitudeMeters>
            <DistanceMeters>NAN</DistanceMeters>
          </Trackpoint>
          <Trackpoint>
            <Time>2019-10-07T09:01:56.000Z</Time>
            <Position>
              <LatitudeDegrees>40.86735201068222522735595703125</LatitudeDegrees>
              <LongitudeDegrees>-5.6576245464384555816650390625</LongitudeDegrees>
            </Position>
            <AltitudeMeters>849.79998779296875</AltitudeMeters>
            <DistanceMeters>NAN</DistanceMeters>
          </Trackpoint>
          <Trackpoint>
            <Time>2019-10-07T09:02:03.000Z</Time>
            <Position>
              <LatitudeDegrees>40.8670811913907527923583984375</LatitudeDegrees>
              <LongitudeDegrees>-5.6575306691229343414306640625</LongitudeDegrees>
            </Position>
            <AltitudeMeters>850.4000244140625</AltitudeMeters>
            <DistanceMeters>NAN</DistanceMeters>
          </Trackpoint>
          <Trackpoint>
            <Time>2019-10-07T09:02:05.000Z</Time>
            <Position>
              <LatitudeDegrees>40.86700499989092350006103515625</LatitudeDegrees>
              <LongitudeDegrees>-5.65750904381275177001953125</LongitudeDegrees>
            </Position>
            <AltitudeMeters>850.79998779296875</AltitudeMeters>
            <DistanceMeters>NAN</DistanceMeters>
          </Trackpoint>
          <Trackpoint>
            <Time>2019-10-07T09:02:10.000Z</Time>
            <Position>
              <LatitudeDegrees>40.86681623943150043487548828125</LatitudeDegrees>
              <LongitudeDegrees>-5.65744291059672832489013671875</LongitudeDegrees>
            </Position>
            <AltitudeMeters>851.5999755859375</AltitudeMeters>
            <DistanceMeters>NAN</DistanceMeters>
          </Trackpoint>
          <Trackpoint>
            <Time>2019-10-07T09:02:11.000Z</Time>
            <Position>
              <LatitudeDegrees>40.86677818559110164642333984375</LatitudeDegrees>
              <LongitudeDegrees>-5.65742698498070240020751953125</LongitudeDegrees>
            </Position>
            <AltitudeMeters>851.5999755859375</AltitudeMeters>
            <DistanceMeters>NAN</DistanceMeters>
          </Trackpoint>
          <Trackpoint>
            <Time>2019-10-07T09:02:12.000Z</Time>
            <Position>
              <LatitudeDegrees>40.8667402155697345733642578125</LatitudeDegrees>
              <LongitudeDegrees>-5.65741390921175479888916015625</LongitudeDegrees>
            </Position>
            <AltitudeMeters>852</AltitudeMeters>
            <DistanceMeters>NAN</DistanceMeters>
          </Trackpoint>
          <Trackpoint>
            <Time>2019-10-07T09:02:16.000Z</Time>
            <Position>
              <LatitudeDegrees>40.866596214473247528076171875</LatitudeDegrees>
              <LongitudeDegrees>-5.6573694013059139251708984375</LongitudeDegrees>
            </Position>
            <AltitudeMeters>851.79998779296875</AltitudeMeters>
            <DistanceMeters>NAN</DistanceMeters>
          </Trackpoint>
          <Trackpoint>
            <Time>2019-10-07T09:02:20.000Z</Time>
            <Position>
              <LatitudeDegrees>40.8664605952799320220947265625</LatitudeDegrees>
              <LongitudeDegrees>-5.6573197804391384124755859375</LongitudeDegrees>
            </Position>
            <AltitudeMeters>853</AltitudeMeters>
            <DistanceMeters>NAN</DistanceMeters>
          </Trackpoint>
          <Trackpoint>
            <Time>2019-10-07T09:02:21.000Z</Time>
            <Position>
              <LatitudeDegrees>40.86642690002918243408203125</LatitudeDegrees>
              <LongitudeDegrees>-5.65730997361242771148681640625</LongitudeDegrees>
            </Position>
            <AltitudeMeters>853</AltitudeMeters>
            <DistanceMeters>NAN</DistanceMeters>
          </Trackpoint>
          <Trackpoint>
            <Time>2019-10-07T09:02:28.000Z</Time>
            <Position>
              <LatitudeDegrees>40.8661890216171741485595703125</LatitudeDegrees>
              <LongitudeDegrees>-5.657225735485553741455078125</LongitudeDegrees>
            </Position>
            <AltitudeMeters>854</AltitudeMeters>
            <DistanceMeters>NAN</DistanceMeters>
          </Trackpoint>
          <Trackpoint>
            <Time>2019-10-07T09:02:30.000Z</Time>
            <Position>
              <LatitudeDegrees>40.86612045764923095703125</LatitudeDegrees>
              <LongitudeDegrees>-5.6571984104812145233154296875</LongitudeDegrees>
            </Position>
            <AltitudeMeters>854.20001220703125</AltitudeMeters>
            <DistanceMeters>NAN</DistanceMeters>
          </Trackpoint>
          <Trackpoint>
            <Time>2019-10-07T09:02:32.000Z</Time>
            <Position>
              <LatitudeDegrees>40.86605080403387546539306640625</LatitudeDegrees>
              <LongitudeDegrees>-5.65717468969523906707763671875</LongitudeDegrees>
            </Position>
            <AltitudeMeters>854.20001220703125</AltitudeMeters>
            <DistanceMeters>NAN</DistanceMeters>
          </Trackpoint>
          <Trackpoint>
            <Time>2019-10-07T09:02:37.000Z</Time>
            <Position>
              <LatitudeDegrees>40.86587838828563690185546875</LatitudeDegrees>
              <LongitudeDegrees>-5.6570984981954097747802734375</LongitudeDegrees>
            </Position>
            <AltitudeMeters>855.20001220703125</AltitudeMeters>
            <DistanceMeters>NAN</DistanceMeters>
          </Trackpoint>
          <Trackpoint>
            <Time>2019-10-07T09:02:40.000Z</Time>
            <Position>
              <LatitudeDegrees>40.865774787962436676025390625</LatitudeDegrees>
              <LongitudeDegrees>-5.65705038607120513916015625</LongitudeDegrees>
            </Position>
            <AltitudeMeters>855.20001220703125</AltitudeMeters>
            <DistanceMeters>NAN</DistanceMeters>
          </Trackpoint>
          <Trackpoint>
            <Time>2019-10-07T09:02:45.000Z</Time>
            <Position>
              <LatitudeDegrees>40.86560740135610103607177734375</LatitudeDegrees>
              <LongitudeDegrees>-5.6569613702595233917236328125</LongitudeDegrees>
            </Position>
            <AltitudeMeters>855.79998779296875</AltitudeMeters>
            <DistanceMeters>NAN</DistanceMeters>
          </Trackpoint>
          <Trackpoint>
            <Time>2019-10-07T09:02:50.000Z</Time>
            <Position>
              <LatitudeDegrees>40.86544093675911426544189453125</LatitudeDegrees>
              <LongitudeDegrees>-5.65685600973665714263916015625</LongitudeDegrees>
            </Position>
            <AltitudeMeters>856</AltitudeMeters>
            <DistanceMeters>NAN</DistanceMeters>
          </Trackpoint>
          <Trackpoint>
            <Time>2019-10-07T09:02:53.000Z</Time>
            <Position>
              <LatitudeDegrees>40.865339934825897216796875</LatitudeDegrees>
              <LongitudeDegrees>-5.65679415129125118255615234375</LongitudeDegrees>
            </Position>
            <AltitudeMeters>856</AltitudeMeters>
            <DistanceMeters>NAN</DistanceMeters>
          </Trackpoint>
          <Trackpoint>
            <Time>2019-10-07T09:02:56.000Z</Time>
            <Position>
              <LatitudeDegrees>40.86523599922657012939453125</LatitudeDegrees>
              <LongitudeDegrees>-5.65672592259943485260009765625</LongitudeDegrees>
            </Position>
            <AltitudeMeters>856.20001220703125</AltitudeMeters>
            <DistanceMeters>NAN</DistanceMeters>
          </Trackpoint>
          <Trackpoint>
            <Time>2019-10-07T09:03:00.000Z</Time>
            <Position>
              <LatitudeDegrees>40.86510096676647663116455078125</LatitudeDegrees>
              <LongitudeDegrees>-5.65662265755236148834228515625</LongitudeDegrees>
            </Position>
            <AltitudeMeters>856.5999755859375</AltitudeMeters>
            <DistanceMeters>NAN</DistanceMeters>
          </Trackpoint>
          <Trackpoint>
            <Time>2019-10-07T09:03:06.000Z</Time>
            <Position>
              <LatitudeDegrees>40.86489393375813961029052734375</LatitudeDegrees>
              <LongitudeDegrees>-5.65645853988826274871826171875</LongitudeDegrees>
            </Position>
            <AltitudeMeters>857</AltitudeMeters>
            <DistanceMeters>NAN</DistanceMeters>
          </Trackpoint>
          <Trackpoint>
            <Time>2019-10-07T09:03:10.000Z</Time>
            <Position>
              <LatitudeDegrees>40.86476116441190242767333984375</LatitudeDegrees>
              <LongitudeDegrees>-5.65634169615805149078369140625</LongitudeDegrees>
            </Position>
            <AltitudeMeters>857</AltitudeMeters>
            <DistanceMeters>NAN</DistanceMeters>
          </Trackpoint>
          <Trackpoint>
            <Time>2019-10-07T09:03:15.000Z</Time>
            <Position>
              <LatitudeDegrees>40.86459050886332988739013671875</LatitudeDegrees>
              <LongitudeDegrees>-5.65617674030363559722900390625</LongitudeDegrees>
            </Position>
            <AltitudeMeters>857.4000244140625</AltitudeMeters>
            <DistanceMeters>NAN</DistanceMeters>
          </Trackpoint>
          <Trackpoint>
            <Time>2019-10-07T09:03:20.000Z</Time>
            <Position>
              <LatitudeDegrees>40.86441583000123500823974609375</LatitudeDegrees>
              <LongitudeDegrees>-5.6559867225587368011474609375</LongitudeDegrees>
            </Position>
            <AltitudeMeters>857</AltitudeMeters>
            <DistanceMeters>NAN</DistanceMeters>
          </Trackpoint>
          <Trackpoint>
            <Time>2019-10-07T09:03:24.000Z</Time>
            <Position>
              <LatitudeDegrees>40.86427350528538227081298828125</LatitudeDegrees>
              <LongitudeDegrees>-5.655820257961750030517578125</LongitudeDegrees>
            </Position>
            <AltitudeMeters>856.79998779296875</AltitudeMeters>
            <DistanceMeters>NAN</DistanceMeters>
          </Trackpoint>
          <Trackpoint>
            <Time>2019-10-07T09:03:28.000Z</Time>
            <Position>
              <LatitudeDegrees>40.864129923284053802490234375</LatitudeDegrees>
              <LongitudeDegrees>-5.65565320663154125213623046875</LongitudeDegrees>
            </Position>
            <AltitudeMeters>856.5999755859375</AltitudeMeters>
            <DistanceMeters>NAN</DistanceMeters>
          </Trackpoint>
          <Trackpoint>
            <Time>2019-10-07T09:03:31.000Z</Time>
            <Position>
              <LatitudeDegrees>40.8640243113040924072265625</LatitudeDegrees>
              <LongitudeDegrees>-5.6555230356752872467041015625</LongitudeDegrees>
            </Position>
            <AltitudeMeters>856.20001220703125</AltitudeMeters>
            <DistanceMeters>NAN</DistanceMeters>
          </Trackpoint>
          <Trackpoint>
            <Time>2019-10-07T09:03:35.000Z</Time>
            <Position>
              <LatitudeDegrees>40.86388257332146167755126953125</LatitudeDegrees>
              <LongitudeDegrees>-5.65534542314708232879638671875</LongitudeDegrees>
            </Position>
            <AltitudeMeters>856.4000244140625</AltitudeMeters>
            <DistanceMeters>NAN</DistanceMeters>
          </Trackpoint>
          <Trackpoint>
            <Time>2019-10-07T09:03:38.000Z</Time>
            <Position>
              <LatitudeDegrees>40.86376941762864589691162109375</LatitudeDegrees>
              <LongitudeDegrees>-5.655204355716705322265625</LongitudeDegrees>
            </Position>
            <AltitudeMeters>855.5999755859375</AltitudeMeters>
            <DistanceMeters>NAN</DistanceMeters>
          </Trackpoint>
          <Trackpoint>
            <Time>2019-10-07T09:03:40.000Z</Time>
            <Position>
              <LatitudeDegrees>40.8636902086436748504638671875</LatitudeDegrees>
              <LongitudeDegrees>-5.65510712563991546630859375</LongitudeDegrees>
            </Position>
            <AltitudeMeters>855.5999755859375</AltitudeMeters>
            <DistanceMeters>NAN</DistanceMeters>
          </Trackpoint>
          <Trackpoint>
            <Time>2019-10-07T09:03:44.000Z</Time>
            <Position>
              <LatitudeDegrees>40.8635262586176395416259765625</LatitudeDegrees>
              <LongitudeDegrees>-5.6549106538295745849609375</LongitudeDegrees>
            </Position>
            <AltitudeMeters>855.5999755859375</AltitudeMeters>
            <DistanceMeters>NAN</DistanceMeters>
          </Trackpoint>
          <Trackpoint>
            <Time>2019-10-07T09:03:46.000Z</Time>
            <Position>
              <LatitudeDegrees>40.86343816481530666351318359375</LatitudeDegrees>
              <LongitudeDegrees>-5.6548078916966915130615234375</LongitudeDegrees>
            </Position>
            <AltitudeMeters>855.20001220703125</AltitudeMeters>
            <DistanceMeters>NAN</DistanceMeters>
          </Trackpoint>
          <Trackpoint>
            <Time>2019-10-07T09:03:48.000Z</Time>
            <Position>
              <LatitudeDegrees>40.86334881372749805450439453125</LatitudeDegrees>
              <LongitudeDegrees>-5.654707811772823333740234375</LongitudeDegrees>
            </Position>
            <AltitudeMeters>855</AltitudeMeters>
            <DistanceMeters>NAN</DistanceMeters>
          </Trackpoint>
          <Trackpoint>
            <Time>2019-10-07T09:03:49.000Z</Time>
            <Position>
              <LatitudeDegrees>40.86330388672649860382080078125</LatitudeDegrees>
              <LongitudeDegrees>-5.6546583585441112518310546875</LongitudeDegrees>
            </Position>
            <AltitudeMeters>854.5999755859375</AltitudeMeters>
            <DistanceMeters>NAN</DistanceMeters>
          </Trackpoint>
          <Trackpoint>
            <Time>2019-10-07T09:03:53.000Z</Time>
            <Position>
              <LatitudeDegrees>40.86311303079128265380859375</LatitudeDegrees>
              <LongitudeDegrees>-5.654453337192535400390625</LongitudeDegrees>
            </Position>
            <AltitudeMeters>854.20001220703125</AltitudeMeters>
            <DistanceMeters>NAN</DistanceMeters>
          </Trackpoint>
          <Trackpoint>
            <Time>2019-10-07T09:03:56.000Z</Time>
            <Position>
              <LatitudeDegrees>40.86295478045940399169921875</LatitudeDegrees>
              <LongitudeDegrees>-5.65430254675447940826416015625</LongitudeDegrees>
            </Position>
            <AltitudeMeters>853.4000244140625</AltitudeMeters>
            <DistanceMeters>NAN</DistanceMeters>
          </Trackpoint>
          <Trackpoint>
            <Time>2019-10-07T09:03:59.000Z</Time>
            <Position>
              <LatitudeDegrees>40.8627856336534023284912109375</LatitudeDegrees>
              <LongitudeDegrees>-5.654156617820262908935546875</LongitudeDegrees>
            </Position>
            <AltitudeMeters>853</AltitudeMeters>
            <DistanceMeters>NAN</DistanceMeters>
          </Trackpoint>
          <Trackpoint>
            <Time>2019-10-07T09:04:02.000Z</Time>
            <Position>
              <LatitudeDegrees>40.86260701529681682586669921875</LatitudeDegrees>
              <LongitudeDegrees>-5.654017813503742218017578125</LongitudeDegrees>
            </Position>
            <AltitudeMeters>852.79998779296875</AltitudeMeters>
            <DistanceMeters>NAN</DistanceMeters>
          </Trackpoint>
          <Trackpoint>
            <Time>2019-10-07T09:04:03.000Z</Time>
            <Position>
              <LatitudeDegrees>40.8625492639839649200439453125</LatitudeDegrees>
              <LongitudeDegrees>-5.65397514961659908294677734375</LongitudeDegrees>
            </Position>
            <AltitudeMeters>852.79998779296875</AltitudeMeters>
            <DistanceMeters>NAN</DistanceMeters>
          </Trackpoint>
          <Trackpoint>
            <Time>2019-10-07T09:04:04.000Z</Time>
            <Position>
              <LatitudeDegrees>40.86249033920466899871826171875</LatitudeDegrees>
              <LongitudeDegrees>-5.65393139608204364776611328125</LongitudeDegrees>
            </Position>
            <AltitudeMeters>852.5999755859375</AltitudeMeters>
            <DistanceMeters>NAN</DistanceMeters>
          </Trackpoint>
          <Trackpoint>
            <Time>2019-10-07T09:04:05.000Z</Time>
            <Position>
              <LatitudeDegrees>40.86242982186377048492431640625</LatitudeDegrees>
              <LongitudeDegrees>-5.6538929231464862823486328125</LongitudeDegrees>
            </Position>
            <AltitudeMeters>852.5999755859375</AltitudeMeters>
            <DistanceMeters>NAN</DistanceMeters>
          </Trackpoint>
          <Trackpoint>
            <Time>2019-10-07T09:04:11.000Z</Time>
            <Position>
              <LatitudeDegrees>40.86207744665443897247314453125</LatitudeDegrees>
              <LongitudeDegrees>-5.65367407165467739105224609375</LongitudeDegrees>
            </Position>
            <AltitudeMeters>852.79998779296875</AltitudeMeters>
            <DistanceMeters>NAN</DistanceMeters>
          </Trackpoint>
          <Trackpoint>
            <Time>2019-10-07T09:04:14.000Z</Time>
            <Position>
              <LatitudeDegrees>40.8619058690965175628662109375</LatitudeDegrees>
              <LongitudeDegrees>-5.653578937053680419921875</LongitudeDegrees>
            </Position>
            <AltitudeMeters>853.20001220703125</AltitudeMeters>
            <DistanceMeters>NAN</DistanceMeters>
          </Trackpoint>
          <Trackpoint>
            <Time>2019-10-07T09:04:19.000Z</Time>
            <Position>
              <LatitudeDegrees>40.86164477281272411346435546875</LatitudeDegrees>
              <LongitudeDegrees>-5.65343074500560760498046875</LongitudeDegrees>
            </Position>
            <AltitudeMeters>853.5999755859375</AltitudeMeters>
            <DistanceMeters>NAN</DistanceMeters>
          </Trackpoint>
          <Trackpoint>
            <Time>2019-10-07T09:04:21.000Z</Time>
            <Position>
              <LatitudeDegrees>40.86154938675463199615478515625</LatitudeDegrees>
              <LongitudeDegrees>-5.65337684936821460723876953125</LongitudeDegrees>
            </Position>
            <AltitudeMeters>854.4000244140625</AltitudeMeters>
            <DistanceMeters>NAN</DistanceMeters>
          </Trackpoint>
          <Trackpoint>
            <Time>2019-10-07T09:04:25.000Z</Time>
            <Position>
              <LatitudeDegrees>40.86137101985514163970947265625</LatitudeDegrees>
              <LongitudeDegrees>-5.65327308140695095062255859375</LongitudeDegrees>
            </Position>
            <AltitudeMeters>855.20001220703125</AltitudeMeters>
            <DistanceMeters>NAN</DistanceMeters>
          </Trackpoint>
          <Trackpoint>
            <Time>2019-10-07T09:04:26.000Z</Time>
            <Position>
              <LatitudeDegrees>40.861327350139617919921875</LatitudeDegrees>
              <LongitudeDegrees>-5.653249360620975494384765625</LongitudeDegrees>
            </Position>
            <AltitudeMeters>855.5999755859375</AltitudeMeters>
            <DistanceMeters>NAN</DistanceMeters>
          </Trackpoint>
          <Trackpoint>
            <Time>2019-10-07T09:04:27.000Z</Time>
            <Position>
              <LatitudeDegrees>40.86128384806215763092041015625</LatitudeDegrees>
              <LongitudeDegrees>-5.65322681330144405364990234375</LongitudeDegrees>
            </Position>
            <AltitudeMeters>855.4000244140625</AltitudeMeters>
            <DistanceMeters>NAN</DistanceMeters>
          </Trackpoint>
          <Trackpoint>
            <Time>2019-10-07T09:04:30.000Z</Time>
            <Position>
              <LatitudeDegrees>40.8611528389155864715576171875</LatitudeDegrees>
              <LongitudeDegrees>-5.653150789439678192138671875</LongitudeDegrees>
            </Position>
            <AltitudeMeters>856</AltitudeMeters>
            <DistanceMeters>NAN</DistanceMeters>
          </Trackpoint>
          <Trackpoint>
            <Time>2019-10-07T09:04:33.000Z</Time>
            <Position>
              <LatitudeDegrees>40.861026607453823089599609375</LatitudeDegrees>
              <LongitudeDegrees>-5.65308113582432270050048828125</LongitudeDegrees>
            </Position>
            <AltitudeMeters>856.4000244140625</AltitudeMeters>
            <DistanceMeters>NAN</DistanceMeters>
          </Trackpoint>
          <Trackpoint>
            <Time>2019-10-07T09:04:36.000Z</Time>
            <Position>
              <LatitudeDegrees>40.860884450376033782958984375</LatitudeDegrees>
              <LongitudeDegrees>-5.6530000828206539154052734375</LongitudeDegrees>
            </Position>
            <AltitudeMeters>856.20001220703125</AltitudeMeters>
            <DistanceMeters>NAN</DistanceMeters>
          </Trackpoint>
          <Trackpoint>
            <Time>2019-10-07T09:04:39.000Z</Time>
            <Position>
              <LatitudeDegrees>40.8607461489737033843994140625</LatitudeDegrees>
              <LongitudeDegrees>-5.65291986800730228424072265625</LongitudeDegrees>
            </Position>
            <AltitudeMeters>855.79998779296875</AltitudeMeters>
            <DistanceMeters>NAN</DistanceMeters>
          </Trackpoint>
          <Trackpoint>
            <Time>2019-10-07T09:04:43.000Z</Time>
            <Position>
              <LatitudeDegrees>40.86055831052362918853759765625</LatitudeDegrees>
              <LongitudeDegrees>-5.65281157381832599639892578125</LongitudeDegrees>
            </Position>
            <AltitudeMeters>856.20001220703125</AltitudeMeters>
            <DistanceMeters>NAN</DistanceMeters>
          </Trackpoint>
          <Trackpoint>
            <Time>2019-10-07T09:04:44.000Z</Time>
            <Position>
              <LatitudeDegrees>40.86051472462713718414306640625</LatitudeDegrees>
              <LongitudeDegrees>-5.65278793685138225555419921875</LongitudeDegrees>
            </Position>
            <AltitudeMeters>855.79998779296875</AltitudeMeters>
            <DistanceMeters>NAN</DistanceMeters>
          </Trackpoint>
          <Trackpoint>
            <Time>2019-10-07T09:04:55.000Z</Time>
            <Position>
              <LatitudeDegrees>40.859999321401119232177734375</LatitudeDegrees>
              <LongitudeDegrees>-5.6524867750704288482666015625</LongitudeDegrees>
            </Position>
            <AltitudeMeters>855.79998779296875</AltitudeMeters>
            <DistanceMeters>NAN</DistanceMeters>
          </Trackpoint>
          <Trackpoint>
            <Time>2019-10-07T09:04:56.000Z</Time>
            <Position>
              <LatitudeDegrees>40.85995313711464405059814453125</LatitudeDegrees>
              <LongitudeDegrees>-5.652459450066089630126953125</LongitudeDegrees>
            </Position>
            <AltitudeMeters>856</AltitudeMeters>
            <DistanceMeters>NAN</DistanceMeters>
          </Trackpoint>
          <Trackpoint>
            <Time>2019-10-07T09:05:07.000Z</Time>
            <Position>
              <LatitudeDegrees>40.85942842997610569000244140625</LatitudeDegrees>
              <LongitudeDegrees>-5.65216147340834140777587890625</LongitudeDegrees>
            </Position>
            <AltitudeMeters>856.20001220703125</AltitudeMeters>
            <DistanceMeters>NAN</DistanceMeters>
          </Trackpoint>
          <Trackpoint>
            <Time>2019-10-07T09:05:17.000Z</Time>
            <Position>
              <LatitudeDegrees>40.85894596762955188751220703125</LatitudeDegrees>
              <LongitudeDegrees>-5.65188252367079257965087890625</LongitudeDegrees>
            </Position>
            <AltitudeMeters>856.5999755859375</AltitudeMeters>
            <DistanceMeters>NAN</DistanceMeters>
          </Trackpoint>
          <Trackpoint>
            <Time>2019-10-07T09:05:19.000Z</Time>
            <Position>
              <LatitudeDegrees>40.8588454686105251312255859375</LatitudeDegrees>
              <LongitudeDegrees>-5.65182703547179698944091796875</LongitudeDegrees>
            </Position>
            <AltitudeMeters>856.20001220703125</AltitudeMeters>
            <DistanceMeters>NAN</DistanceMeters>
          </Trackpoint>
          <Trackpoint>
            <Time>2019-10-07T09:05:29.000Z</Time>
            <Position>
              <LatitudeDegrees>40.85836141370236873626708984375</LatitudeDegrees>
              <LongitudeDegrees>-5.65155747346580028533935546875</LongitudeDegrees>
            </Position>
            <AltitudeMeters>856.79998779296875</AltitudeMeters>
            <DistanceMeters>NAN</DistanceMeters>
          </Trackpoint>
          <Trackpoint>
            <Time>2019-10-07T09:05:37.000Z</Time>
            <Position>
              <LatitudeDegrees>40.85798338986933231353759765625</LatitudeDegrees>
              <LongitudeDegrees>-5.65134138800203800201416015625</LongitudeDegrees>
            </Position>
            <AltitudeMeters>857.5999755859375</AltitudeMeters>
            <DistanceMeters>NAN</DistanceMeters>
          </Trackpoint>
          <Trackpoint>
            <Time>2019-10-07T09:05:41.000Z</Time>
            <Position>
              <LatitudeDegrees>40.8577903546392917633056640625</LatitudeDegrees>
              <LongitudeDegrees>-5.6512318365275859832763671875</LongitudeDegrees>
            </Position>
            <AltitudeMeters>857.20001220703125</AltitudeMeters>
            <DistanceMeters>NAN</DistanceMeters>
          </Trackpoint>
          <Trackpoint>
            <Time>2019-10-07T09:05:52.000Z</Time>
            <Position>
              <LatitudeDegrees>40.85727293975651264190673828125</LatitudeDegrees>
              <LongitudeDegrees>-5.6509401462972164154052734375</LongitudeDegrees>
            </Position>
            <AltitudeMeters>858.4000244140625</AltitudeMeters>
            <DistanceMeters>NAN</DistanceMeters>
          </Trackpoint>
          <Trackpoint>
            <Time>2019-10-07T09:05:54.000Z</Time>
            <Position>
              <LatitudeDegrees>40.857184343039989471435546875</LatitudeDegrees>
              <LongitudeDegrees>-5.65089429728686809539794921875</LongitudeDegrees>
            </Position>
            <AltitudeMeters>858.5999755859375</AltitudeMeters>
            <DistanceMeters>NAN</DistanceMeters>
          </Trackpoint>
          <Trackpoint>
            <Time>2019-10-07T09:06:00.000Z</Time>
            <Position>
              <LatitudeDegrees>40.85694252513349056243896484375</LatitudeDegrees>
              <LongitudeDegrees>-5.6507647968828678131103515625</LongitudeDegrees>
            </Position>
            <AltitudeMeters>859.4000244140625</AltitudeMeters>
            <DistanceMeters>NAN</DistanceMeters>
          </Trackpoint>
          <Trackpoint>
            <Time>2019-10-07T09:06:02.000Z</Time>
            <Position>
              <LatitudeDegrees>40.85686624981462955474853515625</LatitudeDegrees>
              <LongitudeDegrees>-5.65072305500507354736328125</LongitudeDegrees>
            </Position>
            <AltitudeMeters>860</AltitudeMeters>
            <DistanceMeters>NAN</DistanceMeters>
          </Trackpoint>
          <Trackpoint>
            <Time>2019-10-07T09:06:08.000Z</Time>
            <Position>
              <LatitudeDegrees>40.85664329119026660919189453125</LatitudeDegrees>
              <LongitudeDegrees>-5.65060369670391082763671875</LongitudeDegrees>
            </Position>
            <AltitudeMeters>860.4000244140625</AltitudeMeters>
            <DistanceMeters>NAN</DistanceMeters>
          </Trackpoint>
          <Trackpoint>
            <Time>2019-10-07T09:06:11.000Z</Time>
            <Position>
              <LatitudeDegrees>40.85653114132583141326904296875</LatitudeDegrees>
              <LongitudeDegrees>-5.65053999423980712890625</LongitudeDegrees>
            </Position>
            <AltitudeMeters>861</AltitudeMeters>
            <DistanceMeters>NAN</DistanceMeters>
          </Trackpoint>
          <Trackpoint>
            <Time>2019-10-07T09:06:16.000Z</Time>
            <Position>
              <LatitudeDegrees>40.8563365973532199859619140625</LatitudeDegrees>
              <LongitudeDegrees>-5.65043069422245025634765625</LongitudeDegrees>
            </Position>
            <AltitudeMeters>861</AltitudeMeters>
            <DistanceMeters>NAN</DistanceMeters>
          </Trackpoint>
          <Trackpoint>
            <Time>2019-10-07T09:06:24.000Z</Time>
            <Position>
              <LatitudeDegrees>40.856016911566257476806640625</LatitudeDegrees>
              <LongitudeDegrees>-5.6502360664308071136474609375</LongitudeDegrees>
            </Position>
            <AltitudeMeters>861.79998779296875</AltitudeMeters>
            <DistanceMeters>NAN</DistanceMeters>
          </Trackpoint>
          <Trackpoint>
            <Time>2019-10-07T09:06:34.000Z</Time>
            <Position>
              <LatitudeDegrees>40.8556075394153594970703125</LatitudeDegrees>
              <LongitudeDegrees>-5.64997077919542789459228515625</LongitudeDegrees>
            </Position>
            <AltitudeMeters>861.20001220703125</AltitudeMeters>
            <DistanceMeters>NAN</DistanceMeters>
          </Trackpoint>
          <Trackpoint>
            <Time>2019-10-07T09:06:42.000Z</Time>
            <Position>
              <LatitudeDegrees>40.8552234806120395660400390625</LatitudeDegrees>
              <LongitudeDegrees>-5.64970825798809528350830078125</LongitudeDegrees>
            </Position>
            <AltitudeMeters>860.20001220703125</AltitudeMeters>
            <DistanceMeters>NAN</DistanceMeters>
          </Trackpoint>
          <Trackpoint>
            <Time>2019-10-07T09:06:43.000Z</Time>
            <Position>
              <LatitudeDegrees>40.85517059080302715301513671875</LatitudeDegrees>
              <LongitudeDegrees>-5.64967188052833080291748046875</LongitudeDegrees>
            </Position>
            <AltitudeMeters>859.79998779296875</AltitudeMeters>
            <DistanceMeters>NAN</DistanceMeters>
          </Trackpoint>
          <Trackpoint>
            <Time>2019-10-07T09:06:49.000Z</Time>
            <Position>
              <LatitudeDegrees>40.85483179427683353424072265625</LatitudeDegrees>
              <LongitudeDegrees>-5.64943584613502025604248046875</LongitudeDegrees>
            </Position>
            <AltitudeMeters>858.20001220703125</AltitudeMeters>
            <DistanceMeters>NAN</DistanceMeters>
          </Trackpoint>
          <Trackpoint>
            <Time>2019-10-07T09:06:50.000Z</Time>
            <Position>
              <LatitudeDegrees>40.85477446205914020538330078125</LatitudeDegrees>
              <LongitudeDegrees>-5.64939578063786029815673828125</LongitudeDegrees>
            </Position>
            <AltitudeMeters>858.20001220703125</AltitudeMeters>
            <DistanceMeters>NAN</DistanceMeters>
          </Trackpoint>
          <Trackpoint>
            <Time>2019-10-07T09:06:53.000Z</Time>
            <Position>
              <LatitudeDegrees>40.85460179485380649566650390625</LatitudeDegrees>
              <LongitudeDegrees>-5.6492691300809383392333984375</LongitudeDegrees>
            </Position>
            <AltitudeMeters>857.20001220703125</AltitudeMeters>
            <DistanceMeters>NAN</DistanceMeters>
          </Trackpoint>
          <Trackpoint>
            <Time>2019-10-07T09:06:54.000Z</Time>
            <Position>
              <LatitudeDegrees>40.85454362444579601287841796875</LatitudeDegrees>
              <LongitudeDegrees>-5.64922713674604892730712890625</LongitudeDegrees>
            </Position>
            <AltitudeMeters>857.4000244140625</AltitudeMeters>
            <DistanceMeters>NAN</DistanceMeters>
          </Trackpoint>
          <Trackpoint>
            <Time>2019-10-07T09:06:56.000Z</Time>
            <Position>
              <LatitudeDegrees>40.85442426614463329315185546875</LatitudeDegrees>
              <LongitudeDegrees>-5.649142898619174957275390625</LongitudeDegrees>
            </Position>
            <AltitudeMeters>857</AltitudeMeters>
            <DistanceMeters>NAN</DistanceMeters>
          </Trackpoint>
          <Trackpoint>
            <Time>2019-10-07T09:06:58.000Z</Time>
            <Position>
              <LatitudeDegrees>40.85430608130991458892822265625</LatitudeDegrees>
              <LongitudeDegrees>-5.64906368963420391082763671875</LongitudeDegrees>
            </Position>
            <AltitudeMeters>857</AltitudeMeters>
            <DistanceMeters>NAN</DistanceMeters>
          </Trackpoint>
          <Trackpoint>
            <Time>2019-10-07T09:06:59.000Z</Time>
            <Position>
              <LatitudeDegrees>40.854247994720935821533203125</LatitudeDegrees>
              <LongitudeDegrees>-5.649023540318012237548828125</LongitudeDegrees>
            </Position>
            <AltitudeMeters>857</AltitudeMeters>
            <DistanceMeters>NAN</DistanceMeters>
          </Trackpoint>
          <Trackpoint>
            <Time>2019-10-07T09:07:01.000Z</Time>
            <Position>
              <LatitudeDegrees>40.854136012494564056396484375</LatitudeDegrees>
              <LongitudeDegrees>-5.6489445827901363372802734375</LongitudeDegrees>
            </Position>
            <AltitudeMeters>857</AltitudeMeters>
            <DistanceMeters>NAN</DistanceMeters>
          </Trackpoint>
          <Trackpoint>
            <Time>2019-10-07T09:07:04.000Z</Time>
            <Position>
              <LatitudeDegrees>40.85399561561644077301025390625</LatitudeDegrees>
              <LongitudeDegrees>-5.6488480232656002044677734375</LongitudeDegrees>
            </Position>
            <AltitudeMeters>857.79998779296875</AltitudeMeters>
            <DistanceMeters>NAN</DistanceMeters>
          </Trackpoint>
          <Trackpoint>
            <Time>2019-10-07T09:07:08.000Z</Time>
            <Position>
              <LatitudeDegrees>40.85388514213263988494873046875</LatitudeDegrees>
              <LongitudeDegrees>-5.6487816385924816131591796875</LongitudeDegrees>
            </Position>
            <AltitudeMeters>858.20001220703125</AltitudeMeters>
            <DistanceMeters>NAN</DistanceMeters>
          </Trackpoint>
          <Trackpoint>
            <Time>2019-10-07T09:07:13.000Z</Time>
            <Position>
              <LatitudeDegrees>40.85388547740876674652099609375</LatitudeDegrees>
              <LongitudeDegrees>-5.64878155477344989776611328125</LongitudeDegrees>
            </Position>
            <AltitudeMeters>858.5999755859375</AltitudeMeters>
            <DistanceMeters>NAN</DistanceMeters>
          </Trackpoint>
          <Trackpoint>
            <Time>2019-10-07T09:07:16.000Z</Time>
            <Position>
              <LatitudeDegrees>40.85388547740876674652099609375</LatitudeDegrees>
              <LongitudeDegrees>-5.64878155477344989776611328125</LongitudeDegrees>
            </Position>
            <AltitudeMeters>858.5999755859375</AltitudeMeters>
            <DistanceMeters>NAN</DistanceMeters>
          </Trackpoint>
          <Trackpoint>
            <Time>2019-10-07T09:07:20.000Z</Time>
            <Position>
              <LatitudeDegrees>40.85388547740876674652099609375</LatitudeDegrees>
              <LongitudeDegrees>-5.64878155477344989776611328125</LongitudeDegrees>
            </Position>
            <AltitudeMeters>858.79998779296875</AltitudeMeters>
            <DistanceMeters>NAN</DistanceMeters>
          </Trackpoint>
          <Trackpoint>
            <Time>2019-10-07T09:07:30.000Z</Time>
            <Position>
              <LatitudeDegrees>40.85388547740876674652099609375</LatitudeDegrees>
              <LongitudeDegrees>-5.64878155477344989776611328125</LongitudeDegrees>
            </Position>
            <AltitudeMeters>858.79998779296875</AltitudeMeters>
            <DistanceMeters>NAN</DistanceMeters>
          </Trackpoint>
          <Trackpoint>
            <Time>2019-10-07T09:07:32.000Z</Time>
            <Position>
              <LatitudeDegrees>40.85388547740876674652099609375</LatitudeDegrees>
              <LongitudeDegrees>-5.64878155477344989776611328125</LongitudeDegrees>
            </Position>
            <AltitudeMeters>858.79998779296875</AltitudeMeters>
            <DistanceMeters>NAN</DistanceMeters>
          </Trackpoint>
          <Trackpoint>
            <Time>2019-10-07T09:07:34.000Z</Time>
            <Position>
              <LatitudeDegrees>40.85388547740876674652099609375</LatitudeDegrees>
              <LongitudeDegrees>-5.64878155477344989776611328125</LongitudeDegrees>
            </Position>
            <AltitudeMeters>858.5999755859375</AltitudeMeters>
            <DistanceMeters>NAN</DistanceMeters>
          </Trackpoint>
          <Trackpoint>
            <Time>2019-10-07T09:07:35.000Z</Time>
            <Position>
              <LatitudeDegrees>40.85388547740876674652099609375</LatitudeDegrees>
              <LongitudeDegrees>-5.64878155477344989776611328125</LongitudeDegrees>
            </Position>
            <AltitudeMeters>858.5999755859375</AltitudeMeters>
            <DistanceMeters>NAN</DistanceMeters>
          </Trackpoint>
          <Trackpoint>
            <Time>2019-10-07T09:07:38.000Z</Time>
            <Position>
              <LatitudeDegrees>40.85388547740876674652099609375</LatitudeDegrees>
              <LongitudeDegrees>-5.64878155477344989776611328125</LongitudeDegrees>
            </Position>
            <AltitudeMeters>858.79998779296875</AltitudeMeters>
            <DistanceMeters>NAN</DistanceMeters>
          </Trackpoint>
          <Trackpoint>
            <Time>2019-10-07T09:07:41.000Z</Time>
            <Position>
              <LatitudeDegrees>40.85388547740876674652099609375</LatitudeDegrees>
              <LongitudeDegrees>-5.64878155477344989776611328125</LongitudeDegrees>
            </Position>
            <AltitudeMeters>858.79998779296875</AltitudeMeters>
            <DistanceMeters>NAN</DistanceMeters>
          </Trackpoint>
          <Trackpoint>
            <Time>2019-10-07T09:07:45.000Z</Time>
            <Position>
              <LatitudeDegrees>40.85388547740876674652099609375</LatitudeDegrees>
              <LongitudeDegrees>-5.64878155477344989776611328125</LongitudeDegrees>
            </Position>
            <AltitudeMeters>858.79998779296875</AltitudeMeters>
            <DistanceMeters>NAN</DistanceMeters>
          </Trackpoint>
          <Trackpoint>
            <Time>2019-10-07T09:07:51.000Z</Time>
            <Position>
              <LatitudeDegrees>40.85388698615133762359619140625</LatitudeDegrees>
              <LongitudeDegrees>-5.64878323115408420562744140625</LongitudeDegrees>
            </Position>
            <AltitudeMeters>858.5999755859375</AltitudeMeters>
            <DistanceMeters>NAN</DistanceMeters>
          </Trackpoint>
          <Trackpoint>
            <Time>2019-10-07T09:07:55.000Z</Time>
            <Position>
              <LatitudeDegrees>40.85388698615133762359619140625</LatitudeDegrees>
              <LongitudeDegrees>-5.64878323115408420562744140625</LongitudeDegrees>
            </Position>
            <AltitudeMeters>858.79998779296875</AltitudeMeters>
            <DistanceMeters>NAN</DistanceMeters>
          </Trackpoint>
          <Trackpoint>
            <Time>2019-10-07T09:07:57.000Z</Time>
            <Position>
              <LatitudeDegrees>40.85388698615133762359619140625</LatitudeDegrees>
              <LongitudeDegrees>-5.64878323115408420562744140625</LongitudeDegrees>
            </Position>
            <AltitudeMeters>858.5999755859375</AltitudeMeters>
            <DistanceMeters>NAN</DistanceMeters>
          </Trackpoint>
          <Trackpoint>
            <Time>2019-10-07T09:08:03.000Z</Time>
            <Position>
              <LatitudeDegrees>40.85388698615133762359619140625</LatitudeDegrees>
              <LongitudeDegrees>-5.64878323115408420562744140625</LongitudeDegrees>
            </Position>
            <AltitudeMeters>858.79998779296875</AltitudeMeters>
            <DistanceMeters>NAN</DistanceMeters>
          </Trackpoint>
          <Trackpoint>
            <Time>2019-10-07T09:08:05.000Z</Time>
            <Position>
              <LatitudeDegrees>40.85388698615133762359619140625</LatitudeDegrees>
              <LongitudeDegrees>-5.64878323115408420562744140625</LongitudeDegrees>
            </Position>
            <AltitudeMeters>858.79998779296875</AltitudeMeters>
            <DistanceMeters>NAN</DistanceMeters>
          </Trackpoint>
          <Trackpoint>
            <Time>2019-10-07T09:08:26.000Z</Time>
            <Position>
              <LatitudeDegrees>40.85388698615133762359619140625</LatitudeDegrees>
              <LongitudeDegrees>-5.64878323115408420562744140625</LongitudeDegrees>
            </Position>
            <AltitudeMeters>858.5999755859375</AltitudeMeters>
            <DistanceMeters>NAN</DistanceMeters>
          </Trackpoint>
          <Trackpoint>
            <Time>2019-10-07T09:08:32.000Z</Time>
            <Position>
              <LatitudeDegrees>40.85388765670359134674072265625</LatitudeDegrees>
              <LongitudeDegrees>-5.64878256060183048248291015625</LongitudeDegrees>
            </Position>
            <AltitudeMeters>858.5999755859375</AltitudeMeters>
            <DistanceMeters>NAN</DistanceMeters>
          </Trackpoint>
          <Trackpoint>
            <Time>2019-10-07T09:08:47.000Z</Time>
            <Position>
              <LatitudeDegrees>40.85388765670359134674072265625</LatitudeDegrees>
              <LongitudeDegrees>-5.64878256060183048248291015625</LongitudeDegrees>
            </Position>
            <AltitudeMeters>858.79998779296875</AltitudeMeters>
            <DistanceMeters>NAN</DistanceMeters>
          </Trackpoint>
          <Trackpoint>
            <Time>2019-10-07T09:09:00.000Z</Time>
            <Position>
              <LatitudeDegrees>40.85388765670359134674072265625</LatitudeDegrees>
              <LongitudeDegrees>-5.64878256060183048248291015625</LongitudeDegrees>
            </Position>
            <AltitudeMeters>858.79998779296875</AltitudeMeters>
            <DistanceMeters>NAN</DistanceMeters>
          </Trackpoint>
          <Trackpoint>
            <Time>2019-10-07T09:09:07.000Z</Time>
            <Position>
              <LatitudeDegrees>40.85388765670359134674072265625</LatitudeDegrees>
              <LongitudeDegrees>-5.64878256060183048248291015625</LongitudeDegrees>
            </Position>
            <AltitudeMeters>858.79998779296875</AltitudeMeters>
            <DistanceMeters>NAN</DistanceMeters>
          </Trackpoint>
          <Trackpoint>
            <Time>2019-10-07T09:09:25.000Z</Time>
            <Position>
              <LatitudeDegrees>40.853886567056179046630859375</LatitudeDegrees>
              <LongitudeDegrees>-5.64878272823989391326904296875</LongitudeDegrees>
            </Position>
            <AltitudeMeters>858.5999755859375</AltitudeMeters>
            <DistanceMeters>NAN</DistanceMeters>
          </Trackpoint>
          <Trackpoint>
            <Time>2019-10-07T09:09:28.000Z</Time>
            <Position>
              <LatitudeDegrees>40.853886567056179046630859375</LatitudeDegrees>
              <LongitudeDegrees>-5.64878272823989391326904296875</LongitudeDegrees>
            </Position>
            <AltitudeMeters>858.4000244140625</AltitudeMeters>
            <DistanceMeters>NAN</DistanceMeters>
          </Trackpoint>
          <Trackpoint>
            <Time>2019-10-07T09:09:32.000Z</Time>
            <Position>
              <LatitudeDegrees>40.853886567056179046630859375</LatitudeDegrees>
              <LongitudeDegrees>-5.64878272823989391326904296875</LongitudeDegrees>
            </Position>
            <AltitudeMeters>858.5999755859375</AltitudeMeters>
            <DistanceMeters>NAN</DistanceMeters>
          </Trackpoint>
          <Trackpoint>
            <Time>2019-10-07T09:09:37.000Z</Time>
            <Position>
              <LatitudeDegrees>40.853886567056179046630859375</LatitudeDegrees>
              <LongitudeDegrees>-5.64878272823989391326904296875</LongitudeDegrees>
            </Position>
            <AltitudeMeters>858.4000244140625</AltitudeMeters>
            <DistanceMeters>NAN</DistanceMeters>
          </Trackpoint>
          <Trackpoint>
            <Time>2019-10-07T09:09:40.000Z</Time>
            <Position>
              <LatitudeDegrees>40.853886567056179046630859375</LatitudeDegrees>
              <LongitudeDegrees>-5.64878272823989391326904296875</LongitudeDegrees>
            </Position>
            <AltitudeMeters>858.5999755859375</AltitudeMeters>
            <DistanceMeters>NAN</DistanceMeters>
          </Trackpoint>
          <Trackpoint>
            <Time>2019-10-07T09:09:43.000Z</Time>
            <Position>
              <LatitudeDegrees>40.853886567056179046630859375</LatitudeDegrees>
              <LongitudeDegrees>-5.64878272823989391326904296875</LongitudeDegrees>
            </Position>
            <AltitudeMeters>858.5999755859375</AltitudeMeters>
            <DistanceMeters>NAN</DistanceMeters>
          </Trackpoint>
          <Trackpoint>
            <Time>2019-10-07T09:09:45.000Z</Time>
            <Position>
              <LatitudeDegrees>40.853886567056179046630859375</LatitudeDegrees>
              <LongitudeDegrees>-5.64878272823989391326904296875</LongitudeDegrees>
            </Position>
            <AltitudeMeters>858.4000244140625</AltitudeMeters>
            <DistanceMeters>NAN</DistanceMeters>
          </Trackpoint>
          <Trackpoint>
            <Time>2019-10-07T09:10:04.000Z</Time>
            <Position>
              <LatitudeDegrees>40.85388547740876674652099609375</LatitudeDegrees>
              <LongitudeDegrees>-5.64878121949732303619384765625</LongitudeDegrees>
            </Position>
            <AltitudeMeters>858.5999755859375</AltitudeMeters>
            <DistanceMeters>NAN</DistanceMeters>
          </Trackpoint>
          <Trackpoint>
            <Time>2019-10-07T09:10:05.000Z</Time>
            <Position>
              <LatitudeDegrees>40.85388581268489360809326171875</LatitudeDegrees>
              <LongitudeDegrees>-5.6487802974879741668701171875</LongitudeDegrees>
            </Position>
            <AltitudeMeters>858.5999755859375</AltitudeMeters>
            <DistanceMeters>NAN</DistanceMeters>
          </Trackpoint>
          <Trackpoint>
            <Time>2019-10-07T09:10:10.000Z</Time>
            <Position>
              <LatitudeDegrees>40.85388547740876674652099609375</LatitudeDegrees>
              <LongitudeDegrees>-5.64878121949732303619384765625</LongitudeDegrees>
            </Position>
            <AltitudeMeters>858.4000244140625</AltitudeMeters>
            <DistanceMeters>NAN</DistanceMeters>
          </Trackpoint>
          <Trackpoint>
            <Time>2019-10-07T09:10:21.000Z</Time>
            <Position>
              <LatitudeDegrees>40.8538843877613544464111328125</LatitudeDegrees>
              <LongitudeDegrees>-5.64878046512603759765625</LongitudeDegrees>
            </Position>
            <AltitudeMeters>858.20001220703125</AltitudeMeters>
            <DistanceMeters>NAN</DistanceMeters>
          </Trackpoint>
          <Trackpoint>
            <Time>2019-10-07T09:10:22.000Z</Time>
            <Position>
              <LatitudeDegrees>40.8538750000298023223876953125</LatitudeDegrees>
              <LongitudeDegrees>-5.6487709097564220428466796875</LongitudeDegrees>
            </Position>
            <AltitudeMeters>858.4000244140625</AltitudeMeters>
            <DistanceMeters>NAN</DistanceMeters>
          </Trackpoint>
          <Trackpoint>
            <Time>2019-10-07T09:10:27.000Z</Time>
            <Position>
              <LatitudeDegrees>40.85379009135067462921142578125</LatitudeDegrees>
              <LongitudeDegrees>-5.64869932830333709716796875</LongitudeDegrees>
            </Position>
            <AltitudeMeters>858.4000244140625</AltitudeMeters>
            <DistanceMeters>NAN</DistanceMeters>
          </Trackpoint>
          <Trackpoint>
            <Time>2019-10-07T09:10:29.000Z</Time>
            <Position>
              <LatitudeDegrees>40.85373192094266414642333984375</LatitudeDegrees>
              <LongitudeDegrees>-5.64865767024457454681396484375</LongitudeDegrees>
            </Position>
            <AltitudeMeters>858</AltitudeMeters>
            <DistanceMeters>NAN</DistanceMeters>
          </Trackpoint>
          <Trackpoint>
            <Time>2019-10-07T09:10:31.000Z</Time>
            <Position>
              <LatitudeDegrees>40.85366494953632354736328125</LatitudeDegrees>
              <LongitudeDegrees>-5.648611821234226226806640625</LongitudeDegrees>
            </Position>
            <AltitudeMeters>858.20001220703125</AltitudeMeters>
            <DistanceMeters>NAN</DistanceMeters>
          </Trackpoint>
          <Trackpoint>
            <Time>2019-10-07T09:10:33.000Z</Time>
            <Position>
              <LatitudeDegrees>40.85359412245452404022216796875</LatitudeDegrees>
              <LongitudeDegrees>-5.64856446348130702972412109375</LongitudeDegrees>
            </Position>
            <AltitudeMeters>858.5999755859375</AltitudeMeters>
            <DistanceMeters>NAN</DistanceMeters>
          </Trackpoint>
          <Trackpoint>
            <Time>2019-10-07T09:10:35.000Z</Time>
            <Position>
              <LatitudeDegrees>40.8535236306488513946533203125</LatitudeDegrees>
              <LongitudeDegrees>-5.64851786009967327117919921875</LongitudeDegrees>
            </Position>
            <AltitudeMeters>858.79998779296875</AltitudeMeters>
            <DistanceMeters>NAN</DistanceMeters>
          </Trackpoint>
          <Trackpoint>
            <Time>2019-10-07T09:10:37.000Z</Time>
            <Position>
              <LatitudeDegrees>40.85345481522381305694580078125</LatitudeDegrees>
              <LongitudeDegrees>-5.64846731722354888916015625</LongitudeDegrees>
            </Position>
            <AltitudeMeters>859.4000244140625</AltitudeMeters>
            <DistanceMeters>NAN</DistanceMeters>
          </Trackpoint>
          <Trackpoint>
            <Time>2019-10-07T09:10:39.000Z</Time>
            <Position>
              <LatitudeDegrees>40.853387005627155303955078125</LatitudeDegrees>
              <LongitudeDegrees>-5.64841794781386852264404296875</LongitudeDegrees>
            </Position>
            <AltitudeMeters>859.20001220703125</AltitudeMeters>
            <DistanceMeters>NAN</DistanceMeters>
          </Trackpoint>
          <Trackpoint>
            <Time>2019-10-07T09:10:41.000Z</Time>
            <Position>
              <LatitudeDegrees>40.8533177711069583892822265625</LatitudeDegrees>
              <LongitudeDegrees>-5.64837084151804447174072265625</LongitudeDegrees>
            </Position>
            <AltitudeMeters>859.5999755859375</AltitudeMeters>
            <DistanceMeters>NAN</DistanceMeters>
          </Trackpoint>
          <Trackpoint>
            <Time>2019-10-07T09:10:44.000Z</Time>
            <Position>
              <LatitudeDegrees>40.85321425460278987884521484375</LatitudeDegrees>
              <LongitudeDegrees>-5.64829741604626178741455078125</LongitudeDegrees>
            </Position>
            <AltitudeMeters>860.4000244140625</AltitudeMeters>
            <DistanceMeters>NAN</DistanceMeters>
          </Trackpoint>
          <Trackpoint>
            <Time>2019-10-07T09:10:48.000Z</Time>
            <Position>
              <LatitudeDegrees>40.85308265872299671173095703125</LatitudeDegrees>
              <LongitudeDegrees>-5.64820068888366222381591796875</LongitudeDegrees>
            </Position>
            <AltitudeMeters>861.4000244140625</AltitudeMeters>
            <DistanceMeters>NAN</DistanceMeters>
          </Trackpoint>
          <Trackpoint>
            <Time>2019-10-07T09:10:50.000Z</Time>
            <Position>
              <LatitudeDegrees>40.85301929153501987457275390625</LatitudeDegrees>
              <LongitudeDegrees>-5.6481580249965190887451171875</LongitudeDegrees>
            </Position>
            <AltitudeMeters>861.4000244140625</AltitudeMeters>
            <DistanceMeters>NAN</DistanceMeters>
          </Trackpoint>
          <Trackpoint>
            <Time>2019-10-07T09:10:53.000Z</Time>
            <Position>
              <LatitudeDegrees>40.85292457602918148040771484375</LatitudeDegrees>
              <LongitudeDegrees>-5.6480949930846691131591796875</LongitudeDegrees>
            </Position>
            <AltitudeMeters>861.79998779296875</AltitudeMeters>
            <DistanceMeters>NAN</DistanceMeters>
          </Trackpoint>
          <Trackpoint>
            <Time>2019-10-07T09:10:57.000Z</Time>
            <Position>
              <LatitudeDegrees>40.85279549472033977508544921875</LatitudeDegrees>
              <LongitudeDegrees>-5.64800254069268703460693359375</LongitudeDegrees>
            </Position>
            <AltitudeMeters>862.79998779296875</AltitudeMeters>
            <DistanceMeters>NAN</DistanceMeters>
          </Trackpoint>
          <Trackpoint>
            <Time>2019-10-07T09:10:59.000Z</Time>
            <Position>
              <LatitudeDegrees>40.85273422300815582275390625</LatitudeDegrees>
              <LongitudeDegrees>-5.64795409329235553741455078125</LongitudeDegrees>
            </Position>
            <AltitudeMeters>862.79998779296875</AltitudeMeters>
            <DistanceMeters>NAN</DistanceMeters>
          </Trackpoint>
          <Trackpoint>
            <Time>2019-10-07T09:11:03.000Z</Time>
            <Position>
              <LatitudeDegrees>40.85260790772736072540283203125</LatitudeDegrees>
              <LongitudeDegrees>-5.64786113798618316650390625</LongitudeDegrees>
            </Position>
            <AltitudeMeters>863.4000244140625</AltitudeMeters>
            <DistanceMeters>NAN</DistanceMeters>
          </Trackpoint>
          <Trackpoint>
            <Time>2019-10-07T09:11:05.000Z</Time>
            <Position>
              <LatitudeDegrees>40.85254252888262271881103515625</LatitudeDegrees>
              <LongitudeDegrees>-5.64781797118484973907470703125</LongitudeDegrees>
            </Position>
            <AltitudeMeters>863.79998779296875</AltitudeMeters>
            <DistanceMeters>NAN</DistanceMeters>
          </Trackpoint>
          <Trackpoint>
            <Time>2019-10-07T09:11:10.000Z</Time>
            <Position>
              <LatitudeDegrees>40.852379836142063140869140625</LatitudeDegrees>
              <LongitudeDegrees>-5.6477094255387783050537109375</LongitudeDegrees>
            </Position>
            <AltitudeMeters>864.4000244140625</AltitudeMeters>
            <DistanceMeters>NAN</DistanceMeters>
          </Trackpoint>
          <Trackpoint>
            <Time>2019-10-07T09:11:13.000Z</Time>
            <Position>
              <LatitudeDegrees>40.85228227078914642333984375</LatitudeDegrees>
              <LongitudeDegrees>-5.6476390175521373748779296875</LongitudeDegrees>
            </Position>
            <AltitudeMeters>865</AltitudeMeters>
            <DistanceMeters>NAN</DistanceMeters>
          </Trackpoint>
          <Trackpoint>
            <Time>2019-10-07T09:11:19.000Z</Time>
            <Position>
              <LatitudeDegrees>40.85209761746227741241455078125</LatitudeDegrees>
              <LongitudeDegrees>-5.6475045718252658843994140625</LongitudeDegrees>
            </Position>
            <AltitudeMeters>866.20001220703125</AltitudeMeters>
            <DistanceMeters>NAN</DistanceMeters>
          </Trackpoint>
          <Trackpoint>
            <Time>2019-10-07T09:11:25.000Z</Time>
            <Position>
              <LatitudeDegrees>40.85192109458148479461669921875</LatitudeDegrees>
              <LongitudeDegrees>-5.64737834036350250244140625</LongitudeDegrees>
            </Position>
            <AltitudeMeters>867.20001220703125</AltitudeMeters>
            <DistanceMeters>NAN</DistanceMeters>
          </Trackpoint>
          <Trackpoint>
            <Time>2019-10-07T09:11:28.000Z</Time>
            <Position>
              <LatitudeDegrees>40.85183291696012020111083984375</LatitudeDegrees>
              <LongitudeDegrees>-5.64731388352811336517333984375</LongitudeDegrees>
            </Position>
            <AltitudeMeters>867.20001220703125</AltitudeMeters>
            <DistanceMeters>NAN</DistanceMeters>
          </Trackpoint>
          <Trackpoint>
            <Time>2019-10-07T09:11:37.000Z</Time>
            <Position>
              <LatitudeDegrees>40.851560421288013458251953125</LatitudeDegrees>
              <LongitudeDegrees>-5.647117830812931060791015625</LongitudeDegrees>
            </Position>
            <AltitudeMeters>868.20001220703125</AltitudeMeters>
            <DistanceMeters>NAN</DistanceMeters>
          </Trackpoint>
          <Trackpoint>
            <Time>2019-10-07T09:11:38.000Z</Time>
            <Position>
              <LatitudeDegrees>40.85152848623692989349365234375</LatitudeDegrees>
              <LongitudeDegrees>-5.64709528349339962005615234375</LongitudeDegrees>
            </Position>
            <AltitudeMeters>868.4000244140625</AltitudeMeters>
            <DistanceMeters>NAN</DistanceMeters>
          </Trackpoint>
          <Trackpoint>
            <Time>2019-10-07T09:11:45.000Z</Time>
            <Position>
              <LatitudeDegrees>40.851310305297374725341796875</LatitudeDegrees>
              <LongitudeDegrees>-5.64693988300859928131103515625</LongitudeDegrees>
            </Position>
            <AltitudeMeters>869</AltitudeMeters>
            <DistanceMeters>NAN</DistanceMeters>
          </Trackpoint>
          <Trackpoint>
            <Time>2019-10-07T09:11:50.000Z</Time>
            <Position>
              <LatitudeDegrees>40.85115398280322551727294921875</LatitudeDegrees>
              <LongitudeDegrees>-5.64682672731578350067138671875</LongitudeDegrees>
            </Position>
            <AltitudeMeters>869.4000244140625</AltitudeMeters>
            <DistanceMeters>NAN</DistanceMeters>
          </Trackpoint>
          <Trackpoint>
            <Time>2019-10-07T09:11:54.000Z</Time>
            <Position>
              <LatitudeDegrees>40.8510274998843669891357421875</LatitudeDegrees>
              <LongitudeDegrees>-5.64673603512346744537353515625</LongitudeDegrees>
            </Position>
            <AltitudeMeters>870.5999755859375</AltitudeMeters>
            <DistanceMeters>NAN</DistanceMeters>
          </Trackpoint>
          <Trackpoint>
            <Time>2019-10-07T09:12:02.000Z</Time>
            <Position>
              <LatitudeDegrees>40.8507700078189373016357421875</LatitudeDegrees>
              <LongitudeDegrees>-5.64655431546270847320556640625</LongitudeDegrees>
            </Position>
            <AltitudeMeters>871</AltitudeMeters>
            <DistanceMeters>NAN</DistanceMeters>
          </Trackpoint>
          <Trackpoint>
            <Time>2019-10-07T09:12:08.000Z</Time>
            <Position>
              <LatitudeDegrees>40.85057009942829608917236328125</LatitudeDegrees>
              <LongitudeDegrees>-5.64641316421329975128173828125</LongitudeDegrees>
            </Position>
            <AltitudeMeters>871.4000244140625</AltitudeMeters>
            <DistanceMeters>NAN</DistanceMeters>
          </Trackpoint>
          <Trackpoint>
            <Time>2019-10-07T09:12:11.000Z</Time>
            <Position>
              <LatitudeDegrees>40.8504711091518402099609375</LatitudeDegrees>
              <LongitudeDegrees>-5.64634342677891254425048828125</LongitudeDegrees>
            </Position>
            <AltitudeMeters>871.79998779296875</AltitudeMeters>
            <DistanceMeters>NAN</DistanceMeters>
          </Trackpoint>
          <Trackpoint>
            <Time>2019-10-07T09:12:21.000Z</Time>
            <Position>
              <LatitudeDegrees>40.85012971423566341400146484375</LatitudeDegrees>
              <LongitudeDegrees>-5.64610672183334827423095703125</LongitudeDegrees>
            </Position>
            <AltitudeMeters>872.20001220703125</AltitudeMeters>
            <DistanceMeters>NAN</DistanceMeters>
          </Trackpoint>
          <Trackpoint>
            <Time>2019-10-07T09:12:31.000Z</Time>
            <Position>
              <LatitudeDegrees>40.8497920073568820953369140625</LatitudeDegrees>
              <LongitudeDegrees>-5.64586834050714969635009765625</LongitudeDegrees>
            </Position>
            <AltitudeMeters>872.79998779296875</AltitudeMeters>
            <DistanceMeters>NAN</DistanceMeters>
          </Trackpoint>
          <Trackpoint>
            <Time>2019-10-07T09:12:41.000Z</Time>
            <Position>
              <LatitudeDegrees>40.8494443260133266448974609375</LatitudeDegrees>
              <LongitudeDegrees>-5.6456236727535724639892578125</LongitudeDegrees>
            </Position>
            <AltitudeMeters>873.20001220703125</AltitudeMeters>
            <DistanceMeters>NAN</DistanceMeters>
          </Trackpoint>
          <Trackpoint>
            <Time>2019-10-07T09:12:45.000Z</Time>
            <Position>
              <LatitudeDegrees>40.8493058569729328155517578125</LatitudeDegrees>
              <LongitudeDegrees>-5.6455256044864654541015625</LongitudeDegrees>
            </Position>
            <AltitudeMeters>873.79998779296875</AltitudeMeters>
            <DistanceMeters>NAN</DistanceMeters>
          </Trackpoint>
          <Trackpoint>
            <Time>2019-10-07T09:12:52.000Z</Time>
            <Position>
              <LatitudeDegrees>40.84906135685741901397705078125</LatitudeDegrees>
              <LongitudeDegrees>-5.64535620622336864471435546875</LongitudeDegrees>
            </Position>
            <AltitudeMeters>874.20001220703125</AltitudeMeters>
            <DistanceMeters>NAN</DistanceMeters>
          </Trackpoint>
          <Trackpoint>
            <Time>2019-10-07T09:13:01.000Z</Time>
            <Position>
              <LatitudeDegrees>40.848719291388988494873046875</LatitudeDegrees>
              <LongitudeDegrees>-5.6451110355556011199951171875</LongitudeDegrees>
            </Position>
            <AltitudeMeters>874.79998779296875</AltitudeMeters>
            <DistanceMeters>NAN</DistanceMeters>
          </Trackpoint>
          <Trackpoint>
            <Time>2019-10-07T09:13:08.000Z</Time>
            <Position>
              <LatitudeDegrees>40.84844545461237430572509765625</LatitudeDegrees>
              <LongitudeDegrees>-5.64491716213524341583251953125</LongitudeDegrees>
            </Position>
            <AltitudeMeters>875.20001220703125</AltitudeMeters>
            <DistanceMeters>NAN</DistanceMeters>
          </Trackpoint>
          <Trackpoint>
            <Time>2019-10-07T09:13:14.000Z</Time>
            <Position>
              <LatitudeDegrees>40.8482239209115505218505859375</LatitudeDegrees>
              <LongitudeDegrees>-5.64475673250854015350341796875</LongitudeDegrees>
            </Position>
            <AltitudeMeters>876</AltitudeMeters>
            <DistanceMeters>NAN</DistanceMeters>
          </Trackpoint>
          <Trackpoint>
            <Time>2019-10-07T09:13:18.000Z</Time>
            <Position>
              <LatitudeDegrees>40.848084278404712677001953125</LatitudeDegrees>
              <LongitudeDegrees>-5.64466101117432117462158203125</LongitudeDegrees>
            </Position>
            <AltitudeMeters>876.4000244140625</AltitudeMeters>
            <DistanceMeters>NAN</DistanceMeters>
          </Trackpoint>
          <Trackpoint>
            <Time>2019-10-07T09:13:24.000Z</Time>
            <Position>
              <LatitudeDegrees>40.8478799276053905487060546875</LatitudeDegrees>
              <LongitudeDegrees>-5.64451583661139011383056640625</LongitudeDegrees>
            </Position>
            <AltitudeMeters>877</AltitudeMeters>
            <DistanceMeters>NAN</DistanceMeters>
          </Trackpoint>
          <Trackpoint>
            <Time>2019-10-07T09:13:30.000Z</Time>
            <Position>
              <LatitudeDegrees>40.847682617604732513427734375</LatitudeDegrees>
              <LongitudeDegrees>-5.64437024295330047607421875</LongitudeDegrees>
            </Position>
            <AltitudeMeters>877.4000244140625</AltitudeMeters>
            <DistanceMeters>NAN</DistanceMeters>
          </Trackpoint>
          <Trackpoint>
            <Time>2019-10-07T09:13:34.000Z</Time>
            <Position>
              <LatitudeDegrees>40.84755345247685909271240234375</LatitudeDegrees>
              <LongitudeDegrees>-5.6442802213132381439208984375</LongitudeDegrees>
            </Position>
            <AltitudeMeters>878</AltitudeMeters>
            <DistanceMeters>NAN</DistanceMeters>
          </Trackpoint>
          <Trackpoint>
            <Time>2019-10-07T09:13:39.000Z</Time>
            <Position>
              <LatitudeDegrees>40.84739369340240955352783203125</LatitudeDegrees>
              <LongitudeDegrees>-5.64416773617267608642578125</LongitudeDegrees>
            </Position>
            <AltitudeMeters>878.5999755859375</AltitudeMeters>
            <DistanceMeters>NAN</DistanceMeters>
          </Trackpoint>
          <Trackpoint>
            <Time>2019-10-07T09:13:42.000Z</Time>
            <Position>
              <LatitudeDegrees>40.84729604423046112060546875</LatitudeDegrees>
              <LongitudeDegrees>-5.6441015191376209259033203125</LongitudeDegrees>
            </Position>
            <AltitudeMeters>879</AltitudeMeters>
            <DistanceMeters>NAN</DistanceMeters>
          </Trackpoint>
          <Trackpoint>
            <Time>2019-10-07T09:13:47.000Z</Time>
            <Position>
              <LatitudeDegrees>40.8471352793276309967041015625</LatitudeDegrees>
              <LongitudeDegrees>-5.64398928545415401458740234375</LongitudeDegrees>
            </Position>
            <AltitudeMeters>880.20001220703125</AltitudeMeters>
            <DistanceMeters>NAN</DistanceMeters>
          </Trackpoint>
          <Trackpoint>
            <Time>2019-10-07T09:13:49.000Z</Time>
            <Position>
              <LatitudeDegrees>40.84707207977771759033203125</LatitudeDegrees>
              <LongitudeDegrees>-5.643942765891551971435546875</LongitudeDegrees>
            </Position>
            <AltitudeMeters>880.5999755859375</AltitudeMeters>
            <DistanceMeters>NAN</DistanceMeters>
          </Trackpoint>
          <Trackpoint>
            <Time>2019-10-07T09:13:56.000Z</Time>
            <Position>
              <LatitudeDegrees>40.84684384055435657501220703125</LatitudeDegrees>
              <LongitudeDegrees>-5.64378283917903900146484375</LongitudeDegrees>
            </Position>
            <AltitudeMeters>881.20001220703125</AltitudeMeters>
            <DistanceMeters>NAN</DistanceMeters>
          </Trackpoint>
          <Trackpoint>
            <Time>2019-10-07T09:13:59.000Z</Time>
            <Position>
              <LatitudeDegrees>40.84674761630594730377197265625</LatitudeDegrees>
              <LongitudeDegrees>-5.64371335320174694061279296875</LongitudeDegrees>
            </Position>
            <AltitudeMeters>882</AltitudeMeters>
            <DistanceMeters>NAN</DistanceMeters>
          </Trackpoint>
          <Trackpoint>
            <Time>2019-10-07T09:14:04.000Z</Time>
            <Position>
              <LatitudeDegrees>40.8465894497931003570556640625</LatitudeDegrees>
              <LongitudeDegrees>-5.643600113689899444580078125</LongitudeDegrees>
            </Position>
            <AltitudeMeters>882.20001220703125</AltitudeMeters>
            <DistanceMeters>NAN</DistanceMeters>
          </Trackpoint>
          <Trackpoint>
            <Time>2019-10-07T09:14:06.000Z</Time>
            <Position>
              <LatitudeDegrees>40.84652532823383808135986328125</LatitudeDegrees>
              <LongitudeDegrees>-5.643554516136646270751953125</LongitudeDegrees>
            </Position>
            <AltitudeMeters>882.5999755859375</AltitudeMeters>
            <DistanceMeters>NAN</DistanceMeters>
          </Trackpoint>
          <Trackpoint>
            <Time>2019-10-07T09:14:09.000Z</Time>
            <Position>
              <LatitudeDegrees>40.84642876870930194854736328125</LatitudeDegrees>
              <LongitudeDegrees>-5.643486790359020233154296875</LongitudeDegrees>
            </Position>
            <AltitudeMeters>883.20001220703125</AltitudeMeters>
            <DistanceMeters>NAN</DistanceMeters>
          </Trackpoint>
          <Trackpoint>
            <Time>2019-10-07T09:14:15.000Z</Time>
            <Position>
              <LatitudeDegrees>40.84623657166957855224609375</LatitudeDegrees>
              <LongitudeDegrees>-5.6433525122702121734619140625</LongitudeDegrees>
            </Position>
            <AltitudeMeters>884.4000244140625</AltitudeMeters>
            <DistanceMeters>NAN</DistanceMeters>
          </Trackpoint>
          <Trackpoint>
            <Time>2019-10-07T09:14:17.000Z</Time>
            <Position>
              <LatitudeDegrees>40.84617161191999912261962890625</LatitudeDegrees>
              <LongitudeDegrees>-5.64330666325986385345458984375</LongitudeDegrees>
            </Position>
            <AltitudeMeters>884.4000244140625</AltitudeMeters>
            <DistanceMeters>NAN</DistanceMeters>
          </Trackpoint>
          <Trackpoint>
            <Time>2019-10-07T09:14:22.000Z</Time>
            <Position>
              <LatitudeDegrees>40.84601034410297870635986328125</LatitudeDegrees>
              <LongitudeDegrees>-5.64319049008190631866455078125</LongitudeDegrees>
            </Position>
            <AltitudeMeters>885.5999755859375</AltitudeMeters>
            <DistanceMeters>NAN</DistanceMeters>
          </Trackpoint>
          <Trackpoint>
            <Time>2019-10-07T09:14:27.000Z</Time>
            <Position>
              <LatitudeDegrees>40.84585024975240230560302734375</LatitudeDegrees>
              <LongitudeDegrees>-5.64307917840778827667236328125</LongitudeDegrees>
            </Position>
            <AltitudeMeters>885.5999755859375</AltitudeMeters>
            <DistanceMeters>NAN</DistanceMeters>
          </Trackpoint>
          <Trackpoint>
            <Time>2019-10-07T09:14:35.000Z</Time>
            <Position>
              <LatitudeDegrees>40.8455920033156871795654296875</LatitudeDegrees>
              <LongitudeDegrees>-5.6428918428719043731689453125</LongitudeDegrees>
            </Position>
            <AltitudeMeters>886.5999755859375</AltitudeMeters>
            <DistanceMeters>NAN</DistanceMeters>
          </Trackpoint>
          <Trackpoint>
            <Time>2019-10-07T09:14:37.000Z</Time>
            <Position>
              <LatitudeDegrees>40.84552536718547344207763671875</LatitudeDegrees>
              <LongitudeDegrees>-5.64284733496606349945068359375</LongitudeDegrees>
            </Position>
            <AltitudeMeters>886.79998779296875</AltitudeMeters>
            <DistanceMeters>NAN</DistanceMeters>
          </Trackpoint>
          <Trackpoint>
            <Time>2019-10-07T09:14:45.000Z</Time>
            <Position>
              <LatitudeDegrees>40.84526083432137966156005859375</LatitudeDegrees>
              <LongitudeDegrees>-5.64265639521181583404541015625</LongitudeDegrees>
            </Position>
            <AltitudeMeters>887.79998779296875</AltitudeMeters>
            <DistanceMeters>NAN</DistanceMeters>
          </Trackpoint>
          <Trackpoint>
            <Time>2019-10-07T09:14:50.000Z</Time>
            <Position>
              <LatitudeDegrees>40.8450880832970142364501953125</LatitudeDegrees>
              <LongitudeDegrees>-5.6425364501774311065673828125</LongitudeDegrees>
            </Position>
            <AltitudeMeters>887.5999755859375</AltitudeMeters>
            <DistanceMeters>NAN</DistanceMeters>
          </Trackpoint>
          <Trackpoint>
            <Time>2019-10-07T09:14:58.000Z</Time>
            <Position>
              <LatitudeDegrees>40.84477552212774753570556640625</LatitudeDegrees>
              <LongitudeDegrees>-5.64230653457343578338623046875</LongitudeDegrees>
            </Position>
            <AltitudeMeters>887.5999755859375</AltitudeMeters>
            <DistanceMeters>NAN</DistanceMeters>
          </Trackpoint>
          <Trackpoint>
            <Time>2019-10-07T09:15:04.000Z</Time>
            <Position>
              <LatitudeDegrees>40.84452423267066478729248046875</LatitudeDegrees>
              <LongitudeDegrees>-5.64213638193905353546142578125</LongitudeDegrees>
            </Position>
            <AltitudeMeters>887.79998779296875</AltitudeMeters>
            <DistanceMeters>NAN</DistanceMeters>
          </Trackpoint>
          <Trackpoint>
            <Time>2019-10-07T09:15:08.000Z</Time>
            <Position>
              <LatitudeDegrees>40.8443484641611576080322265625</LatitudeDegrees>
              <LongitudeDegrees>-5.642023980617523193359375</LongitudeDegrees>
            </Position>
            <AltitudeMeters>887.4000244140625</AltitudeMeters>
            <DistanceMeters>NAN</DistanceMeters>
          </Trackpoint>
          <Trackpoint>
            <Time>2019-10-07T09:15:11.000Z</Time>
            <Position>
              <LatitudeDegrees>40.8442083187401294708251953125</LatitudeDegrees>
              <LongitudeDegrees>-5.6419430114328861236572265625</LongitudeDegrees>
            </Position>
            <AltitudeMeters>887.4000244140625</AltitudeMeters>
            <DistanceMeters>NAN</DistanceMeters>
          </Trackpoint>
          <Trackpoint>
            <Time>2019-10-07T09:15:18.000Z</Time>
            <Position>
              <LatitudeDegrees>40.84387497045099735260009765625</LatitudeDegrees>
              <LongitudeDegrees>-5.641766488552093505859375</LongitudeDegrees>
            </Position>
            <AltitudeMeters>887</AltitudeMeters>
            <DistanceMeters>NAN</DistanceMeters>
          </Trackpoint>
          <Trackpoint>
            <Time>2019-10-07T09:15:22.000Z</Time>
            <Position>
              <LatitudeDegrees>40.84367698989808559417724609375</LatitudeDegrees>
              <LongitudeDegrees>-5.6416833400726318359375</LongitudeDegrees>
            </Position>
            <AltitudeMeters>887.5999755859375</AltitudeMeters>
            <DistanceMeters>NAN</DistanceMeters>
          </Trackpoint>
          <Trackpoint>
            <Time>2019-10-07T09:15:23.000Z</Time>
            <Position>
              <LatitudeDegrees>40.8436272852122783660888671875</LatitudeDegrees>
              <LongitudeDegrees>-5.64166381023824214935302734375</LongitudeDegrees>
            </Position>
            <AltitudeMeters>887.4000244140625</AltitudeMeters>
            <DistanceMeters>NAN</DistanceMeters>
          </Trackpoint>
          <Trackpoint>
            <Time>2019-10-07T09:15:30.000Z</Time>
            <Position>
              <LatitudeDegrees>40.8432785980403423309326171875</LatitudeDegrees>
              <LongitudeDegrees>-5.64152668230235576629638671875</LongitudeDegrees>
            </Position>
            <AltitudeMeters>887</AltitudeMeters>
            <DistanceMeters>NAN</DistanceMeters>
          </Trackpoint>
          <Trackpoint>
            <Time>2019-10-07T09:15:38.000Z</Time>
            <Position>
              <LatitudeDegrees>40.84287802688777446746826171875</LatitudeDegrees>
              <LongitudeDegrees>-5.64137882553040981292724609375</LongitudeDegrees>
            </Position>
            <AltitudeMeters>887.4000244140625</AltitudeMeters>
            <DistanceMeters>NAN</DistanceMeters>
          </Trackpoint>
          <Trackpoint>
            <Time>2019-10-07T09:15:41.000Z</Time>
            <Position>
              <LatitudeDegrees>40.842725224792957305908203125</LatitudeDegrees>
              <LongitudeDegrees>-5.64132191240787506103515625</LongitudeDegrees>
            </Position>
            <AltitudeMeters>887</AltitudeMeters>
            <DistanceMeters>NAN</DistanceMeters>
          </Trackpoint>
          <Trackpoint>
            <Time>2019-10-07T09:15:51.000Z</Time>
            <Position>
              <LatitudeDegrees>40.842196829617023468017578125</LatitudeDegrees>
              <LongitudeDegrees>-5.6411256082355976104736328125</LongitudeDegrees>
            </Position>
            <AltitudeMeters>887.4000244140625</AltitudeMeters>
            <DistanceMeters>NAN</DistanceMeters>
          </Trackpoint>
          <Trackpoint>
            <Time>2019-10-07T09:15:52.000Z</Time>
            <Position>
              <LatitudeDegrees>40.84214125759899616241455078125</LatitudeDegrees>
              <LongitudeDegrees>-5.6411058269441127777099609375</LongitudeDegrees>
            </Position>
            <AltitudeMeters>887</AltitudeMeters>
            <DistanceMeters>NAN</DistanceMeters>
          </Trackpoint>
          <Trackpoint>
            <Time>2019-10-07T09:15:53.000Z</Time>
            <Position>
              <LatitudeDegrees>40.84208543412387371063232421875</LatitudeDegrees>
              <LongitudeDegrees>-5.6410836987197399139404296875</LongitudeDegrees>
            </Position>
            <AltitudeMeters>886.20001220703125</AltitudeMeters>
            <DistanceMeters>NAN</DistanceMeters>
          </Trackpoint>
          <Trackpoint>
            <Time>2019-10-07T09:15:58.000Z</Time>
            <Position>
              <LatitudeDegrees>40.84177899174392223358154296875</LatitudeDegrees>
              <LongitudeDegrees>-5.64096945337951183319091796875</LongitudeDegrees>
            </Position>
            <AltitudeMeters>885.79998779296875</AltitudeMeters>
            <DistanceMeters>NAN</DistanceMeters>
          </Trackpoint>
          <Trackpoint>
            <Time>2019-10-07T09:15:59.000Z</Time>
            <Position>
              <LatitudeDegrees>40.84171227179467678070068359375</LatitudeDegrees>
              <LongitudeDegrees>-5.640944056212902069091796875</LongitudeDegrees>
            </Position>
            <AltitudeMeters>885.5999755859375</AltitudeMeters>
            <DistanceMeters>NAN</DistanceMeters>
          </Trackpoint>
          <Trackpoint>
            <Time>2019-10-07T09:16:00.000Z</Time>
            <Position>
              <LatitudeDegrees>40.84164521656930446624755859375</LatitudeDegrees>
              <LongitudeDegrees>-5.64091731794178485870361328125</LongitudeDegrees>
            </Position>
            <AltitudeMeters>884.79998779296875</AltitudeMeters>
            <DistanceMeters>NAN</DistanceMeters>
          </Trackpoint>
          <Trackpoint>
            <Time>2019-10-07T09:16:02.000Z</Time>
            <Position>
              <LatitudeDegrees>40.84150557406246662139892578125</LatitudeDegrees>
              <LongitudeDegrees>-5.64086585305631160736083984375</LongitudeDegrees>
            </Position>
            <AltitudeMeters>883.4000244140625</AltitudeMeters>
            <DistanceMeters>NAN</DistanceMeters>
          </Trackpoint>
          <Trackpoint>
            <Time>2019-10-07T09:16:06.000Z</Time>
            <Position>
              <LatitudeDegrees>40.84121203981339931488037109375</LatitudeDegrees>
              <LongitudeDegrees>-5.640757642686367034912109375</LongitudeDegrees>
            </Position>
            <AltitudeMeters>882.4000244140625</AltitudeMeters>
            <DistanceMeters>NAN</DistanceMeters>
          </Trackpoint>
          <Trackpoint>
            <Time>2019-10-07T09:16:08.000Z</Time>
            <Position>
              <LatitudeDegrees>40.84106032736599445343017578125</LatitudeDegrees>
              <LongitudeDegrees>-5.64070123247802257537841796875</LongitudeDegrees>
            </Position>
            <AltitudeMeters>882.20001220703125</AltitudeMeters>
            <DistanceMeters>NAN</DistanceMeters>
          </Trackpoint>
          <Trackpoint>
            <Time>2019-10-07T09:16:13.000Z</Time>
            <Position>
              <LatitudeDegrees>40.84066336043179035186767578125</LatitudeDegrees>
              <LongitudeDegrees>-5.640553124248981475830078125</LongitudeDegrees>
            </Position>
            <AltitudeMeters>881</AltitudeMeters>
            <DistanceMeters>NAN</DistanceMeters>
          </Trackpoint>
          <Trackpoint>
            <Time>2019-10-07T09:16:20.000Z</Time>
            <Position>
              <LatitudeDegrees>40.84011769853532314300537109375</LatitudeDegrees>
              <LongitudeDegrees>-5.6403501145541667938232421875</LongitudeDegrees>
            </Position>
            <AltitudeMeters>880.20001220703125</AltitudeMeters>
            <DistanceMeters>NAN</DistanceMeters>
          </Trackpoint>
          <Trackpoint>
            <Time>2019-10-07T09:16:22.000Z</Time>
            <Position>
              <LatitudeDegrees>40.83997721783816814422607421875</LatitudeDegrees>
              <LongitudeDegrees>-5.640298314392566680908203125</LongitudeDegrees>
            </Position>
            <AltitudeMeters>880.20001220703125</AltitudeMeters>
            <DistanceMeters>NAN</DistanceMeters>
          </Trackpoint>
          <Trackpoint>
            <Time>2019-10-07T09:16:27.000Z</Time>
            <Position>
              <LatitudeDegrees>40.83967329002916812896728515625</LatitudeDegrees>
              <LongitudeDegrees>-5.640180297195911407470703125</LongitudeDegrees>
            </Position>
            <AltitudeMeters>882.79998779296875</AltitudeMeters>
            <DistanceMeters>NAN</DistanceMeters>
          </Trackpoint>
          <Trackpoint>
            <Time>2019-10-07T09:16:28.000Z</Time>
            <Position>
              <LatitudeDegrees>40.83961964584887027740478515625</LatitudeDegrees>
              <LongitudeDegrees>-5.64015640877187252044677734375</LongitudeDegrees>
            </Position>
            <AltitudeMeters>883</AltitudeMeters>
            <DistanceMeters>NAN</DistanceMeters>
          </Trackpoint>
          <Trackpoint>
            <Time>2019-10-07T09:16:32.000Z</Time>
            <Position>
              <LatitudeDegrees>40.83942384459078311920166015625</LatitudeDegrees>
              <LongitudeDegrees>-5.64006940461695194244384765625</LongitudeDegrees>
            </Position>
            <AltitudeMeters>883.79998779296875</AltitudeMeters>
            <DistanceMeters>NAN</DistanceMeters>
          </Trackpoint>
          <Trackpoint>
            <Time>2019-10-07T09:16:33.000Z</Time>
            <Position>
              <LatitudeDegrees>40.83937791176140308380126953125</LatitudeDegrees>
              <LongitudeDegrees>-5.64004995860159397125244140625</LongitudeDegrees>
            </Position>
            <AltitudeMeters>883.79998779296875</AltitudeMeters>
            <DistanceMeters>NAN</DistanceMeters>
          </Trackpoint>
          <Trackpoint>
            <Time>2019-10-07T09:16:34.000Z</Time>
            <Position>
              <LatitudeDegrees>40.83933533169329166412353515625</LatitudeDegrees>
              <LongitudeDegrees>-5.6400310993194580078125</LongitudeDegrees>
            </Position>
            <AltitudeMeters>884.4000244140625</AltitudeMeters>
            <DistanceMeters>NAN</DistanceMeters>
          </Trackpoint>
          <Trackpoint>
            <Time>2019-10-07T09:16:36.000Z</Time>
            <Position>
              <LatitudeDegrees>40.83925603888928890228271484375</LatitudeDegrees>
              <LongitudeDegrees>-5.6399984098970890045166015625</LongitudeDegrees>
            </Position>
            <AltitudeMeters>885</AltitudeMeters>
            <DistanceMeters>NAN</DistanceMeters>
          </Trackpoint>
          <Trackpoint>
            <Time>2019-10-07T09:16:39.000Z</Time>
            <Position>
              <LatitudeDegrees>40.83914539776742458343505859375</LatitudeDegrees>
              <LongitudeDegrees>-5.6399491243064403533935546875</LongitudeDegrees>
            </Position>
            <AltitudeMeters>885.5999755859375</AltitudeMeters>
            <DistanceMeters>NAN</DistanceMeters>
          </Trackpoint>
          <Trackpoint>
            <Time>2019-10-07T09:16:40.000Z</Time>
            <Position>
              <LatitudeDegrees>40.83910935558378696441650390625</LatitudeDegrees>
              <LongitudeDegrees>-5.63993127085268497467041015625</LongitudeDegrees>
            </Position>
            <AltitudeMeters>885.4000244140625</AltitudeMeters>
            <DistanceMeters>NAN</DistanceMeters>
          </Trackpoint>
          <Trackpoint>
            <Time>2019-10-07T09:16:42.000Z</Time>
            <Position>
              <LatitudeDegrees>40.839036516845226287841796875</LatitudeDegrees>
              <LongitudeDegrees>-5.63989355228841304779052734375</LongitudeDegrees>
            </Position>
            <AltitudeMeters>886</AltitudeMeters>
            <DistanceMeters>NAN</DistanceMeters>
          </Trackpoint>
          <Trackpoint>
            <Time>2019-10-07T09:16:46.000Z</Time>
            <Position>
              <LatitudeDegrees>40.8388972096145153045654296875</LatitudeDegrees>
              <LongitudeDegrees>-5.63982549123466014862060546875</LongitudeDegrees>
            </Position>
            <AltitudeMeters>887</AltitudeMeters>
            <DistanceMeters>NAN</DistanceMeters>
          </Trackpoint>
          <Trackpoint>
            <Time>2019-10-07T09:16:47.000Z</Time>
            <Position>
              <LatitudeDegrees>40.8388633467257022857666015625</LatitudeDegrees>
              <LongitudeDegrees>-5.63980839215219020843505859375</LongitudeDegrees>
            </Position>
            <AltitudeMeters>887.20001220703125</AltitudeMeters>
            <DistanceMeters>NAN</DistanceMeters>
          </Trackpoint>
          <Trackpoint>
            <Time>2019-10-07T09:16:49.000Z</Time>
            <Position>
              <LatitudeDegrees>40.83879671059548854827880859375</LatitudeDegrees>
              <LongitudeDegrees>-5.63977436162531375885009765625</LongitudeDegrees>
            </Position>
            <AltitudeMeters>887.20001220703125</AltitudeMeters>
            <DistanceMeters>NAN</DistanceMeters>
          </Trackpoint>
          <Trackpoint>
            <Time>2019-10-07T09:16:53.000Z</Time>
            <Position>
              <LatitudeDegrees>40.83866779692471027374267578125</LatitudeDegrees>
              <LongitudeDegrees>-5.63971116207540035247802734375</LongitudeDegrees>
            </Position>
            <AltitudeMeters>888</AltitudeMeters>
            <DistanceMeters>NAN</DistanceMeters>
          </Trackpoint>
          <Trackpoint>
            <Time>2019-10-07T09:16:54.000Z</Time>
            <Position>
              <LatitudeDegrees>40.83863376639783382415771484375</LatitudeDegrees>
              <LongitudeDegrees>-5.63969255425035953521728515625</LongitudeDegrees>
            </Position>
            <AltitudeMeters>888.4000244140625</AltitudeMeters>
            <DistanceMeters>NAN</DistanceMeters>
          </Trackpoint>
          <Trackpoint>
            <Time>2019-10-07T09:16:57.000Z</Time>
            <Position>
              <LatitudeDegrees>40.8385379612445831298828125</LatitudeDegrees>
              <LongitudeDegrees>-5.63964821398258209228515625</LongitudeDegrees>
            </Position>
            <AltitudeMeters>889</AltitudeMeters>
            <DistanceMeters>NAN</DistanceMeters>
          </Trackpoint>
          <Trackpoint>
            <Time>2019-10-07T09:16:59.000Z</Time>
            <Position>
              <LatitudeDegrees>40.8384740911424160003662109375</LatitudeDegrees>
              <LongitudeDegrees>-5.639615021646022796630859375</LongitudeDegrees>
            </Position>
            <AltitudeMeters>889.5999755859375</AltitudeMeters>
            <DistanceMeters>NAN</DistanceMeters>
          </Trackpoint>
          <Trackpoint>
            <Time>2019-10-07T09:17:03.000Z</Time>
            <Position>
              <LatitudeDegrees>40.8383493684232234954833984375</LatitudeDegrees>
              <LongitudeDegrees>-5.639550648629665374755859375</LongitudeDegrees>
            </Position>
            <AltitudeMeters>889.79998779296875</AltitudeMeters>
            <DistanceMeters>NAN</DistanceMeters>
          </Trackpoint>
          <Trackpoint>
            <Time>2019-10-07T09:17:06.000Z</Time>
            <Position>
              <LatitudeDegrees>40.83825808949768543243408203125</LatitudeDegrees>
              <LongitudeDegrees>-5.63950362615287303924560546875</LongitudeDegrees>
            </Position>
            <AltitudeMeters>890.5999755859375</AltitudeMeters>
            <DistanceMeters>NAN</DistanceMeters>
          </Trackpoint>
          <Trackpoint>
            <Time>2019-10-07T09:17:09.000Z</Time>
            <Position>
              <LatitudeDegrees>40.8381666429340839385986328125</LatitudeDegrees>
              <LongitudeDegrees>-5.6394535861909389495849609375</LongitudeDegrees>
            </Position>
            <AltitudeMeters>890.5999755859375</AltitudeMeters>
            <DistanceMeters>NAN</DistanceMeters>
          </Trackpoint>
          <Trackpoint>
            <Time>2019-10-07T09:17:15.000Z</Time>
            <Position>
              <LatitudeDegrees>40.83797964267432689666748046875</LatitudeDegrees>
              <LongitudeDegrees>-5.639366246759891510009765625</LongitudeDegrees>
            </Position>
            <AltitudeMeters>891.79998779296875</AltitudeMeters>
            <DistanceMeters>NAN</DistanceMeters>
          </Trackpoint>
          <Trackpoint>
            <Time>2019-10-07T09:17:21.000Z</Time>
            <Position>
              <LatitudeDegrees>40.83778987638652324676513671875</LatitudeDegrees>
              <LongitudeDegrees>-5.63927806913852691650390625</LongitudeDegrees>
            </Position>
            <AltitudeMeters>893</AltitudeMeters>
            <DistanceMeters>NAN</DistanceMeters>
          </Trackpoint>
          <Trackpoint>
            <Time>2019-10-07T09:17:23.000Z</Time>
            <Position>
              <LatitudeDegrees>40.83772852085530757904052734375</LatitudeDegrees>
              <LongitudeDegrees>-5.63924596644937992095947265625</LongitudeDegrees>
            </Position>
            <AltitudeMeters>893.4000244140625</AltitudeMeters>
            <DistanceMeters>NAN</DistanceMeters>
          </Trackpoint>
          <Trackpoint>
            <Time>2019-10-07T09:17:30.000Z</Time>
            <Position>
              <LatitudeDegrees>40.83750304765999317169189453125</LatitudeDegrees>
              <LongitudeDegrees>-5.63912929035723209381103515625</LongitudeDegrees>
            </Position>
            <AltitudeMeters>894</AltitudeMeters>
            <DistanceMeters>NAN</DistanceMeters>
          </Trackpoint>
          <Trackpoint>
            <Time>2019-10-07T09:17:33.000Z</Time>
            <Position>
              <LatitudeDegrees>40.83740548230707645416259765625</LatitudeDegrees>
              <LongitudeDegrees>-5.63907899893820285797119140625</LongitudeDegrees>
            </Position>
            <AltitudeMeters>894.20001220703125</AltitudeMeters>
            <DistanceMeters>NAN</DistanceMeters>
          </Trackpoint>
          <Trackpoint>
            <Time>2019-10-07T09:17:38.000Z</Time>
            <Position>
              <LatitudeDegrees>40.83724086172878742218017578125</LatitudeDegrees>
              <LongitudeDegrees>-5.63899568282067775726318359375</LongitudeDegrees>
            </Position>
            <AltitudeMeters>895</AltitudeMeters>
            <DistanceMeters>NAN</DistanceMeters>
          </Trackpoint>
          <Trackpoint>
            <Time>2019-10-07T09:17:43.000Z</Time>
            <Position>
              <LatitudeDegrees>40.83707389421761035919189453125</LatitudeDegrees>
              <LongitudeDegrees>-5.6389141269028186798095703125</LongitudeDegrees>
            </Position>
            <AltitudeMeters>895.5999755859375</AltitudeMeters>
            <DistanceMeters>NAN</DistanceMeters>
          </Trackpoint>
          <Trackpoint>
            <Time>2019-10-07T09:17:50.000Z</Time>
            <Position>
              <LatitudeDegrees>40.8368325792253017425537109375</LatitudeDegrees>
              <LongitudeDegrees>-5.63880910165607929229736328125</LongitudeDegrees>
            </Position>
            <AltitudeMeters>896.4000244140625</AltitudeMeters>
            <DistanceMeters>NAN</DistanceMeters>
          </Trackpoint>
          <Trackpoint>
            <Time>2019-10-07T09:17:53.000Z</Time>
            <Position>
              <LatitudeDegrees>40.836727134883403778076171875</LatitudeDegrees>
              <LongitudeDegrees>-5.6387672759592533111572265625</LongitudeDegrees>
            </Position>
            <AltitudeMeters>896.4000244140625</AltitudeMeters>
            <DistanceMeters>NAN</DistanceMeters>
          </Trackpoint>
          <Trackpoint>
            <Time>2019-10-07T09:18:00.000Z</Time>
            <Position>
              <LatitudeDegrees>40.83648012019693851470947265625</LatitudeDegrees>
              <LongitudeDegrees>-5.638684295117855072021484375</LongitudeDegrees>
            </Position>
            <AltitudeMeters>897.5999755859375</AltitudeMeters>
            <DistanceMeters>NAN</DistanceMeters>
          </Trackpoint>
          <Trackpoint>
            <Time>2019-10-07T09:18:03.000Z</Time>
            <Position>
              <LatitudeDegrees>40.836374759674072265625</LatitudeDegrees>
              <LongitudeDegrees>-5.63865168951451778411865234375</LongitudeDegrees>
            </Position>
            <AltitudeMeters>898.20001220703125</AltitudeMeters>
            <DistanceMeters>NAN</DistanceMeters>
          </Trackpoint>
          <Trackpoint>
            <Time>2019-10-07T09:18:06.000Z</Time>
            <Position>
              <LatitudeDegrees>40.8362661302089691162109375</LatitudeDegrees>
              <LongitudeDegrees>-5.63862386159598827362060546875</LongitudeDegrees>
            </Position>
            <AltitudeMeters>898.5999755859375</AltitudeMeters>
            <DistanceMeters>NAN</DistanceMeters>
          </Trackpoint>
          <Trackpoint>
            <Time>2019-10-07T09:18:13.000Z</Time>
            <Position>
              <LatitudeDegrees>40.8360118232667446136474609375</LatitudeDegrees>
              <LongitudeDegrees>-5.638577677309513092041015625</LongitudeDegrees>
            </Position>
            <AltitudeMeters>899.4000244140625</AltitudeMeters>
            <DistanceMeters>NAN</DistanceMeters>
          </Trackpoint>
          <Trackpoint>
            <Time>2019-10-07T09:18:21.000Z</Time>
            <Position>
              <LatitudeDegrees>40.83570328541100025177001953125</LatitudeDegrees>
              <LongitudeDegrees>-5.63854272477328777313232421875</LongitudeDegrees>
            </Position>
            <AltitudeMeters>899.5999755859375</AltitudeMeters>
            <DistanceMeters>NAN</DistanceMeters>
          </Trackpoint>
          <Trackpoint>
            <Time>2019-10-07T09:18:23.000Z</Time>
            <Position>
              <LatitudeDegrees>40.83562633953988552093505859375</LatitudeDegrees>
              <LongitudeDegrees>-5.6385352648794651031494140625</LongitudeDegrees>
            </Position>
            <AltitudeMeters>899.79998779296875</AltitudeMeters>
            <DistanceMeters>NAN</DistanceMeters>
          </Trackpoint>
          <Trackpoint>
            <Time>2019-10-07T09:18:28.000Z</Time>
            <Position>
              <LatitudeDegrees>40.83542450331151485443115234375</LatitudeDegrees>
              <LongitudeDegrees>-5.63852696679532527923583984375</LongitudeDegrees>
            </Position>
            <AltitudeMeters>899.5999755859375</AltitudeMeters>
            <DistanceMeters>NAN</DistanceMeters>
          </Trackpoint>
          <Trackpoint>
            <Time>2019-10-07T09:18:32.000Z</Time>
            <Position>
              <LatitudeDegrees>40.835253931581974029541015625</LatitudeDegrees>
              <LongitudeDegrees>-5.63852780498564243316650390625</LongitudeDegrees>
            </Position>
            <AltitudeMeters>899.79998779296875</AltitudeMeters>
            <DistanceMeters>NAN</DistanceMeters>
          </Trackpoint>
          <Trackpoint>
            <Time>2019-10-07T09:18:38.000Z</Time>
            <Position>
              <LatitudeDegrees>40.8349818550050258636474609375</LatitudeDegrees>
              <LongitudeDegrees>-5.63853518106043338775634765625</LongitudeDegrees>
            </Position>
            <AltitudeMeters>899.4000244140625</AltitudeMeters>
            <DistanceMeters>NAN</DistanceMeters>
          </Trackpoint>
          <Trackpoint>
            <Time>2019-10-07T09:18:40.000Z</Time>
            <Position>
              <LatitudeDegrees>40.83488948643207550048828125</LatitudeDegrees>
              <LongitudeDegrees>-5.6385392881929874420166015625</LongitudeDegrees>
            </Position>
            <AltitudeMeters>899.20001220703125</AltitudeMeters>
            <DistanceMeters>NAN</DistanceMeters>
          </Trackpoint>
          <Trackpoint>
            <Time>2019-10-07T09:18:49.000Z</Time>
            <Position>
              <LatitudeDegrees>40.83446963690221309661865234375</LatitudeDegrees>
              <LongitudeDegrees>-5.638554207980632781982421875</LongitudeDegrees>
            </Position>
            <AltitudeMeters>899.20001220703125</AltitudeMeters>
            <DistanceMeters>NAN</DistanceMeters>
          </Trackpoint>
          <Trackpoint>
            <Time>2019-10-07T09:18:52.000Z</Time>
            <Position>
              <LatitudeDegrees>40.8343277312815189361572265625</LatitudeDegrees>
              <LongitudeDegrees>-5.638558231294155120849609375</LongitudeDegrees>
            </Position>
            <AltitudeMeters>898.79998779296875</AltitudeMeters>
            <DistanceMeters>NAN</DistanceMeters>
          </Trackpoint>
          <Trackpoint>
            <Time>2019-10-07T09:18:53.000Z</Time>
            <Position>
              <LatitudeDegrees>40.8342807926237583160400390625</LatitudeDegrees>
              <LongitudeDegrees>-5.63855965621769428253173828125</LongitudeDegrees>
            </Position>
            <AltitudeMeters>899</AltitudeMeters>
            <DistanceMeters>NAN</DistanceMeters>
          </Trackpoint>
          <Trackpoint>
            <Time>2019-10-07T09:18:54.000Z</Time>
            <Position>
              <LatitudeDegrees>40.83423410542309284210205078125</LatitudeDegrees>
              <LongitudeDegrees>-5.63856133259832859039306640625</LongitudeDegrees>
            </Position>
            <AltitudeMeters>898.5999755859375</AltitudeMeters>
            <DistanceMeters>NAN</DistanceMeters>
          </Trackpoint>
          <Trackpoint>
            <Time>2019-10-07T09:19:02.000Z</Time>
            <Position>
              <LatitudeDegrees>40.83385440520942211151123046875</LatitudeDegrees>
              <LongitudeDegrees>-5.63856837339699268341064453125</LongitudeDegrees>
            </Position>
            <AltitudeMeters>899</AltitudeMeters>
            <DistanceMeters>NAN</DistanceMeters>
          </Trackpoint>
          <Trackpoint>
            <Time>2019-10-07T09:19:05.000Z</Time>
            <Position>
              <LatitudeDegrees>40.83370319567620754241943359375</LatitudeDegrees>
              <LongitudeDegrees>-5.63857155852019786834716796875</LongitudeDegrees>
            </Position>
            <AltitudeMeters>898.79998779296875</AltitudeMeters>
            <DistanceMeters>NAN</DistanceMeters>
          </Trackpoint>
          <Trackpoint>
            <Time>2019-10-07T09:19:12.000Z</Time>
            <Position>
              <LatitudeDegrees>40.83331528119742870330810546875</LatitudeDegrees>
              <LongitudeDegrees>-5.63858329318463802337646484375</LongitudeDegrees>
            </Position>
            <AltitudeMeters>898.4000244140625</AltitudeMeters>
            <DistanceMeters>NAN</DistanceMeters>
          </Trackpoint>
          <Trackpoint>
            <Time>2019-10-07T09:19:15.000Z</Time>
            <Position>
              <LatitudeDegrees>40.83313993178308010101318359375</LatitudeDegrees>
              <LongitudeDegrees>-5.6385845504701137542724609375</LongitudeDegrees>
            </Position>
            <AltitudeMeters>898.4000244140625</AltitudeMeters>
            <DistanceMeters>NAN</DistanceMeters>
          </Trackpoint>
          <Trackpoint>
            <Time>2019-10-07T09:19:18.000Z</Time>
            <Position>
              <LatitudeDegrees>40.8329544402658939361572265625</LatitudeDegrees>
              <LongitudeDegrees>-5.6385894119739532470703125</LongitudeDegrees>
            </Position>
            <AltitudeMeters>897.4000244140625</AltitudeMeters>
            <DistanceMeters>NAN</DistanceMeters>
          </Trackpoint>
          <Trackpoint>
            <Time>2019-10-07T09:19:23.000Z</Time>
            <Position>
              <LatitudeDegrees>40.83263433538377285003662109375</LatitudeDegrees>
              <LongitudeDegrees>-5.6385962851345539093017578125</LongitudeDegrees>
            </Position>
            <AltitudeMeters>896.20001220703125</AltitudeMeters>
            <DistanceMeters>NAN</DistanceMeters>
          </Trackpoint>
          <Trackpoint>
            <Time>2019-10-07T09:19:28.000Z</Time>
            <Position>
              <LatitudeDegrees>40.83230643533170223236083984375</LatitudeDegrees>
              <LongitudeDegrees>-5.6386013142764568328857421875</LongitudeDegrees>
            </Position>
            <AltitudeMeters>896</AltitudeMeters>
            <DistanceMeters>NAN</DistanceMeters>
          </Trackpoint>
          <Trackpoint>
            <Time>2019-10-07T09:19:32.000Z</Time>
            <Position>
              <LatitudeDegrees>40.8320488594472408294677734375</LatitudeDegrees>
              <LongitudeDegrees>-5.63860206864774227142333984375</LongitudeDegrees>
            </Position>
            <AltitudeMeters>895.79998779296875</AltitudeMeters>
            <DistanceMeters>NAN</DistanceMeters>
          </Trackpoint>
          <Trackpoint>
            <Time>2019-10-07T09:19:41.000Z</Time>
            <Position>
              <LatitudeDegrees>40.8315154351294040679931640625</LatitudeDegrees>
              <LongitudeDegrees>-5.63862025737762451171875</LongitudeDegrees>
            </Position>
            <AltitudeMeters>896.4000244140625</AltitudeMeters>
            <DistanceMeters>NAN</DistanceMeters>
          </Trackpoint>
          <Trackpoint>
            <Time>2019-10-07T09:19:50.000Z</Time>
            <Position>
              <LatitudeDegrees>40.8310034684836864471435546875</LatitudeDegrees>
              <LongitudeDegrees>-5.6386301480233669281005859375</LongitudeDegrees>
            </Position>
            <AltitudeMeters>896.79998779296875</AltitudeMeters>
            <DistanceMeters>NAN</DistanceMeters>
          </Trackpoint>
          <Trackpoint>
            <Time>2019-10-07T09:19:55.000Z</Time>
            <Position>
              <LatitudeDegrees>40.8307245187461376190185546875</LatitudeDegrees>
              <LongitudeDegrees>-5.6386381946504116058349609375</LongitudeDegrees>
            </Position>
            <AltitudeMeters>896.79998779296875</AltitudeMeters>
            <DistanceMeters>NAN</DistanceMeters>
          </Trackpoint>
          <Trackpoint>
            <Time>2019-10-07T09:19:57.000Z</Time>
            <Position>
              <LatitudeDegrees>40.830615051090717315673828125</LatitudeDegrees>
              <LongitudeDegrees>-5.63863911665976047515869140625</LongitudeDegrees>
            </Position>
            <AltitudeMeters>897.20001220703125</AltitudeMeters>
            <DistanceMeters>NAN</DistanceMeters>
          </Trackpoint>
          <Trackpoint>
            <Time>2019-10-07T09:20:00.000Z</Time>
            <Position>
              <LatitudeDegrees>40.83045738749206066131591796875</LatitudeDegrees>
              <LongitudeDegrees>-5.6386432237923145294189453125</LongitudeDegrees>
            </Position>
            <AltitudeMeters>897.5999755859375</AltitudeMeters>
            <DistanceMeters>NAN</DistanceMeters>
          </Trackpoint>
          <Trackpoint>
            <Time>2019-10-07T09:20:07.000Z</Time>
            <Position>
              <LatitudeDegrees>40.83009394817054271697998046875</LatitudeDegrees>
              <LongitudeDegrees>-5.6386512704193592071533203125</LongitudeDegrees>
            </Position>
            <AltitudeMeters>898</AltitudeMeters>
            <DistanceMeters>NAN</DistanceMeters>
          </Trackpoint>
          <Trackpoint>
            <Time>2019-10-07T09:20:09.000Z</Time>
            <Position>
              <LatitudeDegrees>40.8299922756850719451904296875</LatitudeDegrees>
              <LongitudeDegrees>-5.6386537849903106689453125</LongitudeDegrees>
            </Position>
            <AltitudeMeters>898.20001220703125</AltitudeMeters>
            <DistanceMeters>NAN</DistanceMeters>
          </Trackpoint>
          <Trackpoint>
            <Time>2019-10-07T09:20:14.000Z</Time>
            <Position>
              <LatitudeDegrees>40.82975749857723712921142578125</LatitudeDegrees>
              <LongitudeDegrees>-5.63865839503705501556396484375</LongitudeDegrees>
            </Position>
            <AltitudeMeters>898.79998779296875</AltitudeMeters>
            <DistanceMeters>NAN</DistanceMeters>
          </Trackpoint>
          <Trackpoint>
            <Time>2019-10-07T09:20:16.000Z</Time>
            <Position>
              <LatitudeDegrees>40.82966697402298450469970703125</LatitudeDegrees>
              <LongitudeDegrees>-5.6386599875986576080322265625</LongitudeDegrees>
            </Position>
            <AltitudeMeters>899.20001220703125</AltitudeMeters>
            <DistanceMeters>NAN</DistanceMeters>
          </Trackpoint>
          <Trackpoint>
            <Time>2019-10-07T09:20:17.000Z</Time>
            <Position>
              <LatitudeDegrees>40.8296228013932704925537109375</LatitudeDegrees>
              <LongitudeDegrees>-5.63866174779832363128662109375</LongitudeDegrees>
            </Position>
            <AltitudeMeters>899.4000244140625</AltitudeMeters>
            <DistanceMeters>NAN</DistanceMeters>
          </Trackpoint>
          <Trackpoint>
            <Time>2019-10-07T09:20:24.000Z</Time>
            <Position>
              <LatitudeDegrees>40.82931225188076496124267578125</LatitudeDegrees>
              <LongitudeDegrees>-5.638668872416019439697265625</LongitudeDegrees>
            </Position>
            <AltitudeMeters>900.5999755859375</AltitudeMeters>
            <DistanceMeters>NAN</DistanceMeters>
          </Trackpoint>
          <Trackpoint>
            <Time>2019-10-07T09:20:29.000Z</Time>
            <Position>
              <LatitudeDegrees>40.82908912561833858489990234375</LatitudeDegrees>
              <LongitudeDegrees>-5.63867398537695407867431640625</LongitudeDegrees>
            </Position>
            <AltitudeMeters>901.4000244140625</AltitudeMeters>
            <DistanceMeters>NAN</DistanceMeters>
          </Trackpoint>
          <Trackpoint>
            <Time>2019-10-07T09:20:31.000Z</Time>
            <Position>
              <LatitudeDegrees>40.8289988525211811065673828125</LatitudeDegrees>
              <LongitudeDegrees>-5.63867817632853984832763671875</LongitudeDegrees>
            </Position>
            <AltitudeMeters>901.79998779296875</AltitudeMeters>
            <DistanceMeters>NAN</DistanceMeters>
          </Trackpoint>
          <Trackpoint>
            <Time>2019-10-07T09:20:34.000Z</Time>
            <Position>
              <LatitudeDegrees>40.82886390388011932373046875</LatitudeDegrees>
              <LongitudeDegrees>-5.63868085853755474090576171875</LongitudeDegrees>
            </Position>
            <AltitudeMeters>901.79998779296875</AltitudeMeters>
            <DistanceMeters>NAN</DistanceMeters>
          </Trackpoint>
          <Trackpoint>
            <Time>2019-10-07T09:20:40.000Z</Time>
            <Position>
              <LatitudeDegrees>40.82859643734991550445556640625</LatitudeDegrees>
              <LongitudeDegrees>-5.6386859714984893798828125</LongitudeDegrees>
            </Position>
            <AltitudeMeters>902.20001220703125</AltitudeMeters>
            <DistanceMeters>NAN</DistanceMeters>
          </Trackpoint>
          <Trackpoint>
            <Time>2019-10-07T09:20:43.000Z</Time>
            <Position>
              <LatitudeDegrees>40.82846417091786861419677734375</LatitudeDegrees>
              <LongitudeDegrees>-5.63868991099298000335693359375</LongitudeDegrees>
            </Position>
            <AltitudeMeters>903.4000244140625</AltitudeMeters>
            <DistanceMeters>NAN</DistanceMeters>
          </Trackpoint>
          <Trackpoint>
            <Time>2019-10-07T09:20:45.000Z</Time>
            <Position>
              <LatitudeDegrees>40.828375406563282012939453125</LatitudeDegrees>
              <LongitudeDegrees>-5.63869175501167774200439453125</LongitudeDegrees>
            </Position>
            <AltitudeMeters>903.4000244140625</AltitudeMeters>
            <DistanceMeters>NAN</DistanceMeters>
          </Trackpoint>
          <Trackpoint>
            <Time>2019-10-07T09:20:56.000Z</Time>
            <Position>
              <LatitudeDegrees>40.82789638079702854156494140625</LatitudeDegrees>
              <LongitudeDegrees>-5.63870005309581756591796875</LongitudeDegrees>
            </Position>
            <AltitudeMeters>904.20001220703125</AltitudeMeters>
            <DistanceMeters>NAN</DistanceMeters>
          </Trackpoint>
          <Trackpoint>
            <Time>2019-10-07T09:20:58.000Z</Time>
            <Position>
              <LatitudeDegrees>40.82781071774661540985107421875</LatitudeDegrees>
              <LongitudeDegrees>-5.63870265148580074310302734375</LongitudeDegrees>
            </Position>
            <AltitudeMeters>904.5999755859375</AltitudeMeters>
            <DistanceMeters>NAN</DistanceMeters>
          </Trackpoint>
          <Trackpoint>
            <Time>2019-10-07T09:21:08.000Z</Time>
            <Position>
              <LatitudeDegrees>40.827379636466503143310546875</LatitudeDegrees>
              <LongitudeDegrees>-5.63868957571685314178466796875</LongitudeDegrees>
            </Position>
            <AltitudeMeters>905.79998779296875</AltitudeMeters>
            <DistanceMeters>NAN</DistanceMeters>
          </Trackpoint>
          <Trackpoint>
            <Time>2019-10-07T09:21:09.000Z</Time>
            <Position>
              <LatitudeDegrees>40.8273362182080745697021484375</LatitudeDegrees>
              <LongitudeDegrees>-5.6386864744126796722412109375</LongitudeDegrees>
            </Position>
            <AltitudeMeters>906.20001220703125</AltitudeMeters>
            <DistanceMeters>NAN</DistanceMeters>
          </Trackpoint>
          <Trackpoint>
            <Time>2019-10-07T09:21:16.000Z</Time>
            <Position>
              <LatitudeDegrees>40.82704209722578525543212890625</LatitudeDegrees>
              <LongitudeDegrees>-5.638655126094818115234375</LongitudeDegrees>
            </Position>
            <AltitudeMeters>906.5999755859375</AltitudeMeters>
            <DistanceMeters>NAN</DistanceMeters>
          </Trackpoint>
          <Trackpoint>
            <Time>2019-10-07T09:21:19.000Z</Time>
            <Position>
              <LatitudeDegrees>40.82691636867821216583251953125</LatitudeDegrees>
              <LongitudeDegrees>-5.6386363506317138671875</LongitudeDegrees>
            </Position>
            <AltitudeMeters>907</AltitudeMeters>
            <DistanceMeters>NAN</DistanceMeters>
          </Trackpoint>
          <Trackpoint>
            <Time>2019-10-07T09:21:20.000Z</Time>
            <Position>
              <LatitudeDegrees>40.826874040067195892333984375</LatitudeDegrees>
              <LongitudeDegrees>-5.63862587325274944305419921875</LongitudeDegrees>
            </Position>
            <AltitudeMeters>907.20001220703125</AltitudeMeters>
            <DistanceMeters>NAN</DistanceMeters>
          </Trackpoint>
          <Trackpoint>
            <Time>2019-10-07T09:21:26.000Z</Time>
            <Position>
              <LatitudeDegrees>40.8266230858862400054931640625</LatitudeDegrees>
              <LongitudeDegrees>-5.63856518827378749847412109375</LongitudeDegrees>
            </Position>
            <AltitudeMeters>908.20001220703125</AltitudeMeters>
            <DistanceMeters>NAN</DistanceMeters>
          </Trackpoint>
          <Trackpoint>
            <Time>2019-10-07T09:21:31.000Z</Time>
            <Position>
              <LatitudeDegrees>40.826425440609455108642578125</LatitudeDegrees>
              <LongitudeDegrees>-5.638504922389984130859375</LongitudeDegrees>
            </Position>
            <AltitudeMeters>908.5999755859375</AltitudeMeters>
            <DistanceMeters>NAN</DistanceMeters>
          </Trackpoint>
          <Trackpoint>
            <Time>2019-10-07T09:21:34.000Z</Time>
            <Position>
              <LatitudeDegrees>40.82631002180278301239013671875</LatitudeDegrees>
              <LongitudeDegrees>-5.63846410252153873443603515625</LongitudeDegrees>
            </Position>
            <AltitudeMeters>909.4000244140625</AltitudeMeters>
            <DistanceMeters>NAN</DistanceMeters>
          </Trackpoint>
          <Trackpoint>
            <Time>2019-10-07T09:21:38.000Z</Time>
            <Position>
              <LatitudeDegrees>40.82615864463150501251220703125</LatitudeDegrees>
              <LongitudeDegrees>-5.63840257935225963592529296875</LongitudeDegrees>
            </Position>
            <AltitudeMeters>909.79998779296875</AltitudeMeters>
            <DistanceMeters>NAN</DistanceMeters>
          </Trackpoint>
          <Trackpoint>
            <Time>2019-10-07T09:21:42.000Z</Time>
            <Position>
              <LatitudeDegrees>40.82601229660212993621826171875</LatitudeDegrees>
              <LongitudeDegrees>-5.6383401341736316680908203125</LongitudeDegrees>
            </Position>
            <AltitudeMeters>910.4000244140625</AltitudeMeters>
            <DistanceMeters>NAN</DistanceMeters>
          </Trackpoint>
          <Trackpoint>
            <Time>2019-10-07T09:21:45.000Z</Time>
            <Position>
              <LatitudeDegrees>40.82590970210731029510498046875</LatitudeDegrees>
              <LongitudeDegrees>-5.6382890045642852783203125</LongitudeDegrees>
            </Position>
            <AltitudeMeters>911</AltitudeMeters>
            <DistanceMeters>NAN</DistanceMeters>
          </Trackpoint>
          <Trackpoint>
            <Time>2019-10-07T09:21:48.000Z</Time>
            <Position>
              <LatitudeDegrees>40.8258023299276828765869140625</LatitudeDegrees>
              <LongitudeDegrees>-5.638233684003353118896484375</LongitudeDegrees>
            </Position>
            <AltitudeMeters>911.4000244140625</AltitudeMeters>
            <DistanceMeters>NAN</DistanceMeters>
          </Trackpoint>
          <Trackpoint>
            <Time>2019-10-07T09:21:53.000Z</Time>
            <Position>
              <LatitudeDegrees>40.8256242983043193817138671875</LatitudeDegrees>
              <LongitudeDegrees>-5.63814173452556133270263671875</LongitudeDegrees>
            </Position>
            <AltitudeMeters>912.20001220703125</AltitudeMeters>
            <DistanceMeters>NAN</DistanceMeters>
          </Trackpoint>
          <Trackpoint>
            <Time>2019-10-07T09:21:54.000Z</Time>
            <Position>
              <LatitudeDegrees>40.82558892667293548583984375</LatitudeDegrees>
              <LongitudeDegrees>-5.638119690120220184326171875</LongitudeDegrees>
            </Position>
            <AltitudeMeters>912.5999755859375</AltitudeMeters>
            <DistanceMeters>NAN</DistanceMeters>
          </Trackpoint>
          <Trackpoint>
            <Time>2019-10-07T09:22:03.000Z</Time>
            <Position>
              <LatitudeDegrees>40.8252678997814655303955078125</LatitudeDegrees>
              <LongitudeDegrees>-5.6379411555826663970947265625</LongitudeDegrees>
            </Position>
            <AltitudeMeters>913.79998779296875</AltitudeMeters>
            <DistanceMeters>NAN</DistanceMeters>
          </Trackpoint>
          <Trackpoint>
            <Time>2019-10-07T09:22:09.000Z</Time>
            <Position>
              <LatitudeDegrees>40.82507972605526447296142578125</LatitudeDegrees>
              <LongitudeDegrees>-5.6378325261175632476806640625</LongitudeDegrees>
            </Position>
            <AltitudeMeters>914.79998779296875</AltitudeMeters>
            <DistanceMeters>NAN</DistanceMeters>
          </Trackpoint>
          <Trackpoint>
            <Time>2019-10-07T09:22:13.000Z</Time>
            <Position>
              <LatitudeDegrees>40.824952907860279083251953125</LatitudeDegrees>
              <LongitudeDegrees>-5.63776371069252490997314453125</LongitudeDegrees>
            </Position>
            <AltitudeMeters>915.5999755859375</AltitudeMeters>
            <DistanceMeters>NAN</DistanceMeters>
          </Trackpoint>
          <Trackpoint>
            <Time>2019-10-07T09:22:14.000Z</Time>
            <Position>
              <LatitudeDegrees>40.82492172718048095703125</LatitudeDegrees>
              <LongitudeDegrees>-5.637743175029754638671875</LongitudeDegrees>
            </Position>
            <AltitudeMeters>915.79998779296875</AltitudeMeters>
            <DistanceMeters>NAN</DistanceMeters>
          </Trackpoint>
          <Trackpoint>
            <Time>2019-10-07T09:22:18.000Z</Time>
            <Position>
              <LatitudeDegrees>40.82479490898549556732177734375</LatitudeDegrees>
              <LongitudeDegrees>-5.63767234794795513153076171875</LongitudeDegrees>
            </Position>
            <AltitudeMeters>916.79998779296875</AltitudeMeters>
            <DistanceMeters>NAN</DistanceMeters>
          </Trackpoint>
          <Trackpoint>
            <Time>2019-10-07T09:22:22.000Z</Time>
            <Position>
              <LatitudeDegrees>40.82466892898082733154296875</LatitudeDegrees>
              <LongitudeDegrees>-5.63760361634194850921630859375</LongitudeDegrees>
            </Position>
            <AltitudeMeters>917</AltitudeMeters>
            <DistanceMeters>NAN</DistanceMeters>
          </Trackpoint>
          <Trackpoint>
            <Time>2019-10-07T09:22:27.000Z</Time>
            <Position>
              <LatitudeDegrees>40.8245141990482807159423828125</LatitudeDegrees>
              <LongitudeDegrees>-5.63751510344445705413818359375</LongitudeDegrees>
            </Position>
            <AltitudeMeters>918</AltitudeMeters>
            <DistanceMeters>NAN</DistanceMeters>
          </Trackpoint>
          <Trackpoint>
            <Time>2019-10-07T09:22:32.000Z</Time>
            <Position>
              <LatitudeDegrees>40.82435335032641887664794921875</LatitudeDegrees>
              <LongitudeDegrees>-5.637420974671840667724609375</LongitudeDegrees>
            </Position>
            <AltitudeMeters>918</AltitudeMeters>
            <DistanceMeters>NAN</DistanceMeters>
          </Trackpoint>
          <Trackpoint>
            <Time>2019-10-07T09:22:40.000Z</Time>
            <Position>
              <LatitudeDegrees>40.824092589318752288818359375</LatitudeDegrees>
              <LongitudeDegrees>-5.63726884312927722930908203125</LongitudeDegrees>
            </Position>
            <AltitudeMeters>919.20001220703125</AltitudeMeters>
            <DistanceMeters>NAN</DistanceMeters>
          </Trackpoint>
          <Trackpoint>
            <Time>2019-10-07T09:22:43.000Z</Time>
            <Position>
              <LatitudeDegrees>40.8239958621561527252197265625</LatitudeDegrees>
              <LongitudeDegrees>-5.6372161209583282470703125</LongitudeDegrees>
            </Position>
            <AltitudeMeters>919.20001220703125</AltitudeMeters>
            <DistanceMeters>NAN</DistanceMeters>
          </Trackpoint>
          <Trackpoint>
            <Time>2019-10-07T09:22:51.000Z</Time>
            <Position>
              <LatitudeDegrees>40.823735184967517852783203125</LatitudeDegrees>
              <LongitudeDegrees>-5.63706667162477970123291015625</LongitudeDegrees>
            </Position>
            <AltitudeMeters>920.20001220703125</AltitudeMeters>
            <DistanceMeters>NAN</DistanceMeters>
          </Trackpoint>
          <Trackpoint>
            <Time>2019-10-07T09:22:55.000Z</Time>
            <Position>
              <LatitudeDegrees>40.82360752858221530914306640625</LatitudeDegrees>
              <LongitudeDegrees>-5.63699056394398212432861328125</LongitudeDegrees>
            </Position>
            <AltitudeMeters>920.5999755859375</AltitudeMeters>
            <DistanceMeters>NAN</DistanceMeters>
          </Trackpoint>
          <Trackpoint>
            <Time>2019-10-07T09:23:00.000Z</Time>
            <Position>
              <LatitudeDegrees>40.82344458438456058502197265625</LatitudeDegrees>
              <LongitudeDegrees>-5.63690221868455410003662109375</LongitudeDegrees>
            </Position>
            <AltitudeMeters>921.4000244140625</AltitudeMeters>
            <DistanceMeters>NAN</DistanceMeters>
          </Trackpoint>
          <Trackpoint>
            <Time>2019-10-07T09:23:05.000Z</Time>
            <Position>
              <LatitudeDegrees>40.8232854120433330535888671875</LatitudeDegrees>
              <LongitudeDegrees>-5.63680448569357395172119140625</LongitudeDegrees>
            </Position>
            <AltitudeMeters>922.20001220703125</AltitudeMeters>
            <DistanceMeters>NAN</DistanceMeters>
          </Trackpoint>
          <Trackpoint>
            <Time>2019-10-07T09:23:07.000Z</Time>
            <Position>
              <LatitudeDegrees>40.8232213743031024932861328125</LatitudeDegrees>
              <LongitudeDegrees>-5.6367628276348114013671875</LongitudeDegrees>
            </Position>
            <AltitudeMeters>922.4000244140625</AltitudeMeters>
            <DistanceMeters>NAN</DistanceMeters>
          </Trackpoint>
          <Trackpoint>
            <Time>2019-10-07T09:23:15.000Z</Time>
            <Position>
              <LatitudeDegrees>40.82297821529209613800048828125</LatitudeDegrees>
              <LongitudeDegrees>-5.63659409992396831512451171875</LongitudeDegrees>
            </Position>
            <AltitudeMeters>923.20001220703125</AltitudeMeters>
            <DistanceMeters>NAN</DistanceMeters>
          </Trackpoint>
          <Trackpoint>
            <Time>2019-10-07T09:23:20.000Z</Time>
            <Position>
              <LatitudeDegrees>40.82283052615821361541748046875</LatitudeDegrees>
              <LongitudeDegrees>-5.63646711409091949462890625</LongitudeDegrees>
            </Position>
            <AltitudeMeters>923.79998779296875</AltitudeMeters>
            <DistanceMeters>NAN</DistanceMeters>
          </Trackpoint>
          <Trackpoint>
            <Time>2019-10-07T09:23:23.000Z</Time>
            <Position>
              <LatitudeDegrees>40.8227439410984516143798828125</LatitudeDegrees>
              <LongitudeDegrees>-5.6363928504288196563720703125</LongitudeDegrees>
            </Position>
            <AltitudeMeters>924</AltitudeMeters>
            <DistanceMeters>NAN</DistanceMeters>
          </Trackpoint>
          <Trackpoint>
            <Time>2019-10-07T09:23:29.000Z</Time>
            <Position>
              <LatitudeDegrees>40.82257546484470367431640625</LatitudeDegrees>
              <LongitudeDegrees>-5.6362369470298290252685546875</LongitudeDegrees>
            </Position>
            <AltitudeMeters>925</AltitudeMeters>
            <DistanceMeters>NAN</DistanceMeters>
          </Trackpoint>
          <Trackpoint>
            <Time>2019-10-07T09:23:31.000Z</Time>
            <Position>
              <LatitudeDegrees>40.82251871936023235321044921875</LatitudeDegrees>
              <LongitudeDegrees>-5.63618187792599201202392578125</LongitudeDegrees>
            </Position>
            <AltitudeMeters>925</AltitudeMeters>
            <DistanceMeters>NAN</DistanceMeters>
          </Trackpoint>
          <Trackpoint>
            <Time>2019-10-07T09:23:36.000Z</Time>
            <Position>
              <LatitudeDegrees>40.82238175906240940093994140625</LatitudeDegrees>
              <LongitudeDegrees>-5.63604005612432956695556640625</LongitudeDegrees>
            </Position>
            <AltitudeMeters>926</AltitudeMeters>
            <DistanceMeters>NAN</DistanceMeters>
          </Trackpoint>
          <Trackpoint>
            <Time>2019-10-07T09:23:40.000Z</Time>
            <Position>
              <LatitudeDegrees>40.82228310406208038330078125</LatitudeDegrees>
              <LongitudeDegrees>-5.6359368748962879180908203125</LongitudeDegrees>
            </Position>
            <AltitudeMeters>926.4000244140625</AltitudeMeters>
            <DistanceMeters>NAN</DistanceMeters>
          </Trackpoint>
          <Trackpoint>
            <Time>2019-10-07T09:23:43.000Z</Time>
            <Position>
              <LatitudeDegrees>40.822213031351566314697265625</LatitudeDegrees>
              <LongitudeDegrees>-5.63586018048226833343505859375</LongitudeDegrees>
            </Position>
            <AltitudeMeters>927.20001220703125</AltitudeMeters>
            <DistanceMeters>NAN</DistanceMeters>
          </Trackpoint>
          <Trackpoint>
            <Time>2019-10-07T09:23:48.000Z</Time>
            <Position>
              <LatitudeDegrees>40.82210247404873371124267578125</LatitudeDegrees>
              <LongitudeDegrees>-5.635737888514995574951171875</LongitudeDegrees>
            </Position>
            <AltitudeMeters>928</AltitudeMeters>
            <DistanceMeters>NAN</DistanceMeters>
          </Trackpoint>
          <Trackpoint>
            <Time>2019-10-07T09:23:49.000Z</Time>
            <Position>
              <LatitudeDegrees>40.8220807649195194244384765625</LatitudeDegrees>
              <LongitudeDegrees>-5.63571450300514698028564453125</LongitudeDegrees>
            </Position>
            <AltitudeMeters>928.4000244140625</AltitudeMeters>
            <DistanceMeters>NAN</DistanceMeters>
          </Trackpoint>
          <Trackpoint>
            <Time>2019-10-07T09:23:53.000Z</Time>
            <Position>
              <LatitudeDegrees>40.82200004719197750091552734375</LatitudeDegrees>
              <LongitudeDegrees>-5.6356173567473888397216796875</LongitudeDegrees>
            </Position>
            <AltitudeMeters>929.5999755859375</AltitudeMeters>
            <DistanceMeters>NAN</DistanceMeters>
          </Trackpoint>
          <Trackpoint>
            <Time>2019-10-07T09:23:59.000Z</Time>
            <Position>
              <LatitudeDegrees>40.82187146879732608795166015625</LatitudeDegrees>
              <LongitudeDegrees>-5.635479390621185302734375</LongitudeDegrees>
            </Position>
            <AltitudeMeters>930.5999755859375</AltitudeMeters>
            <DistanceMeters>NAN</DistanceMeters>
          </Trackpoint>
          <Trackpoint>
            <Time>2019-10-07T09:24:04.000Z</Time>
            <Position>
              <LatitudeDegrees>40.8217659406363964080810546875</LatitudeDegrees>
              <LongitudeDegrees>-5.6353581883013248443603515625</LongitudeDegrees>
            </Position>
            <AltitudeMeters>931.4000244140625</AltitudeMeters>
            <DistanceMeters>NAN</DistanceMeters>
          </Trackpoint>
          <Trackpoint>
            <Time>2019-10-07T09:24:06.000Z</Time>
            <Position>
              <LatitudeDegrees>40.82172143273055553436279296875</LatitudeDegrees>
              <LongitudeDegrees>-5.63531250692903995513916015625</LongitudeDegrees>
            </Position>
            <AltitudeMeters>932</AltitudeMeters>
            <DistanceMeters>NAN</DistanceMeters>
          </Trackpoint>
          <Trackpoint>
            <Time>2019-10-07T09:24:08.000Z</Time>
            <Position>
              <LatitudeDegrees>40.8216730691492557525634765625</LatitudeDegrees>
              <LongitudeDegrees>-5.63526338897645473480224609375</LongitudeDegrees>
            </Position>
            <AltitudeMeters>932</AltitudeMeters>
            <DistanceMeters>NAN</DistanceMeters>
          </Trackpoint>
          <Trackpoint>
            <Time>2019-10-07T09:24:12.000Z</Time>
            <Position>
              <LatitudeDegrees>40.82157902419567108154296875</LatitudeDegrees>
              <LongitudeDegrees>-5.63516087830066680908203125</LongitudeDegrees>
            </Position>
            <AltitudeMeters>933</AltitudeMeters>
            <DistanceMeters>NAN</DistanceMeters>
          </Trackpoint>
          <Trackpoint>
            <Time>2019-10-07T09:24:17.000Z</Time>
            <Position>
              <LatitudeDegrees>40.82146410830318927764892578125</LatitudeDegrees>
              <LongitudeDegrees>-5.63503674231469631195068359375</LongitudeDegrees>
            </Position>
            <AltitudeMeters>933.79998779296875</AltitudeMeters>
            <DistanceMeters>NAN</DistanceMeters>
          </Trackpoint>
          <Trackpoint>
            <Time>2019-10-07T09:24:21.000Z</Time>
            <Position>
              <LatitudeDegrees>40.82136838696897029876708984375</LatitudeDegrees>
              <LongitudeDegrees>-5.634929202497005462646484375</LongitudeDegrees>
            </Position>
            <AltitudeMeters>934.20001220703125</AltitudeMeters>
            <DistanceMeters>NAN</DistanceMeters>
          </Trackpoint>
          <Trackpoint>
            <Time>2019-10-07T09:24:27.000Z</Time>
            <Position>
              <LatitudeDegrees>40.821206867694854736328125</LatitudeDegrees>
              <LongitudeDegrees>-5.634755194187164306640625</LongitudeDegrees>
            </Position>
            <AltitudeMeters>934.79998779296875</AltitudeMeters>
            <DistanceMeters>NAN</DistanceMeters>
          </Trackpoint>
          <Trackpoint>
            <Time>2019-10-07T09:24:30.000Z</Time>
            <Position>
              <LatitudeDegrees>40.82112413831055164337158203125</LatitudeDegrees>
              <LongitudeDegrees>-5.6346648372709751129150390625</LongitudeDegrees>
            </Position>
            <AltitudeMeters>935.5999755859375</AltitudeMeters>
            <DistanceMeters>NAN</DistanceMeters>
          </Trackpoint>
          <Trackpoint>
            <Time>2019-10-07T09:24:36.000Z</Time>
            <Position>
              <LatitudeDegrees>40.82095205783843994140625</LatitudeDegrees>
              <LongitudeDegrees>-5.6344829499721527099609375</LongitudeDegrees>
            </Position>
            <AltitudeMeters>935.5999755859375</AltitudeMeters>
            <DistanceMeters>NAN</DistanceMeters>
          </Trackpoint>
          <Trackpoint>
            <Time>2019-10-07T09:24:46.000Z</Time>
            <Position>
              <LatitudeDegrees>40.820643939077854156494140625</LatitudeDegrees>
              <LongitudeDegrees>-5.63419218175113201141357421875</LongitudeDegrees>
            </Position>
            <AltitudeMeters>936.20001220703125</AltitudeMeters>
            <DistanceMeters>NAN</DistanceMeters>
          </Trackpoint>
          <Trackpoint>
            <Time>2019-10-07T09:24:52.000Z</Time>
            <Position>
              <LatitudeDegrees>40.82046858966350555419921875</LatitudeDegrees>
              <LongitudeDegrees>-5.6340147368609905242919921875</LongitudeDegrees>
            </Position>
            <AltitudeMeters>936.79998779296875</AltitudeMeters>
            <DistanceMeters>NAN</DistanceMeters>
          </Trackpoint>
          <Trackpoint>
            <Time>2019-10-07T09:24:55.000Z</Time>
            <Position>
              <LatitudeDegrees>40.820385776460170745849609375</LatitudeDegrees>
              <LongitudeDegrees>-5.6339299120008945465087890625</LongitudeDegrees>
            </Position>
            <AltitudeMeters>937.5999755859375</AltitudeMeters>
            <DistanceMeters>NAN</DistanceMeters>
          </Trackpoint>
          <Trackpoint>
            <Time>2019-10-07T09:24:59.000Z</Time>
            <Position>
              <LatitudeDegrees>40.82027974538505077362060546875</LatitudeDegrees>
              <LongitudeDegrees>-5.63381650485098361968994140625</LongitudeDegrees>
            </Position>
            <AltitudeMeters>938</AltitudeMeters>
            <DistanceMeters>NAN</DistanceMeters>
          </Trackpoint>
          <Trackpoint>
            <Time>2019-10-07T09:25:03.000Z</Time>
            <Position>
              <LatitudeDegrees>40.820183269679546356201171875</LatitudeDegrees>
              <LongitudeDegrees>-5.6337056122720241546630859375</LongitudeDegrees>
            </Position>
            <AltitudeMeters>939</AltitudeMeters>
            <DistanceMeters>NAN</DistanceMeters>
          </Trackpoint>
          <Trackpoint>
            <Time>2019-10-07T09:25:05.000Z</Time>
            <Position>
              <LatitudeDegrees>40.82013490609824657440185546875</LatitudeDegrees>
              <LongitudeDegrees>-5.63365138135850429534912109375</LongitudeDegrees>
            </Position>
            <AltitudeMeters>939.4000244140625</AltitudeMeters>
            <DistanceMeters>NAN</DistanceMeters>
          </Trackpoint>
          <Trackpoint>
            <Time>2019-10-07T09:25:12.000Z</Time>
            <Position>
              <LatitudeDegrees>40.81995754502713680267333984375</LatitudeDegrees>
              <LongitudeDegrees>-5.633470751345157623291015625</LongitudeDegrees>
            </Position>
            <AltitudeMeters>940.4000244140625</AltitudeMeters>
            <DistanceMeters>NAN</DistanceMeters>
          </Trackpoint>
          <Trackpoint>
            <Time>2019-10-07T09:25:14.000Z</Time>
            <Position>
              <LatitudeDegrees>40.81991060636937618255615234375</LatitudeDegrees>
              <LongitudeDegrees>-5.63341668806970119476318359375</LongitudeDegrees>
            </Position>
            <AltitudeMeters>940.5999755859375</AltitudeMeters>
            <DistanceMeters>NAN</DistanceMeters>
          </Trackpoint>
          <Trackpoint>
            <Time>2019-10-07T09:25:22.000Z</Time>
            <Position>
              <LatitudeDegrees>40.81971832551062107086181640625</LatitudeDegrees>
              <LongitudeDegrees>-5.633205883204936981201171875</LongitudeDegrees>
            </Position>
            <AltitudeMeters>941.4000244140625</AltitudeMeters>
            <DistanceMeters>NAN</DistanceMeters>
          </Trackpoint>
          <Trackpoint>
            <Time>2019-10-07T09:25:25.000Z</Time>
            <Position>
              <LatitudeDegrees>40.81963920034468173980712890625</LatitudeDegrees>
              <LongitudeDegrees>-5.63313312828540802001953125</LongitudeDegrees>
            </Position>
            <AltitudeMeters>941.79998779296875</AltitudeMeters>
            <DistanceMeters>NAN</DistanceMeters>
          </Trackpoint>
          <Trackpoint>
            <Time>2019-10-07T09:25:27.000Z</Time>
            <Position>
              <LatitudeDegrees>40.81959142349660396575927734375</LatitudeDegrees>
              <LongitudeDegrees>-5.63308208249509334564208984375</LongitudeDegrees>
            </Position>
            <AltitudeMeters>942.4000244140625</AltitudeMeters>
            <DistanceMeters>NAN</DistanceMeters>
          </Trackpoint>
          <Trackpoint>
            <Time>2019-10-07T09:25:32.000Z</Time>
            <Position>
              <LatitudeDegrees>40.8194827102124691009521484375</LatitudeDegrees>
              <LongitudeDegrees>-5.63294495455920696258544921875</LongitudeDegrees>
            </Position>
            <AltitudeMeters>943.5999755859375</AltitudeMeters>
            <DistanceMeters>NAN</DistanceMeters>
          </Trackpoint>
          <Trackpoint>
            <Time>2019-10-07T09:25:33.000Z</Time>
            <Position>
              <LatitudeDegrees>40.8194599114358425140380859375</LatitudeDegrees>
              <LongitudeDegrees>-5.63292031176388263702392578125</LongitudeDegrees>
            </Position>
            <AltitudeMeters>943.5999755859375</AltitudeMeters>
            <DistanceMeters>NAN</DistanceMeters>
          </Trackpoint>
          <Trackpoint>
            <Time>2019-10-07T09:25:40.000Z</Time>
            <Position>
              <LatitudeDegrees>40.81928883679211139678955078125</LatitudeDegrees>
              <LongitudeDegrees>-5.632738173007965087890625</LongitudeDegrees>
            </Position>
            <AltitudeMeters>944.20001220703125</AltitudeMeters>
            <DistanceMeters>NAN</DistanceMeters>
          </Trackpoint>
          <Trackpoint>
            <Time>2019-10-07T09:25:42.000Z</Time>
            <Position>
              <LatitudeDegrees>40.81924038939177989959716796875</LatitudeDegrees>
              <LongitudeDegrees>-5.63268394209444522857666015625</LongitudeDegrees>
            </Position>
            <AltitudeMeters>944.79998779296875</AltitudeMeters>
            <DistanceMeters>NAN</DistanceMeters>
          </Trackpoint>
          <Trackpoint>
            <Time>2019-10-07T09:25:49.000Z</Time>
            <Position>
              <LatitudeDegrees>40.81907593645155429840087890625</LatitudeDegrees>
              <LongitudeDegrees>-5.632503144443035125732421875</LongitudeDegrees>
            </Position>
            <AltitudeMeters>946</AltitudeMeters>
            <DistanceMeters>NAN</DistanceMeters>
          </Trackpoint>
          <Trackpoint>
            <Time>2019-10-07T09:25:57.000Z</Time>
            <Position>
              <LatitudeDegrees>40.81888700835406780242919921875</LatitudeDegrees>
              <LongitudeDegrees>-5.63229619525372982025146484375</LongitudeDegrees>
            </Position>
            <AltitudeMeters>947.20001220703125</AltitudeMeters>
            <DistanceMeters>NAN</DistanceMeters>
          </Trackpoint>
          <Trackpoint>
            <Time>2019-10-07T09:26:00.000Z</Time>
            <Position>
              <LatitudeDegrees>40.81881592981517314910888671875</LatitudeDegrees>
              <LongitudeDegrees>-5.632222853600978851318359375</LongitudeDegrees>
            </Position>
            <AltitudeMeters>947.79998779296875</AltitudeMeters>
            <DistanceMeters>NAN</DistanceMeters>
          </Trackpoint>
          <Trackpoint>
            <Time>2019-10-07T09:26:04.000Z</Time>
            <Position>
              <LatitudeDegrees>40.81872054375708103179931640625</LatitudeDegrees>
              <LongitudeDegrees>-5.632123611867427825927734375</LongitudeDegrees>
            </Position>
            <AltitudeMeters>948.20001220703125</AltitudeMeters>
            <DistanceMeters>NAN</DistanceMeters>
          </Trackpoint>
          <Trackpoint>
            <Time>2019-10-07T09:26:09.000Z</Time>
            <Position>
              <LatitudeDegrees>40.81860420294106006622314453125</LatitudeDegrees>
              <LongitudeDegrees>-5.631998218595981597900390625</LongitudeDegrees>
            </Position>
            <AltitudeMeters>949</AltitudeMeters>
            <DistanceMeters>NAN</DistanceMeters>
          </Trackpoint>
          <Trackpoint>
            <Time>2019-10-07T09:26:13.000Z</Time>
            <Position>
              <LatitudeDegrees>40.8185144327580928802490234375</LatitudeDegrees>
              <LongitudeDegrees>-5.6318954564630985260009765625</LongitudeDegrees>
            </Position>
            <AltitudeMeters>949.4000244140625</AltitudeMeters>
            <DistanceMeters>NAN</DistanceMeters>
          </Trackpoint>
          <Trackpoint>
            <Time>2019-10-07T09:26:17.000Z</Time>
            <Position>
              <LatitudeDegrees>40.81842483021318912506103515625</LatitudeDegrees>
              <LongitudeDegrees>-5.6317968852818012237548828125</LongitudeDegrees>
            </Position>
            <AltitudeMeters>950.4000244140625</AltitudeMeters>
            <DistanceMeters>NAN</DistanceMeters>
          </Trackpoint>
          <Trackpoint>
            <Time>2019-10-07T09:26:18.000Z</Time>
            <Position>
              <LatitudeDegrees>40.8184027858078479766845703125</LatitudeDegrees>
              <LongitudeDegrees>-5.63177014701068401336669921875</LongitudeDegrees>
            </Position>
            <AltitudeMeters>950.79998779296875</AltitudeMeters>
            <DistanceMeters>NAN</DistanceMeters>
          </Trackpoint>
          <Trackpoint>
            <Time>2019-10-07T09:26:27.000Z</Time>
            <Position>
              <LatitudeDegrees>40.81819633953273296356201171875</LatitudeDegrees>
              <LongitudeDegrees>-5.6315367110073566436767578125</LongitudeDegrees>
            </Position>
            <AltitudeMeters>952</AltitudeMeters>
            <DistanceMeters>NAN</DistanceMeters>
          </Trackpoint>
          <Trackpoint>
            <Time>2019-10-07T09:26:31.000Z</Time>
            <Position>
              <LatitudeDegrees>40.81810380332171916961669921875</LatitudeDegrees>
              <LongitudeDegrees>-5.6314344517886638641357421875</LongitudeDegrees>
            </Position>
            <AltitudeMeters>953.20001220703125</AltitudeMeters>
            <DistanceMeters>NAN</DistanceMeters>
          </Trackpoint>
          <Trackpoint>
            <Time>2019-10-07T09:26:36.000Z</Time>
            <Position>
              <LatitudeDegrees>40.8179914020001888275146484375</LatitudeDegrees>
              <LongitudeDegrees>-5.631304867565631866455078125</LongitudeDegrees>
            </Position>
            <AltitudeMeters>954.4000244140625</AltitudeMeters>
            <DistanceMeters>NAN</DistanceMeters>
          </Trackpoint>
          <Trackpoint>
            <Time>2019-10-07T09:26:37.000Z</Time>
            <Position>
              <LatitudeDegrees>40.8179702796041965484619140625</LatitudeDegrees>
              <LongitudeDegrees>-5.6312788836658000946044921875</LongitudeDegrees>
            </Position>
            <AltitudeMeters>954</AltitudeMeters>
            <DistanceMeters>NAN</DistanceMeters>
          </Trackpoint>
          <Trackpoint>
            <Time>2019-10-07T09:26:43.000Z</Time>
            <Position>
              <LatitudeDegrees>40.81783491186797618865966796875</LatitudeDegrees>
              <LongitudeDegrees>-5.63113664276897907257080078125</LongitudeDegrees>
            </Position>
            <AltitudeMeters>955.5999755859375</AltitudeMeters>
            <DistanceMeters>NAN</DistanceMeters>
          </Trackpoint>
          <Trackpoint>
            <Time>2019-10-07T09:26:45.000Z</Time>
            <Position>
              <LatitudeDegrees>40.81779115833342075347900390625</LatitudeDegrees>
              <LongitudeDegrees>-5.63109322451055049896240234375</LongitudeDegrees>
            </Position>
            <AltitudeMeters>955.79998779296875</AltitudeMeters>
            <DistanceMeters>NAN</DistanceMeters>
          </Trackpoint>
          <Trackpoint>
            <Time>2019-10-07T09:26:51.000Z</Time>
            <Position>
              <LatitudeDegrees>40.8176515996456146240234375</LatitudeDegrees>
              <LongitudeDegrees>-5.63096028752624988555908203125</LongitudeDegrees>
            </Position>
            <AltitudeMeters>956.5999755859375</AltitudeMeters>
            <DistanceMeters>NAN</DistanceMeters>
          </Trackpoint>
          <Trackpoint>
            <Time>2019-10-07T09:26:54.000Z</Time>
            <Position>
              <LatitudeDegrees>40.81758228130638599395751953125</LatitudeDegrees>
              <LongitudeDegrees>-5.63088451512157917022705078125</LongitudeDegrees>
            </Position>
            <AltitudeMeters>957.4000244140625</AltitudeMeters>
            <DistanceMeters>NAN</DistanceMeters>
          </Trackpoint>
          <Trackpoint>
            <Time>2019-10-07T09:26:55.000Z</Time>
            <Position>
              <LatitudeDegrees>40.817561410367488861083984375</LatitudeDegrees>
              <LongitudeDegrees>-5.63085869885981082916259765625</LongitudeDegrees>
            </Position>
            <AltitudeMeters>957.5999755859375</AltitudeMeters>
            <DistanceMeters>NAN</DistanceMeters>
          </Trackpoint>
          <Trackpoint>
            <Time>2019-10-07T09:26:59.000Z</Time>
            <Position>
              <LatitudeDegrees>40.81747465766966342926025390625</LatitudeDegrees>
              <LongitudeDegrees>-5.63075845129787921905517578125</LongitudeDegrees>
            </Position>
            <AltitudeMeters>958.5999755859375</AltitudeMeters>
            <DistanceMeters>NAN</DistanceMeters>
          </Trackpoint>
          <Trackpoint>
            <Time>2019-10-07T09:27:02.000Z</Time>
            <Position>
              <LatitudeDegrees>40.81741028465330600738525390625</LatitudeDegrees>
              <LongitudeDegrees>-5.63068435527384281158447265625</LongitudeDegrees>
            </Position>
            <AltitudeMeters>959.5999755859375</AltitudeMeters>
            <DistanceMeters>NAN</DistanceMeters>
          </Trackpoint>
          <Trackpoint>
            <Time>2019-10-07T09:27:04.000Z</Time>
            <Position>
              <LatitudeDegrees>40.81736871041357517242431640625</LatitudeDegrees>
              <LongitudeDegrees>-5.63063791953027248382568359375</LongitudeDegrees>
            </Position>
            <AltitudeMeters>959.79998779296875</AltitudeMeters>
            <DistanceMeters>NAN</DistanceMeters>
          </Trackpoint>
          <Trackpoint>
            <Time>2019-10-07T09:27:10.000Z</Time>
            <Position>
              <LatitudeDegrees>40.8172373659908771514892578125</LatitudeDegrees>
              <LongitudeDegrees>-5.63050716184079647064208984375</LongitudeDegrees>
            </Position>
            <AltitudeMeters>961</AltitudeMeters>
            <DistanceMeters>NAN</DistanceMeters>
          </Trackpoint>
          <Trackpoint>
            <Time>2019-10-07T09:27:12.000Z</Time>
            <Position>
              <LatitudeDegrees>40.8171921037137508392333984375</LatitudeDegrees>
              <LongitudeDegrees>-5.63046030700206756591796875</LongitudeDegrees>
            </Position>
            <AltitudeMeters>961</AltitudeMeters>
            <DistanceMeters>NAN</DistanceMeters>
          </Trackpoint>
          <Trackpoint>
            <Time>2019-10-07T09:27:17.000Z</Time>
            <Position>
              <LatitudeDegrees>40.81708003766834735870361328125</LatitudeDegrees>
              <LongitudeDegrees>-5.63034254126250743865966796875</LongitudeDegrees>
            </Position>
            <AltitudeMeters>962.20001220703125</AltitudeMeters>
            <DistanceMeters>NAN</DistanceMeters>
          </Trackpoint>
          <Trackpoint>
            <Time>2019-10-07T09:27:20.000Z</Time>
            <Position>
              <LatitudeDegrees>40.81701097078621387481689453125</LatitudeDegrees>
              <LongitudeDegrees>-5.63028068281710147857666015625</LongitudeDegrees>
            </Position>
            <AltitudeMeters>962.4000244140625</AltitudeMeters>
            <DistanceMeters>NAN</DistanceMeters>
          </Trackpoint>
          <Trackpoint>
            <Time>2019-10-07T09:27:22.000Z</Time>
            <Position>
              <LatitudeDegrees>40.8169662952423095703125</LatitudeDegrees>
              <LongitudeDegrees>-5.63023810274899005889892578125</LongitudeDegrees>
            </Position>
            <AltitudeMeters>963.20001220703125</AltitudeMeters>
            <DistanceMeters>NAN</DistanceMeters>
          </Trackpoint>
          <Trackpoint>
            <Time>2019-10-07T09:27:29.000Z</Time>
            <Position>
              <LatitudeDegrees>40.8168082125484943389892578125</LatitudeDegrees>
              <LongitudeDegrees>-5.63006778247654438018798828125</LongitudeDegrees>
            </Position>
            <AltitudeMeters>964.4000244140625</AltitudeMeters>
            <DistanceMeters>NAN</DistanceMeters>
          </Trackpoint>
          <Trackpoint>
            <Time>2019-10-07T09:27:30.000Z</Time>
            <Position>
              <LatitudeDegrees>40.81678457558155059814453125</LatitudeDegrees>
              <LongitudeDegrees>-5.630042552947998046875</LongitudeDegrees>
            </Position>
            <AltitudeMeters>964.5999755859375</AltitudeMeters>
            <DistanceMeters>NAN</DistanceMeters>
          </Trackpoint>
          <Trackpoint>
            <Time>2019-10-07T09:27:35.000Z</Time>
            <Position>
              <LatitudeDegrees>40.81666680984199047088623046875</LatitudeDegrees>
              <LongitudeDegrees>-5.6299270503222942352294921875</LongitudeDegrees>
            </Position>
            <AltitudeMeters>965.4000244140625</AltitudeMeters>
            <DistanceMeters>NAN</DistanceMeters>
          </Trackpoint>
          <Trackpoint>
            <Time>2019-10-07T09:27:39.000Z</Time>
            <Position>
              <LatitudeDegrees>40.81657494418323040008544921875</LatitudeDegrees>
              <LongitudeDegrees>-5.6298294849693775177001953125</LongitudeDegrees>
            </Position>
            <AltitudeMeters>966.20001220703125</AltitudeMeters>
            <DistanceMeters>NAN</DistanceMeters>
          </Trackpoint>
          <Trackpoint>
            <Time>2019-10-07T09:27:41.000Z</Time>
            <Position>
              <LatitudeDegrees>40.81652565859258174896240234375</LatitudeDegrees>
              <LongitudeDegrees>-5.62978564761579036712646484375</LongitudeDegrees>
            </Position>
            <AltitudeMeters>966.5999755859375</AltitudeMeters>
            <DistanceMeters>NAN</DistanceMeters>
          </Trackpoint>
          <Trackpoint>
            <Time>2019-10-07T09:27:47.000Z</Time>
            <Position>
              <LatitudeDegrees>40.81636941991746425628662109375</LatitudeDegrees>
              <LongitudeDegrees>-5.62966980971395969390869140625</LongitudeDegrees>
            </Position>
            <AltitudeMeters>967.4000244140625</AltitudeMeters>
            <DistanceMeters>NAN</DistanceMeters>
          </Trackpoint>
          <Trackpoint>
            <Time>2019-10-07T09:27:48.000Z</Time>
            <Position>
              <LatitudeDegrees>40.81634159199893474578857421875</LatitudeDegrees>
              <LongitudeDegrees>-5.6296507827937602996826171875</LongitudeDegrees>
            </Position>
            <AltitudeMeters>967.5999755859375</AltitudeMeters>
            <DistanceMeters>NAN</DistanceMeters>
          </Trackpoint>
          <Trackpoint>
            <Time>2019-10-07T09:27:55.000Z</Time>
            <Position>
              <LatitudeDegrees>40.8161534182727336883544921875</LatitudeDegrees>
              <LongitudeDegrees>-5.629501082003116607666015625</LongitudeDegrees>
            </Position>
            <AltitudeMeters>968.79998779296875</AltitudeMeters>
            <DistanceMeters>NAN</DistanceMeters>
          </Trackpoint>
          <Trackpoint>
            <Time>2019-10-07T09:28:04.000Z</Time>
            <Position>
              <LatitudeDegrees>40.81589718349277973175048828125</LatitudeDegrees>
              <LongitudeDegrees>-5.62933285720646381378173828125</LongitudeDegrees>
            </Position>
            <AltitudeMeters>969.79998779296875</AltitudeMeters>
            <DistanceMeters>NAN</DistanceMeters>
          </Trackpoint>
          <Trackpoint>
            <Time>2019-10-07T09:28:07.000Z</Time>
            <Position>
              <LatitudeDegrees>40.8158111013472080230712890625</LatitudeDegrees>
              <LongitudeDegrees>-5.62927384860813617706298828125</LongitudeDegrees>
            </Position>
            <AltitudeMeters>970.20001220703125</AltitudeMeters>
            <DistanceMeters>NAN</DistanceMeters>
          </Trackpoint>
          <Trackpoint>
            <Time>2019-10-07T09:28:15.000Z</Time>
            <Position>
              <LatitudeDegrees>40.8155740611255168914794921875</LatitudeDegrees>
              <LongitudeDegrees>-5.6291398219764232635498046875</LongitudeDegrees>
            </Position>
            <AltitudeMeters>971</AltitudeMeters>
            <DistanceMeters>NAN</DistanceMeters>
          </Trackpoint>
          <Trackpoint>
            <Time>2019-10-07T09:28:21.000Z</Time>
            <Position>
              <LatitudeDegrees>40.8153836242854595184326171875</LatitudeDegrees>
              <LongitudeDegrees>-5.62904451973736286163330078125</LongitudeDegrees>
            </Position>
            <AltitudeMeters>972</AltitudeMeters>
            <DistanceMeters>NAN</DistanceMeters>
          </Trackpoint>
          <Trackpoint>
            <Time>2019-10-07T09:28:24.000Z</Time>
            <Position>
              <LatitudeDegrees>40.8152860589325428009033203125</LatitudeDegrees>
              <LongitudeDegrees>-5.6290006823837757110595703125</LongitudeDegrees>
            </Position>
            <AltitudeMeters>972.4000244140625</AltitudeMeters>
            <DistanceMeters>NAN</DistanceMeters>
          </Trackpoint>
          <Trackpoint>
            <Time>2019-10-07T09:28:29.000Z</Time>
            <Position>
              <LatitudeDegrees>40.81512001343071460723876953125</LatitudeDegrees>
              <LongitudeDegrees>-5.6289383210241794586181640625</LongitudeDegrees>
            </Position>
            <AltitudeMeters>973.20001220703125</AltitudeMeters>
            <DistanceMeters>NAN</DistanceMeters>
          </Trackpoint>
          <Trackpoint>
            <Time>2019-10-07T09:28:34.000Z</Time>
            <Position>
              <LatitudeDegrees>40.81494969315826892852783203125</LatitudeDegrees>
              <LongitudeDegrees>-5.628878809511661529541015625</LongitudeDegrees>
            </Position>
            <AltitudeMeters>973.4000244140625</AltitudeMeters>
            <DistanceMeters>NAN</DistanceMeters>
          </Trackpoint>
          <Trackpoint>
            <Time>2019-10-07T09:28:41.000Z</Time>
            <Position>
              <LatitudeDegrees>40.81470862962305545806884765625</LatitudeDegrees>
              <LongitudeDegrees>-5.62881703488528728485107421875</LongitudeDegrees>
            </Position>
            <AltitudeMeters>974.20001220703125</AltitudeMeters>
            <DistanceMeters>NAN</DistanceMeters>
          </Trackpoint>
          <Trackpoint>
            <Time>2019-10-07T09:28:42.000Z</Time>
            <Position>
              <LatitudeDegrees>40.8146725036203861236572265625</LatitudeDegrees>
              <LongitudeDegrees>-5.6288092397153377532958984375</LongitudeDegrees>
            </Position>
            <AltitudeMeters>974.4000244140625</AltitudeMeters>
            <DistanceMeters>NAN</DistanceMeters>
          </Trackpoint>
          <Trackpoint>
            <Time>2019-10-07T09:28:51.000Z</Time>
            <Position>
              <LatitudeDegrees>40.81434166990220546722412109375</LatitudeDegrees>
              <LongitudeDegrees>-5.6287519074976444244384765625</LongitudeDegrees>
            </Position>
            <AltitudeMeters>975.4000244140625</AltitudeMeters>
            <DistanceMeters>NAN</DistanceMeters>
          </Trackpoint>
          <Trackpoint>
            <Time>2019-10-07T09:29:00.000Z</Time>
            <Position>
              <LatitudeDegrees>40.81400337629020214080810546875</LatitudeDegrees>
              <LongitudeDegrees>-5.62873187474906444549560546875</LongitudeDegrees>
            </Position>
            <AltitudeMeters>975.4000244140625</AltitudeMeters>
            <DistanceMeters>NAN</DistanceMeters>
          </Trackpoint>
          <Trackpoint>
            <Time>2019-10-07T09:29:07.000Z</Time>
            <Position>
              <LatitudeDegrees>40.81372710876166820526123046875</LatitudeDegrees>
              <LongitudeDegrees>-5.628738664090633392333984375</LongitudeDegrees>
            </Position>
            <AltitudeMeters>976.4000244140625</AltitudeMeters>
            <DistanceMeters>NAN</DistanceMeters>
          </Trackpoint>
          <Trackpoint>
            <Time>2019-10-07T09:29:09.000Z</Time>
            <Position>
              <LatitudeDegrees>40.81364714540541172027587890625</LatitudeDegrees>
              <LongitudeDegrees>-5.62874578870832920074462890625</LongitudeDegrees>
            </Position>
            <AltitudeMeters>976.5999755859375</AltitudeMeters>
            <DistanceMeters>NAN</DistanceMeters>
          </Trackpoint>
          <Trackpoint>
            <Time>2019-10-07T09:29:16.000Z</Time>
            <Position>
              <LatitudeDegrees>40.81337548792362213134765625</LatitudeDegrees>
              <LongitudeDegrees>-5.62877780757844448089599609375</LongitudeDegrees>
            </Position>
            <AltitudeMeters>977.20001220703125</AltitudeMeters>
            <DistanceMeters>NAN</DistanceMeters>
          </Trackpoint>
          <Trackpoint>
            <Time>2019-10-07T09:29:20.000Z</Time>
            <Position>
              <LatitudeDegrees>40.81322117708623409271240234375</LatitudeDegrees>
              <LongitudeDegrees>-5.6287985108792781829833984375</LongitudeDegrees>
            </Position>
            <AltitudeMeters>977.4000244140625</AltitudeMeters>
            <DistanceMeters>NAN</DistanceMeters>
          </Trackpoint>
          <Trackpoint>
            <Time>2019-10-07T09:29:21.000Z</Time>
            <Position>
              <LatitudeDegrees>40.8131815306842327117919921875</LatitudeDegrees>
              <LongitudeDegrees>-5.62880429439246654510498046875</LongitudeDegrees>
            </Position>
            <AltitudeMeters>977.5999755859375</AltitudeMeters>
            <DistanceMeters>NAN</DistanceMeters>
          </Trackpoint>
          <Trackpoint>
            <Time>2019-10-07T09:29:26.000Z</Time>
            <Position>
              <LatitudeDegrees>40.81298547796905040740966796875</LatitudeDegrees>
              <LongitudeDegrees>-5.62883631326258182525634765625</LongitudeDegrees>
            </Position>
            <AltitudeMeters>977.5999755859375</AltitudeMeters>
            <DistanceMeters>NAN</DistanceMeters>
          </Trackpoint>
          <Trackpoint>
            <Time>2019-10-07T09:29:30.000Z</Time>
            <Position>
              <LatitudeDegrees>40.81282965838909149169921875</LatitudeDegrees>
              <LongitudeDegrees>-5.6288799829781055450439453125</LongitudeDegrees>
            </Position>
            <AltitudeMeters>977.5999755859375</AltitudeMeters>
            <DistanceMeters>NAN</DistanceMeters>
          </Trackpoint>
          <Trackpoint>
            <Time>2019-10-07T09:29:35.000Z</Time>
            <Position>
              <LatitudeDegrees>40.8126357011497020721435546875</LatitudeDegrees>
              <LongitudeDegrees>-5.6289470382034778594970703125</LongitudeDegrees>
            </Position>
            <AltitudeMeters>978.20001220703125</AltitudeMeters>
            <DistanceMeters>NAN</DistanceMeters>
          </Trackpoint>
          <Trackpoint>
            <Time>2019-10-07T09:29:39.000Z</Time>
            <Position>
              <LatitudeDegrees>40.812484659254550933837890625</LatitudeDegrees>
              <LongitudeDegrees>-5.62900998629629611968994140625</LongitudeDegrees>
            </Position>
            <AltitudeMeters>978</AltitudeMeters>
            <DistanceMeters>NAN</DistanceMeters>
          </Trackpoint>
          <Trackpoint>
            <Time>2019-10-07T09:29:45.000Z</Time>
            <Position>
              <LatitudeDegrees>40.8122628740966320037841796875</LatitudeDegrees>
              <LongitudeDegrees>-5.62911559827625751495361328125</LongitudeDegrees>
            </Position>
            <AltitudeMeters>978.20001220703125</AltitudeMeters>
            <DistanceMeters>NAN</DistanceMeters>
          </Trackpoint>
          <Trackpoint>
            <Time>2019-10-07T09:29:46.000Z</Time>
            <Position>
              <LatitudeDegrees>40.81222758628427982330322265625</LatitudeDegrees>
              <LongitudeDegrees>-5.62913353554904460906982421875</LongitudeDegrees>
            </Position>
            <AltitudeMeters>978.5999755859375</AltitudeMeters>
            <DistanceMeters>NAN</DistanceMeters>
          </Trackpoint>
          <Trackpoint>
            <Time>2019-10-07T09:29:49.000Z</Time>
            <Position>
              <LatitudeDegrees>40.8121193759143352508544921875</LatitudeDegrees>
              <LongitudeDegrees>-5.62919002957642078399658203125</LongitudeDegrees>
            </Position>
            <AltitudeMeters>978.79998779296875</AltitudeMeters>
            <DistanceMeters>NAN</DistanceMeters>
          </Trackpoint>
          <Trackpoint>
            <Time>2019-10-07T09:29:58.000Z</Time>
            <Position>
              <LatitudeDegrees>40.811797343194484710693359375</LatitudeDegrees>
              <LongitudeDegrees>-5.6293896026909351348876953125</LongitudeDegrees>
            </Position>
            <AltitudeMeters>979.20001220703125</AltitudeMeters>
            <DistanceMeters>NAN</DistanceMeters>
          </Trackpoint>
          <Trackpoint>
            <Time>2019-10-07T09:30:06.000Z</Time>
            <Position>
              <LatitudeDegrees>40.811529122292995452880859375</LatitudeDegrees>
              <LongitudeDegrees>-5.6295988149940967559814453125</LongitudeDegrees>
            </Position>
            <AltitudeMeters>979.79998779296875</AltitudeMeters>
            <DistanceMeters>NAN</DistanceMeters>
          </Trackpoint>
          <Trackpoint>
            <Time>2019-10-07T09:30:08.000Z</Time>
            <Position>
              <LatitudeDegrees>40.81146349199116230010986328125</LatitudeDegrees>
              <LongitudeDegrees>-5.629658661782741546630859375</LongitudeDegrees>
            </Position>
            <AltitudeMeters>979.79998779296875</AltitudeMeters>
            <DistanceMeters>NAN</DistanceMeters>
          </Trackpoint>
          <Trackpoint>
            <Time>2019-10-07T09:30:15.000Z</Time>
            <Position>
              <LatitudeDegrees>40.81123818643391132354736328125</LatitudeDegrees>
              <LongitudeDegrees>-5.6298610009253025054931640625</LongitudeDegrees>
            </Position>
            <AltitudeMeters>980</AltitudeMeters>
            <DistanceMeters>NAN</DistanceMeters>
          </Trackpoint>
          <Trackpoint>
            <Time>2019-10-07T09:30:23.000Z</Time>
            <Position>
              <LatitudeDegrees>40.81098857335746288299560546875</LatitudeDegrees>
              <LongitudeDegrees>-5.63011170364916324615478515625</LongitudeDegrees>
            </Position>
            <AltitudeMeters>980.20001220703125</AltitudeMeters>
            <DistanceMeters>NAN</DistanceMeters>
          </Trackpoint>
          <Trackpoint>
            <Time>2019-10-07T09:30:31.000Z</Time>
            <Position>
              <LatitudeDegrees>40.810719765722751617431640625</LatitudeDegrees>
              <LongitudeDegrees>-5.6303384341299533843994140625</LongitudeDegrees>
            </Position>
            <AltitudeMeters>980.4000244140625</AltitudeMeters>
            <DistanceMeters>NAN</DistanceMeters>
          </Trackpoint>
          <Trackpoint>
            <Time>2019-10-07T09:30:40.000Z</Time>
            <Position>
              <LatitudeDegrees>40.81041307188570499420166015625</LatitudeDegrees>
              <LongitudeDegrees>-5.63062467612326145172119140625</LongitudeDegrees>
            </Position>
            <AltitudeMeters>980.5999755859375</AltitudeMeters>
            <DistanceMeters>NAN</DistanceMeters>
          </Trackpoint>
          <Trackpoint>
            <Time>2019-10-07T09:30:41.000Z</Time>
            <Position>
              <LatitudeDegrees>40.810381472110748291015625</LatitudeDegrees>
              <LongitudeDegrees>-5.63065971247851848602294921875</LongitudeDegrees>
            </Position>
            <AltitudeMeters>980.4000244140625</AltitudeMeters>
            <DistanceMeters>NAN</DistanceMeters>
          </Trackpoint>
          <Trackpoint>
            <Time>2019-10-07T09:30:46.000Z</Time>
            <Position>
              <LatitudeDegrees>40.81021190620958805084228515625</LatitudeDegrees>
              <LongitudeDegrees>-5.63082852400839328765869140625</LongitudeDegrees>
            </Position>
            <AltitudeMeters>980.4000244140625</AltitudeMeters>
            <DistanceMeters>NAN</DistanceMeters>
          </Trackpoint>
          <Trackpoint>
            <Time>2019-10-07T09:30:56.000Z</Time>
            <Position>
              <LatitudeDegrees>40.809837318956851959228515625</LatitudeDegrees>
              <LongitudeDegrees>-5.631179474294185638427734375</LongitudeDegrees>
            </Position>
            <AltitudeMeters>980</AltitudeMeters>
            <DistanceMeters>NAN</DistanceMeters>
          </Trackpoint>
          <Trackpoint>
            <Time>2019-10-07T09:31:05.000Z</Time>
            <Position>
              <LatitudeDegrees>40.8094435371458530426025390625</LatitudeDegrees>
              <LongitudeDegrees>-5.631509386003017425537109375</LongitudeDegrees>
            </Position>
            <AltitudeMeters>979.20001220703125</AltitudeMeters>
            <DistanceMeters>NAN</DistanceMeters>
          </Trackpoint>
          <Trackpoint>
            <Time>2019-10-07T09:31:09.000Z</Time>
            <Position>
              <LatitudeDegrees>40.8092509210109710693359375</LatitudeDegrees>
              <LongitudeDegrees>-5.63166202045977115631103515625</LongitudeDegrees>
            </Position>
            <AltitudeMeters>978.5999755859375</AltitudeMeters>
            <DistanceMeters>NAN</DistanceMeters>
          </Trackpoint>
          <Trackpoint>
            <Time>2019-10-07T09:31:13.000Z</Time>
            <Position>
              <LatitudeDegrees>40.80904128961265087127685546875</LatitudeDegrees>
              <LongitudeDegrees>-5.6318106316030025482177734375</LongitudeDegrees>
            </Position>
            <AltitudeMeters>978.20001220703125</AltitudeMeters>
            <DistanceMeters>NAN</DistanceMeters>
          </Trackpoint>
          <Trackpoint>
            <Time>2019-10-07T09:31:15.000Z</Time>
            <Position>
              <LatitudeDegrees>40.80893383361399173736572265625</LatitudeDegrees>
              <LongitudeDegrees>-5.6318877451121807098388671875</LongitudeDegrees>
            </Position>
            <AltitudeMeters>977.79998779296875</AltitudeMeters>
            <DistanceMeters>NAN</DistanceMeters>
          </Trackpoint>
          <Trackpoint>
            <Time>2019-10-07T09:31:17.000Z</Time>
            <Position>
              <LatitudeDegrees>40.8088219352066516876220703125</LatitudeDegrees>
              <LongitudeDegrees>-5.631962679326534271240234375</LongitudeDegrees>
            </Position>
            <AltitudeMeters>977.4000244140625</AltitudeMeters>
            <DistanceMeters>NAN</DistanceMeters>
          </Trackpoint>
          <Trackpoint>
            <Time>2019-10-07T09:31:21.000Z</Time>
            <Position>
              <LatitudeDegrees>40.80858682282269001007080078125</LatitudeDegrees>
              <LongitudeDegrees>-5.632113553583621978759765625</LongitudeDegrees>
            </Position>
            <AltitudeMeters>976.20001220703125</AltitudeMeters>
            <DistanceMeters>NAN</DistanceMeters>
          </Trackpoint>
          <Trackpoint>
            <Time>2019-10-07T09:31:25.000Z</Time>
            <Position>
              <LatitudeDegrees>40.80832983367145061492919921875</LatitudeDegrees>
              <LongitudeDegrees>-5.6322575546801090240478515625</LongitudeDegrees>
            </Position>
            <AltitudeMeters>975.20001220703125</AltitudeMeters>
            <DistanceMeters>NAN</DistanceMeters>
          </Trackpoint>
          <Trackpoint>
            <Time>2019-10-07T09:31:26.000Z</Time>
            <Position>
              <LatitudeDegrees>40.80826160497963428497314453125</LatitudeDegrees>
              <LongitudeDegrees>-5.63229150138795375823974609375</LongitudeDegrees>
            </Position>
            <AltitudeMeters>974.79998779296875</AltitudeMeters>
            <DistanceMeters>NAN</DistanceMeters>
          </Trackpoint>
          <Trackpoint>
            <Time>2019-10-07T09:31:28.000Z</Time>
            <Position>
              <LatitudeDegrees>40.80812145955860614776611328125</LatitudeDegrees>
              <LongitudeDegrees>-5.63236241228878498077392578125</LongitudeDegrees>
            </Position>
            <AltitudeMeters>974.20001220703125</AltitudeMeters>
            <DistanceMeters>NAN</DistanceMeters>
          </Trackpoint>
          <Trackpoint>
            <Time>2019-10-07T09:31:30.000Z</Time>
            <Position>
              <LatitudeDegrees>40.8079716749489307403564453125</LatitudeDegrees>
              <LongitudeDegrees>-5.63242980279028415679931640625</LongitudeDegrees>
            </Position>
            <AltitudeMeters>973.5999755859375</AltitudeMeters>
            <DistanceMeters>NAN</DistanceMeters>
          </Trackpoint>
          <Trackpoint>
            <Time>2019-10-07T09:31:32.000Z</Time>
            <Position>
              <LatitudeDegrees>40.80781501717865467071533203125</LatitudeDegrees>
              <LongitudeDegrees>-5.6324899010360240936279296875</LongitudeDegrees>
            </Position>
            <AltitudeMeters>972.5999755859375</AltitudeMeters>
            <DistanceMeters>NAN</DistanceMeters>
          </Trackpoint>
          <Trackpoint>
            <Time>2019-10-07T09:31:33.000Z</Time>
            <Position>
              <LatitudeDegrees>40.80773480236530303955078125</LatitudeDegrees>
              <LongitudeDegrees>-5.632519237697124481201171875</LongitudeDegrees>
            </Position>
            <AltitudeMeters>971.79998779296875</AltitudeMeters>
            <DistanceMeters>NAN</DistanceMeters>
          </Trackpoint>
          <Trackpoint>
            <Time>2019-10-07T09:31:35.000Z</Time>
            <Position>
              <LatitudeDegrees>40.8075691759586334228515625</LatitudeDegrees>
              <LongitudeDegrees>-5.63257363624870777130126953125</LongitudeDegrees>
            </Position>
            <AltitudeMeters>971.20001220703125</AltitudeMeters>
            <DistanceMeters>NAN</DistanceMeters>
          </Trackpoint>
          <Trackpoint>
            <Time>2019-10-07T09:31:37.000Z</Time>
            <Position>
              <LatitudeDegrees>40.80739709548652172088623046875</LatitudeDegrees>
              <LongitudeDegrees>-5.6326223351061344146728515625</LongitudeDegrees>
            </Position>
            <AltitudeMeters>970.20001220703125</AltitudeMeters>
            <DistanceMeters>NAN</DistanceMeters>
          </Trackpoint>
          <Trackpoint>
            <Time>2019-10-07T09:31:39.000Z</Time>
            <Position>
              <LatitudeDegrees>40.807221494615077972412109375</LatitudeDegrees>
              <LongitudeDegrees>-5.6326635740697383880615234375</LongitudeDegrees>
            </Position>
            <AltitudeMeters>968.79998779296875</AltitudeMeters>
            <DistanceMeters>NAN</DistanceMeters>
          </Trackpoint>
          <Trackpoint>
            <Time>2019-10-07T09:31:41.000Z</Time>
            <Position>
              <LatitudeDegrees>40.80704052932560443878173828125</LatitudeDegrees>
              <LongitudeDegrees>-5.6327051483094692230224609375</LongitudeDegrees>
            </Position>
            <AltitudeMeters>967.5999755859375</AltitudeMeters>
            <DistanceMeters>NAN</DistanceMeters>
          </Trackpoint>
          <Trackpoint>
            <Time>2019-10-07T09:31:43.000Z</Time>
            <Position>
              <LatitudeDegrees>40.8068557083606719970703125</LatitudeDegrees>
              <LongitudeDegrees>-5.6327373348176479339599609375</LongitudeDegrees>
            </Position>
            <AltitudeMeters>967.20001220703125</AltitudeMeters>
            <DistanceMeters>NAN</DistanceMeters>
          </Trackpoint>
          <Trackpoint>
            <Time>2019-10-07T09:31:45.000Z</Time>
            <Position>
              <LatitudeDegrees>40.80666904337704181671142578125</LatitudeDegrees>
              <LongitudeDegrees>-5.632765330374240875244140625</LongitudeDegrees>
            </Position>
            <AltitudeMeters>966.4000244140625</AltitudeMeters>
            <DistanceMeters>NAN</DistanceMeters>
          </Trackpoint>
          <Trackpoint>
            <Time>2019-10-07T09:31:47.000Z</Time>
            <Position>
              <LatitudeDegrees>40.80648028291761875152587890625</LatitudeDegrees>
              <LongitudeDegrees>-5.63278435729444026947021484375</LongitudeDegrees>
            </Position>
            <AltitudeMeters>966</AltitudeMeters>
            <DistanceMeters>NAN</DistanceMeters>
          </Trackpoint>
          <Trackpoint>
            <Time>2019-10-07T09:31:49.000Z</Time>
            <Position>
              <LatitudeDegrees>40.8062909357249736785888671875</LatitudeDegrees>
              <LongitudeDegrees>-5.632798187434673309326171875</LongitudeDegrees>
            </Position>
            <AltitudeMeters>965.20001220703125</AltitudeMeters>
            <DistanceMeters>NAN</DistanceMeters>
          </Trackpoint>
          <Trackpoint>
            <Time>2019-10-07T09:31:52.000Z</Time>
            <Position>
              <LatitudeDegrees>40.8060046099126338958740234375</LatitudeDegrees>
              <LongitudeDegrees>-5.63282274641096591949462890625</LongitudeDegrees>
            </Position>
            <AltitudeMeters>964.20001220703125</AltitudeMeters>
            <DistanceMeters>NAN</DistanceMeters>
          </Trackpoint>
          <Trackpoint>
            <Time>2019-10-07T09:31:54.000Z</Time>
            <Position>
              <LatitudeDegrees>40.8058104850351810455322265625</LatitudeDegrees>
              <LongitudeDegrees>-5.632835738360881805419921875</LongitudeDegrees>
            </Position>
            <AltitudeMeters>963.79998779296875</AltitudeMeters>
            <DistanceMeters>NAN</DistanceMeters>
          </Trackpoint>
          <Trackpoint>
            <Time>2019-10-07T09:31:59.000Z</Time>
            <Position>
              <LatitudeDegrees>40.80531955696642398834228515625</LatitudeDegrees>
              <LongitudeDegrees>-5.63286893069744110107421875</LongitudeDegrees>
            </Position>
            <AltitudeMeters>962.20001220703125</AltitudeMeters>
            <DistanceMeters>NAN</DistanceMeters>
          </Trackpoint>
          <Trackpoint>
            <Time>2019-10-07T09:32:01.000Z</Time>
            <Position>
              <LatitudeDegrees>40.80512308515608310699462890625</LatitudeDegrees>
              <LongitudeDegrees>-5.63288100063800811767578125</LongitudeDegrees>
            </Position>
            <AltitudeMeters>960.5999755859375</AltitudeMeters>
            <DistanceMeters>NAN</DistanceMeters>
          </Trackpoint>
          <Trackpoint>
            <Time>2019-10-07T09:32:02.000Z</Time>
            <Position>
              <LatitudeDegrees>40.80502619035542011260986328125</LatitudeDegrees>
              <LongitudeDegrees>-5.6328888796269893646240234375</LongitudeDegrees>
            </Position>
            <AltitudeMeters>961</AltitudeMeters>
            <DistanceMeters>NAN</DistanceMeters>
          </Trackpoint>
          <Trackpoint>
            <Time>2019-10-07T09:32:08.000Z</Time>
            <Position>
              <LatitudeDegrees>40.804469548165798187255859375</LatitudeDegrees>
              <LongitudeDegrees>-5.63292953185737133026123046875</LongitudeDegrees>
            </Position>
            <AltitudeMeters>961.4000244140625</AltitudeMeters>
            <DistanceMeters>NAN</DistanceMeters>
          </Trackpoint>
          <Trackpoint>
            <Time>2019-10-07T09:32:09.000Z</Time>
            <Position>
              <LatitudeDegrees>40.8043815381824970245361328125</LatitudeDegrees>
              <LongitudeDegrees>-5.632940344512462615966796875</LongitudeDegrees>
            </Position>
            <AltitudeMeters>961.79998779296875</AltitudeMeters>
            <DistanceMeters>NAN</DistanceMeters>
          </Trackpoint>
          <Trackpoint>
            <Time>2019-10-07T09:32:10.000Z</Time>
            <Position>
              <LatitudeDegrees>40.8042940311133861541748046875</LatitudeDegrees>
              <LongitudeDegrees>-5.6329460442066192626953125</LongitudeDegrees>
            </Position>
            <AltitudeMeters>961.79998779296875</AltitudeMeters>
            <DistanceMeters>NAN</DistanceMeters>
          </Trackpoint>
          <Trackpoint>
            <Time>2019-10-07T09:32:16.000Z</Time>
            <Position>
              <LatitudeDegrees>40.803788267076015472412109375</LatitudeDegrees>
              <LongitudeDegrees>-5.63297848217189311981201171875</LongitudeDegrees>
            </Position>
            <AltitudeMeters>961</AltitudeMeters>
            <DistanceMeters>NAN</DistanceMeters>
          </Trackpoint>
          <Trackpoint>
            <Time>2019-10-07T09:32:18.000Z</Time>
            <Position>
              <LatitudeDegrees>40.80362859182059764862060546875</LatitudeDegrees>
              <LongitudeDegrees>-5.6329908035695552825927734375</LongitudeDegrees>
            </Position>
            <AltitudeMeters>961.20001220703125</AltitudeMeters>
            <DistanceMeters>NAN</DistanceMeters>
          </Trackpoint>
          <Trackpoint>
            <Time>2019-10-07T09:32:25.000Z</Time>
            <Position>
              <LatitudeDegrees>40.8031021244823932647705078125</LatitudeDegrees>
              <LongitudeDegrees>-5.63302860595285892486572265625</LongitudeDegrees>
            </Position>
            <AltitudeMeters>961.20001220703125</AltitudeMeters>
            <DistanceMeters>NAN</DistanceMeters>
          </Trackpoint>
          <Trackpoint>
            <Time>2019-10-07T09:32:27.000Z</Time>
            <Position>
              <LatitudeDegrees>40.80295720137655735015869140625</LatitudeDegrees>
              <LongitudeDegrees>-5.6330377422273159027099609375</LongitudeDegrees>
            </Position>
            <AltitudeMeters>961.79998779296875</AltitudeMeters>
            <DistanceMeters>NAN</DistanceMeters>
          </Trackpoint>
          <Trackpoint>
            <Time>2019-10-07T09:32:32.000Z</Time>
            <Position>
              <LatitudeDegrees>40.80259610898792743682861328125</LatitudeDegrees>
              <LongitudeDegrees>-5.63306263647973537445068359375</LongitudeDegrees>
            </Position>
            <AltitudeMeters>962</AltitudeMeters>
            <DistanceMeters>NAN</DistanceMeters>
          </Trackpoint>
          <Trackpoint>
            <Time>2019-10-07T09:32:37.000Z</Time>
            <Position>
              <LatitudeDegrees>40.802232921123504638671875</LatitudeDegrees>
              <LongitudeDegrees>-5.63308526761829853057861328125</LongitudeDegrees>
            </Position>
            <AltitudeMeters>961</AltitudeMeters>
            <DistanceMeters>NAN</DistanceMeters>
          </Trackpoint>
          <Trackpoint>
            <Time>2019-10-07T09:32:38.000Z</Time>
            <Position>
              <LatitudeDegrees>40.8021593280136585235595703125</LatitudeDegrees>
              <LongitudeDegrees>-5.6330910511314868927001953125</LongitudeDegrees>
            </Position>
            <AltitudeMeters>960.79998779296875</AltitudeMeters>
            <DistanceMeters>NAN</DistanceMeters>
          </Trackpoint>
          <Trackpoint>
            <Time>2019-10-07T09:32:39.000Z</Time>
            <Position>
              <LatitudeDegrees>40.80208447761833667755126953125</LatitudeDegrees>
              <LongitudeDegrees>-5.63309582881629467010498046875</LongitudeDegrees>
            </Position>
            <AltitudeMeters>960.5999755859375</AltitudeMeters>
            <DistanceMeters>NAN</DistanceMeters>
          </Trackpoint>
          <Trackpoint>
            <Time>2019-10-07T09:32:45.000Z</Time>
            <Position>
              <LatitudeDegrees>40.8016362972557544708251953125</LatitudeDegrees>
              <LongitudeDegrees>-5.63312650658190250396728515625</LongitudeDegrees>
            </Position>
            <AltitudeMeters>960.5999755859375</AltitudeMeters>
            <DistanceMeters>NAN</DistanceMeters>
          </Trackpoint>
          <Trackpoint>
            <Time>2019-10-07T09:32:50.000Z</Time>
            <Position>
              <LatitudeDegrees>40.8012540824711322784423828125</LatitudeDegrees>
              <LongitudeDegrees>-5.633148886263370513916015625</LongitudeDegrees>
            </Position>
            <AltitudeMeters>960.20001220703125</AltitudeMeters>
            <DistanceMeters>NAN</DistanceMeters>
          </Trackpoint>
          <Trackpoint>
            <Time>2019-10-07T09:32:52.000Z</Time>
            <Position>
              <LatitudeDegrees>40.80109977163374423980712890625</LatitudeDegrees>
              <LongitudeDegrees>-5.63316187821328639984130859375</LongitudeDegrees>
            </Position>
            <AltitudeMeters>959.20001220703125</AltitudeMeters>
            <DistanceMeters>NAN</DistanceMeters>
          </Trackpoint>
          <Trackpoint>
            <Time>2019-10-07T09:32:58.000Z</Time>
            <Position>
              <LatitudeDegrees>40.8006287924945354461669921875</LatitudeDegrees>
              <LongitudeDegrees>-5.63319423235952854156494140625</LongitudeDegrees>
            </Position>
            <AltitudeMeters>958.20001220703125</AltitudeMeters>
            <DistanceMeters>NAN</DistanceMeters>
          </Trackpoint>
          <Trackpoint>
            <Time>2019-10-07T09:33:01.000Z</Time>
            <Position>
              <LatitudeDegrees>40.80038261599838733673095703125</LatitudeDegrees>
              <LongitudeDegrees>-5.6332107447087764739990234375</LongitudeDegrees>
            </Position>
            <AltitudeMeters>957.20001220703125</AltitudeMeters>
            <DistanceMeters>NAN</DistanceMeters>
          </Trackpoint>
          <Trackpoint>
            <Time>2019-10-07T09:33:02.000Z</Time>
            <Position>
              <LatitudeDegrees>40.80029929988086223602294921875</LatitudeDegrees>
              <LongitudeDegrees>-5.63321485184133052825927734375</LongitudeDegrees>
            </Position>
            <AltitudeMeters>956.79998779296875</AltitudeMeters>
            <DistanceMeters>NAN</DistanceMeters>
          </Trackpoint>
          <Trackpoint>
            <Time>2019-10-07T09:33:06.000Z</Time>
            <Position>
              <LatitudeDegrees>40.7999538816511631011962890625</LatitudeDegrees>
              <LongitudeDegrees>-5.63323505222797393798828125</LongitudeDegrees>
            </Position>
            <AltitudeMeters>955.79998779296875</AltitudeMeters>
            <DistanceMeters>NAN</DistanceMeters>
          </Trackpoint>
          <Trackpoint>
            <Time>2019-10-07T09:33:08.000Z</Time>
            <Position>
              <LatitudeDegrees>40.7997738383710384368896484375</LatitudeDegrees>
              <LongitudeDegrees>-5.6332446075975894927978515625</LongitudeDegrees>
            </Position>
            <AltitudeMeters>954.5999755859375</AltitudeMeters>
            <DistanceMeters>NAN</DistanceMeters>
          </Trackpoint>
          <Trackpoint>
            <Time>2019-10-07T09:33:10.000Z</Time>
            <Position>
              <LatitudeDegrees>40.799593292176723480224609375</LatitudeDegrees>
              <LongitudeDegrees>-5.6332536600530147552490234375</LongitudeDegrees>
            </Position>
            <AltitudeMeters>954.5999755859375</AltitudeMeters>
            <DistanceMeters>NAN</DistanceMeters>
          </Trackpoint>
          <Trackpoint>
            <Time>2019-10-07T09:33:13.000Z</Time>
            <Position>
              <LatitudeDegrees>40.799319036304950714111328125</LatitudeDegrees>
              <LongitudeDegrees>-5.6332704238593578338623046875</LongitudeDegrees>
            </Position>
            <AltitudeMeters>953.20001220703125</AltitudeMeters>
            <DistanceMeters>NAN</DistanceMeters>
          </Trackpoint>
          <Trackpoint>
            <Time>2019-10-07T09:33:16.000Z</Time>
            <Position>
              <LatitudeDegrees>40.79904117621481418609619140625</LatitudeDegrees>
              <LongitudeDegrees>-5.63328861258924007415771484375</LongitudeDegrees>
            </Position>
            <AltitudeMeters>951.79998779296875</AltitudeMeters>
            <DistanceMeters>NAN</DistanceMeters>
          </Trackpoint>
          <Trackpoint>
            <Time>2019-10-07T09:33:19.000Z</Time>
            <Position>
              <LatitudeDegrees>40.79876105301082134246826171875</LatitudeDegrees>
              <LongitudeDegrees>-5.63331191428005695343017578125</LongitudeDegrees>
            </Position>
            <AltitudeMeters>950.4000244140625</AltitudeMeters>
            <DistanceMeters>NAN</DistanceMeters>
          </Trackpoint>
          <Trackpoint>
            <Time>2019-10-07T09:33:20.000Z</Time>
            <Position>
              <LatitudeDegrees>40.7986677624285221099853515625</LatitudeDegrees>
              <LongitudeDegrees>-5.6333220563828945159912109375</LongitudeDegrees>
            </Position>
            <AltitudeMeters>950</AltitudeMeters>
            <DistanceMeters>NAN</DistanceMeters>
          </Trackpoint>
          <Trackpoint>
            <Time>2019-10-07T09:33:24.000Z</Time>
            <Position>
              <LatitudeDegrees>40.7982952706515789031982421875</LatitudeDegrees>
              <LongitudeDegrees>-5.63335499726235866546630859375</LongitudeDegrees>
            </Position>
            <AltitudeMeters>949.20001220703125</AltitudeMeters>
            <DistanceMeters>NAN</DistanceMeters>
          </Trackpoint>
          <Trackpoint>
            <Time>2019-10-07T09:33:28.000Z</Time>
            <Position>
              <LatitudeDegrees>40.7979214377701282501220703125</LatitudeDegrees>
              <LongitudeDegrees>-5.6333803944289684295654296875</LongitudeDegrees>
            </Position>
            <AltitudeMeters>948</AltitudeMeters>
            <DistanceMeters>NAN</DistanceMeters>
          </Trackpoint>
          <Trackpoint>
            <Time>2019-10-07T09:33:29.000Z</Time>
            <Position>
              <LatitudeDegrees>40.79782797954976558685302734375</LatitudeDegrees>
              <LongitudeDegrees>-5.63338869251310825347900390625</LongitudeDegrees>
            </Position>
            <AltitudeMeters>948</AltitudeMeters>
            <DistanceMeters>NAN</DistanceMeters>
          </Trackpoint>
          <Trackpoint>
            <Time>2019-10-07T09:33:33.000Z</Time>
            <Position>
              <LatitudeDegrees>40.79745121300220489501953125</LatitudeDegrees>
              <LongitudeDegrees>-5.6334142573177814483642578125</LongitudeDegrees>
            </Position>
            <AltitudeMeters>947</AltitudeMeters>
            <DistanceMeters>NAN</DistanceMeters>
          </Trackpoint>
          <Trackpoint>
            <Time>2019-10-07T09:33:36.000Z</Time>
            <Position>
              <LatitudeDegrees>40.7971675693988800048828125</LatitudeDegrees>
              <LongitudeDegrees>-5.63343345187604427337646484375</LongitudeDegrees>
            </Position>
            <AltitudeMeters>945.79998779296875</AltitudeMeters>
            <DistanceMeters>NAN</DistanceMeters>
          </Trackpoint>
          <Trackpoint>
            <Time>2019-10-07T09:33:39.000Z</Time>
            <Position>
              <LatitudeDegrees>40.7968800701200962066650390625</LatitudeDegrees>
              <LongitudeDegrees>-5.6334464438259601593017578125</LongitudeDegrees>
            </Position>
            <AltitudeMeters>944.79998779296875</AltitudeMeters>
            <DistanceMeters>NAN</DistanceMeters>
          </Trackpoint>
          <Trackpoint>
            <Time>2019-10-07T09:33:43.000Z</Time>
            <Position>
              <LatitudeDegrees>40.79649441875517368316650390625</LatitudeDegrees>
              <LongitudeDegrees>-5.6334709189832210540771484375</LongitudeDegrees>
            </Position>
            <AltitudeMeters>943.4000244140625</AltitudeMeters>
            <DistanceMeters>NAN</DistanceMeters>
          </Trackpoint>
          <Trackpoint>
            <Time>2019-10-07T09:33:45.000Z</Time>
            <Position>
              <LatitudeDegrees>40.79630129970610141754150390625</LatitudeDegrees>
              <LongitudeDegrees>-5.6334846653044223785400390625</LongitudeDegrees>
            </Position>
            <AltitudeMeters>942.20001220703125</AltitudeMeters>
            <DistanceMeters>NAN</DistanceMeters>
          </Trackpoint>
          <Trackpoint>
            <Time>2019-10-07T09:33:48.000Z</Time>
            <Position>
              <LatitudeDegrees>40.79601162113249301910400390625</LatitudeDegrees>
              <LongitudeDegrees>-5.63350503332912921905517578125</LongitudeDegrees>
            </Position>
            <AltitudeMeters>941.79998779296875</AltitudeMeters>
            <DistanceMeters>NAN</DistanceMeters>
          </Trackpoint>
          <Trackpoint>
            <Time>2019-10-07T09:33:53.000Z</Time>
            <Position>
              <LatitudeDegrees>40.795533098280429840087890625</LatitudeDegrees>
              <LongitudeDegrees>-5.63353571109473705291748046875</LongitudeDegrees>
            </Position>
            <AltitudeMeters>941</AltitudeMeters>
            <DistanceMeters>NAN</DistanceMeters>
          </Trackpoint>
          <Trackpoint>
            <Time>2019-10-07T09:33:56.000Z</Time>
            <Position>
              <LatitudeDegrees>40.79525356180965900421142578125</LatitudeDegrees>
              <LongitudeDegrees>-5.63355063088238239288330078125</LongitudeDegrees>
            </Position>
            <AltitudeMeters>940</AltitudeMeters>
            <DistanceMeters>NAN</DistanceMeters>
          </Trackpoint>
          <Trackpoint>
            <Time>2019-10-07T09:33:59.000Z</Time>
            <Position>
              <LatitudeDegrees>40.7949864305555820465087890625</LatitudeDegrees>
              <LongitudeDegrees>-5.6335564143955707550048828125</LongitudeDegrees>
            </Position>
            <AltitudeMeters>939.79998779296875</AltitudeMeters>
            <DistanceMeters>NAN</DistanceMeters>
          </Trackpoint>
          <Trackpoint>
            <Time>2019-10-07T09:34:05.000Z</Time>
            <Position>
              <LatitudeDegrees>40.7944826781749725341796875</LatitudeDegrees>
              <LongitudeDegrees>-5.6335262395441532135009765625</LongitudeDegrees>
            </Position>
            <AltitudeMeters>939.5999755859375</AltitudeMeters>
            <DistanceMeters>NAN</DistanceMeters>
          </Trackpoint>
          <Trackpoint>
            <Time>2019-10-07T09:34:11.000Z</Time>
            <Position>
              <LatitudeDegrees>40.79398806206881999969482421875</LatitudeDegrees>
              <LongitudeDegrees>-5.63342657871544361114501953125</LongitudeDegrees>
            </Position>
            <AltitudeMeters>938.79998779296875</AltitudeMeters>
            <DistanceMeters>NAN</DistanceMeters>
          </Trackpoint>
          <Trackpoint>
            <Time>2019-10-07T09:34:13.000Z</Time>
            <Position>
              <LatitudeDegrees>40.7938183285295963287353515625</LatitudeDegrees>
              <LongitudeDegrees>-5.6333803944289684295654296875</LongitudeDegrees>
            </Position>
            <AltitudeMeters>938</AltitudeMeters>
            <DistanceMeters>NAN</DistanceMeters>
          </Trackpoint>
          <Trackpoint>
            <Time>2019-10-07T09:34:14.000Z</Time>
            <Position>
              <LatitudeDegrees>40.79373291693627834320068359375</LatitudeDegrees>
              <LongitudeDegrees>-5.63335348851978778839111328125</LongitudeDegrees>
            </Position>
            <AltitudeMeters>937.5999755859375</AltitudeMeters>
            <DistanceMeters>NAN</DistanceMeters>
          </Trackpoint>
          <Trackpoint>
            <Time>2019-10-07T09:34:18.000Z</Time>
            <Position>
              <LatitudeDegrees>40.7933856546878814697265625</LatitudeDegrees>
              <LongitudeDegrees>-5.63324133865535259246826171875</LongitudeDegrees>
            </Position>
            <AltitudeMeters>936.20001220703125</AltitudeMeters>
            <DistanceMeters>NAN</DistanceMeters>
          </Trackpoint>
          <Trackpoint>
            <Time>2019-10-07T09:34:21.000Z</Time>
            <Position>
              <LatitudeDegrees>40.79312271438539028167724609375</LatitudeDegrees>
              <LongitudeDegrees>-5.63314863480627536773681640625</LongitudeDegrees>
            </Position>
            <AltitudeMeters>935.4000244140625</AltitudeMeters>
            <DistanceMeters>NAN</DistanceMeters>
          </Trackpoint>
          <Trackpoint>
            <Time>2019-10-07T09:34:23.000Z</Time>
            <Position>
              <LatitudeDegrees>40.79294250346720218658447265625</LatitudeDegrees>
              <LongitudeDegrees>-5.63308753073215484619140625</LongitudeDegrees>
            </Position>
            <AltitudeMeters>934.5999755859375</AltitudeMeters>
            <DistanceMeters>NAN</DistanceMeters>
          </Trackpoint>
          <Trackpoint>
            <Time>2019-10-07T09:34:25.000Z</Time>
            <Position>
              <LatitudeDegrees>40.7927642203867435455322265625</LatitudeDegrees>
              <LongitudeDegrees>-5.633023492991924285888671875</LongitudeDegrees>
            </Position>
            <AltitudeMeters>933.5999755859375</AltitudeMeters>
            <DistanceMeters>NAN</DistanceMeters>
          </Trackpoint>
          <Trackpoint>
            <Time>2019-10-07T09:34:31.000Z</Time>
            <Position>
              <LatitudeDegrees>40.79225317575037479400634765625</LatitudeDegrees>
              <LongitudeDegrees>-5.63284604810178279876708984375</LongitudeDegrees>
            </Position>
            <AltitudeMeters>933.4000244140625</AltitudeMeters>
            <DistanceMeters>NAN</DistanceMeters>
          </Trackpoint>
          <Trackpoint>
            <Time>2019-10-07T09:34:38.000Z</Time>
            <Position>
              <LatitudeDegrees>40.7917211763560771942138671875</LatitudeDegrees>
              <LongitudeDegrees>-5.63265996985137462615966796875</LongitudeDegrees>
            </Position>
            <AltitudeMeters>934.4000244140625</AltitudeMeters>
            <DistanceMeters>NAN</DistanceMeters>
          </Trackpoint>
          <Trackpoint>
            <Time>2019-10-07T09:34:39.000Z</Time>
            <Position>
              <LatitudeDegrees>40.79164850525557994842529296875</LatitudeDegrees>
              <LongitudeDegrees>-5.63263691961765289306640625</LongitudeDegrees>
            </Position>
            <AltitudeMeters>934.20001220703125</AltitudeMeters>
            <DistanceMeters>NAN</DistanceMeters>
          </Trackpoint>
          <Trackpoint>
            <Time>2019-10-07T09:34:47.000Z</Time>
            <Position>
              <LatitudeDegrees>40.791094042360782623291015625</LatitudeDegrees>
              <LongitudeDegrees>-5.63244648277759552001953125</LongitudeDegrees>
            </Position>
            <AltitudeMeters>934.4000244140625</AltitudeMeters>
            <DistanceMeters>NAN</DistanceMeters>
          </Trackpoint>
          <Trackpoint>
            <Time>2019-10-07T09:34:49.000Z</Time>
            <Position>
              <LatitudeDegrees>40.7909634523093700408935546875</LatitudeDegrees>
              <LongitudeDegrees>-5.632397197186946868896484375</LongitudeDegrees>
            </Position>
            <AltitudeMeters>934.5999755859375</AltitudeMeters>
            <DistanceMeters>NAN</DistanceMeters>
          </Trackpoint>
          <Trackpoint>
            <Time>2019-10-07T09:34:57.000Z</Time>
            <Position>
              <LatitudeDegrees>40.79044352285563945770263671875</LatitudeDegrees>
              <LongitudeDegrees>-5.6322183273732662200927734375</LongitudeDegrees>
            </Position>
            <AltitudeMeters>934.4000244140625</AltitudeMeters>
            <DistanceMeters>NAN</DistanceMeters>
          </Trackpoint>
          <Trackpoint>
            <Time>2019-10-07T09:34:58.000Z</Time>
            <Position>
              <LatitudeDegrees>40.7903783954679965972900390625</LatitudeDegrees>
              <LongitudeDegrees>-5.63219611532986164093017578125</LongitudeDegrees>
            </Position>
            <AltitudeMeters>934.4000244140625</AltitudeMeters>
            <DistanceMeters>NAN</DistanceMeters>
          </Trackpoint>
          <Trackpoint>
            <Time>2019-10-07T09:35:05.000Z</Time>
            <Position>
              <LatitudeDegrees>40.7899296283721923828125</LatitudeDegrees>
              <LongitudeDegrees>-5.6320429779589176177978515625</LongitudeDegrees>
            </Position>
            <AltitudeMeters>934.4000244140625</AltitudeMeters>
            <DistanceMeters>NAN</DistanceMeters>
          </Trackpoint>
          <Trackpoint>
            <Time>2019-10-07T09:35:07.000Z</Time>
            <Position>
              <LatitudeDegrees>40.78980163671076297760009765625</LatitudeDegrees>
              <LongitudeDegrees>-5.63199545256793498992919921875</LongitudeDegrees>
            </Position>
            <AltitudeMeters>934.5999755859375</AltitudeMeters>
            <DistanceMeters>NAN</DistanceMeters>
          </Trackpoint>
          <Trackpoint>
            <Time>2019-10-07T09:35:16.000Z</Time>
            <Position>
              <LatitudeDegrees>40.7892317511141300201416015625</LatitudeDegrees>
              <LongitudeDegrees>-5.63180116005241870880126953125</LongitudeDegrees>
            </Position>
            <AltitudeMeters>934.20001220703125</AltitudeMeters>
            <DistanceMeters>NAN</DistanceMeters>
          </Trackpoint>
          <Trackpoint>
            <Time>2019-10-07T09:35:19.000Z</Time>
            <Position>
              <LatitudeDegrees>40.78904449939727783203125</LatitudeDegrees>
              <LongitudeDegrees>-5.63173427246510982513427734375</LongitudeDegrees>
            </Position>
            <AltitudeMeters>933.79998779296875</AltitudeMeters>
            <DistanceMeters>NAN</DistanceMeters>
          </Trackpoint>
          <Trackpoint>
            <Time>2019-10-07T09:35:22.000Z</Time>
            <Position>
              <LatitudeDegrees>40.788858421146869659423828125</LatitudeDegrees>
              <LongitudeDegrees>-5.6316701509058475494384765625</LongitudeDegrees>
            </Position>
            <AltitudeMeters>933.5999755859375</AltitudeMeters>
            <DistanceMeters>NAN</DistanceMeters>
          </Trackpoint>
          <Trackpoint>
            <Time>2019-10-07T09:35:28.000Z</Time>
            <Position>
              <LatitudeDegrees>40.78846086747944355010986328125</LatitudeDegrees>
              <LongitudeDegrees>-5.63153344206511974334716796875</LongitudeDegrees>
            </Position>
            <AltitudeMeters>932.79998779296875</AltitudeMeters>
            <DistanceMeters>NAN</DistanceMeters>
          </Trackpoint>
          <Trackpoint>
            <Time>2019-10-07T09:35:29.000Z</Time>
            <Position>
              <LatitudeDegrees>40.78838928602635860443115234375</LatitudeDegrees>
              <LongitudeDegrees>-5.6315092183649539947509765625</LongitudeDegrees>
            </Position>
            <AltitudeMeters>932.5999755859375</AltitudeMeters>
            <DistanceMeters>NAN</DistanceMeters>
          </Trackpoint>
          <Trackpoint>
            <Time>2019-10-07T09:35:32.000Z</Time>
            <Position>
              <LatitudeDegrees>40.78816565684974193572998046875</LatitudeDegrees>
              <LongitudeDegrees>-5.631434619426727294921875</LongitudeDegrees>
            </Position>
            <AltitudeMeters>931.4000244140625</AltitudeMeters>
            <DistanceMeters>NAN</DistanceMeters>
          </Trackpoint>
          <Trackpoint>
            <Time>2019-10-07T09:35:35.000Z</Time>
            <Position>
              <LatitudeDegrees>40.78793339431285858154296875</LatitudeDegrees>
              <LongitudeDegrees>-5.63134954310953617095947265625</LongitudeDegrees>
            </Position>
            <AltitudeMeters>930</AltitudeMeters>
            <DistanceMeters>NAN</DistanceMeters>
          </Trackpoint>
          <Trackpoint>
            <Time>2019-10-07T09:35:36.000Z</Time>
            <Position>
              <LatitudeDegrees>40.7878534309566020965576171875</LatitudeDegrees>
              <LongitudeDegrees>-5.6313214637339115142822265625</LongitudeDegrees>
            </Position>
            <AltitudeMeters>929.5999755859375</AltitudeMeters>
            <DistanceMeters>NAN</DistanceMeters>
          </Trackpoint>
          <Trackpoint>
            <Time>2019-10-07T09:35:38.000Z</Time>
            <Position>
              <LatitudeDegrees>40.787690319120883941650390625</LatitudeDegrees>
              <LongitudeDegrees>-5.631262622773647308349609375</LongitudeDegrees>
            </Position>
            <AltitudeMeters>928.5999755859375</AltitudeMeters>
            <DistanceMeters>NAN</DistanceMeters>
          </Trackpoint>
          <Trackpoint>
            <Time>2019-10-07T09:35:41.000Z</Time>
            <Position>
              <LatitudeDegrees>40.78743718564510345458984375</LatitudeDegrees>
              <LongitudeDegrees>-5.6311719305813312530517578125</LongitudeDegrees>
            </Position>
            <AltitudeMeters>927.79998779296875</AltitudeMeters>
            <DistanceMeters>NAN</DistanceMeters>
          </Trackpoint>
          <Trackpoint>
            <Time>2019-10-07T09:35:42.000Z</Time>
            <Position>
              <LatitudeDegrees>40.78735076822340488433837890625</LatitudeDegrees>
              <LongitudeDegrees>-5.63114016316831111907958984375</LongitudeDegrees>
            </Position>
            <AltitudeMeters>927.4000244140625</AltitudeMeters>
            <DistanceMeters>NAN</DistanceMeters>
          </Trackpoint>
          <Trackpoint>
            <Time>2019-10-07T09:35:45.000Z</Time>
            <Position>
              <LatitudeDegrees>40.78708254732191562652587890625</LatitudeDegrees>
              <LongitudeDegrees>-5.63104729168117046356201171875</LongitudeDegrees>
            </Position>
            <AltitudeMeters>926.4000244140625</AltitudeMeters>
            <DistanceMeters>NAN</DistanceMeters>
          </Trackpoint>
          <Trackpoint>
            <Time>2019-10-07T09:35:47.000Z</Time>
            <Position>
              <LatitudeDegrees>40.78689713962376117706298828125</LatitudeDegrees>
              <LongitudeDegrees>-5.630983673036098480224609375</LongitudeDegrees>
            </Position>
            <AltitudeMeters>925.20001220703125</AltitudeMeters>
            <DistanceMeters>NAN</DistanceMeters>
          </Trackpoint>
          <Trackpoint>
            <Time>2019-10-07T09:35:51.000Z</Time>
            <Position>
              <LatitudeDegrees>40.7865324430167675018310546875</LatitudeDegrees>
              <LongitudeDegrees>-5.63085593283176422119140625</LongitudeDegrees>
            </Position>
            <AltitudeMeters>924</AltitudeMeters>
            <DistanceMeters>NAN</DistanceMeters>
          </Trackpoint>
          <Trackpoint>
            <Time>2019-10-07T09:35:54.000Z</Time>
            <Position>
              <LatitudeDegrees>40.7862749509513378143310546875</LatitudeDegrees>
              <LongitudeDegrees>-5.63076834194362163543701171875</LongitudeDegrees>
            </Position>
            <AltitudeMeters>924</AltitudeMeters>
            <DistanceMeters>NAN</DistanceMeters>
          </Trackpoint>
          <Trackpoint>
            <Time>2019-10-07T09:36:01.000Z</Time>
            <Position>
              <LatitudeDegrees>40.78572702594101428985595703125</LatitudeDegrees>
              <LongitudeDegrees>-5.630582682788372039794921875</LongitudeDegrees>
            </Position>
            <AltitudeMeters>925</AltitudeMeters>
            <DistanceMeters>NAN</DistanceMeters>
          </Trackpoint>
          <Trackpoint>
            <Time>2019-10-07T09:36:02.000Z</Time>
            <Position>
              <LatitudeDegrees>40.78565276227891445159912109375</LatitudeDegrees>
              <LongitudeDegrees>-5.63055627979338169097900390625</LongitudeDegrees>
            </Position>
            <AltitudeMeters>924.79998779296875</AltitudeMeters>
            <DistanceMeters>NAN</DistanceMeters>
          </Trackpoint>
          <Trackpoint>
            <Time>2019-10-07T09:36:10.000Z</Time>
            <Position>
              <LatitudeDegrees>40.78510844148695468902587890625</LatitudeDegrees>
              <LongitudeDegrees>-5.6303702853620052337646484375</LongitudeDegrees>
            </Position>
            <AltitudeMeters>924.79998779296875</AltitudeMeters>
            <DistanceMeters>NAN</DistanceMeters>
          </Trackpoint>
          <Trackpoint>
            <Time>2019-10-07T09:36:11.000Z</Time>
            <Position>
              <LatitudeDegrees>40.7850464992225170135498046875</LatitudeDegrees>
              <LongitudeDegrees>-5.63035025261342525482177734375</LongitudeDegrees>
            </Position>
            <AltitudeMeters>925.20001220703125</AltitudeMeters>
            <DistanceMeters>NAN</DistanceMeters>
          </Trackpoint>
          <Trackpoint>
            <Time>2019-10-07T09:36:16.000Z</Time>
            <Position>
              <LatitudeDegrees>40.78475858084857463836669921875</LatitudeDegrees>
              <LongitudeDegrees>-5.630250088870525360107421875</LongitudeDegrees>
            </Position>
            <AltitudeMeters>926.20001220703125</AltitudeMeters>
            <DistanceMeters>NAN</DistanceMeters>
          </Trackpoint>
          <Trackpoint>
            <Time>2019-10-07T09:36:17.000Z</Time>
            <Position>
              <LatitudeDegrees>40.78470946289598941802978515625</LatitudeDegrees>
              <LongitudeDegrees>-5.63023257069289684295654296875</LongitudeDegrees>
            </Position>
            <AltitudeMeters>926.4000244140625</AltitudeMeters>
            <DistanceMeters>NAN</DistanceMeters>
          </Trackpoint>
          <Trackpoint>
            <Time>2019-10-07T09:36:20.000Z</Time>
            <Position>
              <LatitudeDegrees>40.7845767773687839508056640625</LatitudeDegrees>
              <LongitudeDegrees>-5.63018747605383396148681640625</LongitudeDegrees>
            </Position>
            <AltitudeMeters>927.5999755859375</AltitudeMeters>
            <DistanceMeters>NAN</DistanceMeters>
          </Trackpoint>
          <Trackpoint>
            <Time>2019-10-07T09:36:21.000Z</Time>
            <Position>
              <LatitudeDegrees>40.78453629277646541595458984375</LatitudeDegrees>
              <LongitudeDegrees>-5.63017155043780803680419921875</LongitudeDegrees>
            </Position>
            <AltitudeMeters>927.79998779296875</AltitudeMeters>
            <DistanceMeters>NAN</DistanceMeters>
          </Trackpoint>
          <Trackpoint>
            <Time>2019-10-07T09:36:25.000Z</Time>
            <Position>
              <LatitudeDegrees>40.7843843288719654083251953125</LatitudeDegrees>
              <LongitudeDegrees>-5.6301121227443218231201171875</LongitudeDegrees>
            </Position>
            <AltitudeMeters>928.5999755859375</AltitudeMeters>
            <DistanceMeters>NAN</DistanceMeters>
          </Trackpoint>
          <Trackpoint>
            <Time>2019-10-07T09:36:29.000Z</Time>
            <Position>
              <LatitudeDegrees>40.78423404134809970855712890625</LatitudeDegrees>
              <LongitudeDegrees>-5.63006426207721233367919921875</LongitudeDegrees>
            </Position>
            <AltitudeMeters>929.4000244140625</AltitudeMeters>
            <DistanceMeters>NAN</DistanceMeters>
          </Trackpoint>
          <Trackpoint>
            <Time>2019-10-07T09:36:32.000Z</Time>
            <Position>
              <LatitudeDegrees>40.78412122093141078948974609375</LatitudeDegrees>
              <LongitudeDegrees>-5.6300219334661960601806640625</LongitudeDegrees>
            </Position>
            <AltitudeMeters>929.79998779296875</AltitudeMeters>
            <DistanceMeters>NAN</DistanceMeters>
          </Trackpoint>
          <Trackpoint>
            <Time>2019-10-07T09:36:36.000Z</Time>
            <Position>
              <LatitudeDegrees>40.7839548401534557342529296875</LatitudeDegrees>
              <LongitudeDegrees>-5.6299642659723758697509765625</LongitudeDegrees>
            </Position>
            <AltitudeMeters>929.79998779296875</AltitudeMeters>
            <DistanceMeters>NAN</DistanceMeters>
          </Trackpoint>
          <Trackpoint>
            <Time>2019-10-07T09:36:38.000Z</Time>
            <Position>
              <LatitudeDegrees>40.78387144021689891815185546875</LatitudeDegrees>
              <LongitudeDegrees>-5.62993526458740234375</LongitudeDegrees>
            </Position>
            <AltitudeMeters>930</AltitudeMeters>
            <DistanceMeters>NAN</DistanceMeters>
          </Trackpoint>
          <Trackpoint>
            <Time>2019-10-07T09:36:43.000Z</Time>
            <Position>
              <LatitudeDegrees>40.7836510799825191497802734375</LatitudeDegrees>
              <LongitudeDegrees>-5.62985873781144618988037109375</LongitudeDegrees>
            </Position>
            <AltitudeMeters>930.20001220703125</AltitudeMeters>
            <DistanceMeters>NAN</DistanceMeters>
          </Trackpoint>
          <Trackpoint>
            <Time>2019-10-07T09:36:47.000Z</Time>
            <Position>
              <LatitudeDegrees>40.783475227653980255126953125</LatitudeDegrees>
              <LongitudeDegrees>-5.62980140559375286102294921875</LongitudeDegrees>
            </Position>
            <AltitudeMeters>930.20001220703125</AltitudeMeters>
            <DistanceMeters>NAN</DistanceMeters>
          </Trackpoint>
          <Trackpoint>
            <Time>2019-10-07T09:36:58.000Z</Time>
            <Position>
              <LatitudeDegrees>40.782958567142486572265625</LatitudeDegrees>
              <LongitudeDegrees>-5.629633851349353790283203125</LongitudeDegrees>
            </Position>
            <AltitudeMeters>929.79998779296875</AltitudeMeters>
            <DistanceMeters>NAN</DistanceMeters>
          </Trackpoint>
          <Trackpoint>
            <Time>2019-10-07T09:37:09.000Z</Time>
            <Position>
              <LatitudeDegrees>40.7824025116860866546630859375</LatitudeDegrees>
              <LongitudeDegrees>-5.62944316305220127105712890625</LongitudeDegrees>
            </Position>
            <AltitudeMeters>929.5999755859375</AltitudeMeters>
            <DistanceMeters>NAN</DistanceMeters>
          </Trackpoint>
          <Trackpoint>
            <Time>2019-10-07T09:37:11.000Z</Time>
            <Position>
              <LatitudeDegrees>40.782301090657711029052734375</LatitudeDegrees>
              <LongitudeDegrees>-5.62940360046923160552978515625</LongitudeDegrees>
            </Position>
            <AltitudeMeters>929.5999755859375</AltitudeMeters>
            <DistanceMeters>NAN</DistanceMeters>
          </Trackpoint>
          <Trackpoint>
            <Time>2019-10-07T09:37:19.000Z</Time>
            <Position>
              <LatitudeDegrees>40.78188928775489330291748046875</LatitudeDegrees>
              <LongitudeDegrees>-5.62925599515438079833984375</LongitudeDegrees>
            </Position>
            <AltitudeMeters>929.79998779296875</AltitudeMeters>
            <DistanceMeters>NAN</DistanceMeters>
          </Trackpoint>
          <Trackpoint>
            <Time>2019-10-07T09:37:29.000Z</Time>
            <Position>
              <LatitudeDegrees>40.78137338161468505859375</LatitudeDegrees>
              <LongitudeDegrees>-5.629079975187778472900390625</LongitudeDegrees>
            </Position>
            <AltitudeMeters>930.20001220703125</AltitudeMeters>
            <DistanceMeters>NAN</DistanceMeters>
          </Trackpoint>
          <Trackpoint>
            <Time>2019-10-07T09:37:30.000Z</Time>
            <Position>
              <LatitudeDegrees>40.78132233582437038421630859375</LatitudeDegrees>
              <LongitudeDegrees>-5.62906295992434024810791015625</LongitudeDegrees>
            </Position>
            <AltitudeMeters>930.4000244140625</AltitudeMeters>
            <DistanceMeters>NAN</DistanceMeters>
          </Trackpoint>
          <Trackpoint>
            <Time>2019-10-07T09:37:40.000Z</Time>
            <Position>
              <LatitudeDegrees>40.780803747475147247314453125</LatitudeDegrees>
              <LongitudeDegrees>-5.6288789771497249603271484375</LongitudeDegrees>
            </Position>
            <AltitudeMeters>929.79998779296875</AltitudeMeters>
            <DistanceMeters>NAN</DistanceMeters>
          </Trackpoint>
          <Trackpoint>
            <Time>2019-10-07T09:37:50.000Z</Time>
            <Position>
              <LatitudeDegrees>40.7802835665643215179443359375</LatitudeDegrees>
              <LongitudeDegrees>-5.628700442612171173095703125</LongitudeDegrees>
            </Position>
            <AltitudeMeters>930.4000244140625</AltitudeMeters>
            <DistanceMeters>NAN</DistanceMeters>
          </Trackpoint>
          <Trackpoint>
            <Time>2019-10-07T09:37:51.000Z</Time>
            <Position>
              <LatitudeDegrees>40.78023117966949939727783203125</LatitudeDegrees>
              <LongitudeDegrees>-5.62868334352970123291015625</LongitudeDegrees>
            </Position>
            <AltitudeMeters>930.79998779296875</AltitudeMeters>
            <DistanceMeters>NAN</DistanceMeters>
          </Trackpoint>
          <Trackpoint>
            <Time>2019-10-07T09:37:52.000Z</Time>
            <Position>
              <LatitudeDegrees>40.7801782898604869842529296875</LatitudeDegrees>
              <LongitudeDegrees>-5.628665573894977569580078125</LongitudeDegrees>
            </Position>
            <AltitudeMeters>931</AltitudeMeters>
            <DistanceMeters>NAN</DistanceMeters>
          </Trackpoint>
          <Trackpoint>
            <Time>2019-10-07T09:38:01.000Z</Time>
            <Position>
              <LatitudeDegrees>40.77969825826585292816162109375</LatitudeDegrees>
              <LongitudeDegrees>-5.6285017915070056915283203125</LongitudeDegrees>
            </Position>
            <AltitudeMeters>930.5999755859375</AltitudeMeters>
            <DistanceMeters>NAN</DistanceMeters>
          </Trackpoint>
          <Trackpoint>
            <Time>2019-10-07T09:38:11.000Z</Time>
            <Position>
              <LatitudeDegrees>40.77917120419442653656005859375</LatitudeDegrees>
              <LongitudeDegrees>-5.628320910036563873291015625</LongitudeDegrees>
            </Position>
            <AltitudeMeters>930.5999755859375</AltitudeMeters>
            <DistanceMeters>NAN</DistanceMeters>
          </Trackpoint>
          <Trackpoint>
            <Time>2019-10-07T09:38:12.000Z</Time>
            <Position>
              <LatitudeDegrees>40.77911906875669956207275390625</LatitudeDegrees>
              <LongitudeDegrees>-5.62830305658280849456787109375</LongitudeDegrees>
            </Position>
            <AltitudeMeters>931</AltitudeMeters>
            <DistanceMeters>NAN</DistanceMeters>
          </Trackpoint>
          <Trackpoint>
            <Time>2019-10-07T09:38:22.000Z</Time>
            <Position>
              <LatitudeDegrees>40.77860408462584018707275390625</LatitudeDegrees>
              <LongitudeDegrees>-5.628131814301013946533203125</LongitudeDegrees>
            </Position>
            <AltitudeMeters>931.20001220703125</AltitudeMeters>
            <DistanceMeters>NAN</DistanceMeters>
          </Trackpoint>
          <Trackpoint>
            <Time>2019-10-07T09:38:23.000Z</Time>
            <Position>
              <LatitudeDegrees>40.778555385768413543701171875</LatitudeDegrees>
              <LongitudeDegrees>-5.62811412848532199859619140625</LongitudeDegrees>
            </Position>
            <AltitudeMeters>931.5999755859375</AltitudeMeters>
            <DistanceMeters>NAN</DistanceMeters>
          </Trackpoint>
          <Trackpoint>
            <Time>2019-10-07T09:38:25.000Z</Time>
            <Position>
              <LatitudeDegrees>40.7784599997103214263916015625</LatitudeDegrees>
              <LongitudeDegrees>-5.62807724811136722564697265625</LongitudeDegrees>
            </Position>
            <AltitudeMeters>932</AltitudeMeters>
            <DistanceMeters>NAN</DistanceMeters>
          </Trackpoint>
          <Trackpoint>
            <Time>2019-10-07T09:38:31.000Z</Time>
            <Position>
              <LatitudeDegrees>40.7781937904655933380126953125</LatitudeDegrees>
              <LongitudeDegrees>-5.627983622252941131591796875</LongitudeDegrees>
            </Position>
            <AltitudeMeters>932.5999755859375</AltitudeMeters>
            <DistanceMeters>NAN</DistanceMeters>
          </Trackpoint>
          <Trackpoint>
            <Time>2019-10-07T09:38:34.000Z</Time>
            <Position>
              <LatitudeDegrees>40.7780673913657665252685546875</LatitudeDegrees>
              <LongitudeDegrees>-5.62793492339551448822021484375</LongitudeDegrees>
            </Position>
            <AltitudeMeters>933.20001220703125</AltitudeMeters>
            <DistanceMeters>NAN</DistanceMeters>
          </Trackpoint>
          <Trackpoint>
            <Time>2019-10-07T09:38:40.000Z</Time>
            <Position>
              <LatitudeDegrees>40.777811072766780853271484375</LatitudeDegrees>
              <LongitudeDegrees>-5.6278496794402599334716796875</LongitudeDegrees>
            </Position>
            <AltitudeMeters>934.20001220703125</AltitudeMeters>
            <DistanceMeters>NAN</DistanceMeters>
          </Trackpoint>
          <Trackpoint>
            <Time>2019-10-07T09:38:42.000Z</Time>
            <Position>
              <LatitudeDegrees>40.77772884629666805267333984375</LatitudeDegrees>
              <LongitudeDegrees>-5.62782143242657184600830078125</LongitudeDegrees>
            </Position>
            <AltitudeMeters>934</AltitudeMeters>
            <DistanceMeters>NAN</DistanceMeters>
          </Trackpoint>
          <Trackpoint>
            <Time>2019-10-07T09:38:47.000Z</Time>
            <Position>
              <LatitudeDegrees>40.7775282673537731170654296875</LatitudeDegrees>
              <LongitudeDegrees>-5.627747587859630584716796875</LongitudeDegrees>
            </Position>
            <AltitudeMeters>935</AltitudeMeters>
            <DistanceMeters>NAN</DistanceMeters>
          </Trackpoint>
          <Trackpoint>
            <Time>2019-10-07T09:38:49.000Z</Time>
            <Position>
              <LatitudeDegrees>40.77744595706462860107421875</LatitudeDegrees>
              <LongitudeDegrees>-5.6277212686836719512939453125</LongitudeDegrees>
            </Position>
            <AltitudeMeters>935.4000244140625</AltitudeMeters>
            <DistanceMeters>NAN</DistanceMeters>
          </Trackpoint>
          <Trackpoint>
            <Time>2019-10-07T09:38:52.000Z</Time>
            <Position>
              <LatitudeDegrees>40.77732198871672153472900390625</LatitudeDegrees>
              <LongitudeDegrees>-5.6276807002723217010498046875</LongitudeDegrees>
            </Position>
            <AltitudeMeters>935.5999755859375</AltitudeMeters>
            <DistanceMeters>NAN</DistanceMeters>
          </Trackpoint>
          <Trackpoint>
            <Time>2019-10-07T09:38:57.000Z</Time>
            <Position>
              <LatitudeDegrees>40.77712467871606349945068359375</LatitudeDegrees>
              <LongitudeDegrees>-5.62761180102825164794921875</LongitudeDegrees>
            </Position>
            <AltitudeMeters>936.4000244140625</AltitudeMeters>
            <DistanceMeters>NAN</DistanceMeters>
          </Trackpoint>
          <Trackpoint>
            <Time>2019-10-07T09:39:04.000Z</Time>
            <Position>
              <LatitudeDegrees>40.77684857882559299468994140625</LatitudeDegrees>
              <LongitudeDegrees>-5.62752001918852329254150390625</LongitudeDegrees>
            </Position>
            <AltitudeMeters>936.79998779296875</AltitudeMeters>
            <DistanceMeters>NAN</DistanceMeters>
          </Trackpoint>
          <Trackpoint>
            <Time>2019-10-07T09:39:07.000Z</Time>
            <Position>
              <LatitudeDegrees>40.776730477809906005859375</LatitudeDegrees>
              <LongitudeDegrees>-5.627476014196872711181640625</LongitudeDegrees>
            </Position>
            <AltitudeMeters>937.5999755859375</AltitudeMeters>
            <DistanceMeters>NAN</DistanceMeters>
          </Trackpoint>
          <Trackpoint>
            <Time>2019-10-07T09:39:11.000Z</Time>
            <Position>
              <LatitudeDegrees>40.776577256619930267333984375</LatitudeDegrees>
              <LongitudeDegrees>-5.62742270529270172119140625</LongitudeDegrees>
            </Position>
            <AltitudeMeters>938.5999755859375</AltitudeMeters>
            <DistanceMeters>NAN</DistanceMeters>
          </Trackpoint>
          <Trackpoint>
            <Time>2019-10-07T09:39:13.000Z</Time>
            <Position>
              <LatitudeDegrees>40.77649603597819805145263671875</LatitudeDegrees>
              <LongitudeDegrees>-5.627396889030933380126953125</LongitudeDegrees>
            </Position>
            <AltitudeMeters>938.79998779296875</AltitudeMeters>
            <DistanceMeters>NAN</DistanceMeters>
          </Trackpoint>
          <Trackpoint>
            <Time>2019-10-07T09:39:23.000Z</Time>
            <Position>
              <LatitudeDegrees>40.77608331106603145599365234375</LatitudeDegrees>
              <LongitudeDegrees>-5.627246685326099395751953125</LongitudeDegrees>
            </Position>
            <AltitudeMeters>938.4000244140625</AltitudeMeters>
            <DistanceMeters>NAN</DistanceMeters>
          </Trackpoint>
          <Trackpoint>
            <Time>2019-10-07T09:39:30.000Z</Time>
            <Position>
              <LatitudeDegrees>40.7757814787328243255615234375</LatitudeDegrees>
              <LongitudeDegrees>-5.6271455995738506317138671875</LongitudeDegrees>
            </Position>
            <AltitudeMeters>938.79998779296875</AltitudeMeters>
            <DistanceMeters>NAN</DistanceMeters>
          </Trackpoint>
          <Trackpoint>
            <Time>2019-10-07T09:39:32.000Z</Time>
            <Position>
              <LatitudeDegrees>40.77568709850311279296875</LatitudeDegrees>
              <LongitudeDegrees>-5.62711517326533794403076171875</LongitudeDegrees>
            </Position>
            <AltitudeMeters>938.5999755859375</AltitudeMeters>
            <DistanceMeters>NAN</DistanceMeters>
          </Trackpoint>
          <Trackpoint>
            <Time>2019-10-07T09:39:40.000Z</Time>
            <Position>
              <LatitudeDegrees>40.77529842965304851531982421875</LatitudeDegrees>
              <LongitudeDegrees>-5.62698609195649623870849609375</LongitudeDegrees>
            </Position>
            <AltitudeMeters>938.20001220703125</AltitudeMeters>
            <DistanceMeters>NAN</DistanceMeters>
          </Trackpoint>
          <Trackpoint>
            <Time>2019-10-07T09:39:44.000Z</Time>
            <Position>
              <LatitudeDegrees>40.77510531060397624969482421875</LatitudeDegrees>
              <LongitudeDegrees>-5.6269149295985698699951171875</LongitudeDegrees>
            </Position>
            <AltitudeMeters>938.20001220703125</AltitudeMeters>
            <DistanceMeters>NAN</DistanceMeters>
          </Trackpoint>
          <Trackpoint>
            <Time>2019-10-07T09:39:52.000Z</Time>
            <Position>
              <LatitudeDegrees>40.77471454627811908721923828125</LatitudeDegrees>
              <LongitudeDegrees>-5.62677889131009578704833984375</LongitudeDegrees>
            </Position>
            <AltitudeMeters>938.20001220703125</AltitudeMeters>
            <DistanceMeters>NAN</DistanceMeters>
          </Trackpoint>
          <Trackpoint>
            <Time>2019-10-07T09:39:55.000Z</Time>
            <Position>
              <LatitudeDegrees>40.77456836588680744171142578125</LatitudeDegrees>
              <LongitudeDegrees>-5.62672759406268596649169921875</LongitudeDegrees>
            </Position>
            <AltitudeMeters>938.20001220703125</AltitudeMeters>
            <DistanceMeters>NAN</DistanceMeters>
          </Trackpoint>
          <Trackpoint>
            <Time>2019-10-07T09:40:05.000Z</Time>
            <Position>
              <LatitudeDegrees>40.7740603387355804443359375</LatitudeDegrees>
              <LongitudeDegrees>-5.626549981534481048583984375</LongitudeDegrees>
            </Position>
            <AltitudeMeters>938.20001220703125</AltitudeMeters>
            <DistanceMeters>NAN</DistanceMeters>
          </Trackpoint>
          <Trackpoint>
            <Time>2019-10-07T09:40:08.000Z</Time>
            <Position>
              <LatitudeDegrees>40.77390133403241634368896484375</LatitudeDegrees>
              <LongitudeDegrees>-5.62649331986904144287109375</LongitudeDegrees>
            </Position>
            <AltitudeMeters>937.5999755859375</AltitudeMeters>
            <DistanceMeters>NAN</DistanceMeters>
          </Trackpoint>
          <Trackpoint>
            <Time>2019-10-07T09:40:14.000Z</Time>
            <Position>
              <LatitudeDegrees>40.7735824026167392730712890625</LatitudeDegrees>
              <LongitudeDegrees>-5.62638075090944766998291015625</LongitudeDegrees>
            </Position>
            <AltitudeMeters>937.20001220703125</AltitudeMeters>
            <DistanceMeters>NAN</DistanceMeters>
          </Trackpoint>
          <Trackpoint>
            <Time>2019-10-07T09:40:15.000Z</Time>
            <Position>
              <LatitudeDegrees>40.77353085391223430633544921875</LatitudeDegrees>
              <LongitudeDegrees>-5.6263620592653751373291015625</LongitudeDegrees>
            </Position>
            <AltitudeMeters>937</AltitudeMeters>
            <DistanceMeters>NAN</DistanceMeters>
          </Trackpoint>
          <Trackpoint>
            <Time>2019-10-07T09:40:22.000Z</Time>
            <Position>
              <LatitudeDegrees>40.7731612958014011383056640625</LatitudeDegrees>
              <LongitudeDegrees>-5.62624010257422924041748046875</LongitudeDegrees>
            </Position>
            <AltitudeMeters>937.4000244140625</AltitudeMeters>
            <DistanceMeters>NAN</DistanceMeters>
          </Trackpoint>
          <Trackpoint>
            <Time>2019-10-07T09:40:30.000Z</Time>
            <Position>
              <LatitudeDegrees>40.7727401889860630035400390625</LatitudeDegrees>
              <LongitudeDegrees>-5.62609635293483734130859375</LongitudeDegrees>
            </Position>
            <AltitudeMeters>937.5999755859375</AltitudeMeters>
            <DistanceMeters>NAN</DistanceMeters>
          </Trackpoint>
          <Trackpoint>
            <Time>2019-10-07T09:40:40.000Z</Time>
            <Position>
              <LatitudeDegrees>40.772217996418476104736328125</LatitudeDegrees>
              <LongitudeDegrees>-5.625920332968235015869140625</LongitudeDegrees>
            </Position>
            <AltitudeMeters>937.4000244140625</AltitudeMeters>
            <DistanceMeters>NAN</DistanceMeters>
          </Trackpoint>
          <Trackpoint>
            <Time>2019-10-07T09:40:42.000Z</Time>
            <Position>
              <LatitudeDegrees>40.77211598865687847137451171875</LatitudeDegrees>
              <LongitudeDegrees>-5.6258856318891048431396484375</LongitudeDegrees>
            </Position>
            <AltitudeMeters>937.4000244140625</AltitudeMeters>
            <DistanceMeters>NAN</DistanceMeters>
          </Trackpoint>
          <Trackpoint>
            <Time>2019-10-07T09:40:49.000Z</Time>
            <Position>
              <LatitudeDegrees>40.77176243998110294342041015625</LatitudeDegrees>
              <LongitudeDegrees>-5.6257770024240016937255859375</LongitudeDegrees>
            </Position>
            <AltitudeMeters>938.20001220703125</AltitudeMeters>
            <DistanceMeters>NAN</DistanceMeters>
          </Trackpoint>
          <Trackpoint>
            <Time>2019-10-07T09:40:59.000Z</Time>
            <Position>
              <LatitudeDegrees>40.77125181443989276885986328125</LatitudeDegrees>
              <LongitudeDegrees>-5.62560961581766605377197265625</LongitudeDegrees>
            </Position>
            <AltitudeMeters>938.20001220703125</AltitudeMeters>
            <DistanceMeters>NAN</DistanceMeters>
          </Trackpoint>
          <Trackpoint>
            <Time>2019-10-07T09:41:02.000Z</Time>
            <Position>
              <LatitudeDegrees>40.77109314501285552978515625</LatitudeDegrees>
              <LongitudeDegrees>-5.62555982731282711029052734375</LongitudeDegrees>
            </Position>
            <AltitudeMeters>938.20001220703125</AltitudeMeters>
            <DistanceMeters>NAN</DistanceMeters>
          </Trackpoint>
          <Trackpoint>
            <Time>2019-10-07T09:41:10.000Z</Time>
            <Position>
              <LatitudeDegrees>40.77062920667231082916259765625</LatitudeDegrees>
              <LongitudeDegrees>-5.62543275766074657440185546875</LongitudeDegrees>
            </Position>
            <AltitudeMeters>937.20001220703125</AltitudeMeters>
            <DistanceMeters>NAN</DistanceMeters>
          </Trackpoint>
          <Trackpoint>
            <Time>2019-10-07T09:41:12.000Z</Time>
            <Position>
              <LatitudeDegrees>40.770502723753452301025390625</LatitudeDegrees>
              <LongitudeDegrees>-5.6254075281322002410888671875</LongitudeDegrees>
            </Position>
            <AltitudeMeters>936.4000244140625</AltitudeMeters>
            <DistanceMeters>NAN</DistanceMeters>
          </Trackpoint>
          <Trackpoint>
            <Time>2019-10-07T09:41:18.000Z</Time>
            <Position>
              <LatitudeDegrees>40.77012746594846248626708984375</LatitudeDegrees>
              <LongitudeDegrees>-5.62534323893487453460693359375</LongitudeDegrees>
            </Position>
            <AltitudeMeters>936.20001220703125</AltitudeMeters>
            <DistanceMeters>NAN</DistanceMeters>
          </Trackpoint>
          <Trackpoint>
            <Time>2019-10-07T09:41:20.000Z</Time>
            <Position>
              <LatitudeDegrees>40.7700016535818576812744140625</LatitudeDegrees>
              <LongitudeDegrees>-5.62532479874789714813232421875</LongitudeDegrees>
            </Position>
            <AltitudeMeters>936.20001220703125</AltitudeMeters>
            <DistanceMeters>NAN</DistanceMeters>
          </Trackpoint>
          <Trackpoint>
            <Time>2019-10-07T09:41:23.000Z</Time>
            <Position>
              <LatitudeDegrees>40.769810378551483154296875</LatitudeDegrees>
              <LongitudeDegrees>-5.6253106333315372467041015625</LongitudeDegrees>
            </Position>
            <AltitudeMeters>935.4000244140625</AltitudeMeters>
            <DistanceMeters>NAN</DistanceMeters>
          </Trackpoint>
          <Trackpoint>
            <Time>2019-10-07T09:41:26.000Z</Time>
            <Position>
              <LatitudeDegrees>40.7696117274463176727294921875</LatitudeDegrees>
              <LongitudeDegrees>-5.62530786730349063873291015625</LongitudeDegrees>
            </Position>
            <AltitudeMeters>934.4000244140625</AltitudeMeters>
            <DistanceMeters>NAN</DistanceMeters>
          </Trackpoint>
          <Trackpoint>
            <Time>2019-10-07T09:41:33.000Z</Time>
            <Position>
              <LatitudeDegrees>40.76910889707505702972412109375</LatitudeDegrees>
              <LongitudeDegrees>-5.62533460557460784912109375</LongitudeDegrees>
            </Position>
            <AltitudeMeters>933.20001220703125</AltitudeMeters>
            <DistanceMeters>NAN</DistanceMeters>
          </Trackpoint>
          <Trackpoint>
            <Time>2019-10-07T09:41:35.000Z</Time>
            <Position>
              <LatitudeDegrees>40.76895366422832012176513671875</LatitudeDegrees>
              <LongitudeDegrees>-5.6253461726009845733642578125</LongitudeDegrees>
            </Position>
            <AltitudeMeters>932.20001220703125</AltitudeMeters>
            <DistanceMeters>NAN</DistanceMeters>
          </Trackpoint>
          <Trackpoint>
            <Time>2019-10-07T09:41:37.000Z</Time>
            <Position>
              <LatitudeDegrees>40.76879139058291912078857421875</LatitudeDegrees>
              <LongitudeDegrees>-5.6253696419298648834228515625</LongitudeDegrees>
            </Position>
            <AltitudeMeters>930.5999755859375</AltitudeMeters>
            <DistanceMeters>NAN</DistanceMeters>
          </Trackpoint>
          <Trackpoint>
            <Time>2019-10-07T09:41:39.000Z</Time>
            <Position>
              <LatitudeDegrees>40.7686246745288372039794921875</LatitudeDegrees>
              <LongitudeDegrees>-5.62540166079998016357421875</LongitudeDegrees>
            </Position>
            <AltitudeMeters>930</AltitudeMeters>
            <DistanceMeters>NAN</DistanceMeters>
          </Trackpoint>
          <Trackpoint>
            <Time>2019-10-07T09:41:42.000Z</Time>
            <Position>
              <LatitudeDegrees>40.7683624885976314544677734375</LatitudeDegrees>
              <LongitudeDegrees>-5.625458322465419769287109375</LongitudeDegrees>
            </Position>
            <AltitudeMeters>929</AltitudeMeters>
            <DistanceMeters>NAN</DistanceMeters>
          </Trackpoint>
          <Trackpoint>
            <Time>2019-10-07T09:41:44.000Z</Time>
            <Position>
              <LatitudeDegrees>40.7681847922503948211669921875</LatitudeDegrees>
              <LongitudeDegrees>-5.62550760805606842041015625</LongitudeDegrees>
            </Position>
            <AltitudeMeters>928</AltitudeMeters>
            <DistanceMeters>NAN</DistanceMeters>
          </Trackpoint>
          <Trackpoint>
            <Time>2019-10-07T09:41:46.000Z</Time>
            <Position>
              <LatitudeDegrees>40.7680034078657627105712890625</LatitudeDegrees>
              <LongitudeDegrees>-5.62556787393987178802490234375</LongitudeDegrees>
            </Position>
            <AltitudeMeters>927.20001220703125</AltitudeMeters>
            <DistanceMeters>NAN</DistanceMeters>
          </Trackpoint>
          <Trackpoint>
            <Time>2019-10-07T09:41:47.000Z</Time>
            <Position>
              <LatitudeDegrees>40.7679115422070026397705078125</LatitudeDegrees>
              <LongitudeDegrees>-5.62559771351516246795654296875</LongitudeDegrees>
            </Position>
            <AltitudeMeters>927</AltitudeMeters>
            <DistanceMeters>NAN</DistanceMeters>
          </Trackpoint>
          <Trackpoint>
            <Time>2019-10-07T09:41:49.000Z</Time>
            <Position>
              <LatitudeDegrees>40.76772429049015045166015625</LatitudeDegrees>
              <LongitudeDegrees>-5.6256700493395328521728515625</LongitudeDegrees>
            </Position>
            <AltitudeMeters>925.5999755859375</AltitudeMeters>
            <DistanceMeters>NAN</DistanceMeters>
          </Trackpoint>
          <Trackpoint>
            <Time>2019-10-07T09:41:51.000Z</Time>
            <Position>
              <LatitudeDegrees>40.76753251254558563232421875</LatitudeDegrees>
              <LongitudeDegrees>-5.62575361691415309906005859375</LongitudeDegrees>
            </Position>
            <AltitudeMeters>924.20001220703125</AltitudeMeters>
            <DistanceMeters>NAN</DistanceMeters>
          </Trackpoint>
          <Trackpoint>
            <Time>2019-10-07T09:41:53.000Z</Time>
            <Position>
              <LatitudeDegrees>40.76733696274459362030029296875</LatitudeDegrees>
              <LongitudeDegrees>-5.62584422528743743896484375</LongitudeDegrees>
            </Position>
            <AltitudeMeters>922.79998779296875</AltitudeMeters>
            <DistanceMeters>NAN</DistanceMeters>
          </Trackpoint>
          <Trackpoint>
            <Time>2019-10-07T09:41:55.000Z</Time>
            <Position>
              <LatitudeDegrees>40.76713898219168186187744140625</LatitudeDegrees>
              <LongitudeDegrees>-5.6259345822036266326904296875</LongitudeDegrees>
            </Position>
            <AltitudeMeters>921.79998779296875</AltitudeMeters>
            <DistanceMeters>NAN</DistanceMeters>
          </Trackpoint>
          <Trackpoint>
            <Time>2019-10-07T09:41:57.000Z</Time>
            <Position>
              <LatitudeDegrees>40.76693714596331119537353515625</LatitudeDegrees>
              <LongitudeDegrees>-5.62600507400929927825927734375</LongitudeDegrees>
            </Position>
            <AltitudeMeters>920.79998779296875</AltitudeMeters>
            <DistanceMeters>NAN</DistanceMeters>
          </Trackpoint>
          <Trackpoint>
            <Time>2019-10-07T09:41:59.000Z</Time>
            <Position>
              <LatitudeDegrees>40.7667347230017185211181640625</LatitudeDegrees>
              <LongitudeDegrees>-5.62606559135019779205322265625</LongitudeDegrees>
            </Position>
            <AltitudeMeters>919.5999755859375</AltitudeMeters>
            <DistanceMeters>NAN</DistanceMeters>
          </Trackpoint>
          <Trackpoint>
            <Time>2019-10-07T09:42:01.000Z</Time>
            <Position>
              <LatitudeDegrees>40.76653548516333103179931640625</LatitudeDegrees>
              <LongitudeDegrees>-5.6261171400547027587890625</LongitudeDegrees>
            </Position>
            <AltitudeMeters>919.20001220703125</AltitudeMeters>
            <DistanceMeters>NAN</DistanceMeters>
          </Trackpoint>
          <Trackpoint>
            <Time>2019-10-07T09:42:02.000Z</Time>
            <Position>
              <LatitudeDegrees>40.76643724925816059112548828125</LatitudeDegrees>
              <LongitudeDegrees>-5.62614454887807369232177734375</LongitudeDegrees>
            </Position>
            <AltitudeMeters>919</AltitudeMeters>
            <DistanceMeters>NAN</DistanceMeters>
          </Trackpoint>
          <Trackpoint>
            <Time>2019-10-07T09:42:03.000Z</Time>
            <Position>
              <LatitudeDegrees>40.76634119264781475067138671875</LatitudeDegrees>
              <LongitudeDegrees>-5.626173801720142364501953125</LongitudeDegrees>
            </Position>
            <AltitudeMeters>919</AltitudeMeters>
            <DistanceMeters>NAN</DistanceMeters>
          </Trackpoint>
          <Trackpoint>
            <Time>2019-10-07T09:42:04.000Z</Time>
            <Position>
              <LatitudeDegrees>40.7662458904087543487548828125</LatitudeDegrees>
              <LongitudeDegrees>-5.62620171345770359039306640625</LongitudeDegrees>
            </Position>
            <AltitudeMeters>918.79998779296875</AltitudeMeters>
            <DistanceMeters>NAN</DistanceMeters>
          </Trackpoint>
          <Trackpoint>
            <Time>2019-10-07T09:42:05.000Z</Time>
            <Position>
              <LatitudeDegrees>40.76615159399807453155517578125</LatitudeDegrees>
              <LongitudeDegrees>-5.6262329779565334320068359375</LongitudeDegrees>
            </Position>
            <AltitudeMeters>918.5999755859375</AltitudeMeters>
            <DistanceMeters>NAN</DistanceMeters>
          </Trackpoint>
          <Trackpoint>
            <Time>2019-10-07T09:42:06.000Z</Time>
            <Position>
              <LatitudeDegrees>40.76605872251093387603759765625</LatitudeDegrees>
              <LongitudeDegrees>-5.62626340426504611968994140625</LongitudeDegrees>
            </Position>
            <AltitudeMeters>918.20001220703125</AltitudeMeters>
            <DistanceMeters>NAN</DistanceMeters>
          </Trackpoint>
          <Trackpoint>
            <Time>2019-10-07T09:42:12.000Z</Time>
            <Position>
              <LatitudeDegrees>40.765528567135334014892578125</LatitudeDegrees>
              <LongitudeDegrees>-5.6264435313642024993896484375</LongitudeDegrees>
            </Position>
            <AltitudeMeters>918.20001220703125</AltitudeMeters>
            <DistanceMeters>NAN</DistanceMeters>
          </Trackpoint>
          <Trackpoint>
            <Time>2019-10-07T09:42:13.000Z</Time>
            <Position>
              <LatitudeDegrees>40.7654422335326671600341796875</LatitudeDegrees>
              <LongitudeDegrees>-5.62647379003465175628662109375</LongitudeDegrees>
            </Position>
            <AltitudeMeters>918</AltitudeMeters>
            <DistanceMeters>NAN</DistanceMeters>
          </Trackpoint>
          <Trackpoint>
            <Time>2019-10-07T09:42:15.000Z</Time>
            <Position>
              <LatitudeDegrees>40.76527141034603118896484375</LatitudeDegrees>
              <LongitudeDegrees>-5.62653279863297939300537109375</LongitudeDegrees>
            </Position>
            <AltitudeMeters>917.5999755859375</AltitudeMeters>
            <DistanceMeters>NAN</DistanceMeters>
          </Trackpoint>
          <Trackpoint>
            <Time>2019-10-07T09:42:17.000Z</Time>
            <Position>
              <LatitudeDegrees>40.76510109007358551025390625</LatitudeDegrees>
              <LongitudeDegrees>-5.626593567430973052978515625</LongitudeDegrees>
            </Position>
            <AltitudeMeters>917.79998779296875</AltitudeMeters>
            <DistanceMeters>NAN</DistanceMeters>
          </Trackpoint>
          <Trackpoint>
            <Time>2019-10-07T09:42:19.000Z</Time>
            <Position>
              <LatitudeDegrees>40.7649329490959644317626953125</LatitudeDegrees>
              <LongitudeDegrees>-5.626656599342823028564453125</LongitudeDegrees>
            </Position>
            <AltitudeMeters>917.4000244140625</AltitudeMeters>
            <DistanceMeters>NAN</DistanceMeters>
          </Trackpoint>
          <Trackpoint>
            <Time>2019-10-07T09:42:20.000Z</Time>
            <Position>
              <LatitudeDegrees>40.76484762132167816162109375</LatitudeDegrees>
              <LongitudeDegrees>-5.626688115298748016357421875</LongitudeDegrees>
            </Position>
            <AltitudeMeters>917</AltitudeMeters>
            <DistanceMeters>NAN</DistanceMeters>
          </Trackpoint>
          <Trackpoint>
            <Time>2019-10-07T09:42:25.000Z</Time>
            <Position>
              <LatitudeDegrees>40.76441335491836071014404296875</LatitudeDegrees>
              <LongitudeDegrees>-5.626849047839641571044921875</LongitudeDegrees>
            </Position>
            <AltitudeMeters>915.79998779296875</AltitudeMeters>
            <DistanceMeters>NAN</DistanceMeters>
          </Trackpoint>
          <Trackpoint>
            <Time>2019-10-07T09:42:28.000Z</Time>
            <Position>
              <LatitudeDegrees>40.76414429582655429840087890625</LatitudeDegrees>
              <LongitudeDegrees>-5.6269497983157634735107421875</LongitudeDegrees>
            </Position>
            <AltitudeMeters>914.4000244140625</AltitudeMeters>
            <DistanceMeters>NAN</DistanceMeters>
          </Trackpoint>
          <Trackpoint>
            <Time>2019-10-07T09:42:30.000Z</Time>
            <Position>
              <LatitudeDegrees>40.7639572955667972564697265625</LatitudeDegrees>
              <LongitudeDegrees>-5.62701559625566005706787109375</LongitudeDegrees>
            </Position>
            <AltitudeMeters>913.4000244140625</AltitudeMeters>
            <DistanceMeters>NAN</DistanceMeters>
          </Trackpoint>
          <Trackpoint>
            <Time>2019-10-07T09:42:34.000Z</Time>
            <Position>
              <LatitudeDegrees>40.76357667334377765655517578125</LatitudeDegrees>
              <LongitudeDegrees>-5.62715507112443447113037109375</LongitudeDegrees>
            </Position>
            <AltitudeMeters>911.79998779296875</AltitudeMeters>
            <DistanceMeters>NAN</DistanceMeters>
          </Trackpoint>
          <Trackpoint>
            <Time>2019-10-07T09:42:35.000Z</Time>
            <Position>
              <LatitudeDegrees>40.7634798623621463775634765625</LatitudeDegrees>
              <LongitudeDegrees>-5.6271915324032306671142578125</LongitudeDegrees>
            </Position>
            <AltitudeMeters>910.5999755859375</AltitudeMeters>
            <DistanceMeters>NAN</DistanceMeters>
          </Trackpoint>
          <Trackpoint>
            <Time>2019-10-07T09:42:38.000Z</Time>
            <Position>
              <LatitudeDegrees>40.76318138279020786285400390625</LatitudeDegrees>
              <LongitudeDegrees>-5.62729974277317523956298828125</LongitudeDegrees>
            </Position>
            <AltitudeMeters>909</AltitudeMeters>
            <DistanceMeters>NAN</DistanceMeters>
          </Trackpoint>
          <Trackpoint>
            <Time>2019-10-07T09:42:41.000Z</Time>
            <Position>
              <LatitudeDegrees>40.7628860883414745330810546875</LatitudeDegrees>
              <LongitudeDegrees>-5.62740719877183437347412109375</LongitudeDegrees>
            </Position>
            <AltitudeMeters>908</AltitudeMeters>
            <DistanceMeters>NAN</DistanceMeters>
          </Trackpoint>
          <Trackpoint>
            <Time>2019-10-07T09:42:42.000Z</Time>
            <Position>
              <LatitudeDegrees>40.7627870142459869384765625</LatitudeDegrees>
              <LongitudeDegrees>-5.62744139693677425384521484375</LongitudeDegrees>
            </Position>
            <AltitudeMeters>907.4000244140625</AltitudeMeters>
            <DistanceMeters>NAN</DistanceMeters>
          </Trackpoint>
          <Trackpoint>
            <Time>2019-10-07T09:42:44.000Z</Time>
            <Position>
              <LatitudeDegrees>40.76259045861661434173583984375</LatitudeDegrees>
              <LongitudeDegrees>-5.62751499004662036895751953125</LongitudeDegrees>
            </Position>
            <AltitudeMeters>906.20001220703125</AltitudeMeters>
            <DistanceMeters>NAN</DistanceMeters>
          </Trackpoint>
          <Trackpoint>
            <Time>2019-10-07T09:42:45.000Z</Time>
            <Position>
              <LatitudeDegrees>40.76249473728239536285400390625</LatitudeDegrees>
              <LongitudeDegrees>-5.62755203805863857269287109375</LongitudeDegrees>
            </Position>
            <AltitudeMeters>905.79998779296875</AltitudeMeters>
            <DistanceMeters>NAN</DistanceMeters>
          </Trackpoint>
          <Trackpoint>
            <Time>2019-10-07T09:42:46.000Z</Time>
            <Position>
              <LatitudeDegrees>40.7623969204723834991455078125</LatitudeDegrees>
              <LongitudeDegrees>-5.62759143300354480743408203125</LongitudeDegrees>
            </Position>
            <AltitudeMeters>905.5999755859375</AltitudeMeters>
            <DistanceMeters>NAN</DistanceMeters>
          </Trackpoint>
          <Trackpoint>
            <Time>2019-10-07T09:42:47.000Z</Time>
            <Position>
              <LatitudeDegrees>40.762298516929149627685546875</LatitudeDegrees>
              <LongitudeDegrees>-5.62763015739619731903076171875</LongitudeDegrees>
            </Position>
            <AltitudeMeters>905</AltitudeMeters>
            <DistanceMeters>NAN</DistanceMeters>
          </Trackpoint>
          <Trackpoint>
            <Time>2019-10-07T09:42:48.000Z</Time>
            <Position>
              <LatitudeDegrees>40.76219919137656688690185546875</LatitudeDegrees>
              <LongitudeDegrees>-5.62766737304627895355224609375</LongitudeDegrees>
            </Position>
            <AltitudeMeters>904.20001220703125</AltitudeMeters>
            <DistanceMeters>NAN</DistanceMeters>
          </Trackpoint>
          <Trackpoint>
            <Time>2019-10-07T09:42:49.000Z</Time>
            <Position>
              <LatitudeDegrees>40.7621003687381744384765625</LatitudeDegrees>
              <LongitudeDegrees>-5.6277041696012020111083984375</LongitudeDegrees>
            </Position>
            <AltitudeMeters>903.20001220703125</AltitudeMeters>
            <DistanceMeters>NAN</DistanceMeters>
          </Trackpoint>
          <Trackpoint>
            <Time>2019-10-07T09:42:51.000Z</Time>
            <Position>
              <LatitudeDegrees>40.76190314255654811859130859375</LatitudeDegrees>
              <LongitudeDegrees>-5.62778153456747531890869140625</LongitudeDegrees>
            </Position>
            <AltitudeMeters>902.4000244140625</AltitudeMeters>
            <DistanceMeters>NAN</DistanceMeters>
          </Trackpoint>
          <Trackpoint>
            <Time>2019-10-07T09:42:52.000Z</Time>
            <Position>
              <LatitudeDegrees>40.76180222444236278533935546875</LatitudeDegrees>
              <LongitudeDegrees>-5.627818666398525238037109375</LongitudeDegrees>
            </Position>
            <AltitudeMeters>902</AltitudeMeters>
            <DistanceMeters>NAN</DistanceMeters>
          </Trackpoint>
          <Trackpoint>
            <Time>2019-10-07T09:42:54.000Z</Time>
            <Position>
              <LatitudeDegrees>40.76159812510013580322265625</LatitudeDegrees>
              <LongitudeDegrees>-5.62789502553641796112060546875</LongitudeDegrees>
            </Position>
            <AltitudeMeters>900.5999755859375</AltitudeMeters>
            <DistanceMeters>NAN</DistanceMeters>
          </Trackpoint>
          <Trackpoint>
            <Time>2019-10-07T09:42:56.000Z</Time>
            <Position>
              <LatitudeDegrees>40.7613910920917987823486328125</LatitudeDegrees>
              <LongitudeDegrees>-5.62797096557915210723876953125</LongitudeDegrees>
            </Position>
            <AltitudeMeters>899</AltitudeMeters>
            <DistanceMeters>NAN</DistanceMeters>
          </Trackpoint>
          <Trackpoint>
            <Time>2019-10-07T09:42:58.000Z</Time>
            <Position>
              <LatitudeDegrees>40.76117978431284427642822265625</LatitudeDegrees>
              <LongitudeDegrees>-5.6280444748699665069580078125</LongitudeDegrees>
            </Position>
            <AltitudeMeters>898</AltitudeMeters>
            <DistanceMeters>NAN</DistanceMeters>
          </Trackpoint>
          <Trackpoint>
            <Time>2019-10-07T09:43:00.000Z</Time>
            <Position>
              <LatitudeDegrees>40.760963447391986846923828125</LatitudeDegrees>
              <LongitudeDegrees>-5.62811915762722492218017578125</LongitudeDegrees>
            </Position>
            <AltitudeMeters>896.4000244140625</AltitudeMeters>
            <DistanceMeters>NAN</DistanceMeters>
          </Trackpoint>
          <Trackpoint>
            <Time>2019-10-07T09:43:02.000Z</Time>
            <Position>
              <LatitudeDegrees>40.76074861921370029449462890625</LatitudeDegrees>
              <LongitudeDegrees>-5.628196857869625091552734375</LongitudeDegrees>
            </Position>
            <AltitudeMeters>895.4000244140625</AltitudeMeters>
            <DistanceMeters>NAN</DistanceMeters>
          </Trackpoint>
          <Trackpoint>
            <Time>2019-10-07T09:43:03.000Z</Time>
            <Position>
              <LatitudeDegrees>40.76064300723373889923095703125</LatitudeDegrees>
              <LongitudeDegrees>-5.6282387673854827880859375</LongitudeDegrees>
            </Position>
            <AltitudeMeters>894</AltitudeMeters>
            <DistanceMeters>NAN</DistanceMeters>
          </Trackpoint>
          <Trackpoint>
            <Time>2019-10-07T09:43:06.000Z</Time>
            <Position>
              <LatitudeDegrees>40.76033220626413822174072265625</LatitudeDegrees>
              <LongitudeDegrees>-5.6283539347350597381591796875</LongitudeDegrees>
            </Position>
            <AltitudeMeters>893.20001220703125</AltitudeMeters>
            <DistanceMeters>NAN</DistanceMeters>
          </Trackpoint>
          <Trackpoint>
            <Time>2019-10-07T09:43:07.000Z</Time>
            <Position>
              <LatitudeDegrees>40.76023422181606292724609375</LatitudeDegrees>
              <LongitudeDegrees>-5.62839089892804622650146484375</LongitudeDegrees>
            </Position>
            <AltitudeMeters>893</AltitudeMeters>
            <DistanceMeters>NAN</DistanceMeters>
          </Trackpoint>
          <Trackpoint>
            <Time>2019-10-07T09:43:09.000Z</Time>
            <Position>
              <LatitudeDegrees>40.7600449584424495697021484375</LatitudeDegrees>
              <LongitudeDegrees>-5.6284649111330509185791015625</LongitudeDegrees>
            </Position>
            <AltitudeMeters>893.5999755859375</AltitudeMeters>
            <DistanceMeters>NAN</DistanceMeters>
          </Trackpoint>
          <Trackpoint>
            <Time>2019-10-07T09:43:11.000Z</Time>
            <Position>
              <LatitudeDegrees>40.75986416079103946685791015625</LatitudeDegrees>
              <LongitudeDegrees>-5.62852802686393260955810546875</LongitudeDegrees>
            </Position>
            <AltitudeMeters>894.20001220703125</AltitudeMeters>
            <DistanceMeters>NAN</DistanceMeters>
          </Trackpoint>
          <Trackpoint>
            <Time>2019-10-07T09:43:13.000Z</Time>
            <Position>
              <LatitudeDegrees>40.759687721729278564453125</LatitudeDegrees>
              <LongitudeDegrees>-5.62859089113771915435791015625</LongitudeDegrees>
            </Position>
            <AltitudeMeters>894.5999755859375</AltitudeMeters>
            <DistanceMeters>NAN</DistanceMeters>
          </Trackpoint>
          <Trackpoint>
            <Time>2019-10-07T09:43:19.000Z</Time>
            <Position>
              <LatitudeDegrees>40.7591571472585201263427734375</LatitudeDegrees>
              <LongitudeDegrees>-5.62878333963453769683837890625</LongitudeDegrees>
            </Position>
            <AltitudeMeters>892.4000244140625</AltitudeMeters>
            <DistanceMeters>NAN</DistanceMeters>
          </Trackpoint>
          <Trackpoint>
            <Time>2019-10-07T09:43:21.000Z</Time>
            <Position>
              <LatitudeDegrees>40.75896796770393848419189453125</LatitudeDegrees>
              <LongitudeDegrees>-5.62884955666959285736083984375</LongitudeDegrees>
            </Position>
            <AltitudeMeters>891.20001220703125</AltitudeMeters>
            <DistanceMeters>NAN</DistanceMeters>
          </Trackpoint>
          <Trackpoint>
            <Time>2019-10-07T09:43:22.000Z</Time>
            <Position>
              <LatitudeDegrees>40.7588694803416728973388671875</LatitudeDegrees>
              <LongitudeDegrees>-5.628881491720676422119140625</LongitudeDegrees>
            </Position>
            <AltitudeMeters>890.5999755859375</AltitudeMeters>
            <DistanceMeters>NAN</DistanceMeters>
          </Trackpoint>
          <Trackpoint>
            <Time>2019-10-07T09:43:23.000Z</Time>
            <Position>
              <LatitudeDegrees>40.758770070970058441162109375</LatitudeDegrees>
              <LongitudeDegrees>-5.6289171986281871795654296875</LongitudeDegrees>
            </Position>
            <AltitudeMeters>890</AltitudeMeters>
            <DistanceMeters>NAN</DistanceMeters>
          </Trackpoint>
          <Trackpoint>
            <Time>2019-10-07T09:43:25.000Z</Time>
            <Position>
              <LatitudeDegrees>40.7585653848946094512939453125</LatitudeDegrees>
              <LongitudeDegrees>-5.6289844214916229248046875</LongitudeDegrees>
            </Position>
            <AltitudeMeters>888.4000244140625</AltitudeMeters>
            <DistanceMeters>NAN</DistanceMeters>
          </Trackpoint>
          <Trackpoint>
            <Time>2019-10-07T09:43:27.000Z</Time>
            <Position>
              <LatitudeDegrees>40.75835424475371837615966796875</LatitudeDegrees>
              <LongitudeDegrees>-5.62905105762183666229248046875</LongitudeDegrees>
            </Position>
            <AltitudeMeters>886.79998779296875</AltitudeMeters>
            <DistanceMeters>NAN</DistanceMeters>
          </Trackpoint>
          <Trackpoint>
            <Time>2019-10-07T09:43:28.000Z</Time>
            <Position>
              <LatitudeDegrees>40.7582458667457103729248046875</LatitudeDegrees>
              <LongitudeDegrees>-5.62908223830163478851318359375</LongitudeDegrees>
            </Position>
            <AltitudeMeters>885.5999755859375</AltitudeMeters>
            <DistanceMeters>NAN</DistanceMeters>
          </Trackpoint>
          <Trackpoint>
            <Time>2019-10-07T09:43:29.000Z</Time>
            <Position>
              <LatitudeDegrees>40.7581382431089878082275390625</LatitudeDegrees>
              <LongitudeDegrees>-5.629113502800464630126953125</LongitudeDegrees>
            </Position>
            <AltitudeMeters>885</AltitudeMeters>
            <DistanceMeters>NAN</DistanceMeters>
          </Trackpoint>
          <Trackpoint>
            <Time>2019-10-07T09:43:31.000Z</Time>
            <Position>
              <LatitudeDegrees>40.75792190618813037872314453125</LatitudeDegrees>
              <LongitudeDegrees>-5.62916873954236507415771484375</LongitudeDegrees>
            </Position>
            <AltitudeMeters>884.20001220703125</AltitudeMeters>
            <DistanceMeters>NAN</DistanceMeters>
          </Trackpoint>
          <Trackpoint>
            <Time>2019-10-07T09:43:34.000Z</Time>
            <Position>
              <LatitudeDegrees>40.75760071165859699249267578125</LatitudeDegrees>
              <LongitudeDegrees>-5.62924333848059177398681640625</LongitudeDegrees>
            </Position>
            <AltitudeMeters>883</AltitudeMeters>
            <DistanceMeters>NAN</DistanceMeters>
          </Trackpoint>
          <Trackpoint>
            <Time>2019-10-07T09:43:37.000Z</Time>
            <Position>
              <LatitudeDegrees>40.75728622265160083770751953125</LatitudeDegrees>
              <LongitudeDegrees>-5.6292970664799213409423828125</LongitudeDegrees>
            </Position>
            <AltitudeMeters>882</AltitudeMeters>
            <DistanceMeters>NAN</DistanceMeters>
          </Trackpoint>
          <Trackpoint>
            <Time>2019-10-07T09:43:38.000Z</Time>
            <Position>
              <LatitudeDegrees>40.757183544337749481201171875</LatitudeDegrees>
              <LongitudeDegrees>-5.6293141655623912811279296875</LongitudeDegrees>
            </Position>
            <AltitudeMeters>882</AltitudeMeters>
            <DistanceMeters>NAN</DistanceMeters>
          </Trackpoint>
          <Trackpoint>
            <Time>2019-10-07T09:43:41.000Z</Time>
            <Position>
              <LatitudeDegrees>40.7568829692900180816650390625</LatitudeDegrees>
              <LongitudeDegrees>-5.629347860813140869140625</LongitudeDegrees>
            </Position>
            <AltitudeMeters>880.5999755859375</AltitudeMeters>
            <DistanceMeters>NAN</DistanceMeters>
          </Trackpoint>
          <Trackpoint>
            <Time>2019-10-07T09:43:44.000Z</Time>
            <Position>
              <LatitudeDegrees>40.75659002177417278289794921875</LatitudeDegrees>
              <LongitudeDegrees>-5.62936940230429172515869140625</LongitudeDegrees>
            </Position>
            <AltitudeMeters>880.79998779296875</AltitudeMeters>
            <DistanceMeters>NAN</DistanceMeters>
          </Trackpoint>
          <Trackpoint>
            <Time>2019-10-07T09:43:48.000Z</Time>
            <Position>
              <LatitudeDegrees>40.75620244257152080535888671875</LatitudeDegrees>
              <LongitudeDegrees>-5.6293681450188159942626953125</LongitudeDegrees>
            </Position>
            <AltitudeMeters>879.5999755859375</AltitudeMeters>
            <DistanceMeters>NAN</DistanceMeters>
          </Trackpoint>
          <Trackpoint>
            <Time>2019-10-07T09:43:49.000Z</Time>
            <Position>
              <LatitudeDegrees>40.75610538013279438018798828125</LatitudeDegrees>
              <LongitudeDegrees>-5.62936252914369106292724609375</LongitudeDegrees>
            </Position>
            <AltitudeMeters>878.5999755859375</AltitudeMeters>
            <DistanceMeters>NAN</DistanceMeters>
          </Trackpoint>
          <Trackpoint>
            <Time>2019-10-07T09:43:52.000Z</Time>
            <Position>
              <LatitudeDegrees>40.755809247493743896484375</LatitudeDegrees>
              <LongitudeDegrees>-5.6293362937867641448974609375</LongitudeDegrees>
            </Position>
            <AltitudeMeters>878.20001220703125</AltitudeMeters>
            <DistanceMeters>NAN</DistanceMeters>
          </Trackpoint>
          <Trackpoint>
            <Time>2019-10-07T09:43:54.000Z</Time>
            <Position>
              <LatitudeDegrees>40.75560783036053180694580078125</LatitudeDegrees>
              <LongitudeDegrees>-5.62931357882916927337646484375</LongitudeDegrees>
            </Position>
            <AltitudeMeters>876.79998779296875</AltitudeMeters>
            <DistanceMeters>NAN</DistanceMeters>
          </Trackpoint>
          <Trackpoint>
            <Time>2019-10-07T09:43:56.000Z</Time>
            <Position>
              <LatitudeDegrees>40.7554064132273197174072265625</LatitudeDegrees>
              <LongitudeDegrees>-5.62928055413067340850830078125</LongitudeDegrees>
            </Position>
            <AltitudeMeters>875.20001220703125</AltitudeMeters>
            <DistanceMeters>NAN</DistanceMeters>
          </Trackpoint>
          <Trackpoint>
            <Time>2019-10-07T09:43:59.000Z</Time>
            <Position>
              <LatitudeDegrees>40.7551043294370174407958984375</LatitudeDegrees>
              <LongitudeDegrees>-5.629217438399791717529296875</LongitudeDegrees>
            </Position>
            <AltitudeMeters>874.20001220703125</AltitudeMeters>
            <DistanceMeters>NAN</DistanceMeters>
          </Trackpoint>
          <Trackpoint>
            <Time>2019-10-07T09:44:00.000Z</Time>
            <Position>
              <LatitudeDegrees>40.755004920065402984619140625</LatitudeDegrees>
              <LongitudeDegrees>-5.62919723801314830780029296875</LongitudeDegrees>
            </Position>
            <AltitudeMeters>873.79998779296875</AltitudeMeters>
            <DistanceMeters>NAN</DistanceMeters>
          </Trackpoint>
          <Trackpoint>
            <Time>2019-10-07T09:44:03.000Z</Time>
            <Position>
              <LatitudeDegrees>40.75470007024705410003662109375</LatitudeDegrees>
              <LongitudeDegrees>-5.629111826419830322265625</LongitudeDegrees>
            </Position>
            <AltitudeMeters>873</AltitudeMeters>
            <DistanceMeters>NAN</DistanceMeters>
          </Trackpoint>
          <Trackpoint>
            <Time>2019-10-07T09:44:04.000Z</Time>
            <Position>
              <LatitudeDegrees>40.75459864921867847442626953125</LatitudeDegrees>
              <LongitudeDegrees>-5.62907620333135128021240234375</LongitudeDegrees>
            </Position>
            <AltitudeMeters>871.79998779296875</AltitudeMeters>
            <DistanceMeters>NAN</DistanceMeters>
          </Trackpoint>
          <Trackpoint>
            <Time>2019-10-07T09:44:06.000Z</Time>
            <Position>
              <LatitudeDegrees>40.7543958909809589385986328125</LatitudeDegrees>
              <LongitudeDegrees>-5.62900252640247344970703125</LongitudeDegrees>
            </Position>
            <AltitudeMeters>870.5999755859375</AltitudeMeters>
            <DistanceMeters>NAN</DistanceMeters>
          </Trackpoint>
          <Trackpoint>
            <Time>2019-10-07T09:44:09.000Z</Time>
            <Position>
              <LatitudeDegrees>40.75409841723740100860595703125</LatitudeDegrees>
              <LongitudeDegrees>-5.62888191081583499908447265625</LongitudeDegrees>
            </Position>
            <AltitudeMeters>870</AltitudeMeters>
            <DistanceMeters>NAN</DistanceMeters>
          </Trackpoint>
          <Trackpoint>
            <Time>2019-10-07T09:44:10.000Z</Time>
            <Position>
              <LatitudeDegrees>40.75400185771286487579345703125</LatitudeDegrees>
              <LongitudeDegrees>-5.62883916310966014862060546875</LongitudeDegrees>
            </Position>
            <AltitudeMeters>869.5999755859375</AltitudeMeters>
            <DistanceMeters>NAN</DistanceMeters>
          </Trackpoint>
          <Trackpoint>
            <Time>2019-10-07T09:44:13.000Z</Time>
            <Position>
              <LatitudeDegrees>40.75371502898633480072021484375</LatitudeDegrees>
              <LongitudeDegrees>-5.628697760403156280517578125</LongitudeDegrees>
            </Position>
            <AltitudeMeters>868.5999755859375</AltitudeMeters>
            <DistanceMeters>NAN</DistanceMeters>
          </Trackpoint>
          <Trackpoint>
            <Time>2019-10-07T09:44:14.000Z</Time>
            <Position>
              <LatitudeDegrees>40.7536200620234012603759765625</LatitudeDegrees>
              <LongitudeDegrees>-5.6286479718983173370361328125</LongitudeDegrees>
            </Position>
            <AltitudeMeters>868.20001220703125</AltitudeMeters>
            <DistanceMeters>NAN</DistanceMeters>
          </Trackpoint>
          <Trackpoint>
            <Time>2019-10-07T09:44:16.000Z</Time>
            <Position>
              <LatitudeDegrees>40.75343306176364421844482421875</LatitudeDegrees>
              <LongitudeDegrees>-5.62853976152837276458740234375</LongitudeDegrees>
            </Position>
            <AltitudeMeters>867.5999755859375</AltitudeMeters>
            <DistanceMeters>NAN</DistanceMeters>
          </Trackpoint>
          <Trackpoint>
            <Time>2019-10-07T09:44:17.000Z</Time>
            <Position>
              <LatitudeDegrees>40.75334186665713787078857421875</LatitudeDegrees>
              <LongitudeDegrees>-5.62848351895809173583984375</LongitudeDegrees>
            </Position>
            <AltitudeMeters>867</AltitudeMeters>
            <DistanceMeters>NAN</DistanceMeters>
          </Trackpoint>
          <Trackpoint>
            <Time>2019-10-07T09:44:20.000Z</Time>
            <Position>
              <LatitudeDegrees>40.75306358747184276580810546875</LatitudeDegrees>
              <LongitudeDegrees>-5.6283086724579334259033203125</LongitudeDegrees>
            </Position>
            <AltitudeMeters>865.79998779296875</AltitudeMeters>
            <DistanceMeters>NAN</DistanceMeters>
          </Trackpoint>
          <Trackpoint>
            <Time>2019-10-07T09:44:22.000Z</Time>
            <Position>
              <LatitudeDegrees>40.75287985615432262420654296875</LatitudeDegrees>
              <LongitudeDegrees>-5.62818822450935840606689453125</LongitudeDegrees>
            </Position>
            <AltitudeMeters>864.79998779296875</AltitudeMeters>
            <DistanceMeters>NAN</DistanceMeters>
          </Trackpoint>
          <Trackpoint>
            <Time>2019-10-07T09:44:25.000Z</Time>
            <Position>
              <LatitudeDegrees>40.75260291807353496551513671875</LatitudeDegrees>
              <LongitudeDegrees>-5.6279968656599521636962890625</LongitudeDegrees>
            </Position>
            <AltitudeMeters>863.5999755859375</AltitudeMeters>
            <DistanceMeters>NAN</DistanceMeters>
          </Trackpoint>
          <Trackpoint>
            <Time>2019-10-07T09:44:27.000Z</Time>
            <Position>
              <LatitudeDegrees>40.752420611679553985595703125</LatitudeDegrees>
              <LongitudeDegrees>-5.6278657726943492889404296875</LongitudeDegrees>
            </Position>
            <AltitudeMeters>862</AltitudeMeters>
            <DistanceMeters>NAN</DistanceMeters>
          </Trackpoint>
          <Trackpoint>
            <Time>2019-10-07T09:44:29.000Z</Time>
            <Position>
              <LatitudeDegrees>40.75223897583782672882080078125</LatitudeDegrees>
              <LongitudeDegrees>-5.62773518264293670654296875</LongitudeDegrees>
            </Position>
            <AltitudeMeters>860.5999755859375</AltitudeMeters>
            <DistanceMeters>NAN</DistanceMeters>
          </Trackpoint>
          <Trackpoint>
            <Time>2019-10-07T09:44:30.000Z</Time>
            <Position>
              <LatitudeDegrees>40.75214761309325695037841796875</LatitudeDegrees>
              <LongitudeDegrees>-5.62767189927399158477783203125</LongitudeDegrees>
            </Position>
            <AltitudeMeters>860.5999755859375</AltitudeMeters>
            <DistanceMeters>NAN</DistanceMeters>
          </Trackpoint>
          <Trackpoint>
            <Time>2019-10-07T09:44:33.000Z</Time>
            <Position>
              <LatitudeDegrees>40.75186816044151782989501953125</LatitudeDegrees>
              <LongitudeDegrees>-5.62749185599386692047119140625</LongitudeDegrees>
            </Position>
            <AltitudeMeters>859.4000244140625</AltitudeMeters>
            <DistanceMeters>NAN</DistanceMeters>
          </Trackpoint>
          <Trackpoint>
            <Time>2019-10-07T09:44:37.000Z</Time>
            <Position>
              <LatitudeDegrees>40.75148628093302249908447265625</LatitudeDegrees>
              <LongitudeDegrees>-5.62733109109103679656982421875</LongitudeDegrees>
            </Position>
            <AltitudeMeters>858.79998779296875</AltitudeMeters>
            <DistanceMeters>NAN</DistanceMeters>
          </Trackpoint>
          <Trackpoint>
            <Time>2019-10-07T09:44:42.000Z</Time>
            <Position>
              <LatitudeDegrees>40.75100800953805446624755859375</LatitudeDegrees>
              <LongitudeDegrees>-5.6272545643150806427001953125</LongitudeDegrees>
            </Position>
            <AltitudeMeters>858.5999755859375</AltitudeMeters>
            <DistanceMeters>NAN</DistanceMeters>
          </Trackpoint>
          <Trackpoint>
            <Time>2019-10-07T09:44:43.000Z</Time>
            <Position>
              <LatitudeDegrees>40.75091463513672351837158203125</LatitudeDegrees>
              <LongitudeDegrees>-5.6272548995912075042724609375</LongitudeDegrees>
            </Position>
            <AltitudeMeters>857.79998779296875</AltitudeMeters>
            <DistanceMeters>NAN</DistanceMeters>
          </Trackpoint>
          <Trackpoint>
            <Time>2019-10-07T09:44:48.000Z</Time>
            <Position>
              <LatitudeDegrees>40.750459916889667510986328125</LatitudeDegrees>
              <LongitudeDegrees>-5.627272166311740875244140625</LongitudeDegrees>
            </Position>
            <AltitudeMeters>857.4000244140625</AltitudeMeters>
            <DistanceMeters>NAN</DistanceMeters>
          </Trackpoint>
          <Trackpoint>
            <Time>2019-10-07T09:44:55.000Z</Time>
            <Position>
              <LatitudeDegrees>40.749849379062652587890625</LatitudeDegrees>
              <LongitudeDegrees>-5.62731617130339145660400390625</LongitudeDegrees>
            </Position>
            <AltitudeMeters>856.79998779296875</AltitudeMeters>
            <DistanceMeters>NAN</DistanceMeters>
          </Trackpoint>
          <Trackpoint>
            <Time>2019-10-07T09:44:56.000Z</Time>
            <Position>
              <LatitudeDegrees>40.74976212345063686370849609375</LatitudeDegrees>
              <LongitudeDegrees>-5.6273196078836917877197265625</LongitudeDegrees>
            </Position>
            <AltitudeMeters>856</AltitudeMeters>
            <DistanceMeters>NAN</DistanceMeters>
          </Trackpoint>
          <Trackpoint>
            <Time>2019-10-07T09:44:57.000Z</Time>
            <Position>
              <LatitudeDegrees>40.74967629276216030120849609375</LatitudeDegrees>
              <LongitudeDegrees>-5.62732539139688014984130859375</LongitudeDegrees>
            </Position>
            <AltitudeMeters>855.5999755859375</AltitudeMeters>
            <DistanceMeters>NAN</DistanceMeters>
          </Trackpoint>
          <Trackpoint>
            <Time>2019-10-07T09:45:03.000Z</Time>
            <Position>
              <LatitudeDegrees>40.74916072189807891845703125</LatitudeDegrees>
              <LongitudeDegrees>-5.62735833227634429931640625</LongitudeDegrees>
            </Position>
            <AltitudeMeters>854.5999755859375</AltitudeMeters>
            <DistanceMeters>NAN</DistanceMeters>
          </Trackpoint>
          <Trackpoint>
            <Time>2019-10-07T09:45:04.000Z</Time>
            <Position>
              <LatitudeDegrees>40.74907614849507808685302734375</LatitudeDegrees>
              <LongitudeDegrees>-5.62735908664762973785400390625</LongitudeDegrees>
            </Position>
            <AltitudeMeters>854.4000244140625</AltitudeMeters>
            <DistanceMeters>NAN</DistanceMeters>
          </Trackpoint>
          <Trackpoint>
            <Time>2019-10-07T09:45:07.000Z</Time>
            <Position>
              <LatitudeDegrees>40.748833157122135162353515625</LatitudeDegrees>
              <LongitudeDegrees>-5.62735137529671192169189453125</LongitudeDegrees>
            </Position>
            <AltitudeMeters>854.79998779296875</AltitudeMeters>
            <DistanceMeters>NAN</DistanceMeters>
          </Trackpoint>
          <Trackpoint>
            <Time>2019-10-07T09:45:10.000Z</Time>
            <Position>
              <LatitudeDegrees>40.74860190041363239288330078125</LatitudeDegrees>
              <LongitudeDegrees>-5.62732405029237270355224609375</LongitudeDegrees>
            </Position>
            <AltitudeMeters>855.20001220703125</AltitudeMeters>
            <DistanceMeters>NAN</DistanceMeters>
          </Trackpoint>
          <Trackpoint>
            <Time>2019-10-07T09:45:17.000Z</Time>
            <Position>
              <LatitudeDegrees>40.748092196881771087646484375</LatitudeDegrees>
              <LongitudeDegrees>-5.62722112052142620086669921875</LongitudeDegrees>
            </Position>
            <AltitudeMeters>855.4000244140625</AltitudeMeters>
            <DistanceMeters>NAN</DistanceMeters>
          </Trackpoint>
          <Trackpoint>
            <Time>2019-10-07T09:45:18.000Z</Time>
            <Position>
              <LatitudeDegrees>40.7480236329138278961181640625</LatitudeDegrees>
              <LongitudeDegrees>-5.62720670364797115325927734375</LongitudeDegrees>
            </Position>
            <AltitudeMeters>855.4000244140625</AltitudeMeters>
            <DistanceMeters>NAN</DistanceMeters>
          </Trackpoint>
          <Trackpoint>
            <Time>2019-10-07T09:45:19.000Z</Time>
            <Position>
              <LatitudeDegrees>40.74795464985072612762451171875</LatitudeDegrees>
              <LongitudeDegrees>-5.6271979026496410369873046875</LongitudeDegrees>
            </Position>
            <AltitudeMeters>855.5999755859375</AltitudeMeters>
            <DistanceMeters>NAN</DistanceMeters>
          </Trackpoint>
          <Trackpoint>
            <Time>2019-10-07T09:45:26.000Z</Time>
            <Position>
              <LatitudeDegrees>40.7474769651889801025390625</LatitudeDegrees>
              <LongitudeDegrees>-5.62714819796383380889892578125</LongitudeDegrees>
            </Position>
            <AltitudeMeters>855.4000244140625</AltitudeMeters>
            <DistanceMeters>NAN</DistanceMeters>
          </Trackpoint>
          <Trackpoint>
            <Time>2019-10-07T09:45:32.000Z</Time>
            <Position>
              <LatitudeDegrees>40.747083015739917755126953125</LatitudeDegrees>
              <LongitudeDegrees>-5.6271526403725147247314453125</LongitudeDegrees>
            </Position>
            <AltitudeMeters>855.20001220703125</AltitudeMeters>
            <DistanceMeters>NAN</DistanceMeters>
          </Trackpoint>
          <Trackpoint>
            <Time>2019-10-07T09:45:36.000Z</Time>
            <Position>
              <LatitudeDegrees>40.7468344084918498992919921875</LatitudeDegrees>
              <LongitudeDegrees>-5.6271653808653354644775390625</LongitudeDegrees>
            </Position>
            <AltitudeMeters>856.20001220703125</AltitudeMeters>
            <DistanceMeters>NAN</DistanceMeters>
          </Trackpoint>
          <Trackpoint>
            <Time>2019-10-07T09:45:45.000Z</Time>
            <Position>
              <LatitudeDegrees>40.7463133893907070159912109375</LatitudeDegrees>
              <LongitudeDegrees>-5.627199746668338775634765625</LongitudeDegrees>
            </Position>
            <AltitudeMeters>856.4000244140625</AltitudeMeters>
            <DistanceMeters>NAN</DistanceMeters>
          </Trackpoint>
          <Trackpoint>
            <Time>2019-10-07T09:45:47.000Z</Time>
            <Position>
              <LatitudeDegrees>40.7462010718882083892822265625</LatitudeDegrees>
              <LongitudeDegrees>-5.62721122987568378448486328125</LongitudeDegrees>
            </Position>
            <AltitudeMeters>856.79998779296875</AltitudeMeters>
            <DistanceMeters>NAN</DistanceMeters>
          </Trackpoint>
          <Trackpoint>
            <Time>2019-10-07T09:45:54.000Z</Time>
            <Position>
              <LatitudeDegrees>40.74580888263881206512451171875</LatitudeDegrees>
              <LongitudeDegrees>-5.627239309251308441162109375</LongitudeDegrees>
            </Position>
            <AltitudeMeters>856.4000244140625</AltitudeMeters>
            <DistanceMeters>NAN</DistanceMeters>
          </Trackpoint>
          <Trackpoint>
            <Time>2019-10-07T09:46:00.000Z</Time>
            <Position>
              <LatitudeDegrees>40.74545365758240222930908203125</LatitudeDegrees>
              <LongitudeDegrees>-5.62726537697017192840576171875</LongitudeDegrees>
            </Position>
            <AltitudeMeters>855.79998779296875</AltitudeMeters>
            <DistanceMeters>NAN</DistanceMeters>
          </Trackpoint>
          <Trackpoint>
            <Time>2019-10-07T09:46:03.000Z</Time>
            <Position>
              <LatitudeDegrees>40.7452532462775707244873046875</LatitudeDegrees>
              <LongitudeDegrees>-5.6272820569574832916259765625</LongitudeDegrees>
            </Position>
            <AltitudeMeters>854.20001220703125</AltitudeMeters>
            <DistanceMeters>NAN</DistanceMeters>
          </Trackpoint>
          <Trackpoint>
            <Time>2019-10-07T09:46:07.000Z</Time>
            <Position>
              <LatitudeDegrees>40.7449759729206562042236328125</LatitudeDegrees>
              <LongitudeDegrees>-5.6273028440773487091064453125</LongitudeDegrees>
            </Position>
            <AltitudeMeters>854</AltitudeMeters>
            <DistanceMeters>NAN</DistanceMeters>
          </Trackpoint>
          <Trackpoint>
            <Time>2019-10-07T09:46:10.000Z</Time>
            <Position>
              <LatitudeDegrees>40.7447681017220020294189453125</LatitudeDegrees>
              <LongitudeDegrees>-5.62731985934078693389892578125</LongitudeDegrees>
            </Position>
            <AltitudeMeters>853.5999755859375</AltitudeMeters>
            <DistanceMeters>NAN</DistanceMeters>
          </Trackpoint>
          <Trackpoint>
            <Time>2019-10-07T09:46:13.000Z</Time>
            <Position>
              <LatitudeDegrees>40.74456232599914073944091796875</LatitudeDegrees>
              <LongitudeDegrees>-5.62733243219554424285888671875</LongitudeDegrees>
            </Position>
            <AltitudeMeters>853.5999755859375</AltitudeMeters>
            <DistanceMeters>NAN</DistanceMeters>
          </Trackpoint>
          <Trackpoint>
            <Time>2019-10-07T09:46:21.000Z</Time>
            <Position>
              <LatitudeDegrees>40.7440563105046749114990234375</LatitudeDegrees>
              <LongitudeDegrees>-5.62737082131206989288330078125</LongitudeDegrees>
            </Position>
            <AltitudeMeters>854.4000244140625</AltitudeMeters>
            <DistanceMeters>NAN</DistanceMeters>
          </Trackpoint>
          <Trackpoint>
            <Time>2019-10-07T09:46:23.000Z</Time>
            <Position>
              <LatitudeDegrees>40.74395212344825267791748046875</LatitudeDegrees>
              <LongitudeDegrees>-5.62737417407333850860595703125</LongitudeDegrees>
            </Position>
            <AltitudeMeters>855.20001220703125</AltitudeMeters>
            <DistanceMeters>NAN</DistanceMeters>
          </Trackpoint>
          <Trackpoint>
            <Time>2019-10-07T09:46:26.000Z</Time>
            <Position>
              <LatitudeDegrees>40.74381030164659023284912109375</LatitudeDegrees>
              <LongitudeDegrees>-5.62738071195781230926513671875</LongitudeDegrees>
            </Position>
            <AltitudeMeters>856.20001220703125</AltitudeMeters>
            <DistanceMeters>NAN</DistanceMeters>
          </Trackpoint>
          <Trackpoint>
            <Time>2019-10-07T09:46:31.000Z</Time>
            <Position>
              <LatitudeDegrees>40.7436119019985198974609375</LatitudeDegrees>
              <LongitudeDegrees>-5.62739512883126735687255859375</LongitudeDegrees>
            </Position>
            <AltitudeMeters>857.4000244140625</AltitudeMeters>
            <DistanceMeters>NAN</DistanceMeters>
          </Trackpoint>
          <Trackpoint>
            <Time>2019-10-07T09:46:33.000Z</Time>
            <Position>
              <LatitudeDegrees>40.74353604577481746673583984375</LatitudeDegrees>
              <LongitudeDegrees>-5.627400241792201995849609375</LongitudeDegrees>
            </Position>
            <AltitudeMeters>857.5999755859375</AltitudeMeters>
            <DistanceMeters>NAN</DistanceMeters>
          </Trackpoint>
          <Trackpoint>
            <Time>2019-10-07T09:46:39.000Z</Time>
            <Position>
              <LatitudeDegrees>40.74330705218017101287841796875</LatitudeDegrees>
              <LongitudeDegrees>-5.62741206027567386627197265625</LongitudeDegrees>
            </Position>
            <AltitudeMeters>858.4000244140625</AltitudeMeters>
            <DistanceMeters>NAN</DistanceMeters>
          </Trackpoint>
          <Trackpoint>
            <Time>2019-10-07T09:46:42.000Z</Time>
            <Position>
              <LatitudeDegrees>40.7431948184967041015625</LatitudeDegrees>
              <LongitudeDegrees>-5.62742748297750949859619140625</LongitudeDegrees>
            </Position>
            <AltitudeMeters>859.4000244140625</AltitudeMeters>
            <DistanceMeters>NAN</DistanceMeters>
          </Trackpoint>
          <Trackpoint>
            <Time>2019-10-07T09:46:47.000Z</Time>
            <Position>
              <LatitudeDegrees>40.74301301501691341400146484375</LatitudeDegrees>
              <LongitudeDegrees>-5.62744894064962863922119140625</LongitudeDegrees>
            </Position>
            <AltitudeMeters>860.20001220703125</AltitudeMeters>
            <DistanceMeters>NAN</DistanceMeters>
          </Trackpoint>
          <Trackpoint>
            <Time>2019-10-07T09:46:48.000Z</Time>
            <Position>
              <LatitudeDegrees>40.7429770566523075103759765625</LatitudeDegrees>
              <LongitudeDegrees>-5.62745028175413608551025390625</LongitudeDegrees>
            </Position>
            <AltitudeMeters>860.5999755859375</AltitudeMeters>
            <DistanceMeters>NAN</DistanceMeters>
          </Trackpoint>
          <Trackpoint>
            <Time>2019-10-07T09:46:49.000Z</Time>
            <Position>
              <LatitudeDegrees>40.74294193647801876068115234375</LatitudeDegrees>
              <LongitudeDegrees>-5.6274503655731678009033203125</LongitudeDegrees>
            </Position>
            <AltitudeMeters>860.79998779296875</AltitudeMeters>
            <DistanceMeters>NAN</DistanceMeters>
          </Trackpoint>
          <Trackpoint>
            <Time>2019-10-07T09:46:59.000Z</Time>
            <Position>
              <LatitudeDegrees>40.74256089515984058380126953125</LatitudeDegrees>
              <LongitudeDegrees>-5.62747375108301639556884765625</LongitudeDegrees>
            </Position>
            <AltitudeMeters>861.5999755859375</AltitudeMeters>
            <DistanceMeters>NAN</DistanceMeters>
          </Trackpoint>
          <Trackpoint>
            <Time>2019-10-07T09:47:03.000Z</Time>
            <Position>
              <LatitudeDegrees>40.74239141307771205902099609375</LatitudeDegrees>
              <LongitudeDegrees>-5.62748707830905914306640625</LongitudeDegrees>
            </Position>
            <AltitudeMeters>861.5999755859375</AltitudeMeters>
            <DistanceMeters>NAN</DistanceMeters>
          </Trackpoint>
          <Trackpoint>
            <Time>2019-10-07T09:47:10.000Z</Time>
            <Position>
              <LatitudeDegrees>40.7420845516026020050048828125</LatitudeDegrees>
              <LongitudeDegrees>-5.62750987708568572998046875</LongitudeDegrees>
            </Position>
            <AltitudeMeters>861.20001220703125</AltitudeMeters>
            <DistanceMeters>NAN</DistanceMeters>
          </Trackpoint>
          <Trackpoint>
            <Time>2019-10-07T09:47:22.000Z</Time>
            <Position>
              <LatitudeDegrees>40.741530172526836395263671875</LatitudeDegrees>
              <LongitudeDegrees>-5.6275512836873531341552734375</LongitudeDegrees>
            </Position>
            <AltitudeMeters>861.4000244140625</AltitudeMeters>
            <DistanceMeters>NAN</DistanceMeters>
          </Trackpoint>
          <Trackpoint>
            <Time>2019-10-07T09:47:28.000Z</Time>
            <Position>
              <LatitudeDegrees>40.7412453554570674896240234375</LatitudeDegrees>
              <LongitudeDegrees>-5.62756846658885478973388671875</LongitudeDegrees>
            </Position>
            <AltitudeMeters>861.4000244140625</AltitudeMeters>
            <DistanceMeters>NAN</DistanceMeters>
          </Trackpoint>
          <Trackpoint>
            <Time>2019-10-07T09:47:32.000Z</Time>
            <Position>
              <LatitudeDegrees>40.7410535775125026702880859375</LatitudeDegrees>
              <LongitudeDegrees>-5.6275854818522930145263671875</LongitudeDegrees>
            </Position>
            <AltitudeMeters>861.20001220703125</AltitudeMeters>
            <DistanceMeters>NAN</DistanceMeters>
          </Trackpoint>
          <Trackpoint>
            <Time>2019-10-07T09:47:37.000Z</Time>
            <Position>
              <LatitudeDegrees>40.74081209488213062286376953125</LatitudeDegrees>
              <LongitudeDegrees>-5.62760467641055583953857421875</LongitudeDegrees>
            </Position>
            <AltitudeMeters>861.5999755859375</AltitudeMeters>
            <DistanceMeters>NAN</DistanceMeters>
          </Trackpoint>
          <Trackpoint>
            <Time>2019-10-07T09:47:41.000Z</Time>
            <Position>
              <LatitudeDegrees>40.7406200654804706573486328125</LatitudeDegrees>
              <LongitudeDegrees>-5.62762361951172351837158203125</LongitudeDegrees>
            </Position>
            <AltitudeMeters>861.5999755859375</AltitudeMeters>
            <DistanceMeters>NAN</DistanceMeters>
          </Trackpoint>
          <Trackpoint>
            <Time>2019-10-07T09:47:44.000Z</Time>
            <Position>
              <LatitudeDegrees>40.74047514237463474273681640625</LatitudeDegrees>
              <LongitudeDegrees>-5.62763116322457790374755859375</LongitudeDegrees>
            </Position>
            <AltitudeMeters>861.20001220703125</AltitudeMeters>
            <DistanceMeters>NAN</DistanceMeters>
          </Trackpoint>
          <Trackpoint>
            <Time>2019-10-07T09:47:56.000Z</Time>
            <Position>
              <LatitudeDegrees>40.73990483768284320831298828125</LatitudeDegrees>
              <LongitudeDegrees>-5.62767349183559417724609375</LongitudeDegrees>
            </Position>
            <AltitudeMeters>861.4000244140625</AltitudeMeters>
            <DistanceMeters>NAN</DistanceMeters>
          </Trackpoint>
          <Trackpoint>
            <Time>2019-10-07T09:48:01.000Z</Time>
            <Position>
              <LatitudeDegrees>40.73967215605080127716064453125</LatitudeDegrees>
              <LongitudeDegrees>-5.62769000418484210968017578125</LongitudeDegrees>
            </Position>
            <AltitudeMeters>861.79998779296875</AltitudeMeters>
            <DistanceMeters>NAN</DistanceMeters>
          </Trackpoint>
          <Trackpoint>
            <Time>2019-10-07T09:48:07.000Z</Time>
            <Position>
              <LatitudeDegrees>40.73941684328019618988037109375</LatitudeDegrees>
              <LongitudeDegrees>-5.6277031637728214263916015625</LongitudeDegrees>
            </Position>
            <AltitudeMeters>862.4000244140625</AltitudeMeters>
            <DistanceMeters>NAN</DistanceMeters>
          </Trackpoint>
          <Trackpoint>
            <Time>2019-10-07T09:48:08.000Z</Time>
            <Position>
              <LatitudeDegrees>40.73937711305916309356689453125</LatitudeDegrees>
              <LongitudeDegrees>-5.627706348896026611328125</LongitudeDegrees>
            </Position>
            <AltitudeMeters>863</AltitudeMeters>
            <DistanceMeters>NAN</DistanceMeters>
          </Trackpoint>
          <Trackpoint>
            <Time>2019-10-07T09:48:13.000Z</Time>
            <Position>
              <LatitudeDegrees>40.73918919079005718231201171875</LatitudeDegrees>
              <LongitudeDegrees>-5.627717413008213043212890625</LongitudeDegrees>
            </Position>
            <AltitudeMeters>864</AltitudeMeters>
            <DistanceMeters>NAN</DistanceMeters>
          </Trackpoint>
          <Trackpoint>
            <Time>2019-10-07T09:48:14.000Z</Time>
            <Position>
              <LatitudeDegrees>40.739152394235134124755859375</LatitudeDegrees>
              <LongitudeDegrees>-5.62771816737949848175048828125</LongitudeDegrees>
            </Position>
            <AltitudeMeters>864.4000244140625</AltitudeMeters>
            <DistanceMeters>NAN</DistanceMeters>
          </Trackpoint>
          <Trackpoint>
            <Time>2019-10-07T09:48:20.000Z</Time>
            <Position>
              <LatitudeDegrees>40.73895500041544437408447265625</LatitudeDegrees>
              <LongitudeDegrees>-5.6277313269674777984619140625</LongitudeDegrees>
            </Position>
            <AltitudeMeters>865.4000244140625</AltitudeMeters>
            <DistanceMeters>NAN</DistanceMeters>
          </Trackpoint>
          <Trackpoint>
            <Time>2019-10-07T09:48:23.000Z</Time>
            <Position>
              <LatitudeDegrees>40.7388563454151153564453125</LatitudeDegrees>
              <LongitudeDegrees>-5.6277480907738208770751953125</LongitudeDegrees>
            </Position>
            <AltitudeMeters>866</AltitudeMeters>
            <DistanceMeters>NAN</DistanceMeters>
          </Trackpoint>
          <Trackpoint>
            <Time>2019-10-07T09:48:27.000Z</Time>
            <Position>
              <LatitudeDegrees>40.73872961103916168212890625</LatitudeDegrees>
              <LongitudeDegrees>-5.6277541257441043853759765625</LongitudeDegrees>
            </Position>
            <AltitudeMeters>866.4000244140625</AltitudeMeters>
            <DistanceMeters>NAN</DistanceMeters>
          </Trackpoint>
          <Trackpoint>
            <Time>2019-10-07T09:48:31.000Z</Time>
            <Position>
              <LatitudeDegrees>40.7386060617864131927490234375</LatitudeDegrees>
              <LongitudeDegrees>-5.62776468694210052490234375</LongitudeDegrees>
            </Position>
            <AltitudeMeters>867.5999755859375</AltitudeMeters>
            <DistanceMeters>NAN</DistanceMeters>
          </Trackpoint>
          <Trackpoint>
            <Time>2019-10-07T09:48:33.000Z</Time>
            <Position>
              <LatitudeDegrees>40.73854227550327777862548828125</LatitudeDegrees>
              <LongitudeDegrees>-5.6277655251324176788330078125</LongitudeDegrees>
            </Position>
            <AltitudeMeters>867.79998779296875</AltitudeMeters>
            <DistanceMeters>NAN</DistanceMeters>
          </Trackpoint>
          <Trackpoint>
            <Time>2019-10-07T09:48:37.000Z</Time>
            <Position>
              <LatitudeDegrees>40.7384105958044528961181640625</LatitudeDegrees>
              <LongitudeDegrees>-5.62778748571872711181640625</LongitudeDegrees>
            </Position>
            <AltitudeMeters>868.5999755859375</AltitudeMeters>
            <DistanceMeters>NAN</DistanceMeters>
          </Trackpoint>
          <Trackpoint>
            <Time>2019-10-07T09:48:42.000Z</Time>
            <Position>
              <LatitudeDegrees>40.73824639432132244110107421875</LatitudeDegrees>
              <LongitudeDegrees>-5.62781221233308315277099609375</LongitudeDegrees>
            </Position>
            <AltitudeMeters>869.20001220703125</AltitudeMeters>
            <DistanceMeters>NAN</DistanceMeters>
          </Trackpoint>
          <Trackpoint>
            <Time>2019-10-07T09:48:44.000Z</Time>
            <Position>
              <LatitudeDegrees>40.738186128437519073486328125</LatitudeDegrees>
              <LongitudeDegrees>-5.6278225220739841461181640625</LongitudeDegrees>
            </Position>
            <AltitudeMeters>869.5999755859375</AltitudeMeters>
            <DistanceMeters>NAN</DistanceMeters>
          </Trackpoint>
          <Trackpoint>
            <Time>2019-10-07T09:48:51.000Z</Time>
            <Position>
              <LatitudeDegrees>40.7379787601530551910400390625</LatitudeDegrees>
              <LongitudeDegrees>-5.62785931862890720367431640625</LongitudeDegrees>
            </Position>
            <AltitudeMeters>871</AltitudeMeters>
            <DistanceMeters>NAN</DistanceMeters>
          </Trackpoint>
          <Trackpoint>
            <Time>2019-10-07T09:48:52.000Z</Time>
            <Position>
              <LatitudeDegrees>40.73794908821582794189453125</LatitudeDegrees>
              <LongitudeDegrees>-5.62786384485661983489990234375</LongitudeDegrees>
            </Position>
            <AltitudeMeters>871</AltitudeMeters>
            <DistanceMeters>NAN</DistanceMeters>
          </Trackpoint>
          <Trackpoint>
            <Time>2019-10-07T09:49:00.000Z</Time>
            <Position>
              <LatitudeDegrees>40.7377142272889614105224609375</LatitudeDegrees>
              <LongitudeDegrees>-5.62791849486529827117919921875</LongitudeDegrees>
            </Position>
            <AltitudeMeters>872.20001220703125</AltitudeMeters>
            <DistanceMeters>NAN</DistanceMeters>
          </Trackpoint>
          <Trackpoint>
            <Time>2019-10-07T09:49:01.000Z</Time>
            <Position>
              <LatitudeDegrees>40.7376850582659244537353515625</LatitudeDegrees>
              <LongitudeDegrees>-5.6279301457107067108154296875</LongitudeDegrees>
            </Position>
            <AltitudeMeters>872.4000244140625</AltitudeMeters>
            <DistanceMeters>NAN</DistanceMeters>
          </Trackpoint>
          <Trackpoint>
            <Time>2019-10-07T09:49:05.000Z</Time>
            <Position>
              <LatitudeDegrees>40.73756595142185688018798828125</LatitudeDegrees>
              <LongitudeDegrees>-5.627962164580821990966796875</LongitudeDegrees>
            </Position>
            <AltitudeMeters>873.20001220703125</AltitudeMeters>
            <DistanceMeters>NAN</DistanceMeters>
          </Trackpoint>
          <Trackpoint>
            <Time>2019-10-07T09:49:11.000Z</Time>
            <Position>
              <LatitudeDegrees>40.73739144019782543182373046875</LatitudeDegrees>
              <LongitudeDegrees>-5.6280179880559444427490234375</LongitudeDegrees>
            </Position>
            <AltitudeMeters>874.20001220703125</AltitudeMeters>
            <DistanceMeters>NAN</DistanceMeters>
          </Trackpoint>
          <Trackpoint>
            <Time>2019-10-07T09:49:12.000Z</Time>
            <Position>
              <LatitudeDegrees>40.7373623549938201904296875</LatitudeDegrees>
              <LongitudeDegrees>-5.628029219806194305419921875</LongitudeDegrees>
            </Position>
            <AltitudeMeters>874.5999755859375</AltitudeMeters>
            <DistanceMeters>NAN</DistanceMeters>
          </Trackpoint>
          <Trackpoint>
            <Time>2019-10-07T09:49:20.000Z</Time>
            <Position>
              <LatitudeDegrees>40.737144760787487030029296875</LatitudeDegrees>
              <LongitudeDegrees>-5.62815352343022823333740234375</LongitudeDegrees>
            </Position>
            <AltitudeMeters>875.5999755859375</AltitudeMeters>
            <DistanceMeters>NAN</DistanceMeters>
          </Trackpoint>
          <Trackpoint>
            <Time>2019-10-07T09:49:26.000Z</Time>
            <Position>
              <LatitudeDegrees>40.736975781619548797607421875</LatitudeDegrees>
              <LongitudeDegrees>-5.6282540224492549896240234375</LongitudeDegrees>
            </Position>
            <AltitudeMeters>876.5999755859375</AltitudeMeters>
            <DistanceMeters>NAN</DistanceMeters>
          </Trackpoint>
          <Trackpoint>
            <Time>2019-10-07T09:49:29.000Z</Time>
            <Position>
              <LatitudeDegrees>40.736887939274311065673828125</LatitudeDegrees>
              <LongitudeDegrees>-5.62831210903823375701904296875</LongitudeDegrees>
            </Position>
            <AltitudeMeters>877</AltitudeMeters>
            <DistanceMeters>NAN</DistanceMeters>
          </Trackpoint>
          <Trackpoint>
            <Time>2019-10-07T09:49:32.000Z</Time>
            <Position>
              <LatitudeDegrees>40.73680353350937366485595703125</LatitudeDegrees>
              <LongitudeDegrees>-5.6283613108098506927490234375</LongitudeDegrees>
            </Position>
            <AltitudeMeters>877.79998779296875</AltitudeMeters>
            <DistanceMeters>NAN</DistanceMeters>
          </Trackpoint>
          <Trackpoint>
            <Time>2019-10-07T09:49:38.000Z</Time>
            <Position>
              <LatitudeDegrees>40.736635811626911163330078125</LatitudeDegrees>
              <LongitudeDegrees>-5.6284538470208644866943359375</LongitudeDegrees>
            </Position>
            <AltitudeMeters>878.5999755859375</AltitudeMeters>
            <DistanceMeters>NAN</DistanceMeters>
          </Trackpoint>
          <Trackpoint>
            <Time>2019-10-07T09:49:40.000Z</Time>
            <Position>
              <LatitudeDegrees>40.736582167446613311767578125</LatitudeDegrees>
              <LongitudeDegrees>-5.6284856982529163360595703125</LongitudeDegrees>
            </Position>
            <AltitudeMeters>879.20001220703125</AltitudeMeters>
            <DistanceMeters>NAN</DistanceMeters>
          </Trackpoint>
          <Trackpoint>
            <Time>2019-10-07T09:49:45.000Z</Time>
            <Position>
              <LatitudeDegrees>40.73646021075546741485595703125</LatitudeDegrees>
              <LongitudeDegrees>-5.62859642319381237030029296875</LongitudeDegrees>
            </Position>
            <AltitudeMeters>880.20001220703125</AltitudeMeters>
            <DistanceMeters>NAN</DistanceMeters>
          </Trackpoint>
          <Trackpoint>
            <Time>2019-10-07T09:49:47.000Z</Time>
            <Position>
              <LatitudeDegrees>40.73640807531774044036865234375</LatitudeDegrees>
              <LongitudeDegrees>-5.62863967381417751312255859375</LongitudeDegrees>
            </Position>
            <AltitudeMeters>880.20001220703125</AltitudeMeters>
            <DistanceMeters>NAN</DistanceMeters>
          </Trackpoint>
          <Trackpoint>
            <Time>2019-10-07T09:49:53.000Z</Time>
            <Position>
              <LatitudeDegrees>40.736248902976512908935546875</LatitudeDegrees>
              <LongitudeDegrees>-5.62876917421817779541015625</LongitudeDegrees>
            </Position>
            <AltitudeMeters>881.4000244140625</AltitudeMeters>
            <DistanceMeters>NAN</DistanceMeters>
          </Trackpoint>
          <Trackpoint>
            <Time>2019-10-07T09:49:56.000Z</Time>
            <Position>
              <LatitudeDegrees>40.7361743040382862091064453125</LatitudeDegrees>
              <LongitudeDegrees>-5.62882809899747371673583984375</LongitudeDegrees>
            </Position>
            <AltitudeMeters>881.79998779296875</AltitudeMeters>
            <DistanceMeters>NAN</DistanceMeters>
          </Trackpoint>
          <Trackpoint>
            <Time>2019-10-07T09:49:59.000Z</Time>
            <Position>
              <LatitudeDegrees>40.736101381480693817138671875</LatitudeDegrees>
              <LongitudeDegrees>-5.6288900412619113922119140625</LongitudeDegrees>
            </Position>
            <AltitudeMeters>882.4000244140625</AltitudeMeters>
            <DistanceMeters>NAN</DistanceMeters>
          </Trackpoint>
          <Trackpoint>
            <Time>2019-10-07T09:50:05.000Z</Time>
            <Position>
              <LatitudeDegrees>40.73594002984464168548583984375</LatitudeDegrees>
              <LongitudeDegrees>-5.62901568599045276641845703125</LongitudeDegrees>
            </Position>
            <AltitudeMeters>883.5999755859375</AltitudeMeters>
            <DistanceMeters>NAN</DistanceMeters>
          </Trackpoint>
          <Trackpoint>
            <Time>2019-10-07T09:50:12.000Z</Time>
            <Position>
              <LatitudeDegrees>40.735752694308757781982421875</LatitudeDegrees>
              <LongitudeDegrees>-5.629189945757389068603515625</LongitudeDegrees>
            </Position>
            <AltitudeMeters>884.5999755859375</AltitudeMeters>
            <DistanceMeters>NAN</DistanceMeters>
          </Trackpoint>
          <Trackpoint>
            <Time>2019-10-07T09:50:13.000Z</Time>
            <Position>
              <LatitudeDegrees>40.73572444729506969451904296875</LatitudeDegrees>
              <LongitudeDegrees>-5.62921282835304737091064453125</LongitudeDegrees>
            </Position>
            <AltitudeMeters>884.79998779296875</AltitudeMeters>
            <DistanceMeters>NAN</DistanceMeters>
          </Trackpoint>
          <Trackpoint>
            <Time>2019-10-07T09:50:14.000Z</Time>
            <Position>
              <LatitudeDegrees>40.735698379576206207275390625</LatitudeDegrees>
              <LongitudeDegrees>-5.6292387284338474273681640625</LongitudeDegrees>
            </Position>
            <AltitudeMeters>884.79998779296875</AltitudeMeters>
            <DistanceMeters>NAN</DistanceMeters>
          </Trackpoint>
          <Trackpoint>
            <Time>2019-10-07T09:50:17.000Z</Time>
            <Position>
              <LatitudeDegrees>40.73561632074415683746337890625</LatitudeDegrees>
              <LongitudeDegrees>-5.6293054483830928802490234375</LongitudeDegrees>
            </Position>
            <AltitudeMeters>886</AltitudeMeters>
            <DistanceMeters>NAN</DistanceMeters>
          </Trackpoint>
          <Trackpoint>
            <Time>2019-10-07T09:50:22.000Z</Time>
            <Position>
              <LatitudeDegrees>40.735481791198253631591796875</LatitudeDegrees>
              <LongitudeDegrees>-5.6294430792331695556640625</LongitudeDegrees>
            </Position>
            <AltitudeMeters>886</AltitudeMeters>
            <DistanceMeters>NAN</DistanceMeters>
          </Trackpoint>
          <Trackpoint>
            <Time>2019-10-07T09:50:29.000Z</Time>
            <Position>
              <LatitudeDegrees>40.73527936823666095733642578125</LatitudeDegrees>
              <LongitudeDegrees>-5.62965036369860172271728515625</LongitudeDegrees>
            </Position>
            <AltitudeMeters>886.20001220703125</AltitudeMeters>
            <DistanceMeters>NAN</DistanceMeters>
          </Trackpoint>
          <Trackpoint>
            <Time>2019-10-07T09:50:37.000Z</Time>
            <Position>
              <LatitudeDegrees>40.73500335216522216796875</LatitudeDegrees>
              <LongitudeDegrees>-5.62990911304950714111328125</LongitudeDegrees>
            </Position>
            <AltitudeMeters>885.4000244140625</AltitudeMeters>
            <DistanceMeters>NAN</DistanceMeters>
          </Trackpoint>
          <Trackpoint>
            <Time>2019-10-07T09:50:38.000Z</Time>
            <Position>
              <LatitudeDegrees>40.734963119029998779296875</LatitudeDegrees>
              <LongitudeDegrees>-5.629947669804096221923828125</LongitudeDegrees>
            </Position>
            <AltitudeMeters>885.5999755859375</AltitudeMeters>
            <DistanceMeters>NAN</DistanceMeters>
          </Trackpoint>
          <Trackpoint>
            <Time>2019-10-07T09:50:42.000Z</Time>
            <Position>
              <LatitudeDegrees>40.734777711331844329833984375</LatitudeDegrees>
              <LongitudeDegrees>-5.63011639751493930816650390625</LongitudeDegrees>
            </Position>
            <AltitudeMeters>884.79998779296875</AltitudeMeters>
            <DistanceMeters>NAN</DistanceMeters>
          </Trackpoint>
          <Trackpoint>
            <Time>2019-10-07T09:50:44.000Z</Time>
            <Position>
              <LatitudeDegrees>40.73467235080897808074951171875</LatitudeDegrees>
              <LongitudeDegrees>-5.630211867392063140869140625</LongitudeDegrees>
            </Position>
            <AltitudeMeters>884</AltitudeMeters>
            <DistanceMeters>NAN</DistanceMeters>
          </Trackpoint>
          <Trackpoint>
            <Time>2019-10-07T09:50:46.000Z</Time>
            <Position>
              <LatitudeDegrees>40.73455785401165485382080078125</LatitudeDegrees>
              <LongitudeDegrees>-5.63031203113496303558349609375</LongitudeDegrees>
            </Position>
            <AltitudeMeters>883.5999755859375</AltitudeMeters>
            <DistanceMeters>NAN</DistanceMeters>
          </Trackpoint>
          <Trackpoint>
            <Time>2019-10-07T09:50:49.000Z</Time>
            <Position>
              <LatitudeDegrees>40.73437236249446868896484375</LatitudeDegrees>
              <LongitudeDegrees>-5.630475394427776336669921875</LongitudeDegrees>
            </Position>
            <AltitudeMeters>882.4000244140625</AltitudeMeters>
            <DistanceMeters>NAN</DistanceMeters>
          </Trackpoint>
          <Trackpoint>
            <Time>2019-10-07T09:50:51.000Z</Time>
            <Position>
              <LatitudeDegrees>40.73424252681434154510498046875</LatitudeDegrees>
              <LongitudeDegrees>-5.630590058863162994384765625</LongitudeDegrees>
            </Position>
            <AltitudeMeters>881.79998779296875</AltitudeMeters>
            <DistanceMeters>NAN</DistanceMeters>
          </Trackpoint>
          <Trackpoint>
            <Time>2019-10-07T09:50:52.000Z</Time>
            <Position>
              <LatitudeDegrees>40.73417630977928638458251953125</LatitudeDegrees>
              <LongitudeDegrees>-5.63064630143344402313232421875</LongitudeDegrees>
            </Position>
            <AltitudeMeters>881.20001220703125</AltitudeMeters>
            <DistanceMeters>NAN</DistanceMeters>
          </Trackpoint>
          <Trackpoint>
            <Time>2019-10-07T09:50:55.000Z</Time>
            <Position>
              <LatitudeDegrees>40.733983106911182403564453125</LatitudeDegrees>
              <LongitudeDegrees>-5.630826763808727264404296875</LongitudeDegrees>
            </Position>
            <AltitudeMeters>880.4000244140625</AltitudeMeters>
            <DistanceMeters>NAN</DistanceMeters>
          </Trackpoint>
          <Trackpoint>
            <Time>2019-10-07T09:50:56.000Z</Time>
            <Position>
              <LatitudeDegrees>40.7339202426373958587646484375</LatitudeDegrees>
              <LongitudeDegrees>-5.63088585622608661651611328125</LongitudeDegrees>
            </Position>
            <AltitudeMeters>880.20001220703125</AltitudeMeters>
            <DistanceMeters>NAN</DistanceMeters>
          </Trackpoint>
          <Trackpoint>
            <Time>2019-10-07T09:50:59.000Z</Time>
            <Position>
              <LatitudeDegrees>40.73373022489249706268310546875</LatitudeDegrees>
              <LongitudeDegrees>-5.63105617649853229522705078125</LongitudeDegrees>
            </Position>
            <AltitudeMeters>881.20001220703125</AltitudeMeters>
            <DistanceMeters>NAN</DistanceMeters>
          </Trackpoint>
          <Trackpoint>
            <Time>2019-10-07T09:51:00.000Z</Time>
            <Position>
              <LatitudeDegrees>40.73366694152355194091796875</LatitudeDegrees>
              <LongitudeDegrees>-5.631109066307544708251953125</LongitudeDegrees>
            </Position>
            <AltitudeMeters>881</AltitudeMeters>
            <DistanceMeters>NAN</DistanceMeters>
          </Trackpoint>
          <Trackpoint>
            <Time>2019-10-07T09:51:03.000Z</Time>
            <Position>
              <LatitudeDegrees>40.73348312638700008392333984375</LatitudeDegrees>
              <LongitudeDegrees>-5.63126672990620136260986328125</LongitudeDegrees>
            </Position>
            <AltitudeMeters>880</AltitudeMeters>
            <DistanceMeters>NAN</DistanceMeters>
          </Trackpoint>
          <Trackpoint>
            <Time>2019-10-07T09:51:08.000Z</Time>
            <Position>
              <LatitudeDegrees>40.7331745885312557220458984375</LatitudeDegrees>
              <LongitudeDegrees>-5.6315035186707973480224609375</LongitudeDegrees>
            </Position>
            <AltitudeMeters>880</AltitudeMeters>
            <DistanceMeters>NAN</DistanceMeters>
          </Trackpoint>
          <Trackpoint>
            <Time>2019-10-07T09:51:13.000Z</Time>
            <Position>
              <LatitudeDegrees>40.73283269070088863372802734375</LatitudeDegrees>
              <LongitudeDegrees>-5.63173460774123668670654296875</LongitudeDegrees>
            </Position>
            <AltitudeMeters>878.5999755859375</AltitudeMeters>
            <DistanceMeters>NAN</DistanceMeters>
          </Trackpoint>
          <Trackpoint>
            <Time>2019-10-07T09:51:15.000Z</Time>
            <Position>
              <LatitudeDegrees>40.7326827384531497955322265625</LatitudeDegrees>
              <LongitudeDegrees>-5.631825886666774749755859375</LongitudeDegrees>
            </Position>
            <AltitudeMeters>877.79998779296875</AltitudeMeters>
            <DistanceMeters>NAN</DistanceMeters>
          </Trackpoint>
          <Trackpoint>
            <Time>2019-10-07T09:51:16.000Z</Time>
            <Position>
              <LatitudeDegrees>40.73260420002043247222900390625</LatitudeDegrees>
              <LongitudeDegrees>-5.631868802011013031005859375</LongitudeDegrees>
            </Position>
            <AltitudeMeters>877.5999755859375</AltitudeMeters>
            <DistanceMeters>NAN</DistanceMeters>
          </Trackpoint>
          <Trackpoint>
            <Time>2019-10-07T09:51:20.000Z</Time>
            <Position>
              <LatitudeDegrees>40.732270181179046630859375</LatitudeDegrees>
              <LongitudeDegrees>-5.63203736208379268646240234375</LongitudeDegrees>
            </Position>
            <AltitudeMeters>876.20001220703125</AltitudeMeters>
            <DistanceMeters>NAN</DistanceMeters>
          </Trackpoint>
          <Trackpoint>
            <Time>2019-10-07T09:51:21.000Z</Time>
            <Position>
              <LatitudeDegrees>40.73218275792896747589111328125</LatitudeDegrees>
              <LongitudeDegrees>-5.63207407481968402862548828125</LongitudeDegrees>
            </Position>
            <AltitudeMeters>875.5999755859375</AltitudeMeters>
            <DistanceMeters>NAN</DistanceMeters>
          </Trackpoint>
          <Trackpoint>
            <Time>2019-10-07T09:51:22.000Z</Time>
            <Position>
              <LatitudeDegrees>40.732091479003429412841796875</LatitudeDegrees>
              <LongitudeDegrees>-5.63210994936525821685791015625</LongitudeDegrees>
            </Position>
            <AltitudeMeters>875.20001220703125</AltitudeMeters>
            <DistanceMeters>NAN</DistanceMeters>
          </Trackpoint>
          <Trackpoint>
            <Time>2019-10-07T09:51:24.000Z</Time>
            <Position>
              <LatitudeDegrees>40.731905065476894378662109375</LatitudeDegrees>
              <LongitudeDegrees>-5.6321789324283599853515625</LongitudeDegrees>
            </Position>
            <AltitudeMeters>874.20001220703125</AltitudeMeters>
            <DistanceMeters>NAN</DistanceMeters>
          </Trackpoint>
          <Trackpoint>
            <Time>2019-10-07T09:51:26.000Z</Time>
            <Position>
              <LatitudeDegrees>40.73171295225620269775390625</LatitudeDegrees>
              <LongitudeDegrees>-5.63224238343536853790283203125</LongitudeDegrees>
            </Position>
            <AltitudeMeters>871.79998779296875</AltitudeMeters>
            <DistanceMeters>NAN</DistanceMeters>
          </Trackpoint>
          <Trackpoint>
            <Time>2019-10-07T09:51:28.000Z</Time>
            <Position>
              <LatitudeDegrees>40.7315156422555446624755859375</LatitudeDegrees>
              <LongitudeDegrees>-5.63229552470147609710693359375</LongitudeDegrees>
            </Position>
            <AltitudeMeters>871.20001220703125</AltitudeMeters>
            <DistanceMeters>NAN</DistanceMeters>
          </Trackpoint>
          <Trackpoint>
            <Time>2019-10-07T09:51:30.000Z</Time>
            <Position>
              <LatitudeDegrees>40.73131464421749114990234375</LatitudeDegrees>
              <LongitudeDegrees>-5.63233760185539722442626953125</LongitudeDegrees>
            </Position>
            <AltitudeMeters>870.79998779296875</AltitudeMeters>
            <DistanceMeters>NAN</DistanceMeters>
          </Trackpoint>
          <Trackpoint>
            <Time>2019-10-07T09:51:32.000Z</Time>
            <Position>
              <LatitudeDegrees>40.7311109639704227447509765625</LatitudeDegrees>
              <LongitudeDegrees>-5.6323705427348613739013671875</LongitudeDegrees>
            </Position>
            <AltitudeMeters>869.4000244140625</AltitudeMeters>
            <DistanceMeters>NAN</DistanceMeters>
          </Trackpoint>
          <Trackpoint>
            <Time>2019-10-07T09:51:35.000Z</Time>
            <Position>
              <LatitudeDegrees>40.730799995362758636474609375</LatitudeDegrees>
              <LongitudeDegrees>-5.6323980353772640228271484375</LongitudeDegrees>
            </Position>
            <AltitudeMeters>868.5999755859375</AltitudeMeters>
            <DistanceMeters>NAN</DistanceMeters>
          </Trackpoint>
          <Trackpoint>
            <Time>2019-10-07T09:51:36.000Z</Time>
            <Position>
              <LatitudeDegrees>40.73069480247795581817626953125</LatitudeDegrees>
              <LongitudeDegrees>-5.63240650109946727752685546875</LongitudeDegrees>
            </Position>
            <AltitudeMeters>868.4000244140625</AltitudeMeters>
            <DistanceMeters>NAN</DistanceMeters>
          </Trackpoint>
          <Trackpoint>
            <Time>2019-10-07T09:51:39.000Z</Time>
            <Position>
              <LatitudeDegrees>40.7303832471370697021484375</LatitudeDegrees>
              <LongitudeDegrees>-5.63240247778594493865966796875</LongitudeDegrees>
            </Position>
            <AltitudeMeters>867</AltitudeMeters>
            <DistanceMeters>NAN</DistanceMeters>
          </Trackpoint>
          <Trackpoint>
            <Time>2019-10-07T09:51:41.000Z</Time>
            <Position>
              <LatitudeDegrees>40.73018115945160388946533203125</LatitudeDegrees>
              <LongitudeDegrees>-5.6323856301605701446533203125</LongitudeDegrees>
            </Position>
            <AltitudeMeters>866.5999755859375</AltitudeMeters>
            <DistanceMeters>NAN</DistanceMeters>
          </Trackpoint>
          <Trackpoint>
            <Time>2019-10-07T09:51:42.000Z</Time>
            <Position>
              <LatitudeDegrees>40.730080492794513702392578125</LatitudeDegrees>
              <LongitudeDegrees>-5.63237364403903484344482421875</LongitudeDegrees>
            </Position>
            <AltitudeMeters>866.79998779296875</AltitudeMeters>
            <DistanceMeters>NAN</DistanceMeters>
          </Trackpoint>
          <Trackpoint>
            <Time>2019-10-07T09:51:46.000Z</Time>
            <Position>
              <LatitudeDegrees>40.7296940870583057403564453125</LatitudeDegrees>
              <LongitudeDegrees>-5.63229904510080814361572265625</LongitudeDegrees>
            </Position>
            <AltitudeMeters>865.5999755859375</AltitudeMeters>
            <DistanceMeters>NAN</DistanceMeters>
          </Trackpoint>
          <Trackpoint>
            <Time>2019-10-07T09:51:48.000Z</Time>
            <Position>
              <LatitudeDegrees>40.72951161302626132965087890625</LatitudeDegrees>
              <LongitudeDegrees>-5.6322545371949672698974609375</LongitudeDegrees>
            </Position>
            <AltitudeMeters>865.5999755859375</AltitudeMeters>
            <DistanceMeters>NAN</DistanceMeters>
          </Trackpoint>
          <Trackpoint>
            <Time>2019-10-07T09:51:52.000Z</Time>
            <Position>
              <LatitudeDegrees>40.7291780970990657806396484375</LatitudeDegrees>
              <LongitudeDegrees>-5.63215118832886219024658203125</LongitudeDegrees>
            </Position>
            <AltitudeMeters>866.5999755859375</AltitudeMeters>
            <DistanceMeters>NAN</DistanceMeters>
          </Trackpoint>
          <Trackpoint>
            <Time>2019-10-07T09:51:54.000Z</Time>
            <Position>
              <LatitudeDegrees>40.72902697138488292694091796875</LatitudeDegrees>
              <LongitudeDegrees>-5.63209704123437404632568359375</LongitudeDegrees>
            </Position>
            <AltitudeMeters>866.5999755859375</AltitudeMeters>
            <DistanceMeters>NAN</DistanceMeters>
          </Trackpoint>
          <Trackpoint>
            <Time>2019-10-07T09:51:56.000Z</Time>
            <Position>
              <LatitudeDegrees>40.72888162918388843536376953125</LatitudeDegrees>
              <LongitudeDegrees>-5.632037110626697540283203125</LongitudeDegrees>
            </Position>
            <AltitudeMeters>867.79998779296875</AltitudeMeters>
            <DistanceMeters>NAN</DistanceMeters>
          </Trackpoint>
          <Trackpoint>
            <Time>2019-10-07T09:52:01.000Z</Time>
            <Position>
              <LatitudeDegrees>40.72854383848607540130615234375</LatitudeDegrees>
              <LongitudeDegrees>-5.6318817101418972015380859375</LongitudeDegrees>
            </Position>
            <AltitudeMeters>868.5999755859375</AltitudeMeters>
            <DistanceMeters>NAN</DistanceMeters>
          </Trackpoint>
          <Trackpoint>
            <Time>2019-10-07T09:52:03.000Z</Time>
            <Position>
              <LatitudeDegrees>40.7284183613955974578857421875</LatitudeDegrees>
              <LongitudeDegrees>-5.63181792385876178741455078125</LongitudeDegrees>
            </Position>
            <AltitudeMeters>868.79998779296875</AltitudeMeters>
            <DistanceMeters>NAN</DistanceMeters>
          </Trackpoint>
          <Trackpoint>
            <Time>2019-10-07T09:52:05.000Z</Time>
            <Position>
              <LatitudeDegrees>40.72830311022698879241943359375</LatitudeDegrees>
              <LongitudeDegrees>-5.63176008872687816619873046875</LongitudeDegrees>
            </Position>
            <AltitudeMeters>869.20001220703125</AltitudeMeters>
            <DistanceMeters>NAN</DistanceMeters>
          </Trackpoint>
          <Trackpoint>
            <Time>2019-10-07T09:52:07.000Z</Time>
            <Position>
              <LatitudeDegrees>40.7281959056854248046875</LatitudeDegrees>
              <LongitudeDegrees>-5.63169990666210651397705078125</LongitudeDegrees>
            </Position>
            <AltitudeMeters>870</AltitudeMeters>
            <DistanceMeters>NAN</DistanceMeters>
          </Trackpoint>
          <Trackpoint>
            <Time>2019-10-07T09:52:11.000Z</Time>
            <Position>
              <LatitudeDegrees>40.7279969193041324615478515625</LatitudeDegrees>
              <LongitudeDegrees>-5.631573759019374847412109375</LongitudeDegrees>
            </Position>
            <AltitudeMeters>871</AltitudeMeters>
            <DistanceMeters>NAN</DistanceMeters>
          </Trackpoint>
          <Trackpoint>
            <Time>2019-10-07T09:52:12.000Z</Time>
            <Position>
              <LatitudeDegrees>40.72795039974153041839599609375</LatitudeDegrees>
              <LongitudeDegrees>-5.6315450929105281829833984375</LongitudeDegrees>
            </Position>
            <AltitudeMeters>871.20001220703125</AltitudeMeters>
            <DistanceMeters>NAN</DistanceMeters>
          </Trackpoint>
          <Trackpoint>
            <Time>2019-10-07T09:52:15.000Z</Time>
            <Position>
              <LatitudeDegrees>40.727812014520168304443359375</LatitudeDegrees>
              <LongitudeDegrees>-5.63145968131721019744873046875</LongitudeDegrees>
            </Position>
            <AltitudeMeters>871.4000244140625</AltitudeMeters>
            <DistanceMeters>NAN</DistanceMeters>
          </Trackpoint>
          <Trackpoint>
            <Time>2019-10-07T09:52:20.000Z</Time>
            <Position>
              <LatitudeDegrees>40.72759953327476978302001953125</LatitudeDegrees>
              <LongitudeDegrees>-5.6313160993158817291259765625</LongitudeDegrees>
            </Position>
            <AltitudeMeters>872.20001220703125</AltitudeMeters>
            <DistanceMeters>NAN</DistanceMeters>
          </Trackpoint>
          <Trackpoint>
            <Time>2019-10-07T09:52:21.000Z</Time>
            <Position>
              <LatitudeDegrees>40.72755552828311920166015625</LatitudeDegrees>
              <LongitudeDegrees>-5.6312899477779865264892578125</LongitudeDegrees>
            </Position>
            <AltitudeMeters>872.5999755859375</AltitudeMeters>
            <DistanceMeters>NAN</DistanceMeters>
          </Trackpoint>
          <Trackpoint>
            <Time>2019-10-07T09:52:23.000Z</Time>
            <Position>
              <LatitudeDegrees>40.72747246362268924713134765625</LatitudeDegrees>
              <LongitudeDegrees>-5.63123169355094432830810546875</LongitudeDegrees>
            </Position>
            <AltitudeMeters>873</AltitudeMeters>
            <DistanceMeters>NAN</DistanceMeters>
          </Trackpoint>
          <Trackpoint>
            <Time>2019-10-07T09:52:29.000Z</Time>
            <Position>
              <LatitudeDegrees>40.727232657372951507568359375</LatitudeDegrees>
              <LongitudeDegrees>-5.63105307519435882568359375</LongitudeDegrees>
            </Position>
            <AltitudeMeters>873.79998779296875</AltitudeMeters>
            <DistanceMeters>NAN</DistanceMeters>
          </Trackpoint>
          <Trackpoint>
            <Time>2019-10-07T09:52:30.000Z</Time>
            <Position>
              <LatitudeDegrees>40.72719485498964786529541015625</LatitudeDegrees>
              <LongitudeDegrees>-5.63102415762841701507568359375</LongitudeDegrees>
            </Position>
            <AltitudeMeters>873.79998779296875</AltitudeMeters>
            <DistanceMeters>NAN</DistanceMeters>
          </Trackpoint>
          <Trackpoint>
            <Time>2019-10-07T09:52:34.000Z</Time>
            <Position>
              <LatitudeDegrees>40.72703517973423004150390625</LatitudeDegrees>
              <LongitudeDegrees>-5.63090094365179538726806640625</LongitudeDegrees>
            </Position>
            <AltitudeMeters>874.79998779296875</AltitudeMeters>
            <DistanceMeters>NAN</DistanceMeters>
          </Trackpoint>
          <Trackpoint>
            <Time>2019-10-07T09:52:36.000Z</Time>
            <Position>
              <LatitudeDegrees>40.7269578985869884490966796875</LatitudeDegrees>
              <LongitudeDegrees>-5.630842186510562896728515625</LongitudeDegrees>
            </Position>
            <AltitudeMeters>875</AltitudeMeters>
            <DistanceMeters>NAN</DistanceMeters>
          </Trackpoint>
          <Trackpoint>
            <Time>2019-10-07T09:52:38.000Z</Time>
            <Position>
              <LatitudeDegrees>40.7268814556300640106201171875</LatitudeDegrees>
              <LongitudeDegrees>-5.63077655620872974395751953125</LongitudeDegrees>
            </Position>
            <AltitudeMeters>875.5999755859375</AltitudeMeters>
            <DistanceMeters>NAN</DistanceMeters>
          </Trackpoint>
          <Trackpoint>
            <Time>2019-10-07T09:52:42.000Z</Time>
            <Position>
              <LatitudeDegrees>40.726726055145263671875</LatitudeDegrees>
              <LongitudeDegrees>-5.63065652735531330108642578125</LongitudeDegrees>
            </Position>
            <AltitudeMeters>876.20001220703125</AltitudeMeters>
            <DistanceMeters>NAN</DistanceMeters>
          </Trackpoint>
          <Trackpoint>
            <Time>2019-10-07T09:52:47.000Z</Time>
            <Position>
              <LatitudeDegrees>40.72654433548450469970703125</LatitudeDegrees>
              <LongitudeDegrees>-5.63050531782209873199462890625</LongitudeDegrees>
            </Position>
            <AltitudeMeters>876.79998779296875</AltitudeMeters>
            <DistanceMeters>NAN</DistanceMeters>
          </Trackpoint>
          <Trackpoint>
            <Time>2019-10-07T09:52:50.000Z</Time>
            <Position>
              <LatitudeDegrees>40.72644249536097049713134765625</LatitudeDegrees>
              <LongitudeDegrees>-5.63042233698070049285888671875</LongitudeDegrees>
            </Position>
            <AltitudeMeters>877.4000244140625</AltitudeMeters>
            <DistanceMeters>NAN</DistanceMeters>
          </Trackpoint>
          <Trackpoint>
            <Time>2019-10-07T09:52:58.000Z</Time>
            <Position>
              <LatitudeDegrees>40.72617352008819580078125</LatitudeDegrees>
              <LongitudeDegrees>-5.6301966123282909393310546875</LongitudeDegrees>
            </Position>
            <AltitudeMeters>877.79998779296875</AltitudeMeters>
            <DistanceMeters>NAN</DistanceMeters>
          </Trackpoint>
          <Trackpoint>
            <Time>2019-10-07T09:53:03.000Z</Time>
            <Position>
              <LatitudeDegrees>40.72601133026182651519775390625</LatitudeDegrees>
              <LongitudeDegrees>-5.6300568021833896636962890625</LongitudeDegrees>
            </Position>
            <AltitudeMeters>878.5999755859375</AltitudeMeters>
            <DistanceMeters>NAN</DistanceMeters>
          </Trackpoint>
          <Trackpoint>
            <Time>2019-10-07T09:53:09.000Z</Time>
            <Position>
              <LatitudeDegrees>40.7258141040802001953125</LatitudeDegrees>
              <LongitudeDegrees>-5.62989360652863979339599609375</LongitudeDegrees>
            </Position>
            <AltitudeMeters>878.5999755859375</AltitudeMeters>
            <DistanceMeters>NAN</DistanceMeters>
          </Trackpoint>
          <Trackpoint>
            <Time>2019-10-07T09:53:17.000Z</Time>
            <Position>
              <LatitudeDegrees>40.72553792037069797515869140625</LatitudeDegrees>
              <LongitudeDegrees>-5.62965757213532924652099609375</LongitudeDegrees>
            </Position>
            <AltitudeMeters>879.20001220703125</AltitudeMeters>
            <DistanceMeters>NAN</DistanceMeters>
          </Trackpoint>
          <Trackpoint>
            <Time>2019-10-07T09:53:23.000Z</Time>
            <Position>
              <LatitudeDegrees>40.7253157161176204681396484375</LatitudeDegrees>
              <LongitudeDegrees>-5.62947459518909454345703125</LongitudeDegrees>
            </Position>
            <AltitudeMeters>879</AltitudeMeters>
            <DistanceMeters>NAN</DistanceMeters>
          </Trackpoint>
          <Trackpoint>
            <Time>2019-10-07T09:53:26.000Z</Time>
            <Position>
              <LatitudeDegrees>40.7252033986151218414306640625</LatitudeDegrees>
              <LongitudeDegrees>-5.62938247807323932647705078125</LongitudeDegrees>
            </Position>
            <AltitudeMeters>879.4000244140625</AltitudeMeters>
            <DistanceMeters>NAN</DistanceMeters>
          </Trackpoint>
          <Trackpoint>
            <Time>2019-10-07T09:53:34.000Z</Time>
            <Position>
              <LatitudeDegrees>40.7248852215707302093505859375</LatitudeDegrees>
              <LongitudeDegrees>-5.62911140732467174530029296875</LongitudeDegrees>
            </Position>
            <AltitudeMeters>878.5999755859375</AltitudeMeters>
            <DistanceMeters>NAN</DistanceMeters>
          </Trackpoint>
          <Trackpoint>
            <Time>2019-10-07T09:53:40.000Z</Time>
            <Position>
              <LatitudeDegrees>40.72460970841348171234130859375</LatitudeDegrees>
              <LongitudeDegrees>-5.6288836710155010223388671875</LongitudeDegrees>
            </Position>
            <AltitudeMeters>878.20001220703125</AltitudeMeters>
            <DistanceMeters>NAN</DistanceMeters>
          </Trackpoint>
          <Trackpoint>
            <Time>2019-10-07T09:53:43.000Z</Time>
            <Position>
              <LatitudeDegrees>40.72446654550731182098388671875</LatitudeDegrees>
              <LongitudeDegrees>-5.628766156733036041259765625</LongitudeDegrees>
            </Position>
            <AltitudeMeters>878</AltitudeMeters>
            <DistanceMeters>NAN</DistanceMeters>
          </Trackpoint>
          <Trackpoint>
            <Time>2019-10-07T09:53:47.000Z</Time>
            <Position>
              <LatitudeDegrees>40.7242624461650848388671875</LatitudeDegrees>
              <LongitudeDegrees>-5.62859726138412952423095703125</LongitudeDegrees>
            </Position>
            <AltitudeMeters>877.4000244140625</AltitudeMeters>
            <DistanceMeters>NAN</DistanceMeters>
          </Trackpoint>
          <Trackpoint>
            <Time>2019-10-07T09:53:50.000Z</Time>
            <Position>
              <LatitudeDegrees>40.724098496139049530029296875</LatitudeDegrees>
              <LongitudeDegrees>-5.62846072018146514892578125</LongitudeDegrees>
            </Position>
            <AltitudeMeters>876</AltitudeMeters>
            <DistanceMeters>NAN</DistanceMeters>
          </Trackpoint>
          <Trackpoint>
            <Time>2019-10-07T09:53:51.000Z</Time>
            <Position>
              <LatitudeDegrees>40.72404225356876850128173828125</LatitudeDegrees>
              <LongitudeDegrees>-5.62841436825692653656005859375</LongitudeDegrees>
            </Position>
            <AltitudeMeters>875.79998779296875</AltitudeMeters>
            <DistanceMeters>NAN</DistanceMeters>
          </Trackpoint>
          <Trackpoint>
            <Time>2019-10-07T09:53:55.000Z</Time>
            <Position>
              <LatitudeDegrees>40.72380806319415569305419921875</LatitudeDegrees>
              <LongitudeDegrees>-5.628208257257938385009765625</LongitudeDegrees>
            </Position>
            <AltitudeMeters>875</AltitudeMeters>
            <DistanceMeters>NAN</DistanceMeters>
          </Trackpoint>
          <Trackpoint>
            <Time>2019-10-07T09:53:56.000Z</Time>
            <Position>
              <LatitudeDegrees>40.72374251671135425567626953125</LatitudeDegrees>
              <LongitudeDegrees>-5.62815268523991107940673828125</LongitudeDegrees>
            </Position>
            <AltitudeMeters>874.4000244140625</AltitudeMeters>
            <DistanceMeters>NAN</DistanceMeters>
          </Trackpoint>
          <Trackpoint>
            <Time>2019-10-07T09:53:58.000Z</Time>
            <Position>
              <LatitudeDegrees>40.72360807098448276519775390625</LatitudeDegrees>
              <LongitudeDegrees>-5.62803248874843120574951171875</LongitudeDegrees>
            </Position>
            <AltitudeMeters>873.4000244140625</AltitudeMeters>
            <DistanceMeters>NAN</DistanceMeters>
          </Trackpoint>
          <Trackpoint>
            <Time>2019-10-07T09:53:59.000Z</Time>
            <Position>
              <LatitudeDegrees>40.72354068048298358917236328125</LatitudeDegrees>
              <LongitudeDegrees>-5.62797029502689838409423828125</LongitudeDegrees>
            </Position>
            <AltitudeMeters>872.79998779296875</AltitudeMeters>
            <DistanceMeters>NAN</DistanceMeters>
          </Trackpoint>
          <Trackpoint>
            <Time>2019-10-07T09:54:01.000Z</Time>
            <Position>
              <LatitudeDegrees>40.72340304963290691375732421875</LatitudeDegrees>
              <LongitudeDegrees>-5.6278295628726482391357421875</LongitudeDegrees>
            </Position>
            <AltitudeMeters>871.20001220703125</AltitudeMeters>
            <DistanceMeters>NAN</DistanceMeters>
          </Trackpoint>
          <Trackpoint>
            <Time>2019-10-07T09:54:02.000Z</Time>
            <Position>
              <LatitudeDegrees>40.72333096526563167572021484375</LatitudeDegrees>
              <LongitudeDegrees>-5.62775605358183383941650390625</LongitudeDegrees>
            </Position>
            <AltitudeMeters>870.20001220703125</AltitudeMeters>
            <DistanceMeters>NAN</DistanceMeters>
          </Trackpoint>
          <Trackpoint>
            <Time>2019-10-07T09:54:04.000Z</Time>
            <Position>
              <LatitudeDegrees>40.72318796999752521514892578125</LatitudeDegrees>
              <LongitudeDegrees>-5.62759436666965484619140625</LongitudeDegrees>
            </Position>
            <AltitudeMeters>868.79998779296875</AltitudeMeters>
            <DistanceMeters>NAN</DistanceMeters>
          </Trackpoint>
          <Trackpoint>
            <Time>2019-10-07T09:54:06.000Z</Time>
            <Position>
              <LatitudeDegrees>40.72304480709135532379150390625</LatitudeDegrees>
              <LongitudeDegrees>-5.6274252198636531829833984375</LongitudeDegrees>
            </Position>
            <AltitudeMeters>867.4000244140625</AltitudeMeters>
            <DistanceMeters>NAN</DistanceMeters>
          </Trackpoint>
          <Trackpoint>
            <Time>2019-10-07T09:54:08.000Z</Time>
            <Position>
              <LatitudeDegrees>40.72290415875613689422607421875</LatitudeDegrees>
              <LongitudeDegrees>-5.62724324874579906463623046875</LongitudeDegrees>
            </Position>
            <AltitudeMeters>865.79998779296875</AltitudeMeters>
            <DistanceMeters>NAN</DistanceMeters>
          </Trackpoint>
          <Trackpoint>
            <Time>2019-10-07T09:54:10.000Z</Time>
            <Position>
              <LatitudeDegrees>40.7227672822773456573486328125</LatitudeDegrees>
              <LongitudeDegrees>-5.62704510055482387542724609375</LongitudeDegrees>
            </Position>
            <AltitudeMeters>864.4000244140625</AltitudeMeters>
            <DistanceMeters>NAN</DistanceMeters>
          </Trackpoint>
          <Trackpoint>
            <Time>2019-10-07T09:54:11.000Z</Time>
            <Position>
              <LatitudeDegrees>40.7227002270519733428955078125</LatitudeDegrees>
              <LongitudeDegrees>-5.6269432604312896728515625</LongitudeDegrees>
            </Position>
            <AltitudeMeters>863.20001220703125</AltitudeMeters>
            <DistanceMeters>NAN</DistanceMeters>
          </Trackpoint>
          <Trackpoint>
            <Time>2019-10-07T09:54:14.000Z</Time>
            <Position>
              <LatitudeDegrees>40.72251356206834316253662109375</LatitudeDegrees>
              <LongitudeDegrees>-5.62662131153047084808349609375</LongitudeDegrees>
            </Position>
            <AltitudeMeters>862</AltitudeMeters>
            <DistanceMeters>NAN</DistanceMeters>
          </Trackpoint>
          <Trackpoint>
            <Time>2019-10-07T09:54:16.000Z</Time>
            <Position>
              <LatitudeDegrees>40.72239286266267299652099609375</LatitudeDegrees>
              <LongitudeDegrees>-5.62639600597321987152099609375</LongitudeDegrees>
            </Position>
            <AltitudeMeters>860.79998779296875</AltitudeMeters>
            <DistanceMeters>NAN</DistanceMeters>
          </Trackpoint>
          <Trackpoint>
            <Time>2019-10-07T09:54:18.000Z</Time>
            <Position>
              <LatitudeDegrees>40.722278617322444915771484375</LatitudeDegrees>
              <LongitudeDegrees>-5.6261605583131313323974609375</LongitudeDegrees>
            </Position>
            <AltitudeMeters>859.79998779296875</AltitudeMeters>
            <DistanceMeters>NAN</DistanceMeters>
          </Trackpoint>
          <Trackpoint>
            <Time>2019-10-07T09:54:20.000Z</Time>
            <Position>
              <LatitudeDegrees>40.72217375971376895904541015625</LatitudeDegrees>
              <LongitudeDegrees>-5.62591153196990489959716796875</LongitudeDegrees>
            </Position>
            <AltitudeMeters>858.5999755859375</AltitudeMeters>
            <DistanceMeters>NAN</DistanceMeters>
          </Trackpoint>
          <Trackpoint>
            <Time>2019-10-07T09:54:21.000Z</Time>
            <Position>
              <LatitudeDegrees>40.72211961261928081512451171875</LatitudeDegrees>
              <LongitudeDegrees>-5.62578965909779071807861328125</LongitudeDegrees>
            </Position>
            <AltitudeMeters>857</AltitudeMeters>
            <DistanceMeters>NAN</DistanceMeters>
          </Trackpoint>
          <Trackpoint>
            <Time>2019-10-07T09:54:22.000Z</Time>
            <Position>
              <LatitudeDegrees>40.72206714190542697906494140625</LatitudeDegrees>
              <LongitudeDegrees>-5.625666864216327667236328125</LongitudeDegrees>
            </Position>
            <AltitudeMeters>856.20001220703125</AltitudeMeters>
            <DistanceMeters>NAN</DistanceMeters>
          </Trackpoint>
          <Trackpoint>
            <Time>2019-10-07T09:54:23.000Z</Time>
            <Position>
              <LatitudeDegrees>40.722015090286731719970703125</LatitudeDegrees>
              <LongitudeDegrees>-5.6255431473255157470703125</LongitudeDegrees>
            </Position>
            <AltitudeMeters>855.20001220703125</AltitudeMeters>
            <DistanceMeters>NAN</DistanceMeters>
          </Trackpoint>
          <Trackpoint>
            <Time>2019-10-07T09:54:25.000Z</Time>
            <Position>
              <LatitudeDegrees>40.7219128310680389404296875</LatitudeDegrees>
              <LongitudeDegrees>-5.6252931989729404449462890625</LongitudeDegrees>
            </Position>
            <AltitudeMeters>854.79998779296875</AltitudeMeters>
            <DistanceMeters>NAN</DistanceMeters>
          </Trackpoint>
          <Trackpoint>
            <Time>2019-10-07T09:54:27.000Z</Time>
            <Position>
              <LatitudeDegrees>40.7218104042112827301025390625</LatitudeDegrees>
              <LongitudeDegrees>-5.62504199333488941192626953125</LongitudeDegrees>
            </Position>
            <AltitudeMeters>854</AltitudeMeters>
            <DistanceMeters>NAN</DistanceMeters>
          </Trackpoint>
          <Trackpoint>
            <Time>2019-10-07T09:54:30.000Z</Time>
            <Position>
              <LatitudeDegrees>40.721650980412960052490234375</LatitudeDegrees>
              <LongitudeDegrees>-5.62466128729283809661865234375</LongitudeDegrees>
            </Position>
            <AltitudeMeters>852.5999755859375</AltitudeMeters>
            <DistanceMeters>NAN</DistanceMeters>
          </Trackpoint>
          <Trackpoint>
            <Time>2019-10-07T09:54:31.000Z</Time>
            <Position>
              <LatitudeDegrees>40.72159591130912303924560546875</LatitudeDegrees>
              <LongitudeDegrees>-5.624534301459789276123046875</LongitudeDegrees>
            </Position>
            <AltitudeMeters>852.4000244140625</AltitudeMeters>
            <DistanceMeters>NAN</DistanceMeters>
          </Trackpoint>
          <Trackpoint>
            <Time>2019-10-07T09:54:33.000Z</Time>
            <Position>
              <LatitudeDegrees>40.721490718424320220947265625</LatitudeDegrees>
              <LongitudeDegrees>-5.62427437864243984222412109375</LongitudeDegrees>
            </Position>
            <AltitudeMeters>851</AltitudeMeters>
            <DistanceMeters>NAN</DistanceMeters>
          </Trackpoint>
          <Trackpoint>
            <Time>2019-10-07T09:54:35.000Z</Time>
            <Position>
              <LatitudeDegrees>40.72138586081564426422119140625</LatitudeDegrees>
              <LongitudeDegrees>-5.62401470728218555450439453125</LongitudeDegrees>
            </Position>
            <AltitudeMeters>848.5999755859375</AltitudeMeters>
            <DistanceMeters>NAN</DistanceMeters>
          </Trackpoint>
          <Trackpoint>
            <Time>2019-10-07T09:54:39.000Z</Time>
            <Position>
              <LatitudeDegrees>40.721170194447040557861328125</LatitudeDegrees>
              <LongitudeDegrees>-5.6234937720000743865966796875</LongitudeDegrees>
            </Position>
            <AltitudeMeters>846.79998779296875</AltitudeMeters>
            <DistanceMeters>NAN</DistanceMeters>
          </Trackpoint>
          <Trackpoint>
            <Time>2019-10-07T09:54:41.000Z</Time>
            <Position>
              <LatitudeDegrees>40.72106198407709598541259765625</LatitudeDegrees>
              <LongitudeDegrees>-5.6232309155166149139404296875</LongitudeDegrees>
            </Position>
            <AltitudeMeters>844.79998779296875</AltitudeMeters>
            <DistanceMeters>NAN</DistanceMeters>
          </Trackpoint>
          <Trackpoint>
            <Time>2019-10-07T09:54:44.000Z</Time>
            <Position>
              <LatitudeDegrees>40.7209002971649169921875</LatitudeDegrees>
              <LongitudeDegrees>-5.62284023500978946685791015625</LongitudeDegrees>
            </Position>
            <AltitudeMeters>843</AltitudeMeters>
            <DistanceMeters>NAN</DistanceMeters>
          </Trackpoint>
          <Trackpoint>
            <Time>2019-10-07T09:54:46.000Z</Time>
            <Position>
              <LatitudeDegrees>40.7207921706140041351318359375</LatitudeDegrees>
              <LongitudeDegrees>-5.622580982744693756103515625</LongitudeDegrees>
            </Position>
            <AltitudeMeters>841.20001220703125</AltitudeMeters>
            <DistanceMeters>NAN</DistanceMeters>
          </Trackpoint>
          <Trackpoint>
            <Time>2019-10-07T09:54:48.000Z</Time>
            <Position>
              <LatitudeDegrees>40.720680020749568939208984375</LatitudeDegrees>
              <LongitudeDegrees>-5.62232994474470615386962890625</LongitudeDegrees>
            </Position>
            <AltitudeMeters>840</AltitudeMeters>
            <DistanceMeters>NAN</DistanceMeters>
          </Trackpoint>
          <Trackpoint>
            <Time>2019-10-07T09:54:49.000Z</Time>
            <Position>
              <LatitudeDegrees>40.72062478400766849517822265625</LatitudeDegrees>
              <LongitudeDegrees>-5.62220237217843532562255859375</LongitudeDegrees>
            </Position>
            <AltitudeMeters>839.5999755859375</AltitudeMeters>
            <DistanceMeters>NAN</DistanceMeters>
          </Trackpoint>
          <Trackpoint>
            <Time>2019-10-07T09:54:50.000Z</Time>
            <Position>
              <LatitudeDegrees>40.72056837379932403564453125</LatitudeDegrees>
              <LongitudeDegrees>-5.622078739106655120849609375</LongitudeDegrees>
            </Position>
            <AltitudeMeters>839.4000244140625</AltitudeMeters>
            <DistanceMeters>NAN</DistanceMeters>
          </Trackpoint>
          <Trackpoint>
            <Time>2019-10-07T09:54:52.000Z</Time>
            <Position>
              <LatitudeDegrees>40.72044926695525646209716796875</LatitudeDegrees>
              <LongitudeDegrees>-5.62183407135307788848876953125</LongitudeDegrees>
            </Position>
            <AltitudeMeters>838.4000244140625</AltitudeMeters>
            <DistanceMeters>NAN</DistanceMeters>
          </Trackpoint>
          <Trackpoint>
            <Time>2019-10-07T09:54:54.000Z</Time>
            <Position>
              <LatitudeDegrees>40.72032119147479534149169921875</LatitudeDegrees>
              <LongitudeDegrees>-5.6215920858085155487060546875</LongitudeDegrees>
            </Position>
            <AltitudeMeters>836.79998779296875</AltitudeMeters>
            <DistanceMeters>NAN</DistanceMeters>
          </Trackpoint>
          <Trackpoint>
            <Time>2019-10-07T09:54:56.000Z</Time>
            <Position>
              <LatitudeDegrees>40.72018490172922611236572265625</LatitudeDegrees>
              <LongitudeDegrees>-5.6213604100048542022705078125</LongitudeDegrees>
            </Position>
            <AltitudeMeters>836.20001220703125</AltitudeMeters>
            <DistanceMeters>NAN</DistanceMeters>
          </Trackpoint>
          <Trackpoint>
            <Time>2019-10-07T09:54:57.000Z</Time>
            <Position>
              <LatitudeDegrees>40.72011231444776058197021484375</LatitudeDegrees>
              <LongitudeDegrees>-5.6212460808455944061279296875</LongitudeDegrees>
            </Position>
            <AltitudeMeters>835.5999755859375</AltitudeMeters>
            <DistanceMeters>NAN</DistanceMeters>
          </Trackpoint>
          <Trackpoint>
            <Time>2019-10-07T09:54:59.000Z</Time>
            <Position>
              <LatitudeDegrees>40.7199600152671337127685546875</LatitudeDegrees>
              <LongitudeDegrees>-5.6210196018218994140625</LongitudeDegrees>
            </Position>
            <AltitudeMeters>834.4000244140625</AltitudeMeters>
            <DistanceMeters>NAN</DistanceMeters>
          </Trackpoint>
          <Trackpoint>
            <Time>2019-10-07T09:55:01.000Z</Time>
            <Position>
              <LatitudeDegrees>40.71979547850787639617919921875</LatitudeDegrees>
              <LongitudeDegrees>-5.62080209143459796905517578125</LongitudeDegrees>
            </Position>
            <AltitudeMeters>832.5999755859375</AltitudeMeters>
            <DistanceMeters>NAN</DistanceMeters>
          </Trackpoint>
          <Trackpoint>
            <Time>2019-10-07T09:55:02.000Z</Time>
            <Position>
              <LatitudeDegrees>40.7197095640003681182861328125</LatitudeDegrees>
              <LongitudeDegrees>-5.62069664709270000457763671875</LongitudeDegrees>
            </Position>
            <AltitudeMeters>831.5999755859375</AltitudeMeters>
            <DistanceMeters>NAN</DistanceMeters>
          </Trackpoint>
          <Trackpoint>
            <Time>2019-10-07T09:55:03.000Z</Time>
            <Position>
              <LatitudeDegrees>40.719621889293193817138671875</LatitudeDegrees>
              <LongitudeDegrees>-5.6205909512937068939208984375</LongitudeDegrees>
            </Position>
            <AltitudeMeters>831</AltitudeMeters>
            <DistanceMeters>NAN</DistanceMeters>
          </Trackpoint>
          <Trackpoint>
            <Time>2019-10-07T09:55:07.000Z</Time>
            <Position>
              <LatitudeDegrees>40.71923892013728618621826171875</LatitudeDegrees>
              <LongitudeDegrees>-5.62020353972911834716796875</LongitudeDegrees>
            </Position>
            <AltitudeMeters>829.4000244140625</AltitudeMeters>
            <DistanceMeters>NAN</DistanceMeters>
          </Trackpoint>
          <Trackpoint>
            <Time>2019-10-07T09:55:08.000Z</Time>
            <Position>
              <LatitudeDegrees>40.71913741528987884521484375</LatitudeDegrees>
              <LongitudeDegrees>-5.62011209316551685333251953125</LongitudeDegrees>
            </Position>
            <AltitudeMeters>829</AltitudeMeters>
            <DistanceMeters>NAN</DistanceMeters>
          </Trackpoint>
          <Trackpoint>
            <Time>2019-10-07T09:55:09.000Z</Time>
            <Position>
              <LatitudeDegrees>40.71903104893863201141357421875</LatitudeDegrees>
              <LongitudeDegrees>-5.6200239993631839752197265625</LongitudeDegrees>
            </Position>
            <AltitudeMeters>828.20001220703125</AltitudeMeters>
            <DistanceMeters>NAN</DistanceMeters>
          </Trackpoint>
          <Trackpoint>
            <Time>2019-10-07T09:55:11.000Z</Time>
            <Position>
              <LatitudeDegrees>40.7188083417713642120361328125</LatitudeDegrees>
              <LongitudeDegrees>-5.61986348591744899749755859375</LongitudeDegrees>
            </Position>
            <AltitudeMeters>826.79998779296875</AltitudeMeters>
            <DistanceMeters>NAN</DistanceMeters>
          </Trackpoint>
          <Trackpoint>
            <Time>2019-10-07T09:55:13.000Z</Time>
            <Position>
              <LatitudeDegrees>40.71857574395835399627685546875</LatitudeDegrees>
              <LongitudeDegrees>-5.61971529386937618255615234375</LongitudeDegrees>
            </Position>
            <AltitudeMeters>825.20001220703125</AltitudeMeters>
            <DistanceMeters>NAN</DistanceMeters>
          </Trackpoint>
          <Trackpoint>
            <Time>2019-10-07T09:55:15.000Z</Time>
            <Position>
              <LatitudeDegrees>40.7183349318802356719970703125</LatitudeDegrees>
              <LongitudeDegrees>-5.619584284722805023193359375</LongitudeDegrees>
            </Position>
            <AltitudeMeters>823.5999755859375</AltitudeMeters>
            <DistanceMeters>NAN</DistanceMeters>
          </Trackpoint>
          <Trackpoint>
            <Time>2019-10-07T09:55:16.000Z</Time>
            <Position>
              <LatitudeDegrees>40.7182092033326625823974609375</LatitudeDegrees>
              <LongitudeDegrees>-5.61953005380928516387939453125</LongitudeDegrees>
            </Position>
            <AltitudeMeters>822.4000244140625</AltitudeMeters>
            <DistanceMeters>NAN</DistanceMeters>
          </Trackpoint>
          <Trackpoint>
            <Time>2019-10-07T09:55:17.000Z</Time>
            <Position>
              <LatitudeDegrees>40.7180838100612163543701171875</LatitudeDegrees>
              <LongitudeDegrees>-5.61947800219058990478515625</LongitudeDegrees>
            </Position>
            <AltitudeMeters>821.4000244140625</AltitudeMeters>
            <DistanceMeters>NAN</DistanceMeters>
          </Trackpoint>
          <Trackpoint>
            <Time>2019-10-07T09:55:18.000Z</Time>
            <Position>
              <LatitudeDegrees>40.71795665659010410308837890625</LatitudeDegrees>
              <LongitudeDegrees>-5.6194319017231464385986328125</LongitudeDegrees>
            </Position>
            <AltitudeMeters>820.20001220703125</AltitudeMeters>
            <DistanceMeters>NAN</DistanceMeters>
          </Trackpoint>
          <Trackpoint>
            <Time>2019-10-07T09:55:19.000Z</Time>
            <Position>
              <LatitudeDegrees>40.7178303413093090057373046875</LatitudeDegrees>
              <LongitudeDegrees>-5.61938546597957611083984375</LongitudeDegrees>
            </Position>
            <AltitudeMeters>819.20001220703125</AltitudeMeters>
            <DistanceMeters>NAN</DistanceMeters>
          </Trackpoint>
          <Trackpoint>
            <Time>2019-10-07T09:55:20.000Z</Time>
            <Position>
              <LatitudeDegrees>40.71770687587559223175048828125</LatitudeDegrees>
              <LongitudeDegrees>-5.61934255063533782958984375</LongitudeDegrees>
            </Position>
            <AltitudeMeters>818.20001220703125</AltitudeMeters>
            <DistanceMeters>NAN</DistanceMeters>
          </Trackpoint>
          <Trackpoint>
            <Time>2019-10-07T09:55:21.000Z</Time>
            <Position>
              <LatitudeDegrees>40.7175810635089874267578125</LatitudeDegrees>
              <LongitudeDegrees>-5.61930290423333644866943359375</LongitudeDegrees>
            </Position>
            <AltitudeMeters>817.5999755859375</AltitudeMeters>
            <DistanceMeters>NAN</DistanceMeters>
          </Trackpoint>
          <Trackpoint>
            <Time>2019-10-07T09:55:23.000Z</Time>
            <Position>
              <LatitudeDegrees>40.717330612242221832275390625</LatitudeDegrees>
              <LongitudeDegrees>-5.6192265450954437255859375</LongitudeDegrees>
            </Position>
            <AltitudeMeters>815.4000244140625</AltitudeMeters>
            <DistanceMeters>NAN</DistanceMeters>
          </Trackpoint>
          <Trackpoint>
            <Time>2019-10-07T09:55:25.000Z</Time>
            <Position>
              <LatitudeDegrees>40.7170843519270420074462890625</LatitudeDegrees>
              <LongitudeDegrees>-5.61916686594486236572265625</LongitudeDegrees>
            </Position>
            <AltitudeMeters>814.20001220703125</AltitudeMeters>
            <DistanceMeters>NAN</DistanceMeters>
          </Trackpoint>
          <Trackpoint>
            <Time>2019-10-07T09:55:30.000Z</Time>
            <Position>
              <LatitudeDegrees>40.71650424040853977203369140625</LatitudeDegrees>
              <LongitudeDegrees>-5.61901842243969440460205078125</LongitudeDegrees>
            </Position>
            <AltitudeMeters>814</AltitudeMeters>
            <DistanceMeters>NAN</DistanceMeters>
          </Trackpoint>
          <Trackpoint>
            <Time>2019-10-07T09:55:32.000Z</Time>
            <Position>
              <LatitudeDegrees>40.71628622710704803466796875</LatitudeDegrees>
              <LongitudeDegrees>-5.61896343715488910675048828125</LongitudeDegrees>
            </Position>
            <AltitudeMeters>813.4000244140625</AltitudeMeters>
            <DistanceMeters>NAN</DistanceMeters>
          </Trackpoint>
          <Trackpoint>
            <Time>2019-10-07T09:55:34.000Z</Time>
            <Position>
              <LatitudeDegrees>40.71607701480388641357421875</LatitudeDegrees>
              <LongitudeDegrees>-5.61891063116490840911865234375</LongitudeDegrees>
            </Position>
            <AltitudeMeters>813.5999755859375</AltitudeMeters>
            <DistanceMeters>NAN</DistanceMeters>
          </Trackpoint>
          <Trackpoint>
            <Time>2019-10-07T09:55:35.000Z</Time>
            <Position>
              <LatitudeDegrees>40.71597752161324024200439453125</LatitudeDegrees>
              <LongitudeDegrees>-5.61888330616056919097900390625</LongitudeDegrees>
            </Position>
            <AltitudeMeters>814</AltitudeMeters>
            <DistanceMeters>NAN</DistanceMeters>
          </Trackpoint>
          <Trackpoint>
            <Time>2019-10-07T09:55:38.000Z</Time>
            <Position>
              <LatitudeDegrees>40.715695135295391082763671875</LatitudeDegrees>
              <LongitudeDegrees>-5.61881004832684993743896484375</LongitudeDegrees>
            </Position>
            <AltitudeMeters>814</AltitudeMeters>
            <DistanceMeters>NAN</DistanceMeters>
          </Trackpoint>
          <Trackpoint>
            <Time>2019-10-07T09:55:44.000Z</Time>
            <Position>
              <LatitudeDegrees>40.7151759602129459381103515625</LatitudeDegrees>
              <LongitudeDegrees>-5.61868113465607166290283203125</LongitudeDegrees>
            </Position>
            <AltitudeMeters>814.79998779296875</AltitudeMeters>
            <DistanceMeters>NAN</DistanceMeters>
          </Trackpoint>
          <Trackpoint>
            <Time>2019-10-07T09:55:46.000Z</Time>
            <Position>
              <LatitudeDegrees>40.71501553058624267578125</LatitudeDegrees>
              <LongitudeDegrees>-5.6186416558921337127685546875</LongitudeDegrees>
            </Position>
            <AltitudeMeters>815.4000244140625</AltitudeMeters>
            <DistanceMeters>NAN</DistanceMeters>
          </Trackpoint>
          <Trackpoint>
            <Time>2019-10-07T09:55:49.000Z</Time>
            <Position>
              <LatitudeDegrees>40.71478444151580333709716796875</LatitudeDegrees>
              <LongitudeDegrees>-5.618589855730533599853515625</LongitudeDegrees>
            </Position>
            <AltitudeMeters>815.4000244140625</AltitudeMeters>
            <DistanceMeters>NAN</DistanceMeters>
          </Trackpoint>
          <Trackpoint>
            <Time>2019-10-07T09:55:52.000Z</Time>
            <Position>
              <LatitudeDegrees>40.71456466801464557647705078125</LatitudeDegrees>
              <LongitudeDegrees>-5.61855255626142024993896484375</LongitudeDegrees>
            </Position>
            <AltitudeMeters>815.5999755859375</AltitudeMeters>
            <DistanceMeters>NAN</DistanceMeters>
          </Trackpoint>
          <Trackpoint>
            <Time>2019-10-07T09:55:56.000Z</Time>
            <Position>
              <LatitudeDegrees>40.71427247487008571624755859375</LatitudeDegrees>
              <LongitudeDegrees>-5.61855775304138660430908203125</LongitudeDegrees>
            </Position>
            <AltitudeMeters>815.4000244140625</AltitudeMeters>
            <DistanceMeters>NAN</DistanceMeters>
          </Trackpoint>
          <Trackpoint>
            <Time>2019-10-07T09:55:58.000Z</Time>
            <Position>
              <LatitudeDegrees>40.71412973105907440185546875</LatitudeDegrees>
              <LongitudeDegrees>-5.61857468448579311370849609375</LongitudeDegrees>
            </Position>
            <AltitudeMeters>815.4000244140625</AltitudeMeters>
            <DistanceMeters>NAN</DistanceMeters>
          </Trackpoint>
          <Trackpoint>
            <Time>2019-10-07T09:56:02.000Z</Time>
            <Position>
              <LatitudeDegrees>40.71385480463504791259765625</LatitudeDegrees>
              <LongitudeDegrees>-5.6186379678547382354736328125</LongitudeDegrees>
            </Position>
            <AltitudeMeters>816</AltitudeMeters>
            <DistanceMeters>NAN</DistanceMeters>
          </Trackpoint>
          <Trackpoint>
            <Time>2019-10-07T09:56:03.000Z</Time>
            <Position>
              <LatitudeDegrees>40.71378749795258045196533203125</LatitudeDegrees>
              <LongitudeDegrees>-5.61866235919296741485595703125</LongitudeDegrees>
            </Position>
            <AltitudeMeters>816.4000244140625</AltitudeMeters>
            <DistanceMeters>NAN</DistanceMeters>
          </Trackpoint>
          <Trackpoint>
            <Time>2019-10-07T09:56:05.000Z</Time>
            <Position>
              <LatitudeDegrees>40.71365690790116786956787109375</LatitudeDegrees>
              <LongitudeDegrees>-5.61871851794421672821044921875</LongitudeDegrees>
            </Position>
            <AltitudeMeters>816.20001220703125</AltitudeMeters>
            <DistanceMeters>NAN</DistanceMeters>
          </Trackpoint>
          <Trackpoint>
            <Time>2019-10-07T09:56:10.000Z</Time>
            <Position>
              <LatitudeDegrees>40.7133560813963413238525390625</LatitudeDegrees>
              <LongitudeDegrees>-5.61888766475021839141845703125</LongitudeDegrees>
            </Position>
            <AltitudeMeters>816.5999755859375</AltitudeMeters>
            <DistanceMeters>NAN</DistanceMeters>
          </Trackpoint>
          <Trackpoint>
            <Time>2019-10-07T09:56:12.000Z</Time>
            <Position>
              <LatitudeDegrees>40.7132457755506038665771484375</LatitudeDegrees>
              <LongitudeDegrees>-5.61896511353552341461181640625</LongitudeDegrees>
            </Position>
            <AltitudeMeters>817</AltitudeMeters>
            <DistanceMeters>NAN</DistanceMeters>
          </Trackpoint>
          <Trackpoint>
            <Time>2019-10-07T09:56:14.000Z</Time>
            <Position>
              <LatitudeDegrees>40.713137648999691009521484375</LatitudeDegrees>
              <LongitudeDegrees>-5.61904289759695529937744140625</LongitudeDegrees>
            </Position>
            <AltitudeMeters>817.4000244140625</AltitudeMeters>
            <DistanceMeters>NAN</DistanceMeters>
          </Trackpoint>
          <Trackpoint>
            <Time>2019-10-07T09:56:19.000Z</Time>
            <Position>
              <LatitudeDegrees>40.71289700455963611602783203125</LatitudeDegrees>
              <LongitudeDegrees>-5.6192682869732379913330078125</LongitudeDegrees>
            </Position>
            <AltitudeMeters>817.5999755859375</AltitudeMeters>
            <DistanceMeters>NAN</DistanceMeters>
          </Trackpoint>
          <Trackpoint>
            <Time>2019-10-07T09:56:21.000Z</Time>
            <Position>
              <LatitudeDegrees>40.71281000040471553802490234375</LatitudeDegrees>
              <LongitudeDegrees>-5.61935462057590484619140625</LongitudeDegrees>
            </Position>
            <AltitudeMeters>818.5999755859375</AltitudeMeters>
            <DistanceMeters>NAN</DistanceMeters>
          </Trackpoint>
          <Trackpoint>
            <Time>2019-10-07T09:56:26.000Z</Time>
            <Position>
              <LatitudeDegrees>40.71260598488152027130126953125</LatitudeDegrees>
              <LongitudeDegrees>-5.6195717118680477142333984375</LongitudeDegrees>
            </Position>
            <AltitudeMeters>820</AltitudeMeters>
            <DistanceMeters>NAN</DistanceMeters>
          </Trackpoint>
          <Trackpoint>
            <Time>2019-10-07T09:56:27.000Z</Time>
            <Position>
              <LatitudeDegrees>40.7125698588788509368896484375</LatitudeDegrees>
              <LongitudeDegrees>-5.61961689032614231109619140625</LongitudeDegrees>
            </Position>
            <AltitudeMeters>820.4000244140625</AltitudeMeters>
            <DistanceMeters>NAN</DistanceMeters>
          </Trackpoint>
          <Trackpoint>
            <Time>2019-10-07T09:56:32.000Z</Time>
            <Position>
              <LatitudeDegrees>40.71238956414163112640380859375</LatitudeDegrees>
              <LongitudeDegrees>-5.619839765131473541259765625</LongitudeDegrees>
            </Position>
            <AltitudeMeters>820.4000244140625</AltitudeMeters>
            <DistanceMeters>NAN</DistanceMeters>
          </Trackpoint>
          <Trackpoint>
            <Time>2019-10-07T09:56:38.000Z</Time>
            <Position>
              <LatitudeDegrees>40.7121769152581691741943359375</LatitudeDegrees>
              <LongitudeDegrees>-5.6201168708503246307373046875</LongitudeDegrees>
            </Position>
            <AltitudeMeters>820.79998779296875</AltitudeMeters>
            <DistanceMeters>NAN</DistanceMeters>
          </Trackpoint>
          <Trackpoint>
            <Time>2019-10-07T09:56:43.000Z</Time>
            <Position>
              <LatitudeDegrees>40.71200408041477203369140625</LatitudeDegrees>
              <LongitudeDegrees>-5.62034435570240020751953125</LongitudeDegrees>
            </Position>
            <AltitudeMeters>821.4000244140625</AltitudeMeters>
            <DistanceMeters>NAN</DistanceMeters>
          </Trackpoint>
          <Trackpoint>
            <Time>2019-10-07T09:56:48.000Z</Time>
            <Position>
              <LatitudeDegrees>40.711837448179721832275390625</LatitudeDegrees>
              <LongitudeDegrees>-5.62057091854512691497802734375</LongitudeDegrees>
            </Position>
            <AltitudeMeters>822.20001220703125</AltitudeMeters>
            <DistanceMeters>NAN</DistanceMeters>
          </Trackpoint>
          <Trackpoint>
            <Time>2019-10-07T09:56:51.000Z</Time>
            <Position>
              <LatitudeDegrees>40.71173393167555332183837890625</LatitudeDegrees>
              <LongitudeDegrees>-5.6207072921097278594970703125</LongitudeDegrees>
            </Position>
            <AltitudeMeters>822.4000244140625</AltitudeMeters>
            <DistanceMeters>NAN</DistanceMeters>
          </Trackpoint>
          <Trackpoint>
            <Time>2019-10-07T09:56:56.000Z</Time>
            <Position>
              <LatitudeDegrees>40.71156277321279048919677734375</LatitudeDegrees>
              <LongitudeDegrees>-5.6209396384656429290771484375</LongitudeDegrees>
            </Position>
            <AltitudeMeters>822.79998779296875</AltitudeMeters>
            <DistanceMeters>NAN</DistanceMeters>
          </Trackpoint>
          <Trackpoint>
            <Time>2019-10-07T09:57:00.000Z</Time>
            <Position>
              <LatitudeDegrees>40.71142614819109439849853515625</LatitudeDegrees>
              <LongitudeDegrees>-5.621125213801860809326171875</LongitudeDegrees>
            </Position>
            <AltitudeMeters>823.5999755859375</AltitudeMeters>
            <DistanceMeters>NAN</DistanceMeters>
          </Trackpoint>
          <Trackpoint>
            <Time>2019-10-07T09:57:02.000Z</Time>
            <Position>
              <LatitudeDegrees>40.71135657839477062225341796875</LatitudeDegrees>
              <LongitudeDegrees>-5.6212159059941768646240234375</LongitudeDegrees>
            </Position>
            <AltitudeMeters>823.79998779296875</AltitudeMeters>
            <DistanceMeters>NAN</DistanceMeters>
          </Trackpoint>
          <Trackpoint>
            <Time>2019-10-07T09:57:08.000Z</Time>
            <Position>
              <LatitudeDegrees>40.7111526466906070709228515625</LatitudeDegrees>
              <LongitudeDegrees>-5.621488988399505615234375</LongitudeDegrees>
            </Position>
            <AltitudeMeters>824.5999755859375</AltitudeMeters>
            <DistanceMeters>NAN</DistanceMeters>
          </Trackpoint>
          <Trackpoint>
            <Time>2019-10-07T09:57:12.000Z</Time>
            <Position>
              <LatitudeDegrees>40.711014010012149810791015625</LatitudeDegrees>
              <LongitudeDegrees>-5.62166827730834484100341796875</LongitudeDegrees>
            </Position>
            <AltitudeMeters>824.79998779296875</AltitudeMeters>
            <DistanceMeters>NAN</DistanceMeters>
          </Trackpoint>
          <Trackpoint>
            <Time>2019-10-07T09:57:18.000Z</Time>
            <Position>
              <LatitudeDegrees>40.7107865251600742340087890625</LatitudeDegrees>
              <LongitudeDegrees>-5.6219126097857952117919921875</LongitudeDegrees>
            </Position>
            <AltitudeMeters>825.5999755859375</AltitudeMeters>
            <DistanceMeters>NAN</DistanceMeters>
          </Trackpoint>
          <Trackpoint>
            <Time>2019-10-07T09:57:21.000Z</Time>
            <Position>
              <LatitudeDegrees>40.7106649875640869140625</LatitudeDegrees>
              <LongitudeDegrees>-5.62202970497310161590576171875</LongitudeDegrees>
            </Position>
            <AltitudeMeters>825.79998779296875</AltitudeMeters>
            <DistanceMeters>NAN</DistanceMeters>
          </Trackpoint>
          <Trackpoint>
            <Time>2019-10-07T09:57:29.000Z</Time>
            <Position>
              <LatitudeDegrees>40.71031202562153339385986328125</LatitudeDegrees>
              <LongitudeDegrees>-5.622275210916996002197265625</LongitudeDegrees>
            </Position>
            <AltitudeMeters>826</AltitudeMeters>
            <DistanceMeters>NAN</DistanceMeters>
          </Trackpoint>
          <Trackpoint>
            <Time>2019-10-07T09:57:34.000Z</Time>
            <Position>
              <LatitudeDegrees>40.710086636245250701904296875</LatitudeDegrees>
              <LongitudeDegrees>-5.622383840382099151611328125</LongitudeDegrees>
            </Position>
            <AltitudeMeters>826.79998779296875</AltitudeMeters>
            <DistanceMeters>NAN</DistanceMeters>
          </Trackpoint>
          <Trackpoint>
            <Time>2019-10-07T09:57:38.000Z</Time>
            <Position>
              <LatitudeDegrees>40.70990449748933315277099609375</LatitudeDegrees>
              <LongitudeDegrees>-5.62245315872132778167724609375</LongitudeDegrees>
            </Position>
            <AltitudeMeters>827.4000244140625</AltitudeMeters>
            <DistanceMeters>NAN</DistanceMeters>
          </Trackpoint>
          <Trackpoint>
            <Time>2019-10-07T09:57:43.000Z</Time>
            <Position>
              <LatitudeDegrees>40.70966628380119800567626953125</LatitudeDegrees>
              <LongitudeDegrees>-5.62250495888292789459228515625</LongitudeDegrees>
            </Position>
            <AltitudeMeters>827.79998779296875</AltitudeMeters>
            <DistanceMeters>NAN</DistanceMeters>
          </Trackpoint>
          <Trackpoint>
            <Time>2019-10-07T09:57:46.000Z</Time>
            <Position>
              <LatitudeDegrees>40.709520690143108367919921875</LatitudeDegrees>
              <LongitudeDegrees>-5.62251769937574863433837890625</LongitudeDegrees>
            </Position>
            <AltitudeMeters>828.20001220703125</AltitudeMeters>
            <DistanceMeters>NAN</DistanceMeters>
          </Trackpoint>
          <Trackpoint>
            <Time>2019-10-07T09:57:55.000Z</Time>
            <Position>
              <LatitudeDegrees>40.70908122695982456207275390625</LatitudeDegrees>
              <LongitudeDegrees>-5.6224943138659000396728515625</LongitudeDegrees>
            </Position>
            <AltitudeMeters>828.4000244140625</AltitudeMeters>
            <DistanceMeters>NAN</DistanceMeters>
          </Trackpoint>
          <Trackpoint>
            <Time>2019-10-07T09:58:05.000Z</Time>
            <Position>
              <LatitudeDegrees>40.7085393369197845458984375</LatitudeDegrees>
              <LongitudeDegrees>-5.62239331193268299102783203125</LongitudeDegrees>
            </Position>
            <AltitudeMeters>827</AltitudeMeters>
            <DistanceMeters>NAN</DistanceMeters>
          </Trackpoint>
          <Trackpoint>
            <Time>2019-10-07T09:58:11.000Z</Time>
            <Position>
              <LatitudeDegrees>40.70817514322698116302490234375</LatitudeDegrees>
              <LongitudeDegrees>-5.62230731360614299774169921875</LongitudeDegrees>
            </Position>
            <AltitudeMeters>827</AltitudeMeters>
            <DistanceMeters>NAN</DistanceMeters>
          </Trackpoint>
          <Trackpoint>
            <Time>2019-10-07T09:58:12.000Z</Time>
            <Position>
              <LatitudeDegrees>40.70811328478157520294189453125</LatitudeDegrees>
              <LongitudeDegrees>-5.62228937633335590362548828125</LongitudeDegrees>
            </Position>
            <AltitudeMeters>826.79998779296875</AltitudeMeters>
            <DistanceMeters>NAN</DistanceMeters>
          </Trackpoint>
          <Trackpoint>
            <Time>2019-10-07T09:58:13.000Z</Time>
            <Position>
              <LatitudeDegrees>40.7080432958900928497314453125</LatitudeDegrees>
              <LongitudeDegrees>-5.62227697111666202545166015625</LongitudeDegrees>
            </Position>
            <AltitudeMeters>826.4000244140625</AltitudeMeters>
            <DistanceMeters>NAN</DistanceMeters>
          </Trackpoint>
          <Trackpoint>
            <Time>2019-10-07T09:58:14.000Z</Time>
            <Position>
              <LatitudeDegrees>40.70798252709209918975830078125</LatitudeDegrees>
              <LongitudeDegrees>-5.6222681701183319091796875</LongitudeDegrees>
            </Position>
            <AltitudeMeters>826.20001220703125</AltitudeMeters>
            <DistanceMeters>NAN</DistanceMeters>
          </Trackpoint>
          <Trackpoint>
            <Time>2019-10-07T09:58:17.000Z</Time>
            <Position>
              <LatitudeDegrees>40.7077757455408573150634765625</LatitudeDegrees>
              <LongitudeDegrees>-5.62224729917943477630615234375</LongitudeDegrees>
            </Position>
            <AltitudeMeters>825.79998779296875</AltitudeMeters>
            <DistanceMeters>NAN</DistanceMeters>
          </Trackpoint>
          <Trackpoint>
            <Time>2019-10-07T09:58:18.000Z</Time>
            <Position>
              <LatitudeDegrees>40.7077053375542163848876953125</LatitudeDegrees>
              <LongitudeDegrees>-5.6222384981811046600341796875</LongitudeDegrees>
            </Position>
            <AltitudeMeters>825.5999755859375</AltitudeMeters>
            <DistanceMeters>NAN</DistanceMeters>
          </Trackpoint>
          <Trackpoint>
            <Time>2019-10-07T09:58:20.000Z</Time>
            <Position>
              <LatitudeDegrees>40.707562007009983062744140625</LatitudeDegrees>
              <LongitudeDegrees>-5.622219555079936981201171875</LongitudeDegrees>
            </Position>
            <AltitudeMeters>824.79998779296875</AltitudeMeters>
            <DistanceMeters>NAN</DistanceMeters>
          </Trackpoint>
          <Trackpoint>
            <Time>2019-10-07T09:58:23.000Z</Time>
            <Position>
              <LatitudeDegrees>40.707347430288791656494140625</LatitudeDegrees>
              <LongitudeDegrees>-5.62221511267125606536865234375</LongitudeDegrees>
            </Position>
            <AltitudeMeters>824.4000244140625</AltitudeMeters>
            <DistanceMeters>NAN</DistanceMeters>
          </Trackpoint>
          <Trackpoint>
            <Time>2019-10-07T09:58:26.000Z</Time>
            <Position>
              <LatitudeDegrees>40.70712137036025524139404296875</LatitudeDegrees>
              <LongitudeDegrees>-5.622222237288951873779296875</LongitudeDegrees>
            </Position>
            <AltitudeMeters>823.5999755859375</AltitudeMeters>
            <DistanceMeters>NAN</DistanceMeters>
          </Trackpoint>
          <Trackpoint>
            <Time>2019-10-07T09:58:27.000Z</Time>
            <Position>
              <LatitudeDegrees>40.707052387297153472900390625</LatitudeDegrees>
              <LongitudeDegrees>-5.6222270987927913665771484375</LongitudeDegrees>
            </Position>
            <AltitudeMeters>823.20001220703125</AltitudeMeters>
            <DistanceMeters>NAN</DistanceMeters>
          </Trackpoint>
          <Trackpoint>
            <Time>2019-10-07T09:58:31.000Z</Time>
            <Position>
              <LatitudeDegrees>40.70675231516361236572265625</LatitudeDegrees>
              <LongitudeDegrees>-5.6222465448081493377685546875</LongitudeDegrees>
            </Position>
            <AltitudeMeters>822.4000244140625</AltitudeMeters>
            <DistanceMeters>NAN</DistanceMeters>
          </Trackpoint>
          <Trackpoint>
            <Time>2019-10-07T09:58:34.000Z</Time>
            <Position>
              <LatitudeDegrees>40.706521309912204742431640625</LatitudeDegrees>
              <LongitudeDegrees>-5.62224646098911762237548828125</LongitudeDegrees>
            </Position>
            <AltitudeMeters>822.5999755859375</AltitudeMeters>
            <DistanceMeters>NAN</DistanceMeters>
          </Trackpoint>
          <Trackpoint>
            <Time>2019-10-07T09:58:35.000Z</Time>
            <Position>
              <LatitudeDegrees>40.70643656887114048004150390625</LatitudeDegrees>
              <LongitudeDegrees>-5.62224872410297393798828125</LongitudeDegrees>
            </Position>
            <AltitudeMeters>822.20001220703125</AltitudeMeters>
            <DistanceMeters>NAN</DistanceMeters>
          </Trackpoint>
          <Trackpoint>
            <Time>2019-10-07T09:58:36.000Z</Time>
            <Position>
              <LatitudeDegrees>40.70636297576129436492919921875</LatitudeDegrees>
              <LongitudeDegrees>-5.6222522445023059844970703125</LongitudeDegrees>
            </Position>
            <AltitudeMeters>821.5999755859375</AltitudeMeters>
            <DistanceMeters>NAN</DistanceMeters>
          </Trackpoint>
          <Trackpoint>
            <Time>2019-10-07T09:58:40.000Z</Time>
            <Position>
              <LatitudeDegrees>40.706041865050792694091796875</LatitudeDegrees>
              <LongitudeDegrees>-5.62227529473602771759033203125</LongitudeDegrees>
            </Position>
            <AltitudeMeters>821</AltitudeMeters>
            <DistanceMeters>NAN</DistanceMeters>
          </Trackpoint>
          <Trackpoint>
            <Time>2019-10-07T09:58:45.000Z</Time>
            <Position>
              <LatitudeDegrees>40.70564917288720607757568359375</LatitudeDegrees>
              <LongitudeDegrees>-5.62233581207692623138427734375</LongitudeDegrees>
            </Position>
            <AltitudeMeters>820.4000244140625</AltitudeMeters>
            <DistanceMeters>NAN</DistanceMeters>
          </Trackpoint>
          <Trackpoint>
            <Time>2019-10-07T09:58:49.000Z</Time>
            <Position>
              <LatitudeDegrees>40.7053302414715290069580078125</LatitudeDegrees>
              <LongitudeDegrees>-5.62240068800747394561767578125</LongitudeDegrees>
            </Position>
            <AltitudeMeters>820</AltitudeMeters>
            <DistanceMeters>NAN</DistanceMeters>
          </Trackpoint>
          <Trackpoint>
            <Time>2019-10-07T09:58:54.000Z</Time>
            <Position>
              <LatitudeDegrees>40.70494207553565502166748046875</LatitudeDegrees>
              <LongitudeDegrees>-5.6224854290485382080078125</LongitudeDegrees>
            </Position>
            <AltitudeMeters>818.79998779296875</AltitudeMeters>
            <DistanceMeters>NAN</DistanceMeters>
          </Trackpoint>
          <Trackpoint>
            <Time>2019-10-07T09:58:55.000Z</Time>
            <Position>
              <LatitudeDegrees>40.7048662193119525909423828125</LatitudeDegrees>
              <LongitudeDegrees>-5.62250311486423015594482421875</LongitudeDegrees>
            </Position>
            <AltitudeMeters>818.79998779296875</AltitudeMeters>
            <DistanceMeters>NAN</DistanceMeters>
          </Trackpoint>
          <Trackpoint>
            <Time>2019-10-07T09:58:59.000Z</Time>
            <Position>
              <LatitudeDegrees>40.7045648060739040374755859375</LatitudeDegrees>
              <LongitudeDegrees>-5.62259581871330738067626953125</LongitudeDegrees>
            </Position>
            <AltitudeMeters>818.79998779296875</AltitudeMeters>
            <DistanceMeters>NAN</DistanceMeters>
          </Trackpoint>
          <Trackpoint>
            <Time>2019-10-07T09:59:01.000Z</Time>
            <Position>
              <LatitudeDegrees>40.70441854186356067657470703125</LatitudeDegrees>
              <LongitudeDegrees>-5.62265030108392238616943359375</LongitudeDegrees>
            </Position>
            <AltitudeMeters>818.79998779296875</AltitudeMeters>
            <DistanceMeters>NAN</DistanceMeters>
          </Trackpoint>
          <Trackpoint>
            <Time>2019-10-07T09:59:07.000Z</Time>
            <Position>
              <LatitudeDegrees>40.70396876893937587738037109375</LatitudeDegrees>
              <LongitudeDegrees>-5.62275222502648830413818359375</LongitudeDegrees>
            </Position>
            <AltitudeMeters>817.79998779296875</AltitudeMeters>
            <DistanceMeters>NAN</DistanceMeters>
          </Trackpoint>
          <Trackpoint>
            <Time>2019-10-07T09:59:12.000Z</Time>
            <Position>
              <LatitudeDegrees>40.70358999073505401611328125</LatitudeDegrees>
              <LongitudeDegrees>-5.62281106598675251007080078125</LongitudeDegrees>
            </Position>
            <AltitudeMeters>818</AltitudeMeters>
            <DistanceMeters>NAN</DistanceMeters>
          </Trackpoint>
          <Trackpoint>
            <Time>2019-10-07T09:59:17.000Z</Time>
            <Position>
              <LatitudeDegrees>40.70320350117981433868408203125</LatitudeDegrees>
              <LongitudeDegrees>-5.62283478677272796630859375</LongitudeDegrees>
            </Position>
            <AltitudeMeters>816.79998779296875</AltitudeMeters>
            <DistanceMeters>NAN</DistanceMeters>
          </Trackpoint>
          <Trackpoint>
            <Time>2019-10-07T09:59:22.000Z</Time>
            <Position>
              <LatitudeDegrees>40.70281215012073516845703125</LatitudeDegrees>
              <LongitudeDegrees>-5.62284660525619983673095703125</LongitudeDegrees>
            </Position>
            <AltitudeMeters>815.79998779296875</AltitudeMeters>
            <DistanceMeters>NAN</DistanceMeters>
          </Trackpoint>
          <Trackpoint>
            <Time>2019-10-07T09:59:24.000Z</Time>
            <Position>
              <LatitudeDegrees>40.7026584260165691375732421875</LatitudeDegrees>
              <LongitudeDegrees>-5.62285833992063999176025390625</LongitudeDegrees>
            </Position>
            <AltitudeMeters>815.5999755859375</AltitudeMeters>
            <DistanceMeters>NAN</DistanceMeters>
          </Trackpoint>
          <Trackpoint>
            <Time>2019-10-07T09:59:30.000Z</Time>
            <Position>
              <LatitudeDegrees>40.7022262550890445709228515625</LatitudeDegrees>
              <LongitudeDegrees>-5.622902847826480865478515625</LongitudeDegrees>
            </Position>
            <AltitudeMeters>815.5999755859375</AltitudeMeters>
            <DistanceMeters>NAN</DistanceMeters>
          </Trackpoint>
          <Trackpoint>
            <Time>2019-10-07T09:59:34.000Z</Time>
            <Position>
              <LatitudeDegrees>40.70195996202528476715087890625</LatitudeDegrees>
              <LongitudeDegrees>-5.62292908318340778350830078125</LongitudeDegrees>
            </Position>
            <AltitudeMeters>816.5999755859375</AltitudeMeters>
            <DistanceMeters>NAN</DistanceMeters>
          </Trackpoint>
          <Trackpoint>
            <Time>2019-10-07T09:59:41.000Z</Time>
            <Position>
              <LatitudeDegrees>40.70150935091078281402587890625</LatitudeDegrees>
              <LongitudeDegrees>-5.62297468073666095733642578125</LongitudeDegrees>
            </Position>
            <AltitudeMeters>817.5999755859375</AltitudeMeters>
            <DistanceMeters>NAN</DistanceMeters>
          </Trackpoint>
          <Trackpoint>
            <Time>2019-10-07T09:59:46.000Z</Time>
            <Position>
              <LatitudeDegrees>40.7011872343719005584716796875</LatitudeDegrees>
              <LongitudeDegrees>-5.62301072292029857635498046875</LongitudeDegrees>
            </Position>
            <AltitudeMeters>817</AltitudeMeters>
            <DistanceMeters>NAN</DistanceMeters>
          </Trackpoint>
          <Trackpoint>
            <Time>2019-10-07T09:59:50.000Z</Time>
            <Position>
              <LatitudeDegrees>40.700932256877422332763671875</LatitudeDegrees>
              <LongitudeDegrees>-5.6230404786765575408935546875</LongitudeDegrees>
            </Position>
            <AltitudeMeters>817.20001220703125</AltitudeMeters>
            <DistanceMeters>NAN</DistanceMeters>
          </Trackpoint>
          <Trackpoint>
            <Time>2019-10-07T09:59:54.000Z</Time>
            <Position>
              <LatitudeDegrees>40.70066906511783599853515625</LatitudeDegrees>
              <LongitudeDegrees>-5.623066127300262451171875</LongitudeDegrees>
            </Position>
            <AltitudeMeters>817.5999755859375</AltitudeMeters>
            <DistanceMeters>NAN</DistanceMeters>
          </Trackpoint>
          <Trackpoint>
            <Time>2019-10-07T10:00:00.000Z</Time>
            <Position>
              <LatitudeDegrees>40.70028039626777172088623046875</LatitudeDegrees>
              <LongitudeDegrees>-5.623106695711612701416015625</LongitudeDegrees>
            </Position>
            <AltitudeMeters>817.4000244140625</AltitudeMeters>
            <DistanceMeters>NAN</DistanceMeters>
          </Trackpoint>
          <Trackpoint>
            <Time>2019-10-07T10:00:05.000Z</Time>
            <Position>
              <LatitudeDegrees>40.69995970465242862701416015625</LatitudeDegrees>
              <LongitudeDegrees>-5.6231420673429965972900390625</LongitudeDegrees>
            </Position>
            <AltitudeMeters>817.79998779296875</AltitudeMeters>
            <DistanceMeters>NAN</DistanceMeters>
          </Trackpoint>
          <Trackpoint>
            <Time>2019-10-07T10:00:13.000Z</Time>
            <Position>
              <LatitudeDegrees>40.6994370929896831512451171875</LatitudeDegrees>
              <LongitudeDegrees>-5.623198561370372772216796875</LongitudeDegrees>
            </Position>
            <AltitudeMeters>817.4000244140625</AltitudeMeters>
            <DistanceMeters>NAN</DistanceMeters>
          </Trackpoint>
          <Trackpoint>
            <Time>2019-10-07T10:00:17.000Z</Time>
            <Position>
              <LatitudeDegrees>40.69917599670588970184326171875</LatitudeDegrees>
              <LongitudeDegrees>-5.623221695423126220703125</LongitudeDegrees>
            </Position>
            <AltitudeMeters>817.79998779296875</AltitudeMeters>
            <DistanceMeters>NAN</DistanceMeters>
          </Trackpoint>
          <Trackpoint>
            <Time>2019-10-07T10:00:25.000Z</Time>
            <Position>
              <LatitudeDegrees>40.69864206947386264801025390625</LatitudeDegrees>
              <LongitudeDegrees>-5.62328179366886615753173828125</LongitudeDegrees>
            </Position>
            <AltitudeMeters>818</AltitudeMeters>
            <DistanceMeters>NAN</DistanceMeters>
          </Trackpoint>
          <Trackpoint>
            <Time>2019-10-07T10:00:30.000Z</Time>
            <Position>
              <LatitudeDegrees>40.698305703699588775634765625</LatitudeDegrees>
              <LongitudeDegrees>-5.62331582419574260711669921875</LongitudeDegrees>
            </Position>
            <AltitudeMeters>817.4000244140625</AltitudeMeters>
            <DistanceMeters>NAN</DistanceMeters>
          </Trackpoint>
          <Trackpoint>
            <Time>2019-10-07T10:00:38.000Z</Time>
            <Position>
              <LatitudeDegrees>40.6977637298405170440673828125</LatitudeDegrees>
              <LongitudeDegrees>-5.623348765075206756591796875</LongitudeDegrees>
            </Position>
            <AltitudeMeters>817.5999755859375</AltitudeMeters>
            <DistanceMeters>NAN</DistanceMeters>
          </Trackpoint>
          <Trackpoint>
            <Time>2019-10-07T10:00:40.000Z</Time>
            <Position>
              <LatitudeDegrees>40.697630457580089569091796875</LatitudeDegrees>
              <LongitudeDegrees>-5.6233464181423187255859375</LongitudeDegrees>
            </Position>
            <AltitudeMeters>817.5999755859375</AltitudeMeters>
            <DistanceMeters>NAN</DistanceMeters>
          </Trackpoint>
          <Trackpoint>
            <Time>2019-10-07T10:00:48.000Z</Time>
            <Position>
              <LatitudeDegrees>40.697098039090633392333984375</LatitudeDegrees>
              <LongitudeDegrees>-5.62328405678272247314453125</LongitudeDegrees>
            </Position>
            <AltitudeMeters>818</AltitudeMeters>
            <DistanceMeters>NAN</DistanceMeters>
          </Trackpoint>
          <Trackpoint>
            <Time>2019-10-07T10:00:56.000Z</Time>
            <Position>
              <LatitudeDegrees>40.6965644471347332000732421875</LatitudeDegrees>
              <LongitudeDegrees>-5.62312823720276355743408203125</LongitudeDegrees>
            </Position>
            <AltitudeMeters>817.4000244140625</AltitudeMeters>
            <DistanceMeters>NAN</DistanceMeters>
          </Trackpoint>
          <Trackpoint>
            <Time>2019-10-07T10:00:57.000Z</Time>
            <Position>
              <LatitudeDegrees>40.69649823009967803955078125</LatitudeDegrees>
              <LongitudeDegrees>-5.6231021694839000701904296875</LongitudeDegrees>
            </Position>
            <AltitudeMeters>817.4000244140625</AltitudeMeters>
            <DistanceMeters>NAN</DistanceMeters>
          </Trackpoint>
          <Trackpoint>
            <Time>2019-10-07T10:01:02.000Z</Time>
            <Position>
              <LatitudeDegrees>40.6961644627153873443603515625</LatitudeDegrees>
              <LongitudeDegrees>-5.6229626946151256561279296875</LongitudeDegrees>
            </Position>
            <AltitudeMeters>816.5999755859375</AltitudeMeters>
            <DistanceMeters>NAN</DistanceMeters>
          </Trackpoint>
          <Trackpoint>
            <Time>2019-10-07T10:01:05.000Z</Time>
            <Position>
              <LatitudeDegrees>40.695963799953460693359375</LatitudeDegrees>
              <LongitudeDegrees>-5.622873343527317047119140625</LongitudeDegrees>
            </Position>
            <AltitudeMeters>816</AltitudeMeters>
            <DistanceMeters>NAN</DistanceMeters>
          </Trackpoint>
          <Trackpoint>
            <Time>2019-10-07T10:01:09.000Z</Time>
            <Position>
              <LatitudeDegrees>40.69569834508001804351806640625</LatitudeDegrees>
              <LongitudeDegrees>-5.6227581761777400970458984375</LongitudeDegrees>
            </Position>
            <AltitudeMeters>815.79998779296875</AltitudeMeters>
            <DistanceMeters>NAN</DistanceMeters>
          </Trackpoint>
          <Trackpoint>
            <Time>2019-10-07T10:01:14.000Z</Time>
            <Position>
              <LatitudeDegrees>40.69536977447569370269775390625</LatitudeDegrees>
              <LongitudeDegrees>-5.62261593528091907501220703125</LongitudeDegrees>
            </Position>
            <AltitudeMeters>815.79998779296875</AltitudeMeters>
            <DistanceMeters>NAN</DistanceMeters>
          </Trackpoint>
          <Trackpoint>
            <Time>2019-10-07T10:01:22.000Z</Time>
            <Position>
              <LatitudeDegrees>40.69484598934650421142578125</LatitudeDegrees>
              <LongitudeDegrees>-5.62238727696239948272705078125</LongitudeDegrees>
            </Position>
            <AltitudeMeters>816.20001220703125</AltitudeMeters>
            <DistanceMeters>NAN</DistanceMeters>
          </Trackpoint>
          <Trackpoint>
            <Time>2019-10-07T10:01:24.000Z</Time>
            <Position>
              <LatitudeDegrees>40.69471514783799648284912109375</LatitudeDegrees>
              <LongitudeDegrees>-5.622331537306308746337890625</LongitudeDegrees>
            </Position>
            <AltitudeMeters>816.20001220703125</AltitudeMeters>
            <DistanceMeters>NAN</DistanceMeters>
          </Trackpoint>
          <Trackpoint>
            <Time>2019-10-07T10:01:32.000Z</Time>
            <Position>
              <LatitudeDegrees>40.69420251064002513885498046875</LatitudeDegrees>
              <LongitudeDegrees>-5.62214604578912258148193359375</LongitudeDegrees>
            </Position>
            <AltitudeMeters>816.5999755859375</AltitudeMeters>
            <DistanceMeters>NAN</DistanceMeters>
          </Trackpoint>
          <Trackpoint>
            <Time>2019-10-07T10:01:34.000Z</Time>
            <Position>
              <LatitudeDegrees>40.6940760277211666107177734375</LatitudeDegrees>
              <LongitudeDegrees>-5.622109584510326385498046875</LongitudeDegrees>
            </Position>
            <AltitudeMeters>816.4000244140625</AltitudeMeters>
            <DistanceMeters>NAN</DistanceMeters>
          </Trackpoint>
          <Trackpoint>
            <Time>2019-10-07T10:01:42.000Z</Time>
            <Position>
              <LatitudeDegrees>40.69355408661067485809326171875</LatitudeDegrees>
              <LongitudeDegrees>-5.622046887874603271484375</LongitudeDegrees>
            </Position>
            <AltitudeMeters>816.79998779296875</AltitudeMeters>
            <DistanceMeters>NAN</DistanceMeters>
          </Trackpoint>
          <Trackpoint>
            <Time>2019-10-07T10:01:48.000Z</Time>
            <Position>
              <LatitudeDegrees>40.693188719451427459716796875</LatitudeDegrees>
              <LongitudeDegrees>-5.622075386345386505126953125</LongitudeDegrees>
            </Position>
            <AltitudeMeters>817.4000244140625</AltitudeMeters>
            <DistanceMeters>NAN</DistanceMeters>
          </Trackpoint>
          <Trackpoint>
            <Time>2019-10-07T10:01:49.000Z</Time>
            <Position>
              <LatitudeDegrees>40.6931308843195438385009765625</LatitudeDegrees>
              <LongitudeDegrees>-5.622087456285953521728515625</LongitudeDegrees>
            </Position>
            <AltitudeMeters>817.79998779296875</AltitudeMeters>
            <DistanceMeters>NAN</DistanceMeters>
          </Trackpoint>
          <Trackpoint>
            <Time>2019-10-07T10:01:58.000Z</Time>
            <Position>
              <LatitudeDegrees>40.69267231039702892303466796875</LatitudeDegrees>
              <LongitudeDegrees>-5.62224511988461017608642578125</LongitudeDegrees>
            </Position>
            <AltitudeMeters>818</AltitudeMeters>
            <DistanceMeters>NAN</DistanceMeters>
          </Trackpoint>
          <Trackpoint>
            <Time>2019-10-07T10:02:06.000Z</Time>
            <Position>
              <LatitudeDegrees>40.69224215112626552581787109375</LatitudeDegrees>
              <LongitudeDegrees>-5.62246120534837245941162109375</LongitudeDegrees>
            </Position>
            <AltitudeMeters>818.4000244140625</AltitudeMeters>
            <DistanceMeters>NAN</DistanceMeters>
          </Trackpoint>
          <Trackpoint>
            <Time>2019-10-07T10:02:09.000Z</Time>
            <Position>
              <LatitudeDegrees>40.69207769818603992462158203125</LatitudeDegrees>
              <LongitudeDegrees>-5.62255843542516231536865234375</LongitudeDegrees>
            </Position>
            <AltitudeMeters>819</AltitudeMeters>
            <DistanceMeters>NAN</DistanceMeters>
          </Trackpoint>
          <Trackpoint>
            <Time>2019-10-07T10:02:17.000Z</Time>
            <Position>
              <LatitudeDegrees>40.6916395761072635650634765625</LatitudeDegrees>
              <LongitudeDegrees>-5.62282062135636806488037109375</LongitudeDegrees>
            </Position>
            <AltitudeMeters>819</AltitudeMeters>
            <DistanceMeters>NAN</DistanceMeters>
          </Trackpoint>
          <Trackpoint>
            <Time>2019-10-07T10:02:26.000Z</Time>
            <Position>
              <LatitudeDegrees>40.691141523420810699462890625</LatitudeDegrees>
              <LongitudeDegrees>-5.62311348505318164825439453125</LongitudeDegrees>
            </Position>
            <AltitudeMeters>819.4000244140625</AltitudeMeters>
            <DistanceMeters>NAN</DistanceMeters>
          </Trackpoint>
          <Trackpoint>
            <Time>2019-10-07T10:02:28.000Z</Time>
            <Position>
              <LatitudeDegrees>40.6910293735563755035400390625</LatitudeDegrees>
              <LongitudeDegrees>-5.62317400239408016204833984375</LongitudeDegrees>
            </Position>
            <AltitudeMeters>819</AltitudeMeters>
            <DistanceMeters>NAN</DistanceMeters>
          </Trackpoint>
          <Trackpoint>
            <Time>2019-10-07T10:02:32.000Z</Time>
            <Position>
              <LatitudeDegrees>40.69079493172466754913330078125</LatitudeDegrees>
              <LongitudeDegrees>-5.6233086995780467987060546875</LongitudeDegrees>
            </Position>
            <AltitudeMeters>820</AltitudeMeters>
            <DistanceMeters>NAN</DistanceMeters>
          </Trackpoint>
          <Trackpoint>
            <Time>2019-10-07T10:02:34.000Z</Time>
            <Position>
              <LatitudeDegrees>40.6906838715076446533203125</LatitudeDegrees>
              <LongitudeDegrees>-5.62337114475667476654052734375</LongitudeDegrees>
            </Position>
            <AltitudeMeters>820.20001220703125</AltitudeMeters>
            <DistanceMeters>NAN</DistanceMeters>
          </Trackpoint>
          <Trackpoint>
            <Time>2019-10-07T10:02:43.000Z</Time>
            <Position>
              <LatitudeDegrees>40.69018171168863773345947265625</LatitudeDegrees>
              <LongitudeDegrees>-5.6236000545322895050048828125</LongitudeDegrees>
            </Position>
            <AltitudeMeters>820.79998779296875</AltitudeMeters>
            <DistanceMeters>NAN</DistanceMeters>
          </Trackpoint>
          <Trackpoint>
            <Time>2019-10-07T10:02:45.000Z</Time>
            <Position>
              <LatitudeDegrees>40.6900664605200290679931640625</LatitudeDegrees>
              <LongitudeDegrees>-5.62364204786717891693115234375</LongitudeDegrees>
            </Position>
            <AltitudeMeters>821.20001220703125</AltitudeMeters>
            <DistanceMeters>NAN</DistanceMeters>
          </Trackpoint>
          <Trackpoint>
            <Time>2019-10-07T10:02:52.000Z</Time>
            <Position>
              <LatitudeDegrees>40.6896658055484294891357421875</LatitudeDegrees>
              <LongitudeDegrees>-5.62372930347919464111328125</LongitudeDegrees>
            </Position>
            <AltitudeMeters>821.5999755859375</AltitudeMeters>
            <DistanceMeters>NAN</DistanceMeters>
          </Trackpoint>
          <Trackpoint>
            <Time>2019-10-07T10:02:56.000Z</Time>
            <Position>
              <LatitudeDegrees>40.6894339621067047119140625</LatitudeDegrees>
              <LongitudeDegrees>-5.6237438879907131195068359375</LongitudeDegrees>
            </Position>
            <AltitudeMeters>822.4000244140625</AltitudeMeters>
            <DistanceMeters>NAN</DistanceMeters>
          </Trackpoint>
          <Trackpoint>
            <Time>2019-10-07T10:02:59.000Z</Time>
            <Position>
              <LatitudeDegrees>40.68925785832107067108154296875</LatitudeDegrees>
              <LongitudeDegrees>-5.62373558990657329559326171875</LongitudeDegrees>
            </Position>
            <AltitudeMeters>822.20001220703125</AltitudeMeters>
            <DistanceMeters>NAN</DistanceMeters>
          </Trackpoint>
          <Trackpoint>
            <Time>2019-10-07T10:03:00.000Z</Time>
            <Position>
              <LatitudeDegrees>40.68920052610337734222412109375</LatitudeDegrees>
              <LongitudeDegrees>-5.62372754327952861785888671875</LongitudeDegrees>
            </Position>
            <AltitudeMeters>822.20001220703125</AltitudeMeters>
            <DistanceMeters>NAN</DistanceMeters>
          </Trackpoint>
          <Trackpoint>
            <Time>2019-10-07T10:03:07.000Z</Time>
            <Position>
              <LatitudeDegrees>40.688807331025600433349609375</LatitudeDegrees>
              <LongitudeDegrees>-5.623647160828113555908203125</LongitudeDegrees>
            </Position>
            <AltitudeMeters>822.5999755859375</AltitudeMeters>
            <DistanceMeters>NAN</DistanceMeters>
          </Trackpoint>
          <Trackpoint>
            <Time>2019-10-07T10:03:16.000Z</Time>
            <Position>
              <LatitudeDegrees>40.6883112899959087371826171875</LatitudeDegrees>
              <LongitudeDegrees>-5.62345840036869049072265625</LongitudeDegrees>
            </Position>
            <AltitudeMeters>823</AltitudeMeters>
            <DistanceMeters>NAN</DistanceMeters>
          </Trackpoint>
          <Trackpoint>
            <Time>2019-10-07T10:03:18.000Z</Time>
            <Position>
              <LatitudeDegrees>40.68820349872112274169921875</LatitudeDegrees>
              <LongitudeDegrees>-5.62341104261577129364013671875</LongitudeDegrees>
            </Position>
            <AltitudeMeters>823.4000244140625</AltitudeMeters>
            <DistanceMeters>NAN</DistanceMeters>
          </Trackpoint>
          <Trackpoint>
            <Time>2019-10-07T10:03:27.000Z</Time>
            <Position>
              <LatitudeDegrees>40.68772614933550357818603515625</LatitudeDegrees>
              <LongitudeDegrees>-5.62320535071194171905517578125</LongitudeDegrees>
            </Position>
            <AltitudeMeters>824</AltitudeMeters>
            <DistanceMeters>NAN</DistanceMeters>
          </Trackpoint>
          <Trackpoint>
            <Time>2019-10-07T10:03:34.000Z</Time>
            <Position>
              <LatitudeDegrees>40.68737176246941089630126953125</LatitudeDegrees>
              <LongitudeDegrees>-5.62305070459842681884765625</LongitudeDegrees>
            </Position>
            <AltitudeMeters>824.79998779296875</AltitudeMeters>
            <DistanceMeters>NAN</DistanceMeters>
          </Trackpoint>
          <Trackpoint>
            <Time>2019-10-07T10:03:37.000Z</Time>
            <Position>
              <LatitudeDegrees>40.68721870891749858856201171875</LatitudeDegrees>
              <LongitudeDegrees>-5.62298574484884738922119140625</LongitudeDegrees>
            </Position>
            <AltitudeMeters>824.5999755859375</AltitudeMeters>
            <DistanceMeters>NAN</DistanceMeters>
          </Trackpoint>
          <Trackpoint>
            <Time>2019-10-07T10:03:47.000Z</Time>
            <Position>
              <LatitudeDegrees>40.68668846972286701202392578125</LatitudeDegrees>
              <LongitudeDegrees>-5.62275297939777374267578125</LongitudeDegrees>
            </Position>
            <AltitudeMeters>824.4000244140625</AltitudeMeters>
            <DistanceMeters>NAN</DistanceMeters>
          </Trackpoint>
          <Trackpoint>
            <Time>2019-10-07T10:03:53.000Z</Time>
            <Position>
              <LatitudeDegrees>40.6863418780267238616943359375</LatitudeDegrees>
              <LongitudeDegrees>-5.6226026080548763275146484375</LongitudeDegrees>
            </Position>
            <AltitudeMeters>823.79998779296875</AltitudeMeters>
            <DistanceMeters>NAN</DistanceMeters>
          </Trackpoint>
          <Trackpoint>
            <Time>2019-10-07T10:03:57.000Z</Time>
            <Position>
              <LatitudeDegrees>40.6860999763011932373046875</LatitudeDegrees>
              <LongitudeDegrees>-5.6224943138659000396728515625</LongitudeDegrees>
            </Position>
            <AltitudeMeters>823.5999755859375</AltitudeMeters>
            <DistanceMeters>NAN</DistanceMeters>
          </Trackpoint>
          <Trackpoint>
            <Time>2019-10-07T10:04:02.000Z</Time>
            <Position>
              <LatitudeDegrees>40.68578875623643398284912109375</LatitudeDegrees>
              <LongitudeDegrees>-5.622360371053218841552734375</LongitudeDegrees>
            </Position>
            <AltitudeMeters>823.4000244140625</AltitudeMeters>
            <DistanceMeters>NAN</DistanceMeters>
          </Trackpoint>
          <Trackpoint>
            <Time>2019-10-07T10:04:06.000Z</Time>
            <Position>
              <LatitudeDegrees>40.685537718236446380615234375</LatitudeDegrees>
              <LongitudeDegrees>-5.6222498975694179534912109375</LongitudeDegrees>
            </Position>
            <AltitudeMeters>822.79998779296875</AltitudeMeters>
            <DistanceMeters>NAN</DistanceMeters>
          </Trackpoint>
          <Trackpoint>
            <Time>2019-10-07T10:04:08.000Z</Time>
            <Position>
              <LatitudeDegrees>40.685411989688873291015625</LatitudeDegrees>
              <LongitudeDegrees>-5.62219365499913692474365234375</LongitudeDegrees>
            </Position>
            <AltitudeMeters>822.5999755859375</AltitudeMeters>
            <DistanceMeters>NAN</DistanceMeters>
          </Trackpoint>
          <Trackpoint>
            <Time>2019-10-07T10:04:11.000Z</Time>
            <Position>
              <LatitudeDegrees>40.6852247379720211029052734375</LatitudeDegrees>
              <LongitudeDegrees>-5.62210924923419952392578125</LongitudeDegrees>
            </Position>
            <AltitudeMeters>822.4000244140625</AltitudeMeters>
            <DistanceMeters>NAN</DistanceMeters>
          </Trackpoint>
          <Trackpoint>
            <Time>2019-10-07T10:04:15.000Z</Time>
            <Position>
              <LatitudeDegrees>40.684972107410430908203125</LatitudeDegrees>
              <LongitudeDegrees>-5.6219957582652568817138671875</LongitudeDegrees>
            </Position>
            <AltitudeMeters>822</AltitudeMeters>
            <DistanceMeters>NAN</DistanceMeters>
          </Trackpoint>
          <Trackpoint>
            <Time>2019-10-07T10:04:18.000Z</Time>
            <Position>
              <LatitudeDegrees>40.68478125147521495819091796875</LatitudeDegrees>
              <LongitudeDegrees>-5.6219139508903026580810546875</LongitudeDegrees>
            </Position>
            <AltitudeMeters>821.79998779296875</AltitudeMeters>
            <DistanceMeters>NAN</DistanceMeters>
          </Trackpoint>
          <Trackpoint>
            <Time>2019-10-07T10:04:19.000Z</Time>
            <Position>
              <LatitudeDegrees>40.6847184710204601287841796875</LatitudeDegrees>
              <LongitudeDegrees>-5.62188662588596343994140625</LongitudeDegrees>
            </Position>
            <AltitudeMeters>821.20001220703125</AltitudeMeters>
            <DistanceMeters>NAN</DistanceMeters>
          </Trackpoint>
          <Trackpoint>
            <Time>2019-10-07T10:04:27.000Z</Time>
            <Position>
              <LatitudeDegrees>40.68421161733567714691162109375</LatitudeDegrees>
              <LongitudeDegrees>-5.6216671876609325408935546875</LongitudeDegrees>
            </Position>
            <AltitudeMeters>820.79998779296875</AltitudeMeters>
            <DistanceMeters>NAN</DistanceMeters>
          </Trackpoint>
          <Trackpoint>
            <Time>2019-10-07T10:04:29.000Z</Time>
            <Position>
              <LatitudeDegrees>40.68408630788326263427734375</LatitudeDegrees>
              <LongitudeDegrees>-5.62160960398614406585693359375</LongitudeDegrees>
            </Position>
            <AltitudeMeters>820.79998779296875</AltitudeMeters>
            <DistanceMeters>NAN</DistanceMeters>
          </Trackpoint>
          <Trackpoint>
            <Time>2019-10-07T10:04:31.000Z</Time>
            <Position>
              <LatitudeDegrees>40.68395965732634067535400390625</LatitudeDegrees>
              <LongitudeDegrees>-5.621558390557765960693359375</LongitudeDegrees>
            </Position>
            <AltitudeMeters>820</AltitudeMeters>
            <DistanceMeters>NAN</DistanceMeters>
          </Trackpoint>
          <Trackpoint>
            <Time>2019-10-07T10:04:39.000Z</Time>
            <Position>
              <LatitudeDegrees>40.68345867097377777099609375</LatitudeDegrees>
              <LongitudeDegrees>-5.621337778866291046142578125</LongitudeDegrees>
            </Position>
            <AltitudeMeters>820.20001220703125</AltitudeMeters>
            <DistanceMeters>NAN</DistanceMeters>
          </Trackpoint>
          <Trackpoint>
            <Time>2019-10-07T10:04:40.000Z</Time>
            <Position>
              <LatitudeDegrees>40.6833991594612598419189453125</LatitudeDegrees>
              <LongitudeDegrees>-5.62131187878549098968505859375</LongitudeDegrees>
            </Position>
            <AltitudeMeters>820.5999755859375</AltitudeMeters>
            <DistanceMeters>NAN</DistanceMeters>
          </Trackpoint>
          <Trackpoint>
            <Time>2019-10-07T10:04:44.000Z</Time>
            <Position>
              <LatitudeDegrees>40.683159939944744110107421875</LatitudeDegrees>
              <LongitudeDegrees>-5.6212128885090351104736328125</LongitudeDegrees>
            </Position>
            <AltitudeMeters>820.4000244140625</AltitudeMeters>
            <DistanceMeters>NAN</DistanceMeters>
          </Trackpoint>
          <Trackpoint>
            <Time>2019-10-07T10:04:52.000Z</Time>
            <Position>
              <LatitudeDegrees>40.6826793216168880462646484375</LatitudeDegrees>
              <LongitudeDegrees>-5.62100610695779323577880859375</LongitudeDegrees>
            </Position>
            <AltitudeMeters>820.4000244140625</AltitudeMeters>
            <DistanceMeters>NAN</DistanceMeters>
          </Trackpoint>
          <Trackpoint>
            <Time>2019-10-07T10:05:01.000Z</Time>
            <Position>
              <LatitudeDegrees>40.682146735489368438720703125</LatitudeDegrees>
              <LongitudeDegrees>-5.62076956965029239654541015625</LongitudeDegrees>
            </Position>
            <AltitudeMeters>820.5999755859375</AltitudeMeters>
            <DistanceMeters>NAN</DistanceMeters>
          </Trackpoint>
          <Trackpoint>
            <Time>2019-10-07T10:05:05.000Z</Time>
            <Position>
              <LatitudeDegrees>40.68190793506801128387451171875</LatitudeDegrees>
              <LongitudeDegrees>-5.6206720881164073944091796875</LongitudeDegrees>
            </Position>
            <AltitudeMeters>820.79998779296875</AltitudeMeters>
            <DistanceMeters>NAN</DistanceMeters>
          </Trackpoint>
          <Trackpoint>
            <Time>2019-10-07T10:05:10.000Z</Time>
            <Position>
              <LatitudeDegrees>40.68163451738655567169189453125</LatitudeDegrees>
              <LongitudeDegrees>-5.6205570884048938751220703125</LongitudeDegrees>
            </Position>
            <AltitudeMeters>821.79998779296875</AltitudeMeters>
            <DistanceMeters>NAN</DistanceMeters>
          </Trackpoint>
          <Trackpoint>
            <Time>2019-10-07T10:05:13.000Z</Time>
            <Position>
              <LatitudeDegrees>40.6814911030232906341552734375</LatitudeDegrees>
              <LongitudeDegrees>-5.62049212865531444549560546875</LongitudeDegrees>
            </Position>
            <AltitudeMeters>822.4000244140625</AltitudeMeters>
            <DistanceMeters>NAN</DistanceMeters>
          </Trackpoint>
          <Trackpoint>
            <Time>2019-10-07T10:05:16.000Z</Time>
            <Position>
              <LatitudeDegrees>40.68135120905935764312744140625</LatitudeDegrees>
              <LongitudeDegrees>-5.620431862771511077880859375</LongitudeDegrees>
            </Position>
            <AltitudeMeters>823.20001220703125</AltitudeMeters>
            <DistanceMeters>NAN</DistanceMeters>
          </Trackpoint>
          <Trackpoint>
            <Time>2019-10-07T10:05:20.000Z</Time>
            <Position>
              <LatitudeDegrees>40.6811695732176303863525390625</LatitudeDegrees>
              <LongitudeDegrees>-5.620351731777191162109375</LongitudeDegrees>
            </Position>
            <AltitudeMeters>823.5999755859375</AltitudeMeters>
            <DistanceMeters>NAN</DistanceMeters>
          </Trackpoint>
          <Trackpoint>
            <Time>2019-10-07T10:05:24.000Z</Time>
            <Position>
              <LatitudeDegrees>40.680993385612964630126953125</LatitudeDegrees>
              <LongitudeDegrees>-5.6202724389731884002685546875</LongitudeDegrees>
            </Position>
            <AltitudeMeters>824.4000244140625</AltitudeMeters>
            <DistanceMeters>NAN</DistanceMeters>
          </Trackpoint>
          <Trackpoint>
            <Time>2019-10-07T10:05:28.000Z</Time>
            <Position>
              <LatitudeDegrees>40.68081879056990146636962890625</LatitudeDegrees>
              <LongitudeDegrees>-5.620201528072357177734375</LongitudeDegrees>
            </Position>
            <AltitudeMeters>825.4000244140625</AltitudeMeters>
            <DistanceMeters>NAN</DistanceMeters>
          </Trackpoint>
          <Trackpoint>
            <Time>2019-10-07T10:05:30.000Z</Time>
            <Position>
              <LatitudeDegrees>40.6807328760623931884765625</LatitudeDegrees>
              <LongitudeDegrees>-5.62016959302127361297607421875</LongitudeDegrees>
            </Position>
            <AltitudeMeters>825.5999755859375</AltitudeMeters>
            <DistanceMeters>NAN</DistanceMeters>
          </Trackpoint>
          <Trackpoint>
            <Time>2019-10-07T10:05:35.000Z</Time>
            <Position>
              <LatitudeDegrees>40.6805221550166606903076171875</LatitudeDegrees>
              <LongitudeDegrees>-5.62009231187403202056884765625</LongitudeDegrees>
            </Position>
            <AltitudeMeters>826.4000244140625</AltitudeMeters>
            <DistanceMeters>NAN</DistanceMeters>
          </Trackpoint>
          <Trackpoint>
            <Time>2019-10-07T10:05:39.000Z</Time>
            <Position>
              <LatitudeDegrees>40.6803447939455509185791015625</LatitudeDegrees>
              <LongitudeDegrees>-5.62005744315683841705322265625</LongitudeDegrees>
            </Position>
            <AltitudeMeters>827.20001220703125</AltitudeMeters>
            <DistanceMeters>NAN</DistanceMeters>
          </Trackpoint>
          <Trackpoint>
            <Time>2019-10-07T10:05:42.000Z</Time>
            <Position>
              <LatitudeDegrees>40.680206157267093658447265625</LatitudeDegrees>
              <LongitudeDegrees>-5.62003212980926036834716796875</LongitudeDegrees>
            </Position>
            <AltitudeMeters>827.5999755859375</AltitudeMeters>
            <DistanceMeters>NAN</DistanceMeters>
          </Trackpoint>
          <Trackpoint>
            <Time>2019-10-07T10:05:47.000Z</Time>
            <Position>
              <LatitudeDegrees>40.67998143844306468963623046875</LatitudeDegrees>
              <LongitudeDegrees>-5.62002726830542087554931640625</LongitudeDegrees>
            </Position>
            <AltitudeMeters>828</AltitudeMeters>
            <DistanceMeters>NAN</DistanceMeters>
          </Trackpoint>
          <Trackpoint>
            <Time>2019-10-07T10:05:57.000Z</Time>
            <Position>
              <LatitudeDegrees>40.6794891692698001861572265625</LatitudeDegrees>
              <LongitudeDegrees>-5.62011159025132656097412109375</LongitudeDegrees>
            </Position>
            <AltitudeMeters>828.5999755859375</AltitudeMeters>
            <DistanceMeters>NAN</DistanceMeters>
          </Trackpoint>
          <Trackpoint>
            <Time>2019-10-07T10:05:58.000Z</Time>
            <Position>
              <LatitudeDegrees>40.67948640324175357818603515625</LatitudeDegrees>
              <LongitudeDegrees>-5.62011234462261199951171875</LongitudeDegrees>
            </Position>
            <AltitudeMeters>828.5999755859375</AltitudeMeters>
            <DistanceMeters>NAN</DistanceMeters>
          </Trackpoint>
          <Trackpoint>
            <Time>2019-10-07T10:06:06.000Z</Time>
            <Position>
              <LatitudeDegrees>40.67915230058133602142333984375</LatitudeDegrees>
              <LongitudeDegrees>-5.62022424302995204925537109375</LongitudeDegrees>
            </Position>
            <AltitudeMeters>829</AltitudeMeters>
            <DistanceMeters>NAN</DistanceMeters>
          </Trackpoint>
          <Trackpoint>
            <Time>2019-10-07T10:06:07.000Z</Time>
            <Position>
              <LatitudeDegrees>40.67911407910287380218505859375</LatitudeDegrees>
              <LongitudeDegrees>-5.6202372349798679351806640625</LongitudeDegrees>
            </Position>
            <AltitudeMeters>829</AltitudeMeters>
            <DistanceMeters>NAN</DistanceMeters>
          </Trackpoint>
          <Trackpoint>
            <Time>2019-10-07T10:06:10.000Z</Time>
            <Position>
              <LatitudeDegrees>40.679003186523914337158203125</LatitudeDegrees>
              <LongitudeDegrees>-5.62026766128838062286376953125</LongitudeDegrees>
            </Position>
            <AltitudeMeters>829.79998779296875</AltitudeMeters>
            <DistanceMeters>NAN</DistanceMeters>
          </Trackpoint>
          <Trackpoint>
            <Time>2019-10-07T10:06:12.000Z</Time>
            <Position>
              <LatitudeDegrees>40.6789289228618144989013671875</LatitudeDegrees>
              <LongitudeDegrees>-5.6202757917344570159912109375</LongitudeDegrees>
            </Position>
            <AltitudeMeters>830</AltitudeMeters>
            <DistanceMeters>NAN</DistanceMeters>
          </Trackpoint>
          <Trackpoint>
            <Time>2019-10-07T10:06:13.000Z</Time>
            <Position>
              <LatitudeDegrees>40.67889380268752574920654296875</LatitudeDegrees>
              <LongitudeDegrees>-5.6202788092195987701416015625</LongitudeDegrees>
            </Position>
            <AltitudeMeters>830</AltitudeMeters>
            <DistanceMeters>NAN</DistanceMeters>
          </Trackpoint>
          <Trackpoint>
            <Time>2019-10-07T10:06:17.000Z</Time>
            <Position>
              <LatitudeDegrees>40.67875600419938564300537109375</LatitudeDegrees>
              <LongitudeDegrees>-5.620311163365840911865234375</LongitudeDegrees>
            </Position>
            <AltitudeMeters>830.5999755859375</AltitudeMeters>
            <DistanceMeters>NAN</DistanceMeters>
          </Trackpoint>
          <Trackpoint>
            <Time>2019-10-07T10:06:19.000Z</Time>
            <Position>
              <LatitudeDegrees>40.67867754958570003509521484375</LatitudeDegrees>
              <LongitudeDegrees>-5.620319880545139312744140625</LongitudeDegrees>
            </Position>
            <AltitudeMeters>830.79998779296875</AltitudeMeters>
            <DistanceMeters>NAN</DistanceMeters>
          </Trackpoint>
          <Trackpoint>
            <Time>2019-10-07T10:06:22.000Z</Time>
            <Position>
              <LatitudeDegrees>40.67855148576200008392333984375</LatitudeDegrees>
              <LongitudeDegrees>-5.6203289330005645751953125</LongitudeDegrees>
            </Position>
            <AltitudeMeters>831.4000244140625</AltitudeMeters>
            <DistanceMeters>NAN</DistanceMeters>
          </Trackpoint>
          <Trackpoint>
            <Time>2019-10-07T10:06:24.000Z</Time>
            <Position>
              <LatitudeDegrees>40.6784568540751934051513671875</LatitudeDegrees>
              <LongitudeDegrees>-5.62034661881625652313232421875</LongitudeDegrees>
            </Position>
            <AltitudeMeters>831.79998779296875</AltitudeMeters>
            <DistanceMeters>NAN</DistanceMeters>
          </Trackpoint>
          <Trackpoint>
            <Time>2019-10-07T10:06:29.000Z</Time>
            <Position>
              <LatitudeDegrees>40.67825040780007839202880859375</LatitudeDegrees>
              <LongitudeDegrees>-5.62034745700657367706298828125</LongitudeDegrees>
            </Position>
            <AltitudeMeters>833</AltitudeMeters>
            <DistanceMeters>NAN</DistanceMeters>
          </Trackpoint>
          <Trackpoint>
            <Time>2019-10-07T10:06:31.000Z</Time>
            <Position>
              <LatitudeDegrees>40.67817061208188533782958984375</LatitudeDegrees>
              <LongitudeDegrees>-5.6203396618366241455078125</LongitudeDegrees>
            </Position>
            <AltitudeMeters>833.4000244140625</AltitudeMeters>
            <DistanceMeters>NAN</DistanceMeters>
          </Trackpoint>
          <Trackpoint>
            <Time>2019-10-07T10:06:33.000Z</Time>
            <Position>
              <LatitudeDegrees>40.678090564906597137451171875</LatitudeDegrees>
              <LongitudeDegrees>-5.62033002264797687530517578125</LongitudeDegrees>
            </Position>
            <AltitudeMeters>834.20001220703125</AltitudeMeters>
            <DistanceMeters>NAN</DistanceMeters>
          </Trackpoint>
          <Trackpoint>
            <Time>2019-10-07T10:06:38.000Z</Time>
            <Position>
              <LatitudeDegrees>40.6779197417199611663818359375</LatitudeDegrees>
              <LongitudeDegrees>-5.62030403874814510345458984375</LongitudeDegrees>
            </Position>
            <AltitudeMeters>834.5999755859375</AltitudeMeters>
            <DistanceMeters>NAN</DistanceMeters>
          </Trackpoint>
          <Trackpoint>
            <Time>2019-10-07T10:06:42.000Z</Time>
            <Position>
              <LatitudeDegrees>40.67779158242046833038330078125</LatitudeDegrees>
              <LongitudeDegrees>-5.62027101404964923858642578125</LongitudeDegrees>
            </Position>
            <AltitudeMeters>835.4000244140625</AltitudeMeters>
            <DistanceMeters>NAN</DistanceMeters>
          </Trackpoint>
          <Trackpoint>
            <Time>2019-10-07T10:06:47.000Z</Time>
            <Position>
              <LatitudeDegrees>40.6776283867657184600830078125</LatitudeDegrees>
              <LongitudeDegrees>-5.62023648060858249664306640625</LongitudeDegrees>
            </Position>
            <AltitudeMeters>836.4000244140625</AltitudeMeters>
            <DistanceMeters>NAN</DistanceMeters>
          </Trackpoint>
          <Trackpoint>
            <Time>2019-10-07T10:06:48.000Z</Time>
            <Position>
              <LatitudeDegrees>40.67759645171463489532470703125</LatitudeDegrees>
              <LongitudeDegrees>-5.6202281825244426727294921875</LongitudeDegrees>
            </Position>
            <AltitudeMeters>836.5999755859375</AltitudeMeters>
            <DistanceMeters>NAN</DistanceMeters>
          </Trackpoint>
          <Trackpoint>
            <Time>2019-10-07T10:06:55.000Z</Time>
            <Position>
              <LatitudeDegrees>40.67736511118710041046142578125</LatitudeDegrees>
              <LongitudeDegrees>-5.6201674975454807281494140625</LongitudeDegrees>
            </Position>
            <AltitudeMeters>837.20001220703125</AltitudeMeters>
            <DistanceMeters>NAN</DistanceMeters>
          </Trackpoint>
          <Trackpoint>
            <Time>2019-10-07T10:06:56.000Z</Time>
            <Position>
              <LatitudeDegrees>40.677333511412143707275390625</LatitudeDegrees>
              <LongitudeDegrees>-5.6201564334332942962646484375</LongitudeDegrees>
            </Position>
            <AltitudeMeters>837.5999755859375</AltitudeMeters>
            <DistanceMeters>NAN</DistanceMeters>
          </Trackpoint>
          <Trackpoint>
            <Time>2019-10-07T10:07:01.000Z</Time>
            <Position>
              <LatitudeDegrees>40.6771767698228359222412109375</LatitudeDegrees>
              <LongitudeDegrees>-5.62011301517486572265625</LongitudeDegrees>
            </Position>
            <AltitudeMeters>838.79998779296875</AltitudeMeters>
            <DistanceMeters>NAN</DistanceMeters>
          </Trackpoint>
          <Trackpoint>
            <Time>2019-10-07T10:07:02.000Z</Time>
            <Position>
              <LatitudeDegrees>40.6771467626094818115234375</LatitudeDegrees>
              <LongitudeDegrees>-5.62010454945266246795654296875</LongitudeDegrees>
            </Position>
            <AltitudeMeters>839</AltitudeMeters>
            <DistanceMeters>NAN</DistanceMeters>
          </Trackpoint>
          <Trackpoint>
            <Time>2019-10-07T10:07:05.000Z</Time>
            <Position>
              <LatitudeDegrees>40.6770584173500537872314453125</LatitudeDegrees>
              <LongitudeDegrees>-5.62008040957152843475341796875</LongitudeDegrees>
            </Position>
            <AltitudeMeters>839.79998779296875</AltitudeMeters>
            <DistanceMeters>NAN</DistanceMeters>
          </Trackpoint>
          <Trackpoint>
            <Time>2019-10-07T10:07:11.000Z</Time>
            <Position>
              <LatitudeDegrees>40.6768844090402126312255859375</LatitudeDegrees>
              <LongitudeDegrees>-5.62003129161894321441650390625</LongitudeDegrees>
            </Position>
            <AltitudeMeters>840.4000244140625</AltitudeMeters>
            <DistanceMeters>NAN</DistanceMeters>
          </Trackpoint>
          <Trackpoint>
            <Time>2019-10-07T10:07:13.000Z</Time>
            <Position>
              <LatitudeDegrees>40.6768275797367095947265625</LatitudeDegrees>
              <LongitudeDegrees>-5.620012097060680389404296875</LongitudeDegrees>
            </Position>
            <AltitudeMeters>841</AltitudeMeters>
            <DistanceMeters>NAN</DistanceMeters>
          </Trackpoint>
          <Trackpoint>
            <Time>2019-10-07T10:07:18.000Z</Time>
            <Position>
              <LatitudeDegrees>40.676689110696315765380859375</LatitudeDegrees>
              <LongitudeDegrees>-5.6199723668396472930908203125</LongitudeDegrees>
            </Position>
            <AltitudeMeters>842</AltitudeMeters>
            <DistanceMeters>NAN</DistanceMeters>
          </Trackpoint>
          <Trackpoint>
            <Time>2019-10-07T10:07:21.000Z</Time>
            <Position>
              <LatitudeDegrees>40.67660453729331493377685546875</LatitudeDegrees>
              <LongitudeDegrees>-5.6199507415294647216796875</LongitudeDegrees>
            </Position>
            <AltitudeMeters>842.20001220703125</AltitudeMeters>
            <DistanceMeters>NAN</DistanceMeters>
          </Trackpoint>
          <Trackpoint>
            <Time>2019-10-07T10:07:25.000Z</Time>
            <Position>
              <LatitudeDegrees>40.6764914654195308685302734375</LatitudeDegrees>
              <LongitudeDegrees>-5.61991989612579345703125</LongitudeDegrees>
            </Position>
            <AltitudeMeters>843.20001220703125</AltitudeMeters>
            <DistanceMeters>NAN</DistanceMeters>
          </Trackpoint>
          <Trackpoint>
            <Time>2019-10-07T10:07:29.000Z</Time>
            <Position>
              <LatitudeDegrees>40.676378309726715087890625</LatitudeDegrees>
              <LongitudeDegrees>-5.61988762579858303070068359375</LongitudeDegrees>
            </Position>
            <AltitudeMeters>843.79998779296875</AltitudeMeters>
            <DistanceMeters>NAN</DistanceMeters>
          </Trackpoint>
          <Trackpoint>
            <Time>2019-10-07T10:07:33.000Z</Time>
            <Position>
              <LatitudeDegrees>40.67626188509166240692138671875</LatitudeDegrees>
              <LongitudeDegrees>-5.61985761858522891998291015625</LongitudeDegrees>
            </Position>
            <AltitudeMeters>844.20001220703125</AltitudeMeters>
            <DistanceMeters>NAN</DistanceMeters>
          </Trackpoint>
          <Trackpoint>
            <Time>2019-10-07T10:07:39.000Z</Time>
            <Position>
              <LatitudeDegrees>40.6760872900485992431640625</LatitudeDegrees>
              <LongitudeDegrees>-5.619810931384563446044921875</LongitudeDegrees>
            </Position>
            <AltitudeMeters>845.4000244140625</AltitudeMeters>
            <DistanceMeters>NAN</DistanceMeters>
          </Trackpoint>
          <Trackpoint>
            <Time>2019-10-07T10:07:46.000Z</Time>
            <Position>
              <LatitudeDegrees>40.675887800753116607666015625</LatitudeDegrees>
              <LongitudeDegrees>-5.6197500787675380706787109375</LongitudeDegrees>
            </Position>
            <AltitudeMeters>846.4000244140625</AltitudeMeters>
            <DistanceMeters>NAN</DistanceMeters>
          </Trackpoint>
          <Trackpoint>
            <Time>2019-10-07T10:07:47.000Z</Time>
            <Position>
              <LatitudeDegrees>40.6758604757487773895263671875</LatitudeDegrees>
              <LongitudeDegrees>-5.61974261887371540069580078125</LongitudeDegrees>
            </Position>
            <AltitudeMeters>846.5999755859375</AltitudeMeters>
            <DistanceMeters>NAN</DistanceMeters>
          </Trackpoint>
          <Trackpoint>
            <Time>2019-10-07T10:07:50.000Z</Time>
            <Position>
              <LatitudeDegrees>40.67578017711639404296875</LatitudeDegrees>
              <LongitudeDegrees>-5.61971982009708881378173828125</LongitudeDegrees>
            </Position>
            <AltitudeMeters>847.5999755859375</AltitudeMeters>
            <DistanceMeters>NAN</DistanceMeters>
          </Trackpoint>
          <Trackpoint>
            <Time>2019-10-07T10:07:56.000Z</Time>
            <Position>
              <LatitudeDegrees>40.6756133772432804107666015625</LatitudeDegrees>
              <LongitudeDegrees>-5.61968989670276641845703125</LongitudeDegrees>
            </Position>
            <AltitudeMeters>848.20001220703125</AltitudeMeters>
            <DistanceMeters>NAN</DistanceMeters>
          </Trackpoint>
          <Trackpoint>
            <Time>2019-10-07T10:07:57.000Z</Time>
            <Position>
              <LatitudeDegrees>40.6755852140486240386962890625</LatitudeDegrees>
              <LongitudeDegrees>-5.6196852028369903564453125</LongitudeDegrees>
            </Position>
            <AltitudeMeters>848.5999755859375</AltitudeMeters>
            <DistanceMeters>NAN</DistanceMeters>
          </Trackpoint>
          <Trackpoint>
            <Time>2019-10-07T10:08:02.000Z</Time>
            <Position>
              <LatitudeDegrees>40.67544816993176937103271484375</LatitudeDegrees>
              <LongitudeDegrees>-5.6196583807468414306640625</LongitudeDegrees>
            </Position>
            <AltitudeMeters>849.79998779296875</AltitudeMeters>
            <DistanceMeters>NAN</DistanceMeters>
          </Trackpoint>
          <Trackpoint>
            <Time>2019-10-07T10:08:06.000Z</Time>
            <Position>
              <LatitudeDegrees>40.67533903755247592926025390625</LatitudeDegrees>
              <LongitudeDegrees>-5.6196260266005992889404296875</LongitudeDegrees>
            </Position>
            <AltitudeMeters>850.4000244140625</AltitudeMeters>
            <DistanceMeters>NAN</DistanceMeters>
          </Trackpoint>
          <Trackpoint>
            <Time>2019-10-07T10:08:09.000Z</Time>
            <Position>
              <LatitudeDegrees>40.6752610020339488983154296875</LatitudeDegrees>
              <LongitudeDegrees>-5.61960297636687755584716796875</LongitudeDegrees>
            </Position>
            <AltitudeMeters>850.79998779296875</AltitudeMeters>
            <DistanceMeters>NAN</DistanceMeters>
          </Trackpoint>
          <Trackpoint>
            <Time>2019-10-07T10:08:14.000Z</Time>
            <Position>
              <LatitudeDegrees>40.6751289032399654388427734375</LatitudeDegrees>
              <LongitudeDegrees>-5.61956207267940044403076171875</LongitudeDegrees>
            </Position>
            <AltitudeMeters>852</AltitudeMeters>
            <DistanceMeters>NAN</DistanceMeters>
          </Trackpoint>
          <Trackpoint>
            <Time>2019-10-07T10:08:15.000Z</Time>
            <Position>
              <LatitudeDegrees>40.67510015331208705902099609375</LatitudeDegrees>
              <LongitudeDegrees>-5.61955519951879978179931640625</LongitudeDegrees>
            </Position>
            <AltitudeMeters>852</AltitudeMeters>
            <DistanceMeters>NAN</DistanceMeters>
          </Trackpoint>
          <Trackpoint>
            <Time>2019-10-07T10:08:21.000Z</Time>
            <Position>
              <LatitudeDegrees>40.674936287105083465576171875</LatitudeDegrees>
              <LongitudeDegrees>-5.6195241026580333709716796875</LongitudeDegrees>
            </Position>
            <AltitudeMeters>853.20001220703125</AltitudeMeters>
            <DistanceMeters>NAN</DistanceMeters>
          </Trackpoint>
          <Trackpoint>
            <Time>2019-10-07T10:08:23.000Z</Time>
            <Position>
              <LatitudeDegrees>40.6748821400105953216552734375</LatitudeDegrees>
              <LongitudeDegrees>-5.61950826086103916168212890625</LongitudeDegrees>
            </Position>
            <AltitudeMeters>853.79998779296875</AltitudeMeters>
            <DistanceMeters>NAN</DistanceMeters>
          </Trackpoint>
          <Trackpoint>
            <Time>2019-10-07T10:08:26.000Z</Time>
            <Position>
              <LatitudeDegrees>40.6748043559491634368896484375</LatitudeDegrees>
              <LongitudeDegrees>-5.61947640962898731231689453125</LongitudeDegrees>
            </Position>
            <AltitudeMeters>854.4000244140625</AltitudeMeters>
            <DistanceMeters>NAN</DistanceMeters>
          </Trackpoint>
          <Trackpoint>
            <Time>2019-10-07T10:08:31.000Z</Time>
            <Position>
              <LatitudeDegrees>40.6746732629835605621337890625</LatitudeDegrees>
              <LongitudeDegrees>-5.6194392777979373931884765625</LongitudeDegrees>
            </Position>
            <AltitudeMeters>855.5999755859375</AltitudeMeters>
            <DistanceMeters>NAN</DistanceMeters>
          </Trackpoint>
          <Trackpoint>
            <Time>2019-10-07T10:08:32.000Z</Time>
            <Position>
              <LatitudeDegrees>40.6746464408934116363525390625</LatitudeDegrees>
              <LongitudeDegrees>-5.619434751570224761962890625</LongitudeDegrees>
            </Position>
            <AltitudeMeters>855.5999755859375</AltitudeMeters>
            <DistanceMeters>NAN</DistanceMeters>
          </Trackpoint>
          <Trackpoint>
            <Time>2019-10-07T10:08:36.000Z</Time>
            <Position>
              <LatitudeDegrees>40.67453940398991107940673828125</LatitudeDegrees>
              <LongitudeDegrees>-5.6194037385284900665283203125</LongitudeDegrees>
            </Position>
            <AltitudeMeters>856.5999755859375</AltitudeMeters>
            <DistanceMeters>NAN</DistanceMeters>
          </Trackpoint>
          <Trackpoint>
            <Time>2019-10-07T10:08:41.000Z</Time>
            <Position>
              <LatitudeDegrees>40.67440445534884929656982421875</LatitudeDegrees>
              <LongitudeDegrees>-5.6193648464977741241455078125</LongitudeDegrees>
            </Position>
            <AltitudeMeters>857.5999755859375</AltitudeMeters>
            <DistanceMeters>NAN</DistanceMeters>
          </Trackpoint>
          <Trackpoint>
            <Time>2019-10-07T10:08:47.000Z</Time>
            <Position>
              <LatitudeDegrees>40.67424268461763858795166015625</LatitudeDegrees>
              <LongitudeDegrees>-5.6193226017057895660400390625</LongitudeDegrees>
            </Position>
            <AltitudeMeters>858.79998779296875</AltitudeMeters>
            <DistanceMeters>NAN</DistanceMeters>
          </Trackpoint>
          <Trackpoint>
            <Time>2019-10-07T10:08:50.000Z</Time>
            <Position>
              <LatitudeDegrees>40.6741633079946041107177734375</LatitudeDegrees>
              <LongitudeDegrees>-5.61930491589009761810302734375</LongitudeDegrees>
            </Position>
            <AltitudeMeters>859.20001220703125</AltitudeMeters>
            <DistanceMeters>NAN</DistanceMeters>
          </Trackpoint>
          <Trackpoint>
            <Time>2019-10-07T10:08:53.000Z</Time>
            <Position>
              <LatitudeDegrees>40.67408175207674503326416015625</LatitudeDegrees>
              <LongitudeDegrees>-5.6192828714847564697265625</LongitudeDegrees>
            </Position>
            <AltitudeMeters>859.79998779296875</AltitudeMeters>
            <DistanceMeters>NAN</DistanceMeters>
          </Trackpoint>
          <Trackpoint>
            <Time>2019-10-07T10:08:59.000Z</Time>
            <Position>
              <LatitudeDegrees>40.673919729888439178466796875</LatitudeDegrees>
              <LongitudeDegrees>-5.61923786066472530364990234375</LongitudeDegrees>
            </Position>
            <AltitudeMeters>861</AltitudeMeters>
            <DistanceMeters>NAN</DistanceMeters>
          </Trackpoint>
          <Trackpoint>
            <Time>2019-10-07T10:09:00.000Z</Time>
            <Position>
              <LatitudeDegrees>40.673892237246036529541015625</LatitudeDegrees>
              <LongitudeDegrees>-5.619230233132839202880859375</LongitudeDegrees>
            </Position>
            <AltitudeMeters>861</AltitudeMeters>
            <DistanceMeters>NAN</DistanceMeters>
          </Trackpoint>
          <Trackpoint>
            <Time>2019-10-07T10:09:05.000Z</Time>
            <Position>
              <LatitudeDegrees>40.6737415306270122528076171875</LatitudeDegrees>
              <LongitudeDegrees>-5.61920248903334140777587890625</LongitudeDegrees>
            </Position>
            <AltitudeMeters>862.20001220703125</AltitudeMeters>
            <DistanceMeters>NAN</DistanceMeters>
          </Trackpoint>
          <Trackpoint>
            <Time>2019-10-07T10:09:09.000Z</Time>
            <Position>
              <LatitudeDegrees>40.67361856810748577117919921875</LatitudeDegrees>
              <LongitudeDegrees>-5.61918321065604686737060546875</LongitudeDegrees>
            </Position>
            <AltitudeMeters>862.79998779296875</AltitudeMeters>
            <DistanceMeters>NAN</DistanceMeters>
          </Trackpoint>
          <Trackpoint>
            <Time>2019-10-07T10:09:13.000Z</Time>
            <Position>
              <LatitudeDegrees>40.6734937615692615509033203125</LatitudeDegrees>
              <LongitudeDegrees>-5.61917080543935298919677734375</LongitudeDegrees>
            </Position>
            <AltitudeMeters>863.4000244140625</AltitudeMeters>
            <DistanceMeters>NAN</DistanceMeters>
          </Trackpoint>
          <Trackpoint>
            <Time>2019-10-07T10:09:20.000Z</Time>
            <Position>
              <LatitudeDegrees>40.67326887510716915130615234375</LatitudeDegrees>
              <LongitudeDegrees>-5.6191677041351795196533203125</LongitudeDegrees>
            </Position>
            <AltitudeMeters>864.4000244140625</AltitudeMeters>
            <DistanceMeters>NAN</DistanceMeters>
          </Trackpoint>
          <Trackpoint>
            <Time>2019-10-07T10:09:22.000Z</Time>
            <Position>
              <LatitudeDegrees>40.67320634610950946807861328125</LatitudeDegrees>
              <LongitudeDegrees>-5.619169212877750396728515625</LongitudeDegrees>
            </Position>
            <AltitudeMeters>864.5999755859375</AltitudeMeters>
            <DistanceMeters>NAN</DistanceMeters>
          </Trackpoint>
          <Trackpoint>
            <Time>2019-10-07T10:09:25.000Z</Time>
            <Position>
              <LatitudeDegrees>40.673109032213687896728515625</LatitudeDegrees>
              <LongitudeDegrees>-5.619182623922824859619140625</LongitudeDegrees>
            </Position>
            <AltitudeMeters>864.79998779296875</AltitudeMeters>
            <DistanceMeters>NAN</DistanceMeters>
          </Trackpoint>
          <Trackpoint>
            <Time>2019-10-07T10:09:29.000Z</Time>
            <Position>
              <LatitudeDegrees>40.6729740835726261138916015625</LatitudeDegrees>
              <LongitudeDegrees>-5.61920785345137119293212890625</LongitudeDegrees>
            </Position>
            <AltitudeMeters>865.4000244140625</AltitudeMeters>
            <DistanceMeters>NAN</DistanceMeters>
          </Trackpoint>
          <Trackpoint>
            <Time>2019-10-07T10:09:32.000Z</Time>
            <Position>
              <LatitudeDegrees>40.67287224344909191131591796875</LatitudeDegrees>
              <LongitudeDegrees>-5.6192300654947757720947265625</LongitudeDegrees>
            </Position>
            <AltitudeMeters>865.79998779296875</AltitudeMeters>
            <DistanceMeters>NAN</DistanceMeters>
          </Trackpoint>
          <Trackpoint>
            <Time>2019-10-07T10:09:40.000Z</Time>
            <Position>
              <LatitudeDegrees>40.6725881807506084442138671875</LatitudeDegrees>
              <LongitudeDegrees>-5.61931966803967952728271484375</LongitudeDegrees>
            </Position>
            <AltitudeMeters>866.20001220703125</AltitudeMeters>
            <DistanceMeters>NAN</DistanceMeters>
          </Trackpoint>
          <Trackpoint>
            <Time>2019-10-07T10:09:48.000Z</Time>
            <Position>
              <LatitudeDegrees>40.6722797267138957977294921875</LatitudeDegrees>
              <LongitudeDegrees>-5.61946584843099117279052734375</LongitudeDegrees>
            </Position>
            <AltitudeMeters>866.4000244140625</AltitudeMeters>
            <DistanceMeters>NAN</DistanceMeters>
          </Trackpoint>
          <Trackpoint>
            <Time>2019-10-07T10:09:49.000Z</Time>
            <Position>
              <LatitudeDegrees>40.67223857156932353973388671875</LatitudeDegrees>
              <LongitudeDegrees>-5.61948931775987148284912109375</LongitudeDegrees>
            </Position>
            <AltitudeMeters>866.4000244140625</AltitudeMeters>
            <DistanceMeters>NAN</DistanceMeters>
          </Trackpoint>
          <Trackpoint>
            <Time>2019-10-07T10:09:55.000Z</Time>
            <Position>
              <LatitudeDegrees>40.6719768047332763671875</LatitudeDegrees>
              <LongitudeDegrees>-5.619636587798595428466796875</LongitudeDegrees>
            </Position>
            <AltitudeMeters>866.20001220703125</AltitudeMeters>
            <DistanceMeters>NAN</DistanceMeters>
          </Trackpoint>
          <Trackpoint>
            <Time>2019-10-07T10:09:58.000Z</Time>
            <Position>
              <LatitudeDegrees>40.67183774895966053009033203125</LatitudeDegrees>
              <LongitudeDegrees>-5.619711019098758697509765625</LongitudeDegrees>
            </Position>
            <AltitudeMeters>866.4000244140625</AltitudeMeters>
            <DistanceMeters>NAN</DistanceMeters>
          </Trackpoint>
          <Trackpoint>
            <Time>2019-10-07T10:10:05.000Z</Time>
            <Position>
              <LatitudeDegrees>40.671497024595737457275390625</LatitudeDegrees>
              <LongitudeDegrees>-5.61988494358956813812255859375</LongitudeDegrees>
            </Position>
            <AltitudeMeters>866.20001220703125</AltitudeMeters>
            <DistanceMeters>NAN</DistanceMeters>
          </Trackpoint>
          <Trackpoint>
            <Time>2019-10-07T10:10:08.000Z</Time>
            <Position>
              <LatitudeDegrees>40.671347491443157196044921875</LatitudeDegrees>
              <LongitudeDegrees>-5.61995811760425567626953125</LongitudeDegrees>
            </Position>
            <AltitudeMeters>866.4000244140625</AltitudeMeters>
            <DistanceMeters>NAN</DistanceMeters>
          </Trackpoint>
          <Trackpoint>
            <Time>2019-10-07T10:10:15.000Z</Time>
            <Position>
              <LatitudeDegrees>40.670995451509952545166015625</LatitudeDegrees>
              <LongitudeDegrees>-5.62012969516217708587646484375</LongitudeDegrees>
            </Position>
            <AltitudeMeters>866.4000244140625</AltitudeMeters>
            <DistanceMeters>NAN</DistanceMeters>
          </Trackpoint>
          <Trackpoint>
            <Time>2019-10-07T10:10:18.000Z</Time>
            <Position>
              <LatitudeDegrees>40.67084491252899169921875</LatitudeDegrees>
              <LongitudeDegrees>-5.62020756304264068603515625</LongitudeDegrees>
            </Position>
            <AltitudeMeters>866.4000244140625</AltitudeMeters>
            <DistanceMeters>NAN</DistanceMeters>
          </Trackpoint>
          <Trackpoint>
            <Time>2019-10-07T10:10:22.000Z</Time>
            <Position>
              <LatitudeDegrees>40.67064106464385986328125</LatitudeDegrees>
              <LongitudeDegrees>-5.6203076429665088653564453125</LongitudeDegrees>
            </Position>
            <AltitudeMeters>866.79998779296875</AltitudeMeters>
            <DistanceMeters>NAN</DistanceMeters>
          </Trackpoint>
          <Trackpoint>
            <Time>2019-10-07T10:10:28.000Z</Time>
            <Position>
              <LatitudeDegrees>40.67032967694103717803955078125</LatitudeDegrees>
              <LongitudeDegrees>-5.62046228908002376556396484375</LongitudeDegrees>
            </Position>
            <AltitudeMeters>867</AltitudeMeters>
            <DistanceMeters>NAN</DistanceMeters>
          </Trackpoint>
          <Trackpoint>
            <Time>2019-10-07T10:10:34.000Z</Time>
            <Position>
              <LatitudeDegrees>40.6700201332569122314453125</LatitudeDegrees>
              <LongitudeDegrees>-5.62061601318418979644775390625</LongitudeDegrees>
            </Position>
            <AltitudeMeters>866.79998779296875</AltitudeMeters>
            <DistanceMeters>NAN</DistanceMeters>
          </Trackpoint>
          <Trackpoint>
            <Time>2019-10-07T10:10:43.000Z</Time>
            <Position>
              <LatitudeDegrees>40.669554769992828369140625</LatitudeDegrees>
              <LongitudeDegrees>-5.62084215693175792694091796875</LongitudeDegrees>
            </Position>
            <AltitudeMeters>867.4000244140625</AltitudeMeters>
            <DistanceMeters>NAN</DistanceMeters>
          </Trackpoint>
          <Trackpoint>
            <Time>2019-10-07T10:10:53.000Z</Time>
            <Position>
              <LatitudeDegrees>40.6690345890820026397705078125</LatitudeDegrees>
              <LongitudeDegrees>-5.62109797261655330657958984375</LongitudeDegrees>
            </Position>
            <AltitudeMeters>867.5999755859375</AltitudeMeters>
            <DistanceMeters>NAN</DistanceMeters>
          </Trackpoint>
          <Trackpoint>
            <Time>2019-10-07T10:10:54.000Z</Time>
            <Position>
              <LatitudeDegrees>40.66898186691105365753173828125</LatitudeDegrees>
              <LongitudeDegrees>-5.62112311832606792449951171875</LongitudeDegrees>
            </Position>
            <AltitudeMeters>867.5999755859375</AltitudeMeters>
            <DistanceMeters>NAN</DistanceMeters>
          </Trackpoint>
          <Trackpoint>
            <Time>2019-10-07T10:10:56.000Z</Time>
            <Position>
              <LatitudeDegrees>40.668874494731426239013671875</LatitudeDegrees>
              <LongitudeDegrees>-5.6211746670305728912353515625</LongitudeDegrees>
            </Position>
            <AltitudeMeters>868</AltitudeMeters>
            <DistanceMeters>NAN</DistanceMeters>
          </Trackpoint>
          <Trackpoint>
            <Time>2019-10-07T10:11:06.000Z</Time>
            <Position>
              <LatitudeDegrees>40.66833411343395709991455078125</LatitudeDegrees>
              <LongitudeDegrees>-5.62143844552338123321533203125</LongitudeDegrees>
            </Position>
            <AltitudeMeters>867.79998779296875</AltitudeMeters>
            <DistanceMeters>NAN</DistanceMeters>
          </Trackpoint>
          <Trackpoint>
            <Time>2019-10-07T10:11:14.000Z</Time>
            <Position>
              <LatitudeDegrees>40.6678741984069347381591796875</LatitudeDegrees>
              <LongitudeDegrees>-5.62166132032871246337890625</LongitudeDegrees>
            </Position>
            <AltitudeMeters>868</AltitudeMeters>
            <DistanceMeters>NAN</DistanceMeters>
          </Trackpoint>
          <Trackpoint>
            <Time>2019-10-07T10:11:23.000Z</Time>
            <Position>
              <LatitudeDegrees>40.66734664142131805419921875</LatitudeDegrees>
              <LongitudeDegrees>-5.62189735472202301025390625</LongitudeDegrees>
            </Position>
            <AltitudeMeters>868.20001220703125</AltitudeMeters>
            <DistanceMeters>NAN</DistanceMeters>
          </Trackpoint>
          <Trackpoint>
            <Time>2019-10-07T10:11:32.000Z</Time>
            <Position>
              <LatitudeDegrees>40.666819922626018524169921875</LatitudeDegrees>
              <LongitudeDegrees>-5.62212592922151088714599609375</LongitudeDegrees>
            </Position>
            <AltitudeMeters>868.5999755859375</AltitudeMeters>
            <DistanceMeters>NAN</DistanceMeters>
          </Trackpoint>
          <Trackpoint>
            <Time>2019-10-07T10:11:35.000Z</Time>
            <Position>
              <LatitudeDegrees>40.66664851270616054534912109375</LatitudeDegrees>
              <LongitudeDegrees>-5.62220287509262561798095703125</LongitudeDegrees>
            </Position>
            <AltitudeMeters>869</AltitudeMeters>
            <DistanceMeters>NAN</DistanceMeters>
          </Trackpoint>
          <Trackpoint>
            <Time>2019-10-07T10:11:41.000Z</Time>
            <Position>
              <LatitudeDegrees>40.666322372853755950927734375</LatitudeDegrees>
              <LongitudeDegrees>-5.6223591975867748260498046875</LongitudeDegrees>
            </Position>
            <AltitudeMeters>869.4000244140625</AltitudeMeters>
            <DistanceMeters>NAN</DistanceMeters>
          </Trackpoint>
          <Trackpoint>
            <Time>2019-10-07T10:11:44.000Z</Time>
            <Position>
              <LatitudeDegrees>40.6661639548838138580322265625</LatitudeDegrees>
              <LongitudeDegrees>-5.62243044376373291015625</LongitudeDegrees>
            </Position>
            <AltitudeMeters>870</AltitudeMeters>
            <DistanceMeters>NAN</DistanceMeters>
          </Trackpoint>
          <Trackpoint>
            <Time>2019-10-07T10:11:51.000Z</Time>
            <Position>
              <LatitudeDegrees>40.6658042035996913909912109375</LatitudeDegrees>
              <LongitudeDegrees>-5.62261073850095272064208984375</LongitudeDegrees>
            </Position>
            <AltitudeMeters>870.79998779296875</AltitudeMeters>
            <DistanceMeters>NAN</DistanceMeters>
          </Trackpoint>
          <Trackpoint>
            <Time>2019-10-07T10:12:01.000Z</Time>
            <Position>
              <LatitudeDegrees>40.665291734039783477783203125</LatitudeDegrees>
              <LongitudeDegrees>-5.62285398133099079132080078125</LongitudeDegrees>
            </Position>
            <AltitudeMeters>870.79998779296875</AltitudeMeters>
            <DistanceMeters>NAN</DistanceMeters>
          </Trackpoint>
          <Trackpoint>
            <Time>2019-10-07T10:12:03.000Z</Time>
            <Position>
              <LatitudeDegrees>40.66519056446850299835205078125</LatitudeDegrees>
              <LongitudeDegrees>-5.62290494330227375030517578125</LongitudeDegrees>
            </Position>
            <AltitudeMeters>870.5999755859375</AltitudeMeters>
            <DistanceMeters>NAN</DistanceMeters>
          </Trackpoint>
          <Trackpoint>
            <Time>2019-10-07T10:12:05.000Z</Time>
            <Position>
              <LatitudeDegrees>40.665088556706905364990234375</LatitudeDegrees>
              <LongitudeDegrees>-5.6229548156261444091796875</LongitudeDegrees>
            </Position>
            <AltitudeMeters>871.20001220703125</AltitudeMeters>
            <DistanceMeters>NAN</DistanceMeters>
          </Trackpoint>
          <Trackpoint>
            <Time>2019-10-07T10:12:13.000Z</Time>
            <Position>
              <LatitudeDegrees>40.6646877340972423553466796875</LatitudeDegrees>
              <LongitudeDegrees>-5.62314617447555065155029296875</LongitudeDegrees>
            </Position>
            <AltitudeMeters>871.4000244140625</AltitudeMeters>
            <DistanceMeters>NAN</DistanceMeters>
          </Trackpoint>
          <Trackpoint>
            <Time>2019-10-07T10:12:23.000Z</Time>
            <Position>
              <LatitudeDegrees>40.66417970694601535797119140625</LatitudeDegrees>
              <LongitudeDegrees>-5.62340031377971172332763671875</LongitudeDegrees>
            </Position>
            <AltitudeMeters>872</AltitudeMeters>
            <DistanceMeters>NAN</DistanceMeters>
          </Trackpoint>
          <Trackpoint>
            <Time>2019-10-07T10:12:24.000Z</Time>
            <Position>
              <LatitudeDegrees>40.6641294993460178375244140625</LatitudeDegrees>
              <LongitudeDegrees>-5.62342621386051177978515625</LongitudeDegrees>
            </Position>
            <AltitudeMeters>872.4000244140625</AltitudeMeters>
            <DistanceMeters>NAN</DistanceMeters>
          </Trackpoint>
          <Trackpoint>
            <Time>2019-10-07T10:12:25.000Z</Time>
            <Position>
              <LatitudeDegrees>40.66407811827957630157470703125</LatitudeDegrees>
              <LongitudeDegrees>-5.6234508566558361053466796875</LongitudeDegrees>
            </Position>
            <AltitudeMeters>872.5999755859375</AltitudeMeters>
            <DistanceMeters>NAN</DistanceMeters>
          </Trackpoint>
          <Trackpoint>
            <Time>2019-10-07T10:12:35.000Z</Time>
            <Position>
              <LatitudeDegrees>40.6635682471096515655517578125</LatitudeDegrees>
              <LongitudeDegrees>-5.623699463903903961181640625</LongitudeDegrees>
            </Position>
            <AltitudeMeters>872.5999755859375</AltitudeMeters>
            <DistanceMeters>NAN</DistanceMeters>
          </Trackpoint>
          <Trackpoint>
            <Time>2019-10-07T10:12:37.000Z</Time>
            <Position>
              <LatitudeDegrees>40.66346414387226104736328125</LatitudeDegrees>
              <LongitudeDegrees>-5.62374983914196491241455078125</LongitudeDegrees>
            </Position>
            <AltitudeMeters>872.79998779296875</AltitudeMeters>
            <DistanceMeters>NAN</DistanceMeters>
          </Trackpoint>
          <Trackpoint>
            <Time>2019-10-07T10:12:47.000Z</Time>
            <Position>
              <LatitudeDegrees>40.66292594186961650848388671875</LatitudeDegrees>
              <LongitudeDegrees>-5.6240134499967098236083984375</LongitudeDegrees>
            </Position>
            <AltitudeMeters>873.4000244140625</AltitudeMeters>
            <DistanceMeters>NAN</DistanceMeters>
          </Trackpoint>
          <Trackpoint>
            <Time>2019-10-07T10:12:51.000Z</Time>
            <Position>
              <LatitudeDegrees>40.6627111136913299560546875</LatitudeDegrees>
              <LongitudeDegrees>-5.6241163797676563262939453125</LongitudeDegrees>
            </Position>
            <AltitudeMeters>873.4000244140625</AltitudeMeters>
            <DistanceMeters>NAN</DistanceMeters>
          </Trackpoint>
          <Trackpoint>
            <Time>2019-10-07T10:12:59.000Z</Time>
            <Position>
              <LatitudeDegrees>40.66228556446731090545654296875</LatitudeDegrees>
              <LongitudeDegrees>-5.624325089156627655029296875</LongitudeDegrees>
            </Position>
            <AltitudeMeters>873.79998779296875</AltitudeMeters>
            <DistanceMeters>NAN</DistanceMeters>
          </Trackpoint>
          <Trackpoint>
            <Time>2019-10-07T10:13:08.000Z</Time>
            <Position>
              <LatitudeDegrees>40.66179103218019008636474609375</LatitudeDegrees>
              <LongitudeDegrees>-5.62456212937831878662109375</LongitudeDegrees>
            </Position>
            <AltitudeMeters>873.5999755859375</AltitudeMeters>
            <DistanceMeters>NAN</DistanceMeters>
          </Trackpoint>
          <Trackpoint>
            <Time>2019-10-07T10:13:09.000Z</Time>
            <Position>
              <LatitudeDegrees>40.6617362983524799346923828125</LatitudeDegrees>
              <LongitudeDegrees>-5.6245891191065311431884765625</LongitudeDegrees>
            </Position>
            <AltitudeMeters>873.79998779296875</AltitudeMeters>
            <DistanceMeters>NAN</DistanceMeters>
          </Trackpoint>
          <Trackpoint>
            <Time>2019-10-07T10:13:16.000Z</Time>
            <Position>
              <LatitudeDegrees>40.66135768778622150421142578125</LatitudeDegrees>
              <LongitudeDegrees>-5.6247725151479244232177734375</LongitudeDegrees>
            </Position>
            <AltitudeMeters>874</AltitudeMeters>
            <DistanceMeters>NAN</DistanceMeters>
          </Trackpoint>
          <Trackpoint>
            <Time>2019-10-07T10:13:20.000Z</Time>
            <Position>
              <LatitudeDegrees>40.6611395068466663360595703125</LatitudeDegrees>
              <LongitudeDegrees>-5.624879300594329833984375</LongitudeDegrees>
            </Position>
            <AltitudeMeters>873.79998779296875</AltitudeMeters>
            <DistanceMeters>NAN</DistanceMeters>
          </Trackpoint>
          <Trackpoint>
            <Time>2019-10-07T10:13:30.000Z</Time>
            <Position>
              <LatitudeDegrees>40.66059292294085025787353515625</LatitudeDegrees>
              <LongitudeDegrees>-5.625145174562931060791015625</LongitudeDegrees>
            </Position>
            <AltitudeMeters>874.20001220703125</AltitudeMeters>
            <DistanceMeters>NAN</DistanceMeters>
          </Trackpoint>
          <Trackpoint>
            <Time>2019-10-07T10:13:32.000Z</Time>
            <Position>
              <LatitudeDegrees>40.6604850478470325469970703125</LatitudeDegrees>
              <LongitudeDegrees>-5.62519823201000690460205078125</LongitudeDegrees>
            </Position>
            <AltitudeMeters>874.4000244140625</AltitudeMeters>
            <DistanceMeters>NAN</DistanceMeters>
          </Trackpoint>
          <Trackpoint>
            <Time>2019-10-07T10:13:33.000Z</Time>
            <Position>
              <LatitudeDegrees>40.6604317389428615570068359375</LatitudeDegrees>
              <LongitudeDegrees>-5.62522371299564838409423828125</LongitudeDegrees>
            </Position>
            <AltitudeMeters>874.4000244140625</AltitudeMeters>
            <DistanceMeters>NAN</DistanceMeters>
          </Trackpoint>
          <Trackpoint>
            <Time>2019-10-07T10:13:42.000Z</Time>
            <Position>
              <LatitudeDegrees>40.65995656885206699371337890625</LatitudeDegrees>
              <LongitudeDegrees>-5.62546075321733951568603515625</LongitudeDegrees>
            </Position>
            <AltitudeMeters>875.20001220703125</AltitudeMeters>
            <DistanceMeters>NAN</DistanceMeters>
          </Trackpoint>
          <Trackpoint>
            <Time>2019-10-07T10:13:48.000Z</Time>
            <Position>
              <LatitudeDegrees>40.65963336266577243804931640625</LatitudeDegrees>
              <LongitudeDegrees>-5.625615231692790985107421875</LongitudeDegrees>
            </Position>
            <AltitudeMeters>875.5999755859375</AltitudeMeters>
            <DistanceMeters>NAN</DistanceMeters>
          </Trackpoint>
          <Trackpoint>
            <Time>2019-10-07T10:13:53.000Z</Time>
            <Position>
              <LatitudeDegrees>40.65937167964875698089599609375</LatitudeDegrees>
              <LongitudeDegrees>-5.6257424689829349517822265625</LongitudeDegrees>
            </Position>
            <AltitudeMeters>875.79998779296875</AltitudeMeters>
            <DistanceMeters>NAN</DistanceMeters>
          </Trackpoint>
          <Trackpoint>
            <Time>2019-10-07T10:14:03.000Z</Time>
            <Position>
              <LatitudeDegrees>40.6588371656835079193115234375</LatitudeDegrees>
              <LongitudeDegrees>-5.6259989552199840545654296875</LongitudeDegrees>
            </Position>
            <AltitudeMeters>876.4000244140625</AltitudeMeters>
            <DistanceMeters>NAN</DistanceMeters>
          </Trackpoint>
          <Trackpoint>
            <Time>2019-10-07T10:14:05.000Z</Time>
            <Position>
              <LatitudeDegrees>40.65873272716999053955078125</LatitudeDegrees>
              <LongitudeDegrees>-5.62604949809610843658447265625</LongitudeDegrees>
            </Position>
            <AltitudeMeters>876.5999755859375</AltitudeMeters>
            <DistanceMeters>NAN</DistanceMeters>
          </Trackpoint>
          <Trackpoint>
            <Time>2019-10-07T10:14:14.000Z</Time>
            <Position>
              <LatitudeDegrees>40.6582635082304477691650390625</LatitudeDegrees>
              <LongitudeDegrees>-5.6262825988233089447021484375</LongitudeDegrees>
            </Position>
            <AltitudeMeters>877.4000244140625</AltitudeMeters>
            <DistanceMeters>NAN</DistanceMeters>
          </Trackpoint>
          <Trackpoint>
            <Time>2019-10-07T10:14:15.000Z</Time>
            <Position>
              <LatitudeDegrees>40.658211372792720794677734375</LatitudeDegrees>
              <LongitudeDegrees>-5.626305900514125823974609375</LongitudeDegrees>
            </Position>
            <AltitudeMeters>877.79998779296875</AltitudeMeters>
            <DistanceMeters>NAN</DistanceMeters>
          </Trackpoint>
          <Trackpoint>
            <Time>2019-10-07T10:14:17.000Z</Time>
            <Position>
              <LatitudeDegrees>40.65811070613563060760498046875</LatitudeDegrees>
              <LongitudeDegrees>-5.6263560242950916290283203125</LongitudeDegrees>
            </Position>
            <AltitudeMeters>878</AltitudeMeters>
            <DistanceMeters>NAN</DistanceMeters>
          </Trackpoint>
          <Trackpoint>
            <Time>2019-10-07T10:14:21.000Z</Time>
            <Position>
              <LatitudeDegrees>40.6579111330211162567138671875</LatitudeDegrees>
              <LongitudeDegrees>-5.6264472194015979766845703125</LongitudeDegrees>
            </Position>
            <AltitudeMeters>879</AltitudeMeters>
            <DistanceMeters>NAN</DistanceMeters>
          </Trackpoint>
          <Trackpoint>
            <Time>2019-10-07T10:14:27.000Z</Time>
            <Position>
              <LatitudeDegrees>40.657623969018459320068359375</LatitudeDegrees>
              <LongitudeDegrees>-5.62658409588038921356201171875</LongitudeDegrees>
            </Position>
            <AltitudeMeters>879.79998779296875</AltitudeMeters>
            <DistanceMeters>NAN</DistanceMeters>
          </Trackpoint>
          <Trackpoint>
            <Time>2019-10-07T10:14:28.000Z</Time>
            <Position>
              <LatitudeDegrees>40.6575768627226352691650390625</LatitudeDegrees>
              <LongitudeDegrees>-5.62660823576152324676513671875</LongitudeDegrees>
            </Position>
            <AltitudeMeters>880</AltitudeMeters>
            <DistanceMeters>NAN</DistanceMeters>
          </Trackpoint>
          <Trackpoint>
            <Time>2019-10-07T10:14:35.000Z</Time>
            <Position>
              <LatitudeDegrees>40.65725457854568958282470703125</LatitudeDegrees>
              <LongitudeDegrees>-5.62678970396518707275390625</LongitudeDegrees>
            </Position>
            <AltitudeMeters>881</AltitudeMeters>
            <DistanceMeters>NAN</DistanceMeters>
          </Trackpoint>
          <Trackpoint>
            <Time>2019-10-07T10:14:36.000Z</Time>
            <Position>
              <LatitudeDegrees>40.65720613114535808563232421875</LatitudeDegrees>
              <LongitudeDegrees>-5.62681786715984344482421875</LongitudeDegrees>
            </Position>
            <AltitudeMeters>881</AltitudeMeters>
            <DistanceMeters>NAN</DistanceMeters>
          </Trackpoint>
          <Trackpoint>
            <Time>2019-10-07T10:14:41.000Z</Time>
            <Position>
              <LatitudeDegrees>40.656988285481929779052734375</LatitudeDegrees>
              <LongitudeDegrees>-5.62696647830307483673095703125</LongitudeDegrees>
            </Position>
            <AltitudeMeters>881.79998779296875</AltitudeMeters>
            <DistanceMeters>NAN</DistanceMeters>
          </Trackpoint>
          <Trackpoint>
            <Time>2019-10-07T10:14:46.000Z</Time>
            <Position>
              <LatitudeDegrees>40.6567876227200031280517578125</LatitudeDegrees>
              <LongitudeDegrees>-5.62713545747101306915283203125</LongitudeDegrees>
            </Position>
            <AltitudeMeters>882</AltitudeMeters>
            <DistanceMeters>NAN</DistanceMeters>
          </Trackpoint>
          <Trackpoint>
            <Time>2019-10-07T10:14:51.000Z</Time>
            <Position>
              <LatitudeDegrees>40.65660062246024608612060546875</LatitudeDegrees>
              <LongitudeDegrees>-5.62731382437050342559814453125</LongitudeDegrees>
            </Position>
            <AltitudeMeters>882.79998779296875</AltitudeMeters>
            <DistanceMeters>NAN</DistanceMeters>
          </Trackpoint>
          <Trackpoint>
            <Time>2019-10-07T10:14:53.000Z</Time>
            <Position>
              <LatitudeDegrees>40.6565267778933048248291015625</LatitudeDegrees>
              <LongitudeDegrees>-5.62738557346165180206298828125</LongitudeDegrees>
            </Position>
            <AltitudeMeters>883.20001220703125</AltitudeMeters>
            <DistanceMeters>NAN</DistanceMeters>
          </Trackpoint>
          <Trackpoint>
            <Time>2019-10-07T10:15:00.000Z</Time>
            <Position>
              <LatitudeDegrees>40.65628278069198131561279296875</LatitudeDegrees>
              <LongitudeDegrees>-5.6276568956673145294189453125</LongitudeDegrees>
            </Position>
            <AltitudeMeters>883.79998779296875</AltitudeMeters>
            <DistanceMeters>NAN</DistanceMeters>
          </Trackpoint>
          <Trackpoint>
            <Time>2019-10-07T10:15:02.000Z</Time>
            <Position>
              <LatitudeDegrees>40.656216479837894439697265625</LatitudeDegrees>
              <LongitudeDegrees>-5.62773996032774448394775390625</LongitudeDegrees>
            </Position>
            <AltitudeMeters>884.4000244140625</AltitudeMeters>
            <DistanceMeters>NAN</DistanceMeters>
          </Trackpoint>
          <Trackpoint>
            <Time>2019-10-07T10:15:06.000Z</Time>
            <Position>
              <LatitudeDegrees>40.6560788489878177642822265625</LatitudeDegrees>
              <LongitudeDegrees>-5.6278999708592891693115234375</LongitudeDegrees>
            </Position>
            <AltitudeMeters>884.4000244140625</AltitudeMeters>
            <DistanceMeters>NAN</DistanceMeters>
          </Trackpoint>
          <Trackpoint>
            <Time>2019-10-07T10:15:10.000Z</Time>
            <Position>
              <LatitudeDegrees>40.6559437327086925506591796875</LatitudeDegrees>
              <LongitudeDegrees>-5.628049336373805999755859375</LongitudeDegrees>
            </Position>
            <AltitudeMeters>885</AltitudeMeters>
            <DistanceMeters>NAN</DistanceMeters>
          </Trackpoint>
          <Trackpoint>
            <Time>2019-10-07T10:15:13.000Z</Time>
            <Position>
              <LatitudeDegrees>40.65584172494709491729736328125</LatitudeDegrees>
              <LongitudeDegrees>-5.62816307879984378814697265625</LongitudeDegrees>
            </Position>
            <AltitudeMeters>885.5999755859375</AltitudeMeters>
            <DistanceMeters>NAN</DistanceMeters>
          </Trackpoint>
          <Trackpoint>
            <Time>2019-10-07T10:15:19.000Z</Time>
            <Position>
              <LatitudeDegrees>40.6556247174739837646484375</LatitudeDegrees>
              <LongitudeDegrees>-5.62837086617946624755859375</LongitudeDegrees>
            </Position>
            <AltitudeMeters>886.20001220703125</AltitudeMeters>
            <DistanceMeters>NAN</DistanceMeters>
          </Trackpoint>
          <Trackpoint>
            <Time>2019-10-07T10:15:24.000Z</Time>
            <Position>
              <LatitudeDegrees>40.65542363561689853668212890625</LatitudeDegrees>
              <LongitudeDegrees>-5.62852014787495136260986328125</LongitudeDegrees>
            </Position>
            <AltitudeMeters>886.5999755859375</AltitudeMeters>
            <DistanceMeters>NAN</DistanceMeters>
          </Trackpoint>
          <Trackpoint>
            <Time>2019-10-07T10:15:28.000Z</Time>
            <Position>
              <LatitudeDegrees>40.65525163896381855010986328125</LatitudeDegrees>
              <LongitudeDegrees>-5.6286218203604221343994140625</LongitudeDegrees>
            </Position>
            <AltitudeMeters>887</AltitudeMeters>
            <DistanceMeters>NAN</DistanceMeters>
          </Trackpoint>
          <Trackpoint>
            <Time>2019-10-07T10:15:33.000Z</Time>
            <Position>
              <LatitudeDegrees>40.65503303892910480499267578125</LatitudeDegrees>
              <LongitudeDegrees>-5.62871460802853107452392578125</LongitudeDegrees>
            </Position>
            <AltitudeMeters>887.4000244140625</AltitudeMeters>
            <DistanceMeters>NAN</DistanceMeters>
          </Trackpoint>
          <Trackpoint>
            <Time>2019-10-07T10:15:34.000Z</Time>
            <Position>
              <LatitudeDegrees>40.65498811192810535430908203125</LatitudeDegrees>
              <LongitudeDegrees>-5.62872902490198612213134765625</LongitudeDegrees>
            </Position>
            <AltitudeMeters>887.5999755859375</AltitudeMeters>
            <DistanceMeters>NAN</DistanceMeters>
          </Trackpoint>
          <Trackpoint>
            <Time>2019-10-07T10:15:37.000Z</Time>
            <Position>
              <LatitudeDegrees>40.6548514030873775482177734375</LatitudeDegrees>
              <LongitudeDegrees>-5.6287698447704315185546875</LongitudeDegrees>
            </Position>
            <AltitudeMeters>887.79998779296875</AltitudeMeters>
            <DistanceMeters>NAN</DistanceMeters>
          </Trackpoint>
          <Trackpoint>
            <Time>2019-10-07T10:15:41.000Z</Time>
            <Position>
              <LatitudeDegrees>40.65466540865600109100341796875</LatitudeDegrees>
              <LongitudeDegrees>-5.628809742629528045654296875</LongitudeDegrees>
            </Position>
            <AltitudeMeters>888.5999755859375</AltitudeMeters>
            <DistanceMeters>NAN</DistanceMeters>
          </Trackpoint>
          <Trackpoint>
            <Time>2019-10-07T10:15:46.000Z</Time>
            <Position>
              <LatitudeDegrees>40.6544366665184497833251953125</LatitudeDegrees>
              <LongitudeDegrees>-5.62883078120648860931396484375</LongitudeDegrees>
            </Position>
            <AltitudeMeters>889</AltitudeMeters>
            <DistanceMeters>NAN</DistanceMeters>
          </Trackpoint>
          <Trackpoint>
            <Time>2019-10-07T10:15:52.000Z</Time>
            <Position>
              <LatitudeDegrees>40.65416685305535793304443359375</LatitudeDegrees>
              <LongitudeDegrees>-5.62882105819880962371826171875</LongitudeDegrees>
            </Position>
            <AltitudeMeters>889.79998779296875</AltitudeMeters>
            <DistanceMeters>NAN</DistanceMeters>
          </Trackpoint>
          <Trackpoint>
            <Time>2019-10-07T10:15:56.000Z</Time>
            <Position>
              <LatitudeDegrees>40.653988905251026153564453125</LatitudeDegrees>
              <LongitudeDegrees>-5.62879306264221668243408203125</LongitudeDegrees>
            </Position>
            <AltitudeMeters>890.4000244140625</AltitudeMeters>
            <DistanceMeters>NAN</DistanceMeters>
          </Trackpoint>
          <Trackpoint>
            <Time>2019-10-07T10:15:58.000Z</Time>
            <Position>
              <LatitudeDegrees>40.653902404010295867919921875</LatitudeDegrees>
              <LongitudeDegrees>-5.62876649200916290283203125</LongitudeDegrees>
            </Position>
            <AltitudeMeters>891</AltitudeMeters>
            <DistanceMeters>NAN</DistanceMeters>
          </Trackpoint>
          <Trackpoint>
            <Time>2019-10-07T10:16:04.000Z</Time>
            <Position>
              <LatitudeDegrees>40.65364231355488300323486328125</LatitudeDegrees>
              <LongitudeDegrees>-5.62867387197911739349365234375</LongitudeDegrees>
            </Position>
            <AltitudeMeters>892.20001220703125</AltitudeMeters>
            <DistanceMeters>NAN</DistanceMeters>
          </Trackpoint>
          <Trackpoint>
            <Time>2019-10-07T10:16:05.000Z</Time>
            <Position>
              <LatitudeDegrees>40.6536001525819301605224609375</LatitudeDegrees>
              <LongitudeDegrees>-5.628656856715679168701171875</LongitudeDegrees>
            </Position>
            <AltitudeMeters>892.20001220703125</AltitudeMeters>
            <DistanceMeters>NAN</DistanceMeters>
          </Trackpoint>
          <Trackpoint>
            <Time>2019-10-07T10:16:14.000Z</Time>
            <Position>
              <LatitudeDegrees>40.65321383066475391387939453125</LatitudeDegrees>
              <LongitudeDegrees>-5.6285118497908115386962890625</LongitudeDegrees>
            </Position>
            <AltitudeMeters>893.20001220703125</AltitudeMeters>
            <DistanceMeters>NAN</DistanceMeters>
          </Trackpoint>
          <Trackpoint>
            <Time>2019-10-07T10:16:15.000Z</Time>
            <Position>
              <LatitudeDegrees>40.65317058004438877105712890625</LatitudeDegrees>
              <LongitudeDegrees>-5.62849718146026134490966796875</LongitudeDegrees>
            </Position>
            <AltitudeMeters>893.4000244140625</AltitudeMeters>
            <DistanceMeters>NAN</DistanceMeters>
          </Trackpoint>
          <Trackpoint>
            <Time>2019-10-07T10:16:23.000Z</Time>
            <Position>
              <LatitudeDegrees>40.65282759256660938262939453125</LatitudeDegrees>
              <LongitudeDegrees>-5.62836390919983386993408203125</LongitudeDegrees>
            </Position>
            <AltitudeMeters>894.20001220703125</AltitudeMeters>
            <DistanceMeters>NAN</DistanceMeters>
          </Trackpoint>
          <Trackpoint>
            <Time>2019-10-07T10:16:25.000Z</Time>
            <Position>
              <LatitudeDegrees>40.6527384929358959197998046875</LatitudeDegrees>
              <LongitudeDegrees>-5.62833423726260662078857421875</LongitudeDegrees>
            </Position>
            <AltitudeMeters>893.5999755859375</AltitudeMeters>
            <DistanceMeters>NAN</DistanceMeters>
          </Trackpoint>
          <Trackpoint>
            <Time>2019-10-07T10:16:34.000Z</Time>
            <Position>
              <LatitudeDegrees>40.65230791456997394561767578125</LatitudeDegrees>
              <LongitudeDegrees>-5.628168694674968719482421875</LongitudeDegrees>
            </Position>
            <AltitudeMeters>893.79998779296875</AltitudeMeters>
            <DistanceMeters>NAN</DistanceMeters>
          </Trackpoint>
          <Trackpoint>
            <Time>2019-10-07T10:16:41.000Z</Time>
            <Position>
              <LatitudeDegrees>40.651915557682514190673828125</LatitudeDegrees>
              <LongitudeDegrees>-5.6280250288546085357666015625</LongitudeDegrees>
            </Position>
            <AltitudeMeters>893.20001220703125</AltitudeMeters>
            <DistanceMeters>NAN</DistanceMeters>
          </Trackpoint>
          <Trackpoint>
            <Time>2019-10-07T10:16:42.000Z</Time>
            <Position>
              <LatitudeDegrees>40.65185361541807651519775390625</LatitudeDegrees>
              <LongitudeDegrees>-5.62800616957247257232666015625</LongitudeDegrees>
            </Position>
            <AltitudeMeters>893</AltitudeMeters>
            <DistanceMeters>NAN</DistanceMeters>
          </Trackpoint>
          <Trackpoint>
            <Time>2019-10-07T10:16:48.000Z</Time>
            <Position>
              <LatitudeDegrees>40.6514617614448070526123046875</LatitudeDegrees>
              <LongitudeDegrees>-5.62794012017548084259033203125</LongitudeDegrees>
            </Position>
            <AltitudeMeters>892.4000244140625</AltitudeMeters>
            <DistanceMeters>NAN</DistanceMeters>
          </Trackpoint>
          <Trackpoint>
            <Time>2019-10-07T10:16:50.000Z</Time>
            <Position>
              <LatitudeDegrees>40.65133108757436275482177734375</LatitudeDegrees>
              <LongitudeDegrees>-5.62793944962322711944580078125</LongitudeDegrees>
            </Position>
            <AltitudeMeters>892.4000244140625</AltitudeMeters>
            <DistanceMeters>NAN</DistanceMeters>
          </Trackpoint>
          <Trackpoint>
            <Time>2019-10-07T10:16:58.000Z</Time>
            <Position>
              <LatitudeDegrees>40.6508415006101131439208984375</LatitudeDegrees>
              <LongitudeDegrees>-5.62800608575344085693359375</LongitudeDegrees>
            </Position>
            <AltitudeMeters>893.5999755859375</AltitudeMeters>
            <DistanceMeters>NAN</DistanceMeters>
          </Trackpoint>
          <Trackpoint>
            <Time>2019-10-07T10:17:01.000Z</Time>
            <Position>
              <LatitudeDegrees>40.65067268908023834228515625</LatitudeDegrees>
              <LongitudeDegrees>-5.6280347518622875213623046875</LongitudeDegrees>
            </Position>
            <AltitudeMeters>894.20001220703125</AltitudeMeters>
            <DistanceMeters>NAN</DistanceMeters>
          </Trackpoint>
          <Trackpoint>
            <Time>2019-10-07T10:17:08.000Z</Time>
            <Position>
              <LatitudeDegrees>40.65029223449528217315673828125</LatitudeDegrees>
              <LongitudeDegrees>-5.6281046569347381591796875</LongitudeDegrees>
            </Position>
            <AltitudeMeters>894.5999755859375</AltitudeMeters>
            <DistanceMeters>NAN</DistanceMeters>
          </Trackpoint>
          <Trackpoint>
            <Time>2019-10-07T10:17:12.000Z</Time>
            <Position>
              <LatitudeDegrees>40.65007681958377361297607421875</LatitudeDegrees>
              <LongitudeDegrees>-5.62814287841320037841796875</LongitudeDegrees>
            </Position>
            <AltitudeMeters>895.20001220703125</AltitudeMeters>
            <DistanceMeters>NAN</DistanceMeters>
          </Trackpoint>
          <Trackpoint>
            <Time>2019-10-07T10:17:19.000Z</Time>
            <Position>
              <LatitudeDegrees>40.64971522428095340728759765625</LatitudeDegrees>
              <LongitudeDegrees>-5.62820079736411571502685546875</LongitudeDegrees>
            </Position>
            <AltitudeMeters>896</AltitudeMeters>
            <DistanceMeters>NAN</DistanceMeters>
          </Trackpoint>
          <Trackpoint>
            <Time>2019-10-07T10:17:24.000Z</Time>
            <Position>
              <LatitudeDegrees>40.6494504399597644805908203125</LatitudeDegrees>
              <LongitudeDegrees>-5.62825075350701808929443359375</LongitudeDegrees>
            </Position>
            <AltitudeMeters>896.4000244140625</AltitudeMeters>
            <DistanceMeters>NAN</DistanceMeters>
          </Trackpoint>
          <Trackpoint>
            <Time>2019-10-07T10:17:27.000Z</Time>
            <Position>
              <LatitudeDegrees>40.6492871604859828948974609375</LatitudeDegrees>
              <LongitudeDegrees>-5.62827405519783496856689453125</LongitudeDegrees>
            </Position>
            <AltitudeMeters>896.4000244140625</AltitudeMeters>
            <DistanceMeters>NAN</DistanceMeters>
          </Trackpoint>
          <Trackpoint>
            <Time>2019-10-07T10:17:37.000Z</Time>
            <Position>
              <LatitudeDegrees>40.64872163347899913787841796875</LatitudeDegrees>
              <LongitudeDegrees>-5.62835971824824810028076171875</LongitudeDegrees>
            </Position>
            <AltitudeMeters>897</AltitudeMeters>
            <DistanceMeters>NAN</DistanceMeters>
          </Trackpoint>
          <Trackpoint>
            <Time>2019-10-07T10:17:46.000Z</Time>
            <Position>
              <LatitudeDegrees>40.64818401820957660675048828125</LatitudeDegrees>
              <LongitudeDegrees>-5.62842945568263530731201171875</LongitudeDegrees>
            </Position>
            <AltitudeMeters>896</AltitudeMeters>
            <DistanceMeters>NAN</DistanceMeters>
          </Trackpoint>
          <Trackpoint>
            <Time>2019-10-07T10:17:47.000Z</Time>
            <Position>
              <LatitudeDegrees>40.64811880700290203094482421875</LatitudeDegrees>
              <LongitudeDegrees>-5.62843398191034793853759765625</LongitudeDegrees>
            </Position>
            <AltitudeMeters>895.79998779296875</AltitudeMeters>
            <DistanceMeters>NAN</DistanceMeters>
          </Trackpoint>
          <Trackpoint>
            <Time>2019-10-07T10:17:51.000Z</Time>
            <Position>
              <LatitudeDegrees>40.64784354530274868011474609375</LatitudeDegrees>
              <LongitudeDegrees>-5.62845326028764247894287109375</LongitudeDegrees>
            </Position>
            <AltitudeMeters>894.79998779296875</AltitudeMeters>
            <DistanceMeters>NAN</DistanceMeters>
          </Trackpoint>
          <Trackpoint>
            <Time>2019-10-07T10:17:55.000Z</Time>
            <Position>
              <LatitudeDegrees>40.647549927234649658203125</LatitudeDegrees>
              <LongitudeDegrees>-5.62848025001585483551025390625</LongitudeDegrees>
            </Position>
            <AltitudeMeters>894</AltitudeMeters>
            <DistanceMeters>NAN</DistanceMeters>
          </Trackpoint>
          <Trackpoint>
            <Time>2019-10-07T10:17:56.000Z</Time>
            <Position>
              <LatitudeDegrees>40.6474734842777252197265625</LatitudeDegrees>
              <LongitudeDegrees>-5.6284828484058380126953125</LongitudeDegrees>
            </Position>
            <AltitudeMeters>893.79998779296875</AltitudeMeters>
            <DistanceMeters>NAN</DistanceMeters>
          </Trackpoint>
          <Trackpoint>
            <Time>2019-10-07T10:17:58.000Z</Time>
            <Position>
              <LatitudeDegrees>40.64731749705970287322998046875</LatitudeDegrees>
              <LongitudeDegrees>-5.62848913483321666717529296875</LongitudeDegrees>
            </Position>
            <AltitudeMeters>892.79998779296875</AltitudeMeters>
            <DistanceMeters>NAN</DistanceMeters>
          </Trackpoint>
          <Trackpoint>
            <Time>2019-10-07T10:18:03.000Z</Time>
            <Position>
              <LatitudeDegrees>40.6469308398663997650146484375</LatitudeDegrees>
              <LongitudeDegrees>-5.6285185553133487701416015625</LongitudeDegrees>
            </Position>
            <AltitudeMeters>891.79998779296875</AltitudeMeters>
            <DistanceMeters>NAN</DistanceMeters>
          </Trackpoint>
          <Trackpoint>
            <Time>2019-10-07T10:18:05.000Z</Time>
            <Position>
              <LatitudeDegrees>40.64683721400797367095947265625</LatitudeDegrees>
              <LongitudeDegrees>-5.62853104434907436370849609375</LongitudeDegrees>
            </Position>
            <AltitudeMeters>892.79998779296875</AltitudeMeters>
            <DistanceMeters>NAN</DistanceMeters>
          </Trackpoint>
          <Trackpoint>
            <Time>2019-10-07T10:18:06.000Z</Time>
            <Position>
              <LatitudeDegrees>40.64681089483201503753662109375</LatitudeDegrees>
              <LongitudeDegrees>-5.62853422947227954864501953125</LongitudeDegrees>
            </Position>
            <AltitudeMeters>892.79998779296875</AltitudeMeters>
            <DistanceMeters>NAN</DistanceMeters>
          </Trackpoint>
          <Trackpoint>
            <Time>2019-10-07T10:18:10.000Z</Time>
            <Position>
              <LatitudeDegrees>40.6467896886169910430908203125</LatitudeDegrees>
              <LongitudeDegrees>-5.62854412011802196502685546875</LongitudeDegrees>
            </Position>
            <AltitudeMeters>893.20001220703125</AltitudeMeters>
            <DistanceMeters>NAN</DistanceMeters>
          </Trackpoint>
          <Trackpoint>
            <Time>2019-10-07T10:18:18.000Z</Time>
            <Position>
              <LatitudeDegrees>40.6467896886169910430908203125</LatitudeDegrees>
              <LongitudeDegrees>-5.62854412011802196502685546875</LongitudeDegrees>
            </Position>
            <AltitudeMeters>893.20001220703125</AltitudeMeters>
            <DistanceMeters>NAN</DistanceMeters>
          </Trackpoint>
          <Trackpoint>
            <Time>2019-10-07T10:18:22.000Z</Time>
            <Position>
              <LatitudeDegrees>40.6467896886169910430908203125</LatitudeDegrees>
              <LongitudeDegrees>-5.62854412011802196502685546875</LongitudeDegrees>
            </Position>
            <AltitudeMeters>893</AltitudeMeters>
            <DistanceMeters>NAN</DistanceMeters>
          </Trackpoint>
          <Trackpoint>
            <Time>2019-10-07T10:18:29.000Z</Time>
            <Position>
              <LatitudeDegrees>40.6467896886169910430908203125</LatitudeDegrees>
              <LongitudeDegrees>-5.62854412011802196502685546875</LongitudeDegrees>
            </Position>
            <AltitudeMeters>893.20001220703125</AltitudeMeters>
            <DistanceMeters>NAN</DistanceMeters>
          </Trackpoint>
          <Trackpoint>
            <Time>2019-10-07T10:18:30.000Z</Time>
            <Position>
              <LatitudeDegrees>40.6467896886169910430908203125</LatitudeDegrees>
              <LongitudeDegrees>-5.62854412011802196502685546875</LongitudeDegrees>
            </Position>
            <AltitudeMeters>893</AltitudeMeters>
            <DistanceMeters>NAN</DistanceMeters>
          </Trackpoint>
          <Trackpoint>
            <Time>2019-10-07T10:18:32.000Z</Time>
            <Position>
              <LatitudeDegrees>40.6467896886169910430908203125</LatitudeDegrees>
              <LongitudeDegrees>-5.62854412011802196502685546875</LongitudeDegrees>
            </Position>
            <AltitudeMeters>893.20001220703125</AltitudeMeters>
            <DistanceMeters>NAN</DistanceMeters>
          </Trackpoint>
          <Trackpoint>
            <Time>2019-10-07T10:18:37.000Z</Time>
            <Position>
              <LatitudeDegrees>40.6467896886169910430908203125</LatitudeDegrees>
              <LongitudeDegrees>-5.62854412011802196502685546875</LongitudeDegrees>
            </Position>
            <AltitudeMeters>893</AltitudeMeters>
            <DistanceMeters>NAN</DistanceMeters>
          </Trackpoint>
          <Trackpoint>
            <Time>2019-10-07T10:18:39.000Z</Time>
            <Position>
              <LatitudeDegrees>40.6467896886169910430908203125</LatitudeDegrees>
              <LongitudeDegrees>-5.62854412011802196502685546875</LongitudeDegrees>
            </Position>
            <AltitudeMeters>893.20001220703125</AltitudeMeters>
            <DistanceMeters>NAN</DistanceMeters>
          </Trackpoint>
          <Trackpoint>
            <Time>2019-10-07T10:18:40.000Z</Time>
            <Position>
              <LatitudeDegrees>40.6467896886169910430908203125</LatitudeDegrees>
              <LongitudeDegrees>-5.62854412011802196502685546875</LongitudeDegrees>
            </Position>
            <AltitudeMeters>893.20001220703125</AltitudeMeters>
            <DistanceMeters>NAN</DistanceMeters>
          </Trackpoint>
          <Trackpoint>
            <Time>2019-10-07T10:18:41.000Z</Time>
            <Position>
              <LatitudeDegrees>40.6467896886169910430908203125</LatitudeDegrees>
              <LongitudeDegrees>-5.62854412011802196502685546875</LongitudeDegrees>
            </Position>
            <AltitudeMeters>893.20001220703125</AltitudeMeters>
            <DistanceMeters>NAN</DistanceMeters>
          </Trackpoint>
          <Trackpoint>
            <Time>2019-10-07T10:18:48.000Z</Time>
            <Position>
              <LatitudeDegrees>40.6467896886169910430908203125</LatitudeDegrees>
              <LongitudeDegrees>-5.62854412011802196502685546875</LongitudeDegrees>
            </Position>
            <AltitudeMeters>893.20001220703125</AltitudeMeters>
            <DistanceMeters>NAN</DistanceMeters>
          </Trackpoint>
          <Trackpoint>
            <Time>2019-10-07T10:18:50.000Z</Time>
            <Position>
              <LatitudeDegrees>40.64679086208343505859375</LatitudeDegrees>
              <LongitudeDegrees>-5.62854629941284656524658203125</LongitudeDegrees>
            </Position>
            <AltitudeMeters>893.20001220703125</AltitudeMeters>
            <DistanceMeters>NAN</DistanceMeters>
          </Trackpoint>
          <Trackpoint>
            <Time>2019-10-07T10:19:00.000Z</Time>
            <Position>
              <LatitudeDegrees>40.64679086208343505859375</LatitudeDegrees>
              <LongitudeDegrees>-5.62854629941284656524658203125</LongitudeDegrees>
            </Position>
            <AltitudeMeters>893</AltitudeMeters>
            <DistanceMeters>NAN</DistanceMeters>
          </Trackpoint>
          <Trackpoint>
            <Time>2019-10-07T10:19:03.000Z</Time>
            <Position>
              <LatitudeDegrees>40.64679086208343505859375</LatitudeDegrees>
              <LongitudeDegrees>-5.62854629941284656524658203125</LongitudeDegrees>
            </Position>
            <AltitudeMeters>893.20001220703125</AltitudeMeters>
            <DistanceMeters>NAN</DistanceMeters>
          </Trackpoint>
          <Trackpoint>
            <Time>2019-10-07T10:19:05.000Z</Time>
            <Position>
              <LatitudeDegrees>40.64679086208343505859375</LatitudeDegrees>
              <LongitudeDegrees>-5.62854629941284656524658203125</LongitudeDegrees>
            </Position>
            <AltitudeMeters>893.20001220703125</AltitudeMeters>
            <DistanceMeters>NAN</DistanceMeters>
          </Trackpoint>
          <Trackpoint>
            <Time>2019-10-07T10:19:08.000Z</Time>
            <Position>
              <LatitudeDegrees>40.64679086208343505859375</LatitudeDegrees>
              <LongitudeDegrees>-5.62854629941284656524658203125</LongitudeDegrees>
            </Position>
            <AltitudeMeters>893</AltitudeMeters>
            <DistanceMeters>NAN</DistanceMeters>
          </Trackpoint>
          <Trackpoint>
            <Time>2019-10-07T10:19:10.000Z</Time>
            <Position>
              <LatitudeDegrees>40.64679086208343505859375</LatitudeDegrees>
              <LongitudeDegrees>-5.62854629941284656524658203125</LongitudeDegrees>
            </Position>
            <AltitudeMeters>893.20001220703125</AltitudeMeters>
            <DistanceMeters>NAN</DistanceMeters>
          </Trackpoint>
          <Trackpoint>
            <Time>2019-10-07T10:19:20.000Z</Time>
            <Position>
              <LatitudeDegrees>40.64679086208343505859375</LatitudeDegrees>
              <LongitudeDegrees>-5.62854629941284656524658203125</LongitudeDegrees>
            </Position>
            <AltitudeMeters>893</AltitudeMeters>
            <DistanceMeters>NAN</DistanceMeters>
          </Trackpoint>
          <Trackpoint>
            <Time>2019-10-07T10:19:28.000Z</Time>
            <Position>
              <LatitudeDegrees>40.64679086208343505859375</LatitudeDegrees>
              <LongitudeDegrees>-5.62854629941284656524658203125</LongitudeDegrees>
            </Position>
            <AltitudeMeters>893</AltitudeMeters>
            <DistanceMeters>NAN</DistanceMeters>
          </Trackpoint>
          <Trackpoint>
            <Time>2019-10-07T10:19:29.000Z</Time>
            <Position>
              <LatitudeDegrees>40.64679178409278392791748046875</LatitudeDegrees>
              <LongitudeDegrees>-5.62854713760316371917724609375</LongitudeDegrees>
            </Position>
            <AltitudeMeters>893.20001220703125</AltitudeMeters>
            <DistanceMeters>NAN</DistanceMeters>
          </Trackpoint>
          <Trackpoint>
            <Time>2019-10-07T10:19:31.000Z</Time>
            <Position>
              <LatitudeDegrees>40.64679178409278392791748046875</LatitudeDegrees>
              <LongitudeDegrees>-5.62854713760316371917724609375</LongitudeDegrees>
            </Position>
            <AltitudeMeters>893.20001220703125</AltitudeMeters>
            <DistanceMeters>NAN</DistanceMeters>
          </Trackpoint>
          <Trackpoint>
            <Time>2019-10-07T10:19:33.000Z</Time>
            <Position>
              <LatitudeDegrees>40.64679178409278392791748046875</LatitudeDegrees>
              <LongitudeDegrees>-5.62854713760316371917724609375</LongitudeDegrees>
            </Position>
            <AltitudeMeters>893.20001220703125</AltitudeMeters>
            <DistanceMeters>NAN</DistanceMeters>
          </Trackpoint>
          <Trackpoint>
            <Time>2019-10-07T10:19:35.000Z</Time>
            <Position>
              <LatitudeDegrees>40.64679178409278392791748046875</LatitudeDegrees>
              <LongitudeDegrees>-5.62854713760316371917724609375</LongitudeDegrees>
            </Position>
            <AltitudeMeters>893.20001220703125</AltitudeMeters>
            <DistanceMeters>NAN</DistanceMeters>
          </Trackpoint>
          <Trackpoint>
            <Time>2019-10-07T10:19:36.000Z</Time>
            <Position>
              <LatitudeDegrees>40.64679178409278392791748046875</LatitudeDegrees>
              <LongitudeDegrees>-5.62854713760316371917724609375</LongitudeDegrees>
            </Position>
            <AltitudeMeters>893</AltitudeMeters>
            <DistanceMeters>NAN</DistanceMeters>
          </Trackpoint>
          <Trackpoint>
            <Time>2019-10-07T10:19:50.000Z</Time>
            <Position>
              <LatitudeDegrees>40.64679178409278392791748046875</LatitudeDegrees>
              <LongitudeDegrees>-5.62854713760316371917724609375</LongitudeDegrees>
            </Position>
            <AltitudeMeters>893.4000244140625</AltitudeMeters>
            <DistanceMeters>NAN</DistanceMeters>
          </Trackpoint>
          <Trackpoint>
            <Time>2019-10-07T10:20:03.000Z</Time>
            <Position>
              <LatitudeDegrees>40.64678826369345188140869140625</LatitudeDegrees>
              <LongitudeDegrees>-5.62854579649865627288818359375</LongitudeDegrees>
            </Position>
            <AltitudeMeters>893.20001220703125</AltitudeMeters>
            <DistanceMeters>NAN</DistanceMeters>
          </Trackpoint>
          <Trackpoint>
            <Time>2019-10-07T10:20:05.000Z</Time>
            <Position>
              <LatitudeDegrees>40.64674987457692623138427734375</LatitudeDegrees>
              <LongitudeDegrees>-5.628542862832546234130859375</LongitudeDegrees>
            </Position>
            <AltitudeMeters>893.20001220703125</AltitudeMeters>
            <DistanceMeters>NAN</DistanceMeters>
          </Trackpoint>
          <Trackpoint>
            <Time>2019-10-07T10:20:09.000Z</Time>
            <Position>
              <LatitudeDegrees>40.64663923345506191253662109375</LatitudeDegrees>
              <LongitudeDegrees>-5.62855434603989124298095703125</LongitudeDegrees>
            </Position>
            <AltitudeMeters>893</AltitudeMeters>
            <DistanceMeters>NAN</DistanceMeters>
          </Trackpoint>
          <Trackpoint>
            <Time>2019-10-07T10:20:10.000Z</Time>
            <Position>
              <LatitudeDegrees>40.64659975469112396240234375</LatitudeDegrees>
              <LongitudeDegrees>-5.62855727970600128173828125</LongitudeDegrees>
            </Position>
            <AltitudeMeters>892.79998779296875</AltitudeMeters>
            <DistanceMeters>NAN</DistanceMeters>
          </Trackpoint>
          <Trackpoint>
            <Time>2019-10-07T10:20:12.000Z</Time>
            <Position>
              <LatitudeDegrees>40.64651300199329853057861328125</LatitudeDegrees>
              <LongitudeDegrees>-5.6285614706575870513916015625</LongitudeDegrees>
            </Position>
            <AltitudeMeters>892.79998779296875</AltitudeMeters>
            <DistanceMeters>NAN</DistanceMeters>
          </Trackpoint>
          <Trackpoint>
            <Time>2019-10-07T10:20:15.000Z</Time>
            <Position>
              <LatitudeDegrees>40.64636749215424060821533203125</LatitudeDegrees>
              <LongitudeDegrees>-5.6285738758742809295654296875</LongitudeDegrees>
            </Position>
            <AltitudeMeters>892.5999755859375</AltitudeMeters>
            <DistanceMeters>NAN</DistanceMeters>
          </Trackpoint>
          <Trackpoint>
            <Time>2019-10-07T10:20:16.000Z</Time>
            <Position>
              <LatitudeDegrees>40.64631401561200618743896484375</LatitudeDegrees>
              <LongitudeDegrees>-5.6285785697400569915771484375</LongitudeDegrees>
            </Position>
            <AltitudeMeters>892.5999755859375</AltitudeMeters>
            <DistanceMeters>NAN</DistanceMeters>
          </Trackpoint>
          <Trackpoint>
            <Time>2019-10-07T10:20:21.000Z</Time>
            <Position>
              <LatitudeDegrees>40.64602601341903209686279296875</LatitudeDegrees>
              <LongitudeDegrees>-5.62859877012670040130615234375</LongitudeDegrees>
            </Position>
            <AltitudeMeters>892.4000244140625</AltitudeMeters>
            <DistanceMeters>NAN</DistanceMeters>
          </Trackpoint>
          <Trackpoint>
            <Time>2019-10-07T10:20:24.000Z</Time>
            <Position>
              <LatitudeDegrees>40.64584496431052684783935546875</LatitudeDegrees>
              <LongitudeDegrees>-5.62861218117177486419677734375</LongitudeDegrees>
            </Position>
            <AltitudeMeters>892</AltitudeMeters>
            <DistanceMeters>NAN</DistanceMeters>
          </Trackpoint>
          <Trackpoint>
            <Time>2019-10-07T10:20:30.000Z</Time>
            <Position>
              <LatitudeDegrees>40.645483620464801788330078125</LatitudeDegrees>
              <LongitudeDegrees>-5.62864570878446102142333984375</LongitudeDegrees>
            </Position>
            <AltitudeMeters>892</AltitudeMeters>
            <DistanceMeters>NAN</DistanceMeters>
          </Trackpoint>
          <Trackpoint>
            <Time>2019-10-07T10:20:32.000Z</Time>
            <Position>
              <LatitudeDegrees>40.64536417834460735321044921875</LatitudeDegrees>
              <LongitudeDegrees>-5.6286546774208545684814453125</LongitudeDegrees>
            </Position>
            <AltitudeMeters>892.20001220703125</AltitudeMeters>
            <DistanceMeters>NAN</DistanceMeters>
          </Trackpoint>
          <Trackpoint>
            <Time>2019-10-07T10:20:37.000Z</Time>
            <Position>
              <LatitudeDegrees>40.64507349394261837005615234375</LatitudeDegrees>
              <LongitudeDegrees>-5.62867797911167144775390625</LongitudeDegrees>
            </Position>
            <AltitudeMeters>893.20001220703125</AltitudeMeters>
            <DistanceMeters>NAN</DistanceMeters>
          </Trackpoint>
          <Trackpoint>
            <Time>2019-10-07T10:20:41.000Z</Time>
            <Position>
              <LatitudeDegrees>40.644845254719257354736328125</LatitudeDegrees>
              <LongitudeDegrees>-5.628695748746395111083984375</LongitudeDegrees>
            </Position>
            <AltitudeMeters>893.5999755859375</AltitudeMeters>
            <DistanceMeters>NAN</DistanceMeters>
          </Trackpoint>
          <Trackpoint>
            <Time>2019-10-07T10:20:43.000Z</Time>
            <Position>
              <LatitudeDegrees>40.64473134465515613555908203125</LatitudeDegrees>
              <LongitudeDegrees>-5.6287022866308689117431640625</LongitudeDegrees>
            </Position>
            <AltitudeMeters>893.5999755859375</AltitudeMeters>
            <DistanceMeters>NAN</DistanceMeters>
          </Trackpoint>
          <Trackpoint>
            <Time>2019-10-07T10:20:45.000Z</Time>
            <Position>
              <LatitudeDegrees>40.6446196138858795166015625</LatitudeDegrees>
              <LongitudeDegrees>-5.62870957888662815093994140625</LongitudeDegrees>
            </Position>
            <AltitudeMeters>893.79998779296875</AltitudeMeters>
            <DistanceMeters>NAN</DistanceMeters>
          </Trackpoint>
          <Trackpoint>
            <Time>2019-10-07T10:20:50.000Z</Time>
            <Position>
              <LatitudeDegrees>40.64434376545250415802001953125</LatitudeDegrees>
              <LongitudeDegrees>-5.62873170711100101470947265625</LongitudeDegrees>
            </Position>
            <AltitudeMeters>894.4000244140625</AltitudeMeters>
            <DistanceMeters>NAN</DistanceMeters>
          </Trackpoint>
          <Trackpoint>
            <Time>2019-10-07T10:20:53.000Z</Time>
            <Position>
              <LatitudeDegrees>40.64418182708323001861572265625</LatitudeDegrees>
              <LongitudeDegrees>-5.6287431903183460235595703125</LongitudeDegrees>
            </Position>
            <AltitudeMeters>895</AltitudeMeters>
            <DistanceMeters>NAN</DistanceMeters>
          </Trackpoint>
          <Trackpoint>
            <Time>2019-10-07T10:21:02.000Z</Time>
            <Position>
              <LatitudeDegrees>40.6437125243246555328369140625</LatitudeDegrees>
              <LongitudeDegrees>-5.6287827529013156890869140625</LongitudeDegrees>
            </Position>
            <AltitudeMeters>896</AltitudeMeters>
            <DistanceMeters>NAN</DistanceMeters>
          </Trackpoint>
          <Trackpoint>
            <Time>2019-10-07T10:21:04.000Z</Time>
            <Position>
              <LatitudeDegrees>40.6436095945537090301513671875</LatitudeDegrees>
              <LongitudeDegrees>-5.62879457138478755950927734375</LongitudeDegrees>
            </Position>
            <AltitudeMeters>896</AltitudeMeters>
            <DistanceMeters>NAN</DistanceMeters>
          </Trackpoint>
          <Trackpoint>
            <Time>2019-10-07T10:21:09.000Z</Time>
            <Position>
              <LatitudeDegrees>40.64334489405155181884765625</LatitudeDegrees>
              <LongitudeDegrees>-5.62881150282919406890869140625</LongitudeDegrees>
            </Position>
            <AltitudeMeters>896.4000244140625</AltitudeMeters>
            <DistanceMeters>NAN</DistanceMeters>
          </Trackpoint>
          <Trackpoint>
            <Time>2019-10-07T10:21:17.000Z</Time>
            <Position>
              <LatitudeDegrees>40.6429232843220233917236328125</LatitudeDegrees>
              <LongitudeDegrees>-5.6288434378802776336669921875</LongitudeDegrees>
            </Position>
            <AltitudeMeters>896.5999755859375</AltitudeMeters>
            <DistanceMeters>NAN</DistanceMeters>
          </Trackpoint>
          <Trackpoint>
            <Time>2019-10-07T10:21:21.000Z</Time>
            <Position>
              <LatitudeDegrees>40.64271264709532260894775390625</LatitudeDegrees>
              <LongitudeDegrees>-5.62885659746825695037841796875</LongitudeDegrees>
            </Position>
            <AltitudeMeters>897.20001220703125</AltitudeMeters>
            <DistanceMeters>NAN</DistanceMeters>
          </Trackpoint>
          <Trackpoint>
            <Time>2019-10-07T10:21:28.000Z</Time>
            <Position>
              <LatitudeDegrees>40.64233772456645965576171875</LatitudeDegrees>
              <LongitudeDegrees>-5.62888258136808872222900390625</LongitudeDegrees>
            </Position>
            <AltitudeMeters>897.20001220703125</AltitudeMeters>
            <DistanceMeters>NAN</DistanceMeters>
          </Trackpoint>
          <Trackpoint>
            <Time>2019-10-07T10:21:38.000Z</Time>
            <Position>
              <LatitudeDegrees>40.64180086366832256317138671875</LatitudeDegrees>
              <LongitudeDegrees>-5.62892331741750240325927734375</LongitudeDegrees>
            </Position>
            <AltitudeMeters>898</AltitudeMeters>
            <DistanceMeters>NAN</DistanceMeters>
          </Trackpoint>
          <Trackpoint>
            <Time>2019-10-07T10:21:39.000Z</Time>
            <Position>
              <LatitudeDegrees>40.6417478062212467193603515625</LatitudeDegrees>
              <LongitudeDegrees>-5.6289299391210079193115234375</LongitudeDegrees>
            </Position>
            <AltitudeMeters>897.79998779296875</AltitudeMeters>
            <DistanceMeters>NAN</DistanceMeters>
          </Trackpoint>
          <Trackpoint>
            <Time>2019-10-07T10:21:44.000Z</Time>
            <Position>
              <LatitudeDegrees>40.6414802558720111846923828125</LatitudeDegrees>
              <LongitudeDegrees>-5.62894863076508045196533203125</LongitudeDegrees>
            </Position>
            <AltitudeMeters>898.4000244140625</AltitudeMeters>
            <DistanceMeters>NAN</DistanceMeters>
          </Trackpoint>
          <Trackpoint>
            <Time>2019-10-07T10:21:48.000Z</Time>
            <Position>
              <LatitudeDegrees>40.641267187893390655517578125</LatitudeDegrees>
              <LongitudeDegrees>-5.62896958552300930023193359375</LongitudeDegrees>
            </Position>
            <AltitudeMeters>898.79998779296875</AltitudeMeters>
            <DistanceMeters>NAN</DistanceMeters>
          </Trackpoint>
          <Trackpoint>
            <Time>2019-10-07T10:21:50.000Z</Time>
            <Position>
              <LatitudeDegrees>40.641162581741809844970703125</LatitudeDegrees>
              <LongitudeDegrees>-5.62897863797843456268310546875</LongitudeDegrees>
            </Position>
            <AltitudeMeters>899.4000244140625</AltitudeMeters>
            <DistanceMeters>NAN</DistanceMeters>
          </Trackpoint>
          <Trackpoint>
            <Time>2019-10-07T10:21:55.000Z</Time>
            <Position>
              <LatitudeDegrees>40.64090316183865070343017578125</LatitudeDegrees>
              <LongitudeDegrees>-5.6289949826896190643310546875</LongitudeDegrees>
            </Position>
            <AltitudeMeters>900.5999755859375</AltitudeMeters>
            <DistanceMeters>NAN</DistanceMeters>
          </Trackpoint>
          <Trackpoint>
            <Time>2019-10-07T10:21:57.000Z</Time>
            <Position>
              <LatitudeDegrees>40.64080459065735340118408203125</LatitudeDegrees>
              <LongitudeDegrees>-5.6290057115256786346435546875</LongitudeDegrees>
            </Position>
            <AltitudeMeters>900.79998779296875</AltitudeMeters>
            <DistanceMeters>NAN</DistanceMeters>
          </Trackpoint>
          <Trackpoint>
            <Time>2019-10-07T10:22:03.000Z</Time>
            <Position>
              <LatitudeDegrees>40.64052128233015537261962890625</LatitudeDegrees>
              <LongitudeDegrees>-5.629024989902973175048828125</LongitudeDegrees>
            </Position>
            <AltitudeMeters>901.5999755859375</AltitudeMeters>
            <DistanceMeters>NAN</DistanceMeters>
          </Trackpoint>
          <Trackpoint>
            <Time>2019-10-07T10:22:05.000Z</Time>
            <Position>
              <LatitudeDegrees>40.64042924903333187103271484375</LatitudeDegrees>
              <LongitudeDegrees>-5.62902926467359066009521484375</LongitudeDegrees>
            </Position>
            <AltitudeMeters>901.5999755859375</AltitudeMeters>
            <DistanceMeters>NAN</DistanceMeters>
          </Trackpoint>
          <Trackpoint>
            <Time>2019-10-07T10:22:12.000Z</Time>
            <Position>
              <LatitudeDegrees>40.6401197053492069244384765625</LatitudeDegrees>
              <LongitudeDegrees>-5.62905223108828067779541015625</LongitudeDegrees>
            </Position>
            <AltitudeMeters>902.79998779296875</AltitudeMeters>
            <DistanceMeters>NAN</DistanceMeters>
          </Trackpoint>
          <Trackpoint>
            <Time>2019-10-07T10:22:13.000Z</Time>
            <Position>
              <LatitudeDegrees>40.64007435925304889678955078125</LatitudeDegrees>
              <LongitudeDegrees>-5.6290546618402004241943359375</LongitudeDegrees>
            </Position>
            <AltitudeMeters>903</AltitudeMeters>
            <DistanceMeters>NAN</DistanceMeters>
          </Trackpoint>
          <Trackpoint>
            <Time>2019-10-07T10:22:17.000Z</Time>
            <Position>
              <LatitudeDegrees>40.639899261295795440673828125</LatitudeDegrees>
              <LongitudeDegrees>-5.6290622055530548095703125</LongitudeDegrees>
            </Position>
            <AltitudeMeters>903.79998779296875</AltitudeMeters>
            <DistanceMeters>NAN</DistanceMeters>
          </Trackpoint>
          <Trackpoint>
            <Time>2019-10-07T10:22:23.000Z</Time>
            <Position>
              <LatitudeDegrees>40.639638416469097137451171875</LatitudeDegrees>
              <LongitudeDegrees>-5.62907653860747814178466796875</LongitudeDegrees>
            </Position>
            <AltitudeMeters>904.79998779296875</AltitudeMeters>
            <DistanceMeters>NAN</DistanceMeters>
          </Trackpoint>
          <Trackpoint>
            <Time>2019-10-07T10:22:24.000Z</Time>
            <Position>
              <LatitudeDegrees>40.63959407620131969451904296875</LatitudeDegrees>
              <LongitudeDegrees>-5.62907938845455646514892578125</LongitudeDegrees>
            </Position>
            <AltitudeMeters>904.79998779296875</AltitudeMeters>
            <DistanceMeters>NAN</DistanceMeters>
          </Trackpoint>
          <Trackpoint>
            <Time>2019-10-07T10:22:30.000Z</Time>
            <Position>
              <LatitudeDegrees>40.639338009059429168701171875</LatitudeDegrees>
              <LongitudeDegrees>-5.6290818192064762115478515625</LongitudeDegrees>
            </Position>
            <AltitudeMeters>906</AltitudeMeters>
            <DistanceMeters>NAN</DistanceMeters>
          </Trackpoint>
          <Trackpoint>
            <Time>2019-10-07T10:22:35.000Z</Time>
            <Position>
              <LatitudeDegrees>40.6391279585659503936767578125</LatitudeDegrees>
              <LongitudeDegrees>-5.62907570041716098785400390625</LongitudeDegrees>
            </Position>
            <AltitudeMeters>906.4000244140625</AltitudeMeters>
            <DistanceMeters>NAN</DistanceMeters>
          </Trackpoint>
          <Trackpoint>
            <Time>2019-10-07T10:22:39.000Z</Time>
            <Position>
              <LatitudeDegrees>40.63896124251186847686767578125</LatitudeDegrees>
              <LongitudeDegrees>-5.62906899489462375640869140625</LongitudeDegrees>
            </Position>
            <AltitudeMeters>907</AltitudeMeters>
            <DistanceMeters>NAN</DistanceMeters>
          </Trackpoint>
          <Trackpoint>
            <Time>2019-10-07T10:22:45.000Z</Time>
            <Position>
              <LatitudeDegrees>40.638709701597690582275390625</LatitudeDegrees>
              <LongitudeDegrees>-5.62904686667025089263916015625</LongitudeDegrees>
            </Position>
            <AltitudeMeters>907.79998779296875</AltitudeMeters>
            <DistanceMeters>NAN</DistanceMeters>
          </Trackpoint>
          <Trackpoint>
            <Time>2019-10-07T10:22:47.000Z</Time>
            <Position>
              <LatitudeDegrees>40.63862680457532405853271484375</LatitudeDegrees>
              <LongitudeDegrees>-5.62903898768126964569091796875</LongitudeDegrees>
            </Position>
            <AltitudeMeters>908.20001220703125</AltitudeMeters>
            <DistanceMeters>NAN</DistanceMeters>
          </Trackpoint>
          <Trackpoint>
            <Time>2019-10-07T10:22:54.000Z</Time>
            <Position>
              <LatitudeDegrees>40.6383326835930347442626953125</LatitudeDegrees>
              <LongitudeDegrees>-5.62900797463953495025634765625</LongitudeDegrees>
            </Position>
            <AltitudeMeters>909.20001220703125</AltitudeMeters>
            <DistanceMeters>NAN</DistanceMeters>
          </Trackpoint>
          <Trackpoint>
            <Time>2019-10-07T10:22:55.000Z</Time>
            <Position>
              <LatitudeDegrees>40.63829161226749420166015625</LatitudeDegrees>
              <LongitudeDegrees>-5.62900277785956859588623046875</LongitudeDegrees>
            </Position>
            <AltitudeMeters>909.20001220703125</AltitudeMeters>
            <DistanceMeters>NAN</DistanceMeters>
          </Trackpoint>
          <Trackpoint>
            <Time>2019-10-07T10:23:02.000Z</Time>
            <Position>
              <LatitudeDegrees>40.6379964016377925872802734375</LatitudeDegrees>
              <LongitudeDegrees>-5.62894611619412899017333984375</LongitudeDegrees>
            </Position>
            <AltitudeMeters>910.20001220703125</AltitudeMeters>
            <DistanceMeters>NAN</DistanceMeters>
          </Trackpoint>
          <Trackpoint>
            <Time>2019-10-07T10:23:07.000Z</Time>
            <Position>
              <LatitudeDegrees>40.63778408803045749664306640625</LatitudeDegrees>
              <LongitudeDegrees>-5.6289031170308589935302734375</LongitudeDegrees>
            </Position>
            <AltitudeMeters>910.4000244140625</AltitudeMeters>
            <DistanceMeters>NAN</DistanceMeters>
          </Trackpoint>
          <Trackpoint>
            <Time>2019-10-07T10:23:16.000Z</Time>
            <Position>
              <LatitudeDegrees>40.6373986043035984039306640625</LatitudeDegrees>
              <LongitudeDegrees>-5.6288301944732666015625</LongitudeDegrees>
            </Position>
            <AltitudeMeters>911</AltitudeMeters>
            <DistanceMeters>NAN</DistanceMeters>
          </Trackpoint>
          <Trackpoint>
            <Time>2019-10-07T10:23:20.000Z</Time>
            <Position>
              <LatitudeDegrees>40.637228451669216156005859375</LatitudeDegrees>
              <LongitudeDegrees>-5.62879540957510471343994140625</LongitudeDegrees>
            </Position>
            <AltitudeMeters>911.20001220703125</AltitudeMeters>
            <DistanceMeters>NAN</DistanceMeters>
          </Trackpoint>
          <Trackpoint>
            <Time>2019-10-07T10:23:25.000Z</Time>
            <Position>
              <LatitudeDegrees>40.63701429404318332672119140625</LatitudeDegrees>
              <LongitudeDegrees>-5.628754086792469024658203125</LongitudeDegrees>
            </Position>
            <AltitudeMeters>911.5999755859375</AltitudeMeters>
            <DistanceMeters>NAN</DistanceMeters>
          </Trackpoint>
          <Trackpoint>
            <Time>2019-10-07T10:23:32.000Z</Time>
            <Position>
              <LatitudeDegrees>40.63669972121715545654296875</LatitudeDegrees>
              <LongitudeDegrees>-5.62868644483387470245361328125</LongitudeDegrees>
            </Position>
            <AltitudeMeters>911.79998779296875</AltitudeMeters>
            <DistanceMeters>NAN</DistanceMeters>
          </Trackpoint>
          <Trackpoint>
            <Time>2019-10-07T10:23:34.000Z</Time>
            <Position>
              <LatitudeDegrees>40.63660156913101673126220703125</LatitudeDegrees>
              <LongitudeDegrees>-5.62866632826626300811767578125</LongitudeDegrees>
            </Position>
            <AltitudeMeters>911.79998779296875</AltitudeMeters>
            <DistanceMeters>NAN</DistanceMeters>
          </Trackpoint>
          <Trackpoint>
            <Time>2019-10-07T10:23:42.000Z</Time>
            <Position>
              <LatitudeDegrees>40.63619010150432586669921875</LatitudeDegrees>
              <LongitudeDegrees>-5.628604888916015625</LongitudeDegrees>
            </Position>
            <AltitudeMeters>911.79998779296875</AltitudeMeters>
            <DistanceMeters>NAN</DistanceMeters>
          </Trackpoint>
          <Trackpoint>
            <Time>2019-10-07T10:23:48.000Z</Time>
            <Position>
              <LatitudeDegrees>40.63586882315576076507568359375</LatitudeDegrees>
              <LongitudeDegrees>-5.62856934964656829833984375</LongitudeDegrees>
            </Position>
            <AltitudeMeters>912</AltitudeMeters>
            <DistanceMeters>NAN</DistanceMeters>
          </Trackpoint>
          <Trackpoint>
            <Time>2019-10-07T10:23:52.000Z</Time>
            <Position>
              <LatitudeDegrees>40.63564888201653957366943359375</LatitudeDegrees>
              <LongitudeDegrees>-5.62855870462954044342041015625</LongitudeDegrees>
            </Position>
            <AltitudeMeters>911.5999755859375</AltitudeMeters>
            <DistanceMeters>NAN</DistanceMeters>
          </Trackpoint>
          <Trackpoint>
            <Time>2019-10-07T10:23:57.000Z</Time>
            <Position>
              <LatitudeDegrees>40.6353705190122127532958984375</LatitudeDegrees>
              <LongitudeDegrees>-5.62856155447661876678466796875</LongitudeDegrees>
            </Position>
            <AltitudeMeters>911.5999755859375</AltitudeMeters>
            <DistanceMeters>NAN</DistanceMeters>
          </Trackpoint>
          <Trackpoint>
            <Time>2019-10-07T10:24:02.000Z</Time>
            <Position>
              <LatitudeDegrees>40.635093413293361663818359375</LatitudeDegrees>
              <LongitudeDegrees>-5.62857069075107574462890625</LongitudeDegrees>
            </Position>
            <AltitudeMeters>911.5999755859375</AltitudeMeters>
            <DistanceMeters>NAN</DistanceMeters>
          </Trackpoint>
          <Trackpoint>
            <Time>2019-10-07T10:24:07.000Z</Time>
            <Position>
              <LatitudeDegrees>40.63483349047601222991943359375</LatitudeDegrees>
              <LongitudeDegrees>-5.62857697717845439910888671875</LongitudeDegrees>
            </Position>
            <AltitudeMeters>911.5999755859375</AltitudeMeters>
            <DistanceMeters>NAN</DistanceMeters>
          </Trackpoint>
          <Trackpoint>
            <Time>2019-10-07T10:24:09.000Z</Time>
            <Position>
              <LatitudeDegrees>40.63472787849605083465576171875</LatitudeDegrees>
              <LongitudeDegrees>-5.6285825930535793304443359375</LongitudeDegrees>
            </Position>
            <AltitudeMeters>911</AltitudeMeters>
            <DistanceMeters>NAN</DistanceMeters>
          </Trackpoint>
          <Trackpoint>
            <Time>2019-10-07T10:24:16.000Z</Time>
            <Position>
              <LatitudeDegrees>40.63435102812945842742919921875</LatitudeDegrees>
              <LongitudeDegrees>-5.62860011123120784759521484375</LongitudeDegrees>
            </Position>
            <AltitudeMeters>911.20001220703125</AltitudeMeters>
            <DistanceMeters>NAN</DistanceMeters>
          </Trackpoint>
          <Trackpoint>
            <Time>2019-10-07T10:24:18.000Z</Time>
            <Position>
              <LatitudeDegrees>40.6342421472072601318359375</LatitudeDegrees>
              <LongitudeDegrees>-5.6286053918302059173583984375</LongitudeDegrees>
            </Position>
            <AltitudeMeters>911</AltitudeMeters>
            <DistanceMeters>NAN</DistanceMeters>
          </Trackpoint>
          <Trackpoint>
            <Time>2019-10-07T10:24:28.000Z</Time>
            <Position>
              <LatitudeDegrees>40.63368684612214565277099609375</LatitudeDegrees>
              <LongitudeDegrees>-5.6286345608532428741455078125</LongitudeDegrees>
            </Position>
            <AltitudeMeters>910.79998779296875</AltitudeMeters>
            <DistanceMeters>NAN</DistanceMeters>
          </Trackpoint>
          <Trackpoint>
            <Time>2019-10-07T10:24:29.000Z</Time>
            <Position>
              <LatitudeDegrees>40.633633621037006378173828125</LatitudeDegrees>
              <LongitudeDegrees>-5.628636740148067474365234375</LongitudeDegrees>
            </Position>
            <AltitudeMeters>911.20001220703125</AltitudeMeters>
            <DistanceMeters>NAN</DistanceMeters>
          </Trackpoint>
          <Trackpoint>
            <Time>2019-10-07T10:24:32.000Z</Time>
            <Position>
              <LatitudeDegrees>40.63348249532282352447509765625</LatitudeDegrees>
              <LongitudeDegrees>-5.6286419369280338287353515625</LongitudeDegrees>
            </Position>
            <AltitudeMeters>911</AltitudeMeters>
            <DistanceMeters>NAN</DistanceMeters>
          </Trackpoint>
          <Trackpoint>
            <Time>2019-10-07T10:24:35.000Z</Time>
            <Position>
              <LatitudeDegrees>40.6333343870937824249267578125</LatitudeDegrees>
              <LongitudeDegrees>-5.62864889390766620635986328125</LongitudeDegrees>
            </Position>
            <AltitudeMeters>911</AltitudeMeters>
            <DistanceMeters>NAN</DistanceMeters>
          </Trackpoint>
          <Trackpoint>
            <Time>2019-10-07T10:24:40.000Z</Time>
            <Position>
              <LatitudeDegrees>40.6330762244760990142822265625</LatitudeDegrees>
              <LongitudeDegrees>-5.62865828163921833038330078125</LongitudeDegrees>
            </Position>
            <AltitudeMeters>911.20001220703125</AltitudeMeters>
            <DistanceMeters>NAN</DistanceMeters>
          </Trackpoint>
          <Trackpoint>
            <Time>2019-10-07T10:24:43.000Z</Time>
            <Position>
              <LatitudeDegrees>40.63291436992585659027099609375</LatitudeDegrees>
              <LongitudeDegrees>-5.6286610476672649383544921875</LongitudeDegrees>
            </Position>
            <AltitudeMeters>910.79998779296875</AltitudeMeters>
            <DistanceMeters>NAN</DistanceMeters>
          </Trackpoint>
          <Trackpoint>
            <Time>2019-10-07T10:24:47.000Z</Time>
            <Position>
              <LatitudeDegrees>40.63269292004406452178955078125</LatitudeDegrees>
              <LongitudeDegrees>-5.62868678011000156402587890625</LongitudeDegrees>
            </Position>
            <AltitudeMeters>910.79998779296875</AltitudeMeters>
            <DistanceMeters>NAN</DistanceMeters>
          </Trackpoint>
          <Trackpoint>
            <Time>2019-10-07T10:24:49.000Z</Time>
            <Position>
              <LatitudeDegrees>40.6325863860547542572021484375</LatitudeDegrees>
              <LongitudeDegrees>-5.62873254530131816864013671875</LongitudeDegrees>
            </Position>
            <AltitudeMeters>910.79998779296875</AltitudeMeters>
            <DistanceMeters>NAN</DistanceMeters>
          </Trackpoint>
          <Trackpoint>
            <Time>2019-10-07T10:24:50.000Z</Time>
            <Position>
              <LatitudeDegrees>40.63253835774958133697509765625</LatitudeDegrees>
              <LongitudeDegrees>-5.628768838942050933837890625</LongitudeDegrees>
            </Position>
            <AltitudeMeters>910.79998779296875</AltitudeMeters>
            <DistanceMeters>NAN</DistanceMeters>
          </Trackpoint>
          <Trackpoint>
            <Time>2019-10-07T10:24:54.000Z</Time>
            <Position>
              <LatitudeDegrees>40.6323721446096897125244140625</LatitudeDegrees>
              <LongitudeDegrees>-5.62893589027225971221923828125</LongitudeDegrees>
            </Position>
            <AltitudeMeters>911.5999755859375</AltitudeMeters>
            <DistanceMeters>NAN</DistanceMeters>
          </Trackpoint>
          <Trackpoint>
            <Time>2019-10-07T10:24:57.000Z</Time>
            <Position>
              <LatitudeDegrees>40.63222135417163372039794921875</LatitudeDegrees>
              <LongitudeDegrees>-5.62894846312701702117919921875</LongitudeDegrees>
            </Position>
            <AltitudeMeters>912</AltitudeMeters>
            <DistanceMeters>NAN</DistanceMeters>
          </Trackpoint>
          <Trackpoint>
            <Time>2019-10-07T10:25:00.000Z</Time>
            <Position>
              <LatitudeDegrees>40.632084310054779052734375</LatitudeDegrees>
              <LongitudeDegrees>-5.628837905824184417724609375</LongitudeDegrees>
            </Position>
            <AltitudeMeters>911.20001220703125</AltitudeMeters>
            <DistanceMeters>NAN</DistanceMeters>
          </Trackpoint>
          <Trackpoint>
            <Time>2019-10-07T10:25:01.000Z</Time>
            <Position>
              <LatitudeDegrees>40.6320385448634624481201171875</LatitudeDegrees>
              <LongitudeDegrees>-5.6287924759089946746826171875</LongitudeDegrees>
            </Position>
            <AltitudeMeters>911.4000244140625</AltitudeMeters>
            <DistanceMeters>NAN</DistanceMeters>
          </Trackpoint>
          <Trackpoint>
            <Time>2019-10-07T10:25:02.000Z</Time>
            <Position>
              <LatitudeDegrees>40.63198582269251346588134765625</LatitudeDegrees>
              <LongitudeDegrees>-5.62875383533537387847900390625</LongitudeDegrees>
            </Position>
            <AltitudeMeters>911.20001220703125</AltitudeMeters>
            <DistanceMeters>NAN</DistanceMeters>
          </Trackpoint>
          <Trackpoint>
            <Time>2019-10-07T10:25:04.000Z</Time>
            <Position>
              <LatitudeDegrees>40.6318665482103824615478515625</LatitudeDegrees>
              <LongitudeDegrees>-5.6287311203777790069580078125</LongitudeDegrees>
            </Position>
            <AltitudeMeters>910.4000244140625</AltitudeMeters>
            <DistanceMeters>NAN</DistanceMeters>
          </Trackpoint>
          <Trackpoint>
            <Time>2019-10-07T10:25:06.000Z</Time>
            <Position>
              <LatitudeDegrees>40.63174568116664886474609375</LatitudeDegrees>
              <LongitudeDegrees>-5.6287317909300327301025390625</LongitudeDegrees>
            </Position>
            <AltitudeMeters>911</AltitudeMeters>
            <DistanceMeters>NAN</DistanceMeters>
          </Trackpoint>
          <Trackpoint>
            <Time>2019-10-07T10:25:10.000Z</Time>
            <Position>
              <LatitudeDegrees>40.63151299953460693359375</LatitudeDegrees>
              <LongitudeDegrees>-5.62874101102352142333984375</LongitudeDegrees>
            </Position>
            <AltitudeMeters>910.20001220703125</AltitudeMeters>
            <DistanceMeters>NAN</DistanceMeters>
          </Trackpoint>
          <Trackpoint>
            <Time>2019-10-07T10:25:11.000Z</Time>
            <Position>
              <LatitudeDegrees>40.6314554996788501739501953125</LatitudeDegrees>
              <LongitudeDegrees>-5.628743357956409454345703125</LongitudeDegrees>
            </Position>
            <AltitudeMeters>910.4000244140625</AltitudeMeters>
            <DistanceMeters>NAN</DistanceMeters>
          </Trackpoint>
          <Trackpoint>
            <Time>2019-10-07T10:25:19.000Z</Time>
            <Position>
              <LatitudeDegrees>40.63100413419306278228759765625</LatitudeDegrees>
              <LongitudeDegrees>-5.62876808457076549530029296875</LongitudeDegrees>
            </Position>
            <AltitudeMeters>911.4000244140625</AltitudeMeters>
            <DistanceMeters>NAN</DistanceMeters>
          </Trackpoint>
          <Trackpoint>
            <Time>2019-10-07T10:25:24.000Z</Time>
            <Position>
              <LatitudeDegrees>40.63072778284549713134765625</LatitudeDegrees>
              <LongitudeDegrees>-5.628787614405155181884765625</LongitudeDegrees>
            </Position>
            <AltitudeMeters>911.5999755859375</AltitudeMeters>
            <DistanceMeters>NAN</DistanceMeters>
          </Trackpoint>
          <Trackpoint>
            <Time>2019-10-07T10:25:29.000Z</Time>
            <Position>
              <LatitudeDegrees>40.63045210205018520355224609375</LatitudeDegrees>
              <LongitudeDegrees>-5.628798007965087890625</LongitudeDegrees>
            </Position>
            <AltitudeMeters>912.20001220703125</AltitudeMeters>
            <DistanceMeters>NAN</DistanceMeters>
          </Trackpoint>
          <Trackpoint>
            <Time>2019-10-07T10:25:31.000Z</Time>
            <Position>
              <LatitudeDegrees>40.6303457356989383697509765625</LatitudeDegrees>
              <LongitudeDegrees>-5.62880597077310085296630859375</LongitudeDegrees>
            </Position>
            <AltitudeMeters>912.79998779296875</AltitudeMeters>
            <DistanceMeters>NAN</DistanceMeters>
          </Trackpoint>
          <Trackpoint>
            <Time>2019-10-07T10:25:32.000Z</Time>
            <Position>
              <LatitudeDegrees>40.63029368408024311065673828125</LatitudeDegrees>
              <LongitudeDegrees>-5.6288099102675914764404296875</LongitudeDegrees>
            </Position>
            <AltitudeMeters>912.4000244140625</AltitudeMeters>
            <DistanceMeters>NAN</DistanceMeters>
          </Trackpoint>
          <Trackpoint>
            <Time>2019-10-07T10:25:38.000Z</Time>
            <Position>
              <LatitudeDegrees>40.6299836374819278717041015625</LatitudeDegrees>
              <LongitudeDegrees>-5.628829188644886016845703125</LongitudeDegrees>
            </Position>
            <AltitudeMeters>913.20001220703125</AltitudeMeters>
            <DistanceMeters>NAN</DistanceMeters>
          </Trackpoint>
          <Trackpoint>
            <Time>2019-10-07T10:25:40.000Z</Time>
            <Position>
              <LatitudeDegrees>40.62987618148326873779296875</LatitudeDegrees>
              <LongitudeDegrees>-5.62883379869163036346435546875</LongitudeDegrees>
            </Position>
            <AltitudeMeters>913.20001220703125</AltitudeMeters>
            <DistanceMeters>NAN</DistanceMeters>
          </Trackpoint>
          <Trackpoint>
            <Time>2019-10-07T10:25:46.000Z</Time>
            <Position>
              <LatitudeDegrees>40.62955540604889392852783203125</LatitudeDegrees>
              <LongitudeDegrees>-5.628849305212497711181640625</LongitudeDegrees>
            </Position>
            <AltitudeMeters>913.5999755859375</AltitudeMeters>
            <DistanceMeters>NAN</DistanceMeters>
          </Trackpoint>
          <Trackpoint>
            <Time>2019-10-07T10:25:49.000Z</Time>
            <Position>
              <LatitudeDegrees>40.62939338386058807373046875</LatitudeDegrees>
              <LongitudeDegrees>-5.62885676510632038116455078125</LongitudeDegrees>
            </Position>
            <AltitudeMeters>913.79998779296875</AltitudeMeters>
            <DistanceMeters>NAN</DistanceMeters>
          </Trackpoint>
          <Trackpoint>
            <Time>2019-10-07T10:25:51.000Z</Time>
            <Position>
              <LatitudeDegrees>40.62928567640483379364013671875</LatitudeDegrees>
              <LongitudeDegrees>-5.6288638897240161895751953125</LongitudeDegrees>
            </Position>
            <AltitudeMeters>914</AltitudeMeters>
            <DistanceMeters>NAN</DistanceMeters>
          </Trackpoint>
          <Trackpoint>
            <Time>2019-10-07T10:25:59.000Z</Time>
            <Position>
              <LatitudeDegrees>40.6288581155240535736083984375</LatitudeDegrees>
              <LongitudeDegrees>-5.62888920307159423828125</LongitudeDegrees>
            </Position>
            <AltitudeMeters>914.5999755859375</AltitudeMeters>
            <DistanceMeters>NAN</DistanceMeters>
          </Trackpoint>
          <Trackpoint>
            <Time>2019-10-07T10:26:00.000Z</Time>
            <Position>
              <LatitudeDegrees>40.6288074888288974761962890625</LatitudeDegrees>
              <LongitudeDegrees>-5.62889280728995800018310546875</LongitudeDegrees>
            </Position>
            <AltitudeMeters>915</AltitudeMeters>
            <DistanceMeters>NAN</DistanceMeters>
          </Trackpoint>
          <Trackpoint>
            <Time>2019-10-07T10:26:02.000Z</Time>
            <Position>
              <LatitudeDegrees>40.628705732524394989013671875</LatitudeDegrees>
              <LongitudeDegrees>-5.628896914422512054443359375</LongitudeDegrees>
            </Position>
            <AltitudeMeters>914.79998779296875</AltitudeMeters>
            <DistanceMeters>NAN</DistanceMeters>
          </Trackpoint>
          <Trackpoint>
            <Time>2019-10-07T10:26:09.000Z</Time>
            <Position>
              <LatitudeDegrees>40.62836609780788421630859375</LatitudeDegrees>
              <LongitudeDegrees>-5.6289155222475528717041015625</LongitudeDegrees>
            </Position>
            <AltitudeMeters>915.5999755859375</AltitudeMeters>
            <DistanceMeters>NAN</DistanceMeters>
          </Trackpoint>
          <Trackpoint>
            <Time>2019-10-07T10:26:12.000Z</Time>
            <Position>
              <LatitudeDegrees>40.62822452746331691741943359375</LatitudeDegrees>
              <LongitudeDegrees>-5.6289200484752655029296875</LongitudeDegrees>
            </Position>
            <AltitudeMeters>916.20001220703125</AltitudeMeters>
            <DistanceMeters>NAN</DistanceMeters>
          </Trackpoint>
          <Trackpoint>
            <Time>2019-10-07T10:26:19.000Z</Time>
            <Position>
              <LatitudeDegrees>40.6278987228870391845703125</LatitudeDegrees>
              <LongitudeDegrees>-5.628933794796466827392578125</LongitudeDegrees>
            </Position>
            <AltitudeMeters>917.20001220703125</AltitudeMeters>
            <DistanceMeters>NAN</DistanceMeters>
          </Trackpoint>
          <Trackpoint>
            <Time>2019-10-07T10:26:20.000Z</Time>
            <Position>
              <LatitudeDegrees>40.62785438261926174163818359375</LatitudeDegrees>
              <LongitudeDegrees>-5.62893639318645000457763671875</LongitudeDegrees>
            </Position>
            <AltitudeMeters>917.4000244140625</AltitudeMeters>
            <DistanceMeters>NAN</DistanceMeters>
          </Trackpoint>
          <Trackpoint>
            <Time>2019-10-07T10:26:30.000Z</Time>
            <Position>
              <LatitudeDegrees>40.62740108929574489593505859375</LatitudeDegrees>
              <LongitudeDegrees>-5.62896321527659893035888671875</LongitudeDegrees>
            </Position>
            <AltitudeMeters>918.20001220703125</AltitudeMeters>
            <DistanceMeters>NAN</DistanceMeters>
          </Trackpoint>
          <Trackpoint>
            <Time>2019-10-07T10:26:31.000Z</Time>
            <Position>
              <LatitudeDegrees>40.6273560784757137298583984375</LatitudeDegrees>
              <LongitudeDegrees>-5.628964640200138092041015625</LongitudeDegrees>
            </Position>
            <AltitudeMeters>918.4000244140625</AltitudeMeters>
            <DistanceMeters>NAN</DistanceMeters>
          </Trackpoint>
          <Trackpoint>
            <Time>2019-10-07T10:26:42.000Z</Time>
            <Position>
              <LatitudeDegrees>40.62685878016054630279541015625</LatitudeDegrees>
              <LongitudeDegrees>-5.6289871037006378173828125</LongitudeDegrees>
            </Position>
            <AltitudeMeters>919.20001220703125</AltitudeMeters>
            <DistanceMeters>NAN</DistanceMeters>
          </Trackpoint>
          <Trackpoint>
            <Time>2019-10-07T10:26:43.000Z</Time>
            <Position>
              <LatitudeDegrees>40.62681309878826141357421875</LatitudeDegrees>
              <LongitudeDegrees>-5.6289889477193355560302734375</LongitudeDegrees>
            </Position>
            <AltitudeMeters>919.4000244140625</AltitudeMeters>
            <DistanceMeters>NAN</DistanceMeters>
          </Trackpoint>
          <Trackpoint>
            <Time>2019-10-07T10:26:53.000Z</Time>
            <Position>
              <LatitudeDegrees>40.62635770998895168304443359375</LatitudeDegrees>
              <LongitudeDegrees>-5.629008896648883819580078125</LongitudeDegrees>
            </Position>
            <AltitudeMeters>920.4000244140625</AltitudeMeters>
            <DistanceMeters>NAN</DistanceMeters>
          </Trackpoint>
          <Trackpoint>
            <Time>2019-10-07T10:27:04.000Z</Time>
            <Position>
              <LatitudeDegrees>40.62586351297795772552490234375</LatitudeDegrees>
              <LongitudeDegrees>-5.629038400948047637939453125</LongitudeDegrees>
            </Position>
            <AltitudeMeters>921.4000244140625</AltitudeMeters>
            <DistanceMeters>NAN</DistanceMeters>
          </Trackpoint>
          <Trackpoint>
            <Time>2019-10-07T10:27:05.000Z</Time>
            <Position>
              <LatitudeDegrees>40.6258198432624340057373046875</LatitudeDegrees>
              <LongitudeDegrees>-5.629037730395793914794921875</LongitudeDegrees>
            </Position>
            <AltitudeMeters>921.5999755859375</AltitudeMeters>
            <DistanceMeters>NAN</DistanceMeters>
          </Trackpoint>
          <Trackpoint>
            <Time>2019-10-07T10:27:11.000Z</Time>
            <Position>
              <LatitudeDegrees>40.6255522929131984710693359375</LatitudeDegrees>
              <LongitudeDegrees>-5.62904275953769683837890625</LongitudeDegrees>
            </Position>
            <AltitudeMeters>922.5999755859375</AltitudeMeters>
            <DistanceMeters>NAN</DistanceMeters>
          </Trackpoint>
          <Trackpoint>
            <Time>2019-10-07T10:27:17.000Z</Time>
            <Position>
              <LatitudeDegrees>40.6252954714000225067138671875</LatitudeDegrees>
              <LongitudeDegrees>-5.6290593557059764862060546875</LongitudeDegrees>
            </Position>
            <AltitudeMeters>923.20001220703125</AltitudeMeters>
            <DistanceMeters>NAN</DistanceMeters>
          </Trackpoint>
          <Trackpoint>
            <Time>2019-10-07T10:27:18.000Z</Time>
            <Position>
              <LatitudeDegrees>40.6252525560557842254638671875</LatitudeDegrees>
              <LongitudeDegrees>-5.6290613673627376556396484375</LongitudeDegrees>
            </Position>
            <AltitudeMeters>923.5999755859375</AltitudeMeters>
            <DistanceMeters>NAN</DistanceMeters>
          </Trackpoint>
          <Trackpoint>
            <Time>2019-10-07T10:27:27.000Z</Time>
            <Position>
              <LatitudeDegrees>40.624894313514232635498046875</LatitudeDegrees>
              <LongitudeDegrees>-5.62908290885388851165771484375</LongitudeDegrees>
            </Position>
            <AltitudeMeters>924.5999755859375</AltitudeMeters>
            <DistanceMeters>NAN</DistanceMeters>
          </Trackpoint>
          <Trackpoint>
            <Time>2019-10-07T10:27:28.000Z</Time>
            <Position>
              <LatitudeDegrees>40.62485642731189727783203125</LatitudeDegrees>
              <LongitudeDegrees>-5.629083327949047088623046875</LongitudeDegrees>
            </Position>
            <AltitudeMeters>925</AltitudeMeters>
            <DistanceMeters>NAN</DistanceMeters>
          </Trackpoint>
          <Trackpoint>
            <Time>2019-10-07T10:27:36.000Z</Time>
            <Position>
              <LatitudeDegrees>40.6245494820177555084228515625</LatitudeDegrees>
              <LongitudeDegrees>-5.62909816391766071319580078125</LongitudeDegrees>
            </Position>
            <AltitudeMeters>926.20001220703125</AltitudeMeters>
            <DistanceMeters>NAN</DistanceMeters>
          </Trackpoint>
          <Trackpoint>
            <Time>2019-10-07T10:27:37.000Z</Time>
            <Position>
              <LatitudeDegrees>40.6245115958154201507568359375</LatitudeDegrees>
              <LongitudeDegrees>-5.6290999241173267364501953125</LongitudeDegrees>
            </Position>
            <AltitudeMeters>926</AltitudeMeters>
            <DistanceMeters>NAN</DistanceMeters>
          </Trackpoint>
          <Trackpoint>
            <Time>2019-10-07T10:27:43.000Z</Time>
            <Position>
              <LatitudeDegrees>40.6242852844297885894775390625</LatitudeDegrees>
              <LongitudeDegrees>-5.6291089765727519989013671875</LongitudeDegrees>
            </Position>
            <AltitudeMeters>927.4000244140625</AltitudeMeters>
            <DistanceMeters>NAN</DistanceMeters>
          </Trackpoint>
          <Trackpoint>
            <Time>2019-10-07T10:27:47.000Z</Time>
            <Position>
              <LatitudeDegrees>40.624131895601749420166015625</LatitudeDegrees>
              <LongitudeDegrees>-5.62912113033235073089599609375</LongitudeDegrees>
            </Position>
            <AltitudeMeters>927.79998779296875</AltitudeMeters>
            <DistanceMeters>NAN</DistanceMeters>
          </Trackpoint>
          <Trackpoint>
            <Time>2019-10-07T10:27:52.000Z</Time>
            <Position>
              <LatitudeDegrees>40.6239439733326435089111328125</LatitudeDegrees>
              <LongitudeDegrees>-5.62912800349295139312744140625</LongitudeDegrees>
            </Position>
            <AltitudeMeters>928.5999755859375</AltitudeMeters>
            <DistanceMeters>NAN</DistanceMeters>
          </Trackpoint>
          <Trackpoint>
            <Time>2019-10-07T10:27:57.000Z</Time>
            <Position>
              <LatitudeDegrees>40.62375026755034923553466796875</LatitudeDegrees>
              <LongitudeDegrees>-5.62914610840380191802978515625</LongitudeDegrees>
            </Position>
            <AltitudeMeters>929.20001220703125</AltitudeMeters>
            <DistanceMeters>NAN</DistanceMeters>
          </Trackpoint>
          <Trackpoint>
            <Time>2019-10-07T10:28:00.000Z</Time>
            <Position>
              <LatitudeDegrees>40.62363644130527973175048828125</LatitudeDegrees>
              <LongitudeDegrees>-5.62915566377341747283935546875</LongitudeDegrees>
            </Position>
            <AltitudeMeters>929.5999755859375</AltitudeMeters>
            <DistanceMeters>NAN</DistanceMeters>
          </Trackpoint>
          <Trackpoint>
            <Time>2019-10-07T10:28:07.000Z</Time>
            <Position>
              <LatitudeDegrees>40.62337190844118595123291015625</LatitudeDegrees>
              <LongitudeDegrees>-5.629172511398792266845703125</LongitudeDegrees>
            </Position>
            <AltitudeMeters>930.5999755859375</AltitudeMeters>
            <DistanceMeters>NAN</DistanceMeters>
          </Trackpoint>
          <Trackpoint>
            <Time>2019-10-07T10:28:10.000Z</Time>
            <Position>
              <LatitudeDegrees>40.6232590042054653167724609375</LatitudeDegrees>
              <LongitudeDegrees>-5.62917686998844146728515625</LongitudeDegrees>
            </Position>
            <AltitudeMeters>931</AltitudeMeters>
            <DistanceMeters>NAN</DistanceMeters>
          </Trackpoint>
          <Trackpoint>
            <Time>2019-10-07T10:28:16.000Z</Time>
            <Position>
              <LatitudeDegrees>40.62303143553435802459716796875</LatitudeDegrees>
              <LongitudeDegrees>-5.62918961048126220703125</LongitudeDegrees>
            </Position>
            <AltitudeMeters>931.5999755859375</AltitudeMeters>
            <DistanceMeters>NAN</DistanceMeters>
          </Trackpoint>
          <Trackpoint>
            <Time>2019-10-07T10:28:20.000Z</Time>
            <Position>
              <LatitudeDegrees>40.622879974544048309326171875</LatitudeDegrees>
              <LongitudeDegrees>-5.62920880503952503204345703125</LongitudeDegrees>
            </Position>
            <AltitudeMeters>932</AltitudeMeters>
            <DistanceMeters>NAN</DistanceMeters>
          </Trackpoint>
          <Trackpoint>
            <Time>2019-10-07T10:28:23.000Z</Time>
            <Position>
              <LatitudeDegrees>40.6227698363363742828369140625</LatitudeDegrees>
              <LongitudeDegrees>-5.6292316876351833343505859375</LongitudeDegrees>
            </Position>
            <AltitudeMeters>932.79998779296875</AltitudeMeters>
            <DistanceMeters>NAN</DistanceMeters>
          </Trackpoint>
          <Trackpoint>
            <Time>2019-10-07T10:28:29.000Z</Time>
            <Position>
              <LatitudeDegrees>40.62254612334072589874267578125</LatitudeDegrees>
              <LongitudeDegrees>-5.62927921302616596221923828125</LongitudeDegrees>
            </Position>
            <AltitudeMeters>933.4000244140625</AltitudeMeters>
            <DistanceMeters>NAN</DistanceMeters>
          </Trackpoint>
          <Trackpoint>
            <Time>2019-10-07T10:28:31.000Z</Time>
            <Position>
              <LatitudeDegrees>40.62247286550700664520263671875</LatitudeDegrees>
              <LongitudeDegrees>-5.6293000839650630950927734375</LongitudeDegrees>
            </Position>
            <AltitudeMeters>933.79998779296875</AltitudeMeters>
            <DistanceMeters>NAN</DistanceMeters>
          </Trackpoint>
          <Trackpoint>
            <Time>2019-10-07T10:28:40.000Z</Time>
            <Position>
              <LatitudeDegrees>40.622133314609527587890625</LatitudeDegrees>
              <LongitudeDegrees>-5.62941131182014942169189453125</LongitudeDegrees>
            </Position>
            <AltitudeMeters>934.5999755859375</AltitudeMeters>
            <DistanceMeters>NAN</DistanceMeters>
          </Trackpoint>
          <Trackpoint>
            <Time>2019-10-07T10:28:41.000Z</Time>
            <Position>
              <LatitudeDegrees>40.62209467403590679168701171875</LatitudeDegrees>
              <LongitudeDegrees>-5.62942874617874622344970703125</LongitudeDegrees>
            </Position>
            <AltitudeMeters>934.79998779296875</AltitudeMeters>
            <DistanceMeters>NAN</DistanceMeters>
          </Trackpoint>
          <Trackpoint>
            <Time>2019-10-07T10:28:52.000Z</Time>
            <Position>
              <LatitudeDegrees>40.62166250310838222503662109375</LatitudeDegrees>
              <LongitudeDegrees>-5.62962572090327739715576171875</LongitudeDegrees>
            </Position>
            <AltitudeMeters>934.79998779296875</AltitudeMeters>
            <DistanceMeters>NAN</DistanceMeters>
          </Trackpoint>
          <Trackpoint>
            <Time>2019-10-07T10:29:00.000Z</Time>
            <Position>
              <LatitudeDegrees>40.62132135964930057525634765625</LatitudeDegrees>
              <LongitudeDegrees>-5.62980274669826030731201171875</LongitudeDegrees>
            </Position>
            <AltitudeMeters>935</AltitudeMeters>
            <DistanceMeters>NAN</DistanceMeters>
          </Trackpoint>
          <Trackpoint>
            <Time>2019-10-07T10:29:01.000Z</Time>
            <Position>
              <LatitudeDegrees>40.621277354657649993896484375</LatitudeDegrees>
              <LongitudeDegrees>-5.62982889823615550994873046875</LongitudeDegrees>
            </Position>
            <AltitudeMeters>934.79998779296875</AltitudeMeters>
            <DistanceMeters>NAN</DistanceMeters>
          </Trackpoint>
          <Trackpoint>
            <Time>2019-10-07T10:29:02.000Z</Time>
            <Position>
              <LatitudeDegrees>40.62123083509504795074462890625</LatitudeDegrees>
              <LongitudeDegrees>-5.62985370866954326629638671875</LongitudeDegrees>
            </Position>
            <AltitudeMeters>934.20001220703125</AltitudeMeters>
            <DistanceMeters>NAN</DistanceMeters>
          </Trackpoint>
          <Trackpoint>
            <Time>2019-10-07T10:29:04.000Z</Time>
            <Position>
              <LatitudeDegrees>40.6211330182850360870361328125</LatitudeDegrees>
              <LongitudeDegrees>-5.62990936450660228729248046875</LongitudeDegrees>
            </Position>
            <AltitudeMeters>934</AltitudeMeters>
            <DistanceMeters>NAN</DistanceMeters>
          </Trackpoint>
          <Trackpoint>
            <Time>2019-10-07T10:29:06.000Z</Time>
            <Position>
              <LatitudeDegrees>40.6210297532379627227783203125</LatitudeDegrees>
              <LongitudeDegrees>-5.6299661099910736083984375</LongitudeDegrees>
            </Position>
            <AltitudeMeters>934</AltitudeMeters>
            <DistanceMeters>NAN</DistanceMeters>
          </Trackpoint>
          <Trackpoint>
            <Time>2019-10-07T10:29:07.000Z</Time>
            <Position>
              <LatitudeDegrees>40.62097636051476001739501953125</LatitudeDegrees>
              <LongitudeDegrees>-5.62999670393764972686767578125</LongitudeDegrees>
            </Position>
            <AltitudeMeters>933.79998779296875</AltitudeMeters>
            <DistanceMeters>NAN</DistanceMeters>
          </Trackpoint>
          <Trackpoint>
            <Time>2019-10-07T10:29:09.000Z</Time>
            <Position>
              <LatitudeDegrees>40.6208646297454833984375</LatitudeDegrees>
              <LongitudeDegrees>-5.6300594843924045562744140625</LongitudeDegrees>
            </Position>
            <AltitudeMeters>933.4000244140625</AltitudeMeters>
            <DistanceMeters>NAN</DistanceMeters>
          </Trackpoint>
          <Trackpoint>
            <Time>2019-10-07T10:29:11.000Z</Time>
            <Position>
              <LatitudeDegrees>40.62074652872979640960693359375</LatitudeDegrees>
              <LongitudeDegrees>-5.63012997619807720184326171875</LongitudeDegrees>
            </Position>
            <AltitudeMeters>932.5999755859375</AltitudeMeters>
            <DistanceMeters>NAN</DistanceMeters>
          </Trackpoint>
          <Trackpoint>
            <Time>2019-10-07T10:29:14.000Z</Time>
            <Position>
              <LatitudeDegrees>40.62055575661361217498779296875</LatitudeDegrees>
              <LongitudeDegrees>-5.63023944385349750518798828125</LongitudeDegrees>
            </Position>
            <AltitudeMeters>932.20001220703125</AltitudeMeters>
            <DistanceMeters>NAN</DistanceMeters>
          </Trackpoint>
          <Trackpoint>
            <Time>2019-10-07T10:29:16.000Z</Time>
            <Position>
              <LatitudeDegrees>40.6204222328960895538330078125</LatitudeDegrees>
              <LongitudeDegrees>-5.6303173117339611053466796875</LongitudeDegrees>
            </Position>
            <AltitudeMeters>931.5999755859375</AltitudeMeters>
            <DistanceMeters>NAN</DistanceMeters>
          </Trackpoint>
          <Trackpoint>
            <Time>2019-10-07T10:29:17.000Z</Time>
            <Position>
              <LatitudeDegrees>40.6203538365662097930908203125</LatitudeDegrees>
              <LongitudeDegrees>-5.6303585506975650787353515625</LongitudeDegrees>
            </Position>
            <AltitudeMeters>931</AltitudeMeters>
            <DistanceMeters>NAN</DistanceMeters>
          </Trackpoint>
          <Trackpoint>
            <Time>2019-10-07T10:29:19.000Z</Time>
            <Position>
              <LatitudeDegrees>40.6202126853168010711669921875</LatitudeDegrees>
              <LongitudeDegrees>-5.6304370053112506866455078125</LongitudeDegrees>
            </Position>
            <AltitudeMeters>930</AltitudeMeters>
            <DistanceMeters>NAN</DistanceMeters>
          </Trackpoint>
          <Trackpoint>
            <Time>2019-10-07T10:29:24.000Z</Time>
            <Position>
              <LatitudeDegrees>40.6198452226817607879638671875</LatitudeDegrees>
              <LongitudeDegrees>-5.63064915128052234649658203125</LongitudeDegrees>
            </Position>
            <AltitudeMeters>929</AltitudeMeters>
            <DistanceMeters>NAN</DistanceMeters>
          </Trackpoint>
          <Trackpoint>
            <Time>2019-10-07T10:29:26.000Z</Time>
            <Position>
              <LatitudeDegrees>40.61969057656824588775634765625</LatitudeDegrees>
              <LongitudeDegrees>-5.63074219040572643280029296875</LongitudeDegrees>
            </Position>
            <AltitudeMeters>927.5999755859375</AltitudeMeters>
            <DistanceMeters>NAN</DistanceMeters>
          </Trackpoint>
          <Trackpoint>
            <Time>2019-10-07T10:29:27.000Z</Time>
            <Position>
              <LatitudeDegrees>40.6196118704974651336669921875</LatitudeDegrees>
              <LongitudeDegrees>-5.6307866983115673065185546875</LongitudeDegrees>
            </Position>
            <AltitudeMeters>927</AltitudeMeters>
            <DistanceMeters>NAN</DistanceMeters>
          </Trackpoint>
          <Trackpoint>
            <Time>2019-10-07T10:29:29.000Z</Time>
            <Position>
              <LatitudeDegrees>40.6194506026804447174072265625</LatitudeDegrees>
              <LongitudeDegrees>-5.6308785639703273773193359375</LongitudeDegrees>
            </Position>
            <AltitudeMeters>926.5999755859375</AltitudeMeters>
            <DistanceMeters>NAN</DistanceMeters>
          </Trackpoint>
          <Trackpoint>
            <Time>2019-10-07T10:29:31.000Z</Time>
            <Position>
              <LatitudeDegrees>40.61928807757794857025146484375</LatitudeDegrees>
              <LongitudeDegrees>-5.6309714354574680328369140625</LongitudeDegrees>
            </Position>
            <AltitudeMeters>925.79998779296875</AltitudeMeters>
            <DistanceMeters>NAN</DistanceMeters>
          </Trackpoint>
          <Trackpoint>
            <Time>2019-10-07T10:29:32.000Z</Time>
            <Position>
              <LatitudeDegrees>40.6192061863839626312255859375</LatitudeDegrees>
              <LongitudeDegrees>-5.63101879321038722991943359375</LongitudeDegrees>
            </Position>
            <AltitudeMeters>925.4000244140625</AltitudeMeters>
            <DistanceMeters>NAN</DistanceMeters>
          </Trackpoint>
          <Trackpoint>
            <Time>2019-10-07T10:29:34.000Z</Time>
            <Position>
              <LatitudeDegrees>40.61904215253889560699462890625</LatitudeDegrees>
              <LongitudeDegrees>-5.6311169452965259552001953125</LongitudeDegrees>
            </Position>
            <AltitudeMeters>924.79998779296875</AltitudeMeters>
            <DistanceMeters>NAN</DistanceMeters>
          </Trackpoint>
          <Trackpoint>
            <Time>2019-10-07T10:29:37.000Z</Time>
            <Position>
              <LatitudeDegrees>40.61879069544374942779541015625</LatitudeDegrees>
              <LongitudeDegrees>-5.63126840628683567047119140625</LongitudeDegrees>
            </Position>
            <AltitudeMeters>924.4000244140625</AltitudeMeters>
            <DistanceMeters>NAN</DistanceMeters>
          </Trackpoint>
          <Trackpoint>
            <Time>2019-10-07T10:29:39.000Z</Time>
            <Position>
              <LatitudeDegrees>40.6186194531619548797607421875</LatitudeDegrees>
              <LongitudeDegrees>-5.63136362470686435699462890625</LongitudeDegrees>
            </Position>
            <AltitudeMeters>923.20001220703125</AltitudeMeters>
            <DistanceMeters>NAN</DistanceMeters>
          </Trackpoint>
          <Trackpoint>
            <Time>2019-10-07T10:29:40.000Z</Time>
            <Position>
              <LatitudeDegrees>40.61853353865444660186767578125</LatitudeDegrees>
              <LongitudeDegrees>-5.63141249120235443115234375</LongitudeDegrees>
            </Position>
            <AltitudeMeters>922.79998779296875</AltitudeMeters>
            <DistanceMeters>NAN</DistanceMeters>
          </Trackpoint>
          <Trackpoint>
            <Time>2019-10-07T10:29:45.000Z</Time>
            <Position>
              <LatitudeDegrees>40.618113018572330474853515625</LatitudeDegrees>
              <LongitudeDegrees>-5.63165833242237567901611328125</LongitudeDegrees>
            </Position>
            <AltitudeMeters>922</AltitudeMeters>
            <DistanceMeters>NAN</DistanceMeters>
          </Trackpoint>
          <Trackpoint>
            <Time>2019-10-07T10:29:47.000Z</Time>
            <Position>
              <LatitudeDegrees>40.61794043518602848052978515625</LatitudeDegrees>
              <LongitudeDegrees>-5.63175355084240436553955078125</LongitudeDegrees>
            </Position>
            <AltitudeMeters>920.79998779296875</AltitudeMeters>
            <DistanceMeters>NAN</DistanceMeters>
          </Trackpoint>
          <Trackpoint>
            <Time>2019-10-07T10:29:49.000Z</Time>
            <Position>
              <LatitudeDegrees>40.61776240356266498565673828125</LatitudeDegrees>
              <LongitudeDegrees>-5.631854720413684844970703125</LongitudeDegrees>
            </Position>
            <AltitudeMeters>919.79998779296875</AltitudeMeters>
            <DistanceMeters>NAN</DistanceMeters>
          </Trackpoint>
          <Trackpoint>
            <Time>2019-10-07T10:29:50.000Z</Time>
            <Position>
              <LatitudeDegrees>40.61767104081809520721435546875</LatitudeDegrees>
              <LongitudeDegrees>-5.631907694041728973388671875</LongitudeDegrees>
            </Position>
            <AltitudeMeters>919.4000244140625</AltitudeMeters>
            <DistanceMeters>NAN</DistanceMeters>
          </Trackpoint>
          <Trackpoint>
            <Time>2019-10-07T10:29:52.000Z</Time>
            <Position>
              <LatitudeDegrees>40.61748429201543331146240234375</LatitudeDegrees>
              <LongitudeDegrees>-5.63201892189681529998779296875</LongitudeDegrees>
            </Position>
            <AltitudeMeters>918.20001220703125</AltitudeMeters>
            <DistanceMeters>NAN</DistanceMeters>
          </Trackpoint>
          <Trackpoint>
            <Time>2019-10-07T10:29:55.000Z</Time>
            <Position>
              <LatitudeDegrees>40.6171931885182857513427734375</LatitudeDegrees>
              <LongitudeDegrees>-5.63218521885573863983154296875</LongitudeDegrees>
            </Position>
            <AltitudeMeters>916.79998779296875</AltitudeMeters>
            <DistanceMeters>NAN</DistanceMeters>
          </Trackpoint>
          <Trackpoint>
            <Time>2019-10-07T10:29:57.000Z</Time>
            <Position>
              <LatitudeDegrees>40.616991184651851654052734375</LatitudeDegrees>
              <LongitudeDegrees>-5.6322997994720935821533203125</LongitudeDegrees>
            </Position>
            <AltitudeMeters>914.79998779296875</AltitudeMeters>
            <DistanceMeters>NAN</DistanceMeters>
          </Trackpoint>
          <Trackpoint>
            <Time>2019-10-07T10:29:58.000Z</Time>
            <Position>
              <LatitudeDegrees>40.6168897636234760284423828125</LatitudeDegrees>
              <LongitudeDegrees>-5.63236140646040439605712890625</LongitudeDegrees>
            </Position>
            <AltitudeMeters>914</AltitudeMeters>
            <DistanceMeters>NAN</DistanceMeters>
          </Trackpoint>
          <Trackpoint>
            <Time>2019-10-07T10:29:59.000Z</Time>
            <Position>
              <LatitudeDegrees>40.6167863309383392333984375</LatitudeDegrees>
              <LongitudeDegrees>-5.63241966068744659423828125</LongitudeDegrees>
            </Position>
            <AltitudeMeters>913.4000244140625</AltitudeMeters>
            <DistanceMeters>NAN</DistanceMeters>
          </Trackpoint>
          <Trackpoint>
            <Time>2019-10-07T10:30:01.000Z</Time>
            <Position>
              <LatitudeDegrees>40.6165789626538753509521484375</LatitudeDegrees>
              <LongitudeDegrees>-5.63254513777792453765869140625</LongitudeDegrees>
            </Position>
            <AltitudeMeters>912.20001220703125</AltitudeMeters>
            <DistanceMeters>NAN</DistanceMeters>
          </Trackpoint>
          <Trackpoint>
            <Time>2019-10-07T10:30:03.000Z</Time>
            <Position>
              <LatitudeDegrees>40.61636949889361858367919921875</LatitudeDegrees>
              <LongitudeDegrees>-5.63267086632549762725830078125</LongitudeDegrees>
            </Position>
            <AltitudeMeters>911</AltitudeMeters>
            <DistanceMeters>NAN</DistanceMeters>
          </Trackpoint>
          <Trackpoint>
            <Time>2019-10-07T10:30:06.000Z</Time>
            <Position>
              <LatitudeDegrees>40.616055093705654144287109375</LatitudeDegrees>
              <LongitudeDegrees>-5.63288024626672267913818359375</LongitudeDegrees>
            </Position>
            <AltitudeMeters>910.20001220703125</AltitudeMeters>
            <DistanceMeters>NAN</DistanceMeters>
          </Trackpoint>
          <Trackpoint>
            <Time>2019-10-07T10:30:07.000Z</Time>
            <Position>
              <LatitudeDegrees>40.61595015227794647216796875</LatitudeDegrees>
              <LongitudeDegrees>-5.63295400701463222503662109375</LongitudeDegrees>
            </Position>
            <AltitudeMeters>909.4000244140625</AltitudeMeters>
            <DistanceMeters>NAN</DistanceMeters>
          </Trackpoint>
          <Trackpoint>
            <Time>2019-10-07T10:30:08.000Z</Time>
            <Position>
              <LatitudeDegrees>40.615846551954746246337890625</LatitudeDegrees>
              <LongitudeDegrees>-5.633026845753192901611328125</LongitudeDegrees>
            </Position>
            <AltitudeMeters>908</AltitudeMeters>
            <DistanceMeters>NAN</DistanceMeters>
          </Trackpoint>
          <Trackpoint>
            <Time>2019-10-07T10:30:10.000Z</Time>
            <Position>
              <LatitudeDegrees>40.61563901603221893310546875</LatitudeDegrees>
              <LongitudeDegrees>-5.633175708353519439697265625</LongitudeDegrees>
            </Position>
            <AltitudeMeters>906.79998779296875</AltitudeMeters>
            <DistanceMeters>NAN</DistanceMeters>
          </Trackpoint>
          <Trackpoint>
            <Time>2019-10-07T10:30:12.000Z</Time>
            <Position>
              <LatitudeDegrees>40.61543173156678676605224609375</LatitudeDegrees>
              <LongitudeDegrees>-5.6333267502486705780029296875</LongitudeDegrees>
            </Position>
            <AltitudeMeters>904.79998779296875</AltitudeMeters>
            <DistanceMeters>NAN</DistanceMeters>
          </Trackpoint>
          <Trackpoint>
            <Time>2019-10-07T10:30:16.000Z</Time>
            <Position>
              <LatitudeDegrees>40.6150219403207302093505859375</LatitudeDegrees>
              <LongitudeDegrees>-5.63362740911543369293212890625</LongitudeDegrees>
            </Position>
            <AltitudeMeters>904.5999755859375</AltitudeMeters>
            <DistanceMeters>NAN</DistanceMeters>
          </Trackpoint>
          <Trackpoint>
            <Time>2019-10-07T10:30:19.000Z</Time>
            <Position>
              <LatitudeDegrees>40.614721365272998809814453125</LatitudeDegrees>
              <LongitudeDegrees>-5.6338477693498134613037109375</LongitudeDegrees>
            </Position>
            <AltitudeMeters>903.5999755859375</AltitudeMeters>
            <DistanceMeters>NAN</DistanceMeters>
          </Trackpoint>
          <Trackpoint>
            <Time>2019-10-07T10:30:24.000Z</Time>
            <Position>
              <LatitudeDegrees>40.61423798091709613800048828125</LatitudeDegrees>
              <LongitudeDegrees>-5.6342118792235851287841796875</LongitudeDegrees>
            </Position>
            <AltitudeMeters>902.5999755859375</AltitudeMeters>
            <DistanceMeters>NAN</DistanceMeters>
          </Trackpoint>
          <Trackpoint>
            <Time>2019-10-07T10:30:28.000Z</Time>
            <Position>
              <LatitudeDegrees>40.6138739548623561859130859375</LatitudeDegrees>
              <LongitudeDegrees>-5.63448739238083362579345703125</LongitudeDegrees>
            </Position>
            <AltitudeMeters>902.20001220703125</AltitudeMeters>
            <DistanceMeters>NAN</DistanceMeters>
          </Trackpoint>
          <Trackpoint>
            <Time>2019-10-07T10:30:31.000Z</Time>
            <Position>
              <LatitudeDegrees>40.61362023465335369110107421875</LatitudeDegrees>
              <LongitudeDegrees>-5.63467564992606639862060546875</LongitudeDegrees>
            </Position>
            <AltitudeMeters>902.5999755859375</AltitudeMeters>
            <DistanceMeters>NAN</DistanceMeters>
          </Trackpoint>
          <Trackpoint>
            <Time>2019-10-07T10:30:35.000Z</Time>
            <Position>
              <LatitudeDegrees>40.6133157201111316680908203125</LatitudeDegrees>
              <LongitudeDegrees>-5.63490330241620540618896484375</LongitudeDegrees>
            </Position>
            <AltitudeMeters>903.5999755859375</AltitudeMeters>
            <DistanceMeters>NAN</DistanceMeters>
          </Trackpoint>
          <Trackpoint>
            <Time>2019-10-07T10:30:37.000Z</Time>
            <Position>
              <LatitudeDegrees>40.61317649669945240020751953125</LatitudeDegrees>
              <LongitudeDegrees>-5.6350111775100231170654296875</LongitudeDegrees>
            </Position>
            <AltitudeMeters>904.5999755859375</AltitudeMeters>
            <DistanceMeters>NAN</DistanceMeters>
          </Trackpoint>
          <Trackpoint>
            <Time>2019-10-07T10:30:38.000Z</Time>
            <Position>
              <LatitudeDegrees>40.61310977675020694732666015625</LatitudeDegrees>
              <LongitudeDegrees>-5.6350611336529254913330078125</LongitudeDegrees>
            </Position>
            <AltitudeMeters>904.79998779296875</AltitudeMeters>
            <DistanceMeters>NAN</DistanceMeters>
          </Trackpoint>
          <Trackpoint>
            <Time>2019-10-07T10:30:39.000Z</Time>
            <Position>
              <LatitudeDegrees>40.61304490081965923309326171875</LatitudeDegrees>
              <LongitudeDegrees>-5.63510865904390811920166015625</LongitudeDegrees>
            </Position>
            <AltitudeMeters>904.79998779296875</AltitudeMeters>
            <DistanceMeters>NAN</DistanceMeters>
          </Trackpoint>
          <Trackpoint>
            <Time>2019-10-07T10:30:41.000Z</Time>
            <Position>
              <LatitudeDegrees>40.6129241175949573516845703125</LatitudeDegrees>
              <LongitudeDegrees>-5.63520270399749279022216796875</LongitudeDegrees>
            </Position>
            <AltitudeMeters>905.4000244140625</AltitudeMeters>
            <DistanceMeters>NAN</DistanceMeters>
          </Trackpoint>
          <Trackpoint>
            <Time>2019-10-07T10:30:42.000Z</Time>
            <Position>
              <LatitudeDegrees>40.61286561191082000732421875</LatitudeDegrees>
              <LongitudeDegrees>-5.6352495588362216949462890625</LongitudeDegrees>
            </Position>
            <AltitudeMeters>905.5999755859375</AltitudeMeters>
            <DistanceMeters>NAN</DistanceMeters>
          </Trackpoint>
          <Trackpoint>
            <Time>2019-10-07T10:30:43.000Z</Time>
            <Position>
              <LatitudeDegrees>40.6128084473311901092529296875</LatitudeDegrees>
              <LongitudeDegrees>-5.635293982923030853271484375</LongitudeDegrees>
            </Position>
            <AltitudeMeters>905.5999755859375</AltitudeMeters>
            <DistanceMeters>NAN</DistanceMeters>
          </Trackpoint>
          <Trackpoint>
            <Time>2019-10-07T10:30:45.000Z</Time>
            <Position>
              <LatitudeDegrees>40.61269772239029407501220703125</LatitudeDegrees>
              <LongitudeDegrees>-5.63537838868796825408935546875</LongitudeDegrees>
            </Position>
            <AltitudeMeters>905.5999755859375</AltitudeMeters>
            <DistanceMeters>NAN</DistanceMeters>
          </Trackpoint>
          <Trackpoint>
            <Time>2019-10-07T10:30:47.000Z</Time>
            <Position>
              <LatitudeDegrees>40.6125932000577449798583984375</LatitudeDegrees>
              <LongitudeDegrees>-5.6354524008929729461669921875</LongitudeDegrees>
            </Position>
            <AltitudeMeters>905.79998779296875</AltitudeMeters>
            <DistanceMeters>NAN</DistanceMeters>
          </Trackpoint>
          <Trackpoint>
            <Time>2019-10-07T10:30:50.000Z</Time>
            <Position>
              <LatitudeDegrees>40.61244106851518154144287109375</LatitudeDegrees>
              <LongitudeDegrees>-5.63556463457643985748291015625</LongitudeDegrees>
            </Position>
            <AltitudeMeters>906</AltitudeMeters>
            <DistanceMeters>NAN</DistanceMeters>
          </Trackpoint>
          <Trackpoint>
            <Time>2019-10-07T10:30:56.000Z</Time>
            <Position>
              <LatitudeDegrees>40.6121348775923252105712890625</LatitudeDegrees>
              <LongitudeDegrees>-5.6357920356094837188720703125</LongitudeDegrees>
            </Position>
            <AltitudeMeters>906.5999755859375</AltitudeMeters>
            <DistanceMeters>NAN</DistanceMeters>
          </Trackpoint>
          <Trackpoint>
            <Time>2019-10-07T10:30:58.000Z</Time>
            <Position>
              <LatitudeDegrees>40.61202934943139553070068359375</LatitudeDegrees>
              <LongitudeDegrees>-5.63587032258510589599609375</LongitudeDegrees>
            </Position>
            <AltitudeMeters>906.5999755859375</AltitudeMeters>
            <DistanceMeters>NAN</DistanceMeters>
          </Trackpoint>
          <Trackpoint>
            <Time>2019-10-07T10:31:01.000Z</Time>
            <Position>
              <LatitudeDegrees>40.6118713505566120147705078125</LatitudeDegrees>
              <LongitudeDegrees>-5.63598875887691974639892578125</LongitudeDegrees>
            </Position>
            <AltitudeMeters>906</AltitudeMeters>
            <DistanceMeters>NAN</DistanceMeters>
          </Trackpoint>
          <Trackpoint>
            <Time>2019-10-07T10:31:06.000Z</Time>
            <Position>
              <LatitudeDegrees>40.6116138584911823272705078125</LatitudeDegrees>
              <LongitudeDegrees>-5.636174418032169342041015625</LongitudeDegrees>
            </Position>
            <AltitudeMeters>906</AltitudeMeters>
            <DistanceMeters>NAN</DistanceMeters>
          </Trackpoint>
          <Trackpoint>
            <Time>2019-10-07T10:31:07.000Z</Time>
            <Position>
              <LatitudeDegrees>40.61156474053859710693359375</LatitudeDegrees>
              <LongitudeDegrees>-5.63621356151998043060302734375</LongitudeDegrees>
            </Position>
            <AltitudeMeters>905.79998779296875</AltitudeMeters>
            <DistanceMeters>NAN</DistanceMeters>
          </Trackpoint>
          <Trackpoint>
            <Time>2019-10-07T10:31:11.000Z</Time>
            <Position>
              <LatitudeDegrees>40.61136382631957530975341796875</LatitudeDegrees>
              <LongitudeDegrees>-5.63637265004217624664306640625</LongitudeDegrees>
            </Position>
            <AltitudeMeters>906</AltitudeMeters>
            <DistanceMeters>NAN</DistanceMeters>
          </Trackpoint>
          <Trackpoint>
            <Time>2019-10-07T10:31:15.000Z</Time>
            <Position>
              <LatitudeDegrees>40.6111562065780162811279296875</LatitudeDegrees>
              <LongitudeDegrees>-5.636525452136993408203125</LongitudeDegrees>
            </Position>
            <AltitudeMeters>905.79998779296875</AltitudeMeters>
            <DistanceMeters>NAN</DistanceMeters>
          </Trackpoint>
          <Trackpoint>
            <Time>2019-10-07T10:31:18.000Z</Time>
            <Position>
              <LatitudeDegrees>40.61099921353161334991455078125</LatitudeDegrees>
              <LongitudeDegrees>-5.63664087094366550445556640625</LongitudeDegrees>
            </Position>
            <AltitudeMeters>906</AltitudeMeters>
            <DistanceMeters>NAN</DistanceMeters>
          </Trackpoint>
          <Trackpoint>
            <Time>2019-10-07T10:31:25.000Z</Time>
            <Position>
              <LatitudeDegrees>40.6106331758201122283935546875</LatitudeDegrees>
              <LongitudeDegrees>-5.63692350871860980987548828125</LongitudeDegrees>
            </Position>
            <AltitudeMeters>906</AltitudeMeters>
            <DistanceMeters>NAN</DistanceMeters>
          </Trackpoint>
          <Trackpoint>
            <Time>2019-10-07T10:31:31.000Z</Time>
            <Position>
              <LatitudeDegrees>40.6103116460144519805908203125</LatitudeDegrees>
              <LongitudeDegrees>-5.63716105185449123382568359375</LongitudeDegrees>
            </Position>
            <AltitudeMeters>905.79998779296875</AltitudeMeters>
            <DistanceMeters>NAN</DistanceMeters>
          </Trackpoint>
          <Trackpoint>
            <Time>2019-10-07T10:31:36.000Z</Time>
            <Position>
              <LatitudeDegrees>40.6100383959710597991943359375</LatitudeDegrees>
              <LongitudeDegrees>-5.637363977730274200439453125</LongitudeDegrees>
            </Position>
            <AltitudeMeters>905.5999755859375</AltitudeMeters>
            <DistanceMeters>NAN</DistanceMeters>
          </Trackpoint>
          <Trackpoint>
            <Time>2019-10-07T10:31:37.000Z</Time>
            <Position>
              <LatitudeDegrees>40.60998491942882537841796875</LatitudeDegrees>
              <LongitudeDegrees>-5.63740597106516361236572265625</LongitudeDegrees>
            </Position>
            <AltitudeMeters>905.5999755859375</AltitudeMeters>
            <DistanceMeters>NAN</DistanceMeters>
          </Trackpoint>
          <Trackpoint>
            <Time>2019-10-07T10:31:46.000Z</Time>
            <Position>
              <LatitudeDegrees>40.6094982661306858062744140625</LatitudeDegrees>
              <LongitudeDegrees>-5.637771673500537872314453125</LongitudeDegrees>
            </Position>
            <AltitudeMeters>906.20001220703125</AltitudeMeters>
            <DistanceMeters>NAN</DistanceMeters>
          </Trackpoint>
          <Trackpoint>
            <Time>2019-10-07T10:31:47.000Z</Time>
            <Position>
              <LatitudeDegrees>40.60944504104554653167724609375</LatitudeDegrees>
              <LongitudeDegrees>-5.6378117389976978302001953125</LongitudeDegrees>
            </Position>
            <AltitudeMeters>906</AltitudeMeters>
            <DistanceMeters>NAN</DistanceMeters>
          </Trackpoint>
          <Trackpoint>
            <Time>2019-10-07T10:31:56.000Z</Time>
            <Position>
              <LatitudeDegrees>40.6089557893574237823486328125</LatitudeDegrees>
              <LongitudeDegrees>-5.63817257992923259735107421875</LongitudeDegrees>
            </Position>
            <AltitudeMeters>906</AltitudeMeters>
            <DistanceMeters>NAN</DistanceMeters>
          </Trackpoint>
          <Trackpoint>
            <Time>2019-10-07T10:31:58.000Z</Time>
            <Position>
              <LatitudeDegrees>40.60884942300617694854736328125</LatitudeDegrees>
              <LongitudeDegrees>-5.63825455494225025177001953125</LongitudeDegrees>
            </Position>
            <AltitudeMeters>905.4000244140625</AltitudeMeters>
            <DistanceMeters>NAN</DistanceMeters>
          </Trackpoint>
          <Trackpoint>
            <Time>2019-10-07T10:31:59.000Z</Time>
            <Position>
              <LatitudeDegrees>40.60879711993038654327392578125</LatitudeDegrees>
              <LongitudeDegrees>-5.638292692601680755615234375</LongitudeDegrees>
            </Position>
            <AltitudeMeters>904.79998779296875</AltitudeMeters>
            <DistanceMeters>NAN</DistanceMeters>
          </Trackpoint>
          <Trackpoint>
            <Time>2019-10-07T10:32:01.000Z</Time>
            <Position>
              <LatitudeDegrees>40.60869419015944004058837890625</LatitudeDegrees>
              <LongitudeDegrees>-5.63836670480668544769287109375</LongitudeDegrees>
            </Position>
            <AltitudeMeters>906</AltitudeMeters>
            <DistanceMeters>NAN</DistanceMeters>
          </Trackpoint>
          <Trackpoint>
            <Time>2019-10-07T10:32:06.000Z</Time>
            <Position>
              <LatitudeDegrees>40.6084518693387508392333984375</LatitudeDegrees>
              <LongitudeDegrees>-5.6385459937155246734619140625</LongitudeDegrees>
            </Position>
            <AltitudeMeters>907.20001220703125</AltitudeMeters>
            <DistanceMeters>NAN</DistanceMeters>
          </Trackpoint>
          <Trackpoint>
            <Time>2019-10-07T10:32:07.000Z</Time>
            <Position>
              <LatitudeDegrees>40.60840501450002193450927734375</LatitudeDegrees>
              <LongitudeDegrees>-5.63858128152787685394287109375</LongitudeDegrees>
            </Position>
            <AltitudeMeters>907</AltitudeMeters>
            <DistanceMeters>NAN</DistanceMeters>
          </Trackpoint>
          <Trackpoint>
            <Time>2019-10-07T10:32:15.000Z</Time>
            <Position>
              <LatitudeDegrees>40.608039312064647674560546875</LatitudeDegrees>
              <LongitudeDegrees>-5.63885536976158618927001953125</LongitudeDegrees>
            </Position>
            <AltitudeMeters>908.20001220703125</AltitudeMeters>
            <DistanceMeters>NAN</DistanceMeters>
          </Trackpoint>
          <Trackpoint>
            <Time>2019-10-07T10:32:18.000Z</Time>
            <Position>
              <LatitudeDegrees>40.60790461488068103790283203125</LatitudeDegrees>
              <LongitudeDegrees>-5.63895863480865955352783203125</LongitudeDegrees>
            </Position>
            <AltitudeMeters>908.4000244140625</AltitudeMeters>
            <DistanceMeters>NAN</DistanceMeters>
          </Trackpoint>
          <Trackpoint>
            <Time>2019-10-07T10:32:25.000Z</Time>
            <Position>
              <LatitudeDegrees>40.6075917184352874755859375</LatitudeDegrees>
              <LongitudeDegrees>-5.63919223845005035400390625</LongitudeDegrees>
            </Position>
            <AltitudeMeters>909.4000244140625</AltitudeMeters>
            <DistanceMeters>NAN</DistanceMeters>
          </Trackpoint>
          <Trackpoint>
            <Time>2019-10-07T10:32:27.000Z</Time>
            <Position>
              <LatitudeDegrees>40.6074993498623371124267578125</LatitudeDegrees>
              <LongitudeDegrees>-5.63926004804670810699462890625</LongitudeDegrees>
            </Position>
            <AltitudeMeters>909.4000244140625</AltitudeMeters>
            <DistanceMeters>NAN</DistanceMeters>
          </Trackpoint>
          <Trackpoint>
            <Time>2019-10-07T10:32:37.000Z</Time>
            <Position>
              <LatitudeDegrees>40.60702082701027393341064453125</LatitudeDegrees>
              <LongitudeDegrees>-5.6396121717989444732666015625</LongitudeDegrees>
            </Position>
            <AltitudeMeters>909.5999755859375</AltitudeMeters>
            <DistanceMeters>NAN</DistanceMeters>
          </Trackpoint>
          <Trackpoint>
            <Time>2019-10-07T10:32:38.000Z</Time>
            <Position>
              <LatitudeDegrees>40.606973804533481597900390625</LatitudeDegrees>
              <LongitudeDegrees>-5.63964779488742351531982421875</LongitudeDegrees>
            </Position>
            <AltitudeMeters>909.4000244140625</AltitudeMeters>
            <DistanceMeters>NAN</DistanceMeters>
          </Trackpoint>
          <Trackpoint>
            <Time>2019-10-07T10:32:47.000Z</Time>
            <Position>
              <LatitudeDegrees>40.6065461598336696624755859375</LatitudeDegrees>
              <LongitudeDegrees>-5.63996546901762485504150390625</LongitudeDegrees>
            </Position>
            <AltitudeMeters>909.5999755859375</AltitudeMeters>
            <DistanceMeters>NAN</DistanceMeters>
          </Trackpoint>
          <Trackpoint>
            <Time>2019-10-07T10:32:53.000Z</Time>
            <Position>
              <LatitudeDegrees>40.60625690035521984100341796875</LatitudeDegrees>
              <LongitudeDegrees>-5.6401824764907360076904296875</LongitudeDegrees>
            </Position>
            <AltitudeMeters>909.5999755859375</AltitudeMeters>
            <DistanceMeters>NAN</DistanceMeters>
          </Trackpoint>
          <Trackpoint>
            <Time>2019-10-07T10:32:57.000Z</Time>
            <Position>
              <LatitudeDegrees>40.60606428422033786773681640625</LatitudeDegrees>
              <LongitudeDegrees>-5.6403242982923984527587890625</LongitudeDegrees>
            </Position>
            <AltitudeMeters>910</AltitudeMeters>
            <DistanceMeters>NAN</DistanceMeters>
          </Trackpoint>
          <Trackpoint>
            <Time>2019-10-07T10:33:04.000Z</Time>
            <Position>
              <LatitudeDegrees>40.6057364679872989654541015625</LatitudeDegrees>
              <LongitudeDegrees>-5.64057013951241970062255859375</LongitudeDegrees>
            </Position>
            <AltitudeMeters>910.4000244140625</AltitudeMeters>
            <DistanceMeters>NAN</DistanceMeters>
          </Trackpoint>
          <Trackpoint>
            <Time>2019-10-07T10:33:08.000Z</Time>
            <Position>
              <LatitudeDegrees>40.60554611496627330780029296875</LatitudeDegrees>
              <LongitudeDegrees>-5.640711374580860137939453125</LongitudeDegrees>
            </Position>
            <AltitudeMeters>910.4000244140625</AltitudeMeters>
            <DistanceMeters>NAN</DistanceMeters>
          </Trackpoint>
          <Trackpoint>
            <Time>2019-10-07T10:33:17.000Z</Time>
            <Position>
              <LatitudeDegrees>40.605135820806026458740234375</LatitudeDegrees>
              <LongitudeDegrees>-5.64101404510438442230224609375</LongitudeDegrees>
            </Position>
            <AltitudeMeters>911.4000244140625</AltitudeMeters>
            <DistanceMeters>NAN</DistanceMeters>
          </Trackpoint>
          <Trackpoint>
            <Time>2019-10-07T10:33:18.000Z</Time>
            <Position>
              <LatitudeDegrees>40.60509567148983478546142578125</LatitudeDegrees>
              <LongitudeDegrees>-5.641044639050960540771484375</LongitudeDegrees>
            </Position>
            <AltitudeMeters>911.79998779296875</AltitudeMeters>
            <DistanceMeters>NAN</DistanceMeters>
          </Trackpoint>
          <Trackpoint>
            <Time>2019-10-07T10:33:22.000Z</Time>
            <Position>
              <LatitudeDegrees>40.60494496487081050872802734375</LatitudeDegrees>
              <LongitudeDegrees>-5.64116592518985271453857421875</LongitudeDegrees>
            </Position>
            <AltitudeMeters>912.4000244140625</AltitudeMeters>
            <DistanceMeters>NAN</DistanceMeters>
          </Trackpoint>
          <Trackpoint>
            <Time>2019-10-07T10:33:23.000Z</Time>
            <Position>
              <LatitudeDegrees>40.60490774922072887420654296875</LatitudeDegrees>
              <LongitudeDegrees>-5.641191489994525909423828125</LongitudeDegrees>
            </Position>
            <AltitudeMeters>912.79998779296875</AltitudeMeters>
            <DistanceMeters>NAN</DistanceMeters>
          </Trackpoint>
          <Trackpoint>
            <Time>2019-10-07T10:33:24.000Z</Time>
            <Position>
              <LatitudeDegrees>40.6048744730651378631591796875</LatitudeDegrees>
              <LongitudeDegrees>-5.64122057519853115081787109375</LongitudeDegrees>
            </Position>
            <AltitudeMeters>912.79998779296875</AltitudeMeters>
            <DistanceMeters>NAN</DistanceMeters>
          </Trackpoint>
          <Trackpoint>
            <Time>2019-10-07T10:33:29.000Z</Time>
            <Position>
              <LatitudeDegrees>40.60471949167549610137939453125</LatitudeDegrees>
              <LongitudeDegrees>-5.64134228043258190155029296875</LongitudeDegrees>
            </Position>
            <AltitudeMeters>913.79998779296875</AltitudeMeters>
            <DistanceMeters>NAN</DistanceMeters>
          </Trackpoint>
          <Trackpoint>
            <Time>2019-10-07T10:33:33.000Z</Time>
            <Position>
              <LatitudeDegrees>40.604601390659809112548828125</LatitudeDegrees>
              <LongitudeDegrees>-5.64143632538616657257080078125</LongitudeDegrees>
            </Position>
            <AltitudeMeters>915.4000244140625</AltitudeMeters>
            <DistanceMeters>NAN</DistanceMeters>
          </Trackpoint>
          <Trackpoint>
            <Time>2019-10-07T10:33:38.000Z</Time>
            <Position>
              <LatitudeDegrees>40.60445076785981655120849609375</LatitudeDegrees>
              <LongitudeDegrees>-5.6415559351444244384765625</LongitudeDegrees>
            </Position>
            <AltitudeMeters>915.79998779296875</AltitudeMeters>
            <DistanceMeters>NAN</DistanceMeters>
          </Trackpoint>
          <Trackpoint>
            <Time>2019-10-07T10:33:43.000Z</Time>
            <Position>
              <LatitudeDegrees>40.604298301041126251220703125</LatitudeDegrees>
              <LongitudeDegrees>-5.6416784785687923431396484375</LongitudeDegrees>
            </Position>
            <AltitudeMeters>916.4000244140625</AltitudeMeters>
            <DistanceMeters>NAN</DistanceMeters>
          </Trackpoint>
          <Trackpoint>
            <Time>2019-10-07T10:33:48.000Z</Time>
            <Position>
              <LatitudeDegrees>40.60415237210690975189208984375</LatitudeDegrees>
              <LongitudeDegrees>-5.64179490320384502410888671875</LongitudeDegrees>
            </Position>
            <AltitudeMeters>917.79998779296875</AltitudeMeters>
            <DistanceMeters>NAN</DistanceMeters>
          </Trackpoint>
          <Trackpoint>
            <Time>2019-10-07T10:33:49.000Z</Time>
            <Position>
              <LatitudeDegrees>40.60412353835999965667724609375</LatitudeDegrees>
              <LongitudeDegrees>-5.6418156065046787261962890625</LongitudeDegrees>
            </Position>
            <AltitudeMeters>918</AltitudeMeters>
            <DistanceMeters>NAN</DistanceMeters>
          </Trackpoint>
          <Trackpoint>
            <Time>2019-10-07T10:33:53.000Z</Time>
            <Position>
              <LatitudeDegrees>40.60400853864848613739013671875</LatitudeDegrees>
              <LongitudeDegrees>-5.64190797507762908935546875</LongitudeDegrees>
            </Position>
            <AltitudeMeters>919</AltitudeMeters>
            <DistanceMeters>NAN</DistanceMeters>
          </Trackpoint>
          <Trackpoint>
            <Time>2019-10-07T10:33:58.000Z</Time>
            <Position>
              <LatitudeDegrees>40.603865124285221099853515625</LatitudeDegrees>
              <LongitudeDegrees>-5.64201802946627140045166015625</LongitudeDegrees>
            </Position>
            <AltitudeMeters>919.5999755859375</AltitudeMeters>
            <DistanceMeters>NAN</DistanceMeters>
          </Trackpoint>
          <Trackpoint>
            <Time>2019-10-07T10:34:01.000Z</Time>
            <Position>
              <LatitudeDegrees>40.603783316910266876220703125</LatitudeDegrees>
              <LongitudeDegrees>-5.64208474941551685333251953125</LongitudeDegrees>
            </Position>
            <AltitudeMeters>920.4000244140625</AltitudeMeters>
            <DistanceMeters>NAN</DistanceMeters>
          </Trackpoint>
          <Trackpoint>
            <Time>2019-10-07T10:34:06.000Z</Time>
            <Position>
              <LatitudeDegrees>40.6036554090678691864013671875</LatitudeDegrees>
              <LongitudeDegrees>-5.64218432642519474029541015625</LongitudeDegrees>
            </Position>
            <AltitudeMeters>921.5999755859375</AltitudeMeters>
            <DistanceMeters>NAN</DistanceMeters>
          </Trackpoint>
          <Trackpoint>
            <Time>2019-10-07T10:34:07.000Z</Time>
            <Position>
              <LatitudeDegrees>40.60363001190125942230224609375</LatitudeDegrees>
              <LongitudeDegrees>-5.6422041915357112884521484375</LongitudeDegrees>
            </Position>
            <AltitudeMeters>921.5999755859375</AltitudeMeters>
            <DistanceMeters>NAN</DistanceMeters>
          </Trackpoint>
          <Trackpoint>
            <Time>2019-10-07T10:34:12.000Z</Time>
            <Position>
              <LatitudeDegrees>40.60349640436470508575439453125</LatitudeDegrees>
              <LongitudeDegrees>-5.64230318181216716766357421875</LongitudeDegrees>
            </Position>
            <AltitudeMeters>922.79998779296875</AltitudeMeters>
            <DistanceMeters>NAN</DistanceMeters>
          </Trackpoint>
          <Trackpoint>
            <Time>2019-10-07T10:34:16.000Z</Time>
            <Position>
              <LatitudeDegrees>40.6033940613269805908203125</LatitudeDegrees>
              <LongitudeDegrees>-5.6423740088939666748046875</LongitudeDegrees>
            </Position>
            <AltitudeMeters>923.4000244140625</AltitudeMeters>
            <DistanceMeters>NAN</DistanceMeters>
          </Trackpoint>
          <Trackpoint>
            <Time>2019-10-07T10:34:20.000Z</Time>
            <Position>
              <LatitudeDegrees>40.60328719206154346466064453125</LatitudeDegrees>
              <LongitudeDegrees>-5.64244902692735195159912109375</LongitudeDegrees>
            </Position>
            <AltitudeMeters>924.20001220703125</AltitudeMeters>
            <DistanceMeters>NAN</DistanceMeters>
          </Trackpoint>
          <Trackpoint>
            <Time>2019-10-07T10:34:25.000Z</Time>
            <Position>
              <LatitudeDegrees>40.60314235277473926544189453125</LatitudeDegrees>
              <LongitudeDegrees>-5.64255698584020137786865234375</LongitudeDegrees>
            </Position>
            <AltitudeMeters>924.79998779296875</AltitudeMeters>
            <DistanceMeters>NAN</DistanceMeters>
          </Trackpoint>
          <Trackpoint>
            <Time>2019-10-07T10:34:28.000Z</Time>
            <Position>
              <LatitudeDegrees>40.60305501334369182586669921875</LatitudeDegrees>
              <LongitudeDegrees>-5.64262705855071544647216796875</LongitudeDegrees>
            </Position>
            <AltitudeMeters>925.4000244140625</AltitudeMeters>
            <DistanceMeters>NAN</DistanceMeters>
          </Trackpoint>
          <Trackpoint>
            <Time>2019-10-07T10:34:36.000Z</Time>
            <Position>
              <LatitudeDegrees>40.60281948186457157135009765625</LatitudeDegrees>
              <LongitudeDegrees>-5.6428016535937786102294921875</LongitudeDegrees>
            </Position>
            <AltitudeMeters>926</AltitudeMeters>
            <DistanceMeters>NAN</DistanceMeters>
          </Trackpoint>
          <Trackpoint>
            <Time>2019-10-07T10:34:37.000Z</Time>
            <Position>
              <LatitudeDegrees>40.602790229022502899169921875</LatitudeDegrees>
              <LongitudeDegrees>-5.6428251229226589202880859375</LongitudeDegrees>
            </Position>
            <AltitudeMeters>926.5999755859375</AltitudeMeters>
            <DistanceMeters>NAN</DistanceMeters>
          </Trackpoint>
          <Trackpoint>
            <Time>2019-10-07T10:34:47.000Z</Time>
            <Position>
              <LatitudeDegrees>40.60247481800615787506103515625</LatitudeDegrees>
              <LongitudeDegrees>-5.6430628336966037750244140625</LongitudeDegrees>
            </Position>
            <AltitudeMeters>927</AltitudeMeters>
            <DistanceMeters>NAN</DistanceMeters>
          </Trackpoint>
          <Trackpoint>
            <Time>2019-10-07T10:34:57.000Z</Time>
            <Position>
              <LatitudeDegrees>40.60214540921151638031005859375</LatitudeDegrees>
              <LongitudeDegrees>-5.64330230467021465301513671875</LongitudeDegrees>
            </Position>
            <AltitudeMeters>927.4000244140625</AltitudeMeters>
            <DistanceMeters>NAN</DistanceMeters>
          </Trackpoint>
          <Trackpoint>
            <Time>2019-10-07T10:34:59.000Z</Time>
            <Position>
              <LatitudeDegrees>40.60207684524357318878173828125</LatitudeDegrees>
              <LongitudeDegrees>-5.6433528475463390350341796875</LongitudeDegrees>
            </Position>
            <AltitudeMeters>927.5999755859375</AltitudeMeters>
            <DistanceMeters>NAN</DistanceMeters>
          </Trackpoint>
          <Trackpoint>
            <Time>2019-10-07T10:35:06.000Z</Time>
            <Position>
              <LatitudeDegrees>40.601805858314037322998046875</LatitudeDegrees>
              <LongitudeDegrees>-5.64354638569056987762451171875</LongitudeDegrees>
            </Position>
            <AltitudeMeters>927.20001220703125</AltitudeMeters>
            <DistanceMeters>NAN</DistanceMeters>
          </Trackpoint>
          <Trackpoint>
            <Time>2019-10-07T10:35:10.000Z</Time>
            <Position>
              <LatitudeDegrees>40.60164400376379489898681640625</LatitudeDegrees>
              <LongitudeDegrees>-5.64365887083113193511962890625</LongitudeDegrees>
            </Position>
            <AltitudeMeters>927.4000244140625</AltitudeMeters>
            <DistanceMeters>NAN</DistanceMeters>
          </Trackpoint>
          <Trackpoint>
            <Time>2019-10-07T10:35:16.000Z</Time>
            <Position>
              <LatitudeDegrees>40.601398162543773651123046875</LatitudeDegrees>
              <LongitudeDegrees>-5.643834136426448822021484375</LongitudeDegrees>
            </Position>
            <AltitudeMeters>927.5999755859375</AltitudeMeters>
            <DistanceMeters>NAN</DistanceMeters>
          </Trackpoint>
          <Trackpoint>
            <Time>2019-10-07T10:35:17.000Z</Time>
            <Position>
              <LatitudeDegrees>40.60135759413242340087890625</LatitudeDegrees>
              <LongitudeDegrees>-5.643864981830120086669921875</LongitudeDegrees>
            </Position>
            <AltitudeMeters>927.5999755859375</AltitudeMeters>
            <DistanceMeters>NAN</DistanceMeters>
          </Trackpoint>
          <Trackpoint>
            <Time>2019-10-07T10:35:22.000Z</Time>
            <Position>
              <LatitudeDegrees>40.60114678926765918731689453125</LatitudeDegrees>
              <LongitudeDegrees>-5.6440160237252712249755859375</LongitudeDegrees>
            </Position>
            <AltitudeMeters>927.4000244140625</AltitudeMeters>
            <DistanceMeters>NAN</DistanceMeters>
          </Trackpoint>
          <Trackpoint>
            <Time>2019-10-07T10:35:25.000Z</Time>
            <Position>
              <LatitudeDegrees>40.6010130979120731353759765625</LatitudeDegrees>
              <LongitudeDegrees>-5.64410914666950702667236328125</LongitudeDegrees>
            </Position>
            <AltitudeMeters>927.4000244140625</AltitudeMeters>
            <DistanceMeters>NAN</DistanceMeters>
          </Trackpoint>
          <Trackpoint>
            <Time>2019-10-07T10:35:29.000Z</Time>
            <Position>
              <LatitudeDegrees>40.600820817053318023681640625</LatitudeDegrees>
              <LongitudeDegrees>-5.6442497111856937408447265625</LongitudeDegrees>
            </Position>
            <AltitudeMeters>927.20001220703125</AltitudeMeters>
            <DistanceMeters>NAN</DistanceMeters>
          </Trackpoint>
          <Trackpoint>
            <Time>2019-10-07T10:35:33.000Z</Time>
            <Position>
              <LatitudeDegrees>40.6006241776049137115478515625</LatitudeDegrees>
              <LongitudeDegrees>-5.644397735595703125</LongitudeDegrees>
            </Position>
            <AltitudeMeters>926.4000244140625</AltitudeMeters>
            <DistanceMeters>NAN</DistanceMeters>
          </Trackpoint>
          <Trackpoint>
            <Time>2019-10-07T10:35:35.000Z</Time>
            <Position>
              <LatitudeDegrees>40.6005246005952358245849609375</LatitudeDegrees>
              <LongitudeDegrees>-5.64447241835296154022216796875</LongitudeDegrees>
            </Position>
            <AltitudeMeters>926.20001220703125</AltitudeMeters>
            <DistanceMeters>NAN</DistanceMeters>
          </Trackpoint>
          <Trackpoint>
            <Time>2019-10-07T10:35:40.000Z</Time>
            <Position>
              <LatitudeDegrees>40.600272305309772491455078125</LatitudeDegrees>
              <LongitudeDegrees>-5.644659586250782012939453125</LongitudeDegrees>
            </Position>
            <AltitudeMeters>926.4000244140625</AltitudeMeters>
            <DistanceMeters>NAN</DistanceMeters>
          </Trackpoint>
          <Trackpoint>
            <Time>2019-10-07T10:35:45.000Z</Time>
            <Position>
              <LatitudeDegrees>40.60001925565302371978759765625</LatitudeDegrees>
              <LongitudeDegrees>-5.6448552198708057403564453125</LongitudeDegrees>
            </Position>
            <AltitudeMeters>925.5999755859375</AltitudeMeters>
            <DistanceMeters>NAN</DistanceMeters>
          </Trackpoint>
          <Trackpoint>
            <Time>2019-10-07T10:35:46.000Z</Time>
            <Position>
              <LatitudeDegrees>40.59996946714818477630615234375</LatitudeDegrees>
              <LongitudeDegrees>-5.644895620644092559814453125</LongitudeDegrees>
            </Position>
            <AltitudeMeters>925.5999755859375</AltitudeMeters>
            <DistanceMeters>NAN</DistanceMeters>
          </Trackpoint>
          <Trackpoint>
            <Time>2019-10-07T10:35:50.000Z</Time>
            <Position>
              <LatitudeDegrees>40.59976846911013126373291015625</LatitudeDegrees>
              <LongitudeDegrees>-5.645043812692165374755859375</LongitudeDegrees>
            </Position>
            <AltitudeMeters>926</AltitudeMeters>
            <DistanceMeters>NAN</DistanceMeters>
          </Trackpoint>
          <Trackpoint>
            <Time>2019-10-07T10:35:56.000Z</Time>
            <Position>
              <LatitudeDegrees>40.5994725041091442108154296875</LatitudeDegrees>
              <LongitudeDegrees>-5.64526383765041828155517578125</LongitudeDegrees>
            </Position>
            <AltitudeMeters>926</AltitudeMeters>
            <DistanceMeters>NAN</DistanceMeters>
          </Trackpoint>
          <Trackpoint>
            <Time>2019-10-07T10:36:06.000Z</Time>
            <Position>
              <LatitudeDegrees>40.598984844982624053955078125</LatitudeDegrees>
              <LongitudeDegrees>-5.64562090672552585601806640625</LongitudeDegrees>
            </Position>
            <AltitudeMeters>926.20001220703125</AltitudeMeters>
            <DistanceMeters>NAN</DistanceMeters>
          </Trackpoint>
          <Trackpoint>
            <Time>2019-10-07T10:36:11.000Z</Time>
            <Position>
              <LatitudeDegrees>40.5987479723989963531494140625</LatitudeDegrees>
              <LongitudeDegrees>-5.64580011181533336639404296875</LongitudeDegrees>
            </Position>
            <AltitudeMeters>927.20001220703125</AltitudeMeters>
            <DistanceMeters>NAN</DistanceMeters>
          </Trackpoint>
          <Trackpoint>
            <Time>2019-10-07T10:36:15.000Z</Time>
            <Position>
              <LatitudeDegrees>40.5985699407756328582763671875</LatitudeDegrees>
              <LongitudeDegrees>-5.6459398381412029266357421875</LongitudeDegrees>
            </Position>
            <AltitudeMeters>927.79998779296875</AltitudeMeters>
            <DistanceMeters>NAN</DistanceMeters>
          </Trackpoint>
          <Trackpoint>
            <Time>2019-10-07T10:36:17.000Z</Time>
            <Position>
              <LatitudeDegrees>40.59848637320101261138916015625</LatitudeDegrees>
              <LongitudeDegrees>-5.646005384624004364013671875</LongitudeDegrees>
            </Position>
            <AltitudeMeters>928.20001220703125</AltitudeMeters>
            <DistanceMeters>NAN</DistanceMeters>
          </Trackpoint>
          <Trackpoint>
            <Time>2019-10-07T10:36:22.000Z</Time>
            <Position>
              <LatitudeDegrees>40.59828319586813449859619140625</LatitudeDegrees>
              <LongitudeDegrees>-5.64616522751748561859130859375</LongitudeDegrees>
            </Position>
            <AltitudeMeters>929</AltitudeMeters>
            <DistanceMeters>NAN</DistanceMeters>
          </Trackpoint>
          <Trackpoint>
            <Time>2019-10-07T10:36:28.000Z</Time>
            <Position>
              <LatitudeDegrees>40.59803676791489124298095703125</LatitudeDegrees>
              <LongitudeDegrees>-5.64634409733116626739501953125</LongitudeDegrees>
            </Position>
            <AltitudeMeters>929.4000244140625</AltitudeMeters>
            <DistanceMeters>NAN</DistanceMeters>
          </Trackpoint>
          <Trackpoint>
            <Time>2019-10-07T10:36:36.000Z</Time>
            <Position>
              <LatitudeDegrees>40.59771004132926464080810546875</LatitudeDegrees>
              <LongitudeDegrees>-5.64659488387405872344970703125</LongitudeDegrees>
            </Position>
            <AltitudeMeters>930</AltitudeMeters>
            <DistanceMeters>NAN</DistanceMeters>
          </Trackpoint>
          <Trackpoint>
            <Time>2019-10-07T10:36:40.000Z</Time>
            <Position>
              <LatitudeDegrees>40.59754374437034130096435546875</LatitudeDegrees>
              <LongitudeDegrees>-5.6467233784496784210205078125</LongitudeDegrees>
            </Position>
            <AltitudeMeters>930.20001220703125</AltitudeMeters>
            <DistanceMeters>NAN</DistanceMeters>
          </Trackpoint>
          <Trackpoint>
            <Time>2019-10-07T10:36:47.000Z</Time>
            <Position>
              <LatitudeDegrees>40.5972516350448131561279296875</LatitudeDegrees>
              <LongitudeDegrees>-5.64694675616919994354248046875</LongitudeDegrees>
            </Position>
            <AltitudeMeters>930.5999755859375</AltitudeMeters>
            <DistanceMeters>NAN</DistanceMeters>
          </Trackpoint>
          <Trackpoint>
            <Time>2019-10-07T10:36:56.000Z</Time>
            <Position>
              <LatitudeDegrees>40.59687252156436443328857421875</LatitudeDegrees>
              <LongitudeDegrees>-5.647224448621273040771484375</LongitudeDegrees>
            </Position>
            <AltitudeMeters>931.4000244140625</AltitudeMeters>
            <DistanceMeters>NAN</DistanceMeters>
          </Trackpoint>
          <Trackpoint>
            <Time>2019-10-07T10:36:57.000Z</Time>
            <Position>
              <LatitudeDegrees>40.59683044441044330596923828125</LatitudeDegrees>
              <LongitudeDegrees>-5.647257305681705474853515625</LongitudeDegrees>
            </Position>
            <AltitudeMeters>931.20001220703125</AltitudeMeters>
            <DistanceMeters>NAN</DistanceMeters>
          </Trackpoint>
          <Trackpoint>
            <Time>2019-10-07T10:37:07.000Z</Time>
            <Position>
              <LatitudeDegrees>40.59641755186021327972412109375</LatitudeDegrees>
              <LongitudeDegrees>-5.64756601117551326751708984375</LongitudeDegrees>
            </Position>
            <AltitudeMeters>931.4000244140625</AltitudeMeters>
            <DistanceMeters>NAN</DistanceMeters>
          </Trackpoint>
          <Trackpoint>
            <Time>2019-10-07T10:37:16.000Z</Time>
            <Position>
              <LatitudeDegrees>40.596034415066242218017578125</LatitudeDegrees>
              <LongitudeDegrees>-5.647849403321743011474609375</LongitudeDegrees>
            </Position>
            <AltitudeMeters>931.5999755859375</AltitudeMeters>
            <DistanceMeters>NAN</DistanceMeters>
          </Trackpoint>
          <Trackpoint>
            <Time>2019-10-07T10:37:27.000Z</Time>
            <Position>
              <LatitudeDegrees>40.59556134045124053955078125</LatitudeDegrees>
              <LongitudeDegrees>-5.64820043742656707763671875</LongitudeDegrees>
            </Position>
            <AltitudeMeters>932.20001220703125</AltitudeMeters>
            <DistanceMeters>NAN</DistanceMeters>
          </Trackpoint>
          <Trackpoint>
            <Time>2019-10-07T10:37:34.000Z</Time>
            <Position>
              <LatitudeDegrees>40.59525162912905216217041015625</LatitudeDegrees>
              <LongitudeDegrees>-5.648429095745086669921875</LongitudeDegrees>
            </Position>
            <AltitudeMeters>931.79998779296875</AltitudeMeters>
            <DistanceMeters>NAN</DistanceMeters>
          </Trackpoint>
          <Trackpoint>
            <Time>2019-10-07T10:37:45.000Z</Time>
            <Position>
              <LatitudeDegrees>40.59478576295077800750732421875</LatitudeDegrees>
              <LongitudeDegrees>-5.64878691919147968292236328125</LongitudeDegrees>
            </Position>
            <AltitudeMeters>932.5999755859375</AltitudeMeters>
            <DistanceMeters>NAN</DistanceMeters>
          </Trackpoint>
          <Trackpoint>
            <Time>2019-10-07T10:37:46.000Z</Time>
            <Position>
              <LatitudeDegrees>40.5947444401681423187255859375</LatitudeDegrees>
              <LongitudeDegrees>-5.6488193571567535400390625</LongitudeDegrees>
            </Position>
            <AltitudeMeters>932.5999755859375</AltitudeMeters>
            <DistanceMeters>NAN</DistanceMeters>
          </Trackpoint>
          <Trackpoint>
            <Time>2019-10-07T10:37:54.000Z</Time>
            <Position>
              <LatitudeDegrees>40.594417043030261993408203125</LatitudeDegrees>
              <LongitudeDegrees>-5.649064444005489349365234375</LongitudeDegrees>
            </Position>
            <AltitudeMeters>933.5999755859375</AltitudeMeters>
            <DistanceMeters>NAN</DistanceMeters>
          </Trackpoint>
          <Trackpoint>
            <Time>2019-10-07T10:37:56.000Z</Time>
            <Position>
              <LatitudeDegrees>40.59433565475046634674072265625</LatitudeDegrees>
              <LongitudeDegrees>-5.6491239555180072784423828125</LongitudeDegrees>
            </Position>
            <AltitudeMeters>933.79998779296875</AltitudeMeters>
            <DistanceMeters>NAN</DistanceMeters>
          </Trackpoint>
          <Trackpoint>
            <Time>2019-10-07T10:38:03.000Z</Time>
            <Position>
              <LatitudeDegrees>40.59406198561191558837890625</LatitudeDegrees>
              <LongitudeDegrees>-5.6493271328508853912353515625</LongitudeDegrees>
            </Position>
            <AltitudeMeters>935</AltitudeMeters>
            <DistanceMeters>NAN</DistanceMeters>
          </Trackpoint>
          <Trackpoint>
            <Time>2019-10-07T10:38:13.000Z</Time>
            <Position>
              <LatitudeDegrees>40.59365387074649333953857421875</LatitudeDegrees>
              <LongitudeDegrees>-5.6496347486972808837890625</LongitudeDegrees>
            </Position>
            <AltitudeMeters>936.20001220703125</AltitudeMeters>
            <DistanceMeters>NAN</DistanceMeters>
          </Trackpoint>
          <Trackpoint>
            <Time>2019-10-07T10:38:14.000Z</Time>
            <Position>
              <LatitudeDegrees>40.5936152301728725433349609375</LatitudeDegrees>
              <LongitudeDegrees>-5.64966416917741298675537109375</LongitudeDegrees>
            </Position>
            <AltitudeMeters>935.79998779296875</AltitudeMeters>
            <DistanceMeters>NAN</DistanceMeters>
          </Trackpoint>
          <Trackpoint>
            <Time>2019-10-07T10:38:24.000Z</Time>
            <Position>
              <LatitudeDegrees>40.59322656132280826568603515625</LatitudeDegrees>
              <LongitudeDegrees>-5.64996072091162204742431640625</LongitudeDegrees>
            </Position>
            <AltitudeMeters>937.4000244140625</AltitudeMeters>
            <DistanceMeters>NAN</DistanceMeters>
          </Trackpoint>
          <Trackpoint>
            <Time>2019-10-07T10:38:32.000Z</Time>
            <Position>
              <LatitudeDegrees>40.59290838427841663360595703125</LatitudeDegrees>
              <LongitudeDegrees>-5.65019725821912288665771484375</LongitudeDegrees>
            </Position>
            <AltitudeMeters>937.79998779296875</AltitudeMeters>
            <DistanceMeters>NAN</DistanceMeters>
          </Trackpoint>
          <Trackpoint>
            <Time>2019-10-07T10:38:35.000Z</Time>
            <Position>
              <LatitudeDegrees>40.59279053471982479095458984375</LatitudeDegrees>
              <LongitudeDegrees>-5.65028325654566287994384765625</LongitudeDegrees>
            </Position>
            <AltitudeMeters>938.4000244140625</AltitudeMeters>
            <DistanceMeters>NAN</DistanceMeters>
          </Trackpoint>
          <Trackpoint>
            <Time>2019-10-07T10:38:41.000Z</Time>
            <Position>
              <LatitudeDegrees>40.592556260526180267333984375</LatitudeDegrees>
              <LongitudeDegrees>-5.65046849660575389862060546875</LongitudeDegrees>
            </Position>
            <AltitudeMeters>939.4000244140625</AltitudeMeters>
            <DistanceMeters>NAN</DistanceMeters>
          </Trackpoint>
          <Trackpoint>
            <Time>2019-10-07T10:38:47.000Z</Time>
            <Position>
              <LatitudeDegrees>40.5923187173902988433837890625</LatitudeDegrees>
              <LongitudeDegrees>-5.65064736641943454742431640625</LongitudeDegrees>
            </Position>
            <AltitudeMeters>939.5999755859375</AltitudeMeters>
            <DistanceMeters>NAN</DistanceMeters>
          </Trackpoint>
          <Trackpoint>
            <Time>2019-10-07T10:38:53.000Z</Time>
            <Position>
              <LatitudeDegrees>40.5920806713402271270751953125</LatitudeDegrees>
              <LongitudeDegrees>-5.65082103945314884185791015625</LongitudeDegrees>
            </Position>
            <AltitudeMeters>940.5999755859375</AltitudeMeters>
            <DistanceMeters>NAN</DistanceMeters>
          </Trackpoint>
          <Trackpoint>
            <Time>2019-10-07T10:39:00.000Z</Time>
            <Position>
              <LatitudeDegrees>40.59180800803005695343017578125</LatitudeDegrees>
              <LongitudeDegrees>-5.6510273180902004241943359375</LongitudeDegrees>
            </Position>
            <AltitudeMeters>941.20001220703125</AltitudeMeters>
            <DistanceMeters>NAN</DistanceMeters>
          </Trackpoint>
          <Trackpoint>
            <Time>2019-10-07T10:39:02.000Z</Time>
            <Position>
              <LatitudeDegrees>40.5917282961308956146240234375</LatitudeDegrees>
              <LongitudeDegrees>-5.6510900147259235382080078125</LongitudeDegrees>
            </Position>
            <AltitudeMeters>941.5999755859375</AltitudeMeters>
            <DistanceMeters>NAN</DistanceMeters>
          </Trackpoint>
          <Trackpoint>
            <Time>2019-10-07T10:39:11.000Z</Time>
            <Position>
              <LatitudeDegrees>40.591356642544269561767578125</LatitudeDegrees>
              <LongitudeDegrees>-5.65137541852891445159912109375</LongitudeDegrees>
            </Position>
            <AltitudeMeters>941.4000244140625</AltitudeMeters>
            <DistanceMeters>NAN</DistanceMeters>
          </Trackpoint>
          <Trackpoint>
            <Time>2019-10-07T10:39:17.000Z</Time>
            <Position>
              <LatitudeDegrees>40.5910929478704929351806640625</LatitudeDegrees>
              <LongitudeDegrees>-5.65157507546246051788330078125</LongitudeDegrees>
            </Position>
            <AltitudeMeters>941.4000244140625</AltitudeMeters>
            <DistanceMeters>NAN</DistanceMeters>
          </Trackpoint>
          <Trackpoint>
            <Time>2019-10-07T10:39:21.000Z</Time>
            <Position>
              <LatitudeDegrees>40.59090100228786468505859375</LatitudeDegrees>
              <LongitudeDegrees>-5.65171857364475727081298828125</LongitudeDegrees>
            </Position>
            <AltitudeMeters>940.5999755859375</AltitudeMeters>
            <DistanceMeters>NAN</DistanceMeters>
          </Trackpoint>
          <Trackpoint>
            <Time>2019-10-07T10:39:22.000Z</Time>
            <Position>
              <LatitudeDegrees>40.5908508785068988800048828125</LatitudeDegrees>
              <LongitudeDegrees>-5.65175729803740978240966796875</LongitudeDegrees>
            </Position>
            <AltitudeMeters>940.4000244140625</AltitudeMeters>
            <DistanceMeters>NAN</DistanceMeters>
          </Trackpoint>
          <Trackpoint>
            <Time>2019-10-07T10:39:25.000Z</Time>
            <Position>
              <LatitudeDegrees>40.5906943045556545257568359375</LatitudeDegrees>
              <LongitudeDegrees>-5.6518862955272197723388671875</LongitudeDegrees>
            </Position>
            <AltitudeMeters>939.79998779296875</AltitudeMeters>
            <DistanceMeters>NAN</DistanceMeters>
          </Trackpoint>
          <Trackpoint>
            <Time>2019-10-07T10:39:26.000Z</Time>
            <Position>
              <LatitudeDegrees>40.59063613414764404296875</LatitudeDegrees>
              <LongitudeDegrees>-5.65192912705242633819580078125</LongitudeDegrees>
            </Position>
            <AltitudeMeters>939</AltitudeMeters>
            <DistanceMeters>NAN</DistanceMeters>
          </Trackpoint>
          <Trackpoint>
            <Time>2019-10-07T10:39:28.000Z</Time>
            <Position>
              <LatitudeDegrees>40.59051602147519588470458984375</LatitudeDegrees>
              <LongitudeDegrees>-5.65201587975025177001953125</LongitudeDegrees>
            </Position>
            <AltitudeMeters>938.5999755859375</AltitudeMeters>
            <DistanceMeters>NAN</DistanceMeters>
          </Trackpoint>
          <Trackpoint>
            <Time>2019-10-07T10:39:30.000Z</Time>
            <Position>
              <LatitudeDegrees>40.5903908796608448028564453125</LatitudeDegrees>
              <LongitudeDegrees>-5.65211134962737560272216796875</LongitudeDegrees>
            </Position>
            <AltitudeMeters>938</AltitudeMeters>
            <DistanceMeters>NAN</DistanceMeters>
          </Trackpoint>
          <Trackpoint>
            <Time>2019-10-07T10:39:34.000Z</Time>
            <Position>
              <LatitudeDegrees>40.59011972509324550628662109375</LatitudeDegrees>
              <LongitudeDegrees>-5.65231502987444400787353515625</LongitudeDegrees>
            </Position>
            <AltitudeMeters>936.4000244140625</AltitudeMeters>
            <DistanceMeters>NAN</DistanceMeters>
          </Trackpoint>
          <Trackpoint>
            <Time>2019-10-07T10:39:35.000Z</Time>
            <Position>
              <LatitudeDegrees>40.59004965238273143768310546875</LatitudeDegrees>
              <LongitudeDegrees>-5.652370937168598175048828125</LongitudeDegrees>
            </Position>
            <AltitudeMeters>936</AltitudeMeters>
            <DistanceMeters>NAN</DistanceMeters>
          </Trackpoint>
          <Trackpoint>
            <Time>2019-10-07T10:39:36.000Z</Time>
            <Position>
              <LatitudeDegrees>40.5899776518344879150390625</LatitudeDegrees>
              <LongitudeDegrees>-5.65242357552051544189453125</LongitudeDegrees>
            </Position>
            <AltitudeMeters>935.20001220703125</AltitudeMeters>
            <DistanceMeters>NAN</DistanceMeters>
          </Trackpoint>
          <Trackpoint>
            <Time>2019-10-07T10:39:38.000Z</Time>
            <Position>
              <LatitudeDegrees>40.58983155526220798492431640625</LatitudeDegrees>
              <LongitudeDegrees>-5.652534551918506622314453125</LongitudeDegrees>
            </Position>
            <AltitudeMeters>934.5999755859375</AltitudeMeters>
            <DistanceMeters>NAN</DistanceMeters>
          </Trackpoint>
          <Trackpoint>
            <Time>2019-10-07T10:39:39.000Z</Time>
            <Position>
              <LatitudeDegrees>40.5897548608481884002685546875</LatitudeDegrees>
              <LongitudeDegrees>-5.6525886990129947662353515625</LongitudeDegrees>
            </Position>
            <AltitudeMeters>934.4000244140625</AltitudeMeters>
            <DistanceMeters>NAN</DistanceMeters>
          </Trackpoint>
          <Trackpoint>
            <Time>2019-10-07T10:39:40.000Z</Time>
            <Position>
              <LatitudeDegrees>40.5896794237196445465087890625</LatitudeDegrees>
              <LongitudeDegrees>-5.65264485776424407958984375</LongitudeDegrees>
            </Position>
            <AltitudeMeters>933.5999755859375</AltitudeMeters>
            <DistanceMeters>NAN</DistanceMeters>
          </Trackpoint>
          <Trackpoint>
            <Time>2019-10-07T10:39:42.000Z</Time>
            <Position>
              <LatitudeDegrees>40.589527375996112823486328125</LatitudeDegrees>
              <LongitudeDegrees>-5.65276111476123332977294921875</LongitudeDegrees>
            </Position>
            <AltitudeMeters>932.5999755859375</AltitudeMeters>
            <DistanceMeters>NAN</DistanceMeters>
          </Trackpoint>
          <Trackpoint>
            <Time>2019-10-07T10:39:44.000Z</Time>
            <Position>
              <LatitudeDegrees>40.58937004767358303070068359375</LatitudeDegrees>
              <LongitudeDegrees>-5.65287510864436626434326171875</LongitudeDegrees>
            </Position>
            <AltitudeMeters>931.5999755859375</AltitudeMeters>
            <DistanceMeters>NAN</DistanceMeters>
          </Trackpoint>
          <Trackpoint>
            <Time>2019-10-07T10:39:49.000Z</Time>
            <Position>
              <LatitudeDegrees>40.5889780260622501373291015625</LatitudeDegrees>
              <LongitudeDegrees>-5.6531750969588756561279296875</LongitudeDegrees>
            </Position>
            <AltitudeMeters>930.4000244140625</AltitudeMeters>
            <DistanceMeters>NAN</DistanceMeters>
          </Trackpoint>
          <Trackpoint>
            <Time>2019-10-07T10:39:50.000Z</Time>
            <Position>
              <LatitudeDegrees>40.5888995714485645294189453125</LatitudeDegrees>
              <LongitudeDegrees>-5.65323167480528354644775390625</LongitudeDegrees>
            </Position>
            <AltitudeMeters>930.20001220703125</AltitudeMeters>
            <DistanceMeters>NAN</DistanceMeters>
          </Trackpoint>
          <Trackpoint>
            <Time>2019-10-07T10:39:57.000Z</Time>
            <Position>
              <LatitudeDegrees>40.5883939750492572784423828125</LatitudeDegrees>
              <LongitudeDegrees>-5.65362160094082355499267578125</LongitudeDegrees>
            </Position>
            <AltitudeMeters>930.4000244140625</AltitudeMeters>
            <DistanceMeters>NAN</DistanceMeters>
          </Trackpoint>
          <Trackpoint>
            <Time>2019-10-07T10:39:59.000Z</Time>
            <Position>
              <LatitudeDegrees>40.58826128952205181121826171875</LatitudeDegrees>
              <LongitudeDegrees>-5.6537192501127719879150390625</LongitudeDegrees>
            </Position>
            <AltitudeMeters>930.5999755859375</AltitudeMeters>
            <DistanceMeters>NAN</DistanceMeters>
          </Trackpoint>
          <Trackpoint>
            <Time>2019-10-07T10:40:03.000Z</Time>
            <Position>
              <LatitudeDegrees>40.5880077369511127471923828125</LatitudeDegrees>
              <LongitudeDegrees>-5.6538962759077548980712890625</LongitudeDegrees>
            </Position>
            <AltitudeMeters>930.79998779296875</AltitudeMeters>
            <DistanceMeters>NAN</DistanceMeters>
          </Trackpoint>
          <Trackpoint>
            <Time>2019-10-07T10:40:08.000Z</Time>
            <Position>
              <LatitudeDegrees>40.58769852854311466217041015625</LatitudeDegrees>
              <LongitudeDegrees>-5.6541085056960582733154296875</LongitudeDegrees>
            </Position>
            <AltitudeMeters>931</AltitudeMeters>
            <DistanceMeters>NAN</DistanceMeters>
          </Trackpoint>
          <Trackpoint>
            <Time>2019-10-07T10:40:14.000Z</Time>
            <Position>
              <LatitudeDegrees>40.5873405374586582183837890625</LatitudeDegrees>
              <LongitudeDegrees>-5.65434697084128856658935546875</LongitudeDegrees>
            </Position>
            <AltitudeMeters>931.4000244140625</AltitudeMeters>
            <DistanceMeters>NAN</DistanceMeters>
          </Trackpoint>
          <Trackpoint>
            <Time>2019-10-07T10:40:19.000Z</Time>
            <Position>
              <LatitudeDegrees>40.58704071678221225738525390625</LatitudeDegrees>
              <LongitudeDegrees>-5.65454444848001003265380859375</LongitudeDegrees>
            </Position>
            <AltitudeMeters>931.5999755859375</AltitudeMeters>
            <DistanceMeters>NAN</DistanceMeters>
          </Trackpoint>
          <Trackpoint>
            <Time>2019-10-07T10:40:24.000Z</Time>
            <Position>
              <LatitudeDegrees>40.5867455899715423583984375</LatitudeDegrees>
              <LongitudeDegrees>-5.6547482125461101531982421875</LongitudeDegrees>
            </Position>
            <AltitudeMeters>931.20001220703125</AltitudeMeters>
            <DistanceMeters>NAN</DistanceMeters>
          </Trackpoint>
          <Trackpoint>
            <Time>2019-10-07T10:40:29.000Z</Time>
            <Position>
              <LatitudeDegrees>40.58648332022130489349365234375</LatitudeDegrees>
              <LongitudeDegrees>-5.6549825705587863922119140625</LongitudeDegrees>
            </Position>
            <AltitudeMeters>932</AltitudeMeters>
            <DistanceMeters>NAN</DistanceMeters>
          </Trackpoint>
          <Trackpoint>
            <Time>2019-10-07T10:40:31.000Z</Time>
            <Position>
              <LatitudeDegrees>40.58638793416321277618408203125</LatitudeDegrees>
              <LongitudeDegrees>-5.65507334657013416290283203125</LongitudeDegrees>
            </Position>
            <AltitudeMeters>932.4000244140625</AltitudeMeters>
            <DistanceMeters>NAN</DistanceMeters>
          </Trackpoint>
          <Trackpoint>
            <Time>2019-10-07T10:40:32.000Z</Time>
            <Position>
              <LatitudeDegrees>40.58634652756154537200927734375</LatitudeDegrees>
              <LongitudeDegrees>-5.65511911176145076751708984375</LongitudeDegrees>
            </Position>
            <AltitudeMeters>932.79998779296875</AltitudeMeters>
            <DistanceMeters>NAN</DistanceMeters>
          </Trackpoint>
          <Trackpoint>
            <Time>2019-10-07T10:40:37.000Z</Time>
            <Position>
              <LatitudeDegrees>40.58616690337657928466796875</LatitudeDegrees>
              <LongitudeDegrees>-5.65533570013940334320068359375</LongitudeDegrees>
            </Position>
            <AltitudeMeters>934</AltitudeMeters>
            <DistanceMeters>NAN</DistanceMeters>
          </Trackpoint>
          <Trackpoint>
            <Time>2019-10-07T10:40:41.000Z</Time>
            <Position>
              <LatitudeDegrees>40.58604896999895572662353515625</LatitudeDegrees>
              <LongitudeDegrees>-5.65549780614674091339111328125</LongitudeDegrees>
            </Position>
            <AltitudeMeters>935</AltitudeMeters>
            <DistanceMeters>NAN</DistanceMeters>
          </Trackpoint>
          <Trackpoint>
            <Time>2019-10-07T10:40:45.000Z</Time>
            <Position>
              <LatitudeDegrees>40.58593966998159885406494140625</LatitudeDegrees>
              <LongitudeDegrees>-5.65566611476242542266845703125</LongitudeDegrees>
            </Position>
            <AltitudeMeters>936.20001220703125</AltitudeMeters>
            <DistanceMeters>NAN</DistanceMeters>
          </Trackpoint>
          <Trackpoint>
            <Time>2019-10-07T10:40:46.000Z</Time>
            <Position>
              <LatitudeDegrees>40.58591544628143310546875</LatitudeDegrees>
              <LongitudeDegrees>-5.655708946287631988525390625</LongitudeDegrees>
            </Position>
            <AltitudeMeters>936.4000244140625</AltitudeMeters>
            <DistanceMeters>NAN</DistanceMeters>
          </Trackpoint>
          <Trackpoint>
            <Time>2019-10-07T10:40:49.000Z</Time>
            <Position>
              <LatitudeDegrees>40.58583657257258892059326171875</LatitudeDegrees>
              <LongitudeDegrees>-5.65583626739680767059326171875</LongitudeDegrees>
            </Position>
            <AltitudeMeters>937.20001220703125</AltitudeMeters>
            <DistanceMeters>NAN</DistanceMeters>
          </Trackpoint>
          <Trackpoint>
            <Time>2019-10-07T10:40:52.000Z</Time>
            <Position>
              <LatitudeDegrees>40.5857573635876178741455078125</LatitudeDegrees>
              <LongitudeDegrees>-5.655968450009822845458984375</LongitudeDegrees>
            </Position>
            <AltitudeMeters>937.20001220703125</AltitudeMeters>
            <DistanceMeters>NAN</DistanceMeters>
          </Trackpoint>
          <Trackpoint>
            <Time>2019-10-07T10:40:55.000Z</Time>
            <Position>
              <LatitudeDegrees>40.5856738798320293426513671875</LatitudeDegrees>
              <LongitudeDegrees>-5.65610012970864772796630859375</LongitudeDegrees>
            </Position>
            <AltitudeMeters>937.4000244140625</AltitudeMeters>
            <DistanceMeters>NAN</DistanceMeters>
          </Trackpoint>
          <Trackpoint>
            <Time>2019-10-07T10:41:01.000Z</Time>
            <Position>
              <LatitudeDegrees>40.58551219291985034942626953125</LatitudeDegrees>
              <LongitudeDegrees>-5.65636902116239070892333984375</LongitudeDegrees>
            </Position>
            <AltitudeMeters>938.4000244140625</AltitudeMeters>
            <DistanceMeters>NAN</DistanceMeters>
          </Trackpoint>
          <Trackpoint>
            <Time>2019-10-07T10:41:07.000Z</Time>
            <Position>
              <LatitudeDegrees>40.58535310439765453338623046875</LatitudeDegrees>
              <LongitudeDegrees>-5.65664394758641719818115234375</LongitudeDegrees>
            </Position>
            <AltitudeMeters>938.79998779296875</AltitudeMeters>
            <DistanceMeters>NAN</DistanceMeters>
          </Trackpoint>
          <Trackpoint>
            <Time>2019-10-07T10:41:16.000Z</Time>
            <Position>
              <LatitudeDegrees>40.5850901640951633453369140625</LatitudeDegrees>
              <LongitudeDegrees>-5.6570859253406524658203125</LongitudeDegrees>
            </Position>
            <AltitudeMeters>938.5999755859375</AltitudeMeters>
            <DistanceMeters>NAN</DistanceMeters>
          </Trackpoint>
          <Trackpoint>
            <Time>2019-10-07T10:41:22.000Z</Time>
            <Position>
              <LatitudeDegrees>40.58489494957029819488525390625</LatitudeDegrees>
              <LongitudeDegrees>-5.6574156694114208221435546875</LongitudeDegrees>
            </Position>
            <AltitudeMeters>938.4000244140625</AltitudeMeters>
            <DistanceMeters>NAN</DistanceMeters>
          </Trackpoint>
          <Trackpoint>
            <Time>2019-10-07T10:41:28.000Z</Time>
            <Position>
              <LatitudeDegrees>40.5846641957759857177734375</LatitudeDegrees>
              <LongitudeDegrees>-5.6577898375689983367919921875</LongitudeDegrees>
            </Position>
            <AltitudeMeters>937.4000244140625</AltitudeMeters>
            <DistanceMeters>NAN</DistanceMeters>
          </Trackpoint>
          <Trackpoint>
            <Time>2019-10-07T10:41:29.000Z</Time>
            <Position>
              <LatitudeDegrees>40.5846226215362548828125</LatitudeDegrees>
              <LongitudeDegrees>-5.657852031290531158447265625</LongitudeDegrees>
            </Position>
            <AltitudeMeters>937.4000244140625</AltitudeMeters>
            <DistanceMeters>NAN</DistanceMeters>
          </Trackpoint>
          <Trackpoint>
            <Time>2019-10-07T10:41:34.000Z</Time>
            <Position>
              <LatitudeDegrees>40.584383569657802581787109375</LatitudeDegrees>
              <LongitudeDegrees>-5.658157803118228912353515625</LongitudeDegrees>
            </Position>
            <AltitudeMeters>936.4000244140625</AltitudeMeters>
            <DistanceMeters>NAN</DistanceMeters>
          </Trackpoint>
          <Trackpoint>
            <Time>2019-10-07T10:41:35.000Z</Time>
            <Position>
              <LatitudeDegrees>40.5843307636678218841552734375</LatitudeDegrees>
              <LongitudeDegrees>-5.65821689553558826446533203125</LongitudeDegrees>
            </Position>
            <AltitudeMeters>936.20001220703125</AltitudeMeters>
            <DistanceMeters>NAN</DistanceMeters>
          </Trackpoint>
          <Trackpoint>
            <Time>2019-10-07T10:41:36.000Z</Time>
            <Position>
              <LatitudeDegrees>40.584275610744953155517578125</LatitudeDegrees>
              <LongitudeDegrees>-5.65827204845845699310302734375</LongitudeDegrees>
            </Position>
            <AltitudeMeters>936.20001220703125</AltitudeMeters>
            <DistanceMeters>NAN</DistanceMeters>
          </Trackpoint>
          <Trackpoint>
            <Time>2019-10-07T10:41:41.000Z</Time>
            <Position>
              <LatitudeDegrees>40.5839723534882068634033203125</LatitudeDegrees>
              <LongitudeDegrees>-5.65852032043039798736572265625</LongitudeDegrees>
            </Position>
            <AltitudeMeters>935.5999755859375</AltitudeMeters>
            <DistanceMeters>NAN</DistanceMeters>
          </Trackpoint>
          <Trackpoint>
            <Time>2019-10-07T10:41:43.000Z</Time>
            <Position>
              <LatitudeDegrees>40.583849810063838958740234375</LatitudeDegrees>
              <LongitudeDegrees>-5.65860765986144542694091796875</LongitudeDegrees>
            </Position>
            <AltitudeMeters>935.20001220703125</AltitudeMeters>
            <DistanceMeters>NAN</DistanceMeters>
          </Trackpoint>
          <Trackpoint>
            <Time>2019-10-07T10:41:47.000Z</Time>
            <Position>
              <LatitudeDegrees>40.5836005322635173797607421875</LatitudeDegrees>
              <LongitudeDegrees>-5.65873573534190654754638671875</LongitudeDegrees>
            </Position>
            <AltitudeMeters>936</AltitudeMeters>
            <DistanceMeters>NAN</DistanceMeters>
          </Trackpoint>
          <Trackpoint>
            <Time>2019-10-07T10:41:50.000Z</Time>
            <Position>
              <LatitudeDegrees>40.58342208154499530792236328125</LatitudeDegrees>
              <LongitudeDegrees>-5.6588050536811351776123046875</LongitudeDegrees>
            </Position>
            <AltitudeMeters>936</AltitudeMeters>
            <DistanceMeters>NAN</DistanceMeters>
          </Trackpoint>
          <Trackpoint>
            <Time>2019-10-07T10:41:51.000Z</Time>
            <Position>
              <LatitudeDegrees>40.583364330232143402099609375</LatitudeDegrees>
              <LongitudeDegrees>-5.65882324241101741790771484375</LongitudeDegrees>
            </Position>
            <AltitudeMeters>936.4000244140625</AltitudeMeters>
            <DistanceMeters>NAN</DistanceMeters>
          </Trackpoint>
          <Trackpoint>
            <Time>2019-10-07T10:41:57.000Z</Time>
            <Position>
              <LatitudeDegrees>40.5830495059490203857421875</LatitudeDegrees>
              <LongitudeDegrees>-5.6588915549218654632568359375</LongitudeDegrees>
            </Position>
            <AltitudeMeters>937.20001220703125</AltitudeMeters>
            <DistanceMeters>NAN</DistanceMeters>
          </Trackpoint>
          <Trackpoint>
            <Time>2019-10-07T10:41:59.000Z</Time>
            <Position>
              <LatitudeDegrees>40.5829578079283237457275390625</LatitudeDegrees>
              <LongitudeDegrees>-5.658900775015354156494140625</LongitudeDegrees>
            </Position>
            <AltitudeMeters>938</AltitudeMeters>
            <DistanceMeters>NAN</DistanceMeters>
          </Trackpoint>
          <Trackpoint>
            <Time>2019-10-07T10:42:05.000Z</Time>
            <Position>
              <LatitudeDegrees>40.58269386179745197296142578125</LatitudeDegrees>
              <LongitudeDegrees>-5.6589096598327159881591796875</LongitudeDegrees>
            </Position>
            <AltitudeMeters>938.79998779296875</AltitudeMeters>
            <DistanceMeters>NAN</DistanceMeters>
          </Trackpoint>
          <Trackpoint>
            <Time>2019-10-07T10:42:07.000Z</Time>
            <Position>
              <LatitudeDegrees>40.58260769583284854888916015625</LatitudeDegrees>
              <LongitudeDegrees>-5.6589032895863056182861328125</LongitudeDegrees>
            </Position>
            <AltitudeMeters>939.20001220703125</AltitudeMeters>
            <DistanceMeters>NAN</DistanceMeters>
          </Trackpoint>
          <Trackpoint>
            <Time>2019-10-07T10:42:10.000Z</Time>
            <Position>
              <LatitudeDegrees>40.5824746750295162200927734375</LatitudeDegrees>
              <LongitudeDegrees>-5.65888769924640655517578125</LongitudeDegrees>
            </Position>
            <AltitudeMeters>940</AltitudeMeters>
            <DistanceMeters>NAN</DistanceMeters>
          </Trackpoint>
          <Trackpoint>
            <Time>2019-10-07T10:42:14.000Z</Time>
            <Position>
              <LatitudeDegrees>40.5822999961674213409423828125</LatitudeDegrees>
              <LongitudeDegrees>-5.658848471939563751220703125</LongitudeDegrees>
            </Position>
            <AltitudeMeters>939.79998779296875</AltitudeMeters>
            <DistanceMeters>NAN</DistanceMeters>
          </Trackpoint>
          <Trackpoint>
            <Time>2019-10-07T10:42:16.000Z</Time>
            <Position>
              <LatitudeDegrees>40.582213662564754486083984375</LatitudeDegrees>
              <LongitudeDegrees>-5.65882994793355464935302734375</LongitudeDegrees>
            </Position>
            <AltitudeMeters>940.20001220703125</AltitudeMeters>
            <DistanceMeters>NAN</DistanceMeters>
          </Trackpoint>
          <Trackpoint>
            <Time>2019-10-07T10:42:22.000Z</Time>
            <Position>
              <LatitudeDegrees>40.5819546617567539215087890625</LatitudeDegrees>
              <LongitudeDegrees>-5.658761300146579742431640625</LongitudeDegrees>
            </Position>
            <AltitudeMeters>940.79998779296875</AltitudeMeters>
            <DistanceMeters>NAN</DistanceMeters>
          </Trackpoint>
          <Trackpoint>
            <Time>2019-10-07T10:42:25.000Z</Time>
            <Position>
              <LatitudeDegrees>40.58182574808597564697265625</LatitudeDegrees>
              <LongitudeDegrees>-5.65873137675225734710693359375</LongitudeDegrees>
            </Position>
            <AltitudeMeters>941</AltitudeMeters>
            <DistanceMeters>NAN</DistanceMeters>
          </Trackpoint>
          <Trackpoint>
            <Time>2019-10-07T10:42:29.000Z</Time>
            <Position>
              <LatitudeDegrees>40.5816493928432464599609375</LatitudeDegrees>
              <LongitudeDegrees>-5.6586957536637783050537109375</LongitudeDegrees>
            </Position>
            <AltitudeMeters>941.4000244140625</AltitudeMeters>
            <DistanceMeters>NAN</DistanceMeters>
          </Trackpoint>
          <Trackpoint>
            <Time>2019-10-07T10:42:34.000Z</Time>
            <Position>
              <LatitudeDegrees>40.58143221773207187652587890625</LatitudeDegrees>
              <LongitudeDegrees>-5.65868644975125789642333984375</LongitudeDegrees>
            </Position>
            <AltitudeMeters>942.20001220703125</AltitudeMeters>
            <DistanceMeters>NAN</DistanceMeters>
          </Trackpoint>
          <Trackpoint>
            <Time>2019-10-07T10:42:35.000Z</Time>
            <Position>
              <LatitudeDegrees>40.58138879947364330291748046875</LatitudeDegrees>
              <LongitudeDegrees>-5.658692233264446258544921875</LongitudeDegrees>
            </Position>
            <AltitudeMeters>942.4000244140625</AltitudeMeters>
            <DistanceMeters>NAN</DistanceMeters>
          </Trackpoint>
          <Trackpoint>
            <Time>2019-10-07T10:42:42.000Z</Time>
            <Position>
              <LatitudeDegrees>40.58108051307499408721923828125</LatitudeDegrees>
              <LongitudeDegrees>-5.65874445252120494842529296875</LongitudeDegrees>
            </Position>
            <AltitudeMeters>942.79998779296875</AltitudeMeters>
            <DistanceMeters>NAN</DistanceMeters>
          </Trackpoint>
          <Trackpoint>
            <Time>2019-10-07T10:42:50.000Z</Time>
            <Position>
              <LatitudeDegrees>40.58072964660823345184326171875</LatitudeDegrees>
              <LongitudeDegrees>-5.658858530223369598388671875</LongitudeDegrees>
            </Position>
            <AltitudeMeters>943.5999755859375</AltitudeMeters>
            <DistanceMeters>NAN</DistanceMeters>
          </Trackpoint>
          <Trackpoint>
            <Time>2019-10-07T10:42:52.000Z</Time>
            <Position>
              <LatitudeDegrees>40.58064364828169345855712890625</LatitudeDegrees>
              <LongitudeDegrees>-5.65888912416994571685791015625</LongitudeDegrees>
            </Position>
            <AltitudeMeters>943.79998779296875</AltitudeMeters>
            <DistanceMeters>NAN</DistanceMeters>
          </Trackpoint>
          <Trackpoint>
            <Time>2019-10-07T10:42:56.000Z</Time>
            <Position>
              <LatitudeDegrees>40.58047735132277011871337890625</LatitudeDegrees>
              <LongitudeDegrees>-5.658967494964599609375</LongitudeDegrees>
            </Position>
            <AltitudeMeters>944.79998779296875</AltitudeMeters>
            <DistanceMeters>NAN</DistanceMeters>
          </Trackpoint>
          <Trackpoint>
            <Time>2019-10-07T10:43:00.000Z</Time>
            <Position>
              <LatitudeDegrees>40.580314658582210540771484375</LatitudeDegrees>
              <LongitudeDegrees>-5.65906740725040435791015625</LongitudeDegrees>
            </Position>
            <AltitudeMeters>944.5999755859375</AltitudeMeters>
            <DistanceMeters>NAN</DistanceMeters>
          </Trackpoint>
          <Trackpoint>
            <Time>2019-10-07T10:43:08.000Z</Time>
            <Position>
              <LatitudeDegrees>40.579988770186901092529296875</LatitudeDegrees>
              <LongitudeDegrees>-5.6592787988483905792236328125</LongitudeDegrees>
            </Position>
            <AltitudeMeters>945.20001220703125</AltitudeMeters>
            <DistanceMeters>NAN</DistanceMeters>
          </Trackpoint>
          <Trackpoint>
            <Time>2019-10-07T10:43:10.000Z</Time>
            <Position>
              <LatitudeDegrees>40.57991006411612033843994140625</LatitudeDegrees>
              <LongitudeDegrees>-5.65934426151216030120849609375</LongitudeDegrees>
            </Position>
            <AltitudeMeters>945.79998779296875</AltitudeMeters>
            <DistanceMeters>NAN</DistanceMeters>
          </Trackpoint>
          <Trackpoint>
            <Time>2019-10-07T10:43:13.000Z</Time>
            <Position>
              <LatitudeDegrees>40.5797988362610340118408203125</LatitudeDegrees>
              <LongitudeDegrees>-5.65946303308010101318359375</LongitudeDegrees>
            </Position>
            <AltitudeMeters>945.20001220703125</AltitudeMeters>
            <DistanceMeters>NAN</DistanceMeters>
          </Trackpoint>
          <Trackpoint>
            <Time>2019-10-07T10:43:21.000Z</Time>
            <Position>
              <LatitudeDegrees>40.57944956235587596893310546875</LatitudeDegrees>
              <LongitudeDegrees>-5.65971641801297664642333984375</LongitudeDegrees>
            </Position>
            <AltitudeMeters>945.5999755859375</AltitudeMeters>
            <DistanceMeters>NAN</DistanceMeters>
          </Trackpoint>
          <Trackpoint>
            <Time>2019-10-07T10:43:31.000Z</Time>
            <Position>
              <LatitudeDegrees>40.5789770744740962982177734375</LatitudeDegrees>
              <LongitudeDegrees>-5.66005856730043888092041015625</LongitudeDegrees>
            </Position>
            <AltitudeMeters>946.20001220703125</AltitudeMeters>
            <DistanceMeters>NAN</DistanceMeters>
          </Trackpoint>
          <Trackpoint>
            <Time>2019-10-07T10:43:41.000Z</Time>
            <Position>
              <LatitudeDegrees>40.57849712669849395751953125</LatitudeDegrees>
              <LongitudeDegrees>-5.6603701226413249969482421875</LongitudeDegrees>
            </Position>
            <AltitudeMeters>946.4000244140625</AltitudeMeters>
            <DistanceMeters>NAN</DistanceMeters>
          </Trackpoint>
          <Trackpoint>
            <Time>2019-10-07T10:43:42.000Z</Time>
            <Position>
              <LatitudeDegrees>40.57844926603138446807861328125</LatitudeDegrees>
              <LongitudeDegrees>-5.6604019738733768463134765625</LongitudeDegrees>
            </Position>
            <AltitudeMeters>946.20001220703125</AltitudeMeters>
            <DistanceMeters>NAN</DistanceMeters>
          </Trackpoint>
          <Trackpoint>
            <Time>2019-10-07T10:43:46.000Z</Time>
            <Position>
              <LatitudeDegrees>40.5782558955252170562744140625</LatitudeDegrees>
              <LongitudeDegrees>-5.660522840917110443115234375</LongitudeDegrees>
            </Position>
            <AltitudeMeters>947</AltitudeMeters>
            <DistanceMeters>NAN</DistanceMeters>
          </Trackpoint>
          <Trackpoint>
            <Time>2019-10-07T10:43:52.000Z</Time>
            <Position>
              <LatitudeDegrees>40.57796328328549861907958984375</LatitudeDegrees>
              <LongitudeDegrees>-5.66070330329239368438720703125</LongitudeDegrees>
            </Position>
            <AltitudeMeters>947.4000244140625</AltitudeMeters>
            <DistanceMeters>NAN</DistanceMeters>
          </Trackpoint>
          <Trackpoint>
            <Time>2019-10-07T10:44:00.000Z</Time>
            <Position>
              <LatitudeDegrees>40.577588193118572235107421875</LatitudeDegrees>
              <LongitudeDegrees>-5.66097739152610301971435546875</LongitudeDegrees>
            </Position>
            <AltitudeMeters>948</AltitudeMeters>
            <DistanceMeters>NAN</DistanceMeters>
          </Trackpoint>
          <Trackpoint>
            <Time>2019-10-07T10:44:02.000Z</Time>
            <Position>
              <LatitudeDegrees>40.57749792002141475677490234375</LatitudeDegrees>
              <LongitudeDegrees>-5.66105048172175884246826171875</LongitudeDegrees>
            </Position>
            <AltitudeMeters>948.4000244140625</AltitudeMeters>
            <DistanceMeters>NAN</DistanceMeters>
          </Trackpoint>
          <Trackpoint>
            <Time>2019-10-07T10:44:06.000Z</Time>
            <Position>
              <LatitudeDegrees>40.5773203074932098388671875</LatitudeDegrees>
              <LongitudeDegrees>-5.66118291579186916351318359375</LongitudeDegrees>
            </Position>
            <AltitudeMeters>949.20001220703125</AltitudeMeters>
            <DistanceMeters>NAN</DistanceMeters>
          </Trackpoint>
          <Trackpoint>
            <Time>2019-10-07T10:44:09.000Z</Time>
            <Position>
              <LatitudeDegrees>40.5772034637629985809326171875</LatitudeDegrees>
              <LongitudeDegrees>-5.661284588277339935302734375</LongitudeDegrees>
            </Position>
            <AltitudeMeters>949.4000244140625</AltitudeMeters>
            <DistanceMeters>NAN</DistanceMeters>
          </Trackpoint>
          <Trackpoint>
            <Time>2019-10-07T10:44:17.000Z</Time>
            <Position>
              <LatitudeDegrees>40.57689425535500049591064453125</LatitudeDegrees>
              <LongitudeDegrees>-5.66152506507933139801025390625</LongitudeDegrees>
            </Position>
            <AltitudeMeters>950.20001220703125</AltitudeMeters>
            <DistanceMeters>NAN</DistanceMeters>
          </Trackpoint>
          <Trackpoint>
            <Time>2019-10-07T10:44:20.000Z</Time>
            <Position>
              <LatitudeDegrees>40.5767820216715335845947265625</LatitudeDegrees>
              <LongitudeDegrees>-5.661622546613216400146484375</LongitudeDegrees>
            </Position>
            <AltitudeMeters>950.4000244140625</AltitudeMeters>
            <DistanceMeters>NAN</DistanceMeters>
          </Trackpoint>
          <Trackpoint>
            <Time>2019-10-07T10:44:26.000Z</Time>
            <Position>
              <LatitudeDegrees>40.5765640921890735626220703125</LatitudeDegrees>
              <LongitudeDegrees>-5.661803595721721649169921875</LongitudeDegrees>
            </Position>
            <AltitudeMeters>951.4000244140625</AltitudeMeters>
            <DistanceMeters>NAN</DistanceMeters>
          </Trackpoint>
          <Trackpoint>
            <Time>2019-10-07T10:44:29.000Z</Time>
            <Position>
              <LatitudeDegrees>40.57645303197205066680908203125</LatitudeDegrees>
              <LongitudeDegrees>-5.66189286299049854278564453125</LongitudeDegrees>
            </Position>
            <AltitudeMeters>951.5999755859375</AltitudeMeters>
            <DistanceMeters>NAN</DistanceMeters>
          </Trackpoint>
          <Trackpoint>
            <Time>2019-10-07T10:44:36.000Z</Time>
            <Position>
              <LatitudeDegrees>40.57619042694568634033203125</LatitudeDegrees>
              <LongitudeDegrees>-5.66210643388330936431884765625</LongitudeDegrees>
            </Position>
            <AltitudeMeters>952.5999755859375</AltitudeMeters>
            <DistanceMeters>NAN</DistanceMeters>
          </Trackpoint>
          <Trackpoint>
            <Time>2019-10-07T10:44:37.000Z</Time>
            <Position>
              <LatitudeDegrees>40.57615295983850955963134765625</LatitudeDegrees>
              <LongitudeDegrees>-5.662137530744075775146484375</LongitudeDegrees>
            </Position>
            <AltitudeMeters>952.5999755859375</AltitudeMeters>
            <DistanceMeters>NAN</DistanceMeters>
          </Trackpoint>
          <Trackpoint>
            <Time>2019-10-07T10:44:48.000Z</Time>
            <Position>
              <LatitudeDegrees>40.57574375532567501068115234375</LatitudeDegrees>
              <LongitudeDegrees>-5.66246786154806613922119140625</LongitudeDegrees>
            </Position>
            <AltitudeMeters>953.79998779296875</AltitudeMeters>
            <DistanceMeters>NAN</DistanceMeters>
          </Trackpoint>
          <Trackpoint>
            <Time>2019-10-07T10:44:55.000Z</Time>
            <Position>
              <LatitudeDegrees>40.57548006065189838409423828125</LatitudeDegrees>
              <LongitudeDegrees>-5.66268629394471645355224609375</LongitudeDegrees>
            </Position>
            <AltitudeMeters>954.79998779296875</AltitudeMeters>
            <DistanceMeters>NAN</DistanceMeters>
          </Trackpoint>
          <Trackpoint>
            <Time>2019-10-07T10:44:56.000Z</Time>
            <Position>
              <LatitudeDegrees>40.57544016279280185699462890625</LatitudeDegrees>
              <LongitudeDegrees>-5.66271646879613399505615234375</LongitudeDegrees>
            </Position>
            <AltitudeMeters>954.79998779296875</AltitudeMeters>
            <DistanceMeters>NAN</DistanceMeters>
          </Trackpoint>
          <Trackpoint>
            <Time>2019-10-07T10:45:04.000Z</Time>
            <Position>
              <LatitudeDegrees>40.57511125691235065460205078125</LatitudeDegrees>
              <LongitudeDegrees>-5.66295929253101348876953125</LongitudeDegrees>
            </Position>
            <AltitudeMeters>955.4000244140625</AltitudeMeters>
            <DistanceMeters>NAN</DistanceMeters>
          </Trackpoint>
          <Trackpoint>
            <Time>2019-10-07T10:45:07.000Z</Time>
            <Position>
              <LatitudeDegrees>40.5749919824302196502685546875</LatitudeDegrees>
              <LongitudeDegrees>-5.66305794753134250640869140625</LongitudeDegrees>
            </Position>
            <AltitudeMeters>956.20001220703125</AltitudeMeters>
            <DistanceMeters>NAN</DistanceMeters>
          </Trackpoint>
          <Trackpoint>
            <Time>2019-10-07T10:45:13.000Z</Time>
            <Position>
              <LatitudeDegrees>40.57476885616779327392578125</LatitudeDegrees>
              <LongitudeDegrees>-5.6632347218692302703857421875</LongitudeDegrees>
            </Position>
            <AltitudeMeters>956.79998779296875</AltitudeMeters>
            <DistanceMeters>NAN</DistanceMeters>
          </Trackpoint>
          <Trackpoint>
            <Time>2019-10-07T10:45:18.000Z</Time>
            <Position>
              <LatitudeDegrees>40.57458520866930484771728515625</LatitudeDegrees>
              <LongitudeDegrees>-5.66338048316538333892822265625</LongitudeDegrees>
            </Position>
            <AltitudeMeters>957.20001220703125</AltitudeMeters>
            <DistanceMeters>NAN</DistanceMeters>
          </Trackpoint>
          <Trackpoint>
            <Time>2019-10-07T10:45:24.000Z</Time>
            <Position>
              <LatitudeDegrees>40.57436929084360599517822265625</LatitudeDegrees>
              <LongitudeDegrees>-5.66355449147522449493408203125</LongitudeDegrees>
            </Position>
            <AltitudeMeters>958.20001220703125</AltitudeMeters>
            <DistanceMeters>NAN</DistanceMeters>
          </Trackpoint>
          <Trackpoint>
            <Time>2019-10-07T10:45:26.000Z</Time>
            <Position>
              <LatitudeDegrees>40.57429754175245761871337890625</LatitudeDegrees>
              <LongitudeDegrees>-5.66360880620777606964111328125</LongitudeDegrees>
            </Position>
            <AltitudeMeters>958.4000244140625</AltitudeMeters>
            <DistanceMeters>NAN</DistanceMeters>
          </Trackpoint>
          <Trackpoint>
            <Time>2019-10-07T10:45:35.000Z</Time>
            <Position>
              <LatitudeDegrees>40.5739688873291015625</LatitudeDegrees>
              <LongitudeDegrees>-5.66387929022312164306640625</LongitudeDegrees>
            </Position>
            <AltitudeMeters>959</AltitudeMeters>
            <DistanceMeters>NAN</DistanceMeters>
          </Trackpoint>
          <Trackpoint>
            <Time>2019-10-07T10:45:41.000Z</Time>
            <Position>
              <LatitudeDegrees>40.57373042218387126922607421875</LatitudeDegrees>
              <LongitudeDegrees>-5.66406226716935634613037109375</LongitudeDegrees>
            </Position>
            <AltitudeMeters>959.4000244140625</AltitudeMeters>
            <DistanceMeters>NAN</DistanceMeters>
          </Trackpoint>
          <Trackpoint>
            <Time>2019-10-07T10:45:46.000Z</Time>
            <Position>
              <LatitudeDegrees>40.5735288374125957489013671875</LatitudeDegrees>
              <LongitudeDegrees>-5.66421649418771266937255859375</LongitudeDegrees>
            </Position>
            <AltitudeMeters>959.20001220703125</AltitudeMeters>
            <DistanceMeters>NAN</DistanceMeters>
          </Trackpoint>
          <Trackpoint>
            <Time>2019-10-07T10:45:52.000Z</Time>
            <Position>
              <LatitudeDegrees>40.57328827679157257080078125</LatitudeDegrees>
              <LongitudeDegrees>-5.664402656257152557373046875</LongitudeDegrees>
            </Position>
            <AltitudeMeters>959.20001220703125</AltitudeMeters>
            <DistanceMeters>NAN</DistanceMeters>
          </Trackpoint>
          <Trackpoint>
            <Time>2019-10-07T10:45:55.000Z</Time>
            <Position>
              <LatitudeDegrees>40.573168583214282989501953125</LatitudeDegrees>
              <LongitudeDegrees>-5.664493851363658905029296875</LongitudeDegrees>
            </Position>
            <AltitudeMeters>959.20001220703125</AltitudeMeters>
            <DistanceMeters>NAN</DistanceMeters>
          </Trackpoint>
          <Trackpoint>
            <Time>2019-10-07T10:46:02.000Z</Time>
            <Position>
              <LatitudeDegrees>40.57288401760160923004150390625</LatitudeDegrees>
              <LongitudeDegrees>-5.66470809280872344970703125</LongitudeDegrees>
            </Position>
            <AltitudeMeters>959.5999755859375</AltitudeMeters>
            <DistanceMeters>NAN</DistanceMeters>
          </Trackpoint>
          <Trackpoint>
            <Time>2019-10-07T10:46:09.000Z</Time>
            <Position>
              <LatitudeDegrees>40.5725974403321743011474609375</LatitudeDegrees>
              <LongitudeDegrees>-5.66493063233792781829833984375</LongitudeDegrees>
            </Position>
            <AltitudeMeters>960</AltitudeMeters>
            <DistanceMeters>NAN</DistanceMeters>
          </Trackpoint>
          <Trackpoint>
            <Time>2019-10-07T10:46:13.000Z</Time>
            <Position>
              <LatitudeDegrees>40.5724324844777584075927734375</LatitudeDegrees>
              <LongitudeDegrees>-5.6650552712380886077880859375</LongitudeDegrees>
            </Position>
            <AltitudeMeters>960</AltitudeMeters>
            <DistanceMeters>NAN</DistanceMeters>
          </Trackpoint>
          <Trackpoint>
            <Time>2019-10-07T10:46:15.000Z</Time>
            <Position>
              <LatitudeDegrees>40.5723533593118190765380859375</LatitudeDegrees>
              <LongitudeDegrees>-5.6651132740080356597900390625</LongitudeDegrees>
            </Position>
            <AltitudeMeters>959.79998779296875</AltitudeMeters>
            <DistanceMeters>NAN</DistanceMeters>
          </Trackpoint>
          <Trackpoint>
            <Time>2019-10-07T10:46:19.000Z</Time>
            <Position>
              <LatitudeDegrees>40.57218479923903942108154296875</LatitudeDegrees>
              <LongitudeDegrees>-5.66523305140435695648193359375</LongitudeDegrees>
            </Position>
            <AltitudeMeters>959.79998779296875</AltitudeMeters>
            <DistanceMeters>NAN</DistanceMeters>
          </Trackpoint>
          <Trackpoint>
            <Time>2019-10-07T10:46:30.000Z</Time>
            <Position>
              <LatitudeDegrees>40.57172832079231739044189453125</LatitudeDegrees>
              <LongitudeDegrees>-5.66555055789649486541748046875</LongitudeDegrees>
            </Position>
            <AltitudeMeters>960</AltitudeMeters>
            <DistanceMeters>NAN</DistanceMeters>
          </Trackpoint>
          <Trackpoint>
            <Time>2019-10-07T10:46:39.000Z</Time>
            <Position>
              <LatitudeDegrees>40.5713478662073612213134765625</LatitudeDegrees>
              <LongitudeDegrees>-5.6658022664487361907958984375</LongitudeDegrees>
            </Position>
            <AltitudeMeters>960</AltitudeMeters>
            <DistanceMeters>NAN</DistanceMeters>
          </Trackpoint>
          <Trackpoint>
            <Time>2019-10-07T10:46:40.000Z</Time>
            <Position>
              <LatitudeDegrees>40.571300424635410308837890625</LatitudeDegrees>
              <LongitudeDegrees>-5.6658057868480682373046875</LongitudeDegrees>
            </Position>
            <AltitudeMeters>960.20001220703125</AltitudeMeters>
            <DistanceMeters>NAN</DistanceMeters>
          </Trackpoint>
          <Trackpoint>
            <Time>2019-10-07T10:46:44.000Z</Time>
            <Position>
              <LatitudeDegrees>40.571107305586338043212890625</LatitudeDegrees>
              <LongitudeDegrees>-5.66578038968145847320556640625</LongitudeDegrees>
            </Position>
            <AltitudeMeters>959.4000244140625</AltitudeMeters>
            <DistanceMeters>NAN</DistanceMeters>
          </Trackpoint>
          <Trackpoint>
            <Time>2019-10-07T10:46:45.000Z</Time>
            <Position>
              <LatitudeDegrees>40.57106447406113147735595703125</LatitudeDegrees>
              <LongitudeDegrees>-5.6658084690570831298828125</LongitudeDegrees>
            </Position>
            <AltitudeMeters>959.4000244140625</AltitudeMeters>
            <DistanceMeters>NAN</DistanceMeters>
          </Trackpoint>
          <Trackpoint>
            <Time>2019-10-07T10:46:47.000Z</Time>
            <Position>
              <LatitudeDegrees>40.570998005568981170654296875</LatitudeDegrees>
              <LongitudeDegrees>-5.665902011096477508544921875</LongitudeDegrees>
            </Position>
            <AltitudeMeters>959.5999755859375</AltitudeMeters>
            <DistanceMeters>NAN</DistanceMeters>
          </Trackpoint>
          <Trackpoint>
            <Time>2019-10-07T10:46:49.000Z</Time>
            <Position>
              <LatitudeDegrees>40.57094243355095386505126953125</LatitudeDegrees>
              <LongitudeDegrees>-5.66600033082067966461181640625</LongitudeDegrees>
            </Position>
            <AltitudeMeters>960.20001220703125</AltitudeMeters>
            <DistanceMeters>NAN</DistanceMeters>
          </Trackpoint>
          <Trackpoint>
            <Time>2019-10-07T10:46:51.000Z</Time>
            <Position>
              <LatitudeDegrees>40.57088459841907024383544921875</LatitudeDegrees>
              <LongitudeDegrees>-5.6660946272313594818115234375</LongitudeDegrees>
            </Position>
            <AltitudeMeters>960.5999755859375</AltitudeMeters>
            <DistanceMeters>NAN</DistanceMeters>
          </Trackpoint>
          <Trackpoint>
            <Time>2019-10-07T10:46:53.000Z</Time>
            <Position>
              <LatitudeDegrees>40.57081704027950763702392578125</LatitudeDegrees>
              <LongitudeDegrees>-5.666180290281772613525390625</LongitudeDegrees>
            </Position>
            <AltitudeMeters>960.5999755859375</AltitudeMeters>
            <DistanceMeters>NAN</DistanceMeters>
          </Trackpoint>
          <Trackpoint>
            <Time>2019-10-07T10:46:55.000Z</Time>
            <Position>
              <LatitudeDegrees>40.57074151933193206787109375</LatitudeDegrees>
              <LongitudeDegrees>-5.66625379957258701324462890625</LongitudeDegrees>
            </Position>
            <AltitudeMeters>960.79998779296875</AltitudeMeters>
            <DistanceMeters>NAN</DistanceMeters>
          </Trackpoint>
          <Trackpoint>
            <Time>2019-10-07T10:46:59.000Z</Time>
            <Position>
              <LatitudeDegrees>40.57057413272559642791748046875</LatitudeDegrees>
              <LongitudeDegrees>-5.6663719005882740020751953125</LongitudeDegrees>
            </Position>
            <AltitudeMeters>960.20001220703125</AltitudeMeters>
            <DistanceMeters>NAN</DistanceMeters>
          </Trackpoint>
          <Trackpoint>
            <Time>2019-10-07T10:47:08.000Z</Time>
            <Position>
              <LatitudeDegrees>40.57021890766918659210205078125</LatitudeDegrees>
              <LongitudeDegrees>-5.66663584671914577484130859375</LongitudeDegrees>
            </Position>
            <AltitudeMeters>961.5999755859375</AltitudeMeters>
            <DistanceMeters>NAN</DistanceMeters>
          </Trackpoint>
          <Trackpoint>
            <Time>2019-10-07T10:47:10.000Z</Time>
            <Position>
              <LatitudeDegrees>40.5701405368745326995849609375</LatitudeDegrees>
              <LongitudeDegrees>-5.6666887365281581878662109375</LongitudeDegrees>
            </Position>
            <AltitudeMeters>962</AltitudeMeters>
            <DistanceMeters>NAN</DistanceMeters>
          </Trackpoint>
          <Trackpoint>
            <Time>2019-10-07T10:47:16.000Z</Time>
            <Position>
              <LatitudeDegrees>40.5699061788618564605712890625</LatitudeDegrees>
              <LongitudeDegrees>-5.666854195296764373779296875</LongitudeDegrees>
            </Position>
            <AltitudeMeters>962.20001220703125</AltitudeMeters>
            <DistanceMeters>NAN</DistanceMeters>
          </Trackpoint>
          <Trackpoint>
            <Time>2019-10-07T10:47:18.000Z</Time>
            <Position>
              <LatitudeDegrees>40.5698310770094394683837890625</LatitudeDegrees>
              <LongitudeDegrees>-5.66690842621028423309326171875</LongitudeDegrees>
            </Position>
            <AltitudeMeters>962.5999755859375</AltitudeMeters>
            <DistanceMeters>NAN</DistanceMeters>
          </Trackpoint>
          <Trackpoint>
            <Time>2019-10-07T10:47:20.000Z</Time>
            <Position>
              <LatitudeDegrees>40.56975723244249820709228515625</LatitudeDegrees>
              <LongitudeDegrees>-5.66696072928607463836669921875</LongitudeDegrees>
            </Position>
            <AltitudeMeters>963.20001220703125</AltitudeMeters>
            <DistanceMeters>NAN</DistanceMeters>
          </Trackpoint>
          <Trackpoint>
            <Time>2019-10-07T10:47:24.000Z</Time>
            <Position>
              <LatitudeDegrees>40.5696094594895839691162109375</LatitudeDegrees>
              <LongitudeDegrees>-5.6670677661895751953125</LongitudeDegrees>
            </Position>
            <AltitudeMeters>963.79998779296875</AltitudeMeters>
            <DistanceMeters>NAN</DistanceMeters>
          </Trackpoint>
          <Trackpoint>
            <Time>2019-10-07T10:47:29.000Z</Time>
            <Position>
              <LatitudeDegrees>40.5694190226495265960693359375</LatitudeDegrees>
              <LongitudeDegrees>-5.66720615141093730926513671875</LongitudeDegrees>
            </Position>
            <AltitudeMeters>964.4000244140625</AltitudeMeters>
            <DistanceMeters>NAN</DistanceMeters>
          </Trackpoint>
          <Trackpoint>
            <Time>2019-10-07T10:47:30.000Z</Time>
            <Position>
              <LatitudeDegrees>40.5693801306188106536865234375</LatitudeDegrees>
              <LongitudeDegrees>-5.66723464988172054290771484375</LongitudeDegrees>
            </Position>
            <AltitudeMeters>964.20001220703125</AltitudeMeters>
            <DistanceMeters>NAN</DistanceMeters>
          </Trackpoint>
          <Trackpoint>
            <Time>2019-10-07T10:47:33.000Z</Time>
            <Position>
              <LatitudeDegrees>40.56926898658275604248046875</LatitudeDegrees>
              <LongitudeDegrees>-5.667316876351833343505859375</LongitudeDegrees>
            </Position>
            <AltitudeMeters>965</AltitudeMeters>
            <DistanceMeters>NAN</DistanceMeters>
          </Trackpoint>
          <Trackpoint>
            <Time>2019-10-07T10:47:39.000Z</Time>
            <Position>
              <LatitudeDegrees>40.56904510594904422760009765625</LatitudeDegrees>
              <LongitudeDegrees>-5.66748325712978839874267578125</LongitudeDegrees>
            </Position>
            <AltitudeMeters>965.5999755859375</AltitudeMeters>
            <DistanceMeters>NAN</DistanceMeters>
          </Trackpoint>
          <Trackpoint>
            <Time>2019-10-07T10:47:41.000Z</Time>
            <Position>
              <LatitudeDegrees>40.56896983645856380462646484375</LatitudeDegrees>
              <LongitudeDegrees>-5.66753723658621311187744140625</LongitudeDegrees>
            </Position>
            <AltitudeMeters>966</AltitudeMeters>
            <DistanceMeters>NAN</DistanceMeters>
          </Trackpoint>
          <Trackpoint>
            <Time>2019-10-07T10:47:49.000Z</Time>
            <Position>
              <LatitudeDegrees>40.56867353618144989013671875</LatitudeDegrees>
              <LongitudeDegrees>-5.6677505560219287872314453125</LongitudeDegrees>
            </Position>
            <AltitudeMeters>967</AltitudeMeters>
            <DistanceMeters>NAN</DistanceMeters>
          </Trackpoint>
          <Trackpoint>
            <Time>2019-10-07T10:47:53.000Z</Time>
            <Position>
              <LatitudeDegrees>40.568525679409503936767578125</LatitudeDegrees>
              <LongitudeDegrees>-5.6678549945354461669921875</LongitudeDegrees>
            </Position>
            <AltitudeMeters>967.79998779296875</AltitudeMeters>
            <DistanceMeters>NAN</DistanceMeters>
          </Trackpoint>
          <Trackpoint>
            <Time>2019-10-07T10:47:58.000Z</Time>
            <Position>
              <LatitudeDegrees>40.56833985261619091033935546875</LatitudeDegrees>
              <LongitudeDegrees>-5.66799237392842769622802734375</LongitudeDegrees>
            </Position>
            <AltitudeMeters>968</AltitudeMeters>
            <DistanceMeters>NAN</DistanceMeters>
          </Trackpoint>
          <Trackpoint>
            <Time>2019-10-07T10:48:03.000Z</Time>
            <Position>
              <LatitudeDegrees>40.56815595366060733795166015625</LatitudeDegrees>
              <LongitudeDegrees>-5.66812983714044094085693359375</LongitudeDegrees>
            </Position>
            <AltitudeMeters>968.4000244140625</AltitudeMeters>
            <DistanceMeters>NAN</DistanceMeters>
          </Trackpoint>
          <Trackpoint>
            <Time>2019-10-07T10:48:08.000Z</Time>
            <Position>
              <LatitudeDegrees>40.5679649300873279571533203125</LatitudeDegrees>
              <LongitudeDegrees>-5.66825942136347293853759765625</LongitudeDegrees>
            </Position>
            <AltitudeMeters>969.20001220703125</AltitudeMeters>
            <DistanceMeters>NAN</DistanceMeters>
          </Trackpoint>
          <Trackpoint>
            <Time>2019-10-07T10:48:11.000Z</Time>
            <Position>
              <LatitudeDegrees>40.5678643472492694854736328125</LatitudeDegrees>
              <LongitudeDegrees>-5.6683329306542873382568359375</LongitudeDegrees>
            </Position>
            <AltitudeMeters>969.79998779296875</AltitudeMeters>
            <DistanceMeters>NAN</DistanceMeters>
          </Trackpoint>
          <Trackpoint>
            <Time>2019-10-07T10:48:18.000Z</Time>
            <Position>
              <LatitudeDegrees>40.56762035004794597625732421875</LatitudeDegrees>
              <LongitudeDegrees>-5.668506436049938201904296875</LongitudeDegrees>
            </Position>
            <AltitudeMeters>970.5999755859375</AltitudeMeters>
            <DistanceMeters>NAN</DistanceMeters>
          </Trackpoint>
          <Trackpoint>
            <Time>2019-10-07T10:48:19.000Z</Time>
            <Position>
              <LatitudeDegrees>40.5675807036459445953369140625</LatitudeDegrees>
              <LongitudeDegrees>-5.66853200085461139678955078125</LongitudeDegrees>
            </Position>
            <AltitudeMeters>970.4000244140625</AltitudeMeters>
            <DistanceMeters>NAN</DistanceMeters>
          </Trackpoint>
          <Trackpoint>
            <Time>2019-10-07T10:48:29.000Z</Time>
            <Position>
              <LatitudeDegrees>40.56720175780355930328369140625</LatitudeDegrees>
              <LongitudeDegrees>-5.6687949411571025848388671875</LongitudeDegrees>
            </Position>
            <AltitudeMeters>971</AltitudeMeters>
            <DistanceMeters>NAN</DistanceMeters>
          </Trackpoint>
          <Trackpoint>
            <Time>2019-10-07T10:48:37.000Z</Time>
            <Position>
              <LatitudeDegrees>40.56687913835048675537109375</LatitudeDegrees>
              <LongitudeDegrees>-5.66900390200316905975341796875</LongitudeDegrees>
            </Position>
            <AltitudeMeters>971.4000244140625</AltitudeMeters>
            <DistanceMeters>NAN</DistanceMeters>
          </Trackpoint>
          <Trackpoint>
            <Time>2019-10-07T10:48:38.000Z</Time>
            <Position>
              <LatitudeDegrees>40.56683714501559734344482421875</LatitudeDegrees>
              <LongitudeDegrees>-5.66903181374073028564453125</LongitudeDegrees>
            </Position>
            <AltitudeMeters>971.5999755859375</AltitudeMeters>
            <DistanceMeters>NAN</DistanceMeters>
          </Trackpoint>
          <Trackpoint>
            <Time>2019-10-07T10:48:46.000Z</Time>
            <Position>
              <LatitudeDegrees>40.566517375409603118896484375</LatitudeDegrees>
              <LongitudeDegrees>-5.66927128471434116363525390625</LongitudeDegrees>
            </Position>
            <AltitudeMeters>971.5999755859375</AltitudeMeters>
            <DistanceMeters>NAN</DistanceMeters>
          </Trackpoint>
          <Trackpoint>
            <Time>2019-10-07T10:48:50.000Z</Time>
            <Position>
              <LatitudeDegrees>40.56636138819158077239990234375</LatitudeDegrees>
              <LongitudeDegrees>-5.6693873740732669830322265625</LongitudeDegrees>
            </Position>
            <AltitudeMeters>972</AltitudeMeters>
            <DistanceMeters>NAN</DistanceMeters>
          </Trackpoint>
          <Trackpoint>
            <Time>2019-10-07T10:48:55.000Z</Time>
            <Position>
              <LatitudeDegrees>40.56616709567606449127197265625</LatitudeDegrees>
              <LongitudeDegrees>-5.66952274180948734283447265625</LongitudeDegrees>
            </Position>
            <AltitudeMeters>972</AltitudeMeters>
            <DistanceMeters>NAN</DistanceMeters>
          </Trackpoint>
          <Trackpoint>
            <Time>2019-10-07T10:49:01.000Z</Time>
            <Position>
              <LatitudeDegrees>40.565920583903789520263671875</LatitudeDegrees>
              <LongitudeDegrees>-5.669665150344371795654296875</LongitudeDegrees>
            </Position>
            <AltitudeMeters>972.20001220703125</AltitudeMeters>
            <DistanceMeters>NAN</DistanceMeters>
          </Trackpoint>
          <Trackpoint>
            <Time>2019-10-07T10:49:04.000Z</Time>
            <Position>
              <LatitudeDegrees>40.5657953582704067230224609375</LatitudeDegrees>
              <LongitudeDegrees>-5.6697325408458709716796875</LongitudeDegrees>
            </Position>
            <AltitudeMeters>972.20001220703125</AltitudeMeters>
            <DistanceMeters>NAN</DistanceMeters>
          </Trackpoint>
          <Trackpoint>
            <Time>2019-10-07T10:49:09.000Z</Time>
            <Position>
              <LatitudeDegrees>40.56558539159595966339111328125</LatitudeDegrees>
              <LongitudeDegrees>-5.66984510980546474456787109375</LongitudeDegrees>
            </Position>
            <AltitudeMeters>972.5999755859375</AltitudeMeters>
            <DistanceMeters>NAN</DistanceMeters>
          </Trackpoint>
          <Trackpoint>
            <Time>2019-10-07T10:49:15.000Z</Time>
            <Position>
              <LatitudeDegrees>40.56533343158662319183349609375</LatitudeDegrees>
              <LongitudeDegrees>-5.6699632108211517333984375</LongitudeDegrees>
            </Position>
            <AltitudeMeters>972.79998779296875</AltitudeMeters>
            <DistanceMeters>NAN</DistanceMeters>
          </Trackpoint>
          <Trackpoint>
            <Time>2019-10-07T10:49:23.000Z</Time>
            <Position>
              <LatitudeDegrees>40.564997233450412750244140625</LatitudeDegrees>
              <LongitudeDegrees>-5.670116432011127471923828125</LongitudeDegrees>
            </Position>
            <AltitudeMeters>973.5999755859375</AltitudeMeters>
            <DistanceMeters>NAN</DistanceMeters>
          </Trackpoint>
          <Trackpoint>
            <Time>2019-10-07T10:49:24.000Z</Time>
            <Position>
              <LatitudeDegrees>40.564957000315189361572265625</LatitudeDegrees>
              <LongitudeDegrees>-5.67013822495937347412109375</LongitudeDegrees>
            </Position>
            <AltitudeMeters>973.79998779296875</AltitudeMeters>
            <DistanceMeters>NAN</DistanceMeters>
          </Trackpoint>
          <Trackpoint>
            <Time>2019-10-07T10:49:32.000Z</Time>
            <Position>
              <LatitudeDegrees>40.5646225623786449432373046875</LatitudeDegrees>
              <LongitudeDegrees>-5.6703078746795654296875</LongitudeDegrees>
            </Position>
            <AltitudeMeters>974.20001220703125</AltitudeMeters>
            <DistanceMeters>NAN</DistanceMeters>
          </Trackpoint>
          <Trackpoint>
            <Time>2019-10-07T10:49:36.000Z</Time>
            <Position>
              <LatitudeDegrees>40.564451403915882110595703125</LatitudeDegrees>
              <LongitudeDegrees>-5.67038993351161479949951171875</LongitudeDegrees>
            </Position>
            <AltitudeMeters>975</AltitudeMeters>
            <DistanceMeters>NAN</DistanceMeters>
          </Trackpoint>
          <Trackpoint>
            <Time>2019-10-07T10:49:43.000Z</Time>
            <Position>
              <LatitudeDegrees>40.56415242142975330352783203125</LatitudeDegrees>
              <LongitudeDegrees>-5.6705199368298053741455078125</LongitudeDegrees>
            </Position>
            <AltitudeMeters>975.4000244140625</AltitudeMeters>
            <DistanceMeters>NAN</DistanceMeters>
          </Trackpoint>
          <Trackpoint>
            <Time>2019-10-07T10:49:50.000Z</Time>
            <Position>
              <LatitudeDegrees>40.56386073119938373565673828125</LatitudeDegrees>
              <LongitudeDegrees>-5.6706630997359752655029296875</LongitudeDegrees>
            </Position>
            <AltitudeMeters>975.79998779296875</AltitudeMeters>
            <DistanceMeters>NAN</DistanceMeters>
          </Trackpoint>
          <Trackpoint>
            <Time>2019-10-07T10:49:52.000Z</Time>
            <Position>
              <LatitudeDegrees>40.56377724744379520416259765625</LatitudeDegrees>
              <LongitudeDegrees>-5.6707060150802135467529296875</LongitudeDegrees>
            </Position>
            <AltitudeMeters>976</AltitudeMeters>
            <DistanceMeters>NAN</DistanceMeters>
          </Trackpoint>
          <Trackpoint>
            <Time>2019-10-07T10:50:00.000Z</Time>
            <Position>
              <LatitudeDegrees>40.56343786418437957763671875</LatitudeDegrees>
              <LongitudeDegrees>-5.67086971364915370941162109375</LongitudeDegrees>
            </Position>
            <AltitudeMeters>976.4000244140625</AltitudeMeters>
            <DistanceMeters>NAN</DistanceMeters>
          </Trackpoint>
          <Trackpoint>
            <Time>2019-10-07T10:50:08.000Z</Time>
            <Position>
              <LatitudeDegrees>40.56310535408556461334228515625</LatitudeDegrees>
              <LongitudeDegrees>-5.67103751935064792633056640625</LongitudeDegrees>
            </Position>
            <AltitudeMeters>977.20001220703125</AltitudeMeters>
            <DistanceMeters>NAN</DistanceMeters>
          </Trackpoint>
          <Trackpoint>
            <Time>2019-10-07T10:50:09.000Z</Time>
            <Position>
              <LatitudeDegrees>40.5630625225603580474853515625</LatitudeDegrees>
              <LongitudeDegrees>-5.67105931229889392852783203125</LongitudeDegrees>
            </Position>
            <AltitudeMeters>977.20001220703125</AltitudeMeters>
            <DistanceMeters>NAN</DistanceMeters>
          </Trackpoint>
          <Trackpoint>
            <Time>2019-10-07T10:50:19.000Z</Time>
            <Position>
              <LatitudeDegrees>40.56262993253767490386962890625</LatitudeDegrees>
              <LongitudeDegrees>-5.6712706200778484344482421875</LongitudeDegrees>
            </Position>
            <AltitudeMeters>977.4000244140625</AltitudeMeters>
            <DistanceMeters>NAN</DistanceMeters>
          </Trackpoint>
          <Trackpoint>
            <Time>2019-10-07T10:50:26.000Z</Time>
            <Position>
              <LatitudeDegrees>40.562325417995452880859375</LatitudeDegrees>
              <LongitudeDegrees>-5.6714265234768390655517578125</LongitudeDegrees>
            </Position>
            <AltitudeMeters>978.4000244140625</AltitudeMeters>
            <DistanceMeters>NAN</DistanceMeters>
          </Trackpoint>
          <Trackpoint>
            <Time>2019-10-07T10:50:29.000Z</Time>
            <Position>
              <LatitudeDegrees>40.56218937970697879791259765625</LatitudeDegrees>
              <LongitudeDegrees>-5.67148595117032527923583984375</LongitudeDegrees>
            </Position>
            <AltitudeMeters>978.20001220703125</AltitudeMeters>
            <DistanceMeters>NAN</DistanceMeters>
          </Trackpoint>
          <Trackpoint>
            <Time>2019-10-07T10:50:36.000Z</Time>
            <Position>
              <LatitudeDegrees>40.56189157068729400634765625</LatitudeDegrees>
              <LongitudeDegrees>-5.6716260127723217010498046875</LongitudeDegrees>
            </Position>
            <AltitudeMeters>979.5999755859375</AltitudeMeters>
            <DistanceMeters>NAN</DistanceMeters>
          </Trackpoint>
          <Trackpoint>
            <Time>2019-10-07T10:50:40.000Z</Time>
            <Position>
              <LatitudeDegrees>40.56172787211835384368896484375</LatitudeDegrees>
              <LongitudeDegrees>-5.671705305576324462890625</LongitudeDegrees>
            </Position>
            <AltitudeMeters>980.4000244140625</AltitudeMeters>
            <DistanceMeters>NAN</DistanceMeters>
          </Trackpoint>
          <Trackpoint>
            <Time>2019-10-07T10:50:44.000Z</Time>
            <Position>
              <LatitudeDegrees>40.5615631677210330963134765625</LatitudeDegrees>
              <LongitudeDegrees>-5.6717735342681407928466796875</LongitudeDegrees>
            </Position>
            <AltitudeMeters>980.79998779296875</AltitudeMeters>
            <DistanceMeters>NAN</DistanceMeters>
          </Trackpoint>
          <Trackpoint>
            <Time>2019-10-07T10:50:49.000Z</Time>
            <Position>
              <LatitudeDegrees>40.56136996485292911529541015625</LatitudeDegrees>
              <LongitudeDegrees>-5.67186514846980571746826171875</LongitudeDegrees>
            </Position>
            <AltitudeMeters>981</AltitudeMeters>
            <DistanceMeters>NAN</DistanceMeters>
          </Trackpoint>
          <Trackpoint>
            <Time>2019-10-07T10:50:52.000Z</Time>
            <Position>
              <LatitudeDegrees>40.56125261820852756500244140625</LatitudeDegrees>
              <LongitudeDegrees>-5.6719203852117061614990234375</LongitudeDegrees>
            </Position>
            <AltitudeMeters>982</AltitudeMeters>
            <DistanceMeters>NAN</DistanceMeters>
          </Trackpoint>
          <Trackpoint>
            <Time>2019-10-07T10:50:59.000Z</Time>
            <Position>
              <LatitudeDegrees>40.56097559630870819091796875</LatitudeDegrees>
              <LongitudeDegrees>-5.6720459461212158203125</LongitudeDegrees>
            </Position>
            <AltitudeMeters>982.79998779296875</AltitudeMeters>
            <DistanceMeters>NAN</DistanceMeters>
          </Trackpoint>
          <Trackpoint>
            <Time>2019-10-07T10:51:00.000Z</Time>
            <Position>
              <LatitudeDegrees>40.56093460880219936370849609375</LatitudeDegrees>
              <LongitudeDegrees>-5.67206715233623981475830078125</LongitudeDegrees>
            </Position>
            <AltitudeMeters>983</AltitudeMeters>
            <DistanceMeters>NAN</DistanceMeters>
          </Trackpoint>
          <Trackpoint>
            <Time>2019-10-07T10:51:07.000Z</Time>
            <Position>
              <LatitudeDegrees>40.5606746859848499298095703125</LatitudeDegrees>
              <LongitudeDegrees>-5.67218986339867115020751953125</LongitudeDegrees>
            </Position>
            <AltitudeMeters>983.79998779296875</AltitudeMeters>
            <DistanceMeters>NAN</DistanceMeters>
          </Trackpoint>
          <Trackpoint>
            <Time>2019-10-07T10:51:13.000Z</Time>
            <Position>
              <LatitudeDegrees>40.5605013482272624969482421875</LatitudeDegrees>
              <LongitudeDegrees>-5.67226513288915157318115234375</LongitudeDegrees>
            </Position>
            <AltitudeMeters>983.79998779296875</AltitudeMeters>
            <DistanceMeters>NAN</DistanceMeters>
          </Trackpoint>
          <Trackpoint>
            <Time>2019-10-07T10:51:19.000Z</Time>
            <Position>
              <LatitudeDegrees>40.56038140319287776947021484375</LatitudeDegrees>
              <LongitudeDegrees>-5.672321207821369171142578125</LongitudeDegrees>
            </Position>
            <AltitudeMeters>984</AltitudeMeters>
            <DistanceMeters>NAN</DistanceMeters>
          </Trackpoint>
          <Trackpoint>
            <Time>2019-10-07T10:51:23.000Z</Time>
            <Position>
              <LatitudeDegrees>40.560355670750141143798828125</LatitudeDegrees>
              <LongitudeDegrees>-5.6723408214747905731201171875</LongitudeDegrees>
            </Position>
            <AltitudeMeters>984</AltitudeMeters>
            <DistanceMeters>NAN</DistanceMeters>
          </Trackpoint>
          <Trackpoint>
            <Time>2019-10-07T10:51:25.000Z</Time>
            <Position>
              <LatitudeDegrees>40.56035558693110942840576171875</LatitudeDegrees>
              <LongitudeDegrees>-5.67234492860734462738037109375</LongitudeDegrees>
            </Position>
            <AltitudeMeters>984</AltitudeMeters>
            <DistanceMeters>NAN</DistanceMeters>
          </Trackpoint>
          <Trackpoint>
            <Time>2019-10-07T10:51:28.000Z</Time>
            <Position>
              <LatitudeDegrees>40.56035558693110942840576171875</LatitudeDegrees>
              <LongitudeDegrees>-5.67234492860734462738037109375</LongitudeDegrees>
            </Position>
            <AltitudeMeters>984</AltitudeMeters>
            <DistanceMeters>NAN</DistanceMeters>
          </Trackpoint>
          <Trackpoint>
            <Time>2019-10-07T10:51:32.000Z</Time>
            <Position>
              <LatitudeDegrees>40.56035558693110942840576171875</LatitudeDegrees>
              <LongitudeDegrees>-5.67234492860734462738037109375</LongitudeDegrees>
            </Position>
            <AltitudeMeters>984</AltitudeMeters>
            <DistanceMeters>NAN</DistanceMeters>
          </Trackpoint>
          <Trackpoint>
            <Time>2019-10-07T10:51:34.000Z</Time>
            <Position>
              <LatitudeDegrees>40.56035558693110942840576171875</LatitudeDegrees>
              <LongitudeDegrees>-5.67234492860734462738037109375</LongitudeDegrees>
            </Position>
            <AltitudeMeters>984.20001220703125</AltitudeMeters>
            <DistanceMeters>NAN</DistanceMeters>
          </Trackpoint>
          <Trackpoint>
            <Time>2019-10-07T10:51:36.000Z</Time>
            <Position>
              <LatitudeDegrees>40.56035558693110942840576171875</LatitudeDegrees>
              <LongitudeDegrees>-5.67234492860734462738037109375</LongitudeDegrees>
            </Position>
            <AltitudeMeters>984</AltitudeMeters>
            <DistanceMeters>NAN</DistanceMeters>
          </Trackpoint>
          <Trackpoint>
            <Time>2019-10-07T10:51:40.000Z</Time>
            <Position>
              <LatitudeDegrees>40.56034795939922332763671875</LatitudeDegrees>
              <LongitudeDegrees>-5.6723448447883129119873046875</LongitudeDegrees>
            </Position>
            <AltitudeMeters>983.79998779296875</AltitudeMeters>
            <DistanceMeters>NAN</DistanceMeters>
          </Trackpoint>
          <Trackpoint>
            <Time>2019-10-07T10:51:41.000Z</Time>
            <Position>
              <LatitudeDegrees>40.56032256223261356353759765625</LatitudeDegrees>
              <LongitudeDegrees>-5.67234476096928119659423828125</LongitudeDegrees>
            </Position>
            <AltitudeMeters>984.20001220703125</AltitudeMeters>
            <DistanceMeters>NAN</DistanceMeters>
          </Trackpoint>
          <Trackpoint>
            <Time>2019-10-07T10:51:44.000Z</Time>
            <Position>
              <LatitudeDegrees>40.5602405034005641937255859375</LatitudeDegrees>
              <LongitudeDegrees>-5.67235062830150127410888671875</LongitudeDegrees>
            </Position>
            <AltitudeMeters>984</AltitudeMeters>
            <DistanceMeters>NAN</DistanceMeters>
          </Trackpoint>
          <Trackpoint>
            <Time>2019-10-07T10:51:46.000Z</Time>
            <Position>
              <LatitudeDegrees>40.560162551701068878173828125</LatitudeDegrees>
              <LongitudeDegrees>-5.67237661220133304595947265625</LongitudeDegrees>
            </Position>
            <AltitudeMeters>983.79998779296875</AltitudeMeters>
            <DistanceMeters>NAN</DistanceMeters>
          </Trackpoint>
          <Trackpoint>
            <Time>2019-10-07T10:51:48.000Z</Time>
            <Position>
              <LatitudeDegrees>40.56008116342127323150634765625</LatitudeDegrees>
              <LongitudeDegrees>-5.6724051944911479949951171875</LongitudeDegrees>
            </Position>
            <AltitudeMeters>983.79998779296875</AltitudeMeters>
            <DistanceMeters>NAN</DistanceMeters>
          </Trackpoint>
          <Trackpoint>
            <Time>2019-10-07T10:51:51.000Z</Time>
            <Position>
              <LatitudeDegrees>40.5599759705364704132080078125</LatitudeDegrees>
              <LongitudeDegrees>-5.67244048230350017547607421875</LongitudeDegrees>
            </Position>
            <AltitudeMeters>983.5999755859375</AltitudeMeters>
            <DistanceMeters>NAN</DistanceMeters>
          </Trackpoint>
          <Trackpoint>
            <Time>2019-10-07T10:51:59.000Z</Time>
            <Position>
              <LatitudeDegrees>40.5596698634326457977294921875</LatitudeDegrees>
              <LongitudeDegrees>-5.67253687418997287750244140625</LongitudeDegrees>
            </Position>
            <AltitudeMeters>984</AltitudeMeters>
            <DistanceMeters>NAN</DistanceMeters>
          </Trackpoint>
          <Trackpoint>
            <Time>2019-10-07T10:52:03.000Z</Time>
            <Position>
              <LatitudeDegrees>40.559510774910449981689453125</LatitudeDegrees>
              <LongitudeDegrees>-5.67256386391818523406982421875</LongitudeDegrees>
            </Position>
            <AltitudeMeters>983.5999755859375</AltitudeMeters>
            <DistanceMeters>NAN</DistanceMeters>
          </Trackpoint>
          <Trackpoint>
            <Time>2019-10-07T10:52:06.000Z</Time>
            <Position>
              <LatitudeDegrees>40.559394098818302154541015625</LatitudeDegrees>
              <LongitudeDegrees>-5.67260828800499439239501953125</LongitudeDegrees>
            </Position>
            <AltitudeMeters>983.79998779296875</AltitudeMeters>
            <DistanceMeters>NAN</DistanceMeters>
          </Trackpoint>
          <Trackpoint>
            <Time>2019-10-07T10:52:07.000Z</Time>
            <Position>
              <LatitudeDegrees>40.55935177020728588104248046875</LatitudeDegrees>
              <LongitudeDegrees>-5.67262941040098667144775390625</LongitudeDegrees>
            </Position>
            <AltitudeMeters>983.5999755859375</AltitudeMeters>
            <DistanceMeters>NAN</DistanceMeters>
          </Trackpoint>
          <Trackpoint>
            <Time>2019-10-07T10:52:13.000Z</Time>
            <Position>
              <LatitudeDegrees>40.55909134447574615478515625</LatitudeDegrees>
              <LongitudeDegrees>-5.67274474538862705230712890625</LongitudeDegrees>
            </Position>
            <AltitudeMeters>983.5999755859375</AltitudeMeters>
            <DistanceMeters>NAN</DistanceMeters>
          </Trackpoint>
          <Trackpoint>
            <Time>2019-10-07T10:52:21.000Z</Time>
            <Position>
              <LatitudeDegrees>40.55873385630548000335693359375</LatitudeDegrees>
              <LongitudeDegrees>-5.6728353537619113922119140625</LongitudeDegrees>
            </Position>
            <AltitudeMeters>983.79998779296875</AltitudeMeters>
            <DistanceMeters>NAN</DistanceMeters>
          </Trackpoint>
          <Trackpoint>
            <Time>2019-10-07T10:52:29.000Z</Time>
            <Position>
              <LatitudeDegrees>40.558363460004329681396484375</LatitudeDegrees>
              <LongitudeDegrees>-5.67285136319696903228759765625</LongitudeDegrees>
            </Position>
            <AltitudeMeters>984.4000244140625</AltitudeMeters>
            <DistanceMeters>NAN</DistanceMeters>
          </Trackpoint>
          <Trackpoint>
            <Time>2019-10-07T10:52:35.000Z</Time>
            <Position>
              <LatitudeDegrees>40.55810404010117053985595703125</LatitudeDegrees>
              <LongitudeDegrees>-5.67287131212651729583740234375</LongitudeDegrees>
            </Position>
            <AltitudeMeters>985</AltitudeMeters>
            <DistanceMeters>NAN</DistanceMeters>
          </Trackpoint>
          <Trackpoint>
            <Time>2019-10-07T10:52:39.000Z</Time>
            <Position>
              <LatitudeDegrees>40.55792047642171382904052734375</LatitudeDegrees>
              <LongitudeDegrees>-5.67286209203302860260009765625</LongitudeDegrees>
            </Position>
            <AltitudeMeters>985.5999755859375</AltitudeMeters>
            <DistanceMeters>NAN</DistanceMeters>
          </Trackpoint>
          <Trackpoint>
            <Time>2019-10-07T10:52:40.000Z</Time>
            <Position>
              <LatitudeDegrees>40.557877980172634124755859375</LatitudeDegrees>
              <LongitudeDegrees>-5.67287139594554901123046875</LongitudeDegrees>
            </Position>
            <AltitudeMeters>986</AltitudeMeters>
            <DistanceMeters>NAN</DistanceMeters>
          </Trackpoint>
          <Trackpoint>
            <Time>2019-10-07T10:52:45.000Z</Time>
            <Position>
              <LatitudeDegrees>40.55767287500202655792236328125</LatitudeDegrees>
              <LongitudeDegrees>-5.67289553582668304443359375</LongitudeDegrees>
            </Position>
            <AltitudeMeters>986.20001220703125</AltitudeMeters>
            <DistanceMeters>NAN</DistanceMeters>
          </Trackpoint>
          <Trackpoint>
            <Time>2019-10-07T10:52:46.000Z</Time>
            <Position>
              <LatitudeDegrees>40.55762979201972484588623046875</LatitudeDegrees>
              <LongitudeDegrees>-5.67289444617927074432373046875</LongitudeDegrees>
            </Position>
            <AltitudeMeters>987</AltitudeMeters>
            <DistanceMeters>NAN</DistanceMeters>
          </Trackpoint>
          <Trackpoint>
            <Time>2019-10-07T10:52:47.000Z</Time>
            <Position>
              <LatitudeDegrees>40.5575938336551189422607421875</LatitudeDegrees>
              <LongitudeDegrees>-5.67289796657860279083251953125</LongitudeDegrees>
            </Position>
            <AltitudeMeters>987.20001220703125</AltitudeMeters>
            <DistanceMeters>NAN</DistanceMeters>
          </Trackpoint>
          <Trackpoint>
            <Time>2019-10-07T10:52:50.000Z</Time>
            <Position>
              <LatitudeDegrees>40.557496435940265655517578125</LatitudeDegrees>
              <LongitudeDegrees>-5.67289377562701702117919921875</LongitudeDegrees>
            </Position>
            <AltitudeMeters>987.5999755859375</AltitudeMeters>
            <DistanceMeters>NAN</DistanceMeters>
          </Trackpoint>
          <Trackpoint>
            <Time>2019-10-07T10:52:56.000Z</Time>
            <Position>
              <LatitudeDegrees>40.5572788417339324951171875</LatitudeDegrees>
              <LongitudeDegrees>-5.672893859446048736572265625</LongitudeDegrees>
            </Position>
            <AltitudeMeters>987.79998779296875</AltitudeMeters>
            <DistanceMeters>NAN</DistanceMeters>
          </Trackpoint>
          <Trackpoint>
            <Time>2019-10-07T10:53:00.000Z</Time>
            <Position>
              <LatitudeDegrees>40.5571475811302661895751953125</LatitudeDegrees>
              <LongitudeDegrees>-5.672904588282108306884765625</LongitudeDegrees>
            </Position>
            <AltitudeMeters>988.4000244140625</AltitudeMeters>
            <DistanceMeters>NAN</DistanceMeters>
          </Trackpoint>
          <Trackpoint>
            <Time>2019-10-07T10:53:03.000Z</Time>
            <Position>
              <LatitudeDegrees>40.55705663748085498809814453125</LatitudeDegrees>
              <LongitudeDegrees>-5.6729178316891193389892578125</LongitudeDegrees>
            </Position>
            <AltitudeMeters>988.5999755859375</AltitudeMeters>
            <DistanceMeters>NAN</DistanceMeters>
          </Trackpoint>
          <Trackpoint>
            <Time>2019-10-07T10:53:06.000Z</Time>
            <Position>
              <LatitudeDegrees>40.556942559778690338134765625</LatitudeDegrees>
              <LongitudeDegrees>-5.6729309074580669403076171875</LongitudeDegrees>
            </Position>
            <AltitudeMeters>988.5999755859375</AltitudeMeters>
            <DistanceMeters>NAN</DistanceMeters>
          </Trackpoint>
          <Trackpoint>
            <Time>2019-10-07T10:53:08.000Z</Time>
            <Position>
              <LatitudeDegrees>40.55685781873762607574462890625</LatitudeDegrees>
              <LongitudeDegrees>-5.6729506887495517730712890625</LongitudeDegrees>
            </Position>
            <AltitudeMeters>988.79998779296875</AltitudeMeters>
            <DistanceMeters>NAN</DistanceMeters>
          </Trackpoint>
          <Trackpoint>
            <Time>2019-10-07T10:53:09.000Z</Time>
            <Position>
              <LatitudeDegrees>40.5568193458020687103271484375</LatitudeDegrees>
              <LongitudeDegrees>-5.67296468652784824371337890625</LongitudeDegrees>
            </Position>
            <AltitudeMeters>988.79998779296875</AltitudeMeters>
            <DistanceMeters>NAN</DistanceMeters>
          </Trackpoint>
          <Trackpoint>
            <Time>2019-10-07T10:53:12.000Z</Time>
            <Position>
              <LatitudeDegrees>40.55670543573796749114990234375</LatitudeDegrees>
              <LongitudeDegrees>-5.67299972288310527801513671875</LongitudeDegrees>
            </Position>
            <AltitudeMeters>989.5999755859375</AltitudeMeters>
            <DistanceMeters>NAN</DistanceMeters>
          </Trackpoint>
          <Trackpoint>
            <Time>2019-10-07T10:53:20.000Z</Time>
            <Position>
              <LatitudeDegrees>40.5563854984939098358154296875</LatitudeDegrees>
              <LongitudeDegrees>-5.673143975436687469482421875</LongitudeDegrees>
            </Position>
            <AltitudeMeters>989.79998779296875</AltitudeMeters>
            <DistanceMeters>NAN</DistanceMeters>
          </Trackpoint>
          <Trackpoint>
            <Time>2019-10-07T10:53:28.000Z</Time>
            <Position>
              <LatitudeDegrees>40.55613823235034942626953125</LatitudeDegrees>
              <LongitudeDegrees>-5.67326324991881847381591796875</LongitudeDegrees>
            </Position>
            <AltitudeMeters>990.20001220703125</AltitudeMeters>
            <DistanceMeters>NAN</DistanceMeters>
          </Trackpoint>
          <Trackpoint>
            <Time>2019-10-07T10:53:33.000Z</Time>
            <Position>
              <LatitudeDegrees>40.5560421757400035858154296875</LatitudeDegrees>
              <LongitudeDegrees>-5.67330448888242244720458984375</LongitudeDegrees>
            </Position>
            <AltitudeMeters>990.4000244140625</AltitudeMeters>
            <DistanceMeters>NAN</DistanceMeters>
          </Trackpoint>
          <Trackpoint>
            <Time>2019-10-07T10:53:34.000Z</Time>
            <Position>
              <LatitudeDegrees>40.55603371001780033111572265625</LatitudeDegrees>
              <LongitudeDegrees>-5.67330859601497650146484375</LongitudeDegrees>
            </Position>
            <AltitudeMeters>990.5999755859375</AltitudeMeters>
            <DistanceMeters>NAN</DistanceMeters>
          </Trackpoint>
          <Trackpoint>
            <Time>2019-10-07T10:53:37.000Z</Time>
            <Position>
              <LatitudeDegrees>40.55601007305085659027099609375</LatitudeDegrees>
              <LongitudeDegrees>-5.673318319022655487060546875</LongitudeDegrees>
            </Position>
            <AltitudeMeters>990.4000244140625</AltitudeMeters>
            <DistanceMeters>NAN</DistanceMeters>
          </Trackpoint>
          <Trackpoint>
            <Time>2019-10-07T10:53:40.000Z</Time>
            <Position>
              <LatitudeDegrees>40.55601024068892002105712890625</LatitudeDegrees>
              <LongitudeDegrees>-5.67332393489778041839599609375</LongitudeDegrees>
            </Position>
            <AltitudeMeters>990.4000244140625</AltitudeMeters>
            <DistanceMeters>NAN</DistanceMeters>
          </Trackpoint>
          <Trackpoint>
            <Time>2019-10-07T10:53:44.000Z</Time>
            <Position>
              <LatitudeDegrees>40.5559109151363372802734375</LatitudeDegrees>
              <LongitudeDegrees>-5.67334790714085102081298828125</LongitudeDegrees>
            </Position>
            <AltitudeMeters>990.20001220703125</AltitudeMeters>
            <DistanceMeters>NAN</DistanceMeters>
          </Trackpoint>
          <Trackpoint>
            <Time>2019-10-07T10:53:47.000Z</Time>
            <Position>
              <LatitudeDegrees>40.55582433007657527923583984375</LatitudeDegrees>
              <LongitudeDegrees>-5.6734110228717327117919921875</LongitudeDegrees>
            </Position>
            <AltitudeMeters>989.79998779296875</AltitudeMeters>
            <DistanceMeters>NAN</DistanceMeters>
          </Trackpoint>
          <Trackpoint>
            <Time>2019-10-07T10:53:51.000Z</Time>
            <Position>
              <LatitudeDegrees>40.55568418465554714202880859375</LatitudeDegrees>
              <LongitudeDegrees>-5.67348352633416652679443359375</LongitudeDegrees>
            </Position>
            <AltitudeMeters>989.79998779296875</AltitudeMeters>
            <DistanceMeters>NAN</DistanceMeters>
          </Trackpoint>
          <Trackpoint>
            <Time>2019-10-07T10:53:59.000Z</Time>
            <Position>
              <LatitudeDegrees>40.5554058216512203216552734375</LatitudeDegrees>
              <LongitudeDegrees>-5.6736396811902523040771484375</LongitudeDegrees>
            </Position>
            <AltitudeMeters>990</AltitudeMeters>
            <DistanceMeters>NAN</DistanceMeters>
          </Trackpoint>
          <Trackpoint>
            <Time>2019-10-07T10:54:08.000Z</Time>
            <Position>
              <LatitudeDegrees>40.55504531599581241607666015625</LatitudeDegrees>
              <LongitudeDegrees>-5.6738254241645336151123046875</LongitudeDegrees>
            </Position>
            <AltitudeMeters>990</AltitudeMeters>
            <DistanceMeters>NAN</DistanceMeters>
          </Trackpoint>
          <Trackpoint>
            <Time>2019-10-07T10:54:17.000Z</Time>
            <Position>
              <LatitudeDegrees>40.554665364325046539306640625</LatitudeDegrees>
              <LongitudeDegrees>-5.6739977560937404632568359375</LongitudeDegrees>
            </Position>
            <AltitudeMeters>990.79998779296875</AltitudeMeters>
            <DistanceMeters>NAN</DistanceMeters>
          </Trackpoint>
          <Trackpoint>
            <Time>2019-10-07T10:54:26.000Z</Time>
            <Position>
              <LatitudeDegrees>40.5542668886482715606689453125</LatitudeDegrees>
              <LongitudeDegrees>-5.674155168235301971435546875</LongitudeDegrees>
            </Position>
            <AltitudeMeters>990.5999755859375</AltitudeMeters>
            <DistanceMeters>NAN</DistanceMeters>
          </Trackpoint>
          <Trackpoint>
            <Time>2019-10-07T10:54:33.000Z</Time>
            <Position>
              <LatitudeDegrees>40.5539232306182384490966796875</LatitudeDegrees>
              <LongitudeDegrees>-5.67428315989673137664794921875</LongitudeDegrees>
            </Position>
            <AltitudeMeters>990.20001220703125</AltitudeMeters>
            <DistanceMeters>NAN</DistanceMeters>
          </Trackpoint>
          <Trackpoint>
            <Time>2019-10-07T10:54:35.000Z</Time>
            <Position>
              <LatitudeDegrees>40.5538149364292621612548828125</LatitudeDegrees>
              <LongitudeDegrees>-5.67432188428938388824462890625</LongitudeDegrees>
            </Position>
            <AltitudeMeters>990.20001220703125</AltitudeMeters>
            <DistanceMeters>NAN</DistanceMeters>
          </Trackpoint>
          <Trackpoint>
            <Time>2019-10-07T10:54:38.000Z</Time>
            <Position>
              <LatitudeDegrees>40.55364972911775112152099609375</LatitudeDegrees>
              <LongitudeDegrees>-5.6743806414306163787841796875</LongitudeDegrees>
            </Position>
            <AltitudeMeters>989.4000244140625</AltitudeMeters>
            <DistanceMeters>NAN</DistanceMeters>
          </Trackpoint>
          <Trackpoint>
            <Time>2019-10-07T10:54:41.000Z</Time>
            <Position>
              <LatitudeDegrees>40.55348242633044719696044921875</LatitudeDegrees>
              <LongitudeDegrees>-5.6744332797825336456298828125</LongitudeDegrees>
            </Position>
            <AltitudeMeters>989</AltitudeMeters>
            <DistanceMeters>NAN</DistanceMeters>
          </Trackpoint>
          <Trackpoint>
            <Time>2019-10-07T10:54:42.000Z</Time>
            <Position>
              <LatitudeDegrees>40.5534256808459758758544921875</LatitudeDegrees>
              <LongitudeDegrees>-5.6744513846933841705322265625</LongitudeDegrees>
            </Position>
            <AltitudeMeters>988.5999755859375</AltitudeMeters>
            <DistanceMeters>NAN</DistanceMeters>
          </Trackpoint>
          <Trackpoint>
            <Time>2019-10-07T10:54:46.000Z</Time>
            <Position>
              <LatitudeDegrees>40.55319249629974365234375</LatitudeDegrees>
              <LongitudeDegrees>-5.67452942021191120147705078125</LongitudeDegrees>
            </Position>
            <AltitudeMeters>988.5999755859375</AltitudeMeters>
            <DistanceMeters>NAN</DistanceMeters>
          </Trackpoint>
          <Trackpoint>
            <Time>2019-10-07T10:54:47.000Z</Time>
            <Position>
              <LatitudeDegrees>40.55313415825366973876953125</LatitudeDegrees>
              <LongitudeDegrees>-5.6745529733598232269287109375</LongitudeDegrees>
            </Position>
            <AltitudeMeters>988.20001220703125</AltitudeMeters>
            <DistanceMeters>NAN</DistanceMeters>
          </Trackpoint>
          <Trackpoint>
            <Time>2019-10-07T10:54:51.000Z</Time>
            <Position>
              <LatitudeDegrees>40.552894771099090576171875</LatitudeDegrees>
              <LongitudeDegrees>-5.67464961670339107513427734375</LongitudeDegrees>
            </Position>
            <AltitudeMeters>987.4000244140625</AltitudeMeters>
            <DistanceMeters>NAN</DistanceMeters>
          </Trackpoint>
          <Trackpoint>
            <Time>2019-10-07T10:54:53.000Z</Time>
            <Position>
              <LatitudeDegrees>40.552776753902435302734375</LatitudeDegrees>
              <LongitudeDegrees>-5.67469839937984943389892578125</LongitudeDegrees>
            </Position>
            <AltitudeMeters>987.20001220703125</AltitudeMeters>
            <DistanceMeters>NAN</DistanceMeters>
          </Trackpoint>
          <Trackpoint>
            <Time>2019-10-07T10:54:59.000Z</Time>
            <Position>
              <LatitudeDegrees>40.55241339839994907379150390625</LatitudeDegrees>
              <LongitudeDegrees>-5.67483209073543548583984375</LongitudeDegrees>
            </Position>
            <AltitudeMeters>986.5999755859375</AltitudeMeters>
            <DistanceMeters>NAN</DistanceMeters>
          </Trackpoint>
          <Trackpoint>
            <Time>2019-10-07T10:55:00.000Z</Time>
            <Position>
              <LatitudeDegrees>40.55235170759260654449462890625</LatitudeDegrees>
              <LongitudeDegrees>-5.67485497333109378814697265625</LongitudeDegrees>
            </Position>
            <AltitudeMeters>986.5999755859375</AltitudeMeters>
            <DistanceMeters>NAN</DistanceMeters>
          </Trackpoint>
          <Trackpoint>
            <Time>2019-10-07T10:55:01.000Z</Time>
            <Position>
              <LatitudeDegrees>40.55228649638593196868896484375</LatitudeDegrees>
              <LongitudeDegrees>-5.67488045431673526763916015625</LongitudeDegrees>
            </Position>
            <AltitudeMeters>986.4000244140625</AltitudeMeters>
            <DistanceMeters>NAN</DistanceMeters>
          </Trackpoint>
          <Trackpoint>
            <Time>2019-10-07T10:55:03.000Z</Time>
            <Position>
              <LatitudeDegrees>40.55215959437191486358642578125</LatitudeDegrees>
              <LongitudeDegrees>-5.67492705769836902618408203125</LongitudeDegrees>
            </Position>
            <AltitudeMeters>986</AltitudeMeters>
            <DistanceMeters>NAN</DistanceMeters>
          </Trackpoint>
          <Trackpoint>
            <Time>2019-10-07T10:55:06.000Z</Time>
            <Position>
              <LatitudeDegrees>40.55196010507643222808837890625</LatitudeDegrees>
              <LongitudeDegrees>-5.6749998964369297027587890625</LongitudeDegrees>
            </Position>
            <AltitudeMeters>985.4000244140625</AltitudeMeters>
            <DistanceMeters>NAN</DistanceMeters>
          </Trackpoint>
          <Trackpoint>
            <Time>2019-10-07T10:55:07.000Z</Time>
            <Position>
              <LatitudeDegrees>40.55189422331750392913818359375</LatitudeDegrees>
              <LongitudeDegrees>-5.67502395249903202056884765625</LongitudeDegrees>
            </Position>
            <AltitudeMeters>985</AltitudeMeters>
            <DistanceMeters>NAN</DistanceMeters>
          </Trackpoint>
          <Trackpoint>
            <Time>2019-10-07T10:55:08.000Z</Time>
            <Position>
              <LatitudeDegrees>40.5518277548253536224365234375</LatitudeDegrees>
              <LongitudeDegrees>-5.67504800856113433837890625</LongitudeDegrees>
            </Position>
            <AltitudeMeters>985</AltitudeMeters>
            <DistanceMeters>NAN</DistanceMeters>
          </Trackpoint>
          <Trackpoint>
            <Time>2019-10-07T10:55:12.000Z</Time>
            <Position>
              <LatitudeDegrees>40.55156162939965724945068359375</LatitudeDegrees>
              <LongitudeDegrees>-5.6751398742198944091796875</LongitudeDegrees>
            </Position>
            <AltitudeMeters>984.4000244140625</AltitudeMeters>
            <DistanceMeters>NAN</DistanceMeters>
          </Trackpoint>
          <Trackpoint>
            <Time>2019-10-07T10:55:13.000Z</Time>
            <Position>
              <LatitudeDegrees>40.55149222724139690399169921875</LatitudeDegrees>
              <LongitudeDegrees>-5.675161667168140411376953125</LongitudeDegrees>
            </Position>
            <AltitudeMeters>984.4000244140625</AltitudeMeters>
            <DistanceMeters>NAN</DistanceMeters>
          </Trackpoint>
          <Trackpoint>
            <Time>2019-10-07T10:55:14.000Z</Time>
            <Position>
              <LatitudeDegrees>40.55142651312053203582763671875</LatitudeDegrees>
              <LongitudeDegrees>-5.67518337629735469818115234375</LongitudeDegrees>
            </Position>
            <AltitudeMeters>984.20001220703125</AltitudeMeters>
            <DistanceMeters>NAN</DistanceMeters>
          </Trackpoint>
          <Trackpoint>
            <Time>2019-10-07T10:55:16.000Z</Time>
            <Position>
              <LatitudeDegrees>40.55129039101302623748779296875</LatitudeDegrees>
              <LongitudeDegrees>-5.67523031495511531829833984375</LongitudeDegrees>
            </Position>
            <AltitudeMeters>984</AltitudeMeters>
            <DistanceMeters>NAN</DistanceMeters>
          </Trackpoint>
          <Trackpoint>
            <Time>2019-10-07T10:55:17.000Z</Time>
            <Position>
              <LatitudeDegrees>40.55122232995927333831787109375</LatitudeDegrees>
              <LongitudeDegrees>-5.6752526946365833282470703125</LongitudeDegrees>
            </Position>
            <AltitudeMeters>984</AltitudeMeters>
            <DistanceMeters>NAN</DistanceMeters>
          </Trackpoint>
          <Trackpoint>
            <Time>2019-10-07T10:55:18.000Z</Time>
            <Position>
              <LatitudeDegrees>40.55115343071520328521728515625</LatitudeDegrees>
              <LongitudeDegrees>-5.67527624778449535369873046875</LongitudeDegrees>
            </Position>
            <AltitudeMeters>984</AltitudeMeters>
            <DistanceMeters>NAN</DistanceMeters>
          </Trackpoint>
          <Trackpoint>
            <Time>2019-10-07T10:55:19.000Z</Time>
            <Position>
              <LatitudeDegrees>40.5510854534804821014404296875</LatitudeDegrees>
              <LongitudeDegrees>-5.6752999685704708099365234375</LongitudeDegrees>
            </Position>
            <AltitudeMeters>983.79998779296875</AltitudeMeters>
            <DistanceMeters>NAN</DistanceMeters>
          </Trackpoint>
          <Trackpoint>
            <Time>2019-10-07T10:55:20.000Z</Time>
            <Position>
              <LatitudeDegrees>40.55101429112255573272705078125</LatitudeDegrees>
              <LongitudeDegrees>-5.6753244437277317047119140625</LongitudeDegrees>
            </Position>
            <AltitudeMeters>983.5999755859375</AltitudeMeters>
            <DistanceMeters>NAN</DistanceMeters>
          </Trackpoint>
          <Trackpoint>
            <Time>2019-10-07T10:55:21.000Z</Time>
            <Position>
              <LatitudeDegrees>40.550945810973644256591796875</LatitudeDegrees>
              <LongitudeDegrees>-5.675346739590167999267578125</LongitudeDegrees>
            </Position>
            <AltitudeMeters>983.4000244140625</AltitudeMeters>
            <DistanceMeters>NAN</DistanceMeters>
          </Trackpoint>
          <Trackpoint>
            <Time>2019-10-07T10:55:23.000Z</Time>
            <Position>
              <LatitudeDegrees>40.5508095212280750274658203125</LatitudeDegrees>
              <LongitudeDegrees>-5.675393007695674896240234375</LongitudeDegrees>
            </Position>
            <AltitudeMeters>983</AltitudeMeters>
            <DistanceMeters>NAN</DistanceMeters>
          </Trackpoint>
          <Trackpoint>
            <Time>2019-10-07T10:55:26.000Z</Time>
            <Position>
              <LatitudeDegrees>40.550600476562976837158203125</LatitudeDegrees>
              <LongitudeDegrees>-5.67546433769166469573974609375</LongitudeDegrees>
            </Position>
            <AltitudeMeters>982.79998779296875</AltitudeMeters>
            <DistanceMeters>NAN</DistanceMeters>
          </Trackpoint>
          <Trackpoint>
            <Time>2019-10-07T10:55:27.000Z</Time>
            <Position>
              <LatitudeDegrees>40.5505305714905261993408203125</LatitudeDegrees>
              <LongitudeDegrees>-5.67548579536378383636474609375</LongitudeDegrees>
            </Position>
            <AltitudeMeters>982.5999755859375</AltitudeMeters>
            <DistanceMeters>NAN</DistanceMeters>
          </Trackpoint>
          <Trackpoint>
            <Time>2019-10-07T10:55:28.000Z</Time>
            <Position>
              <LatitudeDegrees>40.55045622400939464569091796875</LatitudeDegrees>
              <LongitudeDegrees>-5.675511695444583892822265625</LongitudeDegrees>
            </Position>
            <AltitudeMeters>982.20001220703125</AltitudeMeters>
            <DistanceMeters>NAN</DistanceMeters>
          </Trackpoint>
          <Trackpoint>
            <Time>2019-10-07T10:55:30.000Z</Time>
            <Position>
              <LatitudeDegrees>40.55030870251357555389404296875</LatitudeDegrees>
              <LongitudeDegrees>-5.6755650043487548828125</LongitudeDegrees>
            </Position>
            <AltitudeMeters>981.5999755859375</AltitudeMeters>
            <DistanceMeters>NAN</DistanceMeters>
          </Trackpoint>
          <Trackpoint>
            <Time>2019-10-07T10:55:32.000Z</Time>
            <Position>
              <LatitudeDegrees>40.5501548945903778076171875</LatitudeDegrees>
              <LongitudeDegrees>-5.6756211631000041961669921875</LongitudeDegrees>
            </Position>
            <AltitudeMeters>980.5999755859375</AltitudeMeters>
            <DistanceMeters>NAN</DistanceMeters>
          </Trackpoint>
          <Trackpoint>
            <Time>2019-10-07T10:55:34.000Z</Time>
            <Position>
              <LatitudeDegrees>40.54999236948788166046142578125</LatitudeDegrees>
              <LongitudeDegrees>-5.67568578757345676422119140625</LongitudeDegrees>
            </Position>
            <AltitudeMeters>980</AltitudeMeters>
            <DistanceMeters>NAN</DistanceMeters>
          </Trackpoint>
          <Trackpoint>
            <Time>2019-10-07T10:55:35.000Z</Time>
            <Position>
              <LatitudeDegrees>40.54990855045616626739501953125</LatitudeDegrees>
              <LongitudeDegrees>-5.67571395076811313629150390625</LongitudeDegrees>
            </Position>
            <AltitudeMeters>979.4000244140625</AltitudeMeters>
            <DistanceMeters>NAN</DistanceMeters>
          </Trackpoint>
          <Trackpoint>
            <Time>2019-10-07T10:55:39.000Z</Time>
            <Position>
              <LatitudeDegrees>40.5495559237897396087646484375</LatitudeDegrees>
              <LongitudeDegrees>-5.6758484803140163421630859375</LongitudeDegrees>
            </Position>
            <AltitudeMeters>978.20001220703125</AltitudeMeters>
            <DistanceMeters>NAN</DistanceMeters>
          </Trackpoint>
          <Trackpoint>
            <Time>2019-10-07T10:55:41.000Z</Time>
            <Position>
              <LatitudeDegrees>40.54937236011028289794921875</LatitudeDegrees>
              <LongitudeDegrees>-5.67591930739581584930419921875</LongitudeDegrees>
            </Position>
            <AltitudeMeters>977.20001220703125</AltitudeMeters>
            <DistanceMeters>NAN</DistanceMeters>
          </Trackpoint>
          <Trackpoint>
            <Time>2019-10-07T10:55:42.000Z</Time>
            <Position>
              <LatitudeDegrees>40.54927311837673187255859375</LatitudeDegrees>
              <LongitudeDegrees>-5.675954930484294891357421875</LongitudeDegrees>
            </Position>
            <AltitudeMeters>976.79998779296875</AltitudeMeters>
            <DistanceMeters>NAN</DistanceMeters>
          </Trackpoint>
          <Trackpoint>
            <Time>2019-10-07T10:55:44.000Z</Time>
            <Position>
              <LatitudeDegrees>40.54908745922148227691650390625</LatitudeDegrees>
              <LongitudeDegrees>-5.67602508701384067535400390625</LongitudeDegrees>
            </Position>
            <AltitudeMeters>975.5999755859375</AltitudeMeters>
            <DistanceMeters>NAN</DistanceMeters>
          </Trackpoint>
          <Trackpoint>
            <Time>2019-10-07T10:55:47.000Z</Time>
            <Position>
              <LatitudeDegrees>40.5488468147814273834228515625</LatitudeDegrees>
              <LongitudeDegrees>-5.676111839711666107177734375</LongitudeDegrees>
            </Position>
            <AltitudeMeters>974.20001220703125</AltitudeMeters>
            <DistanceMeters>NAN</DistanceMeters>
          </Trackpoint>
          <Trackpoint>
            <Time>2019-10-07T10:55:49.000Z</Time>
            <Position>
              <LatitudeDegrees>40.54871865548193454742431640625</LatitudeDegrees>
              <LongitudeDegrees>-5.67615441977977752685546875</LongitudeDegrees>
            </Position>
            <AltitudeMeters>974.5999755859375</AltitudeMeters>
            <DistanceMeters>NAN</DistanceMeters>
          </Trackpoint>
          <Trackpoint>
            <Time>2019-10-07T10:55:52.000Z</Time>
            <Position>
              <LatitudeDegrees>40.54851673543453216552734375</LatitudeDegrees>
              <LongitudeDegrees>-5.67623647861182689666748046875</LongitudeDegrees>
            </Position>
            <AltitudeMeters>973.5999755859375</AltitudeMeters>
            <DistanceMeters>NAN</DistanceMeters>
          </Trackpoint>
          <Trackpoint>
            <Time>2019-10-07T10:55:53.000Z</Time>
            <Position>
              <LatitudeDegrees>40.548442639410495758056640625</LatitudeDegrees>
              <LongitudeDegrees>-5.6762675754725933074951171875</LongitudeDegrees>
            </Position>
            <AltitudeMeters>973</AltitudeMeters>
            <DistanceMeters>NAN</DistanceMeters>
          </Trackpoint>
          <Trackpoint>
            <Time>2019-10-07T10:55:54.000Z</Time>
            <Position>
              <LatitudeDegrees>40.5483713932335376739501953125</LatitudeDegrees>
              <LongitudeDegrees>-5.6762967444956302642822265625</LongitudeDegrees>
            </Position>
            <AltitudeMeters>971.79998779296875</AltitudeMeters>
            <DistanceMeters>NAN</DistanceMeters>
          </Trackpoint>
          <Trackpoint>
            <Time>2019-10-07T10:55:56.000Z</Time>
            <Position>
              <LatitudeDegrees>40.54822429083287715911865234375</LatitudeDegrees>
              <LongitudeDegrees>-5.6763527356088161468505859375</LongitudeDegrees>
            </Position>
            <AltitudeMeters>971.79998779296875</AltitudeMeters>
            <DistanceMeters>NAN</DistanceMeters>
          </Trackpoint>
          <Trackpoint>
            <Time>2019-10-07T10:55:59.000Z</Time>
            <Position>
              <LatitudeDegrees>40.54798926226794719696044921875</LatitudeDegrees>
              <LongitudeDegrees>-5.67644166760146617889404296875</LongitudeDegrees>
            </Position>
            <AltitudeMeters>970.79998779296875</AltitudeMeters>
            <DistanceMeters>NAN</DistanceMeters>
          </Trackpoint>
          <Trackpoint>
            <Time>2019-10-07T10:56:01.000Z</Time>
            <Position>
              <LatitudeDegrees>40.54782204329967498779296875</LatitudeDegrees>
              <LongitudeDegrees>-5.676497407257556915283203125</LongitudeDegrees>
            </Position>
            <AltitudeMeters>970.20001220703125</AltitudeMeters>
            <DistanceMeters>NAN</DistanceMeters>
          </Trackpoint>
          <Trackpoint>
            <Time>2019-10-07T10:56:02.000Z</Time>
            <Position>
              <LatitudeDegrees>40.547744594514369964599609375</LatitudeDegrees>
              <LongitudeDegrees>-5.676521547138690948486328125</LongitudeDegrees>
            </Position>
            <AltitudeMeters>969.5999755859375</AltitudeMeters>
            <DistanceMeters>NAN</DistanceMeters>
          </Trackpoint>
          <Trackpoint>
            <Time>2019-10-07T10:56:04.000Z</Time>
            <Position>
              <LatitudeDegrees>40.54759128950536251068115234375</LatitudeDegrees>
              <LongitudeDegrees>-5.67655733786523342132568359375</LongitudeDegrees>
            </Position>
            <AltitudeMeters>969.4000244140625</AltitudeMeters>
            <DistanceMeters>NAN</DistanceMeters>
          </Trackpoint>
          <Trackpoint>
            <Time>2019-10-07T10:56:07.000Z</Time>
            <Position>
              <LatitudeDegrees>40.547349639236927032470703125</LatitudeDegrees>
              <LongitudeDegrees>-5.67658625543117523193359375</LongitudeDegrees>
            </Position>
            <AltitudeMeters>968.79998779296875</AltitudeMeters>
            <DistanceMeters>NAN</DistanceMeters>
          </Trackpoint>
          <Trackpoint>
            <Time>2019-10-07T10:56:08.000Z</Time>
            <Position>
              <LatitudeDegrees>40.54726791568100452423095703125</LatitudeDegrees>
              <LongitudeDegrees>-5.676588602364063262939453125</LongitudeDegrees>
            </Position>
            <AltitudeMeters>968.20001220703125</AltitudeMeters>
            <DistanceMeters>NAN</DistanceMeters>
          </Trackpoint>
          <Trackpoint>
            <Time>2019-10-07T10:56:09.000Z</Time>
            <Position>
              <LatitudeDegrees>40.5471848510205745697021484375</LatitudeDegrees>
              <LongitudeDegrees>-5.67658483050763607025146484375</LongitudeDegrees>
            </Position>
            <AltitudeMeters>968</AltitudeMeters>
            <DistanceMeters>NAN</DistanceMeters>
          </Trackpoint>
          <Trackpoint>
            <Time>2019-10-07T10:56:10.000Z</Time>
            <Position>
              <LatitudeDegrees>40.54709508083760738372802734375</LatitudeDegrees>
              <LongitudeDegrees>-5.67657661624252796173095703125</LongitudeDegrees>
            </Position>
            <AltitudeMeters>967.20001220703125</AltitudeMeters>
            <DistanceMeters>NAN</DistanceMeters>
          </Trackpoint>
          <Trackpoint>
            <Time>2019-10-07T10:56:12.000Z</Time>
            <Position>
              <LatitudeDegrees>40.5469223298132419586181640625</LatitudeDegrees>
              <LongitudeDegrees>-5.676549710333347320556640625</LongitudeDegrees>
            </Position>
            <AltitudeMeters>965.5999755859375</AltitudeMeters>
            <DistanceMeters>NAN</DistanceMeters>
          </Trackpoint>
          <Trackpoint>
            <Time>2019-10-07T10:56:14.000Z</Time>
            <Position>
              <LatitudeDegrees>40.54674153216183185577392578125</LatitudeDegrees>
              <LongitudeDegrees>-5.67651408724486827850341796875</LongitudeDegrees>
            </Position>
            <AltitudeMeters>964.79998779296875</AltitudeMeters>
            <DistanceMeters>NAN</DistanceMeters>
          </Trackpoint>
          <Trackpoint>
            <Time>2019-10-07T10:56:15.000Z</Time>
            <Position>
              <LatitudeDegrees>40.5466463975608348846435546875</LatitudeDegrees>
              <LongitudeDegrees>-5.67648944444954395294189453125</LongitudeDegrees>
            </Position>
            <AltitudeMeters>964.5999755859375</AltitudeMeters>
            <DistanceMeters>NAN</DistanceMeters>
          </Trackpoint>
          <Trackpoint>
            <Time>2019-10-07T10:56:16.000Z</Time>
            <Position>
              <LatitudeDegrees>40.546555705368518829345703125</LatitudeDegrees>
              <LongitudeDegrees>-5.67646379582583904266357421875</LongitudeDegrees>
            </Position>
            <AltitudeMeters>963.79998779296875</AltitudeMeters>
            <DistanceMeters>NAN</DistanceMeters>
          </Trackpoint>
          <Trackpoint>
            <Time>2019-10-07T10:56:17.000Z</Time>
            <Position>
              <LatitudeDegrees>40.5464630015194416046142578125</LatitudeDegrees>
              <LongitudeDegrees>-5.676434375345706939697265625</LongitudeDegrees>
            </Position>
            <AltitudeMeters>963</AltitudeMeters>
            <DistanceMeters>NAN</DistanceMeters>
          </Trackpoint>
          <Trackpoint>
            <Time>2019-10-07T10:56:22.000Z</Time>
            <Position>
              <LatitudeDegrees>40.54599453695118427276611328125</LatitudeDegrees>
              <LongitudeDegrees>-5.67628023214638233184814453125</LongitudeDegrees>
            </Position>
            <AltitudeMeters>962.4000244140625</AltitudeMeters>
            <DistanceMeters>NAN</DistanceMeters>
          </Trackpoint>
          <Trackpoint>
            <Time>2019-10-07T10:56:24.000Z</Time>
            <Position>
              <LatitudeDegrees>40.54580904543399810791015625</LatitudeDegrees>
              <LongitudeDegrees>-5.67622072063386440277099609375</LongitudeDegrees>
            </Position>
            <AltitudeMeters>962.4000244140625</AltitudeMeters>
            <DistanceMeters>NAN</DistanceMeters>
          </Trackpoint>
          <Trackpoint>
            <Time>2019-10-07T10:56:25.000Z</Time>
            <Position>
              <LatitudeDegrees>40.545716844499111175537109375</LatitudeDegrees>
              <LongitudeDegrees>-5.6761877797544002532958984375</LongitudeDegrees>
            </Position>
            <AltitudeMeters>961.79998779296875</AltitudeMeters>
            <DistanceMeters>NAN</DistanceMeters>
          </Trackpoint>
          <Trackpoint>
            <Time>2019-10-07T10:56:29.000Z</Time>
            <Position>
              <LatitudeDegrees>40.5453591048717498779296875</LatitudeDegrees>
              <LongitudeDegrees>-5.676074288785457611083984375</LongitudeDegrees>
            </Position>
            <AltitudeMeters>961.20001220703125</AltitudeMeters>
            <DistanceMeters>NAN</DistanceMeters>
          </Trackpoint>
          <Trackpoint>
            <Time>2019-10-07T10:56:30.000Z</Time>
            <Position>
              <LatitudeDegrees>40.54527050815522670745849609375</LatitudeDegrees>
              <LongitudeDegrees>-5.67604419775307178497314453125</LongitudeDegrees>
            </Position>
            <AltitudeMeters>960.79998779296875</AltitudeMeters>
            <DistanceMeters>NAN</DistanceMeters>
          </Trackpoint>
          <Trackpoint>
            <Time>2019-10-07T10:56:31.000Z</Time>
            <Position>
              <LatitudeDegrees>40.545179061591625213623046875</LatitudeDegrees>
              <LongitudeDegrees>-5.67601402290165424346923828125</LongitudeDegrees>
            </Position>
            <AltitudeMeters>961</AltitudeMeters>
            <DistanceMeters>NAN</DistanceMeters>
          </Trackpoint>
          <Trackpoint>
            <Time>2019-10-07T10:56:33.000Z</Time>
            <Position>
              <LatitudeDegrees>40.5450065620243549346923828125</LatitudeDegrees>
              <LongitudeDegrees>-5.67596054635941982269287109375</LongitudeDegrees>
            </Position>
            <AltitudeMeters>960.79998779296875</AltitudeMeters>
            <DistanceMeters>NAN</DistanceMeters>
          </Trackpoint>
          <Trackpoint>
            <Time>2019-10-07T10:56:35.000Z</Time>
            <Position>
              <LatitudeDegrees>40.5448352359235286712646484375</LatitudeDegrees>
              <LongitudeDegrees>-5.6759051419794559478759765625</LongitudeDegrees>
            </Position>
            <AltitudeMeters>959.5999755859375</AltitudeMeters>
            <DistanceMeters>NAN</DistanceMeters>
          </Trackpoint>
          <Trackpoint>
            <Time>2019-10-07T10:56:37.000Z</Time>
            <Position>
              <LatitudeDegrees>40.5446706153452396392822265625</LatitudeDegrees>
              <LongitudeDegrees>-5.67585267126560211181640625</LongitudeDegrees>
            </Position>
            <AltitudeMeters>960</AltitudeMeters>
            <DistanceMeters>NAN</DistanceMeters>
          </Trackpoint>
          <Trackpoint>
            <Time>2019-10-07T10:56:38.000Z</Time>
            <Position>
              <LatitudeDegrees>40.5445894785225391387939453125</LatitudeDegrees>
              <LongitudeDegrees>-5.67582777701318264007568359375</LongitudeDegrees>
            </Position>
            <AltitudeMeters>959.79998779296875</AltitudeMeters>
            <DistanceMeters>NAN</DistanceMeters>
          </Trackpoint>
          <Trackpoint>
            <Time>2019-10-07T10:56:39.000Z</Time>
            <Position>
              <LatitudeDegrees>40.54450507275760173797607421875</LatitudeDegrees>
              <LongitudeDegrees>-5.67580179311335086822509765625</LongitudeDegrees>
            </Position>
            <AltitudeMeters>959.20001220703125</AltitudeMeters>
            <DistanceMeters>NAN</DistanceMeters>
          </Trackpoint>
          <Trackpoint>
            <Time>2019-10-07T10:56:41.000Z</Time>
            <Position>
              <LatitudeDegrees>40.54434799589216709136962890625</LatitudeDegrees>
              <LongitudeDegrees>-5.67575250752270221710205078125</LongitudeDegrees>
            </Position>
            <AltitudeMeters>959.5999755859375</AltitudeMeters>
            <DistanceMeters>NAN</DistanceMeters>
          </Trackpoint>
          <Trackpoint>
            <Time>2019-10-07T10:56:43.000Z</Time>
            <Position>
              <LatitudeDegrees>40.54419443942606449127197265625</LatitudeDegrees>
              <LongitudeDegrees>-5.67570489831268787384033203125</LongitudeDegrees>
            </Position>
            <AltitudeMeters>960.20001220703125</AltitudeMeters>
            <DistanceMeters>NAN</DistanceMeters>
          </Trackpoint>
          <Trackpoint>
            <Time>2019-10-07T10:56:46.000Z</Time>
            <Position>
              <LatitudeDegrees>40.543968379497528076171875</LatitudeDegrees>
              <LongitudeDegrees>-5.6756379269063472747802734375</LongitudeDegrees>
            </Position>
            <AltitudeMeters>959.4000244140625</AltitudeMeters>
            <DistanceMeters>NAN</DistanceMeters>
          </Trackpoint>
          <Trackpoint>
            <Time>2019-10-07T10:56:47.000Z</Time>
            <Position>
              <LatitudeDegrees>40.54388967342674732208251953125</LatitudeDegrees>
              <LongitudeDegrees>-5.67561529576778411865234375</LongitudeDegrees>
            </Position>
            <AltitudeMeters>959.5999755859375</AltitudeMeters>
            <DistanceMeters>NAN</DistanceMeters>
          </Trackpoint>
          <Trackpoint>
            <Time>2019-10-07T10:56:50.000Z</Time>
            <Position>
              <LatitudeDegrees>40.5436651222407817840576171875</LatitudeDegrees>
              <LongitudeDegrees>-5.6755463965237140655517578125</LongitudeDegrees>
            </Position>
            <AltitudeMeters>959.5999755859375</AltitudeMeters>
            <DistanceMeters>NAN</DistanceMeters>
          </Trackpoint>
          <Trackpoint>
            <Time>2019-10-07T10:56:55.000Z</Time>
            <Position>
              <LatitudeDegrees>40.54329045116901397705078125</LatitudeDegrees>
              <LongitudeDegrees>-5.67543801851570606231689453125</LongitudeDegrees>
            </Position>
            <AltitudeMeters>958.79998779296875</AltitudeMeters>
            <DistanceMeters>NAN</DistanceMeters>
          </Trackpoint>
          <Trackpoint>
            <Time>2019-10-07T10:56:57.000Z</Time>
            <Position>
              <LatitudeDegrees>40.54313966073095798492431640625</LatitudeDegrees>
              <LongitudeDegrees>-5.67539979703724384307861328125</LongitudeDegrees>
            </Position>
            <AltitudeMeters>958.5999755859375</AltitudeMeters>
            <DistanceMeters>NAN</DistanceMeters>
          </Trackpoint>
          <Trackpoint>
            <Time>2019-10-07T10:57:02.000Z</Time>
            <Position>
              <LatitudeDegrees>40.54277085699141025543212890625</LatitudeDegrees>
              <LongitudeDegrees>-5.67531094886362552642822265625</LongitudeDegrees>
            </Position>
            <AltitudeMeters>957.4000244140625</AltitudeMeters>
            <DistanceMeters>NAN</DistanceMeters>
          </Trackpoint>
          <Trackpoint>
            <Time>2019-10-07T10:57:06.000Z</Time>
            <Position>
              <LatitudeDegrees>40.5424782447516918182373046875</LatitudeDegrees>
              <LongitudeDegrees>-5.6752466596662998199462890625</LongitudeDegrees>
            </Position>
            <AltitudeMeters>957.79998779296875</AltitudeMeters>
            <DistanceMeters>NAN</DistanceMeters>
          </Trackpoint>
          <Trackpoint>
            <Time>2019-10-07T10:57:11.000Z</Time>
            <Position>
              <LatitudeDegrees>40.54211455397307872772216796875</LatitudeDegrees>
              <LongitudeDegrees>-5.67517164163291454315185546875</LongitudeDegrees>
            </Position>
            <AltitudeMeters>958.20001220703125</AltitudeMeters>
            <DistanceMeters>NAN</DistanceMeters>
          </Trackpoint>
          <Trackpoint>
            <Time>2019-10-07T10:57:17.000Z</Time>
            <Position>
              <LatitudeDegrees>40.54167416878044605255126953125</LatitudeDegrees>
              <LongitudeDegrees>-5.6750780157744884490966796875</LongitudeDegrees>
            </Position>
            <AltitudeMeters>956.79998779296875</AltitudeMeters>
            <DistanceMeters>NAN</DistanceMeters>
          </Trackpoint>
          <Trackpoint>
            <Time>2019-10-07T10:57:24.000Z</Time>
            <Position>
              <LatitudeDegrees>40.54114996455609798431396484375</LatitudeDegrees>
              <LongitudeDegrees>-5.67498899996280670166015625</LongitudeDegrees>
            </Position>
            <AltitudeMeters>956.4000244140625</AltitudeMeters>
            <DistanceMeters>NAN</DistanceMeters>
          </Trackpoint>
          <Trackpoint>
            <Time>2019-10-07T10:57:25.000Z</Time>
            <Position>
              <LatitudeDegrees>40.54107301868498325347900390625</LatitudeDegrees>
              <LongitudeDegrees>-5.67497684620320796966552734375</LongitudeDegrees>
            </Position>
            <AltitudeMeters>956.20001220703125</AltitudeMeters>
            <DistanceMeters>NAN</DistanceMeters>
          </Trackpoint>
          <Trackpoint>
            <Time>2019-10-07T10:57:29.000Z</Time>
            <Position>
              <LatitudeDegrees>40.540773533284664154052734375</LatitudeDegrees>
              <LongitudeDegrees>-5.6749355234205722808837890625</LongitudeDegrees>
            </Position>
            <AltitudeMeters>955.79998779296875</AltitudeMeters>
            <DistanceMeters>NAN</DistanceMeters>
          </Trackpoint>
          <Trackpoint>
            <Time>2019-10-07T10:57:33.000Z</Time>
            <Position>
              <LatitudeDegrees>40.54048083722591400146484375</LatitudeDegrees>
              <LongitudeDegrees>-5.67492001689970493316650390625</LongitudeDegrees>
            </Position>
            <AltitudeMeters>955</AltitudeMeters>
            <DistanceMeters>NAN</DistanceMeters>
          </Trackpoint>
          <Trackpoint>
            <Time>2019-10-07T10:57:38.000Z</Time>
            <Position>
              <LatitudeDegrees>40.5401132069528102874755859375</LatitudeDegrees>
              <LongitudeDegrees>-5.6749304942786693572998046875</LongitudeDegrees>
            </Position>
            <AltitudeMeters>955.4000244140625</AltitudeMeters>
            <DistanceMeters>NAN</DistanceMeters>
          </Trackpoint>
          <Trackpoint>
            <Time>2019-10-07T10:57:46.000Z</Time>
            <Position>
              <LatitudeDegrees>40.539541058242321014404296875</LatitudeDegrees>
              <LongitudeDegrees>-5.67498271353542804718017578125</LongitudeDegrees>
            </Position>
            <AltitudeMeters>954.20001220703125</AltitudeMeters>
            <DistanceMeters>NAN</DistanceMeters>
          </Trackpoint>
          <Trackpoint>
            <Time>2019-10-07T10:57:48.000Z</Time>
            <Position>
              <LatitudeDegrees>40.53940133191645145416259765625</LatitudeDegrees>
              <LongitudeDegrees>-5.6750086136162281036376953125</LongitudeDegrees>
            </Position>
            <AltitudeMeters>954.20001220703125</AltitudeMeters>
            <DistanceMeters>NAN</DistanceMeters>
          </Trackpoint>
          <Trackpoint>
            <Time>2019-10-07T10:57:50.000Z</Time>
            <Position>
              <LatitudeDegrees>40.53925666026771068572998046875</LatitudeDegrees>
              <LongitudeDegrees>-5.6750438176095485687255859375</LongitudeDegrees>
            </Position>
            <AltitudeMeters>953.4000244140625</AltitudeMeters>
            <DistanceMeters>NAN</DistanceMeters>
          </Trackpoint>
          <Trackpoint>
            <Time>2019-10-07T10:57:56.000Z</Time>
            <Position>
              <LatitudeDegrees>40.5388066358864307403564453125</LatitudeDegrees>
              <LongitudeDegrees>-5.67516376264393329620361328125</LongitudeDegrees>
            </Position>
            <AltitudeMeters>952</AltitudeMeters>
            <DistanceMeters>NAN</DistanceMeters>
          </Trackpoint>
          <Trackpoint>
            <Time>2019-10-07T10:57:57.000Z</Time>
            <Position>
              <LatitudeDegrees>40.53872759453952312469482421875</LatitudeDegrees>
              <LongitudeDegrees>-5.67518748342990875244140625</LongitudeDegrees>
            </Position>
            <AltitudeMeters>951.20001220703125</AltitudeMeters>
            <DistanceMeters>NAN</DistanceMeters>
          </Trackpoint>
          <Trackpoint>
            <Time>2019-10-07T10:57:58.000Z</Time>
            <Position>
              <LatitudeDegrees>40.53864964284002780914306640625</LatitudeDegrees>
              <LongitudeDegrees>-5.6752109527587890625</LongitudeDegrees>
            </Position>
            <AltitudeMeters>950.4000244140625</AltitudeMeters>
            <DistanceMeters>NAN</DistanceMeters>
          </Trackpoint>
          <Trackpoint>
            <Time>2019-10-07T10:58:03.000Z</Time>
            <Position>
              <LatitudeDegrees>40.53824462927877902984619140625</LatitudeDegrees>
              <LongitudeDegrees>-5.6753190793097019195556640625</LongitudeDegrees>
            </Position>
            <AltitudeMeters>949.5999755859375</AltitudeMeters>
            <DistanceMeters>NAN</DistanceMeters>
          </Trackpoint>
          <Trackpoint>
            <Time>2019-10-07T10:58:04.000Z</Time>
            <Position>
              <LatitudeDegrees>40.53816282190382480621337890625</LatitudeDegrees>
              <LongitudeDegrees>-5.67534246481955051422119140625</LongitudeDegrees>
            </Position>
            <AltitudeMeters>949.20001220703125</AltitudeMeters>
            <DistanceMeters>NAN</DistanceMeters>
          </Trackpoint>
          <Trackpoint>
            <Time>2019-10-07T10:58:05.000Z</Time>
            <Position>
              <LatitudeDegrees>40.5380780808627605438232421875</LatitudeDegrees>
              <LongitudeDegrees>-5.67536341957747936248779296875</LongitudeDegrees>
            </Position>
            <AltitudeMeters>949</AltitudeMeters>
            <DistanceMeters>NAN</DistanceMeters>
          </Trackpoint>
          <Trackpoint>
            <Time>2019-10-07T10:58:08.000Z</Time>
            <Position>
              <LatitudeDegrees>40.53782142698764801025390625</LatitudeDegrees>
              <LongitudeDegrees>-5.675430558621883392333984375</LongitudeDegrees>
            </Position>
            <AltitudeMeters>948</AltitudeMeters>
            <DistanceMeters>NAN</DistanceMeters>
          </Trackpoint>
          <Trackpoint>
            <Time>2019-10-07T10:58:10.000Z</Time>
            <Position>
              <LatitudeDegrees>40.53764750249683856964111328125</LatitudeDegrees>
              <LongitudeDegrees>-5.67547825165092945098876953125</LongitudeDegrees>
            </Position>
            <AltitudeMeters>947.5999755859375</AltitudeMeters>
            <DistanceMeters>NAN</DistanceMeters>
          </Trackpoint>
          <Trackpoint>
            <Time>2019-10-07T10:58:11.000Z</Time>
            <Position>
              <LatitudeDegrees>40.5375607497990131378173828125</LatitudeDegrees>
              <LongitudeDegrees>-5.6754992902278900146484375</LongitudeDegrees>
            </Position>
            <AltitudeMeters>947.79998779296875</AltitudeMeters>
            <DistanceMeters>NAN</DistanceMeters>
          </Trackpoint>
          <Trackpoint>
            <Time>2019-10-07T10:58:13.000Z</Time>
            <Position>
              <LatitudeDegrees>40.5374014936387538909912109375</LatitudeDegrees>
              <LongitudeDegrees>-5.67553910426795482635498046875</LongitudeDegrees>
            </Position>
            <AltitudeMeters>947.5999755859375</AltitudeMeters>
            <DistanceMeters>NAN</DistanceMeters>
          </Trackpoint>
          <Trackpoint>
            <Time>2019-10-07T10:58:15.000Z</Time>
            <Position>
              <LatitudeDegrees>40.53723930381238460540771484375</LatitudeDegrees>
              <LongitudeDegrees>-5.6755824387073516845703125</LongitudeDegrees>
            </Position>
            <AltitudeMeters>946.5999755859375</AltitudeMeters>
            <DistanceMeters>NAN</DistanceMeters>
          </Trackpoint>
          <Trackpoint>
            <Time>2019-10-07T10:58:16.000Z</Time>
            <Position>
              <LatitudeDegrees>40.5371557362377643585205078125</LatitudeDegrees>
              <LongitudeDegrees>-5.67560582421720027923583984375</LongitudeDegrees>
            </Position>
            <AltitudeMeters>945.5999755859375</AltitudeMeters>
            <DistanceMeters>NAN</DistanceMeters>
          </Trackpoint>
          <Trackpoint>
            <Time>2019-10-07T10:58:19.000Z</Time>
            <Position>
              <LatitudeDegrees>40.53689606487751007080078125</LatitudeDegrees>
              <LongitudeDegrees>-5.675665922462940216064453125</LongitudeDegrees>
            </Position>
            <AltitudeMeters>944.4000244140625</AltitudeMeters>
            <DistanceMeters>NAN</DistanceMeters>
          </Trackpoint>
          <Trackpoint>
            <Time>2019-10-07T10:58:22.000Z</Time>
            <Position>
              <LatitudeDegrees>40.53661988116800785064697265625</LatitudeDegrees>
              <LongitudeDegrees>-5.67573063075542449951171875</LongitudeDegrees>
            </Position>
            <AltitudeMeters>943</AltitudeMeters>
            <DistanceMeters>NAN</DistanceMeters>
          </Trackpoint>
          <Trackpoint>
            <Time>2019-10-07T10:58:23.000Z</Time>
            <Position>
              <LatitudeDegrees>40.5365297757089138031005859375</LatitudeDegrees>
              <LongitudeDegrees>-5.67575502209365367889404296875</LongitudeDegrees>
            </Position>
            <AltitudeMeters>941.79998779296875</AltitudeMeters>
            <DistanceMeters>NAN</DistanceMeters>
          </Trackpoint>
          <Trackpoint>
            <Time>2019-10-07T10:58:25.000Z</Time>
            <Position>
              <LatitudeDegrees>40.53635065443813800811767578125</LatitudeDegrees>
              <LongitudeDegrees>-5.675799362361431121826171875</LongitudeDegrees>
            </Position>
            <AltitudeMeters>941</AltitudeMeters>
            <DistanceMeters>NAN</DistanceMeters>
          </Trackpoint>
          <Trackpoint>
            <Time>2019-10-07T10:58:26.000Z</Time>
            <Position>
              <LatitudeDegrees>40.53625728003680706024169921875</LatitudeDegrees>
              <LongitudeDegrees>-5.67582190968096256256103515625</LongitudeDegrees>
            </Position>
            <AltitudeMeters>941</AltitudeMeters>
            <DistanceMeters>NAN</DistanceMeters>
          </Trackpoint>
          <Trackpoint>
            <Time>2019-10-07T10:58:27.000Z</Time>
            <Position>
              <LatitudeDegrees>40.53616273216903209686279296875</LatitudeDegrees>
              <LongitudeDegrees>-5.67584504373371601104736328125</LongitudeDegrees>
            </Position>
            <AltitudeMeters>940</AltitudeMeters>
            <DistanceMeters>NAN</DistanceMeters>
          </Trackpoint>
          <Trackpoint>
            <Time>2019-10-07T10:58:30.000Z</Time>
            <Position>
              <LatitudeDegrees>40.5358746461570262908935546875</LatitudeDegrees>
              <LongitudeDegrees>-5.6759175471961498260498046875</LongitudeDegrees>
            </Position>
            <AltitudeMeters>938.5999755859375</AltitudeMeters>
            <DistanceMeters>NAN</DistanceMeters>
          </Trackpoint>
          <Trackpoint>
            <Time>2019-10-07T10:58:31.000Z</Time>
            <Position>
              <LatitudeDegrees>40.5357774160802364349365234375</LatitudeDegrees>
              <LongitudeDegrees>-5.67594277672469615936279296875</LongitudeDegrees>
            </Position>
            <AltitudeMeters>938</AltitudeMeters>
            <DistanceMeters>NAN</DistanceMeters>
          </Trackpoint>
          <Trackpoint>
            <Time>2019-10-07T10:58:33.000Z</Time>
            <Position>
              <LatitudeDegrees>40.5355775915086269378662109375</LatitudeDegrees>
              <LongitudeDegrees>-5.6759929843246936798095703125</LongitudeDegrees>
            </Position>
            <AltitudeMeters>937.20001220703125</AltitudeMeters>
            <DistanceMeters>NAN</DistanceMeters>
          </Trackpoint>
          <Trackpoint>
            <Time>2019-10-07T10:58:35.000Z</Time>
            <Position>
              <LatitudeDegrees>40.5353707261383533477783203125</LatitudeDegrees>
              <LongitudeDegrees>-5.676048137247562408447265625</LongitudeDegrees>
            </Position>
            <AltitudeMeters>935.79998779296875</AltitudeMeters>
            <DistanceMeters>NAN</DistanceMeters>
          </Trackpoint>
          <Trackpoint>
            <Time>2019-10-07T10:58:36.000Z</Time>
            <Position>
              <LatitudeDegrees>40.5352698080241680145263671875</LatitudeDegrees>
              <LongitudeDegrees>-5.67607395350933074951171875</LongitudeDegrees>
            </Position>
            <AltitudeMeters>935.5999755859375</AltitudeMeters>
            <DistanceMeters>NAN</DistanceMeters>
          </Trackpoint>
          <Trackpoint>
            <Time>2019-10-07T10:58:38.000Z</Time>
            <Position>
              <LatitudeDegrees>40.53505866788327693939208984375</LatitudeDegrees>
              <LongitudeDegrees>-5.67612349055707454681396484375</LongitudeDegrees>
            </Position>
            <AltitudeMeters>935</AltitudeMeters>
            <DistanceMeters>NAN</DistanceMeters>
          </Trackpoint>
          <Trackpoint>
            <Time>2019-10-07T10:58:39.000Z</Time>
            <Position>
              <LatitudeDegrees>40.5349516309797763824462890625</LatitudeDegrees>
              <LongitudeDegrees>-5.67615048028528690338134765625</LongitudeDegrees>
            </Position>
            <AltitudeMeters>934.5999755859375</AltitudeMeters>
            <DistanceMeters>NAN</DistanceMeters>
          </Trackpoint>
          <Trackpoint>
            <Time>2019-10-07T10:58:41.000Z</Time>
            <Position>
              <LatitudeDegrees>40.53473412059247493743896484375</LatitudeDegrees>
              <LongitudeDegrees>-5.6762045435607433319091796875</LongitudeDegrees>
            </Position>
            <AltitudeMeters>933</AltitudeMeters>
            <DistanceMeters>NAN</DistanceMeters>
          </Trackpoint>
          <Trackpoint>
            <Time>2019-10-07T10:58:42.000Z</Time>
            <Position>
              <LatitudeDegrees>40.5346257425844669342041015625</LatitudeDegrees>
              <LongitudeDegrees>-5.6762320362031459808349609375</LongitudeDegrees>
            </Position>
            <AltitudeMeters>932</AltitudeMeters>
            <DistanceMeters>NAN</DistanceMeters>
          </Trackpoint>
          <Trackpoint>
            <Time>2019-10-07T10:58:43.000Z</Time>
            <Position>
              <LatitudeDegrees>40.534515269100666046142578125</LatitudeDegrees>
              <LongitudeDegrees>-5.6762581877410411834716796875</LongitudeDegrees>
            </Position>
            <AltitudeMeters>931.5999755859375</AltitudeMeters>
            <DistanceMeters>NAN</DistanceMeters>
          </Trackpoint>
          <Trackpoint>
            <Time>2019-10-07T10:58:45.000Z</Time>
            <Position>
              <LatitudeDegrees>40.53429088555276393890380859375</LatitudeDegrees>
              <LongitudeDegrees>-5.6763148494064807891845703125</LongitudeDegrees>
            </Position>
            <AltitudeMeters>930.5999755859375</AltitudeMeters>
            <DistanceMeters>NAN</DistanceMeters>
          </Trackpoint>
          <Trackpoint>
            <Time>2019-10-07T10:58:46.000Z</Time>
            <Position>
              <LatitudeDegrees>40.5341764725744724273681640625</LatitudeDegrees>
              <LongitudeDegrees>-5.6763450242578983306884765625</LongitudeDegrees>
            </Position>
            <AltitudeMeters>930.20001220703125</AltitudeMeters>
            <DistanceMeters>NAN</DistanceMeters>
          </Trackpoint>
          <Trackpoint>
            <Time>2019-10-07T10:58:48.000Z</Time>
            <Position>
              <LatitudeDegrees>40.53394320420920848846435546875</LatitudeDegrees>
              <LongitudeDegrees>-5.67640176974236965179443359375</LongitudeDegrees>
            </Position>
            <AltitudeMeters>928.5999755859375</AltitudeMeters>
            <DistanceMeters>NAN</DistanceMeters>
          </Trackpoint>
          <Trackpoint>
            <Time>2019-10-07T10:58:49.000Z</Time>
            <Position>
              <LatitudeDegrees>40.53382493555545806884765625</LatitudeDegrees>
              <LongitudeDegrees>-5.67642867565155029296875</LongitudeDegrees>
            </Position>
            <AltitudeMeters>928.20001220703125</AltitudeMeters>
            <DistanceMeters>NAN</DistanceMeters>
          </Trackpoint>
          <Trackpoint>
            <Time>2019-10-07T10:58:50.000Z</Time>
            <Position>
              <LatitudeDegrees>40.53370549343526363372802734375</LatitudeDegrees>
              <LongitudeDegrees>-5.67645893432199954986572265625</LongitudeDegrees>
            </Position>
            <AltitudeMeters>927.5999755859375</AltitudeMeters>
            <DistanceMeters>NAN</DistanceMeters>
          </Trackpoint>
          <Trackpoint>
            <Time>2019-10-07T10:58:51.000Z</Time>
            <Position>
              <LatitudeDegrees>40.533584542572498321533203125</LatitudeDegrees>
              <LongitudeDegrees>-5.676492042839527130126953125</LongitudeDegrees>
            </Position>
            <AltitudeMeters>926.79998779296875</AltitudeMeters>
            <DistanceMeters>NAN</DistanceMeters>
          </Trackpoint>
          <Trackpoint>
            <Time>2019-10-07T10:58:52.000Z</Time>
            <Position>
              <LatitudeDegrees>40.53346426226198673248291015625</LatitudeDegrees>
              <LongitudeDegrees>-5.67652397789061069488525390625</LongitudeDegrees>
            </Position>
            <AltitudeMeters>925</AltitudeMeters>
            <DistanceMeters>NAN</DistanceMeters>
          </Trackpoint>
          <Trackpoint>
            <Time>2019-10-07T10:58:57.000Z</Time>
            <Position>
              <LatitudeDegrees>40.53289286792278289794921875</LatitudeDegrees>
              <LongitudeDegrees>-5.6766541488468647003173828125</LongitudeDegrees>
            </Position>
            <AltitudeMeters>924</AltitudeMeters>
            <DistanceMeters>NAN</DistanceMeters>
          </Trackpoint>
          <Trackpoint>
            <Time>2019-10-07T10:58:58.000Z</Time>
            <Position>
              <LatitudeDegrees>40.532787926495075225830078125</LatitudeDegrees>
              <LongitudeDegrees>-5.67668071947991847991943359375</LongitudeDegrees>
            </Position>
            <AltitudeMeters>924</AltitudeMeters>
            <DistanceMeters>NAN</DistanceMeters>
          </Trackpoint>
          <Trackpoint>
            <Time>2019-10-07T10:59:02.000Z</Time>
            <Position>
              <LatitudeDegrees>40.53238903172314167022705078125</LatitudeDegrees>
              <LongitudeDegrees>-5.67677996121346950531005859375</LongitudeDegrees>
            </Position>
            <AltitudeMeters>925</AltitudeMeters>
            <DistanceMeters>NAN</DistanceMeters>
          </Trackpoint>
          <Trackpoint>
            <Time>2019-10-07T10:59:03.000Z</Time>
            <Position>
              <LatitudeDegrees>40.532295741140842437744140625</LatitudeDegrees>
              <LongitudeDegrees>-5.67680376581847667694091796875</LongitudeDegrees>
            </Position>
            <AltitudeMeters>925.20001220703125</AltitudeMeters>
            <DistanceMeters>NAN</DistanceMeters>
          </Trackpoint>
          <Trackpoint>
            <Time>2019-10-07T10:59:06.000Z</Time>
            <Position>
              <LatitudeDegrees>40.53203523159027099609375</LatitudeDegrees>
              <LongitudeDegrees>-5.6768673844635486602783203125</LongitudeDegrees>
            </Position>
            <AltitudeMeters>926.20001220703125</AltitudeMeters>
            <DistanceMeters>NAN</DistanceMeters>
          </Trackpoint>
          <Trackpoint>
            <Time>2019-10-07T10:59:07.000Z</Time>
            <Position>
              <LatitudeDegrees>40.53195334039628505706787109375</LatitudeDegrees>
              <LongitudeDegrees>-5.6768811307847499847412109375</LongitudeDegrees>
            </Position>
            <AltitudeMeters>926.20001220703125</AltitudeMeters>
            <DistanceMeters>NAN</DistanceMeters>
          </Trackpoint>
          <Trackpoint>
            <Time>2019-10-07T10:59:08.000Z</Time>
            <Position>
              <LatitudeDegrees>40.53187153302133083343505859375</LatitudeDegrees>
              <LongitudeDegrees>-5.67688523791730403900146484375</LongitudeDegrees>
            </Position>
            <AltitudeMeters>926.5999755859375</AltitudeMeters>
            <DistanceMeters>NAN</DistanceMeters>
          </Trackpoint>
          <Trackpoint>
            <Time>2019-10-07T10:59:10.000Z</Time>
            <Position>
              <LatitudeDegrees>40.53171546198427677154541015625</LatitudeDegrees>
              <LongitudeDegrees>-5.676876939833164215087890625</LongitudeDegrees>
            </Position>
            <AltitudeMeters>927</AltitudeMeters>
            <DistanceMeters>NAN</DistanceMeters>
          </Trackpoint>
          <Trackpoint>
            <Time>2019-10-07T10:59:13.000Z</Time>
            <Position>
              <LatitudeDegrees>40.5314939282834529876708984375</LatitudeDegrees>
              <LongitudeDegrees>-5.67682522349059581756591796875</LongitudeDegrees>
            </Position>
            <AltitudeMeters>927.20001220703125</AltitudeMeters>
            <DistanceMeters>NAN</DistanceMeters>
          </Trackpoint>
          <Trackpoint>
            <Time>2019-10-07T10:59:14.000Z</Time>
            <Position>
              <LatitudeDegrees>40.5314218439161777496337890625</LatitudeDegrees>
              <LongitudeDegrees>-5.676800496876239776611328125</LongitudeDegrees>
            </Position>
            <AltitudeMeters>927.4000244140625</AltitudeMeters>
            <DistanceMeters>NAN</DistanceMeters>
          </Trackpoint>
          <Trackpoint>
            <Time>2019-10-07T10:59:16.000Z</Time>
            <Position>
              <LatitudeDegrees>40.5312813632190227508544921875</LatitudeDegrees>
              <LongitudeDegrees>-5.676748193800449371337890625</LongitudeDegrees>
            </Position>
            <AltitudeMeters>928.4000244140625</AltitudeMeters>
            <DistanceMeters>NAN</DistanceMeters>
          </Trackpoint>
          <Trackpoint>
            <Time>2019-10-07T10:59:19.000Z</Time>
            <Position>
              <LatitudeDegrees>40.53107173182070255279541015625</LatitudeDegrees>
              <LongitudeDegrees>-5.67667367868125438690185546875</LongitudeDegrees>
            </Position>
            <AltitudeMeters>928.5999755859375</AltitudeMeters>
            <DistanceMeters>NAN</DistanceMeters>
          </Trackpoint>
          <Trackpoint>
            <Time>2019-10-07T10:59:21.000Z</Time>
            <Position>
              <LatitudeDegrees>40.5309336818754673004150390625</LatitudeDegrees>
              <LongitudeDegrees>-5.67662623710930347442626953125</LongitudeDegrees>
            </Position>
            <AltitudeMeters>928.5999755859375</AltitudeMeters>
            <DistanceMeters>NAN</DistanceMeters>
          </Trackpoint>
          <Trackpoint>
            <Time>2019-10-07T10:59:23.000Z</Time>
            <Position>
              <LatitudeDegrees>40.530797056853771209716796875</LatitudeDegrees>
              <LongitudeDegrees>-5.6765753589570522308349609375</LongitudeDegrees>
            </Position>
            <AltitudeMeters>928.79998779296875</AltitudeMeters>
            <DistanceMeters>NAN</DistanceMeters>
          </Trackpoint>
          <Trackpoint>
            <Time>2019-10-07T10:59:26.000Z</Time>
            <Position>
              <LatitudeDegrees>40.5305967293679714202880859375</LatitudeDegrees>
              <LongitudeDegrees>-5.67650084383785724639892578125</LongitudeDegrees>
            </Position>
            <AltitudeMeters>929.4000244140625</AltitudeMeters>
            <DistanceMeters>NAN</DistanceMeters>
          </Trackpoint>
          <Trackpoint>
            <Time>2019-10-07T10:59:27.000Z</Time>
            <Position>
              <LatitudeDegrees>40.53052984178066253662109375</LatitudeDegrees>
              <LongitudeDegrees>-5.67647586576640605926513671875</LongitudeDegrees>
            </Position>
            <AltitudeMeters>929.4000244140625</AltitudeMeters>
            <DistanceMeters>NAN</DistanceMeters>
          </Trackpoint>
          <Trackpoint>
            <Time>2019-10-07T10:59:31.000Z</Time>
            <Position>
              <LatitudeDegrees>40.53026271052658557891845703125</LatitudeDegrees>
              <LongitudeDegrees>-5.67638483829796314239501953125</LongitudeDegrees>
            </Position>
            <AltitudeMeters>928.79998779296875</AltitudeMeters>
            <DistanceMeters>NAN</DistanceMeters>
          </Trackpoint>
          <Trackpoint>
            <Time>2019-10-07T10:59:32.000Z</Time>
            <Position>
              <LatitudeDegrees>40.5301964096724987030029296875</LatitudeDegrees>
              <LongitudeDegrees>-5.6763624586164951324462890625</LongitudeDegrees>
            </Position>
            <AltitudeMeters>928.5999755859375</AltitudeMeters>
            <DistanceMeters>NAN</DistanceMeters>
          </Trackpoint>
          <Trackpoint>
            <Time>2019-10-07T10:59:37.000Z</Time>
            <Position>
              <LatitudeDegrees>40.5298688448965549468994140625</LatitudeDegrees>
              <LongitudeDegrees>-5.67624695599079132080078125</LongitudeDegrees>
            </Position>
            <AltitudeMeters>929</AltitudeMeters>
            <DistanceMeters>NAN</DistanceMeters>
          </Trackpoint>
          <Trackpoint>
            <Time>2019-10-07T10:59:40.000Z</Time>
            <Position>
              <LatitudeDegrees>40.52966927178204059600830078125</LatitudeDegrees>
              <LongitudeDegrees>-5.67617445252835750579833984375</LongitudeDegrees>
            </Position>
            <AltitudeMeters>928.4000244140625</AltitudeMeters>
            <DistanceMeters>NAN</DistanceMeters>
          </Trackpoint>
          <Trackpoint>
            <Time>2019-10-07T10:59:41.000Z</Time>
            <Position>
              <LatitudeDegrees>40.52960054017603397369384765625</LatitudeDegrees>
              <LongitudeDegrees>-5.6761515699326992034912109375</LongitudeDegrees>
            </Position>
            <AltitudeMeters>928.20001220703125</AltitudeMeters>
            <DistanceMeters>NAN</DistanceMeters>
          </Trackpoint>
          <Trackpoint>
            <Time>2019-10-07T10:59:49.000Z</Time>
            <Position>
              <LatitudeDegrees>40.52905504591763019561767578125</LatitudeDegrees>
              <LongitudeDegrees>-5.67594747059047222137451171875</LongitudeDegrees>
            </Position>
            <AltitudeMeters>927.79998779296875</AltitudeMeters>
            <DistanceMeters>NAN</DistanceMeters>
          </Trackpoint>
          <Trackpoint>
            <Time>2019-10-07T10:59:51.000Z</Time>
            <Position>
              <LatitudeDegrees>40.52892294712364673614501953125</LatitudeDegrees>
              <LongitudeDegrees>-5.67590036429464817047119140625</LongitudeDegrees>
            </Position>
            <AltitudeMeters>927.4000244140625</AltitudeMeters>
            <DistanceMeters>NAN</DistanceMeters>
          </Trackpoint>
          <Trackpoint>
            <Time>2019-10-07T10:59:52.000Z</Time>
            <Position>
              <LatitudeDegrees>40.52885639481246471405029296875</LatitudeDegrees>
              <LongitudeDegrees>-5.675876140594482421875</LongitudeDegrees>
            </Position>
            <AltitudeMeters>927.20001220703125</AltitudeMeters>
            <DistanceMeters>NAN</DistanceMeters>
          </Trackpoint>
          <Trackpoint>
            <Time>2019-10-07T11:00:00.000Z</Time>
            <Position>
              <LatitudeDegrees>40.52832104265689849853515625</LatitudeDegrees>
              <LongitudeDegrees>-5.6756838597357273101806640625</LongitudeDegrees>
            </Position>
            <AltitudeMeters>927.4000244140625</AltitudeMeters>
            <DistanceMeters>NAN</DistanceMeters>
          </Trackpoint>
          <Trackpoint>
            <Time>2019-10-07T11:00:02.000Z</Time>
            <Position>
              <LatitudeDegrees>40.52818827331066131591796875</LatitudeDegrees>
              <LongitudeDegrees>-5.67563700489699840545654296875</LongitudeDegrees>
            </Position>
            <AltitudeMeters>927</AltitudeMeters>
            <DistanceMeters>NAN</DistanceMeters>
          </Trackpoint>
          <Trackpoint>
            <Time>2019-10-07T11:00:10.000Z</Time>
            <Position>
              <LatitudeDegrees>40.52765853703022003173828125</LatitudeDegrees>
              <LongitudeDegrees>-5.6754602305591106414794921875</LongitudeDegrees>
            </Position>
            <AltitudeMeters>927</AltitudeMeters>
            <DistanceMeters>NAN</DistanceMeters>
          </Trackpoint>
          <Trackpoint>
            <Time>2019-10-07T11:00:12.000Z</Time>
            <Position>
              <LatitudeDegrees>40.5275239236652851104736328125</LatitudeDegrees>
              <LongitudeDegrees>-5.67541521973907947540283203125</LongitudeDegrees>
            </Position>
            <AltitudeMeters>927</AltitudeMeters>
            <DistanceMeters>NAN</DistanceMeters>
          </Trackpoint>
          <Trackpoint>
            <Time>2019-10-07T11:00:17.000Z</Time>
            <Position>
              <LatitudeDegrees>40.52718454040586948394775390625</LatitudeDegrees>
              <LongitudeDegrees>-5.67529116757214069366455078125</LongitudeDegrees>
            </Position>
            <AltitudeMeters>926</AltitudeMeters>
            <DistanceMeters>NAN</DistanceMeters>
          </Trackpoint>
          <Trackpoint>
            <Time>2019-10-07T11:00:23.000Z</Time>
            <Position>
              <LatitudeDegrees>40.5267821252346038818359375</LatitudeDegrees>
              <LongitudeDegrees>-5.6751460768282413482666015625</LongitudeDegrees>
            </Position>
            <AltitudeMeters>925</AltitudeMeters>
            <DistanceMeters>NAN</DistanceMeters>
          </Trackpoint>
          <Trackpoint>
            <Time>2019-10-07T11:00:24.000Z</Time>
            <Position>
              <LatitudeDegrees>40.52671515382826328277587890625</LatitudeDegrees>
              <LongitudeDegrees>-5.67512185312807559967041015625</LongitudeDegrees>
            </Position>
            <AltitudeMeters>924.79998779296875</AltitudeMeters>
            <DistanceMeters>NAN</DistanceMeters>
          </Trackpoint>
          <Trackpoint>
            <Time>2019-10-07T11:00:32.000Z</Time>
            <Position>
              <LatitudeDegrees>40.52618960849940776824951171875</LatitudeDegrees>
              <LongitudeDegrees>-5.67493208684027194976806640625</LongitudeDegrees>
            </Position>
            <AltitudeMeters>925.4000244140625</AltitudeMeters>
            <DistanceMeters>NAN</DistanceMeters>
          </Trackpoint>
          <Trackpoint>
            <Time>2019-10-07T11:00:33.000Z</Time>
            <Position>
              <LatitudeDegrees>40.52612557075917720794677734375</LatitudeDegrees>
              <LongitudeDegrees>-5.67490518093109130859375</LongitudeDegrees>
            </Position>
            <AltitudeMeters>925.20001220703125</AltitudeMeters>
            <DistanceMeters>NAN</DistanceMeters>
          </Trackpoint>
          <Trackpoint>
            <Time>2019-10-07T11:00:40.000Z</Time>
            <Position>
              <LatitudeDegrees>40.52571184001863002777099609375</LatitudeDegrees>
              <LongitudeDegrees>-5.67465581931173801422119140625</LongitudeDegrees>
            </Position>
            <AltitudeMeters>925.5999755859375</AltitudeMeters>
            <DistanceMeters>NAN</DistanceMeters>
          </Trackpoint>
          <Trackpoint>
            <Time>2019-10-07T11:00:42.000Z</Time>
            <Position>
              <LatitudeDegrees>40.52560807205736637115478515625</LatitudeDegrees>
              <LongitudeDegrees>-5.6745606847107410430908203125</LongitudeDegrees>
            </Position>
            <AltitudeMeters>925.79998779296875</AltitudeMeters>
            <DistanceMeters>NAN</DistanceMeters>
          </Trackpoint>
          <Trackpoint>
            <Time>2019-10-07T11:00:48.000Z</Time>
            <Position>
              <LatitudeDegrees>40.52531755529344081878662109375</LatitudeDegrees>
              <LongitudeDegrees>-5.6742518953979015350341796875</LongitudeDegrees>
            </Position>
            <AltitudeMeters>925.4000244140625</AltitudeMeters>
            <DistanceMeters>NAN</DistanceMeters>
          </Trackpoint>
          <Trackpoint>
            <Time>2019-10-07T11:00:50.000Z</Time>
            <Position>
              <LatitudeDegrees>40.525234155356884002685546875</LatitudeDegrees>
              <LongitudeDegrees>-5.67415349185466766357421875</LongitudeDegrees>
            </Position>
            <AltitudeMeters>926</AltitudeMeters>
            <DistanceMeters>NAN</DistanceMeters>
          </Trackpoint>
          <Trackpoint>
            <Time>2019-10-07T11:00:53.000Z</Time>
            <Position>
              <LatitudeDegrees>40.52512586116790771484375</LatitudeDegrees>
              <LongitudeDegrees>-5.674030445516109466552734375</LongitudeDegrees>
            </Position>
            <AltitudeMeters>926.79998779296875</AltitudeMeters>
            <DistanceMeters>NAN</DistanceMeters>
          </Trackpoint>
          <Trackpoint>
            <Time>2019-10-07T11:00:55.000Z</Time>
            <Position>
              <LatitudeDegrees>40.52506215870380401611328125</LatitudeDegrees>
              <LongitudeDegrees>-5.6739565171301364898681640625</LongitudeDegrees>
            </Position>
            <AltitudeMeters>926.79998779296875</AltitudeMeters>
            <DistanceMeters>NAN</DistanceMeters>
          </Trackpoint>
          <Trackpoint>
            <Time>2019-10-07T11:00:57.000Z</Time>
            <Position>
              <LatitudeDegrees>40.52500088699162006378173828125</LatitudeDegrees>
              <LongitudeDegrees>-5.673890300095081329345703125</LongitudeDegrees>
            </Position>
            <AltitudeMeters>928.20001220703125</AltitudeMeters>
            <DistanceMeters>NAN</DistanceMeters>
          </Trackpoint>
          <Trackpoint>
            <Time>2019-10-07T11:01:00.000Z</Time>
            <Position>
              <LatitudeDegrees>40.52491555921733379364013671875</LatitudeDegrees>
              <LongitudeDegrees>-5.67379717715084552764892578125</LongitudeDegrees>
            </Position>
            <AltitudeMeters>928.5999755859375</AltitudeMeters>
            <DistanceMeters>NAN</DistanceMeters>
          </Trackpoint>
          <Trackpoint>
            <Time>2019-10-07T11:01:02.000Z</Time>
            <Position>
              <LatitudeDegrees>40.52486090920865535736083984375</LatitudeDegrees>
              <LongitudeDegrees>-5.673738084733486175537109375</LongitudeDegrees>
            </Position>
            <AltitudeMeters>929.20001220703125</AltitudeMeters>
            <DistanceMeters>NAN</DistanceMeters>
          </Trackpoint>
          <Trackpoint>
            <Time>2019-10-07T11:01:07.000Z</Time>
            <Position>
              <LatitudeDegrees>40.5247314088046550750732421875</LatitudeDegrees>
              <LongitudeDegrees>-5.67360254935920238494873046875</LongitudeDegrees>
            </Position>
            <AltitudeMeters>930</AltitudeMeters>
            <DistanceMeters>NAN</DistanceMeters>
          </Trackpoint>
          <Trackpoint>
            <Time>2019-10-07T11:01:08.000Z</Time>
            <Position>
              <LatitudeDegrees>40.524705089628696441650390625</LatitudeDegrees>
              <LongitudeDegrees>-5.6735788285732269287109375</LongitudeDegrees>
            </Position>
            <AltitudeMeters>930.4000244140625</AltitudeMeters>
            <DistanceMeters>NAN</DistanceMeters>
          </Trackpoint>
          <Trackpoint>
            <Time>2019-10-07T11:01:12.000Z</Time>
            <Position>
              <LatitudeDegrees>40.524601824581623077392578125</LatitudeDegrees>
              <LongitudeDegrees>-5.67348168231546878814697265625</LongitudeDegrees>
            </Position>
            <AltitudeMeters>930.79998779296875</AltitudeMeters>
            <DistanceMeters>NAN</DistanceMeters>
          </Trackpoint>
          <Trackpoint>
            <Time>2019-10-07T11:01:16.000Z</Time>
            <Position>
              <LatitudeDegrees>40.52449981682002544403076171875</LatitudeDegrees>
              <LongitudeDegrees>-5.67337875254452228546142578125</LongitudeDegrees>
            </Position>
            <AltitudeMeters>931</AltitudeMeters>
            <DistanceMeters>NAN</DistanceMeters>
          </Trackpoint>
          <Trackpoint>
            <Time>2019-10-07T11:01:17.000Z</Time>
            <Position>
              <LatitudeDegrees>40.52447450347244739532470703125</LatitudeDegrees>
              <LongitudeDegrees>-5.6733548641204833984375</LongitudeDegrees>
            </Position>
            <AltitudeMeters>931</AltitudeMeters>
            <DistanceMeters>NAN</DistanceMeters>
          </Trackpoint>
          <Trackpoint>
            <Time>2019-10-07T11:01:18.000Z</Time>
            <Position>
              <LatitudeDegrees>40.52444927394390106201171875</LatitudeDegrees>
              <LongitudeDegrees>-5.67333164624869823455810546875</LongitudeDegrees>
            </Position>
            <AltitudeMeters>931.4000244140625</AltitudeMeters>
            <DistanceMeters>NAN</DistanceMeters>
          </Trackpoint>
          <Trackpoint>
            <Time>2019-10-07T11:01:22.000Z</Time>
            <Position>
              <LatitudeDegrees>40.52434726618230342864990234375</LatitudeDegrees>
              <LongitudeDegrees>-5.67324011586606502532958984375</LongitudeDegrees>
            </Position>
            <AltitudeMeters>932.4000244140625</AltitudeMeters>
            <DistanceMeters>NAN</DistanceMeters>
          </Trackpoint>
          <Trackpoint>
            <Time>2019-10-07T11:01:26.000Z</Time>
            <Position>
              <LatitudeDegrees>40.52424835972487926483154296875</LatitudeDegrees>
              <LongitudeDegrees>-5.6731485016644001007080078125</LongitudeDegrees>
            </Position>
            <AltitudeMeters>933.20001220703125</AltitudeMeters>
            <DistanceMeters>NAN</DistanceMeters>
          </Trackpoint>
          <Trackpoint>
            <Time>2019-10-07T11:01:27.000Z</Time>
            <Position>
              <LatitudeDegrees>40.52422472275793552398681640625</LatitudeDegrees>
              <LongitudeDegrees>-5.67312419414520263671875</LongitudeDegrees>
            </Position>
            <AltitudeMeters>933.5999755859375</AltitudeMeters>
            <DistanceMeters>NAN</DistanceMeters>
          </Trackpoint>
          <Trackpoint>
            <Time>2019-10-07T11:01:28.000Z</Time>
            <Position>
              <LatitudeDegrees>40.5242010019719600677490234375</LatitudeDegrees>
              <LongitudeDegrees>-5.6730995513498783111572265625</LongitudeDegrees>
            </Position>
            <AltitudeMeters>933.79998779296875</AltitudeMeters>
            <DistanceMeters>NAN</DistanceMeters>
          </Trackpoint>
          <Trackpoint>
            <Time>2019-10-07T11:01:34.000Z</Time>
            <Position>
              <LatitudeDegrees>40.52406647242605686187744140625</LatitudeDegrees>
              <LongitudeDegrees>-5.67294591106474399566650390625</LongitudeDegrees>
            </Position>
            <AltitudeMeters>934.5999755859375</AltitudeMeters>
            <DistanceMeters>NAN</DistanceMeters>
          </Trackpoint>
          <Trackpoint>
            <Time>2019-10-07T11:01:35.000Z</Time>
            <Position>
              <LatitudeDegrees>40.524036884307861328125</LatitudeDegrees>
              <LongitudeDegrees>-5.67293149419128894805908203125</LongitudeDegrees>
            </Position>
            <AltitudeMeters>934.79998779296875</AltitudeMeters>
            <DistanceMeters>NAN</DistanceMeters>
          </Trackpoint>
          <Trackpoint>
            <Time>2019-10-07T11:01:42.000Z</Time>
            <Position>
              <LatitudeDegrees>40.5238161049783229827880859375</LatitudeDegrees>
              <LongitudeDegrees>-5.67282579839229583740234375</LongitudeDegrees>
            </Position>
            <AltitudeMeters>935</AltitudeMeters>
            <DistanceMeters>NAN</DistanceMeters>
          </Trackpoint>
          <Trackpoint>
            <Time>2019-10-07T11:01:49.000Z</Time>
            <Position>
              <LatitudeDegrees>40.5235810764133930206298828125</LatitudeDegrees>
              <LongitudeDegrees>-5.67274088971316814422607421875</LongitudeDegrees>
            </Position>
            <AltitudeMeters>935.4000244140625</AltitudeMeters>
            <DistanceMeters>NAN</DistanceMeters>
          </Trackpoint>
          <Trackpoint>
            <Time>2019-10-07T11:01:54.000Z</Time>
            <Position>
              <LatitudeDegrees>40.52341586910188198089599609375</LatitudeDegrees>
              <LongitudeDegrees>-5.6726667098701000213623046875</LongitudeDegrees>
            </Position>
            <AltitudeMeters>935.20001220703125</AltitudeMeters>
            <DistanceMeters>NAN</DistanceMeters>
          </Trackpoint>
          <Trackpoint>
            <Time>2019-10-07T11:01:56.000Z</Time>
            <Position>
              <LatitudeDegrees>40.52334546111524105072021484375</LatitudeDegrees>
              <LongitudeDegrees>-5.67264315672218799591064453125</LongitudeDegrees>
            </Position>
            <AltitudeMeters>934.79998779296875</AltitudeMeters>
            <DistanceMeters>NAN</DistanceMeters>
          </Trackpoint>
          <Trackpoint>
            <Time>2019-10-07T11:02:01.000Z</Time>
            <Position>
              <LatitudeDegrees>40.52313859574496746063232421875</LatitudeDegrees>
              <LongitudeDegrees>-5.67259336821734905242919921875</LongitudeDegrees>
            </Position>
            <AltitudeMeters>934.4000244140625</AltitudeMeters>
            <DistanceMeters>NAN</DistanceMeters>
          </Trackpoint>
          <Trackpoint>
            <Time>2019-10-07T11:02:02.000Z</Time>
            <Position>
              <LatitudeDegrees>40.523091740906238555908203125</LatitudeDegrees>
              <LongitudeDegrees>-5.67258113063871860504150390625</LongitudeDegrees>
            </Position>
            <AltitudeMeters>934</AltitudeMeters>
            <DistanceMeters>NAN</DistanceMeters>
          </Trackpoint>
          <Trackpoint>
            <Time>2019-10-07T11:02:05.000Z</Time>
            <Position>
              <LatitudeDegrees>40.52294212393462657928466796875</LatitudeDegrees>
              <LongitudeDegrees>-5.6725490279495716094970703125</LongitudeDegrees>
            </Position>
            <AltitudeMeters>933.5999755859375</AltitudeMeters>
            <DistanceMeters>NAN</DistanceMeters>
          </Trackpoint>
          <Trackpoint>
            <Time>2019-10-07T11:02:06.000Z</Time>
            <Position>
              <LatitudeDegrees>40.5228904075920581817626953125</LatitudeDegrees>
              <LongitudeDegrees>-5.6725386343896389007568359375</LongitudeDegrees>
            </Position>
            <AltitudeMeters>933.4000244140625</AltitudeMeters>
            <DistanceMeters>NAN</DistanceMeters>
          </Trackpoint>
          <Trackpoint>
            <Time>2019-10-07T11:02:09.000Z</Time>
            <Position>
              <LatitudeDegrees>40.52272603847086429595947265625</LatitudeDegrees>
              <LongitudeDegrees>-5.67251876927912235260009765625</LongitudeDegrees>
            </Position>
            <AltitudeMeters>933.20001220703125</AltitudeMeters>
            <DistanceMeters>NAN</DistanceMeters>
          </Trackpoint>
          <Trackpoint>
            <Time>2019-10-07T11:02:12.000Z</Time>
            <Position>
              <LatitudeDegrees>40.52255236543715000152587890625</LatitudeDegrees>
              <LongitudeDegrees>-5.67251089029014110565185546875</LongitudeDegrees>
            </Position>
            <AltitudeMeters>932</AltitudeMeters>
            <DistanceMeters>NAN</DistanceMeters>
          </Trackpoint>
          <Trackpoint>
            <Time>2019-10-07T11:02:14.000Z</Time>
            <Position>
              <LatitudeDegrees>40.522429905831813812255859375</LatitudeDegrees>
              <LongitudeDegrees>-5.6725051067769527435302734375</LongitudeDegrees>
            </Position>
            <AltitudeMeters>931.5999755859375</AltitudeMeters>
            <DistanceMeters>NAN</DistanceMeters>
          </Trackpoint>
          <Trackpoint>
            <Time>2019-10-07T11:02:16.000Z</Time>
            <Position>
              <LatitudeDegrees>40.5223033390939235687255859375</LatitudeDegrees>
              <LongitudeDegrees>-5.6725014187395572662353515625</LongitudeDegrees>
            </Position>
            <AltitudeMeters>931.5999755859375</AltitudeMeters>
            <DistanceMeters>NAN</DistanceMeters>
          </Trackpoint>
          <Trackpoint>
            <Time>2019-10-07T11:02:17.000Z</Time>
            <Position>
              <LatitudeDegrees>40.52223955281078815460205078125</LatitudeDegrees>
              <LongitudeDegrees>-5.67249814979732036590576171875</LongitudeDegrees>
            </Position>
            <AltitudeMeters>930.79998779296875</AltitudeMeters>
            <DistanceMeters>NAN</DistanceMeters>
          </Trackpoint>
          <Trackpoint>
            <Time>2019-10-07T11:02:22.000Z</Time>
            <Position>
              <LatitudeDegrees>40.52192657254636287689208984375</LatitudeDegrees>
              <LongitudeDegrees>-5.672532431781291961669921875</LongitudeDegrees>
            </Position>
            <AltitudeMeters>930.20001220703125</AltitudeMeters>
            <DistanceMeters>NAN</DistanceMeters>
          </Trackpoint>
          <Trackpoint>
            <Time>2019-10-07T11:02:23.000Z</Time>
            <Position>
              <LatitudeDegrees>40.52186370827257633209228515625</LatitudeDegrees>
              <LongitudeDegrees>-5.6725429929792881011962890625</LongitudeDegrees>
            </Position>
            <AltitudeMeters>930.20001220703125</AltitudeMeters>
            <DistanceMeters>NAN</DistanceMeters>
          </Trackpoint>
          <Trackpoint>
            <Time>2019-10-07T11:02:24.000Z</Time>
            <Position>
              <LatitudeDegrees>40.52180168218910694122314453125</LatitudeDegrees>
              <LongitudeDegrees>-5.6725553981959819793701171875</LongitudeDegrees>
            </Position>
            <AltitudeMeters>930.5999755859375</AltitudeMeters>
            <DistanceMeters>NAN</DistanceMeters>
          </Trackpoint>
          <Trackpoint>
            <Time>2019-10-07T11:02:26.000Z</Time>
            <Position>
              <LatitudeDegrees>40.5216770432889461517333984375</LatitudeDegrees>
              <LongitudeDegrees>-5.67257660441100597381591796875</LongitudeDegrees>
            </Position>
            <AltitudeMeters>930.4000244140625</AltitudeMeters>
            <DistanceMeters>NAN</DistanceMeters>
          </Trackpoint>
          <Trackpoint>
            <Time>2019-10-07T11:02:28.000Z</Time>
            <Position>
              <LatitudeDegrees>40.5215543322265148162841796875</LatitudeDegrees>
              <LongitudeDegrees>-5.67260342650115489959716796875</LongitudeDegrees>
            </Position>
            <AltitudeMeters>930.4000244140625</AltitudeMeters>
            <DistanceMeters>NAN</DistanceMeters>
          </Trackpoint>
          <Trackpoint>
            <Time>2019-10-07T11:02:30.000Z</Time>
            <Position>
              <LatitudeDegrees>40.521434806287288665771484375</LatitudeDegrees>
              <LongitudeDegrees>-5.67262890748679637908935546875</LongitudeDegrees>
            </Position>
            <AltitudeMeters>930.20001220703125</AltitudeMeters>
            <DistanceMeters>NAN</DistanceMeters>
          </Trackpoint>
          <Trackpoint>
            <Time>2019-10-07T11:02:36.000Z</Time>
            <Position>
              <LatitudeDegrees>40.52109877578914165496826171875</LatitudeDegrees>
              <LongitudeDegrees>-5.6726921908557415008544921875</LongitudeDegrees>
            </Position>
            <AltitudeMeters>929.79998779296875</AltitudeMeters>
            <DistanceMeters>NAN</DistanceMeters>
          </Trackpoint>
          <Trackpoint>
            <Time>2019-10-07T11:02:37.000Z</Time>
            <Position>
              <LatitudeDegrees>40.5210473947227001190185546875</LatitudeDegrees>
              <LongitudeDegrees>-5.6727012433111667633056640625</LongitudeDegrees>
            </Position>
            <AltitudeMeters>929.79998779296875</AltitudeMeters>
            <DistanceMeters>NAN</DistanceMeters>
          </Trackpoint>
          <Trackpoint>
            <Time>2019-10-07T11:02:43.000Z</Time>
            <Position>
              <LatitudeDegrees>40.520745813846588134765625</LatitudeDegrees>
              <LongitudeDegrees>-5.672751031816005706787109375</LongitudeDegrees>
            </Position>
            <AltitudeMeters>930.5999755859375</AltitudeMeters>
            <DistanceMeters>NAN</DistanceMeters>
          </Trackpoint>
          <Trackpoint>
            <Time>2019-10-07T11:02:44.000Z</Time>
            <Position>
              <LatitudeDegrees>40.52069610916078090667724609375</LatitudeDegrees>
              <LongitudeDegrees>-5.672761090099811553955078125</LongitudeDegrees>
            </Position>
            <AltitudeMeters>930.79998779296875</AltitudeMeters>
            <DistanceMeters>NAN</DistanceMeters>
          </Trackpoint>
          <Trackpoint>
            <Time>2019-10-07T11:02:46.000Z</Time>
            <Position>
              <LatitudeDegrees>40.5205974541604518890380859375</LatitudeDegrees>
              <LongitudeDegrees>-5.672781206667423248291015625</LongitudeDegrees>
            </Position>
            <AltitudeMeters>930.5999755859375</AltitudeMeters>
            <DistanceMeters>NAN</DistanceMeters>
          </Trackpoint>
          <Trackpoint>
            <Time>2019-10-07T11:02:48.000Z</Time>
            <Position>
              <LatitudeDegrees>40.5204988829791545867919921875</LatitudeDegrees>
              <LongitudeDegrees>-5.67280207760632038116455078125</LongitudeDegrees>
            </Position>
            <AltitudeMeters>930.79998779296875</AltitudeMeters>
            <DistanceMeters>NAN</DistanceMeters>
          </Trackpoint>
          <Trackpoint>
            <Time>2019-10-07T11:02:51.000Z</Time>
            <Position>
              <LatitudeDegrees>40.52035245113074779510498046875</LatitudeDegrees>
              <LongitudeDegrees>-5.6728303246200084686279296875</LongitudeDegrees>
            </Position>
            <AltitudeMeters>931</AltitudeMeters>
            <DistanceMeters>NAN</DistanceMeters>
          </Trackpoint>
          <Trackpoint>
            <Time>2019-10-07T11:02:55.000Z</Time>
            <Position>
              <LatitudeDegrees>40.5201622657477855682373046875</LatitudeDegrees>
              <LongitudeDegrees>-5.672863684594631195068359375</LongitudeDegrees>
            </Position>
            <AltitudeMeters>931.4000244140625</AltitudeMeters>
            <DistanceMeters>NAN</DistanceMeters>
          </Trackpoint>
          <Trackpoint>
            <Time>2019-10-07T11:02:57.000Z</Time>
            <Position>
              <LatitudeDegrees>40.52006813697516918182373046875</LatitudeDegrees>
              <LongitudeDegrees>-5.67288371734321117401123046875</LongitudeDegrees>
            </Position>
            <AltitudeMeters>931.5999755859375</AltitudeMeters>
            <DistanceMeters>NAN</DistanceMeters>
          </Trackpoint>
          <Trackpoint>
            <Time>2019-10-07T11:02:58.000Z</Time>
            <Position>
              <LatitudeDegrees>40.52002136595547199249267578125</LatitudeDegrees>
              <LongitudeDegrees>-5.67289545200765132904052734375</LongitudeDegrees>
            </Position>
            <AltitudeMeters>931.79998779296875</AltitudeMeters>
            <DistanceMeters>NAN</DistanceMeters>
          </Trackpoint>
          <Trackpoint>
            <Time>2019-10-07T11:03:01.000Z</Time>
            <Position>
              <LatitudeDegrees>40.51988390274345874786376953125</LatitudeDegrees>
              <LongitudeDegrees>-5.672925375401973724365234375</LongitudeDegrees>
            </Position>
            <AltitudeMeters>931.79998779296875</AltitudeMeters>
            <DistanceMeters>NAN</DistanceMeters>
          </Trackpoint>
          <Trackpoint>
            <Time>2019-10-07T11:03:03.000Z</Time>
            <Position>
              <LatitudeDegrees>40.51979430019855499267578125</LatitudeDegrees>
              <LongitudeDegrees>-5.6729456596076488494873046875</LongitudeDegrees>
            </Position>
            <AltitudeMeters>932.20001220703125</AltitudeMeters>
            <DistanceMeters>NAN</DistanceMeters>
          </Trackpoint>
          <Trackpoint>
            <Time>2019-10-07T11:03:07.000Z</Time>
            <Position>
              <LatitudeDegrees>40.519619286060333251953125</LatitudeDegrees>
              <LongitudeDegrees>-5.6729842163622379302978515625</LongitudeDegrees>
            </Position>
            <AltitudeMeters>933</AltitudeMeters>
            <DistanceMeters>NAN</DistanceMeters>
          </Trackpoint>
          <Trackpoint>
            <Time>2019-10-07T11:03:10.000Z</Time>
            <Position>
              <LatitudeDegrees>40.51948592998087406158447265625</LatitudeDegrees>
              <LongitudeDegrees>-5.67301413975656032562255859375</LongitudeDegrees>
            </Position>
            <AltitudeMeters>933</AltitudeMeters>
            <DistanceMeters>NAN</DistanceMeters>
          </Trackpoint>
          <Trackpoint>
            <Time>2019-10-07T11:03:14.000Z</Time>
            <Position>
              <LatitudeDegrees>40.51931225694715976715087890625</LatitudeDegrees>
              <LongitudeDegrees>-5.6730593182146549224853515625</LongitudeDegrees>
            </Position>
            <AltitudeMeters>933.5999755859375</AltitudeMeters>
            <DistanceMeters>NAN</DistanceMeters>
          </Trackpoint>
          <Trackpoint>
            <Time>2019-10-07T11:03:16.000Z</Time>
            <Position>
              <LatitudeDegrees>40.5192258395254611968994140625</LatitudeDegrees>
              <LongitudeDegrees>-5.67308102734386920928955078125</LongitudeDegrees>
            </Position>
            <AltitudeMeters>934</AltitudeMeters>
            <DistanceMeters>NAN</DistanceMeters>
          </Trackpoint>
          <Trackpoint>
            <Time>2019-10-07T11:03:22.000Z</Time>
            <Position>
              <LatitudeDegrees>40.51896641962230205535888671875</LatitudeDegrees>
              <LongitudeDegrees>-5.6731481663882732391357421875</LongitudeDegrees>
            </Position>
            <AltitudeMeters>934.20001220703125</AltitudeMeters>
            <DistanceMeters>NAN</DistanceMeters>
          </Trackpoint>
          <Trackpoint>
            <Time>2019-10-07T11:03:27.000Z</Time>
            <Position>
              <LatitudeDegrees>40.51875117234885692596435546875</LatitudeDegrees>
              <LongitudeDegrees>-5.673207677900791168212890625</LongitudeDegrees>
            </Position>
            <AltitudeMeters>935.20001220703125</AltitudeMeters>
            <DistanceMeters>NAN</DistanceMeters>
          </Trackpoint>
          <Trackpoint>
            <Time>2019-10-07T11:03:39.000Z</Time>
            <Position>
              <LatitudeDegrees>40.51822654902935028076171875</LatitudeDegrees>
              <LongitudeDegrees>-5.67334589548408985137939453125</LongitudeDegrees>
            </Position>
            <AltitudeMeters>935.5999755859375</AltitudeMeters>
            <DistanceMeters>NAN</DistanceMeters>
          </Trackpoint>
          <Trackpoint>
            <Time>2019-10-07T11:03:41.000Z</Time>
            <Position>
              <LatitudeDegrees>40.51813862286508083343505859375</LatitudeDegrees>
              <LongitudeDegrees>-5.6733681075274944305419921875</LongitudeDegrees>
            </Position>
            <AltitudeMeters>935.79998779296875</AltitudeMeters>
            <DistanceMeters>NAN</DistanceMeters>
          </Trackpoint>
          <Trackpoint>
            <Time>2019-10-07T11:03:48.000Z</Time>
            <Position>
              <LatitudeDegrees>40.51783335395157337188720703125</LatitudeDegrees>
              <LongitudeDegrees>-5.6734418682754039764404296875</LongitudeDegrees>
            </Position>
            <AltitudeMeters>936.4000244140625</AltitudeMeters>
            <DistanceMeters>NAN</DistanceMeters>
          </Trackpoint>
          <Trackpoint>
            <Time>2019-10-07T11:03:51.000Z</Time>
            <Position>
              <LatitudeDegrees>40.51769991405308246612548828125</LatitudeDegrees>
              <LongitudeDegrees>-5.67347782664000988006591796875</LongitudeDegrees>
            </Position>
            <AltitudeMeters>936.79998779296875</AltitudeMeters>
            <DistanceMeters>NAN</DistanceMeters>
          </Trackpoint>
          <Trackpoint>
            <Time>2019-10-07T11:03:56.000Z</Time>
            <Position>
              <LatitudeDegrees>40.5174815654754638671875</LatitudeDegrees>
              <LongitudeDegrees>-5.67353792488574981689453125</LongitudeDegrees>
            </Position>
            <AltitudeMeters>937.4000244140625</AltitudeMeters>
            <DistanceMeters>NAN</DistanceMeters>
          </Trackpoint>
          <Trackpoint>
            <Time>2019-10-07T11:04:02.000Z</Time>
            <Position>
              <LatitudeDegrees>40.517227761447429656982421875</LatitudeDegrees>
              <LongitudeDegrees>-5.673599950969219207763671875</LongitudeDegrees>
            </Position>
            <AltitudeMeters>938.4000244140625</AltitudeMeters>
            <DistanceMeters>NAN</DistanceMeters>
          </Trackpoint>
          <Trackpoint>
            <Time>2019-10-07T11:04:04.000Z</Time>
            <Position>
              <LatitudeDegrees>40.5171476304531097412109375</LatitudeDegrees>
              <LongitudeDegrees>-5.67362031899392604827880859375</LongitudeDegrees>
            </Position>
            <AltitudeMeters>938.79998779296875</AltitudeMeters>
            <DistanceMeters>NAN</DistanceMeters>
          </Trackpoint>
          <Trackpoint>
            <Time>2019-10-07T11:04:11.000Z</Time>
            <Position>
              <LatitudeDegrees>40.51688611507415771484375</LatitudeDegrees>
              <LongitudeDegrees>-5.6736903078854084014892578125</LongitudeDegrees>
            </Position>
            <AltitudeMeters>939.5999755859375</AltitudeMeters>
            <DistanceMeters>NAN</DistanceMeters>
          </Trackpoint>
          <Trackpoint>
            <Time>2019-10-07T11:04:13.000Z</Time>
            <Position>
              <LatitudeDegrees>40.5168150365352630615234375</LatitudeDegrees>
              <LongitudeDegrees>-5.67370380274951457977294921875</LongitudeDegrees>
            </Position>
            <AltitudeMeters>940.4000244140625</AltitudeMeters>
            <DistanceMeters>NAN</DistanceMeters>
          </Trackpoint>
          <Trackpoint>
            <Time>2019-10-07T11:04:14.000Z</Time>
            <Position>
              <LatitudeDegrees>40.5167783237993717193603515625</LatitudeDegrees>
              <LongitudeDegrees>-5.67371117882430553436279296875</LongitudeDegrees>
            </Position>
            <AltitudeMeters>940.79998779296875</AltitudeMeters>
            <DistanceMeters>NAN</DistanceMeters>
          </Trackpoint>
          <Trackpoint>
            <Time>2019-10-07T11:04:19.000Z</Time>
            <Position>
              <LatitudeDegrees>40.51660456694662570953369140625</LatitudeDegrees>
              <LongitudeDegrees>-5.67375912331044673919677734375</LongitudeDegrees>
            </Position>
            <AltitudeMeters>941.79998779296875</AltitudeMeters>
            <DistanceMeters>NAN</DistanceMeters>
          </Trackpoint>
          <Trackpoint>
            <Time>2019-10-07T11:04:22.000Z</Time>
            <Position>
              <LatitudeDegrees>40.51650113426148891448974609375</LatitudeDegrees>
              <LongitudeDegrees>-5.673786699771881103515625</LongitudeDegrees>
            </Position>
            <AltitudeMeters>942.20001220703125</AltitudeMeters>
            <DistanceMeters>NAN</DistanceMeters>
          </Trackpoint>
          <Trackpoint>
            <Time>2019-10-07T11:04:24.000Z</Time>
            <Position>
              <LatitudeDegrees>40.5164329893887042999267578125</LatitudeDegrees>
              <LongitudeDegrees>-5.673799775540828704833984375</LongitudeDegrees>
            </Position>
            <AltitudeMeters>943</AltitudeMeters>
            <DistanceMeters>NAN</DistanceMeters>
          </Trackpoint>
          <Trackpoint>
            <Time>2019-10-07T11:04:29.000Z</Time>
            <Position>
              <LatitudeDegrees>40.51625990308821201324462890625</LatitudeDegrees>
              <LongitudeDegrees>-5.67383472807705402374267578125</LongitudeDegrees>
            </Position>
            <AltitudeMeters>944</AltitudeMeters>
            <DistanceMeters>NAN</DistanceMeters>
          </Trackpoint>
          <Trackpoint>
            <Time>2019-10-07T11:04:33.000Z</Time>
            <Position>
              <LatitudeDegrees>40.51611891947686672210693359375</LatitudeDegrees>
              <LongitudeDegrees>-5.6738602928817272186279296875</LongitudeDegrees>
            </Position>
            <AltitudeMeters>944.5999755859375</AltitudeMeters>
            <DistanceMeters>NAN</DistanceMeters>
          </Trackpoint>
          <Trackpoint>
            <Time>2019-10-07T11:04:36.000Z</Time>
            <Position>
              <LatitudeDegrees>40.5160088650882244110107421875</LatitudeDegrees>
              <LongitudeDegrees>-5.6738792359828948974609375</LongitudeDegrees>
            </Position>
            <AltitudeMeters>945.4000244140625</AltitudeMeters>
            <DistanceMeters>NAN</DistanceMeters>
          </Trackpoint>
          <Trackpoint>
            <Time>2019-10-07T11:04:42.000Z</Time>
            <Position>
              <LatitudeDegrees>40.5157828889787197113037109375</LatitudeDegrees>
              <LongitudeDegrees>-5.6739300303161144256591796875</LongitudeDegrees>
            </Position>
            <AltitudeMeters>946.20001220703125</AltitudeMeters>
            <DistanceMeters>NAN</DistanceMeters>
          </Trackpoint>
          <Trackpoint>
            <Time>2019-10-07T11:04:45.000Z</Time>
            <Position>
              <LatitudeDegrees>40.51567266695201396942138671875</LatitudeDegrees>
              <LongitudeDegrees>-5.67395039834082126617431640625</LongitudeDegrees>
            </Position>
            <AltitudeMeters>946.4000244140625</AltitudeMeters>
            <DistanceMeters>NAN</DistanceMeters>
          </Trackpoint>
          <Trackpoint>
            <Time>2019-10-07T11:04:52.000Z</Time>
            <Position>
              <LatitudeDegrees>40.51541836000978946685791015625</LatitudeDegrees>
              <LongitudeDegrees>-5.6740232370793819427490234375</LongitudeDegrees>
            </Position>
            <AltitudeMeters>947.5999755859375</AltitudeMeters>
            <DistanceMeters>NAN</DistanceMeters>
          </Trackpoint>
          <Trackpoint>
            <Time>2019-10-07T11:04:59.000Z</Time>
            <Position>
              <LatitudeDegrees>40.515200681984424591064453125</LatitudeDegrees>
              <LongitudeDegrees>-5.67412666976451873779296875</LongitudeDegrees>
            </Position>
            <AltitudeMeters>948</AltitudeMeters>
            <DistanceMeters>NAN</DistanceMeters>
          </Trackpoint>
          <Trackpoint>
            <Time>2019-10-07T11:05:03.000Z</Time>
            <Position>
              <LatitudeDegrees>40.51507285796105861663818359375</LatitudeDegrees>
              <LongitudeDegrees>-5.6742131710052490234375</LongitudeDegrees>
            </Position>
            <AltitudeMeters>948.5999755859375</AltitudeMeters>
            <DistanceMeters>NAN</DistanceMeters>
          </Trackpoint>
          <Trackpoint>
            <Time>2019-10-07T11:05:09.000Z</Time>
            <Position>
              <LatitudeDegrees>40.51489851437509059906005859375</LatitudeDegrees>
              <LongitudeDegrees>-5.67437200807034969329833984375</LongitudeDegrees>
            </Position>
            <AltitudeMeters>948.5999755859375</AltitudeMeters>
            <DistanceMeters>NAN</DistanceMeters>
          </Trackpoint>
          <Trackpoint>
            <Time>2019-10-07T11:05:14.000Z</Time>
            <Position>
              <LatitudeDegrees>40.51476792432367801666259765625</LatitudeDegrees>
              <LongitudeDegrees>-5.674474351108074188232421875</LongitudeDegrees>
            </Position>
            <AltitudeMeters>949</AltitudeMeters>
            <DistanceMeters>NAN</DistanceMeters>
          </Trackpoint>
          <Trackpoint>
            <Time>2019-10-07T11:05:15.000Z</Time>
            <Position>
              <LatitudeDegrees>40.51474680192768573760986328125</LatitudeDegrees>
              <LongitudeDegrees>-5.67447996698319911956787109375</LongitudeDegrees>
            </Position>
            <AltitudeMeters>948.79998779296875</AltitudeMeters>
            <DistanceMeters>NAN</DistanceMeters>
          </Trackpoint>
          <Trackpoint>
            <Time>2019-10-07T11:05:19.000Z</Time>
            <Position>
              <LatitudeDegrees>40.514659546315670013427734375</LatitudeDegrees>
              <LongitudeDegrees>-5.67442632280290126800537109375</LongitudeDegrees>
            </Position>
            <AltitudeMeters>949.4000244140625</AltitudeMeters>
            <DistanceMeters>NAN</DistanceMeters>
          </Trackpoint>
          <Trackpoint>
            <Time>2019-10-07T11:05:20.000Z</Time>
            <Position>
              <LatitudeDegrees>40.51463481970131397247314453125</LatitudeDegrees>
              <LongitudeDegrees>-5.67441492341458797454833984375</LongitudeDegrees>
            </Position>
            <AltitudeMeters>949.5999755859375</AltitudeMeters>
            <DistanceMeters>NAN</DistanceMeters>
          </Trackpoint>
          <Trackpoint>
            <Time>2019-10-07T11:05:23.000Z</Time>
            <Position>
              <LatitudeDegrees>40.51458586938679218292236328125</LatitudeDegrees>
              <LongitudeDegrees>-5.67440235055983066558837890625</LongitudeDegrees>
            </Position>
            <AltitudeMeters>949.5999755859375</AltitudeMeters>
            <DistanceMeters>NAN</DistanceMeters>
          </Trackpoint>
          <Trackpoint>
            <Time>2019-10-07T11:05:31.000Z</Time>
            <Position>
              <LatitudeDegrees>40.51458553411066532135009765625</LatitudeDegrees>
              <LongitudeDegrees>-5.67440168000757694244384765625</LongitudeDegrees>
            </Position>
            <AltitudeMeters>950</AltitudeMeters>
            <DistanceMeters>NAN</DistanceMeters>
          </Trackpoint>
          <Trackpoint>
            <Time>2019-10-07T11:05:33.000Z</Time>
            <Position>
              <LatitudeDegrees>40.51458553411066532135009765625</LatitudeDegrees>
              <LongitudeDegrees>-5.67440168000757694244384765625</LongitudeDegrees>
            </Position>
            <AltitudeMeters>950</AltitudeMeters>
            <DistanceMeters>NAN</DistanceMeters>
          </Trackpoint>
          <Trackpoint>
            <Time>2019-10-07T11:05:35.000Z</Time>
            <Position>
              <LatitudeDegrees>40.51458553411066532135009765625</LatitudeDegrees>
              <LongitudeDegrees>-5.67440168000757694244384765625</LongitudeDegrees>
            </Position>
            <AltitudeMeters>949.79998779296875</AltitudeMeters>
            <DistanceMeters>NAN</DistanceMeters>
          </Trackpoint>
          <Trackpoint>
            <Time>2019-10-07T11:05:38.000Z</Time>
            <Position>
              <LatitudeDegrees>40.51458553411066532135009765625</LatitudeDegrees>
              <LongitudeDegrees>-5.67440168000757694244384765625</LongitudeDegrees>
            </Position>
            <AltitudeMeters>949.79998779296875</AltitudeMeters>
            <DistanceMeters>NAN</DistanceMeters>
          </Trackpoint>
          <Trackpoint>
            <Time>2019-10-07T11:05:40.000Z</Time>
            <Position>
              <LatitudeDegrees>40.51458553411066532135009765625</LatitudeDegrees>
              <LongitudeDegrees>-5.67440168000757694244384765625</LongitudeDegrees>
            </Position>
            <AltitudeMeters>950</AltitudeMeters>
            <DistanceMeters>NAN</DistanceMeters>
          </Trackpoint>
          <Trackpoint>
            <Time>2019-10-07T11:05:46.000Z</Time>
            <Position>
              <LatitudeDegrees>40.51458553411066532135009765625</LatitudeDegrees>
              <LongitudeDegrees>-5.67440168000757694244384765625</LongitudeDegrees>
            </Position>
            <AltitudeMeters>949.79998779296875</AltitudeMeters>
            <DistanceMeters>NAN</DistanceMeters>
          </Trackpoint>
          <Trackpoint>
            <Time>2019-10-07T11:05:49.000Z</Time>
            <Position>
              <LatitudeDegrees>40.51458553411066532135009765625</LatitudeDegrees>
              <LongitudeDegrees>-5.67440168000757694244384765625</LongitudeDegrees>
            </Position>
            <AltitudeMeters>949.5999755859375</AltitudeMeters>
            <DistanceMeters>NAN</DistanceMeters>
          </Trackpoint>
          <Trackpoint>
            <Time>2019-10-07T11:05:52.000Z</Time>
            <Position>
              <LatitudeDegrees>40.51458553411066532135009765625</LatitudeDegrees>
              <LongitudeDegrees>-5.67440168000757694244384765625</LongitudeDegrees>
            </Position>
            <AltitudeMeters>949.79998779296875</AltitudeMeters>
            <DistanceMeters>NAN</DistanceMeters>
          </Trackpoint>
          <Trackpoint>
            <Time>2019-10-07T11:05:59.000Z</Time>
            <Position>
              <LatitudeDegrees>40.51458553411066532135009765625</LatitudeDegrees>
              <LongitudeDegrees>-5.67440168000757694244384765625</LongitudeDegrees>
            </Position>
            <AltitudeMeters>950</AltitudeMeters>
            <DistanceMeters>NAN</DistanceMeters>
          </Trackpoint>
          <Trackpoint>
            <Time>2019-10-07T11:06:01.000Z</Time>
            <Position>
              <LatitudeDegrees>40.51458553411066532135009765625</LatitudeDegrees>
              <LongitudeDegrees>-5.67440168000757694244384765625</LongitudeDegrees>
            </Position>
            <AltitudeMeters>950</AltitudeMeters>
            <DistanceMeters>NAN</DistanceMeters>
          </Trackpoint>
          <Trackpoint>
            <Time>2019-10-07T11:06:04.000Z</Time>
            <Position>
              <LatitudeDegrees>40.5145876295864582061767578125</LatitudeDegrees>
              <LongitudeDegrees>-5.674402602016925811767578125</LongitudeDegrees>
            </Position>
            <AltitudeMeters>949.5999755859375</AltitudeMeters>
            <DistanceMeters>NAN</DistanceMeters>
          </Trackpoint>
          <Trackpoint>
            <Time>2019-10-07T11:06:08.000Z</Time>
            <Position>
              <LatitudeDegrees>40.5145876295864582061767578125</LatitudeDegrees>
              <LongitudeDegrees>-5.674402602016925811767578125</LongitudeDegrees>
            </Position>
            <AltitudeMeters>949.79998779296875</AltitudeMeters>
            <DistanceMeters>NAN</DistanceMeters>
          </Trackpoint>
          <Trackpoint>
            <Time>2019-10-07T11:06:17.000Z</Time>
            <Position>
              <LatitudeDegrees>40.5145876295864582061767578125</LatitudeDegrees>
              <LongitudeDegrees>-5.674402602016925811767578125</LongitudeDegrees>
            </Position>
            <AltitudeMeters>950.20001220703125</AltitudeMeters>
            <DistanceMeters>NAN</DistanceMeters>
          </Trackpoint>
          <Trackpoint>
            <Time>2019-10-07T11:06:19.000Z</Time>
            <Position>
              <LatitudeDegrees>40.5145876295864582061767578125</LatitudeDegrees>
              <LongitudeDegrees>-5.674402602016925811767578125</LongitudeDegrees>
            </Position>
            <AltitudeMeters>949.5999755859375</AltitudeMeters>
            <DistanceMeters>NAN</DistanceMeters>
          </Trackpoint>
          <Trackpoint>
            <Time>2019-10-07T11:06:21.000Z</Time>
            <Position>
              <LatitudeDegrees>40.5145876295864582061767578125</LatitudeDegrees>
              <LongitudeDegrees>-5.674402602016925811767578125</LongitudeDegrees>
            </Position>
            <AltitudeMeters>949.79998779296875</AltitudeMeters>
            <DistanceMeters>NAN</DistanceMeters>
          </Trackpoint>
          <Trackpoint>
            <Time>2019-10-07T11:06:23.000Z</Time>
            <Position>
              <LatitudeDegrees>40.5145876295864582061767578125</LatitudeDegrees>
              <LongitudeDegrees>-5.674402602016925811767578125</LongitudeDegrees>
            </Position>
            <AltitudeMeters>949.79998779296875</AltitudeMeters>
            <DistanceMeters>NAN</DistanceMeters>
          </Trackpoint>
          <Trackpoint>
            <Time>2019-10-07T11:06:34.000Z</Time>
            <Position>
              <LatitudeDegrees>40.5145876295864582061767578125</LatitudeDegrees>
              <LongitudeDegrees>-5.674402602016925811767578125</LongitudeDegrees>
            </Position>
            <AltitudeMeters>949.79998779296875</AltitudeMeters>
            <DistanceMeters>NAN</DistanceMeters>
          </Trackpoint>
          <Trackpoint>
            <Time>2019-10-07T11:06:41.000Z</Time>
            <Position>
              <LatitudeDegrees>40.5145876295864582061767578125</LatitudeDegrees>
              <LongitudeDegrees>-5.674402602016925811767578125</LongitudeDegrees>
            </Position>
            <AltitudeMeters>949.79998779296875</AltitudeMeters>
            <DistanceMeters>NAN</DistanceMeters>
          </Trackpoint>
          <Trackpoint>
            <Time>2019-10-07T11:06:47.000Z</Time>
            <Position>
              <LatitudeDegrees>40.514587126672267913818359375</LatitudeDegrees>
              <LongitudeDegrees>-5.67440134473145008087158203125</LongitudeDegrees>
            </Position>
            <AltitudeMeters>949.79998779296875</AltitudeMeters>
            <DistanceMeters>NAN</DistanceMeters>
          </Trackpoint>
          <Trackpoint>
            <Time>2019-10-07T11:06:56.000Z</Time>
            <Position>
              <LatitudeDegrees>40.514587126672267913818359375</LatitudeDegrees>
              <LongitudeDegrees>-5.67440134473145008087158203125</LongitudeDegrees>
            </Position>
            <AltitudeMeters>949.4000244140625</AltitudeMeters>
            <DistanceMeters>NAN</DistanceMeters>
          </Trackpoint>
          <Trackpoint>
            <Time>2019-10-07T11:06:57.000Z</Time>
            <Position>
              <LatitudeDegrees>40.514587126672267913818359375</LatitudeDegrees>
              <LongitudeDegrees>-5.67440134473145008087158203125</LongitudeDegrees>
            </Position>
            <AltitudeMeters>949.5999755859375</AltitudeMeters>
            <DistanceMeters>NAN</DistanceMeters>
          </Trackpoint>
          <Trackpoint>
            <Time>2019-10-07T11:07:02.000Z</Time>
            <Position>
              <LatitudeDegrees>40.514587126672267913818359375</LatitudeDegrees>
              <LongitudeDegrees>-5.67440134473145008087158203125</LongitudeDegrees>
            </Position>
            <AltitudeMeters>949.79998779296875</AltitudeMeters>
            <DistanceMeters>NAN</DistanceMeters>
          </Trackpoint>
          <Trackpoint>
            <Time>2019-10-07T11:07:06.000Z</Time>
            <Position>
              <LatitudeDegrees>40.514587126672267913818359375</LatitudeDegrees>
              <LongitudeDegrees>-5.67440134473145008087158203125</LongitudeDegrees>
            </Position>
            <AltitudeMeters>950</AltitudeMeters>
            <DistanceMeters>NAN</DistanceMeters>
          </Trackpoint>
          <Trackpoint>
            <Time>2019-10-07T11:07:08.000Z</Time>
            <Position>
              <LatitudeDegrees>40.514587126672267913818359375</LatitudeDegrees>
              <LongitudeDegrees>-5.67440134473145008087158203125</LongitudeDegrees>
            </Position>
            <AltitudeMeters>949.79998779296875</AltitudeMeters>
            <DistanceMeters>NAN</DistanceMeters>
          </Trackpoint>
          <Trackpoint>
            <Time>2019-10-07T11:07:10.000Z</Time>
            <Position>
              <LatitudeDegrees>40.514587126672267913818359375</LatitudeDegrees>
              <LongitudeDegrees>-5.67440134473145008087158203125</LongitudeDegrees>
            </Position>
            <AltitudeMeters>949.79998779296875</AltitudeMeters>
            <DistanceMeters>NAN</DistanceMeters>
          </Trackpoint>
          <Trackpoint>
            <Time>2019-10-07T11:07:12.000Z</Time>
            <Position>
              <LatitudeDegrees>40.514587126672267913818359375</LatitudeDegrees>
              <LongitudeDegrees>-5.67440134473145008087158203125</LongitudeDegrees>
            </Position>
            <AltitudeMeters>949.79998779296875</AltitudeMeters>
            <DistanceMeters>NAN</DistanceMeters>
          </Trackpoint>
          <Trackpoint>
            <Time>2019-10-07T11:07:16.000Z</Time>
            <Position>
              <LatitudeDegrees>40.514587126672267913818359375</LatitudeDegrees>
              <LongitudeDegrees>-5.67440134473145008087158203125</LongitudeDegrees>
            </Position>
            <AltitudeMeters>949.5999755859375</AltitudeMeters>
            <DistanceMeters>NAN</DistanceMeters>
          </Trackpoint>
          <Trackpoint>
            <Time>2019-10-07T11:07:17.000Z</Time>
            <Position>
              <LatitudeDegrees>40.514587126672267913818359375</LatitudeDegrees>
              <LongitudeDegrees>-5.67440134473145008087158203125</LongitudeDegrees>
            </Position>
            <AltitudeMeters>949.5999755859375</AltitudeMeters>
            <DistanceMeters>NAN</DistanceMeters>
          </Trackpoint>
          <Trackpoint>
            <Time>2019-10-07T11:07:20.000Z</Time>
            <Position>
              <LatitudeDegrees>40.514587126672267913818359375</LatitudeDegrees>
              <LongitudeDegrees>-5.67440134473145008087158203125</LongitudeDegrees>
            </Position>
            <AltitudeMeters>949.79998779296875</AltitudeMeters>
            <DistanceMeters>NAN</DistanceMeters>
          </Trackpoint>
          <Trackpoint>
            <Time>2019-10-07T11:07:21.000Z</Time>
            <Position>
              <LatitudeDegrees>40.514587126672267913818359375</LatitudeDegrees>
              <LongitudeDegrees>-5.67440134473145008087158203125</LongitudeDegrees>
            </Position>
            <AltitudeMeters>949.79998779296875</AltitudeMeters>
            <DistanceMeters>NAN</DistanceMeters>
          </Trackpoint>
          <Trackpoint>
            <Time>2019-10-07T11:07:23.000Z</Time>
            <Position>
              <LatitudeDegrees>40.514587126672267913818359375</LatitudeDegrees>
              <LongitudeDegrees>-5.67440134473145008087158203125</LongitudeDegrees>
            </Position>
            <AltitudeMeters>949.79998779296875</AltitudeMeters>
            <DistanceMeters>NAN</DistanceMeters>
          </Trackpoint>
          <Trackpoint>
            <Time>2019-10-07T11:07:24.000Z</Time>
            <Position>
              <LatitudeDegrees>40.514587126672267913818359375</LatitudeDegrees>
              <LongitudeDegrees>-5.67440134473145008087158203125</LongitudeDegrees>
            </Position>
            <AltitudeMeters>949.79998779296875</AltitudeMeters>
            <DistanceMeters>NAN</DistanceMeters>
          </Trackpoint>
          <Trackpoint>
            <Time>2019-10-07T11:07:31.000Z</Time>
            <Position>
              <LatitudeDegrees>40.5145847797393798828125</LatitudeDegrees>
              <LongitudeDegrees>-5.67439799197018146514892578125</LongitudeDegrees>
            </Position>
            <AltitudeMeters>949.79998779296875</AltitudeMeters>
            <DistanceMeters>NAN</DistanceMeters>
          </Trackpoint>
          <Trackpoint>
            <Time>2019-10-07T11:07:37.000Z</Time>
            <Position>
              <LatitudeDegrees>40.5145847797393798828125</LatitudeDegrees>
              <LongitudeDegrees>-5.67439799197018146514892578125</LongitudeDegrees>
            </Position>
            <AltitudeMeters>949.5999755859375</AltitudeMeters>
            <DistanceMeters>NAN</DistanceMeters>
          </Trackpoint>
          <Trackpoint>
            <Time>2019-10-07T11:07:38.000Z</Time>
            <Position>
              <LatitudeDegrees>40.5145847797393798828125</LatitudeDegrees>
              <LongitudeDegrees>-5.67439799197018146514892578125</LongitudeDegrees>
            </Position>
            <AltitudeMeters>949.5999755859375</AltitudeMeters>
            <DistanceMeters>NAN</DistanceMeters>
          </Trackpoint>
          <Trackpoint>
            <Time>2019-10-07T11:07:44.000Z</Time>
            <Position>
              <LatitudeDegrees>40.5145847797393798828125</LatitudeDegrees>
              <LongitudeDegrees>-5.67439799197018146514892578125</LongitudeDegrees>
            </Position>
            <AltitudeMeters>949.5999755859375</AltitudeMeters>
            <DistanceMeters>NAN</DistanceMeters>
          </Trackpoint>
          <Trackpoint>
            <Time>2019-10-07T11:07:53.000Z</Time>
            <Position>
              <LatitudeDegrees>40.5145847797393798828125</LatitudeDegrees>
              <LongitudeDegrees>-5.67439799197018146514892578125</LongitudeDegrees>
            </Position>
            <AltitudeMeters>949.79998779296875</AltitudeMeters>
            <DistanceMeters>NAN</DistanceMeters>
          </Trackpoint>
          <Trackpoint>
            <Time>2019-10-07T11:07:55.000Z</Time>
            <Position>
              <LatitudeDegrees>40.5145847797393798828125</LatitudeDegrees>
              <LongitudeDegrees>-5.67439799197018146514892578125</LongitudeDegrees>
            </Position>
            <AltitudeMeters>949.79998779296875</AltitudeMeters>
            <DistanceMeters>NAN</DistanceMeters>
          </Trackpoint>
          <Trackpoint>
            <Time>2019-10-07T11:08:00.000Z</Time>
            <Position>
              <LatitudeDegrees>40.5145847797393798828125</LatitudeDegrees>
              <LongitudeDegrees>-5.67439799197018146514892578125</LongitudeDegrees>
            </Position>
            <AltitudeMeters>949.79998779296875</AltitudeMeters>
            <DistanceMeters>NAN</DistanceMeters>
          </Trackpoint>
          <Trackpoint>
            <Time>2019-10-07T11:08:04.000Z</Time>
            <Position>
              <LatitudeDegrees>40.5145847797393798828125</LatitudeDegrees>
              <LongitudeDegrees>-5.67439799197018146514892578125</LongitudeDegrees>
            </Position>
            <AltitudeMeters>949.5999755859375</AltitudeMeters>
            <DistanceMeters>NAN</DistanceMeters>
          </Trackpoint>
          <Trackpoint>
            <Time>2019-10-07T11:08:10.000Z</Time>
            <Position>
              <LatitudeDegrees>40.51458369009196758270263671875</LatitudeDegrees>
              <LongitudeDegrees>-5.6743987463414669036865234375</LongitudeDegrees>
            </Position>
            <AltitudeMeters>949.79998779296875</AltitudeMeters>
            <DistanceMeters>NAN</DistanceMeters>
          </Trackpoint>
          <Trackpoint>
            <Time>2019-10-07T11:08:14.000Z</Time>
            <Position>
              <LatitudeDegrees>40.51458369009196758270263671875</LatitudeDegrees>
              <LongitudeDegrees>-5.6743987463414669036865234375</LongitudeDegrees>
            </Position>
            <AltitudeMeters>949.4000244140625</AltitudeMeters>
            <DistanceMeters>NAN</DistanceMeters>
          </Trackpoint>
          <Trackpoint>
            <Time>2019-10-07T11:08:20.000Z</Time>
            <Position>
              <LatitudeDegrees>40.51458369009196758270263671875</LatitudeDegrees>
              <LongitudeDegrees>-5.6743987463414669036865234375</LongitudeDegrees>
            </Position>
            <AltitudeMeters>949.5999755859375</AltitudeMeters>
            <DistanceMeters>NAN</DistanceMeters>
          </Trackpoint>
          <Trackpoint>
            <Time>2019-10-07T11:08:34.000Z</Time>
            <Position>
              <LatitudeDegrees>40.51458369009196758270263671875</LatitudeDegrees>
              <LongitudeDegrees>-5.6743987463414669036865234375</LongitudeDegrees>
            </Position>
            <AltitudeMeters>949.4000244140625</AltitudeMeters>
            <DistanceMeters>NAN</DistanceMeters>
          </Trackpoint>
          <Trackpoint>
            <Time>2019-10-07T11:08:41.000Z</Time>
            <Position>
              <LatitudeDegrees>40.51458369009196758270263671875</LatitudeDegrees>
              <LongitudeDegrees>-5.6743987463414669036865234375</LongitudeDegrees>
            </Position>
            <AltitudeMeters>949.5999755859375</AltitudeMeters>
            <DistanceMeters>NAN</DistanceMeters>
          </Trackpoint>
          <Trackpoint>
            <Time>2019-10-07T11:08:47.000Z</Time>
            <Position>
              <LatitudeDegrees>40.5145834386348724365234375</LatitudeDegrees>
              <LongitudeDegrees>-5.67439832724630832672119140625</LongitudeDegrees>
            </Position>
            <AltitudeMeters>949.5999755859375</AltitudeMeters>
            <DistanceMeters>NAN</DistanceMeters>
          </Trackpoint>
          <Trackpoint>
            <Time>2019-10-07T11:08:50.000Z</Time>
            <Position>
              <LatitudeDegrees>40.5145834386348724365234375</LatitudeDegrees>
              <LongitudeDegrees>-5.67439832724630832672119140625</LongitudeDegrees>
            </Position>
            <AltitudeMeters>949.5999755859375</AltitudeMeters>
            <DistanceMeters>NAN</DistanceMeters>
          </Trackpoint>
          <Trackpoint>
            <Time>2019-10-07T11:08:51.000Z</Time>
            <Position>
              <LatitudeDegrees>40.5145834386348724365234375</LatitudeDegrees>
              <LongitudeDegrees>-5.67439832724630832672119140625</LongitudeDegrees>
            </Position>
            <AltitudeMeters>949.79998779296875</AltitudeMeters>
            <DistanceMeters>NAN</DistanceMeters>
          </Trackpoint>
          <Trackpoint>
            <Time>2019-10-07T11:08:58.000Z</Time>
            <Position>
              <LatitudeDegrees>40.5145834386348724365234375</LatitudeDegrees>
              <LongitudeDegrees>-5.67439832724630832672119140625</LongitudeDegrees>
            </Position>
            <AltitudeMeters>949.5999755859375</AltitudeMeters>
            <DistanceMeters>NAN</DistanceMeters>
          </Trackpoint>
          <Trackpoint>
            <Time>2019-10-07T11:09:01.000Z</Time>
            <Position>
              <LatitudeDegrees>40.5145834386348724365234375</LatitudeDegrees>
              <LongitudeDegrees>-5.67439832724630832672119140625</LongitudeDegrees>
            </Position>
            <AltitudeMeters>949.79998779296875</AltitudeMeters>
            <DistanceMeters>NAN</DistanceMeters>
          </Trackpoint>
          <Trackpoint>
            <Time>2019-10-07T11:09:05.000Z</Time>
            <Position>
              <LatitudeDegrees>40.5145834386348724365234375</LatitudeDegrees>
              <LongitudeDegrees>-5.67439832724630832672119140625</LongitudeDegrees>
            </Position>
            <AltitudeMeters>949.79998779296875</AltitudeMeters>
            <DistanceMeters>NAN</DistanceMeters>
          </Trackpoint>
          <Trackpoint>
            <Time>2019-10-07T11:09:10.000Z</Time>
            <Position>
              <LatitudeDegrees>40.5145834386348724365234375</LatitudeDegrees>
              <LongitudeDegrees>-5.67439832724630832672119140625</LongitudeDegrees>
            </Position>
            <AltitudeMeters>949.79998779296875</AltitudeMeters>
            <DistanceMeters>NAN</DistanceMeters>
          </Trackpoint>
          <Trackpoint>
            <Time>2019-10-07T11:09:18.000Z</Time>
            <Position>
              <LatitudeDegrees>40.5145834386348724365234375</LatitudeDegrees>
              <LongitudeDegrees>-5.67439832724630832672119140625</LongitudeDegrees>
            </Position>
            <AltitudeMeters>949.5999755859375</AltitudeMeters>
            <DistanceMeters>NAN</DistanceMeters>
          </Trackpoint>
          <Trackpoint>
            <Time>2019-10-07T11:09:21.000Z</Time>
            <Position>
              <LatitudeDegrees>40.5145834386348724365234375</LatitudeDegrees>
              <LongitudeDegrees>-5.67439832724630832672119140625</LongitudeDegrees>
            </Position>
            <AltitudeMeters>949.79998779296875</AltitudeMeters>
            <DistanceMeters>NAN</DistanceMeters>
          </Trackpoint>
          <Trackpoint>
            <Time>2019-10-07T11:09:28.000Z</Time>
            <Position>
              <LatitudeDegrees>40.51458972506225109100341796875</LatitudeDegrees>
              <LongitudeDegrees>-5.67440561950206756591796875</LongitudeDegrees>
            </Position>
            <AltitudeMeters>950</AltitudeMeters>
            <DistanceMeters>NAN</DistanceMeters>
          </Trackpoint>
          <Trackpoint>
            <Time>2019-10-07T11:09:31.000Z</Time>
            <Position>
              <LatitudeDegrees>40.5145888030529022216796875</LatitudeDegrees>
              <LongitudeDegrees>-5.67440436221659183502197265625</LongitudeDegrees>
            </Position>
            <AltitudeMeters>949.79998779296875</AltitudeMeters>
            <DistanceMeters>NAN</DistanceMeters>
          </Trackpoint>
          <Trackpoint>
            <Time>2019-10-07T11:09:32.000Z</Time>
            <Position>
              <LatitudeDegrees>40.514586456120014190673828125</LatitudeDegrees>
              <LongitudeDegrees>-5.67440520040690898895263671875</LongitudeDegrees>
            </Position>
            <AltitudeMeters>949.5999755859375</AltitudeMeters>
            <DistanceMeters>NAN</DistanceMeters>
          </Trackpoint>
          <Trackpoint>
            <Time>2019-10-07T11:09:34.000Z</Time>
            <Position>
              <LatitudeDegrees>40.5145631544291973114013671875</LatitudeDegrees>
              <LongitudeDegrees>-5.674390532076358795166015625</LongitudeDegrees>
            </Position>
            <AltitudeMeters>949.5999755859375</AltitudeMeters>
            <DistanceMeters>NAN</DistanceMeters>
          </Trackpoint>
          <Trackpoint>
            <Time>2019-10-07T11:09:36.000Z</Time>
            <Position>
              <LatitudeDegrees>40.5145245976746082305908203125</LatitudeDegrees>
              <LongitudeDegrees>-5.67440159618854522705078125</LongitudeDegrees>
            </Position>
            <AltitudeMeters>949.5999755859375</AltitudeMeters>
            <DistanceMeters>NAN</DistanceMeters>
          </Trackpoint>
          <Trackpoint>
            <Time>2019-10-07T11:09:41.000Z</Time>
            <Position>
              <LatitudeDegrees>40.51439501345157623291015625</LatitudeDegrees>
              <LongitudeDegrees>-5.6744805537164211273193359375</LongitudeDegrees>
            </Position>
            <AltitudeMeters>950</AltitudeMeters>
            <DistanceMeters>NAN</DistanceMeters>
          </Trackpoint>
          <Trackpoint>
            <Time>2019-10-07T11:09:48.000Z</Time>
            <Position>
              <LatitudeDegrees>40.514196194708347320556640625</LatitudeDegrees>
              <LongitudeDegrees>-5.67461541853845119476318359375</LongitudeDegrees>
            </Position>
            <AltitudeMeters>950.5999755859375</AltitudeMeters>
            <DistanceMeters>NAN</DistanceMeters>
          </Trackpoint>
          <Trackpoint>
            <Time>2019-10-07T11:09:49.000Z</Time>
            <Position>
              <LatitudeDegrees>40.51415051333606243133544921875</LatitudeDegrees>
              <LongitudeDegrees>-5.67464408464729785919189453125</LongitudeDegrees>
            </Position>
            <AltitudeMeters>950.4000244140625</AltitudeMeters>
            <DistanceMeters>NAN</DistanceMeters>
          </Trackpoint>
          <Trackpoint>
            <Time>2019-10-07T11:09:55.000Z</Time>
            <Position>
              <LatitudeDegrees>40.51396979950368404388427734375</LatitudeDegrees>
              <LongitudeDegrees>-5.67473108880221843719482421875</LongitudeDegrees>
            </Position>
            <AltitudeMeters>950.4000244140625</AltitudeMeters>
            <DistanceMeters>NAN</DistanceMeters>
          </Trackpoint>
          <Trackpoint>
            <Time>2019-10-07T11:10:00.000Z</Time>
            <Position>
              <LatitudeDegrees>40.51376947201788425445556640625</LatitudeDegrees>
              <LongitudeDegrees>-5.67479110322892665863037109375</LongitudeDegrees>
            </Position>
            <AltitudeMeters>950.4000244140625</AltitudeMeters>
            <DistanceMeters>NAN</DistanceMeters>
          </Trackpoint>
          <Trackpoint>
            <Time>2019-10-07T11:10:02.000Z</Time>
            <Position>
              <LatitudeDegrees>40.5136835575103759765625</LatitudeDegrees>
              <LongitudeDegrees>-5.67480132915079593658447265625</LongitudeDegrees>
            </Position>
            <AltitudeMeters>950.20001220703125</AltitudeMeters>
            <DistanceMeters>NAN</DistanceMeters>
          </Trackpoint>
          <Trackpoint>
            <Time>2019-10-07T11:10:04.000Z</Time>
            <Position>
              <LatitudeDegrees>40.5135910212993621826171875</LatitudeDegrees>
              <LongitudeDegrees>-5.67480216734111309051513671875</LongitudeDegrees>
            </Position>
            <AltitudeMeters>949.5999755859375</AltitudeMeters>
            <DistanceMeters>NAN</DistanceMeters>
          </Trackpoint>
          <Trackpoint>
            <Time>2019-10-07T11:10:07.000Z</Time>
            <Position>
              <LatitudeDegrees>40.51344039849936962127685546875</LatitudeDegrees>
              <LongitudeDegrees>-5.6748114712536334991455078125</LongitudeDegrees>
            </Position>
            <AltitudeMeters>949.20001220703125</AltitudeMeters>
            <DistanceMeters>NAN</DistanceMeters>
          </Trackpoint>
          <Trackpoint>
            <Time>2019-10-07T11:10:13.000Z</Time>
            <Position>
              <LatitudeDegrees>40.51310193724930286407470703125</LatitudeDegrees>
              <LongitudeDegrees>-5.6748171709477901458740234375</LongitudeDegrees>
            </Position>
            <AltitudeMeters>948.4000244140625</AltitudeMeters>
            <DistanceMeters>NAN</DistanceMeters>
          </Trackpoint>
          <Trackpoint>
            <Time>2019-10-07T11:10:14.000Z</Time>
            <Position>
              <LatitudeDegrees>40.51304141990840435028076171875</LatitudeDegrees>
              <LongitudeDegrees>-5.6748188473284244537353515625</LongitudeDegrees>
            </Position>
            <AltitudeMeters>948.20001220703125</AltitudeMeters>
            <DistanceMeters>NAN</DistanceMeters>
          </Trackpoint>
          <Trackpoint>
            <Time>2019-10-07T11:10:16.000Z</Time>
            <Position>
              <LatitudeDegrees>40.51291644573211669921875</LatitudeDegrees>
              <LongitudeDegrees>-5.67482127808034420013427734375</LongitudeDegrees>
            </Position>
            <AltitudeMeters>947</AltitudeMeters>
            <DistanceMeters>NAN</DistanceMeters>
          </Trackpoint>
          <Trackpoint>
            <Time>2019-10-07T11:10:23.000Z</Time>
            <Position>
              <LatitudeDegrees>40.51245569251477718353271484375</LatitudeDegrees>
              <LongitudeDegrees>-5.67481189034879207611083984375</LongitudeDegrees>
            </Position>
            <AltitudeMeters>946.4000244140625</AltitudeMeters>
            <DistanceMeters>NAN</DistanceMeters>
          </Trackpoint>
          <Trackpoint>
            <Time>2019-10-07T11:10:24.000Z</Time>
            <Position>
              <LatitudeDegrees>40.51238578744232654571533203125</LatitudeDegrees>
              <LongitudeDegrees>-5.67481189034879207611083984375</LongitudeDegrees>
            </Position>
            <AltitudeMeters>946.4000244140625</AltitudeMeters>
            <DistanceMeters>NAN</DistanceMeters>
          </Trackpoint>
          <Trackpoint>
            <Time>2019-10-07T11:10:25.000Z</Time>
            <Position>
              <LatitudeDegrees>40.51231454126536846160888671875</LatitudeDegrees>
              <LongitudeDegrees>-5.67481071688234806060791015625</LongitudeDegrees>
            </Position>
            <AltitudeMeters>945.79998779296875</AltitudeMeters>
            <DistanceMeters>NAN</DistanceMeters>
          </Trackpoint>
          <Trackpoint>
            <Time>2019-10-07T11:10:26.000Z</Time>
            <Position>
              <LatitudeDegrees>40.5122418701648712158203125</LatitudeDegrees>
              <LongitudeDegrees>-5.67480820231139659881591796875</LongitudeDegrees>
            </Position>
            <AltitudeMeters>946</AltitudeMeters>
            <DistanceMeters>NAN</DistanceMeters>
          </Trackpoint>
          <Trackpoint>
            <Time>2019-10-07T11:10:27.000Z</Time>
            <Position>
              <LatitudeDegrees>40.512168444693088531494140625</LatitudeDegrees>
              <LongitudeDegrees>-5.6748054362833499908447265625</LongitudeDegrees>
            </Position>
            <AltitudeMeters>945.5999755859375</AltitudeMeters>
            <DistanceMeters>NAN</DistanceMeters>
          </Trackpoint>
          <Trackpoint>
            <Time>2019-10-07T11:10:31.000Z</Time>
            <Position>
              <LatitudeDegrees>40.511862337589263916015625</LatitudeDegrees>
              <LongitudeDegrees>-5.67479127086699008941650390625</LongitudeDegrees>
            </Position>
            <AltitudeMeters>945</AltitudeMeters>
            <DistanceMeters>NAN</DistanceMeters>
          </Trackpoint>
          <Trackpoint>
            <Time>2019-10-07T11:10:33.000Z</Time>
            <Position>
              <LatitudeDegrees>40.511703081429004669189453125</LatitudeDegrees>
              <LongitudeDegrees>-5.67478607408702373504638671875</LongitudeDegrees>
            </Position>
            <AltitudeMeters>944.5999755859375</AltitudeMeters>
            <DistanceMeters>NAN</DistanceMeters>
          </Trackpoint>
          <Trackpoint>
            <Time>2019-10-07T11:10:38.000Z</Time>
            <Position>
              <LatitudeDegrees>40.5112891830503940582275390625</LatitudeDegrees>
              <LongitudeDegrees>-5.67478473298251628875732421875</LongitudeDegrees>
            </Position>
            <AltitudeMeters>943.5999755859375</AltitudeMeters>
            <DistanceMeters>NAN</DistanceMeters>
          </Trackpoint>
          <Trackpoint>
            <Time>2019-10-07T11:10:39.000Z</Time>
            <Position>
              <LatitudeDegrees>40.51120561547577381134033203125</LatitudeDegrees>
              <LongitudeDegrees>-5.67478917539119720458984375</LongitudeDegrees>
            </Position>
            <AltitudeMeters>943.4000244140625</AltitudeMeters>
            <DistanceMeters>NAN</DistanceMeters>
          </Trackpoint>
          <Trackpoint>
            <Time>2019-10-07T11:10:40.000Z</Time>
            <Position>
              <LatitudeDegrees>40.51112405955791473388671875</LatitudeDegrees>
              <LongitudeDegrees>-5.67479579709470272064208984375</LongitudeDegrees>
            </Position>
            <AltitudeMeters>943.20001220703125</AltitudeMeters>
            <DistanceMeters>NAN</DistanceMeters>
          </Trackpoint>
          <Trackpoint>
            <Time>2019-10-07T11:10:46.000Z</Time>
            <Position>
              <LatitudeDegrees>40.51064738072454929351806640625</LatitudeDegrees>
              <LongitudeDegrees>-5.67487173713743686676025390625</LongitudeDegrees>
            </Position>
            <AltitudeMeters>942.79998779296875</AltitudeMeters>
            <DistanceMeters>NAN</DistanceMeters>
          </Trackpoint>
          <Trackpoint>
            <Time>2019-10-07T11:10:52.000Z</Time>
            <Position>
              <LatitudeDegrees>40.51022845320403575897216796875</LatitudeDegrees>
              <LongitudeDegrees>-5.67496444098651409149169921875</LongitudeDegrees>
            </Position>
            <AltitudeMeters>944</AltitudeMeters>
            <DistanceMeters>NAN</DistanceMeters>
          </Trackpoint>
          <Trackpoint>
            <Time>2019-10-07T11:10:54.000Z</Time>
            <Position>
              <LatitudeDegrees>40.51010138355195522308349609375</LatitudeDegrees>
              <LongitudeDegrees>-5.67499411292374134063720703125</LongitudeDegrees>
            </Position>
            <AltitudeMeters>944</AltitudeMeters>
            <DistanceMeters>NAN</DistanceMeters>
          </Trackpoint>
          <Trackpoint>
            <Time>2019-10-07T11:10:56.000Z</Time>
            <Position>
              <LatitudeDegrees>40.50998185761272907257080078125</LatitudeDegrees>
              <LongitudeDegrees>-5.67502160556614398956298828125</LongitudeDegrees>
            </Position>
            <AltitudeMeters>944.5999755859375</AltitudeMeters>
            <DistanceMeters>NAN</DistanceMeters>
          </Trackpoint>
          <Trackpoint>
            <Time>2019-10-07T11:10:59.000Z</Time>
            <Position>
              <LatitudeDegrees>40.50981958396732807159423828125</LatitudeDegrees>
              <LongitudeDegrees>-5.6750605814158916473388671875</LongitudeDegrees>
            </Position>
            <AltitudeMeters>944.79998779296875</AltitudeMeters>
            <DistanceMeters>NAN</DistanceMeters>
          </Trackpoint>
          <Trackpoint>
            <Time>2019-10-07T11:11:01.000Z</Time>
            <Position>
              <LatitudeDegrees>40.50971782766282558441162109375</LatitudeDegrees>
              <LongitudeDegrees>-5.67508497275412082672119140625</LongitudeDegrees>
            </Position>
            <AltitudeMeters>945</AltitudeMeters>
            <DistanceMeters>NAN</DistanceMeters>
          </Trackpoint>
          <Trackpoint>
            <Time>2019-10-07T11:11:04.000Z</Time>
            <Position>
              <LatitudeDegrees>40.50957198254764080047607421875</LatitudeDegrees>
              <LongitudeDegrees>-5.67511950619518756866455078125</LongitudeDegrees>
            </Position>
            <AltitudeMeters>945.20001220703125</AltitudeMeters>
            <DistanceMeters>NAN</DistanceMeters>
          </Trackpoint>
          <Trackpoint>
            <Time>2019-10-07T11:11:05.000Z</Time>
            <Position>
              <LatitudeDegrees>40.50952336750924587249755859375</LatitudeDegrees>
              <LongitudeDegrees>-5.67513157613575458526611328125</LongitudeDegrees>
            </Position>
            <AltitudeMeters>945.79998779296875</AltitudeMeters>
            <DistanceMeters>NAN</DistanceMeters>
          </Trackpoint>
          <Trackpoint>
            <Time>2019-10-07T11:11:10.000Z</Time>
            <Position>
              <LatitudeDegrees>40.50928230397403240203857421875</LatitudeDegrees>
              <LongitudeDegrees>-5.67518857307732105255126953125</LongitudeDegrees>
            </Position>
            <AltitudeMeters>946.20001220703125</AltitudeMeters>
            <DistanceMeters>NAN</DistanceMeters>
          </Trackpoint>
          <Trackpoint>
            <Time>2019-10-07T11:11:12.000Z</Time>
            <Position>
              <LatitudeDegrees>40.50918624736368656158447265625</LatitudeDegrees>
              <LongitudeDegrees>-5.67521137185394763946533203125</LongitudeDegrees>
            </Position>
            <AltitudeMeters>946</AltitudeMeters>
            <DistanceMeters>NAN</DistanceMeters>
          </Trackpoint>
          <Trackpoint>
            <Time>2019-10-07T11:11:14.000Z</Time>
            <Position>
              <LatitudeDegrees>40.50908918492496013641357421875</LatitudeDegrees>
              <LongitudeDegrees>-5.6752315722405910491943359375</LongitudeDegrees>
            </Position>
            <AltitudeMeters>946.20001220703125</AltitudeMeters>
            <DistanceMeters>NAN</DistanceMeters>
          </Trackpoint>
          <Trackpoint>
            <Time>2019-10-07T11:11:16.000Z</Time>
            <Position>
              <LatitudeDegrees>40.50899430178105831146240234375</LatitudeDegrees>
              <LongitudeDegrees>-5.6752523593604564666748046875</LongitudeDegrees>
            </Position>
            <AltitudeMeters>946.5999755859375</AltitudeMeters>
            <DistanceMeters>NAN</DistanceMeters>
          </Trackpoint>
          <Trackpoint>
            <Time>2019-10-07T11:11:18.000Z</Time>
            <Position>
              <LatitudeDegrees>40.508900173008441925048828125</LatitudeDegrees>
              <LongitudeDegrees>-5.675272978842258453369140625</LongitudeDegrees>
            </Position>
            <AltitudeMeters>946.5999755859375</AltitudeMeters>
            <DistanceMeters>NAN</DistanceMeters>
          </Trackpoint>
          <Trackpoint>
            <Time>2019-10-07T11:11:20.000Z</Time>
            <Position>
              <LatitudeDegrees>40.50880721770226955413818359375</LatitudeDegrees>
              <LongitudeDegrees>-5.6752925924956798553466796875</LongitudeDegrees>
            </Position>
            <AltitudeMeters>946.79998779296875</AltitudeMeters>
            <DistanceMeters>NAN</DistanceMeters>
          </Trackpoint>
          <Trackpoint>
            <Time>2019-10-07T11:11:23.000Z</Time>
            <Position>
              <LatitudeDegrees>40.50866573117673397064208984375</LatitudeDegrees>
              <LongitudeDegrees>-5.67532637156546115875244140625</LongitudeDegrees>
            </Position>
            <AltitudeMeters>947.20001220703125</AltitudeMeters>
            <DistanceMeters>NAN</DistanceMeters>
          </Trackpoint>
          <Trackpoint>
            <Time>2019-10-07T11:11:26.000Z</Time>
            <Position>
              <LatitudeDegrees>40.50852323882281780242919921875</LatitudeDegrees>
              <LongitudeDegrees>-5.6753596477210521697998046875</LongitudeDegrees>
            </Position>
            <AltitudeMeters>948</AltitudeMeters>
            <DistanceMeters>NAN</DistanceMeters>
          </Trackpoint>
          <Trackpoint>
            <Time>2019-10-07T11:11:29.000Z</Time>
            <Position>
              <LatitudeDegrees>40.508381836116313934326171875</LatitudeDegrees>
              <LongitudeDegrees>-5.67539133131504058837890625</LongitudeDegrees>
            </Position>
            <AltitudeMeters>947.79998779296875</AltitudeMeters>
            <DistanceMeters>NAN</DistanceMeters>
          </Trackpoint>
          <Trackpoint>
            <Time>2019-10-07T11:11:33.000Z</Time>
            <Position>
              <LatitudeDegrees>40.50819533877074718475341796875</LatitudeDegrees>
              <LongitudeDegrees>-5.6754411198198795318603515625</LongitudeDegrees>
            </Position>
            <AltitudeMeters>947.79998779296875</AltitudeMeters>
            <DistanceMeters>NAN</DistanceMeters>
          </Trackpoint>
          <Trackpoint>
            <Time>2019-10-07T11:11:34.000Z</Time>
            <Position>
              <LatitudeDegrees>40.508149154484272003173828125</LatitudeDegrees>
              <LongitudeDegrees>-5.67545126192271709442138671875</LongitudeDegrees>
            </Position>
            <AltitudeMeters>948</AltitudeMeters>
            <DistanceMeters>NAN</DistanceMeters>
          </Trackpoint>
          <Trackpoint>
            <Time>2019-10-07T11:11:40.000Z</Time>
            <Position>
              <LatitudeDegrees>40.50787598825991153717041015625</LatitudeDegrees>
              <LongitudeDegrees>-5.6755287945270538330078125</LongitudeDegrees>
            </Position>
            <AltitudeMeters>948.4000244140625</AltitudeMeters>
            <DistanceMeters>NAN</DistanceMeters>
          </Trackpoint>
          <Trackpoint>
            <Time>2019-10-07T11:11:41.000Z</Time>
            <Position>
              <LatitudeDegrees>40.50783055834472179412841796875</LatitudeDegrees>
              <LongitudeDegrees>-5.6755403615534305572509765625</LongitudeDegrees>
            </Position>
            <AltitudeMeters>948.5999755859375</AltitudeMeters>
            <DistanceMeters>NAN</DistanceMeters>
          </Trackpoint>
          <Trackpoint>
            <Time>2019-10-07T11:11:43.000Z</Time>
            <Position>
              <LatitudeDegrees>40.5077384412288665771484375</LatitudeDegrees>
              <LongitudeDegrees>-5.67556433379650115966796875</LongitudeDegrees>
            </Position>
            <AltitudeMeters>949.20001220703125</AltitudeMeters>
            <DistanceMeters>NAN</DistanceMeters>
          </Trackpoint>
          <Trackpoint>
            <Time>2019-10-07T11:11:49.000Z</Time>
            <Position>
              <LatitudeDegrees>40.5074650235474109649658203125</LatitudeDegrees>
              <LongitudeDegrees>-5.67563901655375957489013671875</LongitudeDegrees>
            </Position>
            <AltitudeMeters>950.4000244140625</AltitudeMeters>
            <DistanceMeters>NAN</DistanceMeters>
          </Trackpoint>
          <Trackpoint>
            <Time>2019-10-07T11:11:53.000Z</Time>
            <Position>
              <LatitudeDegrees>40.507294870913028717041015625</LatitudeDegrees>
              <LongitudeDegrees>-5.67568771541118621826171875</LongitudeDegrees>
            </Position>
            <AltitudeMeters>950.5999755859375</AltitudeMeters>
            <DistanceMeters>NAN</DistanceMeters>
          </Trackpoint>
          <Trackpoint>
            <Time>2019-10-07T11:11:57.000Z</Time>
            <Position>
              <LatitudeDegrees>40.507133267819881439208984375</LatitudeDegrees>
              <LongitudeDegrees>-5.6757307983934879302978515625</LongitudeDegrees>
            </Position>
            <AltitudeMeters>951.4000244140625</AltitudeMeters>
            <DistanceMeters>NAN</DistanceMeters>
          </Trackpoint>
          <Trackpoint>
            <Time>2019-10-07T11:12:00.000Z</Time>
            <Position>
              <LatitudeDegrees>40.50702430307865142822265625</LatitudeDegrees>
              <LongitudeDegrees>-5.67575904540717601776123046875</LongitudeDegrees>
            </Position>
            <AltitudeMeters>952.20001220703125</AltitudeMeters>
            <DistanceMeters>NAN</DistanceMeters>
          </Trackpoint>
          <Trackpoint>
            <Time>2019-10-07T11:12:05.000Z</Time>
            <Position>
              <LatitudeDegrees>40.50686529837548732757568359375</LatitudeDegrees>
              <LongitudeDegrees>-5.6758028827607631683349609375</LongitudeDegrees>
            </Position>
            <AltitudeMeters>952.4000244140625</AltitudeMeters>
            <DistanceMeters>NAN</DistanceMeters>
          </Trackpoint>
          <Trackpoint>
            <Time>2019-10-07T11:12:07.000Z</Time>
            <Position>
              <LatitudeDegrees>40.50680427812039852142333984375</LatitudeDegrees>
              <LongitudeDegrees>-5.67582291550934314727783203125</LongitudeDegrees>
            </Position>
            <AltitudeMeters>953.20001220703125</AltitudeMeters>
            <DistanceMeters>NAN</DistanceMeters>
          </Trackpoint>
          <Trackpoint>
            <Time>2019-10-07T11:12:08.000Z</Time>
            <Position>
              <LatitudeDegrees>40.5067740194499492645263671875</LatitudeDegrees>
              <LongitudeDegrees>-5.675830207765102386474609375</LongitudeDegrees>
            </Position>
            <AltitudeMeters>953.4000244140625</AltitudeMeters>
            <DistanceMeters>NAN</DistanceMeters>
          </Trackpoint>
          <Trackpoint>
            <Time>2019-10-07T11:12:14.000Z</Time>
            <Position>
              <LatitudeDegrees>40.50659380853176116943359375</LatitudeDegrees>
              <LongitudeDegrees>-5.6758870370686054229736328125</LongitudeDegrees>
            </Position>
            <AltitudeMeters>954.5999755859375</AltitudeMeters>
            <DistanceMeters>NAN</DistanceMeters>
          </Trackpoint>
          <Trackpoint>
            <Time>2019-10-07T11:12:17.000Z</Time>
            <Position>
              <LatitudeDegrees>40.50650403834879398345947265625</LatitudeDegrees>
              <LongitudeDegrees>-5.675913356244564056396484375</LongitudeDegrees>
            </Position>
            <AltitudeMeters>955.4000244140625</AltitudeMeters>
            <DistanceMeters>NAN</DistanceMeters>
          </Trackpoint>
          <Trackpoint>
            <Time>2019-10-07T11:12:19.000Z</Time>
            <Position>
              <LatitudeDegrees>40.5064441077411174774169921875</LatitudeDegrees>
              <LongitudeDegrees>-5.67593154497444629669189453125</LongitudeDegrees>
            </Position>
            <AltitudeMeters>955.79998779296875</AltitudeMeters>
            <DistanceMeters>NAN</DistanceMeters>
          </Trackpoint>
          <Trackpoint>
            <Time>2019-10-07T11:12:23.000Z</Time>
            <Position>
              <LatitudeDegrees>40.50632533617317676544189453125</LatitudeDegrees>
              <LongitudeDegrees>-5.67596322856843471527099609375</LongitudeDegrees>
            </Position>
            <AltitudeMeters>956.5999755859375</AltitudeMeters>
            <DistanceMeters>NAN</DistanceMeters>
          </Trackpoint>
          <Trackpoint>
            <Time>2019-10-07T11:12:26.000Z</Time>
            <Position>
              <LatitudeDegrees>40.50623799674212932586669921875</LatitudeDegrees>
              <LongitudeDegrees>-5.67598653025925159454345703125</LongitudeDegrees>
            </Position>
            <AltitudeMeters>956.79998779296875</AltitudeMeters>
            <DistanceMeters>NAN</DistanceMeters>
          </Trackpoint>
          <Trackpoint>
            <Time>2019-10-07T11:12:28.000Z</Time>
            <Position>
              <LatitudeDegrees>40.50618083216249942779541015625</LatitudeDegrees>
              <LongitudeDegrees>-5.676002539694309234619140625</LongitudeDegrees>
            </Position>
            <AltitudeMeters>957.20001220703125</AltitudeMeters>
            <DistanceMeters>NAN</DistanceMeters>
          </Trackpoint>
          <Trackpoint>
            <Time>2019-10-07T11:12:31.000Z</Time>
            <Position>
              <LatitudeDegrees>40.5060930736362934112548828125</LatitudeDegrees>
              <LongitudeDegrees>-5.6760288588702678680419921875</LongitudeDegrees>
            </Position>
            <AltitudeMeters>958</AltitudeMeters>
            <DistanceMeters>NAN</DistanceMeters>
          </Trackpoint>
          <Trackpoint>
            <Time>2019-10-07T11:12:36.000Z</Time>
            <Position>
              <LatitudeDegrees>40.5059455521404743194580078125</LatitudeDegrees>
              <LongitudeDegrees>-5.67607261240482330322265625</LongitudeDegrees>
            </Position>
            <AltitudeMeters>959.20001220703125</AltitudeMeters>
            <DistanceMeters>NAN</DistanceMeters>
          </Trackpoint>
          <Trackpoint>
            <Time>2019-10-07T11:12:39.000Z</Time>
            <Position>
              <LatitudeDegrees>40.50585477612912654876708984375</LatitudeDegrees>
              <LongitudeDegrees>-5.67610018886625766754150390625</LongitudeDegrees>
            </Position>
            <AltitudeMeters>960</AltitudeMeters>
            <DistanceMeters>NAN</DistanceMeters>
          </Trackpoint>
          <Trackpoint>
            <Time>2019-10-07T11:12:40.000Z</Time>
            <Position>
              <LatitudeDegrees>40.5058238469064235687255859375</LatitudeDegrees>
              <LongitudeDegrees>-5.67610672675073146820068359375</LongitudeDegrees>
            </Position>
            <AltitudeMeters>960.20001220703125</AltitudeMeters>
            <DistanceMeters>NAN</DistanceMeters>
          </Trackpoint>
          <Trackpoint>
            <Time>2019-10-07T11:12:46.000Z</Time>
            <Position>
              <LatitudeDegrees>40.50564707256853580474853515625</LatitudeDegrees>
              <LongitudeDegrees>-5.676157437264919281005859375</LongitudeDegrees>
            </Position>
            <AltitudeMeters>961.20001220703125</AltitudeMeters>
            <DistanceMeters>NAN</DistanceMeters>
          </Trackpoint>
          <Trackpoint>
            <Time>2019-10-07T11:12:49.000Z</Time>
            <Position>
              <LatitudeDegrees>40.505557470023632049560546875</LatitudeDegrees>
              <LongitudeDegrees>-5.67618803121149539947509765625</LongitudeDegrees>
            </Position>
            <AltitudeMeters>961.5999755859375</AltitudeMeters>
            <DistanceMeters>NAN</DistanceMeters>
          </Trackpoint>
          <Trackpoint>
            <Time>2019-10-07T11:12:53.000Z</Time>
            <Position>
              <LatitudeDegrees>40.5054412968456745147705078125</LatitudeDegrees>
              <LongitudeDegrees>-5.6762288510799407958984375</LongitudeDegrees>
            </Position>
            <AltitudeMeters>962.4000244140625</AltitudeMeters>
            <DistanceMeters>NAN</DistanceMeters>
          </Trackpoint>
          <Trackpoint>
            <Time>2019-10-07T11:12:58.000Z</Time>
            <Position>
              <LatitudeDegrees>40.5053001455962657928466796875</LatitudeDegrees>
              <LongitudeDegrees>-5.67628827877342700958251953125</LongitudeDegrees>
            </Position>
            <AltitudeMeters>963.20001220703125</AltitudeMeters>
            <DistanceMeters>NAN</DistanceMeters>
          </Trackpoint>
          <Trackpoint>
            <Time>2019-10-07T11:12:59.000Z</Time>
            <Position>
              <LatitudeDegrees>40.5052719824016094207763671875</LatitudeDegrees>
              <LongitudeDegrees>-5.67630194127559661865234375</LongitudeDegrees>
            </Position>
            <AltitudeMeters>963.4000244140625</AltitudeMeters>
            <DistanceMeters>NAN</DistanceMeters>
          </Trackpoint>
          <Trackpoint>
            <Time>2019-10-07T11:13:03.000Z</Time>
            <Position>
              <LatitudeDegrees>40.505160503089427947998046875</LatitudeDegrees>
              <LongitudeDegrees>-5.676363296806812286376953125</LongitudeDegrees>
            </Position>
            <AltitudeMeters>964.5999755859375</AltitudeMeters>
            <DistanceMeters>NAN</DistanceMeters>
          </Trackpoint>
          <Trackpoint>
            <Time>2019-10-07T11:13:07.000Z</Time>
            <Position>
              <LatitudeDegrees>40.5050523765385150909423828125</LatitudeDegrees>
              <LongitudeDegrees>-5.6764315254986286163330078125</LongitudeDegrees>
            </Position>
            <AltitudeMeters>965</AltitudeMeters>
            <DistanceMeters>NAN</DistanceMeters>
          </Trackpoint>
          <Trackpoint>
            <Time>2019-10-07T11:13:13.000Z</Time>
            <Position>
              <LatitudeDegrees>40.50488767214119434356689453125</LatitudeDegrees>
              <LongitudeDegrees>-5.6765368022024631500244140625</LongitudeDegrees>
            </Position>
            <AltitudeMeters>966</AltitudeMeters>
            <DistanceMeters>NAN</DistanceMeters>
          </Trackpoint>
          <Trackpoint>
            <Time>2019-10-07T11:13:16.000Z</Time>
            <Position>
              <LatitudeDegrees>40.50480343401432037353515625</LatitudeDegrees>
              <LongitudeDegrees>-5.676589272916316986083984375</LongitudeDegrees>
            </Position>
            <AltitudeMeters>966.20001220703125</AltitudeMeters>
            <DistanceMeters>NAN</DistanceMeters>
          </Trackpoint>
          <Trackpoint>
            <Time>2019-10-07T11:13:26.000Z</Time>
            <Position>
              <LatitudeDegrees>40.5045075528323650360107421875</LatitudeDegrees>
              <LongitudeDegrees>-5.6767349503934383392333984375</LongitudeDegrees>
            </Position>
            <AltitudeMeters>967.20001220703125</AltitudeMeters>
            <DistanceMeters>NAN</DistanceMeters>
          </Trackpoint>
          <Trackpoint>
            <Time>2019-10-07T11:13:27.000Z</Time>
            <Position>
              <LatitudeDegrees>40.50447645597159862518310546875</LatitudeDegrees>
              <LongitudeDegrees>-5.67674626596271991729736328125</LongitudeDegrees>
            </Position>
            <AltitudeMeters>967.20001220703125</AltitudeMeters>
            <DistanceMeters>NAN</DistanceMeters>
          </Trackpoint>
          <Trackpoint>
            <Time>2019-10-07T11:13:35.000Z</Time>
            <Position>
              <LatitudeDegrees>40.5041980929672718048095703125</LatitudeDegrees>
              <LongitudeDegrees>-5.67679052241146564483642578125</LongitudeDegrees>
            </Position>
            <AltitudeMeters>967.20001220703125</AltitudeMeters>
            <DistanceMeters>NAN</DistanceMeters>
          </Trackpoint>
          <Trackpoint>
            <Time>2019-10-07T11:13:41.000Z</Time>
            <Position>
              <LatitudeDegrees>40.5039556883275508880615234375</LatitudeDegrees>
              <LongitudeDegrees>-5.67675515078008174896240234375</LongitudeDegrees>
            </Position>
            <AltitudeMeters>967.20001220703125</AltitudeMeters>
            <DistanceMeters>NAN</DistanceMeters>
          </Trackpoint>
          <Trackpoint>
            <Time>2019-10-07T11:13:49.000Z</Time>
            <Position>
              <LatitudeDegrees>40.5035862140357494354248046875</LatitudeDegrees>
              <LongitudeDegrees>-5.6766199506819248199462890625</LongitudeDegrees>
            </Position>
            <AltitudeMeters>966.4000244140625</AltitudeMeters>
            <DistanceMeters>NAN</DistanceMeters>
          </Trackpoint>
          <Trackpoint>
            <Time>2019-10-07T11:13:50.000Z</Time>
            <Position>
              <LatitudeDegrees>40.503537766635417938232421875</LatitudeDegrees>
              <LongitudeDegrees>-5.6765978224575519561767578125</LongitudeDegrees>
            </Position>
            <AltitudeMeters>966.4000244140625</AltitudeMeters>
            <DistanceMeters>NAN</DistanceMeters>
          </Trackpoint>
          <Trackpoint>
            <Time>2019-10-07T11:13:52.000Z</Time>
            <Position>
              <LatitudeDegrees>40.50343743525445461273193359375</LatitudeDegrees>
              <LongitudeDegrees>-5.676557086408138275146484375</LongitudeDegrees>
            </Position>
            <AltitudeMeters>966.20001220703125</AltitudeMeters>
            <DistanceMeters>NAN</DistanceMeters>
          </Trackpoint>
          <Trackpoint>
            <Time>2019-10-07T11:13:56.000Z</Time>
            <Position>
              <LatitudeDegrees>40.50322554074227809906005859375</LatitudeDegrees>
              <LongitudeDegrees>-5.67649983800947666168212890625</LongitudeDegrees>
            </Position>
            <AltitudeMeters>966</AltitudeMeters>
            <DistanceMeters>NAN</DistanceMeters>
          </Trackpoint>
          <Trackpoint>
            <Time>2019-10-07T11:13:57.000Z</Time>
            <Position>
              <LatitudeDegrees>40.50317189656198024749755859375</LatitudeDegrees>
              <LongitudeDegrees>-5.6764881871640682220458984375</LongitudeDegrees>
            </Position>
            <AltitudeMeters>965.79998779296875</AltitudeMeters>
            <DistanceMeters>NAN</DistanceMeters>
          </Trackpoint>
          <Trackpoint>
            <Time>2019-10-07T11:14:01.000Z</Time>
            <Position>
              <LatitudeDegrees>40.502958409488201141357421875</LatitudeDegrees>
              <LongitudeDegrees>-5.6764647178351879119873046875</LongitudeDegrees>
            </Position>
            <AltitudeMeters>965.5999755859375</AltitudeMeters>
            <DistanceMeters>NAN</DistanceMeters>
          </Trackpoint>
          <Trackpoint>
            <Time>2019-10-07T11:14:02.000Z</Time>
            <Position>
              <LatitudeDegrees>40.50290401093661785125732421875</LatitudeDegrees>
              <LongitudeDegrees>-5.67646195180714130401611328125</LongitudeDegrees>
            </Position>
            <AltitudeMeters>965.20001220703125</AltitudeMeters>
            <DistanceMeters>NAN</DistanceMeters>
          </Trackpoint>
          <Trackpoint>
            <Time>2019-10-07T11:14:04.000Z</Time>
            <Position>
              <LatitudeDegrees>40.502799488604068756103515625</LatitudeDegrees>
              <LongitudeDegrees>-5.67646144889295101165771484375</LongitudeDegrees>
            </Position>
            <AltitudeMeters>965</AltitudeMeters>
            <DistanceMeters>NAN</DistanceMeters>
          </Trackpoint>
          <Trackpoint>
            <Time>2019-10-07T11:14:05.000Z</Time>
            <Position>
              <LatitudeDegrees>40.50274861045181751251220703125</LatitudeDegrees>
              <LongitudeDegrees>-5.67646128125488758087158203125</LongitudeDegrees>
            </Position>
            <AltitudeMeters>965.4000244140625</AltitudeMeters>
            <DistanceMeters>NAN</DistanceMeters>
          </Trackpoint>
          <Trackpoint>
            <Time>2019-10-07T11:14:07.000Z</Time>
            <Position>
              <LatitudeDegrees>40.502644591033458709716796875</LatitudeDegrees>
              <LongitudeDegrees>-5.6764637120068073272705078125</LongitudeDegrees>
            </Position>
            <AltitudeMeters>965.4000244140625</AltitudeMeters>
            <DistanceMeters>NAN</DistanceMeters>
          </Trackpoint>
          <Trackpoint>
            <Time>2019-10-07T11:14:11.000Z</Time>
            <Position>
              <LatitudeDegrees>40.502438731491565704345703125</LatitudeDegrees>
              <LongitudeDegrees>-5.67646664567291736602783203125</LongitudeDegrees>
            </Position>
            <AltitudeMeters>965.79998779296875</AltitudeMeters>
            <DistanceMeters>NAN</DistanceMeters>
          </Trackpoint>
          <Trackpoint>
            <Time>2019-10-07T11:14:14.000Z</Time>
            <Position>
              <LatitudeDegrees>40.50228307954967021942138671875</LatitudeDegrees>
              <LongitudeDegrees>-5.67646429874002933502197265625</LongitudeDegrees>
            </Position>
            <AltitudeMeters>965.79998779296875</AltitudeMeters>
            <DistanceMeters>NAN</DistanceMeters>
          </Trackpoint>
          <Trackpoint>
            <Time>2019-10-07T11:14:21.000Z</Time>
            <Position>
              <LatitudeDegrees>40.501927770674228668212890625</LatitudeDegrees>
              <LongitudeDegrees>-5.67645541392266750335693359375</LongitudeDegrees>
            </Position>
            <AltitudeMeters>966.20001220703125</AltitudeMeters>
            <DistanceMeters>NAN</DistanceMeters>
          </Trackpoint>
          <Trackpoint>
            <Time>2019-10-07T11:14:25.000Z</Time>
            <Position>
              <LatitudeDegrees>40.5017344839870929718017578125</LatitudeDegrees>
              <LongitudeDegrees>-5.67644703201949596405029296875</LongitudeDegrees>
            </Position>
            <AltitudeMeters>966.5999755859375</AltitudeMeters>
            <DistanceMeters>NAN</DistanceMeters>
          </Trackpoint>
          <Trackpoint>
            <Time>2019-10-07T11:14:32.000Z</Time>
            <Position>
              <LatitudeDegrees>40.50140515901148319244384765625</LatitudeDegrees>
              <LongitudeDegrees>-5.6764254905283451080322265625</LongitudeDegrees>
            </Position>
            <AltitudeMeters>967.20001220703125</AltitudeMeters>
            <DistanceMeters>NAN</DistanceMeters>
          </Trackpoint>
          <Trackpoint>
            <Time>2019-10-07T11:14:37.000Z</Time>
            <Position>
              <LatitudeDegrees>40.501179434359073638916015625</LatitudeDegrees>
              <LongitudeDegrees>-5.67641191184520721435546875</LongitudeDegrees>
            </Position>
            <AltitudeMeters>967.79998779296875</AltitudeMeters>
            <DistanceMeters>NAN</DistanceMeters>
          </Trackpoint>
          <Trackpoint>
            <Time>2019-10-07T11:14:40.000Z</Time>
            <Position>
              <LatitudeDegrees>40.50104825757443904876708984375</LatitudeDegrees>
              <LongitudeDegrees>-5.67640445195138454437255859375</LongitudeDegrees>
            </Position>
            <AltitudeMeters>968.20001220703125</AltitudeMeters>
            <DistanceMeters>NAN</DistanceMeters>
          </Trackpoint>
          <Trackpoint>
            <Time>2019-10-07T11:14:41.000Z</Time>
            <Position>
              <LatitudeDegrees>40.50100550986826419830322265625</LatitudeDegrees>
              <LongitudeDegrees>-5.676402859389781951904296875</LongitudeDegrees>
            </Position>
            <AltitudeMeters>968.5999755859375</AltitudeMeters>
            <DistanceMeters>NAN</DistanceMeters>
          </Trackpoint>
          <Trackpoint>
            <Time>2019-10-07T11:14:45.000Z</Time>
            <Position>
              <LatitudeDegrees>40.50083854235708713531494140625</LatitudeDegrees>
              <LongitudeDegrees>-5.67638433538377285003662109375</LongitudeDegrees>
            </Position>
            <AltitudeMeters>969.20001220703125</AltitudeMeters>
            <DistanceMeters>NAN</DistanceMeters>
          </Trackpoint>
          <Trackpoint>
            <Time>2019-10-07T11:14:46.000Z</Time>
            <Position>
              <LatitudeDegrees>40.5007983930408954620361328125</LatitudeDegrees>
              <LongitudeDegrees>-5.6763822399079799652099609375</LongitudeDegrees>
            </Position>
            <AltitudeMeters>969.5999755859375</AltitudeMeters>
            <DistanceMeters>NAN</DistanceMeters>
          </Trackpoint>
          <Trackpoint>
            <Time>2019-10-07T11:14:51.000Z</Time>
            <Position>
              <LatitudeDegrees>40.5005903542041778564453125</LatitudeDegrees>
              <LongitudeDegrees>-5.676375366747379302978515625</LongitudeDegrees>
            </Position>
            <AltitudeMeters>970.20001220703125</AltitudeMeters>
            <DistanceMeters>NAN</DistanceMeters>
          </Trackpoint>
          <Trackpoint>
            <Time>2019-10-07T11:14:55.000Z</Time>
            <Position>
              <LatitudeDegrees>40.50042606890201568603515625</LatitudeDegrees>
              <LongitudeDegrees>-5.67637679167091846466064453125</LongitudeDegrees>
            </Position>
            <AltitudeMeters>970.5999755859375</AltitudeMeters>
            <DistanceMeters>NAN</DistanceMeters>
          </Trackpoint>
          <Trackpoint>
            <Time>2019-10-07T11:14:56.000Z</Time>
            <Position>
              <LatitudeDegrees>40.50038441084325313568115234375</LatitudeDegrees>
              <LongitudeDegrees>-5.67637972533702850341796875</LongitudeDegrees>
            </Position>
            <AltitudeMeters>971</AltitudeMeters>
            <DistanceMeters>NAN</DistanceMeters>
          </Trackpoint>
          <Trackpoint>
            <Time>2019-10-07T11:15:03.000Z</Time>
            <Position>
              <LatitudeDegrees>40.5001083947718143463134765625</LatitudeDegrees>
              <LongitudeDegrees>-5.676445104181766510009765625</LongitudeDegrees>
            </Position>
            <AltitudeMeters>972.20001220703125</AltitudeMeters>
            <DistanceMeters>NAN</DistanceMeters>
          </Trackpoint>
          <Trackpoint>
            <Time>2019-10-07T11:15:04.000Z</Time>
            <Position>
              <LatitudeDegrees>40.50007495097815990447998046875</LatitudeDegrees>
              <LongitudeDegrees>-5.676453821361064910888671875</LongitudeDegrees>
            </Position>
            <AltitudeMeters>972.5999755859375</AltitudeMeters>
            <DistanceMeters>NAN</DistanceMeters>
          </Trackpoint>
          <Trackpoint>
            <Time>2019-10-07T11:15:08.000Z</Time>
            <Position>
              <LatitudeDegrees>40.49993698485195636749267578125</LatitudeDegrees>
              <LongitudeDegrees>-5.67650520242750644683837890625</LongitudeDegrees>
            </Position>
            <AltitudeMeters>973.20001220703125</AltitudeMeters>
            <DistanceMeters>NAN</DistanceMeters>
          </Trackpoint>
          <Trackpoint>
            <Time>2019-10-07T11:15:11.000Z</Time>
            <Position>
              <LatitudeDegrees>40.49984143115580081939697265625</LatitudeDegrees>
              <LongitudeDegrees>-5.676560439169406890869140625</LongitudeDegrees>
            </Position>
            <AltitudeMeters>974</AltitudeMeters>
            <DistanceMeters>NAN</DistanceMeters>
          </Trackpoint>
          <Trackpoint>
            <Time>2019-10-07T11:15:12.000Z</Time>
            <Position>
              <LatitudeDegrees>40.49981108866631984710693359375</LatitudeDegrees>
              <LongitudeDegrees>-5.6765803880989551544189453125</LongitudeDegrees>
            </Position>
            <AltitudeMeters>974.20001220703125</AltitudeMeters>
            <DistanceMeters>NAN</DistanceMeters>
          </Trackpoint>
          <Trackpoint>
            <Time>2019-10-07T11:15:16.000Z</Time>
            <Position>
              <LatitudeDegrees>40.4996973462402820587158203125</LatitudeDegrees>
              <LongitudeDegrees>-5.676671750843524932861328125</LongitudeDegrees>
            </Position>
            <AltitudeMeters>975</AltitudeMeters>
            <DistanceMeters>NAN</DistanceMeters>
          </Trackpoint>
          <Trackpoint>
            <Time>2019-10-07T11:15:17.000Z</Time>
            <Position>
              <LatitudeDegrees>40.49967010505497455596923828125</LatitudeDegrees>
              <LongitudeDegrees>-5.6766947172582149505615234375</LongitudeDegrees>
            </Position>
            <AltitudeMeters>975.5999755859375</AltitudeMeters>
            <DistanceMeters>NAN</DistanceMeters>
          </Trackpoint>
          <Trackpoint>
            <Time>2019-10-07T11:15:20.000Z</Time>
            <Position>
              <LatitudeDegrees>40.49959123134613037109375</LatitudeDegrees>
              <LongitudeDegrees>-5.67676504142582416534423828125</LongitudeDegrees>
            </Position>
            <AltitudeMeters>976</AltitudeMeters>
            <DistanceMeters>NAN</DistanceMeters>
          </Trackpoint>
          <Trackpoint>
            <Time>2019-10-07T11:15:22.000Z</Time>
            <Position>
              <LatitudeDegrees>40.4995360784232616424560546875</LatitudeDegrees>
              <LongitudeDegrees>-5.67681080661714076995849609375</LongitudeDegrees>
            </Position>
            <AltitudeMeters>977</AltitudeMeters>
            <DistanceMeters>NAN</DistanceMeters>
          </Trackpoint>
          <Trackpoint>
            <Time>2019-10-07T11:15:28.000Z</Time>
            <Position>
              <LatitudeDegrees>40.49938134849071502685546875</LatitudeDegrees>
              <LongitudeDegrees>-5.6769626028835773468017578125</LongitudeDegrees>
            </Position>
            <AltitudeMeters>978.4000244140625</AltitudeMeters>
            <DistanceMeters>NAN</DistanceMeters>
          </Trackpoint>
          <Trackpoint>
            <Time>2019-10-07T11:15:29.000Z</Time>
            <Position>
              <LatitudeDegrees>40.49935695715248584747314453125</LatitudeDegrees>
              <LongitudeDegrees>-5.67698967643082141876220703125</LongitudeDegrees>
            </Position>
            <AltitudeMeters>978.5999755859375</AltitudeMeters>
            <DistanceMeters>NAN</DistanceMeters>
          </Trackpoint>
          <Trackpoint>
            <Time>2019-10-07T11:15:33.000Z</Time>
            <Position>
              <LatitudeDegrees>40.49925930798053741455078125</LatitudeDegrees>
              <LongitudeDegrees>-5.67709377966821193695068359375</LongitudeDegrees>
            </Position>
            <AltitudeMeters>979.4000244140625</AltitudeMeters>
            <DistanceMeters>NAN</DistanceMeters>
          </Trackpoint>
          <Trackpoint>
            <Time>2019-10-07T11:15:36.000Z</Time>
            <Position>
              <LatitudeDegrees>40.49918093718588352203369140625</LatitudeDegrees>
              <LongitudeDegrees>-5.67716469056904315948486328125</LongitudeDegrees>
            </Position>
            <AltitudeMeters>980</AltitudeMeters>
            <DistanceMeters>NAN</DistanceMeters>
          </Trackpoint>
          <Trackpoint>
            <Time>2019-10-07T11:15:39.000Z</Time>
            <Position>
              <LatitudeDegrees>40.499107427895069122314453125</LatitudeDegrees>
              <LongitudeDegrees>-5.67723560146987438201904296875</LongitudeDegrees>
            </Position>
            <AltitudeMeters>980.4000244140625</AltitudeMeters>
            <DistanceMeters>NAN</DistanceMeters>
          </Trackpoint>
          <Trackpoint>
            <Time>2019-10-07T11:15:44.000Z</Time>
            <Position>
              <LatitudeDegrees>40.4989677853882312774658203125</LatitudeDegrees>
              <LongitudeDegrees>-5.67735160700976848602294921875</LongitudeDegrees>
            </Position>
            <AltitudeMeters>981.4000244140625</AltitudeMeters>
            <DistanceMeters>NAN</DistanceMeters>
          </Trackpoint>
          <Trackpoint>
            <Time>2019-10-07T11:15:51.000Z</Time>
            <Position>
              <LatitudeDegrees>40.4987919330596923828125</LatitudeDegrees>
              <LongitudeDegrees>-5.6775523535907268524169921875</LongitudeDegrees>
            </Position>
            <AltitudeMeters>981.79998779296875</AltitudeMeters>
            <DistanceMeters>NAN</DistanceMeters>
          </Trackpoint>
          <Trackpoint>
            <Time>2019-10-07T11:15:52.000Z</Time>
            <Position>
              <LatitudeDegrees>40.498773157596588134765625</LatitudeDegrees>
              <LongitudeDegrees>-5.67759468220174312591552734375</LongitudeDegrees>
            </Position>
            <AltitudeMeters>982</AltitudeMeters>
            <DistanceMeters>NAN</DistanceMeters>
          </Trackpoint>
          <Trackpoint>
            <Time>2019-10-07T11:15:54.000Z</Time>
            <Position>
              <LatitudeDegrees>40.4987109638750553131103515625</LatitudeDegrees>
              <LongitudeDegrees>-5.6776814348995685577392578125</LongitudeDegrees>
            </Position>
            <AltitudeMeters>981.79998779296875</AltitudeMeters>
            <DistanceMeters>NAN</DistanceMeters>
          </Trackpoint>
          <Trackpoint>
            <Time>2019-10-07T11:15:56.000Z</Time>
            <Position>
              <LatitudeDegrees>40.498641394078731536865234375</LatitudeDegrees>
              <LongitudeDegrees>-5.677713789045810699462890625</LongitudeDegrees>
            </Position>
            <AltitudeMeters>981.5999755859375</AltitudeMeters>
            <DistanceMeters>NAN</DistanceMeters>
          </Trackpoint>
          <Trackpoint>
            <Time>2019-10-07T11:16:00.000Z</Time>
            <Position>
              <LatitudeDegrees>40.4984665475785732269287109375</LatitudeDegrees>
              <LongitudeDegrees>-5.6776988692581653594970703125</LongitudeDegrees>
            </Position>
            <AltitudeMeters>981.79998779296875</AltitudeMeters>
            <DistanceMeters>NAN</DistanceMeters>
          </Trackpoint>
          <Trackpoint>
            <Time>2019-10-07T11:16:02.000Z</Time>
            <Position>
              <LatitudeDegrees>40.4983823932707309722900390625</LatitudeDegrees>
              <LongitudeDegrees>-5.6776586361229419708251953125</LongitudeDegrees>
            </Position>
            <AltitudeMeters>982</AltitudeMeters>
            <DistanceMeters>NAN</DistanceMeters>
          </Trackpoint>
          <Trackpoint>
            <Time>2019-10-07T11:16:06.000Z</Time>
            <Position>
              <LatitudeDegrees>40.4982067085802555084228515625</LatitudeDegrees>
              <LongitudeDegrees>-5.67759987898170948028564453125</LongitudeDegrees>
            </Position>
            <AltitudeMeters>981.79998779296875</AltitudeMeters>
            <DistanceMeters>NAN</DistanceMeters>
          </Trackpoint>
          <Trackpoint>
            <Time>2019-10-07T11:16:11.000Z</Time>
            <Position>
              <LatitudeDegrees>40.497991628944873809814453125</LatitudeDegrees>
              <LongitudeDegrees>-5.67749820649623870849609375</LongitudeDegrees>
            </Position>
            <AltitudeMeters>982</AltitudeMeters>
            <DistanceMeters>NAN</DistanceMeters>
          </Trackpoint>
          <Trackpoint>
            <Time>2019-10-07T11:16:13.000Z</Time>
            <Position>
              <LatitudeDegrees>40.49791283905506134033203125</LatitudeDegrees>
              <LongitudeDegrees>-5.67743475548923015594482421875</LongitudeDegrees>
            </Position>
            <AltitudeMeters>982.4000244140625</AltitudeMeters>
            <DistanceMeters>NAN</DistanceMeters>
          </Trackpoint>
          <Trackpoint>
            <Time>2019-10-07T11:16:14.000Z</Time>
            <Position>
              <LatitudeDegrees>40.49787671305239200592041015625</LatitudeDegrees>
              <LongitudeDegrees>-5.67739762365818023681640625</LongitudeDegrees>
            </Position>
            <AltitudeMeters>983.4000244140625</AltitudeMeters>
            <DistanceMeters>NAN</DistanceMeters>
          </Trackpoint>
          <Trackpoint>
            <Time>2019-10-07T11:16:15.000Z</Time>
            <Position>
              <LatitudeDegrees>40.4978422634303569793701171875</LatitudeDegrees>
              <LongitudeDegrees>-5.67735814489424228668212890625</LongitudeDegrees>
            </Position>
            <AltitudeMeters>983</AltitudeMeters>
            <DistanceMeters>NAN</DistanceMeters>
          </Trackpoint>
          <Trackpoint>
            <Time>2019-10-07T11:16:18.000Z</Time>
            <Position>
              <LatitudeDegrees>40.4977420158684253692626953125</LatitudeDegrees>
              <LongitudeDegrees>-5.67724532447755336761474609375</LongitudeDegrees>
            </Position>
            <AltitudeMeters>983.4000244140625</AltitudeMeters>
            <DistanceMeters>NAN</DistanceMeters>
          </Trackpoint>
          <Trackpoint>
            <Time>2019-10-07T11:16:20.000Z</Time>
            <Position>
              <LatitudeDegrees>40.49768325872719287872314453125</LatitudeDegrees>
              <LongitudeDegrees>-5.67717391066253185272216796875</LongitudeDegrees>
            </Position>
            <AltitudeMeters>983.5999755859375</AltitudeMeters>
            <DistanceMeters>NAN</DistanceMeters>
          </Trackpoint>
          <Trackpoint>
            <Time>2019-10-07T11:16:25.000Z</Time>
            <Position>
              <LatitudeDegrees>40.49756348133087158203125</LatitudeDegrees>
              <LongitudeDegrees>-5.6770115531980991363525390625</LongitudeDegrees>
            </Position>
            <AltitudeMeters>984.79998779296875</AltitudeMeters>
            <DistanceMeters>NAN</DistanceMeters>
          </Trackpoint>
          <Trackpoint>
            <Time>2019-10-07T11:16:28.000Z</Time>
            <Position>
              <LatitudeDegrees>40.49750036559998989105224609375</LatitudeDegrees>
              <LongitudeDegrees>-5.67692019045352935791015625</LongitudeDegrees>
            </Position>
            <AltitudeMeters>985.4000244140625</AltitudeMeters>
            <DistanceMeters>NAN</DistanceMeters>
          </Trackpoint>
          <Trackpoint>
            <Time>2019-10-07T11:16:31.000Z</Time>
            <Position>
              <LatitudeDegrees>40.49743473529815673828125</LatitudeDegrees>
              <LongitudeDegrees>-5.67683662287890911102294921875</LongitudeDegrees>
            </Position>
            <AltitudeMeters>985.79998779296875</AltitudeMeters>
            <DistanceMeters>NAN</DistanceMeters>
          </Trackpoint>
          <Trackpoint>
            <Time>2019-10-07T11:16:37.000Z</Time>
            <Position>
              <LatitudeDegrees>40.49729534424841403961181640625</LatitudeDegrees>
              <LongitudeDegrees>-5.67667686380445957183837890625</LongitudeDegrees>
            </Position>
            <AltitudeMeters>987</AltitudeMeters>
            <DistanceMeters>NAN</DistanceMeters>
          </Trackpoint>
          <Trackpoint>
            <Time>2019-10-07T11:16:42.000Z</Time>
            <Position>
              <LatitudeDegrees>40.49717523157596588134765625</LatitudeDegrees>
              <LongitudeDegrees>-5.67656085826456546783447265625</LongitudeDegrees>
            </Position>
            <AltitudeMeters>988</AltitudeMeters>
            <DistanceMeters>NAN</DistanceMeters>
          </Trackpoint>
          <Trackpoint>
            <Time>2019-10-07T11:16:47.000Z</Time>
            <Position>
              <LatitudeDegrees>40.4970471560955047607421875</LatitudeDegrees>
              <LongitudeDegrees>-5.67646714858710765838623046875</LongitudeDegrees>
            </Position>
            <AltitudeMeters>989.20001220703125</AltitudeMeters>
            <DistanceMeters>NAN</DistanceMeters>
          </Trackpoint>
          <Trackpoint>
            <Time>2019-10-07T11:16:52.000Z</Time>
            <Position>
              <LatitudeDegrees>40.4969076812267303466796875</LatitudeDegrees>
              <LongitudeDegrees>-5.676395483314990997314453125</LongitudeDegrees>
            </Position>
            <AltitudeMeters>990.20001220703125</AltitudeMeters>
            <DistanceMeters>NAN</DistanceMeters>
          </Trackpoint>
          <Trackpoint>
            <Time>2019-10-07T11:16:54.000Z</Time>
            <Position>
              <LatitudeDegrees>40.49684657715260982513427734375</LatitudeDegrees>
              <LongitudeDegrees>-5.67637545056641101837158203125</LongitudeDegrees>
            </Position>
            <AltitudeMeters>990.5999755859375</AltitudeMeters>
            <DistanceMeters>NAN</DistanceMeters>
          </Trackpoint>
          <Trackpoint>
            <Time>2019-10-07T11:16:58.000Z</Time>
            <Position>
              <LatitudeDegrees>40.496730320155620574951171875</LatitudeDegrees>
              <LongitudeDegrees>-5.6763500533998012542724609375</LongitudeDegrees>
            </Position>
            <AltitudeMeters>991.20001220703125</AltitudeMeters>
            <DistanceMeters>NAN</DistanceMeters>
          </Trackpoint>
          <Trackpoint>
            <Time>2019-10-07T11:17:01.000Z</Time>
            <Position>
              <LatitudeDegrees>40.496643483638763427734375</LatitudeDegrees>
              <LongitudeDegrees>-5.6763346306979656219482421875</LongitudeDegrees>
            </Position>
            <AltitudeMeters>991.79998779296875</AltitudeMeters>
            <DistanceMeters>NAN</DistanceMeters>
          </Trackpoint>
          <Trackpoint>
            <Time>2019-10-07T11:17:03.000Z</Time>
            <Position>
              <LatitudeDegrees>40.49658908508718013763427734375</LatitudeDegrees>
              <LongitudeDegrees>-5.67632608115673065185546875</LongitudeDegrees>
            </Position>
            <AltitudeMeters>992.20001220703125</AltitudeMeters>
            <DistanceMeters>NAN</DistanceMeters>
          </Trackpoint>
          <Trackpoint>
            <Time>2019-10-07T11:17:10.000Z</Time>
            <Position>
              <LatitudeDegrees>40.49639663659036159515380859375</LatitudeDegrees>
              <LongitudeDegrees>-5.6763104908168315887451171875</LongitudeDegrees>
            </Position>
            <AltitudeMeters>993.4000244140625</AltitudeMeters>
            <DistanceMeters>NAN</DistanceMeters>
          </Trackpoint>
          <Trackpoint>
            <Time>2019-10-07T11:17:11.000Z</Time>
            <Position>
              <LatitudeDegrees>40.4963657073676586151123046875</LatitudeDegrees>
              <LongitudeDegrees>-5.67630873061716556549072265625</LongitudeDegrees>
            </Position>
            <AltitudeMeters>993.5999755859375</AltitudeMeters>
            <DistanceMeters>NAN</DistanceMeters>
          </Trackpoint>
          <Trackpoint>
            <Time>2019-10-07T11:17:15.000Z</Time>
            <Position>
              <LatitudeDegrees>40.496249534189701080322265625</LatitudeDegrees>
              <LongitudeDegrees>-5.67630537785589694976806640625</LongitudeDegrees>
            </Position>
            <AltitudeMeters>994.5999755859375</AltitudeMeters>
            <DistanceMeters>NAN</DistanceMeters>
          </Trackpoint>
          <Trackpoint>
            <Time>2019-10-07T11:17:20.000Z</Time>
            <Position>
              <LatitudeDegrees>40.49609907902777194976806640625</LatitudeDegrees>
              <LongitudeDegrees>-5.676296912133693695068359375</LongitudeDegrees>
            </Position>
            <AltitudeMeters>995</AltitudeMeters>
            <DistanceMeters>NAN</DistanceMeters>
          </Trackpoint>
          <Trackpoint>
            <Time>2019-10-07T11:17:26.000Z</Time>
            <Position>
              <LatitudeDegrees>40.4959067143499851226806640625</LatitudeDegrees>
              <LongitudeDegrees>-5.67628945223987102508544921875</LongitudeDegrees>
            </Position>
            <AltitudeMeters>995.79998779296875</AltitudeMeters>
            <DistanceMeters>NAN</DistanceMeters>
          </Trackpoint>
          <Trackpoint>
            <Time>2019-10-07T11:17:31.000Z</Time>
            <Position>
              <LatitudeDegrees>40.495730526745319366455078125</LatitudeDegrees>
              <LongitudeDegrees>-5.6762843392789363861083984375</LongitudeDegrees>
            </Position>
            <AltitudeMeters>996</AltitudeMeters>
            <DistanceMeters>NAN</DistanceMeters>
          </Trackpoint>
          <Trackpoint>
            <Time>2019-10-07T11:17:40.000Z</Time>
            <Position>
              <LatitudeDegrees>40.495364405214786529541015625</LatitudeDegrees>
              <LongitudeDegrees>-5.67628920078277587890625</LongitudeDegrees>
            </Position>
            <AltitudeMeters>996</AltitudeMeters>
            <DistanceMeters>NAN</DistanceMeters>
          </Trackpoint>
          <Trackpoint>
            <Time>2019-10-07T11:17:47.000Z</Time>
            <Position>
              <LatitudeDegrees>40.49506089650094509124755859375</LatitudeDegrees>
              <LongitudeDegrees>-5.67628291435539722442626953125</LongitudeDegrees>
            </Position>
            <AltitudeMeters>995.5999755859375</AltitudeMeters>
            <DistanceMeters>NAN</DistanceMeters>
          </Trackpoint>
          <Trackpoint>
            <Time>2019-10-07T11:17:50.000Z</Time>
            <Position>
              <LatitudeDegrees>40.49493734724819660186767578125</LatitudeDegrees>
              <LongitudeDegrees>-5.67627972923219203948974609375</LongitudeDegrees>
            </Position>
            <AltitudeMeters>995.5999755859375</AltitudeMeters>
            <DistanceMeters>NAN</DistanceMeters>
          </Trackpoint>
          <Trackpoint>
            <Time>2019-10-07T11:17:56.000Z</Time>
            <Position>
              <LatitudeDegrees>40.4946702159941196441650390625</LatitudeDegrees>
              <LongitudeDegrees>-5.67629263736307621002197265625</LongitudeDegrees>
            </Position>
            <AltitudeMeters>995</AltitudeMeters>
            <DistanceMeters>NAN</DistanceMeters>
          </Trackpoint>
          <Trackpoint>
            <Time>2019-10-07T11:18:00.000Z</Time>
            <Position>
              <LatitudeDegrees>40.49448086880147457122802734375</LatitudeDegrees>
              <LongitudeDegrees>-5.67630194127559661865234375</LongitudeDegrees>
            </Position>
            <AltitudeMeters>995.20001220703125</AltitudeMeters>
            <DistanceMeters>NAN</DistanceMeters>
          </Trackpoint>
          <Trackpoint>
            <Time>2019-10-07T11:18:04.000Z</Time>
            <Position>
              <LatitudeDegrees>40.494286157190799713134765625</LatitudeDegrees>
              <LongitudeDegrees>-5.67631401121616363525390625</LongitudeDegrees>
            </Position>
            <AltitudeMeters>995.20001220703125</AltitudeMeters>
            <DistanceMeters>NAN</DistanceMeters>
          </Trackpoint>
          <Trackpoint>
            <Time>2019-10-07T11:18:08.000Z</Time>
            <Position>
              <LatitudeDegrees>40.494091697037220001220703125</LatitudeDegrees>
              <LongitudeDegrees>-5.67631962709128856658935546875</LongitudeDegrees>
            </Position>
            <AltitudeMeters>995.4000244140625</AltitudeMeters>
            <DistanceMeters>NAN</DistanceMeters>
          </Trackpoint>
          <Trackpoint>
            <Time>2019-10-07T11:18:12.000Z</Time>
            <Position>
              <LatitudeDegrees>40.4939031042158603668212890625</LatitudeDegrees>
              <LongitudeDegrees>-5.6763307750225067138671875</LongitudeDegrees>
            </Position>
            <AltitudeMeters>995.5999755859375</AltitudeMeters>
            <DistanceMeters>NAN</DistanceMeters>
          </Trackpoint>
          <Trackpoint>
            <Time>2019-10-07T11:18:15.000Z</Time>
            <Position>
              <LatitudeDegrees>40.49375667236745357513427734375</LatitudeDegrees>
              <LongitudeDegrees>-5.6763403303921222686767578125</LongitudeDegrees>
            </Position>
            <AltitudeMeters>995.5999755859375</AltitudeMeters>
            <DistanceMeters>NAN</DistanceMeters>
          </Trackpoint>
          <Trackpoint>
            <Time>2019-10-07T11:18:18.000Z</Time>
            <Position>
              <LatitudeDegrees>40.49361594021320343017578125</LatitudeDegrees>
              <LongitudeDegrees>-5.676348544657230377197265625</LongitudeDegrees>
            </Position>
            <AltitudeMeters>995.79998779296875</AltitudeMeters>
            <DistanceMeters>NAN</DistanceMeters>
          </Trackpoint>
          <Trackpoint>
            <Time>2019-10-07T11:18:24.000Z</Time>
            <Position>
              <LatitudeDegrees>40.4933207295835018157958984375</LatitudeDegrees>
              <LongitudeDegrees>-5.676386095583438873291015625</LongitudeDegrees>
            </Position>
            <AltitudeMeters>995.5999755859375</AltitudeMeters>
            <DistanceMeters>NAN</DistanceMeters>
          </Trackpoint>
          <Trackpoint>
            <Time>2019-10-07T11:18:28.000Z</Time>
            <Position>
              <LatitudeDegrees>40.49311243928968906402587890625</LatitudeDegrees>
              <LongitudeDegrees>-5.676406212151050567626953125</LongitudeDegrees>
            </Position>
            <AltitudeMeters>995.79998779296875</AltitudeMeters>
            <DistanceMeters>NAN</DistanceMeters>
          </Trackpoint>
          <Trackpoint>
            <Time>2019-10-07T11:18:38.000Z</Time>
            <Position>
              <LatitudeDegrees>40.49258773215115070343017578125</LatitudeDegrees>
              <LongitudeDegrees>-5.6764647178351879119873046875</LongitudeDegrees>
            </Position>
            <AltitudeMeters>996.20001220703125</AltitudeMeters>
            <DistanceMeters>NAN</DistanceMeters>
          </Trackpoint>
          <Trackpoint>
            <Time>2019-10-07T11:18:46.000Z</Time>
            <Position>
              <LatitudeDegrees>40.49216863699257373809814453125</LatitudeDegrees>
              <LongitudeDegrees>-5.67650704644620418548583984375</LongitudeDegrees>
            </Position>
            <AltitudeMeters>996</AltitudeMeters>
            <DistanceMeters>NAN</DistanceMeters>
          </Trackpoint>
          <Trackpoint>
            <Time>2019-10-07T11:18:55.000Z</Time>
            <Position>
              <LatitudeDegrees>40.49169606529176235198974609375</LatitudeDegrees>
              <LongitudeDegrees>-5.67656002007424831390380859375</LongitudeDegrees>
            </Position>
            <AltitudeMeters>996.4000244140625</AltitudeMeters>
            <DistanceMeters>NAN</DistanceMeters>
          </Trackpoint>
          <Trackpoint>
            <Time>2019-10-07T11:18:56.000Z</Time>
            <Position>
              <LatitudeDegrees>40.4916103184223175048828125</LatitudeDegrees>
              <LongitudeDegrees>-5.6765689887106418609619140625</LongitudeDegrees>
            </Position>
            <AltitudeMeters>996.79998779296875</AltitudeMeters>
            <DistanceMeters>NAN</DistanceMeters>
          </Trackpoint>
          <Trackpoint>
            <Time>2019-10-07T11:19:07.000Z</Time>
            <Position>
              <LatitudeDegrees>40.49105174839496612548828125</LatitudeDegrees>
              <LongitudeDegrees>-5.67663093097507953643798828125</LongitudeDegrees>
            </Position>
            <AltitudeMeters>997</AltitudeMeters>
            <DistanceMeters>NAN</DistanceMeters>
          </Trackpoint>
          <Trackpoint>
            <Time>2019-10-07T11:19:09.000Z</Time>
            <Position>
              <LatitudeDegrees>40.49094823189079761505126953125</LatitudeDegrees>
              <LongitudeDegrees>-5.67663948051631450653076171875</LongitudeDegrees>
            </Position>
            <AltitudeMeters>996.5999755859375</AltitudeMeters>
            <DistanceMeters>NAN</DistanceMeters>
          </Trackpoint>
          <Trackpoint>
            <Time>2019-10-07T11:19:14.000Z</Time>
            <Position>
              <LatitudeDegrees>40.49069501459598541259765625</LatitudeDegrees>
              <LongitudeDegrees>-5.67666940391063690185546875</LongitudeDegrees>
            </Position>
            <AltitudeMeters>996.79998779296875</AltitudeMeters>
            <DistanceMeters>NAN</DistanceMeters>
          </Trackpoint>
          <Trackpoint>
            <Time>2019-10-07T11:19:19.000Z</Time>
            <Position>
              <LatitudeDegrees>40.49043794162571430206298828125</LatitudeDegrees>
              <LongitudeDegrees>-5.67669647745788097381591796875</LongitudeDegrees>
            </Position>
            <AltitudeMeters>996.79998779296875</AltitudeMeters>
            <DistanceMeters>NAN</DistanceMeters>
          </Trackpoint>
          <Trackpoint>
            <Time>2019-10-07T11:19:24.000Z</Time>
            <Position>
              <LatitudeDegrees>40.4901832155883312225341796875</LatitudeDegrees>
              <LongitudeDegrees>-5.67671827040612697601318359375</LongitudeDegrees>
            </Position>
            <AltitudeMeters>996.79998779296875</AltitudeMeters>
            <DistanceMeters>NAN</DistanceMeters>
          </Trackpoint>
          <Trackpoint>
            <Time>2019-10-07T11:19:29.000Z</Time>
            <Position>
              <LatitudeDegrees>40.48993335105478763580322265625</LatitudeDegrees>
              <LongitudeDegrees>-5.67674358375370502471923828125</LongitudeDegrees>
            </Position>
            <AltitudeMeters>996.5999755859375</AltitudeMeters>
            <DistanceMeters>NAN</DistanceMeters>
          </Trackpoint>
          <Trackpoint>
            <Time>2019-10-07T11:19:35.000Z</Time>
            <Position>
              <LatitudeDegrees>40.4896370507776737213134765625</LatitudeDegrees>
              <LongitudeDegrees>-5.67677862010896205902099609375</LongitudeDegrees>
            </Position>
            <AltitudeMeters>997</AltitudeMeters>
            <DistanceMeters>NAN</DistanceMeters>
          </Trackpoint>
          <Trackpoint>
            <Time>2019-10-07T11:19:38.000Z</Time>
            <Position>
              <LatitudeDegrees>40.48948525451123714447021484375</LatitudeDegrees>
              <LongitudeDegrees>-5.67679823376238346099853515625</LongitudeDegrees>
            </Position>
            <AltitudeMeters>997.20001220703125</AltitudeMeters>
            <DistanceMeters>NAN</DistanceMeters>
          </Trackpoint>
          <Trackpoint>
            <Time>2019-10-07T11:19:44.000Z</Time>
            <Position>
              <LatitudeDegrees>40.48918065614998340606689453125</LatitudeDegrees>
              <LongitudeDegrees>-5.6768301688134670257568359375</LongitudeDegrees>
            </Position>
            <AltitudeMeters>997.20001220703125</AltitudeMeters>
            <DistanceMeters>NAN</DistanceMeters>
          </Trackpoint>
          <Trackpoint>
            <Time>2019-10-07T11:19:47.000Z</Time>
            <Position>
              <LatitudeDegrees>40.4890286922454833984375</LatitudeDegrees>
              <LongitudeDegrees>-5.67684802226722240447998046875</LongitudeDegrees>
            </Position>
            <AltitudeMeters>997.79998779296875</AltitudeMeters>
            <DistanceMeters>NAN</DistanceMeters>
          </Trackpoint>
          <Trackpoint>
            <Time>2019-10-07T11:19:48.000Z</Time>
            <Position>
              <LatitudeDegrees>40.48897764645516872406005859375</LatitudeDegrees>
              <LongitudeDegrees>-5.67685305140912532806396484375</LongitudeDegrees>
            </Position>
            <AltitudeMeters>998</AltitudeMeters>
            <DistanceMeters>NAN</DistanceMeters>
          </Trackpoint>
          <Trackpoint>
            <Time>2019-10-07T11:19:58.000Z</Time>
            <Position>
              <LatitudeDegrees>40.4884676076471805572509765625</LatitudeDegrees>
              <LongitudeDegrees>-5.67689814604818820953369140625</LongitudeDegrees>
            </Position>
            <AltitudeMeters>998</AltitudeMeters>
            <DistanceMeters>NAN</DistanceMeters>
          </Trackpoint>
          <Trackpoint>
            <Time>2019-10-07T11:20:06.000Z</Time>
            <Position>
              <LatitudeDegrees>40.48806108534336090087890625</LatitudeDegrees>
              <LongitudeDegrees>-5.67694969475269317626953125</LongitudeDegrees>
            </Position>
            <AltitudeMeters>998.79998779296875</AltitudeMeters>
            <DistanceMeters>NAN</DistanceMeters>
          </Trackpoint>
          <Trackpoint>
            <Time>2019-10-07T11:20:10.000Z</Time>
            <Position>
              <LatitudeDegrees>40.48785832710564136505126953125</LatitudeDegrees>
              <LongitudeDegrees>-5.676975511014461517333984375</LongitudeDegrees>
            </Position>
            <AltitudeMeters>999</AltitudeMeters>
            <DistanceMeters>NAN</DistanceMeters>
          </Trackpoint>
          <Trackpoint>
            <Time>2019-10-07T11:20:15.000Z</Time>
            <Position>
              <LatitudeDegrees>40.487604103982448577880859375</LatitudeDegrees>
              <LongitudeDegrees>-5.67699730396270751953125</LongitudeDegrees>
            </Position>
            <AltitudeMeters>999.20001220703125</AltitudeMeters>
            <DistanceMeters>NAN</DistanceMeters>
          </Trackpoint>
          <Trackpoint>
            <Time>2019-10-07T11:20:24.000Z</Time>
            <Position>
              <LatitudeDegrees>40.487152151763439178466796875</LatitudeDegrees>
              <LongitudeDegrees>-5.6770484335720539093017578125</LongitudeDegrees>
            </Position>
            <AltitudeMeters>1000.4000244140625</AltitudeMeters>
            <DistanceMeters>NAN</DistanceMeters>
          </Trackpoint>
          <Trackpoint>
            <Time>2019-10-07T11:20:25.000Z</Time>
            <Position>
              <LatitudeDegrees>40.487103201448917388916015625</LatitudeDegrees>
              <LongitudeDegrees>-5.67705052904784679412841796875</LongitudeDegrees>
            </Position>
            <AltitudeMeters>1000.20001220703125</AltitudeMeters>
            <DistanceMeters>NAN</DistanceMeters>
          </Trackpoint>
          <Trackpoint>
            <Time>2019-10-07T11:20:31.000Z</Time>
            <Position>
              <LatitudeDegrees>40.48682232387363910675048828125</LatitudeDegrees>
              <LongitudeDegrees>-5.67707684822380542755126953125</LongitudeDegrees>
            </Position>
            <AltitudeMeters>1001.4000244140625</AltitudeMeters>
            <DistanceMeters>NAN</DistanceMeters>
          </Trackpoint>
          <Trackpoint>
            <Time>2019-10-07T11:20:32.000Z</Time>
            <Position>
              <LatitudeDegrees>40.4867769777774810791015625</LatitudeDegrees>
              <LongitudeDegrees>-5.67708120681345462799072265625</LongitudeDegrees>
            </Position>
            <AltitudeMeters>1001.79998779296875</AltitudeMeters>
            <DistanceMeters>NAN</DistanceMeters>
          </Trackpoint>
          <Trackpoint>
            <Time>2019-10-07T11:20:34.000Z</Time>
            <Position>
              <LatitudeDegrees>40.4866929911077022552490234375</LatitudeDegrees>
              <LongitudeDegrees>-5.677086822688579559326171875</LongitudeDegrees>
            </Position>
            <AltitudeMeters>1002.5999755859375</AltitudeMeters>
            <DistanceMeters>NAN</DistanceMeters>
          </Trackpoint>
          <Trackpoint>
            <Time>2019-10-07T11:20:39.000Z</Time>
            <Position>
              <LatitudeDegrees>40.486499369144439697265625</LatitudeDegrees>
              <LongitudeDegrees>-5.67710660398006439208984375</LongitudeDegrees>
            </Position>
            <AltitudeMeters>1003.4000244140625</AltitudeMeters>
            <DistanceMeters>NAN</DistanceMeters>
          </Trackpoint>
          <Trackpoint>
            <Time>2019-10-07T11:20:40.000Z</Time>
            <Position>
              <LatitudeDegrees>40.48646382987499237060546875</LatitudeDegrees>
              <LongitudeDegrees>-5.67711138166487216949462890625</LongitudeDegrees>
            </Position>
            <AltitudeMeters>1003.5999755859375</AltitudeMeters>
            <DistanceMeters>NAN</DistanceMeters>
          </Trackpoint>
          <Trackpoint>
            <Time>2019-10-07T11:20:45.000Z</Time>
            <Position>
              <LatitudeDegrees>40.48629057593643665313720703125</LatitudeDegrees>
              <LongitudeDegrees>-5.67713149823248386383056640625</LongitudeDegrees>
            </Position>
            <AltitudeMeters>1004.79998779296875</AltitudeMeters>
            <DistanceMeters>NAN</DistanceMeters>
          </Trackpoint>
          <Trackpoint>
            <Time>2019-10-07T11:20:49.000Z</Time>
            <Position>
              <LatitudeDegrees>40.48615043051540851593017578125</LatitudeDegrees>
              <LongitudeDegrees>-5.677155219018459320068359375</LongitudeDegrees>
            </Position>
            <AltitudeMeters>1005.5999755859375</AltitudeMeters>
            <DistanceMeters>NAN</DistanceMeters>
          </Trackpoint>
          <Trackpoint>
            <Time>2019-10-07T11:20:53.000Z</Time>
            <Position>
              <LatitudeDegrees>40.48599234782159328460693359375</LatitudeDegrees>
              <LongitudeDegrees>-5.6771677918732166290283203125</LongitudeDegrees>
            </Position>
            <AltitudeMeters>1005.79998779296875</AltitudeMeters>
            <DistanceMeters>NAN</DistanceMeters>
          </Trackpoint>
          <Trackpoint>
            <Time>2019-10-07T11:20:56.000Z</Time>
            <Position>
              <LatitudeDegrees>40.4858648590743541717529296875</LatitudeDegrees>
              <LongitudeDegrees>-5.6771882437169551849365234375</LongitudeDegrees>
            </Position>
            <AltitudeMeters>1006.20001220703125</AltitudeMeters>
            <DistanceMeters>NAN</DistanceMeters>
          </Trackpoint>
          <Trackpoint>
            <Time>2019-10-07T11:21:04.000Z</Time>
            <Position>
              <LatitudeDegrees>40.4855096340179443359375</LatitudeDegrees>
              <LongitudeDegrees>-5.6772308237850666046142578125</LongitudeDegrees>
            </Position>
            <AltitudeMeters>1006.20001220703125</AltitudeMeters>
            <DistanceMeters>NAN</DistanceMeters>
          </Trackpoint>
          <Trackpoint>
            <Time>2019-10-07T11:21:06.000Z</Time>
            <Position>
              <LatitudeDegrees>40.48541818745434284210205078125</LatitudeDegrees>
              <LongitudeDegrees>-5.67723945714533329010009765625</LongitudeDegrees>
            </Position>
            <AltitudeMeters>1006.20001220703125</AltitudeMeters>
            <DistanceMeters>NAN</DistanceMeters>
          </Trackpoint>
          <Trackpoint>
            <Time>2019-10-07T11:21:16.000Z</Time>
            <Position>
              <LatitudeDegrees>40.4849659837782382965087890625</LatitudeDegrees>
              <LongitudeDegrees>-5.67728823982179164886474609375</LongitudeDegrees>
            </Position>
            <AltitudeMeters>1006.79998779296875</AltitudeMeters>
            <DistanceMeters>NAN</DistanceMeters>
          </Trackpoint>
          <Trackpoint>
            <Time>2019-10-07T11:21:24.000Z</Time>
            <Position>
              <LatitudeDegrees>40.48460179008543491363525390625</LatitudeDegrees>
              <LongitudeDegrees>-5.67734976299107074737548828125</LongitudeDegrees>
            </Position>
            <AltitudeMeters>1006.79998779296875</AltitudeMeters>
            <DistanceMeters>NAN</DistanceMeters>
          </Trackpoint>
          <Trackpoint>
            <Time>2019-10-07T11:21:25.000Z</Time>
            <Position>
              <LatitudeDegrees>40.48455401323735713958740234375</LatitudeDegrees>
              <LongitudeDegrees>-5.67736099474132061004638671875</LongitudeDegrees>
            </Position>
            <AltitudeMeters>1006.79998779296875</AltitudeMeters>
            <DistanceMeters>NAN</DistanceMeters>
          </Trackpoint>
          <Trackpoint>
            <Time>2019-10-07T11:21:26.000Z</Time>
            <Position>
              <LatitudeDegrees>40.4845049791038036346435546875</LatitudeDegrees>
              <LongitudeDegrees>-5.67737155593931674957275390625</LongitudeDegrees>
            </Position>
            <AltitudeMeters>1007</AltitudeMeters>
            <DistanceMeters>NAN</DistanceMeters>
          </Trackpoint>
          <Trackpoint>
            <Time>2019-10-07T11:21:31.000Z</Time>
            <Position>
              <LatitudeDegrees>40.4842582158744335174560546875</LatitudeDegrees>
              <LongitudeDegrees>-5.67745395004749298095703125</LongitudeDegrees>
            </Position>
            <AltitudeMeters>1007.20001220703125</AltitudeMeters>
            <DistanceMeters>NAN</DistanceMeters>
          </Trackpoint>
          <Trackpoint>
            <Time>2019-10-07T11:21:34.000Z</Time>
            <Position>
              <LatitudeDegrees>40.48410750925540924072265625</LatitudeDegrees>
              <LongitudeDegrees>-5.6775136291980743408203125</LongitudeDegrees>
            </Position>
            <AltitudeMeters>1007.20001220703125</AltitudeMeters>
            <DistanceMeters>NAN</DistanceMeters>
          </Trackpoint>
          <Trackpoint>
            <Time>2019-10-07T11:21:43.000Z</Time>
            <Position>
              <LatitudeDegrees>40.48368372023105621337890625</LatitudeDegrees>
              <LongitudeDegrees>-5.67776114679872989654541015625</LongitudeDegrees>
            </Position>
            <AltitudeMeters>1007.79998779296875</AltitudeMeters>
            <DistanceMeters>NAN</DistanceMeters>
          </Trackpoint>
          <Trackpoint>
            <Time>2019-10-07T11:21:44.000Z</Time>
            <Position>
              <LatitudeDegrees>40.4836392961442470550537109375</LatitudeDegrees>
              <LongitudeDegrees>-5.67779417149722576141357421875</LongitudeDegrees>
            </Position>
            <AltitudeMeters>1008</AltitudeMeters>
            <DistanceMeters>NAN</DistanceMeters>
          </Trackpoint>
          <Trackpoint>
            <Time>2019-10-07T11:21:49.000Z</Time>
            <Position>
              <LatitudeDegrees>40.48342262394726276397705078125</LatitudeDegrees>
              <LongitudeDegrees>-5.67798796109855175018310546875</LongitudeDegrees>
            </Position>
            <AltitudeMeters>1008</AltitudeMeters>
            <DistanceMeters>NAN</DistanceMeters>
          </Trackpoint>
          <Trackpoint>
            <Time>2019-10-07T11:21:51.000Z</Time>
            <Position>
              <LatitudeDegrees>40.48333930782973766326904296875</LatitudeDegrees>
              <LongitudeDegrees>-5.67807831801474094390869140625</LongitudeDegrees>
            </Position>
            <AltitudeMeters>1008</AltitudeMeters>
            <DistanceMeters>NAN</DistanceMeters>
          </Trackpoint>
          <Trackpoint>
            <Time>2019-10-07T11:21:58.000Z</Time>
            <Position>
              <LatitudeDegrees>40.48305382020771503448486328125</LatitudeDegrees>
              <LongitudeDegrees>-5.678421221673488616943359375</LongitudeDegrees>
            </Position>
            <AltitudeMeters>1007.4000244140625</AltitudeMeters>
            <DistanceMeters>NAN</DistanceMeters>
          </Trackpoint>
          <Trackpoint>
            <Time>2019-10-07T11:22:00.000Z</Time>
            <Position>
              <LatitudeDegrees>40.48297788016498088836669921875</LatitudeDegrees>
              <LongitudeDegrees>-5.67852792330086231231689453125</LongitudeDegrees>
            </Position>
            <AltitudeMeters>1007.5999755859375</AltitudeMeters>
            <DistanceMeters>NAN</DistanceMeters>
          </Trackpoint>
          <Trackpoint>
            <Time>2019-10-07T11:22:04.000Z</Time>
            <Position>
              <LatitudeDegrees>40.48282750882208347320556640625</LatitudeDegrees>
              <LongitudeDegrees>-5.678741075098514556884765625</LongitudeDegrees>
            </Position>
            <AltitudeMeters>1007.5999755859375</AltitudeMeters>
            <DistanceMeters>NAN</DistanceMeters>
          </Trackpoint>
          <Trackpoint>
            <Time>2019-10-07T11:22:11.000Z</Time>
            <Position>
              <LatitudeDegrees>40.48252743668854236602783203125</LatitudeDegrees>
              <LongitudeDegrees>-5.67906453274190425872802734375</LongitudeDegrees>
            </Position>
            <AltitudeMeters>1007.4000244140625</AltitudeMeters>
            <DistanceMeters>NAN</DistanceMeters>
          </Trackpoint>
          <Trackpoint>
            <Time>2019-10-07T11:22:16.000Z</Time>
            <Position>
              <LatitudeDegrees>40.48225804232060909271240234375</LatitudeDegrees>
              <LongitudeDegrees>-5.6791482679545879364013671875</LongitudeDegrees>
            </Position>
            <AltitudeMeters>1007.79998779296875</AltitudeMeters>
            <DistanceMeters>NAN</DistanceMeters>
          </Trackpoint>
          <Trackpoint>
            <Time>2019-10-07T11:22:17.000Z</Time>
            <Position>
              <LatitudeDegrees>40.4822039790451526641845703125</LatitudeDegrees>
              <LongitudeDegrees>-5.67914851941168308258056640625</LongitudeDegrees>
            </Position>
            <AltitudeMeters>1007.79998779296875</AltitudeMeters>
            <DistanceMeters>NAN</DistanceMeters>
          </Trackpoint>
          <Trackpoint>
            <Time>2019-10-07T11:22:18.000Z</Time>
            <Position>
              <LatitudeDegrees>40.4821501672267913818359375</LatitudeDegrees>
              <LongitudeDegrees>-5.67913896404206752777099609375</LongitudeDegrees>
            </Position>
            <AltitudeMeters>1008</AltitudeMeters>
            <DistanceMeters>NAN</DistanceMeters>
          </Trackpoint>
          <Trackpoint>
            <Time>2019-10-07T11:22:22.000Z</Time>
            <Position>
              <LatitudeDegrees>40.4819360934197902679443359375</LatitudeDegrees>
              <LongitudeDegrees>-5.6790939532220363616943359375</LongitudeDegrees>
            </Position>
            <AltitudeMeters>1007.20001220703125</AltitudeMeters>
            <DistanceMeters>NAN</DistanceMeters>
          </Trackpoint>
          <Trackpoint>
            <Time>2019-10-07T11:22:25.000Z</Time>
            <Position>
              <LatitudeDegrees>40.481776334345340728759765625</LatitudeDegrees>
              <LongitudeDegrees>-5.67906604148447513580322265625</LongitudeDegrees>
            </Position>
            <AltitudeMeters>1007.5999755859375</AltitudeMeters>
            <DistanceMeters>NAN</DistanceMeters>
          </Trackpoint>
          <Trackpoint>
            <Time>2019-10-07T11:22:27.000Z</Time>
            <Position>
              <LatitudeDegrees>40.4816873185336589813232421875</LatitudeDegrees>
              <LongitudeDegrees>-5.67899161018431186676025390625</LongitudeDegrees>
            </Position>
            <AltitudeMeters>1007.5999755859375</AltitudeMeters>
            <DistanceMeters>NAN</DistanceMeters>
          </Trackpoint>
          <Trackpoint>
            <Time>2019-10-07T11:22:30.000Z</Time>
            <Position>
              <LatitudeDegrees>40.48161464743316173553466796875</LatitudeDegrees>
              <LongitudeDegrees>-5.6788052804768085479736328125</LongitudeDegrees>
            </Position>
            <AltitudeMeters>1006.79998779296875</AltitudeMeters>
            <DistanceMeters>NAN</DistanceMeters>
          </Trackpoint>
          <Trackpoint>
            <Time>2019-10-07T11:22:32.000Z</Time>
            <Position>
              <LatitudeDegrees>40.4816209338605403900146484375</LatitudeDegrees>
              <LongitudeDegrees>-5.6786564178764820098876953125</LongitudeDegrees>
            </Position>
            <AltitudeMeters>1006</AltitudeMeters>
            <DistanceMeters>NAN</DistanceMeters>
          </Trackpoint>
          <Trackpoint>
            <Time>2019-10-07T11:22:33.000Z</Time>
            <Position>
              <LatitudeDegrees>40.48161900602281093597412109375</LatitudeDegrees>
              <LongitudeDegrees>-5.6785823218524456024169921875</LongitudeDegrees>
            </Position>
            <AltitudeMeters>1005.79998779296875</AltitudeMeters>
            <DistanceMeters>NAN</DistanceMeters>
          </Trackpoint>
          <Trackpoint>
            <Time>2019-10-07T11:22:34.000Z</Time>
            <Position>
              <LatitudeDegrees>40.4816138930618762969970703125</LatitudeDegrees>
              <LongitudeDegrees>-5.6785092316567897796630859375</LongitudeDegrees>
            </Position>
            <AltitudeMeters>1005.5999755859375</AltitudeMeters>
            <DistanceMeters>NAN</DistanceMeters>
          </Trackpoint>
          <Trackpoint>
            <Time>2019-10-07T11:22:35.000Z</Time>
            <Position>
              <LatitudeDegrees>40.4816024936735630035400390625</LatitudeDegrees>
              <LongitudeDegrees>-5.678434632718563079833984375</LongitudeDegrees>
            </Position>
            <AltitudeMeters>1005.4000244140625</AltitudeMeters>
            <DistanceMeters>NAN</DistanceMeters>
          </Trackpoint>
          <Trackpoint>
            <Time>2019-10-07T11:22:39.000Z</Time>
            <Position>
              <LatitudeDegrees>40.48153937794268131256103515625</LatitudeDegrees>
              <LongitudeDegrees>-5.67812056280672550201416015625</LongitudeDegrees>
            </Position>
            <AltitudeMeters>1005.20001220703125</AltitudeMeters>
            <DistanceMeters>NAN</DistanceMeters>
          </Trackpoint>
          <Trackpoint>
            <Time>2019-10-07T11:22:41.000Z</Time>
            <Position>
              <LatitudeDegrees>40.4814972169697284698486328125</LatitudeDegrees>
              <LongitudeDegrees>-5.67795778624713420867919921875</LongitudeDegrees>
            </Position>
            <AltitudeMeters>1004.5999755859375</AltitudeMeters>
            <DistanceMeters>NAN</DistanceMeters>
          </Trackpoint>
          <Trackpoint>
            <Time>2019-10-07T11:22:45.000Z</Time>
            <Position>
              <LatitudeDegrees>40.4814125597476959228515625</LatitudeDegrees>
              <LongitudeDegrees>-5.67765134386718273162841796875</LongitudeDegrees>
            </Position>
            <AltitudeMeters>1004.4000244140625</AltitudeMeters>
            <DistanceMeters>NAN</DistanceMeters>
          </Trackpoint>
          <Trackpoint>
            <Time>2019-10-07T11:22:46.000Z</Time>
            <Position>
              <LatitudeDegrees>40.48140107654035091400146484375</LatitudeDegrees>
              <LongitudeDegrees>-5.67758177407085895538330078125</LongitudeDegrees>
            </Position>
            <AltitudeMeters>1004.20001220703125</AltitudeMeters>
            <DistanceMeters>NAN</DistanceMeters>
          </Trackpoint>
          <Trackpoint>
            <Time>2019-10-07T11:22:47.000Z</Time>
            <Position>
              <LatitudeDegrees>40.4813718236982822418212890625</LatitudeDegrees>
              <LongitudeDegrees>-5.6775245256721973419189453125</LongitudeDegrees>
            </Position>
            <AltitudeMeters>1004.5999755859375</AltitudeMeters>
            <DistanceMeters>NAN</DistanceMeters>
          </Trackpoint>
          <Trackpoint>
            <Time>2019-10-07T11:22:49.000Z</Time>
            <Position>
              <LatitudeDegrees>40.48131122253835201263427734375</LatitudeDegrees>
              <LongitudeDegrees>-5.6774051673710346221923828125</LongitudeDegrees>
            </Position>
            <AltitudeMeters>1006</AltitudeMeters>
            <DistanceMeters>NAN</DistanceMeters>
          </Trackpoint>
          <Trackpoint>
            <Time>2019-10-07T11:22:50.000Z</Time>
            <Position>
              <LatitudeDegrees>40.48127450980246067047119140625</LatitudeDegrees>
              <LongitudeDegrees>-5.67736007273197174072265625</LongitudeDegrees>
            </Position>
            <AltitudeMeters>1006</AltitudeMeters>
            <DistanceMeters>NAN</DistanceMeters>
          </Trackpoint>
          <Trackpoint>
            <Time>2019-10-07T11:22:53.000Z</Time>
            <Position>
              <LatitudeDegrees>40.4811481945216655731201171875</LatitudeDegrees>
              <LongitudeDegrees>-5.67727851681411266326904296875</LongitudeDegrees>
            </Position>
            <AltitudeMeters>1006.79998779296875</AltitudeMeters>
            <DistanceMeters>NAN</DistanceMeters>
          </Trackpoint>
          <Trackpoint>
            <Time>2019-10-07T11:22:54.000Z</Time>
            <Position>
              <LatitudeDegrees>40.48109882511198520660400390625</LatitudeDegrees>
              <LongitudeDegrees>-5.677275247871875762939453125</LongitudeDegrees>
            </Position>
            <AltitudeMeters>1006.79998779296875</AltitudeMeters>
            <DistanceMeters>NAN</DistanceMeters>
          </Trackpoint>
          <Trackpoint>
            <Time>2019-10-07T11:22:55.000Z</Time>
            <Position>
              <LatitudeDegrees>40.48104920424520969390869140625</LatitudeDegrees>
              <LongitudeDegrees>-5.677269212901592254638671875</LongitudeDegrees>
            </Position>
            <AltitudeMeters>1007.20001220703125</AltitudeMeters>
            <DistanceMeters>NAN</DistanceMeters>
          </Trackpoint>
          <Trackpoint>
            <Time>2019-10-07T11:22:58.000Z</Time>
            <Position>
              <LatitudeDegrees>40.48088978044688701629638671875</LatitudeDegrees>
              <LongitudeDegrees>-5.67727047018706798553466796875</LongitudeDegrees>
            </Position>
            <AltitudeMeters>1006.79998779296875</AltitudeMeters>
            <DistanceMeters>NAN</DistanceMeters>
          </Trackpoint>
          <Trackpoint>
            <Time>2019-10-07T11:23:01.000Z</Time>
            <Position>
              <LatitudeDegrees>40.4807337932288646697998046875</LatitudeDegrees>
              <LongitudeDegrees>-5.67727625370025634765625</LongitudeDegrees>
            </Position>
            <AltitudeMeters>1006.5999755859375</AltitudeMeters>
            <DistanceMeters>NAN</DistanceMeters>
          </Trackpoint>
          <Trackpoint>
            <Time>2019-10-07T11:23:08.000Z</Time>
            <Position>
              <LatitudeDegrees>40.48038384877145290374755859375</LatitudeDegrees>
              <LongitudeDegrees>-5.67731506191194057464599609375</LongitudeDegrees>
            </Position>
            <AltitudeMeters>1007.20001220703125</AltitudeMeters>
            <DistanceMeters>NAN</DistanceMeters>
          </Trackpoint>
          <Trackpoint>
            <Time>2019-10-07T11:23:09.000Z</Time>
            <Position>
              <LatitudeDegrees>40.4803321324288845062255859375</LatitudeDegrees>
              <LongitudeDegrees>-5.67731891758739948272705078125</LongitudeDegrees>
            </Position>
            <AltitudeMeters>1007.20001220703125</AltitudeMeters>
            <DistanceMeters>NAN</DistanceMeters>
          </Trackpoint>
          <Trackpoint>
            <Time>2019-10-07T11:23:16.000Z</Time>
            <Position>
              <LatitudeDegrees>40.4799707047641277313232421875</LatitudeDegrees>
              <LongitudeDegrees>-5.6773548759520053863525390625</LongitudeDegrees>
            </Position>
            <AltitudeMeters>1007.79998779296875</AltitudeMeters>
            <DistanceMeters>NAN</DistanceMeters>
          </Trackpoint>
          <Trackpoint>
            <Time>2019-10-07T11:23:22.000Z</Time>
            <Position>
              <LatitudeDegrees>40.4796632565557956695556640625</LatitudeDegrees>
              <LongitudeDegrees>-5.67738966085016727447509765625</LongitudeDegrees>
            </Position>
            <AltitudeMeters>1007.79998779296875</AltitudeMeters>
            <DistanceMeters>NAN</DistanceMeters>
          </Trackpoint>
          <Trackpoint>
            <Time>2019-10-07T11:23:26.000Z</Time>
            <Position>
              <LatitudeDegrees>40.47946787439286708831787109375</LatitudeDegrees>
              <LongitudeDegrees>-5.67740692757070064544677734375</LongitudeDegrees>
            </Position>
            <AltitudeMeters>1008.20001220703125</AltitudeMeters>
            <DistanceMeters>NAN</DistanceMeters>
          </Trackpoint>
          <Trackpoint>
            <Time>2019-10-07T11:23:27.000Z</Time>
            <Position>
              <LatitudeDegrees>40.47942093573510646820068359375</LatitudeDegrees>
              <LongitudeDegrees>-5.6774098612368106842041015625</LongitudeDegrees>
            </Position>
            <AltitudeMeters>1008.20001220703125</AltitudeMeters>
            <DistanceMeters>NAN</DistanceMeters>
          </Trackpoint>
          <Trackpoint>
            <Time>2019-10-07T11:23:32.000Z</Time>
            <Position>
              <LatitudeDegrees>40.479200743138790130615234375</LatitudeDegrees>
              <LongitudeDegrees>-5.67744196392595767974853515625</LongitudeDegrees>
            </Position>
            <AltitudeMeters>1009.5999755859375</AltitudeMeters>
            <DistanceMeters>NAN</DistanceMeters>
          </Trackpoint>
          <Trackpoint>
            <Time>2019-10-07T11:23:33.000Z</Time>
            <Position>
              <LatitudeDegrees>40.4791579954326152801513671875</LatitudeDegrees>
              <LongitudeDegrees>-5.6774457357823848724365234375</LongitudeDegrees>
            </Position>
            <AltitudeMeters>1009.5999755859375</AltitudeMeters>
            <DistanceMeters>NAN</DistanceMeters>
          </Trackpoint>
          <Trackpoint>
            <Time>2019-10-07T11:23:41.000Z</Time>
            <Position>
              <LatitudeDegrees>40.47882297076284885406494140625</LatitudeDegrees>
              <LongitudeDegrees>-5.677481107413768768310546875</LongitudeDegrees>
            </Position>
            <AltitudeMeters>1010.5999755859375</AltitudeMeters>
            <DistanceMeters>NAN</DistanceMeters>
          </Trackpoint>
          <Trackpoint>
            <Time>2019-10-07T11:23:43.000Z</Time>
            <Position>
              <LatitudeDegrees>40.4787405766546726226806640625</LatitudeDegrees>
              <LongitudeDegrees>-5.6774876452982425689697265625</LongitudeDegrees>
            </Position>
            <AltitudeMeters>1011.20001220703125</AltitudeMeters>
            <DistanceMeters>NAN</DistanceMeters>
          </Trackpoint>
          <Trackpoint>
            <Time>2019-10-07T11:23:48.000Z</Time>
            <Position>
              <LatitudeDegrees>40.47853664495050907135009765625</LatitudeDegrees>
              <LongitudeDegrees>-5.6775117851793766021728515625</LongitudeDegrees>
            </Position>
            <AltitudeMeters>1011.79998779296875</AltitudeMeters>
            <DistanceMeters>NAN</DistanceMeters>
          </Trackpoint>
          <Trackpoint>
            <Time>2019-10-07T11:23:53.000Z</Time>
            <Position>
              <LatitudeDegrees>40.47834050841629505157470703125</LatitudeDegrees>
              <LongitudeDegrees>-5.6775308959186077117919921875</LongitudeDegrees>
            </Position>
            <AltitudeMeters>1012.4000244140625</AltitudeMeters>
            <DistanceMeters>NAN</DistanceMeters>
          </Trackpoint>
          <Trackpoint>
            <Time>2019-10-07T11:23:55.000Z</Time>
            <Position>
              <LatitudeDegrees>40.47826507128775119781494140625</LatitudeDegrees>
              <LongitudeDegrees>-5.67753483541309833526611328125</LongitudeDegrees>
            </Position>
            <AltitudeMeters>1013.20001220703125</AltitudeMeters>
            <DistanceMeters>NAN</DistanceMeters>
          </Trackpoint>
          <Trackpoint>
            <Time>2019-10-07T11:24:02.000Z</Time>
            <Position>
              <LatitudeDegrees>40.47800037078559398651123046875</LatitudeDegrees>
              <LongitudeDegrees>-5.6775677762925624847412109375</LongitudeDegrees>
            </Position>
            <AltitudeMeters>1014</AltitudeMeters>
            <DistanceMeters>NAN</DistanceMeters>
          </Trackpoint>
          <Trackpoint>
            <Time>2019-10-07T11:24:03.000Z</Time>
            <Position>
              <LatitudeDegrees>40.4779624007642269134521484375</LatitudeDegrees>
              <LongitudeDegrees>-5.6775687821209430694580078125</LongitudeDegrees>
            </Position>
            <AltitudeMeters>1014.20001220703125</AltitudeMeters>
            <DistanceMeters>NAN</DistanceMeters>
          </Trackpoint>
          <Trackpoint>
            <Time>2019-10-07T11:24:09.000Z</Time>
            <Position>
              <LatitudeDegrees>40.47771957702934741973876953125</LatitudeDegrees>
              <LongitudeDegrees>-5.67759476602077484130859375</LongitudeDegrees>
            </Position>
            <AltitudeMeters>1015</AltitudeMeters>
            <DistanceMeters>NAN</DistanceMeters>
          </Trackpoint>
          <Trackpoint>
            <Time>2019-10-07T11:24:10.000Z</Time>
            <Position>
              <LatitudeDegrees>40.47768001444637775421142578125</LatitudeDegrees>
              <LongitudeDegrees>-5.67759971134364604949951171875</LongitudeDegrees>
            </Position>
            <AltitudeMeters>1015.20001220703125</AltitudeMeters>
            <DistanceMeters>NAN</DistanceMeters>
          </Trackpoint>
          <Trackpoint>
            <Time>2019-10-07T11:24:12.000Z</Time>
            <Position>
              <LatitudeDegrees>40.47760172747075557708740234375</LatitudeDegrees>
              <LongitudeDegrees>-5.6776075065135955810546875</LongitudeDegrees>
            </Position>
            <AltitudeMeters>1015.4000244140625</AltitudeMeters>
            <DistanceMeters>NAN</DistanceMeters>
          </Trackpoint>
          <Trackpoint>
            <Time>2019-10-07T11:24:21.000Z</Time>
            <Position>
              <LatitudeDegrees>40.4772524535655975341796875</LatitudeDegrees>
              <LongitudeDegrees>-5.67764564417302608489990234375</LongitudeDegrees>
            </Position>
            <AltitudeMeters>1016.5999755859375</AltitudeMeters>
            <DistanceMeters>NAN</DistanceMeters>
          </Trackpoint>
          <Trackpoint>
            <Time>2019-10-07T11:24:22.000Z</Time>
            <Position>
              <LatitudeDegrees>40.47721381299197673797607421875</LatitudeDegrees>
              <LongitudeDegrees>-5.67764916457235813140869140625</LongitudeDegrees>
            </Position>
            <AltitudeMeters>1016.79998779296875</AltitudeMeters>
            <DistanceMeters>NAN</DistanceMeters>
          </Trackpoint>
          <Trackpoint>
            <Time>2019-10-07T11:24:29.000Z</Time>
            <Position>
              <LatitudeDegrees>40.47696738503873348236083984375</LatitudeDegrees>
              <LongitudeDegrees>-5.67767078988254070281982421875</LongitudeDegrees>
            </Position>
            <AltitudeMeters>1017.5999755859375</AltitudeMeters>
            <DistanceMeters>NAN</DistanceMeters>
          </Trackpoint>
          <Trackpoint>
            <Time>2019-10-07T11:24:31.000Z</Time>
            <Position>
              <LatitudeDegrees>40.476896725594997406005859375</LatitudeDegrees>
              <LongitudeDegrees>-5.6776750646531581878662109375</LongitudeDegrees>
            </Position>
            <AltitudeMeters>1017.79998779296875</AltitudeMeters>
            <DistanceMeters>NAN</DistanceMeters>
          </Trackpoint>
          <Trackpoint>
            <Time>2019-10-07T11:24:39.000Z</Time>
            <Position>
              <LatitudeDegrees>40.4766223020851612091064453125</LatitudeDegrees>
              <LongitudeDegrees>-5.67771546542644500732421875</LongitudeDegrees>
            </Position>
            <AltitudeMeters>1019</AltitudeMeters>
            <DistanceMeters>NAN</DistanceMeters>
          </Trackpoint>
          <Trackpoint>
            <Time>2019-10-07T11:24:40.000Z</Time>
            <Position>
              <LatitudeDegrees>40.4765872657299041748046875</LatitudeDegrees>
              <LongitudeDegrees>-5.6777176447212696075439453125</LongitudeDegrees>
            </Position>
            <AltitudeMeters>1018.79998779296875</AltitudeMeters>
            <DistanceMeters>NAN</DistanceMeters>
          </Trackpoint>
          <Trackpoint>
            <Time>2019-10-07T11:24:48.000Z</Time>
            <Position>
              <LatitudeDegrees>40.476308651268482208251953125</LatitudeDegrees>
              <LongitudeDegrees>-5.67775712348520755767822265625</LongitudeDegrees>
            </Position>
            <AltitudeMeters>1020</AltitudeMeters>
            <DistanceMeters>NAN</DistanceMeters>
          </Trackpoint>
          <Trackpoint>
            <Time>2019-10-07T11:24:49.000Z</Time>
            <Position>
              <LatitudeDegrees>40.4762732796370983123779296875</LatitudeDegrees>
              <LongitudeDegrees>-5.6777615658938884735107421875</LongitudeDegrees>
            </Position>
            <AltitudeMeters>1020.4000244140625</AltitudeMeters>
            <DistanceMeters>NAN</DistanceMeters>
          </Trackpoint>
          <Trackpoint>
            <Time>2019-10-07T11:24:59.000Z</Time>
            <Position>
              <LatitudeDegrees>40.47593347728252410888671875</LatitudeDegrees>
              <LongitudeDegrees>-5.677861981093883514404296875</LongitudeDegrees>
            </Position>
            <AltitudeMeters>1021.4000244140625</AltitudeMeters>
            <DistanceMeters>NAN</DistanceMeters>
          </Trackpoint>
          <Trackpoint>
            <Time>2019-10-07T11:25:05.000Z</Time>
            <Position>
              <LatitudeDegrees>40.47575402073562145233154296875</LatitudeDegrees>
              <LongitudeDegrees>-5.67799181677401065826416015625</LongitudeDegrees>
            </Position>
            <AltitudeMeters>1022.5999755859375</AltitudeMeters>
            <DistanceMeters>NAN</DistanceMeters>
          </Trackpoint>
          <Trackpoint>
            <Time>2019-10-07T11:25:07.000Z</Time>
            <Position>
              <LatitudeDegrees>40.4756962694227695465087890625</LatitudeDegrees>
              <LongitudeDegrees>-5.6780385039746761322021484375</LongitudeDegrees>
            </Position>
            <AltitudeMeters>1023</AltitudeMeters>
            <DistanceMeters>NAN</DistanceMeters>
          </Trackpoint>
          <Trackpoint>
            <Time>2019-10-07T11:25:13.000Z</Time>
            <Position>
              <LatitudeDegrees>40.4755058325827121734619140625</LatitudeDegrees>
              <LongitudeDegrees>-5.67814503796398639678955078125</LongitudeDegrees>
            </Position>
            <AltitudeMeters>1023.5999755859375</AltitudeMeters>
            <DistanceMeters>NAN</DistanceMeters>
          </Trackpoint>
          <Trackpoint>
            <Time>2019-10-07T11:25:15.000Z</Time>
            <Position>
              <LatitudeDegrees>40.47543584369122982025146484375</LatitudeDegrees>
              <LongitudeDegrees>-5.67815861664712429046630859375</LongitudeDegrees>
            </Position>
            <AltitudeMeters>1023.79998779296875</AltitudeMeters>
            <DistanceMeters>NAN</DistanceMeters>
          </Trackpoint>
          <Trackpoint>
            <Time>2019-10-07T11:25:23.000Z</Time>
            <Position>
              <LatitudeDegrees>40.47515806742012500762939453125</LatitudeDegrees>
              <LongitudeDegrees>-5.6781561858952045440673828125</LongitudeDegrees>
            </Position>
            <AltitudeMeters>1024.5999755859375</AltitudeMeters>
            <DistanceMeters>NAN</DistanceMeters>
          </Trackpoint>
          <Trackpoint>
            <Time>2019-10-07T11:25:24.000Z</Time>
            <Position>
              <LatitudeDegrees>40.4751242883503437042236328125</LatitudeDegrees>
              <LongitudeDegrees>-5.67815090529620647430419921875</LongitudeDegrees>
            </Position>
            <AltitudeMeters>1024.800048828125</AltitudeMeters>
            <DistanceMeters>NAN</DistanceMeters>
          </Trackpoint>
          <Trackpoint>
            <Time>2019-10-07T11:25:30.000Z</Time>
            <Position>
              <LatitudeDegrees>40.4749184288084506988525390625</LatitudeDegrees>
              <LongitudeDegrees>-5.67815308459103107452392578125</LongitudeDegrees>
            </Position>
            <AltitudeMeters>1026.199951171875</AltitudeMeters>
            <DistanceMeters>NAN</DistanceMeters>
          </Trackpoint>
          <Trackpoint>
            <Time>2019-10-07T11:25:31.000Z</Time>
            <Position>
              <LatitudeDegrees>40.47488464973866939544677734375</LatitudeDegrees>
              <LongitudeDegrees>-5.67816280759871006011962890625</LongitudeDegrees>
            </Position>
            <AltitudeMeters>1026.4000244140625</AltitudeMeters>
            <DistanceMeters>NAN</DistanceMeters>
          </Trackpoint>
          <Trackpoint>
            <Time>2019-10-07T11:25:39.000Z</Time>
            <Position>
              <LatitudeDegrees>40.47461827285587787628173828125</LatitudeDegrees>
              <LongitudeDegrees>-5.6782661564648151397705078125</LongitudeDegrees>
            </Position>
            <AltitudeMeters>1027.199951171875</AltitudeMeters>
            <DistanceMeters>NAN</DistanceMeters>
          </Trackpoint>
          <Trackpoint>
            <Time>2019-10-07T11:25:41.000Z</Time>
            <Position>
              <LatitudeDegrees>40.47455926425755023956298828125</LatitudeDegrees>
              <LongitudeDegrees>-5.67830664105713367462158203125</LongitudeDegrees>
            </Position>
            <AltitudeMeters>1027.800048828125</AltitudeMeters>
            <DistanceMeters>NAN</DistanceMeters>
          </Trackpoint>
          <Trackpoint>
            <Time>2019-10-07T11:25:48.000Z</Time>
            <Position>
              <LatitudeDegrees>40.47434401698410511016845703125</LatitudeDegrees>
              <LongitudeDegrees>-5.6784596107900142669677734375</LongitudeDegrees>
            </Position>
            <AltitudeMeters>1028.199951171875</AltitudeMeters>
            <DistanceMeters>NAN</DistanceMeters>
          </Trackpoint>
          <Trackpoint>
            <Time>2019-10-07T11:25:49.000Z</Time>
            <Position>
              <LatitudeDegrees>40.474311746656894683837890625</LatitudeDegrees>
              <LongitudeDegrees>-5.67848182283341884613037109375</LongitudeDegrees>
            </Position>
            <AltitudeMeters>1028.4000244140625</AltitudeMeters>
            <DistanceMeters>NAN</DistanceMeters>
          </Trackpoint>
          <Trackpoint>
            <Time>2019-10-07T11:25:54.000Z</Time>
            <Position>
              <LatitudeDegrees>40.4741573520004749298095703125</LatitudeDegrees>
              <LongitudeDegrees>-5.6785712577402591705322265625</LongitudeDegrees>
            </Position>
            <AltitudeMeters>1029.5999755859375</AltitudeMeters>
            <DistanceMeters>NAN</DistanceMeters>
          </Trackpoint>
          <Trackpoint>
            <Time>2019-10-07T11:25:58.000Z</Time>
            <Position>
              <LatitudeDegrees>40.4740311205387115478515625</LatitudeDegrees>
              <LongitudeDegrees>-5.6786309368908405303955078125</LongitudeDegrees>
            </Position>
            <AltitudeMeters>1029.5999755859375</AltitudeMeters>
            <DistanceMeters>NAN</DistanceMeters>
          </Trackpoint>
          <Trackpoint>
            <Time>2019-10-07T11:26:07.000Z</Time>
            <Position>
              <LatitudeDegrees>40.473725013434886932373046875</LatitudeDegrees>
              <LongitudeDegrees>-5.67871752195060253143310546875</LongitudeDegrees>
            </Position>
            <AltitudeMeters>1030.4000244140625</AltitudeMeters>
            <DistanceMeters>NAN</DistanceMeters>
          </Trackpoint>
          <Trackpoint>
            <Time>2019-10-07T11:26:09.000Z</Time>
            <Position>
              <LatitudeDegrees>40.4736621491611003875732421875</LatitudeDegrees>
              <LongitudeDegrees>-5.6787382252514362335205078125</LongitudeDegrees>
            </Position>
            <AltitudeMeters>1030.800048828125</AltitudeMeters>
            <DistanceMeters>NAN</DistanceMeters>
          </Trackpoint>
          <Trackpoint>
            <Time>2019-10-07T11:26:15.000Z</Time>
            <Position>
              <LatitudeDegrees>40.4734807647764682769775390625</LatitudeDegrees>
              <LongitudeDegrees>-5.67879631184041500091552734375</LongitudeDegrees>
            </Position>
            <AltitudeMeters>1031.5999755859375</AltitudeMeters>
            <DistanceMeters>NAN</DistanceMeters>
          </Trackpoint>
          <Trackpoint>
            <Time>2019-10-07T11:26:16.000Z</Time>
            <Position>
              <LatitudeDegrees>40.473458468914031982421875</LatitudeDegrees>
              <LongitudeDegrees>-5.6787915341556072235107421875</LongitudeDegrees>
            </Position>
            <AltitudeMeters>1031.800048828125</AltitudeMeters>
            <DistanceMeters>NAN</DistanceMeters>
          </Trackpoint>
          <Trackpoint>
            <Time>2019-10-07T11:26:19.000Z</Time>
            <Position>
              <LatitudeDegrees>40.473404824733734130859375</LatitudeDegrees>
              <LongitudeDegrees>-5.6787523068487644195556640625</LongitudeDegrees>
            </Position>
            <AltitudeMeters>1032.199951171875</AltitudeMeters>
            <DistanceMeters>NAN</DistanceMeters>
          </Trackpoint>
          <Trackpoint>
            <Time>2019-10-07T11:26:24.000Z</Time>
            <Position>
              <LatitudeDegrees>40.47334305010735988616943359375</LatitudeDegrees>
              <LongitudeDegrees>-5.678714253008365631103515625</LongitudeDegrees>
            </Position>
            <AltitudeMeters>1031.5999755859375</AltitudeMeters>
            <DistanceMeters>NAN</DistanceMeters>
          </Trackpoint>
          <Trackpoint>
            <Time>2019-10-07T11:26:26.000Z</Time>
            <Position>
              <LatitudeDegrees>40.47331773675978183746337890625</LatitudeDegrees>
              <LongitudeDegrees>-5.678718946874141693115234375</LongitudeDegrees>
            </Position>
            <AltitudeMeters>1031.800048828125</AltitudeMeters>
            <DistanceMeters>NAN</DistanceMeters>
          </Trackpoint>
          <Trackpoint>
            <Time>2019-10-07T11:26:29.000Z</Time>
            <Position>
              <LatitudeDegrees>40.47328370623290538787841796875</LatitudeDegrees>
              <LongitudeDegrees>-5.6787742674350738525390625</LongitudeDegrees>
            </Position>
            <AltitudeMeters>1032</AltitudeMeters>
            <DistanceMeters>NAN</DistanceMeters>
          </Trackpoint>
          <Trackpoint>
            <Time>2019-10-07T11:26:34.000Z</Time>
            <Position>
              <LatitudeDegrees>40.47323743812739849090576171875</LatitudeDegrees>
              <LongitudeDegrees>-5.67882900126278400421142578125</LongitudeDegrees>
            </Position>
            <AltitudeMeters>1032.199951171875</AltitudeMeters>
            <DistanceMeters>NAN</DistanceMeters>
          </Trackpoint>
          <Trackpoint>
            <Time>2019-10-07T11:26:37.000Z</Time>
            <Position>
              <LatitudeDegrees>40.47325839288532733917236328125</LatitudeDegrees>
              <LongitudeDegrees>-5.67875348031520843505859375</LongitudeDegrees>
            </Position>
            <AltitudeMeters>1031.800048828125</AltitudeMeters>
            <DistanceMeters>NAN</DistanceMeters>
          </Trackpoint>
          <Trackpoint>
            <Time>2019-10-07T11:26:38.000Z</Time>
            <Position>
              <LatitudeDegrees>40.47327465377748012542724609375</LatitudeDegrees>
              <LongitudeDegrees>-5.67872573621571063995361328125</LongitudeDegrees>
            </Position>
            <AltitudeMeters>1031.800048828125</AltitudeMeters>
            <DistanceMeters>NAN</DistanceMeters>
          </Trackpoint>
          <Trackpoint>
            <Time>2019-10-07T11:26:41.000Z</Time>
            <Position>
              <LatitudeDegrees>40.473293177783489227294921875</LatitudeDegrees>
              <LongitudeDegrees>-5.67863009870052337646484375</LongitudeDegrees>
            </Position>
            <AltitudeMeters>1031.199951171875</AltitudeMeters>
            <DistanceMeters>NAN</DistanceMeters>
          </Trackpoint>
          <Trackpoint>
            <Time>2019-10-07T11:26:43.000Z</Time>
            <Position>
              <LatitudeDegrees>40.4732935130596160888671875</LatitudeDegrees>
              <LongitudeDegrees>-5.678564719855785369873046875</LongitudeDegrees>
            </Position>
            <AltitudeMeters>1031.4000244140625</AltitudeMeters>
            <DistanceMeters>NAN</DistanceMeters>
          </Trackpoint>
          <Trackpoint>
            <Time>2019-10-07T11:26:46.000Z</Time>
            <Position>
              <LatitudeDegrees>40.47329644672572612762451171875</LatitudeDegrees>
              <LongitudeDegrees>-5.67847025580704212188720703125</LongitudeDegrees>
            </Position>
            <AltitudeMeters>1031.800048828125</AltitudeMeters>
            <DistanceMeters>NAN</DistanceMeters>
          </Trackpoint>
          <Trackpoint>
            <Time>2019-10-07T11:26:49.000Z</Time>
            <Position>
              <LatitudeDegrees>40.4732839576900005340576171875</LatitudeDegrees>
              <LongitudeDegrees>-5.67838509567081928253173828125</LongitudeDegrees>
            </Position>
            <AltitudeMeters>1031.199951171875</AltitudeMeters>
            <DistanceMeters>NAN</DistanceMeters>
          </Trackpoint>
          <Trackpoint>
            <Time>2019-10-07T11:26:52.000Z</Time>
            <Position>
              <LatitudeDegrees>40.4732859693467617034912109375</LatitudeDegrees>
              <LongitudeDegrees>-5.6783057190477848052978515625</LongitudeDegrees>
            </Position>
            <AltitudeMeters>1031.4000244140625</AltitudeMeters>
            <DistanceMeters>NAN</DistanceMeters>
          </Trackpoint>
          <Trackpoint>
            <Time>2019-10-07T11:26:53.000Z</Time>
            <Position>
              <LatitudeDegrees>40.47328605316579341888427734375</LatitudeDegrees>
              <LongitudeDegrees>-5.6782809086143970489501953125</LongitudeDegrees>
            </Position>
            <AltitudeMeters>1031.5999755859375</AltitudeMeters>
            <DistanceMeters>NAN</DistanceMeters>
          </Trackpoint>
          <Trackpoint>
            <Time>2019-10-07T11:26:56.000Z</Time>
            <Position>
              <LatitudeDegrees>40.473291166126728057861328125</LatitudeDegrees>
              <LongitudeDegrees>-5.67821075208485126495361328125</LongitudeDegrees>
            </Position>
            <AltitudeMeters>1032</AltitudeMeters>
            <DistanceMeters>NAN</DistanceMeters>
          </Trackpoint>
          <Trackpoint>
            <Time>2019-10-07T11:26:59.000Z</Time>
            <Position>
              <LatitudeDegrees>40.47329259105026721954345703125</LatitudeDegrees>
              <LongitudeDegrees>-5.6781467981636524200439453125</LongitudeDegrees>
            </Position>
            <AltitudeMeters>1032</AltitudeMeters>
            <DistanceMeters>NAN</DistanceMeters>
          </Trackpoint>
          <Trackpoint>
            <Time>2019-10-07T11:27:02.000Z</Time>
            <Position>
              <LatitudeDegrees>40.47327616252005100250244140625</LatitudeDegrees>
              <LongitudeDegrees>-5.6781055592000484466552734375</LongitudeDegrees>
            </Position>
            <AltitudeMeters>1032.199951171875</AltitudeMeters>
            <DistanceMeters>NAN</DistanceMeters>
          </Trackpoint>
          <Trackpoint>
            <Time>2019-10-07T11:27:03.000Z</Time>
            <Position>
              <LatitudeDegrees>40.47326342202723026275634765625</LatitudeDegrees>
              <LongitudeDegrees>-5.67810296081006526947021484375</LongitudeDegrees>
            </Position>
            <AltitudeMeters>1032.199951171875</AltitudeMeters>
            <DistanceMeters>NAN</DistanceMeters>
          </Trackpoint>
          <Trackpoint>
            <Time>2019-10-07T11:27:07.000Z</Time>
            <Position>
              <LatitudeDegrees>40.47325906343758106231689453125</LatitudeDegrees>
              <LongitudeDegrees>-5.6781826727092266082763671875</LongitudeDegrees>
            </Position>
            <AltitudeMeters>1032.5999755859375</AltitudeMeters>
            <DistanceMeters>NAN</DistanceMeters>
          </Trackpoint>
          <Trackpoint>
            <Time>2019-10-07T11:27:09.000Z</Time>
            <Position>
              <LatitudeDegrees>40.473270714282989501953125</LatitudeDegrees>
              <LongitudeDegrees>-5.678236149251461029052734375</LongitudeDegrees>
            </Position>
            <AltitudeMeters>1032.199951171875</AltitudeMeters>
            <DistanceMeters>NAN</DistanceMeters>
          </Trackpoint>
          <Trackpoint>
            <Time>2019-10-07T11:27:14.000Z</Time>
            <Position>
              <LatitudeDegrees>40.47328085638582706451416015625</LatitudeDegrees>
              <LongitudeDegrees>-5.67839046008884906768798828125</LongitudeDegrees>
            </Position>
            <AltitudeMeters>1032.199951171875</AltitudeMeters>
            <DistanceMeters>NAN</DistanceMeters>
          </Trackpoint>
          <Trackpoint>
            <Time>2019-10-07T11:27:19.000Z</Time>
            <Position>
              <LatitudeDegrees>40.47328881919384002685546875</LatitudeDegrees>
              <LongitudeDegrees>-5.67856832407414913177490234375</LongitudeDegrees>
            </Position>
            <AltitudeMeters>1032.199951171875</AltitudeMeters>
            <DistanceMeters>NAN</DistanceMeters>
          </Trackpoint>
          <Trackpoint>
            <Time>2019-10-07T11:27:20.000Z</Time>
            <Position>
              <LatitudeDegrees>40.4732908308506011962890625</LatitudeDegrees>
              <LongitudeDegrees>-5.6786064617335796356201171875</LongitudeDegrees>
            </Position>
            <AltitudeMeters>1032.4000244140625</AltitudeMeters>
            <DistanceMeters>NAN</DistanceMeters>
          </Trackpoint>
          <Trackpoint>
            <Time>2019-10-07T11:27:26.000Z</Time>
            <Position>
              <LatitudeDegrees>40.473243892192840576171875</LatitudeDegrees>
              <LongitudeDegrees>-5.67881424911320209503173828125</LongitudeDegrees>
            </Position>
            <AltitudeMeters>1032</AltitudeMeters>
            <DistanceMeters>NAN</DistanceMeters>
          </Trackpoint>
          <Trackpoint>
            <Time>2019-10-07T11:27:31.000Z</Time>
            <Position>
              <LatitudeDegrees>40.47311707399785518646240234375</LatitudeDegrees>
              <LongitudeDegrees>-5.67895598709583282470703125</LongitudeDegrees>
            </Position>
            <AltitudeMeters>1031.800048828125</AltitudeMeters>
            <DistanceMeters>NAN</DistanceMeters>
          </Trackpoint>
          <Trackpoint>
            <Time>2019-10-07T11:27:32.000Z</Time>
            <Position>
              <LatitudeDegrees>40.47308631241321563720703125</LatitudeDegrees>
              <LongitudeDegrees>-5.6789796240627765655517578125</LongitudeDegrees>
            </Position>
            <AltitudeMeters>1031.800048828125</AltitudeMeters>
            <DistanceMeters>NAN</DistanceMeters>
          </Trackpoint>
          <Trackpoint>
            <Time>2019-10-07T11:27:39.000Z</Time>
            <Position>
              <LatitudeDegrees>40.47283946536481380462646484375</LatitudeDegrees>
              <LongitudeDegrees>-5.67911197431385517120361328125</LongitudeDegrees>
            </Position>
            <AltitudeMeters>1031.199951171875</AltitudeMeters>
            <DistanceMeters>NAN</DistanceMeters>
          </Trackpoint>
          <Trackpoint>
            <Time>2019-10-07T11:27:46.000Z</Time>
            <Position>
              <LatitudeDegrees>40.47258733771741390228271484375</LatitudeDegrees>
              <LongitudeDegrees>-5.67923971451818943023681640625</LongitudeDegrees>
            </Position>
            <AltitudeMeters>1031.800048828125</AltitudeMeters>
            <DistanceMeters>NAN</DistanceMeters>
          </Trackpoint>
          <Trackpoint>
            <Time>2019-10-07T11:27:50.000Z</Time>
            <Position>
              <LatitudeDegrees>40.4724588431417942047119140625</LatitudeDegrees>
              <LongitudeDegrees>-5.67930442281067371368408203125</LongitudeDegrees>
            </Position>
            <AltitudeMeters>1031.4000244140625</AltitudeMeters>
            <DistanceMeters>NAN</DistanceMeters>
          </Trackpoint>
          <Trackpoint>
            <Time>2019-10-07T11:27:53.000Z</Time>
            <Position>
              <LatitudeDegrees>40.472347699105739593505859375</LatitudeDegrees>
              <LongitudeDegrees>-5.6793514452874660491943359375</LongitudeDegrees>
            </Position>
            <AltitudeMeters>1031.5999755859375</AltitudeMeters>
            <DistanceMeters>NAN</DistanceMeters>
          </Trackpoint>
          <Trackpoint>
            <Time>2019-10-07T11:28:00.000Z</Time>
            <Position>
              <LatitudeDegrees>40.47207017429172992706298828125</LatitudeDegrees>
              <LongitudeDegrees>-5.67946837283670902252197265625</LongitudeDegrees>
            </Position>
            <AltitudeMeters>1031.4000244140625</AltitudeMeters>
            <DistanceMeters>NAN</DistanceMeters>
          </Trackpoint>
          <Trackpoint>
            <Time>2019-10-07T11:28:05.000Z</Time>
            <Position>
              <LatitudeDegrees>40.47186096198856830596923828125</LatitudeDegrees>
              <LongitudeDegrees>-5.6795381940901279449462890625</LongitudeDegrees>
            </Position>
            <AltitudeMeters>1031.199951171875</AltitudeMeters>
            <DistanceMeters>NAN</DistanceMeters>
          </Trackpoint>
          <Trackpoint>
            <Time>2019-10-07T11:28:07.000Z</Time>
            <Position>
              <LatitudeDegrees>40.47177647240459918975830078125</LatitudeDegrees>
              <LongitudeDegrees>-5.67956074140965938568115234375</LongitudeDegrees>
            </Position>
            <AltitudeMeters>1031</AltitudeMeters>
            <DistanceMeters>NAN</DistanceMeters>
          </Trackpoint>
          <Trackpoint>
            <Time>2019-10-07T11:28:08.000Z</Time>
            <Position>
              <LatitudeDegrees>40.47173322178423404693603515625</LatitudeDegrees>
              <LongitudeDegrees>-5.67957012914121150970458984375</LongitudeDegrees>
            </Position>
            <AltitudeMeters>1031</AltitudeMeters>
            <DistanceMeters>NAN</DistanceMeters>
          </Trackpoint>
          <Trackpoint>
            <Time>2019-10-07T11:28:17.000Z</Time>
            <Position>
              <LatitudeDegrees>40.47135000117123126983642578125</LatitudeDegrees>
              <LongitudeDegrees>-5.679627545177936553955078125</LongitudeDegrees>
            </Position>
            <AltitudeMeters>1031.4000244140625</AltitudeMeters>
            <DistanceMeters>NAN</DistanceMeters>
          </Trackpoint>
          <Trackpoint>
            <Time>2019-10-07T11:28:18.000Z</Time>
            <Position>
              <LatitudeDegrees>40.471307337284088134765625</LatitudeDegrees>
              <LongitudeDegrees>-5.6796283833682537078857421875</LongitudeDegrees>
            </Position>
            <AltitudeMeters>1031.4000244140625</AltitudeMeters>
            <DistanceMeters>NAN</DistanceMeters>
          </Trackpoint>
          <Trackpoint>
            <Time>2019-10-07T11:28:28.000Z</Time>
            <Position>
              <LatitudeDegrees>40.47088396735489368438720703125</LatitudeDegrees>
              <LongitudeDegrees>-5.67963148467242717742919921875</LongitudeDegrees>
            </Position>
            <AltitudeMeters>1031.800048828125</AltitudeMeters>
            <DistanceMeters>NAN</DistanceMeters>
          </Trackpoint>
          <Trackpoint>
            <Time>2019-10-07T11:28:29.000Z</Time>
            <Position>
              <LatitudeDegrees>40.4708418063819408416748046875</LatitudeDegrees>
              <LongitudeDegrees>-5.6796280480921268463134765625</LongitudeDegrees>
            </Position>
            <AltitudeMeters>1031.800048828125</AltitudeMeters>
            <DistanceMeters>NAN</DistanceMeters>
          </Trackpoint>
          <Trackpoint>
            <Time>2019-10-07T11:28:37.000Z</Time>
            <Position>
              <LatitudeDegrees>40.4705065302550792694091796875</LatitudeDegrees>
              <LongitudeDegrees>-5.67958974279463291168212890625</LongitudeDegrees>
            </Position>
            <AltitudeMeters>1031.800048828125</AltitudeMeters>
            <DistanceMeters>NAN</DistanceMeters>
          </Trackpoint>
          <Trackpoint>
            <Time>2019-10-07T11:28:39.000Z</Time>
            <Position>
              <LatitudeDegrees>40.4704240523278713226318359375</LatitudeDegrees>
              <LongitudeDegrees>-5.67958085797727108001708984375</LongitudeDegrees>
            </Position>
            <AltitudeMeters>1031.800048828125</AltitudeMeters>
            <DistanceMeters>NAN</DistanceMeters>
          </Trackpoint>
          <Trackpoint>
            <Time>2019-10-07T11:28:43.000Z</Time>
            <Position>
              <LatitudeDegrees>40.47024744562804698944091796875</LatitudeDegrees>
              <LongitudeDegrees>-5.679549090564250946044921875</LongitudeDegrees>
            </Position>
            <AltitudeMeters>1031.5999755859375</AltitudeMeters>
            <DistanceMeters>NAN</DistanceMeters>
          </Trackpoint>
          <Trackpoint>
            <Time>2019-10-07T11:28:50.000Z</Time>
            <Position>
              <LatitudeDegrees>40.46989121474325656890869140625</LatitudeDegrees>
              <LongitudeDegrees>-5.679461918771266937255859375</LongitudeDegrees>
            </Position>
            <AltitudeMeters>1031</AltitudeMeters>
            <DistanceMeters>NAN</DistanceMeters>
          </Trackpoint>
          <Trackpoint>
            <Time>2019-10-07T11:28:51.000Z</Time>
            <Position>
              <LatitudeDegrees>40.46983547508716583251953125</LatitudeDegrees>
              <LongitudeDegrees>-5.6794480048120021820068359375</LongitudeDegrees>
            </Position>
            <AltitudeMeters>1030.5999755859375</AltitudeMeters>
            <DistanceMeters>NAN</DistanceMeters>
          </Trackpoint>
          <Trackpoint>
            <Time>2019-10-07T11:28:52.000Z</Time>
            <Position>
              <LatitudeDegrees>40.46977914869785308837890625</LatitudeDegrees>
              <LongitudeDegrees>-5.67943233065307140350341796875</LongitudeDegrees>
            </Position>
            <AltitudeMeters>1030.800048828125</AltitudeMeters>
            <DistanceMeters>NAN</DistanceMeters>
          </Trackpoint>
          <Trackpoint>
            <Time>2019-10-07T11:28:58.000Z</Time>
            <Position>
              <LatitudeDegrees>40.4694152064621448516845703125</LatitudeDegrees>
              <LongitudeDegrees>-5.6793366931378841400146484375</LongitudeDegrees>
            </Position>
            <AltitudeMeters>1029.4000244140625</AltitudeMeters>
            <DistanceMeters>NAN</DistanceMeters>
          </Trackpoint>
          <Trackpoint>
            <Time>2019-10-07T11:29:00.000Z</Time>
            <Position>
              <LatitudeDegrees>40.469282604753971099853515625</LatitudeDegrees>
              <LongitudeDegrees>-5.67930039949715137481689453125</LongitudeDegrees>
            </Position>
            <AltitudeMeters>1028.800048828125</AltitudeMeters>
            <DistanceMeters>NAN</DistanceMeters>
          </Trackpoint>
          <Trackpoint>
            <Time>2019-10-07T11:29:02.000Z</Time>
            <Position>
              <LatitudeDegrees>40.46914639882743358612060546875</LatitudeDegrees>
              <LongitudeDegrees>-5.67926502786576747894287109375</LongitudeDegrees>
            </Position>
            <AltitudeMeters>1028.4000244140625</AltitudeMeters>
            <DistanceMeters>NAN</DistanceMeters>
          </Trackpoint>
          <Trackpoint>
            <Time>2019-10-07T11:29:06.000Z</Time>
            <Position>
              <LatitudeDegrees>40.46886862255632877349853515625</LatitudeDegrees>
              <LongitudeDegrees>-5.679172910749912261962890625</LongitudeDegrees>
            </Position>
            <AltitudeMeters>1027.4000244140625</AltitudeMeters>
            <DistanceMeters>NAN</DistanceMeters>
          </Trackpoint>
          <Trackpoint>
            <Time>2019-10-07T11:29:07.000Z</Time>
            <Position>
              <LatitudeDegrees>40.46879569999873638153076171875</LatitudeDegrees>
              <LongitudeDegrees>-5.6791526265442371368408203125</LongitudeDegrees>
            </Position>
            <AltitudeMeters>1026.5999755859375</AltitudeMeters>
            <DistanceMeters>NAN</DistanceMeters>
          </Trackpoint>
          <Trackpoint>
            <Time>2019-10-07T11:29:09.000Z</Time>
            <Position>
              <LatitudeDegrees>40.46864834614098072052001953125</LatitudeDegrees>
              <LongitudeDegrees>-5.679099820554256439208984375</LongitudeDegrees>
            </Position>
            <AltitudeMeters>1025.5999755859375</AltitudeMeters>
            <DistanceMeters>NAN</DistanceMeters>
          </Trackpoint>
          <Trackpoint>
            <Time>2019-10-07T11:29:11.000Z</Time>
            <Position>
              <LatitudeDegrees>40.4684978909790515899658203125</LatitudeDegrees>
              <LongitudeDegrees>-5.679045505821704864501953125</LongitudeDegrees>
            </Position>
            <AltitudeMeters>1025</AltitudeMeters>
            <DistanceMeters>NAN</DistanceMeters>
          </Trackpoint>
          <Trackpoint>
            <Time>2019-10-07T11:29:12.000Z</Time>
            <Position>
              <LatitudeDegrees>40.4684224538505077362060546875</LatitudeDegrees>
              <LongitudeDegrees>-5.679017007350921630859375</LongitudeDegrees>
            </Position>
            <AltitudeMeters>1024.5999755859375</AltitudeMeters>
            <DistanceMeters>NAN</DistanceMeters>
          </Trackpoint>
          <Trackpoint>
            <Time>2019-10-07T11:29:13.000Z</Time>
            <Position>
              <LatitudeDegrees>40.46834575943648815155029296875</LatitudeDegrees>
              <LongitudeDegrees>-5.6789883412420749664306640625</LongitudeDegrees>
            </Position>
            <AltitudeMeters>1023.79998779296875</AltitudeMeters>
            <DistanceMeters>NAN</DistanceMeters>
          </Trackpoint>
          <Trackpoint>
            <Time>2019-10-07T11:29:14.000Z</Time>
            <Position>
              <LatitudeDegrees>40.46827015466988086700439453125</LatitudeDegrees>
              <LongitudeDegrees>-5.67895305342972278594970703125</LongitudeDegrees>
            </Position>
            <AltitudeMeters>1023.4000244140625</AltitudeMeters>
            <DistanceMeters>NAN</DistanceMeters>
          </Trackpoint>
          <Trackpoint>
            <Time>2019-10-07T11:29:17.000Z</Time>
            <Position>
              <LatitudeDegrees>40.46804786659777164459228515625</LatitudeDegrees>
              <LongitudeDegrees>-5.6788391433656215667724609375</LongitudeDegrees>
            </Position>
            <AltitudeMeters>1022.79998779296875</AltitudeMeters>
            <DistanceMeters>NAN</DistanceMeters>
          </Trackpoint>
          <Trackpoint>
            <Time>2019-10-07T11:29:19.000Z</Time>
            <Position>
              <LatitudeDegrees>40.4679076373577117919921875</LatitudeDegrees>
              <LongitudeDegrees>-5.67874350585043430328369140625</LongitudeDegrees>
            </Position>
            <AltitudeMeters>1022.20001220703125</AltitudeMeters>
            <DistanceMeters>NAN</DistanceMeters>
          </Trackpoint>
          <Trackpoint>
            <Time>2019-10-07T11:29:20.000Z</Time>
            <Position>
              <LatitudeDegrees>40.46783681027591228485107421875</LatitudeDegrees>
              <LongitudeDegrees>-5.67869246006011962890625</LongitudeDegrees>
            </Position>
            <AltitudeMeters>1022.20001220703125</AltitudeMeters>
            <DistanceMeters>NAN</DistanceMeters>
          </Trackpoint>
          <Trackpoint>
            <Time>2019-10-07T11:29:21.000Z</Time>
            <Position>
              <LatitudeDegrees>40.467765145003795623779296875</LatitudeDegrees>
              <LongitudeDegrees>-5.678643174469470977783203125</LongitudeDegrees>
            </Position>
            <AltitudeMeters>1022</AltitudeMeters>
            <DistanceMeters>NAN</DistanceMeters>
          </Trackpoint>
          <Trackpoint>
            <Time>2019-10-07T11:29:24.000Z</Time>
            <Position>
              <LatitudeDegrees>40.467541515827178955078125</LatitudeDegrees>
              <LongitudeDegrees>-5.6784948147833347320556640625</LongitudeDegrees>
            </Position>
            <AltitudeMeters>1020.79998779296875</AltitudeMeters>
            <DistanceMeters>NAN</DistanceMeters>
          </Trackpoint>
          <Trackpoint>
            <Time>2019-10-07T11:29:26.000Z</Time>
            <Position>
              <LatitudeDegrees>40.467387624084949493408203125</LatitudeDegrees>
              <LongitudeDegrees>-5.6783892028033733367919921875</LongitudeDegrees>
            </Position>
            <AltitudeMeters>1019.79998779296875</AltitudeMeters>
            <DistanceMeters>NAN</DistanceMeters>
          </Trackpoint>
          <Trackpoint>
            <Time>2019-10-07T11:29:28.000Z</Time>
            <Position>
              <LatitudeDegrees>40.4672298766672611236572265625</LatitudeDegrees>
              <LongitudeDegrees>-5.67828518338501453399658203125</LongitudeDegrees>
            </Position>
            <AltitudeMeters>1019.20001220703125</AltitudeMeters>
            <DistanceMeters>NAN</DistanceMeters>
          </Trackpoint>
          <Trackpoint>
            <Time>2019-10-07T11:29:30.000Z</Time>
            <Position>
              <LatitudeDegrees>40.46706986613571643829345703125</LatitudeDegrees>
              <LongitudeDegrees>-5.67818745039403438568115234375</LongitudeDegrees>
            </Position>
            <AltitudeMeters>1018.79998779296875</AltitudeMeters>
            <DistanceMeters>NAN</DistanceMeters>
          </Trackpoint>
          <Trackpoint>
            <Time>2019-10-07T11:29:33.000Z</Time>
            <Position>
              <LatitudeDegrees>40.46682427637279033660888671875</LatitudeDegrees>
              <LongitudeDegrees>-5.678046382963657379150390625</LongitudeDegrees>
            </Position>
            <AltitudeMeters>1018.20001220703125</AltitudeMeters>
            <DistanceMeters>NAN</DistanceMeters>
          </Trackpoint>
          <Trackpoint>
            <Time>2019-10-07T11:29:34.000Z</Time>
            <Position>
              <LatitudeDegrees>40.46673928387463092803955078125</LatitudeDegrees>
              <LongitudeDegrees>-5.67800438962876796722412109375</LongitudeDegrees>
            </Position>
            <AltitudeMeters>1017.5999755859375</AltitudeMeters>
            <DistanceMeters>NAN</DistanceMeters>
          </Trackpoint>
          <Trackpoint>
            <Time>2019-10-07T11:29:36.000Z</Time>
            <Position>
              <LatitudeDegrees>40.46656745485961437225341796875</LatitudeDegrees>
              <LongitudeDegrees>-5.67792660556733608245849609375</LongitudeDegrees>
            </Position>
            <AltitudeMeters>1016.4000244140625</AltitudeMeters>
            <DistanceMeters>NAN</DistanceMeters>
          </Trackpoint>
          <Trackpoint>
            <Time>2019-10-07T11:29:40.000Z</Time>
            <Position>
              <LatitudeDegrees>40.46621809713542461395263671875</LatitudeDegrees>
              <LongitudeDegrees>-5.67778662778437137603759765625</LongitudeDegrees>
            </Position>
            <AltitudeMeters>1015.20001220703125</AltitudeMeters>
            <DistanceMeters>NAN</DistanceMeters>
          </Trackpoint>
          <Trackpoint>
            <Time>2019-10-07T11:29:42.000Z</Time>
            <Position>
              <LatitudeDegrees>40.46604149043560028076171875</LatitudeDegrees>
              <LongitudeDegrees>-5.67772728390991687774658203125</LongitudeDegrees>
            </Position>
            <AltitudeMeters>1014.5999755859375</AltitudeMeters>
            <DistanceMeters>NAN</DistanceMeters>
          </Trackpoint>
          <Trackpoint>
            <Time>2019-10-07T11:29:44.000Z</Time>
            <Position>
              <LatitudeDegrees>40.4658626206219196319580078125</LatitudeDegrees>
              <LongitudeDegrees>-5.67767213098704814910888671875</LongitudeDegrees>
            </Position>
            <AltitudeMeters>1014</AltitudeMeters>
            <DistanceMeters>NAN</DistanceMeters>
          </Trackpoint>
          <Trackpoint>
            <Time>2019-10-07T11:29:46.000Z</Time>
            <Position>
              <LatitudeDegrees>40.46568475663661956787109375</LatitudeDegrees>
              <LongitudeDegrees>-5.677619911730289459228515625</LongitudeDegrees>
            </Position>
            <AltitudeMeters>1013.79998779296875</AltitudeMeters>
            <DistanceMeters>NAN</DistanceMeters>
          </Trackpoint>
          <Trackpoint>
            <Time>2019-10-07T11:29:48.000Z</Time>
            <Position>
              <LatitudeDegrees>40.46550932340323925018310546875</LatitudeDegrees>
              <LongitudeDegrees>-5.67757196724414825439453125</LongitudeDegrees>
            </Position>
            <AltitudeMeters>1013</AltitudeMeters>
            <DistanceMeters>NAN</DistanceMeters>
          </Trackpoint>
          <Trackpoint>
            <Time>2019-10-07T11:29:50.000Z</Time>
            <Position>
              <LatitudeDegrees>40.465339757502079010009765625</LatitudeDegrees>
              <LongitudeDegrees>-5.6775258667767047882080078125</LongitudeDegrees>
            </Position>
            <AltitudeMeters>1013.4000244140625</AltitudeMeters>
            <DistanceMeters>NAN</DistanceMeters>
          </Trackpoint>
          <Trackpoint>
            <Time>2019-10-07T11:29:51.000Z</Time>
            <Position>
              <LatitudeDegrees>40.4652571119368076324462890625</LatitudeDegrees>
              <LongitudeDegrees>-5.677506923675537109375</LongitudeDegrees>
            </Position>
            <AltitudeMeters>1013.79998779296875</AltitudeMeters>
            <DistanceMeters>NAN</DistanceMeters>
          </Trackpoint>
          <Trackpoint>
            <Time>2019-10-07T11:29:52.000Z</Time>
            <Position>
              <LatitudeDegrees>40.4651776514947414398193359375</LatitudeDegrees>
              <LongitudeDegrees>-5.6774842925369739532470703125</LongitudeDegrees>
            </Position>
            <AltitudeMeters>1014.20001220703125</AltitudeMeters>
            <DistanceMeters>NAN</DistanceMeters>
          </Trackpoint>
          <Trackpoint>
            <Time>2019-10-07T11:29:57.000Z</Time>
            <Position>
              <LatitudeDegrees>40.464813373982906341552734375</LatitudeDegrees>
              <LongitudeDegrees>-5.67740323953330516815185546875</LongitudeDegrees>
            </Position>
            <AltitudeMeters>1014.4000244140625</AltitudeMeters>
            <DistanceMeters>NAN</DistanceMeters>
          </Trackpoint>
          <Trackpoint>
            <Time>2019-10-07T11:29:58.000Z</Time>
            <Position>
              <LatitudeDegrees>40.4647458158433437347412109375</LatitudeDegrees>
              <LongitudeDegrees>-5.6774132139980792999267578125</LongitudeDegrees>
            </Position>
            <AltitudeMeters>1014.79998779296875</AltitudeMeters>
            <DistanceMeters>NAN</DistanceMeters>
          </Trackpoint>
          <Trackpoint>
            <Time>2019-10-07T11:29:59.000Z</Time>
            <Position>
              <LatitudeDegrees>40.464680604636669158935546875</LatitudeDegrees>
              <LongitudeDegrees>-5.6774262897670269012451171875</LongitudeDegrees>
            </Position>
            <AltitudeMeters>1015.20001220703125</AltitudeMeters>
            <DistanceMeters>NAN</DistanceMeters>
          </Trackpoint>
          <Trackpoint>
            <Time>2019-10-07T11:30:01.000Z</Time>
            <Position>
              <LatitudeDegrees>40.46455864794552326202392578125</LatitudeDegrees>
              <LongitudeDegrees>-5.67747213877737522125244140625</LongitudeDegrees>
            </Position>
            <AltitudeMeters>1015.4000244140625</AltitudeMeters>
            <DistanceMeters>NAN</DistanceMeters>
          </Trackpoint>
          <Trackpoint>
            <Time>2019-10-07T11:30:04.000Z</Time>
            <Position>
              <LatitudeDegrees>40.46440375037491321563720703125</LatitudeDegrees>
              <LongitudeDegrees>-5.67762670107185840606689453125</LongitudeDegrees>
            </Position>
            <AltitudeMeters>1015.5999755859375</AltitudeMeters>
            <DistanceMeters>NAN</DistanceMeters>
          </Trackpoint>
          <Trackpoint>
            <Time>2019-10-07T11:30:06.000Z</Time>
            <Position>
              <LatitudeDegrees>40.46431414783000946044921875</LatitudeDegrees>
              <LongitudeDegrees>-5.6777335703372955322265625</LongitudeDegrees>
            </Position>
            <AltitudeMeters>1015</AltitudeMeters>
            <DistanceMeters>NAN</DistanceMeters>
          </Trackpoint>
          <Trackpoint>
            <Time>2019-10-07T11:30:08.000Z</Time>
            <Position>
              <LatitudeDegrees>40.46422898769378662109375</LatitudeDegrees>
              <LongitudeDegrees>-5.67785083316266536712646484375</LongitudeDegrees>
            </Position>
            <AltitudeMeters>1015.4000244140625</AltitudeMeters>
            <DistanceMeters>NAN</DistanceMeters>
          </Trackpoint>
          <Trackpoint>
            <Time>2019-10-07T11:30:10.000Z</Time>
            <Position>
              <LatitudeDegrees>40.4641396366059780120849609375</LatitudeDegrees>
              <LongitudeDegrees>-5.67797220312058925628662109375</LongitudeDegrees>
            </Position>
            <AltitudeMeters>1015.5999755859375</AltitudeMeters>
            <DistanceMeters>NAN</DistanceMeters>
          </Trackpoint>
          <Trackpoint>
            <Time>2019-10-07T11:30:11.000Z</Time>
            <Position>
              <LatitudeDegrees>40.46408909372985363006591796875</LatitudeDegrees>
              <LongitudeDegrees>-5.6780257634818553924560546875</LongitudeDegrees>
            </Position>
            <AltitudeMeters>1015.4000244140625</AltitudeMeters>
            <DistanceMeters>NAN</DistanceMeters>
          </Trackpoint>
          <Trackpoint>
            <Time>2019-10-07T11:30:14.000Z</Time>
            <Position>
              <LatitudeDegrees>40.46396789140999317169189453125</LatitudeDegrees>
              <LongitudeDegrees>-5.67819784395396709442138671875</LongitudeDegrees>
            </Position>
            <AltitudeMeters>1016.20001220703125</AltitudeMeters>
            <DistanceMeters>NAN</DistanceMeters>
          </Trackpoint>
          <Trackpoint>
            <Time>2019-10-07T11:30:16.000Z</Time>
            <Position>
              <LatitudeDegrees>40.463928915560245513916015625</LatitudeDegrees>
              <LongitudeDegrees>-5.67831753753125667572021484375</LongitudeDegrees>
            </Position>
            <AltitudeMeters>1016.5999755859375</AltitudeMeters>
            <DistanceMeters>NAN</DistanceMeters>
          </Trackpoint>
          <Trackpoint>
            <Time>2019-10-07T11:30:18.000Z</Time>
            <Position>
              <LatitudeDegrees>40.4639170132577419281005859375</LatitudeDegrees>
              <LongitudeDegrees>-5.67843488417565822601318359375</LongitudeDegrees>
            </Position>
            <AltitudeMeters>1017.4000244140625</AltitudeMeters>
            <DistanceMeters>NAN</DistanceMeters>
          </Trackpoint>
          <Trackpoint>
            <Time>2019-10-07T11:30:19.000Z</Time>
            <Position>
              <LatitudeDegrees>40.46391508542001247406005859375</LatitudeDegrees>
              <LongitudeDegrees>-5.6784917972981929779052734375</LongitudeDegrees>
            </Position>
            <AltitudeMeters>1017.5999755859375</AltitudeMeters>
            <DistanceMeters>NAN</DistanceMeters>
          </Trackpoint>
          <Trackpoint>
            <Time>2019-10-07T11:30:21.000Z</Time>
            <Position>
              <LatitudeDegrees>40.46389706432819366455078125</LatitudeDegrees>
              <LongitudeDegrees>-5.67860084585845470428466796875</LongitudeDegrees>
            </Position>
            <AltitudeMeters>1017.5999755859375</AltitudeMeters>
            <DistanceMeters>NAN</DistanceMeters>
          </Trackpoint>
          <Trackpoint>
            <Time>2019-10-07T11:30:23.000Z</Time>
            <Position>
              <LatitudeDegrees>40.463854484260082244873046875</LatitudeDegrees>
              <LongitudeDegrees>-5.67869522608816623687744140625</LongitudeDegrees>
            </Position>
            <AltitudeMeters>1017.5999755859375</AltitudeMeters>
            <DistanceMeters>NAN</DistanceMeters>
          </Trackpoint>
          <Trackpoint>
            <Time>2019-10-07T11:30:25.000Z</Time>
            <Position>
              <LatitudeDegrees>40.4637904465198516845703125</LatitudeDegrees>
              <LongitudeDegrees>-5.67876680754125118255615234375</LongitudeDegrees>
            </Position>
            <AltitudeMeters>1018.20001220703125</AltitudeMeters>
            <DistanceMeters>NAN</DistanceMeters>
          </Trackpoint>
          <Trackpoint>
            <Time>2019-10-07T11:30:27.000Z</Time>
            <Position>
              <LatitudeDegrees>40.4637151770293712615966796875</LatitudeDegrees>
              <LongitudeDegrees>-5.67882061935961246490478515625</LongitudeDegrees>
            </Position>
            <AltitudeMeters>1018.20001220703125</AltitudeMeters>
            <DistanceMeters>NAN</DistanceMeters>
          </Trackpoint>
          <Trackpoint>
            <Time>2019-10-07T11:30:30.000Z</Time>
            <Position>
              <LatitudeDegrees>40.4635810665786266326904296875</LatitudeDegrees>
              <LongitudeDegrees>-5.6788569130003452301025390625</LongitudeDegrees>
            </Position>
            <AltitudeMeters>1018.4000244140625</AltitudeMeters>
            <DistanceMeters>NAN</DistanceMeters>
          </Trackpoint>
          <Trackpoint>
            <Time>2019-10-07T11:30:31.000Z</Time>
            <Position>
              <LatitudeDegrees>40.4635334573686122894287109375</LatitudeDegrees>
              <LongitudeDegrees>-5.67885951139032840728759765625</LongitudeDegrees>
            </Position>
            <AltitudeMeters>1018.4000244140625</AltitudeMeters>
            <DistanceMeters>NAN</DistanceMeters>
          </Trackpoint>
          <Trackpoint>
            <Time>2019-10-07T11:30:32.000Z</Time>
            <Position>
              <LatitudeDegrees>40.46348526142537593841552734375</LatitudeDegrees>
              <LongitudeDegrees>-5.67886688746511936187744140625</LongitudeDegrees>
            </Position>
            <AltitudeMeters>1018.20001220703125</AltitudeMeters>
            <DistanceMeters>NAN</DistanceMeters>
          </Trackpoint>
          <Trackpoint>
            <Time>2019-10-07T11:30:35.000Z</Time>
            <Position>
              <LatitudeDegrees>40.46334360726177692413330078125</LatitudeDegrees>
              <LongitudeDegrees>-5.678889267146587371826171875</LongitudeDegrees>
            </Position>
            <AltitudeMeters>1018.79998779296875</AltitudeMeters>
            <DistanceMeters>NAN</DistanceMeters>
          </Trackpoint>
          <Trackpoint>
            <Time>2019-10-07T11:30:38.000Z</Time>
            <Position>
              <LatitudeDegrees>40.46320631168782711029052734375</LatitudeDegrees>
              <LongitudeDegrees>-5.678893625736236572265625</LongitudeDegrees>
            </Position>
            <AltitudeMeters>1019.5999755859375</AltitudeMeters>
            <DistanceMeters>NAN</DistanceMeters>
          </Trackpoint>
          <Trackpoint>
            <Time>2019-10-07T11:30:39.000Z</Time>
            <Position>
              <LatitudeDegrees>40.46316348016262054443359375</LatitudeDegrees>
              <LongitudeDegrees>-5.67888935096561908721923828125</LongitudeDegrees>
            </Position>
            <AltitudeMeters>1020</AltitudeMeters>
            <DistanceMeters>NAN</DistanceMeters>
          </Trackpoint>
          <Trackpoint>
            <Time>2019-10-07T11:30:40.000Z</Time>
            <Position>
              <LatitudeDegrees>40.463122241199016571044921875</LatitudeDegrees>
              <LongitudeDegrees>-5.67887811921536922454833984375</LongitudeDegrees>
            </Position>
            <AltitudeMeters>1020</AltitudeMeters>
            <DistanceMeters>NAN</DistanceMeters>
          </Trackpoint>
          <Trackpoint>
            <Time>2019-10-07T11:30:45.000Z</Time>
            <Position>
              <LatitudeDegrees>40.46292182989418506622314453125</LatitudeDegrees>
              <LongitudeDegrees>-5.67880888469517230987548828125</LongitudeDegrees>
            </Position>
            <AltitudeMeters>1020.5999755859375</AltitudeMeters>
            <DistanceMeters>NAN</DistanceMeters>
          </Trackpoint>
          <Trackpoint>
            <Time>2019-10-07T11:30:50.000Z</Time>
            <Position>
              <LatitudeDegrees>40.46274094842374324798583984375</LatitudeDegrees>
              <LongitudeDegrees>-5.6786698289215564727783203125</LongitudeDegrees>
            </Position>
            <AltitudeMeters>1021.20001220703125</AltitudeMeters>
            <DistanceMeters>NAN</DistanceMeters>
          </Trackpoint>
          <Trackpoint>
            <Time>2019-10-07T11:30:53.000Z</Time>
            <Position>
              <LatitudeDegrees>40.4626332409679889678955078125</LatitudeDegrees>
              <LongitudeDegrees>-5.678582154214382171630859375</LongitudeDegrees>
            </Position>
            <AltitudeMeters>1020.4000244140625</AltitudeMeters>
            <DistanceMeters>NAN</DistanceMeters>
          </Trackpoint>
          <Trackpoint>
            <Time>2019-10-07T11:30:59.000Z</Time>
            <Position>
              <LatitudeDegrees>40.46240600757300853729248046875</LatitudeDegrees>
              <LongitudeDegrees>-5.67842767573893070220947265625</LongitudeDegrees>
            </Position>
            <AltitudeMeters>1020.5999755859375</AltitudeMeters>
            <DistanceMeters>NAN</DistanceMeters>
          </Trackpoint>
          <Trackpoint>
            <Time>2019-10-07T11:31:02.000Z</Time>
            <Position>
              <LatitudeDegrees>40.46228128485381603240966796875</LatitudeDegrees>
              <LongitudeDegrees>-5.67836187779903411865234375</LongitudeDegrees>
            </Position>
            <AltitudeMeters>1021</AltitudeMeters>
            <DistanceMeters>NAN</DistanceMeters>
          </Trackpoint>
          <Trackpoint>
            <Time>2019-10-07T11:31:09.000Z</Time>
            <Position>
              <LatitudeDegrees>40.46195514500141143798828125</LatitudeDegrees>
              <LongitudeDegrees>-5.67823941819369792938232421875</LongitudeDegrees>
            </Position>
            <AltitudeMeters>1020.20001220703125</AltitudeMeters>
            <DistanceMeters>NAN</DistanceMeters>
          </Trackpoint>
          <Trackpoint>
            <Time>2019-10-07T11:31:10.000Z</Time>
            <Position>
              <LatitudeDegrees>40.4619036801159381866455078125</LatitudeDegrees>
              <LongitudeDegrees>-5.678226090967655181884765625</LongitudeDegrees>
            </Position>
            <AltitudeMeters>1019.79998779296875</AltitudeMeters>
            <DistanceMeters>NAN</DistanceMeters>
          </Trackpoint>
          <Trackpoint>
            <Time>2019-10-07T11:31:17.000Z</Time>
            <Position>
              <LatitudeDegrees>40.4615097306668758392333984375</LatitudeDegrees>
              <LongitudeDegrees>-5.67818862386047840118408203125</LongitudeDegrees>
            </Position>
            <AltitudeMeters>1019.4000244140625</AltitudeMeters>
            <DistanceMeters>NAN</DistanceMeters>
          </Trackpoint>
          <Trackpoint>
            <Time>2019-10-07T11:31:19.000Z</Time>
            <Position>
              <LatitudeDegrees>40.461388528347015380859375</LatitudeDegrees>
              <LongitudeDegrees>-5.67820169962942600250244140625</LongitudeDegrees>
            </Position>
            <AltitudeMeters>1018.79998779296875</AltitudeMeters>
            <DistanceMeters>NAN</DistanceMeters>
          </Trackpoint>
          <Trackpoint>
            <Time>2019-10-07T11:31:23.000Z</Time>
            <Position>
              <LatitudeDegrees>40.46114855445921421051025390625</LatitudeDegrees>
              <LongitudeDegrees>-5.67824511788785457611083984375</LongitudeDegrees>
            </Position>
            <AltitudeMeters>1018.5999755859375</AltitudeMeters>
            <DistanceMeters>NAN</DistanceMeters>
          </Trackpoint>
          <Trackpoint>
            <Time>2019-10-07T11:31:25.000Z</Time>
            <Position>
              <LatitudeDegrees>40.46103389002382755279541015625</LatitudeDegrees>
              <LongitudeDegrees>-5.67827244289219379425048828125</LongitudeDegrees>
            </Position>
            <AltitudeMeters>1018.5999755859375</AltitudeMeters>
            <DistanceMeters>NAN</DistanceMeters>
          </Trackpoint>
          <Trackpoint>
            <Time>2019-10-07T11:31:32.000Z</Time>
            <Position>
              <LatitudeDegrees>40.4606557823717594146728515625</LatitudeDegrees>
              <LongitudeDegrees>-5.67839180119335651397705078125</LongitudeDegrees>
            </Position>
            <AltitudeMeters>1019.20001220703125</AltitudeMeters>
            <DistanceMeters>NAN</DistanceMeters>
          </Trackpoint>
          <Trackpoint>
            <Time>2019-10-07T11:31:33.000Z</Time>
            <Position>
              <LatitudeDegrees>40.46060264110565185546875</LatitudeDegrees>
              <LongitudeDegrees>-5.67840554751455783843994140625</LongitudeDegrees>
            </Position>
            <AltitudeMeters>1019.5999755859375</AltitudeMeters>
            <DistanceMeters>NAN</DistanceMeters>
          </Trackpoint>
          <Trackpoint>
            <Time>2019-10-07T11:31:35.000Z</Time>
            <Position>
              <LatitudeDegrees>40.460497029125690460205078125</LatitudeDegrees>
              <LongitudeDegrees>-5.67844209261238574981689453125</LongitudeDegrees>
            </Position>
            <AltitudeMeters>1020</AltitudeMeters>
            <DistanceMeters>NAN</DistanceMeters>
          </Trackpoint>
          <Trackpoint>
            <Time>2019-10-07T11:31:37.000Z</Time>
            <Position>
              <LatitudeDegrees>40.46038831584155559539794921875</LatitudeDegrees>
              <LongitudeDegrees>-5.67848869599401950836181640625</LongitudeDegrees>
            </Position>
            <AltitudeMeters>1019.5999755859375</AltitudeMeters>
            <DistanceMeters>NAN</DistanceMeters>
          </Trackpoint>
          <Trackpoint>
            <Time>2019-10-07T11:31:38.000Z</Time>
            <Position>
              <LatitudeDegrees>40.4603335820138454437255859375</LatitudeDegrees>
              <LongitudeDegrees>-5.67851384170353412628173828125</LongitudeDegrees>
            </Position>
            <AltitudeMeters>1019.4000244140625</AltitudeMeters>
            <DistanceMeters>NAN</DistanceMeters>
          </Trackpoint>
          <Trackpoint>
            <Time>2019-10-07T11:31:44.000Z</Time>
            <Position>
              <LatitudeDegrees>40.45999084599316120147705078125</LatitudeDegrees>
              <LongitudeDegrees>-5.67868047393858432769775390625</LongitudeDegrees>
            </Position>
            <AltitudeMeters>1018.79998779296875</AltitudeMeters>
            <DistanceMeters>NAN</DistanceMeters>
          </Trackpoint>
          <Trackpoint>
            <Time>2019-10-07T11:31:47.000Z</Time>
            <Position>
              <LatitudeDegrees>40.45980862341821193695068359375</LatitudeDegrees>
              <LongitudeDegrees>-5.67877359688282012939453125</LongitudeDegrees>
            </Position>
            <AltitudeMeters>1017.79998779296875</AltitudeMeters>
            <DistanceMeters>NAN</DistanceMeters>
          </Trackpoint>
          <Trackpoint>
            <Time>2019-10-07T11:31:54.000Z</Time>
            <Position>
              <LatitudeDegrees>40.45933202840387821197509765625</LatitudeDegrees>
              <LongitudeDegrees>-5.6790156662464141845703125</LongitudeDegrees>
            </Position>
            <AltitudeMeters>1016.79998779296875</AltitudeMeters>
            <DistanceMeters>NAN</DistanceMeters>
          </Trackpoint>
          <Trackpoint>
            <Time>2019-10-07T11:31:55.000Z</Time>
            <Position>
              <LatitudeDegrees>40.45925893820822238922119140625</LatitudeDegrees>
              <LongitudeDegrees>-5.679052211344242095947265625</LongitudeDegrees>
            </Position>
            <AltitudeMeters>1016.20001220703125</AltitudeMeters>
            <DistanceMeters>NAN</DistanceMeters>
          </Trackpoint>
          <Trackpoint>
            <Time>2019-10-07T11:31:56.000Z</Time>
            <Position>
              <LatitudeDegrees>40.4591852612793445587158203125</LatitudeDegrees>
              <LongitudeDegrees>-5.67908816970884799957275390625</LongitudeDegrees>
            </Position>
            <AltitudeMeters>1015.5999755859375</AltitudeMeters>
            <DistanceMeters>NAN</DistanceMeters>
          </Trackpoint>
          <Trackpoint>
            <Time>2019-10-07T11:32:00.000Z</Time>
            <Position>
              <LatitudeDegrees>40.4588846862316131591796875</LatitudeDegrees>
              <LongitudeDegrees>-5.6792444922029972076416015625</LongitudeDegrees>
            </Position>
            <AltitudeMeters>1014.4000244140625</AltitudeMeters>
            <DistanceMeters>NAN</DistanceMeters>
          </Trackpoint>
          <Trackpoint>
            <Time>2019-10-07T11:32:02.000Z</Time>
            <Position>
              <LatitudeDegrees>40.458737500011920928955078125</LatitudeDegrees>
              <LongitudeDegrees>-5.67933090962469577789306640625</LongitudeDegrees>
            </Position>
            <AltitudeMeters>1014.20001220703125</AltitudeMeters>
            <DistanceMeters>NAN</DistanceMeters>
          </Trackpoint>
          <Trackpoint>
            <Time>2019-10-07T11:32:04.000Z</Time>
            <Position>
              <LatitudeDegrees>40.45859056524932384490966796875</LatitudeDegrees>
              <LongitudeDegrees>-5.67940148524940013885498046875</LongitudeDegrees>
            </Position>
            <AltitudeMeters>1013.5999755859375</AltitudeMeters>
            <DistanceMeters>NAN</DistanceMeters>
          </Trackpoint>
          <Trackpoint>
            <Time>2019-10-07T11:32:06.000Z</Time>
            <Position>
              <LatitudeDegrees>40.45845142565667629241943359375</LatitudeDegrees>
              <LongitudeDegrees>-5.67948178388178348541259765625</LongitudeDegrees>
            </Position>
            <AltitudeMeters>1013.79998779296875</AltitudeMeters>
            <DistanceMeters>NAN</DistanceMeters>
          </Trackpoint>
          <Trackpoint>
            <Time>2019-10-07T11:32:07.000Z</Time>
            <Position>
              <LatitudeDegrees>40.45838369987905025482177734375</LatitudeDegrees>
              <LongitudeDegrees>-5.6795237772166728973388671875</LongitudeDegrees>
            </Position>
            <AltitudeMeters>1014</AltitudeMeters>
            <DistanceMeters>NAN</DistanceMeters>
          </Trackpoint>
          <Trackpoint>
            <Time>2019-10-07T11:32:08.000Z</Time>
            <Position>
              <LatitudeDegrees>40.4583172313868999481201171875</LatitudeDegrees>
              <LongitudeDegrees>-5.67955722101032733917236328125</LongitudeDegrees>
            </Position>
            <AltitudeMeters>1014.20001220703125</AltitudeMeters>
            <DistanceMeters>NAN</DistanceMeters>
          </Trackpoint>
          <Trackpoint>
            <Time>2019-10-07T11:32:10.000Z</Time>
            <Position>
              <LatitudeDegrees>40.45818840153515338897705078125</LatitudeDegrees>
              <LongitudeDegrees>-5.67962226457893848419189453125</LongitudeDegrees>
            </Position>
            <AltitudeMeters>1013.4000244140625</AltitudeMeters>
            <DistanceMeters>NAN</DistanceMeters>
          </Trackpoint>
          <Trackpoint>
            <Time>2019-10-07T11:32:15.000Z</Time>
            <Position>
              <LatitudeDegrees>40.457855053246021270751953125</LatitudeDegrees>
              <LongitudeDegrees>-5.67978789098560810089111328125</LongitudeDegrees>
            </Position>
            <AltitudeMeters>1013.4000244140625</AltitudeMeters>
            <DistanceMeters>NAN</DistanceMeters>
          </Trackpoint>
          <Trackpoint>
            <Time>2019-10-07T11:32:17.000Z</Time>
            <Position>
              <LatitudeDegrees>40.45770677737891674041748046875</LatitudeDegrees>
              <LongitudeDegrees>-5.67986014299094676971435546875</LongitudeDegrees>
            </Position>
            <AltitudeMeters>1012</AltitudeMeters>
            <DistanceMeters>NAN</DistanceMeters>
          </Trackpoint>
          <Trackpoint>
            <Time>2019-10-07T11:32:19.000Z</Time>
            <Position>
              <LatitudeDegrees>40.457555316388607025146484375</LatitudeDegrees>
              <LongitudeDegrees>-5.67993675358593463897705078125</LongitudeDegrees>
            </Position>
            <AltitudeMeters>1012</AltitudeMeters>
            <DistanceMeters>NAN</DistanceMeters>
          </Trackpoint>
          <Trackpoint>
            <Time>2019-10-07T11:32:22.000Z</Time>
            <Position>
              <LatitudeDegrees>40.45732405968010425567626953125</LatitudeDegrees>
              <LongitudeDegrees>-5.6800572015345096588134765625</LongitudeDegrees>
            </Position>
            <AltitudeMeters>1010.5999755859375</AltitudeMeters>
            <DistanceMeters>NAN</DistanceMeters>
          </Trackpoint>
          <Trackpoint>
            <Time>2019-10-07T11:32:26.000Z</Time>
            <Position>
              <LatitudeDegrees>40.45702599920332431793212890625</LatitudeDegrees>
              <LongitudeDegrees>-5.68020883016288280487060546875</LongitudeDegrees>
            </Position>
            <AltitudeMeters>1010.20001220703125</AltitudeMeters>
            <DistanceMeters>NAN</DistanceMeters>
          </Trackpoint>
          <Trackpoint>
            <Time>2019-10-07T11:32:27.000Z</Time>
            <Position>
              <LatitudeDegrees>40.456955172121524810791015625</LatitudeDegrees>
              <LongitudeDegrees>-5.6802412681281566619873046875</LongitudeDegrees>
            </Position>
            <AltitudeMeters>1010.4000244140625</AltitudeMeters>
            <DistanceMeters>NAN</DistanceMeters>
          </Trackpoint>
          <Trackpoint>
            <Time>2019-10-07T11:32:28.000Z</Time>
            <Position>
              <LatitudeDegrees>40.4568850994110107421875</LatitudeDegrees>
              <LongitudeDegrees>-5.6802763044834136962890625</LongitudeDegrees>
            </Position>
            <AltitudeMeters>1010.4000244140625</AltitudeMeters>
            <DistanceMeters>NAN</DistanceMeters>
          </Trackpoint>
          <Trackpoint>
            <Time>2019-10-07T11:32:29.000Z</Time>
            <Position>
              <LatitudeDegrees>40.45682131312787532806396484375</LatitudeDegrees>
              <LongitudeDegrees>-5.6803219020366668701171875</LongitudeDegrees>
            </Position>
            <AltitudeMeters>1010.20001220703125</AltitudeMeters>
            <DistanceMeters>NAN</DistanceMeters>
          </Trackpoint>
          <Trackpoint>
            <Time>2019-10-07T11:32:32.000Z</Time>
            <Position>
              <LatitudeDegrees>40.456621237099170684814453125</LatitudeDegrees>
              <LongitudeDegrees>-5.680426172912120819091796875</LongitudeDegrees>
            </Position>
            <AltitudeMeters>1010.79998779296875</AltitudeMeters>
            <DistanceMeters>NAN</DistanceMeters>
          </Trackpoint>
          <Trackpoint>
            <Time>2019-10-07T11:32:34.000Z</Time>
            <Position>
              <LatitudeDegrees>40.45648880302906036376953125</LatitudeDegrees>
              <LongitudeDegrees>-5.680488534271717071533203125</LongitudeDegrees>
            </Position>
            <AltitudeMeters>1010.5999755859375</AltitudeMeters>
            <DistanceMeters>NAN</DistanceMeters>
          </Trackpoint>
          <Trackpoint>
            <Time>2019-10-07T11:32:35.000Z</Time>
            <Position>
              <LatitudeDegrees>40.45642116107046604156494140625</LatitudeDegrees>
              <LongitudeDegrees>-5.68052415736019611358642578125</LongitudeDegrees>
            </Position>
            <AltitudeMeters>1010.4000244140625</AltitudeMeters>
            <DistanceMeters>NAN</DistanceMeters>
          </Trackpoint>
          <Trackpoint>
            <Time>2019-10-07T11:32:38.000Z</Time>
            <Position>
              <LatitudeDegrees>40.4562321491539478302001953125</LatitudeDegrees>
              <LongitudeDegrees>-5.6806405819952487945556640625</LongitudeDegrees>
            </Position>
            <AltitudeMeters>1009.4000244140625</AltitudeMeters>
            <DistanceMeters>NAN</DistanceMeters>
          </Trackpoint>
          <Trackpoint>
            <Time>2019-10-07T11:32:41.000Z</Time>
            <Position>
              <LatitudeDegrees>40.45603626407682895660400390625</LatitudeDegrees>
              <LongitudeDegrees>-5.680745355784893035888671875</LongitudeDegrees>
            </Position>
            <AltitudeMeters>1009.20001220703125</AltitudeMeters>
            <DistanceMeters>NAN</DistanceMeters>
          </Trackpoint>
          <Trackpoint>
            <Time>2019-10-07T11:32:49.000Z</Time>
            <Position>
              <LatitudeDegrees>40.4555059410631656646728515625</LatitudeDegrees>
              <LongitudeDegrees>-5.68103545345366001129150390625</LongitudeDegrees>
            </Position>
            <AltitudeMeters>1008.4000244140625</AltitudeMeters>
            <DistanceMeters>NAN</DistanceMeters>
          </Trackpoint>
          <Trackpoint>
            <Time>2019-10-07T11:32:50.000Z</Time>
            <Position>
              <LatitudeDegrees>40.455437041819095611572265625</LatitudeDegrees>
              <LongitudeDegrees>-5.6810720823705196380615234375</LongitudeDegrees>
            </Position>
            <AltitudeMeters>1008.5999755859375</AltitudeMeters>
            <DistanceMeters>NAN</DistanceMeters>
          </Trackpoint>
          <Trackpoint>
            <Time>2019-10-07T11:32:55.000Z</Time>
            <Position>
              <LatitudeDegrees>40.4551009275019168853759765625</LatitudeDegrees>
              <LongitudeDegrees>-5.68124650977551937103271484375</LongitudeDegrees>
            </Position>
            <AltitudeMeters>1007.79998779296875</AltitudeMeters>
            <DistanceMeters>NAN</DistanceMeters>
          </Trackpoint>
          <Trackpoint>
            <Time>2019-10-07T11:33:02.000Z</Time>
            <Position>
              <LatitudeDegrees>40.454631708562374114990234375</LatitudeDegrees>
              <LongitudeDegrees>-5.6814873218536376953125</LongitudeDegrees>
            </Position>
            <AltitudeMeters>1007.5999755859375</AltitudeMeters>
            <DistanceMeters>NAN</DistanceMeters>
          </Trackpoint>
          <Trackpoint>
            <Time>2019-10-07T11:33:03.000Z</Time>
            <Position>
              <LatitudeDegrees>40.45456507243216037750244140625</LatitudeDegrees>
              <LongitudeDegrees>-5.681519843637943267822265625</LongitudeDegrees>
            </Position>
            <AltitudeMeters>1007</AltitudeMeters>
            <DistanceMeters>NAN</DistanceMeters>
          </Trackpoint>
          <Trackpoint>
            <Time>2019-10-07T11:33:09.000Z</Time>
            <Position>
              <LatitudeDegrees>40.4541658423840999603271484375</LatitudeDegrees>
              <LongitudeDegrees>-5.68172293715178966522216796875</LongitudeDegrees>
            </Position>
            <AltitudeMeters>1007.4000244140625</AltitudeMeters>
            <DistanceMeters>NAN</DistanceMeters>
          </Trackpoint>
          <Trackpoint>
            <Time>2019-10-07T11:33:16.000Z</Time>
            <Position>
              <LatitudeDegrees>40.4537366889417171478271484375</LatitudeDegrees>
              <LongitudeDegrees>-5.68197305314242839813232421875</LongitudeDegrees>
            </Position>
            <AltitudeMeters>1007.20001220703125</AltitudeMeters>
            <DistanceMeters>NAN</DistanceMeters>
          </Trackpoint>
          <Trackpoint>
            <Time>2019-10-07T11:33:19.000Z</Time>
            <Position>
              <LatitudeDegrees>40.45356309972703456878662109375</LatitudeDegrees>
              <LongitudeDegrees>-5.68207832984626293182373046875</LongitudeDegrees>
            </Position>
            <AltitudeMeters>1007</AltitudeMeters>
            <DistanceMeters>NAN</DistanceMeters>
          </Trackpoint>
          <Trackpoint>
            <Time>2019-10-07T11:33:23.000Z</Time>
            <Position>
              <LatitudeDegrees>40.45334919355809688568115234375</LatitudeDegrees>
              <LongitudeDegrees>-5.682226605713367462158203125</LongitudeDegrees>
            </Position>
            <AltitudeMeters>1008.20001220703125</AltitudeMeters>
            <DistanceMeters>NAN</DistanceMeters>
          </Trackpoint>
          <Trackpoint>
            <Time>2019-10-07T11:33:29.000Z</Time>
            <Position>
              <LatitudeDegrees>40.453078038990497589111328125</LatitudeDegrees>
              <LongitudeDegrees>-5.6824165396392345428466796875</LongitudeDegrees>
            </Position>
            <AltitudeMeters>1009.20001220703125</AltitudeMeters>
            <DistanceMeters>NAN</DistanceMeters>
          </Trackpoint>
          <Trackpoint>
            <Time>2019-10-07T11:33:34.000Z</Time>
            <Position>
              <LatitudeDegrees>40.45291048474609851837158203125</LatitudeDegrees>
              <LongitudeDegrees>-5.68255073390901088714599609375</LongitudeDegrees>
            </Position>
            <AltitudeMeters>1010.5999755859375</AltitudeMeters>
            <DistanceMeters>NAN</DistanceMeters>
          </Trackpoint>
          <Trackpoint>
            <Time>2019-10-07T11:33:35.000Z</Time>
            <Position>
              <LatitudeDegrees>40.45287595130503177642822265625</LatitudeDegrees>
              <LongitudeDegrees>-5.682579316198825836181640625</LongitudeDegrees>
            </Position>
            <AltitudeMeters>1010.5999755859375</AltitudeMeters>
            <DistanceMeters>NAN</DistanceMeters>
          </Trackpoint>
          <Trackpoint>
            <Time>2019-10-07T11:33:40.000Z</Time>
            <Position>
              <LatitudeDegrees>40.45270630158483982086181640625</LatitudeDegrees>
              <LongitudeDegrees>-5.68272289820015430450439453125</LongitudeDegrees>
            </Position>
            <AltitudeMeters>1011.20001220703125</AltitudeMeters>
            <DistanceMeters>NAN</DistanceMeters>
          </Trackpoint>
          <Trackpoint>
            <Time>2019-10-07T11:33:44.000Z</Time>
            <Position>
              <LatitudeDegrees>40.45258174650371074676513671875</LatitudeDegrees>
              <LongitudeDegrees>-5.68282532505691051483154296875</LongitudeDegrees>
            </Position>
            <AltitudeMeters>1011.79998779296875</AltitudeMeters>
            <DistanceMeters>NAN</DistanceMeters>
          </Trackpoint>
          <Trackpoint>
            <Time>2019-10-07T11:33:45.000Z</Time>
            <Position>
              <LatitudeDegrees>40.452557019889354705810546875</LatitudeDegrees>
              <LongitudeDegrees>-5.6828404963016510009765625</LongitudeDegrees>
            </Position>
            <AltitudeMeters>1012.20001220703125</AltitudeMeters>
            <DistanceMeters>NAN</DistanceMeters>
          </Trackpoint>
          <Trackpoint>
            <Time>2019-10-07T11:33:49.000Z</Time>
            <Position>
              <LatitudeDegrees>40.452449731528759002685546875</LatitudeDegrees>
              <LongitudeDegrees>-5.6829328648746013641357421875</LongitudeDegrees>
            </Position>
            <AltitudeMeters>1013</AltitudeMeters>
            <DistanceMeters>NAN</DistanceMeters>
          </Trackpoint>
          <Trackpoint>
            <Time>2019-10-07T11:33:53.000Z</Time>
            <Position>
              <LatitudeDegrees>40.45234613120555877685546875</LatitudeDegrees>
              <LongitudeDegrees>-5.68303604610264301300048828125</LongitudeDegrees>
            </Position>
            <AltitudeMeters>1013.79998779296875</AltitudeMeters>
            <DistanceMeters>NAN</DistanceMeters>
          </Trackpoint>
          <Trackpoint>
            <Time>2019-10-07T11:33:55.000Z</Time>
            <Position>
              <LatitudeDegrees>40.45229961164295673370361328125</LatitudeDegrees>
              <LongitudeDegrees>-5.68308181129395961761474609375</LongitudeDegrees>
            </Position>
            <AltitudeMeters>1014</AltitudeMeters>
            <DistanceMeters>NAN</DistanceMeters>
          </Trackpoint>
          <Trackpoint>
            <Time>2019-10-07T11:33:59.000Z</Time>
            <Position>
              <LatitudeDegrees>40.45220623724162578582763671875</LatitudeDegrees>
              <LongitudeDegrees>-5.683178789913654327392578125</LongitudeDegrees>
            </Position>
            <AltitudeMeters>1014.79998779296875</AltitudeMeters>
            <DistanceMeters>NAN</DistanceMeters>
          </Trackpoint>
          <Trackpoint>
            <Time>2019-10-07T11:34:00.000Z</Time>
            <Position>
              <LatitudeDegrees>40.45218343846499919891357421875</LatitudeDegrees>
              <LongitudeDegrees>-5.68320586346089839935302734375</LongitudeDegrees>
            </Position>
            <AltitudeMeters>1015.20001220703125</AltitudeMeters>
            <DistanceMeters>NAN</DistanceMeters>
          </Trackpoint>
          <Trackpoint>
            <Time>2019-10-07T11:34:01.000Z</Time>
            <Position>
              <LatitudeDegrees>40.45216332189738750457763671875</LatitudeDegrees>
              <LongitudeDegrees>-5.6832352839410305023193359375</LongitudeDegrees>
            </Position>
            <AltitudeMeters>1015.20001220703125</AltitudeMeters>
            <DistanceMeters>NAN</DistanceMeters>
          </Trackpoint>
          <Trackpoint>
            <Time>2019-10-07T11:34:05.000Z</Time>
            <Position>
              <LatitudeDegrees>40.452084280550479888916015625</LatitudeDegrees>
              <LongitudeDegrees>-5.68335170857608318328857421875</LongitudeDegrees>
            </Position>
            <AltitudeMeters>1016.20001220703125</AltitudeMeters>
            <DistanceMeters>NAN</DistanceMeters>
          </Trackpoint>
          <Trackpoint>
            <Time>2019-10-07T11:34:10.000Z</Time>
            <Position>
              <LatitudeDegrees>40.4520036466419696807861328125</LatitudeDegrees>
              <LongitudeDegrees>-5.6834961287677288055419921875</LongitudeDegrees>
            </Position>
            <AltitudeMeters>1016.79998779296875</AltitudeMeters>
            <DistanceMeters>NAN</DistanceMeters>
          </Trackpoint>
          <Trackpoint>
            <Time>2019-10-07T11:34:13.000Z</Time>
            <Position>
              <LatitudeDegrees>40.451963581144809722900390625</LatitudeDegrees>
              <LongitudeDegrees>-5.683593191206455230712890625</LongitudeDegrees>
            </Position>
            <AltitudeMeters>1017.4000244140625</AltitudeMeters>
            <DistanceMeters>NAN</DistanceMeters>
          </Trackpoint>
          <Trackpoint>
            <Time>2019-10-07T11:34:18.000Z</Time>
            <Position>
              <LatitudeDegrees>40.45190180651843547821044921875</LatitudeDegrees>
              <LongitudeDegrees>-5.68377189338207244873046875</LongitudeDegrees>
            </Position>
            <AltitudeMeters>1018</AltitudeMeters>
            <DistanceMeters>NAN</DistanceMeters>
          </Trackpoint>
          <Trackpoint>
            <Time>2019-10-07T11:34:20.000Z</Time>
            <Position>
              <LatitudeDegrees>40.4518760740756988525390625</LatitudeDegrees>
              <LongitudeDegrees>-5.683843307197093963623046875</LongitudeDegrees>
            </Position>
            <AltitudeMeters>1018.4000244140625</AltitudeMeters>
            <DistanceMeters>NAN</DistanceMeters>
          </Trackpoint>
          <Trackpoint>
            <Time>2019-10-07T11:34:26.000Z</Time>
            <Position>
              <LatitudeDegrees>40.4517759941518306732177734375</LatitudeDegrees>
              <LongitudeDegrees>-5.6840483285486698150634765625</LongitudeDegrees>
            </Position>
            <AltitudeMeters>1019.5999755859375</AltitudeMeters>
            <DistanceMeters>NAN</DistanceMeters>
          </Trackpoint>
          <Trackpoint>
            <Time>2019-10-07T11:34:27.000Z</Time>
            <Position>
              <LatitudeDegrees>40.4517572186887264251708984375</LatitudeDegrees>
              <LongitudeDegrees>-5.6840796768665313720703125</LongitudeDegrees>
            </Position>
            <AltitudeMeters>1019.79998779296875</AltitudeMeters>
            <DistanceMeters>NAN</DistanceMeters>
          </Trackpoint>
          <Trackpoint>
            <Time>2019-10-07T11:34:30.000Z</Time>
            <Position>
              <LatitudeDegrees>40.45169712044298648834228515625</LatitudeDegrees>
              <LongitudeDegrees>-5.684177912771701812744140625</LongitudeDegrees>
            </Position>
            <AltitudeMeters>1020.5999755859375</AltitudeMeters>
            <DistanceMeters>NAN</DistanceMeters>
          </Trackpoint>
          <Trackpoint>
            <Time>2019-10-07T11:34:35.000Z</Time>
            <Position>
              <LatitudeDegrees>40.45159804634749889373779296875</LatitudeDegrees>
              <LongitudeDegrees>-5.68433113396167755126953125</LongitudeDegrees>
            </Position>
            <AltitudeMeters>1021</AltitudeMeters>
            <DistanceMeters>NAN</DistanceMeters>
          </Trackpoint>
          <Trackpoint>
            <Time>2019-10-07T11:34:38.000Z</Time>
            <Position>
              <LatitudeDegrees>40.45152671635150909423828125</LatitudeDegrees>
              <LongitudeDegrees>-5.68439818918704986572265625</LongitudeDegrees>
            </Position>
            <AltitudeMeters>1021.5999755859375</AltitudeMeters>
            <DistanceMeters>NAN</DistanceMeters>
          </Trackpoint>
          <Trackpoint>
            <Time>2019-10-07T11:34:41.000Z</Time>
            <Position>
              <LatitudeDegrees>40.4514387063682079315185546875</LatitudeDegrees>
              <LongitudeDegrees>-5.6844392605125904083251953125</LongitudeDegrees>
            </Position>
            <AltitudeMeters>1022</AltitudeMeters>
            <DistanceMeters>NAN</DistanceMeters>
          </Trackpoint>
          <Trackpoint>
            <Time>2019-10-07T11:34:45.000Z</Time>
            <Position>
              <LatitudeDegrees>40.45131205581128597259521484375</LatitudeDegrees>
              <LongitudeDegrees>-5.6844486482441425323486328125</LongitudeDegrees>
            </Position>
            <AltitudeMeters>1022.5999755859375</AltitudeMeters>
            <DistanceMeters>NAN</DistanceMeters>
          </Trackpoint>
          <Trackpoint>
            <Time>2019-10-07T11:34:47.000Z</Time>
            <Position>
              <LatitudeDegrees>40.451251454651355743408203125</LatitudeDegrees>
              <LongitudeDegrees>-5.68441319279372692108154296875</LongitudeDegrees>
            </Position>
            <AltitudeMeters>1022.5999755859375</AltitudeMeters>
            <DistanceMeters>NAN</DistanceMeters>
          </Trackpoint>
          <Trackpoint>
            <Time>2019-10-07T11:34:54.000Z</Time>
            <Position>
              <LatitudeDegrees>40.4510538093745708465576171875</LatitudeDegrees>
              <LongitudeDegrees>-5.6842481531202793121337890625</LongitudeDegrees>
            </Position>
            <AltitudeMeters>1023</AltitudeMeters>
            <DistanceMeters>NAN</DistanceMeters>
          </Trackpoint>
          <Trackpoint>
            <Time>2019-10-07T11:35:00.000Z</Time>
            <Position>
              <LatitudeDegrees>40.4509059526026248931884765625</LatitudeDegrees>
              <LongitudeDegrees>-5.68406953476369380950927734375</LongitudeDegrees>
            </Position>
            <AltitudeMeters>1023.4000244140625</AltitudeMeters>
            <DistanceMeters>NAN</DistanceMeters>
          </Trackpoint>
          <Trackpoint>
            <Time>2019-10-07T11:35:05.000Z</Time>
            <Position>
              <LatitudeDegrees>40.45088139362633228302001953125</LatitudeDegrees>
              <LongitudeDegrees>-5.6838287226855754852294921875</LongitudeDegrees>
            </Position>
            <AltitudeMeters>1022.5999755859375</AltitudeMeters>
            <DistanceMeters>NAN</DistanceMeters>
          </Trackpoint>
          <Trackpoint>
            <Time>2019-10-07T11:35:10.000Z</Time>
            <Position>
              <LatitudeDegrees>40.45084417797625064849853515625</LatitudeDegrees>
              <LongitudeDegrees>-5.6835383735597133636474609375</LongitudeDegrees>
            </Position>
            <AltitudeMeters>1021.5999755859375</AltitudeMeters>
            <DistanceMeters>NAN</DistanceMeters>
          </Trackpoint>
          <Trackpoint>
            <Time>2019-10-07T11:35:11.000Z</Time>
            <Position>
              <LatitudeDegrees>40.450827665627002716064453125</LatitudeDegrees>
              <LongitudeDegrees>-5.68347953259944915771484375</LongitudeDegrees>
            </Position>
            <AltitudeMeters>1021.4000244140625</AltitudeMeters>
            <DistanceMeters>NAN</DistanceMeters>
          </Trackpoint>
          <Trackpoint>
            <Time>2019-10-07T11:35:18.000Z</Time>
            <Position>
              <LatitudeDegrees>40.45069062151014804840087890625</LatitudeDegrees>
              <LongitudeDegrees>-5.68301894702017307281494140625</LongitudeDegrees>
            </Position>
            <AltitudeMeters>1020.5999755859375</AltitudeMeters>
            <DistanceMeters>NAN</DistanceMeters>
          </Trackpoint>
          <Trackpoint>
            <Time>2019-10-07T11:35:19.000Z</Time>
            <Position>
              <LatitudeDegrees>40.45066572725772857666015625</LatitudeDegrees>
              <LongitudeDegrees>-5.68294845521450042724609375</LongitudeDegrees>
            </Position>
            <AltitudeMeters>1020.79998779296875</AltitudeMeters>
            <DistanceMeters>NAN</DistanceMeters>
          </Trackpoint>
          <Trackpoint>
            <Time>2019-10-07T11:35:24.000Z</Time>
            <Position>
              <LatitudeDegrees>40.450544692575931549072265625</LatitudeDegrees>
              <LongitudeDegrees>-5.68255308084189891815185546875</LongitudeDegrees>
            </Position>
            <AltitudeMeters>1018.79998779296875</AltitudeMeters>
            <DistanceMeters>NAN</DistanceMeters>
          </Trackpoint>
          <Trackpoint>
            <Time>2019-10-07T11:35:26.000Z</Time>
            <Position>
              <LatitudeDegrees>40.450491048395633697509765625</LatitudeDegrees>
              <LongitudeDegrees>-5.68236549384891986846923828125</LongitudeDegrees>
            </Position>
            <AltitudeMeters>1017.20001220703125</AltitudeMeters>
            <DistanceMeters>NAN</DistanceMeters>
          </Trackpoint>
          <Trackpoint>
            <Time>2019-10-07T11:35:28.000Z</Time>
            <Position>
              <LatitudeDegrees>40.450435392558574676513671875</LatitudeDegrees>
              <LongitudeDegrees>-5.68216734565794467926025390625</LongitudeDegrees>
            </Position>
            <AltitudeMeters>1015.79998779296875</AltitudeMeters>
            <DistanceMeters>NAN</DistanceMeters>
          </Trackpoint>
          <Trackpoint>
            <Time>2019-10-07T11:35:30.000Z</Time>
            <Position>
              <LatitudeDegrees>40.4503825865685939788818359375</LatitudeDegrees>
              <LongitudeDegrees>-5.68196567706763744354248046875</LongitudeDegrees>
            </Position>
            <AltitudeMeters>1015.5999755859375</AltitudeMeters>
            <DistanceMeters>NAN</DistanceMeters>
          </Trackpoint>
          <Trackpoint>
            <Time>2019-10-07T11:35:32.000Z</Time>
            <Position>
              <LatitudeDegrees>40.4503222368657588958740234375</LatitudeDegrees>
              <LongitudeDegrees>-5.6817761622369289398193359375</LongitudeDegrees>
            </Position>
            <AltitudeMeters>1015.79998779296875</AltitudeMeters>
            <DistanceMeters>NAN</DistanceMeters>
          </Trackpoint>
          <Trackpoint>
            <Time>2019-10-07T11:35:33.000Z</Time>
            <Position>
              <LatitudeDegrees>40.4502685926854610443115234375</LatitudeDegrees>
              <LongitudeDegrees>-5.68171421997249126434326171875</LongitudeDegrees>
            </Position>
            <AltitudeMeters>1015.5999755859375</AltitudeMeters>
            <DistanceMeters>NAN</DistanceMeters>
          </Trackpoint>
          <Trackpoint>
            <Time>2019-10-07T11:35:35.000Z</Time>
            <Position>
              <LatitudeDegrees>40.45014043338596820831298828125</LatitudeDegrees>
              <LongitudeDegrees>-5.68166744895279407501220703125</LongitudeDegrees>
            </Position>
            <AltitudeMeters>1015.79998779296875</AltitudeMeters>
            <DistanceMeters>NAN</DistanceMeters>
          </Trackpoint>
          <Trackpoint>
            <Time>2019-10-07T11:35:36.000Z</Time>
            <Position>
              <LatitudeDegrees>40.4500838555395603179931640625</LatitudeDegrees>
              <LongitudeDegrees>-5.68165739066898822784423828125</LongitudeDegrees>
            </Position>
            <AltitudeMeters>1016.4000244140625</AltitudeMeters>
            <DistanceMeters>NAN</DistanceMeters>
          </Trackpoint>
          <Trackpoint>
            <Time>2019-10-07T11:35:38.000Z</Time>
            <Position>
              <LatitudeDegrees>40.44998201541602611541748046875</LatitudeDegrees>
              <LongitudeDegrees>-5.6817557103931903839111328125</LongitudeDegrees>
            </Position>
            <AltitudeMeters>1016.20001220703125</AltitudeMeters>
            <DistanceMeters>NAN</DistanceMeters>
          </Trackpoint>
          <Trackpoint>
            <Time>2019-10-07T11:35:40.000Z</Time>
            <Position>
              <LatitudeDegrees>40.4499678499996662139892578125</LatitudeDegrees>
              <LongitudeDegrees>-5.68192251026630401611328125</LongitudeDegrees>
            </Position>
            <AltitudeMeters>1016</AltitudeMeters>
            <DistanceMeters>NAN</DistanceMeters>
          </Trackpoint>
          <Trackpoint>
            <Time>2019-10-07T11:35:43.000Z</Time>
            <Position>
              <LatitudeDegrees>40.45005929656326770782470703125</LatitudeDegrees>
              <LongitudeDegrees>-5.6821278668940067291259765625</LongitudeDegrees>
            </Position>
            <AltitudeMeters>1015.5999755859375</AltitudeMeters>
            <DistanceMeters>NAN</DistanceMeters>
          </Trackpoint>
          <Trackpoint>
            <Time>2019-10-07T11:35:44.000Z</Time>
            <Position>
              <LatitudeDegrees>40.45009131543338298797607421875</LatitudeDegrees>
              <LongitudeDegrees>-5.6821959279477596282958984375</LongitudeDegrees>
            </Position>
            <AltitudeMeters>1015.5999755859375</AltitudeMeters>
            <DistanceMeters>NAN</DistanceMeters>
          </Trackpoint>
          <Trackpoint>
            <Time>2019-10-07T11:35:48.000Z</Time>
            <Position>
              <LatitudeDegrees>40.450198352336883544921875</LatitudeDegrees>
              <LongitudeDegrees>-5.68247345276176929473876953125</LongitudeDegrees>
            </Position>
            <AltitudeMeters>1016.20001220703125</AltitudeMeters>
            <DistanceMeters>NAN</DistanceMeters>
          </Trackpoint>
          <Trackpoint>
            <Time>2019-10-07T11:35:50.000Z</Time>
            <Position>
              <LatitudeDegrees>40.450222827494144439697265625</LatitudeDegrees>
              <LongitudeDegrees>-5.6826260872185230255126953125</LongitudeDegrees>
            </Position>
            <AltitudeMeters>1016.20001220703125</AltitudeMeters>
            <DistanceMeters>NAN</DistanceMeters>
          </Trackpoint>
          <Trackpoint>
            <Time>2019-10-07T11:35:53.000Z</Time>
            <Position>
              <LatitudeDegrees>40.45017412863671779632568359375</LatitudeDegrees>
              <LongitudeDegrees>-5.6828523986041545867919921875</LongitudeDegrees>
            </Position>
            <AltitudeMeters>1016.5999755859375</AltitudeMeters>
            <DistanceMeters>NAN</DistanceMeters>
          </Trackpoint>
          <Trackpoint>
            <Time>2019-10-07T11:35:56.000Z</Time>
            <Position>
              <LatitudeDegrees>40.450058877468109130859375</LatitudeDegrees>
              <LongitudeDegrees>-5.683030597865581512451171875</LongitudeDegrees>
            </Position>
            <AltitudeMeters>1016.5999755859375</AltitudeMeters>
            <DistanceMeters>NAN</DistanceMeters>
          </Trackpoint>
          <Trackpoint>
            <Time>2019-10-07T11:35:57.000Z</Time>
            <Position>
              <LatitudeDegrees>40.45001721940934658050537109375</LatitudeDegrees>
              <LongitudeDegrees>-5.68308348767459392547607421875</LongitudeDegrees>
            </Position>
            <AltitudeMeters>1017</AltitudeMeters>
            <DistanceMeters>NAN</DistanceMeters>
          </Trackpoint>
          <Trackpoint>
            <Time>2019-10-07T11:36:00.000Z</Time>
            <Position>
              <LatitudeDegrees>40.44988545589148998260498046875</LatitudeDegrees>
              <LongitudeDegrees>-5.68322069942951202392578125</LongitudeDegrees>
            </Position>
            <AltitudeMeters>1017.4000244140625</AltitudeMeters>
            <DistanceMeters>NAN</DistanceMeters>
          </Trackpoint>
          <Trackpoint>
            <Time>2019-10-07T11:36:03.000Z</Time>
            <Position>
              <LatitudeDegrees>40.449755452573299407958984375</LatitudeDegrees>
              <LongitudeDegrees>-5.68332790397107601165771484375</LongitudeDegrees>
            </Position>
            <AltitudeMeters>1018</AltitudeMeters>
            <DistanceMeters>NAN</DistanceMeters>
          </Trackpoint>
          <Trackpoint>
            <Time>2019-10-07T11:36:05.000Z</Time>
            <Position>
              <LatitudeDegrees>40.4496654309332370758056640625</LatitudeDegrees>
              <LongitudeDegrees>-5.68338188342750072479248046875</LongitudeDegrees>
            </Position>
            <AltitudeMeters>1018.20001220703125</AltitudeMeters>
            <DistanceMeters>NAN</DistanceMeters>
          </Trackpoint>
          <Trackpoint>
            <Time>2019-10-07T11:36:10.000Z</Time>
            <Position>
              <LatitudeDegrees>40.4494364373385906219482421875</LatitudeDegrees>
              <LongitudeDegrees>-5.68350627087056636810302734375</LongitudeDegrees>
            </Position>
            <AltitudeMeters>1019</AltitudeMeters>
            <DistanceMeters>NAN</DistanceMeters>
          </Trackpoint>
          <Trackpoint>
            <Time>2019-10-07T11:36:12.000Z</Time>
            <Position>
              <LatitudeDegrees>40.44934599660336971282958984375</LatitudeDegrees>
              <LongitudeDegrees>-5.6835524551570415496826171875</LongitudeDegrees>
            </Position>
            <AltitudeMeters>1019.20001220703125</AltitudeMeters>
            <DistanceMeters>NAN</DistanceMeters>
          </Trackpoint>
          <Trackpoint>
            <Time>2019-10-07T11:36:17.000Z</Time>
            <Position>
              <LatitudeDegrees>40.44912211596965789794921875</LatitudeDegrees>
              <LongitudeDegrees>-5.683672316372394561767578125</LongitudeDegrees>
            </Position>
            <AltitudeMeters>1020.20001220703125</AltitudeMeters>
            <DistanceMeters>NAN</DistanceMeters>
          </Trackpoint>
          <Trackpoint>
            <Time>2019-10-07T11:36:20.000Z</Time>
            <Position>
              <LatitudeDegrees>40.44898641295731067657470703125</LatitudeDegrees>
              <LongitudeDegrees>-5.68373828195035457611083984375</LongitudeDegrees>
            </Position>
            <AltitudeMeters>1021</AltitudeMeters>
            <DistanceMeters>NAN</DistanceMeters>
          </Trackpoint>
          <Trackpoint>
            <Time>2019-10-07T11:36:24.000Z</Time>
            <Position>
              <LatitudeDegrees>40.4488077946007251739501953125</LatitudeDegrees>
              <LongitudeDegrees>-5.68382696248590946197509765625</LongitudeDegrees>
            </Position>
            <AltitudeMeters>1021.4000244140625</AltitudeMeters>
            <DistanceMeters>NAN</DistanceMeters>
          </Trackpoint>
          <Trackpoint>
            <Time>2019-10-07T11:36:30.000Z</Time>
            <Position>
              <LatitudeDegrees>40.448535718023777008056640625</LatitudeDegrees>
              <LongitudeDegrees>-5.68396241404116153717041015625</LongitudeDegrees>
            </Position>
            <AltitudeMeters>1021.79998779296875</AltitudeMeters>
            <DistanceMeters>NAN</DistanceMeters>
          </Trackpoint>
          <Trackpoint>
            <Time>2019-10-07T11:36:37.000Z</Time>
            <Position>
              <LatitudeDegrees>40.44821158982813358306884765625</LatitudeDegrees>
              <LongitudeDegrees>-5.68412586115300655364990234375</LongitudeDegrees>
            </Position>
            <AltitudeMeters>1022.5999755859375</AltitudeMeters>
            <DistanceMeters>NAN</DistanceMeters>
          </Trackpoint>
          <Trackpoint>
            <Time>2019-10-07T11:36:43.000Z</Time>
            <Position>
              <LatitudeDegrees>40.44793255627155303955078125</LatitudeDegrees>
              <LongitudeDegrees>-5.68426265381276607513427734375</LongitudeDegrees>
            </Position>
            <AltitudeMeters>1022.5999755859375</AltitudeMeters>
            <DistanceMeters>NAN</DistanceMeters>
          </Trackpoint>
          <Trackpoint>
            <Time>2019-10-07T11:36:53.000Z</Time>
            <Position>
              <LatitudeDegrees>40.447461493313312530517578125</LatitudeDegrees>
              <LongitudeDegrees>-5.68450287915766239166259765625</LongitudeDegrees>
            </Position>
            <AltitudeMeters>1022.5999755859375</AltitudeMeters>
            <DistanceMeters>NAN</DistanceMeters>
          </Trackpoint>
          <Trackpoint>
            <Time>2019-10-07T11:37:01.000Z</Time>
            <Position>
              <LatitudeDegrees>40.44704767875373363494873046875</LatitudeDegrees>
              <LongitudeDegrees>-5.68470773287117481231689453125</LongitudeDegrees>
            </Position>
            <AltitudeMeters>1022</AltitudeMeters>
            <DistanceMeters>NAN</DistanceMeters>
          </Trackpoint>
          <Trackpoint>
            <Time>2019-10-07T11:37:04.000Z</Time>
            <Position>
              <LatitudeDegrees>40.446871407330036163330078125</LatitudeDegrees>
              <LongitudeDegrees>-5.68479591049253940582275390625</LongitudeDegrees>
            </Position>
            <AltitudeMeters>1021.4000244140625</AltitudeMeters>
            <DistanceMeters>NAN</DistanceMeters>
          </Trackpoint>
          <Trackpoint>
            <Time>2019-10-07T11:37:07.000Z</Time>
            <Position>
              <LatitudeDegrees>40.446683652698993682861328125</LatitudeDegrees>
              <LongitudeDegrees>-5.68489112891256809234619140625</LongitudeDegrees>
            </Position>
            <AltitudeMeters>1020.20001220703125</AltitudeMeters>
            <DistanceMeters>NAN</DistanceMeters>
          </Trackpoint>
          <Trackpoint>
            <Time>2019-10-07T11:37:11.000Z</Time>
            <Position>
              <LatitudeDegrees>40.44640679843723773956298828125</LatitudeDegrees>
              <LongitudeDegrees>-5.68502716720104217529296875</LongitudeDegrees>
            </Position>
            <AltitudeMeters>1019.79998779296875</AltitudeMeters>
            <DistanceMeters>NAN</DistanceMeters>
          </Trackpoint>
          <Trackpoint>
            <Time>2019-10-07T11:37:14.000Z</Time>
            <Position>
              <LatitudeDegrees>40.44617964886128902435302734375</LatitudeDegrees>
              <LongitudeDegrees>-5.68513906560838222503662109375</LongitudeDegrees>
            </Position>
            <AltitudeMeters>1018.20001220703125</AltitudeMeters>
            <DistanceMeters>NAN</DistanceMeters>
          </Trackpoint>
          <Trackpoint>
            <Time>2019-10-07T11:37:15.000Z</Time>
            <Position>
              <LatitudeDegrees>40.446102283895015716552734375</LatitudeDegrees>
              <LongitudeDegrees>-5.685179047286510467529296875</LongitudeDegrees>
            </Position>
            <AltitudeMeters>1017.20001220703125</AltitudeMeters>
            <DistanceMeters>NAN</DistanceMeters>
          </Trackpoint>
          <Trackpoint>
            <Time>2019-10-07T11:37:18.000Z</Time>
            <Position>
              <LatitudeDegrees>40.4458627291023731231689453125</LatitudeDegrees>
              <LongitudeDegrees>-5.6852922029793262481689453125</LongitudeDegrees>
            </Position>
            <AltitudeMeters>1016.79998779296875</AltitudeMeters>
            <DistanceMeters>NAN</DistanceMeters>
          </Trackpoint>
          <Trackpoint>
            <Time>2019-10-07T11:37:20.000Z</Time>
            <Position>
              <LatitudeDegrees>40.44569970108568668365478515625</LatitudeDegrees>
              <LongitudeDegrees>-5.68537292070686817169189453125</LongitudeDegrees>
            </Position>
            <AltitudeMeters>1015.79998779296875</AltitudeMeters>
            <DistanceMeters>NAN</DistanceMeters>
          </Trackpoint>
          <Trackpoint>
            <Time>2019-10-07T11:37:22.000Z</Time>
            <Position>
              <LatitudeDegrees>40.445530302822589874267578125</LatitudeDegrees>
              <LongitudeDegrees>-5.68546126596629619598388671875</LongitudeDegrees>
            </Position>
            <AltitudeMeters>1014.5999755859375</AltitudeMeters>
            <DistanceMeters>NAN</DistanceMeters>
          </Trackpoint>
          <Trackpoint>
            <Time>2019-10-07T11:37:24.000Z</Time>
            <Position>
              <LatitudeDegrees>40.44535093009471893310546875</LatitudeDegrees>
              <LongitudeDegrees>-5.6855476833879947662353515625</LongitudeDegrees>
            </Position>
            <AltitudeMeters>1013.4000244140625</AltitudeMeters>
            <DistanceMeters>NAN</DistanceMeters>
          </Trackpoint>
          <Trackpoint>
            <Time>2019-10-07T11:37:25.000Z</Time>
            <Position>
              <LatitudeDegrees>40.4452550411224365234375</LatitudeDegrees>
              <LongitudeDegrees>-5.68559202365577220916748046875</LongitudeDegrees>
            </Position>
            <AltitudeMeters>1012.5999755859375</AltitudeMeters>
            <DistanceMeters>NAN</DistanceMeters>
          </Trackpoint>
          <Trackpoint>
            <Time>2019-10-07T11:37:26.000Z</Time>
            <Position>
              <LatitudeDegrees>40.44515990652143955230712890625</LatitudeDegrees>
              <LongitudeDegrees>-5.68564248271286487579345703125</LongitudeDegrees>
            </Position>
            <AltitudeMeters>1011.5999755859375</AltitudeMeters>
            <DistanceMeters>NAN</DistanceMeters>
          </Trackpoint>
          <Trackpoint>
            <Time>2019-10-07T11:37:28.000Z</Time>
            <Position>
              <LatitudeDegrees>40.44496393762528896331787109375</LatitudeDegrees>
              <LongitudeDegrees>-5.68574373610317707061767578125</LongitudeDegrees>
            </Position>
            <AltitudeMeters>1010</AltitudeMeters>
            <DistanceMeters>NAN</DistanceMeters>
          </Trackpoint>
          <Trackpoint>
            <Time>2019-10-07T11:37:30.000Z</Time>
            <Position>
              <LatitudeDegrees>40.44476679526269435882568359375</LatitudeDegrees>
              <LongitudeDegrees>-5.6858457438647747039794921875</LongitudeDegrees>
            </Position>
            <AltitudeMeters>1009</AltitudeMeters>
            <DistanceMeters>NAN</DistanceMeters>
          </Trackpoint>
          <Trackpoint>
            <Time>2019-10-07T11:37:32.000Z</Time>
            <Position>
              <LatitudeDegrees>40.44457451440393924713134765625</LatitudeDegrees>
              <LongitudeDegrees>-5.68594506941735744476318359375</LongitudeDegrees>
            </Position>
            <AltitudeMeters>1008.5999755859375</AltitudeMeters>
            <DistanceMeters>NAN</DistanceMeters>
          </Trackpoint>
          <Trackpoint>
            <Time>2019-10-07T11:37:33.000Z</Time>
            <Position>
              <LatitudeDegrees>40.4444800503551959991455078125</LatitudeDegrees>
              <LongitudeDegrees>-5.68599536083638668060302734375</LongitudeDegrees>
            </Position>
            <AltitudeMeters>1007.79998779296875</AltitudeMeters>
            <DistanceMeters>NAN</DistanceMeters>
          </Trackpoint>
          <Trackpoint>
            <Time>2019-10-07T11:37:34.000Z</Time>
            <Position>
              <LatitudeDegrees>40.44438659213483333587646484375</LatitudeDegrees>
              <LongitudeDegrees>-5.68604531697928905487060546875</LongitudeDegrees>
            </Position>
            <AltitudeMeters>1008</AltitudeMeters>
            <DistanceMeters>NAN</DistanceMeters>
          </Trackpoint>
          <Trackpoint>
            <Time>2019-10-07T11:37:35.000Z</Time>
            <Position>
              <LatitudeDegrees>40.444295145571231842041015625</LatitudeDegrees>
              <LongitudeDegrees>-5.686099715530872344970703125</LongitudeDegrees>
            </Position>
            <AltitudeMeters>1008</AltitudeMeters>
            <DistanceMeters>NAN</DistanceMeters>
          </Trackpoint>
          <Trackpoint>
            <Time>2019-10-07T11:37:36.000Z</Time>
            <Position>
              <LatitudeDegrees>40.4442054592072963714599609375</LatitudeDegrees>
              <LongitudeDegrees>-5.68615394644439220428466796875</LongitudeDegrees>
            </Position>
            <AltitudeMeters>1009</AltitudeMeters>
            <DistanceMeters>NAN</DistanceMeters>
          </Trackpoint>
          <Trackpoint>
            <Time>2019-10-07T11:37:37.000Z</Time>
            <Position>
              <LatitudeDegrees>40.44411686249077320098876953125</LatitudeDegrees>
              <LongitudeDegrees>-5.68620624952018260955810546875</LongitudeDegrees>
            </Position>
            <AltitudeMeters>1009.4000244140625</AltitudeMeters>
            <DistanceMeters>NAN</DistanceMeters>
          </Trackpoint>
          <Trackpoint>
            <Time>2019-10-07T11:37:40.000Z</Time>
            <Position>
              <LatitudeDegrees>40.44386356137692928314208984375</LatitudeDegrees>
              <LongitudeDegrees>-5.686363913118839263916015625</LongitudeDegrees>
            </Position>
            <AltitudeMeters>1009.4000244140625</AltitudeMeters>
            <DistanceMeters>NAN</DistanceMeters>
          </Trackpoint>
          <Trackpoint>
            <Time>2019-10-07T11:37:46.000Z</Time>
            <Position>
              <LatitudeDegrees>40.44339719228446483612060546875</LatitudeDegrees>
              <LongitudeDegrees>-5.68667245097458362579345703125</LongitudeDegrees>
            </Position>
            <AltitudeMeters>1009.4000244140625</AltitudeMeters>
            <DistanceMeters>NAN</DistanceMeters>
          </Trackpoint>
          <Trackpoint>
            <Time>2019-10-07T11:37:47.000Z</Time>
            <Position>
              <LatitudeDegrees>40.44332494027912616729736328125</LatitudeDegrees>
              <LongitudeDegrees>-5.68672710098326206207275390625</LongitudeDegrees>
            </Position>
            <AltitudeMeters>1009.20001220703125</AltitudeMeters>
            <DistanceMeters>NAN</DistanceMeters>
          </Trackpoint>
          <Trackpoint>
            <Time>2019-10-07T11:37:54.000Z</Time>
            <Position>
              <LatitudeDegrees>40.4428502731025218963623046875</LatitudeDegrees>
              <LongitudeDegrees>-5.6870648078620433807373046875</LongitudeDegrees>
            </Position>
            <AltitudeMeters>1009.20001220703125</AltitudeMeters>
            <DistanceMeters>NAN</DistanceMeters>
          </Trackpoint>
          <Trackpoint>
            <Time>2019-10-07T11:38:01.000Z</Time>
            <Position>
              <LatitudeDegrees>40.44239379465579986572265625</LatitudeDegrees>
              <LongitudeDegrees>-5.6874118186533451080322265625</LongitudeDegrees>
            </Position>
            <AltitudeMeters>1008.20001220703125</AltitudeMeters>
            <DistanceMeters>NAN</DistanceMeters>
          </Trackpoint>
          <Trackpoint>
            <Time>2019-10-07T11:38:02.000Z</Time>
            <Position>
              <LatitudeDegrees>40.442326068878173828125</LatitudeDegrees>
              <LongitudeDegrees>-5.68746705539524555206298828125</LongitudeDegrees>
            </Position>
            <AltitudeMeters>1007.79998779296875</AltitudeMeters>
            <DistanceMeters>NAN</DistanceMeters>
          </Trackpoint>
          <Trackpoint>
            <Time>2019-10-07T11:38:04.000Z</Time>
            <Position>
              <LatitudeDegrees>40.4421847499907016754150390625</LatitudeDegrees>
              <LongitudeDegrees>-5.68758071400225162506103515625</LongitudeDegrees>
            </Position>
            <AltitudeMeters>1008</AltitudeMeters>
            <DistanceMeters>NAN</DistanceMeters>
          </Trackpoint>
          <Trackpoint>
            <Time>2019-10-07T11:38:07.000Z</Time>
            <Position>
              <LatitudeDegrees>40.44197277165949344635009765625</LatitudeDegrees>
              <LongitudeDegrees>-5.68777349777519702911376953125</LongitudeDegrees>
            </Position>
            <AltitudeMeters>1006.5999755859375</AltitudeMeters>
            <DistanceMeters>NAN</DistanceMeters>
          </Trackpoint>
          <Trackpoint>
            <Time>2019-10-07T11:38:10.000Z</Time>
            <Position>
              <LatitudeDegrees>40.44175618328154087066650390625</LatitudeDegrees>
              <LongitudeDegrees>-5.68797214888036251068115234375</LongitudeDegrees>
            </Position>
            <AltitudeMeters>1005.4000244140625</AltitudeMeters>
            <DistanceMeters>NAN</DistanceMeters>
          </Trackpoint>
          <Trackpoint>
            <Time>2019-10-07T11:38:11.000Z</Time>
            <Position>
              <LatitudeDegrees>40.441682003438472747802734375</LatitudeDegrees>
              <LongitudeDegrees>-5.68804020993411540985107421875</LongitudeDegrees>
            </Position>
            <AltitudeMeters>1004.79998779296875</AltitudeMeters>
            <DistanceMeters>NAN</DistanceMeters>
          </Trackpoint>
          <Trackpoint>
            <Time>2019-10-07T11:38:13.000Z</Time>
            <Position>
              <LatitudeDegrees>40.441530458629131317138671875</LatitudeDegrees>
              <LongitudeDegrees>-5.68816945888102054595947265625</LongitudeDegrees>
            </Position>
            <AltitudeMeters>1004.20001220703125</AltitudeMeters>
            <DistanceMeters>NAN</DistanceMeters>
          </Trackpoint>
          <Trackpoint>
            <Time>2019-10-07T11:38:17.000Z</Time>
            <Position>
              <LatitudeDegrees>40.441232062876224517822265625</LatitudeDegrees>
              <LongitudeDegrees>-5.68844832479953765869140625</LongitudeDegrees>
            </Position>
            <AltitudeMeters>1003.20001220703125</AltitudeMeters>
            <DistanceMeters>NAN</DistanceMeters>
          </Trackpoint>
          <Trackpoint>
            <Time>2019-10-07T11:38:19.000Z</Time>
            <Position>
              <LatitudeDegrees>40.44108144007623195648193359375</LatitudeDegrees>
              <LongitudeDegrees>-5.68858955986797809600830078125</LongitudeDegrees>
            </Position>
            <AltitudeMeters>1002.4000244140625</AltitudeMeters>
            <DistanceMeters>NAN</DistanceMeters>
          </Trackpoint>
          <Trackpoint>
            <Time>2019-10-07T11:38:20.000Z</Time>
            <Position>
              <LatitudeDegrees>40.4410049133002758026123046875</LatitudeDegrees>
              <LongitudeDegrees>-5.6886600516736507415771484375</LongitudeDegrees>
            </Position>
            <AltitudeMeters>1002.20001220703125</AltitudeMeters>
            <DistanceMeters>NAN</DistanceMeters>
          </Trackpoint>
          <Trackpoint>
            <Time>2019-10-07T11:38:26.000Z</Time>
            <Position>
              <LatitudeDegrees>40.44054633937776088714599609375</LatitudeDegrees>
              <LongitudeDegrees>-5.68904905579984188079833984375</LongitudeDegrees>
            </Position>
            <AltitudeMeters>1001.79998779296875</AltitudeMeters>
            <DistanceMeters>NAN</DistanceMeters>
          </Trackpoint>
          <Trackpoint>
            <Time>2019-10-07T11:38:28.000Z</Time>
            <Position>
              <LatitudeDegrees>40.4404376260936260223388671875</LatitudeDegrees>
              <LongitudeDegrees>-5.68917310796678066253662109375</LongitudeDegrees>
            </Position>
            <AltitudeMeters>1003.79998779296875</AltitudeMeters>
            <DistanceMeters>NAN</DistanceMeters>
          </Trackpoint>
          <Trackpoint>
            <Time>2019-10-07T11:38:29.000Z</Time>
            <Position>
              <LatitudeDegrees>40.44038616120815277099609375</LatitudeDegrees>
              <LongitudeDegrees>-5.68922205828130245208740234375</LongitudeDegrees>
            </Position>
            <AltitudeMeters>1005</AltitudeMeters>
            <DistanceMeters>NAN</DistanceMeters>
          </Trackpoint>
          <Trackpoint>
            <Time>2019-10-07T11:38:30.000Z</Time>
            <Position>
              <LatitudeDegrees>40.44033645652234554290771484375</LatitudeDegrees>
              <LongitudeDegrees>-5.68926908075809478759765625</LongitudeDegrees>
            </Position>
            <AltitudeMeters>1005.4000244140625</AltitudeMeters>
            <DistanceMeters>NAN</DistanceMeters>
          </Trackpoint>
          <Trackpoint>
            <Time>2019-10-07T11:38:33.000Z</Time>
            <Position>
              <LatitudeDegrees>40.44020502828061580657958984375</LatitudeDegrees>
              <LongitudeDegrees>-5.68943194113671779632568359375</LongitudeDegrees>
            </Position>
            <AltitudeMeters>1005.4000244140625</AltitudeMeters>
            <DistanceMeters>NAN</DistanceMeters>
          </Trackpoint>
          <Trackpoint>
            <Time>2019-10-07T11:38:35.000Z</Time>
            <Position>
              <LatitudeDegrees>40.440144427120685577392578125</LatitudeDegrees>
              <LongitudeDegrees>-5.68952783010900020599365234375</LongitudeDegrees>
            </Position>
            <AltitudeMeters>1006.5999755859375</AltitudeMeters>
            <DistanceMeters>NAN</DistanceMeters>
          </Trackpoint>
          <Trackpoint>
            <Time>2019-10-07T11:38:38.000Z</Time>
            <Position>
              <LatitudeDegrees>40.44006890617311000823974609375</LatitudeDegrees>
              <LongitudeDegrees>-5.68965523503720760345458984375</LongitudeDegrees>
            </Position>
            <AltitudeMeters>1007.5999755859375</AltitudeMeters>
            <DistanceMeters>NAN</DistanceMeters>
          </Trackpoint>
          <Trackpoint>
            <Time>2019-10-07T11:38:41.000Z</Time>
            <Position>
              <LatitudeDegrees>40.44001274742186069488525390625</LatitudeDegrees>
              <LongitudeDegrees>-5.68977610208094120025634765625</LongitudeDegrees>
            </Position>
            <AltitudeMeters>1008.5999755859375</AltitudeMeters>
            <DistanceMeters>NAN</DistanceMeters>
          </Trackpoint>
          <Trackpoint>
            <Time>2019-10-07T11:38:42.000Z</Time>
            <Position>
              <LatitudeDegrees>40.439993552863597869873046875</LatitudeDegrees>
              <LongitudeDegrees>-5.68981432355940341949462890625</LongitudeDegrees>
            </Position>
            <AltitudeMeters>1008.79998779296875</AltitudeMeters>
            <DistanceMeters>NAN</DistanceMeters>
          </Trackpoint>
          <Trackpoint>
            <Time>2019-10-07T11:38:45.000Z</Time>
            <Position>
              <LatitudeDegrees>40.439933203160762786865234375</LatitudeDegrees>
              <LongitudeDegrees>-5.68993938155472278594970703125</LongitudeDegrees>
            </Position>
            <AltitudeMeters>1009.20001220703125</AltitudeMeters>
            <DistanceMeters>NAN</DistanceMeters>
          </Trackpoint>
          <Trackpoint>
            <Time>2019-10-07T11:38:48.000Z</Time>
            <Position>
              <LatitudeDegrees>40.43985835276544094085693359375</LatitudeDegrees>
              <LongitudeDegrees>-5.6900568120181560516357421875</LongitudeDegrees>
            </Position>
            <AltitudeMeters>1009.5999755859375</AltitudeMeters>
            <DistanceMeters>NAN</DistanceMeters>
          </Trackpoint>
          <Trackpoint>
            <Time>2019-10-07T11:38:50.000Z</Time>
            <Position>
              <LatitudeDegrees>40.43981024064123630523681640625</LatitudeDegrees>
              <LongitudeDegrees>-5.690129064023494720458984375</LongitudeDegrees>
            </Position>
            <AltitudeMeters>1010.20001220703125</AltitudeMeters>
            <DistanceMeters>NAN</DistanceMeters>
          </Trackpoint>
          <Trackpoint>
            <Time>2019-10-07T11:38:52.000Z</Time>
            <Position>
              <LatitudeDegrees>40.4397573508322238922119140625</LatitudeDegrees>
              <LongitudeDegrees>-5.69019838236272335052490234375</LongitudeDegrees>
            </Position>
            <AltitudeMeters>1010.5999755859375</AltitudeMeters>
            <DistanceMeters>NAN</DistanceMeters>
          </Trackpoint>
          <Trackpoint>
            <Time>2019-10-07T11:38:55.000Z</Time>
            <Position>
              <LatitudeDegrees>40.4396839253604412078857421875</LatitudeDegrees>
              <LongitudeDegrees>-5.69029234349727630615234375</LongitudeDegrees>
            </Position>
            <AltitudeMeters>1011.4000244140625</AltitudeMeters>
            <DistanceMeters>NAN</DistanceMeters>
          </Trackpoint>
          <Trackpoint>
            <Time>2019-10-07T11:38:58.000Z</Time>
            <Position>
              <LatitudeDegrees>40.43961226008832454681396484375</LatitudeDegrees>
              <LongitudeDegrees>-5.69037607870995998382568359375</LongitudeDegrees>
            </Position>
            <AltitudeMeters>1011.4000244140625</AltitudeMeters>
            <DistanceMeters>NAN</DistanceMeters>
          </Trackpoint>
          <Trackpoint>
            <Time>2019-10-07T11:39:03.000Z</Time>
            <Position>
              <LatitudeDegrees>40.43950145132839679718017578125</LatitudeDegrees>
              <LongitudeDegrees>-5.69050985388457775115966796875</LongitudeDegrees>
            </Position>
            <AltitudeMeters>1012.4000244140625</AltitudeMeters>
            <DistanceMeters>NAN</DistanceMeters>
          </Trackpoint>
          <Trackpoint>
            <Time>2019-10-07T11:39:04.000Z</Time>
            <Position>
              <LatitudeDegrees>40.4394842684268951416015625</LatitudeDegrees>
              <LongitudeDegrees>-5.6905422918498516082763671875</LongitudeDegrees>
            </Position>
            <AltitudeMeters>1013</AltitudeMeters>
            <DistanceMeters>NAN</DistanceMeters>
          </Trackpoint>
          <Trackpoint>
            <Time>2019-10-07T11:39:06.000Z</Time>
            <Position>
              <LatitudeDegrees>40.4394428618252277374267578125</LatitudeDegrees>
              <LongitudeDegrees>-5.690591745078563690185546875</LongitudeDegrees>
            </Position>
            <AltitudeMeters>1013</AltitudeMeters>
            <DistanceMeters>NAN</DistanceMeters>
          </Trackpoint>
          <Trackpoint>
            <Time>2019-10-07T11:39:11.000Z</Time>
            <Position>
              <LatitudeDegrees>40.43933741748332977294921875</LatitudeDegrees>
              <LongitudeDegrees>-5.69070129655301570892333984375</LongitudeDegrees>
            </Position>
            <AltitudeMeters>1014.5999755859375</AltitudeMeters>
            <DistanceMeters>NAN</DistanceMeters>
          </Trackpoint>
          <Trackpoint>
            <Time>2019-10-07T11:39:15.000Z</Time>
            <Position>
              <LatitudeDegrees>40.43925250880420207977294921875</LatitudeDegrees>
              <LongitudeDegrees>-5.6907826848328113555908203125</LongitudeDegrees>
            </Position>
            <AltitudeMeters>1015.20001220703125</AltitudeMeters>
            <DistanceMeters>NAN</DistanceMeters>
          </Trackpoint>
          <Trackpoint>
            <Time>2019-10-07T11:39:18.000Z</Time>
            <Position>
              <LatitudeDegrees>40.4391877166926860809326171875</LatitudeDegrees>
              <LongitudeDegrees>-5.69083808921277523040771484375</LongitudeDegrees>
            </Position>
            <AltitudeMeters>1015.79998779296875</AltitudeMeters>
            <DistanceMeters>NAN</DistanceMeters>
          </Trackpoint>
          <Trackpoint>
            <Time>2019-10-07T11:39:23.000Z</Time>
            <Position>
              <LatitudeDegrees>40.43907984159886837005615234375</LatitudeDegrees>
              <LongitudeDegrees>-5.69092827849090099334716796875</LongitudeDegrees>
            </Position>
            <AltitudeMeters>1016.79998779296875</AltitudeMeters>
            <DistanceMeters>NAN</DistanceMeters>
          </Trackpoint>
          <Trackpoint>
            <Time>2019-10-07T11:39:24.000Z</Time>
            <Position>
              <LatitudeDegrees>40.43905888684093952178955078125</LatitudeDegrees>
              <LongitudeDegrees>-5.690945126116275787353515625</LongitudeDegrees>
            </Position>
            <AltitudeMeters>1017</AltitudeMeters>
            <DistanceMeters>NAN</DistanceMeters>
          </Trackpoint>
          <Trackpoint>
            <Time>2019-10-07T11:39:28.000Z</Time>
            <Position>
              <LatitudeDegrees>40.4389721341431140899658203125</LatitudeDegrees>
              <LongitudeDegrees>-5.69102860987186431884765625</LongitudeDegrees>
            </Position>
            <AltitudeMeters>1018</AltitudeMeters>
            <DistanceMeters>NAN</DistanceMeters>
          </Trackpoint>
          <Trackpoint>
            <Time>2019-10-07T11:39:32.000Z</Time>
            <Position>
              <LatitudeDegrees>40.43887834064662456512451171875</LatitudeDegrees>
              <LongitudeDegrees>-5.69110907614231109619140625</LongitudeDegrees>
            </Position>
            <AltitudeMeters>1018.20001220703125</AltitudeMeters>
            <DistanceMeters>NAN</DistanceMeters>
          </Trackpoint>
          <Trackpoint>
            <Time>2019-10-07T11:39:36.000Z</Time>
            <Position>
              <LatitudeDegrees>40.43880089186131954193115234375</LatitudeDegrees>
              <LongitudeDegrees>-5.69121091626584529876708984375</LongitudeDegrees>
            </Position>
            <AltitudeMeters>1019</AltitudeMeters>
            <DistanceMeters>NAN</DistanceMeters>
          </Trackpoint>
          <Trackpoint>
            <Time>2019-10-07T11:39:39.000Z</Time>
            <Position>
              <LatitudeDegrees>40.4387689568102359771728515625</LatitudeDegrees>
              <LongitudeDegrees>-5.6913164444267749786376953125</LongitudeDegrees>
            </Position>
            <AltitudeMeters>1019.20001220703125</AltitudeMeters>
            <DistanceMeters>NAN</DistanceMeters>
          </Trackpoint>
          <Trackpoint>
            <Time>2019-10-07T11:39:43.000Z</Time>
            <Position>
              <LatitudeDegrees>40.43880290351808071136474609375</LatitudeDegrees>
              <LongitudeDegrees>-5.69148198701441287994384765625</LongitudeDegrees>
            </Position>
            <AltitudeMeters>1019.5999755859375</AltitudeMeters>
            <DistanceMeters>NAN</DistanceMeters>
          </Trackpoint>
          <Trackpoint>
            <Time>2019-10-07T11:39:50.000Z</Time>
            <Position>
              <LatitudeDegrees>40.438794605433940887451171875</LatitudeDegrees>
              <LongitudeDegrees>-5.69178004749119281768798828125</LongitudeDegrees>
            </Position>
            <AltitudeMeters>1020</AltitudeMeters>
            <DistanceMeters>NAN</DistanceMeters>
          </Trackpoint>
          <Trackpoint>
            <Time>2019-10-07T11:39:51.000Z</Time>
            <Position>
              <LatitudeDegrees>40.43877683579921722412109375</LatitudeDegrees>
              <LongitudeDegrees>-5.69181826896965503692626953125</LongitudeDegrees>
            </Position>
            <AltitudeMeters>1020.20001220703125</AltitudeMeters>
            <DistanceMeters>NAN</DistanceMeters>
          </Trackpoint>
          <Trackpoint>
            <Time>2019-10-07T11:39:55.000Z</Time>
            <Position>
              <LatitudeDegrees>40.43868488632142543792724609375</LatitudeDegrees>
              <LongitudeDegrees>-5.69193829782307147979736328125</LongitudeDegrees>
            </Position>
            <AltitudeMeters>1020.79998779296875</AltitudeMeters>
            <DistanceMeters>NAN</DistanceMeters>
          </Trackpoint>
          <Trackpoint>
            <Time>2019-10-07T11:40:00.000Z</Time>
            <Position>
              <LatitudeDegrees>40.43852739036083221435546875</LatitudeDegrees>
              <LongitudeDegrees>-5.69199227727949619293212890625</LongitudeDegrees>
            </Position>
            <AltitudeMeters>1021</AltitudeMeters>
            <DistanceMeters>NAN</DistanceMeters>
          </Trackpoint>
          <Trackpoint>
            <Time>2019-10-07T11:40:03.000Z</Time>
            <Position>
              <LatitudeDegrees>40.438432507216930389404296875</LatitudeDegrees>
              <LongitudeDegrees>-5.69196461699903011322021484375</LongitudeDegrees>
            </Position>
            <AltitudeMeters>1021.4000244140625</AltitudeMeters>
            <DistanceMeters>NAN</DistanceMeters>
          </Trackpoint>
          <Trackpoint>
            <Time>2019-10-07T11:40:05.000Z</Time>
            <Position>
              <LatitudeDegrees>40.43837559409439563751220703125</LatitudeDegrees>
              <LongitudeDegrees>-5.691928155720233917236328125</LongitudeDegrees>
            </Position>
            <AltitudeMeters>1021.4000244140625</AltitudeMeters>
            <DistanceMeters>NAN</DistanceMeters>
          </Trackpoint>
          <Trackpoint>
            <Time>2019-10-07T11:40:10.000Z</Time>
            <Position>
              <LatitudeDegrees>40.43826210312545299530029296875</LatitudeDegrees>
              <LongitudeDegrees>-5.69177870638668537139892578125</LongitudeDegrees>
            </Position>
            <AltitudeMeters>1021</AltitudeMeters>
            <DistanceMeters>NAN</DistanceMeters>
          </Trackpoint>
          <Trackpoint>
            <Time>2019-10-07T11:40:15.000Z</Time>
            <Position>
              <LatitudeDegrees>40.43812371790409088134765625</LatitudeDegrees>
              <LongitudeDegrees>-5.69162280298769474029541015625</LongitudeDegrees>
            </Position>
            <AltitudeMeters>1021.4000244140625</AltitudeMeters>
            <DistanceMeters>NAN</DistanceMeters>
          </Trackpoint>
          <Trackpoint>
            <Time>2019-10-07T11:40:16.000Z</Time>
            <Position>
              <LatitudeDegrees>40.4380796290934085845947265625</LatitudeDegrees>
              <LongitudeDegrees>-5.69162137806415557861328125</LongitudeDegrees>
            </Position>
            <AltitudeMeters>1021.5999755859375</AltitudeMeters>
            <DistanceMeters>NAN</DistanceMeters>
          </Trackpoint>
          <Trackpoint>
            <Time>2019-10-07T11:40:19.000Z</Time>
            <Position>
              <LatitudeDegrees>40.43794669210910797119140625</LatitudeDegrees>
              <LongitudeDegrees>-5.6916570849716663360595703125</LongitudeDegrees>
            </Position>
            <AltitudeMeters>1021.20001220703125</AltitudeMeters>
            <DistanceMeters>NAN</DistanceMeters>
          </Trackpoint>
          <Trackpoint>
            <Time>2019-10-07T11:40:21.000Z</Time>
            <Position>
              <LatitudeDegrees>40.43786195106804370880126953125</LatitudeDegrees>
              <LongitudeDegrees>-5.691692121326923370361328125</LongitudeDegrees>
            </Position>
            <AltitudeMeters>1021.20001220703125</AltitudeMeters>
            <DistanceMeters>NAN</DistanceMeters>
          </Trackpoint>
          <Trackpoint>
            <Time>2019-10-07T11:40:29.000Z</Time>
            <Position>
              <LatitudeDegrees>40.43751745484769344329833984375</LatitudeDegrees>
              <LongitudeDegrees>-5.69185917265713214874267578125</LongitudeDegrees>
            </Position>
            <AltitudeMeters>1021.5999755859375</AltitudeMeters>
            <DistanceMeters>NAN</DistanceMeters>
          </Trackpoint>
          <Trackpoint>
            <Time>2019-10-07T11:40:30.000Z</Time>
            <Position>
              <LatitudeDegrees>40.43747789226472377777099609375</LatitudeDegrees>
              <LongitudeDegrees>-5.69188230670988559722900390625</LongitudeDegrees>
            </Position>
            <AltitudeMeters>1021.5999755859375</AltitudeMeters>
            <DistanceMeters>NAN</DistanceMeters>
          </Trackpoint>
          <Trackpoint>
            <Time>2019-10-07T11:40:33.000Z</Time>
            <Position>
              <LatitudeDegrees>40.4373599588871002197265625</LatitudeDegrees>
              <LongitudeDegrees>-5.69195556454360485076904296875</LongitudeDegrees>
            </Position>
            <AltitudeMeters>1022</AltitudeMeters>
            <DistanceMeters>NAN</DistanceMeters>
          </Trackpoint>
          <Trackpoint>
            <Time>2019-10-07T11:40:35.000Z</Time>
            <Position>
              <LatitudeDegrees>40.4372877068817615509033203125</LatitudeDegrees>
              <LongitudeDegrees>-5.692011974751949310302734375</LongitudeDegrees>
            </Position>
            <AltitudeMeters>1022.79998779296875</AltitudeMeters>
            <DistanceMeters>NAN</DistanceMeters>
          </Trackpoint>
          <Trackpoint>
            <Time>2019-10-07T11:40:39.000Z</Time>
            <Position>
              <LatitudeDegrees>40.4371566139161586761474609375</LatitudeDegrees>
              <LongitudeDegrees>-5.69210761226713657379150390625</LongitudeDegrees>
            </Position>
            <AltitudeMeters>1023.4000244140625</AltitudeMeters>
            <DistanceMeters>NAN</DistanceMeters>
          </Trackpoint>
          <Trackpoint>
            <Time>2019-10-07T11:40:43.000Z</Time>
            <Position>
              <LatitudeDegrees>40.4370412789285182952880859375</LatitudeDegrees>
              <LongitudeDegrees>-5.69220467470586299896240234375</LongitudeDegrees>
            </Position>
            <AltitudeMeters>1024.199951171875</AltitudeMeters>
            <DistanceMeters>NAN</DistanceMeters>
          </Trackpoint>
          <Trackpoint>
            <Time>2019-10-07T11:40:46.000Z</Time>
            <Position>
              <LatitudeDegrees>40.436963997781276702880859375</LatitudeDegrees>
              <LongitudeDegrees>-5.69226636551320552825927734375</LongitudeDegrees>
            </Position>
            <AltitudeMeters>1025</AltitudeMeters>
            <DistanceMeters>NAN</DistanceMeters>
          </Trackpoint>
          <Trackpoint>
            <Time>2019-10-07T11:40:49.000Z</Time>
            <Position>
              <LatitudeDegrees>40.4368917457759380340576171875</LatitudeDegrees>
              <LongitudeDegrees>-5.692339874804019927978515625</LongitudeDegrees>
            </Position>
            <AltitudeMeters>1025.199951171875</AltitudeMeters>
            <DistanceMeters>NAN</DistanceMeters>
          </Trackpoint>
          <Trackpoint>
            <Time>2019-10-07T11:40:54.000Z</Time>
            <Position>
              <LatitudeDegrees>40.43677682988345623016357421875</LatitudeDegrees>
              <LongitudeDegrees>-5.69247222505509853363037109375</LongitudeDegrees>
            </Position>
            <AltitudeMeters>1026.199951171875</AltitudeMeters>
            <DistanceMeters>NAN</DistanceMeters>
          </Trackpoint>
          <Trackpoint>
            <Time>2019-10-07T11:40:55.000Z</Time>
            <Position>
              <LatitudeDegrees>40.43675310909748077392578125</LatitudeDegrees>
              <LongitudeDegrees>-5.6924972869455814361572265625</LongitudeDegrees>
            </Position>
            <AltitudeMeters>1026.4000244140625</AltitudeMeters>
            <DistanceMeters>NAN</DistanceMeters>
          </Trackpoint>
          <Trackpoint>
            <Time>2019-10-07T11:40:59.000Z</Time>
            <Position>
              <LatitudeDegrees>40.4366620816290378570556640625</LatitudeDegrees>
              <LongitudeDegrees>-5.69260231219232082366943359375</LongitudeDegrees>
            </Position>
            <AltitudeMeters>1027.4000244140625</AltitudeMeters>
            <DistanceMeters>NAN</DistanceMeters>
          </Trackpoint>
          <Trackpoint>
            <Time>2019-10-07T11:41:04.000Z</Time>
            <Position>
              <LatitudeDegrees>40.43655253015458583831787109375</LatitudeDegrees>
              <LongitudeDegrees>-5.6927380152046680450439453125</LongitudeDegrees>
            </Position>
            <AltitudeMeters>1028.4000244140625</AltitudeMeters>
            <DistanceMeters>NAN</DistanceMeters>
          </Trackpoint>
          <Trackpoint>
            <Time>2019-10-07T11:41:07.000Z</Time>
            <Position>
              <LatitudeDegrees>40.43649268336594104766845703125</LatitudeDegrees>
              <LongitudeDegrees>-5.69282837212085723876953125</LongitudeDegrees>
            </Position>
            <AltitudeMeters>1028.800048828125</AltitudeMeters>
            <DistanceMeters>NAN</DistanceMeters>
          </Trackpoint>
          <Trackpoint>
            <Time>2019-10-07T11:41:11.000Z</Time>
            <Position>
              <LatitudeDegrees>40.436416156589984893798828125</LatitudeDegrees>
              <LongitudeDegrees>-5.69294831715524196624755859375</LongitudeDegrees>
            </Position>
            <AltitudeMeters>1029.4000244140625</AltitudeMeters>
            <DistanceMeters>NAN</DistanceMeters>
          </Trackpoint>
          <Trackpoint>
            <Time>2019-10-07T11:41:17.000Z</Time>
            <Position>
              <LatitudeDegrees>40.43630660511553287506103515625</LatitudeDegrees>
              <LongitudeDegrees>-5.6931225769221782684326171875</LongitudeDegrees>
            </Position>
            <AltitudeMeters>1030.800048828125</AltitudeMeters>
            <DistanceMeters>NAN</DistanceMeters>
          </Trackpoint>
          <Trackpoint>
            <Time>2019-10-07T11:41:24.000Z</Time>
            <Position>
              <LatitudeDegrees>40.436194874346256256103515625</LatitudeDegrees>
              <LongitudeDegrees>-5.6933435238897800445556640625</LongitudeDegrees>
            </Position>
            <AltitudeMeters>1031.800048828125</AltitudeMeters>
            <DistanceMeters>NAN</DistanceMeters>
          </Trackpoint>
          <Trackpoint>
            <Time>2019-10-07T11:41:27.000Z</Time>
            <Position>
              <LatitudeDegrees>40.43615153990685939788818359375</LatitudeDegrees>
              <LongitudeDegrees>-5.69343228824436664581298828125</LongitudeDegrees>
            </Position>
            <AltitudeMeters>1032.4000244140625</AltitudeMeters>
            <DistanceMeters>NAN</DistanceMeters>
          </Trackpoint>
          <Trackpoint>
            <Time>2019-10-07T11:41:30.000Z</Time>
            <Position>
              <LatitudeDegrees>40.4361122287809848785400390625</LatitudeDegrees>
              <LongitudeDegrees>-5.6935222260653972625732421875</LongitudeDegrees>
            </Position>
            <AltitudeMeters>1032.800048828125</AltitudeMeters>
            <DistanceMeters>NAN</DistanceMeters>
          </Trackpoint>
          <Trackpoint>
            <Time>2019-10-07T11:41:35.000Z</Time>
            <Position>
              <LatitudeDegrees>40.436042658984661102294921875</LatitudeDegrees>
              <LongitudeDegrees>-5.69367888383567333221435546875</LongitudeDegrees>
            </Position>
            <AltitudeMeters>1034</AltitudeMeters>
            <DistanceMeters>NAN</DistanceMeters>
          </Trackpoint>
          <Trackpoint>
            <Time>2019-10-07T11:41:36.000Z</Time>
            <Position>
              <LatitudeDegrees>40.43603159487247467041015625</LatitudeDegrees>
              <LongitudeDegrees>-5.6937136687338352203369140625</LongitudeDegrees>
            </Position>
            <AltitudeMeters>1034</AltitudeMeters>
            <DistanceMeters>NAN</DistanceMeters>
          </Trackpoint>
          <Trackpoint>
            <Time>2019-10-07T11:41:43.000Z</Time>
            <Position>
              <LatitudeDegrees>40.43595925904810428619384765625</LatitudeDegrees>
              <LongitudeDegrees>-5.69395221769809722900390625</LongitudeDegrees>
            </Position>
            <AltitudeMeters>1035</AltitudeMeters>
            <DistanceMeters>NAN</DistanceMeters>
          </Trackpoint>
          <Trackpoint>
            <Time>2019-10-07T11:41:46.000Z</Time>
            <Position>
              <LatitudeDegrees>40.43592288158833980560302734375</LatitudeDegrees>
              <LongitudeDegrees>-5.69405539892613887786865234375</LongitudeDegrees>
            </Position>
            <AltitudeMeters>1035.800048828125</AltitudeMeters>
            <DistanceMeters>NAN</DistanceMeters>
          </Trackpoint>
          <Trackpoint>
            <Time>2019-10-07T11:41:48.000Z</Time>
            <Position>
              <LatitudeDegrees>40.4358885996043682098388671875</LatitudeDegrees>
              <LongitudeDegrees>-5.69411038421094417572021484375</LongitudeDegrees>
            </Position>
            <AltitudeMeters>1036.4000244140625</AltitudeMeters>
            <DistanceMeters>NAN</DistanceMeters>
          </Trackpoint>
          <Trackpoint>
            <Time>2019-10-07T11:41:51.000Z</Time>
            <Position>
              <LatitudeDegrees>40.43585993349552154541015625</LatitudeDegrees>
              <LongitudeDegrees>-5.694206692278385162353515625</LongitudeDegrees>
            </Position>
            <AltitudeMeters>1037</AltitudeMeters>
            <DistanceMeters>NAN</DistanceMeters>
          </Trackpoint>
          <Trackpoint>
            <Time>2019-10-07T11:41:53.000Z</Time>
            <Position>
              <LatitudeDegrees>40.4358440078794956207275390625</LatitudeDegrees>
              <LongitudeDegrees>-5.69426813162863254547119140625</LongitudeDegrees>
            </Position>
            <AltitudeMeters>1037.5999755859375</AltitudeMeters>
            <DistanceMeters>NAN</DistanceMeters>
          </Trackpoint>
          <Trackpoint>
            <Time>2019-10-07T11:41:57.000Z</Time>
            <Position>
              <LatitudeDegrees>40.4358150064945220947265625</LatitudeDegrees>
              <LongitudeDegrees>-5.69438078440725803375244140625</LongitudeDegrees>
            </Position>
            <AltitudeMeters>1038.5999755859375</AltitudeMeters>
            <DistanceMeters>NAN</DistanceMeters>
          </Trackpoint>
          <Trackpoint>
            <Time>2019-10-07T11:41:59.000Z</Time>
            <Position>
              <LatitudeDegrees>40.43580167926847934722900390625</LatitudeDegrees>
              <LongitudeDegrees>-5.6944425590336322784423828125</LongitudeDegrees>
            </Position>
            <AltitudeMeters>1038.5999755859375</AltitudeMeters>
            <DistanceMeters>NAN</DistanceMeters>
          </Trackpoint>
          <Trackpoint>
            <Time>2019-10-07T11:42:03.000Z</Time>
            <Position>
              <LatitudeDegrees>40.4357605241239070892333984375</LatitudeDegrees>
              <LongitudeDegrees>-5.69458144716918468475341796875</LongitudeDegrees>
            </Position>
            <AltitudeMeters>1039.800048828125</AltitudeMeters>
            <DistanceMeters>NAN</DistanceMeters>
          </Trackpoint>
          <Trackpoint>
            <Time>2019-10-07T11:42:05.000Z</Time>
            <Position>
              <LatitudeDegrees>40.43573529459536075592041015625</LatitudeDegrees>
              <LongitudeDegrees>-5.6946514360606670379638671875</LongitudeDegrees>
            </Position>
            <AltitudeMeters>1040</AltitudeMeters>
            <DistanceMeters>NAN</DistanceMeters>
          </Trackpoint>
          <Trackpoint>
            <Time>2019-10-07T11:42:08.000Z</Time>
            <Position>
              <LatitudeDegrees>40.43570277281105518341064453125</LatitudeDegrees>
              <LongitudeDegrees>-5.69475696422159671783447265625</LongitudeDegrees>
            </Position>
            <AltitudeMeters>1040.800048828125</AltitudeMeters>
            <DistanceMeters>NAN</DistanceMeters>
          </Trackpoint>
          <Trackpoint>
            <Time>2019-10-07T11:42:13.000Z</Time>
            <Position>
              <LatitudeDegrees>40.43566002510488033294677734375</LatitudeDegrees>
              <LongitudeDegrees>-5.69492175243794918060302734375</LongitudeDegrees>
            </Position>
            <AltitudeMeters>1041.199951171875</AltitudeMeters>
            <DistanceMeters>NAN</DistanceMeters>
          </Trackpoint>
          <Trackpoint>
            <Time>2019-10-07T11:42:15.000Z</Time>
            <Position>
              <LatitudeDegrees>40.4356599412858486175537109375</LatitudeDegrees>
              <LongitudeDegrees>-5.69500171579420566558837890625</LongitudeDegrees>
            </Position>
            <AltitudeMeters>1041.800048828125</AltitudeMeters>
            <DistanceMeters>NAN</DistanceMeters>
          </Trackpoint>
          <Trackpoint>
            <Time>2019-10-07T11:42:18.000Z</Time>
            <Position>
              <LatitudeDegrees>40.435682237148284912109375</LatitudeDegrees>
              <LongitudeDegrees>-5.69511906243860721588134765625</LongitudeDegrees>
            </Position>
            <AltitudeMeters>1042</AltitudeMeters>
            <DistanceMeters>NAN</DistanceMeters>
          </Trackpoint>
          <Trackpoint>
            <Time>2019-10-07T11:42:24.000Z</Time>
            <Position>
              <LatitudeDegrees>40.4356847517192363739013671875</LatitudeDegrees>
              <LongitudeDegrees>-5.69536305963993072509765625</LongitudeDegrees>
            </Position>
            <AltitudeMeters>1042.800048828125</AltitudeMeters>
            <DistanceMeters>NAN</DistanceMeters>
          </Trackpoint>
          <Trackpoint>
            <Time>2019-10-07T11:42:26.000Z</Time>
            <Position>
              <LatitudeDegrees>40.4356648027896881103515625</LatitudeDegrees>
              <LongitudeDegrees>-5.69544243626296520233154296875</LongitudeDegrees>
            </Position>
            <AltitudeMeters>1043</AltitudeMeters>
            <DistanceMeters>NAN</DistanceMeters>
          </Trackpoint>
          <Trackpoint>
            <Time>2019-10-07T11:42:30.000Z</Time>
            <Position>
              <LatitudeDegrees>40.4355771280825138092041015625</LatitudeDegrees>
              <LongitudeDegrees>-5.69555810652673244476318359375</LongitudeDegrees>
            </Position>
            <AltitudeMeters>1044</AltitudeMeters>
            <DistanceMeters>NAN</DistanceMeters>
          </Trackpoint>
          <Trackpoint>
            <Time>2019-10-07T11:42:31.000Z</Time>
            <Position>
              <LatitudeDegrees>40.43555240146815776824951171875</LatitudeDegrees>
              <LongitudeDegrees>-5.6955855153501033782958984375</LongitudeDegrees>
            </Position>
            <AltitudeMeters>1044</AltitudeMeters>
            <DistanceMeters>NAN</DistanceMeters>
          </Trackpoint>
          <Trackpoint>
            <Time>2019-10-07T11:42:37.000Z</Time>
            <Position>
              <LatitudeDegrees>40.43536917306482791900634765625</LatitudeDegrees>
              <LongitudeDegrees>-5.69564762525260448455810546875</LongitudeDegrees>
            </Position>
            <AltitudeMeters>1044</AltitudeMeters>
            <DistanceMeters>NAN</DistanceMeters>
          </Trackpoint>
          <Trackpoint>
            <Time>2019-10-07T11:42:42.000Z</Time>
            <Position>
              <LatitudeDegrees>40.43519013561308383941650390625</LatitudeDegrees>
              <LongitudeDegrees>-5.69556380622088909149169921875</LongitudeDegrees>
            </Position>
            <AltitudeMeters>1043.199951171875</AltitudeMeters>
            <DistanceMeters>NAN</DistanceMeters>
          </Trackpoint>
          <Trackpoint>
            <Time>2019-10-07T11:42:44.000Z</Time>
            <Position>
              <LatitudeDegrees>40.43510229326784610748291015625</LatitudeDegrees>
              <LongitudeDegrees>-5.69551653228700160980224609375</LongitudeDegrees>
            </Position>
            <AltitudeMeters>1042.800048828125</AltitudeMeters>
            <DistanceMeters>NAN</DistanceMeters>
          </Trackpoint>
          <Trackpoint>
            <Time>2019-10-07T11:42:45.000Z</Time>
            <Position>
              <LatitudeDegrees>40.4350507445633411407470703125</LatitudeDegrees>
              <LongitudeDegrees>-5.695500858128070831298828125</LongitudeDegrees>
            </Position>
            <AltitudeMeters>1042.5999755859375</AltitudeMeters>
            <DistanceMeters>NAN</DistanceMeters>
          </Trackpoint>
          <Trackpoint>
            <Time>2019-10-07T11:42:47.000Z</Time>
            <Position>
              <LatitudeDegrees>40.434940941631793975830078125</LatitudeDegrees>
              <LongitudeDegrees>-5.69550295360386371612548828125</LongitudeDegrees>
            </Position>
            <AltitudeMeters>1042.4000244140625</AltitudeMeters>
            <DistanceMeters>NAN</DistanceMeters>
          </Trackpoint>
          <Trackpoint>
            <Time>2019-10-07T11:42:51.000Z</Time>
            <Position>
              <LatitudeDegrees>40.43476299382746219635009765625</LatitudeDegrees>
              <LongitudeDegrees>-5.69562013261020183563232421875</LongitudeDegrees>
            </Position>
            <AltitudeMeters>1043.199951171875</AltitudeMeters>
            <DistanceMeters>NAN</DistanceMeters>
          </Trackpoint>
          <Trackpoint>
            <Time>2019-10-07T11:42:54.000Z</Time>
            <Position>
              <LatitudeDegrees>40.43464832939207553863525390625</LatitudeDegrees>
              <LongitudeDegrees>-5.6956981681287288665771484375</LongitudeDegrees>
            </Position>
            <AltitudeMeters>1044</AltitudeMeters>
            <DistanceMeters>NAN</DistanceMeters>
          </Trackpoint>
          <Trackpoint>
            <Time>2019-10-07T11:42:58.000Z</Time>
            <Position>
              <LatitudeDegrees>40.4345257021486759185791015625</LatitudeDegrees>
              <LongitudeDegrees>-5.6957987509667873382568359375</LongitudeDegrees>
            </Position>
            <AltitudeMeters>1045</AltitudeMeters>
            <DistanceMeters>NAN</DistanceMeters>
          </Trackpoint>
          <Trackpoint>
            <Time>2019-10-07T11:43:00.000Z</Time>
            <Position>
              <LatitudeDegrees>40.43447918258607387542724609375</LatitudeDegrees>
              <LongitudeDegrees>-5.69583940319716930389404296875</LongitudeDegrees>
            </Position>
            <AltitudeMeters>1045.199951171875</AltitudeMeters>
            <DistanceMeters>NAN</DistanceMeters>
          </Trackpoint>
          <Trackpoint>
            <Time>2019-10-07T11:43:02.000Z</Time>
            <Position>
              <LatitudeDegrees>40.434434004127979278564453125</LatitudeDegrees>
              <LongitudeDegrees>-5.695879049599170684814453125</LongitudeDegrees>
            </Position>
            <AltitudeMeters>1046</AltitudeMeters>
            <DistanceMeters>NAN</DistanceMeters>
          </Trackpoint>
          <Trackpoint>
            <Time>2019-10-07T11:43:04.000Z</Time>
            <Position>
              <LatitudeDegrees>40.43438999913632869720458984375</LatitudeDegrees>
              <LongitudeDegrees>-5.69591718725860118865966796875</LongitudeDegrees>
            </Position>
            <AltitudeMeters>1046.800048828125</AltitudeMeters>
            <DistanceMeters>NAN</DistanceMeters>
          </Trackpoint>
          <Trackpoint>
            <Time>2019-10-07T11:43:07.000Z</Time>
            <Position>
              <LatitudeDegrees>40.4343181662261486053466796875</LatitudeDegrees>
              <LongitudeDegrees>-5.695980302989482879638671875</LongitudeDegrees>
            </Position>
            <AltitudeMeters>1047.199951171875</AltitudeMeters>
            <DistanceMeters>NAN</DistanceMeters>
          </Trackpoint>
          <Trackpoint>
            <Time>2019-10-07T11:43:13.000Z</Time>
            <Position>
              <LatitudeDegrees>40.43415949679911136627197265625</LatitudeDegrees>
              <LongitudeDegrees>-5.6960961408913135528564453125</LongitudeDegrees>
            </Position>
            <AltitudeMeters>1048.199951171875</AltitudeMeters>
            <DistanceMeters>NAN</DistanceMeters>
          </Trackpoint>
          <Trackpoint>
            <Time>2019-10-07T11:43:14.000Z</Time>
            <Position>
              <LatitudeDegrees>40.4341347701847553253173828125</LatitudeDegrees>
              <LongitudeDegrees>-5.69611273705959320068359375</LongitudeDegrees>
            </Position>
            <AltitudeMeters>1048.199951171875</AltitudeMeters>
            <DistanceMeters>NAN</DistanceMeters>
          </Trackpoint>
          <Trackpoint>
            <Time>2019-10-07T11:43:19.000Z</Time>
            <Position>
              <LatitudeDegrees>40.43401381932199001312255859375</LatitudeDegrees>
              <LongitudeDegrees>-5.69620854221284389495849609375</LongitudeDegrees>
            </Position>
            <AltitudeMeters>1049.4000244140625</AltitudeMeters>
            <DistanceMeters>NAN</DistanceMeters>
          </Trackpoint>
          <Trackpoint>
            <Time>2019-10-07T11:43:22.000Z</Time>
            <Position>
              <LatitudeDegrees>40.4339450038969516754150390625</LatitudeDegrees>
              <LongitudeDegrees>-5.69626637734472751617431640625</LongitudeDegrees>
            </Position>
            <AltitudeMeters>1049.800048828125</AltitudeMeters>
            <DistanceMeters>NAN</DistanceMeters>
          </Trackpoint>
          <Trackpoint>
            <Time>2019-10-07T11:43:23.000Z</Time>
            <Position>
              <LatitudeDegrees>40.433921031653881072998046875</LatitudeDegrees>
              <LongitudeDegrees>-5.696286074817180633544921875</LongitudeDegrees>
            </Position>
            <AltitudeMeters>1050.4000244140625</AltitudeMeters>
            <DistanceMeters>NAN</DistanceMeters>
          </Trackpoint>
          <Trackpoint>
            <Time>2019-10-07T11:43:30.000Z</Time>
            <Position>
              <LatitudeDegrees>40.43375699780881404876708984375</LatitudeDegrees>
              <LongitudeDegrees>-5.6964173354208469390869140625</LongitudeDegrees>
            </Position>
            <AltitudeMeters>1051.800048828125</AltitudeMeters>
            <DistanceMeters>NAN</DistanceMeters>
          </Trackpoint>
          <Trackpoint>
            <Time>2019-10-07T11:43:33.000Z</Time>
            <Position>
              <LatitudeDegrees>40.43368491344153881072998046875</LatitudeDegrees>
              <LongitudeDegrees>-5.6964682973921298980712890625</LongitudeDegrees>
            </Position>
            <AltitudeMeters>1052.4000244140625</AltitudeMeters>
            <DistanceMeters>NAN</DistanceMeters>
          </Trackpoint>
          <Trackpoint>
            <Time>2019-10-07T11:43:37.000Z</Time>
            <Position>
              <LatitudeDegrees>40.43358868919312953948974609375</LatitudeDegrees>
              <LongitudeDegrees>-5.69654130376875400543212890625</LongitudeDegrees>
            </Position>
            <AltitudeMeters>1053</AltitudeMeters>
            <DistanceMeters>NAN</DistanceMeters>
          </Trackpoint>
          <Trackpoint>
            <Time>2019-10-07T11:43:41.000Z</Time>
            <Position>
              <LatitudeDegrees>40.4334863461554050445556640625</LatitudeDegrees>
              <LongitudeDegrees>-5.69661875255405902862548828125</LongitudeDegrees>
            </Position>
            <AltitudeMeters>1053.4000244140625</AltitudeMeters>
            <DistanceMeters>NAN</DistanceMeters>
          </Trackpoint>
          <Trackpoint>
            <Time>2019-10-07T11:43:43.000Z</Time>
            <Position>
              <LatitudeDegrees>40.4334353841841220855712890625</LatitudeDegrees>
              <LongitudeDegrees>-5.696659572422504425048828125</LongitudeDegrees>
            </Position>
            <AltitudeMeters>1054</AltitudeMeters>
            <DistanceMeters>NAN</DistanceMeters>
          </Trackpoint>
          <Trackpoint>
            <Time>2019-10-07T11:43:52.000Z</Time>
            <Position>
              <LatitudeDegrees>40.43318904004991054534912109375</LatitudeDegrees>
              <LongitudeDegrees>-5.69684498012065887451171875</LongitudeDegrees>
            </Position>
            <AltitudeMeters>1054.5999755859375</AltitudeMeters>
            <DistanceMeters>NAN</DistanceMeters>
          </Trackpoint>
          <Trackpoint>
            <Time>2019-10-07T11:44:00.000Z</Time>
            <Position>
              <LatitudeDegrees>40.432950742542743682861328125</LatitudeDegrees>
              <LongitudeDegrees>-5.6970241852104663848876953125</LongitudeDegrees>
            </Position>
            <AltitudeMeters>1055</AltitudeMeters>
            <DistanceMeters>NAN</DistanceMeters>
          </Trackpoint>
          <Trackpoint>
            <Time>2019-10-07T11:44:01.000Z</Time>
            <Position>
              <LatitudeDegrees>40.4329180531203746795654296875</LatitudeDegrees>
              <LongitudeDegrees>-5.69704891182482242584228515625</LongitudeDegrees>
            </Position>
            <AltitudeMeters>1055</AltitudeMeters>
            <DistanceMeters>NAN</DistanceMeters>
          </Trackpoint>
          <Trackpoint>
            <Time>2019-10-07T11:44:10.000Z</Time>
            <Position>
              <LatitudeDegrees>40.43259878642857074737548828125</LatitudeDegrees>
              <LongitudeDegrees>-5.6972716189920902252197265625</LongitudeDegrees>
            </Position>
            <AltitudeMeters>1055</AltitudeMeters>
            <DistanceMeters>NAN</DistanceMeters>
          </Trackpoint>
          <Trackpoint>
            <Time>2019-10-07T11:44:12.000Z</Time>
            <Position>
              <LatitudeDegrees>40.43252686969935894012451171875</LatitudeDegrees>
              <LongitudeDegrees>-5.6973202340304851531982421875</LongitudeDegrees>
            </Position>
            <AltitudeMeters>1055.199951171875</AltitudeMeters>
            <DistanceMeters>NAN</DistanceMeters>
          </Trackpoint>
          <Trackpoint>
            <Time>2019-10-07T11:44:19.000Z</Time>
            <Position>
              <LatitudeDegrees>40.4322679527103900909423828125</LatitudeDegrees>
              <LongitudeDegrees>-5.69749415852129459381103515625</LongitudeDegrees>
            </Position>
            <AltitudeMeters>1055.4000244140625</AltitudeMeters>
            <DistanceMeters>NAN</DistanceMeters>
          </Trackpoint>
          <Trackpoint>
            <Time>2019-10-07T11:44:23.000Z</Time>
            <Position>
              <LatitudeDegrees>40.43211959302425384521484375</LatitudeDegrees>
              <LongitudeDegrees>-5.69758837111294269561767578125</LongitudeDegrees>
            </Position>
            <AltitudeMeters>1055.5999755859375</AltitudeMeters>
            <DistanceMeters>NAN</DistanceMeters>
          </Trackpoint>
          <Trackpoint>
            <Time>2019-10-07T11:44:26.000Z</Time>
            <Position>
              <LatitudeDegrees>40.4320081137120723724365234375</LatitudeDegrees>
              <LongitudeDegrees>-5.69766305387020111083984375</LongitudeDegrees>
            </Position>
            <AltitudeMeters>1055.4000244140625</AltitudeMeters>
            <DistanceMeters>NAN</DistanceMeters>
          </Trackpoint>
          <Trackpoint>
            <Time>2019-10-07T11:44:30.000Z</Time>
            <Position>
              <LatitudeDegrees>40.43186050839722156524658203125</LatitudeDegrees>
              <LongitudeDegrees>-5.697761960327625274658203125</LongitudeDegrees>
            </Position>
            <AltitudeMeters>1055.800048828125</AltitudeMeters>
            <DistanceMeters>NAN</DistanceMeters>
          </Trackpoint>
          <Trackpoint>
            <Time>2019-10-07T11:44:32.000Z</Time>
            <Position>
              <LatitudeDegrees>40.4317911900579929351806640625</LatitudeDegrees>
              <LongitudeDegrees>-5.697814263403415679931640625</LongitudeDegrees>
            </Position>
            <AltitudeMeters>1056.199951171875</AltitudeMeters>
            <DistanceMeters>NAN</DistanceMeters>
          </Trackpoint>
          <Trackpoint>
            <Time>2019-10-07T11:44:39.000Z</Time>
            <Position>
              <LatitudeDegrees>40.4315484501421451568603515625</LatitudeDegrees>
              <LongitudeDegrees>-5.69796890951693058013916015625</LongitudeDegrees>
            </Position>
            <AltitudeMeters>1057.199951171875</AltitudeMeters>
            <DistanceMeters>NAN</DistanceMeters>
          </Trackpoint>
          <Trackpoint>
            <Time>2019-10-07T11:44:41.000Z</Time>
            <Position>
              <LatitudeDegrees>40.43148231692612171173095703125</LatitudeDegrees>
              <LongitudeDegrees>-5.698015429079532623291015625</LongitudeDegrees>
            </Position>
            <AltitudeMeters>1057.199951171875</AltitudeMeters>
            <DistanceMeters>NAN</DistanceMeters>
          </Trackpoint>
          <Trackpoint>
            <Time>2019-10-07T11:44:46.000Z</Time>
            <Position>
              <LatitudeDegrees>40.4313221387565135955810546875</LatitudeDegrees>
              <LongitudeDegrees>-5.6981329433619976043701171875</LongitudeDegrees>
            </Position>
            <AltitudeMeters>1058.4000244140625</AltitudeMeters>
            <DistanceMeters>NAN</DistanceMeters>
          </Trackpoint>
          <Trackpoint>
            <Time>2019-10-07T11:44:48.000Z</Time>
            <Position>
              <LatitudeDegrees>40.43125583790242671966552734375</LatitudeDegrees>
              <LongitudeDegrees>-5.6981755234301090240478515625</LongitudeDegrees>
            </Position>
            <AltitudeMeters>1058.800048828125</AltitudeMeters>
            <DistanceMeters>NAN</DistanceMeters>
          </Trackpoint>
          <Trackpoint>
            <Time>2019-10-07T11:44:52.000Z</Time>
            <Position>
              <LatitudeDegrees>40.43112457729876041412353515625</LatitudeDegrees>
              <LongitudeDegrees>-5.698263533413410186767578125</LongitudeDegrees>
            </Position>
            <AltitudeMeters>1059.5999755859375</AltitudeMeters>
            <DistanceMeters>NAN</DistanceMeters>
          </Trackpoint>
          <Trackpoint>
            <Time>2019-10-07T11:44:58.000Z</Time>
            <Position>
              <LatitudeDegrees>40.43093263171613216400146484375</LatitudeDegrees>
              <LongitudeDegrees>-5.6983973085880279541015625</LongitudeDegrees>
            </Position>
            <AltitudeMeters>1061</AltitudeMeters>
            <DistanceMeters>NAN</DistanceMeters>
          </Trackpoint>
          <Trackpoint>
            <Time>2019-10-07T11:45:07.000Z</Time>
            <Position>
              <LatitudeDegrees>40.43068083934485912322998046875</LatitudeDegrees>
              <LongitudeDegrees>-5.69858229719102382659912109375</LongitudeDegrees>
            </Position>
            <AltitudeMeters>1062</AltitudeMeters>
            <DistanceMeters>NAN</DistanceMeters>
          </Trackpoint>
          <Trackpoint>
            <Time>2019-10-07T11:45:08.000Z</Time>
            <Position>
              <LatitudeDegrees>40.4306542687118053436279296875</LatitudeDegrees>
              <LongitudeDegrees>-5.69860375486314296722412109375</LongitudeDegrees>
            </Position>
            <AltitudeMeters>1062</AltitudeMeters>
            <DistanceMeters>NAN</DistanceMeters>
          </Trackpoint>
          <Trackpoint>
            <Time>2019-10-07T11:45:14.000Z</Time>
            <Position>
              <LatitudeDegrees>40.43049283325672149658203125</LatitudeDegrees>
              <LongitudeDegrees>-5.69873484782874584197998046875</LongitudeDegrees>
            </Position>
            <AltitudeMeters>1063</AltitudeMeters>
            <DistanceMeters>NAN</DistanceMeters>
          </Trackpoint>
          <Trackpoint>
            <Time>2019-10-07T11:45:19.000Z</Time>
            <Position>
              <LatitudeDegrees>40.430371798574924468994140625</LatitudeDegrees>
              <LongitudeDegrees>-5.6988604925572872161865234375</LongitudeDegrees>
            </Position>
            <AltitudeMeters>1064</AltitudeMeters>
            <DistanceMeters>NAN</DistanceMeters>
          </Trackpoint>
          <Trackpoint>
            <Time>2019-10-07T11:45:20.000Z</Time>
            <Position>
              <LatitudeDegrees>40.43034799396991729736328125</LatitudeDegrees>
              <LongitudeDegrees>-5.6988883204758167266845703125</LongitudeDegrees>
            </Position>
            <AltitudeMeters>1064.199951171875</AltitudeMeters>
            <DistanceMeters>NAN</DistanceMeters>
          </Trackpoint>
          <Trackpoint>
            <Time>2019-10-07T11:45:25.000Z</Time>
            <Position>
              <LatitudeDegrees>40.4302385263144969940185546875</LatitudeDegrees>
              <LongitudeDegrees>-5.699017234146595001220703125</LongitudeDegrees>
            </Position>
            <AltitudeMeters>1065.199951171875</AltitudeMeters>
            <DistanceMeters>NAN</DistanceMeters>
          </Trackpoint>
          <Trackpoint>
            <Time>2019-10-07T11:45:29.000Z</Time>
            <Position>
              <LatitudeDegrees>40.4301604069769382476806640625</LatitudeDegrees>
              <LongitudeDegrees>-5.6991040706634521484375</LongitudeDegrees>
            </Position>
            <AltitudeMeters>1066</AltitudeMeters>
            <DistanceMeters>NAN</DistanceMeters>
          </Trackpoint>
          <Trackpoint>
            <Time>2019-10-07T11:45:31.000Z</Time>
            <Position>
              <LatitudeDegrees>40.4301231913268566131591796875</LatitudeDegrees>
              <LongitudeDegrees>-5.699154026806354522705078125</LongitudeDegrees>
            </Position>
            <AltitudeMeters>1066.199951171875</AltitudeMeters>
            <DistanceMeters>NAN</DistanceMeters>
          </Trackpoint>
          <Trackpoint>
            <Time>2019-10-07T11:45:37.000Z</Time>
            <Position>
              <LatitudeDegrees>40.43002344667911529541015625</LatitudeDegrees>
              <LongitudeDegrees>-5.69931889884173870086669921875</LongitudeDegrees>
            </Position>
            <AltitudeMeters>1067.4000244140625</AltitudeMeters>
            <DistanceMeters>NAN</DistanceMeters>
          </Trackpoint>
          <Trackpoint>
            <Time>2019-10-07T11:45:44.000Z</Time>
            <Position>
              <LatitudeDegrees>40.42988791130483150482177734375</LatitudeDegrees>
              <LongitudeDegrees>-5.6995038874447345733642578125</LongitudeDegrees>
            </Position>
            <AltitudeMeters>1068.4000244140625</AltitudeMeters>
            <DistanceMeters>NAN</DistanceMeters>
          </Trackpoint>
          <Trackpoint>
            <Time>2019-10-07T11:45:46.000Z</Time>
            <Position>
              <LatitudeDegrees>40.42984985746443271636962890625</LatitudeDegrees>
              <LongitudeDegrees>-5.69955878891050815582275390625</LongitudeDegrees>
            </Position>
            <AltitudeMeters>1068.4000244140625</AltitudeMeters>
            <DistanceMeters>NAN</DistanceMeters>
          </Trackpoint>
          <Trackpoint>
            <Time>2019-10-07T11:45:47.000Z</Time>
            <Position>
              <LatitudeDegrees>40.42982890270650386810302734375</LatitudeDegrees>
              <LongitudeDegrees>-5.69958393462002277374267578125</LongitudeDegrees>
            </Position>
            <AltitudeMeters>1068.4000244140625</AltitudeMeters>
            <DistanceMeters>NAN</DistanceMeters>
          </Trackpoint>
          <Trackpoint>
            <Time>2019-10-07T11:45:55.000Z</Time>
            <Position>
              <LatitudeDegrees>40.42967149056494235992431640625</LatitudeDegrees>
              <LongitudeDegrees>-5.69980144500732421875</LongitudeDegrees>
            </Position>
            <AltitudeMeters>1069.199951171875</AltitudeMeters>
            <DistanceMeters>NAN</DistanceMeters>
          </Trackpoint>
          <Trackpoint>
            <Time>2019-10-07T11:45:57.000Z</Time>
            <Position>
              <LatitudeDegrees>40.42963477782905101776123046875</LatitudeDegrees>
              <LongitudeDegrees>-5.6998599506914615631103515625</LongitudeDegrees>
            </Position>
            <AltitudeMeters>1069.5999755859375</AltitudeMeters>
            <DistanceMeters>NAN</DistanceMeters>
          </Trackpoint>
          <Trackpoint>
            <Time>2019-10-07T11:46:05.000Z</Time>
            <Position>
              <LatitudeDegrees>40.4294787906110286712646484375</LatitudeDegrees>
              <LongitudeDegrees>-5.70009120739996433258056640625</LongitudeDegrees>
            </Position>
            <AltitudeMeters>1070.199951171875</AltitudeMeters>
            <DistanceMeters>NAN</DistanceMeters>
          </Trackpoint>
          <Trackpoint>
            <Time>2019-10-07T11:46:11.000Z</Time>
            <Position>
              <LatitudeDegrees>40.4293597675859928131103515625</LatitudeDegrees>
              <LongitudeDegrees>-5.700254403054714202880859375</LongitudeDegrees>
            </Position>
            <AltitudeMeters>1070.800048828125</AltitudeMeters>
            <DistanceMeters>NAN</DistanceMeters>
          </Trackpoint>
          <Trackpoint>
            <Time>2019-10-07T11:46:14.000Z</Time>
            <Position>
              <LatitudeDegrees>40.42930126190185546875</LatitudeDegrees>
              <LongitudeDegrees>-5.7003404013812541961669921875</LongitudeDegrees>
            </Position>
            <AltitudeMeters>1071.199951171875</AltitudeMeters>
            <DistanceMeters>NAN</DistanceMeters>
          </Trackpoint>
          <Trackpoint>
            <Time>2019-10-07T11:46:17.000Z</Time>
            <Position>
              <LatitudeDegrees>40.42924426496028900146484375</LatitudeDegrees>
              <LongitudeDegrees>-5.700415335595607757568359375</LongitudeDegrees>
            </Position>
            <AltitudeMeters>1072</AltitudeMeters>
            <DistanceMeters>NAN</DistanceMeters>
          </Trackpoint>
          <Trackpoint>
            <Time>2019-10-07T11:46:24.000Z</Time>
            <Position>
              <LatitudeDegrees>40.42911686003208160400390625</LatitudeDegrees>
              <LongitudeDegrees>-5.700601749122142791748046875</LongitudeDegrees>
            </Position>
            <AltitudeMeters>1073</AltitudeMeters>
            <DistanceMeters>NAN</DistanceMeters>
          </Trackpoint>
          <Trackpoint>
            <Time>2019-10-07T11:46:32.000Z</Time>
            <Position>
              <LatitudeDegrees>40.428973697125911712646484375</LatitudeDegrees>
              <LongitudeDegrees>-5.700817666947841644287109375</LongitudeDegrees>
            </Position>
            <AltitudeMeters>1074.800048828125</AltitudeMeters>
            <DistanceMeters>NAN</DistanceMeters>
          </Trackpoint>
          <Trackpoint>
            <Time>2019-10-07T11:46:35.000Z</Time>
            <Position>
              <LatitudeDegrees>40.4289205558598041534423828125</LatitudeDegrees>
              <LongitudeDegrees>-5.70089352317154407501220703125</LongitudeDegrees>
            </Position>
            <AltitudeMeters>1075</AltitudeMeters>
            <DistanceMeters>NAN</DistanceMeters>
          </Trackpoint>
          <Trackpoint>
            <Time>2019-10-07T11:46:39.000Z</Time>
            <Position>
              <LatitudeDegrees>40.42884922586381435394287109375</LatitudeDegrees>
              <LongitudeDegrees>-5.70099544711410999298095703125</LongitudeDegrees>
            </Position>
            <AltitudeMeters>1076</AltitudeMeters>
            <DistanceMeters>NAN</DistanceMeters>
          </Trackpoint>
          <Trackpoint>
            <Time>2019-10-07T11:46:45.000Z</Time>
            <Position>
              <LatitudeDegrees>40.4287433624267578125</LatitudeDegrees>
              <LongitudeDegrees>-5.701145566999912261962890625</LongitudeDegrees>
            </Position>
            <AltitudeMeters>1077.199951171875</AltitudeMeters>
            <DistanceMeters>NAN</DistanceMeters>
          </Trackpoint>
          <Trackpoint>
            <Time>2019-10-07T11:46:54.000Z</Time>
            <Position>
              <LatitudeDegrees>40.428582765161991119384765625</LatitudeDegrees>
              <LongitudeDegrees>-5.70136391557753086090087890625</LongitudeDegrees>
            </Position>
            <AltitudeMeters>1078.4000244140625</AltitudeMeters>
            <DistanceMeters>NAN</DistanceMeters>
          </Trackpoint>
          <Trackpoint>
            <Time>2019-10-07T11:46:56.000Z</Time>
            <Position>
              <LatitudeDegrees>40.42853892780840396881103515625</LatitudeDegrees>
              <LongitudeDegrees>-5.7014089263975620269775390625</LongitudeDegrees>
            </Position>
            <AltitudeMeters>1078.5999755859375</AltitudeMeters>
            <DistanceMeters>NAN</DistanceMeters>
          </Trackpoint>
          <Trackpoint>
            <Time>2019-10-07T11:47:01.000Z</Time>
            <Position>
              <LatitudeDegrees>40.428440608084201812744140625</LatitudeDegrees>
              <LongitudeDegrees>-5.7015212439000606536865234375</LongitudeDegrees>
            </Position>
            <AltitudeMeters>1079.5999755859375</AltitudeMeters>
            <DistanceMeters>NAN</DistanceMeters>
          </Trackpoint>
          <Trackpoint>
            <Time>2019-10-07T11:47:06.000Z</Time>
            <Position>
              <LatitudeDegrees>40.4283338226377964019775390625</LatitudeDegrees>
              <LongitudeDegrees>-5.70162601768970489501953125</LongitudeDegrees>
            </Position>
            <AltitudeMeters>1080.199951171875</AltitudeMeters>
            <DistanceMeters>NAN</DistanceMeters>
          </Trackpoint>
          <Trackpoint>
            <Time>2019-10-07T11:47:08.000Z</Time>
            <Position>
              <LatitudeDegrees>40.4282909072935581207275390625</LatitudeDegrees>
              <LongitudeDegrees>-5.7016642391681671142578125</LongitudeDegrees>
            </Position>
            <AltitudeMeters>1080.800048828125</AltitudeMeters>
            <DistanceMeters>NAN</DistanceMeters>
          </Trackpoint>
          <Trackpoint>
            <Time>2019-10-07T11:47:16.000Z</Time>
            <Position>
              <LatitudeDegrees>40.42811044491827487945556640625</LatitudeDegrees>
              <LongitudeDegrees>-5.701814778149127960205078125</LongitudeDegrees>
            </Position>
            <AltitudeMeters>1081.800048828125</AltitudeMeters>
            <DistanceMeters>NAN</DistanceMeters>
          </Trackpoint>
          <Trackpoint>
            <Time>2019-10-07T11:47:17.000Z</Time>
            <Position>
              <LatitudeDegrees>40.42808345519006252288818359375</LatitudeDegrees>
              <LongitudeDegrees>-5.70183346979320049285888671875</LongitudeDegrees>
            </Position>
            <AltitudeMeters>1082</AltitudeMeters>
            <DistanceMeters>NAN</DistanceMeters>
          </Trackpoint>
          <Trackpoint>
            <Time>2019-10-07T11:47:25.000Z</Time>
            <Position>
              <LatitudeDegrees>40.42790441773831844329833984375</LatitudeDegrees>
              <LongitudeDegrees>-5.70198333822190761566162109375</LongitudeDegrees>
            </Position>
            <AltitudeMeters>1082.800048828125</AltitudeMeters>
            <DistanceMeters>NAN</DistanceMeters>
          </Trackpoint>
          <Trackpoint>
            <Time>2019-10-07T11:47:28.000Z</Time>
            <Position>
              <LatitudeDegrees>40.42783970944583415985107421875</LatitudeDegrees>
              <LongitudeDegrees>-5.7020437717437744140625</LongitudeDegrees>
            </Position>
            <AltitudeMeters>1083.199951171875</AltitudeMeters>
            <DistanceMeters>NAN</DistanceMeters>
          </Trackpoint>
          <Trackpoint>
            <Time>2019-10-07T11:47:31.000Z</Time>
            <Position>
              <LatitudeDegrees>40.42777097783982753753662109375</LatitudeDegrees>
              <LongitudeDegrees>-5.70210051722824573516845703125</LongitudeDegrees>
            </Position>
            <AltitudeMeters>1083.800048828125</AltitudeMeters>
            <DistanceMeters>NAN</DistanceMeters>
          </Trackpoint>
          <Trackpoint>
            <Time>2019-10-07T11:47:37.000Z</Time>
            <Position>
              <LatitudeDegrees>40.42763753794133663177490234375</LatitudeDegrees>
              <LongitudeDegrees>-5.7022169418632984161376953125</LongitudeDegrees>
            </Position>
            <AltitudeMeters>1084.4000244140625</AltitudeMeters>
            <DistanceMeters>NAN</DistanceMeters>
          </Trackpoint>
          <Trackpoint>
            <Time>2019-10-07T11:47:39.000Z</Time>
            <Position>
              <LatitudeDegrees>40.427594371140003204345703125</LatitudeDegrees>
              <LongitudeDegrees>-5.702262707054615020751953125</LongitudeDegrees>
            </Position>
            <AltitudeMeters>1085.199951171875</AltitudeMeters>
            <DistanceMeters>NAN</DistanceMeters>
          </Trackpoint>
          <Trackpoint>
            <Time>2019-10-07T11:47:46.000Z</Time>
            <Position>
              <LatitudeDegrees>40.4274460114538669586181640625</LatitudeDegrees>
              <LongitudeDegrees>-5.7024000026285648345947265625</LongitudeDegrees>
            </Position>
            <AltitudeMeters>1086.199951171875</AltitudeMeters>
            <DistanceMeters>NAN</DistanceMeters>
          </Trackpoint>
          <Trackpoint>
            <Time>2019-10-07T11:47:54.000Z</Time>
            <Position>
              <LatitudeDegrees>40.42727887630462646484375</LatitudeDegrees>
              <LongitudeDegrees>-5.70257820188999176025390625</LongitudeDegrees>
            </Position>
            <AltitudeMeters>1087.199951171875</AltitudeMeters>
            <DistanceMeters>NAN</DistanceMeters>
          </Trackpoint>
          <Trackpoint>
            <Time>2019-10-07T11:47:57.000Z</Time>
            <Position>
              <LatitudeDegrees>40.4272190295159816741943359375</LatitudeDegrees>
              <LongitudeDegrees>-5.7026491127908229827880859375</LongitudeDegrees>
            </Position>
            <AltitudeMeters>1088</AltitudeMeters>
            <DistanceMeters>NAN</DistanceMeters>
          </Trackpoint>
          <Trackpoint>
            <Time>2019-10-07T11:48:04.000Z</Time>
            <Position>
              <LatitudeDegrees>40.42709355242550373077392578125</LatitudeDegrees>
              <LongitudeDegrees>-5.70283812470734119415283203125</LongitudeDegrees>
            </Position>
            <AltitudeMeters>1088.199951171875</AltitudeMeters>
            <DistanceMeters>NAN</DistanceMeters>
          </Trackpoint>
          <Trackpoint>
            <Time>2019-10-07T11:48:07.000Z</Time>
            <Position>
              <LatitudeDegrees>40.4270413331687450408935546875</LatitudeDegrees>
              <LongitudeDegrees>-5.70291892625391483306884765625</LongitudeDegrees>
            </Position>
            <AltitudeMeters>1088.5999755859375</AltitudeMeters>
            <DistanceMeters>NAN</DistanceMeters>
          </Trackpoint>
          <Trackpoint>
            <Time>2019-10-07T11:48:11.000Z</Time>
            <Position>
              <LatitudeDegrees>40.42697109282016754150390625</LatitudeDegrees>
              <LongitudeDegrees>-5.70303191430866718292236328125</LongitudeDegrees>
            </Position>
            <AltitudeMeters>1089.4000244140625</AltitudeMeters>
            <DistanceMeters>NAN</DistanceMeters>
          </Trackpoint>
          <Trackpoint>
            <Time>2019-10-07T11:48:16.000Z</Time>
            <Position>
              <LatitudeDegrees>40.42687796987593173980712890625</LatitudeDegrees>
              <LongitudeDegrees>-5.70317960344254970550537109375</LongitudeDegrees>
            </Position>
            <AltitudeMeters>1089.800048828125</AltitudeMeters>
            <DistanceMeters>NAN</DistanceMeters>
          </Trackpoint>
          <Trackpoint>
            <Time>2019-10-07T11:48:19.000Z</Time>
            <Position>
              <LatitudeDegrees>40.4268242418766021728515625</LatitudeDegrees>
              <LongitudeDegrees>-5.703263841569423675537109375</LongitudeDegrees>
            </Position>
            <AltitudeMeters>1090.5999755859375</AltitudeMeters>
            <DistanceMeters>NAN</DistanceMeters>
          </Trackpoint>
          <Trackpoint>
            <Time>2019-10-07T11:48:27.000Z</Time>
            <Position>
              <LatitudeDegrees>40.4266678355634212493896484375</LatitudeDegrees>
              <LongitudeDegrees>-5.70347297005355358123779296875</LongitudeDegrees>
            </Position>
            <AltitudeMeters>1091.199951171875</AltitudeMeters>
            <DistanceMeters>NAN</DistanceMeters>
          </Trackpoint>
          <Trackpoint>
            <Time>2019-10-07T11:48:30.000Z</Time>
            <Position>
              <LatitudeDegrees>40.42660086415708065032958984375</LatitudeDegrees>
              <LongitudeDegrees>-5.70354170165956020355224609375</LongitudeDegrees>
            </Position>
            <AltitudeMeters>1091.5999755859375</AltitudeMeters>
            <DistanceMeters>NAN</DistanceMeters>
          </Trackpoint>
          <Trackpoint>
            <Time>2019-10-07T11:48:36.000Z</Time>
            <Position>
              <LatitudeDegrees>40.4264643229544162750244140625</LatitudeDegrees>
              <LongitudeDegrees>-5.7036700285971164703369140625</LongitudeDegrees>
            </Position>
            <AltitudeMeters>1092.4000244140625</AltitudeMeters>
            <DistanceMeters>NAN</DistanceMeters>
          </Trackpoint>
          <Trackpoint>
            <Time>2019-10-07T11:48:38.000Z</Time>
            <Position>
              <LatitudeDegrees>40.42641981504857540130615234375</LatitudeDegrees>
              <LongitudeDegrees>-5.70371009409427642822265625</LongitudeDegrees>
            </Position>
            <AltitudeMeters>1092.800048828125</AltitudeMeters>
            <DistanceMeters>NAN</DistanceMeters>
          </Trackpoint>
          <Trackpoint>
            <Time>2019-10-07T11:48:46.000Z</Time>
            <Position>
              <LatitudeDegrees>40.42622971348464488983154296875</LatitudeDegrees>
              <LongitudeDegrees>-5.70385199971497058868408203125</LongitudeDegrees>
            </Position>
            <AltitudeMeters>1093.800048828125</AltitudeMeters>
            <DistanceMeters>NAN</DistanceMeters>
          </Trackpoint>
          <Trackpoint>
            <Time>2019-10-07T11:48:53.000Z</Time>
            <Position>
              <LatitudeDegrees>40.426074564456939697265625</LatitudeDegrees>
              <LongitudeDegrees>-5.7039709389209747314453125</LongitudeDegrees>
            </Position>
            <AltitudeMeters>1094.800048828125</AltitudeMeters>
            <DistanceMeters>NAN</DistanceMeters>
          </Trackpoint>
          <Trackpoint>
            <Time>2019-10-07T11:48:59.000Z</Time>
            <Position>
              <LatitudeDegrees>40.4259469918906688690185546875</LatitudeDegrees>
              <LongitudeDegrees>-5.70410094223916530609130859375</LongitudeDegrees>
            </Position>
            <AltitudeMeters>1095.800048828125</AltitudeMeters>
            <DistanceMeters>NAN</DistanceMeters>
          </Trackpoint>
          <Trackpoint>
            <Time>2019-10-07T11:49:02.000Z</Time>
            <Position>
              <LatitudeDegrees>40.42589041404426097869873046875</LatitudeDegrees>
              <LongitudeDegrees>-5.70417537353932857513427734375</LongitudeDegrees>
            </Position>
            <AltitudeMeters>1096.5999755859375</AltitudeMeters>
            <DistanceMeters>NAN</DistanceMeters>
          </Trackpoint>
          <Trackpoint>
            <Time>2019-10-07T11:49:06.000Z</Time>
            <Position>
              <LatitudeDegrees>40.425828807055950164794921875</LatitudeDegrees>
              <LongitudeDegrees>-5.70428601466119289398193359375</LongitudeDegrees>
            </Position>
            <AltitudeMeters>1097</AltitudeMeters>
            <DistanceMeters>NAN</DistanceMeters>
          </Trackpoint>
          <Trackpoint>
            <Time>2019-10-07T11:49:09.000Z</Time>
            <Position>
              <LatitudeDegrees>40.42579335160553455352783203125</LatitudeDegrees>
              <LongitudeDegrees>-5.7043788023293018341064453125</LongitudeDegrees>
            </Position>
            <AltitudeMeters>1097.5999755859375</AltitudeMeters>
            <DistanceMeters>NAN</DistanceMeters>
          </Trackpoint>
          <Trackpoint>
            <Time>2019-10-07T11:49:12.000Z</Time>
            <Position>
              <LatitudeDegrees>40.42577080428600311279296875</LatitudeDegrees>
              <LongitudeDegrees>-5.70446991361677646636962890625</LongitudeDegrees>
            </Position>
            <AltitudeMeters>1098.5999755859375</AltitudeMeters>
            <DistanceMeters>NAN</DistanceMeters>
          </Trackpoint>
          <Trackpoint>
            <Time>2019-10-07T11:49:16.000Z</Time>
            <Position>
              <LatitudeDegrees>40.42575336992740631103515625</LatitudeDegrees>
              <LongitudeDegrees>-5.704590864479541778564453125</LongitudeDegrees>
            </Position>
            <AltitudeMeters>1098.5999755859375</AltitudeMeters>
            <DistanceMeters>NAN</DistanceMeters>
          </Trackpoint>
          <Trackpoint>
            <Time>2019-10-07T11:49:20.000Z</Time>
            <Position>
              <LatitudeDegrees>40.42575613595545291900634765625</LatitudeDegrees>
              <LongitudeDegrees>-5.7047117315232753753662109375</LongitudeDegrees>
            </Position>
            <AltitudeMeters>1099.5999755859375</AltitudeMeters>
            <DistanceMeters>NAN</DistanceMeters>
          </Trackpoint>
          <Trackpoint>
            <Time>2019-10-07T11:49:23.000Z</Time>
            <Position>
              <LatitudeDegrees>40.42577122338116168975830078125</LatitudeDegrees>
              <LongitudeDegrees>-5.70481021888554096221923828125</LongitudeDegrees>
            </Position>
            <AltitudeMeters>1100.199951171875</AltitudeMeters>
            <DistanceMeters>NAN</DistanceMeters>
          </Trackpoint>
          <Trackpoint>
            <Time>2019-10-07T11:49:28.000Z</Time>
            <Position>
              <LatitudeDegrees>40.42583073489367961883544921875</LatitudeDegrees>
              <LongitudeDegrees>-5.70495271123945713043212890625</LongitudeDegrees>
            </Position>
            <AltitudeMeters>1100.800048828125</AltitudeMeters>
            <DistanceMeters>NAN</DistanceMeters>
          </Trackpoint>
          <Trackpoint>
            <Time>2019-10-07T11:49:30.000Z</Time>
            <Position>
              <LatitudeDegrees>40.4258581437170505523681640625</LatitudeDegrees>
              <LongitudeDegrees>-5.7050062716007232666015625</LongitudeDegrees>
            </Position>
            <AltitudeMeters>1101</AltitudeMeters>
            <DistanceMeters>NAN</DistanceMeters>
          </Trackpoint>
          <Trackpoint>
            <Time>2019-10-07T11:49:34.000Z</Time>
            <Position>
              <LatitudeDegrees>40.42592771351337432861328125</LatitudeDegrees>
              <LongitudeDegrees>-5.70509537123143672943115234375</LongitudeDegrees>
            </Position>
            <AltitudeMeters>1101.800048828125</AltitudeMeters>
            <DistanceMeters>NAN</DistanceMeters>
          </Trackpoint>
          <Trackpoint>
            <Time>2019-10-07T11:49:36.000Z</Time>
            <Position>
              <LatitudeDegrees>40.4259657673537731170654296875</LatitudeDegrees>
              <LongitudeDegrees>-5.705136694014072418212890625</LongitudeDegrees>
            </Position>
            <AltitudeMeters>1102.199951171875</AltitudeMeters>
            <DistanceMeters>NAN</DistanceMeters>
          </Trackpoint>
          <Trackpoint>
            <Time>2019-10-07T11:49:39.000Z</Time>
            <Position>
              <LatitudeDegrees>40.426021926105022430419921875</LatitudeDegrees>
              <LongitudeDegrees>-5.70519595406949520111083984375</LongitudeDegrees>
            </Position>
            <AltitudeMeters>1102.800048828125</AltitudeMeters>
            <DistanceMeters>NAN</DistanceMeters>
          </Trackpoint>
          <Trackpoint>
            <Time>2019-10-07T11:49:43.000Z</Time>
            <Position>
              <LatitudeDegrees>40.42610951699316501617431640625</LatitudeDegrees>
              <LongitudeDegrees>-5.705250017344951629638671875</LongitudeDegrees>
            </Position>
            <AltitudeMeters>1103.4000244140625</AltitudeMeters>
            <DistanceMeters>NAN</DistanceMeters>
          </Trackpoint>
          <Trackpoint>
            <Time>2019-10-07T11:49:46.000Z</Time>
            <Position>
              <LatitudeDegrees>40.4261746443808078765869140625</LatitudeDegrees>
              <LongitudeDegrees>-5.705276839435100555419921875</LongitudeDegrees>
            </Position>
            <AltitudeMeters>1104</AltitudeMeters>
            <DistanceMeters>NAN</DistanceMeters>
          </Trackpoint>
          <Trackpoint>
            <Time>2019-10-07T11:49:52.000Z</Time>
            <Position>
              <LatitudeDegrees>40.42630992829799652099609375</LatitudeDegrees>
              <LongitudeDegrees>-5.70531531237065792083740234375</LongitudeDegrees>
            </Position>
            <AltitudeMeters>1104.800048828125</AltitudeMeters>
            <DistanceMeters>NAN</DistanceMeters>
          </Trackpoint>
          <Trackpoint>
            <Time>2019-10-07T11:49:56.000Z</Time>
            <Position>
              <LatitudeDegrees>40.42639902792870998382568359375</LatitudeDegrees>
              <LongitudeDegrees>-5.70534850470721721649169921875</LongitudeDegrees>
            </Position>
            <AltitudeMeters>1105.199951171875</AltitudeMeters>
            <DistanceMeters>NAN</DistanceMeters>
          </Trackpoint>
          <Trackpoint>
            <Time>2019-10-07T11:50:01.000Z</Time>
            <Position>
              <LatitudeDegrees>40.42651184834539890289306640625</LatitudeDegrees>
              <LongitudeDegrees>-5.70538245141506195068359375</LongitudeDegrees>
            </Position>
            <AltitudeMeters>1105.4000244140625</AltitudeMeters>
            <DistanceMeters>NAN</DistanceMeters>
          </Trackpoint>
          <Trackpoint>
            <Time>2019-10-07T11:50:07.000Z</Time>
            <Position>
              <LatitudeDegrees>40.4266426898539066314697265625</LatitudeDegrees>
              <LongitudeDegrees>-5.7054251991212368011474609375</LongitudeDegrees>
            </Position>
            <AltitudeMeters>1106.4000244140625</AltitudeMeters>
            <DistanceMeters>NAN</DistanceMeters>
          </Trackpoint>
          <Trackpoint>
            <Time>2019-10-07T11:50:14.000Z</Time>
            <Position>
              <LatitudeDegrees>40.42679666541516780853271484375</LatitudeDegrees>
              <LongitudeDegrees>-5.70547020994126796722412109375</LongitudeDegrees>
            </Position>
            <AltitudeMeters>1107.199951171875</AltitudeMeters>
            <DistanceMeters>NAN</DistanceMeters>
          </Trackpoint>
          <Trackpoint>
            <Time>2019-10-07T11:50:16.000Z</Time>
            <Position>
              <LatitudeDegrees>40.42684092186391353607177734375</LatitudeDegrees>
              <LongitudeDegrees>-5.705482698976993560791015625</LongitudeDegrees>
            </Position>
            <AltitudeMeters>1107.5999755859375</AltitudeMeters>
            <DistanceMeters>NAN</DistanceMeters>
          </Trackpoint>
          <Trackpoint>
            <Time>2019-10-07T11:50:20.000Z</Time>
            <Position>
              <LatitudeDegrees>40.42692775838077068328857421875</LatitudeDegrees>
              <LongitudeDegrees>-5.705512203276157379150390625</LongitudeDegrees>
            </Position>
            <AltitudeMeters>1108.5999755859375</AltitudeMeters>
            <DistanceMeters>NAN</DistanceMeters>
          </Trackpoint>
          <Trackpoint>
            <Time>2019-10-07T11:50:24.000Z</Time>
            <Position>
              <LatitudeDegrees>40.4270175285637378692626953125</LatitudeDegrees>
              <LongitudeDegrees>-5.7055428810417652130126953125</LongitudeDegrees>
            </Position>
            <AltitudeMeters>1108.4000244140625</AltitudeMeters>
            <DistanceMeters>NAN</DistanceMeters>
          </Trackpoint>
          <Trackpoint>
            <Time>2019-10-07T11:50:31.000Z</Time>
            <Position>
              <LatitudeDegrees>40.427175275981426239013671875</LatitudeDegrees>
              <LongitudeDegrees>-5.7055938430130481719970703125</LongitudeDegrees>
            </Position>
            <AltitudeMeters>1109.5999755859375</AltitudeMeters>
            <DistanceMeters>NAN</DistanceMeters>
          </Trackpoint>
          <Trackpoint>
            <Time>2019-10-07T11:50:33.000Z</Time>
            <Position>
              <LatitudeDegrees>40.4272183589637279510498046875</LatitudeDegrees>
              <LongitudeDegrees>-5.70560767315328121185302734375</LongitudeDegrees>
            </Position>
            <AltitudeMeters>1110.5999755859375</AltitudeMeters>
            <DistanceMeters>NAN</DistanceMeters>
          </Trackpoint>
          <Trackpoint>
            <Time>2019-10-07T11:50:41.000Z</Time>
            <Position>
              <LatitudeDegrees>40.4273955523967742919921875</LatitudeDegrees>
              <LongitudeDegrees>-5.7056582160294055938720703125</LongitudeDegrees>
            </Position>
            <AltitudeMeters>1111.4000244140625</AltitudeMeters>
            <DistanceMeters>NAN</DistanceMeters>
          </Trackpoint>
          <Trackpoint>
            <Time>2019-10-07T11:50:46.000Z</Time>
            <Position>
              <LatitudeDegrees>40.4275082051753997802734375</LatitudeDegrees>
              <LongitudeDegrees>-5.7056929171085357666015625</LongitudeDegrees>
            </Position>
            <AltitudeMeters>1111.800048828125</AltitudeMeters>
            <DistanceMeters>NAN</DistanceMeters>
          </Trackpoint>
          <Trackpoint>
            <Time>2019-10-07T11:50:47.000Z</Time>
            <Position>
              <LatitudeDegrees>40.42753108777105808258056640625</LatitudeDegrees>
              <LongitudeDegrees>-5.70569920353591442108154296875</LongitudeDegrees>
            </Position>
            <AltitudeMeters>1111.800048828125</AltitudeMeters>
            <DistanceMeters>NAN</DistanceMeters>
          </Trackpoint>
          <Trackpoint>
            <Time>2019-10-07T11:50:53.000Z</Time>
            <Position>
              <LatitudeDegrees>40.42767106555402278900146484375</LatitudeDegrees>
              <LongitudeDegrees>-5.70573222823441028594970703125</LongitudeDegrees>
            </Position>
            <AltitudeMeters>1112.800048828125</AltitudeMeters>
            <DistanceMeters>NAN</DistanceMeters>
          </Trackpoint>
          <Trackpoint>
            <Time>2019-10-07T11:50:55.000Z</Time>
            <Position>
              <LatitudeDegrees>40.42771666310727596282958984375</LatitudeDegrees>
              <LongitudeDegrees>-5.70575133897364139556884765625</LongitudeDegrees>
            </Position>
            <AltitudeMeters>1113</AltitudeMeters>
            <DistanceMeters>NAN</DistanceMeters>
          </Trackpoint>
          <Trackpoint>
            <Time>2019-10-07T11:51:01.000Z</Time>
            <Position>
              <LatitudeDegrees>40.42784574441611766815185546875</LatitudeDegrees>
              <LongitudeDegrees>-5.70583968423306941986083984375</LongitudeDegrees>
            </Position>
            <AltitudeMeters>1114</AltitudeMeters>
            <DistanceMeters>NAN</DistanceMeters>
          </Trackpoint>
          <Trackpoint>
            <Time>2019-10-07T11:51:02.000Z</Time>
            <Position>
              <LatitudeDegrees>40.42786552570760250091552734375</LatitudeDegrees>
              <LongitudeDegrees>-5.7058566994965076446533203125</LongitudeDegrees>
            </Position>
            <AltitudeMeters>1114.199951171875</AltitudeMeters>
            <DistanceMeters>NAN</DistanceMeters>
          </Trackpoint>
          <Trackpoint>
            <Time>2019-10-07T11:51:08.000Z</Time>
            <Position>
              <LatitudeDegrees>40.427969209849834442138671875</LatitudeDegrees>
              <LongitudeDegrees>-5.70598519407212734222412109375</LongitudeDegrees>
            </Position>
            <AltitudeMeters>1115.199951171875</AltitudeMeters>
            <DistanceMeters>NAN</DistanceMeters>
          </Trackpoint>
          <Trackpoint>
            <Time>2019-10-07T11:51:09.000Z</Time>
            <Position>
              <LatitudeDegrees>40.42798253707587718963623046875</LatitudeDegrees>
              <LongitudeDegrees>-5.70601017214357852935791015625</LongitudeDegrees>
            </Position>
            <AltitudeMeters>1115.199951171875</AltitudeMeters>
            <DistanceMeters>NAN</DistanceMeters>
          </Trackpoint>
          <Trackpoint>
            <Time>2019-10-07T11:51:13.000Z</Time>
            <Position>
              <LatitudeDegrees>40.42802897281944751739501953125</LatitudeDegrees>
              <LongitudeDegrees>-5.70612165145576000213623046875</LongitudeDegrees>
            </Position>
            <AltitudeMeters>1116.199951171875</AltitudeMeters>
            <DistanceMeters>NAN</DistanceMeters>
          </Trackpoint>
          <Trackpoint>
            <Time>2019-10-07T11:51:18.000Z</Time>
            <Position>
              <LatitudeDegrees>40.42806803248822689056396484375</LatitudeDegrees>
              <LongitudeDegrees>-5.70627738721668720245361328125</LongitudeDegrees>
            </Position>
            <AltitudeMeters>1116.4000244140625</AltitudeMeters>
            <DistanceMeters>NAN</DistanceMeters>
          </Trackpoint>
          <Trackpoint>
            <Time>2019-10-07T11:51:24.000Z</Time>
            <Position>
              <LatitudeDegrees>40.4280967824161052703857421875</LatitudeDegrees>
              <LongitudeDegrees>-5.70648073218762874603271484375</LongitudeDegrees>
            </Position>
            <AltitudeMeters>1117.5999755859375</AltitudeMeters>
            <DistanceMeters>NAN</DistanceMeters>
          </Trackpoint>
          <Trackpoint>
            <Time>2019-10-07T11:51:27.000Z</Time>
            <Position>
              <LatitudeDegrees>40.428101308643817901611328125</LatitudeDegrees>
              <LongitudeDegrees>-5.70658408105373382568359375</LongitudeDegrees>
            </Position>
            <AltitudeMeters>1117.199951171875</AltitudeMeters>
            <DistanceMeters>NAN</DistanceMeters>
          </Trackpoint>
          <Trackpoint>
            <Time>2019-10-07T11:51:33.000Z</Time>
            <Position>
              <LatitudeDegrees>40.428113378584384918212890625</LatitudeDegrees>
              <LongitudeDegrees>-5.70676638744771480560302734375</LongitudeDegrees>
            </Position>
            <AltitudeMeters>1118.199951171875</AltitudeMeters>
            <DistanceMeters>NAN</DistanceMeters>
          </Trackpoint>
          <Trackpoint>
            <Time>2019-10-07T11:51:37.000Z</Time>
            <Position>
              <LatitudeDegrees>40.42811295948922634124755859375</LatitudeDegrees>
              <LongitudeDegrees>-5.70690535940229892730712890625</LongitudeDegrees>
            </Position>
            <AltitudeMeters>1118.5999755859375</AltitudeMeters>
            <DistanceMeters>NAN</DistanceMeters>
          </Trackpoint>
          <Trackpoint>
            <Time>2019-10-07T11:51:42.000Z</Time>
            <Position>
              <LatitudeDegrees>40.42811647988855838775634765625</LatitudeDegrees>
              <LongitudeDegrees>-5.707081295549869537353515625</LongitudeDegrees>
            </Position>
            <AltitudeMeters>1119.4000244140625</AltitudeMeters>
            <DistanceMeters>NAN</DistanceMeters>
          </Trackpoint>
          <Trackpoint>
            <Time>2019-10-07T11:51:44.000Z</Time>
            <Position>
              <LatitudeDegrees>40.42811907827854156494140625</LatitudeDegrees>
              <LongitudeDegrees>-5.70715178735554218292236328125</LongitudeDegrees>
            </Position>
            <AltitudeMeters>1119.800048828125</AltitudeMeters>
            <DistanceMeters>NAN</DistanceMeters>
          </Trackpoint>
          <Trackpoint>
            <Time>2019-10-07T11:51:49.000Z</Time>
            <Position>
              <LatitudeDegrees>40.4281259514391422271728515625</LatitudeDegrees>
              <LongitudeDegrees>-5.7073366083204746246337890625</LongitudeDegrees>
            </Position>
            <AltitudeMeters>1119.800048828125</AltitudeMeters>
            <DistanceMeters>NAN</DistanceMeters>
          </Trackpoint>
          <Trackpoint>
            <Time>2019-10-07T11:51:54.000Z</Time>
            <Position>
              <LatitudeDegrees>40.42814363725483417510986328125</LatitudeDegrees>
              <LongitudeDegrees>-5.70750215090811252593994140625</LongitudeDegrees>
            </Position>
            <AltitudeMeters>1119.800048828125</AltitudeMeters>
            <DistanceMeters>NAN</DistanceMeters>
          </Trackpoint>
          <Trackpoint>
            <Time>2019-10-07T11:51:57.000Z</Time>
            <Position>
              <LatitudeDegrees>40.4281531088054180145263671875</LatitudeDegrees>
              <LongitudeDegrees>-5.707615055143833160400390625</LongitudeDegrees>
            </Position>
            <AltitudeMeters>1120</AltitudeMeters>
            <DistanceMeters>NAN</DistanceMeters>
          </Trackpoint>
          <Trackpoint>
            <Time>2019-10-07T11:52:03.000Z</Time>
            <Position>
              <LatitudeDegrees>40.42818638496100902557373046875</LatitudeDegrees>
              <LongitudeDegrees>-5.70786743424832820892333984375</LongitudeDegrees>
            </Position>
            <AltitudeMeters>1120</AltitudeMeters>
            <DistanceMeters>NAN</DistanceMeters>
          </Trackpoint>
          <Trackpoint>
            <Time>2019-10-07T11:52:10.000Z</Time>
            <Position>
              <LatitudeDegrees>40.4282496683299541473388671875</LatitudeDegrees>
              <LongitudeDegrees>-5.70819986052811145782470703125</LongitudeDegrees>
            </Position>
            <AltitudeMeters>1120.800048828125</AltitudeMeters>
            <DistanceMeters>NAN</DistanceMeters>
          </Trackpoint>
          <Trackpoint>
            <Time>2019-10-07T11:52:19.000Z</Time>
            <Position>
              <LatitudeDegrees>40.42833776213228702545166015625</LatitudeDegrees>
              <LongitudeDegrees>-5.70865047164261341094970703125</LongitudeDegrees>
            </Position>
            <AltitudeMeters>1120.800048828125</AltitudeMeters>
            <DistanceMeters>NAN</DistanceMeters>
          </Trackpoint>
          <Trackpoint>
            <Time>2019-10-07T11:52:28.000Z</Time>
            <Position>
              <LatitudeDegrees>40.4284233413636684417724609375</LatitudeDegrees>
              <LongitudeDegrees>-5.70909923873841762542724609375</LongitudeDegrees>
            </Position>
            <AltitudeMeters>1121.5999755859375</AltitudeMeters>
            <DistanceMeters>NAN</DistanceMeters>
          </Trackpoint>
          <Trackpoint>
            <Time>2019-10-07T11:52:32.000Z</Time>
            <Position>
              <LatitudeDegrees>40.42847539298236370086669921875</LatitudeDegrees>
              <LongitudeDegrees>-5.7092637754976749420166015625</LongitudeDegrees>
            </Position>
            <AltitudeMeters>1122</AltitudeMeters>
            <DistanceMeters>NAN</DistanceMeters>
          </Trackpoint>
          <Trackpoint>
            <Time>2019-10-07T11:52:33.000Z</Time>
            <Position>
              <LatitudeDegrees>40.428488552570343017578125</LatitudeDegrees>
              <LongitudeDegrees>-5.70931029506027698516845703125</LongitudeDegrees>
            </Position>
            <AltitudeMeters>1122</AltitudeMeters>
            <DistanceMeters>NAN</DistanceMeters>
          </Trackpoint>
          <Trackpoint>
            <Time>2019-10-07T11:52:34.000Z</Time>
            <Position>
              <LatitudeDegrees>40.42849735356867313385009765625</LatitudeDegrees>
              <LongitudeDegrees>-5.70936016738414764404296875</LongitudeDegrees>
            </Position>
            <AltitudeMeters>1122</AltitudeMeters>
            <DistanceMeters>NAN</DistanceMeters>
          </Trackpoint>
          <Trackpoint>
            <Time>2019-10-07T11:52:38.000Z</Time>
            <Position>
              <LatitudeDegrees>40.42853658087551593780517578125</LatitudeDegrees>
              <LongitudeDegrees>-5.70955404080450534820556640625</LongitudeDegrees>
            </Position>
            <AltitudeMeters>1122.199951171875</AltitudeMeters>
            <DistanceMeters>NAN</DistanceMeters>
          </Trackpoint>
          <Trackpoint>
            <Time>2019-10-07T11:52:47.000Z</Time>
            <Position>
              <LatitudeDegrees>40.42862710542976856231689453125</LatitudeDegrees>
              <LongitudeDegrees>-5.70999987423419952392578125</LongitudeDegrees>
            </Position>
            <AltitudeMeters>1123</AltitudeMeters>
            <DistanceMeters>NAN</DistanceMeters>
          </Trackpoint>
          <Trackpoint>
            <Time>2019-10-07T11:52:49.000Z</Time>
            <Position>
              <LatitudeDegrees>40.4286486469209194183349609375</LatitudeDegrees>
              <LongitudeDegrees>-5.7100959308445453643798828125</LongitudeDegrees>
            </Position>
            <AltitudeMeters>1123.199951171875</AltitudeMeters>
            <DistanceMeters>NAN</DistanceMeters>
          </Trackpoint>
          <Trackpoint>
            <Time>2019-10-07T11:52:55.000Z</Time>
            <Position>
              <LatitudeDegrees>40.4287203960120677947998046875</LatitudeDegrees>
              <LongitudeDegrees>-5.71037471294403076171875</LongitudeDegrees>
            </Position>
            <AltitudeMeters>1123.800048828125</AltitudeMeters>
            <DistanceMeters>NAN</DistanceMeters>
          </Trackpoint>
          <Trackpoint>
            <Time>2019-10-07T11:52:58.000Z</Time>
            <Position>
              <LatitudeDegrees>40.4287599585950374603271484375</LatitudeDegrees>
              <LongitudeDegrees>-5.71049834601581096649169921875</LongitudeDegrees>
            </Position>
            <AltitudeMeters>1124.199951171875</AltitudeMeters>
            <DistanceMeters>NAN</DistanceMeters>
          </Trackpoint>
          <Trackpoint>
            <Time>2019-10-07T11:53:02.000Z</Time>
            <Position>
              <LatitudeDegrees>40.428818799555301666259765625</LatitudeDegrees>
              <LongitudeDegrees>-5.71064050309360027313232421875</LongitudeDegrees>
            </Position>
            <AltitudeMeters>1124</AltitudeMeters>
            <DistanceMeters>NAN</DistanceMeters>
          </Trackpoint>
          <Trackpoint>
            <Time>2019-10-07T11:53:08.000Z</Time>
            <Position>
              <LatitudeDegrees>40.42894159443676471710205078125</LatitudeDegrees>
              <LongitudeDegrees>-5.710844434797763824462890625</LongitudeDegrees>
            </Position>
            <AltitudeMeters>1124</AltitudeMeters>
            <DistanceMeters>NAN</DistanceMeters>
          </Trackpoint>
          <Trackpoint>
            <Time>2019-10-07T11:53:15.000Z</Time>
            <Position>
              <LatitudeDegrees>40.4291136749088764190673828125</LatitudeDegrees>
              <LongitudeDegrees>-5.71108608506619930267333984375</LongitudeDegrees>
            </Position>
            <AltitudeMeters>1125</AltitudeMeters>
            <DistanceMeters>NAN</DistanceMeters>
          </Trackpoint>
          <Trackpoint>
            <Time>2019-10-07T11:53:16.000Z</Time>
            <Position>
              <LatitudeDegrees>40.4291391558945178985595703125</LatitudeDegrees>
              <LongitudeDegrees>-5.71111860685050487518310546875</LongitudeDegrees>
            </Position>
            <AltitudeMeters>1125.199951171875</AltitudeMeters>
            <DistanceMeters>NAN</DistanceMeters>
          </Trackpoint>
          <Trackpoint>
            <Time>2019-10-07T11:53:22.000Z</Time>
            <Position>
              <LatitudeDegrees>40.42926496826112270355224609375</LatitudeDegrees>
              <LongitudeDegrees>-5.7113324292004108428955078125</LongitudeDegrees>
            </Position>
            <AltitudeMeters>1125.800048828125</AltitudeMeters>
            <DistanceMeters>NAN</DistanceMeters>
          </Trackpoint>
          <Trackpoint>
            <Time>2019-10-07T11:53:27.000Z</Time>
            <Position>
              <LatitudeDegrees>40.4293228872120380401611328125</LatitudeDegrees>
              <LongitudeDegrees>-5.7115557231009006500244140625</LongitudeDegrees>
            </Position>
            <AltitudeMeters>1126</AltitudeMeters>
            <DistanceMeters>NAN</DistanceMeters>
          </Trackpoint>
          <Trackpoint>
            <Time>2019-10-07T11:53:29.000Z</Time>
            <Position>
              <LatitudeDegrees>40.42931173928081989288330078125</LatitudeDegrees>
              <LongitudeDegrees>-5.71164297871291637420654296875</LongitudeDegrees>
            </Position>
            <AltitudeMeters>1126.199951171875</AltitudeMeters>
            <DistanceMeters>NAN</DistanceMeters>
          </Trackpoint>
          <Trackpoint>
            <Time>2019-10-07T11:53:31.000Z</Time>
            <Position>
              <LatitudeDegrees>40.42927385307848453521728515625</LatitudeDegrees>
              <LongitudeDegrees>-5.71172344498336315155029296875</LongitudeDegrees>
            </Position>
            <AltitudeMeters>1126.800048828125</AltitudeMeters>
            <DistanceMeters>NAN</DistanceMeters>
          </Trackpoint>
          <Trackpoint>
            <Time>2019-10-07T11:53:35.000Z</Time>
            <Position>
              <LatitudeDegrees>40.4291877709329128265380859375</LatitudeDegrees>
              <LongitudeDegrees>-5.71184179745614528656005859375</LongitudeDegrees>
            </Position>
            <AltitudeMeters>1127.199951171875</AltitudeMeters>
            <DistanceMeters>NAN</DistanceMeters>
          </Trackpoint>
          <Trackpoint>
            <Time>2019-10-07T11:53:37.000Z</Time>
            <Position>
              <LatitudeDegrees>40.42916388250887393951416015625</LatitudeDegrees>
              <LongitudeDegrees>-5.7118765823543071746826171875</LongitudeDegrees>
            </Position>
            <AltitudeMeters>1127.4000244140625</AltitudeMeters>
            <DistanceMeters>NAN</DistanceMeters>
          </Trackpoint>
          <Trackpoint>
            <Time>2019-10-07T11:53:40.000Z</Time>
            <Position>
              <LatitudeDegrees>40.42912549339234828948974609375</LatitudeDegrees>
              <LongitudeDegrees>-5.711912624537944793701171875</LongitudeDegrees>
            </Position>
            <AltitudeMeters>1127.5999755859375</AltitudeMeters>
            <DistanceMeters>NAN</DistanceMeters>
          </Trackpoint>
          <Trackpoint>
            <Time>2019-10-07T11:53:41.000Z</Time>
            <Position>
              <LatitudeDegrees>40.42911627329885959625244140625</LatitudeDegrees>
              <LongitudeDegrees>-5.71191991679370403289794921875</LongitudeDegrees>
            </Position>
            <AltitudeMeters>1127.800048828125</AltitudeMeters>
            <DistanceMeters>NAN</DistanceMeters>
          </Trackpoint>
          <Trackpoint>
            <Time>2019-10-07T11:53:44.000Z</Time>
            <Position>
              <LatitudeDegrees>40.42911426164209842681884765625</LatitudeDegrees>
              <LongitudeDegrees>-5.71192276664078235626220703125</LongitudeDegrees>
            </Position>
            <AltitudeMeters>1128</AltitudeMeters>
            <DistanceMeters>NAN</DistanceMeters>
          </Trackpoint>
          <Trackpoint>
            <Time>2019-10-07T11:53:50.000Z</Time>
            <Position>
              <LatitudeDegrees>40.42911426164209842681884765625</LatitudeDegrees>
              <LongitudeDegrees>-5.71192276664078235626220703125</LongitudeDegrees>
            </Position>
            <AltitudeMeters>1128</AltitudeMeters>
            <DistanceMeters>NAN</DistanceMeters>
          </Trackpoint>
          <Trackpoint>
            <Time>2019-10-07T11:54:01.000Z</Time>
            <Position>
              <LatitudeDegrees>40.42911426164209842681884765625</LatitudeDegrees>
              <LongitudeDegrees>-5.71192276664078235626220703125</LongitudeDegrees>
            </Position>
            <AltitudeMeters>1128</AltitudeMeters>
            <DistanceMeters>NAN</DistanceMeters>
          </Trackpoint>
          <Trackpoint>
            <Time>2019-10-07T11:54:07.000Z</Time>
            <Position>
              <LatitudeDegrees>40.42911426164209842681884765625</LatitudeDegrees>
              <LongitudeDegrees>-5.71192276664078235626220703125</LongitudeDegrees>
            </Position>
            <AltitudeMeters>1128</AltitudeMeters>
            <DistanceMeters>NAN</DistanceMeters>
          </Trackpoint>
          <Trackpoint>
            <Time>2019-10-07T11:54:11.000Z</Time>
            <Position>
              <LatitudeDegrees>40.42911426164209842681884765625</LatitudeDegrees>
              <LongitudeDegrees>-5.71192276664078235626220703125</LongitudeDegrees>
            </Position>
            <AltitudeMeters>1128</AltitudeMeters>
            <DistanceMeters>NAN</DistanceMeters>
          </Trackpoint>
          <Trackpoint>
            <Time>2019-10-07T11:54:16.000Z</Time>
            <Position>
              <LatitudeDegrees>40.42911426164209842681884765625</LatitudeDegrees>
              <LongitudeDegrees>-5.71192276664078235626220703125</LongitudeDegrees>
            </Position>
            <AltitudeMeters>1127.800048828125</AltitudeMeters>
            <DistanceMeters>NAN</DistanceMeters>
          </Trackpoint>
          <Trackpoint>
            <Time>2019-10-07T11:54:28.000Z</Time>
            <Position>
              <LatitudeDegrees>40.42911057360470294952392578125</LatitudeDegrees>
              <LongitudeDegrees>-5.711924023926258087158203125</LongitudeDegrees>
            </Position>
            <AltitudeMeters>1127.5999755859375</AltitudeMeters>
            <DistanceMeters>NAN</DistanceMeters>
          </Trackpoint>
          <Trackpoint>
            <Time>2019-10-07T11:54:34.000Z</Time>
            <Position>
              <LatitudeDegrees>40.42911057360470294952392578125</LatitudeDegrees>
              <LongitudeDegrees>-5.711924023926258087158203125</LongitudeDegrees>
            </Position>
            <AltitudeMeters>1128.199951171875</AltitudeMeters>
            <DistanceMeters>NAN</DistanceMeters>
          </Trackpoint>
          <Trackpoint>
            <Time>2019-10-07T11:54:35.000Z</Time>
            <Position>
              <LatitudeDegrees>40.42911057360470294952392578125</LatitudeDegrees>
              <LongitudeDegrees>-5.711924023926258087158203125</LongitudeDegrees>
            </Position>
            <AltitudeMeters>1128.199951171875</AltitudeMeters>
            <DistanceMeters>NAN</DistanceMeters>
          </Trackpoint>
          <Trackpoint>
            <Time>2019-10-07T11:54:36.000Z</Time>
            <Position>
              <LatitudeDegrees>40.42911057360470294952392578125</LatitudeDegrees>
              <LongitudeDegrees>-5.711924023926258087158203125</LongitudeDegrees>
            </Position>
            <AltitudeMeters>1128</AltitudeMeters>
            <DistanceMeters>NAN</DistanceMeters>
          </Trackpoint>
          <Trackpoint>
            <Time>2019-10-07T11:54:37.000Z</Time>
            <Position>
              <LatitudeDegrees>40.42911057360470294952392578125</LatitudeDegrees>
              <LongitudeDegrees>-5.711924023926258087158203125</LongitudeDegrees>
            </Position>
            <AltitudeMeters>1127.800048828125</AltitudeMeters>
            <DistanceMeters>NAN</DistanceMeters>
          </Trackpoint>
          <Trackpoint>
            <Time>2019-10-07T11:54:38.000Z</Time>
            <Position>
              <LatitudeDegrees>40.42911057360470294952392578125</LatitudeDegrees>
              <LongitudeDegrees>-5.711924023926258087158203125</LongitudeDegrees>
            </Position>
            <AltitudeMeters>1128</AltitudeMeters>
            <DistanceMeters>NAN</DistanceMeters>
          </Trackpoint>
          <Trackpoint>
            <Time>2019-10-07T11:54:51.000Z</Time>
            <Position>
              <LatitudeDegrees>40.42911057360470294952392578125</LatitudeDegrees>
              <LongitudeDegrees>-5.711924023926258087158203125</LongitudeDegrees>
            </Position>
            <AltitudeMeters>1128.199951171875</AltitudeMeters>
            <DistanceMeters>NAN</DistanceMeters>
          </Trackpoint>
          <Trackpoint>
            <Time>2019-10-07T11:55:03.000Z</Time>
            <Position>
              <LatitudeDegrees>40.42910705320537090301513671875</LatitudeDegrees>
              <LongitudeDegrees>-5.71192746050655841827392578125</LongitudeDegrees>
            </Position>
            <AltitudeMeters>1127.800048828125</AltitudeMeters>
            <DistanceMeters>NAN</DistanceMeters>
          </Trackpoint>
          <Trackpoint>
            <Time>2019-10-07T11:55:06.000Z</Time>
            <Position>
              <LatitudeDegrees>40.42910705320537090301513671875</LatitudeDegrees>
              <LongitudeDegrees>-5.71192746050655841827392578125</LongitudeDegrees>
            </Position>
            <AltitudeMeters>1128</AltitudeMeters>
            <DistanceMeters>NAN</DistanceMeters>
          </Trackpoint>
          <Trackpoint>
            <Time>2019-10-07T11:55:10.000Z</Time>
            <Position>
              <LatitudeDegrees>40.42910705320537090301513671875</LatitudeDegrees>
              <LongitudeDegrees>-5.71192746050655841827392578125</LongitudeDegrees>
            </Position>
            <AltitudeMeters>1128.199951171875</AltitudeMeters>
            <DistanceMeters>NAN</DistanceMeters>
          </Trackpoint>
          <Trackpoint>
            <Time>2019-10-07T11:55:25.000Z</Time>
            <Position>
              <LatitudeDegrees>40.42910705320537090301513671875</LatitudeDegrees>
              <LongitudeDegrees>-5.71192746050655841827392578125</LongitudeDegrees>
            </Position>
            <AltitudeMeters>1128.199951171875</AltitudeMeters>
            <DistanceMeters>NAN</DistanceMeters>
          </Trackpoint>
          <Trackpoint>
            <Time>2019-10-07T11:55:34.000Z</Time>
            <Position>
              <LatitudeDegrees>40.42910705320537090301513671875</LatitudeDegrees>
              <LongitudeDegrees>-5.71192746050655841827392578125</LongitudeDegrees>
            </Position>
            <AltitudeMeters>1128</AltitudeMeters>
            <DistanceMeters>NAN</DistanceMeters>
          </Trackpoint>
          <Trackpoint>
            <Time>2019-10-07T11:55:42.000Z</Time>
            <Position>
              <LatitudeDegrees>40.42910671792924404144287109375</LatitudeDegrees>
              <LongitudeDegrees>-5.7119201682507991790771484375</LongitudeDegrees>
            </Position>
            <AltitudeMeters>1128.199951171875</AltitudeMeters>
            <DistanceMeters>NAN</DistanceMeters>
          </Trackpoint>
          <Trackpoint>
            <Time>2019-10-07T11:55:43.000Z</Time>
            <Position>
              <LatitudeDegrees>40.42910671792924404144287109375</LatitudeDegrees>
              <LongitudeDegrees>-5.7119201682507991790771484375</LongitudeDegrees>
            </Position>
            <AltitudeMeters>1128.199951171875</AltitudeMeters>
            <DistanceMeters>NAN</DistanceMeters>
          </Trackpoint>
          <Trackpoint>
            <Time>2019-10-07T11:55:44.000Z</Time>
            <Position>
              <LatitudeDegrees>40.42910671792924404144287109375</LatitudeDegrees>
              <LongitudeDegrees>-5.7119201682507991790771484375</LongitudeDegrees>
            </Position>
            <AltitudeMeters>1128.4000244140625</AltitudeMeters>
            <DistanceMeters>NAN</DistanceMeters>
          </Trackpoint>
          <Trackpoint>
            <Time>2019-10-07T11:55:45.000Z</Time>
            <Position>
              <LatitudeDegrees>40.4291066341102123260498046875</LatitudeDegrees>
              <LongitudeDegrees>-5.71191941387951374053955078125</LongitudeDegrees>
            </Position>
            <AltitudeMeters>1128.4000244140625</AltitudeMeters>
            <DistanceMeters>NAN</DistanceMeters>
          </Trackpoint>
          <Trackpoint>
            <Time>2019-10-07T11:55:46.000Z</Time>
            <Position>
              <LatitudeDegrees>40.42910587973892688751220703125</LatitudeDegrees>
              <LongitudeDegrees>-5.71191991679370403289794921875</LongitudeDegrees>
            </Position>
            <AltitudeMeters>1128.4000244140625</AltitudeMeters>
            <DistanceMeters>NAN</DistanceMeters>
          </Trackpoint>
          <Trackpoint>
            <Time>2019-10-07T11:55:47.000Z</Time>
            <Position>
              <LatitudeDegrees>40.42910604737699031829833984375</LatitudeDegrees>
              <LongitudeDegrees>-5.71191966533660888671875</LongitudeDegrees>
            </Position>
            <AltitudeMeters>1128.4000244140625</AltitudeMeters>
            <DistanceMeters>NAN</DistanceMeters>
          </Trackpoint>
          <Trackpoint>
            <Time>2019-10-07T11:55:52.000Z</Time>
            <Position>
              <LatitudeDegrees>40.42910671792924404144287109375</LatitudeDegrees>
              <LongitudeDegrees>-5.7119201682507991790771484375</LongitudeDegrees>
            </Position>
            <AltitudeMeters>1128.4000244140625</AltitudeMeters>
            <DistanceMeters>NAN</DistanceMeters>
          </Trackpoint>
          <Trackpoint>
            <Time>2019-10-07T11:55:53.000Z</Time>
            <Position>
              <LatitudeDegrees>40.42910671792924404144287109375</LatitudeDegrees>
              <LongitudeDegrees>-5.7119201682507991790771484375</LongitudeDegrees>
            </Position>
            <AltitudeMeters>1128.4000244140625</AltitudeMeters>
            <DistanceMeters>NAN</DistanceMeters>
          </Trackpoint>
          <Trackpoint>
            <Time>2019-10-07T11:55:56.000Z</Time>
            <Position>
              <LatitudeDegrees>40.42910638265311717987060546875</LatitudeDegrees>
              <LongitudeDegrees>-5.711919330060482025146484375</LongitudeDegrees>
            </Position>
            <AltitudeMeters>1128.199951171875</AltitudeMeters>
            <DistanceMeters>NAN</DistanceMeters>
          </Trackpoint>
          <Trackpoint>
            <Time>2019-10-07T11:55:57.000Z</Time>
            <Position>
              <LatitudeDegrees>40.4291056282818317413330078125</LatitudeDegrees>
              <LongitudeDegrees>-5.71191740222275257110595703125</LongitudeDegrees>
            </Position>
            <AltitudeMeters>1128.199951171875</AltitudeMeters>
            <DistanceMeters>NAN</DistanceMeters>
          </Trackpoint>
          <Trackpoint>
            <Time>2019-10-07T11:55:59.000Z</Time>
            <Position>
              <LatitudeDegrees>40.4290826618671417236328125</LatitudeDegrees>
              <LongitudeDegrees>-5.71188756264746189117431640625</LongitudeDegrees>
            </Position>
            <AltitudeMeters>1127.800048828125</AltitudeMeters>
            <DistanceMeters>NAN</DistanceMeters>
          </Trackpoint>
          <Trackpoint>
            <Time>2019-10-07T11:56:05.000Z</Time>
            <Position>
              <LatitudeDegrees>40.4289959929883480072021484375</LatitudeDegrees>
              <LongitudeDegrees>-5.7117642648518085479736328125</LongitudeDegrees>
            </Position>
            <AltitudeMeters>1127.5999755859375</AltitudeMeters>
            <DistanceMeters>NAN</DistanceMeters>
          </Trackpoint>
          <Trackpoint>
            <Time>2019-10-07T11:56:08.000Z</Time>
            <Position>
              <LatitudeDegrees>40.42893505655229091644287109375</LatitudeDegrees>
              <LongitudeDegrees>-5.71170232258737087249755859375</LongitudeDegrees>
            </Position>
            <AltitudeMeters>1127.4000244140625</AltitudeMeters>
            <DistanceMeters>NAN</DistanceMeters>
          </Trackpoint>
          <Trackpoint>
            <Time>2019-10-07T11:56:12.000Z</Time>
            <Position>
              <LatitudeDegrees>40.42886205017566680908203125</LatitudeDegrees>
              <LongitudeDegrees>-5.71161582134664058685302734375</LongitudeDegrees>
            </Position>
            <AltitudeMeters>1128.4000244140625</AltitudeMeters>
            <DistanceMeters>NAN</DistanceMeters>
          </Trackpoint>
          <Trackpoint>
            <Time>2019-10-07T11:56:14.000Z</Time>
            <Position>
              <LatitudeDegrees>40.428829528391361236572265625</LatitudeDegrees>
              <LongitudeDegrees>-5.71156896650791168212890625</LongitudeDegrees>
            </Position>
            <AltitudeMeters>1128.800048828125</AltitudeMeters>
            <DistanceMeters>NAN</DistanceMeters>
          </Trackpoint>
          <Trackpoint>
            <Time>2019-10-07T11:56:22.000Z</Time>
            <Position>
              <LatitudeDegrees>40.42869709432125091552734375</LatitudeDegrees>
              <LongitudeDegrees>-5.71135799400508403778076171875</LongitudeDegrees>
            </Position>
            <AltitudeMeters>1129.4000244140625</AltitudeMeters>
            <DistanceMeters>NAN</DistanceMeters>
          </Trackpoint>
          <Trackpoint>
            <Time>2019-10-07T11:56:24.000Z</Time>
            <Position>
              <LatitudeDegrees>40.4286701045930385589599609375</LatitudeDegrees>
              <LongitudeDegrees>-5.7113002426922321319580078125</LongitudeDegrees>
            </Position>
            <AltitudeMeters>1130.199951171875</AltitudeMeters>
            <DistanceMeters>NAN</DistanceMeters>
          </Trackpoint>
          <Trackpoint>
            <Time>2019-10-07T11:56:26.000Z</Time>
            <Position>
              <LatitudeDegrees>40.42864336632192134857177734375</LatitudeDegrees>
              <LongitudeDegrees>-5.71124550886452198028564453125</LongitudeDegrees>
            </Position>
            <AltitudeMeters>1130</AltitudeMeters>
            <DistanceMeters>NAN</DistanceMeters>
          </Trackpoint>
          <Trackpoint>
            <Time>2019-10-07T11:56:29.000Z</Time>
            <Position>
              <LatitudeDegrees>40.42859994806349277496337890625</LatitudeDegrees>
              <LongitudeDegrees>-5.711175017058849334716796875</LongitudeDegrees>
            </Position>
            <AltitudeMeters>1130</AltitudeMeters>
            <DistanceMeters>NAN</DistanceMeters>
          </Trackpoint>
          <Trackpoint>
            <Time>2019-10-07T11:56:30.000Z</Time>
            <Position>
              <LatitudeDegrees>40.42858670465648174285888671875</LatitudeDegrees>
              <LongitudeDegrees>-5.71114777587354183197021484375</LongitudeDegrees>
            </Position>
            <AltitudeMeters>1130.5999755859375</AltitudeMeters>
            <DistanceMeters>NAN</DistanceMeters>
          </Trackpoint>
          <Trackpoint>
            <Time>2019-10-07T11:56:31.000Z</Time>
            <Position>
              <LatitudeDegrees>40.428573377430438995361328125</LatitudeDegrees>
              <LongitudeDegrees>-5.71112011559307575225830078125</LongitudeDegrees>
            </Position>
            <AltitudeMeters>1130.4000244140625</AltitudeMeters>
            <DistanceMeters>NAN</DistanceMeters>
          </Trackpoint>
          <Trackpoint>
            <Time>2019-10-07T11:56:33.000Z</Time>
            <Position>
              <LatitudeDegrees>40.4285450465977191925048828125</LatitudeDegrees>
              <LongitudeDegrees>-5.71106471121311187744140625</LongitudeDegrees>
            </Position>
            <AltitudeMeters>1130.800048828125</AltitudeMeters>
            <DistanceMeters>NAN</DistanceMeters>
          </Trackpoint>
          <Trackpoint>
            <Time>2019-10-07T11:56:36.000Z</Time>
            <Position>
              <LatitudeDegrees>40.42850405909121036529541015625</LatitudeDegrees>
              <LongitudeDegrees>-5.710983909666538238525390625</LongitudeDegrees>
            </Position>
            <AltitudeMeters>1131.5999755859375</AltitudeMeters>
            <DistanceMeters>NAN</DistanceMeters>
          </Trackpoint>
          <Trackpoint>
            <Time>2019-10-07T11:56:40.000Z</Time>
            <Position>
              <LatitudeDegrees>40.4284523427486419677734375</LatitudeDegrees>
              <LongitudeDegrees>-5.71087427437305450439453125</LongitudeDegrees>
            </Position>
            <AltitudeMeters>1132.199951171875</AltitudeMeters>
            <DistanceMeters>NAN</DistanceMeters>
          </Trackpoint>
          <Trackpoint>
            <Time>2019-10-07T11:56:45.000Z</Time>
            <Position>
              <LatitudeDegrees>40.428392328321933746337890625</LatitudeDegrees>
              <LongitudeDegrees>-5.71073086000978946685791015625</LongitudeDegrees>
            </Position>
            <AltitudeMeters>1132.800048828125</AltitudeMeters>
            <DistanceMeters>NAN</DistanceMeters>
          </Trackpoint>
          <Trackpoint>
            <Time>2019-10-07T11:56:47.000Z</Time>
            <Position>
              <LatitudeDegrees>40.42836760170757770538330078125</LatitudeDegrees>
              <LongitudeDegrees>-5.71067310869693756103515625</LongitudeDegrees>
            </Position>
            <AltitudeMeters>1133</AltitudeMeters>
            <DistanceMeters>NAN</DistanceMeters>
          </Trackpoint>
          <Trackpoint>
            <Time>2019-10-07T11:56:52.000Z</Time>
            <Position>
              <LatitudeDegrees>40.428322590887546539306640625</LatitudeDegrees>
              <LongitudeDegrees>-5.710558779537677764892578125</LongitudeDegrees>
            </Position>
            <AltitudeMeters>1134</AltitudeMeters>
            <DistanceMeters>NAN</DistanceMeters>
          </Trackpoint>
          <Trackpoint>
            <Time>2019-10-07T11:56:57.000Z</Time>
            <Position>
              <LatitudeDegrees>40.4282671026885509490966796875</LatitudeDegrees>
              <LongitudeDegrees>-5.7104107551276683807373046875</LongitudeDegrees>
            </Position>
            <AltitudeMeters>1134.4000244140625</AltitudeMeters>
            <DistanceMeters>NAN</DistanceMeters>
          </Trackpoint>
          <Trackpoint>
            <Time>2019-10-07T11:57:00.000Z</Time>
            <Position>
              <LatitudeDegrees>40.428238101303577423095703125</LatitudeDegrees>
              <LongitudeDegrees>-5.71031193248927593231201171875</LongitudeDegrees>
            </Position>
            <AltitudeMeters>1135.199951171875</AltitudeMeters>
            <DistanceMeters>NAN</DistanceMeters>
          </Trackpoint>
          <Trackpoint>
            <Time>2019-10-07T11:57:06.000Z</Time>
            <Position>
              <LatitudeDegrees>40.42817750014364719390869140625</LatitudeDegrees>
              <LongitudeDegrees>-5.71012652479112148284912109375</LongitudeDegrees>
            </Position>
            <AltitudeMeters>1136</AltitudeMeters>
            <DistanceMeters>NAN</DistanceMeters>
          </Trackpoint>
          <Trackpoint>
            <Time>2019-10-07T11:57:08.000Z</Time>
            <Position>
              <LatitudeDegrees>40.42815671302378177642822265625</LatitudeDegrees>
              <LongitudeDegrees>-5.7100660912692546844482421875</LongitudeDegrees>
            </Position>
            <AltitudeMeters>1136.199951171875</AltitudeMeters>
            <DistanceMeters>NAN</DistanceMeters>
          </Trackpoint>
          <Trackpoint>
            <Time>2019-10-07T11:57:16.000Z</Time>
            <Position>
              <LatitudeDegrees>40.42807490564882755279541015625</LatitudeDegrees>
              <LongitudeDegrees>-5.70982293225824832916259765625</LongitudeDegrees>
            </Position>
            <AltitudeMeters>1137.199951171875</AltitudeMeters>
            <DistanceMeters>NAN</DistanceMeters>
          </Trackpoint>
          <Trackpoint>
            <Time>2019-10-07T11:57:17.000Z</Time>
            <Position>
              <LatitudeDegrees>40.4280625842511653900146484375</LatitudeDegrees>
              <LongitudeDegrees>-5.709792673587799072265625</LongitudeDegrees>
            </Position>
            <AltitudeMeters>1137.5999755859375</AltitudeMeters>
            <DistanceMeters>NAN</DistanceMeters>
          </Trackpoint>
          <Trackpoint>
            <Time>2019-10-07T11:57:25.000Z</Time>
            <Position>
              <LatitudeDegrees>40.42795286513864994049072265625</LatitudeDegrees>
              <LongitudeDegrees>-5.70955672301352024078369140625</LongitudeDegrees>
            </Position>
            <AltitudeMeters>1138.5999755859375</AltitudeMeters>
            <DistanceMeters>NAN</DistanceMeters>
          </Trackpoint>
          <Trackpoint>
            <Time>2019-10-07T11:57:26.000Z</Time>
            <Position>
              <LatitudeDegrees>40.42793509550392627716064453125</LatitudeDegrees>
              <LongitudeDegrees>-5.7095299847424030303955078125</LongitudeDegrees>
            </Position>
            <AltitudeMeters>1138.800048828125</AltitudeMeters>
            <DistanceMeters>NAN</DistanceMeters>
          </Trackpoint>
          <Trackpoint>
            <Time>2019-10-07T11:57:34.000Z</Time>
            <Position>
              <LatitudeDegrees>40.4277953691780567169189453125</LatitudeDegrees>
              <LongitudeDegrees>-5.70933401584625244140625</LongitudeDegrees>
            </Position>
            <AltitudeMeters>1139.800048828125</AltitudeMeters>
            <DistanceMeters>NAN</DistanceMeters>
          </Trackpoint>
          <Trackpoint>
            <Time>2019-10-07T11:57:35.000Z</Time>
            <Position>
              <LatitudeDegrees>40.4277762584388256072998046875</LatitudeDegrees>
              <LongitudeDegrees>-5.7093133963644504547119140625</LongitudeDegrees>
            </Position>
            <AltitudeMeters>1140</AltitudeMeters>
            <DistanceMeters>NAN</DistanceMeters>
          </Trackpoint>
          <Trackpoint>
            <Time>2019-10-07T11:57:41.000Z</Time>
            <Position>
              <LatitudeDegrees>40.42765296064317226409912109375</LatitudeDegrees>
              <LongitudeDegrees>-5.70918892510235309600830078125</LongitudeDegrees>
            </Position>
            <AltitudeMeters>1141</AltitudeMeters>
            <DistanceMeters>NAN</DistanceMeters>
          </Trackpoint>
          <Trackpoint>
            <Time>2019-10-07T11:57:42.000Z</Time>
            <Position>
              <LatitudeDegrees>40.4276317544281482696533203125</LatitudeDegrees>
              <LongitudeDegrees>-5.7091688923537731170654296875</LongitudeDegrees>
            </Position>
            <AltitudeMeters>1141.199951171875</AltitudeMeters>
            <DistanceMeters>NAN</DistanceMeters>
          </Trackpoint>
          <Trackpoint>
            <Time>2019-10-07T11:57:49.000Z</Time>
            <Position>
              <LatitudeDegrees>40.4274808801710605621337890625</LatitudeDegrees>
              <LongitudeDegrees>-5.7090307585895061492919921875</LongitudeDegrees>
            </Position>
            <AltitudeMeters>1142</AltitudeMeters>
            <DistanceMeters>NAN</DistanceMeters>
          </Trackpoint>
          <Trackpoint>
            <Time>2019-10-07T11:57:52.000Z</Time>
            <Position>
              <LatitudeDegrees>40.427419357001781463623046875</LatitudeDegrees>
              <LongitudeDegrees>-5.7089694030582904815673828125</LongitudeDegrees>
            </Position>
            <AltitudeMeters>1142.5999755859375</AltitudeMeters>
            <DistanceMeters>NAN</DistanceMeters>
          </Trackpoint>
          <Trackpoint>
            <Time>2019-10-07T11:57:55.000Z</Time>
            <Position>
              <LatitudeDegrees>40.42735825292766094207763671875</LatitudeDegrees>
              <LongitudeDegrees>-5.70891416631639003753662109375</LongitudeDegrees>
            </Position>
            <AltitudeMeters>1143</AltitudeMeters>
            <DistanceMeters>NAN</DistanceMeters>
          </Trackpoint>
          <Trackpoint>
            <Time>2019-10-07T11:58:00.000Z</Time>
            <Position>
              <LatitudeDegrees>40.4272656328976154327392578125</LatitudeDegrees>
              <LongitudeDegrees>-5.70880855433642864227294921875</LongitudeDegrees>
            </Position>
            <AltitudeMeters>1143.800048828125</AltitudeMeters>
            <DistanceMeters>NAN</DistanceMeters>
          </Trackpoint>
          <Trackpoint>
            <Time>2019-10-07T11:58:02.000Z</Time>
            <Position>
              <LatitudeDegrees>40.42722514830529689788818359375</LatitudeDegrees>
              <LongitudeDegrees>-5.70877008140087127685546875</LongitudeDegrees>
            </Position>
            <AltitudeMeters>1144.199951171875</AltitudeMeters>
            <DistanceMeters>NAN</DistanceMeters>
          </Trackpoint>
          <Trackpoint>
            <Time>2019-10-07T11:58:08.000Z</Time>
            <Position>
              <LatitudeDegrees>40.4270859248936176300048828125</LatitudeDegrees>
              <LongitudeDegrees>-5.70867259986698627471923828125</LongitudeDegrees>
            </Position>
            <AltitudeMeters>1145</AltitudeMeters>
            <DistanceMeters>NAN</DistanceMeters>
          </Trackpoint>
          <Trackpoint>
            <Time>2019-10-07T11:58:14.000Z</Time>
            <Position>
              <LatitudeDegrees>40.42694695293903350830078125</LatitudeDegrees>
              <LongitudeDegrees>-5.70855977945029735565185546875</LongitudeDegrees>
            </Position>
            <AltitudeMeters>1145.5999755859375</AltitudeMeters>
            <DistanceMeters>NAN</DistanceMeters>
          </Trackpoint>
          <Trackpoint>
            <Time>2019-10-07T11:58:18.000Z</Time>
            <Position>
              <LatitudeDegrees>40.426860786974430084228515625</LatitudeDegrees>
              <LongitudeDegrees>-5.7084758765995502471923828125</LongitudeDegrees>
            </Position>
            <AltitudeMeters>1146.4000244140625</AltitudeMeters>
            <DistanceMeters>NAN</DistanceMeters>
          </Trackpoint>
          <Trackpoint>
            <Time>2019-10-07T11:58:21.000Z</Time>
            <Position>
              <LatitudeDegrees>40.42679364793002605438232421875</LatitudeDegrees>
              <LongitudeDegrees>-5.7084212265908718109130859375</LongitudeDegrees>
            </Position>
            <AltitudeMeters>1146.5999755859375</AltitudeMeters>
            <DistanceMeters>NAN</DistanceMeters>
          </Trackpoint>
          <Trackpoint>
            <Time>2019-10-07T11:58:22.000Z</Time>
            <Position>
              <LatitudeDegrees>40.42677269317209720611572265625</LatitudeDegrees>
              <LongitudeDegrees>-5.70840203203260898590087890625</LongitudeDegrees>
            </Position>
            <AltitudeMeters>1146.800048828125</AltitudeMeters>
            <DistanceMeters>NAN</DistanceMeters>
          </Trackpoint>
          <Trackpoint>
            <Time>2019-10-07T11:58:26.000Z</Time>
            <Position>
              <LatitudeDegrees>40.42668669484555721282958984375</LatitudeDegrees>
              <LongitudeDegrees>-5.70832441560924053192138671875</LongitudeDegrees>
            </Position>
            <AltitudeMeters>1147.5999755859375</AltitudeMeters>
            <DistanceMeters>NAN</DistanceMeters>
          </Trackpoint>
          <Trackpoint>
            <Time>2019-10-07T11:58:27.000Z</Time>
            <Position>
              <LatitudeDegrees>40.42666532099246978759765625</LatitudeDegrees>
              <LongitudeDegrees>-5.7083052210509777069091796875</LongitudeDegrees>
            </Position>
            <AltitudeMeters>1148</AltitudeMeters>
            <DistanceMeters>NAN</DistanceMeters>
          </Trackpoint>
          <Trackpoint>
            <Time>2019-10-07T11:58:35.000Z</Time>
            <Position>
              <LatitudeDegrees>40.42649407871067523956298828125</LatitudeDegrees>
              <LongitudeDegrees>-5.70815158076584339141845703125</LongitudeDegrees>
            </Position>
            <AltitudeMeters>1149.199951171875</AltitudeMeters>
            <DistanceMeters>NAN</DistanceMeters>
          </Trackpoint>
          <Trackpoint>
            <Time>2019-10-07T11:58:43.000Z</Time>
            <Position>
              <LatitudeDegrees>40.42630255222320556640625</LatitudeDegrees>
              <LongitudeDegrees>-5.70803205482661724090576171875</LongitudeDegrees>
            </Position>
            <AltitudeMeters>1150.199951171875</AltitudeMeters>
            <DistanceMeters>NAN</DistanceMeters>
          </Trackpoint>
          <Trackpoint>
            <Time>2019-10-07T11:58:44.000Z</Time>
            <Position>
              <LatitudeDegrees>40.42627749033272266387939453125</LatitudeDegrees>
              <LongitudeDegrees>-5.7080192305147647857666015625</LongitudeDegrees>
            </Position>
            <AltitudeMeters>1150.4000244140625</AltitudeMeters>
            <DistanceMeters>NAN</DistanceMeters>
          </Trackpoint>
          <Trackpoint>
            <Time>2019-10-07T11:58:50.000Z</Time>
            <Position>
              <LatitudeDegrees>40.42612292803823947906494140625</LatitudeDegrees>
              <LongitudeDegrees>-5.70795812644064426422119140625</LongitudeDegrees>
            </Position>
            <AltitudeMeters>1151.4000244140625</AltitudeMeters>
            <DistanceMeters>NAN</DistanceMeters>
          </Trackpoint>
          <Trackpoint>
            <Time>2019-10-07T11:58:53.000Z</Time>
            <Position>
              <LatitudeDegrees>40.426046065986156463623046875</LatitudeDegrees>
              <LongitudeDegrees>-5.70794169791042804718017578125</LongitudeDegrees>
            </Position>
            <AltitudeMeters>1152</AltitudeMeters>
            <DistanceMeters>NAN</DistanceMeters>
          </Trackpoint>
          <Trackpoint>
            <Time>2019-10-07T11:58:57.000Z</Time>
            <Position>
              <LatitudeDegrees>40.42594112455844879150390625</LatitudeDegrees>
              <LongitudeDegrees>-5.70792610757052898406982421875</LongitudeDegrees>
            </Position>
            <AltitudeMeters>1152.800048828125</AltitudeMeters>
            <DistanceMeters>NAN</DistanceMeters>
          </Trackpoint>
          <Trackpoint>
            <Time>2019-10-07T11:59:02.000Z</Time>
            <Position>
              <LatitudeDegrees>40.4258142225444316864013671875</LatitudeDegrees>
              <LongitudeDegrees>-5.707906074821949005126953125</LongitudeDegrees>
            </Position>
            <AltitudeMeters>1154.199951171875</AltitudeMeters>
            <DistanceMeters>NAN</DistanceMeters>
          </Trackpoint>
          <Trackpoint>
            <Time>2019-10-07T11:59:03.000Z</Time>
            <Position>
              <LatitudeDegrees>40.4257889091968536376953125</LatitudeDegrees>
              <LongitudeDegrees>-5.707904063165187835693359375</LongitudeDegrees>
            </Position>
            <AltitudeMeters>1154</AltitudeMeters>
            <DistanceMeters>NAN</DistanceMeters>
          </Trackpoint>
          <Trackpoint>
            <Time>2019-10-07T11:59:13.000Z</Time>
            <Position>
              <LatitudeDegrees>40.42552529834210872650146484375</LatitudeDegrees>
              <LongitudeDegrees>-5.7078700326383113861083984375</LongitudeDegrees>
            </Position>
            <AltitudeMeters>1155.199951171875</AltitudeMeters>
            <DistanceMeters>NAN</DistanceMeters>
          </Trackpoint>
          <Trackpoint>
            <Time>2019-10-07T11:59:20.000Z</Time>
            <Position>
              <LatitudeDegrees>40.42533854953944683074951171875</LatitudeDegrees>
              <LongitudeDegrees>-5.7078603096306324005126953125</LongitudeDegrees>
            </Position>
            <AltitudeMeters>1156.5999755859375</AltitudeMeters>
            <DistanceMeters>NAN</DistanceMeters>
          </Trackpoint>
          <Trackpoint>
            <Time>2019-10-07T11:59:24.000Z</Time>
            <Position>
              <LatitudeDegrees>40.42523226700723171234130859375</LatitudeDegrees>
              <LongitudeDegrees>-5.7078494131565093994140625</LongitudeDegrees>
            </Position>
            <AltitudeMeters>1156.800048828125</AltitudeMeters>
            <DistanceMeters>NAN</DistanceMeters>
          </Trackpoint>
          <Trackpoint>
            <Time>2019-10-07T11:59:32.000Z</Time>
            <Position>
              <LatitudeDegrees>40.42501819320023059844970703125</LatitudeDegrees>
              <LongitudeDegrees>-5.70783273316919803619384765625</LongitudeDegrees>
            </Position>
            <AltitudeMeters>1157.800048828125</AltitudeMeters>
            <DistanceMeters>NAN</DistanceMeters>
          </Trackpoint>
          <Trackpoint>
            <Time>2019-10-07T11:59:34.000Z</Time>
            <Position>
              <LatitudeDegrees>40.4249659739434719085693359375</LatitudeDegrees>
              <LongitudeDegrees>-5.70782870985567569732666015625</LongitudeDegrees>
            </Position>
            <AltitudeMeters>1158.199951171875</AltitudeMeters>
            <DistanceMeters>NAN</DistanceMeters>
          </Trackpoint>
          <Trackpoint>
            <Time>2019-10-07T11:59:40.000Z</Time>
            <Position>
              <LatitudeDegrees>40.42480596341192722320556640625</LatitudeDegrees>
              <LongitudeDegrees>-5.70781026966869831085205078125</LongitudeDegrees>
            </Position>
            <AltitudeMeters>1159</AltitudeMeters>
            <DistanceMeters>NAN</DistanceMeters>
          </Trackpoint>
          <Trackpoint>
            <Time>2019-10-07T11:59:45.000Z</Time>
            <Position>
              <LatitudeDegrees>40.42467235587537288665771484375</LatitudeDegrees>
              <LongitudeDegrees>-5.70779400877654552459716796875</LongitudeDegrees>
            </Position>
            <AltitudeMeters>1159.4000244140625</AltitudeMeters>
            <DistanceMeters>NAN</DistanceMeters>
          </Trackpoint>
          <Trackpoint>
            <Time>2019-10-07T11:59:50.000Z</Time>
            <Position>
              <LatitudeDegrees>40.42454176582396030426025390625</LatitudeDegrees>
              <LongitudeDegrees>-5.7077858783304691314697265625</LongitudeDegrees>
            </Position>
            <AltitudeMeters>1160.4000244140625</AltitudeMeters>
            <DistanceMeters>NAN</DistanceMeters>
          </Trackpoint>
          <Trackpoint>
            <Time>2019-10-07T11:59:58.000Z</Time>
            <Position>
              <LatitudeDegrees>40.42433179914951324462890625</LatitudeDegrees>
              <LongitudeDegrees>-5.7077634148299694061279296875</LongitudeDegrees>
            </Position>
            <AltitudeMeters>1161.4000244140625</AltitudeMeters>
            <DistanceMeters>NAN</DistanceMeters>
          </Trackpoint>
          <Trackpoint>
            <Time>2019-10-07T12:00:04.000Z</Time>
            <Position>
              <LatitudeDegrees>40.42417346499860286712646484375</LatitudeDegrees>
              <LongitudeDegrees>-5.7077614031732082366943359375</LongitudeDegrees>
            </Position>
            <AltitudeMeters>1162.4000244140625</AltitudeMeters>
            <DistanceMeters>NAN</DistanceMeters>
          </Trackpoint>
          <Trackpoint>
            <Time>2019-10-07T12:00:07.000Z</Time>
            <Position>
              <LatitudeDegrees>40.42409316636621952056884765625</LatitudeDegrees>
              <LongitudeDegrees>-5.707761235535144805908203125</LongitudeDegrees>
            </Position>
            <AltitudeMeters>1163.199951171875</AltitudeMeters>
            <DistanceMeters>NAN</DistanceMeters>
          </Trackpoint>
          <Trackpoint>
            <Time>2019-10-07T12:00:09.000Z</Time>
            <Position>
              <LatitudeDegrees>40.42404270730912685394287109375</LatitudeDegrees>
              <LongitudeDegrees>-5.70776198990643024444580078125</LongitudeDegrees>
            </Position>
            <AltitudeMeters>1163.5999755859375</AltitudeMeters>
            <DistanceMeters>NAN</DistanceMeters>
          </Trackpoint>
          <Trackpoint>
            <Time>2019-10-07T12:00:17.000Z</Time>
            <Position>
              <LatitudeDegrees>40.42382762767374515533447265625</LatitudeDegrees>
              <LongitudeDegrees>-5.7077671028673648834228515625</LongitudeDegrees>
            </Position>
            <AltitudeMeters>1164.4000244140625</AltitudeMeters>
            <DistanceMeters>NAN</DistanceMeters>
          </Trackpoint>
          <Trackpoint>
            <Time>2019-10-07T12:00:19.000Z</Time>
            <Position>
              <LatitudeDegrees>40.4237745702266693115234375</LatitudeDegrees>
              <LongitudeDegrees>-5.70777003653347492218017578125</LongitudeDegrees>
            </Position>
            <AltitudeMeters>1165.199951171875</AltitudeMeters>
            <DistanceMeters>NAN</DistanceMeters>
          </Trackpoint>
          <Trackpoint>
            <Time>2019-10-07T12:00:27.000Z</Time>
            <Position>
              <LatitudeDegrees>40.4235613346099853515625</LatitudeDegrees>
              <LongitudeDegrees>-5.7077831961214542388916015625</LongitudeDegrees>
            </Position>
            <AltitudeMeters>1165.5999755859375</AltitudeMeters>
            <DistanceMeters>NAN</DistanceMeters>
          </Trackpoint>
          <Trackpoint>
            <Time>2019-10-07T12:00:29.000Z</Time>
            <Position>
              <LatitudeDegrees>40.4235065169632434844970703125</LatitudeDegrees>
              <LongitudeDegrees>-5.707790739834308624267578125</LongitudeDegrees>
            </Position>
            <AltitudeMeters>1166.4000244140625</AltitudeMeters>
            <DistanceMeters>NAN</DistanceMeters>
          </Trackpoint>
          <Trackpoint>
            <Time>2019-10-07T12:00:37.000Z</Time>
            <Position>
              <LatitudeDegrees>40.4233043454587459564208984375</LatitudeDegrees>
              <LongitudeDegrees>-5.70781789720058441162109375</LongitudeDegrees>
            </Position>
            <AltitudeMeters>1167.199951171875</AltitudeMeters>
            <DistanceMeters>NAN</DistanceMeters>
          </Trackpoint>
          <Trackpoint>
            <Time>2019-10-07T12:00:41.000Z</Time>
            <Position>
              <LatitudeDegrees>40.4232845641672611236572265625</LatitudeDegrees>
              <LongitudeDegrees>-5.70781831629574298858642578125</LongitudeDegrees>
            </Position>
            <AltitudeMeters>1167.4000244140625</AltitudeMeters>
            <DistanceMeters>NAN</DistanceMeters>
          </Trackpoint>
          <Trackpoint>
            <Time>2019-10-07T12:00:48.000Z</Time>
            <Position>
              <LatitudeDegrees>40.4232356138527393341064453125</LatitudeDegrees>
              <LongitudeDegrees>-5.707843713462352752685546875</LongitudeDegrees>
            </Position>
            <AltitudeMeters>1167.199951171875</AltitudeMeters>
            <DistanceMeters>NAN</DistanceMeters>
          </Trackpoint>
          <Trackpoint>
            <Time>2019-10-07T12:00:49.000Z</Time>
            <Position>
              <LatitudeDegrees>40.42323804460465908050537109375</LatitudeDegrees>
              <LongitudeDegrees>-5.707848407328128814697265625</LongitudeDegrees>
            </Position>
            <AltitudeMeters>1167.4000244140625</AltitudeMeters>
            <DistanceMeters>NAN</DistanceMeters>
          </Trackpoint>
          <Trackpoint>
            <Time>2019-10-07T12:00:51.000Z</Time>
            <Position>
              <LatitudeDegrees>40.42324072681367397308349609375</LatitudeDegrees>
              <LongitudeDegrees>-5.70784547366201877593994140625</LongitudeDegrees>
            </Position>
            <AltitudeMeters>1167.4000244140625</AltitudeMeters>
            <DistanceMeters>NAN</DistanceMeters>
          </Trackpoint>
          <Trackpoint>
            <Time>2019-10-07T12:00:52.000Z</Time>
            <Position>
              <LatitudeDegrees>40.4232359491288661956787109375</LatitudeDegrees>
              <LongitudeDegrees>-5.7078468985855579376220703125</LongitudeDegrees>
            </Position>
            <AltitudeMeters>1167.5999755859375</AltitudeMeters>
            <DistanceMeters>NAN</DistanceMeters>
          </Trackpoint>
          <Trackpoint>
            <Time>2019-10-07T12:00:59.000Z</Time>
            <Position>
              <LatitudeDegrees>40.423241145908832550048828125</LatitudeDegrees>
              <LongitudeDegrees>-5.70784597657620906829833984375</LongitudeDegrees>
            </Position>
            <AltitudeMeters>1167.5999755859375</AltitudeMeters>
            <DistanceMeters>NAN</DistanceMeters>
          </Trackpoint>
          <Trackpoint>
            <Time>2019-10-07T12:01:17.000Z</Time>
            <Position>
              <LatitudeDegrees>40.423241145908832550048828125</LatitudeDegrees>
              <LongitudeDegrees>-5.70784597657620906829833984375</LongitudeDegrees>
            </Position>
            <AltitudeMeters>1167.4000244140625</AltitudeMeters>
            <DistanceMeters>NAN</DistanceMeters>
          </Trackpoint>
          <Trackpoint>
            <Time>2019-10-07T12:01:22.000Z</Time>
            <Position>
              <LatitudeDegrees>40.423241145908832550048828125</LatitudeDegrees>
              <LongitudeDegrees>-5.70784597657620906829833984375</LongitudeDegrees>
            </Position>
            <AltitudeMeters>1167.5999755859375</AltitudeMeters>
            <DistanceMeters>NAN</DistanceMeters>
          </Trackpoint>
          <Trackpoint>
            <Time>2019-10-07T12:01:24.000Z</Time>
            <Position>
              <LatitudeDegrees>40.423241145908832550048828125</LatitudeDegrees>
              <LongitudeDegrees>-5.70784597657620906829833984375</LongitudeDegrees>
            </Position>
            <AltitudeMeters>1167.4000244140625</AltitudeMeters>
            <DistanceMeters>NAN</DistanceMeters>
          </Trackpoint>
          <Trackpoint>
            <Time>2019-10-07T12:01:28.000Z</Time>
            <Position>
              <LatitudeDegrees>40.423241145908832550048828125</LatitudeDegrees>
              <LongitudeDegrees>-5.70784597657620906829833984375</LongitudeDegrees>
            </Position>
            <AltitudeMeters>1167.4000244140625</AltitudeMeters>
            <DistanceMeters>NAN</DistanceMeters>
          </Trackpoint>
          <Trackpoint>
            <Time>2019-10-07T12:01:31.000Z</Time>
            <Position>
              <LatitudeDegrees>40.423241145908832550048828125</LatitudeDegrees>
              <LongitudeDegrees>-5.70784597657620906829833984375</LongitudeDegrees>
            </Position>
            <AltitudeMeters>1167.4000244140625</AltitudeMeters>
            <DistanceMeters>NAN</DistanceMeters>
          </Trackpoint>
          <Trackpoint>
            <Time>2019-10-07T12:01:38.000Z</Time>
            <Position>
              <LatitudeDegrees>40.42323837988078594207763671875</LatitudeDegrees>
              <LongitudeDegrees>-5.70785150863230228424072265625</LongitudeDegrees>
            </Position>
            <AltitudeMeters>1167.4000244140625</AltitudeMeters>
            <DistanceMeters>NAN</DistanceMeters>
          </Trackpoint>
          <Trackpoint>
            <Time>2019-10-07T12:01:40.000Z</Time>
            <Position>
              <LatitudeDegrees>40.42323837988078594207763671875</LatitudeDegrees>
              <LongitudeDegrees>-5.70785150863230228424072265625</LongitudeDegrees>
            </Position>
            <AltitudeMeters>1167.4000244140625</AltitudeMeters>
            <DistanceMeters>NAN</DistanceMeters>
          </Trackpoint>
          <Trackpoint>
            <Time>2019-10-07T12:01:48.000Z</Time>
            <Position>
              <LatitudeDegrees>40.42323837988078594207763671875</LatitudeDegrees>
              <LongitudeDegrees>-5.70785150863230228424072265625</LongitudeDegrees>
            </Position>
            <AltitudeMeters>1167.5999755859375</AltitudeMeters>
            <DistanceMeters>NAN</DistanceMeters>
          </Trackpoint>
          <Trackpoint>
            <Time>2019-10-07T12:01:51.000Z</Time>
            <Position>
              <LatitudeDegrees>40.42323837988078594207763671875</LatitudeDegrees>
              <LongitudeDegrees>-5.70785150863230228424072265625</LongitudeDegrees>
            </Position>
            <AltitudeMeters>1167.4000244140625</AltitudeMeters>
            <DistanceMeters>NAN</DistanceMeters>
          </Trackpoint>
          <Trackpoint>
            <Time>2019-10-07T12:01:55.000Z</Time>
            <Position>
              <LatitudeDegrees>40.42323837988078594207763671875</LatitudeDegrees>
              <LongitudeDegrees>-5.70785150863230228424072265625</LongitudeDegrees>
            </Position>
            <AltitudeMeters>1167.4000244140625</AltitudeMeters>
            <DistanceMeters>NAN</DistanceMeters>
          </Trackpoint>
          <Trackpoint>
            <Time>2019-10-07T12:02:00.000Z</Time>
            <Position>
              <LatitudeDegrees>40.42323837988078594207763671875</LatitudeDegrees>
              <LongitudeDegrees>-5.70785150863230228424072265625</LongitudeDegrees>
            </Position>
            <AltitudeMeters>1167.4000244140625</AltitudeMeters>
            <DistanceMeters>NAN</DistanceMeters>
          </Trackpoint>
          <Trackpoint>
            <Time>2019-10-07T12:02:02.000Z</Time>
            <Position>
              <LatitudeDegrees>40.42323837988078594207763671875</LatitudeDegrees>
              <LongitudeDegrees>-5.70785150863230228424072265625</LongitudeDegrees>
            </Position>
            <AltitudeMeters>1167.4000244140625</AltitudeMeters>
            <DistanceMeters>NAN</DistanceMeters>
          </Trackpoint>
          <Trackpoint>
            <Time>2019-10-07T12:02:08.000Z</Time>
            <Position>
              <LatitudeDegrees>40.42324055917561054229736328125</LatitudeDegrees>
              <LongitudeDegrees>-5.70784715004265308380126953125</LongitudeDegrees>
            </Position>
            <AltitudeMeters>1167.5999755859375</AltitudeMeters>
            <DistanceMeters>NAN</DistanceMeters>
          </Trackpoint>
          <Trackpoint>
            <Time>2019-10-07T12:02:13.000Z</Time>
            <Position>
              <LatitudeDegrees>40.4232419840991497039794921875</LatitudeDegrees>
              <LongitudeDegrees>-5.7078425399959087371826171875</LongitudeDegrees>
            </Position>
            <AltitudeMeters>1167.5999755859375</AltitudeMeters>
            <DistanceMeters>NAN</DistanceMeters>
          </Trackpoint>
          <Trackpoint>
            <Time>2019-10-07T12:02:18.000Z</Time>
            <Position>
              <LatitudeDegrees>40.423228740692138671875</LatitudeDegrees>
              <LongitudeDegrees>-5.70783575065433979034423828125</LongitudeDegrees>
            </Position>
            <AltitudeMeters>1167.800048828125</AltitudeMeters>
            <DistanceMeters>NAN</DistanceMeters>
          </Trackpoint>
          <Trackpoint>
            <Time>2019-10-07T12:02:23.000Z</Time>
            <Position>
              <LatitudeDegrees>40.4232191853225231170654296875</LatitudeDegrees>
              <LongitudeDegrees>-5.70783876813948154449462890625</LongitudeDegrees>
            </Position>
            <AltitudeMeters>1167.5999755859375</AltitudeMeters>
            <DistanceMeters>NAN</DistanceMeters>
          </Trackpoint>
          <Trackpoint>
            <Time>2019-10-07T12:02:28.000Z</Time>
            <Position>
              <LatitudeDegrees>40.42316612787544727325439453125</LatitudeDegrees>
              <LongitudeDegrees>-5.70783801376819610595703125</LongitudeDegrees>
            </Position>
            <AltitudeMeters>1168</AltitudeMeters>
            <DistanceMeters>NAN</DistanceMeters>
          </Trackpoint>
          <Trackpoint>
            <Time>2019-10-07T12:02:33.000Z</Time>
            <Position>
              <LatitudeDegrees>40.42309152893722057342529296875</LatitudeDegrees>
              <LongitudeDegrees>-5.7078723795711994171142578125</LongitudeDegrees>
            </Position>
            <AltitudeMeters>1168.5999755859375</AltitudeMeters>
            <DistanceMeters>NAN</DistanceMeters>
          </Trackpoint>
          <Trackpoint>
            <Time>2019-10-07T12:02:34.000Z</Time>
            <Position>
              <LatitudeDegrees>40.423071496188640594482421875</LatitudeDegrees>
              <LongitudeDegrees>-5.70788101293146610260009765625</LongitudeDegrees>
            </Position>
            <AltitudeMeters>1168.5999755859375</AltitudeMeters>
            <DistanceMeters>NAN</DistanceMeters>
          </Trackpoint>
          <Trackpoint>
            <Time>2019-10-07T12:02:42.000Z</Time>
            <Position>
              <LatitudeDegrees>40.422885753214359283447265625</LatitudeDegrees>
              <LongitudeDegrees>-5.70797145366668701171875</LongitudeDegrees>
            </Position>
            <AltitudeMeters>1169.5999755859375</AltitudeMeters>
            <DistanceMeters>NAN</DistanceMeters>
          </Trackpoint>
          <Trackpoint>
            <Time>2019-10-07T12:02:43.000Z</Time>
            <Position>
              <LatitudeDegrees>40.422863624989986419677734375</LatitudeDegrees>
              <LongitudeDegrees>-5.70798444561660289764404296875</LongitudeDegrees>
            </Position>
            <AltitudeMeters>1169.5999755859375</AltitudeMeters>
            <DistanceMeters>NAN</DistanceMeters>
          </Trackpoint>
          <Trackpoint>
            <Time>2019-10-07T12:02:49.000Z</Time>
            <Position>
              <LatitudeDegrees>40.4227206297218799591064453125</LatitudeDegrees>
              <LongitudeDegrees>-5.70807161740958690643310546875</LongitudeDegrees>
            </Position>
            <AltitudeMeters>1170.5999755859375</AltitudeMeters>
            <DistanceMeters>NAN</DistanceMeters>
          </Trackpoint>
          <Trackpoint>
            <Time>2019-10-07T12:02:53.000Z</Time>
            <Position>
              <LatitudeDegrees>40.42263303883373737335205078125</LatitudeDegrees>
              <LongitudeDegrees>-5.70814303122460842132568359375</LongitudeDegrees>
            </Position>
            <AltitudeMeters>1170.5999755859375</AltitudeMeters>
            <DistanceMeters>NAN</DistanceMeters>
          </Trackpoint>
          <Trackpoint>
            <Time>2019-10-07T12:02:58.000Z</Time>
            <Position>
              <LatitudeDegrees>40.42252155952155590057373046875</LatitudeDegrees>
              <LongitudeDegrees>-5.708254091441631317138671875</LongitudeDegrees>
            </Position>
            <AltitudeMeters>1170.800048828125</AltitudeMeters>
            <DistanceMeters>NAN</DistanceMeters>
          </Trackpoint>
          <Trackpoint>
            <Time>2019-10-07T12:03:05.000Z</Time>
            <Position>
              <LatitudeDegrees>40.4223208129405975341796875</LatitudeDegrees>
              <LongitudeDegrees>-5.7084503956139087677001953125</LongitudeDegrees>
            </Position>
            <AltitudeMeters>1169.800048828125</AltitudeMeters>
            <DistanceMeters>NAN</DistanceMeters>
          </Trackpoint>
          <Trackpoint>
            <Time>2019-10-07T12:03:07.000Z</Time>
            <Position>
              <LatitudeDegrees>40.42225250042974948883056640625</LatitudeDegrees>
              <LongitudeDegrees>-5.7085231505334377288818359375</LongitudeDegrees>
            </Position>
            <AltitudeMeters>1169.4000244140625</AltitudeMeters>
            <DistanceMeters>NAN</DistanceMeters>
          </Trackpoint>
          <Trackpoint>
            <Time>2019-10-07T12:03:10.000Z</Time>
            <Position>
              <LatitudeDegrees>40.42213297449052333831787109375</LatitudeDegrees>
              <LongitudeDegrees>-5.70864276029169559478759765625</LongitudeDegrees>
            </Position>
            <AltitudeMeters>1169.199951171875</AltitudeMeters>
            <DistanceMeters>NAN</DistanceMeters>
          </Trackpoint>
          <Trackpoint>
            <Time>2019-10-07T12:03:13.000Z</Time>
            <Position>
              <LatitudeDegrees>40.42200028896331787109375</LatitudeDegrees>
              <LongitudeDegrees>-5.7087779603898525238037109375</LongitudeDegrees>
            </Position>
            <AltitudeMeters>1168</AltitudeMeters>
            <DistanceMeters>NAN</DistanceMeters>
          </Trackpoint>
          <Trackpoint>
            <Time>2019-10-07T12:03:14.000Z</Time>
            <Position>
              <LatitudeDegrees>40.42195360176265239715576171875</LatitudeDegrees>
              <LongitudeDegrees>-5.70882917381823062896728515625</LongitudeDegrees>
            </Position>
            <AltitudeMeters>1167.800048828125</AltitudeMeters>
            <DistanceMeters>NAN</DistanceMeters>
          </Trackpoint>
          <Trackpoint>
            <Time>2019-10-07T12:03:15.000Z</Time>
            <Position>
              <LatitudeDegrees>40.4219065792858600616455078125</LatitudeDegrees>
              <LongitudeDegrees>-5.70888617075979709625244140625</LongitudeDegrees>
            </Position>
            <AltitudeMeters>1167</AltitudeMeters>
            <DistanceMeters>NAN</DistanceMeters>
          </Trackpoint>
          <Trackpoint>
            <Time>2019-10-07T12:03:17.000Z</Time>
            <Position>
              <LatitudeDegrees>40.4218046553432941436767578125</LatitudeDegrees>
              <LongitudeDegrees>-5.7089992426335811614990234375</LongitudeDegrees>
            </Position>
            <AltitudeMeters>1166.199951171875</AltitudeMeters>
            <DistanceMeters>NAN</DistanceMeters>
          </Trackpoint>
          <Trackpoint>
            <Time>2019-10-07T12:03:19.000Z</Time>
            <Position>
              <LatitudeDegrees>40.4216913320124149322509765625</LatitudeDegrees>
              <LongitudeDegrees>-5.70911449380218982696533203125</LongitudeDegrees>
            </Position>
            <AltitudeMeters>1166</AltitudeMeters>
            <DistanceMeters>NAN</DistanceMeters>
          </Trackpoint>
          <Trackpoint>
            <Time>2019-10-07T12:03:21.000Z</Time>
            <Position>
              <LatitudeDegrees>40.42157289572060108184814453125</LatitudeDegrees>
              <LongitudeDegrees>-5.70923854596912860870361328125</LongitudeDegrees>
            </Position>
            <AltitudeMeters>1164.5999755859375</AltitudeMeters>
            <DistanceMeters>NAN</DistanceMeters>
          </Trackpoint>
          <Trackpoint>
            <Time>2019-10-07T12:03:22.000Z</Time>
            <Position>
              <LatitudeDegrees>40.42151690460741519927978515625</LatitudeDegrees>
              <LongitudeDegrees>-5.70931498892605304718017578125</LongitudeDegrees>
            </Position>
            <AltitudeMeters>1164.5999755859375</AltitudeMeters>
            <DistanceMeters>NAN</DistanceMeters>
          </Trackpoint>
          <Trackpoint>
            <Time>2019-10-07T12:03:24.000Z</Time>
            <Position>
              <LatitudeDegrees>40.42140576057136058807373046875</LatitudeDegrees>
              <LongitudeDegrees>-5.7094813697040081024169921875</LongitudeDegrees>
            </Position>
            <AltitudeMeters>1163.4000244140625</AltitudeMeters>
            <DistanceMeters>NAN</DistanceMeters>
          </Trackpoint>
          <Trackpoint>
            <Time>2019-10-07T12:03:25.000Z</Time>
            <Position>
              <LatitudeDegrees>40.421348176896572113037109375</LatitudeDegrees>
              <LongitudeDegrees>-5.70956946350634098052978515625</LongitudeDegrees>
            </Position>
            <AltitudeMeters>1162.800048828125</AltitudeMeters>
            <DistanceMeters>NAN</DistanceMeters>
          </Trackpoint>
          <Trackpoint>
            <Time>2019-10-07T12:03:26.000Z</Time>
            <Position>
              <LatitudeDegrees>40.421289503574371337890625</LatitudeDegrees>
              <LongitudeDegrees>-5.7096620835363864898681640625</LongitudeDegrees>
            </Position>
            <AltitudeMeters>1162.4000244140625</AltitudeMeters>
            <DistanceMeters>NAN</DistanceMeters>
          </Trackpoint>
          <Trackpoint>
            <Time>2019-10-07T12:03:28.000Z</Time>
            <Position>
              <LatitudeDegrees>40.42116704396903514862060546875</LatitudeDegrees>
              <LongitudeDegrees>-5.70985025726258754730224609375</LongitudeDegrees>
            </Position>
            <AltitudeMeters>1161</AltitudeMeters>
            <DistanceMeters>NAN</DistanceMeters>
          </Trackpoint>
          <Trackpoint>
            <Time>2019-10-07T12:03:29.000Z</Time>
            <Position>
              <LatitudeDegrees>40.421102754771709442138671875</LatitudeDegrees>
              <LongitudeDegrees>-5.70994623005390167236328125</LongitudeDegrees>
            </Position>
            <AltitudeMeters>1160.199951171875</AltitudeMeters>
            <DistanceMeters>NAN</DistanceMeters>
          </Trackpoint>
          <Trackpoint>
            <Time>2019-10-07T12:03:30.000Z</Time>
            <Position>
              <LatitudeDegrees>40.42103997431695461273193359375</LatitudeDegrees>
              <LongitudeDegrees>-5.710046477615833282470703125</LongitudeDegrees>
            </Position>
            <AltitudeMeters>1159.800048828125</AltitudeMeters>
            <DistanceMeters>NAN</DistanceMeters>
          </Trackpoint>
          <Trackpoint>
            <Time>2019-10-07T12:03:31.000Z</Time>
            <Position>
              <LatitudeDegrees>40.42097568511962890625</LatitudeDegrees>
              <LongitudeDegrees>-5.7101492397487163543701171875</LongitudeDegrees>
            </Position>
            <AltitudeMeters>1159.199951171875</AltitudeMeters>
            <DistanceMeters>NAN</DistanceMeters>
          </Trackpoint>
          <Trackpoint>
            <Time>2019-10-07T12:03:32.000Z</Time>
            <Position>
              <LatitudeDegrees>40.4209126532077789306640625</LatitudeDegrees>
              <LongitudeDegrees>-5.710255689918994903564453125</LongitudeDegrees>
            </Position>
            <AltitudeMeters>1158.5999755859375</AltitudeMeters>
            <DistanceMeters>NAN</DistanceMeters>
          </Trackpoint>
          <Trackpoint>
            <Time>2019-10-07T12:03:34.000Z</Time>
            <Position>
              <LatitudeDegrees>40.4207817278802394866943359375</LatitudeDegrees>
              <LongitudeDegrees>-5.7104711048305034637451171875</LongitudeDegrees>
            </Position>
            <AltitudeMeters>1156.800048828125</AltitudeMeters>
            <DistanceMeters>NAN</DistanceMeters>
          </Trackpoint>
          <Trackpoint>
            <Time>2019-10-07T12:03:36.000Z</Time>
            <Position>
              <LatitudeDegrees>40.4206466116011142730712890625</LatitudeDegrees>
              <LongitudeDegrees>-5.7106913812458515167236328125</LongitudeDegrees>
            </Position>
            <AltitudeMeters>1155.4000244140625</AltitudeMeters>
            <DistanceMeters>NAN</DistanceMeters>
          </Trackpoint>
          <Trackpoint>
            <Time>2019-10-07T12:03:38.000Z</Time>
            <Position>
              <LatitudeDegrees>40.42050772346556186676025390625</LatitudeDegrees>
              <LongitudeDegrees>-5.7109146751463413238525390625</LongitudeDegrees>
            </Position>
            <AltitudeMeters>1154.5999755859375</AltitudeMeters>
            <DistanceMeters>NAN</DistanceMeters>
          </Trackpoint>
          <Trackpoint>
            <Time>2019-10-07T12:03:39.000Z</Time>
            <Position>
              <LatitudeDegrees>40.4204380698502063751220703125</LatitudeDegrees>
              <LongitudeDegrees>-5.71102540008723735809326171875</LongitudeDegrees>
            </Position>
            <AltitudeMeters>1154</AltitudeMeters>
            <DistanceMeters>NAN</DistanceMeters>
          </Trackpoint>
          <Trackpoint>
            <Time>2019-10-07T12:03:41.000Z</Time>
            <Position>
              <LatitudeDegrees>40.420300103724002838134765625</LatitudeDegrees>
              <LongitudeDegrees>-5.7112442515790462493896484375</LongitudeDegrees>
            </Position>
            <AltitudeMeters>1152.800048828125</AltitudeMeters>
            <DistanceMeters>NAN</DistanceMeters>
          </Trackpoint>
          <Trackpoint>
            <Time>2019-10-07T12:03:44.000Z</Time>
            <Position>
              <LatitudeDegrees>40.420104973018169403076171875</LatitudeDegrees>
              <LongitudeDegrees>-5.71157592348754405975341796875</LongitudeDegrees>
            </Position>
            <AltitudeMeters>1152.5999755859375</AltitudeMeters>
            <DistanceMeters>NAN</DistanceMeters>
          </Trackpoint>
          <Trackpoint>
            <Time>2019-10-07T12:03:46.000Z</Time>
            <Position>
              <LatitudeDegrees>40.419967174530029296875</LatitudeDegrees>
              <LongitudeDegrees>-5.71178220212459564208984375</LongitudeDegrees>
            </Position>
            <AltitudeMeters>1151.800048828125</AltitudeMeters>
            <DistanceMeters>NAN</DistanceMeters>
          </Trackpoint>
          <Trackpoint>
            <Time>2019-10-07T12:03:49.000Z</Time>
            <Position>
              <LatitudeDegrees>40.41973239742219448089599609375</LatitudeDegrees>
              <LongitudeDegrees>-5.7120562903583049774169921875</LongitudeDegrees>
            </Position>
            <AltitudeMeters>1150.800048828125</AltitudeMeters>
            <DistanceMeters>NAN</DistanceMeters>
          </Trackpoint>
          <Trackpoint>
            <Time>2019-10-07T12:03:51.000Z</Time>
            <Position>
              <LatitudeDegrees>40.419565849006175994873046875</LatitudeDegrees>
              <LongitudeDegrees>-5.71222736500203609466552734375</LongitudeDegrees>
            </Position>
            <AltitudeMeters>1150</AltitudeMeters>
            <DistanceMeters>NAN</DistanceMeters>
          </Trackpoint>
          <Trackpoint>
            <Time>2019-10-07T12:03:53.000Z</Time>
            <Position>
              <LatitudeDegrees>40.41938982903957366943359375</LatitudeDegrees>
              <LongitudeDegrees>-5.712394416332244873046875</LongitudeDegrees>
            </Position>
            <AltitudeMeters>1149.5999755859375</AltitudeMeters>
            <DistanceMeters>NAN</DistanceMeters>
          </Trackpoint>
          <Trackpoint>
            <Time>2019-10-07T12:03:55.000Z</Time>
            <Position>
              <LatitudeDegrees>40.41921305470168590545654296875</LatitudeDegrees>
              <LongitudeDegrees>-5.7125674188137054443359375</LongitudeDegrees>
            </Position>
            <AltitudeMeters>1148</AltitudeMeters>
            <DistanceMeters>NAN</DistanceMeters>
          </Trackpoint>
          <Trackpoint>
            <Time>2019-10-07T12:03:56.000Z</Time>
            <Position>
              <LatitudeDegrees>40.41912202723324298858642578125</LatitudeDegrees>
              <LongitudeDegrees>-5.712651908397674560546875</LongitudeDegrees>
            </Position>
            <AltitudeMeters>1146.800048828125</AltitudeMeters>
            <DistanceMeters>NAN</DistanceMeters>
          </Trackpoint>
          <Trackpoint>
            <Time>2019-10-07T12:03:58.000Z</Time>
            <Position>
              <LatitudeDegrees>40.418940223753452301025390625</LatitudeDegrees>
              <LongitudeDegrees>-5.712818540632724761962890625</LongitudeDegrees>
            </Position>
            <AltitudeMeters>1145.800048828125</AltitudeMeters>
            <DistanceMeters>NAN</DistanceMeters>
          </Trackpoint>
          <Trackpoint>
            <Time>2019-10-07T12:04:01.000Z</Time>
            <Position>
              <LatitudeDegrees>40.4186678119003772735595703125</LatitudeDegrees>
              <LongitudeDegrees>-5.71306589059531688690185546875</LongitudeDegrees>
            </Position>
            <AltitudeMeters>1144.800048828125</AltitudeMeters>
            <DistanceMeters>NAN</DistanceMeters>
          </Trackpoint>
          <Trackpoint>
            <Time>2019-10-07T12:04:04.000Z</Time>
            <Position>
              <LatitudeDegrees>40.41838827542960643768310546875</LatitudeDegrees>
              <LongitudeDegrees>-5.7133165933191776275634765625</LongitudeDegrees>
            </Position>
            <AltitudeMeters>1144</AltitudeMeters>
            <DistanceMeters>NAN</DistanceMeters>
          </Trackpoint>
          <Trackpoint>
            <Time>2019-10-07T12:04:05.000Z</Time>
            <Position>
              <LatitudeDegrees>40.4182921350002288818359375</LatitudeDegrees>
              <LongitudeDegrees>-5.713404603302478790283203125</LongitudeDegrees>
            </Position>
            <AltitudeMeters>1143.5999755859375</AltitudeMeters>
            <DistanceMeters>NAN</DistanceMeters>
          </Trackpoint>
          <Trackpoint>
            <Time>2019-10-07T12:04:07.000Z</Time>
            <Position>
              <LatitudeDegrees>40.4180948249995708465576171875</LatitudeDegrees>
              <LongitudeDegrees>-5.713585652410984039306640625</LongitudeDegrees>
            </Position>
            <AltitudeMeters>1142</AltitudeMeters>
            <DistanceMeters>NAN</DistanceMeters>
          </Trackpoint>
          <Trackpoint>
            <Time>2019-10-07T12:04:09.000Z</Time>
            <Position>
              <LatitudeDegrees>40.41789676062762737274169921875</LatitudeDegrees>
              <LongitudeDegrees>-5.71376913227140903472900390625</LongitudeDegrees>
            </Position>
            <AltitudeMeters>1141</AltitudeMeters>
            <DistanceMeters>NAN</DistanceMeters>
          </Trackpoint>
          <Trackpoint>
            <Time>2019-10-07T12:04:11.000Z</Time>
            <Position>
              <LatitudeDegrees>40.41770867072045803070068359375</LatitudeDegrees>
              <LongitudeDegrees>-5.71396417915821075439453125</LongitudeDegrees>
            </Position>
            <AltitudeMeters>1139.4000244140625</AltitudeMeters>
            <DistanceMeters>NAN</DistanceMeters>
          </Trackpoint>
          <Trackpoint>
            <Time>2019-10-07T12:04:13.000Z</Time>
            <Position>
              <LatitudeDegrees>40.41751907207071781158447265625</LatitudeDegrees>
              <LongitudeDegrees>-5.71414564736187458038330078125</LongitudeDegrees>
            </Position>
            <AltitudeMeters>1139.199951171875</AltitudeMeters>
            <DistanceMeters>NAN</DistanceMeters>
          </Trackpoint>
          <Trackpoint>
            <Time>2019-10-07T12:04:18.000Z</Time>
            <Position>
              <LatitudeDegrees>40.41703677736222743988037109375</LatitudeDegrees>
              <LongitudeDegrees>-5.71458603255450725555419921875</LongitudeDegrees>
            </Position>
            <AltitudeMeters>1138.199951171875</AltitudeMeters>
            <DistanceMeters>NAN</DistanceMeters>
          </Trackpoint>
          <Trackpoint>
            <Time>2019-10-07T12:04:19.000Z</Time>
            <Position>
              <LatitudeDegrees>40.41693820618093013763427734375</LatitudeDegrees>
              <LongitudeDegrees>-5.7146771438419818878173828125</LongitudeDegrees>
            </Position>
            <AltitudeMeters>1137.5999755859375</AltitudeMeters>
            <DistanceMeters>NAN</DistanceMeters>
          </Trackpoint>
          <Trackpoint>
            <Time>2019-10-07T12:04:21.000Z</Time>
            <Position>
              <LatitudeDegrees>40.41673938743770122528076171875</LatitudeDegrees>
              <LongitudeDegrees>-5.714861042797565460205078125</LongitudeDegrees>
            </Position>
            <AltitudeMeters>1136.800048828125</AltitudeMeters>
            <DistanceMeters>NAN</DistanceMeters>
          </Trackpoint>
          <Trackpoint>
            <Time>2019-10-07T12:04:25.000Z</Time>
            <Position>
              <LatitudeDegrees>40.416341833770275115966796875</LatitudeDegrees>
              <LongitudeDegrees>-5.71522490121424198150634765625</LongitudeDegrees>
            </Position>
            <AltitudeMeters>1135.800048828125</AltitudeMeters>
            <DistanceMeters>NAN</DistanceMeters>
          </Trackpoint>
          <Trackpoint>
            <Time>2019-10-07T12:04:27.000Z</Time>
            <Position>
              <LatitudeDegrees>40.4161458648741245269775390625</LatitudeDegrees>
              <LongitudeDegrees>-5.7154063694179058074951171875</LongitudeDegrees>
            </Position>
            <AltitudeMeters>1135.5999755859375</AltitudeMeters>
            <DistanceMeters>NAN</DistanceMeters>
          </Trackpoint>
          <Trackpoint>
            <Time>2019-10-07T12:04:28.000Z</Time>
            <Position>
              <LatitudeDegrees>40.41604922153055667877197265625</LatitudeDegrees>
              <LongitudeDegrees>-5.7154978998005390167236328125</LongitudeDegrees>
            </Position>
            <AltitudeMeters>1135.5999755859375</AltitudeMeters>
            <DistanceMeters>NAN</DistanceMeters>
          </Trackpoint>
          <Trackpoint>
            <Time>2019-10-07T12:04:29.000Z</Time>
            <Position>
              <LatitudeDegrees>40.415952242910861968994140625</LatitudeDegrees>
              <LongitudeDegrees>-5.71559051983058452606201171875</LongitudeDegrees>
            </Position>
            <AltitudeMeters>1135</AltitudeMeters>
            <DistanceMeters>NAN</DistanceMeters>
          </Trackpoint>
          <Trackpoint>
            <Time>2019-10-07T12:04:30.000Z</Time>
            <Position>
              <LatitudeDegrees>40.415855012834072113037109375</LatitudeDegrees>
              <LongitudeDegrees>-5.71568858809769153594970703125</LongitudeDegrees>
            </Position>
            <AltitudeMeters>1134.5999755859375</AltitudeMeters>
            <DistanceMeters>NAN</DistanceMeters>
          </Trackpoint>
          <Trackpoint>
            <Time>2019-10-07T12:04:32.000Z</Time>
            <Position>
              <LatitudeDegrees>40.41565225459635257720947265625</LatitudeDegrees>
              <LongitudeDegrees>-5.7158878259360790252685546875</LongitudeDegrees>
            </Position>
            <AltitudeMeters>1132.5999755859375</AltitudeMeters>
            <DistanceMeters>NAN</DistanceMeters>
          </Trackpoint>
          <Trackpoint>
            <Time>2019-10-07T12:04:34.000Z</Time>
            <Position>
              <LatitudeDegrees>40.4154451377689838409423828125</LatitudeDegrees>
              <LongitudeDegrees>-5.71609678678214550018310546875</LongitudeDegrees>
            </Position>
            <AltitudeMeters>1131</AltitudeMeters>
            <DistanceMeters>NAN</DistanceMeters>
          </Trackpoint>
          <Trackpoint>
            <Time>2019-10-07T12:04:35.000Z</Time>
            <Position>
              <LatitudeDegrees>40.4153412021696567535400390625</LatitudeDegrees>
              <LongitudeDegrees>-5.7162016443908214569091796875</LongitudeDegrees>
            </Position>
            <AltitudeMeters>1130.4000244140625</AltitudeMeters>
            <DistanceMeters>NAN</DistanceMeters>
          </Trackpoint>
          <Trackpoint>
            <Time>2019-10-07T12:04:36.000Z</Time>
            <Position>
              <LatitudeDegrees>40.4152370989322662353515625</LatitudeDegrees>
              <LongitudeDegrees>-5.7163082621991634368896484375</LongitudeDegrees>
            </Position>
            <AltitudeMeters>1129</AltitudeMeters>
            <DistanceMeters>NAN</DistanceMeters>
          </Trackpoint>
          <Trackpoint>
            <Time>2019-10-07T12:04:38.000Z</Time>
            <Position>
              <LatitudeDegrees>40.4150305688381195068359375</LatitudeDegrees>
              <LongitudeDegrees>-5.7165288738906383514404296875</LongitudeDegrees>
            </Position>
            <AltitudeMeters>1128</AltitudeMeters>
            <DistanceMeters>NAN</DistanceMeters>
          </Trackpoint>
          <Trackpoint>
            <Time>2019-10-07T12:04:39.000Z</Time>
            <Position>
              <LatitudeDegrees>40.41492990218102931976318359375</LatitudeDegrees>
              <LongitudeDegrees>-5.71664378978312015533447265625</LongitudeDegrees>
            </Position>
            <AltitudeMeters>1127.800048828125</AltitudeMeters>
            <DistanceMeters>NAN</DistanceMeters>
          </Trackpoint>
          <Trackpoint>
            <Time>2019-10-07T12:04:41.000Z</Time>
            <Position>
              <LatitudeDegrees>40.41473007760941982269287109375</LatitudeDegrees>
              <LongitudeDegrees>-5.71687211282551288604736328125</LongitudeDegrees>
            </Position>
            <AltitudeMeters>1127</AltitudeMeters>
            <DistanceMeters>NAN</DistanceMeters>
          </Trackpoint>
          <Trackpoint>
            <Time>2019-10-07T12:04:42.000Z</Time>
            <Position>
              <LatitudeDegrees>40.4146314226090908050537109375</LatitudeDegrees>
              <LongitudeDegrees>-5.71698342449963092803955078125</LongitudeDegrees>
            </Position>
            <AltitudeMeters>1126.4000244140625</AltitudeMeters>
            <DistanceMeters>NAN</DistanceMeters>
          </Trackpoint>
          <Trackpoint>
            <Time>2019-10-07T12:04:43.000Z</Time>
            <Position>
              <LatitudeDegrees>40.4145335219800472259521484375</LatitudeDegrees>
              <LongitudeDegrees>-5.7170931436121463775634765625</LongitudeDegrees>
            </Position>
            <AltitudeMeters>1126.199951171875</AltitudeMeters>
            <DistanceMeters>NAN</DistanceMeters>
          </Trackpoint>
          <Trackpoint>
            <Time>2019-10-07T12:04:44.000Z</Time>
            <Position>
              <LatitudeDegrees>40.414436794817447662353515625</LatitudeDegrees>
              <LongitudeDegrees>-5.71720537729561328887939453125</LongitudeDegrees>
            </Position>
            <AltitudeMeters>1126.4000244140625</AltitudeMeters>
            <DistanceMeters>NAN</DistanceMeters>
          </Trackpoint>
          <Trackpoint>
            <Time>2019-10-07T12:04:45.000Z</Time>
            <Position>
              <LatitudeDegrees>40.41434216313064098358154296875</LatitudeDegrees>
              <LongitudeDegrees>-5.71731635369360446929931640625</LongitudeDegrees>
            </Position>
            <AltitudeMeters>1127</AltitudeMeters>
            <DistanceMeters>NAN</DistanceMeters>
          </Trackpoint>
          <Trackpoint>
            <Time>2019-10-07T12:04:49.000Z</Time>
            <Position>
              <LatitudeDegrees>40.41395659558475017547607421875</LatitudeDegrees>
              <LongitudeDegrees>-5.7177261449396610260009765625</LongitudeDegrees>
            </Position>
            <AltitudeMeters>1126.199951171875</AltitudeMeters>
            <DistanceMeters>NAN</DistanceMeters>
          </Trackpoint>
          <Trackpoint>
            <Time>2019-10-07T12:04:50.000Z</Time>
            <Position>
              <LatitudeDegrees>40.4138612933456897735595703125</LatitudeDegrees>
              <LongitudeDegrees>-5.71782479993999004364013671875</LongitudeDegrees>
            </Position>
            <AltitudeMeters>1126</AltitudeMeters>
            <DistanceMeters>NAN</DistanceMeters>
          </Trackpoint>
          <Trackpoint>
            <Time>2019-10-07T12:04:52.000Z</Time>
            <Position>
              <LatitudeDegrees>40.41367026977241039276123046875</LatitudeDegrees>
              <LongitudeDegrees>-5.71802093647420406341552734375</LongitudeDegrees>
            </Position>
            <AltitudeMeters>1125.4000244140625</AltitudeMeters>
            <DistanceMeters>NAN</DistanceMeters>
          </Trackpoint>
          <Trackpoint>
            <Time>2019-10-07T12:04:54.000Z</Time>
            <Position>
              <LatitudeDegrees>40.4134794138371944427490234375</LatitudeDegrees>
              <LongitudeDegrees>-5.7182096131145954132080078125</LongitudeDegrees>
            </Position>
            <AltitudeMeters>1124.199951171875</AltitudeMeters>
            <DistanceMeters>NAN</DistanceMeters>
          </Trackpoint>
          <Trackpoint>
            <Time>2019-10-07T12:04:55.000Z</Time>
            <Position>
              <LatitudeDegrees>40.4133845306932926177978515625</LatitudeDegrees>
              <LongitudeDegrees>-5.71830122731626033782958984375</LongitudeDegrees>
            </Position>
            <AltitudeMeters>1124.4000244140625</AltitudeMeters>
            <DistanceMeters>NAN</DistanceMeters>
          </Trackpoint>
          <Trackpoint>
            <Time>2019-10-07T12:04:56.000Z</Time>
            <Position>
              <LatitudeDegrees>40.41328922845423221588134765625</LatitudeDegrees>
              <LongitudeDegrees>-5.7183916680514812469482421875</LongitudeDegrees>
            </Position>
            <AltitudeMeters>1124</AltitudeMeters>
            <DistanceMeters>NAN</DistanceMeters>
          </Trackpoint>
          <Trackpoint>
            <Time>2019-10-07T12:04:59.000Z</Time>
            <Position>
              <LatitudeDegrees>40.4130049981176853179931640625</LatitudeDegrees>
              <LongitudeDegrees>-5.71865678764879703521728515625</LongitudeDegrees>
            </Position>
            <AltitudeMeters>1124.199951171875</AltitudeMeters>
            <DistanceMeters>NAN</DistanceMeters>
          </Trackpoint>
          <Trackpoint>
            <Time>2019-10-07T12:05:02.000Z</Time>
            <Position>
              <LatitudeDegrees>40.4127260483801364898681640625</LatitudeDegrees>
              <LongitudeDegrees>-5.71892551146447658538818359375</LongitudeDegrees>
            </Position>
            <AltitudeMeters>1123.4000244140625</AltitudeMeters>
            <DistanceMeters>NAN</DistanceMeters>
          </Trackpoint>
          <Trackpoint>
            <Time>2019-10-07T12:05:03.000Z</Time>
            <Position>
              <LatitudeDegrees>40.41263678111135959625244140625</LatitudeDegrees>
              <LongitudeDegrees>-5.719019472599029541015625</LongitudeDegrees>
            </Position>
            <AltitudeMeters>1123</AltitudeMeters>
            <DistanceMeters>NAN</DistanceMeters>
          </Trackpoint>
          <Trackpoint>
            <Time>2019-10-07T12:05:05.000Z</Time>
            <Position>
              <LatitudeDegrees>40.41246746666729450225830078125</LatitudeDegrees>
              <LongitudeDegrees>-5.71921460330486297607421875</LongitudeDegrees>
            </Position>
            <AltitudeMeters>1122.5999755859375</AltitudeMeters>
            <DistanceMeters>NAN</DistanceMeters>
          </Trackpoint>
          <Trackpoint>
            <Time>2019-10-07T12:05:07.000Z</Time>
            <Position>
              <LatitudeDegrees>40.412313155829906463623046875</LatitudeDegrees>
              <LongitudeDegrees>-5.71942406706511974334716796875</LongitudeDegrees>
            </Position>
            <AltitudeMeters>1122.4000244140625</AltitudeMeters>
            <DistanceMeters>NAN</DistanceMeters>
          </Trackpoint>
          <Trackpoint>
            <Time>2019-10-07T12:05:09.000Z</Time>
            <Position>
              <LatitudeDegrees>40.4121686518192291259765625</LatitudeDegrees>
              <LongitudeDegrees>-5.71964786387979984283447265625</LongitudeDegrees>
            </Position>
            <AltitudeMeters>1121.4000244140625</AltitudeMeters>
            <DistanceMeters>NAN</DistanceMeters>
          </Trackpoint>
          <Trackpoint>
            <Time>2019-10-07T12:05:10.000Z</Time>
            <Position>
              <LatitudeDegrees>40.41210553608834743499755859375</LatitudeDegrees>
              <LongitudeDegrees>-5.7197612710297107696533203125</LongitudeDegrees>
            </Position>
            <AltitudeMeters>1121.199951171875</AltitudeMeters>
            <DistanceMeters>NAN</DistanceMeters>
          </Trackpoint>
          <Trackpoint>
            <Time>2019-10-07T12:05:13.000Z</Time>
            <Position>
              <LatitudeDegrees>40.411932282149791717529296875</LatitudeDegrees>
              <LongitudeDegrees>-5.72011850774288177490234375</LongitudeDegrees>
            </Position>
            <AltitudeMeters>1120</AltitudeMeters>
            <DistanceMeters>NAN</DistanceMeters>
          </Trackpoint>
          <Trackpoint>
            <Time>2019-10-07T12:05:15.000Z</Time>
            <Position>
              <LatitudeDegrees>40.41184117086231708526611328125</LatitudeDegrees>
              <LongitudeDegrees>-5.72037239558994770050048828125</LongitudeDegrees>
            </Position>
            <AltitudeMeters>1119.199951171875</AltitudeMeters>
            <DistanceMeters>NAN</DistanceMeters>
          </Trackpoint>
          <Trackpoint>
            <Time>2019-10-07T12:05:16.000Z</Time>
            <Position>
              <LatitudeDegrees>40.411819629371166229248046875</LatitudeDegrees>
              <LongitudeDegrees>-5.7204961962997913360595703125</LongitudeDegrees>
            </Position>
            <AltitudeMeters>1118.800048828125</AltitudeMeters>
            <DistanceMeters>NAN</DistanceMeters>
          </Trackpoint>
          <Trackpoint>
            <Time>2019-10-07T12:05:18.000Z</Time>
            <Position>
              <LatitudeDegrees>40.41184184141457080841064453125</LatitudeDegrees>
              <LongitudeDegrees>-5.72073449380695819854736328125</LongitudeDegrees>
            </Position>
            <AltitudeMeters>1118.800048828125</AltitudeMeters>
            <DistanceMeters>NAN</DistanceMeters>
          </Trackpoint>
          <Trackpoint>
            <Time>2019-10-07T12:05:21.000Z</Time>
            <Position>
              <LatitudeDegrees>40.41179716587066650390625</LatitudeDegrees>
              <LongitudeDegrees>-5.72102853097021579742431640625</LongitudeDegrees>
            </Position>
            <AltitudeMeters>1118.800048828125</AltitudeMeters>
            <DistanceMeters>NAN</DistanceMeters>
          </Trackpoint>
          <Trackpoint>
            <Time>2019-10-07T12:05:23.000Z</Time>
            <Position>
              <LatitudeDegrees>40.41164855472743511199951171875</LatitudeDegrees>
              <LongitudeDegrees>-5.72109692730009555816650390625</LongitudeDegrees>
            </Position>
            <AltitudeMeters>1118</AltitudeMeters>
            <DistanceMeters>NAN</DistanceMeters>
          </Trackpoint>
          <Trackpoint>
            <Time>2019-10-07T12:05:24.000Z</Time>
            <Position>
              <LatitudeDegrees>40.41157311759889125823974609375</LatitudeDegrees>
              <LongitudeDegrees>-5.7210621424019336700439453125</LongitudeDegrees>
            </Position>
            <AltitudeMeters>1117.5999755859375</AltitudeMeters>
            <DistanceMeters>NAN</DistanceMeters>
          </Trackpoint>
          <Trackpoint>
            <Time>2019-10-07T12:05:25.000Z</Time>
            <Position>
              <LatitudeDegrees>40.4115113429725170135498046875</LatitudeDegrees>
              <LongitudeDegrees>-5.72099030949175357818603515625</LongitudeDegrees>
            </Position>
            <AltitudeMeters>1117</AltitudeMeters>
            <DistanceMeters>NAN</DistanceMeters>
          </Trackpoint>
          <Trackpoint>
            <Time>2019-10-07T12:05:27.000Z</Time>
            <Position>
              <LatitudeDegrees>40.41142291389405727386474609375</LatitudeDegrees>
              <LongitudeDegrees>-5.72082267142832279205322265625</LongitudeDegrees>
            </Position>
            <AltitudeMeters>1117.199951171875</AltitudeMeters>
            <DistanceMeters>NAN</DistanceMeters>
          </Trackpoint>
          <Trackpoint>
            <Time>2019-10-07T12:05:28.000Z</Time>
            <Position>
              <LatitudeDegrees>40.411368347704410552978515625</LatitudeDegrees>
              <LongitudeDegrees>-5.72075821459293365478515625</LongitudeDegrees>
            </Position>
            <AltitudeMeters>1117.199951171875</AltitudeMeters>
            <DistanceMeters>NAN</DistanceMeters>
          </Trackpoint>
          <Trackpoint>
            <Time>2019-10-07T12:05:29.000Z</Time>
            <Position>
              <LatitudeDegrees>40.41130363941192626953125</LatitudeDegrees>
              <LongitudeDegrees>-5.72069895453751087188720703125</LongitudeDegrees>
            </Position>
            <AltitudeMeters>1117.199951171875</AltitudeMeters>
            <DistanceMeters>NAN</DistanceMeters>
          </Trackpoint>
          <Trackpoint>
            <Time>2019-10-07T12:05:32.000Z</Time>
            <Position>
              <LatitudeDegrees>40.411109514534473419189453125</LatitudeDegrees>
              <LongitudeDegrees>-5.72058479301631450653076171875</LongitudeDegrees>
            </Position>
            <AltitudeMeters>1118.5999755859375</AltitudeMeters>
            <DistanceMeters>NAN</DistanceMeters>
          </Trackpoint>
          <Trackpoint>
            <Time>2019-10-07T12:05:33.000Z</Time>
            <Position>
              <LatitudeDegrees>40.41104824282228946685791015625</LatitudeDegrees>
              <LongitudeDegrees>-5.720552019774913787841796875</LongitudeDegrees>
            </Position>
            <AltitudeMeters>1118.800048828125</AltitudeMeters>
            <DistanceMeters>NAN</DistanceMeters>
          </Trackpoint>
          <Trackpoint>
            <Time>2019-10-07T12:05:35.000Z</Time>
            <Position>
              <LatitudeDegrees>40.41092100553214550018310546875</LatitudeDegrees>
              <LongitudeDegrees>-5.7205136306583881378173828125</LongitudeDegrees>
            </Position>
            <AltitudeMeters>1118.5999755859375</AltitudeMeters>
            <DistanceMeters>NAN</DistanceMeters>
          </Trackpoint>
          <Trackpoint>
            <Time>2019-10-07T12:05:37.000Z</Time>
            <Position>
              <LatitudeDegrees>40.41079075075685977935791015625</LatitudeDegrees>
              <LongitudeDegrees>-5.72053869254887104034423828125</LongitudeDegrees>
            </Position>
            <AltitudeMeters>1118</AltitudeMeters>
            <DistanceMeters>NAN</DistanceMeters>
          </Trackpoint>
          <Trackpoint>
            <Time>2019-10-07T12:05:38.000Z</Time>
            <Position>
              <LatitudeDegrees>40.410726629197597503662109375</LatitudeDegrees>
              <LongitudeDegrees>-5.7205548696219921112060546875</LongitudeDegrees>
            </Position>
            <AltitudeMeters>1118</AltitudeMeters>
            <DistanceMeters>NAN</DistanceMeters>
          </Trackpoint>
          <Trackpoint>
            <Time>2019-10-07T12:05:40.000Z</Time>
            <Position>
              <LatitudeDegrees>40.410592518746852874755859375</LatitudeDegrees>
              <LongitudeDegrees>-5.7205716334283351898193359375</LongitudeDegrees>
            </Position>
            <AltitudeMeters>1118.199951171875</AltitudeMeters>
            <DistanceMeters>NAN</DistanceMeters>
          </Trackpoint>
          <Trackpoint>
            <Time>2019-10-07T12:05:41.000Z</Time>
            <Position>
              <LatitudeDegrees>40.41052387095987796783447265625</LatitudeDegrees>
              <LongitudeDegrees>-5.7205791771411895751953125</LongitudeDegrees>
            </Position>
            <AltitudeMeters>1117.800048828125</AltitudeMeters>
            <DistanceMeters>NAN</DistanceMeters>
          </Trackpoint>
          <Trackpoint>
            <Time>2019-10-07T12:05:42.000Z</Time>
            <Position>
              <LatitudeDegrees>40.41045446880161762237548828125</LatitudeDegrees>
              <LongitudeDegrees>-5.72059334255754947662353515625</LongitudeDegrees>
            </Position>
            <AltitudeMeters>1117.4000244140625</AltitudeMeters>
            <DistanceMeters>NAN</DistanceMeters>
          </Trackpoint>
          <Trackpoint>
            <Time>2019-10-07T12:05:43.000Z</Time>
            <Position>
              <LatitudeDegrees>40.41038674302399158477783203125</LatitudeDegrees>
              <LongitudeDegrees>-5.72062703780829906463623046875</LongitudeDegrees>
            </Position>
            <AltitudeMeters>1117</AltitudeMeters>
            <DistanceMeters>NAN</DistanceMeters>
          </Trackpoint>
          <Trackpoint>
            <Time>2019-10-07T12:05:45.000Z</Time>
            <Position>
              <LatitudeDegrees>40.41026897728443145751953125</LatitudeDegrees>
              <LongitudeDegrees>-5.7207446359097957611083984375</LongitudeDegrees>
            </Position>
            <AltitudeMeters>1116.800048828125</AltitudeMeters>
            <DistanceMeters>NAN</DistanceMeters>
          </Trackpoint>
          <Trackpoint>
            <Time>2019-10-07T12:05:46.000Z</Time>
            <Position>
              <LatitudeDegrees>40.41021156124770641326904296875</LatitudeDegrees>
              <LongitudeDegrees>-5.7208110205829143524169921875</LongitudeDegrees>
            </Position>
            <AltitudeMeters>1116.800048828125</AltitudeMeters>
            <DistanceMeters>NAN</DistanceMeters>
          </Trackpoint>
          <Trackpoint>
            <Time>2019-10-07T12:05:48.000Z</Time>
            <Position>
              <LatitudeDegrees>40.4100954718887805938720703125</LatitudeDegrees>
              <LongitudeDegrees>-5.72094462811946868896484375</LongitudeDegrees>
            </Position>
            <AltitudeMeters>1116.4000244140625</AltitudeMeters>
            <DistanceMeters>NAN</DistanceMeters>
          </Trackpoint>
          <Trackpoint>
            <Time>2019-10-07T12:05:53.000Z</Time>
            <Position>
              <LatitudeDegrees>40.40978039614856243133544921875</LatitudeDegrees>
              <LongitudeDegrees>-5.72126255370676517486572265625</LongitudeDegrees>
            </Position>
            <AltitudeMeters>1115.199951171875</AltitudeMeters>
            <DistanceMeters>NAN</DistanceMeters>
          </Trackpoint>
          <Trackpoint>
            <Time>2019-10-07T12:05:57.000Z</Time>
            <Position>
              <LatitudeDegrees>40.40949474088847637176513671875</LatitudeDegrees>
              <LongitudeDegrees>-5.721461288630962371826171875</LongitudeDegrees>
            </Position>
            <AltitudeMeters>1115.199951171875</AltitudeMeters>
            <DistanceMeters>NAN</DistanceMeters>
          </Trackpoint>
          <Trackpoint>
            <Time>2019-10-07T12:05:59.000Z</Time>
            <Position>
              <LatitudeDegrees>40.40933917276561260223388671875</LatitudeDegrees>
              <LongitudeDegrees>-5.72154921479523181915283203125</LongitudeDegrees>
            </Position>
            <AltitudeMeters>1114.4000244140625</AltitudeMeters>
            <DistanceMeters>NAN</DistanceMeters>
          </Trackpoint>
          <Trackpoint>
            <Time>2019-10-07T12:06:01.000Z</Time>
            <Position>
              <LatitudeDegrees>40.4091711156070232391357421875</LatitudeDegrees>
              <LongitudeDegrees>-5.721631944179534912109375</LongitudeDegrees>
            </Position>
            <AltitudeMeters>1113.800048828125</AltitudeMeters>
            <DistanceMeters>NAN</DistanceMeters>
          </Trackpoint>
          <Trackpoint>
            <Time>2019-10-07T12:06:02.000Z</Time>
            <Position>
              <LatitudeDegrees>40.409083776175975799560546875</LatitudeDegrees>
              <LongitudeDegrees>-5.721675194799900054931640625</LongitudeDegrees>
            </Position>
            <AltitudeMeters>1113.4000244140625</AltitudeMeters>
            <DistanceMeters>NAN</DistanceMeters>
          </Trackpoint>
          <Trackpoint>
            <Time>2019-10-07T12:06:03.000Z</Time>
            <Position>
              <LatitudeDegrees>40.408995263278484344482421875</LatitudeDegrees>
              <LongitudeDegrees>-5.72172154672443866729736328125</LongitudeDegrees>
            </Position>
            <AltitudeMeters>1112.4000244140625</AltitudeMeters>
            <DistanceMeters>NAN</DistanceMeters>
          </Trackpoint>
          <Trackpoint>
            <Time>2019-10-07T12:06:05.000Z</Time>
            <Position>
              <LatitudeDegrees>40.4088123701512813568115234375</LatitudeDegrees>
              <LongitudeDegrees>-5.7218141667544841766357421875</LongitudeDegrees>
            </Position>
            <AltitudeMeters>1111.4000244140625</AltitudeMeters>
            <DistanceMeters>NAN</DistanceMeters>
          </Trackpoint>
          <Trackpoint>
            <Time>2019-10-07T12:06:06.000Z</Time>
            <Position>
              <LatitudeDegrees>40.40871924720704555511474609375</LatitudeDegrees>
              <LongitudeDegrees>-5.7218627817928791046142578125</LongitudeDegrees>
            </Position>
            <AltitudeMeters>1110.800048828125</AltitudeMeters>
            <DistanceMeters>NAN</DistanceMeters>
          </Trackpoint>
          <Trackpoint>
            <Time>2019-10-07T12:06:08.000Z</Time>
            <Position>
              <LatitudeDegrees>40.40852730162441730499267578125</LatitudeDegrees>
              <LongitudeDegrees>-5.721962861716747283935546875</LongitudeDegrees>
            </Position>
            <AltitudeMeters>1109.5999755859375</AltitudeMeters>
            <DistanceMeters>NAN</DistanceMeters>
          </Trackpoint>
          <Trackpoint>
            <Time>2019-10-07T12:06:10.000Z</Time>
            <Position>
              <LatitudeDegrees>40.4083342663943767547607421875</LatitudeDegrees>
              <LongitudeDegrees>-5.72206637822091579437255859375</LongitudeDegrees>
            </Position>
            <AltitudeMeters>1108.4000244140625</AltitudeMeters>
            <DistanceMeters>NAN</DistanceMeters>
          </Trackpoint>
          <Trackpoint>
            <Time>2019-10-07T12:06:13.000Z</Time>
            <Position>
              <LatitudeDegrees>40.40804115124046802520751953125</LatitudeDegrees>
              <LongitudeDegrees>-5.722216665744781494140625</LongitudeDegrees>
            </Position>
            <AltitudeMeters>1107.5999755859375</AltitudeMeters>
            <DistanceMeters>NAN</DistanceMeters>
          </Trackpoint>
          <Trackpoint>
            <Time>2019-10-07T12:06:14.000Z</Time>
            <Position>
              <LatitudeDegrees>40.40794291533529758453369140625</LatitudeDegrees>
              <LongitudeDegrees>-5.722270309925079345703125</LongitudeDegrees>
            </Position>
            <AltitudeMeters>1107.4000244140625</AltitudeMeters>
            <DistanceMeters>NAN</DistanceMeters>
          </Trackpoint>
          <Trackpoint>
            <Time>2019-10-07T12:06:16.000Z</Time>
            <Position>
              <LatitudeDegrees>40.407738983631134033203125</LatitudeDegrees>
              <LongitudeDegrees>-5.72237960994243621826171875</LongitudeDegrees>
            </Position>
            <AltitudeMeters>1106.199951171875</AltitudeMeters>
            <DistanceMeters>NAN</DistanceMeters>
          </Trackpoint>
          <Trackpoint>
            <Time>2019-10-07T12:06:18.000Z</Time>
            <Position>
              <LatitudeDegrees>40.4075279273092746734619140625</LatitudeDegrees>
              <LongitudeDegrees>-5.72249067015945911407470703125</LongitudeDegrees>
            </Position>
            <AltitudeMeters>1105</AltitudeMeters>
            <DistanceMeters>NAN</DistanceMeters>
          </Trackpoint>
          <Trackpoint>
            <Time>2019-10-07T12:06:20.000Z</Time>
            <Position>
              <LatitudeDegrees>40.40730605833232402801513671875</LatitudeDegrees>
              <LongitudeDegrees>-5.72260600514709949493408203125</LongitudeDegrees>
            </Position>
            <AltitudeMeters>1103.800048828125</AltitudeMeters>
            <DistanceMeters>NAN</DistanceMeters>
          </Trackpoint>
          <Trackpoint>
            <Time>2019-10-07T12:06:21.000Z</Time>
            <Position>
              <LatitudeDegrees>40.40719256736338138580322265625</LatitudeDegrees>
              <LongitudeDegrees>-5.72266484610736370086669921875</LongitudeDegrees>
            </Position>
            <AltitudeMeters>1102.5999755859375</AltitudeMeters>
            <DistanceMeters>NAN</DistanceMeters>
          </Trackpoint>
          <Trackpoint>
            <Time>2019-10-07T12:06:23.000Z</Time>
            <Position>
              <LatitudeDegrees>40.40696072392165660858154296875</LatitudeDegrees>
              <LongitudeDegrees>-5.7227827794849872589111328125</LongitudeDegrees>
            </Position>
            <AltitudeMeters>1100.199951171875</AltitudeMeters>
            <DistanceMeters>NAN</DistanceMeters>
          </Trackpoint>
          <Trackpoint>
            <Time>2019-10-07T12:06:25.000Z</Time>
            <Position>
              <LatitudeDegrees>40.40672385133802890777587890625</LatitudeDegrees>
              <LongitudeDegrees>-5.72289459407329559326171875</LongitudeDegrees>
            </Position>
            <AltitudeMeters>1099</AltitudeMeters>
            <DistanceMeters>NAN</DistanceMeters>
          </Trackpoint>
          <Trackpoint>
            <Time>2019-10-07T12:06:28.000Z</Time>
            <Position>
              <LatitudeDegrees>40.4063682071864604949951171875</LatitudeDegrees>
              <LongitudeDegrees>-5.72307287715375423431396484375</LongitudeDegrees>
            </Position>
            <AltitudeMeters>1097.5999755859375</AltitudeMeters>
            <DistanceMeters>NAN</DistanceMeters>
          </Trackpoint>
          <Trackpoint>
            <Time>2019-10-07T12:06:30.000Z</Time>
            <Position>
              <LatitudeDegrees>40.40612990967929363250732421875</LatitudeDegrees>
              <LongitudeDegrees>-5.72319290600717067718505859375</LongitudeDegrees>
            </Position>
            <AltitudeMeters>1096.199951171875</AltitudeMeters>
            <DistanceMeters>NAN</DistanceMeters>
          </Trackpoint>
          <Trackpoint>
            <Time>2019-10-07T12:06:32.000Z</Time>
            <Position>
              <LatitudeDegrees>40.4058911092579364776611328125</LatitudeDegrees>
              <LongitudeDegrees>-5.72331209667026996612548828125</LongitudeDegrees>
            </Position>
            <AltitudeMeters>1094.5999755859375</AltitudeMeters>
            <DistanceMeters>NAN</DistanceMeters>
          </Trackpoint>
          <Trackpoint>
            <Time>2019-10-07T12:06:33.000Z</Time>
            <Position>
              <LatitudeDegrees>40.405773259699344635009765625</LatitudeDegrees>
              <LongitudeDegrees>-5.72337898425757884979248046875</LongitudeDegrees>
            </Position>
            <AltitudeMeters>1094.800048828125</AltitudeMeters>
            <DistanceMeters>NAN</DistanceMeters>
          </Trackpoint>
          <Trackpoint>
            <Time>2019-10-07T12:06:35.000Z</Time>
            <Position>
              <LatitudeDegrees>40.40554082952439785003662109375</LatitudeDegrees>
              <LongitudeDegrees>-5.723519213497638702392578125</LongitudeDegrees>
            </Position>
            <AltitudeMeters>1093</AltitudeMeters>
            <DistanceMeters>NAN</DistanceMeters>
          </Trackpoint>
          <Trackpoint>
            <Time>2019-10-07T12:06:36.000Z</Time>
            <Position>
              <LatitudeDegrees>40.40542230941355228424072265625</LatitudeDegrees>
              <LongitudeDegrees>-5.72359221987426280975341796875</LongitudeDegrees>
            </Position>
            <AltitudeMeters>1091.800048828125</AltitudeMeters>
            <DistanceMeters>NAN</DistanceMeters>
          </Trackpoint>
          <Trackpoint>
            <Time>2019-10-07T12:06:38.000Z</Time>
            <Position>
              <LatitudeDegrees>40.40519080124795436859130859375</LatitudeDegrees>
              <LongitudeDegrees>-5.72376094758510589599609375</LongitudeDegrees>
            </Position>
            <AltitudeMeters>1090.5999755859375</AltitudeMeters>
            <DistanceMeters>NAN</DistanceMeters>
          </Trackpoint>
          <Trackpoint>
            <Time>2019-10-07T12:06:39.000Z</Time>
            <Position>
              <LatitudeDegrees>40.40507622063159942626953125</LatitudeDegrees>
              <LongitudeDegrees>-5.72385155595839023590087890625</LongitudeDegrees>
            </Position>
            <AltitudeMeters>1089.4000244140625</AltitudeMeters>
            <DistanceMeters>NAN</DistanceMeters>
          </Trackpoint>
          <Trackpoint>
            <Time>2019-10-07T12:06:40.000Z</Time>
            <Position>
              <LatitudeDegrees>40.4049657471477985382080078125</LatitudeDegrees>
              <LongitudeDegrees>-5.72394828312098979949951171875</LongitudeDegrees>
            </Position>
            <AltitudeMeters>1087.5999755859375</AltitudeMeters>
            <DistanceMeters>NAN</DistanceMeters>
          </Trackpoint>
          <Trackpoint>
            <Time>2019-10-07T12:06:42.000Z</Time>
            <Position>
              <LatitudeDegrees>40.40474773384630680084228515625</LatitudeDegrees>
              <LongitudeDegrees>-5.7241460122168064117431640625</LongitudeDegrees>
            </Position>
            <AltitudeMeters>1085.4000244140625</AltitudeMeters>
            <DistanceMeters>NAN</DistanceMeters>
          </Trackpoint>
          <Trackpoint>
            <Time>2019-10-07T12:06:44.000Z</Time>
            <Position>
              <LatitudeDegrees>40.40453818626701831817626953125</LatitudeDegrees>
              <LongitudeDegrees>-5.72435312904417514801025390625</LongitudeDegrees>
            </Position>
            <AltitudeMeters>1084</AltitudeMeters>
            <DistanceMeters>NAN</DistanceMeters>
          </Trackpoint>
          <Trackpoint>
            <Time>2019-10-07T12:06:46.000Z</Time>
            <Position>
              <LatitudeDegrees>40.40435210801661014556884765625</LatitudeDegrees>
              <LongitudeDegrees>-5.72459167800843715667724609375</LongitudeDegrees>
            </Position>
            <AltitudeMeters>1083.4000244140625</AltitudeMeters>
            <DistanceMeters>NAN</DistanceMeters>
          </Trackpoint>
          <Trackpoint>
            <Time>2019-10-07T12:06:47.000Z</Time>
            <Position>
              <LatitudeDegrees>40.4042703844606876373291015625</LatitudeDegrees>
              <LongitudeDegrees>-5.724726207554340362548828125</LongitudeDegrees>
            </Position>
            <AltitudeMeters>1082.800048828125</AltitudeMeters>
            <DistanceMeters>NAN</DistanceMeters>
          </Trackpoint>
          <Trackpoint>
            <Time>2019-10-07T12:06:50.000Z</Time>
            <Position>
              <LatitudeDegrees>40.40406167507171630859375</LatitudeDegrees>
              <LongitudeDegrees>-5.72516902349889278411865234375</LongitudeDegrees>
            </Position>
            <AltitudeMeters>1081.199951171875</AltitudeMeters>
            <DistanceMeters>NAN</DistanceMeters>
          </Trackpoint>
          <Trackpoint>
            <Time>2019-10-07T12:06:53.000Z</Time>
            <Position>
              <LatitudeDegrees>40.40387727320194244384765625</LatitudeDegrees>
              <LongitudeDegrees>-5.7256257534027099609375</LongitudeDegrees>
            </Position>
            <AltitudeMeters>1080.199951171875</AltitudeMeters>
            <DistanceMeters>NAN</DistanceMeters>
          </Trackpoint>
          <Trackpoint>
            <Time>2019-10-07T12:06:54.000Z</Time>
            <Position>
              <LatitudeDegrees>40.40381968952715396881103515625</LatitudeDegrees>
              <LongitudeDegrees>-5.72577872313559055328369140625</LongitudeDegrees>
            </Position>
            <AltitudeMeters>1079.5999755859375</AltitudeMeters>
            <DistanceMeters>NAN</DistanceMeters>
          </Trackpoint>
          <Trackpoint>
            <Time>2019-10-07T12:06:56.000Z</Time>
            <Position>
              <LatitudeDegrees>40.4037024267017841339111328125</LatitudeDegrees>
              <LongitudeDegrees>-5.726087428629398345947265625</LongitudeDegrees>
            </Position>
            <AltitudeMeters>1077.5999755859375</AltitudeMeters>
            <DistanceMeters>NAN</DistanceMeters>
          </Trackpoint>
          <Trackpoint>
            <Time>2019-10-07T12:06:57.000Z</Time>
            <Position>
              <LatitudeDegrees>40.4036365449428558349609375</LatitudeDegrees>
              <LongitudeDegrees>-5.72624073363840579986572265625</LongitudeDegrees>
            </Position>
            <AltitudeMeters>1076.5999755859375</AltitudeMeters>
            <DistanceMeters>NAN</DistanceMeters>
          </Trackpoint>
          <Trackpoint>
            <Time>2019-10-07T12:06:59.000Z</Time>
            <Position>
              <LatitudeDegrees>40.40349639952182769775390625</LatitudeDegrees>
              <LongitudeDegrees>-5.72654633782804012298583984375</LongitudeDegrees>
            </Position>
            <AltitudeMeters>1075.199951171875</AltitudeMeters>
            <DistanceMeters>NAN</DistanceMeters>
          </Trackpoint>
          <Trackpoint>
            <Time>2019-10-07T12:07:01.000Z</Time>
            <Position>
              <LatitudeDegrees>40.403337813913822174072265625</LatitudeDegrees>
              <LongitudeDegrees>-5.72684942744672298431396484375</LongitudeDegrees>
            </Position>
            <AltitudeMeters>1072.5999755859375</AltitudeMeters>
            <DistanceMeters>NAN</DistanceMeters>
          </Trackpoint>
          <Trackpoint>
            <Time>2019-10-07T12:07:02.000Z</Time>
            <Position>
              <LatitudeDegrees>40.40325508452951908111572265625</LatitudeDegrees>
              <LongitudeDegrees>-5.72700013406574726104736328125</LongitudeDegrees>
            </Position>
            <AltitudeMeters>1071.5999755859375</AltitudeMeters>
            <DistanceMeters>NAN</DistanceMeters>
          </Trackpoint>
          <Trackpoint>
            <Time>2019-10-07T12:07:03.000Z</Time>
            <Position>
              <LatitudeDegrees>40.4031716845929622650146484375</LatitudeDegrees>
              <LongitudeDegrees>-5.72715335525572299957275390625</LongitudeDegrees>
            </Position>
            <AltitudeMeters>1070.4000244140625</AltitudeMeters>
            <DistanceMeters>NAN</DistanceMeters>
          </Trackpoint>
          <Trackpoint>
            <Time>2019-10-07T12:07:04.000Z</Time>
            <Position>
              <LatitudeDegrees>40.403087027370929718017578125</LatitudeDegrees>
              <LongitudeDegrees>-5.72730540297925472259521484375</LongitudeDegrees>
            </Position>
            <AltitudeMeters>1069</AltitudeMeters>
            <DistanceMeters>NAN</DistanceMeters>
          </Trackpoint>
          <Trackpoint>
            <Time>2019-10-07T12:07:05.000Z</Time>
            <Position>
              <LatitudeDegrees>40.40300010703504085540771484375</LatitudeDegrees>
              <LongitudeDegrees>-5.72745661251246929168701171875</LongitudeDegrees>
            </Position>
            <AltitudeMeters>1067.4000244140625</AltitudeMeters>
            <DistanceMeters>NAN</DistanceMeters>
          </Trackpoint>
          <Trackpoint>
            <Time>2019-10-07T12:07:06.000Z</Time>
            <Position>
              <LatitudeDegrees>40.40291628800332546234130859375</LatitudeDegrees>
              <LongitudeDegrees>-5.7276077382266521453857421875</LongitudeDegrees>
            </Position>
            <AltitudeMeters>1066.199951171875</AltitudeMeters>
            <DistanceMeters>NAN</DistanceMeters>
          </Trackpoint>
          <Trackpoint>
            <Time>2019-10-07T12:07:08.000Z</Time>
            <Position>
              <LatitudeDegrees>40.4027566127479076385498046875</LatitudeDegrees>
              <LongitudeDegrees>-5.72789448313415050506591796875</LongitudeDegrees>
            </Position>
            <AltitudeMeters>1065.199951171875</AltitudeMeters>
            <DistanceMeters>NAN</DistanceMeters>
          </Trackpoint>
          <Trackpoint>
            <Time>2019-10-07T12:07:09.000Z</Time>
            <Position>
              <LatitudeDegrees>40.402680337429046630859375</LatitudeDegrees>
              <LongitudeDegrees>-5.72803395800292491912841796875</LongitudeDegrees>
            </Position>
            <AltitudeMeters>1065.4000244140625</AltitudeMeters>
            <DistanceMeters>NAN</DistanceMeters>
          </Trackpoint>
          <Trackpoint>
            <Time>2019-10-07T12:07:12.000Z</Time>
            <Position>
              <LatitudeDegrees>40.40244036354124546051025390625</LatitudeDegrees>
              <LongitudeDegrees>-5.7284050248563289642333984375</LongitudeDegrees>
            </Position>
            <AltitudeMeters>1065.199951171875</AltitudeMeters>
            <DistanceMeters>NAN</DistanceMeters>
          </Trackpoint>
          <Trackpoint>
            <Time>2019-10-07T12:07:13.000Z</Time>
            <Position>
              <LatitudeDegrees>40.40233810432255268096923828125</LatitudeDegrees>
              <LongitudeDegrees>-5.728496052324771881103515625</LongitudeDegrees>
            </Position>
            <AltitudeMeters>1065</AltitudeMeters>
            <DistanceMeters>NAN</DistanceMeters>
          </Trackpoint>
          <Trackpoint>
            <Time>2019-10-07T12:07:15.000Z</Time>
            <Position>
              <LatitudeDegrees>40.40210693143308162689208984375</LatitudeDegrees>
              <LongitudeDegrees>-5.72858917526900768280029296875</LongitudeDegrees>
            </Position>
            <AltitudeMeters>1064</AltitudeMeters>
            <DistanceMeters>NAN</DistanceMeters>
          </Trackpoint>
          <Trackpoint>
            <Time>2019-10-07T12:07:18.000Z</Time>
            <Position>
              <LatitudeDegrees>40.40174768306314945220947265625</LatitudeDegrees>
              <LongitudeDegrees>-5.72859504260122776031494140625</LongitudeDegrees>
            </Position>
            <AltitudeMeters>1063</AltitudeMeters>
            <DistanceMeters>NAN</DistanceMeters>
          </Trackpoint>
          <Trackpoint>
            <Time>2019-10-07T12:07:20.000Z</Time>
            <Position>
              <LatitudeDegrees>40.401515252888202667236328125</LatitudeDegrees>
              <LongitudeDegrees>-5.72858867235481739044189453125</LongitudeDegrees>
            </Position>
            <AltitudeMeters>1062.199951171875</AltitudeMeters>
            <DistanceMeters>NAN</DistanceMeters>
          </Trackpoint>
          <Trackpoint>
            <Time>2019-10-07T12:07:21.000Z</Time>
            <Position>
              <LatitudeDegrees>40.40140293538570404052734375</LatitudeDegrees>
              <LongitudeDegrees>-5.72858682833611965179443359375</LongitudeDegrees>
            </Position>
            <AltitudeMeters>1061.4000244140625</AltitudeMeters>
            <DistanceMeters>NAN</DistanceMeters>
          </Trackpoint>
          <Trackpoint>
            <Time>2019-10-07T12:07:25.000Z</Time>
            <Position>
              <LatitudeDegrees>40.4009704291820526123046875</LatitudeDegrees>
              <LongitudeDegrees>-5.7285750098526477813720703125</LongitudeDegrees>
            </Position>
            <AltitudeMeters>1062</AltitudeMeters>
            <DistanceMeters>NAN</DistanceMeters>
          </Trackpoint>
          <Trackpoint>
            <Time>2019-10-07T12:07:27.000Z</Time>
            <Position>
              <LatitudeDegrees>40.40075778029859066009521484375</LatitudeDegrees>
              <LongitudeDegrees>-5.7285981439054012298583984375</LongitudeDegrees>
            </Position>
            <AltitudeMeters>1061.800048828125</AltitudeMeters>
            <DistanceMeters>NAN</DistanceMeters>
          </Trackpoint>
          <Trackpoint>
            <Time>2019-10-07T12:07:29.000Z</Time>
            <Position>
              <LatitudeDegrees>40.40055627934634685516357421875</LatitudeDegrees>
              <LongitudeDegrees>-5.72868187911808490753173828125</LongitudeDegrees>
            </Position>
            <AltitudeMeters>1061</AltitudeMeters>
            <DistanceMeters>NAN</DistanceMeters>
          </Trackpoint>
          <Trackpoint>
            <Time>2019-10-07T12:07:30.000Z</Time>
            <Position>
              <LatitudeDegrees>40.4004643298685550689697265625</LatitudeDegrees>
              <LongitudeDegrees>-5.7287483476102352142333984375</LongitudeDegrees>
            </Position>
            <AltitudeMeters>1060.199951171875</AltitudeMeters>
            <DistanceMeters>NAN</DistanceMeters>
          </Trackpoint>
          <Trackpoint>
            <Time>2019-10-07T12:07:32.000Z</Time>
            <Position>
              <LatitudeDegrees>40.400293506681919097900390625</LatitudeDegrees>
              <LongitudeDegrees>-5.72890768758952617645263671875</LongitudeDegrees>
            </Position>
            <AltitudeMeters>1059.800048828125</AltitudeMeters>
            <DistanceMeters>NAN</DistanceMeters>
          </Trackpoint>
          <Trackpoint>
            <Time>2019-10-07T12:07:34.000Z</Time>
            <Position>
              <LatitudeDegrees>40.40012486279010772705078125</LatitudeDegrees>
              <LongitudeDegrees>-5.7290718890726566314697265625</LongitudeDegrees>
            </Position>
            <AltitudeMeters>1059.5999755859375</AltitudeMeters>
            <DistanceMeters>NAN</DistanceMeters>
          </Trackpoint>
          <Trackpoint>
            <Time>2019-10-07T12:07:35.000Z</Time>
            <Position>
              <LatitudeDegrees>40.400038696825504302978515625</LatitudeDegrees>
              <LongitudeDegrees>-5.72915696538984775543212890625</LongitudeDegrees>
            </Position>
            <AltitudeMeters>1059.199951171875</AltitudeMeters>
            <DistanceMeters>NAN</DistanceMeters>
          </Trackpoint>
          <Trackpoint>
            <Time>2019-10-07T12:07:39.000Z</Time>
            <Position>
              <LatitudeDegrees>40.39968020282685756683349609375</LatitudeDegrees>
              <LongitudeDegrees>-5.72949148714542388916015625</LongitudeDegrees>
            </Position>
            <AltitudeMeters>1057.5999755859375</AltitudeMeters>
            <DistanceMeters>NAN</DistanceMeters>
          </Trackpoint>
          <Trackpoint>
            <Time>2019-10-07T12:07:42.000Z</Time>
            <Position>
              <LatitudeDegrees>40.39941717870533466339111328125</LatitudeDegrees>
              <LongitudeDegrees>-5.72978208772838115692138671875</LongitudeDegrees>
            </Position>
            <AltitudeMeters>1056.199951171875</AltitudeMeters>
            <DistanceMeters>NAN</DistanceMeters>
          </Trackpoint>
          <Trackpoint>
            <Time>2019-10-07T12:07:43.000Z</Time>
            <Position>
              <LatitudeDegrees>40.3993468545377254486083984375</LatitudeDegrees>
              <LongitudeDegrees>-5.72990647517144680023193359375</LongitudeDegrees>
            </Position>
            <AltitudeMeters>1055.4000244140625</AltitudeMeters>
            <DistanceMeters>NAN</DistanceMeters>
          </Trackpoint>
          <Trackpoint>
            <Time>2019-10-07T12:07:44.000Z</Time>
            <Position>
              <LatitudeDegrees>40.399289019405841827392578125</LatitudeDegrees>
              <LongitudeDegrees>-5.730043686926364898681640625</LongitudeDegrees>
            </Position>
            <AltitudeMeters>1054.4000244140625</AltitudeMeters>
            <DistanceMeters>NAN</DistanceMeters>
          </Trackpoint>
          <Trackpoint>
            <Time>2019-10-07T12:07:46.000Z</Time>
            <Position>
              <LatitudeDegrees>40.3992033563554286956787109375</LatitudeDegrees>
              <LongitudeDegrees>-5.73034283705055713653564453125</LongitudeDegrees>
            </Position>
            <AltitudeMeters>1053.199951171875</AltitudeMeters>
            <DistanceMeters>NAN</DistanceMeters>
          </Trackpoint>
          <Trackpoint>
            <Time>2019-10-07T12:07:47.000Z</Time>
            <Position>
              <LatitudeDegrees>40.3991644643247127532958984375</LatitudeDegrees>
              <LongitudeDegrees>-5.7304991595447063446044921875</LongitudeDegrees>
            </Position>
            <AltitudeMeters>1052.199951171875</AltitudeMeters>
            <DistanceMeters>NAN</DistanceMeters>
          </Trackpoint>
          <Trackpoint>
            <Time>2019-10-07T12:07:48.000Z</Time>
            <Position>
              <LatitudeDegrees>40.3991225548088550567626953125</LatitudeDegrees>
              <LongitudeDegrees>-5.7306587509810924530029296875</LongitudeDegrees>
            </Position>
            <AltitudeMeters>1050.800048828125</AltitudeMeters>
            <DistanceMeters>NAN</DistanceMeters>
          </Trackpoint>
          <Trackpoint>
            <Time>2019-10-07T12:07:49.000Z</Time>
            <Position>
              <LatitudeDegrees>40.39908056147396564483642578125</LatitudeDegrees>
              <LongitudeDegrees>-5.730821527540683746337890625</LongitudeDegrees>
            </Position>
            <AltitudeMeters>1049.5999755859375</AltitudeMeters>
            <DistanceMeters>NAN</DistanceMeters>
          </Trackpoint>
          <Trackpoint>
            <Time>2019-10-07T12:07:50.000Z</Time>
            <Position>
              <LatitudeDegrees>40.39903949014842510223388671875</LatitudeDegrees>
              <LongitudeDegrees>-5.730988495051860809326171875</LongitudeDegrees>
            </Position>
            <AltitudeMeters>1048.4000244140625</AltitudeMeters>
            <DistanceMeters>NAN</DistanceMeters>
          </Trackpoint>
          <Trackpoint>
            <Time>2019-10-07T12:07:51.000Z</Time>
            <Position>
              <LatitudeDegrees>40.3989961557090282440185546875</LatitudeDegrees>
              <LongitudeDegrees>-5.73115856386721134185791015625</LongitudeDegrees>
            </Position>
            <AltitudeMeters>1047</AltitudeMeters>
            <DistanceMeters>NAN</DistanceMeters>
          </Trackpoint>
          <Trackpoint>
            <Time>2019-10-07T12:07:52.000Z</Time>
            <Position>
              <LatitudeDegrees>40.39895215071737766265869140625</LatitudeDegrees>
              <LongitudeDegrees>-5.73133089579641819000244140625</LongitudeDegrees>
            </Position>
            <AltitudeMeters>1045</AltitudeMeters>
            <DistanceMeters>NAN</DistanceMeters>
          </Trackpoint>
          <Trackpoint>
            <Time>2019-10-07T12:07:54.000Z</Time>
            <Position>
              <LatitudeDegrees>40.39886531420052051544189453125</LatitudeDegrees>
              <LongitudeDegrees>-5.73168142698705196380615234375</LongitudeDegrees>
            </Position>
            <AltitudeMeters>1042.800048828125</AltitudeMeters>
            <DistanceMeters>NAN</DistanceMeters>
          </Trackpoint>
          <Trackpoint>
            <Time>2019-10-07T12:07:56.000Z</Time>
            <Position>
              <LatitudeDegrees>40.3987775556743144989013671875</LatitudeDegrees>
              <LongitudeDegrees>-5.73204168118536472320556640625</LongitudeDegrees>
            </Position>
            <AltitudeMeters>1040.800048828125</AltitudeMeters>
            <DistanceMeters>NAN</DistanceMeters>
          </Trackpoint>
          <Trackpoint>
            <Time>2019-10-07T12:07:58.000Z</Time>
            <Position>
              <LatitudeDegrees>40.39868242107331752777099609375</LatitudeDegrees>
              <LongitudeDegrees>-5.732410736382007598876953125</LongitudeDegrees>
            </Position>
            <AltitudeMeters>1039.199951171875</AltitudeMeters>
            <DistanceMeters>NAN</DistanceMeters>
          </Trackpoint>
          <Trackpoint>
            <Time>2019-10-07T12:07:59.000Z</Time>
            <Position>
              <LatitudeDegrees>40.39862684905529022216796875</LatitudeDegrees>
              <LongitudeDegrees>-5.73259337805211544036865234375</LongitudeDegrees>
            </Position>
            <AltitudeMeters>1037.199951171875</AltitudeMeters>
            <DistanceMeters>NAN</DistanceMeters>
          </Trackpoint>
          <Trackpoint>
            <Time>2019-10-07T12:08:00.000Z</Time>
            <Position>
              <LatitudeDegrees>40.398562811315059661865234375</LatitudeDegrees>
              <LongitudeDegrees>-5.7327724993228912353515625</LongitudeDegrees>
            </Position>
            <AltitudeMeters>1034.5999755859375</AltitudeMeters>
            <DistanceMeters>NAN</DistanceMeters>
          </Trackpoint>
          <Trackpoint>
            <Time>2019-10-07T12:08:02.000Z</Time>
            <Position>
              <LatitudeDegrees>40.39835737086832523345947265625</LatitudeDegrees>
              <LongitudeDegrees>-5.7332152314484119415283203125</LongitudeDegrees>
            </Position>
            <AltitudeMeters>1032.800048828125</AltitudeMeters>
            <DistanceMeters>NAN</DistanceMeters>
          </Trackpoint>
          <Trackpoint>
            <Time>2019-10-07T12:08:03.000Z</Time>
            <Position>
              <LatitudeDegrees>40.3983178921043872833251953125</LatitudeDegrees>
              <LongitudeDegrees>-5.7332856394350528717041015625</LongitudeDegrees>
            </Position>
            <AltitudeMeters>1030.4000244140625</AltitudeMeters>
            <DistanceMeters>NAN</DistanceMeters>
          </Trackpoint>
          <Trackpoint>
            <Time>2019-10-07T12:08:06.000Z</Time>
            <Position>
              <LatitudeDegrees>40.39804288186132907867431640625</LatitudeDegrees>
              <LongitudeDegrees>-5.73378997854888439178466796875</LongitudeDegrees>
            </Position>
            <AltitudeMeters>1028.5999755859375</AltitudeMeters>
            <DistanceMeters>NAN</DistanceMeters>
          </Trackpoint>
          <Trackpoint>
            <Time>2019-10-07T12:08:07.000Z</Time>
            <Position>
              <LatitudeDegrees>40.39795084856450557708740234375</LatitudeDegrees>
              <LongitudeDegrees>-5.73395912535488605499267578125</LongitudeDegrees>
            </Position>
            <AltitudeMeters>1027.5999755859375</AltitudeMeters>
            <DistanceMeters>NAN</DistanceMeters>
          </Trackpoint>
          <Trackpoint>
            <Time>2019-10-07T12:08:08.000Z</Time>
            <Position>
              <LatitudeDegrees>40.3978572227060794830322265625</LatitudeDegrees>
              <LongitudeDegrees>-5.7341291941702365875244140625</LongitudeDegrees>
            </Position>
            <AltitudeMeters>1026.199951171875</AltitudeMeters>
            <DistanceMeters>NAN</DistanceMeters>
          </Trackpoint>
          <Trackpoint>
            <Time>2019-10-07T12:08:09.000Z</Time>
            <Position>
              <LatitudeDegrees>40.39776309393346309661865234375</LatitudeDegrees>
              <LongitudeDegrees>-5.7342995144426822662353515625</LongitudeDegrees>
            </Position>
            <AltitudeMeters>1024.4000244140625</AltitudeMeters>
            <DistanceMeters>NAN</DistanceMeters>
          </Trackpoint>
          <Trackpoint>
            <Time>2019-10-07T12:08:10.000Z</Time>
            <Position>
              <LatitudeDegrees>40.39766821078956127166748046875</LatitudeDegrees>
              <LongitudeDegrees>-5.73446908034384250640869140625</LongitudeDegrees>
            </Position>
            <AltitudeMeters>1022.79998779296875</AltitudeMeters>
            <DistanceMeters>NAN</DistanceMeters>
          </Trackpoint>
          <Trackpoint>
            <Time>2019-10-07T12:08:11.000Z</Time>
            <Position>
              <LatitudeDegrees>40.3975752554833889007568359375</LatitudeDegrees>
              <LongitudeDegrees>-5.73463956825435161590576171875</LongitudeDegrees>
            </Position>
            <AltitudeMeters>1020.5999755859375</AltitudeMeters>
            <DistanceMeters>NAN</DistanceMeters>
          </Trackpoint>
          <Trackpoint>
            <Time>2019-10-07T12:08:12.000Z</Time>
            <Position>
              <LatitudeDegrees>40.39748431183397769927978515625</LatitudeDegrees>
              <LongitudeDegrees>-5.73480754159390926361083984375</LongitudeDegrees>
            </Position>
            <AltitudeMeters>1020</AltitudeMeters>
            <DistanceMeters>NAN</DistanceMeters>
          </Trackpoint>
          <Trackpoint>
            <Time>2019-10-07T12:08:13.000Z</Time>
            <Position>
              <LatitudeDegrees>40.39739345200359821319580078125</LatitudeDegrees>
              <LongitudeDegrees>-5.73497132398188114166259765625</LongitudeDegrees>
            </Position>
            <AltitudeMeters>1019</AltitudeMeters>
            <DistanceMeters>NAN</DistanceMeters>
          </Trackpoint>
          <Trackpoint>
            <Time>2019-10-07T12:08:15.000Z</Time>
            <Position>
              <LatitudeDegrees>40.3972201980650424957275390625</LatitudeDegrees>
              <LongitudeDegrees>-5.7352989725768566131591796875</LongitudeDegrees>
            </Position>
            <AltitudeMeters>1018</AltitudeMeters>
            <DistanceMeters>NAN</DistanceMeters>
          </Trackpoint>
          <Trackpoint>
            <Time>2019-10-07T12:08:16.000Z</Time>
            <Position>
              <LatitudeDegrees>40.397136546671390533447265625</LatitudeDegrees>
              <LongitudeDegrees>-5.73546300642192363739013671875</LongitudeDegrees>
            </Position>
            <AltitudeMeters>1017.4000244140625</AltitudeMeters>
            <DistanceMeters>NAN</DistanceMeters>
          </Trackpoint>
          <Trackpoint>
            <Time>2019-10-07T12:08:17.000Z</Time>
            <Position>
              <LatitudeDegrees>40.39705063216388225555419921875</LatitudeDegrees>
              <LongitudeDegrees>-5.7356248609721660614013671875</LongitudeDegrees>
            </Position>
            <AltitudeMeters>1016</AltitudeMeters>
            <DistanceMeters>NAN</DistanceMeters>
          </Trackpoint>
          <Trackpoint>
            <Time>2019-10-07T12:08:19.000Z</Time>
            <Position>
              <LatitudeDegrees>40.39687804877758026123046875</LatitudeDegrees>
              <LongitudeDegrees>-5.73594060726463794708251953125</LongitudeDegrees>
            </Position>
            <AltitudeMeters>1014</AltitudeMeters>
            <DistanceMeters>NAN</DistanceMeters>
          </Trackpoint>
          <Trackpoint>
            <Time>2019-10-07T12:08:21.000Z</Time>
            <Position>
              <LatitudeDegrees>40.39671015925705432891845703125</LatitudeDegrees>
              <LongitudeDegrees>-5.73624839074909687042236328125</LongitudeDegrees>
            </Position>
            <AltitudeMeters>1012.79998779296875</AltitudeMeters>
            <DistanceMeters>NAN</DistanceMeters>
          </Trackpoint>
          <Trackpoint>
            <Time>2019-10-07T12:08:22.000Z</Time>
            <Position>
              <LatitudeDegrees>40.3966311179101467132568359375</LatitudeDegrees>
              <LongitudeDegrees>-5.73639758862555027008056640625</LongitudeDegrees>
            </Position>
            <AltitudeMeters>1013.4000244140625</AltitudeMeters>
            <DistanceMeters>NAN</DistanceMeters>
          </Trackpoint>
          <Trackpoint>
            <Time>2019-10-07T12:08:23.000Z</Time>
            <Position>
              <LatitudeDegrees>40.39655911736190319061279296875</LatitudeDegrees>
              <LongitudeDegrees>-5.73653873987495899200439453125</LongitudeDegrees>
            </Position>
            <AltitudeMeters>1014.5999755859375</AltitudeMeters>
            <DistanceMeters>NAN</DistanceMeters>
          </Trackpoint>
          <Trackpoint>
            <Time>2019-10-07T12:08:25.000Z</Time>
            <Position>
              <LatitudeDegrees>40.3964185528457164764404296875</LatitudeDegrees>
              <LongitudeDegrees>-5.7367906160652637481689453125</LongitudeDegrees>
            </Position>
            <AltitudeMeters>1015.5999755859375</AltitudeMeters>
            <DistanceMeters>NAN</DistanceMeters>
          </Trackpoint>
          <Trackpoint>
            <Time>2019-10-07T12:08:26.000Z</Time>
            <Position>
              <LatitudeDegrees>40.39636733941733837127685546875</LatitudeDegrees>
              <LongitudeDegrees>-5.73690888471901416778564453125</LongitudeDegrees>
            </Position>
            <AltitudeMeters>1015.4000244140625</AltitudeMeters>
            <DistanceMeters>NAN</DistanceMeters>
          </Trackpoint>
          <Trackpoint>
            <Time>2019-10-07T12:08:29.000Z</Time>
            <Position>
              <LatitudeDegrees>40.39633783511817455291748046875</LatitudeDegrees>
              <LongitudeDegrees>-5.73728288523852825164794921875</LongitudeDegrees>
            </Position>
            <AltitudeMeters>1016.20001220703125</AltitudeMeters>
            <DistanceMeters>NAN</DistanceMeters>
          </Trackpoint>
          <Trackpoint>
            <Time>2019-10-07T12:08:30.000Z</Time>
            <Position>
              <LatitudeDegrees>40.3963384218513965606689453125</LatitudeDegrees>
              <LongitudeDegrees>-5.73739922605454921722412109375</LongitudeDegrees>
            </Position>
            <AltitudeMeters>1016.79998779296875</AltitudeMeters>
            <DistanceMeters>NAN</DistanceMeters>
          </Trackpoint>
          <Trackpoint>
            <Time>2019-10-07T12:08:31.000Z</Time>
            <Position>
              <LatitudeDegrees>40.3963203169405460357666015625</LatitudeDegrees>
              <LongitudeDegrees>-5.737511627376079559326171875</LongitudeDegrees>
            </Position>
            <AltitudeMeters>1017</AltitudeMeters>
            <DistanceMeters>NAN</DistanceMeters>
          </Trackpoint>
          <Trackpoint>
            <Time>2019-10-07T12:08:32.000Z</Time>
            <Position>
              <LatitudeDegrees>40.39627849124372005462646484375</LatitudeDegrees>
              <LongitudeDegrees>-5.73761447332799434661865234375</LongitudeDegrees>
            </Position>
            <AltitudeMeters>1016.79998779296875</AltitudeMeters>
            <DistanceMeters>NAN</DistanceMeters>
          </Trackpoint>
          <Trackpoint>
            <Time>2019-10-07T12:08:35.000Z</Time>
            <Position>
              <LatitudeDegrees>40.396057628095149993896484375</LatitudeDegrees>
              <LongitudeDegrees>-5.73781932704150676727294921875</LongitudeDegrees>
            </Position>
            <AltitudeMeters>1016.20001220703125</AltitudeMeters>
            <DistanceMeters>NAN</DistanceMeters>
          </Trackpoint>
          <Trackpoint>
            <Time>2019-10-07T12:08:36.000Z</Time>
            <Position>
              <LatitudeDegrees>40.39596903137862682342529296875</LatitudeDegrees>
              <LongitudeDegrees>-5.737859308719635009765625</LongitudeDegrees>
            </Position>
            <AltitudeMeters>1015.20001220703125</AltitudeMeters>
            <DistanceMeters>NAN</DistanceMeters>
          </Trackpoint>
          <Trackpoint>
            <Time>2019-10-07T12:08:37.000Z</Time>
            <Position>
              <LatitudeDegrees>40.3958824463188648223876953125</LatitudeDegrees>
              <LongitudeDegrees>-5.7379151321947574615478515625</LongitudeDegrees>
            </Position>
            <AltitudeMeters>1014.20001220703125</AltitudeMeters>
            <DistanceMeters>NAN</DistanceMeters>
          </Trackpoint>
          <Trackpoint>
            <Time>2019-10-07T12:08:39.000Z</Time>
            <Position>
              <LatitudeDegrees>40.395742468535900115966796875</LatitudeDegrees>
              <LongitudeDegrees>-5.73811344802379608154296875</LongitudeDegrees>
            </Position>
            <AltitudeMeters>1013</AltitudeMeters>
            <DistanceMeters>NAN</DistanceMeters>
          </Trackpoint>
          <Trackpoint>
            <Time>2019-10-07T12:08:41.000Z</Time>
            <Position>
              <LatitudeDegrees>40.39561263285577297210693359375</LatitudeDegrees>
              <LongitudeDegrees>-5.73835426010191440582275390625</LongitudeDegrees>
            </Position>
            <AltitudeMeters>1011.4000244140625</AltitudeMeters>
            <DistanceMeters>NAN</DistanceMeters>
          </Trackpoint>
          <Trackpoint>
            <Time>2019-10-07T12:08:42.000Z</Time>
            <Position>
              <LatitudeDegrees>40.39554473944008350372314453125</LatitudeDegrees>
              <LongitudeDegrees>-5.73847764171659946441650390625</LongitudeDegrees>
            </Position>
            <AltitudeMeters>1010.4000244140625</AltitudeMeters>
            <DistanceMeters>NAN</DistanceMeters>
          </Trackpoint>
          <Trackpoint>
            <Time>2019-10-07T12:08:43.000Z</Time>
            <Position>
              <LatitudeDegrees>40.39547584019601345062255859375</LatitudeDegrees>
              <LongitudeDegrees>-5.7386021129786968231201171875</LongitudeDegrees>
            </Position>
            <AltitudeMeters>1009.20001220703125</AltitudeMeters>
            <DistanceMeters>NAN</DistanceMeters>
          </Trackpoint>
          <Trackpoint>
            <Time>2019-10-07T12:08:45.000Z</Time>
            <Position>
              <LatitudeDegrees>40.3953312523663043975830078125</LatitudeDegrees>
              <LongitudeDegrees>-5.73885180987417697906494140625</LongitudeDegrees>
            </Position>
            <AltitudeMeters>1008.5999755859375</AltitudeMeters>
            <DistanceMeters>NAN</DistanceMeters>
          </Trackpoint>
          <Trackpoint>
            <Time>2019-10-07T12:08:46.000Z</Time>
            <Position>
              <LatitudeDegrees>40.39525522850453853607177734375</LatitudeDegrees>
              <LongitudeDegrees>-5.73897577822208404541015625</LongitudeDegrees>
            </Position>
            <AltitudeMeters>1007.79998779296875</AltitudeMeters>
            <DistanceMeters>NAN</DistanceMeters>
          </Trackpoint>
          <Trackpoint>
            <Time>2019-10-07T12:08:48.000Z</Time>
            <Position>
              <LatitudeDegrees>40.3950834833085536956787109375</LatitudeDegrees>
              <LongitudeDegrees>-5.73921239934861660003662109375</LongitudeDegrees>
            </Position>
            <AltitudeMeters>1006.5999755859375</AltitudeMeters>
            <DistanceMeters>NAN</DistanceMeters>
          </Trackpoint>
          <Trackpoint>
            <Time>2019-10-07T12:08:49.000Z</Time>
            <Position>
              <LatitudeDegrees>40.39498600177466869354248046875</LatitudeDegrees>
              <LongitudeDegrees>-5.739318765699863433837890625</LongitudeDegrees>
            </Position>
            <AltitudeMeters>1006</AltitudeMeters>
            <DistanceMeters>NAN</DistanceMeters>
          </Trackpoint>
          <Trackpoint>
            <Time>2019-10-07T12:08:50.000Z</Time>
            <Position>
              <LatitudeDegrees>40.39488474838435649871826171875</LatitudeDegrees>
              <LongitudeDegrees>-5.7394221983850002288818359375</LongitudeDegrees>
            </Position>
            <AltitudeMeters>1004.20001220703125</AltitudeMeters>
            <DistanceMeters>NAN</DistanceMeters>
          </Trackpoint>
          <Trackpoint>
            <Time>2019-10-07T12:08:51.000Z</Time>
            <Position>
              <LatitudeDegrees>40.3947797231376171112060546875</LatitudeDegrees>
              <LongitudeDegrees>-5.73952470906078815460205078125</LongitudeDegrees>
            </Position>
            <AltitudeMeters>1002.5999755859375</AltitudeMeters>
            <DistanceMeters>NAN</DistanceMeters>
          </Trackpoint>
          <Trackpoint>
            <Time>2019-10-07T12:08:52.000Z</Time>
            <Position>
              <LatitudeDegrees>40.39466933347284793853759765625</LatitudeDegrees>
              <LongitudeDegrees>-5.7396233640611171722412109375</LongitudeDegrees>
            </Position>
            <AltitudeMeters>1000.79998779296875</AltitudeMeters>
            <DistanceMeters>NAN</DistanceMeters>
          </Trackpoint>
          <Trackpoint>
            <Time>2019-10-07T12:08:54.000Z</Time>
            <Position>
              <LatitudeDegrees>40.39443782530725002288818359375</LatitudeDegrees>
              <LongitudeDegrees>-5.73979745618999004364013671875</LongitudeDegrees>
            </Position>
            <AltitudeMeters>998.79998779296875</AltitudeMeters>
            <DistanceMeters>NAN</DistanceMeters>
          </Trackpoint>
          <Trackpoint>
            <Time>2019-10-07T12:08:56.000Z</Time>
            <Position>
              <LatitudeDegrees>40.39418779313564300537109375</LatitudeDegrees>
              <LongitudeDegrees>-5.7399469055235385894775390625</LongitudeDegrees>
            </Position>
            <AltitudeMeters>996.79998779296875</AltitudeMeters>
            <DistanceMeters>NAN</DistanceMeters>
          </Trackpoint>
          <Trackpoint>
            <Time>2019-10-07T12:08:58.000Z</Time>
            <Position>
              <LatitudeDegrees>40.39392895996570587158203125</LatitudeDegrees>
              <LongitudeDegrees>-5.74008545838296413421630859375</LongitudeDegrees>
            </Position>
            <AltitudeMeters>995</AltitudeMeters>
            <DistanceMeters>NAN</DistanceMeters>
          </Trackpoint>
          <Trackpoint>
            <Time>2019-10-07T12:08:59.000Z</Time>
            <Position>
              <LatitudeDegrees>40.3937963582575321197509765625</LatitudeDegrees>
              <LongitudeDegrees>-5.7401494123041629791259765625</LongitudeDegrees>
            </Position>
            <AltitudeMeters>994</AltitudeMeters>
            <DistanceMeters>NAN</DistanceMeters>
          </Trackpoint>
          <Trackpoint>
            <Time>2019-10-07T12:09:00.000Z</Time>
            <Position>
              <LatitudeDegrees>40.39366099052131175994873046875</LatitudeDegrees>
              <LongitudeDegrees>-5.7402087561786174774169921875</LongitudeDegrees>
            </Position>
            <AltitudeMeters>992.79998779296875</AltitudeMeters>
            <DistanceMeters>NAN</DistanceMeters>
          </Trackpoint>
          <Trackpoint>
            <Time>2019-10-07T12:09:01.000Z</Time>
            <Position>
              <LatitudeDegrees>40.39352201856672763824462890625</LatitudeDegrees>
              <LongitudeDegrees>-5.74026399292051792144775390625</LongitudeDegrees>
            </Position>
            <AltitudeMeters>991.20001220703125</AltitudeMeters>
            <DistanceMeters>NAN</DistanceMeters>
          </Trackpoint>
          <Trackpoint>
            <Time>2019-10-07T12:09:02.000Z</Time>
            <Position>
              <LatitudeDegrees>40.39338287897408008575439453125</LatitudeDegrees>
              <LongitudeDegrees>-5.740312524139881134033203125</LongitudeDegrees>
            </Position>
            <AltitudeMeters>990</AltitudeMeters>
            <DistanceMeters>NAN</DistanceMeters>
          </Trackpoint>
          <Trackpoint>
            <Time>2019-10-07T12:09:03.000Z</Time>
            <Position>
              <LatitudeDegrees>40.39324365556240081787109375</LatitudeDegrees>
              <LongitudeDegrees>-5.74035250581800937652587890625</LongitudeDegrees>
            </Position>
            <AltitudeMeters>989</AltitudeMeters>
            <DistanceMeters>NAN</DistanceMeters>
          </Trackpoint>
          <Trackpoint>
            <Time>2019-10-07T12:09:04.000Z</Time>
            <Position>
              <LatitudeDegrees>40.39310560561716556549072265625</LatitudeDegrees>
              <LongitudeDegrees>-5.74039089493453502655029296875</LongitudeDegrees>
            </Position>
            <AltitudeMeters>989.20001220703125</AltitudeMeters>
            <DistanceMeters>NAN</DistanceMeters>
          </Trackpoint>
          <Trackpoint>
            <Time>2019-10-07T12:09:06.000Z</Time>
            <Position>
              <LatitudeDegrees>40.392834953963756561279296875</LatitudeDegrees>
              <LongitudeDegrees>-5.74047186411917209625244140625</LongitudeDegrees>
            </Position>
            <AltitudeMeters>987.5999755859375</AltitudeMeters>
            <DistanceMeters>NAN</DistanceMeters>
          </Trackpoint>
          <Trackpoint>
            <Time>2019-10-07T12:09:07.000Z</Time>
            <Position>
              <LatitudeDegrees>40.39270528592169284820556640625</LatitudeDegrees>
              <LongitudeDegrees>-5.74051394127309322357177734375</LongitudeDegrees>
            </Position>
            <AltitudeMeters>986.5999755859375</AltitudeMeters>
            <DistanceMeters>NAN</DistanceMeters>
          </Trackpoint>
          <Trackpoint>
            <Time>2019-10-07T12:09:09.000Z</Time>
            <Position>
              <LatitudeDegrees>40.392458103597164154052734375</LatitudeDegrees>
              <LongitudeDegrees>-5.7406063936650753021240234375</LongitudeDegrees>
            </Position>
            <AltitudeMeters>987.20001220703125</AltitudeMeters>
            <DistanceMeters>NAN</DistanceMeters>
          </Trackpoint>
          <Trackpoint>
            <Time>2019-10-07T12:09:10.000Z</Time>
            <Position>
              <LatitudeDegrees>40.39234100840985774993896484375</LatitudeDegrees>
              <LongitudeDegrees>-5.74065995402634143829345703125</LongitudeDegrees>
            </Position>
            <AltitudeMeters>987.20001220703125</AltitudeMeters>
            <DistanceMeters>NAN</DistanceMeters>
          </Trackpoint>
          <Trackpoint>
            <Time>2019-10-07T12:09:11.000Z</Time>
            <Position>
              <LatitudeDegrees>40.39222902618348598480224609375</LatitudeDegrees>
              <LongitudeDegrees>-5.74071896262466907501220703125</LongitudeDegrees>
            </Position>
            <AltitudeMeters>988</AltitudeMeters>
            <DistanceMeters>NAN</DistanceMeters>
          </Trackpoint>
          <Trackpoint>
            <Time>2019-10-07T12:09:13.000Z</Time>
            <Position>
              <LatitudeDegrees>40.39201947860419750213623046875</LatitudeDegrees>
              <LongitudeDegrees>-5.7408518157899379730224609375</LongitudeDegrees>
            </Position>
            <AltitudeMeters>987.79998779296875</AltitudeMeters>
            <DistanceMeters>NAN</DistanceMeters>
          </Trackpoint>
          <Trackpoint>
            <Time>2019-10-07T12:09:14.000Z</Time>
            <Position>
              <LatitudeDegrees>40.39192811585962772369384765625</LatitudeDegrees>
              <LongitudeDegrees>-5.74092549271881580352783203125</LongitudeDegrees>
            </Position>
            <AltitudeMeters>987.4000244140625</AltitudeMeters>
            <DistanceMeters>NAN</DistanceMeters>
          </Trackpoint>
          <Trackpoint>
            <Time>2019-10-07T12:09:16.000Z</Time>
            <Position>
              <LatitudeDegrees>40.39176316000521183013916015625</LatitudeDegrees>
              <LongitudeDegrees>-5.74106714688241481781005859375</LongitudeDegrees>
            </Position>
            <AltitudeMeters>988.79998779296875</AltitudeMeters>
            <DistanceMeters>NAN</DistanceMeters>
          </Trackpoint>
          <Trackpoint>
            <Time>2019-10-07T12:09:17.000Z</Time>
            <Position>
              <LatitudeDegrees>40.39169442839920520782470703125</LatitudeDegrees>
              <LongitudeDegrees>-5.74114861898124217987060546875</LongitudeDegrees>
            </Position>
            <AltitudeMeters>989.4000244140625</AltitudeMeters>
            <DistanceMeters>NAN</DistanceMeters>
          </Trackpoint>
          <Trackpoint>
            <Time>2019-10-07T12:09:18.000Z</Time>
            <Position>
              <LatitudeDegrees>40.3916321508586406707763671875</LatitudeDegrees>
              <LongitudeDegrees>-5.74123478494584560394287109375</LongitudeDegrees>
            </Position>
            <AltitudeMeters>989.4000244140625</AltitudeMeters>
            <DistanceMeters>NAN</DistanceMeters>
          </Trackpoint>
          <Trackpoint>
            <Time>2019-10-07T12:09:19.000Z</Time>
            <Position>
              <LatitudeDegrees>40.39158278144896030426025390625</LatitudeDegrees>
              <LongitudeDegrees>-5.74133251793682575225830078125</LongitudeDegrees>
            </Position>
            <AltitudeMeters>989</AltitudeMeters>
            <DistanceMeters>NAN</DistanceMeters>
          </Trackpoint>
          <Trackpoint>
            <Time>2019-10-07T12:09:20.000Z</Time>
            <Position>
              <LatitudeDegrees>40.391536094248294830322265625</LatitudeDegrees>
              <LongitudeDegrees>-5.7414325140416622161865234375</LongitudeDegrees>
            </Position>
            <AltitudeMeters>989.4000244140625</AltitudeMeters>
            <DistanceMeters>NAN</DistanceMeters>
          </Trackpoint>
          <Trackpoint>
            <Time>2019-10-07T12:09:21.000Z</Time>
            <Position>
              <LatitudeDegrees>40.39147415198385715484619140625</LatitudeDegrees>
              <LongitudeDegrees>-5.74151474051177501678466796875</LongitudeDegrees>
            </Position>
            <AltitudeMeters>989.5999755859375</AltitudeMeters>
            <DistanceMeters>NAN</DistanceMeters>
          </Trackpoint>
          <Trackpoint>
            <Time>2019-10-07T12:09:23.000Z</Time>
            <Position>
              <LatitudeDegrees>40.39134339429438114166259765625</LatitudeDegrees>
              <LongitudeDegrees>-5.74166209436953067779541015625</LongitudeDegrees>
            </Position>
            <AltitudeMeters>989.79998779296875</AltitudeMeters>
            <DistanceMeters>NAN</DistanceMeters>
          </Trackpoint>
          <Trackpoint>
            <Time>2019-10-07T12:09:25.000Z</Time>
            <Position>
              <LatitudeDegrees>40.39123912341892719268798828125</LatitudeDegrees>
              <LongitudeDegrees>-5.7418475858867168426513671875</LongitudeDegrees>
            </Position>
            <AltitudeMeters>989.79998779296875</AltitudeMeters>
            <DistanceMeters>NAN</DistanceMeters>
          </Trackpoint>
          <Trackpoint>
            <Time>2019-10-07T12:09:26.000Z</Time>
            <Position>
              <LatitudeDegrees>40.391194783151149749755859375</LatitudeDegrees>
              <LongitudeDegrees>-5.74194774962961673736572265625</LongitudeDegrees>
            </Position>
            <AltitudeMeters>989.4000244140625</AltitudeMeters>
            <DistanceMeters>NAN</DistanceMeters>
          </Trackpoint>
          <Trackpoint>
            <Time>2019-10-07T12:09:28.000Z</Time>
            <Position>
              <LatitudeDegrees>40.39110803045332431793212890625</LatitudeDegrees>
              <LongitudeDegrees>-5.74215763248503208160400390625</LongitudeDegrees>
            </Position>
            <AltitudeMeters>989</AltitudeMeters>
            <DistanceMeters>NAN</DistanceMeters>
          </Trackpoint>
          <Trackpoint>
            <Time>2019-10-07T12:09:30.000Z</Time>
            <Position>
              <LatitudeDegrees>40.39103460498154163360595703125</LatitudeDegrees>
              <LongitudeDegrees>-5.74238310568034648895263671875</LongitudeDegrees>
            </Position>
            <AltitudeMeters>988.79998779296875</AltitudeMeters>
            <DistanceMeters>NAN</DistanceMeters>
          </Trackpoint>
          <Trackpoint>
            <Time>2019-10-07T12:09:31.000Z</Time>
            <Position>
              <LatitudeDegrees>40.39100392721593379974365234375</LatitudeDegrees>
              <LongitudeDegrees>-5.7425033859908580780029296875</LongitudeDegrees>
            </Position>
            <AltitudeMeters>988.20001220703125</AltitudeMeters>
            <DistanceMeters>NAN</DistanceMeters>
          </Trackpoint>
          <Trackpoint>
            <Time>2019-10-07T12:09:33.000Z</Time>
            <Position>
              <LatitudeDegrees>40.39095078594982624053955078125</LatitudeDegrees>
              <LongitudeDegrees>-5.742756016552448272705078125</LongitudeDegrees>
            </Position>
            <AltitudeMeters>987.4000244140625</AltitudeMeters>
            <DistanceMeters>NAN</DistanceMeters>
          </Trackpoint>
          <Trackpoint>
            <Time>2019-10-07T12:09:34.000Z</Time>
            <Position>
              <LatitudeDegrees>40.3909310884773731231689453125</LatitudeDegrees>
              <LongitudeDegrees>-5.74288836680352687835693359375</LongitudeDegrees>
            </Position>
            <AltitudeMeters>986.20001220703125</AltitudeMeters>
            <DistanceMeters>NAN</DistanceMeters>
          </Trackpoint>
          <Trackpoint>
            <Time>2019-10-07T12:09:35.000Z</Time>
            <Position>
              <LatitudeDegrees>40.39091725833714008331298828125</LatitudeDegrees>
              <LongitudeDegrees>-5.74302348308265209197998046875</LongitudeDegrees>
            </Position>
            <AltitudeMeters>984.79998779296875</AltitudeMeters>
            <DistanceMeters>NAN</DistanceMeters>
          </Trackpoint>
          <Trackpoint>
            <Time>2019-10-07T12:09:38.000Z</Time>
            <Position>
              <LatitudeDegrees>40.3908915258944034576416015625</LatitudeDegrees>
              <LongitudeDegrees>-5.74344031512737274169921875</LongitudeDegrees>
            </Position>
            <AltitudeMeters>983.4000244140625</AltitudeMeters>
            <DistanceMeters>NAN</DistanceMeters>
          </Trackpoint>
          <Trackpoint>
            <Time>2019-10-07T12:09:39.000Z</Time>
            <Position>
              <LatitudeDegrees>40.39088599383831024169921875</LatitudeDegrees>
              <LongitudeDegrees>-5.7435849867761135101318359375</LongitudeDegrees>
            </Position>
            <AltitudeMeters>981.79998779296875</AltitudeMeters>
            <DistanceMeters>NAN</DistanceMeters>
          </Trackpoint>
          <Trackpoint>
            <Time>2019-10-07T12:09:41.000Z</Time>
            <Position>
              <LatitudeDegrees>40.39087526500225067138671875</LatitudeDegrees>
              <LongitudeDegrees>-5.74388178996741771697998046875</LongitudeDegrees>
            </Position>
            <AltitudeMeters>981.20001220703125</AltitudeMeters>
            <DistanceMeters>NAN</DistanceMeters>
          </Trackpoint>
          <Trackpoint>
            <Time>2019-10-07T12:09:43.000Z</Time>
            <Position>
              <LatitudeDegrees>40.3908687271177768707275390625</LatitudeDegrees>
              <LongitudeDegrees>-5.74418328702449798583984375</LongitudeDegrees>
            </Position>
            <AltitudeMeters>980.20001220703125</AltitudeMeters>
            <DistanceMeters>NAN</DistanceMeters>
          </Trackpoint>
          <Trackpoint>
            <Time>2019-10-07T12:09:45.000Z</Time>
            <Position>
              <LatitudeDegrees>40.39086344651877880096435546875</LatitudeDegrees>
              <LongitudeDegrees>-5.7444858737289905548095703125</LongitudeDegrees>
            </Position>
            <AltitudeMeters>979.20001220703125</AltitudeMeters>
            <DistanceMeters>NAN</DistanceMeters>
          </Trackpoint>
          <Trackpoint>
            <Time>2019-10-07T12:09:47.000Z</Time>
            <Position>
              <LatitudeDegrees>40.39085472933948040008544921875</LatitudeDegrees>
              <LongitudeDegrees>-5.74478938244283199310302734375</LongitudeDegrees>
            </Position>
            <AltitudeMeters>977.5999755859375</AltitudeMeters>
            <DistanceMeters>NAN</DistanceMeters>
          </Trackpoint>
          <Trackpoint>
            <Time>2019-10-07T12:09:50.000Z</Time>
            <Position>
              <LatitudeDegrees>40.3908274881541728973388671875</LatitudeDegrees>
              <LongitudeDegrees>-5.745233036577701568603515625</LongitudeDegrees>
            </Position>
            <AltitudeMeters>976.4000244140625</AltitudeMeters>
            <DistanceMeters>NAN</DistanceMeters>
          </Trackpoint>
          <Trackpoint>
            <Time>2019-10-07T12:09:52.000Z</Time>
            <Position>
              <LatitudeDegrees>40.3908053599298000335693359375</LatitudeDegrees>
              <LongitudeDegrees>-5.74553973041474819183349609375</LongitudeDegrees>
            </Position>
            <AltitudeMeters>975.20001220703125</AltitudeMeters>
            <DistanceMeters>NAN</DistanceMeters>
          </Trackpoint>
          <Trackpoint>
            <Time>2019-10-07T12:09:54.000Z</Time>
            <Position>
              <LatitudeDegrees>40.3907782025635242462158203125</LatitudeDegrees>
              <LongitudeDegrees>-5.745853297412395477294921875</LongitudeDegrees>
            </Position>
            <AltitudeMeters>974</AltitudeMeters>
            <DistanceMeters>NAN</DistanceMeters>
          </Trackpoint>
          <Trackpoint>
            <Time>2019-10-07T12:09:55.000Z</Time>
            <Position>
              <LatitudeDegrees>40.39076336659491062164306640625</LatitudeDegrees>
              <LongitudeDegrees>-5.74601364322006702423095703125</LongitudeDegrees>
            </Position>
            <AltitudeMeters>972.79998779296875</AltitudeMeters>
            <DistanceMeters>NAN</DistanceMeters>
          </Trackpoint>
          <Trackpoint>
            <Time>2019-10-07T12:09:56.000Z</Time>
            <Position>
              <LatitudeDegrees>40.39074651896953582763671875</LatitudeDegrees>
              <LongitudeDegrees>-5.7461736537516117095947265625</LongitudeDegrees>
            </Position>
            <AltitudeMeters>972</AltitudeMeters>
            <DistanceMeters>NAN</DistanceMeters>
          </Trackpoint>
          <Trackpoint>
            <Time>2019-10-07T12:09:57.000Z</Time>
            <Position>
              <LatitudeDegrees>40.39072799496352672576904296875</LatitudeDegrees>
              <LongitudeDegrees>-5.74633399955928325653076171875</LongitudeDegrees>
            </Position>
            <AltitudeMeters>970.79998779296875</AltitudeMeters>
            <DistanceMeters>NAN</DistanceMeters>
          </Trackpoint>
          <Trackpoint>
            <Time>2019-10-07T12:09:59.000Z</Time>
            <Position>
              <LatitudeDegrees>40.39069580845534801483154296875</LatitudeDegrees>
              <LongitudeDegrees>-5.74665569700300693511962890625</LongitudeDegrees>
            </Position>
            <AltitudeMeters>969.79998779296875</AltitudeMeters>
            <DistanceMeters>NAN</DistanceMeters>
          </Trackpoint>
          <Trackpoint>
            <Time>2019-10-07T12:10:00.000Z</Time>
            <Position>
              <LatitudeDegrees>40.390670411288738250732421875</LatitudeDegrees>
              <LongitudeDegrees>-5.74681612662971019744873046875</LongitudeDegrees>
            </Position>
            <AltitudeMeters>969.20001220703125</AltitudeMeters>
            <DistanceMeters>NAN</DistanceMeters>
          </Trackpoint>
          <Trackpoint>
            <Time>2019-10-07T12:10:01.000Z</Time>
            <Position>
              <LatitudeDegrees>40.390631854534149169921875</LatitudeDegrees>
              <LongitudeDegrees>-5.7469759695231914520263671875</LongitudeDegrees>
            </Position>
            <AltitudeMeters>967.4000244140625</AltitudeMeters>
            <DistanceMeters>NAN</DistanceMeters>
          </Trackpoint>
          <Trackpoint>
            <Time>2019-10-07T12:10:02.000Z</Time>
            <Position>
              <LatitudeDegrees>40.39057963527739048004150390625</LatitudeDegrees>
              <LongitudeDegrees>-5.747134387493133544921875</LongitudeDegrees>
            </Position>
            <AltitudeMeters>967</AltitudeMeters>
            <DistanceMeters>NAN</DistanceMeters>
          </Trackpoint>
          <Trackpoint>
            <Time>2019-10-07T12:10:03.000Z</Time>
            <Position>
              <LatitudeDegrees>40.39052657783031463623046875</LatitudeDegrees>
              <LongitudeDegrees>-5.74729221872985363006591796875</LongitudeDegrees>
            </Position>
            <AltitudeMeters>966</AltitudeMeters>
            <DistanceMeters>NAN</DistanceMeters>
          </Trackpoint>
          <Trackpoint>
            <Time>2019-10-07T12:10:05.000Z</Time>
            <Position>
              <LatitudeDegrees>40.3904211334884166717529296875</LatitudeDegrees>
              <LongitudeDegrees>-5.74760184623301029205322265625</LongitudeDegrees>
            </Position>
            <AltitudeMeters>964.4000244140625</AltitudeMeters>
            <DistanceMeters>NAN</DistanceMeters>
          </Trackpoint>
          <Trackpoint>
            <Time>2019-10-07T12:10:09.000Z</Time>
            <Position>
              <LatitudeDegrees>40.39022105745971202850341796875</LatitudeDegrees>
              <LongitudeDegrees>-5.74820014648139476776123046875</LongitudeDegrees>
            </Position>
            <AltitudeMeters>963</AltitudeMeters>
            <DistanceMeters>NAN</DistanceMeters>
          </Trackpoint>
          <Trackpoint>
            <Time>2019-10-07T12:10:12.000Z</Time>
            <Position>
              <LatitudeDegrees>40.3900697641074657440185546875</LatitudeDegrees>
              <LongitudeDegrees>-5.74864916503429412841796875</LongitudeDegrees>
            </Position>
            <AltitudeMeters>961.79998779296875</AltitudeMeters>
            <DistanceMeters>NAN</DistanceMeters>
          </Trackpoint>
          <Trackpoint>
            <Time>2019-10-07T12:10:14.000Z</Time>
            <Position>
              <LatitudeDegrees>40.38996356539428234100341796875</LatitudeDegrees>
              <LongitudeDegrees>-5.74894781224429607391357421875</LongitudeDegrees>
            </Position>
            <AltitudeMeters>960.20001220703125</AltitudeMeters>
            <DistanceMeters>NAN</DistanceMeters>
          </Trackpoint>
          <Trackpoint>
            <Time>2019-10-07T12:10:16.000Z</Time>
            <Position>
              <LatitudeDegrees>40.38985736668109893798828125</LatitudeDegrees>
              <LongitudeDegrees>-5.749232210218906402587890625</LongitudeDegrees>
            </Position>
            <AltitudeMeters>958.4000244140625</AltitudeMeters>
            <DistanceMeters>NAN</DistanceMeters>
          </Trackpoint>
          <Trackpoint>
            <Time>2019-10-07T12:10:18.000Z</Time>
            <Position>
              <LatitudeDegrees>40.389773882925510406494140625</LatitudeDegrees>
              <LongitudeDegrees>-5.74953027069568634033203125</LongitudeDegrees>
            </Position>
            <AltitudeMeters>956.79998779296875</AltitudeMeters>
            <DistanceMeters>NAN</DistanceMeters>
          </Trackpoint>
          <Trackpoint>
            <Time>2019-10-07T12:10:21.000Z</Time>
            <Position>
              <LatitudeDegrees>40.389646477997303009033203125</LatitudeDegrees>
              <LongitudeDegrees>-5.74997208081185817718505859375</LongitudeDegrees>
            </Position>
            <AltitudeMeters>955.5999755859375</AltitudeMeters>
            <DistanceMeters>NAN</DistanceMeters>
          </Trackpoint>
          <Trackpoint>
            <Time>2019-10-07T12:10:23.000Z</Time>
            <Position>
              <LatitudeDegrees>40.389561317861080169677734375</LatitudeDegrees>
              <LongitudeDegrees>-5.75024784542620182037353515625</LongitudeDegrees>
            </Position>
            <AltitudeMeters>954.4000244140625</AltitudeMeters>
            <DistanceMeters>NAN</DistanceMeters>
          </Trackpoint>
          <Trackpoint>
            <Time>2019-10-07T12:10:24.000Z</Time>
            <Position>
              <LatitudeDegrees>40.38951949216425418853759765625</LatitudeDegrees>
              <LongitudeDegrees>-5.75037784874439239501953125</LongitudeDegrees>
            </Position>
            <AltitudeMeters>955.20001220703125</AltitudeMeters>
            <DistanceMeters>NAN</DistanceMeters>
          </Trackpoint>
          <Trackpoint>
            <Time>2019-10-07T12:10:25.000Z</Time>
            <Position>
              <LatitudeDegrees>40.38947892375290393829345703125</LatitudeDegrees>
              <LongitudeDegrees>-5.750497542321681976318359375</LongitudeDegrees>
            </Position>
            <AltitudeMeters>954.5999755859375</AltitudeMeters>
            <DistanceMeters>NAN</DistanceMeters>
          </Trackpoint>
          <Trackpoint>
            <Time>2019-10-07T12:10:26.000Z</Time>
            <Position>
              <LatitudeDegrees>40.38944204337894916534423828125</LatitudeDegrees>
              <LongitudeDegrees>-5.750605501234531402587890625</LongitudeDegrees>
            </Position>
            <AltitudeMeters>955.20001220703125</AltitudeMeters>
            <DistanceMeters>NAN</DistanceMeters>
          </Trackpoint>
          <Trackpoint>
            <Time>2019-10-07T12:10:27.000Z</Time>
            <Position>
              <LatitudeDegrees>40.38940516300499439239501953125</LatitudeDegrees>
              <LongitudeDegrees>-5.75070935301482677459716796875</LongitudeDegrees>
            </Position>
            <AltitudeMeters>954.4000244140625</AltitudeMeters>
            <DistanceMeters>NAN</DistanceMeters>
          </Trackpoint>
          <Trackpoint>
            <Time>2019-10-07T12:10:29.000Z</Time>
            <Position>
              <LatitudeDegrees>40.38932167924940586090087890625</LatitudeDegrees>
              <LongitudeDegrees>-5.75089694000780582427978515625</LongitudeDegrees>
            </Position>
            <AltitudeMeters>955</AltitudeMeters>
            <DistanceMeters>NAN</DistanceMeters>
          </Trackpoint>
          <Trackpoint>
            <Time>2019-10-07T12:10:30.000Z</Time>
            <Position>
              <LatitudeDegrees>40.3892731480300426483154296875</LatitudeDegrees>
              <LongitudeDegrees>-5.750977993011474609375</LongitudeDegrees>
            </Position>
            <AltitudeMeters>955.4000244140625</AltitudeMeters>
            <DistanceMeters>NAN</DistanceMeters>
          </Trackpoint>
          <Trackpoint>
            <Time>2019-10-07T12:10:31.000Z</Time>
            <Position>
              <LatitudeDegrees>40.389225371181964874267578125</LatitudeDegrees>
              <LongitudeDegrees>-5.7510492391884326934814453125</LongitudeDegrees>
            </Position>
            <AltitudeMeters>954.4000244140625</AltitudeMeters>
            <DistanceMeters>NAN</DistanceMeters>
          </Trackpoint>
          <Trackpoint>
            <Time>2019-10-07T12:10:32.000Z</Time>
            <Position>
              <LatitudeDegrees>40.389178432524204254150390625</LatitudeDegrees>
              <LongitudeDegrees>-5.75111369602382183074951171875</LongitudeDegrees>
            </Position>
            <AltitudeMeters>953.20001220703125</AltitudeMeters>
            <DistanceMeters>NAN</DistanceMeters>
          </Trackpoint>
          <Trackpoint>
            <Time>2019-10-07T12:10:34.000Z</Time>
            <Position>
              <LatitudeDegrees>40.3891003131866455078125</LatitudeDegrees>
              <LongitudeDegrees>-5.75124688446521759033203125</LongitudeDegrees>
            </Position>
            <AltitudeMeters>952.4000244140625</AltitudeMeters>
            <DistanceMeters>NAN</DistanceMeters>
          </Trackpoint>
          <Trackpoint>
            <Time>2019-10-07T12:10:35.000Z</Time>
            <Position>
              <LatitudeDegrees>40.3890706412494182586669921875</LatitudeDegrees>
              <LongitudeDegrees>-5.751313269138336181640625</LongitudeDegrees>
            </Position>
            <AltitudeMeters>952.20001220703125</AltitudeMeters>
            <DistanceMeters>NAN</DistanceMeters>
          </Trackpoint>
          <Trackpoint>
            <Time>2019-10-07T12:10:36.000Z</Time>
            <Position>
              <LatitudeDegrees>40.38904189132153987884521484375</LatitudeDegrees>
              <LongitudeDegrees>-5.75137588195502758026123046875</LongitudeDegrees>
            </Position>
            <AltitudeMeters>951.79998779296875</AltitudeMeters>
            <DistanceMeters>NAN</DistanceMeters>
          </Trackpoint>
          <Trackpoint>
            <Time>2019-10-07T12:10:38.000Z</Time>
            <Position>
              <LatitudeDegrees>40.3890024125576019287109375</LatitudeDegrees>
              <LongitudeDegrees>-5.7515023648738861083984375</LongitudeDegrees>
            </Position>
            <AltitudeMeters>951.4000244140625</AltitudeMeters>
            <DistanceMeters>NAN</DistanceMeters>
          </Trackpoint>
          <Trackpoint>
            <Time>2019-10-07T12:10:39.000Z</Time>
            <Position>
              <LatitudeDegrees>40.38898833096027374267578125</LatitudeDegrees>
              <LongitudeDegrees>-5.75156397186219692230224609375</LongitudeDegrees>
            </Position>
            <AltitudeMeters>951</AltitudeMeters>
            <DistanceMeters>NAN</DistanceMeters>
          </Trackpoint>
          <Trackpoint>
            <Time>2019-10-07T12:10:40.000Z</Time>
            <Position>
              <LatitudeDegrees>40.388971231877803802490234375</LatitudeDegrees>
              <LongitudeDegrees>-5.75161971151828765869140625</LongitudeDegrees>
            </Position>
            <AltitudeMeters>950.79998779296875</AltitudeMeters>
            <DistanceMeters>NAN</DistanceMeters>
          </Trackpoint>
          <Trackpoint>
            <Time>2019-10-07T12:10:41.000Z</Time>
            <Position>
              <LatitudeDegrees>40.3889563120901584625244140625</LatitudeDegrees>
              <LongitudeDegrees>-5.75167679227888584136962890625</LongitudeDegrees>
            </Position>
            <AltitudeMeters>950.4000244140625</AltitudeMeters>
            <DistanceMeters>NAN</DistanceMeters>
          </Trackpoint>
          <Trackpoint>
            <Time>2019-10-07T12:10:42.000Z</Time>
            <Position>
              <LatitudeDegrees>40.388945080339908599853515625</LatitudeDegrees>
              <LongitudeDegrees>-5.75174041092395782470703125</LongitudeDegrees>
            </Position>
            <AltitudeMeters>950.4000244140625</AltitudeMeters>
            <DistanceMeters>NAN</DistanceMeters>
          </Trackpoint>
          <Trackpoint>
            <Time>2019-10-07T12:10:43.000Z</Time>
            <Position>
              <LatitudeDegrees>40.38893410004675388336181640625</LatitudeDegrees>
              <LongitudeDegrees>-5.7518133334815502166748046875</LongitudeDegrees>
            </Position>
            <AltitudeMeters>950</AltitudeMeters>
            <DistanceMeters>NAN</DistanceMeters>
          </Trackpoint>
          <Trackpoint>
            <Time>2019-10-07T12:10:45.000Z</Time>
            <Position>
              <LatitudeDegrees>40.38891633041203022003173828125</LatitudeDegrees>
              <LongitudeDegrees>-5.7519638724625110626220703125</LongitudeDegrees>
            </Position>
            <AltitudeMeters>948.4000244140625</AltitudeMeters>
            <DistanceMeters>NAN</DistanceMeters>
          </Trackpoint>
          <Trackpoint>
            <Time>2019-10-07T12:10:48.000Z</Time>
            <Position>
              <LatitudeDegrees>40.3888895921409130096435546875</LatitudeDegrees>
              <LongitudeDegrees>-5.75220820493996143341064453125</LongitudeDegrees>
            </Position>
            <AltitudeMeters>947.4000244140625</AltitudeMeters>
            <DistanceMeters>NAN</DistanceMeters>
          </Trackpoint>
          <Trackpoint>
            <Time>2019-10-07T12:10:50.000Z</Time>
            <Position>
              <LatitudeDegrees>40.38887375034391880035400390625</LatitudeDegrees>
              <LongitudeDegrees>-5.75239294208586215972900390625</LongitudeDegrees>
            </Position>
            <AltitudeMeters>945.79998779296875</AltitudeMeters>
            <DistanceMeters>NAN</DistanceMeters>
          </Trackpoint>
          <Trackpoint>
            <Time>2019-10-07T12:10:53.000Z</Time>
            <Position>
              <LatitudeDegrees>40.38883653469383716583251953125</LatitudeDegrees>
              <LongitudeDegrees>-5.75266577303409576416015625</LongitudeDegrees>
            </Position>
            <AltitudeMeters>944.5999755859375</AltitudeMeters>
            <DistanceMeters>NAN</DistanceMeters>
          </Trackpoint>
          <Trackpoint>
            <Time>2019-10-07T12:10:56.000Z</Time>
            <Position>
              <LatitudeDegrees>40.38879898376762866973876953125</LatitudeDegrees>
              <LongitudeDegrees>-5.75290692038834095001220703125</LongitudeDegrees>
            </Position>
            <AltitudeMeters>943.4000244140625</AltitudeMeters>
            <DistanceMeters>NAN</DistanceMeters>
          </Trackpoint>
          <Trackpoint>
            <Time>2019-10-07T12:10:59.000Z</Time>
            <Position>
              <LatitudeDegrees>40.38876528851687908172607421875</LatitudeDegrees>
              <LongitudeDegrees>-5.75307908467948436737060546875</LongitudeDegrees>
            </Position>
            <AltitudeMeters>943.4000244140625</AltitudeMeters>
            <DistanceMeters>NAN</DistanceMeters>
          </Trackpoint>
          <Trackpoint>
            <Time>2019-10-07T12:11:00.000Z</Time>
            <Position>
              <LatitudeDegrees>40.388762690126895904541015625</LatitudeDegrees>
              <LongitudeDegrees>-5.753120072185993194580078125</LongitudeDegrees>
            </Position>
            <AltitudeMeters>943.20001220703125</AltitudeMeters>
            <DistanceMeters>NAN</DistanceMeters>
          </Trackpoint>
          <Trackpoint>
            <Time>2019-10-07T12:11:02.000Z</Time>
            <Position>
              <LatitudeDegrees>40.388765372335910797119140625</LatitudeDegrees>
              <LongitudeDegrees>-5.7531584613025188446044921875</LongitudeDegrees>
            </Position>
            <AltitudeMeters>943</AltitudeMeters>
            <DistanceMeters>NAN</DistanceMeters>
          </Trackpoint>
          <Trackpoint>
            <Time>2019-10-07T12:11:03.000Z</Time>
            <Position>
              <LatitudeDegrees>40.38876562379300594329833984375</LatitudeDegrees>
              <LongitudeDegrees>-5.75316273607313632965087890625</LongitudeDegrees>
            </Position>
            <AltitudeMeters>942.79998779296875</AltitudeMeters>
            <DistanceMeters>NAN</DistanceMeters>
          </Trackpoint>
          <Trackpoint>
            <Time>2019-10-07T12:11:06.000Z</Time>
            <Position>
              <LatitudeDegrees>40.38876495324075222015380859375</LatitudeDegrees>
              <LongitudeDegrees>-5.7531678490340709686279296875</LongitudeDegrees>
            </Position>
            <AltitudeMeters>942.79998779296875</AltitudeMeters>
            <DistanceMeters>NAN</DistanceMeters>
          </Trackpoint>
          <Trackpoint>
            <Time>2019-10-07T12:11:09.000Z</Time>
            <Position>
              <LatitudeDegrees>40.38873217999935150146484375</LatitudeDegrees>
              <LongitudeDegrees>-5.75326264835894107818603515625</LongitudeDegrees>
            </Position>
            <AltitudeMeters>942.20001220703125</AltitudeMeters>
            <DistanceMeters>NAN</DistanceMeters>
          </Trackpoint>
          <Trackpoint>
            <Time>2019-10-07T12:11:14.000Z</Time>
            <Position>
              <LatitudeDegrees>40.38865162990987300872802734375</LatitudeDegrees>
              <LongitudeDegrees>-5.7535259239375591278076171875</LongitudeDegrees>
            </Position>
            <AltitudeMeters>940.79998779296875</AltitudeMeters>
            <DistanceMeters>NAN</DistanceMeters>
          </Trackpoint>
          <Trackpoint>
            <Time>2019-10-07T12:11:18.000Z</Time>
            <Position>
              <LatitudeDegrees>40.38857753388583660125732421875</LatitudeDegrees>
              <LongitudeDegrees>-5.753728933632373809814453125</LongitudeDegrees>
            </Position>
            <AltitudeMeters>939.5999755859375</AltitudeMeters>
            <DistanceMeters>NAN</DistanceMeters>
          </Trackpoint>
          <Trackpoint>
            <Time>2019-10-07T12:11:19.000Z</Time>
            <Position>
              <LatitudeDegrees>40.3885620273649692535400390625</LatitudeDegrees>
              <LongitudeDegrees>-5.75377327390015125274658203125</LongitudeDegrees>
            </Position>
            <AltitudeMeters>939.20001220703125</AltitudeMeters>
            <DistanceMeters>NAN</DistanceMeters>
          </Trackpoint>
          <Trackpoint>
            <Time>2019-10-07T12:11:22.000Z</Time>
            <Position>
              <LatitudeDegrees>40.38851550780236721038818359375</LatitudeDegrees>
              <LongitudeDegrees>-5.75389414094388484954833984375</LongitudeDegrees>
            </Position>
            <AltitudeMeters>938.79998779296875</AltitudeMeters>
            <DistanceMeters>NAN</DistanceMeters>
          </Trackpoint>
          <Trackpoint>
            <Time>2019-10-07T12:11:23.000Z</Time>
            <Position>
              <LatitudeDegrees>40.38849321193993091583251953125</LatitudeDegrees>
              <LongitudeDegrees>-5.7539399899542331695556640625</LongitudeDegrees>
            </Position>
            <AltitudeMeters>938.4000244140625</AltitudeMeters>
            <DistanceMeters>NAN</DistanceMeters>
          </Trackpoint>
          <Trackpoint>
            <Time>2019-10-07T12:11:24.000Z</Time>
            <Position>
              <LatitudeDegrees>40.38847066462039947509765625</LatitudeDegrees>
              <LongitudeDegrees>-5.75399346649646759033203125</LongitudeDegrees>
            </Position>
            <AltitudeMeters>938</AltitudeMeters>
            <DistanceMeters>NAN</DistanceMeters>
          </Trackpoint>
          <Trackpoint>
            <Time>2019-10-07T12:11:27.000Z</Time>
            <Position>
              <LatitudeDegrees>40.388412661850452423095703125</LatitudeDegrees>
              <LongitudeDegrees>-5.7541384734213352203369140625</LongitudeDegrees>
            </Position>
            <AltitudeMeters>937.20001220703125</AltitudeMeters>
            <DistanceMeters>NAN</DistanceMeters>
          </Trackpoint>
          <Trackpoint>
            <Time>2019-10-07T12:11:28.000Z</Time>
            <Position>
              <LatitudeDegrees>40.388405621051788330078125</LatitudeDegrees>
              <LongitudeDegrees>-5.7541723363101482391357421875</LongitudeDegrees>
            </Position>
            <AltitudeMeters>937</AltitudeMeters>
            <DistanceMeters>NAN</DistanceMeters>
          </Trackpoint>
          <Trackpoint>
            <Time>2019-10-07T12:11:31.000Z</Time>
            <Position>
              <LatitudeDegrees>40.3883960656821727752685546875</LatitudeDegrees>
              <LongitudeDegrees>-5.75419739820063114166259765625</LongitudeDegrees>
            </Position>
            <AltitudeMeters>936.79998779296875</AltitudeMeters>
            <DistanceMeters>NAN</DistanceMeters>
          </Trackpoint>
          <Trackpoint>
            <Time>2019-10-07T12:11:36.000Z</Time>
            <Position>
              <LatitudeDegrees>40.3883947245776653289794921875</LatitudeDegrees>
              <LongitudeDegrees>-5.75420401990413665771484375</LongitudeDegrees>
            </Position>
            <AltitudeMeters>936.79998779296875</AltitudeMeters>
            <DistanceMeters>NAN</DistanceMeters>
          </Trackpoint>
          <Trackpoint>
            <Time>2019-10-07T12:11:45.000Z</Time>
            <Position>
              <LatitudeDegrees>40.3883947245776653289794921875</LatitudeDegrees>
              <LongitudeDegrees>-5.75420401990413665771484375</LongitudeDegrees>
            </Position>
            <AltitudeMeters>936.5999755859375</AltitudeMeters>
            <DistanceMeters>NAN</DistanceMeters>
          </Trackpoint>
          <Trackpoint>
            <Time>2019-10-07T12:11:49.000Z</Time>
            <Position>
              <LatitudeDegrees>40.3883947245776653289794921875</LatitudeDegrees>
              <LongitudeDegrees>-5.75420401990413665771484375</LongitudeDegrees>
            </Position>
            <AltitudeMeters>936.79998779296875</AltitudeMeters>
            <DistanceMeters>NAN</DistanceMeters>
          </Trackpoint>
          <Trackpoint>
            <Time>2019-10-07T12:11:53.000Z</Time>
            <Position>
              <LatitudeDegrees>40.3883947245776653289794921875</LatitudeDegrees>
              <LongitudeDegrees>-5.75420401990413665771484375</LongitudeDegrees>
            </Position>
            <AltitudeMeters>936.79998779296875</AltitudeMeters>
            <DistanceMeters>NAN</DistanceMeters>
          </Trackpoint>
          <Trackpoint>
            <Time>2019-10-07T12:11:54.000Z</Time>
            <Position>
              <LatitudeDegrees>40.3883947245776653289794921875</LatitudeDegrees>
              <LongitudeDegrees>-5.75420401990413665771484375</LongitudeDegrees>
            </Position>
            <AltitudeMeters>936.79998779296875</AltitudeMeters>
            <DistanceMeters>NAN</DistanceMeters>
          </Trackpoint>
          <Trackpoint>
            <Time>2019-10-07T12:11:56.000Z</Time>
            <Position>
              <LatitudeDegrees>40.3883947245776653289794921875</LatitudeDegrees>
              <LongitudeDegrees>-5.75420401990413665771484375</LongitudeDegrees>
            </Position>
            <AltitudeMeters>936.79998779296875</AltitudeMeters>
            <DistanceMeters>NAN</DistanceMeters>
          </Trackpoint>
          <Trackpoint>
            <Time>2019-10-07T12:11:59.000Z</Time>
            <Position>
              <LatitudeDegrees>40.3883947245776653289794921875</LatitudeDegrees>
              <LongitudeDegrees>-5.75420401990413665771484375</LongitudeDegrees>
            </Position>
            <AltitudeMeters>936.79998779296875</AltitudeMeters>
            <DistanceMeters>NAN</DistanceMeters>
          </Trackpoint>
          <Trackpoint>
            <Time>2019-10-07T12:12:02.000Z</Time>
            <Position>
              <LatitudeDegrees>40.3883947245776653289794921875</LatitudeDegrees>
              <LongitudeDegrees>-5.75420401990413665771484375</LongitudeDegrees>
            </Position>
            <AltitudeMeters>936.4000244140625</AltitudeMeters>
            <DistanceMeters>NAN</DistanceMeters>
          </Trackpoint>
          <Trackpoint>
            <Time>2019-10-07T12:12:04.000Z</Time>
            <Position>
              <LatitudeDegrees>40.3883947245776653289794921875</LatitudeDegrees>
              <LongitudeDegrees>-5.75420401990413665771484375</LongitudeDegrees>
            </Position>
            <AltitudeMeters>936.5999755859375</AltitudeMeters>
            <DistanceMeters>NAN</DistanceMeters>
          </Trackpoint>
          <Trackpoint>
            <Time>2019-10-07T12:12:06.000Z</Time>
            <Position>
              <LatitudeDegrees>40.3883947245776653289794921875</LatitudeDegrees>
              <LongitudeDegrees>-5.75420401990413665771484375</LongitudeDegrees>
            </Position>
            <AltitudeMeters>936.79998779296875</AltitudeMeters>
            <DistanceMeters>NAN</DistanceMeters>
          </Trackpoint>
          <Trackpoint>
            <Time>2019-10-07T12:12:10.000Z</Time>
            <Position>
              <LatitudeDegrees>40.3883947245776653289794921875</LatitudeDegrees>
              <LongitudeDegrees>-5.75420401990413665771484375</LongitudeDegrees>
            </Position>
            <AltitudeMeters>936.5999755859375</AltitudeMeters>
            <DistanceMeters>NAN</DistanceMeters>
          </Trackpoint>
          <Trackpoint>
            <Time>2019-10-07T12:12:12.000Z</Time>
            <Position>
              <LatitudeDegrees>40.38839698769152164459228515625</LatitudeDegrees>
              <LongitudeDegrees>-5.7542033493518829345703125</LongitudeDegrees>
            </Position>
            <AltitudeMeters>936.5999755859375</AltitudeMeters>
            <DistanceMeters>NAN</DistanceMeters>
          </Trackpoint>
          <Trackpoint>
            <Time>2019-10-07T12:12:16.000Z</Time>
            <Position>
              <LatitudeDegrees>40.38839698769152164459228515625</LatitudeDegrees>
              <LongitudeDegrees>-5.7542033493518829345703125</LongitudeDegrees>
            </Position>
            <AltitudeMeters>936.5999755859375</AltitudeMeters>
            <DistanceMeters>NAN</DistanceMeters>
          </Trackpoint>
          <Trackpoint>
            <Time>2019-10-07T12:12:17.000Z</Time>
            <Position>
              <LatitudeDegrees>40.38839698769152164459228515625</LatitudeDegrees>
              <LongitudeDegrees>-5.7542033493518829345703125</LongitudeDegrees>
            </Position>
            <AltitudeMeters>936.79998779296875</AltitudeMeters>
            <DistanceMeters>NAN</DistanceMeters>
          </Trackpoint>
          <Trackpoint>
            <Time>2019-10-07T12:12:18.000Z</Time>
            <Position>
              <LatitudeDegrees>40.38839698769152164459228515625</LatitudeDegrees>
              <LongitudeDegrees>-5.7542033493518829345703125</LongitudeDegrees>
            </Position>
            <AltitudeMeters>936.5999755859375</AltitudeMeters>
            <DistanceMeters>NAN</DistanceMeters>
          </Trackpoint>
          <Trackpoint>
            <Time>2019-10-07T12:12:21.000Z</Time>
            <Position>
              <LatitudeDegrees>40.38839698769152164459228515625</LatitudeDegrees>
              <LongitudeDegrees>-5.7542033493518829345703125</LongitudeDegrees>
            </Position>
            <AltitudeMeters>937</AltitudeMeters>
            <DistanceMeters>NAN</DistanceMeters>
          </Trackpoint>
          <Trackpoint>
            <Time>2019-10-07T12:12:23.000Z</Time>
            <Position>
              <LatitudeDegrees>40.38839698769152164459228515625</LatitudeDegrees>
              <LongitudeDegrees>-5.7542033493518829345703125</LongitudeDegrees>
            </Position>
            <AltitudeMeters>936.79998779296875</AltitudeMeters>
            <DistanceMeters>NAN</DistanceMeters>
          </Trackpoint>
          <Trackpoint>
            <Time>2019-10-07T12:12:24.000Z</Time>
            <Position>
              <LatitudeDegrees>40.38839698769152164459228515625</LatitudeDegrees>
              <LongitudeDegrees>-5.7542033493518829345703125</LongitudeDegrees>
            </Position>
            <AltitudeMeters>936.79998779296875</AltitudeMeters>
            <DistanceMeters>NAN</DistanceMeters>
          </Trackpoint>
          <Trackpoint>
            <Time>2019-10-07T12:12:27.000Z</Time>
            <Position>
              <LatitudeDegrees>40.38839698769152164459228515625</LatitudeDegrees>
              <LongitudeDegrees>-5.7542033493518829345703125</LongitudeDegrees>
            </Position>
            <AltitudeMeters>936.79998779296875</AltitudeMeters>
            <DistanceMeters>NAN</DistanceMeters>
          </Trackpoint>
          <Trackpoint>
            <Time>2019-10-07T12:12:28.000Z</Time>
            <Position>
              <LatitudeDegrees>40.38839698769152164459228515625</LatitudeDegrees>
              <LongitudeDegrees>-5.7542033493518829345703125</LongitudeDegrees>
            </Position>
            <AltitudeMeters>936.79998779296875</AltitudeMeters>
            <DistanceMeters>NAN</DistanceMeters>
          </Trackpoint>
          <Trackpoint>
            <Time>2019-10-07T12:12:33.000Z</Time>
            <Position>
              <LatitudeDegrees>40.38839698769152164459228515625</LatitudeDegrees>
              <LongitudeDegrees>-5.7542033493518829345703125</LongitudeDegrees>
            </Position>
            <AltitudeMeters>936.5999755859375</AltitudeMeters>
            <DistanceMeters>NAN</DistanceMeters>
          </Trackpoint>
          <Trackpoint>
            <Time>2019-10-07T12:12:39.000Z</Time>
            <Position>
              <LatitudeDegrees>40.38839698769152164459228515625</LatitudeDegrees>
              <LongitudeDegrees>-5.7542033493518829345703125</LongitudeDegrees>
            </Position>
            <AltitudeMeters>936.5999755859375</AltitudeMeters>
            <DistanceMeters>NAN</DistanceMeters>
          </Trackpoint>
          <Trackpoint>
            <Time>2019-10-07T12:12:44.000Z</Time>
            <Position>
              <LatitudeDegrees>40.38839698769152164459228515625</LatitudeDegrees>
              <LongitudeDegrees>-5.7542033493518829345703125</LongitudeDegrees>
            </Position>
            <AltitudeMeters>936.79998779296875</AltitudeMeters>
            <DistanceMeters>NAN</DistanceMeters>
          </Trackpoint>
          <Trackpoint>
            <Time>2019-10-07T12:12:50.000Z</Time>
            <Position>
              <LatitudeDegrees>40.38839698769152164459228515625</LatitudeDegrees>
              <LongitudeDegrees>-5.7542033493518829345703125</LongitudeDegrees>
            </Position>
            <AltitudeMeters>936.79998779296875</AltitudeMeters>
            <DistanceMeters>NAN</DistanceMeters>
          </Trackpoint>
          <Trackpoint>
            <Time>2019-10-07T12:12:52.000Z</Time>
            <Position>
              <LatitudeDegrees>40.38839422166347503662109375</LatitudeDegrees>
              <LongitudeDegrees>-5.75420142151415348052978515625</LongitudeDegrees>
            </Position>
            <AltitudeMeters>936.79998779296875</AltitudeMeters>
            <DistanceMeters>NAN</DistanceMeters>
          </Trackpoint>
          <Trackpoint>
            <Time>2019-10-07T12:12:55.000Z</Time>
            <Position>
              <LatitudeDegrees>40.38839422166347503662109375</LatitudeDegrees>
              <LongitudeDegrees>-5.75420142151415348052978515625</LongitudeDegrees>
            </Position>
            <AltitudeMeters>936.5999755859375</AltitudeMeters>
            <DistanceMeters>NAN</DistanceMeters>
          </Trackpoint>
          <Trackpoint>
            <Time>2019-10-07T12:13:01.000Z</Time>
            <Position>
              <LatitudeDegrees>40.38839422166347503662109375</LatitudeDegrees>
              <LongitudeDegrees>-5.75420142151415348052978515625</LongitudeDegrees>
            </Position>
            <AltitudeMeters>937</AltitudeMeters>
            <DistanceMeters>NAN</DistanceMeters>
          </Trackpoint>
          <Trackpoint>
            <Time>2019-10-07T12:13:03.000Z</Time>
            <Position>
              <LatitudeDegrees>40.38839422166347503662109375</LatitudeDegrees>
              <LongitudeDegrees>-5.75420142151415348052978515625</LongitudeDegrees>
            </Position>
            <AltitudeMeters>936.79998779296875</AltitudeMeters>
            <DistanceMeters>NAN</DistanceMeters>
          </Trackpoint>
          <Trackpoint>
            <Time>2019-10-07T12:13:08.000Z</Time>
            <Position>
              <LatitudeDegrees>40.38839422166347503662109375</LatitudeDegrees>
              <LongitudeDegrees>-5.75420142151415348052978515625</LongitudeDegrees>
            </Position>
            <AltitudeMeters>936.5999755859375</AltitudeMeters>
            <DistanceMeters>NAN</DistanceMeters>
          </Trackpoint>
          <Trackpoint>
            <Time>2019-10-07T12:13:14.000Z</Time>
            <Position>
              <LatitudeDegrees>40.38839422166347503662109375</LatitudeDegrees>
              <LongitudeDegrees>-5.75420142151415348052978515625</LongitudeDegrees>
            </Position>
            <AltitudeMeters>936.5999755859375</AltitudeMeters>
            <DistanceMeters>NAN</DistanceMeters>
          </Trackpoint>
          <Trackpoint>
            <Time>2019-10-07T12:13:26.000Z</Time>
            <Position>
              <LatitudeDegrees>40.38839422166347503662109375</LatitudeDegrees>
              <LongitudeDegrees>-5.75420142151415348052978515625</LongitudeDegrees>
            </Position>
            <AltitudeMeters>936.5999755859375</AltitudeMeters>
            <DistanceMeters>NAN</DistanceMeters>
          </Trackpoint>
          <Trackpoint>
            <Time>2019-10-07T12:13:28.000Z</Time>
            <Position>
              <LatitudeDegrees>40.38839422166347503662109375</LatitudeDegrees>
              <LongitudeDegrees>-5.75420142151415348052978515625</LongitudeDegrees>
            </Position>
            <AltitudeMeters>936.5999755859375</AltitudeMeters>
            <DistanceMeters>NAN</DistanceMeters>
          </Trackpoint>
          <Trackpoint>
            <Time>2019-10-07T12:13:40.000Z</Time>
            <Position>
              <LatitudeDegrees>40.3883957304060459136962890625</LatitudeDegrees>
              <LongitudeDegrees>-5.75420133769512176513671875</LongitudeDegrees>
            </Position>
            <AltitudeMeters>936.79998779296875</AltitudeMeters>
            <DistanceMeters>NAN</DistanceMeters>
          </Trackpoint>
          <Trackpoint>
            <Time>2019-10-07T12:13:43.000Z</Time>
            <Position>
              <LatitudeDegrees>40.3883957304060459136962890625</LatitudeDegrees>
              <LongitudeDegrees>-5.75420133769512176513671875</LongitudeDegrees>
            </Position>
            <AltitudeMeters>937</AltitudeMeters>
            <DistanceMeters>NAN</DistanceMeters>
          </Trackpoint>
          <Trackpoint>
            <Time>2019-10-07T12:13:49.000Z</Time>
            <Position>
              <LatitudeDegrees>40.3883957304060459136962890625</LatitudeDegrees>
              <LongitudeDegrees>-5.75420133769512176513671875</LongitudeDegrees>
            </Position>
            <AltitudeMeters>937</AltitudeMeters>
            <DistanceMeters>NAN</DistanceMeters>
          </Trackpoint>
          <Trackpoint>
            <Time>2019-10-07T12:13:55.000Z</Time>
            <Position>
              <LatitudeDegrees>40.3883957304060459136962890625</LatitudeDegrees>
              <LongitudeDegrees>-5.75420133769512176513671875</LongitudeDegrees>
            </Position>
            <AltitudeMeters>937</AltitudeMeters>
            <DistanceMeters>NAN</DistanceMeters>
          </Trackpoint>
          <Trackpoint>
            <Time>2019-10-07T12:13:57.000Z</Time>
            <Position>
              <LatitudeDegrees>40.3883957304060459136962890625</LatitudeDegrees>
              <LongitudeDegrees>-5.75420133769512176513671875</LongitudeDegrees>
            </Position>
            <AltitudeMeters>937</AltitudeMeters>
            <DistanceMeters>NAN</DistanceMeters>
          </Trackpoint>
          <Trackpoint>
            <Time>2019-10-07T12:13:58.000Z</Time>
            <Position>
              <LatitudeDegrees>40.3883957304060459136962890625</LatitudeDegrees>
              <LongitudeDegrees>-5.75420133769512176513671875</LongitudeDegrees>
            </Position>
            <AltitudeMeters>937</AltitudeMeters>
            <DistanceMeters>NAN</DistanceMeters>
          </Trackpoint>
          <Trackpoint>
            <Time>2019-10-07T12:13:59.000Z</Time>
            <Position>
              <LatitudeDegrees>40.3883957304060459136962890625</LatitudeDegrees>
              <LongitudeDegrees>-5.75420133769512176513671875</LongitudeDegrees>
            </Position>
            <AltitudeMeters>937</AltitudeMeters>
            <DistanceMeters>NAN</DistanceMeters>
          </Trackpoint>
          <Trackpoint>
            <Time>2019-10-07T12:14:05.000Z</Time>
            <Position>
              <LatitudeDegrees>40.3883957304060459136962890625</LatitudeDegrees>
              <LongitudeDegrees>-5.75420133769512176513671875</LongitudeDegrees>
            </Position>
            <AltitudeMeters>937</AltitudeMeters>
            <DistanceMeters>NAN</DistanceMeters>
          </Trackpoint>
          <Trackpoint>
            <Time>2019-10-07T12:14:07.000Z</Time>
            <Position>
              <LatitudeDegrees>40.3883957304060459136962890625</LatitudeDegrees>
              <LongitudeDegrees>-5.75420133769512176513671875</LongitudeDegrees>
            </Position>
            <AltitudeMeters>937.20001220703125</AltitudeMeters>
            <DistanceMeters>NAN</DistanceMeters>
          </Trackpoint>
          <Trackpoint>
            <Time>2019-10-07T12:14:09.000Z</Time>
            <Position>
              <LatitudeDegrees>40.3883957304060459136962890625</LatitudeDegrees>
              <LongitudeDegrees>-5.75420133769512176513671875</LongitudeDegrees>
            </Position>
            <AltitudeMeters>937.20001220703125</AltitudeMeters>
            <DistanceMeters>NAN</DistanceMeters>
          </Trackpoint>
          <Trackpoint>
            <Time>2019-10-07T12:14:13.000Z</Time>
            <Position>
              <LatitudeDegrees>40.388397909700870513916015625</LatitudeDegrees>
              <LongitudeDegrees>-5.75420779176056385040283203125</LongitudeDegrees>
            </Position>
            <AltitudeMeters>936.79998779296875</AltitudeMeters>
            <DistanceMeters>NAN</DistanceMeters>
          </Trackpoint>
          <Trackpoint>
            <Time>2019-10-07T12:14:15.000Z</Time>
            <Position>
              <LatitudeDegrees>40.388397909700870513916015625</LatitudeDegrees>
              <LongitudeDegrees>-5.75420779176056385040283203125</LongitudeDegrees>
            </Position>
            <AltitudeMeters>936.79998779296875</AltitudeMeters>
            <DistanceMeters>NAN</DistanceMeters>
          </Trackpoint>
          <Trackpoint>
            <Time>2019-10-07T12:14:23.000Z</Time>
            <Position>
              <LatitudeDegrees>40.388397909700870513916015625</LatitudeDegrees>
              <LongitudeDegrees>-5.75420779176056385040283203125</LongitudeDegrees>
            </Position>
            <AltitudeMeters>937</AltitudeMeters>
            <DistanceMeters>NAN</DistanceMeters>
          </Trackpoint>
          <Trackpoint>
            <Time>2019-10-07T12:14:24.000Z</Time>
            <Position>
              <LatitudeDegrees>40.388397909700870513916015625</LatitudeDegrees>
              <LongitudeDegrees>-5.75420779176056385040283203125</LongitudeDegrees>
            </Position>
            <AltitudeMeters>937.20001220703125</AltitudeMeters>
            <DistanceMeters>NAN</DistanceMeters>
          </Trackpoint>
          <Trackpoint>
            <Time>2019-10-07T12:14:25.000Z</Time>
            <Position>
              <LatitudeDegrees>40.388397909700870513916015625</LatitudeDegrees>
              <LongitudeDegrees>-5.75420779176056385040283203125</LongitudeDegrees>
            </Position>
            <AltitudeMeters>937.20001220703125</AltitudeMeters>
            <DistanceMeters>NAN</DistanceMeters>
          </Trackpoint>
          <Trackpoint>
            <Time>2019-10-07T12:14:28.000Z</Time>
            <Position>
              <LatitudeDegrees>40.388397909700870513916015625</LatitudeDegrees>
              <LongitudeDegrees>-5.75420779176056385040283203125</LongitudeDegrees>
            </Position>
            <AltitudeMeters>937.20001220703125</AltitudeMeters>
            <DistanceMeters>NAN</DistanceMeters>
          </Trackpoint>
          <Trackpoint>
            <Time>2019-10-07T12:14:30.000Z</Time>
            <Position>
              <LatitudeDegrees>40.388397909700870513916015625</LatitudeDegrees>
              <LongitudeDegrees>-5.75420779176056385040283203125</LongitudeDegrees>
            </Position>
            <AltitudeMeters>937</AltitudeMeters>
            <DistanceMeters>NAN</DistanceMeters>
          </Trackpoint>
          <Trackpoint>
            <Time>2019-10-07T12:14:33.000Z</Time>
            <Position>
              <LatitudeDegrees>40.388397909700870513916015625</LatitudeDegrees>
              <LongitudeDegrees>-5.75420779176056385040283203125</LongitudeDegrees>
            </Position>
            <AltitudeMeters>937</AltitudeMeters>
            <DistanceMeters>NAN</DistanceMeters>
          </Trackpoint>
          <Trackpoint>
            <Time>2019-10-07T12:14:35.000Z</Time>
            <Position>
              <LatitudeDegrees>40.388397909700870513916015625</LatitudeDegrees>
              <LongitudeDegrees>-5.75420779176056385040283203125</LongitudeDegrees>
            </Position>
            <AltitudeMeters>937.20001220703125</AltitudeMeters>
            <DistanceMeters>NAN</DistanceMeters>
          </Trackpoint>
          <Trackpoint>
            <Time>2019-10-07T12:14:38.000Z</Time>
            <Position>
              <LatitudeDegrees>40.388397909700870513916015625</LatitudeDegrees>
              <LongitudeDegrees>-5.75420779176056385040283203125</LongitudeDegrees>
            </Position>
            <AltitudeMeters>936.79998779296875</AltitudeMeters>
            <DistanceMeters>NAN</DistanceMeters>
          </Trackpoint>
          <Trackpoint>
            <Time>2019-10-07T12:14:40.000Z</Time>
            <Position>
              <LatitudeDegrees>40.388397909700870513916015625</LatitudeDegrees>
              <LongitudeDegrees>-5.75420779176056385040283203125</LongitudeDegrees>
            </Position>
            <AltitudeMeters>936.5999755859375</AltitudeMeters>
            <DistanceMeters>NAN</DistanceMeters>
          </Trackpoint>
          <Trackpoint>
            <Time>2019-10-07T12:14:42.000Z</Time>
            <Position>
              <LatitudeDegrees>40.388397909700870513916015625</LatitudeDegrees>
              <LongitudeDegrees>-5.75420779176056385040283203125</LongitudeDegrees>
            </Position>
            <AltitudeMeters>936.79998779296875</AltitudeMeters>
            <DistanceMeters>NAN</DistanceMeters>
          </Trackpoint>
          <Trackpoint>
            <Time>2019-10-07T12:14:45.000Z</Time>
            <Position>
              <LatitudeDegrees>40.388397909700870513916015625</LatitudeDegrees>
              <LongitudeDegrees>-5.75420779176056385040283203125</LongitudeDegrees>
            </Position>
            <AltitudeMeters>937</AltitudeMeters>
            <DistanceMeters>NAN</DistanceMeters>
          </Trackpoint>
          <Trackpoint>
            <Time>2019-10-07T12:14:46.000Z</Time>
            <Position>
              <LatitudeDegrees>40.388397909700870513916015625</LatitudeDegrees>
              <LongitudeDegrees>-5.75420779176056385040283203125</LongitudeDegrees>
            </Position>
            <AltitudeMeters>937.20001220703125</AltitudeMeters>
            <DistanceMeters>NAN</DistanceMeters>
          </Trackpoint>
          <Trackpoint>
            <Time>2019-10-07T12:14:47.000Z</Time>
            <Position>
              <LatitudeDegrees>40.388397909700870513916015625</LatitudeDegrees>
              <LongitudeDegrees>-5.75420779176056385040283203125</LongitudeDegrees>
            </Position>
            <AltitudeMeters>937</AltitudeMeters>
            <DistanceMeters>NAN</DistanceMeters>
          </Trackpoint>
          <Trackpoint>
            <Time>2019-10-07T12:14:49.000Z</Time>
            <Position>
              <LatitudeDegrees>40.388397909700870513916015625</LatitudeDegrees>
              <LongitudeDegrees>-5.75420779176056385040283203125</LongitudeDegrees>
            </Position>
            <AltitudeMeters>937</AltitudeMeters>
            <DistanceMeters>NAN</DistanceMeters>
          </Trackpoint>
          <Trackpoint>
            <Time>2019-10-07T12:14:55.000Z</Time>
            <Position>
              <LatitudeDegrees>40.38840788416564464569091796875</LatitudeDegrees>
              <LongitudeDegrees>-5.75421432964503765106201171875</LongitudeDegrees>
            </Position>
            <AltitudeMeters>937.20001220703125</AltitudeMeters>
            <DistanceMeters>NAN</DistanceMeters>
          </Trackpoint>
          <Trackpoint>
            <Time>2019-10-07T12:15:03.000Z</Time>
            <Position>
              <LatitudeDegrees>40.38840788416564464569091796875</LatitudeDegrees>
              <LongitudeDegrees>-5.75421432964503765106201171875</LongitudeDegrees>
            </Position>
            <AltitudeMeters>937.20001220703125</AltitudeMeters>
            <DistanceMeters>NAN</DistanceMeters>
          </Trackpoint>
          <Trackpoint>
            <Time>2019-10-07T12:15:04.000Z</Time>
            <Position>
              <LatitudeDegrees>40.38840788416564464569091796875</LatitudeDegrees>
              <LongitudeDegrees>-5.75421432964503765106201171875</LongitudeDegrees>
            </Position>
            <AltitudeMeters>937</AltitudeMeters>
            <DistanceMeters>NAN</DistanceMeters>
          </Trackpoint>
          <Trackpoint>
            <Time>2019-10-07T12:15:07.000Z</Time>
            <Position>
              <LatitudeDegrees>40.38840788416564464569091796875</LatitudeDegrees>
              <LongitudeDegrees>-5.75421432964503765106201171875</LongitudeDegrees>
            </Position>
            <AltitudeMeters>937</AltitudeMeters>
            <DistanceMeters>NAN</DistanceMeters>
          </Trackpoint>
          <Trackpoint>
            <Time>2019-10-07T12:15:10.000Z</Time>
            <Position>
              <LatitudeDegrees>40.38840788416564464569091796875</LatitudeDegrees>
              <LongitudeDegrees>-5.75421432964503765106201171875</LongitudeDegrees>
            </Position>
            <AltitudeMeters>936.5999755859375</AltitudeMeters>
            <DistanceMeters>NAN</DistanceMeters>
          </Trackpoint>
          <Trackpoint>
            <Time>2019-10-07T12:15:12.000Z</Time>
            <Position>
              <LatitudeDegrees>40.38840788416564464569091796875</LatitudeDegrees>
              <LongitudeDegrees>-5.75421432964503765106201171875</LongitudeDegrees>
            </Position>
            <AltitudeMeters>936.5999755859375</AltitudeMeters>
            <DistanceMeters>NAN</DistanceMeters>
          </Trackpoint>
          <Trackpoint>
            <Time>2019-10-07T12:15:17.000Z</Time>
            <Position>
              <LatitudeDegrees>40.38840788416564464569091796875</LatitudeDegrees>
              <LongitudeDegrees>-5.75421432964503765106201171875</LongitudeDegrees>
            </Position>
            <AltitudeMeters>937.20001220703125</AltitudeMeters>
            <DistanceMeters>NAN</DistanceMeters>
          </Trackpoint>
          <Trackpoint>
            <Time>2019-10-07T12:15:21.000Z</Time>
            <Position>
              <LatitudeDegrees>40.38840788416564464569091796875</LatitudeDegrees>
              <LongitudeDegrees>-5.75421432964503765106201171875</LongitudeDegrees>
            </Position>
            <AltitudeMeters>937.20001220703125</AltitudeMeters>
            <DistanceMeters>NAN</DistanceMeters>
          </Trackpoint>
          <Trackpoint>
            <Time>2019-10-07T12:15:23.000Z</Time>
            <Position>
              <LatitudeDegrees>40.38840788416564464569091796875</LatitudeDegrees>
              <LongitudeDegrees>-5.75421432964503765106201171875</LongitudeDegrees>
            </Position>
            <AltitudeMeters>937.20001220703125</AltitudeMeters>
            <DistanceMeters>NAN</DistanceMeters>
          </Trackpoint>
          <Trackpoint>
            <Time>2019-10-07T12:15:27.000Z</Time>
            <Position>
              <LatitudeDegrees>40.38840788416564464569091796875</LatitudeDegrees>
              <LongitudeDegrees>-5.75421432964503765106201171875</LongitudeDegrees>
            </Position>
            <AltitudeMeters>937</AltitudeMeters>
            <DistanceMeters>NAN</DistanceMeters>
          </Trackpoint>
          <Trackpoint>
            <Time>2019-10-07T12:15:40.000Z</Time>
            <Position>
              <LatitudeDegrees>40.38841559551656246185302734375</LatitudeDegrees>
              <LongitudeDegrees>-5.75422036461532115936279296875</LongitudeDegrees>
            </Position>
            <AltitudeMeters>936.79998779296875</AltitudeMeters>
            <DistanceMeters>NAN</DistanceMeters>
          </Trackpoint>
          <Trackpoint>
            <Time>2019-10-07T12:15:42.000Z</Time>
            <Position>
              <LatitudeDegrees>40.38841559551656246185302734375</LatitudeDegrees>
              <LongitudeDegrees>-5.75422036461532115936279296875</LongitudeDegrees>
            </Position>
            <AltitudeMeters>936.79998779296875</AltitudeMeters>
            <DistanceMeters>NAN</DistanceMeters>
          </Trackpoint>
          <Trackpoint>
            <Time>2019-10-07T12:15:43.000Z</Time>
            <Position>
              <LatitudeDegrees>40.38841559551656246185302734375</LatitudeDegrees>
              <LongitudeDegrees>-5.75422036461532115936279296875</LongitudeDegrees>
            </Position>
            <AltitudeMeters>936.79998779296875</AltitudeMeters>
            <DistanceMeters>NAN</DistanceMeters>
          </Trackpoint>
          <Trackpoint>
            <Time>2019-10-07T12:15:45.000Z</Time>
            <Position>
              <LatitudeDegrees>40.38841559551656246185302734375</LatitudeDegrees>
              <LongitudeDegrees>-5.75422036461532115936279296875</LongitudeDegrees>
            </Position>
            <AltitudeMeters>936.79998779296875</AltitudeMeters>
            <DistanceMeters>NAN</DistanceMeters>
          </Trackpoint>
          <Trackpoint>
            <Time>2019-10-07T12:15:46.000Z</Time>
            <Position>
              <LatitudeDegrees>40.38841559551656246185302734375</LatitudeDegrees>
              <LongitudeDegrees>-5.75422036461532115936279296875</LongitudeDegrees>
            </Position>
            <AltitudeMeters>936.5999755859375</AltitudeMeters>
            <DistanceMeters>NAN</DistanceMeters>
          </Trackpoint>
          <Trackpoint>
            <Time>2019-10-07T12:15:50.000Z</Time>
            <Position>
              <LatitudeDegrees>40.38841559551656246185302734375</LatitudeDegrees>
              <LongitudeDegrees>-5.75422036461532115936279296875</LongitudeDegrees>
            </Position>
            <AltitudeMeters>936.79998779296875</AltitudeMeters>
            <DistanceMeters>NAN</DistanceMeters>
          </Trackpoint>
          <Trackpoint>
            <Time>2019-10-07T12:15:51.000Z</Time>
            <Position>
              <LatitudeDegrees>40.38841559551656246185302734375</LatitudeDegrees>
              <LongitudeDegrees>-5.75422036461532115936279296875</LongitudeDegrees>
            </Position>
            <AltitudeMeters>936.79998779296875</AltitudeMeters>
            <DistanceMeters>NAN</DistanceMeters>
          </Trackpoint>
          <Trackpoint>
            <Time>2019-10-07T12:15:52.000Z</Time>
            <Position>
              <LatitudeDegrees>40.38841559551656246185302734375</LatitudeDegrees>
              <LongitudeDegrees>-5.75422036461532115936279296875</LongitudeDegrees>
            </Position>
            <AltitudeMeters>937</AltitudeMeters>
            <DistanceMeters>NAN</DistanceMeters>
          </Trackpoint>
          <Trackpoint>
            <Time>2019-10-07T12:15:56.000Z</Time>
            <Position>
              <LatitudeDegrees>40.38841559551656246185302734375</LatitudeDegrees>
              <LongitudeDegrees>-5.75422036461532115936279296875</LongitudeDegrees>
            </Position>
            <AltitudeMeters>936.79998779296875</AltitudeMeters>
            <DistanceMeters>NAN</DistanceMeters>
          </Trackpoint>
          <Trackpoint>
            <Time>2019-10-07T12:16:01.000Z</Time>
            <Position>
              <LatitudeDegrees>40.38841559551656246185302734375</LatitudeDegrees>
              <LongitudeDegrees>-5.75422036461532115936279296875</LongitudeDegrees>
            </Position>
            <AltitudeMeters>937</AltitudeMeters>
            <DistanceMeters>NAN</DistanceMeters>
          </Trackpoint>
          <Trackpoint>
            <Time>2019-10-07T12:16:04.000Z</Time>
            <Position>
              <LatitudeDegrees>40.38841559551656246185302734375</LatitudeDegrees>
              <LongitudeDegrees>-5.75422036461532115936279296875</LongitudeDegrees>
            </Position>
            <AltitudeMeters>937</AltitudeMeters>
            <DistanceMeters>NAN</DistanceMeters>
          </Trackpoint>
          <Trackpoint>
            <Time>2019-10-07T12:16:07.000Z</Time>
            <Position>
              <LatitudeDegrees>40.38841559551656246185302734375</LatitudeDegrees>
              <LongitudeDegrees>-5.75422036461532115936279296875</LongitudeDegrees>
            </Position>
            <AltitudeMeters>937</AltitudeMeters>
            <DistanceMeters>NAN</DistanceMeters>
          </Trackpoint>
          <Trackpoint>
            <Time>2019-10-07T12:16:13.000Z</Time>
            <Position>
              <LatitudeDegrees>40.3884228877723217010498046875</LatitudeDegrees>
              <LongitudeDegrees>-5.754228495061397552490234375</LongitudeDegrees>
            </Position>
            <AltitudeMeters>937</AltitudeMeters>
            <DistanceMeters>NAN</DistanceMeters>
          </Trackpoint>
          <Trackpoint>
            <Time>2019-10-07T12:16:19.000Z</Time>
            <Position>
              <LatitudeDegrees>40.3884228877723217010498046875</LatitudeDegrees>
              <LongitudeDegrees>-5.754228495061397552490234375</LongitudeDegrees>
            </Position>
            <AltitudeMeters>936.79998779296875</AltitudeMeters>
            <DistanceMeters>NAN</DistanceMeters>
          </Trackpoint>
          <Trackpoint>
            <Time>2019-10-07T12:16:22.000Z</Time>
            <Position>
              <LatitudeDegrees>40.3884228877723217010498046875</LatitudeDegrees>
              <LongitudeDegrees>-5.754228495061397552490234375</LongitudeDegrees>
            </Position>
            <AltitudeMeters>936.79998779296875</AltitudeMeters>
            <DistanceMeters>NAN</DistanceMeters>
          </Trackpoint>
          <Trackpoint>
            <Time>2019-10-07T12:16:24.000Z</Time>
            <Position>
              <LatitudeDegrees>40.3884228877723217010498046875</LatitudeDegrees>
              <LongitudeDegrees>-5.754228495061397552490234375</LongitudeDegrees>
            </Position>
            <AltitudeMeters>936.79998779296875</AltitudeMeters>
            <DistanceMeters>NAN</DistanceMeters>
          </Trackpoint>
          <Trackpoint>
            <Time>2019-10-07T12:16:26.000Z</Time>
            <Position>
              <LatitudeDegrees>40.3884228877723217010498046875</LatitudeDegrees>
              <LongitudeDegrees>-5.754228495061397552490234375</LongitudeDegrees>
            </Position>
            <AltitudeMeters>936.79998779296875</AltitudeMeters>
            <DistanceMeters>NAN</DistanceMeters>
          </Trackpoint>
          <Trackpoint>
            <Time>2019-10-07T12:16:30.000Z</Time>
            <Position>
              <LatitudeDegrees>40.3884228877723217010498046875</LatitudeDegrees>
              <LongitudeDegrees>-5.754228495061397552490234375</LongitudeDegrees>
            </Position>
            <AltitudeMeters>936.79998779296875</AltitudeMeters>
            <DistanceMeters>NAN</DistanceMeters>
          </Trackpoint>
          <Trackpoint>
            <Time>2019-10-07T12:16:32.000Z</Time>
            <Position>
              <LatitudeDegrees>40.3884228877723217010498046875</LatitudeDegrees>
              <LongitudeDegrees>-5.754228495061397552490234375</LongitudeDegrees>
            </Position>
            <AltitudeMeters>936.79998779296875</AltitudeMeters>
            <DistanceMeters>NAN</DistanceMeters>
          </Trackpoint>
          <Trackpoint>
            <Time>2019-10-07T12:16:33.000Z</Time>
            <Position>
              <LatitudeDegrees>40.3884228877723217010498046875</LatitudeDegrees>
              <LongitudeDegrees>-5.754228495061397552490234375</LongitudeDegrees>
            </Position>
            <AltitudeMeters>936.79998779296875</AltitudeMeters>
            <DistanceMeters>NAN</DistanceMeters>
          </Trackpoint>
          <Trackpoint>
            <Time>2019-10-07T12:16:35.000Z</Time>
            <Position>
              <LatitudeDegrees>40.3884168528020381927490234375</LatitudeDegrees>
              <LongitudeDegrees>-5.75423092581331729888916015625</LongitudeDegrees>
            </Position>
            <AltitudeMeters>936.79998779296875</AltitudeMeters>
            <DistanceMeters>NAN</DistanceMeters>
          </Trackpoint>
          <Trackpoint>
            <Time>2019-10-07T12:16:36.000Z</Time>
            <Position>
              <LatitudeDegrees>40.38841073401272296905517578125</LatitudeDegrees>
              <LongitudeDegrees>-5.75425003655254840850830078125</LongitudeDegrees>
            </Position>
            <AltitudeMeters>936.5999755859375</AltitudeMeters>
            <DistanceMeters>NAN</DistanceMeters>
          </Trackpoint>
          <Trackpoint>
            <Time>2019-10-07T12:16:38.000Z</Time>
            <Position>
              <LatitudeDegrees>40.38838072679936885833740234375</LatitudeDegrees>
              <LongitudeDegrees>-5.7543154992163181304931640625</LongitudeDegrees>
            </Position>
            <AltitudeMeters>936.4000244140625</AltitudeMeters>
            <DistanceMeters>NAN</DistanceMeters>
          </Trackpoint>
          <Trackpoint>
            <Time>2019-10-07T12:16:39.000Z</Time>
            <Position>
              <LatitudeDegrees>40.38836228661239147186279296875</LatitudeDegrees>
              <LongitudeDegrees>-5.7543537206947803497314453125</LongitudeDegrees>
            </Position>
            <AltitudeMeters>936.20001220703125</AltitudeMeters>
            <DistanceMeters>NAN</DistanceMeters>
          </Trackpoint>
          <Trackpoint>
            <Time>2019-10-07T12:16:40.000Z</Time>
            <Position>
              <LatitudeDegrees>40.3883420862257480621337890625</LatitudeDegrees>
              <LongitudeDegrees>-5.75439269654452800750732421875</LongitudeDegrees>
            </Position>
            <AltitudeMeters>935.5999755859375</AltitudeMeters>
            <DistanceMeters>NAN</DistanceMeters>
          </Trackpoint>
          <Trackpoint>
            <Time>2019-10-07T12:16:42.000Z</Time>
            <Position>
              <LatitudeDegrees>40.3883065469563007354736328125</LatitudeDegrees>
              <LongitudeDegrees>-5.7544727437198162078857421875</LongitudeDegrees>
            </Position>
            <AltitudeMeters>935</AltitudeMeters>
            <DistanceMeters>NAN</DistanceMeters>
          </Trackpoint>
          <Trackpoint>
            <Time>2019-10-07T12:16:46.000Z</Time>
            <Position>
              <LatitudeDegrees>40.38822985254228115081787109375</LatitudeDegrees>
              <LongitudeDegrees>-5.7546527869999408721923828125</LongitudeDegrees>
            </Position>
            <AltitudeMeters>934</AltitudeMeters>
            <DistanceMeters>NAN</DistanceMeters>
          </Trackpoint>
          <Trackpoint>
            <Time>2019-10-07T12:16:47.000Z</Time>
            <Position>
              <LatitudeDegrees>40.38820520974695682525634765625</LatitudeDegrees>
              <LongitudeDegrees>-5.7547111250460147857666015625</LongitudeDegrees>
            </Position>
            <AltitudeMeters>933.5999755859375</AltitudeMeters>
            <DistanceMeters>NAN</DistanceMeters>
          </Trackpoint>
          <Trackpoint>
            <Time>2019-10-07T12:16:50.000Z</Time>
            <Position>
              <LatitudeDegrees>40.38811217062175273895263671875</LatitudeDegrees>
              <LongitudeDegrees>-5.7548931799829006195068359375</LongitudeDegrees>
            </Position>
            <AltitudeMeters>932.20001220703125</AltitudeMeters>
            <DistanceMeters>NAN</DistanceMeters>
          </Trackpoint>
          <Trackpoint>
            <Time>2019-10-07T12:16:51.000Z</Time>
            <Position>
              <LatitudeDegrees>40.38808098994195461273193359375</LatitudeDegrees>
              <LongitudeDegrees>-5.75495445169508457183837890625</LongitudeDegrees>
            </Position>
            <AltitudeMeters>931.79998779296875</AltitudeMeters>
            <DistanceMeters>NAN</DistanceMeters>
          </Trackpoint>
          <Trackpoint>
            <Time>2019-10-07T12:16:53.000Z</Time>
            <Position>
              <LatitudeDegrees>40.3880064748227596282958984375</LatitudeDegrees>
              <LongitudeDegrees>-5.7550862990319728851318359375</LongitudeDegrees>
            </Position>
            <AltitudeMeters>931</AltitudeMeters>
            <DistanceMeters>NAN</DistanceMeters>
          </Trackpoint>
          <Trackpoint>
            <Time>2019-10-07T12:16:55.000Z</Time>
            <Position>
              <LatitudeDegrees>40.38792894221842288970947265625</LatitudeDegrees>
              <LongitudeDegrees>-5.75523876585066318511962890625</LongitudeDegrees>
            </Position>
            <AltitudeMeters>929.4000244140625</AltitudeMeters>
            <DistanceMeters>NAN</DistanceMeters>
          </Trackpoint>
          <Trackpoint>
            <Time>2019-10-07T12:16:56.000Z</Time>
            <Position>
              <LatitudeDegrees>40.38788468576967716217041015625</LatitudeDegrees>
              <LongitudeDegrees>-5.75531906448304653167724609375</LongitudeDegrees>
            </Position>
            <AltitudeMeters>929</AltitudeMeters>
            <DistanceMeters>NAN</DistanceMeters>
          </Trackpoint>
          <Trackpoint>
            <Time>2019-10-07T12:16:57.000Z</Time>
            <Position>
              <LatitudeDegrees>40.3878465481102466583251953125</LatitudeDegrees>
              <LongitudeDegrees>-5.75540858320891857147216796875</LongitudeDegrees>
            </Position>
            <AltitudeMeters>929</AltitudeMeters>
            <DistanceMeters>NAN</DistanceMeters>
          </Trackpoint>
          <Trackpoint>
            <Time>2019-10-07T12:16:59.000Z</Time>
            <Position>
              <LatitudeDegrees>40.3877520002424716949462890625</LatitudeDegrees>
              <LongitudeDegrees>-5.75558669865131378173828125</LongitudeDegrees>
            </Position>
            <AltitudeMeters>928.4000244140625</AltitudeMeters>
            <DistanceMeters>NAN</DistanceMeters>
          </Trackpoint>
          <Trackpoint>
            <Time>2019-10-07T12:17:00.000Z</Time>
            <Position>
              <LatitudeDegrees>40.38770581595599651336669921875</LatitudeDegrees>
              <LongitudeDegrees>-5.7556726969778537750244140625</LongitudeDegrees>
            </Position>
            <AltitudeMeters>927.79998779296875</AltitudeMeters>
            <DistanceMeters>NAN</DistanceMeters>
          </Trackpoint>
          <Trackpoint>
            <Time>2019-10-07T12:17:01.000Z</Time>
            <Position>
              <LatitudeDegrees>40.38766474463045597076416015625</LatitudeDegrees>
              <LongitudeDegrees>-5.75575374998152256011962890625</LongitudeDegrees>
            </Position>
            <AltitudeMeters>927.4000244140625</AltitudeMeters>
            <DistanceMeters>NAN</DistanceMeters>
          </Trackpoint>
          <Trackpoint>
            <Time>2019-10-07T12:17:02.000Z</Time>
            <Position>
              <LatitudeDegrees>40.38762501440942287445068359375</LatitudeDegrees>
              <LongitudeDegrees>-5.75583689846098423004150390625</LongitudeDegrees>
            </Position>
            <AltitudeMeters>926.79998779296875</AltitudeMeters>
            <DistanceMeters>NAN</DistanceMeters>
          </Trackpoint>
          <Trackpoint>
            <Time>2019-10-07T12:17:05.000Z</Time>
            <Position>
              <LatitudeDegrees>40.3875035606324672698974609375</LatitudeDegrees>
              <LongitudeDegrees>-5.75610545463860034942626953125</LongitudeDegrees>
            </Position>
            <AltitudeMeters>926.20001220703125</AltitudeMeters>
            <DistanceMeters>NAN</DistanceMeters>
          </Trackpoint>
          <Trackpoint>
            <Time>2019-10-07T12:17:06.000Z</Time>
            <Position>
              <LatitudeDegrees>40.38746575824916362762451171875</LatitudeDegrees>
              <LongitudeDegrees>-5.75620017014443874359130859375</LongitudeDegrees>
            </Position>
            <AltitudeMeters>925.4000244140625</AltitudeMeters>
            <DistanceMeters>NAN</DistanceMeters>
          </Trackpoint>
          <Trackpoint>
            <Time>2019-10-07T12:17:07.000Z</Time>
            <Position>
              <LatitudeDegrees>40.38742301054298877716064453125</LatitudeDegrees>
              <LongitudeDegrees>-5.7562912814319133758544921875</LongitudeDegrees>
            </Position>
            <AltitudeMeters>924.79998779296875</AltitudeMeters>
            <DistanceMeters>NAN</DistanceMeters>
          </Trackpoint>
          <Trackpoint>
            <Time>2019-10-07T12:17:09.000Z</Time>
            <Position>
              <LatitudeDegrees>40.3873367607593536376953125</LatitudeDegrees>
              <LongitudeDegrees>-5.756455399096012115478515625</LongitudeDegrees>
            </Position>
            <AltitudeMeters>925.20001220703125</AltitudeMeters>
            <DistanceMeters>NAN</DistanceMeters>
          </Trackpoint>
          <Trackpoint>
            <Time>2019-10-07T12:17:11.000Z</Time>
            <Position>
              <LatitudeDegrees>40.3872752375900745391845703125</LatitudeDegrees>
              <LongitudeDegrees>-5.75660996139049530029296875</LongitudeDegrees>
            </Position>
            <AltitudeMeters>924.5999755859375</AltitudeMeters>
            <DistanceMeters>NAN</DistanceMeters>
          </Trackpoint>
          <Trackpoint>
            <Time>2019-10-07T12:17:13.000Z</Time>
            <Position>
              <LatitudeDegrees>40.38723575882613658905029296875</LatitudeDegrees>
              <LongitudeDegrees>-5.75675974600017070770263671875</LongitudeDegrees>
            </Position>
            <AltitudeMeters>924.5999755859375</AltitudeMeters>
            <DistanceMeters>NAN</DistanceMeters>
          </Trackpoint>
          <Trackpoint>
            <Time>2019-10-07T12:17:16.000Z</Time>
            <Position>
              <LatitudeDegrees>40.3871599026024341583251953125</LatitudeDegrees>
              <LongitudeDegrees>-5.7570047490298748016357421875</LongitudeDegrees>
            </Position>
            <AltitudeMeters>923.4000244140625</AltitudeMeters>
            <DistanceMeters>NAN</DistanceMeters>
          </Trackpoint>
          <Trackpoint>
            <Time>2019-10-07T12:17:17.000Z</Time>
            <Position>
              <LatitudeDegrees>40.387122519314289093017578125</LatitudeDegrees>
              <LongitudeDegrees>-5.7570894062519073486328125</LongitudeDegrees>
            </Position>
            <AltitudeMeters>922.4000244140625</AltitudeMeters>
            <DistanceMeters>NAN</DistanceMeters>
          </Trackpoint>
          <Trackpoint>
            <Time>2019-10-07T12:17:18.000Z</Time>
            <Position>
              <LatitudeDegrees>40.3870968706905841827392578125</LatitudeDegrees>
              <LongitudeDegrees>-5.75717984698712825775146484375</LongitudeDegrees>
            </Position>
            <AltitudeMeters>921.79998779296875</AltitudeMeters>
            <DistanceMeters>NAN</DistanceMeters>
          </Trackpoint>
          <Trackpoint>
            <Time>2019-10-07T12:17:19.000Z</Time>
            <Position>
              <LatitudeDegrees>40.38707398809492588043212890625</LatitudeDegrees>
              <LongitudeDegrees>-5.757276155054569244384765625</LongitudeDegrees>
            </Position>
            <AltitudeMeters>920.79998779296875</AltitudeMeters>
            <DistanceMeters>NAN</DistanceMeters>
          </Trackpoint>
          <Trackpoint>
            <Time>2019-10-07T12:17:20.000Z</Time>
            <Position>
              <LatitudeDegrees>40.38704984821379184722900390625</LatitudeDegrees>
              <LongitudeDegrees>-5.75737061910331249237060546875</LongitudeDegrees>
            </Position>
            <AltitudeMeters>920</AltitudeMeters>
            <DistanceMeters>NAN</DistanceMeters>
          </Trackpoint>
          <Trackpoint>
            <Time>2019-10-07T12:17:21.000Z</Time>
            <Position>
              <LatitudeDegrees>40.3870314918458461761474609375</LatitudeDegrees>
              <LongitudeDegrees>-5.7574664242565631866455078125</LongitudeDegrees>
            </Position>
            <AltitudeMeters>919.4000244140625</AltitudeMeters>
            <DistanceMeters>NAN</DistanceMeters>
          </Trackpoint>
          <Trackpoint>
            <Time>2019-10-07T12:17:24.000Z</Time>
            <Position>
              <LatitudeDegrees>40.3869822062551975250244140625</LatitudeDegrees>
              <LongitudeDegrees>-5.757754258811473846435546875</LongitudeDegrees>
            </Position>
            <AltitudeMeters>918.5999755859375</AltitudeMeters>
            <DistanceMeters>NAN</DistanceMeters>
          </Trackpoint>
          <Trackpoint>
            <Time>2019-10-07T12:17:25.000Z</Time>
            <Position>
              <LatitudeDegrees>40.3869691304862499237060546875</LatitudeDegrees>
              <LongitudeDegrees>-5.7578489743173122406005859375</LongitudeDegrees>
            </Position>
            <AltitudeMeters>918.20001220703125</AltitudeMeters>
            <DistanceMeters>NAN</DistanceMeters>
          </Trackpoint>
          <Trackpoint>
            <Time>2019-10-07T12:17:26.000Z</Time>
            <Position>
              <LatitudeDegrees>40.386958234012126922607421875</LatitudeDegrees>
              <LongitudeDegrees>-5.7579301111400127410888671875</LongitudeDegrees>
            </Position>
            <AltitudeMeters>918.20001220703125</AltitudeMeters>
            <DistanceMeters>NAN</DistanceMeters>
          </Trackpoint>
          <Trackpoint>
            <Time>2019-10-07T12:17:28.000Z</Time>
            <Position>
              <LatitudeDegrees>40.3869325853884220123291015625</LatitudeDegrees>
              <LongitudeDegrees>-5.75810319744050502777099609375</LongitudeDegrees>
            </Position>
            <AltitudeMeters>917.20001220703125</AltitudeMeters>
            <DistanceMeters>NAN</DistanceMeters>
          </Trackpoint>
          <Trackpoint>
            <Time>2019-10-07T12:17:29.000Z</Time>
            <Position>
              <LatitudeDegrees>40.38692696951329708099365234375</LatitudeDegrees>
              <LongitudeDegrees>-5.7581835798919200897216796875</LongitudeDegrees>
            </Position>
            <AltitudeMeters>916.79998779296875</AltitudeMeters>
            <DistanceMeters>NAN</DistanceMeters>
          </Trackpoint>
          <Trackpoint>
            <Time>2019-10-07T12:17:31.000Z</Time>
            <Position>
              <LatitudeDegrees>40.38693317212164402008056640625</LatitudeDegrees>
              <LongitudeDegrees>-5.75836253352463245391845703125</LongitudeDegrees>
            </Position>
            <AltitudeMeters>916.20001220703125</AltitudeMeters>
            <DistanceMeters>NAN</DistanceMeters>
          </Trackpoint>
          <Trackpoint>
            <Time>2019-10-07T12:17:33.000Z</Time>
            <Position>
              <LatitudeDegrees>40.3869557194411754608154296875</LatitudeDegrees>
              <LongitudeDegrees>-5.75855649076402187347412109375</LongitudeDegrees>
            </Position>
            <AltitudeMeters>914.79998779296875</AltitudeMeters>
            <DistanceMeters>NAN</DistanceMeters>
          </Trackpoint>
          <Trackpoint>
            <Time>2019-10-07T12:17:34.000Z</Time>
            <Position>
              <LatitudeDegrees>40.38695664145052433013916015625</LatitudeDegrees>
              <LongitudeDegrees>-5.75865288265049457550048828125</LongitudeDegrees>
            </Position>
            <AltitudeMeters>914.79998779296875</AltitudeMeters>
            <DistanceMeters>NAN</DistanceMeters>
          </Trackpoint>
          <Trackpoint>
            <Time>2019-10-07T12:17:35.000Z</Time>
            <Position>
              <LatitudeDegrees>40.38694792427122592926025390625</LatitudeDegrees>
              <LongitudeDegrees>-5.75875279493629932403564453125</LongitudeDegrees>
            </Position>
            <AltitudeMeters>915</AltitudeMeters>
            <DistanceMeters>NAN</DistanceMeters>
          </Trackpoint>
          <Trackpoint>
            <Time>2019-10-07T12:17:37.000Z</Time>
            <Position>
              <LatitudeDegrees>40.38695010356605052947998046875</LatitudeDegrees>
              <LongitudeDegrees>-5.75893501751124858856201171875</LongitudeDegrees>
            </Position>
            <AltitudeMeters>913.5999755859375</AltitudeMeters>
            <DistanceMeters>NAN</DistanceMeters>
          </Trackpoint>
          <Trackpoint>
            <Time>2019-10-07T12:17:38.000Z</Time>
            <Position>
              <LatitudeDegrees>40.3869543783366680145263671875</LatitudeDegrees>
              <LongitudeDegrees>-5.75902462005615234375</LongitudeDegrees>
            </Position>
            <AltitudeMeters>912.79998779296875</AltitudeMeters>
            <DistanceMeters>NAN</DistanceMeters>
          </Trackpoint>
          <Trackpoint>
            <Time>2019-10-07T12:17:39.000Z</Time>
            <Position>
              <LatitudeDegrees>40.38695647381246089935302734375</LatitudeDegrees>
              <LongitudeDegrees>-5.7591198384761810302734375</LongitudeDegrees>
            </Position>
            <AltitudeMeters>912.5999755859375</AltitudeMeters>
            <DistanceMeters>NAN</DistanceMeters>
          </Trackpoint>
          <Trackpoint>
            <Time>2019-10-07T12:17:40.000Z</Time>
            <Position>
              <LatitudeDegrees>40.38695991039276123046875</LatitudeDegrees>
              <LongitudeDegrees>-5.75922100804746150970458984375</LongitudeDegrees>
            </Position>
            <AltitudeMeters>911.79998779296875</AltitudeMeters>
            <DistanceMeters>NAN</DistanceMeters>
          </Trackpoint>
          <Trackpoint>
            <Time>2019-10-07T12:17:41.000Z</Time>
            <Position>
              <LatitudeDegrees>40.3869647718966007232666015625</LatitudeDegrees>
              <LongitudeDegrees>-5.759325362741947174072265625</LongitudeDegrees>
            </Position>
            <AltitudeMeters>910.5999755859375</AltitudeMeters>
            <DistanceMeters>NAN</DistanceMeters>
          </Trackpoint>
          <Trackpoint>
            <Time>2019-10-07T12:17:43.000Z</Time>
            <Position>
              <LatitudeDegrees>40.38697357289493083953857421875</LatitudeDegrees>
              <LongitudeDegrees>-5.75947229750454425811767578125</LongitudeDegrees>
            </Position>
            <AltitudeMeters>910.5999755859375</AltitudeMeters>
            <DistanceMeters>NAN</DistanceMeters>
          </Trackpoint>
          <Trackpoint>
            <Time>2019-10-07T12:17:44.000Z</Time>
            <Position>
              <LatitudeDegrees>40.38697441108524799346923828125</LatitudeDegrees>
              <LongitudeDegrees>-5.7595141232013702392578125</LongitudeDegrees>
            </Position>
            <AltitudeMeters>911</AltitudeMeters>
            <DistanceMeters>NAN</DistanceMeters>
          </Trackpoint>
          <Trackpoint>
            <Time>2019-10-07T12:17:45.000Z</Time>
            <Position>
              <LatitudeDegrees>40.3869748301804065704345703125</LatitudeDegrees>
              <LongitudeDegrees>-5.75953801162540912628173828125</LongitudeDegrees>
            </Position>
            <AltitudeMeters>910.79998779296875</AltitudeMeters>
            <DistanceMeters>NAN</DistanceMeters>
          </Trackpoint>
          <Trackpoint>
            <Time>2019-10-07T12:17:46.000Z</Time>
            <Position>
              <LatitudeDegrees>40.38697675801813602447509765625</LatitudeDegrees>
              <LongitudeDegrees>-5.7595588825643062591552734375</LongitudeDegrees>
            </Position>
            <AltitudeMeters>911</AltitudeMeters>
            <DistanceMeters>NAN</DistanceMeters>
          </Trackpoint>
          <Trackpoint>
            <Time>2019-10-07T12:17:47.000Z</Time>
            <Position>
              <LatitudeDegrees>40.3869781829416751861572265625</LatitudeDegrees>
              <LongitudeDegrees>-5.75957589782774448394775390625</LongitudeDegrees>
            </Position>
            <AltitudeMeters>911.20001220703125</AltitudeMeters>
            <DistanceMeters>NAN</DistanceMeters>
          </Trackpoint>
          <Trackpoint>
            <Time>2019-10-07T12:17:49.000Z</Time>
            <Position>
              <LatitudeDegrees>40.38698094896972179412841796875</LatitudeDegrees>
              <LongitudeDegrees>-5.7596078328788280487060546875</LongitudeDegrees>
            </Position>
            <AltitudeMeters>911.20001220703125</AltitudeMeters>
            <DistanceMeters>NAN</DistanceMeters>
          </Trackpoint>
          <Trackpoint>
            <Time>2019-10-07T12:17:51.000Z</Time>
            <Position>
              <LatitudeDegrees>40.3869758360087871551513671875</LatitudeDegrees>
              <LongitudeDegrees>-5.75966172851622104644775390625</LongitudeDegrees>
            </Position>
            <AltitudeMeters>910.79998779296875</AltitudeMeters>
            <DistanceMeters>NAN</DistanceMeters>
          </Trackpoint>
          <Trackpoint>
            <Time>2019-10-07T12:17:52.000Z</Time>
            <Position>
              <LatitudeDegrees>40.38696083240211009979248046875</LatitudeDegrees>
              <LongitudeDegrees>-5.75969374738633632659912109375</LongitudeDegrees>
            </Position>
            <AltitudeMeters>910.5999755859375</AltitudeMeters>
            <DistanceMeters>NAN</DistanceMeters>
          </Trackpoint>
          <Trackpoint>
            <Time>2019-10-07T12:17:53.000Z</Time>
            <Position>
              <LatitudeDegrees>40.38693778216838836669921875</LatitudeDegrees>
              <LongitudeDegrees>-5.7597178034484386444091796875</LongitudeDegrees>
            </Position>
            <AltitudeMeters>910.5999755859375</AltitudeMeters>
            <DistanceMeters>NAN</DistanceMeters>
          </Trackpoint>
          <Trackpoint>
            <Time>2019-10-07T12:17:56.000Z</Time>
            <Position>
              <LatitudeDegrees>40.38684013299643993377685546875</LatitudeDegrees>
              <LongitudeDegrees>-5.75976348482072353363037109375</LongitudeDegrees>
            </Position>
            <AltitudeMeters>909.5999755859375</AltitudeMeters>
            <DistanceMeters>NAN</DistanceMeters>
          </Trackpoint>
          <Trackpoint>
            <Time>2019-10-07T12:17:57.000Z</Time>
            <Position>
              <LatitudeDegrees>40.38680409081280231475830078125</LatitudeDegrees>
              <LongitudeDegrees>-5.75978293083608150482177734375</LongitudeDegrees>
            </Position>
            <AltitudeMeters>909.79998779296875</AltitudeMeters>
            <DistanceMeters>NAN</DistanceMeters>
          </Trackpoint>
          <Trackpoint>
            <Time>2019-10-07T12:18:01.000Z</Time>
            <Position>
              <LatitudeDegrees>40.3866519592702388763427734375</LatitudeDegrees>
              <LongitudeDegrees>-5.75986507348716259002685546875</LongitudeDegrees>
            </Position>
            <AltitudeMeters>909.5999755859375</AltitudeMeters>
            <DistanceMeters>NAN</DistanceMeters>
          </Trackpoint>
          <Trackpoint>
            <Time>2019-10-07T12:18:03.000Z</Time>
            <Position>
              <LatitudeDegrees>40.38657107390463352203369140625</LatitudeDegrees>
              <LongitudeDegrees>-5.7599075697362422943115234375</LongitudeDegrees>
            </Position>
            <AltitudeMeters>909.4000244140625</AltitudeMeters>
            <DistanceMeters>NAN</DistanceMeters>
          </Trackpoint>
          <Trackpoint>
            <Time>2019-10-07T12:18:04.000Z</Time>
            <Position>
              <LatitudeDegrees>40.3865332715213298797607421875</LatitudeDegrees>
              <LongitudeDegrees>-5.75993481092154979705810546875</LongitudeDegrees>
            </Position>
            <AltitudeMeters>909</AltitudeMeters>
            <DistanceMeters>NAN</DistanceMeters>
          </Trackpoint>
          <Trackpoint>
            <Time>2019-10-07T12:18:06.000Z</Time>
            <Position>
              <LatitudeDegrees>40.38647267036139965057373046875</LatitudeDegrees>
              <LongitudeDegrees>-5.76000639237463474273681640625</LongitudeDegrees>
            </Position>
            <AltitudeMeters>909.5999755859375</AltitudeMeters>
            <DistanceMeters>NAN</DistanceMeters>
          </Trackpoint>
          <Trackpoint>
            <Time>2019-10-07T12:18:08.000Z</Time>
            <Position>
              <LatitudeDegrees>40.38643763400614261627197265625</LatitudeDegrees>
              <LongitudeDegrees>-5.7601114176213741302490234375</LongitudeDegrees>
            </Position>
            <AltitudeMeters>909.79998779296875</AltitudeMeters>
            <DistanceMeters>NAN</DistanceMeters>
          </Trackpoint>
          <Trackpoint>
            <Time>2019-10-07T12:18:11.000Z</Time>
            <Position>
              <LatitudeDegrees>40.386409051716327667236328125</LatitudeDegrees>
              <LongitudeDegrees>-5.76026589609682559967041015625</LongitudeDegrees>
            </Position>
            <AltitudeMeters>909.5999755859375</AltitudeMeters>
            <DistanceMeters>NAN</DistanceMeters>
          </Trackpoint>
          <Trackpoint>
            <Time>2019-10-07T12:18:13.000Z</Time>
            <Position>
              <LatitudeDegrees>40.386392958462238311767578125</LatitudeDegrees>
              <LongitudeDegrees>-5.76035859994590282440185546875</LongitudeDegrees>
            </Position>
            <AltitudeMeters>910</AltitudeMeters>
            <DistanceMeters>NAN</DistanceMeters>
          </Trackpoint>
          <Trackpoint>
            <Time>2019-10-07T12:18:16.000Z</Time>
            <Position>
              <LatitudeDegrees>40.38639019243419170379638671875</LatitudeDegrees>
              <LongitudeDegrees>-5.76047108508646488189697265625</LongitudeDegrees>
            </Position>
            <AltitudeMeters>911</AltitudeMeters>
            <DistanceMeters>NAN</DistanceMeters>
          </Trackpoint>
          <Trackpoint>
            <Time>2019-10-07T12:18:18.000Z</Time>
            <Position>
              <LatitudeDegrees>40.386394299566745758056640625</LatitudeDegrees>
              <LongitudeDegrees>-5.760523639619350433349609375</LongitudeDegrees>
            </Position>
            <AltitudeMeters>911.4000244140625</AltitudeMeters>
            <DistanceMeters>NAN</DistanceMeters>
          </Trackpoint>
          <Trackpoint>
            <Time>2019-10-07T12:18:20.000Z</Time>
            <Position>
              <LatitudeDegrees>40.38639455102384090423583984375</LatitudeDegrees>
              <LongitudeDegrees>-5.7605637051165103912353515625</LongitudeDegrees>
            </Position>
            <AltitudeMeters>912.20001220703125</AltitudeMeters>
            <DistanceMeters>NAN</DistanceMeters>
          </Trackpoint>
          <Trackpoint>
            <Time>2019-10-07T12:18:23.000Z</Time>
            <Position>
              <LatitudeDegrees>40.38639823906123638153076171875</LatitudeDegrees>
              <LongitudeDegrees>-5.76064039953052997589111328125</LongitudeDegrees>
            </Position>
            <AltitudeMeters>913</AltitudeMeters>
            <DistanceMeters>NAN</DistanceMeters>
          </Trackpoint>
          <Trackpoint>
            <Time>2019-10-07T12:18:24.000Z</Time>
            <Position>
              <LatitudeDegrees>40.38640192709863185882568359375</LatitudeDegrees>
              <LongitudeDegrees>-5.760664455592632293701171875</LongitudeDegrees>
            </Position>
            <AltitudeMeters>913.4000244140625</AltitudeMeters>
            <DistanceMeters>NAN</DistanceMeters>
          </Trackpoint>
          <Trackpoint>
            <Time>2019-10-07T12:18:25.000Z</Time>
            <Position>
              <LatitudeDegrees>40.38639840669929981231689453125</LatitudeDegrees>
              <LongitudeDegrees>-5.76069362461566925048828125</LongitudeDegrees>
            </Position>
            <AltitudeMeters>913.4000244140625</AltitudeMeters>
            <DistanceMeters>NAN</DistanceMeters>
          </Trackpoint>
          <Trackpoint>
            <Time>2019-10-07T12:18:28.000Z</Time>
            <Position>
              <LatitudeDegrees>40.386406369507312774658203125</LatitudeDegrees>
              <LongitudeDegrees>-5.76077450998127460479736328125</LongitudeDegrees>
            </Position>
            <AltitudeMeters>914.5999755859375</AltitudeMeters>
            <DistanceMeters>NAN</DistanceMeters>
          </Trackpoint>
          <Trackpoint>
            <Time>2019-10-07T12:18:31.000Z</Time>
            <Position>
              <LatitudeDegrees>40.3863964788615703582763671875</LatitudeDegrees>
              <LongitudeDegrees>-5.7608590833842754364013671875</LongitudeDegrees>
            </Position>
            <AltitudeMeters>915.20001220703125</AltitudeMeters>
            <DistanceMeters>NAN</DistanceMeters>
          </Trackpoint>
          <Trackpoint>
            <Time>2019-10-07T12:18:32.000Z</Time>
            <Position>
              <LatitudeDegrees>40.3864028491079807281494140625</LatitudeDegrees>
              <LongitudeDegrees>-5.7608847320079803466796875</LongitudeDegrees>
            </Position>
            <AltitudeMeters>915.4000244140625</AltitudeMeters>
            <DistanceMeters>NAN</DistanceMeters>
          </Trackpoint>
          <Trackpoint>
            <Time>2019-10-07T12:18:33.000Z</Time>
            <Position>
              <LatitudeDegrees>40.38640595041215419769287109375</LatitudeDegrees>
              <LongitudeDegrees>-5.760911889374256134033203125</LongitudeDegrees>
            </Position>
            <AltitudeMeters>915.5999755859375</AltitudeMeters>
            <DistanceMeters>NAN</DistanceMeters>
          </Trackpoint>
          <Trackpoint>
            <Time>2019-10-07T12:18:34.000Z</Time>
            <Position>
              <LatitudeDegrees>40.38639253936707973480224609375</LatitudeDegrees>
              <LongitudeDegrees>-5.76095690019428730010986328125</LongitudeDegrees>
            </Position>
            <AltitudeMeters>916.20001220703125</AltitudeMeters>
            <DistanceMeters>NAN</DistanceMeters>
          </Trackpoint>
          <Trackpoint>
            <Time>2019-10-07T12:18:36.000Z</Time>
            <Position>
              <LatitudeDegrees>40.386366806924343109130859375</LatitudeDegrees>
              <LongitudeDegrees>-5.761056728661060333251953125</LongitudeDegrees>
            </Position>
            <AltitudeMeters>916.20001220703125</AltitudeMeters>
            <DistanceMeters>NAN</DistanceMeters>
          </Trackpoint>
          <Trackpoint>
            <Time>2019-10-07T12:18:40.000Z</Time>
            <Position>
              <LatitudeDegrees>40.386323891580104827880859375</LatitudeDegrees>
              <LongitudeDegrees>-5.76122512109577655792236328125</LongitudeDegrees>
            </Position>
            <AltitudeMeters>916.79998779296875</AltitudeMeters>
            <DistanceMeters>NAN</DistanceMeters>
          </Trackpoint>
          <Trackpoint>
            <Time>2019-10-07T12:18:42.000Z</Time>
            <Position>
              <LatitudeDegrees>40.38630654104053974151611328125</LatitudeDegrees>
              <LongitudeDegrees>-5.76130240224301815032958984375</LongitudeDegrees>
            </Position>
            <AltitudeMeters>917.20001220703125</AltitudeMeters>
            <DistanceMeters>NAN</DistanceMeters>
          </Trackpoint>
          <Trackpoint>
            <Time>2019-10-07T12:18:43.000Z</Time>
            <Position>
              <LatitudeDegrees>40.38629245944321155548095703125</LatitudeDegrees>
              <LongitudeDegrees>-5.7613395340740680694580078125</LongitudeDegrees>
            </Position>
            <AltitudeMeters>917.5999755859375</AltitudeMeters>
            <DistanceMeters>NAN</DistanceMeters>
          </Trackpoint>
          <Trackpoint>
            <Time>2019-10-07T12:18:46.000Z</Time>
            <Position>
              <LatitudeDegrees>40.38626580499112606048583984375</LatitudeDegrees>
              <LongitudeDegrees>-5.761463753879070281982421875</LongitudeDegrees>
            </Position>
            <AltitudeMeters>918.4000244140625</AltitudeMeters>
            <DistanceMeters>NAN</DistanceMeters>
          </Trackpoint>
          <Trackpoint>
            <Time>2019-10-07T12:18:48.000Z</Time>
            <Position>
              <LatitudeDegrees>40.38625457324087619781494140625</LatitudeDegrees>
              <LongitudeDegrees>-5.7615370117127895355224609375</LongitudeDegrees>
            </Position>
            <AltitudeMeters>918.5999755859375</AltitudeMeters>
            <DistanceMeters>NAN</DistanceMeters>
          </Trackpoint>
          <Trackpoint>
            <Time>2019-10-07T12:18:51.000Z</Time>
            <Position>
              <LatitudeDegrees>40.38623529486358165740966796875</LatitudeDegrees>
              <LongitudeDegrees>-5.76167774386703968048095703125</LongitudeDegrees>
            </Position>
            <AltitudeMeters>919.20001220703125</AltitudeMeters>
            <DistanceMeters>NAN</DistanceMeters>
          </Trackpoint>
          <Trackpoint>
            <Time>2019-10-07T12:18:54.000Z</Time>
            <Position>
              <LatitudeDegrees>40.38620822131633758544921875</LatitudeDegrees>
              <LongitudeDegrees>-5.76180263422429561614990234375</LongitudeDegrees>
            </Position>
            <AltitudeMeters>919.5999755859375</AltitudeMeters>
            <DistanceMeters>NAN</DistanceMeters>
          </Trackpoint>
          <Trackpoint>
            <Time>2019-10-07T12:18:57.000Z</Time>
            <Position>
              <LatitudeDegrees>40.386176370084285736083984375</LatitudeDegrees>
              <LongitudeDegrees>-5.76192970387637615203857421875</LongitudeDegrees>
            </Position>
            <AltitudeMeters>920.4000244140625</AltitudeMeters>
            <DistanceMeters>NAN</DistanceMeters>
          </Trackpoint>
          <Trackpoint>
            <Time>2019-10-07T12:18:59.000Z</Time>
            <Position>
              <LatitudeDegrees>40.38615181110799312591552734375</LatitudeDegrees>
              <LongitudeDegrees>-5.762014277279376983642578125</LongitudeDegrees>
            </Position>
            <AltitudeMeters>920.79998779296875</AltitudeMeters>
            <DistanceMeters>NAN</DistanceMeters>
          </Trackpoint>
          <Trackpoint>
            <Time>2019-10-07T12:19:04.000Z</Time>
            <Position>
              <LatitudeDegrees>40.38609297014772891998291015625</LatitudeDegrees>
              <LongitudeDegrees>-5.76221837662160396575927734375</LongitudeDegrees>
            </Position>
            <AltitudeMeters>922</AltitudeMeters>
            <DistanceMeters>NAN</DistanceMeters>
          </Trackpoint>
          <Trackpoint>
            <Time>2019-10-07T12:19:09.000Z</Time>
            <Position>
              <LatitudeDegrees>40.3860762901604175567626953125</LatitudeDegrees>
              <LongitudeDegrees>-5.76236371882259845733642578125</LongitudeDegrees>
            </Position>
            <AltitudeMeters>923</AltitudeMeters>
            <DistanceMeters>NAN</DistanceMeters>
          </Trackpoint>
          <Trackpoint>
            <Time>2019-10-07T12:19:10.000Z</Time>
            <Position>
              <LatitudeDegrees>40.38606715388596057891845703125</LatitudeDegrees>
              <LongitudeDegrees>-5.7624040357768535614013671875</LongitudeDegrees>
            </Position>
            <AltitudeMeters>923.4000244140625</AltitudeMeters>
            <DistanceMeters>NAN</DistanceMeters>
          </Trackpoint>
          <Trackpoint>
            <Time>2019-10-07T12:19:14.000Z</Time>
            <Position>
              <LatitudeDegrees>40.386040918529033660888671875</LatitudeDegrees>
              <LongitudeDegrees>-5.762537308037281036376953125</LongitudeDegrees>
            </Position>
            <AltitudeMeters>924.4000244140625</AltitudeMeters>
            <DistanceMeters>NAN</DistanceMeters>
          </Trackpoint>
          <Trackpoint>
            <Time>2019-10-07T12:19:15.000Z</Time>
            <Position>
              <LatitudeDegrees>40.386032871901988983154296875</LatitudeDegrees>
              <LongitudeDegrees>-5.7625606097280979156494140625</LongitudeDegrees>
            </Position>
            <AltitudeMeters>924.79998779296875</AltitudeMeters>
            <DistanceMeters>NAN</DistanceMeters>
          </Trackpoint>
          <Trackpoint>
            <Time>2019-10-07T12:19:16.000Z</Time>
            <Position>
              <LatitudeDegrees>40.386021472513675689697265625</LatitudeDegrees>
              <LongitudeDegrees>-5.76258852146565914154052734375</LongitudeDegrees>
            </Position>
            <AltitudeMeters>925.20001220703125</AltitudeMeters>
            <DistanceMeters>NAN</DistanceMeters>
          </Trackpoint>
          <Trackpoint>
            <Time>2019-10-07T12:19:19.000Z</Time>
            <Position>
              <LatitudeDegrees>40.38599540479481220245361328125</LatitudeDegrees>
              <LongitudeDegrees>-5.7626630365848541259765625</LongitudeDegrees>
            </Position>
            <AltitudeMeters>925.79998779296875</AltitudeMeters>
            <DistanceMeters>NAN</DistanceMeters>
          </Trackpoint>
          <Trackpoint>
            <Time>2019-10-07T12:19:23.000Z</Time>
            <Position>
              <LatitudeDegrees>40.3859753720462322235107421875</LatitudeDegrees>
              <LongitudeDegrees>-5.762828998267650604248046875</LongitudeDegrees>
            </Position>
            <AltitudeMeters>926.20001220703125</AltitudeMeters>
            <DistanceMeters>NAN</DistanceMeters>
          </Trackpoint>
          <Trackpoint>
            <Time>2019-10-07T12:19:27.000Z</Time>
            <Position>
              <LatitudeDegrees>40.38597025908529758453369140625</LatitudeDegrees>
              <LongitudeDegrees>-5.7629642821848392486572265625</LongitudeDegrees>
            </Position>
            <AltitudeMeters>927</AltitudeMeters>
            <DistanceMeters>NAN</DistanceMeters>
          </Trackpoint>
          <Trackpoint>
            <Time>2019-10-07T12:19:29.000Z</Time>
            <Position>
              <LatitudeDegrees>40.38596891798079013824462890625</LatitudeDegrees>
              <LongitudeDegrees>-5.7630196027457714080810546875</LongitudeDegrees>
            </Position>
            <AltitudeMeters>927.5999755859375</AltitudeMeters>
            <DistanceMeters>NAN</DistanceMeters>
          </Trackpoint>
          <Trackpoint>
            <Time>2019-10-07T12:19:31.000Z</Time>
            <Position>
              <LatitudeDegrees>40.38596070371568202972412109375</LatitudeDegrees>
              <LongitudeDegrees>-5.76308037154376506805419921875</LongitudeDegrees>
            </Position>
            <AltitudeMeters>928</AltitudeMeters>
            <DistanceMeters>NAN</DistanceMeters>
          </Trackpoint>
          <Trackpoint>
            <Time>2019-10-07T12:19:35.000Z</Time>
            <Position>
              <LatitudeDegrees>40.38595852442085742950439453125</LatitudeDegrees>
              <LongitudeDegrees>-5.76320492662489414215087890625</LongitudeDegrees>
            </Position>
            <AltitudeMeters>928.5999755859375</AltitudeMeters>
            <DistanceMeters>NAN</DistanceMeters>
          </Trackpoint>
          <Trackpoint>
            <Time>2019-10-07T12:19:37.000Z</Time>
            <Position>
              <LatitudeDegrees>40.3859502263367176055908203125</LatitudeDegrees>
              <LongitudeDegrees>-5.7632625102996826171875</LongitudeDegrees>
            </Position>
            <AltitudeMeters>929.20001220703125</AltitudeMeters>
            <DistanceMeters>NAN</DistanceMeters>
          </Trackpoint>
          <Trackpoint>
            <Time>2019-10-07T12:19:43.000Z</Time>
            <Position>
              <LatitudeDegrees>40.38592449389398097991943359375</LatitudeDegrees>
              <LongitudeDegrees>-5.76344816945493221282958984375</LongitudeDegrees>
            </Position>
            <AltitudeMeters>930</AltitudeMeters>
            <DistanceMeters>NAN</DistanceMeters>
          </Trackpoint>
          <Trackpoint>
            <Time>2019-10-07T12:19:44.000Z</Time>
            <Position>
              <LatitudeDegrees>40.3859301097691059112548828125</LatitudeDegrees>
              <LongitudeDegrees>-5.7634796015918254852294921875</LongitudeDegrees>
            </Position>
            <AltitudeMeters>930.20001220703125</AltitudeMeters>
            <DistanceMeters>NAN</DistanceMeters>
          </Trackpoint>
          <Trackpoint>
            <Time>2019-10-07T12:19:45.000Z</Time>
            <Position>
              <LatitudeDegrees>40.385931618511676788330078125</LatitudeDegrees>
              <LongitudeDegrees>-5.76351136900484561920166015625</LongitudeDegrees>
            </Position>
            <AltitudeMeters>930.4000244140625</AltitudeMeters>
            <DistanceMeters>NAN</DistanceMeters>
          </Trackpoint>
          <Trackpoint>
            <Time>2019-10-07T12:19:47.000Z</Time>
            <Position>
              <LatitudeDegrees>40.38593103177845478057861328125</LatitudeDegrees>
              <LongitudeDegrees>-5.763567276298999786376953125</LongitudeDegrees>
            </Position>
            <AltitudeMeters>931</AltitudeMeters>
            <DistanceMeters>NAN</DistanceMeters>
          </Trackpoint>
          <Trackpoint>
            <Time>2019-10-07T12:19:49.000Z</Time>
            <Position>
              <LatitudeDegrees>40.38593622855842113494873046875</LatitudeDegrees>
              <LongitudeDegrees>-5.7636227644979953765869140625</LongitudeDegrees>
            </Position>
            <AltitudeMeters>931.5999755859375</AltitudeMeters>
            <DistanceMeters>NAN</DistanceMeters>
          </Trackpoint>
          <Trackpoint>
            <Time>2019-10-07T12:19:51.000Z</Time>
            <Position>
              <LatitudeDegrees>40.3859301097691059112548828125</LatitudeDegrees>
              <LongitudeDegrees>-5.76367833651602268218994140625</LongitudeDegrees>
            </Position>
            <AltitudeMeters>931.79998779296875</AltitudeMeters>
            <DistanceMeters>NAN</DistanceMeters>
          </Trackpoint>
          <Trackpoint>
            <Time>2019-10-07T12:19:52.000Z</Time>
            <Position>
              <LatitudeDegrees>40.3859264217317104339599609375</LatitudeDegrees>
              <LongitudeDegrees>-5.76370750553905963897705078125</LongitudeDegrees>
            </Position>
            <AltitudeMeters>931.79998779296875</AltitudeMeters>
            <DistanceMeters>NAN</DistanceMeters>
          </Trackpoint>
          <Trackpoint>
            <Time>2019-10-07T12:19:54.000Z</Time>
            <Position>
              <LatitudeDegrees>40.38592315278947353363037109375</LatitudeDegrees>
              <LongitudeDegrees>-5.7637632451951503753662109375</LongitudeDegrees>
            </Position>
            <AltitudeMeters>932</AltitudeMeters>
            <DistanceMeters>NAN</DistanceMeters>
          </Trackpoint>
          <Trackpoint>
            <Time>2019-10-07T12:19:56.000Z</Time>
            <Position>
              <LatitudeDegrees>40.3859371505677700042724609375</LatitudeDegrees>
              <LongitudeDegrees>-5.763825438916683197021484375</LongitudeDegrees>
            </Position>
            <AltitudeMeters>932.20001220703125</AltitudeMeters>
            <DistanceMeters>NAN</DistanceMeters>
          </Trackpoint>
          <Trackpoint>
            <Time>2019-10-07T12:19:58.000Z</Time>
            <Position>
              <LatitudeDegrees>40.38593807257711887359619140625</LatitudeDegrees>
              <LongitudeDegrees>-5.76389090158045291900634765625</LongitudeDegrees>
            </Position>
            <AltitudeMeters>932.4000244140625</AltitudeMeters>
            <DistanceMeters>NAN</DistanceMeters>
          </Trackpoint>
          <Trackpoint>
            <Time>2019-10-07T12:20:02.000Z</Time>
            <Position>
              <LatitudeDegrees>40.38593924604356288909912109375</LatitudeDegrees>
              <LongitudeDegrees>-5.76400883495807647705078125</LongitudeDegrees>
            </Position>
            <AltitudeMeters>932.5999755859375</AltitudeMeters>
            <DistanceMeters>NAN</DistanceMeters>
          </Trackpoint>
          <Trackpoint>
            <Time>2019-10-07T12:20:07.000Z</Time>
            <Position>
              <LatitudeDegrees>40.3859659843146800994873046875</LatitudeDegrees>
              <LongitudeDegrees>-5.76416381634771823883056640625</LongitudeDegrees>
            </Position>
            <AltitudeMeters>933.5999755859375</AltitudeMeters>
            <DistanceMeters>NAN</DistanceMeters>
          </Trackpoint>
          <Trackpoint>
            <Time>2019-10-07T12:20:10.000Z</Time>
            <Position>
              <LatitudeDegrees>40.38597352802753448486328125</LatitudeDegrees>
              <LongitudeDegrees>-5.764250569045543670654296875</LongitudeDegrees>
            </Position>
            <AltitudeMeters>934</AltitudeMeters>
            <DistanceMeters>NAN</DistanceMeters>
          </Trackpoint>
          <Trackpoint>
            <Time>2019-10-07T12:20:17.000Z</Time>
            <Position>
              <LatitudeDegrees>40.38598023355007171630859375</LatitudeDegrees>
              <LongitudeDegrees>-5.76447696425020694732666015625</LongitudeDegrees>
            </Position>
            <AltitudeMeters>934</AltitudeMeters>
            <DistanceMeters>NAN</DistanceMeters>
          </Trackpoint>
          <Trackpoint>
            <Time>2019-10-07T12:20:23.000Z</Time>
            <Position>
              <LatitudeDegrees>40.3860276751220226287841796875</LatitudeDegrees>
              <LongitudeDegrees>-5.76465524733066558837890625</LongitudeDegrees>
            </Position>
            <AltitudeMeters>934.5999755859375</AltitudeMeters>
            <DistanceMeters>NAN</DistanceMeters>
          </Trackpoint>
          <Trackpoint>
            <Time>2019-10-07T12:20:24.000Z</Time>
            <Position>
              <LatitudeDegrees>40.3860293515026569366455078125</LatitudeDegrees>
              <LongitudeDegrees>-5.7646881043910980224609375</LongitudeDegrees>
            </Position>
            <AltitudeMeters>934.5999755859375</AltitudeMeters>
            <DistanceMeters>NAN</DistanceMeters>
          </Trackpoint>
          <Trackpoint>
            <Time>2019-10-07T12:20:28.000Z</Time>
            <Position>
              <LatitudeDegrees>40.38598367013037204742431640625</LatitudeDegrees>
              <LongitudeDegrees>-5.7648210413753986358642578125</LongitudeDegrees>
            </Position>
            <AltitudeMeters>935.4000244140625</AltitudeMeters>
            <DistanceMeters>NAN</DistanceMeters>
          </Trackpoint>
          <Trackpoint>
            <Time>2019-10-07T12:20:30.000Z</Time>
            <Position>
              <LatitudeDegrees>40.38597621023654937744140625</LatitudeDegrees>
              <LongitudeDegrees>-5.764870829880237579345703125</LongitudeDegrees>
            </Position>
            <AltitudeMeters>935.4000244140625</AltitudeMeters>
            <DistanceMeters>NAN</DistanceMeters>
          </Trackpoint>
          <Trackpoint>
            <Time>2019-10-07T12:20:31.000Z</Time>
            <Position>
              <LatitudeDegrees>40.3859706781804561614990234375</LatitudeDegrees>
              <LongitudeDegrees>-5.764894299209117889404296875</LongitudeDegrees>
            </Position>
            <AltitudeMeters>935.79998779296875</AltitudeMeters>
            <DistanceMeters>NAN</DistanceMeters>
          </Trackpoint>
          <Trackpoint>
            <Time>2019-10-07T12:20:33.000Z</Time>
            <Position>
              <LatitudeDegrees>40.38596757687628269195556640625</LatitudeDegrees>
              <LongitudeDegrees>-5.76494132168591022491455078125</LongitudeDegrees>
            </Position>
            <AltitudeMeters>936.4000244140625</AltitudeMeters>
            <DistanceMeters>NAN</DistanceMeters>
          </Trackpoint>
          <Trackpoint>
            <Time>2019-10-07T12:20:34.000Z</Time>
            <Position>
              <LatitudeDegrees>40.385969839990139007568359375</LatitudeDegrees>
              <LongitudeDegrees>-5.76496110297739505767822265625</LongitudeDegrees>
            </Position>
            <AltitudeMeters>937</AltitudeMeters>
            <DistanceMeters>NAN</DistanceMeters>
          </Trackpoint>
          <Trackpoint>
            <Time>2019-10-07T12:20:39.000Z</Time>
            <Position>
              <LatitudeDegrees>40.38599976338446140289306640625</LatitudeDegrees>
              <LongitudeDegrees>-5.76504861004650592803955078125</LongitudeDegrees>
            </Position>
            <AltitudeMeters>938.20001220703125</AltitudeMeters>
            <DistanceMeters>NAN</DistanceMeters>
          </Trackpoint>
          <Trackpoint>
            <Time>2019-10-07T12:20:43.000Z</Time>
            <Position>
              <LatitudeDegrees>40.38605424575507640838623046875</LatitudeDegrees>
              <LongitudeDegrees>-5.76514718122780323028564453125</LongitudeDegrees>
            </Position>
            <AltitudeMeters>939.4000244140625</AltitudeMeters>
            <DistanceMeters>NAN</DistanceMeters>
          </Trackpoint>
          <Trackpoint>
            <Time>2019-10-07T12:20:48.000Z</Time>
            <Position>
              <LatitudeDegrees>40.38612884469330310821533203125</LatitudeDegrees>
              <LongitudeDegrees>-5.76525815762579441070556640625</LongitudeDegrees>
            </Position>
            <AltitudeMeters>940.20001220703125</AltitudeMeters>
            <DistanceMeters>NAN</DistanceMeters>
          </Trackpoint>
          <Trackpoint>
            <Time>2019-10-07T12:20:49.000Z</Time>
            <Position>
              <LatitudeDegrees>40.38613940589129924774169921875</LatitudeDegrees>
              <LongitudeDegrees>-5.76528212986886501312255859375</LongitudeDegrees>
            </Position>
            <AltitudeMeters>940.4000244140625</AltitudeMeters>
            <DistanceMeters>NAN</DistanceMeters>
          </Trackpoint>
          <Trackpoint>
            <Time>2019-10-07T12:20:51.000Z</Time>
            <Position>
              <LatitudeDegrees>40.3861580975353717803955078125</LatitudeDegrees>
              <LongitudeDegrees>-5.7653313316404819488525390625</LongitudeDegrees>
            </Position>
            <AltitudeMeters>941</AltitudeMeters>
            <DistanceMeters>NAN</DistanceMeters>
          </Trackpoint>
          <Trackpoint>
            <Time>2019-10-07T12:20:52.000Z</Time>
            <Position>
              <LatitudeDegrees>40.3861741907894611358642578125</LatitudeDegrees>
              <LongitudeDegrees>-5.7653470896184444427490234375</LongitudeDegrees>
            </Position>
            <AltitudeMeters>941.5999755859375</AltitudeMeters>
            <DistanceMeters>NAN</DistanceMeters>
          </Trackpoint>
          <Trackpoint>
            <Time>2019-10-07T12:20:53.000Z</Time>
            <Position>
              <LatitudeDegrees>40.3861916251480579376220703125</LatitudeDegrees>
              <LongitudeDegrees>-5.7653588242828845977783203125</LongitudeDegrees>
            </Position>
            <AltitudeMeters>942</AltitudeMeters>
            <DistanceMeters>NAN</DistanceMeters>
          </Trackpoint>
          <Trackpoint>
            <Time>2019-10-07T12:20:54.000Z</Time>
            <Position>
              <LatitudeDegrees>40.3862140886485576629638671875</LatitudeDegrees>
              <LongitudeDegrees>-5.76538120396435260772705078125</LongitudeDegrees>
            </Position>
            <AltitudeMeters>942.5999755859375</AltitudeMeters>
            <DistanceMeters>NAN</DistanceMeters>
          </Trackpoint>
          <Trackpoint>
            <Time>2019-10-07T12:20:59.000Z</Time>
            <Position>
              <LatitudeDegrees>40.3862787969410419464111328125</LatitudeDegrees>
              <LongitudeDegrees>-5.76551330275833606719970703125</LongitudeDegrees>
            </Position>
            <AltitudeMeters>943.20001220703125</AltitudeMeters>
            <DistanceMeters>NAN</DistanceMeters>
          </Trackpoint>
          <Trackpoint>
            <Time>2019-10-07T12:21:00.000Z</Time>
            <Position>
              <LatitudeDegrees>40.38629095070064067840576171875</LatitudeDegrees>
              <LongitudeDegrees>-5.76554096303880214691162109375</LongitudeDegrees>
            </Position>
            <AltitudeMeters>943.79998779296875</AltitudeMeters>
            <DistanceMeters>NAN</DistanceMeters>
          </Trackpoint>
          <Trackpoint>
            <Time>2019-10-07T12:21:05.000Z</Time>
            <Position>
              <LatitudeDegrees>40.38636672310531139373779296875</LatitudeDegrees>
              <LongitudeDegrees>-5.7656518556177616119384765625</LongitudeDegrees>
            </Position>
            <AltitudeMeters>944.4000244140625</AltitudeMeters>
            <DistanceMeters>NAN</DistanceMeters>
          </Trackpoint>
          <Trackpoint>
            <Time>2019-10-07T12:21:12.000Z</Time>
            <Position>
              <LatitudeDegrees>40.38652195595204830169677734375</LatitudeDegrees>
              <LongitudeDegrees>-5.76590775512158870697021484375</LongitudeDegrees>
            </Position>
            <AltitudeMeters>944.4000244140625</AltitudeMeters>
            <DistanceMeters>NAN</DistanceMeters>
          </Trackpoint>
          <Trackpoint>
            <Time>2019-10-07T12:21:14.000Z</Time>
            <Position>
              <LatitudeDegrees>40.38658113218843936920166015625</LatitudeDegrees>
              <LongitudeDegrees>-5.76599844731390476226806640625</LongitudeDegrees>
            </Position>
            <AltitudeMeters>943.79998779296875</AltitudeMeters>
            <DistanceMeters>NAN</DistanceMeters>
          </Trackpoint>
          <Trackpoint>
            <Time>2019-10-07T12:21:15.000Z</Time>
            <Position>
              <LatitudeDegrees>40.38661298342049121856689453125</LatitudeDegrees>
              <LongitudeDegrees>-5.76604999601840972900390625</LongitudeDegrees>
            </Position>
            <AltitudeMeters>943.20001220703125</AltitudeMeters>
            <DistanceMeters>NAN</DistanceMeters>
          </Trackpoint>
          <Trackpoint>
            <Time>2019-10-07T12:21:17.000Z</Time>
            <Position>
              <LatitudeDegrees>40.38669981993734836578369140625</LatitudeDegrees>
              <LongitudeDegrees>-5.76615384779870510101318359375</LongitudeDegrees>
            </Position>
            <AltitudeMeters>942</AltitudeMeters>
            <DistanceMeters>NAN</DistanceMeters>
          </Trackpoint>
          <Trackpoint>
            <Time>2019-10-07T12:21:18.000Z</Time>
            <Position>
              <LatitudeDegrees>40.38674734532833099365234375</LatitudeDegrees>
              <LongitudeDegrees>-5.76619483530521392822265625</LongitudeDegrees>
            </Position>
            <AltitudeMeters>942.5999755859375</AltitudeMeters>
            <DistanceMeters>NAN</DistanceMeters>
          </Trackpoint>
          <Trackpoint>
            <Time>2019-10-07T12:21:20.000Z</Time>
            <Position>
              <LatitudeDegrees>40.38682370446622371673583984375</LatitudeDegrees>
              <LongitudeDegrees>-5.766279995441436767578125</LongitudeDegrees>
            </Position>
            <AltitudeMeters>943.4000244140625</AltitudeMeters>
            <DistanceMeters>NAN</DistanceMeters>
          </Trackpoint>
          <Trackpoint>
            <Time>2019-10-07T12:21:21.000Z</Time>
            <Position>
              <LatitudeDegrees>40.386842228472232818603515625</LatitudeDegrees>
              <LongitudeDegrees>-5.76632768847048282623291015625</LongitudeDegrees>
            </Position>
            <AltitudeMeters>943.20001220703125</AltitudeMeters>
            <DistanceMeters>NAN</DistanceMeters>
          </Trackpoint>
          <Trackpoint>
            <Time>2019-10-07T12:21:22.000Z</Time>
            <Position>
              <LatitudeDegrees>40.38686326704919338226318359375</LatitudeDegrees>
              <LongitudeDegrees>-5.76637378893792629241943359375</LongitudeDegrees>
            </Position>
            <AltitudeMeters>943.20001220703125</AltitudeMeters>
            <DistanceMeters>NAN</DistanceMeters>
          </Trackpoint>
          <Trackpoint>
            <Time>2019-10-07T12:21:27.000Z</Time>
            <Position>
              <LatitudeDegrees>40.3869543783366680145263671875</LatitudeDegrees>
              <LongitudeDegrees>-5.766599178314208984375</LongitudeDegrees>
            </Position>
            <AltitudeMeters>944</AltitudeMeters>
            <DistanceMeters>NAN</DistanceMeters>
          </Trackpoint>
          <Trackpoint>
            <Time>2019-10-07T12:21:31.000Z</Time>
            <Position>
              <LatitudeDegrees>40.3870351798832416534423828125</LatitudeDegrees>
              <LongitudeDegrees>-5.76668526045978069305419921875</LongitudeDegrees>
            </Position>
            <AltitudeMeters>944.79998779296875</AltitudeMeters>
            <DistanceMeters>NAN</DistanceMeters>
          </Trackpoint>
          <Trackpoint>
            <Time>2019-10-07T12:21:36.000Z</Time>
            <Position>
              <LatitudeDegrees>40.3871568851172924041748046875</LatitudeDegrees>
              <LongitudeDegrees>-5.7667311094701290130615234375</LongitudeDegrees>
            </Position>
            <AltitudeMeters>945.79998779296875</AltitudeMeters>
            <DistanceMeters>NAN</DistanceMeters>
          </Trackpoint>
          <Trackpoint>
            <Time>2019-10-07T12:21:37.000Z</Time>
            <Position>
              <LatitudeDegrees>40.3871763311326503753662109375</LatitudeDegrees>
              <LongitudeDegrees>-5.7667552493512630462646484375</LongitudeDegrees>
            </Position>
            <AltitudeMeters>946</AltitudeMeters>
            <DistanceMeters>NAN</DistanceMeters>
          </Trackpoint>
          <Trackpoint>
            <Time>2019-10-07T12:21:41.000Z</Time>
            <Position>
              <LatitudeDegrees>40.38722251541912555694580078125</LatitudeDegrees>
              <LongitudeDegrees>-5.76682875864207744598388671875</LongitudeDegrees>
            </Position>
            <AltitudeMeters>947.20001220703125</AltitudeMeters>
            <DistanceMeters>NAN</DistanceMeters>
          </Trackpoint>
          <Trackpoint>
            <Time>2019-10-07T12:21:42.000Z</Time>
            <Position>
              <LatitudeDegrees>40.3872209228575229644775390625</LatitudeDegrees>
              <LongitudeDegrees>-5.766831524670124053955078125</LongitudeDegrees>
            </Position>
            <AltitudeMeters>947.20001220703125</AltitudeMeters>
            <DistanceMeters>NAN</DistanceMeters>
          </Trackpoint>
          <Trackpoint>
            <Time>2019-10-07T12:21:47.000Z</Time>
            <Position>
              <LatitudeDegrees>40.38727213628590106964111328125</LatitudeDegrees>
              <LongitudeDegrees>-5.76691241003572940826416015625</LongitudeDegrees>
            </Position>
            <AltitudeMeters>946.4000244140625</AltitudeMeters>
            <DistanceMeters>NAN</DistanceMeters>
          </Trackpoint>
          <Trackpoint>
            <Time>2019-10-07T12:21:48.000Z</Time>
            <Position>
              <LatitudeDegrees>40.3872857987880706787109375</LatitudeDegrees>
              <LongitudeDegrees>-5.76694996096193790435791015625</LongitudeDegrees>
            </Position>
            <AltitudeMeters>946</AltitudeMeters>
            <DistanceMeters>NAN</DistanceMeters>
          </Trackpoint>
          <Trackpoint>
            <Time>2019-10-07T12:21:52.000Z</Time>
            <Position>
              <LatitudeDegrees>40.38735427893698215484619140625</LatitudeDegrees>
              <LongitudeDegrees>-5.7670395635068416595458984375</LongitudeDegrees>
            </Position>
            <AltitudeMeters>946.20001220703125</AltitudeMeters>
            <DistanceMeters>NAN</DistanceMeters>
          </Trackpoint>
          <Trackpoint>
            <Time>2019-10-07T12:21:55.000Z</Time>
            <Position>
              <LatitudeDegrees>40.3874039836227893829345703125</LatitudeDegrees>
              <LongitudeDegrees>-5.7670569978654384613037109375</LongitudeDegrees>
            </Position>
            <AltitudeMeters>945.5999755859375</AltitudeMeters>
            <DistanceMeters>NAN</DistanceMeters>
          </Trackpoint>
          <Trackpoint>
            <Time>2019-10-07T12:21:57.000Z</Time>
            <Position>
              <LatitudeDegrees>40.3874586336314678192138671875</LatitudeDegrees>
              <LongitudeDegrees>-5.7670660503208637237548828125</LongitudeDegrees>
            </Position>
            <AltitudeMeters>944.79998779296875</AltitudeMeters>
            <DistanceMeters>NAN</DistanceMeters>
          </Trackpoint>
          <Trackpoint>
            <Time>2019-10-07T12:21:59.000Z</Time>
            <Position>
              <LatitudeDegrees>40.38750666193664073944091796875</LatitudeDegrees>
              <LongitudeDegrees>-5.7670673914253711700439453125</LongitudeDegrees>
            </Position>
            <AltitudeMeters>944</AltitudeMeters>
            <DistanceMeters>NAN</DistanceMeters>
          </Trackpoint>
          <Trackpoint>
            <Time>2019-10-07T12:22:00.000Z</Time>
            <Position>
              <LatitudeDegrees>40.3875298798084259033203125</LatitudeDegrees>
              <LongitudeDegrees>-5.7670616917312145233154296875</LongitudeDegrees>
            </Position>
            <AltitudeMeters>943.79998779296875</AltitudeMeters>
            <DistanceMeters>NAN</DistanceMeters>
          </Trackpoint>
          <Trackpoint>
            <Time>2019-10-07T12:22:02.000Z</Time>
            <Position>
              <LatitudeDegrees>40.38757614791393280029296875</LatitudeDegrees>
              <LongitudeDegrees>-5.76704652048647403717041015625</LongitudeDegrees>
            </Position>
            <AltitudeMeters>943</AltitudeMeters>
            <DistanceMeters>NAN</DistanceMeters>
          </Trackpoint>
          <Trackpoint>
            <Time>2019-10-07T12:22:04.000Z</Time>
            <Position>
              <LatitudeDegrees>40.3875806741416454315185546875</LatitudeDegrees>
              <LongitudeDegrees>-5.76704199425876140594482421875</LongitudeDegrees>
            </Position>
            <AltitudeMeters>943</AltitudeMeters>
            <DistanceMeters>NAN</DistanceMeters>
          </Trackpoint>
          <Trackpoint>
            <Time>2019-10-07T12:22:05.000Z</Time>
            <Position>
              <LatitudeDegrees>40.38758142851293087005615234375</LatitudeDegrees>
              <LongitudeDegrees>-5.76703847385942935943603515625</LongitudeDegrees>
            </Position>
            <AltitudeMeters>942.79998779296875</AltitudeMeters>
            <DistanceMeters>NAN</DistanceMeters>
          </Trackpoint>
          <Trackpoint>
            <Time>2019-10-07T12:22:06.000Z</Time>
            <Position>
              <LatitudeDegrees>40.3875736333429813385009765625</LatitudeDegrees>
              <LongitudeDegrees>-5.7670398987829685211181640625</LongitudeDegrees>
            </Position>
            <AltitudeMeters>942.79998779296875</AltitudeMeters>
            <DistanceMeters>NAN</DistanceMeters>
          </Trackpoint>
          <Trackpoint>
            <Time>2019-10-07T12:22:13.000Z</Time>
            <Position>
              <LatitudeDegrees>40.38757572881877422332763671875</LatitudeDegrees>
              <LongitudeDegrees>-5.76703730039298534393310546875</LongitudeDegrees>
            </Position>
            <AltitudeMeters>943</AltitudeMeters>
            <DistanceMeters>NAN</DistanceMeters>
          </Trackpoint>
          <Trackpoint>
            <Time>2019-10-07T12:22:16.000Z</Time>
            <Position>
              <LatitudeDegrees>40.38757522590458393096923828125</LatitudeDegrees>
              <LongitudeDegrees>-5.767036043107509613037109375</LongitudeDegrees>
            </Position>
            <AltitudeMeters>943</AltitudeMeters>
            <DistanceMeters>NAN</DistanceMeters>
          </Trackpoint>
          <Trackpoint>
            <Time>2019-10-07T12:22:18.000Z</Time>
            <Position>
              <LatitudeDegrees>40.38758511655032634735107421875</LatitudeDegrees>
              <LongitudeDegrees>-5.7670476101338863372802734375</LongitudeDegrees>
            </Position>
            <AltitudeMeters>943</AltitudeMeters>
            <DistanceMeters>NAN</DistanceMeters>
          </Trackpoint>
          <Trackpoint>
            <Time>2019-10-07T12:22:23.000Z</Time>
            <Position>
              <LatitudeDegrees>40.38757254369556903839111328125</LatitudeDegrees>
              <LongitudeDegrees>-5.7670605182647705078125</LongitudeDegrees>
            </Position>
            <AltitudeMeters>943.5999755859375</AltitudeMeters>
            <DistanceMeters>NAN</DistanceMeters>
          </Trackpoint>
          <Trackpoint>
            <Time>2019-10-07T12:22:29.000Z</Time>
            <Position>
              <LatitudeDegrees>40.38757639937102794647216796875</LatitudeDegrees>
              <LongitudeDegrees>-5.7670633681118488311767578125</LongitudeDegrees>
            </Position>
            <AltitudeMeters>943.5999755859375</AltitudeMeters>
            <DistanceMeters>NAN</DistanceMeters>
          </Trackpoint>
          <Trackpoint>
            <Time>2019-10-07T12:22:30.000Z</Time>
            <Position>
              <LatitudeDegrees>40.387575812637805938720703125</LatitudeDegrees>
              <LongitudeDegrees>-5.76706118881702423095703125</LongitudeDegrees>
            </Position>
            <AltitudeMeters>943.5999755859375</AltitudeMeters>
            <DistanceMeters>NAN</DistanceMeters>
          </Trackpoint>
          <Trackpoint>
            <Time>2019-10-07T12:22:33.000Z</Time>
            <Position>
              <LatitudeDegrees>40.38759718649089336395263671875</LatitudeDegrees>
              <LongitudeDegrees>-5.76704199425876140594482421875</LongitudeDegrees>
            </Position>
            <AltitudeMeters>943.5999755859375</AltitudeMeters>
            <DistanceMeters>NAN</DistanceMeters>
          </Trackpoint>
          <Trackpoint>
            <Time>2019-10-07T12:22:35.000Z</Time>
            <Position>
              <LatitudeDegrees>40.387640856206417083740234375</LatitudeDegrees>
              <LongitudeDegrees>-5.76702103950083255767822265625</LongitudeDegrees>
            </Position>
            <AltitudeMeters>943.5999755859375</AltitudeMeters>
            <DistanceMeters>NAN</DistanceMeters>
          </Trackpoint>
          <Trackpoint>
            <Time>2019-10-07T12:22:37.000Z</Time>
            <Position>
              <LatitudeDegrees>40.3876371681690216064453125</LatitudeDegrees>
              <LongitudeDegrees>-5.76703646220266819000244140625</LongitudeDegrees>
            </Position>
            <AltitudeMeters>943.79998779296875</AltitudeMeters>
            <DistanceMeters>NAN</DistanceMeters>
          </Trackpoint>
          <Trackpoint>
            <Time>2019-10-07T12:22:38.000Z</Time>
            <Position>
              <LatitudeDegrees>40.38766507990658283233642578125</LatitudeDegrees>
              <LongitudeDegrees>-5.76701433397829532623291015625</LongitudeDegrees>
            </Position>
            <AltitudeMeters>943.5999755859375</AltitudeMeters>
            <DistanceMeters>NAN</DistanceMeters>
          </Trackpoint>
          <Trackpoint>
            <Time>2019-10-07T12:22:43.000Z</Time>
            <Position>
              <LatitudeDegrees>40.38772165775299072265625</LatitudeDegrees>
              <LongitudeDegrees>-5.76707803644239902496337890625</LongitudeDegrees>
            </Position>
            <AltitudeMeters>943.20001220703125</AltitudeMeters>
            <DistanceMeters>NAN</DistanceMeters>
          </Trackpoint>
          <Trackpoint>
            <Time>2019-10-07T12:22:47.000Z</Time>
            <Position>
              <LatitudeDegrees>40.38777555339038372039794921875</LatitudeDegrees>
              <LongitudeDegrees>-5.76709832064807415008544921875</LongitudeDegrees>
            </Position>
            <AltitudeMeters>943.20001220703125</AltitudeMeters>
            <DistanceMeters>NAN</DistanceMeters>
          </Trackpoint>
          <Trackpoint>
            <Time>2019-10-07T12:22:52.000Z</Time>
            <Position>
              <LatitudeDegrees>40.387783683836460113525390625</LatitudeDegrees>
              <LongitudeDegrees>-5.767094381153583526611328125</LongitudeDegrees>
            </Position>
            <AltitudeMeters>943.20001220703125</AltitudeMeters>
            <DistanceMeters>NAN</DistanceMeters>
          </Trackpoint>
          <Trackpoint>
            <Time>2019-10-07T12:22:58.000Z</Time>
            <Position>
              <LatitudeDegrees>40.3877781517803668975830078125</LatitudeDegrees>
              <LongitudeDegrees>-5.76709748245775699615478515625</LongitudeDegrees>
            </Position>
            <AltitudeMeters>943.4000244140625</AltitudeMeters>
            <DistanceMeters>NAN</DistanceMeters>
          </Trackpoint>
          <Trackpoint>
            <Time>2019-10-08T07:13:09.000Z</Time>
            <Position>
              <LatitudeDegrees>40.384516753256320953369140625</LatitudeDegrees>
              <LongitudeDegrees>-5.7630957104265689849853515625</LongitudeDegrees>
            </Position>
            <AltitudeMeters>822.4000244140625</AltitudeMeters>
            <DistanceMeters>NAN</DistanceMeters>
          </Trackpoint>
          <Trackpoint>
            <Time>2019-10-08T07:13:10.000Z</Time>
            <Position>
              <LatitudeDegrees>40.38448582403361797332763671875</LatitudeDegrees>
              <LongitudeDegrees>-5.76310132630169391632080078125</LongitudeDegrees>
            </Position>
            <AltitudeMeters>824.5999755859375</AltitudeMeters>
            <DistanceMeters>NAN</DistanceMeters>
          </Trackpoint>
          <Trackpoint>
            <Time>2019-10-08T07:13:13.000Z</Time>
            <Position>
              <LatitudeDegrees>40.38438574410974979400634765625</LatitudeDegrees>
              <LongitudeDegrees>-5.7631040923297405242919921875</LongitudeDegrees>
            </Position>
            <AltitudeMeters>824.5999755859375</AltitudeMeters>
            <DistanceMeters>NAN</DistanceMeters>
          </Trackpoint>
          <Trackpoint>
            <Time>2019-10-08T07:13:17.000Z</Time>
            <Position>
              <LatitudeDegrees>40.38425448350608348846435546875</LatitudeDegrees>
              <LongitudeDegrees>-5.76311708427965641021728515625</LongitudeDegrees>
            </Position>
            <AltitudeMeters>825</AltitudeMeters>
            <DistanceMeters>NAN</DistanceMeters>
          </Trackpoint>
          <Trackpoint>
            <Time>2019-10-08T07:13:19.000Z</Time>
            <Position>
              <LatitudeDegrees>40.3841943852603435516357421875</LatitudeDegrees>
              <LongitudeDegrees>-5.76311775483191013336181640625</LongitudeDegrees>
            </Position>
            <AltitudeMeters>825.4000244140625</AltitudeMeters>
            <DistanceMeters>NAN</DistanceMeters>
          </Trackpoint>
          <Trackpoint>
            <Time>2019-10-08T07:13:22.000Z</Time>
            <Position>
              <LatitudeDegrees>40.384155996143817901611328125</LatitudeDegrees>
              <LongitudeDegrees>-5.76311943121254444122314453125</LongitudeDegrees>
            </Position>
            <AltitudeMeters>825.4000244140625</AltitudeMeters>
            <DistanceMeters>NAN</DistanceMeters>
          </Trackpoint>
          <Trackpoint>
            <Time>2019-10-08T07:13:23.000Z</Time>
            <Position>
              <LatitudeDegrees>40.38415121845901012420654296875</LatitudeDegrees>
              <LongitudeDegrees>-5.7631198503077030181884765625</LongitudeDegrees>
            </Position>
            <AltitudeMeters>825.5999755859375</AltitudeMeters>
            <DistanceMeters>NAN</DistanceMeters>
          </Trackpoint>
          <Trackpoint>
            <Time>2019-10-08T07:13:32.000Z</Time>
            <Position>
              <LatitudeDegrees>40.384184829890727996826171875</LatitudeDegrees>
              <LongitudeDegrees>-5.76309797354042530059814453125</LongitudeDegrees>
            </Position>
            <AltitudeMeters>826.20001220703125</AltitudeMeters>
            <DistanceMeters>NAN</DistanceMeters>
          </Trackpoint>
          <Trackpoint>
            <Time>2019-10-08T07:13:39.000Z</Time>
            <Position>
              <LatitudeDegrees>40.3841668926179409027099609375</LatitudeDegrees>
              <LongitudeDegrees>-5.76308473013341426849365234375</LongitudeDegrees>
            </Position>
            <AltitudeMeters>826</AltitudeMeters>
            <DistanceMeters>NAN</DistanceMeters>
          </Trackpoint>
          <Trackpoint>
            <Time>2019-10-08T07:13:41.000Z</Time>
            <Position>
              <LatitudeDegrees>40.384159348905086517333984375</LatitudeDegrees>
              <LongitudeDegrees>-5.76308422721922397613525390625</LongitudeDegrees>
            </Position>
            <AltitudeMeters>826</AltitudeMeters>
            <DistanceMeters>NAN</DistanceMeters>
          </Trackpoint>
          <Trackpoint>
            <Time>2019-10-08T07:13:43.000Z</Time>
            <Position>
              <LatitudeDegrees>40.384142585098743438720703125</LatitudeDegrees>
              <LongitudeDegrees>-5.76308657415211200714111328125</LongitudeDegrees>
            </Position>
            <AltitudeMeters>826</AltitudeMeters>
            <DistanceMeters>NAN</DistanceMeters>
          </Trackpoint>
          <Trackpoint>
            <Time>2019-10-08T07:13:44.000Z</Time>
            <Position>
              <LatitudeDegrees>40.3841288387775421142578125</LatitudeDegrees>
              <LongitudeDegrees>-5.76308858580887317657470703125</LongitudeDegrees>
            </Position>
            <AltitudeMeters>826.20001220703125</AltitudeMeters>
            <DistanceMeters>NAN</DistanceMeters>
          </Trackpoint>
          <Trackpoint>
            <Time>2019-10-08T07:13:50.000Z</Time>
            <Position>
              <LatitudeDegrees>40.38402934558689594268798828125</LatitudeDegrees>
              <LongitudeDegrees>-5.7631292380392551422119140625</LongitudeDegrees>
            </Position>
            <AltitudeMeters>826.79998779296875</AltitudeMeters>
            <DistanceMeters>NAN</DistanceMeters>
          </Trackpoint>
          <Trackpoint>
            <Time>2019-10-08T07:13:51.000Z</Time>
            <Position>
              <LatitudeDegrees>40.38401207886636257171630859375</LatitudeDegrees>
              <LongitudeDegrees>-5.76314491219818592071533203125</LongitudeDegrees>
            </Position>
            <AltitudeMeters>826.79998779296875</AltitudeMeters>
            <DistanceMeters>NAN</DistanceMeters>
          </Trackpoint>
          <Trackpoint>
            <Time>2019-10-08T07:13:54.000Z</Time>
            <Position>
              <LatitudeDegrees>40.3839761205017566680908203125</LatitudeDegrees>
              <LongitudeDegrees>-5.7632261328399181365966796875</LongitudeDegrees>
            </Position>
            <AltitudeMeters>827.20001220703125</AltitudeMeters>
            <DistanceMeters>NAN</DistanceMeters>
          </Trackpoint>
          <Trackpoint>
            <Time>2019-10-08T07:13:56.000Z</Time>
            <Position>
              <LatitudeDegrees>40.383962877094745635986328125</LatitudeDegrees>
              <LongitudeDegrees>-5.76328991912305355072021484375</LongitudeDegrees>
            </Position>
            <AltitudeMeters>827</AltitudeMeters>
            <DistanceMeters>NAN</DistanceMeters>
          </Trackpoint>
          <Trackpoint>
            <Time>2019-10-08T07:14:01.000Z</Time>
            <Position>
              <LatitudeDegrees>40.38391635753214359283447265625</LatitudeDegrees>
              <LongitudeDegrees>-5.7634775899350643157958984375</LongitudeDegrees>
            </Position>
            <AltitudeMeters>827.5999755859375</AltitudeMeters>
            <DistanceMeters>NAN</DistanceMeters>
          </Trackpoint>
          <Trackpoint>
            <Time>2019-10-08T07:14:02.000Z</Time>
            <Position>
              <LatitudeDegrees>40.3839075565338134765625</LatitudeDegrees>
              <LongitudeDegrees>-5.76352327130734920501708984375</LongitudeDegrees>
            </Position>
            <AltitudeMeters>827.4000244140625</AltitudeMeters>
            <DistanceMeters>NAN</DistanceMeters>
          </Trackpoint>
          <Trackpoint>
            <Time>2019-10-08T07:14:06.000Z</Time>
            <Position>
              <LatitudeDegrees>40.3838745318353176116943359375</LatitudeDegrees>
              <LongitudeDegrees>-5.76369711197912693023681640625</LongitudeDegrees>
            </Position>
            <AltitudeMeters>827.5999755859375</AltitudeMeters>
            <DistanceMeters>NAN</DistanceMeters>
          </Trackpoint>
          <Trackpoint>
            <Time>2019-10-08T07:14:09.000Z</Time>
            <Position>
              <LatitudeDegrees>40.3838356398046016693115234375</LatitudeDegrees>
              <LongitudeDegrees>-5.7638232596218585968017578125</LongitudeDegrees>
            </Position>
            <AltitudeMeters>827.5999755859375</AltitudeMeters>
            <DistanceMeters>NAN</DistanceMeters>
          </Trackpoint>
          <Trackpoint>
            <Time>2019-10-08T07:14:12.000Z</Time>
            <Position>
              <LatitudeDegrees>40.383814014494419097900390625</LatitudeDegrees>
              <LongitudeDegrees>-5.7639620639383792877197265625</LongitudeDegrees>
            </Position>
            <AltitudeMeters>827.79998779296875</AltitudeMeters>
            <DistanceMeters>NAN</DistanceMeters>
          </Trackpoint>
          <Trackpoint>
            <Time>2019-10-08T07:14:15.000Z</Time>
            <Position>
              <LatitudeDegrees>40.38378576748073101043701171875</LatitudeDegrees>
              <LongitudeDegrees>-5.76410145498812198638916015625</LongitudeDegrees>
            </Position>
            <AltitudeMeters>828</AltitudeMeters>
            <DistanceMeters>NAN</DistanceMeters>
          </Trackpoint>
          <Trackpoint>
            <Time>2019-10-08T07:14:19.000Z</Time>
            <Position>
              <LatitudeDegrees>40.38376682437956333160400390625</LatitudeDegrees>
              <LongitudeDegrees>-5.7642996869981288909912109375</LongitudeDegrees>
            </Position>
            <AltitudeMeters>828</AltitudeMeters>
            <DistanceMeters>NAN</DistanceMeters>
          </Trackpoint>
          <Trackpoint>
            <Time>2019-10-08T07:14:21.000Z</Time>
            <Position>
              <LatitudeDegrees>40.3837669081985950469970703125</LatitudeDegrees>
              <LongitudeDegrees>-5.76440177857875823974609375</LongitudeDegrees>
            </Position>
            <AltitudeMeters>828.20001220703125</AltitudeMeters>
            <DistanceMeters>NAN</DistanceMeters>
          </Trackpoint>
          <Trackpoint>
            <Time>2019-10-08T07:14:25.000Z</Time>
            <Position>
              <LatitudeDegrees>40.38374553434550762176513671875</LatitudeDegrees>
              <LongitudeDegrees>-5.76462146826088428497314453125</LongitudeDegrees>
            </Position>
            <AltitudeMeters>828</AltitudeMeters>
            <DistanceMeters>NAN</DistanceMeters>
          </Trackpoint>
          <Trackpoint>
            <Time>2019-10-08T07:14:26.000Z</Time>
            <Position>
              <LatitudeDegrees>40.38373933173716068267822265625</LatitudeDegrees>
              <LongitudeDegrees>-5.7646832428872585296630859375</LongitudeDegrees>
            </Position>
            <AltitudeMeters>827.79998779296875</AltitudeMeters>
            <DistanceMeters>NAN</DistanceMeters>
          </Trackpoint>
          <Trackpoint>
            <Time>2019-10-08T07:14:29.000Z</Time>
            <Position>
              <LatitudeDegrees>40.3837157785892486572265625</LatitudeDegrees>
              <LongitudeDegrees>-5.764854736626148223876953125</LongitudeDegrees>
            </Position>
            <AltitudeMeters>827.4000244140625</AltitudeMeters>
            <DistanceMeters>NAN</DistanceMeters>
          </Trackpoint>
          <Trackpoint>
            <Time>2019-10-08T07:14:30.000Z</Time>
            <Position>
              <LatitudeDegrees>40.38370429538190364837646484375</LatitudeDegrees>
              <LongitudeDegrees>-5.76491919346153736114501953125</LongitudeDegrees>
            </Position>
            <AltitudeMeters>827.20001220703125</AltitudeMeters>
            <DistanceMeters>NAN</DistanceMeters>
          </Trackpoint>
          <Trackpoint>
            <Time>2019-10-08T07:14:31.000Z</Time>
            <Position>
              <LatitudeDegrees>40.3836894594132900238037109375</LatitudeDegrees>
              <LongitudeDegrees>-5.764989517629146575927734375</LongitudeDegrees>
            </Position>
            <AltitudeMeters>826.79998779296875</AltitudeMeters>
            <DistanceMeters>NAN</DistanceMeters>
          </Trackpoint>
          <Trackpoint>
            <Time>2019-10-08T07:14:32.000Z</Time>
            <Position>
              <LatitudeDegrees>40.38367747329175472259521484375</LatitudeDegrees>
              <LongitudeDegrees>-5.76506336219608783721923828125</LongitudeDegrees>
            </Position>
            <AltitudeMeters>826.4000244140625</AltitudeMeters>
            <DistanceMeters>NAN</DistanceMeters>
          </Trackpoint>
          <Trackpoint>
            <Time>2019-10-08T07:14:35.000Z</Time>
            <Position>
              <LatitudeDegrees>40.38362936116755008697509765625</LatitudeDegrees>
              <LongitudeDegrees>-5.76529889367520809173583984375</LongitudeDegrees>
            </Position>
            <AltitudeMeters>825</AltitudeMeters>
            <DistanceMeters>NAN</DistanceMeters>
          </Trackpoint>
          <Trackpoint>
            <Time>2019-10-08T07:14:37.000Z</Time>
            <Position>
              <LatitudeDegrees>40.38359013386070728302001953125</LatitudeDegrees>
              <LongitudeDegrees>-5.76546661555767059326171875</LongitudeDegrees>
            </Position>
            <AltitudeMeters>824.20001220703125</AltitudeMeters>
            <DistanceMeters>NAN</DistanceMeters>
          </Trackpoint>
          <Trackpoint>
            <Time>2019-10-08T07:14:38.000Z</Time>
            <Position>
              <LatitudeDegrees>40.38357018493115901947021484375</LatitudeDegrees>
              <LongitudeDegrees>-5.765554122626781463623046875</LongitudeDegrees>
            </Position>
            <AltitudeMeters>823.79998779296875</AltitudeMeters>
            <DistanceMeters>NAN</DistanceMeters>
          </Trackpoint>
          <Trackpoint>
            <Time>2019-10-08T07:14:41.000Z</Time>
            <Position>
              <LatitudeDegrees>40.38349927403032779693603515625</LatitudeDegrees>
              <LongitudeDegrees>-5.76582309789955615997314453125</LongitudeDegrees>
            </Position>
            <AltitudeMeters>822.79998779296875</AltitudeMeters>
            <DistanceMeters>NAN</DistanceMeters>
          </Trackpoint>
          <Trackpoint>
            <Time>2019-10-08T07:14:43.000Z</Time>
            <Position>
              <LatitudeDegrees>40.38345283828675746917724609375</LatitudeDegrees>
              <LongitudeDegrees>-5.765996687114238739013671875</LongitudeDegrees>
            </Position>
            <AltitudeMeters>821.79998779296875</AltitudeMeters>
            <DistanceMeters>NAN</DistanceMeters>
          </Trackpoint>
          <Trackpoint>
            <Time>2019-10-08T07:14:44.000Z</Time>
            <Position>
              <LatitudeDegrees>40.3834309615194797515869140625</LatitudeDegrees>
              <LongitudeDegrees>-5.766076482832431793212890625</LongitudeDegrees>
            </Position>
            <AltitudeMeters>821.5999755859375</AltitudeMeters>
            <DistanceMeters>NAN</DistanceMeters>
          </Trackpoint>
          <Trackpoint>
            <Time>2019-10-08T07:14:45.000Z</Time>
            <Position>
              <LatitudeDegrees>40.383409000933170318603515625</LatitudeDegrees>
              <LongitudeDegrees>-5.766160972416400909423828125</LongitudeDegrees>
            </Position>
            <AltitudeMeters>821.4000244140625</AltitudeMeters>
            <DistanceMeters>NAN</DistanceMeters>
          </Trackpoint>
          <Trackpoint>
            <Time>2019-10-08T07:14:47.000Z</Time>
            <Position>
              <LatitudeDegrees>40.38336231373250484466552734375</LatitudeDegrees>
              <LongitudeDegrees>-5.76633908785879611968994140625</LongitudeDegrees>
            </Position>
            <AltitudeMeters>820.20001220703125</AltitudeMeters>
            <DistanceMeters>NAN</DistanceMeters>
          </Trackpoint>
          <Trackpoint>
            <Time>2019-10-08T07:14:49.000Z</Time>
            <Position>
              <LatitudeDegrees>40.38331453688442707061767578125</LatitudeDegrees>
              <LongitudeDegrees>-5.7665280997753143310546875</LongitudeDegrees>
            </Position>
            <AltitudeMeters>818.79998779296875</AltitudeMeters>
            <DistanceMeters>NAN</DistanceMeters>
          </Trackpoint>
          <Trackpoint>
            <Time>2019-10-08T07:14:50.000Z</Time>
            <Position>
              <LatitudeDegrees>40.3833679296076297760009765625</LatitudeDegrees>
              <LongitudeDegrees>-5.76674410142004489898681640625</LongitudeDegrees>
            </Position>
            <AltitudeMeters>819</AltitudeMeters>
            <DistanceMeters>NAN</DistanceMeters>
          </Trackpoint>
          <Trackpoint>
            <Time>2019-10-08T07:14:53.000Z</Time>
            <Position>
              <LatitudeDegrees>40.38338653743267059326171875</LatitudeDegrees>
              <LongitudeDegrees>-5.76711692847311496734619140625</LongitudeDegrees>
            </Position>
            <AltitudeMeters>816.79998779296875</AltitudeMeters>
            <DistanceMeters>NAN</DistanceMeters>
          </Trackpoint>
          <Trackpoint>
            <Time>2019-10-08T07:14:54.000Z</Time>
            <Position>
              <LatitudeDegrees>40.38340221159160137176513671875</LatitudeDegrees>
              <LongitudeDegrees>-5.76723276637494564056396484375</LongitudeDegrees>
            </Position>
            <AltitudeMeters>816.20001220703125</AltitudeMeters>
            <DistanceMeters>NAN</DistanceMeters>
          </Trackpoint>
          <Trackpoint>
            <Time>2019-10-08T07:14:55.000Z</Time>
            <Position>
              <LatitudeDegrees>40.38341763429343700408935546875</LatitudeDegrees>
              <LongitudeDegrees>-5.76734910719096660614013671875</LongitudeDegrees>
            </Position>
            <AltitudeMeters>816</AltitudeMeters>
            <DistanceMeters>NAN</DistanceMeters>
          </Trackpoint>
          <Trackpoint>
            <Time>2019-10-08T07:14:56.000Z</Time>
            <Position>
              <LatitudeDegrees>40.3834356553852558135986328125</LatitudeDegrees>
              <LongitudeDegrees>-5.76746729202568531036376953125</LongitudeDegrees>
            </Position>
            <AltitudeMeters>815.5999755859375</AltitudeMeters>
            <DistanceMeters>NAN</DistanceMeters>
          </Trackpoint>
          <Trackpoint>
            <Time>2019-10-08T07:14:58.000Z</Time>
            <Position>
              <LatitudeDegrees>40.38347211666405200958251953125</LatitudeDegrees>
              <LongitudeDegrees>-5.76771296560764312744140625</LongitudeDegrees>
            </Position>
            <AltitudeMeters>814.4000244140625</AltitudeMeters>
            <DistanceMeters>NAN</DistanceMeters>
          </Trackpoint>
          <Trackpoint>
            <Time>2019-10-08T07:15:00.000Z</Time>
            <Position>
              <LatitudeDegrees>40.38350522518157958984375</LatitudeDegrees>
              <LongitudeDegrees>-5.76796316541731357574462890625</LongitudeDegrees>
            </Position>
            <AltitudeMeters>813.4000244140625</AltitudeMeters>
            <DistanceMeters>NAN</DistanceMeters>
          </Trackpoint>
          <Trackpoint>
            <Time>2019-10-08T07:15:01.000Z</Time>
            <Position>
              <LatitudeDegrees>40.38352198898792266845703125</LatitudeDegrees>
              <LongitudeDegrees>-5.7680956833064556121826171875</LongitudeDegrees>
            </Position>
            <AltitudeMeters>812.5999755859375</AltitudeMeters>
            <DistanceMeters>NAN</DistanceMeters>
          </Trackpoint>
          <Trackpoint>
            <Time>2019-10-08T07:15:02.000Z</Time>
            <Position>
              <LatitudeDegrees>40.3835332207381725311279296875</LatitudeDegrees>
              <LongitudeDegrees>-5.768239684402942657470703125</LongitudeDegrees>
            </Position>
            <AltitudeMeters>811.79998779296875</AltitudeMeters>
            <DistanceMeters>NAN</DistanceMeters>
          </Trackpoint>
          <Trackpoint>
            <Time>2019-10-08T07:15:03.000Z</Time>
            <Position>
              <LatitudeDegrees>40.38354772143065929412841796875</LatitudeDegrees>
              <LongitudeDegrees>-5.76838058419525623321533203125</LongitudeDegrees>
            </Position>
            <AltitudeMeters>811.20001220703125</AltitudeMeters>
            <DistanceMeters>NAN</DistanceMeters>
          </Trackpoint>
          <Trackpoint>
            <Time>2019-10-08T07:15:04.000Z</Time>
            <Position>
              <LatitudeDegrees>40.383561551570892333984375</LatitudeDegrees>
              <LongitudeDegrees>-5.7685060612857341766357421875</LongitudeDegrees>
            </Position>
            <AltitudeMeters>810.5999755859375</AltitudeMeters>
            <DistanceMeters>NAN</DistanceMeters>
          </Trackpoint>
          <Trackpoint>
            <Time>2019-10-08T07:15:06.000Z</Time>
            <Position>
              <LatitudeDegrees>40.38359097205102443695068359375</LatitudeDegrees>
              <LongitudeDegrees>-5.76876045204699039459228515625</LongitudeDegrees>
            </Position>
            <AltitudeMeters>810</AltitudeMeters>
            <DistanceMeters>NAN</DistanceMeters>
          </Trackpoint>
          <Trackpoint>
            <Time>2019-10-08T07:15:07.000Z</Time>
            <Position>
              <LatitudeDegrees>40.383608825504779815673828125</LatitudeDegrees>
              <LongitudeDegrees>-5.7688916288316249847412109375</LongitudeDegrees>
            </Position>
            <AltitudeMeters>809.4000244140625</AltitudeMeters>
            <DistanceMeters>NAN</DistanceMeters>
          </Trackpoint>
          <Trackpoint>
            <Time>2019-10-08T07:15:09.000Z</Time>
            <Position>
              <LatitudeDegrees>40.38363774307072162628173828125</LatitudeDegrees>
              <LongitudeDegrees>-5.7691578380763530731201171875</LongitudeDegrees>
            </Position>
            <AltitudeMeters>808</AltitudeMeters>
            <DistanceMeters>NAN</DistanceMeters>
          </Trackpoint>
          <Trackpoint>
            <Time>2019-10-08T07:15:11.000Z</Time>
            <Position>
              <LatitudeDegrees>40.38366976194083690643310546875</LatitudeDegrees>
              <LongitudeDegrees>-5.76943695545196533203125</LongitudeDegrees>
            </Position>
            <AltitudeMeters>807</AltitudeMeters>
            <DistanceMeters>NAN</DistanceMeters>
          </Trackpoint>
          <Trackpoint>
            <Time>2019-10-08T07:15:12.000Z</Time>
            <Position>
              <LatitudeDegrees>40.38368954323232173919677734375</LatitudeDegrees>
              <LongitudeDegrees>-5.76957651413977146148681640625</LongitudeDegrees>
            </Position>
            <AltitudeMeters>806</AltitudeMeters>
            <DistanceMeters>NAN</DistanceMeters>
          </Trackpoint>
          <Trackpoint>
            <Time>2019-10-08T07:15:13.000Z</Time>
            <Position>
              <LatitudeDegrees>40.38370898924767971038818359375</LatitudeDegrees>
              <LongitudeDegrees>-5.769718922674655914306640625</LongitudeDegrees>
            </Position>
            <AltitudeMeters>805.4000244140625</AltitudeMeters>
            <DistanceMeters>NAN</DistanceMeters>
          </Trackpoint>
          <Trackpoint>
            <Time>2019-10-08T07:15:15.000Z</Time>
            <Position>
              <LatitudeDegrees>40.38375123403966426849365234375</LatitudeDegrees>
              <LongitudeDegrees>-5.769999884068965911865234375</LongitudeDegrees>
            </Position>
            <AltitudeMeters>804</AltitudeMeters>
            <DistanceMeters>NAN</DistanceMeters>
          </Trackpoint>
          <Trackpoint>
            <Time>2019-10-08T07:15:19.000Z</Time>
            <Position>
              <LatitudeDegrees>40.383834131062030792236328125</LatitudeDegrees>
              <LongitudeDegrees>-5.770571865141391754150390625</LongitudeDegrees>
            </Position>
            <AltitudeMeters>802.4000244140625</AltitudeMeters>
            <DistanceMeters>NAN</DistanceMeters>
          </Trackpoint>
          <Trackpoint>
            <Time>2019-10-08T07:15:23.000Z</Time>
            <Position>
              <LatitudeDegrees>40.383905880153179168701171875</LatitudeDegrees>
              <LongitudeDegrees>-5.77107779681682586669921875</LongitudeDegrees>
            </Position>
            <AltitudeMeters>801.5999755859375</AltitudeMeters>
            <DistanceMeters>NAN</DistanceMeters>
          </Trackpoint>
          <Trackpoint>
            <Time>2019-10-08T07:15:24.000Z</Time>
            <Position>
              <LatitudeDegrees>40.3839254938066005706787109375</LatitudeDegrees>
              <LongitudeDegrees>-5.77120075933635234832763671875</LongitudeDegrees>
            </Position>
            <AltitudeMeters>801.4000244140625</AltitudeMeters>
            <DistanceMeters>NAN</DistanceMeters>
          </Trackpoint>
          <Trackpoint>
            <Time>2019-10-08T07:15:26.000Z</Time>
            <Position>
              <LatitudeDegrees>40.3839600272476673126220703125</LatitudeDegrees>
              <LongitudeDegrees>-5.77144660055637359619140625</LongitudeDegrees>
            </Position>
            <AltitudeMeters>800</AltitudeMeters>
            <DistanceMeters>NAN</DistanceMeters>
          </Trackpoint>
          <Trackpoint>
            <Time>2019-10-08T07:15:29.000Z</Time>
            <Position>
              <LatitudeDegrees>40.3839617036283016204833984375</LatitudeDegrees>
              <LongitudeDegrees>-5.77183309011161327362060546875</LongitudeDegrees>
            </Position>
            <AltitudeMeters>798.79998779296875</AltitudeMeters>
            <DistanceMeters>NAN</DistanceMeters>
          </Trackpoint>
          <Trackpoint>
            <Time>2019-10-08T07:15:31.000Z</Time>
            <Position>
              <LatitudeDegrees>40.38393077440559864044189453125</LatitudeDegrees>
              <LongitudeDegrees>-5.77208572067320346832275390625</LongitudeDegrees>
            </Position>
            <AltitudeMeters>797.5999755859375</AltitudeMeters>
            <DistanceMeters>NAN</DistanceMeters>
          </Trackpoint>
          <Trackpoint>
            <Time>2019-10-08T07:15:32.000Z</Time>
            <Position>
              <LatitudeDegrees>40.3839114122092723846435546875</LatitudeDegrees>
              <LongitudeDegrees>-5.7722152210772037506103515625</LongitudeDegrees>
            </Position>
            <AltitudeMeters>796.5999755859375</AltitudeMeters>
            <DistanceMeters>NAN</DistanceMeters>
          </Trackpoint>
          <Trackpoint>
            <Time>2019-10-08T07:15:34.000Z</Time>
            <Position>
              <LatitudeDegrees>40.3838681615889072418212890625</LatitudeDegrees>
              <LongitudeDegrees>-5.7724757306277751922607421875</LongitudeDegrees>
            </Position>
            <AltitudeMeters>795</AltitudeMeters>
            <DistanceMeters>NAN</DistanceMeters>
          </Trackpoint>
          <Trackpoint>
            <Time>2019-10-08T07:15:36.000Z</Time>
            <Position>
              <LatitudeDegrees>40.38382097147405147552490234375</LatitudeDegrees>
              <LongitudeDegrees>-5.77274453826248645782470703125</LongitudeDegrees>
            </Position>
            <AltitudeMeters>793.20001220703125</AltitudeMeters>
            <DistanceMeters>NAN</DistanceMeters>
          </Trackpoint>
          <Trackpoint>
            <Time>2019-10-08T07:15:38.000Z</Time>
            <Position>
              <LatitudeDegrees>40.3837783075869083404541015625</LatitudeDegrees>
              <LongitudeDegrees>-5.7729994319379329681396484375</LongitudeDegrees>
            </Position>
            <AltitudeMeters>792</AltitudeMeters>
            <DistanceMeters>NAN</DistanceMeters>
          </Trackpoint>
          <Trackpoint>
            <Time>2019-10-08T07:15:39.000Z</Time>
            <Position>
              <LatitudeDegrees>40.383755005896091461181640625</LatitudeDegrees>
              <LongitudeDegrees>-5.77312842942774295806884765625</LongitudeDegrees>
            </Position>
            <AltitudeMeters>791.4000244140625</AltitudeMeters>
            <DistanceMeters>NAN</DistanceMeters>
          </Trackpoint>
          <Trackpoint>
            <Time>2019-10-08T07:15:40.000Z</Time>
            <Position>
              <LatitudeDegrees>40.383730866014957427978515625</LatitudeDegrees>
              <LongitudeDegrees>-5.77325700782239437103271484375</LongitudeDegrees>
            </Position>
            <AltitudeMeters>790</AltitudeMeters>
            <DistanceMeters>NAN</DistanceMeters>
          </Trackpoint>
          <Trackpoint>
            <Time>2019-10-08T07:15:41.000Z</Time>
            <Position>
              <LatitudeDegrees>40.38370463065803050994873046875</LatitudeDegrees>
              <LongitudeDegrees>-5.773386843502521514892578125</LongitudeDegrees>
            </Position>
            <AltitudeMeters>788.79998779296875</AltitudeMeters>
            <DistanceMeters>NAN</DistanceMeters>
          </Trackpoint>
          <Trackpoint>
            <Time>2019-10-08T07:15:42.000Z</Time>
            <Position>
              <LatitudeDegrees>40.3836800716817378997802734375</LatitudeDegrees>
              <LongitudeDegrees>-5.77351852320134639739990234375</LongitudeDegrees>
            </Position>
            <AltitudeMeters>787.79998779296875</AltitudeMeters>
            <DistanceMeters>NAN</DistanceMeters>
          </Trackpoint>
          <Trackpoint>
            <Time>2019-10-08T07:15:44.000Z</Time>
            <Position>
              <LatitudeDegrees>40.38364402949810028076171875</LatitudeDegrees>
              <LongitudeDegrees>-5.77379076741635799407958984375</LongitudeDegrees>
            </Position>
            <AltitudeMeters>786</AltitudeMeters>
            <DistanceMeters>NAN</DistanceMeters>
          </Trackpoint>
          <Trackpoint>
            <Time>2019-10-08T07:15:46.000Z</Time>
            <Position>
              <LatitudeDegrees>40.3836217336356639862060546875</LatitudeDegrees>
              <LongitudeDegrees>-5.774069465696811676025390625</LongitudeDegrees>
            </Position>
            <AltitudeMeters>785.20001220703125</AltitudeMeters>
            <DistanceMeters>NAN</DistanceMeters>
          </Trackpoint>
          <Trackpoint>
            <Time>2019-10-08T07:15:47.000Z</Time>
            <Position>
              <LatitudeDegrees>40.38361729122698307037353515625</LatitudeDegrees>
              <LongitudeDegrees>-5.77420650981366634368896484375</LongitudeDegrees>
            </Position>
            <AltitudeMeters>784.5999755859375</AltitudeMeters>
            <DistanceMeters>NAN</DistanceMeters>
          </Trackpoint>
          <Trackpoint>
            <Time>2019-10-08T07:15:49.000Z</Time>
            <Position>
              <LatitudeDegrees>40.38362366147339344024658203125</LatitudeDegrees>
              <LongitudeDegrees>-5.77448244206607341766357421875</LongitudeDegrees>
            </Position>
            <AltitudeMeters>783.4000244140625</AltitudeMeters>
            <DistanceMeters>NAN</DistanceMeters>
          </Trackpoint>
          <Trackpoint>
            <Time>2019-10-08T07:15:51.000Z</Time>
            <Position>
              <LatitudeDegrees>40.38364998064935207366943359375</LatitudeDegrees>
              <LongitudeDegrees>-5.774760805070400238037109375</LongitudeDegrees>
            </Position>
            <AltitudeMeters>782</AltitudeMeters>
            <DistanceMeters>NAN</DistanceMeters>
          </Trackpoint>
          <Trackpoint>
            <Time>2019-10-08T07:15:53.000Z</Time>
            <Position>
              <LatitudeDegrees>40.38369088433682918548583984375</LatitudeDegrees>
              <LongitudeDegrees>-5.7750422693789005279541015625</LongitudeDegrees>
            </Position>
            <AltitudeMeters>780.4000244140625</AltitudeMeters>
            <DistanceMeters>NAN</DistanceMeters>
          </Trackpoint>
          <Trackpoint>
            <Time>2019-10-08T07:15:55.000Z</Time>
            <Position>
              <LatitudeDegrees>40.38374117575585842132568359375</LatitudeDegrees>
              <LongitudeDegrees>-5.775316022336483001708984375</LongitudeDegrees>
            </Position>
            <AltitudeMeters>778.5999755859375</AltitudeMeters>
            <DistanceMeters>NAN</DistanceMeters>
          </Trackpoint>
          <Trackpoint>
            <Time>2019-10-08T07:15:57.000Z</Time>
            <Position>
              <LatitudeDegrees>40.38379515521228313446044921875</LatitudeDegrees>
              <LongitudeDegrees>-5.77559170313179492950439453125</LongitudeDegrees>
            </Position>
            <AltitudeMeters>777.79998779296875</AltitudeMeters>
            <DistanceMeters>NAN</DistanceMeters>
          </Trackpoint>
          <Trackpoint>
            <Time>2019-10-08T07:15:58.000Z</Time>
            <Position>
              <LatitudeDegrees>40.383820049464702606201171875</LatitudeDegrees>
              <LongitudeDegrees>-5.77573469839990139007568359375</LongitudeDegrees>
            </Position>
            <AltitudeMeters>777.4000244140625</AltitudeMeters>
            <DistanceMeters>NAN</DistanceMeters>
          </Trackpoint>
          <Trackpoint>
            <Time>2019-10-08T07:15:59.000Z</Time>
            <Position>
              <LatitudeDegrees>40.38384511135518550872802734375</LatitudeDegrees>
              <LongitudeDegrees>-5.77587719075381755828857421875</LongitudeDegrees>
            </Position>
            <AltitudeMeters>776.4000244140625</AltitudeMeters>
            <DistanceMeters>NAN</DistanceMeters>
          </Trackpoint>
          <Trackpoint>
            <Time>2019-10-08T07:16:01.000Z</Time>
            <Position>
              <LatitudeDegrees>40.38389657624065876007080078125</LatitudeDegrees>
              <LongitudeDegrees>-5.7761617563664913177490234375</LongitudeDegrees>
            </Position>
            <AltitudeMeters>775</AltitudeMeters>
            <DistanceMeters>NAN</DistanceMeters>
          </Trackpoint>
          <Trackpoint>
            <Time>2019-10-08T07:16:04.000Z</Time>
            <Position>
              <LatitudeDegrees>40.383982323110103607177734375</LatitudeDegrees>
              <LongitudeDegrees>-5.77660021372139453887939453125</LongitudeDegrees>
            </Position>
            <AltitudeMeters>773.4000244140625</AltitudeMeters>
            <DistanceMeters>NAN</DistanceMeters>
          </Trackpoint>
          <Trackpoint>
            <Time>2019-10-08T07:16:05.000Z</Time>
            <Position>
              <LatitudeDegrees>40.384012497961521148681640625</LatitudeDegrees>
              <LongitudeDegrees>-5.77674488537013530731201171875</LongitudeDegrees>
            </Position>
            <AltitudeMeters>772.79998779296875</AltitudeMeters>
            <DistanceMeters>NAN</DistanceMeters>
          </Trackpoint>
          <Trackpoint>
            <Time>2019-10-08T07:16:06.000Z</Time>
            <Position>
              <LatitudeDegrees>40.38404342718422412872314453125</LatitudeDegrees>
              <LongitudeDegrees>-5.77689156867563724517822265625</LongitudeDegrees>
            </Position>
            <AltitudeMeters>771.4000244140625</AltitudeMeters>
            <DistanceMeters>NAN</DistanceMeters>
          </Trackpoint>
          <Trackpoint>
            <Time>2019-10-08T07:16:08.000Z</Time>
            <Position>
              <LatitudeDegrees>40.38409531116485595703125</LatitudeDegrees>
              <LongitudeDegrees>-5.7771742902696132659912109375</LongitudeDegrees>
            </Position>
            <AltitudeMeters>770</AltitudeMeters>
            <DistanceMeters>NAN</DistanceMeters>
          </Trackpoint>
          <Trackpoint>
            <Time>2019-10-08T07:16:12.000Z</Time>
            <Position>
              <LatitudeDegrees>40.38419111631810665130615234375</LatitudeDegrees>
              <LongitudeDegrees>-5.77772087417542934417724609375</LongitudeDegrees>
            </Position>
            <AltitudeMeters>768.5999755859375</AltitudeMeters>
            <DistanceMeters>NAN</DistanceMeters>
          </Trackpoint>
          <Trackpoint>
            <Time>2019-10-08T07:16:13.000Z</Time>
            <Position>
              <LatitudeDegrees>40.384212322533130645751953125</LatitudeDegrees>
              <LongitudeDegrees>-5.777860097587108612060546875</LongitudeDegrees>
            </Position>
            <AltitudeMeters>768.20001220703125</AltitudeMeters>
            <DistanceMeters>NAN</DistanceMeters>
          </Trackpoint>
          <Trackpoint>
            <Time>2019-10-08T07:16:14.000Z</Time>
            <Position>
              <LatitudeDegrees>40.38422816433012485504150390625</LatitudeDegrees>
              <LongitudeDegrees>-5.778001248836517333984375</LongitudeDegrees>
            </Position>
            <AltitudeMeters>767.4000244140625</AltitudeMeters>
            <DistanceMeters>NAN</DistanceMeters>
          </Trackpoint>
          <Trackpoint>
            <Time>2019-10-08T07:16:16.000Z</Time>
            <Position>
              <LatitudeDegrees>40.384236462414264678955078125</LatitudeDegrees>
              <LongitudeDegrees>-5.77828757464885711669921875</LongitudeDegrees>
            </Position>
            <AltitudeMeters>766.4000244140625</AltitudeMeters>
            <DistanceMeters>NAN</DistanceMeters>
          </Trackpoint>
          <Trackpoint>
            <Time>2019-10-08T07:16:17.000Z</Time>
            <Position>
              <LatitudeDegrees>40.38423000834882259368896484375</LatitudeDegrees>
              <LongitudeDegrees>-5.77843333594501018524169921875</LongitudeDegrees>
            </Position>
            <AltitudeMeters>766</AltitudeMeters>
            <DistanceMeters>NAN</DistanceMeters>
          </Trackpoint>
          <Trackpoint>
            <Time>2019-10-08T07:16:18.000Z</Time>
            <Position>
              <LatitudeDegrees>40.3842227160930633544921875</LatitudeDegrees>
              <LongitudeDegrees>-5.77858203090727329254150390625</LongitudeDegrees>
            </Position>
            <AltitudeMeters>764.79998779296875</AltitudeMeters>
            <DistanceMeters>NAN</DistanceMeters>
          </Trackpoint>
          <Trackpoint>
            <Time>2019-10-08T07:16:19.000Z</Time>
            <Position>
              <LatitudeDegrees>40.38421575911343097686767578125</LatitudeDegrees>
              <LongitudeDegrees>-5.77873441390693187713623046875</LongitudeDegrees>
            </Position>
            <AltitudeMeters>763.79998779296875</AltitudeMeters>
            <DistanceMeters>NAN</DistanceMeters>
          </Trackpoint>
          <Trackpoint>
            <Time>2019-10-08T07:16:20.000Z</Time>
            <Position>
              <LatitudeDegrees>40.384213663637638092041015625</LatitudeDegrees>
              <LongitudeDegrees>-5.7788912393152713775634765625</LongitudeDegrees>
            </Position>
            <AltitudeMeters>762.20001220703125</AltitudeMeters>
            <DistanceMeters>NAN</DistanceMeters>
          </Trackpoint>
          <Trackpoint>
            <Time>2019-10-08T07:16:22.000Z</Time>
            <Position>
              <LatitudeDegrees>40.384227074682712554931640625</LatitudeDegrees>
              <LongitudeDegrees>-5.7791849412024021148681640625</LongitudeDegrees>
            </Position>
            <AltitudeMeters>761</AltitudeMeters>
            <DistanceMeters>NAN</DistanceMeters>
          </Trackpoint>
          <Trackpoint>
            <Time>2019-10-08T07:16:23.000Z</Time>
            <Position>
              <LatitudeDegrees>40.38424710743129253387451171875</LatitudeDegrees>
              <LongitudeDegrees>-5.779327936470508575439453125</LongitudeDegrees>
            </Position>
            <AltitudeMeters>760.79998779296875</AltitudeMeters>
            <DistanceMeters>NAN</DistanceMeters>
          </Trackpoint>
          <Trackpoint>
            <Time>2019-10-08T07:16:25.000Z</Time>
            <Position>
              <LatitudeDegrees>40.38428985513746738433837890625</LatitudeDegrees>
              <LongitudeDegrees>-5.77959087677299976348876953125</LongitudeDegrees>
            </Position>
            <AltitudeMeters>760.79998779296875</AltitudeMeters>
            <DistanceMeters>NAN</DistanceMeters>
          </Trackpoint>
          <Trackpoint>
            <Time>2019-10-08T07:16:26.000Z</Time>
            <Position>
              <LatitudeDegrees>40.38430259563028812408447265625</LatitudeDegrees>
              <LongitudeDegrees>-5.7797205448150634765625</LongitudeDegrees>
            </Position>
            <AltitudeMeters>760.79998779296875</AltitudeMeters>
            <DistanceMeters>NAN</DistanceMeters>
          </Trackpoint>
          <Trackpoint>
            <Time>2019-10-08T07:16:31.000Z</Time>
            <Position>
              <LatitudeDegrees>40.384310893714427947998046875</LatitudeDegrees>
              <LongitudeDegrees>-5.78037592582404613494873046875</LongitudeDegrees>
            </Position>
            <AltitudeMeters>761.20001220703125</AltitudeMeters>
            <DistanceMeters>NAN</DistanceMeters>
          </Trackpoint>
          <Trackpoint>
            <Time>2019-10-08T07:16:34.000Z</Time>
            <Position>
              <LatitudeDegrees>40.38430879823863506317138671875</LatitudeDegrees>
              <LongitudeDegrees>-5.7806769199669361114501953125</LongitudeDegrees>
            </Position>
            <AltitudeMeters>761</AltitudeMeters>
            <DistanceMeters>NAN</DistanceMeters>
          </Trackpoint>
          <Trackpoint>
            <Time>2019-10-08T07:16:37.000Z</Time>
            <Position>
              <LatitudeDegrees>40.3842986561357975006103515625</LatitudeDegrees>
              <LongitudeDegrees>-5.7809937559068202972412109375</LongitudeDegrees>
            </Position>
            <AltitudeMeters>761</AltitudeMeters>
            <DistanceMeters>NAN</DistanceMeters>
          </Trackpoint>
          <Trackpoint>
            <Time>2019-10-08T07:16:43.000Z</Time>
            <Position>
              <LatitudeDegrees>40.38434316404163837432861328125</LatitudeDegrees>
              <LongitudeDegrees>-5.781613178551197052001953125</LongitudeDegrees>
            </Position>
            <AltitudeMeters>760</AltitudeMeters>
            <DistanceMeters>NAN</DistanceMeters>
          </Trackpoint>
          <Trackpoint>
            <Time>2019-10-08T07:16:44.000Z</Time>
            <Position>
              <LatitudeDegrees>40.3843509592115879058837890625</LatitudeDegrees>
              <LongitudeDegrees>-5.78172038309276103973388671875</LongitudeDegrees>
            </Position>
            <AltitudeMeters>759.5999755859375</AltitudeMeters>
            <DistanceMeters>NAN</DistanceMeters>
          </Trackpoint>
          <Trackpoint>
            <Time>2019-10-08T07:16:46.000Z</Time>
            <Position>
              <LatitudeDegrees>40.38437417708337306976318359375</LatitudeDegrees>
              <LongitudeDegrees>-5.78194770030677318572998046875</LongitudeDegrees>
            </Position>
            <AltitudeMeters>758.5999755859375</AltitudeMeters>
            <DistanceMeters>NAN</DistanceMeters>
          </Trackpoint>
          <Trackpoint>
            <Time>2019-10-08T07:16:48.000Z</Time>
            <Position>
              <LatitudeDegrees>40.38440183736383914947509765625</LatitudeDegrees>
              <LongitudeDegrees>-5.78218306414783000946044921875</LongitudeDegrees>
            </Position>
            <AltitudeMeters>757.5999755859375</AltitudeMeters>
            <DistanceMeters>NAN</DistanceMeters>
          </Trackpoint>
          <Trackpoint>
            <Time>2019-10-08T07:16:49.000Z</Time>
            <Position>
              <LatitudeDegrees>40.38442589342594146728515625</LatitudeDegrees>
              <LongitudeDegrees>-5.78230460174381732940673828125</LongitudeDegrees>
            </Position>
            <AltitudeMeters>756.79998779296875</AltitudeMeters>
            <DistanceMeters>NAN</DistanceMeters>
          </Trackpoint>
          <Trackpoint>
            <Time>2019-10-08T07:16:50.000Z</Time>
            <Position>
              <LatitudeDegrees>40.38446151651442050933837890625</LatitudeDegrees>
              <LongitudeDegrees>-5.7824253849685192108154296875</LongitudeDegrees>
            </Position>
            <AltitudeMeters>755.5999755859375</AltitudeMeters>
            <DistanceMeters>NAN</DistanceMeters>
          </Trackpoint>
          <Trackpoint>
            <Time>2019-10-08T07:16:51.000Z</Time>
            <Position>
              <LatitudeDegrees>40.38451851345598697662353515625</LatitudeDegrees>
              <LongitudeDegrees>-5.7825363613665103912353515625</LongitudeDegrees>
            </Position>
            <AltitudeMeters>755.20001220703125</AltitudeMeters>
            <DistanceMeters>NAN</DistanceMeters>
          </Trackpoint>
          <Trackpoint>
            <Time>2019-10-08T07:16:52.000Z</Time>
            <Position>
              <LatitudeDegrees>40.38458816707134246826171875</LatitudeDegrees>
              <LongitudeDegrees>-5.78263116069138050079345703125</LongitudeDegrees>
            </Position>
            <AltitudeMeters>754.4000244140625</AltitudeMeters>
            <DistanceMeters>NAN</DistanceMeters>
          </Trackpoint>
          <Trackpoint>
            <Time>2019-10-08T07:16:55.000Z</Time>
            <Position>
              <LatitudeDegrees>40.38480835966765880584716796875</LatitudeDegrees>
              <LongitudeDegrees>-5.78282587230205535888671875</LongitudeDegrees>
            </Position>
            <AltitudeMeters>753.4000244140625</AltitudeMeters>
            <DistanceMeters>NAN</DistanceMeters>
          </Trackpoint>
          <Trackpoint>
            <Time>2019-10-08T07:16:57.000Z</Time>
            <Position>
              <LatitudeDegrees>40.38489066995680332183837890625</LatitudeDegrees>
              <LongitudeDegrees>-5.78303718008100986480712890625</LongitudeDegrees>
            </Position>
            <AltitudeMeters>752.5999755859375</AltitudeMeters>
            <DistanceMeters>NAN</DistanceMeters>
          </Trackpoint>
          <Trackpoint>
            <Time>2019-10-08T07:16:58.000Z</Time>
            <Position>
              <LatitudeDegrees>40.38490273989737033843994140625</LatitudeDegrees>
              <LongitudeDegrees>-5.78316039405763149261474609375</LongitudeDegrees>
            </Position>
            <AltitudeMeters>752.20001220703125</AltitudeMeters>
            <DistanceMeters>NAN</DistanceMeters>
          </Trackpoint>
          <Trackpoint>
            <Time>2019-10-08T07:17:00.000Z</Time>
            <Position>
              <LatitudeDegrees>40.3848944418132305145263671875</LatitudeDegrees>
              <LongitudeDegrees>-5.7834181375801563262939453125</LongitudeDegrees>
            </Position>
            <AltitudeMeters>751</AltitudeMeters>
            <DistanceMeters>NAN</DistanceMeters>
          </Trackpoint>
          <Trackpoint>
            <Time>2019-10-08T07:17:01.000Z</Time>
            <Position>
              <LatitudeDegrees>40.38488429971039295196533203125</LatitudeDegrees>
              <LongitudeDegrees>-5.7835499010980129241943359375</LongitudeDegrees>
            </Position>
            <AltitudeMeters>750.20001220703125</AltitudeMeters>
            <DistanceMeters>NAN</DistanceMeters>
          </Trackpoint>
          <Trackpoint>
            <Time>2019-10-08T07:17:02.000Z</Time>
            <Position>
              <LatitudeDegrees>40.38487507961690425872802734375</LatitudeDegrees>
              <LongitudeDegrees>-5.7836840115487575531005859375</LongitudeDegrees>
            </Position>
            <AltitudeMeters>749</AltitudeMeters>
            <DistanceMeters>NAN</DistanceMeters>
          </Trackpoint>
          <Trackpoint>
            <Time>2019-10-08T07:17:04.000Z</Time>
            <Position>
              <LatitudeDegrees>40.38485127501189708709716796875</LatitudeDegrees>
              <LongitudeDegrees>-5.78395642340183258056640625</LongitudeDegrees>
            </Position>
            <AltitudeMeters>747.4000244140625</AltitudeMeters>
            <DistanceMeters>NAN</DistanceMeters>
          </Trackpoint>
          <Trackpoint>
            <Time>2019-10-08T07:17:06.000Z</Time>
            <Position>
              <LatitudeDegrees>40.3848270513117313385009765625</LatitudeDegrees>
              <LongitudeDegrees>-5.7842305116355419158935546875</LongitudeDegrees>
            </Position>
            <AltitudeMeters>746</AltitudeMeters>
            <DistanceMeters>NAN</DistanceMeters>
          </Trackpoint>
          <Trackpoint>
            <Time>2019-10-08T07:17:07.000Z</Time>
            <Position>
              <LatitudeDegrees>40.38481741212308406829833984375</LatitudeDegrees>
              <LongitudeDegrees>-5.78436805866658687591552734375</LongitudeDegrees>
            </Position>
            <AltitudeMeters>745.5999755859375</AltitudeMeters>
            <DistanceMeters>NAN</DistanceMeters>
          </Trackpoint>
          <Trackpoint>
            <Time>2019-10-08T07:17:09.000Z</Time>
            <Position>
              <LatitudeDegrees>40.3847928531467914581298828125</LatitudeDegrees>
              <LongitudeDegrees>-5.78464667312800884246826171875</LongitudeDegrees>
            </Position>
            <AltitudeMeters>744.79998779296875</AltitudeMeters>
            <DistanceMeters>NAN</DistanceMeters>
          </Trackpoint>
          <Trackpoint>
            <Time>2019-10-08T07:17:11.000Z</Time>
            <Position>
              <LatitudeDegrees>40.38476360030472278594970703125</LatitudeDegrees>
              <LongitudeDegrees>-5.7849295623600482940673828125</LongitudeDegrees>
            </Position>
            <AltitudeMeters>743.5999755859375</AltitudeMeters>
            <DistanceMeters>NAN</DistanceMeters>
          </Trackpoint>
          <Trackpoint>
            <Time>2019-10-08T07:17:12.000Z</Time>
            <Position>
              <LatitudeDegrees>40.38474800996482372283935546875</LatitudeDegrees>
              <LongitudeDegrees>-5.78507314436137676239013671875</LongitudeDegrees>
            </Position>
            <AltitudeMeters>742.5999755859375</AltitudeMeters>
            <DistanceMeters>NAN</DistanceMeters>
          </Trackpoint>
          <Trackpoint>
            <Time>2019-10-08T07:17:13.000Z</Time>
            <Position>
              <LatitudeDegrees>40.38473040796816349029541015625</LatitudeDegrees>
              <LongitudeDegrees>-5.7852165587246417999267578125</LongitudeDegrees>
            </Position>
            <AltitudeMeters>741.79998779296875</AltitudeMeters>
            <DistanceMeters>NAN</DistanceMeters>
          </Trackpoint>
          <Trackpoint>
            <Time>2019-10-08T07:17:15.000Z</Time>
            <Position>
              <LatitudeDegrees>40.38468833081424236297607421875</LatitudeDegrees>
              <LongitudeDegrees>-5.78550296835601329803466796875</LongitudeDegrees>
            </Position>
            <AltitudeMeters>740.79998779296875</AltitudeMeters>
            <DistanceMeters>NAN</DistanceMeters>
          </Trackpoint>
          <Trackpoint>
            <Time>2019-10-08T07:17:16.000Z</Time>
            <Position>
              <LatitudeDegrees>40.38465765304863452911376953125</LatitudeDegrees>
              <LongitudeDegrees>-5.7856437005102634429931640625</LongitudeDegrees>
            </Position>
            <AltitudeMeters>740.5999755859375</AltitudeMeters>
            <DistanceMeters>NAN</DistanceMeters>
          </Trackpoint>
          <Trackpoint>
            <Time>2019-10-08T07:17:17.000Z</Time>
            <Position>
              <LatitudeDegrees>40.38462043739855289459228515625</LatitudeDegrees>
              <LongitudeDegrees>-5.785782337188720703125</LongitudeDegrees>
            </Position>
            <AltitudeMeters>739.20001220703125</AltitudeMeters>
            <DistanceMeters>NAN</DistanceMeters>
          </Trackpoint>
          <Trackpoint>
            <Time>2019-10-08T07:17:19.000Z</Time>
            <Position>
              <LatitudeDegrees>40.38452806882560253143310546875</LatitudeDegrees>
              <LongitudeDegrees>-5.78605181537568569183349609375</LongitudeDegrees>
            </Position>
            <AltitudeMeters>738.20001220703125</AltitudeMeters>
            <DistanceMeters>NAN</DistanceMeters>
          </Trackpoint>
          <Trackpoint>
            <Time>2019-10-08T07:17:21.000Z</Time>
            <Position>
              <LatitudeDegrees>40.38441709242761135101318359375</LatitudeDegrees>
              <LongitudeDegrees>-5.7863192819058895111083984375</LongitudeDegrees>
            </Position>
            <AltitudeMeters>736.79998779296875</AltitudeMeters>
            <DistanceMeters>NAN</DistanceMeters>
          </Trackpoint>
          <Trackpoint>
            <Time>2019-10-08T07:17:23.000Z</Time>
            <Position>
              <LatitudeDegrees>40.3842822276055812835693359375</LatitudeDegrees>
              <LongitudeDegrees>-5.786565877497196197509765625</LongitudeDegrees>
            </Position>
            <AltitudeMeters>735.20001220703125</AltitudeMeters>
            <DistanceMeters>NAN</DistanceMeters>
          </Trackpoint>
          <Trackpoint>
            <Time>2019-10-08T07:17:24.000Z</Time>
            <Position>
              <LatitudeDegrees>40.3842044435441493988037109375</LatitudeDegrees>
              <LongitudeDegrees>-5.786679871380329132080078125</LongitudeDegrees>
            </Position>
            <AltitudeMeters>734.79998779296875</AltitudeMeters>
            <DistanceMeters>NAN</DistanceMeters>
          </Trackpoint>
          <Trackpoint>
            <Time>2019-10-08T07:17:26.000Z</Time>
            <Position>
              <LatitudeDegrees>40.384031943976879119873046875</LatitudeDegrees>
              <LongitudeDegrees>-5.786890089511871337890625</LongitudeDegrees>
            </Position>
            <AltitudeMeters>733.4000244140625</AltitudeMeters>
            <DistanceMeters>NAN</DistanceMeters>
          </Trackpoint>
          <Trackpoint>
            <Time>2019-10-08T07:17:27.000Z</Time>
            <Position>
              <LatitudeDegrees>40.38394175469875335693359375</LatitudeDegrees>
              <LongitudeDegrees>-5.78699142672121524810791015625</LongitudeDegrees>
            </Position>
            <AltitudeMeters>732.20001220703125</AltitudeMeters>
            <DistanceMeters>NAN</DistanceMeters>
          </Trackpoint>
          <Trackpoint>
            <Time>2019-10-08T07:17:28.000Z</Time>
            <Position>
              <LatitudeDegrees>40.38384963758289813995361328125</LatitudeDegrees>
              <LongitudeDegrees>-5.7870924286544322967529296875</LongitudeDegrees>
            </Position>
            <AltitudeMeters>731.20001220703125</AltitudeMeters>
            <DistanceMeters>NAN</DistanceMeters>
          </Trackpoint>
          <Trackpoint>
            <Time>2019-10-08T07:17:29.000Z</Time>
            <Position>
              <LatitudeDegrees>40.38375894539058208465576171875</LatitudeDegrees>
              <LongitudeDegrees>-5.78719426877796649932861328125</LongitudeDegrees>
            </Position>
            <AltitudeMeters>730</AltitudeMeters>
            <DistanceMeters>NAN</DistanceMeters>
          </Trackpoint>
          <Trackpoint>
            <Time>2019-10-08T07:17:31.000Z</Time>
            <Position>
              <LatitudeDegrees>40.3835962526500225067138671875</LatitudeDegrees>
              <LongitudeDegrees>-5.7874246872961521148681640625</LongitudeDegrees>
            </Position>
            <AltitudeMeters>728.79998779296875</AltitudeMeters>
            <DistanceMeters>NAN</DistanceMeters>
          </Trackpoint>
          <Trackpoint>
            <Time>2019-10-08T07:17:32.000Z</Time>
            <Position>
              <LatitudeDegrees>40.38353548385202884674072265625</LatitudeDegrees>
              <LongitudeDegrees>-5.78755603171885013580322265625</LongitudeDegrees>
            </Position>
            <AltitudeMeters>728.5999755859375</AltitudeMeters>
            <DistanceMeters>NAN</DistanceMeters>
          </Trackpoint>
          <Trackpoint>
            <Time>2019-10-08T07:17:36.000Z</Time>
            <Position>
              <LatitudeDegrees>40.3833531774580478668212890625</LatitudeDegrees>
              <LongitudeDegrees>-5.78808040358126163482666015625</LongitudeDegrees>
            </Position>
            <AltitudeMeters>728.79998779296875</AltitudeMeters>
            <DistanceMeters>NAN</DistanceMeters>
          </Trackpoint>
          <Trackpoint>
            <Time>2019-10-08T07:17:38.000Z</Time>
            <Position>
              <LatitudeDegrees>40.38327916525304317474365234375</LatitudeDegrees>
              <LongitudeDegrees>-5.78835348598659038543701171875</LongitudeDegrees>
            </Position>
            <AltitudeMeters>727.79998779296875</AltitudeMeters>
            <DistanceMeters>NAN</DistanceMeters>
          </Trackpoint>
          <Trackpoint>
            <Time>2019-10-08T07:17:41.000Z</Time>
            <Position>
              <LatitudeDegrees>40.38318805396556854248046875</LatitudeDegrees>
              <LongitudeDegrees>-5.78877543099224567413330078125</LongitudeDegrees>
            </Position>
            <AltitudeMeters>726</AltitudeMeters>
            <DistanceMeters>NAN</DistanceMeters>
          </Trackpoint>
          <Trackpoint>
            <Time>2019-10-08T07:17:42.000Z</Time>
            <Position>
              <LatitudeDegrees>40.383169949054718017578125</LatitudeDegrees>
              <LongitudeDegrees>-5.788921527564525604248046875</LongitudeDegrees>
            </Position>
            <AltitudeMeters>725.20001220703125</AltitudeMeters>
            <DistanceMeters>NAN</DistanceMeters>
          </Trackpoint>
          <Trackpoint>
            <Time>2019-10-08T07:17:43.000Z</Time>
            <Position>
              <LatitudeDegrees>40.3831664286553859710693359375</LatitudeDegrees>
              <LongitudeDegrees>-5.7890661992132663726806640625</LongitudeDegrees>
            </Position>
            <AltitudeMeters>724.79998779296875</AltitudeMeters>
            <DistanceMeters>NAN</DistanceMeters>
          </Trackpoint>
          <Trackpoint>
            <Time>2019-10-08T07:17:45.000Z</Time>
            <Position>
              <LatitudeDegrees>40.38322216831147670745849609375</LatitudeDegrees>
              <LongitudeDegrees>-5.789331234991550445556640625</LongitudeDegrees>
            </Position>
            <AltitudeMeters>725</AltitudeMeters>
            <DistanceMeters>NAN</DistanceMeters>
          </Trackpoint>
          <Trackpoint>
            <Time>2019-10-08T07:17:46.000Z</Time>
            <Position>
              <LatitudeDegrees>40.38326206617057323455810546875</LatitudeDegrees>
              <LongitudeDegrees>-5.78944145701825618743896484375</LongitudeDegrees>
            </Position>
            <AltitudeMeters>725.5999755859375</AltitudeMeters>
            <DistanceMeters>NAN</DistanceMeters>
          </Trackpoint>
          <Trackpoint>
            <Time>2019-10-08T07:17:47.000Z</Time>
            <Position>
              <LatitudeDegrees>40.38330716080963611602783203125</LatitudeDegrees>
              <LongitudeDegrees>-5.7895466499030590057373046875</LongitudeDegrees>
            </Position>
            <AltitudeMeters>726.5999755859375</AltitudeMeters>
            <DistanceMeters>NAN</DistanceMeters>
          </Trackpoint>
          <Trackpoint>
            <Time>2019-10-08T07:17:49.000Z</Time>
            <Position>
              <LatitudeDegrees>40.38339500315487384796142578125</LatitudeDegrees>
              <LongitudeDegrees>-5.78973297961056232452392578125</LongitudeDegrees>
            </Position>
            <AltitudeMeters>727.5999755859375</AltitudeMeters>
            <DistanceMeters>NAN</DistanceMeters>
          </Trackpoint>
          <Trackpoint>
            <Time>2019-10-08T07:17:51.000Z</Time>
            <Position>
              <LatitudeDegrees>40.3834691829979419708251953125</LatitudeDegrees>
              <LongitudeDegrees>-5.78991034068167209625244140625</LongitudeDegrees>
            </Position>
            <AltitudeMeters>728.5999755859375</AltitudeMeters>
            <DistanceMeters>NAN</DistanceMeters>
          </Trackpoint>
          <Trackpoint>
            <Time>2019-10-08T07:17:52.000Z</Time>
            <Position>
              <LatitudeDegrees>40.383502878248691558837890625</LatitudeDegrees>
              <LongitudeDegrees>-5.78999332152307033538818359375</LongitudeDegrees>
            </Position>
            <AltitudeMeters>729.4000244140625</AltitudeMeters>
            <DistanceMeters>NAN</DistanceMeters>
          </Trackpoint>
          <Trackpoint>
            <Time>2019-10-08T07:17:53.000Z</Time>
            <Position>
              <LatitudeDegrees>40.3835315443575382232666015625</LatitudeDegrees>
              <LongitudeDegrees>-5.79007294960319995880126953125</LongitudeDegrees>
            </Position>
            <AltitudeMeters>730</AltitudeMeters>
            <DistanceMeters>NAN</DistanceMeters>
          </Trackpoint>
          <Trackpoint>
            <Time>2019-10-08T07:17:54.000Z</Time>
            <Position>
              <LatitudeDegrees>40.38355811499059200286865234375</LatitudeDegrees>
              <LongitudeDegrees>-5.79015023075044155120849609375</LongitudeDegrees>
            </Position>
            <AltitudeMeters>730.4000244140625</AltitudeMeters>
            <DistanceMeters>NAN</DistanceMeters>
          </Trackpoint>
          <Trackpoint>
            <Time>2019-10-08T07:17:55.000Z</Time>
            <Position>
              <LatitudeDegrees>40.38358175195753574371337890625</LatitudeDegrees>
              <LongitudeDegrees>-5.7902242429554462432861328125</LongitudeDegrees>
            </Position>
            <AltitudeMeters>730.79998779296875</AltitudeMeters>
            <DistanceMeters>NAN</DistanceMeters>
          </Trackpoint>
          <Trackpoint>
            <Time>2019-10-08T07:17:56.000Z</Time>
            <Position>
              <LatitudeDegrees>40.3835999406874179840087890625</LatitudeDegrees>
              <LongitudeDegrees>-5.79029507003724575042724609375</LongitudeDegrees>
            </Position>
            <AltitudeMeters>731.4000244140625</AltitudeMeters>
            <DistanceMeters>NAN</DistanceMeters>
          </Trackpoint>
          <Trackpoint>
            <Time>2019-10-08T07:17:58.000Z</Time>
            <Position>
              <LatitudeDegrees>40.38363003171980381011962890625</LatitudeDegrees>
              <LongitudeDegrees>-5.79042599536478519439697265625</LongitudeDegrees>
            </Position>
            <AltitudeMeters>732.20001220703125</AltitudeMeters>
            <DistanceMeters>NAN</DistanceMeters>
          </Trackpoint>
          <Trackpoint>
            <Time>2019-10-08T07:17:59.000Z</Time>
            <Position>
              <LatitudeDegrees>40.3836388327181339263916015625</LatitudeDegrees>
              <LongitudeDegrees>-5.79048684798181056976318359375</LongitudeDegrees>
            </Position>
            <AltitudeMeters>732.4000244140625</AltitudeMeters>
            <DistanceMeters>NAN</DistanceMeters>
          </Trackpoint>
          <Trackpoint>
            <Time>2019-10-08T07:18:03.000Z</Time>
            <Position>
              <LatitudeDegrees>40.38367143832147121429443359375</LatitudeDegrees>
              <LongitudeDegrees>-5.79073579050600528717041015625</LongitudeDegrees>
            </Position>
            <AltitudeMeters>733.5999755859375</AltitudeMeters>
            <DistanceMeters>NAN</DistanceMeters>
          </Trackpoint>
          <Trackpoint>
            <Time>2019-10-08T07:18:05.000Z</Time>
            <Position>
              <LatitudeDegrees>40.38368158042430877685546875</LatitudeDegrees>
              <LongitudeDegrees>-5.79085799865424633026123046875</LongitudeDegrees>
            </Position>
            <AltitudeMeters>733.5999755859375</AltitudeMeters>
            <DistanceMeters>NAN</DistanceMeters>
          </Trackpoint>
          <Trackpoint>
            <Time>2019-10-08T07:18:08.000Z</Time>
            <Position>
              <LatitudeDegrees>40.38369423709809780120849609375</LatitudeDegrees>
              <LongitudeDegrees>-5.79103720374405384063720703125</LongitudeDegrees>
            </Position>
            <AltitudeMeters>733.79998779296875</AltitudeMeters>
            <DistanceMeters>NAN</DistanceMeters>
          </Trackpoint>
          <Trackpoint>
            <Time>2019-10-08T07:18:10.000Z</Time>
            <Position>
              <LatitudeDegrees>40.3837028704583644866943359375</LatitudeDegrees>
              <LongitudeDegrees>-5.7911459170281887054443359375</LongitudeDegrees>
            </Position>
            <AltitudeMeters>734.4000244140625</AltitudeMeters>
            <DistanceMeters>NAN</DistanceMeters>
          </Trackpoint>
          <Trackpoint>
            <Time>2019-10-08T07:18:12.000Z</Time>
            <Position>
              <LatitudeDegrees>40.38370999507606029510498046875</LatitudeDegrees>
              <LongitudeDegrees>-5.7912542112171649932861328125</LongitudeDegrees>
            </Position>
            <AltitudeMeters>734.5999755859375</AltitudeMeters>
            <DistanceMeters>NAN</DistanceMeters>
          </Trackpoint>
          <Trackpoint>
            <Time>2019-10-08T07:18:14.000Z</Time>
            <Position>
              <LatitudeDegrees>40.3837196342647075653076171875</LatitudeDegrees>
              <LongitudeDegrees>-5.7913638465106487274169921875</LongitudeDegrees>
            </Position>
            <AltitudeMeters>735.4000244140625</AltitudeMeters>
            <DistanceMeters>NAN</DistanceMeters>
          </Trackpoint>
          <Trackpoint>
            <Time>2019-10-08T07:18:17.000Z</Time>
            <Position>
              <LatitudeDegrees>40.38373279385268688201904296875</LatitudeDegrees>
              <LongitudeDegrees>-5.791521929204463958740234375</LongitudeDegrees>
            </Position>
            <AltitudeMeters>735.20001220703125</AltitudeMeters>
            <DistanceMeters>NAN</DistanceMeters>
          </Trackpoint>
          <Trackpoint>
            <Time>2019-10-08T07:18:20.000Z</Time>
            <Position>
              <LatitudeDegrees>40.383739583194255828857421875</LatitudeDegrees>
              <LongitudeDegrees>-5.7916803471744060516357421875</LongitudeDegrees>
            </Position>
            <AltitudeMeters>735.79998779296875</AltitudeMeters>
            <DistanceMeters>NAN</DistanceMeters>
          </Trackpoint>
          <Trackpoint>
            <Time>2019-10-08T07:18:22.000Z</Time>
            <Position>
              <LatitudeDegrees>40.38374369032680988311767578125</LatitudeDegrees>
              <LongitudeDegrees>-5.79178805463016033172607421875</LongitudeDegrees>
            </Position>
            <AltitudeMeters>736.4000244140625</AltitudeMeters>
            <DistanceMeters>NAN</DistanceMeters>
          </Trackpoint>
          <Trackpoint>
            <Time>2019-10-08T07:18:25.000Z</Time>
            <Position>
              <LatitudeDegrees>40.383749641478061676025390625</LatitudeDegrees>
              <LongitudeDegrees>-5.7919539324939250946044921875</LongitudeDegrees>
            </Position>
            <AltitudeMeters>736.4000244140625</AltitudeMeters>
            <DistanceMeters>NAN</DistanceMeters>
          </Trackpoint>
          <Trackpoint>
            <Time>2019-10-08T07:18:29.000Z</Time>
            <Position>
              <LatitudeDegrees>40.383746959269046783447265625</LatitudeDegrees>
              <LongitudeDegrees>-5.79217144288122653961181640625</LongitudeDegrees>
            </Position>
            <AltitudeMeters>736.79998779296875</AltitudeMeters>
            <DistanceMeters>NAN</DistanceMeters>
          </Trackpoint>
          <Trackpoint>
            <Time>2019-10-08T07:18:31.000Z</Time>
            <Position>
              <LatitudeDegrees>40.38374318741261959075927734375</LatitudeDegrees>
              <LongitudeDegrees>-5.79228091053664684295654296875</LongitudeDegrees>
            </Position>
            <AltitudeMeters>736.79998779296875</AltitudeMeters>
            <DistanceMeters>NAN</DistanceMeters>
          </Trackpoint>
          <Trackpoint>
            <Time>2019-10-08T07:18:37.000Z</Time>
            <Position>
              <LatitudeDegrees>40.3837068937718868255615234375</LatitudeDegrees>
              <LongitudeDegrees>-5.79266153275966644287109375</LongitudeDegrees>
            </Position>
            <AltitudeMeters>735.20001220703125</AltitudeMeters>
            <DistanceMeters>NAN</DistanceMeters>
          </Trackpoint>
          <Trackpoint>
            <Time>2019-10-08T07:18:40.000Z</Time>
            <Position>
              <LatitudeDegrees>40.38367009721696376800537109375</LatitudeDegrees>
              <LongitudeDegrees>-5.7928672246634960174560546875</LongitudeDegrees>
            </Position>
            <AltitudeMeters>734.79998779296875</AltitudeMeters>
            <DistanceMeters>NAN</DistanceMeters>
          </Trackpoint>
          <Trackpoint>
            <Time>2019-10-08T07:18:41.000Z</Time>
            <Position>
              <LatitudeDegrees>40.3836582787334918975830078125</LatitudeDegrees>
              <LongitudeDegrees>-5.79293872229754924774169921875</LongitudeDegrees>
            </Position>
            <AltitudeMeters>734.5999755859375</AltitudeMeters>
            <DistanceMeters>NAN</DistanceMeters>
          </Trackpoint>
          <Trackpoint>
            <Time>2019-10-08T07:18:45.000Z</Time>
            <Position>
              <LatitudeDegrees>40.38358904421329498291015625</LatitudeDegrees>
              <LongitudeDegrees>-5.79322689212858676910400390625</LongitudeDegrees>
            </Position>
            <AltitudeMeters>734</AltitudeMeters>
            <DistanceMeters>NAN</DistanceMeters>
          </Trackpoint>
          <Trackpoint>
            <Time>2019-10-08T07:18:52.000Z</Time>
            <Position>
              <LatitudeDegrees>40.38342786021530628204345703125</LatitudeDegrees>
              <LongitudeDegrees>-5.7936852984130382537841796875</LongitudeDegrees>
            </Position>
            <AltitudeMeters>734.79998779296875</AltitudeMeters>
            <DistanceMeters>NAN</DistanceMeters>
          </Trackpoint>
          <Trackpoint>
            <Time>2019-10-08T07:18:57.000Z</Time>
            <Position>
              <LatitudeDegrees>40.38328771479427814483642578125</LatitudeDegrees>
              <LongitudeDegrees>-5.79397338442504405975341796875</LongitudeDegrees>
            </Position>
            <AltitudeMeters>735.20001220703125</AltitudeMeters>
            <DistanceMeters>NAN</DistanceMeters>
          </Trackpoint>
          <Trackpoint>
            <Time>2019-10-08T07:19:07.000Z</Time>
            <Position>
              <LatitudeDegrees>40.38302536122500896453857421875</LatitudeDegrees>
              <LongitudeDegrees>-5.794521309435367584228515625</LongitudeDegrees>
            </Position>
            <AltitudeMeters>735.79998779296875</AltitudeMeters>
            <DistanceMeters>NAN</DistanceMeters>
          </Trackpoint>
          <Trackpoint>
            <Time>2019-10-08T07:19:14.000Z</Time>
            <Position>
              <LatitudeDegrees>40.38286644034087657928466796875</LatitudeDegrees>
              <LongitudeDegrees>-5.79485566355288028717041015625</LongitudeDegrees>
            </Position>
            <AltitudeMeters>737.20001220703125</AltitudeMeters>
            <DistanceMeters>NAN</DistanceMeters>
          </Trackpoint>
          <Trackpoint>
            <Time>2019-10-08T07:19:15.000Z</Time>
            <Position>
              <LatitudeDegrees>40.38284515030682086944580078125</LatitudeDegrees>
              <LongitudeDegrees>-5.79490226693451404571533203125</LongitudeDegrees>
            </Position>
            <AltitudeMeters>737.20001220703125</AltitudeMeters>
            <DistanceMeters>NAN</DistanceMeters>
          </Trackpoint>
          <Trackpoint>
            <Time>2019-10-08T07:19:24.000Z</Time>
            <Position>
              <LatitudeDegrees>40.382680781185626983642578125</LatitudeDegrees>
              <LongitudeDegrees>-5.79534030519425868988037109375</LongitudeDegrees>
            </Position>
            <AltitudeMeters>738.4000244140625</AltitudeMeters>
            <DistanceMeters>NAN</DistanceMeters>
          </Trackpoint>
          <Trackpoint>
            <Time>2019-10-08T07:19:28.000Z</Time>
            <Position>
              <LatitudeDegrees>40.38261716254055500030517578125</LatitudeDegrees>
              <LongitudeDegrees>-5.7955413870513439178466796875</LongitudeDegrees>
            </Position>
            <AltitudeMeters>738.20001220703125</AltitudeMeters>
            <DistanceMeters>NAN</DistanceMeters>
          </Trackpoint>
          <Trackpoint>
            <Time>2019-10-08T07:19:30.000Z</Time>
            <Position>
              <LatitudeDegrees>40.38256150670349597930908203125</LatitudeDegrees>
              <LongitudeDegrees>-5.795618332922458648681640625</LongitudeDegrees>
            </Position>
            <AltitudeMeters>738.5999755859375</AltitudeMeters>
            <DistanceMeters>NAN</DistanceMeters>
          </Trackpoint>
          <Trackpoint>
            <Time>2019-10-08T07:19:31.000Z</Time>
            <Position>
              <LatitudeDegrees>40.38253954611718654632568359375</LatitudeDegrees>
              <LongitudeDegrees>-5.79566468484699726104736328125</LongitudeDegrees>
            </Position>
            <AltitudeMeters>738.5999755859375</AltitudeMeters>
            <DistanceMeters>NAN</DistanceMeters>
          </Trackpoint>
          <Trackpoint>
            <Time>2019-10-08T07:19:35.000Z</Time>
            <Position>
              <LatitudeDegrees>40.38248003460466861724853515625</LatitudeDegrees>
              <LongitudeDegrees>-5.79587155021727085113525390625</LongitudeDegrees>
            </Position>
            <AltitudeMeters>739</AltitudeMeters>
            <DistanceMeters>NAN</DistanceMeters>
          </Trackpoint>
          <Trackpoint>
            <Time>2019-10-08T07:19:44.000Z</Time>
            <Position>
              <LatitudeDegrees>40.38238364271819591522216796875</LatitudeDegrees>
              <LongitudeDegrees>-5.7963453792035579681396484375</LongitudeDegrees>
            </Position>
            <AltitudeMeters>739.5999755859375</AltitudeMeters>
            <DistanceMeters>NAN</DistanceMeters>
          </Trackpoint>
          <Trackpoint>
            <Time>2019-10-08T07:19:45.000Z</Time>
            <Position>
              <LatitudeDegrees>40.38237308152019977569580078125</LatitudeDegrees>
              <LongitudeDegrees>-5.79639977775514125823974609375</LongitudeDegrees>
            </Position>
            <AltitudeMeters>739.5999755859375</AltitudeMeters>
            <DistanceMeters>NAN</DistanceMeters>
          </Trackpoint>
          <Trackpoint>
            <Time>2019-10-08T07:19:53.000Z</Time>
            <Position>
              <LatitudeDegrees>40.3823007456958293914794921875</LatitudeDegrees>
              <LongitudeDegrees>-5.79681786708533763885498046875</LongitudeDegrees>
            </Position>
            <AltitudeMeters>740</AltitudeMeters>
            <DistanceMeters>NAN</DistanceMeters>
          </Trackpoint>
          <Trackpoint>
            <Time>2019-10-08T07:19:56.000Z</Time>
            <Position>
              <LatitudeDegrees>40.38219488225877285003662109375</LatitudeDegrees>
              <LongitudeDegrees>-5.7968543283641338348388671875</LongitudeDegrees>
            </Position>
            <AltitudeMeters>740.5999755859375</AltitudeMeters>
            <DistanceMeters>NAN</DistanceMeters>
          </Trackpoint>
          <Trackpoint>
            <Time>2019-10-08T07:19:59.000Z</Time>
            <Position>
              <LatitudeDegrees>40.38209513761103153228759765625</LatitudeDegrees>
              <LongitudeDegrees>-5.796825997531414031982421875</LongitudeDegrees>
            </Position>
            <AltitudeMeters>741.5999755859375</AltitudeMeters>
            <DistanceMeters>NAN</DistanceMeters>
          </Trackpoint>
          <Trackpoint>
            <Time>2019-10-08T07:20:00.000Z</Time>
            <Position>
              <LatitudeDegrees>40.38206228055059909820556640625</LatitudeDegrees>
              <LongitudeDegrees>-5.79681401140987873077392578125</LongitudeDegrees>
            </Position>
            <AltitudeMeters>741.5999755859375</AltitudeMeters>
            <DistanceMeters>NAN</DistanceMeters>
          </Trackpoint>
          <Trackpoint>
            <Time>2019-10-08T07:20:01.000Z</Time>
            <Position>
              <LatitudeDegrees>40.382029674947261810302734375</LatitudeDegrees>
              <LongitudeDegrees>-5.796807892620563507080078125</LongitudeDegrees>
            </Position>
            <AltitudeMeters>741.5999755859375</AltitudeMeters>
            <DistanceMeters>NAN</DistanceMeters>
          </Trackpoint>
          <Trackpoint>
            <Time>2019-10-08T07:20:06.000Z</Time>
            <Position>
              <LatitudeDegrees>40.38186681456863880157470703125</LatitudeDegrees>
              <LongitudeDegrees>-5.7968489639461040496826171875</LongitudeDegrees>
            </Position>
            <AltitudeMeters>742.20001220703125</AltitudeMeters>
            <DistanceMeters>NAN</DistanceMeters>
          </Trackpoint>
          <Trackpoint>
            <Time>2019-10-08T07:20:08.000Z</Time>
            <Position>
              <LatitudeDegrees>40.38180294446647167205810546875</LatitudeDegrees>
              <LongitudeDegrees>-5.796875618398189544677734375</LongitudeDegrees>
            </Position>
            <AltitudeMeters>742.5999755859375</AltitudeMeters>
            <DistanceMeters>NAN</DistanceMeters>
          </Trackpoint>
          <Trackpoint>
            <Time>2019-10-08T07:20:09.000Z</Time>
            <Position>
              <LatitudeDegrees>40.381768830120563507080078125</LatitudeDegrees>
              <LongitudeDegrees>-5.7968878559768199920654296875</LongitudeDegrees>
            </Position>
            <AltitudeMeters>743.20001220703125</AltitudeMeters>
            <DistanceMeters>NAN</DistanceMeters>
          </Trackpoint>
          <Trackpoint>
            <Time>2019-10-08T07:20:11.000Z</Time>
            <Position>
              <LatitudeDegrees>40.38171426393091678619384765625</LatitudeDegrees>
              <LongitudeDegrees>-5.7969069667160511016845703125</LongitudeDegrees>
            </Position>
            <AltitudeMeters>743.79998779296875</AltitudeMeters>
            <DistanceMeters>NAN</DistanceMeters>
          </Trackpoint>
          <Trackpoint>
            <Time>2019-10-08T07:20:12.000Z</Time>
            <Position>
              <LatitudeDegrees>40.38169138133525848388671875</LatitudeDegrees>
              <LongitudeDegrees>-5.79691660590469837188720703125</LongitudeDegrees>
            </Position>
            <AltitudeMeters>744.4000244140625</AltitudeMeters>
            <DistanceMeters>NAN</DistanceMeters>
          </Trackpoint>
          <Trackpoint>
            <Time>2019-10-08T07:20:15.000Z</Time>
            <Position>
              <LatitudeDegrees>40.3816409222781658172607421875</LatitudeDegrees>
              <LongitudeDegrees>-5.7969684898853302001953125</LongitudeDegrees>
            </Position>
            <AltitudeMeters>745.20001220703125</AltitudeMeters>
            <DistanceMeters>NAN</DistanceMeters>
          </Trackpoint>
          <Trackpoint>
            <Time>2019-10-08T07:20:18.000Z</Time>
            <Position>
              <LatitudeDegrees>40.381598509848117828369140625</LatitudeDegrees>
              <LongitudeDegrees>-5.797031857073307037353515625</LongitudeDegrees>
            </Position>
            <AltitudeMeters>745.4000244140625</AltitudeMeters>
            <DistanceMeters>NAN</DistanceMeters>
          </Trackpoint>
          <Trackpoint>
            <Time>2019-10-08T07:20:21.000Z</Time>
            <Position>
              <LatitudeDegrees>40.3815604560077190399169921875</LatitudeDegrees>
              <LongitudeDegrees>-5.7971064560115337371826171875</LongitudeDegrees>
            </Position>
            <AltitudeMeters>746.20001220703125</AltitudeMeters>
            <DistanceMeters>NAN</DistanceMeters>
          </Trackpoint>
          <Trackpoint>
            <Time>2019-10-08T07:20:26.000Z</Time>
            <Position>
              <LatitudeDegrees>40.38152365945279598236083984375</LatitudeDegrees>
              <LongitudeDegrees>-5.79724819399416446685791015625</LongitudeDegrees>
            </Position>
            <AltitudeMeters>746.79998779296875</AltitudeMeters>
            <DistanceMeters>NAN</DistanceMeters>
          </Trackpoint>
          <Trackpoint>
            <Time>2019-10-08T07:20:28.000Z</Time>
            <Position>
              <LatitudeDegrees>40.38151812739670276641845703125</LatitudeDegrees>
              <LongitudeDegrees>-5.7973126508295536041259765625</LongitudeDegrees>
            </Position>
            <AltitudeMeters>747.4000244140625</AltitudeMeters>
            <DistanceMeters>NAN</DistanceMeters>
          </Trackpoint>
          <Trackpoint>
            <Time>2019-10-08T07:20:34.000Z</Time>
            <Position>
              <LatitudeDegrees>40.38149834610521793365478515625</LatitudeDegrees>
              <LongitudeDegrees>-5.797515325248241424560546875</LongitudeDegrees>
            </Position>
            <AltitudeMeters>748.20001220703125</AltitudeMeters>
            <DistanceMeters>NAN</DistanceMeters>
          </Trackpoint>
          <Trackpoint>
            <Time>2019-10-08T07:20:41.000Z</Time>
            <Position>
              <LatitudeDegrees>40.38149197585880756378173828125</LatitudeDegrees>
              <LongitudeDegrees>-5.79775596968829631805419921875</LongitudeDegrees>
            </Position>
            <AltitudeMeters>748.5999755859375</AltitudeMeters>
            <DistanceMeters>NAN</DistanceMeters>
          </Trackpoint>
          <Trackpoint>
            <Time>2019-10-08T07:20:44.000Z</Time>
            <Position>
              <LatitudeDegrees>40.3815061412751674652099609375</LatitudeDegrees>
              <LongitudeDegrees>-5.7978578098118305206298828125</LongitudeDegrees>
            </Position>
            <AltitudeMeters>749</AltitudeMeters>
            <DistanceMeters>NAN</DistanceMeters>
          </Trackpoint>
          <Trackpoint>
            <Time>2019-10-08T07:20:51.000Z</Time>
            <Position>
              <LatitudeDegrees>40.38159507326781749725341796875</LatitudeDegrees>
              <LongitudeDegrees>-5.79807096160948276519775390625</LongitudeDegrees>
            </Position>
            <AltitudeMeters>749.5999755859375</AltitudeMeters>
            <DistanceMeters>NAN</DistanceMeters>
          </Trackpoint>
          <Trackpoint>
            <Time>2019-10-08T07:21:00.000Z</Time>
            <Position>
              <LatitudeDegrees>40.38175986148416996002197265625</LatitudeDegrees>
              <LongitudeDegrees>-5.79831336624920368194580078125</LongitudeDegrees>
            </Position>
            <AltitudeMeters>750.20001220703125</AltitudeMeters>
            <DistanceMeters>NAN</DistanceMeters>
          </Trackpoint>
          <Trackpoint>
            <Time>2019-10-08T07:21:03.000Z</Time>
            <Position>
              <LatitudeDegrees>40.38181099109351634979248046875</LatitudeDegrees>
              <LongitudeDegrees>-5.7984009571373462677001953125</LongitudeDegrees>
            </Position>
            <AltitudeMeters>750.79998779296875</AltitudeMeters>
            <DistanceMeters>NAN</DistanceMeters>
          </Trackpoint>
          <Trackpoint>
            <Time>2019-10-08T07:21:10.000Z</Time>
            <Position>
              <LatitudeDegrees>40.38190185092389583587646484375</LatitudeDegrees>
              <LongitudeDegrees>-5.79863036982715129852294921875</LongitudeDegrees>
            </Position>
            <AltitudeMeters>751.5999755859375</AltitudeMeters>
            <DistanceMeters>NAN</DistanceMeters>
          </Trackpoint>
          <Trackpoint>
            <Time>2019-10-08T07:21:14.000Z</Time>
            <Position>
              <LatitudeDegrees>40.3819352947175502777099609375</LatitudeDegrees>
              <LongitudeDegrees>-5.7987657375633716583251953125</LongitudeDegrees>
            </Position>
            <AltitudeMeters>752</AltitudeMeters>
            <DistanceMeters>NAN</DistanceMeters>
          </Trackpoint>
          <Trackpoint>
            <Time>2019-10-08T07:21:19.000Z</Time>
            <Position>
              <LatitudeDegrees>40.38196186535060405731201171875</LatitudeDegrees>
              <LongitudeDegrees>-5.79894552938640117645263671875</LongitudeDegrees>
            </Position>
            <AltitudeMeters>752.20001220703125</AltitudeMeters>
            <DistanceMeters>NAN</DistanceMeters>
          </Trackpoint>
          <Trackpoint>
            <Time>2019-10-08T07:21:25.000Z</Time>
            <Position>
              <LatitudeDegrees>40.38196496665477752685546875</LatitudeDegrees>
              <LongitudeDegrees>-5.79916848801076412200927734375</LongitudeDegrees>
            </Position>
            <AltitudeMeters>753.20001220703125</AltitudeMeters>
            <DistanceMeters>NAN</DistanceMeters>
          </Trackpoint>
          <Trackpoint>
            <Time>2019-10-08T07:21:30.000Z</Time>
            <Position>
              <LatitudeDegrees>40.3819601051509380340576171875</LatitudeDegrees>
              <LongitudeDegrees>-5.799355991184711456298828125</LongitudeDegrees>
            </Position>
            <AltitudeMeters>753.79998779296875</AltitudeMeters>
            <DistanceMeters>NAN</DistanceMeters>
          </Trackpoint>
          <Trackpoint>
            <Time>2019-10-08T07:21:35.000Z</Time>
            <Position>
              <LatitudeDegrees>40.3819446824491024017333984375</LatitudeDegrees>
              <LongitudeDegrees>-5.7995687238872051239013671875</LongitudeDegrees>
            </Position>
            <AltitudeMeters>754</AltitudeMeters>
            <DistanceMeters>NAN</DistanceMeters>
          </Trackpoint>
          <Trackpoint>
            <Time>2019-10-08T07:21:37.000Z</Time>
            <Position>
              <LatitudeDegrees>40.381941832602024078369140625</LatitudeDegrees>
              <LongitudeDegrees>-5.79961423762142658233642578125</LongitudeDegrees>
            </Position>
            <AltitudeMeters>754.20001220703125</AltitudeMeters>
            <DistanceMeters>NAN</DistanceMeters>
          </Trackpoint>
          <Trackpoint>
            <Time>2019-10-08T07:21:41.000Z</Time>
            <Position>
              <LatitudeDegrees>40.38193487562239170074462890625</LatitudeDegrees>
              <LongitudeDegrees>-5.7997561432421207427978515625</LongitudeDegrees>
            </Position>
            <AltitudeMeters>754.79998779296875</AltitudeMeters>
            <DistanceMeters>NAN</DistanceMeters>
          </Trackpoint>
          <Trackpoint>
            <Time>2019-10-08T07:21:44.000Z</Time>
            <Position>
              <LatitudeDegrees>40.3819309361279010772705078125</LatitudeDegrees>
              <LongitudeDegrees>-5.799861587584018707275390625</LongitudeDegrees>
            </Position>
            <AltitudeMeters>755.20001220703125</AltitudeMeters>
            <DistanceMeters>NAN</DistanceMeters>
          </Trackpoint>
          <Trackpoint>
            <Time>2019-10-08T07:21:50.000Z</Time>
            <Position>
              <LatitudeDegrees>40.38192582316696643829345703125</LatitudeDegrees>
              <LongitudeDegrees>-5.8000780083239078521728515625</LongitudeDegrees>
            </Position>
            <AltitudeMeters>755.5999755859375</AltitudeMeters>
            <DistanceMeters>NAN</DistanceMeters>
          </Trackpoint>
          <Trackpoint>
            <Time>2019-10-08T07:21:51.000Z</Time>
            <Position>
              <LatitudeDegrees>40.38192464970052242279052734375</LatitudeDegrees>
              <LongitudeDegrees>-5.80011430196464061737060546875</LongitudeDegrees>
            </Position>
            <AltitudeMeters>756.20001220703125</AltitudeMeters>
            <DistanceMeters>NAN</DistanceMeters>
          </Trackpoint>
          <Trackpoint>
            <Time>2019-10-08T07:22:01.000Z</Time>
            <Position>
              <LatitudeDegrees>40.38195901550352573394775390625</LatitudeDegrees>
              <LongitudeDegrees>-5.80047522671520709991455078125</LongitudeDegrees>
            </Position>
            <AltitudeMeters>756.5999755859375</AltitudeMeters>
            <DistanceMeters>NAN</DistanceMeters>
          </Trackpoint>
          <Trackpoint>
            <Time>2019-10-08T07:22:06.000Z</Time>
            <Position>
              <LatitudeDegrees>40.38198684342205524444580078125</LatitudeDegrees>
              <LongitudeDegrees>-5.80064755864441394805908203125</LongitudeDegrees>
            </Position>
            <AltitudeMeters>757.4000244140625</AltitudeMeters>
            <DistanceMeters>NAN</DistanceMeters>
          </Trackpoint>
          <Trackpoint>
            <Time>2019-10-08T07:22:09.000Z</Time>
            <Position>
              <LatitudeDegrees>40.38200251758098602294921875</LatitudeDegrees>
              <LongitudeDegrees>-5.8007502369582653045654296875</LongitudeDegrees>
            </Position>
            <AltitudeMeters>757.5999755859375</AltitudeMeters>
            <DistanceMeters>NAN</DistanceMeters>
          </Trackpoint>
          <Trackpoint>
            <Time>2019-10-08T07:22:15.000Z</Time>
            <Position>
              <LatitudeDegrees>40.38203847594559192657470703125</LatitudeDegrees>
              <LongitudeDegrees>-5.80095550976693630218505859375</LongitudeDegrees>
            </Position>
            <AltitudeMeters>758.4000244140625</AltitudeMeters>
            <DistanceMeters>NAN</DistanceMeters>
          </Trackpoint>
          <Trackpoint>
            <Time>2019-10-08T07:22:20.000Z</Time>
            <Position>
              <LatitudeDegrees>40.38207384757697582244873046875</LatitudeDegrees>
              <LongitudeDegrees>-5.80112180672585964202880859375</LongitudeDegrees>
            </Position>
            <AltitudeMeters>759</AltitudeMeters>
            <DistanceMeters>NAN</DistanceMeters>
          </Trackpoint>
          <Trackpoint>
            <Time>2019-10-08T07:22:24.000Z</Time>
            <Position>
              <LatitudeDegrees>40.382097065448760986328125</LatitudeDegrees>
              <LongitudeDegrees>-5.80125541426241397857666015625</LongitudeDegrees>
            </Position>
            <AltitudeMeters>759.5999755859375</AltitudeMeters>
            <DistanceMeters>NAN</DistanceMeters>
          </Trackpoint>
          <Trackpoint>
            <Time>2019-10-08T07:22:30.000Z</Time>
            <Position>
              <LatitudeDegrees>40.38213788531720638275146484375</LatitudeDegrees>
              <LongitudeDegrees>-5.8014452643692493438720703125</LongitudeDegrees>
            </Position>
            <AltitudeMeters>760.5999755859375</AltitudeMeters>
            <DistanceMeters>NAN</DistanceMeters>
          </Trackpoint>
          <Trackpoint>
            <Time>2019-10-08T07:22:40.000Z</Time>
            <Position>
              <LatitudeDegrees>40.382211394608020782470703125</LatitudeDegrees>
              <LongitudeDegrees>-5.80175824463367462158203125</LongitudeDegrees>
            </Position>
            <AltitudeMeters>761.5999755859375</AltitudeMeters>
            <DistanceMeters>NAN</DistanceMeters>
          </Trackpoint>
          <Trackpoint>
            <Time>2019-10-08T07:22:41.000Z</Time>
            <Position>
              <LatitudeDegrees>40.38221918977797031402587890625</LatitudeDegrees>
              <LongitudeDegrees>-5.80178749747574329376220703125</LongitudeDegrees>
            </Position>
            <AltitudeMeters>762</AltitudeMeters>
            <DistanceMeters>NAN</DistanceMeters>
          </Trackpoint>
          <Trackpoint>
            <Time>2019-10-08T07:22:46.000Z</Time>
            <Position>
              <LatitudeDegrees>40.38225824944674968719482421875</LatitudeDegrees>
              <LongitudeDegrees>-5.80193518660962581634521484375</LongitudeDegrees>
            </Position>
            <AltitudeMeters>763</AltitudeMeters>
            <DistanceMeters>NAN</DistanceMeters>
          </Trackpoint>
          <Trackpoint>
            <Time>2019-10-08T07:22:50.000Z</Time>
            <Position>
              <LatitudeDegrees>40.3822906874120235443115234375</LatitudeDegrees>
              <LongitudeDegrees>-5.80206544138491153717041015625</LongitudeDegrees>
            </Position>
            <AltitudeMeters>763.5999755859375</AltitudeMeters>
            <DistanceMeters>NAN</DistanceMeters>
          </Trackpoint>
          <Trackpoint>
            <Time>2019-10-08T07:22:54.000Z</Time>
            <Position>
              <LatitudeDegrees>40.3823237121105194091796875</LatitudeDegrees>
              <LongitudeDegrees>-5.80219921655952930450439453125</LongitudeDegrees>
            </Position>
            <AltitudeMeters>764</AltitudeMeters>
            <DistanceMeters>NAN</DistanceMeters>
          </Trackpoint>
          <Trackpoint>
            <Time>2019-10-08T07:23:01.000Z</Time>
            <Position>
              <LatitudeDegrees>40.3823842294514179229736328125</LatitudeDegrees>
              <LongitudeDegrees>-5.80242049880325794219970703125</LongitudeDegrees>
            </Position>
            <AltitudeMeters>765</AltitudeMeters>
            <DistanceMeters>NAN</DistanceMeters>
          </Trackpoint>
          <Trackpoint>
            <Time>2019-10-08T07:23:02.000Z</Time>
            <Position>
              <LatitudeDegrees>40.38239051587879657745361328125</LatitudeDegrees>
              <LongitudeDegrees>-5.802451260387897491455078125</LongitudeDegrees>
            </Position>
            <AltitudeMeters>765</AltitudeMeters>
            <DistanceMeters>NAN</DistanceMeters>
          </Trackpoint>
          <Trackpoint>
            <Time>2019-10-08T07:23:04.000Z</Time>
            <Position>
              <LatitudeDegrees>40.382403843104839324951171875</LatitudeDegrees>
              <LongitudeDegrees>-5.80251521430909633636474609375</LongitudeDegrees>
            </Position>
            <AltitudeMeters>765.20001220703125</AltitudeMeters>
            <DistanceMeters>NAN</DistanceMeters>
          </Trackpoint>
          <Trackpoint>
            <Time>2019-10-08T07:23:10.000Z</Time>
            <Position>
              <LatitudeDegrees>40.382421277463436126708984375</LatitudeDegrees>
              <LongitudeDegrees>-5.80272107385098934173583984375</LongitudeDegrees>
            </Position>
            <AltitudeMeters>766.4000244140625</AltitudeMeters>
            <DistanceMeters>NAN</DistanceMeters>
          </Trackpoint>
          <Trackpoint>
            <Time>2019-10-08T07:23:11.000Z</Time>
            <Position>
              <LatitudeDegrees>40.38241985253989696502685546875</LatitudeDegrees>
              <LongitudeDegrees>-5.80275393091142177581787109375</LongitudeDegrees>
            </Position>
            <AltitudeMeters>766.4000244140625</AltitudeMeters>
            <DistanceMeters>NAN</DistanceMeters>
          </Trackpoint>
          <Trackpoint>
            <Time>2019-10-08T07:23:16.000Z</Time>
            <Position>
              <LatitudeDegrees>40.3824147395789623260498046875</LatitudeDegrees>
              <LongitudeDegrees>-5.80292140133678913116455078125</LongitudeDegrees>
            </Position>
            <AltitudeMeters>767.4000244140625</AltitudeMeters>
            <DistanceMeters>NAN</DistanceMeters>
          </Trackpoint>
          <Trackpoint>
            <Time>2019-10-08T07:23:21.000Z</Time>
            <Position>
              <LatitudeDegrees>40.38238129578530788421630859375</LatitudeDegrees>
              <LongitudeDegrees>-5.8030837588012218475341796875</LongitudeDegrees>
            </Position>
            <AltitudeMeters>768.20001220703125</AltitudeMeters>
            <DistanceMeters>NAN</DistanceMeters>
          </Trackpoint>
          <Trackpoint>
            <Time>2019-10-08T07:23:24.000Z</Time>
            <Position>
              <LatitudeDegrees>40.3823446668684482574462890625</LatitudeDegrees>
              <LongitudeDegrees>-5.80317269079387187957763671875</LongitudeDegrees>
            </Position>
            <AltitudeMeters>768.5999755859375</AltitudeMeters>
            <DistanceMeters>NAN</DistanceMeters>
          </Trackpoint>
          <Trackpoint>
            <Time>2019-10-08T07:23:30.000Z</Time>
            <Position>
              <LatitudeDegrees>40.3822558186948299407958984375</LatitudeDegrees>
              <LongitudeDegrees>-5.8033358864486217498779296875</LongitudeDegrees>
            </Position>
            <AltitudeMeters>769</AltitudeMeters>
            <DistanceMeters>NAN</DistanceMeters>
          </Trackpoint>
          <Trackpoint>
            <Time>2019-10-08T07:23:39.000Z</Time>
            <Position>
              <LatitudeDegrees>40.382063202559947967529296875</LatitudeDegrees>
              <LongitudeDegrees>-5.8035568334162235260009765625</LongitudeDegrees>
            </Position>
            <AltitudeMeters>769</AltitudeMeters>
            <DistanceMeters>NAN</DistanceMeters>
          </Trackpoint>
          <Trackpoint>
            <Time>2019-10-08T07:23:47.000Z</Time>
            <Position>
              <LatitudeDegrees>40.3818608634173870086669921875</LatitudeDegrees>
              <LongitudeDegrees>-5.80380074679851531982421875</LongitudeDegrees>
            </Position>
            <AltitudeMeters>768.4000244140625</AltitudeMeters>
            <DistanceMeters>NAN</DistanceMeters>
          </Trackpoint>
          <Trackpoint>
            <Time>2019-10-08T07:23:53.000Z</Time>
            <Position>
              <LatitudeDegrees>40.38171820342540740966796875</LatitudeDegrees>
              <LongitudeDegrees>-5.804084725677967071533203125</LongitudeDegrees>
            </Position>
            <AltitudeMeters>767.79998779296875</AltitudeMeters>
            <DistanceMeters>NAN</DistanceMeters>
          </Trackpoint>
          <Trackpoint>
            <Time>2019-10-08T07:23:55.000Z</Time>
            <Position>
              <LatitudeDegrees>40.38169406354427337646484375</LatitudeDegrees>
              <LongitudeDegrees>-5.80419025383889675140380859375</LongitudeDegrees>
            </Position>
            <AltitudeMeters>768</AltitudeMeters>
            <DistanceMeters>NAN</DistanceMeters>
          </Trackpoint>
          <Trackpoint>
            <Time>2019-10-08T07:23:59.000Z</Time>
            <Position>
              <LatitudeDegrees>40.381669588387012481689453125</LatitudeDegrees>
              <LongitudeDegrees>-5.80440432764589786529541015625</LongitudeDegrees>
            </Position>
            <AltitudeMeters>768.20001220703125</AltitudeMeters>
            <DistanceMeters>NAN</DistanceMeters>
          </Trackpoint>
          <Trackpoint>
            <Time>2019-10-08T07:24:07.000Z</Time>
            <Position>
              <LatitudeDegrees>40.3816399164497852325439453125</LatitudeDegrees>
              <LongitudeDegrees>-5.8048302121460437774658203125</LongitudeDegrees>
            </Position>
            <AltitudeMeters>768.4000244140625</AltitudeMeters>
            <DistanceMeters>NAN</DistanceMeters>
          </Trackpoint>
          <Trackpoint>
            <Time>2019-10-08T07:24:15.000Z</Time>
            <Position>
              <LatitudeDegrees>40.38162927143275737762451171875</LatitudeDegrees>
              <LongitudeDegrees>-5.80529272556304931640625</LongitudeDegrees>
            </Position>
            <AltitudeMeters>767.79998779296875</AltitudeMeters>
            <DistanceMeters>NAN</DistanceMeters>
          </Trackpoint>
          <Trackpoint>
            <Time>2019-10-08T07:24:18.000Z</Time>
            <Position>
              <LatitudeDegrees>40.38164754398167133331298828125</LatitudeDegrees>
              <LongitudeDegrees>-5.8054900355637073516845703125</LongitudeDegrees>
            </Position>
            <AltitudeMeters>767.4000244140625</AltitudeMeters>
            <DistanceMeters>NAN</DistanceMeters>
          </Trackpoint>
          <Trackpoint>
            <Time>2019-10-08T07:24:20.000Z</Time>
            <Position>
              <LatitudeDegrees>40.3816665709018707275390625</LatitudeDegrees>
              <LongitudeDegrees>-5.8056150935590267181396484375</LongitudeDegrees>
            </Position>
            <AltitudeMeters>767</AltitudeMeters>
            <DistanceMeters>NAN</DistanceMeters>
          </Trackpoint>
          <Trackpoint>
            <Time>2019-10-08T07:24:21.000Z</Time>
            <Position>
              <LatitudeDegrees>40.38167604245245456695556640625</LatitudeDegrees>
              <LongitudeDegrees>-5.80566982738673686981201171875</LongitudeDegrees>
            </Position>
            <AltitudeMeters>767</AltitudeMeters>
            <DistanceMeters>NAN</DistanceMeters>
          </Trackpoint>
          <Trackpoint>
            <Time>2019-10-08T07:24:28.000Z</Time>
            <Position>
              <LatitudeDegrees>40.38176807574927806854248046875</LatitudeDegrees>
              <LongitudeDegrees>-5.8060670457780361175537109375</LongitudeDegrees>
            </Position>
            <AltitudeMeters>767.20001220703125</AltitudeMeters>
            <DistanceMeters>NAN</DistanceMeters>
          </Trackpoint>
          <Trackpoint>
            <Time>2019-10-08T07:24:36.000Z</Time>
            <Position>
              <LatitudeDegrees>40.38188827224075794219970703125</LatitudeDegrees>
              <LongitudeDegrees>-5.80657892860472202301025390625</LongitudeDegrees>
            </Position>
            <AltitudeMeters>766.79998779296875</AltitudeMeters>
            <DistanceMeters>NAN</DistanceMeters>
          </Trackpoint>
          <Trackpoint>
            <Time>2019-10-08T07:24:37.000Z</Time>
            <Position>
              <LatitudeDegrees>40.38190327584743499755859375</LatitudeDegrees>
              <LongitudeDegrees>-5.80664615146815776824951171875</LongitudeDegrees>
            </Position>
            <AltitudeMeters>766.4000244140625</AltitudeMeters>
            <DistanceMeters>NAN</DistanceMeters>
          </Trackpoint>
          <Trackpoint>
            <Time>2019-10-08T07:24:41.000Z</Time>
            <Position>
              <LatitudeDegrees>40.38195515982806682586669921875</LatitudeDegrees>
              <LongitudeDegrees>-5.80690867267549037933349609375</LongitudeDegrees>
            </Position>
            <AltitudeMeters>766.5999755859375</AltitudeMeters>
            <DistanceMeters>NAN</DistanceMeters>
          </Trackpoint>
          <Trackpoint>
            <Time>2019-10-08T07:24:45.000Z</Time>
            <Position>
              <LatitudeDegrees>40.38198231719434261322021484375</LatitudeDegrees>
              <LongitudeDegrees>-5.80716826021671295166015625</LongitudeDegrees>
            </Position>
            <AltitudeMeters>767</AltitudeMeters>
            <DistanceMeters>NAN</DistanceMeters>
          </Trackpoint>
          <Trackpoint>
            <Time>2019-10-08T07:24:51.000Z</Time>
            <Position>
              <LatitudeDegrees>40.3819879330694675445556640625</LatitudeDegrees>
              <LongitudeDegrees>-5.8075382374227046966552734375</LongitudeDegrees>
            </Position>
            <AltitudeMeters>767.5999755859375</AltitudeMeters>
            <DistanceMeters>NAN</DistanceMeters>
          </Trackpoint>
          <Trackpoint>
            <Time>2019-10-08T07:24:53.000Z</Time>
            <Position>
              <LatitudeDegrees>40.3819882683455944061279296875</LatitudeDegrees>
              <LongitudeDegrees>-5.80764996819198131561279296875</LongitudeDegrees>
            </Position>
            <AltitudeMeters>768.20001220703125</AltitudeMeters>
            <DistanceMeters>NAN</DistanceMeters>
          </Trackpoint>
          <Trackpoint>
            <Time>2019-10-08T07:24:56.000Z</Time>
            <Position>
              <LatitudeDegrees>40.38198508322238922119140625</LatitudeDegrees>
              <LongitudeDegrees>-5.807800255715847015380859375</LongitudeDegrees>
            </Position>
            <AltitudeMeters>768.79998779296875</AltitudeMeters>
            <DistanceMeters>NAN</DistanceMeters>
          </Trackpoint>
          <Trackpoint>
            <Time>2019-10-08T07:25:00.000Z</Time>
            <Position>
              <LatitudeDegrees>40.38198105990886688232421875</LatitudeDegrees>
              <LongitudeDegrees>-5.80798775888979434967041015625</LongitudeDegrees>
            </Position>
            <AltitudeMeters>769.4000244140625</AltitudeMeters>
            <DistanceMeters>NAN</DistanceMeters>
          </Trackpoint>
          <Trackpoint>
            <Time>2019-10-08T07:25:03.000Z</Time>
            <Position>
              <LatitudeDegrees>40.38198516704142093658447265625</LatitudeDegrees>
              <LongitudeDegrees>-5.80811901949346065521240234375</LongitudeDegrees>
            </Position>
            <AltitudeMeters>770</AltitudeMeters>
            <DistanceMeters>NAN</DistanceMeters>
          </Trackpoint>
          <Trackpoint>
            <Time>2019-10-08T07:25:07.000Z</Time>
            <Position>
              <LatitudeDegrees>40.3820003382861614227294921875</LatitudeDegrees>
              <LongitudeDegrees>-5.8082847297191619873046875</LongitudeDegrees>
            </Position>
            <AltitudeMeters>770.4000244140625</AltitudeMeters>
            <DistanceMeters>NAN</DistanceMeters>
          </Trackpoint>
          <Trackpoint>
            <Time>2019-10-08T07:25:10.000Z</Time>
            <Position>
              <LatitudeDegrees>40.3820179402828216552734375</LatitudeDegrees>
              <LongitudeDegrees>-5.80840266309678554534912109375</LongitudeDegrees>
            </Position>
            <AltitudeMeters>771.20001220703125</AltitudeMeters>
            <DistanceMeters>NAN</DistanceMeters>
          </Trackpoint>
          <Trackpoint>
            <Time>2019-10-08T07:25:14.000Z</Time>
            <Position>
              <LatitudeDegrees>40.382056497037410736083984375</LatitudeDegrees>
              <LongitudeDegrees>-5.80856845714151859283447265625</LongitudeDegrees>
            </Position>
            <AltitudeMeters>771.79998779296875</AltitudeMeters>
            <DistanceMeters>NAN</DistanceMeters>
          </Trackpoint>
          <Trackpoint>
            <Time>2019-10-08T07:25:16.000Z</Time>
            <Position>
              <LatitudeDegrees>40.38206730969250202178955078125</LatitudeDegrees>
              <LongitudeDegrees>-5.8086483366787433624267578125</LongitudeDegrees>
            </Position>
            <AltitudeMeters>772.20001220703125</AltitudeMeters>
            <DistanceMeters>NAN</DistanceMeters>
          </Trackpoint>
          <Trackpoint>
            <Time>2019-10-08T07:25:20.000Z</Time>
            <Position>
              <LatitudeDegrees>40.382085330784320831298828125</LatitudeDegrees>
              <LongitudeDegrees>-5.8087945170700550079345703125</LongitudeDegrees>
            </Position>
            <AltitudeMeters>773</AltitudeMeters>
            <DistanceMeters>NAN</DistanceMeters>
          </Trackpoint>
          <Trackpoint>
            <Time>2019-10-08T07:25:21.000Z</Time>
            <Position>
              <LatitudeDegrees>40.38208910264074802398681640625</LatitudeDegrees>
              <LongitudeDegrees>-5.808830894529819488525390625</LongitudeDegrees>
            </Position>
            <AltitudeMeters>773</AltitudeMeters>
            <DistanceMeters>NAN</DistanceMeters>
          </Trackpoint>
          <Trackpoint>
            <Time>2019-10-08T07:25:23.000Z</Time>
            <Position>
              <LatitudeDegrees>40.38209698162972927093505859375</LatitudeDegrees>
              <LongitudeDegrees>-5.80888981930911540985107421875</LongitudeDegrees>
            </Position>
            <AltitudeMeters>773.5999755859375</AltitudeMeters>
            <DistanceMeters>NAN</DistanceMeters>
          </Trackpoint>
          <Trackpoint>
            <Time>2019-10-08T07:25:28.000Z</Time>
            <Position>
              <LatitudeDegrees>40.3821166791021823883056640625</LatitudeDegrees>
              <LongitudeDegrees>-5.80907137133181095123291015625</LongitudeDegrees>
            </Position>
            <AltitudeMeters>774</AltitudeMeters>
            <DistanceMeters>NAN</DistanceMeters>
          </Trackpoint>
          <Trackpoint>
            <Time>2019-10-08T07:25:31.000Z</Time>
            <Position>
              <LatitudeDegrees>40.3821297548711299896240234375</LatitudeDegrees>
              <LongitudeDegrees>-5.80920347012579441070556640625</LongitudeDegrees>
            </Position>
            <AltitudeMeters>774.79998779296875</AltitudeMeters>
            <DistanceMeters>NAN</DistanceMeters>
          </Trackpoint>
          <Trackpoint>
            <Time>2019-10-08T07:25:35.000Z</Time>
            <Position>
              <LatitudeDegrees>40.382145009934902191162109375</LatitudeDegrees>
              <LongitudeDegrees>-5.80939943902194499969482421875</LongitudeDegrees>
            </Position>
            <AltitudeMeters>775</AltitudeMeters>
            <DistanceMeters>NAN</DistanceMeters>
          </Trackpoint>
          <Trackpoint>
            <Time>2019-10-08T07:25:38.000Z</Time>
            <Position>
              <LatitudeDegrees>40.382149033248424530029296875</LatitudeDegrees>
              <LongitudeDegrees>-5.80954578705132007598876953125</LongitudeDegrees>
            </Position>
            <AltitudeMeters>775.79998779296875</AltitudeMeters>
            <DistanceMeters>NAN</DistanceMeters>
          </Trackpoint>
          <Trackpoint>
            <Time>2019-10-08T07:25:46.000Z</Time>
            <Position>
              <LatitudeDegrees>40.38212363608181476593017578125</LatitudeDegrees>
              <LongitudeDegrees>-5.80990168265998363494873046875</LongitudeDegrees>
            </Position>
            <AltitudeMeters>777</AltitudeMeters>
            <DistanceMeters>NAN</DistanceMeters>
          </Trackpoint>
          <Trackpoint>
            <Time>2019-10-08T07:25:55.000Z</Time>
            <Position>
              <LatitudeDegrees>40.38205037824809551239013671875</LatitudeDegrees>
              <LongitudeDegrees>-5.81026545725762844085693359375</LongitudeDegrees>
            </Position>
            <AltitudeMeters>777.79998779296875</AltitudeMeters>
            <DistanceMeters>NAN</DistanceMeters>
          </Trackpoint>
          <Trackpoint>
            <Time>2019-10-08T07:25:58.000Z</Time>
            <Position>
              <LatitudeDegrees>40.38201861083507537841796875</LatitudeDegrees>
              <LongitudeDegrees>-5.8103773556649684906005859375</LongitudeDegrees>
            </Position>
            <AltitudeMeters>778</AltitudeMeters>
            <DistanceMeters>NAN</DistanceMeters>
          </Trackpoint>
          <Trackpoint>
            <Time>2019-10-08T07:26:03.000Z</Time>
            <Position>
              <LatitudeDegrees>40.38195650093257427215576171875</LatitudeDegrees>
              <LongitudeDegrees>-5.81056485883891582489013671875</LongitudeDegrees>
            </Position>
            <AltitudeMeters>778.4000244140625</AltitudeMeters>
            <DistanceMeters>NAN</DistanceMeters>
          </Trackpoint>
          <Trackpoint>
            <Time>2019-10-08T07:26:05.000Z</Time>
            <Position>
              <LatitudeDegrees>40.3819322772324085235595703125</LatitudeDegrees>
              <LongitudeDegrees>-5.81064716912806034088134765625</LongitudeDegrees>
            </Position>
            <AltitudeMeters>779.20001220703125</AltitudeMeters>
            <DistanceMeters>NAN</DistanceMeters>
          </Trackpoint>
          <Trackpoint>
            <Time>2019-10-08T07:26:10.000Z</Time>
            <Position>
              <LatitudeDegrees>40.3818699158728122711181640625</LatitudeDegrees>
              <LongitudeDegrees>-5.8108423836529254913330078125</LongitudeDegrees>
            </Position>
            <AltitudeMeters>779.5999755859375</AltitudeMeters>
            <DistanceMeters>NAN</DistanceMeters>
          </Trackpoint>
          <Trackpoint>
            <Time>2019-10-08T07:26:14.000Z</Time>
            <Position>
              <LatitudeDegrees>40.3818045370280742645263671875</LatitudeDegrees>
              <LongitudeDegrees>-5.810986049473285675048828125</LongitudeDegrees>
            </Position>
            <AltitudeMeters>780.4000244140625</AltitudeMeters>
            <DistanceMeters>NAN</DistanceMeters>
          </Trackpoint>
          <Trackpoint>
            <Time>2019-10-08T07:26:17.000Z</Time>
            <Position>
              <LatitudeDegrees>40.381746031343936920166015625</LatitudeDegrees>
              <LongitudeDegrees>-5.81109543330967426300048828125</LongitudeDegrees>
            </Position>
            <AltitudeMeters>780.4000244140625</AltitudeMeters>
            <DistanceMeters>NAN</DistanceMeters>
          </Trackpoint>
          <Trackpoint>
            <Time>2019-10-08T07:26:25.000Z</Time>
            <Position>
              <LatitudeDegrees>40.38156171329319477081298828125</LatitudeDegrees>
              <LongitudeDegrees>-5.811373293399810791015625</LongitudeDegrees>
            </Position>
            <AltitudeMeters>781</AltitudeMeters>
            <DistanceMeters>NAN</DistanceMeters>
          </Trackpoint>
          <Trackpoint>
            <Time>2019-10-08T07:26:33.000Z</Time>
            <Position>
              <LatitudeDegrees>40.38136054761707782745361328125</LatitudeDegrees>
              <LongitudeDegrees>-5.81166230142116546630859375</LongitudeDegrees>
            </Position>
            <AltitudeMeters>781.20001220703125</AltitudeMeters>
            <DistanceMeters>NAN</DistanceMeters>
          </Trackpoint>
          <Trackpoint>
            <Time>2019-10-08T07:26:38.000Z</Time>
            <Position>
              <LatitudeDegrees>40.3812540136277675628662109375</LatitudeDegrees>
              <LongitudeDegrees>-5.81186790950596332550048828125</LongitudeDegrees>
            </Position>
            <AltitudeMeters>781.5999755859375</AltitudeMeters>
            <DistanceMeters>NAN</DistanceMeters>
          </Trackpoint>
          <Trackpoint>
            <Time>2019-10-08T07:26:43.000Z</Time>
            <Position>
              <LatitudeDegrees>40.38116633892059326171875</LatitudeDegrees>
              <LongitudeDegrees>-5.81208215095102787017822265625</LongitudeDegrees>
            </Position>
            <AltitudeMeters>781.79998779296875</AltitudeMeters>
            <DistanceMeters>NAN</DistanceMeters>
          </Trackpoint>
          <Trackpoint>
            <Time>2019-10-08T07:26:48.000Z</Time>
            <Position>
              <LatitudeDegrees>40.3810981102287769317626953125</LatitudeDegrees>
              <LongitudeDegrees>-5.8122988231480121612548828125</LongitudeDegrees>
            </Position>
            <AltitudeMeters>782.79998779296875</AltitudeMeters>
            <DistanceMeters>NAN</DistanceMeters>
          </Trackpoint>
          <Trackpoint>
            <Time>2019-10-08T07:26:52.000Z</Time>
            <Position>
              <LatitudeDegrees>40.38105703890323638916015625</LatitudeDegrees>
              <LongitudeDegrees>-5.812473334372043609619140625</LongitudeDegrees>
            </Position>
            <AltitudeMeters>783</AltitudeMeters>
            <DistanceMeters>NAN</DistanceMeters>
          </Trackpoint>
          <Trackpoint>
            <Time>2019-10-08T07:26:57.000Z</Time>
            <Position>
              <LatitudeDegrees>40.3810116089880466461181640625</LatitudeDegrees>
              <LongitudeDegrees>-5.812699981033802032470703125</LongitudeDegrees>
            </Position>
            <AltitudeMeters>783.79998779296875</AltitudeMeters>
            <DistanceMeters>NAN</DistanceMeters>
          </Trackpoint>
          <Trackpoint>
            <Time>2019-10-08T07:27:03.000Z</Time>
            <Position>
              <LatitudeDegrees>40.38095553405582904815673828125</LatitudeDegrees>
              <LongitudeDegrees>-5.81296292133629322052001953125</LongitudeDegrees>
            </Position>
            <AltitudeMeters>784.79998779296875</AltitudeMeters>
            <DistanceMeters>NAN</DistanceMeters>
          </Trackpoint>
          <Trackpoint>
            <Time>2019-10-08T07:27:04.000Z</Time>
            <Position>
              <LatitudeDegrees>40.38094731979072093963623046875</LatitudeDegrees>
              <LongitudeDegrees>-5.81300684250891208648681640625</LongitudeDegrees>
            </Position>
            <AltitudeMeters>784.79998779296875</AltitudeMeters>
            <DistanceMeters>NAN</DistanceMeters>
          </Trackpoint>
          <Trackpoint>
            <Time>2019-10-08T07:27:12.000Z</Time>
            <Position>
              <LatitudeDegrees>40.38087037391960620880126953125</LatitudeDegrees>
              <LongitudeDegrees>-5.81334915943443775177001953125</LongitudeDegrees>
            </Position>
            <AltitudeMeters>786</AltitudeMeters>
            <DistanceMeters>NAN</DistanceMeters>
          </Trackpoint>
          <Trackpoint>
            <Time>2019-10-08T07:27:19.000Z</Time>
            <Position>
              <LatitudeDegrees>40.38078186102211475372314453125</LatitudeDegrees>
              <LongitudeDegrees>-5.8136518299579620361328125</LongitudeDegrees>
            </Position>
            <AltitudeMeters>786.5999755859375</AltitudeMeters>
            <DistanceMeters>NAN</DistanceMeters>
          </Trackpoint>
          <Trackpoint>
            <Time>2019-10-08T07:27:23.000Z</Time>
            <Position>
              <LatitudeDegrees>40.38071933202445507049560546875</LatitudeDegrees>
              <LongitudeDegrees>-5.813817121088504791259765625</LongitudeDegrees>
            </Position>
            <AltitudeMeters>787</AltitudeMeters>
            <DistanceMeters>NAN</DistanceMeters>
          </Trackpoint>
          <Trackpoint>
            <Time>2019-10-08T07:27:27.000Z</Time>
            <Position>
              <LatitudeDegrees>40.38064640946686267852783203125</LatitudeDegrees>
              <LongitudeDegrees>-5.8139785565435886383056640625</LongitudeDegrees>
            </Position>
            <AltitudeMeters>787.5999755859375</AltitudeMeters>
            <DistanceMeters>NAN</DistanceMeters>
          </Trackpoint>
          <Trackpoint>
            <Time>2019-10-08T07:27:33.000Z</Time>
            <Position>
              <LatitudeDegrees>40.3805200941860675811767578125</LatitudeDegrees>
              <LongitudeDegrees>-5.81420025788247585296630859375</LongitudeDegrees>
            </Position>
            <AltitudeMeters>788.20001220703125</AltitudeMeters>
            <DistanceMeters>NAN</DistanceMeters>
          </Trackpoint>
          <Trackpoint>
            <Time>2019-10-08T07:27:38.000Z</Time>
            <Position>
              <LatitudeDegrees>40.38039193488657474517822265625</LatitudeDegrees>
              <LongitudeDegrees>-5.81436102278530597686767578125</LongitudeDegrees>
            </Position>
            <AltitudeMeters>788</AltitudeMeters>
            <DistanceMeters>NAN</DistanceMeters>
          </Trackpoint>
          <Trackpoint>
            <Time>2019-10-08T07:27:48.000Z</Time>
            <Position>
              <LatitudeDegrees>40.3800899349153041839599609375</LatitudeDegrees>
              <LongitudeDegrees>-5.81463829614222049713134765625</LongitudeDegrees>
            </Position>
            <AltitudeMeters>788</AltitudeMeters>
            <DistanceMeters>NAN</DistanceMeters>
          </Trackpoint>
          <Trackpoint>
            <Time>2019-10-08T07:27:55.000Z</Time>
            <Position>
              <LatitudeDegrees>40.3798569180071353912353515625</LatitudeDegrees>
              <LongitudeDegrees>-5.81479646265506744384765625</LongitudeDegrees>
            </Position>
            <AltitudeMeters>787.79998779296875</AltitudeMeters>
            <DistanceMeters>NAN</DistanceMeters>
          </Trackpoint>
          <Trackpoint>
            <Time>2019-10-08T07:27:58.000Z</Time>
            <Position>
              <LatitudeDegrees>40.37975910119712352752685546875</LatitudeDegrees>
              <LongitudeDegrees>-5.81485840491950511932373046875</LongitudeDegrees>
            </Position>
            <AltitudeMeters>788.20001220703125</AltitudeMeters>
            <DistanceMeters>NAN</DistanceMeters>
          </Trackpoint>
          <Trackpoint>
            <Time>2019-10-08T07:28:05.000Z</Time>
            <Position>
              <LatitudeDegrees>40.37954829633235931396484375</LatitudeDegrees>
              <LongitudeDegrees>-5.81501682288944721221923828125</LongitudeDegrees>
            </Position>
            <AltitudeMeters>789.20001220703125</AltitudeMeters>
            <DistanceMeters>NAN</DistanceMeters>
          </Trackpoint>
          <Trackpoint>
            <Time>2019-10-08T07:28:07.000Z</Time>
            <Position>
              <LatitudeDegrees>40.37949356250464916229248046875</LatitudeDegrees>
              <LongitudeDegrees>-5.815069042146205902099609375</LongitudeDegrees>
            </Position>
            <AltitudeMeters>789.79998779296875</AltitudeMeters>
            <DistanceMeters>NAN</DistanceMeters>
          </Trackpoint>
          <Trackpoint>
            <Time>2019-10-08T07:28:10.000Z</Time>
            <Position>
              <LatitudeDegrees>40.37941594608128070831298828125</LatitudeDegrees>
              <LongitudeDegrees>-5.81514783203601837158203125</LongitudeDegrees>
            </Position>
            <AltitudeMeters>790.20001220703125</AltitudeMeters>
            <DistanceMeters>NAN</DistanceMeters>
          </Trackpoint>
          <Trackpoint>
            <Time>2019-10-08T07:28:14.000Z</Time>
            <Position>
              <LatitudeDegrees>40.37930916063487529754638671875</LatitudeDegrees>
              <LongitudeDegrees>-5.815242715179920196533203125</LongitudeDegrees>
            </Position>
            <AltitudeMeters>791.20001220703125</AltitudeMeters>
            <DistanceMeters>NAN</DistanceMeters>
          </Trackpoint>
          <Trackpoint>
            <Time>2019-10-08T07:28:17.000Z</Time>
            <Position>
              <LatitudeDegrees>40.37923405878245830535888671875</LatitudeDegrees>
              <LongitudeDegrees>-5.81532343290746212005615234375</LongitudeDegrees>
            </Position>
            <AltitudeMeters>791.79998779296875</AltitudeMeters>
            <DistanceMeters>NAN</DistanceMeters>
          </Trackpoint>
          <Trackpoint>
            <Time>2019-10-08T07:28:22.000Z</Time>
            <Position>
              <LatitudeDegrees>40.3791136108338832855224609375</LatitudeDegrees>
              <LongitudeDegrees>-5.81544153392314910888671875</LongitudeDegrees>
            </Position>
            <AltitudeMeters>792.4000244140625</AltitudeMeters>
            <DistanceMeters>NAN</DistanceMeters>
          </Trackpoint>
          <Trackpoint>
            <Time>2019-10-08T07:28:26.000Z</Time>
            <Position>
              <LatitudeDegrees>40.3790177218616008758544921875</LatitudeDegrees>
              <LongitudeDegrees>-5.81553541123867034912109375</LongitudeDegrees>
            </Position>
            <AltitudeMeters>793.4000244140625</AltitudeMeters>
            <DistanceMeters>NAN</DistanceMeters>
          </Trackpoint>
          <Trackpoint>
            <Time>2019-10-08T07:28:32.000Z</Time>
            <Position>
              <LatitudeDegrees>40.37887497805058956146240234375</LatitudeDegrees>
              <LongitudeDegrees>-5.81567220389842987060546875</LongitudeDegrees>
            </Position>
            <AltitudeMeters>794.20001220703125</AltitudeMeters>
            <DistanceMeters>NAN</DistanceMeters>
          </Trackpoint>
          <Trackpoint>
            <Time>2019-10-08T07:28:33.000Z</Time>
            <Position>
              <LatitudeDegrees>40.37885167635977268218994140625</LatitudeDegrees>
              <LongitudeDegrees>-5.8156956732273101806640625</LongitudeDegrees>
            </Position>
            <AltitudeMeters>794.5999755859375</AltitudeMeters>
            <DistanceMeters>NAN</DistanceMeters>
          </Trackpoint>
          <Trackpoint>
            <Time>2019-10-08T07:28:36.000Z</Time>
            <Position>
              <LatitudeDegrees>40.37878126837313175201416015625</LatitudeDegrees>
              <LongitudeDegrees>-5.81575945951044559478759765625</LongitudeDegrees>
            </Position>
            <AltitudeMeters>795</AltitudeMeters>
            <DistanceMeters>NAN</DistanceMeters>
          </Trackpoint>
          <Trackpoint>
            <Time>2019-10-08T07:28:38.000Z</Time>
            <Position>
              <LatitudeDegrees>40.37873298861086368560791015625</LatitudeDegrees>
              <LongitudeDegrees>-5.8158029615879058837890625</LongitudeDegrees>
            </Position>
            <AltitudeMeters>795.5999755859375</AltitudeMeters>
            <DistanceMeters>NAN</DistanceMeters>
          </Trackpoint>
          <Trackpoint>
            <Time>2019-10-08T07:28:44.000Z</Time>
            <Position>
              <LatitudeDegrees>40.378585048019886016845703125</LatitudeDegrees>
              <LongitudeDegrees>-5.8159211464226245880126953125</LongitudeDegrees>
            </Position>
            <AltitudeMeters>796.20001220703125</AltitudeMeters>
            <DistanceMeters>NAN</DistanceMeters>
          </Trackpoint>
          <Trackpoint>
            <Time>2019-10-08T07:28:46.000Z</Time>
            <Position>
              <LatitudeDegrees>40.37853232584893703460693359375</LatitudeDegrees>
              <LongitudeDegrees>-5.81595651805400848388671875</LongitudeDegrees>
            </Position>
            <AltitudeMeters>796.79998779296875</AltitudeMeters>
            <DistanceMeters>NAN</DistanceMeters>
          </Trackpoint>
          <Trackpoint>
            <Time>2019-10-08T07:28:47.000Z</Time>
            <Position>
              <LatitudeDegrees>40.37850433029234409332275390625</LatitudeDegrees>
              <LongitudeDegrees>-5.8159746229648590087890625</LongitudeDegrees>
            </Position>
            <AltitudeMeters>796.5999755859375</AltitudeMeters>
            <DistanceMeters>NAN</DistanceMeters>
          </Trackpoint>
          <Trackpoint>
            <Time>2019-10-08T07:28:55.000Z</Time>
            <Position>
              <LatitudeDegrees>40.37826175801455974578857421875</LatitudeDegrees>
              <LongitudeDegrees>-5.816078223288059234619140625</LongitudeDegrees>
            </Position>
            <AltitudeMeters>797.4000244140625</AltitudeMeters>
            <DistanceMeters>NAN</DistanceMeters>
          </Trackpoint>
          <Trackpoint>
            <Time>2019-10-08T07:29:03.000Z</Time>
            <Position>
              <LatitudeDegrees>40.37797786295413970947265625</LatitudeDegrees>
              <LongitudeDegrees>-5.81614787690341472625732421875</LongitudeDegrees>
            </Position>
            <AltitudeMeters>796.79998779296875</AltitudeMeters>
            <DistanceMeters>NAN</DistanceMeters>
          </Trackpoint>
          <Trackpoint>
            <Time>2019-10-08T07:29:08.000Z</Time>
            <Position>
              <LatitudeDegrees>40.3777319379150867462158203125</LatitudeDegrees>
              <LongitudeDegrees>-5.816223733127117156982421875</LongitudeDegrees>
            </Position>
            <AltitudeMeters>795.20001220703125</AltitudeMeters>
            <DistanceMeters>NAN</DistanceMeters>
          </Trackpoint>
          <Trackpoint>
            <Time>2019-10-08T07:29:12.000Z</Time>
            <Position>
              <LatitudeDegrees>40.377506799995899200439453125</LatitudeDegrees>
              <LongitudeDegrees>-5.81633931957185268402099609375</LongitudeDegrees>
            </Position>
            <AltitudeMeters>793.79998779296875</AltitudeMeters>
            <DistanceMeters>NAN</DistanceMeters>
          </Trackpoint>
          <Trackpoint>
            <Time>2019-10-08T07:29:14.000Z</Time>
            <Position>
              <LatitudeDegrees>40.377386771142482757568359375</LatitudeDegrees>
              <LongitudeDegrees>-5.81641358323395252227783203125</LongitudeDegrees>
            </Position>
            <AltitudeMeters>793.4000244140625</AltitudeMeters>
            <DistanceMeters>NAN</DistanceMeters>
          </Trackpoint>
          <Trackpoint>
            <Time>2019-10-08T07:29:16.000Z</Time>
            <Position>
              <LatitudeDegrees>40.377262048423290252685546875</LatitudeDegrees>
              <LongitudeDegrees>-5.81649019382894039154052734375</LongitudeDegrees>
            </Position>
            <AltitudeMeters>792.79998779296875</AltitudeMeters>
            <DistanceMeters>NAN</DistanceMeters>
          </Trackpoint>
          <Trackpoint>
            <Time>2019-10-08T07:29:18.000Z</Time>
            <Position>
              <LatitudeDegrees>40.3771287761628627777099609375</LatitudeDegrees>
              <LongitudeDegrees>-5.8165712468326091766357421875</LongitudeDegrees>
            </Position>
            <AltitudeMeters>791.5999755859375</AltitudeMeters>
            <DistanceMeters>NAN</DistanceMeters>
          </Trackpoint>
          <Trackpoint>
            <Time>2019-10-08T07:29:22.000Z</Time>
            <Position>
              <LatitudeDegrees>40.376858375966548919677734375</LatitudeDegrees>
              <LongitudeDegrees>-5.8167365379631519317626953125</LongitudeDegrees>
            </Position>
            <AltitudeMeters>790.79998779296875</AltitudeMeters>
            <DistanceMeters>NAN</DistanceMeters>
          </Trackpoint>
          <Trackpoint>
            <Time>2019-10-08T07:29:23.000Z</Time>
            <Position>
              <LatitudeDegrees>40.37679274566471576690673828125</LatitudeDegrees>
              <LongitudeDegrees>-5.8167787827551364898681640625</LongitudeDegrees>
            </Position>
            <AltitudeMeters>790.4000244140625</AltitudeMeters>
            <DistanceMeters>NAN</DistanceMeters>
          </Trackpoint>
          <Trackpoint>
            <Time>2019-10-08T07:29:25.000Z</Time>
            <Position>
              <LatitudeDegrees>40.3766615688800811767578125</LatitudeDegrees>
              <LongitudeDegrees>-5.816857405006885528564453125</LongitudeDegrees>
            </Position>
            <AltitudeMeters>790.5999755859375</AltitudeMeters>
            <DistanceMeters>NAN</DistanceMeters>
          </Trackpoint>
          <Trackpoint>
            <Time>2019-10-08T07:29:29.000Z</Time>
            <Position>
              <LatitudeDegrees>40.37640701048076152801513671875</LatitudeDegrees>
              <LongitudeDegrees>-5.81701590679585933685302734375</LongitudeDegrees>
            </Position>
            <AltitudeMeters>790.20001220703125</AltitudeMeters>
            <DistanceMeters>NAN</DistanceMeters>
          </Trackpoint>
          <Trackpoint>
            <Time>2019-10-08T07:29:31.000Z</Time>
            <Position>
              <LatitudeDegrees>40.37627759389579296112060546875</LatitudeDegrees>
              <LongitudeDegrees>-5.8170962892472743988037109375</LongitudeDegrees>
            </Position>
            <AltitudeMeters>790</AltitudeMeters>
            <DistanceMeters>NAN</DistanceMeters>
          </Trackpoint>
          <Trackpoint>
            <Time>2019-10-08T07:29:33.000Z</Time>
            <Position>
              <LatitudeDegrees>40.37614683620631694793701171875</LatitudeDegrees>
              <LongitudeDegrees>-5.81717415712773799896240234375</LongitudeDegrees>
            </Position>
            <AltitudeMeters>789.4000244140625</AltitudeMeters>
            <DistanceMeters>NAN</DistanceMeters>
          </Trackpoint>
          <Trackpoint>
            <Time>2019-10-08T07:29:41.000Z</Time>
            <Position>
              <LatitudeDegrees>40.375656075775623321533203125</LatitudeDegrees>
              <LongitudeDegrees>-5.81747531890869140625</LongitudeDegrees>
            </Position>
            <AltitudeMeters>789.20001220703125</AltitudeMeters>
            <DistanceMeters>NAN</DistanceMeters>
          </Trackpoint>
          <Trackpoint>
            <Time>2019-10-08T07:29:49.000Z</Time>
            <Position>
              <LatitudeDegrees>40.37518593482673168182373046875</LatitudeDegrees>
              <LongitudeDegrees>-5.81774479709565639495849609375</LongitudeDegrees>
            </Position>
            <AltitudeMeters>789.20001220703125</AltitudeMeters>
            <DistanceMeters>NAN</DistanceMeters>
          </Trackpoint>
          <Trackpoint>
            <Time>2019-10-08T07:29:57.000Z</Time>
            <Position>
              <LatitudeDegrees>40.3747084178030490875244140625</LatitudeDegrees>
              <LongitudeDegrees>-5.818020813167095184326171875</LongitudeDegrees>
            </Position>
            <AltitudeMeters>788.4000244140625</AltitudeMeters>
            <DistanceMeters>NAN</DistanceMeters>
          </Trackpoint>
          <Trackpoint>
            <Time>2019-10-08T07:30:00.000Z</Time>
            <Position>
              <LatitudeDegrees>40.37453231401741504669189453125</LatitudeDegrees>
              <LongitudeDegrees>-5.818129442632198333740234375</LongitudeDegrees>
            </Position>
            <AltitudeMeters>788.4000244140625</AltitudeMeters>
            <DistanceMeters>NAN</DistanceMeters>
          </Trackpoint>
          <Trackpoint>
            <Time>2019-10-08T07:30:05.000Z</Time>
            <Position>
              <LatitudeDegrees>40.374293513596057891845703125</LatitudeDegrees>
              <LongitudeDegrees>-5.8183461986482143402099609375</LongitudeDegrees>
            </Position>
            <AltitudeMeters>789.5999755859375</AltitudeMeters>
            <DistanceMeters>NAN</DistanceMeters>
          </Trackpoint>
          <Trackpoint>
            <Time>2019-10-08T07:30:06.000Z</Time>
            <Position>
              <LatitudeDegrees>40.37425470538437366485595703125</LatitudeDegrees>
              <LongitudeDegrees>-5.81839062273502349853515625</LongitudeDegrees>
            </Position>
            <AltitudeMeters>789.5999755859375</AltitudeMeters>
            <DistanceMeters>NAN</DistanceMeters>
          </Trackpoint>
          <Trackpoint>
            <Time>2019-10-08T07:30:11.000Z</Time>
            <Position>
              <LatitudeDegrees>40.37409796379506587982177734375</LatitudeDegrees>
              <LongitudeDegrees>-5.81861651502549648284912109375</LongitudeDegrees>
            </Position>
            <AltitudeMeters>791</AltitudeMeters>
            <DistanceMeters>NAN</DistanceMeters>
          </Trackpoint>
          <Trackpoint>
            <Time>2019-10-08T07:30:12.000Z</Time>
            <Position>
              <LatitudeDegrees>40.37406695075333118438720703125</LatitudeDegrees>
              <LongitudeDegrees>-5.8186566643416881561279296875</LongitudeDegrees>
            </Position>
            <AltitudeMeters>791.20001220703125</AltitudeMeters>
            <DistanceMeters>NAN</DistanceMeters>
          </Trackpoint>
          <Trackpoint>
            <Time>2019-10-08T07:30:17.000Z</Time>
            <Position>
              <LatitudeDegrees>40.37392730824649333953857421875</LatitudeDegrees>
              <LongitudeDegrees>-5.81886378116905689239501953125</LongitudeDegrees>
            </Position>
            <AltitudeMeters>792.20001220703125</AltitudeMeters>
            <DistanceMeters>NAN</DistanceMeters>
          </Trackpoint>
          <Trackpoint>
            <Time>2019-10-08T07:30:19.000Z</Time>
            <Position>
              <LatitudeDegrees>40.3738755919039249420166015625</LatitudeDegrees>
              <LongitudeDegrees>-5.81894307397305965423583984375</LongitudeDegrees>
            </Position>
            <AltitudeMeters>792.79998779296875</AltitudeMeters>
            <DistanceMeters>NAN</DistanceMeters>
          </Trackpoint>
          <Trackpoint>
            <Time>2019-10-08T07:30:22.000Z</Time>
            <Position>
              <LatitudeDegrees>40.3737890906631946563720703125</LatitudeDegrees>
              <LongitudeDegrees>-5.819048769772052764892578125</LongitudeDegrees>
            </Position>
            <AltitudeMeters>793.20001220703125</AltitudeMeters>
            <DistanceMeters>NAN</DistanceMeters>
          </Trackpoint>
          <Trackpoint>
            <Time>2019-10-08T07:30:25.000Z</Time>
            <Position>
              <LatitudeDegrees>40.37370351143181324005126953125</LatitudeDegrees>
              <LongitudeDegrees>-5.81913954578340053558349609375</LongitudeDegrees>
            </Position>
            <AltitudeMeters>793.79998779296875</AltitudeMeters>
            <DistanceMeters>NAN</DistanceMeters>
          </Trackpoint>
          <Trackpoint>
            <Time>2019-10-08T07:30:26.000Z</Time>
            <Position>
              <LatitudeDegrees>40.37367451004683971405029296875</LatitudeDegrees>
              <LongitudeDegrees>-5.81916569732129573822021484375</LongitudeDegrees>
            </Position>
            <AltitudeMeters>794</AltitudeMeters>
            <DistanceMeters>NAN</DistanceMeters>
          </Trackpoint>
          <Trackpoint>
            <Time>2019-10-08T07:30:27.000Z</Time>
            <Position>
              <LatitudeDegrees>40.37364743649959564208984375</LatitudeDegrees>
              <LongitudeDegrees>-5.819196291267871856689453125</LongitudeDegrees>
            </Position>
            <AltitudeMeters>794.5999755859375</AltitudeMeters>
            <DistanceMeters>NAN</DistanceMeters>
          </Trackpoint>
          <Trackpoint>
            <Time>2019-10-08T07:30:34.000Z</Time>
            <Position>
              <LatitudeDegrees>40.3734447620809078216552734375</LatitudeDegrees>
              <LongitudeDegrees>-5.819363929331302642822265625</LongitudeDegrees>
            </Position>
            <AltitudeMeters>795</AltitudeMeters>
            <DistanceMeters>NAN</DistanceMeters>
          </Trackpoint>
          <Trackpoint>
            <Time>2019-10-08T07:30:39.000Z</Time>
            <Position>
              <LatitudeDegrees>40.3733083046972751617431640625</LatitudeDegrees>
              <LongitudeDegrees>-5.81948697566986083984375</LongitudeDegrees>
            </Position>
            <AltitudeMeters>795.5999755859375</AltitudeMeters>
            <DistanceMeters>NAN</DistanceMeters>
          </Trackpoint>
          <Trackpoint>
            <Time>2019-10-08T07:30:46.000Z</Time>
            <Position>
              <LatitudeDegrees>40.3731143474578857421875</LatitudeDegrees>
              <LongitudeDegrees>-5.81965394318103790283203125</LongitudeDegrees>
            </Position>
            <AltitudeMeters>796.5999755859375</AltitudeMeters>
            <DistanceMeters>NAN</DistanceMeters>
          </Trackpoint>
          <Trackpoint>
            <Time>2019-10-08T07:30:47.000Z</Time>
            <Position>
              <LatitudeDegrees>40.3730853460729122161865234375</LatitudeDegrees>
              <LongitudeDegrees>-5.8196755684912204742431640625</LongitudeDegrees>
            </Position>
            <AltitudeMeters>796.5999755859375</AltitudeMeters>
            <DistanceMeters>NAN</DistanceMeters>
          </Trackpoint>
          <Trackpoint>
            <Time>2019-10-08T07:30:56.000Z</Time>
            <Position>
              <LatitudeDegrees>40.3728080727159976959228515625</LatitudeDegrees>
              <LongitudeDegrees>-5.8198579587042331695556640625</LongitudeDegrees>
            </Position>
            <AltitudeMeters>797</AltitudeMeters>
            <DistanceMeters>NAN</DistanceMeters>
          </Trackpoint>
          <Trackpoint>
            <Time>2019-10-08T07:31:02.000Z</Time>
            <Position>
              <LatitudeDegrees>40.3726146183907985687255859375</LatitudeDegrees>
              <LongitudeDegrees>-5.8199726231396198272705078125</LongitudeDegrees>
            </Position>
            <AltitudeMeters>798</AltitudeMeters>
            <DistanceMeters>NAN</DistanceMeters>
          </Trackpoint>
          <Trackpoint>
            <Time>2019-10-08T07:31:05.000Z</Time>
            <Position>
              <LatitudeDegrees>40.37251981906592845916748046875</LatitudeDegrees>
              <LongitudeDegrees>-5.82003003917634487152099609375</LongitudeDegrees>
            </Position>
            <AltitudeMeters>797.4000244140625</AltitudeMeters>
            <DistanceMeters>NAN</DistanceMeters>
          </Trackpoint>
          <Trackpoint>
            <Time>2019-10-08T07:31:13.000Z</Time>
            <Position>
              <LatitudeDegrees>40.37225293926894664764404296875</LatitudeDegrees>
              <LongitudeDegrees>-5.8201489783823490142822265625</LongitudeDegrees>
            </Position>
            <AltitudeMeters>797.79998779296875</AltitudeMeters>
            <DistanceMeters>NAN</DistanceMeters>
          </Trackpoint>
          <Trackpoint>
            <Time>2019-10-08T07:31:22.000Z</Time>
            <Position>
              <LatitudeDegrees>40.3719623386859893798828125</LatitudeDegrees>
              <LongitudeDegrees>-5.82032927311956882476806640625</LongitudeDegrees>
            </Position>
            <AltitudeMeters>798.5999755859375</AltitudeMeters>
            <DistanceMeters>NAN</DistanceMeters>
          </Trackpoint>
          <Trackpoint>
            <Time>2019-10-08T07:31:30.000Z</Time>
            <Position>
              <LatitudeDegrees>40.37169788964092731475830078125</LatitudeDegrees>
              <LongitudeDegrees>-5.82047210074961185455322265625</LongitudeDegrees>
            </Position>
            <AltitudeMeters>799</AltitudeMeters>
            <DistanceMeters>NAN</DistanceMeters>
          </Trackpoint>
          <Trackpoint>
            <Time>2019-10-08T07:31:31.000Z</Time>
            <Position>
              <LatitudeDegrees>40.37166536785662174224853515625</LatitudeDegrees>
              <LongitudeDegrees>-5.82048970274627208709716796875</LongitudeDegrees>
            </Position>
            <AltitudeMeters>799</AltitudeMeters>
            <DistanceMeters>NAN</DistanceMeters>
          </Trackpoint>
          <Trackpoint>
            <Time>2019-10-08T07:31:40.000Z</Time>
            <Position>
              <LatitudeDegrees>40.37136361934244632720947265625</LatitudeDegrees>
              <LongitudeDegrees>-5.8206416666507720947265625</LongitudeDegrees>
            </Position>
            <AltitudeMeters>799.4000244140625</AltitudeMeters>
            <DistanceMeters>NAN</DistanceMeters>
          </Trackpoint>
          <Trackpoint>
            <Time>2019-10-08T07:31:46.000Z</Time>
            <Position>
              <LatitudeDegrees>40.3711635433137416839599609375</LatitudeDegrees>
              <LongitudeDegrees>-5.82073445431888103485107421875</LongitudeDegrees>
            </Position>
            <AltitudeMeters>800</AltitudeMeters>
            <DistanceMeters>NAN</DistanceMeters>
          </Trackpoint>
          <Trackpoint>
            <Time>2019-10-08T07:31:52.000Z</Time>
            <Position>
              <LatitudeDegrees>40.3709643892943859100341796875</LatitudeDegrees>
              <LongitudeDegrees>-5.820812992751598358154296875</LongitudeDegrees>
            </Position>
            <AltitudeMeters>800.79998779296875</AltitudeMeters>
            <DistanceMeters>NAN</DistanceMeters>
          </Trackpoint>
          <Trackpoint>
            <Time>2019-10-08T07:31:56.000Z</Time>
            <Position>
              <LatitudeDegrees>40.37083136849105358123779296875</LatitudeDegrees>
              <LongitudeDegrees>-5.82085817120969295501708984375</LongitudeDegrees>
            </Position>
            <AltitudeMeters>801.20001220703125</AltitudeMeters>
            <DistanceMeters>NAN</DistanceMeters>
          </Trackpoint>
          <Trackpoint>
            <Time>2019-10-08T07:32:01.000Z</Time>
            <Position>
              <LatitudeDegrees>40.37066054530441761016845703125</LatitudeDegrees>
              <LongitudeDegrees>-5.82089941017329692840576171875</LongitudeDegrees>
            </Position>
            <AltitudeMeters>801.4000244140625</AltitudeMeters>
            <DistanceMeters>NAN</DistanceMeters>
          </Trackpoint>
          <Trackpoint>
            <Time>2019-10-08T07:32:05.000Z</Time>
            <Position>
              <LatitudeDegrees>40.37052660249173641204833984375</LatitudeDegrees>
              <LongitudeDegrees>-5.820909552276134490966796875</LongitudeDegrees>
            </Position>
            <AltitudeMeters>802.20001220703125</AltitudeMeters>
            <DistanceMeters>NAN</DistanceMeters>
          </Trackpoint>
          <Trackpoint>
            <Time>2019-10-08T07:32:11.000Z</Time>
            <Position>
              <LatitudeDegrees>40.3703213296830654144287109375</LatitudeDegrees>
              <LongitudeDegrees>-5.82090251147747039794921875</LongitudeDegrees>
            </Position>
            <AltitudeMeters>802.20001220703125</AltitudeMeters>
            <DistanceMeters>NAN</DistanceMeters>
          </Trackpoint>
          <Trackpoint>
            <Time>2019-10-08T07:32:20.000Z</Time>
            <Position>
              <LatitudeDegrees>40.370019413530826568603515625</LatitudeDegrees>
              <LongitudeDegrees>-5.82087644375860691070556640625</LongitudeDegrees>
            </Position>
            <AltitudeMeters>802.79998779296875</AltitudeMeters>
            <DistanceMeters>NAN</DistanceMeters>
          </Trackpoint>
          <Trackpoint>
            <Time>2019-10-08T07:32:24.000Z</Time>
            <Position>
              <LatitudeDegrees>40.36988488398492336273193359375</LatitudeDegrees>
              <LongitudeDegrees>-5.820859931409358978271484375</LongitudeDegrees>
            </Position>
            <AltitudeMeters>803.20001220703125</AltitudeMeters>
            <DistanceMeters>NAN</DistanceMeters>
          </Trackpoint>
          <Trackpoint>
            <Time>2019-10-08T07:32:30.000Z</Time>
            <Position>
              <LatitudeDegrees>40.369678102433681488037109375</LatitudeDegrees>
              <LongitudeDegrees>-5.82082816399633884429931640625</LongitudeDegrees>
            </Position>
            <AltitudeMeters>803.79998779296875</AltitudeMeters>
            <DistanceMeters>NAN</DistanceMeters>
          </Trackpoint>
          <Trackpoint>
            <Time>2019-10-08T07:32:39.000Z</Time>
            <Position>
              <LatitudeDegrees>40.36935933865606784820556640625</LatitudeDegrees>
              <LongitudeDegrees>-5.82078541629016399383544921875</LongitudeDegrees>
            </Position>
            <AltitudeMeters>804.20001220703125</AltitudeMeters>
            <DistanceMeters>NAN</DistanceMeters>
          </Trackpoint>
          <Trackpoint>
            <Time>2019-10-08T07:32:42.000Z</Time>
            <Position>
              <LatitudeDegrees>40.36925523541867733001708984375</LatitudeDegrees>
              <LongitudeDegrees>-5.82077166996896266937255859375</LongitudeDegrees>
            </Position>
            <AltitudeMeters>804.20001220703125</AltitudeMeters>
            <DistanceMeters>NAN</DistanceMeters>
          </Trackpoint>
          <Trackpoint>
            <Time>2019-10-08T07:32:52.000Z</Time>
            <Position>
              <LatitudeDegrees>40.3689064644277095794677734375</LatitudeDegrees>
              <LongitudeDegrees>-5.82072624005377292633056640625</LongitudeDegrees>
            </Position>
            <AltitudeMeters>805</AltitudeMeters>
            <DistanceMeters>NAN</DistanceMeters>
          </Trackpoint>
          <Trackpoint>
            <Time>2019-10-08T07:32:54.000Z</Time>
            <Position>
              <LatitudeDegrees>40.3688373975455760955810546875</LatitudeDegrees>
              <LongitudeDegrees>-5.8207169361412525177001953125</LongitudeDegrees>
            </Position>
            <AltitudeMeters>805.4000244140625</AltitudeMeters>
            <DistanceMeters>NAN</DistanceMeters>
          </Trackpoint>
          <Trackpoint>
            <Time>2019-10-08T07:33:04.000Z</Time>
            <Position>
              <LatitudeDegrees>40.3684888780117034912109375</LatitudeDegrees>
              <LongitudeDegrees>-5.82066287286579608917236328125</LongitudeDegrees>
            </Position>
            <AltitudeMeters>805.79998779296875</AltitudeMeters>
            <DistanceMeters>NAN</DistanceMeters>
          </Trackpoint>
          <Trackpoint>
            <Time>2019-10-08T07:33:13.000Z</Time>
            <Position>
              <LatitudeDegrees>40.36817279644310474395751953125</LatitudeDegrees>
              <LongitudeDegrees>-5.8206148445606231689453125</LongitudeDegrees>
            </Position>
            <AltitudeMeters>806.4000244140625</AltitudeMeters>
            <DistanceMeters>NAN</DistanceMeters>
          </Trackpoint>
          <Trackpoint>
            <Time>2019-10-08T07:33:16.000Z</Time>
            <Position>
              <LatitudeDegrees>40.368070788681507110595703125</LatitudeDegrees>
              <LongitudeDegrees>-5.82060570828616619110107421875</LongitudeDegrees>
            </Position>
            <AltitudeMeters>806.20001220703125</AltitudeMeters>
            <DistanceMeters>NAN</DistanceMeters>
          </Trackpoint>
          <Trackpoint>
            <Time>2019-10-08T07:33:21.000Z</Time>
            <Position>
              <LatitudeDegrees>40.36790809594094753265380859375</LatitudeDegrees>
              <LongitudeDegrees>-5.82060336135327816009521484375</LongitudeDegrees>
            </Position>
            <AltitudeMeters>807.5999755859375</AltitudeMeters>
            <DistanceMeters>NAN</DistanceMeters>
          </Trackpoint>
          <Trackpoint>
            <Time>2019-10-08T07:33:24.000Z</Time>
            <Position>
              <LatitudeDegrees>40.367831401526927947998046875</LatitudeDegrees>
              <LongitudeDegrees>-5.82064091227948665618896484375</LongitudeDegrees>
            </Position>
            <AltitudeMeters>808.20001220703125</AltitudeMeters>
            <DistanceMeters>NAN</DistanceMeters>
          </Trackpoint>
          <Trackpoint>
            <Time>2019-10-08T07:33:28.000Z</Time>
            <Position>
              <LatitudeDegrees>40.3677259571850299835205078125</LatitudeDegrees>
              <LongitudeDegrees>-5.82070863805711269378662109375</LongitudeDegrees>
            </Position>
            <AltitudeMeters>808.79998779296875</AltitudeMeters>
            <DistanceMeters>NAN</DistanceMeters>
          </Trackpoint>
          <Trackpoint>
            <Time>2019-10-08T07:33:31.000Z</Time>
            <Position>
              <LatitudeDegrees>40.36766082979738712310791015625</LatitudeDegrees>
              <LongitudeDegrees>-5.820784829556941986083984375</LongitudeDegrees>
            </Position>
            <AltitudeMeters>809.4000244140625</AltitudeMeters>
            <DistanceMeters>NAN</DistanceMeters>
          </Trackpoint>
          <Trackpoint>
            <Time>2019-10-08T07:33:36.000Z</Time>
            <Position>
              <LatitudeDegrees>40.3675630129873752593994140625</LatitudeDegrees>
              <LongitudeDegrees>-5.8209305070340633392333984375</LongitudeDegrees>
            </Position>
            <AltitudeMeters>810</AltitudeMeters>
            <DistanceMeters>NAN</DistanceMeters>
          </Trackpoint>
          <Trackpoint>
            <Time>2019-10-08T07:33:39.000Z</Time>
            <Position>
              <LatitudeDegrees>40.36750291474163532257080078125</LatitudeDegrees>
              <LongitudeDegrees>-5.821026228368282318115234375</LongitudeDegrees>
            </Position>
            <AltitudeMeters>809.5999755859375</AltitudeMeters>
            <DistanceMeters>NAN</DistanceMeters>
          </Trackpoint>
          <Trackpoint>
            <Time>2019-10-08T07:33:44.000Z</Time>
            <Position>
              <LatitudeDegrees>40.3673987276852130889892578125</LatitudeDegrees>
              <LongitudeDegrees>-5.82123401574790477752685546875</LongitudeDegrees>
            </Position>
            <AltitudeMeters>810.4000244140625</AltitudeMeters>
            <DistanceMeters>NAN</DistanceMeters>
          </Trackpoint>
          <Trackpoint>
            <Time>2019-10-08T07:33:47.000Z</Time>
            <Position>
              <LatitudeDegrees>40.36735321395099163055419921875</LatitudeDegrees>
              <LongitudeDegrees>-5.82132470794022083282470703125</LongitudeDegrees>
            </Position>
            <AltitudeMeters>810.5999755859375</AltitudeMeters>
            <DistanceMeters>NAN</DistanceMeters>
          </Trackpoint>
          <Trackpoint>
            <Time>2019-10-08T07:33:51.000Z</Time>
            <Position>
              <LatitudeDegrees>40.36728314124047756195068359375</LatitudeDegrees>
              <LongitudeDegrees>-5.82147105596959590911865234375</LongitudeDegrees>
            </Position>
            <AltitudeMeters>811.20001220703125</AltitudeMeters>
            <DistanceMeters>NAN</DistanceMeters>
          </Trackpoint>
          <Trackpoint>
            <Time>2019-10-08T07:33:55.000Z</Time>
            <Position>
              <LatitudeDegrees>40.367215164005756378173828125</LatitudeDegrees>
              <LongitudeDegrees>-5.8216211758553981781005859375</LongitudeDegrees>
            </Position>
            <AltitudeMeters>811.5999755859375</AltitudeMeters>
            <DistanceMeters>NAN</DistanceMeters>
          </Trackpoint>
          <Trackpoint>
            <Time>2019-10-08T07:34:04.000Z</Time>
            <Position>
              <LatitudeDegrees>40.3670600987970829010009765625</LatitudeDegrees>
              <LongitudeDegrees>-5.82198838703334331512451171875</LongitudeDegrees>
            </Position>
            <AltitudeMeters>811.79998779296875</AltitudeMeters>
            <DistanceMeters>NAN</DistanceMeters>
          </Trackpoint>
          <Trackpoint>
            <Time>2019-10-08T07:34:08.000Z</Time>
            <Position>
              <LatitudeDegrees>40.36698809824883937835693359375</LatitudeDegrees>
              <LongitudeDegrees>-5.82214479334652423858642578125</LongitudeDegrees>
            </Position>
            <AltitudeMeters>812.20001220703125</AltitudeMeters>
            <DistanceMeters>NAN</DistanceMeters>
          </Trackpoint>
          <Trackpoint>
            <Time>2019-10-08T07:34:13.000Z</Time>
            <Position>
              <LatitudeDegrees>40.36690226756036281585693359375</LatitudeDegrees>
              <LongitudeDegrees>-5.8223406784236431121826171875</LongitudeDegrees>
            </Position>
            <AltitudeMeters>812.4000244140625</AltitudeMeters>
            <DistanceMeters>NAN</DistanceMeters>
          </Trackpoint>
          <Trackpoint>
            <Time>2019-10-08T07:34:22.000Z</Time>
            <Position>
              <LatitudeDegrees>40.3667362220585346221923828125</LatitudeDegrees>
              <LongitudeDegrees>-5.82268693484365940093994140625</LongitudeDegrees>
            </Position>
            <AltitudeMeters>813.20001220703125</AltitudeMeters>
            <DistanceMeters>NAN</DistanceMeters>
          </Trackpoint>
          <Trackpoint>
            <Time>2019-10-08T07:34:23.000Z</Time>
            <Position>
              <LatitudeDegrees>40.36671585403382778167724609375</LatitudeDegrees>
              <LongitudeDegrees>-5.82272331230342388153076171875</LongitudeDegrees>
            </Position>
            <AltitudeMeters>813.5999755859375</AltitudeMeters>
            <DistanceMeters>NAN</DistanceMeters>
          </Trackpoint>
          <Trackpoint>
            <Time>2019-10-08T07:34:30.000Z</Time>
            <Position>
              <LatitudeDegrees>40.36656229756772518157958984375</LatitudeDegrees>
              <LongitudeDegrees>-5.8229636214673519134521484375</LongitudeDegrees>
            </Position>
            <AltitudeMeters>814.4000244140625</AltitudeMeters>
            <DistanceMeters>NAN</DistanceMeters>
          </Trackpoint>
          <Trackpoint>
            <Time>2019-10-08T07:34:31.000Z</Time>
            <Position>
              <LatitudeDegrees>40.366537235677242279052734375</LatitudeDegrees>
              <LongitudeDegrees>-5.82299320958554744720458984375</LongitudeDegrees>
            </Position>
            <AltitudeMeters>814.79998779296875</AltitudeMeters>
            <DistanceMeters>NAN</DistanceMeters>
          </Trackpoint>
          <Trackpoint>
            <Time>2019-10-08T07:34:40.000Z</Time>
            <Position>
              <LatitudeDegrees>40.36629776470363140106201171875</LatitudeDegrees>
              <LongitudeDegrees>-5.8232512883841991424560546875</LongitudeDegrees>
            </Position>
            <AltitudeMeters>815.4000244140625</AltitudeMeters>
            <DistanceMeters>NAN</DistanceMeters>
          </Trackpoint>
          <Trackpoint>
            <Time>2019-10-08T07:34:47.000Z</Time>
            <Position>
              <LatitudeDegrees>40.366107411682605743408203125</LatitudeDegrees>
              <LongitudeDegrees>-5.823442228138446807861328125</LongitudeDegrees>
            </Position>
            <AltitudeMeters>815.79998779296875</AltitudeMeters>
            <DistanceMeters>NAN</DistanceMeters>
          </Trackpoint>
          <Trackpoint>
            <Time>2019-10-08T07:34:49.000Z</Time>
            <Position>
              <LatitudeDegrees>40.3660515882074832916259765625</LatitudeDegrees>
              <LongitudeDegrees>-5.8234896697103977203369140625</LongitudeDegrees>
            </Position>
            <AltitudeMeters>816</AltitudeMeters>
            <DistanceMeters>NAN</DistanceMeters>
          </Trackpoint>
          <Trackpoint>
            <Time>2019-10-08T07:34:55.000Z</Time>
            <Position>
              <LatitudeDegrees>40.3658966906368732452392578125</LatitudeDegrees>
              <LongitudeDegrees>-5.82364414818584918975830078125</LongitudeDegrees>
            </Position>
            <AltitudeMeters>816.20001220703125</AltitudeMeters>
            <DistanceMeters>NAN</DistanceMeters>
          </Trackpoint>
          <Trackpoint>
            <Time>2019-10-08T07:35:02.000Z</Time>
            <Position>
              <LatitudeDegrees>40.365733914077281951904296875</LatitudeDegrees>
              <LongitudeDegrees>-5.82384849898517131805419921875</LongitudeDegrees>
            </Position>
            <AltitudeMeters>817</AltitudeMeters>
            <DistanceMeters>NAN</DistanceMeters>
          </Trackpoint>
          <Trackpoint>
            <Time>2019-10-08T07:35:08.000Z</Time>
            <Position>
              <LatitudeDegrees>40.36558899097144603729248046875</LatitudeDegrees>
              <LongitudeDegrees>-5.82404010929167270660400390625</LongitudeDegrees>
            </Position>
            <AltitudeMeters>817.79998779296875</AltitudeMeters>
            <DistanceMeters>NAN</DistanceMeters>
          </Trackpoint>
          <Trackpoint>
            <Time>2019-10-08T07:35:09.000Z</Time>
            <Position>
              <LatitudeDegrees>40.36556401289999485015869140625</LatitudeDegrees>
              <LongitudeDegrees>-5.8240696974098682403564453125</LongitudeDegrees>
            </Position>
            <AltitudeMeters>818</AltitudeMeters>
            <DistanceMeters>NAN</DistanceMeters>
          </Trackpoint>
          <Trackpoint>
            <Time>2019-10-08T07:35:16.000Z</Time>
            <Position>
              <LatitudeDegrees>40.365389920771121978759765625</LatitudeDegrees>
              <LongitudeDegrees>-5.8242825977504253387451171875</LongitudeDegrees>
            </Position>
            <AltitudeMeters>818.79998779296875</AltitudeMeters>
            <DistanceMeters>NAN</DistanceMeters>
          </Trackpoint>
          <Trackpoint>
            <Time>2019-10-08T07:35:18.000Z</Time>
            <Position>
              <LatitudeDegrees>40.36533887498080730438232421875</LatitudeDegrees>
              <LongitudeDegrees>-5.82434705458581447601318359375</LongitudeDegrees>
            </Position>
            <AltitudeMeters>819.20001220703125</AltitudeMeters>
            <DistanceMeters>NAN</DistanceMeters>
          </Trackpoint>
          <Trackpoint>
            <Time>2019-10-08T07:35:24.000Z</Time>
            <Position>
              <LatitudeDegrees>40.36517358385026454925537109375</LatitudeDegrees>
              <LongitudeDegrees>-5.82449424080550670623779296875</LongitudeDegrees>
            </Position>
            <AltitudeMeters>820.4000244140625</AltitudeMeters>
            <DistanceMeters>NAN</DistanceMeters>
          </Trackpoint>
          <Trackpoint>
            <Time>2019-10-08T07:35:25.000Z</Time>
            <Position>
              <LatitudeDegrees>40.36514575593173503875732421875</LatitudeDegrees>
              <LongitudeDegrees>-5.82451544702053070068359375</LongitudeDegrees>
            </Position>
            <AltitudeMeters>820.4000244140625</AltitudeMeters>
            <DistanceMeters>NAN</DistanceMeters>
          </Trackpoint>
          <Trackpoint>
            <Time>2019-10-08T07:35:31.000Z</Time>
            <Position>
              <LatitudeDegrees>40.364985577762126922607421875</LatitudeDegrees>
              <LongitudeDegrees>-5.82461510784924030303955078125</LongitudeDegrees>
            </Position>
            <AltitudeMeters>821.20001220703125</AltitudeMeters>
            <DistanceMeters>NAN</DistanceMeters>
          </Trackpoint>
          <Trackpoint>
            <Time>2019-10-08T07:35:32.000Z</Time>
            <Position>
              <LatitudeDegrees>40.36495783366262912750244140625</LatitudeDegrees>
              <LongitudeDegrees>-5.82463036291301250457763671875</LongitudeDegrees>
            </Position>
            <AltitudeMeters>821.4000244140625</AltitudeMeters>
            <DistanceMeters>NAN</DistanceMeters>
          </Trackpoint>
          <Trackpoint>
            <Time>2019-10-08T07:35:40.000Z</Time>
            <Position>
              <LatitudeDegrees>40.36474862135946750640869140625</LatitudeDegrees>
              <LongitudeDegrees>-5.824765898287296295166015625</LongitudeDegrees>
            </Position>
            <AltitudeMeters>822.4000244140625</AltitudeMeters>
            <DistanceMeters>NAN</DistanceMeters>
          </Trackpoint>
          <Trackpoint>
            <Time>2019-10-08T07:35:41.000Z</Time>
            <Position>
              <LatitudeDegrees>40.364721715450286865234375</LatitudeDegrees>
              <LongitudeDegrees>-5.82478257827460765838623046875</LongitudeDegrees>
            </Position>
            <AltitudeMeters>822.79998779296875</AltitudeMeters>
            <DistanceMeters>NAN</DistanceMeters>
          </Trackpoint>
          <Trackpoint>
            <Time>2019-10-08T07:35:46.000Z</Time>
            <Position>
              <LatitudeDegrees>40.3645964898169040679931640625</LatitudeDegrees>
              <LongitudeDegrees>-5.82486656494438648223876953125</LongitudeDegrees>
            </Position>
            <AltitudeMeters>823.5999755859375</AltitudeMeters>
            <DistanceMeters>NAN</DistanceMeters>
          </Trackpoint>
          <Trackpoint>
            <Time>2019-10-08T07:35:49.000Z</Time>
            <Position>
              <LatitudeDegrees>40.3645257465541362762451171875</LatitudeDegrees>
              <LongitudeDegrees>-5.82491777837276458740234375</LongitudeDegrees>
            </Position>
            <AltitudeMeters>823.5999755859375</AltitudeMeters>
            <DistanceMeters>NAN</DistanceMeters>
          </Trackpoint>
          <Trackpoint>
            <Time>2019-10-08T07:35:57.000Z</Time>
            <Position>
              <LatitudeDegrees>40.364336483180522918701171875</LatitudeDegrees>
              <LongitudeDegrees>-5.8250302635133266448974609375</LongitudeDegrees>
            </Position>
            <AltitudeMeters>824.79998779296875</AltitudeMeters>
            <DistanceMeters>NAN</DistanceMeters>
          </Trackpoint>
          <Trackpoint>
            <Time>2019-10-08T07:35:59.000Z</Time>
            <Position>
              <LatitudeDegrees>40.36429013125598430633544921875</LatitudeDegrees>
              <LongitudeDegrees>-5.82505993545055389404296875</LongitudeDegrees>
            </Position>
            <AltitudeMeters>825.4000244140625</AltitudeMeters>
            <DistanceMeters>NAN</DistanceMeters>
          </Trackpoint>
          <Trackpoint>
            <Time>2019-10-08T07:36:04.000Z</Time>
            <Position>
              <LatitudeDegrees>40.3641716949641704559326171875</LatitudeDegrees>
              <LongitudeDegrees>-5.825138725340366363525390625</LongitudeDegrees>
            </Position>
            <AltitudeMeters>826.20001220703125</AltitudeMeters>
            <DistanceMeters>NAN</DistanceMeters>
          </Trackpoint>
          <Trackpoint>
            <Time>2019-10-08T07:36:09.000Z</Time>
            <Position>
              <LatitudeDegrees>40.364056527614593505859375</LatitudeDegrees>
              <LongitudeDegrees>-5.82521609030663967132568359375</LongitudeDegrees>
            </Position>
            <AltitudeMeters>826.79998779296875</AltitudeMeters>
            <DistanceMeters>NAN</DistanceMeters>
          </Trackpoint>
          <Trackpoint>
            <Time>2019-10-08T07:36:15.000Z</Time>
            <Position>
              <LatitudeDegrees>40.3639172203838825225830078125</LatitudeDegrees>
              <LongitudeDegrees>-5.82530041225254535675048828125</LongitudeDegrees>
            </Position>
            <AltitudeMeters>827.4000244140625</AltitudeMeters>
            <DistanceMeters>NAN</DistanceMeters>
          </Trackpoint>
          <Trackpoint>
            <Time>2019-10-08T07:36:18.000Z</Time>
            <Position>
              <LatitudeDegrees>40.3638521768152713775634765625</LatitudeDegrees>
              <LongitudeDegrees>-5.82534617744386196136474609375</LongitudeDegrees>
            </Position>
            <AltitudeMeters>827.79998779296875</AltitudeMeters>
            <DistanceMeters>NAN</DistanceMeters>
          </Trackpoint>
          <Trackpoint>
            <Time>2019-10-08T07:36:20.000Z</Time>
            <Position>
              <LatitudeDegrees>40.36381169222295284271240234375</LatitudeDegrees>
              <LongitudeDegrees>-5.825383476912975311279296875</LongitudeDegrees>
            </Position>
            <AltitudeMeters>828.4000244140625</AltitudeMeters>
            <DistanceMeters>NAN</DistanceMeters>
          </Trackpoint>
          <Trackpoint>
            <Time>2019-10-08T07:36:28.000Z</Time>
            <Position>
              <LatitudeDegrees>40.36364053376019001007080078125</LatitudeDegrees>
              <LongitudeDegrees>-5.82552035339176654815673828125</LongitudeDegrees>
            </Position>
            <AltitudeMeters>829</AltitudeMeters>
            <DistanceMeters>NAN</DistanceMeters>
          </Trackpoint>
          <Trackpoint>
            <Time>2019-10-08T07:36:30.000Z</Time>
            <Position>
              <LatitudeDegrees>40.3635933436453342437744140625</LatitudeDegrees>
              <LongitudeDegrees>-5.82555086351931095123291015625</LongitudeDegrees>
            </Position>
            <AltitudeMeters>829.5999755859375</AltitudeMeters>
            <DistanceMeters>NAN</DistanceMeters>
          </Trackpoint>
          <Trackpoint>
            <Time>2019-10-08T07:36:39.000Z</Time>
            <Position>
              <LatitudeDegrees>40.36338924430310726165771484375</LatitudeDegrees>
              <LongitudeDegrees>-5.82569587044417858123779296875</LongitudeDegrees>
            </Position>
            <AltitudeMeters>830.5999755859375</AltitudeMeters>
            <DistanceMeters>NAN</DistanceMeters>
          </Trackpoint>
          <Trackpoint>
            <Time>2019-10-08T07:36:40.000Z</Time>
            <Position>
              <LatitudeDegrees>40.36336644552648067474365234375</LatitudeDegrees>
              <LongitudeDegrees>-5.825713388621807098388671875</LongitudeDegrees>
            </Position>
            <AltitudeMeters>830.79998779296875</AltitudeMeters>
            <DistanceMeters>NAN</DistanceMeters>
          </Trackpoint>
          <Trackpoint>
            <Time>2019-10-08T07:36:49.000Z</Time>
            <Position>
              <LatitudeDegrees>40.36315329372882843017578125</LatitudeDegrees>
              <LongitudeDegrees>-5.825859569013118743896484375</LongitudeDegrees>
            </Position>
            <AltitudeMeters>831.79998779296875</AltitudeMeters>
            <DistanceMeters>NAN</DistanceMeters>
          </Trackpoint>
          <Trackpoint>
            <Time>2019-10-08T07:36:52.000Z</Time>
            <Position>
              <LatitudeDegrees>40.36308263428509235382080078125</LatitudeDegrees>
              <LongitudeDegrees>-5.82590692676603794097900390625</LongitudeDegrees>
            </Position>
            <AltitudeMeters>831.79998779296875</AltitudeMeters>
            <DistanceMeters>NAN</DistanceMeters>
          </Trackpoint>
          <Trackpoint>
            <Time>2019-10-08T07:37:00.000Z</Time>
            <Position>
              <LatitudeDegrees>40.36289387382566928863525390625</LatitudeDegrees>
              <LongitudeDegrees>-5.8260424621403217315673828125</LongitudeDegrees>
            </Position>
            <AltitudeMeters>832.79998779296875</AltitudeMeters>
            <DistanceMeters>NAN</DistanceMeters>
          </Trackpoint>
          <Trackpoint>
            <Time>2019-10-08T07:37:03.000Z</Time>
            <Position>
              <LatitudeDegrees>40.36282128654420375823974609375</LatitudeDegrees>
              <LongitudeDegrees>-5.82609065808355808258056640625</LongitudeDegrees>
            </Position>
            <AltitudeMeters>833</AltitudeMeters>
            <DistanceMeters>NAN</DistanceMeters>
          </Trackpoint>
          <Trackpoint>
            <Time>2019-10-08T07:37:10.000Z</Time>
            <Position>
              <LatitudeDegrees>40.36265213973820209503173828125</LatitudeDegrees>
              <LongitudeDegrees>-5.8262007124722003936767578125</LongitudeDegrees>
            </Position>
            <AltitudeMeters>833.79998779296875</AltitudeMeters>
            <DistanceMeters>NAN</DistanceMeters>
          </Trackpoint>
          <Trackpoint>
            <Time>2019-10-08T07:37:13.000Z</Time>
            <Position>
              <LatitudeDegrees>40.362577624619007110595703125</LatitudeDegrees>
              <LongitudeDegrees>-5.82623532973229885101318359375</LongitudeDegrees>
            </Position>
            <AltitudeMeters>833.79998779296875</AltitudeMeters>
            <DistanceMeters>NAN</DistanceMeters>
          </Trackpoint>
          <Trackpoint>
            <Time>2019-10-08T07:37:23.000Z</Time>
            <Position>
              <LatitudeDegrees>40.3622887842357158660888671875</LatitudeDegrees>
              <LongitudeDegrees>-5.82630313932895660400390625</LongitudeDegrees>
            </Position>
            <AltitudeMeters>834</AltitudeMeters>
            <DistanceMeters>NAN</DistanceMeters>
          </Trackpoint>
          <Trackpoint>
            <Time>2019-10-08T07:37:31.000Z</Time>
            <Position>
              <LatitudeDegrees>40.361970104277133941650390625</LatitudeDegrees>
              <LongitudeDegrees>-5.82635016180574893951416015625</LongitudeDegrees>
            </Position>
            <AltitudeMeters>833.20001220703125</AltitudeMeters>
            <DistanceMeters>NAN</DistanceMeters>
          </Trackpoint>
          <Trackpoint>
            <Time>2019-10-08T07:37:32.000Z</Time>
            <Position>
              <LatitudeDegrees>40.36192559637129306793212890625</LatitudeDegrees>
              <LongitudeDegrees>-5.8263562805950641632080078125</LongitudeDegrees>
            </Position>
            <AltitudeMeters>833</AltitudeMeters>
            <DistanceMeters>NAN</DistanceMeters>
          </Trackpoint>
          <Trackpoint>
            <Time>2019-10-08T07:37:40.000Z</Time>
            <Position>
              <LatitudeDegrees>40.36157757975161075592041015625</LatitudeDegrees>
              <LongitudeDegrees>-5.8264008723199367523193359375</LongitudeDegrees>
            </Position>
            <AltitudeMeters>833</AltitudeMeters>
            <DistanceMeters>NAN</DistanceMeters>
          </Trackpoint>
          <Trackpoint>
            <Time>2019-10-08T07:37:42.000Z</Time>
            <Position>
              <LatitudeDegrees>40.36148739047348499298095703125</LatitudeDegrees>
              <LongitudeDegrees>-5.82643196918070316314697265625</LongitudeDegrees>
            </Position>
            <AltitudeMeters>832.4000244140625</AltitudeMeters>
            <DistanceMeters>NAN</DistanceMeters>
          </Trackpoint>
          <Trackpoint>
            <Time>2019-10-08T07:37:43.000Z</Time>
            <Position>
              <LatitudeDegrees>40.36144129000604152679443359375</LatitudeDegrees>
              <LongitudeDegrees>-5.82645007409155368804931640625</LongitudeDegrees>
            </Position>
            <AltitudeMeters>832.4000244140625</AltitudeMeters>
            <DistanceMeters>NAN</DistanceMeters>
          </Trackpoint>
          <Trackpoint>
            <Time>2019-10-08T07:37:49.000Z</Time>
            <Position>
              <LatitudeDegrees>40.36120072938501834869384765625</LatitudeDegrees>
              <LongitudeDegrees>-5.82659943960607051849365234375</LongitudeDegrees>
            </Position>
            <AltitudeMeters>833</AltitudeMeters>
            <DistanceMeters>NAN</DistanceMeters>
          </Trackpoint>
          <Trackpoint>
            <Time>2019-10-08T07:37:51.000Z</Time>
            <Position>
              <LatitudeDegrees>40.3611448220908641815185546875</LatitudeDegrees>
              <LongitudeDegrees>-5.8266446180641651153564453125</LongitudeDegrees>
            </Position>
            <AltitudeMeters>833.79998779296875</AltitudeMeters>
            <DistanceMeters>NAN</DistanceMeters>
          </Trackpoint>
          <Trackpoint>
            <Time>2019-10-08T07:37:55.000Z</Time>
            <Position>
              <LatitudeDegrees>40.3610536269843578338623046875</LatitudeDegrees>
              <LongitudeDegrees>-5.82673556171357631683349609375</LongitudeDegrees>
            </Position>
            <AltitudeMeters>834.79998779296875</AltitudeMeters>
            <DistanceMeters>NAN</DistanceMeters>
          </Trackpoint>
          <Trackpoint>
            <Time>2019-10-08T07:37:56.000Z</Time>
            <Position>
              <LatitudeDegrees>40.361030660569667816162109375</LatitudeDegrees>
              <LongitudeDegrees>-5.82675643265247344970703125</LongitudeDegrees>
            </Position>
            <AltitudeMeters>835.20001220703125</AltitudeMeters>
            <DistanceMeters>NAN</DistanceMeters>
          </Trackpoint>
          <Trackpoint>
            <Time>2019-10-08T07:38:01.000Z</Time>
            <Position>
              <LatitudeDegrees>40.36092965863645076751708984375</LatitudeDegrees>
              <LongitudeDegrees>-5.8268494717776775360107421875</LongitudeDegrees>
            </Position>
            <AltitudeMeters>835.79998779296875</AltitudeMeters>
            <DistanceMeters>NAN</DistanceMeters>
          </Trackpoint>
          <Trackpoint>
            <Time>2019-10-08T07:38:02.000Z</Time>
            <Position>
              <LatitudeDegrees>40.36090820096433162689208984375</LatitudeDegrees>
              <LongitudeDegrees>-5.82687118090689182281494140625</LongitudeDegrees>
            </Position>
            <AltitudeMeters>836</AltitudeMeters>
            <DistanceMeters>NAN</DistanceMeters>
          </Trackpoint>
          <Trackpoint>
            <Time>2019-10-08T07:38:04.000Z</Time>
            <Position>
              <LatitudeDegrees>40.36086268723011016845703125</LatitudeDegrees>
              <LongitudeDegrees>-5.82692214287817478179931640625</LongitudeDegrees>
            </Position>
            <AltitudeMeters>836.5999755859375</AltitudeMeters>
            <DistanceMeters>NAN</DistanceMeters>
          </Trackpoint>
          <Trackpoint>
            <Time>2019-10-08T07:38:08.000Z</Time>
            <Position>
              <LatitudeDegrees>40.360775850713253021240234375</LatitudeDegrees>
              <LongitudeDegrees>-5.8270167745649814605712890625</LongitudeDegrees>
            </Position>
            <AltitudeMeters>837.20001220703125</AltitudeMeters>
            <DistanceMeters>NAN</DistanceMeters>
          </Trackpoint>
          <Trackpoint>
            <Time>2019-10-08T07:38:10.000Z</Time>
            <Position>
              <LatitudeDegrees>40.3607344441115856170654296875</LatitudeDegrees>
              <LongitudeDegrees>-5.82706044428050518035888671875</LongitudeDegrees>
            </Position>
            <AltitudeMeters>837.20001220703125</AltitudeMeters>
            <DistanceMeters>NAN</DistanceMeters>
          </Trackpoint>
          <Trackpoint>
            <Time>2019-10-08T07:38:13.000Z</Time>
            <Position>
              <LatitudeDegrees>40.36067803390324115753173828125</LatitudeDegrees>
              <LongitudeDegrees>-5.82712364383041858673095703125</LongitudeDegrees>
            </Position>
            <AltitudeMeters>837.79998779296875</AltitudeMeters>
            <DistanceMeters>NAN</DistanceMeters>
          </Trackpoint>
          <Trackpoint>
            <Time>2019-10-08T07:38:16.000Z</Time>
            <Position>
              <LatitudeDegrees>40.36060988903045654296875</LatitudeDegrees>
              <LongitudeDegrees>-5.8271991647779941558837890625</LongitudeDegrees>
            </Position>
            <AltitudeMeters>838</AltitudeMeters>
            <DistanceMeters>NAN</DistanceMeters>
          </Trackpoint>
          <Trackpoint>
            <Time>2019-10-08T07:38:21.000Z</Time>
            <Position>
              <LatitudeDegrees>40.36051928065717220306396484375</LatitudeDegrees>
              <LongitudeDegrees>-5.82734358496963977813720703125</LongitudeDegrees>
            </Position>
            <AltitudeMeters>839.20001220703125</AltitudeMeters>
            <DistanceMeters>NAN</DistanceMeters>
          </Trackpoint>
          <Trackpoint>
            <Time>2019-10-08T07:38:25.000Z</Time>
            <Position>
              <LatitudeDegrees>40.360457003116607666015625</LatitudeDegrees>
              <LongitudeDegrees>-5.82744198851287364959716796875</LongitudeDegrees>
            </Position>
            <AltitudeMeters>839.20001220703125</AltitudeMeters>
            <DistanceMeters>NAN</DistanceMeters>
          </Trackpoint>
          <Trackpoint>
            <Time>2019-10-08T07:38:30.000Z</Time>
            <Position>
              <LatitudeDegrees>40.36036513745784759521484375</LatitudeDegrees>
              <LongitudeDegrees>-5.8275773562490940093994140625</LongitudeDegrees>
            </Position>
            <AltitudeMeters>840.20001220703125</AltitudeMeters>
            <DistanceMeters>NAN</DistanceMeters>
          </Trackpoint>
          <Trackpoint>
            <Time>2019-10-08T07:38:35.000Z</Time>
            <Position>
              <LatitudeDegrees>40.36027528345584869384765625</LatitudeDegrees>
              <LongitudeDegrees>-5.8277101255953311920166015625</LongitudeDegrees>
            </Position>
            <AltitudeMeters>841</AltitudeMeters>
            <DistanceMeters>NAN</DistanceMeters>
          </Trackpoint>
          <Trackpoint>
            <Time>2019-10-08T07:38:36.000Z</Time>
            <Position>
              <LatitudeDegrees>40.3602571785449981689453125</LatitudeDegrees>
              <LongitudeDegrees>-5.82773501984775066375732421875</LongitudeDegrees>
            </Position>
            <AltitudeMeters>841.4000244140625</AltitudeMeters>
            <DistanceMeters>NAN</DistanceMeters>
          </Trackpoint>
          <Trackpoint>
            <Time>2019-10-08T07:38:42.000Z</Time>
            <Position>
              <LatitudeDegrees>40.3601487167179584503173828125</LatitudeDegrees>
              <LongitudeDegrees>-5.827891342341899871826171875</LongitudeDegrees>
            </Position>
            <AltitudeMeters>842</AltitudeMeters>
            <DistanceMeters>NAN</DistanceMeters>
          </Trackpoint>
          <Trackpoint>
            <Time>2019-10-08T07:38:45.000Z</Time>
            <Position>
              <LatitudeDegrees>40.360093899071216583251953125</LatitudeDegrees>
              <LongitudeDegrees>-5.82796267233788967132568359375</LongitudeDegrees>
            </Position>
            <AltitudeMeters>842.4000244140625</AltitudeMeters>
            <DistanceMeters>NAN</DistanceMeters>
          </Trackpoint>
          <Trackpoint>
            <Time>2019-10-08T07:38:51.000Z</Time>
            <Position>
              <LatitudeDegrees>40.35998904146254062652587890625</LatitudeDegrees>
              <LongitudeDegrees>-5.8280993811786174774169921875</LongitudeDegrees>
            </Position>
            <AltitudeMeters>843.4000244140625</AltitudeMeters>
            <DistanceMeters>NAN</DistanceMeters>
          </Trackpoint>
          <Trackpoint>
            <Time>2019-10-08T07:38:56.000Z</Time>
            <Position>
              <LatitudeDegrees>40.359882675111293792724609375</LatitudeDegrees>
              <LongitudeDegrees>-5.82819233648478984832763671875</LongitudeDegrees>
            </Position>
            <AltitudeMeters>844.20001220703125</AltitudeMeters>
            <DistanceMeters>NAN</DistanceMeters>
          </Trackpoint>
          <Trackpoint>
            <Time>2019-10-08T07:39:00.000Z</Time>
            <Position>
              <LatitudeDegrees>40.359792821109294891357421875</LatitudeDegrees>
              <LongitudeDegrees>-5.8282559551298618316650390625</LongitudeDegrees>
            </Position>
            <AltitudeMeters>844.4000244140625</AltitudeMeters>
            <DistanceMeters>NAN</DistanceMeters>
          </Trackpoint>
          <Trackpoint>
            <Time>2019-10-08T07:39:05.000Z</Time>
            <Position>
              <LatitudeDegrees>40.35965644754469394683837890625</LatitudeDegrees>
              <LongitudeDegrees>-5.828314125537872314453125</LongitudeDegrees>
            </Position>
            <AltitudeMeters>844.4000244140625</AltitudeMeters>
            <DistanceMeters>NAN</DistanceMeters>
          </Trackpoint>
          <Trackpoint>
            <Time>2019-10-08T07:39:12.000Z</Time>
            <Position>
              <LatitudeDegrees>40.3594094328582286834716796875</LatitudeDegrees>
              <LongitudeDegrees>-5.82842082716524600982666015625</LongitudeDegrees>
            </Position>
            <AltitudeMeters>843.4000244140625</AltitudeMeters>
            <DistanceMeters>NAN</DistanceMeters>
          </Trackpoint>
          <Trackpoint>
            <Time>2019-10-08T07:39:16.000Z</Time>
            <Position>
              <LatitudeDegrees>40.359233580529689788818359375</LatitudeDegrees>
              <LongitudeDegrees>-5.82850296981632709503173828125</LongitudeDegrees>
            </Position>
            <AltitudeMeters>842.20001220703125</AltitudeMeters>
            <DistanceMeters>NAN</DistanceMeters>
          </Trackpoint>
          <Trackpoint>
            <Time>2019-10-08T07:39:19.000Z</Time>
            <Position>
              <LatitudeDegrees>40.35909234546124935150146484375</LatitudeDegrees>
              <LongitudeDegrees>-5.82857170142233371734619140625</LongitudeDegrees>
            </Position>
            <AltitudeMeters>842.20001220703125</AltitudeMeters>
            <DistanceMeters>NAN</DistanceMeters>
          </Trackpoint>
          <Trackpoint>
            <Time>2019-10-08T07:39:22.000Z</Time>
            <Position>
              <LatitudeDegrees>40.3589195944368839263916015625</LatitudeDegrees>
              <LongitudeDegrees>-5.82865149714052677154541015625</LongitudeDegrees>
            </Position>
            <AltitudeMeters>841.20001220703125</AltitudeMeters>
            <DistanceMeters>NAN</DistanceMeters>
          </Trackpoint>
          <Trackpoint>
            <Time>2019-10-08T07:39:25.000Z</Time>
            <Position>
              <LatitudeDegrees>40.35873494111001491546630859375</LatitudeDegrees>
              <LongitudeDegrees>-5.82872919738292694091796875</LongitudeDegrees>
            </Position>
            <AltitudeMeters>840</AltitudeMeters>
            <DistanceMeters>NAN</DistanceMeters>
          </Trackpoint>
          <Trackpoint>
            <Time>2019-10-08T07:39:28.000Z</Time>
            <Position>
              <LatitudeDegrees>40.35852338187396526336669921875</LatitudeDegrees>
              <LongitudeDegrees>-5.82881678827106952667236328125</LongitudeDegrees>
            </Position>
            <AltitudeMeters>838.5999755859375</AltitudeMeters>
            <DistanceMeters>NAN</DistanceMeters>
          </Trackpoint>
          <Trackpoint>
            <Time>2019-10-08T07:39:30.000Z</Time>
            <Position>
              <LatitudeDegrees>40.358381979167461395263671875</LatitudeDegrees>
              <LongitudeDegrees>-5.8289016969501972198486328125</LongitudeDegrees>
            </Position>
            <AltitudeMeters>837.4000244140625</AltitudeMeters>
            <DistanceMeters>NAN</DistanceMeters>
          </Trackpoint>
          <Trackpoint>
            <Time>2019-10-08T07:39:31.000Z</Time>
            <Position>
              <LatitudeDegrees>40.35832037217915058135986328125</LatitudeDegrees>
              <LongitudeDegrees>-5.828980319201946258544921875</LongitudeDegrees>
            </Position>
            <AltitudeMeters>836.79998779296875</AltitudeMeters>
            <DistanceMeters>NAN</DistanceMeters>
          </Trackpoint>
          <Trackpoint>
            <Time>2019-10-08T07:39:33.000Z</Time>
            <Position>
              <LatitudeDegrees>40.3582332842051982879638671875</LatitudeDegrees>
              <LongitudeDegrees>-5.829142592847347259521484375</LongitudeDegrees>
            </Position>
            <AltitudeMeters>836.4000244140625</AltitudeMeters>
            <DistanceMeters>NAN</DistanceMeters>
          </Trackpoint>
          <Trackpoint>
            <Time>2019-10-08T07:39:34.000Z</Time>
            <Position>
              <LatitudeDegrees>40.35820235498249530792236328125</LatitudeDegrees>
              <LongitudeDegrees>-5.8292403258383274078369140625</LongitudeDegrees>
            </Position>
            <AltitudeMeters>836.4000244140625</AltitudeMeters>
            <DistanceMeters>NAN</DistanceMeters>
          </Trackpoint>
          <Trackpoint>
            <Time>2019-10-08T07:39:35.000Z</Time>
            <Position>
              <LatitudeDegrees>40.3581725992262363433837890625</LatitudeDegrees>
              <LongitudeDegrees>-5.8293456025421619415283203125</LongitudeDegrees>
            </Position>
            <AltitudeMeters>836.4000244140625</AltitudeMeters>
            <DistanceMeters>NAN</DistanceMeters>
          </Trackpoint>
          <Trackpoint>
            <Time>2019-10-08T07:39:39.000Z</Time>
            <Position>
              <LatitudeDegrees>40.35807444714009761810302734375</LatitudeDegrees>
              <LongitudeDegrees>-5.82971080206334590911865234375</LongitudeDegrees>
            </Position>
            <AltitudeMeters>836.4000244140625</AltitudeMeters>
            <DistanceMeters>NAN</DistanceMeters>
          </Trackpoint>
          <Trackpoint>
            <Time>2019-10-08T07:39:44.000Z</Time>
            <Position>
              <LatitudeDegrees>40.3579617105424404144287109375</LatitudeDegrees>
              <LongitudeDegrees>-5.83012386225163936614990234375</LongitudeDegrees>
            </Position>
            <AltitudeMeters>837.4000244140625</AltitudeMeters>
            <DistanceMeters>NAN</DistanceMeters>
          </Trackpoint>
          <Trackpoint>
            <Time>2019-10-08T07:39:47.000Z</Time>
            <Position>
              <LatitudeDegrees>40.35788602195680141448974609375</LatitudeDegrees>
              <LongitudeDegrees>-5.83033676259219646453857421875</LongitudeDegrees>
            </Position>
            <AltitudeMeters>838</AltitudeMeters>
            <DistanceMeters>NAN</DistanceMeters>
          </Trackpoint>
          <Trackpoint>
            <Time>2019-10-08T07:39:48.000Z</Time>
            <Position>
              <LatitudeDegrees>40.35785886459052562713623046875</LatitudeDegrees>
              <LongitudeDegrees>-5.83039795048534870147705078125</LongitudeDegrees>
            </Position>
            <AltitudeMeters>838.5999755859375</AltitudeMeters>
            <DistanceMeters>NAN</DistanceMeters>
          </Trackpoint>
          <Trackpoint>
            <Time>2019-10-08T07:39:51.000Z</Time>
            <Position>
              <LatitudeDegrees>40.3577635623514652252197265625</LatitudeDegrees>
              <LongitudeDegrees>-5.830577909946441650390625</LongitudeDegrees>
            </Position>
            <AltitudeMeters>838.20001220703125</AltitudeMeters>
            <DistanceMeters>NAN</DistanceMeters>
          </Trackpoint>
          <Trackpoint>
            <Time>2019-10-08T07:39:55.000Z</Time>
            <Position>
              <LatitudeDegrees>40.35762048326432704925537109375</LatitudeDegrees>
              <LongitudeDegrees>-5.830793492496013641357421875</LongitudeDegrees>
            </Position>
            <AltitudeMeters>838.20001220703125</AltitudeMeters>
            <DistanceMeters>NAN</DistanceMeters>
          </Trackpoint>
          <Trackpoint>
            <Time>2019-10-08T07:39:59.000Z</Time>
            <Position>
              <LatitudeDegrees>40.357480756938457489013671875</LatitudeDegrees>
              <LongitudeDegrees>-5.83098954521119594573974609375</LongitudeDegrees>
            </Position>
            <AltitudeMeters>838.20001220703125</AltitudeMeters>
            <DistanceMeters>NAN</DistanceMeters>
          </Trackpoint>
          <Trackpoint>
            <Time>2019-10-08T07:40:06.000Z</Time>
            <Position>
              <LatitudeDegrees>40.35724933259189128875732421875</LatitudeDegrees>
              <LongitudeDegrees>-5.831310488283634185791015625</LongitudeDegrees>
            </Position>
            <AltitudeMeters>839.4000244140625</AltitudeMeters>
            <DistanceMeters>NAN</DistanceMeters>
          </Trackpoint>
          <Trackpoint>
            <Time>2019-10-08T07:40:07.000Z</Time>
            <Position>
              <LatitudeDegrees>40.357208512723445892333984375</LatitudeDegrees>
              <LongitudeDegrees>-5.83135449327528476715087890625</LongitudeDegrees>
            </Position>
            <AltitudeMeters>839.79998779296875</AltitudeMeters>
            <DistanceMeters>NAN</DistanceMeters>
          </Trackpoint>
          <Trackpoint>
            <Time>2019-10-08T07:40:08.000Z</Time>
            <Position>
              <LatitudeDegrees>40.35717624239623546600341796875</LatitudeDegrees>
              <LongitudeDegrees>-5.83139170892536640167236328125</LongitudeDegrees>
            </Position>
            <AltitudeMeters>840</AltitudeMeters>
            <DistanceMeters>NAN</DistanceMeters>
          </Trackpoint>
          <Trackpoint>
            <Time>2019-10-08T07:40:10.000Z</Time>
            <Position>
              <LatitudeDegrees>40.357096530497074127197265625</LatitudeDegrees>
              <LongitudeDegrees>-5.83146379329264163970947265625</LongitudeDegrees>
            </Position>
            <AltitudeMeters>839.79998779296875</AltitudeMeters>
            <DistanceMeters>NAN</DistanceMeters>
          </Trackpoint>
          <Trackpoint>
            <Time>2019-10-08T07:40:14.000Z</Time>
            <Position>
              <LatitudeDegrees>40.35692813806235790252685546875</LatitudeDegrees>
              <LongitudeDegrees>-5.831592790782451629638671875</LongitudeDegrees>
            </Position>
            <AltitudeMeters>840</AltitudeMeters>
            <DistanceMeters>NAN</DistanceMeters>
          </Trackpoint>
          <Trackpoint>
            <Time>2019-10-08T07:40:15.000Z</Time>
            <Position>
              <LatitudeDegrees>40.356881283223628997802734375</LatitudeDegrees>
              <LongitudeDegrees>-5.83162036724388599395751953125</LongitudeDegrees>
            </Position>
            <AltitudeMeters>839.5999755859375</AltitudeMeters>
            <DistanceMeters>NAN</DistanceMeters>
          </Trackpoint>
          <Trackpoint>
            <Time>2019-10-08T07:40:19.000Z</Time>
            <Position>
              <LatitudeDegrees>40.3566755913197994232177734375</LatitudeDegrees>
              <LongitudeDegrees>-5.83173067308962345123291015625</LongitudeDegrees>
            </Position>
            <AltitudeMeters>838.5999755859375</AltitudeMeters>
            <DistanceMeters>NAN</DistanceMeters>
          </Trackpoint>
          <Trackpoint>
            <Time>2019-10-08T07:40:22.000Z</Time>
            <Position>
              <LatitudeDegrees>40.35649999044835567474365234375</LatitudeDegrees>
              <LongitudeDegrees>-5.83181717433035373687744140625</LongitudeDegrees>
            </Position>
            <AltitudeMeters>837.5999755859375</AltitudeMeters>
            <DistanceMeters>NAN</DistanceMeters>
          </Trackpoint>
          <Trackpoint>
            <Time>2019-10-08T07:40:23.000Z</Time>
            <Position>
              <LatitudeDegrees>40.35644215531647205352783203125</LatitudeDegrees>
              <LongitudeDegrees>-5.8318440802395343780517578125</LongitudeDegrees>
            </Position>
            <AltitudeMeters>837</AltitudeMeters>
            <DistanceMeters>NAN</DistanceMeters>
          </Trackpoint>
          <Trackpoint>
            <Time>2019-10-08T07:40:27.000Z</Time>
            <Position>
              <LatitudeDegrees>40.35617443732917308807373046875</LatitudeDegrees>
              <LongitudeDegrees>-5.83198514766991138458251953125</LongitudeDegrees>
            </Position>
            <AltitudeMeters>835.79998779296875</AltitudeMeters>
            <DistanceMeters>NAN</DistanceMeters>
          </Trackpoint>
          <Trackpoint>
            <Time>2019-10-08T07:40:29.000Z</Time>
            <Position>
              <LatitudeDegrees>40.3560407459735870361328125</LatitudeDegrees>
              <LongitudeDegrees>-5.8320660330355167388916015625</LongitudeDegrees>
            </Position>
            <AltitudeMeters>835.20001220703125</AltitudeMeters>
            <DistanceMeters>NAN</DistanceMeters>
          </Trackpoint>
          <Trackpoint>
            <Time>2019-10-08T07:40:30.000Z</Time>
            <Position>
              <LatitudeDegrees>40.35597226582467555999755859375</LatitudeDegrees>
              <LongitudeDegrees>-5.83210752345621585845947265625</LongitudeDegrees>
            </Position>
            <AltitudeMeters>834.5999755859375</AltitudeMeters>
            <DistanceMeters>NAN</DistanceMeters>
          </Trackpoint>
          <Trackpoint>
            <Time>2019-10-08T07:40:33.000Z</Time>
            <Position>
              <LatitudeDegrees>40.3557783924043178558349609375</LatitudeDegrees>
              <LongitudeDegrees>-5.83225227892398834228515625</LongitudeDegrees>
            </Position>
            <AltitudeMeters>834.5999755859375</AltitudeMeters>
            <DistanceMeters>NAN</DistanceMeters>
          </Trackpoint>
          <Trackpoint>
            <Time>2019-10-08T07:40:35.000Z</Time>
            <Position>
              <LatitudeDegrees>40.35566749982535839080810546875</LatitudeDegrees>
              <LongitudeDegrees>-5.8323547057807445526123046875</LongitudeDegrees>
            </Position>
            <AltitudeMeters>835.20001220703125</AltitudeMeters>
            <DistanceMeters>NAN</DistanceMeters>
          </Trackpoint>
          <Trackpoint>
            <Time>2019-10-08T07:40:38.000Z</Time>
            <Position>
              <LatitudeDegrees>40.35551947541534900665283203125</LatitudeDegrees>
              <LongitudeDegrees>-5.83249728195369243621826171875</LongitudeDegrees>
            </Position>
            <AltitudeMeters>835.79998779296875</AltitudeMeters>
            <DistanceMeters>NAN</DistanceMeters>
          </Trackpoint>
          <Trackpoint>
            <Time>2019-10-08T07:40:41.000Z</Time>
            <Position>
              <LatitudeDegrees>40.35537715069949626922607421875</LatitudeDegrees>
              <LongitudeDegrees>-5.8326286263763904571533203125</LongitudeDegrees>
            </Position>
            <AltitudeMeters>836.20001220703125</AltitudeMeters>
            <DistanceMeters>NAN</DistanceMeters>
          </Trackpoint>
          <Trackpoint>
            <Time>2019-10-08T07:40:43.000Z</Time>
            <Position>
              <LatitudeDegrees>40.3553143702447414398193359375</LatitudeDegrees>
              <LongitudeDegrees>-5.83268101327121257781982421875</LongitudeDegrees>
            </Position>
            <AltitudeMeters>837.5999755859375</AltitudeMeters>
            <DistanceMeters>NAN</DistanceMeters>
          </Trackpoint>
          <Trackpoint>
            <Time>2019-10-08T07:40:48.000Z</Time>
            <Position>
              <LatitudeDegrees>40.3551537729799747467041015625</LatitudeDegrees>
              <LongitudeDegrees>-5.83284714259207248687744140625</LongitudeDegrees>
            </Position>
            <AltitudeMeters>837.79998779296875</AltitudeMeters>
            <DistanceMeters>NAN</DistanceMeters>
          </Trackpoint>
          <Trackpoint>
            <Time>2019-10-08T07:40:53.000Z</Time>
            <Position>
              <LatitudeDegrees>40.3549680300056934356689453125</LatitudeDegrees>
              <LongitudeDegrees>-5.83302601240575313568115234375</LongitudeDegrees>
            </Position>
            <AltitudeMeters>838.20001220703125</AltitudeMeters>
            <DistanceMeters>NAN</DistanceMeters>
          </Trackpoint>
          <Trackpoint>
            <Time>2019-10-08T07:40:55.000Z</Time>
            <Position>
              <LatitudeDegrees>40.3548954427242279052734375</LatitudeDegrees>
              <LongitudeDegrees>-5.8330862782895565032958984375</LongitudeDegrees>
            </Position>
            <AltitudeMeters>839</AltitudeMeters>
            <DistanceMeters>NAN</DistanceMeters>
          </Trackpoint>
          <Trackpoint>
            <Time>2019-10-08T07:40:56.000Z</Time>
            <Position>
              <LatitudeDegrees>40.354858227074146270751953125</LatitudeDegrees>
              <LongitudeDegrees>-5.8331120945513248443603515625</LongitudeDegrees>
            </Position>
            <AltitudeMeters>839.4000244140625</AltitudeMeters>
            <DistanceMeters>NAN</DistanceMeters>
          </Trackpoint>
          <Trackpoint>
            <Time>2019-10-08T07:41:02.000Z</Time>
            <Position>
              <LatitudeDegrees>40.3545977175235748291015625</LatitudeDegrees>
              <LongitudeDegrees>-5.8332492224872112274169921875</LongitudeDegrees>
            </Position>
            <AltitudeMeters>839</AltitudeMeters>
            <DistanceMeters>NAN</DistanceMeters>
          </Trackpoint>
          <Trackpoint>
            <Time>2019-10-08T07:41:03.000Z</Time>
            <Position>
              <LatitudeDegrees>40.35454818047583103179931640625</LatitudeDegrees>
              <LongitudeDegrees>-5.83326556719839572906494140625</LongitudeDegrees>
            </Position>
            <AltitudeMeters>838.5999755859375</AltitudeMeters>
            <DistanceMeters>NAN</DistanceMeters>
          </Trackpoint>
          <Trackpoint>
            <Time>2019-10-08T07:41:04.000Z</Time>
            <Position>
              <LatitudeDegrees>40.35450023598968982696533203125</LatitudeDegrees>
              <LongitudeDegrees>-5.833281911909580230712890625</LongitudeDegrees>
            </Position>
            <AltitudeMeters>837.79998779296875</AltitudeMeters>
            <DistanceMeters>NAN</DistanceMeters>
          </Trackpoint>
          <Trackpoint>
            <Time>2019-10-08T07:41:09.000Z</Time>
            <Position>
              <LatitudeDegrees>40.35419932566583156585693359375</LatitudeDegrees>
              <LongitudeDegrees>-5.83336765877902507781982421875</LongitudeDegrees>
            </Position>
            <AltitudeMeters>836.20001220703125</AltitudeMeters>
            <DistanceMeters>NAN</DistanceMeters>
          </Trackpoint>
          <Trackpoint>
            <Time>2019-10-08T07:41:11.000Z</Time>
            <Position>
              <LatitudeDegrees>40.3540627844631671905517578125</LatitudeDegrees>
              <LongitudeDegrees>-5.83341107703745365142822265625</LongitudeDegrees>
            </Position>
            <AltitudeMeters>834.79998779296875</AltitudeMeters>
            <DistanceMeters>NAN</DistanceMeters>
          </Trackpoint>
          <Trackpoint>
            <Time>2019-10-08T07:41:15.000Z</Time>
            <Position>
              <LatitudeDegrees>40.35376564599573612213134765625</LatitudeDegrees>
              <LongitudeDegrees>-5.83350352942943572998046875</LongitudeDegrees>
            </Position>
            <AltitudeMeters>833.20001220703125</AltitudeMeters>
            <DistanceMeters>NAN</DistanceMeters>
          </Trackpoint>
          <Trackpoint>
            <Time>2019-10-08T07:41:17.000Z</Time>
            <Position>
              <LatitudeDegrees>40.35360421054065227508544921875</LatitudeDegrees>
              <LongitudeDegrees>-5.83351559937000274658203125</LongitudeDegrees>
            </Position>
            <AltitudeMeters>832.4000244140625</AltitudeMeters>
            <DistanceMeters>NAN</DistanceMeters>
          </Trackpoint>
          <Trackpoint>
            <Time>2019-10-08T07:41:18.000Z</Time>
            <Position>
              <LatitudeDegrees>40.35352609120309352874755859375</LatitudeDegrees>
              <LongitudeDegrees>-5.83349221386015415191650390625</LongitudeDegrees>
            </Position>
            <AltitudeMeters>832.20001220703125</AltitudeMeters>
            <DistanceMeters>NAN</DistanceMeters>
          </Trackpoint>
          <Trackpoint>
            <Time>2019-10-08T07:41:19.000Z</Time>
            <Position>
              <LatitudeDegrees>40.35345031879842281341552734375</LatitudeDegrees>
              <LongitudeDegrees>-5.833449549973011016845703125</LongitudeDegrees>
            </Position>
            <AltitudeMeters>831.79998779296875</AltitudeMeters>
            <DistanceMeters>NAN</DistanceMeters>
          </Trackpoint>
          <Trackpoint>
            <Time>2019-10-08T07:41:20.000Z</Time>
            <Position>
              <LatitudeDegrees>40.35338066518306732177734375</LatitudeDegrees>
              <LongitudeDegrees>-5.83338727243244647979736328125</LongitudeDegrees>
            </Position>
            <AltitudeMeters>830.79998779296875</AltitudeMeters>
            <DistanceMeters>NAN</DistanceMeters>
          </Trackpoint>
          <Trackpoint>
            <Time>2019-10-08T07:41:22.000Z</Time>
            <Position>
              <LatitudeDegrees>40.3532825969159603118896484375</LatitudeDegrees>
              <LongitudeDegrees>-5.8332042954862117767333984375</LongitudeDegrees>
            </Position>
            <AltitudeMeters>829.20001220703125</AltitudeMeters>
            <DistanceMeters>NAN</DistanceMeters>
          </Trackpoint>
          <Trackpoint>
            <Time>2019-10-08T07:41:24.000Z</Time>
            <Position>
              <LatitudeDegrees>40.35324965603649616241455078125</LatitudeDegrees>
              <LongitudeDegrees>-5.83297203294932842254638671875</LongitudeDegrees>
            </Position>
            <AltitudeMeters>827.20001220703125</AltitudeMeters>
            <DistanceMeters>NAN</DistanceMeters>
          </Trackpoint>
          <Trackpoint>
            <Time>2019-10-08T07:41:25.000Z</Time>
            <Position>
              <LatitudeDegrees>40.3532403521239757537841796875</LatitudeDegrees>
              <LongitudeDegrees>-5.83285284228622913360595703125</LongitudeDegrees>
            </Position>
            <AltitudeMeters>826.4000244140625</AltitudeMeters>
            <DistanceMeters>NAN</DistanceMeters>
          </Trackpoint>
          <Trackpoint>
            <Time>2019-10-08T07:41:26.000Z</Time>
            <Position>
              <LatitudeDegrees>40.35322903655469417572021484375</LatitudeDegrees>
              <LongitudeDegrees>-5.83272694610059261322021484375</LongitudeDegrees>
            </Position>
            <AltitudeMeters>826</AltitudeMeters>
            <DistanceMeters>NAN</DistanceMeters>
          </Trackpoint>
          <Trackpoint>
            <Time>2019-10-08T07:41:29.000Z</Time>
            <Position>
              <LatitudeDegrees>40.35318712703883647918701171875</LatitudeDegrees>
              <LongitudeDegrees>-5.8323543705046176910400390625</LongitudeDegrees>
            </Position>
            <AltitudeMeters>824.79998779296875</AltitudeMeters>
            <DistanceMeters>NAN</DistanceMeters>
          </Trackpoint>
          <Trackpoint>
            <Time>2019-10-08T07:41:31.000Z</Time>
            <Position>
              <LatitudeDegrees>40.3531032241880893707275390625</LatitudeDegrees>
              <LongitudeDegrees>-5.83213367499411106109619140625</LongitudeDegrees>
            </Position>
            <AltitudeMeters>823.20001220703125</AltitudeMeters>
            <DistanceMeters>NAN</DistanceMeters>
          </Trackpoint>
          <Trackpoint>
            <Time>2019-10-08T07:41:33.000Z</Time>
            <Position>
              <LatitudeDegrees>40.3529456444084644317626953125</LatitudeDegrees>
              <LongitudeDegrees>-5.83200124092400074005126953125</LongitudeDegrees>
            </Position>
            <AltitudeMeters>822.4000244140625</AltitudeMeters>
            <DistanceMeters>NAN</DistanceMeters>
          </Trackpoint>
          <Trackpoint>
            <Time>2019-10-08T07:41:34.000Z</Time>
            <Position>
              <LatitudeDegrees>40.3528531081974506378173828125</LatitudeDegrees>
              <LongitudeDegrees>-5.831985734403133392333984375</LongitudeDegrees>
            </Position>
            <AltitudeMeters>822.4000244140625</AltitudeMeters>
            <DistanceMeters>NAN</DistanceMeters>
          </Trackpoint>
          <Trackpoint>
            <Time>2019-10-08T07:41:35.000Z</Time>
            <Position>
              <LatitudeDegrees>40.352756716310977935791015625</LatitudeDegrees>
              <LongitudeDegrees>-5.8319993130862712860107421875</LongitudeDegrees>
            </Position>
            <AltitudeMeters>822.20001220703125</AltitudeMeters>
            <DistanceMeters>NAN</DistanceMeters>
          </Trackpoint>
          <Trackpoint>
            <Time>2019-10-08T07:41:36.000Z</Time>
            <Position>
              <LatitudeDegrees>40.3526673652231693267822265625</LatitudeDegrees>
              <LongitudeDegrees>-5.83202655427157878875732421875</LongitudeDegrees>
            </Position>
            <AltitudeMeters>822.79998779296875</AltitudeMeters>
            <DistanceMeters>NAN</DistanceMeters>
          </Trackpoint>
          <Trackpoint>
            <Time>2019-10-08T07:41:37.000Z</Time>
            <Position>
              <LatitudeDegrees>40.35257910378277301788330078125</LatitudeDegrees>
              <LongitudeDegrees>-5.8320556394755840301513671875</LongitudeDegrees>
            </Position>
            <AltitudeMeters>822.4000244140625</AltitudeMeters>
            <DistanceMeters>NAN</DistanceMeters>
          </Trackpoint>
          <Trackpoint>
            <Time>2019-10-08T07:41:38.000Z</Time>
            <Position>
              <LatitudeDegrees>40.3524997271597385406494140625</LatitudeDegrees>
              <LongitudeDegrees>-5.83209914155304431915283203125</LongitudeDegrees>
            </Position>
            <AltitudeMeters>822.79998779296875</AltitudeMeters>
            <DistanceMeters>NAN</DistanceMeters>
          </Trackpoint>
          <Trackpoint>
            <Time>2019-10-08T07:41:39.000Z</Time>
            <Position>
              <LatitudeDegrees>40.352434180676937103271484375</LatitudeDegrees>
              <LongitudeDegrees>-5.8321639336645603179931640625</LongitudeDegrees>
            </Position>
            <AltitudeMeters>822.5999755859375</AltitudeMeters>
            <DistanceMeters>NAN</DistanceMeters>
          </Trackpoint>
          <Trackpoint>
            <Time>2019-10-08T07:41:42.000Z</Time>
            <Position>
              <LatitudeDegrees>40.35231607966125011444091796875</LatitudeDegrees>
              <LongitudeDegrees>-5.83242905326187610626220703125</LongitudeDegrees>
            </Position>
            <AltitudeMeters>823.79998779296875</AltitudeMeters>
            <DistanceMeters>NAN</DistanceMeters>
          </Trackpoint>
          <Trackpoint>
            <Time>2019-10-08T07:41:43.000Z</Time>
            <Position>
              <LatitudeDegrees>40.35229193978011608123779296875</LatitudeDegrees>
              <LongitudeDegrees>-5.8325163088738918304443359375</LongitudeDegrees>
            </Position>
            <AltitudeMeters>824</AltitudeMeters>
            <DistanceMeters>NAN</DistanceMeters>
          </Trackpoint>
          <Trackpoint>
            <Time>2019-10-08T07:41:45.000Z</Time>
            <Position>
              <LatitudeDegrees>40.352254807949066162109375</LatitudeDegrees>
              <LongitudeDegrees>-5.83269174210727214813232421875</LongitudeDegrees>
            </Position>
            <AltitudeMeters>824.20001220703125</AltitudeMeters>
            <DistanceMeters>NAN</DistanceMeters>
          </Trackpoint>
          <Trackpoint>
            <Time>2019-10-08T07:41:48.000Z</Time>
            <Position>
              <LatitudeDegrees>40.35220946185290813446044921875</LatitudeDegrees>
              <LongitudeDegrees>-5.83295325748622417449951171875</LongitudeDegrees>
            </Position>
            <AltitudeMeters>824.4000244140625</AltitudeMeters>
            <DistanceMeters>NAN</DistanceMeters>
          </Trackpoint>
          <Trackpoint>
            <Time>2019-10-08T07:41:52.000Z</Time>
            <Position>
              <LatitudeDegrees>40.3521027602255344390869140625</LatitudeDegrees>
              <LongitudeDegrees>-5.833276212215423583984375</LongitudeDegrees>
            </Position>
            <AltitudeMeters>824.5999755859375</AltitudeMeters>
            <DistanceMeters>NAN</DistanceMeters>
          </Trackpoint>
          <Trackpoint>
            <Time>2019-10-08T07:41:53.000Z</Time>
            <Position>
              <LatitudeDegrees>40.35205909051001071929931640625</LatitudeDegrees>
              <LongitudeDegrees>-5.83334368653595447540283203125</LongitudeDegrees>
            </Position>
            <AltitudeMeters>824.79998779296875</AltitudeMeters>
            <DistanceMeters>NAN</DistanceMeters>
          </Trackpoint>
          <Trackpoint>
            <Time>2019-10-08T07:41:58.000Z</Time>
            <Position>
              <LatitudeDegrees>40.35181685350835323333740234375</LatitudeDegrees>
              <LongitudeDegrees>-5.83371282555162906646728515625</LongitudeDegrees>
            </Position>
            <AltitudeMeters>823</AltitudeMeters>
            <DistanceMeters>NAN</DistanceMeters>
          </Trackpoint>
          <Trackpoint>
            <Time>2019-10-08T07:42:00.000Z</Time>
            <Position>
              <LatitudeDegrees>40.35172850824892520904541015625</LatitudeDegrees>
              <LongitudeDegrees>-5.8338741771876811981201171875</LongitudeDegrees>
            </Position>
            <AltitudeMeters>821.5999755859375</AltitudeMeters>
            <DistanceMeters>NAN</DistanceMeters>
          </Trackpoint>
          <Trackpoint>
            <Time>2019-10-08T07:42:02.000Z</Time>
            <Position>
              <LatitudeDegrees>40.35166614688932895660400390625</LatitudeDegrees>
              <LongitudeDegrees>-5.834059081971645355224609375</LongitudeDegrees>
            </Position>
            <AltitudeMeters>821.20001220703125</AltitudeMeters>
            <DistanceMeters>NAN</DistanceMeters>
          </Trackpoint>
          <Trackpoint>
            <Time>2019-10-08T07:42:04.000Z</Time>
            <Position>
              <LatitudeDegrees>40.3516172803938388824462890625</LatitudeDegrees>
              <LongitudeDegrees>-5.8342520333826541900634765625</LongitudeDegrees>
            </Position>
            <AltitudeMeters>821.20001220703125</AltitudeMeters>
            <DistanceMeters>NAN</DistanceMeters>
          </Trackpoint>
          <Trackpoint>
            <Time>2019-10-08T07:42:06.000Z</Time>
            <Position>
              <LatitudeDegrees>40.3515894524753093719482421875</LatitudeDegrees>
              <LongitudeDegrees>-5.8344642631709575653076171875</LongitudeDegrees>
            </Position>
            <AltitudeMeters>820.5999755859375</AltitudeMeters>
            <DistanceMeters>NAN</DistanceMeters>
          </Trackpoint>
          <Trackpoint>
            <Time>2019-10-08T07:42:07.000Z</Time>
            <Position>
              <LatitudeDegrees>40.35157411359250545501708984375</LatitudeDegrees>
              <LongitudeDegrees>-5.83457213826477527618408203125</LongitudeDegrees>
            </Position>
            <AltitudeMeters>820.4000244140625</AltitudeMeters>
            <DistanceMeters>NAN</DistanceMeters>
          </Trackpoint>
          <Trackpoint>
            <Time>2019-10-08T07:42:10.000Z</Time>
            <Position>
              <LatitudeDegrees>40.351503454148769378662109375</LatitudeDegrees>
              <LongitudeDegrees>-5.83489425480365753173828125</LongitudeDegrees>
            </Position>
            <AltitudeMeters>819.20001220703125</AltitudeMeters>
            <DistanceMeters>NAN</DistanceMeters>
          </Trackpoint>
          <Trackpoint>
            <Time>2019-10-08T07:42:11.000Z</Time>
            <Position>
              <LatitudeDegrees>40.35147302784025669097900390625</LatitudeDegrees>
              <LongitudeDegrees>-5.83499726839363574981689453125</LongitudeDegrees>
            </Position>
            <AltitudeMeters>819</AltitudeMeters>
            <DistanceMeters>NAN</DistanceMeters>
          </Trackpoint>
          <Trackpoint>
            <Time>2019-10-08T07:42:13.000Z</Time>
            <Position>
              <LatitudeDegrees>40.35140454769134521484375</LatitudeDegrees>
              <LongitudeDegrees>-5.83521385677158832550048828125</LongitudeDegrees>
            </Position>
            <AltitudeMeters>817.79998779296875</AltitudeMeters>
            <DistanceMeters>NAN</DistanceMeters>
          </Trackpoint>
          <Trackpoint>
            <Time>2019-10-08T07:42:16.000Z</Time>
            <Position>
              <LatitudeDegrees>40.35129751078784465789794921875</LatitudeDegrees>
              <LongitudeDegrees>-5.835549719631671905517578125</LongitudeDegrees>
            </Position>
            <AltitudeMeters>816.4000244140625</AltitudeMeters>
            <DistanceMeters>NAN</DistanceMeters>
          </Trackpoint>
          <Trackpoint>
            <Time>2019-10-08T07:42:18.000Z</Time>
            <Position>
              <LatitudeDegrees>40.3512342274188995361328125</LatitudeDegrees>
              <LongitudeDegrees>-5.83578617312014102935791015625</LongitudeDegrees>
            </Position>
            <AltitudeMeters>815.4000244140625</AltitudeMeters>
            <DistanceMeters>NAN</DistanceMeters>
          </Trackpoint>
          <Trackpoint>
            <Time>2019-10-08T07:42:19.000Z</Time>
            <Position>
              <LatitudeDegrees>40.35121335648000240325927734375</LatitudeDegrees>
              <LongitudeDegrees>-5.835911147296428680419921875</LongitudeDegrees>
            </Position>
            <AltitudeMeters>814.79998779296875</AltitudeMeters>
            <DistanceMeters>NAN</DistanceMeters>
          </Trackpoint>
          <Trackpoint>
            <Time>2019-10-08T07:42:21.000Z</Time>
            <Position>
              <LatitudeDegrees>40.35121469758450984954833984375</LatitudeDegrees>
              <LongitudeDegrees>-5.83616000600159168243408203125</LongitudeDegrees>
            </Position>
            <AltitudeMeters>813.4000244140625</AltitudeMeters>
            <DistanceMeters>NAN</DistanceMeters>
          </Trackpoint>
          <Trackpoint>
            <Time>2019-10-08T07:42:22.000Z</Time>
            <Position>
              <LatitudeDegrees>40.3512659110128879547119140625</LatitudeDegrees>
              <LongitudeDegrees>-5.83627668209373950958251953125</LongitudeDegrees>
            </Position>
            <AltitudeMeters>813</AltitudeMeters>
            <DistanceMeters>NAN</DistanceMeters>
          </Trackpoint>
          <Trackpoint>
            <Time>2019-10-08T07:42:23.000Z</Time>
            <Position>
              <LatitudeDegrees>40.3513148613274097442626953125</LatitudeDegrees>
              <LongitudeDegrees>-5.83639134652912616729736328125</LongitudeDegrees>
            </Position>
            <AltitudeMeters>812.79998779296875</AltitudeMeters>
            <DistanceMeters>NAN</DistanceMeters>
          </Trackpoint>
          <Trackpoint>
            <Time>2019-10-08T07:42:24.000Z</Time>
            <Position>
              <LatitudeDegrees>40.35135702230036258697509765625</LatitudeDegrees>
              <LongitudeDegrees>-5.83650450222194194793701171875</LongitudeDegrees>
            </Position>
            <AltitudeMeters>812.5999755859375</AltitudeMeters>
            <DistanceMeters>NAN</DistanceMeters>
          </Trackpoint>
          <Trackpoint>
            <Time>2019-10-08T07:42:26.000Z</Time>
            <Position>
              <LatitudeDegrees>40.3514191322028636932373046875</LatitudeDegrees>
              <LongitudeDegrees>-5.83675595931708812713623046875</LongitudeDegrees>
            </Position>
            <AltitudeMeters>812.20001220703125</AltitudeMeters>
            <DistanceMeters>NAN</DistanceMeters>
          </Trackpoint>
          <Trackpoint>
            <Time>2019-10-08T07:42:27.000Z</Time>
            <Position>
              <LatitudeDegrees>40.35144142806529998779296875</LatitudeDegrees>
              <LongitudeDegrees>-5.83688956685364246368408203125</LongitudeDegrees>
            </Position>
            <AltitudeMeters>812</AltitudeMeters>
            <DistanceMeters>NAN</DistanceMeters>
          </Trackpoint>
          <Trackpoint>
            <Time>2019-10-08T07:42:28.000Z</Time>
            <Position>
              <LatitudeDegrees>40.35145483911037445068359375</LatitudeDegrees>
              <LongitudeDegrees>-5.83702183328568935394287109375</LongitudeDegrees>
            </Position>
            <AltitudeMeters>811.20001220703125</AltitudeMeters>
            <DistanceMeters>NAN</DistanceMeters>
          </Trackpoint>
          <Trackpoint>
            <Time>2019-10-08T07:42:29.000Z</Time>
            <Position>
              <LatitudeDegrees>40.35146179609000682830810546875</LatitudeDegrees>
              <LongitudeDegrees>-5.8371632359921932220458984375</LongitudeDegrees>
            </Position>
            <AltitudeMeters>810</AltitudeMeters>
            <DistanceMeters>NAN</DistanceMeters>
          </Trackpoint>
          <Trackpoint>
            <Time>2019-10-08T07:42:31.000Z</Time>
            <Position>
              <LatitudeDegrees>40.35145618021488189697265625</LatitudeDegrees>
              <LongitudeDegrees>-5.83744612522423267364501953125</LongitudeDegrees>
            </Position>
            <AltitudeMeters>809.20001220703125</AltitudeMeters>
            <DistanceMeters>NAN</DistanceMeters>
          </Trackpoint>
          <Trackpoint>
            <Time>2019-10-08T07:42:32.000Z</Time>
            <Position>
              <LatitudeDegrees>40.3514472953975200653076171875</LatitudeDegrees>
              <LongitudeDegrees>-5.8375897072255611419677734375</LongitudeDegrees>
            </Position>
            <AltitudeMeters>808.5999755859375</AltitudeMeters>
            <DistanceMeters>NAN</DistanceMeters>
          </Trackpoint>
          <Trackpoint>
            <Time>2019-10-08T07:42:34.000Z</Time>
            <Position>
              <LatitudeDegrees>40.35141821019351482391357421875</LatitudeDegrees>
              <LongitudeDegrees>-5.83788483403623104095458984375</LongitudeDegrees>
            </Position>
            <AltitudeMeters>807</AltitudeMeters>
            <DistanceMeters>NAN</DistanceMeters>
          </Trackpoint>
          <Trackpoint>
            <Time>2019-10-08T07:42:36.000Z</Time>
            <Position>
              <LatitudeDegrees>40.351368002593517303466796875</LatitudeDegrees>
              <LongitudeDegrees>-5.83818105049431324005126953125</LongitudeDegrees>
            </Position>
            <AltitudeMeters>805.79998779296875</AltitudeMeters>
            <DistanceMeters>NAN</DistanceMeters>
          </Trackpoint>
          <Trackpoint>
            <Time>2019-10-08T07:42:38.000Z</Time>
            <Position>
              <LatitudeDegrees>40.35129466094076633453369140625</LatitudeDegrees>
              <LongitudeDegrees>-5.83847559057176113128662109375</LongitudeDegrees>
            </Position>
            <AltitudeMeters>804.4000244140625</AltitudeMeters>
            <DistanceMeters>NAN</DistanceMeters>
          </Trackpoint>
          <Trackpoint>
            <Time>2019-10-08T07:42:40.000Z</Time>
            <Position>
              <LatitudeDegrees>40.3512327186763286590576171875</LatitudeDegrees>
              <LongitudeDegrees>-5.83878614008426666259765625</LongitudeDegrees>
            </Position>
            <AltitudeMeters>802.4000244140625</AltitudeMeters>
            <DistanceMeters>NAN</DistanceMeters>
          </Trackpoint>
          <Trackpoint>
            <Time>2019-10-08T07:42:41.000Z</Time>
            <Position>
              <LatitudeDegrees>40.35121168009936809539794921875</LatitudeDegrees>
              <LongitudeDegrees>-5.8389408700168132781982421875</LongitudeDegrees>
            </Position>
            <AltitudeMeters>801.20001220703125</AltitudeMeters>
            <DistanceMeters>NAN</DistanceMeters>
          </Trackpoint>
          <Trackpoint>
            <Time>2019-10-08T07:42:42.000Z</Time>
            <Position>
              <LatitudeDegrees>40.35119927488267421722412109375</LatitudeDegrees>
              <LongitudeDegrees>-5.83911068737506866455078125</LongitudeDegrees>
            </Position>
            <AltitudeMeters>800.5999755859375</AltitudeMeters>
            <DistanceMeters>NAN</DistanceMeters>
          </Trackpoint>
          <Trackpoint>
            <Time>2019-10-08T07:42:43.000Z</Time>
            <Position>
              <LatitudeDegrees>40.3511968441307544708251953125</LatitudeDegrees>
              <LongitudeDegrees>-5.83926768042147159576416015625</LongitudeDegrees>
            </Position>
            <AltitudeMeters>800</AltitudeMeters>
            <DistanceMeters>NAN</DistanceMeters>
          </Trackpoint>
          <Trackpoint>
            <Time>2019-10-08T07:42:45.000Z</Time>
            <Position>
              <LatitudeDegrees>40.351203382015228271484375</LatitudeDegrees>
              <LongitudeDegrees>-5.83959658630192279815673828125</LongitudeDegrees>
            </Position>
            <AltitudeMeters>798.5999755859375</AltitudeMeters>
            <DistanceMeters>NAN</DistanceMeters>
          </Trackpoint>
          <Trackpoint>
            <Time>2019-10-08T07:42:46.000Z</Time>
            <Position>
              <LatitudeDegrees>40.3512020409107208251953125</LatitudeDegrees>
              <LongitudeDegrees>-5.8397639729082584381103515625</LongitudeDegrees>
            </Position>
            <AltitudeMeters>797.5999755859375</AltitudeMeters>
            <DistanceMeters>NAN</DistanceMeters>
          </Trackpoint>
          <Trackpoint>
            <Time>2019-10-08T07:42:47.000Z</Time>
            <Position>
              <LatitudeDegrees>40.35118997097015380859375</LatitudeDegrees>
              <LongitudeDegrees>-5.8399212174117565155029296875</LongitudeDegrees>
            </Position>
            <AltitudeMeters>796.5999755859375</AltitudeMeters>
            <DistanceMeters>NAN</DistanceMeters>
          </Trackpoint>
          <Trackpoint>
            <Time>2019-10-08T07:42:48.000Z</Time>
            <Position>
              <LatitudeDegrees>40.35115786828100681304931640625</LatitudeDegrees>
              <LongitudeDegrees>-5.84008743055164813995361328125</LongitudeDegrees>
            </Position>
            <AltitudeMeters>796.20001220703125</AltitudeMeters>
            <DistanceMeters>NAN</DistanceMeters>
          </Trackpoint>
          <Trackpoint>
            <Time>2019-10-08T07:42:49.000Z</Time>
            <Position>
              <LatitudeDegrees>40.3511113487184047698974609375</LatitudeDegrees>
              <LongitudeDegrees>-5.8402390591800212860107421875</LongitudeDegrees>
            </Position>
            <AltitudeMeters>795.4000244140625</AltitudeMeters>
            <DistanceMeters>NAN</DistanceMeters>
          </Trackpoint>
          <Trackpoint>
            <Time>2019-10-08T07:42:50.000Z</Time>
            <Position>
              <LatitudeDegrees>40.35105250775814056396484375</LatitudeDegrees>
              <LongitudeDegrees>-5.8403952978551387786865234375</LongitudeDegrees>
            </Position>
            <AltitudeMeters>794.5999755859375</AltitudeMeters>
            <DistanceMeters>NAN</DistanceMeters>
          </Trackpoint>
          <Trackpoint>
            <Time>2019-10-08T07:42:51.000Z</Time>
            <Position>
              <LatitudeDegrees>40.35099215805530548095703125</LatitudeDegrees>
              <LongitudeDegrees>-5.84054164588451385498046875</LongitudeDegrees>
            </Position>
            <AltitudeMeters>793.79998779296875</AltitudeMeters>
            <DistanceMeters>NAN</DistanceMeters>
          </Trackpoint>
          <Trackpoint>
            <Time>2019-10-08T07:42:52.000Z</Time>
            <Position>
              <LatitudeDegrees>40.3509229235351085662841796875</LatitudeDegrees>
              <LongitudeDegrees>-5.8406920172274112701416015625</LongitudeDegrees>
            </Position>
            <AltitudeMeters>792.79998779296875</AltitudeMeters>
            <DistanceMeters>NAN</DistanceMeters>
          </Trackpoint>
          <Trackpoint>
            <Time>2019-10-08T07:42:54.000Z</Time>
            <Position>
              <LatitudeDegrees>40.35076551139354705810546875</LatitudeDegrees>
              <LongitudeDegrees>-5.84095663391053676605224609375</LongitudeDegrees>
            </Position>
            <AltitudeMeters>791.5999755859375</AltitudeMeters>
            <DistanceMeters>NAN</DistanceMeters>
          </Trackpoint>
          <Trackpoint>
            <Time>2019-10-08T07:42:55.000Z</Time>
            <Position>
              <LatitudeDegrees>40.35066585056483745574951171875</LatitudeDegrees>
              <LongitudeDegrees>-5.84107498638331890106201171875</LongitudeDegrees>
            </Position>
            <AltitudeMeters>790.5999755859375</AltitudeMeters>
            <DistanceMeters>NAN</DistanceMeters>
          </Trackpoint>
          <Trackpoint>
            <Time>2019-10-08T07:42:56.000Z</Time>
            <Position>
              <LatitudeDegrees>40.35056375898420810699462890625</LatitudeDegrees>
              <LongitudeDegrees>-5.8411785028874874114990234375</LongitudeDegrees>
            </Position>
            <AltitudeMeters>789.5999755859375</AltitudeMeters>
            <DistanceMeters>NAN</DistanceMeters>
          </Trackpoint>
          <Trackpoint>
            <Time>2019-10-08T07:42:57.000Z</Time>
            <Position>
              <LatitudeDegrees>40.35045127384364604949951171875</LatitudeDegrees>
              <LongitudeDegrees>-5.8412784151732921600341796875</LongitudeDegrees>
            </Position>
            <AltitudeMeters>788.5999755859375</AltitudeMeters>
            <DistanceMeters>NAN</DistanceMeters>
          </Trackpoint>
          <Trackpoint>
            <Time>2019-10-08T07:42:58.000Z</Time>
            <Position>
              <LatitudeDegrees>40.35034038126468658447265625</LatitudeDegrees>
              <LongitudeDegrees>-5.84136910736560821533203125</LongitudeDegrees>
            </Position>
            <AltitudeMeters>788.20001220703125</AltitudeMeters>
            <DistanceMeters>NAN</DistanceMeters>
          </Trackpoint>
          <Trackpoint>
            <Time>2019-10-08T07:42:59.000Z</Time>
            <Position>
              <LatitudeDegrees>40.35023150034248828887939453125</LatitudeDegrees>
              <LongitudeDegrees>-5.84145896136760711669921875</LongitudeDegrees>
            </Position>
            <AltitudeMeters>787</AltitudeMeters>
            <DistanceMeters>NAN</DistanceMeters>
          </Trackpoint>
          <Trackpoint>
            <Time>2019-10-08T07:43:01.000Z</Time>
            <Position>
              <LatitudeDegrees>40.3500072844326496124267578125</LatitudeDegrees>
              <LongitudeDegrees>-5.841646380722522735595703125</LongitudeDegrees>
            </Position>
            <AltitudeMeters>785.4000244140625</AltitudeMeters>
            <DistanceMeters>NAN</DistanceMeters>
          </Trackpoint>
          <Trackpoint>
            <Time>2019-10-08T07:43:03.000Z</Time>
            <Position>
              <LatitudeDegrees>40.34978709183633327484130859375</LatitudeDegrees>
              <LongitudeDegrees>-5.841827094554901123046875</LongitudeDegrees>
            </Position>
            <AltitudeMeters>783.79998779296875</AltitudeMeters>
            <DistanceMeters>NAN</DistanceMeters>
          </Trackpoint>
          <Trackpoint>
            <Time>2019-10-08T07:43:05.000Z</Time>
            <Position>
              <LatitudeDegrees>40.34955591894686222076416015625</LatitudeDegrees>
              <LongitudeDegrees>-5.84201426245272159576416015625</LongitudeDegrees>
            </Position>
            <AltitudeMeters>782</AltitudeMeters>
            <DistanceMeters>NAN</DistanceMeters>
          </Trackpoint>
          <Trackpoint>
            <Time>2019-10-08T07:43:07.000Z</Time>
            <Position>
              <LatitudeDegrees>40.3493243269622325897216796875</LatitudeDegrees>
              <LongitudeDegrees>-5.84220754913985729217529296875</LongitudeDegrees>
            </Position>
            <AltitudeMeters>779.79998779296875</AltitudeMeters>
            <DistanceMeters>NAN</DistanceMeters>
          </Trackpoint>
          <Trackpoint>
            <Time>2019-10-08T07:43:08.000Z</Time>
            <Position>
              <LatitudeDegrees>40.34921125508844852447509765625</LatitudeDegrees>
              <LongitudeDegrees>-5.842304527759552001953125</LongitudeDegrees>
            </Position>
            <AltitudeMeters>778.4000244140625</AltitudeMeters>
            <DistanceMeters>NAN</DistanceMeters>
          </Trackpoint>
          <Trackpoint>
            <Time>2019-10-08T07:43:10.000Z</Time>
            <Position>
              <LatitudeDegrees>40.348987877368927001953125</LatitudeDegrees>
              <LongitudeDegrees>-5.8424994908273220062255859375</LongitudeDegrees>
            </Position>
            <AltitudeMeters>776.4000244140625</AltitudeMeters>
            <DistanceMeters>NAN</DistanceMeters>
          </Trackpoint>
          <Trackpoint>
            <Time>2019-10-08T07:43:12.000Z</Time>
            <Position>
              <LatitudeDegrees>40.3487714566290378570556640625</LatitudeDegrees>
              <LongitudeDegrees>-5.8426768518984317779541015625</LongitudeDegrees>
            </Position>
            <AltitudeMeters>776</AltitudeMeters>
            <DistanceMeters>NAN</DistanceMeters>
          </Trackpoint>
          <Trackpoint>
            <Time>2019-10-08T07:43:13.000Z</Time>
            <Position>
              <LatitudeDegrees>40.34862569533288478851318359375</LatitudeDegrees>
              <LongitudeDegrees>-5.84276092238724231719970703125</LongitudeDegrees>
            </Position>
            <AltitudeMeters>775.4000244140625</AltitudeMeters>
            <DistanceMeters>NAN</DistanceMeters>
          </Trackpoint>
          <Trackpoint>
            <Time>2019-10-08T07:43:14.000Z</Time>
            <Position>
              <LatitudeDegrees>40.348541624844074249267578125</LatitudeDegrees>
              <LongitudeDegrees>-5.84278891794383525848388671875</LongitudeDegrees>
            </Position>
            <AltitudeMeters>774.4000244140625</AltitudeMeters>
            <DistanceMeters>NAN</DistanceMeters>
          </Trackpoint>
          <Trackpoint>
            <Time>2019-10-08T07:43:15.000Z</Time>
            <Position>
              <LatitudeDegrees>40.34841111861169338226318359375</LatitudeDegrees>
              <LongitudeDegrees>-5.84282060153782367706298828125</LongitudeDegrees>
            </Position>
            <AltitudeMeters>773.20001220703125</AltitudeMeters>
            <DistanceMeters>NAN</DistanceMeters>
          </Trackpoint>
          <Trackpoint>
            <Time>2019-10-08T07:43:16.000Z</Time>
            <Position>
              <LatitudeDegrees>40.348283462226390838623046875</LatitudeDegrees>
              <LongitudeDegrees>-5.8428391255438327789306640625</LongitudeDegrees>
            </Position>
            <AltitudeMeters>771.4000244140625</AltitudeMeters>
            <DistanceMeters>NAN</DistanceMeters>
          </Trackpoint>
          <Trackpoint>
            <Time>2019-10-08T07:43:17.000Z</Time>
            <Position>
              <LatitudeDegrees>40.34815597347915172576904296875</LatitudeDegrees>
              <LongitudeDegrees>-5.842862762510776519775390625</LongitudeDegrees>
            </Position>
            <AltitudeMeters>770.4000244140625</AltitudeMeters>
            <DistanceMeters>NAN</DistanceMeters>
          </Trackpoint>
          <Trackpoint>
            <Time>2019-10-08T07:43:18.000Z</Time>
            <Position>
              <LatitudeDegrees>40.34802052192389965057373046875</LatitudeDegrees>
              <LongitudeDegrees>-5.8429061807692050933837890625</LongitudeDegrees>
            </Position>
            <AltitudeMeters>768.5999755859375</AltitudeMeters>
            <DistanceMeters>NAN</DistanceMeters>
          </Trackpoint>
          <Trackpoint>
            <Time>2019-10-08T07:43:20.000Z</Time>
            <Position>
              <LatitudeDegrees>40.3477793745696544647216796875</LatitudeDegrees>
              <LongitudeDegrees>-5.8430553786456584930419921875</LongitudeDegrees>
            </Position>
            <AltitudeMeters>766.79998779296875</AltitudeMeters>
            <DistanceMeters>NAN</DistanceMeters>
          </Trackpoint>
          <Trackpoint>
            <Time>2019-10-08T07:43:21.000Z</Time>
            <Position>
              <LatitudeDegrees>40.3476610220968723297119140625</LatitudeDegrees>
              <LongitudeDegrees>-5.8431613259017467498779296875</LongitudeDegrees>
            </Position>
            <AltitudeMeters>765.79998779296875</AltitudeMeters>
            <DistanceMeters>NAN</DistanceMeters>
          </Trackpoint>
          <Trackpoint>
            <Time>2019-10-08T07:43:23.000Z</Time>
            <Position>
              <LatitudeDegrees>40.3475533984601497650146484375</LatitudeDegrees>
              <LongitudeDegrees>-5.84327758289873600006103515625</LongitudeDegrees>
            </Position>
            <AltitudeMeters>764.4000244140625</AltitudeMeters>
            <DistanceMeters>NAN</DistanceMeters>
          </Trackpoint>
          <Trackpoint>
            <Time>2019-10-08T07:43:24.000Z</Time>
            <Position>
              <LatitudeDegrees>40.3474523127079010009765625</LatitudeDegrees>
              <LongitudeDegrees>-5.843405239284038543701171875</LongitudeDegrees>
            </Position>
            <AltitudeMeters>763</AltitudeMeters>
            <DistanceMeters>NAN</DistanceMeters>
          </Trackpoint>
          <Trackpoint>
            <Time>2019-10-08T07:43:25.000Z</Time>
            <Position>
              <LatitudeDegrees>40.34735516645014286041259765625</LatitudeDegrees>
              <LongitudeDegrees>-5.84354127757251262664794921875</LongitudeDegrees>
            </Position>
            <AltitudeMeters>760.79998779296875</AltitudeMeters>
            <DistanceMeters>NAN</DistanceMeters>
          </Trackpoint>
          <Trackpoint>
            <Time>2019-10-08T07:43:27.000Z</Time>
            <Position>
              <LatitudeDegrees>40.34718400798738002777099609375</LatitudeDegrees>
              <LongitudeDegrees>-5.8437721990048885345458984375</LongitudeDegrees>
            </Position>
            <AltitudeMeters>760.79998779296875</AltitudeMeters>
            <DistanceMeters>NAN</DistanceMeters>
          </Trackpoint>
          <Trackpoint>
            <Time>2019-10-08T07:43:28.000Z</Time>
            <Position>
              <LatitudeDegrees>40.3470910526812076568603515625</LatitudeDegrees>
              <LongitudeDegrees>-5.8438603766262531280517578125</LongitudeDegrees>
            </Position>
            <AltitudeMeters>763</AltitudeMeters>
            <DistanceMeters>NAN</DistanceMeters>
          </Trackpoint>
          <Trackpoint>
            <Time>2019-10-08T07:43:30.000Z</Time>
            <Position>
              <LatitudeDegrees>40.3468798287212848663330078125</LatitudeDegrees>
              <LongitudeDegrees>-5.84397478960454463958740234375</LongitudeDegrees>
            </Position>
            <AltitudeMeters>764.5999755859375</AltitudeMeters>
            <DistanceMeters>NAN</DistanceMeters>
          </Trackpoint>
          <Trackpoint>
            <Time>2019-10-08T07:43:31.000Z</Time>
            <Position>
              <LatitudeDegrees>40.346775054931640625</LatitudeDegrees>
              <LongitudeDegrees>-5.844001360237598419189453125</LongitudeDegrees>
            </Position>
            <AltitudeMeters>763.79998779296875</AltitudeMeters>
            <DistanceMeters>NAN</DistanceMeters>
          </Trackpoint>
          <Trackpoint>
            <Time>2019-10-08T07:43:33.000Z</Time>
            <Position>
              <LatitudeDegrees>40.3465670160949230194091796875</LatitudeDegrees>
              <LongitudeDegrees>-5.8440300263464450836181640625</LongitudeDegrees>
            </Position>
            <AltitudeMeters>764.20001220703125</AltitudeMeters>
            <DistanceMeters>NAN</DistanceMeters>
          </Trackpoint>
          <Trackpoint>
            <Time>2019-10-08T07:43:35.000Z</Time>
            <Position>
              <LatitudeDegrees>40.3463608212769031524658203125</LatitudeDegrees>
              <LongitudeDegrees>-5.8440501429140567779541015625</LongitudeDegrees>
            </Position>
            <AltitudeMeters>763.4000244140625</AltitudeMeters>
            <DistanceMeters>NAN</DistanceMeters>
          </Trackpoint>
          <Trackpoint>
            <Time>2019-10-08T07:43:36.000Z</Time>
            <Position>
              <LatitudeDegrees>40.346258394420146942138671875</LatitudeDegrees>
              <LongitudeDegrees>-5.84406363777816295623779296875</LongitudeDegrees>
            </Position>
            <AltitudeMeters>762.5999755859375</AltitudeMeters>
            <DistanceMeters>NAN</DistanceMeters>
          </Trackpoint>
          <Trackpoint>
            <Time>2019-10-08T07:43:37.000Z</Time>
            <Position>
              <LatitudeDegrees>40.34615001641213893890380859375</LatitudeDegrees>
              <LongitudeDegrees>-5.8440910466015338897705078125</LongitudeDegrees>
            </Position>
            <AltitudeMeters>762.20001220703125</AltitudeMeters>
            <DistanceMeters>NAN</DistanceMeters>
          </Trackpoint>
          <Trackpoint>
            <Time>2019-10-08T07:43:39.000Z</Time>
            <Position>
              <LatitudeDegrees>40.3459477610886096954345703125</LatitudeDegrees>
              <LongitudeDegrees>-5.84418140351772308349609375</LongitudeDegrees>
            </Position>
            <AltitudeMeters>761</AltitudeMeters>
            <DistanceMeters>NAN</DistanceMeters>
          </Trackpoint>
          <Trackpoint>
            <Time>2019-10-08T07:43:41.000Z</Time>
            <Position>
              <LatitudeDegrees>40.34577115438878536224365234375</LatitudeDegrees>
              <LongitudeDegrees>-5.8443264104425907135009765625</LongitudeDegrees>
            </Position>
            <AltitudeMeters>760</AltitudeMeters>
            <DistanceMeters>NAN</DistanceMeters>
          </Trackpoint>
          <Trackpoint>
            <Time>2019-10-08T07:43:42.000Z</Time>
            <Position>
              <LatitudeDegrees>40.345701836049556732177734375</LatitudeDegrees>
              <LongitudeDegrees>-5.8444095589220523834228515625</LongitudeDegrees>
            </Position>
            <AltitudeMeters>760</AltitudeMeters>
            <DistanceMeters>NAN</DistanceMeters>
          </Trackpoint>
          <Trackpoint>
            <Time>2019-10-08T07:43:45.000Z</Time>
            <Position>
              <LatitudeDegrees>40.3455397300422191619873046875</LatitudeDegrees>
              <LongitudeDegrees>-5.84468540735542774200439453125</LongitudeDegrees>
            </Position>
            <AltitudeMeters>759.4000244140625</AltitudeMeters>
            <DistanceMeters>NAN</DistanceMeters>
          </Trackpoint>
          <Trackpoint>
            <Time>2019-10-08T07:43:46.000Z</Time>
            <Position>
              <LatitudeDegrees>40.3454991616308689117431640625</LatitudeDegrees>
              <LongitudeDegrees>-5.8447703160345554351806640625</LongitudeDegrees>
            </Position>
            <AltitudeMeters>759.79998779296875</AltitudeMeters>
            <DistanceMeters>NAN</DistanceMeters>
          </Trackpoint>
          <Trackpoint>
            <Time>2019-10-08T07:43:47.000Z</Time>
            <Position>
              <LatitudeDegrees>40.34547091461718082427978515625</LatitudeDegrees>
              <LongitudeDegrees>-5.84484525024890899658203125</LongitudeDegrees>
            </Position>
            <AltitudeMeters>760</AltitudeMeters>
            <DistanceMeters>NAN</DistanceMeters>
          </Trackpoint>
          <Trackpoint>
            <Time>2019-10-08T07:43:49.000Z</Time>
            <Position>
              <LatitudeDegrees>40.34546169452369213104248046875</LatitudeDegrees>
              <LongitudeDegrees>-5.844985730946063995361328125</LongitudeDegrees>
            </Position>
            <AltitudeMeters>760.79998779296875</AltitudeMeters>
            <DistanceMeters>NAN</DistanceMeters>
          </Trackpoint>
          <Trackpoint>
            <Time>2019-10-08T07:43:51.000Z</Time>
            <Position>
              <LatitudeDegrees>40.345490612089633941650390625</LatitudeDegrees>
              <LongitudeDegrees>-5.84509595297276973724365234375</LongitudeDegrees>
            </Position>
            <AltitudeMeters>761</AltitudeMeters>
            <DistanceMeters>NAN</DistanceMeters>
          </Trackpoint>
          <Trackpoint>
            <Time>2019-10-08T07:43:52.000Z</Time>
            <Position>
              <LatitudeDegrees>40.34549362957477569580078125</LatitudeDegrees>
              <LongitudeDegrees>-5.8451471664011478424072265625</LongitudeDegrees>
            </Position>
            <AltitudeMeters>761</AltitudeMeters>
            <DistanceMeters>NAN</DistanceMeters>
          </Trackpoint>
          <Trackpoint>
            <Time>2019-10-08T07:43:53.000Z</Time>
            <Position>
              <LatitudeDegrees>40.34548080526292324066162109375</LatitudeDegrees>
              <LongitudeDegrees>-5.84519972093403339385986328125</LongitudeDegrees>
            </Position>
            <AltitudeMeters>760.5999755859375</AltitudeMeters>
            <DistanceMeters>NAN</DistanceMeters>
          </Trackpoint>
          <Trackpoint>
            <Time>2019-10-08T07:43:55.000Z</Time>
            <Position>
              <LatitudeDegrees>40.34541391767561435699462890625</LatitudeDegrees>
              <LongitudeDegrees>-5.84528706036508083343505859375</LongitudeDegrees>
            </Position>
            <AltitudeMeters>760</AltitudeMeters>
            <DistanceMeters>NAN</DistanceMeters>
          </Trackpoint>
          <Trackpoint>
            <Time>2019-10-08T07:43:56.000Z</Time>
            <Position>
              <LatitudeDegrees>40.34537184052169322967529296875</LatitudeDegrees>
              <LongitudeDegrees>-5.8453275449573993682861328125</LongitudeDegrees>
            </Position>
            <AltitudeMeters>760.20001220703125</AltitudeMeters>
            <DistanceMeters>NAN</DistanceMeters>
          </Trackpoint>
          <Trackpoint>
            <Time>2019-10-08T07:43:58.000Z</Time>
            <Position>
              <LatitudeDegrees>40.34527838230133056640625</LatitudeDegrees>
              <LongitudeDegrees>-5.8453899063169956207275390625</LongitudeDegrees>
            </Position>
            <AltitudeMeters>759.5999755859375</AltitudeMeters>
            <DistanceMeters>NAN</DistanceMeters>
          </Trackpoint>
          <Trackpoint>
            <Time>2019-10-08T07:44:00.000Z</Time>
            <Position>
              <LatitudeDegrees>40.34517503343522548675537109375</LatitudeDegrees>
              <LongitudeDegrees>-5.84544296376407146453857421875</LongitudeDegrees>
            </Position>
            <AltitudeMeters>759.4000244140625</AltitudeMeters>
            <DistanceMeters>NAN</DistanceMeters>
          </Trackpoint>
          <Trackpoint>
            <Time>2019-10-08T07:44:02.000Z</Time>
            <Position>
              <LatitudeDegrees>40.3450716845691204071044921875</LatitudeDegrees>
              <LongitudeDegrees>-5.84549576975405216217041015625</LongitudeDegrees>
            </Position>
            <AltitudeMeters>759.5999755859375</AltitudeMeters>
            <DistanceMeters>NAN</DistanceMeters>
          </Trackpoint>
          <Trackpoint>
            <Time>2019-10-08T07:44:06.000Z</Time>
            <Position>
              <LatitudeDegrees>40.34486389718949794769287109375</LatitudeDegrees>
              <LongitudeDegrees>-5.8456004597246646881103515625</LongitudeDegrees>
            </Position>
            <AltitudeMeters>759.4000244140625</AltitudeMeters>
            <DistanceMeters>NAN</DistanceMeters>
          </Trackpoint>
          <Trackpoint>
            <Time>2019-10-08T07:44:08.000Z</Time>
            <Position>
              <LatitudeDegrees>40.34476180560886859893798828125</LatitudeDegrees>
              <LongitudeDegrees>-5.8456587977707386016845703125</LongitudeDegrees>
            </Position>
            <AltitudeMeters>759.79998779296875</AltitudeMeters>
            <DistanceMeters>NAN</DistanceMeters>
          </Trackpoint>
          <Trackpoint>
            <Time>2019-10-08T07:44:11.000Z</Time>
            <Position>
              <LatitudeDegrees>40.3446230851113796234130859375</LatitudeDegrees>
              <LongitudeDegrees>-5.84574739448726177215576171875</LongitudeDegrees>
            </Position>
            <AltitudeMeters>760.5999755859375</AltitudeMeters>
            <DistanceMeters>NAN</DistanceMeters>
          </Trackpoint>
          <Trackpoint>
            <Time>2019-10-08T07:44:14.000Z</Time>
            <Position>
              <LatitudeDegrees>40.34450112842023372650146484375</LatitudeDegrees>
              <LongitudeDegrees>-5.84584579803049564361572265625</LongitudeDegrees>
            </Position>
            <AltitudeMeters>761</AltitudeMeters>
            <DistanceMeters>NAN</DistanceMeters>
          </Trackpoint>
          <Trackpoint>
            <Time>2019-10-08T07:44:15.000Z</Time>
            <Position>
              <LatitudeDegrees>40.34446299076080322265625</LatitudeDegrees>
              <LongitudeDegrees>-5.8458804152905941009521484375</LongitudeDegrees>
            </Position>
            <AltitudeMeters>761.4000244140625</AltitudeMeters>
            <DistanceMeters>NAN</DistanceMeters>
          </Trackpoint>
          <Trackpoint>
            <Time>2019-10-08T07:44:19.000Z</Time>
            <Position>
              <LatitudeDegrees>40.34432351589202880859375</LatitudeDegrees>
              <LongitudeDegrees>-5.846010334789752960205078125</LongitudeDegrees>
            </Position>
            <AltitudeMeters>761.79998779296875</AltitudeMeters>
            <DistanceMeters>NAN</DistanceMeters>
          </Trackpoint>
          <Trackpoint>
            <Time>2019-10-08T07:44:23.000Z</Time>
            <Position>
              <LatitudeDegrees>40.3442023135721683502197265625</LatitudeDegrees>
              <LongitudeDegrees>-5.84614050574600696563720703125</LongitudeDegrees>
            </Position>
            <AltitudeMeters>762.79998779296875</AltitudeMeters>
            <DistanceMeters>NAN</DistanceMeters>
          </Trackpoint>
          <Trackpoint>
            <Time>2019-10-08T07:44:26.000Z</Time>
            <Position>
              <LatitudeDegrees>40.3441178239881992340087890625</LatitudeDegrees>
              <LongitudeDegrees>-5.8462291024625301361083984375</LongitudeDegrees>
            </Position>
            <AltitudeMeters>763.5999755859375</AltitudeMeters>
            <DistanceMeters>NAN</DistanceMeters>
          </Trackpoint>
          <Trackpoint>
            <Time>2019-10-08T07:44:27.000Z</Time>
            <Position>
              <LatitudeDegrees>40.3440893255174160003662109375</LatitudeDegrees>
              <LongitudeDegrees>-5.84625936113297939300537109375</LongitudeDegrees>
            </Position>
            <AltitudeMeters>763.79998779296875</AltitudeMeters>
            <DistanceMeters>NAN</DistanceMeters>
          </Trackpoint>
          <Trackpoint>
            <Time>2019-10-08T07:44:32.000Z</Time>
            <Position>
              <LatitudeDegrees>40.3439582325518131256103515625</LatitudeDegrees>
              <LongitudeDegrees>-5.84641995839774608612060546875</LongitudeDegrees>
            </Position>
            <AltitudeMeters>764.5999755859375</AltitudeMeters>
            <DistanceMeters>NAN</DistanceMeters>
          </Trackpoint>
          <Trackpoint>
            <Time>2019-10-08T07:44:34.000Z</Time>
            <Position>
              <LatitudeDegrees>40.34390400163829326629638671875</LatitudeDegrees>
              <LongitudeDegrees>-5.846485085785388946533203125</LongitudeDegrees>
            </Position>
            <AltitudeMeters>764.79998779296875</AltitudeMeters>
            <DistanceMeters>NAN</DistanceMeters>
          </Trackpoint>
          <Trackpoint>
            <Time>2019-10-08T07:44:38.000Z</Time>
            <Position>
              <LatitudeDegrees>40.3438009880483150482177734375</LatitudeDegrees>
              <LongitudeDegrees>-5.846601091325283050537109375</LongitudeDegrees>
            </Position>
            <AltitudeMeters>766</AltitudeMeters>
            <DistanceMeters>NAN</DistanceMeters>
          </Trackpoint>
          <Trackpoint>
            <Time>2019-10-08T07:44:40.000Z</Time>
            <Position>
              <LatitudeDegrees>40.34375195391476154327392578125</LatitudeDegrees>
              <LongitudeDegrees>-5.8466549031436443328857421875</LongitudeDegrees>
            </Position>
            <AltitudeMeters>766.5999755859375</AltitudeMeters>
            <DistanceMeters>NAN</DistanceMeters>
          </Trackpoint>
          <Trackpoint>
            <Time>2019-10-08T07:44:44.000Z</Time>
            <Position>
              <LatitudeDegrees>40.34364030696451663970947265625</LatitudeDegrees>
              <LongitudeDegrees>-5.84677903912961483001708984375</LongitudeDegrees>
            </Position>
            <AltitudeMeters>767.20001220703125</AltitudeMeters>
            <DistanceMeters>NAN</DistanceMeters>
          </Trackpoint>
          <Trackpoint>
            <Time>2019-10-08T07:44:48.000Z</Time>
            <Position>
              <LatitudeDegrees>40.34357040189206600189208984375</LatitudeDegrees>
              <LongitudeDegrees>-5.8468731679022312164306640625</LongitudeDegrees>
            </Position>
            <AltitudeMeters>767.79998779296875</AltitudeMeters>
            <DistanceMeters>NAN</DistanceMeters>
          </Trackpoint>
          <Trackpoint>
            <Time>2019-10-08T07:44:49.000Z</Time>
            <Position>
              <LatitudeDegrees>40.3435470163822174072265625</LatitudeDegrees>
              <LongitudeDegrees>-5.84690024144947528839111328125</LongitudeDegrees>
            </Position>
            <AltitudeMeters>768.4000244140625</AltitudeMeters>
            <DistanceMeters>NAN</DistanceMeters>
          </Trackpoint>
          <Trackpoint>
            <Time>2019-10-08T07:44:55.000Z</Time>
            <Position>
              <LatitudeDegrees>40.34339974634349346160888671875</LatitudeDegrees>
              <LongitudeDegrees>-5.8470595814287662506103515625</LongitudeDegrees>
            </Position>
            <AltitudeMeters>769.4000244140625</AltitudeMeters>
            <DistanceMeters>NAN</DistanceMeters>
          </Trackpoint>
          <Trackpoint>
            <Time>2019-10-08T07:44:58.000Z</Time>
            <Position>
              <LatitudeDegrees>40.34333042800426483154296875</LatitudeDegrees>
              <LongitudeDegrees>-5.847134180366992950439453125</LongitudeDegrees>
            </Position>
            <AltitudeMeters>769.5999755859375</AltitudeMeters>
            <DistanceMeters>NAN</DistanceMeters>
          </Trackpoint>
          <Trackpoint>
            <Time>2019-10-08T07:45:02.000Z</Time>
            <Position>
              <LatitudeDegrees>40.34323764033615589141845703125</LatitudeDegrees>
              <LongitudeDegrees>-5.84723174571990966796875</LongitudeDegrees>
            </Position>
            <AltitudeMeters>770.20001220703125</AltitudeMeters>
            <DistanceMeters>NAN</DistanceMeters>
          </Trackpoint>
          <Trackpoint>
            <Time>2019-10-08T07:45:03.000Z</Time>
            <Position>
              <LatitudeDegrees>40.34321517683565616607666015625</LatitudeDegrees>
              <LongitudeDegrees>-5.84725513122975826263427734375</LongitudeDegrees>
            </Position>
            <AltitudeMeters>770.5999755859375</AltitudeMeters>
            <DistanceMeters>NAN</DistanceMeters>
          </Trackpoint>
          <Trackpoint>
            <Time>2019-10-08T07:45:07.000Z</Time>
            <Position>
              <LatitudeDegrees>40.34311987459659576416015625</LatitudeDegrees>
              <LongitudeDegrees>-5.8473529480397701263427734375</LongitudeDegrees>
            </Position>
            <AltitudeMeters>770.79998779296875</AltitudeMeters>
            <DistanceMeters>NAN</DistanceMeters>
          </Trackpoint>
          <Trackpoint>
            <Time>2019-10-08T07:45:09.000Z</Time>
            <Position>
              <LatitudeDegrees>40.3430727683007717132568359375</LatitudeDegrees>
              <LongitudeDegrees>-5.8474082686007022857666015625</LongitudeDegrees>
            </Position>
            <AltitudeMeters>771.5999755859375</AltitudeMeters>
            <DistanceMeters>NAN</DistanceMeters>
          </Trackpoint>
          <Trackpoint>
            <Time>2019-10-08T07:45:16.000Z</Time>
            <Position>
              <LatitudeDegrees>40.342888869345188140869140625</LatitudeDegrees>
              <LongitudeDegrees>-5.84758286364376544952392578125</LongitudeDegrees>
            </Position>
            <AltitudeMeters>772.4000244140625</AltitudeMeters>
            <DistanceMeters>NAN</DistanceMeters>
          </Trackpoint>
          <Trackpoint>
            <Time>2019-10-08T07:45:20.000Z</Time>
            <Position>
              <LatitudeDegrees>40.3427680023014545440673828125</LatitudeDegrees>
              <LongitudeDegrees>-5.8476640842854976654052734375</LongitudeDegrees>
            </Position>
            <AltitudeMeters>772.5999755859375</AltitudeMeters>
            <DistanceMeters>NAN</DistanceMeters>
          </Trackpoint>
          <Trackpoint>
            <Time>2019-10-08T07:45:25.000Z</Time>
            <Position>
              <LatitudeDegrees>40.34261100925505161285400390625</LatitudeDegrees>
              <LongitudeDegrees>-5.84776005707681179046630859375</LongitudeDegrees>
            </Position>
            <AltitudeMeters>773</AltitudeMeters>
            <DistanceMeters>NAN</DistanceMeters>
          </Trackpoint>
          <Trackpoint>
            <Time>2019-10-08T07:45:33.000Z</Time>
            <Position>
              <LatitudeDegrees>40.34235720522701740264892578125</LatitudeDegrees>
              <LongitudeDegrees>-5.84790959022939205169677734375</LongitudeDegrees>
            </Position>
            <AltitudeMeters>772.79998779296875</AltitudeMeters>
            <DistanceMeters>NAN</DistanceMeters>
          </Trackpoint>
          <Trackpoint>
            <Time>2019-10-08T07:45:34.000Z</Time>
            <Position>
              <LatitudeDegrees>40.34232418052852153778076171875</LatitudeDegrees>
              <LongitudeDegrees>-5.84792920388281345367431640625</LongitudeDegrees>
            </Position>
            <AltitudeMeters>773.20001220703125</AltitudeMeters>
            <DistanceMeters>NAN</DistanceMeters>
          </Trackpoint>
          <Trackpoint>
            <Time>2019-10-08T07:45:39.000Z</Time>
            <Position>
              <LatitudeDegrees>40.3421621583402156829833984375</LatitudeDegrees>
              <LongitudeDegrees>-5.84802861325442790985107421875</LongitudeDegrees>
            </Position>
            <AltitudeMeters>773.20001220703125</AltitudeMeters>
            <DistanceMeters>NAN</DistanceMeters>
          </Trackpoint>
          <Trackpoint>
            <Time>2019-10-08T07:45:40.000Z</Time>
            <Position>
              <LatitudeDegrees>40.342129804193973541259765625</LatitudeDegrees>
              <LongitudeDegrees>-5.84804839454591274261474609375</LongitudeDegrees>
            </Position>
            <AltitudeMeters>773.5999755859375</AltitudeMeters>
            <DistanceMeters>NAN</DistanceMeters>
          </Trackpoint>
          <Trackpoint>
            <Time>2019-10-08T07:45:45.000Z</Time>
            <Position>
              <LatitudeDegrees>40.34196518361568450927734375</LatitudeDegrees>
              <LongitudeDegrees>-5.84814109839498996734619140625</LongitudeDegrees>
            </Position>
            <AltitudeMeters>774</AltitudeMeters>
            <DistanceMeters>NAN</DistanceMeters>
          </Trackpoint>
          <Trackpoint>
            <Time>2019-10-08T07:45:52.000Z</Time>
            <Position>
              <LatitudeDegrees>40.34173845313489437103271484375</LatitudeDegrees>
              <LongitudeDegrees>-5.848277471959590911865234375</LongitudeDegrees>
            </Position>
            <AltitudeMeters>774.20001220703125</AltitudeMeters>
            <DistanceMeters>NAN</DistanceMeters>
          </Trackpoint>
          <Trackpoint>
            <Time>2019-10-08T07:45:58.000Z</Time>
            <Position>
              <LatitudeDegrees>40.34154005348682403564453125</LatitudeDegrees>
              <LongitudeDegrees>-5.84839808754622936248779296875</LongitudeDegrees>
            </Position>
            <AltitudeMeters>774.79998779296875</AltitudeMeters>
            <DistanceMeters>NAN</DistanceMeters>
          </Trackpoint>
          <Trackpoint>
            <Time>2019-10-08T07:46:00.000Z</Time>
            <Position>
              <LatitudeDegrees>40.34147442318499088287353515625</LatitudeDegrees>
              <LongitudeDegrees>-5.84843362681567668914794921875</LongitudeDegrees>
            </Position>
            <AltitudeMeters>774.5999755859375</AltitudeMeters>
            <DistanceMeters>NAN</DistanceMeters>
          </Trackpoint>
          <Trackpoint>
            <Time>2019-10-08T07:46:08.000Z</Time>
            <Position>
              <LatitudeDegrees>40.3412059508264064788818359375</LatitudeDegrees>
              <LongitudeDegrees>-5.84858215413987636566162109375</LongitudeDegrees>
            </Position>
            <AltitudeMeters>775.5999755859375</AltitudeMeters>
            <DistanceMeters>NAN</DistanceMeters>
          </Trackpoint>
          <Trackpoint>
            <Time>2019-10-08T07:46:09.000Z</Time>
            <Position>
              <LatitudeDegrees>40.34117083065211772918701171875</LatitudeDegrees>
              <LongitudeDegrees>-5.8486015163362026214599609375</LongitudeDegrees>
            </Position>
            <AltitudeMeters>775.5999755859375</AltitudeMeters>
            <DistanceMeters>NAN</DistanceMeters>
          </Trackpoint>
          <Trackpoint>
            <Time>2019-10-08T07:46:12.000Z</Time>
            <Position>
              <LatitudeDegrees>40.34106756560504436492919921875</LatitudeDegrees>
              <LongitudeDegrees>-5.84866379387676715850830078125</LongitudeDegrees>
            </Position>
            <AltitudeMeters>775.79998779296875</AltitudeMeters>
            <DistanceMeters>NAN</DistanceMeters>
          </Trackpoint>
          <Trackpoint>
            <Time>2019-10-08T07:46:22.000Z</Time>
            <Position>
              <LatitudeDegrees>40.3407268412411212921142578125</LatitudeDegrees>
              <LongitudeDegrees>-5.84886462427675724029541015625</LongitudeDegrees>
            </Position>
            <AltitudeMeters>776.79998779296875</AltitudeMeters>
            <DistanceMeters>NAN</DistanceMeters>
          </Trackpoint>
          <Trackpoint>
            <Time>2019-10-08T07:46:23.000Z</Time>
            <Position>
              <LatitudeDegrees>40.34069222398102283477783203125</LatitudeDegrees>
              <LongitudeDegrees>-5.84888524375855922698974609375</LongitudeDegrees>
            </Position>
            <AltitudeMeters>776.79998779296875</AltitudeMeters>
            <DistanceMeters>NAN</DistanceMeters>
          </Trackpoint>
          <Trackpoint>
            <Time>2019-10-08T07:46:33.000Z</Time>
            <Position>
              <LatitudeDegrees>40.34034890122711658477783203125</LatitudeDegrees>
              <LongitudeDegrees>-5.8490605093538761138916015625</LongitudeDegrees>
            </Position>
            <AltitudeMeters>777.4000244140625</AltitudeMeters>
            <DistanceMeters>NAN</DistanceMeters>
          </Trackpoint>
          <Trackpoint>
            <Time>2019-10-08T07:46:42.000Z</Time>
            <Position>
              <LatitudeDegrees>40.3400324843823909759521484375</LatitudeDegrees>
              <LongitudeDegrees>-5.84918481297791004180908203125</LongitudeDegrees>
            </Position>
            <AltitudeMeters>777.79998779296875</AltitudeMeters>
            <DistanceMeters>NAN</DistanceMeters>
          </Trackpoint>
          <Trackpoint>
            <Time>2019-10-08T07:46:43.000Z</Time>
            <Position>
              <LatitudeDegrees>40.3399922512471675872802734375</LatitudeDegrees>
              <LongitudeDegrees>-5.84919705055654048919677734375</LongitudeDegrees>
            </Position>
            <AltitudeMeters>777.5999755859375</AltitudeMeters>
            <DistanceMeters>NAN</DistanceMeters>
          </Trackpoint>
          <Trackpoint>
            <Time>2019-10-08T07:46:52.000Z</Time>
            <Position>
              <LatitudeDegrees>40.3396143950521945953369140625</LatitudeDegrees>
              <LongitudeDegrees>-5.849286653101444244384765625</LongitudeDegrees>
            </Position>
            <AltitudeMeters>777.4000244140625</AltitudeMeters>
            <DistanceMeters>NAN</DistanceMeters>
          </Trackpoint>
          <Trackpoint>
            <Time>2019-10-08T07:46:59.000Z</Time>
            <Position>
              <LatitudeDegrees>40.33925606869161128997802734375</LatitudeDegrees>
              <LongitudeDegrees>-5.8493573963642120361328125</LongitudeDegrees>
            </Position>
            <AltitudeMeters>776.4000244140625</AltitudeMeters>
            <DistanceMeters>NAN</DistanceMeters>
          </Trackpoint>
          <Trackpoint>
            <Time>2019-10-08T07:47:02.000Z</Time>
            <Position>
              <LatitudeDegrees>40.3390863351523876190185546875</LatitudeDegrees>
              <LongitudeDegrees>-5.8493934385478496551513671875</LongitudeDegrees>
            </Position>
            <AltitudeMeters>775.79998779296875</AltitudeMeters>
            <DistanceMeters>NAN</DistanceMeters>
          </Trackpoint>
          <Trackpoint>
            <Time>2019-10-08T07:47:08.000Z</Time>
            <Position>
              <LatitudeDegrees>40.338730774819850921630859375</LatitudeDegrees>
              <LongitudeDegrees>-5.84946560673415660858154296875</LongitudeDegrees>
            </Position>
            <AltitudeMeters>774.79998779296875</AltitudeMeters>
            <DistanceMeters>NAN</DistanceMeters>
          </Trackpoint>
          <Trackpoint>
            <Time>2019-10-08T07:47:09.000Z</Time>
            <Position>
              <LatitudeDegrees>40.33866698853671550750732421875</LatitudeDegrees>
              <LongitudeDegrees>-5.849477089941501617431640625</LongitudeDegrees>
            </Position>
            <AltitudeMeters>774.5999755859375</AltitudeMeters>
            <DistanceMeters>NAN</DistanceMeters>
          </Trackpoint>
          <Trackpoint>
            <Time>2019-10-08T07:47:12.000Z</Time>
            <Position>
              <LatitudeDegrees>40.33846146427094936370849609375</LatitudeDegrees>
              <LongitudeDegrees>-5.8495171554386615753173828125</LongitudeDegrees>
            </Position>
            <AltitudeMeters>773.5999755859375</AltitudeMeters>
            <DistanceMeters>NAN</DistanceMeters>
          </Trackpoint>
          <Trackpoint>
            <Time>2019-10-08T07:47:14.000Z</Time>
            <Position>
              <LatitudeDegrees>40.3383131884038448333740234375</LatitudeDegrees>
              <LongitudeDegrees>-5.84954858757555484771728515625</LongitudeDegrees>
            </Position>
            <AltitudeMeters>772.20001220703125</AltitudeMeters>
            <DistanceMeters>NAN</DistanceMeters>
          </Trackpoint>
          <Trackpoint>
            <Time>2019-10-08T07:47:15.000Z</Time>
            <Position>
              <LatitudeDegrees>40.338234566152095794677734375</LatitudeDegrees>
              <LongitudeDegrees>-5.849562585353851318359375</LongitudeDegrees>
            </Position>
            <AltitudeMeters>771.79998779296875</AltitudeMeters>
            <DistanceMeters>NAN</DistanceMeters>
          </Trackpoint>
          <Trackpoint>
            <Time>2019-10-08T07:47:17.000Z</Time>
            <Position>
              <LatitudeDegrees>40.3380701132118701934814453125</LatitudeDegrees>
              <LongitudeDegrees>-5.84959544241428375244140625</LongitudeDegrees>
            </Position>
            <AltitudeMeters>770.79998779296875</AltitudeMeters>
            <DistanceMeters>NAN</DistanceMeters>
          </Trackpoint>
          <Trackpoint>
            <Time>2019-10-08T07:47:20.000Z</Time>
            <Position>
              <LatitudeDegrees>40.33781287260353565216064453125</LatitudeDegrees>
              <LongitudeDegrees>-5.8496459014713764190673828125</LongitudeDegrees>
            </Position>
            <AltitudeMeters>769.4000244140625</AltitudeMeters>
            <DistanceMeters>NAN</DistanceMeters>
          </Trackpoint>
          <Trackpoint>
            <Time>2019-10-08T07:47:22.000Z</Time>
            <Position>
              <LatitudeDegrees>40.337636768817901611328125</LatitudeDegrees>
              <LongitudeDegrees>-5.8496851287782192230224609375</LongitudeDegrees>
            </Position>
            <AltitudeMeters>768.20001220703125</AltitudeMeters>
            <DistanceMeters>NAN</DistanceMeters>
          </Trackpoint>
          <Trackpoint>
            <Time>2019-10-08T07:47:24.000Z</Time>
            <Position>
              <LatitudeDegrees>40.33745362423360347747802734375</LatitudeDegrees>
              <LongitudeDegrees>-5.84972159005701541900634765625</LongitudeDegrees>
            </Position>
            <AltitudeMeters>767.20001220703125</AltitudeMeters>
            <DistanceMeters>NAN</DistanceMeters>
          </Trackpoint>
          <Trackpoint>
            <Time>2019-10-08T07:47:27.000Z</Time>
            <Position>
              <LatitudeDegrees>40.337164700031280517578125</LatitudeDegrees>
              <LongitudeDegrees>-5.8497838675975799560546875</LongitudeDegrees>
            </Position>
            <AltitudeMeters>765.79998779296875</AltitudeMeters>
            <DistanceMeters>NAN</DistanceMeters>
          </Trackpoint>
          <Trackpoint>
            <Time>2019-10-08T07:47:29.000Z</Time>
            <Position>
              <LatitudeDegrees>40.33697032369673252105712890625</LatitudeDegrees>
              <LongitudeDegrees>-5.849845223128795623779296875</LongitudeDegrees>
            </Position>
            <AltitudeMeters>764.20001220703125</AltitudeMeters>
            <DistanceMeters>NAN</DistanceMeters>
          </Trackpoint>
          <Trackpoint>
            <Time>2019-10-08T07:47:31.000Z</Time>
            <Position>
              <LatitudeDegrees>40.3367796353995800018310546875</LatitudeDegrees>
              <LongitudeDegrees>-5.8499421179294586181640625</LongitudeDegrees>
            </Position>
            <AltitudeMeters>763</AltitudeMeters>
            <DistanceMeters>NAN</DistanceMeters>
          </Trackpoint>
          <Trackpoint>
            <Time>2019-10-08T07:47:33.000Z</Time>
            <Position>
              <LatitudeDegrees>40.33659045584499835968017578125</LatitudeDegrees>
              <LongitudeDegrees>-5.8500609733164310455322265625</LongitudeDegrees>
            </Position>
            <AltitudeMeters>762</AltitudeMeters>
            <DistanceMeters>NAN</DistanceMeters>
          </Trackpoint>
          <Trackpoint>
            <Time>2019-10-08T07:47:34.000Z</Time>
            <Position>
              <LatitudeDegrees>40.336493141949176788330078125</LatitudeDegrees>
              <LongitudeDegrees>-5.85012408904731273651123046875</LongitudeDegrees>
            </Position>
            <AltitudeMeters>761.4000244140625</AltitudeMeters>
            <DistanceMeters>NAN</DistanceMeters>
          </Trackpoint>
          <Trackpoint>
            <Time>2019-10-08T07:47:35.000Z</Time>
            <Position>
              <LatitudeDegrees>40.336394570767879486083984375</LatitudeDegrees>
              <LongitudeDegrees>-5.8501888811588287353515625</LongitudeDegrees>
            </Position>
            <AltitudeMeters>760.79998779296875</AltitudeMeters>
            <DistanceMeters>NAN</DistanceMeters>
          </Trackpoint>
          <Trackpoint>
            <Time>2019-10-08T07:47:37.000Z</Time>
            <Position>
              <LatitudeDegrees>40.33619298599660396575927734375</LatitudeDegrees>
              <LongitudeDegrees>-5.8503184653818607330322265625</LongitudeDegrees>
            </Position>
            <AltitudeMeters>759.4000244140625</AltitudeMeters>
            <DistanceMeters>NAN</DistanceMeters>
          </Trackpoint>
          <Trackpoint>
            <Time>2019-10-08T07:47:39.000Z</Time>
            <Position>
              <LatitudeDegrees>40.33598628826439380645751953125</LatitudeDegrees>
              <LongitudeDegrees>-5.85045106709003448486328125</LongitudeDegrees>
            </Position>
            <AltitudeMeters>757.79998779296875</AltitudeMeters>
            <DistanceMeters>NAN</DistanceMeters>
          </Trackpoint>
          <Trackpoint>
            <Time>2019-10-08T07:47:41.000Z</Time>
            <Position>
              <LatitudeDegrees>40.33577841706573963165283203125</LatitudeDegrees>
              <LongitudeDegrees>-5.85059045813977718353271484375</LongitudeDegrees>
            </Position>
            <AltitudeMeters>756.20001220703125</AltitudeMeters>
            <DistanceMeters>NAN</DistanceMeters>
          </Trackpoint>
          <Trackpoint>
            <Time>2019-10-08T07:47:42.000Z</Time>
            <Position>
              <LatitudeDegrees>40.3356732241809368133544921875</LatitudeDegrees>
              <LongitudeDegrees>-5.85066086612641811370849609375</LongitudeDegrees>
            </Position>
            <AltitudeMeters>755.5999755859375</AltitudeMeters>
            <DistanceMeters>NAN</DistanceMeters>
          </Trackpoint>
          <Trackpoint>
            <Time>2019-10-08T07:47:44.000Z</Time>
            <Position>
              <LatitudeDegrees>40.3354606591165065765380859375</LatitudeDegrees>
              <LongitudeDegrees>-5.85079899989068508148193359375</LongitudeDegrees>
            </Position>
            <AltitudeMeters>754.5999755859375</AltitudeMeters>
            <DistanceMeters>NAN</DistanceMeters>
          </Trackpoint>
          <Trackpoint>
            <Time>2019-10-08T07:47:46.000Z</Time>
            <Position>
              <LatitudeDegrees>40.33524616621434688568115234375</LatitudeDegrees>
              <LongitudeDegrees>-5.85094082169234752655029296875</LongitudeDegrees>
            </Position>
            <AltitudeMeters>753.20001220703125</AltitudeMeters>
            <DistanceMeters>NAN</DistanceMeters>
          </Trackpoint>
          <Trackpoint>
            <Time>2019-10-08T07:47:48.000Z</Time>
            <Position>
              <LatitudeDegrees>40.33502890728414058685302734375</LatitudeDegrees>
              <LongitudeDegrees>-5.8510847389698028564453125</LongitudeDegrees>
            </Position>
            <AltitudeMeters>751.5999755859375</AltitudeMeters>
            <DistanceMeters>NAN</DistanceMeters>
          </Trackpoint>
          <Trackpoint>
            <Time>2019-10-08T07:47:49.000Z</Time>
            <Position>
              <LatitudeDegrees>40.33491902053356170654296875</LatitudeDegrees>
              <LongitudeDegrees>-5.85115673951804637908935546875</LongitudeDegrees>
            </Position>
            <AltitudeMeters>751</AltitudeMeters>
            <DistanceMeters>NAN</DistanceMeters>
          </Trackpoint>
          <Trackpoint>
            <Time>2019-10-08T07:47:50.000Z</Time>
            <Position>
              <LatitudeDegrees>40.3348082117736339569091796875</LatitudeDegrees>
              <LongitudeDegrees>-5.85122848860919475555419921875</LongitudeDegrees>
            </Position>
            <AltitudeMeters>750.20001220703125</AltitudeMeters>
            <DistanceMeters>NAN</DistanceMeters>
          </Trackpoint>
          <Trackpoint>
            <Time>2019-10-08T07:47:52.000Z</Time>
            <Position>
              <LatitudeDegrees>40.33458550460636615753173828125</LatitudeDegrees>
              <LongitudeDegrees>-5.85137215442955493927001953125</LongitudeDegrees>
            </Position>
            <AltitudeMeters>748.79998779296875</AltitudeMeters>
            <DistanceMeters>NAN</DistanceMeters>
          </Trackpoint>
          <Trackpoint>
            <Time>2019-10-08T07:47:54.000Z</Time>
            <Position>
              <LatitudeDegrees>40.3343617916107177734375</LatitudeDegrees>
              <LongitudeDegrees>-5.85151749663054943084716796875</LongitudeDegrees>
            </Position>
            <AltitudeMeters>747.4000244140625</AltitudeMeters>
            <DistanceMeters>NAN</DistanceMeters>
          </Trackpoint>
          <Trackpoint>
            <Time>2019-10-08T07:47:56.000Z</Time>
            <Position>
              <LatitudeDegrees>40.33413606695830821990966796875</LatitudeDegrees>
              <LongitudeDegrees>-5.85166283883154392242431640625</LongitudeDegrees>
            </Position>
            <AltitudeMeters>746.20001220703125</AltitudeMeters>
            <DistanceMeters>NAN</DistanceMeters>
          </Trackpoint>
          <Trackpoint>
            <Time>2019-10-08T07:47:58.000Z</Time>
            <Position>
              <LatitudeDegrees>40.33390355296432971954345703125</LatitudeDegrees>
              <LongitudeDegrees>-5.85178907029330730438232421875</LongitudeDegrees>
            </Position>
            <AltitudeMeters>744.79998779296875</AltitudeMeters>
            <DistanceMeters>NAN</DistanceMeters>
          </Trackpoint>
          <Trackpoint>
            <Time>2019-10-08T07:47:59.000Z</Time>
            <Position>
              <LatitudeDegrees>40.33378385938704013824462890625</LatitudeDegrees>
              <LongitudeDegrees>-5.8518409542739391326904296875</LongitudeDegrees>
            </Position>
            <AltitudeMeters>743.5999755859375</AltitudeMeters>
            <DistanceMeters>NAN</DistanceMeters>
          </Trackpoint>
          <Trackpoint>
            <Time>2019-10-08T07:48:01.000Z</Time>
            <Position>
              <LatitudeDegrees>40.3335391916334629058837890625</LatitudeDegrees>
              <LongitudeDegrees>-5.85191513411700725555419921875</LongitudeDegrees>
            </Position>
            <AltitudeMeters>742.4000244140625</AltitudeMeters>
            <DistanceMeters>NAN</DistanceMeters>
          </Trackpoint>
          <Trackpoint>
            <Time>2019-10-08T07:48:03.000Z</Time>
            <Position>
              <LatitudeDegrees>40.3332934342324733734130859375</LatitudeDegrees>
              <LongitudeDegrees>-5.8519623242318630218505859375</LongitudeDegrees>
            </Position>
            <AltitudeMeters>742</AltitudeMeters>
            <DistanceMeters>NAN</DistanceMeters>
          </Trackpoint>
          <Trackpoint>
            <Time>2019-10-08T07:48:04.000Z</Time>
            <Position>
              <LatitudeDegrees>40.3331703878939151763916015625</LatitudeDegrees>
              <LongitudeDegrees>-5.85197967477142810821533203125</LongitudeDegrees>
            </Position>
            <AltitudeMeters>741.4000244140625</AltitudeMeters>
            <DistanceMeters>NAN</DistanceMeters>
          </Trackpoint>
          <Trackpoint>
            <Time>2019-10-08T07:48:06.000Z</Time>
            <Position>
              <LatitudeDegrees>40.3329256363213062286376953125</LatitudeDegrees>
              <LongitudeDegrees>-5.8520119450986385345458984375</LongitudeDegrees>
            </Position>
            <AltitudeMeters>740</AltitudeMeters>
            <DistanceMeters>NAN</DistanceMeters>
          </Trackpoint>
          <Trackpoint>
            <Time>2019-10-08T07:48:08.000Z</Time>
            <Position>
              <LatitudeDegrees>40.3326761908829212188720703125</LatitudeDegrees>
              <LongitudeDegrees>-5.8520437963306903839111328125</LongitudeDegrees>
            </Position>
            <AltitudeMeters>739</AltitudeMeters>
            <DistanceMeters>NAN</DistanceMeters>
          </Trackpoint>
          <Trackpoint>
            <Time>2019-10-08T07:48:10.000Z</Time>
            <Position>
              <LatitudeDegrees>40.33242230303585529327392578125</LatitudeDegrees>
              <LongitudeDegrees>-5.852086208760738372802734375</LongitudeDegrees>
            </Position>
            <AltitudeMeters>737.20001220703125</AltitudeMeters>
            <DistanceMeters>NAN</DistanceMeters>
          </Trackpoint>
          <Trackpoint>
            <Time>2019-10-08T07:48:11.000Z</Time>
            <Position>
              <LatitudeDegrees>40.33229573629796504974365234375</LatitudeDegrees>
              <LongitudeDegrees>-5.85212518461048603057861328125</LongitudeDegrees>
            </Position>
            <AltitudeMeters>736.4000244140625</AltitudeMeters>
            <DistanceMeters>NAN</DistanceMeters>
          </Trackpoint>
          <Trackpoint>
            <Time>2019-10-08T07:48:12.000Z</Time>
            <Position>
              <LatitudeDegrees>40.3321746177971363067626953125</LatitudeDegrees>
              <LongitudeDegrees>-5.85218369029462337493896484375</LongitudeDegrees>
            </Position>
            <AltitudeMeters>736</AltitudeMeters>
            <DistanceMeters>NAN</DistanceMeters>
          </Trackpoint>
          <Trackpoint>
            <Time>2019-10-08T07:48:13.000Z</Time>
            <Position>
              <LatitudeDegrees>40.332056097686290740966796875</LatitudeDegrees>
              <LongitudeDegrees>-5.85225191898643970489501953125</LongitudeDegrees>
            </Position>
            <AltitudeMeters>735.5999755859375</AltitudeMeters>
            <DistanceMeters>NAN</DistanceMeters>
          </Trackpoint>
          <Trackpoint>
            <Time>2019-10-08T07:48:14.000Z</Time>
            <Position>
              <LatitudeDegrees>40.3319405950605869293212890625</LatitudeDegrees>
              <LongitudeDegrees>-5.85232769139111042022705078125</LongitudeDegrees>
            </Position>
            <AltitudeMeters>734.5999755859375</AltitudeMeters>
            <DistanceMeters>NAN</DistanceMeters>
          </Trackpoint>
          <Trackpoint>
            <Time>2019-10-08T07:48:15.000Z</Time>
            <Position>
              <LatitudeDegrees>40.33182551153004169464111328125</LatitudeDegrees>
              <LongitudeDegrees>-5.85240463726222515106201171875</LongitudeDegrees>
            </Position>
            <AltitudeMeters>733.79998779296875</AltitudeMeters>
            <DistanceMeters>NAN</DistanceMeters>
          </Trackpoint>
          <Trackpoint>
            <Time>2019-10-08T07:48:16.000Z</Time>
            <Position>
              <LatitudeDegrees>40.331709086894989013671875</LatitudeDegrees>
              <LongitudeDegrees>-5.85247990675270557403564453125</LongitudeDegrees>
            </Position>
            <AltitudeMeters>733.4000244140625</AltitudeMeters>
            <DistanceMeters>NAN</DistanceMeters>
          </Trackpoint>
          <Trackpoint>
            <Time>2019-10-08T07:48:17.000Z</Time>
            <Position>
              <LatitudeDegrees>40.33159174025058746337890625</LatitudeDegrees>
              <LongitudeDegrees>-5.85255752317607402801513671875</LongitudeDegrees>
            </Position>
            <AltitudeMeters>732.5999755859375</AltitudeMeters>
            <DistanceMeters>NAN</DistanceMeters>
          </Trackpoint>
          <Trackpoint>
            <Time>2019-10-08T07:48:18.000Z</Time>
            <Position>
              <LatitudeDegrees>40.3314769081771373748779296875</LatitudeDegrees>
              <LongitudeDegrees>-5.85264218039810657501220703125</LongitudeDegrees>
            </Position>
            <AltitudeMeters>731.5999755859375</AltitudeMeters>
            <DistanceMeters>NAN</DistanceMeters>
          </Trackpoint>
          <Trackpoint>
            <Time>2019-10-08T07:48:19.000Z</Time>
            <Position>
              <LatitudeDegrees>40.33136635087430477142333984375</LatitudeDegrees>
              <LongitudeDegrees>-5.85273605771362781524658203125</LongitudeDegrees>
            </Position>
            <AltitudeMeters>730.4000244140625</AltitudeMeters>
            <DistanceMeters>NAN</DistanceMeters>
          </Trackpoint>
          <Trackpoint>
            <Time>2019-10-08T07:48:21.000Z</Time>
            <Position>
              <LatitudeDegrees>40.33116317354142665863037109375</LatitudeDegrees>
              <LongitudeDegrees>-5.85294074378907680511474609375</LongitudeDegrees>
            </Position>
            <AltitudeMeters>728.79998779296875</AltitudeMeters>
            <DistanceMeters>NAN</DistanceMeters>
          </Trackpoint>
          <Trackpoint>
            <Time>2019-10-08T07:48:22.000Z</Time>
            <Position>
              <LatitudeDegrees>40.33106979914009571075439453125</LatitudeDegrees>
              <LongitudeDegrees>-5.85305389948189258575439453125</LongitudeDegrees>
            </Position>
            <AltitudeMeters>728.4000244140625</AltitudeMeters>
            <DistanceMeters>NAN</DistanceMeters>
          </Trackpoint>
          <Trackpoint>
            <Time>2019-10-08T07:48:23.000Z</Time>
            <Position>
              <LatitudeDegrees>40.3309773467481136322021484375</LatitudeDegrees>
              <LongitudeDegrees>-5.8531669713556766510009765625</LongitudeDegrees>
            </Position>
            <AltitudeMeters>728</AltitudeMeters>
            <DistanceMeters>NAN</DistanceMeters>
          </Trackpoint>
          <Trackpoint>
            <Time>2019-10-08T07:48:25.000Z</Time>
            <Position>
              <LatitudeDegrees>40.33079914748668670654296875</LatitudeDegrees>
              <LongitudeDegrees>-5.85338833741843700408935546875</LongitudeDegrees>
            </Position>
            <AltitudeMeters>727.5999755859375</AltitudeMeters>
            <DistanceMeters>NAN</DistanceMeters>
          </Trackpoint>
          <Trackpoint>
            <Time>2019-10-08T07:48:26.000Z</Time>
            <Position>
              <LatitudeDegrees>40.33070501871407032012939453125</LatitudeDegrees>
              <LongitudeDegrees>-5.85348824970424175262451171875</LongitudeDegrees>
            </Position>
            <AltitudeMeters>727.20001220703125</AltitudeMeters>
            <DistanceMeters>NAN</DistanceMeters>
          </Trackpoint>
          <Trackpoint>
            <Time>2019-10-08T07:48:27.000Z</Time>
            <Position>
              <LatitudeDegrees>40.33060736954212188720703125</LatitudeDegrees>
              <LongitudeDegrees>-5.85358430631458759307861328125</LongitudeDegrees>
            </Position>
            <AltitudeMeters>727</AltitudeMeters>
            <DistanceMeters>NAN</DistanceMeters>
          </Trackpoint>
          <Trackpoint>
            <Time>2019-10-08T07:48:28.000Z</Time>
            <Position>
              <LatitudeDegrees>40.33051055856049060821533203125</LatitudeDegrees>
              <LongitudeDegrees>-5.85368287749588489532470703125</LongitudeDegrees>
            </Position>
            <AltitudeMeters>726</AltitudeMeters>
            <DistanceMeters>NAN</DistanceMeters>
          </Trackpoint>
          <Trackpoint>
            <Time>2019-10-08T07:48:30.000Z</Time>
            <Position>
              <LatitudeDegrees>40.3303138352930545806884765625</LatitudeDegrees>
              <LongitudeDegrees>-5.85388295352458953857421875</LongitudeDegrees>
            </Position>
            <AltitudeMeters>724.5999755859375</AltitudeMeters>
            <DistanceMeters>NAN</DistanceMeters>
          </Trackpoint>
          <Trackpoint>
            <Time>2019-10-08T07:48:32.000Z</Time>
            <Position>
              <LatitudeDegrees>40.3301252424716949462890625</LatitudeDegrees>
              <LongitudeDegrees>-5.854086466133594512939453125</LongitudeDegrees>
            </Position>
            <AltitudeMeters>723.5999755859375</AltitudeMeters>
            <DistanceMeters>NAN</DistanceMeters>
          </Trackpoint>
          <Trackpoint>
            <Time>2019-10-08T07:48:33.000Z</Time>
            <Position>
              <LatitudeDegrees>40.330035723745822906494140625</LatitudeDegrees>
              <LongitudeDegrees>-5.8541979454457759857177734375</LongitudeDegrees>
            </Position>
            <AltitudeMeters>722.79998779296875</AltitudeMeters>
            <DistanceMeters>NAN</DistanceMeters>
          </Trackpoint>
          <Trackpoint>
            <Time>2019-10-08T07:48:34.000Z</Time>
            <Position>
              <LatitudeDegrees>40.32994913868606090545654296875</LatitudeDegrees>
              <LongitudeDegrees>-5.85431269370019435882568359375</LongitudeDegrees>
            </Position>
            <AltitudeMeters>722.20001220703125</AltitudeMeters>
            <DistanceMeters>NAN</DistanceMeters>
          </Trackpoint>
          <Trackpoint>
            <Time>2019-10-08T07:48:35.000Z</Time>
            <Position>
              <LatitudeDegrees>40.32986314035952091217041015625</LatitudeDegrees>
              <LongitudeDegrees>-5.85443121381103992462158203125</LongitudeDegrees>
            </Position>
            <AltitudeMeters>721.79998779296875</AltitudeMeters>
            <DistanceMeters>NAN</DistanceMeters>
          </Trackpoint>
          <Trackpoint>
            <Time>2019-10-08T07:48:37.000Z</Time>
            <Position>
              <LatitudeDegrees>40.3296907246112823486328125</LatitudeDegrees>
              <LongitudeDegrees>-5.854665823280811309814453125</LongitudeDegrees>
            </Position>
            <AltitudeMeters>720.4000244140625</AltitudeMeters>
            <DistanceMeters>NAN</DistanceMeters>
          </Trackpoint>
          <Trackpoint>
            <Time>2019-10-08T07:48:40.000Z</Time>
            <Position>
              <LatitudeDegrees>40.32940045930445194244384765625</LatitudeDegrees>
              <LongitudeDegrees>-5.8549717627465724945068359375</LongitudeDegrees>
            </Position>
            <AltitudeMeters>719.5999755859375</AltitudeMeters>
            <DistanceMeters>NAN</DistanceMeters>
          </Trackpoint>
          <Trackpoint>
            <Time>2019-10-08T07:48:41.000Z</Time>
            <Position>
              <LatitudeDegrees>40.32928931526839733123779296875</LatitudeDegrees>
              <LongitudeDegrees>-5.85504678077995777130126953125</LongitudeDegrees>
            </Position>
            <AltitudeMeters>718.5999755859375</AltitudeMeters>
            <DistanceMeters>NAN</DistanceMeters>
          </Trackpoint>
          <Trackpoint>
            <Time>2019-10-08T07:48:43.000Z</Time>
            <Position>
              <LatitudeDegrees>40.32905797474086284637451171875</LatitudeDegrees>
              <LongitudeDegrees>-5.8551839925348758697509765625</LongitudeDegrees>
            </Position>
            <AltitudeMeters>717</AltitudeMeters>
            <DistanceMeters>NAN</DistanceMeters>
          </Trackpoint>
          <Trackpoint>
            <Time>2019-10-08T07:48:44.000Z</Time>
            <Position>
              <LatitudeDegrees>40.3289405442774295806884765625</LatitudeDegrees>
              <LongitudeDegrees>-5.85525213740766048431396484375</LongitudeDegrees>
            </Position>
            <AltitudeMeters>716</AltitudeMeters>
            <DistanceMeters>NAN</DistanceMeters>
          </Trackpoint>
          <Trackpoint>
            <Time>2019-10-08T07:48:45.000Z</Time>
            <Position>
              <LatitudeDegrees>40.328823365271091461181640625</LatitudeDegrees>
              <LongitudeDegrees>-5.855318605899810791015625</LongitudeDegrees>
            </Position>
            <AltitudeMeters>714.4000244140625</AltitudeMeters>
            <DistanceMeters>NAN</DistanceMeters>
          </Trackpoint>
          <Trackpoint>
            <Time>2019-10-08T07:48:50.000Z</Time>
            <Position>
              <LatitudeDegrees>40.3282267414033412933349609375</LatitudeDegrees>
              <LongitudeDegrees>-5.8556406386196613311767578125</LongitudeDegrees>
            </Position>
            <AltitudeMeters>712</AltitudeMeters>
            <DistanceMeters>NAN</DistanceMeters>
          </Trackpoint>
          <Trackpoint>
            <Time>2019-10-08T07:48:52.000Z</Time>
            <Position>
              <LatitudeDegrees>40.32798609696328639984130859375</LatitudeDegrees>
              <LongitudeDegrees>-5.855767540633678436279296875</LongitudeDegrees>
            </Position>
            <AltitudeMeters>711.20001220703125</AltitudeMeters>
            <DistanceMeters>NAN</DistanceMeters>
          </Trackpoint>
          <Trackpoint>
            <Time>2019-10-08T07:48:53.000Z</Time>
            <Position>
              <LatitudeDegrees>40.327861793339252471923828125</LatitudeDegrees>
              <LongitudeDegrees>-5.85581825114786624908447265625</LongitudeDegrees>
            </Position>
            <AltitudeMeters>710.4000244140625</AltitudeMeters>
            <DistanceMeters>NAN</DistanceMeters>
          </Trackpoint>
          <Trackpoint>
            <Time>2019-10-08T07:48:55.000Z</Time>
            <Position>
              <LatitudeDegrees>40.32761008478701114654541015625</LatitudeDegrees>
              <LongitudeDegrees>-5.855833590030670166015625</LongitudeDegrees>
            </Position>
            <AltitudeMeters>709.20001220703125</AltitudeMeters>
            <DistanceMeters>NAN</DistanceMeters>
          </Trackpoint>
          <Trackpoint>
            <Time>2019-10-08T07:48:56.000Z</Time>
            <Position>
              <LatitudeDegrees>40.3274981863796710968017578125</LatitudeDegrees>
              <LongitudeDegrees>-5.85579394362866878509521484375</LongitudeDegrees>
            </Position>
            <AltitudeMeters>709.20001220703125</AltitudeMeters>
            <DistanceMeters>NAN</DistanceMeters>
          </Trackpoint>
          <Trackpoint>
            <Time>2019-10-08T07:48:58.000Z</Time>
            <Position>
              <LatitudeDegrees>40.32728436402976512908935546875</LatitudeDegrees>
              <LongitudeDegrees>-5.85570207796990871429443359375</LongitudeDegrees>
            </Position>
            <AltitudeMeters>709</AltitudeMeters>
            <DistanceMeters>NAN</DistanceMeters>
          </Trackpoint>
          <Trackpoint>
            <Time>2019-10-08T07:49:00.000Z</Time>
            <Position>
              <LatitudeDegrees>40.327076576650142669677734375</LatitudeDegrees>
              <LongitudeDegrees>-5.8557392098009586334228515625</LongitudeDegrees>
            </Position>
            <AltitudeMeters>707.79998779296875</AltitudeMeters>
            <DistanceMeters>NAN</DistanceMeters>
          </Trackpoint>
          <Trackpoint>
            <Time>2019-10-08T07:49:02.000Z</Time>
            <Position>
              <LatitudeDegrees>40.32691539265215396881103515625</LatitudeDegrees>
              <LongitudeDegrees>-5.85591849870979785919189453125</LongitudeDegrees>
            </Position>
            <AltitudeMeters>706.79998779296875</AltitudeMeters>
            <DistanceMeters>NAN</DistanceMeters>
          </Trackpoint>
          <Trackpoint>
            <Time>2019-10-08T07:49:03.000Z</Time>
            <Position>
              <LatitudeDegrees>40.32687507569789886474609375</LatitudeDegrees>
              <LongitudeDegrees>-5.8560453169047832489013671875</LongitudeDegrees>
            </Position>
            <AltitudeMeters>705.5999755859375</AltitudeMeters>
            <DistanceMeters>NAN</DistanceMeters>
          </Trackpoint>
          <Trackpoint>
            <Time>2019-10-08T07:49:04.000Z</Time>
            <Position>
              <LatitudeDegrees>40.326866693794727325439453125</LatitudeDegrees>
              <LongitudeDegrees>-5.85618051700294017791748046875</LongitudeDegrees>
            </Position>
            <AltitudeMeters>704.79998779296875</AltitudeMeters>
            <DistanceMeters>NAN</DistanceMeters>
          </Trackpoint>
          <Trackpoint>
            <Time>2019-10-08T07:49:05.000Z</Time>
            <Position>
              <LatitudeDegrees>40.32688236795365810394287109375</LatitudeDegrees>
              <LongitudeDegrees>-5.856314711272716522216796875</LongitudeDegrees>
            </Position>
            <AltitudeMeters>704</AltitudeMeters>
            <DistanceMeters>NAN</DistanceMeters>
          </Trackpoint>
          <Trackpoint>
            <Time>2019-10-08T07:49:07.000Z</Time>
            <Position>
              <LatitudeDegrees>40.3269575536251068115234375</LatitudeDegrees>
              <LongitudeDegrees>-5.85656943731009960174560546875</LongitudeDegrees>
            </Position>
            <AltitudeMeters>703.4000244140625</AltitudeMeters>
            <DistanceMeters>NAN</DistanceMeters>
          </Trackpoint>
          <Trackpoint>
            <Time>2019-10-08T07:49:08.000Z</Time>
            <Position>
              <LatitudeDegrees>40.327006168663501739501953125</LatitudeDegrees>
              <LongitudeDegrees>-5.8566920645534992218017578125</LongitudeDegrees>
            </Position>
            <AltitudeMeters>702.5999755859375</AltitudeMeters>
            <DistanceMeters>NAN</DistanceMeters>
          </Trackpoint>
          <Trackpoint>
            <Time>2019-10-08T07:49:10.000Z</Time>
            <Position>
              <LatitudeDegrees>40.327098369598388671875</LatitudeDegrees>
              <LongitudeDegrees>-5.8569265902042388916015625</LongitudeDegrees>
            </Position>
            <AltitudeMeters>701.4000244140625</AltitudeMeters>
            <DistanceMeters>NAN</DistanceMeters>
          </Trackpoint>
          <Trackpoint>
            <Time>2019-10-08T07:49:11.000Z</Time>
            <Position>
              <LatitudeDegrees>40.32714807428419589996337890625</LatitudeDegrees>
              <LongitudeDegrees>-5.85703295655548572540283203125</LongitudeDegrees>
            </Position>
            <AltitudeMeters>701.4000244140625</AltitudeMeters>
            <DistanceMeters>NAN</DistanceMeters>
          </Trackpoint>
          <Trackpoint>
            <Time>2019-10-08T07:49:12.000Z</Time>
            <Position>
              <LatitudeDegrees>40.327211357653141021728515625</LatitudeDegrees>
              <LongitudeDegrees>-5.85712415166199207305908203125</LongitudeDegrees>
            </Position>
            <AltitudeMeters>701.4000244140625</AltitudeMeters>
            <DistanceMeters>NAN</DistanceMeters>
          </Trackpoint>
          <Trackpoint>
            <Time>2019-10-08T07:49:14.000Z</Time>
            <Position>
              <LatitudeDegrees>40.3273902274668216705322265625</LatitudeDegrees>
              <LongitudeDegrees>-5.85719875060021877288818359375</LongitudeDegrees>
            </Position>
            <AltitudeMeters>699.4000244140625</AltitudeMeters>
            <DistanceMeters>NAN</DistanceMeters>
          </Trackpoint>
          <Trackpoint>
            <Time>2019-10-08T07:49:16.000Z</Time>
            <Position>
              <LatitudeDegrees>40.32758678309619426727294921875</LatitudeDegrees>
              <LongitudeDegrees>-5.8571215532720088958740234375</LongitudeDegrees>
            </Position>
            <AltitudeMeters>697.79998779296875</AltitudeMeters>
            <DistanceMeters>NAN</DistanceMeters>
          </Trackpoint>
          <Trackpoint>
            <Time>2019-10-08T07:49:17.000Z</Time>
            <Position>
              <LatitudeDegrees>40.32767613418400287628173828125</LatitudeDegrees>
              <LongitudeDegrees>-5.85705868899822235107421875</LongitudeDegrees>
            </Position>
            <AltitudeMeters>697.5999755859375</AltitudeMeters>
            <DistanceMeters>NAN</DistanceMeters>
          </Trackpoint>
          <Trackpoint>
            <Time>2019-10-08T07:49:19.000Z</Time>
            <Position>
              <LatitudeDegrees>40.32784326933324337005615234375</LatitudeDegrees>
              <LongitudeDegrees>-5.85701853968203067779541015625</LongitudeDegrees>
            </Position>
            <AltitudeMeters>697.79998779296875</AltitudeMeters>
            <DistanceMeters>NAN</DistanceMeters>
          </Trackpoint>
          <Trackpoint>
            <Time>2019-10-08T07:49:21.000Z</Time>
            <Position>
              <LatitudeDegrees>40.3279674053192138671875</LatitudeDegrees>
              <LongitudeDegrees>-5.85714778862893581390380859375</LongitudeDegrees>
            </Position>
            <AltitudeMeters>697.4000244140625</AltitudeMeters>
            <DistanceMeters>NAN</DistanceMeters>
          </Trackpoint>
          <Trackpoint>
            <Time>2019-10-08T07:49:23.000Z</Time>
            <Position>
              <LatitudeDegrees>40.3279528208076953887939453125</LatitudeDegrees>
              <LongitudeDegrees>-5.85735348053276538848876953125</LongitudeDegrees>
            </Position>
            <AltitudeMeters>697.5999755859375</AltitudeMeters>
            <DistanceMeters>NAN</DistanceMeters>
          </Trackpoint>
          <Trackpoint>
            <Time>2019-10-08T07:49:26.000Z</Time>
            <Position>
              <LatitudeDegrees>40.32776355743408203125</LatitudeDegrees>
              <LongitudeDegrees>-5.85759806446731090545654296875</LongitudeDegrees>
            </Position>
            <AltitudeMeters>696.20001220703125</AltitudeMeters>
            <DistanceMeters>NAN</DistanceMeters>
          </Trackpoint>
          <Trackpoint>
            <Time>2019-10-08T07:49:28.000Z</Time>
            <Position>
              <LatitudeDegrees>40.32761938869953155517578125</LatitudeDegrees>
              <LongitudeDegrees>-5.85776679217815399169921875</LongitudeDegrees>
            </Position>
            <AltitudeMeters>695</AltitudeMeters>
            <DistanceMeters>NAN</DistanceMeters>
          </Trackpoint>
          <Trackpoint>
            <Time>2019-10-08T07:49:30.000Z</Time>
            <Position>
              <LatitudeDegrees>40.32746591605246067047119140625</LatitudeDegrees>
              <LongitudeDegrees>-5.85794155485928058624267578125</LongitudeDegrees>
            </Position>
            <AltitudeMeters>693.79998779296875</AltitudeMeters>
            <DistanceMeters>NAN</DistanceMeters>
          </Trackpoint>
          <Trackpoint>
            <Time>2019-10-08T07:49:32.000Z</Time>
            <Position>
              <LatitudeDegrees>40.3273057378828525543212890625</LatitudeDegrees>
              <LongitudeDegrees>-5.8581196703016757965087890625</LongitudeDegrees>
            </Position>
            <AltitudeMeters>692.20001220703125</AltitudeMeters>
            <DistanceMeters>NAN</DistanceMeters>
          </Trackpoint>
          <Trackpoint>
            <Time>2019-10-08T07:49:34.000Z</Time>
            <Position>
              <LatitudeDegrees>40.32713734544813632965087890625</LatitudeDegrees>
              <LongitudeDegrees>-5.8583017252385616302490234375</LongitudeDegrees>
            </Position>
            <AltitudeMeters>691</AltitudeMeters>
            <DistanceMeters>NAN</DistanceMeters>
          </Trackpoint>
          <Trackpoint>
            <Time>2019-10-08T07:49:36.000Z</Time>
            <Position>
              <LatitudeDegrees>40.32696518115699291229248046875</LatitudeDegrees>
              <LongitudeDegrees>-5.85848218761384487152099609375</LongitudeDegrees>
            </Position>
            <AltitudeMeters>689.5999755859375</AltitudeMeters>
            <DistanceMeters>NAN</DistanceMeters>
          </Trackpoint>
          <Trackpoint>
            <Time>2019-10-08T07:49:38.000Z</Time>
            <Position>
              <LatitudeDegrees>40.326804332435131072998046875</LatitudeDegrees>
              <LongitudeDegrees>-5.85864580236375331878662109375</LongitudeDegrees>
            </Position>
            <AltitudeMeters>688.5999755859375</AltitudeMeters>
            <DistanceMeters>NAN</DistanceMeters>
          </Trackpoint>
          <Trackpoint>
            <Time>2019-10-08T07:49:39.000Z</Time>
            <Position>
              <LatitudeDegrees>40.326726548373699188232421875</LatitudeDegrees>
              <LongitudeDegrees>-5.85871738381683826446533203125</LongitudeDegrees>
            </Position>
            <AltitudeMeters>688.20001220703125</AltitudeMeters>
            <DistanceMeters>NAN</DistanceMeters>
          </Trackpoint>
          <Trackpoint>
            <Time>2019-10-08T07:49:40.000Z</Time>
            <Position>
              <LatitudeDegrees>40.32665823586285114288330078125</LatitudeDegrees>
              <LongitudeDegrees>-5.8588009513914585113525390625</LongitudeDegrees>
            </Position>
            <AltitudeMeters>687.79998779296875</AltitudeMeters>
            <DistanceMeters>NAN</DistanceMeters>
          </Trackpoint>
          <Trackpoint>
            <Time>2019-10-08T07:49:41.000Z</Time>
            <Position>
              <LatitudeDegrees>40.32660685479640960693359375</LatitudeDegrees>
              <LongitudeDegrees>-5.8589072339236736297607421875</LongitudeDegrees>
            </Position>
            <AltitudeMeters>688.20001220703125</AltitudeMeters>
            <DistanceMeters>NAN</DistanceMeters>
          </Trackpoint>
          <Trackpoint>
            <Time>2019-10-08T07:49:43.000Z</Time>
            <Position>
              <LatitudeDegrees>40.3265734948217868804931640625</LatitudeDegrees>
              <LongitudeDegrees>-5.85914687253534793853759765625</LongitudeDegrees>
            </Position>
            <AltitudeMeters>687.4000244140625</AltitudeMeters>
            <DistanceMeters>NAN</DistanceMeters>
          </Trackpoint>
          <Trackpoint>
            <Time>2019-10-08T07:49:46.000Z</Time>
            <Position>
              <LatitudeDegrees>40.32645522616803646087646484375</LatitudeDegrees>
              <LongitudeDegrees>-5.85942766629159450531005859375</LongitudeDegrees>
            </Position>
            <AltitudeMeters>688</AltitudeMeters>
            <DistanceMeters>NAN</DistanceMeters>
          </Trackpoint>
          <Trackpoint>
            <Time>2019-10-08T07:49:48.000Z</Time>
            <Position>
              <LatitudeDegrees>40.3262824751436710357666015625</LatitudeDegrees>
              <LongitudeDegrees>-5.85945256054401397705078125</LongitudeDegrees>
            </Position>
            <AltitudeMeters>686.4000244140625</AltitudeMeters>
            <DistanceMeters>NAN</DistanceMeters>
          </Trackpoint>
          <Trackpoint>
            <Time>2019-10-08T07:49:49.000Z</Time>
            <Position>
              <LatitudeDegrees>40.32619337551295757293701171875</LatitudeDegrees>
              <LongitudeDegrees>-5.85943185724318027496337890625</LongitudeDegrees>
            </Position>
            <AltitudeMeters>685.79998779296875</AltitudeMeters>
            <DistanceMeters>NAN</DistanceMeters>
          </Trackpoint>
          <Trackpoint>
            <Time>2019-10-08T07:49:50.000Z</Time>
            <Position>
              <LatitudeDegrees>40.3261034376919269561767578125</LatitudeDegrees>
              <LongitudeDegrees>-5.8594319410622119903564453125</LongitudeDegrees>
            </Position>
            <AltitudeMeters>684.79998779296875</AltitudeMeters>
            <DistanceMeters>NAN</DistanceMeters>
          </Trackpoint>
          <Trackpoint>
            <Time>2019-10-08T07:49:51.000Z</Time>
            <Position>
              <LatitudeDegrees>40.326015092432498931884765625</LatitudeDegrees>
              <LongitudeDegrees>-5.8594577573239803314208984375</LongitudeDegrees>
            </Position>
            <AltitudeMeters>684.5999755859375</AltitudeMeters>
            <DistanceMeters>NAN</DistanceMeters>
          </Trackpoint>
          <Trackpoint>
            <Time>2019-10-08T07:49:54.000Z</Time>
            <Position>
              <LatitudeDegrees>40.32578014768660068511962890625</LatitudeDegrees>
              <LongitudeDegrees>-5.85965448059141635894775390625</LongitudeDegrees>
            </Position>
            <AltitudeMeters>684</AltitudeMeters>
            <DistanceMeters>NAN</DistanceMeters>
          </Trackpoint>
          <Trackpoint>
            <Time>2019-10-08T07:49:55.000Z</Time>
            <Position>
              <LatitudeDegrees>40.32570387236773967742919921875</LatitudeDegrees>
              <LongitudeDegrees>-5.85973544977605342864990234375</LongitudeDegrees>
            </Position>
            <AltitudeMeters>683.79998779296875</AltitudeMeters>
            <DistanceMeters>NAN</DistanceMeters>
          </Trackpoint>
          <Trackpoint>
            <Time>2019-10-08T07:49:57.000Z</Time>
            <Position>
              <LatitudeDegrees>40.325546376407146453857421875</LatitudeDegrees>
              <LongitudeDegrees>-5.859903506934642791748046875</LongitudeDegrees>
            </Position>
            <AltitudeMeters>682.4000244140625</AltitudeMeters>
            <DistanceMeters>NAN</DistanceMeters>
          </Trackpoint>
          <Trackpoint>
            <Time>2019-10-08T07:49:59.000Z</Time>
            <Position>
              <LatitudeDegrees>40.325381420552730560302734375</LatitudeDegrees>
              <LongitudeDegrees>-5.860077179968357086181640625</LongitudeDegrees>
            </Position>
            <AltitudeMeters>681.20001220703125</AltitudeMeters>
            <DistanceMeters>NAN</DistanceMeters>
          </Trackpoint>
          <Trackpoint>
            <Time>2019-10-08T07:50:01.000Z</Time>
            <Position>
              <LatitudeDegrees>40.32520682550966739654541015625</LatitudeDegrees>
              <LongitudeDegrees>-5.8602498471736907958984375</LongitudeDegrees>
            </Position>
            <AltitudeMeters>680</AltitudeMeters>
            <DistanceMeters>NAN</DistanceMeters>
          </Trackpoint>
          <Trackpoint>
            <Time>2019-10-08T07:50:03.000Z</Time>
            <Position>
              <LatitudeDegrees>40.32502644695341587066650390625</LatitudeDegrees>
              <LongitudeDegrees>-5.8604267053306102752685546875</LongitudeDegrees>
            </Position>
            <AltitudeMeters>678</AltitudeMeters>
            <DistanceMeters>NAN</DistanceMeters>
          </Trackpoint>
          <Trackpoint>
            <Time>2019-10-08T07:50:05.000Z</Time>
            <Position>
              <LatitudeDegrees>40.32482930459082126617431640625</LatitudeDegrees>
              <LongitudeDegrees>-5.8605812676250934600830078125</LongitudeDegrees>
            </Position>
            <AltitudeMeters>676.4000244140625</AltitudeMeters>
            <DistanceMeters>NAN</DistanceMeters>
          </Trackpoint>
          <Trackpoint>
            <Time>2019-10-08T07:50:06.000Z</Time>
            <Position>
              <LatitudeDegrees>40.32472394406795501708984375</LatitudeDegrees>
              <LongitudeDegrees>-5.86064605973660945892333984375</LongitudeDegrees>
            </Position>
            <AltitudeMeters>675.5999755859375</AltitudeMeters>
            <DistanceMeters>NAN</DistanceMeters>
          </Trackpoint>
          <Trackpoint>
            <Time>2019-10-08T07:50:07.000Z</Time>
            <Position>
              <LatitudeDegrees>40.3246186673641204833984375</LatitudeDegrees>
              <LongitudeDegrees>-5.8607090078294277191162109375</LongitudeDegrees>
            </Position>
            <AltitudeMeters>675.4000244140625</AltitudeMeters>
            <DistanceMeters>NAN</DistanceMeters>
          </Trackpoint>
          <Trackpoint>
            <Time>2019-10-08T07:50:09.000Z</Time>
            <Position>
              <LatitudeDegrees>40.3244066052138805389404296875</LatitudeDegrees>
              <LongitudeDegrees>-5.8608256839215755462646484375</LongitudeDegrees>
            </Position>
            <AltitudeMeters>673.5999755859375</AltitudeMeters>
            <DistanceMeters>NAN</DistanceMeters>
          </Trackpoint>
          <Trackpoint>
            <Time>2019-10-08T07:50:11.000Z</Time>
            <Position>
              <LatitudeDegrees>40.32419395633041858673095703125</LatitudeDegrees>
              <LongitudeDegrees>-5.8608397655189037322998046875</LongitudeDegrees>
            </Position>
            <AltitudeMeters>673</AltitudeMeters>
            <DistanceMeters>NAN</DistanceMeters>
          </Trackpoint>
          <Trackpoint>
            <Time>2019-10-08T07:50:13.000Z</Time>
            <Position>
              <LatitudeDegrees>40.3240455128252506256103515625</LatitudeDegrees>
              <LongitudeDegrees>-5.86068813689053058624267578125</LongitudeDegrees>
            </Position>
            <AltitudeMeters>672.79998779296875</AltitudeMeters>
            <DistanceMeters>NAN</DistanceMeters>
          </Trackpoint>
          <Trackpoint>
            <Time>2019-10-08T07:50:14.000Z</Time>
            <Position>
              <LatitudeDegrees>40.32402464188635349273681640625</LatitudeDegrees>
              <LongitudeDegrees>-5.86056928150355815887451171875</LongitudeDegrees>
            </Position>
            <AltitudeMeters>672.4000244140625</AltitudeMeters>
            <DistanceMeters>NAN</DistanceMeters>
          </Trackpoint>
          <Trackpoint>
            <Time>2019-10-08T07:50:15.000Z</Time>
            <Position>
              <LatitudeDegrees>40.324050374329090118408203125</LatitudeDegrees>
              <LongitudeDegrees>-5.86044439114630222320556640625</LongitudeDegrees>
            </Position>
            <AltitudeMeters>672.4000244140625</AltitudeMeters>
            <DistanceMeters>NAN</DistanceMeters>
          </Trackpoint>
          <Trackpoint>
            <Time>2019-10-08T07:50:18.000Z</Time>
            <Position>
              <LatitudeDegrees>40.32414995133876800537109375</LatitudeDegrees>
              <LongitudeDegrees>-5.86009117774665355682373046875</LongitudeDegrees>
            </Position>
            <AltitudeMeters>671.4000244140625</AltitudeMeters>
            <DistanceMeters>NAN</DistanceMeters>
          </Trackpoint>
          <Trackpoint>
            <Time>2019-10-08T07:50:20.000Z</Time>
            <Position>
              <LatitudeDegrees>40.32412857748568058013916015625</LatitudeDegrees>
              <LongitudeDegrees>-5.8598496951162815093994140625</LongitudeDegrees>
            </Position>
            <AltitudeMeters>670.4000244140625</AltitudeMeters>
            <DistanceMeters>NAN</DistanceMeters>
          </Trackpoint>
          <Trackpoint>
            <Time>2019-10-08T07:50:21.000Z</Time>
            <Position>
              <LatitudeDegrees>40.3241021744906902313232421875</LatitudeDegrees>
              <LongitudeDegrees>-5.85973042063415050506591796875</LongitudeDegrees>
            </Position>
            <AltitudeMeters>670.20001220703125</AltitudeMeters>
            <DistanceMeters>NAN</DistanceMeters>
          </Trackpoint>
          <Trackpoint>
            <Time>2019-10-08T07:50:23.000Z</Time>
            <Position>
              <LatitudeDegrees>40.32403134740889072418212890625</LatitudeDegrees>
              <LongitudeDegrees>-5.8594963140785694122314453125</LongitudeDegrees>
            </Position>
            <AltitudeMeters>669.5999755859375</AltitudeMeters>
            <DistanceMeters>NAN</DistanceMeters>
          </Trackpoint>
          <Trackpoint>
            <Time>2019-10-08T07:50:24.000Z</Time>
            <Position>
              <LatitudeDegrees>40.3239952214062213897705078125</LatitudeDegrees>
              <LongitudeDegrees>-5.85937687195837497711181640625</LongitudeDegrees>
            </Position>
            <AltitudeMeters>669.20001220703125</AltitudeMeters>
            <DistanceMeters>NAN</DistanceMeters>
          </Trackpoint>
          <Trackpoint>
            <Time>2019-10-08T07:50:26.000Z</Time>
            <Position>
              <LatitudeDegrees>40.32393210567533969879150390625</LatitudeDegrees>
              <LongitudeDegrees>-5.85912792943418025970458984375</LongitudeDegrees>
            </Position>
            <AltitudeMeters>668.4000244140625</AltitudeMeters>
            <DistanceMeters>NAN</DistanceMeters>
          </Trackpoint>
          <Trackpoint>
            <Time>2019-10-08T07:50:27.000Z</Time>
            <Position>
              <LatitudeDegrees>40.3239033557474613189697265625</LatitudeDegrees>
              <LongitudeDegrees>-5.8589999377727508544921875</LongitudeDegrees>
            </Position>
            <AltitudeMeters>667.5999755859375</AltitudeMeters>
            <DistanceMeters>NAN</DistanceMeters>
          </Trackpoint>
          <Trackpoint>
            <Time>2019-10-08T07:50:28.000Z</Time>
            <Position>
              <LatitudeDegrees>40.32387896440923213958740234375</LatitudeDegrees>
              <LongitudeDegrees>-5.8588685095310211181640625</LongitudeDegrees>
            </Position>
            <AltitudeMeters>666.4000244140625</AltitudeMeters>
            <DistanceMeters>NAN</DistanceMeters>
          </Trackpoint>
          <Trackpoint>
            <Time>2019-10-08T07:50:30.000Z</Time>
            <Position>
              <LatitudeDegrees>40.323839485645294189453125</LatitudeDegrees>
              <LongitudeDegrees>-5.8586011268198490142822265625</LongitudeDegrees>
            </Position>
            <AltitudeMeters>665.20001220703125</AltitudeMeters>
            <DistanceMeters>NAN</DistanceMeters>
          </Trackpoint>
          <Trackpoint>
            <Time>2019-10-08T07:50:31.000Z</Time>
            <Position>
              <LatitudeDegrees>40.32382749952375888824462890625</LatitudeDegrees>
              <LongitudeDegrees>-5.85846374742686748504638671875</LongitudeDegrees>
            </Position>
            <AltitudeMeters>664.79998779296875</AltitudeMeters>
            <DistanceMeters>NAN</DistanceMeters>
          </Trackpoint>
          <Trackpoint>
            <Time>2019-10-08T07:50:32.000Z</Time>
            <Position>
              <LatitudeDegrees>40.32382951118052005767822265625</LatitudeDegrees>
              <LongitudeDegrees>-5.8583225123584270477294921875</LongitudeDegrees>
            </Position>
            <AltitudeMeters>663.5999755859375</AltitudeMeters>
            <DistanceMeters>NAN</DistanceMeters>
          </Trackpoint>
          <Trackpoint>
            <Time>2019-10-08T07:50:35.000Z</Time>
            <Position>
              <LatitudeDegrees>40.3239103965461254119873046875</LatitudeDegrees>
              <LongitudeDegrees>-5.857911966741085052490234375</LongitudeDegrees>
            </Position>
            <AltitudeMeters>662</AltitudeMeters>
            <DistanceMeters>NAN</DistanceMeters>
          </Trackpoint>
          <Trackpoint>
            <Time>2019-10-08T07:50:37.000Z</Time>
            <Position>
              <LatitudeDegrees>40.3240321017801761627197265625</LatitudeDegrees>
              <LongitudeDegrees>-5.8576695621013641357421875</LongitudeDegrees>
            </Position>
            <AltitudeMeters>660.79998779296875</AltitudeMeters>
            <DistanceMeters>NAN</DistanceMeters>
          </Trackpoint>
          <Trackpoint>
            <Time>2019-10-08T07:50:38.000Z</Time>
            <Position>
              <LatitudeDegrees>40.3241063654422760009765625</LatitudeDegrees>
              <LongitudeDegrees>-5.8575590886175632476806640625</LongitudeDegrees>
            </Position>
            <AltitudeMeters>660</AltitudeMeters>
            <DistanceMeters>NAN</DistanceMeters>
          </Trackpoint>
          <Trackpoint>
            <Time>2019-10-08T07:50:39.000Z</Time>
            <Position>
              <LatitudeDegrees>40.3241863287985324859619140625</LatitudeDegrees>
              <LongitudeDegrees>-5.8574544824659824371337890625</LongitudeDegrees>
            </Position>
            <AltitudeMeters>659.20001220703125</AltitudeMeters>
            <DistanceMeters>NAN</DistanceMeters>
          </Trackpoint>
          <Trackpoint>
            <Time>2019-10-08T07:50:40.000Z</Time>
            <Position>
              <LatitudeDegrees>40.3242694772779941558837890625</LatitudeDegrees>
              <LongitudeDegrees>-5.8573549054563045501708984375</LongitudeDegrees>
            </Position>
            <AltitudeMeters>658.20001220703125</AltitudeMeters>
            <DistanceMeters>NAN</DistanceMeters>
          </Trackpoint>
          <Trackpoint>
            <Time>2019-10-08T07:50:42.000Z</Time>
            <Position>
              <LatitudeDegrees>40.3244441561400890350341796875</LatitudeDegrees>
              <LongitudeDegrees>-5.85716924630105495452880859375</LongitudeDegrees>
            </Position>
            <AltitudeMeters>657</AltitudeMeters>
            <DistanceMeters>NAN</DistanceMeters>
          </Trackpoint>
          <Trackpoint>
            <Time>2019-10-08T07:50:43.000Z</Time>
            <Position>
              <LatitudeDegrees>40.32453409396111965179443359375</LatitudeDegrees>
              <LongitudeDegrees>-5.85707905702292919158935546875</LongitudeDegrees>
            </Position>
            <AltitudeMeters>656.4000244140625</AltitudeMeters>
            <DistanceMeters>NAN</DistanceMeters>
          </Trackpoint>
          <Trackpoint>
            <Time>2019-10-08T07:50:45.000Z</Time>
            <Position>
              <LatitudeDegrees>40.32471464015543460845947265625</LatitudeDegrees>
              <LongitudeDegrees>-5.85690085776150226593017578125</LongitudeDegrees>
            </Position>
            <AltitudeMeters>655.79998779296875</AltitudeMeters>
            <DistanceMeters>NAN</DistanceMeters>
          </Trackpoint>
          <Trackpoint>
            <Time>2019-10-08T07:50:47.000Z</Time>
            <Position>
              <LatitudeDegrees>40.3248961083590984344482421875</LatitudeDegrees>
              <LongitudeDegrees>-5.856722407042980194091796875</LongitudeDegrees>
            </Position>
            <AltitudeMeters>654</AltitudeMeters>
            <DistanceMeters>NAN</DistanceMeters>
          </Trackpoint>
          <Trackpoint>
            <Time>2019-10-08T07:50:48.000Z</Time>
            <Position>
              <LatitudeDegrees>40.324987135827541351318359375</LatitudeDegrees>
              <LongitudeDegrees>-5.85663892328739166259765625</LongitudeDegrees>
            </Position>
            <AltitudeMeters>653</AltitudeMeters>
            <DistanceMeters>NAN</DistanceMeters>
          </Trackpoint>
          <Trackpoint>
            <Time>2019-10-08T07:50:49.000Z</Time>
            <Position>
              <LatitudeDegrees>40.32507271505892276763916015625</LatitudeDegrees>
              <LongitudeDegrees>-5.8565592952072620391845703125</LongitudeDegrees>
            </Position>
            <AltitudeMeters>652.5999755859375</AltitudeMeters>
            <DistanceMeters>NAN</DistanceMeters>
          </Trackpoint>
          <Trackpoint>
            <Time>2019-10-08T07:50:50.000Z</Time>
            <Position>
              <LatitudeDegrees>40.325147397816181182861328125</LatitudeDegrees>
              <LongitudeDegrees>-5.856472291052341461181640625</LongitudeDegrees>
            </Position>
            <AltitudeMeters>652.4000244140625</AltitudeMeters>
            <DistanceMeters>NAN</DistanceMeters>
          </Trackpoint>
          <Trackpoint>
            <Time>2019-10-08T07:50:52.000Z</Time>
            <Position>
              <LatitudeDegrees>40.32523565925657749176025390625</LatitudeDegrees>
              <LongitudeDegrees>-5.85625779815018177032470703125</LongitudeDegrees>
            </Position>
            <AltitudeMeters>652.4000244140625</AltitudeMeters>
            <DistanceMeters>NAN</DistanceMeters>
          </Trackpoint>
          <Trackpoint>
            <Time>2019-10-08T07:50:53.000Z</Time>
            <Position>
              <LatitudeDegrees>40.325232557952404022216796875</LatitudeDegrees>
              <LongitudeDegrees>-5.85614539682865142822265625</LongitudeDegrees>
            </Position>
            <AltitudeMeters>652</AltitudeMeters>
            <DistanceMeters>NAN</DistanceMeters>
          </Trackpoint>
          <Trackpoint>
            <Time>2019-10-08T07:50:54.000Z</Time>
            <Position>
              <LatitudeDegrees>40.32518821768462657928466796875</LatitudeDegrees>
              <LongitudeDegrees>-5.8560459874570369720458984375</LongitudeDegrees>
            </Position>
            <AltitudeMeters>652.79998779296875</AltitudeMeters>
            <DistanceMeters>NAN</DistanceMeters>
          </Trackpoint>
          <Trackpoint>
            <Time>2019-10-08T07:50:56.000Z</Time>
            <Position>
              <LatitudeDegrees>40.3250265307724475860595703125</LatitudeDegrees>
              <LongitudeDegrees>-5.8559172414243221282958984375</LongitudeDegrees>
            </Position>
            <AltitudeMeters>652.5999755859375</AltitudeMeters>
            <DistanceMeters>NAN</DistanceMeters>
          </Trackpoint>
          <Trackpoint>
            <Time>2019-10-08T07:50:58.000Z</Time>
            <Position>
              <LatitudeDegrees>40.3248414583504199981689453125</LatitudeDegrees>
              <LongitudeDegrees>-5.85584205575287342071533203125</LongitudeDegrees>
            </Position>
            <AltitudeMeters>651.79998779296875</AltitudeMeters>
            <DistanceMeters>NAN</DistanceMeters>
          </Trackpoint>
          <Trackpoint>
            <Time>2019-10-08T07:51:01.000Z</Time>
            <Position>
              <LatitudeDegrees>40.32455764710903167724609375</LatitudeDegrees>
              <LongitudeDegrees>-5.85570911876857280731201171875</LongitudeDegrees>
            </Position>
            <AltitudeMeters>649.79998779296875</AltitudeMeters>
            <DistanceMeters>NAN</DistanceMeters>
          </Trackpoint>
          <Trackpoint>
            <Time>2019-10-08T07:51:02.000Z</Time>
            <Position>
              <LatitudeDegrees>40.32446100376546382904052734375</LatitudeDegrees>
              <LongitudeDegrees>-5.85566335357725620269775390625</LongitudeDegrees>
            </Position>
            <AltitudeMeters>649.5999755859375</AltitudeMeters>
            <DistanceMeters>NAN</DistanceMeters>
          </Trackpoint>
          <Trackpoint>
            <Time>2019-10-08T07:51:03.000Z</Time>
            <Position>
              <LatitudeDegrees>40.324364192783832550048828125</LatitudeDegrees>
              <LongitudeDegrees>-5.85561607964336872100830078125</LongitudeDegrees>
            </Position>
            <AltitudeMeters>648.79998779296875</AltitudeMeters>
            <DistanceMeters>NAN</DistanceMeters>
          </Trackpoint>
          <Trackpoint>
            <Time>2019-10-08T07:51:05.000Z</Time>
            <Position>
              <LatitudeDegrees>40.3241692297160625457763671875</LatitudeDegrees>
              <LongitudeDegrees>-5.85551667027175426483154296875</LongitudeDegrees>
            </Position>
            <AltitudeMeters>647.4000244140625</AltitudeMeters>
            <DistanceMeters>NAN</DistanceMeters>
          </Trackpoint>
          <Trackpoint>
            <Time>2019-10-08T07:51:06.000Z</Time>
            <Position>
              <LatitudeDegrees>40.32407007180154323577880859375</LatitudeDegrees>
              <LongitudeDegrees>-5.85546621121466159820556640625</LongitudeDegrees>
            </Position>
            <AltitudeMeters>647</AltitudeMeters>
            <DistanceMeters>NAN</DistanceMeters>
          </Trackpoint>
          <Trackpoint>
            <Time>2019-10-08T07:51:07.000Z</Time>
            <Position>
              <LatitudeDegrees>40.3239717520773410797119140625</LatitudeDegrees>
              <LongitudeDegrees>-5.85541575215756893157958984375</LongitudeDegrees>
            </Position>
            <AltitudeMeters>646.20001220703125</AltitudeMeters>
            <DistanceMeters>NAN</DistanceMeters>
          </Trackpoint>
          <Trackpoint>
            <Time>2019-10-08T07:51:08.000Z</Time>
            <Position>
              <LatitudeDegrees>40.3238708339631557464599609375</LatitudeDegrees>
              <LongitudeDegrees>-5.8553710766136646270751953125</LongitudeDegrees>
            </Position>
            <AltitudeMeters>645.4000244140625</AltitudeMeters>
            <DistanceMeters>NAN</DistanceMeters>
          </Trackpoint>
          <Trackpoint>
            <Time>2019-10-08T07:51:09.000Z</Time>
            <Position>
              <LatitudeDegrees>40.32376681454479694366455078125</LatitudeDegrees>
              <LongitudeDegrees>-5.855338387191295623779296875</LongitudeDegrees>
            </Position>
            <AltitudeMeters>644.5999755859375</AltitudeMeters>
            <DistanceMeters>NAN</DistanceMeters>
          </Trackpoint>
          <Trackpoint>
            <Time>2019-10-08T07:51:10.000Z</Time>
            <Position>
              <LatitudeDegrees>40.3236586041748523712158203125</LatitudeDegrees>
              <LongitudeDegrees>-5.8553284965455532073974609375</LongitudeDegrees>
            </Position>
            <AltitudeMeters>644</AltitudeMeters>
            <DistanceMeters>NAN</DistanceMeters>
          </Trackpoint>
          <Trackpoint>
            <Time>2019-10-08T07:51:12.000Z</Time>
            <Position>
              <LatitudeDegrees>40.32344092614948749542236328125</LatitudeDegrees>
              <LongitudeDegrees>-5.85538373328745365142822265625</LongitudeDegrees>
            </Position>
            <AltitudeMeters>643.4000244140625</AltitudeMeters>
            <DistanceMeters>NAN</DistanceMeters>
          </Trackpoint>
          <Trackpoint>
            <Time>2019-10-08T07:51:13.000Z</Time>
            <Position>
              <LatitudeDegrees>40.3233347274363040924072265625</LatitudeDegrees>
              <LongitudeDegrees>-5.8554277382791042327880859375</LongitudeDegrees>
            </Position>
            <AltitudeMeters>643</AltitudeMeters>
            <DistanceMeters>NAN</DistanceMeters>
          </Trackpoint>
          <Trackpoint>
            <Time>2019-10-08T07:51:15.000Z</Time>
            <Position>
              <LatitudeDegrees>40.32311805523931980133056640625</LatitudeDegrees>
              <LongitudeDegrees>-5.85551516152918338775634765625</LongitudeDegrees>
            </Position>
            <AltitudeMeters>641.79998779296875</AltitudeMeters>
            <DistanceMeters>NAN</DistanceMeters>
          </Trackpoint>
          <Trackpoint>
            <Time>2019-10-08T07:51:16.000Z</Time>
            <Position>
              <LatitudeDegrees>40.32300674356520175933837890625</LatitudeDegrees>
              <LongitudeDegrees>-5.85555455647408962249755859375</LongitudeDegrees>
            </Position>
            <AltitudeMeters>640.5999755859375</AltitudeMeters>
            <DistanceMeters>NAN</DistanceMeters>
          </Trackpoint>
          <Trackpoint>
            <Time>2019-10-08T07:51:17.000Z</Time>
            <Position>
              <LatitudeDegrees>40.32289476133882999420166015625</LatitudeDegrees>
              <LongitudeDegrees>-5.85558825172483921051025390625</LongitudeDegrees>
            </Position>
            <AltitudeMeters>639</AltitudeMeters>
            <DistanceMeters>NAN</DistanceMeters>
          </Trackpoint>
          <Trackpoint>
            <Time>2019-10-08T07:51:18.000Z</Time>
            <Position>
              <LatitudeDegrees>40.32277992926537990570068359375</LatitudeDegrees>
              <LongitudeDegrees>-5.85561356507241725921630859375</LongitudeDegrees>
            </Position>
            <AltitudeMeters>638</AltitudeMeters>
            <DistanceMeters>NAN</DistanceMeters>
          </Trackpoint>
          <Trackpoint>
            <Time>2019-10-08T07:51:19.000Z</Time>
            <Position>
              <LatitudeDegrees>40.322665013372898101806640625</LatitudeDegrees>
              <LongitudeDegrees>-5.85562932305037975311279296875</LongitudeDegrees>
            </Position>
            <AltitudeMeters>637.20001220703125</AltitudeMeters>
            <DistanceMeters>NAN</DistanceMeters>
          </Trackpoint>
          <Trackpoint>
            <Time>2019-10-08T07:51:20.000Z</Time>
            <Position>
              <LatitudeDegrees>40.32254976220428943634033203125</LatitudeDegrees>
              <LongitudeDegrees>-5.8556392975151538848876953125</LongitudeDegrees>
            </Position>
            <AltitudeMeters>636.4000244140625</AltitudeMeters>
            <DistanceMeters>NAN</DistanceMeters>
          </Trackpoint>
          <Trackpoint>
            <Time>2019-10-08T07:51:22.000Z</Time>
            <Position>
              <LatitudeDegrees>40.3223131410777568817138671875</LatitudeDegrees>
              <LongitudeDegrees>-5.85565078072249889373779296875</LongitudeDegrees>
            </Position>
            <AltitudeMeters>635</AltitudeMeters>
            <DistanceMeters>NAN</DistanceMeters>
          </Trackpoint>
          <Trackpoint>
            <Time>2019-10-08T07:51:24.000Z</Time>
            <Position>
              <LatitudeDegrees>40.32208020798861980438232421875</LatitudeDegrees>
              <LongitudeDegrees>-5.85566016845405101776123046875</LongitudeDegrees>
            </Position>
            <AltitudeMeters>633.20001220703125</AltitudeMeters>
            <DistanceMeters>NAN</DistanceMeters>
          </Trackpoint>
          <Trackpoint>
            <Time>2019-10-08T07:51:26.000Z</Time>
            <Position>
              <LatitudeDegrees>40.32184769399464130401611328125</LatitudeDegrees>
              <LongitudeDegrees>-5.855664946138858795166015625</LongitudeDegrees>
            </Position>
            <AltitudeMeters>632.5999755859375</AltitudeMeters>
            <DistanceMeters>NAN</DistanceMeters>
          </Trackpoint>
          <Trackpoint>
            <Time>2019-10-08T07:51:27.000Z</Time>
            <Position>
              <LatitudeDegrees>40.32173193991184234619140625</LatitudeDegrees>
              <LongitudeDegrees>-5.85566804744303226470947265625</LongitudeDegrees>
            </Position>
            <AltitudeMeters>632.20001220703125</AltitudeMeters>
            <DistanceMeters>NAN</DistanceMeters>
          </Trackpoint>
          <Trackpoint>
            <Time>2019-10-08T07:51:29.000Z</Time>
            <Position>
              <LatitudeDegrees>40.32149858772754669189453125</LatitudeDegrees>
              <LongitudeDegrees>-5.85568648763000965118408203125</LongitudeDegrees>
            </Position>
            <AltitudeMeters>631</AltitudeMeters>
            <DistanceMeters>NAN</DistanceMeters>
          </Trackpoint>
          <Trackpoint>
            <Time>2019-10-08T07:51:31.000Z</Time>
            <Position>
              <LatitudeDegrees>40.32127085141837596893310546875</LatitudeDegrees>
              <LongitudeDegrees>-5.85573812015354633331298828125</LongitudeDegrees>
            </Position>
            <AltitudeMeters>629.4000244140625</AltitudeMeters>
            <DistanceMeters>NAN</DistanceMeters>
          </Trackpoint>
          <Trackpoint>
            <Time>2019-10-08T07:51:35.000Z</Time>
            <Position>
              <LatitudeDegrees>40.32081554643809795379638671875</LatitudeDegrees>
              <LongitudeDegrees>-5.85583216510713100433349609375</LongitudeDegrees>
            </Position>
            <AltitudeMeters>628</AltitudeMeters>
            <DistanceMeters>NAN</DistanceMeters>
          </Trackpoint>
          <Trackpoint>
            <Time>2019-10-08T07:51:37.000Z</Time>
            <Position>
              <LatitudeDegrees>40.32058152370154857635498046875</LatitudeDegrees>
              <LongitudeDegrees>-5.85587256588041782379150390625</LongitudeDegrees>
            </Position>
            <AltitudeMeters>626.20001220703125</AltitudeMeters>
            <DistanceMeters>NAN</DistanceMeters>
          </Trackpoint>
          <Trackpoint>
            <Time>2019-10-08T07:51:39.000Z</Time>
            <Position>
              <LatitudeDegrees>40.32034666277468204498291015625</LatitudeDegrees>
              <LongitudeDegrees>-5.8559261262416839599609375</LongitudeDegrees>
            </Position>
            <AltitudeMeters>625</AltitudeMeters>
            <DistanceMeters>NAN</DistanceMeters>
          </Trackpoint>
          <Trackpoint>
            <Time>2019-10-08T07:51:41.000Z</Time>
            <Position>
              <LatitudeDegrees>40.3201284818351268768310546875</LatitudeDegrees>
              <LongitudeDegrees>-5.85598756559193134307861328125</LongitudeDegrees>
            </Position>
            <AltitudeMeters>623.79998779296875</AltitudeMeters>
            <DistanceMeters>NAN</DistanceMeters>
          </Trackpoint>
          <Trackpoint>
            <Time>2019-10-08T07:51:42.000Z</Time>
            <Position>
              <LatitudeDegrees>40.32003938220441341400146484375</LatitudeDegrees>
              <LongitudeDegrees>-5.85601120255887508392333984375</LongitudeDegrees>
            </Position>
            <AltitudeMeters>624.4000244140625</AltitudeMeters>
            <DistanceMeters>NAN</DistanceMeters>
          </Trackpoint>
          <Trackpoint>
            <Time>2019-10-08T07:51:43.000Z</Time>
            <Position>
              <LatitudeDegrees>40.31995992176234722137451171875</LatitudeDegrees>
              <LongitudeDegrees>-5.85601874627172946929931640625</LongitudeDegrees>
            </Position>
            <AltitudeMeters>624</AltitudeMeters>
            <DistanceMeters>NAN</DistanceMeters>
          </Trackpoint>
          <Trackpoint>
            <Time>2019-10-08T07:51:44.000Z</Time>
            <Position>
              <LatitudeDegrees>40.31989236362278461456298828125</LatitudeDegrees>
              <LongitudeDegrees>-5.8560231886804103851318359375</LongitudeDegrees>
            </Position>
            <AltitudeMeters>625</AltitudeMeters>
            <DistanceMeters>NAN</DistanceMeters>
          </Trackpoint>
          <Trackpoint>
            <Time>2019-10-08T07:51:45.000Z</Time>
            <Position>
              <LatitudeDegrees>40.31983687542378902435302734375</LatitudeDegrees>
              <LongitudeDegrees>-5.856045149266719818115234375</LongitudeDegrees>
            </Position>
            <AltitudeMeters>625.20001220703125</AltitudeMeters>
            <DistanceMeters>NAN</DistanceMeters>
          </Trackpoint>
          <Trackpoint>
            <Time>2019-10-08T07:51:47.000Z</Time>
            <Position>
              <LatitudeDegrees>40.3197999112308025360107421875</LatitudeDegrees>
              <LongitudeDegrees>-5.85614807903766632080078125</LongitudeDegrees>
            </Position>
            <AltitudeMeters>625.4000244140625</AltitudeMeters>
            <DistanceMeters>NAN</DistanceMeters>
          </Trackpoint>
          <Trackpoint>
            <Time>2019-10-08T07:51:49.000Z</Time>
            <Position>
              <LatitudeDegrees>40.3198766894638538360595703125</LatitudeDegrees>
              <LongitudeDegrees>-5.8562109433114528656005859375</LongitudeDegrees>
            </Position>
            <AltitudeMeters>624</AltitudeMeters>
            <DistanceMeters>NAN</DistanceMeters>
          </Trackpoint>
          <Trackpoint>
            <Time>2019-10-08T07:51:52.000Z</Time>
            <Position>
              <LatitudeDegrees>40.32003678381443023681640625</LatitudeDegrees>
              <LongitudeDegrees>-5.856167189776897430419921875</LongitudeDegrees>
            </Position>
            <AltitudeMeters>623.4000244140625</AltitudeMeters>
            <DistanceMeters>NAN</DistanceMeters>
          </Trackpoint>
          <Trackpoint>
            <Time>2019-10-08T07:51:53.000Z</Time>
            <Position>
              <LatitudeDegrees>40.32009067945182323455810546875</LatitudeDegrees>
              <LongitudeDegrees>-5.85616014897823333740234375</LongitudeDegrees>
            </Position>
            <AltitudeMeters>623.20001220703125</AltitudeMeters>
            <DistanceMeters>NAN</DistanceMeters>
          </Trackpoint>
          <Trackpoint>
            <Time>2019-10-08T07:51:54.000Z</Time>
            <Position>
              <LatitudeDegrees>40.32019612379372119903564453125</LatitudeDegrees>
              <LongitudeDegrees>-5.85614162497222423553466796875</LongitudeDegrees>
            </Position>
            <AltitudeMeters>623</AltitudeMeters>
            <DistanceMeters>NAN</DistanceMeters>
          </Trackpoint>
          <Trackpoint>
            <Time>2019-10-08T07:51:56.000Z</Time>
            <Position>
              <LatitudeDegrees>40.3202488459646701812744140625</LatitudeDegrees>
              <LongitudeDegrees>-5.856128968298435211181640625</LongitudeDegrees>
            </Position>
            <AltitudeMeters>622.79998779296875</AltitudeMeters>
            <DistanceMeters>NAN</DistanceMeters>
          </Trackpoint>
          <Trackpoint>
            <Time>2019-10-08T07:51:57.000Z</Time>
            <Position>
              <LatitudeDegrees>40.32030290924012660980224609375</LatitudeDegrees>
              <LongitudeDegrees>-5.8561234362423419952392578125</LongitudeDegrees>
            </Position>
            <AltitudeMeters>622.5999755859375</AltitudeMeters>
            <DistanceMeters>NAN</DistanceMeters>
          </Trackpoint>
          <Trackpoint>
            <Time>2019-10-08T07:52:01.000Z</Time>
            <Position>
              <LatitudeDegrees>40.3205430507659912109375</LatitudeDegrees>
              <LongitudeDegrees>-5.85611916147172451019287109375</LongitudeDegrees>
            </Position>
            <AltitudeMeters>621.79998779296875</AltitudeMeters>
            <DistanceMeters>NAN</DistanceMeters>
          </Trackpoint>
          <Trackpoint>
            <Time>2019-10-08T07:52:05.000Z</Time>
            <Position>
              <LatitudeDegrees>40.32080917619168758392333984375</LatitudeDegrees>
              <LongitudeDegrees>-5.8561318181455135345458984375</LongitudeDegrees>
            </Position>
            <AltitudeMeters>620.5999755859375</AltitudeMeters>
            <DistanceMeters>NAN</DistanceMeters>
          </Trackpoint>
          <Trackpoint>
            <Time>2019-10-08T07:52:08.000Z</Time>
            <Position>
              <LatitudeDegrees>40.32102090306580066680908203125</LatitudeDegrees>
              <LongitudeDegrees>-5.85614405572414398193359375</LongitudeDegrees>
            </Position>
            <AltitudeMeters>620</AltitudeMeters>
            <DistanceMeters>NAN</DistanceMeters>
          </Trackpoint>
          <Trackpoint>
            <Time>2019-10-08T07:52:09.000Z</Time>
            <Position>
              <LatitudeDegrees>40.32109416089951992034912109375</LatitudeDegrees>
              <LongitudeDegrees>-5.85614849813282489776611328125</LongitudeDegrees>
            </Position>
            <AltitudeMeters>619.4000244140625</AltitudeMeters>
            <DistanceMeters>NAN</DistanceMeters>
          </Trackpoint>
          <Trackpoint>
            <Time>2019-10-08T07:52:13.000Z</Time>
            <Position>
              <LatitudeDegrees>40.3214001841843128204345703125</LatitudeDegrees>
              <LongitudeDegrees>-5.856171883642673492431640625</LongitudeDegrees>
            </Position>
            <AltitudeMeters>618.4000244140625</AltitudeMeters>
            <DistanceMeters>NAN</DistanceMeters>
          </Trackpoint>
          <Trackpoint>
            <Time>2019-10-08T07:52:15.000Z</Time>
            <Position>
              <LatitudeDegrees>40.32155700959265232086181640625</LatitudeDegrees>
              <LongitudeDegrees>-5.85618521086871623992919921875</LongitudeDegrees>
            </Position>
            <AltitudeMeters>616.79998779296875</AltitudeMeters>
            <DistanceMeters>NAN</DistanceMeters>
          </Trackpoint>
          <Trackpoint>
            <Time>2019-10-08T07:52:16.000Z</Time>
            <Position>
              <LatitudeDegrees>40.3216372244060039520263671875</LatitudeDegrees>
              <LongitudeDegrees>-5.85619208402931690216064453125</LongitudeDegrees>
            </Position>
            <AltitudeMeters>616.5999755859375</AltitudeMeters>
            <DistanceMeters>NAN</DistanceMeters>
          </Trackpoint>
          <Trackpoint>
            <Time>2019-10-08T07:52:18.000Z</Time>
            <Position>
              <LatitudeDegrees>40.321802683174610137939453125</LatitudeDegrees>
              <LongitudeDegrees>-5.85620566271245479583740234375</LongitudeDegrees>
            </Position>
            <AltitudeMeters>615.5999755859375</AltitudeMeters>
            <DistanceMeters>NAN</DistanceMeters>
          </Trackpoint>
          <Trackpoint>
            <Time>2019-10-08T07:52:21.000Z</Time>
            <Position>
              <LatitudeDegrees>40.32205288298428058624267578125</LatitudeDegrees>
              <LongitudeDegrees>-5.8562216721475124359130859375</LongitudeDegrees>
            </Position>
            <AltitudeMeters>614.4000244140625</AltitudeMeters>
            <DistanceMeters>NAN</DistanceMeters>
          </Trackpoint>
          <Trackpoint>
            <Time>2019-10-08T07:52:24.000Z</Time>
            <Position>
              <LatitudeDegrees>40.32231255434453487396240234375</LatitudeDegrees>
              <LongitudeDegrees>-5.856249332427978515625</LongitudeDegrees>
            </Position>
            <AltitudeMeters>613.20001220703125</AltitudeMeters>
            <DistanceMeters>NAN</DistanceMeters>
          </Trackpoint>
          <Trackpoint>
            <Time>2019-10-08T07:52:28.000Z</Time>
            <Position>
              <LatitudeDegrees>40.322652943432331085205078125</LatitudeDegrees>
              <LongitudeDegrees>-5.85636475123465061187744140625</LongitudeDegrees>
            </Position>
            <AltitudeMeters>612.20001220703125</AltitudeMeters>
            <DistanceMeters>NAN</DistanceMeters>
          </Trackpoint>
          <Trackpoint>
            <Time>2019-10-08T07:52:29.000Z</Time>
            <Position>
              <LatitudeDegrees>40.32273617573082447052001953125</LatitudeDegrees>
              <LongitudeDegrees>-5.85640364326536655426025390625</LongitudeDegrees>
            </Position>
            <AltitudeMeters>612</AltitudeMeters>
            <DistanceMeters>NAN</DistanceMeters>
          </Trackpoint>
          <Trackpoint>
            <Time>2019-10-08T07:52:32.000Z</Time>
            <Position>
              <LatitudeDegrees>40.322968102991580963134765625</LatitudeDegrees>
              <LongitudeDegrees>-5.85655015893280506134033203125</LongitudeDegrees>
            </Position>
            <AltitudeMeters>610.79998779296875</AltitudeMeters>
            <DistanceMeters>NAN</DistanceMeters>
          </Trackpoint>
          <Trackpoint>
            <Time>2019-10-08T07:52:33.000Z</Time>
            <Position>
              <LatitudeDegrees>40.32301965169608592987060546875</LatitudeDegrees>
              <LongitudeDegrees>-5.85663489997386932373046875</LongitudeDegrees>
            </Position>
            <AltitudeMeters>610.79998779296875</AltitudeMeters>
            <DistanceMeters>NAN</DistanceMeters>
          </Trackpoint>
          <Trackpoint>
            <Time>2019-10-08T07:52:35.000Z</Time>
            <Position>
              <LatitudeDegrees>40.32304312102496623992919921875</LatitudeDegrees>
              <LongitudeDegrees>-5.85681485943496227264404296875</LongitudeDegrees>
            </Position>
            <AltitudeMeters>611.20001220703125</AltitudeMeters>
            <DistanceMeters>NAN</DistanceMeters>
          </Trackpoint>
          <Trackpoint>
            <Time>2019-10-08T07:52:37.000Z</Time>
            <Position>
              <LatitudeDegrees>40.3229575417935848236083984375</LatitudeDegrees>
              <LongitudeDegrees>-5.8569532446563243865966796875</LongitudeDegrees>
            </Position>
            <AltitudeMeters>611.4000244140625</AltitudeMeters>
            <DistanceMeters>NAN</DistanceMeters>
          </Trackpoint>
          <Trackpoint>
            <Time>2019-10-08T07:52:40.000Z</Time>
            <Position>
              <LatitudeDegrees>40.32273651100695133209228515625</LatitudeDegrees>
              <LongitudeDegrees>-5.85701175034046173095703125</LongitudeDegrees>
            </Position>
            <AltitudeMeters>609.5999755859375</AltitudeMeters>
            <DistanceMeters>NAN</DistanceMeters>
          </Trackpoint>
          <Trackpoint>
            <Time>2019-10-08T07:52:42.000Z</Time>
            <Position>
              <LatitudeDegrees>40.3225719742476940155029296875</LatitudeDegrees>
              <LongitudeDegrees>-5.85703899152576923370361328125</LongitudeDegrees>
            </Position>
            <AltitudeMeters>608</AltitudeMeters>
            <DistanceMeters>NAN</DistanceMeters>
          </Trackpoint>
          <Trackpoint>
            <Time>2019-10-08T07:52:44.000Z</Time>
            <Position>
              <LatitudeDegrees>40.322401821613311767578125</LatitudeDegrees>
              <LongitudeDegrees>-5.85706413723528385162353515625</LongitudeDegrees>
            </Position>
            <AltitudeMeters>606.4000244140625</AltitudeMeters>
            <DistanceMeters>NAN</DistanceMeters>
          </Trackpoint>
          <Trackpoint>
            <Time>2019-10-08T07:52:46.000Z</Time>
            <Position>
              <LatitudeDegrees>40.32222353853285312652587890625</LatitudeDegrees>
              <LongitudeDegrees>-5.85708685219287872314453125</LongitudeDegrees>
            </Position>
            <AltitudeMeters>605.4000244140625</AltitudeMeters>
            <DistanceMeters>NAN</DistanceMeters>
          </Trackpoint>
          <Trackpoint>
            <Time>2019-10-08T07:52:47.000Z</Time>
            <Position>
              <LatitudeDegrees>40.322132594883441925048828125</LatitudeDegrees>
              <LongitudeDegrees>-5.85709758102893829345703125</LongitudeDegrees>
            </Position>
            <AltitudeMeters>605</AltitudeMeters>
            <DistanceMeters>NAN</DistanceMeters>
          </Trackpoint>
          <Trackpoint>
            <Time>2019-10-08T07:52:50.000Z</Time>
            <Position>
              <LatitudeDegrees>40.32184635289013385772705078125</LatitudeDegrees>
              <LongitudeDegrees>-5.857121385633945465087890625</LongitudeDegrees>
            </Position>
            <AltitudeMeters>603.5999755859375</AltitudeMeters>
            <DistanceMeters>NAN</DistanceMeters>
          </Trackpoint>
          <Trackpoint>
            <Time>2019-10-08T07:52:52.000Z</Time>
            <Position>
              <LatitudeDegrees>40.32164317555725574493408203125</LatitudeDegrees>
              <LongitudeDegrees>-5.85714183747768402099609375</LongitudeDegrees>
            </Position>
            <AltitudeMeters>602.5999755859375</AltitudeMeters>
            <DistanceMeters>NAN</DistanceMeters>
          </Trackpoint>
          <Trackpoint>
            <Time>2019-10-08T07:52:53.000Z</Time>
            <Position>
              <LatitudeDegrees>40.32154242508113384246826171875</LatitudeDegrees>
              <LongitudeDegrees>-5.85715449415147304534912109375</LongitudeDegrees>
            </Position>
            <AltitudeMeters>601.79998779296875</AltitudeMeters>
            <DistanceMeters>NAN</DistanceMeters>
          </Trackpoint>
          <Trackpoint>
            <Time>2019-10-08T07:52:55.000Z</Time>
            <Position>
              <LatitudeDegrees>40.32135316170752048492431640625</LatitudeDegrees>
              <LongitudeDegrees>-5.85718316026031970977783203125</LongitudeDegrees>
            </Position>
            <AltitudeMeters>600.5999755859375</AltitudeMeters>
            <DistanceMeters>NAN</DistanceMeters>
          </Trackpoint>
          <Trackpoint>
            <Time>2019-10-08T07:52:57.000Z</Time>
            <Position>
              <LatitudeDegrees>40.321190468966960906982421875</LatitudeDegrees>
              <LongitudeDegrees>-5.8572028577327728271484375</LongitudeDegrees>
            </Position>
            <AltitudeMeters>600.5999755859375</AltitudeMeters>
            <DistanceMeters>NAN</DistanceMeters>
          </Trackpoint>
          <Trackpoint>
            <Time>2019-10-08T07:53:02.000Z</Time>
            <Position>
              <LatitudeDegrees>40.32083616591989994049072265625</LatitudeDegrees>
              <LongitudeDegrees>-5.857290364801883697509765625</LongitudeDegrees>
            </Position>
            <AltitudeMeters>599.5999755859375</AltitudeMeters>
            <DistanceMeters>NAN</DistanceMeters>
          </Trackpoint>
          <Trackpoint>
            <Time>2019-10-08T07:53:04.000Z</Time>
            <Position>
              <LatitudeDegrees>40.320687554776668548583984375</LatitudeDegrees>
              <LongitudeDegrees>-5.85733688436448574066162109375</LongitudeDegrees>
            </Position>
            <AltitudeMeters>598.5999755859375</AltitudeMeters>
            <DistanceMeters>NAN</DistanceMeters>
          </Trackpoint>
          <Trackpoint>
            <Time>2019-10-08T07:53:06.000Z</Time>
            <Position>
              <LatitudeDegrees>40.32053726725280284881591796875</LatitudeDegrees>
              <LongitudeDegrees>-5.85739002563059329986572265625</LongitudeDegrees>
            </Position>
            <AltitudeMeters>597.79998779296875</AltitudeMeters>
            <DistanceMeters>NAN</DistanceMeters>
          </Trackpoint>
          <Trackpoint>
            <Time>2019-10-08T07:53:07.000Z</Time>
            <Position>
              <LatitudeDegrees>40.320461578667163848876953125</LatitudeDegrees>
              <LongitudeDegrees>-5.8574182726442813873291015625</LongitudeDegrees>
            </Position>
            <AltitudeMeters>597.4000244140625</AltitudeMeters>
            <DistanceMeters>NAN</DistanceMeters>
          </Trackpoint>
          <Trackpoint>
            <Time>2019-10-08T07:53:10.000Z</Time>
            <Position>
              <LatitudeDegrees>40.32023870386183261871337890625</LatitudeDegrees>
              <LongitudeDegrees>-5.8575061149895191192626953125</LongitudeDegrees>
            </Position>
            <AltitudeMeters>597.20001220703125</AltitudeMeters>
            <DistanceMeters>NAN</DistanceMeters>
          </Trackpoint>
          <Trackpoint>
            <Time>2019-10-08T07:53:11.000Z</Time>
            <Position>
              <LatitudeDegrees>40.32016293145716190338134765625</LatitudeDegrees>
              <LongitudeDegrees>-5.8575269021093845367431640625</LongitudeDegrees>
            </Position>
            <AltitudeMeters>597.20001220703125</AltitudeMeters>
            <DistanceMeters>NAN</DistanceMeters>
          </Trackpoint>
          <Trackpoint>
            <Time>2019-10-08T07:53:12.000Z</Time>
            <Position>
              <LatitudeDegrees>40.3200865723192691802978515625</LatitudeDegrees>
              <LongitudeDegrees>-5.8575523830950260162353515625</LongitudeDegrees>
            </Position>
            <AltitudeMeters>596.79998779296875</AltitudeMeters>
            <DistanceMeters>NAN</DistanceMeters>
          </Trackpoint>
          <Trackpoint>
            <Time>2019-10-08T07:53:13.000Z</Time>
            <Position>
              <LatitudeDegrees>40.320012979209423065185546875</LatitudeDegrees>
              <LongitudeDegrees>-5.85758515633642673492431640625</LongitudeDegrees>
            </Position>
            <AltitudeMeters>596.20001220703125</AltitudeMeters>
            <DistanceMeters>NAN</DistanceMeters>
          </Trackpoint>
          <Trackpoint>
            <Time>2019-10-08T07:53:15.000Z</Time>
            <Position>
              <LatitudeDegrees>40.31986646354198455810546875</LatitudeDegrees>
              <LongitudeDegrees>-5.85765673778951168060302734375</LongitudeDegrees>
            </Position>
            <AltitudeMeters>595.79998779296875</AltitudeMeters>
            <DistanceMeters>NAN</DistanceMeters>
          </Trackpoint>
          <Trackpoint>
            <Time>2019-10-08T07:53:17.000Z</Time>
            <Position>
              <LatitudeDegrees>40.31971584074199199676513671875</LatitudeDegrees>
              <LongitudeDegrees>-5.85772697813808917999267578125</LongitudeDegrees>
            </Position>
            <AltitudeMeters>595.4000244140625</AltitudeMeters>
            <DistanceMeters>NAN</DistanceMeters>
          </Trackpoint>
          <Trackpoint>
            <Time>2019-10-08T07:53:19.000Z</Time>
            <Position>
              <LatitudeDegrees>40.31957267783582210540771484375</LatitudeDegrees>
              <LongitudeDegrees>-5.85782219655811786651611328125</LongitudeDegrees>
            </Position>
            <AltitudeMeters>594.79998779296875</AltitudeMeters>
            <DistanceMeters>NAN</DistanceMeters>
          </Trackpoint>
          <Trackpoint>
            <Time>2019-10-08T07:53:20.000Z</Time>
            <Position>
              <LatitudeDegrees>40.31950495205819606781005859375</LatitudeDegrees>
              <LongitudeDegrees>-5.85787869058549404144287109375</LongitudeDegrees>
            </Position>
            <AltitudeMeters>594.20001220703125</AltitudeMeters>
            <DistanceMeters>NAN</DistanceMeters>
          </Trackpoint>
          <Trackpoint>
            <Time>2019-10-08T07:53:22.000Z</Time>
            <Position>
              <LatitudeDegrees>40.31937293708324432373046875</LatitudeDegrees>
              <LongitudeDegrees>-5.85799268446862697601318359375</LongitudeDegrees>
            </Position>
            <AltitudeMeters>594</AltitudeMeters>
            <DistanceMeters>NAN</DistanceMeters>
          </Trackpoint>
          <Trackpoint>
            <Time>2019-10-08T07:53:23.000Z</Time>
            <Position>
              <LatitudeDegrees>40.31930697150528430938720703125</LatitudeDegrees>
              <LongitudeDegrees>-5.85805001668632030487060546875</LongitudeDegrees>
            </Position>
            <AltitudeMeters>594</AltitudeMeters>
            <DistanceMeters>NAN</DistanceMeters>
          </Trackpoint>
          <Trackpoint>
            <Time>2019-10-08T07:53:24.000Z</Time>
            <Position>
              <LatitudeDegrees>40.319240503013134002685546875</LatitudeDegrees>
              <LongitudeDegrees>-5.85810852237045764923095703125</LongitudeDegrees>
            </Position>
            <AltitudeMeters>593.4000244140625</AltitudeMeters>
            <DistanceMeters>NAN</DistanceMeters>
          </Trackpoint>
          <Trackpoint>
            <Time>2019-10-08T07:53:28.000Z</Time>
            <Position>
              <LatitudeDegrees>40.31896834261715412139892578125</LatitudeDegrees>
              <LongitudeDegrees>-5.858352519571781158447265625</LongitudeDegrees>
            </Position>
            <AltitudeMeters>592.20001220703125</AltitudeMeters>
            <DistanceMeters>NAN</DistanceMeters>
          </Trackpoint>
          <Trackpoint>
            <Time>2019-10-08T07:53:29.000Z</Time>
            <Position>
              <LatitudeDegrees>40.318898521363735198974609375</LatitudeDegrees>
              <LongitudeDegrees>-5.85841395892202854156494140625</LongitudeDegrees>
            </Position>
            <AltitudeMeters>592</AltitudeMeters>
            <DistanceMeters>NAN</DistanceMeters>
          </Trackpoint>
          <Trackpoint>
            <Time>2019-10-08T07:53:34.000Z</Time>
            <Position>
              <LatitudeDegrees>40.31854103319346904754638671875</LatitudeDegrees>
              <LongitudeDegrees>-5.85871067829430103302001953125</LongitudeDegrees>
            </Position>
            <AltitudeMeters>591</AltitudeMeters>
            <DistanceMeters>NAN</DistanceMeters>
          </Trackpoint>
          <Trackpoint>
            <Time>2019-10-08T07:53:36.000Z</Time>
            <Position>
              <LatitudeDegrees>40.318394601345062255859375</LatitudeDegrees>
              <LongitudeDegrees>-5.85881796665489673614501953125</LongitudeDegrees>
            </Position>
            <AltitudeMeters>590.4000244140625</AltitudeMeters>
            <DistanceMeters>NAN</DistanceMeters>
          </Trackpoint>
          <Trackpoint>
            <Time>2019-10-08T07:53:37.000Z</Time>
            <Position>
              <LatitudeDegrees>40.31831681728363037109375</LatitudeDegrees>
              <LongitudeDegrees>-5.85886524058878421783447265625</LongitudeDegrees>
            </Position>
            <AltitudeMeters>590.20001220703125</AltitudeMeters>
            <DistanceMeters>NAN</DistanceMeters>
          </Trackpoint>
          <Trackpoint>
            <Time>2019-10-08T07:53:38.000Z</Time>
            <Position>
              <LatitudeDegrees>40.3182378597557544708251953125</LatitudeDegrees>
              <LongitudeDegrees>-5.8589119277894496917724609375</LongitudeDegrees>
            </Position>
            <AltitudeMeters>589.79998779296875</AltitudeMeters>
            <DistanceMeters>NAN</DistanceMeters>
          </Trackpoint>
          <Trackpoint>
            <Time>2019-10-08T07:53:42.000Z</Time>
            <Position>
              <LatitudeDegrees>40.31791917979717254638671875</LatitudeDegrees>
              <LongitudeDegrees>-5.8590735308825969696044921875</LongitudeDegrees>
            </Position>
            <AltitudeMeters>589.4000244140625</AltitudeMeters>
            <DistanceMeters>NAN</DistanceMeters>
          </Trackpoint>
          <Trackpoint>
            <Time>2019-10-08T07:53:43.000Z</Time>
            <Position>
              <LatitudeDegrees>40.3178388811647891998291015625</LatitudeDegrees>
              <LongitudeDegrees>-5.85910965688526630401611328125</LongitudeDegrees>
            </Position>
            <AltitudeMeters>589.5999755859375</AltitudeMeters>
            <DistanceMeters>NAN</DistanceMeters>
          </Trackpoint>
          <Trackpoint>
            <Time>2019-10-08T07:53:48.000Z</Time>
            <Position>
              <LatitudeDegrees>40.31744803301990032196044921875</LatitudeDegrees>
              <LongitudeDegrees>-5.85929623804986476898193359375</LongitudeDegrees>
            </Position>
            <AltitudeMeters>588.79998779296875</AltitudeMeters>
            <DistanceMeters>NAN</DistanceMeters>
          </Trackpoint>
          <Trackpoint>
            <Time>2019-10-08T07:53:49.000Z</Time>
            <Position>
              <LatitudeDegrees>40.31736806966364383697509765625</LatitudeDegrees>
              <LongitudeDegrees>-5.85933445952832698822021484375</LongitudeDegrees>
            </Position>
            <AltitudeMeters>588.79998779296875</AltitudeMeters>
            <DistanceMeters>NAN</DistanceMeters>
          </Trackpoint>
          <Trackpoint>
            <Time>2019-10-08T07:53:50.000Z</Time>
            <Position>
              <LatitudeDegrees>40.31728894449770450592041015625</LatitudeDegrees>
              <LongitudeDegrees>-5.85937201045453548431396484375</LongitudeDegrees>
            </Position>
            <AltitudeMeters>588.5999755859375</AltitudeMeters>
            <DistanceMeters>NAN</DistanceMeters>
          </Trackpoint>
          <Trackpoint>
            <Time>2019-10-08T07:53:52.000Z</Time>
            <Position>
              <LatitudeDegrees>40.3171284310519695281982421875</LatitudeDegrees>
              <LongitudeDegrees>-5.8594416640698909759521484375</LongitudeDegrees>
            </Position>
            <AltitudeMeters>587.5999755859375</AltitudeMeters>
            <DistanceMeters>NAN</DistanceMeters>
          </Trackpoint>
          <Trackpoint>
            <Time>2019-10-08T07:53:56.000Z</Time>
            <Position>
              <LatitudeDegrees>40.3168092481791973114013671875</LatitudeDegrees>
              <LongitudeDegrees>-5.8595888502895832061767578125</LongitudeDegrees>
            </Position>
            <AltitudeMeters>587</AltitudeMeters>
            <DistanceMeters>NAN</DistanceMeters>
          </Trackpoint>
          <Trackpoint>
            <Time>2019-10-08T07:53:59.000Z</Time>
            <Position>
              <LatitudeDegrees>40.31656575389206409454345703125</LatitudeDegrees>
              <LongitudeDegrees>-5.85970225743949413299560546875</LongitudeDegrees>
            </Position>
            <AltitudeMeters>586.5999755859375</AltitudeMeters>
            <DistanceMeters>NAN</DistanceMeters>
          </Trackpoint>
          <Trackpoint>
            <Time>2019-10-08T07:54:02.000Z</Time>
            <Position>
              <LatitudeDegrees>40.31631798483431339263916015625</LatitudeDegrees>
              <LongitudeDegrees>-5.85981692187488079071044921875</LongitudeDegrees>
            </Position>
            <AltitudeMeters>585.5999755859375</AltitudeMeters>
            <DistanceMeters>NAN</DistanceMeters>
          </Trackpoint>
          <Trackpoint>
            <Time>2019-10-08T07:54:04.000Z</Time>
            <Position>
              <LatitudeDegrees>40.3161484189331531524658203125</LatitudeDegrees>
              <LongitudeDegrees>-5.8598926104605197906494140625</LongitudeDegrees>
            </Position>
            <AltitudeMeters>584.79998779296875</AltitudeMeters>
            <DistanceMeters>NAN</DistanceMeters>
          </Trackpoint>
          <Trackpoint>
            <Time>2019-10-08T07:54:07.000Z</Time>
            <Position>
              <LatitudeDegrees>40.31589084304869174957275390625</LatitudeDegrees>
              <LongitudeDegrees>-5.85998632013797760009765625</LongitudeDegrees>
            </Position>
            <AltitudeMeters>584</AltitudeMeters>
            <DistanceMeters>NAN</DistanceMeters>
          </Trackpoint>
          <Trackpoint>
            <Time>2019-10-08T07:54:10.000Z</Time>
            <Position>
              <LatitudeDegrees>40.31562815420329570770263671875</LatitudeDegrees>
              <LongitudeDegrees>-5.86008899845182895660400390625</LongitudeDegrees>
            </Position>
            <AltitudeMeters>583.4000244140625</AltitudeMeters>
            <DistanceMeters>NAN</DistanceMeters>
          </Trackpoint>
          <Trackpoint>
            <Time>2019-10-08T07:54:11.000Z</Time>
            <Position>
              <LatitudeDegrees>40.31553997658193111419677734375</LatitudeDegrees>
              <LongitudeDegrees>-5.8601249568164348602294921875</LongitudeDegrees>
            </Position>
            <AltitudeMeters>583</AltitudeMeters>
            <DistanceMeters>NAN</DistanceMeters>
          </Trackpoint>
          <Trackpoint>
            <Time>2019-10-08T07:54:14.000Z</Time>
            <Position>
              <LatitudeDegrees>40.3152711689472198486328125</LatitudeDegrees>
              <LongitudeDegrees>-5.8602298982441425323486328125</LongitudeDegrees>
            </Position>
            <AltitudeMeters>581.5999755859375</AltitudeMeters>
            <DistanceMeters>NAN</DistanceMeters>
          </Trackpoint>
          <Trackpoint>
            <Time>2019-10-08T07:54:15.000Z</Time>
            <Position>
              <LatitudeDegrees>40.3151814825832843780517578125</LatitudeDegrees>
              <LongitudeDegrees>-5.860266275703907012939453125</LongitudeDegrees>
            </Position>
            <AltitudeMeters>581.20001220703125</AltitudeMeters>
            <DistanceMeters>NAN</DistanceMeters>
          </Trackpoint>
          <Trackpoint>
            <Time>2019-10-08T07:54:17.000Z</Time>
            <Position>
              <LatitudeDegrees>40.31500319950282573699951171875</LatitudeDegrees>
              <LongitudeDegrees>-5.86034397594630718231201171875</LongitudeDegrees>
            </Position>
            <AltitudeMeters>581.20001220703125</AltitudeMeters>
            <DistanceMeters>NAN</DistanceMeters>
          </Trackpoint>
          <Trackpoint>
            <Time>2019-10-08T07:54:18.000Z</Time>
            <Position>
              <LatitudeDegrees>40.31491669826209545135498046875</LatitudeDegrees>
              <LongitudeDegrees>-5.8603894896805286407470703125</LongitudeDegrees>
            </Position>
            <AltitudeMeters>580.20001220703125</AltitudeMeters>
            <DistanceMeters>NAN</DistanceMeters>
          </Trackpoint>
          <Trackpoint>
            <Time>2019-10-08T07:54:20.000Z</Time>
            <Position>
              <LatitudeDegrees>40.3147462941706180572509765625</LatitudeDegrees>
              <LongitudeDegrees>-5.86049367673695087432861328125</LongitudeDegrees>
            </Position>
            <AltitudeMeters>579.79998779296875</AltitudeMeters>
            <DistanceMeters>NAN</DistanceMeters>
          </Trackpoint>
          <Trackpoint>
            <Time>2019-10-08T07:54:22.000Z</Time>
            <Position>
              <LatitudeDegrees>40.3145796619355678558349609375</LatitudeDegrees>
              <LongitudeDegrees>-5.8606060780584812164306640625</LongitudeDegrees>
            </Position>
            <AltitudeMeters>579.4000244140625</AltitudeMeters>
            <DistanceMeters>NAN</DistanceMeters>
          </Trackpoint>
          <Trackpoint>
            <Time>2019-10-08T07:54:27.000Z</Time>
            <Position>
              <LatitudeDegrees>40.314196608960628509521484375</LatitudeDegrees>
              <LongitudeDegrees>-5.86092735640704631805419921875</LongitudeDegrees>
            </Position>
            <AltitudeMeters>579.79998779296875</AltitudeMeters>
            <DistanceMeters>NAN</DistanceMeters>
          </Trackpoint>
          <Trackpoint>
            <Time>2019-10-08T07:54:28.000Z</Time>
            <Position>
              <LatitudeDegrees>40.31412385404109954833984375</LatitudeDegrees>
              <LongitudeDegrees>-5.8609882928431034088134765625</LongitudeDegrees>
            </Position>
            <AltitudeMeters>579.5999755859375</AltitudeMeters>
            <DistanceMeters>NAN</DistanceMeters>
          </Trackpoint>
          <Trackpoint>
            <Time>2019-10-08T07:54:31.000Z</Time>
            <Position>
              <LatitudeDegrees>40.3139091096818447113037109375</LatitudeDegrees>
              <LongitudeDegrees>-5.8611723594367504119873046875</LongitudeDegrees>
            </Position>
            <AltitudeMeters>579.4000244140625</AltitudeMeters>
            <DistanceMeters>NAN</DistanceMeters>
          </Trackpoint>
          <Trackpoint>
            <Time>2019-10-08T07:54:34.000Z</Time>
            <Position>
              <LatitudeDegrees>40.31371976248919963836669921875</LatitudeDegrees>
              <LongitudeDegrees>-5.861384756863117218017578125</LongitudeDegrees>
            </Position>
            <AltitudeMeters>579</AltitudeMeters>
            <DistanceMeters>NAN</DistanceMeters>
          </Trackpoint>
          <Trackpoint>
            <Time>2019-10-08T07:54:35.000Z</Time>
            <Position>
              <LatitudeDegrees>40.31366829760372638702392578125</LatitudeDegrees>
              <LongitudeDegrees>-5.86146555840969085693359375</LongitudeDegrees>
            </Position>
            <AltitudeMeters>579.20001220703125</AltitudeMeters>
            <DistanceMeters>NAN</DistanceMeters>
          </Trackpoint>
          <Trackpoint>
            <Time>2019-10-08T07:54:40.000Z</Time>
            <Position>
              <LatitudeDegrees>40.31344768591225147247314453125</LatitudeDegrees>
              <LongitudeDegrees>-5.86188976652920246124267578125</LongitudeDegrees>
            </Position>
            <AltitudeMeters>579.20001220703125</AltitudeMeters>
            <DistanceMeters>NAN</DistanceMeters>
          </Trackpoint>
          <Trackpoint>
            <Time>2019-10-08T07:54:46.000Z</Time>
            <Position>
              <LatitudeDegrees>40.31319756992161273956298828125</LatitudeDegrees>
              <LongitudeDegrees>-5.86234590969979763031005859375</LongitudeDegrees>
            </Position>
            <AltitudeMeters>580</AltitudeMeters>
            <DistanceMeters>NAN</DistanceMeters>
          </Trackpoint>
          <Trackpoint>
            <Time>2019-10-08T07:54:47.000Z</Time>
            <Position>
              <LatitudeDegrees>40.31314275227487087249755859375</LatitudeDegrees>
              <LongitudeDegrees>-5.86240089498460292816162109375</LongitudeDegrees>
            </Position>
            <AltitudeMeters>580.20001220703125</AltitudeMeters>
            <DistanceMeters>NAN</DistanceMeters>
          </Trackpoint>
          <Trackpoint>
            <Time>2019-10-08T07:54:50.000Z</Time>
            <Position>
              <LatitudeDegrees>40.31294795684516429901123046875</LatitudeDegrees>
              <LongitudeDegrees>-5.86253500543534755706787109375</LongitudeDegrees>
            </Position>
            <AltitudeMeters>579.4000244140625</AltitudeMeters>
            <DistanceMeters>NAN</DistanceMeters>
          </Trackpoint>
          <Trackpoint>
            <Time>2019-10-08T07:54:51.000Z</Time>
            <Position>
              <LatitudeDegrees>40.3128767944872379302978515625</LatitudeDegrees>
              <LongitudeDegrees>-5.86257825605571269989013671875</LongitudeDegrees>
            </Position>
            <AltitudeMeters>578.79998779296875</AltitudeMeters>
            <DistanceMeters>NAN</DistanceMeters>
          </Trackpoint>
          <Trackpoint>
            <Time>2019-10-08T07:54:53.000Z</Time>
            <Position>
              <LatitudeDegrees>40.312722735106945037841796875</LatitudeDegrees>
              <LongitudeDegrees>-5.862659476697444915771484375</LongitudeDegrees>
            </Position>
            <AltitudeMeters>577.4000244140625</AltitudeMeters>
            <DistanceMeters>NAN</DistanceMeters>
          </Trackpoint>
          <Trackpoint>
            <Time>2019-10-08T07:54:55.000Z</Time>
            <Position>
              <LatitudeDegrees>40.31256272457540035247802734375</LatitudeDegrees>
              <LongitudeDegrees>-5.86274555884301662445068359375</LongitudeDegrees>
            </Position>
            <AltitudeMeters>576.79998779296875</AltitudeMeters>
            <DistanceMeters>NAN</DistanceMeters>
          </Trackpoint>
          <Trackpoint>
            <Time>2019-10-08T07:54:56.000Z</Time>
            <Position>
              <LatitudeDegrees>40.312477648258209228515625</LatitudeDegrees>
              <LongitudeDegrees>-5.86278931237757205963134765625</LongitudeDegrees>
            </Position>
            <AltitudeMeters>576.20001220703125</AltitudeMeters>
            <DistanceMeters>NAN</DistanceMeters>
          </Trackpoint>
          <Trackpoint>
            <Time>2019-10-08T07:54:58.000Z</Time>
            <Position>
              <LatitudeDegrees>40.31222091056406497955322265625</LatitudeDegrees>
              <LongitudeDegrees>-5.8629127778112888336181640625</LongitudeDegrees>
            </Position>
            <AltitudeMeters>574.79998779296875</AltitudeMeters>
            <DistanceMeters>NAN</DistanceMeters>
          </Trackpoint>
          <Trackpoint>
            <Time>2019-10-08T07:55:00.000Z</Time>
            <Position>
              <LatitudeDegrees>40.31211798079311847686767578125</LatitudeDegrees>
              <LongitudeDegrees>-5.86295946501195430755615234375</LongitudeDegrees>
            </Position>
            <AltitudeMeters>573.4000244140625</AltitudeMeters>
            <DistanceMeters>NAN</DistanceMeters>
          </Trackpoint>
          <Trackpoint>
            <Time>2019-10-08T07:55:02.000Z</Time>
            <Position>
              <LatitudeDegrees>40.311928801238536834716796875</LatitudeDegrees>
              <LongitudeDegrees>-5.86303942836821079254150390625</LongitudeDegrees>
            </Position>
            <AltitudeMeters>573.20001220703125</AltitudeMeters>
            <DistanceMeters>NAN</DistanceMeters>
          </Trackpoint>
          <Trackpoint>
            <Time>2019-10-08T07:55:03.000Z</Time>
            <Position>
              <LatitudeDegrees>40.31183131970465183258056640625</LatitudeDegrees>
              <LongitudeDegrees>-5.863079242408275604248046875</LongitudeDegrees>
            </Position>
            <AltitudeMeters>572</AltitudeMeters>
            <DistanceMeters>NAN</DistanceMeters>
          </Trackpoint>
          <Trackpoint>
            <Time>2019-10-08T07:55:06.000Z</Time>
            <Position>
              <LatitudeDegrees>40.31153284013271331787109375</LatitudeDegrees>
              <LongitudeDegrees>-5.86319298483431339263916015625</LongitudeDegrees>
            </Position>
            <AltitudeMeters>570.5999755859375</AltitudeMeters>
            <DistanceMeters>NAN</DistanceMeters>
          </Trackpoint>
          <Trackpoint>
            <Time>2019-10-08T07:55:08.000Z</Time>
            <Position>
              <LatitudeDegrees>40.3113288246095180511474609375</LatitudeDegrees>
              <LongitudeDegrees>-5.8632618002593517303466796875</LongitudeDegrees>
            </Position>
            <AltitudeMeters>568.79998779296875</AltitudeMeters>
            <DistanceMeters>NAN</DistanceMeters>
          </Trackpoint>
          <Trackpoint>
            <Time>2019-10-08T07:55:09.000Z</Time>
            <Position>
              <LatitudeDegrees>40.311226733028888702392578125</LatitudeDegrees>
              <LongitudeDegrees>-5.8632970042526721954345703125</LongitudeDegrees>
            </Position>
            <AltitudeMeters>568.5999755859375</AltitudeMeters>
            <DistanceMeters>NAN</DistanceMeters>
          </Trackpoint>
          <Trackpoint>
            <Time>2019-10-08T07:55:11.000Z</Time>
            <Position>
              <LatitudeDegrees>40.3110227175056934356689453125</LatitudeDegrees>
              <LongitudeDegrees>-5.86336992681026458740234375</LongitudeDegrees>
            </Position>
            <AltitudeMeters>567.4000244140625</AltitudeMeters>
            <DistanceMeters>NAN</DistanceMeters>
          </Trackpoint>
          <Trackpoint>
            <Time>2019-10-08T07:55:14.000Z</Time>
            <Position>
              <LatitudeDegrees>40.310706384479999542236328125</LatitudeDegrees>
              <LongitudeDegrees>-5.863476209342479705810546875</LongitudeDegrees>
            </Position>
            <AltitudeMeters>565.79998779296875</AltitudeMeters>
            <DistanceMeters>NAN</DistanceMeters>
          </Trackpoint>
          <Trackpoint>
            <Time>2019-10-08T07:55:16.000Z</Time>
            <Position>
              <LatitudeDegrees>40.31049256213009357452392578125</LatitudeDegrees>
              <LongitudeDegrees>-5.863558687269687652587890625</LongitudeDegrees>
            </Position>
            <AltitudeMeters>564.4000244140625</AltitudeMeters>
            <DistanceMeters>NAN</DistanceMeters>
          </Trackpoint>
          <Trackpoint>
            <Time>2019-10-08T07:55:17.000Z</Time>
            <Position>
              <LatitudeDegrees>40.31039080582559108734130859375</LatitudeDegrees>
              <LongitudeDegrees>-5.86361811496317386627197265625</LongitudeDegrees>
            </Position>
            <AltitudeMeters>564</AltitudeMeters>
            <DistanceMeters>NAN</DistanceMeters>
          </Trackpoint>
          <Trackpoint>
            <Time>2019-10-08T07:55:19.000Z</Time>
            <Position>
              <LatitudeDegrees>40.31019969843327999114990234375</LatitudeDegrees>
              <LongitudeDegrees>-5.86377234198153018951416015625</LongitudeDegrees>
            </Position>
            <AltitudeMeters>562.5999755859375</AltitudeMeters>
            <DistanceMeters>NAN</DistanceMeters>
          </Trackpoint>
          <Trackpoint>
            <Time>2019-10-08T07:55:22.000Z</Time>
            <Position>
              <LatitudeDegrees>40.30993918888270854949951171875</LatitudeDegrees>
              <LongitudeDegrees>-5.86404391564428806304931640625</LongitudeDegrees>
            </Position>
            <AltitudeMeters>561.5999755859375</AltitudeMeters>
            <DistanceMeters>NAN</DistanceMeters>
          </Trackpoint>
          <Trackpoint>
            <Time>2019-10-08T07:55:25.000Z</Time>
            <Position>
              <LatitudeDegrees>40.30967549420893192291259765625</LatitudeDegrees>
              <LongitudeDegrees>-5.86430375464260578155517578125</LongitudeDegrees>
            </Position>
            <AltitudeMeters>560.5999755859375</AltitudeMeters>
            <DistanceMeters>NAN</DistanceMeters>
          </Trackpoint>
          <Trackpoint>
            <Time>2019-10-08T07:55:27.000Z</Time>
            <Position>
              <LatitudeDegrees>40.30949436128139495849609375</LatitudeDegrees>
              <LongitudeDegrees>-5.86447189562022686004638671875</LongitudeDegrees>
            </Position>
            <AltitudeMeters>559.4000244140625</AltitudeMeters>
            <DistanceMeters>NAN</DistanceMeters>
          </Trackpoint>
          <Trackpoint>
            <Time>2019-10-08T07:55:30.000Z</Time>
            <Position>
              <LatitudeDegrees>40.3092135675251483917236328125</LatitudeDegrees>
              <LongitudeDegrees>-5.86470809765160083770751953125</LongitudeDegrees>
            </Position>
            <AltitudeMeters>558</AltitudeMeters>
            <DistanceMeters>NAN</DistanceMeters>
          </Trackpoint>
          <Trackpoint>
            <Time>2019-10-08T07:55:31.000Z</Time>
            <Position>
              <LatitudeDegrees>40.3091180138289928436279296875</LatitudeDegrees>
              <LongitudeDegrees>-5.86478588171303272247314453125</LongitudeDegrees>
            </Position>
            <AltitudeMeters>557</AltitudeMeters>
            <DistanceMeters>NAN</DistanceMeters>
          </Trackpoint>
          <Trackpoint>
            <Time>2019-10-08T07:55:32.000Z</Time>
            <Position>
              <LatitudeDegrees>40.309021957218647003173828125</LatitudeDegrees>
              <LongitudeDegrees>-5.8648607321083545684814453125</LongitudeDegrees>
            </Position>
            <AltitudeMeters>556.5999755859375</AltitudeMeters>
            <DistanceMeters>NAN</DistanceMeters>
          </Trackpoint>
          <Trackpoint>
            <Time>2019-10-08T07:55:34.000Z</Time>
            <Position>
              <LatitudeDegrees>40.30882908962666988372802734375</LatitudeDegrees>
              <LongitudeDegrees>-5.86500951088964939117431640625</LongitudeDegrees>
            </Position>
            <AltitudeMeters>555.5999755859375</AltitudeMeters>
            <DistanceMeters>NAN</DistanceMeters>
          </Trackpoint>
          <Trackpoint>
            <Time>2019-10-08T07:55:37.000Z</Time>
            <Position>
              <LatitudeDegrees>40.308555252850055694580078125</LatitudeDegrees>
              <LongitudeDegrees>-5.865244455635547637939453125</LongitudeDegrees>
            </Position>
            <AltitudeMeters>554.5999755859375</AltitudeMeters>
            <DistanceMeters>NAN</DistanceMeters>
          </Trackpoint>
          <Trackpoint>
            <Time>2019-10-08T07:55:38.000Z</Time>
            <Position>
              <LatitudeDegrees>40.3084712661802768707275390625</LatitudeDegrees>
              <LongitudeDegrees>-5.86533037014305591583251953125</LongitudeDegrees>
            </Position>
            <AltitudeMeters>554</AltitudeMeters>
            <DistanceMeters>NAN</DistanceMeters>
          </Trackpoint>
          <Trackpoint>
            <Time>2019-10-08T07:55:39.000Z</Time>
            <Position>
              <LatitudeDegrees>40.308396331965923309326171875</LatitudeDegrees>
              <LongitudeDegrees>-5.8654238283634185791015625</LongitudeDegrees>
            </Position>
            <AltitudeMeters>554</AltitudeMeters>
            <DistanceMeters>NAN</DistanceMeters>
          </Trackpoint>
          <Trackpoint>
            <Time>2019-10-08T07:55:42.000Z</Time>
            <Position>
              <LatitudeDegrees>40.3082010336220264434814453125</LatitudeDegrees>
              <LongitudeDegrees>-5.8657213859260082244873046875</LongitudeDegrees>
            </Position>
            <AltitudeMeters>554</AltitudeMeters>
            <DistanceMeters>NAN</DistanceMeters>
          </Trackpoint>
          <Trackpoint>
            <Time>2019-10-08T07:55:46.000Z</Time>
            <Position>
              <LatitudeDegrees>40.30797262676060199737548828125</LatitudeDegrees>
              <LongitudeDegrees>-5.8660881780087947845458984375</LongitudeDegrees>
            </Position>
            <AltitudeMeters>555.20001220703125</AltitudeMeters>
            <DistanceMeters>NAN</DistanceMeters>
          </Trackpoint>
          <Trackpoint>
            <Time>2019-10-08T07:55:48.000Z</Time>
            <Position>
              <LatitudeDegrees>40.3078682720661163330078125</LatitudeDegrees>
              <LongitudeDegrees>-5.8662558160722255706787109375</LongitudeDegrees>
            </Position>
            <AltitudeMeters>555.79998779296875</AltitudeMeters>
            <DistanceMeters>NAN</DistanceMeters>
          </Trackpoint>
          <Trackpoint>
            <Time>2019-10-08T07:55:52.000Z</Time>
            <Position>
              <LatitudeDegrees>40.30766509473323822021484375</LatitudeDegrees>
              <LongitudeDegrees>-5.866539292037487030029296875</LongitudeDegrees>
            </Position>
            <AltitudeMeters>557.20001220703125</AltitudeMeters>
            <DistanceMeters>NAN</DistanceMeters>
          </Trackpoint>
          <Trackpoint>
            <Time>2019-10-08T07:55:53.000Z</Time>
            <Position>
              <LatitudeDegrees>40.30761488713324069976806640625</LatitudeDegrees>
              <LongitudeDegrees>-5.8666001446545124053955078125</LongitudeDegrees>
            </Position>
            <AltitudeMeters>557.4000244140625</AltitudeMeters>
            <DistanceMeters>NAN</DistanceMeters>
          </Trackpoint>
          <Trackpoint>
            <Time>2019-10-08T07:55:57.000Z</Time>
            <Position>
              <LatitudeDegrees>40.30742210336029529571533203125</LatitudeDegrees>
              <LongitudeDegrees>-5.866827629506587982177734375</LongitudeDegrees>
            </Position>
            <AltitudeMeters>558.4000244140625</AltitudeMeters>
            <DistanceMeters>NAN</DistanceMeters>
          </Trackpoint>
          <Trackpoint>
            <Time>2019-10-08T07:56:00.000Z</Time>
            <Position>
              <LatitudeDegrees>40.30727407895028591156005859375</LatitudeDegrees>
              <LongitudeDegrees>-5.86700121872127056121826171875</LongitudeDegrees>
            </Position>
            <AltitudeMeters>558.4000244140625</AltitudeMeters>
            <DistanceMeters>NAN</DistanceMeters>
          </Trackpoint>
          <Trackpoint>
            <Time>2019-10-08T07:56:06.000Z</Time>
            <Position>
              <LatitudeDegrees>40.307031758129596710205078125</LatitudeDegrees>
              <LongitudeDegrees>-5.867288969457149505615234375</LongitudeDegrees>
            </Position>
            <AltitudeMeters>558.79998779296875</AltitudeMeters>
            <DistanceMeters>NAN</DistanceMeters>
          </Trackpoint>
          <Trackpoint>
            <Time>2019-10-08T07:56:10.000Z</Time>
            <Position>
              <LatitudeDegrees>40.3068636171519756317138671875</LatitudeDegrees>
              <LongitudeDegrees>-5.86747102439403533935546875</LongitudeDegrees>
            </Position>
            <AltitudeMeters>559.4000244140625</AltitudeMeters>
            <DistanceMeters>NAN</DistanceMeters>
          </Trackpoint>
          <Trackpoint>
            <Time>2019-10-08T07:56:16.000Z</Time>
            <Position>
              <LatitudeDegrees>40.306620039045810699462890625</LatitudeDegrees>
              <LongitudeDegrees>-5.8677243255078792572021484375</LongitudeDegrees>
            </Position>
            <AltitudeMeters>559.5999755859375</AltitudeMeters>
            <DistanceMeters>NAN</DistanceMeters>
          </Trackpoint>
          <Trackpoint>
            <Time>2019-10-08T07:56:19.000Z</Time>
            <Position>
              <LatitudeDegrees>40.30649741180241107940673828125</LatitudeDegrees>
              <LongitudeDegrees>-5.86783706210553646087646484375</LongitudeDegrees>
            </Position>
            <AltitudeMeters>560.20001220703125</AltitudeMeters>
            <DistanceMeters>NAN</DistanceMeters>
          </Trackpoint>
          <Trackpoint>
            <Time>2019-10-08T07:56:20.000Z</Time>
            <Position>
              <LatitudeDegrees>40.30645550228655338287353515625</LatitudeDegrees>
              <LongitudeDegrees>-5.867872349917888641357421875</LongitudeDegrees>
            </Position>
            <AltitudeMeters>560.5999755859375</AltitudeMeters>
            <DistanceMeters>NAN</DistanceMeters>
          </Trackpoint>
          <Trackpoint>
            <Time>2019-10-08T07:56:27.000Z</Time>
            <Position>
              <LatitudeDegrees>40.30616347678005695343017578125</LatitudeDegrees>
              <LongitudeDegrees>-5.868123471736907958984375</LongitudeDegrees>
            </Position>
            <AltitudeMeters>560</AltitudeMeters>
            <DistanceMeters>NAN</DistanceMeters>
          </Trackpoint>
          <Trackpoint>
            <Time>2019-10-08T07:56:29.000Z</Time>
            <Position>
              <LatitudeDegrees>40.30607848428189754486083984375</LatitudeDegrees>
              <LongitudeDegrees>-5.86819781921803951263427734375</LongitudeDegrees>
            </Position>
            <AltitudeMeters>560.20001220703125</AltitudeMeters>
            <DistanceMeters>NAN</DistanceMeters>
          </Trackpoint>
          <Trackpoint>
            <Time>2019-10-08T07:56:35.000Z</Time>
            <Position>
              <LatitudeDegrees>40.3058296255767345428466796875</LatitudeDegrees>
              <LongitudeDegrees>-5.8684171736240386962890625</LongitudeDegrees>
            </Position>
            <AltitudeMeters>560.4000244140625</AltitudeMeters>
            <DistanceMeters>NAN</DistanceMeters>
          </Trackpoint>
          <Trackpoint>
            <Time>2019-10-08T07:56:39.000Z</Time>
            <Position>
              <LatitudeDegrees>40.3056650049984455108642578125</LatitudeDegrees>
              <LongitudeDegrees>-5.86855187080800533294677734375</LongitudeDegrees>
            </Position>
            <AltitudeMeters>561</AltitudeMeters>
            <DistanceMeters>NAN</DistanceMeters>
          </Trackpoint>
          <Trackpoint>
            <Time>2019-10-08T07:56:47.000Z</Time>
            <Position>
              <LatitudeDegrees>40.3053280524909496307373046875</LatitudeDegrees>
              <LongitudeDegrees>-5.8687975443899631500244140625</LongitudeDegrees>
            </Position>
            <AltitudeMeters>561.4000244140625</AltitudeMeters>
            <DistanceMeters>NAN</DistanceMeters>
          </Trackpoint>
          <Trackpoint>
            <Time>2019-10-08T07:56:48.000Z</Time>
            <Position>
              <LatitudeDegrees>40.30528270639479160308837890625</LatitudeDegrees>
              <LongitudeDegrees>-5.868820846080780029296875</LongitudeDegrees>
            </Position>
            <AltitudeMeters>561.5999755859375</AltitudeMeters>
            <DistanceMeters>NAN</DistanceMeters>
          </Trackpoint>
          <Trackpoint>
            <Time>2019-10-08T07:56:49.000Z</Time>
            <Position>
              <LatitudeDegrees>40.305238701403141021728515625</LatitudeDegrees>
              <LongitudeDegrees>-5.86884406395256519317626953125</LongitudeDegrees>
            </Position>
            <AltitudeMeters>561.79998779296875</AltitudeMeters>
            <DistanceMeters>NAN</DistanceMeters>
          </Trackpoint>
          <Trackpoint>
            <Time>2019-10-08T07:56:57.000Z</Time>
            <Position>
              <LatitudeDegrees>40.3048318438231945037841796875</LatitudeDegrees>
              <LongitudeDegrees>-5.8690305612981319427490234375</LongitudeDegrees>
            </Position>
            <AltitudeMeters>560.20001220703125</AltitudeMeters>
            <DistanceMeters>NAN</DistanceMeters>
          </Trackpoint>
          <Trackpoint>
            <Time>2019-10-08T07:57:00.000Z</Time>
            <Position>
              <LatitudeDegrees>40.3046400658786296844482421875</LatitudeDegrees>
              <LongitudeDegrees>-5.86910524405539035797119140625</LongitudeDegrees>
            </Position>
            <AltitudeMeters>559</AltitudeMeters>
            <DistanceMeters>NAN</DistanceMeters>
          </Trackpoint>
          <Trackpoint>
            <Time>2019-10-08T07:57:04.000Z</Time>
            <Position>
              <LatitudeDegrees>40.304346866905689239501953125</LatitudeDegrees>
              <LongitudeDegrees>-5.86918939836323261260986328125</LongitudeDegrees>
            </Position>
            <AltitudeMeters>557.20001220703125</AltitudeMeters>
            <DistanceMeters>NAN</DistanceMeters>
          </Trackpoint>
          <Trackpoint>
            <Time>2019-10-08T07:57:06.000Z</Time>
            <Position>
              <LatitudeDegrees>40.30418224632740020751953125</LatitudeDegrees>
              <LongitudeDegrees>-5.86921923793852329254150390625</LongitudeDegrees>
            </Position>
            <AltitudeMeters>555.79998779296875</AltitudeMeters>
            <DistanceMeters>NAN</DistanceMeters>
          </Trackpoint>
          <Trackpoint>
            <Time>2019-10-08T07:57:08.000Z</Time>
            <Position>
              <LatitudeDegrees>40.30400815419852733612060546875</LatitudeDegrees>
              <LongitudeDegrees>-5.86924890987575054168701171875</LongitudeDegrees>
            </Position>
            <AltitudeMeters>554.4000244140625</AltitudeMeters>
            <DistanceMeters>NAN</DistanceMeters>
          </Trackpoint>
          <Trackpoint>
            <Time>2019-10-08T07:57:10.000Z</Time>
            <Position>
              <LatitudeDegrees>40.30383096076548099517822265625</LatitudeDegrees>
              <LongitudeDegrees>-5.86928193457424640655517578125</LongitudeDegrees>
            </Position>
            <AltitudeMeters>553.5999755859375</AltitudeMeters>
            <DistanceMeters>NAN</DistanceMeters>
          </Trackpoint>
          <Trackpoint>
            <Time>2019-10-08T07:57:12.000Z</Time>
            <Position>
              <LatitudeDegrees>40.30365494079887866973876953125</LatitudeDegrees>
              <LongitudeDegrees>-5.869328789412975311279296875</LongitudeDegrees>
            </Position>
            <AltitudeMeters>553.20001220703125</AltitudeMeters>
            <DistanceMeters>NAN</DistanceMeters>
          </Trackpoint>
          <Trackpoint>
            <Time>2019-10-08T07:57:15.000Z</Time>
            <Position>
              <LatitudeDegrees>40.30339627526700496673583984375</LatitudeDegrees>
              <LongitudeDegrees>-5.86942677386105060577392578125</LongitudeDegrees>
            </Position>
            <AltitudeMeters>551.79998779296875</AltitudeMeters>
            <DistanceMeters>NAN</DistanceMeters>
          </Trackpoint>
          <Trackpoint>
            <Time>2019-10-08T07:57:16.000Z</Time>
            <Position>
              <LatitudeDegrees>40.30331228859722614288330078125</LatitudeDegrees>
              <LongitudeDegrees>-5.86946533061563968658447265625</LongitudeDegrees>
            </Position>
            <AltitudeMeters>552.4000244140625</AltitudeMeters>
            <DistanceMeters>NAN</DistanceMeters>
          </Trackpoint>
          <Trackpoint>
            <Time>2019-10-08T07:57:19.000Z</Time>
            <Position>
              <LatitudeDegrees>40.30306049622595310211181640625</LatitudeDegrees>
              <LongitudeDegrees>-5.86957932449877262115478515625</LongitudeDegrees>
            </Position>
            <AltitudeMeters>552.20001220703125</AltitudeMeters>
            <DistanceMeters>NAN</DistanceMeters>
          </Trackpoint>
          <Trackpoint>
            <Time>2019-10-08T07:57:23.000Z</Time>
            <Position>
              <LatitudeDegrees>40.3027264773845672607421875</LatitudeDegrees>
              <LongitudeDegrees>-5.8697319589555263519287109375</LongitudeDegrees>
            </Position>
            <AltitudeMeters>551</AltitudeMeters>
            <DistanceMeters>NAN</DistanceMeters>
          </Trackpoint>
          <Trackpoint>
            <Time>2019-10-08T07:57:24.000Z</Time>
            <Position>
              <LatitudeDegrees>40.3026428259909152984619140625</LatitudeDegrees>
              <LongitudeDegrees>-5.86977143771946430206298828125</LongitudeDegrees>
            </Position>
            <AltitudeMeters>550.79998779296875</AltitudeMeters>
            <DistanceMeters>NAN</DistanceMeters>
          </Trackpoint>
          <Trackpoint>
            <Time>2019-10-08T07:57:26.000Z</Time>
            <Position>
              <LatitudeDegrees>40.3024758584797382354736328125</LatitudeDegrees>
              <LongitudeDegrees>-5.86985282599925994873046875</LongitudeDegrees>
            </Position>
            <AltitudeMeters>550.20001220703125</AltitudeMeters>
            <DistanceMeters>NAN</DistanceMeters>
          </Trackpoint>
          <Trackpoint>
            <Time>2019-10-08T07:57:29.000Z</Time>
            <Position>
              <LatitudeDegrees>40.30222649686038494110107421875</LatitudeDegrees>
              <LongitudeDegrees>-5.86997210048139095306396484375</LongitudeDegrees>
            </Position>
            <AltitudeMeters>549.79998779296875</AltitudeMeters>
            <DistanceMeters>NAN</DistanceMeters>
          </Trackpoint>
          <Trackpoint>
            <Time>2019-10-08T07:57:32.000Z</Time>
            <Position>
              <LatitudeDegrees>40.3019729442894458770751953125</LatitudeDegrees>
              <LongitudeDegrees>-5.8700917102396488189697265625</LongitudeDegrees>
            </Position>
            <AltitudeMeters>548.4000244140625</AltitudeMeters>
            <DistanceMeters>NAN</DistanceMeters>
          </Trackpoint>
          <Trackpoint>
            <Time>2019-10-08T07:57:38.000Z</Time>
            <Position>
              <LatitudeDegrees>40.3014536015689373016357421875</LatitudeDegrees>
              <LongitudeDegrees>-5.870328582823276519775390625</LongitudeDegrees>
            </Position>
            <AltitudeMeters>547.20001220703125</AltitudeMeters>
            <DistanceMeters>NAN</DistanceMeters>
          </Trackpoint>
          <Trackpoint>
            <Time>2019-10-08T07:57:45.000Z</Time>
            <Position>
              <LatitudeDegrees>40.30089142732322216033935546875</LatitudeDegrees>
              <LongitudeDegrees>-5.87059102021157741546630859375</LongitudeDegrees>
            </Position>
            <AltitudeMeters>547.20001220703125</AltitudeMeters>
            <DistanceMeters>NAN</DistanceMeters>
          </Trackpoint>
          <Trackpoint>
            <Time>2019-10-08T07:57:52.000Z</Time>
            <Position>
              <LatitudeDegrees>40.30037761665880680084228515625</LatitudeDegrees>
              <LongitudeDegrees>-5.87082772515714168548583984375</LongitudeDegrees>
            </Position>
            <AltitudeMeters>547.79998779296875</AltitudeMeters>
            <DistanceMeters>NAN</DistanceMeters>
          </Trackpoint>
          <Trackpoint>
            <Time>2019-10-08T07:57:53.000Z</Time>
            <Position>
              <LatitudeDegrees>40.300310142338275909423828125</LatitudeDegrees>
              <LongitudeDegrees>-5.87085924111306667327880859375</LongitudeDegrees>
            </Position>
            <AltitudeMeters>547.79998779296875</AltitudeMeters>
            <DistanceMeters>NAN</DistanceMeters>
          </Trackpoint>
          <Trackpoint>
            <Time>2019-10-08T07:57:57.000Z</Time>
            <Position>
              <LatitudeDegrees>40.30005206353962421417236328125</LatitudeDegrees>
              <LongitudeDegrees>-5.87099301628768444061279296875</LongitudeDegrees>
            </Position>
            <AltitudeMeters>548.20001220703125</AltitudeMeters>
            <DistanceMeters>NAN</DistanceMeters>
          </Trackpoint>
          <Trackpoint>
            <Time>2019-10-08T07:58:00.000Z</Time>
            <Position>
              <LatitudeDegrees>40.29987336136400699615478515625</LatitudeDegrees>
              <LongitudeDegrees>-5.87110516615211963653564453125</LongitudeDegrees>
            </Position>
            <AltitudeMeters>548.4000244140625</AltitudeMeters>
            <DistanceMeters>NAN</DistanceMeters>
          </Trackpoint>
          <Trackpoint>
            <Time>2019-10-08T07:58:04.000Z</Time>
            <Position>
              <LatitudeDegrees>40.29966683126986026763916015625</LatitudeDegrees>
              <LongitudeDegrees>-5.87127833627164363861083984375</LongitudeDegrees>
            </Position>
            <AltitudeMeters>548.79998779296875</AltitudeMeters>
            <DistanceMeters>NAN</DistanceMeters>
          </Trackpoint>
          <Trackpoint>
            <Time>2019-10-08T07:58:05.000Z</Time>
            <Position>
              <LatitudeDegrees>40.29962106607854366302490234375</LatitudeDegrees>
              <LongitudeDegrees>-5.87132535874843597412109375</LongitudeDegrees>
            </Position>
            <AltitudeMeters>550</AltitudeMeters>
            <DistanceMeters>NAN</DistanceMeters>
          </Trackpoint>
          <Trackpoint>
            <Time>2019-10-08T07:58:06.000Z</Time>
            <Position>
              <LatitudeDegrees>40.29957546852529048919677734375</LatitudeDegrees>
              <LongitudeDegrees>-5.87137154303491115570068359375</LongitudeDegrees>
            </Position>
            <AltitudeMeters>550.20001220703125</AltitudeMeters>
            <DistanceMeters>NAN</DistanceMeters>
          </Trackpoint>
          <Trackpoint>
            <Time>2019-10-08T07:58:12.000Z</Time>
            <Position>
              <LatitudeDegrees>40.299311019480228424072265625</LatitudeDegrees>
              <LongitudeDegrees>-5.87164630182087421417236328125</LongitudeDegrees>
            </Position>
            <AltitudeMeters>550.20001220703125</AltitudeMeters>
            <DistanceMeters>NAN</DistanceMeters>
          </Trackpoint>
          <Trackpoint>
            <Time>2019-10-08T07:58:16.000Z</Time>
            <Position>
              <LatitudeDegrees>40.299137346446514129638671875</LatitudeDegrees>
              <LongitudeDegrees>-5.87182098068296909332275390625</LongitudeDegrees>
            </Position>
            <AltitudeMeters>550.79998779296875</AltitudeMeters>
            <DistanceMeters>NAN</DistanceMeters>
          </Trackpoint>
          <Trackpoint>
            <Time>2019-10-08T07:58:17.000Z</Time>
            <Position>
              <LatitudeDegrees>40.29909543693065643310546875</LatitudeDegrees>
              <LongitudeDegrees>-5.8718589507043361663818359375</LongitudeDegrees>
            </Position>
            <AltitudeMeters>551.20001220703125</AltitudeMeters>
            <DistanceMeters>NAN</DistanceMeters>
          </Trackpoint>
          <Trackpoint>
            <Time>2019-10-08T07:58:21.000Z</Time>
            <Position>
              <LatitudeDegrees>40.298932492733001708984375</LatitudeDegrees>
              <LongitudeDegrees>-5.87199180386960506439208984375</LongitudeDegrees>
            </Position>
            <AltitudeMeters>552.79998779296875</AltitudeMeters>
            <DistanceMeters>NAN</DistanceMeters>
          </Trackpoint>
          <Trackpoint>
            <Time>2019-10-08T07:58:23.000Z</Time>
            <Position>
              <LatitudeDegrees>40.2988480031490325927734375</LatitudeDegrees>
              <LongitudeDegrees>-5.87204821407794952392578125</LongitudeDegrees>
            </Position>
            <AltitudeMeters>553.4000244140625</AltitudeMeters>
            <DistanceMeters>NAN</DistanceMeters>
          </Trackpoint>
          <Trackpoint>
            <Time>2019-10-08T07:58:26.000Z</Time>
            <Position>
              <LatitudeDegrees>40.2987016551196575164794921875</LatitudeDegrees>
              <LongitudeDegrees>-5.872125327587127685546875</LongitudeDegrees>
            </Position>
            <AltitudeMeters>553</AltitudeMeters>
            <DistanceMeters>NAN</DistanceMeters>
          </Trackpoint>
          <Trackpoint>
            <Time>2019-10-08T07:58:29.000Z</Time>
            <Position>
              <LatitudeDegrees>40.2985383756458759307861328125</LatitudeDegrees>
              <LongitudeDegrees>-5.8721965737640857696533203125</LongitudeDegrees>
            </Position>
            <AltitudeMeters>552.4000244140625</AltitudeMeters>
            <DistanceMeters>NAN</DistanceMeters>
          </Trackpoint>
          <Trackpoint>
            <Time>2019-10-08T07:58:31.000Z</Time>
            <Position>
              <LatitudeDegrees>40.298422537744045257568359375</LatitudeDegrees>
              <LongitudeDegrees>-5.8722398243844509124755859375</LongitudeDegrees>
            </Position>
            <AltitudeMeters>551.5999755859375</AltitudeMeters>
            <DistanceMeters>NAN</DistanceMeters>
          </Trackpoint>
          <Trackpoint>
            <Time>2019-10-08T07:58:38.000Z</Time>
            <Position>
              <LatitudeDegrees>40.29800788499414920806884765625</LatitudeDegrees>
              <LongitudeDegrees>-5.87240972556173801422119140625</LongitudeDegrees>
            </Position>
            <AltitudeMeters>551.20001220703125</AltitudeMeters>
            <DistanceMeters>NAN</DistanceMeters>
          </Trackpoint>
          <Trackpoint>
            <Time>2019-10-08T07:58:41.000Z</Time>
            <Position>
              <LatitudeDegrees>40.297836475074291229248046875</LatitudeDegrees>
              <LongitudeDegrees>-5.87252237834036350250244140625</LongitudeDegrees>
            </Position>
            <AltitudeMeters>550.20001220703125</AltitudeMeters>
            <DistanceMeters>NAN</DistanceMeters>
          </Trackpoint>
          <Trackpoint>
            <Time>2019-10-08T07:58:43.000Z</Time>
            <Position>
              <LatitudeDegrees>40.29773027636110782623291015625</LatitudeDegrees>
              <LongitudeDegrees>-5.8726163394749164581298828125</LongitudeDegrees>
            </Position>
            <AltitudeMeters>550.20001220703125</AltitudeMeters>
            <DistanceMeters>NAN</DistanceMeters>
          </Trackpoint>
          <Trackpoint>
            <Time>2019-10-08T07:58:49.000Z</Time>
            <Position>
              <LatitudeDegrees>40.29745903797447681427001953125</LatitudeDegrees>
              <LongitudeDegrees>-5.8729412220418453216552734375</LongitudeDegrees>
            </Position>
            <AltitudeMeters>551</AltitudeMeters>
            <DistanceMeters>NAN</DistanceMeters>
          </Trackpoint>
          <Trackpoint>
            <Time>2019-10-08T07:58:50.000Z</Time>
            <Position>
              <LatitudeDegrees>40.29741763137280941009521484375</LatitudeDegrees>
              <LongitudeDegrees>-5.8729958720505237579345703125</LongitudeDegrees>
            </Position>
            <AltitudeMeters>551.20001220703125</AltitudeMeters>
            <DistanceMeters>NAN</DistanceMeters>
          </Trackpoint>
          <Trackpoint>
            <Time>2019-10-08T07:58:59.000Z</Time>
            <Position>
              <LatitudeDegrees>40.29705100692808628082275390625</LatitudeDegrees>
              <LongitudeDegrees>-5.87345243431627750396728515625</LongitudeDegrees>
            </Position>
            <AltitudeMeters>552.5999755859375</AltitudeMeters>
            <DistanceMeters>NAN</DistanceMeters>
          </Trackpoint>
          <Trackpoint>
            <Time>2019-10-08T07:59:07.000Z</Time>
            <Position>
              <LatitudeDegrees>40.296703241765499114990234375</LatitudeDegrees>
              <LongitudeDegrees>-5.873711518943309783935546875</LongitudeDegrees>
            </Position>
            <AltitudeMeters>553.4000244140625</AltitudeMeters>
            <DistanceMeters>NAN</DistanceMeters>
          </Trackpoint>
          <Trackpoint>
            <Time>2019-10-08T07:59:13.000Z</Time>
            <Position>
              <LatitudeDegrees>40.296378023922443389892578125</LatitudeDegrees>
              <LongitudeDegrees>-5.87384135462343692779541015625</LongitudeDegrees>
            </Position>
            <AltitudeMeters>552</AltitudeMeters>
            <DistanceMeters>NAN</DistanceMeters>
          </Trackpoint>
          <Trackpoint>
            <Time>2019-10-08T07:59:15.000Z</Time>
            <Position>
              <LatitudeDegrees>40.29624667949974536895751953125</LatitudeDegrees>
              <LongitudeDegrees>-5.87388192303478717803955078125</LongitudeDegrees>
            </Position>
            <AltitudeMeters>551.20001220703125</AltitudeMeters>
            <DistanceMeters>NAN</DistanceMeters>
          </Trackpoint>
          <Trackpoint>
            <Time>2019-10-08T07:59:18.000Z</Time>
            <Position>
              <LatitudeDegrees>40.2960331924259662628173828125</LatitudeDegrees>
              <LongitudeDegrees>-5.87394319474697113037109375</LongitudeDegrees>
            </Position>
            <AltitudeMeters>549.5999755859375</AltitudeMeters>
            <DistanceMeters>NAN</DistanceMeters>
          </Trackpoint>
          <Trackpoint>
            <Time>2019-10-08T07:59:19.000Z</Time>
            <Position>
              <LatitudeDegrees>40.29595725238323211669921875</LatitudeDegrees>
              <LongitudeDegrees>-5.87396054528653621673583984375</LongitudeDegrees>
            </Position>
            <AltitudeMeters>549.20001220703125</AltitudeMeters>
            <DistanceMeters>NAN</DistanceMeters>
          </Trackpoint>
          <Trackpoint>
            <Time>2019-10-08T07:59:21.000Z</Time>
            <Position>
              <LatitudeDegrees>40.29579841531813144683837890625</LatitudeDegrees>
              <LongitudeDegrees>-5.8739872835576534271240234375</LongitudeDegrees>
            </Position>
            <AltitudeMeters>547.79998779296875</AltitudeMeters>
            <DistanceMeters>NAN</DistanceMeters>
          </Trackpoint>
          <Trackpoint>
            <Time>2019-10-08T07:59:24.000Z</Time>
            <Position>
              <LatitudeDegrees>40.2955503948032855987548828125</LatitudeDegrees>
              <LongitudeDegrees>-5.87400597520172595977783203125</LongitudeDegrees>
            </Position>
            <AltitudeMeters>546.79998779296875</AltitudeMeters>
            <DistanceMeters>NAN</DistanceMeters>
          </Trackpoint>
          <Trackpoint>
            <Time>2019-10-08T07:59:25.000Z</Time>
            <Position>
              <LatitudeDegrees>40.29546498320996761322021484375</LatitudeDegrees>
              <LongitudeDegrees>-5.87400614283978939056396484375</LongitudeDegrees>
            </Position>
            <AltitudeMeters>545.79998779296875</AltitudeMeters>
            <DistanceMeters>NAN</DistanceMeters>
          </Trackpoint>
          <Trackpoint>
            <Time>2019-10-08T07:59:27.000Z</Time>
            <Position>
              <LatitudeDegrees>40.295289047062397003173828125</LatitudeDegrees>
              <LongitudeDegrees>-5.873997509479522705078125</LongitudeDegrees>
            </Position>
            <AltitudeMeters>545.4000244140625</AltitudeMeters>
            <DistanceMeters>NAN</DistanceMeters>
          </Trackpoint>
          <Trackpoint>
            <Time>2019-10-08T07:59:29.000Z</Time>
            <Position>
              <LatitudeDegrees>40.295111350715160369873046875</LatitudeDegrees>
              <LongitudeDegrees>-5.8739866130053997039794921875</LongitudeDegrees>
            </Position>
            <AltitudeMeters>544</AltitudeMeters>
            <DistanceMeters>NAN</DistanceMeters>
          </Trackpoint>
          <Trackpoint>
            <Time>2019-10-08T07:59:32.000Z</Time>
            <Position>
              <LatitudeDegrees>40.29483734630048274993896484375</LatitudeDegrees>
              <LongitudeDegrees>-5.8740015327930450439453125</LongitudeDegrees>
            </Position>
            <AltitudeMeters>543.20001220703125</AltitudeMeters>
            <DistanceMeters>NAN</DistanceMeters>
          </Trackpoint>
          <Trackpoint>
            <Time>2019-10-08T07:59:33.000Z</Time>
            <Position>
              <LatitudeDegrees>40.2947447262704372406005859375</LatitudeDegrees>
              <LongitudeDegrees>-5.874018967151641845703125</LongitudeDegrees>
            </Position>
            <AltitudeMeters>542.79998779296875</AltitudeMeters>
            <DistanceMeters>NAN</DistanceMeters>
          </Trackpoint>
          <Trackpoint>
            <Time>2019-10-08T07:59:35.000Z</Time>
            <Position>
              <LatitudeDegrees>40.29456116259098052978515625</LatitudeDegrees>
              <LongitudeDegrees>-5.874070264399051666259765625</LongitudeDegrees>
            </Position>
            <AltitudeMeters>542</AltitudeMeters>
            <DistanceMeters>NAN</DistanceMeters>
          </Trackpoint>
          <Trackpoint>
            <Time>2019-10-08T07:59:36.000Z</Time>
            <Position>
              <LatitudeDegrees>40.2944697998464107513427734375</LatitudeDegrees>
              <LongitudeDegrees>-5.87410219945013523101806640625</LongitudeDegrees>
            </Position>
            <AltitudeMeters>541.20001220703125</AltitudeMeters>
            <DistanceMeters>NAN</DistanceMeters>
          </Trackpoint>
          <Trackpoint>
            <Time>2019-10-08T07:59:38.000Z</Time>
            <Position>
              <LatitudeDegrees>40.2942855656147003173828125</LatitudeDegrees>
              <LongitudeDegrees>-5.87416523136198520660400390625</LongitudeDegrees>
            </Position>
            <AltitudeMeters>540.5999755859375</AltitudeMeters>
            <DistanceMeters>NAN</DistanceMeters>
          </Trackpoint>
          <Trackpoint>
            <Time>2019-10-08T07:59:40.000Z</Time>
            <Position>
              <LatitudeDegrees>40.2941016666591167449951171875</LatitudeDegrees>
              <LongitudeDegrees>-5.874229855835437774658203125</LongitudeDegrees>
            </Position>
            <AltitudeMeters>540.20001220703125</AltitudeMeters>
            <DistanceMeters>NAN</DistanceMeters>
          </Trackpoint>
          <Trackpoint>
            <Time>2019-10-08T07:59:42.000Z</Time>
            <Position>
              <LatitudeDegrees>40.293918438255786895751953125</LatitudeDegrees>
              <LongitudeDegrees>-5.874297916889190673828125</LongitudeDegrees>
            </Position>
            <AltitudeMeters>539</AltitudeMeters>
            <DistanceMeters>NAN</DistanceMeters>
          </Trackpoint>
          <Trackpoint>
            <Time>2019-10-08T07:59:47.000Z</Time>
            <Position>
              <LatitudeDegrees>40.29347084462642669677734375</LatitudeDegrees>
              <LongitudeDegrees>-5.87447184138000011444091796875</LongitudeDegrees>
            </Position>
            <AltitudeMeters>538.20001220703125</AltitudeMeters>
            <DistanceMeters>NAN</DistanceMeters>
          </Trackpoint>
          <Trackpoint>
            <Time>2019-10-08T07:59:48.000Z</Time>
            <Position>
              <LatitudeDegrees>40.2933845110237598419189453125</LatitudeDegrees>
              <LongitudeDegrees>-5.874516852200031280517578125</LongitudeDegrees>
            </Position>
            <AltitudeMeters>538</AltitudeMeters>
            <DistanceMeters>NAN</DistanceMeters>
          </Trackpoint>
          <Trackpoint>
            <Time>2019-10-08T07:59:51.000Z</Time>
            <Position>
              <LatitudeDegrees>40.293133556842803955078125</LatitudeDegrees>
              <LongitudeDegrees>-5.87468625046312808990478515625</LongitudeDegrees>
            </Position>
            <AltitudeMeters>536.79998779296875</AltitudeMeters>
            <DistanceMeters>NAN</DistanceMeters>
          </Trackpoint>
          <Trackpoint>
            <Time>2019-10-08T07:59:52.000Z</Time>
            <Position>
              <LatitudeDegrees>40.2930509112775325775146484375</LatitudeDegrees>
              <LongitudeDegrees>-5.8747498691082000732421875</LongitudeDegrees>
            </Position>
            <AltitudeMeters>536.4000244140625</AltitudeMeters>
            <DistanceMeters>NAN</DistanceMeters>
          </Trackpoint>
          <Trackpoint>
            <Time>2019-10-08T07:59:53.000Z</Time>
            <Position>
              <LatitudeDegrees>40.29296751134097576141357421875</LatitudeDegrees>
              <LongitudeDegrees>-5.874814577400684356689453125</LongitudeDegrees>
            </Position>
            <AltitudeMeters>535.79998779296875</AltitudeMeters>
            <DistanceMeters>NAN</DistanceMeters>
          </Trackpoint>
          <Trackpoint>
            <Time>2019-10-08T07:59:56.000Z</Time>
            <Position>
              <LatitudeDegrees>40.2927072532474994659423828125</LatitudeDegrees>
              <LongitudeDegrees>-5.8749994821846485137939453125</LongitudeDegrees>
            </Position>
            <AltitudeMeters>534.79998779296875</AltitudeMeters>
            <DistanceMeters>NAN</DistanceMeters>
          </Trackpoint>
          <Trackpoint>
            <Time>2019-10-08T07:59:57.000Z</Time>
            <Position>
              <LatitudeDegrees>40.2926190756261348724365234375</LatitudeDegrees>
              <LongitudeDegrees>-5.87506301701068878173828125</LongitudeDegrees>
            </Position>
            <AltitudeMeters>534.4000244140625</AltitudeMeters>
            <DistanceMeters>NAN</DistanceMeters>
          </Trackpoint>
          <Trackpoint>
            <Time>2019-10-08T07:59:58.000Z</Time>
            <Position>
              <LatitudeDegrees>40.2925305627286434173583984375</LatitudeDegrees>
              <LongitudeDegrees>-5.87512931786477565765380859375</LongitudeDegrees>
            </Position>
            <AltitudeMeters>533.4000244140625</AltitudeMeters>
            <DistanceMeters>NAN</DistanceMeters>
          </Trackpoint>
          <Trackpoint>
            <Time>2019-10-08T07:59:59.000Z</Time>
            <Position>
              <LatitudeDegrees>40.29244163073599338531494140625</LatitudeDegrees>
              <LongitudeDegrees>-5.8751956187188625335693359375</LongitudeDegrees>
            </Position>
            <AltitudeMeters>532.79998779296875</AltitudeMeters>
            <DistanceMeters>NAN</DistanceMeters>
          </Trackpoint>
          <Trackpoint>
            <Time>2019-10-08T08:00:00.000Z</Time>
            <Position>
              <LatitudeDegrees>40.29235160909593105316162109375</LatitudeDegrees>
              <LongitudeDegrees>-5.875264517962932586669921875</LongitudeDegrees>
            </Position>
            <AltitudeMeters>532</AltitudeMeters>
            <DistanceMeters>NAN</DistanceMeters>
          </Trackpoint>
          <Trackpoint>
            <Time>2019-10-08T08:00:02.000Z</Time>
            <Position>
              <LatitudeDegrees>40.2921711467206478118896484375</LatitudeDegrees>
              <LongitudeDegrees>-5.8754065074026584625244140625</LongitudeDegrees>
            </Position>
            <AltitudeMeters>530.79998779296875</AltitudeMeters>
            <DistanceMeters>NAN</DistanceMeters>
          </Trackpoint>
          <Trackpoint>
            <Time>2019-10-08T08:00:04.000Z</Time>
            <Position>
              <LatitudeDegrees>40.29198682866990566253662109375</LatitudeDegrees>
              <LongitudeDegrees>-5.87555159814655780792236328125</LongitudeDegrees>
            </Position>
            <AltitudeMeters>529.5999755859375</AltitudeMeters>
            <DistanceMeters>NAN</DistanceMeters>
          </Trackpoint>
          <Trackpoint>
            <Time>2019-10-08T08:00:06.000Z</Time>
            <Position>
              <LatitudeDegrees>40.2917976491153240203857421875</LatitudeDegrees>
              <LongitudeDegrees>-5.87570406496524810791015625</LongitudeDegrees>
            </Position>
            <AltitudeMeters>528.4000244140625</AltitudeMeters>
            <DistanceMeters>NAN</DistanceMeters>
          </Trackpoint>
          <Trackpoint>
            <Time>2019-10-08T08:00:07.000Z</Time>
            <Position>
              <LatitudeDegrees>40.29170150868594646453857421875</LatitudeDegrees>
              <LongitudeDegrees>-5.87578008882701396942138671875</LongitudeDegrees>
            </Position>
            <AltitudeMeters>527.79998779296875</AltitudeMeters>
            <DistanceMeters>NAN</DistanceMeters>
          </Trackpoint>
          <Trackpoint>
            <Time>2019-10-08T08:00:08.000Z</Time>
            <Position>
              <LatitudeDegrees>40.2916060388088226318359375</LatitudeDegrees>
              <LongitudeDegrees>-5.87585887871682643890380859375</LongitudeDegrees>
            </Position>
            <AltitudeMeters>527.20001220703125</AltitudeMeters>
            <DistanceMeters>NAN</DistanceMeters>
          </Trackpoint>
          <Trackpoint>
            <Time>2019-10-08T08:00:09.000Z</Time>
            <Position>
              <LatitudeDegrees>40.2915116585791110992431640625</LatitudeDegrees>
              <LongitudeDegrees>-5.87593833915889263153076171875</LongitudeDegrees>
            </Position>
            <AltitudeMeters>526</AltitudeMeters>
            <DistanceMeters>NAN</DistanceMeters>
          </Trackpoint>
          <Trackpoint>
            <Time>2019-10-08T08:00:11.000Z</Time>
            <Position>
              <LatitudeDegrees>40.29131971299648284912109375</LatitudeDegrees>
              <LongitudeDegrees>-5.8760963380336761474609375</LongitudeDegrees>
            </Position>
            <AltitudeMeters>524.20001220703125</AltitudeMeters>
            <DistanceMeters>NAN</DistanceMeters>
          </Trackpoint>
          <Trackpoint>
            <Time>2019-10-08T08:00:15.000Z</Time>
            <Position>
              <LatitudeDegrees>40.2909376658499240875244140625</LatitudeDegrees>
              <LongitudeDegrees>-5.8764021098613739013671875</LongitudeDegrees>
            </Position>
            <AltitudeMeters>523</AltitudeMeters>
            <DistanceMeters>NAN</DistanceMeters>
          </Trackpoint>
          <Trackpoint>
            <Time>2019-10-08T08:00:18.000Z</Time>
            <Position>
              <LatitudeDegrees>40.29065561480820178985595703125</LatitudeDegrees>
              <LongitudeDegrees>-5.8766279183328151702880859375</LongitudeDegrees>
            </Position>
            <AltitudeMeters>522</AltitudeMeters>
            <DistanceMeters>NAN</DistanceMeters>
          </Trackpoint>
          <Trackpoint>
            <Time>2019-10-08T08:00:23.000Z</Time>
            <Position>
              <LatitudeDegrees>40.29019452631473541259765625</LatitudeDegrees>
              <LongitudeDegrees>-5.87698373012244701385498046875</LongitudeDegrees>
            </Position>
            <AltitudeMeters>520.5999755859375</AltitudeMeters>
            <DistanceMeters>NAN</DistanceMeters>
          </Trackpoint>
          <Trackpoint>
            <Time>2019-10-08T08:00:25.000Z</Time>
            <Position>
              <LatitudeDegrees>40.29001406393945217132568359375</LatitudeDegrees>
              <LongitudeDegrees>-5.8771251328289508819580078125</LongitudeDegrees>
            </Position>
            <AltitudeMeters>520.4000244140625</AltitudeMeters>
            <DistanceMeters>NAN</DistanceMeters>
          </Trackpoint>
          <Trackpoint>
            <Time>2019-10-08T08:00:27.000Z</Time>
            <Position>
              <LatitudeDegrees>40.28983569703996181488037109375</LatitudeDegrees>
              <LongitudeDegrees>-5.877261422574520111083984375</LongitudeDegrees>
            </Position>
            <AltitudeMeters>519.4000244140625</AltitudeMeters>
            <DistanceMeters>NAN</DistanceMeters>
          </Trackpoint>
          <Trackpoint>
            <Time>2019-10-08T08:00:32.000Z</Time>
            <Position>
              <LatitudeDegrees>40.28940151445567607879638671875</LatitudeDegrees>
              <LongitudeDegrees>-5.8775956928730010986328125</LongitudeDegrees>
            </Position>
            <AltitudeMeters>519</AltitudeMeters>
            <DistanceMeters>NAN</DistanceMeters>
          </Trackpoint>
          <Trackpoint>
            <Time>2019-10-08T08:00:34.000Z</Time>
            <Position>
              <LatitudeDegrees>40.2892331220209598541259765625</LatitudeDegrees>
              <LongitudeDegrees>-5.877726115286350250244140625</LongitudeDegrees>
            </Position>
            <AltitudeMeters>518.79998779296875</AltitudeMeters>
            <DistanceMeters>NAN</DistanceMeters>
          </Trackpoint>
          <Trackpoint>
            <Time>2019-10-08T08:00:35.000Z</Time>
            <Position>
              <LatitudeDegrees>40.28914980590343475341796875</LatitudeDegrees>
              <LongitudeDegrees>-5.87779375724494457244873046875</LongitudeDegrees>
            </Position>
            <AltitudeMeters>518.4000244140625</AltitudeMeters>
            <DistanceMeters>NAN</DistanceMeters>
          </Trackpoint>
          <Trackpoint>
            <Time>2019-10-08T08:00:41.000Z</Time>
            <Position>
              <LatitudeDegrees>40.288659632205963134765625</LatitudeDegrees>
              <LongitudeDegrees>-5.8781805820763111114501953125</LongitudeDegrees>
            </Position>
            <AltitudeMeters>517.79998779296875</AltitudeMeters>
            <DistanceMeters>NAN</DistanceMeters>
          </Trackpoint>
          <Trackpoint>
            <Time>2019-10-08T08:00:43.000Z</Time>
            <Position>
              <LatitudeDegrees>40.28849576599895954132080078125</LatitudeDegrees>
              <LongitudeDegrees>-5.87831209413707256317138671875</LongitudeDegrees>
            </Position>
            <AltitudeMeters>517.20001220703125</AltitudeMeters>
            <DistanceMeters>NAN</DistanceMeters>
          </Trackpoint>
          <Trackpoint>
            <Time>2019-10-08T08:00:44.000Z</Time>
            <Position>
              <LatitudeDegrees>40.288415886461734771728515625</LatitudeDegrees>
              <LongitudeDegrees>-5.878380574285984039306640625</LongitudeDegrees>
            </Position>
            <AltitudeMeters>516.5999755859375</AltitudeMeters>
            <DistanceMeters>NAN</DistanceMeters>
          </Trackpoint>
          <Trackpoint>
            <Time>2019-10-08T08:00:45.000Z</Time>
            <Position>
              <LatitudeDegrees>40.28833298943936824798583984375</LatitudeDegrees>
              <LongitudeDegrees>-5.878449976444244384765625</LongitudeDegrees>
            </Position>
            <AltitudeMeters>516.20001220703125</AltitudeMeters>
            <DistanceMeters>NAN</DistanceMeters>
          </Trackpoint>
          <Trackpoint>
            <Time>2019-10-08T08:00:48.000Z</Time>
            <Position>
              <LatitudeDegrees>40.28808438219130039215087890625</LatitudeDegrees>
              <LongitudeDegrees>-5.87866346351802349090576171875</LongitudeDegrees>
            </Position>
            <AltitudeMeters>515</AltitudeMeters>
            <DistanceMeters>NAN</DistanceMeters>
          </Trackpoint>
          <Trackpoint>
            <Time>2019-10-08T08:00:50.000Z</Time>
            <Position>
              <LatitudeDegrees>40.28791506774723529815673828125</LatitudeDegrees>
              <LongitudeDegrees>-5.8788125775754451751708984375</LongitudeDegrees>
            </Position>
            <AltitudeMeters>513.5999755859375</AltitudeMeters>
            <DistanceMeters>NAN</DistanceMeters>
          </Trackpoint>
          <Trackpoint>
            <Time>2019-10-08T08:00:52.000Z</Time>
            <Position>
              <LatitudeDegrees>40.28774323873221874237060546875</LatitudeDegrees>
              <LongitudeDegrees>-5.87896890006959438323974609375</LongitudeDegrees>
            </Position>
            <AltitudeMeters>512</AltitudeMeters>
            <DistanceMeters>NAN</DistanceMeters>
          </Trackpoint>
          <Trackpoint>
            <Time>2019-10-08T08:00:53.000Z</Time>
            <Position>
              <LatitudeDegrees>40.28765606693923473358154296875</LatitudeDegrees>
              <LongitudeDegrees>-5.879049114882946014404296875</LongitudeDegrees>
            </Position>
            <AltitudeMeters>511.399993896484375</AltitudeMeters>
            <DistanceMeters>NAN</DistanceMeters>
          </Trackpoint>
          <Trackpoint>
            <Time>2019-10-08T08:00:54.000Z</Time>
            <Position>
              <LatitudeDegrees>40.28756990097463130950927734375</LatitudeDegrees>
              <LongitudeDegrees>-5.87913192808628082275390625</LongitudeDegrees>
            </Position>
            <AltitudeMeters>510.600006103515625</AltitudeMeters>
            <DistanceMeters>NAN</DistanceMeters>
          </Trackpoint>
          <Trackpoint>
            <Time>2019-10-08T08:00:56.000Z</Time>
            <Position>
              <LatitudeDegrees>40.28739354573190212249755859375</LatitudeDegrees>
              <LongitudeDegrees>-5.87929294444620609283447265625</LongitudeDegrees>
            </Position>
            <AltitudeMeters>509.20001220703125</AltitudeMeters>
            <DistanceMeters>NAN</DistanceMeters>
          </Trackpoint>
          <Trackpoint>
            <Time>2019-10-08T08:00:58.000Z</Time>
            <Position>
              <LatitudeDegrees>40.28721459209918975830078125</LatitudeDegrees>
              <LongitudeDegrees>-5.87945245206356048583984375</LongitudeDegrees>
            </Position>
            <AltitudeMeters>508.20001220703125</AltitudeMeters>
            <DistanceMeters>NAN</DistanceMeters>
          </Trackpoint>
          <Trackpoint>
            <Time>2019-10-08T08:01:01.000Z</Time>
            <Position>
              <LatitudeDegrees>40.28695307672023773193359375</LatitudeDegrees>
              <LongitudeDegrees>-5.879707597196102142333984375</LongitudeDegrees>
            </Position>
            <AltitudeMeters>506.79998779296875</AltitudeMeters>
            <DistanceMeters>NAN</DistanceMeters>
          </Trackpoint>
          <Trackpoint>
            <Time>2019-10-08T08:01:04.000Z</Time>
            <Position>
              <LatitudeDegrees>40.28668762184679508209228515625</LatitudeDegrees>
              <LongitudeDegrees>-5.87996282614767551422119140625</LongitudeDegrees>
            </Position>
            <AltitudeMeters>506</AltitudeMeters>
            <DistanceMeters>NAN</DistanceMeters>
          </Trackpoint>
          <Trackpoint>
            <Time>2019-10-08T08:01:05.000Z</Time>
            <Position>
              <LatitudeDegrees>40.28659843839704990386962890625</LatitudeDegrees>
              <LongitudeDegrees>-5.8800477348268032073974609375</LongitudeDegrees>
            </Position>
            <AltitudeMeters>505.20001220703125</AltitudeMeters>
            <DistanceMeters>NAN</DistanceMeters>
          </Trackpoint>
          <Trackpoint>
            <Time>2019-10-08T08:01:10.000Z</Time>
            <Position>
              <LatitudeDegrees>40.286157131195068359375</LatitudeDegrees>
              <LongitudeDegrees>-5.88046590797603130340576171875</LongitudeDegrees>
            </Position>
            <AltitudeMeters>503.79998779296875</AltitudeMeters>
            <DistanceMeters>NAN</DistanceMeters>
          </Trackpoint>
          <Trackpoint>
            <Time>2019-10-08T08:01:12.000Z</Time>
            <Position>
              <LatitudeDegrees>40.285985134541988372802734375</LatitudeDegrees>
              <LongitudeDegrees>-5.88062918744981288909912109375</LongitudeDegrees>
            </Position>
            <AltitudeMeters>503</AltitudeMeters>
            <DistanceMeters>NAN</DistanceMeters>
          </Trackpoint>
          <Trackpoint>
            <Time>2019-10-08T08:01:14.000Z</Time>
            <Position>
              <LatitudeDegrees>40.285814143717288970947265625</LatitudeDegrees>
              <LongitudeDegrees>-5.88078492321074008941650390625</LongitudeDegrees>
            </Position>
            <AltitudeMeters>502.600006103515625</AltitudeMeters>
            <DistanceMeters>NAN</DistanceMeters>
          </Trackpoint>
          <Trackpoint>
            <Time>2019-10-08T08:01:20.000Z</Time>
            <Position>
              <LatitudeDegrees>40.28532095253467559814453125</LatitudeDegrees>
              <LongitudeDegrees>-5.8812503702938556671142578125</LongitudeDegrees>
            </Position>
            <AltitudeMeters>501.79998779296875</AltitudeMeters>
            <DistanceMeters>NAN</DistanceMeters>
          </Trackpoint>
          <Trackpoint>
            <Time>2019-10-08T08:01:21.000Z</Time>
            <Position>
              <LatitudeDegrees>40.285240821540355682373046875</LatitudeDegrees>
              <LongitudeDegrees>-5.8813251368701457977294921875</LongitudeDegrees>
            </Position>
            <AltitudeMeters>501.79998779296875</AltitudeMeters>
            <DistanceMeters>NAN</DistanceMeters>
          </Trackpoint>
          <Trackpoint>
            <Time>2019-10-08T08:01:22.000Z</Time>
            <Position>
              <LatitudeDegrees>40.28516362421214580535888671875</LatitudeDegrees>
              <LongitudeDegrees>-5.88139831088483333587646484375</LongitudeDegrees>
            </Position>
            <AltitudeMeters>501.600006103515625</AltitudeMeters>
            <DistanceMeters>NAN</DistanceMeters>
          </Trackpoint>
          <Trackpoint>
            <Time>2019-10-08T08:01:28.000Z</Time>
            <Position>
              <LatitudeDegrees>40.28469440527260303497314453125</LatitudeDegrees>
              <LongitudeDegrees>-5.8818471617996692657470703125</LongitudeDegrees>
            </Position>
            <AltitudeMeters>500.600006103515625</AltitudeMeters>
            <DistanceMeters>NAN</DistanceMeters>
          </Trackpoint>
          <Trackpoint>
            <Time>2019-10-08T08:01:29.000Z</Time>
            <Position>
              <LatitudeDegrees>40.28461628593504428863525390625</LatitudeDegrees>
              <LongitudeDegrees>-5.88192268274724483489990234375</LongitudeDegrees>
            </Position>
            <AltitudeMeters>500.600006103515625</AltitudeMeters>
            <DistanceMeters>NAN</DistanceMeters>
          </Trackpoint>
          <Trackpoint>
            <Time>2019-10-08T08:01:31.000Z</Time>
            <Position>
              <LatitudeDegrees>40.2844628132879734039306640625</LatitudeDegrees>
              <LongitudeDegrees>-5.88207389228045940399169921875</LongitudeDegrees>
            </Position>
            <AltitudeMeters>500</AltitudeMeters>
            <DistanceMeters>NAN</DistanceMeters>
          </Trackpoint>
          <Trackpoint>
            <Time>2019-10-08T08:01:32.000Z</Time>
            <Position>
              <LatitudeDegrees>40.28438678942620754241943359375</LatitudeDegrees>
              <LongitudeDegrees>-5.8821519277989864349365234375</LongitudeDegrees>
            </Position>
            <AltitudeMeters>499.399993896484375</AltitudeMeters>
            <DistanceMeters>NAN</DistanceMeters>
          </Trackpoint>
          <Trackpoint>
            <Time>2019-10-08T08:01:37.000Z</Time>
            <Position>
              <LatitudeDegrees>40.2840363420546054840087890625</LatitudeDegrees>
              <LongitudeDegrees>-5.88257697410881519317626953125</LongitudeDegrees>
            </Position>
            <AltitudeMeters>498.399993896484375</AltitudeMeters>
            <DistanceMeters>NAN</DistanceMeters>
          </Trackpoint>
          <Trackpoint>
            <Time>2019-10-08T08:01:38.000Z</Time>
            <Position>
              <LatitudeDegrees>40.283968448638916015625</LatitudeDegrees>
              <LongitudeDegrees>-5.8826662413775920867919921875</LongitudeDegrees>
            </Position>
            <AltitudeMeters>498.20001220703125</AltitudeMeters>
            <DistanceMeters>NAN</DistanceMeters>
          </Trackpoint>
          <Trackpoint>
            <Time>2019-10-08T08:01:41.000Z</Time>
            <Position>
              <LatitudeDegrees>40.2837667800486087799072265625</LatitudeDegrees>
              <LongitudeDegrees>-5.88293655775487422943115234375</LongitudeDegrees>
            </Position>
            <AltitudeMeters>497</AltitudeMeters>
            <DistanceMeters>NAN</DistanceMeters>
          </Trackpoint>
          <Trackpoint>
            <Time>2019-10-08T08:01:43.000Z</Time>
            <Position>
              <LatitudeDegrees>40.28362923301756381988525390625</LatitudeDegrees>
              <LongitudeDegrees>-5.8831124939024448394775390625</LongitudeDegrees>
            </Position>
            <AltitudeMeters>496</AltitudeMeters>
            <DistanceMeters>NAN</DistanceMeters>
          </Trackpoint>
          <Trackpoint>
            <Time>2019-10-08T08:01:48.000Z</Time>
            <Position>
              <LatitudeDegrees>40.28329454362392425537109375</LatitudeDegrees>
              <LongitudeDegrees>-5.88356251828372478485107421875</LongitudeDegrees>
            </Position>
            <AltitudeMeters>495.20001220703125</AltitudeMeters>
            <DistanceMeters>NAN</DistanceMeters>
          </Trackpoint>
          <Trackpoint>
            <Time>2019-10-08T08:01:49.000Z</Time>
            <Position>
              <LatitudeDegrees>40.283227153122425079345703125</LatitudeDegrees>
              <LongitudeDegrees>-5.8836509473621845245361328125</LongitudeDegrees>
            </Position>
            <AltitudeMeters>494.600006103515625</AltitudeMeters>
            <DistanceMeters>NAN</DistanceMeters>
          </Trackpoint>
          <Trackpoint>
            <Time>2019-10-08T08:01:55.000Z</Time>
            <Position>
              <LatitudeDegrees>40.2828397415578365325927734375</LatitudeDegrees>
              <LongitudeDegrees>-5.88414757512509822845458984375</LongitudeDegrees>
            </Position>
            <AltitudeMeters>494.600006103515625</AltitudeMeters>
            <DistanceMeters>NAN</DistanceMeters>
          </Trackpoint>
          <Trackpoint>
            <Time>2019-10-08T08:02:02.000Z</Time>
            <Position>
              <LatitudeDegrees>40.2824367396533489227294921875</LatitudeDegrees>
              <LongitudeDegrees>-5.884676389396190643310546875</LongitudeDegrees>
            </Position>
            <AltitudeMeters>495.20001220703125</AltitudeMeters>
            <DistanceMeters>NAN</DistanceMeters>
          </Trackpoint>
          <Trackpoint>
            <Time>2019-10-08T08:02:03.000Z</Time>
            <Position>
              <LatitudeDegrees>40.28238418512046337127685546875</LatitudeDegrees>
              <LongitudeDegrees>-5.8847464621067047119140625</LongitudeDegrees>
            </Position>
            <AltitudeMeters>495.399993896484375</AltitudeMeters>
            <DistanceMeters>NAN</DistanceMeters>
          </Trackpoint>
          <Trackpoint>
            <Time>2019-10-08T08:02:06.000Z</Time>
            <Position>
              <LatitudeDegrees>40.2822261862456798553466796875</LatitudeDegrees>
              <LongitudeDegrees>-5.88495089672505855560302734375</LongitudeDegrees>
            </Position>
            <AltitudeMeters>495.600006103515625</AltitudeMeters>
            <DistanceMeters>NAN</DistanceMeters>
          </Trackpoint>
          <Trackpoint>
            <Time>2019-10-08T08:02:13.000Z</Time>
            <Position>
              <LatitudeDegrees>40.28186492621898651123046875</LatitudeDegrees>
              <LongitudeDegrees>-5.88542866520583629608154296875</LongitudeDegrees>
            </Position>
            <AltitudeMeters>496.20001220703125</AltitudeMeters>
            <DistanceMeters>NAN</DistanceMeters>
          </Trackpoint>
          <Trackpoint>
            <Time>2019-10-08T08:02:14.000Z</Time>
            <Position>
              <LatitudeDegrees>40.2818127907812595367431640625</LatitudeDegrees>
              <LongitudeDegrees>-5.885495804250240325927734375</LongitudeDegrees>
            </Position>
            <AltitudeMeters>495.600006103515625</AltitudeMeters>
            <DistanceMeters>NAN</DistanceMeters>
          </Trackpoint>
          <Trackpoint>
            <Time>2019-10-08T08:02:19.000Z</Time>
            <Position>
              <LatitudeDegrees>40.28155647218227386474609375</LatitudeDegrees>
              <LongitudeDegrees>-5.88582512922585010528564453125</LongitudeDegrees>
            </Position>
            <AltitudeMeters>496.20001220703125</AltitudeMeters>
            <DistanceMeters>NAN</DistanceMeters>
          </Trackpoint>
          <Trackpoint>
            <Time>2019-10-08T08:02:22.000Z</Time>
            <Position>
              <LatitudeDegrees>40.28141054324805736541748046875</LatitudeDegrees>
              <LongitudeDegrees>-5.8860231935977935791015625</LongitudeDegrees>
            </Position>
            <AltitudeMeters>495.20001220703125</AltitudeMeters>
            <DistanceMeters>NAN</DistanceMeters>
          </Trackpoint>
          <Trackpoint>
            <Time>2019-10-08T08:02:30.000Z</Time>
            <Position>
              <LatitudeDegrees>40.28102271258831024169921875</LatitudeDegrees>
              <LongitudeDegrees>-5.88652468286454677581787109375</LongitudeDegrees>
            </Position>
            <AltitudeMeters>495.600006103515625</AltitudeMeters>
            <DistanceMeters>NAN</DistanceMeters>
          </Trackpoint>
          <Trackpoint>
            <Time>2019-10-08T08:02:31.000Z</Time>
            <Position>
              <LatitudeDegrees>40.28097418136894702911376953125</LatitudeDegrees>
              <LongitudeDegrees>-5.8865862898528575897216796875</LongitudeDegrees>
            </Position>
            <AltitudeMeters>495.79998779296875</AltitudeMeters>
            <DistanceMeters>NAN</DistanceMeters>
          </Trackpoint>
          <Trackpoint>
            <Time>2019-10-08T08:02:39.000Z</Time>
            <Position>
              <LatitudeDegrees>40.28058559633791446685791015625</LatitudeDegrees>
              <LongitudeDegrees>-5.8870965801179409027099609375</LongitudeDegrees>
            </Position>
            <AltitudeMeters>495.399993896484375</AltitudeMeters>
            <DistanceMeters>NAN</DistanceMeters>
          </Trackpoint>
          <Trackpoint>
            <Time>2019-10-08T08:02:41.000Z</Time>
            <Position>
              <LatitudeDegrees>40.2804817445576190948486328125</LatitudeDegrees>
              <LongitudeDegrees>-5.88722842745482921600341796875</LongitudeDegrees>
            </Position>
            <AltitudeMeters>495.20001220703125</AltitudeMeters>
            <DistanceMeters>NAN</DistanceMeters>
          </Trackpoint>
          <Trackpoint>
            <Time>2019-10-08T08:02:43.000Z</Time>
            <Position>
              <LatitudeDegrees>40.280375964939594268798828125</LatitudeDegrees>
              <LongitudeDegrees>-5.88736706413328647613525390625</LongitudeDegrees>
            </Position>
            <AltitudeMeters>494.600006103515625</AltitudeMeters>
            <DistanceMeters>NAN</DistanceMeters>
          </Trackpoint>
          <Trackpoint>
            <Time>2019-10-08T08:02:47.000Z</Time>
            <Position>
              <LatitudeDegrees>40.28016281314194202423095703125</LatitudeDegrees>
              <LongitudeDegrees>-5.88764634914696216583251953125</LongitudeDegrees>
            </Position>
            <AltitudeMeters>493.600006103515625</AltitudeMeters>
            <DistanceMeters>NAN</DistanceMeters>
          </Trackpoint>
          <Trackpoint>
            <Time>2019-10-08T08:02:49.000Z</Time>
            <Position>
              <LatitudeDegrees>40.28005250729620456695556640625</LatitudeDegrees>
              <LongitudeDegrees>-5.8877889253199100494384765625</LongitudeDegrees>
            </Position>
            <AltitudeMeters>493.399993896484375</AltitudeMeters>
            <DistanceMeters>NAN</DistanceMeters>
          </Trackpoint>
          <Trackpoint>
            <Time>2019-10-08T08:02:52.000Z</Time>
            <Position>
              <LatitudeDegrees>40.27988285757601261138916015625</LatitudeDegrees>
              <LongitudeDegrees>-5.88800878264009952545166015625</LongitudeDegrees>
            </Position>
            <AltitudeMeters>492.399993896484375</AltitudeMeters>
            <DistanceMeters>NAN</DistanceMeters>
          </Trackpoint>
          <Trackpoint>
            <Time>2019-10-08T08:02:58.000Z</Time>
            <Position>
              <LatitudeDegrees>40.27953936718404293060302734375</LatitudeDegrees>
              <LongitudeDegrees>-5.88845486752688884735107421875</LongitudeDegrees>
            </Position>
            <AltitudeMeters>491.399993896484375</AltitudeMeters>
            <DistanceMeters>NAN</DistanceMeters>
          </Trackpoint>
          <Trackpoint>
            <Time>2019-10-08T08:02:59.000Z</Time>
            <Position>
              <LatitudeDegrees>40.2794822864234447479248046875</LatitudeDegrees>
              <LongitudeDegrees>-5.88853013701736927032470703125</LongitudeDegrees>
            </Position>
            <AltitudeMeters>491.20001220703125</AltitudeMeters>
            <DistanceMeters>NAN</DistanceMeters>
          </Trackpoint>
          <Trackpoint>
            <Time>2019-10-08T08:03:04.000Z</Time>
            <Position>
              <LatitudeDegrees>40.27919084765017032623291015625</LatitudeDegrees>
              <LongitudeDegrees>-5.888904891908168792724609375</LongitudeDegrees>
            </Position>
            <AltitudeMeters>490.600006103515625</AltitudeMeters>
            <DistanceMeters>NAN</DistanceMeters>
          </Trackpoint>
          <Trackpoint>
            <Time>2019-10-08T08:03:05.000Z</Time>
            <Position>
              <LatitudeDegrees>40.2791309170424938201904296875</LatitudeDegrees>
              <LongitudeDegrees>-5.88898141868412494659423828125</LongitudeDegrees>
            </Position>
            <AltitudeMeters>490.20001220703125</AltitudeMeters>
            <DistanceMeters>NAN</DistanceMeters>
          </Trackpoint>
          <Trackpoint>
            <Time>2019-10-08T08:03:11.000Z</Time>
            <Position>
              <LatitudeDegrees>40.2787684835493564605712890625</LatitudeDegrees>
              <LongitudeDegrees>-5.88945181109011173248291015625</LongitudeDegrees>
            </Position>
            <AltitudeMeters>486.399993896484375</AltitudeMeters>
            <DistanceMeters>NAN</DistanceMeters>
          </Trackpoint>
          <Trackpoint>
            <Time>2019-10-08T08:03:12.000Z</Time>
            <Position>
              <LatitudeDegrees>40.2787074632942676544189453125</LatitudeDegrees>
              <LongitudeDegrees>-5.88953697122633457183837890625</LongitudeDegrees>
            </Position>
            <AltitudeMeters>488.20001220703125</AltitudeMeters>
            <DistanceMeters>NAN</DistanceMeters>
          </Trackpoint>
          <Trackpoint>
            <Time>2019-10-08T08:03:16.000Z</Time>
            <Position>
              <LatitudeDegrees>40.2784700877964496612548828125</LatitudeDegrees>
              <LongitudeDegrees>-5.889906696975231170654296875</LongitudeDegrees>
            </Position>
            <AltitudeMeters>486</AltitudeMeters>
            <DistanceMeters>NAN</DistanceMeters>
          </Trackpoint>
          <Trackpoint>
            <Time>2019-10-08T08:03:17.000Z</Time>
            <Position>
              <LatitudeDegrees>40.27841300703585147857666015625</LatitudeDegrees>
              <LongitudeDegrees>-5.89000426232814788818359375</LongitudeDegrees>
            </Position>
            <AltitudeMeters>485.79998779296875</AltitudeMeters>
            <DistanceMeters>NAN</DistanceMeters>
          </Trackpoint>
          <Trackpoint>
            <Time>2019-10-08T08:03:21.000Z</Time>
            <Position>
              <LatitudeDegrees>40.2781894616782665252685546875</LatitudeDegrees>
              <LongitudeDegrees>-5.89040550403296947479248046875</LongitudeDegrees>
            </Position>
            <AltitudeMeters>485</AltitudeMeters>
            <DistanceMeters>NAN</DistanceMeters>
          </Trackpoint>
          <Trackpoint>
            <Time>2019-10-08T08:03:22.000Z</Time>
            <Position>
              <LatitudeDegrees>40.27813422493636608123779296875</LatitudeDegrees>
              <LongitudeDegrees>-5.89050709269940853118896484375</LongitudeDegrees>
            </Position>
            <AltitudeMeters>484.399993896484375</AltitudeMeters>
            <DistanceMeters>NAN</DistanceMeters>
          </Trackpoint>
          <Trackpoint>
            <Time>2019-10-08T08:03:25.000Z</Time>
            <Position>
              <LatitudeDegrees>40.27796792797744274139404296875</LatitudeDegrees>
              <LongitudeDegrees>-5.89081294834613800048828125</LongitudeDegrees>
            </Position>
            <AltitudeMeters>483.399993896484375</AltitudeMeters>
            <DistanceMeters>NAN</DistanceMeters>
          </Trackpoint>
          <Trackpoint>
            <Time>2019-10-08T08:03:28.000Z</Time>
            <Position>
              <LatitudeDegrees>40.277800373733043670654296875</LatitudeDegrees>
              <LongitudeDegrees>-5.8911222405731678009033203125</LongitudeDegrees>
            </Position>
            <AltitudeMeters>482.399993896484375</AltitudeMeters>
            <DistanceMeters>NAN</DistanceMeters>
          </Trackpoint>
          <Trackpoint>
            <Time>2019-10-08T08:03:29.000Z</Time>
            <Position>
              <LatitudeDegrees>40.2777443826198577880859375</LatitudeDegrees>
              <LongitudeDegrees>-5.891223661601543426513671875</LongitudeDegrees>
            </Position>
            <AltitudeMeters>482.399993896484375</AltitudeMeters>
            <DistanceMeters>NAN</DistanceMeters>
          </Trackpoint>
          <Trackpoint>
            <Time>2019-10-08T08:03:35.000Z</Time>
            <Position>
              <LatitudeDegrees>40.27741321362555027008056640625</LatitudeDegrees>
              <LongitudeDegrees>-5.8918162621557712554931640625</LongitudeDegrees>
            </Position>
            <AltitudeMeters>482.20001220703125</AltitudeMeters>
            <DistanceMeters>NAN</DistanceMeters>
          </Trackpoint>
          <Trackpoint>
            <Time>2019-10-08T08:03:37.000Z</Time>
            <Position>
              <LatitudeDegrees>40.27730927802622318267822265625</LatitudeDegrees>
              <LongitudeDegrees>-5.89200317859649658203125</LongitudeDegrees>
            </Position>
            <AltitudeMeters>481.600006103515625</AltitudeMeters>
            <DistanceMeters>NAN</DistanceMeters>
          </Trackpoint>
          <Trackpoint>
            <Time>2019-10-08T08:03:44.000Z</Time>
            <Position>
              <LatitudeDegrees>40.27696645818650722503662109375</LatitudeDegrees>
              <LongitudeDegrees>-5.8926226012408733367919921875</LongitudeDegrees>
            </Position>
            <AltitudeMeters>482.399993896484375</AltitudeMeters>
            <DistanceMeters>NAN</DistanceMeters>
          </Trackpoint>
          <Trackpoint>
            <Time>2019-10-08T08:03:45.000Z</Time>
            <Position>
              <LatitudeDegrees>40.27691901661455631256103515625</LatitudeDegrees>
              <LongitudeDegrees>-5.89270734228193759918212890625</LongitudeDegrees>
            </Position>
            <AltitudeMeters>482.399993896484375</AltitudeMeters>
            <DistanceMeters>NAN</DistanceMeters>
          </Trackpoint>
          <Trackpoint>
            <Time>2019-10-08T08:03:50.000Z</Time>
            <Position>
              <LatitudeDegrees>40.27668314985930919647216796875</LatitudeDegrees>
              <LongitudeDegrees>-5.89313867501914501190185546875</LongitudeDegrees>
            </Position>
            <AltitudeMeters>481.79998779296875</AltitudeMeters>
            <DistanceMeters>NAN</DistanceMeters>
          </Trackpoint>
          <Trackpoint>
            <Time>2019-10-08T08:03:51.000Z</Time>
            <Position>
              <LatitudeDegrees>40.27663352899253368377685546875</LatitudeDegrees>
              <LongitudeDegrees>-5.89322836138308048248291015625</LongitudeDegrees>
            </Position>
            <AltitudeMeters>481.399993896484375</AltitudeMeters>
            <DistanceMeters>NAN</DistanceMeters>
          </Trackpoint>
          <Trackpoint>
            <Time>2019-10-08T08:03:53.000Z</Time>
            <Position>
              <LatitudeDegrees>40.276532359421253204345703125</LatitudeDegrees>
              <LongitudeDegrees>-5.893414355814456939697265625</LongitudeDegrees>
            </Position>
            <AltitudeMeters>480.20001220703125</AltitudeMeters>
            <DistanceMeters>NAN</DistanceMeters>
          </Trackpoint>
          <Trackpoint>
            <Time>2019-10-08T08:03:58.000Z</Time>
            <Position>
              <LatitudeDegrees>40.27626522816717624664306640625</LatitudeDegrees>
              <LongitudeDegrees>-5.8938892744481563568115234375</LongitudeDegrees>
            </Position>
            <AltitudeMeters>478.79998779296875</AltitudeMeters>
            <DistanceMeters>NAN</DistanceMeters>
          </Trackpoint>
          <Trackpoint>
            <Time>2019-10-08T08:04:00.000Z</Time>
            <Position>
              <LatitudeDegrees>40.27615659870207309722900390625</LatitudeDegrees>
              <LongitudeDegrees>-5.8940911106765270233154296875</LongitudeDegrees>
            </Position>
            <AltitudeMeters>477.600006103515625</AltitudeMeters>
            <DistanceMeters>NAN</DistanceMeters>
          </Trackpoint>
          <Trackpoint>
            <Time>2019-10-08T08:04:02.000Z</Time>
            <Position>
              <LatitudeDegrees>40.27604662813246250152587890625</LatitudeDegrees>
              <LongitudeDegrees>-5.89429453946650028228759765625</LongitudeDegrees>
            </Position>
            <AltitudeMeters>477.79998779296875</AltitudeMeters>
            <DistanceMeters>NAN</DistanceMeters>
          </Trackpoint>
          <Trackpoint>
            <Time>2019-10-08T08:04:06.000Z</Time>
            <Position>
              <LatitudeDegrees>40.27582098729908466339111328125</LatitudeDegrees>
              <LongitudeDegrees>-5.8947056718170642852783203125</LongitudeDegrees>
            </Position>
            <AltitudeMeters>476.20001220703125</AltitudeMeters>
            <DistanceMeters>NAN</DistanceMeters>
          </Trackpoint>
          <Trackpoint>
            <Time>2019-10-08T08:04:08.000Z</Time>
            <Position>
              <LatitudeDegrees>40.27570464648306369781494140625</LatitudeDegrees>
              <LongitudeDegrees>-5.89491647668182849884033203125</LongitudeDegrees>
            </Position>
            <AltitudeMeters>475</AltitudeMeters>
            <DistanceMeters>NAN</DistanceMeters>
          </Trackpoint>
          <Trackpoint>
            <Time>2019-10-08T08:04:11.000Z</Time>
            <Position>
              <LatitudeDegrees>40.27552678249776363372802734375</LatitudeDegrees>
              <LongitudeDegrees>-5.89523750357329845428466796875</LongitudeDegrees>
            </Position>
            <AltitudeMeters>474.20001220703125</AltitudeMeters>
            <DistanceMeters>NAN</DistanceMeters>
          </Trackpoint>
          <Trackpoint>
            <Time>2019-10-08T08:04:14.000Z</Time>
            <Position>
              <LatitudeDegrees>40.2753466553986072540283203125</LatitudeDegrees>
              <LongitudeDegrees>-5.89556054212152957916259765625</LongitudeDegrees>
            </Position>
            <AltitudeMeters>473.600006103515625</AltitudeMeters>
            <DistanceMeters>NAN</DistanceMeters>
          </Trackpoint>
          <Trackpoint>
            <Time>2019-10-08T08:04:16.000Z</Time>
            <Position>
              <LatitudeDegrees>40.27522520162165164947509765625</LatitudeDegrees>
              <LongitudeDegrees>-5.89577578939497470855712890625</LongitudeDegrees>
            </Position>
            <AltitudeMeters>472.600006103515625</AltitudeMeters>
            <DistanceMeters>NAN</DistanceMeters>
          </Trackpoint>
          <Trackpoint>
            <Time>2019-10-08T08:04:21.000Z</Time>
            <Position>
              <LatitudeDegrees>40.27493552304804325103759765625</LatitudeDegrees>
              <LongitudeDegrees>-5.89629429392516613006591796875</LongitudeDegrees>
            </Position>
            <AltitudeMeters>472.399993896484375</AltitudeMeters>
            <DistanceMeters>NAN</DistanceMeters>
          </Trackpoint>
          <Trackpoint>
            <Time>2019-10-08T08:04:27.000Z</Time>
            <Position>
              <LatitudeDegrees>40.27461365796625614166259765625</LatitudeDegrees>
              <LongitudeDegrees>-5.8968685381114482879638671875</LongitudeDegrees>
            </Position>
            <AltitudeMeters>473</AltitudeMeters>
            <DistanceMeters>NAN</DistanceMeters>
          </Trackpoint>
          <Trackpoint>
            <Time>2019-10-08T08:04:28.000Z</Time>
            <Position>
              <LatitudeDegrees>40.274563618004322052001953125</LatitudeDegrees>
              <LongitudeDegrees>-5.89696115814149379730224609375</LongitudeDegrees>
            </Position>
            <AltitudeMeters>472.600006103515625</AltitudeMeters>
            <DistanceMeters>NAN</DistanceMeters>
          </Trackpoint>
          <Trackpoint>
            <Time>2019-10-08T08:04:32.000Z</Time>
            <Position>
              <LatitudeDegrees>40.2743552438914775848388671875</LatitudeDegrees>
              <LongitudeDegrees>-5.89733901433646678924560546875</LongitudeDegrees>
            </Position>
            <AltitudeMeters>471.600006103515625</AltitudeMeters>
            <DistanceMeters>NAN</DistanceMeters>
          </Trackpoint>
          <Trackpoint>
            <Time>2019-10-08T08:04:36.000Z</Time>
            <Position>
              <LatitudeDegrees>40.2741329558193683624267578125</LatitudeDegrees>
              <LongitudeDegrees>-5.89774268679320812225341796875</LongitudeDegrees>
            </Position>
            <AltitudeMeters>470</AltitudeMeters>
            <DistanceMeters>NAN</DistanceMeters>
          </Trackpoint>
          <Trackpoint>
            <Time>2019-10-08T08:04:40.000Z</Time>
            <Position>
              <LatitudeDegrees>40.2739016152918338775634765625</LatitudeDegrees>
              <LongitudeDegrees>-5.8981494605541229248046875</LongitudeDegrees>
            </Position>
            <AltitudeMeters>468.79998779296875</AltitudeMeters>
            <DistanceMeters>NAN</DistanceMeters>
          </Trackpoint>
          <Trackpoint>
            <Time>2019-10-08T08:04:42.000Z</Time>
            <Position>
              <LatitudeDegrees>40.27378477156162261962890625</LatitudeDegrees>
              <LongitudeDegrees>-5.8983559906482696533203125</LongitudeDegrees>
            </Position>
            <AltitudeMeters>467.600006103515625</AltitudeMeters>
            <DistanceMeters>NAN</DistanceMeters>
          </Trackpoint>
          <Trackpoint>
            <Time>2019-10-08T08:04:45.000Z</Time>
            <Position>
              <LatitudeDegrees>40.2736095897853374481201171875</LatitudeDegrees>
              <LongitudeDegrees>-5.89867115020751953125</LongitudeDegrees>
            </Position>
            <AltitudeMeters>467.399993896484375</AltitudeMeters>
            <DistanceMeters>NAN</DistanceMeters>
          </Trackpoint>
          <Trackpoint>
            <Time>2019-10-08T08:04:47.000Z</Time>
            <Position>
              <LatitudeDegrees>40.27349450625479221343994140625</LatitudeDegrees>
              <LongitudeDegrees>-5.89888748712837696075439453125</LongitudeDegrees>
            </Position>
            <AltitudeMeters>466</AltitudeMeters>
            <DistanceMeters>NAN</DistanceMeters>
          </Trackpoint>
          <Trackpoint>
            <Time>2019-10-08T08:04:52.000Z</Time>
            <Position>
              <LatitudeDegrees>40.27319870889186859130859375</LatitudeDegrees>
              <LongitudeDegrees>-5.89942543767392635345458984375</LongitudeDegrees>
            </Position>
            <AltitudeMeters>464.20001220703125</AltitudeMeters>
            <DistanceMeters>NAN</DistanceMeters>
          </Trackpoint>
          <Trackpoint>
            <Time>2019-10-08T08:04:56.000Z</Time>
            <Position>
              <LatitudeDegrees>40.272963009774684906005859375</LatitudeDegrees>
              <LongitudeDegrees>-5.89987135492265224456787109375</LongitudeDegrees>
            </Position>
            <AltitudeMeters>463.20001220703125</AltitudeMeters>
            <DistanceMeters>NAN</DistanceMeters>
          </Trackpoint>
          <Trackpoint>
            <Time>2019-10-08T08:04:59.000Z</Time>
            <Position>
              <LatitudeDegrees>40.27278573252260684967041015625</LatitudeDegrees>
              <LongitudeDegrees>-5.90021685697138309478759765625</LongitudeDegrees>
            </Position>
            <AltitudeMeters>461.79998779296875</AltitudeMeters>
            <DistanceMeters>NAN</DistanceMeters>
          </Trackpoint>
          <Trackpoint>
            <Time>2019-10-08T08:05:00.000Z</Time>
            <Position>
              <LatitudeDegrees>40.2727274782955646514892578125</LatitudeDegrees>
              <LongitudeDegrees>-5.9003376401960849761962890625</LongitudeDegrees>
            </Position>
            <AltitudeMeters>461</AltitudeMeters>
            <DistanceMeters>NAN</DistanceMeters>
          </Trackpoint>
          <Trackpoint>
            <Time>2019-10-08T08:05:01.000Z</Time>
            <Position>
              <LatitudeDegrees>40.27267140336334705352783203125</LatitudeDegrees>
              <LongitudeDegrees>-5.90046043507754802703857421875</LongitudeDegrees>
            </Position>
            <AltitudeMeters>460.399993896484375</AltitudeMeters>
            <DistanceMeters>NAN</DistanceMeters>
          </Trackpoint>
          <Trackpoint>
            <Time>2019-10-08T08:05:03.000Z</Time>
            <Position>
              <LatitudeDegrees>40.27256646193563938140869140625</LatitudeDegrees>
              <LongitudeDegrees>-5.90071792714297771453857421875</LongitudeDegrees>
            </Position>
            <AltitudeMeters>459.399993896484375</AltitudeMeters>
            <DistanceMeters>NAN</DistanceMeters>
          </Trackpoint>
          <Trackpoint>
            <Time>2019-10-08T08:05:05.000Z</Time>
            <Position>
              <LatitudeDegrees>40.2724709920585155487060546875</LatitudeDegrees>
              <LongitudeDegrees>-5.9009870700538158416748046875</LongitudeDegrees>
            </Position>
            <AltitudeMeters>457.79998779296875</AltitudeMeters>
            <DistanceMeters>NAN</DistanceMeters>
          </Trackpoint>
          <Trackpoint>
            <Time>2019-10-08T08:05:06.000Z</Time>
            <Position>
              <LatitudeDegrees>40.2724230475723743438720703125</LatitudeDegrees>
              <LongitudeDegrees>-5.90112394653260707855224609375</LongitudeDegrees>
            </Position>
            <AltitudeMeters>457</AltitudeMeters>
            <DistanceMeters>NAN</DistanceMeters>
          </Trackpoint>
          <Trackpoint>
            <Time>2019-10-08T08:05:07.000Z</Time>
            <Position>
              <LatitudeDegrees>40.272374935448169708251953125</LatitudeDegrees>
              <LongitudeDegrees>-5.9012633375823497772216796875</LongitudeDegrees>
            </Position>
            <AltitudeMeters>456.79998779296875</AltitudeMeters>
            <DistanceMeters>NAN</DistanceMeters>
          </Trackpoint>
          <Trackpoint>
            <Time>2019-10-08T08:05:09.000Z</Time>
            <Position>
              <LatitudeDegrees>40.2722815610468387603759765625</LatitudeDegrees>
              <LongitudeDegrees>-5.90154488570988178253173828125</LongitudeDegrees>
            </Position>
            <AltitudeMeters>454.79998779296875</AltitudeMeters>
            <DistanceMeters>NAN</DistanceMeters>
          </Trackpoint>
          <Trackpoint>
            <Time>2019-10-08T08:05:11.000Z</Time>
            <Position>
              <LatitudeDegrees>40.2721863426268100738525390625</LatitudeDegrees>
              <LongitudeDegrees>-5.9018299542367458343505859375</LongitudeDegrees>
            </Position>
            <AltitudeMeters>453.399993896484375</AltitudeMeters>
            <DistanceMeters>NAN</DistanceMeters>
          </Trackpoint>
          <Trackpoint>
            <Time>2019-10-08T08:05:14.000Z</Time>
            <Position>
              <LatitudeDegrees>40.27204108424484729766845703125</LatitudeDegrees>
              <LongitudeDegrees>-5.90225768275558948516845703125</LongitudeDegrees>
            </Position>
            <AltitudeMeters>451.79998779296875</AltitudeMeters>
            <DistanceMeters>NAN</DistanceMeters>
          </Trackpoint>
          <Trackpoint>
            <Time>2019-10-08T08:05:16.000Z</Time>
            <Position>
              <LatitudeDegrees>40.27194737456738948822021484375</LatitudeDegrees>
              <LongitudeDegrees>-5.90254358947277069091796875</LongitudeDegrees>
            </Position>
            <AltitudeMeters>450.79998779296875</AltitudeMeters>
            <DistanceMeters>NAN</DistanceMeters>
          </Trackpoint>
          <Trackpoint>
            <Time>2019-10-08T08:05:17.000Z</Time>
            <Position>
              <LatitudeDegrees>40.2718986757099628448486328125</LatitudeDegrees>
              <LongitudeDegrees>-5.9026859141886234283447265625</LongitudeDegrees>
            </Position>
            <AltitudeMeters>449.600006103515625</AltitudeMeters>
            <DistanceMeters>NAN</DistanceMeters>
          </Trackpoint>
          <Trackpoint>
            <Time>2019-10-08T08:05:21.000Z</Time>
            <Position>
              <LatitudeDegrees>40.27170698158442974090576171875</LatitudeDegrees>
              <LongitudeDegrees>-5.90325110591948032379150390625</LongitudeDegrees>
            </Position>
            <AltitudeMeters>447.79998779296875</AltitudeMeters>
            <DistanceMeters>NAN</DistanceMeters>
          </Trackpoint>
          <Trackpoint>
            <Time>2019-10-08T08:05:24.000Z</Time>
            <Position>
              <LatitudeDegrees>40.271564237773418426513671875</LatitudeDegrees>
              <LongitudeDegrees>-5.90365561656653881072998046875</LongitudeDegrees>
            </Position>
            <AltitudeMeters>447</AltitudeMeters>
            <DistanceMeters>NAN</DistanceMeters>
          </Trackpoint>
          <Trackpoint>
            <Time>2019-10-08T08:05:25.000Z</Time>
            <Position>
              <LatitudeDegrees>40.2715131081640720367431640625</LatitudeDegrees>
              <LongitudeDegrees>-5.90378277003765106201171875</LongitudeDegrees>
            </Position>
            <AltitudeMeters>446.79998779296875</AltitudeMeters>
            <DistanceMeters>NAN</DistanceMeters>
          </Trackpoint>
          <Trackpoint>
            <Time>2019-10-08T08:05:26.000Z</Time>
            <Position>
              <LatitudeDegrees>40.27145435102283954620361328125</LatitudeDegrees>
              <LongitudeDegrees>-5.9038996137678623199462890625</LongitudeDegrees>
            </Position>
            <AltitudeMeters>447</AltitudeMeters>
            <DistanceMeters>NAN</DistanceMeters>
          </Trackpoint>
          <Trackpoint>
            <Time>2019-10-08T08:05:28.000Z</Time>
            <Position>
              <LatitudeDegrees>40.271325521171092987060546875</LatitudeDegrees>
              <LongitudeDegrees>-5.90411209501326084136962890625</LongitudeDegrees>
            </Position>
            <AltitudeMeters>448</AltitudeMeters>
            <DistanceMeters>NAN</DistanceMeters>
          </Trackpoint>
          <Trackpoint>
            <Time>2019-10-08T08:05:33.000Z</Time>
            <Position>
              <LatitudeDegrees>40.270954035222530364990234375</LatitudeDegrees>
              <LongitudeDegrees>-5.90453102253377437591552734375</LongitudeDegrees>
            </Position>
            <AltitudeMeters>447</AltitudeMeters>
            <DistanceMeters>NAN</DistanceMeters>
          </Trackpoint>
          <Trackpoint>
            <Time>2019-10-08T08:05:37.000Z</Time>
            <Position>
              <LatitudeDegrees>40.27062202803790569305419921875</LatitudeDegrees>
              <LongitudeDegrees>-5.9047760255634784698486328125</LongitudeDegrees>
            </Position>
            <AltitudeMeters>446.399993896484375</AltitudeMeters>
            <DistanceMeters>NAN</DistanceMeters>
          </Trackpoint>
          <Trackpoint>
            <Time>2019-10-08T08:05:38.000Z</Time>
            <Position>
              <LatitudeDegrees>40.2705418132245540618896484375</LatitudeDegrees>
              <LongitudeDegrees>-5.90483444742858409881591796875</LongitudeDegrees>
            </Position>
            <AltitudeMeters>446.20001220703125</AltitudeMeters>
            <DistanceMeters>NAN</DistanceMeters>
          </Trackpoint>
          <Trackpoint>
            <Time>2019-10-08T08:05:44.000Z</Time>
            <Position>
              <LatitudeDegrees>40.2701062895357608795166015625</LatitudeDegrees>
              <LongitudeDegrees>-5.90523342601954936981201171875</LongitudeDegrees>
            </Position>
            <AltitudeMeters>446.20001220703125</AltitudeMeters>
            <DistanceMeters>NAN</DistanceMeters>
          </Trackpoint>
          <Trackpoint>
            <Time>2019-10-08T08:05:49.000Z</Time>
            <Position>
              <LatitudeDegrees>40.2698050439357757568359375</LatitudeDegrees>
              <LongitudeDegrees>-5.90562603436410427093505859375</LongitudeDegrees>
            </Position>
            <AltitudeMeters>446</AltitudeMeters>
            <DistanceMeters>NAN</DistanceMeters>
          </Trackpoint>
          <Trackpoint>
            <Time>2019-10-08T08:05:50.000Z</Time>
            <Position>
              <LatitudeDegrees>40.26974913664162158966064453125</LatitudeDegrees>
              <LongitudeDegrees>-5.90570650063455104827880859375</LongitudeDegrees>
            </Position>
            <AltitudeMeters>445.79998779296875</AltitudeMeters>
            <DistanceMeters>NAN</DistanceMeters>
          </Trackpoint>
          <Trackpoint>
            <Time>2019-10-08T08:05:57.000Z</Time>
            <Position>
              <LatitudeDegrees>40.26937790215015411376953125</LatitudeDegrees>
              <LongitudeDegrees>-5.906244702637195587158203125</LongitudeDegrees>
            </Position>
            <AltitudeMeters>446.600006103515625</AltitudeMeters>
            <DistanceMeters>NAN</DistanceMeters>
          </Trackpoint>
          <Trackpoint>
            <Time>2019-10-08T08:05:59.000Z</Time>
            <Position>
              <LatitudeDegrees>40.269278995692729949951171875</LatitudeDegrees>
              <LongitudeDegrees>-5.9063910506665706634521484375</LongitudeDegrees>
            </Position>
            <AltitudeMeters>446.399993896484375</AltitudeMeters>
            <DistanceMeters>NAN</DistanceMeters>
          </Trackpoint>
          <Trackpoint>
            <Time>2019-10-08T08:06:06.000Z</Time>
            <Position>
              <LatitudeDegrees>40.2689351700246334075927734375</LatitudeDegrees>
              <LongitudeDegrees>-5.90691014192998409271240234375</LongitudeDegrees>
            </Position>
            <AltitudeMeters>446</AltitudeMeters>
            <DistanceMeters>NAN</DistanceMeters>
          </Trackpoint>
          <Trackpoint>
            <Time>2019-10-08T08:06:09.000Z</Time>
            <Position>
              <LatitudeDegrees>40.26879452168941497802734375</LatitudeDegrees>
              <LongitudeDegrees>-5.90712622739374637603759765625</LongitudeDegrees>
            </Position>
            <AltitudeMeters>446.79998779296875</AltitudeMeters>
            <DistanceMeters>NAN</DistanceMeters>
          </Trackpoint>
          <Trackpoint>
            <Time>2019-10-08T08:06:13.000Z</Time>
            <Position>
              <LatitudeDegrees>40.2686226926743984222412109375</LatitudeDegrees>
              <LongitudeDegrees>-5.90741188265383243560791015625</LongitudeDegrees>
            </Position>
            <AltitudeMeters>447</AltitudeMeters>
            <DistanceMeters>NAN</DistanceMeters>
          </Trackpoint>
          <Trackpoint>
            <Time>2019-10-08T08:06:17.000Z</Time>
            <Position>
              <LatitudeDegrees>40.26847559027373790740966796875</LatitudeDegrees>
              <LongitudeDegrees>-5.907703824341297149658203125</LongitudeDegrees>
            </Position>
            <AltitudeMeters>447.79998779296875</AltitudeMeters>
            <DistanceMeters>NAN</DistanceMeters>
          </Trackpoint>
          <Trackpoint>
            <Time>2019-10-08T08:06:22.000Z</Time>
            <Position>
              <LatitudeDegrees>40.2683122269809246063232421875</LatitudeDegrees>
              <LongitudeDegrees>-5.90807908214628696441650390625</LongitudeDegrees>
            </Position>
            <AltitudeMeters>448</AltitudeMeters>
            <DistanceMeters>NAN</DistanceMeters>
          </Trackpoint>
          <Trackpoint>
            <Time>2019-10-08T08:06:26.000Z</Time>
            <Position>
              <LatitudeDegrees>40.26818440295755863189697265625</LatitudeDegrees>
              <LongitudeDegrees>-5.9083713591098785400390625</LongitudeDegrees>
            </Position>
            <AltitudeMeters>448.399993896484375</AltitudeMeters>
            <DistanceMeters>NAN</DistanceMeters>
          </Trackpoint>
          <Trackpoint>
            <Time>2019-10-08T08:06:30.000Z</Time>
            <Position>
              <LatitudeDegrees>40.26806001551449298858642578125</LatitudeDegrees>
              <LongitudeDegrees>-5.908661372959613800048828125</LongitudeDegrees>
            </Position>
            <AltitudeMeters>449.20001220703125</AltitudeMeters>
            <DistanceMeters>NAN</DistanceMeters>
          </Trackpoint>
          <Trackpoint>
            <Time>2019-10-08T08:06:35.000Z</Time>
            <Position>
              <LatitudeDegrees>40.26791132055222988128662109375</LatitudeDegrees>
              <LongitudeDegrees>-5.90899891220033168792724609375</LongitudeDegrees>
            </Position>
            <AltitudeMeters>449</AltitudeMeters>
            <DistanceMeters>NAN</DistanceMeters>
          </Trackpoint>
          <Trackpoint>
            <Time>2019-10-08T08:06:42.000Z</Time>
            <Position>
              <LatitudeDegrees>40.26768635027110576629638671875</LatitudeDegrees>
              <LongitudeDegrees>-5.9095059335231781005859375</LongitudeDegrees>
            </Position>
            <AltitudeMeters>448.79998779296875</AltitudeMeters>
            <DistanceMeters>NAN</DistanceMeters>
          </Trackpoint>
          <Trackpoint>
            <Time>2019-10-08T08:06:50.000Z</Time>
            <Position>
              <LatitudeDegrees>40.2674339711666107177734375</LatitudeDegrees>
              <LongitudeDegrees>-5.91009895317256450653076171875</LongitudeDegrees>
            </Position>
            <AltitudeMeters>449.399993896484375</AltitudeMeters>
            <DistanceMeters>NAN</DistanceMeters>
          </Trackpoint>
          <Trackpoint>
            <Time>2019-10-08T08:06:54.000Z</Time>
            <Position>
              <LatitudeDegrees>40.26730455458164215087890625</LatitudeDegrees>
              <LongitudeDegrees>-5.910400114953517913818359375</LongitudeDegrees>
            </Position>
            <AltitudeMeters>449.20001220703125</AltitudeMeters>
            <DistanceMeters>NAN</DistanceMeters>
          </Trackpoint>
          <Trackpoint>
            <Time>2019-10-08T08:07:02.000Z</Time>
            <Position>
              <LatitudeDegrees>40.26703289709985256195068359375</LatitudeDegrees>
              <LongitudeDegrees>-5.9109918773174285888671875</LongitudeDegrees>
            </Position>
            <AltitudeMeters>449.399993896484375</AltitudeMeters>
            <DistanceMeters>NAN</DistanceMeters>
          </Trackpoint>
          <Trackpoint>
            <Time>2019-10-08T08:07:10.000Z</Time>
            <Position>
              <LatitudeDegrees>40.26671321131289005279541015625</LatitudeDegrees>
              <LongitudeDegrees>-5.91158875264227390289306640625</LongitudeDegrees>
            </Position>
            <AltitudeMeters>448.79998779296875</AltitudeMeters>
            <DistanceMeters>NAN</DistanceMeters>
          </Trackpoint>
          <Trackpoint>
            <Time>2019-10-08T08:07:17.000Z</Time>
            <Position>
              <LatitudeDegrees>40.26636100374162197113037109375</LatitudeDegrees>
              <LongitudeDegrees>-5.91205227188766002655029296875</LongitudeDegrees>
            </Position>
            <AltitudeMeters>448</AltitudeMeters>
            <DistanceMeters>NAN</DistanceMeters>
          </Trackpoint>
          <Trackpoint>
            <Time>2019-10-08T08:07:19.000Z</Time>
            <Position>
              <LatitudeDegrees>40.26625891216099262237548828125</LatitudeDegrees>
              <LongitudeDegrees>-5.9121738933026790618896484375</LongitudeDegrees>
            </Position>
            <AltitudeMeters>448.20001220703125</AltitudeMeters>
            <DistanceMeters>NAN</DistanceMeters>
          </Trackpoint>
          <Trackpoint>
            <Time>2019-10-08T08:07:27.000Z</Time>
            <Position>
              <LatitudeDegrees>40.26586554944515228271484375</LatitudeDegrees>
              <LongitudeDegrees>-5.91263540089130401611328125</LongitudeDegrees>
            </Position>
            <AltitudeMeters>448.79998779296875</AltitudeMeters>
            <DistanceMeters>NAN</DistanceMeters>
          </Trackpoint>
          <Trackpoint>
            <Time>2019-10-08T08:07:28.000Z</Time>
            <Position>
              <LatitudeDegrees>40.26581970043480396270751953125</LatitudeDegrees>
              <LongitudeDegrees>-5.91269399039447307586669921875</LongitudeDegrees>
            </Position>
            <AltitudeMeters>448.79998779296875</AltitudeMeters>
            <DistanceMeters>NAN</DistanceMeters>
          </Trackpoint>
          <Trackpoint>
            <Time>2019-10-08T08:07:30.000Z</Time>
            <Position>
              <LatitudeDegrees>40.26573412120342254638671875</LatitudeDegrees>
              <LongitudeDegrees>-5.9128182940185070037841796875</LongitudeDegrees>
            </Position>
            <AltitudeMeters>449</AltitudeMeters>
            <DistanceMeters>NAN</DistanceMeters>
          </Trackpoint>
          <Trackpoint>
            <Time>2019-10-08T08:07:35.000Z</Time>
            <Position>
              <LatitudeDegrees>40.26554477401077747344970703125</LatitudeDegrees>
              <LongitudeDegrees>-5.9131658077239990234375</LongitudeDegrees>
            </Position>
            <AltitudeMeters>448.79998779296875</AltitudeMeters>
            <DistanceMeters>NAN</DistanceMeters>
          </Trackpoint>
          <Trackpoint>
            <Time>2019-10-08T08:07:42.000Z</Time>
            <Position>
              <LatitudeDegrees>40.26527278125286102294921875</LatitudeDegrees>
              <LongitudeDegrees>-5.91366025619208812713623046875</LongitudeDegrees>
            </Position>
            <AltitudeMeters>449.20001220703125</AltitudeMeters>
            <DistanceMeters>NAN</DistanceMeters>
          </Trackpoint>
          <Trackpoint>
            <Time>2019-10-08T08:07:46.000Z</Time>
            <Position>
              <LatitudeDegrees>40.26507966220378875732421875</LatitudeDegrees>
              <LongitudeDegrees>-5.9139047563076019287109375</LongitudeDegrees>
            </Position>
            <AltitudeMeters>449.20001220703125</AltitudeMeters>
            <DistanceMeters>NAN</DistanceMeters>
          </Trackpoint>
          <Trackpoint>
            <Time>2019-10-08T08:07:48.000Z</Time>
            <Position>
              <LatitudeDegrees>40.26497513987123966217041015625</LatitudeDegrees>
              <LongitudeDegrees>-5.91399662196636199951171875</LongitudeDegrees>
            </Position>
            <AltitudeMeters>449.399993896484375</AltitudeMeters>
            <DistanceMeters>NAN</DistanceMeters>
          </Trackpoint>
          <Trackpoint>
            <Time>2019-10-08T08:07:51.000Z</Time>
            <Position>
              <LatitudeDegrees>40.264809764921665191650390625</LatitudeDegrees>
              <LongitudeDegrees>-5.9141027368605136871337890625</LongitudeDegrees>
            </Position>
            <AltitudeMeters>450.399993896484375</AltitudeMeters>
            <DistanceMeters>NAN</DistanceMeters>
          </Trackpoint>
          <Trackpoint>
            <Time>2019-10-08T08:07:54.000Z</Time>
            <Position>
              <LatitudeDegrees>40.2646416239440441131591796875</LatitudeDegrees>
              <LongitudeDegrees>-5.9141731448471546173095703125</LongitudeDegrees>
            </Position>
            <AltitudeMeters>450.79998779296875</AltitudeMeters>
            <DistanceMeters>NAN</DistanceMeters>
          </Trackpoint>
          <Trackpoint>
            <Time>2019-10-08T08:08:00.000Z</Time>
            <Position>
              <LatitudeDegrees>40.2642962895333766937255859375</LatitudeDegrees>
              <LongitudeDegrees>-5.9142200835049152374267578125</LongitudeDegrees>
            </Position>
            <AltitudeMeters>451.600006103515625</AltitudeMeters>
            <DistanceMeters>NAN</DistanceMeters>
          </Trackpoint>
          <Trackpoint>
            <Time>2019-10-08T08:08:01.000Z</Time>
            <Position>
              <LatitudeDegrees>40.26423937641084194183349609375</LatitudeDegrees>
              <LongitudeDegrees>-5.914212875068187713623046875</LongitudeDegrees>
            </Position>
            <AltitudeMeters>451.600006103515625</AltitudeMeters>
            <DistanceMeters>NAN</DistanceMeters>
          </Trackpoint>
          <Trackpoint>
            <Time>2019-10-08T08:08:07.000Z</Time>
            <Position>
              <LatitudeDegrees>40.26389974169433116912841796875</LatitudeDegrees>
              <LongitudeDegrees>-5.9141650982201099395751953125</LongitudeDegrees>
            </Position>
            <AltitudeMeters>451.600006103515625</AltitudeMeters>
            <DistanceMeters>NAN</DistanceMeters>
          </Trackpoint>
          <Trackpoint>
            <Time>2019-10-08T08:08:09.000Z</Time>
            <Position>
              <LatitudeDegrees>40.26378977112472057342529296875</LatitudeDegrees>
              <LongitudeDegrees>-5.91416719369590282440185546875</LongitudeDegrees>
            </Position>
            <AltitudeMeters>451.79998779296875</AltitudeMeters>
            <DistanceMeters>NAN</DistanceMeters>
          </Trackpoint>
          <Trackpoint>
            <Time>2019-10-08T08:08:11.000Z</Time>
            <Position>
              <LatitudeDegrees>40.263693630695343017578125</LatitudeDegrees>
              <LongitudeDegrees>-5.91424246318638324737548828125</LongitudeDegrees>
            </Position>
            <AltitudeMeters>452</AltitudeMeters>
            <DistanceMeters>NAN</DistanceMeters>
          </Trackpoint>
          <Trackpoint>
            <Time>2019-10-08T08:08:14.000Z</Time>
            <Position>
              <LatitudeDegrees>40.2636294253170490264892578125</LatitudeDegrees>
              <LongitudeDegrees>-5.91446064412593841552734375</LongitudeDegrees>
            </Position>
            <AltitudeMeters>452.399993896484375</AltitudeMeters>
            <DistanceMeters>NAN</DistanceMeters>
          </Trackpoint>
          <Trackpoint>
            <Time>2019-10-08T08:08:17.000Z</Time>
            <Position>
              <LatitudeDegrees>40.26368147693574428558349609375</LatitudeDegrees>
              <LongitudeDegrees>-5.91470338404178619384765625</LongitudeDegrees>
            </Position>
            <AltitudeMeters>451.79998779296875</AltitudeMeters>
            <DistanceMeters>NAN</DistanceMeters>
          </Trackpoint>
          <Trackpoint>
            <Time>2019-10-08T08:08:25.000Z</Time>
            <Position>
              <LatitudeDegrees>40.2638533897697925567626953125</LatitudeDegrees>
              <LongitudeDegrees>-5.91537133790552616119384765625</LongitudeDegrees>
            </Position>
            <AltitudeMeters>450.600006103515625</AltitudeMeters>
            <DistanceMeters>NAN</DistanceMeters>
          </Trackpoint>
          <Trackpoint>
            <Time>2019-10-08T08:08:26.000Z</Time>
            <Position>
              <LatitudeDegrees>40.26387778110802173614501953125</LatitudeDegrees>
              <LongitudeDegrees>-5.91546203009784221649169921875</LongitudeDegrees>
            </Position>
            <AltitudeMeters>450.20001220703125</AltitudeMeters>
            <DistanceMeters>NAN</DistanceMeters>
          </Trackpoint>
          <Trackpoint>
            <Time>2019-10-08T08:08:29.000Z</Time>
            <Position>
              <LatitudeDegrees>40.2639365382492542266845703125</LatitudeDegrees>
              <LongitudeDegrees>-5.91575288213789463043212890625</LongitudeDegrees>
            </Position>
            <AltitudeMeters>449</AltitudeMeters>
            <DistanceMeters>NAN</DistanceMeters>
          </Trackpoint>
          <Trackpoint>
            <Time>2019-10-08T08:08:30.000Z</Time>
            <Position>
              <LatitudeDegrees>40.2639569900929927825927734375</LatitudeDegrees>
              <LongitudeDegrees>-5.91585363261401653289794921875</LongitudeDegrees>
            </Position>
            <AltitudeMeters>448</AltitudeMeters>
            <DistanceMeters>NAN</DistanceMeters>
          </Trackpoint>
          <Trackpoint>
            <Time>2019-10-08T08:08:31.000Z</Time>
            <Position>
              <LatitudeDegrees>40.26398439891636371612548828125</LatitudeDegrees>
              <LongitudeDegrees>-5.91595522128045558929443359375</LongitudeDegrees>
            </Position>
            <AltitudeMeters>447.79998779296875</AltitudeMeters>
            <DistanceMeters>NAN</DistanceMeters>
          </Trackpoint>
          <Trackpoint>
            <Time>2019-10-08T08:08:33.000Z</Time>
            <Position>
              <LatitudeDegrees>40.26404642499983310699462890625</LatitudeDegrees>
              <LongitudeDegrees>-5.91616275720298290252685546875</LongitudeDegrees>
            </Position>
            <AltitudeMeters>446.600006103515625</AltitudeMeters>
            <DistanceMeters>NAN</DistanceMeters>
          </Trackpoint>
          <Trackpoint>
            <Time>2019-10-08T08:08:36.000Z</Time>
            <Position>
              <LatitudeDegrees>40.2641484327614307403564453125</LatitudeDegrees>
              <LongitudeDegrees>-5.91646157205104827880859375</LongitudeDegrees>
            </Position>
            <AltitudeMeters>445.399993896484375</AltitudeMeters>
            <DistanceMeters>NAN</DistanceMeters>
          </Trackpoint>
          <Trackpoint>
            <Time>2019-10-08T08:08:37.000Z</Time>
            <Position>
              <LatitudeDegrees>40.2642121352255344390869140625</LatitudeDegrees>
              <LongitudeDegrees>-5.91653172858059406280517578125</LongitudeDegrees>
            </Position>
            <AltitudeMeters>445.600006103515625</AltitudeMeters>
            <DistanceMeters>NAN</DistanceMeters>
          </Trackpoint>
          <Trackpoint>
            <Time>2019-10-08T08:08:40.000Z</Time>
            <Position>
              <LatitudeDegrees>40.2643385343253612518310546875</LatitudeDegrees>
              <LongitudeDegrees>-5.9167755581438541412353515625</LongitudeDegrees>
            </Position>
            <AltitudeMeters>445.20001220703125</AltitudeMeters>
            <DistanceMeters>NAN</DistanceMeters>
          </Trackpoint>
          <Trackpoint>
            <Time>2019-10-08T08:08:42.000Z</Time>
            <Position>
              <LatitudeDegrees>40.26428078301250934600830078125</LatitudeDegrees>
              <LongitudeDegrees>-5.916958115994930267333984375</LongitudeDegrees>
            </Position>
            <AltitudeMeters>445</AltitudeMeters>
            <DistanceMeters>NAN</DistanceMeters>
          </Trackpoint>
          <Trackpoint>
            <Time>2019-10-08T08:08:44.000Z</Time>
            <Position>
              <LatitudeDegrees>40.26414893567562103271484375</LatitudeDegrees>
              <LongitudeDegrees>-5.917056016623973846435546875</LongitudeDegrees>
            </Position>
            <AltitudeMeters>445.600006103515625</AltitudeMeters>
            <DistanceMeters>NAN</DistanceMeters>
          </Trackpoint>
          <Trackpoint>
            <Time>2019-10-08T08:08:45.000Z</Time>
            <Position>
              <LatitudeDegrees>40.2640800364315509796142578125</LatitudeDegrees>
              <LongitudeDegrees>-5.917097590863704681396484375</LongitudeDegrees>
            </Position>
            <AltitudeMeters>446.20001220703125</AltitudeMeters>
            <DistanceMeters>NAN</DistanceMeters>
          </Trackpoint>
          <Trackpoint>
            <Time>2019-10-08T08:08:46.000Z</Time>
            <Position>
              <LatitudeDegrees>40.26402446441352367401123046875</LatitudeDegrees>
              <LongitudeDegrees>-5.9171725250780582427978515625</LongitudeDegrees>
            </Position>
            <AltitudeMeters>445.20001220703125</AltitudeMeters>
            <DistanceMeters>NAN</DistanceMeters>
          </Trackpoint>
          <Trackpoint>
            <Time>2019-10-08T08:08:47.000Z</Time>
            <Position>
              <LatitudeDegrees>40.2639848180115222930908203125</LatitudeDegrees>
              <LongitudeDegrees>-5.91727017425000667572021484375</LongitudeDegrees>
            </Position>
            <AltitudeMeters>444.399993896484375</AltitudeMeters>
            <DistanceMeters>NAN</DistanceMeters>
          </Trackpoint>
          <Trackpoint>
            <Time>2019-10-08T08:08:48.000Z</Time>
            <Position>
              <LatitudeDegrees>40.2639462612569332122802734375</LatitudeDegrees>
              <LongitudeDegrees>-5.91737209819257259368896484375</LongitudeDegrees>
            </Position>
            <AltitudeMeters>443.79998779296875</AltitudeMeters>
            <DistanceMeters>NAN</DistanceMeters>
          </Trackpoint>
          <Trackpoint>
            <Time>2019-10-08T08:08:51.000Z</Time>
            <Position>
              <LatitudeDegrees>40.26382346637547016143798828125</LatitudeDegrees>
              <LongitudeDegrees>-5.9176893532276153564453125</LongitudeDegrees>
            </Position>
            <AltitudeMeters>442.399993896484375</AltitudeMeters>
            <DistanceMeters>NAN</DistanceMeters>
          </Trackpoint>
          <Trackpoint>
            <Time>2019-10-08T08:08:53.000Z</Time>
            <Position>
              <LatitudeDegrees>40.26373595930635929107666015625</LatitudeDegrees>
              <LongitudeDegrees>-5.9179158322513103485107421875</LongitudeDegrees>
            </Position>
            <AltitudeMeters>441</AltitudeMeters>
            <DistanceMeters>NAN</DistanceMeters>
          </Trackpoint>
          <Trackpoint>
            <Time>2019-10-08T08:08:56.000Z</Time>
            <Position>
              <LatitudeDegrees>40.263597406446933746337890625</LatitudeDegrees>
              <LongitudeDegrees>-5.91825622133910655975341796875</LongitudeDegrees>
            </Position>
            <AltitudeMeters>439.399993896484375</AltitudeMeters>
            <DistanceMeters>NAN</DistanceMeters>
          </Trackpoint>
          <Trackpoint>
            <Time>2019-10-08T08:09:01.000Z</Time>
            <Position>
              <LatitudeDegrees>40.2633677423000335693359375</LatitudeDegrees>
              <LongitudeDegrees>-5.9188187308609485626220703125</LongitudeDegrees>
            </Position>
            <AltitudeMeters>438</AltitudeMeters>
            <DistanceMeters>NAN</DistanceMeters>
          </Trackpoint>
          <Trackpoint>
            <Time>2019-10-08T08:09:02.000Z</Time>
            <Position>
              <LatitudeDegrees>40.26332004927098751068115234375</LatitudeDegrees>
              <LongitudeDegrees>-5.9189310483634471893310546875</LongitudeDegrees>
            </Position>
            <AltitudeMeters>437.600006103515625</AltitudeMeters>
            <DistanceMeters>NAN</DistanceMeters>
          </Trackpoint>
          <Trackpoint>
            <Time>2019-10-08T08:09:05.000Z</Time>
            <Position>
              <LatitudeDegrees>40.2631794847548007965087890625</LatitudeDegrees>
              <LongitudeDegrees>-5.91927277855575084686279296875</LongitudeDegrees>
            </Position>
            <AltitudeMeters>436.79998779296875</AltitudeMeters>
            <DistanceMeters>NAN</DistanceMeters>
          </Trackpoint>
          <Trackpoint>
            <Time>2019-10-08T08:09:07.000Z</Time>
            <Position>
              <LatitudeDegrees>40.263085775077342987060546875</LatitudeDegrees>
              <LongitudeDegrees>-5.919496156275272369384765625</LongitudeDegrees>
            </Position>
            <AltitudeMeters>436.79998779296875</AltitudeMeters>
            <DistanceMeters>NAN</DistanceMeters>
          </Trackpoint>
          <Trackpoint>
            <Time>2019-10-08T08:09:11.000Z</Time>
            <Position>
              <LatitudeDegrees>40.2629022113978862762451171875</LatitudeDegrees>
              <LongitudeDegrees>-5.91994567774236202239990234375</LongitudeDegrees>
            </Position>
            <AltitudeMeters>436</AltitudeMeters>
            <DistanceMeters>NAN</DistanceMeters>
          </Trackpoint>
          <Trackpoint>
            <Time>2019-10-08T08:09:12.000Z</Time>
            <Position>
              <LatitudeDegrees>40.26285770349204540252685546875</LatitudeDegrees>
              <LongitudeDegrees>-5.9200579114258289337158203125</LongitudeDegrees>
            </Position>
            <AltitudeMeters>435.600006103515625</AltitudeMeters>
            <DistanceMeters>NAN</DistanceMeters>
          </Trackpoint>
          <Trackpoint>
            <Time>2019-10-08T08:09:18.000Z</Time>
            <Position>
              <LatitudeDegrees>40.26259124279022216796875</LatitudeDegrees>
              <LongitudeDegrees>-5.9206992946565151214599609375</LongitudeDegrees>
            </Position>
            <AltitudeMeters>435</AltitudeMeters>
            <DistanceMeters>NAN</DistanceMeters>
          </Trackpoint>
          <Trackpoint>
            <Time>2019-10-08T08:09:19.000Z</Time>
            <Position>
              <LatitudeDegrees>40.26254656724631786346435546875</LatitudeDegrees>
              <LongitudeDegrees>-5.92080817557871341705322265625</LongitudeDegrees>
            </Position>
            <AltitudeMeters>434.79998779296875</AltitudeMeters>
            <DistanceMeters>NAN</DistanceMeters>
          </Trackpoint>
          <Trackpoint>
            <Time>2019-10-08T08:09:20.000Z</Time>
            <Position>
              <LatitudeDegrees>40.26250231079757213592529296875</LatitudeDegrees>
              <LongitudeDegrees>-5.9209182299673557281494140625</LongitudeDegrees>
            </Position>
            <AltitudeMeters>434.399993896484375</AltitudeMeters>
            <DistanceMeters>NAN</DistanceMeters>
          </Trackpoint>
          <Trackpoint>
            <Time>2019-10-08T08:09:24.000Z</Time>
            <Position>
              <LatitudeDegrees>40.26234976015985012054443359375</LatitudeDegrees>
              <LongitudeDegrees>-5.92129264958202838897705078125</LongitudeDegrees>
            </Position>
            <AltitudeMeters>433.20001220703125</AltitudeMeters>
            <DistanceMeters>NAN</DistanceMeters>
          </Trackpoint>
          <Trackpoint>
            <Time>2019-10-08T08:09:27.000Z</Time>
            <Position>
              <LatitudeDegrees>40.2622318267822265625</LatitudeDegrees>
              <LongitudeDegrees>-5.921581573784351348876953125</LongitudeDegrees>
            </Position>
            <AltitudeMeters>431.79998779296875</AltitudeMeters>
            <DistanceMeters>NAN</DistanceMeters>
          </Trackpoint>
          <Trackpoint>
            <Time>2019-10-08T08:09:29.000Z</Time>
            <Position>
              <LatitudeDegrees>40.26214406825602054595947265625</LatitudeDegrees>
              <LongitudeDegrees>-5.9217825718224048614501953125</LongitudeDegrees>
            </Position>
            <AltitudeMeters>431.20001220703125</AltitudeMeters>
            <DistanceMeters>NAN</DistanceMeters>
          </Trackpoint>
          <Trackpoint>
            <Time>2019-10-08T08:09:30.000Z</Time>
            <Position>
              <LatitudeDegrees>40.2621009014546871185302734375</LatitudeDegrees>
              <LongitudeDegrees>-5.92188441194593906402587890625</LongitudeDegrees>
            </Position>
            <AltitudeMeters>430.79998779296875</AltitudeMeters>
            <DistanceMeters>NAN</DistanceMeters>
          </Trackpoint>
          <Trackpoint>
            <Time>2019-10-08T08:09:32.000Z</Time>
            <Position>
              <LatitudeDegrees>40.2620120532810688018798828125</LatitudeDegrees>
              <LongitudeDegrees>-5.92209127731621265411376953125</LongitudeDegrees>
            </Position>
            <AltitudeMeters>430</AltitudeMeters>
            <DistanceMeters>NAN</DistanceMeters>
          </Trackpoint>
          <Trackpoint>
            <Time>2019-10-08T08:09:35.000Z</Time>
            <Position>
              <LatitudeDegrees>40.261873416602611541748046875</LatitudeDegrees>
              <LongitudeDegrees>-5.92242035083472728729248046875</LongitudeDegrees>
            </Position>
            <AltitudeMeters>429.79998779296875</AltitudeMeters>
            <DistanceMeters>NAN</DistanceMeters>
          </Trackpoint>
          <Trackpoint>
            <Time>2019-10-08T08:09:37.000Z</Time>
            <Position>
              <LatitudeDegrees>40.261772833764553070068359375</LatitudeDegrees>
              <LongitudeDegrees>-5.92265076935291290283203125</LongitudeDegrees>
            </Position>
            <AltitudeMeters>429</AltitudeMeters>
            <DistanceMeters>NAN</DistanceMeters>
          </Trackpoint>
          <Trackpoint>
            <Time>2019-10-08T08:09:38.000Z</Time>
            <Position>
              <LatitudeDegrees>40.26172514073550701141357421875</LatitudeDegrees>
              <LongitudeDegrees>-5.92276669107377529144287109375</LongitudeDegrees>
            </Position>
            <AltitudeMeters>428.600006103515625</AltitudeMeters>
            <DistanceMeters>NAN</DistanceMeters>
          </Trackpoint>
          <Trackpoint>
            <Time>2019-10-08T08:09:39.000Z</Time>
            <Position>
              <LatitudeDegrees>40.2616791240870952606201171875</LatitudeDegrees>
              <LongitudeDegrees>-5.92288521118462085723876953125</LongitudeDegrees>
            </Position>
            <AltitudeMeters>427.79998779296875</AltitudeMeters>
            <DistanceMeters>NAN</DistanceMeters>
          </Trackpoint>
          <Trackpoint>
            <Time>2019-10-08T08:09:40.000Z</Time>
            <Position>
              <LatitudeDegrees>40.26163310743868350982666015625</LatitudeDegrees>
              <LongitudeDegrees>-5.9230019710958003997802734375</LongitudeDegrees>
            </Position>
            <AltitudeMeters>426.79998779296875</AltitudeMeters>
            <DistanceMeters>NAN</DistanceMeters>
          </Trackpoint>
          <Trackpoint>
            <Time>2019-10-08T08:09:44.000Z</Time>
            <Position>
              <LatitudeDegrees>40.2614920400083065032958984375</LatitudeDegrees>
              <LongitudeDegrees>-5.923494994640350341796875</LongitudeDegrees>
            </Position>
            <AltitudeMeters>425.79998779296875</AltitudeMeters>
            <DistanceMeters>NAN</DistanceMeters>
          </Trackpoint>
          <Trackpoint>
            <Time>2019-10-08T08:09:45.000Z</Time>
            <Position>
              <LatitudeDegrees>40.26147083379328250885009765625</LatitudeDegrees>
              <LongitudeDegrees>-5.92360991053283214569091796875</LongitudeDegrees>
            </Position>
            <AltitudeMeters>425.79998779296875</AltitudeMeters>
            <DistanceMeters>NAN</DistanceMeters>
          </Trackpoint>
          <Trackpoint>
            <Time>2019-10-08T08:09:49.000Z</Time>
            <Position>
              <LatitudeDegrees>40.26138969697058200836181640625</LatitudeDegrees>
              <LongitudeDegrees>-5.92403235845267772674560546875</LongitudeDegrees>
            </Position>
            <AltitudeMeters>426.600006103515625</AltitudeMeters>
            <DistanceMeters>NAN</DistanceMeters>
          </Trackpoint>
          <Trackpoint>
            <Time>2019-10-08T08:09:55.000Z</Time>
            <Position>
              <LatitudeDegrees>40.2612801454961299896240234375</LatitudeDegrees>
              <LongitudeDegrees>-5.92457097955048084259033203125</LongitudeDegrees>
            </Position>
            <AltitudeMeters>427</AltitudeMeters>
            <DistanceMeters>NAN</DistanceMeters>
          </Trackpoint>
          <Trackpoint>
            <Time>2019-10-08T08:09:58.000Z</Time>
            <Position>
              <LatitudeDegrees>40.26122591458261013031005859375</LatitudeDegrees>
              <LongitudeDegrees>-5.9248401224613189697265625</LongitudeDegrees>
            </Position>
            <AltitudeMeters>425.79998779296875</AltitudeMeters>
            <DistanceMeters>NAN</DistanceMeters>
          </Trackpoint>
          <Trackpoint>
            <Time>2019-10-08T08:10:04.000Z</Time>
            <Position>
              <LatitudeDegrees>40.26111669838428497314453125</LatitudeDegrees>
              <LongitudeDegrees>-5.92538720928132534027099609375</LongitudeDegrees>
            </Position>
            <AltitudeMeters>425.79998779296875</AltitudeMeters>
            <DistanceMeters>NAN</DistanceMeters>
          </Trackpoint>
          <Trackpoint>
            <Time>2019-10-08T08:10:07.000Z</Time>
            <Position>
              <LatitudeDegrees>40.2610551752150058746337890625</LatitudeDegrees>
              <LongitudeDegrees>-5.92566020786762237548828125</LongitudeDegrees>
            </Position>
            <AltitudeMeters>425.79998779296875</AltitudeMeters>
            <DistanceMeters>NAN</DistanceMeters>
          </Trackpoint>
          <Trackpoint>
            <Time>2019-10-08T08:10:10.000Z</Time>
            <Position>
              <LatitudeDegrees>40.26099658571183681488037109375</LatitudeDegrees>
              <LongitudeDegrees>-5.925934128463268280029296875</LongitudeDegrees>
            </Position>
            <AltitudeMeters>425.600006103515625</AltitudeMeters>
            <DistanceMeters>NAN</DistanceMeters>
          </Trackpoint>
          <Trackpoint>
            <Time>2019-10-08T08:10:14.000Z</Time>
            <Position>
              <LatitudeDegrees>40.260914862155914306640625</LatitudeDegrees>
              <LongitudeDegrees>-5.92629010789096355438232421875</LongitudeDegrees>
            </Position>
            <AltitudeMeters>425.399993896484375</AltitudeMeters>
            <DistanceMeters>NAN</DistanceMeters>
          </Trackpoint>
          <Trackpoint>
            <Time>2019-10-08T08:10:19.000Z</Time>
            <Position>
              <LatitudeDegrees>40.2608258463442325592041015625</LatitudeDegrees>
              <LongitudeDegrees>-5.92672194354236125946044921875</LongitudeDegrees>
            </Position>
            <AltitudeMeters>426</AltitudeMeters>
            <DistanceMeters>NAN</DistanceMeters>
          </Trackpoint>
          <Trackpoint>
            <Time>2019-10-08T08:10:21.000Z</Time>
            <Position>
              <LatitudeDegrees>40.26078368537127971649169921875</LatitudeDegrees>
              <LongitudeDegrees>-5.92687298543751239776611328125</LongitudeDegrees>
            </Position>
            <AltitudeMeters>426</AltitudeMeters>
            <DistanceMeters>NAN</DistanceMeters>
          </Trackpoint>
          <Trackpoint>
            <Time>2019-10-08T08:10:22.000Z</Time>
            <Position>
              <LatitudeDegrees>40.2607681788504123687744140625</LatitudeDegrees>
              <LongitudeDegrees>-5.92694926075637340545654296875</LongitudeDegrees>
            </Position>
            <AltitudeMeters>425.79998779296875</AltitudeMeters>
            <DistanceMeters>NAN</DistanceMeters>
          </Trackpoint>
          <Trackpoint>
            <Time>2019-10-08T08:10:25.000Z</Time>
            <Position>
              <LatitudeDegrees>40.26072165928781032562255859375</LatitudeDegrees>
              <LongitudeDegrees>-5.92715512029826641082763671875</LongitudeDegrees>
            </Position>
            <AltitudeMeters>425.399993896484375</AltitudeMeters>
            <DistanceMeters>NAN</DistanceMeters>
          </Trackpoint>
          <Trackpoint>
            <Time>2019-10-08T08:10:29.000Z</Time>
            <Position>
              <LatitudeDegrees>40.260679163038730621337890625</LatitudeDegrees>
              <LongitudeDegrees>-5.927396602928638458251953125</LongitudeDegrees>
            </Position>
            <AltitudeMeters>426.399993896484375</AltitudeMeters>
            <DistanceMeters>NAN</DistanceMeters>
          </Trackpoint>
          <Trackpoint>
            <Time>2019-10-08T08:10:32.000Z</Time>
            <Position>
              <LatitudeDegrees>40.2606501616537570953369140625</LatitudeDegrees>
              <LongitudeDegrees>-5.92758603394031524658203125</LongitudeDegrees>
            </Position>
            <AltitudeMeters>426</AltitudeMeters>
            <DistanceMeters>NAN</DistanceMeters>
          </Trackpoint>
          <Trackpoint>
            <Time>2019-10-08T08:10:34.000Z</Time>
            <Position>
              <LatitudeDegrees>40.26063482277095317840576171875</LatitudeDegrees>
              <LongitudeDegrees>-5.92771721072494983673095703125</LongitudeDegrees>
            </Position>
            <AltitudeMeters>426.20001220703125</AltitudeMeters>
            <DistanceMeters>NAN</DistanceMeters>
          </Trackpoint>
          <Trackpoint>
            <Time>2019-10-08T08:10:37.000Z</Time>
            <Position>
              <LatitudeDegrees>40.26059023104608058929443359375</LatitudeDegrees>
              <LongitudeDegrees>-5.92790513299405574798583984375</LongitudeDegrees>
            </Position>
            <AltitudeMeters>426.20001220703125</AltitudeMeters>
            <DistanceMeters>NAN</DistanceMeters>
          </Trackpoint>
          <Trackpoint>
            <Time>2019-10-08T08:10:41.000Z</Time>
            <Position>
              <LatitudeDegrees>40.26052116416394710540771484375</LatitudeDegrees>
              <LongitudeDegrees>-5.9281310252845287322998046875</LongitudeDegrees>
            </Position>
            <AltitudeMeters>426.600006103515625</AltitudeMeters>
            <DistanceMeters>NAN</DistanceMeters>
          </Trackpoint>
          <Trackpoint>
            <Time>2019-10-08T08:10:46.000Z</Time>
            <Position>
              <LatitudeDegrees>40.2604540251195430755615234375</LatitudeDegrees>
              <LongitudeDegrees>-5.92841793783009052276611328125</LongitudeDegrees>
            </Position>
            <AltitudeMeters>426</AltitudeMeters>
            <DistanceMeters>NAN</DistanceMeters>
          </Trackpoint>
          <Trackpoint>
            <Time>2019-10-08T08:10:48.000Z</Time>
            <Position>
              <LatitudeDegrees>40.260426364839076995849609375</LatitudeDegrees>
              <LongitudeDegrees>-5.92854115180671215057373046875</LongitudeDegrees>
            </Position>
            <AltitudeMeters>426</AltitudeMeters>
            <DistanceMeters>NAN</DistanceMeters>
          </Trackpoint>
          <Trackpoint>
            <Time>2019-10-08T08:10:52.000Z</Time>
            <Position>
              <LatitudeDegrees>40.26036274619400501251220703125</LatitudeDegrees>
              <LongitudeDegrees>-5.9287918545305728912353515625</LongitudeDegrees>
            </Position>
            <AltitudeMeters>425.399993896484375</AltitudeMeters>
            <DistanceMeters>NAN</DistanceMeters>
          </Trackpoint>
          <Trackpoint>
            <Time>2019-10-08T08:10:54.000Z</Time>
            <Position>
              <LatitudeDegrees>40.26033005677163600921630859375</LatitudeDegrees>
              <LongitudeDegrees>-5.92892286367714405059814453125</LongitudeDegrees>
            </Position>
            <AltitudeMeters>426.20001220703125</AltitudeMeters>
            <DistanceMeters>NAN</DistanceMeters>
          </Trackpoint>
          <Trackpoint>
            <Time>2019-10-08T08:10:58.000Z</Time>
            <Position>
              <LatitudeDegrees>40.260294936597347259521484375</LatitudeDegrees>
              <LongitudeDegrees>-5.9292461536824703216552734375</LongitudeDegrees>
            </Position>
            <AltitudeMeters>425.399993896484375</AltitudeMeters>
            <DistanceMeters>NAN</DistanceMeters>
          </Trackpoint>
          <Trackpoint>
            <Time>2019-10-08T08:11:01.000Z</Time>
            <Position>
              <LatitudeDegrees>40.26024841703474521636962890625</LatitudeDegrees>
              <LongitudeDegrees>-5.929483361542224884033203125</LongitudeDegrees>
            </Position>
            <AltitudeMeters>425.399993896484375</AltitudeMeters>
            <DistanceMeters>NAN</DistanceMeters>
          </Trackpoint>
          <Trackpoint>
            <Time>2019-10-08T08:11:04.000Z</Time>
            <Position>
              <LatitudeDegrees>40.26019980199635028839111328125</LatitudeDegrees>
              <LongitudeDegrees>-5.92971813865005970001220703125</LongitudeDegrees>
            </Position>
            <AltitudeMeters>425.600006103515625</AltitudeMeters>
            <DistanceMeters>NAN</DistanceMeters>
          </Trackpoint>
          <Trackpoint>
            <Time>2019-10-08T08:11:08.000Z</Time>
            <Position>
              <LatitudeDegrees>40.26013744063675403594970703125</LatitudeDegrees>
              <LongitudeDegrees>-5.9300276823341846466064453125</LongitudeDegrees>
            </Position>
            <AltitudeMeters>425.399993896484375</AltitudeMeters>
            <DistanceMeters>NAN</DistanceMeters>
          </Trackpoint>
          <Trackpoint>
            <Time>2019-10-08T08:11:15.000Z</Time>
            <Position>
              <LatitudeDegrees>40.26003048755228519439697265625</LatitudeDegrees>
              <LongitudeDegrees>-5.93057225458323955535888671875</LongitudeDegrees>
            </Position>
            <AltitudeMeters>425.600006103515625</AltitudeMeters>
            <DistanceMeters>NAN</DistanceMeters>
          </Trackpoint>
          <Trackpoint>
            <Time>2019-10-08T08:11:17.000Z</Time>
            <Position>
              <LatitudeDegrees>40.25999779812991619110107421875</LatitudeDegrees>
              <LongitudeDegrees>-5.930727235972881317138671875</LongitudeDegrees>
            </Position>
            <AltitudeMeters>425.79998779296875</AltitudeMeters>
            <DistanceMeters>NAN</DistanceMeters>
          </Trackpoint>
          <Trackpoint>
            <Time>2019-10-08T08:11:20.000Z</Time>
            <Position>
              <LatitudeDegrees>40.25994214229285717010498046875</LatitudeDegrees>
              <LongitudeDegrees>-5.930960588157176971435546875</LongitudeDegrees>
            </Position>
            <AltitudeMeters>425.600006103515625</AltitudeMeters>
            <DistanceMeters>NAN</DistanceMeters>
          </Trackpoint>
          <Trackpoint>
            <Time>2019-10-08T08:11:24.000Z</Time>
            <Position>
              <LatitudeDegrees>40.259885229170322418212890625</LatitudeDegrees>
              <LongitudeDegrees>-5.931278429925441741943359375</LongitudeDegrees>
            </Position>
            <AltitudeMeters>425.600006103515625</AltitudeMeters>
            <DistanceMeters>NAN</DistanceMeters>
          </Trackpoint>
          <Trackpoint>
            <Time>2019-10-08T08:11:25.000Z</Time>
            <Position>
              <LatitudeDegrees>40.259868800640106201171875</LatitudeDegrees>
              <LongitudeDegrees>-5.93135881237685680389404296875</LongitudeDegrees>
            </Position>
            <AltitudeMeters>425.20001220703125</AltitudeMeters>
            <DistanceMeters>NAN</DistanceMeters>
          </Trackpoint>
          <Trackpoint>
            <Time>2019-10-08T08:11:32.000Z</Time>
            <Position>
              <LatitudeDegrees>40.2597459219396114349365234375</LatitudeDegrees>
              <LongitudeDegrees>-5.9319156222045421600341796875</LongitudeDegrees>
            </Position>
            <AltitudeMeters>425.79998779296875</AltitudeMeters>
            <DistanceMeters>NAN</DistanceMeters>
          </Trackpoint>
          <Trackpoint>
            <Time>2019-10-08T08:11:36.000Z</Time>
            <Position>
              <LatitudeDegrees>40.2596838958561420440673828125</LatitudeDegrees>
              <LongitudeDegrees>-5.93221343122422695159912109375</LongitudeDegrees>
            </Position>
            <AltitudeMeters>426.600006103515625</AltitudeMeters>
            <DistanceMeters>NAN</DistanceMeters>
          </Trackpoint>
          <Trackpoint>
            <Time>2019-10-08T08:11:38.000Z</Time>
            <Position>
              <LatitudeDegrees>40.25964793749153614044189453125</LatitudeDegrees>
              <LongitudeDegrees>-5.9323534928262233734130859375</LongitudeDegrees>
            </Position>
            <AltitudeMeters>427.20001220703125</AltitudeMeters>
            <DistanceMeters>NAN</DistanceMeters>
          </Trackpoint>
          <Trackpoint>
            <Time>2019-10-08T08:11:42.000Z</Time>
            <Position>
              <LatitudeDegrees>40.25956562720239162445068359375</LatitudeDegrees>
              <LongitudeDegrees>-5.93262665905058383941650390625</LongitudeDegrees>
            </Position>
            <AltitudeMeters>427.20001220703125</AltitudeMeters>
            <DistanceMeters>NAN</DistanceMeters>
          </Trackpoint>
          <Trackpoint>
            <Time>2019-10-08T08:11:49.000Z</Time>
            <Position>
              <LatitudeDegrees>40.25936446152627468109130859375</LatitudeDegrees>
              <LongitudeDegrees>-5.9330444969236850738525390625</LongitudeDegrees>
            </Position>
            <AltitudeMeters>428.20001220703125</AltitudeMeters>
            <DistanceMeters>NAN</DistanceMeters>
          </Trackpoint>
          <Trackpoint>
            <Time>2019-10-08T08:11:58.000Z</Time>
            <Position>
              <LatitudeDegrees>40.25908224284648895263671875</LatitudeDegrees>
              <LongitudeDegrees>-5.933510698378086090087890625</LongitudeDegrees>
            </Position>
            <AltitudeMeters>429</AltitudeMeters>
            <DistanceMeters>NAN</DistanceMeters>
          </Trackpoint>
          <Trackpoint>
            <Time>2019-10-08T08:12:01.000Z</Time>
            <Position>
              <LatitudeDegrees>40.25899163447320461273193359375</LatitudeDegrees>
              <LongitudeDegrees>-5.933662913739681243896484375</LongitudeDegrees>
            </Position>
            <AltitudeMeters>429.399993896484375</AltitudeMeters>
            <DistanceMeters>NAN</DistanceMeters>
          </Trackpoint>
          <Trackpoint>
            <Time>2019-10-08T08:12:02.000Z</Time>
            <Position>
              <LatitudeDegrees>40.258956849575042724609375</LatitudeDegrees>
              <LongitudeDegrees>-5.93371094204485416412353515625</LongitudeDegrees>
            </Position>
            <AltitudeMeters>429.399993896484375</AltitudeMeters>
            <DistanceMeters>NAN</DistanceMeters>
          </Trackpoint>
          <Trackpoint>
            <Time>2019-10-08T08:12:06.000Z</Time>
            <Position>
              <LatitudeDegrees>40.25882734917104244232177734375</LatitudeDegrees>
              <LongitudeDegrees>-5.9339091740548610687255859375</LongitudeDegrees>
            </Position>
            <AltitudeMeters>429.600006103515625</AltitudeMeters>
            <DistanceMeters>NAN</DistanceMeters>
          </Trackpoint>
          <Trackpoint>
            <Time>2019-10-08T08:12:14.000Z</Time>
            <Position>
              <LatitudeDegrees>40.258579663932323455810546875</LatitudeDegrees>
              <LongitudeDegrees>-5.9343282692134380340576171875</LongitudeDegrees>
            </Position>
            <AltitudeMeters>430.399993896484375</AltitudeMeters>
            <DistanceMeters>NAN</DistanceMeters>
          </Trackpoint>
          <Trackpoint>
            <Time>2019-10-08T08:12:15.000Z</Time>
            <Position>
              <LatitudeDegrees>40.25854756124317646026611328125</LatitudeDegrees>
              <LongitudeDegrees>-5.934380404651165008544921875</LongitudeDegrees>
            </Position>
            <AltitudeMeters>430.399993896484375</AltitudeMeters>
            <DistanceMeters>NAN</DistanceMeters>
          </Trackpoint>
          <Trackpoint>
            <Time>2019-10-08T08:12:25.000Z</Time>
            <Position>
              <LatitudeDegrees>40.25823508389294147491455078125</LatitudeDegrees>
              <LongitudeDegrees>-5.93489714898169040679931640625</LongitudeDegrees>
            </Position>
            <AltitudeMeters>431</AltitudeMeters>
            <DistanceMeters>NAN</DistanceMeters>
          </Trackpoint>
          <Trackpoint>
            <Time>2019-10-08T08:12:29.000Z</Time>
            <Position>
              <LatitudeDegrees>40.2581094391644001007080078125</LatitudeDegrees>
              <LongitudeDegrees>-5.935099236667156219482421875</LongitudeDegrees>
            </Position>
            <AltitudeMeters>431.79998779296875</AltitudeMeters>
            <DistanceMeters>NAN</DistanceMeters>
          </Trackpoint>
          <Trackpoint>
            <Time>2019-10-08T08:12:34.000Z</Time>
            <Position>
              <LatitudeDegrees>40.2579485066235065460205078125</LatitudeDegrees>
              <LongitudeDegrees>-5.93535044230520725250244140625</LongitudeDegrees>
            </Position>
            <AltitudeMeters>432</AltitudeMeters>
            <DistanceMeters>NAN</DistanceMeters>
          </Trackpoint>
          <Trackpoint>
            <Time>2019-10-08T08:12:37.000Z</Time>
            <Position>
              <LatitudeDegrees>40.257854461669921875</LatitudeDegrees>
              <LongitudeDegrees>-5.935498885810375213623046875</LongitudeDegrees>
            </Position>
            <AltitudeMeters>432.79998779296875</AltitudeMeters>
            <DistanceMeters>NAN</DistanceMeters>
          </Trackpoint>
          <Trackpoint>
            <Time>2019-10-08T08:12:44.000Z</Time>
            <Position>
              <LatitudeDegrees>40.2576356939971446990966796875</LatitudeDegrees>
              <LongitudeDegrees>-5.93584212474524974822998046875</LongitudeDegrees>
            </Position>
            <AltitudeMeters>433.399993896484375</AltitudeMeters>
            <DistanceMeters>NAN</DistanceMeters>
          </Trackpoint>
          <Trackpoint>
            <Time>2019-10-08T08:12:53.000Z</Time>
            <Position>
              <LatitudeDegrees>40.25736386887729167938232421875</LatitudeDegrees>
              <LongitudeDegrees>-5.93628804199397563934326171875</LongitudeDegrees>
            </Position>
            <AltitudeMeters>433.79998779296875</AltitudeMeters>
            <DistanceMeters>NAN</DistanceMeters>
          </Trackpoint>
          <Trackpoint>
            <Time>2019-10-08T08:12:54.000Z</Time>
            <Position>
              <LatitudeDegrees>40.25733201764523983001708984375</LatitudeDegrees>
              <LongitudeDegrees>-5.9363405965268611907958984375</LongitudeDegrees>
            </Position>
            <AltitudeMeters>433.399993896484375</AltitudeMeters>
            <DistanceMeters>NAN</DistanceMeters>
          </Trackpoint>
          <Trackpoint>
            <Time>2019-10-08T08:13:02.000Z</Time>
            <Position>
              <LatitudeDegrees>40.25705474428832530975341796875</LatitudeDegrees>
              <LongitudeDegrees>-5.93678710050880908966064453125</LongitudeDegrees>
            </Position>
            <AltitudeMeters>433</AltitudeMeters>
            <DistanceMeters>NAN</DistanceMeters>
          </Trackpoint>
          <Trackpoint>
            <Time>2019-10-08T08:13:09.000Z</Time>
            <Position>
              <LatitudeDegrees>40.25678769685328006744384765625</LatitudeDegrees>
              <LongitudeDegrees>-5.9372051060199737548828125</LongitudeDegrees>
            </Position>
            <AltitudeMeters>433</AltitudeMeters>
            <DistanceMeters>NAN</DistanceMeters>
          </Trackpoint>
          <Trackpoint>
            <Time>2019-10-08T08:13:10.000Z</Time>
            <Position>
              <LatitudeDegrees>40.25675450451672077178955078125</LatitudeDegrees>
              <LongitudeDegrees>-5.9372612647712230682373046875</LongitudeDegrees>
            </Position>
            <AltitudeMeters>433</AltitudeMeters>
            <DistanceMeters>NAN</DistanceMeters>
          </Trackpoint>
          <Trackpoint>
            <Time>2019-10-08T08:13:13.000Z</Time>
            <Position>
              <LatitudeDegrees>40.25668526999652385711669921875</LatitudeDegrees>
              <LongitudeDegrees>-5.9373916871845722198486328125</LongitudeDegrees>
            </Position>
            <AltitudeMeters>433.600006103515625</AltitudeMeters>
            <DistanceMeters>NAN</DistanceMeters>
          </Trackpoint>
          <Trackpoint>
            <Time>2019-10-08T08:13:14.000Z</Time>
            <Position>
              <LatitudeDegrees>40.256669931113719940185546875</LatitudeDegrees>
              <LongitudeDegrees>-5.9374225325882434844970703125</LongitudeDegrees>
            </Position>
            <AltitudeMeters>433.79998779296875</AltitudeMeters>
            <DistanceMeters>NAN</DistanceMeters>
          </Trackpoint>
          <Trackpoint>
            <Time>2019-10-08T08:13:16.000Z</Time>
            <Position>
              <LatitudeDegrees>40.256663225591182708740234375</LatitudeDegrees>
              <LongitudeDegrees>-5.937465615570545196533203125</LongitudeDegrees>
            </Position>
            <AltitudeMeters>433.20001220703125</AltitudeMeters>
            <DistanceMeters>NAN</DistanceMeters>
          </Trackpoint>
          <Trackpoint>
            <Time>2019-10-08T08:13:17.000Z</Time>
            <Position>
              <LatitudeDegrees>40.25666548870503902435302734375</LatitudeDegrees>
              <LongitudeDegrees>-5.93746134079992771148681640625</LongitudeDegrees>
            </Position>
            <AltitudeMeters>433</AltitudeMeters>
            <DistanceMeters>NAN</DistanceMeters>
          </Trackpoint>
          <Trackpoint>
            <Time>2019-10-08T08:13:23.000Z</Time>
            <Position>
              <LatitudeDegrees>40.25666347704827785491943359375</LatitudeDegrees>
              <LongitudeDegrees>-5.937464274466037750244140625</LongitudeDegrees>
            </Position>
            <AltitudeMeters>433</AltitudeMeters>
            <DistanceMeters>NAN</DistanceMeters>
          </Trackpoint>
          <Trackpoint>
            <Time>2019-10-08T08:13:32.000Z</Time>
            <Position>
              <LatitudeDegrees>40.25666347704827785491943359375</LatitudeDegrees>
              <LongitudeDegrees>-5.937464274466037750244140625</LongitudeDegrees>
            </Position>
            <AltitudeMeters>433</AltitudeMeters>
            <DistanceMeters>NAN</DistanceMeters>
          </Trackpoint>
          <Trackpoint>
            <Time>2019-10-08T08:13:34.000Z</Time>
            <Position>
              <LatitudeDegrees>40.25666347704827785491943359375</LatitudeDegrees>
              <LongitudeDegrees>-5.937464274466037750244140625</LongitudeDegrees>
            </Position>
            <AltitudeMeters>433</AltitudeMeters>
            <DistanceMeters>NAN</DistanceMeters>
          </Trackpoint>
          <Trackpoint>
            <Time>2019-10-08T08:13:35.000Z</Time>
            <Position>
              <LatitudeDegrees>40.25666347704827785491943359375</LatitudeDegrees>
              <LongitudeDegrees>-5.937464274466037750244140625</LongitudeDegrees>
            </Position>
            <AltitudeMeters>433.20001220703125</AltitudeMeters>
            <DistanceMeters>NAN</DistanceMeters>
          </Trackpoint>
          <Trackpoint>
            <Time>2019-10-08T08:13:39.000Z</Time>
            <Position>
              <LatitudeDegrees>40.25666347704827785491943359375</LatitudeDegrees>
              <LongitudeDegrees>-5.937464274466037750244140625</LongitudeDegrees>
            </Position>
            <AltitudeMeters>433.399993896484375</AltitudeMeters>
            <DistanceMeters>NAN</DistanceMeters>
          </Trackpoint>
          <Trackpoint>
            <Time>2019-10-08T08:13:42.000Z</Time>
            <Position>
              <LatitudeDegrees>40.25666347704827785491943359375</LatitudeDegrees>
              <LongitudeDegrees>-5.937464274466037750244140625</LongitudeDegrees>
            </Position>
            <AltitudeMeters>432.79998779296875</AltitudeMeters>
            <DistanceMeters>NAN</DistanceMeters>
          </Trackpoint>
          <Trackpoint>
            <Time>2019-10-08T08:13:51.000Z</Time>
            <Position>
              <LatitudeDegrees>40.25666347704827785491943359375</LatitudeDegrees>
              <LongitudeDegrees>-5.937464274466037750244140625</LongitudeDegrees>
            </Position>
            <AltitudeMeters>432.79998779296875</AltitudeMeters>
            <DistanceMeters>NAN</DistanceMeters>
          </Trackpoint>
          <Trackpoint>
            <Time>2019-10-08T08:13:52.000Z</Time>
            <Position>
              <LatitudeDegrees>40.25666347704827785491943359375</LatitudeDegrees>
              <LongitudeDegrees>-5.937464274466037750244140625</LongitudeDegrees>
            </Position>
            <AltitudeMeters>432.79998779296875</AltitudeMeters>
            <DistanceMeters>NAN</DistanceMeters>
          </Trackpoint>
          <Trackpoint>
            <Time>2019-10-08T08:13:53.000Z</Time>
            <Position>
              <LatitudeDegrees>40.25666347704827785491943359375</LatitudeDegrees>
              <LongitudeDegrees>-5.937464274466037750244140625</LongitudeDegrees>
            </Position>
            <AltitudeMeters>432.600006103515625</AltitudeMeters>
            <DistanceMeters>NAN</DistanceMeters>
          </Trackpoint>
          <Trackpoint>
            <Time>2019-10-08T08:13:54.000Z</Time>
            <Position>
              <LatitudeDegrees>40.25666347704827785491943359375</LatitudeDegrees>
              <LongitudeDegrees>-5.937464274466037750244140625</LongitudeDegrees>
            </Position>
            <AltitudeMeters>432.79998779296875</AltitudeMeters>
            <DistanceMeters>NAN</DistanceMeters>
          </Trackpoint>
          <Trackpoint>
            <Time>2019-10-08T08:13:58.000Z</Time>
            <Position>
              <LatitudeDegrees>40.2566613815724849700927734375</LatitudeDegrees>
              <LongitudeDegrees>-5.93747307546436786651611328125</LongitudeDegrees>
            </Position>
            <AltitudeMeters>432.79998779296875</AltitudeMeters>
            <DistanceMeters>NAN</DistanceMeters>
          </Trackpoint>
          <Trackpoint>
            <Time>2019-10-08T08:14:01.000Z</Time>
            <Position>
              <LatitudeDegrees>40.2566613815724849700927734375</LatitudeDegrees>
              <LongitudeDegrees>-5.93747307546436786651611328125</LongitudeDegrees>
            </Position>
            <AltitudeMeters>432.79998779296875</AltitudeMeters>
            <DistanceMeters>NAN</DistanceMeters>
          </Trackpoint>
          <Trackpoint>
            <Time>2019-10-08T08:14:12.000Z</Time>
            <Position>
              <LatitudeDegrees>40.2566613815724849700927734375</LatitudeDegrees>
              <LongitudeDegrees>-5.93747307546436786651611328125</LongitudeDegrees>
            </Position>
            <AltitudeMeters>432.79998779296875</AltitudeMeters>
            <DistanceMeters>NAN</DistanceMeters>
          </Trackpoint>
          <Trackpoint>
            <Time>2019-10-08T08:14:15.000Z</Time>
            <Position>
              <LatitudeDegrees>40.2566613815724849700927734375</LatitudeDegrees>
              <LongitudeDegrees>-5.93747307546436786651611328125</LongitudeDegrees>
            </Position>
            <AltitudeMeters>432.600006103515625</AltitudeMeters>
            <DistanceMeters>NAN</DistanceMeters>
          </Trackpoint>
          <Trackpoint>
            <Time>2019-10-08T08:14:16.000Z</Time>
            <Position>
              <LatitudeDegrees>40.2566613815724849700927734375</LatitudeDegrees>
              <LongitudeDegrees>-5.93747307546436786651611328125</LongitudeDegrees>
            </Position>
            <AltitudeMeters>432.600006103515625</AltitudeMeters>
            <DistanceMeters>NAN</DistanceMeters>
          </Trackpoint>
          <Trackpoint>
            <Time>2019-10-08T08:14:20.000Z</Time>
            <Position>
              <LatitudeDegrees>40.2566613815724849700927734375</LatitudeDegrees>
              <LongitudeDegrees>-5.93747307546436786651611328125</LongitudeDegrees>
            </Position>
            <AltitudeMeters>432.600006103515625</AltitudeMeters>
            <DistanceMeters>NAN</DistanceMeters>
          </Trackpoint>
          <Trackpoint>
            <Time>2019-10-08T08:14:24.000Z</Time>
            <Position>
              <LatitudeDegrees>40.2566613815724849700927734375</LatitudeDegrees>
              <LongitudeDegrees>-5.93747307546436786651611328125</LongitudeDegrees>
            </Position>
            <AltitudeMeters>432.79998779296875</AltitudeMeters>
            <DistanceMeters>NAN</DistanceMeters>
          </Trackpoint>
          <Trackpoint>
            <Time>2019-10-08T08:14:26.000Z</Time>
            <Position>
              <LatitudeDegrees>40.2566613815724849700927734375</LatitudeDegrees>
              <LongitudeDegrees>-5.93747307546436786651611328125</LongitudeDegrees>
            </Position>
            <AltitudeMeters>433</AltitudeMeters>
            <DistanceMeters>NAN</DistanceMeters>
          </Trackpoint>
          <Trackpoint>
            <Time>2019-10-08T08:14:32.000Z</Time>
            <Position>
              <LatitudeDegrees>40.2566613815724849700927734375</LatitudeDegrees>
              <LongitudeDegrees>-5.93747307546436786651611328125</LongitudeDegrees>
            </Position>
            <AltitudeMeters>432.79998779296875</AltitudeMeters>
            <DistanceMeters>NAN</DistanceMeters>
          </Trackpoint>
          <Trackpoint>
            <Time>2019-10-08T08:14:36.000Z</Time>
            <Position>
              <LatitudeDegrees>40.2566613815724849700927734375</LatitudeDegrees>
              <LongitudeDegrees>-5.93747307546436786651611328125</LongitudeDegrees>
            </Position>
            <AltitudeMeters>432.79998779296875</AltitudeMeters>
            <DistanceMeters>NAN</DistanceMeters>
          </Trackpoint>
          <Trackpoint>
            <Time>2019-10-08T08:14:55.000Z</Time>
            <Position>
              <LatitudeDegrees>40.25665861554443836212158203125</LatitudeDegrees>
              <LongitudeDegrees>-5.93747525475919246673583984375</LongitudeDegrees>
            </Position>
            <AltitudeMeters>433</AltitudeMeters>
            <DistanceMeters>NAN</DistanceMeters>
          </Trackpoint>
          <Trackpoint>
            <Time>2019-10-08T08:15:01.000Z</Time>
            <Position>
              <LatitudeDegrees>40.25665861554443836212158203125</LatitudeDegrees>
              <LongitudeDegrees>-5.93747525475919246673583984375</LongitudeDegrees>
            </Position>
            <AltitudeMeters>433</AltitudeMeters>
            <DistanceMeters>NAN</DistanceMeters>
          </Trackpoint>
          <Trackpoint>
            <Time>2019-10-08T08:15:07.000Z</Time>
            <Position>
              <LatitudeDegrees>40.25665861554443836212158203125</LatitudeDegrees>
              <LongitudeDegrees>-5.93747525475919246673583984375</LongitudeDegrees>
            </Position>
            <AltitudeMeters>433.20001220703125</AltitudeMeters>
            <DistanceMeters>NAN</DistanceMeters>
          </Trackpoint>
          <Trackpoint>
            <Time>2019-10-08T08:15:16.000Z</Time>
            <Position>
              <LatitudeDegrees>40.25665861554443836212158203125</LatitudeDegrees>
              <LongitudeDegrees>-5.93747525475919246673583984375</LongitudeDegrees>
            </Position>
            <AltitudeMeters>432.79998779296875</AltitudeMeters>
            <DistanceMeters>NAN</DistanceMeters>
          </Trackpoint>
          <Trackpoint>
            <Time>2019-10-08T08:15:26.000Z</Time>
            <Position>
              <LatitudeDegrees>40.256659202277660369873046875</LatitudeDegrees>
              <LongitudeDegrees>-5.9374775178730487823486328125</LongitudeDegrees>
            </Position>
            <AltitudeMeters>432.600006103515625</AltitudeMeters>
            <DistanceMeters>NAN</DistanceMeters>
          </Trackpoint>
          <Trackpoint>
            <Time>2019-10-08T08:15:28.000Z</Time>
            <Position>
              <LatitudeDegrees>40.256659202277660369873046875</LatitudeDegrees>
              <LongitudeDegrees>-5.9374775178730487823486328125</LongitudeDegrees>
            </Position>
            <AltitudeMeters>432.79998779296875</AltitudeMeters>
            <DistanceMeters>NAN</DistanceMeters>
          </Trackpoint>
          <Trackpoint>
            <Time>2019-10-08T08:15:33.000Z</Time>
            <Position>
              <LatitudeDegrees>40.256659202277660369873046875</LatitudeDegrees>
              <LongitudeDegrees>-5.9374775178730487823486328125</LongitudeDegrees>
            </Position>
            <AltitudeMeters>432.600006103515625</AltitudeMeters>
            <DistanceMeters>NAN</DistanceMeters>
          </Trackpoint>
          <Trackpoint>
            <Time>2019-10-08T08:15:42.000Z</Time>
            <Position>
              <LatitudeDegrees>40.256659202277660369873046875</LatitudeDegrees>
              <LongitudeDegrees>-5.9374775178730487823486328125</LongitudeDegrees>
            </Position>
            <AltitudeMeters>432.79998779296875</AltitudeMeters>
            <DistanceMeters>NAN</DistanceMeters>
          </Trackpoint>
          <Trackpoint>
            <Time>2019-10-08T08:15:54.000Z</Time>
            <Position>
              <LatitudeDegrees>40.256659202277660369873046875</LatitudeDegrees>
              <LongitudeDegrees>-5.9374775178730487823486328125</LongitudeDegrees>
            </Position>
            <AltitudeMeters>432.79998779296875</AltitudeMeters>
            <DistanceMeters>NAN</DistanceMeters>
          </Trackpoint>
          <Trackpoint>
            <Time>2019-10-08T08:15:56.000Z</Time>
            <Position>
              <LatitudeDegrees>40.256659202277660369873046875</LatitudeDegrees>
              <LongitudeDegrees>-5.9374775178730487823486328125</LongitudeDegrees>
            </Position>
            <AltitudeMeters>432.79998779296875</AltitudeMeters>
            <DistanceMeters>NAN</DistanceMeters>
          </Trackpoint>
          <Trackpoint>
            <Time>2019-10-08T08:15:58.000Z</Time>
            <Position>
              <LatitudeDegrees>40.25665744207799434661865234375</LatitudeDegrees>
              <LongitudeDegrees>-5.9374781884253025054931640625</LongitudeDegrees>
            </Position>
            <AltitudeMeters>432.79998779296875</AltitudeMeters>
            <DistanceMeters>NAN</DistanceMeters>
          </Trackpoint>
          <Trackpoint>
            <Time>2019-10-08T08:16:09.000Z</Time>
            <Position>
              <LatitudeDegrees>40.25665744207799434661865234375</LatitudeDegrees>
              <LongitudeDegrees>-5.9374781884253025054931640625</LongitudeDegrees>
            </Position>
            <AltitudeMeters>432.79998779296875</AltitudeMeters>
            <DistanceMeters>NAN</DistanceMeters>
          </Trackpoint>
          <Trackpoint>
            <Time>2019-10-08T08:16:13.000Z</Time>
            <Position>
              <LatitudeDegrees>40.25665744207799434661865234375</LatitudeDegrees>
              <LongitudeDegrees>-5.9374781884253025054931640625</LongitudeDegrees>
            </Position>
            <AltitudeMeters>432.79998779296875</AltitudeMeters>
            <DistanceMeters>NAN</DistanceMeters>
          </Trackpoint>
          <Trackpoint>
            <Time>2019-10-08T08:16:18.000Z</Time>
            <Position>
              <LatitudeDegrees>40.25665744207799434661865234375</LatitudeDegrees>
              <LongitudeDegrees>-5.9374781884253025054931640625</LongitudeDegrees>
            </Position>
            <AltitudeMeters>432.79998779296875</AltitudeMeters>
            <DistanceMeters>NAN</DistanceMeters>
          </Trackpoint>
          <Trackpoint>
            <Time>2019-10-08T08:16:24.000Z</Time>
            <Position>
              <LatitudeDegrees>40.25665744207799434661865234375</LatitudeDegrees>
              <LongitudeDegrees>-5.9374781884253025054931640625</LongitudeDegrees>
            </Position>
            <AltitudeMeters>433.20001220703125</AltitudeMeters>
            <DistanceMeters>NAN</DistanceMeters>
          </Trackpoint>
          <Trackpoint>
            <Time>2019-10-08T08:16:26.000Z</Time>
            <Position>
              <LatitudeDegrees>40.25665744207799434661865234375</LatitudeDegrees>
              <LongitudeDegrees>-5.9374781884253025054931640625</LongitudeDegrees>
            </Position>
            <AltitudeMeters>432.79998779296875</AltitudeMeters>
            <DistanceMeters>NAN</DistanceMeters>
          </Trackpoint>
          <Trackpoint>
            <Time>2019-10-08T08:16:32.000Z</Time>
            <Position>
              <LatitudeDegrees>40.25665744207799434661865234375</LatitudeDegrees>
              <LongitudeDegrees>-5.9374781884253025054931640625</LongitudeDegrees>
            </Position>
            <AltitudeMeters>433</AltitudeMeters>
            <DistanceMeters>NAN</DistanceMeters>
          </Trackpoint>
          <Trackpoint>
            <Time>2019-10-08T08:16:37.000Z</Time>
            <Position>
              <LatitudeDegrees>40.25665693916380405426025390625</LatitudeDegrees>
              <LongitudeDegrees>-5.937480367720127105712890625</LongitudeDegrees>
            </Position>
            <AltitudeMeters>433</AltitudeMeters>
            <DistanceMeters>NAN</DistanceMeters>
          </Trackpoint>
          <Trackpoint>
            <Time>2019-10-08T08:16:55.000Z</Time>
            <Position>
              <LatitudeDegrees>40.25665693916380405426025390625</LatitudeDegrees>
              <LongitudeDegrees>-5.937480367720127105712890625</LongitudeDegrees>
            </Position>
            <AltitudeMeters>433</AltitudeMeters>
            <DistanceMeters>NAN</DistanceMeters>
          </Trackpoint>
          <Trackpoint>
            <Time>2019-10-08T08:16:56.000Z</Time>
            <Position>
              <LatitudeDegrees>40.25665693916380405426025390625</LatitudeDegrees>
              <LongitudeDegrees>-5.937480367720127105712890625</LongitudeDegrees>
            </Position>
            <AltitudeMeters>433</AltitudeMeters>
            <DistanceMeters>NAN</DistanceMeters>
          </Trackpoint>
          <Trackpoint>
            <Time>2019-10-08T08:16:59.000Z</Time>
            <Position>
              <LatitudeDegrees>40.25665358640253543853759765625</LatitudeDegrees>
              <LongitudeDegrees>-5.93748263083398342132568359375</LongitudeDegrees>
            </Position>
            <AltitudeMeters>432.600006103515625</AltitudeMeters>
            <DistanceMeters>NAN</DistanceMeters>
          </Trackpoint>
          <Trackpoint>
            <Time>2019-10-08T08:17:02.000Z</Time>
            <Position>
              <LatitudeDegrees>40.25665760971605777740478515625</LatitudeDegrees>
              <LongitudeDegrees>-5.93748481012880802154541015625</LongitudeDegrees>
            </Position>
            <AltitudeMeters>432.600006103515625</AltitudeMeters>
            <DistanceMeters>NAN</DistanceMeters>
          </Trackpoint>
          <Trackpoint>
            <Time>2019-10-08T08:17:07.000Z</Time>
            <Position>
              <LatitudeDegrees>40.25665693916380405426025390625</LatitudeDegrees>
              <LongitudeDegrees>-5.937480367720127105712890625</LongitudeDegrees>
            </Position>
            <AltitudeMeters>432.79998779296875</AltitudeMeters>
            <DistanceMeters>NAN</DistanceMeters>
          </Trackpoint>
          <Trackpoint>
            <Time>2019-10-08T08:17:09.000Z</Time>
            <Position>
              <LatitudeDegrees>40.25665693916380405426025390625</LatitudeDegrees>
              <LongitudeDegrees>-5.937480367720127105712890625</LongitudeDegrees>
            </Position>
            <AltitudeMeters>432.600006103515625</AltitudeMeters>
            <DistanceMeters>NAN</DistanceMeters>
          </Trackpoint>
          <Trackpoint>
            <Time>2019-10-08T08:17:11.000Z</Time>
            <Position>
              <LatitudeDegrees>40.25665693916380405426025390625</LatitudeDegrees>
              <LongitudeDegrees>-5.937480367720127105712890625</LongitudeDegrees>
            </Position>
            <AltitudeMeters>432.79998779296875</AltitudeMeters>
            <DistanceMeters>NAN</DistanceMeters>
          </Trackpoint>
          <Trackpoint>
            <Time>2019-10-08T08:17:13.000Z</Time>
            <Position>
              <LatitudeDegrees>40.25665693916380405426025390625</LatitudeDegrees>
              <LongitudeDegrees>-5.937480367720127105712890625</LongitudeDegrees>
            </Position>
            <AltitudeMeters>432.79998779296875</AltitudeMeters>
            <DistanceMeters>NAN</DistanceMeters>
          </Trackpoint>
          <Trackpoint>
            <Time>2019-10-08T08:17:16.000Z</Time>
            <Position>
              <LatitudeDegrees>40.25665090419352054595947265625</LatitudeDegrees>
              <LongitudeDegrees>-5.93748564831912517547607421875</LongitudeDegrees>
            </Position>
            <AltitudeMeters>432.399993896484375</AltitudeMeters>
            <DistanceMeters>NAN</DistanceMeters>
          </Trackpoint>
          <Trackpoint>
            <Time>2019-10-08T08:17:18.000Z</Time>
            <Position>
              <LatitudeDegrees>40.2566261775791645050048828125</LatitudeDegrees>
              <LongitudeDegrees>-5.93751632608473300933837890625</LongitudeDegrees>
            </Position>
            <AltitudeMeters>432.600006103515625</AltitudeMeters>
            <DistanceMeters>NAN</DistanceMeters>
          </Trackpoint>
          <Trackpoint>
            <Time>2019-10-08T08:17:21.000Z</Time>
            <Position>
              <LatitudeDegrees>40.25656356476247310638427734375</LatitudeDegrees>
              <LongitudeDegrees>-5.9375744126737117767333984375</LongitudeDegrees>
            </Position>
            <AltitudeMeters>432.600006103515625</AltitudeMeters>
            <DistanceMeters>NAN</DistanceMeters>
          </Trackpoint>
          <Trackpoint>
            <Time>2019-10-08T08:17:23.000Z</Time>
            <Position>
              <LatitudeDegrees>40.25651511736214160919189453125</LatitudeDegrees>
              <LongitudeDegrees>-5.93765429221093654632568359375</LongitudeDegrees>
            </Position>
            <AltitudeMeters>432.600006103515625</AltitudeMeters>
            <DistanceMeters>NAN</DistanceMeters>
          </Trackpoint>
          <Trackpoint>
            <Time>2019-10-08T08:17:27.000Z</Time>
            <Position>
              <LatitudeDegrees>40.25638838298618793487548828125</LatitudeDegrees>
              <LongitudeDegrees>-5.93785755336284637451171875</LongitudeDegrees>
            </Position>
            <AltitudeMeters>431.79998779296875</AltitudeMeters>
            <DistanceMeters>NAN</DistanceMeters>
          </Trackpoint>
          <Trackpoint>
            <Time>2019-10-08T08:17:28.000Z</Time>
            <Position>
              <LatitudeDegrees>40.25635586120188236236572265625</LatitudeDegrees>
              <LongitudeDegrees>-5.93791178427636623382568359375</LongitudeDegrees>
            </Position>
            <AltitudeMeters>431.20001220703125</AltitudeMeters>
            <DistanceMeters>NAN</DistanceMeters>
          </Trackpoint>
          <Trackpoint>
            <Time>2019-10-08T08:17:31.000Z</Time>
            <Position>
              <LatitudeDegrees>40.2562479861080646514892578125</LatitudeDegrees>
              <LongitudeDegrees>-5.93808277510106563568115234375</LongitudeDegrees>
            </Position>
            <AltitudeMeters>431</AltitudeMeters>
            <DistanceMeters>NAN</DistanceMeters>
          </Trackpoint>
          <Trackpoint>
            <Time>2019-10-08T08:17:34.000Z</Time>
            <Position>
              <LatitudeDegrees>40.25613592006266117095947265625</LatitudeDegrees>
              <LongitudeDegrees>-5.938264243304729461669921875</LongitudeDegrees>
            </Position>
            <AltitudeMeters>430.79998779296875</AltitudeMeters>
            <DistanceMeters>NAN</DistanceMeters>
          </Trackpoint>
          <Trackpoint>
            <Time>2019-10-08T08:17:36.000Z</Time>
            <Position>
              <LatitudeDegrees>40.256059058010578155517578125</LatitudeDegrees>
              <LongitudeDegrees>-5.93839173205196857452392578125</LongitudeDegrees>
            </Position>
            <AltitudeMeters>430.79998779296875</AltitudeMeters>
            <DistanceMeters>NAN</DistanceMeters>
          </Trackpoint>
          <Trackpoint>
            <Time>2019-10-08T08:17:41.000Z</Time>
            <Position>
              <LatitudeDegrees>40.25585898198187351226806640625</LatitudeDegrees>
              <LongitudeDegrees>-5.93871460296213626861572265625</LongitudeDegrees>
            </Position>
            <AltitudeMeters>430</AltitudeMeters>
            <DistanceMeters>NAN</DistanceMeters>
          </Trackpoint>
          <Trackpoint>
            <Time>2019-10-08T08:17:45.000Z</Time>
            <Position>
              <LatitudeDegrees>40.25569134391844272613525390625</LatitudeDegrees>
              <LongitudeDegrees>-5.9389793872833251953125</LongitudeDegrees>
            </Position>
            <AltitudeMeters>429.399993896484375</AltitudeMeters>
            <DistanceMeters>NAN</DistanceMeters>
          </Trackpoint>
          <Trackpoint>
            <Time>2019-10-08T08:17:49.000Z</Time>
            <Position>
              <LatitudeDegrees>40.2555224485695362091064453125</LatitudeDegrees>
              <LongitudeDegrees>-5.93924819491803646087646484375</LongitudeDegrees>
            </Position>
            <AltitudeMeters>428.79998779296875</AltitudeMeters>
            <DistanceMeters>NAN</DistanceMeters>
          </Trackpoint>
          <Trackpoint>
            <Time>2019-10-08T08:17:54.000Z</Time>
            <Position>
              <LatitudeDegrees>40.2552942931652069091796875</LatitudeDegrees>
              <LongitudeDegrees>-5.93961934559047222137451171875</LongitudeDegrees>
            </Position>
            <AltitudeMeters>427.600006103515625</AltitudeMeters>
            <DistanceMeters>NAN</DistanceMeters>
          </Trackpoint>
          <Trackpoint>
            <Time>2019-10-08T08:17:55.000Z</Time>
            <Position>
              <LatitudeDegrees>40.255244337022304534912109375</LatitudeDegrees>
              <LongitudeDegrees>-5.939696542918682098388671875</LongitudeDegrees>
            </Position>
            <AltitudeMeters>427.20001220703125</AltitudeMeters>
            <DistanceMeters>NAN</DistanceMeters>
          </Trackpoint>
          <Trackpoint>
            <Time>2019-10-08T08:17:57.000Z</Time>
            <Position>
              <LatitudeDegrees>40.25514601729810237884521484375</LatitudeDegrees>
              <LongitudeDegrees>-5.9398529492318630218505859375</LongitudeDegrees>
            </Position>
            <AltitudeMeters>426.600006103515625</AltitudeMeters>
            <DistanceMeters>NAN</DistanceMeters>
          </Trackpoint>
          <Trackpoint>
            <Time>2019-10-08T08:18:02.000Z</Time>
            <Position>
              <LatitudeDegrees>40.2548887766897678375244140625</LatitudeDegrees>
              <LongitudeDegrees>-5.9402547776699066162109375</LongitudeDegrees>
            </Position>
            <AltitudeMeters>426</AltitudeMeters>
            <DistanceMeters>NAN</DistanceMeters>
          </Trackpoint>
          <Trackpoint>
            <Time>2019-10-08T08:18:03.000Z</Time>
            <Position>
              <LatitudeDegrees>40.25482155382633209228515625</LatitudeDegrees>
              <LongitudeDegrees>-5.94035527668893337249755859375</LongitudeDegrees>
            </Position>
            <AltitudeMeters>425.600006103515625</AltitudeMeters>
            <DistanceMeters>NAN</DistanceMeters>
          </Trackpoint>
          <Trackpoint>
            <Time>2019-10-08T08:18:08.000Z</Time>
            <Position>
              <LatitudeDegrees>40.25457420386373996734619140625</LatitudeDegrees>
              <LongitudeDegrees>-5.9407682530581951141357421875</LongitudeDegrees>
            </Position>
            <AltitudeMeters>424.399993896484375</AltitudeMeters>
            <DistanceMeters>NAN</DistanceMeters>
          </Trackpoint>
          <Trackpoint>
            <Time>2019-10-08T08:18:09.000Z</Time>
            <Position>
              <LatitudeDegrees>40.254519470036029815673828125</LatitudeDegrees>
              <LongitudeDegrees>-5.94085550867021083831787109375</LongitudeDegrees>
            </Position>
            <AltitudeMeters>424.20001220703125</AltitudeMeters>
            <DistanceMeters>NAN</DistanceMeters>
          </Trackpoint>
          <Trackpoint>
            <Time>2019-10-08T08:18:12.000Z</Time>
            <Position>
              <LatitudeDegrees>40.2543580345809459686279296875</LatitudeDegrees>
              <LongitudeDegrees>-5.941122807562351226806640625</LongitudeDegrees>
            </Position>
            <AltitudeMeters>423.20001220703125</AltitudeMeters>
            <DistanceMeters>NAN</DistanceMeters>
          </Trackpoint>
          <Trackpoint>
            <Time>2019-10-08T08:18:16.000Z</Time>
            <Position>
              <LatitudeDegrees>40.25413356721401214599609375</LatitudeDegrees>
              <LongitudeDegrees>-5.9414817206561565399169921875</LongitudeDegrees>
            </Position>
            <AltitudeMeters>421.600006103515625</AltitudeMeters>
            <DistanceMeters>NAN</DistanceMeters>
          </Trackpoint>
          <Trackpoint>
            <Time>2019-10-08T08:18:18.000Z</Time>
            <Position>
              <LatitudeDegrees>40.25401781313121318817138671875</LatitudeDegrees>
              <LongitudeDegrees>-5.9416587464511394500732421875</LongitudeDegrees>
            </Position>
            <AltitudeMeters>421.399993896484375</AltitudeMeters>
            <DistanceMeters>NAN</DistanceMeters>
          </Trackpoint>
          <Trackpoint>
            <Time>2019-10-08T08:18:22.000Z</Time>
            <Position>
              <LatitudeDegrees>40.25379200465977191925048828125</LatitudeDegrees>
              <LongitudeDegrees>-5.94202696345746517181396484375</LongitudeDegrees>
            </Position>
            <AltitudeMeters>420.600006103515625</AltitudeMeters>
            <DistanceMeters>NAN</DistanceMeters>
          </Trackpoint>
          <Trackpoint>
            <Time>2019-10-08T08:18:25.000Z</Time>
            <Position>
              <LatitudeDegrees>40.25362931191921234130859375</LatitudeDegrees>
              <LongitudeDegrees>-5.942329801619052886962890625</LongitudeDegrees>
            </Position>
            <AltitudeMeters>419.20001220703125</AltitudeMeters>
            <DistanceMeters>NAN</DistanceMeters>
          </Trackpoint>
          <Trackpoint>
            <Time>2019-10-08T08:18:26.000Z</Time>
            <Position>
              <LatitudeDegrees>40.25358103215694427490234375</LatitudeDegrees>
              <LongitudeDegrees>-5.9424406103789806365966796875</LongitudeDegrees>
            </Position>
            <AltitudeMeters>419</AltitudeMeters>
            <DistanceMeters>NAN</DistanceMeters>
          </Trackpoint>
          <Trackpoint>
            <Time>2019-10-08T08:18:29.000Z</Time>
            <Position>
              <LatitudeDegrees>40.25345404632389545440673828125</LatitudeDegrees>
              <LongitudeDegrees>-5.94278837554156780242919921875</LongitudeDegrees>
            </Position>
            <AltitudeMeters>417.600006103515625</AltitudeMeters>
            <DistanceMeters>NAN</DistanceMeters>
          </Trackpoint>
          <Trackpoint>
            <Time>2019-10-08T08:18:31.000Z</Time>
            <Position>
              <LatitudeDegrees>40.2533786930143833160400390625</LatitudeDegrees>
              <LongitudeDegrees>-5.9430313669145107269287109375</LongitudeDegrees>
            </Position>
            <AltitudeMeters>416.399993896484375</AltitudeMeters>
            <DistanceMeters>NAN</DistanceMeters>
          </Trackpoint>
          <Trackpoint>
            <Time>2019-10-08T08:18:33.000Z</Time>
            <Position>
              <LatitudeDegrees>40.25330920703709125518798828125</LatitudeDegrees>
              <LongitudeDegrees>-5.94328123144805431365966796875</LongitudeDegrees>
            </Position>
            <AltitudeMeters>415.399993896484375</AltitudeMeters>
            <DistanceMeters>NAN</DistanceMeters>
          </Trackpoint>
          <Trackpoint>
            <Time>2019-10-08T08:18:35.000Z</Time>
            <Position>
              <LatitudeDegrees>40.25324642658233642578125</LatitudeDegrees>
              <LongitudeDegrees>-5.9435396455228328704833984375</LongitudeDegrees>
            </Position>
            <AltitudeMeters>414.20001220703125</AltitudeMeters>
            <DistanceMeters>NAN</DistanceMeters>
          </Trackpoint>
          <Trackpoint>
            <Time>2019-10-08T08:18:37.000Z</Time>
            <Position>
              <LatitudeDegrees>40.25318582542240619659423828125</LatitudeDegrees>
              <LongitudeDegrees>-5.94380442984402179718017578125</LongitudeDegrees>
            </Position>
            <AltitudeMeters>413.20001220703125</AltitudeMeters>
            <DistanceMeters>NAN</DistanceMeters>
          </Trackpoint>
          <Trackpoint>
            <Time>2019-10-08T08:18:38.000Z</Time>
            <Position>
              <LatitudeDegrees>40.25315179489552974700927734375</LatitudeDegrees>
              <LongitudeDegrees>-5.94394004903733730316162109375</LongitudeDegrees>
            </Position>
            <AltitudeMeters>412.20001220703125</AltitudeMeters>
            <DistanceMeters>NAN</DistanceMeters>
          </Trackpoint>
          <Trackpoint>
            <Time>2019-10-08T08:18:39.000Z</Time>
            <Position>
              <LatitudeDegrees>40.25311759673058986663818359375</LatitudeDegrees>
              <LongitudeDegrees>-5.9440707229077816009521484375</LongitudeDegrees>
            </Position>
            <AltitudeMeters>411.600006103515625</AltitudeMeters>
            <DistanceMeters>NAN</DistanceMeters>
          </Trackpoint>
          <Trackpoint>
            <Time>2019-10-08T08:18:41.000Z</Time>
            <Position>
              <LatitudeDegrees>40.253042243421077728271484375</LatitudeDegrees>
              <LongitudeDegrees>-5.94434087164700031280517578125</LongitudeDegrees>
            </Position>
            <AltitudeMeters>410.399993896484375</AltitudeMeters>
            <DistanceMeters>NAN</DistanceMeters>
          </Trackpoint>
          <Trackpoint>
            <Time>2019-10-08T08:18:43.000Z</Time>
            <Position>
              <LatitudeDegrees>40.25296236388385295867919921875</LatitudeDegrees>
              <LongitudeDegrees>-5.944615714251995086669921875</LongitudeDegrees>
            </Position>
            <AltitudeMeters>409.20001220703125</AltitudeMeters>
            <DistanceMeters>NAN</DistanceMeters>
          </Trackpoint>
          <Trackpoint>
            <Time>2019-10-08T08:18:45.000Z</Time>
            <Position>
              <LatitudeDegrees>40.252868235111236572265625</LatitudeDegrees>
              <LongitudeDegrees>-5.94489206559956073760986328125</LongitudeDegrees>
            </Position>
            <AltitudeMeters>408</AltitudeMeters>
            <DistanceMeters>NAN</DistanceMeters>
          </Trackpoint>
          <Trackpoint>
            <Time>2019-10-08T08:18:47.000Z</Time>
            <Position>
              <LatitudeDegrees>40.2527661435306072235107421875</LatitudeDegrees>
              <LongitudeDegrees>-5.94516783021390438079833984375</LongitudeDegrees>
            </Position>
            <AltitudeMeters>407</AltitudeMeters>
            <DistanceMeters>NAN</DistanceMeters>
          </Trackpoint>
          <Trackpoint>
            <Time>2019-10-08T08:18:49.000Z</Time>
            <Position>
              <LatitudeDegrees>40.25265374220907688140869140625</LatitudeDegrees>
              <LongitudeDegrees>-5.94544351100921630859375</LongitudeDegrees>
            </Position>
            <AltitudeMeters>405.399993896484375</AltitudeMeters>
            <DistanceMeters>NAN</DistanceMeters>
          </Trackpoint>
          <Trackpoint>
            <Time>2019-10-08T08:18:50.000Z</Time>
            <Position>
              <LatitudeDegrees>40.25259255431592464447021484375</LatitudeDegrees>
              <LongitudeDegrees>-5.94557820819318294525146484375</LongitudeDegrees>
            </Position>
            <AltitudeMeters>404</AltitudeMeters>
            <DistanceMeters>NAN</DistanceMeters>
          </Trackpoint>
          <Trackpoint>
            <Time>2019-10-08T08:18:51.000Z</Time>
            <Position>
              <LatitudeDegrees>40.25253103114664554595947265625</LatitudeDegrees>
              <LongitudeDegrees>-5.9457129053771495819091796875</LongitudeDegrees>
            </Position>
            <AltitudeMeters>403.20001220703125</AltitudeMeters>
            <DistanceMeters>NAN</DistanceMeters>
          </Trackpoint>
          <Trackpoint>
            <Time>2019-10-08T08:18:52.000Z</Time>
            <Position>
              <LatitudeDegrees>40.25246598757803440093994140625</LatitudeDegrees>
              <LongitudeDegrees>-5.94584458507597446441650390625</LongitudeDegrees>
            </Position>
            <AltitudeMeters>402</AltitudeMeters>
            <DistanceMeters>NAN</DistanceMeters>
          </Trackpoint>
          <Trackpoint>
            <Time>2019-10-08T08:18:54.000Z</Time>
            <Position>
              <LatitudeDegrees>40.2523326314985752105712890625</LatitudeDegrees>
              <LongitudeDegrees>-5.94611196778714656829833984375</LongitudeDegrees>
            </Position>
            <AltitudeMeters>400.79998779296875</AltitudeMeters>
            <DistanceMeters>NAN</DistanceMeters>
          </Trackpoint>
          <Trackpoint>
            <Time>2019-10-08T08:18:56.000Z</Time>
            <Position>
              <LatitudeDegrees>40.2521928213536739349365234375</LatitudeDegrees>
              <LongitudeDegrees>-5.94637197442352771759033203125</LongitudeDegrees>
            </Position>
            <AltitudeMeters>399.399993896484375</AltitudeMeters>
            <DistanceMeters>NAN</DistanceMeters>
          </Trackpoint>
          <Trackpoint>
            <Time>2019-10-08T08:18:58.000Z</Time>
            <Position>
              <LatitudeDegrees>40.25205275975167751312255859375</LatitudeDegrees>
              <LongitudeDegrees>-5.9466369263827800750732421875</LongitudeDegrees>
            </Position>
            <AltitudeMeters>398.399993896484375</AltitudeMeters>
            <DistanceMeters>NAN</DistanceMeters>
          </Trackpoint>
          <Trackpoint>
            <Time>2019-10-08T08:19:00.000Z</Time>
            <Position>
              <LatitudeDegrees>40.25191144086420536041259765625</LatitudeDegrees>
              <LongitudeDegrees>-5.94689793884754180908203125</LongitudeDegrees>
            </Position>
            <AltitudeMeters>397</AltitudeMeters>
            <DistanceMeters>NAN</DistanceMeters>
          </Trackpoint>
          <Trackpoint>
            <Time>2019-10-08T08:19:02.000Z</Time>
            <Position>
              <LatitudeDegrees>40.25177397765219211578369140625</LatitudeDegrees>
              <LongitudeDegrees>-5.94715517945587635040283203125</LongitudeDegrees>
            </Position>
            <AltitudeMeters>396</AltitudeMeters>
            <DistanceMeters>NAN</DistanceMeters>
          </Trackpoint>
          <Trackpoint>
            <Time>2019-10-08T08:19:06.000Z</Time>
            <Position>
              <LatitudeDegrees>40.25151547975838184356689453125</LatitudeDegrees>
              <LongitudeDegrees>-5.947637893259525299072265625</LongitudeDegrees>
            </Position>
            <AltitudeMeters>396.20001220703125</AltitudeMeters>
            <DistanceMeters>NAN</DistanceMeters>
          </Trackpoint>
          <Trackpoint>
            <Time>2019-10-08T08:19:09.000Z</Time>
            <Position>
              <LatitudeDegrees>40.25134532712399959564208984375</LatitudeDegrees>
              <LongitudeDegrees>-5.9479582495987415313720703125</LongitudeDegrees>
            </Position>
            <AltitudeMeters>397.399993896484375</AltitudeMeters>
            <DistanceMeters>NAN</DistanceMeters>
          </Trackpoint>
          <Trackpoint>
            <Time>2019-10-08T08:19:11.000Z</Time>
            <Position>
              <LatitudeDegrees>40.2512483485043048858642578125</LatitudeDegrees>
              <LongitudeDegrees>-5.948148854076862335205078125</LongitudeDegrees>
            </Position>
            <AltitudeMeters>398.399993896484375</AltitudeMeters>
            <DistanceMeters>NAN</DistanceMeters>
          </Trackpoint>
          <Trackpoint>
            <Time>2019-10-08T08:19:15.000Z</Time>
            <Position>
              <LatitudeDegrees>40.25107140652835369110107421875</LatitudeDegrees>
              <LongitudeDegrees>-5.94848312437534332275390625</LongitudeDegrees>
            </Position>
            <AltitudeMeters>399.399993896484375</AltitudeMeters>
            <DistanceMeters>NAN</DistanceMeters>
          </Trackpoint>
          <Trackpoint>
            <Time>2019-10-08T08:19:16.000Z</Time>
            <Position>
              <LatitudeDegrees>40.25102983228862285614013671875</LatitudeDegrees>
              <LongitudeDegrees>-5.948563925921916961669921875</LongitudeDegrees>
            </Position>
            <AltitudeMeters>399.399993896484375</AltitudeMeters>
            <DistanceMeters>NAN</DistanceMeters>
          </Trackpoint>
          <Trackpoint>
            <Time>2019-10-08T08:19:18.000Z</Time>
            <Position>
              <LatitudeDegrees>40.25095204822719097137451171875</LatitudeDegrees>
              <LongitudeDegrees>-5.948726199567317962646484375</LongitudeDegrees>
            </Position>
            <AltitudeMeters>399.20001220703125</AltitudeMeters>
            <DistanceMeters>NAN</DistanceMeters>
          </Trackpoint>
          <Trackpoint>
            <Time>2019-10-08T08:19:21.000Z</Time>
            <Position>
              <LatitudeDegrees>40.25083419866859912872314453125</LatitudeDegrees>
              <LongitudeDegrees>-5.94897053204476833343505859375</LongitudeDegrees>
            </Position>
            <AltitudeMeters>399.20001220703125</AltitudeMeters>
            <DistanceMeters>NAN</DistanceMeters>
          </Trackpoint>
          <Trackpoint>
            <Time>2019-10-08T08:19:24.000Z</Time>
            <Position>
              <LatitudeDegrees>40.2507172711193561553955078125</LatitudeDegrees>
              <LongitudeDegrees>-5.9492185525596141815185546875</LongitudeDegrees>
            </Position>
            <AltitudeMeters>398.79998779296875</AltitudeMeters>
            <DistanceMeters>NAN</DistanceMeters>
          </Trackpoint>
          <Trackpoint>
            <Time>2019-10-08T08:19:25.000Z</Time>
            <Position>
              <LatitudeDegrees>40.2506783790886402130126953125</LatitudeDegrees>
              <LongitudeDegrees>-5.949302874505519866943359375</LongitudeDegrees>
            </Position>
            <AltitudeMeters>398.600006103515625</AltitudeMeters>
            <DistanceMeters>NAN</DistanceMeters>
          </Trackpoint>
          <Trackpoint>
            <Time>2019-10-08T08:19:30.000Z</Time>
            <Position>
              <LatitudeDegrees>40.25047863833606243133544921875</LatitudeDegrees>
              <LongitudeDegrees>-5.94973395578563213348388671875</LongitudeDegrees>
            </Position>
            <AltitudeMeters>397.600006103515625</AltitudeMeters>
            <DistanceMeters>NAN</DistanceMeters>
          </Trackpoint>
          <Trackpoint>
            <Time>2019-10-08T08:19:32.000Z</Time>
            <Position>
              <LatitudeDegrees>40.2503930591046810150146484375</LatitudeDegrees>
              <LongitudeDegrees>-5.94990930519998073577880859375</LongitudeDegrees>
            </Position>
            <AltitudeMeters>397.20001220703125</AltitudeMeters>
            <DistanceMeters>NAN</DistanceMeters>
          </Trackpoint>
          <Trackpoint>
            <Time>2019-10-08T08:19:36.000Z</Time>
            <Position>
              <LatitudeDegrees>40.25021946988999843597412109375</LatitudeDegrees>
              <LongitudeDegrees>-5.95025849528610706329345703125</LongitudeDegrees>
            </Position>
            <AltitudeMeters>396.399993896484375</AltitudeMeters>
            <DistanceMeters>NAN</DistanceMeters>
          </Trackpoint>
          <Trackpoint>
            <Time>2019-10-08T08:19:37.000Z</Time>
            <Position>
              <LatitudeDegrees>40.2501739561557769775390625</LatitudeDegrees>
              <LongitudeDegrees>-5.9503450803458690643310546875</LongitudeDegrees>
            </Position>
            <AltitudeMeters>395.600006103515625</AltitudeMeters>
            <DistanceMeters>NAN</DistanceMeters>
          </Trackpoint>
          <Trackpoint>
            <Time>2019-10-08T08:19:42.000Z</Time>
            <Position>
              <LatitudeDegrees>40.2499260194599628448486328125</LatitudeDegrees>
              <LongitudeDegrees>-5.95077364705502986907958984375</LongitudeDegrees>
            </Position>
            <AltitudeMeters>394.399993896484375</AltitudeMeters>
            <DistanceMeters>NAN</DistanceMeters>
          </Trackpoint>
          <Trackpoint>
            <Time>2019-10-08T08:19:44.000Z</Time>
            <Position>
              <LatitudeDegrees>40.24982317350804805755615234375</LatitudeDegrees>
              <LongitudeDegrees>-5.95093944109976291656494140625</LongitudeDegrees>
            </Position>
            <AltitudeMeters>394</AltitudeMeters>
            <DistanceMeters>NAN</DistanceMeters>
          </Trackpoint>
          <Trackpoint>
            <Time>2019-10-08T08:19:48.000Z</Time>
            <Position>
              <LatitudeDegrees>40.249604992568492889404296875</LatitudeDegrees>
              <LongitudeDegrees>-5.9512464702129364013671875</LongitudeDegrees>
            </Position>
            <AltitudeMeters>393.399993896484375</AltitudeMeters>
            <DistanceMeters>NAN</DistanceMeters>
          </Trackpoint>
          <Trackpoint>
            <Time>2019-10-08T08:19:51.000Z</Time>
            <Position>
              <LatitudeDegrees>40.249434001743793487548828125</LatitudeDegrees>
              <LongitudeDegrees>-5.95146599225699901580810546875</LongitudeDegrees>
            </Position>
            <AltitudeMeters>393</AltitudeMeters>
            <DistanceMeters>NAN</DistanceMeters>
          </Trackpoint>
          <Trackpoint>
            <Time>2019-10-08T08:19:53.000Z</Time>
            <Position>
              <LatitudeDegrees>40.24931321851909160614013671875</LatitudeDegrees>
              <LongitudeDegrees>-5.95160923898220062255859375</LongitudeDegrees>
            </Position>
            <AltitudeMeters>392.399993896484375</AltitudeMeters>
            <DistanceMeters>NAN</DistanceMeters>
          </Trackpoint>
          <Trackpoint>
            <Time>2019-10-08T08:19:58.000Z</Time>
            <Position>
              <LatitudeDegrees>40.24900191463530063629150390625</LatitudeDegrees>
              <LongitudeDegrees>-5.9519751928746700286865234375</LongitudeDegrees>
            </Position>
            <AltitudeMeters>391.20001220703125</AltitudeMeters>
            <DistanceMeters>NAN</DistanceMeters>
          </Trackpoint>
          <Trackpoint>
            <Time>2019-10-08T08:19:59.000Z</Time>
            <Position>
              <LatitudeDegrees>40.24893946945667266845703125</LatitudeDegrees>
              <LongitudeDegrees>-5.95204912126064300537109375</LongitudeDegrees>
            </Position>
            <AltitudeMeters>390.600006103515625</AltitudeMeters>
            <DistanceMeters>NAN</DistanceMeters>
          </Trackpoint>
          <Trackpoint>
            <Time>2019-10-08T08:20:02.000Z</Time>
            <Position>
              <LatitudeDegrees>40.24874626658856868743896484375</LatitudeDegrees>
              <LongitudeDegrees>-5.95226344652473926544189453125</LongitudeDegrees>
            </Position>
            <AltitudeMeters>389.79998779296875</AltitudeMeters>
            <DistanceMeters>NAN</DistanceMeters>
          </Trackpoint>
          <Trackpoint>
            <Time>2019-10-08T08:20:06.000Z</Time>
            <Position>
              <LatitudeDegrees>40.24849380366504192352294921875</LatitudeDegrees>
              <LongitudeDegrees>-5.95254574902355670928955078125</LongitudeDegrees>
            </Position>
            <AltitudeMeters>389.600006103515625</AltitudeMeters>
            <DistanceMeters>NAN</DistanceMeters>
          </Trackpoint>
          <Trackpoint>
            <Time>2019-10-08T08:20:09.000Z</Time>
            <Position>
              <LatitudeDegrees>40.2483076415956020355224609375</LatitudeDegrees>
              <LongitudeDegrees>-5.9527547098696231842041015625</LongitudeDegrees>
            </Position>
            <AltitudeMeters>388.600006103515625</AltitudeMeters>
            <DistanceMeters>NAN</DistanceMeters>
          </Trackpoint>
          <Trackpoint>
            <Time>2019-10-08T08:20:14.000Z</Time>
            <Position>
              <LatitudeDegrees>40.2480065636336803436279296875</LatitudeDegrees>
              <LongitudeDegrees>-5.953092165291309356689453125</LongitudeDegrees>
            </Position>
            <AltitudeMeters>388.399993896484375</AltitudeMeters>
            <DistanceMeters>NAN</DistanceMeters>
          </Trackpoint>
          <Trackpoint>
            <Time>2019-10-08T08:20:16.000Z</Time>
            <Position>
              <LatitudeDegrees>40.24788494221866130828857421875</LatitudeDegrees>
              <LongitudeDegrees>-5.95323331654071807861328125</LongitudeDegrees>
            </Position>
            <AltitudeMeters>387.600006103515625</AltitudeMeters>
            <DistanceMeters>NAN</DistanceMeters>
          </Trackpoint>
          <Trackpoint>
            <Time>2019-10-08T08:20:22.000Z</Time>
            <Position>
              <LatitudeDegrees>40.24751387536525726318359375</LatitudeDegrees>
              <LongitudeDegrees>-5.9536604583263397216796875</LongitudeDegrees>
            </Position>
            <AltitudeMeters>386.399993896484375</AltitudeMeters>
            <DistanceMeters>NAN</DistanceMeters>
          </Trackpoint>
          <Trackpoint>
            <Time>2019-10-08T08:20:25.000Z</Time>
            <Position>
              <LatitudeDegrees>40.24732670746743679046630859375</LatitudeDegrees>
              <LongitudeDegrees>-5.953872017562389373779296875</LongitudeDegrees>
            </Position>
            <AltitudeMeters>385.20001220703125</AltitudeMeters>
            <DistanceMeters>NAN</DistanceMeters>
          </Trackpoint>
          <Trackpoint>
            <Time>2019-10-08T08:20:31.000Z</Time>
            <Position>
              <LatitudeDegrees>40.24695170111954212188720703125</LatitudeDegrees>
              <LongitudeDegrees>-5.954302512109279632568359375</LongitudeDegrees>
            </Position>
            <AltitudeMeters>384</AltitudeMeters>
            <DistanceMeters>NAN</DistanceMeters>
          </Trackpoint>
          <Trackpoint>
            <Time>2019-10-08T08:20:38.000Z</Time>
            <Position>
              <LatitudeDegrees>40.24651047773659229278564453125</LatitudeDegrees>
              <LongitudeDegrees>-5.95480333082377910614013671875</LongitudeDegrees>
            </Position>
            <AltitudeMeters>382.79998779296875</AltitudeMeters>
            <DistanceMeters>NAN</DistanceMeters>
          </Trackpoint>
          <Trackpoint>
            <Time>2019-10-08T08:20:43.000Z</Time>
            <Position>
              <LatitudeDegrees>40.24620017968118190765380859375</LatitudeDegrees>
              <LongitudeDegrees>-5.95518051646649837493896484375</LongitudeDegrees>
            </Position>
            <AltitudeMeters>382.20001220703125</AltitudeMeters>
            <DistanceMeters>NAN</DistanceMeters>
          </Trackpoint>
          <Trackpoint>
            <Time>2019-10-08T08:20:44.000Z</Time>
            <Position>
              <LatitudeDegrees>40.2461420930922031402587890625</LatitudeDegrees>
              <LongitudeDegrees>-5.95526416786015033721923828125</LongitudeDegrees>
            </Position>
            <AltitudeMeters>381.79998779296875</AltitudeMeters>
            <DistanceMeters>NAN</DistanceMeters>
          </Trackpoint>
          <Trackpoint>
            <Time>2019-10-08T08:20:47.000Z</Time>
            <Position>
              <LatitudeDegrees>40.24599465541541576385498046875</LatitudeDegrees>
              <LongitudeDegrees>-5.9555378369987010955810546875</LongitudeDegrees>
            </Position>
            <AltitudeMeters>380.399993896484375</AltitudeMeters>
            <DistanceMeters>NAN</DistanceMeters>
          </Trackpoint>
          <Trackpoint>
            <Time>2019-10-08T08:20:49.000Z</Time>
            <Position>
              <LatitudeDegrees>40.24590983055531978607177734375</LatitudeDegrees>
              <LongitudeDegrees>-5.95573003403842449188232421875</LongitudeDegrees>
            </Position>
            <AltitudeMeters>380</AltitudeMeters>
            <DistanceMeters>NAN</DistanceMeters>
          </Trackpoint>
          <Trackpoint>
            <Time>2019-10-08T08:20:52.000Z</Time>
            <Position>
              <LatitudeDegrees>40.24578829295933246612548828125</LatitudeDegrees>
              <LongitudeDegrees>-5.95603488385677337646484375</LongitudeDegrees>
            </Position>
            <AltitudeMeters>379</AltitudeMeters>
            <DistanceMeters>NAN</DistanceMeters>
          </Trackpoint>
          <Trackpoint>
            <Time>2019-10-08T08:20:54.000Z</Time>
            <Position>
              <LatitudeDegrees>40.24570405483245849609375</LatitudeDegrees>
              <LongitudeDegrees>-5.9562445990741252899169921875</LongitudeDegrees>
            </Position>
            <AltitudeMeters>377.79998779296875</AltitudeMeters>
            <DistanceMeters>NAN</DistanceMeters>
          </Trackpoint>
          <Trackpoint>
            <Time>2019-10-08T08:20:56.000Z</Time>
            <Position>
              <LatitudeDegrees>40.2456170506775379180908203125</LatitudeDegrees>
              <LongitudeDegrees>-5.95645942725241184234619140625</LongitudeDegrees>
            </Position>
            <AltitudeMeters>376.600006103515625</AltitudeMeters>
            <DistanceMeters>NAN</DistanceMeters>
          </Trackpoint>
          <Trackpoint>
            <Time>2019-10-08T08:20:57.000Z</Time>
            <Position>
              <LatitudeDegrees>40.2455741353332996368408203125</LatitudeDegrees>
              <LongitudeDegrees>-5.956570990383625030517578125</LongitudeDegrees>
            </Position>
            <AltitudeMeters>375.600006103515625</AltitudeMeters>
            <DistanceMeters>NAN</DistanceMeters>
          </Trackpoint>
          <Trackpoint>
            <Time>2019-10-08T08:20:58.000Z</Time>
            <Position>
              <LatitudeDegrees>40.24553163908421993255615234375</LatitudeDegrees>
              <LongitudeDegrees>-5.95668238587677478790283203125</LongitudeDegrees>
            </Position>
            <AltitudeMeters>374.79998779296875</AltitudeMeters>
            <DistanceMeters>NAN</DistanceMeters>
          </Trackpoint>
          <Trackpoint>
            <Time>2019-10-08T08:21:01.000Z</Time>
            <Position>
              <LatitudeDegrees>40.24539786390960216522216796875</LatitudeDegrees>
              <LongitudeDegrees>-5.9570174105465412139892578125</LongitudeDegrees>
            </Position>
            <AltitudeMeters>373.79998779296875</AltitudeMeters>
            <DistanceMeters>NAN</DistanceMeters>
          </Trackpoint>
          <Trackpoint>
            <Time>2019-10-08T08:21:02.000Z</Time>
            <Position>
              <LatitudeDegrees>40.245355702936649322509765625</LatitudeDegrees>
              <LongitudeDegrees>-5.9571320749819278717041015625</LongitudeDegrees>
            </Position>
            <AltitudeMeters>372.600006103515625</AltitudeMeters>
            <DistanceMeters>NAN</DistanceMeters>
          </Trackpoint>
          <Trackpoint>
            <Time>2019-10-08T08:21:05.000Z</Time>
            <Position>
              <LatitudeDegrees>40.24521647952497005462646484375</LatitudeDegrees>
              <LongitudeDegrees>-5.957473218441009521484375</LongitudeDegrees>
            </Position>
            <AltitudeMeters>371.20001220703125</AltitudeMeters>
            <DistanceMeters>NAN</DistanceMeters>
          </Trackpoint>
          <Trackpoint>
            <Time>2019-10-08T08:21:08.000Z</Time>
            <Position>
              <LatitudeDegrees>40.2450789324939250946044921875</LatitudeDegrees>
              <LongitudeDegrees>-5.9578264318406581878662109375</LongitudeDegrees>
            </Position>
            <AltitudeMeters>369.600006103515625</AltitudeMeters>
            <DistanceMeters>NAN</DistanceMeters>
          </Trackpoint>
          <Trackpoint>
            <Time>2019-10-08T08:21:10.000Z</Time>
            <Position>
              <LatitudeDegrees>40.244982205331325531005859375</LatitudeDegrees>
              <LongitudeDegrees>-5.9580651484429836273193359375</LongitudeDegrees>
            </Position>
            <AltitudeMeters>368.399993896484375</AltitudeMeters>
            <DistanceMeters>NAN</DistanceMeters>
          </Trackpoint>
          <Trackpoint>
            <Time>2019-10-08T08:21:11.000Z</Time>
            <Position>
              <LatitudeDegrees>40.24493568576872348785400390625</LatitudeDegrees>
              <LongitudeDegrees>-5.95818727277219295501708984375</LongitudeDegrees>
            </Position>
            <AltitudeMeters>368</AltitudeMeters>
            <DistanceMeters>NAN</DistanceMeters>
          </Trackpoint>
          <Trackpoint>
            <Time>2019-10-08T08:21:12.000Z</Time>
            <Position>
              <LatitudeDegrees>40.24488665163516998291015625</LatitudeDegrees>
              <LongitudeDegrees>-5.95830881036818027496337890625</LongitudeDegrees>
            </Position>
            <AltitudeMeters>367.20001220703125</AltitudeMeters>
            <DistanceMeters>NAN</DistanceMeters>
          </Trackpoint>
          <Trackpoint>
            <Time>2019-10-08T08:21:14.000Z</Time>
            <Position>
              <LatitudeDegrees>40.24478875100612640380859375</LatitudeDegrees>
              <LongitudeDegrees>-5.95855222083628177642822265625</LongitudeDegrees>
            </Position>
            <AltitudeMeters>366</AltitudeMeters>
            <DistanceMeters>NAN</DistanceMeters>
          </Trackpoint>
          <Trackpoint>
            <Time>2019-10-08T08:21:16.000Z</Time>
            <Position>
              <LatitudeDegrees>40.24468950927257537841796875</LatitudeDegrees>
              <LongitudeDegrees>-5.9587973915040493011474609375</LongitudeDegrees>
            </Position>
            <AltitudeMeters>364.600006103515625</AltitudeMeters>
            <DistanceMeters>NAN</DistanceMeters>
          </Trackpoint>
          <Trackpoint>
            <Time>2019-10-08T08:21:19.000Z</Time>
            <Position>
              <LatitudeDegrees>40.24453503079712390899658203125</LatitudeDegrees>
              <LongitudeDegrees>-5.95916409976780414581298828125</LongitudeDegrees>
            </Position>
            <AltitudeMeters>363.399993896484375</AltitudeMeters>
            <DistanceMeters>NAN</DistanceMeters>
          </Trackpoint>
          <Trackpoint>
            <Time>2019-10-08T08:21:20.000Z</Time>
            <Position>
              <LatitudeDegrees>40.24448323063552379608154296875</LatitudeDegrees>
              <LongitudeDegrees>-5.95928798429667949676513671875</LongitudeDegrees>
            </Position>
            <AltitudeMeters>362.399993896484375</AltitudeMeters>
            <DistanceMeters>NAN</DistanceMeters>
          </Trackpoint>
          <Trackpoint>
            <Time>2019-10-08T08:21:21.000Z</Time>
            <Position>
              <LatitudeDegrees>40.2444328553974628448486328125</LatitudeDegrees>
              <LongitudeDegrees>-5.959413461387157440185546875</LongitudeDegrees>
            </Position>
            <AltitudeMeters>362.20001220703125</AltitudeMeters>
            <DistanceMeters>NAN</DistanceMeters>
          </Trackpoint>
          <Trackpoint>
            <Time>2019-10-08T08:21:24.000Z</Time>
            <Position>
              <LatitudeDegrees>40.2442776225507259368896484375</LatitudeDegrees>
              <LongitudeDegrees>-5.95978796482086181640625</LongitudeDegrees>
            </Position>
            <AltitudeMeters>360</AltitudeMeters>
            <DistanceMeters>NAN</DistanceMeters>
          </Trackpoint>
          <Trackpoint>
            <Time>2019-10-08T08:21:26.000Z</Time>
            <Position>
              <LatitudeDegrees>40.24415834806859493255615234375</LatitudeDegrees>
              <LongitudeDegrees>-5.96002978272736072540283203125</LongitudeDegrees>
            </Position>
            <AltitudeMeters>358.399993896484375</AltitudeMeters>
            <DistanceMeters>NAN</DistanceMeters>
          </Trackpoint>
          <Trackpoint>
            <Time>2019-10-08T08:21:27.000Z</Time>
            <Position>
              <LatitudeDegrees>40.24408458732068538665771484375</LatitudeDegrees>
              <LongitudeDegrees>-5.96014000475406646728515625</LongitudeDegrees>
            </Position>
            <AltitudeMeters>357.79998779296875</AltitudeMeters>
            <DistanceMeters>NAN</DistanceMeters>
          </Trackpoint>
          <Trackpoint>
            <Time>2019-10-08T08:21:28.000Z</Time>
            <Position>
              <LatitudeDegrees>40.24400428868830204010009765625</LatitudeDegrees>
              <LongitudeDegrees>-5.96024285070598125457763671875</LongitudeDegrees>
            </Position>
            <AltitudeMeters>357.20001220703125</AltitudeMeters>
            <DistanceMeters>NAN</DistanceMeters>
          </Trackpoint>
          <Trackpoint>
            <Time>2019-10-08T08:21:30.000Z</Time>
            <Position>
              <LatitudeDegrees>40.24382843635976314544677734375</LatitudeDegrees>
              <LongitudeDegrees>-5.9604249894618988037109375</LongitudeDegrees>
            </Position>
            <AltitudeMeters>356</AltitudeMeters>
            <DistanceMeters>NAN</DistanceMeters>
          </Trackpoint>
          <Trackpoint>
            <Time>2019-10-08T08:21:31.000Z</Time>
            <Position>
              <LatitudeDegrees>40.24373707361519336700439453125</LatitudeDegrees>
              <LongitudeDegrees>-5.9605123288929462432861328125</LongitudeDegrees>
            </Position>
            <AltitudeMeters>355.399993896484375</AltitudeMeters>
            <DistanceMeters>NAN</DistanceMeters>
          </Trackpoint>
          <Trackpoint>
            <Time>2019-10-08T08:21:32.000Z</Time>
            <Position>
              <LatitudeDegrees>40.2436456270515918731689453125</LatitudeDegrees>
              <LongitudeDegrees>-5.96060042269527912139892578125</LongitudeDegrees>
            </Position>
            <AltitudeMeters>354.600006103515625</AltitudeMeters>
            <DistanceMeters>NAN</DistanceMeters>
          </Trackpoint>
          <Trackpoint>
            <Time>2019-10-08T08:21:34.000Z</Time>
            <Position>
              <LatitudeDegrees>40.24346147663891315460205078125</LatitudeDegrees>
              <LongitudeDegrees>-5.9607721678912639617919921875</LongitudeDegrees>
            </Position>
            <AltitudeMeters>353.20001220703125</AltitudeMeters>
            <DistanceMeters>NAN</DistanceMeters>
          </Trackpoint>
          <Trackpoint>
            <Time>2019-10-08T08:21:36.000Z</Time>
            <Position>
              <LatitudeDegrees>40.24327925406396389007568359375</LatitudeDegrees>
              <LongitudeDegrees>-5.96094123087823390960693359375</LongitudeDegrees>
            </Position>
            <AltitudeMeters>353.20001220703125</AltitudeMeters>
            <DistanceMeters>NAN</DistanceMeters>
          </Trackpoint>
          <Trackpoint>
            <Time>2019-10-08T08:21:41.000Z</Time>
            <Position>
              <LatitudeDegrees>40.24283987469971179962158203125</LatitudeDegrees>
              <LongitudeDegrees>-5.96136468462646007537841796875</LongitudeDegrees>
            </Position>
            <AltitudeMeters>351.79998779296875</AltitudeMeters>
            <DistanceMeters>NAN</DistanceMeters>
          </Trackpoint>
          <Trackpoint>
            <Time>2019-10-08T08:21:42.000Z</Time>
            <Position>
              <LatitudeDegrees>40.2427524514496326446533203125</LatitudeDegrees>
              <LongitudeDegrees>-5.96144624054431915283203125</LongitudeDegrees>
            </Position>
            <AltitudeMeters>352.20001220703125</AltitudeMeters>
            <DistanceMeters>NAN</DistanceMeters>
          </Trackpoint>
          <Trackpoint>
            <Time>2019-10-08T08:21:45.000Z</Time>
            <Position>
              <LatitudeDegrees>40.2425043471157550811767578125</LatitudeDegrees>
              <LongitudeDegrees>-5.961691327393054962158203125</LongitudeDegrees>
            </Position>
            <AltitudeMeters>350.79998779296875</AltitudeMeters>
            <DistanceMeters>NAN</DistanceMeters>
          </Trackpoint>
          <Trackpoint>
            <Time>2019-10-08T08:21:48.000Z</Time>
            <Position>
              <LatitudeDegrees>40.242297649383544921875</LatitudeDegrees>
              <LongitudeDegrees>-5.96198134124279022216796875</LongitudeDegrees>
            </Position>
            <AltitudeMeters>351.20001220703125</AltitudeMeters>
            <DistanceMeters>NAN</DistanceMeters>
          </Trackpoint>
          <Trackpoint>
            <Time>2019-10-08T08:21:52.000Z</Time>
            <Position>
              <LatitudeDegrees>40.24210863746702671051025390625</LatitudeDegrees>
              <LongitudeDegrees>-5.962436310946941375732421875</LongitudeDegrees>
            </Position>
            <AltitudeMeters>350.600006103515625</AltitudeMeters>
            <DistanceMeters>NAN</DistanceMeters>
          </Trackpoint>
          <Trackpoint>
            <Time>2019-10-08T08:21:55.000Z</Time>
            <Position>
              <LatitudeDegrees>40.24197243154048919677734375</LatitudeDegrees>
              <LongitudeDegrees>-5.962771587073802947998046875</LongitudeDegrees>
            </Position>
            <AltitudeMeters>349.79998779296875</AltitudeMeters>
            <DistanceMeters>NAN</DistanceMeters>
          </Trackpoint>
          <Trackpoint>
            <Time>2019-10-08T08:21:56.000Z</Time>
            <Position>
              <LatitudeDegrees>40.24192775599658489227294921875</LatitudeDegrees>
              <LongitudeDegrees>-5.9628810547292232513427734375</LongitudeDegrees>
            </Position>
            <AltitudeMeters>349.600006103515625</AltitudeMeters>
            <DistanceMeters>NAN</DistanceMeters>
          </Trackpoint>
          <Trackpoint>
            <Time>2019-10-08T08:22:01.000Z</Time>
            <Position>
              <LatitudeDegrees>40.2417075634002685546875</LatitudeDegrees>
              <LongitudeDegrees>-5.96341607160866260528564453125</LongitudeDegrees>
            </Position>
            <AltitudeMeters>349</AltitudeMeters>
            <DistanceMeters>NAN</DistanceMeters>
          </Trackpoint>
          <Trackpoint>
            <Time>2019-10-08T08:22:05.000Z</Time>
            <Position>
              <LatitudeDegrees>40.24153699167072772979736328125</LatitudeDegrees>
              <LongitudeDegrees>-5.96382745541632175445556640625</LongitudeDegrees>
            </Position>
            <AltitudeMeters>348.399993896484375</AltitudeMeters>
            <DistanceMeters>NAN</DistanceMeters>
          </Trackpoint>
          <Trackpoint>
            <Time>2019-10-08T08:22:07.000Z</Time>
            <Position>
              <LatitudeDegrees>40.2414545975625514984130859375</LatitudeDegrees>
              <LongitudeDegrees>-5.96403323113918304443359375</LongitudeDegrees>
            </Position>
            <AltitudeMeters>348</AltitudeMeters>
            <DistanceMeters>NAN</DistanceMeters>
          </Trackpoint>
          <Trackpoint>
            <Time>2019-10-08T08:22:09.000Z</Time>
            <Position>
              <LatitudeDegrees>40.2413737960159778594970703125</LatitudeDegrees>
              <LongitudeDegrees>-5.96423573791980743408203125</LongitudeDegrees>
            </Position>
            <AltitudeMeters>348</AltitudeMeters>
            <DistanceMeters>NAN</DistanceMeters>
          </Trackpoint>
          <Trackpoint>
            <Time>2019-10-08T08:22:13.000Z</Time>
            <Position>
              <LatitudeDegrees>40.24120858870446681976318359375</LatitudeDegrees>
              <LongitudeDegrees>-5.9646402485668659210205078125</LongitudeDegrees>
            </Position>
            <AltitudeMeters>347.399993896484375</AltitudeMeters>
            <DistanceMeters>NAN</DistanceMeters>
          </Trackpoint>
          <Trackpoint>
            <Time>2019-10-08T08:22:17.000Z</Time>
            <Position>
              <LatitudeDegrees>40.24104698561131954193115234375</LatitudeDegrees>
              <LongitudeDegrees>-5.965039394795894622802734375</LongitudeDegrees>
            </Position>
            <AltitudeMeters>346.20001220703125</AltitudeMeters>
            <DistanceMeters>NAN</DistanceMeters>
          </Trackpoint>
          <Trackpoint>
            <Time>2019-10-08T08:22:18.000Z</Time>
            <Position>
              <LatitudeDegrees>40.2410061657428741455078125</LatitudeDegrees>
              <LongitudeDegrees>-5.9651384688913822174072265625</LongitudeDegrees>
            </Position>
            <AltitudeMeters>346.20001220703125</AltitudeMeters>
            <DistanceMeters>NAN</DistanceMeters>
          </Trackpoint>
          <Trackpoint>
            <Time>2019-10-08T08:22:25.000Z</Time>
            <Position>
              <LatitudeDegrees>40.24072545580565929412841796875</LatitudeDegrees>
              <LongitudeDegrees>-5.96583441831171512603759765625</LongitudeDegrees>
            </Position>
            <AltitudeMeters>345.600006103515625</AltitudeMeters>
            <DistanceMeters>NAN</DistanceMeters>
          </Trackpoint>
          <Trackpoint>
            <Time>2019-10-08T08:22:27.000Z</Time>
            <Position>
              <LatitudeDegrees>40.240645743906497955322265625</LatitudeDegrees>
              <LongitudeDegrees>-5.9660296328365802764892578125</LongitudeDegrees>
            </Position>
            <AltitudeMeters>345.20001220703125</AltitudeMeters>
            <DistanceMeters>NAN</DistanceMeters>
          </Trackpoint>
          <Trackpoint>
            <Time>2019-10-08T08:22:29.000Z</Time>
            <Position>
              <LatitudeDegrees>40.24056770838797092437744140625</LatitudeDegrees>
              <LongitudeDegrees>-5.9662257693707942962646484375</LongitudeDegrees>
            </Position>
            <AltitudeMeters>344.79998779296875</AltitudeMeters>
            <DistanceMeters>NAN</DistanceMeters>
          </Trackpoint>
          <Trackpoint>
            <Time>2019-10-08T08:22:34.000Z</Time>
            <Position>
              <LatitudeDegrees>40.24036469869315624237060546875</LatitudeDegrees>
              <LongitudeDegrees>-5.96671770326793193817138671875</LongitudeDegrees>
            </Position>
            <AltitudeMeters>343.79998779296875</AltitudeMeters>
            <DistanceMeters>NAN</DistanceMeters>
          </Trackpoint>
          <Trackpoint>
            <Time>2019-10-08T08:22:41.000Z</Time>
            <Position>
              <LatitudeDegrees>40.24009086191654205322265625</LatitudeDegrees>
              <LongitudeDegrees>-5.9673948772251605987548828125</LongitudeDegrees>
            </Position>
            <AltitudeMeters>342.600006103515625</AltitudeMeters>
            <DistanceMeters>NAN</DistanceMeters>
          </Trackpoint>
          <Trackpoint>
            <Time>2019-10-08T08:22:48.000Z</Time>
            <Position>
              <LatitudeDegrees>40.23981953971087932586669921875</LatitudeDegrees>
              <LongitudeDegrees>-5.96807288937270641326904296875</LongitudeDegrees>
            </Position>
            <AltitudeMeters>341.79998779296875</AltitudeMeters>
            <DistanceMeters>NAN</DistanceMeters>
          </Trackpoint>
          <Trackpoint>
            <Time>2019-10-08T08:22:49.000Z</Time>
            <Position>
              <LatitudeDegrees>40.23977930657565593719482421875</LatitudeDegrees>
              <LongitudeDegrees>-5.96816928125917911529541015625</LongitudeDegrees>
            </Position>
            <AltitudeMeters>341.399993896484375</AltitudeMeters>
            <DistanceMeters>NAN</DistanceMeters>
          </Trackpoint>
          <Trackpoint>
            <Time>2019-10-08T08:22:53.000Z</Time>
            <Position>
              <LatitudeDegrees>40.2396213077008724212646484375</LatitudeDegrees>
              <LongitudeDegrees>-5.968558788299560546875</LongitudeDegrees>
            </Position>
            <AltitudeMeters>341.20001220703125</AltitudeMeters>
            <DistanceMeters>NAN</DistanceMeters>
          </Trackpoint>
          <Trackpoint>
            <Time>2019-10-08T08:22:57.000Z</Time>
            <Position>
              <LatitudeDegrees>40.23946330882608890533447265625</LatitudeDegrees>
              <LongitudeDegrees>-5.96895106136798858642578125</LongitudeDegrees>
            </Position>
            <AltitudeMeters>340.399993896484375</AltitudeMeters>
            <DistanceMeters>NAN</DistanceMeters>
          </Trackpoint>
          <Trackpoint>
            <Time>2019-10-08T08:23:00.000Z</Time>
            <Position>
              <LatitudeDegrees>40.2393470518290996551513671875</LatitudeDegrees>
              <LongitudeDegrees>-5.96924618817865848541259765625</LongitudeDegrees>
            </Position>
            <AltitudeMeters>339.20001220703125</AltitudeMeters>
            <DistanceMeters>NAN</DistanceMeters>
          </Trackpoint>
          <Trackpoint>
            <Time>2019-10-08T08:23:05.000Z</Time>
            <Position>
              <LatitudeDegrees>40.23915074765682220458984375</LatitudeDegrees>
              <LongitudeDegrees>-5.969733931124210357666015625</LongitudeDegrees>
            </Position>
            <AltitudeMeters>338.79998779296875</AltitudeMeters>
            <DistanceMeters>NAN</DistanceMeters>
          </Trackpoint>
          <Trackpoint>
            <Time>2019-10-08T08:23:08.000Z</Time>
            <Position>
              <LatitudeDegrees>40.23903449065983295440673828125</LatitudeDegrees>
              <LongitudeDegrees>-5.97002436406910419464111328125</LongitudeDegrees>
            </Position>
            <AltitudeMeters>338.20001220703125</AltitudeMeters>
            <DistanceMeters>NAN</DistanceMeters>
          </Trackpoint>
          <Trackpoint>
            <Time>2019-10-08T08:23:11.000Z</Time>
            <Position>
              <LatitudeDegrees>40.23891664110124111175537109375</LatitudeDegrees>
              <LongitudeDegrees>-5.97031739540398120880126953125</LongitudeDegrees>
            </Position>
            <AltitudeMeters>337.399993896484375</AltitudeMeters>
            <DistanceMeters>NAN</DistanceMeters>
          </Trackpoint>
          <Trackpoint>
            <Time>2019-10-08T08:23:15.000Z</Time>
            <Position>
              <LatitudeDegrees>40.2387583069503307342529296875</LatitudeDegrees>
              <LongitudeDegrees>-5.9707085788249969482421875</LongitudeDegrees>
            </Position>
            <AltitudeMeters>337</AltitudeMeters>
            <DistanceMeters>NAN</DistanceMeters>
          </Trackpoint>
          <Trackpoint>
            <Time>2019-10-08T08:23:22.000Z</Time>
            <Position>
              <LatitudeDegrees>40.23848765529692173004150390625</LatitudeDegrees>
              <LongitudeDegrees>-5.97136395983397960662841796875</LongitudeDegrees>
            </Position>
            <AltitudeMeters>336.20001220703125</AltitudeMeters>
            <DistanceMeters>NAN</DistanceMeters>
          </Trackpoint>
          <Trackpoint>
            <Time>2019-10-08T08:23:23.000Z</Time>
            <Position>
              <LatitudeDegrees>40.23844691924750804901123046875</LatitudeDegrees>
              <LongitudeDegrees>-5.9714542329311370849609375</LongitudeDegrees>
            </Position>
            <AltitudeMeters>336.399993896484375</AltitudeMeters>
            <DistanceMeters>NAN</DistanceMeters>
          </Trackpoint>
          <Trackpoint>
            <Time>2019-10-08T08:23:30.000Z</Time>
            <Position>
              <LatitudeDegrees>40.23820250295102596282958984375</LatitudeDegrees>
              <LongitudeDegrees>-5.9720662795007228851318359375</LongitudeDegrees>
            </Position>
            <AltitudeMeters>336.20001220703125</AltitudeMeters>
            <DistanceMeters>NAN</DistanceMeters>
          </Trackpoint>
          <Trackpoint>
            <Time>2019-10-08T08:23:31.000Z</Time>
            <Position>
              <LatitudeDegrees>40.23816679604351520538330078125</LatitudeDegrees>
              <LongitudeDegrees>-5.97215353511273860931396484375</LongitudeDegrees>
            </Position>
            <AltitudeMeters>336</AltitudeMeters>
            <DistanceMeters>NAN</DistanceMeters>
          </Trackpoint>
          <Trackpoint>
            <Time>2019-10-08T08:23:38.000Z</Time>
            <Position>
              <LatitudeDegrees>40.23791181854903697967529296875</LatitudeDegrees>
              <LongitudeDegrees>-5.972766168415546417236328125</LongitudeDegrees>
            </Position>
            <AltitudeMeters>335.20001220703125</AltitudeMeters>
            <DistanceMeters>NAN</DistanceMeters>
          </Trackpoint>
          <Trackpoint>
            <Time>2019-10-08T08:23:39.000Z</Time>
            <Position>
              <LatitudeDegrees>40.237872339785099029541015625</LatitudeDegrees>
              <LongitudeDegrees>-5.9728545136749744415283203125</LongitudeDegrees>
            </Position>
            <AltitudeMeters>334.79998779296875</AltitudeMeters>
            <DistanceMeters>NAN</DistanceMeters>
          </Trackpoint>
          <Trackpoint>
            <Time>2019-10-08T08:23:42.000Z</Time>
            <Position>
              <LatitudeDegrees>40.23775197565555572509765625</LatitudeDegrees>
              <LongitudeDegrees>-5.97312332130968570709228515625</LongitudeDegrees>
            </Position>
            <AltitudeMeters>334.79998779296875</AltitudeMeters>
            <DistanceMeters>NAN</DistanceMeters>
          </Trackpoint>
          <Trackpoint>
            <Time>2019-10-08T08:23:44.000Z</Time>
            <Position>
              <LatitudeDegrees>40.2376668155193328857421875</LatitudeDegrees>
              <LongitudeDegrees>-5.9733034484088420867919921875</LongitudeDegrees>
            </Position>
            <AltitudeMeters>333.79998779296875</AltitudeMeters>
            <DistanceMeters>NAN</DistanceMeters>
          </Trackpoint>
          <Trackpoint>
            <Time>2019-10-08T08:23:47.000Z</Time>
            <Position>
              <LatitudeDegrees>40.23752960376441478729248046875</LatitudeDegrees>
              <LongitudeDegrees>-5.9735683165490627288818359375</LongitudeDegrees>
            </Position>
            <AltitudeMeters>332.600006103515625</AltitudeMeters>
            <DistanceMeters>NAN</DistanceMeters>
          </Trackpoint>
          <Trackpoint>
            <Time>2019-10-08T08:23:51.000Z</Time>
            <Position>
              <LatitudeDegrees>40.237332880496978759765625</LatitudeDegrees>
              <LongitudeDegrees>-5.97391339950263500213623046875</LongitudeDegrees>
            </Position>
            <AltitudeMeters>331.20001220703125</AltitudeMeters>
            <DistanceMeters>NAN</DistanceMeters>
          </Trackpoint>
          <Trackpoint>
            <Time>2019-10-08T08:23:56.000Z</Time>
            <Position>
              <LatitudeDegrees>40.237056948244571685791015625</LatitudeDegrees>
              <LongitudeDegrees>-5.974317826330661773681640625</LongitudeDegrees>
            </Position>
            <AltitudeMeters>330.600006103515625</AltitudeMeters>
            <DistanceMeters>NAN</DistanceMeters>
          </Trackpoint>
          <Trackpoint>
            <Time>2019-10-08T08:23:57.000Z</Time>
            <Position>
              <LatitudeDegrees>40.23699961602687835693359375</LatitudeDegrees>
              <LongitudeDegrees>-5.97439737059175968170166015625</LongitudeDegrees>
            </Position>
            <AltitudeMeters>330</AltitudeMeters>
            <DistanceMeters>NAN</DistanceMeters>
          </Trackpoint>
          <Trackpoint>
            <Time>2019-10-08T08:23:59.000Z</Time>
            <Position>
              <LatitudeDegrees>40.236883275210857391357421875</LatitudeDegrees>
              <LongitudeDegrees>-5.97455176524817943572998046875</LongitudeDegrees>
            </Position>
            <AltitudeMeters>329.399993896484375</AltitudeMeters>
            <DistanceMeters>NAN</DistanceMeters>
          </Trackpoint>
          <Trackpoint>
            <Time>2019-10-08T08:24:06.000Z</Time>
            <Position>
              <LatitudeDegrees>40.23645873181521892547607421875</LatitudeDegrees>
              <LongitudeDegrees>-5.97501955926418304443359375</LongitudeDegrees>
            </Position>
            <AltitudeMeters>329.600006103515625</AltitudeMeters>
            <DistanceMeters>NAN</DistanceMeters>
          </Trackpoint>
          <Trackpoint>
            <Time>2019-10-08T08:24:13.000Z</Time>
            <Position>
              <LatitudeDegrees>40.2360459230840206146240234375</LatitudeDegrees>
              <LongitudeDegrees>-5.97538040019571781158447265625</LongitudeDegrees>
            </Position>
            <AltitudeMeters>330.79998779296875</AltitudeMeters>
            <DistanceMeters>NAN</DistanceMeters>
          </Trackpoint>
          <Trackpoint>
            <Time>2019-10-08T08:24:17.000Z</Time>
            <Position>
              <LatitudeDegrees>40.235827155411243438720703125</LatitudeDegrees>
              <LongitudeDegrees>-5.97554921172559261322021484375</LongitudeDegrees>
            </Position>
            <AltitudeMeters>331.20001220703125</AltitudeMeters>
            <DistanceMeters>NAN</DistanceMeters>
          </Trackpoint>
          <Trackpoint>
            <Time>2019-10-08T08:24:20.000Z</Time>
            <Position>
              <LatitudeDegrees>40.23567192256450653076171875</LatitudeDegrees>
              <LongitudeDegrees>-5.97565247677266597747802734375</LongitudeDegrees>
            </Position>
            <AltitudeMeters>332.600006103515625</AltitudeMeters>
            <DistanceMeters>NAN</DistanceMeters>
          </Trackpoint>
          <Trackpoint>
            <Time>2019-10-08T08:24:21.000Z</Time>
            <Position>
              <LatitudeDegrees>40.23562121205031871795654296875</LatitudeDegrees>
              <LongitudeDegrees>-5.97568131051957607269287109375</LongitudeDegrees>
            </Position>
            <AltitudeMeters>332.600006103515625</AltitudeMeters>
            <DistanceMeters>NAN</DistanceMeters>
          </Trackpoint>
          <Trackpoint>
            <Time>2019-10-08T08:24:28.000Z</Time>
            <Position>
              <LatitudeDegrees>40.2352700941264629364013671875</LatitudeDegrees>
              <LongitudeDegrees>-5.97589261829853057861328125</LongitudeDegrees>
            </Position>
            <AltitudeMeters>333.20001220703125</AltitudeMeters>
            <DistanceMeters>NAN</DistanceMeters>
          </Trackpoint>
          <Trackpoint>
            <Time>2019-10-08T08:24:29.000Z</Time>
            <Position>
              <LatitudeDegrees>40.235227681696414947509765625</LatitudeDegrees>
              <LongitudeDegrees>-5.9759442508220672607421875</LongitudeDegrees>
            </Position>
            <AltitudeMeters>333.20001220703125</AltitudeMeters>
            <DistanceMeters>NAN</DistanceMeters>
          </Trackpoint>
          <Trackpoint>
            <Time>2019-10-08T08:24:32.000Z</Time>
            <Position>
              <LatitudeDegrees>40.23512869141995906829833984375</LatitudeDegrees>
              <LongitudeDegrees>-5.97613058052957057952880859375</LongitudeDegrees>
            </Position>
            <AltitudeMeters>333.20001220703125</AltitudeMeters>
            <DistanceMeters>NAN</DistanceMeters>
          </Trackpoint>
          <Trackpoint>
            <Time>2019-10-08T08:24:35.000Z</Time>
            <Position>
              <LatitudeDegrees>40.2349619753658771514892578125</LatitudeDegrees>
              <LongitudeDegrees>-5.97618506290018558502197265625</LongitudeDegrees>
            </Position>
            <AltitudeMeters>333.399993896484375</AltitudeMeters>
            <DistanceMeters>NAN</DistanceMeters>
          </Trackpoint>
          <Trackpoint>
            <Time>2019-10-08T08:24:36.000Z</Time>
            <Position>
              <LatitudeDegrees>40.2349046431481838226318359375</LatitudeDegrees>
              <LongitudeDegrees>-5.976161845028400421142578125</LongitudeDegrees>
            </Position>
            <AltitudeMeters>333.600006103515625</AltitudeMeters>
            <DistanceMeters>NAN</DistanceMeters>
          </Trackpoint>
          <Trackpoint>
            <Time>2019-10-08T08:24:38.000Z</Time>
            <Position>
              <LatitudeDegrees>40.23481302894651889801025390625</LatitudeDegrees>
              <LongitudeDegrees>-5.97606084309518337249755859375</LongitudeDegrees>
            </Position>
            <AltitudeMeters>333.20001220703125</AltitudeMeters>
            <DistanceMeters>NAN</DistanceMeters>
          </Trackpoint>
          <Trackpoint>
            <Time>2019-10-08T08:24:40.000Z</Time>
            <Position>
              <LatitudeDegrees>40.23474656045436859130859375</LatitudeDegrees>
              <LongitudeDegrees>-5.97593176178634166717529296875</LongitudeDegrees>
            </Position>
            <AltitudeMeters>333.600006103515625</AltitudeMeters>
            <DistanceMeters>NAN</DistanceMeters>
          </Trackpoint>
          <Trackpoint>
            <Time>2019-10-08T08:24:41.000Z</Time>
            <Position>
              <LatitudeDegrees>40.23470498621463775634765625</LatitudeDegrees>
              <LongitudeDegrees>-5.975876189768314361572265625</LongitudeDegrees>
            </Position>
            <AltitudeMeters>333.399993896484375</AltitudeMeters>
            <DistanceMeters>NAN</DistanceMeters>
          </Trackpoint>
          <Trackpoint>
            <Time>2019-10-08T08:24:42.000Z</Time>
            <Position>
              <LatitudeDegrees>40.23465461097657680511474609375</LatitudeDegrees>
              <LongitudeDegrees>-5.97582983784377574920654296875</LongitudeDegrees>
            </Position>
            <AltitudeMeters>333</AltitudeMeters>
            <DistanceMeters>NAN</DistanceMeters>
          </Trackpoint>
          <Trackpoint>
            <Time>2019-10-08T08:24:44.000Z</Time>
            <Position>
              <LatitudeDegrees>40.23453743197023868560791015625</LatitudeDegrees>
              <LongitudeDegrees>-5.97576898522675037384033203125</LongitudeDegrees>
            </Position>
            <AltitudeMeters>332.399993896484375</AltitudeMeters>
            <DistanceMeters>NAN</DistanceMeters>
          </Trackpoint>
          <Trackpoint>
            <Time>2019-10-08T08:24:46.000Z</Time>
            <Position>
              <LatitudeDegrees>40.23441371507942676544189453125</LatitudeDegrees>
              <LongitudeDegrees>-5.9757231362164020538330078125</LongitudeDegrees>
            </Position>
            <AltitudeMeters>332.20001220703125</AltitudeMeters>
            <DistanceMeters>NAN</DistanceMeters>
          </Trackpoint>
          <Trackpoint>
            <Time>2019-10-08T08:24:54.000Z</Time>
            <Position>
              <LatitudeDegrees>40.23390945978462696075439453125</LatitudeDegrees>
              <LongitudeDegrees>-5.975598581135272979736328125</LongitudeDegrees>
            </Position>
            <AltitudeMeters>331.600006103515625</AltitudeMeters>
            <DistanceMeters>NAN</DistanceMeters>
          </Trackpoint>
          <Trackpoint>
            <Time>2019-10-08T08:24:57.000Z</Time>
            <Position>
              <LatitudeDegrees>40.2337170951068401336669921875</LatitudeDegrees>
              <LongitudeDegrees>-5.97559229470789432525634765625</LongitudeDegrees>
            </Position>
            <AltitudeMeters>331.600006103515625</AltitudeMeters>
            <DistanceMeters>NAN</DistanceMeters>
          </Trackpoint>
          <Trackpoint>
            <Time>2019-10-08T08:25:00.000Z</Time>
            <Position>
              <LatitudeDegrees>40.23352338932454586029052734375</LatitudeDegrees>
              <LongitudeDegrees>-5.975598581135272979736328125</LongitudeDegrees>
            </Position>
            <AltitudeMeters>331.399993896484375</AltitudeMeters>
            <DistanceMeters>NAN</DistanceMeters>
          </Trackpoint>
          <Trackpoint>
            <Time>2019-10-08T08:25:01.000Z</Time>
            <Position>
              <LatitudeDegrees>40.23345968686044216156005859375</LatitudeDegrees>
              <LongitudeDegrees>-5.9756061248481273651123046875</LongitudeDegrees>
            </Position>
            <AltitudeMeters>331.20001220703125</AltitudeMeters>
            <DistanceMeters>NAN</DistanceMeters>
          </Trackpoint>
          <Trackpoint>
            <Time>2019-10-08T08:25:04.000Z</Time>
            <Position>
              <LatitudeDegrees>40.23324695415794849395751953125</LatitudeDegrees>
              <LongitudeDegrees>-5.97565063275396823883056640625</LongitudeDegrees>
            </Position>
            <AltitudeMeters>331.20001220703125</AltitudeMeters>
            <DistanceMeters>NAN</DistanceMeters>
          </Trackpoint>
          <Trackpoint>
            <Time>2019-10-08T08:25:08.000Z</Time>
            <Position>
              <LatitudeDegrees>40.233026258647441864013671875</LatitudeDegrees>
              <LongitudeDegrees>-5.97572489641606807708740234375</LongitudeDegrees>
            </Position>
            <AltitudeMeters>331.20001220703125</AltitudeMeters>
            <DistanceMeters>NAN</DistanceMeters>
          </Trackpoint>
          <Trackpoint>
            <Time>2019-10-08T08:25:16.000Z</Time>
            <Position>
              <LatitudeDegrees>40.23255276493728160858154296875</LatitudeDegrees>
              <LongitudeDegrees>-5.97598222084343433380126953125</LongitudeDegrees>
            </Position>
            <AltitudeMeters>330.20001220703125</AltitudeMeters>
            <DistanceMeters>NAN</DistanceMeters>
          </Trackpoint>
          <Trackpoint>
            <Time>2019-10-08T08:25:21.000Z</Time>
            <Position>
              <LatitudeDegrees>40.23225721903145313262939453125</LatitudeDegrees>
              <LongitudeDegrees>-5.97617198713123798370361328125</LongitudeDegrees>
            </Position>
            <AltitudeMeters>329.79998779296875</AltitudeMeters>
            <DistanceMeters>NAN</DistanceMeters>
          </Trackpoint>
          <Trackpoint>
            <Time>2019-10-08T08:25:24.000Z</Time>
            <Position>
              <LatitudeDegrees>40.23207885213196277618408203125</LatitudeDegrees>
              <LongitudeDegrees>-5.97628899849951267242431640625</LongitudeDegrees>
            </Position>
            <AltitudeMeters>329.600006103515625</AltitudeMeters>
            <DistanceMeters>NAN</DistanceMeters>
          </Trackpoint>
          <Trackpoint>
            <Time>2019-10-08T08:25:26.000Z</Time>
            <Position>
              <LatitudeDegrees>40.231957733631134033203125</LatitudeDegrees>
              <LongitudeDegrees>-5.9763675369322299957275390625</LongitudeDegrees>
            </Position>
            <AltitudeMeters>329.20001220703125</AltitudeMeters>
            <DistanceMeters>NAN</DistanceMeters>
          </Trackpoint>
          <Trackpoint>
            <Time>2019-10-08T08:25:28.000Z</Time>
            <Position>
              <LatitudeDegrees>40.23183527402579784393310546875</LatitudeDegrees>
              <LongitudeDegrees>-5.97645093686878681182861328125</LongitudeDegrees>
            </Position>
            <AltitudeMeters>329.399993896484375</AltitudeMeters>
            <DistanceMeters>NAN</DistanceMeters>
          </Trackpoint>
          <Trackpoint>
            <Time>2019-10-08T08:25:36.000Z</Time>
            <Position>
              <LatitudeDegrees>40.23133604787290096282958984375</LatitudeDegrees>
              <LongitudeDegrees>-5.97677908837795257568359375</LongitudeDegrees>
            </Position>
            <AltitudeMeters>328</AltitudeMeters>
            <DistanceMeters>NAN</DistanceMeters>
          </Trackpoint>
          <Trackpoint>
            <Time>2019-10-08T08:25:40.000Z</Time>
            <Position>
              <LatitudeDegrees>40.2310828305780887603759765625</LatitudeDegrees>
              <LongitudeDegrees>-5.97694580443203449249267578125</LongitudeDegrees>
            </Position>
            <AltitudeMeters>327.79998779296875</AltitudeMeters>
            <DistanceMeters>NAN</DistanceMeters>
          </Trackpoint>
          <Trackpoint>
            <Time>2019-10-08T08:25:44.000Z</Time>
            <Position>
              <LatitudeDegrees>40.2308209799230098724365234375</LatitudeDegrees>
              <LongitudeDegrees>-5.97711645998060703277587890625</LongitudeDegrees>
            </Position>
            <AltitudeMeters>326.600006103515625</AltitudeMeters>
            <DistanceMeters>NAN</DistanceMeters>
          </Trackpoint>
          <Trackpoint>
            <Time>2019-10-08T08:25:47.000Z</Time>
            <Position>
              <LatitudeDegrees>40.23061822168529033660888671875</LatitudeDegrees>
              <LongitudeDegrees>-5.9772496484220027923583984375</LongitudeDegrees>
            </Position>
            <AltitudeMeters>325.600006103515625</AltitudeMeters>
            <DistanceMeters>NAN</DistanceMeters>
          </Trackpoint>
          <Trackpoint>
            <Time>2019-10-08T08:25:50.000Z</Time>
            <Position>
              <LatitudeDegrees>40.23041051812469959259033203125</LatitudeDegrees>
              <LongitudeDegrees>-5.97739121876657009124755859375</LongitudeDegrees>
            </Position>
            <AltitudeMeters>325</AltitudeMeters>
            <DistanceMeters>NAN</DistanceMeters>
          </Trackpoint>
          <Trackpoint>
            <Time>2019-10-08T08:25:53.000Z</Time>
            <Position>
              <LatitudeDegrees>40.23019895888864994049072265625</LatitudeDegrees>
              <LongitudeDegrees>-5.97753186710178852081298828125</LongitudeDegrees>
            </Position>
            <AltitudeMeters>324.399993896484375</AltitudeMeters>
            <DistanceMeters>NAN</DistanceMeters>
          </Trackpoint>
          <Trackpoint>
            <Time>2019-10-08T08:25:55.000Z</Time>
            <Position>
              <LatitudeDegrees>40.23005445487797260284423828125</LatitudeDegrees>
              <LongitudeDegrees>-5.97762691788375377655029296875</LongitudeDegrees>
            </Position>
            <AltitudeMeters>323.399993896484375</AltitudeMeters>
            <DistanceMeters>NAN</DistanceMeters>
          </Trackpoint>
          <Trackpoint>
            <Time>2019-10-08T08:25:59.000Z</Time>
            <Position>
              <LatitudeDegrees>40.22975924424827098846435546875</LatitudeDegrees>
              <LongitudeDegrees>-5.9778169356286525726318359375</LongitudeDegrees>
            </Position>
            <AltitudeMeters>322.600006103515625</AltitudeMeters>
            <DistanceMeters>NAN</DistanceMeters>
          </Trackpoint>
          <Trackpoint>
            <Time>2019-10-08T08:26:00.000Z</Time>
            <Position>
              <LatitudeDegrees>40.229683220386505126953125</LatitudeDegrees>
              <LongitudeDegrees>-5.977866388857364654541015625</LongitudeDegrees>
            </Position>
            <AltitudeMeters>322</AltitudeMeters>
            <DistanceMeters>NAN</DistanceMeters>
          </Trackpoint>
          <Trackpoint>
            <Time>2019-10-08T08:26:04.000Z</Time>
            <Position>
              <LatitudeDegrees>40.2293735928833484649658203125</LatitudeDegrees>
              <LongitudeDegrees>-5.978068895637989044189453125</LongitudeDegrees>
            </Position>
            <AltitudeMeters>320.79998779296875</AltitudeMeters>
            <DistanceMeters>NAN</DistanceMeters>
          </Trackpoint>
          <Trackpoint>
            <Time>2019-10-08T08:26:08.000Z</Time>
            <Position>
              <LatitudeDegrees>40.22906027734279632568359375</LatitudeDegrees>
              <LongitudeDegrees>-5.97827819176018238067626953125</LongitudeDegrees>
            </Position>
            <AltitudeMeters>319.399993896484375</AltitudeMeters>
            <DistanceMeters>NAN</DistanceMeters>
          </Trackpoint>
          <Trackpoint>
            <Time>2019-10-08T08:26:11.000Z</Time>
            <Position>
              <LatitudeDegrees>40.2288156934082508087158203125</LatitudeDegrees>
              <LongitudeDegrees>-5.97843912430107593536376953125</LongitudeDegrees>
            </Position>
            <AltitudeMeters>318.20001220703125</AltitudeMeters>
            <DistanceMeters>NAN</DistanceMeters>
          </Trackpoint>
          <Trackpoint>
            <Time>2019-10-08T08:26:12.000Z</Time>
            <Position>
              <LatitudeDegrees>40.22873246110975742340087890625</LatitudeDegrees>
              <LongitudeDegrees>-5.97849193029105663299560546875</LongitudeDegrees>
            </Position>
            <AltitudeMeters>318</AltitudeMeters>
            <DistanceMeters>NAN</DistanceMeters>
          </Trackpoint>
          <Trackpoint>
            <Time>2019-10-08T08:26:15.000Z</Time>
            <Position>
              <LatitudeDegrees>40.22848402149975299835205078125</LatitudeDegrees>
              <LongitudeDegrees>-5.97865755669772624969482421875</LongitudeDegrees>
            </Position>
            <AltitudeMeters>317</AltitudeMeters>
            <DistanceMeters>NAN</DistanceMeters>
          </Trackpoint>
          <Trackpoint>
            <Time>2019-10-08T08:26:21.000Z</Time>
            <Position>
              <LatitudeDegrees>40.22799116559326648712158203125</LatitudeDegrees>
              <LongitudeDegrees>-5.9789870493113994598388671875</LongitudeDegrees>
            </Position>
            <AltitudeMeters>315.600006103515625</AltitudeMeters>
            <DistanceMeters>NAN</DistanceMeters>
          </Trackpoint>
          <Trackpoint>
            <Time>2019-10-08T08:26:27.000Z</Time>
            <Position>
              <LatitudeDegrees>40.227525718510150909423828125</LatitudeDegrees>
              <LongitudeDegrees>-5.97930849529802799224853515625</LongitudeDegrees>
            </Position>
            <AltitudeMeters>315.600006103515625</AltitudeMeters>
            <DistanceMeters>NAN</DistanceMeters>
          </Trackpoint>
          <Trackpoint>
            <Time>2019-10-08T08:26:30.000Z</Time>
            <Position>
              <LatitudeDegrees>40.2272995747625827789306640625</LatitudeDegrees>
              <LongitudeDegrees>-5.9794525802135467529296875</LongitudeDegrees>
            </Position>
            <AltitudeMeters>314.600006103515625</AltitudeMeters>
            <DistanceMeters>NAN</DistanceMeters>
          </Trackpoint>
          <Trackpoint>
            <Time>2019-10-08T08:26:36.000Z</Time>
            <Position>
              <LatitudeDegrees>40.22687695920467376708984375</LatitudeDegrees>
              <LongitudeDegrees>-5.97972390241920948028564453125</LongitudeDegrees>
            </Position>
            <AltitudeMeters>315.399993896484375</AltitudeMeters>
            <DistanceMeters>NAN</DistanceMeters>
          </Trackpoint>
          <Trackpoint>
            <Time>2019-10-08T08:26:38.000Z</Time>
            <Position>
              <LatitudeDegrees>40.22673924453556537628173828125</LatitudeDegrees>
              <LongitudeDegrees>-5.97980738617479801177978515625</LongitudeDegrees>
            </Position>
            <AltitudeMeters>315.399993896484375</AltitudeMeters>
            <DistanceMeters>NAN</DistanceMeters>
          </Trackpoint>
          <Trackpoint>
            <Time>2019-10-08T08:26:42.000Z</Time>
            <Position>
              <LatitudeDegrees>40.2264741249382495880126953125</LatitudeDegrees>
              <LongitudeDegrees>-5.979973264038562774658203125</LongitudeDegrees>
            </Position>
            <AltitudeMeters>315.20001220703125</AltitudeMeters>
            <DistanceMeters>NAN</DistanceMeters>
          </Trackpoint>
          <Trackpoint>
            <Time>2019-10-08T08:26:46.000Z</Time>
            <Position>
              <LatitudeDegrees>40.22621537558734416961669921875</LatitudeDegrees>
              <LongitudeDegrees>-5.98012489266693592071533203125</LongitudeDegrees>
            </Position>
            <AltitudeMeters>315.600006103515625</AltitudeMeters>
            <DistanceMeters>NAN</DistanceMeters>
          </Trackpoint>
          <Trackpoint>
            <Time>2019-10-08T08:26:48.000Z</Time>
            <Position>
              <LatitudeDegrees>40.22608763538300991058349609375</LatitudeDegrees>
              <LongitudeDegrees>-5.98019756376743316650390625</LongitudeDegrees>
            </Position>
            <AltitudeMeters>316</AltitudeMeters>
            <DistanceMeters>NAN</DistanceMeters>
          </Trackpoint>
          <Trackpoint>
            <Time>2019-10-08T08:26:56.000Z</Time>
            <Position>
              <LatitudeDegrees>40.225584469735622406005859375</LatitudeDegrees>
              <LongitudeDegrees>-5.980474166572093963623046875</LongitudeDegrees>
            </Position>
            <AltitudeMeters>315.399993896484375</AltitudeMeters>
            <DistanceMeters>NAN</DistanceMeters>
          </Trackpoint>
          <Trackpoint>
            <Time>2019-10-08T08:27:02.000Z</Time>
            <Position>
              <LatitudeDegrees>40.22520418278872966766357421875</LatitudeDegrees>
              <LongitudeDegrees>-5.98064549267292022705078125</LongitudeDegrees>
            </Position>
            <AltitudeMeters>315.600006103515625</AltitudeMeters>
            <DistanceMeters>NAN</DistanceMeters>
          </Trackpoint>
          <Trackpoint>
            <Time>2019-10-08T08:27:03.000Z</Time>
            <Position>
              <LatitudeDegrees>40.22513880394399166107177734375</LatitudeDegrees>
              <LongitudeDegrees>-5.98066519014537334442138671875</LongitudeDegrees>
            </Position>
            <AltitudeMeters>315.399993896484375</AltitudeMeters>
            <DistanceMeters>NAN</DistanceMeters>
          </Trackpoint>
          <Trackpoint>
            <Time>2019-10-08T08:27:11.000Z</Time>
            <Position>
              <LatitudeDegrees>40.22462365217506885528564453125</LatitudeDegrees>
              <LongitudeDegrees>-5.98081790842115879058837890625</LongitudeDegrees>
            </Position>
            <AltitudeMeters>315.399993896484375</AltitudeMeters>
            <DistanceMeters>NAN</DistanceMeters>
          </Trackpoint>
          <Trackpoint>
            <Time>2019-10-08T08:27:12.000Z</Time>
            <Position>
              <LatitudeDegrees>40.2245593629777431488037109375</LatitudeDegrees>
              <LongitudeDegrees>-5.980836264789104461669921875</LongitudeDegrees>
            </Position>
            <AltitudeMeters>315.20001220703125</AltitudeMeters>
            <DistanceMeters>NAN</DistanceMeters>
          </Trackpoint>
          <Trackpoint>
            <Time>2019-10-08T08:27:17.000Z</Time>
            <Position>
              <LatitudeDegrees>40.22426272742450237274169921875</LatitudeDegrees>
              <LongitudeDegrees>-5.98092041909694671630859375</LongitudeDegrees>
            </Position>
            <AltitudeMeters>315.600006103515625</AltitudeMeters>
            <DistanceMeters>NAN</DistanceMeters>
          </Trackpoint>
          <Trackpoint>
            <Time>2019-10-08T08:27:23.000Z</Time>
            <Position>
              <LatitudeDegrees>40.2238965220749378204345703125</LatitudeDegrees>
              <LongitudeDegrees>-5.98101723007857799530029296875</LongitudeDegrees>
            </Position>
            <AltitudeMeters>315.399993896484375</AltitudeMeters>
            <DistanceMeters>NAN</DistanceMeters>
          </Trackpoint>
          <Trackpoint>
            <Time>2019-10-08T08:27:30.000Z</Time>
            <Position>
              <LatitudeDegrees>40.223408527672290802001953125</LatitudeDegrees>
              <LongitudeDegrees>-5.98114144988358020782470703125</LongitudeDegrees>
            </Position>
            <AltitudeMeters>315.399993896484375</AltitudeMeters>
            <DistanceMeters>NAN</DistanceMeters>
          </Trackpoint>
          <Trackpoint>
            <Time>2019-10-08T08:27:38.000Z</Time>
            <Position>
              <LatitudeDegrees>40.22289094515144824981689453125</LatitudeDegrees>
              <LongitudeDegrees>-5.9812764823436737060546875</LongitudeDegrees>
            </Position>
            <AltitudeMeters>315.600006103515625</AltitudeMeters>
            <DistanceMeters>NAN</DistanceMeters>
          </Trackpoint>
          <Trackpoint>
            <Time>2019-10-08T08:27:47.000Z</Time>
            <Position>
              <LatitudeDegrees>40.2223173715174198150634765625</LatitudeDegrees>
              <LongitudeDegrees>-5.98143137991428375244140625</LongitudeDegrees>
            </Position>
            <AltitudeMeters>315.79998779296875</AltitudeMeters>
            <DistanceMeters>NAN</DistanceMeters>
          </Trackpoint>
          <Trackpoint>
            <Time>2019-10-08T08:27:49.000Z</Time>
            <Position>
              <LatitudeDegrees>40.22219021804630756378173828125</LatitudeDegrees>
              <LongitudeDegrees>-5.9814644046127796173095703125</LongitudeDegrees>
            </Position>
            <AltitudeMeters>316</AltitudeMeters>
            <DistanceMeters>NAN</DistanceMeters>
          </Trackpoint>
          <Trackpoint>
            <Time>2019-10-08T08:27:58.000Z</Time>
            <Position>
              <LatitudeDegrees>40.221626870334148406982421875</LatitudeDegrees>
              <LongitudeDegrees>-5.9816518239676952362060546875</LongitudeDegrees>
            </Position>
            <AltitudeMeters>315.399993896484375</AltitudeMeters>
            <DistanceMeters>NAN</DistanceMeters>
          </Trackpoint>
          <Trackpoint>
            <Time>2019-10-08T08:27:59.000Z</Time>
            <Position>
              <LatitudeDegrees>40.22156425751745700836181640625</LatitudeDegrees>
              <LongitudeDegrees>-5.98167655058205127716064453125</LongitudeDegrees>
            </Position>
            <AltitudeMeters>315.600006103515625</AltitudeMeters>
            <DistanceMeters>NAN</DistanceMeters>
          </Trackpoint>
          <Trackpoint>
            <Time>2019-10-08T08:28:08.000Z</Time>
            <Position>
              <LatitudeDegrees>40.22101658396422863006591796875</LatitudeDegrees>
              <LongitudeDegrees>-5.981919206678867340087890625</LongitudeDegrees>
            </Position>
            <AltitudeMeters>315.600006103515625</AltitudeMeters>
            <DistanceMeters>NAN</DistanceMeters>
          </Trackpoint>
          <Trackpoint>
            <Time>2019-10-08T08:28:09.000Z</Time>
            <Position>
              <LatitudeDegrees>40.22095338441431522369384765625</LatitudeDegrees>
              <LongitudeDegrees>-5.98194611258804798126220703125</LongitudeDegrees>
            </Position>
            <AltitudeMeters>315.399993896484375</AltitudeMeters>
            <DistanceMeters>NAN</DistanceMeters>
          </Trackpoint>
          <Trackpoint>
            <Time>2019-10-08T08:28:17.000Z</Time>
            <Position>
              <LatitudeDegrees>40.22047645412385463714599609375</LatitudeDegrees>
              <LongitudeDegrees>-5.9822152554988861083984375</LongitudeDegrees>
            </Position>
            <AltitudeMeters>316</AltitudeMeters>
            <DistanceMeters>NAN</DistanceMeters>
          </Trackpoint>
          <Trackpoint>
            <Time>2019-10-08T08:28:26.000Z</Time>
            <Position>
              <LatitudeDegrees>40.2199600450694561004638671875</LatitudeDegrees>
              <LongitudeDegrees>-5.982566960155963897705078125</LongitudeDegrees>
            </Position>
            <AltitudeMeters>315.79998779296875</AltitudeMeters>
            <DistanceMeters>NAN</DistanceMeters>
          </Trackpoint>
          <Trackpoint>
            <Time>2019-10-08T08:28:35.000Z</Time>
            <Position>
              <LatitudeDegrees>40.2194738946855068206787109375</LatitudeDegrees>
              <LongitudeDegrees>-5.982953198254108428955078125</LongitudeDegrees>
            </Position>
            <AltitudeMeters>316.20001220703125</AltitudeMeters>
            <DistanceMeters>NAN</DistanceMeters>
          </Trackpoint>
          <Trackpoint>
            <Time>2019-10-08T08:28:44.000Z</Time>
            <Position>
              <LatitudeDegrees>40.21901431493461132049560546875</LatitudeDegrees>
              <LongitudeDegrees>-5.98337388597428798675537109375</LongitudeDegrees>
            </Position>
            <AltitudeMeters>316.399993896484375</AltitudeMeters>
            <DistanceMeters>NAN</DistanceMeters>
          </Trackpoint>
          <Trackpoint>
            <Time>2019-10-08T08:28:46.000Z</Time>
            <Position>
              <LatitudeDegrees>40.218920521438121795654296875</LatitudeDegrees>
              <LongitudeDegrees>-5.98346524871885776519775390625</LongitudeDegrees>
            </Position>
            <AltitudeMeters>316.399993896484375</AltitudeMeters>
            <DistanceMeters>NAN</DistanceMeters>
          </Trackpoint>
          <Trackpoint>
            <Time>2019-10-08T08:28:49.000Z</Time>
            <Position>
              <LatitudeDegrees>40.21878062747418880462646484375</LatitudeDegrees>
              <LongitudeDegrees>-5.98360690288245677947998046875</LongitudeDegrees>
            </Position>
            <AltitudeMeters>316.600006103515625</AltitudeMeters>
            <DistanceMeters>NAN</DistanceMeters>
          </Trackpoint>
          <Trackpoint>
            <Time>2019-10-08T08:28:57.000Z</Time>
            <Position>
              <LatitudeDegrees>40.2184211276471614837646484375</LatitudeDegrees>
              <LongitudeDegrees>-5.98397838883101940155029296875</LongitudeDegrees>
            </Position>
            <AltitudeMeters>316.79998779296875</AltitudeMeters>
            <DistanceMeters>NAN</DistanceMeters>
          </Trackpoint>
          <Trackpoint>
            <Time>2019-10-08T08:29:05.000Z</Time>
            <Position>
              <LatitudeDegrees>40.2180935628712177276611328125</LatitudeDegrees>
              <LongitudeDegrees>-5.98431685008108615875244140625</LongitudeDegrees>
            </Position>
            <AltitudeMeters>317.79998779296875</AltitudeMeters>
            <DistanceMeters>NAN</DistanceMeters>
          </Trackpoint>
          <Trackpoint>
            <Time>2019-10-08T08:29:06.000Z</Time>
            <Position>
              <LatitudeDegrees>40.2180540002882480621337890625</LatitudeDegrees>
              <LongitudeDegrees>-5.98435725085437297821044921875</LongitudeDegrees>
            </Position>
            <AltitudeMeters>318</AltitudeMeters>
            <DistanceMeters>NAN</DistanceMeters>
          </Trackpoint>
          <Trackpoint>
            <Time>2019-10-08T08:29:10.000Z</Time>
            <Position>
              <LatitudeDegrees>40.21790421567857265472412109375</LatitudeDegrees>
              <LongitudeDegrees>-5.98451860249042510986328125</LongitudeDegrees>
            </Position>
            <AltitudeMeters>318.79998779296875</AltitudeMeters>
            <DistanceMeters>NAN</DistanceMeters>
          </Trackpoint>
          <Trackpoint>
            <Time>2019-10-08T08:29:17.000Z</Time>
            <Position>
              <LatitudeDegrees>40.2176387608051300048828125</LatitudeDegrees>
              <LongitudeDegrees>-5.984787158668041229248046875</LongitudeDegrees>
            </Position>
            <AltitudeMeters>319.600006103515625</AltitudeMeters>
            <DistanceMeters>NAN</DistanceMeters>
          </Trackpoint>
          <Trackpoint>
            <Time>2019-10-08T08:29:23.000Z</Time>
            <Position>
              <LatitudeDegrees>40.21742577664554119110107421875</LatitudeDegrees>
              <LongitudeDegrees>-5.9850092791020870208740234375</LongitudeDegrees>
            </Position>
            <AltitudeMeters>320</AltitudeMeters>
            <DistanceMeters>NAN</DistanceMeters>
          </Trackpoint>
          <Trackpoint>
            <Time>2019-10-08T08:29:26.000Z</Time>
            <Position>
              <LatitudeDegrees>40.21732569672167301177978515625</LatitudeDegrees>
              <LongitudeDegrees>-5.9851219318807125091552734375</LongitudeDegrees>
            </Position>
            <AltitudeMeters>321</AltitudeMeters>
            <DistanceMeters>NAN</DistanceMeters>
          </Trackpoint>
          <Trackpoint>
            <Time>2019-10-08T08:29:28.000Z</Time>
            <Position>
              <LatitudeDegrees>40.2172533608973026275634765625</LatitudeDegrees>
              <LongitudeDegrees>-5.985190160572528839111328125</LongitudeDegrees>
            </Position>
            <AltitudeMeters>321.399993896484375</AltitudeMeters>
            <DistanceMeters>NAN</DistanceMeters>
          </Trackpoint>
          <Trackpoint>
            <Time>2019-10-08T08:29:33.000Z</Time>
            <Position>
              <LatitudeDegrees>40.217089243233203887939453125</LatitudeDegrees>
              <LongitudeDegrees>-5.98537229932844638824462890625</LongitudeDegrees>
            </Position>
            <AltitudeMeters>321.600006103515625</AltitudeMeters>
            <DistanceMeters>NAN</DistanceMeters>
          </Trackpoint>
          <Trackpoint>
            <Time>2019-10-08T08:29:34.000Z</Time>
            <Position>
              <LatitudeDegrees>40.217055045068264007568359375</LatitudeDegrees>
              <LongitudeDegrees>-5.98540733568370342254638671875</LongitudeDegrees>
            </Position>
            <AltitudeMeters>321.600006103515625</AltitudeMeters>
            <DistanceMeters>NAN</DistanceMeters>
          </Trackpoint>
          <Trackpoint>
            <Time>2019-10-08T08:29:40.000Z</Time>
            <Position>
              <LatitudeDegrees>40.2168456651270389556884765625</LatitudeDegrees>
              <LongitudeDegrees>-5.98562425933778285980224609375</LongitudeDegrees>
            </Position>
            <AltitudeMeters>322.399993896484375</AltitudeMeters>
            <DistanceMeters>NAN</DistanceMeters>
          </Trackpoint>
          <Trackpoint>
            <Time>2019-10-08T08:29:42.000Z</Time>
            <Position>
              <LatitudeDegrees>40.2167769335210323333740234375</LatitudeDegrees>
              <LongitudeDegrees>-5.98569617606699466705322265625</LongitudeDegrees>
            </Position>
            <AltitudeMeters>322.600006103515625</AltitudeMeters>
            <DistanceMeters>NAN</DistanceMeters>
          </Trackpoint>
          <Trackpoint>
            <Time>2019-10-08T08:29:50.000Z</Time>
            <Position>
              <LatitudeDegrees>40.21650510840117931365966796875</LatitudeDegrees>
              <LongitudeDegrees>-5.98597328178584575653076171875</LongitudeDegrees>
            </Position>
            <AltitudeMeters>322.79998779296875</AltitudeMeters>
            <DistanceMeters>NAN</DistanceMeters>
          </Trackpoint>
          <Trackpoint>
            <Time>2019-10-08T08:29:56.000Z</Time>
            <Position>
              <LatitudeDegrees>40.21630578674376010894775390625</LatitudeDegrees>
              <LongitudeDegrees>-5.986178219318389892578125</LongitudeDegrees>
            </Position>
            <AltitudeMeters>323.600006103515625</AltitudeMeters>
            <DistanceMeters>NAN</DistanceMeters>
          </Trackpoint>
          <Trackpoint>
            <Time>2019-10-08T08:30:03.000Z</Time>
            <Position>
              <LatitudeDegrees>40.2160651423037052154541015625</LatitudeDegrees>
              <LongitudeDegrees>-5.98640830256044864654541015625</LongitudeDegrees>
            </Position>
            <AltitudeMeters>324</AltitudeMeters>
            <DistanceMeters>NAN</DistanceMeters>
          </Trackpoint>
          <Trackpoint>
            <Time>2019-10-08T08:30:09.000Z</Time>
            <Position>
              <LatitudeDegrees>40.2158529125154018402099609375</LatitudeDegrees>
              <LongitudeDegrees>-5.9865979850292205810546875</LongitudeDegrees>
            </Position>
            <AltitudeMeters>324.20001220703125</AltitudeMeters>
            <DistanceMeters>NAN</DistanceMeters>
          </Trackpoint>
          <Trackpoint>
            <Time>2019-10-08T08:30:15.000Z</Time>
            <Position>
              <LatitudeDegrees>40.21563707850873470306396484375</LatitudeDegrees>
              <LongitudeDegrees>-5.98678314127027988433837890625</LongitudeDegrees>
            </Position>
            <AltitudeMeters>324.399993896484375</AltitudeMeters>
            <DistanceMeters>NAN</DistanceMeters>
          </Trackpoint>
          <Trackpoint>
            <Time>2019-10-08T08:30:25.000Z</Time>
            <Position>
              <LatitudeDegrees>40.2152287960052490234375</LatitudeDegrees>
              <LongitudeDegrees>-5.987096540629863739013671875</LongitudeDegrees>
            </Position>
            <AltitudeMeters>324.399993896484375</AltitudeMeters>
            <DistanceMeters>NAN</DistanceMeters>
          </Trackpoint>
          <Trackpoint>
            <Time>2019-10-08T08:30:30.000Z</Time>
            <Position>
              <LatitudeDegrees>40.215003155171871185302734375</LatitudeDegrees>
              <LongitudeDegrees>-5.987251102924346923828125</LongitudeDegrees>
            </Position>
            <AltitudeMeters>324.20001220703125</AltitudeMeters>
            <DistanceMeters>NAN</DistanceMeters>
          </Trackpoint>
          <Trackpoint>
            <Time>2019-10-08T08:30:35.000Z</Time>
            <Position>
              <LatitudeDegrees>40.2147699706256389617919921875</LatitudeDegrees>
              <LongitudeDegrees>-5.98739870823919773101806640625</LongitudeDegrees>
            </Position>
            <AltitudeMeters>324.20001220703125</AltitudeMeters>
            <DistanceMeters>NAN</DistanceMeters>
          </Trackpoint>
          <Trackpoint>
            <Time>2019-10-08T08:30:36.000Z</Time>
            <Position>
              <LatitudeDegrees>40.21472252905368804931640625</LatitudeDegrees>
              <LongitudeDegrees>-5.98742670379579067230224609375</LongitudeDegrees>
            </Position>
            <AltitudeMeters>324.20001220703125</AltitudeMeters>
            <DistanceMeters>NAN</DistanceMeters>
          </Trackpoint>
          <Trackpoint>
            <Time>2019-10-08T08:30:42.000Z</Time>
            <Position>
              <LatitudeDegrees>40.2144316770136356353759765625</LatitudeDegrees>
              <LongitudeDegrees>-5.98759518004953861236572265625</LongitudeDegrees>
            </Position>
            <AltitudeMeters>323.79998779296875</AltitudeMeters>
            <DistanceMeters>NAN</DistanceMeters>
          </Trackpoint>
          <Trackpoint>
            <Time>2019-10-08T08:30:46.000Z</Time>
            <Position>
              <LatitudeDegrees>40.21422992460429668426513671875</LatitudeDegrees>
              <LongitudeDegrees>-5.9877089224755764007568359375</LongitudeDegrees>
            </Position>
            <AltitudeMeters>324.20001220703125</AltitudeMeters>
            <DistanceMeters>NAN</DistanceMeters>
          </Trackpoint>
          <Trackpoint>
            <Time>2019-10-08T08:30:55.000Z</Time>
            <Position>
              <LatitudeDegrees>40.213732458651065826416015625</LatitudeDegrees>
              <LongitudeDegrees>-5.9879617206752300262451171875</LongitudeDegrees>
            </Position>
            <AltitudeMeters>322.79998779296875</AltitudeMeters>
            <DistanceMeters>NAN</DistanceMeters>
          </Trackpoint>
          <Trackpoint>
            <Time>2019-10-08T08:30:59.000Z</Time>
            <Position>
              <LatitudeDegrees>40.21350086666643619537353515625</LatitudeDegrees>
              <LongitudeDegrees>-5.98807915113866329193115234375</LongitudeDegrees>
            </Position>
            <AltitudeMeters>322.399993896484375</AltitudeMeters>
            <DistanceMeters>NAN</DistanceMeters>
          </Trackpoint>
          <Trackpoint>
            <Time>2019-10-08T08:31:04.000Z</Time>
            <Position>
              <LatitudeDegrees>40.213198699057102203369140625</LatitudeDegrees>
              <LongitudeDegrees>-5.98823119886219501495361328125</LongitudeDegrees>
            </Position>
            <AltitudeMeters>322</AltitudeMeters>
            <DistanceMeters>NAN</DistanceMeters>
          </Trackpoint>
          <Trackpoint>
            <Time>2019-10-08T08:31:05.000Z</Time>
            <Position>
              <LatitudeDegrees>40.2131353318691253662109375</LatitudeDegrees>
              <LongitudeDegrees>-5.988265313208103179931640625</LongitudeDegrees>
            </Position>
            <AltitudeMeters>321.399993896484375</AltitudeMeters>
            <DistanceMeters>NAN</DistanceMeters>
          </Trackpoint>
          <Trackpoint>
            <Time>2019-10-08T08:31:08.000Z</Time>
            <Position>
              <LatitudeDegrees>40.21294296719133853912353515625</LatitudeDegrees>
              <LongitudeDegrees>-5.98837293684482574462890625</LongitudeDegrees>
            </Position>
            <AltitudeMeters>320.79998779296875</AltitudeMeters>
            <DistanceMeters>NAN</DistanceMeters>
          </Trackpoint>
          <Trackpoint>
            <Time>2019-10-08T08:31:11.000Z</Time>
            <Position>
              <LatitudeDegrees>40.21274314261972904205322265625</LatitudeDegrees>
              <LongitudeDegrees>-5.98848424851894378662109375</LongitudeDegrees>
            </Position>
            <AltitudeMeters>320.20001220703125</AltitudeMeters>
            <DistanceMeters>NAN</DistanceMeters>
          </Trackpoint>
          <Trackpoint>
            <Time>2019-10-08T08:31:14.000Z</Time>
            <Position>
              <LatitudeDegrees>40.21253292448818683624267578125</LatitudeDegrees>
              <LongitudeDegrees>-5.98859279416501522064208984375</LongitudeDegrees>
            </Position>
            <AltitudeMeters>319.399993896484375</AltitudeMeters>
            <DistanceMeters>NAN</DistanceMeters>
          </Trackpoint>
          <Trackpoint>
            <Time>2019-10-08T08:31:15.000Z</Time>
            <Position>
              <LatitudeDegrees>40.21246000193059444427490234375</LatitudeDegrees>
              <LongitudeDegrees>-5.98862062208354473114013671875</LongitudeDegrees>
            </Position>
            <AltitudeMeters>319</AltitudeMeters>
            <DistanceMeters>NAN</DistanceMeters>
          </Trackpoint>
          <Trackpoint>
            <Time>2019-10-08T08:31:19.000Z</Time>
            <Position>
              <LatitudeDegrees>40.212168395519256591796875</LatitudeDegrees>
              <LongitudeDegrees>-5.9887744300067424774169921875</LongitudeDegrees>
            </Position>
            <AltitudeMeters>317.600006103515625</AltitudeMeters>
            <DistanceMeters>NAN</DistanceMeters>
          </Trackpoint>
          <Trackpoint>
            <Time>2019-10-08T08:31:20.000Z</Time>
            <Position>
              <LatitudeDegrees>40.212094970047473907470703125</LatitudeDegrees>
              <LongitudeDegrees>-5.98881340585649013519287109375</LongitudeDegrees>
            </Position>
            <AltitudeMeters>317.600006103515625</AltitudeMeters>
            <DistanceMeters>NAN</DistanceMeters>
          </Trackpoint>
          <Trackpoint>
            <Time>2019-10-08T08:31:24.000Z</Time>
            <Position>
              <LatitudeDegrees>40.21178576163947582244873046875</LatitudeDegrees>
              <LongitudeDegrees>-5.98896780051290988922119140625</LongitudeDegrees>
            </Position>
            <AltitudeMeters>316.399993896484375</AltitudeMeters>
            <DistanceMeters>NAN</DistanceMeters>
          </Trackpoint>
          <Trackpoint>
            <Time>2019-10-08T08:31:26.000Z</Time>
            <Position>
              <LatitudeDegrees>40.2116227336227893829345703125</LatitudeDegrees>
              <LongitudeDegrees>-5.989047177135944366455078125</LongitudeDegrees>
            </Position>
            <AltitudeMeters>315.399993896484375</AltitudeMeters>
            <DistanceMeters>NAN</DistanceMeters>
          </Trackpoint>
          <Trackpoint>
            <Time>2019-10-08T08:31:27.000Z</Time>
            <Position>
              <LatitudeDegrees>40.2115412615239620208740234375</LatitudeDegrees>
              <LongitudeDegrees>-5.98908816464245319366455078125</LongitudeDegrees>
            </Position>
            <AltitudeMeters>314.79998779296875</AltitudeMeters>
            <DistanceMeters>NAN</DistanceMeters>
          </Trackpoint>
          <Trackpoint>
            <Time>2019-10-08T08:31:29.000Z</Time>
            <Position>
              <LatitudeDegrees>40.21137655712664127349853515625</LatitudeDegrees>
              <LongitudeDegrees>-5.98917282186448574066162109375</LongitudeDegrees>
            </Position>
            <AltitudeMeters>314.399993896484375</AltitudeMeters>
            <DistanceMeters>NAN</DistanceMeters>
          </Trackpoint>
          <Trackpoint>
            <Time>2019-10-08T08:31:31.000Z</Time>
            <Position>
              <LatitudeDegrees>40.21121009252965450286865234375</LatitudeDegrees>
              <LongitudeDegrees>-5.98925647325813770294189453125</LongitudeDegrees>
            </Position>
            <AltitudeMeters>313.79998779296875</AltitudeMeters>
            <DistanceMeters>NAN</DistanceMeters>
          </Trackpoint>
          <Trackpoint>
            <Time>2019-10-08T08:31:35.000Z</Time>
            <Position>
              <LatitudeDegrees>40.21087934263050556182861328125</LatitudeDegrees>
              <LongitudeDegrees>-5.98942243494093418121337890625</LongitudeDegrees>
            </Position>
            <AltitudeMeters>312.600006103515625</AltitudeMeters>
            <DistanceMeters>NAN</DistanceMeters>
          </Trackpoint>
          <Trackpoint>
            <Time>2019-10-08T08:31:41.000Z</Time>
            <Position>
              <LatitudeDegrees>40.2103899233043193817138671875</LatitudeDegrees>
              <LongitudeDegrees>-5.98965763114392757415771484375</LongitudeDegrees>
            </Position>
            <AltitudeMeters>311.79998779296875</AltitudeMeters>
            <DistanceMeters>NAN</DistanceMeters>
          </Trackpoint>
          <Trackpoint>
            <Time>2019-10-08T08:31:45.000Z</Time>
            <Position>
              <LatitudeDegrees>40.21007032133638858795166015625</LatitudeDegrees>
              <LongitudeDegrees>-5.989816300570964813232421875</LongitudeDegrees>
            </Position>
            <AltitudeMeters>311.600006103515625</AltitudeMeters>
            <DistanceMeters>NAN</DistanceMeters>
          </Trackpoint>
          <Trackpoint>
            <Time>2019-10-08T08:31:49.000Z</Time>
            <Position>
              <LatitudeDegrees>40.20976035855710506439208984375</LatitudeDegrees>
              <LongitudeDegrees>-5.98996742628514766693115234375</LongitudeDegrees>
            </Position>
            <AltitudeMeters>311.600006103515625</AltitudeMeters>
            <DistanceMeters>NAN</DistanceMeters>
          </Trackpoint>
          <Trackpoint>
            <Time>2019-10-08T08:31:51.000Z</Time>
            <Position>
              <LatitudeDegrees>40.20960931666195392608642578125</LatitudeDegrees>
              <LongitudeDegrees>-5.99004923366010189056396484375</LongitudeDegrees>
            </Position>
            <AltitudeMeters>311.399993896484375</AltitudeMeters>
            <DistanceMeters>NAN</DistanceMeters>
          </Trackpoint>
          <Trackpoint>
            <Time>2019-10-08T08:31:56.000Z</Time>
            <Position>
              <LatitudeDegrees>40.20924285985529422760009765625</LatitudeDegrees>
              <LongitudeDegrees>-5.990265905857086181640625</LongitudeDegrees>
            </Position>
            <AltitudeMeters>310.79998779296875</AltitudeMeters>
            <DistanceMeters>NAN</DistanceMeters>
          </Trackpoint>
          <Trackpoint>
            <Time>2019-10-08T08:32:02.000Z</Time>
            <Position>
              <LatitudeDegrees>40.20880850963294506072998046875</LatitudeDegrees>
              <LongitudeDegrees>-5.9904635511338710784912109375</LongitudeDegrees>
            </Position>
            <AltitudeMeters>310.600006103515625</AltitudeMeters>
            <DistanceMeters>NAN</DistanceMeters>
          </Trackpoint>
          <Trackpoint>
            <Time>2019-10-08T08:32:05.000Z</Time>
            <Position>
              <LatitudeDegrees>40.2085961960256099700927734375</LatitudeDegrees>
              <LongitudeDegrees>-5.99056002683937549591064453125</LongitudeDegrees>
            </Position>
            <AltitudeMeters>310.399993896484375</AltitudeMeters>
            <DistanceMeters>NAN</DistanceMeters>
          </Trackpoint>
          <Trackpoint>
            <Time>2019-10-08T08:32:13.000Z</Time>
            <Position>
              <LatitudeDegrees>40.20804156549274921417236328125</LatitudeDegrees>
              <LongitudeDegrees>-5.99079673178493976593017578125</LongitudeDegrees>
            </Position>
            <AltitudeMeters>310.399993896484375</AltitudeMeters>
            <DistanceMeters>NAN</DistanceMeters>
          </Trackpoint>
          <Trackpoint>
            <Time>2019-10-08T08:32:14.000Z</Time>
            <Position>
              <LatitudeDegrees>40.20797266624867916107177734375</LatitudeDegrees>
              <LongitudeDegrees>-5.9908283315598964691162109375</LongitudeDegrees>
            </Position>
            <AltitudeMeters>310.399993896484375</AltitudeMeters>
            <DistanceMeters>NAN</DistanceMeters>
          </Trackpoint>
          <Trackpoint>
            <Time>2019-10-08T08:32:20.000Z</Time>
            <Position>
              <LatitudeDegrees>40.207558684051036834716796875</LatitudeDegrees>
              <LongitudeDegrees>-5.9910110570490360260009765625</LongitudeDegrees>
            </Position>
            <AltitudeMeters>310.600006103515625</AltitudeMeters>
            <DistanceMeters>NAN</DistanceMeters>
          </Trackpoint>
          <Trackpoint>
            <Time>2019-10-08T08:32:25.000Z</Time>
            <Position>
              <LatitudeDegrees>40.20722164772450923919677734375</LatitudeDegrees>
              <LongitudeDegrees>-5.99117450416088104248046875</LongitudeDegrees>
            </Position>
            <AltitudeMeters>310.600006103515625</AltitudeMeters>
            <DistanceMeters>NAN</DistanceMeters>
          </Trackpoint>
          <Trackpoint>
            <Time>2019-10-08T08:32:26.000Z</Time>
            <Position>
              <LatitudeDegrees>40.20715467631816864013671875</LatitudeDegrees>
              <LongitudeDegrees>-5.9912058524787425994873046875</LongitudeDegrees>
            </Position>
            <AltitudeMeters>310.79998779296875</AltitudeMeters>
            <DistanceMeters>NAN</DistanceMeters>
          </Trackpoint>
          <Trackpoint>
            <Time>2019-10-08T08:32:31.000Z</Time>
            <Position>
              <LatitudeDegrees>40.206821747124195098876953125</LatitudeDegrees>
              <LongitudeDegrees>-5.99137055687606334686279296875</LongitudeDegrees>
            </Position>
            <AltitudeMeters>310.600006103515625</AltitudeMeters>
            <DistanceMeters>NAN</DistanceMeters>
          </Trackpoint>
          <Trackpoint>
            <Time>2019-10-08T08:32:37.000Z</Time>
            <Position>
              <LatitudeDegrees>40.20642687566578388214111328125</LatitudeDegrees>
              <LongitudeDegrees>-5.991564095020294189453125</LongitudeDegrees>
            </Position>
            <AltitudeMeters>310.20001220703125</AltitudeMeters>
            <DistanceMeters>NAN</DistanceMeters>
          </Trackpoint>
          <Trackpoint>
            <Time>2019-10-08T08:32:45.000Z</Time>
            <Position>
              <LatitudeDegrees>40.205897055566310882568359375</LatitudeDegrees>
              <LongitudeDegrees>-5.9918214194476604461669921875</LongitudeDegrees>
            </Position>
            <AltitudeMeters>310.600006103515625</AltitudeMeters>
            <DistanceMeters>NAN</DistanceMeters>
          </Trackpoint>
          <Trackpoint>
            <Time>2019-10-08T08:32:47.000Z</Time>
            <Position>
              <LatitudeDegrees>40.20576738752424716949462890625</LatitudeDegrees>
              <LongitudeDegrees>-5.991882942616939544677734375</LongitudeDegrees>
            </Position>
            <AltitudeMeters>310.79998779296875</AltitudeMeters>
            <DistanceMeters>NAN</DistanceMeters>
          </Trackpoint>
          <Trackpoint>
            <Time>2019-10-08T08:32:55.000Z</Time>
            <Position>
              <LatitudeDegrees>40.20526464097201824188232421875</LatitudeDegrees>
              <LongitudeDegrees>-5.9921298734843730926513671875</LongitudeDegrees>
            </Position>
            <AltitudeMeters>311</AltitudeMeters>
            <DistanceMeters>NAN</DistanceMeters>
          </Trackpoint>
          <Trackpoint>
            <Time>2019-10-08T08:32:57.000Z</Time>
            <Position>
              <LatitudeDegrees>40.20513924770057201385498046875</LatitudeDegrees>
              <LongitudeDegrees>-5.99219349212944507598876953125</LongitudeDegrees>
            </Position>
            <AltitudeMeters>310.600006103515625</AltitudeMeters>
            <DistanceMeters>NAN</DistanceMeters>
          </Trackpoint>
          <Trackpoint>
            <Time>2019-10-08T08:33:05.000Z</Time>
            <Position>
              <LatitudeDegrees>40.2046385966241359710693359375</LatitudeDegrees>
              <LongitudeDegrees>-5.99244662560522556304931640625</LongitudeDegrees>
            </Position>
            <AltitudeMeters>310.399993896484375</AltitudeMeters>
            <DistanceMeters>NAN</DistanceMeters>
          </Trackpoint>
          <Trackpoint>
            <Time>2019-10-08T08:33:10.000Z</Time>
            <Position>
              <LatitudeDegrees>40.20432972349226474761962890625</LatitudeDegrees>
              <LongitudeDegrees>-5.99259163253009319305419921875</LongitudeDegrees>
            </Position>
            <AltitudeMeters>310.600006103515625</AltitudeMeters>
            <DistanceMeters>NAN</DistanceMeters>
          </Trackpoint>
          <Trackpoint>
            <Time>2019-10-08T08:33:19.000Z</Time>
            <Position>
              <LatitudeDegrees>40.2037913538515567779541015625</LatitudeDegrees>
              <LongitudeDegrees>-5.99285314790904521942138671875</LongitudeDegrees>
            </Position>
            <AltitudeMeters>311.20001220703125</AltitudeMeters>
            <DistanceMeters>NAN</DistanceMeters>
          </Trackpoint>
          <Trackpoint>
            <Time>2019-10-08T08:33:21.000Z</Time>
            <Position>
              <LatitudeDegrees>40.20367157645523548126220703125</LatitudeDegrees>
              <LongitudeDegrees>-5.9929147548973560333251953125</LongitudeDegrees>
            </Position>
            <AltitudeMeters>311.20001220703125</AltitudeMeters>
            <DistanceMeters>NAN</DistanceMeters>
          </Trackpoint>
          <Trackpoint>
            <Time>2019-10-08T08:33:22.000Z</Time>
            <Position>
              <LatitudeDegrees>40.20361877046525478363037109375</LatitudeDegrees>
              <LongitudeDegrees>-5.99294065497815608978271484375</LongitudeDegrees>
            </Position>
            <AltitudeMeters>311.399993896484375</AltitudeMeters>
            <DistanceMeters>NAN</DistanceMeters>
          </Trackpoint>
          <Trackpoint>
            <Time>2019-10-08T08:33:31.000Z</Time>
            <Position>
              <LatitudeDegrees>40.20312239415943622589111328125</LatitudeDegrees>
              <LongitudeDegrees>-5.993184149265289306640625</LongitudeDegrees>
            </Position>
            <AltitudeMeters>312.600006103515625</AltitudeMeters>
            <DistanceMeters>NAN</DistanceMeters>
          </Trackpoint>
          <Trackpoint>
            <Time>2019-10-08T08:33:33.000Z</Time>
            <Position>
              <LatitudeDegrees>40.203017033636569976806640625</LatitudeDegrees>
              <LongitudeDegrees>-5.99323318339884281158447265625</LongitudeDegrees>
            </Position>
            <AltitudeMeters>313.20001220703125</AltitudeMeters>
            <DistanceMeters>NAN</DistanceMeters>
          </Trackpoint>
          <Trackpoint>
            <Time>2019-10-08T08:33:35.000Z</Time>
            <Position>
              <LatitudeDegrees>40.20292240194976329803466796875</LatitudeDegrees>
              <LongitudeDegrees>-5.9932812117040157318115234375</LongitudeDegrees>
            </Position>
            <AltitudeMeters>313.600006103515625</AltitudeMeters>
            <DistanceMeters>NAN</DistanceMeters>
          </Trackpoint>
          <Trackpoint>
            <Time>2019-10-08T08:33:45.000Z</Time>
            <Position>
              <LatitudeDegrees>40.20243641920387744903564453125</LatitudeDegrees>
              <LongitudeDegrees>-5.99352705292403697967529296875</LongitudeDegrees>
            </Position>
            <AltitudeMeters>314.399993896484375</AltitudeMeters>
            <DistanceMeters>NAN</DistanceMeters>
          </Trackpoint>
          <Trackpoint>
            <Time>2019-10-08T08:33:47.000Z</Time>
            <Position>
              <LatitudeDegrees>40.20233877003192901611328125</LatitudeDegrees>
              <LongitudeDegrees>-5.9935752488672733306884765625</LongitudeDegrees>
            </Position>
            <AltitudeMeters>314.79998779296875</AltitudeMeters>
            <DistanceMeters>NAN</DistanceMeters>
          </Trackpoint>
          <Trackpoint>
            <Time>2019-10-08T08:33:55.000Z</Time>
            <Position>
              <LatitudeDegrees>40.20194289274513721466064453125</LatitudeDegrees>
              <LongitudeDegrees>-5.99376878701150417327880859375</LongitudeDegrees>
            </Position>
            <AltitudeMeters>315.600006103515625</AltitudeMeters>
            <DistanceMeters>NAN</DistanceMeters>
          </Trackpoint>
          <Trackpoint>
            <Time>2019-10-08T08:33:57.000Z</Time>
            <Position>
              <LatitudeDegrees>40.201846249401569366455078125</LatitudeDegrees>
              <LongitudeDegrees>-5.99381689913570880889892578125</LongitudeDegrees>
            </Position>
            <AltitudeMeters>315.79998779296875</AltitudeMeters>
            <DistanceMeters>NAN</DistanceMeters>
          </Trackpoint>
          <Trackpoint>
            <Time>2019-10-08T08:33:58.000Z</Time>
            <Position>
              <LatitudeDegrees>40.20179872401058673858642578125</LatitudeDegrees>
              <LongitudeDegrees>-5.99384137429296970367431640625</LongitudeDegrees>
            </Position>
            <AltitudeMeters>315.79998779296875</AltitudeMeters>
            <DistanceMeters>NAN</DistanceMeters>
          </Trackpoint>
          <Trackpoint>
            <Time>2019-10-08T08:34:09.000Z</Time>
            <Position>
              <LatitudeDegrees>40.2012741006910800933837890625</LatitudeDegrees>
              <LongitudeDegrees>-5.99410356022417545318603515625</LongitudeDegrees>
            </Position>
            <AltitudeMeters>315.79998779296875</AltitudeMeters>
            <DistanceMeters>NAN</DistanceMeters>
          </Trackpoint>
          <Trackpoint>
            <Time>2019-10-08T08:34:11.000Z</Time>
            <Position>
              <LatitudeDegrees>40.20117075182497501373291015625</LatitudeDegrees>
              <LongitudeDegrees>-5.99415334872901439666748046875</LongitudeDegrees>
            </Position>
            <AltitudeMeters>316</AltitudeMeters>
            <DistanceMeters>NAN</DistanceMeters>
          </Trackpoint>
          <Trackpoint>
            <Time>2019-10-08T08:34:21.000Z</Time>
            <Position>
              <LatitudeDegrees>40.200677812099456787109375</LatitudeDegrees>
              <LongitudeDegrees>-5.994399525225162506103515625</LongitudeDegrees>
            </Position>
            <AltitudeMeters>316.399993896484375</AltitudeMeters>
            <DistanceMeters>NAN</DistanceMeters>
          </Trackpoint>
          <Trackpoint>
            <Time>2019-10-08T08:34:24.000Z</Time>
            <Position>
              <LatitudeDegrees>40.20052148960530757904052734375</LatitudeDegrees>
              <LongitudeDegrees>-5.9944768063724040985107421875</LongitudeDegrees>
            </Position>
            <AltitudeMeters>316.399993896484375</AltitudeMeters>
            <DistanceMeters>NAN</DistanceMeters>
          </Trackpoint>
          <Trackpoint>
            <Time>2019-10-08T08:34:34.000Z</Time>
            <Position>
              <LatitudeDegrees>40.1999950222671031951904296875</LatitudeDegrees>
              <LongitudeDegrees>-5.99472843110561370849609375</LongitudeDegrees>
            </Position>
            <AltitudeMeters>316.20001220703125</AltitudeMeters>
            <DistanceMeters>NAN</DistanceMeters>
          </Trackpoint>
          <Trackpoint>
            <Time>2019-10-08T08:34:38.000Z</Time>
            <Position>
              <LatitudeDegrees>40.19977415911853313446044921875</LatitudeDegrees>
              <LongitudeDegrees>-5.99484284408390522003173828125</LongitudeDegrees>
            </Position>
            <AltitudeMeters>315.399993896484375</AltitudeMeters>
            <DistanceMeters>NAN</DistanceMeters>
          </Trackpoint>
          <Trackpoint>
            <Time>2019-10-08T08:34:44.000Z</Time>
            <Position>
              <LatitudeDegrees>40.19944894127547740936279296875</LatitudeDegrees>
              <LongitudeDegrees>-5.99500201642513275146484375</LongitudeDegrees>
            </Position>
            <AltitudeMeters>314.600006103515625</AltitudeMeters>
            <DistanceMeters>NAN</DistanceMeters>
          </Trackpoint>
          <Trackpoint>
            <Time>2019-10-08T08:34:50.000Z</Time>
            <Position>
              <LatitudeDegrees>40.199100337922573089599609375</LatitudeDegrees>
              <LongitudeDegrees>-5.99517962895333766937255859375</LongitudeDegrees>
            </Position>
            <AltitudeMeters>314.20001220703125</AltitudeMeters>
            <DistanceMeters>NAN</DistanceMeters>
          </Trackpoint>
          <Trackpoint>
            <Time>2019-10-08T08:34:59.000Z</Time>
            <Position>
              <LatitudeDegrees>40.198559202253818511962890625</LatitudeDegrees>
              <LongitudeDegrees>-5.9954524599015712738037109375</LongitudeDegrees>
            </Position>
            <AltitudeMeters>313.600006103515625</AltitudeMeters>
            <DistanceMeters>NAN</DistanceMeters>
          </Trackpoint>
          <Trackpoint>
            <Time>2019-10-08T08:35:00.000Z</Time>
            <Position>
              <LatitudeDegrees>40.198500193655490875244140625</LatitudeDegrees>
              <LongitudeDegrees>-5.99548473022878170013427734375</LongitudeDegrees>
            </Position>
            <AltitudeMeters>313.600006103515625</AltitudeMeters>
            <DistanceMeters>NAN</DistanceMeters>
          </Trackpoint>
          <Trackpoint>
            <Time>2019-10-08T08:35:01.000Z</Time>
            <Position>
              <LatitudeDegrees>40.19844328053295612335205078125</LatitudeDegrees>
              <LongitudeDegrees>-5.995515994727611541748046875</LongitudeDegrees>
            </Position>
            <AltitudeMeters>313.600006103515625</AltitudeMeters>
            <DistanceMeters>NAN</DistanceMeters>
          </Trackpoint>
          <Trackpoint>
            <Time>2019-10-08T08:35:09.000Z</Time>
            <Position>
              <LatitudeDegrees>40.197963416576385498046875</LatitudeDegrees>
              <LongitudeDegrees>-5.99579469300806522369384765625</LongitudeDegrees>
            </Position>
            <AltitudeMeters>312.600006103515625</AltitudeMeters>
            <DistanceMeters>NAN</DistanceMeters>
          </Trackpoint>
          <Trackpoint>
            <Time>2019-10-08T08:35:10.000Z</Time>
            <Position>
              <LatitudeDegrees>40.19790532998740673065185546875</LatitudeDegrees>
              <LongitudeDegrees>-5.9958309866487979888916015625</LongitudeDegrees>
            </Position>
            <AltitudeMeters>312.399993896484375</AltitudeMeters>
            <DistanceMeters>NAN</DistanceMeters>
          </Trackpoint>
          <Trackpoint>
            <Time>2019-10-08T08:35:13.000Z</Time>
            <Position>
              <LatitudeDegrees>40.19772939383983612060546875</LatitudeDegrees>
              <LongitudeDegrees>-5.9959466569125652313232421875</LongitudeDegrees>
            </Position>
            <AltitudeMeters>312.399993896484375</AltitudeMeters>
            <DistanceMeters>NAN</DistanceMeters>
          </Trackpoint>
          <Trackpoint>
            <Time>2019-10-08T08:35:21.000Z</Time>
            <Position>
              <LatitudeDegrees>40.19727232865989208221435546875</LatitudeDegrees>
              <LongitudeDegrees>-5.99628008902072906494140625</LongitudeDegrees>
            </Position>
            <AltitudeMeters>311.600006103515625</AltitudeMeters>
            <DistanceMeters>NAN</DistanceMeters>
          </Trackpoint>
          <Trackpoint>
            <Time>2019-10-08T08:35:22.000Z</Time>
            <Position>
              <LatitudeDegrees>40.19721709191799163818359375</LatitudeDegrees>
              <LongitudeDegrees>-5.9963238425552845001220703125</LongitudeDegrees>
            </Position>
            <AltitudeMeters>311.20001220703125</AltitudeMeters>
            <DistanceMeters>NAN</DistanceMeters>
          </Trackpoint>
          <Trackpoint>
            <Time>2019-10-08T08:35:25.000Z</Time>
            <Position>
              <LatitudeDegrees>40.197057165205478668212890625</LatitudeDegrees>
              <LongitudeDegrees>-5.99645803682506084442138671875</LongitudeDegrees>
            </Position>
            <AltitudeMeters>311.600006103515625</AltitudeMeters>
            <DistanceMeters>NAN</DistanceMeters>
          </Trackpoint>
          <Trackpoint>
            <Time>2019-10-08T08:35:34.000Z</Time>
            <Position>
              <LatitudeDegrees>40.1965775527060031890869140625</LatitudeDegrees>
              <LongitudeDegrees>-5.9968897886574268341064453125</LongitudeDegrees>
            </Position>
            <AltitudeMeters>310.600006103515625</AltitudeMeters>
            <DistanceMeters>NAN</DistanceMeters>
          </Trackpoint>
          <Trackpoint>
            <Time>2019-10-08T08:35:36.000Z</Time>
            <Position>
              <LatitudeDegrees>40.19647403620183467864990234375</LatitudeDegrees>
              <LongitudeDegrees>-5.996992886066436767578125</LongitudeDegrees>
            </Position>
            <AltitudeMeters>310.79998779296875</AltitudeMeters>
            <DistanceMeters>NAN</DistanceMeters>
          </Trackpoint>
          <Trackpoint>
            <Time>2019-10-08T08:35:45.000Z</Time>
            <Position>
              <LatitudeDegrees>40.19601236097514629364013671875</LatitudeDegrees>
              <LongitudeDegrees>-5.99746788851916790008544921875</LongitudeDegrees>
            </Position>
            <AltitudeMeters>310.399993896484375</AltitudeMeters>
            <DistanceMeters>NAN</DistanceMeters>
          </Trackpoint>
          <Trackpoint>
            <Time>2019-10-08T08:35:46.000Z</Time>
            <Position>
              <LatitudeDegrees>40.1959616504609584808349609375</LatitudeDegrees>
              <LongitudeDegrees>-5.99752203561365604400634765625</LongitudeDegrees>
            </Position>
            <AltitudeMeters>310.20001220703125</AltitudeMeters>
            <DistanceMeters>NAN</DistanceMeters>
          </Trackpoint>
          <Trackpoint>
            <Time>2019-10-08T08:35:48.000Z</Time>
            <Position>
              <LatitudeDegrees>40.19585989415645599365234375</LatitudeDegrees>
              <LongitudeDegrees>-5.99763301201164722442626953125</LongitudeDegrees>
            </Position>
            <AltitudeMeters>310.20001220703125</AltitudeMeters>
            <DistanceMeters>NAN</DistanceMeters>
          </Trackpoint>
          <Trackpoint>
            <Time>2019-10-08T08:35:55.000Z</Time>
            <Position>
              <LatitudeDegrees>40.1954993046820163726806640625</LatitudeDegrees>
              <LongitudeDegrees>-5.9980203397572040557861328125</LongitudeDegrees>
            </Position>
            <AltitudeMeters>309</AltitudeMeters>
            <DistanceMeters>NAN</DistanceMeters>
          </Trackpoint>
          <Trackpoint>
            <Time>2019-10-08T08:35:57.000Z</Time>
            <Position>
              <LatitudeDegrees>40.19539595581591129302978515625</LatitudeDegrees>
              <LongitudeDegrees>-5.9981336630880832672119140625</LongitudeDegrees>
            </Position>
            <AltitudeMeters>308.79998779296875</AltitudeMeters>
            <DistanceMeters>NAN</DistanceMeters>
          </Trackpoint>
          <Trackpoint>
            <Time>2019-10-08T08:36:05.000Z</Time>
            <Position>
              <LatitudeDegrees>40.1949702389538288116455078125</LatitudeDegrees>
              <LongitudeDegrees>-5.998597182333469390869140625</LongitudeDegrees>
            </Position>
            <AltitudeMeters>308.20001220703125</AltitudeMeters>
            <DistanceMeters>NAN</DistanceMeters>
          </Trackpoint>
          <Trackpoint>
            <Time>2019-10-08T08:36:06.000Z</Time>
            <Position>
              <LatitudeDegrees>40.19491600804030895233154296875</LatitudeDegrees>
              <LongitudeDegrees>-5.99865728057920932769775390625</LongitudeDegrees>
            </Position>
            <AltitudeMeters>308</AltitudeMeters>
            <DistanceMeters>NAN</DistanceMeters>
          </Trackpoint>
          <Trackpoint>
            <Time>2019-10-08T08:36:08.000Z</Time>
            <Position>
              <LatitudeDegrees>40.19480771385133266448974609375</LatitudeDegrees>
              <LongitudeDegrees>-5.9987797401845455169677734375</LongitudeDegrees>
            </Position>
            <AltitudeMeters>308</AltitudeMeters>
            <DistanceMeters>NAN</DistanceMeters>
          </Trackpoint>
          <Trackpoint>
            <Time>2019-10-08T08:36:16.000Z</Time>
            <Position>
              <LatitudeDegrees>40.1943737827241420745849609375</LatitudeDegrees>
              <LongitudeDegrees>-5.9992434270679950714111328125</LongitudeDegrees>
            </Position>
            <AltitudeMeters>307.20001220703125</AltitudeMeters>
            <DistanceMeters>NAN</DistanceMeters>
          </Trackpoint>
          <Trackpoint>
            <Time>2019-10-08T08:36:18.000Z</Time>
            <Position>
              <LatitudeDegrees>40.1942658238112926483154296875</LatitudeDegrees>
              <LongitudeDegrees>-5.99936035461723804473876953125</LongitudeDegrees>
            </Position>
            <AltitudeMeters>307.600006103515625</AltitudeMeters>
            <DistanceMeters>NAN</DistanceMeters>
          </Trackpoint>
          <Trackpoint>
            <Time>2019-10-08T08:36:23.000Z</Time>
            <Position>
              <LatitudeDegrees>40.1939949207007884979248046875</LatitudeDegrees>
              <LongitudeDegrees>-5.9996541403234004974365234375</LongitudeDegrees>
            </Position>
            <AltitudeMeters>307</AltitudeMeters>
            <DistanceMeters>NAN</DistanceMeters>
          </Trackpoint>
          <Trackpoint>
            <Time>2019-10-08T08:36:28.000Z</Time>
            <Position>
              <LatitudeDegrees>40.193726532161235809326171875</LatitudeDegrees>
              <LongitudeDegrees>-5.9999458305537700653076171875</LongitudeDegrees>
            </Position>
            <AltitudeMeters>306.20001220703125</AltitudeMeters>
            <DistanceMeters>NAN</DistanceMeters>
          </Trackpoint>
          <Trackpoint>
            <Time>2019-10-08T08:36:32.000Z</Time>
            <Position>
              <LatitudeDegrees>40.1935060881078243255615234375</LatitudeDegrees>
              <LongitudeDegrees>-6.000185720622539520263671875</LongitudeDegrees>
            </Position>
            <AltitudeMeters>305.79998779296875</AltitudeMeters>
            <DistanceMeters>NAN</DistanceMeters>
          </Trackpoint>
          <Trackpoint>
            <Time>2019-10-08T08:36:40.000Z</Time>
            <Position>
              <LatitudeDegrees>40.1930668763816356658935546875</LatitudeDegrees>
              <LongitudeDegrees>-6.0006680153310298919677734375</LongitudeDegrees>
            </Position>
            <AltitudeMeters>305.600006103515625</AltitudeMeters>
            <DistanceMeters>NAN</DistanceMeters>
          </Trackpoint>
          <Trackpoint>
            <Time>2019-10-08T08:36:41.000Z</Time>
            <Position>
              <LatitudeDegrees>40.19301281310617923736572265625</LatitudeDegrees>
              <LongitudeDegrees>-6.00072727538645267486572265625</LongitudeDegrees>
            </Position>
            <AltitudeMeters>305.20001220703125</AltitudeMeters>
            <DistanceMeters>NAN</DistanceMeters>
          </Trackpoint>
          <Trackpoint>
            <Time>2019-10-08T08:36:48.000Z</Time>
            <Position>
              <LatitudeDegrees>40.1926263235509395599365234375</LatitudeDegrees>
              <LongitudeDegrees>-6.001141928136348724365234375</LongitudeDegrees>
            </Position>
            <AltitudeMeters>304.79998779296875</AltitudeMeters>
            <DistanceMeters>NAN</DistanceMeters>
          </Trackpoint>
          <Trackpoint>
            <Time>2019-10-08T08:36:49.000Z</Time>
            <Position>
              <LatitudeDegrees>40.192572511732578277587890625</LatitudeDegrees>
              <LongitudeDegrees>-6.00120127201080322265625</LongitudeDegrees>
            </Position>
            <AltitudeMeters>304.600006103515625</AltitudeMeters>
            <DistanceMeters>NAN</DistanceMeters>
          </Trackpoint>
          <Trackpoint>
            <Time>2019-10-08T08:36:57.000Z</Time>
            <Position>
              <LatitudeDegrees>40.19214193336665630340576171875</LatitudeDegrees>
              <LongitudeDegrees>-6.0016691498458385467529296875</LongitudeDegrees>
            </Position>
            <AltitudeMeters>304.600006103515625</AltitudeMeters>
            <DistanceMeters>NAN</DistanceMeters>
          </Trackpoint>
          <Trackpoint>
            <Time>2019-10-08T08:36:59.000Z</Time>
            <Position>
              <LatitudeDegrees>40.19203632138669490814208984375</LatitudeDegrees>
              <LongitudeDegrees>-6.0017873346805572509765625</LongitudeDegrees>
            </Position>
            <AltitudeMeters>304.399993896484375</AltitudeMeters>
            <DistanceMeters>NAN</DistanceMeters>
          </Trackpoint>
          <Trackpoint>
            <Time>2019-10-08T08:37:07.000Z</Time>
            <Position>
              <LatitudeDegrees>40.1916158013045787811279296875</LatitudeDegrees>
              <LongitudeDegrees>-6.00224104709923267364501953125</LongitudeDegrees>
            </Position>
            <AltitudeMeters>304.399993896484375</AltitudeMeters>
            <DistanceMeters>NAN</DistanceMeters>
          </Trackpoint>
          <Trackpoint>
            <Time>2019-10-08T08:37:12.000Z</Time>
            <Position>
              <LatitudeDegrees>40.1913559623062610626220703125</LatitudeDegrees>
              <LongitudeDegrees>-6.0025276243686676025390625</LongitudeDegrees>
            </Position>
            <AltitudeMeters>304.20001220703125</AltitudeMeters>
            <DistanceMeters>NAN</DistanceMeters>
          </Trackpoint>
          <Trackpoint>
            <Time>2019-10-08T08:37:20.000Z</Time>
            <Position>
              <LatitudeDegrees>40.19094030372798442840576171875</LatitudeDegrees>
              <LongitudeDegrees>-6.0029733739793300628662109375</LongitudeDegrees>
            </Position>
            <AltitudeMeters>304</AltitudeMeters>
            <DistanceMeters>NAN</DistanceMeters>
          </Trackpoint>
          <Trackpoint>
            <Time>2019-10-08T08:37:22.000Z</Time>
            <Position>
              <LatitudeDegrees>40.19083703868091106414794921875</LatitudeDegrees>
              <LongitudeDegrees>-6.00308862514793872833251953125</LongitudeDegrees>
            </Position>
            <AltitudeMeters>304.20001220703125</AltitudeMeters>
            <DistanceMeters>NAN</DistanceMeters>
          </Trackpoint>
          <Trackpoint>
            <Time>2019-10-08T08:37:30.000Z</Time>
            <Position>
              <LatitudeDegrees>40.190427415072917938232421875</LatitudeDegrees>
              <LongitudeDegrees>-6.003527753055095672607421875</LongitudeDegrees>
            </Position>
            <AltitudeMeters>304.600006103515625</AltitudeMeters>
            <DistanceMeters>NAN</DistanceMeters>
          </Trackpoint>
          <Trackpoint>
            <Time>2019-10-08T08:37:33.000Z</Time>
            <Position>
              <LatitudeDegrees>40.190279223024845123291015625</LatitudeDegrees>
              <LongitudeDegrees>-6.00368910469114780426025390625</LongitudeDegrees>
            </Position>
            <AltitudeMeters>304.399993896484375</AltitudeMeters>
            <DistanceMeters>NAN</DistanceMeters>
          </Trackpoint>
          <Trackpoint>
            <Time>2019-10-08T08:37:42.000Z</Time>
            <Position>
              <LatitudeDegrees>40.18985199742019176483154296875</LatitudeDegrees>
              <LongitudeDegrees>-6.00417206995189189910888671875</LongitudeDegrees>
            </Position>
            <AltitudeMeters>304.79998779296875</AltitudeMeters>
            <DistanceMeters>NAN</DistanceMeters>
          </Trackpoint>
          <Trackpoint>
            <Time>2019-10-08T08:37:44.000Z</Time>
            <Position>
              <LatitudeDegrees>40.18976080231368541717529296875</LatitudeDegrees>
              <LongitudeDegrees>-6.00427902303636074066162109375</LongitudeDegrees>
            </Position>
            <AltitudeMeters>305</AltitudeMeters>
            <DistanceMeters>NAN</DistanceMeters>
          </Trackpoint>
          <Trackpoint>
            <Time>2019-10-08T08:37:53.000Z</Time>
            <Position>
              <LatitudeDegrees>40.18935210071504116058349609375</LatitudeDegrees>
              <LongitudeDegrees>-6.00474472157657146453857421875</LongitudeDegrees>
            </Position>
            <AltitudeMeters>305.399993896484375</AltitudeMeters>
            <DistanceMeters>NAN</DistanceMeters>
          </Trackpoint>
          <Trackpoint>
            <Time>2019-10-08T08:37:54.000Z</Time>
            <Position>
              <LatitudeDegrees>40.18930717371404170989990234375</LatitudeDegrees>
              <LongitudeDegrees>-6.004795096814632415771484375</LongitudeDegrees>
            </Position>
            <AltitudeMeters>305.399993896484375</AltitudeMeters>
            <DistanceMeters>NAN</DistanceMeters>
          </Trackpoint>
          <Trackpoint>
            <Time>2019-10-08T08:37:57.000Z</Time>
            <Position>
              <LatitudeDegrees>40.1891713030636310577392578125</LatitudeDegrees>
              <LongitudeDegrees>-6.00494806654751300811767578125</LongitudeDegrees>
            </Position>
            <AltitudeMeters>306</AltitudeMeters>
            <DistanceMeters>NAN</DistanceMeters>
          </Trackpoint>
          <Trackpoint>
            <Time>2019-10-08T08:38:06.000Z</Time>
            <Position>
              <LatitudeDegrees>40.18875581212341785430908203125</LatitudeDegrees>
              <LongitudeDegrees>-6.00540697574615478515625</LongitudeDegrees>
            </Position>
            <AltitudeMeters>306.600006103515625</AltitudeMeters>
            <DistanceMeters>NAN</DistanceMeters>
          </Trackpoint>
          <Trackpoint>
            <Time>2019-10-08T08:38:10.000Z</Time>
            <Position>
              <LatitudeDegrees>40.1885688118636608123779296875</LatitudeDegrees>
              <LongitudeDegrees>-6.0056089796125888824462890625</LongitudeDegrees>
            </Position>
            <AltitudeMeters>307</AltitudeMeters>
            <DistanceMeters>NAN</DistanceMeters>
          </Trackpoint>
          <Trackpoint>
            <Time>2019-10-08T08:38:18.000Z</Time>
            <Position>
              <LatitudeDegrees>40.1881963200867176055908203125</LatitudeDegrees>
              <LongitudeDegrees>-6.00601173005998134613037109375</LongitudeDegrees>
            </Position>
            <AltitudeMeters>307.20001220703125</AltitudeMeters>
            <DistanceMeters>NAN</DistanceMeters>
          </Trackpoint>
          <Trackpoint>
            <Time>2019-10-08T08:38:19.000Z</Time>
            <Position>
              <LatitudeDegrees>40.1881503872573375701904296875</LatitudeDegrees>
              <LongitudeDegrees>-6.00606118328869342803955078125</LongitudeDegrees>
            </Position>
            <AltitudeMeters>307.399993896484375</AltitudeMeters>
            <DistanceMeters>NAN</DistanceMeters>
          </Trackpoint>
          <Trackpoint>
            <Time>2019-10-08T08:38:26.000Z</Time>
            <Position>
              <LatitudeDegrees>40.187826342880725860595703125</LatitudeDegrees>
              <LongitudeDegrees>-6.00641339085996150970458984375</LongitudeDegrees>
            </Position>
            <AltitudeMeters>307.79998779296875</AltitudeMeters>
            <DistanceMeters>NAN</DistanceMeters>
          </Trackpoint>
          <Trackpoint>
            <Time>2019-10-08T08:38:32.000Z</Time>
            <Position>
              <LatitudeDegrees>40.1875512488186359405517578125</LatitudeDegrees>
              <LongitudeDegrees>-6.0067177377641201019287109375</LongitudeDegrees>
            </Position>
            <AltitudeMeters>307.79998779296875</AltitudeMeters>
            <DistanceMeters>NAN</DistanceMeters>
          </Trackpoint>
          <Trackpoint>
            <Time>2019-10-08T08:38:34.000Z</Time>
            <Position>
              <LatitudeDegrees>40.1874600537121295928955078125</LatitudeDegrees>
              <LongitudeDegrees>-6.006817482411861419677734375</LongitudeDegrees>
            </Position>
            <AltitudeMeters>308.20001220703125</AltitudeMeters>
            <DistanceMeters>NAN</DistanceMeters>
          </Trackpoint>
          <Trackpoint>
            <Time>2019-10-08T08:38:43.000Z</Time>
            <Position>
              <LatitudeDegrees>40.187039114534854888916015625</LatitudeDegrees>
              <LongitudeDegrees>-6.00726935081183910369873046875</LongitudeDegrees>
            </Position>
            <AltitudeMeters>308.20001220703125</AltitudeMeters>
            <DistanceMeters>NAN</DistanceMeters>
          </Trackpoint>
          <Trackpoint>
            <Time>2019-10-08T08:38:52.000Z</Time>
            <Position>
              <LatitudeDegrees>40.18660970963537693023681640625</LatitudeDegrees>
              <LongitudeDegrees>-6.00772683508694171905517578125</LongitudeDegrees>
            </Position>
            <AltitudeMeters>308.20001220703125</AltitudeMeters>
            <DistanceMeters>NAN</DistanceMeters>
          </Trackpoint>
          <Trackpoint>
            <Time>2019-10-08T08:39:01.000Z</Time>
            <Position>
              <LatitudeDegrees>40.18617234192788600921630859375</LatitudeDegrees>
              <LongitudeDegrees>-6.0081906057894229888916015625</LongitudeDegrees>
            </Position>
            <AltitudeMeters>307.79998779296875</AltitudeMeters>
            <DistanceMeters>NAN</DistanceMeters>
          </Trackpoint>
          <Trackpoint>
            <Time>2019-10-08T08:39:10.000Z</Time>
            <Position>
              <LatitudeDegrees>40.18574017100036144256591796875</LatitudeDegrees>
              <LongitudeDegrees>-6.00863493047654628753662109375</LongitudeDegrees>
            </Position>
            <AltitudeMeters>308</AltitudeMeters>
            <DistanceMeters>NAN</DistanceMeters>
          </Trackpoint>
          <Trackpoint>
            <Time>2019-10-08T08:39:11.000Z</Time>
            <Position>
              <LatitudeDegrees>40.18569239415228366851806640625</LatitudeDegrees>
              <LongitudeDegrees>-6.00868530571460723876953125</LongitudeDegrees>
            </Position>
            <AltitudeMeters>308</AltitudeMeters>
            <DistanceMeters>NAN</DistanceMeters>
          </Trackpoint>
          <Trackpoint>
            <Time>2019-10-08T08:39:20.000Z</Time>
            <Position>
              <LatitudeDegrees>40.1852616481482982635498046875</LatitudeDegrees>
              <LongitudeDegrees>-6.00915846414864063262939453125</LongitudeDegrees>
            </Position>
            <AltitudeMeters>307.399993896484375</AltitudeMeters>
            <DistanceMeters>NAN</DistanceMeters>
          </Trackpoint>
          <Trackpoint>
            <Time>2019-10-08T08:39:22.000Z</Time>
            <Position>
              <LatitudeDegrees>40.18516726791858673095703125</LatitudeDegrees>
              <LongitudeDegrees>-6.00926374085247516632080078125</LongitudeDegrees>
            </Position>
            <AltitudeMeters>307.20001220703125</AltitudeMeters>
            <DistanceMeters>NAN</DistanceMeters>
          </Trackpoint>
          <Trackpoint>
            <Time>2019-10-08T08:39:23.000Z</Time>
            <Position>
              <LatitudeDegrees>40.18511974252760410308837890625</LatitudeDegrees>
              <LongitudeDegrees>-6.00931654684245586395263671875</LongitudeDegrees>
            </Position>
            <AltitudeMeters>307</AltitudeMeters>
            <DistanceMeters>NAN</DistanceMeters>
          </Trackpoint>
          <Trackpoint>
            <Time>2019-10-08T08:39:31.000Z</Time>
            <Position>
              <LatitudeDegrees>40.18474884331226348876953125</LatitudeDegrees>
              <LongitudeDegrees>-6.00972734391689300537109375</LongitudeDegrees>
            </Position>
            <AltitudeMeters>307.20001220703125</AltitudeMeters>
            <DistanceMeters>NAN</DistanceMeters>
          </Trackpoint>
          <Trackpoint>
            <Time>2019-10-08T08:39:39.000Z</Time>
            <Position>
              <LatitudeDegrees>40.18437073566019535064697265625</LatitudeDegrees>
              <LongitudeDegrees>-6.01013076491653919219970703125</LongitudeDegrees>
            </Position>
            <AltitudeMeters>306.79998779296875</AltitudeMeters>
            <DistanceMeters>NAN</DistanceMeters>
          </Trackpoint>
          <Trackpoint>
            <Time>2019-10-08T08:39:40.000Z</Time>
            <Position>
              <LatitudeDegrees>40.18432379700243473052978515625</LatitudeDegrees>
              <LongitudeDegrees>-6.010181643068790435791015625</LongitudeDegrees>
            </Position>
            <AltitudeMeters>307.20001220703125</AltitudeMeters>
            <DistanceMeters>NAN</DistanceMeters>
          </Trackpoint>
          <Trackpoint>
            <Time>2019-10-08T08:39:41.000Z</Time>
            <Position>
              <LatitudeDegrees>40.184278450906276702880859375</LatitudeDegrees>
              <LongitudeDegrees>-6.010231263935565948486328125</LongitudeDegrees>
            </Position>
            <AltitudeMeters>307.600006103515625</AltitudeMeters>
            <DistanceMeters>NAN</DistanceMeters>
          </Trackpoint>
          <Trackpoint>
            <Time>2019-10-08T08:39:42.000Z</Time>
            <Position>
              <LatitudeDegrees>40.1842318475246429443359375</LatitudeDegrees>
              <LongitudeDegrees>-6.01028130389750003814697265625</LongitudeDegrees>
            </Position>
            <AltitudeMeters>307.399993896484375</AltitudeMeters>
            <DistanceMeters>NAN</DistanceMeters>
          </Trackpoint>
          <Trackpoint>
            <Time>2019-10-08T08:39:48.000Z</Time>
            <Position>
              <LatitudeDegrees>40.183954574167728424072265625</LatitudeDegrees>
              <LongitudeDegrees>-6.010579951107501983642578125</LongitudeDegrees>
            </Position>
            <AltitudeMeters>307.399993896484375</AltitudeMeters>
            <DistanceMeters>NAN</DistanceMeters>
          </Trackpoint>
          <Trackpoint>
            <Time>2019-10-08T08:39:49.000Z</Time>
            <Position>
              <LatitudeDegrees>40.18390956334769725799560546875</LatitudeDegrees>
              <LongitudeDegrees>-6.010630913078784942626953125</LongitudeDegrees>
            </Position>
            <AltitudeMeters>307.600006103515625</AltitudeMeters>
            <DistanceMeters>NAN</DistanceMeters>
          </Trackpoint>
          <Trackpoint>
            <Time>2019-10-08T08:39:50.000Z</Time>
            <Position>
              <LatitudeDegrees>40.1838643848896026611328125</LatitudeDegrees>
              <LongitudeDegrees>-6.01068086922168731689453125</LongitudeDegrees>
            </Position>
            <AltitudeMeters>307.600006103515625</AltitudeMeters>
            <DistanceMeters>NAN</DistanceMeters>
          </Trackpoint>
          <Trackpoint>
            <Time>2019-10-08T08:39:59.000Z</Time>
            <Position>
              <LatitudeDegrees>40.18345057033002376556396484375</LatitudeDegrees>
              <LongitudeDegrees>-6.0111306421458721160888671875</LongitudeDegrees>
            </Position>
            <AltitudeMeters>307.600006103515625</AltitudeMeters>
            <DistanceMeters>NAN</DistanceMeters>
          </Trackpoint>
          <Trackpoint>
            <Time>2019-10-08T08:40:04.000Z</Time>
            <Position>
              <LatitudeDegrees>40.183217637240886688232421875</LatitudeDegrees>
              <LongitudeDegrees>-6.01138151250779628753662109375</LongitudeDegrees>
            </Position>
            <AltitudeMeters>307.20001220703125</AltitudeMeters>
            <DistanceMeters>NAN</DistanceMeters>
          </Trackpoint>
          <Trackpoint>
            <Time>2019-10-08T08:40:05.000Z</Time>
            <Position>
              <LatitudeDegrees>40.1831705309450626373291015625</LatitudeDegrees>
              <LongitudeDegrees>-6.0114307142794132232666015625</LongitudeDegrees>
            </Position>
            <AltitudeMeters>307.399993896484375</AltitudeMeters>
            <DistanceMeters>NAN</DistanceMeters>
          </Trackpoint>
          <Trackpoint>
            <Time>2019-10-08T08:40:10.000Z</Time>
            <Position>
              <LatitudeDegrees>40.1829385198652744293212890625</LatitudeDegrees>
              <LongitudeDegrees>-6.011683009564876556396484375</LongitudeDegrees>
            </Position>
            <AltitudeMeters>307.399993896484375</AltitudeMeters>
            <DistanceMeters>NAN</DistanceMeters>
          </Trackpoint>
          <Trackpoint>
            <Time>2019-10-08T08:40:13.000Z</Time>
            <Position>
              <LatitudeDegrees>40.182794518768787384033203125</LatitudeDegrees>
              <LongitudeDegrees>-6.01183866150677204132080078125</LongitudeDegrees>
            </Position>
            <AltitudeMeters>307.20001220703125</AltitudeMeters>
            <DistanceMeters>NAN</DistanceMeters>
          </Trackpoint>
          <Trackpoint>
            <Time>2019-10-08T08:40:14.000Z</Time>
            <Position>
              <LatitudeDegrees>40.182746909558773040771484375</LatitudeDegrees>
              <LongitudeDegrees>-6.01189062930643558502197265625</LongitudeDegrees>
            </Position>
            <AltitudeMeters>307.20001220703125</AltitudeMeters>
            <DistanceMeters>NAN</DistanceMeters>
          </Trackpoint>
          <Trackpoint>
            <Time>2019-10-08T08:40:22.000Z</Time>
            <Position>
              <LatitudeDegrees>40.18236008472740650177001953125</LatitudeDegrees>
              <LongitudeDegrees>-6.01231156848371028900146484375</LongitudeDegrees>
            </Position>
            <AltitudeMeters>307.600006103515625</AltitudeMeters>
            <DistanceMeters>NAN</DistanceMeters>
          </Trackpoint>
          <Trackpoint>
            <Time>2019-10-08T08:40:24.000Z</Time>
            <Position>
              <LatitudeDegrees>40.18226444721221923828125</LatitudeDegrees>
              <LongitudeDegrees>-6.01241835393011569976806640625</LongitudeDegrees>
            </Position>
            <AltitudeMeters>307.79998779296875</AltitudeMeters>
            <DistanceMeters>NAN</DistanceMeters>
          </Trackpoint>
          <Trackpoint>
            <Time>2019-10-08T08:40:33.000Z</Time>
            <Position>
              <LatitudeDegrees>40.1818290911614894866943359375</LatitudeDegrees>
              <LongitudeDegrees>-6.01289444603025913238525390625</LongitudeDegrees>
            </Position>
            <AltitudeMeters>307.399993896484375</AltitudeMeters>
            <DistanceMeters>NAN</DistanceMeters>
          </Trackpoint>
          <Trackpoint>
            <Time>2019-10-08T08:40:36.000Z</Time>
            <Position>
              <LatitudeDegrees>40.18168433569371700286865234375</LatitudeDegrees>
              <LongitudeDegrees>-6.01305135525763034820556640625</LongitudeDegrees>
            </Position>
            <AltitudeMeters>307.79998779296875</AltitudeMeters>
            <DistanceMeters>NAN</DistanceMeters>
          </Trackpoint>
          <Trackpoint>
            <Time>2019-10-08T08:40:45.000Z</Time>
            <Position>
              <LatitudeDegrees>40.18124629743397235870361328125</LatitudeDegrees>
              <LongitudeDegrees>-6.013524346053600311279296875</LongitudeDegrees>
            </Position>
            <AltitudeMeters>307.600006103515625</AltitudeMeters>
            <DistanceMeters>NAN</DistanceMeters>
          </Trackpoint>
          <Trackpoint>
            <Time>2019-10-08T08:40:46.000Z</Time>
            <Position>
              <LatitudeDegrees>40.18119734711945056915283203125</LatitudeDegrees>
              <LongitudeDegrees>-6.01357623003423213958740234375</LongitudeDegrees>
            </Position>
            <AltitudeMeters>307.79998779296875</AltitudeMeters>
            <DistanceMeters>NAN</DistanceMeters>
          </Trackpoint>
          <Trackpoint>
            <Time>2019-10-08T08:40:51.000Z</Time>
            <Position>
              <LatitudeDegrees>40.180951170623302459716796875</LatitudeDegrees>
              <LongitudeDegrees>-6.01383539848029613494873046875</LongitudeDegrees>
            </Position>
            <AltitudeMeters>308</AltitudeMeters>
            <DistanceMeters>NAN</DistanceMeters>
          </Trackpoint>
          <Trackpoint>
            <Time>2019-10-08T08:40:58.000Z</Time>
            <Position>
              <LatitudeDegrees>40.18059871159493923187255859375</LatitudeDegrees>
              <LongitudeDegrees>-6.0141860134899616241455078125</LongitudeDegrees>
            </Position>
            <AltitudeMeters>307.399993896484375</AltitudeMeters>
            <DistanceMeters>NAN</DistanceMeters>
          </Trackpoint>
          <Trackpoint>
            <Time>2019-10-08T08:41:07.000Z</Time>
            <Position>
              <LatitudeDegrees>40.180131755769252777099609375</LatitudeDegrees>
              <LongitudeDegrees>-6.01461541838943958282470703125</LongitudeDegrees>
            </Position>
            <AltitudeMeters>308</AltitudeMeters>
            <DistanceMeters>NAN</DistanceMeters>
          </Trackpoint>
          <Trackpoint>
            <Time>2019-10-08T08:41:10.000Z</Time>
            <Position>
              <LatitudeDegrees>40.179970823228359222412109375</LatitudeDegrees>
              <LongitudeDegrees>-6.0147546418011188507080078125</LongitudeDegrees>
            </Position>
            <AltitudeMeters>307.600006103515625</AltitudeMeters>
            <DistanceMeters>NAN</DistanceMeters>
          </Trackpoint>
          <Trackpoint>
            <Time>2019-10-08T08:41:18.000Z</Time>
            <Position>
              <LatitudeDegrees>40.179542005062103271484375</LatitudeDegrees>
              <LongitudeDegrees>-6.01511430926620960235595703125</LongitudeDegrees>
            </Position>
            <AltitudeMeters>308.399993896484375</AltitudeMeters>
            <DistanceMeters>NAN</DistanceMeters>
          </Trackpoint>
          <Trackpoint>
            <Time>2019-10-08T08:41:27.000Z</Time>
            <Position>
              <LatitudeDegrees>40.17905719578266143798828125</LatitudeDegrees>
              <LongitudeDegrees>-6.01549987681210041046142578125</LongitudeDegrees>
            </Position>
            <AltitudeMeters>308.399993896484375</AltitudeMeters>
            <DistanceMeters>NAN</DistanceMeters>
          </Trackpoint>
          <Trackpoint>
            <Time>2019-10-08T08:41:29.000Z</Time>
            <Position>
              <LatitudeDegrees>40.17894898541271686553955078125</LatitudeDegrees>
              <LongitudeDegrees>-6.01558118127286434173583984375</LongitudeDegrees>
            </Position>
            <AltitudeMeters>308.79998779296875</AltitudeMeters>
            <DistanceMeters>NAN</DistanceMeters>
          </Trackpoint>
          <Trackpoint>
            <Time>2019-10-08T08:41:38.000Z</Time>
            <Position>
              <LatitudeDegrees>40.17848311923444271087646484375</LatitudeDegrees>
              <LongitudeDegrees>-6.01595853455364704132080078125</LongitudeDegrees>
            </Position>
            <AltitudeMeters>308.600006103515625</AltitudeMeters>
            <DistanceMeters>NAN</DistanceMeters>
          </Trackpoint>
          <Trackpoint>
            <Time>2019-10-08T08:41:40.000Z</Time>
            <Position>
              <LatitudeDegrees>40.1783824525773525238037109375</LatitudeDegrees>
              <LongitudeDegrees>-6.016036905348300933837890625</LongitudeDegrees>
            </Position>
            <AltitudeMeters>308.79998779296875</AltitudeMeters>
            <DistanceMeters>NAN</DistanceMeters>
          </Trackpoint>
          <Trackpoint>
            <Time>2019-10-08T08:41:42.000Z</Time>
            <Position>
              <LatitudeDegrees>40.1782853901386260986328125</LatitudeDegrees>
              <LongitudeDegrees>-6.01611393503844738006591796875</LongitudeDegrees>
            </Position>
            <AltitudeMeters>309.20001220703125</AltitudeMeters>
            <DistanceMeters>NAN</DistanceMeters>
          </Trackpoint>
          <Trackpoint>
            <Time>2019-10-08T08:41:50.000Z</Time>
            <Position>
              <LatitudeDegrees>40.1779107190668582916259765625</LatitudeDegrees>
              <LongitudeDegrees>-6.0164099000394344329833984375</LongitudeDegrees>
            </Position>
            <AltitudeMeters>309.79998779296875</AltitudeMeters>
            <DistanceMeters>NAN</DistanceMeters>
          </Trackpoint>
          <Trackpoint>
            <Time>2019-10-08T08:41:55.000Z</Time>
            <Position>
              <LatitudeDegrees>40.177680216729640960693359375</LatitudeDegrees>
              <LongitudeDegrees>-6.01658918894827365875244140625</LongitudeDegrees>
            </Position>
            <AltitudeMeters>310.20001220703125</AltitudeMeters>
            <DistanceMeters>NAN</DistanceMeters>
          </Trackpoint>
          <Trackpoint>
            <Time>2019-10-08T08:42:04.000Z</Time>
            <Position>
              <LatitudeDegrees>40.17726480960845947265625</LatitudeDegrees>
              <LongitudeDegrees>-6.016922704875469207763671875</LongitudeDegrees>
            </Position>
            <AltitudeMeters>311</AltitudeMeters>
            <DistanceMeters>NAN</DistanceMeters>
          </Trackpoint>
          <Trackpoint>
            <Time>2019-10-08T08:42:08.000Z</Time>
            <Position>
              <LatitudeDegrees>40.17708711326122283935546875</LatitudeDegrees>
              <LongitudeDegrees>-6.017053462564945220947265625</LongitudeDegrees>
            </Position>
            <AltitudeMeters>311.20001220703125</AltitudeMeters>
            <DistanceMeters>NAN</DistanceMeters>
          </Trackpoint>
          <Trackpoint>
            <Time>2019-10-08T08:42:09.000Z</Time>
            <Position>
              <LatitudeDegrees>40.17704277299344539642333984375</LatitudeDegrees>
              <LongitudeDegrees>-6.01709143258631229400634765625</LongitudeDegrees>
            </Position>
            <AltitudeMeters>311</AltitudeMeters>
            <DistanceMeters>NAN</DistanceMeters>
          </Trackpoint>
          <Trackpoint>
            <Time>2019-10-08T08:42:11.000Z</Time>
            <Position>
              <LatitudeDegrees>40.17695434391498565673828125</LatitudeDegrees>
              <LongitudeDegrees>-6.01716921664774417877197265625</LongitudeDegrees>
            </Position>
            <AltitudeMeters>311.399993896484375</AltitudeMeters>
            <DistanceMeters>NAN</DistanceMeters>
          </Trackpoint>
          <Trackpoint>
            <Time>2019-10-08T08:42:20.000Z</Time>
            <Position>
              <LatitudeDegrees>40.17654262483119964599609375</LatitudeDegrees>
              <LongitudeDegrees>-6.01749770343303680419921875</LongitudeDegrees>
            </Position>
            <AltitudeMeters>312</AltitudeMeters>
            <DistanceMeters>NAN</DistanceMeters>
          </Trackpoint>
          <Trackpoint>
            <Time>2019-10-08T08:42:24.000Z</Time>
            <Position>
              <LatitudeDegrees>40.17636048607528209686279296875</LatitudeDegrees>
              <LongitudeDegrees>-6.01764430291950702667236328125</LongitudeDegrees>
            </Position>
            <AltitudeMeters>312.399993896484375</AltitudeMeters>
            <DistanceMeters>NAN</DistanceMeters>
          </Trackpoint>
          <Trackpoint>
            <Time>2019-10-08T08:42:31.000Z</Time>
            <Position>
              <LatitudeDegrees>40.176044404506683349609375</LatitudeDegrees>
              <LongitudeDegrees>-6.0178851149976253509521484375</LongitudeDegrees>
            </Position>
            <AltitudeMeters>312.20001220703125</AltitudeMeters>
            <DistanceMeters>NAN</DistanceMeters>
          </Trackpoint>
          <Trackpoint>
            <Time>2019-10-08T08:42:41.000Z</Time>
            <Position>
              <LatitudeDegrees>40.17559270374476909637451171875</LatitudeDegrees>
              <LongitudeDegrees>-6.0182373225688934326171875</LongitudeDegrees>
            </Position>
            <AltitudeMeters>313.399993896484375</AltitudeMeters>
            <DistanceMeters>NAN</DistanceMeters>
          </Trackpoint>
          <Trackpoint>
            <Time>2019-10-08T08:42:42.000Z</Time>
            <Position>
              <LatitudeDegrees>40.17554710619151592254638671875</LatitudeDegrees>
              <LongitudeDegrees>-6.01827026344835758209228515625</LongitudeDegrees>
            </Position>
            <AltitudeMeters>313.600006103515625</AltitudeMeters>
            <DistanceMeters>NAN</DistanceMeters>
          </Trackpoint>
          <Trackpoint>
            <Time>2019-10-08T08:42:53.000Z</Time>
            <Position>
              <LatitudeDegrees>40.17505626194179058074951171875</LatitudeDegrees>
              <LongitudeDegrees>-6.0186552442610263824462890625</LongitudeDegrees>
            </Position>
            <AltitudeMeters>314.399993896484375</AltitudeMeters>
            <DistanceMeters>NAN</DistanceMeters>
          </Trackpoint>
          <Trackpoint>
            <Time>2019-10-08T08:42:59.000Z</Time>
            <Position>
              <LatitudeDegrees>40.17479156143963336944580078125</LatitudeDegrees>
              <LongitudeDegrees>-6.018851213157176971435546875</LongitudeDegrees>
            </Position>
            <AltitudeMeters>314.20001220703125</AltitudeMeters>
            <DistanceMeters>NAN</DistanceMeters>
          </Trackpoint>
          <Trackpoint>
            <Time>2019-10-08T08:43:00.000Z</Time>
            <Position>
              <LatitudeDegrees>40.17474780790507793426513671875</LatitudeDegrees>
              <LongitudeDegrees>-6.0188798792660236358642578125</LongitudeDegrees>
            </Position>
            <AltitudeMeters>314.399993896484375</AltitudeMeters>
            <DistanceMeters>NAN</DistanceMeters>
          </Trackpoint>
          <Trackpoint>
            <Time>2019-10-08T08:43:05.000Z</Time>
            <Position>
              <LatitudeDegrees>40.17455200664699077606201171875</LatitudeDegrees>
              <LongitudeDegrees>-6.0190636105835437774658203125</LongitudeDegrees>
            </Position>
            <AltitudeMeters>314.600006103515625</AltitudeMeters>
            <DistanceMeters>NAN</DistanceMeters>
          </Trackpoint>
          <Trackpoint>
            <Time>2019-10-08T08:43:06.000Z</Time>
            <Position>
              <LatitudeDegrees>40.17451629973948001861572265625</LatitudeDegrees>
              <LongitudeDegrees>-6.0191009938716888427734375</LongitudeDegrees>
            </Position>
            <AltitudeMeters>314.600006103515625</AltitudeMeters>
            <DistanceMeters>NAN</DistanceMeters>
          </Trackpoint>
          <Trackpoint>
            <Time>2019-10-08T08:43:13.000Z</Time>
            <Position>
              <LatitudeDegrees>40.17425327561795711517333984375</LatitudeDegrees>
              <LongitudeDegrees>-6.01932303048670291900634765625</LongitudeDegrees>
            </Position>
            <AltitudeMeters>315.20001220703125</AltitudeMeters>
            <DistanceMeters>NAN</DistanceMeters>
          </Trackpoint>
          <Trackpoint>
            <Time>2019-10-08T08:43:19.000Z</Time>
            <Position>
              <LatitudeDegrees>40.17400927841663360595703125</LatitudeDegrees>
              <LongitudeDegrees>-6.019531823694705963134765625</LongitudeDegrees>
            </Position>
            <AltitudeMeters>315</AltitudeMeters>
            <DistanceMeters>NAN</DistanceMeters>
          </Trackpoint>
          <Trackpoint>
            <Time>2019-10-08T08:43:26.000Z</Time>
            <Position>
              <LatitudeDegrees>40.1736724935472011566162109375</LatitudeDegrees>
              <LongitudeDegrees>-6.019766516983509063720703125</LongitudeDegrees>
            </Position>
            <AltitudeMeters>315.20001220703125</AltitudeMeters>
            <DistanceMeters>NAN</DistanceMeters>
          </Trackpoint>
          <Trackpoint>
            <Time>2019-10-08T08:43:31.000Z</Time>
            <Position>
              <LatitudeDegrees>40.17338164150714874267578125</LatitudeDegrees>
              <LongitudeDegrees>-6.019975729286670684814453125</LongitudeDegrees>
            </Position>
            <AltitudeMeters>315.20001220703125</AltitudeMeters>
            <DistanceMeters>NAN</DistanceMeters>
          </Trackpoint>
          <Trackpoint>
            <Time>2019-10-08T08:43:34.000Z</Time>
            <Position>
              <LatitudeDegrees>40.17322062514722347259521484375</LatitudeDegrees>
              <LongitudeDegrees>-6.02010212838649749755859375</LongitudeDegrees>
            </Position>
            <AltitudeMeters>315</AltitudeMeters>
            <DistanceMeters>NAN</DistanceMeters>
          </Trackpoint>
          <Trackpoint>
            <Time>2019-10-08T08:43:39.000Z</Time>
            <Position>
              <LatitudeDegrees>40.17296413891017436981201171875</LatitudeDegrees>
              <LongitudeDegrees>-6.02030036039650440216064453125</LongitudeDegrees>
            </Position>
            <AltitudeMeters>314.79998779296875</AltitudeMeters>
            <DistanceMeters>NAN</DistanceMeters>
          </Trackpoint>
          <Trackpoint>
            <Time>2019-10-08T08:43:44.000Z</Time>
            <Position>
              <LatitudeDegrees>40.17269725911319255828857421875</LatitudeDegrees>
              <LongitudeDegrees>-6.0205244086682796478271484375</LongitudeDegrees>
            </Position>
            <AltitudeMeters>314.79998779296875</AltitudeMeters>
            <DistanceMeters>NAN</DistanceMeters>
          </Trackpoint>
          <Trackpoint>
            <Time>2019-10-08T08:43:53.000Z</Time>
            <Position>
              <LatitudeDegrees>40.17219367437064647674560546875</LatitudeDegrees>
              <LongitudeDegrees>-6.02091525681316852569580078125</LongitudeDegrees>
            </Position>
            <AltitudeMeters>313.600006103515625</AltitudeMeters>
            <DistanceMeters>NAN</DistanceMeters>
          </Trackpoint>
          <Trackpoint>
            <Time>2019-10-08T08:43:54.000Z</Time>
            <Position>
              <LatitudeDegrees>40.17213718034327030181884765625</LatitudeDegrees>
              <LongitudeDegrees>-6.02096035145223140716552734375</LongitudeDegrees>
            </Position>
            <AltitudeMeters>313.399993896484375</AltitudeMeters>
            <DistanceMeters>NAN</DistanceMeters>
          </Trackpoint>
          <Trackpoint>
            <Time>2019-10-08T08:43:58.000Z</Time>
            <Position>
              <LatitudeDegrees>40.17190131358802318572998046875</LatitudeDegrees>
              <LongitudeDegrees>-6.02114282548427581787109375</LongitudeDegrees>
            </Position>
            <AltitudeMeters>313</AltitudeMeters>
            <DistanceMeters>NAN</DistanceMeters>
          </Trackpoint>
          <Trackpoint>
            <Time>2019-10-08T08:44:03.000Z</Time>
            <Position>
              <LatitudeDegrees>40.17159990034997463226318359375</LatitudeDegrees>
              <LongitudeDegrees>-6.0213755071163177490234375</LongitudeDegrees>
            </Position>
            <AltitudeMeters>312.399993896484375</AltitudeMeters>
            <DistanceMeters>NAN</DistanceMeters>
          </Trackpoint>
          <Trackpoint>
            <Time>2019-10-08T08:44:04.000Z</Time>
            <Position>
              <LatitudeDegrees>40.1715381257236003875732421875</LatitudeDegrees>
              <LongitudeDegrees>-6.02142135612666606903076171875</LongitudeDegrees>
            </Position>
            <AltitudeMeters>312</AltitudeMeters>
            <DistanceMeters>NAN</DistanceMeters>
          </Trackpoint>
          <Trackpoint>
            <Time>2019-10-08T08:44:08.000Z</Time>
            <Position>
              <LatitudeDegrees>40.1712937094271183013916015625</LatitudeDegrees>
              <LongitudeDegrees>-6.021608524024486541748046875</LongitudeDegrees>
            </Position>
            <AltitudeMeters>311.79998779296875</AltitudeMeters>
            <DistanceMeters>NAN</DistanceMeters>
          </Trackpoint>
          <Trackpoint>
            <Time>2019-10-08T08:44:11.000Z</Time>
            <Position>
              <LatitudeDegrees>40.1711089722812175750732421875</LatitudeDegrees>
              <LongitudeDegrees>-6.02175210602581501007080078125</LongitudeDegrees>
            </Position>
            <AltitudeMeters>311.20001220703125</AltitudeMeters>
            <DistanceMeters>NAN</DistanceMeters>
          </Trackpoint>
          <Trackpoint>
            <Time>2019-10-08T08:44:14.000Z</Time>
            <Position>
              <LatitudeDegrees>40.17092482186853885650634765625</LatitudeDegrees>
              <LongitudeDegrees>-6.02189342491328716278076171875</LongitudeDegrees>
            </Position>
            <AltitudeMeters>311.20001220703125</AltitudeMeters>
            <DistanceMeters>NAN</DistanceMeters>
          </Trackpoint>
          <Trackpoint>
            <Time>2019-10-08T08:44:19.000Z</Time>
            <Position>
              <LatitudeDegrees>40.17062005586922168731689453125</LatitudeDegrees>
              <LongitudeDegrees>-6.0221354104578495025634765625</LongitudeDegrees>
            </Position>
            <AltitudeMeters>310.600006103515625</AltitudeMeters>
            <DistanceMeters>NAN</DistanceMeters>
          </Trackpoint>
          <Trackpoint>
            <Time>2019-10-08T08:44:26.000Z</Time>
            <Position>
              <LatitudeDegrees>40.17019660212099552154541015625</LatitudeDegrees>
              <LongitudeDegrees>-6.0224639810621738433837890625</LongitudeDegrees>
            </Position>
            <AltitudeMeters>310.20001220703125</AltitudeMeters>
            <DistanceMeters>NAN</DistanceMeters>
          </Trackpoint>
          <Trackpoint>
            <Time>2019-10-08T08:44:27.000Z</Time>
            <Position>
              <LatitudeDegrees>40.17013474367558956146240234375</LatitudeDegrees>
              <LongitudeDegrees>-6.0225112549960613250732421875</LongitudeDegrees>
            </Position>
            <AltitudeMeters>310.399993896484375</AltitudeMeters>
            <DistanceMeters>NAN</DistanceMeters>
          </Trackpoint>
          <Trackpoint>
            <Time>2019-10-08T08:44:31.000Z</Time>
            <Position>
              <LatitudeDegrees>40.16988865099847316741943359375</LatitudeDegrees>
              <LongitudeDegrees>-6.02269624359905719757080078125</LongitudeDegrees>
            </Position>
            <AltitudeMeters>309.600006103515625</AltitudeMeters>
            <DistanceMeters>NAN</DistanceMeters>
          </Trackpoint>
          <Trackpoint>
            <Time>2019-10-08T08:44:36.000Z</Time>
            <Position>
              <LatitudeDegrees>40.16958539374172687530517578125</LatitudeDegrees>
              <LongitudeDegrees>-6.0229286737740039825439453125</LongitudeDegrees>
            </Position>
            <AltitudeMeters>309.20001220703125</AltitudeMeters>
            <DistanceMeters>NAN</DistanceMeters>
          </Trackpoint>
          <Trackpoint>
            <Time>2019-10-08T08:44:38.000Z</Time>
            <Position>
              <LatitudeDegrees>40.1694631017744541168212890625</LatitudeDegrees>
              <LongitudeDegrees>-6.02302079088985919952392578125</LongitudeDegrees>
            </Position>
            <AltitudeMeters>309.399993896484375</AltitudeMeters>
            <DistanceMeters>NAN</DistanceMeters>
          </Trackpoint>
          <Trackpoint>
            <Time>2019-10-08T08:44:46.000Z</Time>
            <Position>
              <LatitudeDegrees>40.168971754610538482666015625</LatitudeDegrees>
              <LongitudeDegrees>-6.023396551609039306640625</LongitudeDegrees>
            </Position>
            <AltitudeMeters>308.600006103515625</AltitudeMeters>
            <DistanceMeters>NAN</DistanceMeters>
          </Trackpoint>
          <Trackpoint>
            <Time>2019-10-08T08:44:50.000Z</Time>
            <Position>
              <LatitudeDegrees>40.1687254942953586578369140625</LatitudeDegrees>
              <LongitudeDegrees>-6.0235851444303989410400390625</LongitudeDegrees>
            </Position>
            <AltitudeMeters>308.79998779296875</AltitudeMeters>
            <DistanceMeters>NAN</DistanceMeters>
          </Trackpoint>
          <Trackpoint>
            <Time>2019-10-08T08:44:53.000Z</Time>
            <Position>
              <LatitudeDegrees>40.16854201443493366241455078125</LatitudeDegrees>
              <LongitudeDegrees>-6.02372537367045879364013671875</LongitudeDegrees>
            </Position>
            <AltitudeMeters>307.79998779296875</AltitudeMeters>
            <DistanceMeters>NAN</DistanceMeters>
          </Trackpoint>
          <Trackpoint>
            <Time>2019-10-08T08:45:01.000Z</Time>
            <Position>
              <LatitudeDegrees>40.16805234365165233612060546875</LatitudeDegrees>
              <LongitudeDegrees>-6.0240991227328777313232421875</LongitudeDegrees>
            </Position>
            <AltitudeMeters>308.399993896484375</AltitudeMeters>
            <DistanceMeters>NAN</DistanceMeters>
          </Trackpoint>
          <Trackpoint>
            <Time>2019-10-08T08:45:03.000Z</Time>
            <Position>
              <LatitudeDegrees>40.167931057512760162353515625</LatitudeDegrees>
              <LongitudeDegrees>-6.02419325150549411773681640625</LongitudeDegrees>
            </Position>
            <AltitudeMeters>307.20001220703125</AltitudeMeters>
            <DistanceMeters>NAN</DistanceMeters>
          </Trackpoint>
          <Trackpoint>
            <Time>2019-10-08T08:45:04.000Z</Time>
            <Position>
              <LatitudeDegrees>40.16786794178187847137451171875</LatitudeDegrees>
              <LongitudeDegrees>-6.024238765239715576171875</LongitudeDegrees>
            </Position>
            <AltitudeMeters>306.79998779296875</AltitudeMeters>
            <DistanceMeters>NAN</DistanceMeters>
          </Trackpoint>
          <Trackpoint>
            <Time>2019-10-08T08:45:08.000Z</Time>
            <Position>
              <LatitudeDegrees>40.1676237769424915313720703125</LatitudeDegrees>
              <LongitudeDegrees>-6.02442844770848751068115234375</LongitudeDegrees>
            </Position>
            <AltitudeMeters>307.79998779296875</AltitudeMeters>
            <DistanceMeters>NAN</DistanceMeters>
          </Trackpoint>
          <Trackpoint>
            <Time>2019-10-08T08:45:11.000Z</Time>
            <Position>
              <LatitudeDegrees>40.16743610613048076629638671875</LatitudeDegrees>
              <LongitudeDegrees>-6.02457060478627681732177734375</LongitudeDegrees>
            </Position>
            <AltitudeMeters>306.79998779296875</AltitudeMeters>
            <DistanceMeters>NAN</DistanceMeters>
          </Trackpoint>
          <Trackpoint>
            <Time>2019-10-08T08:45:12.000Z</Time>
            <Position>
              <LatitudeDegrees>40.1673746667802333831787109375</LatitudeDegrees>
              <LongitudeDegrees>-6.02461787872016429901123046875</LongitudeDegrees>
            </Position>
            <AltitudeMeters>306.399993896484375</AltitudeMeters>
            <DistanceMeters>NAN</DistanceMeters>
          </Trackpoint>
          <Trackpoint>
            <Time>2019-10-08T08:45:20.000Z</Time>
            <Position>
              <LatitudeDegrees>40.1668844930827617645263671875</LatitudeDegrees>
              <LongitudeDegrees>-6.02499590255320072174072265625</LongitudeDegrees>
            </Position>
            <AltitudeMeters>306</AltitudeMeters>
            <DistanceMeters>NAN</DistanceMeters>
          </Trackpoint>
          <Trackpoint>
            <Time>2019-10-08T08:45:24.000Z</Time>
            <Position>
              <LatitudeDegrees>40.16664753668010234832763671875</LatitudeDegrees>
              <LongitudeDegrees>-6.02518499828875064849853515625</LongitudeDegrees>
            </Position>
            <AltitudeMeters>306.20001220703125</AltitudeMeters>
            <DistanceMeters>NAN</DistanceMeters>
          </Trackpoint>
          <Trackpoint>
            <Time>2019-10-08T08:45:30.000Z</Time>
            <Position>
              <LatitudeDegrees>40.1662856899201869964599609375</LatitudeDegrees>
              <LongitudeDegrees>-6.02546126581728458404541015625</LongitudeDegrees>
            </Position>
            <AltitudeMeters>305.79998779296875</AltitudeMeters>
            <DistanceMeters>NAN</DistanceMeters>
          </Trackpoint>
          <Trackpoint>
            <Time>2019-10-08T08:45:35.000Z</Time>
            <Position>
              <LatitudeDegrees>40.16599693335592746734619140625</LatitudeDegrees>
              <LongitudeDegrees>-6.0256916843354701995849609375</LongitudeDegrees>
            </Position>
            <AltitudeMeters>306.20001220703125</AltitudeMeters>
            <DistanceMeters>NAN</DistanceMeters>
          </Trackpoint>
          <Trackpoint>
            <Time>2019-10-08T08:45:41.000Z</Time>
            <Position>
              <LatitudeDegrees>40.1656714640557765960693359375</LatitudeDegrees>
              <LongitudeDegrees>-6.0259354300796985626220703125</LongitudeDegrees>
            </Position>
            <AltitudeMeters>306</AltitudeMeters>
            <DistanceMeters>NAN</DistanceMeters>
          </Trackpoint>
          <Trackpoint>
            <Time>2019-10-08T08:45:43.000Z</Time>
            <Position>
              <LatitudeDegrees>40.16556124202907085418701171875</LatitudeDegrees>
              <LongitudeDegrees>-6.02601866237819194793701171875</LongitudeDegrees>
            </Position>
            <AltitudeMeters>305.79998779296875</AltitudeMeters>
            <DistanceMeters>NAN</DistanceMeters>
          </Trackpoint>
          <Trackpoint>
            <Time>2019-10-08T08:45:51.000Z</Time>
            <Position>
              <LatitudeDegrees>40.16510409303009510040283203125</LatitudeDegrees>
              <LongitudeDegrees>-6.0263726301491260528564453125</LongitudeDegrees>
            </Position>
            <AltitudeMeters>305.20001220703125</AltitudeMeters>
            <DistanceMeters>NAN</DistanceMeters>
          </Trackpoint>
          <Trackpoint>
            <Time>2019-10-08T08:45:54.000Z</Time>
            <Position>
              <LatitudeDegrees>40.164927653968334197998046875</LatitudeDegrees>
              <LongitudeDegrees>-6.02650078944861888885498046875</LongitudeDegrees>
            </Position>
            <AltitudeMeters>305.399993896484375</AltitudeMeters>
            <DistanceMeters>NAN</DistanceMeters>
          </Trackpoint>
          <Trackpoint>
            <Time>2019-10-08T08:46:02.000Z</Time>
            <Position>
              <LatitudeDegrees>40.16447008587419986724853515625</LatitudeDegrees>
              <LongitudeDegrees>-6.02687126956880092620849609375</LongitudeDegrees>
            </Position>
            <AltitudeMeters>305.20001220703125</AltitudeMeters>
            <DistanceMeters>NAN</DistanceMeters>
          </Trackpoint>
          <Trackpoint>
            <Time>2019-10-08T08:46:03.000Z</Time>
            <Position>
              <LatitudeDegrees>40.1644121669232845306396484375</LatitudeDegrees>
              <LongitudeDegrees>-6.0269147716462612152099609375</LongitudeDegrees>
            </Position>
            <AltitudeMeters>305</AltitudeMeters>
            <DistanceMeters>NAN</DistanceMeters>
          </Trackpoint>
          <Trackpoint>
            <Time>2019-10-08T08:46:06.000Z</Time>
            <Position>
              <LatitudeDegrees>40.164237320423126220703125</LatitudeDegrees>
              <LongitudeDegrees>-6.02704829536378383636474609375</LongitudeDegrees>
            </Position>
            <AltitudeMeters>304.600006103515625</AltitudeMeters>
            <DistanceMeters>NAN</DistanceMeters>
          </Trackpoint>
          <Trackpoint>
            <Time>2019-10-08T08:46:14.000Z</Time>
            <Position>
              <LatitudeDegrees>40.16376449726521968841552734375</LatitudeDegrees>
              <LongitudeDegrees>-6.0274153389036655426025390625</LongitudeDegrees>
            </Position>
            <AltitudeMeters>304</AltitudeMeters>
            <DistanceMeters>NAN</DistanceMeters>
          </Trackpoint>
          <Trackpoint>
            <Time>2019-10-08T08:46:17.000Z</Time>
            <Position>
              <LatitudeDegrees>40.163582861423492431640625</LatitudeDegrees>
              <LongitudeDegrees>-6.0275585018098354339599609375</LongitudeDegrees>
            </Position>
            <AltitudeMeters>304.399993896484375</AltitudeMeters>
            <DistanceMeters>NAN</DistanceMeters>
          </Trackpoint>
          <Trackpoint>
            <Time>2019-10-08T08:46:25.000Z</Time>
            <Position>
              <LatitudeDegrees>40.16309511847794055938720703125</LatitudeDegrees>
              <LongitudeDegrees>-6.0279313288629055023193359375</LongitudeDegrees>
            </Position>
            <AltitudeMeters>304.20001220703125</AltitudeMeters>
            <DistanceMeters>NAN</DistanceMeters>
          </Trackpoint>
          <Trackpoint>
            <Time>2019-10-08T08:46:28.000Z</Time>
            <Position>
              <LatitudeDegrees>40.1629168353974819183349609375</LatitudeDegrees>
              <LongitudeDegrees>-6.0280704684555530548095703125</LongitudeDegrees>
            </Position>
            <AltitudeMeters>303.600006103515625</AltitudeMeters>
            <DistanceMeters>NAN</DistanceMeters>
          </Trackpoint>
          <Trackpoint>
            <Time>2019-10-08T08:46:32.000Z</Time>
            <Position>
              <LatitudeDegrees>40.16268038190901279449462890625</LatitudeDegrees>
              <LongitudeDegrees>-6.0282518528401851654052734375</LongitudeDegrees>
            </Position>
            <AltitudeMeters>304.600006103515625</AltitudeMeters>
            <DistanceMeters>NAN</DistanceMeters>
          </Trackpoint>
          <Trackpoint>
            <Time>2019-10-08T08:46:35.000Z</Time>
            <Position>
              <LatitudeDegrees>40.1625077985227108001708984375</LatitudeDegrees>
              <LongitudeDegrees>-6.02838621474802494049072265625</LongitudeDegrees>
            </Position>
            <AltitudeMeters>304.399993896484375</AltitudeMeters>
            <DistanceMeters>NAN</DistanceMeters>
          </Trackpoint>
          <Trackpoint>
            <Time>2019-10-08T08:46:44.000Z</Time>
            <Position>
              <LatitudeDegrees>40.1620095781981945037841796875</LatitudeDegrees>
              <LongitudeDegrees>-6.0287671722471714019775390625</LongitudeDegrees>
            </Position>
            <AltitudeMeters>304.79998779296875</AltitudeMeters>
            <DistanceMeters>NAN</DistanceMeters>
          </Trackpoint>
          <Trackpoint>
            <Time>2019-10-08T08:46:45.000Z</Time>
            <Position>
              <LatitudeDegrees>40.1619552634656429290771484375</LatitudeDegrees>
              <LongitudeDegrees>-6.02880782447755336761474609375</LongitudeDegrees>
            </Position>
            <AltitudeMeters>305</AltitudeMeters>
            <DistanceMeters>NAN</DistanceMeters>
          </Trackpoint>
          <Trackpoint>
            <Time>2019-10-08T08:46:48.000Z</Time>
            <Position>
              <LatitudeDegrees>40.161798857152462005615234375</LatitudeDegrees>
              <LongitudeDegrees>-6.028934977948665618896484375</LongitudeDegrees>
            </Position>
            <AltitudeMeters>306</AltitudeMeters>
            <DistanceMeters>NAN</DistanceMeters>
          </Trackpoint>
          <Trackpoint>
            <Time>2019-10-08T08:46:54.000Z</Time>
            <Position>
              <LatitudeDegrees>40.1615026406943798065185546875</LatitudeDegrees>
              <LongitudeDegrees>-6.02916824631392955780029296875</LongitudeDegrees>
            </Position>
            <AltitudeMeters>307</AltitudeMeters>
            <DistanceMeters>NAN</DistanceMeters>
          </Trackpoint>
          <Trackpoint>
            <Time>2019-10-08T08:47:01.000Z</Time>
            <Position>
              <LatitudeDegrees>40.16117465682327747344970703125</LatitudeDegrees>
              <LongitudeDegrees>-6.02942573837935924530029296875</LongitudeDegrees>
            </Position>
            <AltitudeMeters>308.399993896484375</AltitudeMeters>
            <DistanceMeters>NAN</DistanceMeters>
          </Trackpoint>
          <Trackpoint>
            <Time>2019-10-08T08:47:02.000Z</Time>
            <Position>
              <LatitudeDegrees>40.1611288078129291534423828125</LatitudeDegrees>
              <LongitudeDegrees>-6.0294625349342823028564453125</LongitudeDegrees>
            </Position>
            <AltitudeMeters>308.79998779296875</AltitudeMeters>
            <DistanceMeters>NAN</DistanceMeters>
          </Trackpoint>
          <Trackpoint>
            <Time>2019-10-08T08:47:08.000Z</Time>
            <Position>
              <LatitudeDegrees>40.16085966490209102630615234375</LatitudeDegrees>
              <LongitudeDegrees>-6.02966462261974811553955078125</LongitudeDegrees>
            </Position>
            <AltitudeMeters>309.600006103515625</AltitudeMeters>
            <DistanceMeters>NAN</DistanceMeters>
          </Trackpoint>
          <Trackpoint>
            <Time>2019-10-08T08:47:10.000Z</Time>
            <Position>
              <LatitudeDegrees>40.16077450476586818695068359375</LatitudeDegrees>
              <LongitudeDegrees>-6.02973754517734050750732421875</LongitudeDegrees>
            </Position>
            <AltitudeMeters>310</AltitudeMeters>
            <DistanceMeters>NAN</DistanceMeters>
          </Trackpoint>
          <Trackpoint>
            <Time>2019-10-08T08:47:13.000Z</Time>
            <Position>
              <LatitudeDegrees>40.16064584255218505859375</LatitudeDegrees>
              <LongitudeDegrees>-6.0298346914350986480712890625</LongitudeDegrees>
            </Position>
            <AltitudeMeters>310.79998779296875</AltitudeMeters>
            <DistanceMeters>NAN</DistanceMeters>
          </Trackpoint>
          <Trackpoint>
            <Time>2019-10-08T08:47:16.000Z</Time>
            <Position>
              <LatitudeDegrees>40.1605224609375</LatitudeDegrees>
              <LongitudeDegrees>-6.02992731146514415740966796875</LongitudeDegrees>
            </Position>
            <AltitudeMeters>311.399993896484375</AltitudeMeters>
            <DistanceMeters>NAN</DistanceMeters>
          </Trackpoint>
          <Trackpoint>
            <Time>2019-10-08T08:47:19.000Z</Time>
            <Position>
              <LatitudeDegrees>40.16040637157857418060302734375</LatitudeDegrees>
              <LongitudeDegrees>-6.03001867420971393585205078125</LongitudeDegrees>
            </Position>
            <AltitudeMeters>312</AltitudeMeters>
            <DistanceMeters>NAN</DistanceMeters>
          </Trackpoint>
          <Trackpoint>
            <Time>2019-10-08T08:47:23.000Z</Time>
            <Position>
              <LatitudeDegrees>40.1602528989315032958984375</LatitudeDegrees>
              <LongitudeDegrees>-6.03013719432055950164794921875</LongitudeDegrees>
            </Position>
            <AltitudeMeters>312.600006103515625</AltitudeMeters>
            <DistanceMeters>NAN</DistanceMeters>
          </Trackpoint>
          <Trackpoint>
            <Time>2019-10-08T08:47:24.000Z</Time>
            <Position>
              <LatitudeDegrees>40.1602141745388507843017578125</LatitudeDegrees>
              <LongitudeDegrees>-6.0301662795245647430419921875</LongitudeDegrees>
            </Position>
            <AltitudeMeters>313</AltitudeMeters>
            <DistanceMeters>NAN</DistanceMeters>
          </Trackpoint>
          <Trackpoint>
            <Time>2019-10-08T08:47:28.000Z</Time>
            <Position>
              <LatitudeDegrees>40.16006221063435077667236328125</LatitudeDegrees>
              <LongitudeDegrees>-6.0302842967212200164794921875</LongitudeDegrees>
            </Position>
            <AltitudeMeters>313.399993896484375</AltitudeMeters>
            <DistanceMeters>NAN</DistanceMeters>
          </Trackpoint>
          <Trackpoint>
            <Time>2019-10-08T08:47:29.000Z</Time>
            <Position>
              <LatitudeDegrees>40.16002424061298370361328125</LatitudeDegrees>
              <LongitudeDegrees>-6.03031329810619354248046875</LongitudeDegrees>
            </Position>
            <AltitudeMeters>314</AltitudeMeters>
            <DistanceMeters>NAN</DistanceMeters>
          </Trackpoint>
          <Trackpoint>
            <Time>2019-10-08T08:47:35.000Z</Time>
            <Position>
              <LatitudeDegrees>40.15979952178895473480224609375</LatitudeDegrees>
              <LongitudeDegrees>-6.0304868035018444061279296875</LongitudeDegrees>
            </Position>
            <AltitudeMeters>315.20001220703125</AltitudeMeters>
            <DistanceMeters>NAN</DistanceMeters>
          </Trackpoint>
          <Trackpoint>
            <Time>2019-10-08T08:47:37.000Z</Time>
            <Position>
              <LatitudeDegrees>40.15972383320331573486328125</LatitudeDegrees>
              <LongitudeDegrees>-6.030540280044078826904296875</LongitudeDegrees>
            </Position>
            <AltitudeMeters>315.600006103515625</AltitudeMeters>
            <DistanceMeters>NAN</DistanceMeters>
          </Trackpoint>
          <Trackpoint>
            <Time>2019-10-08T08:47:43.000Z</Time>
            <Position>
              <LatitudeDegrees>40.1595003716647624969482421875</LatitudeDegrees>
              <LongitudeDegrees>-6.0307134501636028289794921875</LongitudeDegrees>
            </Position>
            <AltitudeMeters>316.399993896484375</AltitudeMeters>
            <DistanceMeters>NAN</DistanceMeters>
          </Trackpoint>
          <Trackpoint>
            <Time>2019-10-08T08:47:46.000Z</Time>
            <Position>
              <LatitudeDegrees>40.159387551248073577880859375</LatitudeDegrees>
              <LongitudeDegrees>-6.03079584427177906036376953125</LongitudeDegrees>
            </Position>
            <AltitudeMeters>317.20001220703125</AltitudeMeters>
            <DistanceMeters>NAN</DistanceMeters>
          </Trackpoint>
          <Trackpoint>
            <Time>2019-10-08T08:47:49.000Z</Time>
            <Position>
              <LatitudeDegrees>40.15928084962069988250732421875</LatitudeDegrees>
              <LongitudeDegrees>-6.0308812558650970458984375</LongitudeDegrees>
            </Position>
            <AltitudeMeters>317.600006103515625</AltitudeMeters>
            <DistanceMeters>NAN</DistanceMeters>
          </Trackpoint>
          <Trackpoint>
            <Time>2019-10-08T08:47:56.000Z</Time>
            <Position>
              <LatitudeDegrees>40.1590289734303951263427734375</LatitudeDegrees>
              <LongitudeDegrees>-6.0310755483806133270263671875</LongitudeDegrees>
            </Position>
            <AltitudeMeters>318.600006103515625</AltitudeMeters>
            <DistanceMeters>NAN</DistanceMeters>
          </Trackpoint>
          <Trackpoint>
            <Time>2019-10-08T08:48:00.000Z</Time>
            <Position>
              <LatitudeDegrees>40.158879943192005157470703125</LatitudeDegrees>
              <LongitudeDegrees>-6.0311875306069850921630859375</LongitudeDegrees>
            </Position>
            <AltitudeMeters>318.79998779296875</AltitudeMeters>
            <DistanceMeters>NAN</DistanceMeters>
          </Trackpoint>
          <Trackpoint>
            <Time>2019-10-08T08:48:09.000Z</Time>
            <Position>
              <LatitudeDegrees>40.158551037311553955078125</LatitudeDegrees>
              <LongitudeDegrees>-6.03144527412950992584228515625</LongitudeDegrees>
            </Position>
            <AltitudeMeters>319.79998779296875</AltitudeMeters>
            <DistanceMeters>NAN</DistanceMeters>
          </Trackpoint>
          <Trackpoint>
            <Time>2019-10-08T08:48:10.000Z</Time>
            <Position>
              <LatitudeDegrees>40.15851373784244060516357421875</LatitudeDegrees>
              <LongitudeDegrees>-6.0314721800386905670166015625</LongitudeDegrees>
            </Position>
            <AltitudeMeters>320</AltitudeMeters>
            <DistanceMeters>NAN</DistanceMeters>
          </Trackpoint>
          <Trackpoint>
            <Time>2019-10-08T08:48:20.000Z</Time>
            <Position>
              <LatitudeDegrees>40.15813873149454593658447265625</LatitudeDegrees>
              <LongitudeDegrees>-6.0317595116794109344482421875</LongitudeDegrees>
            </Position>
            <AltitudeMeters>320.600006103515625</AltitudeMeters>
            <DistanceMeters>NAN</DistanceMeters>
          </Trackpoint>
          <Trackpoint>
            <Time>2019-10-08T08:48:23.000Z</Time>
            <Position>
              <LatitudeDegrees>40.15802306123077869415283203125</LatitudeDegrees>
              <LongitudeDegrees>-6.0318517126142978668212890625</LongitudeDegrees>
            </Position>
            <AltitudeMeters>321</AltitudeMeters>
            <DistanceMeters>NAN</DistanceMeters>
          </Trackpoint>
          <Trackpoint>
            <Time>2019-10-08T08:48:28.000Z</Time>
            <Position>
              <LatitudeDegrees>40.15783094801008701324462890625</LatitudeDegrees>
              <LongitudeDegrees>-6.0320022515952587127685546875</LongitudeDegrees>
            </Position>
            <AltitudeMeters>321.20001220703125</AltitudeMeters>
            <DistanceMeters>NAN</DistanceMeters>
          </Trackpoint>
          <Trackpoint>
            <Time>2019-10-08T08:48:36.000Z</Time>
            <Position>
              <LatitudeDegrees>40.15751302242279052734375</LatitudeDegrees>
              <LongitudeDegrees>-6.0322456620633602142333984375</LongitudeDegrees>
            </Position>
            <AltitudeMeters>321.20001220703125</AltitudeMeters>
            <DistanceMeters>NAN</DistanceMeters>
          </Trackpoint>
          <Trackpoint>
            <Time>2019-10-08T08:48:37.000Z</Time>
            <Position>
              <LatitudeDegrees>40.15747304074466228485107421875</LatitudeDegrees>
              <LongitudeDegrees>-6.0322785191237926483154296875</LongitudeDegrees>
            </Position>
            <AltitudeMeters>321.399993896484375</AltitudeMeters>
            <DistanceMeters>NAN</DistanceMeters>
          </Trackpoint>
          <Trackpoint>
            <Time>2019-10-08T08:48:44.000Z</Time>
            <Position>
              <LatitudeDegrees>40.15719451010227203369140625</LatitudeDegrees>
              <LongitudeDegrees>-6.032494939863681793212890625</LongitudeDegrees>
            </Position>
            <AltitudeMeters>321.399993896484375</AltitudeMeters>
            <DistanceMeters>NAN</DistanceMeters>
          </Trackpoint>
          <Trackpoint>
            <Time>2019-10-08T08:48:49.000Z</Time>
            <Position>
              <LatitudeDegrees>40.1569884829223155975341796875</LatitudeDegrees>
              <LongitudeDegrees>-6.0326543636620044708251953125</LongitudeDegrees>
            </Position>
            <AltitudeMeters>321.600006103515625</AltitudeMeters>
            <DistanceMeters>NAN</DistanceMeters>
          </Trackpoint>
          <Trackpoint>
            <Time>2019-10-08T08:48:57.000Z</Time>
            <Position>
              <LatitudeDegrees>40.156627558171749114990234375</LatitudeDegrees>
              <LongitudeDegrees>-6.03294412605464458465576171875</LongitudeDegrees>
            </Position>
            <AltitudeMeters>321.20001220703125</AltitudeMeters>
            <DistanceMeters>NAN</DistanceMeters>
          </Trackpoint>
          <Trackpoint>
            <Time>2019-10-08T08:48:58.000Z</Time>
            <Position>
              <LatitudeDegrees>40.15658221207559108734130859375</LatitudeDegrees>
              <LongitudeDegrees>-6.032982431352138519287109375</LongitudeDegrees>
            </Position>
            <AltitudeMeters>321</AltitudeMeters>
            <DistanceMeters>NAN</DistanceMeters>
          </Trackpoint>
          <Trackpoint>
            <Time>2019-10-08T08:49:05.000Z</Time>
            <Position>
              <LatitudeDegrees>40.15624425373971462249755859375</LatitudeDegrees>
              <LongitudeDegrees>-6.033245623111724853515625</LongitudeDegrees>
            </Position>
            <AltitudeMeters>320.600006103515625</AltitudeMeters>
            <DistanceMeters>NAN</DistanceMeters>
          </Trackpoint>
          <Trackpoint>
            <Time>2019-10-08T08:49:09.000Z</Time>
            <Position>
              <LatitudeDegrees>40.15604543499648571014404296875</LatitudeDegrees>
              <LongitudeDegrees>-6.0334050469100475311279296875</LongitudeDegrees>
            </Position>
            <AltitudeMeters>320.399993896484375</AltitudeMeters>
            <DistanceMeters>NAN</DistanceMeters>
          </Trackpoint>
          <Trackpoint>
            <Time>2019-10-08T08:49:13.000Z</Time>
            <Position>
              <LatitudeDegrees>40.15583286993205547332763671875</LatitudeDegrees>
              <LongitudeDegrees>-6.03357863612473011016845703125</LongitudeDegrees>
            </Position>
            <AltitudeMeters>320</AltitudeMeters>
            <DistanceMeters>NAN</DistanceMeters>
          </Trackpoint>
          <Trackpoint>
            <Time>2019-10-08T08:49:14.000Z</Time>
            <Position>
              <LatitudeDegrees>40.15577855519950389862060546875</LatitudeDegrees>
              <LongitudeDegrees>-6.03362381458282470703125</LongitudeDegrees>
            </Position>
            <AltitudeMeters>320</AltitudeMeters>
            <DistanceMeters>NAN</DistanceMeters>
          </Trackpoint>
          <Trackpoint>
            <Time>2019-10-08T08:49:18.000Z</Time>
            <Position>
              <LatitudeDegrees>40.15556037425994873046875</LatitudeDegrees>
              <LongitudeDegrees>-6.03379790671169757843017578125</LongitudeDegrees>
            </Position>
            <AltitudeMeters>319.20001220703125</AltitudeMeters>
            <DistanceMeters>NAN</DistanceMeters>
          </Trackpoint>
          <Trackpoint>
            <Time>2019-10-08T08:49:19.000Z</Time>
            <Position>
              <LatitudeDegrees>40.1555053889751434326171875</LatitudeDegrees>
              <LongitudeDegrees>-6.03384065441787242889404296875</LongitudeDegrees>
            </Position>
            <AltitudeMeters>319</AltitudeMeters>
            <DistanceMeters>NAN</DistanceMeters>
          </Trackpoint>
          <Trackpoint>
            <Time>2019-10-08T08:49:21.000Z</Time>
            <Position>
              <LatitudeDegrees>40.1553918980062007904052734375</LatitudeDegrees>
              <LongitudeDegrees>-6.03392765857279300689697265625</LongitudeDegrees>
            </Position>
            <AltitudeMeters>318.79998779296875</AltitudeMeters>
            <DistanceMeters>NAN</DistanceMeters>
          </Trackpoint>
          <Trackpoint>
            <Time>2019-10-08T08:49:29.000Z</Time>
            <Position>
              <LatitudeDegrees>40.1549305580556392669677734375</LatitudeDegrees>
              <LongitudeDegrees>-6.0342915169894695281982421875</LongitudeDegrees>
            </Position>
            <AltitudeMeters>318.20001220703125</AltitudeMeters>
            <DistanceMeters>NAN</DistanceMeters>
          </Trackpoint>
          <Trackpoint>
            <Time>2019-10-08T08:49:30.000Z</Time>
            <Position>
              <LatitudeDegrees>40.15487213619053363800048828125</LatitudeDegrees>
              <LongitudeDegrees>-6.03433753363788127899169921875</LongitudeDegrees>
            </Position>
            <AltitudeMeters>318</AltitudeMeters>
            <DistanceMeters>NAN</DistanceMeters>
          </Trackpoint>
          <Trackpoint>
            <Time>2019-10-08T08:49:33.000Z</Time>
            <Position>
              <LatitudeDegrees>40.15469737350940704345703125</LatitudeDegrees>
              <LongitudeDegrees>-6.0344739072024822235107421875</LongitudeDegrees>
            </Position>
            <AltitudeMeters>317.79998779296875</AltitudeMeters>
            <DistanceMeters>NAN</DistanceMeters>
          </Trackpoint>
          <Trackpoint>
            <Time>2019-10-08T08:49:41.000Z</Time>
            <Position>
              <LatitudeDegrees>40.15423871576786041259765625</LatitudeDegrees>
              <LongitudeDegrees>-6.0348393581807613372802734375</LongitudeDegrees>
            </Position>
            <AltitudeMeters>318</AltitudeMeters>
            <DistanceMeters>NAN</DistanceMeters>
          </Trackpoint>
          <Trackpoint>
            <Time>2019-10-08T08:49:49.000Z</Time>
            <Position>
              <LatitudeDegrees>40.15377276577055454254150390625</LatitudeDegrees>
              <LongitudeDegrees>-6.03520975448191165924072265625</LongitudeDegrees>
            </Position>
            <AltitudeMeters>318.399993896484375</AltitudeMeters>
            <DistanceMeters>NAN</DistanceMeters>
          </Trackpoint>
          <Trackpoint>
            <Time>2019-10-08T08:49:50.000Z</Time>
            <Position>
              <LatitudeDegrees>40.153714679181575775146484375</LatitudeDegrees>
              <LongitudeDegrees>-6.03525459766387939453125</LongitudeDegrees>
            </Position>
            <AltitudeMeters>318.20001220703125</AltitudeMeters>
            <DistanceMeters>NAN</DistanceMeters>
          </Trackpoint>
          <Trackpoint>
            <Time>2019-10-08T08:49:57.000Z</Time>
            <Position>
              <LatitudeDegrees>40.1532997749745845794677734375</LatitudeDegrees>
              <LongitudeDegrees>-6.03558040224015712738037109375</LongitudeDegrees>
            </Position>
            <AltitudeMeters>318.20001220703125</AltitudeMeters>
            <DistanceMeters>NAN</DistanceMeters>
          </Trackpoint>
          <Trackpoint>
            <Time>2019-10-08T08:50:02.000Z</Time>
            <Position>
              <LatitudeDegrees>40.15300565399229526519775390625</LatitudeDegrees>
              <LongitudeDegrees>-6.03581258095800876617431640625</LongitudeDegrees>
            </Position>
            <AltitudeMeters>318.20001220703125</AltitudeMeters>
            <DistanceMeters>NAN</DistanceMeters>
          </Trackpoint>
          <Trackpoint>
            <Time>2019-10-08T08:50:10.000Z</Time>
            <Position>
              <LatitudeDegrees>40.1525343395769596099853515625</LatitudeDegrees>
              <LongitudeDegrees>-6.036188341677188873291015625</LongitudeDegrees>
            </Position>
            <AltitudeMeters>317.79998779296875</AltitudeMeters>
            <DistanceMeters>NAN</DistanceMeters>
          </Trackpoint>
          <Trackpoint>
            <Time>2019-10-08T08:50:15.000Z</Time>
            <Position>
              <LatitudeDegrees>40.15223720110952854156494140625</LatitudeDegrees>
              <LongitudeDegrees>-6.03642010129988193511962890625</LongitudeDegrees>
            </Position>
            <AltitudeMeters>318.600006103515625</AltitudeMeters>
            <DistanceMeters>NAN</DistanceMeters>
          </Trackpoint>
          <Trackpoint>
            <Time>2019-10-08T08:50:23.000Z</Time>
            <Position>
              <LatitudeDegrees>40.15176731161773204803466796875</LatitudeDegrees>
              <LongitudeDegrees>-6.0368049144744873046875</LongitudeDegrees>
            </Position>
            <AltitudeMeters>318.20001220703125</AltitudeMeters>
            <DistanceMeters>NAN</DistanceMeters>
          </Trackpoint>
          <Trackpoint>
            <Time>2019-10-08T08:50:25.000Z</Time>
            <Position>
              <LatitudeDegrees>40.15164962969720363616943359375</LatitudeDegrees>
              <LongitudeDegrees>-6.03690071962773799896240234375</LongitudeDegrees>
            </Position>
            <AltitudeMeters>318</AltitudeMeters>
            <DistanceMeters>NAN</DistanceMeters>
          </Trackpoint>
          <Trackpoint>
            <Time>2019-10-08T08:50:33.000Z</Time>
            <Position>
              <LatitudeDegrees>40.15118141658604145050048828125</LatitudeDegrees>
              <LongitudeDegrees>-6.0372729599475860595703125</LongitudeDegrees>
            </Position>
            <AltitudeMeters>318.399993896484375</AltitudeMeters>
            <DistanceMeters>NAN</DistanceMeters>
          </Trackpoint>
          <Trackpoint>
            <Time>2019-10-08T08:50:34.000Z</Time>
            <Position>
              <LatitudeDegrees>40.15112441964447498321533203125</LatitudeDegrees>
              <LongitudeDegrees>-6.03731864131987094879150390625</LongitudeDegrees>
            </Position>
            <AltitudeMeters>318.399993896484375</AltitudeMeters>
            <DistanceMeters>NAN</DistanceMeters>
          </Trackpoint>
          <Trackpoint>
            <Time>2019-10-08T08:50:42.000Z</Time>
            <Position>
              <LatitudeDegrees>40.1506457291543483734130859375</LatitudeDegrees>
              <LongitudeDegrees>-6.03770270012319087982177734375</LongitudeDegrees>
            </Position>
            <AltitudeMeters>317.399993896484375</AltitudeMeters>
            <DistanceMeters>NAN</DistanceMeters>
          </Trackpoint>
          <Trackpoint>
            <Time>2019-10-08T08:50:45.000Z</Time>
            <Position>
              <LatitudeDegrees>40.1504626683890819549560546875</LatitudeDegrees>
              <LongitudeDegrees>-6.03785474784672260284423828125</LongitudeDegrees>
            </Position>
            <AltitudeMeters>317.20001220703125</AltitudeMeters>
            <DistanceMeters>NAN</DistanceMeters>
          </Trackpoint>
          <Trackpoint>
            <Time>2019-10-08T08:50:53.000Z</Time>
            <Position>
              <LatitudeDegrees>40.1499835588037967681884765625</LatitudeDegrees>
              <LongitudeDegrees>-6.0382385551929473876953125</LongitudeDegrees>
            </Position>
            <AltitudeMeters>317.399993896484375</AltitudeMeters>
            <DistanceMeters>NAN</DistanceMeters>
          </Trackpoint>
          <Trackpoint>
            <Time>2019-10-08T08:50:54.000Z</Time>
            <Position>
              <LatitudeDegrees>40.1499238796532154083251953125</LatitudeDegrees>
              <LongitudeDegrees>-6.038285829126834869384765625</LongitudeDegrees>
            </Position>
            <AltitudeMeters>317.79998779296875</AltitudeMeters>
            <DistanceMeters>NAN</DistanceMeters>
          </Trackpoint>
          <Trackpoint>
            <Time>2019-10-08T08:51:02.000Z</Time>
            <Position>
              <LatitudeDegrees>40.14944518916308879852294921875</LatitudeDegrees>
              <LongitudeDegrees>-6.03866477496922016143798828125</LongitudeDegrees>
            </Position>
            <AltitudeMeters>317.399993896484375</AltitudeMeters>
            <DistanceMeters>NAN</DistanceMeters>
          </Trackpoint>
          <Trackpoint>
            <Time>2019-10-08T08:51:05.000Z</Time>
            <Position>
              <LatitudeDegrees>40.1492660678923130035400390625</LatitudeDegrees>
              <LongitudeDegrees>-6.03880475275218486785888671875</LongitudeDegrees>
            </Position>
            <AltitudeMeters>317.600006103515625</AltitudeMeters>
            <DistanceMeters>NAN</DistanceMeters>
          </Trackpoint>
          <Trackpoint>
            <Time>2019-10-08T08:51:13.000Z</Time>
            <Position>
              <LatitudeDegrees>40.1487960107624530792236328125</LatitudeDegrees>
              <LongitudeDegrees>-6.03918244130909442901611328125</LongitudeDegrees>
            </Position>
            <AltitudeMeters>317.79998779296875</AltitudeMeters>
            <DistanceMeters>NAN</DistanceMeters>
          </Trackpoint>
          <Trackpoint>
            <Time>2019-10-08T08:51:17.000Z</Time>
            <Position>
              <LatitudeDegrees>40.14856240712106227874755859375</LatitudeDegrees>
              <LongitudeDegrees>-6.0393726266920566558837890625</LongitudeDegrees>
            </Position>
            <AltitudeMeters>318</AltitudeMeters>
            <DistanceMeters>NAN</DistanceMeters>
          </Trackpoint>
          <Trackpoint>
            <Time>2019-10-08T08:51:23.000Z</Time>
            <Position>
              <LatitudeDegrees>40.14821053482592105865478515625</LatitudeDegrees>
              <LongitudeDegrees>-6.0396599583327770233154296875</LongitudeDegrees>
            </Position>
            <AltitudeMeters>318</AltitudeMeters>
            <DistanceMeters>NAN</DistanceMeters>
          </Trackpoint>
          <Trackpoint>
            <Time>2019-10-08T08:51:25.000Z</Time>
            <Position>
              <LatitudeDegrees>40.14809285290539264678955078125</LatitudeDegrees>
              <LongitudeDegrees>-6.0397508181631565093994140625</LongitudeDegrees>
            </Position>
            <AltitudeMeters>318.399993896484375</AltitudeMeters>
            <DistanceMeters>NAN</DistanceMeters>
          </Trackpoint>
          <Trackpoint>
            <Time>2019-10-08T08:51:33.000Z</Time>
            <Position>
              <LatitudeDegrees>40.1476057805120944976806640625</LatitudeDegrees>
              <LongitudeDegrees>-6.04009254835546016693115234375</LongitudeDegrees>
            </Position>
            <AltitudeMeters>318.399993896484375</AltitudeMeters>
            <DistanceMeters>NAN</DistanceMeters>
          </Trackpoint>
          <Trackpoint>
            <Time>2019-10-08T08:51:36.000Z</Time>
            <Position>
              <LatitudeDegrees>40.1474104821681976318359375</LatitudeDegrees>
              <LongitudeDegrees>-6.04021106846630573272705078125</LongitudeDegrees>
            </Position>
            <AltitudeMeters>318</AltitudeMeters>
            <DistanceMeters>NAN</DistanceMeters>
          </Trackpoint>
          <Trackpoint>
            <Time>2019-10-08T08:51:44.000Z</Time>
            <Position>
              <LatitudeDegrees>40.1468782313168048858642578125</LatitudeDegrees>
              <LongitudeDegrees>-6.0405259765684604644775390625</LongitudeDegrees>
            </Position>
            <AltitudeMeters>317.79998779296875</AltitudeMeters>
            <DistanceMeters>NAN</DistanceMeters>
          </Trackpoint>
          <Trackpoint>
            <Time>2019-10-08T08:51:46.000Z</Time>
            <Position>
              <LatitudeDegrees>40.1467454619705677032470703125</LatitudeDegrees>
              <LongitudeDegrees>-6.0406051017343997955322265625</LongitudeDegrees>
            </Position>
            <AltitudeMeters>317.399993896484375</AltitudeMeters>
            <DistanceMeters>NAN</DistanceMeters>
          </Trackpoint>
          <Trackpoint>
            <Time>2019-10-08T08:51:54.000Z</Time>
            <Position>
              <LatitudeDegrees>40.1462251134216785430908203125</LatitudeDegrees>
              <LongitudeDegrees>-6.04091313667595386505126953125</LongitudeDegrees>
            </Position>
            <AltitudeMeters>317.399993896484375</AltitudeMeters>
            <DistanceMeters>NAN</DistanceMeters>
          </Trackpoint>
          <Trackpoint>
            <Time>2019-10-08T08:51:59.000Z</Time>
            <Position>
              <LatitudeDegrees>40.14590450562536716461181640625</LatitudeDegrees>
              <LongitudeDegrees>-6.0411140508949756622314453125</LongitudeDegrees>
            </Position>
            <AltitudeMeters>317.399993896484375</AltitudeMeters>
            <DistanceMeters>NAN</DistanceMeters>
          </Trackpoint>
          <Trackpoint>
            <Time>2019-10-08T08:52:07.000Z</Time>
            <Position>
              <LatitudeDegrees>40.14540242962539196014404296875</LatitudeDegrees>
              <LongitudeDegrees>-6.0414268635213375091552734375</LongitudeDegrees>
            </Position>
            <AltitudeMeters>317.79998779296875</AltitudeMeters>
            <DistanceMeters>NAN</DistanceMeters>
          </Trackpoint>
          <Trackpoint>
            <Time>2019-10-08T08:52:10.000Z</Time>
            <Position>
              <LatitudeDegrees>40.145212076604366302490234375</LatitudeDegrees>
              <LongitudeDegrees>-6.04154982604086399078369140625</LongitudeDegrees>
            </Position>
            <AltitudeMeters>317.79998779296875</AltitudeMeters>
            <DistanceMeters>NAN</DistanceMeters>
          </Trackpoint>
          <Trackpoint>
            <Time>2019-10-08T08:52:18.000Z</Time>
            <Position>
              <LatitudeDegrees>40.14469734393060207366943359375</LatitudeDegrees>
              <LongitudeDegrees>-6.04186582379043102264404296875</LongitudeDegrees>
            </Position>
            <AltitudeMeters>317.399993896484375</AltitudeMeters>
            <DistanceMeters>NAN</DistanceMeters>
          </Trackpoint>
          <Trackpoint>
            <Time>2019-10-08T08:52:20.000Z</Time>
            <Position>
              <LatitudeDegrees>40.14456641860306262969970703125</LatitudeDegrees>
              <LongitudeDegrees>-6.04194193147122859954833984375</LongitudeDegrees>
            </Position>
            <AltitudeMeters>317.600006103515625</AltitudeMeters>
            <DistanceMeters>NAN</DistanceMeters>
          </Trackpoint>
          <Trackpoint>
            <Time>2019-10-08T08:52:28.000Z</Time>
            <Position>
              <LatitudeDegrees>40.14404975809156894683837890625</LatitudeDegrees>
              <LongitudeDegrees>-6.04224954731762409210205078125</LongitudeDegrees>
            </Position>
            <AltitudeMeters>318</AltitudeMeters>
            <DistanceMeters>NAN</DistanceMeters>
          </Trackpoint>
          <Trackpoint>
            <Time>2019-10-08T08:52:32.000Z</Time>
            <Position>
              <LatitudeDegrees>40.14379377476871013641357421875</LatitudeDegrees>
              <LongitudeDegrees>-6.04240142740309238433837890625</LongitudeDegrees>
            </Position>
            <AltitudeMeters>318.20001220703125</AltitudeMeters>
            <DistanceMeters>NAN</DistanceMeters>
          </Trackpoint>
          <Trackpoint>
            <Time>2019-10-08T08:52:40.000Z</Time>
            <Position>
              <LatitudeDegrees>40.14328365214169025421142578125</LatitudeDegrees>
              <LongitudeDegrees>-6.04270569048821926116943359375</LongitudeDegrees>
            </Position>
            <AltitudeMeters>318.600006103515625</AltitudeMeters>
            <DistanceMeters>NAN</DistanceMeters>
          </Trackpoint>
          <Trackpoint>
            <Time>2019-10-08T08:52:43.000Z</Time>
            <Position>
              <LatitudeDegrees>40.1430948078632354736328125</LatitudeDegrees>
              <LongitudeDegrees>-6.04281834326684474945068359375</LongitudeDegrees>
            </Position>
            <AltitudeMeters>318.79998779296875</AltitudeMeters>
            <DistanceMeters>NAN</DistanceMeters>
          </Trackpoint>
          <Trackpoint>
            <Time>2019-10-08T08:52:44.000Z</Time>
            <Position>
              <LatitudeDegrees>40.1430319435894489288330078125</LatitudeDegrees>
              <LongitudeDegrees>-6.0428551398217678070068359375</LongitudeDegrees>
            </Position>
            <AltitudeMeters>319.20001220703125</AltitudeMeters>
            <DistanceMeters>NAN</DistanceMeters>
          </Trackpoint>
          <Trackpoint>
            <Time>2019-10-08T08:52:52.000Z</Time>
            <Position>
              <LatitudeDegrees>40.14252928085625171661376953125</LatitudeDegrees>
              <LongitudeDegrees>-6.04314305819571018218994140625</LongitudeDegrees>
            </Position>
            <AltitudeMeters>319</AltitudeMeters>
            <DistanceMeters>NAN</DistanceMeters>
          </Trackpoint>
          <Trackpoint>
            <Time>2019-10-08T08:52:55.000Z</Time>
            <Position>
              <LatitudeDegrees>40.14234806410968303680419921875</LatitudeDegrees>
              <LongitudeDegrees>-6.043255962431430816650390625</LongitudeDegrees>
            </Position>
            <AltitudeMeters>319.20001220703125</AltitudeMeters>
            <DistanceMeters>NAN</DistanceMeters>
          </Trackpoint>
          <Trackpoint>
            <Time>2019-10-08T08:53:03.000Z</Time>
            <Position>
              <LatitudeDegrees>40.1418690383434295654296875</LatitudeDegrees>
              <LongitudeDegrees>-6.043548323214054107666015625</LongitudeDegrees>
            </Position>
            <AltitudeMeters>320.399993896484375</AltitudeMeters>
            <DistanceMeters>NAN</DistanceMeters>
          </Trackpoint>
          <Trackpoint>
            <Time>2019-10-08T08:53:04.000Z</Time>
            <Position>
              <LatitudeDegrees>40.14181145466864109039306640625</LatitudeDegrees>
              <LongitudeDegrees>-6.04358444921672344207763671875</LongitudeDegrees>
            </Position>
            <AltitudeMeters>320</AltitudeMeters>
            <DistanceMeters>NAN</DistanceMeters>
          </Trackpoint>
          <Trackpoint>
            <Time>2019-10-08T08:53:13.000Z</Time>
            <Position>
              <LatitudeDegrees>40.1413071155548095703125</LatitudeDegrees>
              <LongitudeDegrees>-6.04388871230185031890869140625</LongitudeDegrees>
            </Position>
            <AltitudeMeters>321.20001220703125</AltitudeMeters>
            <DistanceMeters>NAN</DistanceMeters>
          </Trackpoint>
          <Trackpoint>
            <Time>2019-10-08T08:53:14.000Z</Time>
            <Position>
              <LatitudeDegrees>40.141252465546131134033203125</LatitudeDegrees>
              <LongitudeDegrees>-6.04391888715326786041259765625</LongitudeDegrees>
            </Position>
            <AltitudeMeters>321.399993896484375</AltitudeMeters>
            <DistanceMeters>NAN</DistanceMeters>
          </Trackpoint>
          <Trackpoint>
            <Time>2019-10-08T08:53:15.000Z</Time>
            <Position>
              <LatitudeDegrees>40.1411999948322772979736328125</LatitudeDegrees>
              <LongitudeDegrees>-6.043952666223049163818359375</LongitudeDegrees>
            </Position>
            <AltitudeMeters>321.79998779296875</AltitudeMeters>
            <DistanceMeters>NAN</DistanceMeters>
          </Trackpoint>
          <Trackpoint>
            <Time>2019-10-08T08:53:20.000Z</Time>
            <Position>
              <LatitudeDegrees>40.140933953225612640380859375</LatitudeDegrees>
              <LongitudeDegrees>-6.04413698427379131317138671875</LongitudeDegrees>
            </Position>
            <AltitudeMeters>322</AltitudeMeters>
            <DistanceMeters>NAN</DistanceMeters>
          </Trackpoint>
          <Trackpoint>
            <Time>2019-10-08T08:53:29.000Z</Time>
            <Position>
              <LatitudeDegrees>40.14043598435819149017333984375</LatitudeDegrees>
              <LongitudeDegrees>-6.0445070452988147735595703125</LongitudeDegrees>
            </Position>
            <AltitudeMeters>322</AltitudeMeters>
            <DistanceMeters>NAN</DistanceMeters>
          </Trackpoint>
          <Trackpoint>
            <Time>2019-10-08T08:53:30.000Z</Time>
            <Position>
              <LatitudeDegrees>40.14037949033081531524658203125</LatitudeDegrees>
              <LongitudeDegrees>-6.04455406777560710906982421875</LongitudeDegrees>
            </Position>
            <AltitudeMeters>321.600006103515625</AltitudeMeters>
            <DistanceMeters>NAN</DistanceMeters>
          </Trackpoint>
          <Trackpoint>
            <Time>2019-10-08T08:53:34.000Z</Time>
            <Position>
              <LatitudeDegrees>40.1401435397565364837646484375</LatitudeDegrees>
              <LongitudeDegrees>-6.0447474382817745208740234375</LongitudeDegrees>
            </Position>
            <AltitudeMeters>320.79998779296875</AltitudeMeters>
            <DistanceMeters>NAN</DistanceMeters>
          </Trackpoint>
          <Trackpoint>
            <Time>2019-10-08T08:53:36.000Z</Time>
            <Position>
              <LatitudeDegrees>40.1400198228657245635986328125</LatitudeDegrees>
              <LongitudeDegrees>-6.04485397227108478546142578125</LongitudeDegrees>
            </Position>
            <AltitudeMeters>320.399993896484375</AltitudeMeters>
            <DistanceMeters>NAN</DistanceMeters>
          </Trackpoint>
          <Trackpoint>
            <Time>2019-10-08T08:53:39.000Z</Time>
            <Position>
              <LatitudeDegrees>40.139823518693447113037109375</LatitudeDegrees>
              <LongitudeDegrees>-6.0450247116386890411376953125</LongitudeDegrees>
            </Position>
            <AltitudeMeters>319.20001220703125</AltitudeMeters>
            <DistanceMeters>NAN</DistanceMeters>
          </Trackpoint>
          <Trackpoint>
            <Time>2019-10-08T08:53:42.000Z</Time>
            <Position>
              <LatitudeDegrees>40.1396127976477146148681640625</LatitudeDegrees>
              <LongitudeDegrees>-6.04520232416689395904541015625</LongitudeDegrees>
            </Position>
            <AltitudeMeters>318.20001220703125</AltitudeMeters>
            <DistanceMeters>NAN</DistanceMeters>
          </Trackpoint>
          <Trackpoint>
            <Time>2019-10-08T08:53:43.000Z</Time>
            <Position>
              <LatitudeDegrees>40.139539204537868499755859375</LatitudeDegrees>
              <LongitudeDegrees>-6.04526518844068050384521484375</LongitudeDegrees>
            </Position>
            <AltitudeMeters>317.79998779296875</AltitudeMeters>
            <DistanceMeters>NAN</DistanceMeters>
          </Trackpoint>
          <Trackpoint>
            <Time>2019-10-08T08:53:45.000Z</Time>
            <Position>
              <LatitudeDegrees>40.13938891701400279998779296875</LatitudeDegrees>
              <LongitudeDegrees>-6.04538706131279468536376953125</LongitudeDegrees>
            </Position>
            <AltitudeMeters>317</AltitudeMeters>
            <DistanceMeters>NAN</DistanceMeters>
          </Trackpoint>
          <Trackpoint>
            <Time>2019-10-08T08:53:47.000Z</Time>
            <Position>
              <LatitudeDegrees>40.139239132404327392578125</LatitudeDegrees>
              <LongitudeDegrees>-6.04551874101161956787109375</LongitudeDegrees>
            </Position>
            <AltitudeMeters>315.600006103515625</AltitudeMeters>
            <DistanceMeters>NAN</DistanceMeters>
          </Trackpoint>
          <Trackpoint>
            <Time>2019-10-08T08:53:50.000Z</Time>
            <Position>
              <LatitudeDegrees>40.13901743106544017791748046875</LatitudeDegrees>
              <LongitudeDegrees>-6.04571345262229442596435546875</LongitudeDegrees>
            </Position>
            <AltitudeMeters>314.79998779296875</AltitudeMeters>
            <DistanceMeters>NAN</DistanceMeters>
          </Trackpoint>
          <Trackpoint>
            <Time>2019-10-08T08:53:51.000Z</Time>
            <Position>
              <LatitudeDegrees>40.13894618488848209381103515625</LatitudeDegrees>
              <LongitudeDegrees>-6.04577899910509586334228515625</LongitudeDegrees>
            </Position>
            <AltitudeMeters>314.600006103515625</AltitudeMeters>
            <DistanceMeters>NAN</DistanceMeters>
          </Trackpoint>
          <Trackpoint>
            <Time>2019-10-08T08:53:56.000Z</Time>
            <Position>
              <LatitudeDegrees>40.13859448023140430450439453125</LatitudeDegrees>
              <LongitudeDegrees>-6.04610019363462924957275390625</LongitudeDegrees>
            </Position>
            <AltitudeMeters>313.399993896484375</AltitudeMeters>
            <DistanceMeters>NAN</DistanceMeters>
          </Trackpoint>
          <Trackpoint>
            <Time>2019-10-08T08:53:59.000Z</Time>
            <Position>
              <LatitudeDegrees>40.138391889631748199462890625</LatitudeDegrees>
              <LongitudeDegrees>-6.04628778062760829925537109375</LongitudeDegrees>
            </Position>
            <AltitudeMeters>313.399993896484375</AltitudeMeters>
            <DistanceMeters>NAN</DistanceMeters>
          </Trackpoint>
          <Trackpoint>
            <Time>2019-10-08T08:54:02.000Z</Time>
            <Position>
              <LatitudeDegrees>40.1381892152130603790283203125</LatitudeDegrees>
              <LongitudeDegrees>-6.046471260488033294677734375</LongitudeDegrees>
            </Position>
            <AltitudeMeters>312.600006103515625</AltitudeMeters>
            <DistanceMeters>NAN</DistanceMeters>
          </Trackpoint>
          <Trackpoint>
            <Time>2019-10-08T08:54:04.000Z</Time>
            <Position>
              <LatitudeDegrees>40.13805803842842578887939453125</LatitudeDegrees>
              <LongitudeDegrees>-6.04659170843660831451416015625</LongitudeDegrees>
            </Position>
            <AltitudeMeters>312.20001220703125</AltitudeMeters>
            <DistanceMeters>NAN</DistanceMeters>
          </Trackpoint>
          <Trackpoint>
            <Time>2019-10-08T08:54:08.000Z</Time>
            <Position>
              <LatitudeDegrees>40.13780406676232814788818359375</LatitudeDegrees>
              <LongitudeDegrees>-6.04682422243058681488037109375</LongitudeDegrees>
            </Position>
            <AltitudeMeters>311.79998779296875</AltitudeMeters>
            <DistanceMeters>NAN</DistanceMeters>
          </Trackpoint>
          <Trackpoint>
            <Time>2019-10-08T08:54:10.000Z</Time>
            <Position>
              <LatitudeDegrees>40.1376769132912158966064453125</LatitudeDegrees>
              <LongitudeDegrees>-6.046939305961132049560546875</LongitudeDegrees>
            </Position>
            <AltitudeMeters>311.79998779296875</AltitudeMeters>
            <DistanceMeters>NAN</DistanceMeters>
          </Trackpoint>
          <Trackpoint>
            <Time>2019-10-08T08:54:11.000Z</Time>
            <Position>
              <LatitudeDegrees>40.13761346228420734405517578125</LatitudeDegrees>
              <LongitudeDegrees>-6.0469998233020305633544921875</LongitudeDegrees>
            </Position>
            <AltitudeMeters>311.600006103515625</AltitudeMeters>
            <DistanceMeters>NAN</DistanceMeters>
          </Trackpoint>
          <Trackpoint>
            <Time>2019-10-08T08:54:12.000Z</Time>
            <Position>
              <LatitudeDegrees>40.13754707761108875274658203125</LatitudeDegrees>
              <LongitudeDegrees>-6.0470598377287387847900390625</LongitudeDegrees>
            </Position>
            <AltitudeMeters>311</AltitudeMeters>
            <DistanceMeters>NAN</DistanceMeters>
          </Trackpoint>
          <Trackpoint>
            <Time>2019-10-08T08:54:14.000Z</Time>
            <Position>
              <LatitudeDegrees>40.13741095550358295440673828125</LatitudeDegrees>
              <LongitudeDegrees>-6.04718171060085296630859375</LongitudeDegrees>
            </Position>
            <AltitudeMeters>309.600006103515625</AltitudeMeters>
            <DistanceMeters>NAN</DistanceMeters>
          </Trackpoint>
          <Trackpoint>
            <Time>2019-10-08T08:54:16.000Z</Time>
            <Position>
              <LatitudeDegrees>40.13727047480642795562744140625</LatitudeDegrees>
              <LongitudeDegrees>-6.0473049245774745941162109375</LongitudeDegrees>
            </Position>
            <AltitudeMeters>308.79998779296875</AltitudeMeters>
            <DistanceMeters>NAN</DistanceMeters>
          </Trackpoint>
          <Trackpoint>
            <Time>2019-10-08T08:54:17.000Z</Time>
            <Position>
              <LatitudeDegrees>40.1372008211910724639892578125</LatitudeDegrees>
              <LongitudeDegrees>-6.04736804030835628509521484375</LongitudeDegrees>
            </Position>
            <AltitudeMeters>308.20001220703125</AltitudeMeters>
            <DistanceMeters>NAN</DistanceMeters>
          </Trackpoint>
          <Trackpoint>
            <Time>2019-10-08T08:54:20.000Z</Time>
            <Position>
              <LatitudeDegrees>40.13698884285986423492431640625</LatitudeDegrees>
              <LongitudeDegrees>-6.04755361564457416534423828125</LongitudeDegrees>
            </Position>
            <AltitudeMeters>308.20001220703125</AltitudeMeters>
            <DistanceMeters>NAN</DistanceMeters>
          </Trackpoint>
          <Trackpoint>
            <Time>2019-10-08T08:54:22.000Z</Time>
            <Position>
              <LatitudeDegrees>40.1368420757353305816650390625</LatitudeDegrees>
              <LongitudeDegrees>-6.04767196811735630035400390625</LongitudeDegrees>
            </Position>
            <AltitudeMeters>307.600006103515625</AltitudeMeters>
            <DistanceMeters>NAN</DistanceMeters>
          </Trackpoint>
          <Trackpoint>
            <Time>2019-10-08T08:54:23.000Z</Time>
            <Position>
              <LatitudeDegrees>40.13676471076905727386474609375</LatitudeDegrees>
              <LongitudeDegrees>-6.0477255284786224365234375</LongitudeDegrees>
            </Position>
            <AltitudeMeters>307.20001220703125</AltitudeMeters>
            <DistanceMeters>NAN</DistanceMeters>
          </Trackpoint>
          <Trackpoint>
            <Time>2019-10-08T08:54:25.000Z</Time>
            <Position>
              <LatitudeDegrees>40.1366063766181468963623046875</LatitudeDegrees>
              <LongitudeDegrees>-6.04782946407794952392578125</LongitudeDegrees>
            </Position>
            <AltitudeMeters>306</AltitudeMeters>
            <DistanceMeters>NAN</DistanceMeters>
          </Trackpoint>
          <Trackpoint>
            <Time>2019-10-08T08:54:27.000Z</Time>
            <Position>
              <LatitudeDegrees>40.1364384032785892486572265625</LatitudeDegrees>
              <LongitudeDegrees>-6.04792292229831218719482421875</LongitudeDegrees>
            </Position>
            <AltitudeMeters>304.600006103515625</AltitudeMeters>
            <DistanceMeters>NAN</DistanceMeters>
          </Trackpoint>
          <Trackpoint>
            <Time>2019-10-08T08:54:29.000Z</Time>
            <Position>
              <LatitudeDegrees>40.1362603716552257537841796875</LatitudeDegrees>
              <LongitudeDegrees>-6.047994084656238555908203125</LongitudeDegrees>
            </Position>
            <AltitudeMeters>303.20001220703125</AltitudeMeters>
            <DistanceMeters>NAN</DistanceMeters>
          </Trackpoint>
          <Trackpoint>
            <Time>2019-10-08T08:54:30.000Z</Time>
            <Position>
              <LatitudeDegrees>40.13616867363452911376953125</LatitudeDegrees>
              <LongitudeDegrees>-6.04802417568862438201904296875</LongitudeDegrees>
            </Position>
            <AltitudeMeters>302.79998779296875</AltitudeMeters>
            <DistanceMeters>NAN</DistanceMeters>
          </Trackpoint>
          <Trackpoint>
            <Time>2019-10-08T08:54:32.000Z</Time>
            <Position>
              <LatitudeDegrees>40.1359815895557403564453125</LatitudeDegrees>
              <LongitudeDegrees>-6.04806675575673580169677734375</LongitudeDegrees>
            </Position>
            <AltitudeMeters>301.600006103515625</AltitudeMeters>
            <DistanceMeters>NAN</DistanceMeters>
          </Trackpoint>
          <Trackpoint>
            <Time>2019-10-08T08:54:34.000Z</Time>
            <Position>
              <LatitudeDegrees>40.13578922487795352935791015625</LatitudeDegrees>
              <LongitudeDegrees>-6.048091314733028411865234375</LongitudeDegrees>
            </Position>
            <AltitudeMeters>300.399993896484375</AltitudeMeters>
            <DistanceMeters>NAN</DistanceMeters>
          </Trackpoint>
          <Trackpoint>
            <Time>2019-10-08T08:54:35.000Z</Time>
            <Position>
              <LatitudeDegrees>40.1356907375156879425048828125</LatitudeDegrees>
              <LongitudeDegrees>-6.0481005348265171051025390625</LongitudeDegrees>
            </Position>
            <AltitudeMeters>299.79998779296875</AltitudeMeters>
            <DistanceMeters>NAN</DistanceMeters>
          </Trackpoint>
          <Trackpoint>
            <Time>2019-10-08T08:54:37.000Z</Time>
            <Position>
              <LatitudeDegrees>40.13549141585826873779296875</LatitudeDegrees>
              <LongitudeDegrees>-6.04811235330998897552490234375</LongitudeDegrees>
            </Position>
            <AltitudeMeters>299.20001220703125</AltitudeMeters>
            <DistanceMeters>NAN</DistanceMeters>
          </Trackpoint>
          <Trackpoint>
            <Time>2019-10-08T08:54:39.000Z</Time>
            <Position>
              <LatitudeDegrees>40.1352890767157077789306640625</LatitudeDegrees>
              <LongitudeDegrees>-6.0481162928044795989990234375</LongitudeDegrees>
            </Position>
            <AltitudeMeters>297.79998779296875</AltitudeMeters>
            <DistanceMeters>NAN</DistanceMeters>
          </Trackpoint>
          <Trackpoint>
            <Time>2019-10-08T08:54:41.000Z</Time>
            <Position>
              <LatitudeDegrees>40.13508816249668598175048828125</LatitudeDegrees>
              <LongitudeDegrees>-6.04811822064220905303955078125</LongitudeDegrees>
            </Position>
            <AltitudeMeters>297</AltitudeMeters>
            <DistanceMeters>NAN</DistanceMeters>
          </Trackpoint>
          <Trackpoint>
            <Time>2019-10-08T08:54:42.000Z</Time>
            <Position>
              <LatitudeDegrees>40.13498791493475437164306640625</LatitudeDegrees>
              <LongitudeDegrees>-6.0481198132038116455078125</LongitudeDegrees>
            </Position>
            <AltitudeMeters>296.79998779296875</AltitudeMeters>
            <DistanceMeters>NAN</DistanceMeters>
          </Trackpoint>
          <Trackpoint>
            <Time>2019-10-08T08:54:43.000Z</Time>
            <Position>
              <LatitudeDegrees>40.13488800264894962310791015625</LatitudeDegrees>
              <LongitudeDegrees>-6.04812241159379482269287109375</LongitudeDegrees>
            </Position>
            <AltitudeMeters>296.399993896484375</AltitudeMeters>
            <DistanceMeters>NAN</DistanceMeters>
          </Trackpoint>
          <Trackpoint>
            <Time>2019-10-08T08:54:45.000Z</Time>
            <Position>
              <LatitudeDegrees>40.13469186611473560333251953125</LatitudeDegrees>
              <LongitudeDegrees>-6.04812827892601490020751953125</LongitudeDegrees>
            </Position>
            <AltitudeMeters>295.79998779296875</AltitudeMeters>
            <DistanceMeters>NAN</DistanceMeters>
          </Trackpoint>
          <Trackpoint>
            <Time>2019-10-08T08:54:46.000Z</Time>
            <Position>
              <LatitudeDegrees>40.134595222771167755126953125</LatitudeDegrees>
              <LongitudeDegrees>-6.04813146404922008514404296875</LongitudeDegrees>
            </Position>
            <AltitudeMeters>295</AltitudeMeters>
            <DistanceMeters>NAN</DistanceMeters>
          </Trackpoint>
          <Trackpoint>
            <Time>2019-10-08T08:54:47.000Z</Time>
            <Position>
              <LatitudeDegrees>40.1345005072653293609619140625</LatitudeDegrees>
              <LongitudeDegrees>-6.04813230223953723907470703125</LongitudeDegrees>
            </Position>
            <AltitudeMeters>294.399993896484375</AltitudeMeters>
            <DistanceMeters>NAN</DistanceMeters>
          </Trackpoint>
          <Trackpoint>
            <Time>2019-10-08T08:54:49.000Z</Time>
            <Position>
              <LatitudeDegrees>40.1343137584626674652099609375</LatitudeDegrees>
              <LongitudeDegrees>-6.0481370799243450164794921875</LongitudeDegrees>
            </Position>
            <AltitudeMeters>294.399993896484375</AltitudeMeters>
            <DistanceMeters>NAN</DistanceMeters>
          </Trackpoint>
          <Trackpoint>
            <Time>2019-10-08T08:54:51.000Z</Time>
            <Position>
              <LatitudeDegrees>40.13413011096417903900146484375</LatitudeDegrees>
              <LongitudeDegrees>-6.04814286343753337860107421875</LongitudeDegrees>
            </Position>
            <AltitudeMeters>293.79998779296875</AltitudeMeters>
            <DistanceMeters>NAN</DistanceMeters>
          </Trackpoint>
          <Trackpoint>
            <Time>2019-10-08T08:54:54.000Z</Time>
            <Position>
              <LatitudeDegrees>40.13392902910709381103515625</LatitudeDegrees>
              <LongitudeDegrees>-6.0481471382081508636474609375</LongitudeDegrees>
            </Position>
            <AltitudeMeters>293.600006103515625</AltitudeMeters>
            <DistanceMeters>NAN</DistanceMeters>
          </Trackpoint>
          <Trackpoint>
            <Time>2019-10-08T08:54:55.000Z</Time>
            <Position>
              <LatitudeDegrees>40.13385887257754802703857421875</LatitudeDegrees>
              <LongitudeDegrees>-6.048148982226848602294921875</LongitudeDegrees>
            </Position>
            <AltitudeMeters>293</AltitudeMeters>
            <DistanceMeters>NAN</DistanceMeters>
          </Trackpoint>
          <Trackpoint>
            <Time>2019-10-08T08:54:56.000Z</Time>
            <Position>
              <LatitudeDegrees>40.13376968912780284881591796875</LatitudeDegrees>
              <LongitudeDegrees>-6.04815091006457805633544921875</LongitudeDegrees>
            </Position>
            <AltitudeMeters>292.600006103515625</AltitudeMeters>
            <DistanceMeters>NAN</DistanceMeters>
          </Trackpoint>
          <Trackpoint>
            <Time>2019-10-08T08:55:01.000Z</Time>
            <Position>
              <LatitudeDegrees>40.13332461006939411163330078125</LatitudeDegrees>
              <LongitudeDegrees>-6.04817706160247325897216796875</LongitudeDegrees>
            </Position>
            <AltitudeMeters>291.20001220703125</AltitudeMeters>
            <DistanceMeters>NAN</DistanceMeters>
          </Trackpoint>
          <Trackpoint>
            <Time>2019-10-08T08:55:03.000Z</Time>
            <Position>
              <LatitudeDegrees>40.1331436447799205780029296875</LatitudeDegrees>
              <LongitudeDegrees>-6.04820589534938335418701171875</LongitudeDegrees>
            </Position>
            <AltitudeMeters>290.399993896484375</AltitudeMeters>
            <DistanceMeters>NAN</DistanceMeters>
          </Trackpoint>
          <Trackpoint>
            <Time>2019-10-08T08:55:04.000Z</Time>
            <Position>
              <LatitudeDegrees>40.1330527849495410919189453125</LatitudeDegrees>
              <LongitudeDegrees>-6.04822534136474132537841796875</LongitudeDegrees>
            </Position>
            <AltitudeMeters>290</AltitudeMeters>
            <DistanceMeters>NAN</DistanceMeters>
          </Trackpoint>
          <Trackpoint>
            <Time>2019-10-08T08:55:06.000Z</Time>
            <Position>
              <LatitudeDegrees>40.13287165202200412750244140625</LatitudeDegrees>
              <LongitudeDegrees>-6.0482691787183284759521484375</LongitudeDegrees>
            </Position>
            <AltitudeMeters>288.79998779296875</AltitudeMeters>
            <DistanceMeters>NAN</DistanceMeters>
          </Trackpoint>
          <Trackpoint>
            <Time>2019-10-08T08:55:08.000Z</Time>
            <Position>
              <LatitudeDegrees>40.13269445858895778656005859375</LatitudeDegrees>
              <LongitudeDegrees>-6.04831955395638942718505859375</LongitudeDegrees>
            </Position>
            <AltitudeMeters>288.399993896484375</AltitudeMeters>
            <DistanceMeters>NAN</DistanceMeters>
          </Trackpoint>
          <Trackpoint>
            <Time>2019-10-08T08:55:12.000Z</Time>
            <Position>
              <LatitudeDegrees>40.13234811834990978240966796875</LatitudeDegrees>
              <LongitudeDegrees>-6.04845953173935413360595703125</LongitudeDegrees>
            </Position>
            <AltitudeMeters>287.399993896484375</AltitudeMeters>
            <DistanceMeters>NAN</DistanceMeters>
          </Trackpoint>
          <Trackpoint>
            <Time>2019-10-08T08:55:15.000Z</Time>
            <Position>
              <LatitudeDegrees>40.132090039551258087158203125</LatitudeDegrees>
              <LongitudeDegrees>-6.04857687838375568389892578125</LongitudeDegrees>
            </Position>
            <AltitudeMeters>287.20001220703125</AltitudeMeters>
            <DistanceMeters>NAN</DistanceMeters>
          </Trackpoint>
          <Trackpoint>
            <Time>2019-10-08T08:55:18.000Z</Time>
            <Position>
              <LatitudeDegrees>40.131838582456111907958984375</LatitudeDegrees>
              <LongitudeDegrees>-6.04869715869426727294921875</LongitudeDegrees>
            </Position>
            <AltitudeMeters>286.20001220703125</AltitudeMeters>
            <DistanceMeters>NAN</DistanceMeters>
          </Trackpoint>
          <Trackpoint>
            <Time>2019-10-08T08:55:20.000Z</Time>
            <Position>
              <LatitudeDegrees>40.13167806901037693023681640625</LatitudeDegrees>
              <LongitudeDegrees>-6.04878223501145839691162109375</LongitudeDegrees>
            </Position>
            <AltitudeMeters>285.79998779296875</AltitudeMeters>
            <DistanceMeters>NAN</DistanceMeters>
          </Trackpoint>
          <Trackpoint>
            <Time>2019-10-08T08:55:24.000Z</Time>
            <Position>
              <LatitudeDegrees>40.13136877678334712982177734375</LatitudeDegrees>
              <LongitudeDegrees>-6.048950962722301483154296875</LongitudeDegrees>
            </Position>
            <AltitudeMeters>284.79998779296875</AltitudeMeters>
            <DistanceMeters>NAN</DistanceMeters>
          </Trackpoint>
          <Trackpoint>
            <Time>2019-10-08T08:55:27.000Z</Time>
            <Position>
              <LatitudeDegrees>40.1311386935412883758544921875</LatitudeDegrees>
              <LongitudeDegrees>-6.049071662127971649169921875</LongitudeDegrees>
            </Position>
            <AltitudeMeters>284.600006103515625</AltitudeMeters>
            <DistanceMeters>NAN</DistanceMeters>
          </Trackpoint>
          <Trackpoint>
            <Time>2019-10-08T08:55:32.000Z</Time>
            <Position>
              <LatitudeDegrees>40.13076326809823513031005859375</LatitudeDegrees>
              <LongitudeDegrees>-6.04927324689924716949462890625</LongitudeDegrees>
            </Position>
            <AltitudeMeters>284</AltitudeMeters>
            <DistanceMeters>NAN</DistanceMeters>
          </Trackpoint>
          <Trackpoint>
            <Time>2019-10-08T08:55:33.000Z</Time>
            <Position>
              <LatitudeDegrees>40.13069101609289646148681640625</LatitudeDegrees>
              <LongitudeDegrees>-6.04931079782545566558837890625</LongitudeDegrees>
            </Position>
            <AltitudeMeters>283.79998779296875</AltitudeMeters>
            <DistanceMeters>NAN</DistanceMeters>
          </Trackpoint>
          <Trackpoint>
            <Time>2019-10-08T08:55:39.000Z</Time>
            <Position>
              <LatitudeDegrees>40.13028784655034542083740234375</LatitudeDegrees>
              <LongitudeDegrees>-6.0495199263095855712890625</LongitudeDegrees>
            </Position>
            <AltitudeMeters>284</AltitudeMeters>
            <DistanceMeters>NAN</DistanceMeters>
          </Trackpoint>
          <Trackpoint>
            <Time>2019-10-08T08:55:42.000Z</Time>
            <Position>
              <LatitudeDegrees>40.13009908609092235565185546875</LatitudeDegrees>
              <LongitudeDegrees>-6.049618162214756011962890625</LongitudeDegrees>
            </Position>
            <AltitudeMeters>284.399993896484375</AltitudeMeters>
            <DistanceMeters>NAN</DistanceMeters>
          </Trackpoint>
          <Trackpoint>
            <Time>2019-10-08T08:55:47.000Z</Time>
            <Position>
              <LatitudeDegrees>40.129806138575077056884765625</LatitudeDegrees>
              <LongitudeDegrees>-6.04976979084312915802001953125</LongitudeDegrees>
            </Position>
            <AltitudeMeters>284.20001220703125</AltitudeMeters>
            <DistanceMeters>NAN</DistanceMeters>
          </Trackpoint>
          <Trackpoint>
            <Time>2019-10-08T08:55:52.000Z</Time>
            <Position>
              <LatitudeDegrees>40.12953045777976512908935546875</LatitudeDegrees>
              <LongitudeDegrees>-6.0499093495309352874755859375</LongitudeDegrees>
            </Position>
            <AltitudeMeters>285</AltitudeMeters>
            <DistanceMeters>NAN</DistanceMeters>
          </Trackpoint>
          <Trackpoint>
            <Time>2019-10-08T08:55:55.000Z</Time>
            <Position>
              <LatitudeDegrees>40.12937069870531558990478515625</LatitudeDegrees>
              <LongitudeDegrees>-6.04999744333326816558837890625</LongitudeDegrees>
            </Position>
            <AltitudeMeters>285.20001220703125</AltitudeMeters>
            <DistanceMeters>NAN</DistanceMeters>
          </Trackpoint>
          <Trackpoint>
            <Time>2019-10-08T08:55:56.000Z</Time>
            <Position>
              <LatitudeDegrees>40.12931738980114459991455078125</LatitudeDegrees>
              <LongitudeDegrees>-6.05002485215663909912109375</LongitudeDegrees>
            </Position>
            <AltitudeMeters>285</AltitudeMeters>
            <DistanceMeters>NAN</DistanceMeters>
          </Trackpoint>
          <Trackpoint>
            <Time>2019-10-08T08:55:59.000Z</Time>
            <Position>
              <LatitudeDegrees>40.12915863655507564544677734375</LatitudeDegrees>
              <LongitudeDegrees>-6.0501131974160671234130859375</LongitudeDegrees>
            </Position>
            <AltitudeMeters>285.20001220703125</AltitudeMeters>
            <DistanceMeters>NAN</DistanceMeters>
          </Trackpoint>
          <Trackpoint>
            <Time>2019-10-08T08:56:03.000Z</Time>
            <Position>
              <LatitudeDegrees>40.12893433682620525360107421875</LatitudeDegrees>
              <LongitudeDegrees>-6.050229705870151519775390625</LongitudeDegrees>
            </Position>
            <AltitudeMeters>285.600006103515625</AltitudeMeters>
            <DistanceMeters>NAN</DistanceMeters>
          </Trackpoint>
          <Trackpoint>
            <Time>2019-10-08T08:56:09.000Z</Time>
            <Position>
              <LatitudeDegrees>40.12858615256845951080322265625</LatitudeDegrees>
              <LongitudeDegrees>-6.05040916241705417633056640625</LongitudeDegrees>
            </Position>
            <AltitudeMeters>285</AltitudeMeters>
            <DistanceMeters>NAN</DistanceMeters>
          </Trackpoint>
          <Trackpoint>
            <Time>2019-10-08T08:56:14.000Z</Time>
            <Position>
              <LatitudeDegrees>40.12829530052840709686279296875</LatitudeDegrees>
              <LongitudeDegrees>-6.05056489817798137664794921875</LongitudeDegrees>
            </Position>
            <AltitudeMeters>284.79998779296875</AltitudeMeters>
            <DistanceMeters>NAN</DistanceMeters>
          </Trackpoint>
          <Trackpoint>
            <Time>2019-10-08T08:56:21.000Z</Time>
            <Position>
              <LatitudeDegrees>40.12788601219654083251953125</LatitudeDegrees>
              <LongitudeDegrees>-6.0507832467555999755859375</LongitudeDegrees>
            </Position>
            <AltitudeMeters>284.79998779296875</AltitudeMeters>
            <DistanceMeters>NAN</DistanceMeters>
          </Trackpoint>
          <Trackpoint>
            <Time>2019-10-08T08:56:23.000Z</Time>
            <Position>
              <LatitudeDegrees>40.1277688331902027130126953125</LatitudeDegrees>
              <LongitudeDegrees>-6.0508457757532596588134765625</LongitudeDegrees>
            </Position>
            <AltitudeMeters>284.600006103515625</AltitudeMeters>
            <DistanceMeters>NAN</DistanceMeters>
          </Trackpoint>
          <Trackpoint>
            <Time>2019-10-08T08:56:24.000Z</Time>
            <Position>
              <LatitudeDegrees>40.12771166861057281494140625</LatitudeDegrees>
              <LongitudeDegrees>-6.05087787844240665435791015625</LongitudeDegrees>
            </Position>
            <AltitudeMeters>284.600006103515625</AltitudeMeters>
            <DistanceMeters>NAN</DistanceMeters>
          </Trackpoint>
          <Trackpoint>
            <Time>2019-10-08T08:56:26.000Z</Time>
            <Position>
              <LatitudeDegrees>40.12759474106132984161376953125</LatitudeDegrees>
              <LongitudeDegrees>-6.0509399883449077606201171875</LongitudeDegrees>
            </Position>
            <AltitudeMeters>284.399993896484375</AltitudeMeters>
            <DistanceMeters>NAN</DistanceMeters>
          </Trackpoint>
          <Trackpoint>
            <Time>2019-10-08T08:56:33.000Z</Time>
            <Position>
              <LatitudeDegrees>40.12717447243630886077880859375</LatitudeDegrees>
              <LongitudeDegrees>-6.0511636175215244293212890625</LongitudeDegrees>
            </Position>
            <AltitudeMeters>284</AltitudeMeters>
            <DistanceMeters>NAN</DistanceMeters>
          </Trackpoint>
          <Trackpoint>
            <Time>2019-10-08T08:56:34.000Z</Time>
            <Position>
              <LatitudeDegrees>40.12711261399090290069580078125</LatitudeDegrees>
              <LongitudeDegrees>-6.05119605548679828643798828125</LongitudeDegrees>
            </Position>
            <AltitudeMeters>283.399993896484375</AltitudeMeters>
            <DistanceMeters>NAN</DistanceMeters>
          </Trackpoint>
          <Trackpoint>
            <Time>2019-10-08T08:56:38.000Z</Time>
            <Position>
              <LatitudeDegrees>40.12686719186604022979736328125</LatitudeDegrees>
              <LongitudeDegrees>-6.05132438242435455322265625</LongitudeDegrees>
            </Position>
            <AltitudeMeters>282.20001220703125</AltitudeMeters>
            <DistanceMeters>NAN</DistanceMeters>
          </Trackpoint>
          <Trackpoint>
            <Time>2019-10-08T08:56:43.000Z</Time>
            <Position>
              <LatitudeDegrees>40.12657348997890949249267578125</LatitudeDegrees>
              <LongitudeDegrees>-6.05147550813853740692138671875</LongitudeDegrees>
            </Position>
            <AltitudeMeters>282</AltitudeMeters>
            <DistanceMeters>NAN</DistanceMeters>
          </Trackpoint>
          <Trackpoint>
            <Time>2019-10-08T08:56:46.000Z</Time>
            <Position>
              <LatitudeDegrees>40.12639512307941913604736328125</LatitudeDegrees>
              <LongitudeDegrees>-6.0515649430453777313232421875</LongitudeDegrees>
            </Position>
            <AltitudeMeters>282</AltitudeMeters>
            <DistanceMeters>NAN</DistanceMeters>
          </Trackpoint>
          <Trackpoint>
            <Time>2019-10-08T08:56:51.000Z</Time>
            <Position>
              <LatitudeDegrees>40.12608784250915050506591796875</LatitudeDegrees>
              <LongitudeDegrees>-6.05173031799495220184326171875</LongitudeDegrees>
            </Position>
            <AltitudeMeters>280.79998779296875</AltitudeMeters>
            <DistanceMeters>NAN</DistanceMeters>
          </Trackpoint>
          <Trackpoint>
            <Time>2019-10-08T08:56:52.000Z</Time>
            <Position>
              <LatitudeDegrees>40.12602464295923709869384765625</LatitudeDegrees>
              <LongitudeDegrees>-6.0517649352550506591796875</LongitudeDegrees>
            </Position>
            <AltitudeMeters>280.20001220703125</AltitudeMeters>
            <DistanceMeters>NAN</DistanceMeters>
          </Trackpoint>
          <Trackpoint>
            <Time>2019-10-08T08:56:56.000Z</Time>
            <Position>
              <LatitudeDegrees>40.1257655583322048187255859375</LatitudeDegrees>
              <LongitudeDegrees>-6.05189845897257328033447265625</LongitudeDegrees>
            </Position>
            <AltitudeMeters>279.600006103515625</AltitudeMeters>
            <DistanceMeters>NAN</DistanceMeters>
          </Trackpoint>
          <Trackpoint>
            <Time>2019-10-08T08:57:00.000Z</Time>
            <Position>
              <LatitudeDegrees>40.12551091611385345458984375</LatitudeDegrees>
              <LongitudeDegrees>-6.05203323997557163238525390625</LongitudeDegrees>
            </Position>
            <AltitudeMeters>278.79998779296875</AltitudeMeters>
            <DistanceMeters>NAN</DistanceMeters>
          </Trackpoint>
          <Trackpoint>
            <Time>2019-10-08T08:57:03.000Z</Time>
            <Position>
              <LatitudeDegrees>40.12532156892120838165283203125</LatitudeDegrees>
              <LongitudeDegrees>-6.05212946422398090362548828125</LongitudeDegrees>
            </Position>
            <AltitudeMeters>278.600006103515625</AltitudeMeters>
            <DistanceMeters>NAN</DistanceMeters>
          </Trackpoint>
          <Trackpoint>
            <Time>2019-10-08T08:57:06.000Z</Time>
            <Position>
              <LatitudeDegrees>40.12513414956629276275634765625</LatitudeDegrees>
              <LongitudeDegrees>-6.05222954414784908294677734375</LongitudeDegrees>
            </Position>
            <AltitudeMeters>278.20001220703125</AltitudeMeters>
            <DistanceMeters>NAN</DistanceMeters>
          </Trackpoint>
          <Trackpoint>
            <Time>2019-10-08T08:57:08.000Z</Time>
            <Position>
              <LatitudeDegrees>40.12500892393290996551513671875</LatitudeDegrees>
              <LongitudeDegrees>-6.05229676701128482818603515625</LongitudeDegrees>
            </Position>
            <AltitudeMeters>277.399993896484375</AltitudeMeters>
            <DistanceMeters>NAN</DistanceMeters>
          </Trackpoint>
          <Trackpoint>
            <Time>2019-10-08T08:57:11.000Z</Time>
            <Position>
              <LatitudeDegrees>40.12482116930186748504638671875</LatitudeDegrees>
              <LongitudeDegrees>-6.0523940809071063995361328125</LongitudeDegrees>
            </Position>
            <AltitudeMeters>277.20001220703125</AltitudeMeters>
            <DistanceMeters>NAN</DistanceMeters>
          </Trackpoint>
          <Trackpoint>
            <Time>2019-10-08T08:57:13.000Z</Time>
            <Position>
              <LatitudeDegrees>40.12469611130654811859130859375</LatitudeDegrees>
              <LongitudeDegrees>-6.0524648241698741912841796875</LongitudeDegrees>
            </Position>
            <AltitudeMeters>276.79998779296875</AltitudeMeters>
            <DistanceMeters>NAN</DistanceMeters>
          </Trackpoint>
          <Trackpoint>
            <Time>2019-10-08T08:57:15.000Z</Time>
            <Position>
              <LatitudeDegrees>40.1245709694921970367431640625</LatitudeDegrees>
              <LongitudeDegrees>-6.0525365732610225677490234375</LongitudeDegrees>
            </Position>
            <AltitudeMeters>276.399993896484375</AltitudeMeters>
            <DistanceMeters>NAN</DistanceMeters>
          </Trackpoint>
          <Trackpoint>
            <Time>2019-10-08T08:57:17.000Z</Time>
            <Position>
              <LatitudeDegrees>40.12444113381206989288330078125</LatitudeDegrees>
              <LongitudeDegrees>-6.05261192657053470611572265625</LongitudeDegrees>
            </Position>
            <AltitudeMeters>275.600006103515625</AltitudeMeters>
            <DistanceMeters>NAN</DistanceMeters>
          </Trackpoint>
          <Trackpoint>
            <Time>2019-10-08T08:57:18.000Z</Time>
            <Position>
              <LatitudeDegrees>40.1243744976818561553955078125</LatitudeDegrees>
              <LongitudeDegrees>-6.0526488907635211944580078125</LongitudeDegrees>
            </Position>
            <AltitudeMeters>275.20001220703125</AltitudeMeters>
            <DistanceMeters>NAN</DistanceMeters>
          </Trackpoint>
          <Trackpoint>
            <Time>2019-10-08T08:57:20.000Z</Time>
            <Position>
              <LatitudeDegrees>40.12423980049788951873779296875</LatitudeDegrees>
              <LongitudeDegrees>-6.05273396708071231842041015625</LongitudeDegrees>
            </Position>
            <AltitudeMeters>274.20001220703125</AltitudeMeters>
            <DistanceMeters>NAN</DistanceMeters>
          </Trackpoint>
          <Trackpoint>
            <Time>2019-10-08T08:57:22.000Z</Time>
            <Position>
              <LatitudeDegrees>40.12410552240908145904541015625</LatitudeDegrees>
              <LongitudeDegrees>-6.05282910168170928955078125</LongitudeDegrees>
            </Position>
            <AltitudeMeters>273.79998779296875</AltitudeMeters>
            <DistanceMeters>NAN</DistanceMeters>
          </Trackpoint>
          <Trackpoint>
            <Time>2019-10-08T08:57:25.000Z</Time>
            <Position>
              <LatitudeDegrees>40.123907625675201416015625</LatitudeDegrees>
              <LongitudeDegrees>-6.0529818199574947357177734375</LongitudeDegrees>
            </Position>
            <AltitudeMeters>273.600006103515625</AltitudeMeters>
            <DistanceMeters>NAN</DistanceMeters>
          </Trackpoint>
          <Trackpoint>
            <Time>2019-10-08T08:57:28.000Z</Time>
            <Position>
              <LatitudeDegrees>40.1237180270254611968994140625</LatitudeDegrees>
              <LongitudeDegrees>-6.05314618907868862152099609375</LongitudeDegrees>
            </Position>
            <AltitudeMeters>272.79998779296875</AltitudeMeters>
            <DistanceMeters>NAN</DistanceMeters>
          </Trackpoint>
          <Trackpoint>
            <Time>2019-10-08T08:57:32.000Z</Time>
            <Position>
              <LatitudeDegrees>40.12347939424216747283935546875</LatitudeDegrees>
              <LongitudeDegrees>-6.0533657111227512359619140625</LongitudeDegrees>
            </Position>
            <AltitudeMeters>272.79998779296875</AltitudeMeters>
            <DistanceMeters>NAN</DistanceMeters>
          </Trackpoint>
          <Trackpoint>
            <Time>2019-10-08T08:57:34.000Z</Time>
            <Position>
              <LatitudeDegrees>40.12336313724517822265625</LatitudeDegrees>
              <LongitudeDegrees>-6.05347953736782073974609375</LongitudeDegrees>
            </Position>
            <AltitudeMeters>273</AltitudeMeters>
            <DistanceMeters>NAN</DistanceMeters>
          </Trackpoint>
          <Trackpoint>
            <Time>2019-10-08T08:57:39.000Z</Time>
            <Position>
              <LatitudeDegrees>40.12308091856539249420166015625</LatitudeDegrees>
              <LongitudeDegrees>-6.0537677071988582611083984375</LongitudeDegrees>
            </Position>
            <AltitudeMeters>273.20001220703125</AltitudeMeters>
            <DistanceMeters>NAN</DistanceMeters>
          </Trackpoint>
          <Trackpoint>
            <Time>2019-10-08T08:57:43.000Z</Time>
            <Position>
              <LatitudeDegrees>40.12284555472433567047119140625</LatitudeDegrees>
              <LongitudeDegrees>-6.0539886541664600372314453125</LongitudeDegrees>
            </Position>
            <AltitudeMeters>272.600006103515625</AltitudeMeters>
            <DistanceMeters>NAN</DistanceMeters>
          </Trackpoint>
          <Trackpoint>
            <Time>2019-10-08T08:57:47.000Z</Time>
            <Position>
              <LatitudeDegrees>40.12259577400982379913330078125</LatitudeDegrees>
              <LongitudeDegrees>-6.05419325642287731170654296875</LongitudeDegrees>
            </Position>
            <AltitudeMeters>272.79998779296875</AltitudeMeters>
            <DistanceMeters>NAN</DistanceMeters>
          </Trackpoint>
          <Trackpoint>
            <Time>2019-10-08T08:57:50.000Z</Time>
            <Position>
              <LatitudeDegrees>40.12240332551300525665283203125</LatitudeDegrees>
              <LongitudeDegrees>-6.0543168894946575164794921875</LongitudeDegrees>
            </Position>
            <AltitudeMeters>272.79998779296875</AltitudeMeters>
            <DistanceMeters>NAN</DistanceMeters>
          </Trackpoint>
          <Trackpoint>
            <Time>2019-10-08T08:57:55.000Z</Time>
            <Position>
              <LatitudeDegrees>40.12206452898681163787841796875</LatitudeDegrees>
              <LongitudeDegrees>-6.05447673238813877105712890625</LongitudeDegrees>
            </Position>
            <AltitudeMeters>271.399993896484375</AltitudeMeters>
            <DistanceMeters>NAN</DistanceMeters>
          </Trackpoint>
          <Trackpoint>
            <Time>2019-10-08T08:57:57.000Z</Time>
            <Position>
              <LatitudeDegrees>40.12186110019683837890625</LatitudeDegrees>
              <LongitudeDegrees>-6.05453892610967159271240234375</LongitudeDegrees>
            </Position>
            <AltitudeMeters>271.399993896484375</AltitudeMeters>
            <DistanceMeters>NAN</DistanceMeters>
          </Trackpoint>
          <Trackpoint>
            <Time>2019-10-08T08:58:02.000Z</Time>
            <Position>
              <LatitudeDegrees>40.12155608274042606353759765625</LatitudeDegrees>
              <LongitudeDegrees>-6.05458888225257396697998046875</LongitudeDegrees>
            </Position>
            <AltitudeMeters>270.399993896484375</AltitudeMeters>
            <DistanceMeters>NAN</DistanceMeters>
          </Trackpoint>
          <Trackpoint>
            <Time>2019-10-08T08:58:04.000Z</Time>
            <Position>
              <LatitudeDegrees>40.12140353210270404815673828125</LatitudeDegrees>
              <LongitudeDegrees>-6.054601036012172698974609375</LongitudeDegrees>
            </Position>
            <AltitudeMeters>270</AltitudeMeters>
            <DistanceMeters>NAN</DistanceMeters>
          </Trackpoint>
          <Trackpoint>
            <Time>2019-10-08T08:58:09.000Z</Time>
            <Position>
              <LatitudeDegrees>40.121019892394542694091796875</LatitudeDegrees>
              <LongitudeDegrees>-6.0546052269637584686279296875</LongitudeDegrees>
            </Position>
            <AltitudeMeters>269.20001220703125</AltitudeMeters>
            <DistanceMeters>NAN</DistanceMeters>
          </Trackpoint>
          <Trackpoint>
            <Time>2019-10-08T08:58:13.000Z</Time>
            <Position>
              <LatitudeDegrees>40.1207102648913860321044921875</LatitudeDegrees>
              <LongitudeDegrees>-6.05461302213370800018310546875</LongitudeDegrees>
            </Position>
            <AltitudeMeters>267.600006103515625</AltitudeMeters>
            <DistanceMeters>NAN</DistanceMeters>
          </Trackpoint>
          <Trackpoint>
            <Time>2019-10-08T08:58:14.000Z</Time>
            <Position>
              <LatitudeDegrees>40.12063239701092243194580078125</LatitudeDegrees>
              <LongitudeDegrees>-6.0546136088669300079345703125</LongitudeDegrees>
            </Position>
            <AltitudeMeters>267.79998779296875</AltitudeMeters>
            <DistanceMeters>NAN</DistanceMeters>
          </Trackpoint>
          <Trackpoint>
            <Time>2019-10-08T08:58:21.000Z</Time>
            <Position>
              <LatitudeDegrees>40.1200883276760578155517578125</LatitudeDegrees>
              <LongitudeDegrees>-6.0546706058084964752197265625</LongitudeDegrees>
            </Position>
            <AltitudeMeters>266.600006103515625</AltitudeMeters>
            <DistanceMeters>NAN</DistanceMeters>
          </Trackpoint>
          <Trackpoint>
            <Time>2019-10-08T08:58:22.000Z</Time>
            <Position>
              <LatitudeDegrees>40.12001196853816509246826171875</LatitudeDegrees>
              <LongitudeDegrees>-6.054688207805156707763671875</LongitudeDegrees>
            </Position>
            <AltitudeMeters>266.399993896484375</AltitudeMeters>
            <DistanceMeters>NAN</DistanceMeters>
          </Trackpoint>
          <Trackpoint>
            <Time>2019-10-08T08:58:29.000Z</Time>
            <Position>
              <LatitudeDegrees>40.1194962300360202789306640625</LatitudeDegrees>
              <LongitudeDegrees>-6.05485240928828716278076171875</LongitudeDegrees>
            </Position>
            <AltitudeMeters>266.20001220703125</AltitudeMeters>
            <DistanceMeters>NAN</DistanceMeters>
          </Trackpoint>
          <Trackpoint>
            <Time>2019-10-08T08:58:30.000Z</Time>
            <Position>
              <LatitudeDegrees>40.119423307478427886962890625</LatitudeDegrees>
              <LongitudeDegrees>-6.0548798181116580963134765625</LongitudeDegrees>
            </Position>
            <AltitudeMeters>265.600006103515625</AltitudeMeters>
            <DistanceMeters>NAN</DistanceMeters>
          </Trackpoint>
          <Trackpoint>
            <Time>2019-10-08T08:58:32.000Z</Time>
            <Position>
              <LatitudeDegrees>40.119275785982608795166015625</LatitudeDegrees>
              <LongitudeDegrees>-6.05493555776774883270263671875</LongitudeDegrees>
            </Position>
            <AltitudeMeters>265.600006103515625</AltitudeMeters>
            <DistanceMeters>NAN</DistanceMeters>
          </Trackpoint>
          <Trackpoint>
            <Time>2019-10-08T08:58:38.000Z</Time>
            <Position>
              <LatitudeDegrees>40.1188404299318790435791015625</LatitudeDegrees>
              <LongitudeDegrees>-6.0551027767360210418701171875</LongitudeDegrees>
            </Position>
            <AltitudeMeters>264.20001220703125</AltitudeMeters>
            <DistanceMeters>NAN</DistanceMeters>
          </Trackpoint>
          <Trackpoint>
            <Time>2019-10-08T08:58:40.000Z</Time>
            <Position>
              <LatitudeDegrees>40.11869701556861400604248046875</LatitudeDegrees>
              <LongitudeDegrees>-6.055161952972412109375</LongitudeDegrees>
            </Position>
            <AltitudeMeters>264.20001220703125</AltitudeMeters>
            <DistanceMeters>NAN</DistanceMeters>
          </Trackpoint>
          <Trackpoint>
            <Time>2019-10-08T08:58:46.000Z</Time>
            <Position>
              <LatitudeDegrees>40.11826618574559688568115234375</LatitudeDegrees>
              <LongitudeDegrees>-6.05532883666455745697021484375</LongitudeDegrees>
            </Position>
            <AltitudeMeters>263.600006103515625</AltitudeMeters>
            <DistanceMeters>NAN</DistanceMeters>
          </Trackpoint>
          <Trackpoint>
            <Time>2019-10-08T08:58:49.000Z</Time>
            <Position>
              <LatitudeDegrees>40.1180532015860080718994140625</LatitudeDegrees>
              <LongitudeDegrees>-6.0554041899740695953369140625</LongitudeDegrees>
            </Position>
            <AltitudeMeters>263.399993896484375</AltitudeMeters>
            <DistanceMeters>NAN</DistanceMeters>
          </Trackpoint>
          <Trackpoint>
            <Time>2019-10-08T08:58:52.000Z</Time>
            <Position>
              <LatitudeDegrees>40.11784273199737071990966796875</LatitudeDegrees>
              <LongitudeDegrees>-6.05548138730227947235107421875</LongitudeDegrees>
            </Position>
            <AltitudeMeters>263</AltitudeMeters>
            <DistanceMeters>NAN</DistanceMeters>
          </Trackpoint>
          <Trackpoint>
            <Time>2019-10-08T08:59:00.000Z</Time>
            <Position>
              <LatitudeDegrees>40.117285586893558502197265625</LatitudeDegrees>
              <LongitudeDegrees>-6.055690683424472808837890625</LongitudeDegrees>
            </Position>
            <AltitudeMeters>263.20001220703125</AltitudeMeters>
            <DistanceMeters>NAN</DistanceMeters>
          </Trackpoint>
          <Trackpoint>
            <Time>2019-10-08T08:59:08.000Z</Time>
            <Position>
              <LatitudeDegrees>40.11674134992063045501708984375</LatitudeDegrees>
              <LongitudeDegrees>-6.055889837443828582763671875</LongitudeDegrees>
            </Position>
            <AltitudeMeters>262.399993896484375</AltitudeMeters>
            <DistanceMeters>NAN</DistanceMeters>
          </Trackpoint>
          <Trackpoint>
            <Time>2019-10-08T08:59:09.000Z</Time>
            <Position>
              <LatitudeDegrees>40.11667412705719470977783203125</LatitudeDegrees>
              <LongitudeDegrees>-6.0559141449630260467529296875</LongitudeDegrees>
            </Position>
            <AltitudeMeters>262.399993896484375</AltitudeMeters>
            <DistanceMeters>NAN</DistanceMeters>
          </Trackpoint>
          <Trackpoint>
            <Time>2019-10-08T08:59:17.000Z</Time>
            <Position>
              <LatitudeDegrees>40.116145312786102294921875</LatitudeDegrees>
              <LongitudeDegrees>-6.05610935948789119720458984375</LongitudeDegrees>
            </Position>
            <AltitudeMeters>262</AltitudeMeters>
            <DistanceMeters>NAN</DistanceMeters>
          </Trackpoint>
          <Trackpoint>
            <Time>2019-10-08T08:59:18.000Z</Time>
            <Position>
              <LatitudeDegrees>40.11608035303652286529541015625</LatitudeDegrees>
              <LongitudeDegrees>-6.05613517574965953826904296875</LongitudeDegrees>
            </Position>
            <AltitudeMeters>261.600006103515625</AltitudeMeters>
            <DistanceMeters>NAN</DistanceMeters>
          </Trackpoint>
          <Trackpoint>
            <Time>2019-10-08T08:59:21.000Z</Time>
            <Position>
              <LatitudeDegrees>40.11588446795940399169921875</LatitudeDegrees>
              <LongitudeDegrees>-6.05621145106852054595947265625</LongitudeDegrees>
            </Position>
            <AltitudeMeters>262</AltitudeMeters>
            <DistanceMeters>NAN</DistanceMeters>
          </Trackpoint>
          <Trackpoint>
            <Time>2019-10-08T08:59:29.000Z</Time>
            <Position>
              <LatitudeDegrees>40.11535967700183391571044921875</LatitudeDegrees>
              <LongitudeDegrees>-6.05639853514730930328369140625</LongitudeDegrees>
            </Position>
            <AltitudeMeters>261.399993896484375</AltitudeMeters>
            <DistanceMeters>NAN</DistanceMeters>
          </Trackpoint>
          <Trackpoint>
            <Time>2019-10-08T08:59:30.000Z</Time>
            <Position>
              <LatitudeDegrees>40.11529429815709590911865234375</LatitudeDegrees>
              <LongitudeDegrees>-6.05642284266650676727294921875</LongitudeDegrees>
            </Position>
            <AltitudeMeters>261.20001220703125</AltitudeMeters>
            <DistanceMeters>NAN</DistanceMeters>
          </Trackpoint>
          <Trackpoint>
            <Time>2019-10-08T08:59:38.000Z</Time>
            <Position>
              <LatitudeDegrees>40.11477193795144557952880859375</LatitudeDegrees>
              <LongitudeDegrees>-6.0566219128668308258056640625</LongitudeDegrees>
            </Position>
            <AltitudeMeters>261.20001220703125</AltitudeMeters>
            <DistanceMeters>NAN</DistanceMeters>
          </Trackpoint>
          <Trackpoint>
            <Time>2019-10-08T08:59:42.000Z</Time>
            <Position>
              <LatitudeDegrees>40.11450991965830326080322265625</LatitudeDegrees>
              <LongitudeDegrees>-6.05672056786715984344482421875</LongitudeDegrees>
            </Position>
            <AltitudeMeters>260.79998779296875</AltitudeMeters>
            <DistanceMeters>NAN</DistanceMeters>
          </Trackpoint>
          <Trackpoint>
            <Time>2019-10-08T08:59:50.000Z</Time>
            <Position>
              <LatitudeDegrees>40.1140027306973934173583984375</LatitudeDegrees>
              <LongitudeDegrees>-6.0569095797836780548095703125</LongitudeDegrees>
            </Position>
            <AltitudeMeters>261.399993896484375</AltitudeMeters>
            <DistanceMeters>NAN</DistanceMeters>
          </Trackpoint>
          <Trackpoint>
            <Time>2019-10-08T08:59:53.000Z</Time>
            <Position>
              <LatitudeDegrees>40.11381455697119235992431640625</LatitudeDegrees>
              <LongitudeDegrees>-6.05697453953325748443603515625</LongitudeDegrees>
            </Position>
            <AltitudeMeters>262</AltitudeMeters>
            <DistanceMeters>NAN</DistanceMeters>
          </Trackpoint>
          <Trackpoint>
            <Time>2019-10-08T09:00:02.000Z</Time>
            <Position>
              <LatitudeDegrees>40.11327174492180347442626953125</LatitudeDegrees>
              <LongitudeDegrees>-6.0571804828941822052001953125</LongitudeDegrees>
            </Position>
            <AltitudeMeters>262</AltitudeMeters>
            <DistanceMeters>NAN</DistanceMeters>
          </Trackpoint>
          <Trackpoint>
            <Time>2019-10-08T09:00:03.000Z</Time>
            <Position>
              <LatitudeDegrees>40.11321122758090496063232421875</LatitudeDegrees>
              <LongitudeDegrees>-6.05720085091888904571533203125</LongitudeDegrees>
            </Position>
            <AltitudeMeters>262</AltitudeMeters>
            <DistanceMeters>NAN</DistanceMeters>
          </Trackpoint>
          <Trackpoint>
            <Time>2019-10-08T09:00:10.000Z</Time>
            <Position>
              <LatitudeDegrees>40.11279850266873836517333984375</LatitudeDegrees>
              <LongitudeDegrees>-6.05736094526946544647216796875</LongitudeDegrees>
            </Position>
            <AltitudeMeters>261.79998779296875</AltitudeMeters>
            <DistanceMeters>NAN</DistanceMeters>
          </Trackpoint>
          <Trackpoint>
            <Time>2019-10-08T09:00:13.000Z</Time>
            <Position>
              <LatitudeDegrees>40.11262516491115093231201171875</LatitudeDegrees>
              <LongitudeDegrees>-6.057428419589996337890625</LongitudeDegrees>
            </Position>
            <AltitudeMeters>262.399993896484375</AltitudeMeters>
            <DistanceMeters>NAN</DistanceMeters>
          </Trackpoint>
          <Trackpoint>
            <Time>2019-10-08T09:00:22.000Z</Time>
            <Position>
              <LatitudeDegrees>40.11210313998162746429443359375</LatitudeDegrees>
              <LongitudeDegrees>-6.05765162967145442962646484375</LongitudeDegrees>
            </Position>
            <AltitudeMeters>262.20001220703125</AltitudeMeters>
            <DistanceMeters>NAN</DistanceMeters>
          </Trackpoint>
          <Trackpoint>
            <Time>2019-10-08T09:00:25.000Z</Time>
            <Position>
              <LatitudeDegrees>40.1119297184050083160400390625</LatitudeDegrees>
              <LongitudeDegrees>-6.05773150920867919921875</LongitudeDegrees>
            </Position>
            <AltitudeMeters>262.600006103515625</AltitudeMeters>
            <DistanceMeters>NAN</DistanceMeters>
          </Trackpoint>
          <Trackpoint>
            <Time>2019-10-08T09:00:33.000Z</Time>
            <Position>
              <LatitudeDegrees>40.1114636845886707305908203125</LatitudeDegrees>
              <LongitudeDegrees>-6.0579455830156803131103515625</LongitudeDegrees>
            </Position>
            <AltitudeMeters>262.79998779296875</AltitudeMeters>
            <DistanceMeters>NAN</DistanceMeters>
          </Trackpoint>
          <Trackpoint>
            <Time>2019-10-08T09:00:42.000Z</Time>
            <Position>
              <LatitudeDegrees>40.11093671433627605438232421875</LatitudeDegrees>
              <LongitudeDegrees>-6.05819779448211193084716796875</LongitudeDegrees>
            </Position>
            <AltitudeMeters>262.399993896484375</AltitudeMeters>
            <DistanceMeters>NAN</DistanceMeters>
          </Trackpoint>
          <Trackpoint>
            <Time>2019-10-08T09:00:51.000Z</Time>
            <Position>
              <LatitudeDegrees>40.110410749912261962890625</LatitudeDegrees>
              <LongitudeDegrees>-6.0584528557956218719482421875</LongitudeDegrees>
            </Position>
            <AltitudeMeters>262.79998779296875</AltitudeMeters>
            <DistanceMeters>NAN</DistanceMeters>
          </Trackpoint>
          <Trackpoint>
            <Time>2019-10-08T09:00:52.000Z</Time>
            <Position>
              <LatitudeDegrees>40.11035283096134662628173828125</LatitudeDegrees>
              <LongitudeDegrees>-6.05848059989511966705322265625</LongitudeDegrees>
            </Position>
            <AltitudeMeters>262.79998779296875</AltitudeMeters>
            <DistanceMeters>NAN</DistanceMeters>
          </Trackpoint>
          <Trackpoint>
            <Time>2019-10-08T09:01:01.000Z</Time>
            <Position>
              <LatitudeDegrees>40.109827034175395965576171875</LatitudeDegrees>
              <LongitudeDegrees>-6.05873138643801212310791015625</LongitudeDegrees>
            </Position>
            <AltitudeMeters>262.20001220703125</AltitudeMeters>
            <DistanceMeters>NAN</DistanceMeters>
          </Trackpoint>
          <Trackpoint>
            <Time>2019-10-08T09:01:02.000Z</Time>
            <Position>
              <LatitudeDegrees>40.10976844467222690582275390625</LatitudeDegrees>
              <LongitudeDegrees>-6.05876055546104907989501953125</LongitudeDegrees>
            </Position>
            <AltitudeMeters>262.600006103515625</AltitudeMeters>
            <DistanceMeters>NAN</DistanceMeters>
          </Trackpoint>
          <Trackpoint>
            <Time>2019-10-08T09:01:11.000Z</Time>
            <Position>
              <LatitudeDegrees>40.109232254326343536376953125</LatitudeDegrees>
              <LongitudeDegrees>-6.0590181313455104827880859375</LongitudeDegrees>
            </Position>
            <AltitudeMeters>262.20001220703125</AltitudeMeters>
            <DistanceMeters>NAN</DistanceMeters>
          </Trackpoint>
          <Trackpoint>
            <Time>2019-10-08T09:01:15.000Z</Time>
            <Position>
              <LatitudeDegrees>40.1089943759143352508544921875</LatitudeDegrees>
              <LongitudeDegrees>-6.059131287038326263427734375</LongitudeDegrees>
            </Position>
            <AltitudeMeters>262.20001220703125</AltitudeMeters>
            <DistanceMeters>NAN</DistanceMeters>
          </Trackpoint>
          <Trackpoint>
            <Time>2019-10-08T09:01:24.000Z</Time>
            <Position>
              <LatitudeDegrees>40.10845449753105640411376953125</LatitudeDegrees>
              <LongitudeDegrees>-6.05941124260425567626953125</LongitudeDegrees>
            </Position>
            <AltitudeMeters>262.399993896484375</AltitudeMeters>
            <DistanceMeters>NAN</DistanceMeters>
          </Trackpoint>
          <Trackpoint>
            <Time>2019-10-08T09:01:26.000Z</Time>
            <Position>
              <LatitudeDegrees>40.10833631269633769989013671875</LatitudeDegrees>
              <LongitudeDegrees>-6.05947603471577167510986328125</LongitudeDegrees>
            </Position>
            <AltitudeMeters>262.20001220703125</AltitudeMeters>
            <DistanceMeters>NAN</DistanceMeters>
          </Trackpoint>
          <Trackpoint>
            <Time>2019-10-08T09:01:30.000Z</Time>
            <Position>
              <LatitudeDegrees>40.1081025414168834686279296875</LatitudeDegrees>
              <LongitudeDegrees>-6.059618107974529266357421875</LongitudeDegrees>
            </Position>
            <AltitudeMeters>262.20001220703125</AltitudeMeters>
            <DistanceMeters>NAN</DistanceMeters>
          </Trackpoint>
          <Trackpoint>
            <Time>2019-10-08T09:01:35.000Z</Time>
            <Position>
              <LatitudeDegrees>40.107812024652957916259765625</LatitudeDegrees>
              <LongitudeDegrees>-6.0598077066242694854736328125</LongitudeDegrees>
            </Position>
            <AltitudeMeters>261.79998779296875</AltitudeMeters>
            <DistanceMeters>NAN</DistanceMeters>
          </Trackpoint>
          <Trackpoint>
            <Time>2019-10-08T09:01:44.000Z</Time>
            <Position>
              <LatitudeDegrees>40.107309781014919281005859375</LatitudeDegrees>
              <LongitudeDegrees>-6.06018950231373310089111328125</LongitudeDegrees>
            </Position>
            <AltitudeMeters>262.399993896484375</AltitudeMeters>
            <DistanceMeters>NAN</DistanceMeters>
          </Trackpoint>
          <Trackpoint>
            <Time>2019-10-08T09:01:46.000Z</Time>
            <Position>
              <LatitudeDegrees>40.10720224119722843170166015625</LatitudeDegrees>
              <LongitudeDegrees>-6.06027893722057342529296875</LongitudeDegrees>
            </Position>
            <AltitudeMeters>262.20001220703125</AltitudeMeters>
            <DistanceMeters>NAN</DistanceMeters>
          </Trackpoint>
          <Trackpoint>
            <Time>2019-10-08T09:01:55.000Z</Time>
            <Position>
              <LatitudeDegrees>40.10672212578356266021728515625</LatitudeDegrees>
              <LongitudeDegrees>-6.06070750392973423004150390625</LongitudeDegrees>
            </Position>
            <AltitudeMeters>262.600006103515625</AltitudeMeters>
            <DistanceMeters>NAN</DistanceMeters>
          </Trackpoint>
          <Trackpoint>
            <Time>2019-10-08T09:01:56.000Z</Time>
            <Position>
              <LatitudeDegrees>40.10666931979358196258544921875</LatitudeDegrees>
              <LongitudeDegrees>-6.0607582144439220428466796875</LongitudeDegrees>
            </Position>
            <AltitudeMeters>262.600006103515625</AltitudeMeters>
            <DistanceMeters>NAN</DistanceMeters>
          </Trackpoint>
          <Trackpoint>
            <Time>2019-10-08T09:02:05.000Z</Time>
            <Position>
              <LatitudeDegrees>40.10620077140629291534423828125</LatitudeDegrees>
              <LongitudeDegrees>-6.06121460907161235809326171875</LongitudeDegrees>
            </Position>
            <AltitudeMeters>263</AltitudeMeters>
            <DistanceMeters>NAN</DistanceMeters>
          </Trackpoint>
          <Trackpoint>
            <Time>2019-10-08T09:02:08.000Z</Time>
            <Position>
              <LatitudeDegrees>40.10604537092149257659912109375</LatitudeDegrees>
              <LongitudeDegrees>-6.0613657347857952117919921875</LongitudeDegrees>
            </Position>
            <AltitudeMeters>262.600006103515625</AltitudeMeters>
            <DistanceMeters>NAN</DistanceMeters>
          </Trackpoint>
          <Trackpoint>
            <Time>2019-10-08T09:02:17.000Z</Time>
            <Position>
              <LatitudeDegrees>40.10558939538896083831787109375</LatitudeDegrees>
              <LongitudeDegrees>-6.061830930411815643310546875</LongitudeDegrees>
            </Position>
            <AltitudeMeters>263.399993896484375</AltitudeMeters>
            <DistanceMeters>NAN</DistanceMeters>
          </Trackpoint>
          <Trackpoint>
            <Time>2019-10-08T09:02:20.000Z</Time>
            <Position>
              <LatitudeDegrees>40.105442292988300323486328125</LatitudeDegrees>
              <LongitudeDegrees>-6.06198959983885288238525390625</LongitudeDegrees>
            </Position>
            <AltitudeMeters>263.20001220703125</AltitudeMeters>
            <DistanceMeters>NAN</DistanceMeters>
          </Trackpoint>
          <Trackpoint>
            <Time>2019-10-08T09:02:29.000Z</Time>
            <Position>
              <LatitudeDegrees>40.1050186716020107269287109375</LatitudeDegrees>
              <LongitudeDegrees>-6.06249569915235042572021484375</LongitudeDegrees>
            </Position>
            <AltitudeMeters>263.600006103515625</AltitudeMeters>
            <DistanceMeters>NAN</DistanceMeters>
          </Trackpoint>
          <Trackpoint>
            <Time>2019-10-08T09:02:32.000Z</Time>
            <Position>
              <LatitudeDegrees>40.10487944819033145904541015625</LatitudeDegrees>
              <LongitudeDegrees>-6.06267138384282588958740234375</LongitudeDegrees>
            </Position>
            <AltitudeMeters>263.399993896484375</AltitudeMeters>
            <DistanceMeters>NAN</DistanceMeters>
          </Trackpoint>
          <Trackpoint>
            <Time>2019-10-08T09:02:34.000Z</Time>
            <Position>
              <LatitudeDegrees>40.10478707961738109588623046875</LatitudeDegrees>
              <LongitudeDegrees>-6.06279208324849605560302734375</LongitudeDegrees>
            </Position>
            <AltitudeMeters>263.600006103515625</AltitudeMeters>
            <DistanceMeters>NAN</DistanceMeters>
          </Trackpoint>
          <Trackpoint>
            <Time>2019-10-08T09:02:41.000Z</Time>
            <Position>
              <LatitudeDegrees>40.1044688187539577484130859375</LatitudeDegrees>
              <LongitudeDegrees>-6.0632090829312801361083984375</LongitudeDegrees>
            </Position>
            <AltitudeMeters>263.79998779296875</AltitudeMeters>
            <DistanceMeters>NAN</DistanceMeters>
          </Trackpoint>
          <Trackpoint>
            <Time>2019-10-08T09:02:50.000Z</Time>
            <Position>
              <LatitudeDegrees>40.104052908718585968017578125</LatitudeDegrees>
              <LongitudeDegrees>-6.06370680034160614013671875</LongitudeDegrees>
            </Position>
            <AltitudeMeters>263.79998779296875</AltitudeMeters>
            <DistanceMeters>NAN</DistanceMeters>
          </Trackpoint>
          <Trackpoint>
            <Time>2019-10-08T09:02:58.000Z</Time>
            <Position>
              <LatitudeDegrees>40.10366977192461490631103515625</LatitudeDegrees>
              <LongitudeDegrees>-6.06411525048315525054931640625</LongitudeDegrees>
            </Position>
            <AltitudeMeters>264</AltitudeMeters>
            <DistanceMeters>NAN</DistanceMeters>
          </Trackpoint>
          <Trackpoint>
            <Time>2019-10-08T09:03:07.000Z</Time>
            <Position>
              <LatitudeDegrees>40.10321178473532199859619140625</LatitudeDegrees>
              <LongitudeDegrees>-6.06453803367912769317626953125</LongitudeDegrees>
            </Position>
            <AltitudeMeters>264.399993896484375</AltitudeMeters>
            <DistanceMeters>NAN</DistanceMeters>
          </Trackpoint>
          <Trackpoint>
            <Time>2019-10-08T09:03:15.000Z</Time>
            <Position>
              <LatitudeDegrees>40.10278346948325634002685546875</LatitudeDegrees>
              <LongitudeDegrees>-6.064873896539211273193359375</LongitudeDegrees>
            </Position>
            <AltitudeMeters>264.600006103515625</AltitudeMeters>
            <DistanceMeters>NAN</DistanceMeters>
          </Trackpoint>
          <Trackpoint>
            <Time>2019-10-08T09:03:17.000Z</Time>
            <Position>
              <LatitudeDegrees>40.10267416946589946746826171875</LatitudeDegrees>
              <LongitudeDegrees>-6.0649575479328632354736328125</LongitudeDegrees>
            </Position>
            <AltitudeMeters>264.79998779296875</AltitudeMeters>
            <DistanceMeters>NAN</DistanceMeters>
          </Trackpoint>
          <Trackpoint>
            <Time>2019-10-08T09:03:23.000Z</Time>
            <Position>
              <LatitudeDegrees>40.1023391447961330413818359375</LatitudeDegrees>
              <LongitudeDegrees>-6.0651835240423679351806640625</LongitudeDegrees>
            </Position>
            <AltitudeMeters>264.600006103515625</AltitudeMeters>
            <DistanceMeters>NAN</DistanceMeters>
          </Trackpoint>
          <Trackpoint>
            <Time>2019-10-08T09:03:32.000Z</Time>
            <Position>
              <LatitudeDegrees>40.1018191315233707427978515625</LatitudeDegrees>
              <LongitudeDegrees>-6.06549457646906375885009765625</LongitudeDegrees>
            </Position>
            <AltitudeMeters>264.79998779296875</AltitudeMeters>
            <DistanceMeters>NAN</DistanceMeters>
          </Trackpoint>
          <Trackpoint>
            <Time>2019-10-08T09:03:35.000Z</Time>
            <Position>
              <LatitudeDegrees>40.1016431115567684173583984375</LatitudeDegrees>
              <LongitudeDegrees>-6.065596751868724822998046875</LongitudeDegrees>
            </Position>
            <AltitudeMeters>265</AltitudeMeters>
            <DistanceMeters>NAN</DistanceMeters>
          </Trackpoint>
          <Trackpoint>
            <Time>2019-10-08T09:03:44.000Z</Time>
            <Position>
              <LatitudeDegrees>40.10111697949469089508056640625</LatitudeDegrees>
              <LongitudeDegrees>-6.06589003466069698333740234375</LongitudeDegrees>
            </Position>
            <AltitudeMeters>264.20001220703125</AltitudeMeters>
            <DistanceMeters>NAN</DistanceMeters>
          </Trackpoint>
          <Trackpoint>
            <Time>2019-10-08T09:03:53.000Z</Time>
            <Position>
              <LatitudeDegrees>40.10059327818453311920166015625</LatitudeDegrees>
              <LongitudeDegrees>-6.06620200909674167633056640625</LongitudeDegrees>
            </Position>
            <AltitudeMeters>265.20001220703125</AltitudeMeters>
            <DistanceMeters>NAN</DistanceMeters>
          </Trackpoint>
          <Trackpoint>
            <Time>2019-10-08T09:03:54.000Z</Time>
            <Position>
              <LatitudeDegrees>40.1005346886813640594482421875</LatitudeDegrees>
              <LongitudeDegrees>-6.066237799823284149169921875</LongitudeDegrees>
            </Position>
            <AltitudeMeters>265.399993896484375</AltitudeMeters>
            <DistanceMeters>NAN</DistanceMeters>
          </Trackpoint>
          <Trackpoint>
            <Time>2019-10-08T09:04:03.000Z</Time>
            <Position>
              <LatitudeDegrees>40.1000292599201202392578125</LatitudeDegrees>
              <LongitudeDegrees>-6.0665819607675075531005859375</LongitudeDegrees>
            </Position>
            <AltitudeMeters>264.600006103515625</AltitudeMeters>
            <DistanceMeters>NAN</DistanceMeters>
          </Trackpoint>
          <Trackpoint>
            <Time>2019-10-08T09:04:12.000Z</Time>
            <Position>
              <LatitudeDegrees>40.09954512119293212890625</LatitudeDegrees>
              <LongitudeDegrees>-6.0669460706412792205810546875</LongitudeDegrees>
            </Position>
            <AltitudeMeters>265.600006103515625</AltitudeMeters>
            <DistanceMeters>NAN</DistanceMeters>
          </Trackpoint>
          <Trackpoint>
            <Time>2019-10-08T09:04:13.000Z</Time>
            <Position>
              <LatitudeDegrees>40.0994926504790782928466796875</LatitudeDegrees>
              <LongitudeDegrees>-6.0669909976422786712646484375</LongitudeDegrees>
            </Position>
            <AltitudeMeters>265.79998779296875</AltitudeMeters>
            <DistanceMeters>NAN</DistanceMeters>
          </Trackpoint>
          <Trackpoint>
            <Time>2019-10-08T09:04:18.000Z</Time>
            <Position>
              <LatitudeDegrees>40.09924077428877353668212890625</LatitudeDegrees>
              <LongitudeDegrees>-6.0672156326472759246826171875</LongitudeDegrees>
            </Position>
            <AltitudeMeters>266</AltitudeMeters>
            <DistanceMeters>NAN</DistanceMeters>
          </Trackpoint>
          <Trackpoint>
            <Time>2019-10-08T09:04:23.000Z</Time>
            <Position>
              <LatitudeDegrees>40.098998285830020904541015625</LatitudeDegrees>
              <LongitudeDegrees>-6.0674318857491016387939453125</LongitudeDegrees>
            </Position>
            <AltitudeMeters>266.399993896484375</AltitudeMeters>
            <DistanceMeters>NAN</DistanceMeters>
          </Trackpoint>
          <Trackpoint>
            <Time>2019-10-08T09:04:27.000Z</Time>
            <Position>
              <LatitudeDegrees>40.09882352314889430999755859375</LatitudeDegrees>
              <LongitudeDegrees>-6.0676032118499279022216796875</LongitudeDegrees>
            </Position>
            <AltitudeMeters>267</AltitudeMeters>
            <DistanceMeters>NAN</DistanceMeters>
          </Trackpoint>
          <Trackpoint>
            <Time>2019-10-08T09:04:32.000Z</Time>
            <Position>
              <LatitudeDegrees>40.0986014865338802337646484375</LatitudeDegrees>
              <LongitudeDegrees>-6.06781636364758014678955078125</LongitudeDegrees>
            </Position>
            <AltitudeMeters>267.79998779296875</AltitudeMeters>
            <DistanceMeters>NAN</DistanceMeters>
          </Trackpoint>
          <Trackpoint>
            <Time>2019-10-08T09:04:40.000Z</Time>
            <Position>
              <LatitudeDegrees>40.09826545603573322296142578125</LatitudeDegrees>
              <LongitudeDegrees>-6.06814744882285594940185546875</LongitudeDegrees>
            </Position>
            <AltitudeMeters>268</AltitudeMeters>
            <DistanceMeters>NAN</DistanceMeters>
          </Trackpoint>
          <Trackpoint>
            <Time>2019-10-08T09:04:43.000Z</Time>
            <Position>
              <LatitudeDegrees>40.09814760647714138031005859375</LatitudeDegrees>
              <LongitudeDegrees>-6.0682593472301959991455078125</LongitudeDegrees>
            </Position>
            <AltitudeMeters>268.600006103515625</AltitudeMeters>
            <DistanceMeters>NAN</DistanceMeters>
          </Trackpoint>
          <Trackpoint>
            <Time>2019-10-08T09:04:44.000Z</Time>
            <Position>
              <LatitudeDegrees>40.098111815750598907470703125</LatitudeDegrees>
              <LongitudeDegrees>-6.06829949654638767242431640625</LongitudeDegrees>
            </Position>
            <AltitudeMeters>268.600006103515625</AltitudeMeters>
            <DistanceMeters>NAN</DistanceMeters>
          </Trackpoint>
          <Trackpoint>
            <Time>2019-10-08T09:04:48.000Z</Time>
            <Position>
              <LatitudeDegrees>40.09796437807381153106689453125</LatitudeDegrees>
              <LongitudeDegrees>-6.06845565140247344970703125</LongitudeDegrees>
            </Position>
            <AltitudeMeters>269</AltitudeMeters>
            <DistanceMeters>NAN</DistanceMeters>
          </Trackpoint>
          <Trackpoint>
            <Time>2019-10-08T09:04:51.000Z</Time>
            <Position>
              <LatitudeDegrees>40.09785331785678863525390625</LatitudeDegrees>
              <LongitudeDegrees>-6.06856553815305233001708984375</LongitudeDegrees>
            </Position>
            <AltitudeMeters>270.20001220703125</AltitudeMeters>
            <DistanceMeters>NAN</DistanceMeters>
          </Trackpoint>
          <Trackpoint>
            <Time>2019-10-08T09:04:56.000Z</Time>
            <Position>
              <LatitudeDegrees>40.0976660661399364471435546875</LatitudeDegrees>
              <LongitudeDegrees>-6.0687434859573841094970703125</LongitudeDegrees>
            </Position>
            <AltitudeMeters>271.20001220703125</AltitudeMeters>
            <DistanceMeters>NAN</DistanceMeters>
          </Trackpoint>
          <Trackpoint>
            <Time>2019-10-08T09:05:00.000Z</Time>
            <Position>
              <LatitudeDegrees>40.0975242443382740020751953125</LatitudeDegrees>
              <LongitudeDegrees>-6.06888237409293651580810546875</LongitudeDegrees>
            </Position>
            <AltitudeMeters>271.79998779296875</AltitudeMeters>
            <DistanceMeters>NAN</DistanceMeters>
          </Trackpoint>
          <Trackpoint>
            <Time>2019-10-08T09:05:04.000Z</Time>
            <Position>
              <LatitudeDegrees>40.09737378917634487152099609375</LatitudeDegrees>
              <LongitudeDegrees>-6.06901262886822223663330078125</LongitudeDegrees>
            </Position>
            <AltitudeMeters>272.20001220703125</AltitudeMeters>
            <DistanceMeters>NAN</DistanceMeters>
          </Trackpoint>
          <Trackpoint>
            <Time>2019-10-08T09:05:08.000Z</Time>
            <Position>
              <LatitudeDegrees>40.09723029099404811859130859375</LatitudeDegrees>
              <LongitudeDegrees>-6.06915478594601154327392578125</LongitudeDegrees>
            </Position>
            <AltitudeMeters>272.79998779296875</AltitudeMeters>
            <DistanceMeters>NAN</DistanceMeters>
          </Trackpoint>
          <Trackpoint>
            <Time>2019-10-08T09:05:11.000Z</Time>
            <Position>
              <LatitudeDegrees>40.0971125252544879913330078125</LatitudeDegrees>
              <LongitudeDegrees>-6.06924698688089847564697265625</LongitudeDegrees>
            </Position>
            <AltitudeMeters>273.20001220703125</AltitudeMeters>
            <DistanceMeters>NAN</DistanceMeters>
          </Trackpoint>
          <Trackpoint>
            <Time>2019-10-08T09:05:14.000Z</Time>
            <Position>
              <LatitudeDegrees>40.096996687352657318115234375</LatitudeDegrees>
              <LongitudeDegrees>-6.0693429596722126007080078125</LongitudeDegrees>
            </Position>
            <AltitudeMeters>273.399993896484375</AltitudeMeters>
            <DistanceMeters>NAN</DistanceMeters>
          </Trackpoint>
          <Trackpoint>
            <Time>2019-10-08T09:05:19.000Z</Time>
            <Position>
              <LatitudeDegrees>40.09679510258138179779052734375</LatitudeDegrees>
              <LongitudeDegrees>-6.069495677947998046875</LongitudeDegrees>
            </Position>
            <AltitudeMeters>274.20001220703125</AltitudeMeters>
            <DistanceMeters>NAN</DistanceMeters>
          </Trackpoint>
          <Trackpoint>
            <Time>2019-10-08T09:05:22.000Z</Time>
            <Position>
              <LatitudeDegrees>40.0966706313192844390869140625</LatitudeDegrees>
              <LongitudeDegrees>-6.06959215365350246429443359375</LongitudeDegrees>
            </Position>
            <AltitudeMeters>274.79998779296875</AltitudeMeters>
            <DistanceMeters>NAN</DistanceMeters>
          </Trackpoint>
          <Trackpoint>
            <Time>2019-10-08T09:05:29.000Z</Time>
            <Position>
              <LatitudeDegrees>40.09636511094868183135986328125</LatitudeDegrees>
              <LongitudeDegrees>-6.06980086304247379302978515625</LongitudeDegrees>
            </Position>
            <AltitudeMeters>275.600006103515625</AltitudeMeters>
            <DistanceMeters>NAN</DistanceMeters>
          </Trackpoint>
          <Trackpoint>
            <Time>2019-10-08T09:05:30.000Z</Time>
            <Position>
              <LatitudeDegrees>40.09632253088057041168212890625</LatitudeDegrees>
              <LongitudeDegrees>-6.069830618798732757568359375</LongitudeDegrees>
            </Position>
            <AltitudeMeters>275.399993896484375</AltitudeMeters>
            <DistanceMeters>NAN</DistanceMeters>
          </Trackpoint>
          <Trackpoint>
            <Time>2019-10-08T09:05:36.000Z</Time>
            <Position>
              <LatitudeDegrees>40.09606470353901386260986328125</LatitudeDegrees>
              <LongitudeDegrees>-6.0699930600821971893310546875</LongitudeDegrees>
            </Position>
            <AltitudeMeters>276.600006103515625</AltitudeMeters>
            <DistanceMeters>NAN</DistanceMeters>
          </Trackpoint>
          <Trackpoint>
            <Time>2019-10-08T09:05:40.000Z</Time>
            <Position>
              <LatitudeDegrees>40.095889270305633544921875</LatitudeDegrees>
              <LongitudeDegrees>-6.0700936429202556610107421875</LongitudeDegrees>
            </Position>
            <AltitudeMeters>276.399993896484375</AltitudeMeters>
            <DistanceMeters>NAN</DistanceMeters>
          </Trackpoint>
          <Trackpoint>
            <Time>2019-10-08T09:05:49.000Z</Time>
            <Position>
              <LatitudeDegrees>40.0954783894121646881103515625</LatitudeDegrees>
              <LongitudeDegrees>-6.0703031904995441436767578125</LongitudeDegrees>
            </Position>
            <AltitudeMeters>277.600006103515625</AltitudeMeters>
            <DistanceMeters>NAN</DistanceMeters>
          </Trackpoint>
          <Trackpoint>
            <Time>2019-10-08T09:05:51.000Z</Time>
            <Position>
              <LatitudeDegrees>40.09538568556308746337890625</LatitudeDegrees>
              <LongitudeDegrees>-6.07034518383443355560302734375</LongitudeDegrees>
            </Position>
            <AltitudeMeters>277.79998779296875</AltitudeMeters>
            <DistanceMeters>NAN</DistanceMeters>
          </Trackpoint>
          <Trackpoint>
            <Time>2019-10-08T09:06:01.000Z</Time>
            <Position>
              <LatitudeDegrees>40.09490288794040679931640625</LatitudeDegrees>
              <LongitudeDegrees>-6.070554815232753753662109375</LongitudeDegrees>
            </Position>
            <AltitudeMeters>277.79998779296875</AltitudeMeters>
            <DistanceMeters>NAN</DistanceMeters>
          </Trackpoint>
          <Trackpoint>
            <Time>2019-10-08T09:06:10.000Z</Time>
            <Position>
              <LatitudeDegrees>40.09450198151171207427978515625</LatitudeDegrees>
              <LongitudeDegrees>-6.0707189328968524932861328125</LongitudeDegrees>
            </Position>
            <AltitudeMeters>277.600006103515625</AltitudeMeters>
            <DistanceMeters>NAN</DistanceMeters>
          </Trackpoint>
          <Trackpoint>
            <Time>2019-10-08T09:06:14.000Z</Time>
            <Position>
              <LatitudeDegrees>40.09429662488400936126708984375</LatitudeDegrees>
              <LongitudeDegrees>-6.07080233283340930938720703125</LongitudeDegrees>
            </Position>
            <AltitudeMeters>277.399993896484375</AltitudeMeters>
            <DistanceMeters>NAN</DistanceMeters>
          </Trackpoint>
          <Trackpoint>
            <Time>2019-10-08T09:06:22.000Z</Time>
            <Position>
              <LatitudeDegrees>40.09388306178152561187744140625</LatitudeDegrees>
              <LongitudeDegrees>-6.0709737427532672882080078125</LongitudeDegrees>
            </Position>
            <AltitudeMeters>277.399993896484375</AltitudeMeters>
            <DistanceMeters>NAN</DistanceMeters>
          </Trackpoint>
          <Trackpoint>
            <Time>2019-10-08T09:06:25.000Z</Time>
            <Position>
              <LatitudeDegrees>40.0937272422015666961669921875</LatitudeDegrees>
              <LongitudeDegrees>-6.0710407979786396026611328125</LongitudeDegrees>
            </Position>
            <AltitudeMeters>277</AltitudeMeters>
            <DistanceMeters>NAN</DistanceMeters>
          </Trackpoint>
          <Trackpoint>
            <Time>2019-10-08T09:06:31.000Z</Time>
            <Position>
              <LatitudeDegrees>40.0934177823364734649658203125</LatitudeDegrees>
              <LongitudeDegrees>-6.07116929255425930023193359375</LongitudeDegrees>
            </Position>
            <AltitudeMeters>277.600006103515625</AltitudeMeters>
            <DistanceMeters>NAN</DistanceMeters>
          </Trackpoint>
          <Trackpoint>
            <Time>2019-10-08T09:06:35.000Z</Time>
            <Position>
              <LatitudeDegrees>40.0932095758616924285888671875</LatitudeDegrees>
              <LongitudeDegrees>-6.0712550394237041473388671875</LongitudeDegrees>
            </Position>
            <AltitudeMeters>277.600006103515625</AltitudeMeters>
            <DistanceMeters>NAN</DistanceMeters>
          </Trackpoint>
          <Trackpoint>
            <Time>2019-10-08T09:06:44.000Z</Time>
            <Position>
              <LatitudeDegrees>40.0927495770156383514404296875</LatitudeDegrees>
              <LongitudeDegrees>-6.07150758616626262664794921875</LongitudeDegrees>
            </Position>
            <AltitudeMeters>278</AltitudeMeters>
            <DistanceMeters>NAN</DistanceMeters>
          </Trackpoint>
          <Trackpoint>
            <Time>2019-10-08T09:06:49.000Z</Time>
            <Position>
              <LatitudeDegrees>40.09250725619494915008544921875</LatitudeDegrees>
              <LongitudeDegrees>-6.071670614182949066162109375</LongitudeDegrees>
            </Position>
            <AltitudeMeters>278.79998779296875</AltitudeMeters>
            <DistanceMeters>NAN</DistanceMeters>
          </Trackpoint>
          <Trackpoint>
            <Time>2019-10-08T09:06:54.000Z</Time>
            <Position>
              <LatitudeDegrees>40.09228345938026905059814453125</LatitudeDegrees>
              <LongitudeDegrees>-6.0718263499438762664794921875</LongitudeDegrees>
            </Position>
            <AltitudeMeters>279.399993896484375</AltitudeMeters>
            <DistanceMeters>NAN</DistanceMeters>
          </Trackpoint>
          <Trackpoint>
            <Time>2019-10-08T09:06:56.000Z</Time>
            <Position>
              <LatitudeDegrees>40.0922037474811077117919921875</LatitudeDegrees>
              <LongitudeDegrees>-6.07188485562801361083984375</LongitudeDegrees>
            </Position>
            <AltitudeMeters>279.79998779296875</AltitudeMeters>
            <DistanceMeters>NAN</DistanceMeters>
          </Trackpoint>
          <Trackpoint>
            <Time>2019-10-08T09:06:58.000Z</Time>
            <Position>
              <LatitudeDegrees>40.09213459677994251251220703125</LatitudeDegrees>
              <LongitudeDegrees>-6.0719390027225017547607421875</LongitudeDegrees>
            </Position>
            <AltitudeMeters>281.20001220703125</AltitudeMeters>
            <DistanceMeters>NAN</DistanceMeters>
          </Trackpoint>
          <Trackpoint>
            <Time>2019-10-08T09:07:01.000Z</Time>
            <Position>
              <LatitudeDegrees>40.09203066118061542510986328125</LatitudeDegrees>
              <LongitudeDegrees>-6.0720100812613964080810546875</LongitudeDegrees>
            </Position>
            <AltitudeMeters>281.20001220703125</AltitudeMeters>
            <DistanceMeters>NAN</DistanceMeters>
          </Trackpoint>
          <Trackpoint>
            <Time>2019-10-08T09:07:05.000Z</Time>
            <Position>
              <LatitudeDegrees>40.09189219214022159576416015625</LatitudeDegrees>
              <LongitudeDegrees>-6.07210823334753513336181640625</LongitudeDegrees>
            </Position>
            <AltitudeMeters>282.600006103515625</AltitudeMeters>
            <DistanceMeters>NAN</DistanceMeters>
          </Trackpoint>
          <Trackpoint>
            <Time>2019-10-08T09:07:12.000Z</Time>
            <Position>
              <LatitudeDegrees>40.09165682829916477203369140625</LatitudeDegrees>
              <LongitudeDegrees>-6.072275452315807342529296875</LongitudeDegrees>
            </Position>
            <AltitudeMeters>283.399993896484375</AltitudeMeters>
            <DistanceMeters>NAN</DistanceMeters>
          </Trackpoint>
          <Trackpoint>
            <Time>2019-10-08T09:07:14.000Z</Time>
            <Position>
              <LatitudeDegrees>40.09159262292087078094482421875</LatitudeDegrees>
              <LongitudeDegrees>-6.07232264243066310882568359375</LongitudeDegrees>
            </Position>
            <AltitudeMeters>283.600006103515625</AltitudeMeters>
            <DistanceMeters>NAN</DistanceMeters>
          </Trackpoint>
          <Trackpoint>
            <Time>2019-10-08T09:07:18.000Z</Time>
            <Position>
              <LatitudeDegrees>40.091463625431060791015625</LatitudeDegrees>
              <LongitudeDegrees>-6.07241668738424777984619140625</LongitudeDegrees>
            </Position>
            <AltitudeMeters>284.600006103515625</AltitudeMeters>
            <DistanceMeters>NAN</DistanceMeters>
          </Trackpoint>
          <Trackpoint>
            <Time>2019-10-08T09:07:24.000Z</Time>
            <Position>
              <LatitudeDegrees>40.0912743620574474334716796875</LatitudeDegrees>
              <LongitudeDegrees>-6.07254828326404094696044921875</LongitudeDegrees>
            </Position>
            <AltitudeMeters>285.600006103515625</AltitudeMeters>
            <DistanceMeters>NAN</DistanceMeters>
          </Trackpoint>
          <Trackpoint>
            <Time>2019-10-08T09:07:25.000Z</Time>
            <Position>
              <LatitudeDegrees>40.09124292992055416107177734375</LatitudeDegrees>
              <LongitudeDegrees>-6.0725733451545238494873046875</LongitudeDegrees>
            </Position>
            <AltitudeMeters>285.79998779296875</AltitudeMeters>
            <DistanceMeters>NAN</DistanceMeters>
          </Trackpoint>
          <Trackpoint>
            <Time>2019-10-08T09:07:32.000Z</Time>
            <Position>
              <LatitudeDegrees>40.0910229049623012542724609375</LatitudeDegrees>
              <LongitudeDegrees>-6.0727379657328128814697265625</LongitudeDegrees>
            </Position>
            <AltitudeMeters>287</AltitudeMeters>
            <DistanceMeters>NAN</DistanceMeters>
          </Trackpoint>
          <Trackpoint>
            <Time>2019-10-08T09:07:33.000Z</Time>
            <Position>
              <LatitudeDegrees>40.09098962880671024322509765625</LatitudeDegrees>
              <LongitudeDegrees>-6.07276059687137603759765625</LongitudeDegrees>
            </Position>
            <AltitudeMeters>287.20001220703125</AltitudeMeters>
            <DistanceMeters>NAN</DistanceMeters>
          </Trackpoint>
          <Trackpoint>
            <Time>2019-10-08T09:07:38.000Z</Time>
            <Position>
              <LatitudeDegrees>40.090827606618404388427734375</LatitudeDegrees>
              <LongitudeDegrees>-6.07287266291677951812744140625</LongitudeDegrees>
            </Position>
            <AltitudeMeters>288</AltitudeMeters>
            <DistanceMeters>NAN</DistanceMeters>
          </Trackpoint>
          <Trackpoint>
            <Time>2019-10-08T09:07:44.000Z</Time>
            <Position>
              <LatitudeDegrees>40.09063658304512500762939453125</LatitudeDegrees>
              <LongitudeDegrees>-6.07301716692745685577392578125</LongitudeDegrees>
            </Position>
            <AltitudeMeters>288.79998779296875</AltitudeMeters>
            <DistanceMeters>NAN</DistanceMeters>
          </Trackpoint>
          <Trackpoint>
            <Time>2019-10-08T09:07:46.000Z</Time>
            <Position>
              <LatitudeDegrees>40.09057070128619670867919921875</LatitudeDegrees>
              <LongitudeDegrees>-6.07306544668972492218017578125</LongitudeDegrees>
            </Position>
            <AltitudeMeters>289</AltitudeMeters>
            <DistanceMeters>NAN</DistanceMeters>
          </Trackpoint>
          <Trackpoint>
            <Time>2019-10-08T09:07:54.000Z</Time>
            <Position>
              <LatitudeDegrees>40.09030667133629322052001953125</LatitudeDegrees>
              <LongitudeDegrees>-6.07325403951108455657958984375</LongitudeDegrees>
            </Position>
            <AltitudeMeters>290.399993896484375</AltitudeMeters>
            <DistanceMeters>NAN</DistanceMeters>
          </Trackpoint>
          <Trackpoint>
            <Time>2019-10-08T09:07:55.000Z</Time>
            <Position>
              <LatitudeDegrees>40.090272389352321624755859375</LatitudeDegrees>
              <LongitudeDegrees>-6.073277927935123443603515625</LongitudeDegrees>
            </Position>
            <AltitudeMeters>290.399993896484375</AltitudeMeters>
            <DistanceMeters>NAN</DistanceMeters>
          </Trackpoint>
          <Trackpoint>
            <Time>2019-10-08T09:08:03.000Z</Time>
            <Position>
              <LatitudeDegrees>40.0900086946785449981689453125</LatitudeDegrees>
              <LongitudeDegrees>-6.0734769143164157867431640625</LongitudeDegrees>
            </Position>
            <AltitudeMeters>291.600006103515625</AltitudeMeters>
            <DistanceMeters>NAN</DistanceMeters>
          </Trackpoint>
          <Trackpoint>
            <Time>2019-10-08T09:08:05.000Z</Time>
            <Position>
              <LatitudeDegrees>40.08994407020509243011474609375</LatitudeDegrees>
              <LongitudeDegrees>-6.07352527789771556854248046875</LongitudeDegrees>
            </Position>
            <AltitudeMeters>291.79998779296875</AltitudeMeters>
            <DistanceMeters>NAN</DistanceMeters>
          </Trackpoint>
          <Trackpoint>
            <Time>2019-10-08T09:08:16.000Z</Time>
            <Position>
              <LatitudeDegrees>40.0895862467586994171142578125</LatitudeDegrees>
              <LongitudeDegrees>-6.07380531728267669677734375</LongitudeDegrees>
            </Position>
            <AltitudeMeters>292.79998779296875</AltitudeMeters>
            <DistanceMeters>NAN</DistanceMeters>
          </Trackpoint>
          <Trackpoint>
            <Time>2019-10-08T09:08:18.000Z</Time>
            <Position>
              <LatitudeDegrees>40.08951793424785137176513671875</LatitudeDegrees>
              <LongitudeDegrees>-6.073859967291355133056640625</LongitudeDegrees>
            </Position>
            <AltitudeMeters>293</AltitudeMeters>
            <DistanceMeters>NAN</DistanceMeters>
          </Trackpoint>
          <Trackpoint>
            <Time>2019-10-08T09:08:26.000Z</Time>
            <Position>
              <LatitudeDegrees>40.0892412476241588592529296875</LatitudeDegrees>
              <LongitudeDegrees>-6.0740830935537815093994140625</LongitudeDegrees>
            </Position>
            <AltitudeMeters>293.79998779296875</AltitudeMeters>
            <DistanceMeters>NAN</DistanceMeters>
          </Trackpoint>
          <Trackpoint>
            <Time>2019-10-08T09:08:27.000Z</Time>
            <Position>
              <LatitudeDegrees>40.08920897729694843292236328125</LatitudeDegrees>
              <LongitudeDegrees>-6.0741132684051990509033203125</LongitudeDegrees>
            </Position>
            <AltitudeMeters>293.79998779296875</AltitudeMeters>
            <DistanceMeters>NAN</DistanceMeters>
          </Trackpoint>
          <Trackpoint>
            <Time>2019-10-08T09:08:35.000Z</Time>
            <Position>
              <LatitudeDegrees>40.08893036283552646636962890625</LatitudeDegrees>
              <LongitudeDegrees>-6.0743409208953380584716796875</LongitudeDegrees>
            </Position>
            <AltitudeMeters>294</AltitudeMeters>
            <DistanceMeters>NAN</DistanceMeters>
          </Trackpoint>
          <Trackpoint>
            <Time>2019-10-08T09:08:38.000Z</Time>
            <Position>
              <LatitudeDegrees>40.08882408030331134796142578125</LatitudeDegrees>
              <LongitudeDegrees>-6.0744334571063518524169921875</LongitudeDegrees>
            </Position>
            <AltitudeMeters>294</AltitudeMeters>
            <DistanceMeters>NAN</DistanceMeters>
          </Trackpoint>
          <Trackpoint>
            <Time>2019-10-08T09:08:46.000Z</Time>
            <Position>
              <LatitudeDegrees>40.0885354913771152496337890625</LatitudeDegrees>
              <LongitudeDegrees>-6.074694804847240447998046875</LongitudeDegrees>
            </Position>
            <AltitudeMeters>294.20001220703125</AltitudeMeters>
            <DistanceMeters>NAN</DistanceMeters>
          </Trackpoint>
          <Trackpoint>
            <Time>2019-10-08T09:08:48.000Z</Time>
            <Position>
              <LatitudeDegrees>40.0884607248008251190185546875</LatitudeDegrees>
              <LongitudeDegrees>-6.07476093806326389312744140625</LongitudeDegrees>
            </Position>
            <AltitudeMeters>294.399993896484375</AltitudeMeters>
            <DistanceMeters>NAN</DistanceMeters>
          </Trackpoint>
          <Trackpoint>
            <Time>2019-10-08T09:08:55.000Z</Time>
            <Position>
              <LatitudeDegrees>40.08820985443890094757080078125</LatitudeDegrees>
              <LongitudeDegrees>-6.074992530047893524169921875</LongitudeDegrees>
            </Position>
            <AltitudeMeters>294.399993896484375</AltitudeMeters>
            <DistanceMeters>NAN</DistanceMeters>
          </Trackpoint>
          <Trackpoint>
            <Time>2019-10-08T09:08:57.000Z</Time>
            <Position>
              <LatitudeDegrees>40.08814799599349498748779296875</LatitudeDegrees>
              <LongitudeDegrees>-6.07505715452134609222412109375</LongitudeDegrees>
            </Position>
            <AltitudeMeters>294.600006103515625</AltitudeMeters>
            <DistanceMeters>NAN</DistanceMeters>
          </Trackpoint>
          <Trackpoint>
            <Time>2019-10-08T09:09:00.000Z</Time>
            <Position>
              <LatitudeDegrees>40.088060908019542694091796875</LatitudeDegrees>
              <LongitudeDegrees>-6.0751459188759326934814453125</LongitudeDegrees>
            </Position>
            <AltitudeMeters>294.399993896484375</AltitudeMeters>
            <DistanceMeters>NAN</DistanceMeters>
          </Trackpoint>
          <Trackpoint>
            <Time>2019-10-08T09:09:05.000Z</Time>
            <Position>
              <LatitudeDegrees>40.08789025247097015380859375</LatitudeDegrees>
              <LongitudeDegrees>-6.07531112618744373321533203125</LongitudeDegrees>
            </Position>
            <AltitudeMeters>294.20001220703125</AltitudeMeters>
            <DistanceMeters>NAN</DistanceMeters>
          </Trackpoint>
          <Trackpoint>
            <Time>2019-10-08T09:09:10.000Z</Time>
            <Position>
              <LatitudeDegrees>40.087706856429576873779296875</LatitudeDegrees>
              <LongitudeDegrees>-6.07550240121781826019287109375</LongitudeDegrees>
            </Position>
            <AltitudeMeters>294.79998779296875</AltitudeMeters>
            <DistanceMeters>NAN</DistanceMeters>
          </Trackpoint>
          <Trackpoint>
            <Time>2019-10-08T09:09:14.000Z</Time>
            <Position>
              <LatitudeDegrees>40.087554641067981719970703125</LatitudeDegrees>
              <LongitudeDegrees>-6.075671128928661346435546875</LongitudeDegrees>
            </Position>
            <AltitudeMeters>294.79998779296875</AltitudeMeters>
            <DistanceMeters>NAN</DistanceMeters>
          </Trackpoint>
          <Trackpoint>
            <Time>2019-10-08T09:09:16.000Z</Time>
            <Position>
              <LatitudeDegrees>40.08747811429202556610107421875</LatitudeDegrees>
              <LongitudeDegrees>-6.075754277408123016357421875</LongitudeDegrees>
            </Position>
            <AltitudeMeters>294.600006103515625</AltitudeMeters>
            <DistanceMeters>NAN</DistanceMeters>
          </Trackpoint>
          <Trackpoint>
            <Time>2019-10-08T09:09:25.000Z</Time>
            <Position>
              <LatitudeDegrees>40.08714971132576465606689453125</LatitudeDegrees>
              <LongitudeDegrees>-6.076123416423797607421875</LongitudeDegrees>
            </Position>
            <AltitudeMeters>295</AltitudeMeters>
            <DistanceMeters>NAN</DistanceMeters>
          </Trackpoint>
          <Trackpoint>
            <Time>2019-10-08T09:09:32.000Z</Time>
            <Position>
              <LatitudeDegrees>40.08689439855515956878662109375</LatitudeDegrees>
              <LongitudeDegrees>-6.0764266736805438995361328125</LongitudeDegrees>
            </Position>
            <AltitudeMeters>295.399993896484375</AltitudeMeters>
            <DistanceMeters>NAN</DistanceMeters>
          </Trackpoint>
          <Trackpoint>
            <Time>2019-10-08T09:09:42.000Z</Time>
            <Position>
              <LatitudeDegrees>40.08654017932713031768798828125</LatitudeDegrees>
              <LongitudeDegrees>-6.0768625326454639434814453125</LongitudeDegrees>
            </Position>
            <AltitudeMeters>295.79998779296875</AltitudeMeters>
            <DistanceMeters>NAN</DistanceMeters>
          </Trackpoint>
          <Trackpoint>
            <Time>2019-10-08T09:09:45.000Z</Time>
            <Position>
              <LatitudeDegrees>40.08643657900393009185791015625</LatitudeDegrees>
              <LongitudeDegrees>-6.0769922845065593719482421875</LongitudeDegrees>
            </Position>
            <AltitudeMeters>295.79998779296875</AltitudeMeters>
            <DistanceMeters>NAN</DistanceMeters>
          </Trackpoint>
          <Trackpoint>
            <Time>2019-10-08T09:09:53.000Z</Time>
            <Position>
              <LatitudeDegrees>40.08616332896053791046142578125</LatitudeDegrees>
              <LongitudeDegrees>-6.07735916040837764739990234375</LongitudeDegrees>
            </Position>
            <AltitudeMeters>295.600006103515625</AltitudeMeters>
            <DistanceMeters>NAN</DistanceMeters>
          </Trackpoint>
          <Trackpoint>
            <Time>2019-10-08T09:09:56.000Z</Time>
            <Position>
              <LatitudeDegrees>40.08606425486505031585693359375</LatitudeDegrees>
              <LongitudeDegrees>-6.07749762944877147674560546875</LongitudeDegrees>
            </Position>
            <AltitudeMeters>295.79998779296875</AltitudeMeters>
            <DistanceMeters>NAN</DistanceMeters>
          </Trackpoint>
          <Trackpoint>
            <Time>2019-10-08T09:10:06.000Z</Time>
            <Position>
              <LatitudeDegrees>40.08573710918426513671875</LatitudeDegrees>
              <LongitudeDegrees>-6.07796668075025081634521484375</LongitudeDegrees>
            </Position>
            <AltitudeMeters>295.79998779296875</AltitudeMeters>
            <DistanceMeters>NAN</DistanceMeters>
          </Trackpoint>
          <Trackpoint>
            <Time>2019-10-08T09:10:15.000Z</Time>
            <Position>
              <LatitudeDegrees>40.0854123942553997039794921875</LatitudeDegrees>
              <LongitudeDegrees>-6.07845869846642017364501953125</LongitudeDegrees>
            </Position>
            <AltitudeMeters>295.399993896484375</AltitudeMeters>
            <DistanceMeters>NAN</DistanceMeters>
          </Trackpoint>
          <Trackpoint>
            <Time>2019-10-08T09:10:18.000Z</Time>
            <Position>
              <LatitudeDegrees>40.08529362268745899200439453125</LatitudeDegrees>
              <LongitudeDegrees>-6.078647710382938385009765625</LongitudeDegrees>
            </Position>
            <AltitudeMeters>294.79998779296875</AltitudeMeters>
            <DistanceMeters>NAN</DistanceMeters>
          </Trackpoint>
          <Trackpoint>
            <Time>2019-10-08T09:10:23.000Z</Time>
            <Position>
              <LatitudeDegrees>40.085093043744564056396484375</LatitudeDegrees>
              <LongitudeDegrees>-6.07900788076221942901611328125</LongitudeDegrees>
            </Position>
            <AltitudeMeters>293.399993896484375</AltitudeMeters>
            <DistanceMeters>NAN</DistanceMeters>
          </Trackpoint>
          <Trackpoint>
            <Time>2019-10-08T09:10:26.000Z</Time>
            <Position>
              <LatitudeDegrees>40.0849835760891437530517578125</LatitudeDegrees>
              <LongitudeDegrees>-6.079271323978900909423828125</LongitudeDegrees>
            </Position>
            <AltitudeMeters>291.79998779296875</AltitudeMeters>
            <DistanceMeters>NAN</DistanceMeters>
          </Trackpoint>
          <Trackpoint>
            <Time>2019-10-08T09:10:28.000Z</Time>
            <Position>
              <LatitudeDegrees>40.08493177592754364013671875</LatitudeDegrees>
              <LongitudeDegrees>-6.07947123236954212188720703125</LongitudeDegrees>
            </Position>
            <AltitudeMeters>290.600006103515625</AltitudeMeters>
            <DistanceMeters>NAN</DistanceMeters>
          </Trackpoint>
          <Trackpoint>
            <Time>2019-10-08T09:10:31.000Z</Time>
            <Position>
              <LatitudeDegrees>40.084886513650417327880859375</LatitudeDegrees>
              <LongitudeDegrees>-6.079795025289058685302734375</LongitudeDegrees>
            </Position>
            <AltitudeMeters>290</AltitudeMeters>
            <DistanceMeters>NAN</DistanceMeters>
          </Trackpoint>
          <Trackpoint>
            <Time>2019-10-08T09:10:33.000Z</Time>
            <Position>
              <LatitudeDegrees>40.084881484508514404296875</LatitudeDegrees>
              <LongitudeDegrees>-6.08001940883696079254150390625</LongitudeDegrees>
            </Position>
            <AltitudeMeters>289.20001220703125</AltitudeMeters>
            <DistanceMeters>NAN</DistanceMeters>
          </Trackpoint>
          <Trackpoint>
            <Time>2019-10-08T09:10:35.000Z</Time>
            <Position>
              <LatitudeDegrees>40.08488441817462444305419921875</LatitudeDegrees>
              <LongitudeDegrees>-6.080249659717082977294921875</LongitudeDegrees>
            </Position>
            <AltitudeMeters>288.20001220703125</AltitudeMeters>
            <DistanceMeters>NAN</DistanceMeters>
          </Trackpoint>
          <Trackpoint>
            <Time>2019-10-08T09:10:36.000Z</Time>
            <Position>
              <LatitudeDegrees>40.084889866411685943603515625</LatitudeDegrees>
              <LongitudeDegrees>-6.080362983047962188720703125</LongitudeDegrees>
            </Position>
            <AltitudeMeters>287.399993896484375</AltitudeMeters>
            <DistanceMeters>NAN</DistanceMeters>
          </Trackpoint>
          <Trackpoint>
            <Time>2019-10-08T09:10:38.000Z</Time>
            <Position>
              <LatitudeDegrees>40.08489732630550861358642578125</LatitudeDegrees>
              <LongitudeDegrees>-6.08059641905128955841064453125</LongitudeDegrees>
            </Position>
            <AltitudeMeters>286.399993896484375</AltitudeMeters>
            <DistanceMeters>NAN</DistanceMeters>
          </Trackpoint>
          <Trackpoint>
            <Time>2019-10-08T09:10:40.000Z</Time>
            <Position>
              <LatitudeDegrees>40.08488089777529239654541015625</LatitudeDegrees>
              <LongitudeDegrees>-6.08083094470202922821044921875</LongitudeDegrees>
            </Position>
            <AltitudeMeters>286</AltitudeMeters>
            <DistanceMeters>NAN</DistanceMeters>
          </Trackpoint>
          <Trackpoint>
            <Time>2019-10-08T09:10:43.000Z</Time>
            <Position>
              <LatitudeDegrees>40.0847475416958332061767578125</LatitudeDegrees>
              <LongitudeDegrees>-6.0811319388449192047119140625</LongitudeDegrees>
            </Position>
            <AltitudeMeters>285.20001220703125</AltitudeMeters>
            <DistanceMeters>NAN</DistanceMeters>
          </Trackpoint>
          <Trackpoint>
            <Time>2019-10-08T09:10:44.000Z</Time>
            <Position>
              <LatitudeDegrees>40.0846999324858188629150390625</LatitudeDegrees>
              <LongitudeDegrees>-6.08120695687830448150634765625</LongitudeDegrees>
            </Position>
            <AltitudeMeters>285.600006103515625</AltitudeMeters>
            <DistanceMeters>NAN</DistanceMeters>
          </Trackpoint>
          <Trackpoint>
            <Time>2019-10-08T09:10:46.000Z</Time>
            <Position>
              <LatitudeDegrees>40.0846489705145359039306640625</LatitudeDegrees>
              <LongitudeDegrees>-6.08130184002220630645751953125</LongitudeDegrees>
            </Position>
            <AltitudeMeters>286.399993896484375</AltitudeMeters>
            <DistanceMeters>NAN</DistanceMeters>
          </Trackpoint>
          <Trackpoint>
            <Time>2019-10-08T09:10:50.000Z</Time>
            <Position>
              <LatitudeDegrees>40.084608234465122222900390625</LatitudeDegrees>
              <LongitudeDegrees>-6.08142605982720851898193359375</LongitudeDegrees>
            </Position>
            <AltitudeMeters>287.20001220703125</AltitudeMeters>
            <DistanceMeters>NAN</DistanceMeters>
          </Trackpoint>
          <Trackpoint>
            <Time>2019-10-08T09:10:51.000Z</Time>
            <Position>
              <LatitudeDegrees>40.08460379205644130706787109375</LatitudeDegrees>
              <LongitudeDegrees>-6.08145631849765777587890625</LongitudeDegrees>
            </Position>
            <AltitudeMeters>287.600006103515625</AltitudeMeters>
            <DistanceMeters>NAN</DistanceMeters>
          </Trackpoint>
          <Trackpoint>
            <Time>2019-10-08T09:10:53.000Z</Time>
            <Position>
              <LatitudeDegrees>40.0845933146774768829345703125</LatitudeDegrees>
              <LongitudeDegrees>-6.08153586275875568389892578125</LongitudeDegrees>
            </Position>
            <AltitudeMeters>287</AltitudeMeters>
            <DistanceMeters>NAN</DistanceMeters>
          </Trackpoint>
          <Trackpoint>
            <Time>2019-10-08T09:10:55.000Z</Time>
            <Position>
              <LatitudeDegrees>40.08457177318632602691650390625</LatitudeDegrees>
              <LongitudeDegrees>-6.081637032330036163330078125</LongitudeDegrees>
            </Position>
            <AltitudeMeters>286.600006103515625</AltitudeMeters>
            <DistanceMeters>NAN</DistanceMeters>
          </Trackpoint>
          <Trackpoint>
            <Time>2019-10-08T09:10:56.000Z</Time>
            <Position>
              <LatitudeDegrees>40.08455316536128520965576171875</LatitudeDegrees>
              <LongitudeDegrees>-6.0816908441483974456787109375</LongitudeDegrees>
            </Position>
            <AltitudeMeters>286.399993896484375</AltitudeMeters>
            <DistanceMeters>NAN</DistanceMeters>
          </Trackpoint>
          <Trackpoint>
            <Time>2019-10-08T09:10:59.000Z</Time>
            <Position>
              <LatitudeDegrees>40.08447219617664813995361328125</LatitudeDegrees>
              <LongitudeDegrees>-6.08185320161283016204833984375</LongitudeDegrees>
            </Position>
            <AltitudeMeters>286</AltitudeMeters>
            <DistanceMeters>NAN</DistanceMeters>
          </Trackpoint>
          <Trackpoint>
            <Time>2019-10-08T09:11:00.000Z</Time>
            <Position>
              <LatitudeDegrees>40.08443732745945453643798828125</LatitudeDegrees>
              <LongitudeDegrees>-6.08189812861382961273193359375</LongitudeDegrees>
            </Position>
            <AltitudeMeters>286.20001220703125</AltitudeMeters>
            <DistanceMeters>NAN</DistanceMeters>
          </Trackpoint>
          <Trackpoint>
            <Time>2019-10-08T09:11:03.000Z</Time>
            <Position>
              <LatitudeDegrees>40.08431847207248210906982421875</LatitudeDegrees>
              <LongitudeDegrees>-6.08200139366090297698974609375</LongitudeDegrees>
            </Position>
            <AltitudeMeters>286.600006103515625</AltitudeMeters>
            <DistanceMeters>NAN</DistanceMeters>
          </Trackpoint>
          <Trackpoint>
            <Time>2019-10-08T09:11:04.000Z</Time>
            <Position>
              <LatitudeDegrees>40.08427463471889495849609375</LatitudeDegrees>
              <LongitudeDegrees>-6.08202938921749591827392578125</LongitudeDegrees>
            </Position>
            <AltitudeMeters>287</AltitudeMeters>
            <DistanceMeters>NAN</DistanceMeters>
          </Trackpoint>
          <Trackpoint>
            <Time>2019-10-08T09:11:05.000Z</Time>
            <Position>
              <LatitudeDegrees>40.0842292048037052154541015625</LatitudeDegrees>
              <LongitudeDegrees>-6.082045733928680419921875</LongitudeDegrees>
            </Position>
            <AltitudeMeters>287</AltitudeMeters>
            <DistanceMeters>NAN</DistanceMeters>
          </Trackpoint>
          <Trackpoint>
            <Time>2019-10-08T09:11:09.000Z</Time>
            <Position>
              <LatitudeDegrees>40.0840459764003753662109375</LatitudeDegrees>
              <LongitudeDegrees>-6.08203978277742862701416015625</LongitudeDegrees>
            </Position>
            <AltitudeMeters>287.399993896484375</AltitudeMeters>
            <DistanceMeters>NAN</DistanceMeters>
          </Trackpoint>
          <Trackpoint>
            <Time>2019-10-08T09:11:10.000Z</Time>
            <Position>
              <LatitudeDegrees>40.08400046266615390777587890625</LatitudeDegrees>
              <LongitudeDegrees>-6.08202687464654445648193359375</LongitudeDegrees>
            </Position>
            <AltitudeMeters>287.79998779296875</AltitudeMeters>
            <DistanceMeters>NAN</DistanceMeters>
          </Trackpoint>
          <Trackpoint>
            <Time>2019-10-08T09:11:13.000Z</Time>
            <Position>
              <LatitudeDegrees>40.0838815234601497650146484375</LatitudeDegrees>
              <LongitudeDegrees>-6.08194858767092227935791015625</LongitudeDegrees>
            </Position>
            <AltitudeMeters>288.399993896484375</AltitudeMeters>
            <DistanceMeters>NAN</DistanceMeters>
          </Trackpoint>
          <Trackpoint>
            <Time>2019-10-08T09:11:14.000Z</Time>
            <Position>
              <LatitudeDegrees>40.0838490016758441925048828125</LatitudeDegrees>
              <LongitudeDegrees>-6.0819097794592380523681640625</LongitudeDegrees>
            </Position>
            <AltitudeMeters>288.600006103515625</AltitudeMeters>
            <DistanceMeters>NAN</DistanceMeters>
          </Trackpoint>
          <Trackpoint>
            <Time>2019-10-08T09:11:15.000Z</Time>
            <Position>
              <LatitudeDegrees>40.08381958119571208953857421875</LatitudeDegrees>
              <LongitudeDegrees>-6.0818668641149997711181640625</LongitudeDegrees>
            </Position>
            <AltitudeMeters>289</AltitudeMeters>
            <DistanceMeters>NAN</DistanceMeters>
          </Trackpoint>
          <Trackpoint>
            <Time>2019-10-08T09:11:17.000Z</Time>
            <Position>
              <LatitudeDegrees>40.08376895450055599212646484375</LatitudeDegrees>
              <LongitudeDegrees>-6.0817716456949710845947265625</LongitudeDegrees>
            </Position>
            <AltitudeMeters>289.20001220703125</AltitudeMeters>
            <DistanceMeters>NAN</DistanceMeters>
          </Trackpoint>
          <Trackpoint>
            <Time>2019-10-08T09:11:18.000Z</Time>
            <Position>
              <LatitudeDegrees>40.083749257028102874755859375</LatitudeDegrees>
              <LongitudeDegrees>-6.08171992935240268707275390625</LongitudeDegrees>
            </Position>
            <AltitudeMeters>289.399993896484375</AltitudeMeters>
            <DistanceMeters>NAN</DistanceMeters>
          </Trackpoint>
          <Trackpoint>
            <Time>2019-10-08T09:11:19.000Z</Time>
            <Position>
              <LatitudeDegrees>40.08373425342142581939697265625</LatitudeDegrees>
              <LongitudeDegrees>-6.08166284859180450439453125</LongitudeDegrees>
            </Position>
            <AltitudeMeters>289.600006103515625</AltitudeMeters>
            <DistanceMeters>NAN</DistanceMeters>
          </Trackpoint>
          <Trackpoint>
            <Time>2019-10-08T09:11:23.000Z</Time>
            <Position>
              <LatitudeDegrees>40.0837051682174205780029296875</LatitudeDegrees>
              <LongitudeDegrees>-6.08143880032002925872802734375</LongitudeDegrees>
            </Position>
            <AltitudeMeters>289.79998779296875</AltitudeMeters>
            <DistanceMeters>NAN</DistanceMeters>
          </Trackpoint>
          <Trackpoint>
            <Time>2019-10-08T09:11:24.000Z</Time>
            <Position>
              <LatitudeDegrees>40.08369863033294677734375</LatitudeDegrees>
              <LongitudeDegrees>-6.08137786388397216796875</LongitudeDegrees>
            </Position>
            <AltitudeMeters>289.79998779296875</AltitudeMeters>
            <DistanceMeters>NAN</DistanceMeters>
          </Trackpoint>
          <Trackpoint>
            <Time>2019-10-08T09:11:27.000Z</Time>
            <Position>
              <LatitudeDegrees>40.08365646935999393463134765625</LatitudeDegrees>
              <LongitudeDegrees>-6.0811968147754669189453125</LongitudeDegrees>
            </Position>
            <AltitudeMeters>289.79998779296875</AltitudeMeters>
            <DistanceMeters>NAN</DistanceMeters>
          </Trackpoint>
          <Trackpoint>
            <Time>2019-10-08T09:11:29.000Z</Time>
            <Position>
              <LatitudeDegrees>40.083599723875522613525390625</LatitudeDegrees>
              <LongitudeDegrees>-6.08109933324158191680908203125</LongitudeDegrees>
            </Position>
            <AltitudeMeters>290.20001220703125</AltitudeMeters>
            <DistanceMeters>NAN</DistanceMeters>
          </Trackpoint>
          <Trackpoint>
            <Time>2019-10-08T09:11:32.000Z</Time>
            <Position>
              <LatitudeDegrees>40.083483718335628509521484375</LatitudeDegrees>
              <LongitudeDegrees>-6.0809944756329059600830078125</LongitudeDegrees>
            </Position>
            <AltitudeMeters>290</AltitudeMeters>
            <DistanceMeters>NAN</DistanceMeters>
          </Trackpoint>
          <Trackpoint>
            <Time>2019-10-08T09:11:33.000Z</Time>
            <Position>
              <LatitudeDegrees>40.0834446586668491363525390625</LatitudeDegrees>
              <LongitudeDegrees>-6.0809592716395854949951171875</LongitudeDegrees>
            </Position>
            <AltitudeMeters>290.20001220703125</AltitudeMeters>
            <DistanceMeters>NAN</DistanceMeters>
          </Trackpoint>
          <Trackpoint>
            <Time>2019-10-08T09:11:42.000Z</Time>
            <Position>
              <LatitudeDegrees>40.08309974335134029388427734375</LatitudeDegrees>
              <LongitudeDegrees>-6.08065777458250522613525390625</LongitudeDegrees>
            </Position>
            <AltitudeMeters>291</AltitudeMeters>
            <DistanceMeters>NAN</DistanceMeters>
          </Trackpoint>
          <Trackpoint>
            <Time>2019-10-08T09:11:43.000Z</Time>
            <Position>
              <LatitudeDegrees>40.0830614380538463592529296875</LatitudeDegrees>
              <LongitudeDegrees>-6.080623827874660491943359375</LongitudeDegrees>
            </Position>
            <AltitudeMeters>291</AltitudeMeters>
            <DistanceMeters>NAN</DistanceMeters>
          </Trackpoint>
          <Trackpoint>
            <Time>2019-10-08T09:11:51.000Z</Time>
            <Position>
              <LatitudeDegrees>40.08272163569927215576171875</LatitudeDegrees>
              <LongitudeDegrees>-6.08037396334111690521240234375</LongitudeDegrees>
            </Position>
            <AltitudeMeters>290.399993896484375</AltitudeMeters>
            <DistanceMeters>NAN</DistanceMeters>
          </Trackpoint>
          <Trackpoint>
            <Time>2019-10-08T09:11:55.000Z</Time>
            <Position>
              <LatitudeDegrees>40.0825117528438568115234375</LatitudeDegrees>
              <LongitudeDegrees>-6.080432720482349395751953125</LongitudeDegrees>
            </Position>
            <AltitudeMeters>291.20001220703125</AltitudeMeters>
            <DistanceMeters>NAN</DistanceMeters>
          </Trackpoint>
          <Trackpoint>
            <Time>2019-10-08T09:11:56.000Z</Time>
            <Position>
              <LatitudeDegrees>40.08246037177741527557373046875</LatitudeDegrees>
              <LongitudeDegrees>-6.08045895583927631378173828125</LongitudeDegrees>
            </Position>
            <AltitudeMeters>291.20001220703125</AltitudeMeters>
            <DistanceMeters>NAN</DistanceMeters>
          </Trackpoint>
          <Trackpoint>
            <Time>2019-10-08T09:11:58.000Z</Time>
            <Position>
              <LatitudeDegrees>40.08235425688326358795166015625</LatitudeDegrees>
              <LongitudeDegrees>-6.08050086535513401031494140625</LongitudeDegrees>
            </Position>
            <AltitudeMeters>291</AltitudeMeters>
            <DistanceMeters>NAN</DistanceMeters>
          </Trackpoint>
          <Trackpoint>
            <Time>2019-10-08T09:12:01.000Z</Time>
            <Position>
              <LatitudeDegrees>40.0821883790194988250732421875</LatitudeDegrees>
              <LongitudeDegrees>-6.08050572685897350311279296875</LongitudeDegrees>
            </Position>
            <AltitudeMeters>291.20001220703125</AltitudeMeters>
            <DistanceMeters>NAN</DistanceMeters>
          </Trackpoint>
          <Trackpoint>
            <Time>2019-10-08T09:12:04.000Z</Time>
            <Position>
              <LatitudeDegrees>40.08203364908695220947265625</LatitudeDegrees>
              <LongitudeDegrees>-6.080436073243618011474609375</LongitudeDegrees>
            </Position>
            <AltitudeMeters>291.79998779296875</AltitudeMeters>
            <DistanceMeters>NAN</DistanceMeters>
          </Trackpoint>
          <Trackpoint>
            <Time>2019-10-08T09:12:05.000Z</Time>
            <Position>
              <LatitudeDegrees>40.08198075927793979644775390625</LatitudeDegrees>
              <LongitudeDegrees>-6.0804137773811817169189453125</LongitudeDegrees>
            </Position>
            <AltitudeMeters>291.79998779296875</AltitudeMeters>
            <DistanceMeters>NAN</DistanceMeters>
          </Trackpoint>
          <Trackpoint>
            <Time>2019-10-08T09:12:06.000Z</Time>
            <Position>
              <LatitudeDegrees>40.0819248519837856292724609375</LatitudeDegrees>
              <LongitudeDegrees>-6.08040128834545612335205078125</LongitudeDegrees>
            </Position>
            <AltitudeMeters>291.79998779296875</AltitudeMeters>
            <DistanceMeters>NAN</DistanceMeters>
          </Trackpoint>
          <Trackpoint>
            <Time>2019-10-08T09:12:09.000Z</Time>
            <Position>
              <LatitudeDegrees>40.081763751804828643798828125</LatitudeDegrees>
              <LongitudeDegrees>-6.08047404326498508453369140625</LongitudeDegrees>
            </Position>
            <AltitudeMeters>291.79998779296875</AltitudeMeters>
            <DistanceMeters>NAN</DistanceMeters>
          </Trackpoint>
          <Trackpoint>
            <Time>2019-10-08T09:12:12.000Z</Time>
            <Position>
              <LatitudeDegrees>40.081696696579456329345703125</LatitudeDegrees>
              <LongitudeDegrees>-6.0806923918426036834716796875</LongitudeDegrees>
            </Position>
            <AltitudeMeters>291.399993896484375</AltitudeMeters>
            <DistanceMeters>NAN</DistanceMeters>
          </Trackpoint>
          <Trackpoint>
            <Time>2019-10-08T09:12:15.000Z</Time>
            <Position>
              <LatitudeDegrees>40.0817189924418926239013671875</LatitudeDegrees>
              <LongitudeDegrees>-6.08094669878482818603515625</LongitudeDegrees>
            </Position>
            <AltitudeMeters>290.399993896484375</AltitudeMeters>
            <DistanceMeters>NAN</DistanceMeters>
          </Trackpoint>
          <Trackpoint>
            <Time>2019-10-08T09:12:16.000Z</Time>
            <Position>
              <LatitudeDegrees>40.08172326721251010894775390625</LatitudeDegrees>
              <LongitudeDegrees>-6.08103496022522449493408203125</LongitudeDegrees>
            </Position>
            <AltitudeMeters>290</AltitudeMeters>
            <DistanceMeters>NAN</DistanceMeters>
          </Trackpoint>
          <Trackpoint>
            <Time>2019-10-08T09:12:20.000Z</Time>
            <Position>
              <LatitudeDegrees>40.0817044079303741455078125</LatitudeDegrees>
              <LongitudeDegrees>-6.0814135707914829254150390625</LongitudeDegrees>
            </Position>
            <AltitudeMeters>288.399993896484375</AltitudeMeters>
            <DistanceMeters>NAN</DistanceMeters>
          </Trackpoint>
          <Trackpoint>
            <Time>2019-10-08T09:12:21.000Z</Time>
            <Position>
              <LatitudeDegrees>40.08169376291334629058837890625</LatitudeDegrees>
              <LongitudeDegrees>-6.081514991819858551025390625</LongitudeDegrees>
            </Position>
            <AltitudeMeters>288.399993896484375</AltitudeMeters>
            <DistanceMeters>NAN</DistanceMeters>
          </Trackpoint>
          <Trackpoint>
            <Time>2019-10-08T09:12:24.000Z</Time>
            <Position>
              <LatitudeDegrees>40.08163793943822383880615234375</LatitudeDegrees>
              <LongitudeDegrees>-6.08183920383453369140625</LongitudeDegrees>
            </Position>
            <AltitudeMeters>286.399993896484375</AltitudeMeters>
            <DistanceMeters>NAN</DistanceMeters>
          </Trackpoint>
          <Trackpoint>
            <Time>2019-10-08T09:12:26.000Z</Time>
            <Position>
              <LatitudeDegrees>40.0815738178789615631103515625</LatitudeDegrees>
              <LongitudeDegrees>-6.08206710778176784515380859375</LongitudeDegrees>
            </Position>
            <AltitudeMeters>284.79998779296875</AltitudeMeters>
            <DistanceMeters>NAN</DistanceMeters>
          </Trackpoint>
          <Trackpoint>
            <Time>2019-10-08T09:12:27.000Z</Time>
            <Position>
              <LatitudeDegrees>40.081539116799831390380859375</LatitudeDegrees>
              <LongitudeDegrees>-6.0821870528161525726318359375</LongitudeDegrees>
            </Position>
            <AltitudeMeters>283.600006103515625</AltitudeMeters>
            <DistanceMeters>NAN</DistanceMeters>
          </Trackpoint>
          <Trackpoint>
            <Time>2019-10-08T09:12:29.000Z</Time>
            <Position>
              <LatitudeDegrees>40.08146443404257297515869140625</LatitudeDegrees>
              <LongitudeDegrees>-6.082430295646190643310546875</LongitudeDegrees>
            </Position>
            <AltitudeMeters>281.600006103515625</AltitudeMeters>
            <DistanceMeters>NAN</DistanceMeters>
          </Trackpoint>
          <Trackpoint>
            <Time>2019-10-08T09:12:31.000Z</Time>
            <Position>
              <LatitudeDegrees>40.081383883953094482421875</LatitudeDegrees>
              <LongitudeDegrees>-6.08268368057906627655029296875</LongitudeDegrees>
            </Position>
            <AltitudeMeters>280.600006103515625</AltitudeMeters>
            <DistanceMeters>NAN</DistanceMeters>
          </Trackpoint>
          <Trackpoint>
            <Time>2019-10-08T09:12:32.000Z</Time>
            <Position>
              <LatitudeDegrees>40.0813448242843151092529296875</LatitudeDegrees>
              <LongitudeDegrees>-6.082815192639827728271484375</LongitudeDegrees>
            </Position>
            <AltitudeMeters>278.399993896484375</AltitudeMeters>
            <DistanceMeters>NAN</DistanceMeters>
          </Trackpoint>
          <Trackpoint>
            <Time>2019-10-08T09:12:34.000Z</Time>
            <Position>
              <LatitudeDegrees>40.08126662112772464752197265625</LatitudeDegrees>
              <LongitudeDegrees>-6.08307980932295322418212890625</LongitudeDegrees>
            </Position>
            <AltitudeMeters>277.20001220703125</AltitudeMeters>
            <DistanceMeters>NAN</DistanceMeters>
          </Trackpoint>
          <Trackpoint>
            <Time>2019-10-08T09:12:36.000Z</Time>
            <Position>
              <LatitudeDegrees>40.0811872445046901702880859375</LatitudeDegrees>
              <LongitudeDegrees>-6.08335264027118682861328125</LongitudeDegrees>
            </Position>
            <AltitudeMeters>275.600006103515625</AltitudeMeters>
            <DistanceMeters>NAN</DistanceMeters>
          </Trackpoint>
          <Trackpoint>
            <Time>2019-10-08T09:12:38.000Z</Time>
            <Position>
              <LatitudeDegrees>40.0811094604432582855224609375</LatitudeDegrees>
              <LongitudeDegrees>-6.0836295783519744873046875</LongitudeDegrees>
            </Position>
            <AltitudeMeters>274.399993896484375</AltitudeMeters>
            <DistanceMeters>NAN</DistanceMeters>
          </Trackpoint>
          <Trackpoint>
            <Time>2019-10-08T09:12:40.000Z</Time>
            <Position>
              <LatitudeDegrees>40.081024132668972015380859375</LatitudeDegrees>
              <LongitudeDegrees>-6.08390827663242816925048828125</LongitudeDegrees>
            </Position>
            <AltitudeMeters>273</AltitudeMeters>
            <DistanceMeters>NAN</DistanceMeters>
          </Trackpoint>
          <Trackpoint>
            <Time>2019-10-08T09:12:42.000Z</Time>
            <Position>
              <LatitudeDegrees>40.0809260644018650054931640625</LatitudeDegrees>
              <LongitudeDegrees>-6.08418370597064495086669921875</LongitudeDegrees>
            </Position>
            <AltitudeMeters>271.399993896484375</AltitudeMeters>
            <DistanceMeters>NAN</DistanceMeters>
          </Trackpoint>
          <Trackpoint>
            <Time>2019-10-08T09:12:44.000Z</Time>
            <Position>
              <LatitudeDegrees>40.080811567604541778564453125</LatitudeDegrees>
              <LongitudeDegrees>-6.08445611782371997833251953125</LongitudeDegrees>
            </Position>
            <AltitudeMeters>268.600006103515625</AltitudeMeters>
            <DistanceMeters>NAN</DistanceMeters>
          </Trackpoint>
          <Trackpoint>
            <Time>2019-10-08T09:12:45.000Z</Time>
            <Position>
              <LatitudeDegrees>40.0807480327785015106201171875</LatitudeDegrees>
              <LongitudeDegrees>-6.0845896415412425994873046875</LongitudeDegrees>
            </Position>
            <AltitudeMeters>267.600006103515625</AltitudeMeters>
            <DistanceMeters>NAN</DistanceMeters>
          </Trackpoint>
          <Trackpoint>
            <Time>2019-10-08T09:12:47.000Z</Time>
            <Position>
              <LatitudeDegrees>40.08061165921390056610107421875</LatitudeDegrees>
              <LongitudeDegrees>-6.08484931290149688720703125</LongitudeDegrees>
            </Position>
            <AltitudeMeters>266</AltitudeMeters>
            <DistanceMeters>NAN</DistanceMeters>
          </Trackpoint>
          <Trackpoint>
            <Time>2019-10-08T09:12:49.000Z</Time>
            <Position>
              <LatitudeDegrees>40.080474279820919036865234375</LatitudeDegrees>
              <LongitudeDegrees>-6.08510051853954792022705078125</LongitudeDegrees>
            </Position>
            <AltitudeMeters>264.600006103515625</AltitudeMeters>
            <DistanceMeters>NAN</DistanceMeters>
          </Trackpoint>
          <Trackpoint>
            <Time>2019-10-08T09:12:51.000Z</Time>
            <Position>
              <LatitudeDegrees>40.080332793295383453369140625</LatitudeDegrees>
              <LongitudeDegrees>-6.08533806167542934417724609375</LongitudeDegrees>
            </Position>
            <AltitudeMeters>264</AltitudeMeters>
            <DistanceMeters>NAN</DistanceMeters>
          </Trackpoint>
          <Trackpoint>
            <Time>2019-10-08T09:12:52.000Z</Time>
            <Position>
              <LatitudeDegrees>40.08026213385164737701416015625</LatitudeDegrees>
              <LongitudeDegrees>-6.08545540831983089447021484375</LongitudeDegrees>
            </Position>
            <AltitudeMeters>263.600006103515625</AltitudeMeters>
            <DistanceMeters>NAN</DistanceMeters>
          </Trackpoint>
          <Trackpoint>
            <Time>2019-10-08T09:12:54.000Z</Time>
            <Position>
              <LatitudeDegrees>40.08012400008738040924072265625</LatitudeDegrees>
              <LongitudeDegrees>-6.0856896825134754180908203125</LongitudeDegrees>
            </Position>
            <AltitudeMeters>263.20001220703125</AltitudeMeters>
            <DistanceMeters>NAN</DistanceMeters>
          </Trackpoint>
          <Trackpoint>
            <Time>2019-10-08T09:12:56.000Z</Time>
            <Position>
              <LatitudeDegrees>40.07999022491276264190673828125</LatitudeDegrees>
              <LongitudeDegrees>-6.0859200172126293182373046875</LongitudeDegrees>
            </Position>
            <AltitudeMeters>262</AltitudeMeters>
            <DistanceMeters>NAN</DistanceMeters>
          </Trackpoint>
          <Trackpoint>
            <Time>2019-10-08T09:12:58.000Z</Time>
            <Position>
              <LatitudeDegrees>40.07985661737620830535888671875</LatitudeDegrees>
              <LongitudeDegrees>-6.086150519549846649169921875</LongitudeDegrees>
            </Position>
            <AltitudeMeters>261.399993896484375</AltitudeMeters>
            <DistanceMeters>NAN</DistanceMeters>
          </Trackpoint>
          <Trackpoint>
            <Time>2019-10-08T09:12:59.000Z</Time>
            <Position>
              <LatitudeDegrees>40.0797884725034236907958984375</LatitudeDegrees>
              <LongitudeDegrees>-6.08626342378556728363037109375</LongitudeDegrees>
            </Position>
            <AltitudeMeters>261</AltitudeMeters>
            <DistanceMeters>NAN</DistanceMeters>
          </Trackpoint>
          <Trackpoint>
            <Time>2019-10-08T09:13:00.000Z</Time>
            <Position>
              <LatitudeDegrees>40.0797217525541782379150390625</LatitudeDegrees>
              <LongitudeDegrees>-6.0863749869167804718017578125</LongitudeDegrees>
            </Position>
            <AltitudeMeters>260.79998779296875</AltitudeMeters>
            <DistanceMeters>NAN</DistanceMeters>
          </Trackpoint>
          <Trackpoint>
            <Time>2019-10-08T09:13:01.000Z</Time>
            <Position>
              <LatitudeDegrees>40.07965587079524993896484375</LatitudeDegrees>
              <LongitudeDegrees>-6.08648839406669139862060546875</LongitudeDegrees>
            </Position>
            <AltitudeMeters>259.79998779296875</AltitudeMeters>
            <DistanceMeters>NAN</DistanceMeters>
          </Trackpoint>
          <Trackpoint>
            <Time>2019-10-08T09:13:03.000Z</Time>
            <Position>
              <LatitudeDegrees>40.07952201180160045623779296875</LatitudeDegrees>
              <LongitudeDegrees>-6.0867139510810375213623046875</LongitudeDegrees>
            </Position>
            <AltitudeMeters>258.79998779296875</AltitudeMeters>
            <DistanceMeters>NAN</DistanceMeters>
          </Trackpoint>
          <Trackpoint>
            <Time>2019-10-08T09:13:05.000Z</Time>
            <Position>
              <LatitudeDegrees>40.07938924245536327362060546875</LatitudeDegrees>
              <LongitudeDegrees>-6.0869394242763519287109375</LongitudeDegrees>
            </Position>
            <AltitudeMeters>258</AltitudeMeters>
            <DistanceMeters>NAN</DistanceMeters>
          </Trackpoint>
          <Trackpoint>
            <Time>2019-10-08T09:13:06.000Z</Time>
            <Position>
              <LatitudeDegrees>40.079321600496768951416015625</LatitudeDegrees>
              <LongitudeDegrees>-6.08705249615013599395751953125</LongitudeDegrees>
            </Position>
            <AltitudeMeters>257.399993896484375</AltitudeMeters>
            <DistanceMeters>NAN</DistanceMeters>
          </Trackpoint>
          <Trackpoint>
            <Time>2019-10-08T09:13:09.000Z</Time>
            <Position>
              <LatitudeDegrees>40.07913107983767986297607421875</LatitudeDegrees>
              <LongitudeDegrees>-6.08738542534410953521728515625</LongitudeDegrees>
            </Position>
            <AltitudeMeters>255.8000030517578125</AltitudeMeters>
            <DistanceMeters>NAN</DistanceMeters>
          </Trackpoint>
          <Trackpoint>
            <Time>2019-10-08T09:13:11.000Z</Time>
            <Position>
              <LatitudeDegrees>40.07900451309978961944580078125</LatitudeDegrees>
              <LongitudeDegrees>-6.08759731985628604888916015625</LongitudeDegrees>
            </Position>
            <AltitudeMeters>255.1999969482421875</AltitudeMeters>
            <DistanceMeters>NAN</DistanceMeters>
          </Trackpoint>
          <Trackpoint>
            <Time>2019-10-08T09:13:17.000Z</Time>
            <Position>
              <LatitudeDegrees>40.07864224724471569061279296875</LatitudeDegrees>
              <LongitudeDegrees>-6.08822026289999485015869140625</LongitudeDegrees>
            </Position>
            <AltitudeMeters>255.399993896484375</AltitudeMeters>
            <DistanceMeters>NAN</DistanceMeters>
          </Trackpoint>
          <Trackpoint>
            <Time>2019-10-08T09:13:20.000Z</Time>
            <Position>
              <LatitudeDegrees>40.07847041822969913482666015625</LatitudeDegrees>
              <LongitudeDegrees>-6.08851321041584014892578125</LongitudeDegrees>
            </Position>
            <AltitudeMeters>255.399993896484375</AltitudeMeters>
            <DistanceMeters>NAN</DistanceMeters>
          </Trackpoint>
          <Trackpoint>
            <Time>2019-10-08T09:13:25.000Z</Time>
            <Position>
              <LatitudeDegrees>40.07819884456694126129150390625</LatitudeDegrees>
              <LongitudeDegrees>-6.08898620121181011199951171875</LongitudeDegrees>
            </Position>
            <AltitudeMeters>255.1999969482421875</AltitudeMeters>
            <DistanceMeters>NAN</DistanceMeters>
          </Trackpoint>
          <Trackpoint>
            <Time>2019-10-08T09:13:26.000Z</Time>
            <Position>
              <LatitudeDegrees>40.0781472958624362945556640625</LatitudeDegrees>
              <LongitudeDegrees>-6.08908049762248992919921875</LongitudeDegrees>
            </Position>
            <AltitudeMeters>254.8000030517578125</AltitudeMeters>
            <DistanceMeters>NAN</DistanceMeters>
          </Trackpoint>
          <Trackpoint>
            <Time>2019-10-08T09:13:30.000Z</Time>
            <Position>
              <LatitudeDegrees>40.0779441185295581817626953125</LatitudeDegrees>
              <LongitudeDegrees>-6.08944636769592761993408203125</LongitudeDegrees>
            </Position>
            <AltitudeMeters>253.8000030517578125</AltitudeMeters>
            <DistanceMeters>NAN</DistanceMeters>
          </Trackpoint>
          <Trackpoint>
            <Time>2019-10-08T09:13:33.000Z</Time>
            <Position>
              <LatitudeDegrees>40.0777885504066944122314453125</LatitudeDegrees>
              <LongitudeDegrees>-6.089705117046833038330078125</LongitudeDegrees>
            </Position>
            <AltitudeMeters>253.600006103515625</AltitudeMeters>
            <DistanceMeters>NAN</DistanceMeters>
          </Trackpoint>
          <Trackpoint>
            <Time>2019-10-08T09:13:35.000Z</Time>
            <Position>
              <LatitudeDegrees>40.07768712937831878662109375</LatitudeDegrees>
              <LongitudeDegrees>-6.08987652696669101715087890625</LongitudeDegrees>
            </Position>
            <AltitudeMeters>252.8000030517578125</AltitudeMeters>
            <DistanceMeters>NAN</DistanceMeters>
          </Trackpoint>
          <Trackpoint>
            <Time>2019-10-08T09:13:40.000Z</Time>
            <Position>
              <LatitudeDegrees>40.0774412043392658233642578125</LatitudeDegrees>
              <LongitudeDegrees>-6.0903024114668369293212890625</LongitudeDegrees>
            </Position>
            <AltitudeMeters>252.399993896484375</AltitudeMeters>
            <DistanceMeters>NAN</DistanceMeters>
          </Trackpoint>
          <Trackpoint>
            <Time>2019-10-08T09:13:42.000Z</Time>
            <Position>
              <LatitudeDegrees>40.0773409567773342132568359375</LatitudeDegrees>
              <LongitudeDegrees>-6.09047901816666126251220703125</LongitudeDegrees>
            </Position>
            <AltitudeMeters>251.600006103515625</AltitudeMeters>
            <DistanceMeters>NAN</DistanceMeters>
          </Trackpoint>
          <Trackpoint>
            <Time>2019-10-08T09:13:44.000Z</Time>
            <Position>
              <LatitudeDegrees>40.077241547405719757080078125</LatitudeDegrees>
              <LongitudeDegrees>-6.09065361320972442626953125</LongitudeDegrees>
            </Position>
            <AltitudeMeters>251.1999969482421875</AltitudeMeters>
            <DistanceMeters>NAN</DistanceMeters>
          </Trackpoint>
          <Trackpoint>
            <Time>2019-10-08T09:13:45.000Z</Time>
            <Position>
              <LatitudeDegrees>40.07719234563410282135009765625</LatitudeDegrees>
              <LongitudeDegrees>-6.0907429642975330352783203125</LongitudeDegrees>
            </Position>
            <AltitudeMeters>251.1999969482421875</AltitudeMeters>
            <DistanceMeters>NAN</DistanceMeters>
          </Trackpoint>
          <Trackpoint>
            <Time>2019-10-08T09:13:49.000Z</Time>
            <Position>
              <LatitudeDegrees>40.0769962929189205169677734375</LatitudeDegrees>
              <LongitudeDegrees>-6.0910950042307376861572265625</LongitudeDegrees>
            </Position>
            <AltitudeMeters>250.1999969482421875</AltitudeMeters>
            <DistanceMeters>NAN</DistanceMeters>
          </Trackpoint>
          <Trackpoint>
            <Time>2019-10-08T09:13:53.000Z</Time>
            <Position>
              <LatitudeDegrees>40.07679395377635955810546875</LatitudeDegrees>
              <LongitudeDegrees>-6.09144888818264007568359375</LongitudeDegrees>
            </Position>
            <AltitudeMeters>249.8000030517578125</AltitudeMeters>
            <DistanceMeters>NAN</DistanceMeters>
          </Trackpoint>
          <Trackpoint>
            <Time>2019-10-08T09:13:56.000Z</Time>
            <Position>
              <LatitudeDegrees>40.07664416916668415069580078125</LatitudeDegrees>
              <LongitudeDegrees>-6.0917156003415584564208984375</LongitudeDegrees>
            </Position>
            <AltitudeMeters>249.1999969482421875</AltitudeMeters>
            <DistanceMeters>NAN</DistanceMeters>
          </Trackpoint>
          <Trackpoint>
            <Time>2019-10-08T09:13:57.000Z</Time>
            <Position>
              <LatitudeDegrees>40.0765947997570037841796875</LatitudeDegrees>
              <LongitudeDegrees>-6.09180654399096965789794921875</LongitudeDegrees>
            </Position>
            <AltitudeMeters>248.8000030517578125</AltitudeMeters>
            <DistanceMeters>NAN</DistanceMeters>
          </Trackpoint>
          <Trackpoint>
            <Time>2019-10-08T09:14:00.000Z</Time>
            <Position>
              <LatitudeDegrees>40.07643965072929859161376953125</LatitudeDegrees>
              <LongitudeDegrees>-6.09207258559763431549072265625</LongitudeDegrees>
            </Position>
            <AltitudeMeters>247.600006103515625</AltitudeMeters>
            <DistanceMeters>NAN</DistanceMeters>
          </Trackpoint>
          <Trackpoint>
            <Time>2019-10-08T09:14:04.000Z</Time>
            <Position>
              <LatitudeDegrees>40.07623605430126190185546875</LatitudeDegrees>
              <LongitudeDegrees>-6.09241976402699947357177734375</LongitudeDegrees>
            </Position>
            <AltitudeMeters>247</AltitudeMeters>
            <DistanceMeters>NAN</DistanceMeters>
          </Trackpoint>
          <Trackpoint>
            <Time>2019-10-08T09:14:09.000Z</Time>
            <Position>
              <LatitudeDegrees>40.07599021308124065399169921875</LatitudeDegrees>
              <LongitudeDegrees>-6.09285696409642696380615234375</LongitudeDegrees>
            </Position>
            <AltitudeMeters>246.399993896484375</AltitudeMeters>
            <DistanceMeters>NAN</DistanceMeters>
          </Trackpoint>
          <Trackpoint>
            <Time>2019-10-08T09:14:13.000Z</Time>
            <Position>
              <LatitudeDegrees>40.07578820921480655670166015625</LatitudeDegrees>
              <LongitudeDegrees>-6.09321034513413906097412109375</LongitudeDegrees>
            </Position>
            <AltitudeMeters>246</AltitudeMeters>
            <DistanceMeters>NAN</DistanceMeters>
          </Trackpoint>
          <Trackpoint>
            <Time>2019-10-08T09:14:15.000Z</Time>
            <Position>
              <LatitudeDegrees>40.07568812929093837738037109375</LatitudeDegrees>
              <LongitudeDegrees>-6.0933869518339633941650390625</LongitudeDegrees>
            </Position>
            <AltitudeMeters>245.399993896484375</AltitudeMeters>
            <DistanceMeters>NAN</DistanceMeters>
          </Trackpoint>
          <Trackpoint>
            <Time>2019-10-08T09:14:20.000Z</Time>
            <Position>
              <LatitudeDegrees>40.075431056320667266845703125</LatitudeDegrees>
              <LongitudeDegrees>-6.09383647330105304718017578125</LongitudeDegrees>
            </Position>
            <AltitudeMeters>243.8000030517578125</AltitudeMeters>
            <DistanceMeters>NAN</DistanceMeters>
          </Trackpoint>
          <Trackpoint>
            <Time>2019-10-08T09:14:23.000Z</Time>
            <Position>
              <LatitudeDegrees>40.07527657784521579742431640625</LatitudeDegrees>
              <LongitudeDegrees>-6.094100587069988250732421875</LongitudeDegrees>
            </Position>
            <AltitudeMeters>243.399993896484375</AltitudeMeters>
            <DistanceMeters>NAN</DistanceMeters>
          </Trackpoint>
          <Trackpoint>
            <Time>2019-10-08T09:14:26.000Z</Time>
            <Position>
              <LatitudeDegrees>40.07512587122619152069091796875</LatitudeDegrees>
              <LongitudeDegrees>-6.09436386264860630035400390625</LongitudeDegrees>
            </Position>
            <AltitudeMeters>242.8000030517578125</AltitudeMeters>
            <DistanceMeters>NAN</DistanceMeters>
          </Trackpoint>
          <Trackpoint>
            <Time>2019-10-08T09:14:30.000Z</Time>
            <Position>
              <LatitudeDegrees>40.07491716183722019195556640625</LatitudeDegrees>
              <LongitudeDegrees>-6.09471741132438182830810546875</LongitudeDegrees>
            </Position>
            <AltitudeMeters>241.600006103515625</AltitudeMeters>
            <DistanceMeters>NAN</DistanceMeters>
          </Trackpoint>
          <Trackpoint>
            <Time>2019-10-08T09:14:34.000Z</Time>
            <Position>
              <LatitudeDegrees>40.0747130624949932098388671875</LatitudeDegrees>
              <LongitudeDegrees>-6.09507657587528228759765625</LongitudeDegrees>
            </Position>
            <AltitudeMeters>241.600006103515625</AltitudeMeters>
            <DistanceMeters>NAN</DistanceMeters>
          </Trackpoint>
          <Trackpoint>
            <Time>2019-10-08T09:14:38.000Z</Time>
            <Position>
              <LatitudeDegrees>40.07450561039149761199951171875</LatitudeDegrees>
              <LongitudeDegrees>-6.09543356113135814666748046875</LongitudeDegrees>
            </Position>
            <AltitudeMeters>240.399993896484375</AltitudeMeters>
            <DistanceMeters>NAN</DistanceMeters>
          </Trackpoint>
          <Trackpoint>
            <Time>2019-10-08T09:14:43.000Z</Time>
            <Position>
              <LatitudeDegrees>40.074254237115383148193359375</LatitudeDegrees>
              <LongitudeDegrees>-6.09588182531297206878662109375</LongitudeDegrees>
            </Position>
            <AltitudeMeters>239.8000030517578125</AltitudeMeters>
            <DistanceMeters>NAN</DistanceMeters>
          </Trackpoint>
          <Trackpoint>
            <Time>2019-10-08T09:14:45.000Z</Time>
            <Position>
              <LatitudeDegrees>40.07415466010570526123046875</LatitudeDegrees>
              <LongitudeDegrees>-6.09606496989727020263671875</LongitudeDegrees>
            </Position>
            <AltitudeMeters>239.1999969482421875</AltitudeMeters>
            <DistanceMeters>NAN</DistanceMeters>
          </Trackpoint>
          <Trackpoint>
            <Time>2019-10-08T09:14:49.000Z</Time>
            <Position>
              <LatitudeDegrees>40.073944441974163055419921875</LatitudeDegrees>
              <LongitudeDegrees>-6.0964302532374858856201171875</LongitudeDegrees>
            </Position>
            <AltitudeMeters>238.1999969482421875</AltitudeMeters>
            <DistanceMeters>NAN</DistanceMeters>
          </Trackpoint>
          <Trackpoint>
            <Time>2019-10-08T09:14:56.000Z</Time>
            <Position>
              <LatitudeDegrees>40.07358561269938945770263671875</LatitudeDegrees>
              <LongitudeDegrees>-6.0970625840127468109130859375</LongitudeDegrees>
            </Position>
            <AltitudeMeters>237.1999969482421875</AltitudeMeters>
            <DistanceMeters>NAN</DistanceMeters>
          </Trackpoint>
          <Trackpoint>
            <Time>2019-10-08T09:14:59.000Z</Time>
            <Position>
              <LatitudeDegrees>40.073428787291049957275390625</LatitudeDegrees>
              <LongitudeDegrees>-6.09733340330421924591064453125</LongitudeDegrees>
            </Position>
            <AltitudeMeters>237.1999969482421875</AltitudeMeters>
            <DistanceMeters>NAN</DistanceMeters>
          </Trackpoint>
          <Trackpoint>
            <Time>2019-10-08T09:15:03.000Z</Time>
            <Position>
              <LatitudeDegrees>40.0732241012156009674072265625</LatitudeDegrees>
              <LongitudeDegrees>-6.09769307076930999755859375</LongitudeDegrees>
            </Position>
            <AltitudeMeters>236</AltitudeMeters>
            <DistanceMeters>NAN</DistanceMeters>
          </Trackpoint>
          <Trackpoint>
            <Time>2019-10-08T09:15:05.000Z</Time>
            <Position>
              <LatitudeDegrees>40.0731198303401470184326171875</LatitudeDegrees>
              <LongitudeDegrees>-6.09786867164075374603271484375</LongitudeDegrees>
            </Position>
            <AltitudeMeters>236.1999969482421875</AltitudeMeters>
            <DistanceMeters>NAN</DistanceMeters>
          </Trackpoint>
          <Trackpoint>
            <Time>2019-10-08T09:15:12.000Z</Time>
            <Position>
              <LatitudeDegrees>40.072720684111118316650390625</LatitudeDegrees>
              <LongitudeDegrees>-6.09844517894089221954345703125</LongitudeDegrees>
            </Position>
            <AltitudeMeters>235.1999969482421875</AltitudeMeters>
            <DistanceMeters>NAN</DistanceMeters>
          </Trackpoint>
          <Trackpoint>
            <Time>2019-10-08T09:15:13.000Z</Time>
            <Position>
              <LatitudeDegrees>40.0726568140089511871337890625</LatitudeDegrees>
              <LongitudeDegrees>-6.09851977787911891937255859375</LongitudeDegrees>
            </Position>
            <AltitudeMeters>234.8000030517578125</AltitudeMeters>
            <DistanceMeters>NAN</DistanceMeters>
          </Trackpoint>
          <Trackpoint>
            <Time>2019-10-08T09:15:20.000Z</Time>
            <Position>
              <LatitudeDegrees>40.0721964798867702484130859375</LatitudeDegrees>
              <LongitudeDegrees>-6.09903417527675628662109375</LongitudeDegrees>
            </Position>
            <AltitudeMeters>234.1999969482421875</AltitudeMeters>
            <DistanceMeters>NAN</DistanceMeters>
          </Trackpoint>
          <Trackpoint>
            <Time>2019-10-08T09:15:21.000Z</Time>
            <Position>
              <LatitudeDegrees>40.07212732918560504913330078125</LatitudeDegrees>
              <LongitudeDegrees>-6.099104583263397216796875</LongitudeDegrees>
            </Position>
            <AltitudeMeters>233.600006103515625</AltitudeMeters>
            <DistanceMeters>NAN</DistanceMeters>
          </Trackpoint>
          <Trackpoint>
            <Time>2019-10-08T09:15:28.000Z</Time>
            <Position>
              <LatitudeDegrees>40.07165609858930110931396484375</LatitudeDegrees>
              <LongitudeDegrees>-6.09960238449275493621826171875</LongitudeDegrees>
            </Position>
            <AltitudeMeters>232.399993896484375</AltitudeMeters>
            <DistanceMeters>NAN</DistanceMeters>
          </Trackpoint>
          <Trackpoint>
            <Time>2019-10-08T09:15:29.000Z</Time>
            <Position>
              <LatitudeDegrees>40.0715892948210239410400390625</LatitudeDegrees>
              <LongitudeDegrees>-6.0996718704700469970703125</LongitudeDegrees>
            </Position>
            <AltitudeMeters>232.399993896484375</AltitudeMeters>
            <DistanceMeters>NAN</DistanceMeters>
          </Trackpoint>
          <Trackpoint>
            <Time>2019-10-08T09:15:33.000Z</Time>
            <Position>
              <LatitudeDegrees>40.0713197328150272369384765625</LatitudeDegrees>
              <LongitudeDegrees>-6.0999506525695323944091796875</LongitudeDegrees>
            </Position>
            <AltitudeMeters>231</AltitudeMeters>
            <DistanceMeters>NAN</DistanceMeters>
          </Trackpoint>
          <Trackpoint>
            <Time>2019-10-08T09:15:36.000Z</Time>
            <Position>
              <LatitudeDegrees>40.0711279548704624176025390625</LatitudeDegrees>
              <LongitudeDegrees>-6.1001608707010746002197265625</LongitudeDegrees>
            </Position>
            <AltitudeMeters>231.1999969482421875</AltitudeMeters>
            <DistanceMeters>NAN</DistanceMeters>
          </Trackpoint>
          <Trackpoint>
            <Time>2019-10-08T09:15:43.000Z</Time>
            <Position>
              <LatitudeDegrees>40.0706827081739902496337890625</LatitudeDegrees>
              <LongitudeDegrees>-6.100630424916744232177734375</LongitudeDegrees>
            </Position>
            <AltitudeMeters>231</AltitudeMeters>
            <DistanceMeters>NAN</DistanceMeters>
          </Trackpoint>
          <Trackpoint>
            <Time>2019-10-08T09:15:46.000Z</Time>
            <Position>
              <LatitudeDegrees>40.07048933766782283782958984375</LatitudeDegrees>
              <LongitudeDegrees>-6.10083502717316150665283203125</LongitudeDegrees>
            </Position>
            <AltitudeMeters>230.600006103515625</AltitudeMeters>
            <DistanceMeters>NAN</DistanceMeters>
          </Trackpoint>
          <Trackpoint>
            <Time>2019-10-08T09:15:51.000Z</Time>
            <Position>
              <LatitudeDegrees>40.07016814313828945159912109375</LatitudeDegrees>
              <LongitudeDegrees>-6.10117080621421337127685546875</LongitudeDegrees>
            </Position>
            <AltitudeMeters>229.8000030517578125</AltitudeMeters>
            <DistanceMeters>NAN</DistanceMeters>
          </Trackpoint>
          <Trackpoint>
            <Time>2019-10-08T09:15:57.000Z</Time>
            <Position>
              <LatitudeDegrees>40.06978592835366725921630859375</LatitudeDegrees>
              <LongitudeDegrees>-6.10157556831836700439453125</LongitudeDegrees>
            </Position>
            <AltitudeMeters>228.600006103515625</AltitudeMeters>
            <DistanceMeters>NAN</DistanceMeters>
          </Trackpoint>
          <Trackpoint>
            <Time>2019-10-08T09:16:04.000Z</Time>
            <Position>
              <LatitudeDegrees>40.06934319622814655303955078125</LatitudeDegrees>
              <LongitudeDegrees>-6.10204420052468776702880859375</LongitudeDegrees>
            </Position>
            <AltitudeMeters>228</AltitudeMeters>
            <DistanceMeters>NAN</DistanceMeters>
          </Trackpoint>
          <Trackpoint>
            <Time>2019-10-08T09:16:07.000Z</Time>
            <Position>
              <LatitudeDegrees>40.06915728561580181121826171875</LatitudeDegrees>
              <LongitudeDegrees>-6.102242767810821533203125</LongitudeDegrees>
            </Position>
            <AltitudeMeters>227.8000030517578125</AltitudeMeters>
            <DistanceMeters>NAN</DistanceMeters>
          </Trackpoint>
          <Trackpoint>
            <Time>2019-10-08T09:16:10.000Z</Time>
            <Position>
              <LatitudeDegrees>40.06897070445120334625244140625</LatitudeDegrees>
              <LongitudeDegrees>-6.10243882052600383758544921875</LongitudeDegrees>
            </Position>
            <AltitudeMeters>227.600006103515625</AltitudeMeters>
            <DistanceMeters>NAN</DistanceMeters>
          </Trackpoint>
          <Trackpoint>
            <Time>2019-10-08T09:16:15.000Z</Time>
            <Position>
              <LatitudeDegrees>40.06865671835839748382568359375</LatitudeDegrees>
              <LongitudeDegrees>-6.10275280661880970001220703125</LongitudeDegrees>
            </Position>
            <AltitudeMeters>227.1999969482421875</AltitudeMeters>
            <DistanceMeters>NAN</DistanceMeters>
          </Trackpoint>
          <Trackpoint>
            <Time>2019-10-08T09:16:21.000Z</Time>
            <Position>
              <LatitudeDegrees>40.06825371645390987396240234375</LatitudeDegrees>
              <LongitudeDegrees>-6.10308104194700717926025390625</LongitudeDegrees>
            </Position>
            <AltitudeMeters>226.600006103515625</AltitudeMeters>
            <DistanceMeters>NAN</DistanceMeters>
          </Trackpoint>
          <Trackpoint>
            <Time>2019-10-08T09:16:22.000Z</Time>
            <Position>
              <LatitudeDegrees>40.06818230263888835906982421875</LatitudeDegrees>
              <LongitudeDegrees>-6.103132255375385284423828125</LongitudeDegrees>
            </Position>
            <AltitudeMeters>226.1999969482421875</AltitudeMeters>
            <DistanceMeters>NAN</DistanceMeters>
          </Trackpoint>
          <Trackpoint>
            <Time>2019-10-08T09:16:29.000Z</Time>
            <Position>
              <LatitudeDegrees>40.06766346283257007598876953125</LatitudeDegrees>
              <LongitudeDegrees>-6.10344640910625457763671875</LongitudeDegrees>
            </Position>
            <AltitudeMeters>226</AltitudeMeters>
            <DistanceMeters>NAN</DistanceMeters>
          </Trackpoint>
          <Trackpoint>
            <Time>2019-10-08T09:16:30.000Z</Time>
            <Position>
              <LatitudeDegrees>40.06758785806596279144287109375</LatitudeDegrees>
              <LongitudeDegrees>-6.10348689369857311248779296875</LongitudeDegrees>
            </Position>
            <AltitudeMeters>226</AltitudeMeters>
            <DistanceMeters>NAN</DistanceMeters>
          </Trackpoint>
          <Trackpoint>
            <Time>2019-10-08T09:16:37.000Z</Time>
            <Position>
              <LatitudeDegrees>40.0670717842876911163330078125</LatitudeDegrees>
              <LongitudeDegrees>-6.10377808101475238800048828125</LongitudeDegrees>
            </Position>
            <AltitudeMeters>225.8000030517578125</AltitudeMeters>
            <DistanceMeters>NAN</DistanceMeters>
          </Trackpoint>
          <Trackpoint>
            <Time>2019-10-08T09:16:39.000Z</Time>
            <Position>
              <LatitudeDegrees>40.06692786701023578643798828125</LatitudeDegrees>
              <LongitudeDegrees>-6.1038539372384548187255859375</LongitudeDegrees>
            </Position>
            <AltitudeMeters>225.399993896484375</AltitudeMeters>
            <DistanceMeters>NAN</DistanceMeters>
          </Trackpoint>
          <Trackpoint>
            <Time>2019-10-08T09:16:41.000Z</Time>
            <Position>
              <LatitudeDegrees>40.0667804293334484100341796875</LatitudeDegrees>
              <LongitudeDegrees>-6.103913784027099609375</LongitudeDegrees>
            </Position>
            <AltitudeMeters>225.399993896484375</AltitudeMeters>
            <DistanceMeters>NAN</DistanceMeters>
          </Trackpoint>
          <Trackpoint>
            <Time>2019-10-08T09:16:47.000Z</Time>
            <Position>
              <LatitudeDegrees>40.06631867028772830963134765625</LatitudeDegrees>
              <LongitudeDegrees>-6.10400388948619365692138671875</LongitudeDegrees>
            </Position>
            <AltitudeMeters>225</AltitudeMeters>
            <DistanceMeters>NAN</DistanceMeters>
          </Trackpoint>
          <Trackpoint>
            <Time>2019-10-08T09:16:52.000Z</Time>
            <Position>
              <LatitudeDegrees>40.06591583602130413055419921875</LatitudeDegrees>
              <LongitudeDegrees>-6.103928200900554656982421875</LongitudeDegrees>
            </Position>
            <AltitudeMeters>224.1999969482421875</AltitudeMeters>
            <DistanceMeters>NAN</DistanceMeters>
          </Trackpoint>
          <Trackpoint>
            <Time>2019-10-08T09:16:56.000Z</Time>
            <Position>
              <LatitudeDegrees>40.06559036672115325927734375</LatitudeDegrees>
              <LongitudeDegrees>-6.103827618062496185302734375</LongitudeDegrees>
            </Position>
            <AltitudeMeters>222.600006103515625</AltitudeMeters>
            <DistanceMeters>NAN</DistanceMeters>
          </Trackpoint>
          <Trackpoint>
            <Time>2019-10-08T09:17:01.000Z</Time>
            <Position>
              <LatitudeDegrees>40.06519096903502941131591796875</LatitudeDegrees>
              <LongitudeDegrees>-6.10370700247585773468017578125</LongitudeDegrees>
            </Position>
            <AltitudeMeters>222.1999969482421875</AltitudeMeters>
            <DistanceMeters>NAN</DistanceMeters>
          </Trackpoint>
          <Trackpoint>
            <Time>2019-10-08T09:17:07.000Z</Time>
            <Position>
              <LatitudeDegrees>40.06473583169281482696533203125</LatitudeDegrees>
              <LongitudeDegrees>-6.1036916635930538177490234375</LongitudeDegrees>
            </Position>
            <AltitudeMeters>223</AltitudeMeters>
            <DistanceMeters>NAN</DistanceMeters>
          </Trackpoint>
          <Trackpoint>
            <Time>2019-10-08T09:17:09.000Z</Time>
            <Position>
              <LatitudeDegrees>40.064596943557262420654296875</LatitudeDegrees>
              <LongitudeDegrees>-6.103728711605072021484375</LongitudeDegrees>
            </Position>
            <AltitudeMeters>223.1999969482421875</AltitudeMeters>
            <DistanceMeters>NAN</DistanceMeters>
          </Trackpoint>
          <Trackpoint>
            <Time>2019-10-08T09:17:11.000Z</Time>
            <Position>
              <LatitudeDegrees>40.0644720532000064849853515625</LatitudeDegrees>
              <LongitudeDegrees>-6.1037865467369556427001953125</LongitudeDegrees>
            </Position>
            <AltitudeMeters>223.8000030517578125</AltitudeMeters>
            <DistanceMeters>NAN</DistanceMeters>
          </Trackpoint>
          <Trackpoint>
            <Time>2019-10-08T09:17:12.000Z</Time>
            <Position>
              <LatitudeDegrees>40.0644147209823131561279296875</LatitudeDegrees>
              <LongitudeDegrees>-6.10381781123578548431396484375</LongitudeDegrees>
            </Position>
            <AltitudeMeters>224</AltitudeMeters>
            <DistanceMeters>NAN</DistanceMeters>
          </Trackpoint>
          <Trackpoint>
            <Time>2019-10-08T09:17:15.000Z</Time>
            <Position>
              <LatitudeDegrees>40.06426292471587657928466796875</LatitudeDegrees>
              <LongitudeDegrees>-6.10392074100673198699951171875</LongitudeDegrees>
            </Position>
            <AltitudeMeters>225.1999969482421875</AltitudeMeters>
            <DistanceMeters>NAN</DistanceMeters>
          </Trackpoint>
          <Trackpoint>
            <Time>2019-10-08T09:17:17.000Z</Time>
            <Position>
              <LatitudeDegrees>40.06417818367481231689453125</LatitudeDegrees>
              <LongitudeDegrees>-6.10399483703076839447021484375</LongitudeDegrees>
            </Position>
            <AltitudeMeters>225.8000030517578125</AltitudeMeters>
            <DistanceMeters>NAN</DistanceMeters>
          </Trackpoint>
          <Trackpoint>
            <Time>2019-10-08T09:17:18.000Z</Time>
            <Position>
              <LatitudeDegrees>40.06414038129150867462158203125</LatitudeDegrees>
              <LongitudeDegrees>-6.10403222031891345977783203125</LongitudeDegrees>
            </Position>
            <AltitudeMeters>226.1999969482421875</AltitudeMeters>
            <DistanceMeters>NAN</DistanceMeters>
          </Trackpoint>
          <Trackpoint>
            <Time>2019-10-08T09:17:24.000Z</Time>
            <Position>
              <LatitudeDegrees>40.0639339350163936614990234375</LatitudeDegrees>
              <LongitudeDegrees>-6.10424076206982135772705078125</LongitudeDegrees>
            </Position>
            <AltitudeMeters>227.399993896484375</AltitudeMeters>
            <DistanceMeters>NAN</DistanceMeters>
          </Trackpoint>
          <Trackpoint>
            <Time>2019-10-08T09:17:25.000Z</Time>
            <Position>
              <LatitudeDegrees>40.06390149705111980438232421875</LatitudeDegrees>
              <LongitudeDegrees>-6.104274205863475799560546875</LongitudeDegrees>
            </Position>
            <AltitudeMeters>227.600006103515625</AltitudeMeters>
            <DistanceMeters>NAN</DistanceMeters>
          </Trackpoint>
          <Trackpoint>
            <Time>2019-10-08T09:17:29.000Z</Time>
            <Position>
              <LatitudeDegrees>40.06377509795129299163818359375</LatitudeDegrees>
              <LongitudeDegrees>-6.1043967492878437042236328125</LongitudeDegrees>
            </Position>
            <AltitudeMeters>228.8000030517578125</AltitudeMeters>
            <DistanceMeters>NAN</DistanceMeters>
          </Trackpoint>
          <Trackpoint>
            <Time>2019-10-08T09:17:33.000Z</Time>
            <Position>
              <LatitudeDegrees>40.06365339271724224090576171875</LatitudeDegrees>
              <LongitudeDegrees>-6.10452071763575077056884765625</LongitudeDegrees>
            </Position>
            <AltitudeMeters>229.399993896484375</AltitudeMeters>
            <DistanceMeters>NAN</DistanceMeters>
          </Trackpoint>
          <Trackpoint>
            <Time>2019-10-08T09:17:35.000Z</Time>
            <Position>
              <LatitudeDegrees>40.0635929591953754425048828125</LatitudeDegrees>
              <LongitudeDegrees>-6.10458190552890300750732421875</LongitudeDegrees>
            </Position>
            <AltitudeMeters>229.8000030517578125</AltitudeMeters>
            <DistanceMeters>NAN</DistanceMeters>
          </Trackpoint>
          <Trackpoint>
            <Time>2019-10-08T09:17:41.000Z</Time>
            <Position>
              <LatitudeDegrees>40.0634166039526462554931640625</LatitudeDegrees>
              <LongitudeDegrees>-6.104760356247425079345703125</LongitudeDegrees>
            </Position>
            <AltitudeMeters>231</AltitudeMeters>
            <DistanceMeters>NAN</DistanceMeters>
          </Trackpoint>
          <Trackpoint>
            <Time>2019-10-08T09:17:44.000Z</Time>
            <Position>
              <LatitudeDegrees>40.06332549266517162322998046875</LatitudeDegrees>
              <LongitudeDegrees>-6.10483847558498382568359375</LongitudeDegrees>
            </Position>
            <AltitudeMeters>231.600006103515625</AltitudeMeters>
            <DistanceMeters>NAN</DistanceMeters>
          </Trackpoint>
          <Trackpoint>
            <Time>2019-10-08T09:17:47.000Z</Time>
            <Position>
              <LatitudeDegrees>40.06323563866317272186279296875</LatitudeDegrees>
              <LongitudeDegrees>-6.10492791049182415008544921875</LongitudeDegrees>
            </Position>
            <AltitudeMeters>232</AltitudeMeters>
            <DistanceMeters>NAN</DistanceMeters>
          </Trackpoint>
          <Trackpoint>
            <Time>2019-10-08T09:17:53.000Z</Time>
            <Position>
              <LatitudeDegrees>40.06306506693363189697265625</LatitudeDegrees>
              <LongitudeDegrees>-6.10510661266744136810302734375</LongitudeDegrees>
            </Position>
            <AltitudeMeters>232.8000030517578125</AltitudeMeters>
            <DistanceMeters>NAN</DistanceMeters>
          </Trackpoint>
          <Trackpoint>
            <Time>2019-10-08T09:17:56.000Z</Time>
            <Position>
              <LatitudeDegrees>40.0629777275025844573974609375</LatitudeDegrees>
              <LongitudeDegrees>-6.10518791712820529937744140625</LongitudeDegrees>
            </Position>
            <AltitudeMeters>233.1999969482421875</AltitudeMeters>
            <DistanceMeters>NAN</DistanceMeters>
          </Trackpoint>
          <Trackpoint>
            <Time>2019-10-08T09:17:59.000Z</Time>
            <Position>
              <LatitudeDegrees>40.06289969198405742645263671875</LatitudeDegrees>
              <LongitudeDegrees>-6.10527391545474529266357421875</LongitudeDegrees>
            </Position>
            <AltitudeMeters>234.399993896484375</AltitudeMeters>
            <DistanceMeters>NAN</DistanceMeters>
          </Trackpoint>
          <Trackpoint>
            <Time>2019-10-08T09:18:00.000Z</Time>
            <Position>
              <LatitudeDegrees>40.06287404336035251617431640625</LatitudeDegrees>
              <LongitudeDegrees>-6.1052986420691013336181640625</LongitudeDegrees>
            </Position>
            <AltitudeMeters>234.399993896484375</AltitudeMeters>
            <DistanceMeters>NAN</DistanceMeters>
          </Trackpoint>
          <Trackpoint>
            <Time>2019-10-08T09:18:08.000Z</Time>
            <Position>
              <LatitudeDegrees>40.06266005337238311767578125</LatitudeDegrees>
              <LongitudeDegrees>-6.1055169068276882171630859375</LongitudeDegrees>
            </Position>
            <AltitudeMeters>235.8000030517578125</AltitudeMeters>
            <DistanceMeters>NAN</DistanceMeters>
          </Trackpoint>
          <Trackpoint>
            <Time>2019-10-08T09:18:09.000Z</Time>
            <Position>
              <LatitudeDegrees>40.0626313872635364532470703125</LatitudeDegrees>
              <LongitudeDegrees>-6.10554230399429798126220703125</LongitudeDegrees>
            </Position>
            <AltitudeMeters>235.8000030517578125</AltitudeMeters>
            <DistanceMeters>NAN</DistanceMeters>
          </Trackpoint>
          <Trackpoint>
            <Time>2019-10-08T09:18:13.000Z</Time>
            <Position>
              <LatitudeDegrees>40.06252351216971874237060546875</LatitudeDegrees>
              <LongitudeDegrees>-6.1056424677371978759765625</LongitudeDegrees>
            </Position>
            <AltitudeMeters>236.8000030517578125</AltitudeMeters>
            <DistanceMeters>NAN</DistanceMeters>
          </Trackpoint>
          <Trackpoint>
            <Time>2019-10-08T09:18:16.000Z</Time>
            <Position>
              <LatitudeDegrees>40.0624426268041133880615234375</LatitudeDegrees>
              <LongitudeDegrees>-6.1057241074740886688232421875</LongitudeDegrees>
            </Position>
            <AltitudeMeters>237</AltitudeMeters>
            <DistanceMeters>NAN</DistanceMeters>
          </Trackpoint>
          <Trackpoint>
            <Time>2019-10-08T09:18:21.000Z</Time>
            <Position>
              <LatitudeDegrees>40.06230474449694156646728515625</LatitudeDegrees>
              <LongitudeDegrees>-6.105852685868740081787109375</LongitudeDegrees>
            </Position>
            <AltitudeMeters>237.8000030517578125</AltitudeMeters>
            <DistanceMeters>NAN</DistanceMeters>
          </Trackpoint>
          <Trackpoint>
            <Time>2019-10-08T09:18:28.000Z</Time>
            <Position>
              <LatitudeDegrees>40.062118582427501678466796875</LatitudeDegrees>
              <LongitudeDegrees>-6.10604454763233661651611328125</LongitudeDegrees>
            </Position>
            <AltitudeMeters>239</AltitudeMeters>
            <DistanceMeters>NAN</DistanceMeters>
          </Trackpoint>
          <Trackpoint>
            <Time>2019-10-08T09:18:36.000Z</Time>
            <Position>
              <LatitudeDegrees>40.06190928630530834197998046875</LatitudeDegrees>
              <LongitudeDegrees>-6.10625375993549823760986328125</LongitudeDegrees>
            </Position>
            <AltitudeMeters>240</AltitudeMeters>
            <DistanceMeters>NAN</DistanceMeters>
          </Trackpoint>
          <Trackpoint>
            <Time>2019-10-08T09:18:39.000Z</Time>
            <Position>
              <LatitudeDegrees>40.06182990968227386474609375</LatitudeDegrees>
              <LongitudeDegrees>-6.1063329689204692840576171875</LongitudeDegrees>
            </Position>
            <AltitudeMeters>240.8000030517578125</AltitudeMeters>
            <DistanceMeters>NAN</DistanceMeters>
          </Trackpoint>
          <Trackpoint>
            <Time>2019-10-08T09:18:41.000Z</Time>
            <Position>
              <LatitudeDegrees>40.06177567876875400543212890625</LatitudeDegrees>
              <LongitudeDegrees>-6.1063854396343231201171875</LongitudeDegrees>
            </Position>
            <AltitudeMeters>241.1999969482421875</AltitudeMeters>
            <DistanceMeters>NAN</DistanceMeters>
          </Trackpoint>
          <Trackpoint>
            <Time>2019-10-08T09:18:49.000Z</Time>
            <Position>
              <LatitudeDegrees>40.061553977429866790771484375</LatitudeDegrees>
              <LongitudeDegrees>-6.1065951548516750335693359375</LongitudeDegrees>
            </Position>
            <AltitudeMeters>242</AltitudeMeters>
            <DistanceMeters>NAN</DistanceMeters>
          </Trackpoint>
          <Trackpoint>
            <Time>2019-10-08T09:18:50.000Z</Time>
            <Position>
              <LatitudeDegrees>40.061525814235210418701171875</LatitudeDegrees>
              <LongitudeDegrees>-6.10662088729441165924072265625</LongitudeDegrees>
            </Position>
            <AltitudeMeters>242.399993896484375</AltitudeMeters>
            <DistanceMeters>NAN</DistanceMeters>
          </Trackpoint>
          <Trackpoint>
            <Time>2019-10-08T09:18:56.000Z</Time>
            <Position>
              <LatitudeDegrees>40.06136119365692138671875</LatitudeDegrees>
              <LongitudeDegrees>-6.10676832497119903564453125</LongitudeDegrees>
            </Position>
            <AltitudeMeters>243.399993896484375</AltitudeMeters>
            <DistanceMeters>NAN</DistanceMeters>
          </Trackpoint>
          <Trackpoint>
            <Time>2019-10-08T09:18:58.000Z</Time>
            <Position>
              <LatitudeDegrees>40.06130143068730831146240234375</LatitudeDegrees>
              <LongitudeDegrees>-6.10681484453380107879638671875</LongitudeDegrees>
            </Position>
            <AltitudeMeters>243.600006103515625</AltitudeMeters>
            <DistanceMeters>NAN</DistanceMeters>
          </Trackpoint>
          <Trackpoint>
            <Time>2019-10-08T09:19:02.000Z</Time>
            <Position>
              <LatitudeDegrees>40.061185173690319061279296875</LatitudeDegrees>
              <LongitudeDegrees>-6.1069066263735294342041015625</LongitudeDegrees>
            </Position>
            <AltitudeMeters>244.600006103515625</AltitudeMeters>
            <DistanceMeters>NAN</DistanceMeters>
          </Trackpoint>
          <Trackpoint>
            <Time>2019-10-08T09:19:09.000Z</Time>
            <Position>
              <LatitudeDegrees>40.0609871931374073028564453125</LatitudeDegrees>
              <LongitudeDegrees>-6.10706605017185211181640625</LongitudeDegrees>
            </Position>
            <AltitudeMeters>245.600006103515625</AltitudeMeters>
            <DistanceMeters>NAN</DistanceMeters>
          </Trackpoint>
          <Trackpoint>
            <Time>2019-10-08T09:19:16.000Z</Time>
            <Position>
              <LatitudeDegrees>40.0607856921851634979248046875</LatitudeDegrees>
              <LongitudeDegrees>-6.1072097159922122955322265625</LongitudeDegrees>
            </Position>
            <AltitudeMeters>246.8000030517578125</AltitudeMeters>
            <DistanceMeters>NAN</DistanceMeters>
          </Trackpoint>
          <Trackpoint>
            <Time>2019-10-08T09:19:18.000Z</Time>
            <Position>
              <LatitudeDegrees>40.060725845396518707275390625</LatitudeDegrees>
              <LongitudeDegrees>-6.10724307596683502197265625</LongitudeDegrees>
            </Position>
            <AltitudeMeters>247.1999969482421875</AltitudeMeters>
            <DistanceMeters>NAN</DistanceMeters>
          </Trackpoint>
          <Trackpoint>
            <Time>2019-10-08T09:19:21.000Z</Time>
            <Position>
              <LatitudeDegrees>40.06064026616513729095458984375</LatitudeDegrees>
              <LongitudeDegrees>-6.10729294829070568084716796875</LongitudeDegrees>
            </Position>
            <AltitudeMeters>248</AltitudeMeters>
            <DistanceMeters>NAN</DistanceMeters>
          </Trackpoint>
          <Trackpoint>
            <Time>2019-10-08T09:19:27.000Z</Time>
            <Position>
              <LatitudeDegrees>40.0604554452002048492431640625</LatitudeDegrees>
              <LongitudeDegrees>-6.1073659546673297882080078125</LongitudeDegrees>
            </Position>
            <AltitudeMeters>248.600006103515625</AltitudeMeters>
            <DistanceMeters>NAN</DistanceMeters>
          </Trackpoint>
          <Trackpoint>
            <Time>2019-10-08T09:19:29.000Z</Time>
            <Position>
              <LatitudeDegrees>40.06038864143192768096923828125</LatitudeDegrees>
              <LongitudeDegrees>-6.10737760551273822784423828125</LongitudeDegrees>
            </Position>
            <AltitudeMeters>249</AltitudeMeters>
            <DistanceMeters>NAN</DistanceMeters>
          </Trackpoint>
          <Trackpoint>
            <Time>2019-10-08T09:19:34.000Z</Time>
            <Position>
              <LatitudeDegrees>40.06021899171173572540283203125</LatitudeDegrees>
              <LongitudeDegrees>-6.10737727023661136627197265625</LongitudeDegrees>
            </Position>
            <AltitudeMeters>250</AltitudeMeters>
            <DistanceMeters>NAN</DistanceMeters>
          </Trackpoint>
          <Trackpoint>
            <Time>2019-10-08T09:19:41.000Z</Time>
            <Position>
              <LatitudeDegrees>40.05996401421725749969482421875</LatitudeDegrees>
              <LongitudeDegrees>-6.1073362827301025390625</LongitudeDegrees>
            </Position>
            <AltitudeMeters>250.1999969482421875</AltitudeMeters>
            <DistanceMeters>NAN</DistanceMeters>
          </Trackpoint>
          <Trackpoint>
            <Time>2019-10-08T09:19:43.000Z</Time>
            <Position>
              <LatitudeDegrees>40.05989427678287029266357421875</LatitudeDegrees>
              <LongitudeDegrees>-6.10731155611574649810791015625</LongitudeDegrees>
            </Position>
            <AltitudeMeters>251</AltitudeMeters>
            <DistanceMeters>NAN</DistanceMeters>
          </Trackpoint>
          <Trackpoint>
            <Time>2019-10-08T09:19:47.000Z</Time>
            <Position>
              <LatitudeDegrees>40.05974926985800266265869140625</LatitudeDegrees>
              <LongitudeDegrees>-6.10726579092442989349365234375</LongitudeDegrees>
            </Position>
            <AltitudeMeters>251.1999969482421875</AltitudeMeters>
            <DistanceMeters>NAN</DistanceMeters>
          </Trackpoint>
          <Trackpoint>
            <Time>2019-10-08T09:19:53.000Z</Time>
            <Position>
              <LatitudeDegrees>40.05953066982328891754150390625</LatitudeDegrees>
              <LongitudeDegrees>-6.1072016693651676177978515625</LongitudeDegrees>
            </Position>
            <AltitudeMeters>251.399993896484375</AltitudeMeters>
            <DistanceMeters>NAN</DistanceMeters>
          </Trackpoint>
          <Trackpoint>
            <Time>2019-10-08T09:20:02.000Z</Time>
            <Position>
              <LatitudeDegrees>40.05918298847973346710205078125</LatitudeDegrees>
              <LongitudeDegrees>-6.10714291222393512725830078125</LongitudeDegrees>
            </Position>
            <AltitudeMeters>251.8000030517578125</AltitudeMeters>
            <DistanceMeters>NAN</DistanceMeters>
          </Trackpoint>
          <Trackpoint>
            <Time>2019-10-08T09:20:06.000Z</Time>
            <Position>
              <LatitudeDegrees>40.0590264983475208282470703125</LatitudeDegrees>
              <LongitudeDegrees>-6.10715347342193126678466796875</LongitudeDegrees>
            </Position>
            <AltitudeMeters>252.1999969482421875</AltitudeMeters>
            <DistanceMeters>NAN</DistanceMeters>
          </Trackpoint>
          <Trackpoint>
            <Time>2019-10-08T09:20:08.000Z</Time>
            <Position>
              <LatitudeDegrees>40.058949887752532958984375</LatitudeDegrees>
              <LongitudeDegrees>-6.10716654919087886810302734375</LongitudeDegrees>
            </Position>
            <AltitudeMeters>252.1999969482421875</AltitudeMeters>
            <DistanceMeters>NAN</DistanceMeters>
          </Trackpoint>
          <Trackpoint>
            <Time>2019-10-08T09:20:16.000Z</Time>
            <Position>
              <LatitudeDegrees>40.058649480342864990234375</LatitudeDegrees>
              <LongitudeDegrees>-6.10729076899588108062744140625</LongitudeDegrees>
            </Position>
            <AltitudeMeters>253</AltitudeMeters>
            <DistanceMeters>NAN</DistanceMeters>
          </Trackpoint>
          <Trackpoint>
            <Time>2019-10-08T09:20:17.000Z</Time>
            <Position>
              <LatitudeDegrees>40.058614946901798248291015625</LatitudeDegrees>
              <LongitudeDegrees>-6.10730987973511219024658203125</LongitudeDegrees>
            </Position>
            <AltitudeMeters>253.1999969482421875</AltitudeMeters>
            <DistanceMeters>NAN</DistanceMeters>
          </Trackpoint>
          <Trackpoint>
            <Time>2019-10-08T09:20:24.000Z</Time>
            <Position>
              <LatitudeDegrees>40.0583656691014766693115234375</LatitudeDegrees>
              <LongitudeDegrees>-6.10747232101857662200927734375</LongitudeDegrees>
            </Position>
            <AltitudeMeters>253.399993896484375</AltitudeMeters>
            <DistanceMeters>NAN</DistanceMeters>
          </Trackpoint>
          <Trackpoint>
            <Time>2019-10-08T09:20:30.000Z</Time>
            <Position>
              <LatitudeDegrees>40.0581645034253597259521484375</LatitudeDegrees>
              <LongitudeDegrees>-6.1076267994940280914306640625</LongitudeDegrees>
            </Position>
            <AltitudeMeters>253.600006103515625</AltitudeMeters>
            <DistanceMeters>NAN</DistanceMeters>
          </Trackpoint>
          <Trackpoint>
            <Time>2019-10-08T09:20:33.000Z</Time>
            <Position>
              <LatitudeDegrees>40.05805872380733489990234375</LatitudeDegrees>
              <LongitudeDegrees>-6.10769477672874927520751953125</LongitudeDegrees>
            </Position>
            <AltitudeMeters>253.399993896484375</AltitudeMeters>
            <DistanceMeters>NAN</DistanceMeters>
          </Trackpoint>
          <Trackpoint>
            <Time>2019-10-08T09:20:41.000Z</Time>
            <Position>
              <LatitudeDegrees>40.05779184401035308837890625</LatitudeDegrees>
              <LongitudeDegrees>-6.1079010553658008575439453125</LongitudeDegrees>
            </Position>
            <AltitudeMeters>254</AltitudeMeters>
            <DistanceMeters>NAN</DistanceMeters>
          </Trackpoint>
          <Trackpoint>
            <Time>2019-10-08T09:20:42.000Z</Time>
            <Position>
              <LatitudeDegrees>40.0577584840357303619384765625</LatitudeDegrees>
              <LongitudeDegrees>-6.10792259685695171356201171875</LongitudeDegrees>
            </Position>
            <AltitudeMeters>253.8000030517578125</AltitudeMeters>
            <DistanceMeters>NAN</DistanceMeters>
          </Trackpoint>
          <Trackpoint>
            <Time>2019-10-08T09:20:46.000Z</Time>
            <Position>
              <LatitudeDegrees>40.05762596614658832550048828125</LatitudeDegrees>
              <LongitudeDegrees>-6.108027286827564239501953125</LongitudeDegrees>
            </Position>
            <AltitudeMeters>254.399993896484375</AltitudeMeters>
            <DistanceMeters>NAN</DistanceMeters>
          </Trackpoint>
          <Trackpoint>
            <Time>2019-10-08T09:20:50.000Z</Time>
            <Position>
              <LatitudeDegrees>40.0574848987162113189697265625</LatitudeDegrees>
              <LongitudeDegrees>-6.1081300489604473114013671875</LongitudeDegrees>
            </Position>
            <AltitudeMeters>255.399993896484375</AltitudeMeters>
            <DistanceMeters>NAN</DistanceMeters>
          </Trackpoint>
          <Trackpoint>
            <Time>2019-10-08T09:20:51.000Z</Time>
            <Position>
              <LatitudeDegrees>40.05745128728449344635009765625</LatitudeDegrees>
              <LongitudeDegrees>-6.10815628431737422943115234375</LongitudeDegrees>
            </Position>
            <AltitudeMeters>255.399993896484375</AltitudeMeters>
            <DistanceMeters>NAN</DistanceMeters>
          </Trackpoint>
          <Trackpoint>
            <Time>2019-10-08T09:21:01.000Z</Time>
            <Position>
              <LatitudeDegrees>40.05708734504878520965576171875</LatitudeDegrees>
              <LongitudeDegrees>-6.1084230802953243255615234375</LongitudeDegrees>
            </Position>
            <AltitudeMeters>256</AltitudeMeters>
            <DistanceMeters>NAN</DistanceMeters>
          </Trackpoint>
          <Trackpoint>
            <Time>2019-10-08T09:21:09.000Z</Time>
            <Position>
              <LatitudeDegrees>40.05680018104612827301025390625</LatitudeDegrees>
              <LongitudeDegrees>-6.10864176414906978607177734375</LongitudeDegrees>
            </Position>
            <AltitudeMeters>256.600006103515625</AltitudeMeters>
            <DistanceMeters>NAN</DistanceMeters>
          </Trackpoint>
          <Trackpoint>
            <Time>2019-10-08T09:21:11.000Z</Time>
            <Position>
              <LatitudeDegrees>40.056732036173343658447265625</LatitudeDegrees>
              <LongitudeDegrees>-6.10869322903454303741455078125</LongitudeDegrees>
            </Position>
            <AltitudeMeters>257</AltitudeMeters>
            <DistanceMeters>NAN</DistanceMeters>
          </Trackpoint>
          <Trackpoint>
            <Time>2019-10-08T09:21:15.000Z</Time>
            <Position>
              <LatitudeDegrees>40.0566001050174236297607421875</LatitudeDegrees>
              <LongitudeDegrees>-6.10879213549196720123291015625</LongitudeDegrees>
            </Position>
            <AltitudeMeters>257.600006103515625</AltitudeMeters>
            <DistanceMeters>NAN</DistanceMeters>
          </Trackpoint>
          <Trackpoint>
            <Time>2019-10-08T09:21:20.000Z</Time>
            <Position>
              <LatitudeDegrees>40.05642785690724849700927734375</LatitudeDegrees>
              <LongitudeDegrees>-6.1088894493877887725830078125</LongitudeDegrees>
            </Position>
            <AltitudeMeters>257.79998779296875</AltitudeMeters>
            <DistanceMeters>NAN</DistanceMeters>
          </Trackpoint>
          <Trackpoint>
            <Time>2019-10-08T09:21:21.000Z</Time>
            <Position>
              <LatitudeDegrees>40.05639248527586460113525390625</LatitudeDegrees>
              <LongitudeDegrees>-6.1089021898806095123291015625</LongitudeDegrees>
            </Position>
            <AltitudeMeters>257.79998779296875</AltitudeMeters>
            <DistanceMeters>NAN</DistanceMeters>
          </Trackpoint>
          <Trackpoint>
            <Time>2019-10-08T09:21:25.000Z</Time>
            <Position>
              <LatitudeDegrees>40.05624697543680667877197265625</LatitudeDegrees>
              <LongitudeDegrees>-6.1089447699487209320068359375</LongitudeDegrees>
            </Position>
            <AltitudeMeters>258.79998779296875</AltitudeMeters>
            <DistanceMeters>NAN</DistanceMeters>
          </Trackpoint>
          <Trackpoint>
            <Time>2019-10-08T09:21:30.000Z</Time>
            <Position>
              <LatitudeDegrees>40.05605871789157390594482421875</LatitudeDegrees>
              <LongitudeDegrees>-6.10895826481282711029052734375</LongitudeDegrees>
            </Position>
            <AltitudeMeters>258.79998779296875</AltitudeMeters>
            <DistanceMeters>NAN</DistanceMeters>
          </Trackpoint>
          <Trackpoint>
            <Time>2019-10-08T09:21:36.000Z</Time>
            <Position>
              <LatitudeDegrees>40.055832825601100921630859375</LatitudeDegrees>
              <LongitudeDegrees>-6.10889992676675319671630859375</LongitudeDegrees>
            </Position>
            <AltitudeMeters>259.399993896484375</AltitudeMeters>
            <DistanceMeters>NAN</DistanceMeters>
          </Trackpoint>
          <Trackpoint>
            <Time>2019-10-08T09:21:37.000Z</Time>
            <Position>
              <LatitudeDegrees>40.0557964481413364410400390625</LatitudeDegrees>
              <LongitudeDegrees>-6.1088871024549007415771484375</LongitudeDegrees>
            </Position>
            <AltitudeMeters>259.79998779296875</AltitudeMeters>
            <DistanceMeters>NAN</DistanceMeters>
          </Trackpoint>
          <Trackpoint>
            <Time>2019-10-08T09:21:42.000Z</Time>
            <Position>
              <LatitudeDegrees>40.05563191138207912445068359375</LatitudeDegrees>
              <LongitudeDegrees>-6.10878945328295230865478515625</LongitudeDegrees>
            </Position>
            <AltitudeMeters>260.20001220703125</AltitudeMeters>
            <DistanceMeters>NAN</DistanceMeters>
          </Trackpoint>
          <Trackpoint>
            <Time>2019-10-08T09:21:44.000Z</Time>
            <Position>
              <LatitudeDegrees>40.05557156167924404144287109375</LatitudeDegrees>
              <LongitudeDegrees>-6.108739078044891357421875</LongitudeDegrees>
            </Position>
            <AltitudeMeters>260.600006103515625</AltitudeMeters>
            <DistanceMeters>NAN</DistanceMeters>
          </Trackpoint>
          <Trackpoint>
            <Time>2019-10-08T09:21:47.000Z</Time>
            <Position>
              <LatitudeDegrees>40.05548774264752864837646484375</LatitudeDegrees>
              <LongitudeDegrees>-6.1086554266512393951416015625</LongitudeDegrees>
            </Position>
            <AltitudeMeters>261</AltitudeMeters>
            <DistanceMeters>NAN</DistanceMeters>
          </Trackpoint>
          <Trackpoint>
            <Time>2019-10-08T09:21:51.000Z</Time>
            <Position>
              <LatitudeDegrees>40.0553857348859310150146484375</LatitudeDegrees>
              <LongitudeDegrees>-6.10852123238146305084228515625</LongitudeDegrees>
            </Position>
            <AltitudeMeters>262</AltitudeMeters>
            <DistanceMeters>NAN</DistanceMeters>
          </Trackpoint>
          <Trackpoint>
            <Time>2019-10-08T09:21:53.000Z</Time>
            <Position>
              <LatitudeDegrees>40.05534164607524871826171875</LatitudeDegrees>
              <LongitudeDegrees>-6.108446381986141204833984375</LongitudeDegrees>
            </Position>
            <AltitudeMeters>262.600006103515625</AltitudeMeters>
            <DistanceMeters>NAN</DistanceMeters>
          </Trackpoint>
          <Trackpoint>
            <Time>2019-10-08T09:21:58.000Z</Time>
            <Position>
              <LatitudeDegrees>40.05524240434169769287109375</LatitudeDegrees>
              <LongitudeDegrees>-6.10824496485292911529541015625</LongitudeDegrees>
            </Position>
            <AltitudeMeters>263.20001220703125</AltitudeMeters>
            <DistanceMeters>NAN</DistanceMeters>
          </Trackpoint>
          <Trackpoint>
            <Time>2019-10-08T09:22:03.000Z</Time>
            <Position>
              <LatitudeDegrees>40.05514986813068389892578125</LatitudeDegrees>
              <LongitudeDegrees>-6.10803700983524322509765625</LongitudeDegrees>
            </Position>
            <AltitudeMeters>263</AltitudeMeters>
            <DistanceMeters>NAN</DistanceMeters>
          </Trackpoint>
          <Trackpoint>
            <Time>2019-10-08T09:22:11.000Z</Time>
            <Position>
              <LatitudeDegrees>40.05499354563653469085693359375</LatitudeDegrees>
              <LongitudeDegrees>-6.10768354497849941253662109375</LongitudeDegrees>
            </Position>
            <AltitudeMeters>263</AltitudeMeters>
            <DistanceMeters>NAN</DistanceMeters>
          </Trackpoint>
          <Trackpoint>
            <Time>2019-10-08T09:22:17.000Z</Time>
            <Position>
              <LatitudeDegrees>40.05485222674906253814697265625</LatitudeDegrees>
              <LongitudeDegrees>-6.10736846923828125</LongitudeDegrees>
            </Position>
            <AltitudeMeters>262</AltitudeMeters>
            <DistanceMeters>NAN</DistanceMeters>
          </Trackpoint>
          <Trackpoint>
            <Time>2019-10-08T09:22:18.000Z</Time>
            <Position>
              <LatitudeDegrees>40.05482657812535762786865234375</LatitudeDegrees>
              <LongitudeDegrees>-6.107310466468334197998046875</LongitudeDegrees>
            </Position>
            <AltitudeMeters>261.600006103515625</AltitudeMeters>
            <DistanceMeters>NAN</DistanceMeters>
          </Trackpoint>
          <Trackpoint>
            <Time>2019-10-08T09:22:21.000Z</Time>
            <Position>
              <LatitudeDegrees>40.05474242381751537322998046875</LatitudeDegrees>
              <LongitudeDegrees>-6.10712480731308460235595703125</LongitudeDegrees>
            </Position>
            <AltitudeMeters>260.600006103515625</AltitudeMeters>
            <DistanceMeters>NAN</DistanceMeters>
          </Trackpoint>
          <Trackpoint>
            <Time>2019-10-08T09:22:26.000Z</Time>
            <Position>
              <LatitudeDegrees>40.05459842272102832794189453125</LatitudeDegrees>
              <LongitudeDegrees>-6.106788776814937591552734375</LongitudeDegrees>
            </Position>
            <AltitudeMeters>260.20001220703125</AltitudeMeters>
            <DistanceMeters>NAN</DistanceMeters>
          </Trackpoint>
          <Trackpoint>
            <Time>2019-10-08T09:22:29.000Z</Time>
            <Position>
              <LatitudeDegrees>40.05450253374874591827392578125</LatitudeDegrees>
              <LongitudeDegrees>-6.10657864250242710113525390625</LongitudeDegrees>
            </Position>
            <AltitudeMeters>259.399993896484375</AltitudeMeters>
            <DistanceMeters>NAN</DistanceMeters>
          </Trackpoint>
          <Trackpoint>
            <Time>2019-10-08T09:22:32.000Z</Time>
            <Position>
              <LatitudeDegrees>40.0544107519090175628662109375</LatitudeDegrees>
              <LongitudeDegrees>-6.10636993311345577239990234375</LongitudeDegrees>
            </Position>
            <AltitudeMeters>259.20001220703125</AltitudeMeters>
            <DistanceMeters>NAN</DistanceMeters>
          </Trackpoint>
          <Trackpoint>
            <Time>2019-10-08T09:22:34.000Z</Time>
            <Position>
              <LatitudeDegrees>40.0543463788926601409912109375</LatitudeDegrees>
              <LongitudeDegrees>-6.10623196698725223541259765625</LongitudeDegrees>
            </Position>
            <AltitudeMeters>258.79998779296875</AltitudeMeters>
            <DistanceMeters>NAN</DistanceMeters>
          </Trackpoint>
          <Trackpoint>
            <Time>2019-10-08T09:22:36.000Z</Time>
            <Position>
              <LatitudeDegrees>40.05428343079984188079833984375</LatitudeDegrees>
              <LongitudeDegrees>-6.10608746297657489776611328125</LongitudeDegrees>
            </Position>
            <AltitudeMeters>258.399993896484375</AltitudeMeters>
            <DistanceMeters>NAN</DistanceMeters>
          </Trackpoint>
          <Trackpoint>
            <Time>2019-10-08T09:22:37.000Z</Time>
            <Position>
              <LatitudeDegrees>40.05424998700618743896484375</LatitudeDegrees>
              <LongitudeDegrees>-6.1060164682567119598388671875</LongitudeDegrees>
            </Position>
            <AltitudeMeters>258.20001220703125</AltitudeMeters>
            <DistanceMeters>NAN</DistanceMeters>
          </Trackpoint>
          <Trackpoint>
            <Time>2019-10-08T09:22:40.000Z</Time>
            <Position>
              <LatitudeDegrees>40.054155103862285614013671875</LatitudeDegrees>
              <LongitudeDegrees>-6.10580272972583770751953125</LongitudeDegrees>
            </Position>
            <AltitudeMeters>258.20001220703125</AltitudeMeters>
            <DistanceMeters>NAN</DistanceMeters>
          </Trackpoint>
          <Trackpoint>
            <Time>2019-10-08T09:22:43.000Z</Time>
            <Position>
              <LatitudeDegrees>40.0540523417294025421142578125</LatitudeDegrees>
              <LongitudeDegrees>-6.1056037433445453643798828125</LongitudeDegrees>
            </Position>
            <AltitudeMeters>257.79998779296875</AltitudeMeters>
            <DistanceMeters>NAN</DistanceMeters>
          </Trackpoint>
          <Trackpoint>
            <Time>2019-10-08T09:22:45.000Z</Time>
            <Position>
              <LatitudeDegrees>40.0539730489253997802734375</LatitudeDegrees>
              <LongitudeDegrees>-6.105478517711162567138671875</LongitudeDegrees>
            </Position>
            <AltitudeMeters>257.20001220703125</AltitudeMeters>
            <DistanceMeters>NAN</DistanceMeters>
          </Trackpoint>
          <Trackpoint>
            <Time>2019-10-08T09:22:46.000Z</Time>
            <Position>
              <LatitudeDegrees>40.05392971448600292205810546875</LatitudeDegrees>
              <LongitudeDegrees>-6.105421520769596099853515625</LongitudeDegrees>
            </Position>
            <AltitudeMeters>256.79998779296875</AltitudeMeters>
            <DistanceMeters>NAN</DistanceMeters>
          </Trackpoint>
          <Trackpoint>
            <Time>2019-10-08T09:22:47.000Z</Time>
            <Position>
              <LatitudeDegrees>40.0538796745240688323974609375</LatitudeDegrees>
              <LongitudeDegrees>-6.1053717322647571563720703125</LongitudeDegrees>
            </Position>
            <AltitudeMeters>256.79998779296875</AltitudeMeters>
            <DistanceMeters>NAN</DistanceMeters>
          </Trackpoint>
          <Trackpoint>
            <Time>2019-10-08T09:22:51.000Z</Time>
            <Position>
              <LatitudeDegrees>40.0536744855344295501708984375</LatitudeDegrees>
              <LongitudeDegrees>-6.10519529320299625396728515625</LongitudeDegrees>
            </Position>
            <AltitudeMeters>256.79998779296875</AltitudeMeters>
            <DistanceMeters>NAN</DistanceMeters>
          </Trackpoint>
          <Trackpoint>
            <Time>2019-10-08T09:23:00.000Z</Time>
            <Position>
              <LatitudeDegrees>40.05321021191775798797607421875</LatitudeDegrees>
              <LongitudeDegrees>-6.1048336140811443328857421875</LongitudeDegrees>
            </Position>
            <AltitudeMeters>257.600006103515625</AltitudeMeters>
            <DistanceMeters>NAN</DistanceMeters>
          </Trackpoint>
          <Trackpoint>
            <Time>2019-10-08T09:23:03.000Z</Time>
            <Position>
              <LatitudeDegrees>40.05306302569806575775146484375</LatitudeDegrees>
              <LongitudeDegrees>-6.1047199554741382598876953125</LongitudeDegrees>
            </Position>
            <AltitudeMeters>257.399993896484375</AltitudeMeters>
            <DistanceMeters>NAN</DistanceMeters>
          </Trackpoint>
          <Trackpoint>
            <Time>2019-10-08T09:23:09.000Z</Time>
            <Position>
              <LatitudeDegrees>40.05277502350509166717529296875</LatitudeDegrees>
              <LongitudeDegrees>-6.104503534734249114990234375</LongitudeDegrees>
            </Position>
            <AltitudeMeters>258.20001220703125</AltitudeMeters>
            <DistanceMeters>NAN</DistanceMeters>
          </Trackpoint>
          <Trackpoint>
            <Time>2019-10-08T09:23:13.000Z</Time>
            <Position>
              <LatitudeDegrees>40.05259145982563495635986328125</LatitudeDegrees>
              <LongitudeDegrees>-6.104399599134922027587890625</LongitudeDegrees>
            </Position>
            <AltitudeMeters>259.20001220703125</AltitudeMeters>
            <DistanceMeters>NAN</DistanceMeters>
          </Trackpoint>
          <Trackpoint>
            <Time>2019-10-08T09:23:14.000Z</Time>
            <Position>
              <LatitudeDegrees>40.05255022086203098297119140625</LatitudeDegrees>
              <LongitudeDegrees>-6.10437671653926372528076171875</LongitudeDegrees>
            </Position>
            <AltitudeMeters>259.399993896484375</AltitudeMeters>
            <DistanceMeters>NAN</DistanceMeters>
          </Trackpoint>
          <Trackpoint>
            <Time>2019-10-08T09:23:18.000Z</Time>
            <Position>
              <LatitudeDegrees>40.0523984245955944061279296875</LatitudeDegrees>
              <LongitudeDegrees>-6.10430714674293994903564453125</LongitudeDegrees>
            </Position>
            <AltitudeMeters>260</AltitudeMeters>
            <DistanceMeters>NAN</DistanceMeters>
          </Trackpoint>
          <Trackpoint>
            <Time>2019-10-08T09:23:19.000Z</Time>
            <Position>
              <LatitudeDegrees>40.0523612089455127716064453125</LatitudeDegrees>
              <LongitudeDegrees>-6.10429541207849979400634765625</LongitudeDegrees>
            </Position>
            <AltitudeMeters>260.79998779296875</AltitudeMeters>
            <DistanceMeters>NAN</DistanceMeters>
          </Trackpoint>
          <Trackpoint>
            <Time>2019-10-08T09:23:23.000Z</Time>
            <Position>
              <LatitudeDegrees>40.05221377126872539520263671875</LatitudeDegrees>
              <LongitudeDegrees>-6.1042669974267482757568359375</LongitudeDegrees>
            </Position>
            <AltitudeMeters>261.79998779296875</AltitudeMeters>
            <DistanceMeters>NAN</DistanceMeters>
          </Trackpoint>
          <Trackpoint>
            <Time>2019-10-08T09:23:24.000Z</Time>
            <Position>
              <LatitudeDegrees>40.052176974713802337646484375</LatitudeDegrees>
              <LongitudeDegrees>-6.104264147579669952392578125</LongitudeDegrees>
            </Position>
            <AltitudeMeters>262</AltitudeMeters>
            <DistanceMeters>NAN</DistanceMeters>
          </Trackpoint>
          <Trackpoint>
            <Time>2019-10-08T09:23:26.000Z</Time>
            <Position>
              <LatitudeDegrees>40.05210421979427337646484375</LatitudeDegrees>
              <LongitudeDegrees>-6.1042649857699871063232421875</LongitudeDegrees>
            </Position>
            <AltitudeMeters>262.20001220703125</AltitudeMeters>
            <DistanceMeters>NAN</DistanceMeters>
          </Trackpoint>
          <Trackpoint>
            <Time>2019-10-08T09:23:29.000Z</Time>
            <Position>
              <LatitudeDegrees>40.05199768580496311187744140625</LatitudeDegrees>
              <LongitudeDegrees>-6.1042716912925243377685546875</LongitudeDegrees>
            </Position>
            <AltitudeMeters>263.20001220703125</AltitudeMeters>
            <DistanceMeters>NAN</DistanceMeters>
          </Trackpoint>
          <Trackpoint>
            <Time>2019-10-08T09:23:34.000Z</Time>
            <Position>
              <LatitudeDegrees>40.05181814543902873992919921875</LatitudeDegrees>
              <LongitudeDegrees>-6.10431569628417491912841796875</LongitudeDegrees>
            </Position>
            <AltitudeMeters>263.600006103515625</AltitudeMeters>
            <DistanceMeters>NAN</DistanceMeters>
          </Trackpoint>
          <Trackpoint>
            <Time>2019-10-08T09:23:39.000Z</Time>
            <Position>
              <LatitudeDegrees>40.0516490824520587921142578125</LatitudeDegrees>
              <LongitudeDegrees>-6.10437470488250255584716796875</LongitudeDegrees>
            </Position>
            <AltitudeMeters>264.20001220703125</AltitudeMeters>
            <DistanceMeters>NAN</DistanceMeters>
          </Trackpoint>
          <Trackpoint>
            <Time>2019-10-08T09:23:43.000Z</Time>
            <Position>
              <LatitudeDegrees>40.0515220127999782562255859375</LatitudeDegrees>
              <LongitudeDegrees>-6.10441862605512142181396484375</LongitudeDegrees>
            </Position>
            <AltitudeMeters>265</AltitudeMeters>
            <DistanceMeters>NAN</DistanceMeters>
          </Trackpoint>
          <Trackpoint>
            <Time>2019-10-08T09:23:45.000Z</Time>
            <Position>
              <LatitudeDegrees>40.05145839415490627288818359375</LatitudeDegrees>
              <LongitudeDegrees>-6.1044408380985260009765625</LongitudeDegrees>
            </Position>
            <AltitudeMeters>265.20001220703125</AltitudeMeters>
            <DistanceMeters>NAN</DistanceMeters>
          </Trackpoint>
          <Trackpoint>
            <Time>2019-10-08T09:23:50.000Z</Time>
            <Position>
              <LatitudeDegrees>40.05129762925207614898681640625</LatitudeDegrees>
              <LongitudeDegrees>-6.104477383196353912353515625</LongitudeDegrees>
            </Position>
            <AltitudeMeters>266.20001220703125</AltitudeMeters>
            <DistanceMeters>NAN</DistanceMeters>
          </Trackpoint>
          <Trackpoint>
            <Time>2019-10-08T09:23:52.000Z</Time>
            <Position>
              <LatitudeDegrees>40.05123292095959186553955078125</LatitudeDegrees>
              <LongitudeDegrees>-6.10448576509952545166015625</LongitudeDegrees>
            </Position>
            <AltitudeMeters>266.600006103515625</AltitudeMeters>
            <DistanceMeters>NAN</DistanceMeters>
          </Trackpoint>
          <Trackpoint>
            <Time>2019-10-08T09:23:56.000Z</Time>
            <Position>
              <LatitudeDegrees>40.05110031925141811370849609375</LatitudeDegrees>
              <LongitudeDegrees>-6.10449523665010929107666015625</LongitudeDegrees>
            </Position>
            <AltitudeMeters>267.399993896484375</AltitudeMeters>
            <DistanceMeters>NAN</DistanceMeters>
          </Trackpoint>
          <Trackpoint>
            <Time>2019-10-08T09:24:00.000Z</Time>
            <Position>
              <LatitudeDegrees>40.0509724952280521392822265625</LatitudeDegrees>
              <LongitudeDegrees>-6.104476712644100189208984375</LongitudeDegrees>
            </Position>
            <AltitudeMeters>268.600006103515625</AltitudeMeters>
            <DistanceMeters>NAN</DistanceMeters>
          </Trackpoint>
          <Trackpoint>
            <Time>2019-10-08T09:24:01.000Z</Time>
            <Position>
              <LatitudeDegrees>40.05094190128147602081298828125</LatitudeDegrees>
              <LongitudeDegrees>-6.1044684983789920806884765625</LongitudeDegrees>
            </Position>
            <AltitudeMeters>268.399993896484375</AltitudeMeters>
            <DistanceMeters>NAN</DistanceMeters>
          </Trackpoint>
          <Trackpoint>
            <Time>2019-10-08T09:24:04.000Z</Time>
            <Position>
              <LatitudeDegrees>40.0508467666804790496826171875</LatitudeDegrees>
              <LongitudeDegrees>-6.10445030964910984039306640625</LongitudeDegrees>
            </Position>
            <AltitudeMeters>270</AltitudeMeters>
            <DistanceMeters>NAN</DistanceMeters>
          </Trackpoint>
          <Trackpoint>
            <Time>2019-10-08T09:24:09.000Z</Time>
            <Position>
              <LatitudeDegrees>40.05069564096629619598388671875</LatitudeDegrees>
              <LongitudeDegrees>-6.10439012758433818817138671875</LongitudeDegrees>
            </Position>
            <AltitudeMeters>270.399993896484375</AltitudeMeters>
            <DistanceMeters>NAN</DistanceMeters>
          </Trackpoint>
          <Trackpoint>
            <Time>2019-10-08T09:24:12.000Z</Time>
            <Position>
              <LatitudeDegrees>40.05060888826847076416015625</LatitudeDegrees>
              <LongitudeDegrees>-6.1043350584805011749267578125</LongitudeDegrees>
            </Position>
            <AltitudeMeters>271</AltitudeMeters>
            <DistanceMeters>NAN</DistanceMeters>
          </Trackpoint>
          <Trackpoint>
            <Time>2019-10-08T09:24:16.000Z</Time>
            <Position>
              <LatitudeDegrees>40.05048743449151515960693359375</LatitudeDegrees>
              <LongitudeDegrees>-6.10424880869686603546142578125</LongitudeDegrees>
            </Position>
            <AltitudeMeters>271.79998779296875</AltitudeMeters>
            <DistanceMeters>NAN</DistanceMeters>
          </Trackpoint>
          <Trackpoint>
            <Time>2019-10-08T09:24:17.000Z</Time>
            <Position>
              <LatitudeDegrees>40.0504595227539539337158203125</LatitudeDegrees>
              <LongitudeDegrees>-6.1042254231870174407958984375</LongitudeDegrees>
            </Position>
            <AltitudeMeters>272.20001220703125</AltitudeMeters>
            <DistanceMeters>NAN</DistanceMeters>
          </Trackpoint>
          <Trackpoint>
            <Time>2019-10-08T09:24:23.000Z</Time>
            <Position>
              <LatitudeDegrees>40.050304792821407318115234375</LatitudeDegrees>
              <LongitudeDegrees>-6.10407714731991291046142578125</LongitudeDegrees>
            </Position>
            <AltitudeMeters>273.399993896484375</AltitudeMeters>
            <DistanceMeters>NAN</DistanceMeters>
          </Trackpoint>
          <Trackpoint>
            <Time>2019-10-08T09:24:25.000Z</Time>
            <Position>
              <LatitudeDegrees>40.05025492049753665924072265625</LatitudeDegrees>
              <LongitudeDegrees>-6.10401730053126811981201171875</LongitudeDegrees>
            </Position>
            <AltitudeMeters>273.600006103515625</AltitudeMeters>
            <DistanceMeters>NAN</DistanceMeters>
          </Trackpoint>
          <Trackpoint>
            <Time>2019-10-08T09:24:32.000Z</Time>
            <Position>
              <LatitudeDegrees>40.05009130574762821197509765625</LatitudeDegrees>
              <LongitudeDegrees>-6.10380171798169612884521484375</LongitudeDegrees>
            </Position>
            <AltitudeMeters>274.399993896484375</AltitudeMeters>
            <DistanceMeters>NAN</DistanceMeters>
          </Trackpoint>
          <Trackpoint>
            <Time>2019-10-08T09:24:34.000Z</Time>
            <Position>
              <LatitudeDegrees>40.05004252307116985321044921875</LatitudeDegrees>
              <LongitudeDegrees>-6.103739775717258453369140625</LongitudeDegrees>
            </Position>
            <AltitudeMeters>274.600006103515625</AltitudeMeters>
            <DistanceMeters>NAN</DistanceMeters>
          </Trackpoint>
          <Trackpoint>
            <Time>2019-10-08T09:24:45.000Z</Time>
            <Position>
              <LatitudeDegrees>40.04977094940841197967529296875</LatitudeDegrees>
              <LongitudeDegrees>-6.1034066788852214813232421875</LongitudeDegrees>
            </Position>
            <AltitudeMeters>275.600006103515625</AltitudeMeters>
            <DistanceMeters>NAN</DistanceMeters>
          </Trackpoint>
          <Trackpoint>
            <Time>2019-10-08T09:24:54.000Z</Time>
            <Position>
              <LatitudeDegrees>40.04950256086885929107666015625</LatitudeDegrees>
              <LongitudeDegrees>-6.10318749211728572845458984375</LongitudeDegrees>
            </Position>
            <AltitudeMeters>276.600006103515625</AltitudeMeters>
            <DistanceMeters>NAN</DistanceMeters>
          </Trackpoint>
          <Trackpoint>
            <Time>2019-10-08T09:25:04.000Z</Time>
            <Position>
              <LatitudeDegrees>40.0491559691727161407470703125</LatitudeDegrees>
              <LongitudeDegrees>-6.10302672721445560455322265625</LongitudeDegrees>
            </Position>
            <AltitudeMeters>277.600006103515625</AltitudeMeters>
            <DistanceMeters>NAN</DistanceMeters>
          </Trackpoint>
          <Trackpoint>
            <Time>2019-10-08T09:25:06.000Z</Time>
            <Position>
              <LatitudeDegrees>40.049087740480899810791015625</LatitudeDegrees>
              <LongitudeDegrees>-6.10301264561712741851806640625</LongitudeDegrees>
            </Position>
            <AltitudeMeters>277.79998779296875</AltitudeMeters>
            <DistanceMeters>NAN</DistanceMeters>
          </Trackpoint>
          <Trackpoint>
            <Time>2019-10-08T09:25:11.000Z</Time>
            <Position>
              <LatitudeDegrees>40.048912726342678070068359375</LatitudeDegrees>
              <LongitudeDegrees>-6.102992780506610870361328125</LongitudeDegrees>
            </Position>
            <AltitudeMeters>278.600006103515625</AltitudeMeters>
            <DistanceMeters>NAN</DistanceMeters>
          </Trackpoint>
          <Trackpoint>
            <Time>2019-10-08T09:25:15.000Z</Time>
            <Position>
              <LatitudeDegrees>40.04877283237874507904052734375</LatitudeDegrees>
              <LongitudeDegrees>-6.10298934392631053924560546875</LongitudeDegrees>
            </Position>
            <AltitudeMeters>278.79998779296875</AltitudeMeters>
            <DistanceMeters>NAN</DistanceMeters>
          </Trackpoint>
          <Trackpoint>
            <Time>2019-10-08T09:25:19.000Z</Time>
            <Position>
              <LatitudeDegrees>40.0486300885677337646484375</LatitudeDegrees>
              <LongitudeDegrees>-6.103003509342670440673828125</LongitudeDegrees>
            </Position>
            <AltitudeMeters>279.600006103515625</AltitudeMeters>
            <DistanceMeters>NAN</DistanceMeters>
          </Trackpoint>
          <Trackpoint>
            <Time>2019-10-08T09:25:23.000Z</Time>
            <Position>
              <LatitudeDegrees>40.0484917871654033660888671875</LatitudeDegrees>
              <LongitudeDegrees>-6.10302287153899669647216796875</LongitudeDegrees>
            </Position>
            <AltitudeMeters>280</AltitudeMeters>
            <DistanceMeters>NAN</DistanceMeters>
          </Trackpoint>
          <Trackpoint>
            <Time>2019-10-08T09:25:27.000Z</Time>
            <Position>
              <LatitudeDegrees>40.0483496300876140594482421875</LatitudeDegrees>
              <LongitudeDegrees>-6.10304751433432102203369140625</LongitudeDegrees>
            </Position>
            <AltitudeMeters>280.600006103515625</AltitudeMeters>
            <DistanceMeters>NAN</DistanceMeters>
          </Trackpoint>
          <Trackpoint>
            <Time>2019-10-08T09:25:28.000Z</Time>
            <Position>
              <LatitudeDegrees>40.04831367172300815582275390625</LatitudeDegrees>
              <LongitudeDegrees>-6.10305287875235080718994140625</LongitudeDegrees>
            </Position>
            <AltitudeMeters>281.20001220703125</AltitudeMeters>
            <DistanceMeters>NAN</DistanceMeters>
          </Trackpoint>
          <Trackpoint>
            <Time>2019-10-08T09:25:36.000Z</Time>
            <Position>
              <LatitudeDegrees>40.04804042167961597442626953125</LatitudeDegrees>
              <LongitudeDegrees>-6.10308489762246608734130859375</LongitudeDegrees>
            </Position>
            <AltitudeMeters>282</AltitudeMeters>
            <DistanceMeters>NAN</DistanceMeters>
          </Trackpoint>
          <Trackpoint>
            <Time>2019-10-08T09:25:38.000Z</Time>
            <Position>
              <LatitudeDegrees>40.04797085188329219818115234375</LatitudeDegrees>
              <LongitudeDegrees>-6.10308892093598842620849609375</LongitudeDegrees>
            </Position>
            <AltitudeMeters>282.399993896484375</AltitudeMeters>
            <DistanceMeters>NAN</DistanceMeters>
          </Trackpoint>
          <Trackpoint>
            <Time>2019-10-08T09:25:44.000Z</Time>
            <Position>
              <LatitudeDegrees>40.04777253605425357818603515625</LatitudeDegrees>
              <LongitudeDegrees>-6.1030702292919158935546875</LongitudeDegrees>
            </Position>
            <AltitudeMeters>283.399993896484375</AltitudeMeters>
            <DistanceMeters>NAN</DistanceMeters>
          </Trackpoint>
          <Trackpoint>
            <Time>2019-10-08T09:25:46.000Z</Time>
            <Position>
              <LatitudeDegrees>40.0477085821330547332763671875</LatitudeDegrees>
              <LongitudeDegrees>-6.10306109301745891571044921875</LongitudeDegrees>
            </Position>
            <AltitudeMeters>283.600006103515625</AltitudeMeters>
            <DistanceMeters>NAN</DistanceMeters>
          </Trackpoint>
          <Trackpoint>
            <Time>2019-10-08T09:25:51.000Z</Time>
            <Position>
              <LatitudeDegrees>40.047545470297336578369140625</LatitudeDegrees>
              <LongitudeDegrees>-6.1030378751456737518310546875</LongitudeDegrees>
            </Position>
            <AltitudeMeters>284.600006103515625</AltitudeMeters>
            <DistanceMeters>NAN</DistanceMeters>
          </Trackpoint>
          <Trackpoint>
            <Time>2019-10-08T09:25:53.000Z</Time>
            <Position>
              <LatitudeDegrees>40.04748143255710601806640625</LatitudeDegrees>
              <LongitudeDegrees>-6.10301767475903034210205078125</LongitudeDegrees>
            </Position>
            <AltitudeMeters>284.600006103515625</AltitudeMeters>
            <DistanceMeters>NAN</DistanceMeters>
          </Trackpoint>
          <Trackpoint>
            <Time>2019-10-08T09:25:58.000Z</Time>
            <Position>
              <LatitudeDegrees>40.04732946865260601043701171875</LatitudeDegrees>
              <LongitudeDegrees>-6.10295447520911693572998046875</LongitudeDegrees>
            </Position>
            <AltitudeMeters>285.600006103515625</AltitudeMeters>
            <DistanceMeters>NAN</DistanceMeters>
          </Trackpoint>
          <Trackpoint>
            <Time>2019-10-08T09:26:02.000Z</Time>
            <Position>
              <LatitudeDegrees>40.0472033210098743438720703125</LatitudeDegrees>
              <LongitudeDegrees>-6.10289446078240871429443359375</LongitudeDegrees>
            </Position>
            <AltitudeMeters>286</AltitudeMeters>
            <DistanceMeters>NAN</DistanceMeters>
          </Trackpoint>
          <Trackpoint>
            <Time>2019-10-08T09:26:06.000Z</Time>
            <Position>
              <LatitudeDegrees>40.0470806099474430084228515625</LatitudeDegrees>
              <LongitudeDegrees>-6.10281768254935741424560546875</LongitudeDegrees>
            </Position>
            <AltitudeMeters>286.79998779296875</AltitudeMeters>
            <DistanceMeters>NAN</DistanceMeters>
          </Trackpoint>
          <Trackpoint>
            <Time>2019-10-08T09:26:10.000Z</Time>
            <Position>
              <LatitudeDegrees>40.046965777873992919921875</LatitudeDegrees>
              <LongitudeDegrees>-6.10272849909961223602294921875</LongitudeDegrees>
            </Position>
            <AltitudeMeters>287.20001220703125</AltitudeMeters>
            <DistanceMeters>NAN</DistanceMeters>
          </Trackpoint>
          <Trackpoint>
            <Time>2019-10-08T09:26:16.000Z</Time>
            <Position>
              <LatitudeDegrees>40.04680040292441844940185546875</LatitudeDegrees>
              <LongitudeDegrees>-6.10257024876773357391357421875</LongitudeDegrees>
            </Position>
            <AltitudeMeters>287.79998779296875</AltitudeMeters>
            <DistanceMeters>NAN</DistanceMeters>
          </Trackpoint>
          <Trackpoint>
            <Time>2019-10-08T09:26:20.000Z</Time>
            <Position>
              <LatitudeDegrees>40.0466977246105670928955078125</LatitudeDegrees>
              <LongitudeDegrees>-6.102442927658557891845703125</LongitudeDegrees>
            </Position>
            <AltitudeMeters>288.20001220703125</AltitudeMeters>
            <DistanceMeters>NAN</DistanceMeters>
          </Trackpoint>
          <Trackpoint>
            <Time>2019-10-08T09:26:30.000Z</Time>
            <Position>
              <LatitudeDegrees>40.04646026529371738433837890625</LatitudeDegrees>
              <LongitudeDegrees>-6.10209063626825809478759765625</LongitudeDegrees>
            </Position>
            <AltitudeMeters>288.79998779296875</AltitudeMeters>
            <DistanceMeters>NAN</DistanceMeters>
          </Trackpoint>
          <Trackpoint>
            <Time>2019-10-08T09:26:34.000Z</Time>
            <Position>
              <LatitudeDegrees>40.0463678129017353057861328125</LatitudeDegrees>
              <LongitudeDegrees>-6.1019274406135082244873046875</LongitudeDegrees>
            </Position>
            <AltitudeMeters>288.399993896484375</AltitudeMeters>
            <DistanceMeters>NAN</DistanceMeters>
          </Trackpoint>
          <Trackpoint>
            <Time>2019-10-08T09:26:39.000Z</Time>
            <Position>
              <LatitudeDegrees>40.04623965360224246978759765625</LatitudeDegrees>
              <LongitudeDegrees>-6.10170138068497180938720703125</LongitudeDegrees>
            </Position>
            <AltitudeMeters>288.399993896484375</AltitudeMeters>
            <DistanceMeters>NAN</DistanceMeters>
          </Trackpoint>
          <Trackpoint>
            <Time>2019-10-08T09:26:42.000Z</Time>
            <Position>
              <LatitudeDegrees>40.04615105688571929931640625</LatitudeDegrees>
              <LongitudeDegrees>-6.10154413618147373199462890625</LongitudeDegrees>
            </Position>
            <AltitudeMeters>287.600006103515625</AltitudeMeters>
            <DistanceMeters>NAN</DistanceMeters>
          </Trackpoint>
          <Trackpoint>
            <Time>2019-10-08T09:26:47.000Z</Time>
            <Position>
              <LatitudeDegrees>40.0459705106914043426513671875</LatitudeDegrees>
              <LongitudeDegrees>-6.1012676171958446502685546875</LongitudeDegrees>
            </Position>
            <AltitudeMeters>286.600006103515625</AltitudeMeters>
            <DistanceMeters>NAN</DistanceMeters>
          </Trackpoint>
          <Trackpoint>
            <Time>2019-10-08T09:26:48.000Z</Time>
            <Position>
              <LatitudeDegrees>40.0459265895187854766845703125</LatitudeDegrees>
              <LongitudeDegrees>-6.10121405683457851409912109375</LongitudeDegrees>
            </Position>
            <AltitudeMeters>286.600006103515625</AltitudeMeters>
            <DistanceMeters>NAN</DistanceMeters>
          </Trackpoint>
          <Trackpoint>
            <Time>2019-10-08T09:26:52.000Z</Time>
            <Position>
              <LatitudeDegrees>40.0457317940890789031982421875</LatitudeDegrees>
              <LongitudeDegrees>-6.10099679790437221527099609375</LongitudeDegrees>
            </Position>
            <AltitudeMeters>285.600006103515625</AltitudeMeters>
            <DistanceMeters>NAN</DistanceMeters>
          </Trackpoint>
          <Trackpoint>
            <Time>2019-10-08T09:26:57.000Z</Time>
            <Position>
              <LatitudeDegrees>40.0454578734934329986572265625</LatitudeDegrees>
              <LongitudeDegrees>-6.10077786259353160858154296875</LongitudeDegrees>
            </Position>
            <AltitudeMeters>284.600006103515625</AltitudeMeters>
            <DistanceMeters>NAN</DistanceMeters>
          </Trackpoint>
          <Trackpoint>
            <Time>2019-10-08T09:26:59.000Z</Time>
            <Position>
              <LatitudeDegrees>40.045342706143856048583984375</LatitudeDegrees>
              <LongitudeDegrees>-6.10070644877851009368896484375</LongitudeDegrees>
            </Position>
            <AltitudeMeters>284.399993896484375</AltitudeMeters>
            <DistanceMeters>NAN</DistanceMeters>
          </Trackpoint>
          <Trackpoint>
            <Time>2019-10-08T09:27:07.000Z</Time>
            <Position>
              <LatitudeDegrees>40.04491011612117290496826171875</LatitudeDegrees>
              <LongitudeDegrees>-6.100450046360492706298828125</LongitudeDegrees>
            </Position>
            <AltitudeMeters>285</AltitudeMeters>
            <DistanceMeters>NAN</DistanceMeters>
          </Trackpoint>
          <Trackpoint>
            <Time>2019-10-08T09:27:11.000Z</Time>
            <Position>
              <LatitudeDegrees>40.0447242893278598785400390625</LatitudeDegrees>
              <LongitudeDegrees>-6.100334040820598602294921875</LongitudeDegrees>
            </Position>
            <AltitudeMeters>285.600006103515625</AltitudeMeters>
            <DistanceMeters>NAN</DistanceMeters>
          </Trackpoint>
          <Trackpoint>
            <Time>2019-10-08T09:27:15.000Z</Time>
            <Position>
              <LatitudeDegrees>40.0445589981973171234130859375</LatitudeDegrees>
              <LongitudeDegrees>-6.10021409578621387481689453125</LongitudeDegrees>
            </Position>
            <AltitudeMeters>286.600006103515625</AltitudeMeters>
            <DistanceMeters>NAN</DistanceMeters>
          </Trackpoint>
          <Trackpoint>
            <Time>2019-10-08T09:27:16.000Z</Time>
            <Position>
              <LatitudeDegrees>40.04452404566109180450439453125</LatitudeDegrees>
              <LongitudeDegrees>-6.10018207691609859466552734375</LongitudeDegrees>
            </Position>
            <AltitudeMeters>287</AltitudeMeters>
            <DistanceMeters>NAN</DistanceMeters>
          </Trackpoint>
          <Trackpoint>
            <Time>2019-10-08T09:27:22.000Z</Time>
            <Position>
              <LatitudeDegrees>40.04431952722370624542236328125</LatitudeDegrees>
              <LongitudeDegrees>-6.0999548435211181640625</LongitudeDegrees>
            </Position>
            <AltitudeMeters>287.600006103515625</AltitudeMeters>
            <DistanceMeters>NAN</DistanceMeters>
          </Trackpoint>
          <Trackpoint>
            <Time>2019-10-08T09:27:24.000Z</Time>
            <Position>
              <LatitudeDegrees>40.0442599318921566009521484375</LatitudeDegrees>
              <LongitudeDegrees>-6.09988150186836719512939453125</LongitudeDegrees>
            </Position>
            <AltitudeMeters>288</AltitudeMeters>
            <DistanceMeters>NAN</DistanceMeters>
          </Trackpoint>
          <Trackpoint>
            <Time>2019-10-08T09:27:30.000Z</Time>
            <Position>
              <LatitudeDegrees>40.04409438930451869964599609375</LatitudeDegrees>
              <LongitudeDegrees>-6.09965267591178417205810546875</LongitudeDegrees>
            </Position>
            <AltitudeMeters>288.600006103515625</AltitudeMeters>
            <DistanceMeters>NAN</DistanceMeters>
          </Trackpoint>
          <Trackpoint>
            <Time>2019-10-08T09:27:31.000Z</Time>
            <Position>
              <LatitudeDegrees>40.04406874068081378936767578125</LatitudeDegrees>
              <LongitudeDegrees>-6.09960950911045074462890625</LongitudeDegrees>
            </Position>
            <AltitudeMeters>289</AltitudeMeters>
            <DistanceMeters>NAN</DistanceMeters>
          </Trackpoint>
          <Trackpoint>
            <Time>2019-10-08T09:27:36.000Z</Time>
            <Position>
              <LatitudeDegrees>40.0439353846013545989990234375</LatitudeDegrees>
              <LongitudeDegrees>-6.09940406866371631622314453125</LongitudeDegrees>
            </Position>
            <AltitudeMeters>290.399993896484375</AltitudeMeters>
            <DistanceMeters>NAN</DistanceMeters>
          </Trackpoint>
          <Trackpoint>
            <Time>2019-10-08T09:27:43.000Z</Time>
            <Position>
              <LatitudeDegrees>40.04374117590487003326416015625</LatitudeDegrees>
              <LongitudeDegrees>-6.099130399525165557861328125</LongitudeDegrees>
            </Position>
            <AltitudeMeters>290.20001220703125</AltitudeMeters>
            <DistanceMeters>NAN</DistanceMeters>
          </Trackpoint>
          <Trackpoint>
            <Time>2019-10-08T09:27:54.000Z</Time>
            <Position>
              <LatitudeDegrees>40.043410845100879669189453125</LatitudeDegrees>
              <LongitudeDegrees>-6.09867299906909465789794921875</LongitudeDegrees>
            </Position>
            <AltitudeMeters>290</AltitudeMeters>
            <DistanceMeters>NAN</DistanceMeters>
          </Trackpoint>
          <Trackpoint>
            <Time>2019-10-08T09:27:55.000Z</Time>
            <Position>
              <LatitudeDegrees>40.04337991587817668914794921875</LatitudeDegrees>
              <LongitudeDegrees>-6.0986363701522350311279296875</LongitudeDegrees>
            </Position>
            <AltitudeMeters>289.600006103515625</AltitudeMeters>
            <DistanceMeters>NAN</DistanceMeters>
          </Trackpoint>
          <Trackpoint>
            <Time>2019-10-08T09:27:57.000Z</Time>
            <Position>
              <LatitudeDegrees>40.04330699332058429718017578125</LatitudeDegrees>
              <LongitudeDegrees>-6.0985612682998180389404296875</LongitudeDegrees>
            </Position>
            <AltitudeMeters>289</AltitudeMeters>
            <DistanceMeters>NAN</DistanceMeters>
          </Trackpoint>
          <Trackpoint>
            <Time>2019-10-08T09:28:03.000Z</Time>
            <Position>
              <LatitudeDegrees>40.04306056536734104156494140625</LatitudeDegrees>
              <LongitudeDegrees>-6.0983468592166900634765625</LongitudeDegrees>
            </Position>
            <AltitudeMeters>288.20001220703125</AltitudeMeters>
            <DistanceMeters>NAN</DistanceMeters>
          </Trackpoint>
          <Trackpoint>
            <Time>2019-10-08T09:28:04.000Z</Time>
            <Position>
              <LatitudeDegrees>40.04301312379539012908935546875</LatitudeDegrees>
              <LongitudeDegrees>-6.09831710346043109893798828125</LongitudeDegrees>
            </Position>
            <AltitudeMeters>287.600006103515625</AltitudeMeters>
            <DistanceMeters>NAN</DistanceMeters>
          </Trackpoint>
          <Trackpoint>
            <Time>2019-10-08T09:28:08.000Z</Time>
            <Position>
              <LatitudeDegrees>40.0428008101880550384521484375</LatitudeDegrees>
              <LongitudeDegrees>-6.0982073843479156494140625</LongitudeDegrees>
            </Position>
            <AltitudeMeters>287.20001220703125</AltitudeMeters>
            <DistanceMeters>NAN</DistanceMeters>
          </Trackpoint>
          <Trackpoint>
            <Time>2019-10-08T09:28:09.000Z</Time>
            <Position>
              <LatitudeDegrees>40.0427501834928989410400390625</LatitudeDegrees>
              <LongitudeDegrees>-6.09818584285676479339599609375</LongitudeDegrees>
            </Position>
            <AltitudeMeters>287</AltitudeMeters>
            <DistanceMeters>NAN</DistanceMeters>
          </Trackpoint>
          <Trackpoint>
            <Time>2019-10-08T09:28:12.000Z</Time>
            <Position>
              <LatitudeDegrees>40.04256636835634708404541015625</LatitudeDegrees>
              <LongitudeDegrees>-6.09812892973423004150390625</LongitudeDegrees>
            </Position>
            <AltitudeMeters>286.20001220703125</AltitudeMeters>
            <DistanceMeters>NAN</DistanceMeters>
          </Trackpoint>
          <Trackpoint>
            <Time>2019-10-08T09:28:14.000Z</Time>
            <Position>
              <LatitudeDegrees>40.0424360297620296478271484375</LatitudeDegrees>
              <LongitudeDegrees>-6.09810118563473224639892578125</LongitudeDegrees>
            </Position>
            <AltitudeMeters>284.79998779296875</AltitudeMeters>
            <DistanceMeters>NAN</DistanceMeters>
          </Trackpoint>
          <Trackpoint>
            <Time>2019-10-08T09:28:15.000Z</Time>
            <Position>
              <LatitudeDegrees>40.04236252047121524810791015625</LatitudeDegrees>
              <LongitudeDegrees>-6.09809800051152706146240234375</LongitudeDegrees>
            </Position>
            <AltitudeMeters>284</AltitudeMeters>
            <DistanceMeters>NAN</DistanceMeters>
          </Trackpoint>
          <Trackpoint>
            <Time>2019-10-08T09:28:16.000Z</Time>
            <Position>
              <LatitudeDegrees>40.04229965619742870330810546875</LatitudeDegrees>
              <LongitudeDegrees>-6.09809339046478271484375</LongitudeDegrees>
            </Position>
            <AltitudeMeters>283.79998779296875</AltitudeMeters>
            <DistanceMeters>NAN</DistanceMeters>
          </Trackpoint>
          <Trackpoint>
            <Time>2019-10-08T09:28:17.000Z</Time>
            <Position>
              <LatitudeDegrees>40.04223025403916835784912109375</LatitudeDegrees>
              <LongitudeDegrees>-6.09810118563473224639892578125</LongitudeDegrees>
            </Position>
            <AltitudeMeters>283.79998779296875</AltitudeMeters>
            <DistanceMeters>NAN</DistanceMeters>
          </Trackpoint>
          <Trackpoint>
            <Time>2019-10-08T09:28:20.000Z</Time>
            <Position>
              <LatitudeDegrees>40.0420048646628856658935546875</LatitudeDegrees>
              <LongitudeDegrees>-6.0981384851038455963134765625</LongitudeDegrees>
            </Position>
            <AltitudeMeters>282.20001220703125</AltitudeMeters>
            <DistanceMeters>NAN</DistanceMeters>
          </Trackpoint>
          <Trackpoint>
            <Time>2019-10-08T09:28:21.000Z</Time>
            <Position>
              <LatitudeDegrees>40.041936300694942474365234375</LatitudeDegrees>
              <LongitudeDegrees>-6.09815617091953754425048828125</LongitudeDegrees>
            </Position>
            <AltitudeMeters>281.600006103515625</AltitudeMeters>
            <DistanceMeters>NAN</DistanceMeters>
          </Trackpoint>
          <Trackpoint>
            <Time>2019-10-08T09:28:24.000Z</Time>
            <Position>
              <LatitudeDegrees>40.04169850610196590423583984375</LatitudeDegrees>
              <LongitudeDegrees>-6.0982663929462432861328125</LongitudeDegrees>
            </Position>
            <AltitudeMeters>280.399993896484375</AltitudeMeters>
            <DistanceMeters>NAN</DistanceMeters>
          </Trackpoint>
          <Trackpoint>
            <Time>2019-10-08T09:28:25.000Z</Time>
            <Position>
              <LatitudeDegrees>40.0416273437440395355224609375</LatitudeDegrees>
              <LongitudeDegrees>-6.09830654226243495941162109375</LongitudeDegrees>
            </Position>
            <AltitudeMeters>279.600006103515625</AltitudeMeters>
            <DistanceMeters>NAN</DistanceMeters>
          </Trackpoint>
          <Trackpoint>
            <Time>2019-10-08T09:28:26.000Z</Time>
            <Position>
              <LatitudeDegrees>40.04154461435973644256591796875</LatitudeDegrees>
              <LongitudeDegrees>-6.0983629524707794189453125</LongitudeDegrees>
            </Position>
            <AltitudeMeters>279.20001220703125</AltitudeMeters>
            <DistanceMeters>NAN</DistanceMeters>
          </Trackpoint>
          <Trackpoint>
            <Time>2019-10-08T09:28:29.000Z</Time>
            <Position>
              <LatitudeDegrees>40.04131679423153400421142578125</LatitudeDegrees>
              <LongitudeDegrees>-6.09854391776025295257568359375</LongitudeDegrees>
            </Position>
            <AltitudeMeters>278.600006103515625</AltitudeMeters>
            <DistanceMeters>NAN</DistanceMeters>
          </Trackpoint>
          <Trackpoint>
            <Time>2019-10-08T09:28:30.000Z</Time>
            <Position>
              <LatitudeDegrees>40.0412310473620891571044921875</LatitudeDegrees>
              <LongitudeDegrees>-6.09861834906041622161865234375</LongitudeDegrees>
            </Position>
            <AltitudeMeters>278.20001220703125</AltitudeMeters>
            <DistanceMeters>NAN</DistanceMeters>
          </Trackpoint>
          <Trackpoint>
            <Time>2019-10-08T09:28:31.000Z</Time>
            <Position>
              <LatitudeDegrees>40.0411525927484035491943359375</LatitudeDegrees>
              <LongitudeDegrees>-6.09868808649480342864990234375</LongitudeDegrees>
            </Position>
            <AltitudeMeters>277.399993896484375</AltitudeMeters>
            <DistanceMeters>NAN</DistanceMeters>
          </Trackpoint>
          <Trackpoint>
            <Time>2019-10-08T09:28:33.000Z</Time>
            <Position>
              <LatitudeDegrees>40.0409886427223682403564453125</LatitudeDegrees>
              <LongitudeDegrees>-6.0988398827612400054931640625</LongitudeDegrees>
            </Position>
            <AltitudeMeters>275.20001220703125</AltitudeMeters>
            <DistanceMeters>NAN</DistanceMeters>
          </Trackpoint>
          <Trackpoint>
            <Time>2019-10-08T09:28:35.000Z</Time>
            <Position>
              <LatitudeDegrees>40.0408109463751316070556640625</LatitudeDegrees>
              <LongitudeDegrees>-6.0989733226597309112548828125</LongitudeDegrees>
            </Position>
            <AltitudeMeters>273.79998779296875</AltitudeMeters>
            <DistanceMeters>NAN</DistanceMeters>
          </Trackpoint>
          <Trackpoint>
            <Time>2019-10-08T09:28:37.000Z</Time>
            <Position>
              <LatitudeDegrees>40.0406275503337383270263671875</LatitudeDegrees>
              <LongitudeDegrees>-6.09908245503902435302734375</LongitudeDegrees>
            </Position>
            <AltitudeMeters>272.600006103515625</AltitudeMeters>
            <DistanceMeters>NAN</DistanceMeters>
          </Trackpoint>
          <Trackpoint>
            <Time>2019-10-08T09:28:39.000Z</Time>
            <Position>
              <LatitudeDegrees>40.040414147078990936279296875</LatitudeDegrees>
              <LongitudeDegrees>-6.0991640947759151458740234375</LongitudeDegrees>
            </Position>
            <AltitudeMeters>270</AltitudeMeters>
            <DistanceMeters>NAN</DistanceMeters>
          </Trackpoint>
          <Trackpoint>
            <Time>2019-10-08T09:28:40.000Z</Time>
            <Position>
              <LatitudeDegrees>40.0403117202222347259521484375</LatitudeDegrees>
              <LongitudeDegrees>-6.0991922579705715179443359375</LongitudeDegrees>
            </Position>
            <AltitudeMeters>268.399993896484375</AltitudeMeters>
            <DistanceMeters>NAN</DistanceMeters>
          </Trackpoint>
          <Trackpoint>
            <Time>2019-10-08T09:28:41.000Z</Time>
            <Position>
              <LatitudeDegrees>40.04021272994577884674072265625</LatitudeDegrees>
              <LongitudeDegrees>-6.09921664930880069732666015625</LongitudeDegrees>
            </Position>
            <AltitudeMeters>267.20001220703125</AltitudeMeters>
            <DistanceMeters>NAN</DistanceMeters>
          </Trackpoint>
          <Trackpoint>
            <Time>2019-10-08T09:28:42.000Z</Time>
            <Position>
              <LatitudeDegrees>40.0400968082249164581298828125</LatitudeDegrees>
              <LongitudeDegrees>-6.09921463765203952789306640625</LongitudeDegrees>
            </Position>
            <AltitudeMeters>266.600006103515625</AltitudeMeters>
            <DistanceMeters>NAN</DistanceMeters>
          </Trackpoint>
          <Trackpoint>
            <Time>2019-10-08T09:28:44.000Z</Time>
            <Position>
              <LatitudeDegrees>40.03988767974078655242919921875</LatitudeDegrees>
              <LongitudeDegrees>-6.09922000207006931304931640625</LongitudeDegrees>
            </Position>
            <AltitudeMeters>266.79998779296875</AltitudeMeters>
            <DistanceMeters>NAN</DistanceMeters>
          </Trackpoint>
          <Trackpoint>
            <Time>2019-10-08T09:28:45.000Z</Time>
            <Position>
              <LatitudeDegrees>40.0397709198296070098876953125</LatitudeDegrees>
              <LongitudeDegrees>-6.0992267914116382598876953125</LongitudeDegrees>
            </Position>
            <AltitudeMeters>266</AltitudeMeters>
            <DistanceMeters>NAN</DistanceMeters>
          </Trackpoint>
          <Trackpoint>
            <Time>2019-10-08T09:28:47.000Z</Time>
            <Position>
              <LatitudeDegrees>40.03954988904297351837158203125</LatitudeDegrees>
              <LongitudeDegrees>-6.099245734512805938720703125</LongitudeDegrees>
            </Position>
            <AltitudeMeters>264.79998779296875</AltitudeMeters>
            <DistanceMeters>NAN</DistanceMeters>
          </Trackpoint>
          <Trackpoint>
            <Time>2019-10-08T09:28:49.000Z</Time>
            <Position>
              <LatitudeDegrees>40.03932223655283451080322265625</LatitudeDegrees>
              <LongitudeDegrees>-6.09928303398191928863525390625</LongitudeDegrees>
            </Position>
            <AltitudeMeters>263.600006103515625</AltitudeMeters>
            <DistanceMeters>NAN</DistanceMeters>
          </Trackpoint>
          <Trackpoint>
            <Time>2019-10-08T09:28:50.000Z</Time>
            <Position>
              <LatitudeDegrees>40.039214193820953369140625</LatitudeDegrees>
              <LongitudeDegrees>-6.09930784441530704498291015625</LongitudeDegrees>
            </Position>
            <AltitudeMeters>262.20001220703125</AltitudeMeters>
            <DistanceMeters>NAN</DistanceMeters>
          </Trackpoint>
          <Trackpoint>
            <Time>2019-10-08T09:28:51.000Z</Time>
            <Position>
              <LatitudeDegrees>40.0390923209488391876220703125</LatitudeDegrees>
              <LongitudeDegrees>-6.09935469925403594970703125</LongitudeDegrees>
            </Position>
            <AltitudeMeters>260.79998779296875</AltitudeMeters>
            <DistanceMeters>NAN</DistanceMeters>
          </Trackpoint>
          <Trackpoint>
            <Time>2019-10-08T09:28:52.000Z</Time>
            <Position>
              <LatitudeDegrees>40.03898662514984607696533203125</LatitudeDegrees>
              <LongitudeDegrees>-6.09939761459827423095703125</LongitudeDegrees>
            </Position>
            <AltitudeMeters>259.600006103515625</AltitudeMeters>
            <DistanceMeters>NAN</DistanceMeters>
          </Trackpoint>
          <Trackpoint>
            <Time>2019-10-08T09:28:53.000Z</Time>
            <Position>
              <LatitudeDegrees>40.0388767383992671966552734375</LatitudeDegrees>
              <LongitudeDegrees>-6.09946877695620059967041015625</LongitudeDegrees>
            </Position>
            <AltitudeMeters>258.600006103515625</AltitudeMeters>
            <DistanceMeters>NAN</DistanceMeters>
          </Trackpoint>
          <Trackpoint>
            <Time>2019-10-08T09:28:54.000Z</Time>
            <Position>
              <LatitudeDegrees>40.03877657465636730194091796875</LatitudeDegrees>
              <LongitudeDegrees>-6.09953298233449459075927734375</LongitudeDegrees>
            </Position>
            <AltitudeMeters>258.399993896484375</AltitudeMeters>
            <DistanceMeters>NAN</DistanceMeters>
          </Trackpoint>
          <Trackpoint>
            <Time>2019-10-08T09:28:55.000Z</Time>
            <Position>
              <LatitudeDegrees>40.0386732257902622222900390625</LatitudeDegrees>
              <LongitudeDegrees>-6.09960339032113552093505859375</LongitudeDegrees>
            </Position>
            <AltitudeMeters>258</AltitudeMeters>
            <DistanceMeters>NAN</DistanceMeters>
          </Trackpoint>
          <Trackpoint>
            <Time>2019-10-08T09:28:59.000Z</Time>
            <Position>
              <LatitudeDegrees>40.0382957048714160919189453125</LatitudeDegrees>
              <LongitudeDegrees>-6.09989809803664684295654296875</LongitudeDegrees>
            </Position>
            <AltitudeMeters>257.79998779296875</AltitudeMeters>
            <DistanceMeters>NAN</DistanceMeters>
          </Trackpoint>
          <Trackpoint>
            <Time>2019-10-08T09:29:00.000Z</Time>
            <Position>
              <LatitudeDegrees>40.0382008217275142669677734375</LatitudeDegrees>
              <LongitudeDegrees>-6.09997018240392208099365234375</LongitudeDegrees>
            </Position>
            <AltitudeMeters>257.20001220703125</AltitudeMeters>
            <DistanceMeters>NAN</DistanceMeters>
          </Trackpoint>
          <Trackpoint>
            <Time>2019-10-08T09:29:03.000Z</Time>
            <Position>
              <LatitudeDegrees>40.03794056363403797149658203125</LatitudeDegrees>
              <LongitudeDegrees>-6.10018576495349407196044921875</LongitudeDegrees>
            </Position>
            <AltitudeMeters>257.399993896484375</AltitudeMeters>
            <DistanceMeters>NAN</DistanceMeters>
          </Trackpoint>
          <Trackpoint>
            <Time>2019-10-08T09:29:05.000Z</Time>
            <Position>
              <LatitudeDegrees>40.03777208738029003143310546875</LatitudeDegrees>
              <LongitudeDegrees>-6.100328005850315093994140625</LongitudeDegrees>
            </Position>
            <AltitudeMeters>257</AltitudeMeters>
            <DistanceMeters>NAN</DistanceMeters>
          </Trackpoint>
          <Trackpoint>
            <Time>2019-10-08T09:29:11.000Z</Time>
            <Position>
              <LatitudeDegrees>40.03726934082806110382080078125</LatitudeDegrees>
              <LongitudeDegrees>-6.1007232964038848876953125</LongitudeDegrees>
            </Position>
            <AltitudeMeters>256.600006103515625</AltitudeMeters>
            <DistanceMeters>NAN</DistanceMeters>
          </Trackpoint>
          <Trackpoint>
            <Time>2019-10-08T09:29:12.000Z</Time>
            <Position>
              <LatitudeDegrees>40.0371869467198848724365234375</LatitudeDegrees>
              <LongitudeDegrees>-6.100787334144115447998046875</LongitudeDegrees>
            </Position>
            <AltitudeMeters>256.600006103515625</AltitudeMeters>
            <DistanceMeters>NAN</DistanceMeters>
          </Trackpoint>
          <Trackpoint>
            <Time>2019-10-08T09:29:14.000Z</Time>
            <Position>
              <LatitudeDegrees>40.0370216555893421173095703125</LatitudeDegrees>
              <LongitudeDegrees>-6.10091934911906719207763671875</LongitudeDegrees>
            </Position>
            <AltitudeMeters>256.20001220703125</AltitudeMeters>
            <DistanceMeters>NAN</DistanceMeters>
          </Trackpoint>
          <Trackpoint>
            <Time>2019-10-08T09:29:16.000Z</Time>
            <Position>
              <LatitudeDegrees>40.0368573702871799468994140625</LatitudeDegrees>
              <LongitudeDegrees>-6.10105144791305065155029296875</LongitudeDegrees>
            </Position>
            <AltitudeMeters>254.8000030517578125</AltitudeMeters>
            <DistanceMeters>NAN</DistanceMeters>
          </Trackpoint>
          <Trackpoint>
            <Time>2019-10-08T09:29:18.000Z</Time>
            <Position>
              <LatitudeDegrees>40.03669702447950839996337890625</LatitudeDegrees>
              <LongitudeDegrees>-6.10117432661354541778564453125</LongitudeDegrees>
            </Position>
            <AltitudeMeters>254.600006103515625</AltitudeMeters>
            <DistanceMeters>NAN</DistanceMeters>
          </Trackpoint>
          <Trackpoint>
            <Time>2019-10-08T09:29:22.000Z</Time>
            <Position>
              <LatitudeDegrees>40.0363725610077381134033203125</LatitudeDegrees>
              <LongitudeDegrees>-6.1013738997280597686767578125</LongitudeDegrees>
            </Position>
            <AltitudeMeters>254.399993896484375</AltitudeMeters>
            <DistanceMeters>NAN</DistanceMeters>
          </Trackpoint>
          <Trackpoint>
            <Time>2019-10-08T09:29:27.000Z</Time>
            <Position>
              <LatitudeDegrees>40.03598012030124664306640625</LatitudeDegrees>
              <LongitudeDegrees>-6.10148596577346324920654296875</LongitudeDegrees>
            </Position>
            <AltitudeMeters>254.8000030517578125</AltitudeMeters>
            <DistanceMeters>NAN</DistanceMeters>
          </Trackpoint>
          <Trackpoint>
            <Time>2019-10-08T09:29:28.000Z</Time>
            <Position>
              <LatitudeDegrees>40.03590376116335391998291015625</LatitudeDegrees>
              <LongitudeDegrees>-6.10149283893406391143798828125</LongitudeDegrees>
            </Position>
            <AltitudeMeters>255.1999969482421875</AltitudeMeters>
            <DistanceMeters>NAN</DistanceMeters>
          </Trackpoint>
          <Trackpoint>
            <Time>2019-10-08T09:29:31.000Z</Time>
            <Position>
              <LatitudeDegrees>40.03567946143448352813720703125</LatitudeDegrees>
              <LongitudeDegrees>-6.1014769971370697021484375</LongitudeDegrees>
            </Position>
            <AltitudeMeters>255.1999969482421875</AltitudeMeters>
            <DistanceMeters>NAN</DistanceMeters>
          </Trackpoint>
          <Trackpoint>
            <Time>2019-10-08T09:29:34.000Z</Time>
            <Position>
              <LatitudeDegrees>40.03546178340911865234375</LatitudeDegrees>
              <LongitudeDegrees>-6.1014382727444171905517578125</LongitudeDegrees>
            </Position>
            <AltitudeMeters>256</AltitudeMeters>
            <DistanceMeters>NAN</DistanceMeters>
          </Trackpoint>
          <Trackpoint>
            <Time>2019-10-08T09:29:37.000Z</Time>
            <Position>
              <LatitudeDegrees>40.0352470390498638153076171875</LatitudeDegrees>
              <LongitudeDegrees>-6.10138588584959506988525390625</LongitudeDegrees>
            </Position>
            <AltitudeMeters>255.8000030517578125</AltitudeMeters>
            <DistanceMeters>NAN</DistanceMeters>
          </Trackpoint>
          <Trackpoint>
            <Time>2019-10-08T09:29:40.000Z</Time>
            <Position>
              <LatitudeDegrees>40.03504461608827114105224609375</LatitudeDegrees>
              <LongitudeDegrees>-6.1013386957347393035888671875</LongitudeDegrees>
            </Position>
            <AltitudeMeters>256</AltitudeMeters>
            <DistanceMeters>NAN</DistanceMeters>
          </Trackpoint>
          <Trackpoint>
            <Time>2019-10-08T09:29:44.000Z</Time>
            <Position>
              <LatitudeDegrees>40.03477874211966991424560546875</LatitudeDegrees>
              <LongitudeDegrees>-6.10131748951971530914306640625</LongitudeDegrees>
            </Position>
            <AltitudeMeters>255.8000030517578125</AltitudeMeters>
            <DistanceMeters>NAN</DistanceMeters>
          </Trackpoint>
          <Trackpoint>
            <Time>2019-10-08T09:29:48.000Z</Time>
            <Position>
              <LatitudeDegrees>40.03452041186392307281494140625</LatitudeDegrees>
              <LongitudeDegrees>-6.1013601534068584442138671875</LongitudeDegrees>
            </Position>
            <AltitudeMeters>257.20001220703125</AltitudeMeters>
            <DistanceMeters>NAN</DistanceMeters>
          </Trackpoint>
          <Trackpoint>
            <Time>2019-10-08T09:29:50.000Z</Time>
            <Position>
              <LatitudeDegrees>40.0343964435160160064697265625</LatitudeDegrees>
              <LongitudeDegrees>-6.1013953574001789093017578125</LongitudeDegrees>
            </Position>
            <AltitudeMeters>257.399993896484375</AltitudeMeters>
            <DistanceMeters>NAN</DistanceMeters>
          </Trackpoint>
          <Trackpoint>
            <Time>2019-10-08T09:29:55.000Z</Time>
            <Position>
              <LatitudeDegrees>40.03412009216845035552978515625</LatitudeDegrees>
              <LongitudeDegrees>-6.101484708487987518310546875</LongitudeDegrees>
            </Position>
            <AltitudeMeters>258.600006103515625</AltitudeMeters>
            <DistanceMeters>NAN</DistanceMeters>
          </Trackpoint>
          <Trackpoint>
            <Time>2019-10-08T09:29:57.000Z</Time>
            <Position>
              <LatitudeDegrees>40.034021437168121337890625</LatitudeDegrees>
              <LongitudeDegrees>-6.1015163920819759368896484375</LongitudeDegrees>
            </Position>
            <AltitudeMeters>259</AltitudeMeters>
            <DistanceMeters>NAN</DistanceMeters>
          </Trackpoint>
          <Trackpoint>
            <Time>2019-10-08T09:30:00.000Z</Time>
            <Position>
              <LatitudeDegrees>40.03388405777513980865478515625</LatitudeDegrees>
              <LongitudeDegrees>-6.101557128131389617919921875</LongitudeDegrees>
            </Position>
            <AltitudeMeters>260</AltitudeMeters>
            <DistanceMeters>NAN</DistanceMeters>
          </Trackpoint>
          <Trackpoint>
            <Time>2019-10-08T09:30:05.000Z</Time>
            <Position>
              <LatitudeDegrees>40.03368146717548370361328125</LatitudeDegrees>
              <LongitudeDegrees>-6.10162493772804737091064453125</LongitudeDegrees>
            </Position>
            <AltitudeMeters>260.79998779296875</AltitudeMeters>
            <DistanceMeters>NAN</DistanceMeters>
          </Trackpoint>
          <Trackpoint>
            <Time>2019-10-08T09:30:07.000Z</Time>
            <Position>
              <LatitudeDegrees>40.0336070358753204345703125</LatitudeDegrees>
              <LongitudeDegrees>-6.1016501672565937042236328125</LongitudeDegrees>
            </Position>
            <AltitudeMeters>261</AltitudeMeters>
            <DistanceMeters>NAN</DistanceMeters>
          </Trackpoint>
          <Trackpoint>
            <Time>2019-10-08T09:30:12.000Z</Time>
            <Position>
              <LatitudeDegrees>40.033421628177165985107421875</LatitudeDegrees>
              <LongitudeDegrees>-6.1017131991684436798095703125</LongitudeDegrees>
            </Position>
            <AltitudeMeters>262.20001220703125</AltitudeMeters>
            <DistanceMeters>NAN</DistanceMeters>
          </Trackpoint>
          <Trackpoint>
            <Time>2019-10-08T09:30:15.000Z</Time>
            <Position>
              <LatitudeDegrees>40.0333131663501262664794921875</LatitudeDegrees>
              <LongitudeDegrees>-6.10175183974206447601318359375</LongitudeDegrees>
            </Position>
            <AltitudeMeters>263</AltitudeMeters>
            <DistanceMeters>NAN</DistanceMeters>
          </Trackpoint>
          <Trackpoint>
            <Time>2019-10-08T09:30:16.000Z</Time>
            <Position>
              <LatitudeDegrees>40.03327846527099609375</LatitudeDegrees>
              <LongitudeDegrees>-6.10176424495875835418701171875</LongitudeDegrees>
            </Position>
            <AltitudeMeters>263.20001220703125</AltitudeMeters>
            <DistanceMeters>NAN</DistanceMeters>
          </Trackpoint>
          <Trackpoint>
            <Time>2019-10-08T09:30:20.000Z</Time>
            <Position>
              <LatitudeDegrees>40.03313521854579448699951171875</LatitudeDegrees>
              <LongitudeDegrees>-6.1018030531704425811767578125</LongitudeDegrees>
            </Position>
            <AltitudeMeters>263.79998779296875</AltitudeMeters>
            <DistanceMeters>NAN</DistanceMeters>
          </Trackpoint>
          <Trackpoint>
            <Time>2019-10-08T09:30:23.000Z</Time>
            <Position>
              <LatitudeDegrees>40.0330308638513088226318359375</LatitudeDegrees>
              <LongitudeDegrees>-6.10182660631835460662841796875</LongitudeDegrees>
            </Position>
            <AltitudeMeters>264.399993896484375</AltitudeMeters>
            <DistanceMeters>NAN</DistanceMeters>
          </Trackpoint>
          <Trackpoint>
            <Time>2019-10-08T09:30:24.000Z</Time>
            <Position>
              <LatitudeDegrees>40.03299574367702007293701171875</LatitudeDegrees>
              <LongitudeDegrees>-6.1018318869173526763916015625</LongitudeDegrees>
            </Position>
            <AltitudeMeters>264.20001220703125</AltitudeMeters>
            <DistanceMeters>NAN</DistanceMeters>
          </Trackpoint>
          <Trackpoint>
            <Time>2019-10-08T09:30:31.000Z</Time>
            <Position>
              <LatitudeDegrees>40.03273657523095607757568359375</LatitudeDegrees>
              <LongitudeDegrees>-6.1018444597721099853515625</LongitudeDegrees>
            </Position>
            <AltitudeMeters>265.600006103515625</AltitudeMeters>
            <DistanceMeters>NAN</DistanceMeters>
          </Trackpoint>
          <Trackpoint>
            <Time>2019-10-08T09:30:32.000Z</Time>
            <Position>
              <LatitudeDegrees>40.03269751556217670440673828125</LatitudeDegrees>
              <LongitudeDegrees>-6.1018399335443973541259765625</LongitudeDegrees>
            </Position>
            <AltitudeMeters>265.79998779296875</AltitudeMeters>
            <DistanceMeters>NAN</DistanceMeters>
          </Trackpoint>
          <Trackpoint>
            <Time>2019-10-08T09:30:41.000Z</Time>
            <Position>
              <LatitudeDegrees>40.03236986696720123291015625</LatitudeDegrees>
              <LongitudeDegrees>-6.10178737901151180267333984375</LongitudeDegrees>
            </Position>
            <AltitudeMeters>266.79998779296875</AltitudeMeters>
            <DistanceMeters>NAN</DistanceMeters>
          </Trackpoint>
          <Trackpoint>
            <Time>2019-10-08T09:30:42.000Z</Time>
            <Position>
              <LatitudeDegrees>40.03233273513615131378173828125</LatitudeDegrees>
              <LongitudeDegrees>-6.1017772369086742401123046875</LongitudeDegrees>
            </Position>
            <AltitudeMeters>266.79998779296875</AltitudeMeters>
            <DistanceMeters>NAN</DistanceMeters>
          </Trackpoint>
          <Trackpoint>
            <Time>2019-10-08T09:30:52.000Z</Time>
            <Position>
              <LatitudeDegrees>40.03196544013917446136474609375</LatitudeDegrees>
              <LongitudeDegrees>-6.10169098712503910064697265625</LongitudeDegrees>
            </Position>
            <AltitudeMeters>267.399993896484375</AltitudeMeters>
            <DistanceMeters>NAN</DistanceMeters>
          </Trackpoint>
          <Trackpoint>
            <Time>2019-10-08T09:30:54.000Z</Time>
            <Position>
              <LatitudeDegrees>40.03189184702932834625244140625</LatitudeDegrees>
              <LongitudeDegrees>-6.1016739718616008758544921875</LongitudeDegrees>
            </Position>
            <AltitudeMeters>268</AltitudeMeters>
            <DistanceMeters>NAN</DistanceMeters>
          </Trackpoint>
          <Trackpoint>
            <Time>2019-10-08T09:31:00.000Z</Time>
            <Position>
              <LatitudeDegrees>40.03166369162499904632568359375</LatitudeDegrees>
              <LongitudeDegrees>-6.10161722637712955474853515625</LongitudeDegrees>
            </Position>
            <AltitudeMeters>268.399993896484375</AltitudeMeters>
            <DistanceMeters>NAN</DistanceMeters>
          </Trackpoint>
          <Trackpoint>
            <Time>2019-10-08T09:31:10.000Z</Time>
            <Position>
              <LatitudeDegrees>40.03127745352685451507568359375</LatitudeDegrees>
              <LongitudeDegrees>-6.10157825052738189697265625</LongitudeDegrees>
            </Position>
            <AltitudeMeters>268.600006103515625</AltitudeMeters>
            <DistanceMeters>NAN</DistanceMeters>
          </Trackpoint>
          <Trackpoint>
            <Time>2019-10-08T09:31:12.000Z</Time>
            <Position>
              <LatitudeDegrees>40.03119966946542263031005859375</LatitudeDegrees>
              <LongitudeDegrees>-6.101577915251255035400390625</LongitudeDegrees>
            </Position>
            <AltitudeMeters>269</AltitudeMeters>
            <DistanceMeters>NAN</DistanceMeters>
          </Trackpoint>
          <Trackpoint>
            <Time>2019-10-08T09:31:19.000Z</Time>
            <Position>
              <LatitudeDegrees>40.03092926926910877227783203125</LatitudeDegrees>
              <LongitudeDegrees>-6.10160348005592823028564453125</LongitudeDegrees>
            </Position>
            <AltitudeMeters>270.20001220703125</AltitudeMeters>
            <DistanceMeters>NAN</DistanceMeters>
          </Trackpoint>
          <Trackpoint>
            <Time>2019-10-08T09:31:26.000Z</Time>
            <Position>
              <LatitudeDegrees>40.0306624732911586761474609375</LatitudeDegrees>
              <LongitudeDegrees>-6.10168780200183391571044921875</LongitudeDegrees>
            </Position>
            <AltitudeMeters>270.600006103515625</AltitudeMeters>
            <DistanceMeters>NAN</DistanceMeters>
          </Trackpoint>
          <Trackpoint>
            <Time>2019-10-08T09:31:35.000Z</Time>
            <Position>
              <LatitudeDegrees>40.03032225184142589569091796875</LatitudeDegrees>
              <LongitudeDegrees>-6.1018858663737773895263671875</LongitudeDegrees>
            </Position>
            <AltitudeMeters>270.79998779296875</AltitudeMeters>
            <DistanceMeters>NAN</DistanceMeters>
          </Trackpoint>
          <Trackpoint>
            <Time>2019-10-08T09:31:43.000Z</Time>
            <Position>
              <LatitudeDegrees>40.030023269355297088623046875</LatitudeDegrees>
              <LongitudeDegrees>-6.10216573812067508697509765625</LongitudeDegrees>
            </Position>
            <AltitudeMeters>270.20001220703125</AltitudeMeters>
            <DistanceMeters>NAN</DistanceMeters>
          </Trackpoint>
          <Trackpoint>
            <Time>2019-10-08T09:31:49.000Z</Time>
            <Position>
              <LatitudeDegrees>40.0298205949366092681884765625</LatitudeDegrees>
              <LongitudeDegrees>-6.10244150273501873016357421875</LongitudeDegrees>
            </Position>
            <AltitudeMeters>270.20001220703125</AltitudeMeters>
            <DistanceMeters>NAN</DistanceMeters>
          </Trackpoint>
          <Trackpoint>
            <Time>2019-10-08T09:31:51.000Z</Time>
            <Position>
              <LatitudeDegrees>40.02975965850055217742919921875</LatitudeDegrees>
              <LongitudeDegrees>-6.1025466956198215484619140625</LongitudeDegrees>
            </Position>
            <AltitudeMeters>269.79998779296875</AltitudeMeters>
            <DistanceMeters>NAN</DistanceMeters>
          </Trackpoint>
          <Trackpoint>
            <Time>2019-10-08T09:31:54.000Z</Time>
            <Position>
              <LatitudeDegrees>40.02967022359371185302734375</LatitudeDegrees>
              <LongitudeDegrees>-6.10272631980478763580322265625</LongitudeDegrees>
            </Position>
            <AltitudeMeters>269</AltitudeMeters>
            <DistanceMeters>NAN</DistanceMeters>
          </Trackpoint>
          <Trackpoint>
            <Time>2019-10-08T09:31:58.000Z</Time>
            <Position>
              <LatitudeDegrees>40.02955949865281581878662109375</LatitudeDegrees>
              <LongitudeDegrees>-6.10298682935535907745361328125</LongitudeDegrees>
            </Position>
            <AltitudeMeters>268.600006103515625</AltitudeMeters>
            <DistanceMeters>NAN</DistanceMeters>
          </Trackpoint>
          <Trackpoint>
            <Time>2019-10-08T09:32:03.000Z</Time>
            <Position>
              <LatitudeDegrees>40.02943226136267185211181640625</LatitudeDegrees>
              <LongitudeDegrees>-6.10333777964115142822265625</LongitudeDegrees>
            </Position>
            <AltitudeMeters>268</AltitudeMeters>
            <DistanceMeters>NAN</DistanceMeters>
          </Trackpoint>
          <Trackpoint>
            <Time>2019-10-08T09:32:06.000Z</Time>
            <Position>
              <LatitudeDegrees>40.02935565076768398284912109375</LatitudeDegrees>
              <LongitudeDegrees>-6.10356300137937068939208984375</LongitudeDegrees>
            </Position>
            <AltitudeMeters>266.79998779296875</AltitudeMeters>
            <DistanceMeters>NAN</DistanceMeters>
          </Trackpoint>
          <Trackpoint>
            <Time>2019-10-08T09:32:07.000Z</Time>
            <Position>
              <LatitudeDegrees>40.02932882867753505706787109375</LatitudeDegrees>
              <LongitudeDegrees>-6.10364128835499286651611328125</LongitudeDegrees>
            </Position>
            <AltitudeMeters>266.79998779296875</AltitudeMeters>
            <DistanceMeters>NAN</DistanceMeters>
          </Trackpoint>
          <Trackpoint>
            <Time>2019-10-08T09:32:11.000Z</Time>
            <Position>
              <LatitudeDegrees>40.029221959412097930908203125</LatitudeDegrees>
              <LongitudeDegrees>-6.10395678319036960601806640625</LongitudeDegrees>
            </Position>
            <AltitudeMeters>266.20001220703125</AltitudeMeters>
            <DistanceMeters>NAN</DistanceMeters>
          </Trackpoint>
          <Trackpoint>
            <Time>2019-10-08T09:32:13.000Z</Time>
            <Position>
              <LatitudeDegrees>40.02916923724114894866943359375</LatitudeDegrees>
              <LongitudeDegrees>-6.10411670990288257598876953125</LongitudeDegrees>
            </Position>
            <AltitudeMeters>266.20001220703125</AltitudeMeters>
            <DistanceMeters>NAN</DistanceMeters>
          </Trackpoint>
          <Trackpoint>
            <Time>2019-10-08T09:32:16.000Z</Time>
            <Position>
              <LatitudeDegrees>40.0290860049426555633544921875</LatitudeDegrees>
              <LongitudeDegrees>-6.1043625511229038238525390625</LongitudeDegrees>
            </Position>
            <AltitudeMeters>266.20001220703125</AltitudeMeters>
            <DistanceMeters>NAN</DistanceMeters>
          </Trackpoint>
          <Trackpoint>
            <Time>2019-10-08T09:32:17.000Z</Time>
            <Position>
              <LatitudeDegrees>40.02905775792896747589111328125</LatitudeDegrees>
              <LongitudeDegrees>-6.1044467054307460784912109375</LongitudeDegrees>
            </Position>
            <AltitudeMeters>265.399993896484375</AltitudeMeters>
            <DistanceMeters>NAN</DistanceMeters>
          </Trackpoint>
          <Trackpoint>
            <Time>2019-10-08T09:32:20.000Z</Time>
            <Position>
              <LatitudeDegrees>40.0289763696491718292236328125</LatitudeDegrees>
              <LongitudeDegrees>-6.10468617640435695648193359375</LongitudeDegrees>
            </Position>
            <AltitudeMeters>265</AltitudeMeters>
            <DistanceMeters>NAN</DistanceMeters>
          </Trackpoint>
          <Trackpoint>
            <Time>2019-10-08T09:32:22.000Z</Time>
            <Position>
              <LatitudeDegrees>40.02893353812396526336669921875</LatitudeDegrees>
              <LongitudeDegrees>-6.1048423312604427337646484375</LongitudeDegrees>
            </Position>
            <AltitudeMeters>265.20001220703125</AltitudeMeters>
            <DistanceMeters>NAN</DistanceMeters>
          </Trackpoint>
          <Trackpoint>
            <Time>2019-10-08T09:32:25.000Z</Time>
            <Position>
              <LatitudeDegrees>40.02894468605518341064453125</LatitudeDegrees>
              <LongitudeDegrees>-6.10508280806243419647216796875</LongitudeDegrees>
            </Position>
            <AltitudeMeters>265.399993896484375</AltitudeMeters>
            <DistanceMeters>NAN</DistanceMeters>
          </Trackpoint>
          <Trackpoint>
            <Time>2019-10-08T09:32:26.000Z</Time>
            <Position>
              <LatitudeDegrees>40.02896186895668506622314453125</LatitudeDegrees>
              <LongitudeDegrees>-6.10515656881034374237060546875</LongitudeDegrees>
            </Position>
            <AltitudeMeters>265.600006103515625</AltitudeMeters>
            <DistanceMeters>NAN</DistanceMeters>
          </Trackpoint>
          <Trackpoint>
            <Time>2019-10-08T09:32:28.000Z</Time>
            <Position>
              <LatitudeDegrees>40.02899288199841976165771484375</LatitudeDegrees>
              <LongitudeDegrees>-6.10530727542936801910400390625</LongitudeDegrees>
            </Position>
            <AltitudeMeters>266.20001220703125</AltitudeMeters>
            <DistanceMeters>NAN</DistanceMeters>
          </Trackpoint>
          <Trackpoint>
            <Time>2019-10-08T09:32:29.000Z</Time>
            <Position>
              <LatitudeDegrees>40.02899221144616603851318359375</LatitudeDegrees>
              <LongitudeDegrees>-6.10538355074822902679443359375</LongitudeDegrees>
            </Position>
            <AltitudeMeters>266.399993896484375</AltitudeMeters>
            <DistanceMeters>NAN</DistanceMeters>
          </Trackpoint>
          <Trackpoint>
            <Time>2019-10-08T09:32:30.000Z</Time>
            <Position>
              <LatitudeDegrees>40.0289807282388210296630859375</LatitudeDegrees>
              <LongitudeDegrees>-6.1054575629532337188720703125</LongitudeDegrees>
            </Position>
            <AltitudeMeters>266.20001220703125</AltitudeMeters>
            <DistanceMeters>NAN</DistanceMeters>
          </Trackpoint>
          <Trackpoint>
            <Time>2019-10-08T09:32:33.000Z</Time>
            <Position>
              <LatitudeDegrees>40.0288885273039340972900390625</LatitudeDegrees>
              <LongitudeDegrees>-6.1056533642113208770751953125</LongitudeDegrees>
            </Position>
            <AltitudeMeters>266.399993896484375</AltitudeMeters>
            <DistanceMeters>NAN</DistanceMeters>
          </Trackpoint>
          <Trackpoint>
            <Time>2019-10-08T09:32:37.000Z</Time>
            <Position>
              <LatitudeDegrees>40.02868057228624820709228515625</LatitudeDegrees>
              <LongitudeDegrees>-6.1058290489017963409423828125</LongitudeDegrees>
            </Position>
            <AltitudeMeters>265.79998779296875</AltitudeMeters>
            <DistanceMeters>NAN</DistanceMeters>
          </Trackpoint>
          <Trackpoint>
            <Time>2019-10-08T09:32:39.000Z</Time>
            <Position>
              <LatitudeDegrees>40.02858501859009265899658203125</LatitudeDegrees>
              <LongitudeDegrees>-6.10592552460730075836181640625</LongitudeDegrees>
            </Position>
            <AltitudeMeters>265.79998779296875</AltitudeMeters>
            <DistanceMeters>NAN</DistanceMeters>
          </Trackpoint>
          <Trackpoint>
            <Time>2019-10-08T09:32:41.000Z</Time>
            <Position>
              <LatitudeDegrees>40.028516538441181182861328125</LatitudeDegrees>
              <LongitudeDegrees>-6.10604756511747837066650390625</LongitudeDegrees>
            </Position>
            <AltitudeMeters>266.399993896484375</AltitudeMeters>
            <DistanceMeters>NAN</DistanceMeters>
          </Trackpoint>
          <Trackpoint>
            <Time>2019-10-08T09:32:43.000Z</Time>
            <Position>
              <LatitudeDegrees>40.02846733666956424713134765625</LatitudeDegrees>
              <LongitudeDegrees>-6.10617580823600292205810546875</LongitudeDegrees>
            </Position>
            <AltitudeMeters>267.600006103515625</AltitudeMeters>
            <DistanceMeters>NAN</DistanceMeters>
          </Trackpoint>
          <Trackpoint>
            <Time>2019-10-08T09:32:44.000Z</Time>
            <Position>
              <LatitudeDegrees>40.0284469686448574066162109375</LatitudeDegrees>
              <LongitudeDegrees>-6.10623666085302829742431640625</LongitudeDegrees>
            </Position>
            <AltitudeMeters>267.79998779296875</AltitudeMeters>
            <DistanceMeters>NAN</DistanceMeters>
          </Trackpoint>
          <Trackpoint>
            <Time>2019-10-08T09:32:47.000Z</Time>
            <Position>
              <LatitudeDegrees>40.02838586457073688507080078125</LatitudeDegrees>
              <LongitudeDegrees>-6.1064063943922519683837890625</LongitudeDegrees>
            </Position>
            <AltitudeMeters>268.79998779296875</AltitudeMeters>
            <DistanceMeters>NAN</DistanceMeters>
          </Trackpoint>
          <Trackpoint>
            <Time>2019-10-08T09:32:52.000Z</Time>
            <Position>
              <LatitudeDegrees>40.02827824093401432037353515625</LatitudeDegrees>
              <LongitudeDegrees>-6.106653325259685516357421875</LongitudeDegrees>
            </Position>
            <AltitudeMeters>270</AltitudeMeters>
            <DistanceMeters>NAN</DistanceMeters>
          </Trackpoint>
          <Trackpoint>
            <Time>2019-10-08T09:32:55.000Z</Time>
            <Position>
              <LatitudeDegrees>40.0282085873186588287353515625</LatitudeDegrees>
              <LongitudeDegrees>-6.10678701661527156829833984375</LongitudeDegrees>
            </Position>
            <AltitudeMeters>270.399993896484375</AltitudeMeters>
            <DistanceMeters>NAN</DistanceMeters>
          </Trackpoint>
          <Trackpoint>
            <Time>2019-10-08T09:32:58.000Z</Time>
            <Position>
              <LatitudeDegrees>40.028141029179096221923828125</LatitudeDegrees>
              <LongitudeDegrees>-6.10690654255449771881103515625</LongitudeDegrees>
            </Position>
            <AltitudeMeters>271</AltitudeMeters>
            <DistanceMeters>NAN</DistanceMeters>
          </Trackpoint>
          <Trackpoint>
            <Time>2019-10-08T09:33:03.000Z</Time>
            <Position>
              <LatitudeDegrees>40.0280201621353626251220703125</LatitudeDegrees>
              <LongitudeDegrees>-6.10708608292043209075927734375</LongitudeDegrees>
            </Position>
            <AltitudeMeters>271.399993896484375</AltitudeMeters>
            <DistanceMeters>NAN</DistanceMeters>
          </Trackpoint>
          <Trackpoint>
            <Time>2019-10-08T09:33:07.000Z</Time>
            <Position>
              <LatitudeDegrees>40.0279145501554012298583984375</LatitudeDegrees>
              <LongitudeDegrees>-6.1072170920670032501220703125</LongitudeDegrees>
            </Position>
            <AltitudeMeters>272.399993896484375</AltitudeMeters>
            <DistanceMeters>NAN</DistanceMeters>
          </Trackpoint>
          <Trackpoint>
            <Time>2019-10-08T09:33:12.000Z</Time>
            <Position>
              <LatitudeDegrees>40.027772225439548492431640625</LatitudeDegrees>
              <LongitudeDegrees>-6.10735497437417507171630859375</LongitudeDegrees>
            </Position>
            <AltitudeMeters>273.20001220703125</AltitudeMeters>
            <DistanceMeters>NAN</DistanceMeters>
          </Trackpoint>
          <Trackpoint>
            <Time>2019-10-08T09:33:14.000Z</Time>
            <Position>
              <LatitudeDegrees>40.02771765924990177154541015625</LatitudeDegrees>
              <LongitudeDegrees>-6.10741096548736095428466796875</LongitudeDegrees>
            </Position>
            <AltitudeMeters>273.399993896484375</AltitudeMeters>
            <DistanceMeters>NAN</DistanceMeters>
          </Trackpoint>
          <Trackpoint>
            <Time>2019-10-08T09:33:19.000Z</Time>
            <Position>
              <LatitudeDegrees>40.02756561152637004852294921875</LatitudeDegrees>
              <LongitudeDegrees>-6.10753300599753856658935546875</LongitudeDegrees>
            </Position>
            <AltitudeMeters>274.20001220703125</AltitudeMeters>
            <DistanceMeters>NAN</DistanceMeters>
          </Trackpoint>
          <Trackpoint>
            <Time>2019-10-08T09:33:21.000Z</Time>
            <Position>
              <LatitudeDegrees>40.02750140614807605743408203125</LatitudeDegrees>
              <LongitudeDegrees>-6.107572652399539947509765625</LongitudeDegrees>
            </Position>
            <AltitudeMeters>274.600006103515625</AltitudeMeters>
            <DistanceMeters>NAN</DistanceMeters>
          </Trackpoint>
          <Trackpoint>
            <Time>2019-10-08T09:33:27.000Z</Time>
            <Position>
              <LatitudeDegrees>40.02730811946094036102294921875</LatitudeDegrees>
              <LongitudeDegrees>-6.10767952166497707366943359375</LongitudeDegrees>
            </Position>
            <AltitudeMeters>275.79998779296875</AltitudeMeters>
            <DistanceMeters>NAN</DistanceMeters>
          </Trackpoint>
          <Trackpoint>
            <Time>2019-10-08T09:33:34.000Z</Time>
            <Position>
              <LatitudeDegrees>40.0270636193454265594482421875</LatitudeDegrees>
              <LongitudeDegrees>-6.1077625863254070281982421875</LongitudeDegrees>
            </Position>
            <AltitudeMeters>276.79998779296875</AltitudeMeters>
            <DistanceMeters>NAN</DistanceMeters>
          </Trackpoint>
          <Trackpoint>
            <Time>2019-10-08T09:33:38.000Z</Time>
            <Position>
              <LatitudeDegrees>40.0269204564392566680908203125</LatitudeDegrees>
              <LongitudeDegrees>-6.10779250971972942352294921875</LongitudeDegrees>
            </Position>
            <AltitudeMeters>277</AltitudeMeters>
            <DistanceMeters>NAN</DistanceMeters>
          </Trackpoint>
          <Trackpoint>
            <Time>2019-10-08T09:33:42.000Z</Time>
            <Position>
              <LatitudeDegrees>40.0267712585628032684326171875</LatitudeDegrees>
              <LongitudeDegrees>-6.1078095249831676483154296875</LongitudeDegrees>
            </Position>
            <AltitudeMeters>277.79998779296875</AltitudeMeters>
            <DistanceMeters>NAN</DistanceMeters>
          </Trackpoint>
          <Trackpoint>
            <Time>2019-10-08T09:33:47.000Z</Time>
            <Position>
              <LatitudeDegrees>40.0265804864466190338134765625</LatitudeDegrees>
              <LongitudeDegrees>-6.10780877061188220977783203125</LongitudeDegrees>
            </Position>
            <AltitudeMeters>277.79998779296875</AltitudeMeters>
            <DistanceMeters>NAN</DistanceMeters>
          </Trackpoint>
          <Trackpoint>
            <Time>2019-10-08T09:33:54.000Z</Time>
            <Position>
              <LatitudeDegrees>40.0263122655451297760009765625</LatitudeDegrees>
              <LongitudeDegrees>-6.107782535254955291748046875</LongitudeDegrees>
            </Position>
            <AltitudeMeters>278.399993896484375</AltitudeMeters>
            <DistanceMeters>NAN</DistanceMeters>
          </Trackpoint>
          <Trackpoint>
            <Time>2019-10-08T09:33:57.000Z</Time>
            <Position>
              <LatitudeDegrees>40.0262009538710117340087890625</LatitudeDegrees>
              <LongitudeDegrees>-6.1077696271240711212158203125</LongitudeDegrees>
            </Position>
            <AltitudeMeters>279</AltitudeMeters>
            <DistanceMeters>NAN</DistanceMeters>
          </Trackpoint>
          <Trackpoint>
            <Time>2019-10-08T09:34:01.000Z</Time>
            <Position>
              <LatitudeDegrees>40.02604664303362369537353515625</LatitudeDegrees>
              <LongitudeDegrees>-6.10774138011038303375244140625</LongitudeDegrees>
            </Position>
            <AltitudeMeters>279.600006103515625</AltitudeMeters>
            <DistanceMeters>NAN</DistanceMeters>
          </Trackpoint>
          <Trackpoint>
            <Time>2019-10-08T09:34:11.000Z</Time>
            <Position>
              <LatitudeDegrees>40.02565001137554645538330078125</LatitudeDegrees>
              <LongitudeDegrees>-6.10767734237015247344970703125</LongitudeDegrees>
            </Position>
            <AltitudeMeters>279.600006103515625</AltitudeMeters>
            <DistanceMeters>NAN</DistanceMeters>
          </Trackpoint>
          <Trackpoint>
            <Time>2019-10-08T09:34:20.000Z</Time>
            <Position>
              <LatitudeDegrees>40.02525639720261096954345703125</LatitudeDegrees>
              <LongitudeDegrees>-6.10760861076414585113525390625</LongitudeDegrees>
            </Position>
            <AltitudeMeters>279.20001220703125</AltitudeMeters>
            <DistanceMeters>NAN</DistanceMeters>
          </Trackpoint>
          <Trackpoint>
            <Time>2019-10-08T09:34:26.000Z</Time>
            <Position>
              <LatitudeDegrees>40.0249735079705715179443359375</LatitudeDegrees>
              <LongitudeDegrees>-6.10756468959152698516845703125</LongitudeDegrees>
            </Position>
            <AltitudeMeters>278.399993896484375</AltitudeMeters>
            <DistanceMeters>NAN</DistanceMeters>
          </Trackpoint>
          <Trackpoint>
            <Time>2019-10-08T09:34:28.000Z</Time>
            <Position>
              <LatitudeDegrees>40.02487267367541790008544921875</LatitudeDegrees>
              <LongitudeDegrees>-6.1075449921190738677978515625</LongitudeDegrees>
            </Position>
            <AltitudeMeters>278</AltitudeMeters>
            <DistanceMeters>NAN</DistanceMeters>
          </Trackpoint>
          <Trackpoint>
            <Time>2019-10-08T09:34:32.000Z</Time>
            <Position>
              <LatitudeDegrees>40.0246677361428737640380859375</LatitudeDegrees>
              <LongitudeDegrees>-6.10751238651573657989501953125</LongitudeDegrees>
            </Position>
            <AltitudeMeters>277.20001220703125</AltitudeMeters>
            <DistanceMeters>NAN</DistanceMeters>
          </Trackpoint>
          <Trackpoint>
            <Time>2019-10-08T09:34:34.000Z</Time>
            <Position>
              <LatitudeDegrees>40.02456287853419780731201171875</LatitudeDegrees>
              <LongitudeDegrees>-6.1074957065284252166748046875</LongitudeDegrees>
            </Position>
            <AltitudeMeters>276.79998779296875</AltitudeMeters>
            <DistanceMeters>NAN</DistanceMeters>
          </Trackpoint>
          <Trackpoint>
            <Time>2019-10-08T09:34:36.000Z</Time>
            <Position>
              <LatitudeDegrees>40.02445424906909465789794921875</LatitudeDegrees>
              <LongitudeDegrees>-6.1074752546846866607666015625</LongitudeDegrees>
            </Position>
            <AltitudeMeters>276.399993896484375</AltitudeMeters>
            <DistanceMeters>NAN</DistanceMeters>
          </Trackpoint>
          <Trackpoint>
            <Time>2019-10-08T09:34:38.000Z</Time>
            <Position>
              <LatitudeDegrees>40.0243411771953105926513671875</LatitudeDegrees>
              <LongitudeDegrees>-6.1074571497738361358642578125</LongitudeDegrees>
            </Position>
            <AltitudeMeters>275.79998779296875</AltitudeMeters>
            <DistanceMeters>NAN</DistanceMeters>
          </Trackpoint>
          <Trackpoint>
            <Time>2019-10-08T09:34:39.000Z</Time>
            <Position>
              <LatitudeDegrees>40.02428292296826839447021484375</LatitudeDegrees>
              <LongitudeDegrees>-6.10744600184261798858642578125</LongitudeDegrees>
            </Position>
            <AltitudeMeters>275.600006103515625</AltitudeMeters>
            <DistanceMeters>NAN</DistanceMeters>
          </Trackpoint>
          <Trackpoint>
            <Time>2019-10-08T09:34:42.000Z</Time>
            <Position>
              <LatitudeDegrees>40.02410237677395343780517578125</LatitudeDegrees>
              <LongitudeDegrees>-6.10741884447634220123291015625</LongitudeDegrees>
            </Position>
            <AltitudeMeters>274.399993896484375</AltitudeMeters>
            <DistanceMeters>NAN</DistanceMeters>
          </Trackpoint>
          <Trackpoint>
            <Time>2019-10-08T09:34:45.000Z</Time>
            <Position>
              <LatitudeDegrees>40.0239173881709575653076171875</LatitudeDegrees>
              <LongitudeDegrees>-6.107386909425258636474609375</LongitudeDegrees>
            </Position>
            <AltitudeMeters>273.600006103515625</AltitudeMeters>
            <DistanceMeters>NAN</DistanceMeters>
          </Trackpoint>
          <Trackpoint>
            <Time>2019-10-08T09:34:46.000Z</Time>
            <Position>
              <LatitudeDegrees>40.02385385334491729736328125</LatitudeDegrees>
              <LongitudeDegrees>-6.10737475566565990447998046875</LongitudeDegrees>
            </Position>
            <AltitudeMeters>273</AltitudeMeters>
            <DistanceMeters>NAN</DistanceMeters>
          </Trackpoint>
          <Trackpoint>
            <Time>2019-10-08T09:34:49.000Z</Time>
            <Position>
              <LatitudeDegrees>40.02365964464843273162841796875</LatitudeDegrees>
              <LongitudeDegrees>-6.10733653418719768524169921875</LongitudeDegrees>
            </Position>
            <AltitudeMeters>272.399993896484375</AltitudeMeters>
            <DistanceMeters>NAN</DistanceMeters>
          </Trackpoint>
          <Trackpoint>
            <Time>2019-10-08T09:34:50.000Z</Time>
            <Position>
              <LatitudeDegrees>40.0235951878130435943603515625</LatitudeDegrees>
              <LongitudeDegrees>-6.1073247157037258148193359375</LongitudeDegrees>
            </Position>
            <AltitudeMeters>271.79998779296875</AltitudeMeters>
            <DistanceMeters>NAN</DistanceMeters>
          </Trackpoint>
          <Trackpoint>
            <Time>2019-10-08T09:34:55.000Z</Time>
            <Position>
              <LatitudeDegrees>40.02327357418835163116455078125</LatitudeDegrees>
              <LongitudeDegrees>-6.1072707362473011016845703125</LongitudeDegrees>
            </Position>
            <AltitudeMeters>272</AltitudeMeters>
            <DistanceMeters>NAN</DistanceMeters>
          </Trackpoint>
          <Trackpoint>
            <Time>2019-10-08T09:34:56.000Z</Time>
            <Position>
              <LatitudeDegrees>40.02321012318134307861328125</LatitudeDegrees>
              <LongitudeDegrees>-6.10726059414446353912353515625</LongitudeDegrees>
            </Position>
            <AltitudeMeters>271.79998779296875</AltitudeMeters>
            <DistanceMeters>NAN</DistanceMeters>
          </Trackpoint>
          <Trackpoint>
            <Time>2019-10-08T09:34:57.000Z</Time>
            <Position>
              <LatitudeDegrees>40.023147426545619964599609375</LatitudeDegrees>
              <LongitudeDegrees>-6.1072491109371185302734375</LongitudeDegrees>
            </Position>
            <AltitudeMeters>271.79998779296875</AltitudeMeters>
            <DistanceMeters>NAN</DistanceMeters>
          </Trackpoint>
          <Trackpoint>
            <Time>2019-10-08T09:34:58.000Z</Time>
            <Position>
              <LatitudeDegrees>40.023084394633769989013671875</LatitudeDegrees>
              <LongitudeDegrees>-6.10723746009171009063720703125</LongitudeDegrees>
            </Position>
            <AltitudeMeters>271.399993896484375</AltitudeMeters>
            <DistanceMeters>NAN</DistanceMeters>
          </Trackpoint>
          <Trackpoint>
            <Time>2019-10-08T09:35:01.000Z</Time>
            <Position>
              <LatitudeDegrees>40.0228974781930446624755859375</LatitudeDegrees>
              <LongitudeDegrees>-6.10720493830740451812744140625</LongitudeDegrees>
            </Position>
            <AltitudeMeters>270.79998779296875</AltitudeMeters>
            <DistanceMeters>NAN</DistanceMeters>
          </Trackpoint>
          <Trackpoint>
            <Time>2019-10-08T09:35:03.000Z</Time>
            <Position>
              <LatitudeDegrees>40.02277619205415248870849609375</LatitudeDegrees>
              <LongitudeDegrees>-6.1071852408349514007568359375</LongitudeDegrees>
            </Position>
            <AltitudeMeters>270.79998779296875</AltitudeMeters>
            <DistanceMeters>NAN</DistanceMeters>
          </Trackpoint>
          <Trackpoint>
            <Time>2019-10-08T09:35:05.000Z</Time>
            <Position>
              <LatitudeDegrees>40.02265884540975093841552734375</LatitudeDegrees>
              <LongitudeDegrees>-6.1071632802486419677734375</LongitudeDegrees>
            </Position>
            <AltitudeMeters>271</AltitudeMeters>
            <DistanceMeters>NAN</DistanceMeters>
          </Trackpoint>
          <Trackpoint>
            <Time>2019-10-08T09:35:07.000Z</Time>
            <Position>
              <LatitudeDegrees>40.0225404091179370880126953125</LatitudeDegrees>
              <LongitudeDegrees>-6.1071423254907131195068359375</LongitudeDegrees>
            </Position>
            <AltitudeMeters>270.600006103515625</AltitudeMeters>
            <DistanceMeters>NAN</DistanceMeters>
          </Trackpoint>
          <Trackpoint>
            <Time>2019-10-08T09:35:13.000Z</Time>
            <Position>
              <LatitudeDegrees>40.0221746228635311126708984375</LatitudeDegrees>
              <LongitudeDegrees>-6.1070829816162586212158203125</LongitudeDegrees>
            </Position>
            <AltitudeMeters>270</AltitudeMeters>
            <DistanceMeters>NAN</DistanceMeters>
          </Trackpoint>
          <Trackpoint>
            <Time>2019-10-08T09:35:15.000Z</Time>
            <Position>
              <LatitudeDegrees>40.02205140888690948486328125</LatitudeDegrees>
              <LongitudeDegrees>-6.1070621944963932037353515625</LongitudeDegrees>
            </Position>
            <AltitudeMeters>269.399993896484375</AltitudeMeters>
            <DistanceMeters>NAN</DistanceMeters>
          </Trackpoint>
          <Trackpoint>
            <Time>2019-10-08T09:35:18.000Z</Time>
            <Position>
              <LatitudeDegrees>40.0218567810952663421630859375</LatitudeDegrees>
              <LongitudeDegrees>-6.1070326901972293853759765625</LongitudeDegrees>
            </Position>
            <AltitudeMeters>268.20001220703125</AltitudeMeters>
            <DistanceMeters>NAN</DistanceMeters>
          </Trackpoint>
          <Trackpoint>
            <Time>2019-10-08T09:35:20.000Z</Time>
            <Position>
              <LatitudeDegrees>40.02172417938709259033203125</LatitudeDegrees>
              <LongitudeDegrees>-6.10701014287769794464111328125</LongitudeDegrees>
            </Position>
            <AltitudeMeters>268</AltitudeMeters>
            <DistanceMeters>NAN</DistanceMeters>
          </Trackpoint>
          <Trackpoint>
            <Time>2019-10-08T09:35:23.000Z</Time>
            <Position>
              <LatitudeDegrees>40.02151857130229473114013671875</LatitudeDegrees>
              <LongitudeDegrees>-6.106981895864009857177734375</LongitudeDegrees>
            </Position>
            <AltitudeMeters>267</AltitudeMeters>
            <DistanceMeters>NAN</DistanceMeters>
          </Trackpoint>
          <Trackpoint>
            <Time>2019-10-08T09:35:27.000Z</Time>
            <Position>
              <LatitudeDegrees>40.02122771926224231719970703125</LatitudeDegrees>
              <LongitudeDegrees>-6.1069545708596706390380859375</LongitudeDegrees>
            </Position>
            <AltitudeMeters>265.79998779296875</AltitudeMeters>
            <DistanceMeters>NAN</DistanceMeters>
          </Trackpoint>
          <Trackpoint>
            <Time>2019-10-08T09:35:30.000Z</Time>
            <Position>
              <LatitudeDegrees>40.0209979712963104248046875</LatitudeDegrees>
              <LongitudeDegrees>-6.10694292001426219940185546875</LongitudeDegrees>
            </Position>
            <AltitudeMeters>264.399993896484375</AltitudeMeters>
            <DistanceMeters>NAN</DistanceMeters>
          </Trackpoint>
          <Trackpoint>
            <Time>2019-10-08T09:35:35.000Z</Time>
            <Position>
              <LatitudeDegrees>40.02060033380985260009765625</LatitudeDegrees>
              <LongitudeDegrees>-6.1069562472403049468994140625</LongitudeDegrees>
            </Position>
            <AltitudeMeters>263.20001220703125</AltitudeMeters>
            <DistanceMeters>NAN</DistanceMeters>
          </Trackpoint>
          <Trackpoint>
            <Time>2019-10-08T09:35:36.000Z</Time>
            <Position>
              <LatitudeDegrees>40.02051894553005695343017578125</LatitudeDegrees>
              <LongitudeDegrees>-6.10696521587669849395751953125</LongitudeDegrees>
            </Position>
            <AltitudeMeters>262.20001220703125</AltitudeMeters>
            <DistanceMeters>NAN</DistanceMeters>
          </Trackpoint>
          <Trackpoint>
            <Time>2019-10-08T09:35:37.000Z</Time>
            <Position>
              <LatitudeDegrees>40.0204358808696269989013671875</LatitudeDegrees>
              <LongitudeDegrees>-6.10697577707469463348388671875</LongitudeDegrees>
            </Position>
            <AltitudeMeters>261.79998779296875</AltitudeMeters>
            <DistanceMeters>NAN</DistanceMeters>
          </Trackpoint>
          <Trackpoint>
            <Time>2019-10-08T09:35:38.000Z</Time>
            <Position>
              <LatitudeDegrees>40.02035231329500675201416015625</LatitudeDegrees>
              <LongitudeDegrees>-6.1069870926439762115478515625</LongitudeDegrees>
            </Position>
            <AltitudeMeters>260.79998779296875</AltitudeMeters>
            <DistanceMeters>NAN</DistanceMeters>
          </Trackpoint>
          <Trackpoint>
            <Time>2019-10-08T09:35:39.000Z</Time>
            <Position>
              <LatitudeDegrees>40.0202675722539424896240234375</LatitudeDegrees>
              <LongitudeDegrees>-6.10700259916484355926513671875</LongitudeDegrees>
            </Position>
            <AltitudeMeters>260.399993896484375</AltitudeMeters>
            <DistanceMeters>NAN</DistanceMeters>
          </Trackpoint>
          <Trackpoint>
            <Time>2019-10-08T09:35:42.000Z</Time>
            <Position>
              <LatitudeDegrees>40.020009241998195648193359375</LatitudeDegrees>
              <LongitudeDegrees>-6.107059009373188018798828125</LongitudeDegrees>
            </Position>
            <AltitudeMeters>259.399993896484375</AltitudeMeters>
            <DistanceMeters>NAN</DistanceMeters>
          </Trackpoint>
          <Trackpoint>
            <Time>2019-10-08T09:35:48.000Z</Time>
            <Position>
              <LatitudeDegrees>40.01950775273144245147705078125</LatitudeDegrees>
              <LongitudeDegrees>-6.1072472669184207916259765625</LongitudeDegrees>
            </Position>
            <AltitudeMeters>258.20001220703125</AltitudeMeters>
            <DistanceMeters>NAN</DistanceMeters>
          </Trackpoint>
          <Trackpoint>
            <Time>2019-10-08T09:35:49.000Z</Time>
            <Position>
              <LatitudeDegrees>40.01942728646099567413330078125</LatitudeDegrees>
              <LongitudeDegrees>-6.10728423111140727996826171875</LongitudeDegrees>
            </Position>
            <AltitudeMeters>257.79998779296875</AltitudeMeters>
            <DistanceMeters>NAN</DistanceMeters>
          </Trackpoint>
          <Trackpoint>
            <Time>2019-10-08T09:35:54.000Z</Time>
            <Position>
              <LatitudeDegrees>40.01905127428472042083740234375</LatitudeDegrees>
              <LongitudeDegrees>-6.107478775084018707275390625</LongitudeDegrees>
            </Position>
            <AltitudeMeters>257.399993896484375</AltitudeMeters>
            <DistanceMeters>NAN</DistanceMeters>
          </Trackpoint>
          <Trackpoint>
            <Time>2019-10-08T09:35:56.000Z</Time>
            <Position>
              <LatitudeDegrees>40.0189143978059291839599609375</LatitudeDegrees>
              <LongitudeDegrees>-6.10755982808768749237060546875</LongitudeDegrees>
            </Position>
            <AltitudeMeters>258</AltitudeMeters>
            <DistanceMeters>NAN</DistanceMeters>
          </Trackpoint>
          <Trackpoint>
            <Time>2019-10-08T09:35:57.000Z</Time>
            <Position>
              <LatitudeDegrees>40.01884843222796916961669921875</LatitudeDegrees>
              <LongitudeDegrees>-6.10760123468935489654541015625</LongitudeDegrees>
            </Position>
            <AltitudeMeters>257.79998779296875</AltitudeMeters>
            <DistanceMeters>NAN</DistanceMeters>
          </Trackpoint>
          <Trackpoint>
            <Time>2019-10-08T09:35:58.000Z</Time>
            <Position>
              <LatitudeDegrees>40.01878540031611919403076171875</LatitudeDegrees>
              <LongitudeDegrees>-6.10764364711940288543701171875</LongitudeDegrees>
            </Position>
            <AltitudeMeters>257.20001220703125</AltitudeMeters>
            <DistanceMeters>NAN</DistanceMeters>
          </Trackpoint>
          <Trackpoint>
            <Time>2019-10-08T09:36:01.000Z</Time>
            <Position>
              <LatitudeDegrees>40.01860485412180423736572265625</LatitudeDegrees>
              <LongitudeDegrees>-6.10776166431605815887451171875</LongitudeDegrees>
            </Position>
            <AltitudeMeters>258.399993896484375</AltitudeMeters>
            <DistanceMeters>NAN</DistanceMeters>
          </Trackpoint>
          <Trackpoint>
            <Time>2019-10-08T09:36:03.000Z</Time>
            <Position>
              <LatitudeDegrees>40.01848717220127582550048828125</LatitudeDegrees>
              <LongitudeDegrees>-6.1078386940062046051025390625</LongitudeDegrees>
            </Position>
            <AltitudeMeters>258.79998779296875</AltitudeMeters>
            <DistanceMeters>NAN</DistanceMeters>
          </Trackpoint>
          <Trackpoint>
            <Time>2019-10-08T09:36:06.000Z</Time>
            <Position>
              <LatitudeDegrees>40.01831777393817901611328125</LatitudeDegrees>
              <LongitudeDegrees>-6.10794941894710063934326171875</LongitudeDegrees>
            </Position>
            <AltitudeMeters>257.399993896484375</AltitudeMeters>
            <DistanceMeters>NAN</DistanceMeters>
          </Trackpoint>
          <Trackpoint>
            <Time>2019-10-08T09:36:07.000Z</Time>
            <Position>
              <LatitudeDegrees>40.01826371066272258758544921875</LatitudeDegrees>
              <LongitudeDegrees>-6.107985712587833404541015625</LongitudeDegrees>
            </Position>
            <AltitudeMeters>257.399993896484375</AltitudeMeters>
            <DistanceMeters>NAN</DistanceMeters>
          </Trackpoint>
          <Trackpoint>
            <Time>2019-10-08T09:36:09.000Z</Time>
            <Position>
              <LatitudeDegrees>40.01815541647374629974365234375</LatitudeDegrees>
              <LongitudeDegrees>-6.1080603115260601043701171875</LongitudeDegrees>
            </Position>
            <AltitudeMeters>258.600006103515625</AltitudeMeters>
            <DistanceMeters>NAN</DistanceMeters>
          </Trackpoint>
          <Trackpoint>
            <Time>2019-10-08T09:36:11.000Z</Time>
            <Position>
              <LatitudeDegrees>40.01804863102734088897705078125</LatitudeDegrees>
              <LongitudeDegrees>-6.1081340722739696502685546875</LongitudeDegrees>
            </Position>
            <AltitudeMeters>258.399993896484375</AltitudeMeters>
            <DistanceMeters>NAN</DistanceMeters>
          </Trackpoint>
          <Trackpoint>
            <Time>2019-10-08T09:36:13.000Z</Time>
            <Position>
              <LatitudeDegrees>40.0179434381425380706787109375</LatitudeDegrees>
              <LongitudeDegrees>-6.1082095094025135040283203125</LongitudeDegrees>
            </Position>
            <AltitudeMeters>258.20001220703125</AltitudeMeters>
            <DistanceMeters>NAN</DistanceMeters>
          </Trackpoint>
          <Trackpoint>
            <Time>2019-10-08T09:36:15.000Z</Time>
            <Position>
              <LatitudeDegrees>40.01783790998160839080810546875</LatitudeDegrees>
              <LongitudeDegrees>-6.10828318633139133453369140625</LongitudeDegrees>
            </Position>
            <AltitudeMeters>258.20001220703125</AltitudeMeters>
            <DistanceMeters>NAN</DistanceMeters>
          </Trackpoint>
          <Trackpoint>
            <Time>2019-10-08T09:36:18.000Z</Time>
            <Position>
              <LatitudeDegrees>40.01767513342201709747314453125</LatitudeDegrees>
              <LongitudeDegrees>-6.10839097760617733001708984375</LongitudeDegrees>
            </Position>
            <AltitudeMeters>257.79998779296875</AltitudeMeters>
            <DistanceMeters>NAN</DistanceMeters>
          </Trackpoint>
          <Trackpoint>
            <Time>2019-10-08T09:36:19.000Z</Time>
            <Position>
              <LatitudeDegrees>40.01762148924171924591064453125</LatitudeDegrees>
              <LongitudeDegrees>-6.108425594866275787353515625</LongitudeDegrees>
            </Position>
            <AltitudeMeters>257.600006103515625</AltitudeMeters>
            <DistanceMeters>NAN</DistanceMeters>
          </Trackpoint>
          <Trackpoint>
            <Time>2019-10-08T09:36:21.000Z</Time>
            <Position>
              <LatitudeDegrees>40.0175164639949798583984375</LatitudeDegrees>
              <LongitudeDegrees>-6.10849658958613872528076171875</LongitudeDegrees>
            </Position>
            <AltitudeMeters>257.399993896484375</AltitudeMeters>
            <DistanceMeters>NAN</DistanceMeters>
          </Trackpoint>
          <Trackpoint>
            <Time>2019-10-08T09:36:24.000Z</Time>
            <Position>
              <LatitudeDegrees>40.01735209487378597259521484375</LatitudeDegrees>
              <LongitudeDegrees>-6.1086044646799564361572265625</LongitudeDegrees>
            </Position>
            <AltitudeMeters>257.79998779296875</AltitudeMeters>
            <DistanceMeters>NAN</DistanceMeters>
          </Trackpoint>
          <Trackpoint>
            <Time>2019-10-08T09:36:29.000Z</Time>
            <Position>
              <LatitudeDegrees>40.01706786453723907470703125</LatitudeDegrees>
              <LongitudeDegrees>-6.1087940633296966552734375</LongitudeDegrees>
            </Position>
            <AltitudeMeters>257.79998779296875</AltitudeMeters>
            <DistanceMeters>NAN</DistanceMeters>
          </Trackpoint>
          <Trackpoint>
            <Time>2019-10-08T09:36:31.000Z</Time>
            <Position>
              <LatitudeDegrees>40.0169560499489307403564453125</LatitudeDegrees>
              <LongitudeDegrees>-6.10886924900114536285400390625</LongitudeDegrees>
            </Position>
            <AltitudeMeters>258.600006103515625</AltitudeMeters>
            <DistanceMeters>NAN</DistanceMeters>
          </Trackpoint>
          <Trackpoint>
            <Time>2019-10-08T09:36:38.000Z</Time>
            <Position>
              <LatitudeDegrees>40.01656101085245609283447265625</LatitudeDegrees>
              <LongitudeDegrees>-6.10914082266390323638916015625</LongitudeDegrees>
            </Position>
            <AltitudeMeters>256.600006103515625</AltitudeMeters>
            <DistanceMeters>NAN</DistanceMeters>
          </Trackpoint>
          <Trackpoint>
            <Time>2019-10-08T09:36:39.000Z</Time>
            <Position>
              <LatitudeDegrees>40.01650401391088962554931640625</LatitudeDegrees>
              <LongitudeDegrees>-6.10917954705655574798583984375</LongitudeDegrees>
            </Position>
            <AltitudeMeters>256.399993896484375</AltitudeMeters>
            <DistanceMeters>NAN</DistanceMeters>
          </Trackpoint>
          <Trackpoint>
            <Time>2019-10-08T09:36:45.000Z</Time>
            <Position>
              <LatitudeDegrees>40.01613822765648365020751953125</LatitudeDegrees>
              <LongitudeDegrees>-6.1094245500862598419189453125</LongitudeDegrees>
            </Position>
            <AltitudeMeters>256</AltitudeMeters>
            <DistanceMeters>NAN</DistanceMeters>
          </Trackpoint>
          <Trackpoint>
            <Time>2019-10-08T09:36:47.000Z</Time>
            <Position>
              <LatitudeDegrees>40.01600428484380245208740234375</LatitudeDegrees>
              <LongitudeDegrees>-6.1095127277076244354248046875</LongitudeDegrees>
            </Position>
            <AltitudeMeters>255.600006103515625</AltitudeMeters>
            <DistanceMeters>NAN</DistanceMeters>
          </Trackpoint>
          <Trackpoint>
            <Time>2019-10-08T09:36:51.000Z</Time>
            <Position>
              <LatitudeDegrees>40.0157309509813785552978515625</LatitudeDegrees>
              <LongitudeDegrees>-6.1096954531967639923095703125</LongitudeDegrees>
            </Position>
            <AltitudeMeters>254.1999969482421875</AltitudeMeters>
            <DistanceMeters>NAN</DistanceMeters>
          </Trackpoint>
          <Trackpoint>
            <Time>2019-10-08T09:36:55.000Z</Time>
            <Position>
              <LatitudeDegrees>40.0154617242515087127685546875</LatitudeDegrees>
              <LongitudeDegrees>-6.10987541265785694122314453125</LongitudeDegrees>
            </Position>
            <AltitudeMeters>253.1999969482421875</AltitudeMeters>
            <DistanceMeters>NAN</DistanceMeters>
          </Trackpoint>
          <Trackpoint>
            <Time>2019-10-08T09:36:56.000Z</Time>
            <Position>
              <LatitudeDegrees>40.01539642922580242156982421875</LatitudeDegrees>
              <LongitudeDegrees>-6.10992050729691982269287109375</LongitudeDegrees>
            </Position>
            <AltitudeMeters>252.600006103515625</AltitudeMeters>
            <DistanceMeters>NAN</DistanceMeters>
          </Trackpoint>
          <Trackpoint>
            <Time>2019-10-08T09:36:57.000Z</Time>
            <Position>
              <LatitudeDegrees>40.015331804752349853515625</LatitudeDegrees>
              <LongitudeDegrees>-6.1099640093743801116943359375</LongitudeDegrees>
            </Position>
            <AltitudeMeters>252</AltitudeMeters>
            <DistanceMeters>NAN</DistanceMeters>
          </Trackpoint>
          <Trackpoint>
            <Time>2019-10-08T09:36:59.000Z</Time>
            <Position>
              <LatitudeDegrees>40.0152055732905864715576171875</LatitudeDegrees>
              <LongitudeDegrees>-6.11004992388188838958740234375</LongitudeDegrees>
            </Position>
            <AltitudeMeters>253.1999969482421875</AltitudeMeters>
            <DistanceMeters>NAN</DistanceMeters>
          </Trackpoint>
          <Trackpoint>
            <Time>2019-10-08T09:37:03.000Z</Time>
            <Position>
              <LatitudeDegrees>40.01496367156505584716796875</LatitudeDegrees>
              <LongitudeDegrees>-6.1102144606411457061767578125</LongitudeDegrees>
            </Position>
            <AltitudeMeters>252.8000030517578125</AltitudeMeters>
            <DistanceMeters>NAN</DistanceMeters>
          </Trackpoint>
          <Trackpoint>
            <Time>2019-10-08T09:37:05.000Z</Time>
            <Position>
              <LatitudeDegrees>40.01484959386289119720458984375</LatitudeDegrees>
              <LongitudeDegrees>-6.11029207706451416015625</LongitudeDegrees>
            </Position>
            <AltitudeMeters>252.1999969482421875</AltitudeMeters>
            <DistanceMeters>NAN</DistanceMeters>
          </Trackpoint>
          <Trackpoint>
            <Time>2019-10-08T09:37:08.000Z</Time>
            <Position>
              <LatitudeDegrees>40.014683715999126434326171875</LatitudeDegrees>
              <LongitudeDegrees>-6.1104022152721881866455078125</LongitudeDegrees>
            </Position>
            <AltitudeMeters>253.8000030517578125</AltitudeMeters>
            <DistanceMeters>NAN</DistanceMeters>
          </Trackpoint>
          <Trackpoint>
            <Time>2019-10-08T09:37:12.000Z</Time>
            <Position>
              <LatitudeDegrees>40.01447073183953762054443359375</LatitudeDegrees>
              <LongitudeDegrees>-6.11054847948253154754638671875</LongitudeDegrees>
            </Position>
            <AltitudeMeters>254.399993896484375</AltitudeMeters>
            <DistanceMeters>NAN</DistanceMeters>
          </Trackpoint>
          <Trackpoint>
            <Time>2019-10-08T09:37:14.000Z</Time>
            <Position>
              <LatitudeDegrees>40.0143653713166713714599609375</LatitudeDegrees>
              <LongitudeDegrees>-6.11062022857367992401123046875</LongitudeDegrees>
            </Position>
            <AltitudeMeters>255</AltitudeMeters>
            <DistanceMeters>NAN</DistanceMeters>
          </Trackpoint>
          <Trackpoint>
            <Time>2019-10-08T09:37:21.000Z</Time>
            <Position>
              <LatitudeDegrees>40.014022551476955413818359375</LatitudeDegrees>
              <LongitudeDegrees>-6.11085844226181507110595703125</LongitudeDegrees>
            </Position>
            <AltitudeMeters>255.8000030517578125</AltitudeMeters>
            <DistanceMeters>NAN</DistanceMeters>
          </Trackpoint>
          <Trackpoint>
            <Time>2019-10-08T09:37:27.000Z</Time>
            <Position>
              <LatitudeDegrees>40.013745613396167755126953125</LatitudeDegrees>
              <LongitudeDegrees>-6.11104519106447696685791015625</LongitudeDegrees>
            </Position>
            <AltitudeMeters>255.399993896484375</AltitudeMeters>
            <DistanceMeters>NAN</DistanceMeters>
          </Trackpoint>
          <Trackpoint>
            <Time>2019-10-08T09:37:29.000Z</Time>
            <Position>
              <LatitudeDegrees>40.01365550793707370758056640625</LatitudeDegrees>
              <LongitudeDegrees>-6.111105792224407196044921875</LongitudeDegrees>
            </Position>
            <AltitudeMeters>256</AltitudeMeters>
            <DistanceMeters>NAN</DistanceMeters>
          </Trackpoint>
          <Trackpoint>
            <Time>2019-10-08T09:37:30.000Z</Time>
            <Position>
              <LatitudeDegrees>40.01361049711704254150390625</LatitudeDegrees>
              <LongitudeDegrees>-6.11113437451422214508056640625</LongitudeDegrees>
            </Position>
            <AltitudeMeters>256.20001220703125</AltitudeMeters>
            <DistanceMeters>NAN</DistanceMeters>
          </Trackpoint>
          <Trackpoint>
            <Time>2019-10-08T09:37:36.000Z</Time>
            <Position>
              <LatitudeDegrees>40.0133350677788257598876953125</LatitudeDegrees>
              <LongitudeDegrees>-6.1113099753856658935546875</LongitudeDegrees>
            </Position>
            <AltitudeMeters>257.20001220703125</AltitudeMeters>
            <DistanceMeters>NAN</DistanceMeters>
          </Trackpoint>
          <Trackpoint>
            <Time>2019-10-08T09:37:39.000Z</Time>
            <Position>
              <LatitudeDegrees>40.01318880356848239898681640625</LatitudeDegrees>
              <LongitudeDegrees>-6.111392788589000701904296875</LongitudeDegrees>
            </Position>
            <AltitudeMeters>258.399993896484375</AltitudeMeters>
            <DistanceMeters>NAN</DistanceMeters>
          </Trackpoint>
          <Trackpoint>
            <Time>2019-10-08T09:37:49.000Z</Time>
            <Position>
              <LatitudeDegrees>40.01269762404263019561767578125</LatitudeDegrees>
              <LongitudeDegrees>-6.1116350255906581878662109375</LongitudeDegrees>
            </Position>
            <AltitudeMeters>258.600006103515625</AltitudeMeters>
            <DistanceMeters>NAN</DistanceMeters>
          </Trackpoint>
          <Trackpoint>
            <Time>2019-10-08T09:37:50.000Z</Time>
            <Position>
              <LatitudeDegrees>40.01264750026166439056396484375</LatitudeDegrees>
              <LongitudeDegrees>-6.111654974520206451416015625</LongitudeDegrees>
            </Position>
            <AltitudeMeters>258.79998779296875</AltitudeMeters>
            <DistanceMeters>NAN</DistanceMeters>
          </Trackpoint>
          <Trackpoint>
            <Time>2019-10-08T09:37:59.000Z</Time>
            <Position>
              <LatitudeDegrees>40.01219755969941616058349609375</LatitudeDegrees>
              <LongitudeDegrees>-6.11180090345442295074462890625</LongitudeDegrees>
            </Position>
            <AltitudeMeters>259.20001220703125</AltitudeMeters>
            <DistanceMeters>NAN</DistanceMeters>
          </Trackpoint>
          <Trackpoint>
            <Time>2019-10-08T09:38:06.000Z</Time>
            <Position>
              <LatitudeDegrees>40.0118434242904186248779296875</LatitudeDegrees>
              <LongitudeDegrees>-6.11187583766877651214599609375</LongitudeDegrees>
            </Position>
            <AltitudeMeters>259</AltitudeMeters>
            <DistanceMeters>NAN</DistanceMeters>
          </Trackpoint>
          <Trackpoint>
            <Time>2019-10-08T09:38:08.000Z</Time>
            <Position>
              <LatitudeDegrees>40.0117421709001064300537109375</LatitudeDegrees>
              <LongitudeDegrees>-6.11188807524740695953369140625</LongitudeDegrees>
            </Position>
            <AltitudeMeters>259.600006103515625</AltitudeMeters>
            <DistanceMeters>NAN</DistanceMeters>
          </Trackpoint>
          <Trackpoint>
            <Time>2019-10-08T09:38:15.000Z</Time>
            <Position>
              <LatitudeDegrees>40.0113884545862674713134765625</LatitudeDegrees>
              <LongitudeDegrees>-6.1119242012500762939453125</LongitudeDegrees>
            </Position>
            <AltitudeMeters>260</AltitudeMeters>
            <DistanceMeters>NAN</DistanceMeters>
          </Trackpoint>
          <Trackpoint>
            <Time>2019-10-08T09:38:19.000Z</Time>
            <Position>
              <LatitudeDegrees>40.01118653453886508941650390625</LatitudeDegrees>
              <LongitudeDegrees>-6.11193233169615268707275390625</LongitudeDegrees>
            </Position>
            <AltitudeMeters>261.399993896484375</AltitudeMeters>
            <DistanceMeters>NAN</DistanceMeters>
          </Trackpoint>
          <Trackpoint>
            <Time>2019-10-08T09:38:24.000Z</Time>
            <Position>
              <LatitudeDegrees>40.0109311379492282867431640625</LatitudeDegrees>
              <LongitudeDegrees>-6.11194976605474948883056640625</LongitudeDegrees>
            </Position>
            <AltitudeMeters>262</AltitudeMeters>
            <DistanceMeters>NAN</DistanceMeters>
          </Trackpoint>
          <Trackpoint>
            <Time>2019-10-08T09:38:33.000Z</Time>
            <Position>
              <LatitudeDegrees>40.0104815326631069183349609375</LatitudeDegrees>
              <LongitudeDegrees>-6.11195303499698638916015625</LongitudeDegrees>
            </Position>
            <AltitudeMeters>262.20001220703125</AltitudeMeters>
            <DistanceMeters>NAN</DistanceMeters>
          </Trackpoint>
          <Trackpoint>
            <Time>2019-10-08T09:38:43.000Z</Time>
            <Position>
              <LatitudeDegrees>40.0099846534430980682373046875</LatitudeDegrees>
              <LongitudeDegrees>-6.11196041107177734375</LongitudeDegrees>
            </Position>
            <AltitudeMeters>262.20001220703125</AltitudeMeters>
            <DistanceMeters>NAN</DistanceMeters>
          </Trackpoint>
          <Trackpoint>
            <Time>2019-10-08T09:38:50.000Z</Time>
            <Position>
              <LatitudeDegrees>40.00961425714194774627685546875</LatitudeDegrees>
              <LongitudeDegrees>-6.111966781318187713623046875</LongitudeDegrees>
            </Position>
            <AltitudeMeters>262.399993896484375</AltitudeMeters>
            <DistanceMeters>NAN</DistanceMeters>
          </Trackpoint>
          <Trackpoint>
            <Time>2019-10-08T09:38:55.000Z</Time>
            <Position>
              <LatitudeDegrees>40.0093223154544830322265625</LatitudeDegrees>
              <LongitudeDegrees>-6.1119766719639301300048828125</LongitudeDegrees>
            </Position>
            <AltitudeMeters>261.399993896484375</AltitudeMeters>
            <DistanceMeters>NAN</DistanceMeters>
          </Trackpoint>
          <Trackpoint>
            <Time>2019-10-08T09:38:57.000Z</Time>
            <Position>
              <LatitudeDegrees>40.00919583253562450408935546875</LatitudeDegrees>
              <LongitudeDegrees>-6.1119833774864673614501953125</LongitudeDegrees>
            </Position>
            <AltitudeMeters>260.79998779296875</AltitudeMeters>
            <DistanceMeters>NAN</DistanceMeters>
          </Trackpoint>
          <Trackpoint>
            <Time>2019-10-08T09:38:58.000Z</Time>
            <Position>
              <LatitudeDegrees>40.00913011841475963592529296875</LatitudeDegrees>
              <LongitudeDegrees>-6.11198765225708484649658203125</LongitudeDegrees>
            </Position>
            <AltitudeMeters>260.399993896484375</AltitudeMeters>
            <DistanceMeters>NAN</DistanceMeters>
          </Trackpoint>
          <Trackpoint>
            <Time>2019-10-08T09:39:01.000Z</Time>
            <Position>
              <LatitudeDegrees>40.00892157666385173797607421875</LatitudeDegrees>
              <LongitudeDegrees>-6.112024448812007904052734375</LongitudeDegrees>
            </Position>
            <AltitudeMeters>259</AltitudeMeters>
            <DistanceMeters>NAN</DistanceMeters>
          </Trackpoint>
          <Trackpoint>
            <Time>2019-10-08T09:39:03.000Z</Time>
            <Position>
              <LatitudeDegrees>40.00877313315868377685546875</LatitudeDegrees>
              <LongitudeDegrees>-6.11204867251217365264892578125</LongitudeDegrees>
            </Position>
            <AltitudeMeters>257.79998779296875</AltitudeMeters>
            <DistanceMeters>NAN</DistanceMeters>
          </Trackpoint>
          <Trackpoint>
            <Time>2019-10-08T09:39:07.000Z</Time>
            <Position>
              <LatitudeDegrees>40.0084561295807361602783203125</LatitudeDegrees>
              <LongitudeDegrees>-6.11212561838328838348388671875</LongitudeDegrees>
            </Position>
            <AltitudeMeters>256.600006103515625</AltitudeMeters>
            <DistanceMeters>NAN</DistanceMeters>
          </Trackpoint>
          <Trackpoint>
            <Time>2019-10-08T09:39:08.000Z</Time>
            <Position>
              <LatitudeDegrees>40.0083773396909236907958984375</LatitudeDegrees>
              <LongitudeDegrees>-6.1121493391692638397216796875</LongitudeDegrees>
            </Position>
            <AltitudeMeters>256.399993896484375</AltitudeMeters>
            <DistanceMeters>NAN</DistanceMeters>
          </Trackpoint>
          <Trackpoint>
            <Time>2019-10-08T09:39:10.000Z</Time>
            <Position>
              <LatitudeDegrees>40.00821330584585666656494140625</LatitudeDegrees>
              <LongitudeDegrees>-6.1121919192373752593994140625</LongitudeDegrees>
            </Position>
            <AltitudeMeters>255.1999969482421875</AltitudeMeters>
            <DistanceMeters>NAN</DistanceMeters>
          </Trackpoint>
          <Trackpoint>
            <Time>2019-10-08T09:39:12.000Z</Time>
            <Position>
              <LatitudeDegrees>40.0080457516014575958251953125</LatitudeDegrees>
              <LongitudeDegrees>-6.112241707742214202880859375</LongitudeDegrees>
            </Position>
            <AltitudeMeters>254</AltitudeMeters>
            <DistanceMeters>NAN</DistanceMeters>
          </Trackpoint>
          <Trackpoint>
            <Time>2019-10-08T09:39:14.000Z</Time>
            <Position>
              <LatitudeDegrees>40.00787266530096530914306640625</LatitudeDegrees>
              <LongitudeDegrees>-6.11230440437793731689453125</LongitudeDegrees>
            </Position>
            <AltitudeMeters>253</AltitudeMeters>
            <DistanceMeters>NAN</DistanceMeters>
          </Trackpoint>
          <Trackpoint>
            <Time>2019-10-08T09:39:15.000Z</Time>
            <Position>
              <LatitudeDegrees>40.00778884626924991607666015625</LatitudeDegrees>
              <LongitudeDegrees>-6.11234723590314388275146484375</LongitudeDegrees>
            </Position>
            <AltitudeMeters>252.600006103515625</AltitudeMeters>
            <DistanceMeters>NAN</DistanceMeters>
          </Trackpoint>
          <Trackpoint>
            <Time>2019-10-08T09:39:17.000Z</Time>
            <Position>
              <LatitudeDegrees>40.00765322707593441009521484375</LatitudeDegrees>
              <LongitudeDegrees>-6.112490482628345489501953125</LongitudeDegrees>
            </Position>
            <AltitudeMeters>252.1999969482421875</AltitudeMeters>
            <DistanceMeters>NAN</DistanceMeters>
          </Trackpoint>
          <Trackpoint>
            <Time>2019-10-08T09:39:19.000Z</Time>
            <Position>
              <LatitudeDegrees>40.00756504945456981658935546875</LatitudeDegrees>
              <LongitudeDegrees>-6.11267597414553165435791015625</LongitudeDegrees>
            </Position>
            <AltitudeMeters>252.600006103515625</AltitudeMeters>
            <DistanceMeters>NAN</DistanceMeters>
          </Trackpoint>
          <Trackpoint>
            <Time>2019-10-08T09:39:20.000Z</Time>
            <Position>
              <LatitudeDegrees>40.0075123272836208343505859375</LatitudeDegrees>
              <LongitudeDegrees>-6.112756691873073577880859375</LongitudeDegrees>
            </Position>
            <AltitudeMeters>252.600006103515625</AltitudeMeters>
            <DistanceMeters>NAN</DistanceMeters>
          </Trackpoint>
          <Trackpoint>
            <Time>2019-10-08T09:39:23.000Z</Time>
            <Position>
              <LatitudeDegrees>40.0072994269430637359619140625</LatitudeDegrees>
              <LongitudeDegrees>-6.11287026666104793548583984375</LongitudeDegrees>
            </Position>
            <AltitudeMeters>252.1999969482421875</AltitudeMeters>
            <DistanceMeters>NAN</DistanceMeters>
          </Trackpoint>
          <Trackpoint>
            <Time>2019-10-08T09:39:25.000Z</Time>
            <Position>
              <LatitudeDegrees>40.00715014524757862091064453125</LatitudeDegrees>
              <LongitudeDegrees>-6.11285316757857799530029296875</LongitudeDegrees>
            </Position>
            <AltitudeMeters>251.600006103515625</AltitudeMeters>
            <DistanceMeters>NAN</DistanceMeters>
          </Trackpoint>
          <Trackpoint>
            <Time>2019-10-08T09:39:27.000Z</Time>
            <Position>
              <LatitudeDegrees>40.0070043839514255523681640625</LatitudeDegrees>
              <LongitudeDegrees>-6.11285316757857799530029296875</LongitudeDegrees>
            </Position>
            <AltitudeMeters>252.1999969482421875</AltitudeMeters>
            <DistanceMeters>NAN</DistanceMeters>
          </Trackpoint>
          <Trackpoint>
            <Time>2019-10-08T09:39:28.000Z</Time>
            <Position>
              <LatitudeDegrees>40.00693338923156261444091796875</LatitudeDegrees>
              <LongitudeDegrees>-6.1128758825361728668212890625</LongitudeDegrees>
            </Position>
            <AltitudeMeters>252.399993896484375</AltitudeMeters>
            <DistanceMeters>NAN</DistanceMeters>
          </Trackpoint>
          <Trackpoint>
            <Time>2019-10-08T09:39:31.000Z</Time>
            <Position>
              <LatitudeDegrees>40.00673239119350910186767578125</LatitudeDegrees>
              <LongitudeDegrees>-6.11300873570144176483154296875</LongitudeDegrees>
            </Position>
            <AltitudeMeters>251.8000030517578125</AltitudeMeters>
            <DistanceMeters>NAN</DistanceMeters>
          </Trackpoint>
          <Trackpoint>
            <Time>2019-10-08T09:39:32.000Z</Time>
            <Position>
              <LatitudeDegrees>40.0066704489290714263916015625</LatitudeDegrees>
              <LongitudeDegrees>-6.11306221224367618560791015625</LongitudeDegrees>
            </Position>
            <AltitudeMeters>251.600006103515625</AltitudeMeters>
            <DistanceMeters>NAN</DistanceMeters>
          </Trackpoint>
          <Trackpoint>
            <Time>2019-10-08T09:39:38.000Z</Time>
            <Position>
              <LatitudeDegrees>40.00634263269603252410888671875</LatitudeDegrees>
              <LongitudeDegrees>-6.113389693200588226318359375</LongitudeDegrees>
            </Position>
            <AltitudeMeters>252.399993896484375</AltitudeMeters>
            <DistanceMeters>NAN</DistanceMeters>
          </Trackpoint>
          <Trackpoint>
            <Time>2019-10-08T09:39:40.000Z</Time>
            <Position>
              <LatitudeDegrees>40.00624515116214752197265625</LatitudeDegrees>
              <LongitudeDegrees>-6.1134959757328033447265625</LongitudeDegrees>
            </Position>
            <AltitudeMeters>252.8000030517578125</AltitudeMeters>
            <DistanceMeters>NAN</DistanceMeters>
          </Trackpoint>
          <Trackpoint>
            <Time>2019-10-08T09:39:44.000Z</Time>
            <Position>
              <LatitudeDegrees>40.00605479814112186431884765625</LatitudeDegrees>
              <LongitudeDegrees>-6.11370317637920379638671875</LongitudeDegrees>
            </Position>
            <AltitudeMeters>253.399993896484375</AltitudeMeters>
            <DistanceMeters>NAN</DistanceMeters>
          </Trackpoint>
          <Trackpoint>
            <Time>2019-10-08T09:39:46.000Z</Time>
            <Position>
              <LatitudeDegrees>40.00596393831074237823486328125</LatitudeDegrees>
              <LongitudeDegrees>-6.11380334012210369110107421875</LongitudeDegrees>
            </Position>
            <AltitudeMeters>253.600006103515625</AltitudeMeters>
            <DistanceMeters>NAN</DistanceMeters>
          </Trackpoint>
          <Trackpoint>
            <Time>2019-10-08T09:39:50.000Z</Time>
            <Position>
              <LatitudeDegrees>40.00579177401959896087646484375</LatitudeDegrees>
              <LongitudeDegrees>-6.11399545334279537200927734375</LongitudeDegrees>
            </Position>
            <AltitudeMeters>253.8000030517578125</AltitudeMeters>
            <DistanceMeters>NAN</DistanceMeters>
          </Trackpoint>
          <Trackpoint>
            <Time>2019-10-08T09:39:55.000Z</Time>
            <Position>
              <LatitudeDegrees>40.0055895186960697174072265625</LatitudeDegrees>
              <LongitudeDegrees>-6.1142417974770069122314453125</LongitudeDegrees>
            </Position>
            <AltitudeMeters>254.1999969482421875</AltitudeMeters>
            <DistanceMeters>NAN</DistanceMeters>
          </Trackpoint>
          <Trackpoint>
            <Time>2019-10-08T09:39:59.000Z</Time>
            <Position>
              <LatitudeDegrees>40.005432777106761932373046875</LatitudeDegrees>
              <LongitudeDegrees>-6.11443684436380863189697265625</LongitudeDegrees>
            </Position>
            <AltitudeMeters>255</AltitudeMeters>
            <DistanceMeters>NAN</DistanceMeters>
          </Trackpoint>
          <Trackpoint>
            <Time>2019-10-08T09:40:04.000Z</Time>
            <Position>
              <LatitudeDegrees>40.00523773021996021270751953125</LatitudeDegrees>
              <LongitudeDegrees>-6.1146726273000240325927734375</LongitudeDegrees>
            </Position>
            <AltitudeMeters>255.1999969482421875</AltitudeMeters>
            <DistanceMeters>NAN</DistanceMeters>
          </Trackpoint>
          <Trackpoint>
            <Time>2019-10-08T09:40:12.000Z</Time>
            <Position>
              <LatitudeDegrees>40.004947297275066375732421875</LatitudeDegrees>
              <LongitudeDegrees>-6.11506632529199123382568359375</LongitudeDegrees>
            </Position>
            <AltitudeMeters>256</AltitudeMeters>
            <DistanceMeters>NAN</DistanceMeters>
          </Trackpoint>
          <Trackpoint>
            <Time>2019-10-08T09:40:13.000Z</Time>
            <Position>
              <LatitudeDegrees>40.0049112550914287567138671875</LatitudeDegrees>
              <LongitudeDegrees>-6.115115024149417877197265625</LongitudeDegrees>
            </Position>
            <AltitudeMeters>256.399993896484375</AltitudeMeters>
            <DistanceMeters>NAN</DistanceMeters>
          </Trackpoint>
          <Trackpoint>
            <Time>2019-10-08T09:40:16.000Z</Time>
            <Position>
              <LatitudeDegrees>40.004804134368896484375</LatitudeDegrees>
              <LongitudeDegrees>-6.11526095308363437652587890625</LongitudeDegrees>
            </Position>
            <AltitudeMeters>257</AltitudeMeters>
            <DistanceMeters>NAN</DistanceMeters>
          </Trackpoint>
          <Trackpoint>
            <Time>2019-10-08T09:40:26.000Z</Time>
            <Position>
              <LatitudeDegrees>40.004444383084774017333984375</LatitudeDegrees>
              <LongitudeDegrees>-6.11577250063419342041015625</LongitudeDegrees>
            </Position>
            <AltitudeMeters>257.20001220703125</AltitudeMeters>
            <DistanceMeters>NAN</DistanceMeters>
          </Trackpoint>
          <Trackpoint>
            <Time>2019-10-08T09:40:30.000Z</Time>
            <Position>
              <LatitudeDegrees>40.00429945997893810272216796875</LatitudeDegrees>
              <LongitudeDegrees>-6.1159942857921123504638671875</LongitudeDegrees>
            </Position>
            <AltitudeMeters>257.399993896484375</AltitudeMeters>
            <DistanceMeters>NAN</DistanceMeters>
          </Trackpoint>
          <Trackpoint>
            <Time>2019-10-08T09:40:36.000Z</Time>
            <Position>
              <LatitudeDegrees>40.00407868064939975738525390625</LatitudeDegrees>
              <LongitudeDegrees>-6.11632176674902439117431640625</LongitudeDegrees>
            </Position>
            <AltitudeMeters>257</AltitudeMeters>
            <DistanceMeters>NAN</DistanceMeters>
          </Trackpoint>
          <Trackpoint>
            <Time>2019-10-08T09:40:41.000Z</Time>
            <Position>
              <LatitudeDegrees>40.00394892878830432891845703125</LatitudeDegrees>
              <LongitudeDegrees>-6.1166329868137836456298828125</LongitudeDegrees>
            </Position>
            <AltitudeMeters>258</AltitudeMeters>
            <DistanceMeters>NAN</DistanceMeters>
          </Trackpoint>
          <Trackpoint>
            <Time>2019-10-08T09:40:44.000Z</Time>
            <Position>
              <LatitudeDegrees>40.00389528460800647735595703125</LatitudeDegrees>
              <LongitudeDegrees>-6.11683306284248828887939453125</LongitudeDegrees>
            </Position>
            <AltitudeMeters>257.79998779296875</AltitudeMeters>
            <DistanceMeters>NAN</DistanceMeters>
          </Trackpoint>
          <Trackpoint>
            <Time>2019-10-08T09:40:47.000Z</Time>
            <Position>
              <LatitudeDegrees>40.003797970712184906005859375</LatitudeDegrees>
              <LongitudeDegrees>-6.11700095236301422119140625</LongitudeDegrees>
            </Position>
            <AltitudeMeters>258</AltitudeMeters>
            <DistanceMeters>NAN</DistanceMeters>
          </Trackpoint>
          <Trackpoint>
            <Time>2019-10-08T09:40:50.000Z</Time>
            <Position>
              <LatitudeDegrees>40.00365237705409526824951171875</LatitudeDegrees>
              <LongitudeDegrees>-6.11707312054932117462158203125</LongitudeDegrees>
            </Position>
            <AltitudeMeters>258.600006103515625</AltitudeMeters>
            <DistanceMeters>NAN</DistanceMeters>
          </Trackpoint>
          <Trackpoint>
            <Time>2019-10-08T09:40:54.000Z</Time>
            <Position>
              <LatitudeDegrees>40.0034792907536029815673828125</LatitudeDegrees>
              <LongitudeDegrees>-6.117205135524272918701171875</LongitudeDegrees>
            </Position>
            <AltitudeMeters>258.79998779296875</AltitudeMeters>
            <DistanceMeters>NAN</DistanceMeters>
          </Trackpoint>
          <Trackpoint>
            <Time>2019-10-08T09:40:55.000Z</Time>
            <Position>
              <LatitudeDegrees>40.003445260226726531982421875</LatitudeDegrees>
              <LongitudeDegrees>-6.11725668422877788543701171875</LongitudeDegrees>
            </Position>
            <AltitudeMeters>258.79998779296875</AltitudeMeters>
            <DistanceMeters>NAN</DistanceMeters>
          </Trackpoint>
          <Trackpoint>
            <Time>2019-10-08T09:41:01.000Z</Time>
            <Position>
              <LatitudeDegrees>40.00322640873491764068603515625</LatitudeDegrees>
              <LongitudeDegrees>-6.11758659593760967254638671875</LongitudeDegrees>
            </Position>
            <AltitudeMeters>258.399993896484375</AltitudeMeters>
            <DistanceMeters>NAN</DistanceMeters>
          </Trackpoint>
          <Trackpoint>
            <Time>2019-10-08T09:41:11.000Z</Time>
            <Position>
              <LatitudeDegrees>40.002854168415069580078125</LatitudeDegrees>
              <LongitudeDegrees>-6.11814365722239017486572265625</LongitudeDegrees>
            </Position>
            <AltitudeMeters>258.20001220703125</AltitudeMeters>
            <DistanceMeters>NAN</DistanceMeters>
          </Trackpoint>
          <Trackpoint>
            <Time>2019-10-08T09:41:12.000Z</Time>
            <Position>
              <LatitudeDegrees>40.00281770713627338409423828125</LatitudeDegrees>
              <LongitudeDegrees>-6.11819679848849773406982421875</LongitudeDegrees>
            </Position>
            <AltitudeMeters>258.399993896484375</AltitudeMeters>
            <DistanceMeters>NAN</DistanceMeters>
          </Trackpoint>
          <Trackpoint>
            <Time>2019-10-08T09:41:19.000Z</Time>
            <Position>
              <LatitudeDegrees>40.002564825117588043212890625</LatitudeDegrees>
              <LongitudeDegrees>-6.11856468021869659423828125</LongitudeDegrees>
            </Position>
            <AltitudeMeters>258.20001220703125</AltitudeMeters>
            <DistanceMeters>NAN</DistanceMeters>
          </Trackpoint>
          <Trackpoint>
            <Time>2019-10-08T09:41:22.000Z</Time>
            <Position>
              <LatitudeDegrees>40.00245879404246807098388671875</LatitudeDegrees>
              <LongitudeDegrees>-6.11872318200767040252685546875</LongitudeDegrees>
            </Position>
            <AltitudeMeters>258.79998779296875</AltitudeMeters>
            <DistanceMeters>NAN</DistanceMeters>
          </Trackpoint>
          <Trackpoint>
            <Time>2019-10-08T09:41:32.000Z</Time>
            <Position>
              <LatitudeDegrees>40.0021066702902317047119140625</LatitudeDegrees>
              <LongitudeDegrees>-6.1192494817078113555908203125</LongitudeDegrees>
            </Position>
            <AltitudeMeters>259</AltitudeMeters>
            <DistanceMeters>NAN</DistanceMeters>
          </Trackpoint>
          <Trackpoint>
            <Time>2019-10-08T09:41:33.000Z</Time>
            <Position>
              <LatitudeDegrees>40.0020731426775455474853515625</LatitudeDegrees>
              <LongitudeDegrees>-6.1193024553358554840087890625</LongitudeDegrees>
            </Position>
            <AltitudeMeters>259.600006103515625</AltitudeMeters>
            <DistanceMeters>NAN</DistanceMeters>
          </Trackpoint>
          <Trackpoint>
            <Time>2019-10-08T09:41:34.000Z</Time>
            <Position>
              <LatitudeDegrees>40.00203684903681278228759765625</LatitudeDegrees>
              <LongitudeDegrees>-6.1193534173071384429931640625</LongitudeDegrees>
            </Position>
            <AltitudeMeters>260</AltitudeMeters>
            <DistanceMeters>NAN</DistanceMeters>
          </Trackpoint>
          <Trackpoint>
            <Time>2019-10-08T09:41:42.000Z</Time>
            <Position>
              <LatitudeDegrees>40.00174683518707752227783203125</LatitudeDegrees>
              <LongitudeDegrees>-6.1197795532643795013427734375</LongitudeDegrees>
            </Position>
            <AltitudeMeters>260</AltitudeMeters>
            <DistanceMeters>NAN</DistanceMeters>
          </Trackpoint>
          <Trackpoint>
            <Time>2019-10-08T09:41:45.000Z</Time>
            <Position>
              <LatitudeDegrees>40.0016426481306552886962890625</LatitudeDegrees>
              <LongitudeDegrees>-6.11993839032948017120361328125</LongitudeDegrees>
            </Position>
            <AltitudeMeters>260.399993896484375</AltitudeMeters>
            <DistanceMeters>NAN</DistanceMeters>
          </Trackpoint>
          <Trackpoint>
            <Time>2019-10-08T09:41:49.000Z</Time>
            <Position>
              <LatitudeDegrees>40.00151398591697216033935546875</LatitudeDegrees>
              <LongitudeDegrees>-6.12016788683831691741943359375</LongitudeDegrees>
            </Position>
            <AltitudeMeters>261</AltitudeMeters>
            <DistanceMeters>NAN</DistanceMeters>
          </Trackpoint>
          <Trackpoint>
            <Time>2019-10-08T09:41:54.000Z</Time>
            <Position>
              <LatitudeDegrees>40.0013351999223232269287109375</LatitudeDegrees>
              <LongitudeDegrees>-6.12042672000825405120849609375</LongitudeDegrees>
            </Position>
            <AltitudeMeters>261.20001220703125</AltitudeMeters>
            <DistanceMeters>NAN</DistanceMeters>
          </Trackpoint>
          <Trackpoint>
            <Time>2019-10-08T09:42:00.000Z</Time>
            <Position>
              <LatitudeDegrees>40.00111852772533893585205078125</LatitudeDegrees>
              <LongitudeDegrees>-6.12072779797017574310302734375</LongitudeDegrees>
            </Position>
            <AltitudeMeters>261.79998779296875</AltitudeMeters>
            <DistanceMeters>NAN</DistanceMeters>
          </Trackpoint>
          <Trackpoint>
            <Time>2019-10-08T09:42:01.000Z</Time>
            <Position>
              <LatitudeDegrees>40.0010897777974605560302734375</LatitudeDegrees>
              <LongitudeDegrees>-6.12078563310205936431884765625</LongitudeDegrees>
            </Position>
            <AltitudeMeters>261.79998779296875</AltitudeMeters>
            <DistanceMeters>NAN</DistanceMeters>
          </Trackpoint>
          <Trackpoint>
            <Time>2019-10-08T09:42:02.000Z</Time>
            <Position>
              <LatitudeDegrees>40.00106982886791229248046875</LatitudeDegrees>
              <LongitudeDegrees>-6.12084983848035335540771484375</LongitudeDegrees>
            </Position>
            <AltitudeMeters>262</AltitudeMeters>
            <DistanceMeters>NAN</DistanceMeters>
          </Trackpoint>
          <Trackpoint>
            <Time>2019-10-08T09:42:07.000Z</Time>
            <Position>
              <LatitudeDegrees>40.00099011696875095367431640625</LatitudeDegrees>
              <LongitudeDegrees>-6.1211773194372653961181640625</LongitudeDegrees>
            </Position>
            <AltitudeMeters>262.20001220703125</AltitudeMeters>
            <DistanceMeters>NAN</DistanceMeters>
          </Trackpoint>
          <Trackpoint>
            <Time>2019-10-08T09:42:11.000Z</Time>
            <Position>
              <LatitudeDegrees>40.00082440674304962158203125</LatitudeDegrees>
              <LongitudeDegrees>-6.1213530041277408599853515625</LongitudeDegrees>
            </Position>
            <AltitudeMeters>263</AltitudeMeters>
            <DistanceMeters>NAN</DistanceMeters>
          </Trackpoint>
          <Trackpoint>
            <Time>2019-10-08T09:42:12.000Z</Time>
            <Position>
              <LatitudeDegrees>40.00077612698078155517578125</LatitudeDegrees>
              <LongitudeDegrees>-6.121385358273983001708984375</LongitudeDegrees>
            </Position>
            <AltitudeMeters>263</AltitudeMeters>
            <DistanceMeters>NAN</DistanceMeters>
          </Trackpoint>
          <Trackpoint>
            <Time>2019-10-08T09:42:15.000Z</Time>
            <Position>
              <LatitudeDegrees>40.00063204206526279449462890625</LatitudeDegrees>
              <LongitudeDegrees>-6.12148921005427837371826171875</LongitudeDegrees>
            </Position>
            <AltitudeMeters>263.20001220703125</AltitudeMeters>
            <DistanceMeters>NAN</DistanceMeters>
          </Trackpoint>
          <Trackpoint>
            <Time>2019-10-08T09:42:18.000Z</Time>
            <Position>
              <LatitudeDegrees>40.000508241355419158935546875</LatitudeDegrees>
              <LongitudeDegrees>-6.1216282658278942108154296875</LongitudeDegrees>
            </Position>
            <AltitudeMeters>263.399993896484375</AltitudeMeters>
            <DistanceMeters>NAN</DistanceMeters>
          </Trackpoint>
          <Trackpoint>
            <Time>2019-10-08T09:42:20.000Z</Time>
            <Position>
              <LatitudeDegrees>40.00043020583689212799072265625</LatitudeDegrees>
              <LongitudeDegrees>-6.121723316609859466552734375</LongitudeDegrees>
            </Position>
            <AltitudeMeters>264.20001220703125</AltitudeMeters>
            <DistanceMeters>NAN</DistanceMeters>
          </Trackpoint>
          <Trackpoint>
            <Time>2019-10-08T09:42:28.000Z</Time>
            <Position>
              <LatitudeDegrees>40.0001345761120319366455078125</LatitudeDegrees>
              <LongitudeDegrees>-6.122114248573780059814453125</LongitudeDegrees>
            </Position>
            <AltitudeMeters>264.600006103515625</AltitudeMeters>
            <DistanceMeters>NAN</DistanceMeters>
          </Trackpoint>
          <Trackpoint>
            <Time>2019-10-08T09:42:38.000Z</Time>
            <Position>
              <LatitudeDegrees>39.99974372796714305877685546875</LatitudeDegrees>
              <LongitudeDegrees>-6.12261137925088405609130859375</LongitudeDegrees>
            </Position>
            <AltitudeMeters>264.600006103515625</AltitudeMeters>
            <DistanceMeters>NAN</DistanceMeters>
          </Trackpoint>
          <Trackpoint>
            <Time>2019-10-08T09:42:45.000Z</Time>
            <Position>
              <LatitudeDegrees>39.99944952316582202911376953125</LatitudeDegrees>
              <LongitudeDegrees>-6.122943051159381866455078125</LongitudeDegrees>
            </Position>
            <AltitudeMeters>265.399993896484375</AltitudeMeters>
            <DistanceMeters>NAN</DistanceMeters>
          </Trackpoint>
          <Trackpoint>
            <Time>2019-10-08T09:42:50.000Z</Time>
            <Position>
              <LatitudeDegrees>39.9992507882416248321533203125</LatitudeDegrees>
              <LongitudeDegrees>-6.1231839470565319061279296875</LongitudeDegrees>
            </Position>
            <AltitudeMeters>265.20001220703125</AltitudeMeters>
            <DistanceMeters>NAN</DistanceMeters>
          </Trackpoint>
          <Trackpoint>
            <Time>2019-10-08T09:43:00.000Z</Time>
            <Position>
              <LatitudeDegrees>39.9988853372633457183837890625</LatitudeDegrees>
              <LongitudeDegrees>-6.1236898787319660186767578125</LongitudeDegrees>
            </Position>
            <AltitudeMeters>266.399993896484375</AltitudeMeters>
            <DistanceMeters>NAN</DistanceMeters>
          </Trackpoint>
          <Trackpoint>
            <Time>2019-10-08T09:43:01.000Z</Time>
            <Position>
              <LatitudeDegrees>39.99885004945099353790283203125</LatitudeDegrees>
              <LongitudeDegrees>-6.12374327145516872406005859375</LongitudeDegrees>
            </Position>
            <AltitudeMeters>266.600006103515625</AltitudeMeters>
            <DistanceMeters>NAN</DistanceMeters>
          </Trackpoint>
          <Trackpoint>
            <Time>2019-10-08T09:43:11.000Z</Time>
            <Position>
              <LatitudeDegrees>39.99850672669708728790283203125</LatitudeDegrees>
              <LongitudeDegrees>-6.12426395528018474578857421875</LongitudeDegrees>
            </Position>
            <AltitudeMeters>267.600006103515625</AltitudeMeters>
            <DistanceMeters>NAN</DistanceMeters>
          </Trackpoint>
          <Trackpoint>
            <Time>2019-10-08T09:43:12.000Z</Time>
            <Position>
              <LatitudeDegrees>39.99847386963665485382080078125</LatitudeDegrees>
              <LongitudeDegrees>-6.124318353831768035888671875</LongitudeDegrees>
            </Position>
            <AltitudeMeters>267.20001220703125</AltitudeMeters>
            <DistanceMeters>NAN</DistanceMeters>
          </Trackpoint>
          <Trackpoint>
            <Time>2019-10-08T09:43:22.000Z</Time>
            <Position>
              <LatitudeDegrees>39.99812149442732334136962890625</LatitudeDegrees>
              <LongitudeDegrees>-6.12484641373157501220703125</LongitudeDegrees>
            </Position>
            <AltitudeMeters>268.399993896484375</AltitudeMeters>
            <DistanceMeters>NAN</DistanceMeters>
          </Trackpoint>
          <Trackpoint>
            <Time>2019-10-08T09:43:23.000Z</Time>
            <Position>
              <LatitudeDegrees>39.998087547719478607177734375</LatitudeDegrees>
              <LongitudeDegrees>-6.1248982138931751251220703125</LongitudeDegrees>
            </Position>
            <AltitudeMeters>268.600006103515625</AltitudeMeters>
            <DistanceMeters>NAN</DistanceMeters>
          </Trackpoint>
          <Trackpoint>
            <Time>2019-10-08T09:43:24.000Z</Time>
            <Position>
              <LatitudeDegrees>39.9980528466403484344482421875</LatitudeDegrees>
              <LongitudeDegrees>-6.12495043314993381500244140625</LongitudeDegrees>
            </Position>
            <AltitudeMeters>268.600006103515625</AltitudeMeters>
            <DistanceMeters>NAN</DistanceMeters>
          </Trackpoint>
          <Trackpoint>
            <Time>2019-10-08T09:43:33.000Z</Time>
            <Position>
              <LatitudeDegrees>39.99774456024169921875</LatitudeDegrees>
              <LongitudeDegrees>-6.1254477314651012420654296875</LongitudeDegrees>
            </Position>
            <AltitudeMeters>269.399993896484375</AltitudeMeters>
            <DistanceMeters>NAN</DistanceMeters>
          </Trackpoint>
          <Trackpoint>
            <Time>2019-10-08T09:43:42.000Z</Time>
            <Position>
              <LatitudeDegrees>39.997491426765918731689453125</LatitudeDegrees>
              <LongitudeDegrees>-6.12598006613552570343017578125</LongitudeDegrees>
            </Position>
            <AltitudeMeters>269.20001220703125</AltitudeMeters>
            <DistanceMeters>NAN</DistanceMeters>
          </Trackpoint>
          <Trackpoint>
            <Time>2019-10-08T09:43:45.000Z</Time>
            <Position>
              <LatitudeDegrees>39.9974087812006473541259765625</LatitudeDegrees>
              <LongitudeDegrees>-6.12615793012082576751708984375</LongitudeDegrees>
            </Position>
            <AltitudeMeters>269.79998779296875</AltitudeMeters>
            <DistanceMeters>NAN</DistanceMeters>
          </Trackpoint>
          <Trackpoint>
            <Time>2019-10-08T09:43:52.000Z</Time>
            <Position>
              <LatitudeDegrees>39.9972223676741123199462890625</LatitudeDegrees>
              <LongitudeDegrees>-6.12656160257756710052490234375</LongitudeDegrees>
            </Position>
            <AltitudeMeters>270.399993896484375</AltitudeMeters>
            <DistanceMeters>NAN</DistanceMeters>
          </Trackpoint>
          <Trackpoint>
            <Time>2019-10-08T09:43:57.000Z</Time>
            <Position>
              <LatitudeDegrees>39.9970906041562557220458984375</LatitudeDegrees>
              <LongitudeDegrees>-6.12685077823698520660400390625</LongitudeDegrees>
            </Position>
            <AltitudeMeters>270.79998779296875</AltitudeMeters>
            <DistanceMeters>NAN</DistanceMeters>
          </Trackpoint>
          <Trackpoint>
            <Time>2019-10-08T09:44:04.000Z</Time>
            <Position>
              <LatitudeDegrees>39.99690544791519641876220703125</LatitudeDegrees>
              <LongitudeDegrees>-6.12724858336150646209716796875</LongitudeDegrees>
            </Position>
            <AltitudeMeters>271.20001220703125</AltitudeMeters>
            <DistanceMeters>NAN</DistanceMeters>
          </Trackpoint>
          <Trackpoint>
            <Time>2019-10-08T09:44:10.000Z</Time>
            <Position>
              <LatitudeDegrees>39.99675071798264980316162109375</LatitudeDegrees>
              <LongitudeDegrees>-6.1275961808860301971435546875</LongitudeDegrees>
            </Position>
            <AltitudeMeters>271.79998779296875</AltitudeMeters>
            <DistanceMeters>NAN</DistanceMeters>
          </Trackpoint>
          <Trackpoint>
            <Time>2019-10-08T09:44:11.000Z</Time>
            <Position>
              <LatitudeDegrees>39.99672590754926204681396484375</LatitudeDegrees>
              <LongitudeDegrees>-6.1276541836559772491455078125</LongitudeDegrees>
            </Position>
            <AltitudeMeters>272</AltitudeMeters>
            <DistanceMeters>NAN</DistanceMeters>
          </Trackpoint>
          <Trackpoint>
            <Time>2019-10-08T09:44:13.000Z</Time>
            <Position>
              <LatitudeDegrees>39.99667393974959850311279296875</LatitudeDegrees>
              <LongitudeDegrees>-6.1277735419571399688720703125</LongitudeDegrees>
            </Position>
            <AltitudeMeters>272</AltitudeMeters>
            <DistanceMeters>NAN</DistanceMeters>
          </Trackpoint>
          <Trackpoint>
            <Time>2019-10-08T09:44:14.000Z</Time>
            <Position>
              <LatitudeDegrees>39.9966473691165447235107421875</LatitudeDegrees>
              <LongitudeDegrees>-6.12783095799386501312255859375</LongitudeDegrees>
            </Position>
            <AltitudeMeters>272.20001220703125</AltitudeMeters>
            <DistanceMeters>NAN</DistanceMeters>
          </Trackpoint>
          <Trackpoint>
            <Time>2019-10-08T09:44:20.000Z</Time>
            <Position>
              <LatitudeDegrees>39.996484927833080291748046875</LatitudeDegrees>
              <LongitudeDegrees>-6.1281788907945156097412109375</LongitudeDegrees>
            </Position>
            <AltitudeMeters>273</AltitudeMeters>
            <DistanceMeters>NAN</DistanceMeters>
          </Trackpoint>
          <Trackpoint>
            <Time>2019-10-08T09:44:28.000Z</Time>
            <Position>
              <LatitudeDegrees>39.9962735362350940704345703125</LatitudeDegrees>
              <LongitudeDegrees>-6.12865188159048557281494140625</LongitudeDegrees>
            </Position>
            <AltitudeMeters>273.79998779296875</AltitudeMeters>
            <DistanceMeters>NAN</DistanceMeters>
          </Trackpoint>
          <Trackpoint>
            <Time>2019-10-08T09:44:33.000Z</Time>
            <Position>
              <LatitudeDegrees>39.9961397610604763031005859375</LatitudeDegrees>
              <LongitudeDegrees>-6.128939799964427947998046875</LongitudeDegrees>
            </Position>
            <AltitudeMeters>274</AltitudeMeters>
            <DistanceMeters>NAN</DistanceMeters>
          </Trackpoint>
          <Trackpoint>
            <Time>2019-10-08T09:44:37.000Z</Time>
            <Position>
              <LatitudeDegrees>39.99603725038468837738037109375</LatitudeDegrees>
              <LongitudeDegrees>-6.12917591817677021026611328125</LongitudeDegrees>
            </Position>
            <AltitudeMeters>274.20001220703125</AltitudeMeters>
            <DistanceMeters>NAN</DistanceMeters>
          </Trackpoint>
          <Trackpoint>
            <Time>2019-10-08T09:44:45.000Z</Time>
            <Position>
              <LatitudeDegrees>39.9958259426057338714599609375</LatitudeDegrees>
              <LongitudeDegrees>-6.1296373419463634490966796875</LongitudeDegrees>
            </Position>
            <AltitudeMeters>275</AltitudeMeters>
            <DistanceMeters>NAN</DistanceMeters>
          </Trackpoint>
          <Trackpoint>
            <Time>2019-10-08T09:44:46.000Z</Time>
            <Position>
              <LatitudeDegrees>39.99579719267785549163818359375</LatitudeDegrees>
              <LongitudeDegrees>-6.1296963505446910858154296875</LongitudeDegrees>
            </Position>
            <AltitudeMeters>275</AltitudeMeters>
            <DistanceMeters>NAN</DistanceMeters>
          </Trackpoint>
          <Trackpoint>
            <Time>2019-10-08T09:44:55.000Z</Time>
            <Position>
              <LatitudeDegrees>39.99555545859038829803466796875</LatitudeDegrees>
              <LongitudeDegrees>-6.13022231496870517730712890625</LongitudeDegrees>
            </Position>
            <AltitudeMeters>275.79998779296875</AltitudeMeters>
            <DistanceMeters>NAN</DistanceMeters>
          </Trackpoint>
          <Trackpoint>
            <Time>2019-10-08T09:44:56.000Z</Time>
            <Position>
              <LatitudeDegrees>39.9955285526812076568603515625</LatitudeDegrees>
              <LongitudeDegrees>-6.1302797310054302215576171875</LongitudeDegrees>
            </Position>
            <AltitudeMeters>276.20001220703125</AltitudeMeters>
            <DistanceMeters>NAN</DistanceMeters>
          </Trackpoint>
          <Trackpoint>
            <Time>2019-10-08T09:45:07.000Z</Time>
            <Position>
              <LatitudeDegrees>39.99523694626986980438232421875</LatitudeDegrees>
              <LongitudeDegrees>-6.1309142410755157470703125</LongitudeDegrees>
            </Position>
            <AltitudeMeters>276.79998779296875</AltitudeMeters>
            <DistanceMeters>NAN</DistanceMeters>
          </Trackpoint>
          <Trackpoint>
            <Time>2019-10-08T09:45:12.000Z</Time>
            <Position>
              <LatitudeDegrees>39.995106272399425506591796875</LatitudeDegrees>
              <LongitudeDegrees>-6.13119922578334808349609375</LongitudeDegrees>
            </Position>
            <AltitudeMeters>277.20001220703125</AltitudeMeters>
            <DistanceMeters>NAN</DistanceMeters>
          </Trackpoint>
          <Trackpoint>
            <Time>2019-10-08T09:45:17.000Z</Time>
            <Position>
              <LatitudeDegrees>39.994975514709949493408203125</LatitudeDegrees>
              <LongitudeDegrees>-6.1314827017486095428466796875</LongitudeDegrees>
            </Position>
            <AltitudeMeters>278</AltitudeMeters>
            <DistanceMeters>NAN</DistanceMeters>
          </Trackpoint>
          <Trackpoint>
            <Time>2019-10-08T09:45:21.000Z</Time>
            <Position>
              <LatitudeDegrees>39.9948737584054470062255859375</LatitudeDegrees>
              <LongitudeDegrees>-6.1317135393619537353515625</LongitudeDegrees>
            </Position>
            <AltitudeMeters>278.20001220703125</AltitudeMeters>
            <DistanceMeters>NAN</DistanceMeters>
          </Trackpoint>
          <Trackpoint>
            <Time>2019-10-08T09:45:27.000Z</Time>
            <Position>
              <LatitudeDegrees>39.99472095631062984466552734375</LatitudeDegrees>
              <LongitudeDegrees>-6.13206398673355579376220703125</LongitudeDegrees>
            </Position>
            <AltitudeMeters>279</AltitudeMeters>
            <DistanceMeters>NAN</DistanceMeters>
          </Trackpoint>
          <Trackpoint>
            <Time>2019-10-08T09:45:34.000Z</Time>
            <Position>
              <LatitudeDegrees>39.99453135766088962554931640625</LatitudeDegrees>
              <LongitudeDegrees>-6.1324618756771087646484375</LongitudeDegrees>
            </Position>
            <AltitudeMeters>279.399993896484375</AltitudeMeters>
            <DistanceMeters>NAN</DistanceMeters>
          </Trackpoint>
          <Trackpoint>
            <Time>2019-10-08T09:45:36.000Z</Time>
            <Position>
              <LatitudeDegrees>39.9944804795086383819580078125</LatitudeDegrees>
              <LongitudeDegrees>-6.13257117569446563720703125</LongitudeDegrees>
            </Position>
            <AltitudeMeters>279.399993896484375</AltitudeMeters>
            <DistanceMeters>NAN</DistanceMeters>
          </Trackpoint>
          <Trackpoint>
            <Time>2019-10-08T09:45:44.000Z</Time>
            <Position>
              <LatitudeDegrees>39.994269423186779022216796875</LatitudeDegrees>
              <LongitudeDegrees>-6.1330273188650608062744140625</LongitudeDegrees>
            </Position>
            <AltitudeMeters>280.399993896484375</AltitudeMeters>
            <DistanceMeters>NAN</DistanceMeters>
          </Trackpoint>
          <Trackpoint>
            <Time>2019-10-08T09:45:47.000Z</Time>
            <Position>
              <LatitudeDegrees>39.99419088475406169891357421875</LatitudeDegrees>
              <LongitudeDegrees>-6.13320141099393367767333984375</LongitudeDegrees>
            </Position>
            <AltitudeMeters>280.399993896484375</AltitudeMeters>
            <DistanceMeters>NAN</DistanceMeters>
          </Trackpoint>
          <Trackpoint>
            <Time>2019-10-08T09:45:51.000Z</Time>
            <Position>
              <LatitudeDegrees>39.99408711679279804229736328125</LatitudeDegrees>
              <LongitudeDegrees>-6.13343761302530765533447265625</LongitudeDegrees>
            </Position>
            <AltitudeMeters>281</AltitudeMeters>
            <DistanceMeters>NAN</DistanceMeters>
          </Trackpoint>
          <Trackpoint>
            <Time>2019-10-08T09:45:56.000Z</Time>
            <Position>
              <LatitudeDegrees>39.9939591251313686370849609375</LatitudeDegrees>
              <LongitudeDegrees>-6.1337186582386493682861328125</LongitudeDegrees>
            </Position>
            <AltitudeMeters>281.600006103515625</AltitudeMeters>
            <DistanceMeters>NAN</DistanceMeters>
          </Trackpoint>
          <Trackpoint>
            <Time>2019-10-08T09:45:59.000Z</Time>
            <Position>
              <LatitudeDegrees>39.993881173431873321533203125</LatitudeDegrees>
              <LongitudeDegrees>-6.1338899843394756317138671875</LongitudeDegrees>
            </Position>
            <AltitudeMeters>281.79998779296875</AltitudeMeters>
            <DistanceMeters>NAN</DistanceMeters>
          </Trackpoint>
          <Trackpoint>
            <Time>2019-10-08T09:46:10.000Z</Time>
            <Position>
              <LatitudeDegrees>39.993598200380802154541015625</LatitudeDegrees>
              <LongitudeDegrees>-6.13450697623193264007568359375</LongitudeDegrees>
            </Position>
            <AltitudeMeters>282.600006103515625</AltitudeMeters>
            <DistanceMeters>NAN</DistanceMeters>
          </Trackpoint>
          <Trackpoint>
            <Time>2019-10-08T09:46:11.000Z</Time>
            <Position>
              <LatitudeDegrees>39.9935735575854778289794921875</LatitudeDegrees>
              <LongitudeDegrees>-6.1345618776977062225341796875</LongitudeDegrees>
            </Position>
            <AltitudeMeters>283</AltitudeMeters>
            <DistanceMeters>NAN</DistanceMeters>
          </Trackpoint>
          <Trackpoint>
            <Time>2019-10-08T09:46:19.000Z</Time>
            <Position>
              <LatitudeDegrees>39.99337046407163143157958984375</LatitudeDegrees>
              <LongitudeDegrees>-6.13501408137381076812744140625</LongitudeDegrees>
            </Position>
            <AltitudeMeters>283.20001220703125</AltitudeMeters>
            <DistanceMeters>NAN</DistanceMeters>
          </Trackpoint>
          <Trackpoint>
            <Time>2019-10-08T09:46:23.000Z</Time>
            <Position>
              <LatitudeDegrees>39.99327306635677814483642578125</LatitudeDegrees>
              <LongitudeDegrees>-6.13522647880017757415771484375</LongitudeDegrees>
            </Position>
            <AltitudeMeters>284.20001220703125</AltitudeMeters>
            <DistanceMeters>NAN</DistanceMeters>
          </Trackpoint>
          <Trackpoint>
            <Time>2019-10-08T09:46:28.000Z</Time>
            <Position>
              <LatitudeDegrees>39.993155635893344879150390625</LatitudeDegrees>
              <LongitudeDegrees>-6.13547994755208492279052734375</LongitudeDegrees>
            </Position>
            <AltitudeMeters>284.399993896484375</AltitudeMeters>
            <DistanceMeters>NAN</DistanceMeters>
          </Trackpoint>
          <Trackpoint>
            <Time>2019-10-08T09:46:34.000Z</Time>
            <Position>
              <LatitudeDegrees>39.99301859177649021148681640625</LatitudeDegrees>
              <LongitudeDegrees>-6.13578504882752895355224609375</LongitudeDegrees>
            </Position>
            <AltitudeMeters>285.399993896484375</AltitudeMeters>
            <DistanceMeters>NAN</DistanceMeters>
          </Trackpoint>
          <Trackpoint>
            <Time>2019-10-08T09:46:37.000Z</Time>
            <Position>
              <LatitudeDegrees>39.9929474294185638427734375</LatitudeDegrees>
              <LongitudeDegrees>-6.13593407906591892242431640625</LongitudeDegrees>
            </Position>
            <AltitudeMeters>285.600006103515625</AltitudeMeters>
            <DistanceMeters>NAN</DistanceMeters>
          </Trackpoint>
          <Trackpoint>
            <Time>2019-10-08T09:46:44.000Z</Time>
            <Position>
              <LatitudeDegrees>39.99278171919286251068115234375</LatitudeDegrees>
              <LongitudeDegrees>-6.13628796301782131195068359375</LongitudeDegrees>
            </Position>
            <AltitudeMeters>286.399993896484375</AltitudeMeters>
            <DistanceMeters>NAN</DistanceMeters>
          </Trackpoint>
          <Trackpoint>
            <Time>2019-10-08T09:46:47.000Z</Time>
            <Position>
              <LatitudeDegrees>39.99271265231072902679443359375</LatitudeDegrees>
              <LongitudeDegrees>-6.13643934018909931182861328125</LongitudeDegrees>
            </Position>
            <AltitudeMeters>286.399993896484375</AltitudeMeters>
            <DistanceMeters>NAN</DistanceMeters>
          </Trackpoint>
          <Trackpoint>
            <Time>2019-10-08T09:46:55.000Z</Time>
            <Position>
              <LatitudeDegrees>39.9925288371741771697998046875</LatitudeDegrees>
              <LongitudeDegrees>-6.13685038872063159942626953125</LongitudeDegrees>
            </Position>
            <AltitudeMeters>287.600006103515625</AltitudeMeters>
            <DistanceMeters>NAN</DistanceMeters>
          </Trackpoint>
          <Trackpoint>
            <Time>2019-10-08T09:46:57.000Z</Time>
            <Position>
              <LatitudeDegrees>39.99248064123094081878662109375</LatitudeDegrees>
              <LongitudeDegrees>-6.13695524632930755615234375</LongitudeDegrees>
            </Position>
            <AltitudeMeters>287.20001220703125</AltitudeMeters>
            <DistanceMeters>NAN</DistanceMeters>
          </Trackpoint>
          <Trackpoint>
            <Time>2019-10-08T09:47:08.000Z</Time>
            <Position>
              <LatitudeDegrees>39.99221744947135448455810546875</LatitudeDegrees>
              <LongitudeDegrees>-6.13751775585114955902099609375</LongitudeDegrees>
            </Position>
            <AltitudeMeters>288.20001220703125</AltitudeMeters>
            <DistanceMeters>NAN</DistanceMeters>
          </Trackpoint>
          <Trackpoint>
            <Time>2019-10-08T09:47:11.000Z</Time>
            <Position>
              <LatitudeDegrees>39.9921469576656818389892578125</LatitudeDegrees>
              <LongitudeDegrees>-6.13767030648887157440185546875</LongitudeDegrees>
            </Position>
            <AltitudeMeters>288.600006103515625</AltitudeMeters>
            <DistanceMeters>NAN</DistanceMeters>
          </Trackpoint>
          <Trackpoint>
            <Time>2019-10-08T09:47:19.000Z</Time>
            <Position>
              <LatitudeDegrees>39.9919571913778781890869140625</LatitudeDegrees>
              <LongitudeDegrees>-6.13808445632457733154296875</LongitudeDegrees>
            </Position>
            <AltitudeMeters>289.20001220703125</AltitudeMeters>
            <DistanceMeters>NAN</DistanceMeters>
          </Trackpoint>
          <Trackpoint>
            <Time>2019-10-08T09:47:25.000Z</Time>
            <Position>
              <LatitudeDegrees>39.99180925078690052032470703125</LatitudeDegrees>
              <LongitudeDegrees>-6.13839835859835147857666015625</LongitudeDegrees>
            </Position>
            <AltitudeMeters>289.600006103515625</AltitudeMeters>
            <DistanceMeters>NAN</DistanceMeters>
          </Trackpoint>
          <Trackpoint>
            <Time>2019-10-08T09:47:28.000Z</Time>
            <Position>
              <LatitudeDegrees>39.991738758981227874755859375</LatitudeDegrees>
              <LongitudeDegrees>-6.1385536752641201019287109375</LongitudeDegrees>
            </Position>
            <AltitudeMeters>288.600006103515625</AltitudeMeters>
            <DistanceMeters>NAN</DistanceMeters>
          </Trackpoint>
          <Trackpoint>
            <Time>2019-10-08T09:47:29.000Z</Time>
            <Position>
              <LatitudeDegrees>39.9917157925665378570556640625</LatitudeDegrees>
              <LongitudeDegrees>-6.138605140149593353271484375</LongitudeDegrees>
            </Position>
            <AltitudeMeters>289.399993896484375</AltitudeMeters>
            <DistanceMeters>NAN</DistanceMeters>
          </Trackpoint>
          <Trackpoint>
            <Time>2019-10-08T09:47:33.000Z</Time>
            <Position>
              <LatitudeDegrees>39.99162434600293636322021484375</LatitudeDegrees>
              <LongitudeDegrees>-6.1388101615011692047119140625</LongitudeDegrees>
            </Position>
            <AltitudeMeters>289.600006103515625</AltitudeMeters>
            <DistanceMeters>NAN</DistanceMeters>
          </Trackpoint>
          <Trackpoint>
            <Time>2019-10-08T09:47:38.000Z</Time>
            <Position>
              <LatitudeDegrees>39.99150800518691539764404296875</LatitudeDegrees>
              <LongitudeDegrees>-6.13905943930149078369140625</LongitudeDegrees>
            </Position>
            <AltitudeMeters>290.600006103515625</AltitudeMeters>
            <DistanceMeters>NAN</DistanceMeters>
          </Trackpoint>
          <Trackpoint>
            <Time>2019-10-08T09:47:39.000Z</Time>
            <Position>
              <LatitudeDegrees>39.991485290229320526123046875</LatitudeDegrees>
              <LongitudeDegrees>-6.13910864107310771942138671875</LongitudeDegrees>
            </Position>
            <AltitudeMeters>291</AltitudeMeters>
            <DistanceMeters>NAN</DistanceMeters>
          </Trackpoint>
          <Trackpoint>
            <Time>2019-10-08T09:47:41.000Z</Time>
            <Position>
              <LatitudeDegrees>39.99144111759960651397705078125</LatitudeDegrees>
              <LongitudeDegrees>-6.1392098106443881988525390625</LongitudeDegrees>
            </Position>
            <AltitudeMeters>291</AltitudeMeters>
            <DistanceMeters>NAN</DistanceMeters>
          </Trackpoint>
          <Trackpoint>
            <Time>2019-10-08T09:47:47.000Z</Time>
            <Position>
              <LatitudeDegrees>39.99130466021597385406494140625</LatitudeDegrees>
              <LongitudeDegrees>-6.1395088769495487213134765625</LongitudeDegrees>
            </Position>
            <AltitudeMeters>291.79998779296875</AltitudeMeters>
            <DistanceMeters>NAN</DistanceMeters>
          </Trackpoint>
          <Trackpoint>
            <Time>2019-10-08T09:47:49.000Z</Time>
            <Position>
              <LatitudeDegrees>39.99126099050045013427734375</LatitudeDegrees>
              <LongitudeDegrees>-6.13960660994052886962890625</LongitudeDegrees>
            </Position>
            <AltitudeMeters>292</AltitudeMeters>
            <DistanceMeters>NAN</DistanceMeters>
          </Trackpoint>
          <Trackpoint>
            <Time>2019-10-08T09:47:52.000Z</Time>
            <Position>
              <LatitudeDegrees>39.991191588342189788818359375</LatitudeDegrees>
              <LongitudeDegrees>-6.13975589163601398468017578125</LongitudeDegrees>
            </Position>
            <AltitudeMeters>293</AltitudeMeters>
            <DistanceMeters>NAN</DistanceMeters>
          </Trackpoint>
          <Trackpoint>
            <Time>2019-10-08T09:47:57.000Z</Time>
            <Position>
              <LatitudeDegrees>39.99108321033418178558349609375</LatitudeDegrees>
              <LongitudeDegrees>-6.13999963738024234771728515625</LongitudeDegrees>
            </Position>
            <AltitudeMeters>293.20001220703125</AltitudeMeters>
            <DistanceMeters>NAN</DistanceMeters>
          </Trackpoint>
          <Trackpoint>
            <Time>2019-10-08T09:48:03.000Z</Time>
            <Position>
              <LatitudeDegrees>39.9909480102360248565673828125</LatitudeDegrees>
              <LongitudeDegrees>-6.140296943485736846923828125</LongitudeDegrees>
            </Position>
            <AltitudeMeters>294</AltitudeMeters>
            <DistanceMeters>NAN</DistanceMeters>
          </Trackpoint>
          <Trackpoint>
            <Time>2019-10-08T09:48:07.000Z</Time>
            <Position>
              <LatitudeDegrees>39.99085622839629650115966796875</LatitudeDegrees>
              <LongitudeDegrees>-6.14049769006669521331787109375</LongitudeDegrees>
            </Position>
            <AltitudeMeters>294.399993896484375</AltitudeMeters>
            <DistanceMeters>NAN</DistanceMeters>
          </Trackpoint>
          <Trackpoint>
            <Time>2019-10-08T09:48:12.000Z</Time>
            <Position>
              <LatitudeDegrees>39.99074558727443218231201171875</LatitudeDegrees>
              <LongitudeDegrees>-6.1407504044473171234130859375</LongitudeDegrees>
            </Position>
            <AltitudeMeters>295.20001220703125</AltitudeMeters>
            <DistanceMeters>NAN</DistanceMeters>
          </Trackpoint>
          <Trackpoint>
            <Time>2019-10-08T09:48:18.000Z</Time>
            <Position>
              <LatitudeDegrees>39.99061147682368755340576171875</LatitudeDegrees>
              <LongitudeDegrees>-6.14105173386633396148681640625</LongitudeDegrees>
            </Position>
            <AltitudeMeters>296.399993896484375</AltitudeMeters>
            <DistanceMeters>NAN</DistanceMeters>
          </Trackpoint>
          <Trackpoint>
            <Time>2019-10-08T09:48:27.000Z</Time>
            <Position>
              <LatitudeDegrees>39.99040092341601848602294921875</LatitudeDegrees>
              <LongitudeDegrees>-6.14149949513375759124755859375</LongitudeDegrees>
            </Position>
            <AltitudeMeters>297.600006103515625</AltitudeMeters>
            <DistanceMeters>NAN</DistanceMeters>
          </Trackpoint>
          <Trackpoint>
            <Time>2019-10-08T09:48:28.000Z</Time>
            <Position>
              <LatitudeDegrees>39.9903778731822967529296875</LatitudeDegrees>
              <LongitudeDegrees>-6.1415483616292476654052734375</LongitudeDegrees>
            </Position>
            <AltitudeMeters>297.399993896484375</AltitudeMeters>
            <DistanceMeters>NAN</DistanceMeters>
          </Trackpoint>
          <Trackpoint>
            <Time>2019-10-08T09:48:38.000Z</Time>
            <Position>
              <LatitudeDegrees>39.9901436828076839447021484375</LatitudeDegrees>
              <LongitudeDegrees>-6.14205144345760345458984375</LongitudeDegrees>
            </Position>
            <AltitudeMeters>298.399993896484375</AltitudeMeters>
            <DistanceMeters>NAN</DistanceMeters>
          </Trackpoint>
          <Trackpoint>
            <Time>2019-10-08T09:48:42.000Z</Time>
            <Position>
              <LatitudeDegrees>39.99005525372922420501708984375</LatitudeDegrees>
              <LongitudeDegrees>-6.14225369878113269805908203125</LongitudeDegrees>
            </Position>
            <AltitudeMeters>298.79998779296875</AltitudeMeters>
            <DistanceMeters>NAN</DistanceMeters>
          </Trackpoint>
          <Trackpoint>
            <Time>2019-10-08T09:48:48.000Z</Time>
            <Position>
              <LatitudeDegrees>39.98991577886044979095458984375</LatitudeDegrees>
              <LongitudeDegrees>-6.1425531841814517974853515625</LongitudeDegrees>
            </Position>
            <AltitudeMeters>299.79998779296875</AltitudeMeters>
            <DistanceMeters>NAN</DistanceMeters>
          </Trackpoint>
          <Trackpoint>
            <Time>2019-10-08T09:48:49.000Z</Time>
            <Position>
              <LatitudeDegrees>39.9898945726454257965087890625</LatitudeDegrees>
              <LongitudeDegrees>-6.14260506816208362579345703125</LongitudeDegrees>
            </Position>
            <AltitudeMeters>300</AltitudeMeters>
            <DistanceMeters>NAN</DistanceMeters>
          </Trackpoint>
          <Trackpoint>
            <Time>2019-10-08T09:48:55.000Z</Time>
            <Position>
              <LatitudeDegrees>39.9897556006908416748046875</LatitudeDegrees>
              <LongitudeDegrees>-6.14290379919111728668212890625</LongitudeDegrees>
            </Position>
            <AltitudeMeters>301</AltitudeMeters>
            <DistanceMeters>NAN</DistanceMeters>
          </Trackpoint>
          <Trackpoint>
            <Time>2019-10-08T09:48:58.000Z</Time>
            <Position>
              <LatitudeDegrees>39.98968787491321563720703125</LatitudeDegrees>
              <LongitudeDegrees>-6.14305517636239528656005859375</LongitudeDegrees>
            </Position>
            <AltitudeMeters>301.20001220703125</AltitudeMeters>
            <DistanceMeters>NAN</DistanceMeters>
          </Trackpoint>
          <Trackpoint>
            <Time>2019-10-08T09:49:04.000Z</Time>
            <Position>
              <LatitudeDegrees>39.98955108225345611572265625</LatitudeDegrees>
              <LongitudeDegrees>-6.1433554999530315399169921875</LongitudeDegrees>
            </Position>
            <AltitudeMeters>302</AltitudeMeters>
            <DistanceMeters>NAN</DistanceMeters>
          </Trackpoint>
          <Trackpoint>
            <Time>2019-10-08T09:49:07.000Z</Time>
            <Position>
              <LatitudeDegrees>39.98948243446648120880126953125</LatitudeDegrees>
              <LongitudeDegrees>-6.1435031890869140625</LongitudeDegrees>
            </Position>
            <AltitudeMeters>302.20001220703125</AltitudeMeters>
            <DistanceMeters>NAN</DistanceMeters>
          </Trackpoint>
          <Trackpoint>
            <Time>2019-10-08T09:49:11.000Z</Time>
            <Position>
              <LatitudeDegrees>39.98939190991222858428955078125</LatitudeDegrees>
              <LongitudeDegrees>-6.14369723014533519744873046875</LongitudeDegrees>
            </Position>
            <AltitudeMeters>303.20001220703125</AltitudeMeters>
            <DistanceMeters>NAN</DistanceMeters>
          </Trackpoint>
          <Trackpoint>
            <Time>2019-10-08T09:49:16.000Z</Time>
            <Position>
              <LatitudeDegrees>39.9892753176391124725341796875</LatitudeDegrees>
              <LongitudeDegrees>-6.14394332282245159149169921875</LongitudeDegrees>
            </Position>
            <AltitudeMeters>304.399993896484375</AltitudeMeters>
            <DistanceMeters>NAN</DistanceMeters>
          </Trackpoint>
          <Trackpoint>
            <Time>2019-10-08T09:49:17.000Z</Time>
            <Position>
              <LatitudeDegrees>39.98925142921507358551025390625</LatitudeDegrees>
              <LongitudeDegrees>-6.14398992620408535003662109375</LongitudeDegrees>
            </Position>
            <AltitudeMeters>304.600006103515625</AltitudeMeters>
            <DistanceMeters>NAN</DistanceMeters>
          </Trackpoint>
          <Trackpoint>
            <Time>2019-10-08T09:49:21.000Z</Time>
            <Position>
              <LatitudeDegrees>39.9891556240618228912353515625</LatitudeDegrees>
              <LongitudeDegrees>-6.1441732384264469146728515625</LongitudeDegrees>
            </Position>
            <AltitudeMeters>304.600006103515625</AltitudeMeters>
            <DistanceMeters>NAN</DistanceMeters>
          </Trackpoint>
          <Trackpoint>
            <Time>2019-10-08T09:49:25.000Z</Time>
            <Position>
              <LatitudeDegrees>39.98906166292726993560791015625</LatitudeDegrees>
              <LongitudeDegrees>-6.1443425528705120086669921875</LongitudeDegrees>
            </Position>
            <AltitudeMeters>305.399993896484375</AltitudeMeters>
            <DistanceMeters>NAN</DistanceMeters>
          </Trackpoint>
          <Trackpoint>
            <Time>2019-10-08T09:49:32.000Z</Time>
            <Position>
              <LatitudeDegrees>39.98888044618070125579833984375</LatitudeDegrees>
              <LongitudeDegrees>-6.14461823366582393646240234375</LongitudeDegrees>
            </Position>
            <AltitudeMeters>306.399993896484375</AltitudeMeters>
            <DistanceMeters>NAN</DistanceMeters>
          </Trackpoint>
          <Trackpoint>
            <Time>2019-10-08T09:49:33.000Z</Time>
            <Position>
              <LatitudeDegrees>39.98885395936667919158935546875</LatitudeDegrees>
              <LongitudeDegrees>-6.1446543596684932708740234375</LongitudeDegrees>
            </Position>
            <AltitudeMeters>306.600006103515625</AltitudeMeters>
            <DistanceMeters>NAN</DistanceMeters>
          </Trackpoint>
          <Trackpoint>
            <Time>2019-10-08T09:49:39.000Z</Time>
            <Position>
              <LatitudeDegrees>39.988681375980377197265625</LatitudeDegrees>
              <LongitudeDegrees>-6.14487689919769763946533203125</LongitudeDegrees>
            </Position>
            <AltitudeMeters>307.600006103515625</AltitudeMeters>
            <DistanceMeters>NAN</DistanceMeters>
          </Trackpoint>
          <Trackpoint>
            <Time>2019-10-08T09:49:42.000Z</Time>
            <Position>
              <LatitudeDegrees>39.98858749866485595703125</LatitudeDegrees>
              <LongitudeDegrees>-6.1449852772057056427001953125</LongitudeDegrees>
            </Position>
            <AltitudeMeters>307.79998779296875</AltitudeMeters>
            <DistanceMeters>NAN</DistanceMeters>
          </Trackpoint>
          <Trackpoint>
            <Time>2019-10-08T09:49:47.000Z</Time>
            <Position>
              <LatitudeDegrees>39.98842991888523101806640625</LatitudeDegrees>
              <LongitudeDegrees>-6.14515266381204128265380859375</LongitudeDegrees>
            </Position>
            <AltitudeMeters>308.600006103515625</AltitudeMeters>
            <DistanceMeters>NAN</DistanceMeters>
          </Trackpoint>
          <Trackpoint>
            <Time>2019-10-08T09:49:51.000Z</Time>
            <Position>
              <LatitudeDegrees>39.98829605989158153533935546875</LatitudeDegrees>
              <LongitudeDegrees>-6.14527319557964801788330078125</LongitudeDegrees>
            </Position>
            <AltitudeMeters>309.79998779296875</AltitudeMeters>
            <DistanceMeters>NAN</DistanceMeters>
          </Trackpoint>
          <Trackpoint>
            <Time>2019-10-08T09:50:00.000Z</Time>
            <Position>
              <LatitudeDegrees>39.9879834987223148345947265625</LatitudeDegrees>
              <LongitudeDegrees>-6.14552582614123821258544921875</LongitudeDegrees>
            </Position>
            <AltitudeMeters>311</AltitudeMeters>
            <DistanceMeters>NAN</DistanceMeters>
          </Trackpoint>
          <Trackpoint>
            <Time>2019-10-08T09:50:01.000Z</Time>
            <Position>
              <LatitudeDegrees>39.987946450710296630859375</LatitudeDegrees>
              <LongitudeDegrees>-6.14554979838430881500244140625</LongitudeDegrees>
            </Position>
            <AltitudeMeters>311.20001220703125</AltitudeMeters>
            <DistanceMeters>NAN</DistanceMeters>
          </Trackpoint>
          <Trackpoint>
            <Time>2019-10-08T09:50:06.000Z</Time>
            <Position>
              <LatitudeDegrees>39.987765736877918243408203125</LatitudeDegrees>
              <LongitudeDegrees>-6.14566479809582233428955078125</LongitudeDegrees>
            </Position>
            <AltitudeMeters>312</AltitudeMeters>
            <DistanceMeters>NAN</DistanceMeters>
          </Trackpoint>
          <Trackpoint>
            <Time>2019-10-08T09:50:08.000Z</Time>
            <Position>
              <LatitudeDegrees>39.98769608326256275177001953125</LatitudeDegrees>
              <LongitudeDegrees>-6.1457178555428981781005859375</LongitudeDegrees>
            </Position>
            <AltitudeMeters>312.399993896484375</AltitudeMeters>
            <DistanceMeters>NAN</DistanceMeters>
          </Trackpoint>
          <Trackpoint>
            <Time>2019-10-08T09:50:11.000Z</Time>
            <Position>
              <LatitudeDegrees>39.9875872023403644561767578125</LatitudeDegrees>
              <LongitudeDegrees>-6.1457839049398899078369140625</LongitudeDegrees>
            </Position>
            <AltitudeMeters>313</AltitudeMeters>
            <DistanceMeters>NAN</DistanceMeters>
          </Trackpoint>
          <Trackpoint>
            <Time>2019-10-08T09:50:16.000Z</Time>
            <Position>
              <LatitudeDegrees>39.98739433474838733673095703125</LatitudeDegrees>
              <LongitudeDegrees>-6.14588591270148754119873046875</LongitudeDegrees>
            </Position>
            <AltitudeMeters>313.399993896484375</AltitudeMeters>
            <DistanceMeters>NAN</DistanceMeters>
          </Trackpoint>
          <Trackpoint>
            <Time>2019-10-08T09:50:18.000Z</Time>
            <Position>
              <LatitudeDegrees>39.98731755651533603668212890625</LatitudeDegrees>
              <LongitudeDegrees>-6.1459233798086643218994140625</LongitudeDegrees>
            </Position>
            <AltitudeMeters>314</AltitudeMeters>
            <DistanceMeters>NAN</DistanceMeters>
          </Trackpoint>
          <Trackpoint>
            <Time>2019-10-08T09:50:21.000Z</Time>
            <Position>
              <LatitudeDegrees>39.9872049875557422637939453125</LatitudeDegrees>
              <LongitudeDegrees>-6.14600828848779201507568359375</LongitudeDegrees>
            </Position>
            <AltitudeMeters>313.79998779296875</AltitudeMeters>
            <DistanceMeters>NAN</DistanceMeters>
          </Trackpoint>
          <Trackpoint>
            <Time>2019-10-08T09:50:23.000Z</Time>
            <Position>
              <LatitudeDegrees>39.98714220710098743438720703125</LatitudeDegrees>
              <LongitudeDegrees>-6.1460947059094905853271484375</LongitudeDegrees>
            </Position>
            <AltitudeMeters>314.399993896484375</AltitudeMeters>
            <DistanceMeters>NAN</DistanceMeters>
          </Trackpoint>
          <Trackpoint>
            <Time>2019-10-08T09:50:25.000Z</Time>
            <Position>
              <LatitudeDegrees>39.98710264451801776885986328125</LatitudeDegrees>
              <LongitudeDegrees>-6.1462081968784332275390625</LongitudeDegrees>
            </Position>
            <AltitudeMeters>314.399993896484375</AltitudeMeters>
            <DistanceMeters>NAN</DistanceMeters>
          </Trackpoint>
          <Trackpoint>
            <Time>2019-10-08T09:50:27.000Z</Time>
            <Position>
              <LatitudeDegrees>39.98705470003187656402587890625</LatitudeDegrees>
              <LongitudeDegrees>-6.14632495678961277008056640625</LongitudeDegrees>
            </Position>
            <AltitudeMeters>314</AltitudeMeters>
            <DistanceMeters>NAN</DistanceMeters>
          </Trackpoint>
          <Trackpoint>
            <Time>2019-10-08T09:50:29.000Z</Time>
            <Position>
              <LatitudeDegrees>39.98699451796710491180419921875</LatitudeDegrees>
              <LongitudeDegrees>-6.14643777720630168914794921875</LongitudeDegrees>
            </Position>
            <AltitudeMeters>313.600006103515625</AltitudeMeters>
            <DistanceMeters>NAN</DistanceMeters>
          </Trackpoint>
          <Trackpoint>
            <Time>2019-10-08T09:50:32.000Z</Time>
            <Position>
              <LatitudeDegrees>39.98686828650534152984619140625</LatitudeDegrees>
              <LongitudeDegrees>-6.14657306112349033355712890625</LongitudeDegrees>
            </Position>
            <AltitudeMeters>313.600006103515625</AltitudeMeters>
            <DistanceMeters>NAN</DistanceMeters>
          </Trackpoint>
          <Trackpoint>
            <Time>2019-10-08T09:50:36.000Z</Time>
            <Position>
              <LatitudeDegrees>39.986664019525051116943359375</LatitudeDegrees>
              <LongitudeDegrees>-6.1466603167355060577392578125</LongitudeDegrees>
            </Position>
            <AltitudeMeters>313.20001220703125</AltitudeMeters>
            <DistanceMeters>NAN</DistanceMeters>
          </Trackpoint>
          <Trackpoint>
            <Time>2019-10-08T09:50:41.000Z</Time>
            <Position>
              <LatitudeDegrees>39.98640309087932109832763671875</LatitudeDegrees>
              <LongitudeDegrees>-6.1466331593692302703857421875</LongitudeDegrees>
            </Position>
            <AltitudeMeters>313.600006103515625</AltitudeMeters>
            <DistanceMeters>NAN</DistanceMeters>
          </Trackpoint>
          <Trackpoint>
            <Time>2019-10-08T09:50:44.000Z</Time>
            <Position>
              <LatitudeDegrees>39.9862574972212314605712890625</LatitudeDegrees>
              <LongitudeDegrees>-6.14660541526973247528076171875</LongitudeDegrees>
            </Position>
            <AltitudeMeters>314.20001220703125</AltitudeMeters>
            <DistanceMeters>NAN</DistanceMeters>
          </Trackpoint>
          <Trackpoint>
            <Time>2019-10-08T09:50:46.000Z</Time>
            <Position>
              <LatitudeDegrees>39.98616638593375682830810546875</LatitudeDegrees>
              <LongitudeDegrees>-6.1466241069138050079345703125</LongitudeDegrees>
            </Position>
            <AltitudeMeters>314.399993896484375</AltitudeMeters>
            <DistanceMeters>NAN</DistanceMeters>
          </Trackpoint>
          <Trackpoint>
            <Time>2019-10-08T09:50:47.000Z</Time>
            <Position>
              <LatitudeDegrees>39.98612380586564540863037109375</LatitudeDegrees>
              <LongitudeDegrees>-6.1466385237872600555419921875</LongitudeDegrees>
            </Position>
            <AltitudeMeters>315.20001220703125</AltitudeMeters>
            <DistanceMeters>NAN</DistanceMeters>
          </Trackpoint>
          <Trackpoint>
            <Time>2019-10-08T09:50:48.000Z</Time>
            <Position>
              <LatitudeDegrees>39.9860828183591365814208984375</LatitudeDegrees>
              <LongitudeDegrees>-6.14666040055453777313232421875</LongitudeDegrees>
            </Position>
            <AltitudeMeters>315.20001220703125</AltitudeMeters>
            <DistanceMeters>NAN</DistanceMeters>
          </Trackpoint>
          <Trackpoint>
            <Time>2019-10-08T09:50:51.000Z</Time>
            <Position>
              <LatitudeDegrees>39.98597242869436740875244140625</LatitudeDegrees>
              <LongitudeDegrees>-6.146763749420642852783203125</LongitudeDegrees>
            </Position>
            <AltitudeMeters>316</AltitudeMeters>
            <DistanceMeters>NAN</DistanceMeters>
          </Trackpoint>
          <Trackpoint>
            <Time>2019-10-08T09:50:52.000Z</Time>
            <Position>
              <LatitudeDegrees>39.98593680560588836669921875</LatitudeDegrees>
              <LongitudeDegrees>-6.1468007974326610565185546875</LongitudeDegrees>
            </Position>
            <AltitudeMeters>316.20001220703125</AltitudeMeters>
            <DistanceMeters>NAN</DistanceMeters>
          </Trackpoint>
          <Trackpoint>
            <Time>2019-10-08T09:51:02.000Z</Time>
            <Position>
              <LatitudeDegrees>39.98558501712977886199951171875</LatitudeDegrees>
              <LongitudeDegrees>-6.1471799947321414947509765625</LongitudeDegrees>
            </Position>
            <AltitudeMeters>317.399993896484375</AltitudeMeters>
            <DistanceMeters>NAN</DistanceMeters>
          </Trackpoint>
          <Trackpoint>
            <Time>2019-10-08T09:51:12.000Z</Time>
            <Position>
              <LatitudeDegrees>39.9852204881608486175537109375</LatitudeDegrees>
              <LongitudeDegrees>-6.147573105990886688232421875</LongitudeDegrees>
            </Position>
            <AltitudeMeters>317.20001220703125</AltitudeMeters>
            <DistanceMeters>NAN</DistanceMeters>
          </Trackpoint>
          <Trackpoint>
            <Time>2019-10-08T09:51:22.000Z</Time>
            <Position>
              <LatitudeDegrees>39.98479728586971759796142578125</LatitudeDegrees>
              <LongitudeDegrees>-6.148051209747791290283203125</LongitudeDegrees>
            </Position>
            <AltitudeMeters>317</AltitudeMeters>
            <DistanceMeters>NAN</DistanceMeters>
          </Trackpoint>
          <Trackpoint>
            <Time>2019-10-08T09:51:25.000Z</Time>
            <Position>
              <LatitudeDegrees>39.98465462587773799896240234375</LatitudeDegrees>
              <LongitudeDegrees>-6.148208789527416229248046875</LongitudeDegrees>
            </Position>
            <AltitudeMeters>316.20001220703125</AltitudeMeters>
            <DistanceMeters>NAN</DistanceMeters>
          </Trackpoint>
          <Trackpoint>
            <Time>2019-10-08T09:51:29.000Z</Time>
            <Position>
              <LatitudeDegrees>39.9844496883451938629150390625</LatitudeDegrees>
              <LongitudeDegrees>-6.14844189025461673736572265625</LongitudeDegrees>
            </Position>
            <AltitudeMeters>315.20001220703125</AltitudeMeters>
            <DistanceMeters>NAN</DistanceMeters>
          </Trackpoint>
          <Trackpoint>
            <Time>2019-10-08T09:51:30.000Z</Time>
            <Position>
              <LatitudeDegrees>39.98439562506973743438720703125</LatitudeDegrees>
              <LongitudeDegrees>-6.14850341342389583587646484375</LongitudeDegrees>
            </Position>
            <AltitudeMeters>315</AltitudeMeters>
            <DistanceMeters>NAN</DistanceMeters>
          </Trackpoint>
          <Trackpoint>
            <Time>2019-10-08T09:51:32.000Z</Time>
            <Position>
              <LatitudeDegrees>39.984281547367572784423828125</LatitudeDegrees>
              <LongitudeDegrees>-6.14863132126629352569580078125</LongitudeDegrees>
            </Position>
            <AltitudeMeters>314.20001220703125</AltitudeMeters>
            <DistanceMeters>NAN</DistanceMeters>
          </Trackpoint>
          <Trackpoint>
            <Time>2019-10-08T09:51:34.000Z</Time>
            <Position>
              <LatitudeDegrees>39.984164200723171234130859375</LatitudeDegrees>
              <LongitudeDegrees>-6.14876140840351581573486328125</LongitudeDegrees>
            </Position>
            <AltitudeMeters>313</AltitudeMeters>
            <DistanceMeters>NAN</DistanceMeters>
          </Trackpoint>
          <Trackpoint>
            <Time>2019-10-08T09:51:36.000Z</Time>
            <Position>
              <LatitudeDegrees>39.9840399809181690216064453125</LatitudeDegrees>
              <LongitudeDegrees>-6.1488945968449115753173828125</LongitudeDegrees>
            </Position>
            <AltitudeMeters>312</AltitudeMeters>
            <DistanceMeters>NAN</DistanceMeters>
          </Trackpoint>
          <Trackpoint>
            <Time>2019-10-08T09:51:37.000Z</Time>
            <Position>
              <LatitudeDegrees>39.98397502116858959197998046875</LatitudeDegrees>
              <LongitudeDegrees>-6.14896257407963275909423828125</LongitudeDegrees>
            </Position>
            <AltitudeMeters>311.600006103515625</AltitudeMeters>
            <DistanceMeters>NAN</DistanceMeters>
          </Trackpoint>
          <Trackpoint>
            <Time>2019-10-08T09:51:38.000Z</Time>
            <Position>
              <LatitudeDegrees>39.9839092232286930084228515625</LatitudeDegrees>
              <LongitudeDegrees>-6.14903314970433712005615234375</LongitudeDegrees>
            </Position>
            <AltitudeMeters>311</AltitudeMeters>
            <DistanceMeters>NAN</DistanceMeters>
          </Trackpoint>
          <Trackpoint>
            <Time>2019-10-08T09:51:40.000Z</Time>
            <Position>
              <LatitudeDegrees>39.983768574893474578857421875</LatitudeDegrees>
              <LongitudeDegrees>-6.14917396567761898040771484375</LongitudeDegrees>
            </Position>
            <AltitudeMeters>309.79998779296875</AltitudeMeters>
            <DistanceMeters>NAN</DistanceMeters>
          </Trackpoint>
          <Trackpoint>
            <Time>2019-10-08T09:51:42.000Z</Time>
            <Position>
              <LatitudeDegrees>39.98361476697027683258056640625</LatitudeDegrees>
              <LongitudeDegrees>-6.14931159652769565582275390625</LongitudeDegrees>
            </Position>
            <AltitudeMeters>308.79998779296875</AltitudeMeters>
            <DistanceMeters>NAN</DistanceMeters>
          </Trackpoint>
          <Trackpoint>
            <Time>2019-10-08T09:51:43.000Z</Time>
            <Position>
              <LatitudeDegrees>39.9835313670337200164794921875</LatitudeDegrees>
              <LongitudeDegrees>-6.1493834294378757476806640625</LongitudeDegrees>
            </Position>
            <AltitudeMeters>308.20001220703125</AltitudeMeters>
            <DistanceMeters>NAN</DistanceMeters>
          </Trackpoint>
          <Trackpoint>
            <Time>2019-10-08T09:51:44.000Z</Time>
            <Position>
              <LatitudeDegrees>39.98344662599265575408935546875</LatitudeDegrees>
              <LongitudeDegrees>-6.14945140667259693145751953125</LongitudeDegrees>
            </Position>
            <AltitudeMeters>307</AltitudeMeters>
            <DistanceMeters>NAN</DistanceMeters>
          </Trackpoint>
          <Trackpoint>
            <Time>2019-10-08T09:51:46.000Z</Time>
            <Position>
              <LatitudeDegrees>39.983268342912197113037109375</LatitudeDegrees>
              <LongitudeDegrees>-6.149584092199802398681640625</LongitudeDegrees>
            </Position>
            <AltitudeMeters>305</AltitudeMeters>
            <DistanceMeters>NAN</DistanceMeters>
          </Trackpoint>
          <Trackpoint>
            <Time>2019-10-08T09:51:48.000Z</Time>
            <Position>
              <LatitudeDegrees>39.98308427631855010986328125</LatitudeDegrees>
              <LongitudeDegrees>-6.14971694536507129669189453125</LongitudeDegrees>
            </Position>
            <AltitudeMeters>304.20001220703125</AltitudeMeters>
            <DistanceMeters>NAN</DistanceMeters>
          </Trackpoint>
          <Trackpoint>
            <Time>2019-10-08T09:51:49.000Z</Time>
            <Position>
              <LatitudeDegrees>39.98298763297498226165771484375</LatitudeDegrees>
              <LongitudeDegrees>-6.1497847549617290496826171875</LongitudeDegrees>
            </Position>
            <AltitudeMeters>304</AltitudeMeters>
            <DistanceMeters>NAN</DistanceMeters>
          </Trackpoint>
          <Trackpoint>
            <Time>2019-10-08T09:51:50.000Z</Time>
            <Position>
              <LatitudeDegrees>39.9828896485269069671630859375</LatitudeDegrees>
              <LongitudeDegrees>-6.149851977825164794921875</LongitudeDegrees>
            </Position>
            <AltitudeMeters>302.79998779296875</AltitudeMeters>
            <DistanceMeters>NAN</DistanceMeters>
          </Trackpoint>
          <Trackpoint>
            <Time>2019-10-08T09:51:51.000Z</Time>
            <Position>
              <LatitudeDegrees>39.982793591916561126708984375</LatitudeDegrees>
              <LongitudeDegrees>-6.149920709431171417236328125</LongitudeDegrees>
            </Position>
            <AltitudeMeters>301.399993896484375</AltitudeMeters>
            <DistanceMeters>NAN</DistanceMeters>
          </Trackpoint>
          <Trackpoint>
            <Time>2019-10-08T09:51:52.000Z</Time>
            <Position>
              <LatitudeDegrees>39.98269862495362758636474609375</LatitudeDegrees>
              <LongitudeDegrees>-6.1499901115894317626953125</LongitudeDegrees>
            </Position>
            <AltitudeMeters>300.20001220703125</AltitudeMeters>
            <DistanceMeters>NAN</DistanceMeters>
          </Trackpoint>
          <Trackpoint>
            <Time>2019-10-08T09:51:54.000Z</Time>
            <Position>
              <LatitudeDegrees>39.98251489363610744476318359375</LatitudeDegrees>
              <LongitudeDegrees>-6.150148697197437286376953125</LongitudeDegrees>
            </Position>
            <AltitudeMeters>299</AltitudeMeters>
            <DistanceMeters>NAN</DistanceMeters>
          </Trackpoint>
          <Trackpoint>
            <Time>2019-10-08T09:51:55.000Z</Time>
            <Position>
              <LatitudeDegrees>39.9824269674718379974365234375</LatitudeDegrees>
              <LongitudeDegrees>-6.15024098195135593414306640625</LongitudeDegrees>
            </Position>
            <AltitudeMeters>298.600006103515625</AltitudeMeters>
            <DistanceMeters>NAN</DistanceMeters>
          </Trackpoint>
          <Trackpoint>
            <Time>2019-10-08T09:51:56.000Z</Time>
            <Position>
              <LatitudeDegrees>39.9823418073356151580810546875</LatitudeDegrees>
              <LongitudeDegrees>-6.15033905021846294403076171875</LongitudeDegrees>
            </Position>
            <AltitudeMeters>297.79998779296875</AltitudeMeters>
            <DistanceMeters>NAN</DistanceMeters>
          </Trackpoint>
          <Trackpoint>
            <Time>2019-10-08T09:51:57.000Z</Time>
            <Position>
              <LatitudeDegrees>39.98226352035999298095703125</LatitudeDegrees>
              <LongitudeDegrees>-6.1504479311406612396240234375</LongitudeDegrees>
            </Position>
            <AltitudeMeters>297.20001220703125</AltitudeMeters>
            <DistanceMeters>NAN</DistanceMeters>
          </Trackpoint>
          <Trackpoint>
            <Time>2019-10-08T09:51:58.000Z</Time>
            <Position>
              <LatitudeDegrees>39.9821942858397960662841796875</LatitudeDegrees>
              <LongitudeDegrees>-6.15056754089891910552978515625</LongitudeDegrees>
            </Position>
            <AltitudeMeters>296.600006103515625</AltitudeMeters>
            <DistanceMeters>NAN</DistanceMeters>
          </Trackpoint>
          <Trackpoint>
            <Time>2019-10-08T09:51:59.000Z</Time>
            <Position>
              <LatitudeDegrees>39.9821346066892147064208984375</LatitudeDegrees>
              <LongitudeDegrees>-6.15069410763680934906005859375</LongitudeDegrees>
            </Position>
            <AltitudeMeters>296.20001220703125</AltitudeMeters>
            <DistanceMeters>NAN</DistanceMeters>
          </Trackpoint>
          <Trackpoint>
            <Time>2019-10-08T09:52:03.000Z</Time>
            <Position>
              <LatitudeDegrees>39.9819421581923961639404296875</LatitudeDegrees>
              <LongitudeDegrees>-6.15115092135965824127197265625</LongitudeDegrees>
            </Position>
            <AltitudeMeters>297.600006103515625</AltitudeMeters>
            <DistanceMeters>NAN</DistanceMeters>
          </Trackpoint>
          <Trackpoint>
            <Time>2019-10-08T09:52:04.000Z</Time>
            <Position>
              <LatitudeDegrees>39.98191173188388347625732421875</LatitudeDegrees>
              <LongitudeDegrees>-6.15125410258769989013671875</LongitudeDegrees>
            </Position>
            <AltitudeMeters>298</AltitudeMeters>
            <DistanceMeters>NAN</DistanceMeters>
          </Trackpoint>
          <Trackpoint>
            <Time>2019-10-08T09:52:07.000Z</Time>
            <Position>
              <LatitudeDegrees>39.98185087926685810089111328125</LatitudeDegrees>
              <LongitudeDegrees>-6.15155442617833614349365234375</LongitudeDegrees>
            </Position>
            <AltitudeMeters>298</AltitudeMeters>
            <DistanceMeters>NAN</DistanceMeters>
          </Trackpoint>
          <Trackpoint>
            <Time>2019-10-08T09:52:08.000Z</Time>
            <Position>
              <LatitudeDegrees>39.98185272328555583953857421875</LatitudeDegrees>
              <LongitudeDegrees>-6.15163941867649555206298828125</LongitudeDegrees>
            </Position>
            <AltitudeMeters>298.20001220703125</AltitudeMeters>
            <DistanceMeters>NAN</DistanceMeters>
          </Trackpoint>
          <Trackpoint>
            <Time>2019-10-08T09:52:10.000Z</Time>
            <Position>
              <LatitudeDegrees>39.9818980693817138671875</LatitudeDegrees>
              <LongitudeDegrees>-6.15180663764476776123046875</LongitudeDegrees>
            </Position>
            <AltitudeMeters>298</AltitudeMeters>
            <DistanceMeters>NAN</DistanceMeters>
          </Trackpoint>
          <Trackpoint>
            <Time>2019-10-08T09:52:12.000Z</Time>
            <Position>
              <LatitudeDegrees>39.9819760210812091827392578125</LatitudeDegrees>
              <LongitudeDegrees>-6.151961870491504669189453125</LongitudeDegrees>
            </Position>
            <AltitudeMeters>297</AltitudeMeters>
            <DistanceMeters>NAN</DistanceMeters>
          </Trackpoint>
          <Trackpoint>
            <Time>2019-10-08T09:52:13.000Z</Time>
            <Position>
              <LatitudeDegrees>39.982022456824779510498046875</LatitudeDegrees>
              <LongitudeDegrees>-6.1520393192768096923828125</LongitudeDegrees>
            </Position>
            <AltitudeMeters>296.600006103515625</AltitudeMeters>
            <DistanceMeters>NAN</DistanceMeters>
          </Trackpoint>
          <Trackpoint>
            <Time>2019-10-08T09:52:14.000Z</Time>
            <Position>
              <LatitudeDegrees>39.9820722453296184539794921875</LatitudeDegrees>
              <LongitudeDegrees>-6.15211735479533672332763671875</LongitudeDegrees>
            </Position>
            <AltitudeMeters>296</AltitudeMeters>
            <DistanceMeters>NAN</DistanceMeters>
          </Trackpoint>
          <Trackpoint>
            <Time>2019-10-08T09:52:16.000Z</Time>
            <Position>
              <LatitudeDegrees>39.98216696083545684814453125</LatitudeDegrees>
              <LongitudeDegrees>-6.15228532813489437103271484375</LongitudeDegrees>
            </Position>
            <AltitudeMeters>295.399993896484375</AltitudeMeters>
            <DistanceMeters>NAN</DistanceMeters>
          </Trackpoint>
          <Trackpoint>
            <Time>2019-10-08T09:52:19.000Z</Time>
            <Position>
              <LatitudeDegrees>39.98228405602276325225830078125</LatitudeDegrees>
              <LongitudeDegrees>-6.15257316268980503082275390625</LongitudeDegrees>
            </Position>
            <AltitudeMeters>295</AltitudeMeters>
            <DistanceMeters>NAN</DistanceMeters>
          </Trackpoint>
          <Trackpoint>
            <Time>2019-10-08T09:52:21.000Z</Time>
            <Position>
              <LatitudeDegrees>39.98234205879271030426025390625</LatitudeDegrees>
              <LongitudeDegrees>-6.15278296172618865966796875</LongitudeDegrees>
            </Position>
            <AltitudeMeters>294</AltitudeMeters>
            <DistanceMeters>NAN</DistanceMeters>
          </Trackpoint>
          <Trackpoint>
            <Time>2019-10-08T09:52:24.000Z</Time>
            <Position>
              <LatitudeDegrees>39.98237675987184047698974609375</LatitudeDegrees>
              <LongitudeDegrees>-6.15311932750046253204345703125</LongitudeDegrees>
            </Position>
            <AltitudeMeters>293.20001220703125</AltitudeMeters>
            <DistanceMeters>NAN</DistanceMeters>
          </Trackpoint>
          <Trackpoint>
            <Time>2019-10-08T09:52:28.000Z</Time>
            <Position>
              <LatitudeDegrees>39.98234272934496402740478515625</LatitudeDegrees>
              <LongitudeDegrees>-6.15356214344501495361328125</LongitudeDegrees>
            </Position>
            <AltitudeMeters>293.20001220703125</AltitudeMeters>
            <DistanceMeters>NAN</DistanceMeters>
          </Trackpoint>
          <Trackpoint>
            <Time>2019-10-08T09:52:30.000Z</Time>
            <Position>
              <LatitudeDegrees>39.98229478485882282257080078125</LatitudeDegrees>
              <LongitudeDegrees>-6.15376523695886135101318359375</LongitudeDegrees>
            </Position>
            <AltitudeMeters>293.79998779296875</AltitudeMeters>
            <DistanceMeters>NAN</DistanceMeters>
          </Trackpoint>
          <Trackpoint>
            <Time>2019-10-08T09:52:33.000Z</Time>
            <Position>
              <LatitudeDegrees>39.98220384120941162109375</LatitudeDegrees>
              <LongitudeDegrees>-6.1540303565561771392822265625</LongitudeDegrees>
            </Position>
            <AltitudeMeters>294.79998779296875</AltitudeMeters>
            <DistanceMeters>NAN</DistanceMeters>
          </Trackpoint>
          <Trackpoint>
            <Time>2019-10-08T09:52:34.000Z</Time>
            <Position>
              <LatitudeDegrees>39.9821674637496471405029296875</LatitudeDegrees>
              <LongitudeDegrees>-6.1541061289608478546142578125</LongitudeDegrees>
            </Position>
            <AltitudeMeters>295.399993896484375</AltitudeMeters>
            <DistanceMeters>NAN</DistanceMeters>
          </Trackpoint>
          <Trackpoint>
            <Time>2019-10-08T09:52:38.000Z</Time>
            <Position>
              <LatitudeDegrees>39.98200460337102413177490234375</LatitudeDegrees>
              <LongitudeDegrees>-6.15436010062694549560546875</LongitudeDegrees>
            </Position>
            <AltitudeMeters>296.600006103515625</AltitudeMeters>
            <DistanceMeters>NAN</DistanceMeters>
          </Trackpoint>
          <Trackpoint>
            <Time>2019-10-08T09:52:41.000Z</Time>
            <Position>
              <LatitudeDegrees>39.981875605881214141845703125</LatitudeDegrees>
              <LongitudeDegrees>-6.15451072342693805694580078125</LongitudeDegrees>
            </Position>
            <AltitudeMeters>297.20001220703125</AltitudeMeters>
            <DistanceMeters>NAN</DistanceMeters>
          </Trackpoint>
          <Trackpoint>
            <Time>2019-10-08T09:52:43.000Z</Time>
            <Position>
              <LatitudeDegrees>39.98179052956402301788330078125</LatitudeDegrees>
              <LongitudeDegrees>-6.154591776430606842041015625</LongitudeDegrees>
            </Position>
            <AltitudeMeters>297.399993896484375</AltitudeMeters>
            <DistanceMeters>NAN</DistanceMeters>
          </Trackpoint>
          <Trackpoint>
            <Time>2019-10-08T09:52:44.000Z</Time>
            <Position>
              <LatitudeDegrees>39.9817440100014209747314453125</LatitudeDegrees>
              <LongitudeDegrees>-6.154626645147800445556640625</LongitudeDegrees>
            </Position>
            <AltitudeMeters>297.399993896484375</AltitudeMeters>
            <DistanceMeters>NAN</DistanceMeters>
          </Trackpoint>
          <Trackpoint>
            <Time>2019-10-08T09:52:46.000Z</Time>
            <Position>
              <LatitudeDegrees>39.98164870776236057281494140625</LatitudeDegrees>
              <LongitudeDegrees>-6.154697723686695098876953125</LongitudeDegrees>
            </Position>
            <AltitudeMeters>297.600006103515625</AltitudeMeters>
            <DistanceMeters>NAN</DistanceMeters>
          </Trackpoint>
          <Trackpoint>
            <Time>2019-10-08T09:52:49.000Z</Time>
            <Position>
              <LatitudeDegrees>39.98149448074400424957275390625</LatitudeDegrees>
              <LongitudeDegrees>-6.15477743558585643768310546875</LongitudeDegrees>
            </Position>
            <AltitudeMeters>297.79998779296875</AltitudeMeters>
            <DistanceMeters>NAN</DistanceMeters>
          </Trackpoint>
          <Trackpoint>
            <Time>2019-10-08T09:52:51.000Z</Time>
            <Position>
              <LatitudeDegrees>39.98138149268925189971923828125</LatitudeDegrees>
              <LongitudeDegrees>-6.15482169203460216522216796875</LongitudeDegrees>
            </Position>
            <AltitudeMeters>298.20001220703125</AltitudeMeters>
            <DistanceMeters>NAN</DistanceMeters>
          </Trackpoint>
          <Trackpoint>
            <Time>2019-10-08T09:52:53.000Z</Time>
            <Position>
              <LatitudeDegrees>39.98126883991062641143798828125</LatitudeDegrees>
              <LongitudeDegrees>-6.15485572256147861480712890625</LongitudeDegrees>
            </Position>
            <AltitudeMeters>298.79998779296875</AltitudeMeters>
            <DistanceMeters>NAN</DistanceMeters>
          </Trackpoint>
          <Trackpoint>
            <Time>2019-10-08T09:52:56.000Z</Time>
            <Position>
              <LatitudeDegrees>39.9810920655727386474609375</LatitudeDegrees>
              <LongitudeDegrees>-6.1548732407391071319580078125</LongitudeDegrees>
            </Position>
            <AltitudeMeters>299</AltitudeMeters>
            <DistanceMeters>NAN</DistanceMeters>
          </Trackpoint>
          <Trackpoint>
            <Time>2019-10-08T09:52:58.000Z</Time>
            <Position>
              <LatitudeDegrees>39.98097111470997333526611328125</LatitudeDegrees>
              <LongitudeDegrees>-6.1548732407391071319580078125</LongitudeDegrees>
            </Position>
            <AltitudeMeters>298.600006103515625</AltitudeMeters>
            <DistanceMeters>NAN</DistanceMeters>
          </Trackpoint>
          <Trackpoint>
            <Time>2019-10-08T09:52:59.000Z</Time>
            <Position>
              <LatitudeDegrees>39.9809108488261699676513671875</LatitudeDegrees>
              <LongitudeDegrees>-6.1548618413507938385009765625</LongitudeDegrees>
            </Position>
            <AltitudeMeters>298.399993896484375</AltitudeMeters>
            <DistanceMeters>NAN</DistanceMeters>
          </Trackpoint>
          <Trackpoint>
            <Time>2019-10-08T09:53:01.000Z</Time>
            <Position>
              <LatitudeDegrees>39.98078889213502407073974609375</LatitudeDegrees>
              <LongitudeDegrees>-6.1548252962529659271240234375</LongitudeDegrees>
            </Position>
            <AltitudeMeters>297.600006103515625</AltitudeMeters>
            <DistanceMeters>NAN</DistanceMeters>
          </Trackpoint>
          <Trackpoint>
            <Time>2019-10-08T09:53:02.000Z</Time>
            <Position>
              <LatitudeDegrees>39.98072569258511066436767578125</LatitudeDegrees>
              <LongitudeDegrees>-6.15481096319854259490966796875</LongitudeDegrees>
            </Position>
            <AltitudeMeters>297.399993896484375</AltitudeMeters>
            <DistanceMeters>NAN</DistanceMeters>
          </Trackpoint>
          <Trackpoint>
            <Time>2019-10-08T09:53:07.000Z</Time>
            <Position>
              <LatitudeDegrees>39.98042176477611064910888671875</LatitudeDegrees>
              <LongitudeDegrees>-6.15466042421758174896240234375</LongitudeDegrees>
            </Position>
            <AltitudeMeters>296.79998779296875</AltitudeMeters>
            <DistanceMeters>NAN</DistanceMeters>
          </Trackpoint>
          <Trackpoint>
            <Time>2019-10-08T09:53:08.000Z</Time>
            <Position>
              <LatitudeDegrees>39.9803636781871318817138671875</LatitudeDegrees>
              <LongitudeDegrees>-6.15461667068302631378173828125</LongitudeDegrees>
            </Position>
            <AltitudeMeters>296.399993896484375</AltitudeMeters>
            <DistanceMeters>NAN</DistanceMeters>
          </Trackpoint>
          <Trackpoint>
            <Time>2019-10-08T09:53:12.000Z</Time>
            <Position>
              <LatitudeDegrees>39.980158321559429168701171875</LatitudeDegrees>
              <LongitudeDegrees>-6.1544015072286128997802734375</LongitudeDegrees>
            </Position>
            <AltitudeMeters>295.399993896484375</AltitudeMeters>
            <DistanceMeters>NAN</DistanceMeters>
          </Trackpoint>
          <Trackpoint>
            <Time>2019-10-08T09:53:13.000Z</Time>
            <Position>
              <LatitudeDegrees>39.98011079616844654083251953125</LatitudeDegrees>
              <LongitudeDegrees>-6.15434124134480953216552734375</LongitudeDegrees>
            </Position>
            <AltitudeMeters>295.20001220703125</AltitudeMeters>
            <DistanceMeters>NAN</DistanceMeters>
          </Trackpoint>
          <Trackpoint>
            <Time>2019-10-08T09:53:18.000Z</Time>
            <Position>
              <LatitudeDegrees>39.9799251370131969451904296875</LatitudeDegrees>
              <LongitudeDegrees>-6.15398836322128772735595703125</LongitudeDegrees>
            </Position>
            <AltitudeMeters>294.79998779296875</AltitudeMeters>
            <DistanceMeters>NAN</DistanceMeters>
          </Trackpoint>
          <Trackpoint>
            <Time>2019-10-08T09:53:19.000Z</Time>
            <Position>
              <LatitudeDegrees>39.97989504598081111907958984375</LatitudeDegrees>
              <LongitudeDegrees>-6.15391560830175876617431640625</LongitudeDegrees>
            </Position>
            <AltitudeMeters>293.79998779296875</AltitudeMeters>
            <DistanceMeters>NAN</DistanceMeters>
          </Trackpoint>
          <Trackpoint>
            <Time>2019-10-08T09:53:20.000Z</Time>
            <Position>
              <LatitudeDegrees>39.9798731692135334014892578125</LatitudeDegrees>
              <LongitudeDegrees>-6.1538402549922466278076171875</LongitudeDegrees>
            </Position>
            <AltitudeMeters>293.600006103515625</AltitudeMeters>
            <DistanceMeters>NAN</DistanceMeters>
          </Trackpoint>
          <Trackpoint>
            <Time>2019-10-08T09:53:23.000Z</Time>
            <Position>
              <LatitudeDegrees>39.979816339910030364990234375</LatitudeDegrees>
              <LongitudeDegrees>-6.15359994582831859588623046875</LongitudeDegrees>
            </Position>
            <AltitudeMeters>293.399993896484375</AltitudeMeters>
            <DistanceMeters>NAN</DistanceMeters>
          </Trackpoint>
          <Trackpoint>
            <Time>2019-10-08T09:53:28.000Z</Time>
            <Position>
              <LatitudeDegrees>39.97978650033473968505859375</LatitudeDegrees>
              <LongitudeDegrees>-6.1532199941575527191162109375</LongitudeDegrees>
            </Position>
            <AltitudeMeters>294.79998779296875</AltitudeMeters>
            <DistanceMeters>NAN</DistanceMeters>
          </Trackpoint>
          <Trackpoint>
            <Time>2019-10-08T09:53:29.000Z</Time>
            <Position>
              <LatitudeDegrees>39.97978608123958110809326171875</LatitudeDegrees>
              <LongitudeDegrees>-6.1531519331037998199462890625</LongitudeDegrees>
            </Position>
            <AltitudeMeters>295</AltitudeMeters>
            <DistanceMeters>NAN</DistanceMeters>
          </Trackpoint>
          <Trackpoint>
            <Time>2019-10-08T09:53:32.000Z</Time>
            <Position>
              <LatitudeDegrees>39.9797938764095306396484375</LatitudeDegrees>
              <LongitudeDegrees>-6.1529611609876155853271484375</LongitudeDegrees>
            </Position>
            <AltitudeMeters>296.20001220703125</AltitudeMeters>
            <DistanceMeters>NAN</DistanceMeters>
          </Trackpoint>
          <Trackpoint>
            <Time>2019-10-08T09:53:34.000Z</Time>
            <Position>
              <LatitudeDegrees>39.9798087961971759796142578125</LatitudeDegrees>
              <LongitudeDegrees>-6.1528401263058185577392578125</LongitudeDegrees>
            </Position>
            <AltitudeMeters>296.399993896484375</AltitudeMeters>
            <DistanceMeters>NAN</DistanceMeters>
          </Trackpoint>
          <Trackpoint>
            <Time>2019-10-08T09:53:37.000Z</Time>
            <Position>
              <LatitudeDegrees>39.97978205792605876922607421875</LatitudeDegrees>
              <LongitudeDegrees>-6.15266536362469196319580078125</LongitudeDegrees>
            </Position>
            <AltitudeMeters>297.20001220703125</AltitudeMeters>
            <DistanceMeters>NAN</DistanceMeters>
          </Trackpoint>
          <Trackpoint>
            <Time>2019-10-08T09:53:38.000Z</Time>
            <Position>
              <LatitudeDegrees>39.9797554872930049896240234375</LatitudeDegrees>
              <LongitudeDegrees>-6.1526185087859630584716796875</LongitudeDegrees>
            </Position>
            <AltitudeMeters>297.600006103515625</AltitudeMeters>
            <DistanceMeters>NAN</DistanceMeters>
          </Trackpoint>
          <Trackpoint>
            <Time>2019-10-08T09:53:41.000Z</Time>
            <Position>
              <LatitudeDegrees>39.9796337820589542388916015625</LatitudeDegrees>
              <LongitudeDegrees>-6.1525363661348819732666015625</LongitudeDegrees>
            </Position>
            <AltitudeMeters>298.399993896484375</AltitudeMeters>
            <DistanceMeters>NAN</DistanceMeters>
          </Trackpoint>
          <Trackpoint>
            <Time>2019-10-08T09:53:44.000Z</Time>
            <Position>
              <LatitudeDegrees>39.979477040469646453857421875</LatitudeDegrees>
              <LongitudeDegrees>-6.1525242961943149566650390625</LongitudeDegrees>
            </Position>
            <AltitudeMeters>298.399993896484375</AltitudeMeters>
            <DistanceMeters>NAN</DistanceMeters>
          </Trackpoint>
          <Trackpoint>
            <Time>2019-10-08T09:53:45.000Z</Time>
            <Position>
              <LatitudeDegrees>39.97942348010838031768798828125</LatitudeDegrees>
              <LongitudeDegrees>-6.1525289900600910186767578125</LongitudeDegrees>
            </Position>
            <AltitudeMeters>298</AltitudeMeters>
            <DistanceMeters>NAN</DistanceMeters>
          </Trackpoint>
          <Trackpoint>
            <Time>2019-10-08T09:53:49.000Z</Time>
            <Position>
              <LatitudeDegrees>39.979186020791530609130859375</LatitudeDegrees>
              <LongitudeDegrees>-6.15255036391317844390869140625</LongitudeDegrees>
            </Position>
            <AltitudeMeters>297.20001220703125</AltitudeMeters>
            <DistanceMeters>NAN</DistanceMeters>
          </Trackpoint>
          <Trackpoint>
            <Time>2019-10-08T09:53:50.000Z</Time>
            <Position>
              <LatitudeDegrees>39.979118965566158294677734375</LatitudeDegrees>
              <LongitudeDegrees>-6.15255975164473056793212890625</LongitudeDegrees>
            </Position>
            <AltitudeMeters>296.399993896484375</AltitudeMeters>
            <DistanceMeters>NAN</DistanceMeters>
          </Trackpoint>
          <Trackpoint>
            <Time>2019-10-08T09:53:51.000Z</Time>
            <Position>
              <LatitudeDegrees>39.97904880903661251068115234375</LatitudeDegrees>
              <LongitudeDegrees>-6.15257249213755130767822265625</LongitudeDegrees>
            </Position>
            <AltitudeMeters>296</AltitudeMeters>
            <DistanceMeters>NAN</DistanceMeters>
          </Trackpoint>
          <Trackpoint>
            <Time>2019-10-08T09:53:53.000Z</Time>
            <Position>
              <LatitudeDegrees>39.97890212573111057281494140625</LatitudeDegrees>
              <LongitudeDegrees>-6.1526037566363811492919921875</LongitudeDegrees>
            </Position>
            <AltitudeMeters>294.600006103515625</AltitudeMeters>
            <DistanceMeters>NAN</DistanceMeters>
          </Trackpoint>
          <Trackpoint>
            <Time>2019-10-08T09:53:55.000Z</Time>
            <Position>
              <LatitudeDegrees>39.9787479825317859649658203125</LatitudeDegrees>
              <LongitudeDegrees>-6.15264390595257282257080078125</LongitudeDegrees>
            </Position>
            <AltitudeMeters>293.600006103515625</AltitudeMeters>
            <DistanceMeters>NAN</DistanceMeters>
          </Trackpoint>
          <Trackpoint>
            <Time>2019-10-08T09:53:56.000Z</Time>
            <Position>
              <LatitudeDegrees>39.97867204248905181884765625</LatitudeDegrees>
              <LongitudeDegrees>-6.15267299115657806396484375</LongitudeDegrees>
            </Position>
            <AltitudeMeters>293</AltitudeMeters>
            <DistanceMeters>NAN</DistanceMeters>
          </Trackpoint>
          <Trackpoint>
            <Time>2019-10-08T09:53:57.000Z</Time>
            <Position>
              <LatitudeDegrees>39.97859467752277851104736328125</LatitudeDegrees>
              <LongitudeDegrees>-6.15270559675991535186767578125</LongitudeDegrees>
            </Position>
            <AltitudeMeters>292.600006103515625</AltitudeMeters>
            <DistanceMeters>NAN</DistanceMeters>
          </Trackpoint>
          <Trackpoint>
            <Time>2019-10-08T09:54:03.000Z</Time>
            <Position>
              <LatitudeDegrees>39.9781307391822338104248046875</LatitudeDegrees>
              <LongitudeDegrees>-6.1529172398149967193603515625</LongitudeDegrees>
            </Position>
            <AltitudeMeters>291.79998779296875</AltitudeMeters>
            <DistanceMeters>NAN</DistanceMeters>
          </Trackpoint>
          <Trackpoint>
            <Time>2019-10-08T09:54:04.000Z</Time>
            <Position>
              <LatitudeDegrees>39.9780519492924213409423828125</LatitudeDegrees>
              <LongitudeDegrees>-6.15296065807342529296875</LongitudeDegrees>
            </Position>
            <AltitudeMeters>291.399993896484375</AltitudeMeters>
            <DistanceMeters>NAN</DistanceMeters>
          </Trackpoint>
          <Trackpoint>
            <Time>2019-10-08T09:54:10.000Z</Time>
            <Position>
              <LatitudeDegrees>39.97757376171648502349853515625</LatitudeDegrees>
              <LongitudeDegrees>-6.15327036939561367034912109375</LongitudeDegrees>
            </Position>
            <AltitudeMeters>289.600006103515625</AltitudeMeters>
            <DistanceMeters>NAN</DistanceMeters>
          </Trackpoint>
          <Trackpoint>
            <Time>2019-10-08T09:54:14.000Z</Time>
            <Position>
              <LatitudeDegrees>39.9772295169532299041748046875</LatitudeDegrees>
              <LongitudeDegrees>-6.1534955911338329315185546875</LongitudeDegrees>
            </Position>
            <AltitudeMeters>288</AltitudeMeters>
            <DistanceMeters>NAN</DistanceMeters>
          </Trackpoint>
          <Trackpoint>
            <Time>2019-10-08T09:54:16.000Z</Time>
            <Position>
              <LatitudeDegrees>39.9770501442253589630126953125</LatitudeDegrees>
              <LongitudeDegrees>-6.1536179669201374053955078125</LongitudeDegrees>
            </Position>
            <AltitudeMeters>286.399993896484375</AltitudeMeters>
            <DistanceMeters>NAN</DistanceMeters>
          </Trackpoint>
          <Trackpoint>
            <Time>2019-10-08T09:54:17.000Z</Time>
            <Position>
              <LatitudeDegrees>39.9769576080143451690673828125</LatitudeDegrees>
              <LongitudeDegrees>-6.1536799930036067962646484375</LongitudeDegrees>
            </Position>
            <AltitudeMeters>285.600006103515625</AltitudeMeters>
            <DistanceMeters>NAN</DistanceMeters>
          </Trackpoint>
          <Trackpoint>
            <Time>2019-10-08T09:54:18.000Z</Time>
            <Position>
              <LatitudeDegrees>39.97686297632753849029541015625</LatitudeDegrees>
              <LongitudeDegrees>-6.15374126471579074859619140625</LongitudeDegrees>
            </Position>
            <AltitudeMeters>284.399993896484375</AltitudeMeters>
            <DistanceMeters>NAN</DistanceMeters>
          </Trackpoint>
          <Trackpoint>
            <Time>2019-10-08T09:54:20.000Z</Time>
            <Position>
              <LatitudeDegrees>39.97667287476360797882080078125</LatitudeDegrees>
              <LongitudeDegrees>-6.15386347286403179168701171875</LongitudeDegrees>
            </Position>
            <AltitudeMeters>282.600006103515625</AltitudeMeters>
            <DistanceMeters>NAN</DistanceMeters>
          </Trackpoint>
          <Trackpoint>
            <Time>2019-10-08T09:54:22.000Z</Time>
            <Position>
              <LatitudeDegrees>39.9764774926006793975830078125</LatitudeDegrees>
              <LongitudeDegrees>-6.153988949954509735107421875</LongitudeDegrees>
            </Position>
            <AltitudeMeters>281.600006103515625</AltitudeMeters>
            <DistanceMeters>NAN</DistanceMeters>
          </Trackpoint>
          <Trackpoint>
            <Time>2019-10-08T09:54:24.000Z</Time>
            <Position>
              <LatitudeDegrees>39.9762810207903385162353515625</LatitudeDegrees>
              <LongitudeDegrees>-6.15411845035851001739501953125</LongitudeDegrees>
            </Position>
            <AltitudeMeters>280.20001220703125</AltitudeMeters>
            <DistanceMeters>NAN</DistanceMeters>
          </Trackpoint>
          <Trackpoint>
            <Time>2019-10-08T09:54:25.000Z</Time>
            <Position>
              <LatitudeDegrees>39.97618253342807292938232421875</LatitudeDegrees>
              <LongitudeDegrees>-6.15418441593647003173828125</LongitudeDegrees>
            </Position>
            <AltitudeMeters>279.79998779296875</AltitudeMeters>
            <DistanceMeters>NAN</DistanceMeters>
          </Trackpoint>
          <Trackpoint>
            <Time>2019-10-08T09:54:27.000Z</Time>
            <Position>
              <LatitudeDegrees>39.97598522342741489410400390625</LatitudeDegrees>
              <LongitudeDegrees>-6.154325567185878753662109375</LongitudeDegrees>
            </Position>
            <AltitudeMeters>278.600006103515625</AltitudeMeters>
            <DistanceMeters>NAN</DistanceMeters>
          </Trackpoint>
          <Trackpoint>
            <Time>2019-10-08T09:54:29.000Z</Time>
            <Position>
              <LatitudeDegrees>39.97579394839704036712646484375</LatitudeDegrees>
              <LongitudeDegrees>-6.15449077449738979339599609375</LongitudeDegrees>
            </Position>
            <AltitudeMeters>276.399993896484375</AltitudeMeters>
            <DistanceMeters>NAN</DistanceMeters>
          </Trackpoint>
          <Trackpoint>
            <Time>2019-10-08T09:54:30.000Z</Time>
            <Position>
              <LatitudeDegrees>39.97570493258535861968994140625</LatitudeDegrees>
              <LongitudeDegrees>-6.1545859090983867645263671875</LongitudeDegrees>
            </Position>
            <AltitudeMeters>276</AltitudeMeters>
            <DistanceMeters>NAN</DistanceMeters>
          </Trackpoint>
          <Trackpoint>
            <Time>2019-10-08T09:54:33.000Z</Time>
            <Position>
              <LatitudeDegrees>39.97544358484447002410888671875</LatitudeDegrees>
              <LongitudeDegrees>-6.15487575531005859375</LongitudeDegrees>
            </Position>
            <AltitudeMeters>275</AltitudeMeters>
            <DistanceMeters>NAN</DistanceMeters>
          </Trackpoint>
          <Trackpoint>
            <Time>2019-10-08T09:54:34.000Z</Time>
            <Position>
              <LatitudeDegrees>39.9753596819937229156494140625</LatitudeDegrees>
              <LongitudeDegrees>-6.15497156046330928802490234375</LongitudeDegrees>
            </Position>
            <AltitudeMeters>274.79998779296875</AltitudeMeters>
            <DistanceMeters>NAN</DistanceMeters>
          </Trackpoint>
          <Trackpoint>
            <Time>2019-10-08T09:54:36.000Z</Time>
            <Position>
              <LatitudeDegrees>39.9751943908631801605224609375</LatitudeDegrees>
              <LongitudeDegrees>-6.155159063637256622314453125</LongitudeDegrees>
            </Position>
            <AltitudeMeters>275.79998779296875</AltitudeMeters>
            <DistanceMeters>NAN</DistanceMeters>
          </Trackpoint>
          <Trackpoint>
            <Time>2019-10-08T09:54:37.000Z</Time>
            <Position>
              <LatitudeDegrees>39.97511350549757480621337890625</LatitudeDegrees>
              <LongitudeDegrees>-6.15525285713374614715576171875</LongitudeDegrees>
            </Position>
            <AltitudeMeters>275.79998779296875</AltitudeMeters>
            <DistanceMeters>NAN</DistanceMeters>
          </Trackpoint>
          <Trackpoint>
            <Time>2019-10-08T09:54:38.000Z</Time>
            <Position>
              <LatitudeDegrees>39.9750329554080963134765625</LatitudeDegrees>
              <LongitudeDegrees>-6.15534313023090362548828125</LongitudeDegrees>
            </Position>
            <AltitudeMeters>275.600006103515625</AltitudeMeters>
            <DistanceMeters>NAN</DistanceMeters>
          </Trackpoint>
          <Trackpoint>
            <Time>2019-10-08T09:54:40.000Z</Time>
            <Position>
              <LatitudeDegrees>39.97487537562847137451171875</LatitudeDegrees>
              <LongitudeDegrees>-6.15551822818815708160400390625</LongitudeDegrees>
            </Position>
            <AltitudeMeters>275</AltitudeMeters>
            <DistanceMeters>NAN</DistanceMeters>
          </Trackpoint>
          <Trackpoint>
            <Time>2019-10-08T09:54:42.000Z</Time>
            <Position>
              <LatitudeDegrees>39.9747189693152904510498046875</LatitudeDegrees>
              <LongitudeDegrees>-6.15567932836711406707763671875</LongitudeDegrees>
            </Position>
            <AltitudeMeters>275</AltitudeMeters>
            <DistanceMeters>NAN</DistanceMeters>
          </Trackpoint>
          <Trackpoint>
            <Time>2019-10-08T09:54:44.000Z</Time>
            <Position>
              <LatitudeDegrees>39.9745694361627101898193359375</LatitudeDegrees>
              <LongitudeDegrees>-6.15582718513906002044677734375</LongitudeDegrees>
            </Position>
            <AltitudeMeters>275.399993896484375</AltitudeMeters>
            <DistanceMeters>NAN</DistanceMeters>
          </Trackpoint>
          <Trackpoint>
            <Time>2019-10-08T09:54:50.000Z</Time>
            <Position>
              <LatitudeDegrees>39.97412377037107944488525390625</LatitudeDegrees>
              <LongitudeDegrees>-6.1562193743884563446044921875</LongitudeDegrees>
            </Position>
            <AltitudeMeters>276</AltitudeMeters>
            <DistanceMeters>NAN</DistanceMeters>
          </Trackpoint>
          <Trackpoint>
            <Time>2019-10-08T09:54:51.000Z</Time>
            <Position>
              <LatitudeDegrees>39.9740504287183284759521484375</LatitudeDegrees>
              <LongitudeDegrees>-6.15627829916775226593017578125</LongitudeDegrees>
            </Position>
            <AltitudeMeters>276.20001220703125</AltitudeMeters>
            <DistanceMeters>NAN</DistanceMeters>
          </Trackpoint>
          <Trackpoint>
            <Time>2019-10-08T09:54:54.000Z</Time>
            <Position>
              <LatitudeDegrees>39.97383526526391506195068359375</LatitudeDegrees>
              <LongitudeDegrees>-6.1564453504979610443115234375</LongitudeDegrees>
            </Position>
            <AltitudeMeters>275.600006103515625</AltitudeMeters>
            <DistanceMeters>NAN</DistanceMeters>
          </Trackpoint>
          <Trackpoint>
            <Time>2019-10-08T09:54:58.000Z</Time>
            <Position>
              <LatitudeDegrees>39.97356000356376171112060546875</LatitudeDegrees>
              <LongitudeDegrees>-6.15666009485721588134765625</LongitudeDegrees>
            </Position>
            <AltitudeMeters>275.600006103515625</AltitudeMeters>
            <DistanceMeters>NAN</DistanceMeters>
          </Trackpoint>
          <Trackpoint>
            <Time>2019-10-08T09:55:05.000Z</Time>
            <Position>
              <LatitudeDegrees>39.97307720594108104705810546875</LatitudeDegrees>
              <LongitudeDegrees>-6.1570347659289836883544921875</LongitudeDegrees>
            </Position>
            <AltitudeMeters>276</AltitudeMeters>
            <DistanceMeters>NAN</DistanceMeters>
          </Trackpoint>
          <Trackpoint>
            <Time>2019-10-08T09:55:07.000Z</Time>
            <Position>
              <LatitudeDegrees>39.972942173480987548828125</LatitudeDegrees>
              <LongitudeDegrees>-6.1571474187076091766357421875</LongitudeDegrees>
            </Position>
            <AltitudeMeters>276</AltitudeMeters>
            <DistanceMeters>NAN</DistanceMeters>
          </Trackpoint>
          <Trackpoint>
            <Time>2019-10-08T09:55:10.000Z</Time>
            <Position>
              <LatitudeDegrees>39.97274377383291721343994140625</LatitudeDegrees>
              <LongitudeDegrees>-6.1573110334575176239013671875</LongitudeDegrees>
            </Position>
            <AltitudeMeters>276</AltitudeMeters>
            <DistanceMeters>NAN</DistanceMeters>
          </Trackpoint>
          <Trackpoint>
            <Time>2019-10-08T09:55:15.000Z</Time>
            <Position>
              <LatitudeDegrees>39.9724280275404453277587890625</LatitudeDegrees>
              <LongitudeDegrees>-6.1575968563556671142578125</LongitudeDegrees>
            </Position>
            <AltitudeMeters>276.600006103515625</AltitudeMeters>
            <DistanceMeters>NAN</DistanceMeters>
          </Trackpoint>
          <Trackpoint>
            <Time>2019-10-08T09:55:19.000Z</Time>
            <Position>
              <LatitudeDegrees>39.97219291515648365020751953125</LatitudeDegrees>
              <LongitudeDegrees>-6.1578343994915485382080078125</LongitudeDegrees>
            </Position>
            <AltitudeMeters>276.79998779296875</AltitudeMeters>
            <DistanceMeters>NAN</DistanceMeters>
          </Trackpoint>
          <Trackpoint>
            <Time>2019-10-08T09:55:23.000Z</Time>
            <Position>
              <LatitudeDegrees>39.97196543030440807342529296875</LatitudeDegrees>
              <LongitudeDegrees>-6.15807085298001766204833984375</LongitudeDegrees>
            </Position>
            <AltitudeMeters>277.20001220703125</AltitudeMeters>
            <DistanceMeters>NAN</DistanceMeters>
          </Trackpoint>
          <Trackpoint>
            <Time>2019-10-08T09:55:27.000Z</Time>
            <Position>
              <LatitudeDegrees>39.97175051830708980560302734375</LatitudeDegrees>
              <LongitudeDegrees>-6.15830655209720134735107421875</LongitudeDegrees>
            </Position>
            <AltitudeMeters>277.79998779296875</AltitudeMeters>
            <DistanceMeters>NAN</DistanceMeters>
          </Trackpoint>
          <Trackpoint>
            <Time>2019-10-08T09:55:30.000Z</Time>
            <Position>
              <LatitudeDegrees>39.97159210033714771270751953125</LatitudeDegrees>
              <LongitudeDegrees>-6.15848022513091564178466796875</LongitudeDegrees>
            </Position>
            <AltitudeMeters>278.20001220703125</AltitudeMeters>
            <DistanceMeters>NAN</DistanceMeters>
          </Trackpoint>
          <Trackpoint>
            <Time>2019-10-08T09:55:37.000Z</Time>
            <Position>
              <LatitudeDegrees>39.97122681699693202972412109375</LatitudeDegrees>
              <LongitudeDegrees>-6.15888641215860843658447265625</LongitudeDegrees>
            </Position>
            <AltitudeMeters>278.20001220703125</AltitudeMeters>
            <DistanceMeters>NAN</DistanceMeters>
          </Trackpoint>
          <Trackpoint>
            <Time>2019-10-08T09:55:45.000Z</Time>
            <Position>
              <LatitudeDegrees>39.97080235742032527923583984375</LatitudeDegrees>
              <LongitudeDegrees>-6.15935881622135639190673828125</LongitudeDegrees>
            </Position>
            <AltitudeMeters>278</AltitudeMeters>
            <DistanceMeters>NAN</DistanceMeters>
          </Trackpoint>
          <Trackpoint>
            <Time>2019-10-08T09:55:46.000Z</Time>
            <Position>
              <LatitudeDegrees>39.97074745595455169677734375</LatitudeDegrees>
              <LongitudeDegrees>-6.15942008793354034423828125</LongitudeDegrees>
            </Position>
            <AltitudeMeters>277.79998779296875</AltitudeMeters>
            <DistanceMeters>NAN</DistanceMeters>
          </Trackpoint>
          <Trackpoint>
            <Time>2019-10-08T09:55:47.000Z</Time>
            <Position>
              <LatitudeDegrees>39.970691464841365814208984375</LatitudeDegrees>
              <LongitudeDegrees>-6.1594802699983119964599609375</LongitudeDegrees>
            </Position>
            <AltitudeMeters>277.20001220703125</AltitudeMeters>
            <DistanceMeters>NAN</DistanceMeters>
          </Trackpoint>
          <Trackpoint>
            <Time>2019-10-08T09:55:55.000Z</Time>
            <Position>
              <LatitudeDegrees>39.97024546377360820770263671875</LatitudeDegrees>
              <LongitudeDegrees>-6.159963570535182952880859375</LongitudeDegrees>
            </Position>
            <AltitudeMeters>276.600006103515625</AltitudeMeters>
            <DistanceMeters>NAN</DistanceMeters>
          </Trackpoint>
          <Trackpoint>
            <Time>2019-10-08T09:55:56.000Z</Time>
            <Position>
              <LatitudeDegrees>39.97018829919397830963134765625</LatitudeDegrees>
              <LongitudeDegrees>-6.16002718918025493621826171875</LongitudeDegrees>
            </Position>
            <AltitudeMeters>276.20001220703125</AltitudeMeters>
            <DistanceMeters>NAN</DistanceMeters>
          </Trackpoint>
          <Trackpoint>
            <Time>2019-10-08T09:56:02.000Z</Time>
            <Position>
              <LatitudeDegrees>39.96983542107045650482177734375</LatitudeDegrees>
              <LongitudeDegrees>-6.160419546067714691162109375</LongitudeDegrees>
            </Position>
            <AltitudeMeters>276.20001220703125</AltitudeMeters>
            <DistanceMeters>NAN</DistanceMeters>
          </Trackpoint>
          <Trackpoint>
            <Time>2019-10-08T09:56:06.000Z</Time>
            <Position>
              <LatitudeDegrees>39.9695961177349090576171875</LatitudeDegrees>
              <LongitudeDegrees>-6.16068542003631591796875</LongitudeDegrees>
            </Position>
            <AltitudeMeters>275.600006103515625</AltitudeMeters>
            <DistanceMeters>NAN</DistanceMeters>
          </Trackpoint>
          <Trackpoint>
            <Time>2019-10-08T09:56:13.000Z</Time>
            <Position>
              <LatitudeDegrees>39.96918431483209133148193359375</LatitudeDegrees>
              <LongitudeDegrees>-6.1611475981771945953369140625</LongitudeDegrees>
            </Position>
            <AltitudeMeters>276.20001220703125</AltitudeMeters>
            <DistanceMeters>NAN</DistanceMeters>
          </Trackpoint>
          <Trackpoint>
            <Time>2019-10-08T09:56:14.000Z</Time>
            <Position>
              <LatitudeDegrees>39.96912631206214427947998046875</LatitudeDegrees>
              <LongitudeDegrees>-6.1612146534025669097900390625</LongitudeDegrees>
            </Position>
            <AltitudeMeters>275.600006103515625</AltitudeMeters>
            <DistanceMeters>NAN</DistanceMeters>
          </Trackpoint>
          <Trackpoint>
            <Time>2019-10-08T09:56:17.000Z</Time>
            <Position>
              <LatitudeDegrees>39.968951046466827392578125</LatitudeDegrees>
              <LongitudeDegrees>-6.1614091135561466217041015625</LongitudeDegrees>
            </Position>
            <AltitudeMeters>275.399993896484375</AltitudeMeters>
            <DistanceMeters>NAN</DistanceMeters>
          </Trackpoint>
          <Trackpoint>
            <Time>2019-10-08T09:56:18.000Z</Time>
            <Position>
              <LatitudeDegrees>39.96889463625848293304443359375</LatitudeDegrees>
              <LongitudeDegrees>-6.1614734865725040435791015625</LongitudeDegrees>
            </Position>
            <AltitudeMeters>274.20001220703125</AltitudeMeters>
            <DistanceMeters>NAN</DistanceMeters>
          </Trackpoint>
          <Trackpoint>
            <Time>2019-10-08T09:56:23.000Z</Time>
            <Position>
              <LatitudeDegrees>39.96861065737903118133544921875</LatitudeDegrees>
              <LongitudeDegrees>-6.16178755648434162139892578125</LongitudeDegrees>
            </Position>
            <AltitudeMeters>274.399993896484375</AltitudeMeters>
            <DistanceMeters>NAN</DistanceMeters>
          </Trackpoint>
          <Trackpoint>
            <Time>2019-10-08T09:56:27.000Z</Time>
            <Position>
              <LatitudeDegrees>39.9683785624802112579345703125</LatitudeDegrees>
              <LongitudeDegrees>-6.16204035468399524688720703125</LongitudeDegrees>
            </Position>
            <AltitudeMeters>274</AltitudeMeters>
            <DistanceMeters>NAN</DistanceMeters>
          </Trackpoint>
          <Trackpoint>
            <Time>2019-10-08T09:56:33.000Z</Time>
            <Position>
              <LatitudeDegrees>39.9680292047560214996337890625</LatitudeDegrees>
              <LongitudeDegrees>-6.162431873381137847900390625</LongitudeDegrees>
            </Position>
            <AltitudeMeters>273.600006103515625</AltitudeMeters>
            <DistanceMeters>NAN</DistanceMeters>
          </Trackpoint>
          <Trackpoint>
            <Time>2019-10-08T09:56:37.000Z</Time>
            <Position>
              <LatitudeDegrees>39.9677938409149646759033203125</LatitudeDegrees>
              <LongitudeDegrees>-6.1626878567039966583251953125</LongitudeDegrees>
            </Position>
            <AltitudeMeters>273</AltitudeMeters>
            <DistanceMeters>NAN</DistanceMeters>
          </Trackpoint>
          <Trackpoint>
            <Time>2019-10-08T09:56:44.000Z</Time>
            <Position>
              <LatitudeDegrees>39.9673898331820964813232421875</LatitudeDegrees>
              <LongitudeDegrees>-6.16313771344721317291259765625</LongitudeDegrees>
            </Position>
            <AltitudeMeters>272.399993896484375</AltitudeMeters>
            <DistanceMeters>NAN</DistanceMeters>
          </Trackpoint>
          <Trackpoint>
            <Time>2019-10-08T09:56:48.000Z</Time>
            <Position>
              <LatitudeDegrees>39.9671633541584014892578125</LatitudeDegrees>
              <LongitudeDegrees>-6.163394115865230560302734375</LongitudeDegrees>
            </Position>
            <AltitudeMeters>272</AltitudeMeters>
            <DistanceMeters>NAN</DistanceMeters>
          </Trackpoint>
          <Trackpoint>
            <Time>2019-10-08T09:56:52.000Z</Time>
            <Position>
              <LatitudeDegrees>39.966937713325023651123046875</LatitudeDegrees>
              <LongitudeDegrees>-6.163644231855869293212890625</LongitudeDegrees>
            </Position>
            <AltitudeMeters>272</AltitudeMeters>
            <DistanceMeters>NAN</DistanceMeters>
          </Trackpoint>
          <Trackpoint>
            <Time>2019-10-08T09:56:59.000Z</Time>
            <Position>
              <LatitudeDegrees>39.966542087495326995849609375</LatitudeDegrees>
              <LongitudeDegrees>-6.1640839464962482452392578125</LongitudeDegrees>
            </Position>
            <AltitudeMeters>271.79998779296875</AltitudeMeters>
            <DistanceMeters>NAN</DistanceMeters>
          </Trackpoint>
          <Trackpoint>
            <Time>2019-10-08T09:57:00.000Z</Time>
            <Position>
              <LatitudeDegrees>39.96648651547729969024658203125</LatitudeDegrees>
              <LongitudeDegrees>-6.16414840333163738250732421875</LongitudeDegrees>
            </Position>
            <AltitudeMeters>271.600006103515625</AltitudeMeters>
            <DistanceMeters>NAN</DistanceMeters>
          </Trackpoint>
          <Trackpoint>
            <Time>2019-10-08T09:57:05.000Z</Time>
            <Position>
              <LatitudeDegrees>39.96620924212038516998291015625</LatitudeDegrees>
              <LongitudeDegrees>-6.1644738726317882537841796875</LongitudeDegrees>
            </Position>
            <AltitudeMeters>271</AltitudeMeters>
            <DistanceMeters>NAN</DistanceMeters>
          </Trackpoint>
          <Trackpoint>
            <Time>2019-10-08T09:57:10.000Z</Time>
            <Position>
              <LatitudeDegrees>39.96592819690704345703125</LatitudeDegrees>
              <LongitudeDegrees>-6.1648057959973812103271484375</LongitudeDegrees>
            </Position>
            <AltitudeMeters>271</AltitudeMeters>
            <DistanceMeters>NAN</DistanceMeters>
          </Trackpoint>
          <Trackpoint>
            <Time>2019-10-08T09:57:16.000Z</Time>
            <Position>
              <LatitudeDegrees>39.9655853770673274993896484375</LatitudeDegrees>
              <LongitudeDegrees>-6.1652134917676448822021484375</LongitudeDegrees>
            </Position>
            <AltitudeMeters>270</AltitudeMeters>
            <DistanceMeters>NAN</DistanceMeters>
          </Trackpoint>
          <Trackpoint>
            <Time>2019-10-08T09:57:18.000Z</Time>
            <Position>
              <LatitudeDegrees>39.9654740653932094573974609375</LatitudeDegrees>
              <LongitudeDegrees>-6.16534684784710407257080078125</LongitudeDegrees>
            </Position>
            <AltitudeMeters>269.79998779296875</AltitudeMeters>
            <DistanceMeters>NAN</DistanceMeters>
          </Trackpoint>
          <Trackpoint>
            <Time>2019-10-08T09:57:25.000Z</Time>
            <Position>
              <LatitudeDegrees>39.96508137322962284088134765625</LatitudeDegrees>
              <LongitudeDegrees>-6.1658283881843090057373046875</LongitudeDegrees>
            </Position>
            <AltitudeMeters>270</AltitudeMeters>
            <DistanceMeters>NAN</DistanceMeters>
          </Trackpoint>
          <Trackpoint>
            <Time>2019-10-08T09:57:28.000Z</Time>
            <Position>
              <LatitudeDegrees>39.9649064429104328155517578125</LatitudeDegrees>
              <LongitudeDegrees>-6.16604237817227840423583984375</LongitudeDegrees>
            </Position>
            <AltitudeMeters>270</AltitudeMeters>
            <DistanceMeters>NAN</DistanceMeters>
          </Trackpoint>
          <Trackpoint>
            <Time>2019-10-08T09:57:33.000Z</Time>
            <Position>
              <LatitudeDegrees>39.96460528112947940826416015625</LatitudeDegrees>
              <LongitudeDegrees>-6.16641436703503131866455078125</LongitudeDegrees>
            </Position>
            <AltitudeMeters>268.79998779296875</AltitudeMeters>
            <DistanceMeters>NAN</DistanceMeters>
          </Trackpoint>
          <Trackpoint>
            <Time>2019-10-08T09:57:37.000Z</Time>
            <Position>
              <LatitudeDegrees>39.96436002664268016815185546875</LatitudeDegrees>
              <LongitudeDegrees>-6.1667098291218280792236328125</LongitudeDegrees>
            </Position>
            <AltitudeMeters>267.79998779296875</AltitudeMeters>
            <DistanceMeters>NAN</DistanceMeters>
          </Trackpoint>
          <Trackpoint>
            <Time>2019-10-08T09:57:39.000Z</Time>
            <Position>
              <LatitudeDegrees>39.9642409197986125946044921875</LatitudeDegrees>
              <LongitudeDegrees>-6.166863553225994110107421875</LongitudeDegrees>
            </Position>
            <AltitudeMeters>268</AltitudeMeters>
            <DistanceMeters>NAN</DistanceMeters>
          </Trackpoint>
          <Trackpoint>
            <Time>2019-10-08T09:57:46.000Z</Time>
            <Position>
              <LatitudeDegrees>39.963818304240703582763671875</LatitudeDegrees>
              <LongitudeDegrees>-6.1673896014690399169921875</LongitudeDegrees>
            </Position>
            <AltitudeMeters>267</AltitudeMeters>
            <DistanceMeters>NAN</DistanceMeters>
          </Trackpoint>
          <Trackpoint>
            <Time>2019-10-08T09:57:48.000Z</Time>
            <Position>
              <LatitudeDegrees>39.9637001194059848785400390625</LatitudeDegrees>
              <LongitudeDegrees>-6.16753645241260528564453125</LongitudeDegrees>
            </Position>
            <AltitudeMeters>266.399993896484375</AltitudeMeters>
            <DistanceMeters>NAN</DistanceMeters>
          </Trackpoint>
          <Trackpoint>
            <Time>2019-10-08T09:57:55.000Z</Time>
            <Position>
              <LatitudeDegrees>39.96329359710216522216796875</LatitudeDegrees>
              <LongitudeDegrees>-6.1680324934422969818115234375</LongitudeDegrees>
            </Position>
            <AltitudeMeters>267</AltitudeMeters>
            <DistanceMeters>NAN</DistanceMeters>
          </Trackpoint>
          <Trackpoint>
            <Time>2019-10-08T09:57:57.000Z</Time>
            <Position>
              <LatitudeDegrees>39.96318086050450801849365234375</LatitudeDegrees>
              <LongitudeDegrees>-6.16817154921591281890869140625</LongitudeDegrees>
            </Position>
            <AltitudeMeters>267.399993896484375</AltitudeMeters>
            <DistanceMeters>NAN</DistanceMeters>
          </Trackpoint>
          <Trackpoint>
            <Time>2019-10-08T09:58:04.000Z</Time>
            <Position>
              <LatitudeDegrees>39.96279294602572917938232421875</LatitudeDegrees>
              <LongitudeDegrees>-6.16864881478250026702880859375</LongitudeDegrees>
            </Position>
            <AltitudeMeters>267.20001220703125</AltitudeMeters>
            <DistanceMeters>NAN</DistanceMeters>
          </Trackpoint>
          <Trackpoint>
            <Time>2019-10-08T09:58:05.000Z</Time>
            <Position>
              <LatitudeDegrees>39.96273863129317760467529296875</LatitudeDegrees>
              <LongitudeDegrees>-6.1687151156365871429443359375</LongitudeDegrees>
            </Position>
            <AltitudeMeters>267.20001220703125</AltitudeMeters>
            <DistanceMeters>NAN</DistanceMeters>
          </Trackpoint>
          <Trackpoint>
            <Time>2019-10-08T09:58:08.000Z</Time>
            <Position>
              <LatitudeDegrees>39.962578117847442626953125</LatitudeDegrees>
              <LongitudeDegrees>-6.16891385056078433990478515625</LongitudeDegrees>
            </Position>
            <AltitudeMeters>267.20001220703125</AltitudeMeters>
            <DistanceMeters>NAN</DistanceMeters>
          </Trackpoint>
          <Trackpoint>
            <Time>2019-10-08T09:58:11.000Z</Time>
            <Position>
              <LatitudeDegrees>39.9624212086200714111328125</LatitudeDegrees>
              <LongitudeDegrees>-6.16910646669566631317138671875</LongitudeDegrees>
            </Position>
            <AltitudeMeters>267.399993896484375</AltitudeMeters>
            <DistanceMeters>NAN</DistanceMeters>
          </Trackpoint>
          <Trackpoint>
            <Time>2019-10-08T09:58:13.000Z</Time>
            <Position>
              <LatitudeDegrees>39.96232171542942523956298828125</LatitudeDegrees>
              <LongitudeDegrees>-6.1692317761480808258056640625</LongitudeDegrees>
            </Position>
            <AltitudeMeters>267.600006103515625</AltitudeMeters>
            <DistanceMeters>NAN</DistanceMeters>
          </Trackpoint>
          <Trackpoint>
            <Time>2019-10-08T09:58:17.000Z</Time>
            <Position>
              <LatitudeDegrees>39.96211686171591281890869140625</LatitudeDegrees>
              <LongitudeDegrees>-6.1694875918328762054443359375</LongitudeDegrees>
            </Position>
            <AltitudeMeters>267.600006103515625</AltitudeMeters>
            <DistanceMeters>NAN</DistanceMeters>
          </Trackpoint>
          <Trackpoint>
            <Time>2019-10-08T09:58:21.000Z</Time>
            <Position>
              <LatitudeDegrees>39.96191091835498809814453125</LatitudeDegrees>
              <LongitudeDegrees>-6.16973309777677059173583984375</LongitudeDegrees>
            </Position>
            <AltitudeMeters>268</AltitudeMeters>
            <DistanceMeters>NAN</DistanceMeters>
          </Trackpoint>
          <Trackpoint>
            <Time>2019-10-08T09:58:26.000Z</Time>
            <Position>
              <LatitudeDegrees>39.96165208518505096435546875</LatitudeDegrees>
              <LongitudeDegrees>-6.17005144245922565460205078125</LongitudeDegrees>
            </Position>
            <AltitudeMeters>268</AltitudeMeters>
            <DistanceMeters>NAN</DistanceMeters>
          </Trackpoint>
          <Trackpoint>
            <Time>2019-10-08T09:58:33.000Z</Time>
            <Position>
              <LatitudeDegrees>39.9612750671803951263427734375</LatitudeDegrees>
              <LongitudeDegrees>-6.17052040994167327880859375</LongitudeDegrees>
            </Position>
            <AltitudeMeters>267.600006103515625</AltitudeMeters>
            <DistanceMeters>NAN</DistanceMeters>
          </Trackpoint>
          <Trackpoint>
            <Time>2019-10-08T09:58:34.000Z</Time>
            <Position>
              <LatitudeDegrees>39.96121781878173351287841796875</LatitudeDegrees>
              <LongitudeDegrees>-6.17059140466153621673583984375</LongitudeDegrees>
            </Position>
            <AltitudeMeters>267.20001220703125</AltitudeMeters>
            <DistanceMeters>NAN</DistanceMeters>
          </Trackpoint>
          <Trackpoint>
            <Time>2019-10-08T09:58:36.000Z</Time>
            <Position>
              <LatitudeDegrees>39.9611020646989345550537109375</LatitudeDegrees>
              <LongitudeDegrees>-6.17073775269091129302978515625</LongitudeDegrees>
            </Position>
            <AltitudeMeters>266.399993896484375</AltitudeMeters>
            <DistanceMeters>NAN</DistanceMeters>
          </Trackpoint>
          <Trackpoint>
            <Time>2019-10-08T09:58:38.000Z</Time>
            <Position>
              <LatitudeDegrees>39.9609860591590404510498046875</LatitudeDegrees>
              <LongitudeDegrees>-6.17089130915701389312744140625</LongitudeDegrees>
            </Position>
            <AltitudeMeters>265</AltitudeMeters>
            <DistanceMeters>NAN</DistanceMeters>
          </Trackpoint>
          <Trackpoint>
            <Time>2019-10-08T09:58:42.000Z</Time>
            <Position>
              <LatitudeDegrees>39.9607382901012897491455078125</LatitudeDegrees>
              <LongitudeDegrees>-6.1712139286100864410400390625</LongitudeDegrees>
            </Position>
            <AltitudeMeters>263.600006103515625</AltitudeMeters>
            <DistanceMeters>NAN</DistanceMeters>
          </Trackpoint>
          <Trackpoint>
            <Time>2019-10-08T09:58:45.000Z</Time>
            <Position>
              <LatitudeDegrees>39.96054567396640777587890625</LatitudeDegrees>
              <LongitudeDegrees>-6.17147837765514850616455078125</LongitudeDegrees>
            </Position>
            <AltitudeMeters>261.79998779296875</AltitudeMeters>
            <DistanceMeters>NAN</DistanceMeters>
          </Trackpoint>
          <Trackpoint>
            <Time>2019-10-08T09:58:46.000Z</Time>
            <Position>
              <LatitudeDegrees>39.960478954017162322998046875</LatitudeDegrees>
              <LongitudeDegrees>-6.1715696565806865692138671875</LongitudeDegrees>
            </Position>
            <AltitudeMeters>260.79998779296875</AltitudeMeters>
            <DistanceMeters>NAN</DistanceMeters>
          </Trackpoint>
          <Trackpoint>
            <Time>2019-10-08T09:58:47.000Z</Time>
            <Position>
              <LatitudeDegrees>39.96041164733469486236572265625</LatitudeDegrees>
              <LongitudeDegrees>-6.1716608516871929168701171875</LongitudeDegrees>
            </Position>
            <AltitudeMeters>259.600006103515625</AltitudeMeters>
            <DistanceMeters>NAN</DistanceMeters>
          </Trackpoint>
          <Trackpoint>
            <Time>2019-10-08T09:58:50.000Z</Time>
            <Position>
              <LatitudeDegrees>39.960208050906658172607421875</LatitudeDegrees>
              <LongitudeDegrees>-6.171934939920902252197265625</LongitudeDegrees>
            </Position>
            <AltitudeMeters>259.20001220703125</AltitudeMeters>
            <DistanceMeters>NAN</DistanceMeters>
          </Trackpoint>
          <Trackpoint>
            <Time>2019-10-08T09:58:51.000Z</Time>
            <Position>
              <LatitudeDegrees>39.96014275588095188140869140625</LatitudeDegrees>
              <LongitudeDegrees>-6.17203091271221637725830078125</LongitudeDegrees>
            </Position>
            <AltitudeMeters>258</AltitudeMeters>
            <DistanceMeters>NAN</DistanceMeters>
          </Trackpoint>
          <Trackpoint>
            <Time>2019-10-08T09:58:52.000Z</Time>
            <Position>
              <LatitudeDegrees>39.960075281560420989990234375</LatitudeDegrees>
              <LongitudeDegrees>-6.17212277837097644805908203125</LongitudeDegrees>
            </Position>
            <AltitudeMeters>257.79998779296875</AltitudeMeters>
            <DistanceMeters>NAN</DistanceMeters>
          </Trackpoint>
          <Trackpoint>
            <Time>2019-10-08T09:58:53.000Z</Time>
            <Position>
              <LatitudeDegrees>39.9600099027156829833984375</LatitudeDegrees>
              <LongitudeDegrees>-6.17221397347748279571533203125</LongitudeDegrees>
            </Position>
            <AltitudeMeters>257.79998779296875</AltitudeMeters>
            <DistanceMeters>NAN</DistanceMeters>
          </Trackpoint>
          <Trackpoint>
            <Time>2019-10-08T09:58:54.000Z</Time>
            <Position>
              <LatitudeDegrees>39.95994293130934238433837890625</LatitudeDegrees>
              <LongitudeDegrees>-6.17230500094592571258544921875</LongitudeDegrees>
            </Position>
            <AltitudeMeters>258.600006103515625</AltitudeMeters>
            <DistanceMeters>NAN</DistanceMeters>
          </Trackpoint>
          <Trackpoint>
            <Time>2019-10-08T09:58:55.000Z</Time>
            <Position>
              <LatitudeDegrees>39.959878139197826385498046875</LatitudeDegrees>
              <LongitudeDegrees>-6.1723964475095272064208984375</LongitudeDegrees>
            </Position>
            <AltitudeMeters>258.20001220703125</AltitudeMeters>
            <DistanceMeters>NAN</DistanceMeters>
          </Trackpoint>
          <Trackpoint>
            <Time>2019-10-08T09:58:56.000Z</Time>
            <Position>
              <LatitudeDegrees>39.95981276035308837890625</LatitudeDegrees>
              <LongitudeDegrees>-6.17248739115893840789794921875</LongitudeDegrees>
            </Position>
            <AltitudeMeters>257.600006103515625</AltitudeMeters>
            <DistanceMeters>NAN</DistanceMeters>
          </Trackpoint>
          <Trackpoint>
            <Time>2019-10-08T09:58:57.000Z</Time>
            <Position>
              <LatitudeDegrees>39.95974914170801639556884765625</LatitudeDegrees>
              <LongitudeDegrees>-6.17257741279900074005126953125</LongitudeDegrees>
            </Position>
            <AltitudeMeters>257</AltitudeMeters>
            <DistanceMeters>NAN</DistanceMeters>
          </Trackpoint>
          <Trackpoint>
            <Time>2019-10-08T09:58:59.000Z</Time>
            <Position>
              <LatitudeDegrees>39.95962207205593585968017578125</LatitudeDegrees>
              <LongitudeDegrees>-6.17275058291852474212646484375</LongitudeDegrees>
            </Position>
            <AltitudeMeters>257.399993896484375</AltitudeMeters>
            <DistanceMeters>NAN</DistanceMeters>
          </Trackpoint>
          <Trackpoint>
            <Time>2019-10-08T09:59:01.000Z</Time>
            <Position>
              <LatitudeDegrees>39.9594997800886631011962890625</LatitudeDegrees>
              <LongitudeDegrees>-6.1729238368570804595947265625</LongitudeDegrees>
            </Position>
            <AltitudeMeters>257.600006103515625</AltitudeMeters>
            <DistanceMeters>NAN</DistanceMeters>
          </Trackpoint>
          <Trackpoint>
            <Time>2019-10-08T09:59:03.000Z</Time>
            <Position>
              <LatitudeDegrees>39.95938151143491268157958984375</LatitudeDegrees>
              <LongitudeDegrees>-6.17309658788144588470458984375</LongitudeDegrees>
            </Position>
            <AltitudeMeters>256.79998779296875</AltitudeMeters>
            <DistanceMeters>NAN</DistanceMeters>
          </Trackpoint>
          <Trackpoint>
            <Time>2019-10-08T09:59:05.000Z</Time>
            <Position>
              <LatitudeDegrees>39.95926399715244770050048828125</LatitudeDegrees>
              <LongitudeDegrees>-6.173266656696796417236328125</LongitudeDegrees>
            </Position>
            <AltitudeMeters>256.79998779296875</AltitudeMeters>
            <DistanceMeters>NAN</DistanceMeters>
          </Trackpoint>
          <Trackpoint>
            <Time>2019-10-08T09:59:07.000Z</Time>
            <Position>
              <LatitudeDegrees>39.9591534398496150970458984375</LatitudeDegrees>
              <LongitudeDegrees>-6.17343136109411716461181640625</LongitudeDegrees>
            </Position>
            <AltitudeMeters>255.8000030517578125</AltitudeMeters>
            <DistanceMeters>NAN</DistanceMeters>
          </Trackpoint>
          <Trackpoint>
            <Time>2019-10-08T09:59:10.000Z</Time>
            <Position>
              <LatitudeDegrees>39.9589933454990386962890625</LatitudeDegrees>
              <LongitudeDegrees>-6.173679046332836151123046875</LongitudeDegrees>
            </Position>
            <AltitudeMeters>256.79998779296875</AltitudeMeters>
            <DistanceMeters>NAN</DistanceMeters>
          </Trackpoint>
          <Trackpoint>
            <Time>2019-10-08T09:59:11.000Z</Time>
            <Position>
              <LatitudeDegrees>39.9589425511658191680908203125</LatitudeDegrees>
              <LongitudeDegrees>-6.17375842295587062835693359375</LongitudeDegrees>
            </Position>
            <AltitudeMeters>257</AltitudeMeters>
            <DistanceMeters>NAN</DistanceMeters>
          </Trackpoint>
          <Trackpoint>
            <Time>2019-10-08T09:59:12.000Z</Time>
            <Position>
              <LatitudeDegrees>39.95889351703226566314697265625</LatitudeDegrees>
              <LongitudeDegrees>-6.17383830249309539794921875</LongitudeDegrees>
            </Position>
            <AltitudeMeters>256.600006103515625</AltitudeMeters>
            <DistanceMeters>NAN</DistanceMeters>
          </Trackpoint>
          <Trackpoint>
            <Time>2019-10-08T09:59:19.000Z</Time>
            <Position>
              <LatitudeDegrees>39.95854608714580535888671875</LatitudeDegrees>
              <LongitudeDegrees>-6.17437717504799365997314453125</LongitudeDegrees>
            </Position>
            <AltitudeMeters>257.399993896484375</AltitudeMeters>
            <DistanceMeters>NAN</DistanceMeters>
          </Trackpoint>
          <Trackpoint>
            <Time>2019-10-08T09:59:22.000Z</Time>
            <Position>
              <LatitudeDegrees>39.95839395560324192047119140625</LatitudeDegrees>
              <LongitudeDegrees>-6.1746092699468135833740234375</LongitudeDegrees>
            </Position>
            <AltitudeMeters>256.20001220703125</AltitudeMeters>
            <DistanceMeters>NAN</DistanceMeters>
          </Trackpoint>
          <Trackpoint>
            <Time>2019-10-08T09:59:25.000Z</Time>
            <Position>
              <LatitudeDegrees>39.95824635028839111328125</LatitudeDegrees>
              <LongitudeDegrees>-6.1748412810266017913818359375</LongitudeDegrees>
            </Position>
            <AltitudeMeters>256</AltitudeMeters>
            <DistanceMeters>NAN</DistanceMeters>
          </Trackpoint>
          <Trackpoint>
            <Time>2019-10-08T09:59:27.000Z</Time>
            <Position>
              <LatitudeDegrees>39.9581469409167766571044921875</LatitudeDegrees>
              <LongitudeDegrees>-6.17499567568302154541015625</LongitudeDegrees>
            </Position>
            <AltitudeMeters>256.399993896484375</AltitudeMeters>
            <DistanceMeters>NAN</DistanceMeters>
          </Trackpoint>
          <Trackpoint>
            <Time>2019-10-08T09:59:29.000Z</Time>
            <Position>
              <LatitudeDegrees>39.9580470286309719085693359375</LatitudeDegrees>
              <LongitudeDegrees>-6.17514931596815586090087890625</LongitudeDegrees>
            </Position>
            <AltitudeMeters>256.20001220703125</AltitudeMeters>
            <DistanceMeters>NAN</DistanceMeters>
          </Trackpoint>
          <Trackpoint>
            <Time>2019-10-08T09:59:32.000Z</Time>
            <Position>
              <LatitudeDegrees>39.9578954838216304779052734375</LatitudeDegrees>
              <LongitudeDegrees>-6.17537663318216800689697265625</LongitudeDegrees>
            </Position>
            <AltitudeMeters>256</AltitudeMeters>
            <DistanceMeters>NAN</DistanceMeters>
          </Trackpoint>
          <Trackpoint>
            <Time>2019-10-08T09:59:35.000Z</Time>
            <Position>
              <LatitudeDegrees>39.95774469338357448577880859375</LatitudeDegrees>
              <LongitudeDegrees>-6.17560562677681446075439453125</LongitudeDegrees>
            </Position>
            <AltitudeMeters>256.399993896484375</AltitudeMeters>
            <DistanceMeters>NAN</DistanceMeters>
          </Trackpoint>
          <Trackpoint>
            <Time>2019-10-08T09:59:36.000Z</Time>
            <Position>
              <LatitudeDegrees>39.95769448578357696533203125</LatitudeDegrees>
              <LongitudeDegrees>-6.17568290792405605316162109375</LongitudeDegrees>
            </Position>
            <AltitudeMeters>256</AltitudeMeters>
            <DistanceMeters>NAN</DistanceMeters>
          </Trackpoint>
          <Trackpoint>
            <Time>2019-10-08T09:59:43.000Z</Time>
            <Position>
              <LatitudeDegrees>39.95735325850546360015869140625</LatitudeDegrees>
              <LongitudeDegrees>-6.17621884681284427642822265625</LongitudeDegrees>
            </Position>
            <AltitudeMeters>255.1999969482421875</AltitudeMeters>
            <DistanceMeters>NAN</DistanceMeters>
          </Trackpoint>
          <Trackpoint>
            <Time>2019-10-08T09:59:44.000Z</Time>
            <Position>
              <LatitudeDegrees>39.9573043920099735260009765625</LatitudeDegrees>
              <LongitudeDegrees>-6.176292859017848968505859375</LongitudeDegrees>
            </Position>
            <AltitudeMeters>254.600006103515625</AltitudeMeters>
            <DistanceMeters>NAN</DistanceMeters>
          </Trackpoint>
          <Trackpoint>
            <Time>2019-10-08T09:59:48.000Z</Time>
            <Position>
              <LatitudeDegrees>39.957110770046710968017578125</LatitudeDegrees>
              <LongitudeDegrees>-6.1765890754759311676025390625</LongitudeDegrees>
            </Position>
            <AltitudeMeters>255.8000030517578125</AltitudeMeters>
            <DistanceMeters>NAN</DistanceMeters>
          </Trackpoint>
          <Trackpoint>
            <Time>2019-10-08T09:59:51.000Z</Time>
            <Position>
              <LatitudeDegrees>39.9569627456367015838623046875</LatitudeDegrees>
              <LongitudeDegrees>-6.17681697942316532135009765625</LongitudeDegrees>
            </Position>
            <AltitudeMeters>255.600006103515625</AltitudeMeters>
            <DistanceMeters>NAN</DistanceMeters>
          </Trackpoint>
          <Trackpoint>
            <Time>2019-10-08T09:59:58.000Z</Time>
            <Position>
              <LatitudeDegrees>39.95662386529147624969482421875</LatitudeDegrees>
              <LongitudeDegrees>-6.177349984645843505859375</LongitudeDegrees>
            </Position>
            <AltitudeMeters>255.1999969482421875</AltitudeMeters>
            <DistanceMeters>NAN</DistanceMeters>
          </Trackpoint>
          <Trackpoint>
            <Time>2019-10-08T10:00:00.000Z</Time>
            <Position>
              <LatitudeDegrees>39.95652370154857635498046875</LatitudeDegrees>
              <LongitudeDegrees>-6.17750513367354869842529296875</LongitudeDegrees>
            </Position>
            <AltitudeMeters>255.1999969482421875</AltitudeMeters>
            <DistanceMeters>NAN</DistanceMeters>
          </Trackpoint>
          <Trackpoint>
            <Time>2019-10-08T10:00:05.000Z</Time>
            <Position>
              <LatitudeDegrees>39.956275261938571929931640625</LatitudeDegrees>
              <LongitudeDegrees>-6.177888773381710052490234375</LongitudeDegrees>
            </Position>
            <AltitudeMeters>254.600006103515625</AltitudeMeters>
            <DistanceMeters>NAN</DistanceMeters>
          </Trackpoint>
          <Trackpoint>
            <Time>2019-10-08T10:00:10.000Z</Time>
            <Position>
              <LatitudeDegrees>39.95602841489017009735107421875</LatitudeDegrees>
              <LongitudeDegrees>-6.1782681383192539215087890625</LongitudeDegrees>
            </Position>
            <AltitudeMeters>253.600006103515625</AltitudeMeters>
            <DistanceMeters>NAN</DistanceMeters>
          </Trackpoint>
          <Trackpoint>
            <Time>2019-10-08T10:00:11.000Z</Time>
            <Position>
              <LatitudeDegrees>39.9559793807566165924072265625</LatitudeDegrees>
              <LongitudeDegrees>-6.178342737257480621337890625</LongitudeDegrees>
            </Position>
            <AltitudeMeters>254</AltitudeMeters>
            <DistanceMeters>NAN</DistanceMeters>
          </Trackpoint>
          <Trackpoint>
            <Time>2019-10-08T10:00:16.000Z</Time>
            <Position>
              <LatitudeDegrees>39.9557389877736568450927734375</LatitudeDegrees>
              <LongitudeDegrees>-6.17871724069118499755859375</LongitudeDegrees>
            </Position>
            <AltitudeMeters>254.600006103515625</AltitudeMeters>
            <DistanceMeters>NAN</DistanceMeters>
          </Trackpoint>
          <Trackpoint>
            <Time>2019-10-08T10:00:20.000Z</Time>
            <Position>
              <LatitudeDegrees>39.95554410852491855621337890625</LatitudeDegrees>
              <LongitudeDegrees>-6.17901957593858242034912109375</LongitudeDegrees>
            </Position>
            <AltitudeMeters>255</AltitudeMeters>
            <DistanceMeters>NAN</DistanceMeters>
          </Trackpoint>
          <Trackpoint>
            <Time>2019-10-08T10:00:27.000Z</Time>
            <Position>
              <LatitudeDegrees>39.95519743300974369049072265625</LatitudeDegrees>
              <LongitudeDegrees>-6.17955543100833892822265625</LongitudeDegrees>
            </Position>
            <AltitudeMeters>253.8000030517578125</AltitudeMeters>
            <DistanceMeters>NAN</DistanceMeters>
          </Trackpoint>
          <Trackpoint>
            <Time>2019-10-08T10:00:28.000Z</Time>
            <Position>
              <LatitudeDegrees>39.95514781214296817779541015625</LatitudeDegrees>
              <LongitudeDegrees>-6.17963346652686595916748046875</LongitudeDegrees>
            </Position>
            <AltitudeMeters>253.399993896484375</AltitudeMeters>
            <DistanceMeters>NAN</DistanceMeters>
          </Trackpoint>
          <Trackpoint>
            <Time>2019-10-08T10:00:35.000Z</Time>
            <Position>
              <LatitudeDegrees>39.9547958560287952423095703125</LatitudeDegrees>
              <LongitudeDegrees>-6.18017678149044513702392578125</LongitudeDegrees>
            </Position>
            <AltitudeMeters>253.399993896484375</AltitudeMeters>
            <DistanceMeters>NAN</DistanceMeters>
          </Trackpoint>
          <Trackpoint>
            <Time>2019-10-08T10:00:36.000Z</Time>
            <Position>
              <LatitudeDegrees>39.95474380441009998321533203125</LatitudeDegrees>
              <LongitudeDegrees>-6.1802553199231624603271484375</LongitudeDegrees>
            </Position>
            <AltitudeMeters>253.600006103515625</AltitudeMeters>
            <DistanceMeters>NAN</DistanceMeters>
          </Trackpoint>
          <Trackpoint>
            <Time>2019-10-08T10:00:39.000Z</Time>
            <Position>
              <LatitudeDegrees>39.95458655990660190582275390625</LatitudeDegrees>
              <LongitudeDegrees>-6.18049596436321735382080078125</LongitudeDegrees>
            </Position>
            <AltitudeMeters>254.600006103515625</AltitudeMeters>
            <DistanceMeters>NAN</DistanceMeters>
          </Trackpoint>
          <Trackpoint>
            <Time>2019-10-08T10:00:44.000Z</Time>
            <Position>
              <LatitudeDegrees>39.95431666262447834014892578125</LatitudeDegrees>
              <LongitudeDegrees>-6.1809087730944156646728515625</LongitudeDegrees>
            </Position>
            <AltitudeMeters>253.1999969482421875</AltitudeMeters>
            <DistanceMeters>NAN</DistanceMeters>
          </Trackpoint>
          <Trackpoint>
            <Time>2019-10-08T10:00:45.000Z</Time>
            <Position>
              <LatitudeDegrees>39.95426259934902191162109375</LatitudeDegrees>
              <LongitudeDegrees>-6.180994100868701934814453125</LongitudeDegrees>
            </Position>
            <AltitudeMeters>252.600006103515625</AltitudeMeters>
            <DistanceMeters>NAN</DistanceMeters>
          </Trackpoint>
          <Trackpoint>
            <Time>2019-10-08T10:00:52.000Z</Time>
            <Position>
              <LatitudeDegrees>39.95388348586857318878173828125</LatitudeDegrees>
              <LongitudeDegrees>-6.1815779842436313629150390625</LongitudeDegrees>
            </Position>
            <AltitudeMeters>252.399993896484375</AltitudeMeters>
            <DistanceMeters>NAN</DistanceMeters>
          </Trackpoint>
          <Trackpoint>
            <Time>2019-10-08T10:00:53.000Z</Time>
            <Position>
              <LatitudeDegrees>39.953829087316989898681640625</LatitudeDegrees>
              <LongitudeDegrees>-6.18166239000856876373291015625</LongitudeDegrees>
            </Position>
            <AltitudeMeters>251.8000030517578125</AltitudeMeters>
            <DistanceMeters>NAN</DistanceMeters>
          </Trackpoint>
          <Trackpoint>
            <Time>2019-10-08T10:00:56.000Z</Time>
            <Position>
              <LatitudeDegrees>39.9536699987947940826416015625</LatitudeDegrees>
              <LongitudeDegrees>-6.1819065548479557037353515625</LongitudeDegrees>
            </Position>
            <AltitudeMeters>251.1999969482421875</AltitudeMeters>
            <DistanceMeters>NAN</DistanceMeters>
          </Trackpoint>
          <Trackpoint>
            <Time>2019-10-08T10:01:03.000Z</Time>
            <Position>
              <LatitudeDegrees>39.95329859666526317596435546875</LatitudeDegrees>
              <LongitudeDegrees>-6.1824852414429187774658203125</LongitudeDegrees>
            </Position>
            <AltitudeMeters>251.1999969482421875</AltitudeMeters>
            <DistanceMeters>NAN</DistanceMeters>
          </Trackpoint>
          <Trackpoint>
            <Time>2019-10-08T10:01:05.000Z</Time>
            <Position>
              <LatitudeDegrees>39.95319415815174579620361328125</LatitudeDegrees>
              <LongitudeDegrees>-6.1826522089540958404541015625</LongitudeDegrees>
            </Position>
            <AltitudeMeters>250.600006103515625</AltitudeMeters>
            <DistanceMeters>NAN</DistanceMeters>
          </Trackpoint>
          <Trackpoint>
            <Time>2019-10-08T10:01:12.000Z</Time>
            <Position>
              <LatitudeDegrees>39.95282317511737346649169921875</LatitudeDegrees>
              <LongitudeDegrees>-6.1832319013774394989013671875</LongitudeDegrees>
            </Position>
            <AltitudeMeters>250.600006103515625</AltitudeMeters>
            <DistanceMeters>NAN</DistanceMeters>
          </Trackpoint>
          <Trackpoint>
            <Time>2019-10-08T10:01:14.000Z</Time>
            <Position>
              <LatitudeDegrees>39.952713958919048309326171875</LatitudeDegrees>
              <LongitudeDegrees>-6.18339744396507740020751953125</LongitudeDegrees>
            </Position>
            <AltitudeMeters>250.600006103515625</AltitudeMeters>
            <DistanceMeters>NAN</DistanceMeters>
          </Trackpoint>
          <Trackpoint>
            <Time>2019-10-08T10:01:17.000Z</Time>
            <Position>
              <LatitudeDegrees>39.95254732668399810791015625</LatitudeDegrees>
              <LongitudeDegrees>-6.18364605121314525604248046875</LongitudeDegrees>
            </Position>
            <AltitudeMeters>249.399993896484375</AltitudeMeters>
            <DistanceMeters>NAN</DistanceMeters>
          </Trackpoint>
          <Trackpoint>
            <Time>2019-10-08T10:01:24.000Z</Time>
            <Position>
              <LatitudeDegrees>39.9521693028509616851806640625</LatitudeDegrees>
              <LongitudeDegrees>-6.18422691710293292999267578125</LongitudeDegrees>
            </Position>
            <AltitudeMeters>248.8000030517578125</AltitudeMeters>
            <DistanceMeters>NAN</DistanceMeters>
          </Trackpoint>
          <Trackpoint>
            <Time>2019-10-08T10:01:25.000Z</Time>
            <Position>
              <LatitudeDegrees>39.95211842469871044158935546875</LatitudeDegrees>
              <LongitudeDegrees>-6.18431098759174346923828125</LongitudeDegrees>
            </Position>
            <AltitudeMeters>248.399993896484375</AltitudeMeters>
            <DistanceMeters>NAN</DistanceMeters>
          </Trackpoint>
          <Trackpoint>
            <Time>2019-10-08T10:01:30.000Z</Time>
            <Position>
              <LatitudeDegrees>39.95186076499521732330322265625</LatitudeDegrees>
              <LongitudeDegrees>-6.18471139110624790191650390625</LongitudeDegrees>
            </Position>
            <AltitudeMeters>249.1999969482421875</AltitudeMeters>
            <DistanceMeters>NAN</DistanceMeters>
          </Trackpoint>
          <Trackpoint>
            <Time>2019-10-08T10:01:34.000Z</Time>
            <Position>
              <LatitudeDegrees>39.95165624655783176422119140625</LatitudeDegrees>
              <LongitudeDegrees>-6.1850343458354473114013671875</LongitudeDegrees>
            </Position>
            <AltitudeMeters>248.600006103515625</AltitudeMeters>
            <DistanceMeters>NAN</DistanceMeters>
          </Trackpoint>
          <Trackpoint>
            <Time>2019-10-08T10:01:35.000Z</Time>
            <Position>
              <LatitudeDegrees>39.95160453021526336669921875</LatitudeDegrees>
              <LongitudeDegrees>-6.185113973915576934814453125</LongitudeDegrees>
            </Position>
            <AltitudeMeters>248.399993896484375</AltitudeMeters>
            <DistanceMeters>NAN</DistanceMeters>
          </Trackpoint>
          <Trackpoint>
            <Time>2019-10-08T10:01:40.000Z</Time>
            <Position>
              <LatitudeDegrees>39.9513532407581806182861328125</LatitudeDegrees>
              <LongitudeDegrees>-6.185507588088512420654296875</LongitudeDegrees>
            </Position>
            <AltitudeMeters>248.8000030517578125</AltitudeMeters>
            <DistanceMeters>NAN</DistanceMeters>
          </Trackpoint>
          <Trackpoint>
            <Time>2019-10-08T10:01:45.000Z</Time>
            <Position>
              <LatitudeDegrees>39.9511048011481761932373046875</LatitudeDegrees>
              <LongitudeDegrees>-6.18589692749083042144775390625</LongitudeDegrees>
            </Position>
            <AltitudeMeters>249.399993896484375</AltitudeMeters>
            <DistanceMeters>NAN</DistanceMeters>
          </Trackpoint>
          <Trackpoint>
            <Time>2019-10-08T10:01:46.000Z</Time>
            <Position>
              <LatitudeDegrees>39.95105266571044921875</LatitudeDegrees>
              <LongitudeDegrees>-6.1859761364758014678955078125</LongitudeDegrees>
            </Position>
            <AltitudeMeters>249.8000030517578125</AltitudeMeters>
            <DistanceMeters>NAN</DistanceMeters>
          </Trackpoint>
          <Trackpoint>
            <Time>2019-10-08T10:01:51.000Z</Time>
            <Position>
              <LatitudeDegrees>39.95078955776989459991455078125</LatitudeDegrees>
              <LongitudeDegrees>-6.18638341315090656280517578125</LongitudeDegrees>
            </Position>
            <AltitudeMeters>248.399993896484375</AltitudeMeters>
            <DistanceMeters>NAN</DistanceMeters>
          </Trackpoint>
          <Trackpoint>
            <Time>2019-10-08T10:01:56.000Z</Time>
            <Position>
              <LatitudeDegrees>39.950531311333179473876953125</LatitudeDegrees>
              <LongitudeDegrees>-6.18678825907409191131591796875</LongitudeDegrees>
            </Position>
            <AltitudeMeters>247.600006103515625</AltitudeMeters>
            <DistanceMeters>NAN</DistanceMeters>
          </Trackpoint>
          <Trackpoint>
            <Time>2019-10-08T10:01:59.000Z</Time>
            <Position>
              <LatitudeDegrees>39.9503765814006328582763671875</LatitudeDegrees>
              <LongitudeDegrees>-6.18703217245638370513916015625</LongitudeDegrees>
            </Position>
            <AltitudeMeters>246.600006103515625</AltitudeMeters>
            <DistanceMeters>NAN</DistanceMeters>
          </Trackpoint>
          <Trackpoint>
            <Time>2019-10-08T10:02:06.000Z</Time>
            <Position>
              <LatitudeDegrees>39.95002361945807933807373046875</LatitudeDegrees>
              <LongitudeDegrees>-6.1875733919441699981689453125</LongitudeDegrees>
            </Position>
            <AltitudeMeters>247</AltitudeMeters>
            <DistanceMeters>NAN</DistanceMeters>
          </Trackpoint>
          <Trackpoint>
            <Time>2019-10-08T10:02:13.000Z</Time>
            <Position>
              <LatitudeDegrees>39.94968432001769542694091796875</LatitudeDegrees>
              <LongitudeDegrees>-6.188101284205913543701171875</LongitudeDegrees>
            </Position>
            <AltitudeMeters>247.399993896484375</AltitudeMeters>
            <DistanceMeters>NAN</DistanceMeters>
          </Trackpoint>
          <Trackpoint>
            <Time>2019-10-08T10:02:15.000Z</Time>
            <Position>
              <LatitudeDegrees>39.949586503207683563232421875</LatitudeDegrees>
              <LongitudeDegrees>-6.18824712932109832763671875</LongitudeDegrees>
            </Position>
            <AltitudeMeters>247.399993896484375</AltitudeMeters>
            <DistanceMeters>NAN</DistanceMeters>
          </Trackpoint>
          <Trackpoint>
            <Time>2019-10-08T10:02:23.000Z</Time>
            <Position>
              <LatitudeDegrees>39.949213005602359771728515625</LatitudeDegrees>
              <LongitudeDegrees>-6.18883478455245494842529296875</LongitudeDegrees>
            </Position>
            <AltitudeMeters>247.399993896484375</AltitudeMeters>
            <DistanceMeters>NAN</DistanceMeters>
          </Trackpoint>
          <Trackpoint>
            <Time>2019-10-08T10:02:31.000Z</Time>
            <Position>
              <LatitudeDegrees>39.9488393403589725494384765625</LatitudeDegrees>
              <LongitudeDegrees>-6.18941196240484714508056640625</LongitudeDegrees>
            </Position>
            <AltitudeMeters>246.600006103515625</AltitudeMeters>
            <DistanceMeters>NAN</DistanceMeters>
          </Trackpoint>
          <Trackpoint>
            <Time>2019-10-08T10:02:32.000Z</Time>
            <Position>
              <LatitudeDegrees>39.94879248552024364471435546875</LatitudeDegrees>
              <LongitudeDegrees>-6.18948337621986865997314453125</LongitudeDegrees>
            </Position>
            <AltitudeMeters>246.8000030517578125</AltitudeMeters>
            <DistanceMeters>NAN</DistanceMeters>
          </Trackpoint>
          <Trackpoint>
            <Time>2019-10-08T10:02:40.000Z</Time>
            <Position>
              <LatitudeDegrees>39.9484239332377910614013671875</LatitudeDegrees>
              <LongitudeDegrees>-6.1900564469397068023681640625</LongitudeDegrees>
            </Position>
            <AltitudeMeters>246.600006103515625</AltitudeMeters>
            <DistanceMeters>NAN</DistanceMeters>
          </Trackpoint>
          <Trackpoint>
            <Time>2019-10-08T10:02:45.000Z</Time>
            <Position>
              <LatitudeDegrees>39.9481868930160999298095703125</LatitudeDegrees>
              <LongitudeDegrees>-6.19042550213634967803955078125</LongitudeDegrees>
            </Position>
            <AltitudeMeters>246.600006103515625</AltitudeMeters>
            <DistanceMeters>NAN</DistanceMeters>
          </Trackpoint>
          <Trackpoint>
            <Time>2019-10-08T10:02:53.000Z</Time>
            <Position>
              <LatitudeDegrees>39.94780652225017547607421875</LatitudeDegrees>
              <LongitudeDegrees>-6.19101022370159626007080078125</LongitudeDegrees>
            </Position>
            <AltitudeMeters>246.600006103515625</AltitudeMeters>
            <DistanceMeters>NAN</DistanceMeters>
          </Trackpoint>
          <Trackpoint>
            <Time>2019-10-08T10:02:54.000Z</Time>
            <Position>
              <LatitudeDegrees>39.94775958359241485595703125</LatitudeDegrees>
              <LongitudeDegrees>-6.191081888973712921142578125</LongitudeDegrees>
            </Position>
            <AltitudeMeters>246.399993896484375</AltitudeMeters>
            <DistanceMeters>NAN</DistanceMeters>
          </Trackpoint>
          <Trackpoint>
            <Time>2019-10-08T10:03:02.000Z</Time>
            <Position>
              <LatitudeDegrees>39.9473839066922664642333984375</LatitudeDegrees>
              <LongitudeDegrees>-6.19167507626116275787353515625</LongitudeDegrees>
            </Position>
            <AltitudeMeters>245</AltitudeMeters>
            <DistanceMeters>NAN</DistanceMeters>
          </Trackpoint>
          <Trackpoint>
            <Time>2019-10-08T10:03:08.000Z</Time>
            <Position>
              <LatitudeDegrees>39.94710168801248073577880859375</LatitudeDegrees>
              <LongitudeDegrees>-6.1921066604554653167724609375</LongitudeDegrees>
            </Position>
            <AltitudeMeters>245.399993896484375</AltitudeMeters>
            <DistanceMeters>NAN</DistanceMeters>
          </Trackpoint>
          <Trackpoint>
            <Time>2019-10-08T10:03:16.000Z</Time>
            <Position>
              <LatitudeDegrees>39.94673606939613819122314453125</LatitudeDegrees>
              <LongitudeDegrees>-6.1926843412220478057861328125</LongitudeDegrees>
            </Position>
            <AltitudeMeters>244.8000030517578125</AltitudeMeters>
            <DistanceMeters>NAN</DistanceMeters>
          </Trackpoint>
          <Trackpoint>
            <Time>2019-10-08T10:03:17.000Z</Time>
            <Position>
              <LatitudeDegrees>39.9466908909380435943603515625</LatitudeDegrees>
              <LongitudeDegrees>-6.19275634177029132843017578125</LongitudeDegrees>
            </Position>
            <AltitudeMeters>244.8000030517578125</AltitudeMeters>
            <DistanceMeters>NAN</DistanceMeters>
          </Trackpoint>
          <Trackpoint>
            <Time>2019-10-08T10:03:25.000Z</Time>
            <Position>
              <LatitudeDegrees>39.94632552377879619598388671875</LatitudeDegrees>
              <LongitudeDegrees>-6.19331918656826019287109375</LongitudeDegrees>
            </Position>
            <AltitudeMeters>245.1999969482421875</AltitudeMeters>
            <DistanceMeters>NAN</DistanceMeters>
          </Trackpoint>
          <Trackpoint>
            <Time>2019-10-08T10:03:27.000Z</Time>
            <Position>
              <LatitudeDegrees>39.946231730282306671142578125</LatitudeDegrees>
              <LongitudeDegrees>-6.19346193037927150726318359375</LongitudeDegrees>
            </Position>
            <AltitudeMeters>244.8000030517578125</AltitudeMeters>
            <DistanceMeters>NAN</DistanceMeters>
          </Trackpoint>
          <Trackpoint>
            <Time>2019-10-08T10:03:29.000Z</Time>
            <Position>
              <LatitudeDegrees>39.9461413733661174774169921875</LatitudeDegrees>
              <LongitudeDegrees>-6.193606518208980560302734375</LongitudeDegrees>
            </Position>
            <AltitudeMeters>243.8000030517578125</AltitudeMeters>
            <DistanceMeters>NAN</DistanceMeters>
          </Trackpoint>
          <Trackpoint>
            <Time>2019-10-08T10:03:32.000Z</Time>
            <Position>
              <LatitudeDegrees>39.94600131176412105560302734375</LatitudeDegrees>
              <LongitudeDegrees>-6.19381967000663280487060546875</LongitudeDegrees>
            </Position>
            <AltitudeMeters>245</AltitudeMeters>
            <DistanceMeters>NAN</DistanceMeters>
          </Trackpoint>
          <Trackpoint>
            <Time>2019-10-08T10:03:38.000Z</Time>
            <Position>
              <LatitudeDegrees>39.945724792778491973876953125</LatitudeDegrees>
              <LongitudeDegrees>-6.19425687007606029510498046875</LongitudeDegrees>
            </Position>
            <AltitudeMeters>244</AltitudeMeters>
            <DistanceMeters>NAN</DistanceMeters>
          </Trackpoint>
          <Trackpoint>
            <Time>2019-10-08T10:03:46.000Z</Time>
            <Position>
              <LatitudeDegrees>39.94535540230572223663330078125</LatitudeDegrees>
              <LongitudeDegrees>-6.1948285996913909912109375</LongitudeDegrees>
            </Position>
            <AltitudeMeters>243.600006103515625</AltitudeMeters>
            <DistanceMeters>NAN</DistanceMeters>
          </Trackpoint>
          <Trackpoint>
            <Time>2019-10-08T10:03:54.000Z</Time>
            <Position>
              <LatitudeDegrees>39.9449866823852062225341796875</LatitudeDegrees>
              <LongitudeDegrees>-6.19540728628635406494140625</LongitudeDegrees>
            </Position>
            <AltitudeMeters>244.600006103515625</AltitudeMeters>
            <DistanceMeters>NAN</DistanceMeters>
          </Trackpoint>
          <Trackpoint>
            <Time>2019-10-08T10:03:56.000Z</Time>
            <Position>
              <LatitudeDegrees>39.9448929727077484130859375</LatitudeDegrees>
              <LongitudeDegrees>-6.1955532990396022796630859375</LongitudeDegrees>
            </Position>
            <AltitudeMeters>243.8000030517578125</AltitudeMeters>
            <DistanceMeters>NAN</DistanceMeters>
          </Trackpoint>
          <Trackpoint>
            <Time>2019-10-08T10:04:04.000Z</Time>
            <Position>
              <LatitudeDegrees>39.9445079080760478973388671875</LatitudeDegrees>
              <LongitudeDegrees>-6.19613508693873882293701171875</LongitudeDegrees>
            </Position>
            <AltitudeMeters>244.1999969482421875</AltitudeMeters>
            <DistanceMeters>NAN</DistanceMeters>
          </Trackpoint>
          <Trackpoint>
            <Time>2019-10-08T10:04:12.000Z</Time>
            <Position>
              <LatitudeDegrees>39.94412628002464771270751953125</LatitudeDegrees>
              <LongitudeDegrees>-6.19673171080648899078369140625</LongitudeDegrees>
            </Position>
            <AltitudeMeters>243.1999969482421875</AltitudeMeters>
            <DistanceMeters>NAN</DistanceMeters>
          </Trackpoint>
          <Trackpoint>
            <Time>2019-10-08T10:04:13.000Z</Time>
            <Position>
              <LatitudeDegrees>39.944076575338840484619140625</LatitudeDegrees>
              <LongitudeDegrees>-6.19680580683052539825439453125</LongitudeDegrees>
            </Position>
            <AltitudeMeters>243.600006103515625</AltitudeMeters>
            <DistanceMeters>NAN</DistanceMeters>
          </Trackpoint>
          <Trackpoint>
            <Time>2019-10-08T10:04:16.000Z</Time>
            <Position>
              <LatitudeDegrees>39.9439327418804168701171875</LatitudeDegrees>
              <LongitudeDegrees>-6.19702641852200031280517578125</LongitudeDegrees>
            </Position>
            <AltitudeMeters>242.8000030517578125</AltitudeMeters>
            <DistanceMeters>NAN</DistanceMeters>
          </Trackpoint>
          <Trackpoint>
            <Time>2019-10-08T10:04:22.000Z</Time>
            <Position>
              <LatitudeDegrees>39.94365270249545574188232421875</LatitudeDegrees>
              <LongitudeDegrees>-6.1974677257239818572998046875</LongitudeDegrees>
            </Position>
            <AltitudeMeters>242.600006103515625</AltitudeMeters>
            <DistanceMeters>NAN</DistanceMeters>
          </Trackpoint>
          <Trackpoint>
            <Time>2019-10-08T10:04:30.000Z</Time>
            <Position>
              <LatitudeDegrees>39.943268559873104095458984375</LatitudeDegrees>
              <LongitudeDegrees>-6.1980611644685268402099609375</LongitudeDegrees>
            </Position>
            <AltitudeMeters>242.600006103515625</AltitudeMeters>
            <DistanceMeters>NAN</DistanceMeters>
          </Trackpoint>
          <Trackpoint>
            <Time>2019-10-08T10:04:32.000Z</Time>
            <Position>
              <LatitudeDegrees>39.943170659244060516357421875</LatitudeDegrees>
              <LongitudeDegrees>-6.1982113681733608245849609375</LongitudeDegrees>
            </Position>
            <AltitudeMeters>242.600006103515625</AltitudeMeters>
            <DistanceMeters>NAN</DistanceMeters>
          </Trackpoint>
          <Trackpoint>
            <Time>2019-10-08T10:04:38.000Z</Time>
            <Position>
              <LatitudeDegrees>39.942880310118198394775390625</LatitudeDegrees>
              <LongitudeDegrees>-6.19866072200238704681396484375</LongitudeDegrees>
            </Position>
            <AltitudeMeters>241.600006103515625</AltitudeMeters>
            <DistanceMeters>NAN</DistanceMeters>
          </Trackpoint>
          <Trackpoint>
            <Time>2019-10-08T10:04:40.000Z</Time>
            <Position>
              <LatitudeDegrees>39.9427832476794719696044921875</LatitudeDegrees>
              <LongitudeDegrees>-6.1988061480224132537841796875</LongitudeDegrees>
            </Position>
            <AltitudeMeters>242</AltitudeMeters>
            <DistanceMeters>NAN</DistanceMeters>
          </Trackpoint>
          <Trackpoint>
            <Time>2019-10-08T10:04:44.000Z</Time>
            <Position>
              <LatitudeDegrees>39.942591972649097442626953125</LatitudeDegrees>
              <LongitudeDegrees>-6.1991018615663051605224609375</LongitudeDegrees>
            </Position>
            <AltitudeMeters>242.8000030517578125</AltitudeMeters>
            <DistanceMeters>NAN</DistanceMeters>
          </Trackpoint>
          <Trackpoint>
            <Time>2019-10-08T10:04:52.000Z</Time>
            <Position>
              <LatitudeDegrees>39.94221721775829792022705078125</LatitudeDegrees>
              <LongitudeDegrees>-6.19968247599899768829345703125</LongitudeDegrees>
            </Position>
            <AltitudeMeters>242.1999969482421875</AltitudeMeters>
            <DistanceMeters>NAN</DistanceMeters>
          </Trackpoint>
          <Trackpoint>
            <Time>2019-10-08T10:04:53.000Z</Time>
            <Position>
              <LatitudeDegrees>39.9421703629195690155029296875</LatitudeDegrees>
              <LongitudeDegrees>-6.1997529678046703338623046875</LongitudeDegrees>
            </Position>
            <AltitudeMeters>242.399993896484375</AltitudeMeters>
            <DistanceMeters>NAN</DistanceMeters>
          </Trackpoint>
          <Trackpoint>
            <Time>2019-10-08T10:05:01.000Z</Time>
            <Position>
              <LatitudeDegrees>39.94180834852159023284912109375</LatitudeDegrees>
              <LongitudeDegrees>-6.2003217637538909912109375</LongitudeDegrees>
            </Position>
            <AltitudeMeters>242.600006103515625</AltitudeMeters>
            <DistanceMeters>NAN</DistanceMeters>
          </Trackpoint>
          <Trackpoint>
            <Time>2019-10-08T10:05:04.000Z</Time>
            <Position>
              <LatitudeDegrees>39.94167356751859188079833984375</LatitudeDegrees>
              <LongitudeDegrees>-6.2005334906280040740966796875</LongitudeDegrees>
            </Position>
            <AltitudeMeters>242.600006103515625</AltitudeMeters>
            <DistanceMeters>NAN</DistanceMeters>
          </Trackpoint>
          <Trackpoint>
            <Time>2019-10-08T10:05:08.000Z</Time>
            <Position>
              <LatitudeDegrees>39.94149654172360897064208984375</LatitudeDegrees>
              <LongitudeDegrees>-6.20080933906137943267822265625</LongitudeDegrees>
            </Position>
            <AltitudeMeters>242.399993896484375</AltitudeMeters>
            <DistanceMeters>NAN</DistanceMeters>
          </Trackpoint>
          <Trackpoint>
            <Time>2019-10-08T10:05:12.000Z</Time>
            <Position>
              <LatitudeDegrees>39.941325969994068145751953125</LatitudeDegrees>
              <LongitudeDegrees>-6.201081164181232452392578125</LongitudeDegrees>
            </Position>
            <AltitudeMeters>242.399993896484375</AltitudeMeters>
            <DistanceMeters>NAN</DistanceMeters>
          </Trackpoint>
          <Trackpoint>
            <Time>2019-10-08T10:05:19.000Z</Time>
            <Position>
              <LatitudeDegrees>39.94102128781378269195556640625</LatitudeDegrees>
              <LongitudeDegrees>-6.2015450187027454376220703125</LongitudeDegrees>
            </Position>
            <AltitudeMeters>242.600006103515625</AltitudeMeters>
            <DistanceMeters>NAN</DistanceMeters>
          </Trackpoint>
          <Trackpoint>
            <Time>2019-10-08T10:05:25.000Z</Time>
            <Position>
              <LatitudeDegrees>39.940774440765380859375</LatitudeDegrees>
              <LongitudeDegrees>-6.20192379690706729888916015625</LongitudeDegrees>
            </Position>
            <AltitudeMeters>243.8000030517578125</AltitudeMeters>
            <DistanceMeters>NAN</DistanceMeters>
          </Trackpoint>
          <Trackpoint>
            <Time>2019-10-08T10:05:30.000Z</Time>
            <Position>
              <LatitudeDegrees>39.9405838362872600555419921875</LatitudeDegrees>
              <LongitudeDegrees>-6.20221984572708606719970703125</LongitudeDegrees>
            </Position>
            <AltitudeMeters>244.8000030517578125</AltitudeMeters>
            <DistanceMeters>NAN</DistanceMeters>
          </Trackpoint>
          <Trackpoint>
            <Time>2019-10-08T10:05:33.000Z</Time>
            <Position>
              <LatitudeDegrees>39.94047914631664752960205078125</LatitudeDegrees>
              <LongitudeDegrees>-6.2023865617811679840087890625</LongitudeDegrees>
            </Position>
            <AltitudeMeters>245.399993896484375</AltitudeMeters>
            <DistanceMeters>NAN</DistanceMeters>
          </Trackpoint>
          <Trackpoint>
            <Time>2019-10-08T10:05:35.000Z</Time>
            <Position>
              <LatitudeDegrees>39.94040940888226032257080078125</LatitudeDegrees>
              <LongitudeDegrees>-6.202500723302364349365234375</LongitudeDegrees>
            </Position>
            <AltitudeMeters>246</AltitudeMeters>
            <DistanceMeters>NAN</DistanceMeters>
          </Trackpoint>
          <Trackpoint>
            <Time>2019-10-08T10:05:43.000Z</Time>
            <Position>
              <LatitudeDegrees>39.94013783521950244903564453125</LatitudeDegrees>
              <LongitudeDegrees>-6.2029414437711238861083984375</LongitudeDegrees>
            </Position>
            <AltitudeMeters>246.399993896484375</AltitudeMeters>
            <DistanceMeters>NAN</DistanceMeters>
          </Trackpoint>
          <Trackpoint>
            <Time>2019-10-08T10:05:44.000Z</Time>
            <Position>
              <LatitudeDegrees>39.9401047267019748687744140625</LatitudeDegrees>
              <LongitudeDegrees>-6.2029927410185337066650390625</LongitudeDegrees>
            </Position>
            <AltitudeMeters>246.8000030517578125</AltitudeMeters>
            <DistanceMeters>NAN</DistanceMeters>
          </Trackpoint>
          <Trackpoint>
            <Time>2019-10-08T10:05:48.000Z</Time>
            <Position>
              <LatitudeDegrees>39.93997983634471893310546875</LatitudeDegrees>
              <LongitudeDegrees>-6.203196085989475250244140625</LongitudeDegrees>
            </Position>
            <AltitudeMeters>247</AltitudeMeters>
            <DistanceMeters>NAN</DistanceMeters>
          </Trackpoint>
          <Trackpoint>
            <Time>2019-10-08T10:05:54.000Z</Time>
            <Position>
              <LatitudeDegrees>39.9398023076355457305908203125</LatitudeDegrees>
              <LongitudeDegrees>-6.2035043723881244659423828125</LongitudeDegrees>
            </Position>
            <AltitudeMeters>247.1999969482421875</AltitudeMeters>
            <DistanceMeters>NAN</DistanceMeters>
          </Trackpoint>
          <Trackpoint>
            <Time>2019-10-08T10:06:03.000Z</Time>
            <Position>
              <LatitudeDegrees>39.93952562101185321807861328125</LatitudeDegrees>
              <LongitudeDegrees>-6.2039858289062976837158203125</LongitudeDegrees>
            </Position>
            <AltitudeMeters>248.399993896484375</AltitudeMeters>
            <DistanceMeters>NAN</DistanceMeters>
          </Trackpoint>
          <Trackpoint>
            <Time>2019-10-08T10:06:05.000Z</Time>
            <Position>
              <LatitudeDegrees>39.939464516937732696533203125</LatitudeDegrees>
              <LongitudeDegrees>-6.20409755967557430267333984375</LongitudeDegrees>
            </Position>
            <AltitudeMeters>248.399993896484375</AltitudeMeters>
            <DistanceMeters>NAN</DistanceMeters>
          </Trackpoint>
          <Trackpoint>
            <Time>2019-10-08T10:06:13.000Z</Time>
            <Position>
              <LatitudeDegrees>39.9392162449657917022705078125</LatitudeDegrees>
              <LongitudeDegrees>-6.2045524455606937408447265625</LongitudeDegrees>
            </Position>
            <AltitudeMeters>249</AltitudeMeters>
            <DistanceMeters>NAN</DistanceMeters>
          </Trackpoint>
          <Trackpoint>
            <Time>2019-10-08T10:06:23.000Z</Time>
            <Position>
              <LatitudeDegrees>39.93889865465462207794189453125</LatitudeDegrees>
              <LongitudeDegrees>-6.20513943023979663848876953125</LongitudeDegrees>
            </Position>
            <AltitudeMeters>249</AltitudeMeters>
            <DistanceMeters>NAN</DistanceMeters>
          </Trackpoint>
          <Trackpoint>
            <Time>2019-10-08T10:06:24.000Z</Time>
            <Position>
              <LatitudeDegrees>39.93886529467999935150146484375</LatitudeDegrees>
              <LongitudeDegrees>-6.205203719437122344970703125</LongitudeDegrees>
            </Position>
            <AltitudeMeters>249.1999969482421875</AltitudeMeters>
            <DistanceMeters>NAN</DistanceMeters>
          </Trackpoint>
          <Trackpoint>
            <Time>2019-10-08T10:06:30.000Z</Time>
            <Position>
              <LatitudeDegrees>39.938648454844951629638671875</LatitudeDegrees>
              <LongitudeDegrees>-6.205598004162311553955078125</LongitudeDegrees>
            </Position>
            <AltitudeMeters>249.399993896484375</AltitudeMeters>
            <DistanceMeters>NAN</DistanceMeters>
          </Trackpoint>
          <Trackpoint>
            <Time>2019-10-08T10:06:32.000Z</Time>
            <Position>
              <LatitudeDegrees>39.93857511319220066070556640625</LatitudeDegrees>
              <LongitudeDegrees>-6.20573379099369049072265625</LongitudeDegrees>
            </Position>
            <AltitudeMeters>249</AltitudeMeters>
            <DistanceMeters>NAN</DistanceMeters>
          </Trackpoint>
          <Trackpoint>
            <Time>2019-10-08T10:06:38.000Z</Time>
            <Position>
              <LatitudeDegrees>39.93834947235882282257080078125</LatitudeDegrees>
              <LongitudeDegrees>-6.2061582505702972412109375</LongitudeDegrees>
            </Position>
            <AltitudeMeters>248.399993896484375</AltitudeMeters>
            <DistanceMeters>NAN</DistanceMeters>
          </Trackpoint>
          <Trackpoint>
            <Time>2019-10-08T10:06:41.000Z</Time>
            <Position>
              <LatitudeDegrees>39.9382332153618335723876953125</LatitudeDegrees>
              <LongitudeDegrees>-6.206373833119869232177734375</LongitudeDegrees>
            </Position>
            <AltitudeMeters>248.1999969482421875</AltitudeMeters>
            <DistanceMeters>NAN</DistanceMeters>
          </Trackpoint>
          <Trackpoint>
            <Time>2019-10-08T10:06:45.000Z</Time>
            <Position>
              <LatitudeDegrees>39.93807488121092319488525390625</LatitudeDegrees>
              <LongitudeDegrees>-6.206664852797985076904296875</LongitudeDegrees>
            </Position>
            <AltitudeMeters>247.399993896484375</AltitudeMeters>
            <DistanceMeters>NAN</DistanceMeters>
          </Trackpoint>
          <Trackpoint>
            <Time>2019-10-08T10:06:48.000Z</Time>
            <Position>
              <LatitudeDegrees>39.93795820511877536773681640625</LatitudeDegrees>
              <LongitudeDegrees>-6.20688320137560367584228515625</LongitudeDegrees>
            </Position>
            <AltitudeMeters>247.399993896484375</AltitudeMeters>
            <DistanceMeters>NAN</DistanceMeters>
          </Trackpoint>
          <Trackpoint>
            <Time>2019-10-08T10:06:51.000Z</Time>
            <Position>
              <LatitudeDegrees>39.93784211575984954833984375</LatitudeDegrees>
              <LongitudeDegrees>-6.20709794573485851287841796875</LongitudeDegrees>
            </Position>
            <AltitudeMeters>247</AltitudeMeters>
            <DistanceMeters>NAN</DistanceMeters>
          </Trackpoint>
          <Trackpoint>
            <Time>2019-10-08T10:06:52.000Z</Time>
            <Position>
              <LatitudeDegrees>39.93780716322362422943115234375</LatitudeDegrees>
              <LongitudeDegrees>-6.20716181583702564239501953125</LongitudeDegrees>
            </Position>
            <AltitudeMeters>247</AltitudeMeters>
            <DistanceMeters>NAN</DistanceMeters>
          </Trackpoint>
          <Trackpoint>
            <Time>2019-10-08T10:06:55.000Z</Time>
            <Position>
              <LatitudeDegrees>39.93770800530910491943359375</LatitudeDegrees>
              <LongitudeDegrees>-6.20735426433384418487548828125</LongitudeDegrees>
            </Position>
            <AltitudeMeters>247</AltitudeMeters>
            <DistanceMeters>NAN</DistanceMeters>
          </Trackpoint>
          <Trackpoint>
            <Time>2019-10-08T10:06:57.000Z</Time>
            <Position>
              <LatitudeDegrees>39.937641955912113189697265625</LatitudeDegrees>
              <LongitudeDegrees>-6.20747697539627552032470703125</LongitudeDegrees>
            </Position>
            <AltitudeMeters>246.8000030517578125</AltitudeMeters>
            <DistanceMeters>NAN</DistanceMeters>
          </Trackpoint>
          <Trackpoint>
            <Time>2019-10-08T10:06:59.000Z</Time>
            <Position>
              <LatitudeDegrees>39.937581606209278106689453125</LatitudeDegrees>
              <LongitudeDegrees>-6.20758795179426670074462890625</LongitudeDegrees>
            </Position>
            <AltitudeMeters>246.8000030517578125</AltitudeMeters>
            <DistanceMeters>NAN</DistanceMeters>
          </Trackpoint>
          <Trackpoint>
            <Time>2019-10-08T10:07:02.000Z</Time>
            <Position>
              <LatitudeDegrees>39.93751161731779575347900390625</LatitudeDegrees>
              <LongitudeDegrees>-6.2077221460640430450439453125</LongitudeDegrees>
            </Position>
            <AltitudeMeters>246.8000030517578125</AltitudeMeters>
            <DistanceMeters>NAN</DistanceMeters>
          </Trackpoint>
          <Trackpoint>
            <Time>2019-10-08T10:07:04.000Z</Time>
            <Position>
              <LatitudeDegrees>39.93748269975185394287109375</LatitudeDegrees>
              <LongitudeDegrees>-6.20777922682464122772216796875</LongitudeDegrees>
            </Position>
            <AltitudeMeters>246.600006103515625</AltitudeMeters>
            <DistanceMeters>NAN</DistanceMeters>
          </Trackpoint>
          <Trackpoint>
            <Time>2019-10-08T10:07:07.000Z</Time>
            <Position>
              <LatitudeDegrees>39.93747733533382415771484375</LatitudeDegrees>
              <LongitudeDegrees>-6.20778962038457393646240234375</LongitudeDegrees>
            </Position>
            <AltitudeMeters>246.600006103515625</AltitudeMeters>
            <DistanceMeters>NAN</DistanceMeters>
          </Trackpoint>
          <Trackpoint>
            <Time>2019-10-08T10:07:10.000Z</Time>
            <Position>
              <LatitudeDegrees>39.93747674860060214996337890625</LatitudeDegrees>
              <LongitudeDegrees>-6.207789368927478790283203125</LongitudeDegrees>
            </Position>
            <AltitudeMeters>246.600006103515625</AltitudeMeters>
            <DistanceMeters>NAN</DistanceMeters>
          </Trackpoint>
          <Trackpoint>
            <Time>2019-10-08T10:07:12.000Z</Time>
            <Position>
              <LatitudeDegrees>39.93747574277222156524658203125</LatitudeDegrees>
              <LongitudeDegrees>-6.2077888660132884979248046875</LongitudeDegrees>
            </Position>
            <AltitudeMeters>246.600006103515625</AltitudeMeters>
            <DistanceMeters>NAN</DistanceMeters>
          </Trackpoint>
          <Trackpoint>
            <Time>2019-10-08T10:07:21.000Z</Time>
            <Position>
              <LatitudeDegrees>39.937481023371219635009765625</LatitudeDegrees>
              <LongitudeDegrees>-6.2077912129461765289306640625</LongitudeDegrees>
            </Position>
            <AltitudeMeters>246.399993896484375</AltitudeMeters>
            <DistanceMeters>NAN</DistanceMeters>
          </Trackpoint>
          <Trackpoint>
            <Time>2019-10-08T10:07:27.000Z</Time>
            <Position>
              <LatitudeDegrees>39.937481023371219635009765625</LatitudeDegrees>
              <LongitudeDegrees>-6.2077912129461765289306640625</LongitudeDegrees>
            </Position>
            <AltitudeMeters>246.399993896484375</AltitudeMeters>
            <DistanceMeters>NAN</DistanceMeters>
          </Trackpoint>
          <Trackpoint>
            <Time>2019-10-08T10:07:39.000Z</Time>
            <Position>
              <LatitudeDegrees>39.937481023371219635009765625</LatitudeDegrees>
              <LongitudeDegrees>-6.2077912129461765289306640625</LongitudeDegrees>
            </Position>
            <AltitudeMeters>246.399993896484375</AltitudeMeters>
            <DistanceMeters>NAN</DistanceMeters>
          </Trackpoint>
          <Trackpoint>
            <Time>2019-10-08T10:07:48.000Z</Time>
            <Position>
              <LatitudeDegrees>39.937481023371219635009765625</LatitudeDegrees>
              <LongitudeDegrees>-6.2077912129461765289306640625</LongitudeDegrees>
            </Position>
            <AltitudeMeters>246.8000030517578125</AltitudeMeters>
            <DistanceMeters>NAN</DistanceMeters>
          </Trackpoint>
          <Trackpoint>
            <Time>2019-10-08T10:07:50.000Z</Time>
            <Position>
              <LatitudeDegrees>39.937481023371219635009765625</LatitudeDegrees>
              <LongitudeDegrees>-6.2077912129461765289306640625</LongitudeDegrees>
            </Position>
            <AltitudeMeters>246.8000030517578125</AltitudeMeters>
            <DistanceMeters>NAN</DistanceMeters>
          </Trackpoint>
          <Trackpoint>
            <Time>2019-10-08T10:07:51.000Z</Time>
            <Position>
              <LatitudeDegrees>39.937481023371219635009765625</LatitudeDegrees>
              <LongitudeDegrees>-6.2077912129461765289306640625</LongitudeDegrees>
            </Position>
            <AltitudeMeters>246.8000030517578125</AltitudeMeters>
            <DistanceMeters>NAN</DistanceMeters>
          </Trackpoint>
          <Trackpoint>
            <Time>2019-10-08T10:07:53.000Z</Time>
            <Position>
              <LatitudeDegrees>39.937481023371219635009765625</LatitudeDegrees>
              <LongitudeDegrees>-6.2077912129461765289306640625</LongitudeDegrees>
            </Position>
            <AltitudeMeters>246.600006103515625</AltitudeMeters>
            <DistanceMeters>NAN</DistanceMeters>
          </Trackpoint>
          <Trackpoint>
            <Time>2019-10-08T10:07:54.000Z</Time>
            <Position>
              <LatitudeDegrees>39.937481023371219635009765625</LatitudeDegrees>
              <LongitudeDegrees>-6.2077875249087810516357421875</LongitudeDegrees>
            </Position>
            <AltitudeMeters>246.399993896484375</AltitudeMeters>
            <DistanceMeters>NAN</DistanceMeters>
          </Trackpoint>
          <Trackpoint>
            <Time>2019-10-08T10:07:56.000Z</Time>
            <Position>
              <LatitudeDegrees>39.937481023371219635009765625</LatitudeDegrees>
              <LongitudeDegrees>-6.2077875249087810516357421875</LongitudeDegrees>
            </Position>
            <AltitudeMeters>246.600006103515625</AltitudeMeters>
            <DistanceMeters>NAN</DistanceMeters>
          </Trackpoint>
          <Trackpoint>
            <Time>2019-10-08T10:08:00.000Z</Time>
            <Position>
              <LatitudeDegrees>39.937481023371219635009765625</LatitudeDegrees>
              <LongitudeDegrees>-6.2077875249087810516357421875</LongitudeDegrees>
            </Position>
            <AltitudeMeters>246.600006103515625</AltitudeMeters>
            <DistanceMeters>NAN</DistanceMeters>
          </Trackpoint>
          <Trackpoint>
            <Time>2019-10-08T10:08:08.000Z</Time>
            <Position>
              <LatitudeDegrees>39.937481023371219635009765625</LatitudeDegrees>
              <LongitudeDegrees>-6.2077875249087810516357421875</LongitudeDegrees>
            </Position>
            <AltitudeMeters>246.399993896484375</AltitudeMeters>
            <DistanceMeters>NAN</DistanceMeters>
          </Trackpoint>
          <Trackpoint>
            <Time>2019-10-08T10:08:09.000Z</Time>
            <Position>
              <LatitudeDegrees>39.937481023371219635009765625</LatitudeDegrees>
              <LongitudeDegrees>-6.2077875249087810516357421875</LongitudeDegrees>
            </Position>
            <AltitudeMeters>246.399993896484375</AltitudeMeters>
            <DistanceMeters>NAN</DistanceMeters>
          </Trackpoint>
          <Trackpoint>
            <Time>2019-10-08T10:08:11.000Z</Time>
            <Position>
              <LatitudeDegrees>39.937481023371219635009765625</LatitudeDegrees>
              <LongitudeDegrees>-6.2077875249087810516357421875</LongitudeDegrees>
            </Position>
            <AltitudeMeters>246.399993896484375</AltitudeMeters>
            <DistanceMeters>NAN</DistanceMeters>
          </Trackpoint>
          <Trackpoint>
            <Time>2019-10-08T10:08:22.000Z</Time>
            <Position>
              <LatitudeDegrees>39.937481023371219635009765625</LatitudeDegrees>
              <LongitudeDegrees>-6.2077875249087810516357421875</LongitudeDegrees>
            </Position>
            <AltitudeMeters>246.399993896484375</AltitudeMeters>
            <DistanceMeters>NAN</DistanceMeters>
          </Trackpoint>
          <Trackpoint>
            <Time>2019-10-08T10:08:23.000Z</Time>
            <Position>
              <LatitudeDegrees>39.937481023371219635009765625</LatitudeDegrees>
              <LongitudeDegrees>-6.2077875249087810516357421875</LongitudeDegrees>
            </Position>
            <AltitudeMeters>246.399993896484375</AltitudeMeters>
            <DistanceMeters>NAN</DistanceMeters>
          </Trackpoint>
          <Trackpoint>
            <Time>2019-10-08T10:08:24.000Z</Time>
            <Position>
              <LatitudeDegrees>39.937481023371219635009765625</LatitudeDegrees>
              <LongitudeDegrees>-6.2077875249087810516357421875</LongitudeDegrees>
            </Position>
            <AltitudeMeters>246.399993896484375</AltitudeMeters>
            <DistanceMeters>NAN</DistanceMeters>
          </Trackpoint>
          <Trackpoint>
            <Time>2019-10-08T10:08:28.000Z</Time>
            <Position>
              <LatitudeDegrees>39.937481023371219635009765625</LatitudeDegrees>
              <LongitudeDegrees>-6.2077875249087810516357421875</LongitudeDegrees>
            </Position>
            <AltitudeMeters>246.399993896484375</AltitudeMeters>
            <DistanceMeters>NAN</DistanceMeters>
          </Trackpoint>
          <Trackpoint>
            <Time>2019-10-08T10:08:32.000Z</Time>
            <Position>
              <LatitudeDegrees>39.937481023371219635009765625</LatitudeDegrees>
              <LongitudeDegrees>-6.2077875249087810516357421875</LongitudeDegrees>
            </Position>
            <AltitudeMeters>246.600006103515625</AltitudeMeters>
            <DistanceMeters>NAN</DistanceMeters>
          </Trackpoint>
          <Trackpoint>
            <Time>2019-10-08T10:08:37.000Z</Time>
            <Position>
              <LatitudeDegrees>39.93748261593282222747802734375</LatitudeDegrees>
              <LongitudeDegrees>-6.2077868543565273284912109375</LongitudeDegrees>
            </Position>
            <AltitudeMeters>246.600006103515625</AltitudeMeters>
            <DistanceMeters>NAN</DistanceMeters>
          </Trackpoint>
          <Trackpoint>
            <Time>2019-10-08T10:08:41.000Z</Time>
            <Position>
              <LatitudeDegrees>39.93748261593282222747802734375</LatitudeDegrees>
              <LongitudeDegrees>-6.2077868543565273284912109375</LongitudeDegrees>
            </Position>
            <AltitudeMeters>246.600006103515625</AltitudeMeters>
            <DistanceMeters>NAN</DistanceMeters>
          </Trackpoint>
          <Trackpoint>
            <Time>2019-10-08T10:08:45.000Z</Time>
            <Position>
              <LatitudeDegrees>39.93748261593282222747802734375</LatitudeDegrees>
              <LongitudeDegrees>-6.2077868543565273284912109375</LongitudeDegrees>
            </Position>
            <AltitudeMeters>246.399993896484375</AltitudeMeters>
            <DistanceMeters>NAN</DistanceMeters>
          </Trackpoint>
          <Trackpoint>
            <Time>2019-10-08T10:08:48.000Z</Time>
            <Position>
              <LatitudeDegrees>39.93748261593282222747802734375</LatitudeDegrees>
              <LongitudeDegrees>-6.2077868543565273284912109375</LongitudeDegrees>
            </Position>
            <AltitudeMeters>246.399993896484375</AltitudeMeters>
            <DistanceMeters>NAN</DistanceMeters>
          </Trackpoint>
          <Trackpoint>
            <Time>2019-10-08T10:08:52.000Z</Time>
            <Position>
              <LatitudeDegrees>39.93748261593282222747802734375</LatitudeDegrees>
              <LongitudeDegrees>-6.2077868543565273284912109375</LongitudeDegrees>
            </Position>
            <AltitudeMeters>246.1999969482421875</AltitudeMeters>
            <DistanceMeters>NAN</DistanceMeters>
          </Trackpoint>
          <Trackpoint>
            <Time>2019-10-08T10:08:54.000Z</Time>
            <Position>
              <LatitudeDegrees>39.93748261593282222747802734375</LatitudeDegrees>
              <LongitudeDegrees>-6.2077868543565273284912109375</LongitudeDegrees>
            </Position>
            <AltitudeMeters>246.600006103515625</AltitudeMeters>
            <DistanceMeters>NAN</DistanceMeters>
          </Trackpoint>
          <Trackpoint>
            <Time>2019-10-08T10:08:56.000Z</Time>
            <Position>
              <LatitudeDegrees>39.93748261593282222747802734375</LatitudeDegrees>
              <LongitudeDegrees>-6.2077868543565273284912109375</LongitudeDegrees>
            </Position>
            <AltitudeMeters>246.399993896484375</AltitudeMeters>
            <DistanceMeters>NAN</DistanceMeters>
          </Trackpoint>
          <Trackpoint>
            <Time>2019-10-08T10:08:59.000Z</Time>
            <Position>
              <LatitudeDegrees>39.93748261593282222747802734375</LatitudeDegrees>
              <LongitudeDegrees>-6.2077868543565273284912109375</LongitudeDegrees>
            </Position>
            <AltitudeMeters>246.399993896484375</AltitudeMeters>
            <DistanceMeters>NAN</DistanceMeters>
          </Trackpoint>
          <Trackpoint>
            <Time>2019-10-08T10:09:01.000Z</Time>
            <Position>
              <LatitudeDegrees>39.93748261593282222747802734375</LatitudeDegrees>
              <LongitudeDegrees>-6.2077868543565273284912109375</LongitudeDegrees>
            </Position>
            <AltitudeMeters>246.600006103515625</AltitudeMeters>
            <DistanceMeters>NAN</DistanceMeters>
          </Trackpoint>
          <Trackpoint>
            <Time>2019-10-08T10:09:02.000Z</Time>
            <Position>
              <LatitudeDegrees>39.93748261593282222747802734375</LatitudeDegrees>
              <LongitudeDegrees>-6.2077868543565273284912109375</LongitudeDegrees>
            </Position>
            <AltitudeMeters>246.399993896484375</AltitudeMeters>
            <DistanceMeters>NAN</DistanceMeters>
          </Trackpoint>
          <Trackpoint>
            <Time>2019-10-08T10:09:04.000Z</Time>
            <Position>
              <LatitudeDegrees>39.93748261593282222747802734375</LatitudeDegrees>
              <LongitudeDegrees>-6.2077868543565273284912109375</LongitudeDegrees>
            </Position>
            <AltitudeMeters>246.399993896484375</AltitudeMeters>
            <DistanceMeters>NAN</DistanceMeters>
          </Trackpoint>
          <Trackpoint>
            <Time>2019-10-08T10:09:09.000Z</Time>
            <Position>
              <LatitudeDegrees>39.93748261593282222747802734375</LatitudeDegrees>
              <LongitudeDegrees>-6.2077868543565273284912109375</LongitudeDegrees>
            </Position>
            <AltitudeMeters>246.399993896484375</AltitudeMeters>
            <DistanceMeters>NAN</DistanceMeters>
          </Trackpoint>
          <Trackpoint>
            <Time>2019-10-08T10:09:11.000Z</Time>
            <Position>
              <LatitudeDegrees>39.93748261593282222747802734375</LatitudeDegrees>
              <LongitudeDegrees>-6.2077868543565273284912109375</LongitudeDegrees>
            </Position>
            <AltitudeMeters>246.600006103515625</AltitudeMeters>
            <DistanceMeters>NAN</DistanceMeters>
          </Trackpoint>
          <Trackpoint>
            <Time>2019-10-08T10:09:13.000Z</Time>
            <Position>
              <LatitudeDegrees>39.93748261593282222747802734375</LatitudeDegrees>
              <LongitudeDegrees>-6.2077868543565273284912109375</LongitudeDegrees>
            </Position>
            <AltitudeMeters>246.600006103515625</AltitudeMeters>
            <DistanceMeters>NAN</DistanceMeters>
          </Trackpoint>
          <Trackpoint>
            <Time>2019-10-08T10:09:17.000Z</Time>
            <Position>
              <LatitudeDegrees>39.93748529814183712005615234375</LatitudeDegrees>
              <LongitudeDegrees>-6.2077804841101169586181640625</LongitudeDegrees>
            </Position>
            <AltitudeMeters>246.399993896484375</AltitudeMeters>
            <DistanceMeters>NAN</DistanceMeters>
          </Trackpoint>
          <Trackpoint>
            <Time>2019-10-08T10:09:29.000Z</Time>
            <Position>
              <LatitudeDegrees>39.93748529814183712005615234375</LatitudeDegrees>
              <LongitudeDegrees>-6.2077804841101169586181640625</LongitudeDegrees>
            </Position>
            <AltitudeMeters>246.399993896484375</AltitudeMeters>
            <DistanceMeters>NAN</DistanceMeters>
          </Trackpoint>
          <Trackpoint>
            <Time>2019-10-08T10:09:36.000Z</Time>
            <Position>
              <LatitudeDegrees>39.93748529814183712005615234375</LatitudeDegrees>
              <LongitudeDegrees>-6.2077804841101169586181640625</LongitudeDegrees>
            </Position>
            <AltitudeMeters>246.1999969482421875</AltitudeMeters>
            <DistanceMeters>NAN</DistanceMeters>
          </Trackpoint>
          <Trackpoint>
            <Time>2019-10-08T10:09:40.000Z</Time>
            <Position>
              <LatitudeDegrees>39.93748529814183712005615234375</LatitudeDegrees>
              <LongitudeDegrees>-6.2077804841101169586181640625</LongitudeDegrees>
            </Position>
            <AltitudeMeters>246.1999969482421875</AltitudeMeters>
            <DistanceMeters>NAN</DistanceMeters>
          </Trackpoint>
          <Trackpoint>
            <Time>2019-10-08T10:09:47.000Z</Time>
            <Position>
              <LatitudeDegrees>39.93748529814183712005615234375</LatitudeDegrees>
              <LongitudeDegrees>-6.2077804841101169586181640625</LongitudeDegrees>
            </Position>
            <AltitudeMeters>246.1999969482421875</AltitudeMeters>
            <DistanceMeters>NAN</DistanceMeters>
          </Trackpoint>
          <Trackpoint>
            <Time>2019-10-08T10:09:48.000Z</Time>
            <Position>
              <LatitudeDegrees>39.93748529814183712005615234375</LatitudeDegrees>
              <LongitudeDegrees>-6.2077804841101169586181640625</LongitudeDegrees>
            </Position>
            <AltitudeMeters>246</AltitudeMeters>
            <DistanceMeters>NAN</DistanceMeters>
          </Trackpoint>
          <Trackpoint>
            <Time>2019-10-08T10:09:54.000Z</Time>
            <Position>
              <LatitudeDegrees>39.9374848790466785430908203125</LatitudeDegrees>
              <LongitudeDegrees>-6.20778509415686130523681640625</LongitudeDegrees>
            </Position>
            <AltitudeMeters>246.399993896484375</AltitudeMeters>
            <DistanceMeters>NAN</DistanceMeters>
          </Trackpoint>
          <Trackpoint>
            <Time>2019-10-08T10:10:01.000Z</Time>
            <Position>
              <LatitudeDegrees>39.9374433048069477081298828125</LatitudeDegrees>
              <LongitudeDegrees>-6.2078632973134517669677734375</LongitudeDegrees>
            </Position>
            <AltitudeMeters>246</AltitudeMeters>
            <DistanceMeters>NAN</DistanceMeters>
          </Trackpoint>
          <Trackpoint>
            <Time>2019-10-08T10:10:05.000Z</Time>
            <Position>
              <LatitudeDegrees>39.93736107833683490753173828125</LatitudeDegrees>
              <LongitudeDegrees>-6.2080034427344799041748046875</LongitudeDegrees>
            </Position>
            <AltitudeMeters>245.1999969482421875</AltitudeMeters>
            <DistanceMeters>NAN</DistanceMeters>
          </Trackpoint>
          <Trackpoint>
            <Time>2019-10-08T10:10:06.000Z</Time>
            <Position>
              <LatitudeDegrees>39.93733459152281284332275390625</LatitudeDegrees>
              <LongitudeDegrees>-6.20805323123931884765625</LongitudeDegrees>
            </Position>
            <AltitudeMeters>245</AltitudeMeters>
            <DistanceMeters>NAN</DistanceMeters>
          </Trackpoint>
          <Trackpoint>
            <Time>2019-10-08T10:10:10.000Z</Time>
            <Position>
              <LatitudeDegrees>39.93721238337457180023193359375</LatitudeDegrees>
              <LongitudeDegrees>-6.208275519311428070068359375</LongitudeDegrees>
            </Position>
            <AltitudeMeters>244.399993896484375</AltitudeMeters>
            <DistanceMeters>NAN</DistanceMeters>
          </Trackpoint>
          <Trackpoint>
            <Time>2019-10-08T10:10:11.000Z</Time>
            <Position>
              <LatitudeDegrees>39.9371774308383464813232421875</LatitudeDegrees>
              <LongitudeDegrees>-6.20833561755716800689697265625</LongitudeDegrees>
            </Position>
            <AltitudeMeters>244</AltitudeMeters>
            <DistanceMeters>NAN</DistanceMeters>
          </Trackpoint>
          <Trackpoint>
            <Time>2019-10-08T10:10:14.000Z</Time>
            <Position>
              <LatitudeDegrees>39.93707458488643169403076171875</LatitudeDegrees>
              <LongitudeDegrees>-6.20853259228169918060302734375</LongitudeDegrees>
            </Position>
            <AltitudeMeters>243.8000030517578125</AltitudeMeters>
            <DistanceMeters>NAN</DistanceMeters>
          </Trackpoint>
          <Trackpoint>
            <Time>2019-10-08T10:10:16.000Z</Time>
            <Position>
              <LatitudeDegrees>39.93700199760496616363525390625</LatitudeDegrees>
              <LongitudeDegrees>-6.2086649425327777862548828125</LongitudeDegrees>
            </Position>
            <AltitudeMeters>243</AltitudeMeters>
            <DistanceMeters>NAN</DistanceMeters>
          </Trackpoint>
          <Trackpoint>
            <Time>2019-10-08T10:10:19.000Z</Time>
            <Position>
              <LatitudeDegrees>39.93689018301665782928466796875</LatitudeDegrees>
              <LongitudeDegrees>-6.2088711373507976531982421875</LongitudeDegrees>
            </Position>
            <AltitudeMeters>243.600006103515625</AltitudeMeters>
            <DistanceMeters>NAN</DistanceMeters>
          </Trackpoint>
          <Trackpoint>
            <Time>2019-10-08T10:10:21.000Z</Time>
            <Position>
              <LatitudeDegrees>39.9368141591548919677734375</LatitudeDegrees>
              <LongitudeDegrees>-6.20901522226631641387939453125</LongitudeDegrees>
            </Position>
            <AltitudeMeters>244.1999969482421875</AltitudeMeters>
            <DistanceMeters>NAN</DistanceMeters>
          </Trackpoint>
          <Trackpoint>
            <Time>2019-10-08T10:10:24.000Z</Time>
            <Position>
              <LatitudeDegrees>39.93670083582401275634765625</LatitudeDegrees>
              <LongitudeDegrees>-6.20922979898750782012939453125</LongitudeDegrees>
            </Position>
            <AltitudeMeters>243.1999969482421875</AltitudeMeters>
            <DistanceMeters>NAN</DistanceMeters>
          </Trackpoint>
          <Trackpoint>
            <Time>2019-10-08T10:10:29.000Z</Time>
            <Position>
              <LatitudeDegrees>39.936512410640716552734375</LatitudeDegrees>
              <LongitudeDegrees>-6.20957915671169757843017578125</LongitudeDegrees>
            </Position>
            <AltitudeMeters>242.600006103515625</AltitudeMeters>
            <DistanceMeters>NAN</DistanceMeters>
          </Trackpoint>
          <Trackpoint>
            <Time>2019-10-08T10:10:38.000Z</Time>
            <Position>
              <LatitudeDegrees>39.9361762963235378265380859375</LatitudeDegrees>
              <LongitudeDegrees>-6.21020947583019733428955078125</LongitudeDegrees>
            </Position>
            <AltitudeMeters>243</AltitudeMeters>
            <DistanceMeters>NAN</DistanceMeters>
          </Trackpoint>
          <Trackpoint>
            <Time>2019-10-08T10:10:39.000Z</Time>
            <Position>
              <LatitudeDegrees>39.9361382424831390380859375</LatitudeDegrees>
              <LongitudeDegrees>-6.2102806381881237030029296875</LongitudeDegrees>
            </Position>
            <AltitudeMeters>243.1999969482421875</AltitudeMeters>
            <DistanceMeters>NAN</DistanceMeters>
          </Trackpoint>
          <Trackpoint>
            <Time>2019-10-08T10:10:44.000Z</Time>
            <Position>
              <LatitudeDegrees>39.93594847619533538818359375</LatitudeDegrees>
              <LongitudeDegrees>-6.2106320075690746307373046875</LongitudeDegrees>
            </Position>
            <AltitudeMeters>243</AltitudeMeters>
            <DistanceMeters>NAN</DistanceMeters>
          </Trackpoint>
          <Trackpoint>
            <Time>2019-10-08T10:10:48.000Z</Time>
            <Position>
              <LatitudeDegrees>39.9357947520911693572998046875</LatitudeDegrees>
              <LongitudeDegrees>-6.21091556735336780548095703125</LongitudeDegrees>
            </Position>
            <AltitudeMeters>243.1999969482421875</AltitudeMeters>
            <DistanceMeters>NAN</DistanceMeters>
          </Trackpoint>
          <Trackpoint>
            <Time>2019-10-08T10:10:56.000Z</Time>
            <Position>
              <LatitudeDegrees>39.93547246791422367095947265625</LatitudeDegrees>
              <LongitudeDegrees>-6.21150112710893154144287109375</LongitudeDegrees>
            </Position>
            <AltitudeMeters>242.8000030517578125</AltitudeMeters>
            <DistanceMeters>NAN</DistanceMeters>
          </Trackpoint>
          <Trackpoint>
            <Time>2019-10-08T10:10:59.000Z</Time>
            <Position>
              <LatitudeDegrees>39.9353563785552978515625</LatitudeDegrees>
              <LongitudeDegrees>-6.21172106824815273284912109375</LongitudeDegrees>
            </Position>
            <AltitudeMeters>243</AltitudeMeters>
            <DistanceMeters>NAN</DistanceMeters>
          </Trackpoint>
          <Trackpoint>
            <Time>2019-10-08T10:11:07.000Z</Time>
            <Position>
              <LatitudeDegrees>39.93504633195698261260986328125</LatitudeDegrees>
              <LongitudeDegrees>-6.212308220565319061279296875</LongitudeDegrees>
            </Position>
            <AltitudeMeters>243.8000030517578125</AltitudeMeters>
            <DistanceMeters>NAN</DistanceMeters>
          </Trackpoint>
          <Trackpoint>
            <Time>2019-10-08T10:11:08.000Z</Time>
            <Position>
              <LatitudeDegrees>39.93500593118369579315185546875</LatitudeDegrees>
              <LongitudeDegrees>-6.2123804725706577301025390625</LongitudeDegrees>
            </Position>
            <AltitudeMeters>243.600006103515625</AltitudeMeters>
            <DistanceMeters>NAN</DistanceMeters>
          </Trackpoint>
          <Trackpoint>
            <Time>2019-10-08T10:11:15.000Z</Time>
            <Position>
              <LatitudeDegrees>39.93473745882511138916015625</LatitudeDegrees>
              <LongitudeDegrees>-6.2128793634474277496337890625</LongitudeDegrees>
            </Position>
            <AltitudeMeters>244.399993896484375</AltitudeMeters>
            <DistanceMeters>NAN</DistanceMeters>
          </Trackpoint>
          <Trackpoint>
            <Time>2019-10-08T10:11:18.000Z</Time>
            <Position>
              <LatitudeDegrees>39.93462338112294673919677734375</LatitudeDegrees>
              <LongitudeDegrees>-6.2130952812731266021728515625</LongitudeDegrees>
            </Position>
            <AltitudeMeters>244.399993896484375</AltitudeMeters>
            <DistanceMeters>NAN</DistanceMeters>
          </Trackpoint>
          <Trackpoint>
            <Time>2019-10-08T10:11:25.000Z</Time>
            <Position>
              <LatitudeDegrees>39.93435390293598175048828125</LatitudeDegrees>
              <LongitudeDegrees>-6.21358721517026424407958984375</LongitudeDegrees>
            </Position>
            <AltitudeMeters>244.399993896484375</AltitudeMeters>
            <DistanceMeters>NAN</DistanceMeters>
          </Trackpoint>
          <Trackpoint>
            <Time>2019-10-08T10:11:30.000Z</Time>
            <Position>
              <LatitudeDegrees>39.93416824378073215484619140625</LatitudeDegrees>
              <LongitudeDegrees>-6.21394135057926177978515625</LongitudeDegrees>
            </Position>
            <AltitudeMeters>244.1999969482421875</AltitudeMeters>
            <DistanceMeters>NAN</DistanceMeters>
          </Trackpoint>
          <Trackpoint>
            <Time>2019-10-08T10:11:35.000Z</Time>
            <Position>
              <LatitudeDegrees>39.93397763930261135101318359375</LatitudeDegrees>
              <LongitudeDegrees>-6.21428643353283405303955078125</LongitudeDegrees>
            </Position>
            <AltitudeMeters>245</AltitudeMeters>
            <DistanceMeters>NAN</DistanceMeters>
          </Trackpoint>
          <Trackpoint>
            <Time>2019-10-08T10:11:40.000Z</Time>
            <Position>
              <LatitudeDegrees>39.9337918125092983245849609375</LatitudeDegrees>
              <LongitudeDegrees>-6.21463361196219921112060546875</LongitudeDegrees>
            </Position>
            <AltitudeMeters>245.600006103515625</AltitudeMeters>
            <DistanceMeters>NAN</DistanceMeters>
          </Trackpoint>
          <Trackpoint>
            <Time>2019-10-08T10:11:46.000Z</Time>
            <Position>
              <LatitudeDegrees>39.93356491439044475555419921875</LatitudeDegrees>
              <LongitudeDegrees>-6.21505304239690303802490234375</LongitudeDegrees>
            </Position>
            <AltitudeMeters>245.399993896484375</AltitudeMeters>
            <DistanceMeters>NAN</DistanceMeters>
          </Trackpoint>
          <Trackpoint>
            <Time>2019-10-08T10:11:54.000Z</Time>
            <Position>
              <LatitudeDegrees>39.93326894938945770263671875</LatitudeDegrees>
              <LongitudeDegrees>-6.21560566127300262451171875</LongitudeDegrees>
            </Position>
            <AltitudeMeters>246</AltitudeMeters>
            <DistanceMeters>NAN</DistanceMeters>
          </Trackpoint>
          <Trackpoint>
            <Time>2019-10-08T10:11:56.000Z</Time>
            <Position>
              <LatitudeDegrees>39.93319292552769184112548828125</LatitudeDegrees>
              <LongitudeDegrees>-6.21574438177049160003662109375</LongitudeDegrees>
            </Position>
            <AltitudeMeters>246.600006103515625</AltitudeMeters>
            <DistanceMeters>NAN</DistanceMeters>
          </Trackpoint>
          <Trackpoint>
            <Time>2019-10-08T10:12:02.000Z</Time>
            <Position>
              <LatitudeDegrees>39.932978935539722442626953125</LatitudeDegrees>
              <LongitudeDegrees>-6.21615593321621417999267578125</LongitudeDegrees>
            </Position>
            <AltitudeMeters>246.600006103515625</AltitudeMeters>
            <DistanceMeters>NAN</DistanceMeters>
          </Trackpoint>
          <Trackpoint>
            <Time>2019-10-08T10:12:10.000Z</Time>
            <Position>
              <LatitudeDegrees>39.93269185535609722137451171875</LatitudeDegrees>
              <LongitudeDegrees>-6.21668315492570400238037109375</LongitudeDegrees>
            </Position>
            <AltitudeMeters>247.399993896484375</AltitudeMeters>
            <DistanceMeters>NAN</DistanceMeters>
          </Trackpoint>
          <Trackpoint>
            <Time>2019-10-08T10:12:14.000Z</Time>
            <Position>
              <LatitudeDegrees>39.932549782097339630126953125</LatitudeDegrees>
              <LongitudeDegrees>-6.2169539742171764373779296875</LongitudeDegrees>
            </Position>
            <AltitudeMeters>247.600006103515625</AltitudeMeters>
            <DistanceMeters>NAN</DistanceMeters>
          </Trackpoint>
          <Trackpoint>
            <Time>2019-10-08T10:12:20.000Z</Time>
            <Position>
              <LatitudeDegrees>39.93233294226229190826416015625</LatitudeDegrees>
              <LongitudeDegrees>-6.2173512764275074005126953125</LongitudeDegrees>
            </Position>
            <AltitudeMeters>248</AltitudeMeters>
            <DistanceMeters>NAN</DistanceMeters>
          </Trackpoint>
          <Trackpoint>
            <Time>2019-10-08T10:12:29.000Z</Time>
            <Position>
              <LatitudeDegrees>39.93200688622891902923583984375</LatitudeDegrees>
              <LongitudeDegrees>-6.2179490737617015838623046875</LongitudeDegrees>
            </Position>
            <AltitudeMeters>248.600006103515625</AltitudeMeters>
            <DistanceMeters>NAN</DistanceMeters>
          </Trackpoint>
          <Trackpoint>
            <Time>2019-10-08T10:12:30.000Z</Time>
            <Position>
              <LatitudeDegrees>39.931973107159137725830078125</LatitudeDegrees>
              <LongitudeDegrees>-6.21801453642547130584716796875</LongitudeDegrees>
            </Position>
            <AltitudeMeters>248.600006103515625</AltitudeMeters>
            <DistanceMeters>NAN</DistanceMeters>
          </Trackpoint>
          <Trackpoint>
            <Time>2019-10-08T10:12:31.000Z</Time>
            <Position>
              <LatitudeDegrees>39.9319352209568023681640625</LatitudeDegrees>
              <LongitudeDegrees>-6.218085028231143951416015625</LongitudeDegrees>
            </Position>
            <AltitudeMeters>248.600006103515625</AltitudeMeters>
            <DistanceMeters>NAN</DistanceMeters>
          </Trackpoint>
          <Trackpoint>
            <Time>2019-10-08T10:12:38.000Z</Time>
            <Position>
              <LatitudeDegrees>39.931683428585529327392578125</LatitudeDegrees>
              <LongitudeDegrees>-6.21855315752327442169189453125</LongitudeDegrees>
            </Position>
            <AltitudeMeters>248.600006103515625</AltitudeMeters>
            <DistanceMeters>NAN</DistanceMeters>
          </Trackpoint>
          <Trackpoint>
            <Time>2019-10-08T10:12:42.000Z</Time>
            <Position>
              <LatitudeDegrees>39.93154588155448436737060546875</LatitudeDegrees>
              <LongitudeDegrees>-6.21880955994129180908203125</LongitudeDegrees>
            </Position>
            <AltitudeMeters>249.8000030517578125</AltitudeMeters>
            <DistanceMeters>NAN</DistanceMeters>
          </Trackpoint>
          <Trackpoint>
            <Time>2019-10-08T10:12:48.000Z</Time>
            <Position>
              <LatitudeDegrees>39.9313503317534923553466796875</LatitudeDegrees>
              <LongitudeDegrees>-6.2191667966544628143310546875</LongitudeDegrees>
            </Position>
            <AltitudeMeters>251.399993896484375</AltitudeMeters>
            <DistanceMeters>NAN</DistanceMeters>
          </Trackpoint>
          <Trackpoint>
            <Time>2019-10-08T10:12:57.000Z</Time>
            <Position>
              <LatitudeDegrees>39.9310797639191150665283203125</LatitudeDegrees>
              <LongitudeDegrees>-6.21967256069183349609375</LongitudeDegrees>
            </Position>
            <AltitudeMeters>252.399993896484375</AltitudeMeters>
            <DistanceMeters>NAN</DistanceMeters>
          </Trackpoint>
          <Trackpoint>
            <Time>2019-10-08T10:12:58.000Z</Time>
            <Position>
              <LatitudeDegrees>39.93104849942028522491455078125</LatitudeDegrees>
              <LongitudeDegrees>-6.2197275459766387939453125</LongitudeDegrees>
            </Position>
            <AltitudeMeters>252.600006103515625</AltitudeMeters>
            <DistanceMeters>NAN</DistanceMeters>
          </Trackpoint>
          <Trackpoint>
            <Time>2019-10-08T10:13:05.000Z</Time>
            <Position>
              <LatitudeDegrees>39.93084163405001163482666015625</LatitudeDegrees>
              <LongitudeDegrees>-6.22011755593121051788330078125</LongitudeDegrees>
            </Position>
            <AltitudeMeters>253.600006103515625</AltitudeMeters>
            <DistanceMeters>NAN</DistanceMeters>
          </Trackpoint>
          <Trackpoint>
            <Time>2019-10-08T10:13:08.000Z</Time>
            <Position>
              <LatitudeDegrees>39.93074943311512470245361328125</LatitudeDegrees>
              <LongitudeDegrees>-6.2202829308807849884033203125</LongitudeDegrees>
            </Position>
            <AltitudeMeters>254</AltitudeMeters>
            <DistanceMeters>NAN</DistanceMeters>
          </Trackpoint>
          <Trackpoint>
            <Time>2019-10-08T10:13:10.000Z</Time>
            <Position>
              <LatitudeDegrees>39.93068774230778217315673828125</LatitudeDegrees>
              <LongitudeDegrees>-6.2203967571258544921875</LongitudeDegrees>
            </Position>
            <AltitudeMeters>254.600006103515625</AltitudeMeters>
            <DistanceMeters>NAN</DistanceMeters>
          </Trackpoint>
          <Trackpoint>
            <Time>2019-10-08T10:13:18.000Z</Time>
            <Position>
              <LatitudeDegrees>39.930450618267059326171875</LatitudeDegrees>
              <LongitudeDegrees>-6.2208539061248302459716796875</LongitudeDegrees>
            </Position>
            <AltitudeMeters>255.399993896484375</AltitudeMeters>
            <DistanceMeters>NAN</DistanceMeters>
          </Trackpoint>
          <Trackpoint>
            <Time>2019-10-08T10:13:25.000Z</Time>
            <Position>
              <LatitudeDegrees>39.9302345328032970428466796875</LatitudeDegrees>
              <LongitudeDegrees>-6.221250034868717193603515625</LongitudeDegrees>
            </Position>
            <AltitudeMeters>255.600006103515625</AltitudeMeters>
            <DistanceMeters>NAN</DistanceMeters>
          </Trackpoint>
          <Trackpoint>
            <Time>2019-10-08T10:13:28.000Z</Time>
            <Position>
              <LatitudeDegrees>39.9301446788012981414794921875</LatitudeDegrees>
              <LongitudeDegrees>-6.2214201875030994415283203125</LongitudeDegrees>
            </Position>
            <AltitudeMeters>255.8000030517578125</AltitudeMeters>
            <DistanceMeters>NAN</DistanceMeters>
          </Trackpoint>
          <Trackpoint>
            <Time>2019-10-08T10:13:36.000Z</Time>
            <Position>
              <LatitudeDegrees>39.9298878572881221771240234375</LatitudeDegrees>
              <LongitudeDegrees>-6.2218832038342952728271484375</LongitudeDegrees>
            </Position>
            <AltitudeMeters>256.399993896484375</AltitudeMeters>
            <DistanceMeters>NAN</DistanceMeters>
          </Trackpoint>
          <Trackpoint>
            <Time>2019-10-08T10:13:40.000Z</Time>
            <Position>
              <LatitudeDegrees>39.92976170964539051055908203125</LatitudeDegrees>
              <LongitudeDegrees>-6.222119070589542388916015625</LongitudeDegrees>
            </Position>
            <AltitudeMeters>257</AltitudeMeters>
            <DistanceMeters>NAN</DistanceMeters>
          </Trackpoint>
          <Trackpoint>
            <Time>2019-10-08T10:13:47.000Z</Time>
            <Position>
              <LatitudeDegrees>39.92953724227845668792724609375</LatitudeDegrees>
              <LongitudeDegrees>-6.2225406803190708160400390625</LongitudeDegrees>
            </Position>
            <AltitudeMeters>256.79998779296875</AltitudeMeters>
            <DistanceMeters>NAN</DistanceMeters>
          </Trackpoint>
          <Trackpoint>
            <Time>2019-10-08T10:13:53.000Z</Time>
            <Position>
              <LatitudeDegrees>39.9293443746864795684814453125</LatitudeDegrees>
              <LongitudeDegrees>-6.22290420345962047576904296875</LongitudeDegrees>
            </Position>
            <AltitudeMeters>256.79998779296875</AltitudeMeters>
            <DistanceMeters>NAN</DistanceMeters>
          </Trackpoint>
          <Trackpoint>
            <Time>2019-10-08T10:13:59.000Z</Time>
            <Position>
              <LatitudeDegrees>39.92914882488548755645751953125</LatitudeDegrees>
              <LongitudeDegrees>-6.22326915152370929718017578125</LongitudeDegrees>
            </Position>
            <AltitudeMeters>257.399993896484375</AltitudeMeters>
            <DistanceMeters>NAN</DistanceMeters>
          </Trackpoint>
          <Trackpoint>
            <Time>2019-10-08T10:14:04.000Z</Time>
            <Position>
              <LatitudeDegrees>39.92896668612957000732421875</LatitudeDegrees>
              <LongitudeDegrees>-6.2236162461340427398681640625</LongitudeDegrees>
            </Position>
            <AltitudeMeters>256.79998779296875</AltitudeMeters>
            <DistanceMeters>NAN</DistanceMeters>
          </Trackpoint>
          <Trackpoint>
            <Time>2019-10-08T10:14:10.000Z</Time>
            <Position>
              <LatitudeDegrees>39.92878437973558902740478515625</LatitudeDegrees>
              <LongitudeDegrees>-6.223945654928684234619140625</LongitudeDegrees>
            </Position>
            <AltitudeMeters>257.20001220703125</AltitudeMeters>
            <DistanceMeters>NAN</DistanceMeters>
          </Trackpoint>
          <Trackpoint>
            <Time>2019-10-08T10:14:20.000Z</Time>
            <Position>
              <LatitudeDegrees>39.92846284992992877960205078125</LatitudeDegrees>
              <LongitudeDegrees>-6.22454303316771984100341796875</LongitudeDegrees>
            </Position>
            <AltitudeMeters>257.79998779296875</AltitudeMeters>
            <DistanceMeters>NAN</DistanceMeters>
          </Trackpoint>
          <Trackpoint>
            <Time>2019-10-08T10:14:21.000Z</Time>
            <Position>
              <LatitudeDegrees>39.928430579602718353271484375</LatitudeDegrees>
              <LongitudeDegrees>-6.22460313141345977783203125</LongitudeDegrees>
            </Position>
            <AltitudeMeters>257.600006103515625</AltitudeMeters>
            <DistanceMeters>NAN</DistanceMeters>
          </Trackpoint>
          <Trackpoint>
            <Time>2019-10-08T10:14:24.000Z</Time>
            <Position>
              <LatitudeDegrees>39.92833762429654598236083984375</LatitudeDegrees>
              <LongitudeDegrees>-6.224789209663867950439453125</LongitudeDegrees>
            </Position>
            <AltitudeMeters>258.20001220703125</AltitudeMeters>
            <DistanceMeters>NAN</DistanceMeters>
          </Trackpoint>
          <Trackpoint>
            <Time>2019-10-08T10:14:27.000Z</Time>
            <Position>
              <LatitudeDegrees>39.92824207060039043426513671875</LatitudeDegrees>
              <LongitudeDegrees>-6.2249697558581829071044921875</LongitudeDegrees>
            </Position>
            <AltitudeMeters>258.20001220703125</AltitudeMeters>
            <DistanceMeters>NAN</DistanceMeters>
          </Trackpoint>
          <Trackpoint>
            <Time>2019-10-08T10:14:29.000Z</Time>
            <Position>
              <LatitudeDegrees>39.92817652411758899688720703125</LatitudeDegrees>
              <LongitudeDegrees>-6.225088946521282196044921875</LongitudeDegrees>
            </Position>
            <AltitudeMeters>258.600006103515625</AltitudeMeters>
            <DistanceMeters>NAN</DistanceMeters>
          </Trackpoint>
          <Trackpoint>
            <Time>2019-10-08T10:14:39.000Z</Time>
            <Position>
              <LatitudeDegrees>39.92786161601543426513671875</LatitudeDegrees>
              <LongitudeDegrees>-6.2256969697773456573486328125</LongitudeDegrees>
            </Position>
            <AltitudeMeters>259.399993896484375</AltitudeMeters>
            <DistanceMeters>NAN</DistanceMeters>
          </Trackpoint>
          <Trackpoint>
            <Time>2019-10-08T10:14:41.000Z</Time>
            <Position>
              <LatitudeDegrees>39.9278019368648529052734375</LatitudeDegrees>
              <LongitudeDegrees>-6.22582362033426761627197265625</LongitudeDegrees>
            </Position>
            <AltitudeMeters>259.600006103515625</AltitudeMeters>
            <DistanceMeters>NAN</DistanceMeters>
          </Trackpoint>
          <Trackpoint>
            <Time>2019-10-08T10:14:45.000Z</Time>
            <Position>
              <LatitudeDegrees>39.9276807345449924468994140625</LatitudeDegrees>
              <LongitudeDegrees>-6.22607055120170116424560546875</LongitudeDegrees>
            </Position>
            <AltitudeMeters>260.399993896484375</AltitudeMeters>
            <DistanceMeters>NAN</DistanceMeters>
          </Trackpoint>
          <Trackpoint>
            <Time>2019-10-08T10:14:48.000Z</Time>
            <Position>
              <LatitudeDegrees>39.9275915510952472686767578125</LatitudeDegrees>
              <LongitudeDegrees>-6.22624891810119152069091796875</LongitudeDegrees>
            </Position>
            <AltitudeMeters>260.20001220703125</AltitudeMeters>
            <DistanceMeters>NAN</DistanceMeters>
          </Trackpoint>
          <Trackpoint>
            <Time>2019-10-08T10:14:57.000Z</Time>
            <Position>
              <LatitudeDegrees>39.92731100879609584808349609375</LatitudeDegrees>
              <LongitudeDegrees>-6.2267795763909816741943359375</LongitudeDegrees>
            </Position>
            <AltitudeMeters>261</AltitudeMeters>
            <DistanceMeters>NAN</DistanceMeters>
          </Trackpoint>
          <Trackpoint>
            <Time>2019-10-08T10:14:59.000Z</Time>
            <Position>
              <LatitudeDegrees>39.92724747397005558013916015625</LatitudeDegrees>
              <LongitudeDegrees>-6.2268969230353832244873046875</LongitudeDegrees>
            </Position>
            <AltitudeMeters>261.399993896484375</AltitudeMeters>
            <DistanceMeters>NAN</DistanceMeters>
          </Trackpoint>
          <Trackpoint>
            <Time>2019-10-08T10:15:05.000Z</Time>
            <Position>
              <LatitudeDegrees>39.92705251090228557586669921875</LatitudeDegrees>
              <LongitudeDegrees>-6.22724418528378009796142578125</LongitudeDegrees>
            </Position>
            <AltitudeMeters>261.79998779296875</AltitudeMeters>
            <DistanceMeters>NAN</DistanceMeters>
          </Trackpoint>
          <Trackpoint>
            <Time>2019-10-08T10:15:12.000Z</Time>
            <Position>
              <LatitudeDegrees>39.9268344976007938385009765625</LatitudeDegrees>
              <LongitudeDegrees>-6.22765992768108844757080078125</LongitudeDegrees>
            </Position>
            <AltitudeMeters>262</AltitudeMeters>
            <DistanceMeters>NAN</DistanceMeters>
          </Trackpoint>
          <Trackpoint>
            <Time>2019-10-08T10:15:15.000Z</Time>
            <Position>
              <LatitudeDegrees>39.926740787923336029052734375</LatitudeDegrees>
              <LongitudeDegrees>-6.22783158905804157257080078125</LongitudeDegrees>
            </Position>
            <AltitudeMeters>262.399993896484375</AltitudeMeters>
            <DistanceMeters>NAN</DistanceMeters>
          </Trackpoint>
          <Trackpoint>
            <Time>2019-10-08T10:15:21.000Z</Time>
            <Position>
              <LatitudeDegrees>39.92655663751065731048583984375</LatitudeDegrees>
              <LongitudeDegrees>-6.22818656265735626220703125</LongitudeDegrees>
            </Position>
            <AltitudeMeters>262.600006103515625</AltitudeMeters>
            <DistanceMeters>NAN</DistanceMeters>
          </Trackpoint>
          <Trackpoint>
            <Time>2019-10-08T10:15:25.000Z</Time>
            <Position>
              <LatitudeDegrees>39.926433674991130828857421875</LatitudeDegrees>
              <LongitudeDegrees>-6.22841748408973217010498046875</LongitudeDegrees>
            </Position>
            <AltitudeMeters>263.399993896484375</AltitudeMeters>
            <DistanceMeters>NAN</DistanceMeters>
          </Trackpoint>
          <Trackpoint>
            <Time>2019-10-08T10:15:30.000Z</Time>
            <Position>
              <LatitudeDegrees>39.92627282626926898956298828125</LatitudeDegrees>
              <LongitudeDegrees>-6.2287129461765289306640625</LongitudeDegrees>
            </Position>
            <AltitudeMeters>264</AltitudeMeters>
            <DistanceMeters>NAN</DistanceMeters>
          </Trackpoint>
          <Trackpoint>
            <Time>2019-10-08T10:15:34.000Z</Time>
            <Position>
              <LatitudeDegrees>39.92614877410233020782470703125</LatitudeDegrees>
              <LongitudeDegrees>-6.22894805856049060821533203125</LongitudeDegrees>
            </Position>
            <AltitudeMeters>264.600006103515625</AltitudeMeters>
            <DistanceMeters>NAN</DistanceMeters>
          </Trackpoint>
          <Trackpoint>
            <Time>2019-10-08T10:15:40.000Z</Time>
            <Position>
              <LatitudeDegrees>39.9259537272155284881591796875</LatitudeDegrees>
              <LongitudeDegrees>-6.2293052114546298980712890625</LongitudeDegrees>
            </Position>
            <AltitudeMeters>265.20001220703125</AltitudeMeters>
            <DistanceMeters>NAN</DistanceMeters>
          </Trackpoint>
          <Trackpoint>
            <Time>2019-10-08T10:15:44.000Z</Time>
            <Position>
              <LatitudeDegrees>39.925818778574466705322265625</LatitudeDegrees>
              <LongitudeDegrees>-6.229540072381496429443359375</LongitudeDegrees>
            </Position>
            <AltitudeMeters>265.600006103515625</AltitudeMeters>
            <DistanceMeters>NAN</DistanceMeters>
          </Trackpoint>
          <Trackpoint>
            <Time>2019-10-08T10:15:51.000Z</Time>
            <Position>
              <LatitudeDegrees>39.9255839176476001739501953125</LatitudeDegrees>
              <LongitudeDegrees>-6.22994902543723583221435546875</LongitudeDegrees>
            </Position>
            <AltitudeMeters>266.20001220703125</AltitudeMeters>
            <DistanceMeters>NAN</DistanceMeters>
          </Trackpoint>
          <Trackpoint>
            <Time>2019-10-08T10:15:55.000Z</Time>
            <Position>
              <LatitudeDegrees>39.92545743472874164581298828125</LatitudeDegrees>
              <LongitudeDegrees>-6.230183802545070648193359375</LongitudeDegrees>
            </Position>
            <AltitudeMeters>266.600006103515625</AltitudeMeters>
            <DistanceMeters>NAN</DistanceMeters>
          </Trackpoint>
          <Trackpoint>
            <Time>2019-10-08T10:16:04.000Z</Time>
            <Position>
              <LatitudeDegrees>39.9251691810786724090576171875</LatitudeDegrees>
              <LongitudeDegrees>-6.23071446083486080169677734375</LongitudeDegrees>
            </Position>
            <AltitudeMeters>267.399993896484375</AltitudeMeters>
            <DistanceMeters>NAN</DistanceMeters>
          </Trackpoint>
          <Trackpoint>
            <Time>2019-10-08T10:16:06.000Z</Time>
            <Position>
              <LatitudeDegrees>39.92510623298585414886474609375</LatitudeDegrees>
              <LongitudeDegrees>-6.23082996346056461334228515625</LongitudeDegrees>
            </Position>
            <AltitudeMeters>267.79998779296875</AltitudeMeters>
            <DistanceMeters>NAN</DistanceMeters>
          </Trackpoint>
          <Trackpoint>
            <Time>2019-10-08T10:16:11.000Z</Time>
            <Position>
              <LatitudeDegrees>39.92494798265397548675537109375</LatitudeDegrees>
              <LongitudeDegrees>-6.23111561872065067291259765625</LongitudeDegrees>
            </Position>
            <AltitudeMeters>269</AltitudeMeters>
            <DistanceMeters>NAN</DistanceMeters>
          </Trackpoint>
          <Trackpoint>
            <Time>2019-10-08T10:16:12.000Z</Time>
            <Position>
              <LatitudeDegrees>39.92491395212709903717041015625</LatitudeDegrees>
              <LongitudeDegrees>-6.231172196567058563232421875</LongitudeDegrees>
            </Position>
            <AltitudeMeters>269.20001220703125</AltitudeMeters>
            <DistanceMeters>NAN</DistanceMeters>
          </Trackpoint>
          <Trackpoint>
            <Time>2019-10-08T10:16:15.000Z</Time>
            <Position>
              <LatitudeDegrees>39.92481387220323085784912109375</LatitudeDegrees>
              <LongitudeDegrees>-6.23132684268057346343994140625</LongitudeDegrees>
            </Position>
            <AltitudeMeters>270.20001220703125</AltitudeMeters>
            <DistanceMeters>NAN</DistanceMeters>
          </Trackpoint>
          <Trackpoint>
            <Time>2019-10-08T10:16:20.000Z</Time>
            <Position>
              <LatitudeDegrees>39.92465143091976642608642578125</LatitudeDegrees>
              <LongitudeDegrees>-6.23158450238406658172607421875</LongitudeDegrees>
            </Position>
            <AltitudeMeters>270</AltitudeMeters>
            <DistanceMeters>NAN</DistanceMeters>
          </Trackpoint>
          <Trackpoint>
            <Time>2019-10-08T10:16:24.000Z</Time>
            <Position>
              <LatitudeDegrees>39.92452570237219333648681640625</LatitudeDegrees>
              <LongitudeDegrees>-6.23178415931761264801025390625</LongitudeDegrees>
            </Position>
            <AltitudeMeters>271.399993896484375</AltitudeMeters>
            <DistanceMeters>NAN</DistanceMeters>
          </Trackpoint>
          <Trackpoint>
            <Time>2019-10-08T10:16:27.000Z</Time>
            <Position>
              <LatitudeDegrees>39.92442696355283260345458984375</LatitudeDegrees>
              <LongitudeDegrees>-6.2319213710725307464599609375</LongitudeDegrees>
            </Position>
            <AltitudeMeters>271.79998779296875</AltitudeMeters>
            <DistanceMeters>NAN</DistanceMeters>
          </Trackpoint>
          <Trackpoint>
            <Time>2019-10-08T10:16:31.000Z</Time>
            <Position>
              <LatitudeDegrees>39.9242961220443248748779296875</LatitudeDegrees>
              <LongitudeDegrees>-6.23208993114531040191650390625</LongitudeDegrees>
            </Position>
            <AltitudeMeters>272.399993896484375</AltitudeMeters>
            <DistanceMeters>NAN</DistanceMeters>
          </Trackpoint>
          <Trackpoint>
            <Time>2019-10-08T10:16:36.000Z</Time>
            <Position>
              <LatitudeDegrees>39.9241341836750507354736328125</LatitudeDegrees>
              <LongitudeDegrees>-6.23230048455297946929931640625</LongitudeDegrees>
            </Position>
            <AltitudeMeters>273.399993896484375</AltitudeMeters>
            <DistanceMeters>NAN</DistanceMeters>
          </Trackpoint>
          <Trackpoint>
            <Time>2019-10-08T10:16:37.000Z</Time>
            <Position>
              <LatitudeDegrees>39.92409990169107913970947265625</LatitudeDegrees>
              <LongitudeDegrees>-6.2323408015072345733642578125</LongitudeDegrees>
            </Position>
            <AltitudeMeters>273.600006103515625</AltitudeMeters>
            <DistanceMeters>NAN</DistanceMeters>
          </Trackpoint>
          <Trackpoint>
            <Time>2019-10-08T10:16:47.000Z</Time>
            <Position>
              <LatitudeDegrees>39.92377300746738910675048828125</LatitudeDegrees>
              <LongitudeDegrees>-6.23271279036998748779296875</LongitudeDegrees>
            </Position>
            <AltitudeMeters>275</AltitudeMeters>
            <DistanceMeters>NAN</DistanceMeters>
          </Trackpoint>
          <Trackpoint>
            <Time>2019-10-08T10:16:53.000Z</Time>
            <Position>
              <LatitudeDegrees>39.92357351817190647125244140625</LatitudeDegrees>
              <LongitudeDegrees>-6.23292175121605396270751953125</LongitudeDegrees>
            </Position>
            <AltitudeMeters>276</AltitudeMeters>
            <DistanceMeters>NAN</DistanceMeters>
          </Trackpoint>
          <Trackpoint>
            <Time>2019-10-08T10:16:55.000Z</Time>
            <Position>
              <LatitudeDegrees>39.92350570857524871826171875</LatitudeDegrees>
              <LongitudeDegrees>-6.23299148865044116973876953125</LongitudeDegrees>
            </Position>
            <AltitudeMeters>276.399993896484375</AltitudeMeters>
            <DistanceMeters>NAN</DistanceMeters>
          </Trackpoint>
          <Trackpoint>
            <Time>2019-10-08T10:17:05.000Z</Time>
            <Position>
              <LatitudeDegrees>39.9231536686420440673828125</LatitudeDegrees>
              <LongitudeDegrees>-6.233351491391658782958984375</LongitudeDegrees>
            </Position>
            <AltitudeMeters>277</AltitudeMeters>
            <DistanceMeters>NAN</DistanceMeters>
          </Trackpoint>
          <Trackpoint>
            <Time>2019-10-08T10:17:07.000Z</Time>
            <Position>
              <LatitudeDegrees>39.923083595931529998779296875</LatitudeDegrees>
              <LongitudeDegrees>-6.23342332430183887481689453125</LongitudeDegrees>
            </Position>
            <AltitudeMeters>277.20001220703125</AltitudeMeters>
            <DistanceMeters>NAN</DistanceMeters>
          </Trackpoint>
          <Trackpoint>
            <Time>2019-10-08T10:17:15.000Z</Time>
            <Position>
              <LatitudeDegrees>39.922814704477787017822265625</LatitudeDegrees>
              <LongitudeDegrees>-6.2337543256580829620361328125</LongitudeDegrees>
            </Position>
            <AltitudeMeters>277.399993896484375</AltitudeMeters>
            <DistanceMeters>NAN</DistanceMeters>
          </Trackpoint>
          <Trackpoint>
            <Time>2019-10-08T10:17:23.000Z</Time>
            <Position>
              <LatitudeDegrees>39.92256634868681430816650390625</LatitudeDegrees>
              <LongitudeDegrees>-6.234156824648380279541015625</LongitudeDegrees>
            </Position>
            <AltitudeMeters>277.600006103515625</AltitudeMeters>
            <DistanceMeters>NAN</DistanceMeters>
          </Trackpoint>
          <Trackpoint>
            <Time>2019-10-08T10:17:31.000Z</Time>
            <Position>
              <LatitudeDegrees>39.922343976795673370361328125</LatitudeDegrees>
              <LongitudeDegrees>-6.23465244658291339874267578125</LongitudeDegrees>
            </Position>
            <AltitudeMeters>277.399993896484375</AltitudeMeters>
            <DistanceMeters>NAN</DistanceMeters>
          </Trackpoint>
          <Trackpoint>
            <Time>2019-10-08T10:17:38.000Z</Time>
            <Position>
              <LatitudeDegrees>39.9221961200237274169921875</LatitudeDegrees>
              <LongitudeDegrees>-6.23515284620225429534912109375</LongitudeDegrees>
            </Position>
            <AltitudeMeters>277</AltitudeMeters>
            <DistanceMeters>NAN</DistanceMeters>
          </Trackpoint>
          <Trackpoint>
            <Time>2019-10-08T10:17:45.000Z</Time>
            <Position>
              <LatitudeDegrees>39.92210266180336475372314453125</LatitudeDegrees>
              <LongitudeDegrees>-6.2357327900826930999755859375</LongitudeDegrees>
            </Position>
            <AltitudeMeters>276.399993896484375</AltitudeMeters>
            <DistanceMeters>NAN</DistanceMeters>
          </Trackpoint>
          <Trackpoint>
            <Time>2019-10-08T10:17:46.000Z</Time>
            <Position>
              <LatitudeDegrees>39.9220940284430980682373046875</LatitudeDegrees>
              <LongitudeDegrees>-6.2358209677040576934814453125</LongitudeDegrees>
            </Position>
            <AltitudeMeters>276</AltitudeMeters>
            <DistanceMeters>NAN</DistanceMeters>
          </Trackpoint>
          <Trackpoint>
            <Time>2019-10-08T10:17:51.000Z</Time>
            <Position>
              <LatitudeDegrees>39.92208690382540225982666015625</LatitudeDegrees>
              <LongitudeDegrees>-6.2362799607217311859130859375</LongitudeDegrees>
            </Position>
            <AltitudeMeters>275</AltitudeMeters>
            <DistanceMeters>NAN</DistanceMeters>
          </Trackpoint>
          <Trackpoint>
            <Time>2019-10-08T10:18:01.000Z</Time>
            <Position>
              <LatitudeDegrees>39.92214574478566646575927734375</LatitudeDegrees>
              <LongitudeDegrees>-6.23727480880916118621826171875</LongitudeDegrees>
            </Position>
            <AltitudeMeters>273</AltitudeMeters>
            <DistanceMeters>NAN</DistanceMeters>
          </Trackpoint>
          <Trackpoint>
            <Time>2019-10-08T10:18:05.000Z</Time>
            <Position>
              <LatitudeDegrees>39.9221506901085376739501953125</LatitudeDegrees>
              <LongitudeDegrees>-6.23769558034837245941162109375</LongitudeDegrees>
            </Position>
            <AltitudeMeters>272.399993896484375</AltitudeMeters>
            <DistanceMeters>NAN</DistanceMeters>
          </Trackpoint>
          <Trackpoint>
            <Time>2019-10-08T10:18:08.000Z</Time>
            <Position>
              <LatitudeDegrees>39.922113977372646331787109375</LatitudeDegrees>
              <LongitudeDegrees>-6.23802331276237964630126953125</LongitudeDegrees>
            </Position>
            <AltitudeMeters>270.79998779296875</AltitudeMeters>
            <DistanceMeters>NAN</DistanceMeters>
          </Trackpoint>
          <Trackpoint>
            <Time>2019-10-08T10:18:12.000Z</Time>
            <Position>
              <LatitudeDegrees>39.92205488495528697967529296875</LatitudeDegrees>
              <LongitudeDegrees>-6.23847828246653079986572265625</LongitudeDegrees>
            </Position>
            <AltitudeMeters>269.20001220703125</AltitudeMeters>
            <DistanceMeters>NAN</DistanceMeters>
          </Trackpoint>
          <Trackpoint>
            <Time>2019-10-08T10:18:14.000Z</Time>
            <Position>
              <LatitudeDegrees>39.922001324594020843505859375</LatitudeDegrees>
              <LongitudeDegrees>-6.23870811425149440765380859375</LongitudeDegrees>
            </Position>
            <AltitudeMeters>269.20001220703125</AltitudeMeters>
            <DistanceMeters>NAN</DistanceMeters>
          </Trackpoint>
          <Trackpoint>
            <Time>2019-10-08T10:18:15.000Z</Time>
            <Position>
              <LatitudeDegrees>39.92197391577064990997314453125</LatitudeDegrees>
              <LongitudeDegrees>-6.2388226948678493499755859375</LongitudeDegrees>
            </Position>
            <AltitudeMeters>269</AltitudeMeters>
            <DistanceMeters>NAN</DistanceMeters>
          </Trackpoint>
          <Trackpoint>
            <Time>2019-10-08T10:18:17.000Z</Time>
            <Position>
              <LatitudeDegrees>39.92189764045178890228271484375</LatitudeDegrees>
              <LongitudeDegrees>-6.2390469945967197418212890625</LongitudeDegrees>
            </Position>
            <AltitudeMeters>268</AltitudeMeters>
            <DistanceMeters>NAN</DistanceMeters>
          </Trackpoint>
          <Trackpoint>
            <Time>2019-10-08T10:18:20.000Z</Time>
            <Position>
              <LatitudeDegrees>39.92175984196364879608154296875</LatitudeDegrees>
              <LongitudeDegrees>-6.23938218690454959869384765625</LongitudeDegrees>
            </Position>
            <AltitudeMeters>267.20001220703125</AltitudeMeters>
            <DistanceMeters>NAN</DistanceMeters>
          </Trackpoint>
          <Trackpoint>
            <Time>2019-10-08T10:18:21.000Z</Time>
            <Position>
              <LatitudeDegrees>39.92170820944011211395263671875</LatitudeDegrees>
              <LongitudeDegrees>-6.23948779888451099395751953125</LongitudeDegrees>
            </Position>
            <AltitudeMeters>266.600006103515625</AltitudeMeters>
            <DistanceMeters>NAN</DistanceMeters>
          </Trackpoint>
          <Trackpoint>
            <Time>2019-10-08T10:18:23.000Z</Time>
            <Position>
              <LatitudeDegrees>39.92159874178469181060791015625</LatitudeDegrees>
              <LongitudeDegrees>-6.2397014535963535308837890625</LongitudeDegrees>
            </Position>
            <AltitudeMeters>265.20001220703125</AltitudeMeters>
            <DistanceMeters>NAN</DistanceMeters>
          </Trackpoint>
          <Trackpoint>
            <Time>2019-10-08T10:18:25.000Z</Time>
            <Position>
              <LatitudeDegrees>39.9214719235897064208984375</LatitudeDegrees>
              <LongitudeDegrees>-6.2398992665112018585205078125</LongitudeDegrees>
            </Position>
            <AltitudeMeters>263.20001220703125</AltitudeMeters>
            <DistanceMeters>NAN</DistanceMeters>
          </Trackpoint>
          <Trackpoint>
            <Time>2019-10-08T10:18:26.000Z</Time>
            <Position>
              <LatitudeDegrees>39.92140478454530239105224609375</LatitudeDegrees>
              <LongitudeDegrees>-6.23999456875026226043701171875</LongitudeDegrees>
            </Position>
            <AltitudeMeters>263.20001220703125</AltitudeMeters>
            <DistanceMeters>NAN</DistanceMeters>
          </Trackpoint>
          <Trackpoint>
            <Time>2019-10-08T10:18:30.000Z</Time>
            <Position>
              <LatitudeDegrees>39.92111057974398136138916015625</LatitudeDegrees>
              <LongitudeDegrees>-6.2403475306928157806396484375</LongitudeDegrees>
            </Position>
            <AltitudeMeters>261.399993896484375</AltitudeMeters>
            <DistanceMeters>NAN</DistanceMeters>
          </Trackpoint>
          <Trackpoint>
            <Time>2019-10-08T10:18:31.000Z</Time>
            <Position>
              <LatitudeDegrees>39.9210308678448200225830078125</LatitudeDegrees>
              <LongitudeDegrees>-6.24042690731585025787353515625</LongitudeDegrees>
            </Position>
            <AltitudeMeters>260.20001220703125</AltitudeMeters>
            <DistanceMeters>NAN</DistanceMeters>
          </Trackpoint>
          <Trackpoint>
            <Time>2019-10-08T10:18:32.000Z</Time>
            <Position>
              <LatitudeDegrees>39.9209490604698657989501953125</LatitudeDegrees>
              <LongitudeDegrees>-6.2405014224350452423095703125</LongitudeDegrees>
            </Position>
            <AltitudeMeters>260.79998779296875</AltitudeMeters>
            <DistanceMeters>NAN</DistanceMeters>
          </Trackpoint>
          <Trackpoint>
            <Time>2019-10-08T10:18:33.000Z</Time>
            <Position>
              <LatitudeDegrees>39.92086373269557952880859375</LatitudeDegrees>
              <LongitudeDegrees>-6.2405771948397159576416015625</LongitudeDegrees>
            </Position>
            <AltitudeMeters>261</AltitudeMeters>
            <DistanceMeters>NAN</DistanceMeters>
          </Trackpoint>
          <Trackpoint>
            <Time>2019-10-08T10:18:34.000Z</Time>
            <Position>
              <LatitudeDegrees>39.9207773990929126739501953125</LatitudeDegrees>
              <LongitudeDegrees>-6.240650117397308349609375</LongitudeDegrees>
            </Position>
            <AltitudeMeters>261.399993896484375</AltitudeMeters>
            <DistanceMeters>NAN</DistanceMeters>
          </Trackpoint>
          <Trackpoint>
            <Time>2019-10-08T10:18:35.000Z</Time>
            <Position>
              <LatitudeDegrees>39.92068980820477008819580078125</LatitudeDegrees>
              <LongitudeDegrees>-6.24072278849780559539794921875</LongitudeDegrees>
            </Position>
            <AltitudeMeters>260.399993896484375</AltitudeMeters>
            <DistanceMeters>NAN</DistanceMeters>
          </Trackpoint>
          <Trackpoint>
            <Time>2019-10-08T10:18:36.000Z</Time>
            <Position>
              <LatitudeDegrees>39.9206028878688812255859375</LatitudeDegrees>
              <LongitudeDegrees>-6.24079034663736820220947265625</LongitudeDegrees>
            </Position>
            <AltitudeMeters>259.20001220703125</AltitudeMeters>
            <DistanceMeters>NAN</DistanceMeters>
          </Trackpoint>
          <Trackpoint>
            <Time>2019-10-08T10:18:38.000Z</Time>
            <Position>
              <LatitudeDegrees>39.92042720317840576171875</LatitudeDegrees>
              <LongitudeDegrees>-6.2409288994967937469482421875</LongitudeDegrees>
            </Position>
            <AltitudeMeters>258.399993896484375</AltitudeMeters>
            <DistanceMeters>NAN</DistanceMeters>
          </Trackpoint>
          <Trackpoint>
            <Time>2019-10-08T10:18:39.000Z</Time>
            <Position>
              <LatitudeDegrees>39.92033994756639003753662109375</LatitudeDegrees>
              <LongitudeDegrees>-6.24099721200764179229736328125</LongitudeDegrees>
            </Position>
            <AltitudeMeters>258.20001220703125</AltitudeMeters>
            <DistanceMeters>NAN</DistanceMeters>
          </Trackpoint>
          <Trackpoint>
            <Time>2019-10-08T10:18:43.000Z</Time>
            <Position>
              <LatitudeDegrees>39.91999444551765918731689453125</LatitudeDegrees>
              <LongitudeDegrees>-6.24127834104001522064208984375</LongitudeDegrees>
            </Position>
            <AltitudeMeters>257</AltitudeMeters>
            <DistanceMeters>NAN</DistanceMeters>
          </Trackpoint>
          <Trackpoint>
            <Time>2019-10-08T10:18:45.000Z</Time>
            <Position>
              <LatitudeDegrees>39.91982446052134037017822265625</LatitudeDegrees>
              <LongitudeDegrees>-6.24142167158424854278564453125</LongitudeDegrees>
            </Position>
            <AltitudeMeters>255.8000030517578125</AltitudeMeters>
            <DistanceMeters>NAN</DistanceMeters>
          </Trackpoint>
          <Trackpoint>
            <Time>2019-10-08T10:18:47.000Z</Time>
            <Position>
              <LatitudeDegrees>39.91966386325657367706298828125</LatitudeDegrees>
              <LongitudeDegrees>-6.2415665946900844573974609375</LongitudeDegrees>
            </Position>
            <AltitudeMeters>255.8000030517578125</AltitudeMeters>
            <DistanceMeters>NAN</DistanceMeters>
          </Trackpoint>
          <Trackpoint>
            <Time>2019-10-08T10:18:49.000Z</Time>
            <Position>
              <LatitudeDegrees>39.91951500065624713897705078125</LatitudeDegrees>
              <LongitudeDegrees>-6.24172425828874111175537109375</LongitudeDegrees>
            </Position>
            <AltitudeMeters>256.20001220703125</AltitudeMeters>
            <DistanceMeters>NAN</DistanceMeters>
          </Trackpoint>
          <Trackpoint>
            <Time>2019-10-08T10:18:51.000Z</Time>
            <Position>
              <LatitudeDegrees>39.91936437785625457763671875</LatitudeDegrees>
              <LongitudeDegrees>-6.2418733723461627960205078125</LongitudeDegrees>
            </Position>
            <AltitudeMeters>256</AltitudeMeters>
            <DistanceMeters>NAN</DistanceMeters>
          </Trackpoint>
          <Trackpoint>
            <Time>2019-10-08T10:18:53.000Z</Time>
            <Position>
              <LatitudeDegrees>39.91921660490334033966064453125</LatitudeDegrees>
              <LongitudeDegrees>-6.24202969484031200408935546875</LongitudeDegrees>
            </Position>
            <AltitudeMeters>256.20001220703125</AltitudeMeters>
            <DistanceMeters>NAN</DistanceMeters>
          </Trackpoint>
          <Trackpoint>
            <Time>2019-10-08T10:18:57.000Z</Time>
            <Position>
              <LatitudeDegrees>39.91894033737480640411376953125</LatitudeDegrees>
              <LongitudeDegrees>-6.2423819862306118011474609375</LongitudeDegrees>
            </Position>
            <AltitudeMeters>254.600006103515625</AltitudeMeters>
            <DistanceMeters>NAN</DistanceMeters>
          </Trackpoint>
          <Trackpoint>
            <Time>2019-10-08T10:18:59.000Z</Time>
            <Position>
              <LatitudeDegrees>39.91882936097681522369384765625</LatitudeDegrees>
              <LongitudeDegrees>-6.2425932101905345916748046875</LongitudeDegrees>
            </Position>
            <AltitudeMeters>255</AltitudeMeters>
            <DistanceMeters>NAN</DistanceMeters>
          </Trackpoint>
          <Trackpoint>
            <Time>2019-10-08T10:19:03.000Z</Time>
            <Position>
              <LatitudeDegrees>39.9185689352452754974365234375</LatitudeDegrees>
              <LongitudeDegrees>-6.24298640526831150054931640625</LongitudeDegrees>
            </Position>
            <AltitudeMeters>253.399993896484375</AltitudeMeters>
            <DistanceMeters>NAN</DistanceMeters>
          </Trackpoint>
          <Trackpoint>
            <Time>2019-10-08T10:19:04.000Z</Time>
            <Position>
              <LatitudeDegrees>39.91850732825696468353271484375</LatitudeDegrees>
              <LongitudeDegrees>-6.2430884130299091339111328125</LongitudeDegrees>
            </Position>
            <AltitudeMeters>253.8000030517578125</AltitudeMeters>
            <DistanceMeters>NAN</DistanceMeters>
          </Trackpoint>
          <Trackpoint>
            <Time>2019-10-08T10:19:08.000Z</Time>
            <Position>
              <LatitudeDegrees>39.91823692806065082550048828125</LatitudeDegrees>
              <LongitudeDegrees>-6.24347389675676822662353515625</LongitudeDegrees>
            </Position>
            <AltitudeMeters>251.8000030517578125</AltitudeMeters>
            <DistanceMeters>NAN</DistanceMeters>
          </Trackpoint>
          <Trackpoint>
            <Time>2019-10-08T10:19:10.000Z</Time>
            <Position>
              <LatitudeDegrees>39.91810181178152561187744140625</LatitudeDegrees>
              <LongitudeDegrees>-6.2436637468636035919189453125</LongitudeDegrees>
            </Position>
            <AltitudeMeters>251.600006103515625</AltitudeMeters>
            <DistanceMeters>NAN</DistanceMeters>
          </Trackpoint>
          <Trackpoint>
            <Time>2019-10-08T10:19:12.000Z</Time>
            <Position>
              <LatitudeDegrees>39.9179620854556560516357421875</LatitudeDegrees>
              <LongitudeDegrees>-6.243847310543060302734375</LongitudeDegrees>
            </Position>
            <AltitudeMeters>251.8000030517578125</AltitudeMeters>
            <DistanceMeters>NAN</DistanceMeters>
          </Trackpoint>
          <Trackpoint>
            <Time>2019-10-08T10:19:18.000Z</Time>
            <Position>
              <LatitudeDegrees>39.9175317585468292236328125</LatitudeDegrees>
              <LongitudeDegrees>-6.24439372681081295013427734375</LongitudeDegrees>
            </Position>
            <AltitudeMeters>251.1999969482421875</AltitudeMeters>
            <DistanceMeters>NAN</DistanceMeters>
          </Trackpoint>
          <Trackpoint>
            <Time>2019-10-08T10:19:19.000Z</Time>
            <Position>
              <LatitudeDegrees>39.91745808161795139312744140625</LatitudeDegrees>
              <LongitudeDegrees>-6.24447989277541637420654296875</LongitudeDegrees>
            </Position>
            <AltitudeMeters>250.399993896484375</AltitudeMeters>
            <DistanceMeters>NAN</DistanceMeters>
          </Trackpoint>
          <Trackpoint>
            <Time>2019-10-08T10:19:20.000Z</Time>
            <Position>
              <LatitudeDegrees>39.9173810519278049468994140625</LatitudeDegrees>
              <LongitudeDegrees>-6.24456882476806640625</LongitudeDegrees>
            </Position>
            <AltitudeMeters>249.600006103515625</AltitudeMeters>
            <DistanceMeters>NAN</DistanceMeters>
          </Trackpoint>
          <Trackpoint>
            <Time>2019-10-08T10:19:23.000Z</Time>
            <Position>
              <LatitudeDegrees>39.91716052405536174774169921875</LatitudeDegrees>
              <LongitudeDegrees>-6.2448181025683879852294921875</LongitudeDegrees>
            </Position>
            <AltitudeMeters>249.1999969482421875</AltitudeMeters>
            <DistanceMeters>NAN</DistanceMeters>
          </Trackpoint>
          <Trackpoint>
            <Time>2019-10-08T10:19:26.000Z</Time>
            <Position>
              <LatitudeDegrees>39.91694309748709201812744140625</LatitudeDegrees>
              <LongitudeDegrees>-6.24507299624383449554443359375</LongitudeDegrees>
            </Position>
            <AltitudeMeters>249.1999969482421875</AltitudeMeters>
            <DistanceMeters>NAN</DistanceMeters>
          </Trackpoint>
          <Trackpoint>
            <Time>2019-10-08T10:19:29.000Z</Time>
            <Position>
              <LatitudeDegrees>39.91672508418560028076171875</LatitudeDegrees>
              <LongitudeDegrees>-6.24531841836869716644287109375</LongitudeDegrees>
            </Position>
            <AltitudeMeters>248.399993896484375</AltitudeMeters>
            <DistanceMeters>NAN</DistanceMeters>
          </Trackpoint>
          <Trackpoint>
            <Time>2019-10-08T10:19:34.000Z</Time>
            <Position>
              <LatitudeDegrees>39.91636541672050952911376953125</LatitudeDegrees>
              <LongitudeDegrees>-6.245714128017425537109375</LongitudeDegrees>
            </Position>
            <AltitudeMeters>248.399993896484375</AltitudeMeters>
            <DistanceMeters>NAN</DistanceMeters>
          </Trackpoint>
          <Trackpoint>
            <Time>2019-10-08T10:19:35.000Z</Time>
            <Position>
              <LatitudeDegrees>39.91629769094288349151611328125</LatitudeDegrees>
              <LongitudeDegrees>-6.24578897841274738311767578125</LongitudeDegrees>
            </Position>
            <AltitudeMeters>247.8000030517578125</AltitudeMeters>
            <DistanceMeters>NAN</DistanceMeters>
          </Trackpoint>
          <Trackpoint>
            <Time>2019-10-08T10:19:41.000Z</Time>
            <Position>
              <LatitudeDegrees>39.91588764823973178863525390625</LatitudeDegrees>
              <LongitudeDegrees>-6.24624948017299175262451171875</LongitudeDegrees>
            </Position>
            <AltitudeMeters>247.1999969482421875</AltitudeMeters>
            <DistanceMeters>NAN</DistanceMeters>
          </Trackpoint>
          <Trackpoint>
            <Time>2019-10-08T10:19:42.000Z</Time>
            <Position>
              <LatitudeDegrees>39.915820844471454620361328125</LatitudeDegrees>
              <LongitudeDegrees>-6.246326677501201629638671875</LongitudeDegrees>
            </Position>
            <AltitudeMeters>247</AltitudeMeters>
            <DistanceMeters>NAN</DistanceMeters>
          </Trackpoint>
          <Trackpoint>
            <Time>2019-10-08T10:19:48.000Z</Time>
            <Position>
              <LatitudeDegrees>39.915410466492176055908203125</LatitudeDegrees>
              <LongitudeDegrees>-6.24676714651286602020263671875</LongitudeDegrees>
            </Position>
            <AltitudeMeters>247</AltitudeMeters>
            <DistanceMeters>NAN</DistanceMeters>
          </Trackpoint>
          <Trackpoint>
            <Time>2019-10-08T10:19:49.000Z</Time>
            <Position>
              <LatitudeDegrees>39.9153419025242328643798828125</LatitudeDegrees>
              <LongitudeDegrees>-6.24684308655560016632080078125</LongitudeDegrees>
            </Position>
            <AltitudeMeters>247.1999969482421875</AltitudeMeters>
            <DistanceMeters>NAN</DistanceMeters>
          </Trackpoint>
          <Trackpoint>
            <Time>2019-10-08T10:19:50.000Z</Time>
            <Position>
              <LatitudeDegrees>39.91527694277465343475341796875</LatitudeDegrees>
              <LongitudeDegrees>-6.2469209544360637664794921875</LongitudeDegrees>
            </Position>
            <AltitudeMeters>246.600006103515625</AltitudeMeters>
            <DistanceMeters>NAN</DistanceMeters>
          </Trackpoint>
          <Trackpoint>
            <Time>2019-10-08T10:19:55.000Z</Time>
            <Position>
              <LatitudeDegrees>39.914951808750629425048828125</LatitudeDegrees>
              <LongitudeDegrees>-6.24731331132352352142333984375</LongitudeDegrees>
            </Position>
            <AltitudeMeters>245.600006103515625</AltitudeMeters>
            <DistanceMeters>NAN</DistanceMeters>
          </Trackpoint>
          <Trackpoint>
            <Time>2019-10-08T10:19:56.000Z</Time>
            <Position>
              <LatitudeDegrees>39.91488265804946422576904296875</LatitudeDegrees>
              <LongitudeDegrees>-6.24738707207143306732177734375</LongitudeDegrees>
            </Position>
            <AltitudeMeters>245.399993896484375</AltitudeMeters>
            <DistanceMeters>NAN</DistanceMeters>
          </Trackpoint>
          <Trackpoint>
            <Time>2019-10-08T10:20:02.000Z</Time>
            <Position>
              <LatitudeDegrees>39.91447630338370800018310546875</LatitudeDegrees>
              <LongitudeDegrees>-6.24785528518259525299072265625</LongitudeDegrees>
            </Position>
            <AltitudeMeters>244.600006103515625</AltitudeMeters>
            <DistanceMeters>NAN</DistanceMeters>
          </Trackpoint>
          <Trackpoint>
            <Time>2019-10-08T10:20:05.000Z</Time>
            <Position>
              <LatitudeDegrees>39.91426994092762470245361328125</LatitudeDegrees>
              <LongitudeDegrees>-6.2480811774730682373046875</LongitudeDegrees>
            </Position>
            <AltitudeMeters>245.1999969482421875</AltitudeMeters>
            <DistanceMeters>NAN</DistanceMeters>
          </Trackpoint>
          <Trackpoint>
            <Time>2019-10-08T10:20:08.000Z</Time>
            <Position>
              <LatitudeDegrees>39.91405838169157505035400390625</LatitudeDegrees>
              <LongitudeDegrees>-6.2483059801161289215087890625</LongitudeDegrees>
            </Position>
            <AltitudeMeters>243.600006103515625</AltitudeMeters>
            <DistanceMeters>NAN</DistanceMeters>
          </Trackpoint>
          <Trackpoint>
            <Time>2019-10-08T10:20:12.000Z</Time>
            <Position>
              <LatitudeDegrees>39.91378764621913433074951171875</LatitudeDegrees>
              <LongitudeDegrees>-6.24862088821828365325927734375</LongitudeDegrees>
            </Position>
            <AltitudeMeters>244.1999969482421875</AltitudeMeters>
            <DistanceMeters>NAN</DistanceMeters>
          </Trackpoint>
          <Trackpoint>
            <Time>2019-10-08T10:20:18.000Z</Time>
            <Position>
              <LatitudeDegrees>39.9133701436221599578857421875</LatitudeDegrees>
              <LongitudeDegrees>-6.249096728861331939697265625</LongitudeDegrees>
            </Position>
            <AltitudeMeters>243</AltitudeMeters>
            <DistanceMeters>NAN</DistanceMeters>
          </Trackpoint>
          <Trackpoint>
            <Time>2019-10-08T10:20:19.000Z</Time>
            <Position>
              <LatitudeDegrees>39.9133010767400264739990234375</LatitudeDegrees>
              <LongitudeDegrees>-6.249175854027271270751953125</LongitudeDegrees>
            </Position>
            <AltitudeMeters>241.8000030517578125</AltitudeMeters>
            <DistanceMeters>NAN</DistanceMeters>
          </Trackpoint>
          <Trackpoint>
            <Time>2019-10-08T10:20:22.000Z</Time>
            <Position>
              <LatitudeDegrees>39.9130945466458797454833984375</LatitudeDegrees>
              <LongitudeDegrees>-6.24941088259220123291015625</LongitudeDegrees>
            </Position>
            <AltitudeMeters>242.1999969482421875</AltitudeMeters>
            <DistanceMeters>NAN</DistanceMeters>
          </Trackpoint>
          <Trackpoint>
            <Time>2019-10-08T10:20:28.000Z</Time>
            <Position>
              <LatitudeDegrees>39.9126781336963176727294921875</LatitudeDegrees>
              <LongitudeDegrees>-6.2498703785240650177001953125</LongitudeDegrees>
            </Position>
            <AltitudeMeters>241.1999969482421875</AltitudeMeters>
            <DistanceMeters>NAN</DistanceMeters>
          </Trackpoint>
          <Trackpoint>
            <Time>2019-10-08T10:20:32.000Z</Time>
            <Position>
              <LatitudeDegrees>39.9123911373317241668701171875</LatitudeDegrees>
              <LongitudeDegrees>-6.25016667880117893218994140625</LongitudeDegrees>
            </Position>
            <AltitudeMeters>241</AltitudeMeters>
            <DistanceMeters>NAN</DistanceMeters>
          </Trackpoint>
          <Trackpoint>
            <Time>2019-10-08T10:20:34.000Z</Time>
            <Position>
              <LatitudeDegrees>39.91225090809166431427001953125</LatitudeDegrees>
              <LongitudeDegrees>-6.250315792858600616455078125</LongitudeDegrees>
            </Position>
            <AltitudeMeters>240.600006103515625</AltitudeMeters>
            <DistanceMeters>NAN</DistanceMeters>
          </Trackpoint>
          <Trackpoint>
            <Time>2019-10-08T10:20:36.000Z</Time>
            <Position>
              <LatitudeDegrees>39.91210405714809894561767578125</LatitudeDegrees>
              <LongitudeDegrees>-6.25045635737478733062744140625</LongitudeDegrees>
            </Position>
            <AltitudeMeters>239.399993896484375</AltitudeMeters>
            <DistanceMeters>NAN</DistanceMeters>
          </Trackpoint>
          <Trackpoint>
            <Time>2019-10-08T10:20:42.000Z</Time>
            <Position>
              <LatitudeDegrees>39.91166350431740283966064453125</LatitudeDegrees>
              <LongitudeDegrees>-6.25086254440248012542724609375</LongitudeDegrees>
            </Position>
            <AltitudeMeters>239</AltitudeMeters>
            <DistanceMeters>NAN</DistanceMeters>
          </Trackpoint>
          <Trackpoint>
            <Time>2019-10-08T10:20:45.000Z</Time>
            <Position>
              <LatitudeDegrees>39.911435432732105255126953125</LatitudeDegrees>
              <LongitudeDegrees>-6.2510584294795989990234375</LongitudeDegrees>
            </Position>
            <AltitudeMeters>238.1999969482421875</AltitudeMeters>
            <DistanceMeters>NAN</DistanceMeters>
          </Trackpoint>
          <Trackpoint>
            <Time>2019-10-08T10:20:51.000Z</Time>
            <Position>
              <LatitudeDegrees>39.91097501479089260101318359375</LatitudeDegrees>
              <LongitudeDegrees>-6.25143326818943023681640625</LongitudeDegrees>
            </Position>
            <AltitudeMeters>237.600006103515625</AltitudeMeters>
            <DistanceMeters>NAN</DistanceMeters>
          </Trackpoint>
          <Trackpoint>
            <Time>2019-10-08T10:20:52.000Z</Time>
            <Position>
              <LatitudeDegrees>39.9108959734439849853515625</LatitudeDegrees>
              <LongitudeDegrees>-6.25149705447256565093994140625</LongitudeDegrees>
            </Position>
            <AltitudeMeters>237.1999969482421875</AltitudeMeters>
            <DistanceMeters>NAN</DistanceMeters>
          </Trackpoint>
          <Trackpoint>
            <Time>2019-10-08T10:20:56.000Z</Time>
            <Position>
              <LatitudeDegrees>39.91057612001895904541015625</LatitudeDegrees>
              <LongitudeDegrees>-6.2517382018268108367919921875</LongitudeDegrees>
            </Position>
            <AltitudeMeters>236</AltitudeMeters>
            <DistanceMeters>NAN</DistanceMeters>
          </Trackpoint>
          <Trackpoint>
            <Time>2019-10-08T10:20:59.000Z</Time>
            <Position>
              <LatitudeDegrees>39.910333715379238128662109375</LatitudeDegrees>
              <LongitudeDegrees>-6.25191983766853809356689453125</LongitudeDegrees>
            </Position>
            <AltitudeMeters>235.1999969482421875</AltitudeMeters>
            <DistanceMeters>NAN</DistanceMeters>
          </Trackpoint>
          <Trackpoint>
            <Time>2019-10-08T10:21:02.000Z</Time>
            <Position>
              <LatitudeDegrees>39.910089634358882904052734375</LatitudeDegrees>
              <LongitudeDegrees>-6.25210273079574108123779296875</LongitudeDegrees>
            </Position>
            <AltitudeMeters>234.600006103515625</AltitudeMeters>
            <DistanceMeters>NAN</DistanceMeters>
          </Trackpoint>
          <Trackpoint>
            <Time>2019-10-08T10:21:04.000Z</Time>
            <Position>
              <LatitudeDegrees>39.90993062965571880340576171875</LatitudeDegrees>
              <LongitudeDegrees>-6.25222208909690380096435546875</LongitudeDegrees>
            </Position>
            <AltitudeMeters>233</AltitudeMeters>
            <DistanceMeters>NAN</DistanceMeters>
          </Trackpoint>
          <Trackpoint>
            <Time>2019-10-08T10:21:08.000Z</Time>
            <Position>
              <LatitudeDegrees>39.909613542258739471435546875</LatitudeDegrees>
              <LongitudeDegrees>-6.2524654157459735870361328125</LongitudeDegrees>
            </Position>
            <AltitudeMeters>232.600006103515625</AltitudeMeters>
            <DistanceMeters>NAN</DistanceMeters>
          </Trackpoint>
          <Trackpoint>
            <Time>2019-10-08T10:21:12.000Z</Time>
            <Position>
              <LatitudeDegrees>39.90929536521434783935546875</LatitudeDegrees>
              <LongitudeDegrees>-6.25270505435764789581298828125</LongitudeDegrees>
            </Position>
            <AltitudeMeters>231.600006103515625</AltitudeMeters>
            <DistanceMeters>NAN</DistanceMeters>
          </Trackpoint>
          <Trackpoint>
            <Time>2019-10-08T10:21:18.000Z</Time>
            <Position>
              <LatitudeDegrees>39.90881793200969696044921875</LatitudeDegrees>
              <LongitudeDegrees>-6.253063380718231201171875</LongitudeDegrees>
            </Position>
            <AltitudeMeters>231</AltitudeMeters>
            <DistanceMeters>NAN</DistanceMeters>
          </Trackpoint>
          <Trackpoint>
            <Time>2019-10-08T10:21:19.000Z</Time>
            <Position>
              <LatitudeDegrees>39.90873880684375762939453125</LatitudeDegrees>
              <LongitudeDegrees>-6.25312280841171741485595703125</LongitudeDegrees>
            </Position>
            <AltitudeMeters>230.600006103515625</AltitudeMeters>
            <DistanceMeters>NAN</DistanceMeters>
          </Trackpoint>
          <Trackpoint>
            <Time>2019-10-08T10:21:25.000Z</Time>
            <Position>
              <LatitudeDegrees>39.90827285684645175933837890625</LatitudeDegrees>
              <LongitudeDegrees>-6.2534762732684612274169921875</LongitudeDegrees>
            </Position>
            <AltitudeMeters>230</AltitudeMeters>
            <DistanceMeters>NAN</DistanceMeters>
          </Trackpoint>
          <Trackpoint>
            <Time>2019-10-08T10:21:28.000Z</Time>
            <Position>
              <LatitudeDegrees>39.908064566552639007568359375</LatitudeDegrees>
              <LongitudeDegrees>-6.25363511033356189727783203125</LongitudeDegrees>
            </Position>
            <AltitudeMeters>229.8000030517578125</AltitudeMeters>
            <DistanceMeters>NAN</DistanceMeters>
          </Trackpoint>
          <Trackpoint>
            <Time>2019-10-08T10:21:29.000Z</Time>
            <Position>
              <LatitudeDegrees>39.9079983495175838470458984375</LatitudeDegrees>
              <LongitudeDegrees>-6.2536908499896526336669921875</LongitudeDegrees>
            </Position>
            <AltitudeMeters>229.1999969482421875</AltitudeMeters>
            <DistanceMeters>NAN</DistanceMeters>
          </Trackpoint>
          <Trackpoint>
            <Time>2019-10-08T10:21:32.000Z</Time>
            <Position>
              <LatitudeDegrees>39.9078022129833698272705078125</LatitudeDegrees>
              <LongitudeDegrees>-6.2538380362093448638916015625</LongitudeDegrees>
            </Position>
            <AltitudeMeters>230.8000030517578125</AltitudeMeters>
            <DistanceMeters>NAN</DistanceMeters>
          </Trackpoint>
          <Trackpoint>
            <Time>2019-10-08T10:21:35.000Z</Time>
            <Position>
              <LatitudeDegrees>39.90761403925716876983642578125</LatitudeDegrees>
              <LongitudeDegrees>-6.25398362986743450164794921875</LongitudeDegrees>
            </Position>
            <AltitudeMeters>231.1999969482421875</AltitudeMeters>
            <DistanceMeters>NAN</DistanceMeters>
          </Trackpoint>
          <Trackpoint>
            <Time>2019-10-08T10:21:41.000Z</Time>
            <Position>
              <LatitudeDegrees>39.9072583951056003570556640625</LatitudeDegrees>
              <LongitudeDegrees>-6.25425671227276325225830078125</LongitudeDegrees>
            </Position>
            <AltitudeMeters>231.8000030517578125</AltitudeMeters>
            <DistanceMeters>NAN</DistanceMeters>
          </Trackpoint>
          <Trackpoint>
            <Time>2019-10-08T10:21:44.000Z</Time>
            <Position>
              <LatitudeDegrees>39.9070857279002666473388671875</LatitudeDegrees>
              <LongitudeDegrees>-6.25439099036157131195068359375</LongitudeDegrees>
            </Position>
            <AltitudeMeters>232.1999969482421875</AltitudeMeters>
            <DistanceMeters>NAN</DistanceMeters>
          </Trackpoint>
          <Trackpoint>
            <Time>2019-10-08T10:21:52.000Z</Time>
            <Position>
              <LatitudeDegrees>39.90661206655204296112060546875</LatitudeDegrees>
              <LongitudeDegrees>-6.25474872998893260955810546875</LongitudeDegrees>
            </Position>
            <AltitudeMeters>231.1999969482421875</AltitudeMeters>
            <DistanceMeters>NAN</DistanceMeters>
          </Trackpoint>
          <Trackpoint>
            <Time>2019-10-08T10:21:53.000Z</Time>
            <Position>
              <LatitudeDegrees>39.9065583385527133941650390625</LatitudeDegrees>
              <LongitudeDegrees>-6.25478913076221942901611328125</LongitudeDegrees>
            </Position>
            <AltitudeMeters>231.399993896484375</AltitudeMeters>
            <DistanceMeters>NAN</DistanceMeters>
          </Trackpoint>
          <Trackpoint>
            <Time>2019-10-08T10:22:01.000Z</Time>
            <Position>
              <LatitudeDegrees>39.90608702413737773895263671875</LatitudeDegrees>
              <LongitudeDegrees>-6.25514737330377101898193359375</LongitudeDegrees>
            </Position>
            <AltitudeMeters>232.1999969482421875</AltitudeMeters>
            <DistanceMeters>NAN</DistanceMeters>
          </Trackpoint>
          <Trackpoint>
            <Time>2019-10-08T10:22:02.000Z</Time>
            <Position>
              <LatitudeDegrees>39.90603220649063587188720703125</LatitudeDegrees>
              <LongitudeDegrees>-6.25518961809575557708740234375</LongitudeDegrees>
            </Position>
            <AltitudeMeters>232.399993896484375</AltitudeMeters>
            <DistanceMeters>NAN</DistanceMeters>
          </Trackpoint>
          <Trackpoint>
            <Time>2019-10-08T10:22:10.000Z</Time>
            <Position>
              <LatitudeDegrees>39.90556768141686916351318359375</LatitudeDegrees>
              <LongitudeDegrees>-6.25554375350475311279296875</LongitudeDegrees>
            </Position>
            <AltitudeMeters>231.399993896484375</AltitudeMeters>
            <DistanceMeters>NAN</DistanceMeters>
          </Trackpoint>
          <Trackpoint>
            <Time>2019-10-08T10:22:12.000Z</Time>
            <Position>
              <LatitudeDegrees>39.90545067004859447479248046875</LatitudeDegrees>
              <LongitudeDegrees>-6.2556300871074199676513671875</LongitudeDegrees>
            </Position>
            <AltitudeMeters>232.1999969482421875</AltitudeMeters>
            <DistanceMeters>NAN</DistanceMeters>
          </Trackpoint>
          <Trackpoint>
            <Time>2019-10-08T10:22:20.000Z</Time>
            <Position>
              <LatitudeDegrees>39.90498916245996952056884765625</LatitudeDegrees>
              <LongitudeDegrees>-6.255988664925098419189453125</LongitudeDegrees>
            </Position>
            <AltitudeMeters>232.1999969482421875</AltitudeMeters>
            <DistanceMeters>NAN</DistanceMeters>
          </Trackpoint>
          <Trackpoint>
            <Time>2019-10-08T10:22:24.000Z</Time>
            <Position>
              <LatitudeDegrees>39.90475145168602466583251953125</LatitudeDegrees>
              <LongitudeDegrees>-6.25616191886365413665771484375</LongitudeDegrees>
            </Position>
            <AltitudeMeters>231.8000030517578125</AltitudeMeters>
            <DistanceMeters>NAN</DistanceMeters>
          </Trackpoint>
          <Trackpoint>
            <Time>2019-10-08T10:22:32.000Z</Time>
            <Position>
              <LatitudeDegrees>39.9042730964720249176025390625</LatitudeDegrees>
              <LongitudeDegrees>-6.25649350695312023162841796875</LongitudeDegrees>
            </Position>
            <AltitudeMeters>232.1999969482421875</AltitudeMeters>
            <DistanceMeters>NAN</DistanceMeters>
          </Trackpoint>
          <Trackpoint>
            <Time>2019-10-08T10:22:33.000Z</Time>
            <Position>
              <LatitudeDegrees>39.9042172729969024658203125</LatitudeDegrees>
              <LongitudeDegrees>-6.25652946531772613525390625</LongitudeDegrees>
            </Position>
            <AltitudeMeters>232.1999969482421875</AltitudeMeters>
            <DistanceMeters>NAN</DistanceMeters>
          </Trackpoint>
          <Trackpoint>
            <Time>2019-10-08T10:22:41.000Z</Time>
            <Position>
              <LatitudeDegrees>39.903734140098094940185546875</LatitudeDegrees>
              <LongitudeDegrees>-6.25684739090502262115478515625</LongitudeDegrees>
            </Position>
            <AltitudeMeters>232.1999969482421875</AltitudeMeters>
            <DistanceMeters>NAN</DistanceMeters>
          </Trackpoint>
          <Trackpoint>
            <Time>2019-10-08T10:22:43.000Z</Time>
            <Position>
              <LatitudeDegrees>39.9036075733602046966552734375</LatitudeDegrees>
              <LongitudeDegrees>-6.256922744214534759521484375</LongitudeDegrees>
            </Position>
            <AltitudeMeters>232.600006103515625</AltitudeMeters>
            <DistanceMeters>NAN</DistanceMeters>
          </Trackpoint>
          <Trackpoint>
            <Time>2019-10-08T10:22:44.000Z</Time>
            <Position>
              <LatitudeDegrees>39.903549067676067352294921875</LatitudeDegrees>
              <LongitudeDegrees>-6.25695786438882350921630859375</LongitudeDegrees>
            </Position>
            <AltitudeMeters>233</AltitudeMeters>
            <DistanceMeters>NAN</DistanceMeters>
          </Trackpoint>
          <Trackpoint>
            <Time>2019-10-08T10:22:52.000Z</Time>
            <Position>
              <LatitudeDegrees>39.90304590202867984771728515625</LatitudeDegrees>
              <LongitudeDegrees>-6.2572642229497432708740234375</LongitudeDegrees>
            </Position>
            <AltitudeMeters>233.1999969482421875</AltitudeMeters>
            <DistanceMeters>NAN</DistanceMeters>
          </Trackpoint>
          <Trackpoint>
            <Time>2019-10-08T10:22:56.000Z</Time>
            <Position>
              <LatitudeDegrees>39.90279310382902622222900390625</LatitudeDegrees>
              <LongitudeDegrees>-6.2574201263487339019775390625</LongitudeDegrees>
            </Position>
            <AltitudeMeters>232.8000030517578125</AltitudeMeters>
            <DistanceMeters>NAN</DistanceMeters>
          </Trackpoint>
          <Trackpoint>
            <Time>2019-10-08T10:23:04.000Z</Time>
            <Position>
              <LatitudeDegrees>39.90228080190718173980712890625</LatitudeDegrees>
              <LongitudeDegrees>-6.25773319043219089508056640625</LongitudeDegrees>
            </Position>
            <AltitudeMeters>232.1999969482421875</AltitudeMeters>
            <DistanceMeters>NAN</DistanceMeters>
          </Trackpoint>
          <Trackpoint>
            <Time>2019-10-08T10:23:05.000Z</Time>
            <Position>
              <LatitudeDegrees>39.90221911109983921051025390625</LatitudeDegrees>
              <LongitudeDegrees>-6.25777266919612884521484375</LongitudeDegrees>
            </Position>
            <AltitudeMeters>231.600006103515625</AltitudeMeters>
            <DistanceMeters>NAN</DistanceMeters>
          </Trackpoint>
          <Trackpoint>
            <Time>2019-10-08T10:23:10.000Z</Time>
            <Position>
              <LatitudeDegrees>39.9019097350537776947021484375</LatitudeDegrees>
              <LongitudeDegrees>-6.25796989537775516510009765625</LongitudeDegrees>
            </Position>
            <AltitudeMeters>232.399993896484375</AltitudeMeters>
            <DistanceMeters>NAN</DistanceMeters>
          </Trackpoint>
          <Trackpoint>
            <Time>2019-10-08T10:23:18.000Z</Time>
            <Position>
              <LatitudeDegrees>39.90142844617366790771484375</LatitudeDegrees>
              <LongitudeDegrees>-6.25830500386655330657958984375</LongitudeDegrees>
            </Position>
            <AltitudeMeters>232.399993896484375</AltitudeMeters>
            <DistanceMeters>NAN</DistanceMeters>
          </Trackpoint>
          <Trackpoint>
            <Time>2019-10-08T10:23:19.000Z</Time>
            <Position>
              <LatitudeDegrees>39.90136943757534027099609375</LatitudeDegrees>
              <LongitudeDegrees>-6.25834691338241100311279296875</LongitudeDegrees>
            </Position>
            <AltitudeMeters>232.8000030517578125</AltitudeMeters>
            <DistanceMeters>NAN</DistanceMeters>
          </Trackpoint>
          <Trackpoint>
            <Time>2019-10-08T10:23:27.000Z</Time>
            <Position>
              <LatitudeDegrees>39.900903739035129547119140625</LatitudeDegrees>
              <LongitudeDegrees>-6.2586985342204570770263671875</LongitudeDegrees>
            </Position>
            <AltitudeMeters>232.1999969482421875</AltitudeMeters>
            <DistanceMeters>NAN</DistanceMeters>
          </Trackpoint>
          <Trackpoint>
            <Time>2019-10-08T10:23:35.000Z</Time>
            <Position>
              <LatitudeDegrees>39.90045170299708843231201171875</LatitudeDegrees>
              <LongitudeDegrees>-6.25907622277736663818359375</LongitudeDegrees>
            </Position>
            <AltitudeMeters>231.8000030517578125</AltitudeMeters>
            <DistanceMeters>NAN</DistanceMeters>
          </Trackpoint>
          <Trackpoint>
            <Time>2019-10-08T10:23:38.000Z</Time>
            <Position>
              <LatitudeDegrees>39.90028314292430877685546875</LatitudeDegrees>
              <LongitudeDegrees>-6.2592232413589954376220703125</LongitudeDegrees>
            </Position>
            <AltitudeMeters>233</AltitudeMeters>
            <DistanceMeters>NAN</DistanceMeters>
          </Trackpoint>
          <Trackpoint>
            <Time>2019-10-08T10:23:41.000Z</Time>
            <Position>
              <LatitudeDegrees>39.90011625923216342926025390625</LatitudeDegrees>
              <LongitudeDegrees>-6.2593717686831951141357421875</LongitudeDegrees>
            </Position>
            <AltitudeMeters>231.600006103515625</AltitudeMeters>
            <DistanceMeters>NAN</DistanceMeters>
          </Trackpoint>
          <Trackpoint>
            <Time>2019-10-08T10:23:46.000Z</Time>
            <Position>
              <LatitudeDegrees>39.8998400755226612091064453125</LatitudeDegrees>
              <LongitudeDegrees>-6.25962875783443450927734375</LongitudeDegrees>
            </Position>
            <AltitudeMeters>232.8000030517578125</AltitudeMeters>
            <DistanceMeters>NAN</DistanceMeters>
          </Trackpoint>
          <Trackpoint>
            <Time>2019-10-08T10:23:49.000Z</Time>
            <Position>
              <LatitudeDegrees>39.89967604167759418487548828125</LatitudeDegrees>
              <LongitudeDegrees>-6.2597881816327571868896484375</LongitudeDegrees>
            </Position>
            <AltitudeMeters>233.1999969482421875</AltitudeMeters>
            <DistanceMeters>NAN</DistanceMeters>
          </Trackpoint>
          <Trackpoint>
            <Time>2019-10-08T10:23:57.000Z</Time>
            <Position>
              <LatitudeDegrees>39.899242110550403594970703125</LatitudeDegrees>
              <LongitudeDegrees>-6.2602129764854907989501953125</LongitudeDegrees>
            </Position>
            <AltitudeMeters>233</AltitudeMeters>
            <DistanceMeters>NAN</DistanceMeters>
          </Trackpoint>
          <Trackpoint>
            <Time>2019-10-08T10:24:03.000Z</Time>
            <Position>
              <LatitudeDegrees>39.8989338241517543792724609375</LatitudeDegrees>
              <LongitudeDegrees>-6.2605200894176959991455078125</LongitudeDegrees>
            </Position>
            <AltitudeMeters>234</AltitudeMeters>
            <DistanceMeters>NAN</DistanceMeters>
          </Trackpoint>
          <Trackpoint>
            <Time>2019-10-08T10:24:11.000Z</Time>
            <Position>
              <LatitudeDegrees>39.8985455743968486785888671875</LatitudeDegrees>
              <LongitudeDegrees>-6.26090087927877902984619140625</LongitudeDegrees>
            </Position>
            <AltitudeMeters>235</AltitudeMeters>
            <DistanceMeters>NAN</DistanceMeters>
          </Trackpoint>
          <Trackpoint>
            <Time>2019-10-08T10:24:15.000Z</Time>
            <Position>
              <LatitudeDegrees>39.89832647144794464111328125</LatitudeDegrees>
              <LongitudeDegrees>-6.2611121870577335357666015625</LongitudeDegrees>
            </Position>
            <AltitudeMeters>234.600006103515625</AltitudeMeters>
            <DistanceMeters>NAN</DistanceMeters>
          </Trackpoint>
          <Trackpoint>
            <Time>2019-10-08T10:24:23.000Z</Time>
            <Position>
              <LatitudeDegrees>39.89787720143795013427734375</LatitudeDegrees>
              <LongitudeDegrees>-6.26152097247540950775146484375</LongitudeDegrees>
            </Position>
            <AltitudeMeters>234.399993896484375</AltitudeMeters>
            <DistanceMeters>NAN</DistanceMeters>
          </Trackpoint>
          <Trackpoint>
            <Time>2019-10-08T10:24:25.000Z</Time>
            <Position>
              <LatitudeDegrees>39.8977616988122463226318359375</LatitudeDegrees>
              <LongitudeDegrees>-6.26161971129477024078369140625</LongitudeDegrees>
            </Position>
            <AltitudeMeters>235</AltitudeMeters>
            <DistanceMeters>NAN</DistanceMeters>
          </Trackpoint>
          <Trackpoint>
            <Time>2019-10-08T10:24:33.000Z</Time>
            <Position>
              <LatitudeDegrees>39.89728719927370548248291015625</LatitudeDegrees>
              <LongitudeDegrees>-6.2619857490062713623046875</LongitudeDegrees>
            </Position>
            <AltitudeMeters>235.600006103515625</AltitudeMeters>
            <DistanceMeters>NAN</DistanceMeters>
          </Trackpoint>
          <Trackpoint>
            <Time>2019-10-08T10:24:34.000Z</Time>
            <Position>
              <LatitudeDegrees>39.8972279392182826995849609375</LatitudeDegrees>
              <LongitudeDegrees>-6.262029670178890228271484375</LongitudeDegrees>
            </Position>
            <AltitudeMeters>235</AltitudeMeters>
            <DistanceMeters>NAN</DistanceMeters>
          </Trackpoint>
          <Trackpoint>
            <Time>2019-10-08T10:24:42.000Z</Time>
            <Position>
              <LatitudeDegrees>39.89674321375787258148193359375</LatitudeDegrees>
              <LongitudeDegrees>-6.2623654492199420928955078125</LongitudeDegrees>
            </Position>
            <AltitudeMeters>235.1999969482421875</AltitudeMeters>
            <DistanceMeters>NAN</DistanceMeters>
          </Trackpoint>
          <Trackpoint>
            <Time>2019-10-08T10:24:43.000Z</Time>
            <Position>
              <LatitudeDegrees>39.89668386988341808319091796875</LatitudeDegrees>
              <LongitudeDegrees>-6.2624043412506580352783203125</LongitudeDegrees>
            </Position>
            <AltitudeMeters>235</AltitudeMeters>
            <DistanceMeters>NAN</DistanceMeters>
          </Trackpoint>
          <Trackpoint>
            <Time>2019-10-08T10:24:51.000Z</Time>
            <Position>
              <LatitudeDegrees>39.89622856490314006805419921875</LatitudeDegrees>
              <LongitudeDegrees>-6.26269527710974216461181640625</LongitudeDegrees>
            </Position>
            <AltitudeMeters>235.8000030517578125</AltitudeMeters>
            <DistanceMeters>NAN</DistanceMeters>
          </Trackpoint>
          <Trackpoint>
            <Time>2019-10-08T10:24:52.000Z</Time>
            <Position>
              <LatitudeDegrees>39.89617089740931987762451171875</LatitudeDegrees>
              <LongitudeDegrees>-6.2627327442169189453125</LongitudeDegrees>
            </Position>
            <AltitudeMeters>236</AltitudeMeters>
            <DistanceMeters>NAN</DistanceMeters>
          </Trackpoint>
          <Trackpoint>
            <Time>2019-10-08T10:25:01.000Z</Time>
            <Position>
              <LatitudeDegrees>39.89567368291318416595458984375</LatitudeDegrees>
              <LongitudeDegrees>-6.2630500830709934234619140625</LongitudeDegrees>
            </Position>
            <AltitudeMeters>235.1999969482421875</AltitudeMeters>
            <DistanceMeters>NAN</DistanceMeters>
          </Trackpoint>
          <Trackpoint>
            <Time>2019-10-08T10:25:03.000Z</Time>
            <Position>
              <LatitudeDegrees>39.89556371234357357025146484375</LatitudeDegrees>
              <LongitudeDegrees>-6.26311956904828548431396484375</LongitudeDegrees>
            </Position>
            <AltitudeMeters>236.600006103515625</AltitudeMeters>
            <DistanceMeters>NAN</DistanceMeters>
          </Trackpoint>
          <Trackpoint>
            <Time>2019-10-08T10:25:12.000Z</Time>
            <Position>
              <LatitudeDegrees>39.8950778134167194366455078125</LatitudeDegrees>
              <LongitudeDegrees>-6.26344545744359493255615234375</LongitudeDegrees>
            </Position>
            <AltitudeMeters>236.1999969482421875</AltitudeMeters>
            <DistanceMeters>NAN</DistanceMeters>
          </Trackpoint>
          <Trackpoint>
            <Time>2019-10-08T10:25:14.000Z</Time>
            <Position>
              <LatitudeDegrees>39.89497127942740917205810546875</LatitudeDegrees>
              <LongitudeDegrees>-6.26352131366729736328125</LongitudeDegrees>
            </Position>
            <AltitudeMeters>236.600006103515625</AltitudeMeters>
            <DistanceMeters>NAN</DistanceMeters>
          </Trackpoint>
          <Trackpoint>
            <Time>2019-10-08T10:25:15.000Z</Time>
            <Position>
              <LatitudeDegrees>39.89491939544677734375</LatitudeDegrees>
              <LongitudeDegrees>-6.2635575234889984130859375</LongitudeDegrees>
            </Position>
            <AltitudeMeters>237.399993896484375</AltitudeMeters>
            <DistanceMeters>NAN</DistanceMeters>
          </Trackpoint>
          <Trackpoint>
            <Time>2019-10-08T10:25:22.000Z</Time>
            <Position>
              <LatitudeDegrees>39.89455905742943286895751953125</LatitudeDegrees>
              <LongitudeDegrees>-6.2638275884091854095458984375</LongitudeDegrees>
            </Position>
            <AltitudeMeters>237.399993896484375</AltitudeMeters>
            <DistanceMeters>NAN</DistanceMeters>
          </Trackpoint>
          <Trackpoint>
            <Time>2019-10-08T10:25:31.000Z</Time>
            <Position>
              <LatitudeDegrees>39.89410400390625</LatitudeDegrees>
              <LongitudeDegrees>-6.2642133235931396484375</LongitudeDegrees>
            </Position>
            <AltitudeMeters>237.399993896484375</AltitudeMeters>
            <DistanceMeters>NAN</DistanceMeters>
          </Trackpoint>
          <Trackpoint>
            <Time>2019-10-08T10:25:33.000Z</Time>
            <Position>
              <LatitudeDegrees>39.89400300197303295135498046875</LatitudeDegrees>
              <LongitudeDegrees>-6.2643026746809482574462890625</LongitudeDegrees>
            </Position>
            <AltitudeMeters>236.8000030517578125</AltitudeMeters>
            <DistanceMeters>NAN</DistanceMeters>
          </Trackpoint>
          <Trackpoint>
            <Time>2019-10-08T10:25:42.000Z</Time>
            <Position>
              <LatitudeDegrees>39.8935635387897491455078125</LatitudeDegrees>
              <LongitudeDegrees>-6.26471330411732196807861328125</LongitudeDegrees>
            </Position>
            <AltitudeMeters>237.8000030517578125</AltitudeMeters>
            <DistanceMeters>NAN</DistanceMeters>
          </Trackpoint>
          <Trackpoint>
            <Time>2019-10-08T10:25:43.000Z</Time>
            <Position>
              <LatitudeDegrees>39.89351534284651279449462890625</LatitudeDegrees>
              <LongitudeDegrees>-6.264762170612812042236328125</LongitudeDegrees>
            </Position>
            <AltitudeMeters>238</AltitudeMeters>
            <DistanceMeters>NAN</DistanceMeters>
          </Trackpoint>
          <Trackpoint>
            <Time>2019-10-08T10:25:44.000Z</Time>
            <Position>
              <LatitudeDegrees>39.8934681527316570281982421875</LatitudeDegrees>
              <LongitudeDegrees>-6.26481137238442897796630859375</LongitudeDegrees>
            </Position>
            <AltitudeMeters>238.600006103515625</AltitudeMeters>
            <DistanceMeters>NAN</DistanceMeters>
          </Trackpoint>
          <Trackpoint>
            <Time>2019-10-08T10:25:50.000Z</Time>
            <Position>
              <LatitudeDegrees>39.89318333566188812255859375</LatitudeDegrees>
              <LongitudeDegrees>-6.26511094160377979278564453125</LongitudeDegrees>
            </Position>
            <AltitudeMeters>238.8000030517578125</AltitudeMeters>
            <DistanceMeters>NAN</DistanceMeters>
          </Trackpoint>
          <Trackpoint>
            <Time>2019-10-08T10:25:54.000Z</Time>
            <Position>
              <LatitudeDegrees>39.892999269068241119384765625</LatitudeDegrees>
              <LongitudeDegrees>-6.2653224170207977294921875</LongitudeDegrees>
            </Position>
            <AltitudeMeters>238.8000030517578125</AltitudeMeters>
            <DistanceMeters>NAN</DistanceMeters>
          </Trackpoint>
          <Trackpoint>
            <Time>2019-10-08T10:26:03.000Z</Time>
            <Position>
              <LatitudeDegrees>39.892594255506992340087890625</LatitudeDegrees>
              <LongitudeDegrees>-6.2658114172518253326416015625</LongitudeDegrees>
            </Position>
            <AltitudeMeters>238.600006103515625</AltitudeMeters>
            <DistanceMeters>NAN</DistanceMeters>
          </Trackpoint>
          <Trackpoint>
            <Time>2019-10-08T10:26:12.000Z</Time>
            <Position>
              <LatitudeDegrees>39.892191924154758453369140625</LatitudeDegrees>
              <LongitudeDegrees>-6.2663072906434535980224609375</LongitudeDegrees>
            </Position>
            <AltitudeMeters>239</AltitudeMeters>
            <DistanceMeters>NAN</DistanceMeters>
          </Trackpoint>
          <Trackpoint>
            <Time>2019-10-08T10:26:14.000Z</Time>
            <Position>
              <LatitudeDegrees>39.89210265688598155975341796875</LatitudeDegrees>
              <LongitudeDegrees>-6.2664172612130641937255859375</LongitudeDegrees>
            </Position>
            <AltitudeMeters>239.1999969482421875</AltitudeMeters>
            <DistanceMeters>NAN</DistanceMeters>
          </Trackpoint>
          <Trackpoint>
            <Time>2019-10-08T10:26:19.000Z</Time>
            <Position>
              <LatitudeDegrees>39.89188087172806262969970703125</LatitudeDegrees>
              <LongitudeDegrees>-6.266703419387340545654296875</LongitudeDegrees>
            </Position>
            <AltitudeMeters>238.8000030517578125</AltitudeMeters>
            <DistanceMeters>NAN</DistanceMeters>
          </Trackpoint>
          <Trackpoint>
            <Time>2019-10-08T10:26:22.000Z</Time>
            <Position>
              <LatitudeDegrees>39.89174391143023967742919921875</LatitudeDegrees>
              <LongitudeDegrees>-6.26686996780335903167724609375</LongitudeDegrees>
            </Position>
            <AltitudeMeters>240.1999969482421875</AltitudeMeters>
            <DistanceMeters>NAN</DistanceMeters>
          </Trackpoint>
          <Trackpoint>
            <Time>2019-10-08T10:26:30.000Z</Time>
            <Position>
              <LatitudeDegrees>39.89138332195580005645751953125</LatitudeDegrees>
              <LongitudeDegrees>-6.267325021326541900634765625</LongitudeDegrees>
            </Position>
            <AltitudeMeters>239.8000030517578125</AltitudeMeters>
            <DistanceMeters>NAN</DistanceMeters>
          </Trackpoint>
          <Trackpoint>
            <Time>2019-10-08T10:26:39.000Z</Time>
            <Position>
              <LatitudeDegrees>39.89097411744296550750732421875</LatitudeDegrees>
              <LongitudeDegrees>-6.26784310676157474517822265625</LongitudeDegrees>
            </Position>
            <AltitudeMeters>241.399993896484375</AltitudeMeters>
            <DistanceMeters>NAN</DistanceMeters>
          </Trackpoint>
          <Trackpoint>
            <Time>2019-10-08T10:26:40.000Z</Time>
            <Position>
              <LatitudeDegrees>39.89092919044196605682373046875</LatitudeDegrees>
              <LongitudeDegrees>-6.2679008580744266510009765625</LongitudeDegrees>
            </Position>
            <AltitudeMeters>241</AltitudeMeters>
            <DistanceMeters>NAN</DistanceMeters>
          </Trackpoint>
          <Trackpoint>
            <Time>2019-10-08T10:26:42.000Z</Time>
            <Position>
              <LatitudeDegrees>39.89083833061158657073974609375</LatitudeDegrees>
              <LongitudeDegrees>-6.268015690147876739501953125</LongitudeDegrees>
            </Position>
            <AltitudeMeters>240.399993896484375</AltitudeMeters>
            <DistanceMeters>NAN</DistanceMeters>
          </Trackpoint>
          <Trackpoint>
            <Time>2019-10-08T10:26:45.000Z</Time>
            <Position>
              <LatitudeDegrees>39.8907001130282878875732421875</LatitudeDegrees>
              <LongitudeDegrees>-6.26818525604903697967529296875</LongitudeDegrees>
            </Position>
            <AltitudeMeters>239.399993896484375</AltitudeMeters>
            <DistanceMeters>NAN</DistanceMeters>
          </Trackpoint>
          <Trackpoint>
            <Time>2019-10-08T10:26:48.000Z</Time>
            <Position>
              <LatitudeDegrees>39.8905621469020843505859375</LatitudeDegrees>
              <LongitudeDegrees>-6.2683564983308315277099609375</LongitudeDegrees>
            </Position>
            <AltitudeMeters>240</AltitudeMeters>
            <DistanceMeters>NAN</DistanceMeters>
          </Trackpoint>
          <Trackpoint>
            <Time>2019-10-08T10:26:52.000Z</Time>
            <Position>
              <LatitudeDegrees>39.8903832770884037017822265625</LatitudeDegrees>
              <LongitudeDegrees>-6.26858222298324108123779296875</LongitudeDegrees>
            </Position>
            <AltitudeMeters>240.399993896484375</AltitudeMeters>
            <DistanceMeters>NAN</DistanceMeters>
          </Trackpoint>
          <Trackpoint>
            <Time>2019-10-08T10:26:59.000Z</Time>
            <Position>
              <LatitudeDegrees>39.89007725380361080169677734375</LatitudeDegrees>
              <LongitudeDegrees>-6.26897156238555908203125</LongitudeDegrees>
            </Position>
            <AltitudeMeters>240.8000030517578125</AltitudeMeters>
            <DistanceMeters>NAN</DistanceMeters>
          </Trackpoint>
          <Trackpoint>
            <Time>2019-10-08T10:27:02.000Z</Time>
            <Position>
              <LatitudeDegrees>39.8899474181234836578369140625</LatitudeDegrees>
              <LongitudeDegrees>-6.26913576386868953704833984375</LongitudeDegrees>
            </Position>
            <AltitudeMeters>241.8000030517578125</AltitudeMeters>
            <DistanceMeters>NAN</DistanceMeters>
          </Trackpoint>
          <Trackpoint>
            <Time>2019-10-08T10:27:08.000Z</Time>
            <Position>
              <LatitudeDegrees>39.88969285972416400909423828125</LatitudeDegrees>
              <LongitudeDegrees>-6.26945897005498409271240234375</LongitudeDegrees>
            </Position>
            <AltitudeMeters>242.1999969482421875</AltitudeMeters>
            <DistanceMeters>NAN</DistanceMeters>
          </Trackpoint>
          <Trackpoint>
            <Time>2019-10-08T10:27:18.000Z</Time>
            <Position>
              <LatitudeDegrees>39.88927711732685565948486328125</LatitudeDegrees>
              <LongitudeDegrees>-6.2699711881577968597412109375</LongitudeDegrees>
            </Position>
            <AltitudeMeters>242.1999969482421875</AltitudeMeters>
            <DistanceMeters>NAN</DistanceMeters>
          </Trackpoint>
          <Trackpoint>
            <Time>2019-10-08T10:27:28.000Z</Time>
            <Position>
              <LatitudeDegrees>39.88888568244874477386474609375</LatitudeDegrees>
              <LongitudeDegrees>-6.2704761140048503875732421875</LongitudeDegrees>
            </Position>
            <AltitudeMeters>242</AltitudeMeters>
            <DistanceMeters>NAN</DistanceMeters>
          </Trackpoint>
          <Trackpoint>
            <Time>2019-10-08T10:27:29.000Z</Time>
            <Position>
              <LatitudeDegrees>39.88884595222771167755126953125</LatitudeDegrees>
              <LongitudeDegrees>-6.27052363939583301544189453125</LongitudeDegrees>
            </Position>
            <AltitudeMeters>242.1999969482421875</AltitudeMeters>
            <DistanceMeters>NAN</DistanceMeters>
          </Trackpoint>
          <Trackpoint>
            <Time>2019-10-08T10:27:31.000Z</Time>
            <Position>
              <LatitudeDegrees>39.8887685872614383697509765625</LatitudeDegrees>
              <LongitudeDegrees>-6.27061969600617885589599609375</LongitudeDegrees>
            </Position>
            <AltitudeMeters>243.1999969482421875</AltitudeMeters>
            <DistanceMeters>NAN</DistanceMeters>
          </Trackpoint>
          <Trackpoint>
            <Time>2019-10-08T10:27:38.000Z</Time>
            <Position>
              <LatitudeDegrees>39.888501204550266265869140625</LatitudeDegrees>
              <LongitudeDegrees>-6.27095765434205532073974609375</LongitudeDegrees>
            </Position>
            <AltitudeMeters>243.600006103515625</AltitudeMeters>
            <DistanceMeters>NAN</DistanceMeters>
          </Trackpoint>
          <Trackpoint>
            <Time>2019-10-08T10:27:47.000Z</Time>
            <Position>
              <LatitudeDegrees>39.88816249184310436248779296875</LatitudeDegrees>
              <LongitudeDegrees>-6.27141715027391910552978515625</LongitudeDegrees>
            </Position>
            <AltitudeMeters>243</AltitudeMeters>
            <DistanceMeters>NAN</DistanceMeters>
          </Trackpoint>
          <Trackpoint>
            <Time>2019-10-08T10:27:52.000Z</Time>
            <Position>
              <LatitudeDegrees>39.887980520725250244140625</LatitudeDegrees>
              <LongitudeDegrees>-6.271685622632503509521484375</LongitudeDegrees>
            </Position>
            <AltitudeMeters>243.8000030517578125</AltitudeMeters>
            <DistanceMeters>NAN</DistanceMeters>
          </Trackpoint>
          <Trackpoint>
            <Time>2019-10-08T10:27:54.000Z</Time>
            <Position>
              <LatitudeDegrees>39.88790097646415233612060546875</LatitudeDegrees>
              <LongitudeDegrees>-6.27177874557673931121826171875</LongitudeDegrees>
            </Position>
            <AltitudeMeters>244</AltitudeMeters>
            <DistanceMeters>NAN</DistanceMeters>
          </Trackpoint>
          <Trackpoint>
            <Time>2019-10-08T10:27:56.000Z</Time>
            <Position>
              <LatitudeDegrees>39.887823276221752166748046875</LatitudeDegrees>
              <LongitudeDegrees>-6.27187413163483142852783203125</LongitudeDegrees>
            </Position>
            <AltitudeMeters>244.1999969482421875</AltitudeMeters>
            <DistanceMeters>NAN</DistanceMeters>
          </Trackpoint>
          <Trackpoint>
            <Time>2019-10-08T10:28:04.000Z</Time>
            <Position>
              <LatitudeDegrees>39.88751222379505634307861328125</LatitudeDegrees>
              <LongitudeDegrees>-6.2722559273242950439453125</LongitudeDegrees>
            </Position>
            <AltitudeMeters>244.8000030517578125</AltitudeMeters>
            <DistanceMeters>NAN</DistanceMeters>
          </Trackpoint>
          <Trackpoint>
            <Time>2019-10-08T10:28:08.000Z</Time>
            <Position>
              <LatitudeDegrees>39.88734492100775241851806640625</LatitudeDegrees>
              <LongitudeDegrees>-6.27243630588054656982421875</LongitudeDegrees>
            </Position>
            <AltitudeMeters>245.1999969482421875</AltitudeMeters>
            <DistanceMeters>NAN</DistanceMeters>
          </Trackpoint>
          <Trackpoint>
            <Time>2019-10-08T10:28:12.000Z</Time>
            <Position>
              <LatitudeDegrees>39.88717946223914623260498046875</LatitudeDegrees>
              <LongitudeDegrees>-6.2726104818284511566162109375</LongitudeDegrees>
            </Position>
            <AltitudeMeters>245.399993896484375</AltitudeMeters>
            <DistanceMeters>NAN</DistanceMeters>
          </Trackpoint>
          <Trackpoint>
            <Time>2019-10-08T10:28:22.000Z</Time>
            <Position>
              <LatitudeDegrees>39.88678433932363986968994140625</LatitudeDegrees>
              <LongitudeDegrees>-6.27310208044946193695068359375</LongitudeDegrees>
            </Position>
            <AltitudeMeters>246.1999969482421875</AltitudeMeters>
            <DistanceMeters>NAN</DistanceMeters>
          </Trackpoint>
          <Trackpoint>
            <Time>2019-10-08T10:28:23.000Z</Time>
            <Position>
              <LatitudeDegrees>39.8867462016642093658447265625</LatitudeDegrees>
              <LongitudeDegrees>-6.2731509469449520111083984375</LongitudeDegrees>
            </Position>
            <AltitudeMeters>246.1999969482421875</AltitudeMeters>
            <DistanceMeters>NAN</DistanceMeters>
          </Trackpoint>
          <Trackpoint>
            <Time>2019-10-08T10:28:27.000Z</Time>
            <Position>
              <LatitudeDegrees>39.8865913040935993194580078125</LatitudeDegrees>
              <LongitudeDegrees>-6.2733521126210689544677734375</LongitudeDegrees>
            </Position>
            <AltitudeMeters>246</AltitudeMeters>
            <DistanceMeters>NAN</DistanceMeters>
          </Trackpoint>
          <Trackpoint>
            <Time>2019-10-08T10:28:37.000Z</Time>
            <Position>
              <LatitudeDegrees>39.8862062394618988037109375</LatitudeDegrees>
              <LongitudeDegrees>-6.27383935265243053436279296875</LongitudeDegrees>
            </Position>
            <AltitudeMeters>246.1999969482421875</AltitudeMeters>
            <DistanceMeters>NAN</DistanceMeters>
          </Trackpoint>
          <Trackpoint>
            <Time>2019-10-08T10:28:38.000Z</Time>
            <Position>
              <LatitudeDegrees>39.88616776652634143829345703125</LatitudeDegrees>
              <LongitudeDegrees>-6.27388679422438144683837890625</LongitudeDegrees>
            </Position>
            <AltitudeMeters>246.1999969482421875</AltitudeMeters>
            <DistanceMeters>NAN</DistanceMeters>
          </Trackpoint>
          <Trackpoint>
            <Time>2019-10-08T10:28:47.000Z</Time>
            <Position>
              <LatitudeDegrees>39.88581891171634197235107421875</LatitudeDegrees>
              <LongitudeDegrees>-6.27431862987577915191650390625</LongitudeDegrees>
            </Position>
            <AltitudeMeters>247.600006103515625</AltitudeMeters>
            <DistanceMeters>NAN</DistanceMeters>
          </Trackpoint>
          <Trackpoint>
            <Time>2019-10-08T10:28:55.000Z</Time>
            <Position>
              <LatitudeDegrees>39.8855043388903141021728515625</LatitudeDegrees>
              <LongitudeDegrees>-6.27470805309712886810302734375</LongitudeDegrees>
            </Position>
            <AltitudeMeters>248</AltitudeMeters>
            <DistanceMeters>NAN</DistanceMeters>
          </Trackpoint>
          <Trackpoint>
            <Time>2019-10-08T10:28:56.000Z</Time>
            <Position>
              <LatitudeDegrees>39.88546536304056644439697265625</LatitudeDegrees>
              <LongitudeDegrees>-6.2747585959732532501220703125</LongitudeDegrees>
            </Position>
            <AltitudeMeters>247.8000030517578125</AltitudeMeters>
            <DistanceMeters>NAN</DistanceMeters>
          </Trackpoint>
          <Trackpoint>
            <Time>2019-10-08T10:29:05.000Z</Time>
            <Position>
              <LatitudeDegrees>39.88511030562222003936767578125</LatitudeDegrees>
              <LongitudeDegrees>-6.2751981429755687713623046875</LongitudeDegrees>
            </Position>
            <AltitudeMeters>248</AltitudeMeters>
            <DistanceMeters>NAN</DistanceMeters>
          </Trackpoint>
          <Trackpoint>
            <Time>2019-10-08T10:29:13.000Z</Time>
            <Position>
              <LatitudeDegrees>39.88478726707398891448974609375</LatitudeDegrees>
              <LongitudeDegrees>-6.275595612823963165283203125</LongitudeDegrees>
            </Position>
            <AltitudeMeters>248.8000030517578125</AltitudeMeters>
            <DistanceMeters>NAN</DistanceMeters>
          </Trackpoint>
          <Trackpoint>
            <Time>2019-10-08T10:29:16.000Z</Time>
            <Position>
              <LatitudeDegrees>39.8846661485731601715087890625</LatitudeDegrees>
              <LongitudeDegrees>-6.27574522979557514190673828125</LongitudeDegrees>
            </Position>
            <AltitudeMeters>249</AltitudeMeters>
            <DistanceMeters>NAN</DistanceMeters>
          </Trackpoint>
          <Trackpoint>
            <Time>2019-10-08T10:29:26.000Z</Time>
            <Position>
              <LatitudeDegrees>39.88426121883094310760498046875</LatitudeDegrees>
              <LongitudeDegrees>-6.27625853754580020904541015625</LongitudeDegrees>
            </Position>
            <AltitudeMeters>249.1999969482421875</AltitudeMeters>
            <DistanceMeters>NAN</DistanceMeters>
          </Trackpoint>
          <Trackpoint>
            <Time>2019-10-08T10:29:28.000Z</Time>
            <Position>
              <LatitudeDegrees>39.88418024964630603790283203125</LatitudeDegrees>
              <LongitudeDegrees>-6.27635861746966838836669921875</LongitudeDegrees>
            </Position>
            <AltitudeMeters>248.600006103515625</AltitudeMeters>
            <DistanceMeters>NAN</DistanceMeters>
          </Trackpoint>
          <Trackpoint>
            <Time>2019-10-08T10:29:38.000Z</Time>
            <Position>
              <LatitudeDegrees>39.88377758301794528961181640625</LatitudeDegrees>
              <LongitudeDegrees>-6.27686371095478534698486328125</LongitudeDegrees>
            </Position>
            <AltitudeMeters>249.600006103515625</AltitudeMeters>
            <DistanceMeters>NAN</DistanceMeters>
          </Trackpoint>
          <Trackpoint>
            <Time>2019-10-08T10:29:43.000Z</Time>
            <Position>
              <LatitudeDegrees>39.8835808597505092620849609375</LatitudeDegrees>
              <LongitudeDegrees>-6.27711533568799495697021484375</LongitudeDegrees>
            </Position>
            <AltitudeMeters>250</AltitudeMeters>
            <DistanceMeters>NAN</DistanceMeters>
          </Trackpoint>
          <Trackpoint>
            <Time>2019-10-08T10:29:47.000Z</Time>
            <Position>
              <LatitudeDegrees>39.8834236152470111846923828125</LatitudeDegrees>
              <LongitudeDegrees>-6.27730719745159149169921875</LongitudeDegrees>
            </Position>
            <AltitudeMeters>250.600006103515625</AltitudeMeters>
            <DistanceMeters>NAN</DistanceMeters>
          </Trackpoint>
          <Trackpoint>
            <Time>2019-10-08T10:29:56.000Z</Time>
            <Position>
              <LatitudeDegrees>39.88306947983801364898681640625</LatitudeDegrees>
              <LongitudeDegrees>-6.2777490913867950439453125</LongitudeDegrees>
            </Position>
            <AltitudeMeters>251</AltitudeMeters>
            <DistanceMeters>NAN</DistanceMeters>
          </Trackpoint>
          <Trackpoint>
            <Time>2019-10-08T10:29:58.000Z</Time>
            <Position>
              <LatitudeDegrees>39.88298918120563030242919921875</LatitudeDegrees>
              <LongitudeDegrees>-6.2778441421687602996826171875</LongitudeDegrees>
            </Position>
            <AltitudeMeters>251.399993896484375</AltitudeMeters>
            <DistanceMeters>NAN</DistanceMeters>
          </Trackpoint>
          <Trackpoint>
            <Time>2019-10-08T10:30:03.000Z</Time>
            <Position>
              <LatitudeDegrees>39.88279648125171661376953125</LatitudeDegrees>
              <LongitudeDegrees>-6.27809031866490840911865234375</LongitudeDegrees>
            </Position>
            <AltitudeMeters>252.1999969482421875</AltitudeMeters>
            <DistanceMeters>NAN</DistanceMeters>
          </Trackpoint>
          <Trackpoint>
            <Time>2019-10-08T10:30:08.000Z</Time>
            <Position>
              <LatitudeDegrees>39.882604368031024932861328125</LatitudeDegrees>
              <LongitudeDegrees>-6.27834244631230831146240234375</LongitudeDegrees>
            </Position>
            <AltitudeMeters>253.399993896484375</AltitudeMeters>
            <DistanceMeters>NAN</DistanceMeters>
          </Trackpoint>
          <Trackpoint>
            <Time>2019-10-08T10:30:17.000Z</Time>
            <Position>
              <LatitudeDegrees>39.8822558484971523284912109375</LatitudeDegrees>
              <LongitudeDegrees>-6.27878316678106784820556640625</LongitudeDegrees>
            </Position>
            <AltitudeMeters>254.8000030517578125</AltitudeMeters>
            <DistanceMeters>NAN</DistanceMeters>
          </Trackpoint>
          <Trackpoint>
            <Time>2019-10-08T10:30:19.000Z</Time>
            <Position>
              <LatitudeDegrees>39.882175885140895843505859375</LatitudeDegrees>
              <LongitudeDegrees>-6.2788798101246356964111328125</LongitudeDegrees>
            </Position>
            <AltitudeMeters>255</AltitudeMeters>
            <DistanceMeters>NAN</DistanceMeters>
          </Trackpoint>
          <Trackpoint>
            <Time>2019-10-08T10:30:29.000Z</Time>
            <Position>
              <LatitudeDegrees>39.88178704865276813507080078125</LatitudeDegrees>
              <LongitudeDegrees>-6.27938515506684780120849609375</LongitudeDegrees>
            </Position>
            <AltitudeMeters>255</AltitudeMeters>
            <DistanceMeters>NAN</DistanceMeters>
          </Trackpoint>
          <Trackpoint>
            <Time>2019-10-08T10:30:31.000Z</Time>
            <Position>
              <LatitudeDegrees>39.8817120306193828582763671875</LatitudeDegrees>
              <LongitudeDegrees>-6.2794869951903820037841796875</LongitudeDegrees>
            </Position>
            <AltitudeMeters>255</AltitudeMeters>
            <DistanceMeters>NAN</DistanceMeters>
          </Trackpoint>
          <Trackpoint>
            <Time>2019-10-08T10:30:34.000Z</Time>
            <Position>
              <LatitudeDegrees>39.88160180859267711639404296875</LatitudeDegrees>
              <LongitudeDegrees>-6.27964398823678493499755859375</LongitudeDegrees>
            </Position>
            <AltitudeMeters>255.8000030517578125</AltitudeMeters>
            <DistanceMeters>NAN</DistanceMeters>
          </Trackpoint>
          <Trackpoint>
            <Time>2019-10-08T10:30:40.000Z</Time>
            <Position>
              <LatitudeDegrees>39.88138169981539249420166015625</LatitudeDegrees>
              <LongitudeDegrees>-6.27996199764311313629150390625</LongitudeDegrees>
            </Position>
            <AltitudeMeters>256.79998779296875</AltitudeMeters>
            <DistanceMeters>NAN</DistanceMeters>
          </Trackpoint>
          <Trackpoint>
            <Time>2019-10-08T10:30:42.000Z</Time>
            <Position>
              <LatitudeDegrees>39.8813112080097198486328125</LatitudeDegrees>
              <LongitudeDegrees>-6.28006978891789913177490234375</LongitudeDegrees>
            </Position>
            <AltitudeMeters>256.79998779296875</AltitudeMeters>
            <DistanceMeters>NAN</DistanceMeters>
          </Trackpoint>
          <Trackpoint>
            <Time>2019-10-08T10:30:49.000Z</Time>
            <Position>
              <LatitudeDegrees>39.8810652829706668853759765625</LatitudeDegrees>
              <LongitudeDegrees>-6.28045485354959964752197265625</LongitudeDegrees>
            </Position>
            <AltitudeMeters>257.399993896484375</AltitudeMeters>
            <DistanceMeters>NAN</DistanceMeters>
          </Trackpoint>
          <Trackpoint>
            <Time>2019-10-08T10:30:51.000Z</Time>
            <Position>
              <LatitudeDegrees>39.8809958808124065399169921875</LatitudeDegrees>
              <LongitudeDegrees>-6.2805675901472568511962890625</LongitudeDegrees>
            </Position>
            <AltitudeMeters>257.600006103515625</AltitudeMeters>
            <DistanceMeters>NAN</DistanceMeters>
          </Trackpoint>
          <Trackpoint>
            <Time>2019-10-08T10:30:56.000Z</Time>
            <Position>
              <LatitudeDegrees>39.88082480616867542266845703125</LatitudeDegrees>
              <LongitudeDegrees>-6.280846707522869110107421875</LongitudeDegrees>
            </Position>
            <AltitudeMeters>257.79998779296875</AltitudeMeters>
            <DistanceMeters>NAN</DistanceMeters>
          </Trackpoint>
          <Trackpoint>
            <Time>2019-10-08T10:30:59.000Z</Time>
            <Position>
              <LatitudeDegrees>39.8807199485599994659423828125</LatitudeDegrees>
              <LongitudeDegrees>-6.28102214075624942779541015625</LongitudeDegrees>
            </Position>
            <AltitudeMeters>258.20001220703125</AltitudeMeters>
            <DistanceMeters>NAN</DistanceMeters>
          </Trackpoint>
          <Trackpoint>
            <Time>2019-10-08T10:31:09.000Z</Time>
            <Position>
              <LatitudeDegrees>39.88037721253931522369384765625</LatitudeDegrees>
              <LongitudeDegrees>-6.28160141408443450927734375</LongitudeDegrees>
            </Position>
            <AltitudeMeters>257.600006103515625</AltitudeMeters>
            <DistanceMeters>NAN</DistanceMeters>
          </Trackpoint>
          <Trackpoint>
            <Time>2019-10-08T10:31:15.000Z</Time>
            <Position>
              <LatitudeDegrees>39.88017085008323192596435546875</LatitudeDegrees>
              <LongitudeDegrees>-6.28195856697857379913330078125</LongitudeDegrees>
            </Position>
            <AltitudeMeters>258.399993896484375</AltitudeMeters>
            <DistanceMeters>NAN</DistanceMeters>
          </Trackpoint>
          <Trackpoint>
            <Time>2019-10-08T10:31:20.000Z</Time>
            <Position>
              <LatitudeDegrees>39.879997931420803070068359375</LatitudeDegrees>
              <LongitudeDegrees>-6.28226182423532009124755859375</LongitudeDegrees>
            </Position>
            <AltitudeMeters>258.20001220703125</AltitudeMeters>
            <DistanceMeters>NAN</DistanceMeters>
          </Trackpoint>
          <Trackpoint>
            <Time>2019-10-08T10:31:26.000Z</Time>
            <Position>
              <LatitudeDegrees>39.879786036908626556396484375</LatitudeDegrees>
              <LongitudeDegrees>-6.28262937068939208984375</LongitudeDegrees>
            </Position>
            <AltitudeMeters>257.600006103515625</AltitudeMeters>
            <DistanceMeters>NAN</DistanceMeters>
          </Trackpoint>
          <Trackpoint>
            <Time>2019-10-08T10:31:30.000Z</Time>
            <Position>
              <LatitudeDegrees>39.87965083681046962738037109375</LatitudeDegrees>
              <LongitudeDegrees>-6.2828662432730197906494140625</LongitudeDegrees>
            </Position>
            <AltitudeMeters>258</AltitudeMeters>
            <DistanceMeters>NAN</DistanceMeters>
          </Trackpoint>
          <Trackpoint>
            <Time>2019-10-08T10:31:38.000Z</Time>
            <Position>
              <LatitudeDegrees>39.879379011690616607666015625</LatitudeDegrees>
              <LongitudeDegrees>-6.28332448191940784454345703125</LongitudeDegrees>
            </Position>
            <AltitudeMeters>258.79998779296875</AltitudeMeters>
            <DistanceMeters>NAN</DistanceMeters>
          </Trackpoint>
          <Trackpoint>
            <Time>2019-10-08T10:31:44.000Z</Time>
            <Position>
              <LatitudeDegrees>39.87917725928127765655517578125</LatitudeDegrees>
              <LongitudeDegrees>-6.28366864286363124847412109375</LongitudeDegrees>
            </Position>
            <AltitudeMeters>259.399993896484375</AltitudeMeters>
            <DistanceMeters>NAN</DistanceMeters>
          </Trackpoint>
          <Trackpoint>
            <Time>2019-10-08T10:31:46.000Z</Time>
            <Position>
              <LatitudeDegrees>39.8791116289794445037841796875</LatitudeDegrees>
              <LongitudeDegrees>-6.283783055841922760009765625</LongitudeDegrees>
            </Position>
            <AltitudeMeters>260.399993896484375</AltitudeMeters>
            <DistanceMeters>NAN</DistanceMeters>
          </Trackpoint>
          <Trackpoint>
            <Time>2019-10-08T10:31:47.000Z</Time>
            <Position>
              <LatitudeDegrees>39.87907935865223407745361328125</LatitudeDegrees>
              <LongitudeDegrees>-6.28383862785995006561279296875</LongitudeDegrees>
            </Position>
            <AltitudeMeters>260.20001220703125</AltitudeMeters>
            <DistanceMeters>NAN</DistanceMeters>
          </Trackpoint>
          <Trackpoint>
            <Time>2019-10-08T10:31:54.000Z</Time>
            <Position>
              <LatitudeDegrees>39.87886193208396434783935546875</LatitudeDegrees>
              <LongitudeDegrees>-6.28422168083488941192626953125</LongitudeDegrees>
            </Position>
            <AltitudeMeters>261.399993896484375</AltitudeMeters>
            <DistanceMeters>NAN</DistanceMeters>
          </Trackpoint>
          <Trackpoint>
            <Time>2019-10-08T10:31:57.000Z</Time>
            <Position>
              <LatitudeDegrees>39.8787719942629337310791015625</LatitudeDegrees>
              <LongitudeDegrees>-6.28438261337578296661376953125</LongitudeDegrees>
            </Position>
            <AltitudeMeters>261.79998779296875</AltitudeMeters>
            <DistanceMeters>NAN</DistanceMeters>
          </Trackpoint>
          <Trackpoint>
            <Time>2019-10-08T10:32:03.000Z</Time>
            <Position>
              <LatitudeDegrees>39.87858541309833526611328125</LatitudeDegrees>
              <LongitudeDegrees>-6.284693665802478790283203125</LongitudeDegrees>
            </Position>
            <AltitudeMeters>262.600006103515625</AltitudeMeters>
            <DistanceMeters>NAN</DistanceMeters>
          </Trackpoint>
          <Trackpoint>
            <Time>2019-10-08T10:32:06.000Z</Time>
            <Position>
              <LatitudeDegrees>39.87849480472505092620849609375</LatitudeDegrees>
              <LongitudeDegrees>-6.28485853783786296844482421875</LongitudeDegrees>
            </Position>
            <AltitudeMeters>262.79998779296875</AltitudeMeters>
            <DistanceMeters>NAN</DistanceMeters>
          </Trackpoint>
          <Trackpoint>
            <Time>2019-10-08T10:32:09.000Z</Time>
            <Position>
              <LatitudeDegrees>39.87840210087597370147705078125</LatitudeDegrees>
              <LongitudeDegrees>-6.2850140221416950225830078125</LongitudeDegrees>
            </Position>
            <AltitudeMeters>263.399993896484375</AltitudeMeters>
            <DistanceMeters>NAN</DistanceMeters>
          </Trackpoint>
          <Trackpoint>
            <Time>2019-10-08T10:32:11.000Z</Time>
            <Position>
              <LatitudeDegrees>39.878338314592838287353515625</LatitudeDegrees>
              <LongitudeDegrees>-6.28511150367558002471923828125</LongitudeDegrees>
            </Position>
            <AltitudeMeters>263.600006103515625</AltitudeMeters>
            <DistanceMeters>NAN</DistanceMeters>
          </Trackpoint>
          <Trackpoint>
            <Time>2019-10-08T10:32:12.000Z</Time>
            <Position>
              <LatitudeDegrees>39.87830738537013530731201171875</LatitudeDegrees>
              <LongitudeDegrees>-6.2851612083613872528076171875</LongitudeDegrees>
            </Position>
            <AltitudeMeters>263.600006103515625</AltitudeMeters>
            <DistanceMeters>NAN</DistanceMeters>
          </Trackpoint>
          <Trackpoint>
            <Time>2019-10-08T10:32:18.000Z</Time>
            <Position>
              <LatitudeDegrees>39.87812281586229801177978515625</LatitudeDegrees>
              <LongitudeDegrees>-6.2854616157710552215576171875</LongitudeDegrees>
            </Position>
            <AltitudeMeters>264.79998779296875</AltitudeMeters>
            <DistanceMeters>NAN</DistanceMeters>
          </Trackpoint>
          <Trackpoint>
            <Time>2019-10-08T10:32:23.000Z</Time>
            <Position>
              <LatitudeDegrees>39.87796439789235591888427734375</LatitudeDegrees>
              <LongitudeDegrees>-6.2857087142765522003173828125</LongitudeDegrees>
            </Position>
            <AltitudeMeters>265.20001220703125</AltitudeMeters>
            <DistanceMeters>NAN</DistanceMeters>
          </Trackpoint>
          <Trackpoint>
            <Time>2019-10-08T10:32:28.000Z</Time>
            <Position>
              <LatitudeDegrees>39.8778028786182403564453125</LatitudeDegrees>
              <LongitudeDegrees>-6.2859464250504970550537109375</LongitudeDegrees>
            </Position>
            <AltitudeMeters>266</AltitudeMeters>
            <DistanceMeters>NAN</DistanceMeters>
          </Trackpoint>
          <Trackpoint>
            <Time>2019-10-08T10:32:32.000Z</Time>
            <Position>
              <LatitudeDegrees>39.8776806704699993133544921875</LatitudeDegrees>
              <LongitudeDegrees>-6.28612764179706573486328125</LongitudeDegrees>
            </Position>
            <AltitudeMeters>266</AltitudeMeters>
            <DistanceMeters>NAN</DistanceMeters>
          </Trackpoint>
          <Trackpoint>
            <Time>2019-10-08T10:32:41.000Z</Time>
            <Position>
              <LatitudeDegrees>39.87737783230841159820556640625</LatitudeDegrees>
              <LongitudeDegrees>-6.28655671142041683197021484375</LongitudeDegrees>
            </Position>
            <AltitudeMeters>266.20001220703125</AltitudeMeters>
            <DistanceMeters>NAN</DistanceMeters>
          </Trackpoint>
          <Trackpoint>
            <Time>2019-10-08T10:32:47.000Z</Time>
            <Position>
              <LatitudeDegrees>39.8771593160927295684814453125</LatitudeDegrees>
              <LongitudeDegrees>-6.28686047159135341644287109375</LongitudeDegrees>
            </Position>
            <AltitudeMeters>267</AltitudeMeters>
            <DistanceMeters>NAN</DistanceMeters>
          </Trackpoint>
          <Trackpoint>
            <Time>2019-10-08T10:32:50.000Z</Time>
            <Position>
              <LatitudeDegrees>39.877049513161182403564453125</LatitudeDegrees>
              <LongitudeDegrees>-6.28701352514326572418212890625</LongitudeDegrees>
            </Position>
            <AltitudeMeters>266.79998779296875</AltitudeMeters>
            <DistanceMeters>NAN</DistanceMeters>
          </Trackpoint>
          <Trackpoint>
            <Time>2019-10-08T10:33:00.000Z</Time>
            <Position>
              <LatitudeDegrees>39.87668045796453952789306640625</LatitudeDegrees>
              <LongitudeDegrees>-6.287518702447414398193359375</LongitudeDegrees>
            </Position>
            <AltitudeMeters>267</AltitudeMeters>
            <DistanceMeters>NAN</DistanceMeters>
          </Trackpoint>
          <Trackpoint>
            <Time>2019-10-08T10:33:09.000Z</Time>
            <Position>
              <LatitudeDegrees>39.87634442746639251708984375</LatitudeDegrees>
              <LongitudeDegrees>-6.2879812158644199371337890625</LongitudeDegrees>
            </Position>
            <AltitudeMeters>266.600006103515625</AltitudeMeters>
            <DistanceMeters>NAN</DistanceMeters>
          </Trackpoint>
          <Trackpoint>
            <Time>2019-10-08T10:33:15.000Z</Time>
            <Position>
              <LatitudeDegrees>39.87611752934753894805908203125</LatitudeDegrees>
              <LongitudeDegrees>-6.288285143673419952392578125</LongitudeDegrees>
            </Position>
            <AltitudeMeters>267</AltitudeMeters>
            <DistanceMeters>NAN</DistanceMeters>
          </Trackpoint>
          <Trackpoint>
            <Time>2019-10-08T10:33:21.000Z</Time>
            <Position>
              <LatitudeDegrees>39.87589121796190738677978515625</LatitudeDegrees>
              <LongitudeDegrees>-6.28859393298625946044921875</LongitudeDegrees>
            </Position>
            <AltitudeMeters>267.399993896484375</AltitudeMeters>
            <DistanceMeters>NAN</DistanceMeters>
          </Trackpoint>
          <Trackpoint>
            <Time>2019-10-08T10:33:26.000Z</Time>
            <Position>
              <LatitudeDegrees>39.8757001943886280059814453125</LatitudeDegrees>
              <LongitudeDegrees>-6.288857124745845794677734375</LongitudeDegrees>
            </Position>
            <AltitudeMeters>267.79998779296875</AltitudeMeters>
            <DistanceMeters>NAN</DistanceMeters>
          </Trackpoint>
          <Trackpoint>
            <Time>2019-10-08T10:33:28.000Z</Time>
            <Position>
              <LatitudeDegrees>39.8756250925362110137939453125</LatitudeDegrees>
              <LongitudeDegrees>-6.28896248526871204376220703125</LongitudeDegrees>
            </Position>
            <AltitudeMeters>268</AltitudeMeters>
            <DistanceMeters>NAN</DistanceMeters>
          </Trackpoint>
          <Trackpoint>
            <Time>2019-10-08T10:33:36.000Z</Time>
            <Position>
              <LatitudeDegrees>39.87531638704240322113037109375</LatitudeDegrees>
              <LongitudeDegrees>-6.28938090987503528594970703125</LongitudeDegrees>
            </Position>
            <AltitudeMeters>267.399993896484375</AltitudeMeters>
            <DistanceMeters>NAN</DistanceMeters>
          </Trackpoint>
          <Trackpoint>
            <Time>2019-10-08T10:33:46.000Z</Time>
            <Position>
              <LatitudeDegrees>39.87493249587714672088623046875</LatitudeDegrees>
              <LongitudeDegrees>-6.28991131670773029327392578125</LongitudeDegrees>
            </Position>
            <AltitudeMeters>268.20001220703125</AltitudeMeters>
            <DistanceMeters>NAN</DistanceMeters>
          </Trackpoint>
          <Trackpoint>
            <Time>2019-10-08T10:33:47.000Z</Time>
            <Position>
              <LatitudeDegrees>39.874893687665462493896484375</LatitudeDegrees>
              <LongitudeDegrees>-6.28996261395514011383056640625</LongitudeDegrees>
            </Position>
            <AltitudeMeters>268.20001220703125</AltitudeMeters>
            <DistanceMeters>NAN</DistanceMeters>
          </Trackpoint>
          <Trackpoint>
            <Time>2019-10-08T10:33:57.000Z</Time>
            <Position>
              <LatitudeDegrees>39.87451004795730113983154296875</LatitudeDegrees>
              <LongitudeDegrees>-6.29049561917781829833984375</LongitudeDegrees>
            </Position>
            <AltitudeMeters>268.600006103515625</AltitudeMeters>
            <DistanceMeters>NAN</DistanceMeters>
          </Trackpoint>
          <Trackpoint>
            <Time>2019-10-08T10:34:01.000Z</Time>
            <Position>
              <LatitudeDegrees>39.87436017952859401702880859375</LatitudeDegrees>
              <LongitudeDegrees>-6.2907049991190433502197265625</LongitudeDegrees>
            </Position>
            <AltitudeMeters>269</AltitudeMeters>
            <DistanceMeters>NAN</DistanceMeters>
          </Trackpoint>
          <Trackpoint>
            <Time>2019-10-08T10:34:08.000Z</Time>
            <Position>
              <LatitudeDegrees>39.87409539520740509033203125</LatitudeDegrees>
              <LongitudeDegrees>-6.291060559451580047607421875</LongitudeDegrees>
            </Position>
            <AltitudeMeters>270</AltitudeMeters>
            <DistanceMeters>NAN</DistanceMeters>
          </Trackpoint>
          <Trackpoint>
            <Time>2019-10-08T10:34:10.000Z</Time>
            <Position>
              <LatitudeDegrees>39.8740209639072418212890625</LatitudeDegrees>
              <LongitudeDegrees>-6.2911616452038288116455078125</LongitudeDegrees>
            </Position>
            <AltitudeMeters>270.20001220703125</AltitudeMeters>
            <DistanceMeters>NAN</DistanceMeters>
          </Trackpoint>
          <Trackpoint>
            <Time>2019-10-08T10:34:17.000Z</Time>
            <Position>
              <LatitudeDegrees>39.87376506440341472625732421875</LatitudeDegrees>
              <LongitudeDegrees>-6.291517205536365509033203125</LongitudeDegrees>
            </Position>
            <AltitudeMeters>270.79998779296875</AltitudeMeters>
            <DistanceMeters>NAN</DistanceMeters>
          </Trackpoint>
          <Trackpoint>
            <Time>2019-10-08T10:34:19.000Z</Time>
            <Position>
              <LatitudeDegrees>39.87369230948388576507568359375</LatitudeDegrees>
              <LongitudeDegrees>-6.29161904565989971160888671875</LongitudeDegrees>
            </Position>
            <AltitudeMeters>271.399993896484375</AltitudeMeters>
            <DistanceMeters>NAN</DistanceMeters>
          </Trackpoint>
          <Trackpoint>
            <Time>2019-10-08T10:34:28.000Z</Time>
            <Position>
              <LatitudeDegrees>39.8733505792915821075439453125</LatitudeDegrees>
              <LongitudeDegrees>-6.29207954742014408111572265625</LongitudeDegrees>
            </Position>
            <AltitudeMeters>271.79998779296875</AltitudeMeters>
            <DistanceMeters>NAN</DistanceMeters>
          </Trackpoint>
          <Trackpoint>
            <Time>2019-10-08T10:34:35.000Z</Time>
            <Position>
              <LatitudeDegrees>39.8730907402932643890380859375</LatitudeDegrees>
              <LongitudeDegrees>-6.2924430705606937408447265625</LongitudeDegrees>
            </Position>
            <AltitudeMeters>272.399993896484375</AltitudeMeters>
            <DistanceMeters>NAN</DistanceMeters>
          </Trackpoint>
          <Trackpoint>
            <Time>2019-10-08T10:34:37.000Z</Time>
            <Position>
              <LatitudeDegrees>39.87301588989794254302978515625</LatitudeDegrees>
              <LongitudeDegrees>-6.292549856007099151611328125</LongitudeDegrees>
            </Position>
            <AltitudeMeters>272.399993896484375</AltitudeMeters>
            <DistanceMeters>NAN</DistanceMeters>
          </Trackpoint>
          <Trackpoint>
            <Time>2019-10-08T10:34:43.000Z</Time>
            <Position>
              <LatitudeDegrees>39.8727785982191562652587890625</LatitudeDegrees>
              <LongitudeDegrees>-6.29286132752895355224609375</LongitudeDegrees>
            </Position>
            <AltitudeMeters>272.600006103515625</AltitudeMeters>
            <DistanceMeters>NAN</DistanceMeters>
          </Trackpoint>
          <Trackpoint>
            <Time>2019-10-08T10:34:52.000Z</Time>
            <Position>
              <LatitudeDegrees>39.87242563627660274505615234375</LatitudeDegrees>
              <LongitudeDegrees>-6.29335577599704265594482421875</LongitudeDegrees>
            </Position>
            <AltitudeMeters>272.79998779296875</AltitudeMeters>
            <DistanceMeters>NAN</DistanceMeters>
          </Trackpoint>
          <Trackpoint>
            <Time>2019-10-08T10:35:01.000Z</Time>
            <Position>
              <LatitudeDegrees>39.8720386438071727752685546875</LatitudeDegrees>
              <LongitudeDegrees>-6.29388668574392795562744140625</LongitudeDegrees>
            </Position>
            <AltitudeMeters>273</AltitudeMeters>
            <DistanceMeters>NAN</DistanceMeters>
          </Trackpoint>
          <Trackpoint>
            <Time>2019-10-08T10:35:10.000Z</Time>
            <Position>
              <LatitudeDegrees>39.87164310179650783538818359375</LatitudeDegrees>
              <LongitudeDegrees>-6.29442580975592136383056640625</LongitudeDegrees>
            </Position>
            <AltitudeMeters>273.20001220703125</AltitudeMeters>
            <DistanceMeters>NAN</DistanceMeters>
          </Trackpoint>
          <Trackpoint>
            <Time>2019-10-08T10:35:13.000Z</Time>
            <Position>
              <LatitudeDegrees>39.8715112544596195220947265625</LatitudeDegrees>
              <LongitudeDegrees>-6.2946072779595851898193359375</LongitudeDegrees>
            </Position>
            <AltitudeMeters>273.20001220703125</AltitudeMeters>
            <DistanceMeters>NAN</DistanceMeters>
          </Trackpoint>
          <Trackpoint>
            <Time>2019-10-08T10:35:22.000Z</Time>
            <Position>
              <LatitudeDegrees>39.87111370079219341278076171875</LatitudeDegrees>
              <LongitudeDegrees>-6.295158974826335906982421875</LongitudeDegrees>
            </Position>
            <AltitudeMeters>273.20001220703125</AltitudeMeters>
            <DistanceMeters>NAN</DistanceMeters>
          </Trackpoint>
          <Trackpoint>
            <Time>2019-10-08T10:35:23.000Z</Time>
            <Position>
              <LatitudeDegrees>39.87106994725763797760009765625</LatitudeDegrees>
              <LongitudeDegrees>-6.29521873779594898223876953125</LongitudeDegrees>
            </Position>
            <AltitudeMeters>272.79998779296875</AltitudeMeters>
            <DistanceMeters>NAN</DistanceMeters>
          </Trackpoint>
          <Trackpoint>
            <Time>2019-10-08T10:35:29.000Z</Time>
            <Position>
              <LatitudeDegrees>39.87081144936382770538330078125</LatitudeDegrees>
              <LongitudeDegrees>-6.29557664506137371063232421875</LongitudeDegrees>
            </Position>
            <AltitudeMeters>273.600006103515625</AltitudeMeters>
            <DistanceMeters>NAN</DistanceMeters>
          </Trackpoint>
          <Trackpoint>
            <Time>2019-10-08T10:35:33.000Z</Time>
            <Position>
              <LatitudeDegrees>39.870637692511081695556640625</LatitudeDegrees>
              <LongitudeDegrees>-6.29581904970109462738037109375</LongitudeDegrees>
            </Position>
            <AltitudeMeters>273.600006103515625</AltitudeMeters>
            <DistanceMeters>NAN</DistanceMeters>
          </Trackpoint>
          <Trackpoint>
            <Time>2019-10-08T10:35:42.000Z</Time>
            <Position>
              <LatitudeDegrees>39.8702412284910678863525390625</LatitudeDegrees>
              <LongitudeDegrees>-6.29636186175048351287841796875</LongitudeDegrees>
            </Position>
            <AltitudeMeters>274.20001220703125</AltitudeMeters>
            <DistanceMeters>NAN</DistanceMeters>
          </Trackpoint>
          <Trackpoint>
            <Time>2019-10-08T10:35:44.000Z</Time>
            <Position>
              <LatitudeDegrees>39.8701543919742107391357421875</LatitudeDegrees>
              <LongitudeDegrees>-6.2964858300983905792236328125</LongitudeDegrees>
            </Position>
            <AltitudeMeters>274.20001220703125</AltitudeMeters>
            <DistanceMeters>NAN</DistanceMeters>
          </Trackpoint>
          <Trackpoint>
            <Time>2019-10-08T10:35:53.000Z</Time>
            <Position>
              <LatitudeDegrees>39.86975683830678462982177734375</LatitudeDegrees>
              <LongitudeDegrees>-6.29703844897449016571044921875</LongitudeDegrees>
            </Position>
            <AltitudeMeters>275</AltitudeMeters>
            <DistanceMeters>NAN</DistanceMeters>
          </Trackpoint>
          <Trackpoint>
            <Time>2019-10-08T10:35:54.000Z</Time>
            <Position>
              <LatitudeDegrees>39.86971342004835605621337890625</LatitudeDegrees>
              <LongitudeDegrees>-6.29709963686764240264892578125</LongitudeDegrees>
            </Position>
            <AltitudeMeters>275</AltitudeMeters>
            <DistanceMeters>NAN</DistanceMeters>
          </Trackpoint>
          <Trackpoint>
            <Time>2019-10-08T10:36:01.000Z</Time>
            <Position>
              <LatitudeDegrees>39.86940496601164340972900390625</LatitudeDegrees>
              <LongitudeDegrees>-6.297522671520709991455078125</LongitudeDegrees>
            </Position>
            <AltitudeMeters>276.20001220703125</AltitudeMeters>
            <DistanceMeters>NAN</DistanceMeters>
          </Trackpoint>
          <Trackpoint>
            <Time>2019-10-08T10:36:04.000Z</Time>
            <Position>
              <LatitudeDegrees>39.869277812540531158447265625</LatitudeDegrees>
              <LongitudeDegrees>-6.2977012060582637786865234375</LongitudeDegrees>
            </Position>
            <AltitudeMeters>276.600006103515625</AltitudeMeters>
            <DistanceMeters>NAN</DistanceMeters>
          </Trackpoint>
          <Trackpoint>
            <Time>2019-10-08T10:36:09.000Z</Time>
            <Position>
              <LatitudeDegrees>39.869076311588287353515625</LatitudeDegrees>
              <LongitudeDegrees>-6.2979932315647602081298828125</LongitudeDegrees>
            </Position>
            <AltitudeMeters>277.20001220703125</AltitudeMeters>
            <DistanceMeters>NAN</DistanceMeters>
          </Trackpoint>
          <Trackpoint>
            <Time>2019-10-08T10:36:13.000Z</Time>
            <Position>
              <LatitudeDegrees>39.86892485059797763824462890625</LatitudeDegrees>
              <LongitudeDegrees>-6.29822331480681896209716796875</LongitudeDegrees>
            </Position>
            <AltitudeMeters>278</AltitudeMeters>
            <DistanceMeters>NAN</DistanceMeters>
          </Trackpoint>
          <Trackpoint>
            <Time>2019-10-08T10:36:17.000Z</Time>
            <Position>
              <LatitudeDegrees>39.86877799965441226959228515625</LatitudeDegrees>
              <LongitudeDegrees>-6.29844627343118190765380859375</LongitudeDegrees>
            </Position>
            <AltitudeMeters>278.399993896484375</AltitudeMeters>
            <DistanceMeters>NAN</DistanceMeters>
          </Trackpoint>
          <Trackpoint>
            <Time>2019-10-08T10:36:22.000Z</Time>
            <Position>
              <LatitudeDegrees>39.86859980039298534393310546875</LatitudeDegrees>
              <LongitudeDegrees>-6.298726983368396759033203125</LongitudeDegrees>
            </Position>
            <AltitudeMeters>279</AltitudeMeters>
            <DistanceMeters>NAN</DistanceMeters>
          </Trackpoint>
          <Trackpoint>
            <Time>2019-10-08T10:36:25.000Z</Time>
            <Position>
              <LatitudeDegrees>39.86850005574524402618408203125</LatitudeDegrees>
              <LongitudeDegrees>-6.2988887540996074676513671875</LongitudeDegrees>
            </Position>
            <AltitudeMeters>279.600006103515625</AltitudeMeters>
            <DistanceMeters>NAN</DistanceMeters>
          </Trackpoint>
          <Trackpoint>
            <Time>2019-10-08T10:36:30.000Z</Time>
            <Position>
              <LatitudeDegrees>39.8683358542621135711669921875</LatitudeDegrees>
              <LongitudeDegrees>-6.2991656921803951263427734375</LongitudeDegrees>
            </Position>
            <AltitudeMeters>280.20001220703125</AltitudeMeters>
            <DistanceMeters>NAN</DistanceMeters>
          </Trackpoint>
          <Trackpoint>
            <Time>2019-10-08T10:36:32.000Z</Time>
            <Position>
              <LatitudeDegrees>39.8682748340070247650146484375</LatitudeDegrees>
              <LongitudeDegrees>-6.2992818653583526611328125</LongitudeDegrees>
            </Position>
            <AltitudeMeters>280.600006103515625</AltitudeMeters>
            <DistanceMeters>NAN</DistanceMeters>
          </Trackpoint>
          <Trackpoint>
            <Time>2019-10-08T10:36:37.000Z</Time>
            <Position>
              <LatitudeDegrees>39.86811549402773380279541015625</LatitudeDegrees>
              <LongitudeDegrees>-6.29956441931426525115966796875</LongitudeDegrees>
            </Position>
            <AltitudeMeters>281.600006103515625</AltitudeMeters>
            <DistanceMeters>NAN</DistanceMeters>
          </Trackpoint>
          <Trackpoint>
            <Time>2019-10-08T10:36:39.000Z</Time>
            <Position>
              <LatitudeDegrees>39.86805195920169353485107421875</LatitudeDegrees>
              <LongitudeDegrees>-6.299675814807415008544921875</LongitudeDegrees>
            </Position>
            <AltitudeMeters>281.20001220703125</AltitudeMeters>
            <DistanceMeters>NAN</DistanceMeters>
          </Trackpoint>
          <Trackpoint>
            <Time>2019-10-08T10:36:48.000Z</Time>
            <Position>
              <LatitudeDegrees>39.86777250654995441436767578125</LatitudeDegrees>
              <LongitudeDegrees>-6.30018635652959346771240234375</LongitudeDegrees>
            </Position>
            <AltitudeMeters>282.20001220703125</AltitudeMeters>
            <DistanceMeters>NAN</DistanceMeters>
          </Trackpoint>
          <Trackpoint>
            <Time>2019-10-08T10:36:52.000Z</Time>
            <Position>
              <LatitudeDegrees>39.8676495440304279327392578125</LatitudeDegrees>
              <LongitudeDegrees>-6.30040981806814670562744140625</LongitudeDegrees>
            </Position>
            <AltitudeMeters>282.79998779296875</AltitudeMeters>
            <DistanceMeters>NAN</DistanceMeters>
          </Trackpoint>
          <Trackpoint>
            <Time>2019-10-08T10:36:57.000Z</Time>
            <Position>
              <LatitudeDegrees>39.86749758012592792510986328125</LatitudeDegrees>
              <LongitudeDegrees>-6.30068742670118808746337890625</LongitudeDegrees>
            </Position>
            <AltitudeMeters>283.600006103515625</AltitudeMeters>
            <DistanceMeters>NAN</DistanceMeters>
          </Trackpoint>
          <Trackpoint>
            <Time>2019-10-08T10:36:58.000Z</Time>
            <Position>
              <LatitudeDegrees>39.8674631305038928985595703125</LatitudeDegrees>
              <LongitudeDegrees>-6.30074978806078433990478515625</LongitudeDegrees>
            </Position>
            <AltitudeMeters>283.79998779296875</AltitudeMeters>
            <DistanceMeters>NAN</DistanceMeters>
          </Trackpoint>
          <Trackpoint>
            <Time>2019-10-08T10:37:06.000Z</Time>
            <Position>
              <LatitudeDegrees>39.86722801811993122100830078125</LatitudeDegrees>
              <LongitudeDegrees>-6.30118162371218204498291015625</LongitudeDegrees>
            </Position>
            <AltitudeMeters>284.600006103515625</AltitudeMeters>
            <DistanceMeters>NAN</DistanceMeters>
          </Trackpoint>
          <Trackpoint>
            <Time>2019-10-08T10:37:07.000Z</Time>
            <Position>
              <LatitudeDegrees>39.86719666980206966400146484375</LatitudeDegrees>
              <LongitudeDegrees>-6.30123711191117763519287109375</LongitudeDegrees>
            </Position>
            <AltitudeMeters>284.79998779296875</AltitudeMeters>
            <DistanceMeters>NAN</DistanceMeters>
          </Trackpoint>
          <Trackpoint>
            <Time>2019-10-08T10:37:15.000Z</Time>
            <Position>
              <LatitudeDegrees>39.86694890074431896209716796875</LatitudeDegrees>
              <LongitudeDegrees>-6.30167833529412746429443359375</LongitudeDegrees>
            </Position>
            <AltitudeMeters>285.600006103515625</AltitudeMeters>
            <DistanceMeters>NAN</DistanceMeters>
          </Trackpoint>
          <Trackpoint>
            <Time>2019-10-08T10:37:19.000Z</Time>
            <Position>
              <LatitudeDegrees>39.86681990325450897216796875</LatitudeDegrees>
              <LongitudeDegrees>-6.3019023835659027099609375</LongitudeDegrees>
            </Position>
            <AltitudeMeters>286</AltitudeMeters>
            <DistanceMeters>NAN</DistanceMeters>
          </Trackpoint>
          <Trackpoint>
            <Time>2019-10-08T10:37:25.000Z</Time>
            <Position>
              <LatitudeDegrees>39.86662250943481922149658203125</LatitudeDegrees>
              <LongitudeDegrees>-6.3022408448159694671630859375</LongitudeDegrees>
            </Position>
            <AltitudeMeters>286.20001220703125</AltitudeMeters>
            <DistanceMeters>NAN</DistanceMeters>
          </Trackpoint>
          <Trackpoint>
            <Time>2019-10-08T10:37:35.000Z</Time>
            <Position>
              <LatitudeDegrees>39.866276420652866363525390625</LatitudeDegrees>
              <LongitudeDegrees>-6.30280553363263607025146484375</LongitudeDegrees>
            </Position>
            <AltitudeMeters>286.600006103515625</AltitudeMeters>
            <DistanceMeters>NAN</DistanceMeters>
          </Trackpoint>
          <Trackpoint>
            <Time>2019-10-08T10:37:43.000Z</Time>
            <Position>
              <LatitudeDegrees>39.8659609258174896240234375</LatitudeDegrees>
              <LongitudeDegrees>-6.30327634513378143310546875</LongitudeDegrees>
            </Position>
            <AltitudeMeters>286.20001220703125</AltitudeMeters>
            <DistanceMeters>NAN</DistanceMeters>
          </Trackpoint>
          <Trackpoint>
            <Time>2019-10-08T10:37:48.000Z</Time>
            <Position>
              <LatitudeDegrees>39.8657431639730930328369140625</LatitudeDegrees>
              <LongitudeDegrees>-6.30357750691473484039306640625</LongitudeDegrees>
            </Position>
            <AltitudeMeters>286</AltitudeMeters>
            <DistanceMeters>NAN</DistanceMeters>
          </Trackpoint>
          <Trackpoint>
            <Time>2019-10-08T10:37:51.000Z</Time>
            <Position>
              <LatitudeDegrees>39.865610897541046142578125</LatitudeDegrees>
              <LongitudeDegrees>-6.3037613220512866973876953125</LongitudeDegrees>
            </Position>
            <AltitudeMeters>286.399993896484375</AltitudeMeters>
            <DistanceMeters>NAN</DistanceMeters>
          </Trackpoint>
          <Trackpoint>
            <Time>2019-10-08T10:37:54.000Z</Time>
            <Position>
              <LatitudeDegrees>39.865475781261920928955078125</LatitudeDegrees>
              <LongitudeDegrees>-6.30394413135945796966552734375</LongitudeDegrees>
            </Position>
            <AltitudeMeters>286.20001220703125</AltitudeMeters>
            <DistanceMeters>NAN</DistanceMeters>
          </Trackpoint>
          <Trackpoint>
            <Time>2019-10-08T10:38:02.000Z</Time>
            <Position>
              <LatitudeDegrees>39.86510588787496089935302734375</LatitudeDegrees>
              <LongitudeDegrees>-6.30443229340016841888427734375</LongitudeDegrees>
            </Position>
            <AltitudeMeters>285.79998779296875</AltitudeMeters>
            <DistanceMeters>NAN</DistanceMeters>
          </Trackpoint>
          <Trackpoint>
            <Time>2019-10-08T10:38:06.000Z</Time>
            <Position>
              <LatitudeDegrees>39.8649193905293941497802734375</LatitudeDegrees>
              <LongitudeDegrees>-6.30467888899147510528564453125</LongitudeDegrees>
            </Position>
            <AltitudeMeters>285.600006103515625</AltitudeMeters>
            <DistanceMeters>NAN</DistanceMeters>
          </Trackpoint>
          <Trackpoint>
            <Time>2019-10-08T10:38:09.000Z</Time>
            <Position>
              <LatitudeDegrees>39.86477815546095371246337890625</LatitudeDegrees>
              <LongitudeDegrees>-6.30486127920448780059814453125</LongitudeDegrees>
            </Position>
            <AltitudeMeters>285.399993896484375</AltitudeMeters>
            <DistanceMeters>NAN</DistanceMeters>
          </Trackpoint>
          <Trackpoint>
            <Time>2019-10-08T10:38:12.000Z</Time>
            <Position>
              <LatitudeDegrees>39.8646380938589572906494140625</LatitudeDegrees>
              <LongitudeDegrees>-6.30504953674972057342529296875</LongitudeDegrees>
            </Position>
            <AltitudeMeters>285</AltitudeMeters>
            <DistanceMeters>NAN</DistanceMeters>
          </Trackpoint>
          <Trackpoint>
            <Time>2019-10-08T10:38:14.000Z</Time>
            <Position>
              <LatitudeDegrees>39.8645445518195629119873046875</LatitudeDegrees>
              <LongitudeDegrees>-6.3051721639931201934814453125</LongitudeDegrees>
            </Position>
            <AltitudeMeters>285.20001220703125</AltitudeMeters>
            <DistanceMeters>NAN</DistanceMeters>
          </Trackpoint>
          <Trackpoint>
            <Time>2019-10-08T10:38:20.000Z</Time>
            <Position>
              <LatitudeDegrees>39.86427725292742252349853515625</LatitudeDegrees>
              <LongitudeDegrees>-6.3055396266281604766845703125</LongitudeDegrees>
            </Position>
            <AltitudeMeters>284.600006103515625</AltitudeMeters>
            <DistanceMeters>NAN</DistanceMeters>
          </Trackpoint>
          <Trackpoint>
            <Time>2019-10-08T10:38:26.000Z</Time>
            <Position>
              <LatitudeDegrees>39.864020012319087982177734375</LatitudeDegrees>
              <LongitudeDegrees>-6.30589962936937808990478515625</LongitudeDegrees>
            </Position>
            <AltitudeMeters>285</AltitudeMeters>
            <DistanceMeters>NAN</DistanceMeters>
          </Trackpoint>
          <Trackpoint>
            <Time>2019-10-08T10:38:31.000Z</Time>
            <Position>
              <LatitudeDegrees>39.86382882110774517059326171875</LatitudeDegrees>
              <LongitudeDegrees>-6.3061934150755405426025390625</LongitudeDegrees>
            </Position>
            <AltitudeMeters>286</AltitudeMeters>
            <DistanceMeters>NAN</DistanceMeters>
          </Trackpoint>
          <Trackpoint>
            <Time>2019-10-08T10:38:33.000Z</Time>
            <Position>
              <LatitudeDegrees>39.86375573091208934783935546875</LatitudeDegrees>
              <LongitudeDegrees>-6.3063080795109272003173828125</LongitudeDegrees>
            </Position>
            <AltitudeMeters>285.79998779296875</AltitudeMeters>
            <DistanceMeters>NAN</DistanceMeters>
          </Trackpoint>
          <Trackpoint>
            <Time>2019-10-08T10:38:38.000Z</Time>
            <Position>
              <LatitudeDegrees>39.86357769928872585296630859375</LatitudeDegrees>
              <LongitudeDegrees>-6.3065826706588268280029296875</LongitudeDegrees>
            </Position>
            <AltitudeMeters>286.20001220703125</AltitudeMeters>
            <DistanceMeters>NAN</DistanceMeters>
          </Trackpoint>
          <Trackpoint>
            <Time>2019-10-08T10:38:41.000Z</Time>
            <Position>
              <LatitudeDegrees>39.8634756915271282196044921875</LatitudeDegrees>
              <LongitudeDegrees>-6.306745447218418121337890625</LongitudeDegrees>
            </Position>
            <AltitudeMeters>286.399993896484375</AltitudeMeters>
            <DistanceMeters>NAN</DistanceMeters>
          </Trackpoint>
          <Trackpoint>
            <Time>2019-10-08T10:38:44.000Z</Time>
            <Position>
              <LatitudeDegrees>39.8633794672787189483642578125</LatitudeDegrees>
              <LongitudeDegrees>-6.3069152645766735076904296875</LongitudeDegrees>
            </Position>
            <AltitudeMeters>287.20001220703125</AltitudeMeters>
            <DistanceMeters>NAN</DistanceMeters>
          </Trackpoint>
          <Trackpoint>
            <Time>2019-10-08T10:38:45.000Z</Time>
            <Position>
              <LatitudeDegrees>39.86334635876119136810302734375</LatitudeDegrees>
              <LongitudeDegrees>-6.30697033368051052093505859375</LongitudeDegrees>
            </Position>
            <AltitudeMeters>287</AltitudeMeters>
            <DistanceMeters>NAN</DistanceMeters>
          </Trackpoint>
          <Trackpoint>
            <Time>2019-10-08T10:38:54.000Z</Time>
            <Position>
              <LatitudeDegrees>39.8630576021969318389892578125</LatitudeDegrees>
              <LongitudeDegrees>-6.3074719905853271484375</LongitudeDegrees>
            </Position>
            <AltitudeMeters>288.20001220703125</AltitudeMeters>
            <DistanceMeters>NAN</DistanceMeters>
          </Trackpoint>
          <Trackpoint>
            <Time>2019-10-08T10:38:55.000Z</Time>
            <Position>
              <LatitudeDegrees>39.86302415840327739715576171875</LatitudeDegrees>
              <LongitudeDegrees>-6.3075301609933376312255859375</LongitudeDegrees>
            </Position>
            <AltitudeMeters>288.20001220703125</AltitudeMeters>
            <DistanceMeters>NAN</DistanceMeters>
          </Trackpoint>
          <Trackpoint>
            <Time>2019-10-08T10:39:01.000Z</Time>
            <Position>
              <LatitudeDegrees>39.8628343082964420318603515625</LatitudeDegrees>
              <LongitudeDegrees>-6.30786820314824581146240234375</LongitudeDegrees>
            </Position>
            <AltitudeMeters>288.79998779296875</AltitudeMeters>
            <DistanceMeters>NAN</DistanceMeters>
          </Trackpoint>
          <Trackpoint>
            <Time>2019-10-08T10:39:08.000Z</Time>
            <Position>
              <LatitudeDegrees>39.8626162111759185791015625</LatitudeDegrees>
              <LongitudeDegrees>-6.30826701410114765167236328125</LongitudeDegrees>
            </Position>
            <AltitudeMeters>289.399993896484375</AltitudeMeters>
            <DistanceMeters>NAN</DistanceMeters>
          </Trackpoint>
          <Trackpoint>
            <Time>2019-10-08T10:39:13.000Z</Time>
            <Position>
              <LatitudeDegrees>39.86245821230113506317138671875</LatitudeDegrees>
              <LongitudeDegrees>-6.30854688584804534912109375</LongitudeDegrees>
            </Position>
            <AltitudeMeters>290.399993896484375</AltitudeMeters>
            <DistanceMeters>NAN</DistanceMeters>
          </Trackpoint>
          <Trackpoint>
            <Time>2019-10-08T10:39:20.000Z</Time>
            <Position>
              <LatitudeDegrees>39.8622425459325313568115234375</LatitudeDegrees>
              <LongitudeDegrees>-6.30894846282899379730224609375</LongitudeDegrees>
            </Position>
            <AltitudeMeters>290.399993896484375</AltitudeMeters>
            <DistanceMeters>NAN</DistanceMeters>
          </Trackpoint>
          <Trackpoint>
            <Time>2019-10-08T10:39:22.000Z</Time>
            <Position>
              <LatitudeDegrees>39.86217892728745937347412109375</LatitudeDegrees>
              <LongitudeDegrees>-6.3090637139976024627685546875</LongitudeDegrees>
            </Position>
            <AltitudeMeters>291</AltitudeMeters>
            <DistanceMeters>NAN</DistanceMeters>
          </Trackpoint>
          <Trackpoint>
            <Time>2019-10-08T10:39:27.000Z</Time>
            <Position>
              <LatitudeDegrees>39.86202151514589786529541015625</LatitudeDegrees>
              <LongitudeDegrees>-6.30934677086770534515380859375</LongitudeDegrees>
            </Position>
            <AltitudeMeters>291.600006103515625</AltitudeMeters>
            <DistanceMeters>NAN</DistanceMeters>
          </Trackpoint>
          <Trackpoint>
            <Time>2019-10-08T10:39:32.000Z</Time>
            <Position>
              <LatitudeDegrees>39.8618616722524166107177734375</LatitudeDegrees>
              <LongitudeDegrees>-6.3096360303461551666259765625</LongitudeDegrees>
            </Position>
            <AltitudeMeters>292</AltitudeMeters>
            <DistanceMeters>NAN</DistanceMeters>
          </Trackpoint>
          <Trackpoint>
            <Time>2019-10-08T10:39:36.000Z</Time>
            <Position>
              <LatitudeDegrees>39.86173116602003574371337890625</LatitudeDegrees>
              <LongitudeDegrees>-6.3098667003214359283447265625</LongitudeDegrees>
            </Position>
            <AltitudeMeters>292.600006103515625</AltitudeMeters>
            <DistanceMeters>NAN</DistanceMeters>
          </Trackpoint>
          <Trackpoint>
            <Time>2019-10-08T10:39:42.000Z</Time>
            <Position>
              <LatitudeDegrees>39.86154223792254924774169921875</LatitudeDegrees>
              <LongitudeDegrees>-6.310210525989532470703125</LongitudeDegrees>
            </Position>
            <AltitudeMeters>293</AltitudeMeters>
            <DistanceMeters>NAN</DistanceMeters>
          </Trackpoint>
          <Trackpoint>
            <Time>2019-10-08T10:39:45.000Z</Time>
            <Position>
              <LatitudeDegrees>39.861450456082820892333984375</LatitudeDegrees>
              <LongitudeDegrees>-6.3103813491761684417724609375</LongitudeDegrees>
            </Position>
            <AltitudeMeters>293.600006103515625</AltitudeMeters>
            <DistanceMeters>NAN</DistanceMeters>
          </Trackpoint>
          <Trackpoint>
            <Time>2019-10-08T10:39:50.000Z</Time>
            <Position>
              <LatitudeDegrees>39.86129614524543285369873046875</LatitudeDegrees>
              <LongitudeDegrees>-6.3106562756001949310302734375</LongitudeDegrees>
            </Position>
            <AltitudeMeters>294.20001220703125</AltitudeMeters>
            <DistanceMeters>NAN</DistanceMeters>
          </Trackpoint>
          <Trackpoint>
            <Time>2019-10-08T10:39:53.000Z</Time>
            <Position>
              <LatitudeDegrees>39.86120830290019512176513671875</LatitudeDegrees>
              <LongitudeDegrees>-6.31080572493374347686767578125</LongitudeDegrees>
            </Position>
            <AltitudeMeters>294.79998779296875</AltitudeMeters>
            <DistanceMeters>NAN</DistanceMeters>
          </Trackpoint>
          <Trackpoint>
            <Time>2019-10-08T10:39:56.000Z</Time>
            <Position>
              <LatitudeDegrees>39.86112716607749462127685546875</LatitudeDegrees>
              <LongitudeDegrees>-6.31095022894442081451416015625</LongitudeDegrees>
            </Position>
            <AltitudeMeters>295.20001220703125</AltitudeMeters>
            <DistanceMeters>NAN</DistanceMeters>
          </Trackpoint>
          <Trackpoint>
            <Time>2019-10-08T10:39:58.000Z</Time>
            <Position>
              <LatitudeDegrees>39.86107536591589450836181640625</LatitudeDegrees>
              <LongitudeDegrees>-6.3110451959073543548583984375</LongitudeDegrees>
            </Position>
            <AltitudeMeters>295.79998779296875</AltitudeMeters>
            <DistanceMeters>NAN</DistanceMeters>
          </Trackpoint>
          <Trackpoint>
            <Time>2019-10-08T10:40:08.000Z</Time>
            <Position>
              <LatitudeDegrees>39.86081385053694248199462890625</LatitudeDegrees>
              <LongitudeDegrees>-6.3115239702165126800537109375</LongitudeDegrees>
            </Position>
            <AltitudeMeters>297</AltitudeMeters>
            <DistanceMeters>NAN</DistanceMeters>
          </Trackpoint>
          <Trackpoint>
            <Time>2019-10-08T10:40:09.000Z</Time>
            <Position>
              <LatitudeDegrees>39.86078535206615924835205078125</LatitudeDegrees>
              <LongitudeDegrees>-6.31157199852168560028076171875</LongitudeDegrees>
            </Position>
            <AltitudeMeters>297</AltitudeMeters>
            <DistanceMeters>NAN</DistanceMeters>
          </Trackpoint>
          <Trackpoint>
            <Time>2019-10-08T10:40:16.000Z</Time>
            <Position>
              <LatitudeDegrees>39.860598854720592498779296875</LatitudeDegrees>
              <LongitudeDegrees>-6.3118890859186649322509765625</LongitudeDegrees>
            </Position>
            <AltitudeMeters>298.20001220703125</AltitudeMeters>
            <DistanceMeters>NAN</DistanceMeters>
          </Trackpoint>
          <Trackpoint>
            <Time>2019-10-08T10:40:17.000Z</Time>
            <Position>
              <LatitudeDegrees>39.86057261936366558074951171875</LatitudeDegrees>
              <LongitudeDegrees>-6.31193661130964756011962890625</LongitudeDegrees>
            </Position>
            <AltitudeMeters>298.20001220703125</AltitudeMeters>
            <DistanceMeters>NAN</DistanceMeters>
          </Trackpoint>
          <Trackpoint>
            <Time>2019-10-08T10:40:24.000Z</Time>
            <Position>
              <LatitudeDegrees>39.860386289656162261962890625</LatitudeDegrees>
              <LongitudeDegrees>-6.31226954050362110137939453125</LongitudeDegrees>
            </Position>
            <AltitudeMeters>299.20001220703125</AltitudeMeters>
            <DistanceMeters>NAN</DistanceMeters>
          </Trackpoint>
          <Trackpoint>
            <Time>2019-10-08T10:40:25.000Z</Time>
            <Position>
              <LatitudeDegrees>39.86036055721342563629150390625</LatitudeDegrees>
              <LongitudeDegrees>-6.312320418655872344970703125</LongitudeDegrees>
            </Position>
            <AltitudeMeters>299.20001220703125</AltitudeMeters>
            <DistanceMeters>NAN</DistanceMeters>
          </Trackpoint>
          <Trackpoint>
            <Time>2019-10-08T10:40:36.000Z</Time>
            <Position>
              <LatitudeDegrees>39.8600887320935726165771484375</LatitudeDegrees>
              <LongitudeDegrees>-6.3128690980374813079833984375</LongitudeDegrees>
            </Position>
            <AltitudeMeters>300.20001220703125</AltitudeMeters>
            <DistanceMeters>NAN</DistanceMeters>
          </Trackpoint>
          <Trackpoint>
            <Time>2019-10-08T10:40:38.000Z</Time>
            <Position>
              <LatitudeDegrees>39.860044308006763458251953125</LatitudeDegrees>
              <LongitudeDegrees>-6.31297051906585693359375</LongitudeDegrees>
            </Position>
            <AltitudeMeters>300.20001220703125</AltitudeMeters>
            <DistanceMeters>NAN</DistanceMeters>
          </Trackpoint>
          <Trackpoint>
            <Time>2019-10-08T10:40:47.000Z</Time>
            <Position>
              <LatitudeDegrees>39.85985512845218181610107421875</LatitudeDegrees>
              <LongitudeDegrees>-6.31345239467918872833251953125</LongitudeDegrees>
            </Position>
            <AltitudeMeters>301.20001220703125</AltitudeMeters>
            <DistanceMeters>NAN</DistanceMeters>
          </Trackpoint>
          <Trackpoint>
            <Time>2019-10-08T10:40:57.000Z</Time>
            <Position>
              <LatitudeDegrees>39.85966854728758335113525390625</LatitudeDegrees>
              <LongitudeDegrees>-6.31400593556463718414306640625</LongitudeDegrees>
            </Position>
            <AltitudeMeters>302.399993896484375</AltitudeMeters>
            <DistanceMeters>NAN</DistanceMeters>
          </Trackpoint>
          <Trackpoint>
            <Time>2019-10-08T10:41:06.000Z</Time>
            <Position>
              <LatitudeDegrees>39.85951934941112995147705078125</LatitudeDegrees>
              <LongitudeDegrees>-6.314512789249420166015625</LongitudeDegrees>
            </Position>
            <AltitudeMeters>302.79998779296875</AltitudeMeters>
            <DistanceMeters>NAN</DistanceMeters>
          </Trackpoint>
          <Trackpoint>
            <Time>2019-10-08T10:41:13.000Z</Time>
            <Position>
              <LatitudeDegrees>39.85940468497574329376220703125</LatitudeDegrees>
              <LongitudeDegrees>-6.31491403095424175262451171875</LongitudeDegrees>
            </Position>
            <AltitudeMeters>303.600006103515625</AltitudeMeters>
            <DistanceMeters>NAN</DistanceMeters>
          </Trackpoint>
          <Trackpoint>
            <Time>2019-10-08T10:41:16.000Z</Time>
            <Position>
              <LatitudeDegrees>39.85935171134769916534423828125</LatitudeDegrees>
              <LongitudeDegrees>-6.31508317776024341583251953125</LongitudeDegrees>
            </Position>
            <AltitudeMeters>303.79998779296875</AltitudeMeters>
            <DistanceMeters>NAN</DistanceMeters>
          </Trackpoint>
          <Trackpoint>
            <Time>2019-10-08T10:41:23.000Z</Time>
            <Position>
              <LatitudeDegrees>39.85920921899378299713134765625</LatitudeDegrees>
              <LongitudeDegrees>-6.31547142751514911651611328125</LongitudeDegrees>
            </Position>
            <AltitudeMeters>304.600006103515625</AltitudeMeters>
            <DistanceMeters>NAN</DistanceMeters>
          </Trackpoint>
          <Trackpoint>
            <Time>2019-10-08T10:41:26.000Z</Time>
            <Position>
              <LatitudeDegrees>39.85913897864520549774169921875</LatitudeDegrees>
              <LongitudeDegrees>-6.31563018076121807098388671875</LongitudeDegrees>
            </Position>
            <AltitudeMeters>304.20001220703125</AltitudeMeters>
            <DistanceMeters>NAN</DistanceMeters>
          </Trackpoint>
          <Trackpoint>
            <Time>2019-10-08T10:41:34.000Z</Time>
            <Position>
              <LatitudeDegrees>39.85890529118478298187255859375</LatitudeDegrees>
              <LongitudeDegrees>-6.3160605914890766143798828125</LongitudeDegrees>
            </Position>
            <AltitudeMeters>304.79998779296875</AltitudeMeters>
            <DistanceMeters>NAN</DistanceMeters>
          </Trackpoint>
          <Trackpoint>
            <Time>2019-10-08T10:41:42.000Z</Time>
            <Position>
              <LatitudeDegrees>39.85859893262386322021484375</LatitudeDegrees>
              <LongitudeDegrees>-6.3164713047444820404052734375</LongitudeDegrees>
            </Position>
            <AltitudeMeters>305.399993896484375</AltitudeMeters>
            <DistanceMeters>NAN</DistanceMeters>
          </Trackpoint>
          <Trackpoint>
            <Time>2019-10-08T10:41:50.000Z</Time>
            <Position>
              <LatitudeDegrees>39.8582393489778041839599609375</LatitudeDegrees>
              <LongitudeDegrees>-6.316823177039623260498046875</LongitudeDegrees>
            </Position>
            <AltitudeMeters>305.600006103515625</AltitudeMeters>
            <DistanceMeters>NAN</DistanceMeters>
          </Trackpoint>
          <Trackpoint>
            <Time>2019-10-08T10:42:00.000Z</Time>
            <Position>
              <LatitudeDegrees>39.85775495879352092742919921875</LatitudeDegrees>
              <LongitudeDegrees>-6.3172058947384357452392578125</LongitudeDegrees>
            </Position>
            <AltitudeMeters>306.600006103515625</AltitudeMeters>
            <DistanceMeters>NAN</DistanceMeters>
          </Trackpoint>
          <Trackpoint>
            <Time>2019-10-08T10:42:01.000Z</Time>
            <Position>
              <LatitudeDegrees>39.85770517028868198394775390625</LatitudeDegrees>
              <LongitudeDegrees>-6.31724336184561252593994140625</LongitudeDegrees>
            </Position>
            <AltitudeMeters>306.600006103515625</AltitudeMeters>
            <DistanceMeters>NAN</DistanceMeters>
          </Trackpoint>
          <Trackpoint>
            <Time>2019-10-08T10:42:03.000Z</Time>
            <Position>
              <LatitudeDegrees>39.85760525800287723541259765625</LatitudeDegrees>
              <LongitudeDegrees>-6.31731569766998291015625</LongitudeDegrees>
            </Position>
            <AltitudeMeters>306.79998779296875</AltitudeMeters>
            <DistanceMeters>NAN</DistanceMeters>
          </Trackpoint>
          <Trackpoint>
            <Time>2019-10-08T10:42:10.000Z</Time>
            <Position>
              <LatitudeDegrees>39.85726453363895416259765625</LatitudeDegrees>
              <LongitudeDegrees>-6.31758299656212329864501953125</LongitudeDegrees>
            </Position>
            <AltitudeMeters>307.20001220703125</AltitudeMeters>
            <DistanceMeters>NAN</DistanceMeters>
          </Trackpoint>
          <Trackpoint>
            <Time>2019-10-08T10:42:15.000Z</Time>
            <Position>
              <LatitudeDegrees>39.85704383812844753265380859375</LatitudeDegrees>
              <LongitudeDegrees>-6.31775884889066219329833984375</LongitudeDegrees>
            </Position>
            <AltitudeMeters>307.79998779296875</AltitudeMeters>
            <DistanceMeters>NAN</DistanceMeters>
          </Trackpoint>
          <Trackpoint>
            <Time>2019-10-08T10:42:21.000Z</Time>
            <Position>
              <LatitudeDegrees>39.8567614518105983734130859375</LatitudeDegrees>
              <LongitudeDegrees>-6.3179629482328891754150390625</LongitudeDegrees>
            </Position>
            <AltitudeMeters>307.399993896484375</AltitudeMeters>
            <DistanceMeters>NAN</DistanceMeters>
          </Trackpoint>
          <Trackpoint>
            <Time>2019-10-08T10:42:27.000Z</Time>
            <Position>
              <LatitudeDegrees>39.85645559616386890411376953125</LatitudeDegrees>
              <LongitudeDegrees>-6.3182247988879680633544921875</LongitudeDegrees>
            </Position>
            <AltitudeMeters>308</AltitudeMeters>
            <DistanceMeters>NAN</DistanceMeters>
          </Trackpoint>
          <Trackpoint>
            <Time>2019-10-08T10:42:29.000Z</Time>
            <Position>
              <LatitudeDegrees>39.85634780488908290863037109375</LatitudeDegrees>
              <LongitudeDegrees>-6.31830534897744655609130859375</LongitudeDegrees>
            </Position>
            <AltitudeMeters>308.600006103515625</AltitudeMeters>
            <DistanceMeters>NAN</DistanceMeters>
          </Trackpoint>
          <Trackpoint>
            <Time>2019-10-08T10:42:36.000Z</Time>
            <Position>
              <LatitudeDegrees>39.85600146465003490447998046875</LatitudeDegrees>
              <LongitudeDegrees>-6.318610198795795440673828125</LongitudeDegrees>
            </Position>
            <AltitudeMeters>308.600006103515625</AltitudeMeters>
            <DistanceMeters>NAN</DistanceMeters>
          </Trackpoint>
          <Trackpoint>
            <Time>2019-10-08T10:42:38.000Z</Time>
            <Position>
              <LatitudeDegrees>39.85591211356222629547119140625</LatitudeDegrees>
              <LongitudeDegrees>-6.31870700977742671966552734375</LongitudeDegrees>
            </Position>
            <AltitudeMeters>308.600006103515625</AltitudeMeters>
            <DistanceMeters>NAN</DistanceMeters>
          </Trackpoint>
          <Trackpoint>
            <Time>2019-10-08T10:42:41.000Z</Time>
            <Position>
              <LatitudeDegrees>39.855785630643367767333984375</LatitudeDegrees>
              <LongitudeDegrees>-6.3188566267490386962890625</LongitudeDegrees>
            </Position>
            <AltitudeMeters>309.399993896484375</AltitudeMeters>
            <DistanceMeters>NAN</DistanceMeters>
          </Trackpoint>
          <Trackpoint>
            <Time>2019-10-08T10:42:46.000Z</Time>
            <Position>
              <LatitudeDegrees>39.85560483299195766448974609375</LatitudeDegrees>
              <LongitudeDegrees>-6.3191297091543674468994140625</LongitudeDegrees>
            </Position>
            <AltitudeMeters>309.79998779296875</AltitudeMeters>
            <DistanceMeters>NAN</DistanceMeters>
          </Trackpoint>
          <Trackpoint>
            <Time>2019-10-08T10:42:52.000Z</Time>
            <Position>
              <LatitudeDegrees>39.855423867702484130859375</LatitudeDegrees>
              <LongitudeDegrees>-6.31947345100343227386474609375</LongitudeDegrees>
            </Position>
            <AltitudeMeters>310.399993896484375</AltitudeMeters>
            <DistanceMeters>NAN</DistanceMeters>
          </Trackpoint>
          <Trackpoint>
            <Time>2019-10-08T10:42:54.000Z</Time>
            <Position>
              <LatitudeDegrees>39.85537097789347171783447265625</LatitudeDegrees>
              <LongitudeDegrees>-6.3195870257914066314697265625</LongitudeDegrees>
            </Position>
            <AltitudeMeters>310.79998779296875</AltitudeMeters>
            <DistanceMeters>NAN</DistanceMeters>
          </Trackpoint>
          <Trackpoint>
            <Time>2019-10-08T10:42:58.000Z</Time>
            <Position>
              <LatitudeDegrees>39.85528682358562946319580078125</LatitudeDegrees>
              <LongitudeDegrees>-6.31980302743613719940185546875</LongitudeDegrees>
            </Position>
            <AltitudeMeters>311.399993896484375</AltitudeMeters>
            <DistanceMeters>NAN</DistanceMeters>
          </Trackpoint>
          <Trackpoint>
            <Time>2019-10-08T10:43:02.000Z</Time>
            <Position>
              <LatitudeDegrees>39.85521071590483188629150390625</LatitudeDegrees>
              <LongitudeDegrees>-6.32001710124313831329345703125</LongitudeDegrees>
            </Position>
            <AltitudeMeters>311.79998779296875</AltitudeMeters>
            <DistanceMeters>NAN</DistanceMeters>
          </Trackpoint>
          <Trackpoint>
            <Time>2019-10-08T10:43:05.000Z</Time>
            <Position>
              <LatitudeDegrees>39.85516126267611980438232421875</LatitudeDegrees>
              <LongitudeDegrees>-6.32017551921308040618896484375</LongitudeDegrees>
            </Position>
            <AltitudeMeters>312.600006103515625</AltitudeMeters>
            <DistanceMeters>NAN</DistanceMeters>
          </Trackpoint>
          <Trackpoint>
            <Time>2019-10-08T10:43:08.000Z</Time>
            <Position>
              <LatitudeDegrees>39.8551169224083423614501953125</LatitudeDegrees>
              <LongitudeDegrees>-6.32032890804111957550048828125</LongitudeDegrees>
            </Position>
            <AltitudeMeters>313.600006103515625</AltitudeMeters>
            <DistanceMeters>NAN</DistanceMeters>
          </Trackpoint>
          <Trackpoint>
            <Time>2019-10-08T10:43:10.000Z</Time>
            <Position>
              <LatitudeDegrees>39.85508951358497142791748046875</LatitudeDegrees>
              <LongitudeDegrees>-6.32043401710689067840576171875</LongitudeDegrees>
            </Position>
            <AltitudeMeters>313.600006103515625</AltitudeMeters>
            <DistanceMeters>NAN</DistanceMeters>
          </Trackpoint>
          <Trackpoint>
            <Time>2019-10-08T10:43:16.000Z</Time>
            <Position>
              <LatitudeDegrees>39.8550109751522541046142578125</LatitudeDegrees>
              <LongitudeDegrees>-6.3207373581826686859130859375</LongitudeDegrees>
            </Position>
            <AltitudeMeters>314.600006103515625</AltitudeMeters>
            <DistanceMeters>NAN</DistanceMeters>
          </Trackpoint>
          <Trackpoint>
            <Time>2019-10-08T10:43:19.000Z</Time>
            <Position>
              <LatitudeDegrees>39.85497183166444301605224609375</LatitudeDegrees>
              <LongitudeDegrees>-6.320888064801692962646484375</LongitudeDegrees>
            </Position>
            <AltitudeMeters>315.20001220703125</AltitudeMeters>
            <DistanceMeters>NAN</DistanceMeters>
          </Trackpoint>
          <Trackpoint>
            <Time>2019-10-08T10:43:21.000Z</Time>
            <Position>
              <LatitudeDegrees>39.8549479432404041290283203125</LatitudeDegrees>
              <LongitudeDegrees>-6.3209943473339080810546875</LongitudeDegrees>
            </Position>
            <AltitudeMeters>315.79998779296875</AltitudeMeters>
            <DistanceMeters>NAN</DistanceMeters>
          </Trackpoint>
          <Trackpoint>
            <Time>2019-10-08T10:43:26.000Z</Time>
            <Position>
              <LatitudeDegrees>39.854870997369289398193359375</LatitudeDegrees>
              <LongitudeDegrees>-6.32125225849449634552001953125</LongitudeDegrees>
            </Position>
            <AltitudeMeters>316</AltitudeMeters>
            <DistanceMeters>NAN</DistanceMeters>
          </Trackpoint>
          <Trackpoint>
            <Time>2019-10-08T10:43:30.000Z</Time>
            <Position>
              <LatitudeDegrees>39.85480419360101222991943359375</LatitudeDegrees>
              <LongitudeDegrees>-6.3214530050754547119140625</LongitudeDegrees>
            </Position>
            <AltitudeMeters>316.79998779296875</AltitudeMeters>
            <DistanceMeters>NAN</DistanceMeters>
          </Trackpoint>
          <Trackpoint>
            <Time>2019-10-08T10:43:33.000Z</Time>
            <Position>
              <LatitudeDegrees>39.85476069152355194091796875</LatitudeDegrees>
              <LongitudeDegrees>-6.32160480134189128875732421875</LongitudeDegrees>
            </Position>
            <AltitudeMeters>317.20001220703125</AltitudeMeters>
            <DistanceMeters>NAN</DistanceMeters>
          </Trackpoint>
          <Trackpoint>
            <Time>2019-10-08T10:43:34.000Z</Time>
            <Position>
              <LatitudeDegrees>39.85474535264074802398681640625</LatitudeDegrees>
              <LongitudeDegrees>-6.3216523267328739166259765625</LongitudeDegrees>
            </Position>
            <AltitudeMeters>318</AltitudeMeters>
            <DistanceMeters>NAN</DistanceMeters>
          </Trackpoint>
          <Trackpoint>
            <Time>2019-10-08T10:43:35.000Z</Time>
            <Position>
              <LatitudeDegrees>39.854729175567626953125</LatitudeDegrees>
              <LongitudeDegrees>-6.3216989301145076751708984375</LongitudeDegrees>
            </Position>
            <AltitudeMeters>317.79998779296875</AltitudeMeters>
            <DistanceMeters>NAN</DistanceMeters>
          </Trackpoint>
          <Trackpoint>
            <Time>2019-10-08T10:43:44.000Z</Time>
            <Position>
              <LatitudeDegrees>39.854563884437084197998046875</LatitudeDegrees>
              <LongitudeDegrees>-6.3221371360123157501220703125</LongitudeDegrees>
            </Position>
            <AltitudeMeters>319</AltitudeMeters>
            <DistanceMeters>NAN</DistanceMeters>
          </Trackpoint>
          <Trackpoint>
            <Time>2019-10-08T10:43:46.000Z</Time>
            <Position>
              <LatitudeDegrees>39.8545275069773197174072265625</LatitudeDegrees>
              <LongitudeDegrees>-6.32223310880362987518310546875</LongitudeDegrees>
            </Position>
            <AltitudeMeters>319</AltitudeMeters>
            <DistanceMeters>NAN</DistanceMeters>
          </Trackpoint>
          <Trackpoint>
            <Time>2019-10-08T10:43:54.000Z</Time>
            <Position>
              <LatitudeDegrees>39.85436104238033294677734375</LatitudeDegrees>
              <LongitudeDegrees>-6.32259763777256011962890625</LongitudeDegrees>
            </Position>
            <AltitudeMeters>320.20001220703125</AltitudeMeters>
            <DistanceMeters>NAN</DistanceMeters>
          </Trackpoint>
          <Trackpoint>
            <Time>2019-10-08T10:44:00.000Z</Time>
            <Position>
              <LatitudeDegrees>39.85421729274094104766845703125</LatitudeDegrees>
              <LongitudeDegrees>-6.322892345488071441650390625</LongitudeDegrees>
            </Position>
            <AltitudeMeters>321.399993896484375</AltitudeMeters>
            <DistanceMeters>NAN</DistanceMeters>
          </Trackpoint>
          <Trackpoint>
            <Time>2019-10-08T10:44:04.000Z</Time>
            <Position>
              <LatitudeDegrees>39.85414445400238037109375</LatitudeDegrees>
              <LongitudeDegrees>-6.32303710095584392547607421875</LongitudeDegrees>
            </Position>
            <AltitudeMeters>321.79998779296875</AltitudeMeters>
            <DistanceMeters>NAN</DistanceMeters>
          </Trackpoint>
          <Trackpoint>
            <Time>2019-10-08T10:44:07.000Z</Time>
            <Position>
              <LatitudeDegrees>39.8540822602808475494384765625</LatitudeDegrees>
              <LongitudeDegrees>-6.32316182367503643035888671875</LongitudeDegrees>
            </Position>
            <AltitudeMeters>322.399993896484375</AltitudeMeters>
            <DistanceMeters>NAN</DistanceMeters>
          </Trackpoint>
          <Trackpoint>
            <Time>2019-10-08T10:44:15.000Z</Time>
            <Position>
              <LatitudeDegrees>39.85390900634229183197021484375</LatitudeDegrees>
              <LongitudeDegrees>-6.3234815932810306549072265625</LongitudeDegrees>
            </Position>
            <AltitudeMeters>323</AltitudeMeters>
            <DistanceMeters>NAN</DistanceMeters>
          </Trackpoint>
          <Trackpoint>
            <Time>2019-10-08T10:44:19.000Z</Time>
            <Position>
              <LatitudeDegrees>39.8538194037973880767822265625</LatitudeDegrees>
              <LongitudeDegrees>-6.3236442022025585174560546875</LongitudeDegrees>
            </Position>
            <AltitudeMeters>323.600006103515625</AltitudeMeters>
            <DistanceMeters>NAN</DistanceMeters>
          </Trackpoint>
          <Trackpoint>
            <Time>2019-10-08T10:44:25.000Z</Time>
            <Position>
              <LatitudeDegrees>39.85368370078504085540771484375</LatitudeDegrees>
              <LongitudeDegrees>-6.32388182915747165679931640625</LongitudeDegrees>
            </Position>
            <AltitudeMeters>324.399993896484375</AltitudeMeters>
            <DistanceMeters>NAN</DistanceMeters>
          </Trackpoint>
          <Trackpoint>
            <Time>2019-10-08T10:44:27.000Z</Time>
            <Position>
              <LatitudeDegrees>39.85364078544080257415771484375</LatitudeDegrees>
              <LongitudeDegrees>-6.3239617086946964263916015625</LongitudeDegrees>
            </Position>
            <AltitudeMeters>324.600006103515625</AltitudeMeters>
            <DistanceMeters>NAN</DistanceMeters>
          </Trackpoint>
          <Trackpoint>
            <Time>2019-10-08T10:44:35.000Z</Time>
            <Position>
              <LatitudeDegrees>39.8534660227596759796142578125</LatitudeDegrees>
              <LongitudeDegrees>-6.32427871227264404296875</LongitudeDegrees>
            </Position>
            <AltitudeMeters>325.79998779296875</AltitudeMeters>
            <DistanceMeters>NAN</DistanceMeters>
          </Trackpoint>
          <Trackpoint>
            <Time>2019-10-08T10:44:37.000Z</Time>
            <Position>
              <LatitudeDegrees>39.85342101193964481353759765625</LatitudeDegrees>
              <LongitudeDegrees>-6.32435607723891735076904296875</LongitudeDegrees>
            </Position>
            <AltitudeMeters>325.79998779296875</AltitudeMeters>
            <DistanceMeters>NAN</DistanceMeters>
          </Trackpoint>
          <Trackpoint>
            <Time>2019-10-08T10:44:43.000Z</Time>
            <Position>
              <LatitudeDegrees>39.8532940261065959930419921875</LatitudeDegrees>
              <LongitudeDegrees>-6.32459378801286220550537109375</LongitudeDegrees>
            </Position>
            <AltitudeMeters>326.79998779296875</AltitudeMeters>
            <DistanceMeters>NAN</DistanceMeters>
          </Trackpoint>
          <Trackpoint>
            <Time>2019-10-08T10:44:47.000Z</Time>
            <Position>
              <LatitudeDegrees>39.8532105423510074615478515625</LatitudeDegrees>
              <LongitudeDegrees>-6.32476142607629299163818359375</LongitudeDegrees>
            </Position>
            <AltitudeMeters>327.20001220703125</AltitudeMeters>
            <DistanceMeters>NAN</DistanceMeters>
          </Trackpoint>
          <Trackpoint>
            <Time>2019-10-08T10:44:52.000Z</Time>
            <Position>
              <LatitudeDegrees>39.85309730283915996551513671875</LatitudeDegrees>
              <LongitudeDegrees>-6.3249678723514080047607421875</LongitudeDegrees>
            </Position>
            <AltitudeMeters>327.79998779296875</AltitudeMeters>
            <DistanceMeters>NAN</DistanceMeters>
          </Trackpoint>
          <Trackpoint>
            <Time>2019-10-08T10:44:55.000Z</Time>
            <Position>
              <LatitudeDegrees>39.8530301637947559356689453125</LatitudeDegrees>
              <LongitudeDegrees>-6.32508815266191959381103515625</LongitudeDegrees>
            </Position>
            <AltitudeMeters>328.20001220703125</AltitudeMeters>
            <DistanceMeters>NAN</DistanceMeters>
          </Trackpoint>
          <Trackpoint>
            <Time>2019-10-08T10:45:00.000Z</Time>
            <Position>
              <LatitudeDegrees>39.8529185168445110321044921875</LatitudeDegrees>
              <LongitudeDegrees>-6.3252907432615756988525390625</LongitudeDegrees>
            </Position>
            <AltitudeMeters>329</AltitudeMeters>
            <DistanceMeters>NAN</DistanceMeters>
          </Trackpoint>
          <Trackpoint>
            <Time>2019-10-08T10:45:07.000Z</Time>
            <Position>
              <LatitudeDegrees>39.85276303254067897796630859375</LatitudeDegrees>
              <LongitudeDegrees>-6.325579248368740081787109375</LongitudeDegrees>
            </Position>
            <AltitudeMeters>329.399993896484375</AltitudeMeters>
            <DistanceMeters>NAN</DistanceMeters>
          </Trackpoint>
          <Trackpoint>
            <Time>2019-10-08T10:45:11.000Z</Time>
            <Position>
              <LatitudeDegrees>39.85267217271029949188232421875</LatitudeDegrees>
              <LongitudeDegrees>-6.3257413543760776519775390625</LongitudeDegrees>
            </Position>
            <AltitudeMeters>330.20001220703125</AltitudeMeters>
            <DistanceMeters>NAN</DistanceMeters>
          </Trackpoint>
          <Trackpoint>
            <Time>2019-10-08T10:45:18.000Z</Time>
            <Position>
              <LatitudeDegrees>39.85251341946423053741455078125</LatitudeDegrees>
              <LongitudeDegrees>-6.32602860219776630401611328125</LongitudeDegrees>
            </Position>
            <AltitudeMeters>330.79998779296875</AltitudeMeters>
            <DistanceMeters>NAN</DistanceMeters>
          </Trackpoint>
          <Trackpoint>
            <Time>2019-10-08T10:45:23.000Z</Time>
            <Position>
              <LatitudeDegrees>39.85240194015204906463623046875</LatitudeDegrees>
              <LongitudeDegrees>-6.3262300193309783935546875</LongitudeDegrees>
            </Position>
            <AltitudeMeters>331.20001220703125</AltitudeMeters>
            <DistanceMeters>NAN</DistanceMeters>
          </Trackpoint>
          <Trackpoint>
            <Time>2019-10-08T10:45:33.000Z</Time>
            <Position>
              <LatitudeDegrees>39.85217730514705181121826171875</LatitudeDegrees>
              <LongitudeDegrees>-6.326645426452159881591796875</LongitudeDegrees>
            </Position>
            <AltitudeMeters>331.600006103515625</AltitudeMeters>
            <DistanceMeters>NAN</DistanceMeters>
          </Trackpoint>
          <Trackpoint>
            <Time>2019-10-08T10:45:39.000Z</Time>
            <Position>
              <LatitudeDegrees>39.8520672507584095001220703125</LatitudeDegrees>
              <LongitudeDegrees>-6.32686008699238300323486328125</LongitudeDegrees>
            </Position>
            <AltitudeMeters>332.20001220703125</AltitudeMeters>
            <DistanceMeters>NAN</DistanceMeters>
          </Trackpoint>
          <Trackpoint>
            <Time>2019-10-08T10:45:40.000Z</Time>
            <Position>
              <LatitudeDegrees>39.8520548455417156219482421875</LatitudeDegrees>
              <LongitudeDegrees>-6.32688472978770732879638671875</LongitudeDegrees>
            </Position>
            <AltitudeMeters>332</AltitudeMeters>
            <DistanceMeters>NAN</DistanceMeters>
          </Trackpoint>
          <Trackpoint>
            <Time>2019-10-08T10:45:43.000Z</Time>
            <Position>
              <LatitudeDegrees>39.85205375589430332183837890625</LatitudeDegrees>
              <LongitudeDegrees>-6.326892189681529998779296875</LongitudeDegrees>
            </Position>
            <AltitudeMeters>332.20001220703125</AltitudeMeters>
            <DistanceMeters>NAN</DistanceMeters>
          </Trackpoint>
          <Trackpoint>
            <Time>2019-10-08T10:45:45.000Z</Time>
            <Position>
              <LatitudeDegrees>39.85204855911433696746826171875</LatitudeDegrees>
              <LongitudeDegrees>-6.326896883547306060791015625</LongitudeDegrees>
            </Position>
            <AltitudeMeters>332.399993896484375</AltitudeMeters>
            <DistanceMeters>NAN</DistanceMeters>
          </Trackpoint>
          <Trackpoint>
            <Time>2019-10-08T10:45:49.000Z</Time>
            <Position>
              <LatitudeDegrees>39.85204604454338550567626953125</LatitudeDegrees>
              <LongitudeDegrees>-6.32689009420573711395263671875</LongitudeDegrees>
            </Position>
            <AltitudeMeters>332.399993896484375</AltitudeMeters>
            <DistanceMeters>NAN</DistanceMeters>
          </Trackpoint>
          <Trackpoint>
            <Time>2019-10-08T10:45:56.000Z</Time>
            <Position>
              <LatitudeDegrees>39.85204855911433696746826171875</LatitudeDegrees>
              <LongitudeDegrees>-6.326896883547306060791015625</LongitudeDegrees>
            </Position>
            <AltitudeMeters>332.600006103515625</AltitudeMeters>
            <DistanceMeters>NAN</DistanceMeters>
          </Trackpoint>
          <Trackpoint>
            <Time>2019-10-08T10:46:03.000Z</Time>
            <Position>
              <LatitudeDegrees>39.85204855911433696746826171875</LatitudeDegrees>
              <LongitudeDegrees>-6.326896883547306060791015625</LongitudeDegrees>
            </Position>
            <AltitudeMeters>332.600006103515625</AltitudeMeters>
            <DistanceMeters>NAN</DistanceMeters>
          </Trackpoint>
          <Trackpoint>
            <Time>2019-10-08T10:46:12.000Z</Time>
            <Position>
              <LatitudeDegrees>39.85204855911433696746826171875</LatitudeDegrees>
              <LongitudeDegrees>-6.326896883547306060791015625</LongitudeDegrees>
            </Position>
            <AltitudeMeters>332.600006103515625</AltitudeMeters>
            <DistanceMeters>NAN</DistanceMeters>
          </Trackpoint>
          <Trackpoint>
            <Time>2019-10-08T10:46:14.000Z</Time>
            <Position>
              <LatitudeDegrees>39.85204855911433696746826171875</LatitudeDegrees>
              <LongitudeDegrees>-6.326896883547306060791015625</LongitudeDegrees>
            </Position>
            <AltitudeMeters>332.600006103515625</AltitudeMeters>
            <DistanceMeters>NAN</DistanceMeters>
          </Trackpoint>
          <Trackpoint>
            <Time>2019-10-08T10:46:20.000Z</Time>
            <Position>
              <LatitudeDegrees>39.85204855911433696746826171875</LatitudeDegrees>
              <LongitudeDegrees>-6.326896883547306060791015625</LongitudeDegrees>
            </Position>
            <AltitudeMeters>332.79998779296875</AltitudeMeters>
            <DistanceMeters>NAN</DistanceMeters>
          </Trackpoint>
          <Trackpoint>
            <Time>2019-10-08T10:46:24.000Z</Time>
            <Position>
              <LatitudeDegrees>39.8520483076572418212890625</LatitudeDegrees>
              <LongitudeDegrees>-6.32689814083278179168701171875</LongitudeDegrees>
            </Position>
            <AltitudeMeters>332.600006103515625</AltitudeMeters>
            <DistanceMeters>NAN</DistanceMeters>
          </Trackpoint>
          <Trackpoint>
            <Time>2019-10-08T10:46:29.000Z</Time>
            <Position>
              <LatitudeDegrees>39.8520483076572418212890625</LatitudeDegrees>
              <LongitudeDegrees>-6.32689814083278179168701171875</LongitudeDegrees>
            </Position>
            <AltitudeMeters>332.79998779296875</AltitudeMeters>
            <DistanceMeters>NAN</DistanceMeters>
          </Trackpoint>
          <Trackpoint>
            <Time>2019-10-08T10:46:38.000Z</Time>
            <Position>
              <LatitudeDegrees>39.8520483076572418212890625</LatitudeDegrees>
              <LongitudeDegrees>-6.32689814083278179168701171875</LongitudeDegrees>
            </Position>
            <AltitudeMeters>332.79998779296875</AltitudeMeters>
            <DistanceMeters>NAN</DistanceMeters>
          </Trackpoint>
          <Trackpoint>
            <Time>2019-10-08T10:46:45.000Z</Time>
            <Position>
              <LatitudeDegrees>39.8520483076572418212890625</LatitudeDegrees>
              <LongitudeDegrees>-6.32689814083278179168701171875</LongitudeDegrees>
            </Position>
            <AltitudeMeters>332.79998779296875</AltitudeMeters>
            <DistanceMeters>NAN</DistanceMeters>
          </Trackpoint>
          <Trackpoint>
            <Time>2019-10-08T10:46:47.000Z</Time>
            <Position>
              <LatitudeDegrees>39.8520483076572418212890625</LatitudeDegrees>
              <LongitudeDegrees>-6.32689814083278179168701171875</LongitudeDegrees>
            </Position>
            <AltitudeMeters>332.79998779296875</AltitudeMeters>
            <DistanceMeters>NAN</DistanceMeters>
          </Trackpoint>
          <Trackpoint>
            <Time>2019-10-08T10:46:55.000Z</Time>
            <Position>
              <LatitudeDegrees>39.8520483076572418212890625</LatitudeDegrees>
              <LongitudeDegrees>-6.32689814083278179168701171875</LongitudeDegrees>
            </Position>
            <AltitudeMeters>332.79998779296875</AltitudeMeters>
            <DistanceMeters>NAN</DistanceMeters>
          </Trackpoint>
          <Trackpoint>
            <Time>2019-10-08T10:46:58.000Z</Time>
            <Position>
              <LatitudeDegrees>39.8520483076572418212890625</LatitudeDegrees>
              <LongitudeDegrees>-6.32689814083278179168701171875</LongitudeDegrees>
            </Position>
            <AltitudeMeters>332.79998779296875</AltitudeMeters>
            <DistanceMeters>NAN</DistanceMeters>
          </Trackpoint>
          <Trackpoint>
            <Time>2019-10-08T10:47:03.000Z</Time>
            <Position>
              <LatitudeDegrees>39.8520481400191783905029296875</LatitudeDegrees>
              <LongitudeDegrees>-6.32689881138503551483154296875</LongitudeDegrees>
            </Position>
            <AltitudeMeters>332.79998779296875</AltitudeMeters>
            <DistanceMeters>NAN</DistanceMeters>
          </Trackpoint>
          <Trackpoint>
            <Time>2019-10-08T10:47:15.000Z</Time>
            <Position>
              <LatitudeDegrees>39.8520481400191783905029296875</LatitudeDegrees>
              <LongitudeDegrees>-6.32689881138503551483154296875</LongitudeDegrees>
            </Position>
            <AltitudeMeters>332.600006103515625</AltitudeMeters>
            <DistanceMeters>NAN</DistanceMeters>
          </Trackpoint>
          <Trackpoint>
            <Time>2019-10-08T10:47:19.000Z</Time>
            <Position>
              <LatitudeDegrees>39.8520481400191783905029296875</LatitudeDegrees>
              <LongitudeDegrees>-6.32689881138503551483154296875</LongitudeDegrees>
            </Position>
            <AltitudeMeters>332.600006103515625</AltitudeMeters>
            <DistanceMeters>NAN</DistanceMeters>
          </Trackpoint>
          <Trackpoint>
            <Time>2019-10-08T10:47:21.000Z</Time>
            <Position>
              <LatitudeDegrees>39.8520481400191783905029296875</LatitudeDegrees>
              <LongitudeDegrees>-6.32689881138503551483154296875</LongitudeDegrees>
            </Position>
            <AltitudeMeters>332.600006103515625</AltitudeMeters>
            <DistanceMeters>NAN</DistanceMeters>
          </Trackpoint>
          <Trackpoint>
            <Time>2019-10-08T10:47:24.000Z</Time>
            <Position>
              <LatitudeDegrees>39.8520481400191783905029296875</LatitudeDegrees>
              <LongitudeDegrees>-6.32689881138503551483154296875</LongitudeDegrees>
            </Position>
            <AltitudeMeters>332.79998779296875</AltitudeMeters>
            <DistanceMeters>NAN</DistanceMeters>
          </Trackpoint>
          <Trackpoint>
            <Time>2019-10-08T10:47:34.000Z</Time>
            <Position>
              <LatitudeDegrees>39.8520481400191783905029296875</LatitudeDegrees>
              <LongitudeDegrees>-6.32689881138503551483154296875</LongitudeDegrees>
            </Position>
            <AltitudeMeters>332.600006103515625</AltitudeMeters>
            <DistanceMeters>NAN</DistanceMeters>
          </Trackpoint>
          <Trackpoint>
            <Time>2019-10-08T10:47:37.000Z</Time>
            <Position>
              <LatitudeDegrees>39.8520481400191783905029296875</LatitudeDegrees>
              <LongitudeDegrees>-6.32689881138503551483154296875</LongitudeDegrees>
            </Position>
            <AltitudeMeters>332.79998779296875</AltitudeMeters>
            <DistanceMeters>NAN</DistanceMeters>
          </Trackpoint>
          <Trackpoint>
            <Time>2019-10-08T10:47:40.000Z</Time>
            <Position>
              <LatitudeDegrees>39.8520481400191783905029296875</LatitudeDegrees>
              <LongitudeDegrees>-6.32689881138503551483154296875</LongitudeDegrees>
            </Position>
            <AltitudeMeters>332.600006103515625</AltitudeMeters>
            <DistanceMeters>NAN</DistanceMeters>
          </Trackpoint>
          <Trackpoint>
            <Time>2019-10-08T10:47:44.000Z</Time>
            <Position>
              <LatitudeDegrees>39.85204495489597320556640625</LatitudeDegrees>
              <LongitudeDegrees>-6.326900906860828399658203125</LongitudeDegrees>
            </Position>
            <AltitudeMeters>332.399993896484375</AltitudeMeters>
            <DistanceMeters>NAN</DistanceMeters>
          </Trackpoint>
          <Trackpoint>
            <Time>2019-10-08T10:47:48.000Z</Time>
            <Position>
              <LatitudeDegrees>39.85204537399113178253173828125</LatitudeDegrees>
              <LongitudeDegrees>-6.3269086182117462158203125</LongitudeDegrees>
            </Position>
            <AltitudeMeters>332.399993896484375</AltitudeMeters>
            <DistanceMeters>NAN</DistanceMeters>
          </Trackpoint>
          <Trackpoint>
            <Time>2019-10-08T10:47:50.000Z</Time>
            <Position>
              <LatitudeDegrees>39.85204495489597320556640625</LatitudeDegrees>
              <LongitudeDegrees>-6.326900906860828399658203125</LongitudeDegrees>
            </Position>
            <AltitudeMeters>332.20001220703125</AltitudeMeters>
            <DistanceMeters>NAN</DistanceMeters>
          </Trackpoint>
          <Trackpoint>
            <Time>2019-10-08T10:47:56.000Z</Time>
            <Position>
              <LatitudeDegrees>39.85204495489597320556640625</LatitudeDegrees>
              <LongitudeDegrees>-6.326900906860828399658203125</LongitudeDegrees>
            </Position>
            <AltitudeMeters>332.20001220703125</AltitudeMeters>
            <DistanceMeters>NAN</DistanceMeters>
          </Trackpoint>
          <Trackpoint>
            <Time>2019-10-08T10:48:01.000Z</Time>
            <Position>
              <LatitudeDegrees>39.85203296877443790435791015625</LatitudeDegrees>
              <LongitudeDegrees>-6.3269185088574886322021484375</LongitudeDegrees>
            </Position>
            <AltitudeMeters>332</AltitudeMeters>
            <DistanceMeters>NAN</DistanceMeters>
          </Trackpoint>
          <Trackpoint>
            <Time>2019-10-08T10:48:05.000Z</Time>
            <Position>
              <LatitudeDegrees>39.851971529424190521240234375</LatitudeDegrees>
              <LongitudeDegrees>-6.32702060043811798095703125</LongitudeDegrees>
            </Position>
            <AltitudeMeters>332.600006103515625</AltitudeMeters>
            <DistanceMeters>NAN</DistanceMeters>
          </Trackpoint>
          <Trackpoint>
            <Time>2019-10-08T10:48:09.000Z</Time>
            <Position>
              <LatitudeDegrees>39.8518919013440608978271484375</LatitudeDegrees>
              <LongitudeDegrees>-6.3271703012287616729736328125</LongitudeDegrees>
            </Position>
            <AltitudeMeters>332.79998779296875</AltitudeMeters>
            <DistanceMeters>NAN</DistanceMeters>
          </Trackpoint>
          <Trackpoint>
            <Time>2019-10-08T10:48:12.000Z</Time>
            <Position>
              <LatitudeDegrees>39.85182710923254489898681640625</LatitudeDegrees>
              <LongitudeDegrees>-6.32728856988251209259033203125</LongitudeDegrees>
            </Position>
            <AltitudeMeters>332.79998779296875</AltitudeMeters>
            <DistanceMeters>NAN</DistanceMeters>
          </Trackpoint>
          <Trackpoint>
            <Time>2019-10-08T10:48:16.000Z</Time>
            <Position>
              <LatitudeDegrees>39.85173876397311687469482421875</LatitudeDegrees>
              <LongitudeDegrees>-6.3274512626230716705322265625</LongitudeDegrees>
            </Position>
            <AltitudeMeters>333</AltitudeMeters>
            <DistanceMeters>NAN</DistanceMeters>
          </Trackpoint>
          <Trackpoint>
            <Time>2019-10-08T10:48:21.000Z</Time>
            <Position>
              <LatitudeDegrees>39.85162929631769657135009765625</LatitudeDegrees>
              <LongitudeDegrees>-6.32765284739434719085693359375</LongitudeDegrees>
            </Position>
            <AltitudeMeters>333.399993896484375</AltitudeMeters>
            <DistanceMeters>NAN</DistanceMeters>
          </Trackpoint>
          <Trackpoint>
            <Time>2019-10-08T10:48:22.000Z</Time>
            <Position>
              <LatitudeDegrees>39.85160582698881626129150390625</LatitudeDegrees>
              <LongitudeDegrees>-6.3276926614344120025634765625</LongitudeDegrees>
            </Position>
            <AltitudeMeters>333.399993896484375</AltitudeMeters>
            <DistanceMeters>NAN</DistanceMeters>
          </Trackpoint>
          <Trackpoint>
            <Time>2019-10-08T10:48:23.000Z</Time>
            <Position>
              <LatitudeDegrees>39.8515816032886505126953125</LatitudeDegrees>
              <LongitudeDegrees>-6.3277325592935085296630859375</LongitudeDegrees>
            </Position>
            <AltitudeMeters>333.399993896484375</AltitudeMeters>
            <DistanceMeters>NAN</DistanceMeters>
          </Trackpoint>
          <Trackpoint>
            <Time>2019-10-08T10:48:29.000Z</Time>
            <Position>
              <LatitudeDegrees>39.8514501750469207763671875</LatitudeDegrees>
              <LongitudeDegrees>-6.32797689177095890045166015625</LongitudeDegrees>
            </Position>
            <AltitudeMeters>334.20001220703125</AltitudeMeters>
            <DistanceMeters>NAN</DistanceMeters>
          </Trackpoint>
          <Trackpoint>
            <Time>2019-10-08T10:48:31.000Z</Time>
            <Position>
              <LatitudeDegrees>39.85140667296946048736572265625</LatitudeDegrees>
              <LongitudeDegrees>-6.328057609498500823974609375</LongitudeDegrees>
            </Position>
            <AltitudeMeters>334.399993896484375</AltitudeMeters>
            <DistanceMeters>NAN</DistanceMeters>
          </Trackpoint>
          <Trackpoint>
            <Time>2019-10-08T10:48:32.000Z</Time>
            <Position>
              <LatitudeDegrees>39.8513822816312313079833984375</LatitudeDegrees>
              <LongitudeDegrees>-6.32809616625308990478515625</LongitudeDegrees>
            </Position>
            <AltitudeMeters>334.399993896484375</AltitudeMeters>
            <DistanceMeters>NAN</DistanceMeters>
          </Trackpoint>
          <Trackpoint>
            <Time>2019-10-08T10:48:40.000Z</Time>
            <Position>
              <LatitudeDegrees>39.8512032441794872283935546875</LatitudeDegrees>
              <LongitudeDegrees>-6.3284228928387165069580078125</LongitudeDegrees>
            </Position>
            <AltitudeMeters>335.20001220703125</AltitudeMeters>
            <DistanceMeters>NAN</DistanceMeters>
          </Trackpoint>
          <Trackpoint>
            <Time>2019-10-08T10:48:45.000Z</Time>
            <Position>
              <LatitudeDegrees>39.8510889150202274322509765625</LatitudeDegrees>
              <LongitudeDegrees>-6.3286374695599079132080078125</LongitudeDegrees>
            </Position>
            <AltitudeMeters>335.600006103515625</AltitudeMeters>
            <DistanceMeters>NAN</DistanceMeters>
          </Trackpoint>
          <Trackpoint>
            <Time>2019-10-08T10:48:46.000Z</Time>
            <Position>
              <LatitudeDegrees>39.85106737352907657623291015625</LatitudeDegrees>
              <LongitudeDegrees>-6.32867946289479732513427734375</LongitudeDegrees>
            </Position>
            <AltitudeMeters>335.600006103515625</AltitudeMeters>
            <DistanceMeters>NAN</DistanceMeters>
          </Trackpoint>
          <Trackpoint>
            <Time>2019-10-08T10:48:51.000Z</Time>
            <Position>
              <LatitudeDegrees>39.85095589421689510345458984375</LatitudeDegrees>
              <LongitudeDegrees>-6.328884400427341461181640625</LongitudeDegrees>
            </Position>
            <AltitudeMeters>336</AltitudeMeters>
            <DistanceMeters>NAN</DistanceMeters>
          </Trackpoint>
          <Trackpoint>
            <Time>2019-10-08T10:48:53.000Z</Time>
            <Position>
              <LatitudeDegrees>39.8509105481207370758056640625</LatitudeDegrees>
              <LongitudeDegrees>-6.3289685547351837158203125</LongitudeDegrees>
            </Position>
            <AltitudeMeters>336</AltitudeMeters>
            <DistanceMeters>NAN</DistanceMeters>
          </Trackpoint>
          <Trackpoint>
            <Time>2019-10-08T10:48:56.000Z</Time>
            <Position>
              <LatitudeDegrees>39.8508481867611408233642578125</LatitudeDegrees>
              <LongitudeDegrees>-6.32908682338893413543701171875</LongitudeDegrees>
            </Position>
            <AltitudeMeters>336.600006103515625</AltitudeMeters>
            <DistanceMeters>NAN</DistanceMeters>
          </Trackpoint>
          <Trackpoint>
            <Time>2019-10-08T10:49:02.000Z</Time>
            <Position>
              <LatitudeDegrees>39.85071592032909393310546875</LatitudeDegrees>
              <LongitudeDegrees>-6.329331658780574798583984375</LongitudeDegrees>
            </Position>
            <AltitudeMeters>337.20001220703125</AltitudeMeters>
            <DistanceMeters>NAN</DistanceMeters>
          </Trackpoint>
          <Trackpoint>
            <Time>2019-10-08T10:49:05.000Z</Time>
            <Position>
              <LatitudeDegrees>39.85064542852342128753662109375</LatitudeDegrees>
              <LongitudeDegrees>-6.32944942452013492584228515625</LongitudeDegrees>
            </Position>
            <AltitudeMeters>337.600006103515625</AltitudeMeters>
            <DistanceMeters>NAN</DistanceMeters>
          </Trackpoint>
          <Trackpoint>
            <Time>2019-10-08T10:49:09.000Z</Time>
            <Position>
              <LatitudeDegrees>39.8505623638629913330078125</LatitudeDegrees>
              <LongitudeDegrees>-6.32960516028106212615966796875</LongitudeDegrees>
            </Position>
            <AltitudeMeters>338.600006103515625</AltitudeMeters>
            <DistanceMeters>NAN</DistanceMeters>
          </Trackpoint>
          <Trackpoint>
            <Time>2019-10-08T10:49:10.000Z</Time>
            <Position>
              <LatitudeDegrees>39.85054166056215763092041015625</LatitudeDegrees>
              <LongitudeDegrees>-6.32963751442730426788330078125</LongitudeDegrees>
            </Position>
            <AltitudeMeters>338.399993896484375</AltitudeMeters>
            <DistanceMeters>NAN</DistanceMeters>
          </Trackpoint>
          <Trackpoint>
            <Time>2019-10-08T10:49:16.000Z</Time>
            <Position>
              <LatitudeDegrees>39.85042246989905834197998046875</LatitudeDegrees>
              <LongitudeDegrees>-6.3298585452139377593994140625</LongitudeDegrees>
            </Position>
            <AltitudeMeters>339.600006103515625</AltitudeMeters>
            <DistanceMeters>NAN</DistanceMeters>
          </Trackpoint>
          <Trackpoint>
            <Time>2019-10-08T10:49:17.000Z</Time>
            <Position>
              <LatitudeDegrees>39.85040335915982723236083984375</LatitudeDegrees>
              <LongitudeDegrees>-6.329898275434970855712890625</LongitudeDegrees>
            </Position>
            <AltitudeMeters>339.79998779296875</AltitudeMeters>
            <DistanceMeters>NAN</DistanceMeters>
          </Trackpoint>
          <Trackpoint>
            <Time>2019-10-08T10:49:23.000Z</Time>
            <Position>
              <LatitudeDegrees>39.85028299503028392791748046875</LatitudeDegrees>
              <LongitudeDegrees>-6.33012668229639530181884765625</LongitudeDegrees>
            </Position>
            <AltitudeMeters>340.600006103515625</AltitudeMeters>
            <DistanceMeters>NAN</DistanceMeters>
          </Trackpoint>
          <Trackpoint>
            <Time>2019-10-08T10:49:24.000Z</Time>
            <Position>
              <LatitudeDegrees>39.8502617888152599334716796875</LatitudeDegrees>
              <LongitudeDegrees>-6.33016540668904781341552734375</LongitudeDegrees>
            </Position>
            <AltitudeMeters>341</AltitudeMeters>
            <DistanceMeters>NAN</DistanceMeters>
          </Trackpoint>
          <Trackpoint>
            <Time>2019-10-08T10:49:25.000Z</Time>
            <Position>
              <LatitudeDegrees>39.85024041496217250823974609375</LatitudeDegrees>
              <LongitudeDegrees>-6.3302018679678440093994140625</LongitudeDegrees>
            </Position>
            <AltitudeMeters>341.20001220703125</AltitudeMeters>
            <DistanceMeters>NAN</DistanceMeters>
          </Trackpoint>
          <Trackpoint>
            <Time>2019-10-08T10:49:31.000Z</Time>
            <Position>
              <LatitudeDegrees>39.85011250711977481842041015625</LatitudeDegrees>
              <LongitudeDegrees>-6.33043061010539531707763671875</LongitudeDegrees>
            </Position>
            <AltitudeMeters>342</AltitudeMeters>
            <DistanceMeters>NAN</DistanceMeters>
          </Trackpoint>
          <Trackpoint>
            <Time>2019-10-08T10:49:33.000Z</Time>
            <Position>
              <LatitudeDegrees>39.85006892122328281402587890625</LatitudeDegrees>
              <LongitudeDegrees>-6.330508477985858917236328125</LongitudeDegrees>
            </Position>
            <AltitudeMeters>342.600006103515625</AltitudeMeters>
            <DistanceMeters>NAN</DistanceMeters>
          </Trackpoint>
          <Trackpoint>
            <Time>2019-10-08T10:49:37.000Z</Time>
            <Position>
              <LatitudeDegrees>39.84998979605734348297119140625</LatitudeDegrees>
              <LongitudeDegrees>-6.33066630922257900238037109375</LongitudeDegrees>
            </Position>
            <AltitudeMeters>343.20001220703125</AltitudeMeters>
            <DistanceMeters>NAN</DistanceMeters>
          </Trackpoint>
          <Trackpoint>
            <Time>2019-10-08T10:49:42.000Z</Time>
            <Position>
              <LatitudeDegrees>39.84989172779023647308349609375</LatitudeDegrees>
              <LongitudeDegrees>-6.33085087873041629791259765625</LongitudeDegrees>
            </Position>
            <AltitudeMeters>344.20001220703125</AltitudeMeters>
            <DistanceMeters>NAN</DistanceMeters>
          </Trackpoint>
          <Trackpoint>
            <Time>2019-10-08T10:49:43.000Z</Time>
            <Position>
              <LatitudeDegrees>39.84987236559391021728515625</LatitudeDegrees>
              <LongitudeDegrees>-6.3308871723711490631103515625</LongitudeDegrees>
            </Position>
            <AltitudeMeters>344.399993896484375</AltitudeMeters>
            <DistanceMeters>NAN</DistanceMeters>
          </Trackpoint>
          <Trackpoint>
            <Time>2019-10-08T10:49:49.000Z</Time>
            <Position>
              <LatitudeDegrees>39.8497550189495086669921875</LatitudeDegrees>
              <LongitudeDegrees>-6.33110317401587963104248046875</LongitudeDegrees>
            </Position>
            <AltitudeMeters>345.399993896484375</AltitudeMeters>
            <DistanceMeters>NAN</DistanceMeters>
          </Trackpoint>
          <Trackpoint>
            <Time>2019-10-08T10:49:50.000Z</Time>
            <Position>
              <LatitudeDegrees>39.8497362434864044189453125</LatitudeDegrees>
              <LongitudeDegrees>-6.3311406411230564117431640625</LongitudeDegrees>
            </Position>
            <AltitudeMeters>345.399993896484375</AltitudeMeters>
            <DistanceMeters>NAN</DistanceMeters>
          </Trackpoint>
          <Trackpoint>
            <Time>2019-10-08T10:49:57.000Z</Time>
            <Position>
              <LatitudeDegrees>39.849595762789249420166015625</LatitudeDegrees>
              <LongitudeDegrees>-6.33140265941619873046875</LongitudeDegrees>
            </Position>
            <AltitudeMeters>346.600006103515625</AltitudeMeters>
            <DistanceMeters>NAN</DistanceMeters>
          </Trackpoint>
          <Trackpoint>
            <Time>2019-10-08T10:50:00.000Z</Time>
            <Position>
              <LatitudeDegrees>39.84953172504901885986328125</LatitudeDegrees>
              <LongitudeDegrees>-6.33151573128998279571533203125</LongitudeDegrees>
            </Position>
            <AltitudeMeters>347</AltitudeMeters>
            <DistanceMeters>NAN</DistanceMeters>
          </Trackpoint>
          <Trackpoint>
            <Time>2019-10-08T10:50:04.000Z</Time>
            <Position>
              <LatitudeDegrees>39.84944857656955718994140625</LatitudeDegrees>
              <LongitudeDegrees>-6.33166559971868991851806640625</LongitudeDegrees>
            </Position>
            <AltitudeMeters>347.600006103515625</AltitudeMeters>
            <DistanceMeters>NAN</DistanceMeters>
          </Trackpoint>
          <Trackpoint>
            <Time>2019-10-08T10:50:09.000Z</Time>
            <Position>
              <LatitudeDegrees>39.84934204258024692535400390625</LatitudeDegrees>
              <LongitudeDegrees>-6.33185125887393951416015625</LongitudeDegrees>
            </Position>
            <AltitudeMeters>348.20001220703125</AltitudeMeters>
            <DistanceMeters>NAN</DistanceMeters>
          </Trackpoint>
          <Trackpoint>
            <Time>2019-10-08T10:50:11.000Z</Time>
            <Position>
              <LatitudeDegrees>39.8492998816072940826416015625</LatitudeDegrees>
              <LongitudeDegrees>-6.3319285400211811065673828125</LongitudeDegrees>
            </Position>
            <AltitudeMeters>348.79998779296875</AltitudeMeters>
            <DistanceMeters>NAN</DistanceMeters>
          </Trackpoint>
          <Trackpoint>
            <Time>2019-10-08T10:50:17.000Z</Time>
            <Position>
              <LatitudeDegrees>39.8491664417088031768798828125</LatitudeDegrees>
              <LongitudeDegrees>-6.3321558572351932525634765625</LongitudeDegrees>
            </Position>
            <AltitudeMeters>349.399993896484375</AltitudeMeters>
            <DistanceMeters>NAN</DistanceMeters>
          </Trackpoint>
          <Trackpoint>
            <Time>2019-10-08T10:50:19.000Z</Time>
            <Position>
              <LatitudeDegrees>39.84912578947842121124267578125</LatitudeDegrees>
              <LongitudeDegrees>-6.33223506622016429901123046875</LongitudeDegrees>
            </Position>
            <AltitudeMeters>349.79998779296875</AltitudeMeters>
            <DistanceMeters>NAN</DistanceMeters>
          </Trackpoint>
          <Trackpoint>
            <Time>2019-10-08T10:50:26.000Z</Time>
            <Position>
              <LatitudeDegrees>39.8489786870777606964111328125</LatitudeDegrees>
              <LongitudeDegrees>-6.3325021974742412567138671875</LongitudeDegrees>
            </Position>
            <AltitudeMeters>350.600006103515625</AltitudeMeters>
            <DistanceMeters>NAN</DistanceMeters>
          </Trackpoint>
          <Trackpoint>
            <Time>2019-10-08T10:50:28.000Z</Time>
            <Position>
              <LatitudeDegrees>39.8489384539425373077392578125</LatitudeDegrees>
              <LongitudeDegrees>-6.33257704786956310272216796875</LongitudeDegrees>
            </Position>
            <AltitudeMeters>351</AltitudeMeters>
            <DistanceMeters>NAN</DistanceMeters>
          </Trackpoint>
          <Trackpoint>
            <Time>2019-10-08T10:50:33.000Z</Time>
            <Position>
              <LatitudeDegrees>39.8488415591418743133544921875</LatitudeDegrees>
              <LongitudeDegrees>-6.33276027627289295196533203125</LongitudeDegrees>
            </Position>
            <AltitudeMeters>352</AltitudeMeters>
            <DistanceMeters>NAN</DistanceMeters>
          </Trackpoint>
          <Trackpoint>
            <Time>2019-10-08T10:50:35.000Z</Time>
            <Position>
              <LatitudeDegrees>39.84880459494888782501220703125</LatitudeDegrees>
              <LongitudeDegrees>-6.332827918231487274169921875</LongitudeDegrees>
            </Position>
            <AltitudeMeters>352</AltitudeMeters>
            <DistanceMeters>NAN</DistanceMeters>
          </Trackpoint>
          <Trackpoint>
            <Time>2019-10-08T10:50:42.000Z</Time>
            <Position>
              <LatitudeDegrees>39.84865598380565643310546875</LatitudeDegrees>
              <LongitudeDegrees>-6.3330396451056003570556640625</LongitudeDegrees>
            </Position>
            <AltitudeMeters>353</AltitudeMeters>
            <DistanceMeters>NAN</DistanceMeters>
          </Trackpoint>
          <Trackpoint>
            <Time>2019-10-08T10:50:43.000Z</Time>
            <Position>
              <LatitudeDegrees>39.8486346937716007232666015625</LatitudeDegrees>
              <LongitudeDegrees>-6.33307158015668392181396484375</LongitudeDegrees>
            </Position>
            <AltitudeMeters>353.20001220703125</AltitudeMeters>
            <DistanceMeters>NAN</DistanceMeters>
          </Trackpoint>
          <Trackpoint>
            <Time>2019-10-08T10:50:47.000Z</Time>
            <Position>
              <LatitudeDegrees>39.84854961745440959930419921875</LatitudeDegrees>
              <LongitudeDegrees>-6.33319613523781299591064453125</LongitudeDegrees>
            </Position>
            <AltitudeMeters>354.20001220703125</AltitudeMeters>
            <DistanceMeters>NAN</DistanceMeters>
          </Trackpoint>
          <Trackpoint>
            <Time>2019-10-08T10:50:49.000Z</Time>
            <Position>
              <LatitudeDegrees>39.84849580563604831695556640625</LatitudeDegrees>
              <LongitudeDegrees>-6.33325078524649143218994140625</LongitudeDegrees>
            </Position>
            <AltitudeMeters>354.600006103515625</AltitudeMeters>
            <DistanceMeters>NAN</DistanceMeters>
          </Trackpoint>
          <Trackpoint>
            <Time>2019-10-08T10:50:54.000Z</Time>
            <Position>
              <LatitudeDegrees>39.84835130162537097930908203125</LatitudeDegrees>
              <LongitudeDegrees>-6.3333836384117603302001953125</LongitudeDegrees>
            </Position>
            <AltitudeMeters>355.399993896484375</AltitudeMeters>
            <DistanceMeters>NAN</DistanceMeters>
          </Trackpoint>
          <Trackpoint>
            <Time>2019-10-08T10:50:57.000Z</Time>
            <Position>
              <LatitudeDegrees>39.84825742430984973907470703125</LatitudeDegrees>
              <LongitudeDegrees>-6.3334550522267818450927734375</LongitudeDegrees>
            </Position>
            <AltitudeMeters>355.600006103515625</AltitudeMeters>
            <DistanceMeters>NAN</DistanceMeters>
          </Trackpoint>
          <Trackpoint>
            <Time>2019-10-08T10:51:01.000Z</Time>
            <Position>
              <LatitudeDegrees>39.84814074821770191192626953125</LatitudeDegrees>
              <LongitudeDegrees>-6.33355035446584224700927734375</LongitudeDegrees>
            </Position>
            <AltitudeMeters>356.600006103515625</AltitudeMeters>
            <DistanceMeters>NAN</DistanceMeters>
          </Trackpoint>
          <Trackpoint>
            <Time>2019-10-08T10:51:06.000Z</Time>
            <Position>
              <LatitudeDegrees>39.8479976691305637359619140625</LatitudeDegrees>
              <LongitudeDegrees>-6.33367876522243022918701171875</LongitudeDegrees>
            </Position>
            <AltitudeMeters>357.600006103515625</AltitudeMeters>
            <DistanceMeters>NAN</DistanceMeters>
          </Trackpoint>
          <Trackpoint>
            <Time>2019-10-08T10:51:07.000Z</Time>
            <Position>
              <LatitudeDegrees>39.8479688353836536407470703125</LatitudeDegrees>
              <LongitudeDegrees>-6.33370609022676944732666015625</LongitudeDegrees>
            </Position>
            <AltitudeMeters>357.20001220703125</AltitudeMeters>
            <DistanceMeters>NAN</DistanceMeters>
          </Trackpoint>
          <Trackpoint>
            <Time>2019-10-08T10:51:16.000Z</Time>
            <Position>
              <LatitudeDegrees>39.84771427698433399200439453125</LatitudeDegrees>
              <LongitudeDegrees>-6.33395000360906124114990234375</LongitudeDegrees>
            </Position>
            <AltitudeMeters>358.600006103515625</AltitudeMeters>
            <DistanceMeters>NAN</DistanceMeters>
          </Trackpoint>
          <Trackpoint>
            <Time>2019-10-08T10:51:26.000Z</Time>
            <Position>
              <LatitudeDegrees>39.84745997004210948944091796875</LatitudeDegrees>
              <LongitudeDegrees>-6.3342892192304134368896484375</LongitudeDegrees>
            </Position>
            <AltitudeMeters>359.600006103515625</AltitudeMeters>
            <DistanceMeters>NAN</DistanceMeters>
          </Trackpoint>
          <Trackpoint>
            <Time>2019-10-08T10:51:28.000Z</Time>
            <Position>
              <LatitudeDegrees>39.8474079184234142303466796875</LatitudeDegrees>
              <LongitudeDegrees>-6.3343606330454349517822265625</LongitudeDegrees>
            </Position>
            <AltitudeMeters>360</AltitudeMeters>
            <DistanceMeters>NAN</DistanceMeters>
          </Trackpoint>
          <Trackpoint>
            <Time>2019-10-08T10:51:35.000Z</Time>
            <Position>
              <LatitudeDegrees>39.847227036952972412109375</LatitudeDegrees>
              <LongitudeDegrees>-6.33461619727313518524169921875</LongitudeDegrees>
            </Position>
            <AltitudeMeters>360.20001220703125</AltitudeMeters>
            <DistanceMeters>NAN</DistanceMeters>
          </Trackpoint>
          <Trackpoint>
            <Time>2019-10-08T10:51:39.000Z</Time>
            <Position>
              <LatitudeDegrees>39.84712486155331134796142578125</LatitudeDegrees>
              <LongitudeDegrees>-6.33476757444441318511962890625</LongitudeDegrees>
            </Position>
            <AltitudeMeters>361.20001220703125</AltitudeMeters>
            <DistanceMeters>NAN</DistanceMeters>
          </Trackpoint>
          <Trackpoint>
            <Time>2019-10-08T10:51:46.000Z</Time>
            <Position>
              <LatitudeDegrees>39.84693534672260284423828125</LatitudeDegrees>
              <LongitudeDegrees>-6.33503462187945842742919921875</LongitudeDegrees>
            </Position>
            <AltitudeMeters>362</AltitudeMeters>
            <DistanceMeters>NAN</DistanceMeters>
          </Trackpoint>
          <Trackpoint>
            <Time>2019-10-08T10:51:49.000Z</Time>
            <Position>
              <LatitudeDegrees>39.84685462899506092071533203125</LatitudeDegrees>
              <LongitudeDegrees>-6.33515481837093830108642578125</LongitudeDegrees>
            </Position>
            <AltitudeMeters>362.399993896484375</AltitudeMeters>
            <DistanceMeters>NAN</DistanceMeters>
          </Trackpoint>
          <Trackpoint>
            <Time>2019-10-08T10:51:55.000Z</Time>
            <Position>
              <LatitudeDegrees>39.84669621102511882781982421875</LatitudeDegrees>
              <LongitudeDegrees>-6.33538649417459964752197265625</LongitudeDegrees>
            </Position>
            <AltitudeMeters>363.20001220703125</AltitudeMeters>
            <DistanceMeters>NAN</DistanceMeters>
          </Trackpoint>
          <Trackpoint>
            <Time>2019-10-08T10:51:57.000Z</Time>
            <Position>
              <LatitudeDegrees>39.84664491377770900726318359375</LatitudeDegrees>
              <LongitudeDegrees>-6.33546419441699981689453125</LongitudeDegrees>
            </Position>
            <AltitudeMeters>363.399993896484375</AltitudeMeters>
            <DistanceMeters>NAN</DistanceMeters>
          </Trackpoint>
          <Trackpoint>
            <Time>2019-10-08T10:52:04.000Z</Time>
            <Position>
              <LatitudeDegrees>39.8464594222605228424072265625</LatitudeDegrees>
              <LongitudeDegrees>-6.3357265479862689971923828125</LongitudeDegrees>
            </Position>
            <AltitudeMeters>363.79998779296875</AltitudeMeters>
            <DistanceMeters>NAN</DistanceMeters>
          </Trackpoint>
          <Trackpoint>
            <Time>2019-10-08T10:52:12.000Z</Time>
            <Position>
              <LatitudeDegrees>39.84625079669058322906494140625</LatitudeDegrees>
              <LongitudeDegrees>-6.3360366784036159515380859375</LongitudeDegrees>
            </Position>
            <AltitudeMeters>364.399993896484375</AltitudeMeters>
            <DistanceMeters>NAN</DistanceMeters>
          </Trackpoint>
          <Trackpoint>
            <Time>2019-10-08T10:52:14.000Z</Time>
            <Position>
              <LatitudeDegrees>39.8461955599486827850341796875</LatitudeDegrees>
              <LongitudeDegrees>-6.33611354045569896697998046875</LongitudeDegrees>
            </Position>
            <AltitudeMeters>364.79998779296875</AltitudeMeters>
            <DistanceMeters>NAN</DistanceMeters>
          </Trackpoint>
          <Trackpoint>
            <Time>2019-10-08T10:52:22.000Z</Time>
            <Position>
              <LatitudeDegrees>39.845986850559711456298828125</LatitudeDegrees>
              <LongitudeDegrees>-6.33642174303531646728515625</LongitudeDegrees>
            </Position>
            <AltitudeMeters>365.399993896484375</AltitudeMeters>
            <DistanceMeters>NAN</DistanceMeters>
          </Trackpoint>
          <Trackpoint>
            <Time>2019-10-08T10:52:24.000Z</Time>
            <Position>
              <LatitudeDegrees>39.845934547483921051025390625</LatitudeDegrees>
              <LongitudeDegrees>-6.33649952709674835205078125</LongitudeDegrees>
            </Position>
            <AltitudeMeters>365.399993896484375</AltitudeMeters>
            <DistanceMeters>NAN</DistanceMeters>
          </Trackpoint>
          <Trackpoint>
            <Time>2019-10-08T10:52:33.000Z</Time>
            <Position>
              <LatitudeDegrees>39.84569624997675418853759765625</LatitudeDegrees>
              <LongitudeDegrees>-6.3368554227054119110107421875</LongitudeDegrees>
            </Position>
            <AltitudeMeters>366.600006103515625</AltitudeMeters>
            <DistanceMeters>NAN</DistanceMeters>
          </Trackpoint>
          <Trackpoint>
            <Time>2019-10-08T10:52:35.000Z</Time>
            <Position>
              <LatitudeDegrees>39.8456447012722492218017578125</LatitudeDegrees>
              <LongitudeDegrees>-6.3369320333003997802734375</LongitudeDegrees>
            </Position>
            <AltitudeMeters>366.600006103515625</AltitudeMeters>
            <DistanceMeters>NAN</DistanceMeters>
          </Trackpoint>
          <Trackpoint>
            <Time>2019-10-08T10:52:45.000Z</Time>
            <Position>
              <LatitudeDegrees>39.84538109041750431060791015625</LatitudeDegrees>
              <LongitudeDegrees>-6.33730963803827762603759765625</LongitudeDegrees>
            </Position>
            <AltitudeMeters>367.399993896484375</AltitudeMeters>
            <DistanceMeters>NAN</DistanceMeters>
          </Trackpoint>
          <Trackpoint>
            <Time>2019-10-08T10:52:46.000Z</Time>
            <Position>
              <LatitudeDegrees>39.84535410068929195404052734375</LatitudeDegrees>
              <LongitudeDegrees>-6.3373477756977081298828125</LongitudeDegrees>
            </Position>
            <AltitudeMeters>367.600006103515625</AltitudeMeters>
            <DistanceMeters>NAN</DistanceMeters>
          </Trackpoint>
          <Trackpoint>
            <Time>2019-10-08T10:52:49.000Z</Time>
            <Position>
              <LatitudeDegrees>39.84527413733303546905517578125</LatitudeDegrees>
              <LongitudeDegrees>-6.33746101520955562591552734375</LongitudeDegrees>
            </Position>
            <AltitudeMeters>368</AltitudeMeters>
            <DistanceMeters>NAN</DistanceMeters>
          </Trackpoint>
          <Trackpoint>
            <Time>2019-10-08T10:52:56.000Z</Time>
            <Position>
              <LatitudeDegrees>39.845083616673946380615234375</LatitudeDegrees>
              <LongitudeDegrees>-6.33772688917815685272216796875</LongitudeDegrees>
            </Position>
            <AltitudeMeters>368.600006103515625</AltitudeMeters>
            <DistanceMeters>NAN</DistanceMeters>
          </Trackpoint>
          <Trackpoint>
            <Time>2019-10-08T10:52:57.000Z</Time>
            <Position>
              <LatitudeDegrees>39.84505511820316314697265625</LatitudeDegrees>
              <LongitudeDegrees>-6.3377697207033634185791015625</LongitudeDegrees>
            </Position>
            <AltitudeMeters>368.79998779296875</AltitudeMeters>
            <DistanceMeters>NAN</DistanceMeters>
          </Trackpoint>
          <Trackpoint>
            <Time>2019-10-08T10:53:05.000Z</Time>
            <Position>
              <LatitudeDegrees>39.844816066324710845947265625</LatitudeDegrees>
              <LongitudeDegrees>-6.33811916224658489227294921875</LongitudeDegrees>
            </Position>
            <AltitudeMeters>369.600006103515625</AltitudeMeters>
            <DistanceMeters>NAN</DistanceMeters>
          </Trackpoint>
          <Trackpoint>
            <Time>2019-10-08T10:53:10.000Z</Time>
            <Position>
              <LatitudeDegrees>39.84466577880084514617919921875</LatitudeDegrees>
              <LongitudeDegrees>-6.33834061212837696075439453125</LongitudeDegrees>
            </Position>
            <AltitudeMeters>369.79998779296875</AltitudeMeters>
            <DistanceMeters>NAN</DistanceMeters>
          </Trackpoint>
          <Trackpoint>
            <Time>2019-10-08T10:53:16.000Z</Time>
            <Position>
              <LatitudeDegrees>39.844484142959117889404296875</LatitudeDegrees>
              <LongitudeDegrees>-6.33860506117343902587890625</LongitudeDegrees>
            </Position>
            <AltitudeMeters>370.399993896484375</AltitudeMeters>
            <DistanceMeters>NAN</DistanceMeters>
          </Trackpoint>
          <Trackpoint>
            <Time>2019-10-08T10:53:19.000Z</Time>
            <Position>
              <LatitudeDegrees>39.8443973064422607421875</LatitudeDegrees>
              <LongitudeDegrees>-6.33873439393937587738037109375</LongitudeDegrees>
            </Position>
            <AltitudeMeters>371</AltitudeMeters>
            <DistanceMeters>NAN</DistanceMeters>
          </Trackpoint>
          <Trackpoint>
            <Time>2019-10-08T10:53:25.000Z</Time>
            <Position>
              <LatitudeDegrees>39.84422706998884677886962890625</LatitudeDegrees>
              <LongitudeDegrees>-6.33900445885956287384033203125</LongitudeDegrees>
            </Position>
            <AltitudeMeters>371.399993896484375</AltitudeMeters>
            <DistanceMeters>NAN</DistanceMeters>
          </Trackpoint>
          <Trackpoint>
            <Time>2019-10-08T10:53:31.000Z</Time>
            <Position>
              <LatitudeDegrees>39.8440642096102237701416015625</LatitudeDegrees>
              <LongitudeDegrees>-6.33929170668125152587890625</LongitudeDegrees>
            </Position>
            <AltitudeMeters>372</AltitudeMeters>
            <DistanceMeters>NAN</DistanceMeters>
          </Trackpoint>
          <Trackpoint>
            <Time>2019-10-08T10:53:36.000Z</Time>
            <Position>
              <LatitudeDegrees>39.84393504448235034942626953125</LatitudeDegrees>
              <LongitudeDegrees>-6.33953067474067211151123046875</LongitudeDegrees>
            </Position>
            <AltitudeMeters>373.20001220703125</AltitudeMeters>
            <DistanceMeters>NAN</DistanceMeters>
          </Trackpoint>
          <Trackpoint>
            <Time>2019-10-08T10:53:46.000Z</Time>
            <Position>
              <LatitudeDegrees>39.84368450939655303955078125</LatitudeDegrees>
              <LongitudeDegrees>-6.34000509046018123626708984375</LongitudeDegrees>
            </Position>
            <AltitudeMeters>374.399993896484375</AltitudeMeters>
            <DistanceMeters>NAN</DistanceMeters>
          </Trackpoint>
          <Trackpoint>
            <Time>2019-10-08T10:53:49.000Z</Time>
            <Position>
              <LatitudeDegrees>39.8436112515628337860107421875</LatitudeDegrees>
              <LongitudeDegrees>-6.34014464914798736572265625</LongitudeDegrees>
            </Position>
            <AltitudeMeters>374.600006103515625</AltitudeMeters>
            <DistanceMeters>NAN</DistanceMeters>
          </Trackpoint>
          <Trackpoint>
            <Time>2019-10-08T10:53:57.000Z</Time>
            <Position>
              <LatitudeDegrees>39.843416623771190643310546875</LatitudeDegrees>
              <LongitudeDegrees>-6.3405109383165836334228515625</LongitudeDegrees>
            </Position>
            <AltitudeMeters>375.399993896484375</AltitudeMeters>
            <DistanceMeters>NAN</DistanceMeters>
          </Trackpoint>
          <Trackpoint>
            <Time>2019-10-08T10:53:58.000Z</Time>
            <Position>
              <LatitudeDegrees>39.8433936573565006256103515625</LatitudeDegrees>
              <LongitudeDegrees>-6.340558715164661407470703125</LongitudeDegrees>
            </Position>
            <AltitudeMeters>375.600006103515625</AltitudeMeters>
            <DistanceMeters>NAN</DistanceMeters>
          </Trackpoint>
          <Trackpoint>
            <Time>2019-10-08T10:54:04.000Z</Time>
            <Position>
              <LatitudeDegrees>39.84324890188872814178466796875</LatitudeDegrees>
              <LongitudeDegrees>-6.34083355776965618133544921875</LongitudeDegrees>
            </Position>
            <AltitudeMeters>376.600006103515625</AltitudeMeters>
            <DistanceMeters>NAN</DistanceMeters>
          </Trackpoint>
          <Trackpoint>
            <Time>2019-10-08T10:54:08.000Z</Time>
            <Position>
              <LatitudeDegrees>39.84315385110676288604736328125</LatitudeDegrees>
              <LongitudeDegrees>-6.34101376868784427642822265625</LongitudeDegrees>
            </Position>
            <AltitudeMeters>377.600006103515625</AltitudeMeters>
            <DistanceMeters>NAN</DistanceMeters>
          </Trackpoint>
          <Trackpoint>
            <Time>2019-10-08T10:54:15.000Z</Time>
            <Position>
              <LatitudeDegrees>39.84298889525234699249267578125</LatitudeDegrees>
              <LongitudeDegrees>-6.34133244864642620086669921875</LongitudeDegrees>
            </Position>
            <AltitudeMeters>378.600006103515625</AltitudeMeters>
            <DistanceMeters>NAN</DistanceMeters>
          </Trackpoint>
          <Trackpoint>
            <Time>2019-10-08T10:54:23.000Z</Time>
            <Position>
              <LatitudeDegrees>39.842806756496429443359375</LatitudeDegrees>
              <LongitudeDegrees>-6.3416921161115169525146484375</LongitudeDegrees>
            </Position>
            <AltitudeMeters>379.600006103515625</AltitudeMeters>
            <DistanceMeters>NAN</DistanceMeters>
          </Trackpoint>
          <Trackpoint>
            <Time>2019-10-08T10:54:26.000Z</Time>
            <Position>
              <LatitudeDegrees>39.84273157082498073577880859375</LatitudeDegrees>
              <LongitudeDegrees>-6.34182882495224475860595703125</LongitudeDegrees>
            </Position>
            <AltitudeMeters>380.20001220703125</AltitudeMeters>
            <DistanceMeters>NAN</DistanceMeters>
          </Trackpoint>
          <Trackpoint>
            <Time>2019-10-08T10:54:30.000Z</Time>
            <Position>
              <LatitudeDegrees>39.8426319099962711334228515625</LatitudeDegrees>
              <LongitudeDegrees>-6.3420183397829532623291015625</LongitudeDegrees>
            </Position>
            <AltitudeMeters>380.79998779296875</AltitudeMeters>
            <DistanceMeters>NAN</DistanceMeters>
          </Trackpoint>
          <Trackpoint>
            <Time>2019-10-08T10:54:35.000Z</Time>
            <Position>
              <LatitudeDegrees>39.8425050079822540283203125</LatitudeDegrees>
              <LongitudeDegrees>-6.34225445799529552459716796875</LongitudeDegrees>
            </Position>
            <AltitudeMeters>381.399993896484375</AltitudeMeters>
            <DistanceMeters>NAN</DistanceMeters>
          </Trackpoint>
          <Trackpoint>
            <Time>2019-10-08T10:54:38.000Z</Time>
            <Position>
              <LatitudeDegrees>39.84243325889110565185546875</LatitudeDegrees>
              <LongitudeDegrees>-6.34238898754119873046875</LongitudeDegrees>
            </Position>
            <AltitudeMeters>381.79998779296875</AltitudeMeters>
            <DistanceMeters>NAN</DistanceMeters>
          </Trackpoint>
          <Trackpoint>
            <Time>2019-10-08T10:54:45.000Z</Time>
            <Position>
              <LatitudeDegrees>39.84227157197892665863037109375</LatitudeDegrees>
              <LongitudeDegrees>-6.34269945323467254638671875</LongitudeDegrees>
            </Position>
            <AltitudeMeters>382.399993896484375</AltitudeMeters>
            <DistanceMeters>NAN</DistanceMeters>
          </Trackpoint>
          <Trackpoint>
            <Time>2019-10-08T10:54:46.000Z</Time>
            <Position>
              <LatitudeDegrees>39.842248857021331787109375</LatitudeDegrees>
              <LongitudeDegrees>-6.342744715511798858642578125</LongitudeDegrees>
            </Position>
            <AltitudeMeters>383</AltitudeMeters>
            <DistanceMeters>NAN</DistanceMeters>
          </Trackpoint>
          <Trackpoint>
            <Time>2019-10-08T10:54:55.000Z</Time>
            <Position>
              <LatitudeDegrees>39.84203889034688472747802734375</LatitudeDegrees>
              <LongitudeDegrees>-6.34313690476119518280029296875</LongitudeDegrees>
            </Position>
            <AltitudeMeters>384.20001220703125</AltitudeMeters>
            <DistanceMeters>NAN</DistanceMeters>
          </Trackpoint>
          <Trackpoint>
            <Time>2019-10-08T10:54:56.000Z</Time>
            <Position>
              <LatitudeDegrees>39.84201349318027496337890625</LatitudeDegrees>
              <LongitudeDegrees>-6.34318183176219463348388671875</LongitudeDegrees>
            </Position>
            <AltitudeMeters>384.399993896484375</AltitudeMeters>
            <DistanceMeters>NAN</DistanceMeters>
          </Trackpoint>
          <Trackpoint>
            <Time>2019-10-08T10:55:05.000Z</Time>
            <Position>
              <LatitudeDegrees>39.84179086983203887939453125</LatitudeDegrees>
              <LongitudeDegrees>-6.3436109013855457305908203125</LongitudeDegrees>
            </Position>
            <AltitudeMeters>384.79998779296875</AltitudeMeters>
            <DistanceMeters>NAN</DistanceMeters>
          </Trackpoint>
          <Trackpoint>
            <Time>2019-10-08T10:55:16.000Z</Time>
            <Position>
              <LatitudeDegrees>39.8414882831275463104248046875</LatitudeDegrees>
              <LongitudeDegrees>-6.344200484454631805419921875</LongitudeDegrees>
            </Position>
            <AltitudeMeters>384.600006103515625</AltitudeMeters>
            <DistanceMeters>NAN</DistanceMeters>
          </Trackpoint>
          <Trackpoint>
            <Time>2019-10-08T10:55:24.000Z</Time>
            <Position>
              <LatitudeDegrees>39.8412807472050189971923828125</LatitudeDegrees>
              <LongitudeDegrees>-6.3446948491036891937255859375</LongitudeDegrees>
            </Position>
            <AltitudeMeters>384.79998779296875</AltitudeMeters>
            <DistanceMeters>NAN</DistanceMeters>
          </Trackpoint>
          <Trackpoint>
            <Time>2019-10-08T10:55:27.000Z</Time>
            <Position>
              <LatitudeDegrees>39.84120078384876251220703125</LatitudeDegrees>
              <LongitudeDegrees>-6.34489391930401325225830078125</LongitudeDegrees>
            </Position>
            <AltitudeMeters>384</AltitudeMeters>
            <DistanceMeters>NAN</DistanceMeters>
          </Trackpoint>
          <Trackpoint>
            <Time>2019-10-08T10:55:32.000Z</Time>
            <Position>
              <LatitudeDegrees>39.84106541611254215240478515625</LatitudeDegrees>
              <LongitudeDegrees>-6.34524294175207614898681640625</LongitudeDegrees>
            </Position>
            <AltitudeMeters>383.399993896484375</AltitudeMeters>
            <DistanceMeters>NAN</DistanceMeters>
          </Trackpoint>
          <Trackpoint>
            <Time>2019-10-08T10:55:36.000Z</Time>
            <Position>
              <LatitudeDegrees>39.84095779247581958770751953125</LatitudeDegrees>
              <LongitudeDegrees>-6.3455410860478878021240234375</LongitudeDegrees>
            </Position>
            <AltitudeMeters>383.20001220703125</AltitudeMeters>
            <DistanceMeters>NAN</DistanceMeters>
          </Trackpoint>
          <Trackpoint>
            <Time>2019-10-08T10:55:41.000Z</Time>
            <Position>
              <LatitudeDegrees>39.840809516608715057373046875</LatitudeDegrees>
              <LongitudeDegrees>-6.34592824615538120269775390625</LongitudeDegrees>
            </Position>
            <AltitudeMeters>382</AltitudeMeters>
            <DistanceMeters>NAN</DistanceMeters>
          </Trackpoint>
          <Trackpoint>
            <Time>2019-10-08T10:55:45.000Z</Time>
            <Position>
              <LatitudeDegrees>39.84068554826080799102783203125</LatitudeDegrees>
              <LongitudeDegrees>-6.346244327723979949951171875</LongitudeDegrees>
            </Position>
            <AltitudeMeters>382.399993896484375</AltitudeMeters>
            <DistanceMeters>NAN</DistanceMeters>
          </Trackpoint>
          <Trackpoint>
            <Time>2019-10-08T10:55:51.000Z</Time>
            <Position>
              <LatitudeDegrees>39.8405008949339389801025390625</LatitudeDegrees>
              <LongitudeDegrees>-6.3467370159924030303955078125</LongitudeDegrees>
            </Position>
            <AltitudeMeters>381.600006103515625</AltitudeMeters>
            <DistanceMeters>NAN</DistanceMeters>
          </Trackpoint>
          <Trackpoint>
            <Time>2019-10-08T10:55:55.000Z</Time>
            <Position>
              <LatitudeDegrees>39.8403714783489704132080078125</LatitudeDegrees>
              <LongitudeDegrees>-6.347073130309581756591796875</LongitudeDegrees>
            </Position>
            <AltitudeMeters>380.79998779296875</AltitudeMeters>
            <DistanceMeters>NAN</DistanceMeters>
          </Trackpoint>
          <Trackpoint>
            <Time>2019-10-08T10:55:57.000Z</Time>
            <Position>
              <LatitudeDegrees>39.8403060995042324066162109375</LatitudeDegrees>
              <LongitudeDegrees>-6.347240768373012542724609375</LongitudeDegrees>
            </Position>
            <AltitudeMeters>380.20001220703125</AltitudeMeters>
            <DistanceMeters>NAN</DistanceMeters>
          </Trackpoint>
          <Trackpoint>
            <Time>2019-10-08T10:56:00.000Z</Time>
            <Position>
              <LatitudeDegrees>39.8402118869125843048095703125</LatitudeDegrees>
              <LongitudeDegrees>-6.347493231296539306640625</LongitudeDegrees>
            </Position>
            <AltitudeMeters>380.399993896484375</AltitudeMeters>
            <DistanceMeters>NAN</DistanceMeters>
          </Trackpoint>
          <Trackpoint>
            <Time>2019-10-08T10:56:03.000Z</Time>
            <Position>
              <LatitudeDegrees>39.84011390246450901031494140625</LatitudeDegrees>
              <LongitudeDegrees>-6.34774644859135150909423828125</LongitudeDegrees>
            </Position>
            <AltitudeMeters>379.79998779296875</AltitudeMeters>
            <DistanceMeters>NAN</DistanceMeters>
          </Trackpoint>
          <Trackpoint>
            <Time>2019-10-08T10:56:04.000Z</Time>
            <Position>
              <LatitudeDegrees>39.8400821350514888763427734375</LatitudeDegrees>
              <LongitudeDegrees>-6.3478338718414306640625</LongitudeDegrees>
            </Position>
            <AltitudeMeters>379.399993896484375</AltitudeMeters>
            <DistanceMeters>NAN</DistanceMeters>
          </Trackpoint>
          <Trackpoint>
            <Time>2019-10-08T10:56:06.000Z</Time>
            <Position>
              <LatitudeDegrees>39.8400170914828777313232421875</LatitudeDegrees>
              <LongitudeDegrees>-6.348002851009368896484375</LongitudeDegrees>
            </Position>
            <AltitudeMeters>379.20001220703125</AltitudeMeters>
            <DistanceMeters>NAN</DistanceMeters>
          </Trackpoint>
          <Trackpoint>
            <Time>2019-10-08T10:56:13.000Z</Time>
            <Position>
              <LatitudeDegrees>39.8397854156792163848876953125</LatitudeDegrees>
              <LongitudeDegrees>-6.34859201498329639434814453125</LongitudeDegrees>
            </Position>
            <AltitudeMeters>379</AltitudeMeters>
            <DistanceMeters>NAN</DistanceMeters>
          </Trackpoint>
          <Trackpoint>
            <Time>2019-10-08T10:56:15.000Z</Time>
            <Position>
              <LatitudeDegrees>39.83972020447254180908203125</LatitudeDegrees>
              <LongitudeDegrees>-6.348759569227695465087890625</LongitudeDegrees>
            </Position>
            <AltitudeMeters>378.600006103515625</AltitudeMeters>
            <DistanceMeters>NAN</DistanceMeters>
          </Trackpoint>
          <Trackpoint>
            <Time>2019-10-08T10:56:16.000Z</Time>
            <Position>
              <LatitudeDegrees>39.83968793414533138275146484375</LatitudeDegrees>
              <LongitudeDegrees>-6.34884498082101345062255859375</LongitudeDegrees>
            </Position>
            <AltitudeMeters>378.399993896484375</AltitudeMeters>
            <DistanceMeters>NAN</DistanceMeters>
          </Trackpoint>
          <Trackpoint>
            <Time>2019-10-08T10:56:17.000Z</Time>
            <Position>
              <LatitudeDegrees>39.83965407125651836395263671875</LatitudeDegrees>
              <LongitudeDegrees>-6.3489324040710926055908203125</LongitudeDegrees>
            </Position>
            <AltitudeMeters>378.399993896484375</AltitudeMeters>
            <DistanceMeters>NAN</DistanceMeters>
          </Trackpoint>
          <Trackpoint>
            <Time>2019-10-08T10:56:20.000Z</Time>
            <Position>
              <LatitudeDegrees>39.83953974209725856781005859375</LatitudeDegrees>
              <LongitudeDegrees>-6.34919903241097927093505859375</LongitudeDegrees>
            </Position>
            <AltitudeMeters>377.399993896484375</AltitudeMeters>
            <DistanceMeters>NAN</DistanceMeters>
          </Trackpoint>
          <Trackpoint>
            <Time>2019-10-08T10:56:23.000Z</Time>
            <Position>
              <LatitudeDegrees>39.839391969144344329833984375</LatitudeDegrees>
              <LongitudeDegrees>-6.34945685975253582000732421875</LongitudeDegrees>
            </Position>
            <AltitudeMeters>376.399993896484375</AltitudeMeters>
            <DistanceMeters>NAN</DistanceMeters>
          </Trackpoint>
          <Trackpoint>
            <Time>2019-10-08T10:56:24.000Z</Time>
            <Position>
              <LatitudeDegrees>39.83933472074568271636962890625</LatitudeDegrees>
              <LongitudeDegrees>-6.3495422713458538055419921875</LongitudeDegrees>
            </Position>
            <AltitudeMeters>376.20001220703125</AltitudeMeters>
            <DistanceMeters>NAN</DistanceMeters>
          </Trackpoint>
          <Trackpoint>
            <Time>2019-10-08T10:56:26.000Z</Time>
            <Position>
              <LatitudeDegrees>39.83920413069427013397216796875</LatitudeDegrees>
              <LongitudeDegrees>-6.34970001876354217529296875</LongitudeDegrees>
            </Position>
            <AltitudeMeters>375</AltitudeMeters>
            <DistanceMeters>NAN</DistanceMeters>
          </Trackpoint>
          <Trackpoint>
            <Time>2019-10-08T10:56:28.000Z</Time>
            <Position>
              <LatitudeDegrees>39.83905342407524585723876953125</LatitudeDegrees>
              <LongitudeDegrees>-6.3498503901064395904541015625</LongitudeDegrees>
            </Position>
            <AltitudeMeters>374</AltitudeMeters>
            <DistanceMeters>NAN</DistanceMeters>
          </Trackpoint>
          <Trackpoint>
            <Time>2019-10-08T10:56:29.000Z</Time>
            <Position>
              <LatitudeDegrees>39.83897429890930652618408203125</LatitudeDegrees>
              <LongitudeDegrees>-6.349923312664031982421875</LongitudeDegrees>
            </Position>
            <AltitudeMeters>372.79998779296875</AltitudeMeters>
            <DistanceMeters>NAN</DistanceMeters>
          </Trackpoint>
          <Trackpoint>
            <Time>2019-10-08T10:56:31.000Z</Time>
            <Position>
              <LatitudeDegrees>39.838816635310649871826171875</LatitudeDegrees>
              <LongitudeDegrees>-6.3500820659101009368896484375</LongitudeDegrees>
            </Position>
            <AltitudeMeters>371.600006103515625</AltitudeMeters>
            <DistanceMeters>NAN</DistanceMeters>
          </Trackpoint>
          <Trackpoint>
            <Time>2019-10-08T10:56:34.000Z</Time>
            <Position>
              <LatitudeDegrees>39.83857096172869205474853515625</LatitudeDegrees>
              <LongitudeDegrees>-6.350322626531124114990234375</LongitudeDegrees>
            </Position>
            <AltitudeMeters>370.79998779296875</AltitudeMeters>
            <DistanceMeters>NAN</DistanceMeters>
          </Trackpoint>
          <Trackpoint>
            <Time>2019-10-08T10:56:35.000Z</Time>
            <Position>
              <LatitudeDegrees>39.83848697505891323089599609375</LatitudeDegrees>
              <LongitudeDegrees>-6.350406110286712646484375</LongitudeDegrees>
            </Position>
            <AltitudeMeters>369.600006103515625</AltitudeMeters>
            <DistanceMeters>NAN</DistanceMeters>
          </Trackpoint>
          <Trackpoint>
            <Time>2019-10-08T10:56:36.000Z</Time>
            <Position>
              <LatitudeDegrees>39.83840466476976871490478515625</LatitudeDegrees>
              <LongitudeDegrees>-6.3504932820796966552734375</LongitudeDegrees>
            </Position>
            <AltitudeMeters>368.399993896484375</AltitudeMeters>
            <DistanceMeters>NAN</DistanceMeters>
          </Trackpoint>
          <Trackpoint>
            <Time>2019-10-08T10:56:38.000Z</Time>
            <Position>
              <LatitudeDegrees>39.838231913745403289794921875</LatitudeDegrees>
              <LongitudeDegrees>-6.3506634347140789031982421875</LongitudeDegrees>
            </Position>
            <AltitudeMeters>368.399993896484375</AltitudeMeters>
            <DistanceMeters>NAN</DistanceMeters>
          </Trackpoint>
          <Trackpoint>
            <Time>2019-10-08T10:56:40.000Z</Time>
            <Position>
              <LatitudeDegrees>39.8380597494542598724365234375</LatitudeDegrees>
              <LongitudeDegrees>-6.3508374430239200592041015625</LongitudeDegrees>
            </Position>
            <AltitudeMeters>367.20001220703125</AltitudeMeters>
            <DistanceMeters>NAN</DistanceMeters>
          </Trackpoint>
          <Trackpoint>
            <Time>2019-10-08T10:56:41.000Z</Time>
            <Position>
              <LatitudeDegrees>39.8379742540419101715087890625</LatitudeDegrees>
              <LongitudeDegrees>-6.3509296439588069915771484375</LongitudeDegrees>
            </Position>
            <AltitudeMeters>366.399993896484375</AltitudeMeters>
            <DistanceMeters>NAN</DistanceMeters>
          </Trackpoint>
          <Trackpoint>
            <Time>2019-10-08T10:56:42.000Z</Time>
            <Position>
              <LatitudeDegrees>39.8378917761147022247314453125</LatitudeDegrees>
              <LongitudeDegrees>-6.3510292209684848785400390625</LongitudeDegrees>
            </Position>
            <AltitudeMeters>365.79998779296875</AltitudeMeters>
            <DistanceMeters>NAN</DistanceMeters>
          </Trackpoint>
          <Trackpoint>
            <Time>2019-10-08T10:56:44.000Z</Time>
            <Position>
              <LatitudeDegrees>39.8377466015517711639404296875</LatitudeDegrees>
              <LongitudeDegrees>-6.35124958120286464691162109375</LongitudeDegrees>
            </Position>
            <AltitudeMeters>364.399993896484375</AltitudeMeters>
            <DistanceMeters>NAN</DistanceMeters>
          </Trackpoint>
          <Trackpoint>
            <Time>2019-10-08T10:56:45.000Z</Time>
            <Position>
              <LatitudeDegrees>39.837682731449604034423828125</LatitudeDegrees>
              <LongitudeDegrees>-6.35137195698916912078857421875</LongitudeDegrees>
            </Position>
            <AltitudeMeters>364.20001220703125</AltitudeMeters>
            <DistanceMeters>NAN</DistanceMeters>
          </Trackpoint>
          <Trackpoint>
            <Time>2019-10-08T10:56:46.000Z</Time>
            <Position>
              <LatitudeDegrees>39.8376242257654666900634765625</LatitudeDegrees>
              <LongitudeDegrees>-6.35149382986128330230712890625</LongitudeDegrees>
            </Position>
            <AltitudeMeters>363.20001220703125</AltitudeMeters>
            <DistanceMeters>NAN</DistanceMeters>
          </Trackpoint>
          <Trackpoint>
            <Time>2019-10-08T10:56:48.000Z</Time>
            <Position>
              <LatitudeDegrees>39.8375370539724826812744140625</LatitudeDegrees>
              <LongitudeDegrees>-6.3517430238425731658935546875</LongitudeDegrees>
            </Position>
            <AltitudeMeters>363</AltitudeMeters>
            <DistanceMeters>NAN</DistanceMeters>
          </Trackpoint>
          <Trackpoint>
            <Time>2019-10-08T10:56:49.000Z</Time>
            <Position>
              <LatitudeDegrees>39.83750595711171627044677734375</LatitudeDegrees>
              <LongitudeDegrees>-6.35186615400016307830810546875</LongitudeDegrees>
            </Position>
            <AltitudeMeters>364.399993896484375</AltitudeMeters>
            <DistanceMeters>NAN</DistanceMeters>
          </Trackpoint>
          <Trackpoint>
            <Time>2019-10-08T10:56:52.000Z</Time>
            <Position>
              <LatitudeDegrees>39.83743890188634395599365234375</LatitudeDegrees>
              <LongitudeDegrees>-6.352190114557743072509765625</LongitudeDegrees>
            </Position>
            <AltitudeMeters>366</AltitudeMeters>
            <DistanceMeters>NAN</DistanceMeters>
          </Trackpoint>
          <Trackpoint>
            <Time>2019-10-08T10:56:53.000Z</Time>
            <Position>
              <LatitudeDegrees>39.8374227248132228851318359375</LatitudeDegrees>
              <LongitudeDegrees>-6.35228541679680347442626953125</LongitudeDegrees>
            </Position>
            <AltitudeMeters>366.79998779296875</AltitudeMeters>
            <DistanceMeters>NAN</DistanceMeters>
          </Trackpoint>
          <Trackpoint>
            <Time>2019-10-08T10:56:54.000Z</Time>
            <Position>
              <LatitudeDegrees>39.83740679919719696044921875</LatitudeDegrees>
              <LongitudeDegrees>-6.3523766957223415374755859375</LongitudeDegrees>
            </Position>
            <AltitudeMeters>368.20001220703125</AltitudeMeters>
            <DistanceMeters>NAN</DistanceMeters>
          </Trackpoint>
          <Trackpoint>
            <Time>2019-10-08T10:56:57.000Z</Time>
            <Position>
              <LatitudeDegrees>39.8373658955097198486328125</LatitudeDegrees>
              <LongitudeDegrees>-6.3526113890111446380615234375</LongitudeDegrees>
            </Position>
            <AltitudeMeters>369.600006103515625</AltitudeMeters>
            <DistanceMeters>NAN</DistanceMeters>
          </Trackpoint>
          <Trackpoint>
            <Time>2019-10-08T10:56:58.000Z</Time>
            <Position>
              <LatitudeDegrees>39.83735240064561367034912109375</LatitudeDegrees>
              <LongitudeDegrees>-6.35267567820847034454345703125</LongitudeDegrees>
            </Position>
            <AltitudeMeters>370.399993896484375</AltitudeMeters>
            <DistanceMeters>NAN</DistanceMeters>
          </Trackpoint>
          <Trackpoint>
            <Time>2019-10-08T10:57:00.000Z</Time>
            <Position>
              <LatitudeDegrees>39.8373281769454479217529296875</LatitudeDegrees>
              <LongitudeDegrees>-6.352806352078914642333984375</LongitudeDegrees>
            </Position>
            <AltitudeMeters>370.600006103515625</AltitudeMeters>
            <DistanceMeters>NAN</DistanceMeters>
          </Trackpoint>
          <Trackpoint>
            <Time>2019-10-08T10:57:02.000Z</Time>
            <Position>
              <LatitudeDegrees>39.83730445615947246551513671875</LatitudeDegrees>
              <LongitudeDegrees>-6.35292939841747283935546875</LongitudeDegrees>
            </Position>
            <AltitudeMeters>371.20001220703125</AltitudeMeters>
            <DistanceMeters>NAN</DistanceMeters>
          </Trackpoint>
          <Trackpoint>
            <Time>2019-10-08T10:57:04.000Z</Time>
            <Position>
              <LatitudeDegrees>39.83727939426898956298828125</LatitudeDegrees>
              <LongitudeDegrees>-6.35303693823516368865966796875</LongitudeDegrees>
            </Position>
            <AltitudeMeters>372.20001220703125</AltitudeMeters>
            <DistanceMeters>NAN</DistanceMeters>
          </Trackpoint>
          <Trackpoint>
            <Time>2019-10-08T10:57:05.000Z</Time>
            <Position>
              <LatitudeDegrees>39.83726757578551769256591796875</LatitudeDegrees>
              <LongitudeDegrees>-6.3530911691486835479736328125</LongitudeDegrees>
            </Position>
            <AltitudeMeters>372.600006103515625</AltitudeMeters>
            <DistanceMeters>NAN</DistanceMeters>
          </Trackpoint>
          <Trackpoint>
            <Time>2019-10-08T10:57:08.000Z</Time>
            <Position>
              <LatitudeDegrees>39.83722868375480175018310546875</LatitudeDegrees>
              <LongitudeDegrees>-6.3532474078238010406494140625</LongitudeDegrees>
            </Position>
            <AltitudeMeters>372.79998779296875</AltitudeMeters>
            <DistanceMeters>NAN</DistanceMeters>
          </Trackpoint>
          <Trackpoint>
            <Time>2019-10-08T10:57:10.000Z</Time>
            <Position>
              <LatitudeDegrees>39.837197251617908477783203125</LatitudeDegrees>
              <LongitudeDegrees>-6.3533523492515087127685546875</LongitudeDegrees>
            </Position>
            <AltitudeMeters>373.399993896484375</AltitudeMeters>
            <DistanceMeters>NAN</DistanceMeters>
          </Trackpoint>
          <Trackpoint>
            <Time>2019-10-08T10:57:13.000Z</Time>
            <Position>
              <LatitudeDegrees>39.83714972622692584991455078125</LatitudeDegrees>
              <LongitudeDegrees>-6.35349978692829608917236328125</LongitudeDegrees>
            </Position>
            <AltitudeMeters>374</AltitudeMeters>
            <DistanceMeters>NAN</DistanceMeters>
          </Trackpoint>
          <Trackpoint>
            <Time>2019-10-08T10:57:14.000Z</Time>
            <Position>
              <LatitudeDegrees>39.83713178895413875579833984375</LatitudeDegrees>
              <LongitudeDegrees>-6.35354773141443729400634765625</LongitudeDegrees>
            </Position>
            <AltitudeMeters>373.79998779296875</AltitudeMeters>
            <DistanceMeters>NAN</DistanceMeters>
          </Trackpoint>
          <Trackpoint>
            <Time>2019-10-08T10:57:16.000Z</Time>
            <Position>
              <LatitudeDegrees>39.8370958305895328521728515625</LatitudeDegrees>
              <LongitudeDegrees>-6.35364412330090999603271484375</LongitudeDegrees>
            </Position>
            <AltitudeMeters>374.600006103515625</AltitudeMeters>
            <DistanceMeters>NAN</DistanceMeters>
          </Trackpoint>
          <Trackpoint>
            <Time>2019-10-08T10:57:20.000Z</Time>
            <Position>
              <LatitudeDegrees>39.83700740151107311248779296875</LatitudeDegrees>
              <LongitudeDegrees>-6.35383606888353824615478515625</LongitudeDegrees>
            </Position>
            <AltitudeMeters>375.399993896484375</AltitudeMeters>
            <DistanceMeters>NAN</DistanceMeters>
          </Trackpoint>
          <Trackpoint>
            <Time>2019-10-08T10:57:21.000Z</Time>
            <Position>
              <LatitudeDegrees>39.8369845189154148101806640625</LatitudeDegrees>
              <LongitudeDegrees>-6.35389071889221668243408203125</LongitudeDegrees>
            </Position>
            <AltitudeMeters>375.20001220703125</AltitudeMeters>
            <DistanceMeters>NAN</DistanceMeters>
          </Trackpoint>
          <Trackpoint>
            <Time>2019-10-08T10:57:24.000Z</Time>
            <Position>
              <LatitudeDegrees>39.83691838569939136505126953125</LatitudeDegrees>
              <LongitudeDegrees>-6.35403555817902088165283203125</LongitudeDegrees>
            </Position>
            <AltitudeMeters>375.399993896484375</AltitudeMeters>
            <DistanceMeters>NAN</DistanceMeters>
          </Trackpoint>
          <Trackpoint>
            <Time>2019-10-08T10:57:25.000Z</Time>
            <Position>
              <LatitudeDegrees>39.83689541928470134735107421875</LatitudeDegrees>
              <LongitudeDegrees>-6.3540820777416229248046875</LongitudeDegrees>
            </Position>
            <AltitudeMeters>375.79998779296875</AltitudeMeters>
            <DistanceMeters>NAN</DistanceMeters>
          </Trackpoint>
          <Trackpoint>
            <Time>2019-10-08T10:57:28.000Z</Time>
            <Position>
              <LatitudeDegrees>39.83682652004063129425048828125</LatitudeDegrees>
              <LongitudeDegrees>-6.35421643964946269989013671875</LongitudeDegrees>
            </Position>
            <AltitudeMeters>376.20001220703125</AltitudeMeters>
            <DistanceMeters>NAN</DistanceMeters>
          </Trackpoint>
          <Trackpoint>
            <Time>2019-10-08T10:57:35.000Z</Time>
            <Position>
              <LatitudeDegrees>39.8366539366543292999267578125</LatitudeDegrees>
              <LongitudeDegrees>-6.35452958755195140838623046875</LongitudeDegrees>
            </Position>
            <AltitudeMeters>376.399993896484375</AltitudeMeters>
            <DistanceMeters>NAN</DistanceMeters>
          </Trackpoint>
          <Trackpoint>
            <Time>2019-10-08T10:57:37.000Z</Time>
            <Position>
              <LatitudeDegrees>39.8366069979965686798095703125</LatitudeDegrees>
              <LongitudeDegrees>-6.35462346486747264862060546875</LongitudeDegrees>
            </Position>
            <AltitudeMeters>376.399993896484375</AltitudeMeters>
            <DistanceMeters>NAN</DistanceMeters>
          </Trackpoint>
          <Trackpoint>
            <Time>2019-10-08T10:57:44.000Z</Time>
            <Position>
              <LatitudeDegrees>39.8364343307912349700927734375</LatitudeDegrees>
              <LongitudeDegrees>-6.35495052672922611236572265625</LongitudeDegrees>
            </Position>
            <AltitudeMeters>376.79998779296875</AltitudeMeters>
            <DistanceMeters>NAN</DistanceMeters>
          </Trackpoint>
          <Trackpoint>
            <Time>2019-10-08T10:57:48.000Z</Time>
            <Position>
              <LatitudeDegrees>39.8363307304680347442626953125</LatitudeDegrees>
              <LongitudeDegrees>-6.35514347814023494720458984375</LongitudeDegrees>
            </Position>
            <AltitudeMeters>376.600006103515625</AltitudeMeters>
            <DistanceMeters>NAN</DistanceMeters>
          </Trackpoint>
          <Trackpoint>
            <Time>2019-10-08T10:57:56.000Z</Time>
            <Position>
              <LatitudeDegrees>39.83610936440527439117431640625</LatitudeDegrees>
              <LongitudeDegrees>-6.35554715059697628021240234375</LongitudeDegrees>
            </Position>
            <AltitudeMeters>376.600006103515625</AltitudeMeters>
            <DistanceMeters>NAN</DistanceMeters>
          </Trackpoint>
          <Trackpoint>
            <Time>2019-10-08T10:58:04.000Z</Time>
            <Position>
              <LatitudeDegrees>39.8358626849949359893798828125</LatitudeDegrees>
              <LongitudeDegrees>-6.35599382221698760986328125</LongitudeDegrees>
            </Position>
            <AltitudeMeters>375.600006103515625</AltitudeMeters>
            <DistanceMeters>NAN</DistanceMeters>
          </Trackpoint>
          <Trackpoint>
            <Time>2019-10-08T10:58:05.000Z</Time>
            <Position>
              <LatitudeDegrees>39.83583108521997928619384765625</LatitudeDegrees>
              <LongitudeDegrees>-6.35605643503367900848388671875</LongitudeDegrees>
            </Position>
            <AltitudeMeters>375.79998779296875</AltitudeMeters>
            <DistanceMeters>NAN</DistanceMeters>
          </Trackpoint>
          <Trackpoint>
            <Time>2019-10-08T10:58:08.000Z</Time>
            <Position>
              <LatitudeDegrees>39.8357292450964450836181640625</LatitudeDegrees>
              <LongitudeDegrees>-6.3562447763979434967041015625</LongitudeDegrees>
            </Position>
            <AltitudeMeters>374.79998779296875</AltitudeMeters>
            <DistanceMeters>NAN</DistanceMeters>
          </Trackpoint>
          <Trackpoint>
            <Time>2019-10-08T10:58:10.000Z</Time>
            <Position>
              <LatitudeDegrees>39.83566093258559703826904296875</LatitudeDegrees>
              <LongitudeDegrees>-6.35637880302965641021728515625</LongitudeDegrees>
            </Position>
            <AltitudeMeters>374.600006103515625</AltitudeMeters>
            <DistanceMeters>NAN</DistanceMeters>
          </Trackpoint>
          <Trackpoint>
            <Time>2019-10-08T10:58:11.000Z</Time>
            <Position>
              <LatitudeDegrees>39.83562623150646686553955078125</LatitudeDegrees>
              <LongitudeDegrees>-6.3564496301114559173583984375</LongitudeDegrees>
            </Position>
            <AltitudeMeters>374.600006103515625</AltitudeMeters>
            <DistanceMeters>NAN</DistanceMeters>
          </Trackpoint>
          <Trackpoint>
            <Time>2019-10-08T10:58:13.000Z</Time>
            <Position>
              <LatitudeDegrees>39.83555875718593597412109375</LatitudeDegrees>
              <LongitudeDegrees>-6.35660109110176563262939453125</LongitudeDegrees>
            </Position>
            <AltitudeMeters>374.399993896484375</AltitudeMeters>
            <DistanceMeters>NAN</DistanceMeters>
          </Trackpoint>
          <Trackpoint>
            <Time>2019-10-08T10:58:16.000Z</Time>
            <Position>
              <LatitudeDegrees>39.835458509624004364013671875</LatitudeDegrees>
              <LongitudeDegrees>-6.356846429407596588134765625</LongitudeDegrees>
            </Position>
            <AltitudeMeters>373.399993896484375</AltitudeMeters>
            <DistanceMeters>NAN</DistanceMeters>
          </Trackpoint>
          <Trackpoint>
            <Time>2019-10-08T10:58:18.000Z</Time>
            <Position>
              <LatitudeDegrees>39.83539774082601070404052734375</LatitudeDegrees>
              <LongitudeDegrees>-6.3570289872586727142333984375</LongitudeDegrees>
            </Position>
            <AltitudeMeters>373</AltitudeMeters>
            <DistanceMeters>NAN</DistanceMeters>
          </Trackpoint>
          <Trackpoint>
            <Time>2019-10-08T10:58:19.000Z</Time>
            <Position>
              <LatitudeDegrees>39.83537234365940093994140625</LatitudeDegrees>
              <LongitudeDegrees>-6.35712529532611370086669921875</LongitudeDegrees>
            </Position>
            <AltitudeMeters>372</AltitudeMeters>
            <DistanceMeters>NAN</DistanceMeters>
          </Trackpoint>
          <Trackpoint>
            <Time>2019-10-08T10:58:20.000Z</Time>
            <Position>
              <LatitudeDegrees>39.8353470303118228912353515625</LatitudeDegrees>
              <LongitudeDegrees>-6.3572261296212673187255859375</LongitudeDegrees>
            </Position>
            <AltitudeMeters>371.20001220703125</AltitudeMeters>
            <DistanceMeters>NAN</DistanceMeters>
          </Trackpoint>
          <Trackpoint>
            <Time>2019-10-08T10:58:21.000Z</Time>
            <Position>
              <LatitudeDegrees>39.83532280661165714263916015625</LatitudeDegrees>
              <LongitudeDegrees>-6.35732646100223064422607421875</LongitudeDegrees>
            </Position>
            <AltitudeMeters>370.600006103515625</AltitudeMeters>
            <DistanceMeters>NAN</DistanceMeters>
          </Trackpoint>
          <Trackpoint>
            <Time>2019-10-08T10:58:23.000Z</Time>
            <Position>
              <LatitudeDegrees>39.83528542332351207733154296875</LatitudeDegrees>
              <LongitudeDegrees>-6.35753634385764598846435546875</LongitudeDegrees>
            </Position>
            <AltitudeMeters>369.79998779296875</AltitudeMeters>
            <DistanceMeters>NAN</DistanceMeters>
          </Trackpoint>
          <Trackpoint>
            <Time>2019-10-08T10:58:24.000Z</Time>
            <Position>
              <LatitudeDegrees>39.83526949770748615264892578125</LatitudeDegrees>
              <LongitudeDegrees>-6.3576467335224151611328125</LongitudeDegrees>
            </Position>
            <AltitudeMeters>369.20001220703125</AltitudeMeters>
            <DistanceMeters>NAN</DistanceMeters>
          </Trackpoint>
          <Trackpoint>
            <Time>2019-10-08T10:58:25.000Z</Time>
            <Position>
              <LatitudeDegrees>39.83525432646274566650390625</LatitudeDegrees>
              <LongitudeDegrees>-6.35775879956781864166259765625</LongitudeDegrees>
            </Position>
            <AltitudeMeters>368</AltitudeMeters>
            <DistanceMeters>NAN</DistanceMeters>
          </Trackpoint>
          <Trackpoint>
            <Time>2019-10-08T10:58:26.000Z</Time>
            <Position>
              <LatitudeDegrees>39.835248291492462158203125</LatitudeDegrees>
              <LongitudeDegrees>-6.357873380184173583984375</LongitudeDegrees>
            </Position>
            <AltitudeMeters>367.399993896484375</AltitudeMeters>
            <DistanceMeters>NAN</DistanceMeters>
          </Trackpoint>
          <Trackpoint>
            <Time>2019-10-08T10:58:30.000Z</Time>
            <Position>
              <LatitudeDegrees>39.83523295260965824127197265625</LatitudeDegrees>
              <LongitudeDegrees>-6.35831929743289947509765625</LongitudeDegrees>
            </Position>
            <AltitudeMeters>366.79998779296875</AltitudeMeters>
            <DistanceMeters>NAN</DistanceMeters>
          </Trackpoint>
          <Trackpoint>
            <Time>2019-10-08T10:58:31.000Z</Time>
            <Position>
              <LatitudeDegrees>39.83524301089346408843994140625</LatitudeDegrees>
              <LongitudeDegrees>-6.35843823663890361785888671875</LongitudeDegrees>
            </Position>
            <AltitudeMeters>366.600006103515625</AltitudeMeters>
            <DistanceMeters>NAN</DistanceMeters>
          </Trackpoint>
          <Trackpoint>
            <Time>2019-10-08T10:58:32.000Z</Time>
            <Position>
              <LatitudeDegrees>39.83525323681533336639404296875</LatitudeDegrees>
              <LongitudeDegrees>-6.3585441000759601593017578125</LongitudeDegrees>
            </Position>
            <AltitudeMeters>366.600006103515625</AltitudeMeters>
            <DistanceMeters>NAN</DistanceMeters>
          </Trackpoint>
          <Trackpoint>
            <Time>2019-10-08T10:58:33.000Z</Time>
            <Position>
              <LatitudeDegrees>39.83526597730815410614013671875</LatitudeDegrees>
              <LongitudeDegrees>-6.35865281336009502410888671875</LongitudeDegrees>
            </Position>
            <AltitudeMeters>367.20001220703125</AltitudeMeters>
            <DistanceMeters>NAN</DistanceMeters>
          </Trackpoint>
          <Trackpoint>
            <Time>2019-10-08T10:58:35.000Z</Time>
            <Position>
              <LatitudeDegrees>39.83528827317059040069580078125</LatitudeDegrees>
              <LongitudeDegrees>-6.3588435016572475433349609375</LongitudeDegrees>
            </Position>
            <AltitudeMeters>367.79998779296875</AltitudeMeters>
            <DistanceMeters>NAN</DistanceMeters>
          </Trackpoint>
          <Trackpoint>
            <Time>2019-10-08T10:58:37.000Z</Time>
            <Position>
              <LatitudeDegrees>39.8353111557662487030029296875</LatitudeDegrees>
              <LongitudeDegrees>-6.35901055298745632171630859375</LongitudeDegrees>
            </Position>
            <AltitudeMeters>367.79998779296875</AltitudeMeters>
            <DistanceMeters>NAN</DistanceMeters>
          </Trackpoint>
          <Trackpoint>
            <Time>2019-10-08T10:58:39.000Z</Time>
            <Position>
              <LatitudeDegrees>39.8353363014757633209228515625</LatitudeDegrees>
              <LongitudeDegrees>-6.35915857739746570587158203125</LongitudeDegrees>
            </Position>
            <AltitudeMeters>369</AltitudeMeters>
            <DistanceMeters>NAN</DistanceMeters>
          </Trackpoint>
          <Trackpoint>
            <Time>2019-10-08T10:58:40.000Z</Time>
            <Position>
              <LatitudeDegrees>39.83535130508244037628173828125</LatitudeDegrees>
              <LongitudeDegrees>-6.3592265546321868896484375</LongitudeDegrees>
            </Position>
            <AltitudeMeters>369.600006103515625</AltitudeMeters>
            <DistanceMeters>NAN</DistanceMeters>
          </Trackpoint>
          <Trackpoint>
            <Time>2019-10-08T10:58:41.000Z</Time>
            <Position>
              <LatitudeDegrees>39.835367985069751739501953125</LatitudeDegrees>
              <LongitudeDegrees>-6.35929151438176631927490234375</LongitudeDegrees>
            </Position>
            <AltitudeMeters>370.20001220703125</AltitudeMeters>
            <DistanceMeters>NAN</DistanceMeters>
          </Trackpoint>
          <Trackpoint>
            <Time>2019-10-08T10:58:43.000Z</Time>
            <Position>
              <LatitudeDegrees>39.8354154266417026519775390625</LatitudeDegrees>
              <LongitudeDegrees>-6.3594114594161510467529296875</LongitudeDegrees>
            </Position>
            <AltitudeMeters>370.79998779296875</AltitudeMeters>
            <DistanceMeters>NAN</DistanceMeters>
          </Trackpoint>
          <Trackpoint>
            <Time>2019-10-08T10:58:46.000Z</Time>
            <Position>
              <LatitudeDegrees>39.8355607688426971435546875</LatitudeDegrees>
              <LongitudeDegrees>-6.3595321588218212127685546875</LongitudeDegrees>
            </Position>
            <AltitudeMeters>370.79998779296875</AltitudeMeters>
            <DistanceMeters>NAN</DistanceMeters>
          </Trackpoint>
          <Trackpoint>
            <Time>2019-10-08T10:58:47.000Z</Time>
            <Position>
              <LatitudeDegrees>39.83560728840529918670654296875</LatitudeDegrees>
              <LongitudeDegrees>-6.35957800783216953277587890625</LongitudeDegrees>
            </Position>
            <AltitudeMeters>370.600006103515625</AltitudeMeters>
            <DistanceMeters>NAN</DistanceMeters>
          </Trackpoint>
          <Trackpoint>
            <Time>2019-10-08T10:58:49.000Z</Time>
            <Position>
              <LatitudeDegrees>39.8356638662517070770263671875</LatitudeDegrees>
              <LongitudeDegrees>-6.35971379466354846954345703125</LongitudeDegrees>
            </Position>
            <AltitudeMeters>370.20001220703125</AltitudeMeters>
            <DistanceMeters>NAN</DistanceMeters>
          </Trackpoint>
          <Trackpoint>
            <Time>2019-10-08T10:58:52.000Z</Time>
            <Position>
              <LatitudeDegrees>39.83565422706305980682373046875</LatitudeDegrees>
              <LongitudeDegrees>-6.3599462248384952545166015625</LongitudeDegrees>
            </Position>
            <AltitudeMeters>369.79998779296875</AltitudeMeters>
            <DistanceMeters>NAN</DistanceMeters>
          </Trackpoint>
          <Trackpoint>
            <Time>2019-10-08T10:58:55.000Z</Time>
            <Position>
              <LatitudeDegrees>39.8355485312640666961669921875</LatitudeDegrees>
              <LongitudeDegrees>-6.36013020761311054229736328125</LongitudeDegrees>
            </Position>
            <AltitudeMeters>369.79998779296875</AltitudeMeters>
            <DistanceMeters>NAN</DistanceMeters>
          </Trackpoint>
          <Trackpoint>
            <Time>2019-10-08T10:58:58.000Z</Time>
            <Position>
              <LatitudeDegrees>39.83539354987442493438720703125</LatitudeDegrees>
              <LongitudeDegrees>-6.36021050624549388885498046875</LongitudeDegrees>
            </Position>
            <AltitudeMeters>370.20001220703125</AltitudeMeters>
            <DistanceMeters>NAN</DistanceMeters>
          </Trackpoint>
          <Trackpoint>
            <Time>2019-10-08T10:59:01.000Z</Time>
            <Position>
              <LatitudeDegrees>39.83524284325540065765380859375</LatitudeDegrees>
              <LongitudeDegrees>-6.360158286988735198974609375</LongitudeDegrees>
            </Position>
            <AltitudeMeters>370.79998779296875</AltitudeMeters>
            <DistanceMeters>NAN</DistanceMeters>
          </Trackpoint>
          <Trackpoint>
            <Time>2019-10-08T10:59:02.000Z</Time>
            <Position>
              <LatitudeDegrees>39.83519758097827434539794921875</LatitudeDegrees>
              <LongitudeDegrees>-6.36012844741344451904296875</LongitudeDegrees>
            </Position>
            <AltitudeMeters>371.20001220703125</AltitudeMeters>
            <DistanceMeters>NAN</DistanceMeters>
          </Trackpoint>
          <Trackpoint>
            <Time>2019-10-08T10:59:04.000Z</Time>
            <Position>
              <LatitudeDegrees>39.8351032845675945281982421875</LatitudeDegrees>
              <LongitudeDegrees>-6.360086537897586822509765625</LongitudeDegrees>
            </Position>
            <AltitudeMeters>371.399993896484375</AltitudeMeters>
            <DistanceMeters>NAN</DistanceMeters>
          </Trackpoint>
          <Trackpoint>
            <Time>2019-10-08T10:59:07.000Z</Time>
            <Position>
              <LatitudeDegrees>39.8349594511091709136962890625</LatitudeDegrees>
              <LongitudeDegrees>-6.360087879002094268798828125</LongitudeDegrees>
            </Position>
            <AltitudeMeters>371.20001220703125</AltitudeMeters>
            <DistanceMeters>NAN</DistanceMeters>
          </Trackpoint>
          <Trackpoint>
            <Time>2019-10-08T10:59:12.000Z</Time>
            <Position>
              <LatitudeDegrees>39.8347368277609348297119140625</LatitudeDegrees>
              <LongitudeDegrees>-6.36016138829290866851806640625</LongitudeDegrees>
            </Position>
            <AltitudeMeters>372.20001220703125</AltitudeMeters>
            <DistanceMeters>NAN</DistanceMeters>
          </Trackpoint>
          <Trackpoint>
            <Time>2019-10-08T10:59:14.000Z</Time>
            <Position>
              <LatitudeDegrees>39.834655188024044036865234375</LatitudeDegrees>
              <LongitudeDegrees>-6.36020111851394176483154296875</LongitudeDegrees>
            </Position>
            <AltitudeMeters>372.399993896484375</AltitudeMeters>
            <DistanceMeters>NAN</DistanceMeters>
          </Trackpoint>
          <Trackpoint>
            <Time>2019-10-08T10:59:17.000Z</Time>
            <Position>
              <LatitudeDegrees>39.83453826047480106353759765625</LatitudeDegrees>
              <LongitudeDegrees>-6.3602436147630214691162109375</LongitudeDegrees>
            </Position>
            <AltitudeMeters>373.600006103515625</AltitudeMeters>
            <DistanceMeters>NAN</DistanceMeters>
          </Trackpoint>
          <Trackpoint>
            <Time>2019-10-08T10:59:20.000Z</Time>
            <Position>
              <LatitudeDegrees>39.83442552387714385986328125</LatitudeDegrees>
              <LongitudeDegrees>-6.36029214598238468170166015625</LongitudeDegrees>
            </Position>
            <AltitudeMeters>373.600006103515625</AltitudeMeters>
            <DistanceMeters>NAN</DistanceMeters>
          </Trackpoint>
          <Trackpoint>
            <Time>2019-10-08T10:59:21.000Z</Time>
            <Position>
              <LatitudeDegrees>39.8343878053128719329833984375</LatitudeDegrees>
              <LongitudeDegrees>-6.3603076525032520294189453125</LongitudeDegrees>
            </Position>
            <AltitudeMeters>374</AltitudeMeters>
            <DistanceMeters>NAN</DistanceMeters>
          </Trackpoint>
          <Trackpoint>
            <Time>2019-10-08T10:59:23.000Z</Time>
            <Position>
              <LatitudeDegrees>39.83431513421237468719482421875</LatitudeDegrees>
              <LongitudeDegrees>-6.3603431917726993560791015625</LongitudeDegrees>
            </Position>
            <AltitudeMeters>374.79998779296875</AltitudeMeters>
            <DistanceMeters>NAN</DistanceMeters>
          </Trackpoint>
          <Trackpoint>
            <Time>2019-10-08T10:59:27.000Z</Time>
            <Position>
              <LatitudeDegrees>39.83417029492557048797607421875</LatitudeDegrees>
              <LongitudeDegrees>-6.3604052178561687469482421875</LongitudeDegrees>
            </Position>
            <AltitudeMeters>375.600006103515625</AltitudeMeters>
            <DistanceMeters>NAN</DistanceMeters>
          </Trackpoint>
          <Trackpoint>
            <Time>2019-10-08T10:59:28.000Z</Time>
            <Position>
              <LatitudeDegrees>39.834135510027408599853515625</LatitudeDegrees>
              <LongitudeDegrees>-6.3604149408638477325439453125</LongitudeDegrees>
            </Position>
            <AltitudeMeters>375.79998779296875</AltitudeMeters>
            <DistanceMeters>NAN</DistanceMeters>
          </Trackpoint>
          <Trackpoint>
            <Time>2019-10-08T10:59:31.000Z</Time>
            <Position>
              <LatitudeDegrees>39.8340357653796672821044921875</LatitudeDegrees>
              <LongitudeDegrees>-6.36045710183680057525634765625</LongitudeDegrees>
            </Position>
            <AltitudeMeters>376.20001220703125</AltitudeMeters>
            <DistanceMeters>NAN</DistanceMeters>
          </Trackpoint>
          <Trackpoint>
            <Time>2019-10-08T10:59:34.000Z</Time>
            <Position>
              <LatitudeDegrees>39.83393878675997257232666015625</LatitudeDegrees>
              <LongitudeDegrees>-6.36049230583012104034423828125</LongitudeDegrees>
            </Position>
            <AltitudeMeters>377.20001220703125</AltitudeMeters>
            <DistanceMeters>NAN</DistanceMeters>
          </Trackpoint>
          <Trackpoint>
            <Time>2019-10-08T10:59:36.000Z</Time>
            <Position>
              <LatitudeDegrees>39.8338744975626468658447265625</LatitudeDegrees>
              <LongitudeDegrees>-6.36051946319639682769775390625</LongitudeDegrees>
            </Position>
            <AltitudeMeters>377.20001220703125</AltitudeMeters>
            <DistanceMeters>NAN</DistanceMeters>
          </Trackpoint>
          <Trackpoint>
            <Time>2019-10-08T10:59:40.000Z</Time>
            <Position>
              <LatitudeDegrees>39.83375002630054950714111328125</LatitudeDegrees>
              <LongitudeDegrees>-6.3605741970241069793701171875</LongitudeDegrees>
            </Position>
            <AltitudeMeters>378.20001220703125</AltitudeMeters>
            <DistanceMeters>NAN</DistanceMeters>
          </Trackpoint>
          <Trackpoint>
            <Time>2019-10-08T10:59:44.000Z</Time>
            <Position>
              <LatitudeDegrees>39.83362295664846897125244140625</LatitudeDegrees>
              <LongitudeDegrees>-6.36062205769121646881103515625</LongitudeDegrees>
            </Position>
            <AltitudeMeters>378.600006103515625</AltitudeMeters>
            <DistanceMeters>NAN</DistanceMeters>
          </Trackpoint>
          <Trackpoint>
            <Time>2019-10-08T10:59:48.000Z</Time>
            <Position>
              <LatitudeDegrees>39.83349404297769069671630859375</LatitudeDegrees>
              <LongitudeDegrees>-6.3606714271008968353271484375</LongitudeDegrees>
            </Position>
            <AltitudeMeters>379</AltitudeMeters>
            <DistanceMeters>NAN</DistanceMeters>
          </Trackpoint>
          <Trackpoint>
            <Time>2019-10-08T10:59:50.000Z</Time>
            <Position>
              <LatitudeDegrees>39.83343000523746013641357421875</LatitudeDegrees>
              <LongitudeDegrees>-6.36069707572460174560546875</LongitudeDegrees>
            </Position>
            <AltitudeMeters>379.399993896484375</AltitudeMeters>
            <DistanceMeters>NAN</DistanceMeters>
          </Trackpoint>
          <Trackpoint>
            <Time>2019-10-08T10:59:52.000Z</Time>
            <Position>
              <LatitudeDegrees>39.83336697332561016082763671875</LatitudeDegrees>
              <LongitudeDegrees>-6.360718198120594024658203125</LongitudeDegrees>
            </Position>
            <AltitudeMeters>380</AltitudeMeters>
            <DistanceMeters>NAN</DistanceMeters>
          </Trackpoint>
          <Trackpoint>
            <Time>2019-10-08T10:59:56.000Z</Time>
            <Position>
              <LatitudeDegrees>39.8332435078918933868408203125</LatitudeDegrees>
              <LongitudeDegrees>-6.36076237075030803680419921875</LongitudeDegrees>
            </Position>
            <AltitudeMeters>380.600006103515625</AltitudeMeters>
            <DistanceMeters>NAN</DistanceMeters>
          </Trackpoint>
          <Trackpoint>
            <Time>2019-10-08T11:00:00.000Z</Time>
            <Position>
              <LatitudeDegrees>39.83311970718204975128173828125</LatitudeDegrees>
              <LongitudeDegrees>-6.36080612428486347198486328125</LongitudeDegrees>
            </Position>
            <AltitudeMeters>381</AltitudeMeters>
            <DistanceMeters>NAN</DistanceMeters>
          </Trackpoint>
          <Trackpoint>
            <Time>2019-10-08T11:00:05.000Z</Time>
            <Position>
              <LatitudeDegrees>39.83296648599207401275634765625</LatitudeDegrees>
              <LongitudeDegrees>-6.36086043901741504669189453125</LongitudeDegrees>
            </Position>
            <AltitudeMeters>381.79998779296875</AltitudeMeters>
            <DistanceMeters>NAN</DistanceMeters>
          </Trackpoint>
          <Trackpoint>
            <Time>2019-10-08T11:00:09.000Z</Time>
            <Position>
              <LatitudeDegrees>39.8328438587486743927001953125</LatitudeDegrees>
              <LongitudeDegrees>-6.3608977384865283966064453125</LongitudeDegrees>
            </Position>
            <AltitudeMeters>382.399993896484375</AltitudeMeters>
            <DistanceMeters>NAN</DistanceMeters>
          </Trackpoint>
          <Trackpoint>
            <Time>2019-10-08T11:00:11.000Z</Time>
            <Position>
              <LatitudeDegrees>39.832786023616790771484375</LatitudeDegrees>
              <LongitudeDegrees>-6.3609175197780132293701171875</LongitudeDegrees>
            </Position>
            <AltitudeMeters>383</AltitudeMeters>
            <DistanceMeters>NAN</DistanceMeters>
          </Trackpoint>
          <Trackpoint>
            <Time>2019-10-08T11:00:17.000Z</Time>
            <Position>
              <LatitudeDegrees>39.8326021246612071990966796875</LatitudeDegrees>
              <LongitudeDegrees>-6.36097929440438747406005859375</LongitudeDegrees>
            </Position>
            <AltitudeMeters>383.79998779296875</AltitudeMeters>
            <DistanceMeters>NAN</DistanceMeters>
          </Trackpoint>
          <Trackpoint>
            <Time>2019-10-08T11:00:20.000Z</Time>
            <Position>
              <LatitudeDegrees>39.83250908553600311279296875</LatitudeDegrees>
              <LongitudeDegrees>-6.36101198382675647735595703125</LongitudeDegrees>
            </Position>
            <AltitudeMeters>384.399993896484375</AltitudeMeters>
            <DistanceMeters>NAN</DistanceMeters>
          </Trackpoint>
          <Trackpoint>
            <Time>2019-10-08T11:00:26.000Z</Time>
            <Position>
              <LatitudeDegrees>39.83232459984719753265380859375</LatitudeDegrees>
              <LongitudeDegrees>-6.36108054779469966888427734375</LongitudeDegrees>
            </Position>
            <AltitudeMeters>385.399993896484375</AltitudeMeters>
            <DistanceMeters>NAN</DistanceMeters>
          </Trackpoint>
          <Trackpoint>
            <Time>2019-10-08T11:00:33.000Z</Time>
            <Position>
              <LatitudeDegrees>39.83211253769695758819580078125</LatitudeDegrees>
              <LongitudeDegrees>-6.3611518777906894683837890625</LongitudeDegrees>
            </Position>
            <AltitudeMeters>386.600006103515625</AltitudeMeters>
            <DistanceMeters>NAN</DistanceMeters>
          </Trackpoint>
          <Trackpoint>
            <Time>2019-10-08T11:00:36.000Z</Time>
            <Position>
              <LatitudeDegrees>39.83201715163886547088623046875</LatitudeDegrees>
              <LongitudeDegrees>-6.36118247173726558685302734375</LongitudeDegrees>
            </Position>
            <AltitudeMeters>387</AltitudeMeters>
            <DistanceMeters>NAN</DistanceMeters>
          </Trackpoint>
          <Trackpoint>
            <Time>2019-10-08T11:00:42.000Z</Time>
            <Position>
              <LatitudeDegrees>39.83182436786592006683349609375</LatitudeDegrees>
              <LongitudeDegrees>-6.36125338263809680938720703125</LongitudeDegrees>
            </Position>
            <AltitudeMeters>387.600006103515625</AltitudeMeters>
            <DistanceMeters>NAN</DistanceMeters>
          </Trackpoint>
          <Trackpoint>
            <Time>2019-10-08T11:00:45.000Z</Time>
            <Position>
              <LatitudeDegrees>39.831726551055908203125</LatitudeDegrees>
              <LongitudeDegrees>-6.36128473095595836639404296875</LongitudeDegrees>
            </Position>
            <AltitudeMeters>387.79998779296875</AltitudeMeters>
            <DistanceMeters>NAN</DistanceMeters>
          </Trackpoint>
          <Trackpoint>
            <Time>2019-10-08T11:00:49.000Z</Time>
            <Position>
              <LatitudeDegrees>39.83159638009965419769287109375</LatitudeDegrees>
              <LongitudeDegrees>-6.3613240420818328857421875</LongitudeDegrees>
            </Position>
            <AltitudeMeters>388.79998779296875</AltitudeMeters>
            <DistanceMeters>NAN</DistanceMeters>
          </Trackpoint>
          <Trackpoint>
            <Time>2019-10-08T11:00:55.000Z</Time>
            <Position>
              <LatitudeDegrees>39.8313917778432369232177734375</LatitudeDegrees>
              <LongitudeDegrees>-6.36138766072690486907958984375</LongitudeDegrees>
            </Position>
            <AltitudeMeters>389.20001220703125</AltitudeMeters>
            <DistanceMeters>NAN</DistanceMeters>
          </Trackpoint>
          <Trackpoint>
            <Time>2019-10-08T11:01:02.000Z</Time>
            <Position>
              <LatitudeDegrees>39.8311443440616130828857421875</LatitudeDegrees>
              <LongitudeDegrees>-6.36147315613925457000732421875</LongitudeDegrees>
            </Position>
            <AltitudeMeters>389</AltitudeMeters>
            <DistanceMeters>NAN</DistanceMeters>
          </Trackpoint>
          <Trackpoint>
            <Time>2019-10-08T11:01:12.000Z</Time>
            <Position>
              <LatitudeDegrees>39.83076271601021289825439453125</LatitudeDegrees>
              <LongitudeDegrees>-6.3615931011736392974853515625</LongitudeDegrees>
            </Position>
            <AltitudeMeters>389.600006103515625</AltitudeMeters>
            <DistanceMeters>NAN</DistanceMeters>
          </Trackpoint>
          <Trackpoint>
            <Time>2019-10-08T11:01:19.000Z</Time>
            <Position>
              <LatitudeDegrees>39.83046616427600383758544921875</LatitudeDegrees>
              <LongitudeDegrees>-6.361696533858776092529296875</LongitudeDegrees>
            </Position>
            <AltitudeMeters>389.399993896484375</AltitudeMeters>
            <DistanceMeters>NAN</DistanceMeters>
          </Trackpoint>
          <Trackpoint>
            <Time>2019-10-08T11:01:22.000Z</Time>
            <Position>
              <LatitudeDegrees>39.83033305965363979339599609375</LatitudeDegrees>
              <LongitudeDegrees>-6.36174288578331470489501953125</LongitudeDegrees>
            </Position>
            <AltitudeMeters>389.20001220703125</AltitudeMeters>
            <DistanceMeters>NAN</DistanceMeters>
          </Trackpoint>
          <Trackpoint>
            <Time>2019-10-08T11:01:26.000Z</Time>
            <Position>
              <LatitudeDegrees>39.83016022481024265289306640625</LatitudeDegrees>
              <LongitudeDegrees>-6.361798457801342010498046875</LongitudeDegrees>
            </Position>
            <AltitudeMeters>389.600006103515625</AltitudeMeters>
            <DistanceMeters>NAN</DistanceMeters>
          </Trackpoint>
          <Trackpoint>
            <Time>2019-10-08T11:01:30.000Z</Time>
            <Position>
              <LatitudeDegrees>39.82997800223529338836669921875</LatitudeDegrees>
              <LongitudeDegrees>-6.3618578016757965087890625</LongitudeDegrees>
            </Position>
            <AltitudeMeters>389.399993896484375</AltitudeMeters>
            <DistanceMeters>NAN</DistanceMeters>
          </Trackpoint>
          <Trackpoint>
            <Time>2019-10-08T11:01:35.000Z</Time>
            <Position>
              <LatitudeDegrees>39.8297492600977420806884765625</LatitudeDegrees>
              <LongitudeDegrees>-6.3619377650320529937744140625</LongitudeDegrees>
            </Position>
            <AltitudeMeters>389.399993896484375</AltitudeMeters>
            <DistanceMeters>NAN</DistanceMeters>
          </Trackpoint>
          <Trackpoint>
            <Time>2019-10-08T11:01:39.000Z</Time>
            <Position>
              <LatitudeDegrees>39.8295712284743785858154296875</LatitudeDegrees>
              <LongitudeDegrees>-6.3619950972497463226318359375</LongitudeDegrees>
            </Position>
            <AltitudeMeters>389.399993896484375</AltitudeMeters>
            <DistanceMeters>NAN</DistanceMeters>
          </Trackpoint>
          <Trackpoint>
            <Time>2019-10-08T11:01:42.000Z</Time>
            <Position>
              <LatitudeDegrees>39.829438626766204833984375</LatitudeDegrees>
              <LongitudeDegrees>-6.36204463429749011993408203125</LongitudeDegrees>
            </Position>
            <AltitudeMeters>389.79998779296875</AltitudeMeters>
            <DistanceMeters>NAN</DistanceMeters>
          </Trackpoint>
          <Trackpoint>
            <Time>2019-10-08T11:01:49.000Z</Time>
            <Position>
              <LatitudeDegrees>39.829127490520477294921875</LatitudeDegrees>
              <LongitudeDegrees>-6.36215217411518096923828125</LongitudeDegrees>
            </Position>
            <AltitudeMeters>390.399993896484375</AltitudeMeters>
            <DistanceMeters>NAN</DistanceMeters>
          </Trackpoint>
          <Trackpoint>
            <Time>2019-10-08T11:01:52.000Z</Time>
            <Position>
              <LatitudeDegrees>39.8289920389652252197265625</LatitudeDegrees>
              <LongitudeDegrees>-6.36219517327845096588134765625</LongitudeDegrees>
            </Position>
            <AltitudeMeters>390.600006103515625</AltitudeMeters>
            <DistanceMeters>NAN</DistanceMeters>
          </Trackpoint>
          <Trackpoint>
            <Time>2019-10-08T11:01:54.000Z</Time>
            <Position>
              <LatitudeDegrees>39.82890151441097259521484375</LatitudeDegrees>
              <LongitudeDegrees>-6.36222819797694683074951171875</LongitudeDegrees>
            </Position>
            <AltitudeMeters>390.399993896484375</AltitudeMeters>
            <DistanceMeters>NAN</DistanceMeters>
          </Trackpoint>
          <Trackpoint>
            <Time>2019-10-08T11:01:56.000Z</Time>
            <Position>
              <LatitudeDegrees>39.828812666237354278564453125</LatitudeDegrees>
              <LongitudeDegrees>-6.3622670061886310577392578125</LongitudeDegrees>
            </Position>
            <AltitudeMeters>390.600006103515625</AltitudeMeters>
            <DistanceMeters>NAN</DistanceMeters>
          </Trackpoint>
          <Trackpoint>
            <Time>2019-10-08T11:01:57.000Z</Time>
            <Position>
              <LatitudeDegrees>39.82877184636890888214111328125</LatitudeDegrees>
              <LongitudeDegrees>-6.3622844405472278594970703125</LongitudeDegrees>
            </Position>
            <AltitudeMeters>390.79998779296875</AltitudeMeters>
            <DistanceMeters>NAN</DistanceMeters>
          </Trackpoint>
          <Trackpoint>
            <Time>2019-10-08T11:01:58.000Z</Time>
            <Position>
              <LatitudeDegrees>39.82873261906206607818603515625</LatitudeDegrees>
              <LongitudeDegrees>-6.3623022101819515228271484375</LongitudeDegrees>
            </Position>
            <AltitudeMeters>391</AltitudeMeters>
            <DistanceMeters>NAN</DistanceMeters>
          </Trackpoint>
          <Trackpoint>
            <Time>2019-10-08T11:02:00.000Z</Time>
            <Position>
              <LatitudeDegrees>39.8286488838493824005126953125</LatitudeDegrees>
              <LongitudeDegrees>-6.3623298704624176025390625</LongitudeDegrees>
            </Position>
            <AltitudeMeters>390.79998779296875</AltitudeMeters>
            <DistanceMeters>NAN</DistanceMeters>
          </Trackpoint>
          <Trackpoint>
            <Time>2019-10-08T11:02:02.000Z</Time>
            <Position>
              <LatitudeDegrees>39.82855542562901973724365234375</LatitudeDegrees>
              <LongitudeDegrees>-6.36235660873353481292724609375</LongitudeDegrees>
            </Position>
            <AltitudeMeters>390.79998779296875</AltitudeMeters>
            <DistanceMeters>NAN</DistanceMeters>
          </Trackpoint>
          <Trackpoint>
            <Time>2019-10-08T11:02:11.000Z</Time>
            <Position>
              <LatitudeDegrees>39.82812845148146152496337890625</LatitudeDegrees>
              <LongitudeDegrees>-6.36249373666942119598388671875</LongitudeDegrees>
            </Position>
            <AltitudeMeters>391.20001220703125</AltitudeMeters>
            <DistanceMeters>NAN</DistanceMeters>
          </Trackpoint>
          <Trackpoint>
            <Time>2019-10-08T11:02:20.000Z</Time>
            <Position>
              <LatitudeDegrees>39.82769024558365345001220703125</LatitudeDegrees>
              <LongitudeDegrees>-6.362638659775257110595703125</LongitudeDegrees>
            </Position>
            <AltitudeMeters>390.399993896484375</AltitudeMeters>
            <DistanceMeters>NAN</DistanceMeters>
          </Trackpoint>
          <Trackpoint>
            <Time>2019-10-08T11:02:31.000Z</Time>
            <Position>
              <LatitudeDegrees>39.8271294124424457550048828125</LatitudeDegrees>
              <LongitudeDegrees>-6.362831778824329376220703125</LongitudeDegrees>
            </Position>
            <AltitudeMeters>391.600006103515625</AltitudeMeters>
            <DistanceMeters>NAN</DistanceMeters>
          </Trackpoint>
          <Trackpoint>
            <Time>2019-10-08T11:02:36.000Z</Time>
            <Position>
              <LatitudeDegrees>39.826870746910572052001953125</LatitudeDegrees>
              <LongitudeDegrees>-6.3629197888076305389404296875</LongitudeDegrees>
            </Position>
            <AltitudeMeters>392</AltitudeMeters>
            <DistanceMeters>NAN</DistanceMeters>
          </Trackpoint>
          <Trackpoint>
            <Time>2019-10-08T11:02:39.000Z</Time>
            <Position>
              <LatitudeDegrees>39.82671559788286685943603515625</LatitudeDegrees>
              <LongitudeDegrees>-6.36297368444502353668212890625</LongitudeDegrees>
            </Position>
            <AltitudeMeters>392</AltitudeMeters>
            <DistanceMeters>NAN</DistanceMeters>
          </Trackpoint>
          <Trackpoint>
            <Time>2019-10-08T11:02:48.000Z</Time>
            <Position>
              <LatitudeDegrees>39.82624403201043605804443359375</LatitudeDegrees>
              <LongitudeDegrees>-6.36313193477690219879150390625</LongitudeDegrees>
            </Position>
            <AltitudeMeters>391.79998779296875</AltitudeMeters>
            <DistanceMeters>NAN</DistanceMeters>
          </Trackpoint>
          <Trackpoint>
            <Time>2019-10-08T11:02:57.000Z</Time>
            <Position>
              <LatitudeDegrees>39.8257665149867534637451171875</LatitudeDegrees>
              <LongitudeDegrees>-6.363286413252353668212890625</LongitudeDegrees>
            </Position>
            <AltitudeMeters>391.79998779296875</AltitudeMeters>
            <DistanceMeters>NAN</DistanceMeters>
          </Trackpoint>
          <Trackpoint>
            <Time>2019-10-08T11:03:06.000Z</Time>
            <Position>
              <LatitudeDegrees>39.8252941109240055084228515625</LatitudeDegrees>
              <LongitudeDegrees>-6.36344759725034236907958984375</LongitudeDegrees>
            </Position>
            <AltitudeMeters>392</AltitudeMeters>
            <DistanceMeters>NAN</DistanceMeters>
          </Trackpoint>
          <Trackpoint>
            <Time>2019-10-08T11:03:15.000Z</Time>
            <Position>
              <LatitudeDegrees>39.8248290829360485076904296875</LatitudeDegrees>
              <LongitudeDegrees>-6.36360199190676212310791015625</LongitudeDegrees>
            </Position>
            <AltitudeMeters>392</AltitudeMeters>
            <DistanceMeters>NAN</DistanceMeters>
          </Trackpoint>
          <Trackpoint>
            <Time>2019-10-08T11:03:22.000Z</Time>
            <Position>
              <LatitudeDegrees>39.824470840394496917724609375</LatitudeDegrees>
              <LongitudeDegrees>-6.36372218839824199676513671875</LongitudeDegrees>
            </Position>
            <AltitudeMeters>391.600006103515625</AltitudeMeters>
            <DistanceMeters>NAN</DistanceMeters>
          </Trackpoint>
          <Trackpoint>
            <Time>2019-10-08T11:03:25.000Z</Time>
            <Position>
              <LatitudeDegrees>39.82432004995644092559814453125</LatitudeDegrees>
              <LongitudeDegrees>-6.363774575293064117431640625</LongitudeDegrees>
            </Position>
            <AltitudeMeters>392.20001220703125</AltitudeMeters>
            <DistanceMeters>NAN</DistanceMeters>
          </Trackpoint>
          <Trackpoint>
            <Time>2019-10-08T11:03:32.000Z</Time>
            <Position>
              <LatitudeDegrees>39.82396490871906280517578125</LatitudeDegrees>
              <LongitudeDegrees>-6.36388882063329219818115234375</LongitudeDegrees>
            </Position>
            <AltitudeMeters>392.600006103515625</AltitudeMeters>
            <DistanceMeters>NAN</DistanceMeters>
          </Trackpoint>
          <Trackpoint>
            <Time>2019-10-08T11:03:40.000Z</Time>
            <Position>
              <LatitudeDegrees>39.82354857958853244781494140625</LatitudeDegrees>
              <LongitudeDegrees>-6.36402703821659088134765625</LongitudeDegrees>
            </Position>
            <AltitudeMeters>392.79998779296875</AltitudeMeters>
            <DistanceMeters>NAN</DistanceMeters>
          </Trackpoint>
          <Trackpoint>
            <Time>2019-10-08T11:03:42.000Z</Time>
            <Position>
              <LatitudeDegrees>39.8234453983604907989501953125</LatitudeDegrees>
              <LongitudeDegrees>-6.3640598952770233154296875</LongitudeDegrees>
            </Position>
            <AltitudeMeters>393</AltitudeMeters>
            <DistanceMeters>NAN</DistanceMeters>
          </Trackpoint>
          <Trackpoint>
            <Time>2019-10-08T11:03:50.000Z</Time>
            <Position>
              <LatitudeDegrees>39.8230403847992420196533203125</LatitudeDegrees>
              <LongitudeDegrees>-6.36420347727835178375244140625</LongitudeDegrees>
            </Position>
            <AltitudeMeters>393.600006103515625</AltitudeMeters>
            <DistanceMeters>NAN</DistanceMeters>
          </Trackpoint>
          <Trackpoint>
            <Time>2019-10-08T11:03:58.000Z</Time>
            <Position>
              <LatitudeDegrees>39.8226320184767246246337890625</LatitudeDegrees>
              <LongitudeDegrees>-6.36434127576649188995361328125</LongitudeDegrees>
            </Position>
            <AltitudeMeters>394.20001220703125</AltitudeMeters>
            <DistanceMeters>NAN</DistanceMeters>
          </Trackpoint>
          <Trackpoint>
            <Time>2019-10-08T11:04:00.000Z</Time>
            <Position>
              <LatitudeDegrees>39.82252992689609527587890625</LatitudeDegrees>
              <LongitudeDegrees>-6.36437731795012950897216796875</LongitudeDegrees>
            </Position>
            <AltitudeMeters>394.20001220703125</AltitudeMeters>
            <DistanceMeters>NAN</DistanceMeters>
          </Trackpoint>
          <Trackpoint>
            <Time>2019-10-08T11:04:10.000Z</Time>
            <Position>
              <LatitudeDegrees>39.8220167867839336395263671875</LatitudeDegrees>
              <LongitudeDegrees>-6.36454814113676548004150390625</LongitudeDegrees>
            </Position>
            <AltitudeMeters>394</AltitudeMeters>
            <DistanceMeters>NAN</DistanceMeters>
          </Trackpoint>
          <Trackpoint>
            <Time>2019-10-08T11:04:11.000Z</Time>
            <Position>
              <LatitudeDegrees>39.82196959666907787322998046875</LatitudeDegrees>
              <LongitudeDegrees>-6.36456205509603023529052734375</LongitudeDegrees>
            </Position>
            <AltitudeMeters>394.20001220703125</AltitudeMeters>
            <DistanceMeters>NAN</DistanceMeters>
          </Trackpoint>
          <Trackpoint>
            <Time>2019-10-08T11:04:16.000Z</Time>
            <Position>
              <LatitudeDegrees>39.82173222117125988006591796875</LatitudeDegrees>
              <LongitudeDegrees>-6.3646501488983631134033203125</LongitudeDegrees>
            </Position>
            <AltitudeMeters>394.399993896484375</AltitudeMeters>
            <DistanceMeters>NAN</DistanceMeters>
          </Trackpoint>
          <Trackpoint>
            <Time>2019-10-08T11:04:22.000Z</Time>
            <Position>
              <LatitudeDegrees>39.82150104828178882598876953125</LatitudeDegrees>
              <LongitudeDegrees>-6.36468811891973018646240234375</LongitudeDegrees>
            </Position>
            <AltitudeMeters>395.399993896484375</AltitudeMeters>
            <DistanceMeters>NAN</DistanceMeters>
          </Trackpoint>
          <Trackpoint>
            <Time>2019-10-08T11:04:25.000Z</Time>
            <Position>
              <LatitudeDegrees>39.82156340964138507843017578125</LatitudeDegrees>
              <LongitudeDegrees>-6.36463279835879802703857421875</LongitudeDegrees>
            </Position>
            <AltitudeMeters>395.600006103515625</AltitudeMeters>
            <DistanceMeters>NAN</DistanceMeters>
          </Trackpoint>
          <Trackpoint>
            <Time>2019-10-08T11:04:26.000Z</Time>
            <Position>
              <LatitudeDegrees>39.82159777544438838958740234375</LatitudeDegrees>
              <LongitudeDegrees>-6.3646162860095500946044921875</LongitudeDegrees>
            </Position>
            <AltitudeMeters>395.600006103515625</AltitudeMeters>
            <DistanceMeters>NAN</DistanceMeters>
          </Trackpoint>
          <Trackpoint>
            <Time>2019-10-08T11:04:31.000Z</Time>
            <Position>
              <LatitudeDegrees>39.82175342738628387451171875</LatitudeDegrees>
              <LongitudeDegrees>-6.3645468838512897491455078125</LongitudeDegrees>
            </Position>
            <AltitudeMeters>395.600006103515625</AltitudeMeters>
            <DistanceMeters>NAN</DistanceMeters>
          </Trackpoint>
          <Trackpoint>
            <Time>2019-10-08T11:04:36.000Z</Time>
            <Position>
              <LatitudeDegrees>39.8219002783298492431640625</LatitudeDegrees>
              <LongitudeDegrees>-6.36449064128100872039794921875</LongitudeDegrees>
            </Position>
            <AltitudeMeters>395.79998779296875</AltitudeMeters>
            <DistanceMeters>NAN</DistanceMeters>
          </Trackpoint>
          <Trackpoint>
            <Time>2019-10-08T11:04:37.000Z</Time>
            <Position>
              <LatitudeDegrees>39.82192953117191791534423828125</LatitudeDegrees>
              <LongitudeDegrees>-6.36449038982391357421875</LongitudeDegrees>
            </Position>
            <AltitudeMeters>396</AltitudeMeters>
            <DistanceMeters>NAN</DistanceMeters>
          </Trackpoint>
          <Trackpoint>
            <Time>2019-10-08T11:04:38.000Z</Time>
            <Position>
              <LatitudeDegrees>39.8219487257301807403564453125</LatitudeDegrees>
              <LongitudeDegrees>-6.36451226659119129180908203125</LongitudeDegrees>
            </Position>
            <AltitudeMeters>395.79998779296875</AltitudeMeters>
            <DistanceMeters>NAN</DistanceMeters>
          </Trackpoint>
          <Trackpoint>
            <Time>2019-10-08T11:04:40.000Z</Time>
            <Position>
              <LatitudeDegrees>39.82192651368677616119384765625</LatitudeDegrees>
              <LongitudeDegrees>-6.364564485847949981689453125</LongitudeDegrees>
            </Position>
            <AltitudeMeters>395.79998779296875</AltitudeMeters>
            <DistanceMeters>NAN</DistanceMeters>
          </Trackpoint>
          <Trackpoint>
            <Time>2019-10-08T11:04:42.000Z</Time>
            <Position>
              <LatitudeDegrees>39.82186784036457538604736328125</LatitudeDegrees>
              <LongitudeDegrees>-6.3645894639194011688232421875</LongitudeDegrees>
            </Position>
            <AltitudeMeters>395.399993896484375</AltitudeMeters>
            <DistanceMeters>NAN</DistanceMeters>
          </Trackpoint>
          <Trackpoint>
            <Time>2019-10-08T11:04:44.000Z</Time>
            <Position>
              <LatitudeDegrees>39.8218010365962982177734375</LatitudeDegrees>
              <LongitudeDegrees>-6.36461980640888214111328125</LongitudeDegrees>
            </Position>
            <AltitudeMeters>395.20001220703125</AltitudeMeters>
            <DistanceMeters>NAN</DistanceMeters>
          </Trackpoint>
          <Trackpoint>
            <Time>2019-10-08T11:04:51.000Z</Time>
            <Position>
              <LatitudeDegrees>39.82156860642135143280029296875</LatitudeDegrees>
              <LongitudeDegrees>-6.36470270343124866485595703125</LongitudeDegrees>
            </Position>
            <AltitudeMeters>395.20001220703125</AltitudeMeters>
            <DistanceMeters>NAN</DistanceMeters>
          </Trackpoint>
          <Trackpoint>
            <Time>2019-10-08T11:04:57.000Z</Time>
            <Position>
              <LatitudeDegrees>39.82137481682002544403076171875</LatitudeDegrees>
              <LongitudeDegrees>-6.364771686494350433349609375</LongitudeDegrees>
            </Position>
            <AltitudeMeters>395.20001220703125</AltitudeMeters>
            <DistanceMeters>NAN</DistanceMeters>
          </Trackpoint>
          <Trackpoint>
            <Time>2019-10-08T11:05:04.000Z</Time>
            <Position>
              <LatitudeDegrees>39.82112713158130645751953125</LatitudeDegrees>
              <LongitudeDegrees>-6.36485978029668331146240234375</LongitudeDegrees>
            </Position>
            <AltitudeMeters>394.79998779296875</AltitudeMeters>
            <DistanceMeters>NAN</DistanceMeters>
          </Trackpoint>
          <Trackpoint>
            <Time>2019-10-08T11:05:07.000Z</Time>
            <Position>
              <LatitudeDegrees>39.82100777328014373779296875</LatitudeDegrees>
              <LongitudeDegrees>-6.3648798130452632904052734375</LongitudeDegrees>
            </Position>
            <AltitudeMeters>394.399993896484375</AltitudeMeters>
            <DistanceMeters>NAN</DistanceMeters>
          </Trackpoint>
          <Trackpoint>
            <Time>2019-10-08T11:05:10.000Z</Time>
            <Position>
              <LatitudeDegrees>39.82088573276996612548828125</LatitudeDegrees>
              <LongitudeDegrees>-6.36487570591270923614501953125</LongitudeDegrees>
            </Position>
            <AltitudeMeters>394.600006103515625</AltitudeMeters>
            <DistanceMeters>NAN</DistanceMeters>
          </Trackpoint>
          <Trackpoint>
            <Time>2019-10-08T11:05:12.000Z</Time>
            <Position>
              <LatitudeDegrees>39.82079990208148956298828125</LatitudeDegrees>
              <LongitudeDegrees>-6.36485877446830272674560546875</LongitudeDegrees>
            </Position>
            <AltitudeMeters>394.399993896484375</AltitudeMeters>
            <DistanceMeters>NAN</DistanceMeters>
          </Trackpoint>
          <Trackpoint>
            <Time>2019-10-08T11:05:13.000Z</Time>
            <Position>
              <LatitudeDegrees>39.82075807638466358184814453125</LatitudeDegrees>
              <LongitudeDegrees>-6.3648499734699726104736328125</LongitudeDegrees>
            </Position>
            <AltitudeMeters>394</AltitudeMeters>
            <DistanceMeters>NAN</DistanceMeters>
          </Trackpoint>
          <Trackpoint>
            <Time>2019-10-08T11:05:14.000Z</Time>
            <Position>
              <LatitudeDegrees>39.82071532867848873138427734375</LatitudeDegrees>
              <LongitudeDegrees>-6.364838741719722747802734375</LongitudeDegrees>
            </Position>
            <AltitudeMeters>394.20001220703125</AltitudeMeters>
            <DistanceMeters>NAN</DistanceMeters>
          </Trackpoint>
          <Trackpoint>
            <Time>2019-10-08T11:05:18.000Z</Time>
            <Position>
              <LatitudeDegrees>39.82052874751389026641845703125</LatitudeDegrees>
              <LongitudeDegrees>-6.36481334455311298370361328125</LongitudeDegrees>
            </Position>
            <AltitudeMeters>393.79998779296875</AltitudeMeters>
            <DistanceMeters>NAN</DistanceMeters>
          </Trackpoint>
          <Trackpoint>
            <Time>2019-10-08T11:05:20.000Z</Time>
            <Position>
              <LatitudeDegrees>39.8204366303980350494384765625</LatitudeDegrees>
              <LongitudeDegrees>-6.36484603397548198699951171875</LongitudeDegrees>
            </Position>
            <AltitudeMeters>394.20001220703125</AltitudeMeters>
            <DistanceMeters>NAN</DistanceMeters>
          </Trackpoint>
          <Trackpoint>
            <Time>2019-10-08T11:05:22.000Z</Time>
            <Position>
              <LatitudeDegrees>39.82037208974361419677734375</LatitudeDegrees>
              <LongitudeDegrees>-6.36493136174976825714111328125</LongitudeDegrees>
            </Position>
            <AltitudeMeters>394.79998779296875</AltitudeMeters>
            <DistanceMeters>NAN</DistanceMeters>
          </Trackpoint>
          <Trackpoint>
            <Time>2019-10-08T11:05:23.000Z</Time>
            <Position>
              <LatitudeDegrees>39.82035406865179538726806640625</LatitudeDegrees>
              <LongitudeDegrees>-6.36498391628265380859375</LongitudeDegrees>
            </Position>
            <AltitudeMeters>394.79998779296875</AltitudeMeters>
            <DistanceMeters>NAN</DistanceMeters>
          </Trackpoint>
          <Trackpoint>
            <Time>2019-10-08T11:05:25.000Z</Time>
            <Position>
              <LatitudeDegrees>39.82032540254294872283935546875</LatitudeDegrees>
              <LongitudeDegrees>-6.36509967036545276641845703125</LongitudeDegrees>
            </Position>
            <AltitudeMeters>395.600006103515625</AltitudeMeters>
            <DistanceMeters>NAN</DistanceMeters>
          </Trackpoint>
          <Trackpoint>
            <Time>2019-10-08T11:05:27.000Z</Time>
            <Position>
              <LatitudeDegrees>39.82027645222842693328857421875</LatitudeDegrees>
              <LongitudeDegrees>-6.36520645581185817718505859375</LongitudeDegrees>
            </Position>
            <AltitudeMeters>395.600006103515625</AltitudeMeters>
            <DistanceMeters>NAN</DistanceMeters>
          </Trackpoint>
          <Trackpoint>
            <Time>2019-10-08T11:05:30.000Z</Time>
            <Position>
              <LatitudeDegrees>39.820159859955310821533203125</LatitudeDegrees>
              <LongitudeDegrees>-6.36531860567629337310791015625</LongitudeDegrees>
            </Position>
            <AltitudeMeters>395</AltitudeMeters>
            <DistanceMeters>NAN</DistanceMeters>
          </Trackpoint>
          <Trackpoint>
            <Time>2019-10-08T11:05:31.000Z</Time>
            <Position>
              <LatitudeDegrees>39.82011216692626476287841796875</LatitudeDegrees>
              <LongitudeDegrees>-6.36534475721418857574462890625</LongitudeDegrees>
            </Position>
            <AltitudeMeters>394.79998779296875</AltitudeMeters>
            <DistanceMeters>NAN</DistanceMeters>
          </Trackpoint>
          <Trackpoint>
            <Time>2019-10-08T11:05:34.000Z</Time>
            <Position>
              <LatitudeDegrees>39.8199608735740184783935546875</LatitudeDegrees>
              <LongitudeDegrees>-6.36534911580383777618408203125</LongitudeDegrees>
            </Position>
            <AltitudeMeters>394.20001220703125</AltitudeMeters>
            <DistanceMeters>NAN</DistanceMeters>
          </Trackpoint>
          <Trackpoint>
            <Time>2019-10-08T11:05:35.000Z</Time>
            <Position>
              <LatitudeDegrees>39.81991385109722614288330078125</LatitudeDegrees>
              <LongitudeDegrees>-6.365326903760433197021484375</LongitudeDegrees>
            </Position>
            <AltitudeMeters>394.399993896484375</AltitudeMeters>
            <DistanceMeters>NAN</DistanceMeters>
          </Trackpoint>
          <Trackpoint>
            <Time>2019-10-08T11:05:38.000Z</Time>
            <Position>
              <LatitudeDegrees>39.81977638788521289825439453125</LatitudeDegrees>
              <LongitudeDegrees>-6.36524367146193981170654296875</LongitudeDegrees>
            </Position>
            <AltitudeMeters>394</AltitudeMeters>
            <DistanceMeters>NAN</DistanceMeters>
          </Trackpoint>
          <Trackpoint>
            <Time>2019-10-08T11:05:40.000Z</Time>
            <Position>
              <LatitudeDegrees>39.81967027299106121063232421875</LatitudeDegrees>
              <LongitudeDegrees>-6.36520645581185817718505859375</LongitudeDegrees>
            </Position>
            <AltitudeMeters>393.79998779296875</AltitudeMeters>
            <DistanceMeters>NAN</DistanceMeters>
          </Trackpoint>
          <Trackpoint>
            <Time>2019-10-08T11:05:41.000Z</Time>
            <Position>
              <LatitudeDegrees>39.81961394660174846649169921875</LatitudeDegrees>
              <LongitudeDegrees>-6.36519053019583225250244140625</LongitudeDegrees>
            </Position>
            <AltitudeMeters>393.600006103515625</AltitudeMeters>
            <DistanceMeters>NAN</DistanceMeters>
          </Trackpoint>
          <Trackpoint>
            <Time>2019-10-08T11:05:43.000Z</Time>
            <Position>
              <LatitudeDegrees>39.8195002041757106781005859375</LatitudeDegrees>
              <LongitudeDegrees>-6.36515130288898944854736328125</LongitudeDegrees>
            </Position>
            <AltitudeMeters>393.399993896484375</AltitudeMeters>
            <DistanceMeters>NAN</DistanceMeters>
          </Trackpoint>
          <Trackpoint>
            <Time>2019-10-08T11:05:44.000Z</Time>
            <Position>
              <LatitudeDegrees>39.81944295577704906463623046875</LatitudeDegrees>
              <LongitudeDegrees>-6.3651299290359020233154296875</LongitudeDegrees>
            </Position>
            <AltitudeMeters>393.20001220703125</AltitudeMeters>
            <DistanceMeters>NAN</DistanceMeters>
          </Trackpoint>
          <Trackpoint>
            <Time>2019-10-08T11:05:47.000Z</Time>
            <Position>
              <LatitudeDegrees>39.8192645050585269927978515625</LatitudeDegrees>
              <LongitudeDegrees>-6.365074776113033294677734375</LongitudeDegrees>
            </Position>
            <AltitudeMeters>393</AltitudeMeters>
            <DistanceMeters>NAN</DistanceMeters>
          </Trackpoint>
          <Trackpoint>
            <Time>2019-10-08T11:05:52.000Z</Time>
            <Position>
              <LatitudeDegrees>39.81894238851964473724365234375</LatitudeDegrees>
              <LongitudeDegrees>-6.36502892710268497467041015625</LongitudeDegrees>
            </Position>
            <AltitudeMeters>392.399993896484375</AltitudeMeters>
            <DistanceMeters>NAN</DistanceMeters>
          </Trackpoint>
          <Trackpoint>
            <Time>2019-10-08T11:05:54.000Z</Time>
            <Position>
              <LatitudeDegrees>39.81880567967891693115234375</LatitudeDegrees>
              <LongitudeDegrees>-6.365030519664287567138671875</LongitudeDegrees>
            </Position>
            <AltitudeMeters>392</AltitudeMeters>
            <DistanceMeters>NAN</DistanceMeters>
          </Trackpoint>
          <Trackpoint>
            <Time>2019-10-08T11:05:56.000Z</Time>
            <Position>
              <LatitudeDegrees>39.81866260059177875518798828125</LatitudeDegrees>
              <LongitudeDegrees>-6.36504418216645717620849609375</LongitudeDegrees>
            </Position>
            <AltitudeMeters>390.600006103515625</AltitudeMeters>
            <DistanceMeters>NAN</DistanceMeters>
          </Trackpoint>
          <Trackpoint>
            <Time>2019-10-08T11:05:58.000Z</Time>
            <Position>
              <LatitudeDegrees>39.8185111396014690399169921875</LatitudeDegrees>
              <LongitudeDegrees>-6.365066058933734893798828125</LongitudeDegrees>
            </Position>
            <AltitudeMeters>389.79998779296875</AltitudeMeters>
            <DistanceMeters>NAN</DistanceMeters>
          </Trackpoint>
          <Trackpoint>
            <Time>2019-10-08T11:05:59.000Z</Time>
            <Position>
              <LatitudeDegrees>39.8184336908161640167236328125</LatitudeDegrees>
              <LongitudeDegrees>-6.365081481635570526123046875</LongitudeDegrees>
            </Position>
            <AltitudeMeters>389.20001220703125</AltitudeMeters>
            <DistanceMeters>NAN</DistanceMeters>
          </Trackpoint>
          <Trackpoint>
            <Time>2019-10-08T11:06:03.000Z</Time>
            <Position>
              <LatitudeDegrees>39.81811861507594585418701171875</LatitudeDegrees>
              <LongitudeDegrees>-6.365199498832225799560546875</LongitudeDegrees>
            </Position>
            <AltitudeMeters>388.20001220703125</AltitudeMeters>
            <DistanceMeters>NAN</DistanceMeters>
          </Trackpoint>
          <Trackpoint>
            <Time>2019-10-08T11:06:06.000Z</Time>
            <Position>
              <LatitudeDegrees>39.817881323397159576416015625</LatitudeDegrees>
              <LongitudeDegrees>-6.3653428293764591217041015625</LongitudeDegrees>
            </Position>
            <AltitudeMeters>387.20001220703125</AltitudeMeters>
            <DistanceMeters>NAN</DistanceMeters>
          </Trackpoint>
          <Trackpoint>
            <Time>2019-10-08T11:06:08.000Z</Time>
            <Position>
              <LatitudeDegrees>39.81772215105593204498291015625</LatitudeDegrees>
              <LongitudeDegrees>-6.36545598506927490234375</LongitudeDegrees>
            </Position>
            <AltitudeMeters>386.600006103515625</AltitudeMeters>
            <DistanceMeters>NAN</DistanceMeters>
          </Trackpoint>
          <Trackpoint>
            <Time>2019-10-08T11:06:10.000Z</Time>
            <Position>
              <LatitudeDegrees>39.81756440363824367523193359375</LatitudeDegrees>
              <LongitudeDegrees>-6.36557877995073795318603515625</LongitudeDegrees>
            </Position>
            <AltitudeMeters>385.399993896484375</AltitudeMeters>
            <DistanceMeters>NAN</DistanceMeters>
          </Trackpoint>
          <Trackpoint>
            <Time>2019-10-08T11:06:12.000Z</Time>
            <Position>
              <LatitudeDegrees>39.8174060694873332977294921875</LatitudeDegrees>
              <LongitudeDegrees>-6.36570568196475505828857421875</LongitudeDegrees>
            </Position>
            <AltitudeMeters>384</AltitudeMeters>
            <DistanceMeters>NAN</DistanceMeters>
          </Trackpoint>
          <Trackpoint>
            <Time>2019-10-08T11:06:15.000Z</Time>
            <Position>
              <LatitudeDegrees>39.817170202732086181640625</LatitudeDegrees>
              <LongitudeDegrees>-6.36588446795940399169921875</LongitudeDegrees>
            </Position>
            <AltitudeMeters>383</AltitudeMeters>
            <DistanceMeters>NAN</DistanceMeters>
          </Trackpoint>
          <Trackpoint>
            <Time>2019-10-08T11:06:16.000Z</Time>
            <Position>
              <LatitudeDegrees>39.817089401185512542724609375</LatitudeDegrees>
              <LongitudeDegrees>-6.36594020761549472808837890625</LongitudeDegrees>
            </Position>
            <AltitudeMeters>382.79998779296875</AltitudeMeters>
            <DistanceMeters>NAN</DistanceMeters>
          </Trackpoint>
          <Trackpoint>
            <Time>2019-10-08T11:06:20.000Z</Time>
            <Position>
              <LatitudeDegrees>39.8167338408529758453369140625</LatitudeDegrees>
              <LongitudeDegrees>-6.3661119528114795684814453125</LongitudeDegrees>
            </Position>
            <AltitudeMeters>381.79998779296875</AltitudeMeters>
            <DistanceMeters>NAN</DistanceMeters>
          </Trackpoint>
          <Trackpoint>
            <Time>2019-10-08T11:06:21.000Z</Time>
            <Position>
              <LatitudeDegrees>39.816638790071010589599609375</LatitudeDegrees>
              <LongitudeDegrees>-6.36614573188126087188720703125</LongitudeDegrees>
            </Position>
            <AltitudeMeters>381.20001220703125</AltitudeMeters>
            <DistanceMeters>NAN</DistanceMeters>
          </Trackpoint>
          <Trackpoint>
            <Time>2019-10-08T11:06:24.000Z</Time>
            <Position>
              <LatitudeDegrees>39.81634651310741901397705078125</LatitudeDegrees>
              <LongitudeDegrees>-6.36622385121881961822509765625</LongitudeDegrees>
            </Position>
            <AltitudeMeters>379.600006103515625</AltitudeMeters>
            <DistanceMeters>NAN</DistanceMeters>
          </Trackpoint>
          <Trackpoint>
            <Time>2019-10-08T11:06:26.000Z</Time>
            <Position>
              <LatitudeDegrees>39.8161501251161098480224609375</LatitudeDegrees>
              <LongitudeDegrees>-6.36627900414168834686279296875</LongitudeDegrees>
            </Position>
            <AltitudeMeters>378.20001220703125</AltitudeMeters>
            <DistanceMeters>NAN</DistanceMeters>
          </Trackpoint>
          <Trackpoint>
            <Time>2019-10-08T11:06:27.000Z</Time>
            <Position>
              <LatitudeDegrees>39.816053397953510284423828125</LatitudeDegrees>
              <LongitudeDegrees>-6.3663022220134735107421875</LongitudeDegrees>
            </Position>
            <AltitudeMeters>377.79998779296875</AltitudeMeters>
            <DistanceMeters>NAN</DistanceMeters>
          </Trackpoint>
          <Trackpoint>
            <Time>2019-10-08T11:06:28.000Z</Time>
            <Position>
              <LatitudeDegrees>39.8159565031528472900390625</LatitudeDegrees>
              <LongitudeDegrees>-6.36632543988525867462158203125</LongitudeDegrees>
            </Position>
            <AltitudeMeters>377</AltitudeMeters>
            <DistanceMeters>NAN</DistanceMeters>
          </Trackpoint>
          <Trackpoint>
            <Time>2019-10-08T11:06:30.000Z</Time>
            <Position>
              <LatitudeDegrees>39.8157625459134578704833984375</LatitudeDegrees>
              <LongitudeDegrees>-6.3663815148174762725830078125</LongitudeDegrees>
            </Position>
            <AltitudeMeters>375.600006103515625</AltitudeMeters>
            <DistanceMeters>NAN</DistanceMeters>
          </Trackpoint>
          <Trackpoint>
            <Time>2019-10-08T11:06:33.000Z</Time>
            <Position>
              <LatitudeDegrees>39.815476723015308380126953125</LatitudeDegrees>
              <LongitudeDegrees>-6.36645100079476833343505859375</LongitudeDegrees>
            </Position>
            <AltitudeMeters>374.600006103515625</AltitudeMeters>
            <DistanceMeters>NAN</DistanceMeters>
          </Trackpoint>
          <Trackpoint>
            <Time>2019-10-08T11:06:35.000Z</Time>
            <Position>
              <LatitudeDegrees>39.81529072858393192291259765625</LatitudeDegrees>
              <LongitudeDegrees>-6.36649592779576778411865234375</LongitudeDegrees>
            </Position>
            <AltitudeMeters>374.399993896484375</AltitudeMeters>
            <DistanceMeters>NAN</DistanceMeters>
          </Trackpoint>
          <Trackpoint>
            <Time>2019-10-08T11:06:38.000Z</Time>
            <Position>
              <LatitudeDegrees>39.81501261703670024871826171875</LatitudeDegrees>
              <LongitudeDegrees>-6.36657672934234142303466796875</LongitudeDegrees>
            </Position>
            <AltitudeMeters>373.600006103515625</AltitudeMeters>
            <DistanceMeters>NAN</DistanceMeters>
          </Trackpoint>
          <Trackpoint>
            <Time>2019-10-08T11:06:40.000Z</Time>
            <Position>
              <LatitudeDegrees>39.81482553295791149139404296875</LatitudeDegrees>
              <LongitudeDegrees>-6.3666326366364955902099609375</LongitudeDegrees>
            </Position>
            <AltitudeMeters>372.79998779296875</AltitudeMeters>
            <DistanceMeters>NAN</DistanceMeters>
          </Trackpoint>
          <Trackpoint>
            <Time>2019-10-08T11:06:41.000Z</Time>
            <Position>
              <LatitudeDegrees>39.8147298954427242279052734375</LatitudeDegrees>
              <LongitudeDegrees>-6.3666611351072788238525390625</LongitudeDegrees>
            </Position>
            <AltitudeMeters>372.399993896484375</AltitudeMeters>
            <DistanceMeters>NAN</DistanceMeters>
          </Trackpoint>
          <Trackpoint>
            <Time>2019-10-08T11:06:42.000Z</Time>
            <Position>
              <LatitudeDegrees>39.814636521041393280029296875</LatitudeDegrees>
              <LongitudeDegrees>-6.36669407598674297332763671875</LongitudeDegrees>
            </Position>
            <AltitudeMeters>371.600006103515625</AltitudeMeters>
            <DistanceMeters>NAN</DistanceMeters>
          </Trackpoint>
          <Trackpoint>
            <Time>2019-10-08T11:06:43.000Z</Time>
            <Position>
              <LatitudeDegrees>39.8145458288490772247314453125</LatitudeDegrees>
              <LongitudeDegrees>-6.3667335547506809234619140625</LongitudeDegrees>
            </Position>
            <AltitudeMeters>371.79998779296875</AltitudeMeters>
            <DistanceMeters>NAN</DistanceMeters>
          </Trackpoint>
          <Trackpoint>
            <Time>2019-10-08T11:06:44.000Z</Time>
            <Position>
              <LatitudeDegrees>39.8144549690186977386474609375</LatitudeDegrees>
              <LongitudeDegrees>-6.3667774759232997894287109375</LongitudeDegrees>
            </Position>
            <AltitudeMeters>371</AltitudeMeters>
            <DistanceMeters>NAN</DistanceMeters>
          </Trackpoint>
          <Trackpoint>
            <Time>2019-10-08T11:06:46.000Z</Time>
            <Position>
              <LatitudeDegrees>39.814276434481143951416015625</LatitudeDegrees>
              <LongitudeDegrees>-6.366881243884563446044921875</LongitudeDegrees>
            </Position>
            <AltitudeMeters>369.20001220703125</AltitudeMeters>
            <DistanceMeters>NAN</DistanceMeters>
          </Trackpoint>
          <Trackpoint>
            <Time>2019-10-08T11:06:48.000Z</Time>
            <Position>
              <LatitudeDegrees>39.8141015879809856414794921875</LatitudeDegrees>
              <LongitudeDegrees>-6.3669980876147747039794921875</LongitudeDegrees>
            </Position>
            <AltitudeMeters>368.600006103515625</AltitudeMeters>
            <DistanceMeters>NAN</DistanceMeters>
          </Trackpoint>
          <Trackpoint>
            <Time>2019-10-08T11:06:49.000Z</Time>
            <Position>
              <LatitudeDegrees>39.81401450000703334808349609375</LatitudeDegrees>
              <LongitudeDegrees>-6.3670544140040874481201171875</LongitudeDegrees>
            </Position>
            <AltitudeMeters>368</AltitudeMeters>
            <DistanceMeters>NAN</DistanceMeters>
          </Trackpoint>
          <Trackpoint>
            <Time>2019-10-08T11:06:50.000Z</Time>
            <Position>
              <LatitudeDegrees>39.81392716057598590850830078125</LatitudeDegrees>
              <LongitudeDegrees>-6.3671100698411464691162109375</LongitudeDegrees>
            </Position>
            <AltitudeMeters>366.79998779296875</AltitudeMeters>
            <DistanceMeters>NAN</DistanceMeters>
          </Trackpoint>
          <Trackpoint>
            <Time>2019-10-08T11:06:51.000Z</Time>
            <Position>
              <LatitudeDegrees>39.81384200043976306915283203125</LatitudeDegrees>
              <LongitudeDegrees>-6.367168910801410675048828125</LongitudeDegrees>
            </Position>
            <AltitudeMeters>367</AltitudeMeters>
            <DistanceMeters>NAN</DistanceMeters>
          </Trackpoint>
          <Trackpoint>
            <Time>2019-10-08T11:06:52.000Z</Time>
            <Position>
              <LatitudeDegrees>39.81375549919903278350830078125</LatitudeDegrees>
              <LongitudeDegrees>-6.3672267459332942962646484375</LongitudeDegrees>
            </Position>
            <AltitudeMeters>367</AltitudeMeters>
            <DistanceMeters>NAN</DistanceMeters>
          </Trackpoint>
          <Trackpoint>
            <Time>2019-10-08T11:06:54.000Z</Time>
            <Position>
              <LatitudeDegrees>39.81358450837433338165283203125</LatitudeDegrees>
              <LongitudeDegrees>-6.36734426021575927734375</LongitudeDegrees>
            </Position>
            <AltitudeMeters>366.20001220703125</AltitudeMeters>
            <DistanceMeters>NAN</DistanceMeters>
          </Trackpoint>
          <Trackpoint>
            <Time>2019-10-08T11:06:55.000Z</Time>
            <Position>
              <LatitudeDegrees>39.81349758803844451904296875</LatitudeDegrees>
              <LongitudeDegrees>-6.36740217916667461395263671875</LongitudeDegrees>
            </Position>
            <AltitudeMeters>365.79998779296875</AltitudeMeters>
            <DistanceMeters>NAN</DistanceMeters>
          </Trackpoint>
          <Trackpoint>
            <Time>2019-10-08T11:06:56.000Z</Time>
            <Position>
              <LatitudeDegrees>39.81341050006449222564697265625</LatitudeDegrees>
              <LongitudeDegrees>-6.3674570806324481964111328125</LongitudeDegrees>
            </Position>
            <AltitudeMeters>364.600006103515625</AltitudeMeters>
            <DistanceMeters>NAN</DistanceMeters>
          </Trackpoint>
          <Trackpoint>
            <Time>2019-10-08T11:06:58.000Z</Time>
            <Position>
              <LatitudeDegrees>39.81323380954563617706298828125</LatitudeDegrees>
              <LongitudeDegrees>-6.367573924362659454345703125</LongitudeDegrees>
            </Position>
            <AltitudeMeters>364.20001220703125</AltitudeMeters>
            <DistanceMeters>NAN</DistanceMeters>
          </Trackpoint>
          <Trackpoint>
            <Time>2019-10-08T11:07:00.000Z</Time>
            <Position>
              <LatitudeDegrees>39.8130545206367969512939453125</LatitudeDegrees>
              <LongitudeDegrees>-6.36769093573093414306640625</LongitudeDegrees>
            </Position>
            <AltitudeMeters>364</AltitudeMeters>
            <DistanceMeters>NAN</DistanceMeters>
          </Trackpoint>
          <Trackpoint>
            <Time>2019-10-08T11:07:01.000Z</Time>
            <Position>
              <LatitudeDegrees>39.8129633255302906036376953125</LatitudeDegrees>
              <LongitudeDegrees>-6.3677507825195789337158203125</LongitudeDegrees>
            </Position>
            <AltitudeMeters>363</AltitudeMeters>
            <DistanceMeters>NAN</DistanceMeters>
          </Trackpoint>
          <Trackpoint>
            <Time>2019-10-08T11:07:03.000Z</Time>
            <Position>
              <LatitudeDegrees>39.81277783401310443878173828125</LatitudeDegrees>
              <LongitudeDegrees>-6.36787206865847110748291015625</LongitudeDegrees>
            </Position>
            <AltitudeMeters>362.600006103515625</AltitudeMeters>
            <DistanceMeters>NAN</DistanceMeters>
          </Trackpoint>
          <Trackpoint>
            <Time>2019-10-08T11:07:05.000Z</Time>
            <Position>
              <LatitudeDegrees>39.812592007219791412353515625</LatitudeDegrees>
              <LongitudeDegrees>-6.36799595318734645843505859375</LongitudeDegrees>
            </Position>
            <AltitudeMeters>361.20001220703125</AltitudeMeters>
            <DistanceMeters>NAN</DistanceMeters>
          </Trackpoint>
          <Trackpoint>
            <Time>2019-10-08T11:07:06.000Z</Time>
            <Position>
              <LatitudeDegrees>39.81249888427555561065673828125</LatitudeDegrees>
              <LongitudeDegrees>-6.36805261485278606414794921875</LongitudeDegrees>
            </Position>
            <AltitudeMeters>360.600006103515625</AltitudeMeters>
            <DistanceMeters>NAN</DistanceMeters>
          </Trackpoint>
          <Trackpoint>
            <Time>2019-10-08T11:07:08.000Z</Time>
            <Position>
              <LatitudeDegrees>39.81231548823416233062744140625</LatitudeDegrees>
              <LongitudeDegrees>-6.36817499063909053802490234375</LongitudeDegrees>
            </Position>
            <AltitudeMeters>360</AltitudeMeters>
            <DistanceMeters>NAN</DistanceMeters>
          </Trackpoint>
          <Trackpoint>
            <Time>2019-10-08T11:07:10.000Z</Time>
            <Position>
              <LatitudeDegrees>39.81213502585887908935546875</LatitudeDegrees>
              <LongitudeDegrees>-6.3683053292334079742431640625</LongitudeDegrees>
            </Position>
            <AltitudeMeters>359.399993896484375</AltitudeMeters>
            <DistanceMeters>NAN</DistanceMeters>
          </Trackpoint>
          <Trackpoint>
            <Time>2019-10-08T11:07:11.000Z</Time>
            <Position>
              <LatitudeDegrees>39.81204693205654621124267578125</LatitudeDegrees>
              <LongitudeDegrees>-6.36838085018098354339599609375</LongitudeDegrees>
            </Position>
            <AltitudeMeters>358.79998779296875</AltitudeMeters>
            <DistanceMeters>NAN</DistanceMeters>
          </Trackpoint>
          <Trackpoint>
            <Time>2019-10-08T11:07:13.000Z</Time>
            <Position>
              <LatitudeDegrees>39.81189421378076076507568359375</LatitudeDegrees>
              <LongitudeDegrees>-6.368569694459438323974609375</LongitudeDegrees>
            </Position>
            <AltitudeMeters>357.79998779296875</AltitudeMeters>
            <DistanceMeters>NAN</DistanceMeters>
          </Trackpoint>
          <Trackpoint>
            <Time>2019-10-08T11:07:16.000Z</Time>
            <Position>
              <LatitudeDegrees>39.81172858737409114837646484375</LatitudeDegrees>
              <LongitudeDegrees>-6.36892735026776790618896484375</LongitudeDegrees>
            </Position>
            <AltitudeMeters>356.20001220703125</AltitudeMeters>
            <DistanceMeters>NAN</DistanceMeters>
          </Trackpoint>
          <Trackpoint>
            <Time>2019-10-08T11:07:18.000Z</Time>
            <Position>
              <LatitudeDegrees>39.8116466961801052093505859375</LatitudeDegrees>
              <LongitudeDegrees>-6.36918836273252964019775390625</LongitudeDegrees>
            </Position>
            <AltitudeMeters>355.600006103515625</AltitudeMeters>
            <DistanceMeters>NAN</DistanceMeters>
          </Trackpoint>
          <Trackpoint>
            <Time>2019-10-08T11:07:20.000Z</Time>
            <Position>
              <LatitudeDegrees>39.81156866066157817840576171875</LatitudeDegrees>
              <LongitudeDegrees>-6.3694469444453716278076171875</LongitudeDegrees>
            </Position>
            <AltitudeMeters>353.600006103515625</AltitudeMeters>
            <DistanceMeters>NAN</DistanceMeters>
          </Trackpoint>
          <Trackpoint>
            <Time>2019-10-08T11:07:21.000Z</Time>
            <Position>
              <LatitudeDegrees>39.81152608059346675872802734375</LatitudeDegrees>
              <LongitudeDegrees>-6.36957493610680103302001953125</LongitudeDegrees>
            </Position>
            <AltitudeMeters>353.399993896484375</AltitudeMeters>
            <DistanceMeters>NAN</DistanceMeters>
          </Trackpoint>
          <Trackpoint>
            <Time>2019-10-08T11:07:22.000Z</Time>
            <Position>
              <LatitudeDegrees>39.8114857636392116546630859375</LatitudeDegrees>
              <LongitudeDegrees>-6.3697051070630550384521484375</LongitudeDegrees>
            </Position>
            <AltitudeMeters>352.399993896484375</AltitudeMeters>
            <DistanceMeters>NAN</DistanceMeters>
          </Trackpoint>
          <Trackpoint>
            <Time>2019-10-08T11:07:23.000Z</Time>
            <Position>
              <LatitudeDegrees>39.8114411719143390655517578125</LatitudeDegrees>
              <LongitudeDegrees>-6.36982974596321582794189453125</LongitudeDegrees>
            </Position>
            <AltitudeMeters>352.600006103515625</AltitudeMeters>
            <DistanceMeters>NAN</DistanceMeters>
          </Trackpoint>
          <Trackpoint>
            <Time>2019-10-08T11:07:25.000Z</Time>
            <Position>
              <LatitudeDegrees>39.81132424436509609222412109375</LatitudeDegrees>
              <LongitudeDegrees>-6.370064355432987213134765625</LongitudeDegrees>
            </Position>
            <AltitudeMeters>352.399993896484375</AltitudeMeters>
            <DistanceMeters>NAN</DistanceMeters>
          </Trackpoint>
          <Trackpoint>
            <Time>2019-10-08T11:07:26.000Z</Time>
            <Position>
              <LatitudeDegrees>39.8112487234175205230712890625</LatitudeDegrees>
              <LongitudeDegrees>-6.370166279375553131103515625</LongitudeDegrees>
            </Position>
            <AltitudeMeters>351.399993896484375</AltitudeMeters>
            <DistanceMeters>NAN</DistanceMeters>
          </Trackpoint>
          <Trackpoint>
            <Time>2019-10-08T11:07:27.000Z</Time>
            <Position>
              <LatitudeDegrees>39.81116431765258312225341796875</LatitudeDegrees>
              <LongitudeDegrees>-6.37025956995785236358642578125</LongitudeDegrees>
            </Position>
            <AltitudeMeters>350.600006103515625</AltitudeMeters>
            <DistanceMeters>NAN</DistanceMeters>
          </Trackpoint>
          <Trackpoint>
            <Time>2019-10-08T11:07:28.000Z</Time>
            <Position>
              <LatitudeDegrees>39.81106893159449100494384765625</LatitudeDegrees>
              <LongitudeDegrees>-6.3703362643718719482421875</LongitudeDegrees>
            </Position>
            <AltitudeMeters>349.600006103515625</AltitudeMeters>
            <DistanceMeters>NAN</DistanceMeters>
          </Trackpoint>
          <Trackpoint>
            <Time>2019-10-08T11:07:29.000Z</Time>
            <Position>
              <LatitudeDegrees>39.81097094714641571044921875</LatitudeDegrees>
              <LongitudeDegrees>-6.37040005065500736236572265625</LongitudeDegrees>
            </Position>
            <AltitudeMeters>349.399993896484375</AltitudeMeters>
            <DistanceMeters>NAN</DistanceMeters>
          </Trackpoint>
          <Trackpoint>
            <Time>2019-10-08T11:07:31.000Z</Time>
            <Position>
              <LatitudeDegrees>39.81075746007263660430908203125</LatitudeDegrees>
              <LongitudeDegrees>-6.3704837858676910400390625</LongitudeDegrees>
            </Position>
            <AltitudeMeters>348</AltitudeMeters>
            <DistanceMeters>NAN</DistanceMeters>
          </Trackpoint>
          <Trackpoint>
            <Time>2019-10-08T11:07:32.000Z</Time>
            <Position>
              <LatitudeDegrees>39.810650758445262908935546875</LatitudeDegrees>
              <LongitudeDegrees>-6.37051857076585292816162109375</LongitudeDegrees>
            </Position>
            <AltitudeMeters>347.20001220703125</AltitudeMeters>
            <DistanceMeters>NAN</DistanceMeters>
          </Trackpoint>
          <Trackpoint>
            <Time>2019-10-08T11:07:33.000Z</Time>
            <Position>
              <LatitudeDegrees>39.81054254807531833648681640625</LatitudeDegrees>
              <LongitudeDegrees>-6.3705500029027462005615234375</LongitudeDegrees>
            </Position>
            <AltitudeMeters>346.399993896484375</AltitudeMeters>
            <DistanceMeters>NAN</DistanceMeters>
          </Trackpoint>
          <Trackpoint>
            <Time>2019-10-08T11:07:35.000Z</Time>
            <Position>
              <LatitudeDegrees>39.81032126583158969879150390625</LatitudeDegrees>
              <LongitudeDegrees>-6.37060859240591526031494140625</LongitudeDegrees>
            </Position>
            <AltitudeMeters>345.20001220703125</AltitudeMeters>
            <DistanceMeters>NAN</DistanceMeters>
          </Trackpoint>
          <Trackpoint>
            <Time>2019-10-08T11:07:37.000Z</Time>
            <Position>
              <LatitudeDegrees>39.8101012408733367919921875</LatitudeDegrees>
              <LongitudeDegrees>-6.37065947055816650390625</LongitudeDegrees>
            </Position>
            <AltitudeMeters>344</AltitudeMeters>
            <DistanceMeters>NAN</DistanceMeters>
          </Trackpoint>
          <Trackpoint>
            <Time>2019-10-08T11:07:39.000Z</Time>
            <Position>
              <LatitudeDegrees>39.80988557450473308563232421875</LatitudeDegrees>
              <LongitudeDegrees>-6.3707069121301174163818359375</LongitudeDegrees>
            </Position>
            <AltitudeMeters>342.600006103515625</AltitudeMeters>
            <DistanceMeters>NAN</DistanceMeters>
          </Trackpoint>
          <Trackpoint>
            <Time>2019-10-08T11:07:44.000Z</Time>
            <Position>
              <LatitudeDegrees>39.80935835279524326324462890625</LatitudeDegrees>
              <LongitudeDegrees>-6.370791904628276824951171875</LongitudeDegrees>
            </Position>
            <AltitudeMeters>341.399993896484375</AltitudeMeters>
            <DistanceMeters>NAN</DistanceMeters>
          </Trackpoint>
          <Trackpoint>
            <Time>2019-10-08T11:07:45.000Z</Time>
            <Position>
              <LatitudeDegrees>39.80925693176686763763427734375</LatitudeDegrees>
              <LongitudeDegrees>-6.37075896374881267547607421875</LongitudeDegrees>
            </Position>
            <AltitudeMeters>341</AltitudeMeters>
            <DistanceMeters>NAN</DistanceMeters>
          </Trackpoint>
          <Trackpoint>
            <Time>2019-10-08T11:07:47.000Z</Time>
            <Position>
              <LatitudeDegrees>39.8090774752199649810791015625</LatitudeDegrees>
              <LongitudeDegrees>-6.37062032707035541534423828125</LongitudeDegrees>
            </Position>
            <AltitudeMeters>340.399993896484375</AltitudeMeters>
            <DistanceMeters>NAN</DistanceMeters>
          </Trackpoint>
          <Trackpoint>
            <Time>2019-10-08T11:07:48.000Z</Time>
            <Position>
              <LatitudeDegrees>39.8090047203004360198974609375</LatitudeDegrees>
              <LongitudeDegrees>-6.37052376754581928253173828125</LongitudeDegrees>
            </Position>
            <AltitudeMeters>340</AltitudeMeters>
            <DistanceMeters>NAN</DistanceMeters>
          </Trackpoint>
          <Trackpoint>
            <Time>2019-10-08T11:07:50.000Z</Time>
            <Position>
              <LatitudeDegrees>39.808896593749523162841796875</LatitudeDegrees>
              <LongitudeDegrees>-6.37030097655951976776123046875</LongitudeDegrees>
            </Position>
            <AltitudeMeters>340</AltitudeMeters>
            <DistanceMeters>NAN</DistanceMeters>
          </Trackpoint>
          <Trackpoint>
            <Time>2019-10-08T11:07:51.000Z</Time>
            <Position>
              <LatitudeDegrees>39.80885359458625316619873046875</LatitudeDegrees>
              <LongitudeDegrees>-6.37017910368740558624267578125</LongitudeDegrees>
            </Position>
            <AltitudeMeters>339.79998779296875</AltitudeMeters>
            <DistanceMeters>NAN</DistanceMeters>
          </Trackpoint>
          <Trackpoint>
            <Time>2019-10-08T11:07:52.000Z</Time>
            <Position>
              <LatitudeDegrees>39.80881310999393463134765625</LatitudeDegrees>
              <LongitudeDegrees>-6.37005421333014965057373046875</LongitudeDegrees>
            </Position>
            <AltitudeMeters>339.399993896484375</AltitudeMeters>
            <DistanceMeters>NAN</DistanceMeters>
          </Trackpoint>
          <Trackpoint>
            <Time>2019-10-08T11:07:55.000Z</Time>
            <Position>
              <LatitudeDegrees>39.8086808435618877410888671875</LatitudeDegrees>
              <LongitudeDegrees>-6.3696846552193164825439453125</LongitudeDegrees>
            </Position>
            <AltitudeMeters>337.79998779296875</AltitudeMeters>
            <DistanceMeters>NAN</DistanceMeters>
          </Trackpoint>
          <Trackpoint>
            <Time>2019-10-08T11:07:58.000Z</Time>
            <Position>
              <LatitudeDegrees>39.80854799039661884307861328125</LatitudeDegrees>
              <LongitudeDegrees>-6.36931367218494415283203125</LongitudeDegrees>
            </Position>
            <AltitudeMeters>336.600006103515625</AltitudeMeters>
            <DistanceMeters>NAN</DistanceMeters>
          </Trackpoint>
          <Trackpoint>
            <Time>2019-10-08T11:08:00.000Z</Time>
            <Position>
              <LatitudeDegrees>39.808457382023334503173828125</LatitudeDegrees>
              <LongitudeDegrees>-6.36906732805073261260986328125</LongitudeDegrees>
            </Position>
            <AltitudeMeters>335.600006103515625</AltitudeMeters>
            <DistanceMeters>NAN</DistanceMeters>
          </Trackpoint>
          <Trackpoint>
            <Time>2019-10-08T11:08:03.000Z</Time>
            <Position>
              <LatitudeDegrees>39.80830558575689792633056640625</LatitudeDegrees>
              <LongitudeDegrees>-6.36870724149048328399658203125</LongitudeDegrees>
            </Position>
            <AltitudeMeters>333.79998779296875</AltitudeMeters>
            <DistanceMeters>NAN</DistanceMeters>
          </Trackpoint>
          <Trackpoint>
            <Time>2019-10-08T11:08:06.000Z</Time>
            <Position>
              <LatitudeDegrees>39.8081273026764392852783203125</LatitudeDegrees>
              <LongitudeDegrees>-6.3683616556227207183837890625</LongitudeDegrees>
            </Position>
            <AltitudeMeters>332.600006103515625</AltitudeMeters>
            <DistanceMeters>NAN</DistanceMeters>
          </Trackpoint>
          <Trackpoint>
            <Time>2019-10-08T11:08:08.000Z</Time>
            <Position>
              <LatitudeDegrees>39.80798874981701374053955078125</LatitudeDegrees>
              <LongitudeDegrees>-6.36814917437732219696044921875</LongitudeDegrees>
            </Position>
            <AltitudeMeters>331.600006103515625</AltitudeMeters>
            <DistanceMeters>NAN</DistanceMeters>
          </Trackpoint>
          <Trackpoint>
            <Time>2019-10-08T11:08:11.000Z</Time>
            <Position>
              <LatitudeDegrees>39.80776210315525531768798828125</LatitudeDegrees>
              <LongitudeDegrees>-6.3678449951112270355224609375</LongitudeDegrees>
            </Position>
            <AltitudeMeters>329.600006103515625</AltitudeMeters>
            <DistanceMeters>NAN</DistanceMeters>
          </Trackpoint>
          <Trackpoint>
            <Time>2019-10-08T11:08:13.000Z</Time>
            <Position>
              <LatitudeDegrees>39.8075814731419086456298828125</LatitudeDegrees>
              <LongitudeDegrees>-6.36767978779971599578857421875</LongitudeDegrees>
            </Position>
            <AltitudeMeters>328.600006103515625</AltitudeMeters>
            <DistanceMeters>NAN</DistanceMeters>
          </Trackpoint>
          <Trackpoint>
            <Time>2019-10-08T11:08:14.000Z</Time>
            <Position>
              <LatitudeDegrees>39.80748139321804046630859375</LatitudeDegrees>
              <LongitudeDegrees>-6.367617510259151458740234375</LongitudeDegrees>
            </Position>
            <AltitudeMeters>328.20001220703125</AltitudeMeters>
            <DistanceMeters>NAN</DistanceMeters>
          </Trackpoint>
          <Trackpoint>
            <Time>2019-10-08T11:08:16.000Z</Time>
            <Position>
              <LatitudeDegrees>39.80725935660302639007568359375</LatitudeDegrees>
              <LongitudeDegrees>-6.367553137242794036865234375</LongitudeDegrees>
            </Position>
            <AltitudeMeters>327.20001220703125</AltitudeMeters>
            <DistanceMeters>NAN</DistanceMeters>
          </Trackpoint>
          <Trackpoint>
            <Time>2019-10-08T11:08:17.000Z</Time>
            <Position>
              <LatitudeDegrees>39.8071427643299102783203125</LatitudeDegrees>
              <LongitudeDegrees>-6.36754768900573253631591796875</LongitudeDegrees>
            </Position>
            <AltitudeMeters>326</AltitudeMeters>
            <DistanceMeters>NAN</DistanceMeters>
          </Trackpoint>
          <Trackpoint>
            <Time>2019-10-08T11:08:18.000Z</Time>
            <Position>
              <LatitudeDegrees>39.8070247471332550048828125</LatitudeDegrees>
              <LongitudeDegrees>-6.36756327934563159942626953125</LongitudeDegrees>
            </Position>
            <AltitudeMeters>324.600006103515625</AltitudeMeters>
            <DistanceMeters>NAN</DistanceMeters>
          </Trackpoint>
          <Trackpoint>
            <Time>2019-10-08T11:08:20.000Z</Time>
            <Position>
              <LatitudeDegrees>39.806792736053466796875</LatitudeDegrees>
              <LongitudeDegrees>-6.36762312613427639007568359375</LongitudeDegrees>
            </Position>
            <AltitudeMeters>324</AltitudeMeters>
            <DistanceMeters>NAN</DistanceMeters>
          </Trackpoint>
          <Trackpoint>
            <Time>2019-10-08T11:08:22.000Z</Time>
            <Position>
              <LatitudeDegrees>39.806562401354312896728515625</LatitudeDegrees>
              <LongitudeDegrees>-6.367676518857479095458984375</LongitudeDegrees>
            </Position>
            <AltitudeMeters>322.79998779296875</AltitudeMeters>
            <DistanceMeters>NAN</DistanceMeters>
          </Trackpoint>
          <Trackpoint>
            <Time>2019-10-08T11:08:24.000Z</Time>
            <Position>
              <LatitudeDegrees>39.80633072555065155029296875</LatitudeDegrees>
              <LongitudeDegrees>-6.36773577891290187835693359375</LongitudeDegrees>
            </Position>
            <AltitudeMeters>321.399993896484375</AltitudeMeters>
            <DistanceMeters>NAN</DistanceMeters>
          </Trackpoint>
          <Trackpoint>
            <Time>2019-10-08T11:08:25.000Z</Time>
            <Position>
              <LatitudeDegrees>39.806215725839138031005859375</LatitudeDegrees>
              <LongitudeDegrees>-6.36776603758335113525390625</LongitudeDegrees>
            </Position>
            <AltitudeMeters>320.20001220703125</AltitudeMeters>
            <DistanceMeters>NAN</DistanceMeters>
          </Trackpoint>
          <Trackpoint>
            <Time>2019-10-08T11:08:29.000Z</Time>
            <Position>
              <LatitudeDegrees>39.8057599179446697235107421875</LatitudeDegrees>
              <LongitudeDegrees>-6.3678793609142303466796875</LongitudeDegrees>
            </Position>
            <AltitudeMeters>319.399993896484375</AltitudeMeters>
            <DistanceMeters>NAN</DistanceMeters>
          </Trackpoint>
          <Trackpoint>
            <Time>2019-10-08T11:08:30.000Z</Time>
            <Position>
              <LatitudeDegrees>39.80564617551863193511962890625</LatitudeDegrees>
              <LongitudeDegrees>-6.36790593154728412628173828125</LongitudeDegrees>
            </Position>
            <AltitudeMeters>318.600006103515625</AltitudeMeters>
            <DistanceMeters>NAN</DistanceMeters>
          </Trackpoint>
          <Trackpoint>
            <Time>2019-10-08T11:08:32.000Z</Time>
            <Position>
              <LatitudeDegrees>39.80541952885687351226806640625</LatitudeDegrees>
              <LongitudeDegrees>-6.36796720325946807861328125</LongitudeDegrees>
            </Position>
            <AltitudeMeters>317.79998779296875</AltitudeMeters>
            <DistanceMeters>NAN</DistanceMeters>
          </Trackpoint>
          <Trackpoint>
            <Time>2019-10-08T11:08:33.000Z</Time>
            <Position>
              <LatitudeDegrees>39.80530519969761371612548828125</LatitudeDegrees>
              <LongitudeDegrees>-6.36799402534961700439453125</LongitudeDegrees>
            </Position>
            <AltitudeMeters>317.20001220703125</AltitudeMeters>
            <DistanceMeters>NAN</DistanceMeters>
          </Trackpoint>
          <Trackpoint>
            <Time>2019-10-08T11:08:34.000Z</Time>
            <Position>
              <LatitudeDegrees>39.8051912896335124969482421875</LatitudeDegrees>
              <LongitudeDegrees>-6.36802143417298793792724609375</LongitudeDegrees>
            </Position>
            <AltitudeMeters>316</AltitudeMeters>
            <DistanceMeters>NAN</DistanceMeters>
          </Trackpoint>
          <Trackpoint>
            <Time>2019-10-08T11:08:36.000Z</Time>
            <Position>
              <LatitudeDegrees>39.80496145784854888916015625</LatitudeDegrees>
              <LongitudeDegrees>-6.36807491071522235870361328125</LongitudeDegrees>
            </Position>
            <AltitudeMeters>314.600006103515625</AltitudeMeters>
            <DistanceMeters>NAN</DistanceMeters>
          </Trackpoint>
          <Trackpoint>
            <Time>2019-10-08T11:08:37.000Z</Time>
            <Position>
              <LatitudeDegrees>39.8048472963273525238037109375</LatitudeDegrees>
              <LongitudeDegrees>-6.3681028224527835845947265625</LongitudeDegrees>
            </Position>
            <AltitudeMeters>314.399993896484375</AltitudeMeters>
            <DistanceMeters>NAN</DistanceMeters>
          </Trackpoint>
          <Trackpoint>
            <Time>2019-10-08T11:08:38.000Z</Time>
            <Position>
              <LatitudeDegrees>39.80473321862518787384033203125</LatitudeDegrees>
              <LongitudeDegrees>-6.36813618242740631103515625</LongitudeDegrees>
            </Position>
            <AltitudeMeters>313.20001220703125</AltitudeMeters>
            <DistanceMeters>NAN</DistanceMeters>
          </Trackpoint>
          <Trackpoint>
            <Time>2019-10-08T11:08:39.000Z</Time>
            <Position>
              <LatitudeDegrees>39.80462006293237209320068359375</LatitudeDegrees>
              <LongitudeDegrees>-6.36816836893558502197265625</LongitudeDegrees>
            </Position>
            <AltitudeMeters>313</AltitudeMeters>
            <DistanceMeters>NAN</DistanceMeters>
          </Trackpoint>
          <Trackpoint>
            <Time>2019-10-08T11:08:41.000Z</Time>
            <Position>
              <LatitudeDegrees>39.80439827777445316314697265625</LatitudeDegrees>
              <LongitudeDegrees>-6.36822612024843692779541015625</LongitudeDegrees>
            </Position>
            <AltitudeMeters>312.399993896484375</AltitudeMeters>
            <DistanceMeters>NAN</DistanceMeters>
          </Trackpoint>
          <Trackpoint>
            <Time>2019-10-08T11:08:42.000Z</Time>
            <Position>
              <LatitudeDegrees>39.8042897321283817291259765625</LatitudeDegrees>
              <LongitudeDegrees>-6.3682547025382518768310546875</LongitudeDegrees>
            </Position>
            <AltitudeMeters>311.20001220703125</AltitudeMeters>
            <DistanceMeters>NAN</DistanceMeters>
          </Trackpoint>
          <Trackpoint>
            <Time>2019-10-08T11:08:44.000Z</Time>
            <Position>
              <LatitudeDegrees>39.8040801845490932464599609375</LatitudeDegrees>
              <LongitudeDegrees>-6.3683033175766468048095703125</LongitudeDegrees>
            </Position>
            <AltitudeMeters>310.79998779296875</AltitudeMeters>
            <DistanceMeters>NAN</DistanceMeters>
          </Trackpoint>
          <Trackpoint>
            <Time>2019-10-08T11:08:45.000Z</Time>
            <Position>
              <LatitudeDegrees>39.803982116281986236572265625</LatitudeDegrees>
              <LongitudeDegrees>-6.36832519434392452239990234375</LongitudeDegrees>
            </Position>
            <AltitudeMeters>310.79998779296875</AltitudeMeters>
            <DistanceMeters>NAN</DistanceMeters>
          </Trackpoint>
          <Trackpoint>
            <Time>2019-10-08T11:08:50.000Z</Time>
            <Position>
              <LatitudeDegrees>39.80351842939853668212890625</LatitudeDegrees>
              <LongitudeDegrees>-6.36844052933156490325927734375</LongitudeDegrees>
            </Position>
            <AltitudeMeters>311</AltitudeMeters>
            <DistanceMeters>NAN</DistanceMeters>
          </Trackpoint>
          <Trackpoint>
            <Time>2019-10-08T11:08:51.000Z</Time>
            <Position>
              <LatitudeDegrees>39.80343016795814037322998046875</LatitudeDegrees>
              <LongitudeDegrees>-6.368463747203350067138671875</LongitudeDegrees>
            </Position>
            <AltitudeMeters>311.20001220703125</AltitudeMeters>
            <DistanceMeters>NAN</DistanceMeters>
          </Trackpoint>
          <Trackpoint>
            <Time>2019-10-08T11:08:53.000Z</Time>
            <Position>
              <LatitudeDegrees>39.8032540641725063323974609375</LatitudeDegrees>
              <LongitudeDegrees>-6.3685091771185398101806640625</LongitudeDegrees>
            </Position>
            <AltitudeMeters>312</AltitudeMeters>
            <DistanceMeters>NAN</DistanceMeters>
          </Trackpoint>
          <Trackpoint>
            <Time>2019-10-08T11:08:58.000Z</Time>
            <Position>
              <LatitudeDegrees>39.8028232343494892120361328125</LatitudeDegrees>
              <LongitudeDegrees>-6.3686489872634410858154296875</LongitudeDegrees>
            </Position>
            <AltitudeMeters>311.399993896484375</AltitudeMeters>
            <DistanceMeters>NAN</DistanceMeters>
          </Trackpoint>
          <Trackpoint>
            <Time>2019-10-08T11:09:00.000Z</Time>
            <Position>
              <LatitudeDegrees>39.802658446133136749267578125</LatitudeDegrees>
              <LongitudeDegrees>-6.36872316710650920867919921875</LongitudeDegrees>
            </Position>
            <AltitudeMeters>310.399993896484375</AltitudeMeters>
            <DistanceMeters>NAN</DistanceMeters>
          </Trackpoint>
          <Trackpoint>
            <Time>2019-10-08T11:09:03.000Z</Time>
            <Position>
              <LatitudeDegrees>39.80242903344333171844482421875</LatitudeDegrees>
              <LongitudeDegrees>-6.3688719458878040313720703125</LongitudeDegrees>
            </Position>
            <AltitudeMeters>310.79998779296875</AltitudeMeters>
            <DistanceMeters>NAN</DistanceMeters>
          </Trackpoint>
          <Trackpoint>
            <Time>2019-10-08T11:09:05.000Z</Time>
            <Position>
              <LatitudeDegrees>39.8022881336510181427001953125</LatitudeDegrees>
              <LongitudeDegrees>-6.3689924776554107666015625</LongitudeDegrees>
            </Position>
            <AltitudeMeters>311</AltitudeMeters>
            <DistanceMeters>NAN</DistanceMeters>
          </Trackpoint>
          <Trackpoint>
            <Time>2019-10-08T11:09:09.000Z</Time>
            <Position>
              <LatitudeDegrees>39.80201949365437030792236328125</LatitudeDegrees>
              <LongitudeDegrees>-6.36926983483135700225830078125</LongitudeDegrees>
            </Position>
            <AltitudeMeters>310.399993896484375</AltitudeMeters>
            <DistanceMeters>NAN</DistanceMeters>
          </Trackpoint>
          <Trackpoint>
            <Time>2019-10-08T11:09:10.000Z</Time>
            <Position>
              <LatitudeDegrees>39.80195939540863037109375</LatitudeDegrees>
              <LongitudeDegrees>-6.36935030110180377960205078125</LongitudeDegrees>
            </Position>
            <AltitudeMeters>309.79998779296875</AltitudeMeters>
            <DistanceMeters>NAN</DistanceMeters>
          </Trackpoint>
          <Trackpoint>
            <Time>2019-10-08T11:09:11.000Z</Time>
            <Position>
              <LatitudeDegrees>39.80190080590546131134033203125</LatitudeDegrees>
              <LongitudeDegrees>-6.369429342448711395263671875</LongitudeDegrees>
            </Position>
            <AltitudeMeters>309.600006103515625</AltitudeMeters>
            <DistanceMeters>NAN</DistanceMeters>
          </Trackpoint>
          <Trackpoint>
            <Time>2019-10-08T11:09:17.000Z</Time>
            <Position>
              <LatitudeDegrees>39.80159989558160305023193359375</LatitudeDegrees>
              <LongitudeDegrees>-6.36996209621429443359375</LongitudeDegrees>
            </Position>
            <AltitudeMeters>309</AltitudeMeters>
            <DistanceMeters>NAN</DistanceMeters>
          </Trackpoint>
          <Trackpoint>
            <Time>2019-10-08T11:09:20.000Z</Time>
            <Position>
              <LatitudeDegrees>39.8014663718640804290771484375</LatitudeDegrees>
              <LongitudeDegrees>-6.37024900875985622406005859375</LongitudeDegrees>
            </Position>
            <AltitudeMeters>308.79998779296875</AltitudeMeters>
            <DistanceMeters>NAN</DistanceMeters>
          </Trackpoint>
          <Trackpoint>
            <Time>2019-10-08T11:09:23.000Z</Time>
            <Position>
              <LatitudeDegrees>39.80134625919163227081298828125</LatitudeDegrees>
              <LongitudeDegrees>-6.37054438702762126922607421875</LongitudeDegrees>
            </Position>
            <AltitudeMeters>308</AltitudeMeters>
            <DistanceMeters>NAN</DistanceMeters>
          </Trackpoint>
          <Trackpoint>
            <Time>2019-10-08T11:09:30.000Z</Time>
            <Position>
              <LatitudeDegrees>39.801066219806671142578125</LatitudeDegrees>
              <LongitudeDegrees>-6.37121326290071010589599609375</LongitudeDegrees>
            </Position>
            <AltitudeMeters>308.20001220703125</AltitudeMeters>
            <DistanceMeters>NAN</DistanceMeters>
          </Trackpoint>
          <Trackpoint>
            <Time>2019-10-08T11:09:31.000Z</Time>
            <Position>
              <LatitudeDegrees>39.8010274954140186309814453125</LatitudeDegrees>
              <LongitudeDegrees>-6.3713050447404384613037109375</LongitudeDegrees>
            </Position>
            <AltitudeMeters>308.399993896484375</AltitudeMeters>
            <DistanceMeters>NAN</DistanceMeters>
          </Trackpoint>
          <Trackpoint>
            <Time>2019-10-08T11:09:38.000Z</Time>
            <Position>
              <LatitudeDegrees>39.8007663153111934661865234375</LatitudeDegrees>
              <LongitudeDegrees>-6.37191801331937313079833984375</LongitudeDegrees>
            </Position>
            <AltitudeMeters>308.399993896484375</AltitudeMeters>
            <DistanceMeters>NAN</DistanceMeters>
          </Trackpoint>
          <Trackpoint>
            <Time>2019-10-08T11:09:42.000Z</Time>
            <Position>
              <LatitudeDegrees>39.80059389956295490264892578125</LatitudeDegrees>
              <LongitudeDegrees>-6.37222646735608577728271484375</LongitudeDegrees>
            </Position>
            <AltitudeMeters>310</AltitudeMeters>
            <DistanceMeters>NAN</DistanceMeters>
          </Trackpoint>
          <Trackpoint>
            <Time>2019-10-08T11:09:45.000Z</Time>
            <Position>
              <LatitudeDegrees>39.800447635352611541748046875</LatitudeDegrees>
              <LongitudeDegrees>-6.372442804276943206787109375</LongitudeDegrees>
            </Position>
            <AltitudeMeters>310</AltitudeMeters>
            <DistanceMeters>NAN</DistanceMeters>
          </Trackpoint>
          <Trackpoint>
            <Time>2019-10-08T11:09:48.000Z</Time>
            <Position>
              <LatitudeDegrees>39.8002878762781620025634765625</LatitudeDegrees>
              <LongitudeDegrees>-6.3726391084492206573486328125</LongitudeDegrees>
            </Position>
            <AltitudeMeters>308.79998779296875</AltitudeMeters>
            <DistanceMeters>NAN</DistanceMeters>
          </Trackpoint>
          <Trackpoint>
            <Time>2019-10-08T11:09:51.000Z</Time>
            <Position>
              <LatitudeDegrees>39.80011395178735256195068359375</LatitudeDegrees>
              <LongitudeDegrees>-6.3728065788745880126953125</LongitudeDegrees>
            </Position>
            <AltitudeMeters>309.20001220703125</AltitudeMeters>
            <DistanceMeters>NAN</DistanceMeters>
          </Trackpoint>
          <Trackpoint>
            <Time>2019-10-08T11:09:55.000Z</Time>
            <Position>
              <LatitudeDegrees>39.79987104423344135284423828125</LatitudeDegrees>
              <LongitudeDegrees>-6.3729898072779178619384765625</LongitudeDegrees>
            </Position>
            <AltitudeMeters>310</AltitudeMeters>
            <DistanceMeters>NAN</DistanceMeters>
          </Trackpoint>
          <Trackpoint>
            <Time>2019-10-08T11:09:57.000Z</Time>
            <Position>
              <LatitudeDegrees>39.79974866844713687896728515625</LatitudeDegrees>
              <LongitudeDegrees>-6.37306951917707920074462890625</LongitudeDegrees>
            </Position>
            <AltitudeMeters>309.600006103515625</AltitudeMeters>
            <DistanceMeters>NAN</DistanceMeters>
          </Trackpoint>
          <Trackpoint>
            <Time>2019-10-08T11:10:05.000Z</Time>
            <Position>
              <LatitudeDegrees>39.7992490231990814208984375</LatitudeDegrees>
              <LongitudeDegrees>-6.3733470439910888671875</LongitudeDegrees>
            </Position>
            <AltitudeMeters>309.600006103515625</AltitudeMeters>
            <DistanceMeters>NAN</DistanceMeters>
          </Trackpoint>
          <Trackpoint>
            <Time>2019-10-08T11:10:13.000Z</Time>
            <Position>
              <LatitudeDegrees>39.79874183423817157745361328125</LatitudeDegrees>
              <LongitudeDegrees>-6.37361803092062473297119140625</LongitudeDegrees>
            </Position>
            <AltitudeMeters>310</AltitudeMeters>
            <DistanceMeters>NAN</DistanceMeters>
          </Trackpoint>
          <Trackpoint>
            <Time>2019-10-08T11:10:17.000Z</Time>
            <Position>
              <LatitudeDegrees>39.7984790615737438201904296875</LatitudeDegrees>
              <LongitudeDegrees>-6.373761780560016632080078125</LongitudeDegrees>
            </Position>
            <AltitudeMeters>309.79998779296875</AltitudeMeters>
            <DistanceMeters>NAN</DistanceMeters>
          </Trackpoint>
          <Trackpoint>
            <Time>2019-10-08T11:10:23.000Z</Time>
            <Position>
              <LatitudeDegrees>39.79807329364120960235595703125</LatitudeDegrees>
              <LongitudeDegrees>-6.37398348189890384674072265625</LongitudeDegrees>
            </Position>
            <AltitudeMeters>308.399993896484375</AltitudeMeters>
            <DistanceMeters>NAN</DistanceMeters>
          </Trackpoint>
          <Trackpoint>
            <Time>2019-10-08T11:10:25.000Z</Time>
            <Position>
              <LatitudeDegrees>39.79794085957109928131103515625</LatitudeDegrees>
              <LongitudeDegrees>-6.37406864203512668609619140625</LongitudeDegrees>
            </Position>
            <AltitudeMeters>307.20001220703125</AltitudeMeters>
            <DistanceMeters>NAN</DistanceMeters>
          </Trackpoint>
          <Trackpoint>
            <Time>2019-10-08T11:10:27.000Z</Time>
            <Position>
              <LatitudeDegrees>39.79781244881451129913330078125</LatitudeDegrees>
              <LongitudeDegrees>-6.37416402809321880340576171875</LongitudeDegrees>
            </Position>
            <AltitudeMeters>308</AltitudeMeters>
            <DistanceMeters>NAN</DistanceMeters>
          </Trackpoint>
          <Trackpoint>
            <Time>2019-10-08T11:10:34.000Z</Time>
            <Position>
              <LatitudeDegrees>39.79737591929733753204345703125</LatitudeDegrees>
              <LongitudeDegrees>-6.3745701313018798828125</LongitudeDegrees>
            </Position>
            <AltitudeMeters>305.79998779296875</AltitudeMeters>
            <DistanceMeters>NAN</DistanceMeters>
          </Trackpoint>
          <Trackpoint>
            <Time>2019-10-08T11:10:35.000Z</Time>
            <Position>
              <LatitudeDegrees>39.797323532402515411376953125</LatitudeDegrees>
              <LongitudeDegrees>-6.3746470771729946136474609375</LongitudeDegrees>
            </Position>
            <AltitudeMeters>305.79998779296875</AltitudeMeters>
            <DistanceMeters>NAN</DistanceMeters>
          </Trackpoint>
          <Trackpoint>
            <Time>2019-10-08T11:10:38.000Z</Time>
            <Position>
              <LatitudeDegrees>39.7971729934215545654296875</LatitudeDegrees>
              <LongitudeDegrees>-6.3748844526708126068115234375</LongitudeDegrees>
            </Position>
            <AltitudeMeters>305.79998779296875</AltitudeMeters>
            <DistanceMeters>NAN</DistanceMeters>
          </Trackpoint>
          <Trackpoint>
            <Time>2019-10-08T11:10:40.000Z</Time>
            <Position>
              <LatitudeDegrees>39.7970752604305744171142578125</LatitudeDegrees>
              <LongitudeDegrees>-6.37505133636295795440673828125</LongitudeDegrees>
            </Position>
            <AltitudeMeters>305.20001220703125</AltitudeMeters>
            <DistanceMeters>NAN</DistanceMeters>
          </Trackpoint>
          <Trackpoint>
            <Time>2019-10-08T11:10:41.000Z</Time>
            <Position>
              <LatitudeDegrees>39.79703896678984165191650390625</LatitudeDegrees>
              <LongitudeDegrees>-6.37515141628682613372802734375</LongitudeDegrees>
            </Position>
            <AltitudeMeters>304.79998779296875</AltitudeMeters>
            <DistanceMeters>NAN</DistanceMeters>
          </Trackpoint>
          <Trackpoint>
            <Time>2019-10-08T11:10:42.000Z</Time>
            <Position>
              <LatitudeDegrees>39.79700460098683834075927734375</LatitudeDegrees>
              <LongitudeDegrees>-6.375253088772296905517578125</LongitudeDegrees>
            </Position>
            <AltitudeMeters>304.20001220703125</AltitudeMeters>
            <DistanceMeters>NAN</DistanceMeters>
          </Trackpoint>
          <Trackpoint>
            <Time>2019-10-08T11:10:43.000Z</Time>
            <Position>
              <LatitudeDegrees>39.79697073809802532196044921875</LatitudeDegrees>
              <LongitudeDegrees>-6.37534839101135730743408203125</LongitudeDegrees>
            </Position>
            <AltitudeMeters>303.79998779296875</AltitudeMeters>
            <DistanceMeters>NAN</DistanceMeters>
          </Trackpoint>
          <Trackpoint>
            <Time>2019-10-08T11:10:46.000Z</Time>
            <Position>
              <LatitudeDegrees>39.7968806326389312744140625</LatitudeDegrees>
              <LongitudeDegrees>-6.37566589750349521636962890625</LongitudeDegrees>
            </Position>
            <AltitudeMeters>302.600006103515625</AltitudeMeters>
            <DistanceMeters>NAN</DistanceMeters>
          </Trackpoint>
          <Trackpoint>
            <Time>2019-10-08T11:10:48.000Z</Time>
            <Position>
              <LatitudeDegrees>39.79683076031506061553955078125</LatitudeDegrees>
              <LongitudeDegrees>-6.37588684447109699249267578125</LongitudeDegrees>
            </Position>
            <AltitudeMeters>302.20001220703125</AltitudeMeters>
            <DistanceMeters>NAN</DistanceMeters>
          </Trackpoint>
          <Trackpoint>
            <Time>2019-10-08T11:10:51.000Z</Time>
            <Position>
              <LatitudeDegrees>39.79675767011940479278564453125</LatitudeDegrees>
              <LongitudeDegrees>-6.37623603455722332000732421875</LongitudeDegrees>
            </Position>
            <AltitudeMeters>301.600006103515625</AltitudeMeters>
            <DistanceMeters>NAN</DistanceMeters>
          </Trackpoint>
          <Trackpoint>
            <Time>2019-10-08T11:10:54.000Z</Time>
            <Position>
              <LatitudeDegrees>39.796692542731761932373046875</LatitudeDegrees>
              <LongitudeDegrees>-6.37659075669944286346435546875</LongitudeDegrees>
            </Position>
            <AltitudeMeters>300</AltitudeMeters>
            <DistanceMeters>NAN</DistanceMeters>
          </Trackpoint>
          <Trackpoint>
            <Time>2019-10-08T11:10:57.000Z</Time>
            <Position>
              <LatitudeDegrees>39.79662573896348476409912109375</LatitudeDegrees>
              <LongitudeDegrees>-6.37694564647972583770751953125</LongitudeDegrees>
            </Position>
            <AltitudeMeters>299</AltitudeMeters>
            <DistanceMeters>NAN</DistanceMeters>
          </Trackpoint>
          <Trackpoint>
            <Time>2019-10-08T11:10:58.000Z</Time>
            <Position>
              <LatitudeDegrees>39.7966021858155727386474609375</LatitudeDegrees>
              <LongitudeDegrees>-6.37705930508673191070556640625</LongitudeDegrees>
            </Position>
            <AltitudeMeters>298.79998779296875</AltitudeMeters>
            <DistanceMeters>NAN</DistanceMeters>
          </Trackpoint>
          <Trackpoint>
            <Time>2019-10-08T11:11:02.000Z</Time>
            <Position>
              <LatitudeDegrees>39.79653085581958293914794921875</LatitudeDegrees>
              <LongitudeDegrees>-6.37751075439155101776123046875</LongitudeDegrees>
            </Position>
            <AltitudeMeters>299.20001220703125</AltitudeMeters>
            <DistanceMeters>NAN</DistanceMeters>
          </Trackpoint>
          <Trackpoint>
            <Time>2019-10-08T11:11:06.000Z</Time>
            <Position>
              <LatitudeDegrees>39.796416945755481719970703125</LatitudeDegrees>
              <LongitudeDegrees>-6.3779448531568050384521484375</LongitudeDegrees>
            </Position>
            <AltitudeMeters>299.20001220703125</AltitudeMeters>
            <DistanceMeters>NAN</DistanceMeters>
          </Trackpoint>
          <Trackpoint>
            <Time>2019-10-08T11:11:08.000Z</Time>
            <Position>
              <LatitudeDegrees>39.79634243063628673553466796875</LatitudeDegrees>
              <LongitudeDegrees>-6.37816227972507476806640625</LongitudeDegrees>
            </Position>
            <AltitudeMeters>297.79998779296875</AltitudeMeters>
            <DistanceMeters>NAN</DistanceMeters>
          </Trackpoint>
          <Trackpoint>
            <Time>2019-10-08T11:11:09.000Z</Time>
            <Position>
              <LatitudeDegrees>39.79630462825298309326171875</LatitudeDegrees>
              <LongitudeDegrees>-6.37827233411371707916259765625</LongitudeDegrees>
            </Position>
            <AltitudeMeters>297.600006103515625</AltitudeMeters>
            <DistanceMeters>NAN</DistanceMeters>
          </Trackpoint>
          <Trackpoint>
            <Time>2019-10-08T11:11:12.000Z</Time>
            <Position>
              <LatitudeDegrees>39.79619004763662815093994140625</LatitudeDegrees>
              <LongitudeDegrees>-6.37859034352004528045654296875</LongitudeDegrees>
            </Position>
            <AltitudeMeters>296.399993896484375</AltitudeMeters>
            <DistanceMeters>NAN</DistanceMeters>
          </Trackpoint>
          <Trackpoint>
            <Time>2019-10-08T11:11:15.000Z</Time>
            <Position>
              <LatitudeDegrees>39.79607488028705120086669921875</LatitudeDegrees>
              <LongitudeDegrees>-6.37890198267996311187744140625</LongitudeDegrees>
            </Position>
            <AltitudeMeters>296</AltitudeMeters>
            <DistanceMeters>NAN</DistanceMeters>
          </Trackpoint>
          <Trackpoint>
            <Time>2019-10-08T11:11:18.000Z</Time>
            <Position>
              <LatitudeDegrees>39.795962981879711151123046875</LatitudeDegrees>
              <LongitudeDegrees>-6.37920892797410488128662109375</LongitudeDegrees>
            </Position>
            <AltitudeMeters>295.600006103515625</AltitudeMeters>
            <DistanceMeters>NAN</DistanceMeters>
          </Trackpoint>
          <Trackpoint>
            <Time>2019-10-08T11:11:19.000Z</Time>
            <Position>
              <LatitudeDegrees>39.79592618532478809356689453125</LatitudeDegrees>
              <LongitudeDegrees>-6.37931185774505138397216796875</LongitudeDegrees>
            </Position>
            <AltitudeMeters>294.600006103515625</AltitudeMeters>
            <DistanceMeters>NAN</DistanceMeters>
          </Trackpoint>
          <Trackpoint>
            <Time>2019-10-08T11:11:26.000Z</Time>
            <Position>
              <LatitudeDegrees>39.7956654243171215057373046875</LatitudeDegrees>
              <LongitudeDegrees>-6.38001342304050922393798828125</LongitudeDegrees>
            </Position>
            <AltitudeMeters>294.399993896484375</AltitudeMeters>
            <DistanceMeters>NAN</DistanceMeters>
          </Trackpoint>
          <Trackpoint>
            <Time>2019-10-08T11:11:28.000Z</Time>
            <Position>
              <LatitudeDegrees>39.79559023864567279815673828125</LatitudeDegrees>
              <LongitudeDegrees>-6.38021727092564105987548828125</LongitudeDegrees>
            </Position>
            <AltitudeMeters>294.79998779296875</AltitudeMeters>
            <DistanceMeters>NAN</DistanceMeters>
          </Trackpoint>
          <Trackpoint>
            <Time>2019-10-08T11:11:32.000Z</Time>
            <Position>
              <LatitudeDegrees>39.7954404540359973907470703125</LatitudeDegrees>
              <LongitudeDegrees>-6.38065882958471775054931640625</LongitudeDegrees>
            </Position>
            <AltitudeMeters>293.79998779296875</AltitudeMeters>
            <DistanceMeters>NAN</DistanceMeters>
          </Trackpoint>
          <Trackpoint>
            <Time>2019-10-08T11:11:33.000Z</Time>
            <Position>
              <LatitudeDegrees>39.79540969245135784149169921875</LatitudeDegrees>
              <LongitudeDegrees>-6.38078036718070507049560546875</LongitudeDegrees>
            </Position>
            <AltitudeMeters>293.20001220703125</AltitudeMeters>
            <DistanceMeters>NAN</DistanceMeters>
          </Trackpoint>
          <Trackpoint>
            <Time>2019-10-08T11:11:34.000Z</Time>
            <Position>
              <LatitudeDegrees>39.79538002051413059234619140625</LatitudeDegrees>
              <LongitudeDegrees>-6.38090617954730987548828125</LongitudeDegrees>
            </Position>
            <AltitudeMeters>292.399993896484375</AltitudeMeters>
            <DistanceMeters>NAN</DistanceMeters>
          </Trackpoint>
          <Trackpoint>
            <Time>2019-10-08T11:11:35.000Z</Time>
            <Position>
              <LatitudeDegrees>39.7953598201274871826171875</LatitudeDegrees>
              <LongitudeDegrees>-6.38103551231324672698974609375</LongitudeDegrees>
            </Position>
            <AltitudeMeters>292</AltitudeMeters>
            <DistanceMeters>NAN</DistanceMeters>
          </Trackpoint>
          <Trackpoint>
            <Time>2019-10-08T11:11:36.000Z</Time>
            <Position>
              <LatitudeDegrees>39.79535353370010852813720703125</LatitudeDegrees>
              <LongitudeDegrees>-6.38117062859237194061279296875</LongitudeDegrees>
            </Position>
            <AltitudeMeters>291.399993896484375</AltitudeMeters>
            <DistanceMeters>NAN</DistanceMeters>
          </Trackpoint>
          <Trackpoint>
            <Time>2019-10-08T11:11:37.000Z</Time>
            <Position>
              <LatitudeDegrees>39.7953609935939311981201171875</LatitudeDegrees>
              <LongitudeDegrees>-6.3813086785376071929931640625</LongitudeDegrees>
            </Position>
            <AltitudeMeters>290.79998779296875</AltitudeMeters>
            <DistanceMeters>NAN</DistanceMeters>
          </Trackpoint>
          <Trackpoint>
            <Time>2019-10-08T11:11:39.000Z</Time>
            <Position>
              <LatitudeDegrees>39.79538303799927234649658203125</LatitudeDegrees>
              <LongitudeDegrees>-6.3815846107900142669677734375</LongitudeDegrees>
            </Position>
            <AltitudeMeters>289.600006103515625</AltitudeMeters>
            <DistanceMeters>NAN</DistanceMeters>
          </Trackpoint>
          <Trackpoint>
            <Time>2019-10-08T11:11:41.000Z</Time>
            <Position>
              <LatitudeDegrees>39.79541656561195850372314453125</LatitudeDegrees>
              <LongitudeDegrees>-6.38186733238399028778076171875</LongitudeDegrees>
            </Position>
            <AltitudeMeters>288.600006103515625</AltitudeMeters>
            <DistanceMeters>NAN</DistanceMeters>
          </Trackpoint>
          <Trackpoint>
            <Time>2019-10-08T11:11:42.000Z</Time>
            <Position>
              <LatitudeDegrees>39.79543332941830158233642578125</LatitudeDegrees>
              <LongitudeDegrees>-6.3820097409188747406005859375</LongitudeDegrees>
            </Position>
            <AltitudeMeters>287.399993896484375</AltitudeMeters>
            <DistanceMeters>NAN</DistanceMeters>
          </Trackpoint>
          <Trackpoint>
            <Time>2019-10-08T11:11:46.000Z</Time>
            <Position>
              <LatitudeDegrees>39.7955034859478473663330078125</LatitudeDegrees>
              <LongitudeDegrees>-6.382587254047393798828125</LongitudeDegrees>
            </Position>
            <AltitudeMeters>286</AltitudeMeters>
            <DistanceMeters>NAN</DistanceMeters>
          </Trackpoint>
          <Trackpoint>
            <Time>2019-10-08T11:11:48.000Z</Time>
            <Position>
              <LatitudeDegrees>39.79553441517055034637451171875</LatitudeDegrees>
              <LongitudeDegrees>-6.38288053683936595916748046875</LongitudeDegrees>
            </Position>
            <AltitudeMeters>284.20001220703125</AltitudeMeters>
            <DistanceMeters>NAN</DistanceMeters>
          </Trackpoint>
          <Trackpoint>
            <Time>2019-10-08T11:11:49.000Z</Time>
            <Position>
              <LatitudeDegrees>39.79554179124534130096435546875</LatitudeDegrees>
              <LongitudeDegrees>-6.38303074054419994354248046875</LongitudeDegrees>
            </Position>
            <AltitudeMeters>283.79998779296875</AltitudeMeters>
            <DistanceMeters>NAN</DistanceMeters>
          </Trackpoint>
          <Trackpoint>
            <Time>2019-10-08T11:11:50.000Z</Time>
            <Position>
              <LatitudeDegrees>39.79553558863699436187744140625</LatitudeDegrees>
              <LongitudeDegrees>-6.38317708857357501983642578125</LongitudeDegrees>
            </Position>
            <AltitudeMeters>283.600006103515625</AltitudeMeters>
            <DistanceMeters>NAN</DistanceMeters>
          </Trackpoint>
          <Trackpoint>
            <Time>2019-10-08T11:11:51.000Z</Time>
            <Position>
              <LatitudeDegrees>39.7955105267465114593505859375</LatitudeDegrees>
              <LongitudeDegrees>-6.383324526250362396240234375</LongitudeDegrees>
            </Position>
            <AltitudeMeters>282.79998779296875</AltitudeMeters>
            <DistanceMeters>NAN</DistanceMeters>
          </Trackpoint>
          <Trackpoint>
            <Time>2019-10-08T11:11:53.000Z</Time>
            <Position>
              <LatitudeDegrees>39.7954116202890872955322265625</LatitudeDegrees>
              <LongitudeDegrees>-6.3836026377975940704345703125</LongitudeDegrees>
            </Position>
            <AltitudeMeters>280.79998779296875</AltitudeMeters>
            <DistanceMeters>NAN</DistanceMeters>
          </Trackpoint>
          <Trackpoint>
            <Time>2019-10-08T11:11:55.000Z</Time>
            <Position>
              <LatitudeDegrees>39.7952842153608798980712890625</LatitudeDegrees>
              <LongitudeDegrees>-6.38385937549173831939697265625</LongitudeDegrees>
            </Position>
            <AltitudeMeters>279.600006103515625</AltitudeMeters>
            <DistanceMeters>NAN</DistanceMeters>
          </Trackpoint>
          <Trackpoint>
            <Time>2019-10-08T11:11:57.000Z</Time>
            <Position>
              <LatitudeDegrees>39.79515773244202136993408203125</LatitudeDegrees>
              <LongitudeDegrees>-6.3841146044433116912841796875</LongitudeDegrees>
            </Position>
            <AltitudeMeters>278.399993896484375</AltitudeMeters>
            <DistanceMeters>NAN</DistanceMeters>
          </Trackpoint>
          <Trackpoint>
            <Time>2019-10-08T11:12:02.000Z</Time>
            <Position>
              <LatitudeDegrees>39.79482061229646205902099609375</LatitudeDegrees>
              <LongitudeDegrees>-6.3847479410469532012939453125</LongitudeDegrees>
            </Position>
            <AltitudeMeters>277.600006103515625</AltitudeMeters>
            <DistanceMeters>NAN</DistanceMeters>
          </Trackpoint>
          <Trackpoint>
            <Time>2019-10-08T11:12:03.000Z</Time>
            <Position>
              <LatitudeDegrees>39.7947536408901214599609375</LatitudeDegrees>
              <LongitudeDegrees>-6.38487459160387516021728515625</LongitudeDegrees>
            </Position>
            <AltitudeMeters>276.79998779296875</AltitudeMeters>
            <DistanceMeters>NAN</DistanceMeters>
          </Trackpoint>
          <Trackpoint>
            <Time>2019-10-08T11:12:05.000Z</Time>
            <Position>
              <LatitudeDegrees>39.79462464340031147003173828125</LatitudeDegrees>
              <LongitudeDegrees>-6.38512554578483104705810546875</LongitudeDegrees>
            </Position>
            <AltitudeMeters>275.79998779296875</AltitudeMeters>
            <DistanceMeters>NAN</DistanceMeters>
          </Trackpoint>
          <Trackpoint>
            <Time>2019-10-08T11:12:07.000Z</Time>
            <Position>
              <LatitudeDegrees>39.7944785468280315399169921875</LatitudeDegrees>
              <LongitudeDegrees>-6.38535671867430210113525390625</LongitudeDegrees>
            </Position>
            <AltitudeMeters>274.600006103515625</AltitudeMeters>
            <DistanceMeters>NAN</DistanceMeters>
          </Trackpoint>
          <Trackpoint>
            <Time>2019-10-08T11:12:08.000Z</Time>
            <Position>
              <LatitudeDegrees>39.79441274888813495635986328125</LatitudeDegrees>
              <LongitudeDegrees>-6.38548010028898715972900390625</LongitudeDegrees>
            </Position>
            <AltitudeMeters>274.600006103515625</AltitudeMeters>
            <DistanceMeters>NAN</DistanceMeters>
          </Trackpoint>
          <Trackpoint>
            <Time>2019-10-08T11:12:09.000Z</Time>
            <Position>
              <LatitudeDegrees>39.79434636421501636505126953125</LatitudeDegrees>
              <LongitudeDegrees>-6.38560314662754535675048828125</LongitudeDegrees>
            </Position>
            <AltitudeMeters>274.399993896484375</AltitudeMeters>
            <DistanceMeters>NAN</DistanceMeters>
          </Trackpoint>
          <Trackpoint>
            <Time>2019-10-08T11:12:10.000Z</Time>
            <Position>
              <LatitudeDegrees>39.79427997954189777374267578125</LatitudeDegrees>
              <LongitudeDegrees>-6.385721750557422637939453125</LongitudeDegrees>
            </Position>
            <AltitudeMeters>273.399993896484375</AltitudeMeters>
            <DistanceMeters>NAN</DistanceMeters>
          </Trackpoint>
          <Trackpoint>
            <Time>2019-10-08T11:12:15.000Z</Time>
            <Position>
              <LatitudeDegrees>39.79397001676261425018310546875</LatitudeDegrees>
              <LongitudeDegrees>-6.38632264919579029083251953125</LongitudeDegrees>
            </Position>
            <AltitudeMeters>272.399993896484375</AltitudeMeters>
            <DistanceMeters>NAN</DistanceMeters>
          </Trackpoint>
          <Trackpoint>
            <Time>2019-10-08T11:12:19.000Z</Time>
            <Position>
              <LatitudeDegrees>39.79373482055962085723876953125</LatitudeDegrees>
              <LongitudeDegrees>-6.3867321051657199859619140625</LongitudeDegrees>
            </Position>
            <AltitudeMeters>272.20001220703125</AltitudeMeters>
            <DistanceMeters>NAN</DistanceMeters>
          </Trackpoint>
          <Trackpoint>
            <Time>2019-10-08T11:12:21.000Z</Time>
            <Position>
              <LatitudeDegrees>39.79362619109451770782470703125</LatitudeDegrees>
              <LongitudeDegrees>-6.3869228772819042205810546875</LongitudeDegrees>
            </Position>
            <AltitudeMeters>273</AltitudeMeters>
            <DistanceMeters>NAN</DistanceMeters>
          </Trackpoint>
          <Trackpoint>
            <Time>2019-10-08T11:12:24.000Z</Time>
            <Position>
              <LatitudeDegrees>39.793475568294525146484375</LatitudeDegrees>
              <LongitudeDegrees>-6.38719084672629833221435546875</LongitudeDegrees>
            </Position>
            <AltitudeMeters>273.600006103515625</AltitudeMeters>
            <DistanceMeters>NAN</DistanceMeters>
          </Trackpoint>
          <Trackpoint>
            <Time>2019-10-08T11:12:27.000Z</Time>
            <Position>
              <LatitudeDegrees>39.7933293879032135009765625</LatitudeDegrees>
              <LongitudeDegrees>-6.3874371908605098724365234375</LongitudeDegrees>
            </Position>
            <AltitudeMeters>273.79998779296875</AltitudeMeters>
            <DistanceMeters>NAN</DistanceMeters>
          </Trackpoint>
          <Trackpoint>
            <Time>2019-10-08T11:12:28.000Z</Time>
            <Position>
              <LatitudeDegrees>39.7932832874357700347900390625</LatitudeDegrees>
              <LongitudeDegrees>-6.38751648366451263427734375</LongitudeDegrees>
            </Position>
            <AltitudeMeters>274.600006103515625</AltitudeMeters>
            <DistanceMeters>NAN</DistanceMeters>
          </Trackpoint>
          <Trackpoint>
            <Time>2019-10-08T11:12:31.000Z</Time>
            <Position>
              <LatitudeDegrees>39.7931501828134059906005859375</LatitudeDegrees>
              <LongitudeDegrees>-6.3877486623823642730712890625</LongitudeDegrees>
            </Position>
            <AltitudeMeters>275</AltitudeMeters>
            <DistanceMeters>NAN</DistanceMeters>
          </Trackpoint>
          <Trackpoint>
            <Time>2019-10-08T11:12:33.000Z</Time>
            <Position>
              <LatitudeDegrees>39.7930723987519741058349609375</LatitudeDegrees>
              <LongitudeDegrees>-6.38790666125714778900146484375</LongitudeDegrees>
            </Position>
            <AltitudeMeters>275.20001220703125</AltitudeMeters>
            <DistanceMeters>NAN</DistanceMeters>
          </Trackpoint>
          <Trackpoint>
            <Time>2019-10-08T11:12:34.000Z</Time>
            <Position>
              <LatitudeDegrees>39.793036021292209625244140625</LatitudeDegrees>
              <LongitudeDegrees>-6.38798394240438938140869140625</LongitudeDegrees>
            </Position>
            <AltitudeMeters>275.600006103515625</AltitudeMeters>
            <DistanceMeters>NAN</DistanceMeters>
          </Trackpoint>
          <Trackpoint>
            <Time>2019-10-08T11:12:35.000Z</Time>
            <Position>
              <LatitudeDegrees>39.7930029965937137603759765625</LatitudeDegrees>
              <LongitudeDegrees>-6.38805837370455265045166015625</LongitudeDegrees>
            </Position>
            <AltitudeMeters>275.399993896484375</AltitudeMeters>
            <DistanceMeters>NAN</DistanceMeters>
          </Trackpoint>
          <Trackpoint>
            <Time>2019-10-08T11:12:38.000Z</Time>
            <Position>
              <LatitudeDegrees>39.79292328469455242156982421875</LatitudeDegrees>
              <LongitudeDegrees>-6.3882951624691486358642578125</LongitudeDegrees>
            </Position>
            <AltitudeMeters>275.399993896484375</AltitudeMeters>
            <DistanceMeters>NAN</DistanceMeters>
          </Trackpoint>
          <Trackpoint>
            <Time>2019-10-08T11:12:41.000Z</Time>
            <Position>
              <LatitudeDegrees>39.79286410845816135406494140625</LatitudeDegrees>
              <LongitudeDegrees>-6.38853580690920352935791015625</LongitudeDegrees>
            </Position>
            <AltitudeMeters>276</AltitudeMeters>
            <DistanceMeters>NAN</DistanceMeters>
          </Trackpoint>
          <Trackpoint>
            <Time>2019-10-08T11:12:43.000Z</Time>
            <Position>
              <LatitudeDegrees>39.7928437404334545135498046875</LatitudeDegrees>
              <LongitudeDegrees>-6.38868902809917926788330078125</LongitudeDegrees>
            </Position>
            <AltitudeMeters>275.79998779296875</AltitudeMeters>
            <DistanceMeters>NAN</DistanceMeters>
          </Trackpoint>
          <Trackpoint>
            <Time>2019-10-08T11:12:46.000Z</Time>
            <Position>
              <LatitudeDegrees>39.792829491198062896728515625</LatitudeDegrees>
              <LongitudeDegrees>-6.38891617767512798309326171875</LongitudeDegrees>
            </Position>
            <AltitudeMeters>276.399993896484375</AltitudeMeters>
            <DistanceMeters>NAN</DistanceMeters>
          </Trackpoint>
          <Trackpoint>
            <Time>2019-10-08T11:12:48.000Z</Time>
            <Position>
              <LatitudeDegrees>39.792822785675525665283203125</LatitudeDegrees>
              <LongitudeDegrees>-6.38907124288380146026611328125</LongitudeDegrees>
            </Position>
            <AltitudeMeters>276.399993896484375</AltitudeMeters>
            <DistanceMeters>NAN</DistanceMeters>
          </Trackpoint>
          <Trackpoint>
            <Time>2019-10-08T11:12:50.000Z</Time>
            <Position>
              <LatitudeDegrees>39.79283862747251987457275390625</LatitudeDegrees>
              <LongitudeDegrees>-6.38922831974923610687255859375</LongitudeDegrees>
            </Position>
            <AltitudeMeters>276.20001220703125</AltitudeMeters>
            <DistanceMeters>NAN</DistanceMeters>
          </Trackpoint>
          <Trackpoint>
            <Time>2019-10-08T11:12:54.000Z</Time>
            <Position>
              <LatitudeDegrees>39.79287274181842803955078125</LatitudeDegrees>
              <LongitudeDegrees>-6.38954230584204196929931640625</LongitudeDegrees>
            </Position>
            <AltitudeMeters>276.79998779296875</AltitudeMeters>
            <DistanceMeters>NAN</DistanceMeters>
          </Trackpoint>
          <Trackpoint>
            <Time>2019-10-08T11:12:57.000Z</Time>
            <Position>
              <LatitudeDegrees>39.792901240289211273193359375</LatitudeDegrees>
              <LongitudeDegrees>-6.389780938625335693359375</LongitudeDegrees>
            </Position>
            <AltitudeMeters>276.79998779296875</AltitudeMeters>
            <DistanceMeters>NAN</DistanceMeters>
          </Trackpoint>
          <Trackpoint>
            <Time>2019-10-08T11:13:02.000Z</Time>
            <Position>
              <LatitudeDegrees>39.79294155724346637725830078125</LatitudeDegrees>
              <LongitudeDegrees>-6.3901800848543643951416015625</LongitudeDegrees>
            </Position>
            <AltitudeMeters>276.20001220703125</AltitudeMeters>
            <DistanceMeters>NAN</DistanceMeters>
          </Trackpoint>
          <Trackpoint>
            <Time>2019-10-08T11:13:04.000Z</Time>
            <Position>
              <LatitudeDegrees>39.79294926859438419342041015625</LatitudeDegrees>
              <LongitudeDegrees>-6.39034009538590908050537109375</LongitudeDegrees>
            </Position>
            <AltitudeMeters>276.600006103515625</AltitudeMeters>
            <DistanceMeters>NAN</DistanceMeters>
          </Trackpoint>
          <Trackpoint>
            <Time>2019-10-08T11:13:06.000Z</Time>
            <Position>
              <LatitudeDegrees>39.7929221950471401214599609375</LatitudeDegrees>
              <LongitudeDegrees>-6.3904972560703754425048828125</LongitudeDegrees>
            </Position>
            <AltitudeMeters>277</AltitudeMeters>
            <DistanceMeters>NAN</DistanceMeters>
          </Trackpoint>
          <Trackpoint>
            <Time>2019-10-08T11:13:09.000Z</Time>
            <Position>
              <LatitudeDegrees>39.7927988134324550628662109375</LatitudeDegrees>
              <LongitudeDegrees>-6.39067654497921466827392578125</LongitudeDegrees>
            </Position>
            <AltitudeMeters>276.399993896484375</AltitudeMeters>
            <DistanceMeters>NAN</DistanceMeters>
          </Trackpoint>
          <Trackpoint>
            <Time>2019-10-08T11:13:12.000Z</Time>
            <Position>
              <LatitudeDegrees>39.79261918924748897552490234375</LatitudeDegrees>
              <LongitudeDegrees>-6.39075701124966144561767578125</LongitudeDegrees>
            </Position>
            <AltitudeMeters>276.399993896484375</AltitudeMeters>
            <DistanceMeters>NAN</DistanceMeters>
          </Trackpoint>
          <Trackpoint>
            <Time>2019-10-08T11:13:15.000Z</Time>
            <Position>
              <LatitudeDegrees>39.79242523200809955596923828125</LatitudeDegrees>
              <LongitudeDegrees>-6.3907768763601779937744140625</LongitudeDegrees>
            </Position>
            <AltitudeMeters>276.20001220703125</AltitudeMeters>
            <DistanceMeters>NAN</DistanceMeters>
          </Trackpoint>
          <Trackpoint>
            <Time>2019-10-08T11:13:17.000Z</Time>
            <Position>
              <LatitudeDegrees>39.792287349700927734375</LatitudeDegrees>
              <LongitudeDegrees>-6.39078743755817413330078125</LongitudeDegrees>
            </Position>
            <AltitudeMeters>275.399993896484375</AltitudeMeters>
            <DistanceMeters>NAN</DistanceMeters>
          </Trackpoint>
          <Trackpoint>
            <Time>2019-10-08T11:13:18.000Z</Time>
            <Position>
              <LatitudeDegrees>39.7922157682478427886962890625</LatitudeDegrees>
              <LongitudeDegrees>-6.39078852720558643341064453125</LongitudeDegrees>
            </Position>
            <AltitudeMeters>275.20001220703125</AltitudeMeters>
            <DistanceMeters>NAN</DistanceMeters>
          </Trackpoint>
          <Trackpoint>
            <Time>2019-10-08T11:13:19.000Z</Time>
            <Position>
              <LatitudeDegrees>39.79214460588991641998291015625</LatitudeDegrees>
              <LongitudeDegrees>-6.39079104177653789520263671875</LongitudeDegrees>
            </Position>
            <AltitudeMeters>274.20001220703125</AltitudeMeters>
            <DistanceMeters>NAN</DistanceMeters>
          </Trackpoint>
          <Trackpoint>
            <Time>2019-10-08T11:13:22.000Z</Time>
            <Position>
              <LatitudeDegrees>39.79200898669660091400146484375</LatitudeDegrees>
              <LongitudeDegrees>-6.3907921314239501953125</LongitudeDegrees>
            </Position>
            <AltitudeMeters>274.600006103515625</AltitudeMeters>
            <DistanceMeters>NAN</DistanceMeters>
          </Trackpoint>
          <Trackpoint>
            <Time>2019-10-08T11:13:23.000Z</Time>
            <Position>
              <LatitudeDegrees>39.792006723582744598388671875</LatitudeDegrees>
              <LongitudeDegrees>-6.39075432904064655303955078125</LongitudeDegrees>
            </Position>
            <AltitudeMeters>275.600006103515625</AltitudeMeters>
            <DistanceMeters>NAN</DistanceMeters>
          </Trackpoint>
          <Trackpoint>
            <Time>2019-10-08T11:13:24.000Z</Time>
            <Position>
              <LatitudeDegrees>39.79202306829392910003662109375</LatitudeDegrees>
              <LongitudeDegrees>-6.39074091799557209014892578125</LongitudeDegrees>
            </Position>
            <AltitudeMeters>276</AltitudeMeters>
            <DistanceMeters>NAN</DistanceMeters>
          </Trackpoint>
          <Trackpoint>
            <Time>2019-10-08T11:13:28.000Z</Time>
            <Position>
              <LatitudeDegrees>39.792034886777400970458984375</LatitudeDegrees>
              <LongitudeDegrees>-6.39072901569306850433349609375</LongitudeDegrees>
            </Position>
            <AltitudeMeters>276</AltitudeMeters>
            <DistanceMeters>NAN</DistanceMeters>
          </Trackpoint>
          <Trackpoint>
            <Time>2019-10-08T11:13:29.000Z</Time>
            <Position>
              <LatitudeDegrees>39.79203731752932071685791015625</LatitudeDegrees>
              <LongitudeDegrees>-6.39072977006435394287109375</LongitudeDegrees>
            </Position>
            <AltitudeMeters>276.20001220703125</AltitudeMeters>
            <DistanceMeters>NAN</DistanceMeters>
          </Trackpoint>
          <Trackpoint>
            <Time>2019-10-08T11:13:32.000Z</Time>
            <Position>
              <LatitudeDegrees>39.79206271469593048095703125</LatitudeDegrees>
              <LongitudeDegrees>-6.3906927220523357391357421875</LongitudeDegrees>
            </Position>
            <AltitudeMeters>276</AltitudeMeters>
            <DistanceMeters>NAN</DistanceMeters>
          </Trackpoint>
          <Trackpoint>
            <Time>2019-10-08T11:24:37.000Z</Time>
            <Position>
              <LatitudeDegrees>39.79193908162415027618408203125</LatitudeDegrees>
              <LongitudeDegrees>-6.39082624576985836029052734375</LongitudeDegrees>
            </Position>
            <AltitudeMeters>276.600006103515625</AltitudeMeters>
            <DistanceMeters>NAN</DistanceMeters>
          </Trackpoint>
          <Trackpoint>
            <Time>2019-10-08T11:24:38.000Z</Time>
            <Position>
              <LatitudeDegrees>39.791902787983417510986328125</LatitudeDegrees>
              <LongitudeDegrees>-6.3908295147120952606201171875</LongitudeDegrees>
            </Position>
            <AltitudeMeters>278</AltitudeMeters>
            <DistanceMeters>NAN</DistanceMeters>
          </Trackpoint>
          <Trackpoint>
            <Time>2019-10-08T11:24:40.000Z</Time>
            <Position>
              <LatitudeDegrees>39.791817963123321533203125</LatitudeDegrees>
              <LongitudeDegrees>-6.3908489607274532318115234375</LongitudeDegrees>
            </Position>
            <AltitudeMeters>277</AltitudeMeters>
            <DistanceMeters>NAN</DistanceMeters>
          </Trackpoint>
          <Trackpoint>
            <Time>2019-10-08T11:24:41.000Z</Time>
            <Position>
              <LatitudeDegrees>39.79177010245621204376220703125</LatitudeDegrees>
              <LongitudeDegrees>-6.39086413197219371795654296875</LongitudeDegrees>
            </Position>
            <AltitudeMeters>274.600006103515625</AltitudeMeters>
            <DistanceMeters>NAN</DistanceMeters>
          </Trackpoint>
          <Trackpoint>
            <Time>2019-10-08T11:24:43.000Z</Time>
            <Position>
              <LatitudeDegrees>39.79166951961815357208251953125</LatitudeDegrees>
              <LongitudeDegrees>-6.390907801687717437744140625</LongitudeDegrees>
            </Position>
            <AltitudeMeters>274.20001220703125</AltitudeMeters>
            <DistanceMeters>NAN</DistanceMeters>
          </Trackpoint>
          <Trackpoint>
            <Time>2019-10-08T11:24:46.000Z</Time>
            <Position>
              <LatitudeDegrees>39.79151428677141666412353515625</LatitudeDegrees>
              <LongitudeDegrees>-6.3910187780857086181640625</LongitudeDegrees>
            </Position>
            <AltitudeMeters>273</AltitudeMeters>
            <DistanceMeters>NAN</DistanceMeters>
          </Trackpoint>
          <Trackpoint>
            <Time>2019-10-08T11:24:48.000Z</Time>
            <Position>
              <LatitudeDegrees>39.7914116084575653076171875</LatitudeDegrees>
              <LongitudeDegrees>-6.3911232165992259979248046875</LongitudeDegrees>
            </Position>
            <AltitudeMeters>272.600006103515625</AltitudeMeters>
            <DistanceMeters>NAN</DistanceMeters>
          </Trackpoint>
          <Trackpoint>
            <Time>2019-10-08T11:24:49.000Z</Time>
            <Position>
              <LatitudeDegrees>39.7913631610572338104248046875</LatitudeDegrees>
              <LongitudeDegrees>-6.39118264429271221160888671875</LongitudeDegrees>
            </Position>
            <AltitudeMeters>272.600006103515625</AltitudeMeters>
            <DistanceMeters>NAN</DistanceMeters>
          </Trackpoint>
          <Trackpoint>
            <Time>2019-10-08T11:24:51.000Z</Time>
            <Position>
              <LatitudeDegrees>39.791269786655902862548828125</LatitudeDegrees>
              <LongitudeDegrees>-6.39131239615380764007568359375</LongitudeDegrees>
            </Position>
            <AltitudeMeters>272</AltitudeMeters>
            <DistanceMeters>NAN</DistanceMeters>
          </Trackpoint>
          <Trackpoint>
            <Time>2019-10-08T11:24:52.000Z</Time>
            <Position>
              <LatitudeDegrees>39.79122226126492023468017578125</LatitudeDegrees>
              <LongitudeDegrees>-6.39137752354145050048828125</LongitudeDegrees>
            </Position>
            <AltitudeMeters>271.20001220703125</AltitudeMeters>
            <DistanceMeters>NAN</DistanceMeters>
          </Trackpoint>
          <Trackpoint>
            <Time>2019-10-08T11:24:53.000Z</Time>
            <Position>
              <LatitudeDegrees>39.791173227131366729736328125</LatitudeDegrees>
              <LongitudeDegrees>-6.39144332148134708404541015625</LongitudeDegrees>
            </Position>
            <AltitudeMeters>270.79998779296875</AltitudeMeters>
            <DistanceMeters>NAN</DistanceMeters>
          </Trackpoint>
          <Trackpoint>
            <Time>2019-10-08T11:24:56.000Z</Time>
            <Position>
              <LatitudeDegrees>39.791019000113010406494140625</LatitudeDegrees>
              <LongitudeDegrees>-6.3916490972042083740234375</LongitudeDegrees>
            </Position>
            <AltitudeMeters>271.20001220703125</AltitudeMeters>
            <DistanceMeters>NAN</DistanceMeters>
          </Trackpoint>
          <Trackpoint>
            <Time>2019-10-08T11:24:58.000Z</Time>
            <Position>
              <LatitudeDegrees>39.79091783054172992706298828125</LatitudeDegrees>
              <LongitudeDegrees>-6.39179720543324947357177734375</LongitudeDegrees>
            </Position>
            <AltitudeMeters>269.79998779296875</AltitudeMeters>
            <DistanceMeters>NAN</DistanceMeters>
          </Trackpoint>
          <Trackpoint>
            <Time>2019-10-08T11:24:59.000Z</Time>
            <Position>
              <LatitudeDegrees>39.7908635996282100677490234375</LatitudeDegrees>
              <LongitudeDegrees>-6.39186836779117584228515625</LongitudeDegrees>
            </Position>
            <AltitudeMeters>269.399993896484375</AltitudeMeters>
            <DistanceMeters>NAN</DistanceMeters>
          </Trackpoint>
          <Trackpoint>
            <Time>2019-10-08T11:25:02.000Z</Time>
            <Position>
              <LatitudeDegrees>39.79068942368030548095703125</LatitudeDegrees>
              <LongitudeDegrees>-6.39206844381988048553466796875</LongitudeDegrees>
            </Position>
            <AltitudeMeters>268.20001220703125</AltitudeMeters>
            <DistanceMeters>NAN</DistanceMeters>
          </Trackpoint>
          <Trackpoint>
            <Time>2019-10-08T11:25:04.000Z</Time>
            <Position>
              <LatitudeDegrees>39.79054869152605533599853515625</LatitudeDegrees>
              <LongitudeDegrees>-6.3921448029577732086181640625</LongitudeDegrees>
            </Position>
            <AltitudeMeters>268</AltitudeMeters>
            <DistanceMeters>NAN</DistanceMeters>
          </Trackpoint>
          <Trackpoint>
            <Time>2019-10-08T11:25:06.000Z</Time>
            <Position>
              <LatitudeDegrees>39.79039781726896762847900390625</LatitudeDegrees>
              <LongitudeDegrees>-6.39215762726962566375732421875</LongitudeDegrees>
            </Position>
            <AltitudeMeters>267.20001220703125</AltitudeMeters>
            <DistanceMeters>NAN</DistanceMeters>
          </Trackpoint>
          <Trackpoint>
            <Time>2019-10-08T11:25:07.000Z</Time>
            <Position>
              <LatitudeDegrees>39.79032330214977264404296875</LatitudeDegrees>
              <LongitudeDegrees>-6.3921498320996761322021484375</LongitudeDegrees>
            </Position>
            <AltitudeMeters>267</AltitudeMeters>
            <DistanceMeters>NAN</DistanceMeters>
          </Trackpoint>
          <Trackpoint>
            <Time>2019-10-08T11:25:09.000Z</Time>
            <Position>
              <LatitudeDegrees>39.7901725955307483673095703125</LatitudeDegrees>
              <LongitudeDegrees>-6.3921196572482585906982421875</LongitudeDegrees>
            </Position>
            <AltitudeMeters>268</AltitudeMeters>
            <DistanceMeters>NAN</DistanceMeters>
          </Trackpoint>
          <Trackpoint>
            <Time>2019-10-08T11:25:13.000Z</Time>
            <Position>
              <LatitudeDegrees>39.789869673550128936767578125</LatitudeDegrees>
              <LongitudeDegrees>-6.3920532725751399993896484375</LongitudeDegrees>
            </Position>
            <AltitudeMeters>267.600006103515625</AltitudeMeters>
            <DistanceMeters>NAN</DistanceMeters>
          </Trackpoint>
          <Trackpoint>
            <Time>2019-10-08T11:25:16.000Z</Time>
            <Position>
              <LatitudeDegrees>39.7896385006606578826904296875</LatitudeDegrees>
              <LongitudeDegrees>-6.3920227624475955963134765625</LongitudeDegrees>
            </Position>
            <AltitudeMeters>266</AltitudeMeters>
            <DistanceMeters>NAN</DistanceMeters>
          </Trackpoint>
          <Trackpoint>
            <Time>2019-10-08T11:25:17.000Z</Time>
            <Position>
              <LatitudeDegrees>39.7895597107708454132080078125</LatitudeDegrees>
              <LongitudeDegrees>-6.3920257799327373504638671875</LongitudeDegrees>
            </Position>
            <AltitudeMeters>265.399993896484375</AltitudeMeters>
            <DistanceMeters>NAN</DistanceMeters>
          </Trackpoint>
          <Trackpoint>
            <Time>2019-10-08T11:25:18.000Z</Time>
            <Position>
              <LatitudeDegrees>39.78948201052844524383544921875</LatitudeDegrees>
              <LongitudeDegrees>-6.392050422728061676025390625</LongitudeDegrees>
            </Position>
            <AltitudeMeters>265.399993896484375</AltitudeMeters>
            <DistanceMeters>NAN</DistanceMeters>
          </Trackpoint>
          <Trackpoint>
            <Time>2019-10-08T11:25:20.000Z</Time>
            <Position>
              <LatitudeDegrees>39.7893463075160980224609375</LatitudeDegrees>
              <LongitudeDegrees>-6.3921535201370716094970703125</LongitudeDegrees>
            </Position>
            <AltitudeMeters>264.79998779296875</AltitudeMeters>
            <DistanceMeters>NAN</DistanceMeters>
          </Trackpoint>
          <Trackpoint>
            <Time>2019-10-08T11:25:21.000Z</Time>
            <Position>
              <LatitudeDegrees>39.78928939439356327056884765625</LatitudeDegrees>
              <LongitudeDegrees>-6.3922286219894886016845703125</LongitudeDegrees>
            </Position>
            <AltitudeMeters>264.79998779296875</AltitudeMeters>
            <DistanceMeters>NAN</DistanceMeters>
          </Trackpoint>
          <Trackpoint>
            <Time>2019-10-08T11:25:23.000Z</Time>
            <Position>
              <LatitudeDegrees>39.78919266723096370697021484375</LatitudeDegrees>
              <LongitudeDegrees>-6.39240212738513946533203125</LongitudeDegrees>
            </Position>
            <AltitudeMeters>264.600006103515625</AltitudeMeters>
            <DistanceMeters>NAN</DistanceMeters>
          </Trackpoint>
          <Trackpoint>
            <Time>2019-10-08T11:25:25.000Z</Time>
            <Position>
              <LatitudeDegrees>39.78909778408706188201904296875</LatitudeDegrees>
              <LongitudeDegrees>-6.39258342795073986053466796875</LongitudeDegrees>
            </Position>
            <AltitudeMeters>264</AltitudeMeters>
            <DistanceMeters>NAN</DistanceMeters>
          </Trackpoint>
          <Trackpoint>
            <Time>2019-10-08T11:25:26.000Z</Time>
            <Position>
              <LatitudeDegrees>39.78904866613447666168212890625</LatitudeDegrees>
              <LongitudeDegrees>-6.3926745392382144927978515625</LongitudeDegrees>
            </Position>
            <AltitudeMeters>263.399993896484375</AltitudeMeters>
            <DistanceMeters>NAN</DistanceMeters>
          </Trackpoint>
          <Trackpoint>
            <Time>2019-10-08T11:25:28.000Z</Time>
            <Position>
              <LatitudeDegrees>39.788944311439990997314453125</LatitudeDegrees>
              <LongitudeDegrees>-6.39285902492702007293701171875</LongitudeDegrees>
            </Position>
            <AltitudeMeters>263.20001220703125</AltitudeMeters>
            <DistanceMeters>NAN</DistanceMeters>
          </Trackpoint>
          <Trackpoint>
            <Time>2019-10-08T11:25:29.000Z</Time>
            <Position>
              <LatitudeDegrees>39.7888915054500102996826171875</LatitudeDegrees>
              <LongitudeDegrees>-6.3929504714906215667724609375</LongitudeDegrees>
            </Position>
            <AltitudeMeters>262.399993896484375</AltitudeMeters>
            <DistanceMeters>NAN</DistanceMeters>
          </Trackpoint>
          <Trackpoint>
            <Time>2019-10-08T11:25:32.000Z</Time>
            <Position>
              <LatitudeDegrees>39.788712970912456512451171875</LatitudeDegrees>
              <LongitudeDegrees>-6.39321240596473217010498046875</LongitudeDegrees>
            </Position>
            <AltitudeMeters>261.79998779296875</AltitudeMeters>
            <DistanceMeters>NAN</DistanceMeters>
          </Trackpoint>
          <Trackpoint>
            <Time>2019-10-08T11:25:33.000Z</Time>
            <Position>
              <LatitudeDegrees>39.78863996453583240509033203125</LatitudeDegrees>
              <LongitudeDegrees>-6.3932847417891025543212890625</LongitudeDegrees>
            </Position>
            <AltitudeMeters>261</AltitudeMeters>
            <DistanceMeters>NAN</DistanceMeters>
          </Trackpoint>
          <Trackpoint>
            <Time>2019-10-08T11:25:35.000Z</Time>
            <Position>
              <LatitudeDegrees>39.788474254310131072998046875</LatitudeDegrees>
              <LongitudeDegrees>-6.3933967240154743194580078125</LongitudeDegrees>
            </Position>
            <AltitudeMeters>259.79998779296875</AltitudeMeters>
            <DistanceMeters>NAN</DistanceMeters>
          </Trackpoint>
          <Trackpoint>
            <Time>2019-10-08T11:25:36.000Z</Time>
            <Position>
              <LatitudeDegrees>39.788386411964893341064453125</LatitudeDegrees>
              <LongitudeDegrees>-6.39344173483550548553466796875</LongitudeDegrees>
            </Position>
            <AltitudeMeters>259.399993896484375</AltitudeMeters>
            <DistanceMeters>NAN</DistanceMeters>
          </Trackpoint>
          <Trackpoint>
            <Time>2019-10-08T11:25:38.000Z</Time>
            <Position>
              <LatitudeDegrees>39.78820511139929294586181640625</LatitudeDegrees>
              <LongitudeDegrees>-6.393526978790760040283203125</LongitudeDegrees>
            </Position>
            <AltitudeMeters>258.399993896484375</AltitudeMeters>
            <DistanceMeters>NAN</DistanceMeters>
          </Trackpoint>
          <Trackpoint>
            <Time>2019-10-08T11:25:40.000Z</Time>
            <Position>
              <LatitudeDegrees>39.78801970370113849639892578125</LatitudeDegrees>
              <LongitudeDegrees>-6.39361624605953693389892578125</LongitudeDegrees>
            </Position>
            <AltitudeMeters>256.399993896484375</AltitudeMeters>
            <DistanceMeters>NAN</DistanceMeters>
          </Trackpoint>
          <Trackpoint>
            <Time>2019-10-08T11:25:41.000Z</Time>
            <Position>
              <LatitudeDegrees>39.787925742566585540771484375</LatitudeDegrees>
              <LongitudeDegrees>-6.3936619274318218231201171875</LongitudeDegrees>
            </Position>
            <AltitudeMeters>256.20001220703125</AltitudeMeters>
            <DistanceMeters>NAN</DistanceMeters>
          </Trackpoint>
          <Trackpoint>
            <Time>2019-10-08T11:25:42.000Z</Time>
            <Position>
              <LatitudeDegrees>39.7878303565084934234619140625</LatitudeDegrees>
              <LongitudeDegrees>-6.39370794408023357391357421875</LongitudeDegrees>
            </Position>
            <AltitudeMeters>256.399993896484375</AltitudeMeters>
            <DistanceMeters>NAN</DistanceMeters>
          </Trackpoint>
          <Trackpoint>
            <Time>2019-10-08T11:25:43.000Z</Time>
            <Position>
              <LatitudeDegrees>39.78773253969848155975341796875</LatitudeDegrees>
              <LongitudeDegrees>-6.39375270344316959381103515625</LongitudeDegrees>
            </Position>
            <AltitudeMeters>256.399993896484375</AltitudeMeters>
            <DistanceMeters>NAN</DistanceMeters>
          </Trackpoint>
          <Trackpoint>
            <Time>2019-10-08T11:25:44.000Z</Time>
            <Position>
              <LatitudeDegrees>39.7876342199742794036865234375</LatitudeDegrees>
              <LongitudeDegrees>-6.3937975466251373291015625</LongitudeDegrees>
            </Position>
            <AltitudeMeters>255.399993896484375</AltitudeMeters>
            <DistanceMeters>NAN</DistanceMeters>
          </Trackpoint>
          <Trackpoint>
            <Time>2019-10-08T11:25:45.000Z</Time>
            <Position>
              <LatitudeDegrees>39.78753573261201381683349609375</LatitudeDegrees>
              <LongitudeDegrees>-6.3938429765403270721435546875</LongitudeDegrees>
            </Position>
            <AltitudeMeters>254.1999969482421875</AltitudeMeters>
            <DistanceMeters>NAN</DistanceMeters>
          </Trackpoint>
          <Trackpoint>
            <Time>2019-10-08T11:25:46.000Z</Time>
            <Position>
              <LatitudeDegrees>39.78743665851652622222900390625</LatitudeDegrees>
              <LongitudeDegrees>-6.39389066956937313079833984375</LongitudeDegrees>
            </Position>
            <AltitudeMeters>253</AltitudeMeters>
            <DistanceMeters>NAN</DistanceMeters>
          </Trackpoint>
          <Trackpoint>
            <Time>2019-10-08T11:25:48.000Z</Time>
            <Position>
              <LatitudeDegrees>39.78723876178264617919921875</LatitudeDegrees>
              <LongitudeDegrees>-6.39398463070392608642578125</LongitudeDegrees>
            </Position>
            <AltitudeMeters>251.1999969482421875</AltitudeMeters>
            <DistanceMeters>NAN</DistanceMeters>
          </Trackpoint>
          <Trackpoint>
            <Time>2019-10-08T11:25:52.000Z</Time>
            <Position>
              <LatitudeDegrees>39.7868339158594608306884765625</LatitudeDegrees>
              <LongitudeDegrees>-6.39417171478271484375</LongitudeDegrees>
            </Position>
            <AltitudeMeters>251.600006103515625</AltitudeMeters>
            <DistanceMeters>NAN</DistanceMeters>
          </Trackpoint>
          <Trackpoint>
            <Time>2019-10-08T11:25:54.000Z</Time>
            <Position>
              <LatitudeDegrees>39.7866280563175678253173828125</LatitudeDegrees>
              <LongitudeDegrees>-6.39426701702177524566650390625</LongitudeDegrees>
            </Position>
            <AltitudeMeters>249.600006103515625</AltitudeMeters>
            <DistanceMeters>NAN</DistanceMeters>
          </Trackpoint>
          <Trackpoint>
            <Time>2019-10-08T11:25:55.000Z</Time>
            <Position>
              <LatitudeDegrees>39.78652521036565303802490234375</LatitudeDegrees>
              <LongitudeDegrees>-6.39431429095566272735595703125</LongitudeDegrees>
            </Position>
            <AltitudeMeters>248.1999969482421875</AltitudeMeters>
            <DistanceMeters>NAN</DistanceMeters>
          </Trackpoint>
          <Trackpoint>
            <Time>2019-10-08T11:25:57.000Z</Time>
            <Position>
              <LatitudeDegrees>39.78632186539471149444580078125</LatitudeDegrees>
              <LongitudeDegrees>-6.39440883882343769073486328125</LongitudeDegrees>
            </Position>
            <AltitudeMeters>246.600006103515625</AltitudeMeters>
            <DistanceMeters>NAN</DistanceMeters>
          </Trackpoint>
          <Trackpoint>
            <Time>2019-10-08T11:26:01.000Z</Time>
            <Position>
              <LatitudeDegrees>39.7859239764511585235595703125</LatitudeDegrees>
              <LongitudeDegrees>-6.39458284713327884674072265625</LongitudeDegrees>
            </Position>
            <AltitudeMeters>245.8000030517578125</AltitudeMeters>
            <DistanceMeters>NAN</DistanceMeters>
          </Trackpoint>
          <Trackpoint>
            <Time>2019-10-08T11:26:02.000Z</Time>
            <Position>
              <LatitudeDegrees>39.78582381270825862884521484375</LatitudeDegrees>
              <LongitudeDegrees>-6.394615955650806427001953125</LongitudeDegrees>
            </Position>
            <AltitudeMeters>244.8000030517578125</AltitudeMeters>
            <DistanceMeters>NAN</DistanceMeters>
          </Trackpoint>
          <Trackpoint>
            <Time>2019-10-08T11:26:04.000Z</Time>
            <Position>
              <LatitudeDegrees>39.7856235690414905548095703125</LatitudeDegrees>
              <LongitudeDegrees>-6.39466498978435993194580078125</LongitudeDegrees>
            </Position>
            <AltitudeMeters>244.600006103515625</AltitudeMeters>
            <DistanceMeters>NAN</DistanceMeters>
          </Trackpoint>
          <Trackpoint>
            <Time>2019-10-08T11:26:06.000Z</Time>
            <Position>
              <LatitudeDegrees>39.7854203917086124420166015625</LatitudeDegrees>
              <LongitudeDegrees>-6.39469206333160400390625</LongitudeDegrees>
            </Position>
            <AltitudeMeters>244</AltitudeMeters>
            <DistanceMeters>NAN</DistanceMeters>
          </Trackpoint>
          <Trackpoint>
            <Time>2019-10-08T11:26:07.000Z</Time>
            <Position>
              <LatitudeDegrees>39.7853181324899196624755859375</LatitudeDegrees>
              <LongitudeDegrees>-6.39470304362475872039794921875</LongitudeDegrees>
            </Position>
            <AltitudeMeters>243.399993896484375</AltitudeMeters>
            <DistanceMeters>NAN</DistanceMeters>
          </Trackpoint>
          <Trackpoint>
            <Time>2019-10-08T11:26:08.000Z</Time>
            <Position>
              <LatitudeDegrees>39.7852141968905925750732421875</LatitudeDegrees>
              <LongitudeDegrees>-6.39471276663243770599365234375</LongitudeDegrees>
            </Position>
            <AltitudeMeters>242.8000030517578125</AltitudeMeters>
            <DistanceMeters>NAN</DistanceMeters>
          </Trackpoint>
          <Trackpoint>
            <Time>2019-10-08T11:26:09.000Z</Time>
            <Position>
              <LatitudeDegrees>39.78510950691998004913330078125</LatitudeDegrees>
              <LongitudeDegrees>-6.39472148381173610687255859375</LongitudeDegrees>
            </Position>
            <AltitudeMeters>242.1999969482421875</AltitudeMeters>
            <DistanceMeters>NAN</DistanceMeters>
          </Trackpoint>
          <Trackpoint>
            <Time>2019-10-08T11:26:11.000Z</Time>
            <Position>
              <LatitudeDegrees>39.7848950140178203582763671875</LatitudeDegrees>
              <LongitudeDegrees>-6.39473497867584228515625</LongitudeDegrees>
            </Position>
            <AltitudeMeters>240.600006103515625</AltitudeMeters>
            <DistanceMeters>NAN</DistanceMeters>
          </Trackpoint>
          <Trackpoint>
            <Time>2019-10-08T11:26:13.000Z</Time>
            <Position>
              <LatitudeDegrees>39.78468127548694610595703125</LatitudeDegrees>
              <LongitudeDegrees>-6.3947502337396144866943359375</LongitudeDegrees>
            </Position>
            <AltitudeMeters>238.399993896484375</AltitudeMeters>
            <DistanceMeters>NAN</DistanceMeters>
          </Trackpoint>
          <Trackpoint>
            <Time>2019-10-08T11:26:14.000Z</Time>
            <Position>
              <LatitudeDegrees>39.784573651850223541259765625</LatitudeDegrees>
              <LongitudeDegrees>-6.39475920237600803375244140625</LongitudeDegrees>
            </Position>
            <AltitudeMeters>238</AltitudeMeters>
            <DistanceMeters>NAN</DistanceMeters>
          </Trackpoint>
          <Trackpoint>
            <Time>2019-10-08T11:26:16.000Z</Time>
            <Position>
              <LatitudeDegrees>39.78435949422419071197509765625</LatitudeDegrees>
              <LongitudeDegrees>-6.3947750441730022430419921875</LongitudeDegrees>
            </Position>
            <AltitudeMeters>237</AltitudeMeters>
            <DistanceMeters>NAN</DistanceMeters>
          </Trackpoint>
          <Trackpoint>
            <Time>2019-10-08T11:26:18.000Z</Time>
            <Position>
              <LatitudeDegrees>39.78414759971201419830322265625</LatitudeDegrees>
              <LongitudeDegrees>-6.39480002224445343017578125</LongitudeDegrees>
            </Position>
            <AltitudeMeters>235.600006103515625</AltitudeMeters>
            <DistanceMeters>NAN</DistanceMeters>
          </Trackpoint>
          <Trackpoint>
            <Time>2019-10-08T11:26:21.000Z</Time>
            <Position>
              <LatitudeDegrees>39.78383176960051059722900390625</LatitudeDegrees>
              <LongitudeDegrees>-6.39484905637800693511962890625</LongitudeDegrees>
            </Position>
            <AltitudeMeters>234</AltitudeMeters>
            <DistanceMeters>NAN</DistanceMeters>
          </Trackpoint>
          <Trackpoint>
            <Time>2019-10-08T11:26:24.000Z</Time>
            <Position>
              <LatitudeDegrees>39.78350923396646976470947265625</LatitudeDegrees>
              <LongitudeDegrees>-6.39490487985312938690185546875</LongitudeDegrees>
            </Position>
            <AltitudeMeters>233</AltitudeMeters>
            <DistanceMeters>NAN</DistanceMeters>
          </Trackpoint>
          <Trackpoint>
            <Time>2019-10-08T11:26:26.000Z</Time>
            <Position>
              <LatitudeDegrees>39.78329633362591266632080078125</LatitudeDegrees>
              <LongitudeDegrees>-6.394984759390354156494140625</LongitudeDegrees>
            </Position>
            <AltitudeMeters>231.600006103515625</AltitudeMeters>
            <DistanceMeters>NAN</DistanceMeters>
          </Trackpoint>
          <Trackpoint>
            <Time>2019-10-08T11:26:29.000Z</Time>
            <Position>
              <LatitudeDegrees>39.783026017248630523681640625</LatitudeDegrees>
              <LongitudeDegrees>-6.39524518512189388275146484375</LongitudeDegrees>
            </Position>
            <AltitudeMeters>231</AltitudeMeters>
            <DistanceMeters>NAN</DistanceMeters>
          </Trackpoint>
          <Trackpoint>
            <Time>2019-10-08T11:26:30.000Z</Time>
            <Position>
              <LatitudeDegrees>39.7829447127878665924072265625</LatitudeDegrees>
              <LongitudeDegrees>-6.3953478634357452392578125</LongitudeDegrees>
            </Position>
            <AltitudeMeters>230</AltitudeMeters>
            <DistanceMeters>NAN</DistanceMeters>
          </Trackpoint>
          <Trackpoint>
            <Time>2019-10-08T11:26:31.000Z</Time>
            <Position>
              <LatitudeDegrees>39.78286399506032466888427734375</LatitudeDegrees>
              <LongitudeDegrees>-6.39545121230185031890869140625</LongitudeDegrees>
            </Position>
            <AltitudeMeters>229.600006103515625</AltitudeMeters>
            <DistanceMeters>NAN</DistanceMeters>
          </Trackpoint>
          <Trackpoint>
            <Time>2019-10-08T11:26:33.000Z</Time>
            <Position>
              <LatitudeDegrees>39.78269870392978191375732421875</LatitudeDegrees>
              <LongitudeDegrees>-6.39566092751920223236083984375</LongitudeDegrees>
            </Position>
            <AltitudeMeters>228.8000030517578125</AltitudeMeters>
            <DistanceMeters>NAN</DistanceMeters>
          </Trackpoint>
          <Trackpoint>
            <Time>2019-10-08T11:26:35.000Z</Time>
            <Position>
              <LatitudeDegrees>39.7825346700847148895263671875</LatitudeDegrees>
              <LongitudeDegrees>-6.39588229358196258544921875</LongitudeDegrees>
            </Position>
            <AltitudeMeters>228</AltitudeMeters>
            <DistanceMeters>NAN</DistanceMeters>
          </Trackpoint>
          <Trackpoint>
            <Time>2019-10-08T11:26:36.000Z</Time>
            <Position>
              <LatitudeDegrees>39.782460741698741912841796875</LatitudeDegrees>
              <LongitudeDegrees>-6.39600508846342563629150390625</LongitudeDegrees>
            </Position>
            <AltitudeMeters>226.8000030517578125</AltitudeMeters>
            <DistanceMeters>NAN</DistanceMeters>
          </Trackpoint>
          <Trackpoint>
            <Time>2019-10-08T11:26:38.000Z</Time>
            <Position>
              <LatitudeDegrees>39.7823207639157772064208984375</LatitudeDegrees>
              <LongitudeDegrees>-6.3962589763104915618896484375</LongitudeDegrees>
            </Position>
            <AltitudeMeters>224.399993896484375</AltitudeMeters>
            <DistanceMeters>NAN</DistanceMeters>
          </Trackpoint>
          <Trackpoint>
            <Time>2019-10-08T11:26:40.000Z</Time>
            <Position>
              <LatitudeDegrees>39.78219176642596721649169921875</LatitudeDegrees>
              <LongitudeDegrees>-6.39652543701231479644775390625</LongitudeDegrees>
            </Position>
            <AltitudeMeters>224</AltitudeMeters>
            <DistanceMeters>NAN</DistanceMeters>
          </Trackpoint>
          <Trackpoint>
            <Time>2019-10-08T11:26:41.000Z</Time>
            <Position>
              <LatitudeDegrees>39.78212588466703891754150390625</LatitudeDegrees>
              <LongitudeDegrees>-6.39665971510112285614013671875</LongitudeDegrees>
            </Position>
            <AltitudeMeters>223.600006103515625</AltitudeMeters>
            <DistanceMeters>NAN</DistanceMeters>
          </Trackpoint>
          <Trackpoint>
            <Time>2019-10-08T11:26:42.000Z</Time>
            <Position>
              <LatitudeDegrees>39.78206100873649120330810546875</LatitudeDegrees>
              <LongitudeDegrees>-6.39679558575153350830078125</LongitudeDegrees>
            </Position>
            <AltitudeMeters>222.8000030517578125</AltitudeMeters>
            <DistanceMeters>NAN</DistanceMeters>
          </Trackpoint>
          <Trackpoint>
            <Time>2019-10-08T11:26:43.000Z</Time>
            <Position>
              <LatitudeDegrees>39.78199495933949947357177734375</LatitudeDegrees>
              <LongitudeDegrees>-6.3969332166016101837158203125</LongitudeDegrees>
            </Position>
            <AltitudeMeters>222</AltitudeMeters>
            <DistanceMeters>NAN</DistanceMeters>
          </Trackpoint>
          <Trackpoint>
            <Time>2019-10-08T11:26:44.000Z</Time>
            <Position>
              <LatitudeDegrees>39.78192756883800029754638671875</LatitudeDegrees>
              <LongitudeDegrees>-6.3970696739852428436279296875</LongitudeDegrees>
            </Position>
            <AltitudeMeters>221</AltitudeMeters>
            <DistanceMeters>NAN</DistanceMeters>
          </Trackpoint>
          <Trackpoint>
            <Time>2019-10-08T11:26:46.000Z</Time>
            <Position>
              <LatitudeDegrees>39.78178071789443492889404296875</LatitudeDegrees>
              <LongitudeDegrees>-6.39733043499290943145751953125</LongitudeDegrees>
            </Position>
            <AltitudeMeters>219.1999969482421875</AltitudeMeters>
            <DistanceMeters>NAN</DistanceMeters>
          </Trackpoint>
          <Trackpoint>
            <Time>2019-10-08T11:26:47.000Z</Time>
            <Position>
              <LatitudeDegrees>39.78170142509043216705322265625</LatitudeDegrees>
              <LongitudeDegrees>-6.39745532535016536712646484375</LongitudeDegrees>
            </Position>
            <AltitudeMeters>218.600006103515625</AltitudeMeters>
            <DistanceMeters>NAN</DistanceMeters>
          </Trackpoint>
          <Trackpoint>
            <Time>2019-10-08T11:26:48.000Z</Time>
            <Position>
              <LatitudeDegrees>39.78162045590579509735107421875</LatitudeDegrees>
              <LongitudeDegrees>-6.39757770113646984100341796875</LongitudeDegrees>
            </Position>
            <AltitudeMeters>218</AltitudeMeters>
            <DistanceMeters>NAN</DistanceMeters>
          </Trackpoint>
          <Trackpoint>
            <Time>2019-10-08T11:26:50.000Z</Time>
            <Position>
              <LatitudeDegrees>39.78145365603268146514892578125</LatitudeDegrees>
              <LongitudeDegrees>-6.3978216983377933502197265625</LongitudeDegrees>
            </Position>
            <AltitudeMeters>216.8000030517578125</AltitudeMeters>
            <DistanceMeters>NAN</DistanceMeters>
          </Trackpoint>
          <Trackpoint>
            <Time>2019-10-08T11:26:52.000Z</Time>
            <Position>
              <LatitudeDegrees>39.78128962218761444091796875</LatitudeDegrees>
              <LongitudeDegrees>-6.39806829392910003662109375</LongitudeDegrees>
            </Position>
            <AltitudeMeters>215.1999969482421875</AltitudeMeters>
            <DistanceMeters>NAN</DistanceMeters>
          </Trackpoint>
          <Trackpoint>
            <Time>2019-10-08T11:26:54.000Z</Time>
            <Position>
              <LatitudeDegrees>39.78113966993987560272216796875</LatitudeDegrees>
              <LongitudeDegrees>-6.398327462375164031982421875</LongitudeDegrees>
            </Position>
            <AltitudeMeters>214</AltitudeMeters>
            <DistanceMeters>NAN</DistanceMeters>
          </Trackpoint>
          <Trackpoint>
            <Time>2019-10-08T11:26:58.000Z</Time>
            <Position>
              <LatitudeDegrees>39.7809089161455631256103515625</LatitudeDegrees>
              <LongitudeDegrees>-6.3988925702869892120361328125</LongitudeDegrees>
            </Position>
            <AltitudeMeters>212.399993896484375</AltitudeMeters>
            <DistanceMeters>NAN</DistanceMeters>
          </Trackpoint>
          <Trackpoint>
            <Time>2019-10-08T11:27:00.000Z</Time>
            <Position>
              <LatitudeDegrees>39.78080087341368198394775390625</LatitudeDegrees>
              <LongitudeDegrees>-6.39917244203388690948486328125</LongitudeDegrees>
            </Position>
            <AltitudeMeters>211</AltitudeMeters>
            <DistanceMeters>NAN</DistanceMeters>
          </Trackpoint>
          <Trackpoint>
            <Time>2019-10-08T11:27:02.000Z</Time>
            <Position>
              <LatitudeDegrees>39.7806966863572597503662109375</LatitudeDegrees>
              <LongitudeDegrees>-6.3994417525827884674072265625</LongitudeDegrees>
            </Position>
            <AltitudeMeters>210.8000030517578125</AltitudeMeters>
            <DistanceMeters>NAN</DistanceMeters>
          </Trackpoint>
          <Trackpoint>
            <Time>2019-10-08T11:27:03.000Z</Time>
            <Position>
              <LatitudeDegrees>39.78064899332821369171142578125</LatitudeDegrees>
              <LongitudeDegrees>-6.3995765335857868194580078125</LongitudeDegrees>
            </Position>
            <AltitudeMeters>211</AltitudeMeters>
            <DistanceMeters>NAN</DistanceMeters>
          </Trackpoint>
          <Trackpoint>
            <Time>2019-10-08T11:27:04.000Z</Time>
            <Position>
              <LatitudeDegrees>39.78060339577496051788330078125</LatitudeDegrees>
              <LongitudeDegrees>-6.3997103087604045867919921875</LongitudeDegrees>
            </Position>
            <AltitudeMeters>210.399993896484375</AltitudeMeters>
            <DistanceMeters>NAN</DistanceMeters>
          </Trackpoint>
          <Trackpoint>
            <Time>2019-10-08T11:27:06.000Z</Time>
            <Position>
              <LatitudeDegrees>39.78051471523940563201904296875</LatitudeDegrees>
              <LongitudeDegrees>-6.39997534453868865966796875</LongitudeDegrees>
            </Position>
            <AltitudeMeters>209.399993896484375</AltitudeMeters>
            <DistanceMeters>NAN</DistanceMeters>
          </Trackpoint>
          <Trackpoint>
            <Time>2019-10-08T11:27:08.000Z</Time>
            <Position>
              <LatitudeDegrees>39.78044983930885791778564453125</LatitudeDegrees>
              <LongitudeDegrees>-6.40025203116238117218017578125</LongitudeDegrees>
            </Position>
            <AltitudeMeters>208.8000030517578125</AltitudeMeters>
            <DistanceMeters>NAN</DistanceMeters>
          </Trackpoint>
          <Trackpoint>
            <Time>2019-10-08T11:27:09.000Z</Time>
            <Position>
              <LatitudeDegrees>39.78043022565543651580810546875</LatitudeDegrees>
              <LongitudeDegrees>-6.400394774973392486572265625</LongitudeDegrees>
            </Position>
            <AltitudeMeters>208.1999969482421875</AltitudeMeters>
            <DistanceMeters>NAN</DistanceMeters>
          </Trackpoint>
          <Trackpoint>
            <Time>2019-10-08T11:27:11.000Z</Time>
            <Position>
              <LatitudeDegrees>39.780416227877140045166015625</LatitudeDegrees>
              <LongitudeDegrees>-6.40069015324115753173828125</LongitudeDegrees>
            </Position>
            <AltitudeMeters>207</AltitudeMeters>
            <DistanceMeters>NAN</DistanceMeters>
          </Trackpoint>
          <Trackpoint>
            <Time>2019-10-08T11:27:12.000Z</Time>
            <Position>
              <LatitudeDegrees>39.78042595088481903076171875</LatitudeDegrees>
              <LongitudeDegrees>-6.4008371718227863311767578125</LongitudeDegrees>
            </Position>
            <AltitudeMeters>206.600006103515625</AltitudeMeters>
            <DistanceMeters>NAN</DistanceMeters>
          </Trackpoint>
          <Trackpoint>
            <Time>2019-10-08T11:27:13.000Z</Time>
            <Position>
              <LatitudeDegrees>39.78044380433857440948486328125</LatitudeDegrees>
              <LongitudeDegrees>-6.40098477713763713836669921875</LongitudeDegrees>
            </Position>
            <AltitudeMeters>206.600006103515625</AltitudeMeters>
            <DistanceMeters>NAN</DistanceMeters>
          </Trackpoint>
          <Trackpoint>
            <Time>2019-10-08T11:27:15.000Z</Time>
            <Position>
              <LatitudeDegrees>39.78049292229115962982177734375</LatitudeDegrees>
              <LongitudeDegrees>-6.40127613209187984466552734375</LongitudeDegrees>
            </Position>
            <AltitudeMeters>205.600006103515625</AltitudeMeters>
            <DistanceMeters>NAN</DistanceMeters>
          </Trackpoint>
          <Trackpoint>
            <Time>2019-10-08T11:27:16.000Z</Time>
            <Position>
              <LatitudeDegrees>39.7805159725248813629150390625</LatitudeDegrees>
              <LongitudeDegrees>-6.40142231248319149017333984375</LongitudeDegrees>
            </Position>
            <AltitudeMeters>205</AltitudeMeters>
            <DistanceMeters>NAN</DistanceMeters>
          </Trackpoint>
          <Trackpoint>
            <Time>2019-10-08T11:27:17.000Z</Time>
            <Position>
              <LatitudeDegrees>39.780536927282810211181640625</LatitudeDegrees>
              <LongitudeDegrees>-6.4015680737793445587158203125</LongitudeDegrees>
            </Position>
            <AltitudeMeters>204.399993896484375</AltitudeMeters>
            <DistanceMeters>NAN</DistanceMeters>
          </Trackpoint>
          <Trackpoint>
            <Time>2019-10-08T11:27:19.000Z</Time>
            <Position>
              <LatitudeDegrees>39.780563414096832275390625</LatitudeDegrees>
              <LongitudeDegrees>-6.4018607698380947113037109375</LongitudeDegrees>
            </Position>
            <AltitudeMeters>204</AltitudeMeters>
            <DistanceMeters>NAN</DistanceMeters>
          </Trackpoint>
          <Trackpoint>
            <Time>2019-10-08T11:27:20.000Z</Time>
            <Position>
              <LatitudeDegrees>39.7805686108767986297607421875</LatitudeDegrees>
              <LongitudeDegrees>-6.402007453143596649169921875</LongitudeDegrees>
            </Position>
            <AltitudeMeters>203</AltitudeMeters>
            <DistanceMeters>NAN</DistanceMeters>
          </Trackpoint>
          <Trackpoint>
            <Time>2019-10-08T11:27:21.000Z</Time>
            <Position>
              <LatitudeDegrees>39.78057003580033779144287109375</LatitudeDegrees>
              <LongitudeDegrees>-6.40215053223073482513427734375</LongitudeDegrees>
            </Position>
            <AltitudeMeters>201.8000030517578125</AltitudeMeters>
            <DistanceMeters>NAN</DistanceMeters>
          </Trackpoint>
          <Trackpoint>
            <Time>2019-10-08T11:27:22.000Z</Time>
            <Position>
              <LatitudeDegrees>39.78056810796260833740234375</LatitudeDegrees>
              <LongitudeDegrees>-6.40229235403239727020263671875</LongitudeDegrees>
            </Position>
            <AltitudeMeters>201.600006103515625</AltitudeMeters>
            <DistanceMeters>NAN</DistanceMeters>
          </Trackpoint>
          <Trackpoint>
            <Time>2019-10-08T11:27:27.000Z</Time>
            <Position>
              <LatitudeDegrees>39.7804928384721279144287109375</LatitudeDegrees>
              <LongitudeDegrees>-6.4030020497739315032958984375</LongitudeDegrees>
            </Position>
            <AltitudeMeters>201.600006103515625</AltitudeMeters>
            <DistanceMeters>NAN</DistanceMeters>
          </Trackpoint>
          <Trackpoint>
            <Time>2019-10-08T11:27:29.000Z</Time>
            <Position>
              <LatitudeDegrees>39.78044279851019382476806640625</LatitudeDegrees>
              <LongitudeDegrees>-6.40328410081565380096435546875</LongitudeDegrees>
            </Position>
            <AltitudeMeters>200.399993896484375</AltitudeMeters>
            <DistanceMeters>NAN</DistanceMeters>
          </Trackpoint>
          <Trackpoint>
            <Time>2019-10-08T11:27:30.000Z</Time>
            <Position>
              <LatitudeDegrees>39.78041832335293292999267578125</LatitudeDegrees>
              <LongitudeDegrees>-6.4034258387982845306396484375</LongitudeDegrees>
            </Position>
            <AltitudeMeters>198.8000030517578125</AltitudeMeters>
            <DistanceMeters>NAN</DistanceMeters>
          </Trackpoint>
          <Trackpoint>
            <Time>2019-10-08T11:27:35.000Z</Time>
            <Position>
              <LatitudeDegrees>39.78030349127948284149169921875</LatitudeDegrees>
              <LongitudeDegrees>-6.404124386608600616455078125</LongitudeDegrees>
            </Position>
            <AltitudeMeters>198.1999969482421875</AltitudeMeters>
            <DistanceMeters>NAN</DistanceMeters>
          </Trackpoint>
          <Trackpoint>
            <Time>2019-10-08T11:27:36.000Z</Time>
            <Position>
              <LatitudeDegrees>39.780286811292171478271484375</LatitudeDegrees>
              <LongitudeDegrees>-6.40426377765834331512451171875</LongitudeDegrees>
            </Position>
            <AltitudeMeters>197.8000030517578125</AltitudeMeters>
            <DistanceMeters>NAN</DistanceMeters>
          </Trackpoint>
          <Trackpoint>
            <Time>2019-10-08T11:27:38.000Z</Time>
            <Position>
              <LatitudeDegrees>39.78024917654693126678466796875</LatitudeDegrees>
              <LongitudeDegrees>-6.40452110208570957183837890625</LongitudeDegrees>
            </Position>
            <AltitudeMeters>198</AltitudeMeters>
            <DistanceMeters>NAN</DistanceMeters>
          </Trackpoint>
          <Trackpoint>
            <Time>2019-10-08T11:27:39.000Z</Time>
            <Position>
              <LatitudeDegrees>39.780215062201023101806640625</LatitudeDegrees>
              <LongitudeDegrees>-6.4046408794820308685302734375</LongitudeDegrees>
            </Position>
            <AltitudeMeters>198.600006103515625</AltitudeMeters>
            <DistanceMeters>NAN</DistanceMeters>
          </Trackpoint>
          <Trackpoint>
            <Time>2019-10-08T11:27:40.000Z</Time>
            <Position>
              <LatitudeDegrees>39.780168123543262481689453125</LatitudeDegrees>
              <LongitudeDegrees>-6.40475277788937091827392578125</LongitudeDegrees>
            </Position>
            <AltitudeMeters>199</AltitudeMeters>
            <DistanceMeters>NAN</DistanceMeters>
          </Trackpoint>
          <Trackpoint>
            <Time>2019-10-08T11:27:42.000Z</Time>
            <Position>
              <LatitudeDegrees>39.78004868142306804656982421875</LatitudeDegrees>
              <LongitudeDegrees>-6.404949836432933807373046875</LongitudeDegrees>
            </Position>
            <AltitudeMeters>198</AltitudeMeters>
            <DistanceMeters>NAN</DistanceMeters>
          </Trackpoint>
          <Trackpoint>
            <Time>2019-10-08T11:27:43.000Z</Time>
            <Position>
              <LatitudeDegrees>39.77998229674994945526123046875</LatitudeDegrees>
              <LongitudeDegrees>-6.4050400257110595703125</LongitudeDegrees>
            </Position>
            <AltitudeMeters>197.8000030517578125</AltitudeMeters>
            <DistanceMeters>NAN</DistanceMeters>
          </Trackpoint>
          <Trackpoint>
            <Time>2019-10-08T11:27:48.000Z</Time>
            <Position>
              <LatitudeDegrees>39.779635369777679443359375</LatitudeDegrees>
              <LongitudeDegrees>-6.40545350499451160430908203125</LongitudeDegrees>
            </Position>
            <AltitudeMeters>196.399993896484375</AltitudeMeters>
            <DistanceMeters>NAN</DistanceMeters>
          </Trackpoint>
          <Trackpoint>
            <Time>2019-10-08T11:27:52.000Z</Time>
            <Position>
              <LatitudeDegrees>39.77935164235532283782958984375</LatitudeDegrees>
              <LongitudeDegrees>-6.405775286257266998291015625</LongitudeDegrees>
            </Position>
            <AltitudeMeters>195.399993896484375</AltitudeMeters>
            <DistanceMeters>NAN</DistanceMeters>
          </Trackpoint>
          <Trackpoint>
            <Time>2019-10-08T11:27:58.000Z</Time>
            <Position>
              <LatitudeDegrees>39.77891745977103710174560546875</LatitudeDegrees>
              <LongitudeDegrees>-6.4062595926225185394287109375</LongitudeDegrees>
            </Position>
            <AltitudeMeters>194.600006103515625</AltitudeMeters>
            <DistanceMeters>NAN</DistanceMeters>
          </Trackpoint>
          <Trackpoint>
            <Time>2019-10-08T11:28:00.000Z</Time>
            <Position>
              <LatitudeDegrees>39.77877027355134487152099609375</LatitudeDegrees>
              <LongitudeDegrees>-6.4064201898872852325439453125</LongitudeDegrees>
            </Position>
            <AltitudeMeters>195.1999969482421875</AltitudeMeters>
            <DistanceMeters>NAN</DistanceMeters>
          </Trackpoint>
          <Trackpoint>
            <Time>2019-10-08T11:28:05.000Z</Time>
            <Position>
              <LatitudeDegrees>39.77840884588658809661865234375</LatitudeDegrees>
              <LongitudeDegrees>-6.40682243742048740386962890625</LongitudeDegrees>
            </Position>
            <AltitudeMeters>194</AltitudeMeters>
            <DistanceMeters>NAN</DistanceMeters>
          </Trackpoint>
          <Trackpoint>
            <Time>2019-10-08T11:28:07.000Z</Time>
            <Position>
              <LatitudeDegrees>39.77827121503651142120361328125</LatitudeDegrees>
              <LongitudeDegrees>-6.40698303468525409698486328125</LongitudeDegrees>
            </Position>
            <AltitudeMeters>194.1999969482421875</AltitudeMeters>
            <DistanceMeters>NAN</DistanceMeters>
          </Trackpoint>
          <Trackpoint>
            <Time>2019-10-08T11:28:12.000Z</Time>
            <Position>
              <LatitudeDegrees>39.77796762250363826751708984375</LatitudeDegrees>
              <LongitudeDegrees>-6.40740933828055858612060546875</LongitudeDegrees>
            </Position>
            <AltitudeMeters>192.8000030517578125</AltitudeMeters>
            <DistanceMeters>NAN</DistanceMeters>
          </Trackpoint>
          <Trackpoint>
            <Time>2019-10-08T11:28:13.000Z</Time>
            <Position>
              <LatitudeDegrees>39.77791649289429187774658203125</LatitudeDegrees>
              <LongitudeDegrees>-6.4075004495680332183837890625</LongitudeDegrees>
            </Position>
            <AltitudeMeters>192.600006103515625</AltitudeMeters>
            <DistanceMeters>NAN</DistanceMeters>
          </Trackpoint>
          <Trackpoint>
            <Time>2019-10-08T11:28:20.000Z</Time>
            <Position>
              <LatitudeDegrees>39.77760954760015010833740234375</LatitudeDegrees>
              <LongitudeDegrees>-6.4081688225269317626953125</LongitudeDegrees>
            </Position>
            <AltitudeMeters>192.600006103515625</AltitudeMeters>
            <DistanceMeters>NAN</DistanceMeters>
          </Trackpoint>
          <Trackpoint>
            <Time>2019-10-08T11:28:21.000Z</Time>
            <Position>
              <LatitudeDegrees>39.77756730280816555023193359375</LatitudeDegrees>
              <LongitudeDegrees>-6.40826873481273651123046875</LongitudeDegrees>
            </Position>
            <AltitudeMeters>191.8000030517578125</AltitudeMeters>
            <DistanceMeters>NAN</DistanceMeters>
          </Trackpoint>
          <Trackpoint>
            <Time>2019-10-08T11:28:27.000Z</Time>
            <Position>
              <LatitudeDegrees>39.77732489816844463348388671875</LatitudeDegrees>
              <LongitudeDegrees>-6.40889159403741359710693359375</LongitudeDegrees>
            </Position>
            <AltitudeMeters>190.600006103515625</AltitudeMeters>
            <DistanceMeters>NAN</DistanceMeters>
          </Trackpoint>
          <Trackpoint>
            <Time>2019-10-08T11:28:28.000Z</Time>
            <Position>
              <LatitudeDegrees>39.777291454374790191650390625</LatitudeDegrees>
              <LongitudeDegrees>-6.40900139696896076202392578125</LongitudeDegrees>
            </Position>
            <AltitudeMeters>190</AltitudeMeters>
            <DistanceMeters>NAN</DistanceMeters>
          </Trackpoint>
          <Trackpoint>
            <Time>2019-10-08T11:28:30.000Z</Time>
            <Position>
              <LatitudeDegrees>39.777233786880970001220703125</LatitudeDegrees>
              <LongitudeDegrees>-6.40922217629849910736083984375</LongitudeDegrees>
            </Position>
            <AltitudeMeters>189.399993896484375</AltitudeMeters>
            <DistanceMeters>NAN</DistanceMeters>
          </Trackpoint>
          <Trackpoint>
            <Time>2019-10-08T11:28:34.000Z</Time>
            <Position>
              <LatitudeDegrees>39.77713647298514842987060546875</LatitudeDegrees>
              <LongitudeDegrees>-6.4096713624894618988037109375</LongitudeDegrees>
            </Position>
            <AltitudeMeters>188.399993896484375</AltitudeMeters>
            <DistanceMeters>NAN</DistanceMeters>
          </Trackpoint>
          <Trackpoint>
            <Time>2019-10-08T11:28:35.000Z</Time>
            <Position>
              <LatitudeDegrees>39.777119792997837066650390625</LatitudeDegrees>
              <LongitudeDegrees>-6.40978912822902202606201171875</LongitudeDegrees>
            </Position>
            <AltitudeMeters>188.1999969482421875</AltitudeMeters>
            <DistanceMeters>NAN</DistanceMeters>
          </Trackpoint>
          <Trackpoint>
            <Time>2019-10-08T11:28:36.000Z</Time>
            <Position>
              <LatitudeDegrees>39.77711468003690242767333984375</LatitudeDegrees>
              <LongitudeDegrees>-6.40990999527275562286376953125</LongitudeDegrees>
            </Position>
            <AltitudeMeters>188.399993896484375</AltitudeMeters>
            <DistanceMeters>NAN</DistanceMeters>
          </Trackpoint>
          <Trackpoint>
            <Time>2019-10-08T11:28:38.000Z</Time>
            <Position>
              <LatitudeDegrees>39.77713898755609989166259765625</LatitudeDegrees>
              <LongitudeDegrees>-6.41015072353184223175048828125</LongitudeDegrees>
            </Position>
            <AltitudeMeters>188</AltitudeMeters>
            <DistanceMeters>NAN</DistanceMeters>
          </Trackpoint>
          <Trackpoint>
            <Time>2019-10-08T11:28:39.000Z</Time>
            <Position>
              <LatitudeDegrees>39.77716295979917049407958984375</LatitudeDegrees>
              <LongitudeDegrees>-6.41026790253818035125732421875</LongitudeDegrees>
            </Position>
            <AltitudeMeters>187</AltitudeMeters>
            <DistanceMeters>NAN</DistanceMeters>
          </Trackpoint>
          <Trackpoint>
            <Time>2019-10-08T11:28:42.000Z</Time>
            <Position>
              <LatitudeDegrees>39.777252562344074249267578125</LatitudeDegrees>
              <LongitudeDegrees>-6.41061407513916492462158203125</LongitudeDegrees>
            </Position>
            <AltitudeMeters>185.8000030517578125</AltitudeMeters>
            <DistanceMeters>NAN</DistanceMeters>
          </Trackpoint>
          <Trackpoint>
            <Time>2019-10-08T11:28:44.000Z</Time>
            <Position>
              <LatitudeDegrees>39.7773164324462413787841796875</LatitudeDegrees>
              <LongitudeDegrees>-6.4108418114483356475830078125</LongitudeDegrees>
            </Position>
            <AltitudeMeters>186.1999969482421875</AltitudeMeters>
            <DistanceMeters>NAN</DistanceMeters>
          </Trackpoint>
          <Trackpoint>
            <Time>2019-10-08T11:28:48.000Z</Time>
            <Position>
              <LatitudeDegrees>39.77741274051368236541748046875</LatitudeDegrees>
              <LongitudeDegrees>-6.41129803843796253204345703125</LongitudeDegrees>
            </Position>
            <AltitudeMeters>184.600006103515625</AltitudeMeters>
            <DistanceMeters>NAN</DistanceMeters>
          </Trackpoint>
          <Trackpoint>
            <Time>2019-10-08T11:28:50.000Z</Time>
            <Position>
              <LatitudeDegrees>39.77744308300316333770751953125</LatitudeDegrees>
              <LongitudeDegrees>-6.4115247689187526702880859375</LongitudeDegrees>
            </Position>
            <AltitudeMeters>185</AltitudeMeters>
            <DistanceMeters>NAN</DistanceMeters>
          </Trackpoint>
          <Trackpoint>
            <Time>2019-10-08T11:28:56.000Z</Time>
            <Position>
              <LatitudeDegrees>39.77748432196676731109619140625</LatitudeDegrees>
              <LongitudeDegrees>-6.41217931173741817474365234375</LongitudeDegrees>
            </Position>
            <AltitudeMeters>185</AltitudeMeters>
            <DistanceMeters>NAN</DistanceMeters>
          </Trackpoint>
          <Trackpoint>
            <Time>2019-10-08T11:29:00.000Z</Time>
            <Position>
              <LatitudeDegrees>39.77740687318146228790283203125</LatitudeDegrees>
              <LongitudeDegrees>-6.41258298419415950775146484375</LongitudeDegrees>
            </Position>
            <AltitudeMeters>185.399993896484375</AltitudeMeters>
            <DistanceMeters>NAN</DistanceMeters>
          </Trackpoint>
          <Trackpoint>
            <Time>2019-10-08T11:29:07.000Z</Time>
            <Position>
              <LatitudeDegrees>39.77717737667262554168701171875</LatitudeDegrees>
              <LongitudeDegrees>-6.4132534526288509368896484375</LongitudeDegrees>
            </Position>
            <AltitudeMeters>184.399993896484375</AltitudeMeters>
            <DistanceMeters>NAN</DistanceMeters>
          </Trackpoint>
          <Trackpoint>
            <Time>2019-10-08T11:29:08.000Z</Time>
            <Position>
              <LatitudeDegrees>39.77714250795543193817138671875</LatitudeDegrees>
              <LongitudeDegrees>-6.41334925778210163116455078125</LongitudeDegrees>
            </Position>
            <AltitudeMeters>184</AltitudeMeters>
            <DistanceMeters>NAN</DistanceMeters>
          </Trackpoint>
          <Trackpoint>
            <Time>2019-10-08T11:29:09.000Z</Time>
            <Position>
              <LatitudeDegrees>39.77710898034274578094482421875</LatitudeDegrees>
              <LongitudeDegrees>-6.41344397328794002532958984375</LongitudeDegrees>
            </Position>
            <AltitudeMeters>183.600006103515625</AltitudeMeters>
            <DistanceMeters>NAN</DistanceMeters>
          </Trackpoint>
          <Trackpoint>
            <Time>2019-10-08T11:29:16.000Z</Time>
            <Position>
              <LatitudeDegrees>39.77687613107264041900634765625</LatitudeDegrees>
              <LongitudeDegrees>-6.41410647891461849212646484375</LongitudeDegrees>
            </Position>
            <AltitudeMeters>183</AltitudeMeters>
            <DistanceMeters>NAN</DistanceMeters>
          </Trackpoint>
          <Trackpoint>
            <Time>2019-10-08T11:29:19.000Z</Time>
            <Position>
              <LatitudeDegrees>39.7767729498445987701416015625</LatitudeDegrees>
              <LongitudeDegrees>-6.4143933914601802825927734375</LongitudeDegrees>
            </Position>
            <AltitudeMeters>182.8000030517578125</AltitudeMeters>
            <DistanceMeters>NAN</DistanceMeters>
          </Trackpoint>
          <Trackpoint>
            <Time>2019-10-08T11:29:22.000Z</Time>
            <Position>
              <LatitudeDegrees>39.776667170226573944091796875</LatitudeDegrees>
              <LongitudeDegrees>-6.414681561291217803955078125</LongitudeDegrees>
            </Position>
            <AltitudeMeters>182.399993896484375</AltitudeMeters>
            <DistanceMeters>NAN</DistanceMeters>
          </Trackpoint>
          <Trackpoint>
            <Time>2019-10-08T11:29:26.000Z</Time>
            <Position>
              <LatitudeDegrees>39.7765333950519561767578125</LatitudeDegrees>
              <LongitudeDegrees>-6.41507123596966266632080078125</LongitudeDegrees>
            </Position>
            <AltitudeMeters>182.399993896484375</AltitudeMeters>
            <DistanceMeters>NAN</DistanceMeters>
          </Trackpoint>
          <Trackpoint>
            <Time>2019-10-08T11:29:29.000Z</Time>
            <Position>
              <LatitudeDegrees>39.776434488594532012939453125</LatitudeDegrees>
              <LongitudeDegrees>-6.41536091454327106475830078125</LongitudeDegrees>
            </Position>
            <AltitudeMeters>181.1999969482421875</AltitudeMeters>
            <DistanceMeters>NAN</DistanceMeters>
          </Trackpoint>
          <Trackpoint>
            <Time>2019-10-08T11:29:34.000Z</Time>
            <Position>
              <LatitudeDegrees>39.77625335566699504852294921875</LatitudeDegrees>
              <LongitudeDegrees>-6.4158337377011775970458984375</LongitudeDegrees>
            </Position>
            <AltitudeMeters>180.399993896484375</AltitudeMeters>
            <DistanceMeters>NAN</DistanceMeters>
          </Trackpoint>
          <Trackpoint>
            <Time>2019-10-08T11:29:36.000Z</Time>
            <Position>
              <LatitudeDegrees>39.77616048417985439300537109375</LatitudeDegrees>
              <LongitudeDegrees>-6.41601487062871456146240234375</LongitudeDegrees>
            </Position>
            <AltitudeMeters>180.1999969482421875</AltitudeMeters>
            <DistanceMeters>NAN</DistanceMeters>
          </Trackpoint>
          <Trackpoint>
            <Time>2019-10-08T11:29:39.000Z</Time>
            <Position>
              <LatitudeDegrees>39.77599368430674076080322265625</LatitudeDegrees>
              <LongitudeDegrees>-6.41627739183604717254638671875</LongitudeDegrees>
            </Position>
            <AltitudeMeters>180</AltitudeMeters>
            <DistanceMeters>NAN</DistanceMeters>
          </Trackpoint>
          <Trackpoint>
            <Time>2019-10-08T11:29:41.000Z</Time>
            <Position>
              <LatitudeDegrees>39.7758576460182666778564453125</LatitudeDegrees>
              <LongitudeDegrees>-6.41643212176859378814697265625</LongitudeDegrees>
            </Position>
            <AltitudeMeters>179</AltitudeMeters>
            <DistanceMeters>NAN</DistanceMeters>
          </Trackpoint>
          <Trackpoint>
            <Time>2019-10-08T11:29:43.000Z</Time>
            <Position>
              <LatitudeDegrees>39.77570484392344951629638671875</LatitudeDegrees>
              <LongitudeDegrees>-6.41656556166708469390869140625</LongitudeDegrees>
            </Position>
            <AltitudeMeters>178.600006103515625</AltitudeMeters>
            <DistanceMeters>NAN</DistanceMeters>
          </Trackpoint>
          <Trackpoint>
            <Time>2019-10-08T11:29:46.000Z</Time>
            <Position>
              <LatitudeDegrees>39.7754563204944133758544921875</LatitudeDegrees>
              <LongitudeDegrees>-6.4167416654527187347412109375</LongitudeDegrees>
            </Position>
            <AltitudeMeters>177.600006103515625</AltitudeMeters>
            <DistanceMeters>NAN</DistanceMeters>
          </Trackpoint>
          <Trackpoint>
            <Time>2019-10-08T11:29:50.000Z</Time>
            <Position>
              <LatitudeDegrees>39.77512364275753498077392578125</LatitudeDegrees>
              <LongitudeDegrees>-6.41696873120963573455810546875</LongitudeDegrees>
            </Position>
            <AltitudeMeters>176.600006103515625</AltitudeMeters>
            <DistanceMeters>NAN</DistanceMeters>
          </Trackpoint>
          <Trackpoint>
            <Time>2019-10-08T11:29:51.000Z</Time>
            <Position>
              <LatitudeDegrees>39.77504166774451732635498046875</LatitudeDegrees>
              <LongitudeDegrees>-6.417024135589599609375</LongitudeDegrees>
            </Position>
            <AltitudeMeters>176.1999969482421875</AltitudeMeters>
            <DistanceMeters>NAN</DistanceMeters>
          </Trackpoint>
          <Trackpoint>
            <Time>2019-10-08T11:29:57.000Z</Time>
            <Position>
              <LatitudeDegrees>39.77455249987542629241943359375</LatitudeDegrees>
              <LongitudeDegrees>-6.41735647805035114288330078125</LongitudeDegrees>
            </Position>
            <AltitudeMeters>175.399993896484375</AltitudeMeters>
            <DistanceMeters>NAN</DistanceMeters>
          </Trackpoint>
          <Trackpoint>
            <Time>2019-10-08T11:29:59.000Z</Time>
            <Position>
              <LatitudeDegrees>39.77439039386808872222900390625</LatitudeDegrees>
              <LongitudeDegrees>-6.4174708910286426544189453125</LongitudeDegrees>
            </Position>
            <AltitudeMeters>175</AltitudeMeters>
            <DistanceMeters>NAN</DistanceMeters>
          </Trackpoint>
          <Trackpoint>
            <Time>2019-10-08T11:30:00.000Z</Time>
            <Position>
              <LatitudeDegrees>39.7743103466928005218505859375</LatitudeDegrees>
              <LongitudeDegrees>-6.4175297319889068603515625</LongitudeDegrees>
            </Position>
            <AltitudeMeters>175</AltitudeMeters>
            <DistanceMeters>NAN</DistanceMeters>
          </Trackpoint>
          <Trackpoint>
            <Time>2019-10-08T11:30:03.000Z</Time>
            <Position>
              <LatitudeDegrees>39.7740837000310420989990234375</LatitudeDegrees>
              <LongitudeDegrees>-6.417741961777210235595703125</LongitudeDegrees>
            </Position>
            <AltitudeMeters>173.600006103515625</AltitudeMeters>
            <DistanceMeters>NAN</DistanceMeters>
          </Trackpoint>
          <Trackpoint>
            <Time>2019-10-08T11:30:05.000Z</Time>
            <Position>
              <LatitudeDegrees>39.77394330315291881561279296875</LatitudeDegrees>
              <LongitudeDegrees>-6.41790046356618404388427734375</LongitudeDegrees>
            </Position>
            <AltitudeMeters>173.1999969482421875</AltitudeMeters>
            <DistanceMeters>NAN</DistanceMeters>
          </Trackpoint>
          <Trackpoint>
            <Time>2019-10-08T11:30:11.000Z</Time>
            <Position>
              <LatitudeDegrees>39.77353267371654510498046875</LatitudeDegrees>
              <LongitudeDegrees>-6.41840253956615924835205078125</LongitudeDegrees>
            </Position>
            <AltitudeMeters>173.399993896484375</AltitudeMeters>
            <DistanceMeters>NAN</DistanceMeters>
          </Trackpoint>
          <Trackpoint>
            <Time>2019-10-08T11:30:13.000Z</Time>
            <Position>
              <LatitudeDegrees>39.7733953781425952911376953125</LatitudeDegrees>
              <LongitudeDegrees>-6.4185704290866851806640625</LongitudeDegrees>
            </Position>
            <AltitudeMeters>172.399993896484375</AltitudeMeters>
            <DistanceMeters>NAN</DistanceMeters>
          </Trackpoint>
          <Trackpoint>
            <Time>2019-10-08T11:30:19.000Z</Time>
            <Position>
              <LatitudeDegrees>39.77301693521440029144287109375</LatitudeDegrees>
              <LongitudeDegrees>-6.41912003047764301300048828125</LongitudeDegrees>
            </Position>
            <AltitudeMeters>172.399993896484375</AltitudeMeters>
            <DistanceMeters>NAN</DistanceMeters>
          </Trackpoint>
          <Trackpoint>
            <Time>2019-10-08T11:30:20.000Z</Time>
            <Position>
              <LatitudeDegrees>39.77295692078769207000732421875</LatitudeDegrees>
              <LongitudeDegrees>-6.4192156679928302764892578125</LongitudeDegrees>
            </Position>
            <AltitudeMeters>172</AltitudeMeters>
            <DistanceMeters>NAN</DistanceMeters>
          </Trackpoint>
          <Trackpoint>
            <Time>2019-10-08T11:30:22.000Z</Time>
            <Position>
              <LatitudeDegrees>39.77283638902008533477783203125</LatitudeDegrees>
              <LongitudeDegrees>-6.41940736211836338043212890625</LongitudeDegrees>
            </Position>
            <AltitudeMeters>171.1999969482421875</AltitudeMeters>
            <DistanceMeters>NAN</DistanceMeters>
          </Trackpoint>
          <Trackpoint>
            <Time>2019-10-08T11:30:28.000Z</Time>
            <Position>
              <LatitudeDegrees>39.77248082868754863739013671875</LatitudeDegrees>
              <LongitudeDegrees>-6.419968865811824798583984375</LongitudeDegrees>
            </Position>
            <AltitudeMeters>170.399993896484375</AltitudeMeters>
            <DistanceMeters>NAN</DistanceMeters>
          </Trackpoint>
          <Trackpoint>
            <Time>2019-10-08T11:30:29.000Z</Time>
            <Position>
              <LatitudeDegrees>39.7724242508411407470703125</LatitudeDegrees>
              <LongitudeDegrees>-6.42006450332701206207275390625</LongitudeDegrees>
            </Position>
            <AltitudeMeters>170</AltitudeMeters>
            <DistanceMeters>NAN</DistanceMeters>
          </Trackpoint>
          <Trackpoint>
            <Time>2019-10-08T11:30:33.000Z</Time>
            <Position>
              <LatitudeDegrees>39.77219902910292148590087890625</LatitudeDegrees>
              <LongitudeDegrees>-6.42044068314135074615478515625</LongitudeDegrees>
            </Position>
            <AltitudeMeters>168.8000030517578125</AltitudeMeters>
            <DistanceMeters>NAN</DistanceMeters>
          </Trackpoint>
          <Trackpoint>
            <Time>2019-10-08T11:30:39.000Z</Time>
            <Position>
              <LatitudeDegrees>39.7718869708478450775146484375</LatitudeDegrees>
              <LongitudeDegrees>-6.421022303402423858642578125</LongitudeDegrees>
            </Position>
            <AltitudeMeters>168.600006103515625</AltitudeMeters>
            <DistanceMeters>NAN</DistanceMeters>
          </Trackpoint>
          <Trackpoint>
            <Time>2019-10-08T11:30:43.000Z</Time>
            <Position>
              <LatitudeDegrees>39.77178513072431087493896484375</LatitudeDegrees>
              <LongitudeDegrees>-6.421461515128612518310546875</LongitudeDegrees>
            </Position>
            <AltitudeMeters>168.399993896484375</AltitudeMeters>
            <DistanceMeters>NAN</DistanceMeters>
          </Trackpoint>
          <Trackpoint>
            <Time>2019-10-08T11:30:50.000Z</Time>
            <Position>
              <LatitudeDegrees>39.77166309021413326263427734375</LatitudeDegrees>
              <LongitudeDegrees>-6.42219065688550472259521484375</LongitudeDegrees>
            </Position>
            <AltitudeMeters>169.399993896484375</AltitudeMeters>
            <DistanceMeters>NAN</DistanceMeters>
          </Trackpoint>
          <Trackpoint>
            <Time>2019-10-08T11:30:51.000Z</Time>
            <Position>
              <LatitudeDegrees>39.77164573967456817626953125</LatitudeDegrees>
              <LongitudeDegrees>-6.42229191027581691741943359375</LongitudeDegrees>
            </Position>
            <AltitudeMeters>169</AltitudeMeters>
            <DistanceMeters>NAN</DistanceMeters>
          </Trackpoint>
          <Trackpoint>
            <Time>2019-10-08T11:30:58.000Z</Time>
            <Position>
              <LatitudeDegrees>39.7715134732425212860107421875</LatitudeDegrees>
              <LongitudeDegrees>-6.42299381084740161895751953125</LongitudeDegrees>
            </Position>
            <AltitudeMeters>169</AltitudeMeters>
            <DistanceMeters>NAN</DistanceMeters>
          </Trackpoint>
          <Trackpoint>
            <Time>2019-10-08T11:31:00.000Z</Time>
            <Position>
              <LatitudeDegrees>39.77146427147090435028076171875</LatitudeDegrees>
              <LongitudeDegrees>-6.4231829904019832611083984375</LongitudeDegrees>
            </Position>
            <AltitudeMeters>168.8000030517578125</AltitudeMeters>
            <DistanceMeters>NAN</DistanceMeters>
          </Trackpoint>
          <Trackpoint>
            <Time>2019-10-08T11:31:06.000Z</Time>
            <Position>
              <LatitudeDegrees>39.7713029198348522186279296875</LatitudeDegrees>
              <LongitudeDegrees>-6.423729993402957916259765625</LongitudeDegrees>
            </Position>
            <AltitudeMeters>169.600006103515625</AltitudeMeters>
            <DistanceMeters>NAN</DistanceMeters>
          </Trackpoint>
          <Trackpoint>
            <Time>2019-10-08T11:31:08.000Z</Time>
            <Position>
              <LatitudeDegrees>39.77124365977942943572998046875</LatitudeDegrees>
              <LongitudeDegrees>-6.42390626482665538787841796875</LongitudeDegrees>
            </Position>
            <AltitudeMeters>169.399993896484375</AltitudeMeters>
            <DistanceMeters>NAN</DistanceMeters>
          </Trackpoint>
          <Trackpoint>
            <Time>2019-10-08T11:31:09.000Z</Time>
            <Position>
              <LatitudeDegrees>39.77121524512767791748046875</LatitudeDegrees>
              <LongitudeDegrees>-6.42399318516254425048828125</LongitudeDegrees>
            </Position>
            <AltitudeMeters>169.8000030517578125</AltitudeMeters>
            <DistanceMeters>NAN</DistanceMeters>
          </Trackpoint>
          <Trackpoint>
            <Time>2019-10-08T11:31:14.000Z</Time>
            <Position>
              <LatitudeDegrees>39.7710742615163326263427734375</LatitudeDegrees>
              <LongitudeDegrees>-6.4244265295565128326416015625</LongitudeDegrees>
            </Position>
            <AltitudeMeters>170</AltitudeMeters>
            <DistanceMeters>NAN</DistanceMeters>
          </Trackpoint>
          <Trackpoint>
            <Time>2019-10-08T11:31:17.000Z</Time>
            <Position>
              <LatitudeDegrees>39.7709937952458858489990234375</LatitudeDegrees>
              <LongitudeDegrees>-6.4246805012226104736328125</LongitudeDegrees>
            </Position>
            <AltitudeMeters>170.1999969482421875</AltitudeMeters>
            <DistanceMeters>NAN</DistanceMeters>
          </Trackpoint>
          <Trackpoint>
            <Time>2019-10-08T11:31:25.000Z</Time>
            <Position>
              <LatitudeDegrees>39.7707953117787837982177734375</LatitudeDegrees>
              <LongitudeDegrees>-6.4253998361527919769287109375</LongitudeDegrees>
            </Position>
            <AltitudeMeters>169.399993896484375</AltitudeMeters>
            <DistanceMeters>NAN</DistanceMeters>
          </Trackpoint>
          <Trackpoint>
            <Time>2019-10-08T11:31:29.000Z</Time>
            <Position>
              <LatitudeDegrees>39.770743846893310546875</LatitudeDegrees>
              <LongitudeDegrees>-6.42578330822288990020751953125</LongitudeDegrees>
            </Position>
            <AltitudeMeters>168.8000030517578125</AltitudeMeters>
            <DistanceMeters>NAN</DistanceMeters>
          </Trackpoint>
          <Trackpoint>
            <Time>2019-10-08T11:31:33.000Z</Time>
            <Position>
              <LatitudeDegrees>39.77065424434840679168701171875</LatitudeDegrees>
              <LongitudeDegrees>-6.42614758573472499847412109375</LongitudeDegrees>
            </Position>
            <AltitudeMeters>168.8000030517578125</AltitudeMeters>
            <DistanceMeters>NAN</DistanceMeters>
          </Trackpoint>
          <Trackpoint>
            <Time>2019-10-08T11:31:36.000Z</Time>
            <Position>
              <LatitudeDegrees>39.7705279290676116943359375</LatitudeDegrees>
              <LongitudeDegrees>-6.42639200203120708465576171875</LongitudeDegrees>
            </Position>
            <AltitudeMeters>167.1999969482421875</AltitudeMeters>
            <DistanceMeters>NAN</DistanceMeters>
          </Trackpoint>
          <Trackpoint>
            <Time>2019-10-08T11:31:37.000Z</Time>
            <Position>
              <LatitudeDegrees>39.77047721855342388153076171875</LatitudeDegrees>
              <LongitudeDegrees>-6.42647129483520984649658203125</LongitudeDegrees>
            </Position>
            <AltitudeMeters>167</AltitudeMeters>
            <DistanceMeters>NAN</DistanceMeters>
          </Trackpoint>
          <Trackpoint>
            <Time>2019-10-08T11:31:38.000Z</Time>
            <Position>
              <LatitudeDegrees>39.77042692713439464569091796875</LatitudeDegrees>
              <LongitudeDegrees>-6.42655159346759319305419921875</LongitudeDegrees>
            </Position>
            <AltitudeMeters>167.1999969482421875</AltitudeMeters>
            <DistanceMeters>NAN</DistanceMeters>
          </Trackpoint>
          <Trackpoint>
            <Time>2019-10-08T11:31:45.000Z</Time>
            <Position>
              <LatitudeDegrees>39.770070277154445648193359375</LatitudeDegrees>
              <LongitudeDegrees>-6.4271030388772487640380859375</LongitudeDegrees>
            </Position>
            <AltitudeMeters>166.1999969482421875</AltitudeMeters>
            <DistanceMeters>NAN</DistanceMeters>
          </Trackpoint>
          <Trackpoint>
            <Time>2019-10-08T11:31:47.000Z</Time>
            <Position>
              <LatitudeDegrees>39.7699780762195587158203125</LatitudeDegrees>
              <LongitudeDegrees>-6.4272666536271572113037109375</LongitudeDegrees>
            </Position>
            <AltitudeMeters>166.600006103515625</AltitudeMeters>
            <DistanceMeters>NAN</DistanceMeters>
          </Trackpoint>
          <Trackpoint>
            <Time>2019-10-08T11:31:48.000Z</Time>
            <Position>
              <LatitudeDegrees>39.769934825599193572998046875</LatitudeDegrees>
              <LongitudeDegrees>-6.42735340632498264312744140625</LongitudeDegrees>
            </Position>
            <AltitudeMeters>167.399993896484375</AltitudeMeters>
            <DistanceMeters>NAN</DistanceMeters>
          </Trackpoint>
          <Trackpoint>
            <Time>2019-10-08T11:31:51.000Z</Time>
            <Position>
              <LatitudeDegrees>39.7698391042649745941162109375</LatitudeDegrees>
              <LongitudeDegrees>-6.42763830721378326416015625</LongitudeDegrees>
            </Position>
            <AltitudeMeters>165.399993896484375</AltitudeMeters>
            <DistanceMeters>NAN</DistanceMeters>
          </Trackpoint>
          <Trackpoint>
            <Time>2019-10-08T11:31:52.000Z</Time>
            <Position>
              <LatitudeDegrees>39.76981915533542633056640625</LatitudeDegrees>
              <LongitudeDegrees>-6.427737213671207427978515625</LongitudeDegrees>
            </Position>
            <AltitudeMeters>165.1999969482421875</AltitudeMeters>
            <DistanceMeters>NAN</DistanceMeters>
          </Trackpoint>
          <Trackpoint>
            <Time>2019-10-08T11:31:54.000Z</Time>
            <Position>
              <LatitudeDegrees>39.76978353224694728851318359375</LatitudeDegrees>
              <LongitudeDegrees>-6.42793728969991207122802734375</LongitudeDegrees>
            </Position>
            <AltitudeMeters>166.600006103515625</AltitudeMeters>
            <DistanceMeters>NAN</DistanceMeters>
          </Trackpoint>
          <Trackpoint>
            <Time>2019-10-08T11:31:56.000Z</Time>
            <Position>
              <LatitudeDegrees>39.7697458975017070770263671875</LatitudeDegrees>
              <LongitudeDegrees>-6.42813342623412609100341796875</LongitudeDegrees>
            </Position>
            <AltitudeMeters>165</AltitudeMeters>
            <DistanceMeters>NAN</DistanceMeters>
          </Trackpoint>
          <Trackpoint>
            <Time>2019-10-08T11:31:59.000Z</Time>
            <Position>
              <LatitudeDegrees>39.76968077011406421661376953125</LatitudeDegrees>
              <LongitudeDegrees>-6.4284196682274341583251953125</LongitudeDegrees>
            </Position>
            <AltitudeMeters>165.8000030517578125</AltitudeMeters>
            <DistanceMeters>NAN</DistanceMeters>
          </Trackpoint>
          <Trackpoint>
            <Time>2019-10-08T11:32:00.000Z</Time>
            <Position>
              <LatitudeDegrees>39.76964875124394893646240234375</LatitudeDegrees>
              <LongitudeDegrees>-6.42850642092525959014892578125</LongitudeDegrees>
            </Position>
            <AltitudeMeters>165.8000030517578125</AltitudeMeters>
            <DistanceMeters>NAN</DistanceMeters>
          </Trackpoint>
          <Trackpoint>
            <Time>2019-10-08T11:32:01.000Z</Time>
            <Position>
              <LatitudeDegrees>39.76961069740355014801025390625</LatitudeDegrees>
              <LongitudeDegrees>-6.42859049141407012939453125</LongitudeDegrees>
            </Position>
            <AltitudeMeters>166</AltitudeMeters>
            <DistanceMeters>NAN</DistanceMeters>
          </Trackpoint>
          <Trackpoint>
            <Time>2019-10-08T11:32:03.000Z</Time>
            <Position>
              <LatitudeDegrees>39.76951547898352146148681640625</LatitudeDegrees>
              <LongitudeDegrees>-6.42873935401439666748046875</LongitudeDegrees>
            </Position>
            <AltitudeMeters>165.1999969482421875</AltitudeMeters>
            <DistanceMeters>NAN</DistanceMeters>
          </Trackpoint>
          <Trackpoint>
            <Time>2019-10-08T11:32:05.000Z</Time>
            <Position>
              <LatitudeDegrees>39.7694049216806888580322265625</LatitudeDegrees>
              <LongitudeDegrees>-6.42886332236230373382568359375</LongitudeDegrees>
            </Position>
            <AltitudeMeters>165</AltitudeMeters>
            <DistanceMeters>NAN</DistanceMeters>
          </Trackpoint>
          <Trackpoint>
            <Time>2019-10-08T11:32:07.000Z</Time>
            <Position>
              <LatitudeDegrees>39.769287742674350738525390625</LatitudeDegrees>
              <LongitudeDegrees>-6.42898620106279850006103515625</LongitudeDegrees>
            </Position>
            <AltitudeMeters>164.8000030517578125</AltitudeMeters>
            <DistanceMeters>NAN</DistanceMeters>
          </Trackpoint>
          <Trackpoint>
            <Time>2019-10-08T11:32:09.000Z</Time>
            <Position>
              <LatitudeDegrees>39.76916712708771228790283203125</LatitudeDegrees>
              <LongitudeDegrees>-6.429108493030071258544921875</LongitudeDegrees>
            </Position>
            <AltitudeMeters>164.1999969482421875</AltitudeMeters>
            <DistanceMeters>NAN</DistanceMeters>
          </Trackpoint>
          <Trackpoint>
            <Time>2019-10-08T11:32:16.000Z</Time>
            <Position>
              <LatitudeDegrees>39.7687481157481670379638671875</LatitudeDegrees>
              <LongitudeDegrees>-6.4295307733118534088134765625</LongitudeDegrees>
            </Position>
            <AltitudeMeters>164.600006103515625</AltitudeMeters>
            <DistanceMeters>NAN</DistanceMeters>
          </Trackpoint>
          <Trackpoint>
            <Time>2019-10-08T11:32:18.000Z</Time>
            <Position>
              <LatitudeDegrees>39.76862817071378231048583984375</LatitudeDegrees>
              <LongitudeDegrees>-6.42964686267077922821044921875</LongitudeDegrees>
            </Position>
            <AltitudeMeters>163.8000030517578125</AltitudeMeters>
            <DistanceMeters>NAN</DistanceMeters>
          </Trackpoint>
          <Trackpoint>
            <Time>2019-10-08T11:32:19.000Z</Time>
            <Position>
              <LatitudeDegrees>39.76856798864901065826416015625</LatitudeDegrees>
              <LongitudeDegrees>-6.4297042787075042724609375</LongitudeDegrees>
            </Position>
            <AltitudeMeters>163.600006103515625</AltitudeMeters>
            <DistanceMeters>NAN</DistanceMeters>
          </Trackpoint>
          <Trackpoint>
            <Time>2019-10-08T11:32:24.000Z</Time>
            <Position>
              <LatitudeDegrees>39.7682572714984416961669921875</LatitudeDegrees>
              <LongitudeDegrees>-6.42996537499129772186279296875</LongitudeDegrees>
            </Position>
            <AltitudeMeters>162.600006103515625</AltitudeMeters>
            <DistanceMeters>NAN</DistanceMeters>
          </Trackpoint>
          <Trackpoint>
            <Time>2019-10-08T11:32:27.000Z</Time>
            <Position>
              <LatitudeDegrees>39.7680688463151454925537109375</LatitudeDegrees>
              <LongitudeDegrees>-6.43011842854321002960205078125</LongitudeDegrees>
            </Position>
            <AltitudeMeters>162</AltitudeMeters>
            <DistanceMeters>NAN</DistanceMeters>
          </Trackpoint>
          <Trackpoint>
            <Time>2019-10-08T11:32:35.000Z</Time>
            <Position>
              <LatitudeDegrees>39.76758889853954315185546875</LatitudeDegrees>
              <LongitudeDegrees>-6.4304936863481998443603515625</LongitudeDegrees>
            </Position>
            <AltitudeMeters>162</AltitudeMeters>
            <DistanceMeters>NAN</DistanceMeters>
          </Trackpoint>
          <Trackpoint>
            <Time>2019-10-08T11:32:38.000Z</Time>
            <Position>
              <LatitudeDegrees>39.7674046643078327178955078125</LatitudeDegrees>
              <LongitudeDegrees>-6.43059074878692626953125</LongitudeDegrees>
            </Position>
            <AltitudeMeters>162.8000030517578125</AltitudeMeters>
            <DistanceMeters>NAN</DistanceMeters>
          </Trackpoint>
          <Trackpoint>
            <Time>2019-10-08T11:32:41.000Z</Time>
            <Position>
              <LatitudeDegrees>39.767205007374286651611328125</LatitudeDegrees>
              <LongitudeDegrees>-6.4306489191949367523193359375</LongitudeDegrees>
            </Position>
            <AltitudeMeters>162</AltitudeMeters>
            <DistanceMeters>NAN</DistanceMeters>
          </Trackpoint>
          <Trackpoint>
            <Time>2019-10-08T11:32:42.000Z</Time>
            <Position>
              <LatitudeDegrees>39.7671371139585971832275390625</LatitudeDegrees>
              <LongitudeDegrees>-6.430666856467723846435546875</LongitudeDegrees>
            </Position>
            <AltitudeMeters>161.600006103515625</AltitudeMeters>
            <DistanceMeters>NAN</DistanceMeters>
          </Trackpoint>
          <Trackpoint>
            <Time>2019-10-08T11:32:50.000Z</Time>
            <Position>
              <LatitudeDegrees>39.76658868603408336639404296875</LatitudeDegrees>
              <LongitudeDegrees>-6.43080239184200763702392578125</LongitudeDegrees>
            </Position>
            <AltitudeMeters>161.600006103515625</AltitudeMeters>
            <DistanceMeters>NAN</DistanceMeters>
          </Trackpoint>
          <Trackpoint>
            <Time>2019-10-08T11:32:52.000Z</Time>
            <Position>
              <LatitudeDegrees>39.7664484567940235137939453125</LatitudeDegrees>
              <LongitudeDegrees>-6.43083776347339153289794921875</LongitudeDegrees>
            </Position>
            <AltitudeMeters>160.600006103515625</AltitudeMeters>
            <DistanceMeters>NAN</DistanceMeters>
          </Trackpoint>
          <Trackpoint>
            <Time>2019-10-08T11:32:55.000Z</Time>
            <Position>
              <LatitudeDegrees>39.76622977294027805328369140625</LatitudeDegrees>
              <LongitudeDegrees>-6.43089911900460720062255859375</LongitudeDegrees>
            </Position>
            <AltitudeMeters>159.600006103515625</AltitudeMeters>
            <DistanceMeters>NAN</DistanceMeters>
          </Trackpoint>
          <Trackpoint>
            <Time>2019-10-08T11:32:58.000Z</Time>
            <Position>
              <LatitudeDegrees>39.7659985162317752838134765625</LatitudeDegrees>
              <LongitudeDegrees>-6.4309622347354888916015625</LongitudeDegrees>
            </Position>
            <AltitudeMeters>158.8000030517578125</AltitudeMeters>
            <DistanceMeters>NAN</DistanceMeters>
          </Trackpoint>
          <Trackpoint>
            <Time>2019-10-08T11:32:59.000Z</Time>
            <Position>
              <LatitudeDegrees>39.7659173794090747833251953125</LatitudeDegrees>
              <LongitudeDegrees>-6.4309858717024326324462890625</LongitudeDegrees>
            </Position>
            <AltitudeMeters>158.399993896484375</AltitudeMeters>
            <DistanceMeters>NAN</DistanceMeters>
          </Trackpoint>
          <Trackpoint>
            <Time>2019-10-08T11:33:02.000Z</Time>
            <Position>
              <LatitudeDegrees>39.76566500030457973480224609375</LatitudeDegrees>
              <LongitudeDegrees>-6.43105938099324703216552734375</LongitudeDegrees>
            </Position>
            <AltitudeMeters>157.1999969482421875</AltitudeMeters>
            <DistanceMeters>NAN</DistanceMeters>
          </Trackpoint>
          <Trackpoint>
            <Time>2019-10-08T11:33:06.000Z</Time>
            <Position>
              <LatitudeDegrees>39.76531304419040679931640625</LatitudeDegrees>
              <LongitudeDegrees>-6.43119432963430881500244140625</LongitudeDegrees>
            </Position>
            <AltitudeMeters>155.8000030517578125</AltitudeMeters>
            <DistanceMeters>NAN</DistanceMeters>
          </Trackpoint>
          <Trackpoint>
            <Time>2019-10-08T11:33:08.000Z</Time>
            <Position>
              <LatitudeDegrees>39.76513979025185108184814453125</LatitudeDegrees>
              <LongitudeDegrees>-6.43129206262528896331787109375</LongitudeDegrees>
            </Position>
            <AltitudeMeters>154.600006103515625</AltitudeMeters>
            <DistanceMeters>NAN</DistanceMeters>
          </Trackpoint>
          <Trackpoint>
            <Time>2019-10-08T11:33:11.000Z</Time>
            <Position>
              <LatitudeDegrees>39.7648867405951023101806640625</LatitudeDegrees>
              <LongitudeDegrees>-6.4314745366573333740234375</LongitudeDegrees>
            </Position>
            <AltitudeMeters>153.1999969482421875</AltitudeMeters>
            <DistanceMeters>NAN</DistanceMeters>
          </Trackpoint>
          <Trackpoint>
            <Time>2019-10-08T11:33:15.000Z</Time>
            <Position>
              <LatitudeDegrees>39.76458189077675342559814453125</LatitudeDegrees>
              <LongitudeDegrees>-6.43177368678152561187744140625</LongitudeDegrees>
            </Position>
            <AltitudeMeters>151.399993896484375</AltitudeMeters>
            <DistanceMeters>NAN</DistanceMeters>
          </Trackpoint>
          <Trackpoint>
            <Time>2019-10-08T11:33:17.000Z</Time>
            <Position>
              <LatitudeDegrees>39.7644418291747570037841796875</LatitudeDegrees>
              <LongitudeDegrees>-6.43192422576248645782470703125</LongitudeDegrees>
            </Position>
            <AltitudeMeters>150.8000030517578125</AltitudeMeters>
            <DistanceMeters>NAN</DistanceMeters>
          </Trackpoint>
          <Trackpoint>
            <Time>2019-10-08T11:33:24.000Z</Time>
            <Position>
              <LatitudeDegrees>39.76398124359548091888427734375</LatitudeDegrees>
              <LongitudeDegrees>-6.43243007361888885498046875</LongitudeDegrees>
            </Position>
            <AltitudeMeters>151.600006103515625</AltitudeMeters>
            <DistanceMeters>NAN</DistanceMeters>
          </Trackpoint>
          <Trackpoint>
            <Time>2019-10-08T11:33:25.000Z</Time>
            <Position>
              <LatitudeDegrees>39.76391904987394809722900390625</LatitudeDegrees>
              <LongitudeDegrees>-6.43250056542456150054931640625</LongitudeDegrees>
            </Position>
            <AltitudeMeters>151.8000030517578125</AltitudeMeters>
            <DistanceMeters>NAN</DistanceMeters>
          </Trackpoint>
          <Trackpoint>
            <Time>2019-10-08T11:33:31.000Z</Time>
            <Position>
              <LatitudeDegrees>39.76354203186929225921630859375</LatitudeDegrees>
              <LongitudeDegrees>-6.43289283849298954010009765625</LongitudeDegrees>
            </Position>
            <AltitudeMeters>152.8000030517578125</AltitudeMeters>
            <DistanceMeters>NAN</DistanceMeters>
          </Trackpoint>
          <Trackpoint>
            <Time>2019-10-08T11:33:33.000Z</Time>
            <Position>
              <LatitudeDegrees>39.76340607739984989166259765625</LatitudeDegrees>
              <LongitudeDegrees>-6.43300515599548816680908203125</LongitudeDegrees>
            </Position>
            <AltitudeMeters>153</AltitudeMeters>
            <DistanceMeters>NAN</DistanceMeters>
          </Trackpoint>
          <Trackpoint>
            <Time>2019-10-08T11:33:35.000Z</Time>
            <Position>
              <LatitudeDegrees>39.7632645070552825927734375</LatitudeDegrees>
              <LongitudeDegrees>-6.43310867249965667724609375</LongitudeDegrees>
            </Position>
            <AltitudeMeters>151.600006103515625</AltitudeMeters>
            <DistanceMeters>NAN</DistanceMeters>
          </Trackpoint>
          <Trackpoint>
            <Time>2019-10-08T11:33:38.000Z</Time>
            <Position>
              <LatitudeDegrees>39.76304833777248859405517578125</LatitudeDegrees>
              <LongitudeDegrees>-6.43323632888495922088623046875</LongitudeDegrees>
            </Position>
            <AltitudeMeters>150.600006103515625</AltitudeMeters>
            <DistanceMeters>NAN</DistanceMeters>
          </Trackpoint>
          <Trackpoint>
            <Time>2019-10-08T11:33:39.000Z</Time>
            <Position>
              <LatitudeDegrees>39.7629746608436107635498046875</LatitudeDegrees>
              <LongitudeDegrees>-6.4332707785069942474365234375</LongitudeDegrees>
            </Position>
            <AltitudeMeters>150.600006103515625</AltitudeMeters>
            <DistanceMeters>NAN</DistanceMeters>
          </Trackpoint>
          <Trackpoint>
            <Time>2019-10-08T11:33:45.000Z</Time>
            <Position>
              <LatitudeDegrees>39.76252446882426738739013671875</LatitudeDegrees>
              <LongitudeDegrees>-6.433402039110660552978515625</LongitudeDegrees>
            </Position>
            <AltitudeMeters>150.399993896484375</AltitudeMeters>
            <DistanceMeters>NAN</DistanceMeters>
          </Trackpoint>
          <Trackpoint>
            <Time>2019-10-08T11:33:51.000Z</Time>
            <Position>
              <LatitudeDegrees>39.76206212304532527923583984375</LatitudeDegrees>
              <LongitudeDegrees>-6.43341402523219585418701171875</LongitudeDegrees>
            </Position>
            <AltitudeMeters>150</AltitudeMeters>
            <DistanceMeters>NAN</DistanceMeters>
          </Trackpoint>
          <Trackpoint>
            <Time>2019-10-08T11:33:52.000Z</Time>
            <Position>
              <LatitudeDegrees>39.76198601536452770233154296875</LatitudeDegrees>
              <LongitudeDegrees>-6.43340379931032657623291015625</LongitudeDegrees>
            </Position>
            <AltitudeMeters>149.399993896484375</AltitudeMeters>
            <DistanceMeters>NAN</DistanceMeters>
          </Trackpoint>
          <Trackpoint>
            <Time>2019-10-08T11:33:57.000Z</Time>
            <Position>
              <LatitudeDegrees>39.76161486469209194183349609375</LatitudeDegrees>
              <LongitudeDegrees>-6.43329751677811145782470703125</LongitudeDegrees>
            </Position>
            <AltitudeMeters>149.1999969482421875</AltitudeMeters>
            <DistanceMeters>NAN</DistanceMeters>
          </Trackpoint>
          <Trackpoint>
            <Time>2019-10-08T11:34:04.000Z</Time>
            <Position>
              <LatitudeDegrees>39.76110926829278469085693359375</LatitudeDegrees>
              <LongitudeDegrees>-6.43305662088096141815185546875</LongitudeDegrees>
            </Position>
            <AltitudeMeters>148.8000030517578125</AltitudeMeters>
            <DistanceMeters>NAN</DistanceMeters>
          </Trackpoint>
          <Trackpoint>
            <Time>2019-10-08T11:34:06.000Z</Time>
            <Position>
              <LatitudeDegrees>39.7609673626720905303955078125</LatitudeDegrees>
              <LongitudeDegrees>-6.432983614504337310791015625</LongitudeDegrees>
            </Position>
            <AltitudeMeters>148.1999969482421875</AltitudeMeters>
            <DistanceMeters>NAN</DistanceMeters>
          </Trackpoint>
          <Trackpoint>
            <Time>2019-10-08T11:34:09.000Z</Time>
            <Position>
              <LatitudeDegrees>39.76075102575123310089111328125</LatitudeDegrees>
              <LongitudeDegrees>-6.43287540413439273834228515625</LongitudeDegrees>
            </Position>
            <AltitudeMeters>149.1999969482421875</AltitudeMeters>
            <DistanceMeters>NAN</DistanceMeters>
          </Trackpoint>
          <Trackpoint>
            <Time>2019-10-08T11:34:13.000Z</Time>
            <Position>
              <LatitudeDegrees>39.76045531220734119415283203125</LatitudeDegrees>
              <LongitudeDegrees>-6.4327675290405750274658203125</LongitudeDegrees>
            </Position>
            <AltitudeMeters>148.1999969482421875</AltitudeMeters>
            <DistanceMeters>NAN</DistanceMeters>
          </Trackpoint>
          <Trackpoint>
            <Time>2019-10-08T11:34:14.000Z</Time>
            <Position>
              <LatitudeDegrees>39.76038071326911449432373046875</LatitudeDegrees>
              <LongitudeDegrees>-6.43274062313139438629150390625</LongitudeDegrees>
            </Position>
            <AltitudeMeters>147.600006103515625</AltitudeMeters>
            <DistanceMeters>NAN</DistanceMeters>
          </Trackpoint>
          <Trackpoint>
            <Time>2019-10-08T11:34:19.000Z</Time>
            <Position>
              <LatitudeDegrees>39.76002347655594348907470703125</LatitudeDegrees>
              <LongitudeDegrees>-6.432563178241252899169921875</LongitudeDegrees>
            </Position>
            <AltitudeMeters>147</AltitudeMeters>
            <DistanceMeters>NAN</DistanceMeters>
          </Trackpoint>
          <Trackpoint>
            <Time>2019-10-08T11:34:21.000Z</Time>
            <Position>
              <LatitudeDegrees>39.7598800621926784515380859375</LatitudeDegrees>
              <LongitudeDegrees>-6.43249520100653171539306640625</LongitudeDegrees>
            </Position>
            <AltitudeMeters>146.600006103515625</AltitudeMeters>
            <DistanceMeters>NAN</DistanceMeters>
          </Trackpoint>
          <Trackpoint>
            <Time>2019-10-08T11:34:28.000Z</Time>
            <Position>
              <LatitudeDegrees>39.75938695482909679412841796875</LatitudeDegrees>
              <LongitudeDegrees>-6.432238630950450897216796875</LongitudeDegrees>
            </Position>
            <AltitudeMeters>147.399993896484375</AltitudeMeters>
            <DistanceMeters>NAN</DistanceMeters>
          </Trackpoint>
          <Trackpoint>
            <Time>2019-10-08T11:34:31.000Z</Time>
            <Position>
              <LatitudeDegrees>39.7591763176023960113525390625</LatitudeDegrees>
              <LongitudeDegrees>-6.432125978171825408935546875</LongitudeDegrees>
            </Position>
            <AltitudeMeters>146.399993896484375</AltitudeMeters>
            <DistanceMeters>NAN</DistanceMeters>
          </Trackpoint>
          <Trackpoint>
            <Time>2019-10-08T11:34:38.000Z</Time>
            <Position>
              <LatitudeDegrees>39.7586888261139392852783203125</LatitudeDegrees>
              <LongitudeDegrees>-6.43187477253377437591552734375</LongitudeDegrees>
            </Position>
            <AltitudeMeters>145.8000030517578125</AltitudeMeters>
            <DistanceMeters>NAN</DistanceMeters>
          </Trackpoint>
          <Trackpoint>
            <Time>2019-10-08T11:34:41.000Z</Time>
            <Position>
              <LatitudeDegrees>39.758492521941661834716796875</LatitudeDegrees>
              <LongitudeDegrees>-6.43177829682826995849609375</LongitudeDegrees>
            </Position>
            <AltitudeMeters>146</AltitudeMeters>
            <DistanceMeters>NAN</DistanceMeters>
          </Trackpoint>
          <Trackpoint>
            <Time>2019-10-08T11:34:46.000Z</Time>
            <Position>
              <LatitudeDegrees>39.7581979818642139434814453125</LatitudeDegrees>
              <LongitudeDegrees>-6.43162750639021396636962890625</LongitudeDegrees>
            </Position>
            <AltitudeMeters>146.8000030517578125</AltitudeMeters>
            <DistanceMeters>NAN</DistanceMeters>
          </Trackpoint>
          <Trackpoint>
            <Time>2019-10-08T11:34:49.000Z</Time>
            <Position>
              <LatitudeDegrees>39.75802774541079998016357421875</LatitudeDegrees>
              <LongitudeDegrees>-6.43154670484364032745361328125</LongitudeDegrees>
            </Position>
            <AltitudeMeters>147</AltitudeMeters>
            <DistanceMeters>NAN</DistanceMeters>
          </Trackpoint>
          <Trackpoint>
            <Time>2019-10-08T11:34:50.000Z</Time>
            <Position>
              <LatitudeDegrees>39.75797125138342380523681640625</LatitudeDegrees>
              <LongitudeDegrees>-6.43152139149606227874755859375</LongitudeDegrees>
            </Position>
            <AltitudeMeters>148</AltitudeMeters>
            <DistanceMeters>NAN</DistanceMeters>
          </Trackpoint>
          <Trackpoint>
            <Time>2019-10-08T11:34:58.000Z</Time>
            <Position>
              <LatitudeDegrees>39.757546372711658477783203125</LatitudeDegrees>
              <LongitudeDegrees>-6.43134252168238162994384765625</LongitudeDegrees>
            </Position>
            <AltitudeMeters>149</AltitudeMeters>
            <DistanceMeters>NAN</DistanceMeters>
          </Trackpoint>
          <Trackpoint>
            <Time>2019-10-08T11:34:59.000Z</Time>
            <Position>
              <LatitudeDegrees>39.75749281235039234161376953125</LatitudeDegrees>
              <LongitudeDegrees>-6.43132810480892658233642578125</LongitudeDegrees>
            </Position>
            <AltitudeMeters>149</AltitudeMeters>
            <DistanceMeters>NAN</DistanceMeters>
          </Trackpoint>
          <Trackpoint>
            <Time>2019-10-08T11:35:08.000Z</Time>
            <Position>
              <LatitudeDegrees>39.757020659744739532470703125</LatitudeDegrees>
              <LongitudeDegrees>-6.43125451169908046722412109375</LongitudeDegrees>
            </Position>
            <AltitudeMeters>149.399993896484375</AltitudeMeters>
            <DistanceMeters>NAN</DistanceMeters>
          </Trackpoint>
          <Trackpoint>
            <Time>2019-10-08T11:35:12.000Z</Time>
            <Position>
              <LatitudeDegrees>39.75681044161319732666015625</LatitudeDegrees>
              <LongitudeDegrees>-6.43126507289707660675048828125</LongitudeDegrees>
            </Position>
            <AltitudeMeters>150.1999969482421875</AltitudeMeters>
            <DistanceMeters>NAN</DistanceMeters>
          </Trackpoint>
          <Trackpoint>
            <Time>2019-10-08T11:35:15.000Z</Time>
            <Position>
              <LatitudeDegrees>39.75665328092873096466064453125</LatitudeDegrees>
              <LongitudeDegrees>-6.43128401599824428558349609375</LongitudeDegrees>
            </Position>
            <AltitudeMeters>149.8000030517578125</AltitudeMeters>
            <DistanceMeters>NAN</DistanceMeters>
          </Trackpoint>
          <Trackpoint>
            <Time>2019-10-08T11:35:24.000Z</Time>
            <Position>
              <LatitudeDegrees>39.75618741475045680999755859375</LatitudeDegrees>
              <LongitudeDegrees>-6.43140857107937335968017578125</LongitudeDegrees>
            </Position>
            <AltitudeMeters>151</AltitudeMeters>
            <DistanceMeters>NAN</DistanceMeters>
          </Trackpoint>
          <Trackpoint>
            <Time>2019-10-08T11:35:32.000Z</Time>
            <Position>
              <LatitudeDegrees>39.7557999193668365478515625</LatitudeDegrees>
              <LongitudeDegrees>-6.4316171966493129730224609375</LongitudeDegrees>
            </Position>
            <AltitudeMeters>151</AltitudeMeters>
            <DistanceMeters>NAN</DistanceMeters>
          </Trackpoint>
          <Trackpoint>
            <Time>2019-10-08T11:35:37.000Z</Time>
            <Position>
              <LatitudeDegrees>39.755571596324443817138671875</LatitudeDegrees>
              <LongitudeDegrees>-6.4317935518920421600341796875</LongitudeDegrees>
            </Position>
            <AltitudeMeters>151.399993896484375</AltitudeMeters>
            <DistanceMeters>NAN</DistanceMeters>
          </Trackpoint>
          <Trackpoint>
            <Time>2019-10-08T11:35:41.000Z</Time>
            <Position>
              <LatitudeDegrees>39.7553917206823825836181640625</LatitudeDegrees>
              <LongitudeDegrees>-6.43195590935647487640380859375</LongitudeDegrees>
            </Position>
            <AltitudeMeters>151.600006103515625</AltitudeMeters>
            <DistanceMeters>NAN</DistanceMeters>
          </Trackpoint>
          <Trackpoint>
            <Time>2019-10-08T11:35:46.000Z</Time>
            <Position>
              <LatitudeDegrees>39.755171276628971099853515625</LatitudeDegrees>
              <LongitudeDegrees>-6.43219001591205596923828125</LongitudeDegrees>
            </Position>
            <AltitudeMeters>152.399993896484375</AltitudeMeters>
            <DistanceMeters>NAN</DistanceMeters>
          </Trackpoint>
          <Trackpoint>
            <Time>2019-10-08T11:35:50.000Z</Time>
            <Position>
              <LatitudeDegrees>39.7550021298229694366455078125</LatitudeDegrees>
              <LongitudeDegrees>-6.43239797092974185943603515625</LongitudeDegrees>
            </Position>
            <AltitudeMeters>152.600006103515625</AltitudeMeters>
            <DistanceMeters>NAN</DistanceMeters>
          </Trackpoint>
          <Trackpoint>
            <Time>2019-10-08T11:35:59.000Z</Time>
            <Position>
              <LatitudeDegrees>39.75462536327540874481201171875</LatitudeDegrees>
              <LongitudeDegrees>-6.43288948573172092437744140625</LongitudeDegrees>
            </Position>
            <AltitudeMeters>152.8000030517578125</AltitudeMeters>
            <DistanceMeters>NAN</DistanceMeters>
          </Trackpoint>
          <Trackpoint>
            <Time>2019-10-08T11:36:01.000Z</Time>
            <Position>
              <LatitudeDegrees>39.75454154424369335174560546875</LatitudeDegrees>
              <LongitudeDegrees>-6.4330005459487438201904296875</LongitudeDegrees>
            </Position>
            <AltitudeMeters>152.399993896484375</AltitudeMeters>
            <DistanceMeters>NAN</DistanceMeters>
          </Trackpoint>
          <Trackpoint>
            <Time>2019-10-08T11:36:08.000Z</Time>
            <Position>
              <LatitudeDegrees>39.7542454116046428680419921875</LatitudeDegrees>
              <LongitudeDegrees>-6.43339474685490131378173828125</LongitudeDegrees>
            </Position>
            <AltitudeMeters>151.399993896484375</AltitudeMeters>
            <DistanceMeters>NAN</DistanceMeters>
          </Trackpoint>
          <Trackpoint>
            <Time>2019-10-08T11:36:09.000Z</Time>
            <Position>
              <LatitudeDegrees>39.754200987517833709716796875</LatitudeDegrees>
              <LongitudeDegrees>-6.43345199525356292724609375</LongitudeDegrees>
            </Position>
            <AltitudeMeters>151.8000030517578125</AltitudeMeters>
            <DistanceMeters>NAN</DistanceMeters>
          </Trackpoint>
          <Trackpoint>
            <Time>2019-10-08T11:36:13.000Z</Time>
            <Position>
              <LatitudeDegrees>39.75402169860899448394775390625</LatitudeDegrees>
              <LongitudeDegrees>-6.43368442542850971221923828125</LongitudeDegrees>
            </Position>
            <AltitudeMeters>151.1999969482421875</AltitudeMeters>
            <DistanceMeters>NAN</DistanceMeters>
          </Trackpoint>
          <Trackpoint>
            <Time>2019-10-08T11:36:19.000Z</Time>
            <Position>
              <LatitudeDegrees>39.7537398152053356170654296875</LatitudeDegrees>
              <LongitudeDegrees>-6.43404032103717327117919921875</LongitudeDegrees>
            </Position>
            <AltitudeMeters>151.600006103515625</AltitudeMeters>
            <DistanceMeters>NAN</DistanceMeters>
          </Trackpoint>
          <Trackpoint>
            <Time>2019-10-08T11:36:27.000Z</Time>
            <Position>
              <LatitudeDegrees>39.75336690433323383331298828125</LatitudeDegrees>
              <LongitudeDegrees>-6.43455379642546176910400390625</LongitudeDegrees>
            </Position>
            <AltitudeMeters>151</AltitudeMeters>
            <DistanceMeters>NAN</DistanceMeters>
          </Trackpoint>
          <Trackpoint>
            <Time>2019-10-08T11:36:29.000Z</Time>
            <Position>
              <LatitudeDegrees>39.7532731108367443084716796875</LatitudeDegrees>
              <LongitudeDegrees>-6.43468136899173259735107421875</LongitudeDegrees>
            </Position>
            <AltitudeMeters>150.600006103515625</AltitudeMeters>
            <DistanceMeters>NAN</DistanceMeters>
          </Trackpoint>
          <Trackpoint>
            <Time>2019-10-08T11:36:31.000Z</Time>
            <Position>
              <LatitudeDegrees>39.7531807422637939453125</LatitudeDegrees>
              <LongitudeDegrees>-6.43480810336768627166748046875</LongitudeDegrees>
            </Position>
            <AltitudeMeters>150.399993896484375</AltitudeMeters>
            <DistanceMeters>NAN</DistanceMeters>
          </Trackpoint>
          <Trackpoint>
            <Time>2019-10-08T11:36:39.000Z</Time>
            <Position>
              <LatitudeDegrees>39.75279995240271091461181640625</LatitudeDegrees>
              <LongitudeDegrees>-6.4353008754551410675048828125</LongitudeDegrees>
            </Position>
            <AltitudeMeters>150.600006103515625</AltitudeMeters>
            <DistanceMeters>NAN</DistanceMeters>
          </Trackpoint>
          <Trackpoint>
            <Time>2019-10-08T11:36:40.000Z</Time>
            <Position>
              <LatitudeDegrees>39.75275066681206226348876953125</LatitudeDegrees>
              <LongitudeDegrees>-6.43535829149186611175537109375</LongitudeDegrees>
            </Position>
            <AltitudeMeters>150.600006103515625</AltitudeMeters>
            <DistanceMeters>NAN</DistanceMeters>
          </Trackpoint>
          <Trackpoint>
            <Time>2019-10-08T11:36:48.000Z</Time>
            <Position>
              <LatitudeDegrees>39.7523262910544872283935546875</LatitudeDegrees>
              <LongitudeDegrees>-6.435794569551944732666015625</LongitudeDegrees>
            </Position>
            <AltitudeMeters>150.399993896484375</AltitudeMeters>
            <DistanceMeters>NAN</DistanceMeters>
          </Trackpoint>
          <Trackpoint>
            <Time>2019-10-08T11:36:50.000Z</Time>
            <Position>
              <LatitudeDegrees>39.75221489556133747100830078125</LatitudeDegrees>
              <LongitudeDegrees>-6.43589624203741550445556640625</LongitudeDegrees>
            </Position>
            <AltitudeMeters>150</AltitudeMeters>
            <DistanceMeters>NAN</DistanceMeters>
          </Trackpoint>
          <Trackpoint>
            <Time>2019-10-08T11:36:52.000Z</Time>
            <Position>
              <LatitudeDegrees>39.75210157223045825958251953125</LatitudeDegrees>
              <LongitudeDegrees>-6.4359913766384124755859375</LongitudeDegrees>
            </Position>
            <AltitudeMeters>149.1999969482421875</AltitudeMeters>
            <DistanceMeters>NAN</DistanceMeters>
          </Trackpoint>
          <Trackpoint>
            <Time>2019-10-08T11:36:58.000Z</Time>
            <Position>
              <LatitudeDegrees>39.75176914595067501068115234375</LatitudeDegrees>
              <LongitudeDegrees>-6.43627099692821502685546875</LongitudeDegrees>
            </Position>
            <AltitudeMeters>150.1999969482421875</AltitudeMeters>
            <DistanceMeters>NAN</DistanceMeters>
          </Trackpoint>
          <Trackpoint>
            <Time>2019-10-08T11:37:00.000Z</Time>
            <Position>
              <LatitudeDegrees>39.751658253371715545654296875</LatitudeDegrees>
              <LongitudeDegrees>-6.43636361695826053619384765625</LongitudeDegrees>
            </Position>
            <AltitudeMeters>149.600006103515625</AltitudeMeters>
            <DistanceMeters>NAN</DistanceMeters>
          </Trackpoint>
          <Trackpoint>
            <Time>2019-10-08T11:37:08.000Z</Time>
            <Position>
              <LatitudeDegrees>39.75120571441948413848876953125</LatitudeDegrees>
              <LongitudeDegrees>-6.43673359416425228118896484375</LongitudeDegrees>
            </Position>
            <AltitudeMeters>149.399993896484375</AltitudeMeters>
            <DistanceMeters>NAN</DistanceMeters>
          </Trackpoint>
          <Trackpoint>
            <Time>2019-10-08T11:37:09.000Z</Time>
            <Position>
              <LatitudeDegrees>39.75114871747791767120361328125</LatitudeDegrees>
              <LongitudeDegrees>-6.4367799460887908935546875</LongitudeDegrees>
            </Position>
            <AltitudeMeters>149.1999969482421875</AltitudeMeters>
            <DistanceMeters>NAN</DistanceMeters>
          </Trackpoint>
          <Trackpoint>
            <Time>2019-10-08T11:37:11.000Z</Time>
            <Position>
              <LatitudeDegrees>39.7510344721376895904541015625</LatitudeDegrees>
              <LongitudeDegrees>-6.4368723146617412567138671875</LongitudeDegrees>
            </Position>
            <AltitudeMeters>149</AltitudeMeters>
            <DistanceMeters>NAN</DistanceMeters>
          </Trackpoint>
          <Trackpoint>
            <Time>2019-10-08T11:37:19.000Z</Time>
            <Position>
              <LatitudeDegrees>39.75057438947260379791259765625</LatitudeDegrees>
              <LongitudeDegrees>-6.43720733933150768280029296875</LongitudeDegrees>
            </Position>
            <AltitudeMeters>149</AltitudeMeters>
            <DistanceMeters>NAN</DistanceMeters>
          </Trackpoint>
          <Trackpoint>
            <Time>2019-10-08T11:37:27.000Z</Time>
            <Position>
              <LatitudeDegrees>39.75009913556277751922607421875</LatitudeDegrees>
              <LongitudeDegrees>-6.43743046559393405914306640625</LongitudeDegrees>
            </Position>
            <AltitudeMeters>149.399993896484375</AltitudeMeters>
            <DistanceMeters>NAN</DistanceMeters>
          </Trackpoint>
          <Trackpoint>
            <Time>2019-10-08T11:37:36.000Z</Time>
            <Position>
              <LatitudeDegrees>39.74953168071806430816650390625</LatitudeDegrees>
              <LongitudeDegrees>-6.43761704675853252410888671875</LongitudeDegrees>
            </Position>
            <AltitudeMeters>148.1999969482421875</AltitudeMeters>
            <DistanceMeters>NAN</DistanceMeters>
          </Trackpoint>
          <Trackpoint>
            <Time>2019-10-08T11:37:38.000Z</Time>
            <Position>
              <LatitudeDegrees>39.74940779618918895721435546875</LatitudeDegrees>
              <LongitudeDegrees>-6.43766180612146854400634765625</LongitudeDegrees>
            </Position>
            <AltitudeMeters>148.1999969482421875</AltitudeMeters>
            <DistanceMeters>NAN</DistanceMeters>
          </Trackpoint>
          <Trackpoint>
            <Time>2019-10-08T11:37:44.000Z</Time>
            <Position>
              <LatitudeDegrees>39.74903647787868976593017578125</LatitudeDegrees>
              <LongitudeDegrees>-6.43777730874717235565185546875</LongitudeDegrees>
            </Position>
            <AltitudeMeters>147.600006103515625</AltitudeMeters>
            <DistanceMeters>NAN</DistanceMeters>
          </Trackpoint>
          <Trackpoint>
            <Time>2019-10-08T11:37:52.000Z</Time>
            <Position>
              <LatitudeDegrees>39.7485648281872272491455078125</LatitudeDegrees>
              <LongitudeDegrees>-6.43798400647938251495361328125</LongitudeDegrees>
            </Position>
            <AltitudeMeters>147.8000030517578125</AltitudeMeters>
            <DistanceMeters>NAN</DistanceMeters>
          </Trackpoint>
          <Trackpoint>
            <Time>2019-10-08T11:38:02.000Z</Time>
            <Position>
              <LatitudeDegrees>39.74804825149476528167724609375</LatitudeDegrees>
              <LongitudeDegrees>-6.4382784627377986907958984375</LongitudeDegrees>
            </Position>
            <AltitudeMeters>148</AltitudeMeters>
            <DistanceMeters>NAN</DistanceMeters>
          </Trackpoint>
          <Trackpoint>
            <Time>2019-10-08T11:38:10.000Z</Time>
            <Position>
              <LatitudeDegrees>39.747605435550212860107421875</LatitudeDegrees>
              <LongitudeDegrees>-6.4385999925434589385986328125</LongitudeDegrees>
            </Position>
            <AltitudeMeters>147.399993896484375</AltitudeMeters>
            <DistanceMeters>NAN</DistanceMeters>
          </Trackpoint>
          <Trackpoint>
            <Time>2019-10-08T11:38:19.000Z</Time>
            <Position>
              <LatitudeDegrees>39.747121967375278472900390625</LatitudeDegrees>
              <LongitudeDegrees>-6.43896066583693027496337890625</LongitudeDegrees>
            </Position>
            <AltitudeMeters>148</AltitudeMeters>
            <DistanceMeters>NAN</DistanceMeters>
          </Trackpoint>
          <Trackpoint>
            <Time>2019-10-08T11:38:20.000Z</Time>
            <Position>
              <LatitudeDegrees>39.74707008339464664459228515625</LatitudeDegrees>
              <LongitudeDegrees>-6.43899905495345592498779296875</LongitudeDegrees>
            </Position>
            <AltitudeMeters>147.8000030517578125</AltitudeMeters>
            <DistanceMeters>NAN</DistanceMeters>
          </Trackpoint>
          <Trackpoint>
            <Time>2019-10-08T11:38:23.000Z</Time>
            <Position>
              <LatitudeDegrees>39.74691174924373626708984375</LatitudeDegrees>
              <LongitudeDegrees>-6.4391236938536167144775390625</LongitudeDegrees>
            </Position>
            <AltitudeMeters>148</AltitudeMeters>
            <DistanceMeters>NAN</DistanceMeters>
          </Trackpoint>
          <Trackpoint>
            <Time>2019-10-08T11:38:28.000Z</Time>
            <Position>
              <LatitudeDegrees>39.7466413490474224090576171875</LatitudeDegrees>
              <LongitudeDegrees>-6.439327709376811981201171875</LongitudeDegrees>
            </Position>
            <AltitudeMeters>147.600006103515625</AltitudeMeters>
            <DistanceMeters>NAN</DistanceMeters>
          </Trackpoint>
          <Trackpoint>
            <Time>2019-10-08T11:38:31.000Z</Time>
            <Position>
              <LatitudeDegrees>39.74648066796362400054931640625</LatitudeDegrees>
              <LongitudeDegrees>-6.4394366741180419921875</LongitudeDegrees>
            </Position>
            <AltitudeMeters>147.600006103515625</AltitudeMeters>
            <DistanceMeters>NAN</DistanceMeters>
          </Trackpoint>
          <Trackpoint>
            <Time>2019-10-08T11:38:33.000Z</Time>
            <Position>
              <LatitudeDegrees>39.7463805042207241058349609375</LatitudeDegrees>
              <LongitudeDegrees>-6.439528204500675201416015625</LongitudeDegrees>
            </Position>
            <AltitudeMeters>147</AltitudeMeters>
            <DistanceMeters>NAN</DistanceMeters>
          </Trackpoint>
          <Trackpoint>
            <Time>2019-10-08T11:38:34.000Z</Time>
            <Position>
              <LatitudeDegrees>39.7463278658688068389892578125</LatitudeDegrees>
              <LongitudeDegrees>-6.4395712874829769134521484375</LongitudeDegrees>
            </Position>
            <AltitudeMeters>146.8000030517578125</AltitudeMeters>
            <DistanceMeters>NAN</DistanceMeters>
          </Trackpoint>
          <Trackpoint>
            <Time>2019-10-08T11:38:43.000Z</Time>
            <Position>
              <LatitudeDegrees>39.74583609960973262786865234375</LatitudeDegrees>
              <LongitudeDegrees>-6.4399417676031589508056640625</LongitudeDegrees>
            </Position>
            <AltitudeMeters>147.399993896484375</AltitudeMeters>
            <DistanceMeters>NAN</DistanceMeters>
          </Trackpoint>
          <Trackpoint>
            <Time>2019-10-08T11:38:52.000Z</Time>
            <Position>
              <LatitudeDegrees>39.74534106440842151641845703125</LatitudeDegrees>
              <LongitudeDegrees>-6.44031115807592868804931640625</LongitudeDegrees>
            </Position>
            <AltitudeMeters>146.600006103515625</AltitudeMeters>
            <DistanceMeters>NAN</DistanceMeters>
          </Trackpoint>
          <Trackpoint>
            <Time>2019-10-08T11:38:53.000Z</Time>
            <Position>
              <LatitudeDegrees>39.7452858276665210723876953125</LatitudeDegrees>
              <LongitudeDegrees>-6.4403511397540569305419921875</LongitudeDegrees>
            </Position>
            <AltitudeMeters>146.8000030517578125</AltitudeMeters>
            <DistanceMeters>NAN</DistanceMeters>
          </Trackpoint>
          <Trackpoint>
            <Time>2019-10-08T11:38:56.000Z</Time>
            <Position>
              <LatitudeDegrees>39.74512196145951747894287109375</LatitudeDegrees>
              <LongitudeDegrees>-6.44047477282583713531494140625</LongitudeDegrees>
            </Position>
            <AltitudeMeters>146</AltitudeMeters>
            <DistanceMeters>NAN</DistanceMeters>
          </Trackpoint>
          <Trackpoint>
            <Time>2019-10-08T11:39:01.000Z</Time>
            <Position>
              <LatitudeDegrees>39.7448489628732204437255859375</LatitudeDegrees>
              <LongitudeDegrees>-6.44068281166255474090576171875</LongitudeDegrees>
            </Position>
            <AltitudeMeters>146.8000030517578125</AltitudeMeters>
            <DistanceMeters>NAN</DistanceMeters>
          </Trackpoint>
          <Trackpoint>
            <Time>2019-10-08T11:39:07.000Z</Time>
            <Position>
              <LatitudeDegrees>39.7445281036198139190673828125</LatitudeDegrees>
              <LongitudeDegrees>-6.44092974252998828887939453125</LongitudeDegrees>
            </Position>
            <AltitudeMeters>146.399993896484375</AltitudeMeters>
            <DistanceMeters>NAN</DistanceMeters>
          </Trackpoint>
          <Trackpoint>
            <Time>2019-10-08T11:39:12.000Z</Time>
            <Position>
              <LatitudeDegrees>39.74426449276506900787353515625</LatitudeDegrees>
              <LongitudeDegrees>-6.44112101756036281585693359375</LongitudeDegrees>
            </Position>
            <AltitudeMeters>146.600006103515625</AltitudeMeters>
            <DistanceMeters>NAN</DistanceMeters>
          </Trackpoint>
          <Trackpoint>
            <Time>2019-10-08T11:39:19.000Z</Time>
            <Position>
              <LatitudeDegrees>39.74391530267894268035888671875</LatitudeDegrees>
              <LongitudeDegrees>-6.4413804374635219573974609375</LongitudeDegrees>
            </Position>
            <AltitudeMeters>146.399993896484375</AltitudeMeters>
            <DistanceMeters>NAN</DistanceMeters>
          </Trackpoint>
          <Trackpoint>
            <Time>2019-10-08T11:39:24.000Z</Time>
            <Position>
              <LatitudeDegrees>39.74368211813271045684814453125</LatitudeDegrees>
              <LongitudeDegrees>-6.4415601454675197601318359375</LongitudeDegrees>
            </Position>
            <AltitudeMeters>146.399993896484375</AltitudeMeters>
            <DistanceMeters>NAN</DistanceMeters>
          </Trackpoint>
          <Trackpoint>
            <Time>2019-10-08T11:39:26.000Z</Time>
            <Position>
              <LatitudeDegrees>39.7435930185019969940185546875</LatitudeDegrees>
              <LongitudeDegrees>-6.44162912853062152862548828125</LongitudeDegrees>
            </Position>
            <AltitudeMeters>147</AltitudeMeters>
            <DistanceMeters>NAN</DistanceMeters>
          </Trackpoint>
          <Trackpoint>
            <Time>2019-10-08T11:39:27.000Z</Time>
            <Position>
              <LatitudeDegrees>39.74354884587228298187255859375</LatitudeDegrees>
              <LongitudeDegrees>-6.44166416488587856292724609375</LongitudeDegrees>
            </Position>
            <AltitudeMeters>147.399993896484375</AltitudeMeters>
            <DistanceMeters>NAN</DistanceMeters>
          </Trackpoint>
          <Trackpoint>
            <Time>2019-10-08T11:39:36.000Z</Time>
            <Position>
              <LatitudeDegrees>39.7431397251784801483154296875</LatitudeDegrees>
              <LongitudeDegrees>-6.4419819228351116180419921875</LongitudeDegrees>
            </Position>
            <AltitudeMeters>148.1999969482421875</AltitudeMeters>
            <DistanceMeters>NAN</DistanceMeters>
          </Trackpoint>
          <Trackpoint>
            <Time>2019-10-08T11:39:41.000Z</Time>
            <Position>
              <LatitudeDegrees>39.74291936494410037994384765625</LatitudeDegrees>
              <LongitudeDegrees>-6.4421529136598110198974609375</LongitudeDegrees>
            </Position>
            <AltitudeMeters>148.600006103515625</AltitudeMeters>
            <DistanceMeters>NAN</DistanceMeters>
          </Trackpoint>
          <Trackpoint>
            <Time>2019-10-08T11:39:45.000Z</Time>
            <Position>
              <LatitudeDegrees>39.74273898638784885406494140625</LatitudeDegrees>
              <LongitudeDegrees>-6.4422870241105556488037109375</LongitudeDegrees>
            </Position>
            <AltitudeMeters>148.399993896484375</AltitudeMeters>
            <DistanceMeters>NAN</DistanceMeters>
          </Trackpoint>
          <Trackpoint>
            <Time>2019-10-08T11:39:56.000Z</Time>
            <Position>
              <LatitudeDegrees>39.74225350655615329742431640625</LatitudeDegrees>
              <LongitudeDegrees>-6.442673094570636749267578125</LongitudeDegrees>
            </Position>
            <AltitudeMeters>149.399993896484375</AltitudeMeters>
            <DistanceMeters>NAN</DistanceMeters>
          </Trackpoint>
          <Trackpoint>
            <Time>2019-10-08T11:40:06.000Z</Time>
            <Position>
              <LatitudeDegrees>39.74179384298622608184814453125</LatitudeDegrees>
              <LongitudeDegrees>-6.44301465712487697601318359375</LongitudeDegrees>
            </Position>
            <AltitudeMeters>149.8000030517578125</AltitudeMeters>
            <DistanceMeters>NAN</DistanceMeters>
          </Trackpoint>
          <Trackpoint>
            <Time>2019-10-08T11:40:16.000Z</Time>
            <Position>
              <LatitudeDegrees>39.74132562987506389617919921875</LatitudeDegrees>
              <LongitudeDegrees>-6.44336585886776447296142578125</LongitudeDegrees>
            </Position>
            <AltitudeMeters>150</AltitudeMeters>
            <DistanceMeters>NAN</DistanceMeters>
          </Trackpoint>
          <Trackpoint>
            <Time>2019-10-08T11:40:17.000Z</Time>
            <Position>
              <LatitudeDegrees>39.741278775036334991455078125</LatitudeDegrees>
              <LongitudeDegrees>-6.44340072758495807647705078125</LongitudeDegrees>
            </Position>
            <AltitudeMeters>150</AltitudeMeters>
            <DistanceMeters>NAN</DistanceMeters>
          </Trackpoint>
          <Trackpoint>
            <Time>2019-10-08T11:40:27.000Z</Time>
            <Position>
              <LatitudeDegrees>39.7408189438283443450927734375</LatitudeDegrees>
              <LongitudeDegrees>-6.4437501691281795501708984375</LongitudeDegrees>
            </Position>
            <AltitudeMeters>150</AltitudeMeters>
            <DistanceMeters>NAN</DistanceMeters>
          </Trackpoint>
          <Trackpoint>
            <Time>2019-10-08T11:40:29.000Z</Time>
            <Position>
              <LatitudeDegrees>39.7407277487218379974365234375</LatitudeDegrees>
              <LongitudeDegrees>-6.443821750581264495849609375</LongitudeDegrees>
            </Position>
            <AltitudeMeters>150</AltitudeMeters>
            <DistanceMeters>NAN</DistanceMeters>
          </Trackpoint>
          <Trackpoint>
            <Time>2019-10-08T11:40:37.000Z</Time>
            <Position>
              <LatitudeDegrees>39.7403659857809543609619140625</LatitudeDegrees>
              <LongitudeDegrees>-6.44410732202231884002685546875</LongitudeDegrees>
            </Position>
            <AltitudeMeters>150</AltitudeMeters>
            <DistanceMeters>NAN</DistanceMeters>
          </Trackpoint>
          <Trackpoint>
            <Time>2019-10-08T11:40:44.000Z</Time>
            <Position>
              <LatitudeDegrees>39.74006465636193752288818359375</LatitudeDegrees>
              <LongitudeDegrees>-6.44438744522631168365478515625</LongitudeDegrees>
            </Position>
            <AltitudeMeters>151</AltitudeMeters>
            <DistanceMeters>NAN</DistanceMeters>
          </Trackpoint>
          <Trackpoint>
            <Time>2019-10-08T11:40:46.000Z</Time>
            <Position>
              <LatitudeDegrees>39.7399794124066829681396484375</LatitudeDegrees>
              <LongitudeDegrees>-6.44447109661996364593505859375</LongitudeDegrees>
            </Position>
            <AltitudeMeters>151.600006103515625</AltitudeMeters>
            <DistanceMeters>NAN</DistanceMeters>
          </Trackpoint>
          <Trackpoint>
            <Time>2019-10-08T11:40:55.000Z</Time>
            <Position>
              <LatitudeDegrees>39.73960968665778636932373046875</LatitudeDegrees>
              <LongitudeDegrees>-6.444868147373199462890625</LongitudeDegrees>
            </Position>
            <AltitudeMeters>151.600006103515625</AltitudeMeters>
            <DistanceMeters>NAN</DistanceMeters>
          </Trackpoint>
          <Trackpoint>
            <Time>2019-10-08T11:41:00.000Z</Time>
            <Position>
              <LatitudeDegrees>39.739438109099864959716796875</LatitudeDegrees>
              <LongitudeDegrees>-6.44506998360157012939453125</LongitudeDegrees>
            </Position>
            <AltitudeMeters>152</AltitudeMeters>
            <DistanceMeters>NAN</DistanceMeters>
          </Trackpoint>
          <Trackpoint>
            <Time>2019-10-08T11:41:02.000Z</Time>
            <Position>
              <LatitudeDegrees>39.73937616683542728424072265625</LatitudeDegrees>
              <LongitudeDegrees>-6.4451375417411327362060546875</LongitudeDegrees>
            </Position>
            <AltitudeMeters>152.1999969482421875</AltitudeMeters>
            <DistanceMeters>NAN</DistanceMeters>
          </Trackpoint>
          <Trackpoint>
            <Time>2019-10-08T11:41:08.000Z</Time>
            <Position>
              <LatitudeDegrees>39.73920333199203014373779296875</LatitudeDegrees>
              <LongitudeDegrees>-6.44534566439688205718994140625</LongitudeDegrees>
            </Position>
            <AltitudeMeters>152.8000030517578125</AltitudeMeters>
            <DistanceMeters>NAN</DistanceMeters>
          </Trackpoint>
          <Trackpoint>
            <Time>2019-10-08T11:41:10.000Z</Time>
            <Position>
              <LatitudeDegrees>39.7391485981643199920654296875</LatitudeDegrees>
              <LongitudeDegrees>-6.4454054273664951324462890625</LongitudeDegrees>
            </Position>
            <AltitudeMeters>153</AltitudeMeters>
            <DistanceMeters>NAN</DistanceMeters>
          </Trackpoint>
          <Trackpoint>
            <Time>2019-10-08T11:41:12.000Z</Time>
            <Position>
              <LatitudeDegrees>39.73908799700438976287841796875</LatitudeDegrees>
              <LongitudeDegrees>-6.44547524861991405487060546875</LongitudeDegrees>
            </Position>
            <AltitudeMeters>153</AltitudeMeters>
            <DistanceMeters>NAN</DistanceMeters>
          </Trackpoint>
          <Trackpoint>
            <Time>2019-10-08T11:41:17.000Z</Time>
            <Position>
              <LatitudeDegrees>39.7389303334057331085205078125</LatitudeDegrees>
              <LongitudeDegrees>-6.4456689544022083282470703125</LongitudeDegrees>
            </Position>
            <AltitudeMeters>153</AltitudeMeters>
            <DistanceMeters>NAN</DistanceMeters>
          </Trackpoint>
          <Trackpoint>
            <Time>2019-10-08T11:41:18.000Z</Time>
            <Position>
              <LatitudeDegrees>39.73889705725014209747314453125</LatitudeDegrees>
              <LongitudeDegrees>-6.4457118697464466094970703125</LongitudeDegrees>
            </Position>
            <AltitudeMeters>153</AltitudeMeters>
            <DistanceMeters>NAN</DistanceMeters>
          </Trackpoint>
          <Trackpoint>
            <Time>2019-10-08T11:41:26.000Z</Time>
            <Position>
              <LatitudeDegrees>39.738630093634128570556640625</LatitudeDegrees>
              <LongitudeDegrees>-6.4460317231714725494384765625</LongitudeDegrees>
            </Position>
            <AltitudeMeters>153.399993896484375</AltitudeMeters>
            <DistanceMeters>NAN</DistanceMeters>
          </Trackpoint>
          <Trackpoint>
            <Time>2019-10-08T11:41:33.000Z</Time>
            <Position>
              <LatitudeDegrees>39.73835256882011890411376953125</LatitudeDegrees>
              <LongitudeDegrees>-6.44632282666862010955810546875</LongitudeDegrees>
            </Position>
            <AltitudeMeters>153.600006103515625</AltitudeMeters>
            <DistanceMeters>NAN</DistanceMeters>
          </Trackpoint>
          <Trackpoint>
            <Time>2019-10-08T11:41:41.000Z</Time>
            <Position>
              <LatitudeDegrees>39.738001786172389984130859375</LatitudeDegrees>
              <LongitudeDegrees>-6.44663044251501560211181640625</LongitudeDegrees>
            </Position>
            <AltitudeMeters>153.600006103515625</AltitudeMeters>
            <DistanceMeters>NAN</DistanceMeters>
          </Trackpoint>
          <Trackpoint>
            <Time>2019-10-08T11:41:47.000Z</Time>
            <Position>
              <LatitudeDegrees>39.737714119255542755126953125</LatitudeDegrees>
              <LongitudeDegrees>-6.4468246512115001678466796875</LongitudeDegrees>
            </Position>
            <AltitudeMeters>154.1999969482421875</AltitudeMeters>
            <DistanceMeters>NAN</DistanceMeters>
          </Trackpoint>
          <Trackpoint>
            <Time>2019-10-08T11:41:49.000Z</Time>
            <Position>
              <LatitudeDegrees>39.7376147098839282989501953125</LatitudeDegrees>
              <LongitudeDegrees>-6.4468803070485591888427734375</LongitudeDegrees>
            </Position>
            <AltitudeMeters>154</AltitudeMeters>
            <DistanceMeters>NAN</DistanceMeters>
          </Trackpoint>
          <Trackpoint>
            <Time>2019-10-08T11:41:59.000Z</Time>
            <Position>
              <LatitudeDegrees>39.7371017374098300933837890625</LatitudeDegrees>
              <LongitudeDegrees>-6.44711919128894805908203125</LongitudeDegrees>
            </Position>
            <AltitudeMeters>154.8000030517578125</AltitudeMeters>
            <DistanceMeters>NAN</DistanceMeters>
          </Trackpoint>
          <Trackpoint>
            <Time>2019-10-08T11:42:00.000Z</Time>
            <Position>
              <LatitudeDegrees>39.73704767413437366485595703125</LatitudeDegrees>
              <LongitudeDegrees>-6.44713838584721088409423828125</LongitudeDegrees>
            </Position>
            <AltitudeMeters>154.8000030517578125</AltitudeMeters>
            <DistanceMeters>NAN</DistanceMeters>
          </Trackpoint>
          <Trackpoint>
            <Time>2019-10-08T11:42:10.000Z</Time>
            <Position>
              <LatitudeDegrees>39.73651961423456668853759765625</LatitudeDegrees>
              <LongitudeDegrees>-6.447319351136684417724609375</LongitudeDegrees>
            </Position>
            <AltitudeMeters>155</AltitudeMeters>
            <DistanceMeters>NAN</DistanceMeters>
          </Trackpoint>
          <Trackpoint>
            <Time>2019-10-08T11:42:11.000Z</Time>
            <Position>
              <LatitudeDegrees>39.7364673949778079986572265625</LatitudeDegrees>
              <LongitudeDegrees>-6.447341144084930419921875</LongitudeDegrees>
            </Position>
            <AltitudeMeters>155</AltitudeMeters>
            <DistanceMeters>NAN</DistanceMeters>
          </Trackpoint>
          <Trackpoint>
            <Time>2019-10-08T11:42:13.000Z</Time>
            <Position>
              <LatitudeDegrees>39.73635717295110225677490234375</LatitudeDegrees>
              <LongitudeDegrees>-6.44738364033401012420654296875</LongitudeDegrees>
            </Position>
            <AltitudeMeters>155.1999969482421875</AltitudeMeters>
            <DistanceMeters>NAN</DistanceMeters>
          </Trackpoint>
          <Trackpoint>
            <Time>2019-10-08T11:42:19.000Z</Time>
            <Position>
              <LatitudeDegrees>39.73602759651839733123779296875</LatitudeDegrees>
              <LongitudeDegrees>-6.4474844746291637420654296875</LongitudeDegrees>
            </Position>
            <AltitudeMeters>155.1999969482421875</AltitudeMeters>
            <DistanceMeters>NAN</DistanceMeters>
          </Trackpoint>
          <Trackpoint>
            <Time>2019-10-08T11:42:29.000Z</Time>
            <Position>
              <LatitudeDegrees>39.7354873828589916229248046875</LatitudeDegrees>
              <LongitudeDegrees>-6.447693519294261932373046875</LongitudeDegrees>
            </Position>
            <AltitudeMeters>156</AltitudeMeters>
            <DistanceMeters>NAN</DistanceMeters>
          </Trackpoint>
          <Trackpoint>
            <Time>2019-10-08T11:42:31.000Z</Time>
            <Position>
              <LatitudeDegrees>39.735378585755825042724609375</LatitudeDegrees>
              <LongitudeDegrees>-6.4477295614778995513916015625</LongitudeDegrees>
            </Position>
            <AltitudeMeters>156.1999969482421875</AltitudeMeters>
            <DistanceMeters>NAN</DistanceMeters>
          </Trackpoint>
          <Trackpoint>
            <Time>2019-10-08T11:42:41.000Z</Time>
            <Position>
              <LatitudeDegrees>39.734841473400592803955078125</LatitudeDegrees>
              <LongitudeDegrees>-6.44791404716670513153076171875</LongitudeDegrees>
            </Position>
            <AltitudeMeters>155.399993896484375</AltitudeMeters>
            <DistanceMeters>NAN</DistanceMeters>
          </Trackpoint>
          <Trackpoint>
            <Time>2019-10-08T11:42:42.000Z</Time>
            <Position>
              <LatitudeDegrees>39.7347873263061046600341796875</LatitudeDegrees>
              <LongitudeDegrees>-6.4479344151914119720458984375</LongitudeDegrees>
            </Position>
            <AltitudeMeters>155.1999969482421875</AltitudeMeters>
            <DistanceMeters>NAN</DistanceMeters>
          </Trackpoint>
          <Trackpoint>
            <Time>2019-10-08T11:42:44.000Z</Time>
            <Position>
              <LatitudeDegrees>39.73468012176454067230224609375</LatitudeDegrees>
              <LongitudeDegrees>-6.4479753188788890838623046875</LongitudeDegrees>
            </Position>
            <AltitudeMeters>155.1999969482421875</AltitudeMeters>
            <DistanceMeters>NAN</DistanceMeters>
          </Trackpoint>
          <Trackpoint>
            <Time>2019-10-08T11:42:54.000Z</Time>
            <Position>
              <LatitudeDegrees>39.7341432608664035797119140625</LatitudeDegrees>
              <LongitudeDegrees>-6.44818310625851154327392578125</LongitudeDegrees>
            </Position>
            <AltitudeMeters>155.399993896484375</AltitudeMeters>
            <DistanceMeters>NAN</DistanceMeters>
          </Trackpoint>
          <Trackpoint>
            <Time>2019-10-08T11:42:55.000Z</Time>
            <Position>
              <LatitudeDegrees>39.73409053869545459747314453125</LatitudeDegrees>
              <LongitudeDegrees>-6.44820724613964557647705078125</LongitudeDegrees>
            </Position>
            <AltitudeMeters>155.600006103515625</AltitudeMeters>
            <DistanceMeters>NAN</DistanceMeters>
          </Trackpoint>
          <Trackpoint>
            <Time>2019-10-08T11:42:57.000Z</Time>
            <Position>
              <LatitudeDegrees>39.73398475907742977142333984375</LatitudeDegrees>
              <LongitudeDegrees>-6.44826256670057773590087890625</LongitudeDegrees>
            </Position>
            <AltitudeMeters>155.8000030517578125</AltitudeMeters>
            <DistanceMeters>NAN</DistanceMeters>
          </Trackpoint>
          <Trackpoint>
            <Time>2019-10-08T11:43:02.000Z</Time>
            <Position>
              <LatitudeDegrees>39.73373246379196643829345703125</LatitudeDegrees>
              <LongitudeDegrees>-6.44841930828988552093505859375</LongitudeDegrees>
            </Position>
            <AltitudeMeters>155.399993896484375</AltitudeMeters>
            <DistanceMeters>NAN</DistanceMeters>
          </Trackpoint>
          <Trackpoint>
            <Time>2019-10-08T11:43:09.000Z</Time>
            <Position>
              <LatitudeDegrees>39.73339936695992946624755859375</LatitudeDegrees>
              <LongitudeDegrees>-6.44868400879204273223876953125</LongitudeDegrees>
            </Position>
            <AltitudeMeters>155.8000030517578125</AltitudeMeters>
            <DistanceMeters>NAN</DistanceMeters>
          </Trackpoint>
          <Trackpoint>
            <Time>2019-10-08T11:43:17.000Z</Time>
            <Position>
              <LatitudeDegrees>39.73302586935460567474365234375</LatitudeDegrees>
              <LongitudeDegrees>-6.4490000903606414794921875</LongitudeDegrees>
            </Position>
            <AltitudeMeters>156.399993896484375</AltitudeMeters>
            <DistanceMeters>NAN</DistanceMeters>
          </Trackpoint>
          <Trackpoint>
            <Time>2019-10-08T11:43:21.000Z</Time>
            <Position>
              <LatitudeDegrees>39.732857644557952880859375</LatitudeDegrees>
              <LongitudeDegrees>-6.4491481147706508636474609375</LongitudeDegrees>
            </Position>
            <AltitudeMeters>156.600006103515625</AltitudeMeters>
            <DistanceMeters>NAN</DistanceMeters>
          </Trackpoint>
          <Trackpoint>
            <Time>2019-10-08T11:43:23.000Z</Time>
            <Position>
              <LatitudeDegrees>39.7327796928584575653076171875</LatitudeDegrees>
              <LongitudeDegrees>-6.4492067880928516387939453125</LongitudeDegrees>
            </Position>
            <AltitudeMeters>157.399993896484375</AltitudeMeters>
            <DistanceMeters>NAN</DistanceMeters>
          </Trackpoint>
          <Trackpoint>
            <Time>2019-10-08T11:43:28.000Z</Time>
            <Position>
              <LatitudeDegrees>39.73261146806180477142333984375</LatitudeDegrees>
              <LongitudeDegrees>-6.4493590034544467926025390625</LongitudeDegrees>
            </Position>
            <AltitudeMeters>158.399993896484375</AltitudeMeters>
            <DistanceMeters>NAN</DistanceMeters>
          </Trackpoint>
          <Trackpoint>
            <Time>2019-10-08T11:43:33.000Z</Time>
            <Position>
              <LatitudeDegrees>39.73245137371122837066650390625</LatitudeDegrees>
              <LongitudeDegrees>-6.44949370063841342926025390625</LongitudeDegrees>
            </Position>
            <AltitudeMeters>159.8000030517578125</AltitudeMeters>
            <DistanceMeters>NAN</DistanceMeters>
          </Trackpoint>
          <Trackpoint>
            <Time>2019-10-08T11:43:40.000Z</Time>
            <Position>
              <LatitudeDegrees>39.73223042674362659454345703125</LatitudeDegrees>
              <LongitudeDegrees>-6.4496828801929950714111328125</LongitudeDegrees>
            </Position>
            <AltitudeMeters>160.1999969482421875</AltitudeMeters>
            <DistanceMeters>NAN</DistanceMeters>
          </Trackpoint>
          <Trackpoint>
            <Time>2019-10-08T11:43:42.000Z</Time>
            <Position>
              <LatitudeDegrees>39.73217108286917209625244140625</LatitudeDegrees>
              <LongitudeDegrees>-6.4497368596494197845458984375</LongitudeDegrees>
            </Position>
            <AltitudeMeters>160.8000030517578125</AltitudeMeters>
            <DistanceMeters>NAN</DistanceMeters>
          </Trackpoint>
          <Trackpoint>
            <Time>2019-10-08T11:43:46.000Z</Time>
            <Position>
              <LatitudeDegrees>39.7320570051670074462890625</LatitudeDegrees>
              <LongitudeDegrees>-6.4498315751552581787109375</LongitudeDegrees>
            </Position>
            <AltitudeMeters>162.1999969482421875</AltitudeMeters>
            <DistanceMeters>NAN</DistanceMeters>
          </Trackpoint>
          <Trackpoint>
            <Time>2019-10-08T11:43:49.000Z</Time>
            <Position>
              <LatitudeDegrees>39.73197511397302150726318359375</LatitudeDegrees>
              <LongitudeDegrees>-6.44989754073321819305419921875</LongitudeDegrees>
            </Position>
            <AltitudeMeters>162.8000030517578125</AltitudeMeters>
            <DistanceMeters>NAN</DistanceMeters>
          </Trackpoint>
          <Trackpoint>
            <Time>2019-10-08T11:43:53.000Z</Time>
            <Position>
              <LatitudeDegrees>39.7318657301366329193115234375</LatitudeDegrees>
              <LongitudeDegrees>-6.44999443553388118743896484375</LongitudeDegrees>
            </Position>
            <AltitudeMeters>163.399993896484375</AltitudeMeters>
            <DistanceMeters>NAN</DistanceMeters>
          </Trackpoint>
          <Trackpoint>
            <Time>2019-10-08T11:43:57.000Z</Time>
            <Position>
              <LatitudeDegrees>39.7317604534327983856201171875</LatitudeDegrees>
              <LongitudeDegrees>-6.450079344213008880615234375</LongitudeDegrees>
            </Position>
            <AltitudeMeters>163.600006103515625</AltitudeMeters>
            <DistanceMeters>NAN</DistanceMeters>
          </Trackpoint>
          <Trackpoint>
            <Time>2019-10-08T11:44:01.000Z</Time>
            <Position>
              <LatitudeDegrees>39.73165777511894702911376953125</LatitudeDegrees>
              <LongitudeDegrees>-6.45016743801534175872802734375</LongitudeDegrees>
            </Position>
            <AltitudeMeters>164.399993896484375</AltitudeMeters>
            <DistanceMeters>NAN</DistanceMeters>
          </Trackpoint>
          <Trackpoint>
            <Time>2019-10-08T11:44:06.000Z</Time>
            <Position>
              <LatitudeDegrees>39.73152819089591503143310546875</LatitudeDegrees>
              <LongitudeDegrees>-6.45028411410748958587646484375</LongitudeDegrees>
            </Position>
            <AltitudeMeters>165.399993896484375</AltitudeMeters>
            <DistanceMeters>NAN</DistanceMeters>
          </Trackpoint>
          <Trackpoint>
            <Time>2019-10-08T11:44:07.000Z</Time>
            <Position>
              <LatitudeDegrees>39.73149935714900493621826171875</LatitudeDegrees>
              <LongitudeDegrees>-6.4503048174083232879638671875</LongitudeDegrees>
            </Position>
            <AltitudeMeters>165.600006103515625</AltitudeMeters>
            <DistanceMeters>NAN</DistanceMeters>
          </Trackpoint>
          <Trackpoint>
            <Time>2019-10-08T11:44:15.000Z</Time>
            <Position>
              <LatitudeDegrees>39.73126131109893321990966796875</LatitudeDegrees>
              <LongitudeDegrees>-6.45045979879796504974365234375</LongitudeDegrees>
            </Position>
            <AltitudeMeters>166.600006103515625</AltitudeMeters>
            <DistanceMeters>NAN</DistanceMeters>
          </Trackpoint>
          <Trackpoint>
            <Time>2019-10-08T11:44:17.000Z</Time>
            <Position>
              <LatitudeDegrees>39.731196351349353790283203125</LatitudeDegrees>
              <LongitudeDegrees>-6.4504929073154926300048828125</LongitudeDegrees>
            </Position>
            <AltitudeMeters>166.8000030517578125</AltitudeMeters>
            <DistanceMeters>NAN</DistanceMeters>
          </Trackpoint>
          <Trackpoint>
            <Time>2019-10-08T11:44:23.000Z</Time>
            <Position>
              <LatitudeDegrees>39.73100314848124980926513671875</LatitudeDegrees>
              <LongitudeDegrees>-6.45056239329278469085693359375</LongitudeDegrees>
            </Position>
            <AltitudeMeters>167.8000030517578125</AltitudeMeters>
            <DistanceMeters>NAN</DistanceMeters>
          </Trackpoint>
          <Trackpoint>
            <Time>2019-10-08T11:44:29.000Z</Time>
            <Position>
              <LatitudeDegrees>39.73079971969127655029296875</LatitudeDegrees>
              <LongitudeDegrees>-6.45058183930814266204833984375</LongitudeDegrees>
            </Position>
            <AltitudeMeters>169</AltitudeMeters>
            <DistanceMeters>NAN</DistanceMeters>
          </Trackpoint>
          <Trackpoint>
            <Time>2019-10-08T11:44:32.000Z</Time>
            <Position>
              <LatitudeDegrees>39.730700813233852386474609375</LatitudeDegrees>
              <LongitudeDegrees>-6.45057714544236660003662109375</LongitudeDegrees>
            </Position>
            <AltitudeMeters>169.8000030517578125</AltitudeMeters>
            <DistanceMeters>NAN</DistanceMeters>
          </Trackpoint>
          <Trackpoint>
            <Time>2019-10-08T11:44:35.000Z</Time>
            <Position>
              <LatitudeDegrees>39.7305973805487155914306640625</LatitudeDegrees>
              <LongitudeDegrees>-6.4505562745034694671630859375</LongitudeDegrees>
            </Position>
            <AltitudeMeters>170.1999969482421875</AltitudeMeters>
            <DistanceMeters>NAN</DistanceMeters>
          </Trackpoint>
          <Trackpoint>
            <Time>2019-10-08T11:44:41.000Z</Time>
            <Position>
              <LatitudeDegrees>39.73040015436708927154541015625</LatitudeDegrees>
              <LongitudeDegrees>-6.4504828490316867828369140625</LongitudeDegrees>
            </Position>
            <AltitudeMeters>171</AltitudeMeters>
            <DistanceMeters>NAN</DistanceMeters>
          </Trackpoint>
          <Trackpoint>
            <Time>2019-10-08T11:44:43.000Z</Time>
            <Position>
              <LatitudeDegrees>39.7303395532071590423583984375</LatitudeDegrees>
              <LongitudeDegrees>-6.45045024342834949493408203125</LongitudeDegrees>
            </Position>
            <AltitudeMeters>171.399993896484375</AltitudeMeters>
            <DistanceMeters>NAN</DistanceMeters>
          </Trackpoint>
          <Trackpoint>
            <Time>2019-10-08T11:44:49.000Z</Time>
            <Position>
              <LatitudeDegrees>39.7301687300205230712890625</LatitudeDegrees>
              <LongitudeDegrees>-6.45031831227242946624755859375</LongitudeDegrees>
            </Position>
            <AltitudeMeters>172.399993896484375</AltitudeMeters>
            <DistanceMeters>NAN</DistanceMeters>
          </Trackpoint>
          <Trackpoint>
            <Time>2019-10-08T11:44:50.000Z</Time>
            <Position>
              <LatitudeDegrees>39.73014065064489841461181640625</LatitudeDegrees>
              <LongitudeDegrees>-6.4502930827438831329345703125</LongitudeDegrees>
            </Position>
            <AltitudeMeters>172.600006103515625</AltitudeMeters>
            <DistanceMeters>NAN</DistanceMeters>
          </Trackpoint>
          <Trackpoint>
            <Time>2019-10-08T11:44:57.000Z</Time>
            <Position>
              <LatitudeDegrees>39.7299616970121860504150390625</LatitudeDegrees>
              <LongitudeDegrees>-6.45008529536426067352294921875</LongitudeDegrees>
            </Position>
            <AltitudeMeters>173.600006103515625</AltitudeMeters>
            <DistanceMeters>NAN</DistanceMeters>
          </Trackpoint>
          <Trackpoint>
            <Time>2019-10-08T11:44:59.000Z</Time>
            <Position>
              <LatitudeDegrees>39.72991685383021831512451171875</LatitudeDegrees>
              <LongitudeDegrees>-6.45001455210149288177490234375</LongitudeDegrees>
            </Position>
            <AltitudeMeters>174</AltitudeMeters>
            <DistanceMeters>NAN</DistanceMeters>
          </Trackpoint>
          <Trackpoint>
            <Time>2019-10-08T11:45:05.000Z</Time>
            <Position>
              <LatitudeDegrees>39.72979045473039150238037109375</LatitudeDegrees>
              <LongitudeDegrees>-6.44980609416961669921875</LongitudeDegrees>
            </Position>
            <AltitudeMeters>174.600006103515625</AltitudeMeters>
            <DistanceMeters>NAN</DistanceMeters>
          </Trackpoint>
          <Trackpoint>
            <Time>2019-10-08T11:45:08.000Z</Time>
            <Position>
              <LatitudeDegrees>39.7297236509621143341064453125</LatitudeDegrees>
              <LongitudeDegrees>-6.4497001469135284423828125</LongitudeDegrees>
            </Position>
            <AltitudeMeters>175.1999969482421875</AltitudeMeters>
            <DistanceMeters>NAN</DistanceMeters>
          </Trackpoint>
          <Trackpoint>
            <Time>2019-10-08T11:45:13.000Z</Time>
            <Position>
              <LatitudeDegrees>39.7296130098402500152587890625</LatitudeDegrees>
              <LongitudeDegrees>-6.4495320059359073638916015625</LongitudeDegrees>
            </Position>
            <AltitudeMeters>175.8000030517578125</AltitudeMeters>
            <DistanceMeters>NAN</DistanceMeters>
          </Trackpoint>
          <Trackpoint>
            <Time>2019-10-08T11:45:16.000Z</Time>
            <Position>
              <LatitudeDegrees>39.72955324687063694000244140625</LatitudeDegrees>
              <LongitudeDegrees>-6.449427567422389984130859375</LongitudeDegrees>
            </Position>
            <AltitudeMeters>176.1999969482421875</AltitudeMeters>
            <DistanceMeters>NAN</DistanceMeters>
          </Trackpoint>
          <Trackpoint>
            <Time>2019-10-08T11:45:20.000Z</Time>
            <Position>
              <LatitudeDegrees>39.72944964654743671417236328125</LatitudeDegrees>
              <LongitudeDegrees>-6.449316926300525665283203125</LongitudeDegrees>
            </Position>
            <AltitudeMeters>176.8000030517578125</AltitudeMeters>
            <DistanceMeters>NAN</DistanceMeters>
          </Trackpoint>
          <Trackpoint>
            <Time>2019-10-08T11:45:25.000Z</Time>
            <Position>
              <LatitudeDegrees>39.7293065674602985382080078125</LatitudeDegrees>
              <LongitudeDegrees>-6.44919832237064838409423828125</LongitudeDegrees>
            </Position>
            <AltitudeMeters>177.600006103515625</AltitudeMeters>
            <DistanceMeters>NAN</DistanceMeters>
          </Trackpoint>
          <Trackpoint>
            <Time>2019-10-08T11:45:26.000Z</Time>
            <Position>
              <LatitudeDegrees>39.7292777337133884429931640625</LatitudeDegrees>
              <LongitudeDegrees>-6.4491742663085460662841796875</LongitudeDegrees>
            </Position>
            <AltitudeMeters>178</AltitudeMeters>
            <DistanceMeters>NAN</DistanceMeters>
          </Trackpoint>
          <Trackpoint>
            <Time>2019-10-08T11:45:32.000Z</Time>
            <Position>
              <LatitudeDegrees>39.72907883115112781524658203125</LatitudeDegrees>
              <LongitudeDegrees>-6.449076868593692779541015625</LongitudeDegrees>
            </Position>
            <AltitudeMeters>179</AltitudeMeters>
            <DistanceMeters>NAN</DistanceMeters>
          </Trackpoint>
          <Trackpoint>
            <Time>2019-10-08T11:45:39.000Z</Time>
            <Position>
              <LatitudeDegrees>39.72883231937885284423828125</LatitudeDegrees>
              <LongitudeDegrees>-6.44901023246347904205322265625</LongitudeDegrees>
            </Position>
            <AltitudeMeters>180</AltitudeMeters>
            <DistanceMeters>NAN</DistanceMeters>
          </Trackpoint>
          <Trackpoint>
            <Time>2019-10-08T11:45:40.000Z</Time>
            <Position>
              <LatitudeDegrees>39.72879879176616668701171875</LatitudeDegrees>
              <LongitudeDegrees>-6.44900771789252758026123046875</LongitudeDegrees>
            </Position>
            <AltitudeMeters>180.1999969482421875</AltitudeMeters>
            <DistanceMeters>NAN</DistanceMeters>
          </Trackpoint>
          <Trackpoint>
            <Time>2019-10-08T11:45:44.000Z</Time>
            <Position>
              <LatitudeDegrees>39.7286693751811981201171875</LatitudeDegrees>
              <LongitudeDegrees>-6.4489999227225780487060546875</LongitudeDegrees>
            </Position>
            <AltitudeMeters>181</AltitudeMeters>
            <DistanceMeters>NAN</DistanceMeters>
          </Trackpoint>
          <Trackpoint>
            <Time>2019-10-08T11:45:50.000Z</Time>
            <Position>
              <LatitudeDegrees>39.72848840989172458648681640625</LatitudeDegrees>
              <LongitudeDegrees>-6.4490103162825107574462890625</LongitudeDegrees>
            </Position>
            <AltitudeMeters>182</AltitudeMeters>
            <DistanceMeters>NAN</DistanceMeters>
          </Trackpoint>
          <Trackpoint>
            <Time>2019-10-08T11:45:51.000Z</Time>
            <Position>
              <LatitudeDegrees>39.72846074961125850677490234375</LatitudeDegrees>
              <LongitudeDegrees>-6.449013836681842803955078125</LongitudeDegrees>
            </Position>
            <AltitudeMeters>182.1999969482421875</AltitudeMeters>
            <DistanceMeters>NAN</DistanceMeters>
          </Trackpoint>
          <Trackpoint>
            <Time>2019-10-08T11:45:55.000Z</Time>
            <Position>
              <LatitudeDegrees>39.72833736799657344818115234375</LatitudeDegrees>
              <LongitudeDegrees>-6.44902196712791919708251953125</LongitudeDegrees>
            </Position>
            <AltitudeMeters>183.399993896484375</AltitudeMeters>
            <DistanceMeters>NAN</DistanceMeters>
          </Trackpoint>
          <Trackpoint>
            <Time>2019-10-08T11:45:58.000Z</Time>
            <Position>
              <LatitudeDegrees>39.72824550233781337738037109375</LatitudeDegrees>
              <LongitudeDegrees>-6.44902381114661693572998046875</LongitudeDegrees>
            </Position>
            <AltitudeMeters>183.600006103515625</AltitudeMeters>
            <DistanceMeters>NAN</DistanceMeters>
          </Trackpoint>
          <Trackpoint>
            <Time>2019-10-08T11:46:04.000Z</Time>
            <Position>
              <LatitudeDegrees>39.72806311212480068206787109375</LatitudeDegrees>
              <LongitudeDegrees>-6.449029259383678436279296875</LongitudeDegrees>
            </Position>
            <AltitudeMeters>184.399993896484375</AltitudeMeters>
            <DistanceMeters>NAN</DistanceMeters>
          </Trackpoint>
          <Trackpoint>
            <Time>2019-10-08T11:46:09.000Z</Time>
            <Position>
              <LatitudeDegrees>39.72790653817355632781982421875</LatitudeDegrees>
              <LongitudeDegrees>-6.449026577174663543701171875</LongitudeDegrees>
            </Position>
            <AltitudeMeters>185.1999969482421875</AltitudeMeters>
            <DistanceMeters>NAN</DistanceMeters>
          </Trackpoint>
          <Trackpoint>
            <Time>2019-10-08T11:46:12.000Z</Time>
            <Position>
              <LatitudeDegrees>39.7278062067925930023193359375</LatitudeDegrees>
              <LongitudeDegrees>-6.44901023246347904205322265625</LongitudeDegrees>
            </Position>
            <AltitudeMeters>185.600006103515625</AltitudeMeters>
            <DistanceMeters>NAN</DistanceMeters>
          </Trackpoint>
          <Trackpoint>
            <Time>2019-10-08T11:46:18.000Z</Time>
            <Position>
              <LatitudeDegrees>39.72759758122265338897705078125</LatitudeDegrees>
              <LongitudeDegrees>-6.44896765239536762237548828125</LongitudeDegrees>
            </Position>
            <AltitudeMeters>186.600006103515625</AltitudeMeters>
            <DistanceMeters>NAN</DistanceMeters>
          </Trackpoint>
          <Trackpoint>
            <Time>2019-10-08T11:46:20.000Z</Time>
            <Position>
              <LatitudeDegrees>39.72752834670245647430419921875</LatitudeDegrees>
              <LongitudeDegrees>-6.44894803874194622039794921875</LongitudeDegrees>
            </Position>
            <AltitudeMeters>186.8000030517578125</AltitudeMeters>
            <DistanceMeters>NAN</DistanceMeters>
          </Trackpoint>
          <Trackpoint>
            <Time>2019-10-08T11:46:27.000Z</Time>
            <Position>
              <LatitudeDegrees>39.7272939048707485198974609375</LatitudeDegrees>
              <LongitudeDegrees>-6.4488721825182437896728515625</LongitudeDegrees>
            </Position>
            <AltitudeMeters>187.8000030517578125</AltitudeMeters>
            <DistanceMeters>NAN</DistanceMeters>
          </Trackpoint>
          <Trackpoint>
            <Time>2019-10-08T11:46:28.000Z</Time>
            <Position>
              <LatitudeDegrees>39.72725945524871349334716796875</LatitudeDegrees>
              <LongitudeDegrees>-6.4488631300628185272216796875</LongitudeDegrees>
            </Position>
            <AltitudeMeters>188.1999969482421875</AltitudeMeters>
            <DistanceMeters>NAN</DistanceMeters>
          </Trackpoint>
          <Trackpoint>
            <Time>2019-10-08T11:46:35.000Z</Time>
            <Position>
              <LatitudeDegrees>39.72702660597860813140869140625</LatitudeDegrees>
              <LongitudeDegrees>-6.448800265789031982421875</LongitudeDegrees>
            </Position>
            <AltitudeMeters>189.399993896484375</AltitudeMeters>
            <DistanceMeters>NAN</DistanceMeters>
          </Trackpoint>
          <Trackpoint>
            <Time>2019-10-08T11:46:38.000Z</Time>
            <Position>
              <LatitudeDegrees>39.7269227541983127593994140625</LatitudeDegrees>
              <LongitudeDegrees>-6.448773443698883056640625</LongitudeDegrees>
            </Position>
            <AltitudeMeters>189.1999969482421875</AltitudeMeters>
            <DistanceMeters>NAN</DistanceMeters>
          </Trackpoint>
          <Trackpoint>
            <Time>2019-10-08T11:46:45.000Z</Time>
            <Position>
              <LatitudeDegrees>39.7266736440360546112060546875</LatitudeDegrees>
              <LongitudeDegrees>-6.44869876094162464141845703125</LongitudeDegrees>
            </Position>
            <AltitudeMeters>190.8000030517578125</AltitudeMeters>
            <DistanceMeters>NAN</DistanceMeters>
          </Trackpoint>
          <Trackpoint>
            <Time>2019-10-08T11:46:46.000Z</Time>
            <Position>
              <LatitudeDegrees>39.726635925471782684326171875</LatitudeDegrees>
              <LongitudeDegrees>-6.44868694245815277099609375</LongitudeDegrees>
            </Position>
            <AltitudeMeters>190.399993896484375</AltitudeMeters>
            <DistanceMeters>NAN</DistanceMeters>
          </Trackpoint>
          <Trackpoint>
            <Time>2019-10-08T11:46:56.000Z</Time>
            <Position>
              <LatitudeDegrees>39.72623434849083423614501953125</LatitudeDegrees>
              <LongitudeDegrees>-6.4485747925937175750732421875</LongitudeDegrees>
            </Position>
            <AltitudeMeters>190.1999969482421875</AltitudeMeters>
            <DistanceMeters>NAN</DistanceMeters>
          </Trackpoint>
          <Trackpoint>
            <Time>2019-10-08T11:46:58.000Z</Time>
            <Position>
              <LatitudeDegrees>39.72613795660436153411865234375</LatitudeDegrees>
              <LongitudeDegrees>-6.44854344427585601806640625</LongitudeDegrees>
            </Position>
            <AltitudeMeters>189.600006103515625</AltitudeMeters>
            <DistanceMeters>NAN</DistanceMeters>
          </Trackpoint>
          <Trackpoint>
            <Time>2019-10-08T11:47:02.000Z</Time>
            <Position>
              <LatitudeDegrees>39.72592555917799472808837890625</LatitudeDegrees>
              <LongitudeDegrees>-6.44848502241075038909912109375</LongitudeDegrees>
            </Position>
            <AltitudeMeters>188.8000030517578125</AltitudeMeters>
            <DistanceMeters>NAN</DistanceMeters>
          </Trackpoint>
          <Trackpoint>
            <Time>2019-10-08T11:47:03.000Z</Time>
            <Position>
              <LatitudeDegrees>39.7258676402270793914794921875</LatitudeDegrees>
              <LongitudeDegrees>-6.448467671871185302734375</LongitudeDegrees>
            </Position>
            <AltitudeMeters>188.399993896484375</AltitudeMeters>
            <DistanceMeters>NAN</DistanceMeters>
          </Trackpoint>
          <Trackpoint>
            <Time>2019-10-08T11:47:06.000Z</Time>
            <Position>
              <LatitudeDegrees>39.72567946650087833404541015625</LatitudeDegrees>
              <LongitudeDegrees>-6.4484135247766971588134765625</LongitudeDegrees>
            </Position>
            <AltitudeMeters>187.399993896484375</AltitudeMeters>
            <DistanceMeters>NAN</DistanceMeters>
          </Trackpoint>
          <Trackpoint>
            <Time>2019-10-08T11:47:09.000Z</Time>
            <Position>
              <LatitudeDegrees>39.72547209821641445159912109375</LatitudeDegrees>
              <LongitudeDegrees>-6.44834822975099086761474609375</LongitudeDegrees>
            </Position>
            <AltitudeMeters>186.600006103515625</AltitudeMeters>
            <DistanceMeters>NAN</DistanceMeters>
          </Trackpoint>
          <Trackpoint>
            <Time>2019-10-08T11:47:10.000Z</Time>
            <Position>
              <LatitudeDegrees>39.725398086011409759521484375</LatitudeDegrees>
              <LongitudeDegrees>-6.44832643680274486541748046875</LongitudeDegrees>
            </Position>
            <AltitudeMeters>186</AltitudeMeters>
            <DistanceMeters>NAN</DistanceMeters>
          </Trackpoint>
          <Trackpoint>
            <Time>2019-10-08T11:47:12.000Z</Time>
            <Position>
              <LatitudeDegrees>39.7252428531646728515625</LatitudeDegrees>
              <LongitudeDegrees>-6.44828570075333118438720703125</LongitudeDegrees>
            </Position>
            <AltitudeMeters>184.8000030517578125</AltitudeMeters>
            <DistanceMeters>NAN</DistanceMeters>
          </Trackpoint>
          <Trackpoint>
            <Time>2019-10-08T11:47:14.000Z</Time>
            <Position>
              <LatitudeDegrees>39.72507948987185955047607421875</LatitudeDegrees>
              <LongitudeDegrees>-6.4482375048100948333740234375</LongitudeDegrees>
            </Position>
            <AltitudeMeters>183.600006103515625</AltitudeMeters>
            <DistanceMeters>NAN</DistanceMeters>
          </Trackpoint>
          <Trackpoint>
            <Time>2019-10-08T11:47:15.000Z</Time>
            <Position>
              <LatitudeDegrees>39.724993743002414703369140625</LatitudeDegrees>
              <LongitudeDegrees>-6.4482113532721996307373046875</LongitudeDegrees>
            </Position>
            <AltitudeMeters>183</AltitudeMeters>
            <DistanceMeters>NAN</DistanceMeters>
          </Trackpoint>
          <Trackpoint>
            <Time>2019-10-08T11:47:16.000Z</Time>
            <Position>
              <LatitudeDegrees>39.72490690648555755615234375</LatitudeDegrees>
              <LongitudeDegrees>-6.4481858722865581512451171875</LongitudeDegrees>
            </Position>
            <AltitudeMeters>182</AltitudeMeters>
            <DistanceMeters>NAN</DistanceMeters>
          </Trackpoint>
          <Trackpoint>
            <Time>2019-10-08T11:47:19.000Z</Time>
            <Position>
              <LatitudeDegrees>39.7246334888041019439697265625</LatitudeDegrees>
              <LongitudeDegrees>-6.44811420701444149017333984375</LongitudeDegrees>
            </Position>
            <AltitudeMeters>180.600006103515625</AltitudeMeters>
            <DistanceMeters>NAN</DistanceMeters>
          </Trackpoint>
          <Trackpoint>
            <Time>2019-10-08T11:47:21.000Z</Time>
            <Position>
              <LatitudeDegrees>39.7244443930685520172119140625</LatitudeDegrees>
              <LongitudeDegrees>-6.44806290976703166961669921875</LongitudeDegrees>
            </Position>
            <AltitudeMeters>179.1999969482421875</AltitudeMeters>
            <DistanceMeters>NAN</DistanceMeters>
          </Trackpoint>
          <Trackpoint>
            <Time>2019-10-08T11:47:22.000Z</Time>
            <Position>
              <LatitudeDegrees>39.7243474982678890228271484375</LatitudeDegrees>
              <LongitudeDegrees>-6.44804027862846851348876953125</LongitudeDegrees>
            </Position>
            <AltitudeMeters>178.600006103515625</AltitudeMeters>
            <DistanceMeters>NAN</DistanceMeters>
          </Trackpoint>
          <Trackpoint>
            <Time>2019-10-08T11:47:23.000Z</Time>
            <Position>
              <LatitudeDegrees>39.72424884326756000518798828125</LatitudeDegrees>
              <LongitudeDegrees>-6.44803005270659923553466796875</LongitudeDegrees>
            </Position>
            <AltitudeMeters>178</AltitudeMeters>
            <DistanceMeters>NAN</DistanceMeters>
          </Trackpoint>
          <Trackpoint>
            <Time>2019-10-08T11:47:25.000Z</Time>
            <Position>
              <LatitudeDegrees>39.72404683940112590789794921875</LatitudeDegrees>
              <LongitudeDegrees>-6.448052264750003814697265625</LongitudeDegrees>
            </Position>
            <AltitudeMeters>176.8000030517578125</AltitudeMeters>
            <DistanceMeters>NAN</DistanceMeters>
          </Trackpoint>
          <Trackpoint>
            <Time>2019-10-08T11:47:26.000Z</Time>
            <Position>
              <LatitudeDegrees>39.7239481844007968902587890625</LatitudeDegrees>
              <LongitudeDegrees>-6.44808520562946796417236328125</LongitudeDegrees>
            </Position>
            <AltitudeMeters>175.399993896484375</AltitudeMeters>
            <DistanceMeters>NAN</DistanceMeters>
          </Trackpoint>
          <Trackpoint>
            <Time>2019-10-08T11:47:28.000Z</Time>
            <Position>
              <LatitudeDegrees>39.72375213168561458587646484375</LatitudeDegrees>
              <LongitudeDegrees>-6.4481691084802150726318359375</LongitudeDegrees>
            </Position>
            <AltitudeMeters>174.399993896484375</AltitudeMeters>
            <DistanceMeters>NAN</DistanceMeters>
          </Trackpoint>
          <Trackpoint>
            <Time>2019-10-08T11:47:30.000Z</Time>
            <Position>
              <LatitudeDegrees>39.72355381585657596588134765625</LatitudeDegrees>
              <LongitudeDegrees>-6.4482572861015796661376953125</LongitudeDegrees>
            </Position>
            <AltitudeMeters>173.399993896484375</AltitudeMeters>
            <DistanceMeters>NAN</DistanceMeters>
          </Trackpoint>
          <Trackpoint>
            <Time>2019-10-08T11:47:32.000Z</Time>
            <Position>
              <LatitudeDegrees>39.7233540751039981842041015625</LatitudeDegrees>
              <LongitudeDegrees>-6.4483461342751979827880859375</LongitudeDegrees>
            </Position>
            <AltitudeMeters>172.1999969482421875</AltitudeMeters>
            <DistanceMeters>NAN</DistanceMeters>
          </Trackpoint>
          <Trackpoint>
            <Time>2019-10-08T11:47:34.000Z</Time>
            <Position>
              <LatitudeDegrees>39.72315349616110324859619140625</LatitudeDegrees>
              <LongitudeDegrees>-6.44843556918203830718994140625</LongitudeDegrees>
            </Position>
            <AltitudeMeters>171</AltitudeMeters>
            <DistanceMeters>NAN</DistanceMeters>
          </Trackpoint>
          <Trackpoint>
            <Time>2019-10-08T11:47:35.000Z</Time>
            <Position>
              <LatitudeDegrees>39.723054505884647369384765625</LatitudeDegrees>
              <LongitudeDegrees>-6.44848267547786235809326171875</LongitudeDegrees>
            </Position>
            <AltitudeMeters>169.8000030517578125</AltitudeMeters>
            <DistanceMeters>NAN</DistanceMeters>
          </Trackpoint>
          <Trackpoint>
            <Time>2019-10-08T11:47:38.000Z</Time>
            <Position>
              <LatitudeDegrees>39.7227505780756473541259765625</LatitudeDegrees>
              <LongitudeDegrees>-6.448625586926937103271484375</LongitudeDegrees>
            </Position>
            <AltitudeMeters>168.1999969482421875</AltitudeMeters>
            <DistanceMeters>NAN</DistanceMeters>
          </Trackpoint>
          <Trackpoint>
            <Time>2019-10-08T11:47:41.000Z</Time>
            <Position>
              <LatitudeDegrees>39.72244153730571269989013671875</LatitudeDegrees>
              <LongitudeDegrees>-6.4487675763666629791259765625</LongitudeDegrees>
            </Position>
            <AltitudeMeters>166.8000030517578125</AltitudeMeters>
            <DistanceMeters>NAN</DistanceMeters>
          </Trackpoint>
          <Trackpoint>
            <Time>2019-10-08T11:47:43.000Z</Time>
            <Position>
              <LatitudeDegrees>39.72223567776381969451904296875</LatitudeDegrees>
              <LongitudeDegrees>-6.448857598006725311279296875</LongitudeDegrees>
            </Position>
            <AltitudeMeters>165.399993896484375</AltitudeMeters>
            <DistanceMeters>NAN</DistanceMeters>
          </Trackpoint>
          <Trackpoint>
            <Time>2019-10-08T11:47:46.000Z</Time>
            <Position>
              <LatitudeDegrees>39.72192294895648956298828125</LatitudeDegrees>
              <LongitudeDegrees>-6.44899497739970684051513671875</LongitudeDegrees>
            </Position>
            <AltitudeMeters>164</AltitudeMeters>
            <DistanceMeters>NAN</DistanceMeters>
          </Trackpoint>
          <Trackpoint>
            <Time>2019-10-08T11:47:48.000Z</Time>
            <Position>
              <LatitudeDegrees>39.7217118926346302032470703125</LatitudeDegrees>
              <LongitudeDegrees>-6.44908214919269084930419921875</LongitudeDegrees>
            </Position>
            <AltitudeMeters>162</AltitudeMeters>
            <DistanceMeters>NAN</DistanceMeters>
          </Trackpoint>
          <Trackpoint>
            <Time>2019-10-08T11:47:50.000Z</Time>
            <Position>
              <LatitudeDegrees>39.72149647772312164306640625</LatitudeDegrees>
              <LongitudeDegrees>-6.4491383917629718780517578125</LongitudeDegrees>
            </Position>
            <AltitudeMeters>160.600006103515625</AltitudeMeters>
            <DistanceMeters>NAN</DistanceMeters>
          </Trackpoint>
          <Trackpoint>
            <Time>2019-10-08T11:47:51.000Z</Time>
            <Position>
              <LatitudeDegrees>39.7213873453438282012939453125</LatitudeDegrees>
              <LongitudeDegrees>-6.44915255717933177947998046875</LongitudeDegrees>
            </Position>
            <AltitudeMeters>160.600006103515625</AltitudeMeters>
            <DistanceMeters>NAN</DistanceMeters>
          </Trackpoint>
          <Trackpoint>
            <Time>2019-10-08T11:47:54.000Z</Time>
            <Position>
              <LatitudeDegrees>39.7211218066513538360595703125</LatitudeDegrees>
              <LongitudeDegrees>-6.44913210533559322357177734375</LongitudeDegrees>
            </Position>
            <AltitudeMeters>161.399993896484375</AltitudeMeters>
            <DistanceMeters>NAN</DistanceMeters>
          </Trackpoint>
          <Trackpoint>
            <Time>2019-10-08T11:47:56.000Z</Time>
            <Position>
              <LatitudeDegrees>39.72099146805703639984130859375</LatitudeDegrees>
              <LongitudeDegrees>-6.44909606315195560455322265625</LongitudeDegrees>
            </Position>
            <AltitudeMeters>162</AltitudeMeters>
            <DistanceMeters>NAN</DistanceMeters>
          </Trackpoint>
          <Trackpoint>
            <Time>2019-10-08T11:47:58.000Z</Time>
            <Position>
              <LatitudeDegrees>39.720890633761882781982421875</LatitudeDegrees>
              <LongitudeDegrees>-6.44903965294361114501953125</LongitudeDegrees>
            </Position>
            <AltitudeMeters>161.8000030517578125</AltitudeMeters>
            <DistanceMeters>NAN</DistanceMeters>
          </Trackpoint>
          <Trackpoint>
            <Time>2019-10-08T11:48:00.000Z</Time>
            <Position>
              <LatitudeDegrees>39.720820225775241851806640625</LatitudeDegrees>
              <LongitudeDegrees>-6.44895222969353199005126953125</LongitudeDegrees>
            </Position>
            <AltitudeMeters>161</AltitudeMeters>
            <DistanceMeters>NAN</DistanceMeters>
          </Trackpoint>
          <Trackpoint>
            <Time>2019-10-08T11:48:01.000Z</Time>
            <Position>
              <LatitudeDegrees>39.720787703990936279296875</LatitudeDegrees>
              <LongitudeDegrees>-6.44892389886081218719482421875</LongitudeDegrees>
            </Position>
            <AltitudeMeters>160.600006103515625</AltitudeMeters>
            <DistanceMeters>NAN</DistanceMeters>
          </Trackpoint>
          <Trackpoint>
            <Time>2019-10-08T11:48:03.000Z</Time>
            <Position>
              <LatitudeDegrees>39.7207177989184856414794921875</LatitudeDegrees>
              <LongitudeDegrees>-6.4488808996975421905517578125</LongitudeDegrees>
            </Position>
            <AltitudeMeters>160.600006103515625</AltitudeMeters>
            <DistanceMeters>NAN</DistanceMeters>
          </Trackpoint>
          <Trackpoint>
            <Time>2019-10-08T11:48:04.000Z</Time>
            <Position>
              <LatitudeDegrees>39.7206906415522098541259765625</LatitudeDegrees>
              <LongitudeDegrees>-6.4488607831299304962158203125</LongitudeDegrees>
            </Position>
            <AltitudeMeters>160.600006103515625</AltitudeMeters>
            <DistanceMeters>NAN</DistanceMeters>
          </Trackpoint>
          <Trackpoint>
            <Time>2019-10-08T11:48:06.000Z</Time>
            <Position>
              <LatitudeDegrees>39.72064998932182788848876953125</LatitudeDegrees>
              <LongitudeDegrees>-6.44885919056832790374755859375</LongitudeDegrees>
            </Position>
            <AltitudeMeters>160.600006103515625</AltitudeMeters>
            <DistanceMeters>NAN</DistanceMeters>
          </Trackpoint>
          <Trackpoint>
            <Time>2019-10-08T11:48:09.000Z</Time>
            <Position>
              <LatitudeDegrees>39.72059483639895915985107421875</LatitudeDegrees>
              <LongitudeDegrees>-6.44884519279003143310546875</LongitudeDegrees>
            </Position>
            <AltitudeMeters>160.600006103515625</AltitudeMeters>
            <DistanceMeters>NAN</DistanceMeters>
          </Trackpoint>
          <Trackpoint>
            <Time>2019-10-08T11:48:10.000Z</Time>
            <Position>
              <LatitudeDegrees>39.720570780336856842041015625</LatitudeDegrees>
              <LongitudeDegrees>-6.4488289318978786468505859375</LongitudeDegrees>
            </Position>
            <AltitudeMeters>160.399993896484375</AltitudeMeters>
            <DistanceMeters>NAN</DistanceMeters>
          </Trackpoint>
          <Trackpoint>
            <Time>2019-10-08T11:48:12.000Z</Time>
            <Position>
              <LatitudeDegrees>39.72053364850580692291259765625</LatitudeDegrees>
              <LongitudeDegrees>-6.44880135543644428253173828125</LongitudeDegrees>
            </Position>
            <AltitudeMeters>160</AltitudeMeters>
            <DistanceMeters>NAN</DistanceMeters>
          </Trackpoint>
          <Trackpoint>
            <Time>2019-10-08T11:48:15.000Z</Time>
            <Position>
              <LatitudeDegrees>39.72051118500530719757080078125</LatitudeDegrees>
              <LongitudeDegrees>-6.4487873576581478118896484375</LongitudeDegrees>
            </Position>
            <AltitudeMeters>159.8000030517578125</AltitudeMeters>
            <DistanceMeters>NAN</DistanceMeters>
          </Trackpoint>
          <Trackpoint>
            <Time>2019-10-08T11:48:18.000Z</Time>
            <Position>
              <LatitudeDegrees>39.72051302902400493621826171875</LatitudeDegrees>
              <LongitudeDegrees>-6.4487836696207523345947265625</LongitudeDegrees>
            </Position>
            <AltitudeMeters>160</AltitudeMeters>
            <DistanceMeters>NAN</DistanceMeters>
          </Trackpoint>
          <Trackpoint>
            <Time>2019-10-08T11:48:25.000Z</Time>
            <Position>
              <LatitudeDegrees>39.72051302902400493621826171875</LatitudeDegrees>
              <LongitudeDegrees>-6.4487836696207523345947265625</LongitudeDegrees>
            </Position>
            <AltitudeMeters>160</AltitudeMeters>
            <DistanceMeters>NAN</DistanceMeters>
          </Trackpoint>
          <Trackpoint>
            <Time>2019-10-08T11:48:29.000Z</Time>
            <Position>
              <LatitudeDegrees>39.72045972011983394622802734375</LatitudeDegrees>
              <LongitudeDegrees>-6.4487452805042266845703125</LongitudeDegrees>
            </Position>
            <AltitudeMeters>159.600006103515625</AltitudeMeters>
            <DistanceMeters>NAN</DistanceMeters>
          </Trackpoint>
          <Trackpoint>
            <Time>2019-10-08T11:48:32.000Z</Time>
            <Position>
              <LatitudeDegrees>39.7203473187983036041259765625</LatitudeDegrees>
              <LongitudeDegrees>-6.4486837573349475860595703125</LongitudeDegrees>
            </Position>
            <AltitudeMeters>158.600006103515625</AltitudeMeters>
            <DistanceMeters>NAN</DistanceMeters>
          </Trackpoint>
          <Trackpoint>
            <Time>2019-10-08T11:48:33.000Z</Time>
            <Position>
              <LatitudeDegrees>39.720305912196636199951171875</LatitudeDegrees>
              <LongitudeDegrees>-6.44865701906383037567138671875</LongitudeDegrees>
            </Position>
            <AltitudeMeters>158.600006103515625</AltitudeMeters>
            <DistanceMeters>NAN</DistanceMeters>
          </Trackpoint>
          <Trackpoint>
            <Time>2019-10-08T11:48:37.000Z</Time>
            <Position>
              <LatitudeDegrees>39.72012444399297237396240234375</LatitudeDegrees>
              <LongitudeDegrees>-6.44856163300573825836181640625</LongitudeDegrees>
            </Position>
            <AltitudeMeters>157.600006103515625</AltitudeMeters>
            <DistanceMeters>NAN</DistanceMeters>
          </Trackpoint>
          <Trackpoint>
            <Time>2019-10-08T11:48:39.000Z</Time>
            <Position>
              <LatitudeDegrees>39.7200267948210239410400390625</LatitudeDegrees>
              <LongitudeDegrees>-6.4485305361449718475341796875</LongitudeDegrees>
            </Position>
            <AltitudeMeters>157.600006103515625</AltitudeMeters>
            <DistanceMeters>NAN</DistanceMeters>
          </Trackpoint>
          <Trackpoint>
            <Time>2019-10-08T11:48:42.000Z</Time>
            <Position>
              <LatitudeDegrees>39.71987114287912845611572265625</LatitudeDegrees>
              <LongitudeDegrees>-6.44850061275064945220947265625</LongitudeDegrees>
            </Position>
            <AltitudeMeters>157.600006103515625</AltitudeMeters>
            <DistanceMeters>NAN</DistanceMeters>
          </Trackpoint>
          <Trackpoint>
            <Time>2019-10-08T11:48:44.000Z</Time>
            <Position>
              <LatitudeDegrees>39.7197644412517547607421875</LatitudeDegrees>
              <LongitudeDegrees>-6.44849658943712711334228515625</LongitudeDegrees>
            </Position>
            <AltitudeMeters>157.600006103515625</AltitudeMeters>
            <DistanceMeters>NAN</DistanceMeters>
          </Trackpoint>
          <Trackpoint>
            <Time>2019-10-08T11:48:45.000Z</Time>
            <Position>
              <LatitudeDegrees>39.719717837870121002197265625</LatitudeDegrees>
              <LongitudeDegrees>-6.44850815646350383758544921875</LongitudeDegrees>
            </Position>
            <AltitudeMeters>158</AltitudeMeters>
            <DistanceMeters>NAN</DistanceMeters>
          </Trackpoint>
          <Trackpoint>
            <Time>2019-10-08T11:48:47.000Z</Time>
            <Position>
              <LatitudeDegrees>39.71965991891920566558837890625</LatitudeDegrees>
              <LongitudeDegrees>-6.4485387504100799560546875</LongitudeDegrees>
            </Position>
            <AltitudeMeters>157.8000030517578125</AltitudeMeters>
            <DistanceMeters>NAN</DistanceMeters>
          </Trackpoint>
          <Trackpoint>
            <Time>2019-10-08T11:48:51.000Z</Time>
            <Position>
              <LatitudeDegrees>39.7196330130100250244140625</LatitudeDegrees>
              <LongitudeDegrees>-6.44855123944580554962158203125</LongitudeDegrees>
            </Position>
            <AltitudeMeters>158.1999969482421875</AltitudeMeters>
            <DistanceMeters>NAN</DistanceMeters>
          </Trackpoint>
          <Trackpoint>
            <Time>2019-10-08T11:49:02.000Z</Time>
            <Position>
              <LatitudeDegrees>39.7196330130100250244140625</LatitudeDegrees>
              <LongitudeDegrees>-6.44855123944580554962158203125</LongitudeDegrees>
            </Position>
            <AltitudeMeters>158.399993896484375</AltitudeMeters>
            <DistanceMeters>NAN</DistanceMeters>
          </Trackpoint>
          <Trackpoint>
            <Time>2019-10-08T11:49:06.000Z</Time>
            <Position>
              <LatitudeDegrees>39.7196033410727977752685546875</LatitudeDegrees>
              <LongitudeDegrees>-6.44855459220707416534423828125</LongitudeDegrees>
            </Position>
            <AltitudeMeters>158.1999969482421875</AltitudeMeters>
            <DistanceMeters>NAN</DistanceMeters>
          </Trackpoint>
          <Trackpoint>
            <Time>2019-10-08T11:49:07.000Z</Time>
            <Position>
              <LatitudeDegrees>39.7195859067142009735107421875</LatitudeDegrees>
              <LongitudeDegrees>-6.44855685532093048095703125</LongitudeDegrees>
            </Position>
            <AltitudeMeters>158.1999969482421875</AltitudeMeters>
            <DistanceMeters>NAN</DistanceMeters>
          </Trackpoint>
          <Trackpoint>
            <Time>2019-10-08T11:49:12.000Z</Time>
            <Position>
              <LatitudeDegrees>39.71945422701537609100341796875</LatitudeDegrees>
              <LongitudeDegrees>-6.44859298132359981536865234375</LongitudeDegrees>
            </Position>
            <AltitudeMeters>158</AltitudeMeters>
            <DistanceMeters>NAN</DistanceMeters>
          </Trackpoint>
          <Trackpoint>
            <Time>2019-10-08T11:49:13.000Z</Time>
            <Position>
              <LatitudeDegrees>39.71941935829818248748779296875</LatitudeDegrees>
              <LongitudeDegrees>-6.44860790111124515533447265625</LongitudeDegrees>
            </Position>
            <AltitudeMeters>157.8000030517578125</AltitudeMeters>
            <DistanceMeters>NAN</DistanceMeters>
          </Trackpoint>
          <Trackpoint>
            <Time>2019-10-08T11:49:20.000Z</Time>
            <Position>
              <LatitudeDegrees>39.71918114461004734039306640625</LatitudeDegrees>
              <LongitudeDegrees>-6.4487233199179172515869140625</LongitudeDegrees>
            </Position>
            <AltitudeMeters>158.1999969482421875</AltitudeMeters>
            <DistanceMeters>NAN</DistanceMeters>
          </Trackpoint>
          <Trackpoint>
            <Time>2019-10-08T11:49:26.000Z</Time>
            <Position>
              <LatitudeDegrees>39.71898048184812068939208984375</LatitudeDegrees>
              <LongitudeDegrees>-6.4487947337329387664794921875</LongitudeDegrees>
            </Position>
            <AltitudeMeters>158.1999969482421875</AltitudeMeters>
            <DistanceMeters>NAN</DistanceMeters>
          </Trackpoint>
          <Trackpoint>
            <Time>2019-10-08T11:49:31.000Z</Time>
            <Position>
              <LatitudeDegrees>39.71876070834696292877197265625</LatitudeDegrees>
              <LongitudeDegrees>-6.4489171095192432403564453125</LongitudeDegrees>
            </Position>
            <AltitudeMeters>157.600006103515625</AltitudeMeters>
            <DistanceMeters>NAN</DistanceMeters>
          </Trackpoint>
          <Trackpoint>
            <Time>2019-10-08T11:49:34.000Z</Time>
            <Position>
              <LatitudeDegrees>39.7186142764985561370849609375</LatitudeDegrees>
              <LongitudeDegrees>-6.44899263046681880950927734375</LongitudeDegrees>
            </Position>
            <AltitudeMeters>157.600006103515625</AltitudeMeters>
            <DistanceMeters>NAN</DistanceMeters>
          </Trackpoint>
          <Trackpoint>
            <Time>2019-10-08T11:49:41.000Z</Time>
            <Position>
              <LatitudeDegrees>39.7182619012892246246337890625</LatitudeDegrees>
              <LongitudeDegrees>-6.44914937205612659454345703125</LongitudeDegrees>
            </Position>
            <AltitudeMeters>157.600006103515625</AltitudeMeters>
            <DistanceMeters>NAN</DistanceMeters>
          </Trackpoint>
          <Trackpoint>
            <Time>2019-10-08T11:49:50.000Z</Time>
            <Position>
              <LatitudeDegrees>39.7178169898688793182373046875</LatitudeDegrees>
              <LongitudeDegrees>-6.449355147778987884521484375</LongitudeDegrees>
            </Position>
            <AltitudeMeters>157.600006103515625</AltitudeMeters>
            <DistanceMeters>NAN</DistanceMeters>
          </Trackpoint>
          <Trackpoint>
            <Time>2019-10-08T11:49:58.000Z</Time>
            <Position>
              <LatitudeDegrees>39.7174126468598842620849609375</LatitudeDegrees>
              <LongitudeDegrees>-6.44955270923674106597900390625</LongitudeDegrees>
            </Position>
            <AltitudeMeters>157.600006103515625</AltitudeMeters>
            <DistanceMeters>NAN</DistanceMeters>
          </Trackpoint>
          <Trackpoint>
            <Time>2019-10-08T11:50:07.000Z</Time>
            <Position>
              <LatitudeDegrees>39.7169486247003078460693359375</LatitudeDegrees>
              <LongitudeDegrees>-6.4497591555118560791015625</LongitudeDegrees>
            </Position>
            <AltitudeMeters>157.1999969482421875</AltitudeMeters>
            <DistanceMeters>NAN</DistanceMeters>
          </Trackpoint>
          <Trackpoint>
            <Time>2019-10-08T11:50:15.000Z</Time>
            <Position>
              <LatitudeDegrees>39.71653246320784091949462890625</LatitudeDegrees>
              <LongitudeDegrees>-6.4499467425048351287841796875</LongitudeDegrees>
            </Position>
            <AltitudeMeters>157.1999969482421875</AltitudeMeters>
            <DistanceMeters>NAN</DistanceMeters>
          </Trackpoint>
          <Trackpoint>
            <Time>2019-10-08T11:50:25.000Z</Time>
            <Position>
              <LatitudeDegrees>39.71600691787898540496826171875</LatitudeDegrees>
              <LongitudeDegrees>-6.45019392482936382293701171875</LongitudeDegrees>
            </Position>
            <AltitudeMeters>157.600006103515625</AltitudeMeters>
            <DistanceMeters>NAN</DistanceMeters>
          </Trackpoint>
          <Trackpoint>
            <Time>2019-10-08T11:50:31.000Z</Time>
            <Position>
              <LatitudeDegrees>39.7156913392245769500732421875</LatitudeDegrees>
              <LongitudeDegrees>-6.450327448546886444091796875</LongitudeDegrees>
            </Position>
            <AltitudeMeters>158.600006103515625</AltitudeMeters>
            <DistanceMeters>NAN</DistanceMeters>
          </Trackpoint>
          <Trackpoint>
            <Time>2019-10-08T11:50:34.000Z</Time>
            <Position>
              <LatitudeDegrees>39.71553904004395008087158203125</LatitudeDegrees>
              <LongitudeDegrees>-6.4504050649702548980712890625</LongitudeDegrees>
            </Position>
            <AltitudeMeters>158.399993896484375</AltitudeMeters>
            <DistanceMeters>NAN</DistanceMeters>
          </Trackpoint>
          <Trackpoint>
            <Time>2019-10-08T11:50:41.000Z</Time>
            <Position>
              <LatitudeDegrees>39.715203344821929931640625</LatitudeDegrees>
              <LongitudeDegrees>-6.45063363946974277496337890625</LongitudeDegrees>
            </Position>
            <AltitudeMeters>158.8000030517578125</AltitudeMeters>
            <DistanceMeters>NAN</DistanceMeters>
          </Trackpoint>
          <Trackpoint>
            <Time>2019-10-08T11:50:45.000Z</Time>
            <Position>
              <LatitudeDegrees>39.71504081971943378448486328125</LatitudeDegrees>
              <LongitudeDegrees>-6.45080848596990108489990234375</LongitudeDegrees>
            </Position>
            <AltitudeMeters>159.399993896484375</AltitudeMeters>
            <DistanceMeters>NAN</DistanceMeters>
          </Trackpoint>
          <Trackpoint>
            <Time>2019-10-08T11:50:47.000Z</Time>
            <Position>
              <LatitudeDegrees>39.71497762016952037811279296875</LatitudeDegrees>
              <LongitudeDegrees>-6.450919546186923980712890625</LongitudeDegrees>
            </Position>
            <AltitudeMeters>159.399993896484375</AltitudeMeters>
            <DistanceMeters>NAN</DistanceMeters>
          </Trackpoint>
          <Trackpoint>
            <Time>2019-10-08T11:50:48.000Z</Time>
            <Position>
              <LatitudeDegrees>39.71494878642261028289794921875</LatitudeDegrees>
              <LongitudeDegrees>-6.45097780041396617889404296875</LongitudeDegrees>
            </Position>
            <AltitudeMeters>159.600006103515625</AltitudeMeters>
            <DistanceMeters>NAN</DistanceMeters>
          </Trackpoint>
          <Trackpoint>
            <Time>2019-10-08T11:50:54.000Z</Time>
            <Position>
              <LatitudeDegrees>39.714787937700748443603515625</LatitudeDegrees>
              <LongitudeDegrees>-6.45132062025368213653564453125</LongitudeDegrees>
            </Position>
            <AltitudeMeters>160.1999969482421875</AltitudeMeters>
            <DistanceMeters>NAN</DistanceMeters>
          </Trackpoint>
          <Trackpoint>
            <Time>2019-10-08T11:50:56.000Z</Time>
            <Position>
              <LatitudeDegrees>39.71474795602262020111083984375</LatitudeDegrees>
              <LongitudeDegrees>-6.451441235840320587158203125</LongitudeDegrees>
            </Position>
            <AltitudeMeters>160.8000030517578125</AltitudeMeters>
            <DistanceMeters>NAN</DistanceMeters>
          </Trackpoint>
          <Trackpoint>
            <Time>2019-10-08T11:51:02.000Z</Time>
            <Position>
              <LatitudeDegrees>39.71460990607738494873046875</LatitudeDegrees>
              <LongitudeDegrees>-6.45177776925265789031982421875</LongitudeDegrees>
            </Position>
            <AltitudeMeters>161.399993896484375</AltitudeMeters>
            <DistanceMeters>NAN</DistanceMeters>
          </Trackpoint>
          <Trackpoint>
            <Time>2019-10-08T11:51:06.000Z</Time>
            <Position>
              <LatitudeDegrees>39.71449767239391803741455078125</LatitudeDegrees>
              <LongitudeDegrees>-6.45197876729071140289306640625</LongitudeDegrees>
            </Position>
            <AltitudeMeters>162</AltitudeMeters>
            <DistanceMeters>NAN</DistanceMeters>
          </Trackpoint>
          <Trackpoint>
            <Time>2019-10-08T11:51:10.000Z</Time>
            <Position>
              <LatitudeDegrees>39.7143633104860782623291015625</LatitudeDegrees>
              <LongitudeDegrees>-6.45215143449604511260986328125</LongitudeDegrees>
            </Position>
            <AltitudeMeters>162.399993896484375</AltitudeMeters>
            <DistanceMeters>NAN</DistanceMeters>
          </Trackpoint>
          <Trackpoint>
            <Time>2019-10-08T11:51:13.000Z</Time>
            <Position>
              <LatitudeDegrees>39.714264571666717529296875</LatitudeDegrees>
              <LongitudeDegrees>-6.452264674007892608642578125</LongitudeDegrees>
            </Position>
            <AltitudeMeters>162.399993896484375</AltitudeMeters>
            <DistanceMeters>NAN</DistanceMeters>
          </Trackpoint>
          <Trackpoint>
            <Time>2019-10-08T11:51:15.000Z</Time>
            <Position>
              <LatitudeDegrees>39.7141879610717296600341796875</LatitudeDegrees>
              <LongitudeDegrees>-6.4523221738636493682861328125</LongitudeDegrees>
            </Position>
            <AltitudeMeters>163.1999969482421875</AltitudeMeters>
            <DistanceMeters>NAN</DistanceMeters>
          </Trackpoint>
          <Trackpoint>
            <Time>2019-10-08T11:51:16.000Z</Time>
            <Position>
              <LatitudeDegrees>39.714149571955204010009765625</LatitudeDegrees>
              <LongitudeDegrees>-6.4523496665060520172119140625</LongitudeDegrees>
            </Position>
            <AltitudeMeters>163.1999969482421875</AltitudeMeters>
            <DistanceMeters>NAN</DistanceMeters>
          </Trackpoint>
          <Trackpoint>
            <Time>2019-10-08T11:51:24.000Z</Time>
            <Position>
              <LatitudeDegrees>39.7138215042650699615478515625</LatitudeDegrees>
              <LongitudeDegrees>-6.45250313915312290191650390625</LongitudeDegrees>
            </Position>
            <AltitudeMeters>163.8000030517578125</AltitudeMeters>
            <DistanceMeters>NAN</DistanceMeters>
          </Trackpoint>
          <Trackpoint>
            <Time>2019-10-08T11:51:30.000Z</Time>
            <Position>
              <LatitudeDegrees>39.713565520942211151123046875</LatitudeDegrees>
              <LongitudeDegrees>-6.45257455296814441680908203125</LongitudeDegrees>
            </Position>
            <AltitudeMeters>164.399993896484375</AltitudeMeters>
            <DistanceMeters>NAN</DistanceMeters>
          </Trackpoint>
          <Trackpoint>
            <Time>2019-10-08T11:51:33.000Z</Time>
            <Position>
              <LatitudeDegrees>39.71343602053821086883544921875</LatitudeDegrees>
              <LongitudeDegrees>-6.452605314552783966064453125</LongitudeDegrees>
            </Position>
            <AltitudeMeters>164.399993896484375</AltitudeMeters>
            <DistanceMeters>NAN</DistanceMeters>
          </Trackpoint>
          <Trackpoint>
            <Time>2019-10-08T11:51:38.000Z</Time>
            <Position>
              <LatitudeDegrees>39.71322722733020782470703125</LatitudeDegrees>
              <LongitudeDegrees>-6.4526653289794921875</LongitudeDegrees>
            </Position>
            <AltitudeMeters>165.399993896484375</AltitudeMeters>
            <DistanceMeters>NAN</DistanceMeters>
          </Trackpoint>
          <Trackpoint>
            <Time>2019-10-08T11:51:44.000Z</Time>
            <Position>
              <LatitudeDegrees>39.71297535113990306854248046875</LatitudeDegrees>
              <LongitudeDegrees>-6.45273883827030658721923828125</LongitudeDegrees>
            </Position>
            <AltitudeMeters>165.8000030517578125</AltitudeMeters>
            <DistanceMeters>NAN</DistanceMeters>
          </Trackpoint>
          <Trackpoint>
            <Time>2019-10-08T11:51:48.000Z</Time>
            <Position>
              <LatitudeDegrees>39.71281374804675579071044921875</LatitudeDegrees>
              <LongitudeDegrees>-6.45281963981688022613525390625</LongitudeDegrees>
            </Position>
            <AltitudeMeters>166.399993896484375</AltitudeMeters>
            <DistanceMeters>NAN</DistanceMeters>
          </Trackpoint>
          <Trackpoint>
            <Time>2019-10-08T11:51:51.000Z</Time>
            <Position>
              <LatitudeDegrees>39.71269614994525909423828125</LatitudeDegrees>
              <LongitudeDegrees>-6.45289775915443897247314453125</LongitudeDegrees>
            </Position>
            <AltitudeMeters>166.600006103515625</AltitudeMeters>
            <DistanceMeters>NAN</DistanceMeters>
          </Trackpoint>
          <Trackpoint>
            <Time>2019-10-08T11:51:57.000Z</Time>
            <Position>
              <LatitudeDegrees>39.71247813664376735687255859375</LatitudeDegrees>
              <LongitudeDegrees>-6.45308752544224262237548828125</LongitudeDegrees>
            </Position>
            <AltitudeMeters>167.600006103515625</AltitudeMeters>
            <DistanceMeters>NAN</DistanceMeters>
          </Trackpoint>
          <Trackpoint>
            <Time>2019-10-08T11:52:00.000Z</Time>
            <Position>
              <LatitudeDegrees>39.712383337318897247314453125</LatitudeDegrees>
              <LongitudeDegrees>-6.45320151932537555694580078125</LongitudeDegrees>
            </Position>
            <AltitudeMeters>167.8000030517578125</AltitudeMeters>
            <DistanceMeters>NAN</DistanceMeters>
          </Trackpoint>
          <Trackpoint>
            <Time>2019-10-08T11:52:05.000Z</Time>
            <Position>
              <LatitudeDegrees>39.712236821651458740234375</LatitudeDegrees>
              <LongitudeDegrees>-6.45340469665825366973876953125</LongitudeDegrees>
            </Position>
            <AltitudeMeters>168.600006103515625</AltitudeMeters>
            <DistanceMeters>NAN</DistanceMeters>
          </Trackpoint>
          <Trackpoint>
            <Time>2019-10-08T11:52:10.000Z</Time>
            <Position>
              <LatitudeDegrees>39.712092988193035125732421875</LatitudeDegrees>
              <LongitudeDegrees>-6.453601419925689697265625</LongitudeDegrees>
            </Position>
            <AltitudeMeters>169.600006103515625</AltitudeMeters>
            <DistanceMeters>NAN</DistanceMeters>
          </Trackpoint>
          <Trackpoint>
            <Time>2019-10-08T11:52:12.000Z</Time>
            <Position>
              <LatitudeDegrees>39.71203540451824665069580078125</LatitudeDegrees>
              <LongitudeDegrees>-6.453681886196136474609375</LongitudeDegrees>
            </Position>
            <AltitudeMeters>169.600006103515625</AltitudeMeters>
            <DistanceMeters>NAN</DistanceMeters>
          </Trackpoint>
          <Trackpoint>
            <Time>2019-10-08T11:52:20.000Z</Time>
            <Position>
              <LatitudeDegrees>39.71180574037134647369384765625</LatitudeDegrees>
              <LongitudeDegrees>-6.45400282926857471466064453125</LongitudeDegrees>
            </Position>
            <AltitudeMeters>170.8000030517578125</AltitudeMeters>
            <DistanceMeters>NAN</DistanceMeters>
          </Trackpoint>
          <Trackpoint>
            <Time>2019-10-08T11:52:25.000Z</Time>
            <Position>
              <LatitudeDegrees>39.711667858064174652099609375</LatitudeDegrees>
              <LongitudeDegrees>-6.454198546707630157470703125</LongitudeDegrees>
            </Position>
            <AltitudeMeters>171.8000030517578125</AltitudeMeters>
            <DistanceMeters>NAN</DistanceMeters>
          </Trackpoint>
          <Trackpoint>
            <Time>2019-10-08T11:52:29.000Z</Time>
            <Position>
              <LatitudeDegrees>39.711552523076534271240234375</LatitudeDegrees>
              <LongitudeDegrees>-6.45434749312698841094970703125</LongitudeDegrees>
            </Position>
            <AltitudeMeters>172</AltitudeMeters>
            <DistanceMeters>NAN</DistanceMeters>
          </Trackpoint>
          <Trackpoint>
            <Time>2019-10-08T11:52:34.000Z</Time>
            <Position>
              <LatitudeDegrees>39.7113951109349727630615234375</LatitudeDegrees>
              <LongitudeDegrees>-6.45451429300010204315185546875</LongitudeDegrees>
            </Position>
            <AltitudeMeters>173</AltitudeMeters>
            <DistanceMeters>NAN</DistanceMeters>
          </Trackpoint>
          <Trackpoint>
            <Time>2019-10-08T11:52:39.000Z</Time>
            <Position>
              <LatitudeDegrees>39.71122001297771930694580078125</LatitudeDegrees>
              <LongitudeDegrees>-6.4546716213226318359375</LongitudeDegrees>
            </Position>
            <AltitudeMeters>173.8000030517578125</AltitudeMeters>
            <DistanceMeters>NAN</DistanceMeters>
          </Trackpoint>
          <Trackpoint>
            <Time>2019-10-08T11:52:46.000Z</Time>
            <Position>
              <LatitudeDegrees>39.710967801511287689208984375</LatitudeDegrees>
              <LongitudeDegrees>-6.45486901514232158660888671875</LongitudeDegrees>
            </Position>
            <AltitudeMeters>174.1999969482421875</AltitudeMeters>
            <DistanceMeters>NAN</DistanceMeters>
          </Trackpoint>
          <Trackpoint>
            <Time>2019-10-08T11:52:51.000Z</Time>
            <Position>
              <LatitudeDegrees>39.7107869200408458709716796875</LatitudeDegrees>
              <LongitudeDegrees>-6.4549980126321315765380859375</LongitudeDegrees>
            </Position>
            <AltitudeMeters>174.600006103515625</AltitudeMeters>
            <DistanceMeters>NAN</DistanceMeters>
          </Trackpoint>
          <Trackpoint>
            <Time>2019-10-08T11:52:57.000Z</Time>
            <Position>
              <LatitudeDegrees>39.7105629555881023406982421875</LatitudeDegrees>
              <LongitudeDegrees>-6.4551522396504878997802734375</LongitudeDegrees>
            </Position>
            <AltitudeMeters>175.399993896484375</AltitudeMeters>
            <DistanceMeters>NAN</DistanceMeters>
          </Trackpoint>
          <Trackpoint>
            <Time>2019-10-08T11:53:03.000Z</Time>
            <Position>
              <LatitudeDegrees>39.71034058369696140289306640625</LatitudeDegrees>
              <LongitudeDegrees>-6.45531627349555492401123046875</LongitudeDegrees>
            </Position>
            <AltitudeMeters>176.1999969482421875</AltitudeMeters>
            <DistanceMeters>NAN</DistanceMeters>
          </Trackpoint>
          <Trackpoint>
            <Time>2019-10-08T11:53:07.000Z</Time>
            <Position>
              <LatitudeDegrees>39.7101916372776031494140625</LatitudeDegrees>
              <LongitudeDegrees>-6.45542775280773639678955078125</LongitudeDegrees>
            </Position>
            <AltitudeMeters>176.8000030517578125</AltitudeMeters>
            <DistanceMeters>NAN</DistanceMeters>
          </Trackpoint>
          <Trackpoint>
            <Time>2019-10-08T11:53:13.000Z</Time>
            <Position>
              <LatitudeDegrees>39.7099698521196842193603515625</LatitudeDegrees>
              <LongitudeDegrees>-6.45558969117701053619384765625</LongitudeDegrees>
            </Position>
            <AltitudeMeters>177.600006103515625</AltitudeMeters>
            <DistanceMeters>NAN</DistanceMeters>
          </Trackpoint>
          <Trackpoint>
            <Time>2019-10-08T11:53:15.000Z</Time>
            <Position>
              <LatitudeDegrees>39.70989617519080638885498046875</LatitudeDegrees>
              <LongitudeDegrees>-6.455642245709896087646484375</LongitudeDegrees>
            </Position>
            <AltitudeMeters>178</AltitudeMeters>
            <DistanceMeters>NAN</DistanceMeters>
          </Trackpoint>
          <Trackpoint>
            <Time>2019-10-08T11:53:21.000Z</Time>
            <Position>
              <LatitudeDegrees>39.70967405475676059722900390625</LatitudeDegrees>
              <LongitudeDegrees>-6.45579990930855274200439453125</LongitudeDegrees>
            </Position>
            <AltitudeMeters>179.1999969482421875</AltitudeMeters>
            <DistanceMeters>NAN</DistanceMeters>
          </Trackpoint>
          <Trackpoint>
            <Time>2019-10-08T11:53:23.000Z</Time>
            <Position>
              <LatitudeDegrees>39.70960129983723163604736328125</LatitudeDegrees>
              <LongitudeDegrees>-6.45585724152624607086181640625</LongitudeDegrees>
            </Position>
            <AltitudeMeters>179.1999969482421875</AltitudeMeters>
            <DistanceMeters>NAN</DistanceMeters>
          </Trackpoint>
          <Trackpoint>
            <Time>2019-10-08T11:53:30.000Z</Time>
            <Position>
              <LatitudeDegrees>39.70934414304792881011962890625</LatitudeDegrees>
              <LongitudeDegrees>-6.45604969002306461334228515625</LongitudeDegrees>
            </Position>
            <AltitudeMeters>180.399993896484375</AltitudeMeters>
            <DistanceMeters>NAN</DistanceMeters>
          </Trackpoint>
          <Trackpoint>
            <Time>2019-10-08T11:53:35.000Z</Time>
            <Position>
              <LatitudeDegrees>39.7091616690158843994140625</LatitudeDegrees>
              <LongitudeDegrees>-6.45618028007447719573974609375</LongitudeDegrees>
            </Position>
            <AltitudeMeters>180.399993896484375</AltitudeMeters>
            <DistanceMeters>NAN</DistanceMeters>
          </Trackpoint>
          <Trackpoint>
            <Time>2019-10-08T11:53:44.000Z</Time>
            <Position>
              <LatitudeDegrees>39.708835445344448089599609375</LatitudeDegrees>
              <LongitudeDegrees>-6.45642268471419811248779296875</LongitudeDegrees>
            </Position>
            <AltitudeMeters>182.1999969482421875</AltitudeMeters>
            <DistanceMeters>NAN</DistanceMeters>
          </Trackpoint>
          <Trackpoint>
            <Time>2019-10-08T11:53:45.000Z</Time>
            <Position>
              <LatitudeDegrees>39.70879948697984218597412109375</LatitudeDegrees>
              <LongitudeDegrees>-6.45645118318498134613037109375</LongitudeDegrees>
            </Position>
            <AltitudeMeters>182.399993896484375</AltitudeMeters>
            <DistanceMeters>NAN</DistanceMeters>
          </Trackpoint>
          <Trackpoint>
            <Time>2019-10-08T11:53:52.000Z</Time>
            <Position>
              <LatitudeDegrees>39.70853663049638271331787109375</LatitudeDegrees>
              <LongitudeDegrees>-6.4566365070641040802001953125</LongitudeDegrees>
            </Position>
            <AltitudeMeters>183.399993896484375</AltitudeMeters>
            <DistanceMeters>NAN</DistanceMeters>
          </Trackpoint>
          <Trackpoint>
            <Time>2019-10-08T11:53:55.000Z</Time>
            <Position>
              <LatitudeDegrees>39.70842204988002777099609375</LatitudeDegrees>
              <LongitudeDegrees>-6.45670498721301555633544921875</LongitudeDegrees>
            </Position>
            <AltitudeMeters>183.399993896484375</AltitudeMeters>
            <DistanceMeters>NAN</DistanceMeters>
          </Trackpoint>
          <Trackpoint>
            <Time>2019-10-08T11:54:03.000Z</Time>
            <Position>
              <LatitudeDegrees>39.7080933116376399993896484375</LatitudeDegrees>
              <LongitudeDegrees>-6.456825770437717437744140625</LongitudeDegrees>
            </Position>
            <AltitudeMeters>184.600006103515625</AltitudeMeters>
            <DistanceMeters>NAN</DistanceMeters>
          </Trackpoint>
          <Trackpoint>
            <Time>2019-10-08T11:54:10.000Z</Time>
            <Position>
              <LatitudeDegrees>39.707794748246669769287109375</LatitudeDegrees>
              <LongitudeDegrees>-6.45684982649981975555419921875</LongitudeDegrees>
            </Position>
            <AltitudeMeters>185.8000030517578125</AltitudeMeters>
            <DistanceMeters>NAN</DistanceMeters>
          </Trackpoint>
          <Trackpoint>
            <Time>2019-10-08T11:54:11.000Z</Time>
            <Position>
              <LatitudeDegrees>39.70775158144533634185791015625</LatitudeDegrees>
              <LongitudeDegrees>-6.45684747956693172454833984375</LongitudeDegrees>
            </Position>
            <AltitudeMeters>185.600006103515625</AltitudeMeters>
            <DistanceMeters>NAN</DistanceMeters>
          </Trackpoint>
          <Trackpoint>
            <Time>2019-10-08T11:54:20.000Z</Time>
            <Position>
              <LatitudeDegrees>39.70735260285437107086181640625</LatitudeDegrees>
              <LongitudeDegrees>-6.4567838609218597412109375</LongitudeDegrees>
            </Position>
            <AltitudeMeters>186.399993896484375</AltitudeMeters>
            <DistanceMeters>NAN</DistanceMeters>
          </Trackpoint>
          <Trackpoint>
            <Time>2019-10-08T11:54:23.000Z</Time>
            <Position>
              <LatitudeDegrees>39.707213379442691802978515625</LatitudeDegrees>
              <LongitudeDegrees>-6.456762738525867462158203125</LongitudeDegrees>
            </Position>
            <AltitudeMeters>186.8000030517578125</AltitudeMeters>
            <DistanceMeters>NAN</DistanceMeters>
          </Trackpoint>
          <Trackpoint>
            <Time>2019-10-08T11:54:26.000Z</Time>
            <Position>
              <LatitudeDegrees>39.70707080326974391937255859375</LatitudeDegrees>
              <LongitudeDegrees>-6.4567293785512447357177734375</LongitudeDegrees>
            </Position>
            <AltitudeMeters>186.399993896484375</AltitudeMeters>
            <DistanceMeters>NAN</DistanceMeters>
          </Trackpoint>
          <Trackpoint>
            <Time>2019-10-08T11:54:28.000Z</Time>
            <Position>
              <LatitudeDegrees>39.70696938224136829376220703125</LatitudeDegrees>
              <LongitudeDegrees>-6.45671303384006023406982421875</LongitudeDegrees>
            </Position>
            <AltitudeMeters>185.600006103515625</AltitudeMeters>
            <DistanceMeters>NAN</DistanceMeters>
          </Trackpoint>
          <Trackpoint>
            <Time>2019-10-08T11:54:31.000Z</Time>
            <Position>
              <LatitudeDegrees>39.7068075276911258697509765625</LatitudeDegrees>
              <LongitudeDegrees>-6.45668537355959415435791015625</LongitudeDegrees>
            </Position>
            <AltitudeMeters>185.600006103515625</AltitudeMeters>
            <DistanceMeters>NAN</DistanceMeters>
          </Trackpoint>
          <Trackpoint>
            <Time>2019-10-08T11:54:38.000Z</Time>
            <Position>
              <LatitudeDegrees>39.70639429986476898193359375</LatitudeDegrees>
              <LongitudeDegrees>-6.4566170610487461090087890625</LongitudeDegrees>
            </Position>
            <AltitudeMeters>185</AltitudeMeters>
            <DistanceMeters>NAN</DistanceMeters>
          </Trackpoint>
          <Trackpoint>
            <Time>2019-10-08T11:54:40.000Z</Time>
            <Position>
              <LatitudeDegrees>39.7062694095075130462646484375</LatitudeDegrees>
              <LongitudeDegrees>-6.456605158746242523193359375</LongitudeDegrees>
            </Position>
            <AltitudeMeters>184.399993896484375</AltitudeMeters>
            <DistanceMeters>NAN</DistanceMeters>
          </Trackpoint>
          <Trackpoint>
            <Time>2019-10-08T11:54:45.000Z</Time>
            <Position>
              <LatitudeDegrees>39.70595332793891429901123046875</LatitudeDegrees>
              <LongitudeDegrees>-6.4566160552203655242919921875</LongitudeDegrees>
            </Position>
            <AltitudeMeters>183.600006103515625</AltitudeMeters>
            <DistanceMeters>NAN</DistanceMeters>
          </Trackpoint>
          <Trackpoint>
            <Time>2019-10-08T11:54:47.000Z</Time>
            <Position>
              <LatitudeDegrees>39.7058251686394214630126953125</LatitudeDegrees>
              <LongitudeDegrees>-6.4566267840564250946044921875</LongitudeDegrees>
            </Position>
            <AltitudeMeters>183.399993896484375</AltitudeMeters>
            <DistanceMeters>NAN</DistanceMeters>
          </Trackpoint>
          <Trackpoint>
            <Time>2019-10-08T11:54:48.000Z</Time>
            <Position>
              <LatitudeDegrees>39.70576121471822261810302734375</LatitudeDegrees>
              <LongitudeDegrees>-6.45663022063672542572021484375</LongitudeDegrees>
            </Position>
            <AltitudeMeters>183.1999969482421875</AltitudeMeters>
            <DistanceMeters>NAN</DistanceMeters>
          </Trackpoint>
          <Trackpoint>
            <Time>2019-10-08T11:54:52.000Z</Time>
            <Position>
              <LatitudeDegrees>39.7055009566247463226318359375</LatitudeDegrees>
              <LongitudeDegrees>-6.45665503107011318206787109375</LongitudeDegrees>
            </Position>
            <AltitudeMeters>182.8000030517578125</AltitudeMeters>
            <DistanceMeters>NAN</DistanceMeters>
          </Trackpoint>
          <Trackpoint>
            <Time>2019-10-08T11:54:55.000Z</Time>
            <Position>
              <LatitudeDegrees>39.70530800521373748779296875</LatitudeDegrees>
              <LongitudeDegrees>-6.45667615346610546112060546875</LongitudeDegrees>
            </Position>
            <AltitudeMeters>182.600006103515625</AltitudeMeters>
            <DistanceMeters>NAN</DistanceMeters>
          </Trackpoint>
          <Trackpoint>
            <Time>2019-10-08T11:54:56.000Z</Time>
            <Position>
              <LatitudeDegrees>39.70524321310222148895263671875</LatitudeDegrees>
              <LongitudeDegrees>-6.456684954464435577392578125</LongitudeDegrees>
            </Position>
            <AltitudeMeters>182.600006103515625</AltitudeMeters>
            <DistanceMeters>NAN</DistanceMeters>
          </Trackpoint>
          <Trackpoint>
            <Time>2019-10-08T11:55:05.000Z</Time>
            <Position>
              <LatitudeDegrees>39.704682044684886932373046875</LatitudeDegrees>
              <LongitudeDegrees>-6.45674488507211208343505859375</LongitudeDegrees>
            </Position>
            <AltitudeMeters>183.600006103515625</AltitudeMeters>
            <DistanceMeters>NAN</DistanceMeters>
          </Trackpoint>
          <Trackpoint>
            <Time>2019-10-08T11:55:07.000Z</Time>
            <Position>
              <LatitudeDegrees>39.7045615129172801971435546875</LatitudeDegrees>
              <LongitudeDegrees>-6.4567558653652667999267578125</LongitudeDegrees>
            </Position>
            <AltitudeMeters>183.8000030517578125</AltitudeMeters>
            <DistanceMeters>NAN</DistanceMeters>
          </Trackpoint>
          <Trackpoint>
            <Time>2019-10-08T11:55:12.000Z</Time>
            <Position>
              <LatitudeDegrees>39.704262949526309967041015625</LatitudeDegrees>
              <LongitudeDegrees>-6.4567853696644306182861328125</LongitudeDegrees>
            </Position>
            <AltitudeMeters>184.1999969482421875</AltitudeMeters>
            <DistanceMeters>NAN</DistanceMeters>
          </Trackpoint>
          <Trackpoint>
            <Time>2019-10-08T11:55:17.000Z</Time>
            <Position>
              <LatitudeDegrees>39.70397586934268474578857421875</LatitudeDegrees>
              <LongitudeDegrees>-6.45682417787611484527587890625</LongitudeDegrees>
            </Position>
            <AltitudeMeters>184.8000030517578125</AltitudeMeters>
            <DistanceMeters>NAN</DistanceMeters>
          </Trackpoint>
          <Trackpoint>
            <Time>2019-10-08T11:55:19.000Z</Time>
            <Position>
              <LatitudeDegrees>39.7038648091256618499755859375</LatitudeDegrees>
              <LongitudeDegrees>-6.45683440379798412322998046875</LongitudeDegrees>
            </Position>
            <AltitudeMeters>185.1999969482421875</AltitudeMeters>
            <DistanceMeters>NAN</DistanceMeters>
          </Trackpoint>
          <Trackpoint>
            <Time>2019-10-08T11:55:28.000Z</Time>
            <Position>
              <LatitudeDegrees>39.70337220467627048492431640625</LatitudeDegrees>
              <LongitudeDegrees>-6.45687664858996868133544921875</LongitudeDegrees>
            </Position>
            <AltitudeMeters>185.399993896484375</AltitudeMeters>
            <DistanceMeters>NAN</DistanceMeters>
          </Trackpoint>
          <Trackpoint>
            <Time>2019-10-08T11:55:37.000Z</Time>
            <Position>
              <LatitudeDegrees>39.70281698741018772125244140625</LatitudeDegrees>
              <LongitudeDegrees>-6.4569372497498989105224609375</LongitudeDegrees>
            </Position>
            <AltitudeMeters>184.1999969482421875</AltitudeMeters>
            <DistanceMeters>NAN</DistanceMeters>
          </Trackpoint>
          <Trackpoint>
            <Time>2019-10-08T11:55:38.000Z</Time>
            <Position>
              <LatitudeDegrees>39.70275026746094226837158203125</LatitudeDegrees>
              <LongitudeDegrees>-6.4569442905485630035400390625</LongitudeDegrees>
            </Position>
            <AltitudeMeters>184</AltitudeMeters>
            <DistanceMeters>NAN</DistanceMeters>
          </Trackpoint>
          <Trackpoint>
            <Time>2019-10-08T11:55:44.000Z</Time>
            <Position>
              <LatitudeDegrees>39.70234676264226436614990234375</LatitudeDegrees>
              <LongitudeDegrees>-6.4569801650941371917724609375</LongitudeDegrees>
            </Position>
            <AltitudeMeters>182.8000030517578125</AltitudeMeters>
            <DistanceMeters>NAN</DistanceMeters>
          </Trackpoint>
          <Trackpoint>
            <Time>2019-10-08T11:55:47.000Z</Time>
            <Position>
              <LatitudeDegrees>39.702135957777500152587890625</LatitudeDegrees>
              <LongitudeDegrees>-6.45700740627944469451904296875</LongitudeDegrees>
            </Position>
            <AltitudeMeters>182.600006103515625</AltitudeMeters>
            <DistanceMeters>NAN</DistanceMeters>
          </Trackpoint>
          <Trackpoint>
            <Time>2019-10-08T11:55:54.000Z</Time>
            <Position>
              <LatitudeDegrees>39.70162441022694110870361328125</LatitudeDegrees>
              <LongitudeDegrees>-6.45707865245640277862548828125</LongitudeDegrees>
            </Position>
            <AltitudeMeters>181.600006103515625</AltitudeMeters>
            <DistanceMeters>NAN</DistanceMeters>
          </Trackpoint>
          <Trackpoint>
            <Time>2019-10-08T11:55:56.000Z</Time>
            <Position>
              <LatitudeDegrees>39.70147755928337574005126953125</LatitudeDegrees>
              <LongitudeDegrees>-6.45712592639029026031494140625</LongitudeDegrees>
            </Position>
            <AltitudeMeters>181.399993896484375</AltitudeMeters>
            <DistanceMeters>NAN</DistanceMeters>
          </Trackpoint>
          <Trackpoint>
            <Time>2019-10-08T11:55:59.000Z</Time>
            <Position>
              <LatitudeDegrees>39.70126717351377010345458984375</LatitudeDegrees>
              <LongitudeDegrees>-6.45724042318761348724365234375</LongitudeDegrees>
            </Position>
            <AltitudeMeters>180.399993896484375</AltitudeMeters>
            <DistanceMeters>NAN</DistanceMeters>
          </Trackpoint>
          <Trackpoint>
            <Time>2019-10-08T11:56:01.000Z</Time>
            <Position>
              <LatitudeDegrees>39.70113926567137241363525390625</LatitudeDegrees>
              <LongitudeDegrees>-6.45735123194754123687744140625</LongitudeDegrees>
            </Position>
            <AltitudeMeters>180</AltitudeMeters>
            <DistanceMeters>NAN</DistanceMeters>
          </Trackpoint>
          <Trackpoint>
            <Time>2019-10-08T11:56:04.000Z</Time>
            <Position>
              <LatitudeDegrees>39.70097414217889308929443359375</LatitudeDegrees>
              <LongitudeDegrees>-6.457556672394275665283203125</LongitudeDegrees>
            </Position>
            <AltitudeMeters>179.1999969482421875</AltitudeMeters>
            <DistanceMeters>NAN</DistanceMeters>
          </Trackpoint>
          <Trackpoint>
            <Time>2019-10-08T11:56:06.000Z</Time>
            <Position>
              <LatitudeDegrees>39.70088227652013301849365234375</LatitudeDegrees>
              <LongitudeDegrees>-6.45772171206772327423095703125</LongitudeDegrees>
            </Position>
            <AltitudeMeters>179.600006103515625</AltitudeMeters>
            <DistanceMeters>NAN</DistanceMeters>
          </Trackpoint>
          <Trackpoint>
            <Time>2019-10-08T11:56:11.000Z</Time>
            <Position>
              <LatitudeDegrees>39.700729139149188995361328125</LatitudeDegrees>
              <LongitudeDegrees>-6.4581563137471675872802734375</LongitudeDegrees>
            </Position>
            <AltitudeMeters>180.1999969482421875</AltitudeMeters>
            <DistanceMeters>NAN</DistanceMeters>
          </Trackpoint>
          <Trackpoint>
            <Time>2019-10-08T11:56:19.000Z</Time>
            <Position>
              <LatitudeDegrees>39.7005345113575458526611328125</LatitudeDegrees>
              <LongitudeDegrees>-6.45881873555481433868408203125</LongitudeDegrees>
            </Position>
            <AltitudeMeters>179.399993896484375</AltitudeMeters>
            <DistanceMeters>NAN</DistanceMeters>
          </Trackpoint>
          <Trackpoint>
            <Time>2019-10-08T11:56:20.000Z</Time>
            <Position>
              <LatitudeDegrees>39.70051129348576068878173828125</LatitudeDegrees>
              <LongitudeDegrees>-6.45890205167233943939208984375</LongitudeDegrees>
            </Position>
            <AltitudeMeters>179.1999969482421875</AltitudeMeters>
            <DistanceMeters>NAN</DistanceMeters>
          </Trackpoint>
          <Trackpoint>
            <Time>2019-10-08T11:56:26.000Z</Time>
            <Position>
              <LatitudeDegrees>39.70036343671381473541259765625</LatitudeDegrees>
              <LongitudeDegrees>-6.45942642353475093841552734375</LongitudeDegrees>
            </Position>
            <AltitudeMeters>178</AltitudeMeters>
            <DistanceMeters>NAN</DistanceMeters>
          </Trackpoint>
          <Trackpoint>
            <Time>2019-10-08T11:56:28.000Z</Time>
            <Position>
              <LatitudeDegrees>39.70031213946640491485595703125</LatitudeDegrees>
              <LongitudeDegrees>-6.4596135914325714111328125</LongitudeDegrees>
            </Position>
            <AltitudeMeters>177.600006103515625</AltitudeMeters>
            <DistanceMeters>NAN</DistanceMeters>
          </Trackpoint>
          <Trackpoint>
            <Time>2019-10-08T11:56:35.000Z</Time>
            <Position>
              <LatitudeDegrees>39.7001197747886180877685546875</LatitudeDegrees>
              <LongitudeDegrees>-6.46022790111601352691650390625</LongitudeDegrees>
            </Position>
            <AltitudeMeters>177</AltitudeMeters>
            <DistanceMeters>NAN</DistanceMeters>
          </Trackpoint>
          <Trackpoint>
            <Time>2019-10-08T11:56:40.000Z</Time>
            <Position>
              <LatitudeDegrees>39.69993478618562221527099609375</LatitudeDegrees>
              <LongitudeDegrees>-6.460636518895626068115234375</LongitudeDegrees>
            </Position>
            <AltitudeMeters>175.600006103515625</AltitudeMeters>
            <DistanceMeters>NAN</DistanceMeters>
          </Trackpoint>
          <Trackpoint>
            <Time>2019-10-08T11:56:41.000Z</Time>
            <Position>
              <LatitudeDegrees>39.69989220611751079559326171875</LatitudeDegrees>
              <LongitudeDegrees>-6.460720337927341461181640625</LongitudeDegrees>
            </Position>
            <AltitudeMeters>175.399993896484375</AltitudeMeters>
            <DistanceMeters>NAN</DistanceMeters>
          </Trackpoint>
          <Trackpoint>
            <Time>2019-10-08T11:56:44.000Z</Time>
            <Position>
              <LatitudeDegrees>39.69975641928613185882568359375</LatitudeDegrees>
              <LongitudeDegrees>-6.46097523160278797149658203125</LongitudeDegrees>
            </Position>
            <AltitudeMeters>174.1999969482421875</AltitudeMeters>
            <DistanceMeters>NAN</DistanceMeters>
          </Trackpoint>
          <Trackpoint>
            <Time>2019-10-08T11:56:48.000Z</Time>
            <Position>
              <LatitudeDegrees>39.69956246204674243927001953125</LatitudeDegrees>
              <LongitudeDegrees>-6.46132157184183597564697265625</LongitudeDegrees>
            </Position>
            <AltitudeMeters>173.1999969482421875</AltitudeMeters>
            <DistanceMeters>NAN</DistanceMeters>
          </Trackpoint>
          <Trackpoint>
            <Time>2019-10-08T11:56:49.000Z</Time>
            <Position>
              <LatitudeDegrees>39.69951309263706207275390625</LatitudeDegrees>
              <LongitudeDegrees>-6.4614088274538516998291015625</LongitudeDegrees>
            </Position>
            <AltitudeMeters>172.8000030517578125</AltitudeMeters>
            <DistanceMeters>NAN</DistanceMeters>
          </Trackpoint>
          <Trackpoint>
            <Time>2019-10-08T11:56:50.000Z</Time>
            <Position>
              <LatitudeDegrees>39.69946456141769886016845703125</LatitudeDegrees>
              <LongitudeDegrees>-6.46149692125618457794189453125</LongitudeDegrees>
            </Position>
            <AltitudeMeters>171.8000030517578125</AltitudeMeters>
            <DistanceMeters>NAN</DistanceMeters>
          </Trackpoint>
          <Trackpoint>
            <Time>2019-10-08T11:56:56.000Z</Time>
            <Position>
              <LatitudeDegrees>39.69917203299701213836669921875</LatitudeDegrees>
              <LongitudeDegrees>-6.4620274119079113006591796875</LongitudeDegrees>
            </Position>
            <AltitudeMeters>170.8000030517578125</AltitudeMeters>
            <DistanceMeters>NAN</DistanceMeters>
          </Trackpoint>
          <Trackpoint>
            <Time>2019-10-08T11:56:58.000Z</Time>
            <Position>
              <LatitudeDegrees>39.6990730427205562591552734375</LatitudeDegrees>
              <LongitudeDegrees>-6.4622138254344463348388671875</LongitudeDegrees>
            </Position>
            <AltitudeMeters>170.399993896484375</AltitudeMeters>
            <DistanceMeters>NAN</DistanceMeters>
          </Trackpoint>
          <Trackpoint>
            <Time>2019-10-08T11:56:59.000Z</Time>
            <Position>
              <LatitudeDegrees>39.69902333803474903106689453125</LatitudeDegrees>
              <LongitudeDegrees>-6.462307870388031005859375</LongitudeDegrees>
            </Position>
            <AltitudeMeters>169.8000030517578125</AltitudeMeters>
            <DistanceMeters>NAN</DistanceMeters>
          </Trackpoint>
          <Trackpoint>
            <Time>2019-10-08T11:57:01.000Z</Time>
            <Position>
              <LatitudeDegrees>39.6989209949970245361328125</LatitudeDegrees>
              <LongitudeDegrees>-6.4624914340674877166748046875</LongitudeDegrees>
            </Position>
            <AltitudeMeters>168.399993896484375</AltitudeMeters>
            <DistanceMeters>NAN</DistanceMeters>
          </Trackpoint>
          <Trackpoint>
            <Time>2019-10-08T11:57:06.000Z</Time>
            <Position>
              <LatitudeDegrees>39.698639698326587677001953125</LatitudeDegrees>
              <LongitudeDegrees>-6.46289519034326076507568359375</LongitudeDegrees>
            </Position>
            <AltitudeMeters>167.8000030517578125</AltitudeMeters>
            <DistanceMeters>NAN</DistanceMeters>
          </Trackpoint>
          <Trackpoint>
            <Time>2019-10-08T11:57:07.000Z</Time>
            <Position>
              <LatitudeDegrees>39.6985748223960399627685546875</LatitudeDegrees>
              <LongitudeDegrees>-6.46296031773090362548828125</LongitudeDegrees>
            </Position>
            <AltitudeMeters>167.399993896484375</AltitudeMeters>
            <DistanceMeters>NAN</DistanceMeters>
          </Trackpoint>
          <Trackpoint>
            <Time>2019-10-08T11:57:11.000Z</Time>
            <Position>
              <LatitudeDegrees>39.69828355126082897186279296875</LatitudeDegrees>
              <LongitudeDegrees>-6.46316994912922382354736328125</LongitudeDegrees>
            </Position>
            <AltitudeMeters>167.399993896484375</AltitudeMeters>
            <DistanceMeters>NAN</DistanceMeters>
          </Trackpoint>
          <Trackpoint>
            <Time>2019-10-08T11:57:15.000Z</Time>
            <Position>
              <LatitudeDegrees>39.69794332981109619140625</LatitudeDegrees>
              <LongitudeDegrees>-6.4632766507565975189208984375</LongitudeDegrees>
            </Position>
            <AltitudeMeters>166.399993896484375</AltitudeMeters>
            <DistanceMeters>NAN</DistanceMeters>
          </Trackpoint>
          <Trackpoint>
            <Time>2019-10-08T11:57:16.000Z</Time>
            <Position>
              <LatitudeDegrees>39.69785288907587528228759765625</LatitudeDegrees>
              <LongitudeDegrees>-6.46329483948647975921630859375</LongitudeDegrees>
            </Position>
            <AltitudeMeters>165.8000030517578125</AltitudeMeters>
            <DistanceMeters>NAN</DistanceMeters>
          </Trackpoint>
          <Trackpoint>
            <Time>2019-10-08T11:57:17.000Z</Time>
            <Position>
              <LatitudeDegrees>39.6977617777884006500244140625</LatitudeDegrees>
              <LongitudeDegrees>-6.463307999074459075927734375</LongitudeDegrees>
            </Position>
            <AltitudeMeters>165.1999969482421875</AltitudeMeters>
            <DistanceMeters>NAN</DistanceMeters>
          </Trackpoint>
          <Trackpoint>
            <Time>2019-10-08T11:57:19.000Z</Time>
            <Position>
              <LatitudeDegrees>39.6975807286798954010009765625</LatitudeDegrees>
              <LongitudeDegrees>-6.46333876065909862518310546875</LongitudeDegrees>
            </Position>
            <AltitudeMeters>163.8000030517578125</AltitudeMeters>
            <DistanceMeters>NAN</DistanceMeters>
          </Trackpoint>
          <Trackpoint>
            <Time>2019-10-08T11:57:25.000Z</Time>
            <Position>
              <LatitudeDegrees>39.6970308758318424224853515625</LatitudeDegrees>
              <LongitudeDegrees>-6.46343640983104705810546875</LongitudeDegrees>
            </Position>
            <AltitudeMeters>163.1999969482421875</AltitudeMeters>
            <DistanceMeters>NAN</DistanceMeters>
          </Trackpoint>
          <Trackpoint>
            <Time>2019-10-08T11:57:26.000Z</Time>
            <Position>
              <LatitudeDegrees>39.69693741761147975921630859375</LatitudeDegrees>
              <LongitudeDegrees>-6.46345610730350017547607421875</LongitudeDegrees>
            </Position>
            <AltitudeMeters>162.399993896484375</AltitudeMeters>
            <DistanceMeters>NAN</DistanceMeters>
          </Trackpoint>
          <Trackpoint>
            <Time>2019-10-08T11:57:30.000Z</Time>
            <Position>
              <LatitudeDegrees>39.69656928442418575286865234375</LatitudeDegrees>
              <LongitudeDegrees>-6.4636028744280338287353515625</LongitudeDegrees>
            </Position>
            <AltitudeMeters>161.1999969482421875</AltitudeMeters>
            <DistanceMeters>NAN</DistanceMeters>
          </Trackpoint>
          <Trackpoint>
            <Time>2019-10-08T11:57:31.000Z</Time>
            <Position>
              <LatitudeDegrees>39.69648144207894802093505859375</LatitudeDegrees>
              <LongitudeDegrees>-6.46366615779697895050048828125</LongitudeDegrees>
            </Position>
            <AltitudeMeters>160.600006103515625</AltitudeMeters>
            <DistanceMeters>NAN</DistanceMeters>
          </Trackpoint>
          <Trackpoint>
            <Time>2019-10-08T11:57:34.000Z</Time>
            <Position>
              <LatitudeDegrees>39.69624892808496952056884765625</LatitudeDegrees>
              <LongitudeDegrees>-6.46390286274254322052001953125</LongitudeDegrees>
            </Position>
            <AltitudeMeters>159.8000030517578125</AltitudeMeters>
            <DistanceMeters>NAN</DistanceMeters>
          </Trackpoint>
          <Trackpoint>
            <Time>2019-10-08T11:57:35.000Z</Time>
            <Position>
              <LatitudeDegrees>39.69617516733705997467041015625</LatitudeDegrees>
              <LongitudeDegrees>-6.46398651413619518280029296875</LongitudeDegrees>
            </Position>
            <AltitudeMeters>159</AltitudeMeters>
            <DistanceMeters>NAN</DistanceMeters>
          </Trackpoint>
          <Trackpoint>
            <Time>2019-10-08T11:57:36.000Z</Time>
            <Position>
              <LatitudeDegrees>39.6961019933223724365234375</LatitudeDegrees>
              <LongitudeDegrees>-6.4640692435204982757568359375</LongitudeDegrees>
            </Position>
            <AltitudeMeters>158.399993896484375</AltitudeMeters>
            <DistanceMeters>NAN</DistanceMeters>
          </Trackpoint>
          <Trackpoint>
            <Time>2019-10-08T11:57:42.000Z</Time>
            <Position>
              <LatitudeDegrees>39.69567359425127506256103515625</LatitudeDegrees>
              <LongitudeDegrees>-6.464550197124481201171875</LongitudeDegrees>
            </Position>
            <AltitudeMeters>158</AltitudeMeters>
            <DistanceMeters>NAN</DistanceMeters>
          </Trackpoint>
          <Trackpoint>
            <Time>2019-10-08T11:57:43.000Z</Time>
            <Position>
              <LatitudeDegrees>39.69560000114142894744873046875</LatitudeDegrees>
              <LongitudeDegrees>-6.46462253294885158538818359375</LongitudeDegrees>
            </Position>
            <AltitudeMeters>157.600006103515625</AltitudeMeters>
            <DistanceMeters>NAN</DistanceMeters>
          </Trackpoint>
          <Trackpoint>
            <Time>2019-10-08T11:57:45.000Z</Time>
            <Position>
              <LatitudeDegrees>39.6954426728188991546630859375</LatitudeDegrees>
              <LongitudeDegrees>-6.4647485129535198211669921875</LongitudeDegrees>
            </Position>
            <AltitudeMeters>157.1999969482421875</AltitudeMeters>
            <DistanceMeters>NAN</DistanceMeters>
          </Trackpoint>
          <Trackpoint>
            <Time>2019-10-08T11:57:46.000Z</Time>
            <Position>
              <LatitudeDegrees>39.6953575126826763153076171875</LatitudeDegrees>
              <LongitudeDegrees>-6.464797295629978179931640625</LongitudeDegrees>
            </Position>
            <AltitudeMeters>157</AltitudeMeters>
            <DistanceMeters>NAN</DistanceMeters>
          </Trackpoint>
          <Trackpoint>
            <Time>2019-10-08T11:57:47.000Z</Time>
            <Position>
              <LatitudeDegrees>39.6952710114419460296630859375</LatitudeDegrees>
              <LongitudeDegrees>-6.46483627147972583770751953125</LongitudeDegrees>
            </Position>
            <AltitudeMeters>156.8000030517578125</AltitudeMeters>
            <DistanceMeters>NAN</DistanceMeters>
          </Trackpoint>
          <Trackpoint>
            <Time>2019-10-08T11:57:51.000Z</Time>
            <Position>
              <LatitudeDegrees>39.6948949992656707763671875</LatitudeDegrees>
              <LongitudeDegrees>-6.46488614380359649658203125</LongitudeDegrees>
            </Position>
            <AltitudeMeters>156</AltitudeMeters>
            <DistanceMeters>NAN</DistanceMeters>
          </Trackpoint>
          <Trackpoint>
            <Time>2019-10-08T11:57:54.000Z</Time>
            <Position>
              <LatitudeDegrees>39.69461403787136077880859375</LatitudeDegrees>
              <LongitudeDegrees>-6.4648132212460041046142578125</LongitudeDegrees>
            </Position>
            <AltitudeMeters>155.8000030517578125</AltitudeMeters>
            <DistanceMeters>NAN</DistanceMeters>
          </Trackpoint>
          <Trackpoint>
            <Time>2019-10-08T11:57:55.000Z</Time>
            <Position>
              <LatitudeDegrees>39.69452074728906154632568359375</LatitudeDegrees>
              <LongitudeDegrees>-6.4647736586630344390869140625</LongitudeDegrees>
            </Position>
            <AltitudeMeters>155.1999969482421875</AltitudeMeters>
            <DistanceMeters>NAN</DistanceMeters>
          </Trackpoint>
          <Trackpoint>
            <Time>2019-10-08T11:57:56.000Z</Time>
            <Position>
              <LatitudeDegrees>39.69442569650709629058837890625</LatitudeDegrees>
              <LongitudeDegrees>-6.46472990512847900390625</LongitudeDegrees>
            </Position>
            <AltitudeMeters>155</AltitudeMeters>
            <DistanceMeters>NAN</DistanceMeters>
          </Trackpoint>
          <Trackpoint>
            <Time>2019-10-08T11:58:00.000Z</Time>
            <Position>
              <LatitudeDegrees>39.69405823387205600738525390625</LatitudeDegrees>
              <LongitudeDegrees>-6.46453343331813812255859375</LongitudeDegrees>
            </Position>
            <AltitudeMeters>153.8000030517578125</AltitudeMeters>
            <DistanceMeters>NAN</DistanceMeters>
          </Trackpoint>
          <Trackpoint>
            <Time>2019-10-08T11:58:01.000Z</Time>
            <Position>
              <LatitudeDegrees>39.69396938569843769073486328125</LatitudeDegrees>
              <LongitudeDegrees>-6.4644849859178066253662109375</LongitudeDegrees>
            </Position>
            <AltitudeMeters>154</AltitudeMeters>
            <DistanceMeters>NAN</DistanceMeters>
          </Trackpoint>
          <Trackpoint>
            <Time>2019-10-08T11:58:06.000Z</Time>
            <Position>
              <LatitudeDegrees>39.69355012290179729461669921875</LatitudeDegrees>
              <LongitudeDegrees>-6.464268900454044342041015625</LongitudeDegrees>
            </Position>
            <AltitudeMeters>154.8000030517578125</AltitudeMeters>
            <DistanceMeters>NAN</DistanceMeters>
          </Trackpoint>
          <Trackpoint>
            <Time>2019-10-08T11:58:08.000Z</Time>
            <Position>
              <LatitudeDegrees>39.69339472241699695587158203125</LatitudeDegrees>
              <LongitudeDegrees>-6.464191116392612457275390625</LongitudeDegrees>
            </Position>
            <AltitudeMeters>155</AltitudeMeters>
            <DistanceMeters>NAN</DistanceMeters>
          </Trackpoint>
          <Trackpoint>
            <Time>2019-10-08T11:58:12.000Z</Time>
            <Position>
              <LatitudeDegrees>39.69310990534722805023193359375</LatitudeDegrees>
              <LongitudeDegrees>-6.46404904313385486602783203125</LongitudeDegrees>
            </Position>
            <AltitudeMeters>156.1999969482421875</AltitudeMeters>
            <DistanceMeters>NAN</DistanceMeters>
          </Trackpoint>
          <Trackpoint>
            <Time>2019-10-08T11:58:14.000Z</Time>
            <Position>
              <LatitudeDegrees>39.6929780580103397369384765625</LatitudeDegrees>
              <LongitudeDegrees>-6.46398383192718029022216796875</LongitudeDegrees>
            </Position>
            <AltitudeMeters>156.600006103515625</AltitudeMeters>
            <DistanceMeters>NAN</DistanceMeters>
          </Trackpoint>
          <Trackpoint>
            <Time>2019-10-08T11:58:17.000Z</Time>
            <Position>
              <LatitudeDegrees>39.6927835978567600250244140625</LatitudeDegrees>
              <LongitudeDegrees>-6.46391451358795166015625</LongitudeDegrees>
            </Position>
            <AltitudeMeters>157.399993896484375</AltitudeMeters>
            <DistanceMeters>NAN</DistanceMeters>
          </Trackpoint>
          <Trackpoint>
            <Time>2019-10-08T11:58:20.000Z</Time>
            <Position>
              <LatitudeDegrees>39.69259433448314666748046875</LatitudeDegrees>
              <LongitudeDegrees>-6.4638761244714260101318359375</LongitudeDegrees>
            </Position>
            <AltitudeMeters>158.1999969482421875</AltitudeMeters>
            <DistanceMeters>NAN</DistanceMeters>
          </Trackpoint>
          <Trackpoint>
            <Time>2019-10-08T11:58:24.000Z</Time>
            <Position>
              <LatitudeDegrees>39.6923507563769817352294921875</LatitudeDegrees>
              <LongitudeDegrees>-6.46387453190982341766357421875</LongitudeDegrees>
            </Position>
            <AltitudeMeters>158.8000030517578125</AltitudeMeters>
            <DistanceMeters>NAN</DistanceMeters>
          </Trackpoint>
          <Trackpoint>
            <Time>2019-10-08T11:58:25.000Z</Time>
            <Position>
              <LatitudeDegrees>39.6922905743122100830078125</LatitudeDegrees>
              <LongitudeDegrees>-6.4638898707926273345947265625</LongitudeDegrees>
            </Position>
            <AltitudeMeters>159</AltitudeMeters>
            <DistanceMeters>NAN</DistanceMeters>
          </Trackpoint>
          <Trackpoint>
            <Time>2019-10-08T11:58:26.000Z</Time>
            <Position>
              <LatitudeDegrees>39.6922354213893413543701171875</LatitudeDegrees>
              <LongitudeDegrees>-6.46390470676124095916748046875</LongitudeDegrees>
            </Position>
            <AltitudeMeters>159</AltitudeMeters>
            <DistanceMeters>NAN</DistanceMeters>
          </Trackpoint>
          <Trackpoint>
            <Time>2019-10-08T11:58:32.000Z</Time>
            <Position>
              <LatitudeDegrees>39.69192654825747013092041015625</LatitudeDegrees>
              <LongitudeDegrees>-6.4640635438263416290283203125</LongitudeDegrees>
            </Position>
            <AltitudeMeters>159</AltitudeMeters>
            <DistanceMeters>NAN</DistanceMeters>
          </Trackpoint>
          <Trackpoint>
            <Time>2019-10-08T11:58:37.000Z</Time>
            <Position>
              <LatitudeDegrees>39.69171046279370784759521484375</LatitudeDegrees>
              <LongitudeDegrees>-6.46431022323668003082275390625</LongitudeDegrees>
            </Position>
            <AltitudeMeters>158.399993896484375</AltitudeMeters>
            <DistanceMeters>NAN</DistanceMeters>
          </Trackpoint>
          <Trackpoint>
            <Time>2019-10-08T11:58:43.000Z</Time>
            <Position>
              <LatitudeDegrees>39.69151801429688930511474609375</LatitudeDegrees>
              <LongitudeDegrees>-6.4646856486797332763671875</LongitudeDegrees>
            </Position>
            <AltitudeMeters>159</AltitudeMeters>
            <DistanceMeters>NAN</DistanceMeters>
          </Trackpoint>
          <Trackpoint>
            <Time>2019-10-08T11:58:50.000Z</Time>
            <Position>
              <LatitudeDegrees>39.691344089806079864501953125</LatitudeDegrees>
              <LongitudeDegrees>-6.4651521854102611541748046875</LongitudeDegrees>
            </Position>
            <AltitudeMeters>159.1999969482421875</AltitudeMeters>
            <DistanceMeters>NAN</DistanceMeters>
          </Trackpoint>
          <Trackpoint>
            <Time>2019-10-08T11:58:52.000Z</Time>
            <Position>
              <LatitudeDegrees>39.69129472039639949798583984375</LatitudeDegrees>
              <LongitudeDegrees>-6.46528554148972034454345703125</LongitudeDegrees>
            </Position>
            <AltitudeMeters>158.8000030517578125</AltitudeMeters>
            <DistanceMeters>NAN</DistanceMeters>
          </Trackpoint>
          <Trackpoint>
            <Time>2019-10-08T11:59:02.000Z</Time>
            <Position>
              <LatitudeDegrees>39.69104711897671222686767578125</LatitudeDegrees>
              <LongitudeDegrees>-6.4659410901367664337158203125</LongitudeDegrees>
            </Position>
            <AltitudeMeters>158.8000030517578125</AltitudeMeters>
            <DistanceMeters>NAN</DistanceMeters>
          </Trackpoint>
          <Trackpoint>
            <Time>2019-10-08T11:59:11.000Z</Time>
            <Position>
              <LatitudeDegrees>39.69082952477037906646728515625</LatitudeDegrees>
              <LongitudeDegrees>-6.4665362052619457244873046875</LongitudeDegrees>
            </Position>
            <AltitudeMeters>159</AltitudeMeters>
            <DistanceMeters>NAN</DistanceMeters>
          </Trackpoint>
          <Trackpoint>
            <Time>2019-10-08T11:59:21.000Z</Time>
            <Position>
              <LatitudeDegrees>39.69056733883917331695556640625</LatitudeDegrees>
              <LongitudeDegrees>-6.46720516495406627655029296875</LongitudeDegrees>
            </Position>
            <AltitudeMeters>159</AltitudeMeters>
            <DistanceMeters>NAN</DistanceMeters>
          </Trackpoint>
          <Trackpoint>
            <Time>2019-10-08T11:59:22.000Z</Time>
            <Position>
              <LatitudeDegrees>39.690543115139007568359375</LatitudeDegrees>
              <LongitudeDegrees>-6.46727138198912143707275390625</LongitudeDegrees>
            </Position>
            <AltitudeMeters>159</AltitudeMeters>
            <DistanceMeters>NAN</DistanceMeters>
          </Trackpoint>
          <Trackpoint>
            <Time>2019-10-08T11:59:31.000Z</Time>
            <Position>
              <LatitudeDegrees>39.69031705521047115325927734375</LatitudeDegrees>
              <LongitudeDegrees>-6.46789113990962505340576171875</LongitudeDegrees>
            </Position>
            <AltitudeMeters>159</AltitudeMeters>
            <DistanceMeters>NAN</DistanceMeters>
          </Trackpoint>
          <Trackpoint>
            <Time>2019-10-08T11:59:35.000Z</Time>
            <Position>
              <LatitudeDegrees>39.69021630473434925079345703125</LatitudeDegrees>
              <LongitudeDegrees>-6.46816841326653957366943359375</LongitudeDegrees>
            </Position>
            <AltitudeMeters>159</AltitudeMeters>
            <DistanceMeters>NAN</DistanceMeters>
          </Trackpoint>
          <Trackpoint>
            <Time>2019-10-08T11:59:40.000Z</Time>
            <Position>
              <LatitudeDegrees>39.69009527005255222320556640625</LatitudeDegrees>
              <LongitudeDegrees>-6.46850469522178173065185546875</LongitudeDegrees>
            </Position>
            <AltitudeMeters>159.8000030517578125</AltitudeMeters>
            <DistanceMeters>NAN</DistanceMeters>
          </Trackpoint>
          <Trackpoint>
            <Time>2019-10-08T11:59:42.000Z</Time>
            <Position>
              <LatitudeDegrees>39.69005034305155277252197265625</LatitudeDegrees>
              <LongitudeDegrees>-6.4686182700097560882568359375</LongitudeDegrees>
            </Position>
            <AltitudeMeters>160.399993896484375</AltitudeMeters>
            <DistanceMeters>NAN</DistanceMeters>
          </Trackpoint>
          <Trackpoint>
            <Time>2019-10-08T11:59:45.000Z</Time>
            <Position>
              <LatitudeDegrees>39.6899887360632419586181640625</LatitudeDegrees>
              <LongitudeDegrees>-6.46879370324313640594482421875</LongitudeDegrees>
            </Position>
            <AltitudeMeters>161</AltitudeMeters>
            <DistanceMeters>NAN</DistanceMeters>
          </Trackpoint>
          <Trackpoint>
            <Time>2019-10-08T11:59:48.000Z</Time>
            <Position>
              <LatitudeDegrees>39.68993484042584896087646484375</LatitudeDegrees>
              <LongitudeDegrees>-6.46896368823945522308349609375</LongitudeDegrees>
            </Position>
            <AltitudeMeters>161.399993896484375</AltitudeMeters>
            <DistanceMeters>NAN</DistanceMeters>
          </Trackpoint>
          <Trackpoint>
            <Time>2019-10-08T11:59:52.000Z</Time>
            <Position>
              <LatitudeDegrees>39.68985571525990962982177734375</LatitudeDegrees>
              <LongitudeDegrees>-6.46918773651123046875</LongitudeDegrees>
            </Position>
            <AltitudeMeters>162</AltitudeMeters>
            <DistanceMeters>NAN</DistanceMeters>
          </Trackpoint>
          <Trackpoint>
            <Time>2019-10-08T11:59:56.000Z</Time>
            <Position>
              <LatitudeDegrees>39.689779020845890045166015625</LatitudeDegrees>
              <LongitudeDegrees>-6.46939887665212154388427734375</LongitudeDegrees>
            </Position>
            <AltitudeMeters>163</AltitudeMeters>
            <DistanceMeters>NAN</DistanceMeters>
          </Trackpoint>
          <Trackpoint>
            <Time>2019-10-08T11:59:57.000Z</Time>
            <Position>
              <LatitudeDegrees>39.68976049683988094329833984375</LatitudeDegrees>
              <LongitudeDegrees>-6.4694517664611339569091796875</LongitudeDegrees>
            </Position>
            <AltitudeMeters>163.1999969482421875</AltitudeMeters>
            <DistanceMeters>NAN</DistanceMeters>
          </Trackpoint>
          <Trackpoint>
            <Time>2019-10-08T12:00:04.000Z</Time>
            <Position>
              <LatitudeDegrees>39.68961917795240879058837890625</LatitudeDegrees>
              <LongitudeDegrees>-6.46980875171720981597900390625</LongitudeDegrees>
            </Position>
            <AltitudeMeters>164</AltitudeMeters>
            <DistanceMeters>NAN</DistanceMeters>
          </Trackpoint>
          <Trackpoint>
            <Time>2019-10-08T12:00:05.000Z</Time>
            <Position>
              <LatitudeDegrees>39.68959922902286052703857421875</LatitudeDegrees>
              <LongitudeDegrees>-6.46985921077430248260498046875</LongitudeDegrees>
            </Position>
            <AltitudeMeters>164.399993896484375</AltitudeMeters>
            <DistanceMeters>NAN</DistanceMeters>
          </Trackpoint>
          <Trackpoint>
            <Time>2019-10-08T12:00:09.000Z</Time>
            <Position>
              <LatitudeDegrees>39.68950250186026096343994140625</LatitudeDegrees>
              <LongitudeDegrees>-6.47003774531185626983642578125</LongitudeDegrees>
            </Position>
            <AltitudeMeters>165.600006103515625</AltitudeMeters>
            <DistanceMeters>NAN</DistanceMeters>
          </Trackpoint>
          <Trackpoint>
            <Time>2019-10-08T12:00:11.000Z</Time>
            <Position>
              <LatitudeDegrees>39.68946017324924468994140625</LatitudeDegrees>
              <LongitudeDegrees>-6.470122151076793670654296875</LongitudeDegrees>
            </Position>
            <AltitudeMeters>165.8000030517578125</AltitudeMeters>
            <DistanceMeters>NAN</DistanceMeters>
          </Trackpoint>
          <Trackpoint>
            <Time>2019-10-08T12:00:15.000Z</Time>
            <Position>
              <LatitudeDegrees>39.689347855746746063232421875</LatitudeDegrees>
              <LongitudeDegrees>-6.47025902755558490753173828125</LongitudeDegrees>
            </Position>
            <AltitudeMeters>166.600006103515625</AltitudeMeters>
            <DistanceMeters>NAN</DistanceMeters>
          </Trackpoint>
          <Trackpoint>
            <Time>2019-10-08T12:00:17.000Z</Time>
            <Position>
              <LatitudeDegrees>39.68928775750100612640380859375</LatitudeDegrees>
              <LongitudeDegrees>-6.47031937725841999053955078125</LongitudeDegrees>
            </Position>
            <AltitudeMeters>167</AltitudeMeters>
            <DistanceMeters>NAN</DistanceMeters>
          </Trackpoint>
          <Trackpoint>
            <Time>2019-10-08T12:00:23.000Z</Time>
            <Position>
              <LatitudeDegrees>39.689095057547092437744140625</LatitudeDegrees>
              <LongitudeDegrees>-6.47047243081033229827880859375</LongitudeDegrees>
            </Position>
            <AltitudeMeters>167.8000030517578125</AltitudeMeters>
            <DistanceMeters>NAN</DistanceMeters>
          </Trackpoint>
          <Trackpoint>
            <Time>2019-10-08T12:00:25.000Z</Time>
            <Position>
              <LatitudeDegrees>39.6890258230268955230712890625</LatitudeDegrees>
              <LongitudeDegrees>-6.47051475942134857177734375</LongitudeDegrees>
            </Position>
            <AltitudeMeters>167.8000030517578125</AltitudeMeters>
            <DistanceMeters>NAN</DistanceMeters>
          </Trackpoint>
          <Trackpoint>
            <Time>2019-10-08T12:00:33.000Z</Time>
            <Position>
              <LatitudeDegrees>39.68873505480587482452392578125</LatitudeDegrees>
              <LongitudeDegrees>-6.47062514908611774444580078125</LongitudeDegrees>
            </Position>
            <AltitudeMeters>168.600006103515625</AltitudeMeters>
            <DistanceMeters>NAN</DistanceMeters>
          </Trackpoint>
          <Trackpoint>
            <Time>2019-10-08T12:00:34.000Z</Time>
            <Position>
              <LatitudeDegrees>39.68869767151772975921630859375</LatitudeDegrees>
              <LongitudeDegrees>-6.47063420154154300689697265625</LongitudeDegrees>
            </Position>
            <AltitudeMeters>169</AltitudeMeters>
            <DistanceMeters>NAN</DistanceMeters>
          </Trackpoint>
          <Trackpoint>
            <Time>2019-10-08T12:00:42.000Z</Time>
            <Position>
              <LatitudeDegrees>39.6883944980800151824951171875</LatitudeDegrees>
              <LongitudeDegrees>-6.47069605998694896697998046875</LongitudeDegrees>
            </Position>
            <AltitudeMeters>170</AltitudeMeters>
            <DistanceMeters>NAN</DistanceMeters>
          </Trackpoint>
          <Trackpoint>
            <Time>2019-10-08T12:00:43.000Z</Time>
            <Position>
              <LatitudeDegrees>39.6883572824299335479736328125</LatitudeDegrees>
              <LongitudeDegrees>-6.470706202089786529541015625</LongitudeDegrees>
            </Position>
            <AltitudeMeters>170.1999969482421875</AltitudeMeters>
            <DistanceMeters>NAN</DistanceMeters>
          </Trackpoint>
          <Trackpoint>
            <Time>2019-10-08T12:00:51.000Z</Time>
            <Position>
              <LatitudeDegrees>39.688054025173187255859375</LatitudeDegrees>
              <LongitudeDegrees>-6.47078566253185272216796875</LongitudeDegrees>
            </Position>
            <AltitudeMeters>171.1999969482421875</AltitudeMeters>
            <DistanceMeters>NAN</DistanceMeters>
          </Trackpoint>
          <Trackpoint>
            <Time>2019-10-08T12:00:52.000Z</Time>
            <Position>
              <LatitudeDegrees>39.68801739625632762908935546875</LatitudeDegrees>
              <LongitudeDegrees>-6.47080083377659320831298828125</LongitudeDegrees>
            </Position>
            <AltitudeMeters>171.600006103515625</AltitudeMeters>
            <DistanceMeters>NAN</DistanceMeters>
          </Trackpoint>
          <Trackpoint>
            <Time>2019-10-08T12:01:00.000Z</Time>
            <Position>
              <LatitudeDegrees>39.6877420507371425628662109375</LatitudeDegrees>
              <LongitudeDegrees>-6.47095908410847187042236328125</LongitudeDegrees>
            </Position>
            <AltitudeMeters>171.8000030517578125</AltitudeMeters>
            <DistanceMeters>NAN</DistanceMeters>
          </Trackpoint>
          <Trackpoint>
            <Time>2019-10-08T12:01:03.000Z</Time>
            <Position>
              <LatitudeDegrees>39.687647335231304168701171875</LatitudeDegrees>
              <LongitudeDegrees>-6.47104038856923580169677734375</LongitudeDegrees>
            </Position>
            <AltitudeMeters>173</AltitudeMeters>
            <DistanceMeters>NAN</DistanceMeters>
          </Trackpoint>
          <Trackpoint>
            <Time>2019-10-08T12:01:08.000Z</Time>
            <Position>
              <LatitudeDegrees>39.68749637715518474578857421875</LatitudeDegrees>
              <LongitudeDegrees>-6.47118589840829372406005859375</LongitudeDegrees>
            </Position>
            <AltitudeMeters>173.600006103515625</AltitudeMeters>
            <DistanceMeters>NAN</DistanceMeters>
          </Trackpoint>
          <Trackpoint>
            <Time>2019-10-08T12:01:11.000Z</Time>
            <Position>
              <LatitudeDegrees>39.68740635551512241363525390625</LatitudeDegrees>
              <LongitudeDegrees>-6.4712713100016117095947265625</LongitudeDegrees>
            </Position>
            <AltitudeMeters>174.1999969482421875</AltitudeMeters>
            <DistanceMeters>NAN</DistanceMeters>
          </Trackpoint>
          <Trackpoint>
            <Time>2019-10-08T12:01:17.000Z</Time>
            <Position>
              <LatitudeDegrees>39.687230251729488372802734375</LatitudeDegrees>
              <LongitudeDegrees>-6.4714379422366619110107421875</LongitudeDegrees>
            </Position>
            <AltitudeMeters>175.399993896484375</AltitudeMeters>
            <DistanceMeters>NAN</DistanceMeters>
          </Trackpoint>
          <Trackpoint>
            <Time>2019-10-08T12:01:19.000Z</Time>
            <Position>
              <LatitudeDegrees>39.6871720813214778900146484375</LatitudeDegrees>
              <LongitudeDegrees>-6.47149016149342060089111328125</LongitudeDegrees>
            </Position>
            <AltitudeMeters>175.8000030517578125</AltitudeMeters>
            <DistanceMeters>NAN</DistanceMeters>
          </Trackpoint>
          <Trackpoint>
            <Time>2019-10-08T12:01:22.000Z</Time>
            <Position>
              <LatitudeDegrees>39.6870798803865909576416015625</LatitudeDegrees>
              <LongitudeDegrees>-6.47155570797622203826904296875</LongitudeDegrees>
            </Position>
            <AltitudeMeters>176.399993896484375</AltitudeMeters>
            <DistanceMeters>NAN</DistanceMeters>
          </Trackpoint>
          <Trackpoint>
            <Time>2019-10-08T12:01:28.000Z</Time>
            <Position>
              <LatitudeDegrees>39.6868887729942798614501953125</LatitudeDegrees>
              <LongitudeDegrees>-6.47164841182529926300048828125</LongitudeDegrees>
            </Position>
            <AltitudeMeters>177.399993896484375</AltitudeMeters>
            <DistanceMeters>NAN</DistanceMeters>
          </Trackpoint>
          <Trackpoint>
            <Time>2019-10-08T12:01:33.000Z</Time>
            <Position>
              <LatitudeDegrees>39.68671350739896297454833984375</LatitudeDegrees>
              <LongitudeDegrees>-6.47169434465467929840087890625</LongitudeDegrees>
            </Position>
            <AltitudeMeters>178.399993896484375</AltitudeMeters>
            <DistanceMeters>NAN</DistanceMeters>
          </Trackpoint>
          <Trackpoint>
            <Time>2019-10-08T12:01:37.000Z</Time>
            <Position>
              <LatitudeDegrees>39.686568081378936767578125</LatitudeDegrees>
              <LongitudeDegrees>-6.47170742042362689971923828125</LongitudeDegrees>
            </Position>
            <AltitudeMeters>179</AltitudeMeters>
            <DistanceMeters>NAN</DistanceMeters>
          </Trackpoint>
          <Trackpoint>
            <Time>2019-10-08T12:01:40.000Z</Time>
            <Position>
              <LatitudeDegrees>39.68646942637860774993896484375</LatitudeDegrees>
              <LongitudeDegrees>-6.47169518284499645233154296875</LongitudeDegrees>
            </Position>
            <AltitudeMeters>179.8000030517578125</AltitudeMeters>
            <DistanceMeters>NAN</DistanceMeters>
          </Trackpoint>
          <Trackpoint>
            <Time>2019-10-08T12:01:44.000Z</Time>
            <Position>
              <LatitudeDegrees>39.6863422729074954986572265625</LatitudeDegrees>
              <LongitudeDegrees>-6.47166718728840351104736328125</LongitudeDegrees>
            </Position>
            <AltitudeMeters>180.1999969482421875</AltitudeMeters>
            <DistanceMeters>NAN</DistanceMeters>
          </Trackpoint>
          <Trackpoint>
            <Time>2019-10-08T12:01:48.000Z</Time>
            <Position>
              <LatitudeDegrees>39.68621159903705120086669921875</LatitudeDegrees>
              <LongitudeDegrees>-6.4716126210987567901611328125</LongitudeDegrees>
            </Position>
            <AltitudeMeters>180.8000030517578125</AltitudeMeters>
            <DistanceMeters>NAN</DistanceMeters>
          </Trackpoint>
          <Trackpoint>
            <Time>2019-10-08T12:01:50.000Z</Time>
            <Position>
              <LatitudeDegrees>39.6861397661268711090087890625</LatitudeDegrees>
              <LongitudeDegrees>-6.4715816080570220947265625</LongitudeDegrees>
            </Position>
            <AltitudeMeters>181</AltitudeMeters>
            <DistanceMeters>NAN</DistanceMeters>
          </Trackpoint>
          <Trackpoint>
            <Time>2019-10-08T12:01:57.000Z</Time>
            <Position>
              <LatitudeDegrees>39.6859069168567657470703125</LatitudeDegrees>
              <LongitudeDegrees>-6.47144322283565998077392578125</LongitudeDegrees>
            </Position>
            <AltitudeMeters>182</AltitudeMeters>
            <DistanceMeters>NAN</DistanceMeters>
          </Trackpoint>
          <Trackpoint>
            <Time>2019-10-08T12:01:59.000Z</Time>
            <Position>
              <LatitudeDegrees>39.6858460642397403717041015625</LatitudeDegrees>
              <LongitudeDegrees>-6.471400894224643707275390625</LongitudeDegrees>
            </Position>
            <AltitudeMeters>182.399993896484375</AltitudeMeters>
            <DistanceMeters>NAN</DistanceMeters>
          </Trackpoint>
          <Trackpoint>
            <Time>2019-10-08T12:02:02.000Z</Time>
            <Position>
              <LatitudeDegrees>39.68575210310518741607666015625</LatitudeDegrees>
              <LongitudeDegrees>-6.4713440649211406707763671875</LongitudeDegrees>
            </Position>
            <AltitudeMeters>183</AltitudeMeters>
            <DistanceMeters>NAN</DistanceMeters>
          </Trackpoint>
          <Trackpoint>
            <Time>2019-10-08T12:02:08.000Z</Time>
            <Position>
              <LatitudeDegrees>39.68556166626513004302978515625</LatitudeDegrees>
              <LongitudeDegrees>-6.47124557755887508392333984375</LongitudeDegrees>
            </Position>
            <AltitudeMeters>184.1999969482421875</AltitudeMeters>
            <DistanceMeters>NAN</DistanceMeters>
          </Trackpoint>
          <Trackpoint>
            <Time>2019-10-08T12:02:09.000Z</Time>
            <Position>
              <LatitudeDegrees>39.6855312399566173553466796875</LatitudeDegrees>
              <LongitudeDegrees>-6.471228897571563720703125</LongitudeDegrees>
            </Position>
            <AltitudeMeters>184.1999969482421875</AltitudeMeters>
            <DistanceMeters>NAN</DistanceMeters>
          </Trackpoint>
          <Trackpoint>
            <Time>2019-10-08T12:02:14.000Z</Time>
            <Position>
              <LatitudeDegrees>39.685374163091182708740234375</LatitudeDegrees>
              <LongitudeDegrees>-6.47117885760962963104248046875</LongitudeDegrees>
            </Position>
            <AltitudeMeters>185.399993896484375</AltitudeMeters>
            <DistanceMeters>NAN</DistanceMeters>
          </Trackpoint>
          <Trackpoint>
            <Time>2019-10-08T12:02:17.000Z</Time>
            <Position>
              <LatitudeDegrees>39.68527886085212230682373046875</LatitudeDegrees>
              <LongitudeDegrees>-6.4711670391261577606201171875</LongitudeDegrees>
            </Position>
            <AltitudeMeters>185.600006103515625</AltitudeMeters>
            <DistanceMeters>NAN</DistanceMeters>
          </Trackpoint>
          <Trackpoint>
            <Time>2019-10-08T12:02:22.000Z</Time>
            <Position>
              <LatitudeDegrees>39.6851171739399433135986328125</LatitudeDegrees>
              <LongitudeDegrees>-6.4711717329919338226318359375</LongitudeDegrees>
            </Position>
            <AltitudeMeters>186.600006103515625</AltitudeMeters>
            <DistanceMeters>NAN</DistanceMeters>
          </Trackpoint>
          <Trackpoint>
            <Time>2019-10-08T12:02:25.000Z</Time>
            <Position>
              <LatitudeDegrees>39.6850298345088958740234375</LatitudeDegrees>
              <LongitudeDegrees>-6.47118288092315196990966796875</LongitudeDegrees>
            </Position>
            <AltitudeMeters>187</AltitudeMeters>
            <DistanceMeters>NAN</DistanceMeters>
          </Trackpoint>
          <Trackpoint>
            <Time>2019-10-08T12:02:29.000Z</Time>
            <Position>
              <LatitudeDegrees>39.6849160082638263702392578125</LatitudeDegrees>
              <LongitudeDegrees>-6.4712159894406795501708984375</LongitudeDegrees>
            </Position>
            <AltitudeMeters>187.600006103515625</AltitudeMeters>
            <DistanceMeters>NAN</DistanceMeters>
          </Trackpoint>
          <Trackpoint>
            <Time>2019-10-08T12:02:34.000Z</Time>
            <Position>
              <LatitudeDegrees>39.68477427028119564056396484375</LatitudeDegrees>
              <LongitudeDegrees>-6.4712723158299922943115234375</LongitudeDegrees>
            </Position>
            <AltitudeMeters>188.600006103515625</AltitudeMeters>
            <DistanceMeters>NAN</DistanceMeters>
          </Trackpoint>
          <Trackpoint>
            <Time>2019-10-08T12:02:36.000Z</Time>
            <Position>
              <LatitudeDegrees>39.68472464941442012786865234375</LatitudeDegrees>
              <LongitudeDegrees>-6.4713004790246486663818359375</LongitudeDegrees>
            </Position>
            <AltitudeMeters>188.8000030517578125</AltitudeMeters>
            <DistanceMeters>NAN</DistanceMeters>
          </Trackpoint>
          <Trackpoint>
            <Time>2019-10-08T12:02:42.000Z</Time>
            <Position>
              <LatitudeDegrees>39.6845770440995693206787109375</LatitudeDegrees>
              <LongitudeDegrees>-6.47142402827739715576171875</LongitudeDegrees>
            </Position>
            <AltitudeMeters>189.600006103515625</AltitudeMeters>
            <DistanceMeters>NAN</DistanceMeters>
          </Trackpoint>
          <Trackpoint>
            <Time>2019-10-08T12:02:44.000Z</Time>
            <Position>
              <LatitudeDegrees>39.6845287643373012542724609375</LatitudeDegrees>
              <LongitudeDegrees>-6.471478007733821868896484375</LongitudeDegrees>
            </Position>
            <AltitudeMeters>190.1999969482421875</AltitudeMeters>
            <DistanceMeters>NAN</DistanceMeters>
          </Trackpoint>
          <Trackpoint>
            <Time>2019-10-08T12:02:52.000Z</Time>
            <Position>
              <LatitudeDegrees>39.6843547560274600982666015625</LatitudeDegrees>
              <LongitudeDegrees>-6.47172401659190654754638671875</LongitudeDegrees>
            </Position>
            <AltitudeMeters>191.399993896484375</AltitudeMeters>
            <DistanceMeters>NAN</DistanceMeters>
          </Trackpoint>
          <Trackpoint>
            <Time>2019-10-08T12:02:58.000Z</Time>
            <Position>
              <LatitudeDegrees>39.68425978906452655792236328125</LatitudeDegrees>
              <LongitudeDegrees>-6.47194697521626949310302734375</LongitudeDegrees>
            </Position>
            <AltitudeMeters>192.8000030517578125</AltitudeMeters>
            <DistanceMeters>NAN</DistanceMeters>
          </Trackpoint>
          <Trackpoint>
            <Time>2019-10-08T12:03:01.000Z</Time>
            <Position>
              <LatitudeDegrees>39.68421779572963714599609375</LatitudeDegrees>
              <LongitudeDegrees>-6.4720724523067474365234375</LongitudeDegrees>
            </Position>
            <AltitudeMeters>193.1999969482421875</AltitudeMeters>
            <DistanceMeters>NAN</DistanceMeters>
          </Trackpoint>
          <Trackpoint>
            <Time>2019-10-08T12:03:05.000Z</Time>
            <Position>
              <LatitudeDegrees>39.684169180691242218017578125</LatitudeDegrees>
              <LongitudeDegrees>-6.47223480977118015289306640625</LongitudeDegrees>
            </Position>
            <AltitudeMeters>193.8000030517578125</AltitudeMeters>
            <DistanceMeters>NAN</DistanceMeters>
          </Trackpoint>
          <Trackpoint>
            <Time>2019-10-08T12:03:11.000Z</Time>
            <Position>
              <LatitudeDegrees>39.68410723842680454254150390625</LatitudeDegrees>
              <LongitudeDegrees>-6.4725068025290966033935546875</LongitudeDegrees>
            </Position>
            <AltitudeMeters>194</AltitudeMeters>
            <DistanceMeters>NAN</DistanceMeters>
          </Trackpoint>
          <Trackpoint>
            <Time>2019-10-08T12:03:19.000Z</Time>
            <Position>
              <LatitudeDegrees>39.68401537276804447174072265625</LatitudeDegrees>
              <LongitudeDegrees>-6.47288440726697444915771484375</LongitudeDegrees>
            </Position>
            <AltitudeMeters>194.600006103515625</AltitudeMeters>
            <DistanceMeters>NAN</DistanceMeters>
          </Trackpoint>
          <Trackpoint>
            <Time>2019-10-08T12:03:27.000Z</Time>
            <Position>
              <LatitudeDegrees>39.68385594896972179412841796875</LatitudeDegrees>
              <LongitudeDegrees>-6.47328539751470088958740234375</LongitudeDegrees>
            </Position>
            <AltitudeMeters>194.1999969482421875</AltitudeMeters>
            <DistanceMeters>NAN</DistanceMeters>
          </Trackpoint>
          <Trackpoint>
            <Time>2019-10-08T12:03:33.000Z</Time>
            <Position>
              <LatitudeDegrees>39.68363843858242034912109375</LatitudeDegrees>
              <LongitudeDegrees>-6.47357088513672351837158203125</LongitudeDegrees>
            </Position>
            <AltitudeMeters>193.399993896484375</AltitudeMeters>
            <DistanceMeters>NAN</DistanceMeters>
          </Trackpoint>
          <Trackpoint>
            <Time>2019-10-08T12:03:39.000Z</Time>
            <Position>
              <LatitudeDegrees>39.68335873447358608245849609375</LatitudeDegrees>
              <LongitudeDegrees>-6.47377372719347476959228515625</LongitudeDegrees>
            </Position>
            <AltitudeMeters>193.399993896484375</AltitudeMeters>
            <DistanceMeters>NAN</DistanceMeters>
          </Trackpoint>
          <Trackpoint>
            <Time>2019-10-08T12:03:43.000Z</Time>
            <Position>
              <LatitudeDegrees>39.68314667232334613800048828125</LatitudeDegrees>
              <LongitudeDegrees>-6.47385570220649242401123046875</LongitudeDegrees>
            </Position>
            <AltitudeMeters>192.600006103515625</AltitudeMeters>
            <DistanceMeters>NAN</DistanceMeters>
          </Trackpoint>
          <Trackpoint>
            <Time>2019-10-08T12:03:45.000Z</Time>
            <Position>
              <LatitudeDegrees>39.6830317564308643341064453125</LatitudeDegrees>
              <LongitudeDegrees>-6.4738760702311992645263671875</LongitudeDegrees>
            </Position>
            <AltitudeMeters>192.600006103515625</AltitudeMeters>
            <DistanceMeters>NAN</DistanceMeters>
          </Trackpoint>
          <Trackpoint>
            <Time>2019-10-08T12:03:48.000Z</Time>
            <Position>
              <LatitudeDegrees>39.68284827657043933868408203125</LatitudeDegrees>
              <LongitudeDegrees>-6.473894678056240081787109375</LongitudeDegrees>
            </Position>
            <AltitudeMeters>192.399993896484375</AltitudeMeters>
            <DistanceMeters>NAN</DistanceMeters>
          </Trackpoint>
          <Trackpoint>
            <Time>2019-10-08T12:03:52.000Z</Time>
            <Position>
              <LatitudeDegrees>39.68259028159081935882568359375</LatitudeDegrees>
              <LongitudeDegrees>-6.473907418549060821533203125</LongitudeDegrees>
            </Position>
            <AltitudeMeters>192</AltitudeMeters>
            <DistanceMeters>NAN</DistanceMeters>
          </Trackpoint>
          <Trackpoint>
            <Time>2019-10-08T12:03:53.000Z</Time>
            <Position>
              <LatitudeDegrees>39.68252456746995449066162109375</LatitudeDegrees>
              <LongitudeDegrees>-6.47390867583453655242919921875</LongitudeDegrees>
            </Position>
            <AltitudeMeters>191.600006103515625</AltitudeMeters>
            <DistanceMeters>NAN</DistanceMeters>
          </Trackpoint>
          <Trackpoint>
            <Time>2019-10-08T12:03:57.000Z</Time>
            <Position>
              <LatitudeDegrees>39.68225919641554355621337890625</LatitudeDegrees>
              <LongitudeDegrees>-6.47394035942852497100830078125</LongitudeDegrees>
            </Position>
            <AltitudeMeters>190.399993896484375</AltitudeMeters>
            <DistanceMeters>NAN</DistanceMeters>
          </Trackpoint>
          <Trackpoint>
            <Time>2019-10-08T12:04:00.000Z</Time>
            <Position>
              <LatitudeDegrees>39.682064317166805267333984375</LatitudeDegrees>
              <LongitudeDegrees>-6.473982520401477813720703125</LongitudeDegrees>
            </Position>
            <AltitudeMeters>191</AltitudeMeters>
            <DistanceMeters>NAN</DistanceMeters>
          </Trackpoint>
          <Trackpoint>
            <Time>2019-10-08T12:04:05.000Z</Time>
            <Position>
              <LatitudeDegrees>39.68178679235279560089111328125</LatitudeDegrees>
              <LongitudeDegrees>-6.474132724106311798095703125</LongitudeDegrees>
            </Position>
            <AltitudeMeters>191.1999969482421875</AltitudeMeters>
            <DistanceMeters>NAN</DistanceMeters>
          </Trackpoint>
          <Trackpoint>
            <Time>2019-10-08T12:04:06.000Z</Time>
            <Position>
              <LatitudeDegrees>39.68174018897116184234619140625</LatitudeDegrees>
              <LongitudeDegrees>-6.474170275032520294189453125</LongitudeDegrees>
            </Position>
            <AltitudeMeters>191.399993896484375</AltitudeMeters>
            <DistanceMeters>NAN</DistanceMeters>
          </Trackpoint>
          <Trackpoint>
            <Time>2019-10-08T12:04:10.000Z</Time>
            <Position>
              <LatitudeDegrees>39.68158244155347347259521484375</LatitudeDegrees>
              <LongitudeDegrees>-6.474307067692279815673828125</LongitudeDegrees>
            </Position>
            <AltitudeMeters>193</AltitudeMeters>
            <DistanceMeters>NAN</DistanceMeters>
          </Trackpoint>
          <Trackpoint>
            <Time>2019-10-08T12:04:15.000Z</Time>
            <Position>
              <LatitudeDegrees>39.6814234368503093719482421875</LatitudeDegrees>
              <LongitudeDegrees>-6.47444863803684711456298828125</LongitudeDegrees>
            </Position>
            <AltitudeMeters>194.1999969482421875</AltitudeMeters>
            <DistanceMeters>NAN</DistanceMeters>
          </Trackpoint>
          <Trackpoint>
            <Time>2019-10-08T12:04:17.000Z</Time>
            <Position>
              <LatitudeDegrees>39.681365601718425750732421875</LatitudeDegrees>
              <LongitudeDegrees>-6.47449691779911518096923828125</LongitudeDegrees>
            </Position>
            <AltitudeMeters>194.8000030517578125</AltitudeMeters>
            <DistanceMeters>NAN</DistanceMeters>
          </Trackpoint>
          <Trackpoint>
            <Time>2019-10-08T12:04:19.000Z</Time>
            <Position>
              <LatitudeDegrees>39.68131170608103275299072265625</LatitudeDegrees>
              <LongitudeDegrees>-6.47454218007624149322509765625</LongitudeDegrees>
            </Position>
            <AltitudeMeters>195.399993896484375</AltitudeMeters>
            <DistanceMeters>NAN</DistanceMeters>
          </Trackpoint>
          <Trackpoint>
            <Time>2019-10-08T12:04:24.000Z</Time>
            <Position>
              <LatitudeDegrees>39.68117072246968746185302734375</LatitudeDegrees>
              <LongitudeDegrees>-6.47464402019977569580078125</LongitudeDegrees>
            </Position>
            <AltitudeMeters>196.1999969482421875</AltitudeMeters>
            <DistanceMeters>NAN</DistanceMeters>
          </Trackpoint>
          <Trackpoint>
            <Time>2019-10-08T12:04:25.000Z</Time>
            <Position>
              <LatitudeDegrees>39.6811404637992382049560546875</LatitudeDegrees>
              <LongitudeDegrees>-6.47466011345386505126953125</LongitudeDegrees>
            </Position>
            <AltitudeMeters>196.600006103515625</AltitudeMeters>
            <DistanceMeters>NAN</DistanceMeters>
          </Trackpoint>
          <Trackpoint>
            <Time>2019-10-08T12:04:26.000Z</Time>
            <Position>
              <LatitudeDegrees>39.681113474071025848388671875</LatitudeDegrees>
              <LongitudeDegrees>-6.474681235849857330322265625</LongitudeDegrees>
            </Position>
            <AltitudeMeters>196.600006103515625</AltitudeMeters>
            <DistanceMeters>NAN</DistanceMeters>
          </Trackpoint>
          <Trackpoint>
            <Time>2019-10-08T12:04:31.000Z</Time>
            <Position>
              <LatitudeDegrees>39.6809594146907329559326171875</LatitudeDegrees>
              <LongitudeDegrees>-6.47475843317806720733642578125</LongitudeDegrees>
            </Position>
            <AltitudeMeters>197.8000030517578125</AltitudeMeters>
            <DistanceMeters>NAN</DistanceMeters>
          </Trackpoint>
          <Trackpoint>
            <Time>2019-10-08T12:04:33.000Z</Time>
            <Position>
              <LatitudeDegrees>39.6808957122266292572021484375</LatitudeDegrees>
              <LongitudeDegrees>-6.47477670572698116302490234375</LongitudeDegrees>
            </Position>
            <AltitudeMeters>198</AltitudeMeters>
            <DistanceMeters>NAN</DistanceMeters>
          </Trackpoint>
          <Trackpoint>
            <Time>2019-10-08T12:04:37.000Z</Time>
            <Position>
              <LatitudeDegrees>39.6807552315294742584228515625</LatitudeDegrees>
              <LongitudeDegrees>-6.474810652434825897216796875</LongitudeDegrees>
            </Position>
            <AltitudeMeters>198.399993896484375</AltitudeMeters>
            <DistanceMeters>NAN</DistanceMeters>
          </Trackpoint>
          <Trackpoint>
            <Time>2019-10-08T12:04:40.000Z</Time>
            <Position>
              <LatitudeDegrees>39.68064668588340282440185546875</LatitudeDegrees>
              <LongitudeDegrees>-6.4748282544314861297607421875</LongitudeDegrees>
            </Position>
            <AltitudeMeters>199</AltitudeMeters>
            <DistanceMeters>NAN</DistanceMeters>
          </Trackpoint>
          <Trackpoint>
            <Time>2019-10-08T12:04:41.000Z</Time>
            <Position>
              <LatitudeDegrees>39.68061064369976520538330078125</LatitudeDegrees>
              <LongitudeDegrees>-6.4748342894017696380615234375</LongitudeDegrees>
            </Position>
            <AltitudeMeters>199</AltitudeMeters>
            <DistanceMeters>NAN</DistanceMeters>
          </Trackpoint>
          <Trackpoint>
            <Time>2019-10-08T12:04:45.000Z</Time>
            <Position>
              <LatitudeDegrees>39.6804608590900897979736328125</LatitudeDegrees>
              <LongitudeDegrees>-6.47484778426587581634521484375</LongitudeDegrees>
            </Position>
            <AltitudeMeters>200.399993896484375</AltitudeMeters>
            <DistanceMeters>NAN</DistanceMeters>
          </Trackpoint>
          <Trackpoint>
            <Time>2019-10-08T12:04:52.000Z</Time>
            <Position>
              <LatitudeDegrees>39.680210910737514495849609375</LatitudeDegrees>
              <LongitudeDegrees>-6.474882066249847412109375</LongitudeDegrees>
            </Position>
            <AltitudeMeters>201.1999969482421875</AltitudeMeters>
            <DistanceMeters>NAN</DistanceMeters>
          </Trackpoint>
          <Trackpoint>
            <Time>2019-10-08T12:04:53.000Z</Time>
            <Position>
              <LatitudeDegrees>39.68017461709678173065185546875</LatitudeDegrees>
              <LongitudeDegrees>-6.47488667629659175872802734375</LongitudeDegrees>
            </Position>
            <AltitudeMeters>201.399993896484375</AltitudeMeters>
            <DistanceMeters>NAN</DistanceMeters>
          </Trackpoint>
          <Trackpoint>
            <Time>2019-10-08T12:05:00.000Z</Time>
            <Position>
              <LatitudeDegrees>39.6799321286380290985107421875</LatitudeDegrees>
              <LongitudeDegrees>-6.474915929138660430908203125</LongitudeDegrees>
            </Position>
            <AltitudeMeters>202.600006103515625</AltitudeMeters>
            <DistanceMeters>NAN</DistanceMeters>
          </Trackpoint>
          <Trackpoint>
            <Time>2019-10-08T12:05:02.000Z</Time>
            <Position>
              <LatitudeDegrees>39.67986247502267360687255859375</LatitudeDegrees>
              <LongitudeDegrees>-6.47492565214633941650390625</LongitudeDegrees>
            </Position>
            <AltitudeMeters>203</AltitudeMeters>
            <DistanceMeters>NAN</DistanceMeters>
          </Trackpoint>
          <Trackpoint>
            <Time>2019-10-08T12:05:06.000Z</Time>
            <Position>
              <LatitudeDegrees>39.67972585000097751617431640625</LatitudeDegrees>
              <LongitudeDegrees>-6.47494115866720676422119140625</LongitudeDegrees>
            </Position>
            <AltitudeMeters>203.8000030517578125</AltitudeMeters>
            <DistanceMeters>NAN</DistanceMeters>
          </Trackpoint>
          <Trackpoint>
            <Time>2019-10-08T12:05:11.000Z</Time>
            <Position>
              <LatitudeDegrees>39.679565168917179107666015625</LatitudeDegrees>
              <LongitudeDegrees>-6.47496479563415050506591796875</LongitudeDegrees>
            </Position>
            <AltitudeMeters>204.8000030517578125</AltitudeMeters>
            <DistanceMeters>NAN</DistanceMeters>
          </Trackpoint>
          <Trackpoint>
            <Time>2019-10-08T12:05:12.000Z</Time>
            <Position>
              <LatitudeDegrees>39.67953608371317386627197265625</LatitudeDegrees>
              <LongitudeDegrees>-6.4749700762331485748291015625</LongitudeDegrees>
            </Position>
            <AltitudeMeters>205.1999969482421875</AltitudeMeters>
            <DistanceMeters>NAN</DistanceMeters>
          </Trackpoint>
          <Trackpoint>
            <Time>2019-10-08T12:05:19.000Z</Time>
            <Position>
              <LatitudeDegrees>39.6793199144303798675537109375</LatitudeDegrees>
              <LongitudeDegrees>-6.47496647201478481292724609375</LongitudeDegrees>
            </Position>
            <AltitudeMeters>206.1999969482421875</AltitudeMeters>
            <DistanceMeters>NAN</DistanceMeters>
          </Trackpoint>
          <Trackpoint>
            <Time>2019-10-08T12:05:20.000Z</Time>
            <Position>
              <LatitudeDegrees>39.6792877279222011566162109375</LatitudeDegrees>
              <LongitudeDegrees>-6.474966220557689666748046875</LongitudeDegrees>
            </Position>
            <AltitudeMeters>206.600006103515625</AltitudeMeters>
            <DistanceMeters>NAN</DistanceMeters>
          </Trackpoint>
          <Trackpoint>
            <Time>2019-10-08T12:05:24.000Z</Time>
            <Position>
              <LatitudeDegrees>39.67916174791753292083740234375</LatitudeDegrees>
              <LongitudeDegrees>-6.47495113313198089599609375</LongitudeDegrees>
            </Position>
            <AltitudeMeters>207.399993896484375</AltitudeMeters>
            <DistanceMeters>NAN</DistanceMeters>
          </Trackpoint>
          <Trackpoint>
            <Time>2019-10-08T12:05:29.000Z</Time>
            <Position>
              <LatitudeDegrees>39.67900693416595458984375</LatitudeDegrees>
              <LongitudeDegrees>-6.47490947507321834564208984375</LongitudeDegrees>
            </Position>
            <AltitudeMeters>208</AltitudeMeters>
            <DistanceMeters>NAN</DistanceMeters>
          </Trackpoint>
          <Trackpoint>
            <Time>2019-10-08T12:05:31.000Z</Time>
            <Position>
              <LatitudeDegrees>39.67893644236028194427490234375</LatitudeDegrees>
              <LongitudeDegrees>-6.47488147951662540435791015625</LongitudeDegrees>
            </Position>
            <AltitudeMeters>208.600006103515625</AltitudeMeters>
            <DistanceMeters>NAN</DistanceMeters>
          </Trackpoint>
          <Trackpoint>
            <Time>2019-10-08T12:05:37.000Z</Time>
            <Position>
              <LatitudeDegrees>39.67874349094927310943603515625</LatitudeDegrees>
              <LongitudeDegrees>-6.47475977428257465362548828125</LongitudeDegrees>
            </Position>
            <AltitudeMeters>209.399993896484375</AltitudeMeters>
            <DistanceMeters>NAN</DistanceMeters>
          </Trackpoint>
          <Trackpoint>
            <Time>2019-10-08T12:05:39.000Z</Time>
            <Position>
              <LatitudeDegrees>39.6786812134087085723876953125</LatitudeDegrees>
              <LongitudeDegrees>-6.47471635602414608001708984375</LongitudeDegrees>
            </Position>
            <AltitudeMeters>209.600006103515625</AltitudeMeters>
            <DistanceMeters>NAN</DistanceMeters>
          </Trackpoint>
          <Trackpoint>
            <Time>2019-10-08T12:05:46.000Z</Time>
            <Position>
              <LatitudeDegrees>39.67846672050654888153076171875</LatitudeDegrees>
              <LongitudeDegrees>-6.47456891834735870361328125</LongitudeDegrees>
            </Position>
            <AltitudeMeters>210.600006103515625</AltitudeMeters>
            <DistanceMeters>NAN</DistanceMeters>
          </Trackpoint>
          <Trackpoint>
            <Time>2019-10-08T12:05:48.000Z</Time>
            <Position>
              <LatitudeDegrees>39.67840704135596752166748046875</LatitudeDegrees>
              <LongitudeDegrees>-6.47452642209827899932861328125</LongitudeDegrees>
            </Position>
            <AltitudeMeters>210.600006103515625</AltitudeMeters>
            <DistanceMeters>NAN</DistanceMeters>
          </Trackpoint>
          <Trackpoint>
            <Time>2019-10-08T12:05:53.000Z</Time>
            <Position>
              <LatitudeDegrees>39.6782584302127361297607421875</LatitudeDegrees>
              <LongitudeDegrees>-6.4744125120341777801513671875</LongitudeDegrees>
            </Position>
            <AltitudeMeters>211.8000030517578125</AltitudeMeters>
            <DistanceMeters>NAN</DistanceMeters>
          </Trackpoint>
          <Trackpoint>
            <Time>2019-10-08T12:05:59.000Z</Time>
            <Position>
              <LatitudeDegrees>39.67807394452393054962158203125</LatitudeDegrees>
              <LongitudeDegrees>-6.47427345626056194305419921875</LongitudeDegrees>
            </Position>
            <AltitudeMeters>212.8000030517578125</AltitudeMeters>
            <DistanceMeters>NAN</DistanceMeters>
          </Trackpoint>
          <Trackpoint>
            <Time>2019-10-08T12:06:00.000Z</Time>
            <Position>
              <LatitudeDegrees>39.6780411712825298309326171875</LatitudeDegrees>
              <LongitudeDegrees>-6.47425166331231594085693359375</LongitudeDegrees>
            </Position>
            <AltitudeMeters>213</AltitudeMeters>
            <DistanceMeters>NAN</DistanceMeters>
          </Trackpoint>
          <Trackpoint>
            <Time>2019-10-08T12:06:10.000Z</Time>
            <Position>
              <LatitudeDegrees>39.677721820771694183349609375</LatitudeDegrees>
              <LongitudeDegrees>-6.4740336500108242034912109375</LongitudeDegrees>
            </Position>
            <AltitudeMeters>213.8000030517578125</AltitudeMeters>
            <DistanceMeters>NAN</DistanceMeters>
          </Trackpoint>
          <Trackpoint>
            <Time>2019-10-08T12:06:14.000Z</Time>
            <Position>
              <LatitudeDegrees>39.6775867044925689697265625</LatitudeDegrees>
              <LongitudeDegrees>-6.47397120483219623565673828125</LongitudeDegrees>
            </Position>
            <AltitudeMeters>214.399993896484375</AltitudeMeters>
            <DistanceMeters>NAN</DistanceMeters>
          </Trackpoint>
          <Trackpoint>
            <Time>2019-10-08T12:06:20.000Z</Time>
            <Position>
              <LatitudeDegrees>39.67737472616136074066162109375</LatitudeDegrees>
              <LongitudeDegrees>-6.47391471080482006072998046875</LongitudeDegrees>
            </Position>
            <AltitudeMeters>215.600006103515625</AltitudeMeters>
            <DistanceMeters>NAN</DistanceMeters>
          </Trackpoint>
          <Trackpoint>
            <Time>2019-10-08T12:06:29.000Z</Time>
            <Position>
              <LatitudeDegrees>39.67704900540411472320556640625</LatitudeDegrees>
              <LongitudeDegrees>-6.47394589148461818695068359375</LongitudeDegrees>
            </Position>
            <AltitudeMeters>216.399993896484375</AltitudeMeters>
            <DistanceMeters>NAN</DistanceMeters>
          </Trackpoint>
          <Trackpoint>
            <Time>2019-10-08T12:06:31.000Z</Time>
            <Position>
              <LatitudeDegrees>39.67697658576071262359619140625</LatitudeDegrees>
              <LongitudeDegrees>-6.4739602245390415191650390625</LongitudeDegrees>
            </Position>
            <AltitudeMeters>216.8000030517578125</AltitudeMeters>
            <DistanceMeters>NAN</DistanceMeters>
          </Trackpoint>
          <Trackpoint>
            <Time>2019-10-08T12:06:37.000Z</Time>
            <Position>
              <LatitudeDegrees>39.6767684631049633026123046875</LatitudeDegrees>
              <LongitudeDegrees>-6.4740197360515594482421875</LongitudeDegrees>
            </Position>
            <AltitudeMeters>217.8000030517578125</AltitudeMeters>
            <DistanceMeters>NAN</DistanceMeters>
          </Trackpoint>
          <Trackpoint>
            <Time>2019-10-08T12:06:39.000Z</Time>
            <Position>
              <LatitudeDegrees>39.676699899137020111083984375</LatitudeDegrees>
              <LongitudeDegrees>-6.47404496558010578155517578125</LongitudeDegrees>
            </Position>
            <AltitudeMeters>218.1999969482421875</AltitudeMeters>
            <DistanceMeters>NAN</DistanceMeters>
          </Trackpoint>
          <Trackpoint>
            <Time>2019-10-08T12:06:44.000Z</Time>
            <Position>
              <LatitudeDegrees>39.6765267290174961090087890625</LatitudeDegrees>
              <LongitudeDegrees>-6.474101878702640533447265625</LongitudeDegrees>
            </Position>
            <AltitudeMeters>219</AltitudeMeters>
            <DistanceMeters>NAN</DistanceMeters>
          </Trackpoint>
          <Trackpoint>
            <Time>2019-10-08T12:06:50.000Z</Time>
            <Position>
              <LatitudeDegrees>39.6763148345053195953369140625</LatitudeDegrees>
              <LongitudeDegrees>-6.47418058477342128753662109375</LongitudeDegrees>
            </Position>
            <AltitudeMeters>220</AltitudeMeters>
            <DistanceMeters>NAN</DistanceMeters>
          </Trackpoint>
          <Trackpoint>
            <Time>2019-10-08T12:06:51.000Z</Time>
            <Position>
              <LatitudeDegrees>39.6762796305119991302490234375</LatitudeDegrees>
              <LongitudeDegrees>-6.4741912297904491424560546875</LongitudeDegrees>
            </Position>
            <AltitudeMeters>220.600006103515625</AltitudeMeters>
            <DistanceMeters>NAN</DistanceMeters>
          </Trackpoint>
          <Trackpoint>
            <Time>2019-10-08T12:06:59.000Z</Time>
            <Position>
              <LatitudeDegrees>39.67600059695541858673095703125</LatitudeDegrees>
              <LongitudeDegrees>-6.4742539264261722564697265625</LongitudeDegrees>
            </Position>
            <AltitudeMeters>221.600006103515625</AltitudeMeters>
            <DistanceMeters>NAN</DistanceMeters>
          </Trackpoint>
          <Trackpoint>
            <Time>2019-10-08T12:07:01.000Z</Time>
            <Position>
              <LatitudeDegrees>39.6759296022355556488037109375</LatitudeDegrees>
              <LongitudeDegrees>-6.4742592908442020416259765625</LongitudeDegrees>
            </Position>
            <AltitudeMeters>221.8000030517578125</AltitudeMeters>
            <DistanceMeters>NAN</DistanceMeters>
          </Trackpoint>
          <Trackpoint>
            <Time>2019-10-08T12:07:07.000Z</Time>
            <Position>
              <LatitudeDegrees>39.67571427114307880401611328125</LatitudeDegrees>
              <LongitudeDegrees>-6.4742338098585605621337890625</LongitudeDegrees>
            </Position>
            <AltitudeMeters>222.399993896484375</AltitudeMeters>
            <DistanceMeters>NAN</DistanceMeters>
          </Trackpoint>
          <Trackpoint>
            <Time>2019-10-08T12:07:09.000Z</Time>
            <Position>
              <LatitudeDegrees>39.67564277350902557373046875</LatitudeDegrees>
              <LongitudeDegrees>-6.47421662695705890655517578125</LongitudeDegrees>
            </Position>
            <AltitudeMeters>222.8000030517578125</AltitudeMeters>
            <DistanceMeters>NAN</DistanceMeters>
          </Trackpoint>
          <Trackpoint>
            <Time>2019-10-08T12:07:15.000Z</Time>
            <Position>
              <LatitudeDegrees>39.6754384227097034454345703125</LatitudeDegrees>
              <LongitudeDegrees>-6.474124006927013397216796875</LongitudeDegrees>
            </Position>
            <AltitudeMeters>223.8000030517578125</AltitudeMeters>
            <DistanceMeters>NAN</DistanceMeters>
          </Trackpoint>
          <Trackpoint>
            <Time>2019-10-08T12:07:16.000Z</Time>
            <Position>
              <LatitudeDegrees>39.67540715821087360382080078125</LatitudeDegrees>
              <LongitudeDegrees>-6.47410347126424312591552734375</LongitudeDegrees>
            </Position>
            <AltitudeMeters>224.1999969482421875</AltitudeMeters>
            <DistanceMeters>NAN</DistanceMeters>
          </Trackpoint>
          <Trackpoint>
            <Time>2019-10-08T12:07:19.000Z</Time>
            <Position>
              <LatitudeDegrees>39.67531110160052776336669921875</LatitudeDegrees>
              <LongitudeDegrees>-6.474033482372760772705078125</LongitudeDegrees>
            </Position>
            <AltitudeMeters>224.8000030517578125</AltitudeMeters>
            <DistanceMeters>NAN</DistanceMeters>
          </Trackpoint>
          <Trackpoint>
            <Time>2019-10-08T12:07:24.000Z</Time>
            <Position>
              <LatitudeDegrees>39.67516659758985042572021484375</LatitudeDegrees>
              <LongitudeDegrees>-6.47388654761016368865966796875</LongitudeDegrees>
            </Position>
            <AltitudeMeters>225</AltitudeMeters>
            <DistanceMeters>NAN</DistanceMeters>
          </Trackpoint>
          <Trackpoint>
            <Time>2019-10-08T12:07:32.000Z</Time>
            <Position>
              <LatitudeDegrees>39.67497624456882476806640625</LatitudeDegrees>
              <LongitudeDegrees>-6.473587565124034881591796875</LongitudeDegrees>
            </Position>
            <AltitudeMeters>225.8000030517578125</AltitudeMeters>
            <DistanceMeters>NAN</DistanceMeters>
          </Trackpoint>
          <Trackpoint>
            <Time>2019-10-08T12:07:33.000Z</Time>
            <Position>
              <LatitudeDegrees>39.67495570890605449676513671875</LatitudeDegrees>
              <LongitudeDegrees>-6.4735485054552555084228515625</LongitudeDegrees>
            </Position>
            <AltitudeMeters>226</AltitudeMeters>
            <DistanceMeters>NAN</DistanceMeters>
          </Trackpoint>
          <Trackpoint>
            <Time>2019-10-08T12:07:40.000Z</Time>
            <Position>
              <LatitudeDegrees>39.67482126317918300628662109375</LatitudeDegrees>
              <LongitudeDegrees>-6.473254300653934478759765625</LongitudeDegrees>
            </Position>
            <AltitudeMeters>227.1999969482421875</AltitudeMeters>
            <DistanceMeters>NAN</DistanceMeters>
          </Trackpoint>
          <Trackpoint>
            <Time>2019-10-08T12:07:42.000Z</Time>
            <Position>
              <LatitudeDegrees>39.67478237114846706390380859375</LatitudeDegrees>
              <LongitudeDegrees>-6.47317358292639255523681640625</LongitudeDegrees>
            </Position>
            <AltitudeMeters>227.1999969482421875</AltitudeMeters>
            <DistanceMeters>NAN</DistanceMeters>
          </Trackpoint>
          <Trackpoint>
            <Time>2019-10-08T12:07:52.000Z</Time>
            <Position>
              <LatitudeDegrees>39.6745995618402957916259765625</LatitudeDegrees>
              <LongitudeDegrees>-6.4727565832436084747314453125</LongitudeDegrees>
            </Position>
            <AltitudeMeters>228.1999969482421875</AltitudeMeters>
            <DistanceMeters>NAN</DistanceMeters>
          </Trackpoint>
          <Trackpoint>
            <Time>2019-10-08T12:08:00.000Z</Time>
            <Position>
              <LatitudeDegrees>39.67442572116851806640625</LatitudeDegrees>
              <LongitudeDegrees>-6.4724399149417877197265625</LongitudeDegrees>
            </Position>
            <AltitudeMeters>229.399993896484375</AltitudeMeters>
            <DistanceMeters>NAN</DistanceMeters>
          </Trackpoint>
          <Trackpoint>
            <Time>2019-10-08T12:08:02.000Z</Time>
            <Position>
              <LatitudeDegrees>39.67437400482594966888427734375</LatitudeDegrees>
              <LongitudeDegrees>-6.47236883640289306640625</LongitudeDegrees>
            </Position>
            <AltitudeMeters>229.399993896484375</AltitudeMeters>
            <DistanceMeters>NAN</DistanceMeters>
          </Trackpoint>
          <Trackpoint>
            <Time>2019-10-08T12:08:07.000Z</Time>
            <Position>
              <LatitudeDegrees>39.6742341108620166778564453125</LatitudeDegrees>
              <LongitudeDegrees>-6.47219541482627391815185546875</LongitudeDegrees>
            </Position>
            <AltitudeMeters>230.399993896484375</AltitudeMeters>
            <DistanceMeters>NAN</DistanceMeters>
          </Trackpoint>
          <Trackpoint>
            <Time>2019-10-08T12:08:12.000Z</Time>
            <Position>
              <LatitudeDegrees>39.6740782074630260467529296875</LatitudeDegrees>
              <LongitudeDegrees>-6.4720394276082515716552734375</LongitudeDegrees>
            </Position>
            <AltitudeMeters>230.8000030517578125</AltitudeMeters>
            <DistanceMeters>NAN</DistanceMeters>
          </Trackpoint>
          <Trackpoint>
            <Time>2019-10-08T12:08:19.000Z</Time>
            <Position>
              <LatitudeDegrees>39.67384074814617633819580078125</LatitudeDegrees>
              <LongitudeDegrees>-6.47185913287103176116943359375</LongitudeDegrees>
            </Position>
            <AltitudeMeters>231.600006103515625</AltitudeMeters>
            <DistanceMeters>NAN</DistanceMeters>
          </Trackpoint>
          <Trackpoint>
            <Time>2019-10-08T12:08:23.000Z</Time>
            <Position>
              <LatitudeDegrees>39.67370362021028995513916015625</LatitudeDegrees>
              <LongitudeDegrees>-6.4717621542513370513916015625</LongitudeDegrees>
            </Position>
            <AltitudeMeters>232</AltitudeMeters>
            <DistanceMeters>NAN</DistanceMeters>
          </Trackpoint>
          <Trackpoint>
            <Time>2019-10-08T12:08:29.000Z</Time>
            <Position>
              <LatitudeDegrees>39.67350211925804615020751953125</LatitudeDegrees>
              <LongitudeDegrees>-6.471624188125133514404296875</LongitudeDegrees>
            </Position>
            <AltitudeMeters>232.8000030517578125</AltitudeMeters>
            <DistanceMeters>NAN</DistanceMeters>
          </Trackpoint>
          <Trackpoint>
            <Time>2019-10-08T12:08:33.000Z</Time>
            <Position>
              <LatitudeDegrees>39.6733660809695720672607421875</LatitudeDegrees>
              <LongitudeDegrees>-6.47152486257255077362060546875</LongitudeDegrees>
            </Position>
            <AltitudeMeters>233</AltitudeMeters>
            <DistanceMeters>NAN</DistanceMeters>
          </Trackpoint>
          <Trackpoint>
            <Time>2019-10-08T12:08:38.000Z</Time>
            <Position>
              <LatitudeDegrees>39.67319525778293609619140625</LatitudeDegrees>
              <LongitudeDegrees>-6.47141271270811557769775390625</LongitudeDegrees>
            </Position>
            <AltitudeMeters>233.8000030517578125</AltitudeMeters>
            <DistanceMeters>NAN</DistanceMeters>
          </Trackpoint>
          <Trackpoint>
            <Time>2019-10-08T12:08:47.000Z</Time>
            <Position>
              <LatitudeDegrees>39.67289342544972896575927734375</LatitudeDegrees>
              <LongitudeDegrees>-6.4712029136717319488525390625</LongitudeDegrees>
            </Position>
            <AltitudeMeters>233.8000030517578125</AltitudeMeters>
            <DistanceMeters>NAN</DistanceMeters>
          </Trackpoint>
          <Trackpoint>
            <Time>2019-10-08T12:08:56.000Z</Time>
            <Position>
              <LatitudeDegrees>39.67259134165942668914794921875</LatitudeDegrees>
              <LongitudeDegrees>-6.470996551215648651123046875</LongitudeDegrees>
            </Position>
            <AltitudeMeters>235</AltitudeMeters>
            <DistanceMeters>NAN</DistanceMeters>
          </Trackpoint>
          <Trackpoint>
            <Time>2019-10-08T12:09:05.000Z</Time>
            <Position>
              <LatitudeDegrees>39.6722472645342350006103515625</LatitudeDegrees>
              <LongitudeDegrees>-6.47076043300330638885498046875</LongitudeDegrees>
            </Position>
            <AltitudeMeters>234.8000030517578125</AltitudeMeters>
            <DistanceMeters>NAN</DistanceMeters>
          </Trackpoint>
          <Trackpoint>
            <Time>2019-10-08T12:09:10.000Z</Time>
            <Position>
              <LatitudeDegrees>39.67198918573558330535888671875</LatitudeDegrees>
              <LongitudeDegrees>-6.4706275798380374908447265625</LongitudeDegrees>
            </Position>
            <AltitudeMeters>233.8000030517578125</AltitudeMeters>
            <DistanceMeters>NAN</DistanceMeters>
          </Trackpoint>
          <Trackpoint>
            <Time>2019-10-08T12:09:11.000Z</Time>
            <Position>
              <LatitudeDegrees>39.67193126678466796875</LatitudeDegrees>
              <LongitudeDegrees>-6.470604948699474334716796875</LongitudeDegrees>
            </Position>
            <AltitudeMeters>233.399993896484375</AltitudeMeters>
            <DistanceMeters>NAN</DistanceMeters>
          </Trackpoint>
          <Trackpoint>
            <Time>2019-10-08T12:09:15.000Z</Time>
            <Position>
              <LatitudeDegrees>39.6716756187379360198974609375</LatitudeDegrees>
              <LongitudeDegrees>-6.47057033143937587738037109375</LongitudeDegrees>
            </Position>
            <AltitudeMeters>233.399993896484375</AltitudeMeters>
            <DistanceMeters>NAN</DistanceMeters>
          </Trackpoint>
          <Trackpoint>
            <Time>2019-10-08T12:09:16.000Z</Time>
            <Position>
              <LatitudeDegrees>39.671606719493865966796875</LatitudeDegrees>
              <LongitudeDegrees>-6.4705769531428813934326171875</LongitudeDegrees>
            </Position>
            <AltitudeMeters>233</AltitudeMeters>
            <DistanceMeters>NAN</DistanceMeters>
          </Trackpoint>
          <Trackpoint>
            <Time>2019-10-08T12:09:17.000Z</Time>
            <Position>
              <LatitudeDegrees>39.67154108919203281402587890625</LatitudeDegrees>
              <LongitudeDegrees>-6.470587514340877532958984375</LongitudeDegrees>
            </Position>
            <AltitudeMeters>232.600006103515625</AltitudeMeters>
            <DistanceMeters>NAN</DistanceMeters>
          </Trackpoint>
          <Trackpoint>
            <Time>2019-10-08T12:09:18.000Z</Time>
            <Position>
              <LatitudeDegrees>39.67147571034729480743408203125</LatitudeDegrees>
              <LongitudeDegrees>-6.47061056457459926605224609375</LongitudeDegrees>
            </Position>
            <AltitudeMeters>232.399993896484375</AltitudeMeters>
            <DistanceMeters>NAN</DistanceMeters>
          </Trackpoint>
          <Trackpoint>
            <Time>2019-10-08T12:09:21.000Z</Time>
            <Position>
              <LatitudeDegrees>39.67127957381308078765869140625</LatitudeDegrees>
              <LongitudeDegrees>-6.47069714963436126708984375</LongitudeDegrees>
            </Position>
            <AltitudeMeters>231.8000030517578125</AltitudeMeters>
            <DistanceMeters>NAN</DistanceMeters>
          </Trackpoint>
          <Trackpoint>
            <Time>2019-10-08T12:09:22.000Z</Time>
            <Position>
              <LatitudeDegrees>39.67121712863445281982421875</LatitudeDegrees>
              <LongitudeDegrees>-6.4707367122173309326171875</LongitudeDegrees>
            </Position>
            <AltitudeMeters>231.1999969482421875</AltitudeMeters>
            <DistanceMeters>NAN</DistanceMeters>
          </Trackpoint>
          <Trackpoint>
            <Time>2019-10-08T12:09:24.000Z</Time>
            <Position>
              <LatitudeDegrees>39.671097435057163238525390625</LatitudeDegrees>
              <LongitudeDegrees>-6.4708320982754230499267578125</LongitudeDegrees>
            </Position>
            <AltitudeMeters>231</AltitudeMeters>
            <DistanceMeters>NAN</DistanceMeters>
          </Trackpoint>
          <Trackpoint>
            <Time>2019-10-08T12:09:26.000Z</Time>
            <Position>
              <LatitudeDegrees>39.67098872177302837371826171875</LatitudeDegrees>
              <LongitudeDegrees>-6.4709524624049663543701171875</LongitudeDegrees>
            </Position>
            <AltitudeMeters>230.8000030517578125</AltitudeMeters>
            <DistanceMeters>NAN</DistanceMeters>
          </Trackpoint>
          <Trackpoint>
            <Time>2019-10-08T12:09:31.000Z</Time>
            <Position>
              <LatitudeDegrees>39.67076207511126995086669921875</LatitudeDegrees>
              <LongitudeDegrees>-6.4713216014206409454345703125</LongitudeDegrees>
            </Position>
            <AltitudeMeters>230.1999969482421875</AltitudeMeters>
            <DistanceMeters>NAN</DistanceMeters>
          </Trackpoint>
          <Trackpoint>
            <Time>2019-10-08T12:09:32.000Z</Time>
            <Position>
              <LatitudeDegrees>39.67072703875601291656494140625</LatitudeDegrees>
              <LongitudeDegrees>-6.4714037440717220306396484375</LongitudeDegrees>
            </Position>
            <AltitudeMeters>230</AltitudeMeters>
            <DistanceMeters>NAN</DistanceMeters>
          </Trackpoint>
          <Trackpoint>
            <Time>2019-10-08T12:09:37.000Z</Time>
            <Position>
              <LatitudeDegrees>39.6705494262278079986572265625</LatitudeDegrees>
              <LongitudeDegrees>-6.47179325111210346221923828125</LongitudeDegrees>
            </Position>
            <AltitudeMeters>229.399993896484375</AltitudeMeters>
            <DistanceMeters>NAN</DistanceMeters>
          </Trackpoint>
          <Trackpoint>
            <Time>2019-10-08T12:09:41.000Z</Time>
            <Position>
              <LatitudeDegrees>39.67041657306253910064697265625</LatitudeDegrees>
              <LongitudeDegrees>-6.4720749668776988983154296875</LongitudeDegrees>
            </Position>
            <AltitudeMeters>230.399993896484375</AltitudeMeters>
            <DistanceMeters>NAN</DistanceMeters>
          </Trackpoint>
          <Trackpoint>
            <Time>2019-10-08T12:09:44.000Z</Time>
            <Position>
              <LatitudeDegrees>39.67032621614634990692138671875</LatitudeDegrees>
              <LongitudeDegrees>-6.47229172289371490478515625</LongitudeDegrees>
            </Position>
            <AltitudeMeters>230.1999969482421875</AltitudeMeters>
            <DistanceMeters>NAN</DistanceMeters>
          </Trackpoint>
          <Trackpoint>
            <Time>2019-10-08T12:09:49.000Z</Time>
            <Position>
              <LatitudeDegrees>39.6701739169657230377197265625</LatitudeDegrees>
              <LongitudeDegrees>-6.47266077809035778045654296875</LongitudeDegrees>
            </Position>
            <AltitudeMeters>230.600006103515625</AltitudeMeters>
            <DistanceMeters>NAN</DistanceMeters>
          </Trackpoint>
          <Trackpoint>
            <Time>2019-10-08T12:09:53.000Z</Time>
            <Position>
              <LatitudeDegrees>39.67004391364753246307373046875</LatitudeDegrees>
              <LongitudeDegrees>-6.4729178510606288909912109375</LongitudeDegrees>
            </Position>
            <AltitudeMeters>231.1999969482421875</AltitudeMeters>
            <DistanceMeters>NAN</DistanceMeters>
          </Trackpoint>
          <Trackpoint>
            <Time>2019-10-08T12:09:58.000Z</Time>
            <Position>
              <LatitudeDegrees>39.6698832325637340545654296875</LatitudeDegrees>
              <LongitudeDegrees>-6.47317492403090000152587890625</LongitudeDegrees>
            </Position>
            <AltitudeMeters>232.399993896484375</AltitudeMeters>
            <DistanceMeters>NAN</DistanceMeters>
          </Trackpoint>
          <Trackpoint>
            <Time>2019-10-08T12:10:02.000Z</Time>
            <Position>
              <LatitudeDegrees>39.66975130140781402587890625</LatitudeDegrees>
              <LongitudeDegrees>-6.47334717214107513427734375</LongitudeDegrees>
            </Position>
            <AltitudeMeters>232.8000030517578125</AltitudeMeters>
            <DistanceMeters>NAN</DistanceMeters>
          </Trackpoint>
          <Trackpoint>
            <Time>2019-10-08T12:10:03.000Z</Time>
            <Position>
              <LatitudeDegrees>39.66971869580447673797607421875</LatitudeDegrees>
              <LongitudeDegrees>-6.4733885787427425384521484375</LongitudeDegrees>
            </Position>
            <AltitudeMeters>233.399993896484375</AltitudeMeters>
            <DistanceMeters>NAN</DistanceMeters>
          </Trackpoint>
          <Trackpoint>
            <Time>2019-10-08T12:10:07.000Z</Time>
            <Position>
              <LatitudeDegrees>39.66959464363753795623779296875</LatitudeDegrees>
              <LongitudeDegrees>-6.4735535345971584320068359375</LongitudeDegrees>
            </Position>
            <AltitudeMeters>233.600006103515625</AltitudeMeters>
            <DistanceMeters>NAN</DistanceMeters>
          </Trackpoint>
          <Trackpoint>
            <Time>2019-10-08T12:10:10.000Z</Time>
            <Position>
              <LatitudeDegrees>39.66950160451233386993408203125</LatitudeDegrees>
              <LongitudeDegrees>-6.47366761229932308197021484375</LongitudeDegrees>
            </Position>
            <AltitudeMeters>234.399993896484375</AltitudeMeters>
            <DistanceMeters>NAN</DistanceMeters>
          </Trackpoint>
          <Trackpoint>
            <Time>2019-10-08T12:10:12.000Z</Time>
            <Position>
              <LatitudeDegrees>39.66943941079080104827880859375</LatitudeDegrees>
              <LongitudeDegrees>-6.47374774329364299774169921875</LongitudeDegrees>
            </Position>
            <AltitudeMeters>234.8000030517578125</AltitudeMeters>
            <DistanceMeters>NAN</DistanceMeters>
          </Trackpoint>
          <Trackpoint>
            <Time>2019-10-08T12:10:17.000Z</Time>
            <Position>
              <LatitudeDegrees>39.66928987763822078704833984375</LatitudeDegrees>
              <LongitudeDegrees>-6.4739461429417133331298828125</LongitudeDegrees>
            </Position>
            <AltitudeMeters>235.399993896484375</AltitudeMeters>
            <DistanceMeters>NAN</DistanceMeters>
          </Trackpoint>
          <Trackpoint>
            <Time>2019-10-08T12:10:22.000Z</Time>
            <Position>
              <LatitudeDegrees>39.669139087200164794921875</LatitudeDegrees>
              <LongitudeDegrees>-6.47414571605622768402099609375</LongitudeDegrees>
            </Position>
            <AltitudeMeters>236.399993896484375</AltitudeMeters>
            <DistanceMeters>NAN</DistanceMeters>
          </Trackpoint>
          <Trackpoint>
            <Time>2019-10-08T12:10:23.000Z</Time>
            <Position>
              <LatitudeDegrees>39.66911084018647670745849609375</LatitudeDegrees>
              <LongitudeDegrees>-6.47418075241148471832275390625</LongitudeDegrees>
            </Position>
            <AltitudeMeters>236.600006103515625</AltitudeMeters>
            <DistanceMeters>NAN</DistanceMeters>
          </Trackpoint>
          <Trackpoint>
            <Time>2019-10-08T12:10:25.000Z</Time>
            <Position>
              <LatitudeDegrees>39.6690470539033412933349609375</LatitudeDegrees>
              <LongitudeDegrees>-6.4742579497396945953369140625</LongitudeDegrees>
            </Position>
            <AltitudeMeters>237</AltitudeMeters>
            <DistanceMeters>NAN</DistanceMeters>
          </Trackpoint>
          <Trackpoint>
            <Time>2019-10-08T12:10:28.000Z</Time>
            <Position>
              <LatitudeDegrees>39.66895862482488155364990234375</LatitudeDegrees>
              <LongitudeDegrees>-6.47437336854636669158935546875</LongitudeDegrees>
            </Position>
            <AltitudeMeters>237.600006103515625</AltitudeMeters>
            <DistanceMeters>NAN</DistanceMeters>
          </Trackpoint>
          <Trackpoint>
            <Time>2019-10-08T12:10:30.000Z</Time>
            <Position>
              <LatitudeDegrees>39.6689022146165370941162109375</LatitudeDegrees>
              <LongitudeDegrees>-6.47444847039878368377685546875</LongitudeDegrees>
            </Position>
            <AltitudeMeters>238</AltitudeMeters>
            <DistanceMeters>NAN</DistanceMeters>
          </Trackpoint>
          <Trackpoint>
            <Time>2019-10-08T12:10:34.000Z</Time>
            <Position>
              <LatitudeDegrees>39.668785370886325836181640625</LatitudeDegrees>
              <LongitudeDegrees>-6.47459750063717365264892578125</LongitudeDegrees>
            </Position>
            <AltitudeMeters>238.600006103515625</AltitudeMeters>
            <DistanceMeters>NAN</DistanceMeters>
          </Trackpoint>
          <Trackpoint>
            <Time>2019-10-08T12:10:39.000Z</Time>
            <Position>
              <LatitudeDegrees>39.6686495840549468994140625</LatitudeDegrees>
              <LongitudeDegrees>-6.474774777889251708984375</LongitudeDegrees>
            </Position>
            <AltitudeMeters>239.1999969482421875</AltitudeMeters>
            <DistanceMeters>NAN</DistanceMeters>
          </Trackpoint>
          <Trackpoint>
            <Time>2019-10-08T12:10:43.000Z</Time>
            <Position>
              <LatitudeDegrees>39.66854631900787353515625</LatitudeDegrees>
              <LongitudeDegrees>-6.4749110676348209381103515625</LongitudeDegrees>
            </Position>
            <AltitudeMeters>239.600006103515625</AltitudeMeters>
            <DistanceMeters>NAN</DistanceMeters>
          </Trackpoint>
          <Trackpoint>
            <Time>2019-10-08T12:10:48.000Z</Time>
            <Position>
              <LatitudeDegrees>39.6684143878519535064697265625</LatitudeDegrees>
              <LongitudeDegrees>-6.4750840701162815093994140625</LongitudeDegrees>
            </Position>
            <AltitudeMeters>240.8000030517578125</AltitudeMeters>
            <DistanceMeters>NAN</DistanceMeters>
          </Trackpoint>
          <Trackpoint>
            <Time>2019-10-08T12:10:55.000Z</Time>
            <Position>
              <LatitudeDegrees>39.6682256273925304412841796875</LatitudeDegrees>
              <LongitudeDegrees>-6.47532488219439983367919921875</LongitudeDegrees>
            </Position>
            <AltitudeMeters>241.8000030517578125</AltitudeMeters>
            <DistanceMeters>NAN</DistanceMeters>
          </Trackpoint>
          <Trackpoint>
            <Time>2019-10-08T12:10:58.000Z</Time>
            <Position>
              <LatitudeDegrees>39.66814742423593997955322265625</LatitudeDegrees>
              <LongitudeDegrees>-6.475428231060504913330078125</LongitudeDegrees>
            </Position>
            <AltitudeMeters>241.600006103515625</AltitudeMeters>
            <DistanceMeters>NAN</DistanceMeters>
          </Trackpoint>
          <Trackpoint>
            <Time>2019-10-08T12:11:07.000Z</Time>
            <Position>
              <LatitudeDegrees>39.66790284030139446258544921875</LatitudeDegrees>
              <LongitudeDegrees>-6.47574364207684993743896484375</LongitudeDegrees>
            </Position>
            <AltitudeMeters>242.8000030517578125</AltitudeMeters>
            <DistanceMeters>NAN</DistanceMeters>
          </Trackpoint>
          <Trackpoint>
            <Time>2019-10-08T12:11:11.000Z</Time>
            <Position>
              <LatitudeDegrees>39.66779337264597415924072265625</LatitudeDegrees>
              <LongitudeDegrees>-6.47588378749787807464599609375</LongitudeDegrees>
            </Position>
            <AltitudeMeters>243</AltitudeMeters>
            <DistanceMeters>NAN</DistanceMeters>
          </Trackpoint>
          <Trackpoint>
            <Time>2019-10-08T12:11:19.000Z</Time>
            <Position>
              <LatitudeDegrees>39.66756991110742092132568359375</LatitudeDegrees>
              <LongitudeDegrees>-6.47616307251155376434326171875</LongitudeDegrees>
            </Position>
            <AltitudeMeters>244</AltitudeMeters>
            <DistanceMeters>NAN</DistanceMeters>
          </Trackpoint>
          <Trackpoint>
            <Time>2019-10-08T12:11:23.000Z</Time>
            <Position>
              <LatitudeDegrees>39.667457677423954010009765625</LatitudeDegrees>
              <LongitudeDegrees>-6.4763103425502777099609375</LongitudeDegrees>
            </Position>
            <AltitudeMeters>244.1999969482421875</AltitudeMeters>
            <DistanceMeters>NAN</DistanceMeters>
          </Trackpoint>
          <Trackpoint>
            <Time>2019-10-08T12:11:26.000Z</Time>
            <Position>
              <LatitudeDegrees>39.66737494803965091705322265625</LatitudeDegrees>
              <LongitudeDegrees>-6.476423330605030059814453125</LongitudeDegrees>
            </Position>
            <AltitudeMeters>245</AltitudeMeters>
            <DistanceMeters>NAN</DistanceMeters>
          </Trackpoint>
          <Trackpoint>
            <Time>2019-10-08T12:11:36.000Z</Time>
            <Position>
              <LatitudeDegrees>39.6671046316623687744140625</LatitudeDegrees>
              <LongitudeDegrees>-6.4768040366470813751220703125</LongitudeDegrees>
            </Position>
            <AltitudeMeters>245.1999969482421875</AltitudeMeters>
            <DistanceMeters>NAN</DistanceMeters>
          </Trackpoint>
          <Trackpoint>
            <Time>2019-10-08T12:11:43.000Z</Time>
            <Position>
              <LatitudeDegrees>39.666927941143512725830078125</LatitudeDegrees>
              <LongitudeDegrees>-6.47708340547978878021240234375</LongitudeDegrees>
            </Position>
            <AltitudeMeters>246</AltitudeMeters>
            <DistanceMeters>NAN</DistanceMeters>
          </Trackpoint>
          <Trackpoint>
            <Time>2019-10-08T12:11:46.000Z</Time>
            <Position>
              <LatitudeDegrees>39.666858203709125518798828125</LatitudeDegrees>
              <LongitudeDegrees>-6.47720209322869777679443359375</LongitudeDegrees>
            </Position>
            <AltitudeMeters>246</AltitudeMeters>
            <DistanceMeters>NAN</DistanceMeters>
          </Trackpoint>
          <Trackpoint>
            <Time>2019-10-08T12:11:54.000Z</Time>
            <Position>
              <LatitudeDegrees>39.66669215820729732513427734375</LatitudeDegrees>
              <LongitudeDegrees>-6.477556563913822174072265625</LongitudeDegrees>
            </Position>
            <AltitudeMeters>247.1999969482421875</AltitudeMeters>
            <DistanceMeters>NAN</DistanceMeters>
          </Trackpoint>
          <Trackpoint>
            <Time>2019-10-08T12:11:55.000Z</Time>
            <Position>
              <LatitudeDegrees>39.6666726283729076385498046875</LatitudeDegrees>
              <LongitudeDegrees>-6.4776009880006313323974609375</LongitudeDegrees>
            </Position>
            <AltitudeMeters>247</AltitudeMeters>
            <DistanceMeters>NAN</DistanceMeters>
          </Trackpoint>
          <Trackpoint>
            <Time>2019-10-08T12:12:06.000Z</Time>
            <Position>
              <LatitudeDegrees>39.66646953485906124114990234375</LatitudeDegrees>
              <LongitudeDegrees>-6.47811253555119037628173828125</LongitudeDegrees>
            </Position>
            <AltitudeMeters>247.600006103515625</AltitudeMeters>
            <DistanceMeters>NAN</DistanceMeters>
          </Trackpoint>
          <Trackpoint>
            <Time>2019-10-08T12:12:08.000Z</Time>
            <Position>
              <LatitudeDegrees>39.6664322353899478912353515625</LatitudeDegrees>
              <LongitudeDegrees>-6.4782044850289821624755859375</LongitudeDegrees>
            </Position>
            <AltitudeMeters>248.399993896484375</AltitudeMeters>
            <DistanceMeters>NAN</DistanceMeters>
          </Trackpoint>
          <Trackpoint>
            <Time>2019-10-08T12:12:16.000Z</Time>
            <Position>
              <LatitudeDegrees>39.66628991067409515380859375</LatitudeDegrees>
              <LongitudeDegrees>-6.47858980111777782440185546875</LongitudeDegrees>
            </Position>
            <AltitudeMeters>248.8000030517578125</AltitudeMeters>
            <DistanceMeters>NAN</DistanceMeters>
          </Trackpoint>
          <Trackpoint>
            <Time>2019-10-08T12:12:19.000Z</Time>
            <Position>
              <LatitudeDegrees>39.6662387810647487640380859375</LatitudeDegrees>
              <LongitudeDegrees>-6.47873547859489917755126953125</LongitudeDegrees>
            </Position>
            <AltitudeMeters>249.399993896484375</AltitudeMeters>
            <DistanceMeters>NAN</DistanceMeters>
          </Trackpoint>
          <Trackpoint>
            <Time>2019-10-08T12:12:24.000Z</Time>
            <Position>
              <LatitudeDegrees>39.6661452390253543853759765625</LatitudeDegrees>
              <LongitudeDegrees>-6.47897872142493724822998046875</LongitudeDegrees>
            </Position>
            <AltitudeMeters>249.600006103515625</AltitudeMeters>
            <DistanceMeters>NAN</DistanceMeters>
          </Trackpoint>
          <Trackpoint>
            <Time>2019-10-08T12:12:30.000Z</Time>
            <Position>
              <LatitudeDegrees>39.66603954322636127471923828125</LatitudeDegrees>
              <LongitudeDegrees>-6.4792652986943721771240234375</LongitudeDegrees>
            </Position>
            <AltitudeMeters>250.399993896484375</AltitudeMeters>
            <DistanceMeters>NAN</DistanceMeters>
          </Trackpoint>
          <Trackpoint>
            <Time>2019-10-08T12:12:33.000Z</Time>
            <Position>
              <LatitudeDegrees>39.66598547995090484619140625</LatitudeDegrees>
              <LongitudeDegrees>-6.4794064499437808990478515625</LongitudeDegrees>
            </Position>
            <AltitudeMeters>250.8000030517578125</AltitudeMeters>
            <DistanceMeters>NAN</DistanceMeters>
          </Trackpoint>
          <Trackpoint>
            <Time>2019-10-08T12:12:40.000Z</Time>
            <Position>
              <LatitudeDegrees>39.66586000286042690277099609375</LatitudeDegrees>
              <LongitudeDegrees>-6.47973862476646900177001953125</LongitudeDegrees>
            </Position>
            <AltitudeMeters>251.399993896484375</AltitudeMeters>
            <DistanceMeters>NAN</DistanceMeters>
          </Trackpoint>
          <Trackpoint>
            <Time>2019-10-08T12:12:45.000Z</Time>
            <Position>
              <LatitudeDegrees>39.6657715737819671630859375</LatitudeDegrees>
              <LongitudeDegrees>-6.47997222840785980224609375</LongitudeDegrees>
            </Position>
            <AltitudeMeters>252</AltitudeMeters>
            <DistanceMeters>NAN</DistanceMeters>
          </Trackpoint>
          <Trackpoint>
            <Time>2019-10-08T12:12:53.000Z</Time>
            <Position>
              <LatitudeDegrees>39.665635116398334503173828125</LatitudeDegrees>
              <LongitudeDegrees>-6.48034983314573764801025390625</LongitudeDegrees>
            </Position>
            <AltitudeMeters>252.600006103515625</AltitudeMeters>
            <DistanceMeters>NAN</DistanceMeters>
          </Trackpoint>
          <Trackpoint>
            <Time>2019-10-08T12:12:58.000Z</Time>
            <Position>
              <LatitudeDegrees>39.6655678935348987579345703125</LatitudeDegrees>
              <LongitudeDegrees>-6.48059626109898090362548828125</LongitudeDegrees>
            </Position>
            <AltitudeMeters>252.8000030517578125</AltitudeMeters>
            <DistanceMeters>NAN</DistanceMeters>
          </Trackpoint>
          <Trackpoint>
            <Time>2019-10-08T12:12:59.000Z</Time>
            <Position>
              <LatitudeDegrees>39.66555054299533367156982421875</LatitudeDegrees>
              <LongitudeDegrees>-6.48064319975674152374267578125</LongitudeDegrees>
            </Position>
            <AltitudeMeters>252.8000030517578125</AltitudeMeters>
            <DistanceMeters>NAN</DistanceMeters>
          </Trackpoint>
          <Trackpoint>
            <Time>2019-10-08T12:13:08.000Z</Time>
            <Position>
              <LatitudeDegrees>39.66539279557764530181884765625</LatitudeDegrees>
              <LongitudeDegrees>-6.481068246066570281982421875</LongitudeDegrees>
            </Position>
            <AltitudeMeters>253.8000030517578125</AltitudeMeters>
            <DistanceMeters>NAN</DistanceMeters>
          </Trackpoint>
          <Trackpoint>
            <Time>2019-10-08T12:13:11.000Z</Time>
            <Position>
              <LatitudeDegrees>39.66534309089183807373046875</LatitudeDegrees>
              <LongitudeDegrees>-6.48120109923183917999267578125</LongitudeDegrees>
            </Position>
            <AltitudeMeters>254.600006103515625</AltitudeMeters>
            <DistanceMeters>NAN</DistanceMeters>
          </Trackpoint>
          <Trackpoint>
            <Time>2019-10-08T12:13:13.000Z</Time>
            <Position>
              <LatitudeDegrees>39.66530763544142246246337890625</LatitudeDegrees>
              <LongitudeDegrees>-6.4812933839857578277587890625</LongitudeDegrees>
            </Position>
            <AltitudeMeters>254.8000030517578125</AltitudeMeters>
            <DistanceMeters>NAN</DistanceMeters>
          </Trackpoint>
          <Trackpoint>
            <Time>2019-10-08T12:13:23.000Z</Time>
            <Position>
              <LatitudeDegrees>39.6651332080364227294921875</LatitudeDegrees>
              <LongitudeDegrees>-6.48174407891929149627685546875</LongitudeDegrees>
            </Position>
            <AltitudeMeters>255.8000030517578125</AltitudeMeters>
            <DistanceMeters>NAN</DistanceMeters>
          </Trackpoint>
          <Trackpoint>
            <Time>2019-10-08T12:13:25.000Z</Time>
            <Position>
              <LatitudeDegrees>39.66509708203375339508056640625</LatitudeDegrees>
              <LongitudeDegrees>-6.4818294905126094818115234375</LongitudeDegrees>
            </Position>
            <AltitudeMeters>255.8000030517578125</AltitudeMeters>
            <DistanceMeters>NAN</DistanceMeters>
          </Trackpoint>
          <Trackpoint>
            <Time>2019-10-08T12:13:33.000Z</Time>
            <Position>
              <LatitudeDegrees>39.6649239957332611083984375</LatitudeDegrees>
              <LongitudeDegrees>-6.482156552374362945556640625</LongitudeDegrees>
            </Position>
            <AltitudeMeters>256.79998779296875</AltitudeMeters>
            <DistanceMeters>NAN</DistanceMeters>
          </Trackpoint>
          <Trackpoint>
            <Time>2019-10-08T12:13:34.000Z</Time>
            <Position>
              <LatitudeDegrees>39.6648993529379367828369140625</LatitudeDegrees>
              <LongitudeDegrees>-6.48219720460474491119384765625</LongitudeDegrees>
            </Position>
            <AltitudeMeters>257</AltitudeMeters>
            <DistanceMeters>NAN</DistanceMeters>
          </Trackpoint>
          <Trackpoint>
            <Time>2019-10-08T12:13:43.000Z</Time>
            <Position>
              <LatitudeDegrees>39.664659798145294189453125</LatitudeDegrees>
              <LongitudeDegrees>-6.48253600113093852996826171875</LongitudeDegrees>
            </Position>
            <AltitudeMeters>258.20001220703125</AltitudeMeters>
            <DistanceMeters>NAN</DistanceMeters>
          </Trackpoint>
          <Trackpoint>
            <Time>2019-10-08T12:13:44.000Z</Time>
            <Position>
              <LatitudeDegrees>39.66462962329387664794921875</LatitudeDegrees>
              <LongitudeDegrees>-6.48257371969521045684814453125</LongitudeDegrees>
            </Position>
            <AltitudeMeters>258.399993896484375</AltitudeMeters>
            <DistanceMeters>NAN</DistanceMeters>
          </Trackpoint>
          <Trackpoint>
            <Time>2019-10-08T12:13:53.000Z</Time>
            <Position>
              <LatitudeDegrees>39.6643580496311187744140625</LatitudeDegrees>
              <LongitudeDegrees>-6.48288016207516193389892578125</LongitudeDegrees>
            </Position>
            <AltitudeMeters>258.79998779296875</AltitudeMeters>
            <DistanceMeters>NAN</DistanceMeters>
          </Trackpoint>
          <Trackpoint>
            <Time>2019-10-08T12:13:55.000Z</Time>
            <Position>
              <LatitudeDegrees>39.66429225169122219085693359375</LatitudeDegrees>
              <LongitudeDegrees>-6.4829452894628047943115234375</LongitudeDegrees>
            </Position>
            <AltitudeMeters>259.20001220703125</AltitudeMeters>
            <DistanceMeters>NAN</DistanceMeters>
          </Trackpoint>
          <Trackpoint>
            <Time>2019-10-08T12:14:02.000Z</Time>
            <Position>
              <LatitudeDegrees>39.66405470855534076690673828125</LatitudeDegrees>
              <LongitudeDegrees>-6.48313731886446475982666015625</LongitudeDegrees>
            </Position>
            <AltitudeMeters>259.79998779296875</AltitudeMeters>
            <DistanceMeters>NAN</DistanceMeters>
          </Trackpoint>
          <Trackpoint>
            <Time>2019-10-08T12:14:04.000Z</Time>
            <Position>
              <LatitudeDegrees>39.66398312710225582122802734375</LatitudeDegrees>
              <LongitudeDegrees>-6.483187861740589141845703125</LongitudeDegrees>
            </Position>
            <AltitudeMeters>260.20001220703125</AltitudeMeters>
            <DistanceMeters>NAN</DistanceMeters>
          </Trackpoint>
          <Trackpoint>
            <Time>2019-10-08T12:14:11.000Z</Time>
            <Position>
              <LatitudeDegrees>39.66372831724584102630615234375</LatitudeDegrees>
              <LongitudeDegrees>-6.48334602825343608856201171875</LongitudeDegrees>
            </Position>
            <AltitudeMeters>261</AltitudeMeters>
            <DistanceMeters>NAN</DistanceMeters>
          </Trackpoint>
          <Trackpoint>
            <Time>2019-10-08T12:14:17.000Z</Time>
            <Position>
              <LatitudeDegrees>39.66349965892732143402099609375</LatitudeDegrees>
              <LongitudeDegrees>-6.4834495447576045989990234375</LongitudeDegrees>
            </Position>
            <AltitudeMeters>261.20001220703125</AltitudeMeters>
            <DistanceMeters>NAN</DistanceMeters>
          </Trackpoint>
          <Trackpoint>
            <Time>2019-10-08T12:14:21.000Z</Time>
            <Position>
              <LatitudeDegrees>39.66334216296672821044921875</LatitudeDegrees>
              <LongitudeDegrees>-6.4835052005946636199951171875</LongitudeDegrees>
            </Position>
            <AltitudeMeters>262.20001220703125</AltitudeMeters>
            <DistanceMeters>NAN</DistanceMeters>
          </Trackpoint>
          <Trackpoint>
            <Time>2019-10-08T12:14:26.000Z</Time>
            <Position>
              <LatitudeDegrees>39.66314141638576984405517578125</LatitudeDegrees>
              <LongitudeDegrees>-6.4835601858794689178466796875</LongitudeDegrees>
            </Position>
            <AltitudeMeters>262.399993896484375</AltitudeMeters>
            <DistanceMeters>NAN</DistanceMeters>
          </Trackpoint>
          <Trackpoint>
            <Time>2019-10-08T12:14:31.000Z</Time>
            <Position>
              <LatitudeDegrees>39.66293823905289173126220703125</LatitudeDegrees>
              <LongitudeDegrees>-6.48359396494925022125244140625</LongitudeDegrees>
            </Position>
            <AltitudeMeters>262.600006103515625</AltitudeMeters>
            <DistanceMeters>NAN</DistanceMeters>
          </Trackpoint>
          <Trackpoint>
            <Time>2019-10-08T12:14:38.000Z</Time>
            <Position>
              <LatitudeDegrees>39.6626540087163448333740234375</LatitudeDegrees>
              <LongitudeDegrees>-6.48361408151686191558837890625</LongitudeDegrees>
            </Position>
            <AltitudeMeters>263.399993896484375</AltitudeMeters>
            <DistanceMeters>NAN</DistanceMeters>
          </Trackpoint>
          <Trackpoint>
            <Time>2019-10-08T12:14:42.000Z</Time>
            <Position>
              <LatitudeDegrees>39.6624826826155185699462890625</LatitudeDegrees>
              <LongitudeDegrees>-6.48361458443105220794677734375</LongitudeDegrees>
            </Position>
            <AltitudeMeters>263.79998779296875</AltitudeMeters>
            <DistanceMeters>NAN</DistanceMeters>
          </Trackpoint>
          <Trackpoint>
            <Time>2019-10-08T12:14:45.000Z</Time>
            <Position>
              <LatitudeDegrees>39.6623375080525875091552734375</LatitudeDegrees>
              <LongitudeDegrees>-6.48361466825008392333984375</LongitudeDegrees>
            </Position>
            <AltitudeMeters>263.399993896484375</AltitudeMeters>
            <DistanceMeters>NAN</DistanceMeters>
          </Trackpoint>
          <Trackpoint>
            <Time>2019-10-08T12:14:48.000Z</Time>
            <Position>
              <LatitudeDegrees>39.6621881425380706787109375</LatitudeDegrees>
              <LongitudeDegrees>-6.48361072875559329986572265625</LongitudeDegrees>
            </Position>
            <AltitudeMeters>263</AltitudeMeters>
            <DistanceMeters>NAN</DistanceMeters>
          </Trackpoint>
          <Trackpoint>
            <Time>2019-10-08T12:14:54.000Z</Time>
            <Position>
              <LatitudeDegrees>39.66187298297882080078125</LatitudeDegrees>
              <LongitudeDegrees>-6.48360125720500946044921875</LongitudeDegrees>
            </Position>
            <AltitudeMeters>262.399993896484375</AltitudeMeters>
            <DistanceMeters>NAN</DistanceMeters>
          </Trackpoint>
          <Trackpoint>
            <Time>2019-10-08T12:14:56.000Z</Time>
            <Position>
              <LatitudeDegrees>39.66176158748567104339599609375</LatitudeDegrees>
              <LongitudeDegrees>-6.48359379731118679046630859375</LongitudeDegrees>
            </Position>
            <AltitudeMeters>262.20001220703125</AltitudeMeters>
            <DistanceMeters>NAN</DistanceMeters>
          </Trackpoint>
          <Trackpoint>
            <Time>2019-10-08T12:15:03.000Z</Time>
            <Position>
              <LatitudeDegrees>39.6613880060613155364990234375</LatitudeDegrees>
              <LongitudeDegrees>-6.483580134809017181396484375</LongitudeDegrees>
            </Position>
            <AltitudeMeters>262</AltitudeMeters>
            <DistanceMeters>NAN</DistanceMeters>
          </Trackpoint>
          <Trackpoint>
            <Time>2019-10-08T12:15:08.000Z</Time>
            <Position>
              <LatitudeDegrees>39.66110511682927608489990234375</LatitudeDegrees>
              <LongitudeDegrees>-6.48357217200100421905517578125</LongitudeDegrees>
            </Position>
            <AltitudeMeters>261.399993896484375</AltitudeMeters>
            <DistanceMeters>NAN</DistanceMeters>
          </Trackpoint>
          <Trackpoint>
            <Time>2019-10-08T12:15:11.000Z</Time>
            <Position>
              <LatitudeDegrees>39.6609246544539928436279296875</LatitudeDegrees>
              <LongitudeDegrees>-6.48356504738330841064453125</LongitudeDegrees>
            </Position>
            <AltitudeMeters>261.20001220703125</AltitudeMeters>
            <DistanceMeters>NAN</DistanceMeters>
          </Trackpoint>
          <Trackpoint>
            <Time>2019-10-08T12:15:13.000Z</Time>
            <Position>
              <LatitudeDegrees>39.66079733334481716156005859375</LatitudeDegrees>
              <LongitudeDegrees>-6.48356010206043720245361328125</LongitudeDegrees>
            </Position>
            <AltitudeMeters>261</AltitudeMeters>
            <DistanceMeters>NAN</DistanceMeters>
          </Trackpoint>
          <Trackpoint>
            <Time>2019-10-08T12:15:18.000Z</Time>
            <Position>
              <LatitudeDegrees>39.66047161258757114410400390625</LatitudeDegrees>
              <LongitudeDegrees>-6.483550965785980224609375</LongitudeDegrees>
            </Position>
            <AltitudeMeters>260.79998779296875</AltitudeMeters>
            <DistanceMeters>NAN</DistanceMeters>
          </Trackpoint>
          <Trackpoint>
            <Time>2019-10-08T12:15:19.000Z</Time>
            <Position>
              <LatitudeDegrees>39.660404138267040252685546875</LatitudeDegrees>
              <LongitudeDegrees>-6.48354836739599704742431640625</LongitudeDegrees>
            </Position>
            <AltitudeMeters>260.399993896484375</AltitudeMeters>
            <DistanceMeters>NAN</DistanceMeters>
          </Trackpoint>
          <Trackpoint>
            <Time>2019-10-08T12:15:22.000Z</Time>
            <Position>
              <LatitudeDegrees>39.66019836254417896270751953125</LatitudeDegrees>
              <LongitudeDegrees>-6.48353956639766693115234375</LongitudeDegrees>
            </Position>
            <AltitudeMeters>260</AltitudeMeters>
            <DistanceMeters>NAN</DistanceMeters>
          </Trackpoint>
          <Trackpoint>
            <Time>2019-10-08T12:15:27.000Z</Time>
            <Position>
              <LatitudeDegrees>39.659850262105464935302734375</LatitudeDegrees>
              <LongitudeDegrees>-6.483527831733226776123046875</LongitudeDegrees>
            </Position>
            <AltitudeMeters>259.20001220703125</AltitudeMeters>
            <DistanceMeters>NAN</DistanceMeters>
          </Trackpoint>
          <Trackpoint>
            <Time>2019-10-08T12:15:28.000Z</Time>
            <Position>
              <LatitudeDegrees>39.65978262014687061309814453125</LatitudeDegrees>
              <LongitudeDegrees>-6.4835254848003387451171875</LongitudeDegrees>
            </Position>
            <AltitudeMeters>259</AltitudeMeters>
            <DistanceMeters>NAN</DistanceMeters>
          </Trackpoint>
          <Trackpoint>
            <Time>2019-10-08T12:15:31.000Z</Time>
            <Position>
              <LatitudeDegrees>39.6595801971852779388427734375</LatitudeDegrees>
              <LongitudeDegrees>-6.48351852782070636749267578125</LongitudeDegrees>
            </Position>
            <AltitudeMeters>258.79998779296875</AltitudeMeters>
            <DistanceMeters>NAN</DistanceMeters>
          </Trackpoint>
          <Trackpoint>
            <Time>2019-10-08T12:15:34.000Z</Time>
            <Position>
              <LatitudeDegrees>39.65937651693820953369140625</LatitudeDegrees>
              <LongitudeDegrees>-6.4835098944604396820068359375</LongitudeDegrees>
            </Position>
            <AltitudeMeters>258</AltitudeMeters>
            <DistanceMeters>NAN</DistanceMeters>
          </Trackpoint>
          <Trackpoint>
            <Time>2019-10-08T12:15:38.000Z</Time>
            <Position>
              <LatitudeDegrees>39.6591044403612613677978515625</LatitudeDegrees>
              <LongitudeDegrees>-6.48350059054791927337646484375</LongitudeDegrees>
            </Position>
            <AltitudeMeters>257.399993896484375</AltitudeMeters>
            <DistanceMeters>NAN</DistanceMeters>
          </Trackpoint>
          <Trackpoint>
            <Time>2019-10-08T12:15:42.000Z</Time>
            <Position>
              <LatitudeDegrees>39.65883529745042324066162109375</LatitudeDegrees>
              <LongitudeDegrees>-6.48349204100668430328369140625</LongitudeDegrees>
            </Position>
            <AltitudeMeters>257.399993896484375</AltitudeMeters>
            <DistanceMeters>NAN</DistanceMeters>
          </Trackpoint>
          <Trackpoint>
            <Time>2019-10-08T12:15:44.000Z</Time>
            <Position>
              <LatitudeDegrees>39.65869783423840999603271484375</LatitudeDegrees>
              <LongitudeDegrees>-6.483487598598003387451171875</LongitudeDegrees>
            </Position>
            <AltitudeMeters>257.399993896484375</AltitudeMeters>
            <DistanceMeters>NAN</DistanceMeters>
          </Trackpoint>
          <Trackpoint>
            <Time>2019-10-08T12:15:51.000Z</Time>
            <Position>
              <LatitudeDegrees>39.65820900164544582366943359375</LatitudeDegrees>
              <LongitudeDegrees>-6.4834676496684551239013671875</LongitudeDegrees>
            </Position>
            <AltitudeMeters>257.20001220703125</AltitudeMeters>
            <DistanceMeters>NAN</DistanceMeters>
          </Trackpoint>
          <Trackpoint>
            <Time>2019-10-08T12:15:52.000Z</Time>
            <Position>
              <LatitudeDegrees>39.6581388451159000396728515625</LatitudeDegrees>
              <LongitudeDegrees>-6.483466140925884246826171875</LongitudeDegrees>
            </Position>
            <AltitudeMeters>257</AltitudeMeters>
            <DistanceMeters>NAN</DistanceMeters>
          </Trackpoint>
          <Trackpoint>
            <Time>2019-10-08T12:15:56.000Z</Time>
            <Position>
              <LatitudeDegrees>39.65785495005548000335693359375</LatitudeDegrees>
              <LongitudeDegrees>-6.48345666937530040740966796875</LongitudeDegrees>
            </Position>
            <AltitudeMeters>256.600006103515625</AltitudeMeters>
            <DistanceMeters>NAN</DistanceMeters>
          </Trackpoint>
          <Trackpoint>
            <Time>2019-10-08T12:16:02.000Z</Time>
            <Position>
              <LatitudeDegrees>39.657427556812763214111328125</LatitudeDegrees>
              <LongitudeDegrees>-6.48344191722571849822998046875</LongitudeDegrees>
            </Position>
            <AltitudeMeters>255.8000030517578125</AltitudeMeters>
            <DistanceMeters>NAN</DistanceMeters>
          </Trackpoint>
          <Trackpoint>
            <Time>2019-10-08T12:16:03.000Z</Time>
            <Position>
              <LatitudeDegrees>39.65735555626451969146728515625</LatitudeDegrees>
              <LongitudeDegrees>-6.4834408275783061981201171875</LongitudeDegrees>
            </Position>
            <AltitudeMeters>255.8000030517578125</AltitudeMeters>
            <DistanceMeters>NAN</DistanceMeters>
          </Trackpoint>
          <Trackpoint>
            <Time>2019-10-08T12:16:09.000Z</Time>
            <Position>
              <LatitudeDegrees>39.65692237950861454010009765625</LatitudeDegrees>
              <LongitudeDegrees>-6.48342867381870746612548828125</LongitudeDegrees>
            </Position>
            <AltitudeMeters>254.600006103515625</AltitudeMeters>
            <DistanceMeters>NAN</DistanceMeters>
          </Trackpoint>
          <Trackpoint>
            <Time>2019-10-08T12:16:11.000Z</Time>
            <Position>
              <LatitudeDegrees>39.65677904896438121795654296875</LatitudeDegrees>
              <LongitudeDegrees>-6.4834250696003437042236328125</LongitudeDegrees>
            </Position>
            <AltitudeMeters>254.1999969482421875</AltitudeMeters>
            <DistanceMeters>NAN</DistanceMeters>
          </Trackpoint>
          <Trackpoint>
            <Time>2019-10-08T12:16:14.000Z</Time>
            <Position>
              <LatitudeDegrees>39.65656329877674579620361328125</LatitudeDegrees>
              <LongitudeDegrees>-6.48341677151620388031005859375</LongitudeDegrees>
            </Position>
            <AltitudeMeters>253.8000030517578125</AltitudeMeters>
            <DistanceMeters>NAN</DistanceMeters>
          </Trackpoint>
          <Trackpoint>
            <Time>2019-10-08T12:16:20.000Z</Time>
            <Position>
              <LatitudeDegrees>39.65613347478210926055908203125</LatitudeDegrees>
              <LongitudeDegrees>-6.48340503685176372528076171875</LongitudeDegrees>
            </Position>
            <AltitudeMeters>253.399993896484375</AltitudeMeters>
            <DistanceMeters>NAN</DistanceMeters>
          </Trackpoint>
          <Trackpoint>
            <Time>2019-10-08T12:16:28.000Z</Time>
            <Position>
              <LatitudeDegrees>39.6555672772228717803955078125</LatitudeDegrees>
              <LongitudeDegrees>-6.483383662998676300048828125</LongitudeDegrees>
            </Position>
            <AltitudeMeters>253</AltitudeMeters>
            <DistanceMeters>NAN</DistanceMeters>
          </Trackpoint>
          <Trackpoint>
            <Time>2019-10-08T12:16:31.000Z</Time>
            <Position>
              <LatitudeDegrees>39.65535454452037811279296875</LatitudeDegrees>
              <LongitudeDegrees>-6.48337737657129764556884765625</LongitudeDegrees>
            </Position>
            <AltitudeMeters>252.399993896484375</AltitudeMeters>
            <DistanceMeters>NAN</DistanceMeters>
          </Trackpoint>
          <Trackpoint>
            <Time>2019-10-08T12:16:36.000Z</Time>
            <Position>
              <LatitudeDegrees>39.65500275604426860809326171875</LatitudeDegrees>
              <LongitudeDegrees>-6.483366228640079498291015625</LongitudeDegrees>
            </Position>
            <AltitudeMeters>252</AltitudeMeters>
            <DistanceMeters>NAN</DistanceMeters>
          </Trackpoint>
          <Trackpoint>
            <Time>2019-10-08T12:16:44.000Z</Time>
            <Position>
              <LatitudeDegrees>39.65442943386733531951904296875</LatitudeDegrees>
              <LongitudeDegrees>-6.48331702686846256256103515625</LongitudeDegrees>
            </Position>
            <AltitudeMeters>251.600006103515625</AltitudeMeters>
            <DistanceMeters>NAN</DistanceMeters>
          </Trackpoint>
          <Trackpoint>
            <Time>2019-10-08T12:16:52.000Z</Time>
            <Position>
              <LatitudeDegrees>39.65386969037353992462158203125</LatitudeDegrees>
              <LongitudeDegrees>-6.48324863053858280181884765625</LongitudeDegrees>
            </Position>
            <AltitudeMeters>252.1999969482421875</AltitudeMeters>
            <DistanceMeters>NAN</DistanceMeters>
          </Trackpoint>
          <Trackpoint>
            <Time>2019-10-08T12:16:54.000Z</Time>
            <Position>
              <LatitudeDegrees>39.65373105369508266448974609375</LatitudeDegrees>
              <LongitudeDegrees>-6.4832269214093685150146484375</LongitudeDegrees>
            </Position>
            <AltitudeMeters>252.399993896484375</AltitudeMeters>
            <DistanceMeters>NAN</DistanceMeters>
          </Trackpoint>
          <Trackpoint>
            <Time>2019-10-08T12:17:02.000Z</Time>
            <Position>
              <LatitudeDegrees>39.65318539179861545562744140625</LatitudeDegrees>
              <LongitudeDegrees>-6.4831343851983547210693359375</LongitudeDegrees>
            </Position>
            <AltitudeMeters>251.399993896484375</AltitudeMeters>
            <DistanceMeters>NAN</DistanceMeters>
          </Trackpoint>
          <Trackpoint>
            <Time>2019-10-08T12:17:10.000Z</Time>
            <Position>
              <LatitudeDegrees>39.6526931226253509521484375</LatitudeDegrees>
              <LongitudeDegrees>-6.48302382789552211761474609375</LongitudeDegrees>
            </Position>
            <AltitudeMeters>252.8000030517578125</AltitudeMeters>
            <DistanceMeters>NAN</DistanceMeters>
          </Trackpoint>
          <Trackpoint>
            <Time>2019-10-08T12:17:12.000Z</Time>
            <Position>
              <LatitudeDegrees>39.65258239768445491790771484375</LatitudeDegrees>
              <LongitudeDegrees>-6.48299641907215118408203125</LongitudeDegrees>
            </Position>
            <AltitudeMeters>253</AltitudeMeters>
            <DistanceMeters>NAN</DistanceMeters>
          </Trackpoint>
          <Trackpoint>
            <Time>2019-10-08T12:17:18.000Z</Time>
            <Position>
              <LatitudeDegrees>39.65227126143872737884521484375</LatitudeDegrees>
              <LongitudeDegrees>-6.48291586898267269134521484375</LongitudeDegrees>
            </Position>
            <AltitudeMeters>254</AltitudeMeters>
            <DistanceMeters>NAN</DistanceMeters>
          </Trackpoint>
          <Trackpoint>
            <Time>2019-10-08T12:17:19.000Z</Time>
            <Position>
              <LatitudeDegrees>39.65222331695258617401123046875</LatitudeDegrees>
              <LongitudeDegrees>-6.4829037152230739593505859375</LongitudeDegrees>
            </Position>
            <AltitudeMeters>254.1999969482421875</AltitudeMeters>
            <DistanceMeters>NAN</DistanceMeters>
          </Trackpoint>
          <Trackpoint>
            <Time>2019-10-08T12:17:26.000Z</Time>
            <Position>
              <LatitudeDegrees>39.651904888451099395751953125</LatitudeDegrees>
              <LongitudeDegrees>-6.48281536996364593505859375</LongitudeDegrees>
            </Position>
            <AltitudeMeters>255</AltitudeMeters>
            <DistanceMeters>NAN</DistanceMeters>
          </Trackpoint>
          <Trackpoint>
            <Time>2019-10-08T12:17:28.000Z</Time>
            <Position>
              <LatitudeDegrees>39.65181461535394191741943359375</LatitudeDegrees>
              <LongitudeDegrees>-6.4827934093773365020751953125</LongitudeDegrees>
            </Position>
            <AltitudeMeters>255.399993896484375</AltitudeMeters>
            <DistanceMeters>NAN</DistanceMeters>
          </Trackpoint>
          <Trackpoint>
            <Time>2019-10-08T12:17:37.000Z</Time>
            <Position>
              <LatitudeDegrees>39.6514192409813404083251953125</LatitudeDegrees>
              <LongitudeDegrees>-6.48268804885447025299072265625</LongitudeDegrees>
            </Position>
            <AltitudeMeters>256.20001220703125</AltitudeMeters>
            <DistanceMeters>NAN</DistanceMeters>
          </Trackpoint>
          <Trackpoint>
            <Time>2019-10-08T12:17:40.000Z</Time>
            <Position>
              <LatitudeDegrees>39.65128907002508640289306640625</LatitudeDegrees>
              <LongitudeDegrees>-6.4826532639563083648681640625</LongitudeDegrees>
            </Position>
            <AltitudeMeters>256.399993896484375</AltitudeMeters>
            <DistanceMeters>NAN</DistanceMeters>
          </Trackpoint>
          <Trackpoint>
            <Time>2019-10-08T12:17:46.000Z</Time>
            <Position>
              <LatitudeDegrees>39.65103082358837127685546875</LatitudeDegrees>
              <LongitudeDegrees>-6.48258226923644542694091796875</LongitudeDegrees>
            </Position>
            <AltitudeMeters>256.600006103515625</AltitudeMeters>
            <DistanceMeters>NAN</DistanceMeters>
          </Trackpoint>
          <Trackpoint>
            <Time>2019-10-08T12:17:47.000Z</Time>
            <Position>
              <LatitudeDegrees>39.65098849497735500335693359375</LatitudeDegrees>
              <LongitudeDegrees>-6.4825694449245929718017578125</LongitudeDegrees>
            </Position>
            <AltitudeMeters>257</AltitudeMeters>
            <DistanceMeters>NAN</DistanceMeters>
          </Trackpoint>
          <Trackpoint>
            <Time>2019-10-08T12:17:52.000Z</Time>
            <Position>
              <LatitudeDegrees>39.65077735483646392822265625</LatitudeDegrees>
              <LongitudeDegrees>-6.48251487873494625091552734375</LongitudeDegrees>
            </Position>
            <AltitudeMeters>257.399993896484375</AltitudeMeters>
            <DistanceMeters>NAN</DistanceMeters>
          </Trackpoint>
          <Trackpoint>
            <Time>2019-10-08T12:17:58.000Z</Time>
            <Position>
              <LatitudeDegrees>39.650526903569698333740234375</LatitudeDegrees>
              <LongitudeDegrees>-6.4824463985860347747802734375</LongitudeDegrees>
            </Position>
            <AltitudeMeters>258.399993896484375</AltitudeMeters>
            <DistanceMeters>NAN</DistanceMeters>
          </Trackpoint>
          <Trackpoint>
            <Time>2019-10-08T12:17:59.000Z</Time>
            <Position>
              <LatitudeDegrees>39.65048507787287235260009765625</LatitudeDegrees>
              <LongitudeDegrees>-6.48243474774062633514404296875</LongitudeDegrees>
            </Position>
            <AltitudeMeters>258.79998779296875</AltitudeMeters>
            <DistanceMeters>NAN</DistanceMeters>
          </Trackpoint>
          <Trackpoint>
            <Time>2019-10-08T12:18:08.000Z</Time>
            <Position>
              <LatitudeDegrees>39.6501073054969310760498046875</LatitudeDegrees>
              <LongitudeDegrees>-6.48232896812260150909423828125</LongitudeDegrees>
            </Position>
            <AltitudeMeters>259.399993896484375</AltitudeMeters>
            <DistanceMeters>NAN</DistanceMeters>
          </Trackpoint>
          <Trackpoint>
            <Time>2019-10-08T12:18:09.000Z</Time>
            <Position>
              <LatitudeDegrees>39.65006514452397823333740234375</LatitudeDegrees>
              <LongitudeDegrees>-6.4823183231055736541748046875</LongitudeDegrees>
            </Position>
            <AltitudeMeters>259.600006103515625</AltitudeMeters>
            <DistanceMeters>NAN</DistanceMeters>
          </Trackpoint>
          <Trackpoint>
            <Time>2019-10-08T12:18:11.000Z</Time>
            <Position>
              <LatitudeDegrees>39.64998082257807254791259765625</LatitudeDegrees>
              <LongitudeDegrees>-6.48229560814797878265380859375</LongitudeDegrees>
            </Position>
            <AltitudeMeters>259.79998779296875</AltitudeMeters>
            <DistanceMeters>NAN</DistanceMeters>
          </Trackpoint>
          <Trackpoint>
            <Time>2019-10-08T12:18:17.000Z</Time>
            <Position>
              <LatitudeDegrees>39.6497314609587192535400390625</LatitudeDegrees>
              <LongitudeDegrees>-6.48223341442644596099853515625</LongitudeDegrees>
            </Position>
            <AltitudeMeters>261</AltitudeMeters>
            <DistanceMeters>NAN</DistanceMeters>
          </Trackpoint>
          <Trackpoint>
            <Time>2019-10-08T12:18:20.000Z</Time>
            <Position>
              <LatitudeDegrees>39.64960481040179729461669921875</LatitudeDegrees>
              <LongitudeDegrees>-6.48220290429890155792236328125</LongitudeDegrees>
            </Position>
            <AltitudeMeters>261.20001220703125</AltitudeMeters>
            <DistanceMeters>NAN</DistanceMeters>
          </Trackpoint>
          <Trackpoint>
            <Time>2019-10-08T12:18:27.000Z</Time>
            <Position>
              <LatitudeDegrees>39.64931278489530086517333984375</LatitudeDegrees>
              <LongitudeDegrees>-6.4821329154074192047119140625</LongitudeDegrees>
            </Position>
            <AltitudeMeters>262</AltitudeMeters>
            <DistanceMeters>NAN</DistanceMeters>
          </Trackpoint>
          <Trackpoint>
            <Time>2019-10-08T12:18:29.000Z</Time>
            <Position>
              <LatitudeDegrees>39.64922779239714145660400390625</LatitudeDegrees>
              <LongitudeDegrees>-6.482119672000408172607421875</LongitudeDegrees>
            </Position>
            <AltitudeMeters>262.600006103515625</AltitudeMeters>
            <DistanceMeters>NAN</DistanceMeters>
          </Trackpoint>
          <Trackpoint>
            <Time>2019-10-08T12:18:34.000Z</Time>
            <Position>
              <LatitudeDegrees>39.64901505969464778900146484375</LatitudeDegrees>
              <LongitudeDegrees>-6.48208756931126117706298828125</LongitudeDegrees>
            </Position>
            <AltitudeMeters>263</AltitudeMeters>
            <DistanceMeters>NAN</DistanceMeters>
          </Trackpoint>
          <Trackpoint>
            <Time>2019-10-08T12:18:38.000Z</Time>
            <Position>
              <LatitudeDegrees>39.6488584019243717193603515625</LatitudeDegrees>
              <LongitudeDegrees>-6.4820661954581737518310546875</LongitudeDegrees>
            </Position>
            <AltitudeMeters>263.600006103515625</AltitudeMeters>
            <DistanceMeters>NAN</DistanceMeters>
          </Trackpoint>
          <Trackpoint>
            <Time>2019-10-08T12:18:41.000Z</Time>
            <Position>
              <LatitudeDegrees>39.64874315075576305389404296875</LatitudeDegrees>
              <LongitudeDegrees>-6.4820501022040843963623046875</LongitudeDegrees>
            </Position>
            <AltitudeMeters>264.20001220703125</AltitudeMeters>
            <DistanceMeters>NAN</DistanceMeters>
          </Trackpoint>
          <Trackpoint>
            <Time>2019-10-08T12:18:48.000Z</Time>
            <Position>
              <LatitudeDegrees>39.64846931397914886474609375</LatitudeDegrees>
              <LongitudeDegrees>-6.482025124132633209228515625</LongitudeDegrees>
            </Position>
            <AltitudeMeters>264.79998779296875</AltitudeMeters>
            <DistanceMeters>NAN</DistanceMeters>
          </Trackpoint>
          <Trackpoint>
            <Time>2019-10-08T12:18:51.000Z</Time>
            <Position>
              <LatitudeDegrees>39.64835456572473049163818359375</LatitudeDegrees>
              <LongitudeDegrees>-6.48201598785817623138427734375</LongitudeDegrees>
            </Position>
            <AltitudeMeters>265.399993896484375</AltitudeMeters>
            <DistanceMeters>NAN</DistanceMeters>
          </Trackpoint>
          <Trackpoint>
            <Time>2019-10-08T12:18:57.000Z</Time>
            <Position>
              <LatitudeDegrees>39.64812339283525943756103515625</LatitudeDegrees>
              <LongitudeDegrees>-6.48200668394565582275390625</LongitudeDegrees>
            </Position>
            <AltitudeMeters>266.600006103515625</AltitudeMeters>
            <DistanceMeters>NAN</DistanceMeters>
          </Trackpoint>
          <Trackpoint>
            <Time>2019-10-08T12:18:58.000Z</Time>
            <Position>
              <LatitudeDegrees>39.6480850875377655029296875</LatitudeDegrees>
              <LongitudeDegrees>-6.48200492374598979949951171875</LongitudeDegrees>
            </Position>
            <AltitudeMeters>266.600006103515625</AltitudeMeters>
            <DistanceMeters>NAN</DistanceMeters>
          </Trackpoint>
          <Trackpoint>
            <Time>2019-10-08T12:19:06.000Z</Time>
            <Position>
              <LatitudeDegrees>39.6477835066616535186767578125</LatitudeDegrees>
              <LongitudeDegrees>-6.48200022988021373748779296875</LongitudeDegrees>
            </Position>
            <AltitudeMeters>267.600006103515625</AltitudeMeters>
            <DistanceMeters>NAN</DistanceMeters>
          </Trackpoint>
          <Trackpoint>
            <Time>2019-10-08T12:19:09.000Z</Time>
            <Position>
              <LatitudeDegrees>39.64767093770205974578857421875</LatitudeDegrees>
              <LongitudeDegrees>-6.4820098690688610076904296875</LongitudeDegrees>
            </Position>
            <AltitudeMeters>268.20001220703125</AltitudeMeters>
            <DistanceMeters>NAN</DistanceMeters>
          </Trackpoint>
          <Trackpoint>
            <Time>2019-10-08T12:19:13.000Z</Time>
            <Position>
              <LatitudeDegrees>39.6475186385214328765869140625</LatitudeDegrees>
              <LongitudeDegrees>-6.48201665841042995452880859375</LongitudeDegrees>
            </Position>
            <AltitudeMeters>268.79998779296875</AltitudeMeters>
            <DistanceMeters>NAN</DistanceMeters>
          </Trackpoint>
          <Trackpoint>
            <Time>2019-10-08T12:19:18.000Z</Time>
            <Position>
              <LatitudeDegrees>39.64733012951910495758056640625</LatitudeDegrees>
              <LongitudeDegrees>-6.4820303209125995635986328125</LongitudeDegrees>
            </Position>
            <AltitudeMeters>269.79998779296875</AltitudeMeters>
            <DistanceMeters>NAN</DistanceMeters>
          </Trackpoint>
          <Trackpoint>
            <Time>2019-10-08T12:19:19.000Z</Time>
            <Position>
              <LatitudeDegrees>39.64729316532611846923828125</LatitudeDegrees>
              <LongitudeDegrees>-6.48203308694064617156982421875</LongitudeDegrees>
            </Position>
            <AltitudeMeters>270</AltitudeMeters>
            <DistanceMeters>NAN</DistanceMeters>
          </Trackpoint>
          <Trackpoint>
            <Time>2019-10-08T12:19:26.000Z</Time>
            <Position>
              <LatitudeDegrees>39.6470298059284687042236328125</LatitudeDegrees>
              <LongitudeDegrees>-6.4820682071149349212646484375</LongitudeDegrees>
            </Position>
            <AltitudeMeters>271</AltitudeMeters>
            <DistanceMeters>NAN</DistanceMeters>
          </Trackpoint>
          <Trackpoint>
            <Time>2019-10-08T12:19:28.000Z</Time>
            <Position>
              <LatitudeDegrees>39.64695612899959087371826171875</LatitudeDegrees>
              <LongitudeDegrees>-6.4820775948464870452880859375</LongitudeDegrees>
            </Position>
            <AltitudeMeters>271.399993896484375</AltitudeMeters>
            <DistanceMeters>NAN</DistanceMeters>
          </Trackpoint>
          <Trackpoint>
            <Time>2019-10-08T12:19:33.000Z</Time>
            <Position>
              <LatitudeDegrees>39.6467696316540241241455078125</LatitudeDegrees>
              <LongitudeDegrees>-6.48210986517369747161865234375</LongitudeDegrees>
            </Position>
            <AltitudeMeters>272.20001220703125</AltitudeMeters>
            <DistanceMeters>NAN</DistanceMeters>
          </Trackpoint>
          <Trackpoint>
            <Time>2019-10-08T12:19:40.000Z</Time>
            <Position>
              <LatitudeDegrees>39.6465175040066242218017578125</LatitudeDegrees>
              <LongitudeDegrees>-6.48216359317302703857421875</LongitudeDegrees>
            </Position>
            <AltitudeMeters>273</AltitudeMeters>
            <DistanceMeters>NAN</DistanceMeters>
          </Trackpoint>
          <Trackpoint>
            <Time>2019-10-08T12:19:41.000Z</Time>
            <Position>
              <LatitudeDegrees>39.64648204855620861053466796875</LatitudeDegrees>
              <LongitudeDegrees>-6.4821704663336277008056640625</LongitudeDegrees>
            </Position>
            <AltitudeMeters>273.399993896484375</AltitudeMeters>
            <DistanceMeters>NAN</DistanceMeters>
          </Trackpoint>
          <Trackpoint>
            <Time>2019-10-08T12:19:51.000Z</Time>
            <Position>
              <LatitudeDegrees>39.64611659757792949676513671875</LatitudeDegrees>
              <LongitudeDegrees>-6.4822485856711864471435546875</LongitudeDegrees>
            </Position>
            <AltitudeMeters>274.399993896484375</AltitudeMeters>
            <DistanceMeters>NAN</DistanceMeters>
          </Trackpoint>
          <Trackpoint>
            <Time>2019-10-08T12:20:00.000Z</Time>
            <Position>
              <LatitudeDegrees>39.6458325348794460296630859375</LatitudeDegrees>
              <LongitudeDegrees>-6.48233165033161640167236328125</LongitudeDegrees>
            </Position>
            <AltitudeMeters>275.79998779296875</AltitudeMeters>
            <DistanceMeters>NAN</DistanceMeters>
          </Trackpoint>
          <Trackpoint>
            <Time>2019-10-08T12:20:03.000Z</Time>
            <Position>
              <LatitudeDegrees>39.64572197757661342620849609375</LatitudeDegrees>
              <LongitudeDegrees>-6.4823587238788604736328125</LongitudeDegrees>
            </Position>
            <AltitudeMeters>276.20001220703125</AltitudeMeters>
            <DistanceMeters>NAN</DistanceMeters>
          </Trackpoint>
          <Trackpoint>
            <Time>2019-10-08T12:20:07.000Z</Time>
            <Position>
              <LatitudeDegrees>39.64558099396526813507080078125</LatitudeDegrees>
              <LongitudeDegrees>-6.4823967777192592620849609375</LongitudeDegrees>
            </Position>
            <AltitudeMeters>277</AltitudeMeters>
            <DistanceMeters>NAN</DistanceMeters>
          </Trackpoint>
          <Trackpoint>
            <Time>2019-10-08T12:20:13.000Z</Time>
            <Position>
              <LatitudeDegrees>39.64536859653890132904052734375</LatitudeDegrees>
              <LongitudeDegrees>-6.4824571274220943450927734375</LongitudeDegrees>
            </Position>
            <AltitudeMeters>278.20001220703125</AltitudeMeters>
            <DistanceMeters>NAN</DistanceMeters>
          </Trackpoint>
          <Trackpoint>
            <Time>2019-10-08T12:20:21.000Z</Time>
            <Position>
              <LatitudeDegrees>39.645087383687496185302734375</LatitudeDegrees>
              <LongitudeDegrees>-6.4825339056551456451416015625</LongitudeDegrees>
            </Position>
            <AltitudeMeters>279.399993896484375</AltitudeMeters>
            <DistanceMeters>NAN</DistanceMeters>
          </Trackpoint>
          <Trackpoint>
            <Time>2019-10-08T12:20:22.000Z</Time>
            <Position>
              <LatitudeDegrees>39.64505192823708057403564453125</LatitudeDegrees>
              <LongitudeDegrees>-6.48254371248185634613037109375</LongitudeDegrees>
            </Position>
            <AltitudeMeters>279.399993896484375</AltitudeMeters>
            <DistanceMeters>NAN</DistanceMeters>
          </Trackpoint>
          <Trackpoint>
            <Time>2019-10-08T12:20:28.000Z</Time>
            <Position>
              <LatitudeDegrees>39.644835926592350006103515625</LatitudeDegrees>
              <LongitudeDegrees>-6.4826083369553089141845703125</LongitudeDegrees>
            </Position>
            <AltitudeMeters>280.399993896484375</AltitudeMeters>
            <DistanceMeters>NAN</DistanceMeters>
          </Trackpoint>
          <Trackpoint>
            <Time>2019-10-08T12:20:29.000Z</Time>
            <Position>
              <LatitudeDegrees>39.6447975374758243560791015625</LatitudeDegrees>
              <LongitudeDegrees>-6.4826177246868610382080078125</LongitudeDegrees>
            </Position>
            <AltitudeMeters>280.600006103515625</AltitudeMeters>
            <DistanceMeters>NAN</DistanceMeters>
          </Trackpoint>
          <Trackpoint>
            <Time>2019-10-08T12:20:36.000Z</Time>
            <Position>
              <LatitudeDegrees>39.64452110230922698974609375</LatitudeDegrees>
              <LongitudeDegrees>-6.48268251679837703704833984375</LongitudeDegrees>
            </Position>
            <AltitudeMeters>281.399993896484375</AltitudeMeters>
            <DistanceMeters>NAN</DistanceMeters>
          </Trackpoint>
          <Trackpoint>
            <Time>2019-10-08T12:20:39.000Z</Time>
            <Position>
              <LatitudeDegrees>39.64440769515931606292724609375</LatitudeDegrees>
              <LongitudeDegrees>-6.48270481266081333160400390625</LongitudeDegrees>
            </Position>
            <AltitudeMeters>281.600006103515625</AltitudeMeters>
            <DistanceMeters>NAN</DistanceMeters>
          </Trackpoint>
          <Trackpoint>
            <Time>2019-10-08T12:20:49.000Z</Time>
            <Position>
              <LatitudeDegrees>39.64403151534497737884521484375</LatitudeDegrees>
              <LongitudeDegrees>-6.48276549763977527618408203125</LongitudeDegrees>
            </Position>
            <AltitudeMeters>282.600006103515625</AltitudeMeters>
            <DistanceMeters>NAN</DistanceMeters>
          </Trackpoint>
          <Trackpoint>
            <Time>2019-10-08T12:20:51.000Z</Time>
            <Position>
              <LatitudeDegrees>39.6439556591212749481201171875</LatitudeDegrees>
              <LongitudeDegrees>-6.4827753044664859771728515625</LongitudeDegrees>
            </Position>
            <AltitudeMeters>282.79998779296875</AltitudeMeters>
            <DistanceMeters>NAN</DistanceMeters>
          </Trackpoint>
          <Trackpoint>
            <Time>2019-10-08T12:20:59.000Z</Time>
            <Position>
              <LatitudeDegrees>39.64364846237003803253173828125</LatitudeDegrees>
              <LongitudeDegrees>-6.48279651068150997161865234375</LongitudeDegrees>
            </Position>
            <AltitudeMeters>283.20001220703125</AltitudeMeters>
            <DistanceMeters>NAN</DistanceMeters>
          </Trackpoint>
          <Trackpoint>
            <Time>2019-10-08T12:21:01.000Z</Time>
            <Position>
              <LatitudeDegrees>39.64356816373765468597412109375</LatitudeDegrees>
              <LongitudeDegrees>-6.48279667831957340240478515625</LongitudeDegrees>
            </Position>
            <AltitudeMeters>283.20001220703125</AltitudeMeters>
            <DistanceMeters>NAN</DistanceMeters>
          </Trackpoint>
          <Trackpoint>
            <Time>2019-10-08T12:21:10.000Z</Time>
            <Position>
              <LatitudeDegrees>39.64320279657840728759765625</LatitudeDegrees>
              <LongitudeDegrees>-6.482785530388355255126953125</LongitudeDegrees>
            </Position>
            <AltitudeMeters>283.600006103515625</AltitudeMeters>
            <DistanceMeters>NAN</DistanceMeters>
          </Trackpoint>
          <Trackpoint>
            <Time>2019-10-08T12:21:15.000Z</Time>
            <Position>
              <LatitudeDegrees>39.64299090206623077392578125</LatitudeDegrees>
              <LongitudeDegrees>-6.48277111351490020751953125</LongitudeDegrees>
            </Position>
            <AltitudeMeters>283.600006103515625</AltitudeMeters>
            <DistanceMeters>NAN</DistanceMeters>
          </Trackpoint>
          <Trackpoint>
            <Time>2019-10-08T12:21:18.000Z</Time>
            <Position>
              <LatitudeDegrees>39.64286022819578647613525390625</LatitudeDegrees>
              <LongitudeDegrees>-6.482753343880176544189453125</LongitudeDegrees>
            </Position>
            <AltitudeMeters>283.600006103515625</AltitudeMeters>
            <DistanceMeters>NAN</DistanceMeters>
          </Trackpoint>
          <Trackpoint>
            <Time>2019-10-08T12:21:28.000Z</Time>
            <Position>
              <LatitudeDegrees>39.64240542612969875335693359375</LatitudeDegrees>
              <LongitudeDegrees>-6.48267916403710842132568359375</LongitudeDegrees>
            </Position>
            <AltitudeMeters>283</AltitudeMeters>
            <DistanceMeters>NAN</DistanceMeters>
          </Trackpoint>
          <Trackpoint>
            <Time>2019-10-08T12:21:30.000Z</Time>
            <Position>
              <LatitudeDegrees>39.642313979566097259521484375</LatitudeDegrees>
              <LongitudeDegrees>-6.48265854455530643463134765625</LongitudeDegrees>
            </Position>
            <AltitudeMeters>282.399993896484375</AltitudeMeters>
            <DistanceMeters>NAN</DistanceMeters>
          </Trackpoint>
          <Trackpoint>
            <Time>2019-10-08T12:21:37.000Z</Time>
            <Position>
              <LatitudeDegrees>39.641988761723041534423828125</LatitudeDegrees>
              <LongitudeDegrees>-6.482582353055477142333984375</LongitudeDegrees>
            </Position>
            <AltitudeMeters>282.20001220703125</AltitudeMeters>
            <DistanceMeters>NAN</DistanceMeters>
          </Trackpoint>
          <Trackpoint>
            <Time>2019-10-08T12:21:40.000Z</Time>
            <Position>
              <LatitudeDegrees>39.64183352887630462646484375</LatitudeDegrees>
              <LongitudeDegrees>-6.4825399406254291534423828125</LongitudeDegrees>
            </Position>
            <AltitudeMeters>281.600006103515625</AltitudeMeters>
            <DistanceMeters>NAN</DistanceMeters>
          </Trackpoint>
          <Trackpoint>
            <Time>2019-10-08T12:21:42.000Z</Time>
            <Position>
              <LatitudeDegrees>39.6417247317731380462646484375</LatitudeDegrees>
              <LongitudeDegrees>-6.482510268688201904296875</LongitudeDegrees>
            </Position>
            <AltitudeMeters>281.20001220703125</AltitudeMeters>
            <DistanceMeters>NAN</DistanceMeters>
          </Trackpoint>
          <Trackpoint>
            <Time>2019-10-08T12:21:49.000Z</Time>
            <Position>
              <LatitudeDegrees>39.641330279409885406494140625</LatitudeDegrees>
              <LongitudeDegrees>-6.4823957718908786773681640625</LongitudeDegrees>
            </Position>
            <AltitudeMeters>280.20001220703125</AltitudeMeters>
            <DistanceMeters>NAN</DistanceMeters>
          </Trackpoint>
          <Trackpoint>
            <Time>2019-10-08T12:21:50.000Z</Time>
            <Position>
              <LatitudeDegrees>39.64127118699252605438232421875</LatitudeDegrees>
              <LongitudeDegrees>-6.4823783375322818756103515625</LongitudeDegrees>
            </Position>
            <AltitudeMeters>280.20001220703125</AltitudeMeters>
            <DistanceMeters>NAN</DistanceMeters>
          </Trackpoint>
          <Trackpoint>
            <Time>2019-10-08T12:21:53.000Z</Time>
            <Position>
              <LatitudeDegrees>39.64109214954078197479248046875</LatitudeDegrees>
              <LongitudeDegrees>-6.48232528008520603179931640625</LongitudeDegrees>
            </Position>
            <AltitudeMeters>279.399993896484375</AltitudeMeters>
            <DistanceMeters>NAN</DistanceMeters>
          </Trackpoint>
          <Trackpoint>
            <Time>2019-10-08T12:21:55.000Z</Time>
            <Position>
              <LatitudeDegrees>39.64096675626933574676513671875</LatitudeDegrees>
              <LongitudeDegrees>-6.482291333377361297607421875</LongitudeDegrees>
            </Position>
            <AltitudeMeters>278.79998779296875</AltitudeMeters>
            <DistanceMeters>NAN</DistanceMeters>
          </Trackpoint>
          <Trackpoint>
            <Time>2019-10-08T12:21:57.000Z</Time>
            <Position>
              <LatitudeDegrees>39.640792496502399444580078125</LatitudeDegrees>
              <LongitudeDegrees>-6.48223626427352428436279296875</LongitudeDegrees>
            </Position>
            <AltitudeMeters>278.20001220703125</AltitudeMeters>
            <DistanceMeters>NAN</DistanceMeters>
          </Trackpoint>
          <Trackpoint>
            <Time>2019-10-08T12:22:00.000Z</Time>
            <Position>
              <LatitudeDegrees>39.64064505882561206817626953125</LatitudeDegrees>
              <LongitudeDegrees>-6.48219418711960315704345703125</LongitudeDegrees>
            </Position>
            <AltitudeMeters>277.399993896484375</AltitudeMeters>
            <DistanceMeters>NAN</DistanceMeters>
          </Trackpoint>
          <Trackpoint>
            <Time>2019-10-08T12:22:04.000Z</Time>
            <Position>
              <LatitudeDegrees>39.6403661929070949554443359375</LatitudeDegrees>
              <LongitudeDegrees>-6.48213006556034088134765625</LongitudeDegrees>
            </Position>
            <AltitudeMeters>276.399993896484375</AltitudeMeters>
            <DistanceMeters>NAN</DistanceMeters>
          </Trackpoint>
          <Trackpoint>
            <Time>2019-10-08T12:22:07.000Z</Time>
            <Position>
              <LatitudeDegrees>39.64014851488173007965087890625</LatitudeDegrees>
              <LongitudeDegrees>-6.4820718951523303985595703125</LongitudeDegrees>
            </Position>
            <AltitudeMeters>275.600006103515625</AltitudeMeters>
            <DistanceMeters>NAN</DistanceMeters>
          </Trackpoint>
          <Trackpoint>
            <Time>2019-10-08T12:22:08.000Z</Time>
            <Position>
              <LatitudeDegrees>39.6400748379528522491455078125</LatitudeDegrees>
              <LongitudeDegrees>-6.48205303587019443511962890625</LongitudeDegrees>
            </Position>
            <AltitudeMeters>275</AltitudeMeters>
            <DistanceMeters>NAN</DistanceMeters>
          </Trackpoint>
          <Trackpoint>
            <Time>2019-10-08T12:22:10.000Z</Time>
            <Position>
              <LatitudeDegrees>39.63992538861930370330810546875</LatitudeDegrees>
              <LongitudeDegrees>-6.48201447911560535430908203125</LongitudeDegrees>
            </Position>
            <AltitudeMeters>273.79998779296875</AltitudeMeters>
            <DistanceMeters>NAN</DistanceMeters>
          </Trackpoint>
          <Trackpoint>
            <Time>2019-10-08T12:22:14.000Z</Time>
            <Position>
              <LatitudeDegrees>39.63962531648576259613037109375</LatitudeDegrees>
              <LongitudeDegrees>-6.48193954490125179290771484375</LongitudeDegrees>
            </Position>
            <AltitudeMeters>273</AltitudeMeters>
            <DistanceMeters>NAN</DistanceMeters>
          </Trackpoint>
          <Trackpoint>
            <Time>2019-10-08T12:22:15.000Z</Time>
            <Position>
              <LatitudeDegrees>39.63954987935721874237060546875</LatitudeDegrees>
              <LongitudeDegrees>-6.48191791959106922149658203125</LongitudeDegrees>
            </Position>
            <AltitudeMeters>272.399993896484375</AltitudeMeters>
            <DistanceMeters>NAN</DistanceMeters>
          </Trackpoint>
          <Trackpoint>
            <Time>2019-10-08T12:22:19.000Z</Time>
            <Position>
              <LatitudeDegrees>39.63923991657793521881103515625</LatitudeDegrees>
              <LongitudeDegrees>-6.481840722262859344482421875</LongitudeDegrees>
            </Position>
            <AltitudeMeters>271.20001220703125</AltitudeMeters>
            <DistanceMeters>NAN</DistanceMeters>
          </Trackpoint>
          <Trackpoint>
            <Time>2019-10-08T12:22:24.000Z</Time>
            <Position>
              <LatitudeDegrees>39.6388410218060016632080078125</LatitudeDegrees>
              <LongitudeDegrees>-6.48173821158707141876220703125</LongitudeDegrees>
            </Position>
            <AltitudeMeters>269.79998779296875</AltitudeMeters>
            <DistanceMeters>NAN</DistanceMeters>
          </Trackpoint>
          <Trackpoint>
            <Time>2019-10-08T12:22:26.000Z</Time>
            <Position>
              <LatitudeDegrees>39.63867799378931522369384765625</LatitudeDegrees>
              <LongitudeDegrees>-6.48169328458607196807861328125</LongitudeDegrees>
            </Position>
            <AltitudeMeters>269.20001220703125</AltitudeMeters>
            <DistanceMeters>NAN</DistanceMeters>
          </Trackpoint>
          <Trackpoint>
            <Time>2019-10-08T12:22:30.000Z</Time>
            <Position>
              <LatitudeDegrees>39.63834456168115139007568359375</LatitudeDegrees>
              <LongitudeDegrees>-6.481602005660533905029296875</LongitudeDegrees>
            </Position>
            <AltitudeMeters>268</AltitudeMeters>
            <DistanceMeters>NAN</DistanceMeters>
          </Trackpoint>
          <Trackpoint>
            <Time>2019-10-08T12:22:32.000Z</Time>
            <Position>
              <LatitudeDegrees>39.6381751634180545806884765625</LatitudeDegrees>
              <LongitudeDegrees>-6.48155800066888332366943359375</LongitudeDegrees>
            </Position>
            <AltitudeMeters>266.79998779296875</AltitudeMeters>
            <DistanceMeters>NAN</DistanceMeters>
          </Trackpoint>
          <Trackpoint>
            <Time>2019-10-08T12:22:34.000Z</Time>
            <Position>
              <LatitudeDegrees>39.63800325058400630950927734375</LatitudeDegrees>
              <LongitudeDegrees>-6.4815129898488521575927734375</LongitudeDegrees>
            </Position>
            <AltitudeMeters>267</AltitudeMeters>
            <DistanceMeters>NAN</DistanceMeters>
          </Trackpoint>
          <Trackpoint>
            <Time>2019-10-08T12:22:40.000Z</Time>
            <Position>
              <LatitudeDegrees>39.63749363087117671966552734375</LatitudeDegrees>
              <LongitudeDegrees>-6.48138047195971012115478515625</LongitudeDegrees>
            </Position>
            <AltitudeMeters>265.79998779296875</AltitudeMeters>
            <DistanceMeters>NAN</DistanceMeters>
          </Trackpoint>
          <Trackpoint>
            <Time>2019-10-08T12:22:43.000Z</Time>
            <Position>
              <LatitudeDegrees>39.63725072331726551055908203125</LatitudeDegrees>
              <LongitudeDegrees>-6.4813207089900970458984375</LongitudeDegrees>
            </Position>
            <AltitudeMeters>266</AltitudeMeters>
            <DistanceMeters>NAN</DistanceMeters>
          </Trackpoint>
          <Trackpoint>
            <Time>2019-10-08T12:22:49.000Z</Time>
            <Position>
              <LatitudeDegrees>39.636806063354015350341796875</LatitudeDegrees>
              <LongitudeDegrees>-6.48121635429561138153076171875</LongitudeDegrees>
            </Position>
            <AltitudeMeters>265.20001220703125</AltitudeMeters>
            <DistanceMeters>NAN</DistanceMeters>
          </Trackpoint>
          <Trackpoint>
            <Time>2019-10-08T12:22:50.000Z</Time>
            <Position>
              <LatitudeDegrees>39.6367385052144527435302734375</LatitudeDegrees>
              <LongitudeDegrees>-6.481202356517314910888671875</LongitudeDegrees>
            </Position>
            <AltitudeMeters>265.20001220703125</AltitudeMeters>
            <DistanceMeters>NAN</DistanceMeters>
          </Trackpoint>
          <Trackpoint>
            <Time>2019-10-08T12:22:56.000Z</Time>
            <Position>
              <LatitudeDegrees>39.63637791574001312255859375</LatitudeDegrees>
              <LongitudeDegrees>-6.4811331219971179962158203125</LongitudeDegrees>
            </Position>
            <AltitudeMeters>266.399993896484375</AltitudeMeters>
            <DistanceMeters>NAN</DistanceMeters>
          </Trackpoint>
          <Trackpoint>
            <Time>2019-10-08T12:22:58.000Z</Time>
            <Position>
              <LatitudeDegrees>39.636269621551036834716796875</LatitudeDegrees>
              <LongitudeDegrees>-6.4811119996011257171630859375</LongitudeDegrees>
            </Position>
            <AltitudeMeters>267</AltitudeMeters>
            <DistanceMeters>NAN</DistanceMeters>
          </Trackpoint>
          <Trackpoint>
            <Time>2019-10-08T12:23:02.000Z</Time>
            <Position>
              <LatitudeDegrees>39.63605563156306743621826171875</LatitudeDegrees>
              <LongitudeDegrees>-6.48107587359845638275146484375</LongitudeDegrees>
            </Position>
            <AltitudeMeters>267.79998779296875</AltitudeMeters>
            <DistanceMeters>NAN</DistanceMeters>
          </Trackpoint>
          <Trackpoint>
            <Time>2019-10-08T12:23:03.000Z</Time>
            <Position>
              <LatitudeDegrees>39.63600366376340389251708984375</LatitudeDegrees>
              <LongitudeDegrees>-6.48106698878109455108642578125</LongitudeDegrees>
            </Position>
            <AltitudeMeters>268.20001220703125</AltitudeMeters>
            <DistanceMeters>NAN</DistanceMeters>
          </Trackpoint>
          <Trackpoint>
            <Time>2019-10-08T12:23:05.000Z</Time>
            <Position>
              <LatitudeDegrees>39.63590090163052082061767578125</LatitudeDegrees>
              <LongitudeDegrees>-6.481051146984100341796875</LongitudeDegrees>
            </Position>
            <AltitudeMeters>268</AltitudeMeters>
            <DistanceMeters>NAN</DistanceMeters>
          </Trackpoint>
          <Trackpoint>
            <Time>2019-10-08T12:23:07.000Z</Time>
            <Position>
              <LatitudeDegrees>39.63579780422151088714599609375</LatitudeDegrees>
              <LongitudeDegrees>-6.48103580810129642486572265625</LongitudeDegrees>
            </Position>
            <AltitudeMeters>268</AltitudeMeters>
            <DistanceMeters>NAN</DistanceMeters>
          </Trackpoint>
          <Trackpoint>
            <Time>2019-10-08T12:23:10.000Z</Time>
            <Position>
              <LatitudeDegrees>39.6356423199176788330078125</LatitudeDegrees>
              <LongitudeDegrees>-6.4810097403824329376220703125</LongitudeDegrees>
            </Position>
            <AltitudeMeters>267.79998779296875</AltitudeMeters>
            <DistanceMeters>NAN</DistanceMeters>
          </Trackpoint>
          <Trackpoint>
            <Time>2019-10-08T12:23:12.000Z</Time>
            <Position>
              <LatitudeDegrees>39.6355378814041614532470703125</LatitudeDegrees>
              <LongitudeDegrees>-6.4809926412999629974365234375</LongitudeDegrees>
            </Position>
            <AltitudeMeters>268.20001220703125</AltitudeMeters>
            <DistanceMeters>NAN</DistanceMeters>
          </Trackpoint>
          <Trackpoint>
            <Time>2019-10-08T12:23:15.000Z</Time>
            <Position>
              <LatitudeDegrees>39.63538122363388538360595703125</LatitudeDegrees>
              <LongitudeDegrees>-6.480969004333019256591796875</LongitudeDegrees>
            </Position>
            <AltitudeMeters>268.399993896484375</AltitudeMeters>
            <DistanceMeters>NAN</DistanceMeters>
          </Trackpoint>
          <Trackpoint>
            <Time>2019-10-08T12:23:18.000Z</Time>
            <Position>
              <LatitudeDegrees>39.63522464968264102935791015625</LatitudeDegrees>
              <LongitudeDegrees>-6.48094561882317066192626953125</LongitudeDegrees>
            </Position>
            <AltitudeMeters>268.79998779296875</AltitudeMeters>
            <DistanceMeters>NAN</DistanceMeters>
          </Trackpoint>
          <Trackpoint>
            <Time>2019-10-08T12:23:22.000Z</Time>
            <Position>
              <LatitudeDegrees>39.63501937687397003173828125</LatitudeDegrees>
              <LongitudeDegrees>-6.4809208922088146209716796875</LongitudeDegrees>
            </Position>
            <AltitudeMeters>269</AltitudeMeters>
            <DistanceMeters>NAN</DistanceMeters>
          </Trackpoint>
          <Trackpoint>
            <Time>2019-10-08T12:23:23.000Z</Time>
            <Position>
              <LatitudeDegrees>39.63496833108365535736083984375</LatitudeDegrees>
              <LongitudeDegrees>-6.4809151925146579742431640625</LongitudeDegrees>
            </Position>
            <AltitudeMeters>269.600006103515625</AltitudeMeters>
            <DistanceMeters>NAN</DistanceMeters>
          </Trackpoint>
          <Trackpoint>
            <Time>2019-10-08T12:23:28.000Z</Time>
            <Position>
              <LatitudeDegrees>39.63471184484660625457763671875</LatitudeDegrees>
              <LongitudeDegrees>-6.4808890409767627716064453125</LongitudeDegrees>
            </Position>
            <AltitudeMeters>269.79998779296875</AltitudeMeters>
            <DistanceMeters>NAN</DistanceMeters>
          </Trackpoint>
          <Trackpoint>
            <Time>2019-10-08T12:23:37.000Z</Time>
            <Position>
              <LatitudeDegrees>39.63425419293344020843505859375</LatitudeDegrees>
              <LongitudeDegrees>-6.4808390848338603973388671875</LongitudeDegrees>
            </Position>
            <AltitudeMeters>270.399993896484375</AltitudeMeters>
            <DistanceMeters>NAN</DistanceMeters>
          </Trackpoint>
          <Trackpoint>
            <Time>2019-10-08T12:23:38.000Z</Time>
            <Position>
              <LatitudeDegrees>39.6342031471431255340576171875</LatitudeDegrees>
              <LongitudeDegrees>-6.48083388805389404296875</LongitudeDegrees>
            </Position>
            <AltitudeMeters>270.600006103515625</AltitudeMeters>
            <DistanceMeters>NAN</DistanceMeters>
          </Trackpoint>
          <Trackpoint>
            <Time>2019-10-08T12:23:47.000Z</Time>
            <Position>
              <LatitudeDegrees>39.63374122045934200286865234375</LatitudeDegrees>
              <LongitudeDegrees>-6.48078854195773601531982421875</LongitudeDegrees>
            </Position>
            <AltitudeMeters>271.20001220703125</AltitudeMeters>
            <DistanceMeters>NAN</DistanceMeters>
          </Trackpoint>
          <Trackpoint>
            <Time>2019-10-08T12:23:56.000Z</Time>
            <Position>
              <LatitudeDegrees>39.63327862322330474853515625</LatitudeDegrees>
              <LongitudeDegrees>-6.48074227385222911834716796875</LongitudeDegrees>
            </Position>
            <AltitudeMeters>271.399993896484375</AltitudeMeters>
            <DistanceMeters>NAN</DistanceMeters>
          </Trackpoint>
          <Trackpoint>
            <Time>2019-10-08T12:24:05.000Z</Time>
            <Position>
              <LatitudeDegrees>39.632812924683094024658203125</LatitudeDegrees>
              <LongitudeDegrees>-6.4807331375777721405029296875</LongitudeDegrees>
            </Position>
            <AltitudeMeters>271.600006103515625</AltitudeMeters>
            <DistanceMeters>NAN</DistanceMeters>
          </Trackpoint>
          <Trackpoint>
            <Time>2019-10-08T12:24:06.000Z</Time>
            <Position>
              <LatitudeDegrees>39.63276187889277935028076171875</LatitudeDegrees>
              <LongitudeDegrees>-6.48073221556842327117919921875</LongitudeDegrees>
            </Position>
            <AltitudeMeters>271.399993896484375</AltitudeMeters>
            <DistanceMeters>NAN</DistanceMeters>
          </Trackpoint>
          <Trackpoint>
            <Time>2019-10-08T12:24:16.000Z</Time>
            <Position>
              <LatitudeDegrees>39.63223851285874843597412109375</LatitudeDegrees>
              <LongitudeDegrees>-6.4807294495403766632080078125</LongitudeDegrees>
            </Position>
            <AltitudeMeters>271.399993896484375</AltitudeMeters>
            <DistanceMeters>NAN</DistanceMeters>
          </Trackpoint>
          <Trackpoint>
            <Time>2019-10-08T12:24:26.000Z</Time>
            <Position>
              <LatitudeDegrees>39.63171229697763919830322265625</LatitudeDegrees>
              <LongitudeDegrees>-6.48073221556842327117919921875</LongitudeDegrees>
            </Position>
            <AltitudeMeters>271.399993896484375</AltitudeMeters>
            <DistanceMeters>NAN</DistanceMeters>
          </Trackpoint>
          <Trackpoint>
            <Time>2019-10-08T12:24:36.000Z</Time>
            <Position>
              <LatitudeDegrees>39.63117870502173900604248046875</LatitudeDegrees>
              <LongitudeDegrees>-6.48074093274772167205810546875</LongitudeDegrees>
            </Position>
            <AltitudeMeters>271.79998779296875</AltitudeMeters>
            <DistanceMeters>NAN</DistanceMeters>
          </Trackpoint>
          <Trackpoint>
            <Time>2019-10-08T12:24:46.000Z</Time>
            <Position>
              <LatitudeDegrees>39.63064192794263362884521484375</LatitudeDegrees>
              <LongitudeDegrees>-6.48074202239513397216796875</LongitudeDegrees>
            </Position>
            <AltitudeMeters>271.600006103515625</AltitudeMeters>
            <DistanceMeters>NAN</DistanceMeters>
          </Trackpoint>
          <Trackpoint>
            <Time>2019-10-08T12:24:48.000Z</Time>
            <Position>
              <LatitudeDegrees>39.63053866289556026458740234375</LatitudeDegrees>
              <LongitudeDegrees>-6.48074378259479999542236328125</LongitudeDegrees>
            </Position>
            <AltitudeMeters>271.600006103515625</AltitudeMeters>
            <DistanceMeters>NAN</DistanceMeters>
          </Trackpoint>
          <Trackpoint>
            <Time>2019-10-08T12:24:54.000Z</Time>
            <Position>
              <LatitudeDegrees>39.6302432008087635040283203125</LatitudeDegrees>
              <LongitudeDegrees>-6.480753421783447265625</LongitudeDegrees>
            </Position>
            <AltitudeMeters>272.79998779296875</AltitudeMeters>
            <DistanceMeters>NAN</DistanceMeters>
          </Trackpoint>
          <Trackpoint>
            <Time>2019-10-08T12:24:56.000Z</Time>
            <Position>
              <LatitudeDegrees>39.63014756329357624053955078125</LatitudeDegrees>
              <LongitudeDegrees>-6.4807542599737644195556640625</LongitudeDegrees>
            </Position>
            <AltitudeMeters>273.20001220703125</AltitudeMeters>
            <DistanceMeters>NAN</DistanceMeters>
          </Trackpoint>
          <Trackpoint>
            <Time>2019-10-08T12:25:02.000Z</Time>
            <Position>
              <LatitudeDegrees>39.6298613213002681732177734375</LatitudeDegrees>
              <LongitudeDegrees>-6.48075400851666927337646484375</LongitudeDegrees>
            </Position>
            <AltitudeMeters>274.20001220703125</AltitudeMeters>
            <DistanceMeters>NAN</DistanceMeters>
          </Trackpoint>
          <Trackpoint>
            <Time>2019-10-08T12:25:03.000Z</Time>
            <Position>
              <LatitudeDegrees>39.62979887612164020538330078125</LatitudeDegrees>
              <LongitudeDegrees>-6.48075669072568416595458984375</LongitudeDegrees>
            </Position>
            <AltitudeMeters>274.20001220703125</AltitudeMeters>
            <DistanceMeters>NAN</DistanceMeters>
          </Trackpoint>
          <Trackpoint>
            <Time>2019-10-08T12:25:10.000Z</Time>
            <Position>
              <LatitudeDegrees>39.629484303295612335205078125</LatitudeDegrees>
              <LongitudeDegrees>-6.48075853474438190460205078125</LongitudeDegrees>
            </Position>
            <AltitudeMeters>275.20001220703125</AltitudeMeters>
            <DistanceMeters>NAN</DistanceMeters>
          </Trackpoint>
          <Trackpoint>
            <Time>2019-10-08T12:25:17.000Z</Time>
            <Position>
              <LatitudeDegrees>39.62914374656975269317626953125</LatitudeDegrees>
              <LongitudeDegrees>-6.48076490499079227447509765625</LongitudeDegrees>
            </Position>
            <AltitudeMeters>276</AltitudeMeters>
            <DistanceMeters>NAN</DistanceMeters>
          </Trackpoint>
          <Trackpoint>
            <Time>2019-10-08T12:25:23.000Z</Time>
            <Position>
              <LatitudeDegrees>39.62884501554071903228759765625</LatitudeDegrees>
              <LongitudeDegrees>-6.4807653240859508514404296875</LongitudeDegrees>
            </Position>
            <AltitudeMeters>276.399993896484375</AltitudeMeters>
            <DistanceMeters>NAN</DistanceMeters>
          </Trackpoint>
          <Trackpoint>
            <Time>2019-10-08T12:25:26.000Z</Time>
            <Position>
              <LatitudeDegrees>39.6286962367594242095947265625</LatitudeDegrees>
              <LongitudeDegrees>-6.4807708561420440673828125</LongitudeDegrees>
            </Position>
            <AltitudeMeters>276.20001220703125</AltitudeMeters>
            <DistanceMeters>NAN</DistanceMeters>
          </Trackpoint>
          <Trackpoint>
            <Time>2019-10-08T12:25:35.000Z</Time>
            <Position>
              <LatitudeDegrees>39.62823799811303615570068359375</LatitudeDegrees>
              <LongitudeDegrees>-6.4807720296084880828857421875</LongitudeDegrees>
            </Position>
            <AltitudeMeters>276.79998779296875</AltitudeMeters>
            <DistanceMeters>NAN</DistanceMeters>
          </Trackpoint>
          <Trackpoint>
            <Time>2019-10-08T12:25:42.000Z</Time>
            <Position>
              <LatitudeDegrees>39.62785662151873111724853515625</LatitudeDegrees>
              <LongitudeDegrees>-6.48076993413269519805908203125</LongitudeDegrees>
            </Position>
            <AltitudeMeters>276.79998779296875</AltitudeMeters>
            <DistanceMeters>NAN</DistanceMeters>
          </Trackpoint>
          <Trackpoint>
            <Time>2019-10-08T12:25:52.000Z</Time>
            <Position>
              <LatitudeDegrees>39.62728363461792469024658203125</LatitudeDegrees>
              <LongitudeDegrees>-6.48077596910297870635986328125</LongitudeDegrees>
            </Position>
            <AltitudeMeters>276.600006103515625</AltitudeMeters>
            <DistanceMeters>NAN</DistanceMeters>
          </Trackpoint>
          <Trackpoint>
            <Time>2019-10-08T12:25:53.000Z</Time>
            <Position>
              <LatitudeDegrees>39.62722127325832843780517578125</LatitudeDegrees>
              <LongitudeDegrees>-6.4807762205600738525390625</LongitudeDegrees>
            </Position>
            <AltitudeMeters>276.399993896484375</AltitudeMeters>
            <DistanceMeters>NAN</DistanceMeters>
          </Trackpoint>
          <Trackpoint>
            <Time>2019-10-08T12:25:57.000Z</Time>
            <Position>
              <LatitudeDegrees>39.6269574947655200958251953125</LatitudeDegrees>
              <LongitudeDegrees>-6.48077731020748615264892578125</LongitudeDegrees>
            </Position>
            <AltitudeMeters>275.20001220703125</AltitudeMeters>
            <DistanceMeters>NAN</DistanceMeters>
          </Trackpoint>
          <Trackpoint>
            <Time>2019-10-08T12:26:01.000Z</Time>
            <Position>
              <LatitudeDegrees>39.62666991166770458221435546875</LatitudeDegrees>
              <LongitudeDegrees>-6.48078032769262790679931640625</LongitudeDegrees>
            </Position>
            <AltitudeMeters>273.79998779296875</AltitudeMeters>
            <DistanceMeters>NAN</DistanceMeters>
          </Trackpoint>
          <Trackpoint>
            <Time>2019-10-08T12:26:02.000Z</Time>
            <Position>
              <LatitudeDegrees>39.6265950612723827362060546875</LatitudeDegrees>
              <LongitudeDegrees>-6.4807815849781036376953125</LongitudeDegrees>
            </Position>
            <AltitudeMeters>273.79998779296875</AltitudeMeters>
            <DistanceMeters>NAN</DistanceMeters>
          </Trackpoint>
          <Trackpoint>
            <Time>2019-10-08T12:26:05.000Z</Time>
            <Position>
              <LatitudeDegrees>39.62636028416454792022705078125</LatitudeDegrees>
              <LongitudeDegrees>-6.4807800762355327606201171875</LongitudeDegrees>
            </Position>
            <AltitudeMeters>272.399993896484375</AltitudeMeters>
            <DistanceMeters>NAN</DistanceMeters>
          </Trackpoint>
          <Trackpoint>
            <Time>2019-10-08T12:26:07.000Z</Time>
            <Position>
              <LatitudeDegrees>39.6261947415769100189208984375</LatitudeDegrees>
              <LongitudeDegrees>-6.480772197246551513671875</LongitudeDegrees>
            </Position>
            <AltitudeMeters>271.79998779296875</AltitudeMeters>
            <DistanceMeters>NAN</DistanceMeters>
          </Trackpoint>
          <Trackpoint>
            <Time>2019-10-08T12:26:08.000Z</Time>
            <Position>
              <LatitudeDegrees>39.6261072345077991485595703125</LatitudeDegrees>
              <LongitudeDegrees>-6.4807663299143314361572265625</LongitudeDegrees>
            </Position>
            <AltitudeMeters>271.20001220703125</AltitudeMeters>
            <DistanceMeters>NAN</DistanceMeters>
          </Trackpoint>
          <Trackpoint>
            <Time>2019-10-08T12:26:09.000Z</Time>
            <Position>
              <LatitudeDegrees>39.62601746432483196258544921875</LatitudeDegrees>
              <LongitudeDegrees>-6.4807599596679210662841796875</LongitudeDegrees>
            </Position>
            <AltitudeMeters>270.79998779296875</AltitudeMeters>
            <DistanceMeters>NAN</DistanceMeters>
          </Trackpoint>
          <Trackpoint>
            <Time>2019-10-08T12:26:10.000Z</Time>
            <Position>
              <LatitudeDegrees>39.62592610158026218414306640625</LatitudeDegrees>
              <LongitudeDegrees>-6.4807515777647495269775390625</LongitudeDegrees>
            </Position>
            <AltitudeMeters>270</AltitudeMeters>
            <DistanceMeters>NAN</DistanceMeters>
          </Trackpoint>
          <Trackpoint>
            <Time>2019-10-08T12:26:12.000Z</Time>
            <Position>
              <LatitudeDegrees>39.62573834694921970367431640625</LatitudeDegrees>
              <LongitudeDegrees>-6.48073389194905757904052734375</LongitudeDegrees>
            </Position>
            <AltitudeMeters>268.600006103515625</AltitudeMeters>
            <DistanceMeters>NAN</DistanceMeters>
          </Trackpoint>
          <Trackpoint>
            <Time>2019-10-08T12:26:14.000Z</Time>
            <Position>
              <LatitudeDegrees>39.62554858066141605377197265625</LatitudeDegrees>
              <LongitudeDegrees>-6.48071109317243099212646484375</LongitudeDegrees>
            </Position>
            <AltitudeMeters>267.20001220703125</AltitudeMeters>
            <DistanceMeters>NAN</DistanceMeters>
          </Trackpoint>
          <Trackpoint>
            <Time>2019-10-08T12:26:16.000Z</Time>
            <Position>
              <LatitudeDegrees>39.62535998784005641937255859375</LatitudeDegrees>
              <LongitudeDegrees>-6.48068795911967754364013671875</LongitudeDegrees>
            </Position>
            <AltitudeMeters>266.399993896484375</AltitudeMeters>
            <DistanceMeters>NAN</DistanceMeters>
          </Trackpoint>
          <Trackpoint>
            <Time>2019-10-08T12:26:18.000Z</Time>
            <Position>
              <LatitudeDegrees>39.62517357431352138519287109375</LatitudeDegrees>
              <LongitudeDegrees>-6.48066096939146518707275390625</LongitudeDegrees>
            </Position>
            <AltitudeMeters>266</AltitudeMeters>
            <DistanceMeters>NAN</DistanceMeters>
          </Trackpoint>
          <Trackpoint>
            <Time>2019-10-08T12:26:23.000Z</Time>
            <Position>
              <LatitudeDegrees>39.624736793339252471923828125</LatitudeDegrees>
              <LongitudeDegrees>-6.48061118088662624359130859375</LongitudeDegrees>
            </Position>
            <AltitudeMeters>266.399993896484375</AltitudeMeters>
            <DistanceMeters>NAN</DistanceMeters>
          </Trackpoint>
          <Trackpoint>
            <Time>2019-10-08T12:26:30.000Z</Time>
            <Position>
              <LatitudeDegrees>39.6241874434053897857666015625</LatitudeDegrees>
              <LongitudeDegrees>-6.48054094053804874420166015625</LongitudeDegrees>
            </Position>
            <AltitudeMeters>266.20001220703125</AltitudeMeters>
            <DistanceMeters>NAN</DistanceMeters>
          </Trackpoint>
          <Trackpoint>
            <Time>2019-10-08T12:26:31.000Z</Time>
            <Position>
              <LatitudeDegrees>39.6241133473813533782958984375</LatitudeDegrees>
              <LongitudeDegrees>-6.480532474815845489501953125</LongitudeDegrees>
            </Position>
            <AltitudeMeters>266.399993896484375</AltitudeMeters>
            <DistanceMeters>NAN</DistanceMeters>
          </Trackpoint>
          <Trackpoint>
            <Time>2019-10-08T12:26:38.000Z</Time>
            <Position>
              <LatitudeDegrees>39.6236412785947322845458984375</LatitudeDegrees>
              <LongitudeDegrees>-6.48049182258546352386474609375</LongitudeDegrees>
            </Position>
            <AltitudeMeters>266.79998779296875</AltitudeMeters>
            <DistanceMeters>NAN</DistanceMeters>
          </Trackpoint>
          <Trackpoint>
            <Time>2019-10-08T12:26:39.000Z</Time>
            <Position>
              <LatitudeDegrees>39.62357950396835803985595703125</LatitudeDegrees>
              <LongitudeDegrees>-6.48048444651067256927490234375</LongitudeDegrees>
            </Position>
            <AltitudeMeters>267</AltitudeMeters>
            <DistanceMeters>NAN</DistanceMeters>
          </Trackpoint>
          <Trackpoint>
            <Time>2019-10-08T12:26:43.000Z</Time>
            <Position>
              <LatitudeDegrees>39.62334766052663326263427734375</LatitudeDegrees>
              <LongitudeDegrees>-6.48045561276376247406005859375</LongitudeDegrees>
            </Position>
            <AltitudeMeters>268.20001220703125</AltitudeMeters>
            <DistanceMeters>NAN</DistanceMeters>
          </Trackpoint>
          <Trackpoint>
            <Time>2019-10-08T12:26:45.000Z</Time>
            <Position>
              <LatitudeDegrees>39.62323785759508609771728515625</LatitudeDegrees>
              <LongitudeDegrees>-6.4804414473474025726318359375</LongitudeDegrees>
            </Position>
            <AltitudeMeters>268.600006103515625</AltitudeMeters>
            <DistanceMeters>NAN</DistanceMeters>
          </Trackpoint>
          <Trackpoint>
            <Time>2019-10-08T12:26:53.000Z</Time>
            <Position>
              <LatitudeDegrees>39.6228064410388469696044921875</LatitudeDegrees>
              <LongitudeDegrees>-6.48038755171000957489013671875</LongitudeDegrees>
            </Position>
            <AltitudeMeters>269.20001220703125</AltitudeMeters>
            <DistanceMeters>NAN</DistanceMeters>
          </Trackpoint>
          <Trackpoint>
            <Time>2019-10-08T12:26:54.000Z</Time>
            <Position>
              <LatitudeDegrees>39.622752629220485687255859375</LatitudeDegrees>
              <LongitudeDegrees>-6.4803804270923137664794921875</LongitudeDegrees>
            </Position>
            <AltitudeMeters>269.399993896484375</AltitudeMeters>
            <DistanceMeters>NAN</DistanceMeters>
          </Trackpoint>
          <Trackpoint>
            <Time>2019-10-08T12:27:01.000Z</Time>
            <Position>
              <LatitudeDegrees>39.6223776228725910186767578125</LatitudeDegrees>
              <LongitudeDegrees>-6.480336673557758331298828125</LongitudeDegrees>
            </Position>
            <AltitudeMeters>270.20001220703125</AltitudeMeters>
            <DistanceMeters>NAN</DistanceMeters>
          </Trackpoint>
          <Trackpoint>
            <Time>2019-10-08T12:27:02.000Z</Time>
            <Position>
              <LatitudeDegrees>39.622324816882610321044921875</LatitudeDegrees>
              <LongitudeDegrees>-6.48033164441585540771484375</LongitudeDegrees>
            </Position>
            <AltitudeMeters>270.399993896484375</AltitudeMeters>
            <DistanceMeters>NAN</DistanceMeters>
          </Trackpoint>
          <Trackpoint>
            <Time>2019-10-08T12:27:04.000Z</Time>
            <Position>
              <LatitudeDegrees>39.6222178637981414794921875</LatitudeDegrees>
              <LongitudeDegrees>-6.48032686673104763031005859375</LongitudeDegrees>
            </Position>
            <AltitudeMeters>270.399993896484375</AltitudeMeters>
            <DistanceMeters>NAN</DistanceMeters>
          </Trackpoint>
          <Trackpoint>
            <Time>2019-10-08T12:27:08.000Z</Time>
            <Position>
              <LatitudeDegrees>39.622005634009838104248046875</LatitudeDegrees>
              <LongitudeDegrees>-6.48030079901218414306640625</LongitudeDegrees>
            </Position>
            <AltitudeMeters>271.399993896484375</AltitudeMeters>
            <DistanceMeters>NAN</DistanceMeters>
          </Trackpoint>
          <Trackpoint>
            <Time>2019-10-08T12:27:11.000Z</Time>
            <Position>
              <LatitudeDegrees>39.62184612639248371124267578125</LatitudeDegrees>
              <LongitudeDegrees>-6.48028193973004817962646484375</LongitudeDegrees>
            </Position>
            <AltitudeMeters>271.399993896484375</AltitudeMeters>
            <DistanceMeters>NAN</DistanceMeters>
          </Trackpoint>
          <Trackpoint>
            <Time>2019-10-08T12:27:21.000Z</Time>
            <Position>
              <LatitudeDegrees>39.621310271322727203369140625</LatitudeDegrees>
              <LongitudeDegrees>-6.4802154712378978729248046875</LongitudeDegrees>
            </Position>
            <AltitudeMeters>271.399993896484375</AltitudeMeters>
            <DistanceMeters>NAN</DistanceMeters>
          </Trackpoint>
          <Trackpoint>
            <Time>2019-10-08T12:27:24.000Z</Time>
            <Position>
              <LatitudeDegrees>39.6211511828005313873291015625</LatitudeDegrees>
              <LongitudeDegrees>-6.4801993779838085174560546875</LongitudeDegrees>
            </Position>
            <AltitudeMeters>271.399993896484375</AltitudeMeters>
            <DistanceMeters>NAN</DistanceMeters>
          </Trackpoint>
          <Trackpoint>
            <Time>2019-10-08T12:27:34.000Z</Time>
            <Position>
              <LatitudeDegrees>39.62059319950640201568603515625</LatitudeDegrees>
              <LongitudeDegrees>-6.48013047873973846435546875</LongitudeDegrees>
            </Position>
            <AltitudeMeters>272</AltitudeMeters>
            <DistanceMeters>NAN</DistanceMeters>
          </Trackpoint>
          <Trackpoint>
            <Time>2019-10-08T12:27:35.000Z</Time>
            <Position>
              <LatitudeDegrees>39.620533771812915802001953125</LatitudeDegrees>
              <LongitudeDegrees>-6.48012201301753520965576171875</LongitudeDegrees>
            </Position>
            <AltitudeMeters>271.79998779296875</AltitudeMeters>
            <DistanceMeters>NAN</DistanceMeters>
          </Trackpoint>
          <Trackpoint>
            <Time>2019-10-08T12:27:44.000Z</Time>
            <Position>
              <LatitudeDegrees>39.6199648082256317138671875</LatitudeDegrees>
              <LongitudeDegrees>-6.48004624061286449432373046875</LongitudeDegrees>
            </Position>
            <AltitudeMeters>270.79998779296875</AltitudeMeters>
            <DistanceMeters>NAN</DistanceMeters>
          </Trackpoint>
          <Trackpoint>
            <Time>2019-10-08T12:27:45.000Z</Time>
            <Position>
              <LatitudeDegrees>39.6198999322950839996337890625</LatitudeDegrees>
              <LongitudeDegrees>-6.48003836162388324737548828125</LongitudeDegrees>
            </Position>
            <AltitudeMeters>270.600006103515625</AltitudeMeters>
            <DistanceMeters>NAN</DistanceMeters>
          </Trackpoint>
          <Trackpoint>
            <Time>2019-10-08T12:27:51.000Z</Time>
            <Position>
              <LatitudeDegrees>39.619508497416973114013671875</LatitudeDegrees>
              <LongitudeDegrees>-6.47998874075710773468017578125</LongitudeDegrees>
            </Position>
            <AltitudeMeters>270.20001220703125</AltitudeMeters>
            <DistanceMeters>NAN</DistanceMeters>
          </Trackpoint>
          <Trackpoint>
            <Time>2019-10-08T12:27:57.000Z</Time>
            <Position>
              <LatitudeDegrees>39.6191197447478771209716796875</LatitudeDegrees>
              <LongitudeDegrees>-6.47994096390902996063232421875</LongitudeDegrees>
            </Position>
            <AltitudeMeters>269.399993896484375</AltitudeMeters>
            <DistanceMeters>NAN</DistanceMeters>
          </Trackpoint>
          <Trackpoint>
            <Time>2019-10-08T12:28:00.000Z</Time>
            <Position>
              <LatitudeDegrees>39.61892419494688510894775390625</LatitudeDegrees>
              <LongitudeDegrees>-6.47991715930402278900146484375</LongitudeDegrees>
            </Position>
            <AltitudeMeters>269</AltitudeMeters>
            <DistanceMeters>NAN</DistanceMeters>
          </Trackpoint>
          <Trackpoint>
            <Time>2019-10-08T12:28:09.000Z</Time>
            <Position>
              <LatitudeDegrees>39.618350453674793243408203125</LatitudeDegrees>
              <LongitudeDegrees>-6.47983903996646404266357421875</LongitudeDegrees>
            </Position>
            <AltitudeMeters>269</AltitudeMeters>
            <DistanceMeters>NAN</DistanceMeters>
          </Trackpoint>
          <Trackpoint>
            <Time>2019-10-08T12:28:10.000Z</Time>
            <Position>
              <LatitudeDegrees>39.6182884275913238525390625</LatitudeDegrees>
              <LongitudeDegrees>-6.4798309095203876495361328125</LongitudeDegrees>
            </Position>
            <AltitudeMeters>269</AltitudeMeters>
            <DistanceMeters>NAN</DistanceMeters>
          </Trackpoint>
          <Trackpoint>
            <Time>2019-10-08T12:28:19.000Z</Time>
            <Position>
              <LatitudeDegrees>39.61773145012557506561279296875</LatitudeDegrees>
              <LongitudeDegrees>-6.479764021933078765869140625</LongitudeDegrees>
            </Position>
            <AltitudeMeters>269.20001220703125</AltitudeMeters>
            <DistanceMeters>NAN</DistanceMeters>
          </Trackpoint>
          <Trackpoint>
            <Time>2019-10-08T12:28:20.000Z</Time>
            <Position>
              <LatitudeDegrees>39.61766925640404224395751953125</LatitudeDegrees>
              <LongitudeDegrees>-6.4797527901828289031982421875</LongitudeDegrees>
            </Position>
            <AltitudeMeters>269.20001220703125</AltitudeMeters>
            <DistanceMeters>NAN</DistanceMeters>
          </Trackpoint>
          <Trackpoint>
            <Time>2019-10-08T12:28:28.000Z</Time>
            <Position>
              <LatitudeDegrees>39.61718813516199588775634765625</LatitudeDegrees>
              <LongitudeDegrees>-6.479703672230243682861328125</LongitudeDegrees>
            </Position>
            <AltitudeMeters>269.600006103515625</AltitudeMeters>
            <DistanceMeters>NAN</DistanceMeters>
          </Trackpoint>
          <Trackpoint>
            <Time>2019-10-08T12:28:35.000Z</Time>
            <Position>
              <LatitudeDegrees>39.6167925931513309478759765625</LatitudeDegrees>
              <LongitudeDegrees>-6.479652039706707000732421875</LongitudeDegrees>
            </Position>
            <AltitudeMeters>270</AltitudeMeters>
            <DistanceMeters>NAN</DistanceMeters>
          </Trackpoint>
          <Trackpoint>
            <Time>2019-10-08T12:28:38.000Z</Time>
            <Position>
              <LatitudeDegrees>39.61662470363080501556396484375</LatitudeDegrees>
              <LongitudeDegrees>-6.479633934795856475830078125</LongitudeDegrees>
            </Position>
            <AltitudeMeters>269.79998779296875</AltitudeMeters>
            <DistanceMeters>NAN</DistanceMeters>
          </Trackpoint>
          <Trackpoint>
            <Time>2019-10-08T12:28:48.000Z</Time>
            <Position>
              <LatitudeDegrees>39.61606554687023162841796875</LatitudeDegrees>
              <LongitudeDegrees>-6.47956528700888156890869140625</LongitudeDegrees>
            </Position>
            <AltitudeMeters>270</AltitudeMeters>
            <DistanceMeters>NAN</DistanceMeters>
          </Trackpoint>
          <Trackpoint>
            <Time>2019-10-08T12:28:50.000Z</Time>
            <Position>
              <LatitudeDegrees>39.6159533970057964324951171875</LatitudeDegrees>
              <LongitudeDegrees>-6.47955154068768024444580078125</LongitudeDegrees>
            </Position>
            <AltitudeMeters>270.20001220703125</AltitudeMeters>
            <DistanceMeters>NAN</DistanceMeters>
          </Trackpoint>
          <Trackpoint>
            <Time>2019-10-08T12:28:59.000Z</Time>
            <Position>
              <LatitudeDegrees>39.61542718112468719482421875</LatitudeDegrees>
              <LongitudeDegrees>-6.47949404083192348480224609375</LongitudeDegrees>
            </Position>
            <AltitudeMeters>270.399993896484375</AltitudeMeters>
            <DistanceMeters>NAN</DistanceMeters>
          </Trackpoint>
          <Trackpoint>
            <Time>2019-10-08T12:29:04.000Z</Time>
            <Position>
              <LatitudeDegrees>39.61517346091568470001220703125</LatitudeDegrees>
              <LongitudeDegrees>-6.4794766902923583984375</LongitudeDegrees>
            </Position>
            <AltitudeMeters>270.600006103515625</AltitudeMeters>
            <DistanceMeters>NAN</DistanceMeters>
          </Trackpoint>
          <Trackpoint>
            <Time>2019-10-08T12:29:08.000Z</Time>
            <Position>
              <LatitudeDegrees>39.61495452560484409332275390625</LatitudeDegrees>
              <LongitudeDegrees>-6.4794577471911907196044921875</LongitudeDegrees>
            </Position>
            <AltitudeMeters>271</AltitudeMeters>
            <DistanceMeters>NAN</DistanceMeters>
          </Trackpoint>
          <Trackpoint>
            <Time>2019-10-08T12:29:12.000Z</Time>
            <Position>
              <LatitudeDegrees>39.61473290808498859405517578125</LatitudeDegrees>
              <LongitudeDegrees>-6.479452215135097503662109375</LongitudeDegrees>
            </Position>
            <AltitudeMeters>271.399993896484375</AltitudeMeters>
            <DistanceMeters>NAN</DistanceMeters>
          </Trackpoint>
          <Trackpoint>
            <Time>2019-10-08T12:29:22.000Z</Time>
            <Position>
              <LatitudeDegrees>39.61418791674077510833740234375</LatitudeDegrees>
              <LongitudeDegrees>-6.47946931421756744384765625</LongitudeDegrees>
            </Position>
            <AltitudeMeters>272.20001220703125</AltitudeMeters>
            <DistanceMeters>NAN</DistanceMeters>
          </Trackpoint>
          <Trackpoint>
            <Time>2019-10-08T12:29:23.000Z</Time>
            <Position>
              <LatitudeDegrees>39.614133350551128387451171875</LatitudeDegrees>
              <LongitudeDegrees>-6.47947342135012149810791015625</LongitudeDegrees>
            </Position>
            <AltitudeMeters>272.20001220703125</AltitudeMeters>
            <DistanceMeters>NAN</DistanceMeters>
          </Trackpoint>
          <Trackpoint>
            <Time>2019-10-08T12:29:33.000Z</Time>
            <Position>
              <LatitudeDegrees>39.61360252462327480316162109375</LatitudeDegrees>
              <LongitudeDegrees>-6.479514576494693756103515625</LongitudeDegrees>
            </Position>
            <AltitudeMeters>272.600006103515625</AltitudeMeters>
            <DistanceMeters>NAN</DistanceMeters>
          </Trackpoint>
          <Trackpoint>
            <Time>2019-10-08T12:29:38.000Z</Time>
            <Position>
              <LatitudeDegrees>39.61334955878555774688720703125</LatitudeDegrees>
              <LongitudeDegrees>-6.479529999196529388427734375</LongitudeDegrees>
            </Position>
            <AltitudeMeters>273.399993896484375</AltitudeMeters>
            <DistanceMeters>NAN</DistanceMeters>
          </Trackpoint>
          <Trackpoint>
            <Time>2019-10-08T12:29:41.000Z</Time>
            <Position>
              <LatitudeDegrees>39.613197259604930877685546875</LatitudeDegrees>
              <LongitudeDegrees>-6.47954701445996761322021484375</LongitudeDegrees>
            </Position>
            <AltitudeMeters>273.399993896484375</AltitudeMeters>
            <DistanceMeters>NAN</DistanceMeters>
          </Trackpoint>
          <Trackpoint>
            <Time>2019-10-08T12:29:50.000Z</Time>
            <Position>
              <LatitudeDegrees>39.61272510699927806854248046875</LatitudeDegrees>
              <LongitudeDegrees>-6.4795935340225696563720703125</LongitudeDegrees>
            </Position>
            <AltitudeMeters>274.20001220703125</AltitudeMeters>
            <DistanceMeters>NAN</DistanceMeters>
          </Trackpoint>
          <Trackpoint>
            <Time>2019-10-08T12:29:51.000Z</Time>
            <Position>
              <LatitudeDegrees>39.61267129518091678619384765625</LatitudeDegrees>
              <LongitudeDegrees>-6.47959998808801174163818359375</LongitudeDegrees>
            </Position>
            <AltitudeMeters>274.399993896484375</AltitudeMeters>
            <DistanceMeters>NAN</DistanceMeters>
          </Trackpoint>
          <Trackpoint>
            <Time>2019-10-08T12:29:59.000Z</Time>
            <Position>
              <LatitudeDegrees>39.61224448867142200469970703125</LatitudeDegrees>
              <LongitudeDegrees>-6.47963686846196651458740234375</LongitudeDegrees>
            </Position>
            <AltitudeMeters>275.399993896484375</AltitudeMeters>
            <DistanceMeters>NAN</DistanceMeters>
          </Trackpoint>
          <Trackpoint>
            <Time>2019-10-08T12:30:09.000Z</Time>
            <Position>
              <LatitudeDegrees>39.61171106435358524322509765625</LatitudeDegrees>
              <LongitudeDegrees>-6.47968431003391742706298828125</LongitudeDegrees>
            </Position>
            <AltitudeMeters>275.600006103515625</AltitudeMeters>
            <DistanceMeters>NAN</DistanceMeters>
          </Trackpoint>
          <Trackpoint>
            <Time>2019-10-08T12:30:10.000Z</Time>
            <Position>
              <LatitudeDegrees>39.6116578392684459686279296875</LatitudeDegrees>
              <LongitudeDegrees>-6.4796900935471057891845703125</LongitudeDegrees>
            </Position>
            <AltitudeMeters>275.79998779296875</AltitudeMeters>
            <DistanceMeters>NAN</DistanceMeters>
          </Trackpoint>
          <Trackpoint>
            <Time>2019-10-08T12:30:15.000Z</Time>
            <Position>
              <LatitudeDegrees>39.6113933064043521881103515625</LatitudeDegrees>
              <LongitudeDegrees>-6.47970358841121196746826171875</LongitudeDegrees>
            </Position>
            <AltitudeMeters>276.399993896484375</AltitudeMeters>
            <DistanceMeters>NAN</DistanceMeters>
          </Trackpoint>
          <Trackpoint>
            <Time>2019-10-08T12:30:20.000Z</Time>
            <Position>
              <LatitudeDegrees>39.61113422177731990814208984375</LatitudeDegrees>
              <LongitudeDegrees>-6.47968615405261516571044921875</LongitudeDegrees>
            </Position>
            <AltitudeMeters>276.399993896484375</AltitudeMeters>
            <DistanceMeters>NAN</DistanceMeters>
          </Trackpoint>
          <Trackpoint>
            <Time>2019-10-08T12:30:29.000Z</Time>
            <Position>
              <LatitudeDegrees>39.61067497730255126953125</LatitudeDegrees>
              <LongitudeDegrees>-6.47957299835979938507080078125</LongitudeDegrees>
            </Position>
            <AltitudeMeters>277</AltitudeMeters>
            <DistanceMeters>NAN</DistanceMeters>
          </Trackpoint>
          <Trackpoint>
            <Time>2019-10-08T12:30:40.000Z</Time>
            <Position>
              <LatitudeDegrees>39.6101169101893901824951171875</LatitudeDegrees>
              <LongitudeDegrees>-6.4793849922716617584228515625</LongitudeDegrees>
            </Position>
            <AltitudeMeters>277.20001220703125</AltitudeMeters>
            <DistanceMeters>NAN</DistanceMeters>
          </Trackpoint>
          <Trackpoint>
            <Time>2019-10-08T12:30:42.000Z</Time>
            <Position>
              <LatitudeDegrees>39.6100156567990779876708984375</LatitudeDegrees>
              <LongitudeDegrees>-6.47935138083994388580322265625</LongitudeDegrees>
            </Position>
            <AltitudeMeters>277.600006103515625</AltitudeMeters>
            <DistanceMeters>NAN</DistanceMeters>
          </Trackpoint>
          <Trackpoint>
            <Time>2019-10-08T12:30:50.000Z</Time>
            <Position>
              <LatitudeDegrees>39.60960871540009975433349609375</LatitudeDegrees>
              <LongitudeDegrees>-6.4792220480740070343017578125</LongitudeDegrees>
            </Position>
            <AltitudeMeters>278.600006103515625</AltitudeMeters>
            <DistanceMeters>NAN</DistanceMeters>
          </Trackpoint>
          <Trackpoint>
            <Time>2019-10-08T12:30:52.000Z</Time>
            <Position>
              <LatitudeDegrees>39.60950612090528011322021484375</LatitudeDegrees>
              <LongitudeDegrees>-6.47918642498552799224853515625</LongitudeDegrees>
            </Position>
            <AltitudeMeters>278.79998779296875</AltitudeMeters>
            <DistanceMeters>NAN</DistanceMeters>
          </Trackpoint>
          <Trackpoint>
            <Time>2019-10-08T12:31:02.000Z</Time>
            <Position>
              <LatitudeDegrees>39.6089907176792621612548828125</LatitudeDegrees>
              <LongitudeDegrees>-6.4790140092372894287109375</LongitudeDegrees>
            </Position>
            <AltitudeMeters>279.399993896484375</AltitudeMeters>
            <DistanceMeters>NAN</DistanceMeters>
          </Trackpoint>
          <Trackpoint>
            <Time>2019-10-08T12:31:05.000Z</Time>
            <Position>
              <LatitudeDegrees>39.6088358201086521148681640625</LatitudeDegrees>
              <LongitudeDegrees>-6.47896212525665760040283203125</LongitudeDegrees>
            </Position>
            <AltitudeMeters>279.600006103515625</AltitudeMeters>
            <DistanceMeters>NAN</DistanceMeters>
          </Trackpoint>
          <Trackpoint>
            <Time>2019-10-08T12:31:14.000Z</Time>
            <Position>
              <LatitudeDegrees>39.6083728037774562835693359375</LatitudeDegrees>
              <LongitudeDegrees>-6.478813849389553070068359375</LongitudeDegrees>
            </Position>
            <AltitudeMeters>280.399993896484375</AltitudeMeters>
            <DistanceMeters>NAN</DistanceMeters>
          </Trackpoint>
          <Trackpoint>
            <Time>2019-10-08T12:31:22.000Z</Time>
            <Position>
              <LatitudeDegrees>39.6079620905220508575439453125</LatitudeDegrees>
              <LongitudeDegrees>-6.47867596708238124847412109375</LongitudeDegrees>
            </Position>
            <AltitudeMeters>280.79998779296875</AltitudeMeters>
            <DistanceMeters>NAN</DistanceMeters>
          </Trackpoint>
          <Trackpoint>
            <Time>2019-10-08T12:31:32.000Z</Time>
            <Position>
              <LatitudeDegrees>39.60743931122124195098876953125</LatitudeDegrees>
              <LongitudeDegrees>-6.47850715555250644683837890625</LongitudeDegrees>
            </Position>
            <AltitudeMeters>281.399993896484375</AltitudeMeters>
            <DistanceMeters>NAN</DistanceMeters>
          </Trackpoint>
          <Trackpoint>
            <Time>2019-10-08T12:31:34.000Z</Time>
            <Position>
              <LatitudeDegrees>39.60733763873577117919921875</LatitudeDegrees>
              <LongitudeDegrees>-6.47847287356853485107421875</LongitudeDegrees>
            </Position>
            <AltitudeMeters>281.399993896484375</AltitudeMeters>
            <DistanceMeters>NAN</DistanceMeters>
          </Trackpoint>
          <Trackpoint>
            <Time>2019-10-08T12:31:36.000Z</Time>
            <Position>
              <LatitudeDegrees>39.60723797790706157684326171875</LatitudeDegrees>
              <LongitudeDegrees>-6.47843532264232635498046875</LongitudeDegrees>
            </Position>
            <AltitudeMeters>282</AltitudeMeters>
            <DistanceMeters>NAN</DistanceMeters>
          </Trackpoint>
          <Trackpoint>
            <Time>2019-10-08T12:31:43.000Z</Time>
            <Position>
              <LatitudeDegrees>39.60690622217953205108642578125</LatitudeDegrees>
              <LongitudeDegrees>-6.4783248491585254669189453125</LongitudeDegrees>
            </Position>
            <AltitudeMeters>282.79998779296875</AltitudeMeters>
            <DistanceMeters>NAN</DistanceMeters>
          </Trackpoint>
          <Trackpoint>
            <Time>2019-10-08T12:31:52.000Z</Time>
            <Position>
              <LatitudeDegrees>39.60650975815951824188232421875</LatitudeDegrees>
              <LongitudeDegrees>-6.478189565241336822509765625</LongitudeDegrees>
            </Position>
            <AltitudeMeters>283.399993896484375</AltitudeMeters>
            <DistanceMeters>NAN</DistanceMeters>
          </Trackpoint>
          <Trackpoint>
            <Time>2019-10-08T12:31:53.000Z</Time>
            <Position>
              <LatitudeDegrees>39.60646734572947025299072265625</LatitudeDegrees>
              <LongitudeDegrees>-6.4781733043491840362548828125</LongitudeDegrees>
            </Position>
            <AltitudeMeters>283.600006103515625</AltitudeMeters>
            <DistanceMeters>NAN</DistanceMeters>
          </Trackpoint>
          <Trackpoint>
            <Time>2019-10-08T12:31:59.000Z</Time>
            <Position>
              <LatitudeDegrees>39.60618353448808193206787109375</LatitudeDegrees>
              <LongitudeDegrees>-6.47807599045336246490478515625</LongitudeDegrees>
            </Position>
            <AltitudeMeters>284.600006103515625</AltitudeMeters>
            <DistanceMeters>NAN</DistanceMeters>
          </Trackpoint>
          <Trackpoint>
            <Time>2019-10-08T12:32:04.000Z</Time>
            <Position>
              <LatitudeDegrees>39.605993516743183135986328125</LatitudeDegrees>
              <LongitudeDegrees>-6.47801312617957592010498046875</LongitudeDegrees>
            </Position>
            <AltitudeMeters>284.399993896484375</AltitudeMeters>
            <DistanceMeters>NAN</DistanceMeters>
          </Trackpoint>
          <Trackpoint>
            <Time>2019-10-08T12:32:14.000Z</Time>
            <Position>
              <LatitudeDegrees>39.60556930862367153167724609375</LatitudeDegrees>
              <LongitudeDegrees>-6.4778601564466953277587890625</LongitudeDegrees>
            </Position>
            <AltitudeMeters>285.600006103515625</AltitudeMeters>
            <DistanceMeters>NAN</DistanceMeters>
          </Trackpoint>
          <Trackpoint>
            <Time>2019-10-08T12:32:16.000Z</Time>
            <Position>
              <LatitudeDegrees>39.60548766888678073883056640625</LatitudeDegrees>
              <LongitudeDegrees>-6.47783182561397552490234375</LongitudeDegrees>
            </Position>
            <AltitudeMeters>286</AltitudeMeters>
            <DistanceMeters>NAN</DistanceMeters>
          </Trackpoint>
          <Trackpoint>
            <Time>2019-10-08T12:32:21.000Z</Time>
            <Position>
              <LatitudeDegrees>39.605284072458744049072265625</LatitudeDegrees>
              <LongitudeDegrees>-6.47775345481932163238525390625</LongitudeDegrees>
            </Position>
            <AltitudeMeters>286.79998779296875</AltitudeMeters>
            <DistanceMeters>NAN</DistanceMeters>
          </Trackpoint>
          <Trackpoint>
            <Time>2019-10-08T12:32:27.000Z</Time>
            <Position>
              <LatitudeDegrees>39.605037309229373931884765625</LatitudeDegrees>
              <LongitudeDegrees>-6.47764130495488643646240234375</LongitudeDegrees>
            </Position>
            <AltitudeMeters>287.600006103515625</AltitudeMeters>
            <DistanceMeters>NAN</DistanceMeters>
          </Trackpoint>
          <Trackpoint>
            <Time>2019-10-08T12:32:32.000Z</Time>
            <Position>
              <LatitudeDegrees>39.604835808277130126953125</LatitudeDegrees>
              <LongitudeDegrees>-6.477537788450717926025390625</LongitudeDegrees>
            </Position>
            <AltitudeMeters>288</AltitudeMeters>
            <DistanceMeters>NAN</DistanceMeters>
          </Trackpoint>
          <Trackpoint>
            <Time>2019-10-08T12:32:38.000Z</Time>
            <Position>
              <LatitudeDegrees>39.60459373891353607177734375</LatitudeDegrees>
              <LongitudeDegrees>-6.47741465829312801361083984375</LongitudeDegrees>
            </Position>
            <AltitudeMeters>288.79998779296875</AltitudeMeters>
            <DistanceMeters>NAN</DistanceMeters>
          </Trackpoint>
          <Trackpoint>
            <Time>2019-10-08T12:32:44.000Z</Time>
            <Position>
              <LatitudeDegrees>39.604349322617053985595703125</LatitudeDegrees>
              <LongitudeDegrees>-6.47728641517460346221923828125</LongitudeDegrees>
            </Position>
            <AltitudeMeters>289</AltitudeMeters>
            <DistanceMeters>NAN</DistanceMeters>
          </Trackpoint>
          <Trackpoint>
            <Time>2019-10-08T12:32:49.000Z</Time>
            <Position>
              <LatitudeDegrees>39.6041476540267467498779296875</LatitudeDegrees>
              <LongitudeDegrees>-6.477178037166595458984375</LongitudeDegrees>
            </Position>
            <AltitudeMeters>290</AltitudeMeters>
            <DistanceMeters>NAN</DistanceMeters>
          </Trackpoint>
          <Trackpoint>
            <Time>2019-10-08T12:32:51.000Z</Time>
            <Position>
              <LatitudeDegrees>39.60406601428985595703125</LatitudeDegrees>
              <LongitudeDegrees>-6.47713311016559600830078125</LongitudeDegrees>
            </Position>
            <AltitudeMeters>290.20001220703125</AltitudeMeters>
            <DistanceMeters>NAN</DistanceMeters>
          </Trackpoint>
          <Trackpoint>
            <Time>2019-10-08T12:33:01.000Z</Time>
            <Position>
              <LatitudeDegrees>39.60366007871925830841064453125</LatitudeDegrees>
              <LongitudeDegrees>-6.47692113183438777923583984375</LongitudeDegrees>
            </Position>
            <AltitudeMeters>291.20001220703125</AltitudeMeters>
            <DistanceMeters>NAN</DistanceMeters>
          </Trackpoint>
          <Trackpoint>
            <Time>2019-10-08T12:33:02.000Z</Time>
            <Position>
              <LatitudeDegrees>39.60362009704113006591796875</LatitudeDegrees>
              <LongitudeDegrees>-6.4769009314477443695068359375</LongitudeDegrees>
            </Position>
            <AltitudeMeters>291.600006103515625</AltitudeMeters>
            <DistanceMeters>NAN</DistanceMeters>
          </Trackpoint>
          <Trackpoint>
            <Time>2019-10-08T12:33:10.000Z</Time>
            <Position>
              <LatitudeDegrees>39.60330485366284847259521484375</LatitudeDegrees>
              <LongitudeDegrees>-6.47673773579299449920654296875</LongitudeDegrees>
            </Position>
            <AltitudeMeters>292.600006103515625</AltitudeMeters>
            <DistanceMeters>NAN</DistanceMeters>
          </Trackpoint>
          <Trackpoint>
            <Time>2019-10-08T12:33:12.000Z</Time>
            <Position>
              <LatitudeDegrees>39.60322405211627483367919921875</LatitudeDegrees>
              <LongitudeDegrees>-6.4766979217529296875</LongitudeDegrees>
            </Position>
            <AltitudeMeters>293</AltitudeMeters>
            <DistanceMeters>NAN</DistanceMeters>
          </Trackpoint>
          <Trackpoint>
            <Time>2019-10-08T12:33:19.000Z</Time>
            <Position>
              <LatitudeDegrees>39.60295566357672214508056640625</LatitudeDegrees>
              <LongitudeDegrees>-6.4765579439699649810791015625</LongitudeDegrees>
            </Position>
            <AltitudeMeters>293.600006103515625</AltitudeMeters>
            <DistanceMeters>NAN</DistanceMeters>
          </Trackpoint>
          <Trackpoint>
            <Time>2019-10-08T12:33:27.000Z</Time>
            <Position>
              <LatitudeDegrees>39.60265441797673702239990234375</LatitudeDegrees>
              <LongitudeDegrees>-6.4763854444026947021484375</LongitudeDegrees>
            </Position>
            <AltitudeMeters>294.79998779296875</AltitudeMeters>
            <DistanceMeters>NAN</DistanceMeters>
          </Trackpoint>
          <Trackpoint>
            <Time>2019-10-08T12:33:33.000Z</Time>
            <Position>
              <LatitudeDegrees>39.6024206466972827911376953125</LatitudeDegrees>
              <LongitudeDegrees>-6.47628326900303363800048828125</LongitudeDegrees>
            </Position>
            <AltitudeMeters>295.79998779296875</AltitudeMeters>
            <DistanceMeters>NAN</DistanceMeters>
          </Trackpoint>
          <Trackpoint>
            <Time>2019-10-08T12:33:37.000Z</Time>
            <Position>
              <LatitudeDegrees>39.6022660844027996063232421875</LatitudeDegrees>
              <LongitudeDegrees>-6.47619794122874736785888671875</LongitudeDegrees>
            </Position>
            <AltitudeMeters>296.399993896484375</AltitudeMeters>
            <DistanceMeters>NAN</DistanceMeters>
          </Trackpoint>
          <Trackpoint>
            <Time>2019-10-08T12:33:39.000Z</Time>
            <Position>
              <LatitudeDegrees>39.60218922235071659088134765625</LatitudeDegrees>
              <LongitudeDegrees>-6.4761547744274139404296875</LongitudeDegrees>
            </Position>
            <AltitudeMeters>297</AltitudeMeters>
            <DistanceMeters>NAN</DistanceMeters>
          </Trackpoint>
          <Trackpoint>
            <Time>2019-10-08T12:33:45.000Z</Time>
            <Position>
              <LatitudeDegrees>39.6019564568996429443359375</LatitudeDegrees>
              <LongitudeDegrees>-6.47603700868785381317138671875</LongitudeDegrees>
            </Position>
            <AltitudeMeters>297.79998779296875</AltitudeMeters>
            <DistanceMeters>NAN</DistanceMeters>
          </Trackpoint>
          <Trackpoint>
            <Time>2019-10-08T12:33:47.000Z</Time>
            <Position>
              <LatitudeDegrees>39.601880013942718505859375</LatitudeDegrees>
              <LongitudeDegrees>-6.47599761374294757843017578125</LongitudeDegrees>
            </Position>
            <AltitudeMeters>298.20001220703125</AltitudeMeters>
            <DistanceMeters>NAN</DistanceMeters>
          </Trackpoint>
          <Trackpoint>
            <Time>2019-10-08T12:33:52.000Z</Time>
            <Position>
              <LatitudeDegrees>39.6016907505691051483154296875</LatitudeDegrees>
              <LongitudeDegrees>-6.4758977852761745452880859375</LongitudeDegrees>
            </Position>
            <AltitudeMeters>299.20001220703125</AltitudeMeters>
            <DistanceMeters>NAN</DistanceMeters>
          </Trackpoint>
          <Trackpoint>
            <Time>2019-10-08T12:33:57.000Z</Time>
            <Position>
              <LatitudeDegrees>39.60150240920484066009521484375</LatitudeDegrees>
              <LongitudeDegrees>-6.4757988788187503814697265625</LongitudeDegrees>
            </Position>
            <AltitudeMeters>300</AltitudeMeters>
            <DistanceMeters>NAN</DistanceMeters>
          </Trackpoint>
          <Trackpoint>
            <Time>2019-10-08T12:34:03.000Z</Time>
            <Position>
              <LatitudeDegrees>39.601272158324718475341796875</LatitudeDegrees>
              <LongitudeDegrees>-6.47567289881408214569091796875</LongitudeDegrees>
            </Position>
            <AltitudeMeters>300.399993896484375</AltitudeMeters>
            <DistanceMeters>NAN</DistanceMeters>
          </Trackpoint>
          <Trackpoint>
            <Time>2019-10-08T12:34:07.000Z</Time>
            <Position>
              <LatitudeDegrees>39.60111784748733043670654296875</LatitudeDegrees>
              <LongitudeDegrees>-6.47558924742043018341064453125</LongitudeDegrees>
            </Position>
            <AltitudeMeters>300.399993896484375</AltitudeMeters>
            <DistanceMeters>NAN</DistanceMeters>
          </Trackpoint>
          <Trackpoint>
            <Time>2019-10-08T12:34:14.000Z</Time>
            <Position>
              <LatitudeDegrees>39.60084258578717708587646484375</LatitudeDegrees>
              <LongitudeDegrees>-6.47545748390257358551025390625</LongitudeDegrees>
            </Position>
            <AltitudeMeters>301.600006103515625</AltitudeMeters>
            <DistanceMeters>NAN</DistanceMeters>
          </Trackpoint>
          <Trackpoint>
            <Time>2019-10-08T12:34:18.000Z</Time>
            <Position>
              <LatitudeDegrees>39.60068483836948871612548828125</LatitudeDegrees>
              <LongitudeDegrees>-6.47537467069923877716064453125</LongitudeDegrees>
            </Position>
            <AltitudeMeters>301.79998779296875</AltitudeMeters>
            <DistanceMeters>NAN</DistanceMeters>
          </Trackpoint>
          <Trackpoint>
            <Time>2019-10-08T12:34:26.000Z</Time>
            <Position>
              <LatitudeDegrees>39.6003573574125766754150390625</LatitudeDegrees>
              <LongitudeDegrees>-6.47521792910993099212646484375</LongitudeDegrees>
            </Position>
            <AltitudeMeters>302.600006103515625</AltitudeMeters>
            <DistanceMeters>NAN</DistanceMeters>
          </Trackpoint>
          <Trackpoint>
            <Time>2019-10-08T12:34:29.000Z</Time>
            <Position>
              <LatitudeDegrees>39.60023221559822559356689453125</LatitudeDegrees>
              <LongitudeDegrees>-6.47516042925417423248291015625</LongitudeDegrees>
            </Position>
            <AltitudeMeters>302.600006103515625</AltitudeMeters>
            <DistanceMeters>NAN</DistanceMeters>
          </Trackpoint>
          <Trackpoint>
            <Time>2019-10-08T12:34:39.000Z</Time>
            <Position>
              <LatitudeDegrees>39.599810354411602020263671875</LatitudeDegrees>
              <LongitudeDegrees>-6.47497837431728839874267578125</LongitudeDegrees>
            </Position>
            <AltitudeMeters>302.79998779296875</AltitudeMeters>
            <DistanceMeters>NAN</DistanceMeters>
          </Trackpoint>
          <Trackpoint>
            <Time>2019-10-08T12:34:50.000Z</Time>
            <Position>
              <LatitudeDegrees>39.5993102900683879852294921875</LatitudeDegrees>
              <LongitudeDegrees>-6.474783159792423248291015625</LongitudeDegrees>
            </Position>
            <AltitudeMeters>302.600006103515625</AltitudeMeters>
            <DistanceMeters>NAN</DistanceMeters>
          </Trackpoint>
          <Trackpoint>
            <Time>2019-10-08T12:34:56.000Z</Time>
            <Position>
              <LatitudeDegrees>39.59899068810045719146728515625</LatitudeDegrees>
              <LongitudeDegrees>-6.47468291223049163818359375</LongitudeDegrees>
            </Position>
            <AltitudeMeters>301.600006103515625</AltitudeMeters>
            <DistanceMeters>NAN</DistanceMeters>
          </Trackpoint>
          <Trackpoint>
            <Time>2019-10-08T12:35:00.000Z</Time>
            <Position>
              <LatitudeDegrees>39.59876756183803081512451171875</LatitudeDegrees>
              <LongitudeDegrees>-6.47461275570094585418701171875</LongitudeDegrees>
            </Position>
            <AltitudeMeters>301.79998779296875</AltitudeMeters>
            <DistanceMeters>NAN</DistanceMeters>
          </Trackpoint>
          <Trackpoint>
            <Time>2019-10-08T12:35:05.000Z</Time>
            <Position>
              <LatitudeDegrees>39.59846019744873046875</LatitudeDegrees>
              <LongitudeDegrees>-6.4745141007006168365478515625</LongitudeDegrees>
            </Position>
            <AltitudeMeters>300.600006103515625</AltitudeMeters>
            <DistanceMeters>NAN</DistanceMeters>
          </Trackpoint>
          <Trackpoint>
            <Time>2019-10-08T12:35:08.000Z</Time>
            <Position>
              <LatitudeDegrees>39.5982612110674381256103515625</LatitudeDegrees>
              <LongitudeDegrees>-6.47445224225521087646484375</LongitudeDegrees>
            </Position>
            <AltitudeMeters>300</AltitudeMeters>
            <DistanceMeters>NAN</DistanceMeters>
          </Trackpoint>
          <Trackpoint>
            <Time>2019-10-08T12:35:13.000Z</Time>
            <Position>
              <LatitudeDegrees>39.59792233072221279144287109375</LatitudeDegrees>
              <LongitudeDegrees>-6.47435006685554981231689453125</LongitudeDegrees>
            </Position>
            <AltitudeMeters>299.79998779296875</AltitudeMeters>
            <DistanceMeters>NAN</DistanceMeters>
          </Trackpoint>
          <Trackpoint>
            <Time>2019-10-08T12:35:16.000Z</Time>
            <Position>
              <LatitudeDegrees>39.59771412424743175506591796875</LatitudeDegrees>
              <LongitudeDegrees>-6.47428594529628753662109375</LongitudeDegrees>
            </Position>
            <AltitudeMeters>299.20001220703125</AltitudeMeters>
            <DistanceMeters>NAN</DistanceMeters>
          </Trackpoint>
          <Trackpoint>
            <Time>2019-10-08T12:35:18.000Z</Time>
            <Position>
              <LatitudeDegrees>39.59757297299802303314208984375</LatitudeDegrees>
              <LongitudeDegrees>-6.47424034774303436279296875</LongitudeDegrees>
            </Position>
            <AltitudeMeters>298.399993896484375</AltitudeMeters>
            <DistanceMeters>NAN</DistanceMeters>
          </Trackpoint>
          <Trackpoint>
            <Time>2019-10-08T12:35:20.000Z</Time>
            <Position>
              <LatitudeDegrees>39.5974324084818363189697265625</LatitudeDegrees>
              <LongitudeDegrees>-6.47419248707592487335205078125</LongitudeDegrees>
            </Position>
            <AltitudeMeters>298.20001220703125</AltitudeMeters>
            <DistanceMeters>NAN</DistanceMeters>
          </Trackpoint>
          <Trackpoint>
            <Time>2019-10-08T12:35:25.000Z</Time>
            <Position>
              <LatitudeDegrees>39.59707626141607761383056640625</LatitudeDegrees>
              <LongitudeDegrees>-6.4740795828402042388916015625</LongitudeDegrees>
            </Position>
            <AltitudeMeters>297</AltitudeMeters>
            <DistanceMeters>NAN</DistanceMeters>
          </Trackpoint>
          <Trackpoint>
            <Time>2019-10-08T12:35:26.000Z</Time>
            <Position>
              <LatitudeDegrees>39.59700451232492923736572265625</LatitudeDegrees>
              <LongitudeDegrees>-6.4740547724068164825439453125</LongitudeDegrees>
            </Position>
            <AltitudeMeters>296.79998779296875</AltitudeMeters>
            <DistanceMeters>NAN</DistanceMeters>
          </Trackpoint>
          <Trackpoint>
            <Time>2019-10-08T12:35:29.000Z</Time>
            <Position>
              <LatitudeDegrees>39.59679144434630870819091796875</LatitudeDegrees>
              <LongitudeDegrees>-6.473987884819507598876953125</LongitudeDegrees>
            </Position>
            <AltitudeMeters>295.79998779296875</AltitudeMeters>
            <DistanceMeters>NAN</DistanceMeters>
          </Trackpoint>
          <Trackpoint>
            <Time>2019-10-08T12:35:33.000Z</Time>
            <Position>
              <LatitudeDegrees>39.59651819430291652679443359375</LatitudeDegrees>
              <LongitudeDegrees>-6.47390264086425304412841796875</LongitudeDegrees>
            </Position>
            <AltitudeMeters>295.79998779296875</AltitudeMeters>
            <DistanceMeters>NAN</DistanceMeters>
          </Trackpoint>
          <Trackpoint>
            <Time>2019-10-08T12:35:35.000Z</Time>
            <Position>
              <LatitudeDegrees>39.59638458676636219024658203125</LatitudeDegrees>
              <LongitudeDegrees>-6.47386089898645877838134765625</LongitudeDegrees>
            </Position>
            <AltitudeMeters>296.20001220703125</AltitudeMeters>
            <DistanceMeters>NAN</DistanceMeters>
          </Trackpoint>
          <Trackpoint>
            <Time>2019-10-08T12:35:43.000Z</Time>
            <Position>
              <LatitudeDegrees>39.59588334895670413970947265625</LatitudeDegrees>
              <LongitudeDegrees>-6.4736561290919780731201171875</LongitudeDegrees>
            </Position>
            <AltitudeMeters>296</AltitudeMeters>
            <DistanceMeters>NAN</DistanceMeters>
          </Trackpoint>
          <Trackpoint>
            <Time>2019-10-08T12:35:52.000Z</Time>
            <Position>
              <LatitudeDegrees>39.595362246036529541015625</LatitudeDegrees>
              <LongitudeDegrees>-6.473352871835231781005859375</LongitudeDegrees>
            </Position>
            <AltitudeMeters>296.20001220703125</AltitudeMeters>
            <DistanceMeters>NAN</DistanceMeters>
          </Trackpoint>
          <Trackpoint>
            <Time>2019-10-08T12:35:53.000Z</Time>
            <Position>
              <LatitudeDegrees>39.59530700929462909698486328125</LatitudeDegrees>
              <LongitudeDegrees>-6.4733134768903255462646484375</LongitudeDegrees>
            </Position>
            <AltitudeMeters>296.20001220703125</AltitudeMeters>
            <DistanceMeters>NAN</DistanceMeters>
          </Trackpoint>
          <Trackpoint>
            <Time>2019-10-08T12:35:59.000Z</Time>
            <Position>
              <LatitudeDegrees>39.59498279727995395660400390625</LatitudeDegrees>
              <LongitudeDegrees>-6.4730797894299030303955078125</LongitudeDegrees>
            </Position>
            <AltitudeMeters>295.600006103515625</AltitudeMeters>
            <DistanceMeters>NAN</DistanceMeters>
          </Trackpoint>
          <Trackpoint>
            <Time>2019-10-08T12:36:02.000Z</Time>
            <Position>
              <LatitudeDegrees>39.5948279835283756256103515625</LatitudeDegrees>
              <LongitudeDegrees>-6.47297241725027561187744140625</LongitudeDegrees>
            </Position>
            <AltitudeMeters>297.399993896484375</AltitudeMeters>
            <DistanceMeters>NAN</DistanceMeters>
          </Trackpoint>
          <Trackpoint>
            <Time>2019-10-08T12:36:06.000Z</Time>
            <Position>
              <LatitudeDegrees>39.5946335233747959136962890625</LatitudeDegrees>
              <LongitudeDegrees>-6.47282690741121768951416015625</LongitudeDegrees>
            </Position>
            <AltitudeMeters>296.79998779296875</AltitudeMeters>
            <DistanceMeters>NAN</DistanceMeters>
          </Trackpoint>
          <Trackpoint>
            <Time>2019-10-08T12:36:16.000Z</Time>
            <Position>
              <LatitudeDegrees>39.59415483288466930389404296875</LatitudeDegrees>
              <LongitudeDegrees>-6.4724816568195819854736328125</LongitudeDegrees>
            </Position>
            <AltitudeMeters>298</AltitudeMeters>
            <DistanceMeters>NAN</DistanceMeters>
          </Trackpoint>
          <Trackpoint>
            <Time>2019-10-08T12:36:17.000Z</Time>
            <Position>
              <LatitudeDegrees>39.5941081456840038299560546875</LatitudeDegrees>
              <LongitudeDegrees>-6.47244653664529323577880859375</LongitudeDegrees>
            </Position>
            <AltitudeMeters>298.399993896484375</AltitudeMeters>
            <DistanceMeters>NAN</DistanceMeters>
          </Trackpoint>
          <Trackpoint>
            <Time>2019-10-08T12:36:25.000Z</Time>
            <Position>
              <LatitudeDegrees>39.59372383542358875274658203125</LatitudeDegrees>
              <LongitudeDegrees>-6.4721668325364589691162109375</LongitudeDegrees>
            </Position>
            <AltitudeMeters>298.600006103515625</AltitudeMeters>
            <DistanceMeters>NAN</DistanceMeters>
          </Trackpoint>
          <Trackpoint>
            <Time>2019-10-08T12:36:28.000Z</Time>
            <Position>
              <LatitudeDegrees>39.59358234889805316925048828125</LatitudeDegrees>
              <LongitudeDegrees>-6.47205493412911891937255859375</LongitudeDegrees>
            </Position>
            <AltitudeMeters>298.79998779296875</AltitudeMeters>
            <DistanceMeters>NAN</DistanceMeters>
          </Trackpoint>
          <Trackpoint>
            <Time>2019-10-08T12:36:36.000Z</Time>
            <Position>
              <LatitudeDegrees>39.593192674219608306884765625</LatitudeDegrees>
              <LongitudeDegrees>-6.4717809297144412994384765625</LongitudeDegrees>
            </Position>
            <AltitudeMeters>299.600006103515625</AltitudeMeters>
            <DistanceMeters>NAN</DistanceMeters>
          </Trackpoint>
          <Trackpoint>
            <Time>2019-10-08T12:36:38.000Z</Time>
            <Position>
              <LatitudeDegrees>39.593099467456340789794921875</LatitudeDegrees>
              <LongitudeDegrees>-6.471710018813610076904296875</LongitudeDegrees>
            </Position>
            <AltitudeMeters>299.79998779296875</AltitudeMeters>
            <DistanceMeters>NAN</DistanceMeters>
          </Trackpoint>
          <Trackpoint>
            <Time>2019-10-08T12:36:45.000Z</Time>
            <Position>
              <LatitudeDegrees>39.592776931822299957275390625</LatitudeDegrees>
              <LongitudeDegrees>-6.47144691087305545806884765625</LongitudeDegrees>
            </Position>
            <AltitudeMeters>300</AltitudeMeters>
            <DistanceMeters>NAN</DistanceMeters>
          </Trackpoint>
          <Trackpoint>
            <Time>2019-10-08T12:36:54.000Z</Time>
            <Position>
              <LatitudeDegrees>39.59238289855420589447021484375</LatitudeDegrees>
              <LongitudeDegrees>-6.47109604440629482269287109375</LongitudeDegrees>
            </Position>
            <AltitudeMeters>300.399993896484375</AltitudeMeters>
            <DistanceMeters>NAN</DistanceMeters>
          </Trackpoint>
          <Trackpoint>
            <Time>2019-10-08T12:36:57.000Z</Time>
            <Position>
              <LatitudeDegrees>39.59226303733885288238525390625</LatitudeDegrees>
              <LongitudeDegrees>-6.47098322398960590362548828125</LongitudeDegrees>
            </Position>
            <AltitudeMeters>300.79998779296875</AltitudeMeters>
            <DistanceMeters>NAN</DistanceMeters>
          </Trackpoint>
          <Trackpoint>
            <Time>2019-10-08T12:37:02.000Z</Time>
            <Position>
              <LatitudeDegrees>39.5920659787952899932861328125</LatitudeDegrees>
              <LongitudeDegrees>-6.47078792564570903778076171875</LongitudeDegrees>
            </Position>
            <AltitudeMeters>301.600006103515625</AltitudeMeters>
            <DistanceMeters>NAN</DistanceMeters>
          </Trackpoint>
          <Trackpoint>
            <Time>2019-10-08T12:37:06.000Z</Time>
            <Position>
              <LatitudeDegrees>39.59191284142434597015380859375</LatitudeDegrees>
              <LongitudeDegrees>-6.47063051350414752960205078125</LongitudeDegrees>
            </Position>
            <AltitudeMeters>302</AltitudeMeters>
            <DistanceMeters>NAN</DistanceMeters>
          </Trackpoint>
          <Trackpoint>
            <Time>2019-10-08T12:37:10.000Z</Time>
            <Position>
              <LatitudeDegrees>39.59176179952919483184814453125</LatitudeDegrees>
              <LongitudeDegrees>-6.4704867638647556304931640625</LongitudeDegrees>
            </Position>
            <AltitudeMeters>302.79998779296875</AltitudeMeters>
            <DistanceMeters>NAN</DistanceMeters>
          </Trackpoint>
          <Trackpoint>
            <Time>2019-10-08T12:37:12.000Z</Time>
            <Position>
              <LatitudeDegrees>39.59168770350515842437744140625</LatitudeDegrees>
              <LongitudeDegrees>-6.47041543386876583099365234375</LongitudeDegrees>
            </Position>
            <AltitudeMeters>303.20001220703125</AltitudeMeters>
            <DistanceMeters>NAN</DistanceMeters>
          </Trackpoint>
          <Trackpoint>
            <Time>2019-10-08T12:37:21.000Z</Time>
            <Position>
              <LatitudeDegrees>39.59137254394590854644775390625</LatitudeDegrees>
              <LongitudeDegrees>-6.47009792737662792205810546875</LongitudeDegrees>
            </Position>
            <AltitudeMeters>303.79998779296875</AltitudeMeters>
            <DistanceMeters>NAN</DistanceMeters>
          </Trackpoint>
          <Trackpoint>
            <Time>2019-10-08T12:37:23.000Z</Time>
            <Position>
              <LatitudeDegrees>39.5913028903305530548095703125</LatitudeDegrees>
              <LongitudeDegrees>-6.4700287766754627227783203125</LongitudeDegrees>
            </Position>
            <AltitudeMeters>304.20001220703125</AltitudeMeters>
            <DistanceMeters>NAN</DistanceMeters>
          </Trackpoint>
          <Trackpoint>
            <Time>2019-10-08T12:37:31.000Z</Time>
            <Position>
              <LatitudeDegrees>39.59101899527013301849365234375</LatitudeDegrees>
              <LongitudeDegrees>-6.4697528444230556488037109375</LongitudeDegrees>
            </Position>
            <AltitudeMeters>304.79998779296875</AltitudeMeters>
            <DistanceMeters>NAN</DistanceMeters>
          </Trackpoint>
          <Trackpoint>
            <Time>2019-10-08T12:37:34.000Z</Time>
            <Position>
              <LatitudeDegrees>39.59091539494693279266357421875</LatitudeDegrees>
              <LongitudeDegrees>-6.46964983083307743072509765625</LongitudeDegrees>
            </Position>
            <AltitudeMeters>305.399993896484375</AltitudeMeters>
            <DistanceMeters>NAN</DistanceMeters>
          </Trackpoint>
          <Trackpoint>
            <Time>2019-10-08T12:37:42.000Z</Time>
            <Position>
              <LatitudeDegrees>39.59063820540904998779296875</LatitudeDegrees>
              <LongitudeDegrees>-6.46938211284577846527099609375</LongitudeDegrees>
            </Position>
            <AltitudeMeters>306.399993896484375</AltitudeMeters>
            <DistanceMeters>NAN</DistanceMeters>
          </Trackpoint>
          <Trackpoint>
            <Time>2019-10-08T12:37:43.000Z</Time>
            <Position>
              <LatitudeDegrees>39.59060425870120525360107421875</LatitudeDegrees>
              <LongitudeDegrees>-6.46934808231890201568603515625</LongitudeDegrees>
            </Position>
            <AltitudeMeters>306.399993896484375</AltitudeMeters>
            <DistanceMeters>NAN</DistanceMeters>
          </Trackpoint>
          <Trackpoint>
            <Time>2019-10-08T12:37:52.000Z</Time>
            <Position>
              <LatitudeDegrees>39.59029664285480976104736328125</LatitudeDegrees>
              <LongitudeDegrees>-6.4690413884818553924560546875</LongitudeDegrees>
            </Position>
            <AltitudeMeters>307.600006103515625</AltitudeMeters>
            <DistanceMeters>NAN</DistanceMeters>
          </Trackpoint>
          <Trackpoint>
            <Time>2019-10-08T12:37:53.000Z</Time>
            <Position>
              <LatitudeDegrees>39.59026177413761615753173828125</LatitudeDegrees>
              <LongitudeDegrees>-6.469007693231105804443359375</LongitudeDegrees>
            </Position>
            <AltitudeMeters>307.79998779296875</AltitudeMeters>
            <DistanceMeters>NAN</DistanceMeters>
          </Trackpoint>
          <Trackpoint>
            <Time>2019-10-08T12:37:56.000Z</Time>
            <Position>
              <LatitudeDegrees>39.59015767090022563934326171875</LatitudeDegrees>
              <LongitudeDegrees>-6.4689092896878719329833984375</LongitudeDegrees>
            </Position>
            <AltitudeMeters>308.600006103515625</AltitudeMeters>
            <DistanceMeters>NAN</DistanceMeters>
          </Trackpoint>
          <Trackpoint>
            <Time>2019-10-08T12:38:03.000Z</Time>
            <Position>
              <LatitudeDegrees>39.58992280997335910797119140625</LatitudeDegrees>
              <LongitudeDegrees>-6.4686766080558300018310546875</LongitudeDegrees>
            </Position>
            <AltitudeMeters>309.600006103515625</AltitudeMeters>
            <DistanceMeters>NAN</DistanceMeters>
          </Trackpoint>
          <Trackpoint>
            <Time>2019-10-08T12:38:05.000Z</Time>
            <Position>
              <LatitudeDegrees>39.58985759876668453216552734375</LatitudeDegrees>
              <LongitudeDegrees>-6.4686209522187709808349609375</LongitudeDegrees>
            </Position>
            <AltitudeMeters>309.600006103515625</AltitudeMeters>
            <DistanceMeters>NAN</DistanceMeters>
          </Trackpoint>
          <Trackpoint>
            <Time>2019-10-08T12:38:10.000Z</Time>
            <Position>
              <LatitudeDegrees>39.58969750441610813140869140625</LatitudeDegrees>
              <LongitudeDegrees>-6.468461863696575164794921875</LongitudeDegrees>
            </Position>
            <AltitudeMeters>310.399993896484375</AltitudeMeters>
            <DistanceMeters>NAN</DistanceMeters>
          </Trackpoint>
          <Trackpoint>
            <Time>2019-10-08T12:38:12.000Z</Time>
            <Position>
              <LatitudeDegrees>39.58963631652295589447021484375</LatitudeDegrees>
              <LongitudeDegrees>-6.468396484851837158203125</LongitudeDegrees>
            </Position>
            <AltitudeMeters>310.79998779296875</AltitudeMeters>
            <DistanceMeters>NAN</DistanceMeters>
          </Trackpoint>
          <Trackpoint>
            <Time>2019-10-08T12:38:18.000Z</Time>
            <Position>
              <LatitudeDegrees>39.58943682722747325897216796875</LatitudeDegrees>
              <LongitudeDegrees>-6.46820596419274806976318359375</LongitudeDegrees>
            </Position>
            <AltitudeMeters>311.399993896484375</AltitudeMeters>
            <DistanceMeters>NAN</DistanceMeters>
          </Trackpoint>
          <Trackpoint>
            <Time>2019-10-08T12:38:22.000Z</Time>
            <Position>
              <LatitudeDegrees>39.58930372260510921478271484375</LatitudeDegrees>
              <LongitudeDegrees>-6.46807193756103515625</LongitudeDegrees>
            </Position>
            <AltitudeMeters>311.79998779296875</AltitudeMeters>
            <DistanceMeters>NAN</DistanceMeters>
          </Trackpoint>
          <Trackpoint>
            <Time>2019-10-08T12:38:29.000Z</Time>
            <Position>
              <LatitudeDegrees>39.58907288499176502227783203125</LatitudeDegrees>
              <LongitudeDegrees>-6.46783900447189807891845703125</LongitudeDegrees>
            </Position>
            <AltitudeMeters>312.79998779296875</AltitudeMeters>
            <DistanceMeters>NAN</DistanceMeters>
          </Trackpoint>
          <Trackpoint>
            <Time>2019-10-08T12:38:30.000Z</Time>
            <Position>
              <LatitudeDegrees>39.58904069848358631134033203125</LatitudeDegrees>
              <LongitudeDegrees>-6.4678062312304973602294921875</LongitudeDegrees>
            </Position>
            <AltitudeMeters>313.20001220703125</AltitudeMeters>
            <DistanceMeters>NAN</DistanceMeters>
          </Trackpoint>
          <Trackpoint>
            <Time>2019-10-08T12:38:39.000Z</Time>
            <Position>
              <LatitudeDegrees>39.58875185810029506683349609375</LatitudeDegrees>
              <LongitudeDegrees>-6.46749350242316722869873046875</LongitudeDegrees>
            </Position>
            <AltitudeMeters>313.600006103515625</AltitudeMeters>
            <DistanceMeters>NAN</DistanceMeters>
          </Trackpoint>
          <Trackpoint>
            <Time>2019-10-08T12:38:49.000Z</Time>
            <Position>
              <LatitudeDegrees>39.5884335972368717193603515625</LatitudeDegrees>
              <LongitudeDegrees>-6.4671185798943042755126953125</LongitudeDegrees>
            </Position>
            <AltitudeMeters>314.399993896484375</AltitudeMeters>
            <DistanceMeters>NAN</DistanceMeters>
          </Trackpoint>
          <Trackpoint>
            <Time>2019-10-08T12:38:58.000Z</Time>
            <Position>
              <LatitudeDegrees>39.58812807686626911163330078125</LatitudeDegrees>
              <LongitudeDegrees>-6.4667128957808017730712890625</LongitudeDegrees>
            </Position>
            <AltitudeMeters>314</AltitudeMeters>
            <DistanceMeters>NAN</DistanceMeters>
          </Trackpoint>
          <Trackpoint>
            <Time>2019-10-08T12:39:07.000Z</Time>
            <Position>
              <LatitudeDegrees>39.58782255649566650390625</LatitudeDegrees>
              <LongitudeDegrees>-6.46629069931805133819580078125</LongitudeDegrees>
            </Position>
            <AltitudeMeters>313.79998779296875</AltitudeMeters>
            <DistanceMeters>NAN</DistanceMeters>
          </Trackpoint>
          <Trackpoint>
            <Time>2019-10-08T12:39:13.000Z</Time>
            <Position>
              <LatitudeDegrees>39.58761963061988353729248046875</LatitudeDegrees>
              <LongitudeDegrees>-6.4660148508846759796142578125</LongitudeDegrees>
            </Position>
            <AltitudeMeters>314</AltitudeMeters>
            <DistanceMeters>NAN</DistanceMeters>
          </Trackpoint>
          <Trackpoint>
            <Time>2019-10-08T12:39:16.000Z</Time>
            <Position>
              <LatitudeDegrees>39.58751971833407878875732421875</LatitudeDegrees>
              <LongitudeDegrees>-6.4658810757100582122802734375</LongitudeDegrees>
            </Position>
            <AltitudeMeters>313.79998779296875</AltitudeMeters>
            <DistanceMeters>NAN</DistanceMeters>
          </Trackpoint>
          <Trackpoint>
            <Time>2019-10-08T12:39:27.000Z</Time>
            <Position>
              <LatitudeDegrees>39.58714789710938930511474609375</LatitudeDegrees>
              <LongitudeDegrees>-6.46536491811275482177734375</LongitudeDegrees>
            </Position>
            <AltitudeMeters>314.399993896484375</AltitudeMeters>
            <DistanceMeters>NAN</DistanceMeters>
          </Trackpoint>
          <Trackpoint>
            <Time>2019-10-08T12:39:37.000Z</Time>
            <Position>
              <LatitudeDegrees>39.5868085138499736785888671875</LatitudeDegrees>
              <LongitudeDegrees>-6.4649029076099395751953125</LongitudeDegrees>
            </Position>
            <AltitudeMeters>314.600006103515625</AltitudeMeters>
            <DistanceMeters>NAN</DistanceMeters>
          </Trackpoint>
          <Trackpoint>
            <Time>2019-10-08T12:39:46.000Z</Time>
            <Position>
              <LatitudeDegrees>39.58650047890841960906982421875</LatitudeDegrees>
              <LongitudeDegrees>-6.46447735838592052459716796875</LongitudeDegrees>
            </Position>
            <AltitudeMeters>314.399993896484375</AltitudeMeters>
            <DistanceMeters>NAN</DistanceMeters>
          </Trackpoint>
          <Trackpoint>
            <Time>2019-10-08T12:39:52.000Z</Time>
            <Position>
              <LatitudeDegrees>39.58628891967236995697021484375</LatitudeDegrees>
              <LongitudeDegrees>-6.464193798601627349853515625</LongitudeDegrees>
            </Position>
            <AltitudeMeters>314.79998779296875</AltitudeMeters>
            <DistanceMeters>NAN</DistanceMeters>
          </Trackpoint>
          <Trackpoint>
            <Time>2019-10-08T12:39:58.000Z</Time>
            <Position>
              <LatitudeDegrees>39.586080797016620635986328125</LatitudeDegrees>
              <LongitudeDegrees>-6.4639036171138286590576171875</LongitudeDegrees>
            </Position>
            <AltitudeMeters>315</AltitudeMeters>
            <DistanceMeters>NAN</DistanceMeters>
          </Trackpoint>
          <Trackpoint>
            <Time>2019-10-08T12:40:06.000Z</Time>
            <Position>
              <LatitudeDegrees>39.58580754697322845458984375</LatitudeDegrees>
              <LongitudeDegrees>-6.46352827548980712890625</LongitudeDegrees>
            </Position>
            <AltitudeMeters>315.600006103515625</AltitudeMeters>
            <DistanceMeters>NAN</DistanceMeters>
          </Trackpoint>
          <Trackpoint>
            <Time>2019-10-08T12:40:07.000Z</Time>
            <Position>
              <LatitudeDegrees>39.58577326498925685882568359375</LatitudeDegrees>
              <LongitudeDegrees>-6.4634799957275390625</LongitudeDegrees>
            </Position>
            <AltitudeMeters>315.600006103515625</AltitudeMeters>
            <DistanceMeters>NAN</DistanceMeters>
          </Trackpoint>
          <Trackpoint>
            <Time>2019-10-08T12:40:13.000Z</Time>
            <Position>
              <LatitudeDegrees>39.58557075820863246917724609375</LatitudeDegrees>
              <LongitudeDegrees>-6.46320247091352939605712890625</LongitudeDegrees>
            </Position>
            <AltitudeMeters>316.600006103515625</AltitudeMeters>
            <DistanceMeters>NAN</DistanceMeters>
          </Trackpoint>
          <Trackpoint>
            <Time>2019-10-08T12:40:19.000Z</Time>
            <Position>
              <LatitudeDegrees>39.5853696763515472412109375</LatitudeDegrees>
              <LongitudeDegrees>-6.46293240599334239959716796875</LongitudeDegrees>
            </Position>
            <AltitudeMeters>316.20001220703125</AltitudeMeters>
            <DistanceMeters>NAN</DistanceMeters>
          </Trackpoint>
          <Trackpoint>
            <Time>2019-10-08T12:40:28.000Z</Time>
            <Position>
              <LatitudeDegrees>39.5850821770727634429931640625</LatitudeDegrees>
              <LongitudeDegrees>-6.4625345170497894287109375</LongitudeDegrees>
            </Position>
            <AltitudeMeters>317.20001220703125</AltitudeMeters>
            <DistanceMeters>NAN</DistanceMeters>
          </Trackpoint>
          <Trackpoint>
            <Time>2019-10-08T12:40:34.000Z</Time>
            <Position>
              <LatitudeDegrees>39.5848895609378814697265625</LatitudeDegrees>
              <LongitudeDegrees>-6.46227509714663028717041015625</LongitudeDegrees>
            </Position>
            <AltitudeMeters>317.79998779296875</AltitudeMeters>
            <DistanceMeters>NAN</DistanceMeters>
          </Trackpoint>
          <Trackpoint>
            <Time>2019-10-08T12:40:40.000Z</Time>
            <Position>
              <LatitudeDegrees>39.58469619043171405792236328125</LatitudeDegrees>
              <LongitudeDegrees>-6.4620113186538219451904296875</LongitudeDegrees>
            </Position>
            <AltitudeMeters>319</AltitudeMeters>
            <DistanceMeters>NAN</DistanceMeters>
          </Trackpoint>
          <Trackpoint>
            <Time>2019-10-08T12:40:52.000Z</Time>
            <Position>
              <LatitudeDegrees>39.5843190886080265045166015625</LatitudeDegrees>
              <LongitudeDegrees>-6.46148786880075931549072265625</LongitudeDegrees>
            </Position>
            <AltitudeMeters>319.79998779296875</AltitudeMeters>
            <DistanceMeters>NAN</DistanceMeters>
          </Trackpoint>
          <Trackpoint>
            <Time>2019-10-08T12:40:53.000Z</Time>
            <Position>
              <LatitudeDegrees>39.5842882432043552398681640625</LatitudeDegrees>
              <LongitudeDegrees>-6.46144428290426731109619140625</LongitudeDegrees>
            </Position>
            <AltitudeMeters>320</AltitudeMeters>
            <DistanceMeters>NAN</DistanceMeters>
          </Trackpoint>
          <Trackpoint>
            <Time>2019-10-08T12:41:03.000Z</Time>
            <Position>
              <LatitudeDegrees>39.5839697308838367462158203125</LatitudeDegrees>
              <LongitudeDegrees>-6.46101093851029872894287109375</LongitudeDegrees>
            </Position>
            <AltitudeMeters>321.20001220703125</AltitudeMeters>
            <DistanceMeters>NAN</DistanceMeters>
          </Trackpoint>
          <Trackpoint>
            <Time>2019-10-08T12:41:05.000Z</Time>
            <Position>
              <LatitudeDegrees>39.5839063636958599090576171875</LatitudeDegrees>
              <LongitudeDegrees>-6.46092326380312442779541015625</LongitudeDegrees>
            </Position>
            <AltitudeMeters>321.600006103515625</AltitudeMeters>
            <DistanceMeters>NAN</DistanceMeters>
          </Trackpoint>
          <Trackpoint>
            <Time>2019-10-08T12:41:14.000Z</Time>
            <Position>
              <LatitudeDegrees>39.5835975743830204010009765625</LatitudeDegrees>
              <LongitudeDegrees>-6.46054876036942005157470703125</LongitudeDegrees>
            </Position>
            <AltitudeMeters>322.20001220703125</AltitudeMeters>
            <DistanceMeters>NAN</DistanceMeters>
          </Trackpoint>
          <Trackpoint>
            <Time>2019-10-08T12:41:17.000Z</Time>
            <Position>
              <LatitudeDegrees>39.58348751999437808990478515625</LatitudeDegrees>
              <LongitudeDegrees>-6.46043409593403339385986328125</LongitudeDegrees>
            </Position>
            <AltitudeMeters>322.399993896484375</AltitudeMeters>
            <DistanceMeters>NAN</DistanceMeters>
          </Trackpoint>
          <Trackpoint>
            <Time>2019-10-08T12:41:27.000Z</Time>
            <Position>
              <LatitudeDegrees>39.5830799080431461334228515625</LatitudeDegrees>
              <LongitudeDegrees>-6.46008255891501903533935546875</LongitudeDegrees>
            </Position>
            <AltitudeMeters>322.20001220703125</AltitudeMeters>
            <DistanceMeters>NAN</DistanceMeters>
          </Trackpoint>
          <Trackpoint>
            <Time>2019-10-08T12:41:33.000Z</Time>
            <Position>
              <LatitudeDegrees>39.582780338823795318603515625</LatitudeDegrees>
              <LongitudeDegrees>-6.45988273434340953826904296875</LongitudeDegrees>
            </Position>
            <AltitudeMeters>321.20001220703125</AltitudeMeters>
            <DistanceMeters>NAN</DistanceMeters>
          </Trackpoint>
          <Trackpoint>
            <Time>2019-10-08T12:41:35.000Z</Time>
            <Position>
              <LatitudeDegrees>39.58267045207321643829345703125</LatitudeDegrees>
              <LongitudeDegrees>-6.45981500856578350067138671875</LongitudeDegrees>
            </Position>
            <AltitudeMeters>321.20001220703125</AltitudeMeters>
            <DistanceMeters>NAN</DistanceMeters>
          </Trackpoint>
          <Trackpoint>
            <Time>2019-10-08T12:41:42.000Z</Time>
            <Position>
              <LatitudeDegrees>39.582245238125324249267578125</LatitudeDegrees>
              <LongitudeDegrees>-6.45956019870936870574951171875</LongitudeDegrees>
            </Position>
            <AltitudeMeters>320</AltitudeMeters>
            <DistanceMeters>NAN</DistanceMeters>
          </Trackpoint>
          <Trackpoint>
            <Time>2019-10-08T12:41:43.000Z</Time>
            <Position>
              <LatitudeDegrees>39.58217860199511051177978515625</LatitudeDegrees>
              <LongitudeDegrees>-6.45952038466930389404296875</LongitudeDegrees>
            </Position>
            <AltitudeMeters>319.600006103515625</AltitudeMeters>
            <DistanceMeters>NAN</DistanceMeters>
          </Trackpoint>
          <Trackpoint>
            <Time>2019-10-08T12:41:46.000Z</Time>
            <Position>
              <LatitudeDegrees>39.58198263309895992279052734375</LatitudeDegrees>
              <LongitudeDegrees>-6.45940278656780719757080078125</LongitudeDegrees>
            </Position>
            <AltitudeMeters>318.79998779296875</AltitudeMeters>
            <DistanceMeters>NAN</DistanceMeters>
          </Trackpoint>
          <Trackpoint>
            <Time>2019-10-08T12:41:51.000Z</Time>
            <Position>
              <LatitudeDegrees>39.58164568059146404266357421875</LatitudeDegrees>
              <LongitudeDegrees>-6.459198854863643646240234375</LongitudeDegrees>
            </Position>
            <AltitudeMeters>317.79998779296875</AltitudeMeters>
            <DistanceMeters>NAN</DistanceMeters>
          </Trackpoint>
          <Trackpoint>
            <Time>2019-10-08T12:41:53.000Z</Time>
            <Position>
              <LatitudeDegrees>39.58150184713304042816162109375</LatitudeDegrees>
              <LongitudeDegrees>-6.4591141976416110992431640625</LongitudeDegrees>
            </Position>
            <AltitudeMeters>317.600006103515625</AltitudeMeters>
            <DistanceMeters>NAN</DistanceMeters>
          </Trackpoint>
          <Trackpoint>
            <Time>2019-10-08T12:41:57.000Z</Time>
            <Position>
              <LatitudeDegrees>39.58121300674974918365478515625</LatitudeDegrees>
              <LongitudeDegrees>-6.45893440581858158111572265625</LongitudeDegrees>
            </Position>
            <AltitudeMeters>316.20001220703125</AltitudeMeters>
            <DistanceMeters>NAN</DistanceMeters>
          </Trackpoint>
          <Trackpoint>
            <Time>2019-10-08T12:42:00.000Z</Time>
            <Position>
              <LatitudeDegrees>39.58099172450602054595947265625</LatitudeDegrees>
              <LongitudeDegrees>-6.4588020555675029754638671875</LongitudeDegrees>
            </Position>
            <AltitudeMeters>315.600006103515625</AltitudeMeters>
            <DistanceMeters>NAN</DistanceMeters>
          </Trackpoint>
          <Trackpoint>
            <Time>2019-10-08T12:42:02.000Z</Time>
            <Position>
              <LatitudeDegrees>39.58084051497280597686767578125</LatitudeDegrees>
              <LongitudeDegrees>-6.458712033927440643310546875</LongitudeDegrees>
            </Position>
            <AltitudeMeters>315.20001220703125</AltitudeMeters>
            <DistanceMeters>NAN</DistanceMeters>
          </Trackpoint>
          <Trackpoint>
            <Time>2019-10-08T12:42:04.000Z</Time>
            <Position>
              <LatitudeDegrees>39.58068997599184513092041015625</LatitudeDegrees>
              <LongitudeDegrees>-6.45861773751676082611083984375</LongitudeDegrees>
            </Position>
            <AltitudeMeters>314</AltitudeMeters>
            <DistanceMeters>NAN</DistanceMeters>
          </Trackpoint>
          <Trackpoint>
            <Time>2019-10-08T12:42:07.000Z</Time>
            <Position>
              <LatitudeDegrees>39.5804580487310886383056640625</LatitudeDegrees>
              <LongitudeDegrees>-6.45847876556217670440673828125</LongitudeDegrees>
            </Position>
            <AltitudeMeters>313</AltitudeMeters>
            <DistanceMeters>NAN</DistanceMeters>
          </Trackpoint>
          <Trackpoint>
            <Time>2019-10-08T12:42:10.000Z</Time>
            <Position>
              <LatitudeDegrees>39.5802240259945392608642578125</LatitudeDegrees>
              <LongitudeDegrees>-6.45833711139857769012451171875</LongitudeDegrees>
            </Position>
            <AltitudeMeters>312.20001220703125</AltitudeMeters>
            <DistanceMeters>NAN</DistanceMeters>
          </Trackpoint>
          <Trackpoint>
            <Time>2019-10-08T12:42:12.000Z</Time>
            <Position>
              <LatitudeDegrees>39.58006971515715122222900390625</LatitudeDegrees>
              <LongitudeDegrees>-6.45824021659791469573974609375</LongitudeDegrees>
            </Position>
            <AltitudeMeters>311.600006103515625</AltitudeMeters>
            <DistanceMeters>NAN</DistanceMeters>
          </Trackpoint>
          <Trackpoint>
            <Time>2019-10-08T12:42:15.000Z</Time>
            <Position>
              <LatitudeDegrees>39.57983435131609439849853515625</LatitudeDegrees>
              <LongitudeDegrees>-6.4580966345965862274169921875</LongitudeDegrees>
            </Position>
            <AltitudeMeters>310.399993896484375</AltitudeMeters>
            <DistanceMeters>NAN</DistanceMeters>
          </Trackpoint>
          <Trackpoint>
            <Time>2019-10-08T12:42:18.000Z</Time>
            <Position>
              <LatitudeDegrees>39.5796014182269573211669921875</LatitudeDegrees>
              <LongitudeDegrees>-6.457952968776226043701171875</LongitudeDegrees>
            </Position>
            <AltitudeMeters>309.79998779296875</AltitudeMeters>
            <DistanceMeters>NAN</DistanceMeters>
          </Trackpoint>
          <Trackpoint>
            <Time>2019-10-08T12:42:19.000Z</Time>
            <Position>
              <LatitudeDegrees>39.57952371798455715179443359375</LatitudeDegrees>
              <LongitudeDegrees>-6.45790779031813144683837890625</LongitudeDegrees>
            </Position>
            <AltitudeMeters>309.20001220703125</AltitudeMeters>
            <DistanceMeters>NAN</DistanceMeters>
          </Trackpoint>
          <Trackpoint>
            <Time>2019-10-08T12:42:20.000Z</Time>
            <Position>
              <LatitudeDegrees>39.57944668829441070556640625</LatitudeDegrees>
              <LongitudeDegrees>-6.4578616060316562652587890625</LongitudeDegrees>
            </Position>
            <AltitudeMeters>309</AltitudeMeters>
            <DistanceMeters>NAN</DistanceMeters>
          </Trackpoint>
          <Trackpoint>
            <Time>2019-10-08T12:42:22.000Z</Time>
            <Position>
              <LatitudeDegrees>39.57929514348506927490234375</LatitudeDegrees>
              <LongitudeDegrees>-6.45776546560227870941162109375</LongitudeDegrees>
            </Position>
            <AltitudeMeters>308.79998779296875</AltitudeMeters>
            <DistanceMeters>NAN</DistanceMeters>
          </Trackpoint>
          <Trackpoint>
            <Time>2019-10-08T12:42:24.000Z</Time>
            <Position>
              <LatitudeDegrees>39.57914418540894985198974609375</LatitudeDegrees>
              <LongitudeDegrees>-6.4576738514006137847900390625</LongitudeDegrees>
            </Position>
            <AltitudeMeters>308.399993896484375</AltitudeMeters>
            <DistanceMeters>NAN</DistanceMeters>
          </Trackpoint>
          <Trackpoint>
            <Time>2019-10-08T12:42:25.000Z</Time>
            <Position>
              <LatitudeDegrees>39.57906975410878658294677734375</LatitudeDegrees>
              <LongitudeDegrees>-6.45762783475220203399658203125</LongitudeDegrees>
            </Position>
            <AltitudeMeters>308.20001220703125</AltitudeMeters>
            <DistanceMeters>NAN</DistanceMeters>
          </Trackpoint>
          <Trackpoint>
            <Time>2019-10-08T12:42:27.000Z</Time>
            <Position>
              <LatitudeDegrees>39.5789229869842529296875</LatitudeDegrees>
              <LongitudeDegrees>-6.45753747783601284027099609375</LongitudeDegrees>
            </Position>
            <AltitudeMeters>307.79998779296875</AltitudeMeters>
            <DistanceMeters>NAN</DistanceMeters>
          </Trackpoint>
          <Trackpoint>
            <Time>2019-10-08T12:42:30.000Z</Time>
            <Position>
              <LatitudeDegrees>39.578706733882427215576171875</LatitudeDegrees>
              <LongitudeDegrees>-6.45740571431815624237060546875</LongitudeDegrees>
            </Position>
            <AltitudeMeters>307</AltitudeMeters>
            <DistanceMeters>NAN</DistanceMeters>
          </Trackpoint>
          <Trackpoint>
            <Time>2019-10-08T12:42:32.000Z</Time>
            <Position>
              <LatitudeDegrees>39.578566588461399078369140625</LatitudeDegrees>
              <LongitudeDegrees>-6.45732357166707515716552734375</LongitudeDegrees>
            </Position>
            <AltitudeMeters>306.600006103515625</AltitudeMeters>
            <DistanceMeters>NAN</DistanceMeters>
          </Trackpoint>
          <Trackpoint>
            <Time>2019-10-08T12:42:33.000Z</Time>
            <Position>
              <LatitudeDegrees>39.57849877886474132537841796875</LatitudeDegrees>
              <LongitudeDegrees>-6.457281410694122314453125</LongitudeDegrees>
            </Position>
            <AltitudeMeters>306.399993896484375</AltitudeMeters>
            <DistanceMeters>NAN</DistanceMeters>
          </Trackpoint>
          <Trackpoint>
            <Time>2019-10-08T12:42:36.000Z</Time>
            <Position>
              <LatitudeDegrees>39.578296355903148651123046875</LatitudeDegrees>
              <LongitudeDegrees>-6.45715995691716670989990234375</LongitudeDegrees>
            </Position>
            <AltitudeMeters>306.399993896484375</AltitudeMeters>
            <DistanceMeters>NAN</DistanceMeters>
          </Trackpoint>
          <Trackpoint>
            <Time>2019-10-08T12:42:38.000Z</Time>
            <Position>
              <LatitudeDegrees>39.57816199399530887603759765625</LatitudeDegrees>
              <LongitudeDegrees>-6.45707965828478336334228515625</LongitudeDegrees>
            </Position>
            <AltitudeMeters>306.20001220703125</AltitudeMeters>
            <DistanceMeters>NAN</DistanceMeters>
          </Trackpoint>
          <Trackpoint>
            <Time>2019-10-08T12:42:40.000Z</Time>
            <Position>
              <LatitudeDegrees>39.57802503369748592376708984375</LatitudeDegrees>
              <LongitudeDegrees>-6.45699349232017993927001953125</LongitudeDegrees>
            </Position>
            <AltitudeMeters>306.20001220703125</AltitudeMeters>
            <DistanceMeters>NAN</DistanceMeters>
          </Trackpoint>
          <Trackpoint>
            <Time>2019-10-08T12:42:44.000Z</Time>
            <Position>
              <LatitudeDegrees>39.5777483470737934112548828125</LatitudeDegrees>
              <LongitudeDegrees>-6.456823758780956268310546875</LongitudeDegrees>
            </Position>
            <AltitudeMeters>306.399993896484375</AltitudeMeters>
            <DistanceMeters>NAN</DistanceMeters>
          </Trackpoint>
          <Trackpoint>
            <Time>2019-10-08T12:42:45.000Z</Time>
            <Position>
              <LatitudeDegrees>39.57767911255359649658203125</LatitudeDegrees>
              <LongitudeDegrees>-6.4567820169031620025634765625</LongitudeDegrees>
            </Position>
            <AltitudeMeters>306</AltitudeMeters>
            <DistanceMeters>NAN</DistanceMeters>
          </Trackpoint>
          <Trackpoint>
            <Time>2019-10-08T12:42:47.000Z</Time>
            <Position>
              <LatitudeDegrees>39.57753988914191722869873046875</LatitudeDegrees>
              <LongitudeDegrees>-6.45670004189014434814453125</LongitudeDegrees>
            </Position>
            <AltitudeMeters>305</AltitudeMeters>
            <DistanceMeters>NAN</DistanceMeters>
          </Trackpoint>
          <Trackpoint>
            <Time>2019-10-08T12:42:54.000Z</Time>
            <Position>
              <LatitudeDegrees>39.57705105654895305633544921875</LatitudeDegrees>
              <LongitudeDegrees>-6.45639871247112751007080078125</LongitudeDegrees>
            </Position>
            <AltitudeMeters>304.399993896484375</AltitudeMeters>
            <DistanceMeters>NAN</DistanceMeters>
          </Trackpoint>
          <Trackpoint>
            <Time>2019-10-08T12:42:59.000Z</Time>
            <Position>
              <LatitudeDegrees>39.57669499330222606658935546875</LatitudeDegrees>
              <LongitudeDegrees>-6.45618866197764873504638671875</LongitudeDegrees>
            </Position>
            <AltitudeMeters>303.399993896484375</AltitudeMeters>
            <DistanceMeters>NAN</DistanceMeters>
          </Trackpoint>
          <Trackpoint>
            <Time>2019-10-08T12:43:04.000Z</Time>
            <Position>
              <LatitudeDegrees>39.57633960060775279998779296875</LatitudeDegrees>
              <LongitudeDegrees>-6.4559820480644702911376953125</LongitudeDegrees>
            </Position>
            <AltitudeMeters>302.399993896484375</AltitudeMeters>
            <DistanceMeters>NAN</DistanceMeters>
          </Trackpoint>
          <Trackpoint>
            <Time>2019-10-08T12:43:05.000Z</Time>
            <Position>
              <LatitudeDegrees>39.576270282268524169921875</LatitudeDegrees>
              <LongitudeDegrees>-6.45593963563442230224609375</LongitudeDegrees>
            </Position>
            <AltitudeMeters>302.20001220703125</AltitudeMeters>
            <DistanceMeters>NAN</DistanceMeters>
          </Trackpoint>
          <Trackpoint>
            <Time>2019-10-08T12:43:12.000Z</Time>
            <Position>
              <LatitudeDegrees>39.575777761638164520263671875</LatitudeDegrees>
              <LongitudeDegrees>-6.45564584992825984954833984375</LongitudeDegrees>
            </Position>
            <AltitudeMeters>302</AltitudeMeters>
            <DistanceMeters>NAN</DistanceMeters>
          </Trackpoint>
          <Trackpoint>
            <Time>2019-10-08T12:43:16.000Z</Time>
            <Position>
              <LatitudeDegrees>39.57549311220645904541015625</LatitudeDegrees>
              <LongitudeDegrees>-6.45547251217067241668701171875</LongitudeDegrees>
            </Position>
            <AltitudeMeters>302</AltitudeMeters>
            <DistanceMeters>NAN</DistanceMeters>
          </Trackpoint>
          <Trackpoint>
            <Time>2019-10-08T12:43:18.000Z</Time>
            <Position>
              <LatitudeDegrees>39.575349949300289154052734375</LatitudeDegrees>
              <LongitudeDegrees>-6.45538869313895702362060546875</LongitudeDegrees>
            </Position>
            <AltitudeMeters>301</AltitudeMeters>
            <DistanceMeters>NAN</DistanceMeters>
          </Trackpoint>
          <Trackpoint>
            <Time>2019-10-08T12:43:25.000Z</Time>
            <Position>
              <LatitudeDegrees>39.57486488856375217437744140625</LatitudeDegrees>
              <LongitudeDegrees>-6.4550898782908916473388671875</LongitudeDegrees>
            </Position>
            <AltitudeMeters>300.79998779296875</AltitudeMeters>
            <DistanceMeters>NAN</DistanceMeters>
          </Trackpoint>
          <Trackpoint>
            <Time>2019-10-08T12:43:27.000Z</Time>
            <Position>
              <LatitudeDegrees>39.57473077811300754547119140625</LatitudeDegrees>
              <LongitudeDegrees>-6.455009244382381439208984375</LongitudeDegrees>
            </Position>
            <AltitudeMeters>300.79998779296875</AltitudeMeters>
            <DistanceMeters>NAN</DistanceMeters>
          </Trackpoint>
          <Trackpoint>
            <Time>2019-10-08T12:43:34.000Z</Time>
            <Position>
              <LatitudeDegrees>39.57426675595343112945556640625</LatitudeDegrees>
              <LongitudeDegrees>-6.4547418616712093353271484375</LongitudeDegrees>
            </Position>
            <AltitudeMeters>300.20001220703125</AltitudeMeters>
            <DistanceMeters>NAN</DistanceMeters>
          </Trackpoint>
          <Trackpoint>
            <Time>2019-10-08T12:43:40.000Z</Time>
            <Position>
              <LatitudeDegrees>39.5738759078085422515869140625</LatitudeDegrees>
              <LongitudeDegrees>-6.454549245536327362060546875</LongitudeDegrees>
            </Position>
            <AltitudeMeters>301</AltitudeMeters>
            <DistanceMeters>NAN</DistanceMeters>
          </Trackpoint>
          <Trackpoint>
            <Time>2019-10-08T12:43:48.000Z</Time>
            <Position>
              <LatitudeDegrees>39.57335430197417736053466796875</LatitudeDegrees>
              <LongitudeDegrees>-6.454295776784420013427734375</LongitudeDegrees>
            </Position>
            <AltitudeMeters>300.600006103515625</AltitudeMeters>
            <DistanceMeters>NAN</DistanceMeters>
          </Trackpoint>
          <Trackpoint>
            <Time>2019-10-08T12:43:50.000Z</Time>
            <Position>
              <LatitudeDegrees>39.57322237081825733184814453125</LatitudeDegrees>
              <LongitudeDegrees>-6.45424020476639270782470703125</LongitudeDegrees>
            </Position>
            <AltitudeMeters>300.79998779296875</AltitudeMeters>
            <DistanceMeters>NAN</DistanceMeters>
          </Trackpoint>
          <Trackpoint>
            <Time>2019-10-08T12:43:55.000Z</Time>
            <Position>
              <LatitudeDegrees>39.572898410260677337646484375</LatitudeDegrees>
              <LongitudeDegrees>-6.454104669392108917236328125</LongitudeDegrees>
            </Position>
            <AltitudeMeters>300</AltitudeMeters>
            <DistanceMeters>NAN</DistanceMeters>
          </Trackpoint>
          <Trackpoint>
            <Time>2019-10-08T12:44:02.000Z</Time>
            <Position>
              <LatitudeDegrees>39.57245886325836181640625</LatitudeDegrees>
              <LongitudeDegrees>-6.45393594168126583099365234375</LongitudeDegrees>
            </Position>
            <AltitudeMeters>300</AltitudeMeters>
            <DistanceMeters>NAN</DistanceMeters>
          </Trackpoint>
          <Trackpoint>
            <Time>2019-10-08T12:44:04.000Z</Time>
            <Position>
              <LatitudeDegrees>39.57239591516554355621337890625</LatitudeDegrees>
              <LongitudeDegrees>-6.45391046069562435150146484375</LongitudeDegrees>
            </Position>
            <AltitudeMeters>304.20001220703125</AltitudeMeters>
            <DistanceMeters>NAN</DistanceMeters>
          </Trackpoint>
          <Trackpoint>
            <Time>2019-10-08T12:44:05.000Z</Time>
            <Position>
              <LatitudeDegrees>39.572334475815296173095703125</LatitudeDegrees>
              <LongitudeDegrees>-6.45388246513903141021728515625</LongitudeDegrees>
            </Position>
            <AltitudeMeters>300.600006103515625</AltitudeMeters>
            <DistanceMeters>NAN</DistanceMeters>
          </Trackpoint>
          <Trackpoint>
            <Time>2019-10-08T12:44:11.000Z</Time>
            <Position>
              <LatitudeDegrees>39.57197799347341060638427734375</LatitudeDegrees>
              <LongitudeDegrees>-6.4537601731717586517333984375</LongitudeDegrees>
            </Position>
            <AltitudeMeters>301.20001220703125</AltitudeMeters>
            <DistanceMeters>NAN</DistanceMeters>
          </Trackpoint>
          <Trackpoint>
            <Time>2019-10-08T12:44:12.000Z</Time>
            <Position>
              <LatitudeDegrees>39.57192921079695224761962890625</LatitudeDegrees>
              <LongitudeDegrees>-6.45374433137476444244384765625</LongitudeDegrees>
            </Position>
            <AltitudeMeters>302</AltitudeMeters>
            <DistanceMeters>NAN</DistanceMeters>
          </Trackpoint>
          <Trackpoint>
            <Time>2019-10-08T12:44:18.000Z</Time>
            <Position>
              <LatitudeDegrees>39.5716476626694202423095703125</LatitudeDegrees>
              <LongitudeDegrees>-6.453653387725353240966796875</LongitudeDegrees>
            </Position>
            <AltitudeMeters>303.20001220703125</AltitudeMeters>
            <DistanceMeters>NAN</DistanceMeters>
          </Trackpoint>
          <Trackpoint>
            <Time>2019-10-08T12:44:24.000Z</Time>
            <Position>
              <LatitudeDegrees>39.57138723693788051605224609375</LatitudeDegrees>
              <LongitudeDegrees>-6.45356546156108379364013671875</LongitudeDegrees>
            </Position>
            <AltitudeMeters>304.20001220703125</AltitudeMeters>
            <DistanceMeters>NAN</DistanceMeters>
          </Trackpoint>
          <Trackpoint>
            <Time>2019-10-08T12:44:28.000Z</Time>
            <Position>
              <LatitudeDegrees>39.5712262205779552459716796875</LatitudeDegrees>
              <LongitudeDegrees>-6.4535093866288661956787109375</LongitudeDegrees>
            </Position>
            <AltitudeMeters>304.79998779296875</AltitudeMeters>
            <DistanceMeters>NAN</DistanceMeters>
          </Trackpoint>
          <Trackpoint>
            <Time>2019-10-08T12:44:29.000Z</Time>
            <Position>
              <LatitudeDegrees>39.57118791528046131134033203125</LatitudeDegrees>
              <LongitudeDegrees>-6.453496478497982025146484375</LongitudeDegrees>
            </Position>
            <AltitudeMeters>305.20001220703125</AltitudeMeters>
            <DistanceMeters>NAN</DistanceMeters>
          </Trackpoint>
          <Trackpoint>
            <Time>2019-10-08T12:44:37.000Z</Time>
            <Position>
              <LatitudeDegrees>39.5708835683763027191162109375</LatitudeDegrees>
              <LongitudeDegrees>-6.45339732058346271514892578125</LongitudeDegrees>
            </Position>
            <AltitudeMeters>306.399993896484375</AltitudeMeters>
            <DistanceMeters>NAN</DistanceMeters>
          </Trackpoint>
          <Trackpoint>
            <Time>2019-10-08T12:44:38.000Z</Time>
            <Position>
              <LatitudeDegrees>39.57084559835493564605712890625</LatitudeDegrees>
              <LongitudeDegrees>-6.453383825719356536865234375</LongitudeDegrees>
            </Position>
            <AltitudeMeters>306.600006103515625</AltitudeMeters>
            <DistanceMeters>NAN</DistanceMeters>
          </Trackpoint>
          <Trackpoint>
            <Time>2019-10-08T12:44:44.000Z</Time>
            <Position>
              <LatitudeDegrees>39.57062230445444583892822265625</LatitudeDegrees>
              <LongitudeDegrees>-6.45330746658146381378173828125</LongitudeDegrees>
            </Position>
            <AltitudeMeters>307.600006103515625</AltitudeMeters>
            <DistanceMeters>NAN</DistanceMeters>
          </Trackpoint>
          <Trackpoint>
            <Time>2019-10-08T12:44:48.000Z</Time>
            <Position>
              <LatitudeDegrees>39.5704721845686435699462890625</LatitudeDegrees>
              <LongitudeDegrees>-6.4532569237053394317626953125</LongitudeDegrees>
            </Position>
            <AltitudeMeters>308.20001220703125</AltitudeMeters>
            <DistanceMeters>NAN</DistanceMeters>
          </Trackpoint>
          <Trackpoint>
            <Time>2019-10-08T12:44:51.000Z</Time>
            <Position>
              <LatitudeDegrees>39.57036070525646209716796875</LatitudeDegrees>
              <LongitudeDegrees>-6.45321853458881378173828125</LongitudeDegrees>
            </Position>
            <AltitudeMeters>309</AltitudeMeters>
            <DistanceMeters>NAN</DistanceMeters>
          </Trackpoint>
          <Trackpoint>
            <Time>2019-10-08T12:44:59.000Z</Time>
            <Position>
              <LatitudeDegrees>39.570058286190032958984375</LatitudeDegrees>
              <LongitudeDegrees>-6.45311032421886920928955078125</LongitudeDegrees>
            </Position>
            <AltitudeMeters>309.600006103515625</AltitudeMeters>
            <DistanceMeters>NAN</DistanceMeters>
          </Trackpoint>
          <Trackpoint>
            <Time>2019-10-08T12:45:06.000Z</Time>
            <Position>
              <LatitudeDegrees>39.5697909034788608551025390625</LatitudeDegrees>
              <LongitudeDegrees>-6.45299884490668773651123046875</LongitudeDegrees>
            </Position>
            <AltitudeMeters>310</AltitudeMeters>
            <DistanceMeters>NAN</DistanceMeters>
          </Trackpoint>
          <Trackpoint>
            <Time>2019-10-08T12:45:09.000Z</Time>
            <Position>
              <LatitudeDegrees>39.5696738921105861663818359375</LatitudeDegrees>
              <LongitudeDegrees>-6.452943272888660430908203125</LongitudeDegrees>
            </Position>
            <AltitudeMeters>310.20001220703125</AltitudeMeters>
            <DistanceMeters>NAN</DistanceMeters>
          </Trackpoint>
          <Trackpoint>
            <Time>2019-10-08T12:45:20.000Z</Time>
            <Position>
              <LatitudeDegrees>39.56924624741077423095703125</LatitudeDegrees>
              <LongitudeDegrees>-6.45273950882256031036376953125</LongitudeDegrees>
            </Position>
            <AltitudeMeters>309.79998779296875</AltitudeMeters>
            <DistanceMeters>NAN</DistanceMeters>
          </Trackpoint>
          <Trackpoint>
            <Time>2019-10-08T12:45:31.000Z</Time>
            <Position>
              <LatitudeDegrees>39.56881416030228137969970703125</LatitudeDegrees>
              <LongitudeDegrees>-6.4525206573307514190673828125</LongitudeDegrees>
            </Position>
            <AltitudeMeters>310.600006103515625</AltitudeMeters>
            <DistanceMeters>NAN</DistanceMeters>
          </Trackpoint>
          <Trackpoint>
            <Time>2019-10-08T12:45:33.000Z</Time>
            <Position>
              <LatitudeDegrees>39.56873469986021518707275390625</LatitudeDegrees>
              <LongitudeDegrees>-6.4524829387664794921875</LongitudeDegrees>
            </Position>
            <AltitudeMeters>310.79998779296875</AltitudeMeters>
            <DistanceMeters>NAN</DistanceMeters>
          </Trackpoint>
          <Trackpoint>
            <Time>2019-10-08T12:45:37.000Z</Time>
            <Position>
              <LatitudeDegrees>39.568579383194446563720703125</LatitudeDegrees>
              <LongitudeDegrees>-6.45240440033376216888427734375</LongitudeDegrees>
            </Position>
            <AltitudeMeters>311</AltitudeMeters>
            <DistanceMeters>NAN</DistanceMeters>
          </Trackpoint>
          <Trackpoint>
            <Time>2019-10-08T12:45:42.000Z</Time>
            <Position>
              <LatitudeDegrees>39.56838567741215229034423828125</LatitudeDegrees>
              <LongitudeDegrees>-6.45231286995112895965576171875</LongitudeDegrees>
            </Position>
            <AltitudeMeters>311.399993896484375</AltitudeMeters>
            <DistanceMeters>NAN</DistanceMeters>
          </Trackpoint>
          <Trackpoint>
            <Time>2019-10-08T12:45:51.000Z</Time>
            <Position>
              <LatitudeDegrees>39.56803615204989910125732421875</LatitudeDegrees>
              <LongitudeDegrees>-6.45213064737617969512939453125</LongitudeDegrees>
            </Position>
            <AltitudeMeters>312.20001220703125</AltitudeMeters>
            <DistanceMeters>NAN</DistanceMeters>
          </Trackpoint>
          <Trackpoint>
            <Time>2019-10-08T12:45:52.000Z</Time>
            <Position>
              <LatitudeDegrees>39.5679961703717708587646484375</LatitudeDegrees>
              <LongitudeDegrees>-6.45211053080856800079345703125</LongitudeDegrees>
            </Position>
            <AltitudeMeters>312.20001220703125</AltitudeMeters>
            <DistanceMeters>NAN</DistanceMeters>
          </Trackpoint>
          <Trackpoint>
            <Time>2019-10-08T12:46:04.000Z</Time>
            <Position>
              <LatitudeDegrees>39.5675173960626125335693359375</LatitudeDegrees>
              <LongitudeDegrees>-6.45187583751976490020751953125</LongitudeDegrees>
            </Position>
            <AltitudeMeters>313.399993896484375</AltitudeMeters>
            <DistanceMeters>NAN</DistanceMeters>
          </Trackpoint>
          <Trackpoint>
            <Time>2019-10-08T12:46:05.000Z</Time>
            <Position>
              <LatitudeDegrees>39.567478336393833160400390625</LatitudeDegrees>
              <LongitudeDegrees>-6.45185303874313831329345703125</LongitudeDegrees>
            </Position>
            <AltitudeMeters>313.399993896484375</AltitudeMeters>
            <DistanceMeters>NAN</DistanceMeters>
          </Trackpoint>
          <Trackpoint>
            <Time>2019-10-08T12:46:17.000Z</Time>
            <Position>
              <LatitudeDegrees>39.56700433976948261260986328125</LatitudeDegrees>
              <LongitudeDegrees>-6.45161013118922710418701171875</LongitudeDegrees>
            </Position>
            <AltitudeMeters>313.79998779296875</AltitudeMeters>
            <DistanceMeters>NAN</DistanceMeters>
          </Trackpoint>
          <Trackpoint>
            <Time>2019-10-08T12:46:26.000Z</Time>
            <Position>
              <LatitudeDegrees>39.5666505396366119384765625</LatitudeDegrees>
              <LongitudeDegrees>-6.451427154242992401123046875</LongitudeDegrees>
            </Position>
            <AltitudeMeters>314.399993896484375</AltitudeMeters>
            <DistanceMeters>NAN</DistanceMeters>
          </Trackpoint>
          <Trackpoint>
            <Time>2019-10-08T12:46:27.000Z</Time>
            <Position>
              <LatitudeDegrees>39.56661072559654712677001953125</LatitudeDegrees>
              <LongitudeDegrees>-6.4514075405895709991455078125</LongitudeDegrees>
            </Position>
            <AltitudeMeters>314.399993896484375</AltitudeMeters>
            <DistanceMeters>NAN</DistanceMeters>
          </Trackpoint>
          <Trackpoint>
            <Time>2019-10-08T12:46:40.000Z</Time>
            <Position>
              <LatitudeDegrees>39.5661062188446521759033203125</LatitudeDegrees>
              <LongitudeDegrees>-6.45114921033382415771484375</LongitudeDegrees>
            </Position>
            <AltitudeMeters>314.79998779296875</AltitudeMeters>
            <DistanceMeters>NAN</DistanceMeters>
          </Trackpoint>
          <Trackpoint>
            <Time>2019-10-08T12:46:44.000Z</Time>
            <Position>
              <LatitudeDegrees>39.565951488912105560302734375</LatitudeDegrees>
              <LongitudeDegrees>-6.45107620395720005035400390625</LongitudeDegrees>
            </Position>
            <AltitudeMeters>315.600006103515625</AltitudeMeters>
            <DistanceMeters>NAN</DistanceMeters>
          </Trackpoint>
          <Trackpoint>
            <Time>2019-10-08T12:46:48.000Z</Time>
            <Position>
              <LatitudeDegrees>39.565798602998256683349609375</LatitudeDegrees>
              <LongitudeDegrees>-6.45099573768675327301025390625</LongitudeDegrees>
            </Position>
            <AltitudeMeters>315.600006103515625</AltitudeMeters>
            <DistanceMeters>NAN</DistanceMeters>
          </Trackpoint>
          <Trackpoint>
            <Time>2019-10-08T12:46:53.000Z</Time>
            <Position>
              <LatitudeDegrees>39.565608836710453033447265625</LatitudeDegrees>
              <LongitudeDegrees>-6.4509002678096294403076171875</LongitudeDegrees>
            </Position>
            <AltitudeMeters>316.79998779296875</AltitudeMeters>
            <DistanceMeters>NAN</DistanceMeters>
          </Trackpoint>
          <Trackpoint>
            <Time>2019-10-08T12:46:58.000Z</Time>
            <Position>
              <LatitudeDegrees>39.565415717661380767822265625</LatitudeDegrees>
              <LongitudeDegrees>-6.45080513320863246917724609375</LongitudeDegrees>
            </Position>
            <AltitudeMeters>317.20001220703125</AltitudeMeters>
            <DistanceMeters>NAN</DistanceMeters>
          </Trackpoint>
          <Trackpoint>
            <Time>2019-10-08T12:47:08.000Z</Time>
            <Position>
              <LatitudeDegrees>39.565004669129848480224609375</LatitudeDegrees>
              <LongitudeDegrees>-6.4505579508841037750244140625</LongitudeDegrees>
            </Position>
            <AltitudeMeters>316.600006103515625</AltitudeMeters>
            <DistanceMeters>NAN</DistanceMeters>
          </Trackpoint>
          <Trackpoint>
            <Time>2019-10-08T12:47:18.000Z</Time>
            <Position>
              <LatitudeDegrees>39.56454433500766754150390625</LatitudeDegrees>
              <LongitudeDegrees>-6.450214125216007232666015625</LongitudeDegrees>
            </Position>
            <AltitudeMeters>316.399993896484375</AltitudeMeters>
            <DistanceMeters>NAN</DistanceMeters>
          </Trackpoint>
          <Trackpoint>
            <Time>2019-10-08T12:47:23.000Z</Time>
            <Position>
              <LatitudeDegrees>39.5642923749983310699462890625</LatitudeDegrees>
              <LongitudeDegrees>-6.44998655654489994049072265625</LongitudeDegrees>
            </Position>
            <AltitudeMeters>315.79998779296875</AltitudeMeters>
            <DistanceMeters>NAN</DistanceMeters>
          </Trackpoint>
          <Trackpoint>
            <Time>2019-10-08T12:47:25.000Z</Time>
            <Position>
              <LatitudeDegrees>39.56418567337095737457275390625</LatitudeDegrees>
              <LongitudeDegrees>-6.44988429732620716094970703125</LongitudeDegrees>
            </Position>
            <AltitudeMeters>314.399993896484375</AltitudeMeters>
            <DistanceMeters>NAN</DistanceMeters>
          </Trackpoint>
          <Trackpoint>
            <Time>2019-10-08T12:47:31.000Z</Time>
            <Position>
              <LatitudeDegrees>39.56384360790252685546875</LatitudeDegrees>
              <LongitudeDegrees>-6.44956159405410289764404296875</LongitudeDegrees>
            </Position>
            <AltitudeMeters>313.399993896484375</AltitudeMeters>
            <DistanceMeters>NAN</DistanceMeters>
          </Trackpoint>
          <Trackpoint>
            <Time>2019-10-08T12:47:33.000Z</Time>
            <Position>
              <LatitudeDegrees>39.5637213997542858123779296875</LatitudeDegrees>
              <LongitudeDegrees>-6.44944659434258937835693359375</LongitudeDegrees>
            </Position>
            <AltitudeMeters>312.399993896484375</AltitudeMeters>
            <DistanceMeters>NAN</DistanceMeters>
          </Trackpoint>
          <Trackpoint>
            <Time>2019-10-08T12:47:34.000Z</Time>
            <Position>
              <LatitudeDegrees>39.56365845166146755218505859375</LatitudeDegrees>
              <LongitudeDegrees>-6.44938808865845203399658203125</LongitudeDegrees>
            </Position>
            <AltitudeMeters>312</AltitudeMeters>
            <DistanceMeters>NAN</DistanceMeters>
          </Trackpoint>
          <Trackpoint>
            <Time>2019-10-08T12:47:40.000Z</Time>
            <Position>
              <LatitudeDegrees>39.56326953135430812835693359375</LatitudeDegrees>
              <LongitudeDegrees>-6.44901727326214313507080078125</LongitudeDegrees>
            </Position>
            <AltitudeMeters>310.79998779296875</AltitudeMeters>
            <DistanceMeters>NAN</DistanceMeters>
          </Trackpoint>
          <Trackpoint>
            <Time>2019-10-08T12:47:41.000Z</Time>
            <Position>
              <LatitudeDegrees>39.56320415250957012176513671875</LatitudeDegrees>
              <LongitudeDegrees>-6.448952145874500274658203125</LongitudeDegrees>
            </Position>
            <AltitudeMeters>310.20001220703125</AltitudeMeters>
            <DistanceMeters>NAN</DistanceMeters>
          </Trackpoint>
          <Trackpoint>
            <Time>2019-10-08T12:47:43.000Z</Time>
            <Position>
              <LatitudeDegrees>39.563075490295886993408203125</LatitudeDegrees>
              <LongitudeDegrees>-6.448822729289531707763671875</LongitudeDegrees>
            </Position>
            <AltitudeMeters>309.79998779296875</AltitudeMeters>
            <DistanceMeters>NAN</DistanceMeters>
          </Trackpoint>
          <Trackpoint>
            <Time>2019-10-08T12:47:47.000Z</Time>
            <Position>
              <LatitudeDegrees>39.5628309063613414764404296875</LatitudeDegrees>
              <LongitudeDegrees>-6.44854453392326831817626953125</LongitudeDegrees>
            </Position>
            <AltitudeMeters>309.399993896484375</AltitudeMeters>
            <DistanceMeters>NAN</DistanceMeters>
          </Trackpoint>
          <Trackpoint>
            <Time>2019-10-08T12:47:50.000Z</Time>
            <Position>
              <LatitudeDegrees>39.56266603432595729827880859375</LatitudeDegrees>
              <LongitudeDegrees>-6.448325179517269134521484375</LongitudeDegrees>
            </Position>
            <AltitudeMeters>309.399993896484375</AltitudeMeters>
            <DistanceMeters>NAN</DistanceMeters>
          </Trackpoint>
          <Trackpoint>
            <Time>2019-10-08T12:47:56.000Z</Time>
            <Position>
              <LatitudeDegrees>39.562396891415119171142578125</LatitudeDegrees>
              <LongitudeDegrees>-6.44785554148256778717041015625</LongitudeDegrees>
            </Position>
            <AltitudeMeters>308.79998779296875</AltitudeMeters>
            <DistanceMeters>NAN</DistanceMeters>
          </Trackpoint>
          <Trackpoint>
            <Time>2019-10-08T12:48:00.000Z</Time>
            <Position>
              <LatitudeDegrees>39.56223771907389163970947265625</LatitudeDegrees>
              <LongitudeDegrees>-6.447564102709293365478515625</LongitudeDegrees>
            </Position>
            <AltitudeMeters>309</AltitudeMeters>
            <DistanceMeters>NAN</DistanceMeters>
          </Trackpoint>
          <Trackpoint>
            <Time>2019-10-08T12:48:03.000Z</Time>
            <Position>
              <LatitudeDegrees>39.562127329409122467041015625</LatitudeDegrees>
              <LongitudeDegrees>-6.44734944216907024383544921875</LongitudeDegrees>
            </Position>
            <AltitudeMeters>309.20001220703125</AltitudeMeters>
            <DistanceMeters>NAN</DistanceMeters>
          </Trackpoint>
          <Trackpoint>
            <Time>2019-10-08T12:48:08.000Z</Time>
            <Position>
              <LatitudeDegrees>39.56195575185120105743408203125</LatitudeDegrees>
              <LongitudeDegrees>-6.44702623598277568817138671875</LongitudeDegrees>
            </Position>
            <AltitudeMeters>309.79998779296875</AltitudeMeters>
            <DistanceMeters>NAN</DistanceMeters>
          </Trackpoint>
          <Trackpoint>
            <Time>2019-10-08T12:48:09.000Z</Time>
            <Position>
              <LatitudeDegrees>39.56192222423851490020751953125</LatitudeDegrees>
              <LongitudeDegrees>-6.44696219824254512786865234375</LongitudeDegrees>
            </Position>
            <AltitudeMeters>309.79998779296875</AltitudeMeters>
            <DistanceMeters>NAN</DistanceMeters>
          </Trackpoint>
          <Trackpoint>
            <Time>2019-10-08T12:48:14.000Z</Time>
            <Position>
              <LatitudeDegrees>39.5617553405463695526123046875</LatitudeDegrees>
              <LongitudeDegrees>-6.44663061015307903289794921875</LongitudeDegrees>
            </Position>
            <AltitudeMeters>310.399993896484375</AltitudeMeters>
            <DistanceMeters>NAN</DistanceMeters>
          </Trackpoint>
          <Trackpoint>
            <Time>2019-10-08T12:48:17.000Z</Time>
            <Position>
              <LatitudeDegrees>39.5616540871560573577880859375</LatitudeDegrees>
              <LongitudeDegrees>-6.44643363542854785919189453125</LongitudeDegrees>
            </Position>
            <AltitudeMeters>310.399993896484375</AltitudeMeters>
            <DistanceMeters>NAN</DistanceMeters>
          </Trackpoint>
          <Trackpoint>
            <Time>2019-10-08T12:48:18.000Z</Time>
            <Position>
              <LatitudeDegrees>39.561617709696292877197265625</LatitudeDegrees>
              <LongitudeDegrees>-6.4463700167834758758544921875</LongitudeDegrees>
            </Position>
            <AltitudeMeters>310.79998779296875</AltitudeMeters>
            <DistanceMeters>NAN</DistanceMeters>
          </Trackpoint>
          <Trackpoint>
            <Time>2019-10-08T12:48:23.000Z</Time>
            <Position>
              <LatitudeDegrees>39.56142182461917400360107421875</LatitudeDegrees>
              <LongitudeDegrees>-6.4460531808435916900634765625</LongitudeDegrees>
            </Position>
            <AltitudeMeters>310.79998779296875</AltitudeMeters>
            <DistanceMeters>NAN</DistanceMeters>
          </Trackpoint>
          <Trackpoint>
            <Time>2019-10-08T12:48:24.000Z</Time>
            <Position>
              <LatitudeDegrees>39.561378657817840576171875</LatitudeDegrees>
              <LongitudeDegrees>-6.4459951780736446380615234375</LongitudeDegrees>
            </Position>
            <AltitudeMeters>310.79998779296875</AltitudeMeters>
            <DistanceMeters>NAN</DistanceMeters>
          </Trackpoint>
          <Trackpoint>
            <Time>2019-10-08T12:48:28.000Z</Time>
            <Position>
              <LatitudeDegrees>39.56119425594806671142578125</LatitudeDegrees>
              <LongitudeDegrees>-6.44577674567699432373046875</LongitudeDegrees>
            </Position>
            <AltitudeMeters>311.399993896484375</AltitudeMeters>
            <DistanceMeters>NAN</DistanceMeters>
          </Trackpoint>
          <Trackpoint>
            <Time>2019-10-08T12:48:35.000Z</Time>
            <Position>
              <LatitudeDegrees>39.56081447191536426544189453125</LatitudeDegrees>
              <LongitudeDegrees>-6.4454322494566440582275390625</LongitudeDegrees>
            </Position>
            <AltitudeMeters>310.399993896484375</AltitudeMeters>
            <DistanceMeters>NAN</DistanceMeters>
          </Trackpoint>
          <Trackpoint>
            <Time>2019-10-08T12:48:38.000Z</Time>
            <Position>
              <LatitudeDegrees>39.56063074059784412384033203125</LatitudeDegrees>
              <LongitudeDegrees>-6.44528816454112529754638671875</LongitudeDegrees>
            </Position>
            <AltitudeMeters>309.600006103515625</AltitudeMeters>
            <DistanceMeters>NAN</DistanceMeters>
          </Trackpoint>
          <Trackpoint>
            <Time>2019-10-08T12:48:43.000Z</Time>
            <Position>
              <LatitudeDegrees>39.5603029243648052215576171875</LatitudeDegrees>
              <LongitudeDegrees>-6.4450357854366302490234375</LongitudeDegrees>
            </Position>
            <AltitudeMeters>309.20001220703125</AltitudeMeters>
            <DistanceMeters>NAN</DistanceMeters>
          </Trackpoint>
          <Trackpoint>
            <Time>2019-10-08T12:48:45.000Z</Time>
            <Position>
              <LatitudeDegrees>39.56016504205763339996337890625</LatitudeDegrees>
              <LongitudeDegrees>-6.4449296705424785614013671875</LongitudeDegrees>
            </Position>
            <AltitudeMeters>308.600006103515625</AltitudeMeters>
            <DistanceMeters>NAN</DistanceMeters>
          </Trackpoint>
          <Trackpoint>
            <Time>2019-10-08T12:48:52.000Z</Time>
            <Position>
              <LatitudeDegrees>39.55967570655047893524169921875</LatitudeDegrees>
              <LongitudeDegrees>-6.44455491565167903900146484375</LongitudeDegrees>
            </Position>
            <AltitudeMeters>308</AltitudeMeters>
            <DistanceMeters>NAN</DistanceMeters>
          </Trackpoint>
          <Trackpoint>
            <Time>2019-10-08T12:48:54.000Z</Time>
            <Position>
              <LatitudeDegrees>39.55954109318554401397705078125</LatitudeDegrees>
              <LongitudeDegrees>-6.4444485493004322052001953125</LongitudeDegrees>
            </Position>
            <AltitudeMeters>307.79998779296875</AltitudeMeters>
            <DistanceMeters>NAN</DistanceMeters>
          </Trackpoint>
          <Trackpoint>
            <Time>2019-10-08T12:49:01.000Z</Time>
            <Position>
              <LatitudeDegrees>39.5590872131288051605224609375</LatitudeDegrees>
              <LongitudeDegrees>-6.44409231841564178466796875</LongitudeDegrees>
            </Position>
            <AltitudeMeters>308.399993896484375</AltitudeMeters>
            <DistanceMeters>NAN</DistanceMeters>
          </Trackpoint>
          <Trackpoint>
            <Time>2019-10-08T12:49:02.000Z</Time>
            <Position>
              <LatitudeDegrees>39.5590235106647014617919921875</LatitudeDegrees>
              <LongitudeDegrees>-6.44404403865337371826171875</LongitudeDegrees>
            </Position>
            <AltitudeMeters>308.20001220703125</AltitudeMeters>
            <DistanceMeters>NAN</DistanceMeters>
          </Trackpoint>
          <Trackpoint>
            <Time>2019-10-08T12:49:10.000Z</Time>
            <Position>
              <LatitudeDegrees>39.55853618681430816650390625</LatitudeDegrees>
              <LongitudeDegrees>-6.44366509281098842620849609375</LongitudeDegrees>
            </Position>
            <AltitudeMeters>309</AltitudeMeters>
            <DistanceMeters>NAN</DistanceMeters>
          </Trackpoint>
          <Trackpoint>
            <Time>2019-10-08T12:49:14.000Z</Time>
            <Position>
              <LatitudeDegrees>39.558295793831348419189453125</LatitudeDegrees>
              <LongitudeDegrees>-6.4434819482266902923583984375</LongitudeDegrees>
            </Position>
            <AltitudeMeters>309.20001220703125</AltitudeMeters>
            <DistanceMeters>NAN</DistanceMeters>
          </Trackpoint>
          <Trackpoint>
            <Time>2019-10-08T12:49:22.000Z</Time>
            <Position>
              <LatitudeDegrees>39.557822048664093017578125</LatitudeDegrees>
              <LongitudeDegrees>-6.44311121664941310882568359375</LongitudeDegrees>
            </Position>
            <AltitudeMeters>309.20001220703125</AltitudeMeters>
            <DistanceMeters>NAN</DistanceMeters>
          </Trackpoint>
          <Trackpoint>
            <Time>2019-10-08T12:49:23.000Z</Time>
            <Position>
              <LatitudeDegrees>39.5577632077038288116455078125</LatitudeDegrees>
              <LongitudeDegrees>-6.443064026534557342529296875</LongitudeDegrees>
            </Position>
            <AltitudeMeters>309.20001220703125</AltitudeMeters>
            <DistanceMeters>NAN</DistanceMeters>
          </Trackpoint>
          <Trackpoint>
            <Time>2019-10-08T12:49:31.000Z</Time>
            <Position>
              <LatitudeDegrees>39.5572871156036853790283203125</LatitudeDegrees>
              <LongitudeDegrees>-6.44268960691988468170166015625</LongitudeDegrees>
            </Position>
            <AltitudeMeters>309</AltitudeMeters>
            <DistanceMeters>NAN</DistanceMeters>
          </Trackpoint>
          <Trackpoint>
            <Time>2019-10-08T12:49:39.000Z</Time>
            <Position>
              <LatitudeDegrees>39.55682133324444293975830078125</LatitudeDegrees>
              <LongitudeDegrees>-6.44233547151088714599609375</LongitudeDegrees>
            </Position>
            <AltitudeMeters>309</AltitudeMeters>
            <DistanceMeters>NAN</DistanceMeters>
          </Trackpoint>
          <Trackpoint>
            <Time>2019-10-08T12:49:42.000Z</Time>
            <Position>
              <LatitudeDegrees>39.55665101297199726104736328125</LatitudeDegrees>
              <LongitudeDegrees>-6.44220496527850627899169921875</LongitudeDegrees>
            </Position>
            <AltitudeMeters>309</AltitudeMeters>
            <DistanceMeters>NAN</DistanceMeters>
          </Trackpoint>
          <Trackpoint>
            <Time>2019-10-08T12:49:51.000Z</Time>
            <Position>
              <LatitudeDegrees>39.55613954924046993255615234375</LatitudeDegrees>
              <LongitudeDegrees>-6.44184705801308155059814453125</LongitudeDegrees>
            </Position>
            <AltitudeMeters>309.399993896484375</AltitudeMeters>
            <DistanceMeters>NAN</DistanceMeters>
          </Trackpoint>
          <Trackpoint>
            <Time>2019-10-08T12:49:52.000Z</Time>
            <Position>
              <LatitudeDegrees>39.55608204938471317291259765625</LatitudeDegrees>
              <LongitudeDegrees>-6.44180816598236560821533203125</LongitudeDegrees>
            </Position>
            <AltitudeMeters>309.600006103515625</AltitudeMeters>
            <DistanceMeters>NAN</DistanceMeters>
          </Trackpoint>
          <Trackpoint>
            <Time>2019-10-08T12:50:00.000Z</Time>
            <Position>
              <LatitudeDegrees>39.5556150935590267181396484375</LatitudeDegrees>
              <LongitudeDegrees>-6.44154447130858898162841796875</LongitudeDegrees>
            </Position>
            <AltitudeMeters>309.20001220703125</AltitudeMeters>
            <DistanceMeters>NAN</DistanceMeters>
          </Trackpoint>
          <Trackpoint>
            <Time>2019-10-08T12:50:09.000Z</Time>
            <Position>
              <LatitudeDegrees>39.55511796288192272186279296875</LatitudeDegrees>
              <LongitudeDegrees>-6.44128538668155670166015625</LongitudeDegrees>
            </Position>
            <AltitudeMeters>309</AltitudeMeters>
            <DistanceMeters>NAN</DistanceMeters>
          </Trackpoint>
          <Trackpoint>
            <Time>2019-10-08T12:50:13.000Z</Time>
            <Position>
              <LatitudeDegrees>39.55490975640714168548583984375</LatitudeDegrees>
              <LongitudeDegrees>-6.44117047078907489776611328125</LongitudeDegrees>
            </Position>
            <AltitudeMeters>309.600006103515625</AltitudeMeters>
            <DistanceMeters>NAN</DistanceMeters>
          </Trackpoint>
          <Trackpoint>
            <Time>2019-10-08T12:50:20.000Z</Time>
            <Position>
              <LatitudeDegrees>39.5545469038188457489013671875</LatitudeDegrees>
              <LongitudeDegrees>-6.4409817941486835479736328125</LongitudeDegrees>
            </Position>
            <AltitudeMeters>309.399993896484375</AltitudeMeters>
            <DistanceMeters>NAN</DistanceMeters>
          </Trackpoint>
          <Trackpoint>
            <Time>2019-10-08T12:50:30.000Z</Time>
            <Position>
              <LatitudeDegrees>39.55402311868965625762939453125</LatitudeDegrees>
              <LongitudeDegrees>-6.4407147467136383056640625</LongitudeDegrees>
            </Position>
            <AltitudeMeters>309.79998779296875</AltitudeMeters>
            <DistanceMeters>NAN</DistanceMeters>
          </Trackpoint>
          <Trackpoint>
            <Time>2019-10-08T12:50:32.000Z</Time>
            <Position>
              <LatitudeDegrees>39.5539175905287265777587890625</LatitudeDegrees>
              <LongitudeDegrees>-6.440658755600452423095703125</LongitudeDegrees>
            </Position>
            <AltitudeMeters>310</AltitudeMeters>
            <DistanceMeters>NAN</DistanceMeters>
          </Trackpoint>
          <Trackpoint>
            <Time>2019-10-08T12:50:42.000Z</Time>
            <Position>
              <LatitudeDegrees>39.553392045199871063232421875</LatitudeDegrees>
              <LongitudeDegrees>-6.44037737511098384857177734375</LongitudeDegrees>
            </Position>
            <AltitudeMeters>310.600006103515625</AltitudeMeters>
            <DistanceMeters>NAN</DistanceMeters>
          </Trackpoint>
          <Trackpoint>
            <Time>2019-10-08T12:50:47.000Z</Time>
            <Position>
              <LatitudeDegrees>39.5531407557427883148193359375</LatitudeDegrees>
              <LongitudeDegrees>-6.4402458630502223968505859375</LongitudeDegrees>
            </Position>
            <AltitudeMeters>310.79998779296875</AltitudeMeters>
            <DistanceMeters>NAN</DistanceMeters>
          </Trackpoint>
          <Trackpoint>
            <Time>2019-10-08T12:50:49.000Z</Time>
            <Position>
              <LatitudeDegrees>39.55304260365664958953857421875</LatitudeDegrees>
              <LongitudeDegrees>-6.44024242646992206573486328125</LongitudeDegrees>
            </Position>
            <AltitudeMeters>310.600006103515625</AltitudeMeters>
            <DistanceMeters>NAN</DistanceMeters>
          </Trackpoint>
          <Trackpoint>
            <Time>2019-10-08T12:50:51.000Z</Time>
            <Position>
              <LatitudeDegrees>39.55295593477785587310791015625</LatitudeDegrees>
              <LongitudeDegrees>-6.44025541841983795166015625</LongitudeDegrees>
            </Position>
            <AltitudeMeters>310.79998779296875</AltitudeMeters>
            <DistanceMeters>NAN</DistanceMeters>
          </Trackpoint>
          <Trackpoint>
            <Time>2019-10-08T12:50:54.000Z</Time>
            <Position>
              <LatitudeDegrees>39.55285786651074886322021484375</LatitudeDegrees>
              <LongitudeDegrees>-6.440302692353725433349609375</LongitudeDegrees>
            </Position>
            <AltitudeMeters>311.79998779296875</AltitudeMeters>
            <DistanceMeters>NAN</DistanceMeters>
          </Trackpoint>
          <Trackpoint>
            <Time>2019-10-08T12:50:56.000Z</Time>
            <Position>
              <LatitudeDegrees>39.55284663476049900054931640625</LatitudeDegrees>
              <LongitudeDegrees>-6.44037268124520778656005859375</LongitudeDegrees>
            </Position>
            <AltitudeMeters>311.79998779296875</AltitudeMeters>
            <DistanceMeters>NAN</DistanceMeters>
          </Trackpoint>
          <Trackpoint>
            <Time>2019-10-08T12:50:57.000Z</Time>
            <Position>
              <LatitudeDegrees>39.5528433658182621002197265625</LatitudeDegrees>
              <LongitudeDegrees>-6.44037217833101749420166015625</LongitudeDegrees>
            </Position>
            <AltitudeMeters>312</AltitudeMeters>
            <DistanceMeters>NAN</DistanceMeters>
          </Trackpoint>
          <Trackpoint>
            <Time>2019-10-08T12:55:23.000Z</Time>
            <Position>
              <LatitudeDegrees>39.5527987740933895111083984375</LatitudeDegrees>
              <LongitudeDegrees>-6.44015475176274776458740234375</LongitudeDegrees>
            </Position>
            <AltitudeMeters>311.600006103515625</AltitudeMeters>
            <DistanceMeters>NAN</DistanceMeters>
          </Trackpoint>
          <Trackpoint>
            <Time>2019-10-08T12:55:24.000Z</Time>
            <Position>
              <LatitudeDegrees>39.55279114656150341033935546875</LatitudeDegrees>
              <LongitudeDegrees>-6.44010546617209911346435546875</LongitudeDegrees>
            </Position>
            <AltitudeMeters>312.20001220703125</AltitudeMeters>
            <DistanceMeters>NAN</DistanceMeters>
          </Trackpoint>
          <Trackpoint>
            <Time>2019-10-08T12:55:26.000Z</Time>
            <Position>
              <LatitudeDegrees>39.552746973931789398193359375</LatitudeDegrees>
              <LongitudeDegrees>-6.4400088228285312652587890625</LongitudeDegrees>
            </Position>
            <AltitudeMeters>312.20001220703125</AltitudeMeters>
            <DistanceMeters>NAN</DistanceMeters>
          </Trackpoint>
          <Trackpoint>
            <Time>2019-10-08T12:55:27.000Z</Time>
            <Position>
              <LatitudeDegrees>39.55270514823496341705322265625</LatitudeDegrees>
              <LongitudeDegrees>-6.43998426385223865509033203125</LongitudeDegrees>
            </Position>
            <AltitudeMeters>311.399993896484375</AltitudeMeters>
            <DistanceMeters>NAN</DistanceMeters>
          </Trackpoint>
          <Trackpoint>
            <Time>2019-10-08T12:55:32.000Z</Time>
            <Position>
              <LatitudeDegrees>39.55248118378221988677978515625</LatitudeDegrees>
              <LongitudeDegrees>-6.43987395800650119781494140625</LongitudeDegrees>
            </Position>
            <AltitudeMeters>311.79998779296875</AltitudeMeters>
            <DistanceMeters>NAN</DistanceMeters>
          </Trackpoint>
          <Trackpoint>
            <Time>2019-10-08T12:55:33.000Z</Time>
            <Position>
              <LatitudeDegrees>39.552433155477046966552734375</LatitudeDegrees>
              <LongitudeDegrees>-6.43985115922987461090087890625</LongitudeDegrees>
            </Position>
            <AltitudeMeters>311.600006103515625</AltitudeMeters>
            <DistanceMeters>NAN</DistanceMeters>
          </Trackpoint>
          <Trackpoint>
            <Time>2019-10-08T12:55:36.000Z</Time>
            <Position>
              <LatitudeDegrees>39.55229108221828937530517578125</LatitudeDegrees>
              <LongitudeDegrees>-6.4397778175771236419677734375</LongitudeDegrees>
            </Position>
            <AltitudeMeters>311.600006103515625</AltitudeMeters>
            <DistanceMeters>NAN</DistanceMeters>
          </Trackpoint>
          <Trackpoint>
            <Time>2019-10-08T12:55:41.000Z</Time>
            <Position>
              <LatitudeDegrees>39.55205488018691539764404296875</LatitudeDegrees>
              <LongitudeDegrees>-6.43965854309499263763427734375</LongitudeDegrees>
            </Position>
            <AltitudeMeters>311.79998779296875</AltitudeMeters>
            <DistanceMeters>NAN</DistanceMeters>
          </Trackpoint>
          <Trackpoint>
            <Time>2019-10-08T12:55:46.000Z</Time>
            <Position>
              <LatitudeDegrees>39.55182395875453948974609375</LatitudeDegrees>
              <LongitudeDegrees>-6.439540274441242218017578125</LongitudeDegrees>
            </Position>
            <AltitudeMeters>312.20001220703125</AltitudeMeters>
            <DistanceMeters>NAN</DistanceMeters>
          </Trackpoint>
          <Trackpoint>
            <Time>2019-10-08T12:55:49.000Z</Time>
            <Position>
              <LatitudeDegrees>39.551684819161891937255859375</LatitudeDegrees>
              <LongitudeDegrees>-6.439471542835235595703125</LongitudeDegrees>
            </Position>
            <AltitudeMeters>313</AltitudeMeters>
            <DistanceMeters>NAN</DistanceMeters>
          </Trackpoint>
          <Trackpoint>
            <Time>2019-10-08T12:55:56.000Z</Time>
            <Position>
              <LatitudeDegrees>39.55137410201132297515869140625</LatitudeDegrees>
              <LongitudeDegrees>-6.43931471742689609527587890625</LongitudeDegrees>
            </Position>
            <AltitudeMeters>313.600006103515625</AltitudeMeters>
            <DistanceMeters>NAN</DistanceMeters>
          </Trackpoint>
          <Trackpoint>
            <Time>2019-10-08T12:56:02.000Z</Time>
            <Position>
              <LatitudeDegrees>39.55112851224839687347412109375</LatitudeDegrees>
              <LongitudeDegrees>-6.439192928373813629150390625</LongitudeDegrees>
            </Position>
            <AltitudeMeters>314.20001220703125</AltitudeMeters>
            <DistanceMeters>NAN</DistanceMeters>
          </Trackpoint>
          <Trackpoint>
            <Time>2019-10-08T12:56:06.000Z</Time>
            <Position>
              <LatitudeDegrees>39.55096640624105930328369140625</LatitudeDegrees>
              <LongitudeDegrees>-6.4391119591891765594482421875</LongitudeDegrees>
            </Position>
            <AltitudeMeters>314.399993896484375</AltitudeMeters>
            <DistanceMeters>NAN</DistanceMeters>
          </Trackpoint>
          <Trackpoint>
            <Time>2019-10-08T12:56:11.000Z</Time>
            <Position>
              <LatitudeDegrees>39.55075736157596111297607421875</LatitudeDegrees>
              <LongitudeDegrees>-6.43902118317782878875732421875</LongitudeDegrees>
            </Position>
            <AltitudeMeters>315.20001220703125</AltitudeMeters>
            <DistanceMeters>NAN</DistanceMeters>
          </Trackpoint>
          <Trackpoint>
            <Time>2019-10-08T12:56:16.000Z</Time>
            <Position>
              <LatitudeDegrees>39.55055301077663898468017578125</LatitudeDegrees>
              <LongitudeDegrees>-6.4389144815504550933837890625</LongitudeDegrees>
            </Position>
            <AltitudeMeters>315.20001220703125</AltitudeMeters>
            <DistanceMeters>NAN</DistanceMeters>
          </Trackpoint>
          <Trackpoint>
            <Time>2019-10-08T12:56:23.000Z</Time>
            <Position>
              <LatitudeDegrees>39.55026869662106037139892578125</LatitudeDegrees>
              <LongitudeDegrees>-6.43877592869102954864501953125</LongitudeDegrees>
            </Position>
            <AltitudeMeters>316.399993896484375</AltitudeMeters>
            <DistanceMeters>NAN</DistanceMeters>
          </Trackpoint>
          <Trackpoint>
            <Time>2019-10-08T12:56:24.000Z</Time>
            <Position>
              <LatitudeDegrees>39.55022695474326610565185546875</LatitudeDegrees>
              <LongitudeDegrees>-6.438750363886356353759765625</LongitudeDegrees>
            </Position>
            <AltitudeMeters>316.399993896484375</AltitudeMeters>
            <DistanceMeters>NAN</DistanceMeters>
          </Trackpoint>
          <Trackpoint>
            <Time>2019-10-08T12:56:34.000Z</Time>
            <Position>
              <LatitudeDegrees>39.54980266280472278594970703125</LatitudeDegrees>
              <LongitudeDegrees>-6.4385019242763519287109375</LongitudeDegrees>
            </Position>
            <AltitudeMeters>316.399993896484375</AltitudeMeters>
            <DistanceMeters>NAN</DistanceMeters>
          </Trackpoint>
          <Trackpoint>
            <Time>2019-10-08T12:56:45.000Z</Time>
            <Position>
              <LatitudeDegrees>39.54933084547519683837890625</LatitudeDegrees>
              <LongitudeDegrees>-6.43818265758454799652099609375</LongitudeDegrees>
            </Position>
            <AltitudeMeters>316.600006103515625</AltitudeMeters>
            <DistanceMeters>NAN</DistanceMeters>
          </Trackpoint>
          <Trackpoint>
            <Time>2019-10-08T12:56:46.000Z</Time>
            <Position>
              <LatitudeDegrees>39.549287259578704833984375</LatitudeDegrees>
              <LongitudeDegrees>-6.4381532371044158935546875</LongitudeDegrees>
            </Position>
            <AltitudeMeters>316.600006103515625</AltitudeMeters>
            <DistanceMeters>NAN</DistanceMeters>
          </Trackpoint>
          <Trackpoint>
            <Time>2019-10-08T12:56:56.000Z</Time>
            <Position>
              <LatitudeDegrees>39.54885818995535373687744140625</LatitudeDegrees>
              <LongitudeDegrees>-6.43785417079925537109375</LongitudeDegrees>
            </Position>
            <AltitudeMeters>316.79998779296875</AltitudeMeters>
            <DistanceMeters>NAN</DistanceMeters>
          </Trackpoint>
          <Trackpoint>
            <Time>2019-10-08T12:57:01.000Z</Time>
            <Position>
              <LatitudeDegrees>39.5486359857022762298583984375</LatitudeDegrees>
              <LongitudeDegrees>-6.4377079904079437255859375</LongitudeDegrees>
            </Position>
            <AltitudeMeters>317.600006103515625</AltitudeMeters>
            <DistanceMeters>NAN</DistanceMeters>
          </Trackpoint>
          <Trackpoint>
            <Time>2019-10-08T12:57:06.000Z</Time>
            <Position>
              <LatitudeDegrees>39.5484190620481967926025390625</LatitudeDegrees>
              <LongitudeDegrees>-6.4375579543411731719970703125</LongitudeDegrees>
            </Position>
            <AltitudeMeters>317</AltitudeMeters>
            <DistanceMeters>NAN</DistanceMeters>
          </Trackpoint>
          <Trackpoint>
            <Time>2019-10-08T12:57:07.000Z</Time>
            <Position>
              <LatitudeDegrees>39.54837472178041934967041015625</LatitudeDegrees>
              <LongitudeDegrees>-6.437527947127819061279296875</LongitudeDegrees>
            </Position>
            <AltitudeMeters>317.399993896484375</AltitudeMeters>
            <DistanceMeters>NAN</DistanceMeters>
          </Trackpoint>
          <Trackpoint>
            <Time>2019-10-08T12:57:17.000Z</Time>
            <Position>
              <LatitudeDegrees>39.547945819795131683349609375</LatitudeDegrees>
              <LongitudeDegrees>-6.43724036403000354766845703125</LongitudeDegrees>
            </Position>
            <AltitudeMeters>317.79998779296875</AltitudeMeters>
            <DistanceMeters>NAN</DistanceMeters>
          </Trackpoint>
          <Trackpoint>
            <Time>2019-10-08T12:57:21.000Z</Time>
            <Position>
              <LatitudeDegrees>39.54777440987527370452880859375</LatitudeDegrees>
              <LongitudeDegrees>-6.43712402321398258209228515625</LongitudeDegrees>
            </Position>
            <AltitudeMeters>318.20001220703125</AltitudeMeters>
            <DistanceMeters>NAN</DistanceMeters>
          </Trackpoint>
          <Trackpoint>
            <Time>2019-10-08T12:57:27.000Z</Time>
            <Position>
              <LatitudeDegrees>39.547517001628875732421875</LatitudeDegrees>
              <LongitudeDegrees>-6.43695621751248836517333984375</LongitudeDegrees>
            </Position>
            <AltitudeMeters>318.399993896484375</AltitudeMeters>
            <DistanceMeters>NAN</DistanceMeters>
          </Trackpoint>
          <Trackpoint>
            <Time>2019-10-08T12:57:28.000Z</Time>
            <Position>
              <LatitudeDegrees>39.54747500829398632049560546875</LatitudeDegrees>
              <LongitudeDegrees>-6.43692956306040287017822265625</LongitudeDegrees>
            </Position>
            <AltitudeMeters>318.79998779296875</AltitudeMeters>
            <DistanceMeters>NAN</DistanceMeters>
          </Trackpoint>
          <Trackpoint>
            <Time>2019-10-08T12:57:35.000Z</Time>
            <Position>
              <LatitudeDegrees>39.54718650318682193756103515625</LatitudeDegrees>
              <LongitudeDegrees>-6.43672621808946132659912109375</LongitudeDegrees>
            </Position>
            <AltitudeMeters>319.79998779296875</AltitudeMeters>
            <DistanceMeters>NAN</DistanceMeters>
          </Trackpoint>
          <Trackpoint>
            <Time>2019-10-08T12:57:36.000Z</Time>
            <Position>
              <LatitudeDegrees>39.5471430011093616485595703125</LatitudeDegrees>
              <LongitudeDegrees>-6.436699144542217254638671875</LongitudeDegrees>
            </Position>
            <AltitudeMeters>319.79998779296875</AltitudeMeters>
            <DistanceMeters>NAN</DistanceMeters>
          </Trackpoint>
          <Trackpoint>
            <Time>2019-10-08T12:57:46.000Z</Time>
            <Position>
              <LatitudeDegrees>39.54672683961689472198486328125</LatitudeDegrees>
              <LongitudeDegrees>-6.4364203624427318572998046875</LongitudeDegrees>
            </Position>
            <AltitudeMeters>320.79998779296875</AltitudeMeters>
            <DistanceMeters>NAN</DistanceMeters>
          </Trackpoint>
          <Trackpoint>
            <Time>2019-10-08T12:57:47.000Z</Time>
            <Position>
              <LatitudeDegrees>39.54668275080621242523193359375</LatitudeDegrees>
              <LongitudeDegrees>-6.43639613874256610870361328125</LongitudeDegrees>
            </Position>
            <AltitudeMeters>320.79998779296875</AltitudeMeters>
            <DistanceMeters>NAN</DistanceMeters>
          </Trackpoint>
          <Trackpoint>
            <Time>2019-10-08T12:57:56.000Z</Time>
            <Position>
              <LatitudeDegrees>39.546296261250972747802734375</LatitudeDegrees>
              <LongitudeDegrees>-6.436202935874462127685546875</LongitudeDegrees>
            </Position>
            <AltitudeMeters>321.399993896484375</AltitudeMeters>
            <DistanceMeters>NAN</DistanceMeters>
          </Trackpoint>
          <Trackpoint>
            <Time>2019-10-08T12:58:04.000Z</Time>
            <Position>
              <LatitudeDegrees>39.54593575559556484222412109375</LatitudeDegrees>
              <LongitudeDegrees>-6.43606857396662235260009765625</LongitudeDegrees>
            </Position>
            <AltitudeMeters>321.79998779296875</AltitudeMeters>
            <DistanceMeters>NAN</DistanceMeters>
          </Trackpoint>
          <Trackpoint>
            <Time>2019-10-08T12:58:06.000Z</Time>
            <Position>
              <LatitudeDegrees>39.54584623686969280242919921875</LatitudeDegrees>
              <LongitudeDegrees>-6.43603621982038021087646484375</LongitudeDegrees>
            </Position>
            <AltitudeMeters>322</AltitudeMeters>
            <DistanceMeters>NAN</DistanceMeters>
          </Trackpoint>
          <Trackpoint>
            <Time>2019-10-08T12:58:18.000Z</Time>
            <Position>
              <LatitudeDegrees>39.54529370181262493133544921875</LatitudeDegrees>
              <LongitudeDegrees>-6.43583647906780242919921875</LongitudeDegrees>
            </Position>
            <AltitudeMeters>322.20001220703125</AltitudeMeters>
            <DistanceMeters>NAN</DistanceMeters>
          </Trackpoint>
          <Trackpoint>
            <Time>2019-10-08T12:58:19.000Z</Time>
            <Position>
              <LatitudeDegrees>39.54524584114551544189453125</LatitudeDegrees>
              <LongitudeDegrees>-6.43582063727080821990966796875</LongitudeDegrees>
            </Position>
            <AltitudeMeters>322.600006103515625</AltitudeMeters>
            <DistanceMeters>NAN</DistanceMeters>
          </Trackpoint>
          <Trackpoint>
            <Time>2019-10-08T12:58:30.000Z</Time>
            <Position>
              <LatitudeDegrees>39.544749297201633453369140625</LatitudeDegrees>
              <LongitudeDegrees>-6.43564763478934764862060546875</LongitudeDegrees>
            </Position>
            <AltitudeMeters>323</AltitudeMeters>
            <DistanceMeters>NAN</DistanceMeters>
          </Trackpoint>
          <Trackpoint>
            <Time>2019-10-08T12:58:36.000Z</Time>
            <Position>
              <LatitudeDegrees>39.544475376605987548828125</LatitudeDegrees>
              <LongitudeDegrees>-6.43555082380771636962890625</LongitudeDegrees>
            </Position>
            <AltitudeMeters>324</AltitudeMeters>
            <DistanceMeters>NAN</DistanceMeters>
          </Trackpoint>
          <Trackpoint>
            <Time>2019-10-08T12:58:40.000Z</Time>
            <Position>
              <LatitudeDegrees>39.54428871162235736846923828125</LatitudeDegrees>
              <LongitudeDegrees>-6.43548469059169292449951171875</LongitudeDegrees>
            </Position>
            <AltitudeMeters>324.20001220703125</AltitudeMeters>
            <DistanceMeters>NAN</DistanceMeters>
          </Trackpoint>
          <Trackpoint>
            <Time>2019-10-08T12:58:51.000Z</Time>
            <Position>
              <LatitudeDegrees>39.54378579743206501007080078125</LatitudeDegrees>
              <LongitudeDegrees>-6.43530062399804592132568359375</LongitudeDegrees>
            </Position>
            <AltitudeMeters>324.600006103515625</AltitudeMeters>
            <DistanceMeters>NAN</DistanceMeters>
          </Trackpoint>
          <Trackpoint>
            <Time>2019-10-08T12:58:56.000Z</Time>
            <Position>
              <LatitudeDegrees>39.54355680383741855621337890625</LatitudeDegrees>
              <LongitudeDegrees>-6.43521881662309169769287109375</LongitudeDegrees>
            </Position>
            <AltitudeMeters>325</AltitudeMeters>
            <DistanceMeters>NAN</DistanceMeters>
          </Trackpoint>
          <Trackpoint>
            <Time>2019-10-08T12:59:03.000Z</Time>
            <Position>
              <LatitudeDegrees>39.54323996789753437042236328125</LatitudeDegrees>
              <LongitudeDegrees>-6.43510633148252964019775390625</LongitudeDegrees>
            </Position>
            <AltitudeMeters>325.399993896484375</AltitudeMeters>
            <DistanceMeters>NAN</DistanceMeters>
          </Trackpoint>
          <Trackpoint>
            <Time>2019-10-08T12:59:16.000Z</Time>
            <Position>
              <LatitudeDegrees>39.54264275729656219482421875</LatitudeDegrees>
              <LongitudeDegrees>-6.434901393949985504150390625</LongitudeDegrees>
            </Position>
            <AltitudeMeters>326.20001220703125</AltitudeMeters>
            <DistanceMeters>NAN</DistanceMeters>
          </Trackpoint>
          <Trackpoint>
            <Time>2019-10-08T12:59:24.000Z</Time>
            <Position>
              <LatitudeDegrees>39.54228627495467662811279296875</LatitudeDegrees>
              <LongitudeDegrees>-6.43477541394531726837158203125</LongitudeDegrees>
            </Position>
            <AltitudeMeters>327</AltitudeMeters>
            <DistanceMeters>NAN</DistanceMeters>
          </Trackpoint>
          <Trackpoint>
            <Time>2019-10-08T12:59:25.000Z</Time>
            <Position>
              <LatitudeDegrees>39.54224067740142345428466796875</LatitudeDegrees>
              <LongitudeDegrees>-6.43475865013897418975830078125</LongitudeDegrees>
            </Position>
            <AltitudeMeters>327.20001220703125</AltitudeMeters>
            <DistanceMeters>NAN</DistanceMeters>
          </Trackpoint>
          <Trackpoint>
            <Time>2019-10-08T12:59:34.000Z</Time>
            <Position>
              <LatitudeDegrees>39.54184136353433132171630859375</LatitudeDegrees>
              <LongitudeDegrees>-6.434613056480884552001953125</LongitudeDegrees>
            </Position>
            <AltitudeMeters>327.600006103515625</AltitudeMeters>
            <DistanceMeters>NAN</DistanceMeters>
          </Trackpoint>
          <Trackpoint>
            <Time>2019-10-08T12:59:39.000Z</Time>
            <Position>
              <LatitudeDegrees>39.54161890782415866851806640625</LatitudeDegrees>
              <LongitudeDegrees>-6.4345273934304714202880859375</LongitudeDegrees>
            </Position>
            <AltitudeMeters>328.20001220703125</AltitudeMeters>
            <DistanceMeters>NAN</DistanceMeters>
          </Trackpoint>
          <Trackpoint>
            <Time>2019-10-08T12:59:44.000Z</Time>
            <Position>
              <LatitudeDegrees>39.54139075241982936859130859375</LatitudeDegrees>
              <LongitudeDegrees>-6.43444784916937351226806640625</LongitudeDegrees>
            </Position>
            <AltitudeMeters>328</AltitudeMeters>
            <DistanceMeters>NAN</DistanceMeters>
          </Trackpoint>
          <Trackpoint>
            <Time>2019-10-08T12:59:54.000Z</Time>
            <Position>
              <LatitudeDegrees>39.5409155823290348052978515625</LatitudeDegrees>
              <LongitudeDegrees>-6.43426562659442424774169921875</LongitudeDegrees>
            </Position>
            <AltitudeMeters>327.600006103515625</AltitudeMeters>
            <DistanceMeters>NAN</DistanceMeters>
          </Trackpoint>
          <Trackpoint>
            <Time>2019-10-08T13:00:00.000Z</Time>
            <Position>
              <LatitudeDegrees>39.54060151241719722747802734375</LatitudeDegrees>
              <LongitudeDegrees>-6.4341508783400058746337890625</LongitudeDegrees>
            </Position>
            <AltitudeMeters>326.600006103515625</AltitudeMeters>
            <DistanceMeters>NAN</DistanceMeters>
          </Trackpoint>
          <Trackpoint>
            <Time>2019-10-08T13:00:04.000Z</Time>
            <Position>
              <LatitudeDegrees>39.54038660041987895965576171875</LatitudeDegrees>
              <LongitudeDegrees>-6.43407636322081089019775390625</LongitudeDegrees>
            </Position>
            <AltitudeMeters>326</AltitudeMeters>
            <DistanceMeters>NAN</DistanceMeters>
          </Trackpoint>
          <Trackpoint>
            <Time>2019-10-08T13:00:06.000Z</Time>
            <Position>
              <LatitudeDegrees>39.5402765460312366485595703125</LatitudeDegrees>
              <LongitudeDegrees>-6.434044428169727325439453125</LongitudeDegrees>
            </Position>
            <AltitudeMeters>325.600006103515625</AltitudeMeters>
            <DistanceMeters>NAN</DistanceMeters>
          </Trackpoint>
          <Trackpoint>
            <Time>2019-10-08T13:00:12.000Z</Time>
            <Position>
              <LatitudeDegrees>39.5399385876953601837158203125</LatitudeDegrees>
              <LongitudeDegrees>-6.433950550854206085205078125</LongitudeDegrees>
            </Position>
            <AltitudeMeters>325.399993896484375</AltitudeMeters>
            <DistanceMeters>NAN</DistanceMeters>
          </Trackpoint>
          <Trackpoint>
            <Time>2019-10-08T13:00:17.000Z</Time>
            <Position>
              <LatitudeDegrees>39.5396566204726696014404296875</LatitudeDegrees>
              <LongitudeDegrees>-6.4338937215507030487060546875</LongitudeDegrees>
            </Position>
            <AltitudeMeters>325</AltitudeMeters>
            <DistanceMeters>NAN</DistanceMeters>
          </Trackpoint>
          <Trackpoint>
            <Time>2019-10-08T13:00:19.000Z</Time>
            <Position>
              <LatitudeDegrees>39.5395441353321075439453125</LatitudeDegrees>
              <LongitudeDegrees>-6.4338803105056285858154296875</LongitudeDegrees>
            </Position>
            <AltitudeMeters>325.20001220703125</AltitudeMeters>
            <DistanceMeters>NAN</DistanceMeters>
          </Trackpoint>
          <Trackpoint>
            <Time>2019-10-08T13:00:22.000Z</Time>
            <Position>
              <LatitudeDegrees>39.539377503097057342529296875</LatitudeDegrees>
              <LongitudeDegrees>-6.43386145122349262237548828125</LongitudeDegrees>
            </Position>
            <AltitudeMeters>325.399993896484375</AltitudeMeters>
            <DistanceMeters>NAN</DistanceMeters>
          </Trackpoint>
          <Trackpoint>
            <Time>2019-10-08T13:00:25.000Z</Time>
            <Position>
              <LatitudeDegrees>39.5392217673361301422119140625</LatitudeDegrees>
              <LongitudeDegrees>-6.43385038711130619049072265625</LongitudeDegrees>
            </Position>
            <AltitudeMeters>324.600006103515625</AltitudeMeters>
            <DistanceMeters>NAN</DistanceMeters>
          </Trackpoint>
          <Trackpoint>
            <Time>2019-10-08T13:00:28.000Z</Time>
            <Position>
              <LatitudeDegrees>39.539079107344150543212890625</LatitudeDegrees>
              <LongitudeDegrees>-6.4338474534451961517333984375</LongitudeDegrees>
            </Position>
            <AltitudeMeters>325.79998779296875</AltitudeMeters>
            <DistanceMeters>NAN</DistanceMeters>
          </Trackpoint>
          <Trackpoint>
            <Time>2019-10-08T13:00:30.000Z</Time>
            <Position>
              <LatitudeDegrees>39.53898967243731021881103515625</LatitudeDegrees>
              <LongitudeDegrees>-6.43385273404419422149658203125</LongitudeDegrees>
            </Position>
            <AltitudeMeters>326.600006103515625</AltitudeMeters>
            <DistanceMeters>NAN</DistanceMeters>
          </Trackpoint>
          <Trackpoint>
            <Time>2019-10-08T13:00:34.000Z</Time>
            <Position>
              <LatitudeDegrees>39.53882505185902118682861328125</LatitudeDegrees>
              <LongitudeDegrees>-6.4338665641844272613525390625</LongitudeDegrees>
            </Position>
            <AltitudeMeters>327</AltitudeMeters>
            <DistanceMeters>NAN</DistanceMeters>
          </Trackpoint>
          <Trackpoint>
            <Time>2019-10-08T13:00:39.000Z</Time>
            <Position>
              <LatitudeDegrees>39.53862019814550876617431640625</LatitudeDegrees>
              <LongitudeDegrees>-6.4338779635727405548095703125</LongitudeDegrees>
            </Position>
            <AltitudeMeters>328.20001220703125</AltitudeMeters>
            <DistanceMeters>NAN</DistanceMeters>
          </Trackpoint>
          <Trackpoint>
            <Time>2019-10-08T13:00:45.000Z</Time>
            <Position>
              <LatitudeDegrees>39.5383792184293270111083984375</LatitudeDegrees>
              <LongitudeDegrees>-6.43391073681414127349853515625</LongitudeDegrees>
            </Position>
            <AltitudeMeters>329</AltitudeMeters>
            <DistanceMeters>NAN</DistanceMeters>
          </Trackpoint>
          <Trackpoint>
            <Time>2019-10-08T13:00:46.000Z</Time>
            <Position>
              <LatitudeDegrees>39.53833839856088161468505859375</LatitudeDegrees>
              <LongitudeDegrees>-6.433914341032505035400390625</LongitudeDegrees>
            </Position>
            <AltitudeMeters>329.399993896484375</AltitudeMeters>
            <DistanceMeters>NAN</DistanceMeters>
          </Trackpoint>
          <Trackpoint>
            <Time>2019-10-08T13:00:50.000Z</Time>
            <Position>
              <LatitudeDegrees>39.538177885115146636962890625</LatitudeDegrees>
              <LongitudeDegrees>-6.43393621779978275299072265625</LongitudeDegrees>
            </Position>
            <AltitudeMeters>329.399993896484375</AltitudeMeters>
            <DistanceMeters>NAN</DistanceMeters>
          </Trackpoint>
          <Trackpoint>
            <Time>2019-10-08T13:01:00.000Z</Time>
            <Position>
              <LatitudeDegrees>39.53778116963803768157958984375</LatitudeDegrees>
              <LongitudeDegrees>-6.43397946842014789581298828125</LongitudeDegrees>
            </Position>
            <AltitudeMeters>330.600006103515625</AltitudeMeters>
            <DistanceMeters>NAN</DistanceMeters>
          </Trackpoint>
          <Trackpoint>
            <Time>2019-10-08T13:01:09.000Z</Time>
            <Position>
              <LatitudeDegrees>39.53742778860032558441162109375</LatitudeDegrees>
              <LongitudeDegrees>-6.43402674235403537750244140625</LongitudeDegrees>
            </Position>
            <AltitudeMeters>331.399993896484375</AltitudeMeters>
            <DistanceMeters>NAN</DistanceMeters>
          </Trackpoint>
          <Trackpoint>
            <Time>2019-10-08T13:01:11.000Z</Time>
            <Position>
              <LatitudeDegrees>39.5373515971004962921142578125</LatitudeDegrees>
              <LongitudeDegrees>-6.434043087065219879150390625</LongitudeDegrees>
            </Position>
            <AltitudeMeters>331.79998779296875</AltitudeMeters>
            <DistanceMeters>NAN</DistanceMeters>
          </Trackpoint>
          <Trackpoint>
            <Time>2019-10-08T13:01:17.000Z</Time>
            <Position>
              <LatitudeDegrees>39.5371172390878200531005859375</LatitudeDegrees>
              <LongitudeDegrees>-6.434069573879241943359375</LongitudeDegrees>
            </Position>
            <AltitudeMeters>332.399993896484375</AltitudeMeters>
            <DistanceMeters>NAN</DistanceMeters>
          </Trackpoint>
          <Trackpoint>
            <Time>2019-10-08T13:01:18.000Z</Time>
            <Position>
              <LatitudeDegrees>39.53707792796194553375244140625</LatitudeDegrees>
              <LongitudeDegrees>-6.43407183699309825897216796875</LongitudeDegrees>
            </Position>
            <AltitudeMeters>332.79998779296875</AltitudeMeters>
            <DistanceMeters>NAN</DistanceMeters>
          </Trackpoint>
          <Trackpoint>
            <Time>2019-10-08T13:01:27.000Z</Time>
            <Position>
              <LatitudeDegrees>39.5367189310491085052490234375</LatitudeDegrees>
              <LongitudeDegrees>-6.43410536460578441619873046875</LongitudeDegrees>
            </Position>
            <AltitudeMeters>333.399993896484375</AltitudeMeters>
            <DistanceMeters>NAN</DistanceMeters>
          </Trackpoint>
          <Trackpoint>
            <Time>2019-10-08T13:01:29.000Z</Time>
            <Position>
              <LatitudeDegrees>39.5366411469876766204833984375</LatitudeDegrees>
              <LongitudeDegrees>-6.4341072924435138702392578125</LongitudeDegrees>
            </Position>
            <AltitudeMeters>334</AltitudeMeters>
            <DistanceMeters>NAN</DistanceMeters>
          </Trackpoint>
          <Trackpoint>
            <Time>2019-10-08T13:01:38.000Z</Time>
            <Position>
              <LatitudeDegrees>39.5362807251513004302978515625</LatitudeDegrees>
              <LongitudeDegrees>-6.4341004192829132080078125</LongitudeDegrees>
            </Position>
            <AltitudeMeters>334.399993896484375</AltitudeMeters>
            <DistanceMeters>NAN</DistanceMeters>
          </Trackpoint>
          <Trackpoint>
            <Time>2019-10-08T13:01:43.000Z</Time>
            <Position>
              <LatitudeDegrees>39.5360664837062358856201171875</LatitudeDegrees>
              <LongitudeDegrees>-6.43406932242214679718017578125</LongitudeDegrees>
            </Position>
            <AltitudeMeters>335</AltitudeMeters>
            <DistanceMeters>NAN</DistanceMeters>
          </Trackpoint>
          <Trackpoint>
            <Time>2019-10-08T13:01:47.000Z</Time>
            <Position>
              <LatitudeDegrees>39.5358817465603351593017578125</LatitudeDegrees>
              <LongitudeDegrees>-6.43402221612632274627685546875</LongitudeDegrees>
            </Position>
            <AltitudeMeters>334.600006103515625</AltitudeMeters>
            <DistanceMeters>NAN</DistanceMeters>
          </Trackpoint>
          <Trackpoint>
            <Time>2019-10-08T13:01:57.000Z</Time>
            <Position>
              <LatitudeDegrees>39.53541093505918979644775390625</LatitudeDegrees>
              <LongitudeDegrees>-6.43383630551397800445556640625</LongitudeDegrees>
            </Position>
            <AltitudeMeters>334.600006103515625</AltitudeMeters>
            <DistanceMeters>NAN</DistanceMeters>
          </Trackpoint>
          <Trackpoint>
            <Time>2019-10-08T13:02:02.000Z</Time>
            <Position>
              <LatitudeDegrees>39.53515092842280864715576171875</LatitudeDegrees>
              <LongitudeDegrees>-6.4337130077183246612548828125</LongitudeDegrees>
            </Position>
            <AltitudeMeters>334</AltitudeMeters>
            <DistanceMeters>NAN</DistanceMeters>
          </Trackpoint>
          <Trackpoint>
            <Time>2019-10-08T13:02:08.000Z</Time>
            <Position>
              <LatitudeDegrees>39.53482411801815032958984375</LatitudeDegrees>
              <LongitudeDegrees>-6.4335505664348602294921875</LongitudeDegrees>
            </Position>
            <AltitudeMeters>334</AltitudeMeters>
            <DistanceMeters>NAN</DistanceMeters>
          </Trackpoint>
          <Trackpoint>
            <Time>2019-10-08T13:02:14.000Z</Time>
            <Position>
              <LatitudeDegrees>39.53447937034070491790771484375</LatitudeDegrees>
              <LongitudeDegrees>-6.43337555229663848876953125</LongitudeDegrees>
            </Position>
            <AltitudeMeters>333.399993896484375</AltitudeMeters>
            <DistanceMeters>NAN</DistanceMeters>
          </Trackpoint>
          <Trackpoint>
            <Time>2019-10-08T13:02:18.000Z</Time>
            <Position>
              <LatitudeDegrees>39.53424274921417236328125</LatitudeDegrees>
              <LongitudeDegrees>-6.4332597143948078155517578125</LongitudeDegrees>
            </Position>
            <AltitudeMeters>332.79998779296875</AltitudeMeters>
            <DistanceMeters>NAN</DistanceMeters>
          </Trackpoint>
          <Trackpoint>
            <Time>2019-10-08T13:02:20.000Z</Time>
            <Position>
              <LatitudeDegrees>39.53412263654172420501708984375</LatitudeDegrees>
              <LongitudeDegrees>-6.4332013763487339019775390625</LongitudeDegrees>
            </Position>
            <AltitudeMeters>332.79998779296875</AltitudeMeters>
            <DistanceMeters>NAN</DistanceMeters>
          </Trackpoint>
          <Trackpoint>
            <Time>2019-10-08T13:02:29.000Z</Time>
            <Position>
              <LatitudeDegrees>39.533579237759113311767578125</LatitudeDegrees>
              <LongitudeDegrees>-6.4329314790666103363037109375</LongitudeDegrees>
            </Position>
            <AltitudeMeters>332</AltitudeMeters>
            <DistanceMeters>NAN</DistanceMeters>
          </Trackpoint>
          <Trackpoint>
            <Time>2019-10-08T13:02:30.000Z</Time>
            <Position>
              <LatitudeDegrees>39.5335172116756439208984375</LatitudeDegrees>
              <LongitudeDegrees>-6.4329019747674465179443359375</LongitudeDegrees>
            </Position>
            <AltitudeMeters>332</AltitudeMeters>
            <DistanceMeters>NAN</DistanceMeters>
          </Trackpoint>
          <Trackpoint>
            <Time>2019-10-08T13:02:36.000Z</Time>
            <Position>
              <LatitudeDegrees>39.53314849175512790679931640625</LatitudeDegrees>
              <LongitudeDegrees>-6.4327155612409114837646484375</LongitudeDegrees>
            </Position>
            <AltitudeMeters>331.79998779296875</AltitudeMeters>
            <DistanceMeters>NAN</DistanceMeters>
          </Trackpoint>
          <Trackpoint>
            <Time>2019-10-08T13:02:39.000Z</Time>
            <Position>
              <LatitudeDegrees>39.53296559862792491912841796875</LatitudeDegrees>
              <LongitudeDegrees>-6.43262386322021484375</LongitudeDegrees>
            </Position>
            <AltitudeMeters>332.20001220703125</AltitudeMeters>
            <DistanceMeters>NAN</DistanceMeters>
          </Trackpoint>
          <Trackpoint>
            <Time>2019-10-08T13:02:47.000Z</Time>
            <Position>
              <LatitudeDegrees>39.53247718513011932373046875</LatitudeDegrees>
              <LongitudeDegrees>-6.43238154239952564239501953125</LongitudeDegrees>
            </Position>
            <AltitudeMeters>331.79998779296875</AltitudeMeters>
            <DistanceMeters>NAN</DistanceMeters>
          </Trackpoint>
          <Trackpoint>
            <Time>2019-10-08T13:02:52.000Z</Time>
            <Position>
              <LatitudeDegrees>39.5321652106940746307373046875</LatitudeDegrees>
              <LongitudeDegrees>-6.43223234452307224273681640625</LongitudeDegrees>
            </Position>
            <AltitudeMeters>331.399993896484375</AltitudeMeters>
            <DistanceMeters>NAN</DistanceMeters>
          </Trackpoint>
          <Trackpoint>
            <Time>2019-10-08T13:03:00.000Z</Time>
            <Position>
              <LatitudeDegrees>39.53166942112147808074951171875</LatitudeDegrees>
              <LongitudeDegrees>-6.4319895207881927490234375</LongitudeDegrees>
            </Position>
            <AltitudeMeters>331.79998779296875</AltitudeMeters>
            <DistanceMeters>NAN</DistanceMeters>
          </Trackpoint>
          <Trackpoint>
            <Time>2019-10-08T13:03:01.000Z</Time>
            <Position>
              <LatitudeDegrees>39.5316074788570404052734375</LatitudeDegrees>
              <LongitudeDegrees>-6.43196244724094867706298828125</LongitudeDegrees>
            </Position>
            <AltitudeMeters>332</AltitudeMeters>
            <DistanceMeters>NAN</DistanceMeters>
          </Trackpoint>
          <Trackpoint>
            <Time>2019-10-08T13:03:09.000Z</Time>
            <Position>
              <LatitudeDegrees>39.53111730515956878662109375</LatitudeDegrees>
              <LongitudeDegrees>-6.4317254908382892608642578125</LongitudeDegrees>
            </Position>
            <AltitudeMeters>331.79998779296875</AltitudeMeters>
            <DistanceMeters>NAN</DistanceMeters>
          </Trackpoint>
          <Trackpoint>
            <Time>2019-10-08T13:03:10.000Z</Time>
            <Position>
              <LatitudeDegrees>39.53105703927576541900634765625</LatitudeDegrees>
              <LongitudeDegrees>-6.431696154177188873291015625</LongitudeDegrees>
            </Position>
            <AltitudeMeters>331.600006103515625</AltitudeMeters>
            <DistanceMeters>NAN</DistanceMeters>
          </Trackpoint>
          <Trackpoint>
            <Time>2019-10-08T13:03:19.000Z</Time>
            <Position>
              <LatitudeDegrees>39.5305086113512516021728515625</LatitudeDegrees>
              <LongitudeDegrees>-6.4314244128763675689697265625</LongitudeDegrees>
            </Position>
            <AltitudeMeters>332.399993896484375</AltitudeMeters>
            <DistanceMeters>NAN</DistanceMeters>
          </Trackpoint>
          <Trackpoint>
            <Time>2019-10-08T13:03:21.000Z</Time>
            <Position>
              <LatitudeDegrees>39.53038648702204227447509765625</LatitudeDegrees>
              <LongitudeDegrees>-6.43136599101126194000244140625</LongitudeDegrees>
            </Position>
            <AltitudeMeters>332.20001220703125</AltitudeMeters>
            <DistanceMeters>NAN</DistanceMeters>
          </Trackpoint>
          <Trackpoint>
            <Time>2019-10-08T13:03:28.000Z</Time>
            <Position>
              <LatitudeDegrees>39.5299735106527805328369140625</LatitudeDegrees>
              <LongitudeDegrees>-6.43116113729774951934814453125</LongitudeDegrees>
            </Position>
            <AltitudeMeters>332.79998779296875</AltitudeMeters>
            <DistanceMeters>NAN</DistanceMeters>
          </Trackpoint>
          <Trackpoint>
            <Time>2019-10-08T13:03:31.000Z</Time>
            <Position>
              <LatitudeDegrees>39.52980226837098598480224609375</LatitudeDegrees>
              <LongitudeDegrees>-6.43107245676219463348388671875</LongitudeDegrees>
            </Position>
            <AltitudeMeters>332.20001220703125</AltitudeMeters>
            <DistanceMeters>NAN</DistanceMeters>
          </Trackpoint>
          <Trackpoint>
            <Time>2019-10-08T13:03:39.000Z</Time>
            <Position>
              <LatitudeDegrees>39.529358446598052978515625</LatitudeDegrees>
              <LongitudeDegrees>-6.43085720948874950408935546875</LongitudeDegrees>
            </Position>
            <AltitudeMeters>332.600006103515625</AltitudeMeters>
            <DistanceMeters>NAN</DistanceMeters>
          </Trackpoint>
          <Trackpoint>
            <Time>2019-10-08T13:03:49.000Z</Time>
            <Position>
              <LatitudeDegrees>39.52884371392428874969482421875</LatitudeDegrees>
              <LongitudeDegrees>-6.43060491420328617095947265625</LongitudeDegrees>
            </Position>
            <AltitudeMeters>333.79998779296875</AltitudeMeters>
            <DistanceMeters>NAN</DistanceMeters>
          </Trackpoint>
          <Trackpoint>
            <Time>2019-10-08T13:03:51.000Z</Time>
            <Position>
              <LatitudeDegrees>39.52874220907688140869140625</LatitudeDegrees>
              <LongitudeDegrees>-6.43055177293717861175537109375</LongitudeDegrees>
            </Position>
            <AltitudeMeters>333.600006103515625</AltitudeMeters>
            <DistanceMeters>NAN</DistanceMeters>
          </Trackpoint>
          <Trackpoint>
            <Time>2019-10-08T13:03:58.000Z</Time>
            <Position>
              <LatitudeDegrees>39.528390504419803619384765625</LatitudeDegrees>
              <LongitudeDegrees>-6.43037910573184490203857421875</LongitudeDegrees>
            </Position>
            <AltitudeMeters>333.79998779296875</AltitudeMeters>
            <DistanceMeters>NAN</DistanceMeters>
          </Trackpoint>
          <Trackpoint>
            <Time>2019-10-08T13:04:00.000Z</Time>
            <Position>
              <LatitudeDegrees>39.52829117886722087860107421875</LatitudeDegrees>
              <LongitudeDegrees>-6.4303351007401943206787109375</LongitudeDegrees>
            </Position>
            <AltitudeMeters>334.20001220703125</AltitudeMeters>
            <DistanceMeters>NAN</DistanceMeters>
          </Trackpoint>
          <Trackpoint>
            <Time>2019-10-08T13:04:09.000Z</Time>
            <Position>
              <LatitudeDegrees>39.527845345437526702880859375</LatitudeDegrees>
              <LongitudeDegrees>-6.430103592574596405029296875</LongitudeDegrees>
            </Position>
            <AltitudeMeters>335</AltitudeMeters>
            <DistanceMeters>NAN</DistanceMeters>
          </Trackpoint>
          <Trackpoint>
            <Time>2019-10-08T13:04:19.000Z</Time>
            <Position>
              <LatitudeDegrees>39.527344442903995513916015625</LatitudeDegrees>
              <LongitudeDegrees>-6.42985573969781398773193359375</LongitudeDegrees>
            </Position>
            <AltitudeMeters>335.399993896484375</AltitudeMeters>
            <DistanceMeters>NAN</DistanceMeters>
          </Trackpoint>
          <Trackpoint>
            <Time>2019-10-08T13:04:25.000Z</Time>
            <Position>
              <LatitudeDegrees>39.52704478986561298370361328125</LatitudeDegrees>
              <LongitudeDegrees>-6.4297067932784557342529296875</LongitudeDegrees>
            </Position>
            <AltitudeMeters>336.20001220703125</AltitudeMeters>
            <DistanceMeters>NAN</DistanceMeters>
          </Trackpoint>
          <Trackpoint>
            <Time>2019-10-08T13:04:27.000Z</Time>
            <Position>
              <LatitudeDegrees>39.52694605104625225067138671875</LatitudeDegrees>
              <LongitudeDegrees>-6.42965557985007762908935546875</LongitudeDegrees>
            </Position>
            <AltitudeMeters>336.399993896484375</AltitudeMeters>
            <DistanceMeters>NAN</DistanceMeters>
          </Trackpoint>
          <Trackpoint>
            <Time>2019-10-08T13:04:37.000Z</Time>
            <Position>
              <LatitudeDegrees>39.5264442265033721923828125</LatitudeDegrees>
              <LongitudeDegrees>-6.429404206573963165283203125</LongitudeDegrees>
            </Position>
            <AltitudeMeters>336.600006103515625</AltitudeMeters>
            <DistanceMeters>NAN</DistanceMeters>
          </Trackpoint>
          <Trackpoint>
            <Time>2019-10-08T13:04:38.000Z</Time>
            <Position>
              <LatitudeDegrees>39.52639871276915073394775390625</LatitudeDegrees>
              <LongitudeDegrees>-6.4293812401592731475830078125</LongitudeDegrees>
            </Position>
            <AltitudeMeters>337.20001220703125</AltitudeMeters>
            <DistanceMeters>NAN</DistanceMeters>
          </Trackpoint>
          <Trackpoint>
            <Time>2019-10-08T13:04:48.000Z</Time>
            <Position>
              <LatitudeDegrees>39.525880627334117889404296875</LatitudeDegrees>
              <LongitudeDegrees>-6.42912198789417743682861328125</LongitudeDegrees>
            </Position>
            <AltitudeMeters>336.399993896484375</AltitudeMeters>
            <DistanceMeters>NAN</DistanceMeters>
          </Trackpoint>
          <Trackpoint>
            <Time>2019-10-08T13:04:56.000Z</Time>
            <Position>
              <LatitudeDegrees>39.5254700817167758941650390625</LatitudeDegrees>
              <LongitudeDegrees>-6.4289209060370922088623046875</LongitudeDegrees>
            </Position>
            <AltitudeMeters>336.600006103515625</AltitudeMeters>
            <DistanceMeters>NAN</DistanceMeters>
          </Trackpoint>
          <Trackpoint>
            <Time>2019-10-08T13:04:59.000Z</Time>
            <Position>
              <LatitudeDegrees>39.525309987366199493408203125</LatitudeDegrees>
              <LongitudeDegrees>-6.42883784137666225433349609375</LongitudeDegrees>
            </Position>
            <AltitudeMeters>336.399993896484375</AltitudeMeters>
            <DistanceMeters>NAN</DistanceMeters>
          </Trackpoint>
          <Trackpoint>
            <Time>2019-10-08T13:05:01.000Z</Time>
            <Position>
              <LatitudeDegrees>39.52519892714917659759521484375</LatitudeDegrees>
              <LongitudeDegrees>-6.42878386192023754119873046875</LongitudeDegrees>
            </Position>
            <AltitudeMeters>335.79998779296875</AltitudeMeters>
            <DistanceMeters>NAN</DistanceMeters>
          </Trackpoint>
          <Trackpoint>
            <Time>2019-10-08T13:05:09.000Z</Time>
            <Position>
              <LatitudeDegrees>39.5247388444840908050537109375</LatitudeDegrees>
              <LongitudeDegrees>-6.4285531081259250640869140625</LongitudeDegrees>
            </Position>
            <AltitudeMeters>335.79998779296875</AltitudeMeters>
            <DistanceMeters>NAN</DistanceMeters>
          </Trackpoint>
          <Trackpoint>
            <Time>2019-10-08T13:05:16.000Z</Time>
            <Position>
              <LatitudeDegrees>39.524335004389286041259765625</LatitudeDegrees>
              <LongitudeDegrees>-6.4283489249646663665771484375</LongitudeDegrees>
            </Position>
            <AltitudeMeters>335.399993896484375</AltitudeMeters>
            <DistanceMeters>NAN</DistanceMeters>
          </Trackpoint>
          <Trackpoint>
            <Time>2019-10-08T13:05:23.000Z</Time>
            <Position>
              <LatitudeDegrees>39.5239117182791233062744140625</LatitudeDegrees>
              <LongitudeDegrees>-6.42814197577536106109619140625</LongitudeDegrees>
            </Position>
            <AltitudeMeters>334.600006103515625</AltitudeMeters>
            <DistanceMeters>NAN</DistanceMeters>
          </Trackpoint>
          <Trackpoint>
            <Time>2019-10-08T13:05:25.000Z</Time>
            <Position>
              <LatitudeDegrees>39.523794539272785186767578125</LatitudeDegrees>
              <LongitudeDegrees>-6.428083889186382293701171875</LongitudeDegrees>
            </Position>
            <AltitudeMeters>334.79998779296875</AltitudeMeters>
            <DistanceMeters>NAN</DistanceMeters>
          </Trackpoint>
          <Trackpoint>
            <Time>2019-10-08T13:05:32.000Z</Time>
            <Position>
              <LatitudeDegrees>39.52335574664175510406494140625</LatitudeDegrees>
              <LongitudeDegrees>-6.4278597570955753326416015625</LongitudeDegrees>
            </Position>
            <AltitudeMeters>334.600006103515625</AltitudeMeters>
            <DistanceMeters>NAN</DistanceMeters>
          </Trackpoint>
          <Trackpoint>
            <Time>2019-10-08T13:05:36.000Z</Time>
            <Position>
              <LatitudeDegrees>39.5231040380895137786865234375</LatitudeDegrees>
              <LongitudeDegrees>-6.42772950232028961181640625</LongitudeDegrees>
            </Position>
            <AltitudeMeters>334.20001220703125</AltitudeMeters>
            <DistanceMeters>NAN</DistanceMeters>
          </Trackpoint>
          <Trackpoint>
            <Time>2019-10-08T13:05:37.000Z</Time>
            <Position>
              <LatitudeDegrees>39.52304519712924957275390625</LatitudeDegrees>
              <LongitudeDegrees>-6.42769999802112579345703125</LongitudeDegrees>
            </Position>
            <AltitudeMeters>334</AltitudeMeters>
            <DistanceMeters>NAN</DistanceMeters>
          </Trackpoint>
          <Trackpoint>
            <Time>2019-10-08T13:05:41.000Z</Time>
            <Position>
              <LatitudeDegrees>39.52279181219637393951416015625</LatitudeDegrees>
              <LongitudeDegrees>-6.4275772869586944580078125</LongitudeDegrees>
            </Position>
            <AltitudeMeters>333.600006103515625</AltitudeMeters>
            <DistanceMeters>NAN</DistanceMeters>
          </Trackpoint>
          <Trackpoint>
            <Time>2019-10-08T13:05:49.000Z</Time>
            <Position>
              <LatitudeDegrees>39.52229149639606475830078125</LatitudeDegrees>
              <LongitudeDegrees>-6.42732725478708744049072265625</LongitudeDegrees>
            </Position>
            <AltitudeMeters>333.20001220703125</AltitudeMeters>
            <DistanceMeters>NAN</DistanceMeters>
          </Trackpoint>
          <Trackpoint>
            <Time>2019-10-08T13:05:51.000Z</Time>
            <Position>
              <LatitudeDegrees>39.52216518111526966094970703125</LatitudeDegrees>
              <LongitudeDegrees>-6.4272622950375080108642578125</LongitudeDegrees>
            </Position>
            <AltitudeMeters>333</AltitudeMeters>
            <DistanceMeters>NAN</DistanceMeters>
          </Trackpoint>
          <Trackpoint>
            <Time>2019-10-08T13:05:58.000Z</Time>
            <Position>
              <LatitudeDegrees>39.52171674929559230804443359375</LatitudeDegrees>
              <LongitudeDegrees>-6.42703187651932239532470703125</LongitudeDegrees>
            </Position>
            <AltitudeMeters>333</AltitudeMeters>
            <DistanceMeters>NAN</DistanceMeters>
          </Trackpoint>
          <Trackpoint>
            <Time>2019-10-08T13:06:03.000Z</Time>
            <Position>
              <LatitudeDegrees>39.5214018411934375762939453125</LatitudeDegrees>
              <LongitudeDegrees>-6.42687320709228515625</LongitudeDegrees>
            </Position>
            <AltitudeMeters>332.600006103515625</AltitudeMeters>
            <DistanceMeters>NAN</DistanceMeters>
          </Trackpoint>
          <Trackpoint>
            <Time>2019-10-08T13:06:04.000Z</Time>
            <Position>
              <LatitudeDegrees>39.52133839018642902374267578125</LatitudeDegrees>
              <LongitudeDegrees>-6.42683959566056728363037109375</LongitudeDegrees>
            </Position>
            <AltitudeMeters>332.399993896484375</AltitudeMeters>
            <DistanceMeters>NAN</DistanceMeters>
          </Trackpoint>
          <Trackpoint>
            <Time>2019-10-08T13:06:12.000Z</Time>
            <Position>
              <LatitudeDegrees>39.5208335481584072113037109375</LatitudeDegrees>
              <LongitudeDegrees>-6.426609344780445098876953125</LongitudeDegrees>
            </Position>
            <AltitudeMeters>332</AltitudeMeters>
            <DistanceMeters>NAN</DistanceMeters>
          </Trackpoint>
          <Trackpoint>
            <Time>2019-10-08T13:06:17.000Z</Time>
            <Position>
              <LatitudeDegrees>39.5205442048609256744384765625</LatitudeDegrees>
              <LongitudeDegrees>-6.426501385867595672607421875</LongitudeDegrees>
            </Position>
            <AltitudeMeters>333.600006103515625</AltitudeMeters>
            <DistanceMeters>NAN</DistanceMeters>
          </Trackpoint>
          <Trackpoint>
            <Time>2019-10-08T13:06:20.000Z</Time>
            <Position>
              <LatitudeDegrees>39.52036541886627674102783203125</LatitudeDegrees>
              <LongitudeDegrees>-6.4264401979744434356689453125</LongitudeDegrees>
            </Position>
            <AltitudeMeters>333</AltitudeMeters>
            <DistanceMeters>NAN</DistanceMeters>
          </Trackpoint>
          <Trackpoint>
            <Time>2019-10-08T13:06:26.000Z</Time>
            <Position>
              <LatitudeDegrees>39.52002746053040027618408203125</LatitudeDegrees>
              <LongitudeDegrees>-6.42634682357311248779296875</LongitudeDegrees>
            </Position>
            <AltitudeMeters>334</AltitudeMeters>
            <DistanceMeters>NAN</DistanceMeters>
          </Trackpoint>
          <Trackpoint>
            <Time>2019-10-08T13:06:27.000Z</Time>
            <Position>
              <LatitudeDegrees>39.51996929012238979339599609375</LatitudeDegrees>
              <LongitudeDegrees>-6.42634757794439792633056640625</LongitudeDegrees>
            </Position>
            <AltitudeMeters>333.79998779296875</AltitudeMeters>
            <DistanceMeters>NAN</DistanceMeters>
          </Trackpoint>
          <Trackpoint>
            <Time>2019-10-08T13:06:30.000Z</Time>
            <Position>
              <LatitudeDegrees>39.51980785466730594635009765625</LatitudeDegrees>
              <LongitudeDegrees>-6.426410861313343048095703125</LongitudeDegrees>
            </Position>
            <AltitudeMeters>334</AltitudeMeters>
            <DistanceMeters>NAN</DistanceMeters>
          </Trackpoint>
          <Trackpoint>
            <Time>2019-10-08T13:06:31.000Z</Time>
            <Position>
              <LatitudeDegrees>39.51975303702056407928466796875</LatitudeDegrees>
              <LongitudeDegrees>-6.42643240280449390411376953125</LongitudeDegrees>
            </Position>
            <AltitudeMeters>333.79998779296875</AltitudeMeters>
            <DistanceMeters>NAN</DistanceMeters>
          </Trackpoint>
          <Trackpoint>
            <Time>2019-10-08T13:06:34.000Z</Time>
            <Position>
              <LatitudeDegrees>39.51959428377449512481689453125</LatitudeDegrees>
              <LongitudeDegrees>-6.4263718016445636749267578125</LongitudeDegrees>
            </Position>
            <AltitudeMeters>333.600006103515625</AltitudeMeters>
            <DistanceMeters>NAN</DistanceMeters>
          </Trackpoint>
          <Trackpoint>
            <Time>2019-10-08T13:06:36.000Z</Time>
            <Position>
              <LatitudeDegrees>39.51951432041823863983154296875</LatitudeDegrees>
              <LongitudeDegrees>-6.426275409758090972900390625</LongitudeDegrees>
            </Position>
            <AltitudeMeters>333.79998779296875</AltitudeMeters>
            <DistanceMeters>NAN</DistanceMeters>
          </Trackpoint>
          <Trackpoint>
            <Time>2019-10-08T13:06:38.000Z</Time>
            <Position>
              <LatitudeDegrees>39.5194294117391109466552734375</LatitudeDegrees>
              <LongitudeDegrees>-6.42618681304156780242919921875</LongitudeDegrees>
            </Position>
            <AltitudeMeters>334.20001220703125</AltitudeMeters>
            <DistanceMeters>NAN</DistanceMeters>
          </Trackpoint>
          <Trackpoint>
            <Time>2019-10-08T13:06:39.000Z</Time>
            <Position>
              <LatitudeDegrees>39.51937937177717685699462890625</LatitudeDegrees>
              <LongitudeDegrees>-6.42615797929465770721435546875</LongitudeDegrees>
            </Position>
            <AltitudeMeters>334</AltitudeMeters>
            <DistanceMeters>NAN</DistanceMeters>
          </Trackpoint>
          <Trackpoint>
            <Time>2019-10-08T13:06:46.000Z</Time>
            <Position>
              <LatitudeDegrees>39.51898290775716304779052734375</LatitudeDegrees>
              <LongitudeDegrees>-6.42603610642254352569580078125</LongitudeDegrees>
            </Position>
            <AltitudeMeters>334</AltitudeMeters>
            <DistanceMeters>NAN</DistanceMeters>
          </Trackpoint>
          <Trackpoint>
            <Time>2019-10-08T13:06:53.000Z</Time>
            <Position>
              <LatitudeDegrees>39.51852709986269474029541015625</LatitudeDegrees>
              <LongitudeDegrees>-6.42589746974408626556396484375</LongitudeDegrees>
            </Position>
            <AltitudeMeters>332.600006103515625</AltitudeMeters>
            <DistanceMeters>NAN</DistanceMeters>
          </Trackpoint>
          <Trackpoint>
            <Time>2019-10-08T13:06:58.000Z</Time>
            <Position>
              <LatitudeDegrees>39.51817187480628490447998046875</LatitudeDegrees>
              <LongitudeDegrees>-6.4257961325347423553466796875</LongitudeDegrees>
            </Position>
            <AltitudeMeters>331.20001220703125</AltitudeMeters>
            <DistanceMeters>NAN</DistanceMeters>
          </Trackpoint>
          <Trackpoint>
            <Time>2019-10-08T13:06:59.000Z</Time>
            <Position>
              <LatitudeDegrees>39.51809979043900966644287109375</LatitudeDegrees>
              <LongitudeDegrees>-6.4257746748626232147216796875</LongitudeDegrees>
            </Position>
            <AltitudeMeters>330.79998779296875</AltitudeMeters>
            <DistanceMeters>NAN</DistanceMeters>
          </Trackpoint>
          <Trackpoint>
            <Time>2019-10-08T13:07:01.000Z</Time>
            <Position>
              <LatitudeDegrees>39.51794958673417568206787109375</LatitudeDegrees>
              <LongitudeDegrees>-6.42572631128132343292236328125</LongitudeDegrees>
            </Position>
            <AltitudeMeters>330.399993896484375</AltitudeMeters>
            <DistanceMeters>NAN</DistanceMeters>
          </Trackpoint>
          <Trackpoint>
            <Time>2019-10-08T13:07:03.000Z</Time>
            <Position>
              <LatitudeDegrees>39.51779971830546855926513671875</LatitudeDegrees>
              <LongitudeDegrees>-6.42568423412740230560302734375</LongitudeDegrees>
            </Position>
            <AltitudeMeters>329.79998779296875</AltitudeMeters>
            <DistanceMeters>NAN</DistanceMeters>
          </Trackpoint>
          <Trackpoint>
            <Time>2019-10-08T13:07:08.000Z</Time>
            <Position>
              <LatitudeDegrees>39.51742202974855899810791015625</LatitudeDegrees>
              <LongitudeDegrees>-6.4255755208432674407958984375</LongitudeDegrees>
            </Position>
            <AltitudeMeters>328.79998779296875</AltitudeMeters>
            <DistanceMeters>NAN</DistanceMeters>
          </Trackpoint>
          <Trackpoint>
            <Time>2019-10-08T13:07:12.000Z</Time>
            <Position>
              <LatitudeDegrees>39.51712413690984249114990234375</LatitudeDegrees>
              <LongitudeDegrees>-6.42550016753375530242919921875</LongitudeDegrees>
            </Position>
            <AltitudeMeters>328.600006103515625</AltitudeMeters>
            <DistanceMeters>NAN</DistanceMeters>
          </Trackpoint>
          <Trackpoint>
            <Time>2019-10-08T13:07:17.000Z</Time>
            <Position>
              <LatitudeDegrees>39.51676673255860805511474609375</LatitudeDegrees>
              <LongitudeDegrees>-6.425438225269317626953125</LongitudeDegrees>
            </Position>
            <AltitudeMeters>329</AltitudeMeters>
            <DistanceMeters>NAN</DistanceMeters>
          </Trackpoint>
          <Trackpoint>
            <Time>2019-10-08T13:07:23.000Z</Time>
            <Position>
              <LatitudeDegrees>39.51636590994894504547119140625</LatitudeDegrees>
              <LongitudeDegrees>-6.4254273287951946258544921875</LongitudeDegrees>
            </Position>
            <AltitudeMeters>329.399993896484375</AltitudeMeters>
            <DistanceMeters>NAN</DistanceMeters>
          </Trackpoint>
          <Trackpoint>
            <Time>2019-10-08T13:07:24.000Z</Time>
            <Position>
              <LatitudeDegrees>39.51630480587482452392578125</LatitudeDegrees>
              <LongitudeDegrees>-6.42543277703225612640380859375</LongitudeDegrees>
            </Position>
            <AltitudeMeters>329.600006103515625</AltitudeMeters>
            <DistanceMeters>NAN</DistanceMeters>
          </Trackpoint>
          <Trackpoint>
            <Time>2019-10-08T13:07:25.000Z</Time>
            <Position>
              <LatitudeDegrees>39.516245462000370025634765625</LatitudeDegrees>
              <LongitudeDegrees>-6.425444595515727996826171875</LongitudeDegrees>
            </Position>
            <AltitudeMeters>329.79998779296875</AltitudeMeters>
            <DistanceMeters>NAN</DistanceMeters>
          </Trackpoint>
          <Trackpoint>
            <Time>2019-10-08T13:07:28.000Z</Time>
            <Position>
              <LatitudeDegrees>39.51608612202107906341552734375</LatitudeDegrees>
              <LongitudeDegrees>-6.42554752528667449951171875</LongitudeDegrees>
            </Position>
            <AltitudeMeters>330.600006103515625</AltitudeMeters>
            <DistanceMeters>NAN</DistanceMeters>
          </Trackpoint>
          <Trackpoint>
            <Time>2019-10-08T13:07:30.000Z</Time>
            <Position>
              <LatitudeDegrees>39.51601135544478893280029296875</LatitudeDegrees>
              <LongitudeDegrees>-6.4256593398749828338623046875</LongitudeDegrees>
            </Position>
            <AltitudeMeters>330.79998779296875</AltitudeMeters>
            <DistanceMeters>NAN</DistanceMeters>
          </Trackpoint>
          <Trackpoint>
            <Time>2019-10-08T13:07:32.000Z</Time>
            <Position>
              <LatitudeDegrees>39.51593155972659587860107421875</LatitudeDegrees>
              <LongitudeDegrees>-6.42576822079718112945556640625</LongitudeDegrees>
            </Position>
            <AltitudeMeters>330.600006103515625</AltitudeMeters>
            <DistanceMeters>NAN</DistanceMeters>
          </Trackpoint>
          <Trackpoint>
            <Time>2019-10-08T13:07:33.000Z</Time>
            <Position>
              <LatitudeDegrees>39.51588864438235759735107421875</LatitudeDegrees>
              <LongitudeDegrees>-6.42581499181687831878662109375</LongitudeDegrees>
            </Position>
            <AltitudeMeters>330.600006103515625</AltitudeMeters>
            <DistanceMeters>NAN</DistanceMeters>
          </Trackpoint>
          <Trackpoint>
            <Time>2019-10-08T13:07:34.000Z</Time>
            <Position>
              <LatitudeDegrees>39.515840113162994384765625</LatitudeDegrees>
              <LongitudeDegrees>-6.42585908062756061553955078125</LongitudeDegrees>
            </Position>
            <AltitudeMeters>330.399993896484375</AltitudeMeters>
            <DistanceMeters>NAN</DistanceMeters>
          </Trackpoint>
          <Trackpoint>
            <Time>2019-10-08T13:07:37.000Z</Time>
            <Position>
              <LatitudeDegrees>39.51568898744881153106689453125</LatitudeDegrees>
              <LongitudeDegrees>-6.425959579646587371826171875</LongitudeDegrees>
            </Position>
            <AltitudeMeters>330.20001220703125</AltitudeMeters>
            <DistanceMeters>NAN</DistanceMeters>
          </Trackpoint>
          <Trackpoint>
            <Time>2019-10-08T13:07:38.000Z</Time>
            <Position>
              <LatitudeDegrees>39.5156334154307842254638671875</LatitudeDegrees>
              <LongitudeDegrees>-6.42598464153707027435302734375</LongitudeDegrees>
            </Position>
            <AltitudeMeters>330.600006103515625</AltitudeMeters>
            <DistanceMeters>NAN</DistanceMeters>
          </Trackpoint>
          <Trackpoint>
            <Time>2019-10-08T13:07:42.000Z</Time>
            <Position>
              <LatitudeDegrees>39.51541121117770671844482421875</LatitudeDegrees>
              <LongitudeDegrees>-6.4260314963757991790771484375</LongitudeDegrees>
            </Position>
            <AltitudeMeters>331.600006103515625</AltitudeMeters>
            <DistanceMeters>NAN</DistanceMeters>
          </Trackpoint>
          <Trackpoint>
            <Time>2019-10-08T13:07:43.000Z</Time>
            <Position>
              <LatitudeDegrees>39.5153531245887279510498046875</LatitudeDegrees>
              <LongitudeDegrees>-6.42603023909032344818115234375</LongitudeDegrees>
            </Position>
            <AltitudeMeters>331.399993896484375</AltitudeMeters>
            <DistanceMeters>NAN</DistanceMeters>
          </Trackpoint>
          <Trackpoint>
            <Time>2019-10-08T13:07:46.000Z</Time>
            <Position>
              <LatitudeDegrees>39.51519026421010494232177734375</LatitudeDegrees>
              <LongitudeDegrees>-6.4259989745914936065673828125</LongitudeDegrees>
            </Position>
            <AltitudeMeters>331.600006103515625</AltitudeMeters>
            <DistanceMeters>NAN</DistanceMeters>
          </Trackpoint>
          <Trackpoint>
            <Time>2019-10-08T13:07:49.000Z</Time>
            <Position>
              <LatitudeDegrees>39.51504190452396869659423828125</LatitudeDegrees>
              <LongitudeDegrees>-6.425941474735736846923828125</LongitudeDegrees>
            </Position>
            <AltitudeMeters>331.600006103515625</AltitudeMeters>
            <DistanceMeters>NAN</DistanceMeters>
          </Trackpoint>
          <Trackpoint>
            <Time>2019-10-08T13:07:52.000Z</Time>
            <Position>
              <LatitudeDegrees>39.514909721910953521728515625</LatitudeDegrees>
              <LongitudeDegrees>-6.4258360303938388824462890625</LongitudeDegrees>
            </Position>
            <AltitudeMeters>331.79998779296875</AltitudeMeters>
            <DistanceMeters>NAN</DistanceMeters>
          </Trackpoint>
          <Trackpoint>
            <Time>2019-10-08T13:07:54.000Z</Time>
            <Position>
              <LatitudeDegrees>39.514829926192760467529296875</LatitudeDegrees>
              <LongitudeDegrees>-6.42574391327798366546630859375</LongitudeDegrees>
            </Position>
            <AltitudeMeters>331.399993896484375</AltitudeMeters>
            <DistanceMeters>NAN</DistanceMeters>
          </Trackpoint>
          <Trackpoint>
            <Time>2019-10-08T13:07:57.000Z</Time>
            <Position>
              <LatitudeDegrees>39.51472691260278224945068359375</LatitudeDegrees>
              <LongitudeDegrees>-6.42556789331138134002685546875</LongitudeDegrees>
            </Position>
            <AltitudeMeters>332</AltitudeMeters>
            <DistanceMeters>NAN</DistanceMeters>
          </Trackpoint>
          <Trackpoint>
            <Time>2019-10-08T13:07:58.000Z</Time>
            <Position>
              <LatitudeDegrees>39.51469858177006244659423828125</LatitudeDegrees>
              <LongitudeDegrees>-6.42550435848534107208251953125</LongitudeDegrees>
            </Position>
            <AltitudeMeters>332</AltitudeMeters>
            <DistanceMeters>NAN</DistanceMeters>
          </Trackpoint>
          <Trackpoint>
            <Time>2019-10-08T13:08:03.000Z</Time>
            <Position>
              <LatitudeDegrees>39.51456665061414241790771484375</LatitudeDegrees>
              <LongitudeDegrees>-6.4251748658716678619384765625</LongitudeDegrees>
            </Position>
            <AltitudeMeters>332</AltitudeMeters>
            <DistanceMeters>NAN</DistanceMeters>
          </Trackpoint>
          <Trackpoint>
            <Time>2019-10-08T13:08:07.000Z</Time>
            <Position>
              <LatitudeDegrees>39.5143823325634002685546875</LatitudeDegrees>
              <LongitudeDegrees>-6.42499607987701892852783203125</LongitudeDegrees>
            </Position>
            <AltitudeMeters>332</AltitudeMeters>
            <DistanceMeters>NAN</DistanceMeters>
          </Trackpoint>
          <Trackpoint>
            <Time>2019-10-08T13:08:08.000Z</Time>
            <Position>
              <LatitudeDegrees>39.5143281854689121246337890625</LatitudeDegrees>
              <LongitudeDegrees>-6.42496573738753795623779296875</LongitudeDegrees>
            </Position>
            <AltitudeMeters>331.79998779296875</AltitudeMeters>
            <DistanceMeters>NAN</DistanceMeters>
          </Trackpoint>
          <Trackpoint>
            <Time>2019-10-08T13:08:16.000Z</Time>
            <Position>
              <LatitudeDegrees>39.51388788409531116485595703125</LatitudeDegrees>
              <LongitudeDegrees>-6.4247607998549938201904296875</LongitudeDegrees>
            </Position>
            <AltitudeMeters>332.600006103515625</AltitudeMeters>
            <DistanceMeters>NAN</DistanceMeters>
          </Trackpoint>
          <Trackpoint>
            <Time>2019-10-08T13:08:17.000Z</Time>
            <Position>
              <LatitudeDegrees>39.51383474282920360565185546875</LatitudeDegrees>
              <LongitudeDegrees>-6.4247386716306209564208984375</LongitudeDegrees>
            </Position>
            <AltitudeMeters>333</AltitudeMeters>
            <DistanceMeters>NAN</DistanceMeters>
          </Trackpoint>
          <Trackpoint>
            <Time>2019-10-08T13:08:27.000Z</Time>
            <Position>
              <LatitudeDegrees>39.5132928527891635894775390625</LatitudeDegrees>
              <LongitudeDegrees>-6.42452769912779331207275390625</LongitudeDegrees>
            </Position>
            <AltitudeMeters>333</AltitudeMeters>
            <DistanceMeters>NAN</DistanceMeters>
          </Trackpoint>
          <Trackpoint>
            <Time>2019-10-08T13:08:28.000Z</Time>
            <Position>
              <LatitudeDegrees>39.513238370418548583984375</LatitudeDegrees>
              <LongitudeDegrees>-6.42451009713113307952880859375</LongitudeDegrees>
            </Position>
            <AltitudeMeters>333</AltitudeMeters>
            <DistanceMeters>NAN</DistanceMeters>
          </Trackpoint>
          <Trackpoint>
            <Time>2019-10-08T13:08:38.000Z</Time>
            <Position>
              <LatitudeDegrees>39.512693881988525390625</LatitudeDegrees>
              <LongitudeDegrees>-6.424329467117786407470703125</LongitudeDegrees>
            </Position>
            <AltitudeMeters>333</AltitudeMeters>
            <DistanceMeters>NAN</DistanceMeters>
          </Trackpoint>
          <Trackpoint>
            <Time>2019-10-08T13:08:40.000Z</Time>
            <Position>
              <LatitudeDegrees>39.512585587799549102783203125</LatitudeDegrees>
              <LongitudeDegrees>-6.42429283820092678070068359375</LongitudeDegrees>
            </Position>
            <AltitudeMeters>333.20001220703125</AltitudeMeters>
            <DistanceMeters>NAN</DistanceMeters>
          </Trackpoint>
          <Trackpoint>
            <Time>2019-10-08T13:08:49.000Z</Time>
            <Position>
              <LatitudeDegrees>39.51210354454815387725830078125</LatitudeDegrees>
              <LongitudeDegrees>-6.42413089983165264129638671875</LongitudeDegrees>
            </Position>
            <AltitudeMeters>334.20001220703125</AltitudeMeters>
            <DistanceMeters>NAN</DistanceMeters>
          </Trackpoint>
          <Trackpoint>
            <Time>2019-10-08T13:08:50.000Z</Time>
            <Position>
              <LatitudeDegrees>39.51204973272979259490966796875</LatitudeDegrees>
              <LongitudeDegrees>-6.42411329783499240875244140625</LongitudeDegrees>
            </Position>
            <AltitudeMeters>334</AltitudeMeters>
            <DistanceMeters>NAN</DistanceMeters>
          </Trackpoint>
          <Trackpoint>
            <Time>2019-10-08T13:09:00.000Z</Time>
            <Position>
              <LatitudeDegrees>39.51151044107973575592041015625</LatitudeDegrees>
              <LongitudeDegrees>-6.42394532449543476104736328125</LongitudeDegrees>
            </Position>
            <AltitudeMeters>334</AltitudeMeters>
            <DistanceMeters>NAN</DistanceMeters>
          </Trackpoint>
          <Trackpoint>
            <Time>2019-10-08T13:09:10.000Z</Time>
            <Position>
              <LatitudeDegrees>39.51098305173218250274658203125</LatitudeDegrees>
              <LongitudeDegrees>-6.42378866672515869140625</LongitudeDegrees>
            </Position>
            <AltitudeMeters>334.399993896484375</AltitudeMeters>
            <DistanceMeters>NAN</DistanceMeters>
          </Trackpoint>
          <Trackpoint>
            <Time>2019-10-08T13:09:18.000Z</Time>
            <Position>
              <LatitudeDegrees>39.510576613247394561767578125</LatitudeDegrees>
              <LongitudeDegrees>-6.42366419546306133270263671875</LongitudeDegrees>
            </Position>
            <AltitudeMeters>335.20001220703125</AltitudeMeters>
            <DistanceMeters>NAN</DistanceMeters>
          </Trackpoint>
          <Trackpoint>
            <Time>2019-10-08T13:09:20.000Z</Time>
            <Position>
              <LatitudeDegrees>39.5104824006557464599609375</LatitudeDegrees>
              <LongitudeDegrees>-6.42363687045872211456298828125</LongitudeDegrees>
            </Position>
            <AltitudeMeters>335.79998779296875</AltitudeMeters>
            <DistanceMeters>NAN</DistanceMeters>
          </Trackpoint>
          <Trackpoint>
            <Time>2019-10-08T13:09:21.000Z</Time>
            <Position>
              <LatitudeDegrees>39.5104356296360492706298828125</LatitudeDegrees>
              <LongitudeDegrees>-6.42362211830914020538330078125</LongitudeDegrees>
            </Position>
            <AltitudeMeters>336.600006103515625</AltitudeMeters>
            <DistanceMeters>NAN</DistanceMeters>
          </Trackpoint>
          <Trackpoint>
            <Time>2019-10-08T13:09:30.000Z</Time>
            <Position>
              <LatitudeDegrees>39.51002399437129497528076171875</LatitudeDegrees>
              <LongitudeDegrees>-6.42350125126540660858154296875</LongitudeDegrees>
            </Position>
            <AltitudeMeters>336.79998779296875</AltitudeMeters>
            <DistanceMeters>NAN</DistanceMeters>
          </Trackpoint>
          <Trackpoint>
            <Time>2019-10-08T13:09:39.000Z</Time>
            <Position>
              <LatitudeDegrees>39.50961805880069732666015625</LatitudeDegrees>
              <LongitudeDegrees>-6.423379294574260711669921875</LongitudeDegrees>
            </Position>
            <AltitudeMeters>337.600006103515625</AltitudeMeters>
            <DistanceMeters>NAN</DistanceMeters>
          </Trackpoint>
          <Trackpoint>
            <Time>2019-10-08T13:09:48.000Z</Time>
            <Position>
              <LatitudeDegrees>39.5092158950865268707275390625</LatitudeDegrees>
              <LongitudeDegrees>-6.42325767315924167633056640625</LongitudeDegrees>
            </Position>
            <AltitudeMeters>338.600006103515625</AltitudeMeters>
            <DistanceMeters>NAN</DistanceMeters>
          </Trackpoint>
          <Trackpoint>
            <Time>2019-10-08T13:09:50.000Z</Time>
            <Position>
              <LatitudeDegrees>39.5091240294277667999267578125</LatitudeDegrees>
              <LongitudeDegrees>-6.42322950996458530426025390625</LongitudeDegrees>
            </Position>
            <AltitudeMeters>339</AltitudeMeters>
            <DistanceMeters>NAN</DistanceMeters>
          </Trackpoint>
          <Trackpoint>
            <Time>2019-10-08T13:09:57.000Z</Time>
            <Position>
              <LatitudeDegrees>39.5088078640401363372802734375</LatitudeDegrees>
              <LongitudeDegrees>-6.42313814722001552581787109375</LongitudeDegrees>
            </Position>
            <AltitudeMeters>339.79998779296875</AltitudeMeters>
            <DistanceMeters>NAN</DistanceMeters>
          </Trackpoint>
          <Trackpoint>
            <Time>2019-10-08T13:10:01.000Z</Time>
            <Position>
              <LatitudeDegrees>39.50862354598939418792724609375</LatitudeDegrees>
              <LongitudeDegrees>-6.423082910478115081787109375</LongitudeDegrees>
            </Position>
            <AltitudeMeters>340.20001220703125</AltitudeMeters>
            <DistanceMeters>NAN</DistanceMeters>
          </Trackpoint>
          <Trackpoint>
            <Time>2019-10-08T13:10:11.000Z</Time>
            <Position>
              <LatitudeDegrees>39.50816069729626178741455078125</LatitudeDegrees>
              <LongitudeDegrees>-6.42294251359999179840087890625</LongitudeDegrees>
            </Position>
            <AltitudeMeters>341</AltitudeMeters>
            <DistanceMeters>NAN</DistanceMeters>
          </Trackpoint>
          <Trackpoint>
            <Time>2019-10-08T13:10:13.000Z</Time>
            <Position>
              <LatitudeDegrees>39.508066736161708831787109375</LatitudeDegrees>
              <LongitudeDegrees>-6.42291535623371601104736328125</LongitudeDegrees>
            </Position>
            <AltitudeMeters>341.20001220703125</AltitudeMeters>
            <DistanceMeters>NAN</DistanceMeters>
          </Trackpoint>
          <Trackpoint>
            <Time>2019-10-08T13:10:23.000Z</Time>
            <Position>
              <LatitudeDegrees>39.50760363601148128509521484375</LatitudeDegrees>
              <LongitudeDegrees>-6.42278023995459079742431640625</LongitudeDegrees>
            </Position>
            <AltitudeMeters>342</AltitudeMeters>
            <DistanceMeters>NAN</DistanceMeters>
          </Trackpoint>
          <Trackpoint>
            <Time>2019-10-08T13:10:24.000Z</Time>
            <Position>
              <LatitudeDegrees>39.507556445896625518798828125</LatitudeDegrees>
              <LongitudeDegrees>-6.4227669127285480499267578125</LongitudeDegrees>
            </Position>
            <AltitudeMeters>342</AltitudeMeters>
            <DistanceMeters>NAN</DistanceMeters>
          </Trackpoint>
          <Trackpoint>
            <Time>2019-10-08T13:10:35.000Z</Time>
            <Position>
              <LatitudeDegrees>39.507042132318019866943359375</LatitudeDegrees>
              <LongitudeDegrees>-6.4226180501282215118408203125</LongitudeDegrees>
            </Position>
            <AltitudeMeters>342.399993896484375</AltitudeMeters>
            <DistanceMeters>NAN</DistanceMeters>
          </Trackpoint>
          <Trackpoint>
            <Time>2019-10-08T13:10:37.000Z</Time>
            <Position>
              <LatitudeDegrees>39.5069504342973232269287109375</LatitudeDegrees>
              <LongitudeDegrees>-6.42259181477129459381103515625</LongitudeDegrees>
            </Position>
            <AltitudeMeters>343</AltitudeMeters>
            <DistanceMeters>NAN</DistanceMeters>
          </Trackpoint>
          <Trackpoint>
            <Time>2019-10-08T13:10:46.000Z</Time>
            <Position>
              <LatitudeDegrees>39.50653779320418834686279296875</LatitudeDegrees>
              <LongitudeDegrees>-6.42246457748115062713623046875</LongitudeDegrees>
            </Position>
            <AltitudeMeters>343.399993896484375</AltitudeMeters>
            <DistanceMeters>NAN</DistanceMeters>
          </Trackpoint>
          <Trackpoint>
            <Time>2019-10-08T13:10:54.000Z</Time>
            <Position>
              <LatitudeDegrees>39.5061742700636386871337890625</LatitudeDegrees>
              <LongitudeDegrees>-6.42236751504242420196533203125</LongitudeDegrees>
            </Position>
            <AltitudeMeters>344.20001220703125</AltitudeMeters>
            <DistanceMeters>NAN</DistanceMeters>
          </Trackpoint>
          <Trackpoint>
            <Time>2019-10-08T13:10:58.000Z</Time>
            <Position>
              <LatitudeDegrees>39.50599783100187778472900390625</LatitudeDegrees>
              <LongitudeDegrees>-6.422321833670139312744140625</LongitudeDegrees>
            </Position>
            <AltitudeMeters>345</AltitudeMeters>
            <DistanceMeters>NAN</DistanceMeters>
          </Trackpoint>
          <Trackpoint>
            <Time>2019-10-08T13:11:09.000Z</Time>
            <Position>
              <LatitudeDegrees>39.5055043883621692657470703125</LatitudeDegrees>
              <LongitudeDegrees>-6.4222338236868381500244140625</LongitudeDegrees>
            </Position>
            <AltitudeMeters>345.20001220703125</AltitudeMeters>
            <DistanceMeters>NAN</DistanceMeters>
          </Trackpoint>
          <Trackpoint>
            <Time>2019-10-08T13:11:10.000Z</Time>
            <Position>
              <LatitudeDegrees>39.50546021573245525360107421875</LatitudeDegrees>
              <LongitudeDegrees>-6.422227956354618072509765625</LongitudeDegrees>
            </Position>
            <AltitudeMeters>345.20001220703125</AltitudeMeters>
            <DistanceMeters>NAN</DistanceMeters>
          </Trackpoint>
          <Trackpoint>
            <Time>2019-10-08T13:11:17.000Z</Time>
            <Position>
              <LatitudeDegrees>39.50514287687838077545166015625</LatitudeDegrees>
              <LongitudeDegrees>-6.4221940934658050537109375</LongitudeDegrees>
            </Position>
            <AltitudeMeters>346.600006103515625</AltitudeMeters>
            <DistanceMeters>NAN</DistanceMeters>
          </Trackpoint>
          <Trackpoint>
            <Time>2019-10-08T13:11:20.000Z</Time>
            <Position>
              <LatitudeDegrees>39.5050021447241306304931640625</LatitudeDegrees>
              <LongitudeDegrees>-6.42218403518199920654296875</LongitudeDegrees>
            </Position>
            <AltitudeMeters>346.399993896484375</AltitudeMeters>
            <DistanceMeters>NAN</DistanceMeters>
          </Trackpoint>
          <Trackpoint>
            <Time>2019-10-08T13:11:32.000Z</Time>
            <Position>
              <LatitudeDegrees>39.5044368691742420196533203125</LatitudeDegrees>
              <LongitudeDegrees>-6.42214874736964702606201171875</LongitudeDegrees>
            </Position>
            <AltitudeMeters>347.20001220703125</AltitudeMeters>
            <DistanceMeters>NAN</DistanceMeters>
          </Trackpoint>
          <Trackpoint>
            <Time>2019-10-08T13:11:40.000Z</Time>
            <Position>
              <LatitudeDegrees>39.50405440293252468109130859375</LatitudeDegrees>
              <LongitudeDegrees>-6.42212008126080036163330078125</LongitudeDegrees>
            </Position>
            <AltitudeMeters>347.600006103515625</AltitudeMeters>
            <DistanceMeters>NAN</DistanceMeters>
          </Trackpoint>
          <Trackpoint>
            <Time>2019-10-08T13:11:42.000Z</Time>
            <Position>
              <LatitudeDegrees>39.5039523951709270477294921875</LatitudeDegrees>
              <LongitudeDegrees>-6.4221189916133880615234375</LongitudeDegrees>
            </Position>
            <AltitudeMeters>347.600006103515625</AltitudeMeters>
            <DistanceMeters>NAN</DistanceMeters>
          </Trackpoint>
          <Trackpoint>
            <Time>2019-10-08T13:11:43.000Z</Time>
            <Position>
              <LatitudeDegrees>39.50390101410448551177978515625</LatitudeDegrees>
              <LongitudeDegrees>-6.4221268706023693084716796875</LongitudeDegrees>
            </Position>
            <AltitudeMeters>347.399993896484375</AltitudeMeters>
            <DistanceMeters>NAN</DistanceMeters>
          </Trackpoint>
          <Trackpoint>
            <Time>2019-10-08T13:11:46.000Z</Time>
            <Position>
              <LatitudeDegrees>39.50375265441834926605224609375</LatitudeDegrees>
              <LongitudeDegrees>-6.4222066663205623626708984375</LongitudeDegrees>
            </Position>
            <AltitudeMeters>346.600006103515625</AltitudeMeters>
            <DistanceMeters>NAN</DistanceMeters>
          </Trackpoint>
          <Trackpoint>
            <Time>2019-10-08T13:11:48.000Z</Time>
            <Position>
              <LatitudeDegrees>39.50366799719631671905517578125</LatitudeDegrees>
              <LongitudeDegrees>-6.422301717102527618408203125</LongitudeDegrees>
            </Position>
            <AltitudeMeters>346.20001220703125</AltitudeMeters>
            <DistanceMeters>NAN</DistanceMeters>
          </Trackpoint>
          <Trackpoint>
            <Time>2019-10-08T13:11:50.000Z</Time>
            <Position>
              <LatitudeDegrees>39.50358132831752300262451171875</LatitudeDegrees>
              <LongitudeDegrees>-6.42239584587514400482177734375</LongitudeDegrees>
            </Position>
            <AltitudeMeters>346.600006103515625</AltitudeMeters>
            <DistanceMeters>NAN</DistanceMeters>
          </Trackpoint>
          <Trackpoint>
            <Time>2019-10-08T13:11:54.000Z</Time>
            <Position>
              <LatitudeDegrees>39.503368176519870758056640625</LatitudeDegrees>
              <LongitudeDegrees>-6.422482766211032867431640625</LongitudeDegrees>
            </Position>
            <AltitudeMeters>347</AltitudeMeters>
            <DistanceMeters>NAN</DistanceMeters>
          </Trackpoint>
          <Trackpoint>
            <Time>2019-10-08T13:11:58.000Z</Time>
            <Position>
              <LatitudeDegrees>39.5031634904444217681884765625</LatitudeDegrees>
              <LongitudeDegrees>-6.422414369881153106689453125</LongitudeDegrees>
            </Position>
            <AltitudeMeters>347</AltitudeMeters>
            <DistanceMeters>NAN</DistanceMeters>
          </Trackpoint>
          <Trackpoint>
            <Time>2019-10-08T13:12:02.000Z</Time>
            <Position>
              <LatitudeDegrees>39.50300239026546478271484375</LatitudeDegrees>
              <LongitudeDegrees>-6.4222284592688083648681640625</LongitudeDegrees>
            </Position>
            <AltitudeMeters>347.79998779296875</AltitudeMeters>
            <DistanceMeters>NAN</DistanceMeters>
          </Trackpoint>
          <Trackpoint>
            <Time>2019-10-08T13:12:03.000Z</Time>
            <Position>
              <LatitudeDegrees>39.5029695332050323486328125</LatitudeDegrees>
              <LongitudeDegrees>-6.42217171378433704376220703125</LongitudeDegrees>
            </Position>
            <AltitudeMeters>347.79998779296875</AltitudeMeters>
            <DistanceMeters>NAN</DistanceMeters>
          </Trackpoint>
          <Trackpoint>
            <Time>2019-10-08T13:12:07.000Z</Time>
            <Position>
              <LatitudeDegrees>39.50280633755028247833251953125</LatitudeDegrees>
              <LongitudeDegrees>-6.42197993583977222442626953125</LongitudeDegrees>
            </Position>
            <AltitudeMeters>348</AltitudeMeters>
            <DistanceMeters>NAN</DistanceMeters>
          </Trackpoint>
          <Trackpoint>
            <Time>2019-10-08T13:12:11.000Z</Time>
            <Position>
              <LatitudeDegrees>39.5025951974093914031982421875</LatitudeDegrees>
              <LongitudeDegrees>-6.4219096116721630096435546875</LongitudeDegrees>
            </Position>
            <AltitudeMeters>347.399993896484375</AltitudeMeters>
            <DistanceMeters>NAN</DistanceMeters>
          </Trackpoint>
          <Trackpoint>
            <Time>2019-10-08T13:12:21.000Z</Time>
            <Position>
              <LatitudeDegrees>39.50204827822744846343994140625</LatitudeDegrees>
              <LongitudeDegrees>-6.42188371159136295318603515625</LongitudeDegrees>
            </Position>
            <AltitudeMeters>348.79998779296875</AltitudeMeters>
            <DistanceMeters>NAN</DistanceMeters>
          </Trackpoint>
          <Trackpoint>
            <Time>2019-10-08T13:12:31.000Z</Time>
            <Position>
              <LatitudeDegrees>39.5015018619596958160400390625</LatitudeDegrees>
              <LongitudeDegrees>-6.421851776540279388427734375</LongitudeDegrees>
            </Position>
            <AltitudeMeters>349.20001220703125</AltitudeMeters>
            <DistanceMeters>NAN</DistanceMeters>
          </Trackpoint>
          <Trackpoint>
            <Time>2019-10-08T13:12:33.000Z</Time>
            <Position>
              <LatitudeDegrees>39.50139281339943408966064453125</LatitudeDegrees>
              <LongitudeDegrees>-6.42184465192258358001708984375</LongitudeDegrees>
            </Position>
            <AltitudeMeters>349.20001220703125</AltitudeMeters>
            <DistanceMeters>NAN</DistanceMeters>
          </Trackpoint>
          <Trackpoint>
            <Time>2019-10-08T13:12:37.000Z</Time>
            <Position>
              <LatitudeDegrees>39.5011756382882595062255859375</LatitudeDegrees>
              <LongitudeDegrees>-6.42182570882141590118408203125</LongitudeDegrees>
            </Position>
            <AltitudeMeters>349.79998779296875</AltitudeMeters>
            <DistanceMeters>NAN</DistanceMeters>
          </Trackpoint>
          <Trackpoint>
            <Time>2019-10-08T13:12:43.000Z</Time>
            <Position>
              <LatitudeDegrees>39.50083659030497074127197265625</LatitudeDegrees>
              <LongitudeDegrees>-6.42180190421640872955322265625</LongitudeDegrees>
            </Position>
            <AltitudeMeters>350</AltitudeMeters>
            <DistanceMeters>NAN</DistanceMeters>
          </Trackpoint>
          <Trackpoint>
            <Time>2019-10-08T13:12:53.000Z</Time>
            <Position>
              <LatitudeDegrees>39.50027014128863811492919921875</LatitudeDegrees>
              <LongitudeDegrees>-6.42172646708786487579345703125</LongitudeDegrees>
            </Position>
            <AltitudeMeters>350.600006103515625</AltitudeMeters>
            <DistanceMeters>NAN</DistanceMeters>
          </Trackpoint>
          <Trackpoint>
            <Time>2019-10-08T13:12:54.000Z</Time>
            <Position>
              <LatitudeDegrees>39.50021431781351566314697265625</LatitudeDegrees>
              <LongitudeDegrees>-6.4217141456902027130126953125</LongitudeDegrees>
            </Position>
            <AltitudeMeters>350.600006103515625</AltitudeMeters>
            <DistanceMeters>NAN</DistanceMeters>
          </Trackpoint>
          <Trackpoint>
            <Time>2019-10-08T13:12:55.000Z</Time>
            <Position>
              <LatitudeDegrees>39.50015799142420291900634765625</LatitudeDegrees>
              <LongitudeDegrees>-6.4217003993690013885498046875</LongitudeDegrees>
            </Position>
            <AltitudeMeters>350.79998779296875</AltitudeMeters>
            <DistanceMeters>NAN</DistanceMeters>
          </Trackpoint>
          <Trackpoint>
            <Time>2019-10-08T13:13:04.000Z</Time>
            <Position>
              <LatitudeDegrees>39.499664716422557830810546875</LatitudeDegrees>
              <LongitudeDegrees>-6.42155597917735576629638671875</LongitudeDegrees>
            </Position>
            <AltitudeMeters>351.20001220703125</AltitudeMeters>
            <DistanceMeters>NAN</DistanceMeters>
          </Trackpoint>
          <Trackpoint>
            <Time>2019-10-08T13:13:14.000Z</Time>
            <Position>
              <LatitudeDegrees>39.4991284422576427459716796875</LatitudeDegrees>
              <LongitudeDegrees>-6.42134048044681549072265625</LongitudeDegrees>
            </Position>
            <AltitudeMeters>351.20001220703125</AltitudeMeters>
            <DistanceMeters>NAN</DistanceMeters>
          </Trackpoint>
          <Trackpoint>
            <Time>2019-10-08T13:13:15.000Z</Time>
            <Position>
              <LatitudeDegrees>39.4990768097341060638427734375</LatitudeDegrees>
              <LongitudeDegrees>-6.42131558619439601898193359375</LongitudeDegrees>
            </Position>
            <AltitudeMeters>351</AltitudeMeters>
            <DistanceMeters>NAN</DistanceMeters>
          </Trackpoint>
          <Trackpoint>
            <Time>2019-10-08T13:13:25.000Z</Time>
            <Position>
              <LatitudeDegrees>39.49857062660157680511474609375</LatitudeDegrees>
              <LongitudeDegrees>-6.42103043384850025177001953125</LongitudeDegrees>
            </Position>
            <AltitudeMeters>351.600006103515625</AltitudeMeters>
            <DistanceMeters>NAN</DistanceMeters>
          </Trackpoint>
          <Trackpoint>
            <Time>2019-10-08T13:13:26.000Z</Time>
            <Position>
              <LatitudeDegrees>39.49852217920124530792236328125</LatitudeDegrees>
              <LongitudeDegrees>-6.42099983990192413330078125</LongitudeDegrees>
            </Position>
            <AltitudeMeters>351.600006103515625</AltitudeMeters>
            <DistanceMeters>NAN</DistanceMeters>
          </Trackpoint>
          <Trackpoint>
            <Time>2019-10-08T13:13:30.000Z</Time>
            <Position>
              <LatitudeDegrees>39.49832838959991931915283203125</LatitudeDegrees>
              <LongitudeDegrees>-6.42086841166019439697265625</LongitudeDegrees>
            </Position>
            <AltitudeMeters>352</AltitudeMeters>
            <DistanceMeters>NAN</DistanceMeters>
          </Trackpoint>
          <Trackpoint>
            <Time>2019-10-08T13:13:36.000Z</Time>
            <Position>
              <LatitudeDegrees>39.49804508127272129058837890625</LatitudeDegrees>
              <LongitudeDegrees>-6.42066095955669879913330078125</LongitudeDegrees>
            </Position>
            <AltitudeMeters>351.79998779296875</AltitudeMeters>
            <DistanceMeters>NAN</DistanceMeters>
          </Trackpoint>
          <Trackpoint>
            <Time>2019-10-08T13:13:44.000Z</Time>
            <Position>
              <LatitudeDegrees>39.4976760260760784149169921875</LatitudeDegrees>
              <LongitudeDegrees>-6.420368850231170654296875</LongitudeDegrees>
            </Position>
            <AltitudeMeters>352</AltitudeMeters>
            <DistanceMeters>NAN</DistanceMeters>
          </Trackpoint>
          <Trackpoint>
            <Time>2019-10-08T13:13:48.000Z</Time>
            <Position>
              <LatitudeDegrees>39.49748684652149677276611328125</LatitudeDegrees>
              <LongitudeDegrees>-6.42021873034536838531494140625</LongitudeDegrees>
            </Position>
            <AltitudeMeters>351.79998779296875</AltitudeMeters>
            <DistanceMeters>NAN</DistanceMeters>
          </Trackpoint>
          <Trackpoint>
            <Time>2019-10-08T13:13:57.000Z</Time>
            <Position>
              <LatitudeDegrees>39.49708552099764347076416015625</LatitudeDegrees>
              <LongitudeDegrees>-6.41989611089229583740234375</LongitudeDegrees>
            </Position>
            <AltitudeMeters>352</AltitudeMeters>
            <DistanceMeters>NAN</DistanceMeters>
          </Trackpoint>
          <Trackpoint>
            <Time>2019-10-08T13:14:06.000Z</Time>
            <Position>
              <LatitudeDegrees>39.496723003685474395751953125</LatitudeDegrees>
              <LongitudeDegrees>-6.419612802565097808837890625</LongitudeDegrees>
            </Position>
            <AltitudeMeters>352.399993896484375</AltitudeMeters>
            <DistanceMeters>NAN</DistanceMeters>
          </Trackpoint>
          <Trackpoint>
            <Time>2019-10-08T13:14:11.000Z</Time>
            <Position>
              <LatitudeDegrees>39.49651353992521762847900390625</LatitudeDegrees>
              <LongitudeDegrees>-6.419448517262935638427734375</LongitudeDegrees>
            </Position>
            <AltitudeMeters>352</AltitudeMeters>
            <DistanceMeters>NAN</DistanceMeters>
          </Trackpoint>
          <Trackpoint>
            <Time>2019-10-08T13:14:16.000Z</Time>
            <Position>
              <LatitudeDegrees>39.4963015615940093994140625</LatitudeDegrees>
              <LongitudeDegrees>-6.41928079538047313690185546875</LongitudeDegrees>
            </Position>
            <AltitudeMeters>351</AltitudeMeters>
            <DistanceMeters>NAN</DistanceMeters>
          </Trackpoint>
          <Trackpoint>
            <Time>2019-10-08T13:14:27.000Z</Time>
            <Position>
              <LatitudeDegrees>39.4958467595279216766357421875</LatitudeDegrees>
              <LongitudeDegrees>-6.41891308128833770751953125</LongitudeDegrees>
            </Position>
            <AltitudeMeters>351.399993896484375</AltitudeMeters>
            <DistanceMeters>NAN</DistanceMeters>
          </Trackpoint>
          <Trackpoint>
            <Time>2019-10-08T13:14:37.000Z</Time>
            <Position>
              <LatitudeDegrees>39.495438225567340850830078125</LatitudeDegrees>
              <LongitudeDegrees>-6.41858727671205997467041015625</LongitudeDegrees>
            </Position>
            <AltitudeMeters>353</AltitudeMeters>
            <DistanceMeters>NAN</DistanceMeters>
          </Trackpoint>
          <Trackpoint>
            <Time>2019-10-08T13:14:40.000Z</Time>
            <Position>
              <LatitudeDegrees>39.49531626887619495391845703125</LatitudeDegrees>
              <LongitudeDegrees>-6.41849054954946041107177734375</LongitudeDegrees>
            </Position>
            <AltitudeMeters>353</AltitudeMeters>
            <DistanceMeters>NAN</DistanceMeters>
          </Trackpoint>
          <Trackpoint>
            <Time>2019-10-08T13:14:47.000Z</Time>
            <Position>
              <LatitudeDegrees>39.49503220617771148681640625</LatitudeDegrees>
              <LongitudeDegrees>-6.41827077604830265045166015625</LongitudeDegrees>
            </Position>
            <AltitudeMeters>353.600006103515625</AltitudeMeters>
            <DistanceMeters>NAN</DistanceMeters>
          </Trackpoint>
          <Trackpoint>
            <Time>2019-10-08T13:14:50.000Z</Time>
            <Position>
              <LatitudeDegrees>39.49491553008556365966796875</LatitudeDegrees>
              <LongitudeDegrees>-6.41817413270473480224609375</LongitudeDegrees>
            </Position>
            <AltitudeMeters>354.20001220703125</AltitudeMeters>
            <DistanceMeters>NAN</DistanceMeters>
          </Trackpoint>
          <Trackpoint>
            <Time>2019-10-08T13:14:53.000Z</Time>
            <Position>
              <LatitudeDegrees>39.49479625560343265533447265625</LatitudeDegrees>
              <LongitudeDegrees>-6.4180755615234375</LongitudeDegrees>
            </Position>
            <AltitudeMeters>354.399993896484375</AltitudeMeters>
            <DistanceMeters>NAN</DistanceMeters>
          </Trackpoint>
          <Trackpoint>
            <Time>2019-10-08T13:15:01.000Z</Time>
            <Position>
              <LatitudeDegrees>39.4944811798632144927978515625</LatitudeDegrees>
              <LongitudeDegrees>-6.417832486331462860107421875</LongitudeDegrees>
            </Position>
            <AltitudeMeters>355</AltitudeMeters>
            <DistanceMeters>NAN</DistanceMeters>
          </Trackpoint>
          <Trackpoint>
            <Time>2019-10-08T13:15:03.000Z</Time>
            <Position>
              <LatitudeDegrees>39.494405575096607208251953125</LatitudeDegrees>
              <LongitudeDegrees>-6.41776702366769313812255859375</LongitudeDegrees>
            </Position>
            <AltitudeMeters>355.399993896484375</AltitudeMeters>
            <DistanceMeters>NAN</DistanceMeters>
          </Trackpoint>
          <Trackpoint>
            <Time>2019-10-08T13:15:06.000Z</Time>
            <Position>
              <LatitudeDegrees>39.49428747408092021942138671875</LatitudeDegrees>
              <LongitudeDegrees>-6.417676247656345367431640625</LongitudeDegrees>
            </Position>
            <AltitudeMeters>355.600006103515625</AltitudeMeters>
            <DistanceMeters>NAN</DistanceMeters>
          </Trackpoint>
          <Trackpoint>
            <Time>2019-10-08T13:15:18.000Z</Time>
            <Position>
              <LatitudeDegrees>39.49380417354404926300048828125</LatitudeDegrees>
              <LongitudeDegrees>-6.417283304035663604736328125</LongitudeDegrees>
            </Position>
            <AltitudeMeters>356</AltitudeMeters>
            <DistanceMeters>NAN</DistanceMeters>
          </Trackpoint>
          <Trackpoint>
            <Time>2019-10-08T13:15:25.000Z</Time>
            <Position>
              <LatitudeDegrees>39.49350829236209392547607421875</LatitudeDegrees>
              <LongitudeDegrees>-6.41705171205103397369384765625</LongitudeDegrees>
            </Position>
            <AltitudeMeters>356.399993896484375</AltitudeMeters>
            <DistanceMeters>NAN</DistanceMeters>
          </Trackpoint>
          <Trackpoint>
            <Time>2019-10-08T13:15:27.000Z</Time>
            <Position>
              <LatitudeDegrees>39.4934208691120147705078125</LatitudeDegrees>
              <LongitudeDegrees>-6.4169817231595516204833984375</LongitudeDegrees>
            </Position>
            <AltitudeMeters>356.399993896484375</AltitudeMeters>
            <DistanceMeters>NAN</DistanceMeters>
          </Trackpoint>
          <Trackpoint>
            <Time>2019-10-08T13:15:28.000Z</Time>
            <Position>
              <LatitudeDegrees>39.4933747686445713043212890625</LatitudeDegrees>
              <LongitudeDegrees>-6.4169532246887683868408203125</LongitudeDegrees>
            </Position>
            <AltitudeMeters>356.399993896484375</AltitudeMeters>
            <DistanceMeters>NAN</DistanceMeters>
          </Trackpoint>
          <Trackpoint>
            <Time>2019-10-08T13:15:31.000Z</Time>
            <Position>
              <LatitudeDegrees>39.493221379816532135009765625</LatitudeDegrees>
              <LongitudeDegrees>-6.41691684722900390625</LongitudeDegrees>
            </Position>
            <AltitudeMeters>356</AltitudeMeters>
            <DistanceMeters>NAN</DistanceMeters>
          </Trackpoint>
          <Trackpoint>
            <Time>2019-10-08T13:15:34.000Z</Time>
            <Position>
              <LatitudeDegrees>39.49307092465460300445556640625</LatitudeDegrees>
              <LongitudeDegrees>-6.41696638427674770355224609375</LongitudeDegrees>
            </Position>
            <AltitudeMeters>356.20001220703125</AltitudeMeters>
            <DistanceMeters>NAN</DistanceMeters>
          </Trackpoint>
          <Trackpoint>
            <Time>2019-10-08T13:15:35.000Z</Time>
            <Position>
              <LatitudeDegrees>39.493021555244922637939453125</LatitudeDegrees>
              <LongitudeDegrees>-6.41698733903467655181884765625</LongitudeDegrees>
            </Position>
            <AltitudeMeters>356.600006103515625</AltitudeMeters>
            <DistanceMeters>NAN</DistanceMeters>
          </Trackpoint>
          <Trackpoint>
            <Time>2019-10-08T13:15:38.000Z</Time>
            <Position>
              <LatitudeDegrees>39.49286288581788539886474609375</LatitudeDegrees>
              <LongitudeDegrees>-6.4170310087502002716064453125</LongitudeDegrees>
            </Position>
            <AltitudeMeters>356.399993896484375</AltitudeMeters>
            <DistanceMeters>NAN</DistanceMeters>
          </Trackpoint>
          <Trackpoint>
            <Time>2019-10-08T13:15:40.000Z</Time>
            <Position>
              <LatitudeDegrees>39.49275308288633823394775390625</LatitudeDegrees>
              <LongitudeDegrees>-6.41701902262866497039794921875</LongitudeDegrees>
            </Position>
            <AltitudeMeters>356.20001220703125</AltitudeMeters>
            <DistanceMeters>NAN</DistanceMeters>
          </Trackpoint>
          <Trackpoint>
            <Time>2019-10-08T13:15:44.000Z</Time>
            <Position>
              <LatitudeDegrees>39.4925590418279170989990234375</LatitudeDegrees>
              <LongitudeDegrees>-6.41689647920429706573486328125</LongitudeDegrees>
            </Position>
            <AltitudeMeters>357.20001220703125</AltitudeMeters>
            <DistanceMeters>NAN</DistanceMeters>
          </Trackpoint>
          <Trackpoint>
            <Time>2019-10-08T13:15:46.000Z</Time>
            <Position>
              <LatitudeDegrees>39.4924916513264179229736328125</LatitudeDegrees>
              <LongitudeDegrees>-6.4167882688343524932861328125</LongitudeDegrees>
            </Position>
            <AltitudeMeters>357.600006103515625</AltitudeMeters>
            <DistanceMeters>NAN</DistanceMeters>
          </Trackpoint>
          <Trackpoint>
            <Time>2019-10-08T13:15:48.000Z</Time>
            <Position>
              <LatitudeDegrees>39.49244446121156215667724609375</LatitudeDegrees>
              <LongitudeDegrees>-6.4166632108390331268310546875</LongitudeDegrees>
            </Position>
            <AltitudeMeters>358.20001220703125</AltitudeMeters>
            <DistanceMeters>NAN</DistanceMeters>
          </Trackpoint>
          <Trackpoint>
            <Time>2019-10-08T13:15:49.000Z</Time>
            <Position>
              <LatitudeDegrees>39.4924266077578067779541015625</LatitudeDegrees>
              <LongitudeDegrees>-6.416597664356231689453125</LongitudeDegrees>
            </Position>
            <AltitudeMeters>358.399993896484375</AltitudeMeters>
            <DistanceMeters>NAN</DistanceMeters>
          </Trackpoint>
          <Trackpoint>
            <Time>2019-10-08T13:15:53.000Z</Time>
            <Position>
              <LatitudeDegrees>39.4923424534499645233154296875</LatitudeDegrees>
              <LongitudeDegrees>-6.41633681952953338623046875</LongitudeDegrees>
            </Position>
            <AltitudeMeters>357.79998779296875</AltitudeMeters>
            <DistanceMeters>NAN</DistanceMeters>
          </Trackpoint>
          <Trackpoint>
            <Time>2019-10-08T13:15:55.000Z</Time>
            <Position>
              <LatitudeDegrees>39.49226793833076953887939453125</LatitudeDegrees>
              <LongitudeDegrees>-6.41622441820800304412841796875</LongitudeDegrees>
            </Position>
            <AltitudeMeters>358</AltitudeMeters>
            <DistanceMeters>NAN</DistanceMeters>
          </Trackpoint>
          <Trackpoint>
            <Time>2019-10-08T13:15:57.000Z</Time>
            <Position>
              <LatitudeDegrees>39.49217565357685089111328125</LatitudeDegrees>
              <LongitudeDegrees>-6.4161351509392261505126953125</LongitudeDegrees>
            </Position>
            <AltitudeMeters>357.399993896484375</AltitudeMeters>
            <DistanceMeters>NAN</DistanceMeters>
          </Trackpoint>
          <Trackpoint>
            <Time>2019-10-08T13:16:01.000Z</Time>
            <Position>
              <LatitudeDegrees>39.49197306297719478607177734375</LatitudeDegrees>
              <LongitudeDegrees>-6.4159742183983325958251953125</LongitudeDegrees>
            </Position>
            <AltitudeMeters>356.79998779296875</AltitudeMeters>
            <DistanceMeters>NAN</DistanceMeters>
          </Trackpoint>
          <Trackpoint>
            <Time>2019-10-08T13:16:03.000Z</Time>
            <Position>
              <LatitudeDegrees>39.4918650202453136444091796875</LatitudeDegrees>
              <LongitudeDegrees>-6.415900625288486480712890625</LongitudeDegrees>
            </Position>
            <AltitudeMeters>356.399993896484375</AltitudeMeters>
            <DistanceMeters>NAN</DistanceMeters>
          </Trackpoint>
          <Trackpoint>
            <Time>2019-10-08T13:16:11.000Z</Time>
            <Position>
              <LatitudeDegrees>39.4914167560636997222900390625</LatitudeDegrees>
              <LongitudeDegrees>-6.41563517041504383087158203125</LongitudeDegrees>
            </Position>
            <AltitudeMeters>355.399993896484375</AltitudeMeters>
            <DistanceMeters>NAN</DistanceMeters>
          </Trackpoint>
          <Trackpoint>
            <Time>2019-10-08T13:16:20.000Z</Time>
            <Position>
              <LatitudeDegrees>39.4908809848129749298095703125</LatitudeDegrees>
              <LongitudeDegrees>-6.41539536416530609130859375</LongitudeDegrees>
            </Position>
            <AltitudeMeters>354.600006103515625</AltitudeMeters>
            <DistanceMeters>NAN</DistanceMeters>
          </Trackpoint>
          <Trackpoint>
            <Time>2019-10-08T13:16:22.000Z</Time>
            <Position>
              <LatitudeDegrees>39.490756094455718994140625</LatitudeDegrees>
              <LongitudeDegrees>-6.4153395406901836395263671875</LongitudeDegrees>
            </Position>
            <AltitudeMeters>354.20001220703125</AltitudeMeters>
            <DistanceMeters>NAN</DistanceMeters>
          </Trackpoint>
          <Trackpoint>
            <Time>2019-10-08T13:16:27.000Z</Time>
            <Position>
              <LatitudeDegrees>39.4904310442507266998291015625</LatitudeDegrees>
              <LongitudeDegrees>-6.41521188430488109588623046875</LongitudeDegrees>
            </Position>
            <AltitudeMeters>353.20001220703125</AltitudeMeters>
            <DistanceMeters>NAN</DistanceMeters>
          </Trackpoint>
          <Trackpoint>
            <Time>2019-10-08T13:16:30.000Z</Time>
            <Position>
              <LatitudeDegrees>39.49023482389748096466064453125</LatitudeDegrees>
              <LongitudeDegrees>-6.41512714326381683349609375</LongitudeDegrees>
            </Position>
            <AltitudeMeters>352.399993896484375</AltitudeMeters>
            <DistanceMeters>NAN</DistanceMeters>
          </Trackpoint>
          <Trackpoint>
            <Time>2019-10-08T13:16:31.000Z</Time>
            <Position>
              <LatitudeDegrees>39.49017045088112354278564453125</LatitudeDegrees>
              <LongitudeDegrees>-6.41510006971657276153564453125</LongitudeDegrees>
            </Position>
            <AltitudeMeters>352.20001220703125</AltitudeMeters>
            <DistanceMeters>NAN</DistanceMeters>
          </Trackpoint>
          <Trackpoint>
            <Time>2019-10-08T13:16:33.000Z</Time>
            <Position>
              <LatitudeDegrees>39.4900354184210300445556640625</LatitudeDegrees>
              <LongitudeDegrees>-6.41504324041306972503662109375</LongitudeDegrees>
            </Position>
            <AltitudeMeters>351.79998779296875</AltitudeMeters>
            <DistanceMeters>NAN</DistanceMeters>
          </Trackpoint>
          <Trackpoint>
            <Time>2019-10-08T13:16:37.000Z</Time>
            <Position>
              <LatitudeDegrees>39.4897537864744663238525390625</LatitudeDegrees>
              <LongitudeDegrees>-6.41493025235831737518310546875</LongitudeDegrees>
            </Position>
            <AltitudeMeters>351.600006103515625</AltitudeMeters>
            <DistanceMeters>NAN</DistanceMeters>
          </Trackpoint>
          <Trackpoint>
            <Time>2019-10-08T13:16:39.000Z</Time>
            <Position>
              <LatitudeDegrees>39.48960953392088413238525390625</LatitudeDegrees>
              <LongitudeDegrees>-6.41486604698002338409423828125</LongitudeDegrees>
            </Position>
            <AltitudeMeters>350.600006103515625</AltitudeMeters>
            <DistanceMeters>NAN</DistanceMeters>
          </Trackpoint>
          <Trackpoint>
            <Time>2019-10-08T13:16:41.000Z</Time>
            <Position>
              <LatitudeDegrees>39.48945798911154270172119140625</LatitudeDegrees>
              <LongitudeDegrees>-6.41480251215398311614990234375</LongitudeDegrees>
            </Position>
            <AltitudeMeters>350.399993896484375</AltitudeMeters>
            <DistanceMeters>NAN</DistanceMeters>
          </Trackpoint>
          <Trackpoint>
            <Time>2019-10-08T13:16:43.000Z</Time>
            <Position>
              <LatitudeDegrees>39.4893041811883449554443359375</LatitudeDegrees>
              <LongitudeDegrees>-6.4147397316992282867431640625</LongitudeDegrees>
            </Position>
            <AltitudeMeters>350.399993896484375</AltitudeMeters>
            <DistanceMeters>NAN</DistanceMeters>
          </Trackpoint>
          <Trackpoint>
            <Time>2019-10-08T13:16:45.000Z</Time>
            <Position>
              <LatitudeDegrees>39.48914919979870319366455078125</LatitudeDegrees>
              <LongitudeDegrees>-6.41467024572193622589111328125</LongitudeDegrees>
            </Position>
            <AltitudeMeters>350</AltitudeMeters>
            <DistanceMeters>NAN</DistanceMeters>
          </Trackpoint>
          <Trackpoint>
            <Time>2019-10-08T13:16:47.000Z</Time>
            <Position>
              <LatitudeDegrees>39.48899514041841030120849609375</LatitudeDegrees>
              <LongitudeDegrees>-6.414604447782039642333984375</LongitudeDegrees>
            </Position>
            <AltitudeMeters>349.399993896484375</AltitudeMeters>
            <DistanceMeters>NAN</DistanceMeters>
          </Trackpoint>
          <Trackpoint>
            <Time>2019-10-08T13:16:50.000Z</Time>
            <Position>
              <LatitudeDegrees>39.48876497335731983184814453125</LatitudeDegrees>
              <LongitudeDegrees>-6.41450679861009120941162109375</LongitudeDegrees>
            </Position>
            <AltitudeMeters>350</AltitudeMeters>
            <DistanceMeters>NAN</DistanceMeters>
          </Trackpoint>
          <Trackpoint>
            <Time>2019-10-08T13:16:53.000Z</Time>
            <Position>
              <LatitudeDegrees>39.48854369111359119415283203125</LatitudeDegrees>
              <LongitudeDegrees>-6.41441158019006252288818359375</LongitudeDegrees>
            </Position>
            <AltitudeMeters>350.600006103515625</AltitudeMeters>
            <DistanceMeters>NAN</DistanceMeters>
          </Trackpoint>
          <Trackpoint>
            <Time>2019-10-08T13:16:55.000Z</Time>
            <Position>
              <LatitudeDegrees>39.4884051382541656494140625</LatitudeDegrees>
              <LongitudeDegrees>-6.4143555052578449249267578125</LongitudeDegrees>
            </Position>
            <AltitudeMeters>350.399993896484375</AltitudeMeters>
            <DistanceMeters>NAN</DistanceMeters>
          </Trackpoint>
          <Trackpoint>
            <Time>2019-10-08T13:17:01.000Z</Time>
            <Position>
              <LatitudeDegrees>39.488025270402431488037109375</LatitudeDegrees>
              <LongitudeDegrees>-6.41420287080109119415283203125</LongitudeDegrees>
            </Position>
            <AltitudeMeters>351.20001220703125</AltitudeMeters>
            <DistanceMeters>NAN</DistanceMeters>
          </Trackpoint>
          <Trackpoint>
            <Time>2019-10-08T13:17:03.000Z</Time>
            <Position>
              <LatitudeDegrees>39.48790733702480792999267578125</LatitudeDegrees>
              <LongitudeDegrees>-6.41415123827755451202392578125</LongitudeDegrees>
            </Position>
            <AltitudeMeters>351.600006103515625</AltitudeMeters>
            <DistanceMeters>NAN</DistanceMeters>
          </Trackpoint>
          <Trackpoint>
            <Time>2019-10-08T13:17:10.000Z</Time>
            <Position>
              <LatitudeDegrees>39.4875039160251617431640625</LatitudeDegrees>
              <LongitudeDegrees>-6.41398879699409008026123046875</LongitudeDegrees>
            </Position>
            <AltitudeMeters>352.79998779296875</AltitudeMeters>
            <DistanceMeters>NAN</DistanceMeters>
          </Trackpoint>
          <Trackpoint>
            <Time>2019-10-08T13:17:12.000Z</Time>
            <Position>
              <LatitudeDegrees>39.48738883249461650848388671875</LatitudeDegrees>
              <LongitudeDegrees>-6.4139468036592006683349609375</LongitudeDegrees>
            </Position>
            <AltitudeMeters>353</AltitudeMeters>
            <DistanceMeters>NAN</DistanceMeters>
          </Trackpoint>
          <Trackpoint>
            <Time>2019-10-08T13:17:18.000Z</Time>
            <Position>
              <LatitudeDegrees>39.48703997768461704254150390625</LatitudeDegrees>
              <LongitudeDegrees>-6.41382618807256221771240234375</LongitudeDegrees>
            </Position>
            <AltitudeMeters>353.399993896484375</AltitudeMeters>
            <DistanceMeters>NAN</DistanceMeters>
          </Trackpoint>
          <Trackpoint>
            <Time>2019-10-08T13:17:20.000Z</Time>
            <Position>
              <LatitudeDegrees>39.48692346923053264617919921875</LatitudeDegrees>
              <LongitudeDegrees>-6.4137746393680572509765625</LongitudeDegrees>
            </Position>
            <AltitudeMeters>353.20001220703125</AltitudeMeters>
            <DistanceMeters>NAN</DistanceMeters>
          </Trackpoint>
          <Trackpoint>
            <Time>2019-10-08T13:17:23.000Z</Time>
            <Position>
              <LatitudeDegrees>39.48675080202519893646240234375</LatitudeDegrees>
              <LongitudeDegrees>-6.4137007109820842742919921875</LongitudeDegrees>
            </Position>
            <AltitudeMeters>353.20001220703125</AltitudeMeters>
            <DistanceMeters>NAN</DistanceMeters>
          </Trackpoint>
          <Trackpoint>
            <Time>2019-10-08T13:17:28.000Z</Time>
            <Position>
              <LatitudeDegrees>39.4864593632519245147705078125</LatitudeDegrees>
              <LongitudeDegrees>-6.41356701962649822235107421875</LongitudeDegrees>
            </Position>
            <AltitudeMeters>353.20001220703125</AltitudeMeters>
            <DistanceMeters>NAN</DistanceMeters>
          </Trackpoint>
          <Trackpoint>
            <Time>2019-10-08T13:17:30.000Z</Time>
            <Position>
              <LatitudeDegrees>39.4863423518836498260498046875</LatitudeDegrees>
              <LongitudeDegrees>-6.413514800369739532470703125</LongitudeDegrees>
            </Position>
            <AltitudeMeters>353.20001220703125</AltitudeMeters>
            <DistanceMeters>NAN</DistanceMeters>
          </Trackpoint>
          <Trackpoint>
            <Time>2019-10-08T13:17:35.000Z</Time>
            <Position>
              <LatitudeDegrees>39.4860493205487728118896484375</LatitudeDegrees>
              <LongitudeDegrees>-6.413385383784770965576171875</LongitudeDegrees>
            </Position>
            <AltitudeMeters>353.399993896484375</AltitudeMeters>
            <DistanceMeters>NAN</DistanceMeters>
          </Trackpoint>
          <Trackpoint>
            <Time>2019-10-08T13:17:40.000Z</Time>
            <Position>
              <LatitudeDegrees>39.4857526011765003204345703125</LatitudeDegrees>
              <LongitudeDegrees>-6.41325403936207294464111328125</LongitudeDegrees>
            </Position>
            <AltitudeMeters>353.20001220703125</AltitudeMeters>
            <DistanceMeters>NAN</DistanceMeters>
          </Trackpoint>
          <Trackpoint>
            <Time>2019-10-08T13:17:49.000Z</Time>
            <Position>
              <LatitudeDegrees>39.48520802892744541168212890625</LatitudeDegrees>
              <LongitudeDegrees>-6.41300618648529052734375</LongitudeDegrees>
            </Position>
            <AltitudeMeters>353.399993896484375</AltitudeMeters>
            <DistanceMeters>NAN</DistanceMeters>
          </Trackpoint>
          <Trackpoint>
            <Time>2019-10-08T13:17:58.000Z</Time>
            <Position>
              <LatitudeDegrees>39.4846599362790584564208984375</LatitudeDegrees>
              <LongitudeDegrees>-6.4127572439610958099365234375</LongitudeDegrees>
            </Position>
            <AltitudeMeters>353.399993896484375</AltitudeMeters>
            <DistanceMeters>NAN</DistanceMeters>
          </Trackpoint>
          <Trackpoint>
            <Time>2019-10-08T13:17:59.000Z</Time>
            <Position>
              <LatitudeDegrees>39.48459967039525508880615234375</LatitudeDegrees>
              <LongitudeDegrees>-6.412724219262599945068359375</LongitudeDegrees>
            </Position>
            <AltitudeMeters>353.20001220703125</AltitudeMeters>
            <DistanceMeters>NAN</DistanceMeters>
          </Trackpoint>
          <Trackpoint>
            <Time>2019-10-08T13:18:05.000Z</Time>
            <Position>
              <LatitudeDegrees>39.4842334650456905364990234375</LatitudeDegrees>
              <LongitudeDegrees>-6.41249581240117549896240234375</LongitudeDegrees>
            </Position>
            <AltitudeMeters>351.79998779296875</AltitudeMeters>
            <DistanceMeters>NAN</DistanceMeters>
          </Trackpoint>
          <Trackpoint>
            <Time>2019-10-08T13:18:09.000Z</Time>
            <Position>
              <LatitudeDegrees>39.48398393578827381134033203125</LatitudeDegrees>
              <LongitudeDegrees>-6.41232398338615894317626953125</LongitudeDegrees>
            </Position>
            <AltitudeMeters>351</AltitudeMeters>
            <DistanceMeters>NAN</DistanceMeters>
          </Trackpoint>
          <Trackpoint>
            <Time>2019-10-08T13:18:12.000Z</Time>
            <Position>
              <LatitudeDegrees>39.4837996177375316619873046875</LatitudeDegrees>
              <LongitudeDegrees>-6.412193477153778076171875</LongitudeDegrees>
            </Position>
            <AltitudeMeters>350.79998779296875</AltitudeMeters>
            <DistanceMeters>NAN</DistanceMeters>
          </Trackpoint>
          <Trackpoint>
            <Time>2019-10-08T13:18:17.000Z</Time>
            <Position>
              <LatitudeDegrees>39.48349677957594394683837890625</LatitudeDegrees>
              <LongitudeDegrees>-6.4119777269661426544189453125</LongitudeDegrees>
            </Position>
            <AltitudeMeters>350.20001220703125</AltitudeMeters>
            <DistanceMeters>NAN</DistanceMeters>
          </Trackpoint>
          <Trackpoint>
            <Time>2019-10-08T13:18:19.000Z</Time>
            <Position>
              <LatitudeDegrees>39.4833778403699398040771484375</LatitudeDegrees>
              <LongitudeDegrees>-6.4118929021060466766357421875</LongitudeDegrees>
            </Position>
            <AltitudeMeters>350.20001220703125</AltitudeMeters>
            <DistanceMeters>NAN</DistanceMeters>
          </Trackpoint>
          <Trackpoint>
            <Time>2019-10-08T13:18:27.000Z</Time>
            <Position>
              <LatitudeDegrees>39.4829134829342365264892578125</LatitudeDegrees>
              <LongitudeDegrees>-6.4115710370242595672607421875</LongitudeDegrees>
            </Position>
            <AltitudeMeters>350.79998779296875</AltitudeMeters>
            <DistanceMeters>NAN</DistanceMeters>
          </Trackpoint>
          <Trackpoint>
            <Time>2019-10-08T13:18:28.000Z</Time>
            <Position>
              <LatitudeDegrees>39.48285807855427265167236328125</LatitudeDegrees>
              <LongitudeDegrees>-6.41153088770806789398193359375</LongitudeDegrees>
            </Position>
            <AltitudeMeters>350.600006103515625</AltitudeMeters>
            <DistanceMeters>NAN</DistanceMeters>
          </Trackpoint>
          <Trackpoint>
            <Time>2019-10-08T13:18:37.000Z</Time>
            <Position>
              <LatitudeDegrees>39.48236304335296154022216796875</LatitudeDegrees>
              <LongitudeDegrees>-6.41118555329740047454833984375</LongitudeDegrees>
            </Position>
            <AltitudeMeters>350.79998779296875</AltitudeMeters>
            <DistanceMeters>NAN</DistanceMeters>
          </Trackpoint>
          <Trackpoint>
            <Time>2019-10-08T13:18:45.000Z</Time>
            <Position>
              <LatitudeDegrees>39.4819294475018978118896484375</LatitudeDegrees>
              <LongitudeDegrees>-6.41089989803731441497802734375</LongitudeDegrees>
            </Position>
            <AltitudeMeters>351.600006103515625</AltitudeMeters>
            <DistanceMeters>NAN</DistanceMeters>
          </Trackpoint>
          <Trackpoint>
            <Time>2019-10-08T13:18:47.000Z</Time>
            <Position>
              <LatitudeDegrees>39.48181536979973316192626953125</LatitudeDegrees>
              <LongitudeDegrees>-6.4108857326209545135498046875</LongitudeDegrees>
            </Position>
            <AltitudeMeters>351.79998779296875</AltitudeMeters>
            <DistanceMeters>NAN</DistanceMeters>
          </Trackpoint>
          <Trackpoint>
            <Time>2019-10-08T13:18:49.000Z</Time>
            <Position>
              <LatitudeDegrees>39.48170296847820281982421875</LatitudeDegrees>
              <LongitudeDegrees>-6.41091297380626201629638671875</LongitudeDegrees>
            </Position>
            <AltitudeMeters>352.20001220703125</AltitudeMeters>
            <DistanceMeters>NAN</DistanceMeters>
          </Trackpoint>
          <Trackpoint>
            <Time>2019-10-08T13:18:50.000Z</Time>
            <Position>
              <LatitudeDegrees>39.481647312641143798828125</LatitudeDegrees>
              <LongitudeDegrees>-6.41093594022095203399658203125</LongitudeDegrees>
            </Position>
            <AltitudeMeters>352.399993896484375</AltitudeMeters>
            <DistanceMeters>NAN</DistanceMeters>
          </Trackpoint>
          <Trackpoint>
            <Time>2019-10-08T13:18:55.000Z</Time>
            <Position>
              <LatitudeDegrees>39.48136643506586551666259765625</LatitudeDegrees>
              <LongitudeDegrees>-6.41101188026368618011474609375</LongitudeDegrees>
            </Position>
            <AltitudeMeters>352.399993896484375</AltitudeMeters>
            <DistanceMeters>NAN</DistanceMeters>
          </Trackpoint>
          <Trackpoint>
            <Time>2019-10-08T13:18:58.000Z</Time>
            <Position>
              <LatitudeDegrees>39.48121287859976291656494140625</LatitudeDegrees>
              <LongitudeDegrees>-6.410940550267696380615234375</LongitudeDegrees>
            </Position>
            <AltitudeMeters>352.600006103515625</AltitudeMeters>
            <DistanceMeters>NAN</DistanceMeters>
          </Trackpoint>
          <Trackpoint>
            <Time>2019-10-08T13:19:00.000Z</Time>
            <Position>
              <LatitudeDegrees>39.4811341725289821624755859375</LatitudeDegrees>
              <LongitudeDegrees>-6.410837955772876739501953125</LongitudeDegrees>
            </Position>
            <AltitudeMeters>352.79998779296875</AltitudeMeters>
            <DistanceMeters>NAN</DistanceMeters>
          </Trackpoint>
          <Trackpoint>
            <Time>2019-10-08T13:19:02.000Z</Time>
            <Position>
              <LatitudeDegrees>39.481072984635829925537109375</LatitudeDegrees>
              <LongitudeDegrees>-6.4107140712440013885498046875</LongitudeDegrees>
            </Position>
            <AltitudeMeters>353.20001220703125</AltitudeMeters>
            <DistanceMeters>NAN</DistanceMeters>
          </Trackpoint>
          <Trackpoint>
            <Time>2019-10-08T13:19:04.000Z</Time>
            <Position>
              <LatitudeDegrees>39.48103375732898712158203125</LatitudeDegrees>
              <LongitudeDegrees>-6.41057400964200496673583984375</LongitudeDegrees>
            </Position>
            <AltitudeMeters>352.79998779296875</AltitudeMeters>
            <DistanceMeters>NAN</DistanceMeters>
          </Trackpoint>
          <Trackpoint>
            <Time>2019-10-08T13:19:07.000Z</Time>
            <Position>
              <LatitudeDegrees>39.48097382672131061553955078125</LatitudeDegrees>
              <LongitudeDegrees>-6.410364545881748199462890625</LongitudeDegrees>
            </Position>
            <AltitudeMeters>353</AltitudeMeters>
            <DistanceMeters>NAN</DistanceMeters>
          </Trackpoint>
          <Trackpoint>
            <Time>2019-10-08T13:19:08.000Z</Time>
            <Position>
              <LatitudeDegrees>39.480948261916637420654296875</LatitudeDegrees>
              <LongitudeDegrees>-6.410294137895107269287109375</LongitudeDegrees>
            </Position>
            <AltitudeMeters>353</AltitudeMeters>
            <DistanceMeters>NAN</DistanceMeters>
          </Trackpoint>
          <Trackpoint>
            <Time>2019-10-08T13:19:11.000Z</Time>
            <Position>
              <LatitudeDegrees>39.48082630522549152374267578125</LatitudeDegrees>
              <LongitudeDegrees>-6.410127170383930206298828125</LongitudeDegrees>
            </Position>
            <AltitudeMeters>352.79998779296875</AltitudeMeters>
            <DistanceMeters>NAN</DistanceMeters>
          </Trackpoint>
          <Trackpoint>
            <Time>2019-10-08T13:19:13.000Z</Time>
            <Position>
              <LatitudeDegrees>39.48072572238743305206298828125</LatitudeDegrees>
              <LongitudeDegrees>-6.41005148179829120635986328125</LongitudeDegrees>
            </Position>
            <AltitudeMeters>353</AltitudeMeters>
            <DistanceMeters>NAN</DistanceMeters>
          </Trackpoint>
          <Trackpoint>
            <Time>2019-10-08T13:19:17.000Z</Time>
            <Position>
              <LatitudeDegrees>39.48052858002483844757080078125</LatitudeDegrees>
              <LongitudeDegrees>-6.40991854481399059295654296875</LongitudeDegrees>
            </Position>
            <AltitudeMeters>353.600006103515625</AltitudeMeters>
            <DistanceMeters>NAN</DistanceMeters>
          </Trackpoint>
          <Trackpoint>
            <Time>2019-10-08T13:19:20.000Z</Time>
            <Position>
              <LatitudeDegrees>39.480386339128017425537109375</LatitudeDegrees>
              <LongitudeDegrees>-6.40982148237526416778564453125</LongitudeDegrees>
            </Position>
            <AltitudeMeters>354</AltitudeMeters>
            <DistanceMeters>NAN</DistanceMeters>
          </Trackpoint>
          <Trackpoint>
            <Time>2019-10-08T13:19:25.000Z</Time>
            <Position>
              <LatitudeDegrees>39.4801736064255237579345703125</LatitudeDegrees>
              <LongitudeDegrees>-6.40967379324138164520263671875</LongitudeDegrees>
            </Position>
            <AltitudeMeters>354.600006103515625</AltitudeMeters>
            <DistanceMeters>NAN</DistanceMeters>
          </Trackpoint>
          <Trackpoint>
            <Time>2019-10-08T13:19:26.000Z</Time>
            <Position>
              <LatitudeDegrees>39.480133540928363800048828125</LatitudeDegrees>
              <LongitudeDegrees>-6.40964739024639129638671875</LongitudeDegrees>
            </Position>
            <AltitudeMeters>355</AltitudeMeters>
            <DistanceMeters>NAN</DistanceMeters>
          </Trackpoint>
          <Trackpoint>
            <Time>2019-10-08T13:19:31.000Z</Time>
            <Position>
              <LatitudeDegrees>39.4799355603754520416259765625</LatitudeDegrees>
              <LongitudeDegrees>-6.40950699336826801300048828125</LongitudeDegrees>
            </Position>
            <AltitudeMeters>356.20001220703125</AltitudeMeters>
            <DistanceMeters>NAN</DistanceMeters>
          </Trackpoint>
          <Trackpoint>
            <Time>2019-10-08T13:19:35.000Z</Time>
            <Position>
              <LatitudeDegrees>39.4797809980809688568115234375</LatitudeDegrees>
              <LongitudeDegrees>-6.4094044826924800872802734375</LongitudeDegrees>
            </Position>
            <AltitudeMeters>357</AltitudeMeters>
            <DistanceMeters>NAN</DistanceMeters>
          </Trackpoint>
          <Trackpoint>
            <Time>2019-10-08T13:19:37.000Z</Time>
            <Position>
              <LatitudeDegrees>39.47970338165760040283203125</LatitudeDegrees>
              <LongitudeDegrees>-6.409349329769611358642578125</LongitudeDegrees>
            </Position>
            <AltitudeMeters>357.399993896484375</AltitudeMeters>
            <DistanceMeters>NAN</DistanceMeters>
          </Trackpoint>
          <Trackpoint>
            <Time>2019-10-08T13:19:38.000Z</Time>
            <Position>
              <LatitudeDegrees>39.47966541163623332977294921875</LatitudeDegrees>
              <LongitudeDegrees>-6.4093194901943206787109375</LongitudeDegrees>
            </Position>
            <AltitudeMeters>357.20001220703125</AltitudeMeters>
            <DistanceMeters>NAN</DistanceMeters>
          </Trackpoint>
          <Trackpoint>
            <Time>2019-10-08T13:19:42.000Z</Time>
            <Position>
              <LatitudeDegrees>39.47950833477079868316650390625</LatitudeDegrees>
              <LongitudeDegrees>-6.40920641832053661346435546875</LongitudeDegrees>
            </Position>
            <AltitudeMeters>357.600006103515625</AltitudeMeters>
            <DistanceMeters>NAN</DistanceMeters>
          </Trackpoint>
          <Trackpoint>
            <Time>2019-10-08T13:19:47.000Z</Time>
            <Position>
              <LatitudeDegrees>39.47931236587464809417724609375</LatitudeDegrees>
              <LongitudeDegrees>-6.4090625010430812835693359375</LongitudeDegrees>
            </Position>
            <AltitudeMeters>358.399993896484375</AltitudeMeters>
            <DistanceMeters>NAN</DistanceMeters>
          </Trackpoint>
          <Trackpoint>
            <Time>2019-10-08T13:19:51.000Z</Time>
            <Position>
              <LatitudeDegrees>39.4791568815708160400390625</LatitudeDegrees>
              <LongitudeDegrees>-6.40894574113190174102783203125</LongitudeDegrees>
            </Position>
            <AltitudeMeters>358.600006103515625</AltitudeMeters>
            <DistanceMeters>NAN</DistanceMeters>
          </Trackpoint>
          <Trackpoint>
            <Time>2019-10-08T13:20:03.000Z</Time>
            <Position>
              <LatitudeDegrees>39.4786920212209224700927734375</LatitudeDegrees>
              <LongitudeDegrees>-6.40858783386647701263427734375</LongitudeDegrees>
            </Position>
            <AltitudeMeters>359.399993896484375</AltitudeMeters>
            <DistanceMeters>NAN</DistanceMeters>
          </Trackpoint>
          <Trackpoint>
            <Time>2019-10-08T13:20:05.000Z</Time>
            <Position>
              <LatitudeDegrees>39.47861415334045886993408203125</LatitudeDegrees>
              <LongitudeDegrees>-6.408527232706546783447265625</LongitudeDegrees>
            </Position>
            <AltitudeMeters>359.600006103515625</AltitudeMeters>
            <DistanceMeters>NAN</DistanceMeters>
          </Trackpoint>
          <Trackpoint>
            <Time>2019-10-08T13:20:15.000Z</Time>
            <Position>
              <LatitudeDegrees>39.4782323576509952545166015625</LatitudeDegrees>
              <LongitudeDegrees>-6.4082176052033901214599609375</LongitudeDegrees>
            </Position>
            <AltitudeMeters>360.600006103515625</AltitudeMeters>
            <DistanceMeters>NAN</DistanceMeters>
          </Trackpoint>
          <Trackpoint>
            <Time>2019-10-08T13:20:26.000Z</Time>
            <Position>
              <LatitudeDegrees>39.47782390750944614410400390625</LatitudeDegrees>
              <LongitudeDegrees>-6.407875455915927886962890625</LongitudeDegrees>
            </Position>
            <AltitudeMeters>361.399993896484375</AltitudeMeters>
            <DistanceMeters>NAN</DistanceMeters>
          </Trackpoint>
          <Trackpoint>
            <Time>2019-10-08T13:20:27.000Z</Time>
            <Position>
              <LatitudeDegrees>39.477787949144840240478515625</LatitudeDegrees>
              <LongitudeDegrees>-6.4078431017696857452392578125</LongitudeDegrees>
            </Position>
            <AltitudeMeters>361.79998779296875</AltitudeMeters>
            <DistanceMeters>NAN</DistanceMeters>
          </Trackpoint>
          <Trackpoint>
            <Time>2019-10-08T13:20:33.000Z</Time>
            <Position>
              <LatitudeDegrees>39.4775765575468540191650390625</LatitudeDegrees>
              <LongitudeDegrees>-6.40764520503580570220947265625</LongitudeDegrees>
            </Position>
            <AltitudeMeters>362.20001220703125</AltitudeMeters>
            <DistanceMeters>NAN</DistanceMeters>
          </Trackpoint>
          <Trackpoint>
            <Time>2019-10-08T13:20:40.000Z</Time>
            <Position>
              <LatitudeDegrees>39.47732501663267612457275390625</LatitudeDegrees>
              <LongitudeDegrees>-6.4074230007827281951904296875</LongitudeDegrees>
            </Position>
            <AltitudeMeters>362.79998779296875</AltitudeMeters>
            <DistanceMeters>NAN</DistanceMeters>
          </Trackpoint>
          <Trackpoint>
            <Time>2019-10-08T13:20:42.000Z</Time>
            <Position>
              <LatitudeDegrees>39.47725527919828891754150390625</LatitudeDegrees>
              <LongitudeDegrees>-6.4073599688708782196044921875</LongitudeDegrees>
            </Position>
            <AltitudeMeters>362.600006103515625</AltitudeMeters>
            <DistanceMeters>NAN</DistanceMeters>
          </Trackpoint>
          <Trackpoint>
            <Time>2019-10-08T13:20:50.000Z</Time>
            <Position>
              <LatitudeDegrees>39.47698186151683330535888671875</LatitudeDegrees>
              <LongitudeDegrees>-6.40707674436271190643310546875</LongitudeDegrees>
            </Position>
            <AltitudeMeters>363.79998779296875</AltitudeMeters>
            <DistanceMeters>NAN</DistanceMeters>
          </Trackpoint>
          <Trackpoint>
            <Time>2019-10-08T13:20:52.000Z</Time>
            <Position>
              <LatitudeDegrees>39.47691497392952442169189453125</LatitudeDegrees>
              <LongitudeDegrees>-6.4070020616054534912109375</LongitudeDegrees>
            </Position>
            <AltitudeMeters>363.600006103515625</AltitudeMeters>
            <DistanceMeters>NAN</DistanceMeters>
          </Trackpoint>
          <Trackpoint>
            <Time>2019-10-08T13:21:02.000Z</Time>
            <Position>
              <LatitudeDegrees>39.47658606804907321929931640625</LatitudeDegrees>
              <LongitudeDegrees>-6.40660333447158336639404296875</LongitudeDegrees>
            </Position>
            <AltitudeMeters>364.600006103515625</AltitudeMeters>
            <DistanceMeters>NAN</DistanceMeters>
          </Trackpoint>
          <Trackpoint>
            <Time>2019-10-08T13:21:05.000Z</Time>
            <Position>
              <LatitudeDegrees>39.4764912687242031097412109375</LatitudeDegrees>
              <LongitudeDegrees>-6.406480371952056884765625</LongitudeDegrees>
            </Position>
            <AltitudeMeters>364.79998779296875</AltitudeMeters>
            <DistanceMeters>NAN</DistanceMeters>
          </Trackpoint>
          <Trackpoint>
            <Time>2019-10-08T13:21:07.000Z</Time>
            <Position>
              <LatitudeDegrees>39.47642513550817966461181640625</LatitudeDegrees>
              <LongitudeDegrees>-6.4063960500061511993408203125</LongitudeDegrees>
            </Position>
            <AltitudeMeters>364.79998779296875</AltitudeMeters>
            <DistanceMeters>NAN</DistanceMeters>
          </Trackpoint>
          <Trackpoint>
            <Time>2019-10-08T13:21:10.000Z</Time>
            <Position>
              <LatitudeDegrees>39.47633192874491214752197265625</LatitudeDegrees>
              <LongitudeDegrees>-6.40626939944922924041748046875</LongitudeDegrees>
            </Position>
            <AltitudeMeters>365.20001220703125</AltitudeMeters>
            <DistanceMeters>NAN</DistanceMeters>
          </Trackpoint>
          <Trackpoint>
            <Time>2019-10-08T13:21:18.000Z</Time>
            <Position>
              <LatitudeDegrees>39.476102851331233978271484375</LatitudeDegrees>
              <LongitudeDegrees>-6.4059199579060077667236328125</LongitudeDegrees>
            </Position>
            <AltitudeMeters>365.399993896484375</AltitudeMeters>
            <DistanceMeters>NAN</DistanceMeters>
          </Trackpoint>
          <Trackpoint>
            <Time>2019-10-08T13:21:21.000Z</Time>
            <Position>
              <LatitudeDegrees>39.47602548636496067047119140625</LatitudeDegrees>
              <LongitudeDegrees>-6.40579313971102237701416015625</LongitudeDegrees>
            </Position>
            <AltitudeMeters>366</AltitudeMeters>
            <DistanceMeters>NAN</DistanceMeters>
          </Trackpoint>
          <Trackpoint>
            <Time>2019-10-08T13:21:23.000Z</Time>
            <Position>
              <LatitudeDegrees>39.47597251273691654205322265625</LatitudeDegrees>
              <LongitudeDegrees>-6.4056986756622791290283203125</LongitudeDegrees>
            </Position>
            <AltitudeMeters>366.20001220703125</AltitudeMeters>
            <DistanceMeters>NAN</DistanceMeters>
          </Trackpoint>
          <Trackpoint>
            <Time>2019-10-08T13:21:25.000Z</Time>
            <Position>
              <LatitudeDegrees>39.475913755595684051513671875</LatitudeDegrees>
              <LongitudeDegrees>-6.40561041422188282012939453125</LongitudeDegrees>
            </Position>
            <AltitudeMeters>366.20001220703125</AltitudeMeters>
            <DistanceMeters>NAN</DistanceMeters>
          </Trackpoint>
          <Trackpoint>
            <Time>2019-10-08T13:21:34.000Z</Time>
            <Position>
              <LatitudeDegrees>39.4756748713552951812744140625</LatitudeDegrees>
              <LongitudeDegrees>-6.405169777572154998779296875</LongitudeDegrees>
            </Position>
            <AltitudeMeters>366.399993896484375</AltitudeMeters>
            <DistanceMeters>NAN</DistanceMeters>
          </Trackpoint>
          <Trackpoint>
            <Time>2019-10-08T13:21:43.000Z</Time>
            <Position>
              <LatitudeDegrees>39.4754472188651561737060546875</LatitudeDegrees>
              <LongitudeDegrees>-6.40471137128770351409912109375</LongitudeDegrees>
            </Position>
            <AltitudeMeters>367</AltitudeMeters>
            <DistanceMeters>NAN</DistanceMeters>
          </Trackpoint>
          <Trackpoint>
            <Time>2019-10-08T13:21:45.000Z</Time>
            <Position>
              <LatitudeDegrees>39.47539650835096836090087890625</LatitudeDegrees>
              <LongitudeDegrees>-6.40460676513612270355224609375</LongitudeDegrees>
            </Position>
            <AltitudeMeters>367.20001220703125</AltitudeMeters>
            <DistanceMeters>NAN</DistanceMeters>
          </Trackpoint>
          <Trackpoint>
            <Time>2019-10-08T13:21:55.000Z</Time>
            <Position>
              <LatitudeDegrees>39.47517673484981060028076171875</LatitudeDegrees>
              <LongitudeDegrees>-6.40406026504933834075927734375</LongitudeDegrees>
            </Position>
            <AltitudeMeters>367.79998779296875</AltitudeMeters>
            <DistanceMeters>NAN</DistanceMeters>
          </Trackpoint>
          <Trackpoint>
            <Time>2019-10-08T13:21:57.000Z</Time>
            <Position>
              <LatitudeDegrees>39.4751350767910480499267578125</LatitudeDegrees>
              <LongitudeDegrees>-6.4039475284516811370849609375</LongitudeDegrees>
            </Position>
            <AltitudeMeters>368.20001220703125</AltitudeMeters>
            <DistanceMeters>NAN</DistanceMeters>
          </Trackpoint>
          <Trackpoint>
            <Time>2019-10-08T13:22:04.000Z</Time>
            <Position>
              <LatitudeDegrees>39.47500415146350860595703125</LatitudeDegrees>
              <LongitudeDegrees>-6.403556428849697113037109375</LongitudeDegrees>
            </Position>
            <AltitudeMeters>368.79998779296875</AltitudeMeters>
            <DistanceMeters>NAN</DistanceMeters>
          </Trackpoint>
          <Trackpoint>
            <Time>2019-10-08T13:22:05.000Z</Time>
            <Position>
              <LatitudeDegrees>39.47498512454330921173095703125</LatitudeDegrees>
              <LongitudeDegrees>-6.4035017788410186767578125</LongitudeDegrees>
            </Position>
            <AltitudeMeters>368.79998779296875</AltitudeMeters>
            <DistanceMeters>NAN</DistanceMeters>
          </Trackpoint>
          <Trackpoint>
            <Time>2019-10-08T13:22:08.000Z</Time>
            <Position>
              <LatitudeDegrees>39.4749322347342967987060546875</LatitudeDegrees>
              <LongitudeDegrees>-6.403339169919490814208984375</LongitudeDegrees>
            </Position>
            <AltitudeMeters>369.20001220703125</AltitudeMeters>
            <DistanceMeters>NAN</DistanceMeters>
          </Trackpoint>
          <Trackpoint>
            <Time>2019-10-08T13:22:15.000Z</Time>
            <Position>
              <LatitudeDegrees>39.47481933049857616424560546875</LatitudeDegrees>
              <LongitudeDegrees>-6.40295770950615406036376953125</LongitudeDegrees>
            </Position>
            <AltitudeMeters>370.20001220703125</AltitudeMeters>
            <DistanceMeters>NAN</DistanceMeters>
          </Trackpoint>
          <Trackpoint>
            <Time>2019-10-08T13:22:16.000Z</Time>
            <Position>
              <LatitudeDegrees>39.47479854337871074676513671875</LatitudeDegrees>
              <LongitudeDegrees>-6.40290507115423679351806640625</LongitudeDegrees>
            </Position>
            <AltitudeMeters>370.399993896484375</AltitudeMeters>
            <DistanceMeters>NAN</DistanceMeters>
          </Trackpoint>
          <Trackpoint>
            <Time>2019-10-08T13:22:19.000Z</Time>
            <Position>
              <LatitudeDegrees>39.47472210042178630828857421875</LatitudeDegrees>
              <LongitudeDegrees>-6.40276358462870121002197265625</LongitudeDegrees>
            </Position>
            <AltitudeMeters>370.20001220703125</AltitudeMeters>
            <DistanceMeters>NAN</DistanceMeters>
          </Trackpoint>
          <Trackpoint>
            <Time>2019-10-08T13:22:21.000Z</Time>
            <Position>
              <LatitudeDegrees>39.47464968077838420867919921875</LatitudeDegrees>
              <LongitudeDegrees>-6.40269015915691852569580078125</LongitudeDegrees>
            </Position>
            <AltitudeMeters>370.399993896484375</AltitudeMeters>
            <DistanceMeters>NAN</DistanceMeters>
          </Trackpoint>
          <Trackpoint>
            <Time>2019-10-08T13:22:24.000Z</Time>
            <Position>
              <LatitudeDegrees>39.47451825253665447235107421875</LatitudeDegrees>
              <LongitudeDegrees>-6.4026091061532497406005859375</LongitudeDegrees>
            </Position>
            <AltitudeMeters>370</AltitudeMeters>
            <DistanceMeters>NAN</DistanceMeters>
          </Trackpoint>
          <Trackpoint>
            <Time>2019-10-08T13:22:26.000Z</Time>
            <Position>
              <LatitudeDegrees>39.4744299910962581634521484375</LatitudeDegrees>
              <LongitudeDegrees>-6.4025437273085117340087890625</LongitudeDegrees>
            </Position>
            <AltitudeMeters>370.600006103515625</AltitudeMeters>
            <DistanceMeters>NAN</DistanceMeters>
          </Trackpoint>
          <Trackpoint>
            <Time>2019-10-08T13:22:27.000Z</Time>
            <Position>
              <LatitudeDegrees>39.47439051233232021331787109375</LatitudeDegrees>
              <LongitudeDegrees>-6.40250508673489093780517578125</LongitudeDegrees>
            </Position>
            <AltitudeMeters>370.600006103515625</AltitudeMeters>
            <DistanceMeters>NAN</DistanceMeters>
          </Trackpoint>
          <Trackpoint>
            <Time>2019-10-08T13:22:31.000Z</Time>
            <Position>
              <LatitudeDegrees>39.4742690585553646087646484375</LatitudeDegrees>
              <LongitudeDegrees>-6.40231498517096042633056640625</LongitudeDegrees>
            </Position>
            <AltitudeMeters>370.79998779296875</AltitudeMeters>
            <DistanceMeters>NAN</DistanceMeters>
          </Trackpoint>
          <Trackpoint>
            <Time>2019-10-08T13:22:34.000Z</Time>
            <Position>
              <LatitudeDegrees>39.474221281707286834716796875</LatitudeDegrees>
              <LongitudeDegrees>-6.402140222489833831787109375</LongitudeDegrees>
            </Position>
            <AltitudeMeters>371.20001220703125</AltitudeMeters>
            <DistanceMeters>NAN</DistanceMeters>
          </Trackpoint>
          <Trackpoint>
            <Time>2019-10-08T13:22:35.000Z</Time>
            <Position>
              <LatitudeDegrees>39.47421147488057613372802734375</LatitudeDegrees>
              <LongitudeDegrees>-6.40208012424409389495849609375</LongitudeDegrees>
            </Position>
            <AltitudeMeters>371.399993896484375</AltitudeMeters>
            <DistanceMeters>NAN</DistanceMeters>
          </Trackpoint>
          <Trackpoint>
            <Time>2019-10-08T13:22:36.000Z</Time>
            <Position>
              <LatitudeDegrees>39.47420560754835605621337890625</LatitudeDegrees>
              <LongitudeDegrees>-6.4020173437893390655517578125</LongitudeDegrees>
            </Position>
            <AltitudeMeters>371.399993896484375</AltitudeMeters>
            <DistanceMeters>NAN</DistanceMeters>
          </Trackpoint>
          <Trackpoint>
            <Time>2019-10-08T13:22:41.000Z</Time>
            <Position>
              <LatitudeDegrees>39.4742435775697231292724609375</LatitudeDegrees>
              <LongitudeDegrees>-6.4017202891409397125244140625</LongitudeDegrees>
            </Position>
            <AltitudeMeters>372.600006103515625</AltitudeMeters>
            <DistanceMeters>NAN</DistanceMeters>
          </Trackpoint>
          <Trackpoint>
            <Time>2019-10-08T13:22:43.000Z</Time>
            <Position>
              <LatitudeDegrees>39.474274255335330963134765625</LatitudeDegrees>
              <LongitudeDegrees>-6.401608474552631378173828125</LongitudeDegrees>
            </Position>
            <AltitudeMeters>373</AltitudeMeters>
            <DistanceMeters>NAN</DistanceMeters>
          </Trackpoint>
          <Trackpoint>
            <Time>2019-10-08T13:22:46.000Z</Time>
            <Position>
              <LatitudeDegrees>39.4743592478334903717041015625</LatitudeDegrees>
              <LongitudeDegrees>-6.40147377736866474151611328125</LongitudeDegrees>
            </Position>
            <AltitudeMeters>373.399993896484375</AltitudeMeters>
            <DistanceMeters>NAN</DistanceMeters>
          </Trackpoint>
          <Trackpoint>
            <Time>2019-10-08T13:22:47.000Z</Time>
            <Position>
              <LatitudeDegrees>39.47439051233232021331787109375</LatitudeDegrees>
              <LongitudeDegrees>-6.40143622644245624542236328125</LongitudeDegrees>
            </Position>
            <AltitudeMeters>373.600006103515625</AltitudeMeters>
            <DistanceMeters>NAN</DistanceMeters>
          </Trackpoint>
          <Trackpoint>
            <Time>2019-10-08T13:22:50.000Z</Time>
            <Position>
              <LatitudeDegrees>39.4744802825152873992919921875</LatitudeDegrees>
              <LongitudeDegrees>-6.4013182930648326873779296875</LongitudeDegrees>
            </Position>
            <AltitudeMeters>374.399993896484375</AltitudeMeters>
            <DistanceMeters>NAN</DistanceMeters>
          </Trackpoint>
          <Trackpoint>
            <Time>2019-10-08T13:22:51.000Z</Time>
            <Position>
              <LatitudeDegrees>39.47449947707355022430419921875</LatitudeDegrees>
              <LongitudeDegrees>-6.40127085149288177490234375</LongitudeDegrees>
            </Position>
            <AltitudeMeters>374.79998779296875</AltitudeMeters>
            <DistanceMeters>NAN</DistanceMeters>
          </Trackpoint>
          <Trackpoint>
            <Time>2019-10-08T13:22:52.000Z</Time>
            <Position>
              <LatitudeDegrees>39.47451238520443439483642578125</LatitudeDegrees>
              <LongitudeDegrees>-6.4012200571596622467041015625</LongitudeDegrees>
            </Position>
            <AltitudeMeters>374.79998779296875</AltitudeMeters>
            <DistanceMeters>NAN</DistanceMeters>
          </Trackpoint>
          <Trackpoint>
            <Time>2019-10-08T13:22:57.000Z</Time>
            <Position>
              <LatitudeDegrees>39.47452277876436710357666015625</LatitudeDegrees>
              <LongitudeDegrees>-6.40095845796167850494384765625</LongitudeDegrees>
            </Position>
            <AltitudeMeters>375.399993896484375</AltitudeMeters>
            <DistanceMeters>NAN</DistanceMeters>
          </Trackpoint>
          <Trackpoint>
            <Time>2019-10-08T13:22:59.000Z</Time>
            <Position>
              <LatitudeDegrees>39.4745208509266376495361328125</LatitudeDegrees>
              <LongitudeDegrees>-6.4008458890020847320556640625</LongitudeDegrees>
            </Position>
            <AltitudeMeters>375.79998779296875</AltitudeMeters>
            <DistanceMeters>NAN</DistanceMeters>
          </Trackpoint>
          <Trackpoint>
            <Time>2019-10-08T13:23:04.000Z</Time>
            <Position>
              <LatitudeDegrees>39.4745164923369884490966796875</LatitudeDegrees>
              <LongitudeDegrees>-6.400571130216121673583984375</LongitudeDegrees>
            </Position>
            <AltitudeMeters>376.600006103515625</AltitudeMeters>
            <DistanceMeters>NAN</DistanceMeters>
          </Trackpoint>
          <Trackpoint>
            <Time>2019-10-08T13:23:05.000Z</Time>
            <Position>
              <LatitudeDegrees>39.47451573796570301055908203125</LatitudeDegrees>
              <LongitudeDegrees>-6.4005166478455066680908203125</LongitudeDegrees>
            </Position>
            <AltitudeMeters>376.79998779296875</AltitudeMeters>
            <DistanceMeters>NAN</DistanceMeters>
          </Trackpoint>
          <Trackpoint>
            <Time>2019-10-08T13:23:08.000Z</Time>
            <Position>
              <LatitudeDegrees>39.47452462278306484222412109375</LatitudeDegrees>
              <LongitudeDegrees>-6.4003540389239788055419921875</LongitudeDegrees>
            </Position>
            <AltitudeMeters>377.399993896484375</AltitudeMeters>
            <DistanceMeters>NAN</DistanceMeters>
          </Trackpoint>
          <Trackpoint>
            <Time>2019-10-08T13:23:10.000Z</Time>
            <Position>
              <LatitudeDegrees>39.47454750537872314453125</LatitudeDegrees>
              <LongitudeDegrees>-6.400244235992431640625</LongitudeDegrees>
            </Position>
            <AltitudeMeters>377.600006103515625</AltitudeMeters>
            <DistanceMeters>NAN</DistanceMeters>
          </Trackpoint>
          <Trackpoint>
            <Time>2019-10-08T13:23:12.000Z</Time>
            <Position>
              <LatitudeDegrees>39.4745620898902416229248046875</LatitudeDegrees>
              <LongitudeDegrees>-6.40012630261480808258056640625</LongitudeDegrees>
            </Position>
            <AltitudeMeters>378.20001220703125</AltitudeMeters>
            <DistanceMeters>NAN</DistanceMeters>
          </Trackpoint>
          <Trackpoint>
            <Time>2019-10-08T13:23:16.000Z</Time>
            <Position>
              <LatitudeDegrees>39.474561251699924468994140625</LatitudeDegrees>
              <LongitudeDegrees>-6.39989580027759075164794921875</LongitudeDegrees>
            </Position>
            <AltitudeMeters>379.20001220703125</AltitudeMeters>
            <DistanceMeters>NAN</DistanceMeters>
          </Trackpoint>
          <Trackpoint>
            <Time>2019-10-08T13:23:17.000Z</Time>
            <Position>
              <LatitudeDegrees>39.47456049732863903045654296875</LatitudeDegrees>
              <LongitudeDegrees>-6.3998383842408657073974609375</LongitudeDegrees>
            </Position>
            <AltitudeMeters>379.600006103515625</AltitudeMeters>
            <DistanceMeters>NAN</DistanceMeters>
          </Trackpoint>
          <Trackpoint>
            <Time>2019-10-08T13:23:24.000Z</Time>
            <Position>
              <LatitudeDegrees>39.47455882094800472259521484375</LatitudeDegrees>
              <LongitudeDegrees>-6.3994497992098331451416015625</LongitudeDegrees>
            </Position>
            <AltitudeMeters>380.79998779296875</AltitudeMeters>
            <DistanceMeters>NAN</DistanceMeters>
          </Trackpoint>
          <Trackpoint>
            <Time>2019-10-08T13:23:27.000Z</Time>
            <Position>
              <LatitudeDegrees>39.47455932386219501495361328125</LatitudeDegrees>
              <LongitudeDegrees>-6.3992855139076709747314453125</LongitudeDegrees>
            </Position>
            <AltitudeMeters>381.600006103515625</AltitudeMeters>
            <DistanceMeters>NAN</DistanceMeters>
          </Trackpoint>
          <Trackpoint>
            <Time>2019-10-08T13:23:29.000Z</Time>
            <Position>
              <LatitudeDegrees>39.47456250898540019989013671875</LatitudeDegrees>
              <LongitudeDegrees>-6.3991772197186946868896484375</LongitudeDegrees>
            </Position>
            <AltitudeMeters>381.79998779296875</AltitudeMeters>
            <DistanceMeters>NAN</DistanceMeters>
          </Trackpoint>
          <Trackpoint>
            <Time>2019-10-08T13:23:31.000Z</Time>
            <Position>
              <LatitudeDegrees>39.4745513610541820526123046875</LatitudeDegrees>
              <LongitudeDegrees>-6.39907906763255596160888671875</LongitudeDegrees>
            </Position>
            <AltitudeMeters>382</AltitudeMeters>
            <DistanceMeters>NAN</DistanceMeters>
          </Trackpoint>
          <Trackpoint>
            <Time>2019-10-08T13:23:32.000Z</Time>
            <Position>
              <LatitudeDegrees>39.47454641573131084442138671875</LatitudeDegrees>
              <LongitudeDegrees>-6.399029530584812164306640625</LongitudeDegrees>
            </Position>
            <AltitudeMeters>382.399993896484375</AltitudeMeters>
            <DistanceMeters>NAN</DistanceMeters>
          </Trackpoint>
          <Trackpoint>
            <Time>2019-10-08T13:23:35.000Z</Time>
            <Position>
              <LatitudeDegrees>39.47454155422747135162353515625</LatitudeDegrees>
              <LongitudeDegrees>-6.398878656327724456787109375</LongitudeDegrees>
            </Position>
            <AltitudeMeters>382.79998779296875</AltitudeMeters>
            <DistanceMeters>NAN</DistanceMeters>
          </Trackpoint>
          <Trackpoint>
            <Time>2019-10-08T13:23:39.000Z</Time>
            <Position>
              <LatitudeDegrees>39.4745314121246337890625</LatitudeDegrees>
              <LongitudeDegrees>-6.39867925085127353668212890625</LongitudeDegrees>
            </Position>
            <AltitudeMeters>383.79998779296875</AltitudeMeters>
            <DistanceMeters>NAN</DistanceMeters>
          </Trackpoint>
          <Trackpoint>
            <Time>2019-10-08T13:23:40.000Z</Time>
            <Position>
              <LatitudeDegrees>39.47452965192496776580810546875</LatitudeDegrees>
              <LongitudeDegrees>-6.39862962998449802398681640625</LongitudeDegrees>
            </Position>
            <AltitudeMeters>383.79998779296875</AltitudeMeters>
            <DistanceMeters>NAN</DistanceMeters>
          </Trackpoint>
          <Trackpoint>
            <Time>2019-10-08T13:23:45.000Z</Time>
            <Position>
              <LatitudeDegrees>39.47451171465218067169189453125</LatitudeDegrees>
              <LongitudeDegrees>-6.39838404022157192230224609375</LongitudeDegrees>
            </Position>
            <AltitudeMeters>385</AltitudeMeters>
            <DistanceMeters>NAN</DistanceMeters>
          </Trackpoint>
          <Trackpoint>
            <Time>2019-10-08T13:23:48.000Z</Time>
            <Position>
              <LatitudeDegrees>39.4744883291423320770263671875</LatitudeDegrees>
              <LongitudeDegrees>-6.39823048375546932220458984375</LongitudeDegrees>
            </Position>
            <AltitudeMeters>385.399993896484375</AltitudeMeters>
            <DistanceMeters>NAN</DistanceMeters>
          </Trackpoint>
          <Trackpoint>
            <Time>2019-10-08T13:23:52.000Z</Time>
            <Position>
              <LatitudeDegrees>39.47444767691195011138916015625</LatitudeDegrees>
              <LongitudeDegrees>-6.3980188407003879547119140625</LongitudeDegrees>
            </Position>
            <AltitudeMeters>386</AltitudeMeters>
            <DistanceMeters>NAN</DistanceMeters>
          </Trackpoint>
          <Trackpoint>
            <Time>2019-10-08T13:23:57.000Z</Time>
            <Position>
              <LatitudeDegrees>39.4743825495243072509765625</LatitudeDegrees>
              <LongitudeDegrees>-6.3977576605975627899169921875</LongitudeDegrees>
            </Position>
            <AltitudeMeters>387</AltitudeMeters>
            <DistanceMeters>NAN</DistanceMeters>
          </Trackpoint>
          <Trackpoint>
            <Time>2019-10-08T13:23:59.000Z</Time>
            <Position>
              <LatitudeDegrees>39.47435547597706317901611328125</LatitudeDegrees>
              <LongitudeDegrees>-6.39765732921659946441650390625</LongitudeDegrees>
            </Position>
            <AltitudeMeters>387</AltitudeMeters>
            <DistanceMeters>NAN</DistanceMeters>
          </Trackpoint>
          <Trackpoint>
            <Time>2019-10-08T13:24:05.000Z</Time>
            <Position>
              <LatitudeDegrees>39.474260844290256500244140625</LatitudeDegrees>
              <LongitudeDegrees>-6.397362537682056427001953125</LongitudeDegrees>
            </Position>
            <AltitudeMeters>387.79998779296875</AltitudeMeters>
            <DistanceMeters>NAN</DistanceMeters>
          </Trackpoint>
          <Trackpoint>
            <Time>2019-10-08T13:24:09.000Z</Time>
            <Position>
              <LatitudeDegrees>39.474190436303615570068359375</LatitudeDegrees>
              <LongitudeDegrees>-6.3971637189388275146484375</LongitudeDegrees>
            </Position>
            <AltitudeMeters>388</AltitudeMeters>
            <DistanceMeters>NAN</DistanceMeters>
          </Trackpoint>
          <Trackpoint>
            <Time>2019-10-08T13:24:16.000Z</Time>
            <Position>
              <LatitudeDegrees>39.47406998835504055023193359375</LatitudeDegrees>
              <LongitudeDegrees>-6.3968098349869251251220703125</LongitudeDegrees>
            </Position>
            <AltitudeMeters>388.399993896484375</AltitudeMeters>
            <DistanceMeters>NAN</DistanceMeters>
          </Trackpoint>
          <Trackpoint>
            <Time>2019-10-08T13:24:24.000Z</Time>
            <Position>
              <LatitudeDegrees>39.47391592897474765777587890625</LatitudeDegrees>
              <LongitudeDegrees>-6.3963910751044750213623046875</LongitudeDegrees>
            </Position>
            <AltitudeMeters>388.399993896484375</AltitudeMeters>
            <DistanceMeters>NAN</DistanceMeters>
          </Trackpoint>
          <Trackpoint>
            <Time>2019-10-08T13:24:26.000Z</Time>
            <Position>
              <LatitudeDegrees>39.473877958953380584716796875</LatitudeDegrees>
              <LongitudeDegrees>-6.39628387056291103363037109375</LongitudeDegrees>
            </Position>
            <AltitudeMeters>388.399993896484375</AltitudeMeters>
            <DistanceMeters>NAN</DistanceMeters>
          </Trackpoint>
          <Trackpoint>
            <Time>2019-10-08T13:24:31.000Z</Time>
            <Position>
              <LatitudeDegrees>39.473778717219829559326171875</LatitudeDegrees>
              <LongitudeDegrees>-6.39600508846342563629150390625</LongitudeDegrees>
            </Position>
            <AltitudeMeters>388.20001220703125</AltitudeMeters>
            <DistanceMeters>NAN</DistanceMeters>
          </Trackpoint>
          <Trackpoint>
            <Time>2019-10-08T13:24:33.000Z</Time>
            <Position>
              <LatitudeDegrees>39.473739825189113616943359375</LatitudeDegrees>
              <LongitudeDegrees>-6.39588908292353153228759765625</LongitudeDegrees>
            </Position>
            <AltitudeMeters>388.20001220703125</AltitudeMeters>
            <DistanceMeters>NAN</DistanceMeters>
          </Trackpoint>
          <Trackpoint>
            <Time>2019-10-08T13:24:38.000Z</Time>
            <Position>
              <LatitudeDegrees>39.47364720515906810760498046875</LatitudeDegrees>
              <LongitudeDegrees>-6.39560594223439693450927734375</LongitudeDegrees>
            </Position>
            <AltitudeMeters>388</AltitudeMeters>
            <DistanceMeters>NAN</DistanceMeters>
          </Trackpoint>
          <Trackpoint>
            <Time>2019-10-08T13:24:40.000Z</Time>
            <Position>
              <LatitudeDegrees>39.47361200116574764251708984375</LatitudeDegrees>
              <LongitudeDegrees>-6.3955005817115306854248046875</LongitudeDegrees>
            </Position>
            <AltitudeMeters>388.399993896484375</AltitudeMeters>
            <DistanceMeters>NAN</DistanceMeters>
          </Trackpoint>
          <Trackpoint>
            <Time>2019-10-08T13:24:46.000Z</Time>
            <Position>
              <LatitudeDegrees>39.473498761653900146484375</LatitudeDegrees>
              <LongitudeDegrees>-6.3951693288981914520263671875</LongitudeDegrees>
            </Position>
            <AltitudeMeters>388.79998779296875</AltitudeMeters>
            <DistanceMeters>NAN</DistanceMeters>
          </Trackpoint>
          <Trackpoint>
            <Time>2019-10-08T13:24:47.000Z</Time>
            <Position>
              <LatitudeDegrees>39.47347990237176418304443359375</LatitudeDegrees>
              <LongitudeDegrees>-6.39511073939502239227294921875</LongitudeDegrees>
            </Position>
            <AltitudeMeters>388.79998779296875</AltitudeMeters>
            <DistanceMeters>NAN</DistanceMeters>
          </Trackpoint>
          <Trackpoint>
            <Time>2019-10-08T13:24:52.000Z</Time>
            <Position>
              <LatitudeDegrees>39.47337915189564228057861328125</LatitudeDegrees>
              <LongitudeDegrees>-6.39481569640338420867919921875</LongitudeDegrees>
            </Position>
            <AltitudeMeters>388</AltitudeMeters>
            <DistanceMeters>NAN</DistanceMeters>
          </Trackpoint>
          <Trackpoint>
            <Time>2019-10-08T13:24:54.000Z</Time>
            <Position>
              <LatitudeDegrees>39.47334025986492633819580078125</LatitudeDegrees>
              <LongitudeDegrees>-6.394696421921253204345703125</LongitudeDegrees>
            </Position>
            <AltitudeMeters>388.20001220703125</AltitudeMeters>
            <DistanceMeters>NAN</DistanceMeters>
          </Trackpoint>
          <Trackpoint>
            <Time>2019-10-08T13:24:56.000Z</Time>
            <Position>
              <LatitudeDegrees>39.473301954567432403564453125</LatitudeDegrees>
              <LongitudeDegrees>-6.39457681216299533843994140625</LongitudeDegrees>
            </Position>
            <AltitudeMeters>388</AltitudeMeters>
            <DistanceMeters>NAN</DistanceMeters>
          </Trackpoint>
          <Trackpoint>
            <Time>2019-10-08T13:24:58.000Z</Time>
            <Position>
              <LatitudeDegrees>39.47326381690800189971923828125</LatitudeDegrees>
              <LongitudeDegrees>-6.3944582082331180572509765625</LongitudeDegrees>
            </Position>
            <AltitudeMeters>388.20001220703125</AltitudeMeters>
            <DistanceMeters>NAN</DistanceMeters>
          </Trackpoint>
          <Trackpoint>
            <Time>2019-10-08T13:25:07.000Z</Time>
            <Position>
              <LatitudeDegrees>39.47307975031435489654541015625</LatitudeDegrees>
              <LongitudeDegrees>-6.393907181918621063232421875</LongitudeDegrees>
            </Position>
            <AltitudeMeters>387.600006103515625</AltitudeMeters>
            <DistanceMeters>NAN</DistanceMeters>
          </Trackpoint>
          <Trackpoint>
            <Time>2019-10-08T13:25:15.000Z</Time>
            <Position>
              <LatitudeDegrees>39.47291596792638301849365234375</LatitudeDegrees>
              <LongitudeDegrees>-6.3934144936501979827880859375</LongitudeDegrees>
            </Position>
            <AltitudeMeters>387.79998779296875</AltitudeMeters>
            <DistanceMeters>NAN</DistanceMeters>
          </Trackpoint>
          <Trackpoint>
            <Time>2019-10-08T13:25:17.000Z</Time>
            <Position>
              <LatitudeDegrees>39.4728746451437473297119140625</LatitudeDegrees>
              <LongitudeDegrees>-6.39330209232866764068603515625</LongitudeDegrees>
            </Position>
            <AltitudeMeters>387.600006103515625</AltitudeMeters>
            <DistanceMeters>NAN</DistanceMeters>
          </Trackpoint>
          <Trackpoint>
            <Time>2019-10-08T13:25:20.000Z</Time>
            <Position>
              <LatitudeDegrees>39.472774565219879150390625</LatitudeDegrees>
              <LongitudeDegrees>-6.3931751064956188201904296875</LongitudeDegrees>
            </Position>
            <AltitudeMeters>387.399993896484375</AltitudeMeters>
            <DistanceMeters>NAN</DistanceMeters>
          </Trackpoint>
          <Trackpoint>
            <Time>2019-10-08T13:25:21.000Z</Time>
            <Position>
              <LatitudeDegrees>39.472731985151767730712890625</LatitudeDegrees>
              <LongitudeDegrees>-6.39314166270196437835693359375</LongitudeDegrees>
            </Position>
            <AltitudeMeters>387.399993896484375</AltitudeMeters>
            <DistanceMeters>NAN</DistanceMeters>
          </Trackpoint>
          <Trackpoint>
            <Time>2019-10-08T13:25:22.000Z</Time>
            <Position>
              <LatitudeDegrees>39.472681023180484771728515625</LatitudeDegrees>
              <LongitudeDegrees>-6.39311693608760833740234375</LongitudeDegrees>
            </Position>
            <AltitudeMeters>387.20001220703125</AltitudeMeters>
            <DistanceMeters>NAN</DistanceMeters>
          </Trackpoint>
          <Trackpoint>
            <Time>2019-10-08T13:25:23.000Z</Time>
            <Position>
              <LatitudeDegrees>39.4726322405040264129638671875</LatitudeDegrees>
              <LongitudeDegrees>-6.39308952726423740386962890625</LongitudeDegrees>
            </Position>
            <AltitudeMeters>387</AltitudeMeters>
            <DistanceMeters>NAN</DistanceMeters>
          </Trackpoint>
          <Trackpoint>
            <Time>2019-10-08T13:25:24.000Z</Time>
            <Position>
              <LatitudeDegrees>39.47258672676980495452880859375</LatitudeDegrees>
              <LongitudeDegrees>-6.39305390417575836181640625</LongitudeDegrees>
            </Position>
            <AltitudeMeters>387</AltitudeMeters>
            <DistanceMeters>NAN</DistanceMeters>
          </Trackpoint>
          <Trackpoint>
            <Time>2019-10-08T13:25:27.000Z</Time>
            <Position>
              <LatitudeDegrees>39.4725055061280727386474609375</LatitudeDegrees>
              <LongitudeDegrees>-6.39288802631199359893798828125</LongitudeDegrees>
            </Position>
            <AltitudeMeters>387.600006103515625</AltitudeMeters>
            <DistanceMeters>NAN</DistanceMeters>
          </Trackpoint>
          <Trackpoint>
            <Time>2019-10-08T13:25:30.000Z</Time>
            <Position>
              <LatitudeDegrees>39.47250860743224620819091796875</LatitudeDegrees>
              <LongitudeDegrees>-6.39269021339714527130126953125</LongitudeDegrees>
            </Position>
            <AltitudeMeters>387.600006103515625</AltitudeMeters>
            <DistanceMeters>NAN</DistanceMeters>
          </Trackpoint>
          <Trackpoint>
            <Time>2019-10-08T13:25:32.000Z</Time>
            <Position>
              <LatitudeDegrees>39.47253920137882232666015625</LatitudeDegrees>
              <LongitudeDegrees>-6.392563395202159881591796875</LongitudeDegrees>
            </Position>
            <AltitudeMeters>387.600006103515625</AltitudeMeters>
            <DistanceMeters>NAN</DistanceMeters>
          </Trackpoint>
          <Trackpoint>
            <Time>2019-10-08T13:25:33.000Z</Time>
            <Position>
              <LatitudeDegrees>39.47254615835845470428466796875</LatitudeDegrees>
              <LongitudeDegrees>-6.392497681081295013427734375</LongitudeDegrees>
            </Position>
            <AltitudeMeters>387.600006103515625</AltitudeMeters>
            <DistanceMeters>NAN</DistanceMeters>
          </Trackpoint>
          <Trackpoint>
            <Time>2019-10-08T13:25:35.000Z</Time>
            <Position>
              <LatitudeDegrees>39.47253727354109287261962890625</LatitudeDegrees>
              <LongitudeDegrees>-6.3923625648021697998046875</LongitudeDegrees>
            </Position>
            <AltitudeMeters>387.399993896484375</AltitudeMeters>
            <DistanceMeters>NAN</DistanceMeters>
          </Trackpoint>
          <Trackpoint>
            <Time>2019-10-08T13:25:37.000Z</Time>
            <Position>
              <LatitudeDegrees>39.4725061766803264617919921875</LatitudeDegrees>
              <LongitudeDegrees>-6.39223314821720123291015625</LongitudeDegrees>
            </Position>
            <AltitudeMeters>387.399993896484375</AltitudeMeters>
            <DistanceMeters>NAN</DistanceMeters>
          </Trackpoint>
          <Trackpoint>
            <Time>2019-10-08T13:25:40.000Z</Time>
            <Position>
              <LatitudeDegrees>39.47244356386363506317138671875</LatitudeDegrees>
              <LongitudeDegrees>-6.39204564504325389862060546875</LongitudeDegrees>
            </Position>
            <AltitudeMeters>387.399993896484375</AltitudeMeters>
            <DistanceMeters>NAN</DistanceMeters>
          </Trackpoint>
          <Trackpoint>
            <Time>2019-10-08T13:25:49.000Z</Time>
            <Position>
              <LatitudeDegrees>39.47224625386297702789306640625</LatitudeDegrees>
              <LongitudeDegrees>-6.3914802856743335723876953125</LongitudeDegrees>
            </Position>
            <AltitudeMeters>387.79998779296875</AltitudeMeters>
            <DistanceMeters>NAN</DistanceMeters>
          </Trackpoint>
          <Trackpoint>
            <Time>2019-10-08T13:25:56.000Z</Time>
            <Position>
              <LatitudeDegrees>39.4720904342830181121826171875</LatitudeDegrees>
              <LongitudeDegrees>-6.39104819856584072113037109375</LongitudeDegrees>
            </Position>
            <AltitudeMeters>387.600006103515625</AltitudeMeters>
            <DistanceMeters>NAN</DistanceMeters>
          </Trackpoint>
          <Trackpoint>
            <Time>2019-10-08T13:26:03.000Z</Time>
            <Position>
              <LatitudeDegrees>39.47194467298686504364013671875</LatitudeDegrees>
              <LongitudeDegrees>-6.39062608592212200164794921875</LongitudeDegrees>
            </Position>
            <AltitudeMeters>388</AltitudeMeters>
            <DistanceMeters>NAN</DistanceMeters>
          </Trackpoint>
          <Trackpoint>
            <Time>2019-10-08T13:26:07.000Z</Time>
            <Position>
              <LatitudeDegrees>39.47185699827969074249267578125</LatitudeDegrees>
              <LongitudeDegrees>-6.390382759273052215576171875</LongitudeDegrees>
            </Position>
            <AltitudeMeters>388</AltitudeMeters>
            <DistanceMeters>NAN</DistanceMeters>
          </Trackpoint>
          <Trackpoint>
            <Time>2019-10-08T13:26:08.000Z</Time>
            <Position>
              <LatitudeDegrees>39.471835456788539886474609375</LatitudeDegrees>
              <LongitudeDegrees>-6.39032081700861454010009765625</LongitudeDegrees>
            </Position>
            <AltitudeMeters>388</AltitudeMeters>
            <DistanceMeters>NAN</DistanceMeters>
          </Trackpoint>
          <Trackpoint>
            <Time>2019-10-08T13:26:15.000Z</Time>
            <Position>
              <LatitudeDegrees>39.47167695499956607818603515625</LatitudeDegrees>
              <LongitudeDegrees>-6.3899021409451961517333984375</LongitudeDegrees>
            </Position>
            <AltitudeMeters>387.600006103515625</AltitudeMeters>
            <DistanceMeters>NAN</DistanceMeters>
          </Trackpoint>
          <Trackpoint>
            <Time>2019-10-08T13:26:25.000Z</Time>
            <Position>
              <LatitudeDegrees>39.47145584039390087127685546875</LatitudeDegrees>
              <LongitudeDegrees>-6.3892698101699352264404296875</LongitudeDegrees>
            </Position>
            <AltitudeMeters>387.600006103515625</AltitudeMeters>
            <DistanceMeters>NAN</DistanceMeters>
          </Trackpoint>
          <Trackpoint>
            <Time>2019-10-08T13:26:26.000Z</Time>
            <Position>
              <LatitudeDegrees>39.4714306108653545379638671875</LatitudeDegrees>
              <LongitudeDegrees>-6.38920719735324382781982421875</LongitudeDegrees>
            </Position>
            <AltitudeMeters>386.79998779296875</AltitudeMeters>
            <DistanceMeters>NAN</DistanceMeters>
          </Trackpoint>
          <Trackpoint>
            <Time>2019-10-08T13:26:27.000Z</Time>
            <Position>
              <LatitudeDegrees>39.47139926254749298095703125</LatitudeDegrees>
              <LongitudeDegrees>-6.3891474343836307525634765625</LongitudeDegrees>
            </Position>
            <AltitudeMeters>387</AltitudeMeters>
            <DistanceMeters>NAN</DistanceMeters>
          </Trackpoint>
          <Trackpoint>
            <Time>2019-10-08T13:26:30.000Z</Time>
            <Position>
              <LatitudeDegrees>39.47126448154449462890625</LatitudeDegrees>
              <LongitudeDegrees>-6.38902648352086544036865234375</LongitudeDegrees>
            </Position>
            <AltitudeMeters>387.399993896484375</AltitudeMeters>
            <DistanceMeters>NAN</DistanceMeters>
          </Trackpoint>
          <Trackpoint>
            <Time>2019-10-08T13:26:31.000Z</Time>
            <Position>
              <LatitudeDegrees>39.47121427394449710845947265625</LatitudeDegrees>
              <LongitudeDegrees>-6.3889982365071773529052734375</LongitudeDegrees>
            </Position>
            <AltitudeMeters>387.399993896484375</AltitudeMeters>
            <DistanceMeters>NAN</DistanceMeters>
          </Trackpoint>
          <Trackpoint>
            <Time>2019-10-08T13:26:33.000Z</Time>
            <Position>
              <LatitudeDegrees>39.47111628949642181396484375</LatitudeDegrees>
              <LongitudeDegrees>-6.38892238028347492218017578125</LongitudeDegrees>
            </Position>
            <AltitudeMeters>387.20001220703125</AltitudeMeters>
            <DistanceMeters>NAN</DistanceMeters>
          </Trackpoint>
          <Trackpoint>
            <Time>2019-10-08T13:26:35.000Z</Time>
            <Position>
              <LatitudeDegrees>39.4710497371852397918701171875</LatitudeDegrees>
              <LongitudeDegrees>-6.3888128288090229034423828125</LongitudeDegrees>
            </Position>
            <AltitudeMeters>387</AltitudeMeters>
            <DistanceMeters>NAN</DistanceMeters>
          </Trackpoint>
          <Trackpoint>
            <Time>2019-10-08T13:26:38.000Z</Time>
            <Position>
              <LatitudeDegrees>39.471021406352519989013671875</LatitudeDegrees>
              <LongitudeDegrees>-6.3886012695729732513427734375</LongitudeDegrees>
            </Position>
            <AltitudeMeters>387.399993896484375</AltitudeMeters>
            <DistanceMeters>NAN</DistanceMeters>
          </Trackpoint>
          <Trackpoint>
            <Time>2019-10-08T13:26:41.000Z</Time>
            <Position>
              <LatitudeDegrees>39.471058286726474761962890625</LatitudeDegrees>
              <LongitudeDegrees>-6.3883923925459384918212890625</LongitudeDegrees>
            </Position>
            <AltitudeMeters>387.20001220703125</AltitudeMeters>
            <DistanceMeters>NAN</DistanceMeters>
          </Trackpoint>
          <Trackpoint>
            <Time>2019-10-08T13:26:42.000Z</Time>
            <Position>
              <LatitudeDegrees>39.47107194922864437103271484375</LatitudeDegrees>
              <LongitudeDegrees>-6.38832408003509044647216796875</LongitudeDegrees>
            </Position>
            <AltitudeMeters>387.399993896484375</AltitudeMeters>
            <DistanceMeters>NAN</DistanceMeters>
          </Trackpoint>
          <Trackpoint>
            <Time>2019-10-08T13:26:43.000Z</Time>
            <Position>
              <LatitudeDegrees>39.47108083404600620269775390625</LatitudeDegrees>
              <LongitudeDegrees>-6.38825476169586181640625</LongitudeDegrees>
            </Position>
            <AltitudeMeters>387.399993896484375</AltitudeMeters>
            <DistanceMeters>NAN</DistanceMeters>
          </Trackpoint>
          <Trackpoint>
            <Time>2019-10-08T13:26:46.000Z</Time>
            <Position>
              <LatitudeDegrees>39.4710431993007659912109375</LatitudeDegrees>
              <LongitudeDegrees>-6.388053596019744873046875</LongitudeDegrees>
            </Position>
            <AltitudeMeters>387.79998779296875</AltitudeMeters>
            <DistanceMeters>NAN</DistanceMeters>
          </Trackpoint>
          <Trackpoint>
            <Time>2019-10-08T13:26:49.000Z</Time>
            <Position>
              <LatitudeDegrees>39.470984525978565216064453125</LatitudeDegrees>
              <LongitudeDegrees>-6.3878626562654972076416015625</LongitudeDegrees>
            </Position>
            <AltitudeMeters>387.79998779296875</AltitudeMeters>
            <DistanceMeters>NAN</DistanceMeters>
          </Trackpoint>
          <Trackpoint>
            <Time>2019-10-08T13:26:50.000Z</Time>
            <Position>
              <LatitudeDegrees>39.47096616961061954498291015625</LatitudeDegrees>
              <LongitudeDegrees>-6.3877966068685054779052734375</LongitudeDegrees>
            </Position>
            <AltitudeMeters>388</AltitudeMeters>
            <DistanceMeters>NAN</DistanceMeters>
          </Trackpoint>
          <Trackpoint>
            <Time>2019-10-08T13:26:51.000Z</Time>
            <Position>
              <LatitudeDegrees>39.47094328701496124267578125</LatitudeDegrees>
              <LongitudeDegrees>-6.3877355866134166717529296875</LongitudeDegrees>
            </Position>
            <AltitudeMeters>388</AltitudeMeters>
            <DistanceMeters>NAN</DistanceMeters>
          </Trackpoint>
          <Trackpoint>
            <Time>2019-10-08T13:26:55.000Z</Time>
            <Position>
              <LatitudeDegrees>39.470858462154865264892578125</LatitudeDegrees>
              <LongitudeDegrees>-6.3874894939363002777099609375</LongitudeDegrees>
            </Position>
            <AltitudeMeters>388.20001220703125</AltitudeMeters>
            <DistanceMeters>NAN</DistanceMeters>
          </Trackpoint>
          <Trackpoint>
            <Time>2019-10-08T13:26:57.000Z</Time>
            <Position>
              <LatitudeDegrees>39.47081596590578556060791015625</LatitudeDegrees>
              <LongitudeDegrees>-6.38736921362578868865966796875</LongitudeDegrees>
            </Position>
            <AltitudeMeters>388</AltitudeMeters>
            <DistanceMeters>NAN</DistanceMeters>
          </Trackpoint>
          <Trackpoint>
            <Time>2019-10-08T13:26:58.000Z</Time>
            <Position>
              <LatitudeDegrees>39.4707962684333324432373046875</LatitudeDegrees>
              <LongitudeDegrees>-6.3873054273426532745361328125</LongitudeDegrees>
            </Position>
            <AltitudeMeters>387.79998779296875</AltitudeMeters>
            <DistanceMeters>NAN</DistanceMeters>
          </Trackpoint>
          <Trackpoint>
            <Time>2019-10-08T13:27:06.000Z</Time>
            <Position>
              <LatitudeDegrees>39.47060625068843364715576171875</LatitudeDegrees>
              <LongitudeDegrees>-6.3867817260324954986572265625</LongitudeDegrees>
            </Position>
            <AltitudeMeters>387.600006103515625</AltitudeMeters>
            <DistanceMeters>NAN</DistanceMeters>
          </Trackpoint>
          <Trackpoint>
            <Time>2019-10-08T13:27:14.000Z</Time>
            <Position>
              <LatitudeDegrees>39.4704090245068073272705078125</LatitudeDegrees>
              <LongitudeDegrees>-6.38623681850731372833251953125</LongitudeDegrees>
            </Position>
            <AltitudeMeters>386.79998779296875</AltitudeMeters>
            <DistanceMeters>NAN</DistanceMeters>
          </Trackpoint>
          <Trackpoint>
            <Time>2019-10-08T13:27:15.000Z</Time>
            <Position>
              <LatitudeDegrees>39.47038312442600727081298828125</LatitudeDegrees>
              <LongitudeDegrees>-6.3861675001680850982666015625</LongitudeDegrees>
            </Position>
            <AltitudeMeters>386.600006103515625</AltitudeMeters>
            <DistanceMeters>NAN</DistanceMeters>
          </Trackpoint>
          <Trackpoint>
            <Time>2019-10-08T13:27:18.000Z</Time>
            <Position>
              <LatitudeDegrees>39.47030684910714626312255859375</LatitudeDegrees>
              <LongitudeDegrees>-6.38596172444522380828857421875</LongitudeDegrees>
            </Position>
            <AltitudeMeters>386.20001220703125</AltitudeMeters>
            <DistanceMeters>NAN</DistanceMeters>
          </Trackpoint>
          <Trackpoint>
            <Time>2019-10-08T13:27:20.000Z</Time>
            <Position>
              <LatitudeDegrees>39.47025622241199016571044921875</LatitudeDegrees>
              <LongitudeDegrees>-6.38582644052803516387939453125</LongitudeDegrees>
            </Position>
            <AltitudeMeters>386</AltitudeMeters>
            <DistanceMeters>NAN</DistanceMeters>
          </Trackpoint>
          <Trackpoint>
            <Time>2019-10-08T13:27:24.000Z</Time>
            <Position>
              <LatitudeDegrees>39.47015798650681972503662109375</LatitudeDegrees>
              <LongitudeDegrees>-6.38555989600718021392822265625</LongitudeDegrees>
            </Position>
            <AltitudeMeters>386</AltitudeMeters>
            <DistanceMeters>NAN</DistanceMeters>
          </Trackpoint>
          <Trackpoint>
            <Time>2019-10-08T13:27:28.000Z</Time>
            <Position>
              <LatitudeDegrees>39.47006595320999622344970703125</LatitudeDegrees>
              <LongitudeDegrees>-6.3852994702756404876708984375</LongitudeDegrees>
            </Position>
            <AltitudeMeters>385.399993896484375</AltitudeMeters>
            <DistanceMeters>NAN</DistanceMeters>
          </Trackpoint>
          <Trackpoint>
            <Time>2019-10-08T13:27:31.000Z</Time>
            <Position>
              <LatitudeDegrees>39.47000124491751194000244140625</LatitudeDegrees>
              <LongitudeDegrees>-6.3850999809801578521728515625</LongitudeDegrees>
            </Position>
            <AltitudeMeters>385.20001220703125</AltitudeMeters>
            <DistanceMeters>NAN</DistanceMeters>
          </Trackpoint>
          <Trackpoint>
            <Time>2019-10-08T13:27:36.000Z</Time>
            <Position>
              <LatitudeDegrees>39.46987719275057315826416015625</LatitudeDegrees>
              <LongitudeDegrees>-6.38474534265697002410888671875</LongitudeDegrees>
            </Position>
            <AltitudeMeters>384.600006103515625</AltitudeMeters>
            <DistanceMeters>NAN</DistanceMeters>
          </Trackpoint>
          <Trackpoint>
            <Time>2019-10-08T13:27:37.000Z</Time>
            <Position>
              <LatitudeDegrees>39.46985187940299510955810546875</LatitudeDegrees>
              <LongitudeDegrees>-6.38467275537550449371337890625</LongitudeDegrees>
            </Position>
            <AltitudeMeters>384.399993896484375</AltitudeMeters>
            <DistanceMeters>NAN</DistanceMeters>
          </Trackpoint>
          <Trackpoint>
            <Time>2019-10-08T13:27:38.000Z</Time>
            <Position>
              <LatitudeDegrees>39.46982556022703647613525390625</LatitudeDegrees>
              <LongitudeDegrees>-6.38460184447467327117919921875</LongitudeDegrees>
            </Position>
            <AltitudeMeters>384</AltitudeMeters>
            <DistanceMeters>NAN</DistanceMeters>
          </Trackpoint>
          <Trackpoint>
            <Time>2019-10-08T13:27:39.000Z</Time>
            <Position>
              <LatitudeDegrees>39.4698008336126804351806640625</LatitudeDegrees>
              <LongitudeDegrees>-6.3845293410122394561767578125</LongitudeDegrees>
            </Position>
            <AltitudeMeters>383.79998779296875</AltitudeMeters>
            <DistanceMeters>NAN</DistanceMeters>
          </Trackpoint>
          <Trackpoint>
            <Time>2019-10-08T13:27:43.000Z</Time>
            <Position>
              <LatitudeDegrees>39.46970771066844463348388671875</LatitudeDegrees>
              <LongitudeDegrees>-6.38424309901893138885498046875</LongitudeDegrees>
            </Position>
            <AltitudeMeters>383.600006103515625</AltitudeMeters>
            <DistanceMeters>NAN</DistanceMeters>
          </Trackpoint>
          <Trackpoint>
            <Time>2019-10-08T13:27:45.000Z</Time>
            <Position>
              <LatitudeDegrees>39.46965708397328853607177734375</LatitudeDegrees>
              <LongitudeDegrees>-6.38410245068371295928955078125</LongitudeDegrees>
            </Position>
            <AltitudeMeters>383.399993896484375</AltitudeMeters>
            <DistanceMeters>NAN</DistanceMeters>
          </Trackpoint>
          <Trackpoint>
            <Time>2019-10-08T13:27:46.000Z</Time>
            <Position>
              <LatitudeDegrees>39.46963369846343994140625</LatitudeDegrees>
              <LongitudeDegrees>-6.3840316236019134521484375</LongitudeDegrees>
            </Position>
            <AltitudeMeters>383.399993896484375</AltitudeMeters>
            <DistanceMeters>NAN</DistanceMeters>
          </Trackpoint>
          <Trackpoint>
            <Time>2019-10-08T13:27:47.000Z</Time>
            <Position>
              <LatitudeDegrees>39.46960913948714733123779296875</LatitudeDegrees>
              <LongitudeDegrees>-6.38396012596786022186279296875</LongitudeDegrees>
            </Position>
            <AltitudeMeters>383.20001220703125</AltitudeMeters>
            <DistanceMeters>NAN</DistanceMeters>
          </Trackpoint>
          <Trackpoint>
            <Time>2019-10-08T13:27:49.000Z</Time>
            <Position>
              <LatitudeDegrees>39.46955524384975433349609375</LatitudeDegrees>
              <LongitudeDegrees>-6.383815705776214599609375</LongitudeDegrees>
            </Position>
            <AltitudeMeters>383.20001220703125</AltitudeMeters>
            <DistanceMeters>NAN</DistanceMeters>
          </Trackpoint>
          <Trackpoint>
            <Time>2019-10-08T13:27:53.000Z</Time>
            <Position>
              <LatitudeDegrees>39.46947251446545124053955078125</LatitudeDegrees>
              <LongitudeDegrees>-6.38359936885535717010498046875</LongitudeDegrees>
            </Position>
            <AltitudeMeters>383.399993896484375</AltitudeMeters>
            <DistanceMeters>NAN</DistanceMeters>
          </Trackpoint>
          <Trackpoint>
            <Time>2019-10-08T13:27:55.000Z</Time>
            <Position>
              <LatitudeDegrees>39.46944334544241428375244140625</LatitudeDegrees>
              <LongitudeDegrees>-6.38352627865970134735107421875</LongitudeDegrees>
            </Position>
            <AltitudeMeters>383.399993896484375</AltitudeMeters>
            <DistanceMeters>NAN</DistanceMeters>
          </Trackpoint>
          <Trackpoint>
            <Time>2019-10-08T13:27:57.000Z</Time>
            <Position>
              <LatitudeDegrees>39.4694353826344013214111328125</LatitudeDegrees>
              <LongitudeDegrees>-6.3834790885448455810546875</LongitudeDegrees>
            </Position>
            <AltitudeMeters>383.399993896484375</AltitudeMeters>
            <DistanceMeters>NAN</DistanceMeters>
          </Trackpoint>
          <Trackpoint>
            <Time>2019-10-08T13:27:58.000Z</Time>
            <Position>
              <LatitudeDegrees>39.46942373178899288177490234375</LatitudeDegrees>
              <LongitudeDegrees>-6.3834514282643795013427734375</LongitudeDegrees>
            </Position>
            <AltitudeMeters>383.399993896484375</AltitudeMeters>
            <DistanceMeters>NAN</DistanceMeters>
          </Trackpoint>
          <Trackpoint>
            <Time>2019-10-08T13:28:00.000Z</Time>
            <Position>
              <LatitudeDegrees>39.46941887028515338897705078125</LatitudeDegrees>
              <LongitudeDegrees>-6.38344891369342803955078125</LongitudeDegrees>
            </Position>
            <AltitudeMeters>383.399993896484375</AltitudeMeters>
            <DistanceMeters>NAN</DistanceMeters>
          </Trackpoint>
          <Trackpoint>
            <Time>2019-10-08T13:28:02.000Z</Time>
            <Position>
              <LatitudeDegrees>39.46942557580769062042236328125</LatitudeDegrees>
              <LongitudeDegrees>-6.3834534399211406707763671875</LongitudeDegrees>
            </Position>
            <AltitudeMeters>383.399993896484375</AltitudeMeters>
            <DistanceMeters>NAN</DistanceMeters>
          </Trackpoint>
          <Trackpoint>
            <Time>2019-10-08T13:28:06.000Z</Time>
            <Position>
              <LatitudeDegrees>39.46942557580769062042236328125</LatitudeDegrees>
              <LongitudeDegrees>-6.3834534399211406707763671875</LongitudeDegrees>
            </Position>
            <AltitudeMeters>383.600006103515625</AltitudeMeters>
            <DistanceMeters>NAN</DistanceMeters>
          </Trackpoint>
          <Trackpoint>
            <Time>2019-10-08T13:28:08.000Z</Time>
            <Position>
              <LatitudeDegrees>39.46942557580769062042236328125</LatitudeDegrees>
              <LongitudeDegrees>-6.3834534399211406707763671875</LongitudeDegrees>
            </Position>
            <AltitudeMeters>383.399993896484375</AltitudeMeters>
            <DistanceMeters>NAN</DistanceMeters>
          </Trackpoint>
          <Trackpoint>
            <Time>2019-10-08T13:28:18.000Z</Time>
            <Position>
              <LatitudeDegrees>39.46942557580769062042236328125</LatitudeDegrees>
              <LongitudeDegrees>-6.3834534399211406707763671875</LongitudeDegrees>
            </Position>
            <AltitudeMeters>383.399993896484375</AltitudeMeters>
            <DistanceMeters>NAN</DistanceMeters>
          </Trackpoint>
          <Trackpoint>
            <Time>2019-10-08T13:28:22.000Z</Time>
            <Position>
              <LatitudeDegrees>39.46942557580769062042236328125</LatitudeDegrees>
              <LongitudeDegrees>-6.3834534399211406707763671875</LongitudeDegrees>
            </Position>
            <AltitudeMeters>383.399993896484375</AltitudeMeters>
            <DistanceMeters>NAN</DistanceMeters>
          </Trackpoint>
          <Trackpoint>
            <Time>2019-10-08T13:28:27.000Z</Time>
            <Position>
              <LatitudeDegrees>39.46942557580769062042236328125</LatitudeDegrees>
              <LongitudeDegrees>-6.3834534399211406707763671875</LongitudeDegrees>
            </Position>
            <AltitudeMeters>383.79998779296875</AltitudeMeters>
            <DistanceMeters>NAN</DistanceMeters>
          </Trackpoint>
          <Trackpoint>
            <Time>2019-10-08T13:28:29.000Z</Time>
            <Position>
              <LatitudeDegrees>39.4694244861602783203125</LatitudeDegrees>
              <LongitudeDegrees>-6.38345117680728435516357421875</LongitudeDegrees>
            </Position>
            <AltitudeMeters>383.79998779296875</AltitudeMeters>
            <DistanceMeters>NAN</DistanceMeters>
          </Trackpoint>
          <Trackpoint>
            <Time>2019-10-08T13:28:32.000Z</Time>
            <Position>
              <LatitudeDegrees>39.469410739839076995849609375</LatitudeDegrees>
              <LongitudeDegrees>-6.383404321968555450439453125</LongitudeDegrees>
            </Position>
            <AltitudeMeters>383.600006103515625</AltitudeMeters>
            <DistanceMeters>NAN</DistanceMeters>
          </Trackpoint>
          <Trackpoint>
            <Time>2019-10-08T13:28:34.000Z</Time>
            <Position>
              <LatitudeDegrees>39.46938349865376949310302734375</LatitudeDegrees>
              <LongitudeDegrees>-6.383317820727825164794921875</LongitudeDegrees>
            </Position>
            <AltitudeMeters>383.20001220703125</AltitudeMeters>
            <DistanceMeters>NAN</DistanceMeters>
          </Trackpoint>
          <Trackpoint>
            <Time>2019-10-08T13:28:36.000Z</Time>
            <Position>
              <LatitudeDegrees>39.4693575985729694366455078125</LatitudeDegrees>
              <LongitudeDegrees>-6.3832388631999492645263671875</LongitudeDegrees>
            </Position>
            <AltitudeMeters>383.20001220703125</AltitudeMeters>
            <DistanceMeters>NAN</DistanceMeters>
          </Trackpoint>
          <Trackpoint>
            <Time>2019-10-08T13:28:37.000Z</Time>
            <Position>
              <LatitudeDegrees>39.46934410370886325836181640625</LatitudeDegrees>
              <LongitudeDegrees>-6.38319552876055240631103515625</LongitudeDegrees>
            </Position>
            <AltitudeMeters>383.20001220703125</AltitudeMeters>
            <DistanceMeters>NAN</DistanceMeters>
          </Trackpoint>
          <Trackpoint>
            <Time>2019-10-08T13:28:42.000Z</Time>
            <Position>
              <LatitudeDegrees>39.4692791439592838287353515625</LatitudeDegrees>
              <LongitudeDegrees>-6.38297458179295063018798828125</LongitudeDegrees>
            </Position>
            <AltitudeMeters>382.600006103515625</AltitudeMeters>
            <DistanceMeters>NAN</DistanceMeters>
          </Trackpoint>
          <Trackpoint>
            <Time>2019-10-08T13:28:43.000Z</Time>
            <Position>
              <LatitudeDegrees>39.46926112286746501922607421875</LatitudeDegrees>
              <LongitudeDegrees>-6.38293568976223468780517578125</LongitudeDegrees>
            </Position>
            <AltitudeMeters>382.600006103515625</AltitudeMeters>
            <DistanceMeters>NAN</DistanceMeters>
          </Trackpoint>
          <Trackpoint>
            <Time>2019-10-08T13:28:47.000Z</Time>
            <Position>
              <LatitudeDegrees>39.46920177899301052093505859375</LatitudeDegrees>
              <LongitudeDegrees>-6.38277743943035602569580078125</LongitudeDegrees>
            </Position>
            <AltitudeMeters>382.20001220703125</AltitudeMeters>
            <DistanceMeters>NAN</DistanceMeters>
          </Trackpoint>
          <Trackpoint>
            <Time>2019-10-08T13:28:48.000Z</Time>
            <Position>
              <LatitudeDegrees>39.469191133975982666015625</LatitudeDegrees>
              <LongitudeDegrees>-6.38275983743369579315185546875</LongitudeDegrees>
            </Position>
            <AltitudeMeters>382.399993896484375</AltitudeMeters>
            <DistanceMeters>NAN</DistanceMeters>
          </Trackpoint>
          <Trackpoint>
            <Time>2019-10-08T13:28:52.000Z</Time>
            <Position>
              <LatitudeDegrees>39.46918149478733539581298828125</LatitudeDegrees>
              <LongitudeDegrees>-6.3827490247786045074462890625</LongitudeDegrees>
            </Position>
            <AltitudeMeters>383</AltitudeMeters>
            <DistanceMeters>NAN</DistanceMeters>
          </Trackpoint>
          <Trackpoint>
            <Time>2019-10-08T13:28:55.000Z</Time>
            <Position>
              <LatitudeDegrees>39.4691790640354156494140625</LatitudeDegrees>
              <LongitudeDegrees>-6.38275153934955596923828125</LongitudeDegrees>
            </Position>
            <AltitudeMeters>383</AltitudeMeters>
            <DistanceMeters>NAN</DistanceMeters>
          </Trackpoint>
          <Trackpoint>
            <Time>2019-10-08T13:28:59.000Z</Time>
            <Position>
              <LatitudeDegrees>39.4691882841289043426513671875</LatitudeDegrees>
              <LongitudeDegrees>-6.3827446661889553070068359375</LongitudeDegrees>
            </Position>
            <AltitudeMeters>382.600006103515625</AltitudeMeters>
            <DistanceMeters>NAN</DistanceMeters>
          </Trackpoint>
          <Trackpoint>
            <Time>2019-10-08T13:29:02.000Z</Time>
            <Position>
              <LatitudeDegrees>39.4691866077482700347900390625</LatitudeDegrees>
              <LongitudeDegrees>-6.3827255554497241973876953125</LongitudeDegrees>
            </Position>
            <AltitudeMeters>383</AltitudeMeters>
            <DistanceMeters>NAN</DistanceMeters>
          </Trackpoint>
          <Trackpoint>
            <Time>2019-10-08T13:29:04.000Z</Time>
            <Position>
              <LatitudeDegrees>39.4691762141883373260498046875</LatitudeDegrees>
              <LongitudeDegrees>-6.38270434923470020294189453125</LongitudeDegrees>
            </Position>
            <AltitudeMeters>382.600006103515625</AltitudeMeters>
            <DistanceMeters>NAN</DistanceMeters>
          </Trackpoint>
          <Trackpoint>
            <Time>2019-10-08T13:29:05.000Z</Time>
            <Position>
              <LatitudeDegrees>39.469164311885833740234375</LatitudeDegrees>
              <LongitudeDegrees>-6.3826873339712619781494140625</LongitudeDegrees>
            </Position>
            <AltitudeMeters>382.20001220703125</AltitudeMeters>
            <DistanceMeters>NAN</DistanceMeters>
          </Trackpoint>
          <Trackpoint>
            <Time>2019-10-08T13:29:06.000Z</Time>
            <Position>
              <LatitudeDegrees>39.46916473098099231719970703125</LatitudeDegrees>
              <LongitudeDegrees>-6.3826675526797771453857421875</LongitudeDegrees>
            </Position>
            <AltitudeMeters>382.20001220703125</AltitudeMeters>
            <DistanceMeters>NAN</DistanceMeters>
          </Trackpoint>
          <Trackpoint>
            <Time>2019-10-08T13:29:07.000Z</Time>
            <Position>
              <LatitudeDegrees>39.46916640736162662506103515625</LatitudeDegrees>
              <LongitudeDegrees>-6.3826449215412139892578125</LongitudeDegrees>
            </Position>
            <AltitudeMeters>382.399993896484375</AltitudeMeters>
            <DistanceMeters>NAN</DistanceMeters>
          </Trackpoint>
          <Trackpoint>
            <Time>2019-10-08T13:29:09.000Z</Time>
            <Position>
              <LatitudeDegrees>39.46916238404810428619384765625</LatitudeDegrees>
              <LongitudeDegrees>-6.382583566009998321533203125</LongitudeDegrees>
            </Position>
            <AltitudeMeters>382</AltitudeMeters>
            <DistanceMeters>NAN</DistanceMeters>
          </Trackpoint>
          <Trackpoint>
            <Time>2019-10-08T13:29:11.000Z</Time>
            <Position>
              <LatitudeDegrees>39.469116032123565673828125</LatitudeDegrees>
              <LongitudeDegrees>-6.38246160931885242462158203125</LongitudeDegrees>
            </Position>
            <AltitudeMeters>381.79998779296875</AltitudeMeters>
            <DistanceMeters>NAN</DistanceMeters>
          </Trackpoint>
          <Trackpoint>
            <Time>2019-10-08T13:29:13.000Z</Time>
            <Position>
              <LatitudeDegrees>39.46906548924744129180908203125</LatitudeDegrees>
              <LongitudeDegrees>-6.38232029043138027191162109375</LongitudeDegrees>
            </Position>
            <AltitudeMeters>381.79998779296875</AltitudeMeters>
            <DistanceMeters>NAN</DistanceMeters>
          </Trackpoint>
          <Trackpoint>
            <Time>2019-10-08T13:29:15.000Z</Time>
            <Position>
              <LatitudeDegrees>39.4690119288861751556396484375</LatitudeDegrees>
              <LongitudeDegrees>-6.38219154439866542816162109375</LongitudeDegrees>
            </Position>
            <AltitudeMeters>381.600006103515625</AltitudeMeters>
            <DistanceMeters>NAN</DistanceMeters>
          </Trackpoint>
          <Trackpoint>
            <Time>2019-10-08T13:29:18.000Z</Time>
            <Position>
              <LatitudeDegrees>39.4689323008060455322265625</LatitudeDegrees>
              <LongitudeDegrees>-6.38200320303440093994140625</LongitudeDegrees>
            </Position>
            <AltitudeMeters>381.20001220703125</AltitudeMeters>
            <DistanceMeters>NAN</DistanceMeters>
          </Trackpoint>
          <Trackpoint>
            <Time>2019-10-08T13:29:21.000Z</Time>
            <Position>
              <LatitudeDegrees>39.46885443292558193206787109375</LatitudeDegrees>
              <LongitudeDegrees>-6.38181050308048725128173828125</LongitudeDegrees>
            </Position>
            <AltitudeMeters>381.20001220703125</AltitudeMeters>
            <DistanceMeters>NAN</DistanceMeters>
          </Trackpoint>
          <Trackpoint>
            <Time>2019-10-08T13:29:26.000Z</Time>
            <Position>
              <LatitudeDegrees>39.4687353260815143585205078125</LatitudeDegrees>
              <LongitudeDegrees>-6.38148687779903411865234375</LongitudeDegrees>
            </Position>
            <AltitudeMeters>381.20001220703125</AltitudeMeters>
            <DistanceMeters>NAN</DistanceMeters>
          </Trackpoint>
          <Trackpoint>
            <Time>2019-10-08T13:29:30.000Z</Time>
            <Position>
              <LatitudeDegrees>39.46864857338368892669677734375</LatitudeDegrees>
              <LongitudeDegrees>-6.38121086172759532928466796875</LongitudeDegrees>
            </Position>
            <AltitudeMeters>380.600006103515625</AltitudeMeters>
            <DistanceMeters>NAN</DistanceMeters>
          </Trackpoint>
          <Trackpoint>
            <Time>2019-10-08T13:29:32.000Z</Time>
            <Position>
              <LatitudeDegrees>39.468573220074176788330078125</LatitudeDegrees>
              <LongitudeDegrees>-6.3810924254357814788818359375</LongitudeDegrees>
            </Position>
            <AltitudeMeters>380.399993896484375</AltitudeMeters>
            <DistanceMeters>NAN</DistanceMeters>
          </Trackpoint>
          <Trackpoint>
            <Time>2019-10-08T13:29:33.000Z</Time>
            <Position>
              <LatitudeDegrees>39.468543715775012969970703125</LatitudeDegrees>
              <LongitudeDegrees>-6.38102746568620204925537109375</LongitudeDegrees>
            </Position>
            <AltitudeMeters>380.600006103515625</AltitudeMeters>
            <DistanceMeters>NAN</DistanceMeters>
          </Trackpoint>
          <Trackpoint>
            <Time>2019-10-08T13:29:34.000Z</Time>
            <Position>
              <LatitudeDegrees>39.4685111939907073974609375</LatitudeDegrees>
              <LongitudeDegrees>-6.380960159003734588623046875</LongitudeDegrees>
            </Position>
            <AltitudeMeters>380.20001220703125</AltitudeMeters>
            <DistanceMeters>NAN</DistanceMeters>
          </Trackpoint>
          <Trackpoint>
            <Time>2019-10-08T13:29:36.000Z</Time>
            <Position>
              <LatitudeDegrees>39.4684567116200923919677734375</LatitudeDegrees>
              <LongitudeDegrees>-6.38081674464046955108642578125</LongitudeDegrees>
            </Position>
            <AltitudeMeters>380.20001220703125</AltitudeMeters>
            <DistanceMeters>NAN</DistanceMeters>
          </Trackpoint>
          <Trackpoint>
            <Time>2019-10-08T13:29:39.000Z</Time>
            <Position>
              <LatitudeDegrees>39.46834556758403778076171875</LatitudeDegrees>
              <LongitudeDegrees>-6.3806136511266231536865234375</LongitudeDegrees>
            </Position>
            <AltitudeMeters>380.20001220703125</AltitudeMeters>
            <DistanceMeters>NAN</DistanceMeters>
          </Trackpoint>
          <Trackpoint>
            <Time>2019-10-08T13:29:40.000Z</Time>
            <Position>
              <LatitudeDegrees>39.4683098606765270233154296875</LatitudeDegrees>
              <LongitudeDegrees>-6.38054382987320423126220703125</LongitudeDegrees>
            </Position>
            <AltitudeMeters>380</AltitudeMeters>
            <DistanceMeters>NAN</DistanceMeters>
          </Trackpoint>
          <Trackpoint>
            <Time>2019-10-08T13:29:42.000Z</Time>
            <Position>
              <LatitudeDegrees>39.46826602332293987274169921875</LatitudeDegrees>
              <LongitudeDegrees>-6.3804034329950809478759765625</LongitudeDegrees>
            </Position>
            <AltitudeMeters>380</AltitudeMeters>
            <DistanceMeters>NAN</DistanceMeters>
          </Trackpoint>
          <Trackpoint>
            <Time>2019-10-08T13:29:44.000Z</Time>
            <Position>
              <LatitudeDegrees>39.468269459903240203857421875</LatitudeDegrees>
              <LongitudeDegrees>-6.380269825458526611328125</LongitudeDegrees>
            </Position>
            <AltitudeMeters>380.399993896484375</AltitudeMeters>
            <DistanceMeters>NAN</DistanceMeters>
          </Trackpoint>
          <Trackpoint>
            <Time>2019-10-08T13:29:47.000Z</Time>
            <Position>
              <LatitudeDegrees>39.468284547328948974609375</LatitudeDegrees>
              <LongitudeDegrees>-6.38009749352931976318359375</LongitudeDegrees>
            </Position>
            <AltitudeMeters>380.399993896484375</AltitudeMeters>
            <DistanceMeters>NAN</DistanceMeters>
          </Trackpoint>
          <Trackpoint>
            <Time>2019-10-08T13:29:49.000Z</Time>
            <Position>
              <LatitudeDegrees>39.46830508299171924591064453125</LatitudeDegrees>
              <LongitudeDegrees>-6.37998056598007678985595703125</LongitudeDegrees>
            </Position>
            <AltitudeMeters>380.399993896484375</AltitudeMeters>
            <DistanceMeters>NAN</DistanceMeters>
          </Trackpoint>
          <Trackpoint>
            <Time>2019-10-08T13:29:50.000Z</Time>
            <Position>
              <LatitudeDegrees>39.4683075137436389923095703125</LatitudeDegrees>
              <LongitudeDegrees>-6.3799144327640533447265625</LongitudeDegrees>
            </Position>
            <AltitudeMeters>380.399993896484375</AltitudeMeters>
            <DistanceMeters>NAN</DistanceMeters>
          </Trackpoint>
          <Trackpoint>
            <Time>2019-10-08T13:29:53.000Z</Time>
            <Position>
              <LatitudeDegrees>39.4683014787733554840087890625</LatitudeDegrees>
              <LongitudeDegrees>-6.379721648991107940673828125</LongitudeDegrees>
            </Position>
            <AltitudeMeters>380.399993896484375</AltitudeMeters>
            <DistanceMeters>NAN</DistanceMeters>
          </Trackpoint>
          <Trackpoint>
            <Time>2019-10-08T13:29:54.000Z</Time>
            <Position>
              <LatitudeDegrees>39.468294940888881683349609375</LatitudeDegrees>
              <LongitudeDegrees>-6.37965903617441654205322265625</LongitudeDegrees>
            </Position>
            <AltitudeMeters>380.399993896484375</AltitudeMeters>
            <DistanceMeters>NAN</DistanceMeters>
          </Trackpoint>
          <Trackpoint>
            <Time>2019-10-08T13:30:00.000Z</Time>
            <Position>
              <LatitudeDegrees>39.468252360820770263671875</LatitudeDegrees>
              <LongitudeDegrees>-6.3793147914111614227294921875</LongitudeDegrees>
            </Position>
            <AltitudeMeters>380.600006103515625</AltitudeMeters>
            <DistanceMeters>NAN</DistanceMeters>
          </Trackpoint>
          <Trackpoint>
            <Time>2019-10-08T13:30:02.000Z</Time>
            <Position>
              <LatitudeDegrees>39.4682736508548259735107421875</LatitudeDegrees>
              <LongitudeDegrees>-6.3792195729911327362060546875</LongitudeDegrees>
            </Position>
            <AltitudeMeters>380.600006103515625</AltitudeMeters>
            <DistanceMeters>NAN</DistanceMeters>
          </Trackpoint>
          <Trackpoint>
            <Time>2019-10-08T13:30:03.000Z</Time>
            <Position>
              <LatitudeDegrees>39.468305669724941253662109375</LatitudeDegrees>
              <LongitudeDegrees>-6.37918210588395595550537109375</LongitudeDegrees>
            </Position>
            <AltitudeMeters>380.600006103515625</AltitudeMeters>
            <DistanceMeters>NAN</DistanceMeters>
          </Trackpoint>
          <Trackpoint>
            <Time>2019-10-08T13:30:08.000Z</Time>
            <Position>
              <LatitudeDegrees>39.46853290311992168426513671875</LatitudeDegrees>
              <LongitudeDegrees>-6.37902637012302875518798828125</LongitudeDegrees>
            </Position>
            <AltitudeMeters>380</AltitudeMeters>
            <DistanceMeters>NAN</DistanceMeters>
          </Trackpoint>
          <Trackpoint>
            <Time>2019-10-08T13:30:12.000Z</Time>
            <Position>
              <LatitudeDegrees>39.46874320507049560546875</LatitudeDegrees>
              <LongitudeDegrees>-6.378958225250244140625</LongitudeDegrees>
            </Position>
            <AltitudeMeters>378.79998779296875</AltitudeMeters>
            <DistanceMeters>NAN</DistanceMeters>
          </Trackpoint>
          <Trackpoint>
            <Time>2019-10-08T13:30:13.000Z</Time>
            <Position>
              <LatitudeDegrees>39.46879089809954166412353515625</LatitudeDegrees>
              <LongitudeDegrees>-6.37893609702587127685546875</LongitudeDegrees>
            </Position>
            <AltitudeMeters>378.600006103515625</AltitudeMeters>
            <DistanceMeters>NAN</DistanceMeters>
          </Trackpoint>
          <Trackpoint>
            <Time>2019-10-08T13:30:14.000Z</Time>
            <Position>
              <LatitudeDegrees>39.46883414871990680694580078125</LatitudeDegrees>
              <LongitudeDegrees>-6.378907263278961181640625</LongitudeDegrees>
            </Position>
            <AltitudeMeters>378.600006103515625</AltitudeMeters>
            <DistanceMeters>NAN</DistanceMeters>
          </Trackpoint>
          <Trackpoint>
            <Time>2019-10-08T13:30:17.000Z</Time>
            <Position>
              <LatitudeDegrees>39.46897613815963268280029296875</LatitudeDegrees>
              <LongitudeDegrees>-6.37880257330834865570068359375</LongitudeDegrees>
            </Position>
            <AltitudeMeters>378.79998779296875</AltitudeMeters>
            <DistanceMeters>NAN</DistanceMeters>
          </Trackpoint>
          <Trackpoint>
            <Time>2019-10-08T13:30:19.000Z</Time>
            <Position>
              <LatitudeDegrees>39.46907001547515392303466796875</LatitudeDegrees>
              <LongitudeDegrees>-6.3787350989878177642822265625</LongitudeDegrees>
            </Position>
            <AltitudeMeters>379</AltitudeMeters>
            <DistanceMeters>NAN</DistanceMeters>
          </Trackpoint>
          <Trackpoint>
            <Time>2019-10-08T13:30:25.000Z</Time>
            <Position>
              <LatitudeDegrees>39.46936547756195068359375</LatitudeDegrees>
              <LongitudeDegrees>-6.37850828468799591064453125</LongitudeDegrees>
            </Position>
            <AltitudeMeters>378.399993896484375</AltitudeMeters>
            <DistanceMeters>NAN</DistanceMeters>
          </Trackpoint>
          <Trackpoint>
            <Time>2019-10-08T13:30:26.000Z</Time>
            <Position>
              <LatitudeDegrees>39.469416774809360504150390625</LatitudeDegrees>
              <LongitudeDegrees>-6.37846671044826507568359375</LongitudeDegrees>
            </Position>
            <AltitudeMeters>378.399993896484375</AltitudeMeters>
            <DistanceMeters>NAN</DistanceMeters>
          </Trackpoint>
          <Trackpoint>
            <Time>2019-10-08T13:30:27.000Z</Time>
            <Position>
              <LatitudeDegrees>39.4694682396948337554931640625</LatitudeDegrees>
              <LongitudeDegrees>-6.3784239627420902252197265625</LongitudeDegrees>
            </Position>
            <AltitudeMeters>378.399993896484375</AltitudeMeters>
            <DistanceMeters>NAN</DistanceMeters>
          </Trackpoint>
          <Trackpoint>
            <Time>2019-10-08T13:30:28.000Z</Time>
            <Position>
              <LatitudeDegrees>39.46952146477997303009033203125</LatitudeDegrees>
              <LongitudeDegrees>-6.37838381342589855194091796875</LongitudeDegrees>
            </Position>
            <AltitudeMeters>378.20001220703125</AltitudeMeters>
            <DistanceMeters>NAN</DistanceMeters>
          </Trackpoint>
          <Trackpoint>
            <Time>2019-10-08T13:30:30.000Z</Time>
            <Position>
              <LatitudeDegrees>39.46962975896894931793212890625</LatitudeDegrees>
              <LongitudeDegrees>-6.3783046044409275054931640625</LongitudeDegrees>
            </Position>
            <AltitudeMeters>377.600006103515625</AltitudeMeters>
            <DistanceMeters>NAN</DistanceMeters>
          </Trackpoint>
          <Trackpoint>
            <Time>2019-10-08T13:30:33.000Z</Time>
            <Position>
              <LatitudeDegrees>39.46979387663304805755615234375</LatitudeDegrees>
              <LongitudeDegrees>-6.3781798817217350006103515625</LongitudeDegrees>
            </Position>
            <AltitudeMeters>377.79998779296875</AltitudeMeters>
            <DistanceMeters>NAN</DistanceMeters>
          </Trackpoint>
          <Trackpoint>
            <Time>2019-10-08T13:30:34.000Z</Time>
            <Position>
              <LatitudeDegrees>39.46984760463237762451171875</LatitudeDegrees>
              <LongitudeDegrees>-6.37814073823392391204833984375</LongitudeDegrees>
            </Position>
            <AltitudeMeters>377.600006103515625</AltitudeMeters>
            <DistanceMeters>NAN</DistanceMeters>
          </Trackpoint>
          <Trackpoint>
            <Time>2019-10-08T13:30:36.000Z</Time>
            <Position>
              <LatitudeDegrees>39.469952546060085296630859375</LatitudeDegrees>
              <LongitudeDegrees>-6.3780638761818408966064453125</LongitudeDegrees>
            </Position>
            <AltitudeMeters>377.399993896484375</AltitudeMeters>
            <DistanceMeters>NAN</DistanceMeters>
          </Trackpoint>
          <Trackpoint>
            <Time>2019-10-08T13:30:39.000Z</Time>
            <Position>
              <LatitudeDegrees>39.47010803036391735076904296875</LatitudeDegrees>
              <LongitudeDegrees>-6.37796823866665363311767578125</LongitudeDegrees>
            </Position>
            <AltitudeMeters>376.600006103515625</AltitudeMeters>
            <DistanceMeters>NAN</DistanceMeters>
          </Trackpoint>
          <Trackpoint>
            <Time>2019-10-08T13:30:40.000Z</Time>
            <Position>
              <LatitudeDegrees>39.47016544640064239501953125</LatitudeDegrees>
              <LongitudeDegrees>-6.37793295085430145263671875</LongitudeDegrees>
            </Position>
            <AltitudeMeters>376.79998779296875</AltitudeMeters>
            <DistanceMeters>NAN</DistanceMeters>
          </Trackpoint>
          <Trackpoint>
            <Time>2019-10-08T13:30:41.000Z</Time>
            <Position>
              <LatitudeDegrees>39.47022235952317714691162109375</LatitudeDegrees>
              <LongitudeDegrees>-6.37789129279553890228271484375</LongitudeDegrees>
            </Position>
            <AltitudeMeters>376.600006103515625</AltitudeMeters>
            <DistanceMeters>NAN</DistanceMeters>
          </Trackpoint>
          <Trackpoint>
            <Time>2019-10-08T13:30:43.000Z</Time>
            <Position>
              <LatitudeDegrees>39.4703319109976291656494140625</LatitudeDegrees>
              <LongitudeDegrees>-6.37780345045030117034912109375</LongitudeDegrees>
            </Position>
            <AltitudeMeters>375.20001220703125</AltitudeMeters>
            <DistanceMeters>NAN</DistanceMeters>
          </Trackpoint>
          <Trackpoint>
            <Time>2019-10-08T13:30:48.000Z</Time>
            <Position>
              <LatitudeDegrees>39.4705894030630588531494140625</LatitudeDegrees>
              <LongitudeDegrees>-6.3776062242686748504638671875</LongitudeDegrees>
            </Position>
            <AltitudeMeters>375.399993896484375</AltitudeMeters>
            <DistanceMeters>NAN</DistanceMeters>
          </Trackpoint>
          <Trackpoint>
            <Time>2019-10-08T13:30:56.000Z</Time>
            <Position>
              <LatitudeDegrees>39.47094555012881755828857421875</LatitudeDegrees>
              <LongitudeDegrees>-6.37731143273413181304931640625</LongitudeDegrees>
            </Position>
            <AltitudeMeters>374.600006103515625</AltitudeMeters>
            <DistanceMeters>NAN</DistanceMeters>
          </Trackpoint>
          <Trackpoint>
            <Time>2019-10-08T13:30:57.000Z</Time>
            <Position>
              <LatitudeDegrees>39.47098477743566036224365234375</LatitudeDegrees>
              <LongitudeDegrees>-6.37726700864732265472412109375</LongitudeDegrees>
            </Position>
            <AltitudeMeters>374.20001220703125</AltitudeMeters>
            <DistanceMeters>NAN</DistanceMeters>
          </Trackpoint>
          <Trackpoint>
            <Time>2019-10-08T13:30:59.000Z</Time>
            <Position>
              <LatitudeDegrees>39.47101838886737823486328125</LatitudeDegrees>
              <LongitudeDegrees>-6.3772300444543361663818359375</LongitudeDegrees>
            </Position>
            <AltitudeMeters>374.399993896484375</AltitudeMeters>
            <DistanceMeters>NAN</DistanceMeters>
          </Trackpoint>
          <Trackpoint>
            <Time>2019-10-08T13:31:01.000Z</Time>
            <Position>
              <LatitudeDegrees>39.47102702222764492034912109375</LatitudeDegrees>
              <LongitudeDegrees>-6.37720297090709209442138671875</LongitudeDegrees>
            </Position>
            <AltitudeMeters>374.600006103515625</AltitudeMeters>
            <DistanceMeters>NAN</DistanceMeters>
          </Trackpoint>
          <Trackpoint>
            <Time>2019-10-08T13:31:03.000Z</Time>
            <Position>
              <LatitudeDegrees>39.47102853097021579742431640625</LatitudeDegrees>
              <LongitudeDegrees>-6.37717832811176776885986328125</LongitudeDegrees>
            </Position>
            <AltitudeMeters>374.399993896484375</AltitudeMeters>
            <DistanceMeters>NAN</DistanceMeters>
          </Trackpoint>
          <Trackpoint>
            <Time>2019-10-08T13:31:04.000Z</Time>
            <Position>
              <LatitudeDegrees>39.471032135188579559326171875</LatitudeDegrees>
              <LongitudeDegrees>-6.3771753944456577301025390625</LongitudeDegrees>
            </Position>
            <AltitudeMeters>374.600006103515625</AltitudeMeters>
            <DistanceMeters>NAN</DistanceMeters>
          </Trackpoint>
          <Trackpoint>
            <Time>2019-10-08T13:31:12.000Z</Time>
            <Position>
              <LatitudeDegrees>39.471029452979564666748046875</LatitudeDegrees>
              <LongitudeDegrees>-6.37718193233013153076171875</LongitudeDegrees>
            </Position>
            <AltitudeMeters>374.399993896484375</AltitudeMeters>
            <DistanceMeters>NAN</DistanceMeters>
          </Trackpoint>
          <Trackpoint>
            <Time>2019-10-08T13:31:15.000Z</Time>
            <Position>
              <LatitudeDegrees>39.471029452979564666748046875</LatitudeDegrees>
              <LongitudeDegrees>-6.37718193233013153076171875</LongitudeDegrees>
            </Position>
            <AltitudeMeters>374.600006103515625</AltitudeMeters>
            <DistanceMeters>NAN</DistanceMeters>
          </Trackpoint>
          <Trackpoint>
            <Time>2019-10-08T13:31:16.000Z</Time>
            <Position>
              <LatitudeDegrees>39.471029452979564666748046875</LatitudeDegrees>
              <LongitudeDegrees>-6.37718193233013153076171875</LongitudeDegrees>
            </Position>
            <AltitudeMeters>374.600006103515625</AltitudeMeters>
            <DistanceMeters>NAN</DistanceMeters>
          </Trackpoint>
          <Trackpoint>
            <Time>2019-10-08T13:31:18.000Z</Time>
            <Position>
              <LatitudeDegrees>39.471029452979564666748046875</LatitudeDegrees>
              <LongitudeDegrees>-6.37718193233013153076171875</LongitudeDegrees>
            </Position>
            <AltitudeMeters>374.79998779296875</AltitudeMeters>
            <DistanceMeters>NAN</DistanceMeters>
          </Trackpoint>
          <Trackpoint>
            <Time>2019-10-08T13:31:19.000Z</Time>
            <Position>
              <LatitudeDegrees>39.471029452979564666748046875</LatitudeDegrees>
              <LongitudeDegrees>-6.37718193233013153076171875</LongitudeDegrees>
            </Position>
            <AltitudeMeters>374.600006103515625</AltitudeMeters>
            <DistanceMeters>NAN</DistanceMeters>
          </Trackpoint>
          <Trackpoint>
            <Time>2019-10-08T13:31:23.000Z</Time>
            <Position>
              <LatitudeDegrees>39.471028111875057220458984375</LatitudeDegrees>
              <LongitudeDegrees>-6.3771757297217845916748046875</LongitudeDegrees>
            </Position>
            <AltitudeMeters>374.399993896484375</AltitudeMeters>
            <DistanceMeters>NAN</DistanceMeters>
          </Trackpoint>
          <Trackpoint>
            <Time>2019-10-08T13:31:27.000Z</Time>
            <Position>
              <LatitudeDegrees>39.471029452979564666748046875</LatitudeDegrees>
              <LongitudeDegrees>-6.37718193233013153076171875</LongitudeDegrees>
            </Position>
            <AltitudeMeters>374.79998779296875</AltitudeMeters>
            <DistanceMeters>NAN</DistanceMeters>
          </Trackpoint>
          <Trackpoint>
            <Time>2019-10-08T13:31:29.000Z</Time>
            <Position>
              <LatitudeDegrees>39.471029452979564666748046875</LatitudeDegrees>
              <LongitudeDegrees>-6.37718193233013153076171875</LongitudeDegrees>
            </Position>
            <AltitudeMeters>374.79998779296875</AltitudeMeters>
            <DistanceMeters>NAN</DistanceMeters>
          </Trackpoint>
          <Trackpoint>
            <Time>2019-10-08T13:31:32.000Z</Time>
            <Position>
              <LatitudeDegrees>39.471029452979564666748046875</LatitudeDegrees>
              <LongitudeDegrees>-6.37718193233013153076171875</LongitudeDegrees>
            </Position>
            <AltitudeMeters>374.79998779296875</AltitudeMeters>
            <DistanceMeters>NAN</DistanceMeters>
          </Trackpoint>
          <Trackpoint>
            <Time>2019-10-08T13:31:34.000Z</Time>
            <Position>
              <LatitudeDegrees>39.471029452979564666748046875</LatitudeDegrees>
              <LongitudeDegrees>-6.37718193233013153076171875</LongitudeDegrees>
            </Position>
            <AltitudeMeters>374.79998779296875</AltitudeMeters>
            <DistanceMeters>NAN</DistanceMeters>
          </Trackpoint>
          <Trackpoint>
            <Time>2019-10-08T13:31:37.000Z</Time>
            <Position>
              <LatitudeDegrees>39.471029452979564666748046875</LatitudeDegrees>
              <LongitudeDegrees>-6.37718193233013153076171875</LongitudeDegrees>
            </Position>
            <AltitudeMeters>374.79998779296875</AltitudeMeters>
            <DistanceMeters>NAN</DistanceMeters>
          </Trackpoint>
          <Trackpoint>
            <Time>2019-10-08T13:31:38.000Z</Time>
            <Position>
              <LatitudeDegrees>39.471029452979564666748046875</LatitudeDegrees>
              <LongitudeDegrees>-6.37718193233013153076171875</LongitudeDegrees>
            </Position>
            <AltitudeMeters>374.79998779296875</AltitudeMeters>
            <DistanceMeters>NAN</DistanceMeters>
          </Trackpoint>
          <Trackpoint>
            <Time>2019-10-08T13:31:39.000Z</Time>
            <Position>
              <LatitudeDegrees>39.471029452979564666748046875</LatitudeDegrees>
              <LongitudeDegrees>-6.37718193233013153076171875</LongitudeDegrees>
            </Position>
            <AltitudeMeters>374.79998779296875</AltitudeMeters>
            <DistanceMeters>NAN</DistanceMeters>
          </Trackpoint>
          <Trackpoint>
            <Time>2019-10-08T13:31:42.000Z</Time>
            <Position>
              <LatitudeDegrees>39.471029452979564666748046875</LatitudeDegrees>
              <LongitudeDegrees>-6.37718193233013153076171875</LongitudeDegrees>
            </Position>
            <AltitudeMeters>374.79998779296875</AltitudeMeters>
            <DistanceMeters>NAN</DistanceMeters>
          </Trackpoint>
          <Trackpoint>
            <Time>2019-10-08T13:31:43.000Z</Time>
            <Position>
              <LatitudeDegrees>39.47103523649275302886962890625</LatitudeDegrees>
              <LongitudeDegrees>-6.3771717064082622528076171875</LongitudeDegrees>
            </Position>
            <AltitudeMeters>374.79998779296875</AltitudeMeters>
            <DistanceMeters>NAN</DistanceMeters>
          </Trackpoint>
          <Trackpoint>
            <Time>2019-10-08T13:31:46.000Z</Time>
            <Position>
              <LatitudeDegrees>39.47103523649275302886962890625</LatitudeDegrees>
              <LongitudeDegrees>-6.3771717064082622528076171875</LongitudeDegrees>
            </Position>
            <AltitudeMeters>375</AltitudeMeters>
            <DistanceMeters>NAN</DistanceMeters>
          </Trackpoint>
          <Trackpoint>
            <Time>2019-10-08T13:31:48.000Z</Time>
            <Position>
              <LatitudeDegrees>39.47103523649275302886962890625</LatitudeDegrees>
              <LongitudeDegrees>-6.3771717064082622528076171875</LongitudeDegrees>
            </Position>
            <AltitudeMeters>374.79998779296875</AltitudeMeters>
            <DistanceMeters>NAN</DistanceMeters>
          </Trackpoint>
          <Trackpoint>
            <Time>2019-10-08T13:31:49.000Z</Time>
            <Position>
              <LatitudeDegrees>39.47103523649275302886962890625</LatitudeDegrees>
              <LongitudeDegrees>-6.3771717064082622528076171875</LongitudeDegrees>
            </Position>
            <AltitudeMeters>374.79998779296875</AltitudeMeters>
            <DistanceMeters>NAN</DistanceMeters>
          </Trackpoint>
          <Trackpoint>
            <Time>2019-10-08T13:31:50.000Z</Time>
            <Position>
              <LatitudeDegrees>39.47103523649275302886962890625</LatitudeDegrees>
              <LongitudeDegrees>-6.3771717064082622528076171875</LongitudeDegrees>
            </Position>
            <AltitudeMeters>374.79998779296875</AltitudeMeters>
            <DistanceMeters>NAN</DistanceMeters>
          </Trackpoint>
          <Trackpoint>
            <Time>2019-10-08T13:31:52.000Z</Time>
            <Position>
              <LatitudeDegrees>39.47103523649275302886962890625</LatitudeDegrees>
              <LongitudeDegrees>-6.3771717064082622528076171875</LongitudeDegrees>
            </Position>
            <AltitudeMeters>374.79998779296875</AltitudeMeters>
            <DistanceMeters>NAN</DistanceMeters>
          </Trackpoint>
          <Trackpoint>
            <Time>2019-10-08T13:31:55.000Z</Time>
            <Position>
              <LatitudeDegrees>39.47103523649275302886962890625</LatitudeDegrees>
              <LongitudeDegrees>-6.3771717064082622528076171875</LongitudeDegrees>
            </Position>
            <AltitudeMeters>375</AltitudeMeters>
            <DistanceMeters>NAN</DistanceMeters>
          </Trackpoint>
          <Trackpoint>
            <Time>2019-10-08T13:31:56.000Z</Time>
            <Position>
              <LatitudeDegrees>39.47103523649275302886962890625</LatitudeDegrees>
              <LongitudeDegrees>-6.3771717064082622528076171875</LongitudeDegrees>
            </Position>
            <AltitudeMeters>375</AltitudeMeters>
            <DistanceMeters>NAN</DistanceMeters>
          </Trackpoint>
          <Trackpoint>
            <Time>2019-10-08T13:31:57.000Z</Time>
            <Position>
              <LatitudeDegrees>39.47103523649275302886962890625</LatitudeDegrees>
              <LongitudeDegrees>-6.3771717064082622528076171875</LongitudeDegrees>
            </Position>
            <AltitudeMeters>374.79998779296875</AltitudeMeters>
            <DistanceMeters>NAN</DistanceMeters>
          </Trackpoint>
          <Trackpoint>
            <Time>2019-10-08T13:32:01.000Z</Time>
            <Position>
              <LatitudeDegrees>39.47103523649275302886962890625</LatitudeDegrees>
              <LongitudeDegrees>-6.3771717064082622528076171875</LongitudeDegrees>
            </Position>
            <AltitudeMeters>374.79998779296875</AltitudeMeters>
            <DistanceMeters>NAN</DistanceMeters>
          </Trackpoint>
          <Trackpoint>
            <Time>2019-10-08T13:32:07.000Z</Time>
            <Position>
              <LatitudeDegrees>39.47103523649275302886962890625</LatitudeDegrees>
              <LongitudeDegrees>-6.3771717064082622528076171875</LongitudeDegrees>
            </Position>
            <AltitudeMeters>375</AltitudeMeters>
            <DistanceMeters>NAN</DistanceMeters>
          </Trackpoint>
          <Trackpoint>
            <Time>2019-10-08T13:32:12.000Z</Time>
            <Position>
              <LatitudeDegrees>39.47103523649275302886962890625</LatitudeDegrees>
              <LongitudeDegrees>-6.3771717064082622528076171875</LongitudeDegrees>
            </Position>
            <AltitudeMeters>375</AltitudeMeters>
            <DistanceMeters>NAN</DistanceMeters>
          </Trackpoint>
          <Trackpoint>
            <Time>2019-10-08T13:32:13.000Z</Time>
            <Position>
              <LatitudeDegrees>39.47103523649275302886962890625</LatitudeDegrees>
              <LongitudeDegrees>-6.3771717064082622528076171875</LongitudeDegrees>
            </Position>
            <AltitudeMeters>375</AltitudeMeters>
            <DistanceMeters>NAN</DistanceMeters>
          </Trackpoint>
          <Trackpoint>
            <Time>2019-10-08T13:32:17.000Z</Time>
            <Position>
              <LatitudeDegrees>39.47103523649275302886962890625</LatitudeDegrees>
              <LongitudeDegrees>-6.3771717064082622528076171875</LongitudeDegrees>
            </Position>
            <AltitudeMeters>374.79998779296875</AltitudeMeters>
            <DistanceMeters>NAN</DistanceMeters>
          </Trackpoint>
          <Trackpoint>
            <Time>2019-10-08T13:32:18.000Z</Time>
            <Position>
              <LatitudeDegrees>39.47103523649275302886962890625</LatitudeDegrees>
              <LongitudeDegrees>-6.3771717064082622528076171875</LongitudeDegrees>
            </Position>
            <AltitudeMeters>374.79998779296875</AltitudeMeters>
            <DistanceMeters>NAN</DistanceMeters>
          </Trackpoint>
          <Trackpoint>
            <Time>2019-10-08T13:32:20.000Z</Time>
            <Position>
              <LatitudeDegrees>39.47103523649275302886962890625</LatitudeDegrees>
              <LongitudeDegrees>-6.3771717064082622528076171875</LongitudeDegrees>
            </Position>
            <AltitudeMeters>374.79998779296875</AltitudeMeters>
            <DistanceMeters>NAN</DistanceMeters>
          </Trackpoint>
          <Trackpoint>
            <Time>2019-10-08T13:32:22.000Z</Time>
            <Position>
              <LatitudeDegrees>39.47103523649275302886962890625</LatitudeDegrees>
              <LongitudeDegrees>-6.3771717064082622528076171875</LongitudeDegrees>
            </Position>
            <AltitudeMeters>374.600006103515625</AltitudeMeters>
            <DistanceMeters>NAN</DistanceMeters>
          </Trackpoint>
          <Trackpoint>
            <Time>2019-10-08T13:32:28.000Z</Time>
            <Position>
              <LatitudeDegrees>39.471040852367877960205078125</LatitudeDegrees>
              <LongitudeDegrees>-6.37716692872345447540283203125</LongitudeDegrees>
            </Position>
            <AltitudeMeters>374.79998779296875</AltitudeMeters>
            <DistanceMeters>NAN</DistanceMeters>
          </Trackpoint>
          <Trackpoint>
            <Time>2019-10-08T13:32:32.000Z</Time>
            <Position>
              <LatitudeDegrees>39.471040852367877960205078125</LatitudeDegrees>
              <LongitudeDegrees>-6.37716692872345447540283203125</LongitudeDegrees>
            </Position>
            <AltitudeMeters>374.79998779296875</AltitudeMeters>
            <DistanceMeters>NAN</DistanceMeters>
          </Trackpoint>
          <Trackpoint>
            <Time>2019-10-08T13:32:34.000Z</Time>
            <Position>
              <LatitudeDegrees>39.471040852367877960205078125</LatitudeDegrees>
              <LongitudeDegrees>-6.37716692872345447540283203125</LongitudeDegrees>
            </Position>
            <AltitudeMeters>374.79998779296875</AltitudeMeters>
            <DistanceMeters>NAN</DistanceMeters>
          </Trackpoint>
          <Trackpoint>
            <Time>2019-10-08T13:32:37.000Z</Time>
            <Position>
              <LatitudeDegrees>39.471040852367877960205078125</LatitudeDegrees>
              <LongitudeDegrees>-6.37716692872345447540283203125</LongitudeDegrees>
            </Position>
            <AltitudeMeters>374.600006103515625</AltitudeMeters>
            <DistanceMeters>NAN</DistanceMeters>
          </Trackpoint>
          <Trackpoint>
            <Time>2019-10-08T13:32:38.000Z</Time>
            <Position>
              <LatitudeDegrees>39.471040852367877960205078125</LatitudeDegrees>
              <LongitudeDegrees>-6.37716692872345447540283203125</LongitudeDegrees>
            </Position>
            <AltitudeMeters>374.600006103515625</AltitudeMeters>
            <DistanceMeters>NAN</DistanceMeters>
          </Trackpoint>
          <Trackpoint>
            <Time>2019-10-08T13:32:39.000Z</Time>
            <Position>
              <LatitudeDegrees>39.471040852367877960205078125</LatitudeDegrees>
              <LongitudeDegrees>-6.37716692872345447540283203125</LongitudeDegrees>
            </Position>
            <AltitudeMeters>374.79998779296875</AltitudeMeters>
            <DistanceMeters>NAN</DistanceMeters>
          </Trackpoint>
          <Trackpoint>
            <Time>2019-10-08T13:32:42.000Z</Time>
            <Position>
              <LatitudeDegrees>39.471040852367877960205078125</LatitudeDegrees>
              <LongitudeDegrees>-6.37716692872345447540283203125</LongitudeDegrees>
            </Position>
            <AltitudeMeters>374.79998779296875</AltitudeMeters>
            <DistanceMeters>NAN</DistanceMeters>
          </Trackpoint>
          <Trackpoint>
            <Time>2019-10-08T13:32:44.000Z</Time>
            <Position>
              <LatitudeDegrees>39.471040852367877960205078125</LatitudeDegrees>
              <LongitudeDegrees>-6.37716692872345447540283203125</LongitudeDegrees>
            </Position>
            <AltitudeMeters>374.600006103515625</AltitudeMeters>
            <DistanceMeters>NAN</DistanceMeters>
          </Trackpoint>
          <Trackpoint>
            <Time>2019-10-08T13:32:46.000Z</Time>
            <Position>
              <LatitudeDegrees>39.471040852367877960205078125</LatitudeDegrees>
              <LongitudeDegrees>-6.37716692872345447540283203125</LongitudeDegrees>
            </Position>
            <AltitudeMeters>375</AltitudeMeters>
            <DistanceMeters>NAN</DistanceMeters>
          </Trackpoint>
          <Trackpoint>
            <Time>2019-10-08T13:32:49.000Z</Time>
            <Position>
              <LatitudeDegrees>39.471040852367877960205078125</LatitudeDegrees>
              <LongitudeDegrees>-6.37716692872345447540283203125</LongitudeDegrees>
            </Position>
            <AltitudeMeters>374.600006103515625</AltitudeMeters>
            <DistanceMeters>NAN</DistanceMeters>
          </Trackpoint>
          <Trackpoint>
            <Time>2019-10-08T13:32:50.000Z</Time>
            <Position>
              <LatitudeDegrees>39.471040852367877960205078125</LatitudeDegrees>
              <LongitudeDegrees>-6.37716692872345447540283203125</LongitudeDegrees>
            </Position>
            <AltitudeMeters>374.79998779296875</AltitudeMeters>
            <DistanceMeters>NAN</DistanceMeters>
          </Trackpoint>
          <Trackpoint>
            <Time>2019-10-08T13:32:51.000Z</Time>
            <Position>
              <LatitudeDegrees>39.471040852367877960205078125</LatitudeDegrees>
              <LongitudeDegrees>-6.37716692872345447540283203125</LongitudeDegrees>
            </Position>
            <AltitudeMeters>374.600006103515625</AltitudeMeters>
            <DistanceMeters>NAN</DistanceMeters>
          </Trackpoint>
          <Trackpoint>
            <Time>2019-10-08T13:32:52.000Z</Time>
            <Position>
              <LatitudeDegrees>39.471040852367877960205078125</LatitudeDegrees>
              <LongitudeDegrees>-6.37716692872345447540283203125</LongitudeDegrees>
            </Position>
            <AltitudeMeters>374.600006103515625</AltitudeMeters>
            <DistanceMeters>NAN</DistanceMeters>
          </Trackpoint>
          <Trackpoint>
            <Time>2019-10-08T13:32:54.000Z</Time>
            <Position>
              <LatitudeDegrees>39.471040852367877960205078125</LatitudeDegrees>
              <LongitudeDegrees>-6.37716692872345447540283203125</LongitudeDegrees>
            </Position>
            <AltitudeMeters>374.600006103515625</AltitudeMeters>
            <DistanceMeters>NAN</DistanceMeters>
          </Trackpoint>
          <Trackpoint>
            <Time>2019-10-08T13:32:56.000Z</Time>
            <Position>
              <LatitudeDegrees>39.471040852367877960205078125</LatitudeDegrees>
              <LongitudeDegrees>-6.37716692872345447540283203125</LongitudeDegrees>
            </Position>
            <AltitudeMeters>374.600006103515625</AltitudeMeters>
            <DistanceMeters>NAN</DistanceMeters>
          </Trackpoint>
          <Trackpoint>
            <Time>2019-10-08T13:32:59.000Z</Time>
            <Position>
              <LatitudeDegrees>39.471040852367877960205078125</LatitudeDegrees>
              <LongitudeDegrees>-6.37716692872345447540283203125</LongitudeDegrees>
            </Position>
            <AltitudeMeters>374.79998779296875</AltitudeMeters>
            <DistanceMeters>NAN</DistanceMeters>
          </Trackpoint>
          <Trackpoint>
            <Time>2019-10-08T13:33:01.000Z</Time>
            <Position>
              <LatitudeDegrees>39.471040852367877960205078125</LatitudeDegrees>
              <LongitudeDegrees>-6.37716692872345447540283203125</LongitudeDegrees>
            </Position>
            <AltitudeMeters>374.79998779296875</AltitudeMeters>
            <DistanceMeters>NAN</DistanceMeters>
          </Trackpoint>
          <Trackpoint>
            <Time>2019-10-08T13:33:03.000Z</Time>
            <Position>
              <LatitudeDegrees>39.4710473902523517608642578125</LatitudeDegrees>
              <LongitudeDegrees>-6.37716315686702728271484375</LongitudeDegrees>
            </Position>
            <AltitudeMeters>374.79998779296875</AltitudeMeters>
            <DistanceMeters>NAN</DistanceMeters>
          </Trackpoint>
          <Trackpoint>
            <Time>2019-10-08T13:33:04.000Z</Time>
            <Position>
              <LatitudeDegrees>39.4710473902523517608642578125</LatitudeDegrees>
              <LongitudeDegrees>-6.37716315686702728271484375</LongitudeDegrees>
            </Position>
            <AltitudeMeters>374.600006103515625</AltitudeMeters>
            <DistanceMeters>NAN</DistanceMeters>
          </Trackpoint>
          <Trackpoint>
            <Time>2019-10-08T13:33:06.000Z</Time>
            <Position>
              <LatitudeDegrees>39.4710473902523517608642578125</LatitudeDegrees>
              <LongitudeDegrees>-6.37716315686702728271484375</LongitudeDegrees>
            </Position>
            <AltitudeMeters>374.600006103515625</AltitudeMeters>
            <DistanceMeters>NAN</DistanceMeters>
          </Trackpoint>
          <Trackpoint>
            <Time>2019-10-08T13:33:07.000Z</Time>
            <Position>
              <LatitudeDegrees>39.4710473902523517608642578125</LatitudeDegrees>
              <LongitudeDegrees>-6.37716315686702728271484375</LongitudeDegrees>
            </Position>
            <AltitudeMeters>374.600006103515625</AltitudeMeters>
            <DistanceMeters>NAN</DistanceMeters>
          </Trackpoint>
          <Trackpoint>
            <Time>2019-10-08T13:33:09.000Z</Time>
            <Position>
              <LatitudeDegrees>39.4710473902523517608642578125</LatitudeDegrees>
              <LongitudeDegrees>-6.37716315686702728271484375</LongitudeDegrees>
            </Position>
            <AltitudeMeters>374.79998779296875</AltitudeMeters>
            <DistanceMeters>NAN</DistanceMeters>
          </Trackpoint>
          <Trackpoint>
            <Time>2019-10-08T13:33:10.000Z</Time>
            <Position>
              <LatitudeDegrees>39.4710473902523517608642578125</LatitudeDegrees>
              <LongitudeDegrees>-6.37716315686702728271484375</LongitudeDegrees>
            </Position>
            <AltitudeMeters>374.79998779296875</AltitudeMeters>
            <DistanceMeters>NAN</DistanceMeters>
          </Trackpoint>
          <Trackpoint>
            <Time>2019-10-08T13:33:11.000Z</Time>
            <Position>
              <LatitudeDegrees>39.4710473902523517608642578125</LatitudeDegrees>
              <LongitudeDegrees>-6.37716315686702728271484375</LongitudeDegrees>
            </Position>
            <AltitudeMeters>374.600006103515625</AltitudeMeters>
            <DistanceMeters>NAN</DistanceMeters>
          </Trackpoint>
          <Trackpoint>
            <Time>2019-10-08T13:33:12.000Z</Time>
            <Position>
              <LatitudeDegrees>39.4710473902523517608642578125</LatitudeDegrees>
              <LongitudeDegrees>-6.37716315686702728271484375</LongitudeDegrees>
            </Position>
            <AltitudeMeters>374.600006103515625</AltitudeMeters>
            <DistanceMeters>NAN</DistanceMeters>
          </Trackpoint>
          <Trackpoint>
            <Time>2019-10-08T13:33:13.000Z</Time>
            <Position>
              <LatitudeDegrees>39.4710473902523517608642578125</LatitudeDegrees>
              <LongitudeDegrees>-6.37716315686702728271484375</LongitudeDegrees>
            </Position>
            <AltitudeMeters>374.600006103515625</AltitudeMeters>
            <DistanceMeters>NAN</DistanceMeters>
          </Trackpoint>
          <Trackpoint>
            <Time>2019-10-08T13:33:15.000Z</Time>
            <Position>
              <LatitudeDegrees>39.4710473902523517608642578125</LatitudeDegrees>
              <LongitudeDegrees>-6.37716315686702728271484375</LongitudeDegrees>
            </Position>
            <AltitudeMeters>374.79998779296875</AltitudeMeters>
            <DistanceMeters>NAN</DistanceMeters>
          </Trackpoint>
          <Trackpoint>
            <Time>2019-10-08T13:33:20.000Z</Time>
            <Position>
              <LatitudeDegrees>39.4710473902523517608642578125</LatitudeDegrees>
              <LongitudeDegrees>-6.37716315686702728271484375</LongitudeDegrees>
            </Position>
            <AltitudeMeters>374.79998779296875</AltitudeMeters>
            <DistanceMeters>NAN</DistanceMeters>
          </Trackpoint>
          <Trackpoint>
            <Time>2019-10-08T13:33:21.000Z</Time>
            <Position>
              <LatitudeDegrees>39.4710473902523517608642578125</LatitudeDegrees>
              <LongitudeDegrees>-6.37716315686702728271484375</LongitudeDegrees>
            </Position>
            <AltitudeMeters>375</AltitudeMeters>
            <DistanceMeters>NAN</DistanceMeters>
          </Trackpoint>
          <Trackpoint>
            <Time>2019-10-08T13:33:25.000Z</Time>
            <Position>
              <LatitudeDegrees>39.4710473902523517608642578125</LatitudeDegrees>
              <LongitudeDegrees>-6.37716315686702728271484375</LongitudeDegrees>
            </Position>
            <AltitudeMeters>375</AltitudeMeters>
            <DistanceMeters>NAN</DistanceMeters>
          </Trackpoint>
          <Trackpoint>
            <Time>2019-10-08T13:33:27.000Z</Time>
            <Position>
              <LatitudeDegrees>39.4710473902523517608642578125</LatitudeDegrees>
              <LongitudeDegrees>-6.37716315686702728271484375</LongitudeDegrees>
            </Position>
            <AltitudeMeters>375</AltitudeMeters>
            <DistanceMeters>NAN</DistanceMeters>
          </Trackpoint>
          <Trackpoint>
            <Time>2019-10-08T13:33:28.000Z</Time>
            <Position>
              <LatitudeDegrees>39.4710473902523517608642578125</LatitudeDegrees>
              <LongitudeDegrees>-6.37716315686702728271484375</LongitudeDegrees>
            </Position>
            <AltitudeMeters>374.79998779296875</AltitudeMeters>
            <DistanceMeters>NAN</DistanceMeters>
          </Trackpoint>
          <Trackpoint>
            <Time>2019-10-08T13:33:31.000Z</Time>
            <Position>
              <LatitudeDegrees>39.4710473902523517608642578125</LatitudeDegrees>
              <LongitudeDegrees>-6.37716315686702728271484375</LongitudeDegrees>
            </Position>
            <AltitudeMeters>374.79998779296875</AltitudeMeters>
            <DistanceMeters>NAN</DistanceMeters>
          </Trackpoint>
          <Trackpoint>
            <Time>2019-10-08T13:33:33.000Z</Time>
            <Position>
              <LatitudeDegrees>39.4710473902523517608642578125</LatitudeDegrees>
              <LongitudeDegrees>-6.37716315686702728271484375</LongitudeDegrees>
            </Position>
            <AltitudeMeters>374.600006103515625</AltitudeMeters>
            <DistanceMeters>NAN</DistanceMeters>
          </Trackpoint>
          <Trackpoint>
            <Time>2019-10-08T13:33:40.000Z</Time>
            <Position>
              <LatitudeDegrees>39.4710473902523517608642578125</LatitudeDegrees>
              <LongitudeDegrees>-6.37716315686702728271484375</LongitudeDegrees>
            </Position>
            <AltitudeMeters>375</AltitudeMeters>
            <DistanceMeters>NAN</DistanceMeters>
          </Trackpoint>
          <Trackpoint>
            <Time>2019-10-08T13:33:42.000Z</Time>
            <Position>
              <LatitudeDegrees>39.4710473902523517608642578125</LatitudeDegrees>
              <LongitudeDegrees>-6.37716315686702728271484375</LongitudeDegrees>
            </Position>
            <AltitudeMeters>374.79998779296875</AltitudeMeters>
            <DistanceMeters>NAN</DistanceMeters>
          </Trackpoint>
          <Trackpoint>
            <Time>2019-10-08T13:33:46.000Z</Time>
            <Position>
              <LatitudeDegrees>39.47106809355318546295166015625</LatitudeDegrees>
              <LongitudeDegrees>-6.37715452350676059722900390625</LongitudeDegrees>
            </Position>
            <AltitudeMeters>374.600006103515625</AltitudeMeters>
            <DistanceMeters>NAN</DistanceMeters>
          </Trackpoint>
          <Trackpoint>
            <Time>2019-10-08T13:33:48.000Z</Time>
            <Position>
              <LatitudeDegrees>39.4710675068199634552001953125</LatitudeDegrees>
              <LongitudeDegrees>-6.37714999727904796600341796875</LongitudeDegrees>
            </Position>
            <AltitudeMeters>374.79998779296875</AltitudeMeters>
            <DistanceMeters>NAN</DistanceMeters>
          </Trackpoint>
          <Trackpoint>
            <Time>2019-10-08T13:33:51.000Z</Time>
            <Position>
              <LatitudeDegrees>39.4710738770663738250732421875</LatitudeDegrees>
              <LongitudeDegrees>-6.37715242803096771240234375</LongitudeDegrees>
            </Position>
            <AltitudeMeters>374.600006103515625</AltitudeMeters>
            <DistanceMeters>NAN</DistanceMeters>
          </Trackpoint>
          <Trackpoint>
            <Time>2019-10-08T13:33:52.000Z</Time>
            <Position>
              <LatitudeDegrees>39.4710981845855712890625</LatitudeDegrees>
              <LongitudeDegrees>-6.37713876552879810333251953125</LongitudeDegrees>
            </Position>
            <AltitudeMeters>374.600006103515625</AltitudeMeters>
            <DistanceMeters>NAN</DistanceMeters>
          </Trackpoint>
          <Trackpoint>
            <Time>2019-10-08T13:33:53.000Z</Time>
            <Position>
              <LatitudeDegrees>39.47111704386770725250244140625</LatitudeDegrees>
              <LongitudeDegrees>-6.377123929560184478759765625</LongitudeDegrees>
            </Position>
            <AltitudeMeters>374.600006103515625</AltitudeMeters>
            <DistanceMeters>NAN</DistanceMeters>
          </Trackpoint>
          <Trackpoint>
            <Time>2019-10-08T13:33:56.000Z</Time>
            <Position>
              <LatitudeDegrees>39.47114671580493450164794921875</LatitudeDegrees>
              <LongitudeDegrees>-6.37710104696452617645263671875</LongitudeDegrees>
            </Position>
            <AltitudeMeters>374.79998779296875</AltitudeMeters>
            <DistanceMeters>NAN</DistanceMeters>
          </Trackpoint>
          <Trackpoint>
            <Time>2019-10-08T13:33:57.000Z</Time>
            <Position>
              <LatitudeDegrees>39.4711416028439998626708984375</LatitudeDegrees>
              <LongitudeDegrees>-6.3771049864590167999267578125</LongitudeDegrees>
            </Position>
            <AltitudeMeters>374.600006103515625</AltitudeMeters>
            <DistanceMeters>NAN</DistanceMeters>
          </Trackpoint>
          <Trackpoint>
            <Time>2019-10-08T13:33:58.000Z</Time>
            <Position>
              <LatitudeDegrees>39.4711432792246341705322265625</LatitudeDegrees>
              <LongitudeDegrees>-6.3771033100783824920654296875</LongitudeDegrees>
            </Position>
            <AltitudeMeters>374.79998779296875</AltitudeMeters>
            <DistanceMeters>NAN</DistanceMeters>
          </Trackpoint>
          <Trackpoint>
            <Time>2019-10-08T13:34:02.000Z</Time>
            <Position>
              <LatitudeDegrees>39.4711432792246341705322265625</LatitudeDegrees>
              <LongitudeDegrees>-6.3771033100783824920654296875</LongitudeDegrees>
            </Position>
            <AltitudeMeters>374.600006103515625</AltitudeMeters>
            <DistanceMeters>NAN</DistanceMeters>
          </Trackpoint>
          <Trackpoint>
            <Time>2019-10-08T13:34:03.000Z</Time>
            <Position>
              <LatitudeDegrees>39.4711432792246341705322265625</LatitudeDegrees>
              <LongitudeDegrees>-6.3771033100783824920654296875</LongitudeDegrees>
            </Position>
            <AltitudeMeters>374.600006103515625</AltitudeMeters>
            <DistanceMeters>NAN</DistanceMeters>
          </Trackpoint>
          <Trackpoint>
            <Time>2019-10-08T13:34:05.000Z</Time>
            <Position>
              <LatitudeDegrees>39.4711432792246341705322265625</LatitudeDegrees>
              <LongitudeDegrees>-6.3771033100783824920654296875</LongitudeDegrees>
            </Position>
            <AltitudeMeters>374.600006103515625</AltitudeMeters>
            <DistanceMeters>NAN</DistanceMeters>
          </Trackpoint>
          <Trackpoint>
            <Time>2019-10-08T13:34:10.000Z</Time>
            <Position>
              <LatitudeDegrees>39.4711922295391559600830078125</LatitudeDegrees>
              <LongitudeDegrees>-6.37708361260592937469482421875</LongitudeDegrees>
            </Position>
            <AltitudeMeters>374.600006103515625</AltitudeMeters>
            <DistanceMeters>NAN</DistanceMeters>
          </Trackpoint>
          <Trackpoint>
            <Time>2019-10-08T13:34:11.000Z</Time>
            <Position>
              <LatitudeDegrees>39.47122265584766864776611328125</LatitudeDegrees>
              <LongitudeDegrees>-6.37706751935184001922607421875</LongitudeDegrees>
            </Position>
            <AltitudeMeters>374</AltitudeMeters>
            <DistanceMeters>NAN</DistanceMeters>
          </Trackpoint>
          <Trackpoint>
            <Time>2019-10-08T13:34:15.000Z</Time>
            <Position>
              <LatitudeDegrees>39.47134704329073429107666015625</LatitudeDegrees>
              <LongitudeDegrees>-6.37699551880359649658203125</LongitudeDegrees>
            </Position>
            <AltitudeMeters>373.79998779296875</AltitudeMeters>
            <DistanceMeters>NAN</DistanceMeters>
          </Trackpoint>
          <Trackpoint>
            <Time>2019-10-08T13:34:17.000Z</Time>
            <Position>
              <LatitudeDegrees>39.47140588425099849700927734375</LatitudeDegrees>
              <LongitudeDegrees>-6.37695738114416599273681640625</LongitudeDegrees>
            </Position>
            <AltitudeMeters>373.399993896484375</AltitudeMeters>
            <DistanceMeters>NAN</DistanceMeters>
          </Trackpoint>
          <Trackpoint>
            <Time>2019-10-08T13:34:20.000Z</Time>
            <Position>
              <LatitudeDegrees>39.47152105160057544708251953125</LatitudeDegrees>
              <LongitudeDegrees>-6.37687121517956256866455078125</LongitudeDegrees>
            </Position>
            <AltitudeMeters>373</AltitudeMeters>
            <DistanceMeters>NAN</DistanceMeters>
          </Trackpoint>
          <Trackpoint>
            <Time>2019-10-08T13:34:23.000Z</Time>
            <Position>
              <LatitudeDegrees>39.4716528989374637603759765625</LatitudeDegrees>
              <LongitudeDegrees>-6.37678219936788082122802734375</LongitudeDegrees>
            </Position>
            <AltitudeMeters>372.79998779296875</AltitudeMeters>
            <DistanceMeters>NAN</DistanceMeters>
          </Trackpoint>
          <Trackpoint>
            <Time>2019-10-08T13:34:24.000Z</Time>
            <Position>
              <LatitudeDegrees>39.47168936021625995635986328125</LatitudeDegrees>
              <LongitudeDegrees>-6.37674741446971893310546875</LongitudeDegrees>
            </Position>
            <AltitudeMeters>372.79998779296875</AltitudeMeters>
            <DistanceMeters>NAN</DistanceMeters>
          </Trackpoint>
          <Trackpoint>
            <Time>2019-10-08T13:34:26.000Z</Time>
            <Position>
              <LatitudeDegrees>39.47175876237452030181884765625</LatitudeDegrees>
              <LongitudeDegrees>-6.376681029796600341796875</LongitudeDegrees>
            </Position>
            <AltitudeMeters>372.600006103515625</AltitudeMeters>
            <DistanceMeters>NAN</DistanceMeters>
          </Trackpoint>
          <Trackpoint>
            <Time>2019-10-08T13:34:28.000Z</Time>
            <Position>
              <LatitudeDegrees>39.47182984091341495513916015625</LatitudeDegrees>
              <LongitudeDegrees>-6.3766107894480228424072265625</LongitudeDegrees>
            </Position>
            <AltitudeMeters>372.399993896484375</AltitudeMeters>
            <DistanceMeters>NAN</DistanceMeters>
          </Trackpoint>
          <Trackpoint>
            <Time>2019-10-08T13:34:30.000Z</Time>
            <Position>
              <LatitudeDegrees>39.47190821170806884765625</LatitudeDegrees>
              <LongitudeDegrees>-6.37654465623199939727783203125</LongitudeDegrees>
            </Position>
            <AltitudeMeters>372</AltitudeMeters>
            <DistanceMeters>NAN</DistanceMeters>
          </Trackpoint>
          <Trackpoint>
            <Time>2019-10-08T13:34:32.000Z</Time>
            <Position>
              <LatitudeDegrees>39.47198926471173763275146484375</LatitudeDegrees>
              <LongitudeDegrees>-6.37648321688175201416015625</LongitudeDegrees>
            </Position>
            <AltitudeMeters>371.79998779296875</AltitudeMeters>
            <DistanceMeters>NAN</DistanceMeters>
          </Trackpoint>
          <Trackpoint>
            <Time>2019-10-08T13:34:35.000Z</Time>
            <Position>
              <LatitudeDegrees>39.4721160829067230224609375</LatitudeDegrees>
              <LongitudeDegrees>-6.37638053856790065765380859375</LongitudeDegrees>
            </Position>
            <AltitudeMeters>371.600006103515625</AltitudeMeters>
            <DistanceMeters>NAN</DistanceMeters>
          </Trackpoint>
          <Trackpoint>
            <Time>2019-10-08T13:34:38.000Z</Time>
            <Position>
              <LatitudeDegrees>39.47224742732942104339599609375</LatitudeDegrees>
              <LongitudeDegrees>-6.37628029100596904754638671875</LongitudeDegrees>
            </Position>
            <AltitudeMeters>372.20001220703125</AltitudeMeters>
            <DistanceMeters>NAN</DistanceMeters>
          </Trackpoint>
          <Trackpoint>
            <Time>2019-10-08T13:34:39.000Z</Time>
            <Position>
              <LatitudeDegrees>39.472286403179168701171875</LatitudeDegrees>
              <LongitudeDegrees>-6.37624525465071201324462890625</LongitudeDegrees>
            </Position>
            <AltitudeMeters>372.20001220703125</AltitudeMeters>
            <DistanceMeters>NAN</DistanceMeters>
          </Trackpoint>
          <Trackpoint>
            <Time>2019-10-08T13:34:43.000Z</Time>
            <Position>
              <LatitudeDegrees>39.4724578969180583953857421875</LatitudeDegrees>
              <LongitudeDegrees>-6.37611215002834796905517578125</LongitudeDegrees>
            </Position>
            <AltitudeMeters>372.20001220703125</AltitudeMeters>
            <DistanceMeters>NAN</DistanceMeters>
          </Trackpoint>
          <Trackpoint>
            <Time>2019-10-08T13:34:44.000Z</Time>
            <Position>
              <LatitudeDegrees>39.4724969565868377685546875</LatitudeDegrees>
              <LongitudeDegrees>-6.376072503626346588134765625</LongitudeDegrees>
            </Position>
            <AltitudeMeters>372</AltitudeMeters>
            <DistanceMeters>NAN</DistanceMeters>
          </Trackpoint>
          <Trackpoint>
            <Time>2019-10-08T13:34:45.000Z</Time>
            <Position>
              <LatitudeDegrees>39.47253442369401454925537109375</LatitudeDegrees>
              <LongitudeDegrees>-6.37603185139596462249755859375</LongitudeDegrees>
            </Position>
            <AltitudeMeters>372</AltitudeMeters>
            <DistanceMeters>NAN</DistanceMeters>
          </Trackpoint>
          <Trackpoint>
            <Time>2019-10-08T13:34:47.000Z</Time>
            <Position>
              <LatitudeDegrees>39.472595863044261932373046875</LatitudeDegrees>
              <LongitudeDegrees>-6.37594266794621944427490234375</LongitudeDegrees>
            </Position>
            <AltitudeMeters>372</AltitudeMeters>
            <DistanceMeters>NAN</DistanceMeters>
          </Trackpoint>
          <Trackpoint>
            <Time>2019-10-08T13:34:49.000Z</Time>
            <Position>
              <LatitudeDegrees>39.4726610742509365081787109375</LatitudeDegrees>
              <LongitudeDegrees>-6.37585423886775970458984375</LongitudeDegrees>
            </Position>
            <AltitudeMeters>371.79998779296875</AltitudeMeters>
            <DistanceMeters>NAN</DistanceMeters>
          </Trackpoint>
          <Trackpoint>
            <Time>2019-10-08T13:34:50.000Z</Time>
            <Position>
              <LatitudeDegrees>39.4726952724158763885498046875</LatitudeDegrees>
              <LongitudeDegrees>-6.37581459246575832366943359375</LongitudeDegrees>
            </Position>
            <AltitudeMeters>371.600006103515625</AltitudeMeters>
            <DistanceMeters>NAN</DistanceMeters>
          </Trackpoint>
          <Trackpoint>
            <Time>2019-10-08T13:34:52.000Z</Time>
            <Position>
              <LatitudeDegrees>39.4727613218128681182861328125</LatitudeDegrees>
              <LongitudeDegrees>-6.37572675012052059173583984375</LongitudeDegrees>
            </Position>
            <AltitudeMeters>371.399993896484375</AltitudeMeters>
            <DistanceMeters>NAN</DistanceMeters>
          </Trackpoint>
          <Trackpoint>
            <Time>2019-10-08T13:34:53.000Z</Time>
            <Position>
              <LatitudeDegrees>39.4728028960525989532470703125</LatitudeDegrees>
              <LongitudeDegrees>-6.375690288841724395751953125</LongitudeDegrees>
            </Position>
            <AltitudeMeters>371.20001220703125</AltitudeMeters>
            <DistanceMeters>NAN</DistanceMeters>
          </Trackpoint>
          <Trackpoint>
            <Time>2019-10-08T13:34:54.000Z</Time>
            <Position>
              <LatitudeDegrees>39.472849667072296142578125</LatitudeDegrees>
              <LongitudeDegrees>-6.37565097771584987640380859375</LongitudeDegrees>
            </Position>
            <AltitudeMeters>370.79998779296875</AltitudeMeters>
            <DistanceMeters>NAN</DistanceMeters>
          </Trackpoint>
          <Trackpoint>
            <Time>2019-10-08T13:34:55.000Z</Time>
            <Position>
              <LatitudeDegrees>39.47290004231035709381103515625</LatitudeDegrees>
              <LongitudeDegrees>-6.3756052963435649871826171875</LongitudeDegrees>
            </Position>
            <AltitudeMeters>370.399993896484375</AltitudeMeters>
            <DistanceMeters>NAN</DistanceMeters>
          </Trackpoint>
          <Trackpoint>
            <Time>2019-10-08T13:34:56.000Z</Time>
            <Position>
              <LatitudeDegrees>39.4729537703096866607666015625</LatitudeDegrees>
              <LongitudeDegrees>-6.375554837286472320556640625</LongitudeDegrees>
            </Position>
            <AltitudeMeters>369.79998779296875</AltitudeMeters>
            <DistanceMeters>NAN</DistanceMeters>
          </Trackpoint>
          <Trackpoint>
            <Time>2019-10-08T13:34:59.000Z</Time>
            <Position>
              <LatitudeDegrees>39.47310992516577243804931640625</LatitudeDegrees>
              <LongitudeDegrees>-6.37541092000901699066162109375</LongitudeDegrees>
            </Position>
            <AltitudeMeters>368.600006103515625</AltitudeMeters>
            <DistanceMeters>NAN</DistanceMeters>
          </Trackpoint>
          <Trackpoint>
            <Time>2019-10-08T13:35:00.000Z</Time>
            <Position>
              <LatitudeDegrees>39.47315476834774017333984375</LatitudeDegrees>
              <LongitudeDegrees>-6.37536766938865184783935546875</LongitudeDegrees>
            </Position>
            <AltitudeMeters>368.399993896484375</AltitudeMeters>
            <DistanceMeters>NAN</DistanceMeters>
          </Trackpoint>
          <Trackpoint>
            <Time>2019-10-08T13:35:01.000Z</Time>
            <Position>
              <LatitudeDegrees>39.47319307364523410797119140625</LatitudeDegrees>
              <LongitudeDegrees>-6.37531653977930545806884765625</LongitudeDegrees>
            </Position>
            <AltitudeMeters>368.399993896484375</AltitudeMeters>
            <DistanceMeters>NAN</DistanceMeters>
          </Trackpoint>
          <Trackpoint>
            <Time>2019-10-08T13:35:03.000Z</Time>
            <Position>
              <LatitudeDegrees>39.473271109163761138916015625</LatitudeDegrees>
              <LongitudeDegrees>-6.37520036660134792327880859375</LongitudeDegrees>
            </Position>
            <AltitudeMeters>367.600006103515625</AltitudeMeters>
            <DistanceMeters>NAN</DistanceMeters>
          </Trackpoint>
          <Trackpoint>
            <Time>2019-10-08T13:35:05.000Z</Time>
            <Position>
              <LatitudeDegrees>39.4733433611690998077392578125</LatitudeDegrees>
              <LongitudeDegrees>-6.37509995140135288238525390625</LongitudeDegrees>
            </Position>
            <AltitudeMeters>367.79998779296875</AltitudeMeters>
            <DistanceMeters>NAN</DistanceMeters>
          </Trackpoint>
          <Trackpoint>
            <Time>2019-10-08T13:35:07.000Z</Time>
            <Position>
              <LatitudeDegrees>39.473385103046894073486328125</LatitudeDegrees>
              <LongitudeDegrees>-6.3750148750841617584228515625</LongitudeDegrees>
            </Position>
            <AltitudeMeters>368.600006103515625</AltitudeMeters>
            <DistanceMeters>NAN</DistanceMeters>
          </Trackpoint>
          <Trackpoint>
            <Time>2019-10-08T13:35:09.000Z</Time>
            <Position>
              <LatitudeDegrees>39.4734330475330352783203125</LatitudeDegrees>
              <LongitudeDegrees>-6.37496181763708591461181640625</LongitudeDegrees>
            </Position>
            <AltitudeMeters>369.20001220703125</AltitudeMeters>
            <DistanceMeters>NAN</DistanceMeters>
          </Trackpoint>
          <Trackpoint>
            <Time>2019-10-08T13:35:11.000Z</Time>
            <Position>
              <LatitudeDegrees>39.4734838418662548065185546875</LatitudeDegrees>
              <LongitudeDegrees>-6.3749075867235660552978515625</LongitudeDegrees>
            </Position>
            <AltitudeMeters>370</AltitudeMeters>
            <DistanceMeters>NAN</DistanceMeters>
          </Trackpoint>
          <Trackpoint>
            <Time>2019-10-08T13:35:13.000Z</Time>
            <Position>
              <LatitudeDegrees>39.47354259900748729705810546875</LatitudeDegrees>
              <LongitudeDegrees>-6.37485536746680736541748046875</LongitudeDegrees>
            </Position>
            <AltitudeMeters>370.600006103515625</AltitudeMeters>
            <DistanceMeters>NAN</DistanceMeters>
          </Trackpoint>
          <Trackpoint>
            <Time>2019-10-08T13:35:14.000Z</Time>
            <Position>
              <LatitudeDegrees>39.47358400560915470123291015625</LatitudeDegrees>
              <LongitudeDegrees>-6.37479719705879688262939453125</LongitudeDegrees>
            </Position>
            <AltitudeMeters>371</AltitudeMeters>
            <DistanceMeters>NAN</DistanceMeters>
          </Trackpoint>
          <Trackpoint>
            <Time>2019-10-08T13:35:15.000Z</Time>
            <Position>
              <LatitudeDegrees>39.47360672056674957275390625</LatitudeDegrees>
              <LongitudeDegrees>-6.37476283125579357147216796875</LongitudeDegrees>
            </Position>
            <AltitudeMeters>371.20001220703125</AltitudeMeters>
            <DistanceMeters>NAN</DistanceMeters>
          </Trackpoint>
          <Trackpoint>
            <Time>2019-10-08T13:35:17.000Z</Time>
            <Position>
              <LatitudeDegrees>39.47363597340881824493408203125</LatitudeDegrees>
              <LongitudeDegrees>-6.37470667250454425811767578125</LongitudeDegrees>
            </Position>
            <AltitudeMeters>371</AltitudeMeters>
            <DistanceMeters>NAN</DistanceMeters>
          </Trackpoint>
          <Trackpoint>
            <Time>2019-10-08T13:35:19.000Z</Time>
            <Position>
              <LatitudeDegrees>39.473675787448883056640625</LatitudeDegrees>
              <LongitudeDegrees>-6.3746618293225765228271484375</LongitudeDegrees>
            </Position>
            <AltitudeMeters>372</AltitudeMeters>
            <DistanceMeters>NAN</DistanceMeters>
          </Trackpoint>
          <Trackpoint>
            <Time>2019-10-08T13:35:20.000Z</Time>
            <Position>
              <LatitudeDegrees>39.47370537556707859039306640625</LatitudeDegrees>
              <LongitudeDegrees>-6.37464464642107486724853515625</LongitudeDegrees>
            </Position>
            <AltitudeMeters>372.20001220703125</AltitudeMeters>
            <DistanceMeters>NAN</DistanceMeters>
          </Trackpoint>
          <Trackpoint>
            <Time>2019-10-08T13:35:22.000Z</Time>
            <Position>
              <LatitudeDegrees>39.4737708382308483123779296875</LatitudeDegrees>
              <LongitudeDegrees>-6.37460223399102687835693359375</LongitudeDegrees>
            </Position>
            <AltitudeMeters>372.600006103515625</AltitudeMeters>
            <DistanceMeters>NAN</DistanceMeters>
          </Trackpoint>
          <Trackpoint>
            <Time>2019-10-08T13:35:23.000Z</Time>
            <Position>
              <LatitudeDegrees>39.47380444966256618499755859375</LatitudeDegrees>
              <LongitudeDegrees>-6.37458622455596923828125</LongitudeDegrees>
            </Position>
            <AltitudeMeters>373</AltitudeMeters>
            <DistanceMeters>NAN</DistanceMeters>
          </Trackpoint>
          <Trackpoint>
            <Time>2019-10-08T13:35:25.000Z</Time>
            <Position>
              <LatitudeDegrees>39.47386077605187892913818359375</LatitudeDegrees>
              <LongitudeDegrees>-6.37452428229153156280517578125</LongitudeDegrees>
            </Position>
            <AltitudeMeters>373.20001220703125</AltitudeMeters>
            <DistanceMeters>NAN</DistanceMeters>
          </Trackpoint>
          <Trackpoint>
            <Time>2019-10-08T13:35:27.000Z</Time>
            <Position>
              <LatitudeDegrees>39.4739247299730777740478515625</LatitudeDegrees>
              <LongitudeDegrees>-6.37445949018001556396484375</LongitudeDegrees>
            </Position>
            <AltitudeMeters>373.399993896484375</AltitudeMeters>
            <DistanceMeters>NAN</DistanceMeters>
          </Trackpoint>
          <Trackpoint>
            <Time>2019-10-08T13:35:28.000Z</Time>
            <Position>
              <LatitudeDegrees>39.473953731358051300048828125</LatitudeDegrees>
              <LongitudeDegrees>-6.37442487291991710662841796875</LongitudeDegrees>
            </Position>
            <AltitudeMeters>373.399993896484375</AltitudeMeters>
            <DistanceMeters>NAN</DistanceMeters>
          </Trackpoint>
          <Trackpoint>
            <Time>2019-10-08T13:35:31.000Z</Time>
            <Position>
              <LatitudeDegrees>39.47404819540679454803466796875</LatitudeDegrees>
              <LongitudeDegrees>-6.3743275590240955352783203125</LongitudeDegrees>
            </Position>
            <AltitudeMeters>373.600006103515625</AltitudeMeters>
            <DistanceMeters>NAN</DistanceMeters>
          </Trackpoint>
          <Trackpoint>
            <Time>2019-10-08T13:35:33.000Z</Time>
            <Position>
              <LatitudeDegrees>39.4741071201860904693603515625</LatitudeDegrees>
              <LongitudeDegrees>-6.37425790540874004364013671875</LongitudeDegrees>
            </Position>
            <AltitudeMeters>373.79998779296875</AltitudeMeters>
            <DistanceMeters>NAN</DistanceMeters>
          </Trackpoint>
          <Trackpoint>
            <Time>2019-10-08T13:35:34.000Z</Time>
            <Position>
              <LatitudeDegrees>39.4741329364478588104248046875</LatitudeDegrees>
              <LongitudeDegrees>-6.37422655709087848663330078125</LongitudeDegrees>
            </Position>
            <AltitudeMeters>373.79998779296875</AltitudeMeters>
            <DistanceMeters>NAN</DistanceMeters>
          </Trackpoint>
          <Trackpoint>
            <Time>2019-10-08T13:35:39.000Z</Time>
            <Position>
              <LatitudeDegrees>39.47424064390361309051513671875</LatitudeDegrees>
              <LongitudeDegrees>-6.37407417409121990203857421875</LongitudeDegrees>
            </Position>
            <AltitudeMeters>373.600006103515625</AltitudeMeters>
            <DistanceMeters>NAN</DistanceMeters>
          </Trackpoint>
          <Trackpoint>
            <Time>2019-10-08T13:35:44.000Z</Time>
            <Position>
              <LatitudeDegrees>39.47439000941812992095947265625</LatitudeDegrees>
              <LongitudeDegrees>-6.3738789595663547515869140625</LongitudeDegrees>
            </Position>
            <AltitudeMeters>373</AltitudeMeters>
            <DistanceMeters>NAN</DistanceMeters>
          </Trackpoint>
          <Trackpoint>
            <Time>2019-10-08T13:35:45.000Z</Time>
            <Position>
              <LatitudeDegrees>39.47442613542079925537109375</LatitudeDegrees>
              <LongitudeDegrees>-6.37383679859340190887451171875</LongitudeDegrees>
            </Position>
            <AltitudeMeters>372.79998779296875</AltitudeMeters>
            <DistanceMeters>NAN</DistanceMeters>
          </Trackpoint>
          <Trackpoint>
            <Time>2019-10-08T13:35:49.000Z</Time>
            <Position>
              <LatitudeDegrees>39.4745174981653690338134765625</LatitudeDegrees>
              <LongitudeDegrees>-6.37373537756502628326416015625</LongitudeDegrees>
            </Position>
            <AltitudeMeters>372.600006103515625</AltitudeMeters>
            <DistanceMeters>NAN</DistanceMeters>
          </Trackpoint>
          <Trackpoint>
            <Time>2019-10-08T13:35:50.000Z</Time>
            <Position>
              <LatitudeDegrees>39.474518336355686187744140625</LatitudeDegrees>
              <LongitudeDegrees>-6.37372582219541072845458984375</LongitudeDegrees>
            </Position>
            <AltitudeMeters>372.600006103515625</AltitudeMeters>
            <DistanceMeters>NAN</DistanceMeters>
          </Trackpoint>
          <Trackpoint>
            <Time>2019-10-08T13:35:52.000Z</Time>
            <Position>
              <LatitudeDegrees>39.47450852952897548675537109375</LatitudeDegrees>
              <LongitudeDegrees>-6.3737133331596851348876953125</LongitudeDegrees>
            </Position>
            <AltitudeMeters>372.79998779296875</AltitudeMeters>
            <DistanceMeters>NAN</DistanceMeters>
          </Trackpoint>
          <Trackpoint>
            <Time>2019-10-08T13:35:53.000Z</Time>
            <Position>
              <LatitudeDegrees>39.474497549235820770263671875</LatitudeDegrees>
              <LongitudeDegrees>-6.37369095347821712493896484375</LongitudeDegrees>
            </Position>
            <AltitudeMeters>372.20001220703125</AltitudeMeters>
            <DistanceMeters>NAN</DistanceMeters>
          </Trackpoint>
          <Trackpoint>
            <Time>2019-10-08T13:35:54.000Z</Time>
            <Position>
              <LatitudeDegrees>39.474492855370044708251953125</LatitudeDegrees>
              <LongitudeDegrees>-6.37367821298539638519287109375</LongitudeDegrees>
            </Position>
            <AltitudeMeters>372</AltitudeMeters>
            <DistanceMeters>NAN</DistanceMeters>
          </Trackpoint>
          <Trackpoint>
            <Time>2019-10-08T13:35:56.000Z</Time>
            <Position>
              <LatitudeDegrees>39.4744776003062725067138671875</LatitudeDegrees>
              <LongitudeDegrees>-6.37367427349090576171875</LongitudeDegrees>
            </Position>
            <AltitudeMeters>370.79998779296875</AltitudeMeters>
            <DistanceMeters>NAN</DistanceMeters>
          </Trackpoint>
          <Trackpoint>
            <Time>2019-10-08T13:35:59.000Z</Time>
            <Position>
              <LatitudeDegrees>39.474474750459194183349609375</LatitudeDegrees>
              <LongitudeDegrees>-6.3736798055469989776611328125</LongitudeDegrees>
            </Position>
            <AltitudeMeters>369.600006103515625</AltitudeMeters>
            <DistanceMeters>NAN</DistanceMeters>
          </Trackpoint>
          <Trackpoint>
            <Time>2019-10-08T13:36:02.000Z</Time>
            <Position>
              <LatitudeDegrees>39.4744997285306453704833984375</LatitudeDegrees>
              <LongitudeDegrees>-6.37367670424282550811767578125</LongitudeDegrees>
            </Position>
            <AltitudeMeters>368.399993896484375</AltitudeMeters>
            <DistanceMeters>NAN</DistanceMeters>
          </Trackpoint>
          <Trackpoint>
            <Time>2019-10-08T13:36:03.000Z</Time>
            <Position>
              <LatitudeDegrees>39.4745154865086078643798828125</LatitudeDegrees>
              <LongitudeDegrees>-6.37367838062345981597900390625</LongitudeDegrees>
            </Position>
            <AltitudeMeters>368</AltitudeMeters>
            <DistanceMeters>NAN</DistanceMeters>
          </Trackpoint>
          <Trackpoint>
            <Time>2019-10-08T13:36:05.000Z</Time>
            <Position>
              <LatitudeDegrees>39.474548511207103729248046875</LatitudeDegrees>
              <LongitudeDegrees>-6.37362037785351276397705078125</LongitudeDegrees>
            </Position>
            <AltitudeMeters>367.399993896484375</AltitudeMeters>
            <DistanceMeters>NAN</DistanceMeters>
          </Trackpoint>
          <Trackpoint>
            <Time>2019-10-08T13:36:06.000Z</Time>
            <Position>
              <LatitudeDegrees>39.47454423643648624420166015625</LatitudeDegrees>
              <LongitudeDegrees>-6.373613588511943817138671875</LongitudeDegrees>
            </Position>
            <AltitudeMeters>367.399993896484375</AltitudeMeters>
            <DistanceMeters>NAN</DistanceMeters>
          </Trackpoint>
          <Trackpoint>
            <Time>2019-10-08T13:36:10.000Z</Time>
            <Position>
              <LatitudeDegrees>39.4744889996945858001708984375</LatitudeDegrees>
              <LongitudeDegrees>-6.3735849224030971527099609375</LongitudeDegrees>
            </Position>
            <AltitudeMeters>367.79998779296875</AltitudeMeters>
            <DistanceMeters>NAN</DistanceMeters>
          </Trackpoint>
          <Trackpoint>
            <Time>2019-10-08T13:36:11.000Z</Time>
            <Position>
              <LatitudeDegrees>39.474480450153350830078125</LatitudeDegrees>
              <LongitudeDegrees>-6.3735882751643657684326171875</LongitudeDegrees>
            </Position>
            <AltitudeMeters>367.79998779296875</AltitudeMeters>
            <DistanceMeters>NAN</DistanceMeters>
          </Trackpoint>
          <Trackpoint>
            <Time>2019-10-08T13:36:12.000Z</Time>
            <Position>
              <LatitudeDegrees>39.474454633891582489013671875</LatitudeDegrees>
              <LongitudeDegrees>-6.37357327155768871307373046875</LongitudeDegrees>
            </Position>
            <AltitudeMeters>367.79998779296875</AltitudeMeters>
            <DistanceMeters>NAN</DistanceMeters>
          </Trackpoint>
          <Trackpoint>
            <Time>2019-10-08T13:36:14.000Z</Time>
            <Position>
              <LatitudeDegrees>39.47441280819475650787353515625</LatitudeDegrees>
              <LongitudeDegrees>-6.3735597766935825347900390625</LongitudeDegrees>
            </Position>
            <AltitudeMeters>368</AltitudeMeters>
            <DistanceMeters>NAN</DistanceMeters>
          </Trackpoint>
          <Trackpoint>
            <Time>2019-10-08T13:36:17.000Z</Time>
            <Position>
              <LatitudeDegrees>39.4743423163890838623046875</LatitudeDegrees>
              <LongitudeDegrees>-6.3735222257673740386962890625</LongitudeDegrees>
            </Position>
            <AltitudeMeters>368.399993896484375</AltitudeMeters>
            <DistanceMeters>NAN</DistanceMeters>
          </Trackpoint>
          <Trackpoint>
            <Time>2019-10-08T13:36:21.000Z</Time>
            <Position>
              <LatitudeDegrees>39.47425506077706813812255859375</LatitudeDegrees>
              <LongitudeDegrees>-6.3735064677894115447998046875</LongitudeDegrees>
            </Position>
            <AltitudeMeters>368.79998779296875</AltitudeMeters>
            <DistanceMeters>NAN</DistanceMeters>
          </Trackpoint>
          <Trackpoint>
            <Time>2019-10-08T13:36:23.000Z</Time>
            <Position>
              <LatitudeDegrees>39.47421197779476642608642578125</LatitudeDegrees>
              <LongitudeDegrees>-6.37349179945886135101318359375</LongitudeDegrees>
            </Position>
            <AltitudeMeters>368.600006103515625</AltitudeMeters>
            <DistanceMeters>NAN</DistanceMeters>
          </Trackpoint>
          <Trackpoint>
            <Time>2019-10-08T13:36:24.000Z</Time>
            <Position>
              <LatitudeDegrees>39.47420108132064342498779296875</LatitudeDegrees>
              <LongitudeDegrees>-6.37348928488790988922119140625</LongitudeDegrees>
            </Position>
            <AltitudeMeters>368.79998779296875</AltitudeMeters>
            <DistanceMeters>NAN</DistanceMeters>
          </Trackpoint>
          <Trackpoint>
            <Time>2019-10-08T13:36:27.000Z</Time>
            <Position>
              <LatitudeDegrees>39.474186412990093231201171875</LatitudeDegrees>
              <LongitudeDegrees>-6.373492218554019927978515625</LongitudeDegrees>
            </Position>
            <AltitudeMeters>368.79998779296875</AltitudeMeters>
            <DistanceMeters>NAN</DistanceMeters>
          </Trackpoint>
          <Trackpoint>
            <Time>2019-10-08T13:36:28.000Z</Time>
            <Position>
              <LatitudeDegrees>39.4741714932024478912353515625</LatitudeDegrees>
              <LongitudeDegrees>-6.3734923861920833587646484375</LongitudeDegrees>
            </Position>
            <AltitudeMeters>368.79998779296875</AltitudeMeters>
            <DistanceMeters>NAN</DistanceMeters>
          </Trackpoint>
          <Trackpoint>
            <Time>2019-10-08T13:36:31.000Z</Time>
            <Position>
              <LatitudeDegrees>39.474078118801116943359375</LatitudeDegrees>
              <LongitudeDegrees>-6.373433209955692291259765625</LongitudeDegrees>
            </Position>
            <AltitudeMeters>368.600006103515625</AltitudeMeters>
            <DistanceMeters>NAN</DistanceMeters>
          </Trackpoint>
          <Trackpoint>
            <Time>2019-10-08T13:36:34.000Z</Time>
            <Position>
              <LatitudeDegrees>39.4740581698715686798095703125</LatitudeDegrees>
              <LongitudeDegrees>-6.37345039285719394683837890625</LongitudeDegrees>
            </Position>
            <AltitudeMeters>368.79998779296875</AltitudeMeters>
            <DistanceMeters>NAN</DistanceMeters>
          </Trackpoint>
          <Trackpoint>
            <Time>2019-10-08T13:36:36.000Z</Time>
            <Position>
              <LatitudeDegrees>39.474067054688930511474609375</LatitudeDegrees>
              <LongitudeDegrees>-6.3734618760645389556884765625</LongitudeDegrees>
            </Position>
            <AltitudeMeters>369</AltitudeMeters>
            <DistanceMeters>NAN</DistanceMeters>
          </Trackpoint>
          <Trackpoint>
            <Time>2019-10-08T13:36:40.000Z</Time>
            <Position>
              <LatitudeDegrees>39.47403361089527606964111328125</LatitudeDegrees>
              <LongitudeDegrees>-6.37345408089458942413330078125</LongitudeDegrees>
            </Position>
            <AltitudeMeters>369</AltitudeMeters>
            <DistanceMeters>NAN</DistanceMeters>
          </Trackpoint>
          <Trackpoint>
            <Time>2019-10-08T13:36:42.000Z</Time>
            <Position>
              <LatitudeDegrees>39.47403361089527606964111328125</LatitudeDegrees>
              <LongitudeDegrees>-6.37345408089458942413330078125</LongitudeDegrees>
            </Position>
            <AltitudeMeters>369.20001220703125</AltitudeMeters>
            <DistanceMeters>NAN</DistanceMeters>
          </Trackpoint>
          <Trackpoint>
            <Time>2019-10-08T13:36:47.000Z</Time>
            <Position>
              <LatitudeDegrees>39.47403361089527606964111328125</LatitudeDegrees>
              <LongitudeDegrees>-6.37345408089458942413330078125</LongitudeDegrees>
            </Position>
            <AltitudeMeters>369</AltitudeMeters>
            <DistanceMeters>NAN</DistanceMeters>
          </Trackpoint>
          <Trackpoint>
            <Time>2019-10-08T13:36:55.000Z</Time>
            <Position>
              <LatitudeDegrees>39.47403361089527606964111328125</LatitudeDegrees>
              <LongitudeDegrees>-6.37345408089458942413330078125</LongitudeDegrees>
            </Position>
            <AltitudeMeters>369.20001220703125</AltitudeMeters>
            <DistanceMeters>NAN</DistanceMeters>
          </Trackpoint>
          <Trackpoint>
            <Time>2019-10-08T13:37:03.000Z</Time>
            <Position>
              <LatitudeDegrees>39.47403361089527606964111328125</LatitudeDegrees>
              <LongitudeDegrees>-6.37345408089458942413330078125</LongitudeDegrees>
            </Position>
            <AltitudeMeters>369</AltitudeMeters>
            <DistanceMeters>NAN</DistanceMeters>
          </Trackpoint>
          <Trackpoint>
            <Time>2019-10-08T13:37:13.000Z</Time>
            <Position>
              <LatitudeDegrees>39.47403361089527606964111328125</LatitudeDegrees>
              <LongitudeDegrees>-6.37345408089458942413330078125</LongitudeDegrees>
            </Position>
            <AltitudeMeters>369.20001220703125</AltitudeMeters>
            <DistanceMeters>NAN</DistanceMeters>
          </Trackpoint>
          <Trackpoint>
            <Time>2019-10-08T13:37:14.000Z</Time>
            <Position>
              <LatitudeDegrees>39.47403361089527606964111328125</LatitudeDegrees>
              <LongitudeDegrees>-6.37345408089458942413330078125</LongitudeDegrees>
            </Position>
            <AltitudeMeters>369.20001220703125</AltitudeMeters>
            <DistanceMeters>NAN</DistanceMeters>
          </Trackpoint>
          <Trackpoint>
            <Time>2019-10-08T13:37:15.000Z</Time>
            <Position>
              <LatitudeDegrees>39.47403361089527606964111328125</LatitudeDegrees>
              <LongitudeDegrees>-6.37345408089458942413330078125</LongitudeDegrees>
            </Position>
            <AltitudeMeters>369.20001220703125</AltitudeMeters>
            <DistanceMeters>NAN</DistanceMeters>
          </Trackpoint>
          <Trackpoint>
            <Time>2019-10-08T13:37:19.000Z</Time>
            <Position>
              <LatitudeDegrees>39.47403361089527606964111328125</LatitudeDegrees>
              <LongitudeDegrees>-6.37345408089458942413330078125</LongitudeDegrees>
            </Position>
            <AltitudeMeters>369</AltitudeMeters>
            <DistanceMeters>NAN</DistanceMeters>
          </Trackpoint>
          <Trackpoint>
            <Time>2019-10-09T07:10:44.000Z</Time>
            <Position>
              <LatitudeDegrees>39.47132726199924945831298828125</LatitudeDegrees>
              <LongitudeDegrees>-6.3694095611572265625</LongitudeDegrees>
            </Position>
            <AltitudeMeters>399.20001220703125</AltitudeMeters>
            <DistanceMeters>NAN</DistanceMeters>
          </Trackpoint>
          <Trackpoint>
            <Time>2019-10-09T07:10:45.000Z</Time>
            <Position>
              <LatitudeDegrees>39.4712944887578487396240234375</LatitudeDegrees>
              <LongitudeDegrees>-6.369391120970249176025390625</LongitudeDegrees>
            </Position>
            <AltitudeMeters>399.20001220703125</AltitudeMeters>
            <DistanceMeters>NAN</DistanceMeters>
          </Trackpoint>
          <Trackpoint>
            <Time>2019-10-09T07:10:48.000Z</Time>
            <Position>
              <LatitudeDegrees>39.47119985707104206085205078125</LatitudeDegrees>
              <LongitudeDegrees>-6.36937075294554233551025390625</LongitudeDegrees>
            </Position>
            <AltitudeMeters>399.79998779296875</AltitudeMeters>
            <DistanceMeters>NAN</DistanceMeters>
          </Trackpoint>
          <Trackpoint>
            <Time>2019-10-09T07:10:50.000Z</Time>
            <Position>
              <LatitudeDegrees>39.4711332209408283233642578125</LatitudeDegrees>
              <LongitudeDegrees>-6.369365639984607696533203125</LongitudeDegrees>
            </Position>
            <AltitudeMeters>400</AltitudeMeters>
            <DistanceMeters>NAN</DistanceMeters>
          </Trackpoint>
          <Trackpoint>
            <Time>2019-10-09T07:10:56.000Z</Time>
            <Position>
              <LatitudeDegrees>39.47088025510311126708984375</LatitudeDegrees>
              <LongitudeDegrees>-6.36947837658226490020751953125</LongitudeDegrees>
            </Position>
            <AltitudeMeters>399</AltitudeMeters>
            <DistanceMeters>NAN</DistanceMeters>
          </Trackpoint>
          <Trackpoint>
            <Time>2019-10-09T07:11:00.000Z</Time>
            <Position>
              <LatitudeDegrees>39.47066106833517551422119140625</LatitudeDegrees>
              <LongitudeDegrees>-6.36956554837524890899658203125</LongitudeDegrees>
            </Position>
            <AltitudeMeters>398</AltitudeMeters>
            <DistanceMeters>NAN</DistanceMeters>
          </Trackpoint>
          <Trackpoint>
            <Time>2019-10-09T07:11:02.000Z</Time>
            <Position>
              <LatitudeDegrees>39.47054539807140827178955078125</LatitudeDegrees>
              <LongitudeDegrees>-6.369615085422992706298828125</LongitudeDegrees>
            </Position>
            <AltitudeMeters>397.20001220703125</AltitudeMeters>
            <DistanceMeters>NAN</DistanceMeters>
          </Trackpoint>
          <Trackpoint>
            <Time>2019-10-09T07:11:03.000Z</Time>
            <Position>
              <LatitudeDegrees>39.4704858027398586273193359375</LatitudeDegrees>
              <LongitudeDegrees>-6.36963897384703159332275390625</LongitudeDegrees>
            </Position>
            <AltitudeMeters>396.79998779296875</AltitudeMeters>
            <DistanceMeters>NAN</DistanceMeters>
          </Trackpoint>
          <Trackpoint>
            <Time>2019-10-09T07:11:05.000Z</Time>
            <Position>
              <LatitudeDegrees>39.47036661207675933837890625</LatitudeDegrees>
              <LongitudeDegrees>-6.369687505066394805908203125</LongitudeDegrees>
            </Position>
            <AltitudeMeters>395.79998779296875</AltitudeMeters>
            <DistanceMeters>NAN</DistanceMeters>
          </Trackpoint>
          <Trackpoint>
            <Time>2019-10-09T07:11:07.000Z</Time>
            <Position>
              <LatitudeDegrees>39.47027047164738178253173828125</LatitudeDegrees>
              <LongitudeDegrees>-6.36975598521530628204345703125</LongitudeDegrees>
            </Position>
            <AltitudeMeters>395.600006103515625</AltitudeMeters>
            <DistanceMeters>NAN</DistanceMeters>
          </Trackpoint>
          <Trackpoint>
            <Time>2019-10-09T07:11:10.000Z</Time>
            <Position>
              <LatitudeDegrees>39.4702336750924587249755859375</LatitudeDegrees>
              <LongitudeDegrees>-6.3699568994343280792236328125</LongitudeDegrees>
            </Position>
            <AltitudeMeters>395.20001220703125</AltitudeMeters>
            <DistanceMeters>NAN</DistanceMeters>
          </Trackpoint>
          <Trackpoint>
            <Time>2019-10-09T07:11:11.000Z</Time>
            <Position>
              <LatitudeDegrees>39.47023359127342700958251953125</LatitudeDegrees>
              <LongitudeDegrees>-6.37001766823232173919677734375</LongitudeDegrees>
            </Position>
            <AltitudeMeters>395.600006103515625</AltitudeMeters>
            <DistanceMeters>NAN</DistanceMeters>
          </Trackpoint>
          <Trackpoint>
            <Time>2019-10-09T07:11:12.000Z</Time>
            <Position>
              <LatitudeDegrees>39.4702262990176677703857421875</LatitudeDegrees>
              <LongitudeDegrees>-6.3700809516012668609619140625</LongitudeDegrees>
            </Position>
            <AltitudeMeters>395.600006103515625</AltitudeMeters>
            <DistanceMeters>NAN</DistanceMeters>
          </Trackpoint>
          <Trackpoint>
            <Time>2019-10-09T07:11:14.000Z</Time>
            <Position>
              <LatitudeDegrees>39.470177851617336273193359375</LatitudeDegrees>
              <LongitudeDegrees>-6.3701791875064373016357421875</LongitudeDegrees>
            </Position>
            <AltitudeMeters>396.20001220703125</AltitudeMeters>
            <DistanceMeters>NAN</DistanceMeters>
          </Trackpoint>
          <Trackpoint>
            <Time>2019-10-09T07:11:18.000Z</Time>
            <Position>
              <LatitudeDegrees>39.4700157456099987030029296875</LatitudeDegrees>
              <LongitudeDegrees>-6.37025839649140834808349609375</LongitudeDegrees>
            </Position>
            <AltitudeMeters>396.79998779296875</AltitudeMeters>
            <DistanceMeters>NAN</DistanceMeters>
          </Trackpoint>
          <Trackpoint>
            <Time>2019-10-09T07:11:21.000Z</Time>
            <Position>
              <LatitudeDegrees>39.46990795433521270751953125</LatitudeDegrees>
              <LongitudeDegrees>-6.37016887776553630828857421875</LongitudeDegrees>
            </Position>
            <AltitudeMeters>396.79998779296875</AltitudeMeters>
            <DistanceMeters>NAN</DistanceMeters>
          </Trackpoint>
          <Trackpoint>
            <Time>2019-10-09T07:11:22.000Z</Time>
            <Position>
              <LatitudeDegrees>39.46987702511250972747802734375</LatitudeDegrees>
              <LongitudeDegrees>-6.37013149447739124298095703125</LongitudeDegrees>
            </Position>
            <AltitudeMeters>396.79998779296875</AltitudeMeters>
            <DistanceMeters>NAN</DistanceMeters>
          </Trackpoint>
          <Trackpoint>
            <Time>2019-10-09T07:11:24.000Z</Time>
            <Position>
              <LatitudeDegrees>39.4698380492627620697021484375</LatitudeDegrees>
              <LongitudeDegrees>-6.37006963603198528289794921875</LongitudeDegrees>
            </Position>
            <AltitudeMeters>397</AltitudeMeters>
            <DistanceMeters>NAN</DistanceMeters>
          </Trackpoint>
          <Trackpoint>
            <Time>2019-10-09T07:11:26.000Z</Time>
            <Position>
              <LatitudeDegrees>39.46981139481067657470703125</LatitudeDegrees>
              <LongitudeDegrees>-6.3700370304286479949951171875</LongitudeDegrees>
            </Position>
            <AltitudeMeters>397</AltitudeMeters>
            <DistanceMeters>NAN</DistanceMeters>
          </Trackpoint>
          <Trackpoint>
            <Time>2019-10-09T07:11:31.000Z</Time>
            <Position>
              <LatitudeDegrees>39.46978867985308170318603515625</LatitudeDegrees>
              <LongitudeDegrees>-6.36997542344033718109130859375</LongitudeDegrees>
            </Position>
            <AltitudeMeters>396.79998779296875</AltitudeMeters>
            <DistanceMeters>NAN</DistanceMeters>
          </Trackpoint>
          <Trackpoint>
            <Time>2019-10-09T07:11:32.000Z</Time>
            <Position>
              <LatitudeDegrees>39.4697825610637664794921875</LatitudeDegrees>
              <LongitudeDegrees>-6.36995337903499603271484375</LongitudeDegrees>
            </Position>
            <AltitudeMeters>396.79998779296875</AltitudeMeters>
            <DistanceMeters>NAN</DistanceMeters>
          </Trackpoint>
          <Trackpoint>
            <Time>2019-10-09T07:11:36.000Z</Time>
            <Position>
              <LatitudeDegrees>39.4697602652013301849365234375</LatitudeDegrees>
              <LongitudeDegrees>-6.3699387945234775543212890625</LongitudeDegrees>
            </Position>
            <AltitudeMeters>397.20001220703125</AltitudeMeters>
            <DistanceMeters>NAN</DistanceMeters>
          </Trackpoint>
          <Trackpoint>
            <Time>2019-10-09T07:11:39.000Z</Time>
            <Position>
              <LatitudeDegrees>39.46976353414356708526611328125</LatitudeDegrees>
              <LongitudeDegrees>-6.369940303266048431396484375</LongitudeDegrees>
            </Position>
            <AltitudeMeters>397</AltitudeMeters>
            <DistanceMeters>NAN</DistanceMeters>
          </Trackpoint>
          <Trackpoint>
            <Time>2019-10-09T07:11:43.000Z</Time>
            <Position>
              <LatitudeDegrees>39.46976353414356708526611328125</LatitudeDegrees>
              <LongitudeDegrees>-6.369940303266048431396484375</LongitudeDegrees>
            </Position>
            <AltitudeMeters>396.79998779296875</AltitudeMeters>
            <DistanceMeters>NAN</DistanceMeters>
          </Trackpoint>
          <Trackpoint>
            <Time>2019-10-09T07:11:45.000Z</Time>
            <Position>
              <LatitudeDegrees>39.46976353414356708526611328125</LatitudeDegrees>
              <LongitudeDegrees>-6.369940303266048431396484375</LongitudeDegrees>
            </Position>
            <AltitudeMeters>397.20001220703125</AltitudeMeters>
            <DistanceMeters>NAN</DistanceMeters>
          </Trackpoint>
          <Trackpoint>
            <Time>2019-10-09T07:11:47.000Z</Time>
            <Position>
              <LatitudeDegrees>39.46976353414356708526611328125</LatitudeDegrees>
              <LongitudeDegrees>-6.369940303266048431396484375</LongitudeDegrees>
            </Position>
            <AltitudeMeters>397</AltitudeMeters>
            <DistanceMeters>NAN</DistanceMeters>
          </Trackpoint>
          <Trackpoint>
            <Time>2019-10-09T07:11:51.000Z</Time>
            <Position>
              <LatitudeDegrees>39.46976353414356708526611328125</LatitudeDegrees>
              <LongitudeDegrees>-6.369940303266048431396484375</LongitudeDegrees>
            </Position>
            <AltitudeMeters>396.79998779296875</AltitudeMeters>
            <DistanceMeters>NAN</DistanceMeters>
          </Trackpoint>
          <Trackpoint>
            <Time>2019-10-09T07:11:55.000Z</Time>
            <Position>
              <LatitudeDegrees>39.46976353414356708526611328125</LatitudeDegrees>
              <LongitudeDegrees>-6.369940303266048431396484375</LongitudeDegrees>
            </Position>
            <AltitudeMeters>396.79998779296875</AltitudeMeters>
            <DistanceMeters>NAN</DistanceMeters>
          </Trackpoint>
          <Trackpoint>
            <Time>2019-10-09T07:11:56.000Z</Time>
            <Position>
              <LatitudeDegrees>39.46976353414356708526611328125</LatitudeDegrees>
              <LongitudeDegrees>-6.369940303266048431396484375</LongitudeDegrees>
            </Position>
            <AltitudeMeters>396.79998779296875</AltitudeMeters>
            <DistanceMeters>NAN</DistanceMeters>
          </Trackpoint>
          <Trackpoint>
            <Time>2019-10-09T07:12:02.000Z</Time>
            <Position>
              <LatitudeDegrees>39.469758085906505584716796875</LatitudeDegrees>
              <LongitudeDegrees>-6.36993384920060634613037109375</LongitudeDegrees>
            </Position>
            <AltitudeMeters>397</AltitudeMeters>
            <DistanceMeters>NAN</DistanceMeters>
          </Trackpoint>
          <Trackpoint>
            <Time>2019-10-09T07:12:06.000Z</Time>
            <Position>
              <LatitudeDegrees>39.46968139149248600006103515625</LatitudeDegrees>
              <LongitudeDegrees>-6.3698620162904262542724609375</LongitudeDegrees>
            </Position>
            <AltitudeMeters>397</AltitudeMeters>
            <DistanceMeters>NAN</DistanceMeters>
          </Trackpoint>
          <Trackpoint>
            <Time>2019-10-09T07:12:07.000Z</Time>
            <Position>
              <LatitudeDegrees>39.46965306065976619720458984375</LatitudeDegrees>
              <LongitudeDegrees>-6.36984743177890777587890625</LongitudeDegrees>
            </Position>
            <AltitudeMeters>397.600006103515625</AltitudeMeters>
            <DistanceMeters>NAN</DistanceMeters>
          </Trackpoint>
          <Trackpoint>
            <Time>2019-10-09T07:12:08.000Z</Time>
            <Position>
              <LatitudeDegrees>39.469641745090484619140625</LatitudeDegrees>
              <LongitudeDegrees>-6.36984072625637054443359375</LongitudeDegrees>
            </Position>
            <AltitudeMeters>397.79998779296875</AltitudeMeters>
            <DistanceMeters>NAN</DistanceMeters>
          </Trackpoint>
          <Trackpoint>
            <Time>2019-10-09T07:12:09.000Z</Time>
            <Position>
              <LatitudeDegrees>39.4696217961609363555908203125</LatitudeDegrees>
              <LongitudeDegrees>-6.36982471682131290435791015625</LongitudeDegrees>
            </Position>
            <AltitudeMeters>398</AltitudeMeters>
            <DistanceMeters>NAN</DistanceMeters>
          </Trackpoint>
          <Trackpoint>
            <Time>2019-10-09T07:12:10.000Z</Time>
            <Position>
              <LatitudeDegrees>39.46960779838263988494873046875</LatitudeDegrees>
              <LongitudeDegrees>-6.36981432326138019561767578125</LongitudeDegrees>
            </Position>
            <AltitudeMeters>398</AltitudeMeters>
            <DistanceMeters>NAN</DistanceMeters>
          </Trackpoint>
          <Trackpoint>
            <Time>2019-10-09T07:12:11.000Z</Time>
            <Position>
              <LatitudeDegrees>39.46959405206143856048583984375</LatitudeDegrees>
              <LongitudeDegrees>-6.36980049312114715576171875</LongitudeDegrees>
            </Position>
            <AltitudeMeters>398.399993896484375</AltitudeMeters>
            <DistanceMeters>NAN</DistanceMeters>
          </Trackpoint>
          <Trackpoint>
            <Time>2019-10-09T07:12:13.000Z</Time>
            <Position>
              <LatitudeDegrees>39.4695617817342281341552734375</LatitudeDegrees>
              <LongitudeDegrees>-6.3697595894336700439453125</LongitudeDegrees>
            </Position>
            <AltitudeMeters>398.600006103515625</AltitudeMeters>
            <DistanceMeters>NAN</DistanceMeters>
          </Trackpoint>
          <Trackpoint>
            <Time>2019-10-09T07:12:16.000Z</Time>
            <Position>
              <LatitudeDegrees>39.46948760189116001129150390625</LatitudeDegrees>
              <LongitudeDegrees>-6.36967082507908344268798828125</LongitudeDegrees>
            </Position>
            <AltitudeMeters>399</AltitudeMeters>
            <DistanceMeters>NAN</DistanceMeters>
          </Trackpoint>
          <Trackpoint>
            <Time>2019-10-09T07:12:18.000Z</Time>
            <Position>
              <LatitudeDegrees>39.46944250725209712982177734375</LatitudeDegrees>
              <LongitudeDegrees>-6.3696283288300037384033203125</LongitudeDegrees>
            </Position>
            <AltitudeMeters>399.20001220703125</AltitudeMeters>
            <DistanceMeters>NAN</DistanceMeters>
          </Trackpoint>
          <Trackpoint>
            <Time>2019-10-09T07:12:20.000Z</Time>
            <Position>
              <LatitudeDegrees>39.4693995080888271331787109375</LatitudeDegrees>
              <LongitudeDegrees>-6.36956471018493175506591796875</LongitudeDegrees>
            </Position>
            <AltitudeMeters>399.20001220703125</AltitudeMeters>
            <DistanceMeters>NAN</DistanceMeters>
          </Trackpoint>
          <Trackpoint>
            <Time>2019-10-09T07:12:22.000Z</Time>
            <Position>
              <LatitudeDegrees>39.469349049031734466552734375</LatitudeDegrees>
              <LongitudeDegrees>-6.369495056569576263427734375</LongitudeDegrees>
            </Position>
            <AltitudeMeters>399.399993896484375</AltitudeMeters>
            <DistanceMeters>NAN</DistanceMeters>
          </Trackpoint>
          <Trackpoint>
            <Time>2019-10-09T07:12:25.000Z</Time>
            <Position>
              <LatitudeDegrees>39.46926112286746501922607421875</LatitudeDegrees>
              <LongitudeDegrees>-6.3694001734256744384765625</LongitudeDegrees>
            </Position>
            <AltitudeMeters>399.20001220703125</AltitudeMeters>
            <DistanceMeters>NAN</DistanceMeters>
          </Trackpoint>
          <Trackpoint>
            <Time>2019-10-09T07:12:26.000Z</Time>
            <Position>
              <LatitudeDegrees>39.469239749014377593994140625</LatitudeDegrees>
              <LongitudeDegrees>-6.369362287223339080810546875</LongitudeDegrees>
            </Position>
            <AltitudeMeters>399.399993896484375</AltitudeMeters>
            <DistanceMeters>NAN</DistanceMeters>
          </Trackpoint>
          <Trackpoint>
            <Time>2019-10-09T07:12:29.000Z</Time>
            <Position>
              <LatitudeDegrees>39.46917227469384670257568359375</LatitudeDegrees>
              <LongitudeDegrees>-6.3692571781575679779052734375</LongitudeDegrees>
            </Position>
            <AltitudeMeters>400.399993896484375</AltitudeMeters>
            <DistanceMeters>NAN</DistanceMeters>
          </Trackpoint>
          <Trackpoint>
            <Time>2019-10-09T07:12:30.000Z</Time>
            <Position>
              <LatitudeDegrees>39.469143860042095184326171875</LatitudeDegrees>
              <LongitudeDegrees>-6.36922876350581645965576171875</LongitudeDegrees>
            </Position>
            <AltitudeMeters>400.399993896484375</AltitudeMeters>
            <DistanceMeters>NAN</DistanceMeters>
          </Trackpoint>
          <Trackpoint>
            <Time>2019-10-09T07:12:35.000Z</Time>
            <Position>
              <LatitudeDegrees>39.4689859449863433837890625</LatitudeDegrees>
              <LongitudeDegrees>-6.369102783501148223876953125</LongitudeDegrees>
            </Position>
            <AltitudeMeters>401.600006103515625</AltitudeMeters>
            <DistanceMeters>NAN</DistanceMeters>
          </Trackpoint>
          <Trackpoint>
            <Time>2019-10-09T07:12:36.000Z</Time>
            <Position>
              <LatitudeDegrees>39.468956775963306427001953125</LatitudeDegrees>
              <LongitudeDegrees>-6.36907068081200122833251953125</LongitudeDegrees>
            </Position>
            <AltitudeMeters>402</AltitudeMeters>
            <DistanceMeters>NAN</DistanceMeters>
          </Trackpoint>
          <Trackpoint>
            <Time>2019-10-09T07:12:41.000Z</Time>
            <Position>
              <LatitudeDegrees>39.46880078874528408050537109375</LatitudeDegrees>
              <LongitudeDegrees>-6.368947215378284454345703125</LongitudeDegrees>
            </Position>
            <AltitudeMeters>402</AltitudeMeters>
            <DistanceMeters>NAN</DistanceMeters>
          </Trackpoint>
          <Trackpoint>
            <Time>2019-10-09T07:12:45.000Z</Time>
            <Position>
              <LatitudeDegrees>39.468667767941951751708984375</LatitudeDegrees>
              <LongitudeDegrees>-6.36892818845808506011962890625</LongitudeDegrees>
            </Position>
            <AltitudeMeters>401.79998779296875</AltitudeMeters>
            <DistanceMeters>NAN</DistanceMeters>
          </Trackpoint>
          <Trackpoint>
            <Time>2019-10-09T07:12:47.000Z</Time>
            <Position>
              <LatitudeDegrees>39.46859811432659626007080078125</LatitudeDegrees>
              <LongitudeDegrees>-6.3689039647579193115234375</LongitudeDegrees>
            </Position>
            <AltitudeMeters>401.79998779296875</AltitudeMeters>
            <DistanceMeters>NAN</DistanceMeters>
          </Trackpoint>
          <Trackpoint>
            <Time>2019-10-09T07:12:50.000Z</Time>
            <Position>
              <LatitudeDegrees>39.468493759632110595703125</LatitudeDegrees>
              <LongitudeDegrees>-6.36885928921401500701904296875</LongitudeDegrees>
            </Position>
            <AltitudeMeters>402.20001220703125</AltitudeMeters>
            <DistanceMeters>NAN</DistanceMeters>
          </Trackpoint>
          <Trackpoint>
            <Time>2019-10-09T07:12:53.000Z</Time>
            <Position>
              <LatitudeDegrees>39.46837917901575565338134765625</LatitudeDegrees>
              <LongitudeDegrees>-6.3688122667372226715087890625</LongitudeDegrees>
            </Position>
            <AltitudeMeters>402.79998779296875</AltitudeMeters>
            <DistanceMeters>NAN</DistanceMeters>
          </Trackpoint>
          <Trackpoint>
            <Time>2019-10-09T07:13:00.000Z</Time>
            <Position>
              <LatitudeDegrees>39.46809670887887477874755859375</LatitudeDegrees>
              <LongitudeDegrees>-6.36869064532220363616943359375</LongitudeDegrees>
            </Position>
            <AltitudeMeters>402.600006103515625</AltitudeMeters>
            <DistanceMeters>NAN</DistanceMeters>
          </Trackpoint>
          <Trackpoint>
            <Time>2019-10-09T07:13:02.000Z</Time>
            <Position>
              <LatitudeDegrees>39.4680141471326351165771484375</LatitudeDegrees>
              <LongitudeDegrees>-6.3686523400247097015380859375</LongitudeDegrees>
            </Position>
            <AltitudeMeters>402.600006103515625</AltitudeMeters>
            <DistanceMeters>NAN</DistanceMeters>
          </Trackpoint>
          <Trackpoint>
            <Time>2019-10-09T07:13:04.000Z</Time>
            <Position>
              <LatitudeDegrees>39.46793778799474239349365234375</LatitudeDegrees>
              <LongitudeDegrees>-6.3686037249863147735595703125</LongitudeDegrees>
            </Position>
            <AltitudeMeters>402.79998779296875</AltitudeMeters>
            <DistanceMeters>NAN</DistanceMeters>
          </Trackpoint>
          <Trackpoint>
            <Time>2019-10-09T07:13:05.000Z</Time>
            <Position>
              <LatitudeDegrees>39.467898644506931304931640625</LatitudeDegrees>
              <LongitudeDegrees>-6.36858805082738399505615234375</LongitudeDegrees>
            </Position>
            <AltitudeMeters>403</AltitudeMeters>
            <DistanceMeters>NAN</DistanceMeters>
          </Trackpoint>
          <Trackpoint>
            <Time>2019-10-09T07:13:12.000Z</Time>
            <Position>
              <LatitudeDegrees>39.4676315970718860626220703125</LatitudeDegrees>
              <LongitudeDegrees>-6.36849165894091129302978515625</LongitudeDegrees>
            </Position>
            <AltitudeMeters>403.600006103515625</AltitudeMeters>
            <DistanceMeters>NAN</DistanceMeters>
          </Trackpoint>
          <Trackpoint>
            <Time>2019-10-09T07:13:14.000Z</Time>
            <Position>
              <LatitudeDegrees>39.46755473501980304718017578125</LatitudeDegrees>
              <LongitudeDegrees>-6.3684629090130329132080078125</LongitudeDegrees>
            </Position>
            <AltitudeMeters>403.20001220703125</AltitudeMeters>
            <DistanceMeters>NAN</DistanceMeters>
          </Trackpoint>
          <Trackpoint>
            <Time>2019-10-09T07:13:17.000Z</Time>
            <Position>
              <LatitudeDegrees>39.46745063178241252899169921875</LatitudeDegrees>
              <LongitudeDegrees>-6.3684102706611156463623046875</LongitudeDegrees>
            </Position>
            <AltitudeMeters>403.600006103515625</AltitudeMeters>
            <DistanceMeters>NAN</DistanceMeters>
          </Trackpoint>
          <Trackpoint>
            <Time>2019-10-09T07:13:19.000Z</Time>
            <Position>
              <LatitudeDegrees>39.46741274558007717132568359375</LatitudeDegrees>
              <LongitudeDegrees>-6.3683975301682949066162109375</LongitudeDegrees>
            </Position>
            <AltitudeMeters>403.79998779296875</AltitudeMeters>
            <DistanceMeters>NAN</DistanceMeters>
          </Trackpoint>
          <Trackpoint>
            <Time>2019-10-09T07:13:20.000Z</Time>
            <Position>
              <LatitudeDegrees>39.46739464066922664642333984375</LatitudeDegrees>
              <LongitudeDegrees>-6.36839241720736026763916015625</LongitudeDegrees>
            </Position>
            <AltitudeMeters>404</AltitudeMeters>
            <DistanceMeters>NAN</DistanceMeters>
          </Trackpoint>
          <Trackpoint>
            <Time>2019-10-09T07:13:22.000Z</Time>
            <Position>
              <LatitudeDegrees>39.46736748330295085906982421875</LatitudeDegrees>
              <LongitudeDegrees>-6.36839342303574085235595703125</LongitudeDegrees>
            </Position>
            <AltitudeMeters>404.600006103515625</AltitudeMeters>
            <DistanceMeters>NAN</DistanceMeters>
          </Trackpoint>
          <Trackpoint>
            <Time>2019-10-09T07:13:25.000Z</Time>
            <Position>
              <LatitudeDegrees>39.467334039509296417236328125</LatitudeDegrees>
              <LongitudeDegrees>-6.3683975301682949066162109375</LongitudeDegrees>
            </Position>
            <AltitudeMeters>404.399993896484375</AltitudeMeters>
            <DistanceMeters>NAN</DistanceMeters>
          </Trackpoint>
          <Trackpoint>
            <Time>2019-10-09T07:13:30.000Z</Time>
            <Position>
              <LatitudeDegrees>39.4673298485577106475830078125</LatitudeDegrees>
              <LongitudeDegrees>-6.36839543469250202178955078125</LongitudeDegrees>
            </Position>
            <AltitudeMeters>404.79998779296875</AltitudeMeters>
            <DistanceMeters>NAN</DistanceMeters>
          </Trackpoint>
          <Trackpoint>
            <Time>2019-10-09T07:13:32.000Z</Time>
            <Position>
              <LatitudeDegrees>39.4673298485577106475830078125</LatitudeDegrees>
              <LongitudeDegrees>-6.36839543469250202178955078125</LongitudeDegrees>
            </Position>
            <AltitudeMeters>404.600006103515625</AltitudeMeters>
            <DistanceMeters>NAN</DistanceMeters>
          </Trackpoint>
          <Trackpoint>
            <Time>2019-10-09T07:13:34.000Z</Time>
            <Position>
              <LatitudeDegrees>39.4673298485577106475830078125</LatitudeDegrees>
              <LongitudeDegrees>-6.36839543469250202178955078125</LongitudeDegrees>
            </Position>
            <AltitudeMeters>405</AltitudeMeters>
            <DistanceMeters>NAN</DistanceMeters>
          </Trackpoint>
          <Trackpoint>
            <Time>2019-10-09T07:13:37.000Z</Time>
            <Position>
              <LatitudeDegrees>39.4673298485577106475830078125</LatitudeDegrees>
              <LongitudeDegrees>-6.36839543469250202178955078125</LongitudeDegrees>
            </Position>
            <AltitudeMeters>404.399993896484375</AltitudeMeters>
            <DistanceMeters>NAN</DistanceMeters>
          </Trackpoint>
          <Trackpoint>
            <Time>2019-10-09T07:13:40.000Z</Time>
            <Position>
              <LatitudeDegrees>39.4673298485577106475830078125</LatitudeDegrees>
              <LongitudeDegrees>-6.36839543469250202178955078125</LongitudeDegrees>
            </Position>
            <AltitudeMeters>404.600006103515625</AltitudeMeters>
            <DistanceMeters>NAN</DistanceMeters>
          </Trackpoint>
          <Trackpoint>
            <Time>2019-10-09T07:13:42.000Z</Time>
            <Position>
              <LatitudeDegrees>39.4673298485577106475830078125</LatitudeDegrees>
              <LongitudeDegrees>-6.36839543469250202178955078125</LongitudeDegrees>
            </Position>
            <AltitudeMeters>404.600006103515625</AltitudeMeters>
            <DistanceMeters>NAN</DistanceMeters>
          </Trackpoint>
          <Trackpoint>
            <Time>2019-10-09T07:13:43.000Z</Time>
            <Position>
              <LatitudeDegrees>39.4673298485577106475830078125</LatitudeDegrees>
              <LongitudeDegrees>-6.36839543469250202178955078125</LongitudeDegrees>
            </Position>
            <AltitudeMeters>404.79998779296875</AltitudeMeters>
            <DistanceMeters>NAN</DistanceMeters>
          </Trackpoint>
          <Trackpoint>
            <Time>2019-10-09T07:13:45.000Z</Time>
            <Position>
              <LatitudeDegrees>39.4673298485577106475830078125</LatitudeDegrees>
              <LongitudeDegrees>-6.36839543469250202178955078125</LongitudeDegrees>
            </Position>
            <AltitudeMeters>404.79998779296875</AltitudeMeters>
            <DistanceMeters>NAN</DistanceMeters>
          </Trackpoint>
          <Trackpoint>
            <Time>2019-10-09T07:13:48.000Z</Time>
            <Position>
              <LatitudeDegrees>39.4673298485577106475830078125</LatitudeDegrees>
              <LongitudeDegrees>-6.36839543469250202178955078125</LongitudeDegrees>
            </Position>
            <AltitudeMeters>404.600006103515625</AltitudeMeters>
            <DistanceMeters>NAN</DistanceMeters>
          </Trackpoint>
          <Trackpoint>
            <Time>2019-10-09T07:13:53.000Z</Time>
            <Position>
              <LatitudeDegrees>39.4673298485577106475830078125</LatitudeDegrees>
              <LongitudeDegrees>-6.36839543469250202178955078125</LongitudeDegrees>
            </Position>
            <AltitudeMeters>404.600006103515625</AltitudeMeters>
            <DistanceMeters>NAN</DistanceMeters>
          </Trackpoint>
          <Trackpoint>
            <Time>2019-10-09T07:13:54.000Z</Time>
            <Position>
              <LatitudeDegrees>39.4673298485577106475830078125</LatitudeDegrees>
              <LongitudeDegrees>-6.36839543469250202178955078125</LongitudeDegrees>
            </Position>
            <AltitudeMeters>404.79998779296875</AltitudeMeters>
            <DistanceMeters>NAN</DistanceMeters>
          </Trackpoint>
          <Trackpoint>
            <Time>2019-10-09T07:13:59.000Z</Time>
            <Position>
              <LatitudeDegrees>39.46725885383784770965576171875</LatitudeDegrees>
              <LongitudeDegrees>-6.36836643330752849578857421875</LongitudeDegrees>
            </Position>
            <AltitudeMeters>404.600006103515625</AltitudeMeters>
            <DistanceMeters>NAN</DistanceMeters>
          </Trackpoint>
          <Trackpoint>
            <Time>2019-10-09T07:14:02.000Z</Time>
            <Position>
              <LatitudeDegrees>39.46714821271598339080810546875</LatitudeDegrees>
              <LongitudeDegrees>-6.3683485798537731170654296875</LongitudeDegrees>
            </Position>
            <AltitudeMeters>404.600006103515625</AltitudeMeters>
            <DistanceMeters>NAN</DistanceMeters>
          </Trackpoint>
          <Trackpoint>
            <Time>2019-10-09T07:14:04.000Z</Time>
            <Position>
              <LatitudeDegrees>39.4670656509697437286376953125</LatitudeDegrees>
              <LongitudeDegrees>-6.36833424679934978485107421875</LongitudeDegrees>
            </Position>
            <AltitudeMeters>405</AltitudeMeters>
            <DistanceMeters>NAN</DistanceMeters>
          </Trackpoint>
          <Trackpoint>
            <Time>2019-10-09T07:14:05.000Z</Time>
            <Position>
              <LatitudeDegrees>39.467025585472583770751953125</LatitudeDegrees>
              <LongitudeDegrees>-6.36832821182906627655029296875</LongitudeDegrees>
            </Position>
            <AltitudeMeters>404.79998779296875</AltitudeMeters>
            <DistanceMeters>NAN</DistanceMeters>
          </Trackpoint>
          <Trackpoint>
            <Time>2019-10-09T07:14:06.000Z</Time>
            <Position>
              <LatitudeDegrees>39.46698258630931377410888671875</LatitudeDegrees>
              <LongitudeDegrees>-6.36831429786980152130126953125</LongitudeDegrees>
            </Position>
            <AltitudeMeters>405</AltitudeMeters>
            <DistanceMeters>NAN</DistanceMeters>
          </Trackpoint>
          <Trackpoint>
            <Time>2019-10-09T07:14:08.000Z</Time>
            <Position>
              <LatitudeDegrees>39.466897509992122650146484375</LatitudeDegrees>
              <LongitudeDegrees>-6.368267945945262908935546875</LongitudeDegrees>
            </Position>
            <AltitudeMeters>405.399993896484375</AltitudeMeters>
            <DistanceMeters>NAN</DistanceMeters>
          </Trackpoint>
          <Trackpoint>
            <Time>2019-10-09T07:14:10.000Z</Time>
            <Position>
              <LatitudeDegrees>39.4668131880462169647216796875</LatitudeDegrees>
              <LongitudeDegrees>-6.3682104460895061492919921875</LongitudeDegrees>
            </Position>
            <AltitudeMeters>405.600006103515625</AltitudeMeters>
            <DistanceMeters>NAN</DistanceMeters>
          </Trackpoint>
          <Trackpoint>
            <Time>2019-10-09T07:14:11.000Z</Time>
            <Position>
              <LatitudeDegrees>39.46677052415907382965087890625</LatitudeDegrees>
              <LongitudeDegrees>-6.3681931793689727783203125</LongitudeDegrees>
            </Position>
            <AltitudeMeters>405.600006103515625</AltitudeMeters>
            <DistanceMeters>NAN</DistanceMeters>
          </Trackpoint>
          <Trackpoint>
            <Time>2019-10-09T07:14:14.000Z</Time>
            <Position>
              <LatitudeDegrees>39.466646723449230194091796875</LatitudeDegrees>
              <LongitudeDegrees>-6.3681484200060367584228515625</LongitudeDegrees>
            </Position>
            <AltitudeMeters>406.20001220703125</AltitudeMeters>
            <DistanceMeters>NAN</DistanceMeters>
          </Trackpoint>
          <Trackpoint>
            <Time>2019-10-09T07:14:16.000Z</Time>
            <Position>
              <LatitudeDegrees>39.466568939387798309326171875</LatitudeDegrees>
              <LongitudeDegrees>-6.36811874806880950927734375</LongitudeDegrees>
            </Position>
            <AltitudeMeters>406.20001220703125</AltitudeMeters>
            <DistanceMeters>NAN</DistanceMeters>
          </Trackpoint>
          <Trackpoint>
            <Time>2019-10-09T07:14:21.000Z</Time>
            <Position>
              <LatitudeDegrees>39.466361068189144134521484375</LatitudeDegrees>
              <LongitudeDegrees>-6.36804054491221904754638671875</LongitudeDegrees>
            </Position>
            <AltitudeMeters>407</AltitudeMeters>
            <DistanceMeters>NAN</DistanceMeters>
          </Trackpoint>
          <Trackpoint>
            <Time>2019-10-09T07:14:22.000Z</Time>
            <Position>
              <LatitudeDegrees>39.4663196615874767303466796875</LatitudeDegrees>
              <LongitudeDegrees>-6.36802017688751220703125</LongitudeDegrees>
            </Position>
            <AltitudeMeters>407</AltitudeMeters>
            <DistanceMeters>NAN</DistanceMeters>
          </Trackpoint>
          <Trackpoint>
            <Time>2019-10-09T07:14:23.000Z</Time>
            <Position>
              <LatitudeDegrees>39.46628252975642681121826171875</LatitudeDegrees>
              <LongitudeDegrees>-6.36800735257565975189208984375</LongitudeDegrees>
            </Position>
            <AltitudeMeters>407.20001220703125</AltitudeMeters>
            <DistanceMeters>NAN</DistanceMeters>
          </Trackpoint>
          <Trackpoint>
            <Time>2019-10-09T07:14:24.000Z</Time>
            <Position>
              <LatitudeDegrees>39.46624564938247203826904296875</LatitudeDegrees>
              <LongitudeDegrees>-6.36798891238868236541748046875</LongitudeDegrees>
            </Position>
            <AltitudeMeters>407.399993896484375</AltitudeMeters>
            <DistanceMeters>NAN</DistanceMeters>
          </Trackpoint>
          <Trackpoint>
            <Time>2019-10-09T07:14:26.000Z</Time>
            <Position>
              <LatitudeDegrees>39.4661650992929935455322265625</LatitudeDegrees>
              <LongitudeDegrees>-6.36795605532824993133544921875</LongitudeDegrees>
            </Position>
            <AltitudeMeters>408</AltitudeMeters>
            <DistanceMeters>NAN</DistanceMeters>
          </Trackpoint>
          <Trackpoint>
            <Time>2019-10-09T07:14:27.000Z</Time>
            <Position>
              <LatitudeDegrees>39.46612394414842128753662109375</LatitudeDegrees>
              <LongitudeDegrees>-6.3679314963519573211669921875</LongitudeDegrees>
            </Position>
            <AltitudeMeters>408</AltitudeMeters>
            <DistanceMeters>NAN</DistanceMeters>
          </Trackpoint>
          <Trackpoint>
            <Time>2019-10-09T07:14:28.000Z</Time>
            <Position>
              <LatitudeDegrees>39.46608941070735454559326171875</LatitudeDegrees>
              <LongitudeDegrees>-6.36792965233325958251953125</LongitudeDegrees>
            </Position>
            <AltitudeMeters>407.79998779296875</AltitudeMeters>
            <DistanceMeters>NAN</DistanceMeters>
          </Trackpoint>
          <Trackpoint>
            <Time>2019-10-09T07:14:31.000Z</Time>
            <Position>
              <LatitudeDegrees>39.4659820385277271270751953125</LatitudeDegrees>
              <LongitudeDegrees>-6.36789143085479736328125</LongitudeDegrees>
            </Position>
            <AltitudeMeters>408.600006103515625</AltitudeMeters>
            <DistanceMeters>NAN</DistanceMeters>
          </Trackpoint>
          <Trackpoint>
            <Time>2019-10-09T07:14:36.000Z</Time>
            <Position>
              <LatitudeDegrees>39.465788416564464569091796875</LatitudeDegrees>
              <LongitudeDegrees>-6.36776335537433624267578125</LongitudeDegrees>
            </Position>
            <AltitudeMeters>409.399993896484375</AltitudeMeters>
            <DistanceMeters>NAN</DistanceMeters>
          </Trackpoint>
          <Trackpoint>
            <Time>2019-10-09T07:14:37.000Z</Time>
            <Position>
              <LatitudeDegrees>39.46575053036212921142578125</LatitudeDegrees>
              <LongitudeDegrees>-6.36773829348385334014892578125</LongitudeDegrees>
            </Position>
            <AltitudeMeters>409.79998779296875</AltitudeMeters>
            <DistanceMeters>NAN</DistanceMeters>
          </Trackpoint>
          <Trackpoint>
            <Time>2019-10-09T07:14:42.000Z</Time>
            <Position>
              <LatitudeDegrees>39.465548358857631683349609375</LatitudeDegrees>
              <LongitudeDegrees>-6.3676491938531398773193359375</LongitudeDegrees>
            </Position>
            <AltitudeMeters>410</AltitudeMeters>
            <DistanceMeters>NAN</DistanceMeters>
          </Trackpoint>
          <Trackpoint>
            <Time>2019-10-09T07:14:43.000Z</Time>
            <Position>
              <LatitudeDegrees>39.4655089639127254486083984375</LatitudeDegrees>
              <LongitudeDegrees>-6.36762530542910099029541015625</LongitudeDegrees>
            </Position>
            <AltitudeMeters>410</AltitudeMeters>
            <DistanceMeters>NAN</DistanceMeters>
          </Trackpoint>
          <Trackpoint>
            <Time>2019-10-09T07:14:44.000Z</Time>
            <Position>
              <LatitudeDegrees>39.465467892587184906005859375</LatitudeDegrees>
              <LongitudeDegrees>-6.36760619468986988067626953125</LongitudeDegrees>
            </Position>
            <AltitudeMeters>410.20001220703125</AltitudeMeters>
            <DistanceMeters>NAN</DistanceMeters>
          </Trackpoint>
          <Trackpoint>
            <Time>2019-10-09T07:14:51.000Z</Time>
            <Position>
              <LatitudeDegrees>39.46519020013511180877685546875</LatitudeDegrees>
              <LongitudeDegrees>-6.36748365126550197601318359375</LongitudeDegrees>
            </Position>
            <AltitudeMeters>410.399993896484375</AltitudeMeters>
            <DistanceMeters>NAN</DistanceMeters>
          </Trackpoint>
          <Trackpoint>
            <Time>2019-10-09T07:14:52.000Z</Time>
            <Position>
              <LatitudeDegrees>39.46515248157083988189697265625</LatitudeDegrees>
              <LongitudeDegrees>-6.36747241951525211334228515625</LongitudeDegrees>
            </Position>
            <AltitudeMeters>411</AltitudeMeters>
            <DistanceMeters>NAN</DistanceMeters>
          </Trackpoint>
          <Trackpoint>
            <Time>2019-10-09T07:14:53.000Z</Time>
            <Position>
              <LatitudeDegrees>39.4651220552623271942138671875</LatitudeDegrees>
              <LongitudeDegrees>-6.36746403761208057403564453125</LongitudeDegrees>
            </Position>
            <AltitudeMeters>410.79998779296875</AltitudeMeters>
            <DistanceMeters>NAN</DistanceMeters>
          </Trackpoint>
          <Trackpoint>
            <Time>2019-10-09T07:14:56.000Z</Time>
            <Position>
              <LatitudeDegrees>39.46501216851174831390380859375</LatitudeDegrees>
              <LongitudeDegrees>-6.3674322701990604400634765625</LongitudeDegrees>
            </Position>
            <AltitudeMeters>411.20001220703125</AltitudeMeters>
            <DistanceMeters>NAN</DistanceMeters>
          </Trackpoint>
          <Trackpoint>
            <Time>2019-10-09T07:14:58.000Z</Time>
            <Position>
              <LatitudeDegrees>39.464934803545475006103515625</LatitudeDegrees>
              <LongitudeDegrees>-6.36741072870790958404541015625</LongitudeDegrees>
            </Position>
            <AltitudeMeters>411.600006103515625</AltitudeMeters>
            <DistanceMeters>NAN</DistanceMeters>
          </Trackpoint>
          <Trackpoint>
            <Time>2019-10-09T07:15:04.000Z</Time>
            <Position>
              <LatitudeDegrees>39.46468770503997802734375</LatitudeDegrees>
              <LongitudeDegrees>-6.367371082305908203125</LongitudeDegrees>
            </Position>
            <AltitudeMeters>411.600006103515625</AltitudeMeters>
            <DistanceMeters>NAN</DistanceMeters>
          </Trackpoint>
          <Trackpoint>
            <Time>2019-10-09T07:15:05.000Z</Time>
            <Position>
              <LatitudeDegrees>39.46464386768639087677001953125</LatitudeDegrees>
              <LongitudeDegrees>-6.36736244894564151763916015625</LongitudeDegrees>
            </Position>
            <AltitudeMeters>411.600006103515625</AltitudeMeters>
            <DistanceMeters>NAN</DistanceMeters>
          </Trackpoint>
          <Trackpoint>
            <Time>2019-10-09T07:15:12.000Z</Time>
            <Position>
              <LatitudeDegrees>39.46434237062931060791015625</LatitudeDegrees>
              <LongitudeDegrees>-6.3673233054578304290771484375</LongitudeDegrees>
            </Position>
            <AltitudeMeters>411.600006103515625</AltitudeMeters>
            <DistanceMeters>NAN</DistanceMeters>
          </Trackpoint>
          <Trackpoint>
            <Time>2019-10-09T07:15:17.000Z</Time>
            <Position>
              <LatitudeDegrees>39.4641212560236454010009765625</LatitudeDegrees>
              <LongitudeDegrees>-6.36730260215699672698974609375</LongitudeDegrees>
            </Position>
            <AltitudeMeters>411.399993896484375</AltitudeMeters>
            <DistanceMeters>NAN</DistanceMeters>
          </Trackpoint>
          <Trackpoint>
            <Time>2019-10-09T07:15:18.000Z</Time>
            <Position>
              <LatitudeDegrees>39.46407523937523365020751953125</LatitudeDegrees>
              <LongitudeDegrees>-6.36730670928955078125</LongitudeDegrees>
            </Position>
            <AltitudeMeters>411.600006103515625</AltitudeMeters>
            <DistanceMeters>NAN</DistanceMeters>
          </Trackpoint>
          <Trackpoint>
            <Time>2019-10-09T07:15:20.000Z</Time>
            <Position>
              <LatitudeDegrees>39.46398303844034671783447265625</LatitudeDegrees>
              <LongitudeDegrees>-6.367307044565677642822265625</LongitudeDegrees>
            </Position>
            <AltitudeMeters>411.20001220703125</AltitudeMeters>
            <DistanceMeters>NAN</DistanceMeters>
          </Trackpoint>
          <Trackpoint>
            <Time>2019-10-09T07:15:25.000Z</Time>
            <Position>
              <LatitudeDegrees>39.46376443840563297271728515625</LatitudeDegrees>
              <LongitudeDegrees>-6.36731701903045177459716796875</LongitudeDegrees>
            </Position>
            <AltitudeMeters>411</AltitudeMeters>
            <DistanceMeters>NAN</DistanceMeters>
          </Trackpoint>
          <Trackpoint>
            <Time>2019-10-09T07:15:28.000Z</Time>
            <Position>
              <LatitudeDegrees>39.463633261620998382568359375</LatitudeDegrees>
              <LongitudeDegrees>-6.36732338927686214447021484375</LongitudeDegrees>
            </Position>
            <AltitudeMeters>411.79998779296875</AltitudeMeters>
            <DistanceMeters>NAN</DistanceMeters>
          </Trackpoint>
          <Trackpoint>
            <Time>2019-10-09T07:15:32.000Z</Time>
            <Position>
              <LatitudeDegrees>39.4634632766246795654296875</LatitudeDegrees>
              <LongitudeDegrees>-6.36731433682143688201904296875</LongitudeDegrees>
            </Position>
            <AltitudeMeters>411.79998779296875</AltitudeMeters>
            <DistanceMeters>NAN</DistanceMeters>
          </Trackpoint>
          <Trackpoint>
            <Time>2019-10-09T07:15:35.000Z</Time>
            <Position>
              <LatitudeDegrees>39.4633642025291919708251953125</LatitudeDegrees>
              <LongitudeDegrees>-6.367298997938632965087890625</LongitudeDegrees>
            </Position>
            <AltitudeMeters>411.79998779296875</AltitudeMeters>
            <DistanceMeters>NAN</DistanceMeters>
          </Trackpoint>
          <Trackpoint>
            <Time>2019-10-09T07:15:37.000Z</Time>
            <Position>
              <LatitudeDegrees>39.46331801824271678924560546875</LatitudeDegrees>
              <LongitudeDegrees>-6.36729354970157146453857421875</LongitudeDegrees>
            </Position>
            <AltitudeMeters>412</AltitudeMeters>
            <DistanceMeters>NAN</DistanceMeters>
          </Trackpoint>
          <Trackpoint>
            <Time>2019-10-09T07:15:39.000Z</Time>
            <Position>
              <LatitudeDegrees>39.46326253004372119903564453125</LatitudeDegrees>
              <LongitudeDegrees>-6.36728617362678050994873046875</LongitudeDegrees>
            </Position>
            <AltitudeMeters>412.20001220703125</AltitudeMeters>
            <DistanceMeters>NAN</DistanceMeters>
          </Trackpoint>
          <Trackpoint>
            <Time>2019-10-09T07:15:41.000Z</Time>
            <Position>
              <LatitudeDegrees>39.4631905294954776763916015625</LatitudeDegrees>
              <LongitudeDegrees>-6.3672753609716892242431640625</LongitudeDegrees>
            </Position>
            <AltitudeMeters>412.20001220703125</AltitudeMeters>
            <DistanceMeters>NAN</DistanceMeters>
          </Trackpoint>
          <Trackpoint>
            <Time>2019-10-09T07:15:46.000Z</Time>
            <Position>
              <LatitudeDegrees>39.46298290975391864776611328125</LatitudeDegrees>
              <LongitudeDegrees>-6.3672612793743610382080078125</LongitudeDegrees>
            </Position>
            <AltitudeMeters>412</AltitudeMeters>
            <DistanceMeters>NAN</DistanceMeters>
          </Trackpoint>
          <Trackpoint>
            <Time>2019-10-09T07:15:47.000Z</Time>
            <Position>
              <LatitudeDegrees>39.462937898933887481689453125</LatitudeDegrees>
              <LongitudeDegrees>-6.36725365184247493743896484375</LongitudeDegrees>
            </Position>
            <AltitudeMeters>411.79998779296875</AltitudeMeters>
            <DistanceMeters>NAN</DistanceMeters>
          </Trackpoint>
          <Trackpoint>
            <Time>2019-10-09T07:15:55.000Z</Time>
            <Position>
              <LatitudeDegrees>39.46257823146879673004150390625</LatitudeDegrees>
              <LongitudeDegrees>-6.36717863380908966064453125</LongitudeDegrees>
            </Position>
            <AltitudeMeters>411.79998779296875</AltitudeMeters>
            <DistanceMeters>NAN</DistanceMeters>
          </Trackpoint>
          <Trackpoint>
            <Time>2019-10-09T07:16:03.000Z</Time>
            <Position>
              <LatitudeDegrees>39.46225024759769439697265625</LatitudeDegrees>
              <LongitudeDegrees>-6.36711970902979373931884765625</LongitudeDegrees>
            </Position>
            <AltitudeMeters>412.20001220703125</AltitudeMeters>
            <DistanceMeters>NAN</DistanceMeters>
          </Trackpoint>
          <Trackpoint>
            <Time>2019-10-09T07:16:11.000Z</Time>
            <Position>
              <LatitudeDegrees>39.4619184918701648712158203125</LatitudeDegrees>
              <LongitudeDegrees>-6.36708500795066356658935546875</LongitudeDegrees>
            </Position>
            <AltitudeMeters>413</AltitudeMeters>
            <DistanceMeters>NAN</DistanceMeters>
          </Trackpoint>
          <Trackpoint>
            <Time>2019-10-09T07:16:14.000Z</Time>
            <Position>
              <LatitudeDegrees>39.46179368533194065093994140625</LatitudeDegrees>
              <LongitudeDegrees>-6.36709523387253284454345703125</LongitudeDegrees>
            </Position>
            <AltitudeMeters>413.399993896484375</AltitudeMeters>
            <DistanceMeters>NAN</DistanceMeters>
          </Trackpoint>
          <Trackpoint>
            <Time>2019-10-09T07:16:19.000Z</Time>
            <Position>
              <LatitudeDegrees>39.461576007306575775146484375</LatitudeDegrees>
              <LongitudeDegrees>-6.36712591163814067840576171875</LongitudeDegrees>
            </Position>
            <AltitudeMeters>413.399993896484375</AltitudeMeters>
            <DistanceMeters>NAN</DistanceMeters>
          </Trackpoint>
          <Trackpoint>
            <Time>2019-10-09T07:16:28.000Z</Time>
            <Position>
              <LatitudeDegrees>39.461165629327297210693359375</LatitudeDegrees>
              <LongitudeDegrees>-6.367193050682544708251953125</LongitudeDegrees>
            </Position>
            <AltitudeMeters>413.600006103515625</AltitudeMeters>
            <DistanceMeters>NAN</DistanceMeters>
          </Trackpoint>
          <Trackpoint>
            <Time>2019-10-09T07:16:35.000Z</Time>
            <Position>
              <LatitudeDegrees>39.46084720082581043243408203125</LatitudeDegrees>
              <LongitudeDegrees>-6.3672441802918910980224609375</LongitudeDegrees>
            </Position>
            <AltitudeMeters>413.79998779296875</AltitudeMeters>
            <DistanceMeters>NAN</DistanceMeters>
          </Trackpoint>
          <Trackpoint>
            <Time>2019-10-09T07:16:40.000Z</Time>
            <Position>
              <LatitudeDegrees>39.4606281816959381103515625</LatitudeDegrees>
              <LongitudeDegrees>-6.36728533543646335601806640625</LongitudeDegrees>
            </Position>
            <AltitudeMeters>414.399993896484375</AltitudeMeters>
            <DistanceMeters>NAN</DistanceMeters>
          </Trackpoint>
          <Trackpoint>
            <Time>2019-10-09T07:16:42.000Z</Time>
            <Position>
              <LatitudeDegrees>39.4605398364365100860595703125</LatitudeDegrees>
              <LongitudeDegrees>-6.3672974891960620880126953125</LongitudeDegrees>
            </Position>
            <AltitudeMeters>414.399993896484375</AltitudeMeters>
            <DistanceMeters>NAN</DistanceMeters>
          </Trackpoint>
          <Trackpoint>
            <Time>2019-10-09T07:16:50.000Z</Time>
            <Position>
              <LatitudeDegrees>39.4601817615330219268798828125</LatitudeDegrees>
              <LongitudeDegrees>-6.367357671260833740234375</LongitudeDegrees>
            </Position>
            <AltitudeMeters>415</AltitudeMeters>
            <DistanceMeters>NAN</DistanceMeters>
          </Trackpoint>
          <Trackpoint>
            <Time>2019-10-09T07:16:59.000Z</Time>
            <Position>
              <LatitudeDegrees>39.4597740657627582550048828125</LatitudeDegrees>
              <LongitudeDegrees>-6.36743386276066303253173828125</LongitudeDegrees>
            </Position>
            <AltitudeMeters>415.20001220703125</AltitudeMeters>
            <DistanceMeters>NAN</DistanceMeters>
          </Trackpoint>
          <Trackpoint>
            <Time>2019-10-09T07:17:00.000Z</Time>
            <Position>
              <LatitudeDegrees>39.4597291387617588043212890625</LatitudeDegrees>
              <LongitudeDegrees>-6.36744610033929347991943359375</LongitudeDegrees>
            </Position>
            <AltitudeMeters>415.20001220703125</AltitudeMeters>
            <DistanceMeters>NAN</DistanceMeters>
          </Trackpoint>
          <Trackpoint>
            <Time>2019-10-09T07:17:01.000Z</Time>
            <Position>
              <LatitudeDegrees>39.459683708846569061279296875</LatitudeDegrees>
              <LongitudeDegrees>-6.3674554042518138885498046875</LongitudeDegrees>
            </Position>
            <AltitudeMeters>415.600006103515625</AltitudeMeters>
            <DistanceMeters>NAN</DistanceMeters>
          </Trackpoint>
          <Trackpoint>
            <Time>2019-10-09T07:17:06.000Z</Time>
            <Position>
              <LatitudeDegrees>39.45944239385426044464111328125</LatitudeDegrees>
              <LongitudeDegrees>-6.36750829406082630157470703125</LongitudeDegrees>
            </Position>
            <AltitudeMeters>414.79998779296875</AltitudeMeters>
            <DistanceMeters>NAN</DistanceMeters>
          </Trackpoint>
          <Trackpoint>
            <Time>2019-10-09T07:17:08.000Z</Time>
            <Position>
              <LatitudeDegrees>39.45933728478848934173583984375</LatitudeDegrees>
              <LongitudeDegrees>-6.3675279915332794189453125</LongitudeDegrees>
            </Position>
            <AltitudeMeters>414.399993896484375</AltitudeMeters>
            <DistanceMeters>NAN</DistanceMeters>
          </Trackpoint>
          <Trackpoint>
            <Time>2019-10-09T07:17:13.000Z</Time>
            <Position>
              <LatitudeDegrees>39.4590535573661327362060546875</LatitudeDegrees>
              <LongitudeDegrees>-6.36757501401007175445556640625</LongitudeDegrees>
            </Position>
            <AltitudeMeters>413.600006103515625</AltitudeMeters>
            <DistanceMeters>NAN</DistanceMeters>
          </Trackpoint>
          <Trackpoint>
            <Time>2019-10-09T07:17:16.000Z</Time>
            <Position>
              <LatitudeDegrees>39.45888281799852848052978515625</LatitudeDegrees>
              <LongitudeDegrees>-6.36761122383177280426025390625</LongitudeDegrees>
            </Position>
            <AltitudeMeters>413.20001220703125</AltitudeMeters>
            <DistanceMeters>NAN</DistanceMeters>
          </Trackpoint>
          <Trackpoint>
            <Time>2019-10-09T07:17:22.000Z</Time>
            <Position>
              <LatitudeDegrees>39.45853480137884616851806640625</LatitudeDegrees>
              <LongitudeDegrees>-6.3676607608795166015625</LongitudeDegrees>
            </Position>
            <AltitudeMeters>413.20001220703125</AltitudeMeters>
            <DistanceMeters>NAN</DistanceMeters>
          </Trackpoint>
          <Trackpoint>
            <Time>2019-10-09T07:17:29.000Z</Time>
            <Position>
              <LatitudeDegrees>39.45814202539622783660888671875</LatitudeDegrees>
              <LongitudeDegrees>-6.36764106340706348419189453125</LongitudeDegrees>
            </Position>
            <AltitudeMeters>413.20001220703125</AltitudeMeters>
            <DistanceMeters>NAN</DistanceMeters>
          </Trackpoint>
          <Trackpoint>
            <Time>2019-10-09T07:17:37.000Z</Time>
            <Position>
              <LatitudeDegrees>39.45771371014416217803955078125</LatitudeDegrees>
              <LongitudeDegrees>-6.3676263950765132904052734375</LongitudeDegrees>
            </Position>
            <AltitudeMeters>413.79998779296875</AltitudeMeters>
            <DistanceMeters>NAN</DistanceMeters>
          </Trackpoint>
          <Trackpoint>
            <Time>2019-10-09T07:17:40.000Z</Time>
            <Position>
              <LatitudeDegrees>39.45759099908173084259033203125</LatitudeDegrees>
              <LongitudeDegrees>-6.36775589548051357269287109375</LongitudeDegrees>
            </Position>
            <AltitudeMeters>413.79998779296875</AltitudeMeters>
            <DistanceMeters>NAN</DistanceMeters>
          </Trackpoint>
          <Trackpoint>
            <Time>2019-10-09T07:17:43.000Z</Time>
            <Position>
              <LatitudeDegrees>39.45754221640527248382568359375</LatitudeDegrees>
              <LongitudeDegrees>-6.3679392077028751373291015625</LongitudeDegrees>
            </Position>
            <AltitudeMeters>413.399993896484375</AltitudeMeters>
            <DistanceMeters>NAN</DistanceMeters>
          </Trackpoint>
          <Trackpoint>
            <Time>2019-10-09T07:17:44.000Z</Time>
            <Position>
              <LatitudeDegrees>39.457536600530147552490234375</LatitudeDegrees>
              <LongitudeDegrees>-6.36799729429185390472412109375</LongitudeDegrees>
            </Position>
            <AltitudeMeters>413.600006103515625</AltitudeMeters>
            <DistanceMeters>NAN</DistanceMeters>
          </Trackpoint>
          <Trackpoint>
            <Time>2019-10-09T07:17:46.000Z</Time>
            <Position>
              <LatitudeDegrees>39.457522518932819366455078125</LatitudeDegrees>
              <LongitudeDegrees>-6.36810265481472015380859375</LongitudeDegrees>
            </Position>
            <AltitudeMeters>414.399993896484375</AltitudeMeters>
            <DistanceMeters>NAN</DistanceMeters>
          </Trackpoint>
          <Trackpoint>
            <Time>2019-10-09T07:17:48.000Z</Time>
            <Position>
              <LatitudeDegrees>39.45751355029642581939697265625</LatitudeDegrees>
              <LongitudeDegrees>-6.3681958615779876708984375</LongitudeDegrees>
            </Position>
            <AltitudeMeters>415.600006103515625</AltitudeMeters>
            <DistanceMeters>NAN</DistanceMeters>
          </Trackpoint>
          <Trackpoint>
            <Time>2019-10-09T07:17:49.000Z</Time>
            <Position>
              <LatitudeDegrees>39.45750868879258632659912109375</LatitudeDegrees>
              <LongitudeDegrees>-6.36823751963675022125244140625</LongitudeDegrees>
            </Position>
            <AltitudeMeters>415.600006103515625</AltitudeMeters>
            <DistanceMeters>NAN</DistanceMeters>
          </Trackpoint>
          <Trackpoint>
            <Time>2019-10-09T07:17:54.000Z</Time>
            <Position>
              <LatitudeDegrees>39.45747859776020050048828125</LatitudeDegrees>
              <LongitudeDegrees>-6.36841923929750919342041015625</LongitudeDegrees>
            </Position>
            <AltitudeMeters>416.79998779296875</AltitudeMeters>
            <DistanceMeters>NAN</DistanceMeters>
          </Trackpoint>
          <Trackpoint>
            <Time>2019-10-09T07:17:55.000Z</Time>
            <Position>
              <LatitudeDegrees>39.457473568618297576904296875</LatitudeDegrees>
              <LongitudeDegrees>-6.36845444329082965850830078125</LongitudeDegrees>
            </Position>
            <AltitudeMeters>416.79998779296875</AltitudeMeters>
            <DistanceMeters>NAN</DistanceMeters>
          </Trackpoint>
          <Trackpoint>
            <Time>2019-10-09T07:17:59.000Z</Time>
            <Position>
              <LatitudeDegrees>39.457476250827312469482421875</LatitudeDegrees>
              <LongitudeDegrees>-6.36858989484608173370361328125</LongitudeDegrees>
            </Position>
            <AltitudeMeters>417.79998779296875</AltitudeMeters>
            <DistanceMeters>NAN</DistanceMeters>
          </Trackpoint>
          <Trackpoint>
            <Time>2019-10-09T07:18:02.000Z</Time>
            <Position>
              <LatitudeDegrees>39.45750676095485687255859375</LatitudeDegrees>
              <LongitudeDegrees>-6.36869550682604312896728515625</LongitudeDegrees>
            </Position>
            <AltitudeMeters>417.79998779296875</AltitudeMeters>
            <DistanceMeters>NAN</DistanceMeters>
          </Trackpoint>
          <Trackpoint>
            <Time>2019-10-09T07:18:08.000Z</Time>
            <Position>
              <LatitudeDegrees>39.4576133787631988525390625</LatitudeDegrees>
              <LongitudeDegrees>-6.3689255900681018829345703125</LongitudeDegrees>
            </Position>
            <AltitudeMeters>418.399993896484375</AltitudeMeters>
            <DistanceMeters>NAN</DistanceMeters>
          </Trackpoint>
          <Trackpoint>
            <Time>2019-10-09T07:18:12.000Z</Time>
            <Position>
              <LatitudeDegrees>39.4576133787631988525390625</LatitudeDegrees>
              <LongitudeDegrees>-6.36910622008144855499267578125</LongitudeDegrees>
            </Position>
            <AltitudeMeters>418.600006103515625</AltitudeMeters>
            <DistanceMeters>NAN</DistanceMeters>
          </Trackpoint>
          <Trackpoint>
            <Time>2019-10-09T07:18:13.000Z</Time>
            <Position>
              <LatitudeDegrees>39.4575984589755535125732421875</LatitudeDegrees>
              <LongitudeDegrees>-6.36914930306375026702880859375</LongitudeDegrees>
            </Position>
            <AltitudeMeters>419</AltitudeMeters>
            <DistanceMeters>NAN</DistanceMeters>
          </Trackpoint>
          <Trackpoint>
            <Time>2019-10-09T07:18:16.000Z</Time>
            <Position>
              <LatitudeDegrees>39.457522518932819366455078125</LatitudeDegrees>
              <LongitudeDegrees>-6.36926597915589809417724609375</LongitudeDegrees>
            </Position>
            <AltitudeMeters>418.600006103515625</AltitudeMeters>
            <DistanceMeters>NAN</DistanceMeters>
          </Trackpoint>
          <Trackpoint>
            <Time>2019-10-09T07:18:17.000Z</Time>
            <Position>
              <LatitudeDegrees>39.45748530328273773193359375</LatitudeDegrees>
              <LongitudeDegrees>-6.36929380707442760467529296875</LongitudeDegrees>
            </Position>
            <AltitudeMeters>418.79998779296875</AltitudeMeters>
            <DistanceMeters>NAN</DistanceMeters>
          </Trackpoint>
          <Trackpoint>
            <Time>2019-10-09T07:18:20.000Z</Time>
            <Position>
              <LatitudeDegrees>39.4573570601642131805419921875</LatitudeDegrees>
              <LongitudeDegrees>-6.36933906935155391693115234375</LongitudeDegrees>
            </Position>
            <AltitudeMeters>418.600006103515625</AltitudeMeters>
            <DistanceMeters>NAN</DistanceMeters>
          </Trackpoint>
          <Trackpoint>
            <Time>2019-10-09T07:18:24.000Z</Time>
            <Position>
              <LatitudeDegrees>39.457187242805957794189453125</LatitudeDegrees>
              <LongitudeDegrees>-6.36924125254154205322265625</LongitudeDegrees>
            </Position>
            <AltitudeMeters>418</AltitudeMeters>
            <DistanceMeters>NAN</DistanceMeters>
          </Trackpoint>
          <Trackpoint>
            <Time>2019-10-09T07:18:28.000Z</Time>
            <Position>
              <LatitudeDegrees>39.45708020590245723724365234375</LatitudeDegrees>
              <LongitudeDegrees>-6.3690194673836231231689453125</LongitudeDegrees>
            </Position>
            <AltitudeMeters>417.399993896484375</AltitudeMeters>
            <DistanceMeters>NAN</DistanceMeters>
          </Trackpoint>
          <Trackpoint>
            <Time>2019-10-09T07:18:29.000Z</Time>
            <Position>
              <LatitudeDegrees>39.45704885758459568023681640625</LatitudeDegrees>
              <LongitudeDegrees>-6.36896959505975246429443359375</LongitudeDegrees>
            </Position>
            <AltitudeMeters>417.20001220703125</AltitudeMeters>
            <DistanceMeters>NAN</DistanceMeters>
          </Trackpoint>
          <Trackpoint>
            <Time>2019-10-09T07:18:32.000Z</Time>
            <Position>
              <LatitudeDegrees>39.4569175131618976593017578125</LatitudeDegrees>
              <LongitudeDegrees>-6.36885275132954120635986328125</LongitudeDegrees>
            </Position>
            <AltitudeMeters>417</AltitudeMeters>
            <DistanceMeters>NAN</DistanceMeters>
          </Trackpoint>
          <Trackpoint>
            <Time>2019-10-09T07:18:38.000Z</Time>
            <Position>
              <LatitudeDegrees>39.45661953650414943695068359375</LatitudeDegrees>
              <LongitudeDegrees>-6.36862157844007015228271484375</LongitudeDegrees>
            </Position>
            <AltitudeMeters>416.399993896484375</AltitudeMeters>
            <DistanceMeters>NAN</DistanceMeters>
          </Trackpoint>
          <Trackpoint>
            <Time>2019-10-09T07:18:41.000Z</Time>
            <Position>
              <LatitudeDegrees>39.4564615376293659210205078125</LatitudeDegrees>
              <LongitudeDegrees>-6.3685014657676219940185546875</LongitudeDegrees>
            </Position>
            <AltitudeMeters>415.79998779296875</AltitudeMeters>
            <DistanceMeters>NAN</DistanceMeters>
          </Trackpoint>
          <Trackpoint>
            <Time>2019-10-09T07:18:43.000Z</Time>
            <Position>
              <LatitudeDegrees>39.4563552550971508026123046875</LatitudeDegrees>
              <LongitudeDegrees>-6.36841739527881145477294921875</LongitudeDegrees>
            </Position>
            <AltitudeMeters>415.600006103515625</AltitudeMeters>
            <DistanceMeters>NAN</DistanceMeters>
          </Trackpoint>
          <Trackpoint>
            <Time>2019-10-09T07:18:50.000Z</Time>
            <Position>
              <LatitudeDegrees>39.45598586462438106536865234375</LatitudeDegrees>
              <LongitudeDegrees>-6.36811631731688976287841796875</LongitudeDegrees>
            </Position>
            <AltitudeMeters>415.600006103515625</AltitudeMeters>
            <DistanceMeters>NAN</DistanceMeters>
          </Trackpoint>
          <Trackpoint>
            <Time>2019-10-09T07:18:58.000Z</Time>
            <Position>
              <LatitudeDegrees>39.45559493266046047210693359375</LatitudeDegrees>
              <LongitudeDegrees>-6.36780216358602046966552734375</LongitudeDegrees>
            </Position>
            <AltitudeMeters>416.20001220703125</AltitudeMeters>
            <DistanceMeters>NAN</DistanceMeters>
          </Trackpoint>
          <Trackpoint>
            <Time>2019-10-09T07:19:02.000Z</Time>
            <Position>
              <LatitudeDegrees>39.45541170425713062286376953125</LatitudeDegrees>
              <LongitudeDegrees>-6.367647685110569000244140625</LongitudeDegrees>
            </Position>
            <AltitudeMeters>417</AltitudeMeters>
            <DistanceMeters>NAN</DistanceMeters>
          </Trackpoint>
          <Trackpoint>
            <Time>2019-10-09T07:19:07.000Z</Time>
            <Position>
              <LatitudeDegrees>39.45518153719604015350341796875</LatitudeDegrees>
              <LongitudeDegrees>-6.3674631156027317047119140625</LongitudeDegrees>
            </Position>
            <AltitudeMeters>416.600006103515625</AltitudeMeters>
            <DistanceMeters>NAN</DistanceMeters>
          </Trackpoint>
          <Trackpoint>
            <Time>2019-10-09T07:19:17.000Z</Time>
            <Position>
              <LatitudeDegrees>39.4547268189489841461181640625</LatitudeDegrees>
              <LongitudeDegrees>-6.3670785538852214813232421875</LongitudeDegrees>
            </Position>
            <AltitudeMeters>417.20001220703125</AltitudeMeters>
            <DistanceMeters>NAN</DistanceMeters>
          </Trackpoint>
          <Trackpoint>
            <Time>2019-10-09T07:19:26.000Z</Time>
            <Position>
              <LatitudeDegrees>39.4543097354471683502197265625</LatitudeDegrees>
              <LongitudeDegrees>-6.3667566888034343719482421875</LongitudeDegrees>
            </Position>
            <AltitudeMeters>417.399993896484375</AltitudeMeters>
            <DistanceMeters>NAN</DistanceMeters>
          </Trackpoint>
          <Trackpoint>
            <Time>2019-10-09T07:19:34.000Z</Time>
            <Position>
              <LatitudeDegrees>39.45393942296504974365234375</LatitudeDegrees>
              <LongitudeDegrees>-6.36649944819509983062744140625</LongitudeDegrees>
            </Position>
            <AltitudeMeters>417.600006103515625</AltitudeMeters>
            <DistanceMeters>NAN</DistanceMeters>
          </Trackpoint>
          <Trackpoint>
            <Time>2019-10-09T07:19:37.000Z</Time>
            <Position>
              <LatitudeDegrees>39.453791566193103790283203125</LatitudeDegrees>
              <LongitudeDegrees>-6.36642266996204853057861328125</LongitudeDegrees>
            </Position>
            <AltitudeMeters>418</AltitudeMeters>
            <DistanceMeters>NAN</DistanceMeters>
          </Trackpoint>
          <Trackpoint>
            <Time>2019-10-09T07:19:40.000Z</Time>
            <Position>
              <LatitudeDegrees>39.4536422006785869598388671875</LatitudeDegrees>
              <LongitudeDegrees>-6.36637070216238498687744140625</LongitudeDegrees>
            </Position>
            <AltitudeMeters>417.600006103515625</AltitudeMeters>
            <DistanceMeters>NAN</DistanceMeters>
          </Trackpoint>
          <Trackpoint>
            <Time>2019-10-09T07:19:45.000Z</Time>
            <Position>
              <LatitudeDegrees>39.45341027341783046722412109375</LatitudeDegrees>
              <LongitudeDegrees>-6.36629694141447544097900390625</LongitudeDegrees>
            </Position>
            <AltitudeMeters>418.20001220703125</AltitudeMeters>
            <DistanceMeters>NAN</DistanceMeters>
          </Trackpoint>
          <Trackpoint>
            <Time>2019-10-09T07:19:47.000Z</Time>
            <Position>
              <LatitudeDegrees>39.4533220119774341583251953125</LatitudeDegrees>
              <LongitudeDegrees>-6.36626693420112133026123046875</LongitudeDegrees>
            </Position>
            <AltitudeMeters>418.600006103515625</AltitudeMeters>
            <DistanceMeters>NAN</DistanceMeters>
          </Trackpoint>
          <Trackpoint>
            <Time>2019-10-09T07:19:49.000Z</Time>
            <Position>
              <LatitudeDegrees>39.45323660038411617279052734375</LatitudeDegrees>
              <LongitudeDegrees>-6.366241537034511566162109375</LongitudeDegrees>
            </Position>
            <AltitudeMeters>418.600006103515625</AltitudeMeters>
            <DistanceMeters>NAN</DistanceMeters>
          </Trackpoint>
          <Trackpoint>
            <Time>2019-10-09T07:19:50.000Z</Time>
            <Position>
              <LatitudeDegrees>39.45319435559213161468505859375</LatitudeDegrees>
              <LongitudeDegrees>-6.3662336580455303192138671875</LongitudeDegrees>
            </Position>
            <AltitudeMeters>419</AltitudeMeters>
            <DistanceMeters>NAN</DistanceMeters>
          </Trackpoint>
          <Trackpoint>
            <Time>2019-10-09T07:19:54.000Z</Time>
            <Position>
              <LatitudeDegrees>39.45302336476743221282958984375</LatitudeDegrees>
              <LongitudeDegrees>-6.366187222301959991455078125</LongitudeDegrees>
            </Position>
            <AltitudeMeters>419</AltitudeMeters>
            <DistanceMeters>NAN</DistanceMeters>
          </Trackpoint>
          <Trackpoint>
            <Time>2019-10-09T07:19:59.000Z</Time>
            <Position>
              <LatitudeDegrees>39.45282102562487125396728515625</LatitudeDegrees>
              <LongitudeDegrees>-6.36614330112934112548828125</LongitudeDegrees>
            </Position>
            <AltitudeMeters>419.600006103515625</AltitudeMeters>
            <DistanceMeters>NAN</DistanceMeters>
          </Trackpoint>
          <Trackpoint>
            <Time>2019-10-09T07:20:00.000Z</Time>
            <Position>
              <LatitudeDegrees>39.4527827203273773193359375</LatitudeDegrees>
              <LongitudeDegrees>-6.36613382957875728607177734375</LongitudeDegrees>
            </Position>
            <AltitudeMeters>420</AltitudeMeters>
            <DistanceMeters>NAN</DistanceMeters>
          </Trackpoint>
          <Trackpoint>
            <Time>2019-10-09T07:20:06.000Z</Time>
            <Position>
              <LatitudeDegrees>39.45258482359349727630615234375</LatitudeDegrees>
              <LongitudeDegrees>-6.366080939769744873046875</LongitudeDegrees>
            </Position>
            <AltitudeMeters>420.600006103515625</AltitudeMeters>
            <DistanceMeters>NAN</DistanceMeters>
          </Trackpoint>
          <Trackpoint>
            <Time>2019-10-09T07:20:11.000Z</Time>
            <Position>
              <LatitudeDegrees>39.45241752080619335174560546875</LatitudeDegrees>
              <LongitudeDegrees>-6.36604833416640758514404296875</LongitudeDegrees>
            </Position>
            <AltitudeMeters>420.600006103515625</AltitudeMeters>
            <DistanceMeters>NAN</DistanceMeters>
          </Trackpoint>
          <Trackpoint>
            <Time>2019-10-09T07:20:12.000Z</Time>
            <Position>
              <LatitudeDegrees>39.452378042042255401611328125</LatitudeDegrees>
              <LongitudeDegrees>-6.366039030253887176513671875</LongitudeDegrees>
            </Position>
            <AltitudeMeters>421.20001220703125</AltitudeMeters>
            <DistanceMeters>NAN</DistanceMeters>
          </Trackpoint>
          <Trackpoint>
            <Time>2019-10-09T07:20:18.000Z</Time>
            <Position>
              <LatitudeDegrees>39.45214879699051380157470703125</LatitudeDegrees>
              <LongitudeDegrees>-6.3659669458866119384765625</LongitudeDegrees>
            </Position>
            <AltitudeMeters>421.600006103515625</AltitudeMeters>
            <DistanceMeters>NAN</DistanceMeters>
          </Trackpoint>
          <Trackpoint>
            <Time>2019-10-09T07:20:23.000Z</Time>
            <Position>
              <LatitudeDegrees>39.45195232518017292022705078125</LatitudeDegrees>
              <LongitudeDegrees>-6.36591799557209014892578125</LongitudeDegrees>
            </Position>
            <AltitudeMeters>422.20001220703125</AltitudeMeters>
            <DistanceMeters>NAN</DistanceMeters>
          </Trackpoint>
          <Trackpoint>
            <Time>2019-10-09T07:20:24.000Z</Time>
            <Position>
              <LatitudeDegrees>39.451917707920074462890625</LatitudeDegrees>
              <LongitudeDegrees>-6.365908272564411163330078125</LongitudeDegrees>
            </Position>
            <AltitudeMeters>422.20001220703125</AltitudeMeters>
            <DistanceMeters>NAN</DistanceMeters>
          </Trackpoint>
          <Trackpoint>
            <Time>2019-10-09T07:20:26.000Z</Time>
            <Position>
              <LatitudeDegrees>39.451891891658306121826171875</LatitudeDegrees>
              <LongitudeDegrees>-6.3659003935754299163818359375</LongitudeDegrees>
            </Position>
            <AltitudeMeters>422.20001220703125</AltitudeMeters>
            <DistanceMeters>NAN</DistanceMeters>
          </Trackpoint>
          <Trackpoint>
            <Time>2019-10-09T07:20:27.000Z</Time>
            <Position>
              <LatitudeDegrees>39.45189599879086017608642578125</LatitudeDegrees>
              <LongitudeDegrees>-6.36588513851165771484375</LongitudeDegrees>
            </Position>
            <AltitudeMeters>422.399993896484375</AltitudeMeters>
            <DistanceMeters>NAN</DistanceMeters>
          </Trackpoint>
          <Trackpoint>
            <Time>2019-10-09T07:20:31.000Z</Time>
            <Position>
              <LatitudeDegrees>39.4519560970366001129150390625</LatitudeDegrees>
              <LongitudeDegrees>-6.36589293368160724639892578125</LongitudeDegrees>
            </Position>
            <AltitudeMeters>421.79998779296875</AltitudeMeters>
            <DistanceMeters>NAN</DistanceMeters>
          </Trackpoint>
          <Trackpoint>
            <Time>2019-10-09T07:20:34.000Z</Time>
            <Position>
              <LatitudeDegrees>39.45205089636147022247314453125</LatitudeDegrees>
              <LongitudeDegrees>-6.36592009104788303375244140625</LongitudeDegrees>
            </Position>
            <AltitudeMeters>421.20001220703125</AltitudeMeters>
            <DistanceMeters>NAN</DistanceMeters>
          </Trackpoint>
          <Trackpoint>
            <Time>2019-10-09T07:20:36.000Z</Time>
            <Position>
              <LatitudeDegrees>39.45212029851973056793212890625</LatitudeDegrees>
              <LongitudeDegrees>-6.365954540669918060302734375</LongitudeDegrees>
            </Position>
            <AltitudeMeters>421.20001220703125</AltitudeMeters>
            <DistanceMeters>NAN</DistanceMeters>
          </Trackpoint>
          <Trackpoint>
            <Time>2019-10-09T07:20:37.000Z</Time>
            <Position>
              <LatitudeDegrees>39.4521616213023662567138671875</LatitudeDegrees>
              <LongitudeDegrees>-6.36595881544053554534912109375</LongitudeDegrees>
            </Position>
            <AltitudeMeters>421</AltitudeMeters>
            <DistanceMeters>NAN</DistanceMeters>
          </Trackpoint>
          <Trackpoint>
            <Time>2019-10-09T07:20:40.000Z</Time>
            <Position>
              <LatitudeDegrees>39.45229346863925457000732421875</LatitudeDegrees>
              <LongitudeDegrees>-6.36596585623919963836669921875</LongitudeDegrees>
            </Position>
            <AltitudeMeters>420.399993896484375</AltitudeMeters>
            <DistanceMeters>NAN</DistanceMeters>
          </Trackpoint>
          <Trackpoint>
            <Time>2019-10-09T07:20:41.000Z</Time>
            <Position>
              <LatitudeDegrees>39.4523396529257297515869140625</LatitudeDegrees>
              <LongitudeDegrees>-6.36598010547459125518798828125</LongitudeDegrees>
            </Position>
            <AltitudeMeters>419.79998779296875</AltitudeMeters>
            <DistanceMeters>NAN</DistanceMeters>
          </Trackpoint>
          <Trackpoint>
            <Time>2019-10-09T07:20:42.000Z</Time>
            <Position>
              <LatitudeDegrees>39.45238466374576091766357421875</LatitudeDegrees>
              <LongitudeDegrees>-6.36599686928093433380126953125</LongitudeDegrees>
            </Position>
            <AltitudeMeters>419.79998779296875</AltitudeMeters>
            <DistanceMeters>NAN</DistanceMeters>
          </Trackpoint>
          <Trackpoint>
            <Time>2019-10-09T07:20:45.000Z</Time>
            <Position>
              <LatitudeDegrees>39.45252028293907642364501953125</LatitudeDegrees>
              <LongitudeDegrees>-6.3660432212054729461669921875</LongitudeDegrees>
            </Position>
            <AltitudeMeters>420.600006103515625</AltitudeMeters>
            <DistanceMeters>NAN</DistanceMeters>
          </Trackpoint>
          <Trackpoint>
            <Time>2019-10-09T07:20:48.000Z</Time>
            <Position>
              <LatitudeDegrees>39.45264265872538089752197265625</LatitudeDegrees>
              <LongitudeDegrees>-6.3660764135420322418212890625</LongitudeDegrees>
            </Position>
            <AltitudeMeters>419.399993896484375</AltitudeMeters>
            <DistanceMeters>NAN</DistanceMeters>
          </Trackpoint>
          <Trackpoint>
            <Time>2019-10-09T07:20:50.000Z</Time>
            <Position>
              <LatitudeDegrees>39.452713318169116973876953125</LatitudeDegrees>
              <LongitudeDegrees>-6.3660878129303455352783203125</LongitudeDegrees>
            </Position>
            <AltitudeMeters>419.600006103515625</AltitudeMeters>
            <DistanceMeters>NAN</DistanceMeters>
          </Trackpoint>
          <Trackpoint>
            <Time>2019-10-09T07:20:56.000Z</Time>
            <Position>
              <LatitudeDegrees>39.45290233008563518524169921875</LatitudeDegrees>
              <LongitudeDegrees>-6.3661582209169864654541015625</LongitudeDegrees>
            </Position>
            <AltitudeMeters>419</AltitudeMeters>
            <DistanceMeters>NAN</DistanceMeters>
          </Trackpoint>
          <Trackpoint>
            <Time>2019-10-09T07:20:57.000Z</Time>
            <Position>
              <LatitudeDegrees>39.45293552242219448089599609375</LatitudeDegrees>
              <LongitudeDegrees>-6.3661649264395236968994140625</LongitudeDegrees>
            </Position>
            <AltitudeMeters>418.600006103515625</AltitudeMeters>
            <DistanceMeters>NAN</DistanceMeters>
          </Trackpoint>
          <Trackpoint>
            <Time>2019-10-09T07:21:00.000Z</Time>
            <Position>
              <LatitudeDegrees>39.453047253191471099853515625</LatitudeDegrees>
              <LongitudeDegrees>-6.36617892421782016754150390625</LongitudeDegrees>
            </Position>
            <AltitudeMeters>418.79998779296875</AltitudeMeters>
            <DistanceMeters>NAN</DistanceMeters>
          </Trackpoint>
          <Trackpoint>
            <Time>2019-10-09T07:21:01.000Z</Time>
            <Position>
              <LatitudeDegrees>39.45307935588061809539794921875</LatitudeDegrees>
              <LongitudeDegrees>-6.36617221869528293609619140625</LongitudeDegrees>
            </Position>
            <AltitudeMeters>418.600006103515625</AltitudeMeters>
            <DistanceMeters>NAN</DistanceMeters>
          </Trackpoint>
          <Trackpoint>
            <Time>2019-10-09T07:21:04.000Z</Time>
            <Position>
              <LatitudeDegrees>39.453140795230865478515625</LatitudeDegrees>
              <LongitudeDegrees>-6.36612854897975921630859375</LongitudeDegrees>
            </Position>
            <AltitudeMeters>418.399993896484375</AltitudeMeters>
            <DistanceMeters>NAN</DistanceMeters>
          </Trackpoint>
          <Trackpoint>
            <Time>2019-10-09T07:21:05.000Z</Time>
            <Position>
              <LatitudeDegrees>39.4531563855707645416259765625</LatitudeDegrees>
              <LongitudeDegrees>-6.36609476990997791290283203125</LongitudeDegrees>
            </Position>
            <AltitudeMeters>418.79998779296875</AltitudeMeters>
            <DistanceMeters>NAN</DistanceMeters>
          </Trackpoint>
          <Trackpoint>
            <Time>2019-10-09T07:21:10.000Z</Time>
            <Position>
              <LatitudeDegrees>39.453213214874267578125</LatitudeDegrees>
              <LongitudeDegrees>-6.36591799557209014892578125</LongitudeDegrees>
            </Position>
            <AltitudeMeters>418.20001220703125</AltitudeMeters>
            <DistanceMeters>NAN</DistanceMeters>
          </Trackpoint>
          <Trackpoint>
            <Time>2019-10-09T07:21:11.000Z</Time>
            <Position>
              <LatitudeDegrees>39.45321329869329929351806640625</LatitudeDegrees>
              <LongitudeDegrees>-6.36589846573770046234130859375</LongitudeDegrees>
            </Position>
            <AltitudeMeters>418.399993896484375</AltitudeMeters>
            <DistanceMeters>NAN</DistanceMeters>
          </Trackpoint>
          <Trackpoint>
            <Time>2019-10-09T07:21:13.000Z</Time>
            <Position>
              <LatitudeDegrees>39.453232996165752410888671875</LatitudeDegrees>
              <LongitudeDegrees>-6.36584021151065826416015625</LongitudeDegrees>
            </Position>
            <AltitudeMeters>418.399993896484375</AltitudeMeters>
            <DistanceMeters>NAN</DistanceMeters>
          </Trackpoint>
          <Trackpoint>
            <Time>2019-10-09T07:21:15.000Z</Time>
            <Position>
              <LatitudeDegrees>39.4532794319093227386474609375</LatitudeDegrees>
              <LongitudeDegrees>-6.3657917641103267669677734375</LongitudeDegrees>
            </Position>
            <AltitudeMeters>417.79998779296875</AltitudeMeters>
            <DistanceMeters>NAN</DistanceMeters>
          </Trackpoint>
          <Trackpoint>
            <Time>2019-10-09T07:21:18.000Z</Time>
            <Position>
              <LatitudeDegrees>39.45338479243218898773193359375</LatitudeDegrees>
              <LongitudeDegrees>-6.365815065801143646240234375</LongitudeDegrees>
            </Position>
            <AltitudeMeters>417.399993896484375</AltitudeMeters>
            <DistanceMeters>NAN</DistanceMeters>
          </Trackpoint>
          <Trackpoint>
            <Time>2019-10-09T07:21:20.000Z</Time>
            <Position>
              <LatitudeDegrees>39.45345452986657619476318359375</LatitudeDegrees>
              <LongitudeDegrees>-6.365860998630523681640625</LongitudeDegrees>
            </Position>
            <AltitudeMeters>417.399993896484375</AltitudeMeters>
            <DistanceMeters>NAN</DistanceMeters>
          </Trackpoint>
          <Trackpoint>
            <Time>2019-10-09T07:21:25.000Z</Time>
            <Position>
              <LatitudeDegrees>39.45362250320613384246826171875</LatitudeDegrees>
              <LongitudeDegrees>-6.365988738834857940673828125</LongitudeDegrees>
            </Position>
            <AltitudeMeters>417.20001220703125</AltitudeMeters>
            <DistanceMeters>NAN</DistanceMeters>
          </Trackpoint>
          <Trackpoint>
            <Time>2019-10-09T07:21:34.000Z</Time>
            <Position>
              <LatitudeDegrees>39.45392274297773838043212890625</LatitudeDegrees>
              <LongitudeDegrees>-6.36619384400546550750732421875</LongitudeDegrees>
            </Position>
            <AltitudeMeters>416.79998779296875</AltitudeMeters>
            <DistanceMeters>NAN</DistanceMeters>
          </Trackpoint>
          <Trackpoint>
            <Time>2019-10-09T07:21:37.000Z</Time>
            <Position>
              <LatitudeDegrees>39.4540203921496868133544921875</LatitudeDegrees>
              <LongitudeDegrees>-6.36626659892499446868896484375</LongitudeDegrees>
            </Position>
            <AltitudeMeters>416.600006103515625</AltitudeMeters>
            <DistanceMeters>NAN</DistanceMeters>
          </Trackpoint>
          <Trackpoint>
            <Time>2019-10-09T07:21:39.000Z</Time>
            <Position>
              <LatitudeDegrees>39.45408560335636138916015625</LatitudeDegrees>
              <LongitudeDegrees>-6.3663137890398502349853515625</LongitudeDegrees>
            </Position>
            <AltitudeMeters>416.79998779296875</AltitudeMeters>
            <DistanceMeters>NAN</DistanceMeters>
          </Trackpoint>
          <Trackpoint>
            <Time>2019-10-09T07:21:42.000Z</Time>
            <Position>
              <LatitudeDegrees>39.45417813956737518310546875</LatitudeDegrees>
              <LongitudeDegrees>-6.36638930998742580413818359375</LongitudeDegrees>
            </Position>
            <AltitudeMeters>416.399993896484375</AltitudeMeters>
            <DistanceMeters>NAN</DistanceMeters>
          </Trackpoint>
          <Trackpoint>
            <Time>2019-10-09T07:21:46.000Z</Time>
            <Position>
              <LatitudeDegrees>39.454288445413112640380859375</LatitudeDegrees>
              <LongitudeDegrees>-6.36647396720945835113525390625</LongitudeDegrees>
            </Position>
            <AltitudeMeters>417.20001220703125</AltitudeMeters>
            <DistanceMeters>NAN</DistanceMeters>
          </Trackpoint>
          <Trackpoint>
            <Time>2019-10-09T07:21:48.000Z</Time>
            <Position>
              <LatitudeDegrees>39.45434083230793476104736328125</LatitudeDegrees>
              <LongitudeDegrees>-6.36650816537439823150634765625</LongitudeDegrees>
            </Position>
            <AltitudeMeters>417</AltitudeMeters>
            <DistanceMeters>NAN</DistanceMeters>
          </Trackpoint>
          <Trackpoint>
            <Time>2019-10-09T07:21:49.000Z</Time>
            <Position>
              <LatitudeDegrees>39.454360194504261016845703125</LatitudeDegrees>
              <LongitudeDegrees>-6.36652442626655101776123046875</LongitudeDegrees>
            </Position>
            <AltitudeMeters>417</AltitudeMeters>
            <DistanceMeters>NAN</DistanceMeters>
          </Trackpoint>
          <Trackpoint>
            <Time>2019-10-09T07:21:53.000Z</Time>
            <Position>
              <LatitudeDegrees>39.45439430885016918182373046875</LatitudeDegrees>
              <LongitudeDegrees>-6.36655812151730060577392578125</LongitudeDegrees>
            </Position>
            <AltitudeMeters>417</AltitudeMeters>
            <DistanceMeters>NAN</DistanceMeters>
          </Trackpoint>
          <Trackpoint>
            <Time>2019-10-09T07:21:54.000Z</Time>
            <Position>
              <LatitudeDegrees>39.4543878547847270965576171875</LatitudeDegrees>
              <LongitudeDegrees>-6.36655644513666629791259765625</LongitudeDegrees>
            </Position>
            <AltitudeMeters>417.20001220703125</AltitudeMeters>
            <DistanceMeters>NAN</DistanceMeters>
          </Trackpoint>
          <Trackpoint>
            <Time>2019-10-09T07:21:59.000Z</Time>
            <Position>
              <LatitudeDegrees>39.45439632050693035125732421875</LatitudeDegrees>
              <LongitudeDegrees>-6.3665632344782352447509765625</LongitudeDegrees>
            </Position>
            <AltitudeMeters>417.20001220703125</AltitudeMeters>
            <DistanceMeters>NAN</DistanceMeters>
          </Trackpoint>
          <Trackpoint>
            <Time>2019-10-09T07:22:01.000Z</Time>
            <Position>
              <LatitudeDegrees>39.45439632050693035125732421875</LatitudeDegrees>
              <LongitudeDegrees>-6.3665632344782352447509765625</LongitudeDegrees>
            </Position>
            <AltitudeMeters>417.399993896484375</AltitudeMeters>
            <DistanceMeters>NAN</DistanceMeters>
          </Trackpoint>
          <Trackpoint>
            <Time>2019-10-09T07:22:06.000Z</Time>
            <Position>
              <LatitudeDegrees>39.45439632050693035125732421875</LatitudeDegrees>
              <LongitudeDegrees>-6.3665632344782352447509765625</LongitudeDegrees>
            </Position>
            <AltitudeMeters>417</AltitudeMeters>
            <DistanceMeters>NAN</DistanceMeters>
          </Trackpoint>
          <Trackpoint>
            <Time>2019-10-09T07:22:17.000Z</Time>
            <Position>
              <LatitudeDegrees>39.45439632050693035125732421875</LatitudeDegrees>
              <LongitudeDegrees>-6.3665632344782352447509765625</LongitudeDegrees>
            </Position>
            <AltitudeMeters>417.20001220703125</AltitudeMeters>
            <DistanceMeters>NAN</DistanceMeters>
          </Trackpoint>
          <Trackpoint>
            <Time>2019-10-09T07:22:20.000Z</Time>
            <Position>
              <LatitudeDegrees>39.45439632050693035125732421875</LatitudeDegrees>
              <LongitudeDegrees>-6.3665632344782352447509765625</LongitudeDegrees>
            </Position>
            <AltitudeMeters>417</AltitudeMeters>
            <DistanceMeters>NAN</DistanceMeters>
          </Trackpoint>
          <Trackpoint>
            <Time>2019-10-09T07:22:28.000Z</Time>
            <Position>
              <LatitudeDegrees>39.45439632050693035125732421875</LatitudeDegrees>
              <LongitudeDegrees>-6.3665632344782352447509765625</LongitudeDegrees>
            </Position>
            <AltitudeMeters>416.79998779296875</AltitudeMeters>
            <DistanceMeters>NAN</DistanceMeters>
          </Trackpoint>
          <Trackpoint>
            <Time>2019-10-09T07:22:33.000Z</Time>
            <Position>
              <LatitudeDegrees>39.45439632050693035125732421875</LatitudeDegrees>
              <LongitudeDegrees>-6.3665632344782352447509765625</LongitudeDegrees>
            </Position>
            <AltitudeMeters>416.79998779296875</AltitudeMeters>
            <DistanceMeters>NAN</DistanceMeters>
          </Trackpoint>
          <Trackpoint>
            <Time>2019-10-09T07:22:37.000Z</Time>
            <Position>
              <LatitudeDegrees>39.45442356169223785400390625</LatitudeDegrees>
              <LongitudeDegrees>-6.366598941385746002197265625</LongitudeDegrees>
            </Position>
            <AltitudeMeters>417.20001220703125</AltitudeMeters>
            <DistanceMeters>NAN</DistanceMeters>
          </Trackpoint>
          <Trackpoint>
            <Time>2019-10-09T07:22:39.000Z</Time>
            <Position>
              <LatitudeDegrees>39.454462118446826934814453125</LatitudeDegrees>
              <LongitudeDegrees>-6.3666386716067790985107421875</LongitudeDegrees>
            </Position>
            <AltitudeMeters>416.79998779296875</AltitudeMeters>
            <DistanceMeters>NAN</DistanceMeters>
          </Trackpoint>
          <Trackpoint>
            <Time>2019-10-09T07:22:40.000Z</Time>
            <Position>
              <LatitudeDegrees>39.45448885671794414520263671875</LatitudeDegrees>
              <LongitudeDegrees>-6.3666591234505176544189453125</LongitudeDegrees>
            </Position>
            <AltitudeMeters>416.600006103515625</AltitudeMeters>
            <DistanceMeters>NAN</DistanceMeters>
          </Trackpoint>
          <Trackpoint>
            <Time>2019-10-09T07:22:42.000Z</Time>
            <Position>
              <LatitudeDegrees>39.45455373264849185943603515625</LatitudeDegrees>
              <LongitudeDegrees>-6.3667027093470096588134765625</LongitudeDegrees>
            </Position>
            <AltitudeMeters>416.399993896484375</AltitudeMeters>
            <DistanceMeters>NAN</DistanceMeters>
          </Trackpoint>
          <Trackpoint>
            <Time>2019-10-09T07:22:45.000Z</Time>
            <Position>
              <LatitudeDegrees>39.45465733297169208526611328125</LatitudeDegrees>
              <LongitudeDegrees>-6.36678677983582019805908203125</LongitudeDegrees>
            </Position>
            <AltitudeMeters>416</AltitudeMeters>
            <DistanceMeters>NAN</DistanceMeters>
          </Trackpoint>
          <Trackpoint>
            <Time>2019-10-09T07:22:50.000Z</Time>
            <Position>
              <LatitudeDegrees>39.4548381306231021881103515625</LatitudeDegrees>
              <LongitudeDegrees>-6.36692323721945285797119140625</LongitudeDegrees>
            </Position>
            <AltitudeMeters>416</AltitudeMeters>
            <DistanceMeters>NAN</DistanceMeters>
          </Trackpoint>
          <Trackpoint>
            <Time>2019-10-09T07:22:57.000Z</Time>
            <Position>
              <LatitudeDegrees>39.45508263073861598968505859375</LatitudeDegrees>
              <LongitudeDegrees>-6.36712457053363323211669921875</LongitudeDegrees>
            </Position>
            <AltitudeMeters>415.399993896484375</AltitudeMeters>
            <DistanceMeters>NAN</DistanceMeters>
          </Trackpoint>
          <Trackpoint>
            <Time>2019-10-09T07:22:58.000Z</Time>
            <Position>
              <LatitudeDegrees>39.45512093603610992431640625</LatitudeDegrees>
              <LongitudeDegrees>-6.36715441010892391204833984375</LongitudeDegrees>
            </Position>
            <AltitudeMeters>415.399993896484375</AltitudeMeters>
            <DistanceMeters>NAN</DistanceMeters>
          </Trackpoint>
          <Trackpoint>
            <Time>2019-10-09T07:22:59.000Z</Time>
            <Position>
              <LatitudeDegrees>39.45516695268452167510986328125</LatitudeDegrees>
              <LongitudeDegrees>-6.367180980741977691650390625</LongitudeDegrees>
            </Position>
            <AltitudeMeters>415.399993896484375</AltitudeMeters>
            <DistanceMeters>NAN</DistanceMeters>
          </Trackpoint>
          <Trackpoint>
            <Time>2019-10-09T07:23:02.000Z</Time>
            <Position>
              <LatitudeDegrees>39.45527826435863971710205078125</LatitudeDegrees>
              <LongitudeDegrees>-6.3672790490090847015380859375</LongitudeDegrees>
            </Position>
            <AltitudeMeters>415.20001220703125</AltitudeMeters>
            <DistanceMeters>NAN</DistanceMeters>
          </Trackpoint>
          <Trackpoint>
            <Time>2019-10-09T07:23:07.000Z</Time>
            <Position>
              <LatitudeDegrees>39.45548948831856250762939453125</LatitudeDegrees>
              <LongitudeDegrees>-6.367457248270511627197265625</LongitudeDegrees>
            </Position>
            <AltitudeMeters>415.20001220703125</AltitudeMeters>
            <DistanceMeters>NAN</DistanceMeters>
          </Trackpoint>
          <Trackpoint>
            <Time>2019-10-09T07:23:10.000Z</Time>
            <Position>
              <LatitudeDegrees>39.45561504922807216644287109375</LatitudeDegrees>
              <LongitudeDegrees>-6.36755548417568206787109375</LongitudeDegrees>
            </Position>
            <AltitudeMeters>415.20001220703125</AltitudeMeters>
            <DistanceMeters>NAN</DistanceMeters>
          </Trackpoint>
          <Trackpoint>
            <Time>2019-10-09T07:23:16.000Z</Time>
            <Position>
              <LatitudeDegrees>39.45587237365543842315673828125</LatitudeDegrees>
              <LongitudeDegrees>-6.36777450330555438995361328125</LongitudeDegrees>
            </Position>
            <AltitudeMeters>414.79998779296875</AltitudeMeters>
            <DistanceMeters>NAN</DistanceMeters>
          </Trackpoint>
          <Trackpoint>
            <Time>2019-10-09T07:23:26.000Z</Time>
            <Position>
              <LatitudeDegrees>39.45633069612085819244384765625</LatitudeDegrees>
              <LongitudeDegrees>-6.3681611604988574981689453125</LongitudeDegrees>
            </Position>
            <AltitudeMeters>414.79998779296875</AltitudeMeters>
            <DistanceMeters>NAN</DistanceMeters>
          </Trackpoint>
          <Trackpoint>
            <Time>2019-10-09T07:23:32.000Z</Time>
            <Position>
              <LatitudeDegrees>39.45657360367476940155029296875</LatitudeDegrees>
              <LongitudeDegrees>-6.36836308054625988006591796875</LongitudeDegrees>
            </Position>
            <AltitudeMeters>414.79998779296875</AltitudeMeters>
            <DistanceMeters>NAN</DistanceMeters>
          </Trackpoint>
          <Trackpoint>
            <Time>2019-10-09T07:23:40.000Z</Time>
            <Position>
              <LatitudeDegrees>39.4568784534931182861328125</LatitudeDegrees>
              <LongitudeDegrees>-6.368607915937900543212890625</LongitudeDegrees>
            </Position>
            <AltitudeMeters>415.399993896484375</AltitudeMeters>
            <DistanceMeters>NAN</DistanceMeters>
          </Trackpoint>
          <Trackpoint>
            <Time>2019-10-09T07:23:41.000Z</Time>
            <Position>
              <LatitudeDegrees>39.45690996944904327392578125</LatitudeDegrees>
              <LongitudeDegrees>-6.36864337138831615447998046875</LongitudeDegrees>
            </Position>
            <AltitudeMeters>415.399993896484375</AltitudeMeters>
            <DistanceMeters>NAN</DistanceMeters>
          </Trackpoint>
          <Trackpoint>
            <Time>2019-10-09T07:23:43.000Z</Time>
            <Position>
              <LatitudeDegrees>39.45698230527341365814208984375</LatitudeDegrees>
              <LongitudeDegrees>-6.3686959259212017059326171875</LongitudeDegrees>
            </Position>
            <AltitudeMeters>415.79998779296875</AltitudeMeters>
            <DistanceMeters>NAN</DistanceMeters>
          </Trackpoint>
          <Trackpoint>
            <Time>2019-10-09T07:23:45.000Z</Time>
            <Position>
              <LatitudeDegrees>39.45706729777157306671142578125</LatitudeDegrees>
              <LongitudeDegrees>-6.3687311299145221710205078125</LongitudeDegrees>
            </Position>
            <AltitudeMeters>416</AltitudeMeters>
            <DistanceMeters>NAN</DistanceMeters>
          </Trackpoint>
          <Trackpoint>
            <Time>2019-10-09T07:23:46.000Z</Time>
            <Position>
              <LatitudeDegrees>39.4571149908006191253662109375</LatitudeDegrees>
              <LongitudeDegrees>-6.3687336444854736328125</LongitudeDegrees>
            </Position>
            <AltitudeMeters>416.399993896484375</AltitudeMeters>
            <DistanceMeters>NAN</DistanceMeters>
          </Trackpoint>
          <Trackpoint>
            <Time>2019-10-09T07:23:49.000Z</Time>
            <Position>
              <LatitudeDegrees>39.45724633522331714630126953125</LatitudeDegrees>
              <LongitudeDegrees>-6.36869634501636028289794921875</LongitudeDegrees>
            </Position>
            <AltitudeMeters>416.399993896484375</AltitudeMeters>
            <DistanceMeters>NAN</DistanceMeters>
          </Trackpoint>
          <Trackpoint>
            <Time>2019-10-09T07:23:50.000Z</Time>
            <Position>
              <LatitudeDegrees>39.45729042403399944305419921875</LatitudeDegrees>
              <LongitudeDegrees>-6.36869232170283794403076171875</LongitudeDegrees>
            </Position>
            <AltitudeMeters>416.20001220703125</AltitudeMeters>
            <DistanceMeters>NAN</DistanceMeters>
          </Trackpoint>
          <Trackpoint>
            <Time>2019-10-09T07:23:54.000Z</Time>
            <Position>
              <LatitudeDegrees>39.4574529491364955902099609375</LatitudeDegrees>
              <LongitudeDegrees>-6.36873674578964710235595703125</LongitudeDegrees>
            </Position>
            <AltitudeMeters>416.79998779296875</AltitudeMeters>
            <DistanceMeters>NAN</DistanceMeters>
          </Trackpoint>
          <Trackpoint>
            <Time>2019-10-09T07:23:57.000Z</Time>
            <Position>
              <LatitudeDegrees>39.4575511850416660308837890625</LatitudeDegrees>
              <LongitudeDegrees>-6.3688407652080059051513671875</LongitudeDegrees>
            </Position>
            <AltitudeMeters>417.399993896484375</AltitudeMeters>
            <DistanceMeters>NAN</DistanceMeters>
          </Trackpoint>
          <Trackpoint>
            <Time>2019-10-09T07:23:58.000Z</Time>
            <Position>
              <LatitudeDegrees>39.45757239125669002532958984375</LatitudeDegrees>
              <LongitudeDegrees>-6.3688880391418933868408203125</LongitudeDegrees>
            </Position>
            <AltitudeMeters>417.399993896484375</AltitudeMeters>
            <DistanceMeters>NAN</DistanceMeters>
          </Trackpoint>
          <Trackpoint>
            <Time>2019-10-09T07:24:02.000Z</Time>
            <Position>
              <LatitudeDegrees>39.4575739838182926177978515625</LatitudeDegrees>
              <LongitudeDegrees>-6.369100771844387054443359375</LongitudeDegrees>
            </Position>
            <AltitudeMeters>417.79998779296875</AltitudeMeters>
            <DistanceMeters>NAN</DistanceMeters>
          </Trackpoint>
          <Trackpoint>
            <Time>2019-10-09T07:24:06.000Z</Time>
            <Position>
              <LatitudeDegrees>39.45747348479926586151123046875</LatitudeDegrees>
              <LongitudeDegrees>-6.3692544959485530853271484375</LongitudeDegrees>
            </Position>
            <AltitudeMeters>418.20001220703125</AltitudeMeters>
            <DistanceMeters>NAN</DistanceMeters>
          </Trackpoint>
          <Trackpoint>
            <Time>2019-10-09T07:24:10.000Z</Time>
            <Position>
              <LatitudeDegrees>39.45729193277657032012939453125</LatitudeDegrees>
              <LongitudeDegrees>-6.3692652247846126556396484375</LongitudeDegrees>
            </Position>
            <AltitudeMeters>417.600006103515625</AltitudeMeters>
            <DistanceMeters>NAN</DistanceMeters>
          </Trackpoint>
          <Trackpoint>
            <Time>2019-10-09T07:24:14.000Z</Time>
            <Position>
              <LatitudeDegrees>39.457117505371570587158203125</LatitudeDegrees>
              <LongitudeDegrees>-6.3690808229148387908935546875</LongitudeDegrees>
            </Position>
            <AltitudeMeters>416.399993896484375</AltitudeMeters>
            <DistanceMeters>NAN</DistanceMeters>
          </Trackpoint>
          <Trackpoint>
            <Time>2019-10-09T07:24:15.000Z</Time>
            <Position>
              <LatitudeDegrees>39.45707626640796661376953125</LatitudeDegrees>
              <LongitudeDegrees>-6.3690211437642574310302734375</LongitudeDegrees>
            </Position>
            <AltitudeMeters>416.600006103515625</AltitudeMeters>
            <DistanceMeters>NAN</DistanceMeters>
          </Trackpoint>
          <Trackpoint>
            <Time>2019-10-09T07:24:16.000Z</Time>
            <Position>
              <LatitudeDegrees>39.45703745819628238677978515625</LatitudeDegrees>
              <LongitudeDegrees>-6.3689594529569149017333984375</LongitudeDegrees>
            </Position>
            <AltitudeMeters>416.399993896484375</AltitudeMeters>
            <DistanceMeters>NAN</DistanceMeters>
          </Trackpoint>
          <Trackpoint>
            <Time>2019-10-09T07:24:17.000Z</Time>
            <Position>
              <LatitudeDegrees>39.456989429891109466552734375</LatitudeDegrees>
              <LongitudeDegrees>-6.36890656314790248870849609375</LongitudeDegrees>
            </Position>
            <AltitudeMeters>416.20001220703125</AltitudeMeters>
            <DistanceMeters>NAN</DistanceMeters>
          </Trackpoint>
          <Trackpoint>
            <Time>2019-10-09T07:24:19.000Z</Time>
            <Position>
              <LatitudeDegrees>39.45688180625438690185546875</LatitudeDegrees>
              <LongitudeDegrees>-6.36882157064974308013916015625</LongitudeDegrees>
            </Position>
            <AltitudeMeters>416.399993896484375</AltitudeMeters>
            <DistanceMeters>NAN</DistanceMeters>
          </Trackpoint>
          <Trackpoint>
            <Time>2019-10-09T07:24:25.000Z</Time>
            <Position>
              <LatitudeDegrees>39.45655516348779201507568359375</LatitudeDegrees>
              <LongitudeDegrees>-6.36856625787913799285888671875</LongitudeDegrees>
            </Position>
            <AltitudeMeters>415</AltitudeMeters>
            <DistanceMeters>NAN</DistanceMeters>
          </Trackpoint>
          <Trackpoint>
            <Time>2019-10-09T07:24:29.000Z</Time>
            <Position>
              <LatitudeDegrees>39.45633924566209316253662109375</LatitudeDegrees>
              <LongitudeDegrees>-6.36839090846478939056396484375</LongitudeDegrees>
            </Position>
            <AltitudeMeters>414.399993896484375</AltitudeMeters>
            <DistanceMeters>NAN</DistanceMeters>
          </Trackpoint>
          <Trackpoint>
            <Time>2019-10-09T07:24:36.000Z</Time>
            <Position>
              <LatitudeDegrees>39.4559740461409091949462890625</LatitudeDegrees>
              <LongitudeDegrees>-6.36810122989118099212646484375</LongitudeDegrees>
            </Position>
            <AltitudeMeters>414.79998779296875</AltitudeMeters>
            <DistanceMeters>NAN</DistanceMeters>
          </Trackpoint>
          <Trackpoint>
            <Time>2019-10-09T07:24:40.000Z</Time>
            <Position>
              <LatitudeDegrees>39.45577547885477542877197265625</LatitudeDegrees>
              <LongitudeDegrees>-6.367947757244110107421875</LongitudeDegrees>
            </Position>
            <AltitudeMeters>415</AltitudeMeters>
            <DistanceMeters>NAN</DistanceMeters>
          </Trackpoint>
          <Trackpoint>
            <Time>2019-10-09T07:24:44.000Z</Time>
            <Position>
              <LatitudeDegrees>39.45558873005211353302001953125</LatitudeDegrees>
              <LongitudeDegrees>-6.36779042892158031463623046875</LongitudeDegrees>
            </Position>
            <AltitudeMeters>415.20001220703125</AltitudeMeters>
            <DistanceMeters>NAN</DistanceMeters>
          </Trackpoint>
          <Trackpoint>
            <Time>2019-10-09T07:24:52.000Z</Time>
            <Position>
              <LatitudeDegrees>39.4552208483219146728515625</LatitudeDegrees>
              <LongitudeDegrees>-6.36748348362743854522705078125</LongitudeDegrees>
            </Position>
            <AltitudeMeters>415.600006103515625</AltitudeMeters>
            <DistanceMeters>NAN</DistanceMeters>
          </Trackpoint>
          <Trackpoint>
            <Time>2019-10-09T07:25:00.000Z</Time>
            <Position>
              <LatitudeDegrees>39.45485447533428668975830078125</LatitudeDegrees>
              <LongitudeDegrees>-6.36717603541910648345947265625</LongitudeDegrees>
            </Position>
            <AltitudeMeters>416</AltitudeMeters>
            <DistanceMeters>NAN</DistanceMeters>
          </Trackpoint>
          <Trackpoint>
            <Time>2019-10-09T07:25:02.000Z</Time>
            <Position>
              <LatitudeDegrees>39.45476629771292209625244140625</LatitudeDegrees>
              <LongitudeDegrees>-6.36710487306118011474609375</LongitudeDegrees>
            </Position>
            <AltitudeMeters>416.20001220703125</AltitudeMeters>
            <DistanceMeters>NAN</DistanceMeters>
          </Trackpoint>
          <Trackpoint>
            <Time>2019-10-09T07:25:06.000Z</Time>
            <Position>
              <LatitudeDegrees>39.45466018281877040863037109375</LatitudeDegrees>
              <LongitudeDegrees>-6.36703521944582462310791015625</LongitudeDegrees>
            </Position>
            <AltitudeMeters>416.600006103515625</AltitudeMeters>
            <DistanceMeters>NAN</DistanceMeters>
          </Trackpoint>
          <Trackpoint>
            <Time>2019-10-09T07:25:11.000Z</Time>
            <Position>
              <LatitudeDegrees>39.454635120928287506103515625</LatitudeDegrees>
              <LongitudeDegrees>-6.36702398769557476043701171875</LongitudeDegrees>
            </Position>
            <AltitudeMeters>417</AltitudeMeters>
            <DistanceMeters>NAN</DistanceMeters>
          </Trackpoint>
          <Trackpoint>
            <Time>2019-10-09T07:25:15.000Z</Time>
            <Position>
              <LatitudeDegrees>39.454635120928287506103515625</LatitudeDegrees>
              <LongitudeDegrees>-6.36702398769557476043701171875</LongitudeDegrees>
            </Position>
            <AltitudeMeters>416.600006103515625</AltitudeMeters>
            <DistanceMeters>NAN</DistanceMeters>
          </Trackpoint>
          <Trackpoint>
            <Time>2019-10-09T07:25:17.000Z</Time>
            <Position>
              <LatitudeDegrees>39.454635120928287506103515625</LatitudeDegrees>
              <LongitudeDegrees>-6.36702398769557476043701171875</LongitudeDegrees>
            </Position>
            <AltitudeMeters>416.79998779296875</AltitudeMeters>
            <DistanceMeters>NAN</DistanceMeters>
          </Trackpoint>
          <Trackpoint>
            <Time>2019-10-09T07:25:20.000Z</Time>
            <Position>
              <LatitudeDegrees>39.454635120928287506103515625</LatitudeDegrees>
              <LongitudeDegrees>-6.36702398769557476043701171875</LongitudeDegrees>
            </Position>
            <AltitudeMeters>417</AltitudeMeters>
            <DistanceMeters>NAN</DistanceMeters>
          </Trackpoint>
          <Trackpoint>
            <Time>2019-10-09T07:25:25.000Z</Time>
            <Position>
              <LatitudeDegrees>39.454635120928287506103515625</LatitudeDegrees>
              <LongitudeDegrees>-6.36702398769557476043701171875</LongitudeDegrees>
            </Position>
            <AltitudeMeters>416.600006103515625</AltitudeMeters>
            <DistanceMeters>NAN</DistanceMeters>
          </Trackpoint>
          <Trackpoint>
            <Time>2019-10-09T07:25:27.000Z</Time>
            <Position>
              <LatitudeDegrees>39.454635120928287506103515625</LatitudeDegrees>
              <LongitudeDegrees>-6.36702398769557476043701171875</LongitudeDegrees>
            </Position>
            <AltitudeMeters>416.79998779296875</AltitudeMeters>
            <DistanceMeters>NAN</DistanceMeters>
          </Trackpoint>
          <Trackpoint>
            <Time>2019-10-09T07:25:35.000Z</Time>
            <Position>
              <LatitudeDegrees>39.454635120928287506103515625</LatitudeDegrees>
              <LongitudeDegrees>-6.36702398769557476043701171875</LongitudeDegrees>
            </Position>
            <AltitudeMeters>416.79998779296875</AltitudeMeters>
            <DistanceMeters>NAN</DistanceMeters>
          </Trackpoint>
          <Trackpoint>
            <Time>2019-10-09T07:25:42.000Z</Time>
            <Position>
              <LatitudeDegrees>39.454635120928287506103515625</LatitudeDegrees>
              <LongitudeDegrees>-6.36702398769557476043701171875</LongitudeDegrees>
            </Position>
            <AltitudeMeters>417</AltitudeMeters>
            <DistanceMeters>NAN</DistanceMeters>
          </Trackpoint>
          <Trackpoint>
            <Time>2019-10-09T07:25:44.000Z</Time>
            <Position>
              <LatitudeDegrees>39.454635120928287506103515625</LatitudeDegrees>
              <LongitudeDegrees>-6.36702398769557476043701171875</LongitudeDegrees>
            </Position>
            <AltitudeMeters>416.600006103515625</AltitudeMeters>
            <DistanceMeters>NAN</DistanceMeters>
          </Trackpoint>
          <Trackpoint>
            <Time>2019-10-09T07:25:59.000Z</Time>
            <Position>
              <LatitudeDegrees>39.4546346180140972137451171875</LatitudeDegrees>
              <LongitudeDegrees>-6.36702440679073333740234375</LongitudeDegrees>
            </Position>
            <AltitudeMeters>416.79998779296875</AltitudeMeters>
            <DistanceMeters>NAN</DistanceMeters>
          </Trackpoint>
          <Trackpoint>
            <Time>2019-10-09T07:26:04.000Z</Time>
            <Position>
              <LatitudeDegrees>39.4546346180140972137451171875</LatitudeDegrees>
              <LongitudeDegrees>-6.36702440679073333740234375</LongitudeDegrees>
            </Position>
            <AltitudeMeters>417</AltitudeMeters>
            <DistanceMeters>NAN</DistanceMeters>
          </Trackpoint>
          <Trackpoint>
            <Time>2019-10-09T07:26:06.000Z</Time>
            <Position>
              <LatitudeDegrees>39.4546346180140972137451171875</LatitudeDegrees>
              <LongitudeDegrees>-6.36702440679073333740234375</LongitudeDegrees>
            </Position>
            <AltitudeMeters>416.600006103515625</AltitudeMeters>
            <DistanceMeters>NAN</DistanceMeters>
          </Trackpoint>
          <Trackpoint>
            <Time>2019-10-09T07:26:13.000Z</Time>
            <Position>
              <LatitudeDegrees>39.454625062644481658935546875</LatitudeDegrees>
              <LongitudeDegrees>-6.36701996438205242156982421875</LongitudeDegrees>
            </Position>
            <AltitudeMeters>416.79998779296875</AltitudeMeters>
            <DistanceMeters>NAN</DistanceMeters>
          </Trackpoint>
          <Trackpoint>
            <Time>2019-10-09T07:26:16.000Z</Time>
            <Position>
              <LatitudeDegrees>39.4545529782772064208984375</LatitudeDegrees>
              <LongitudeDegrees>-6.36695793829858303070068359375</LongitudeDegrees>
            </Position>
            <AltitudeMeters>416.79998779296875</AltitudeMeters>
            <DistanceMeters>NAN</DistanceMeters>
          </Trackpoint>
          <Trackpoint>
            <Time>2019-10-09T07:26:18.000Z</Time>
            <Position>
              <LatitudeDegrees>39.45449531078338623046875</LatitudeDegrees>
              <LongitudeDegrees>-6.3669035397469997406005859375</LongitudeDegrees>
            </Position>
            <AltitudeMeters>416.600006103515625</AltitudeMeters>
            <DistanceMeters>NAN</DistanceMeters>
          </Trackpoint>
          <Trackpoint>
            <Time>2019-10-09T07:26:21.000Z</Time>
            <Position>
              <LatitudeDegrees>39.45438961498439311981201171875</LatitudeDegrees>
              <LongitudeDegrees>-6.3668225705623626708984375</LongitudeDegrees>
            </Position>
            <AltitudeMeters>416.399993896484375</AltitudeMeters>
            <DistanceMeters>NAN</DistanceMeters>
          </Trackpoint>
          <Trackpoint>
            <Time>2019-10-09T07:26:23.000Z</Time>
            <Position>
              <LatitudeDegrees>39.45430688560009002685546875</LatitudeDegrees>
              <LongitudeDegrees>-6.36676280759274959564208984375</LongitudeDegrees>
            </Position>
            <AltitudeMeters>416.79998779296875</AltitudeMeters>
            <DistanceMeters>NAN</DistanceMeters>
          </Trackpoint>
          <Trackpoint>
            <Time>2019-10-09T07:26:24.000Z</Time>
            <Position>
              <LatitudeDegrees>39.45426489226520061492919921875</LatitudeDegrees>
              <LongitudeDegrees>-6.3667345605790615081787109375</LongitudeDegrees>
            </Position>
            <AltitudeMeters>416.79998779296875</AltitudeMeters>
            <DistanceMeters>NAN</DistanceMeters>
          </Trackpoint>
          <Trackpoint>
            <Time>2019-10-09T07:26:27.000Z</Time>
            <Position>
              <LatitudeDegrees>39.45413799025118350982666015625</LatitudeDegrees>
              <LongitudeDegrees>-6.3666336424648761749267578125</LongitudeDegrees>
            </Position>
            <AltitudeMeters>416.600006103515625</AltitudeMeters>
            <DistanceMeters>NAN</DistanceMeters>
          </Trackpoint>
          <Trackpoint>
            <Time>2019-10-09T07:26:30.000Z</Time>
            <Position>
              <LatitudeDegrees>39.453998096287250518798828125</LatitudeDegrees>
              <LongitudeDegrees>-6.36654102243483066558837890625</LongitudeDegrees>
            </Position>
            <AltitudeMeters>417</AltitudeMeters>
            <DistanceMeters>NAN</DistanceMeters>
          </Trackpoint>
          <Trackpoint>
            <Time>2019-10-09T07:26:31.000Z</Time>
            <Position>
              <LatitudeDegrees>39.45394922979176044464111328125</LatitudeDegrees>
              <LongitudeDegrees>-6.36651344597339630126953125</LongitudeDegrees>
            </Position>
            <AltitudeMeters>417</AltitudeMeters>
            <DistanceMeters>NAN</DistanceMeters>
          </Trackpoint>
          <Trackpoint>
            <Time>2019-10-09T07:26:37.000Z</Time>
            <Position>
              <LatitudeDegrees>39.4536542706191539764404296875</LatitudeDegrees>
              <LongitudeDegrees>-6.36636265553534030914306640625</LongitudeDegrees>
            </Position>
            <AltitudeMeters>417</AltitudeMeters>
            <DistanceMeters>NAN</DistanceMeters>
          </Trackpoint>
          <Trackpoint>
            <Time>2019-10-09T07:26:38.000Z</Time>
            <Position>
              <LatitudeDegrees>39.45360775105655193328857421875</LatitudeDegrees>
              <LongitudeDegrees>-6.36634471826255321502685546875</LongitudeDegrees>
            </Position>
            <AltitudeMeters>417.20001220703125</AltitudeMeters>
            <DistanceMeters>NAN</DistanceMeters>
          </Trackpoint>
          <Trackpoint>
            <Time>2019-10-09T07:26:39.000Z</Time>
            <Position>
              <LatitudeDegrees>39.4535632431507110595703125</LatitudeDegrees>
              <LongitudeDegrees>-6.3663261942565441131591796875</LongitudeDegrees>
            </Position>
            <AltitudeMeters>417.20001220703125</AltitudeMeters>
            <DistanceMeters>NAN</DistanceMeters>
          </Trackpoint>
          <Trackpoint>
            <Time>2019-10-09T07:26:43.000Z</Time>
            <Position>
              <LatitudeDegrees>39.453377164900302886962890625</LatitudeDegrees>
              <LongitudeDegrees>-6.366274394094944000244140625</LongitudeDegrees>
            </Position>
            <AltitudeMeters>417.600006103515625</AltitudeMeters>
            <DistanceMeters>NAN</DistanceMeters>
          </Trackpoint>
          <Trackpoint>
            <Time>2019-10-09T07:26:45.000Z</Time>
            <Position>
              <LatitudeDegrees>39.45329057984054088592529296875</LatitudeDegrees>
              <LongitudeDegrees>-6.36624698527157306671142578125</LongitudeDegrees>
            </Position>
            <AltitudeMeters>417.79998779296875</AltitudeMeters>
            <DistanceMeters>NAN</DistanceMeters>
          </Trackpoint>
          <Trackpoint>
            <Time>2019-10-09T07:26:48.000Z</Time>
            <Position>
              <LatitudeDegrees>39.45316870696842670440673828125</LatitudeDegrees>
              <LongitudeDegrees>-6.36621748097240924835205078125</LongitudeDegrees>
            </Position>
            <AltitudeMeters>418.399993896484375</AltitudeMeters>
            <DistanceMeters>NAN</DistanceMeters>
          </Trackpoint>
          <Trackpoint>
            <Time>2019-10-09T07:26:51.000Z</Time>
            <Position>
              <LatitudeDegrees>39.4530447386205196380615234375</LatitudeDegrees>
              <LongitudeDegrees>-6.36617959477007389068603515625</LongitudeDegrees>
            </Position>
            <AltitudeMeters>418.399993896484375</AltitudeMeters>
            <DistanceMeters>NAN</DistanceMeters>
          </Trackpoint>
          <Trackpoint>
            <Time>2019-10-09T07:26:52.000Z</Time>
            <Position>
              <LatitudeDegrees>39.453007690608501434326171875</LatitudeDegrees>
              <LongitudeDegrees>-6.36615805327892303466796875</LongitudeDegrees>
            </Position>
            <AltitudeMeters>418.399993896484375</AltitudeMeters>
            <DistanceMeters>NAN</DistanceMeters>
          </Trackpoint>
          <Trackpoint>
            <Time>2019-10-09T07:26:55.000Z</Time>
            <Position>
              <LatitudeDegrees>39.452886991202831268310546875</LatitudeDegrees>
              <LongitudeDegrees>-6.36616165749728679656982421875</LongitudeDegrees>
            </Position>
            <AltitudeMeters>419</AltitudeMeters>
            <DistanceMeters>NAN</DistanceMeters>
          </Trackpoint>
          <Trackpoint>
            <Time>2019-10-09T07:26:59.000Z</Time>
            <Position>
              <LatitudeDegrees>39.45276251994073390960693359375</LatitudeDegrees>
              <LongitudeDegrees>-6.3661126233637332916259765625</LongitudeDegrees>
            </Position>
            <AltitudeMeters>419.20001220703125</AltitudeMeters>
            <DistanceMeters>NAN</DistanceMeters>
          </Trackpoint>
          <Trackpoint>
            <Time>2019-10-09T07:27:02.000Z</Time>
            <Position>
              <LatitudeDegrees>39.45267551578581333160400390625</LatitudeDegrees>
              <LongitudeDegrees>-6.36610834859311580657958984375</LongitudeDegrees>
            </Position>
            <AltitudeMeters>419.79998779296875</AltitudeMeters>
            <DistanceMeters>NAN</DistanceMeters>
          </Trackpoint>
          <Trackpoint>
            <Time>2019-10-09T07:27:05.000Z</Time>
            <Position>
              <LatitudeDegrees>39.45259295403957366943359375</LatitudeDegrees>
              <LongitudeDegrees>-6.3660925067961215972900390625</LongitudeDegrees>
            </Position>
            <AltitudeMeters>419.600006103515625</AltitudeMeters>
            <DistanceMeters>NAN</DistanceMeters>
          </Trackpoint>
          <Trackpoint>
            <Time>2019-10-09T07:27:08.000Z</Time>
            <Position>
              <LatitudeDegrees>39.45249295793473720550537109375</LatitudeDegrees>
              <LongitudeDegrees>-6.36605973355472087860107421875</LongitudeDegrees>
            </Position>
            <AltitudeMeters>420</AltitudeMeters>
            <DistanceMeters>NAN</DistanceMeters>
          </Trackpoint>
          <Trackpoint>
            <Time>2019-10-09T07:27:10.000Z</Time>
            <Position>
              <LatitudeDegrees>39.4524328596889972686767578125</LatitudeDegrees>
              <LongitudeDegrees>-6.3660304807126522064208984375</LongitudeDegrees>
            </Position>
            <AltitudeMeters>420</AltitudeMeters>
            <DistanceMeters>NAN</DistanceMeters>
          </Trackpoint>
          <Trackpoint>
            <Time>2019-10-09T07:27:16.000Z</Time>
            <Position>
              <LatitudeDegrees>39.45222373120486736297607421875</LatitudeDegrees>
              <LongitudeDegrees>-6.36592662893235683441162109375</LongitudeDegrees>
            </Position>
            <AltitudeMeters>420.600006103515625</AltitudeMeters>
            <DistanceMeters>NAN</DistanceMeters>
          </Trackpoint>
          <Trackpoint>
            <Time>2019-10-09T07:27:18.000Z</Time>
            <Position>
              <LatitudeDegrees>39.45214175619184970855712890625</LatitudeDegrees>
              <LongitudeDegrees>-6.365896202623844146728515625</LongitudeDegrees>
            </Position>
            <AltitudeMeters>421</AltitudeMeters>
            <DistanceMeters>NAN</DistanceMeters>
          </Trackpoint>
          <Trackpoint>
            <Time>2019-10-09T07:27:24.000Z</Time>
            <Position>
              <LatitudeDegrees>39.45190228521823883056640625</LatitudeDegrees>
              <LongitudeDegrees>-6.36583392508327960968017578125</LongitudeDegrees>
            </Position>
            <AltitudeMeters>421.600006103515625</AltitudeMeters>
            <DistanceMeters>NAN</DistanceMeters>
          </Trackpoint>
          <Trackpoint>
            <Time>2019-10-09T07:27:29.000Z</Time>
            <Position>
              <LatitudeDegrees>39.4517106749117374420166015625</LatitudeDegrees>
              <LongitudeDegrees>-6.3658256269991397857666015625</LongitudeDegrees>
            </Position>
            <AltitudeMeters>421.399993896484375</AltitudeMeters>
            <DistanceMeters>NAN</DistanceMeters>
          </Trackpoint>
          <Trackpoint>
            <Time>2019-10-09T07:27:34.000Z</Time>
            <Position>
              <LatitudeDegrees>39.451510012149810791015625</LatitudeDegrees>
              <LongitudeDegrees>-6.365796290338039398193359375</LongitudeDegrees>
            </Position>
            <AltitudeMeters>421.600006103515625</AltitudeMeters>
            <DistanceMeters>NAN</DistanceMeters>
          </Trackpoint>
          <Trackpoint>
            <Time>2019-10-09T07:27:35.000Z</Time>
            <Position>
              <LatitudeDegrees>39.45146818645298480987548828125</LatitudeDegrees>
              <LongitudeDegrees>-6.365785561501979827880859375</LongitudeDegrees>
            </Position>
            <AltitudeMeters>421.399993896484375</AltitudeMeters>
            <DistanceMeters>NAN</DistanceMeters>
          </Trackpoint>
          <Trackpoint>
            <Time>2019-10-09T07:27:41.000Z</Time>
            <Position>
              <LatitudeDegrees>39.45121253840625286102294921875</LatitudeDegrees>
              <LongitudeDegrees>-6.36574373580515384674072265625</LongitudeDegrees>
            </Position>
            <AltitudeMeters>421.600006103515625</AltitudeMeters>
            <DistanceMeters>NAN</DistanceMeters>
          </Trackpoint>
          <Trackpoint>
            <Time>2019-10-09T07:27:46.000Z</Time>
            <Position>
              <LatitudeDegrees>39.45100064389407634735107421875</LatitudeDegrees>
              <LongitudeDegrees>-6.36573669500648975372314453125</LongitudeDegrees>
            </Position>
            <AltitudeMeters>422</AltitudeMeters>
            <DistanceMeters>NAN</DistanceMeters>
          </Trackpoint>
          <Trackpoint>
            <Time>2019-10-09T07:27:48.000Z</Time>
            <Position>
              <LatitudeDegrees>39.45091229863464832305908203125</LatitudeDegrees>
              <LongitudeDegrees>-6.3657175004482269287109375</LongitudeDegrees>
            </Position>
            <AltitudeMeters>422.20001220703125</AltitudeMeters>
            <DistanceMeters>NAN</DistanceMeters>
          </Trackpoint>
          <Trackpoint>
            <Time>2019-10-09T07:27:55.000Z</Time>
            <Position>
              <LatitudeDegrees>39.450614489614963531494140625</LatitudeDegrees>
              <LongitudeDegrees>-6.36566913686692714691162109375</LongitudeDegrees>
            </Position>
            <AltitudeMeters>422</AltitudeMeters>
            <DistanceMeters>NAN</DistanceMeters>
          </Trackpoint>
          <Trackpoint>
            <Time>2019-10-09T07:27:56.000Z</Time>
            <Position>
              <LatitudeDegrees>39.4505727477371692657470703125</LatitudeDegrees>
              <LongitudeDegrees>-6.36566511355340480804443359375</LongitudeDegrees>
            </Position>
            <AltitudeMeters>422</AltitudeMeters>
            <DistanceMeters>NAN</DistanceMeters>
          </Trackpoint>
          <Trackpoint>
            <Time>2019-10-09T07:28:03.000Z</Time>
            <Position>
              <LatitudeDegrees>39.45030243135988712310791015625</LatitudeDegrees>
              <LongitudeDegrees>-6.3656107150018215179443359375</LongitudeDegrees>
            </Position>
            <AltitudeMeters>422.79998779296875</AltitudeMeters>
            <DistanceMeters>NAN</DistanceMeters>
          </Trackpoint>
          <Trackpoint>
            <Time>2019-10-09T07:28:04.000Z</Time>
            <Position>
              <LatitudeDegrees>39.450259096920490264892578125</LatitudeDegrees>
              <LongitudeDegrees>-6.36560023762285709381103515625</LongitudeDegrees>
            </Position>
            <AltitudeMeters>423</AltitudeMeters>
            <DistanceMeters>NAN</DistanceMeters>
          </Trackpoint>
          <Trackpoint>
            <Time>2019-10-09T07:28:10.000Z</Time>
            <Position>
              <LatitudeDegrees>39.45002532564103603363037109375</LatitudeDegrees>
              <LongitudeDegrees>-6.36557106859982013702392578125</LongitudeDegrees>
            </Position>
            <AltitudeMeters>423.600006103515625</AltitudeMeters>
            <DistanceMeters>NAN</DistanceMeters>
          </Trackpoint>
          <Trackpoint>
            <Time>2019-10-09T07:28:16.000Z</Time>
            <Position>
              <LatitudeDegrees>39.4497952423989772796630859375</LatitudeDegrees>
              <LongitudeDegrees>-6.36552396230399608612060546875</LongitudeDegrees>
            </Position>
            <AltitudeMeters>424.20001220703125</AltitudeMeters>
            <DistanceMeters>NAN</DistanceMeters>
          </Trackpoint>
          <Trackpoint>
            <Time>2019-10-09T07:28:17.000Z</Time>
            <Position>
              <LatitudeDegrees>39.44975559599697589874267578125</LatitudeDegrees>
              <LongitudeDegrees>-6.3655138202011585235595703125</LongitudeDegrees>
            </Position>
            <AltitudeMeters>424.600006103515625</AltitudeMeters>
            <DistanceMeters>NAN</DistanceMeters>
          </Trackpoint>
          <Trackpoint>
            <Time>2019-10-09T07:28:25.000Z</Time>
            <Position>
              <LatitudeDegrees>39.4494509138166904449462890625</LatitudeDegrees>
              <LongitudeDegrees>-6.36538934893906116485595703125</LongitudeDegrees>
            </Position>
            <AltitudeMeters>425</AltitudeMeters>
            <DistanceMeters>NAN</DistanceMeters>
          </Trackpoint>
          <Trackpoint>
            <Time>2019-10-09T07:28:26.000Z</Time>
            <Position>
              <LatitudeDegrees>39.44941545836627483367919921875</LatitudeDegrees>
              <LongitudeDegrees>-6.36536168865859508514404296875</LongitudeDegrees>
            </Position>
            <AltitudeMeters>424.79998779296875</AltitudeMeters>
            <DistanceMeters>NAN</DistanceMeters>
          </Trackpoint>
          <Trackpoint>
            <Time>2019-10-09T07:28:29.000Z</Time>
            <Position>
              <LatitudeDegrees>39.449334405362606048583984375</LatitudeDegrees>
              <LongitudeDegrees>-6.3652435876429080963134765625</LongitudeDegrees>
            </Position>
            <AltitudeMeters>424.79998779296875</AltitudeMeters>
            <DistanceMeters>NAN</DistanceMeters>
          </Trackpoint>
          <Trackpoint>
            <Time>2019-10-09T07:28:30.000Z</Time>
            <Position>
              <LatitudeDegrees>39.44930867291986942291259765625</LatitudeDegrees>
              <LongitudeDegrees>-6.36519975028932094573974609375</LongitudeDegrees>
            </Position>
            <AltitudeMeters>425</AltitudeMeters>
            <DistanceMeters>NAN</DistanceMeters>
          </Trackpoint>
          <Trackpoint>
            <Time>2019-10-09T07:28:33.000Z</Time>
            <Position>
              <LatitudeDegrees>39.4492329843342304229736328125</LatitudeDegrees>
              <LongitudeDegrees>-6.36507620103657245635986328125</LongitudeDegrees>
            </Position>
            <AltitudeMeters>425.20001220703125</AltitudeMeters>
            <DistanceMeters>NAN</DistanceMeters>
          </Trackpoint>
          <Trackpoint>
            <Time>2019-10-09T07:28:35.000Z</Time>
            <Position>
              <LatitudeDegrees>39.4491867162287235260009765625</LatitudeDegrees>
              <LongitudeDegrees>-6.36500629596412181854248046875</LongitudeDegrees>
            </Position>
            <AltitudeMeters>425.399993896484375</AltitudeMeters>
            <DistanceMeters>NAN</DistanceMeters>
          </Trackpoint>
          <Trackpoint>
            <Time>2019-10-09T07:28:36.000Z</Time>
            <Position>
              <LatitudeDegrees>39.44915344007313251495361328125</LatitudeDegrees>
              <LongitudeDegrees>-6.3649814017117023468017578125</LongitudeDegrees>
            </Position>
            <AltitudeMeters>425.399993896484375</AltitudeMeters>
            <DistanceMeters>NAN</DistanceMeters>
          </Trackpoint>
          <Trackpoint>
            <Time>2019-10-09T07:28:39.000Z</Time>
            <Position>
              <LatitudeDegrees>39.44903760217130184173583984375</LatitudeDegrees>
              <LongitudeDegrees>-6.36492750607430934906005859375</LongitudeDegrees>
            </Position>
            <AltitudeMeters>425.600006103515625</AltitudeMeters>
            <DistanceMeters>NAN</DistanceMeters>
          </Trackpoint>
          <Trackpoint>
            <Time>2019-10-09T07:28:41.000Z</Time>
            <Position>
              <LatitudeDegrees>39.44895395077764987945556640625</LatitudeDegrees>
              <LongitudeDegrees>-6.36491141282021999359130859375</LongitudeDegrees>
            </Position>
            <AltitudeMeters>425.79998779296875</AltitudeMeters>
            <DistanceMeters>NAN</DistanceMeters>
          </Trackpoint>
          <Trackpoint>
            <Time>2019-10-09T07:28:43.000Z</Time>
            <Position>
              <LatitudeDegrees>39.44887273013591766357421875</LatitudeDegrees>
              <LongitudeDegrees>-6.364911161363124847412109375</LongitudeDegrees>
            </Position>
            <AltitudeMeters>426.20001220703125</AltitudeMeters>
            <DistanceMeters>NAN</DistanceMeters>
          </Trackpoint>
          <Trackpoint>
            <Time>2019-10-09T07:28:47.000Z</Time>
            <Position>
              <LatitudeDegrees>39.448704756796360015869140625</LatitudeDegrees>
              <LongitudeDegrees>-6.36489749886095523834228515625</LongitudeDegrees>
            </Position>
            <AltitudeMeters>426</AltitudeMeters>
            <DistanceMeters>NAN</DistanceMeters>
          </Trackpoint>
          <Trackpoint>
            <Time>2019-10-09T07:28:48.000Z</Time>
            <Position>
              <LatitudeDegrees>39.4486616738140583038330078125</LatitudeDegrees>
              <LongitudeDegrees>-6.36488928459584712982177734375</LongitudeDegrees>
            </Position>
            <AltitudeMeters>426.399993896484375</AltitudeMeters>
            <DistanceMeters>NAN</DistanceMeters>
          </Trackpoint>
          <Trackpoint>
            <Time>2019-10-09T07:28:51.000Z</Time>
            <Position>
              <LatitudeDegrees>39.4485376216471195220947265625</LatitudeDegrees>
              <LongitudeDegrees>-6.36486648581922054290771484375</LongitudeDegrees>
            </Position>
            <AltitudeMeters>426.399993896484375</AltitudeMeters>
            <DistanceMeters>NAN</DistanceMeters>
          </Trackpoint>
          <Trackpoint>
            <Time>2019-10-09T07:28:56.000Z</Time>
            <Position>
              <LatitudeDegrees>39.44832027889788150787353515625</LatitudeDegrees>
              <LongitudeDegrees>-6.3648368977010250091552734375</LongitudeDegrees>
            </Position>
            <AltitudeMeters>426.399993896484375</AltitudeMeters>
            <DistanceMeters>NAN</DistanceMeters>
          </Trackpoint>
          <Trackpoint>
            <Time>2019-10-09T07:29:01.000Z</Time>
            <Position>
              <LatitudeDegrees>39.44809983484447002410888671875</LatitudeDegrees>
              <LongitudeDegrees>-6.36482491157948970794677734375</LongitudeDegrees>
            </Position>
            <AltitudeMeters>427.20001220703125</AltitudeMeters>
            <DistanceMeters>NAN</DistanceMeters>
          </Trackpoint>
          <Trackpoint>
            <Time>2019-10-09T07:29:06.000Z</Time>
            <Position>
              <LatitudeDegrees>39.4478751160204410552978515625</LatitudeDegrees>
              <LongitudeDegrees>-6.36480781249701976776123046875</LongitudeDegrees>
            </Position>
            <AltitudeMeters>427</AltitudeMeters>
            <DistanceMeters>NAN</DistanceMeters>
          </Trackpoint>
          <Trackpoint>
            <Time>2019-10-09T07:29:12.000Z</Time>
            <Position>
              <LatitudeDegrees>39.4476149417459964752197265625</LatitudeDegrees>
              <LongitudeDegrees>-6.3647939823567867279052734375</LongitudeDegrees>
            </Position>
            <AltitudeMeters>426.79998779296875</AltitudeMeters>
            <DistanceMeters>NAN</DistanceMeters>
          </Trackpoint>
          <Trackpoint>
            <Time>2019-10-09T07:29:16.000Z</Time>
            <Position>
              <LatitudeDegrees>39.44743867032229900360107421875</LatitudeDegrees>
              <LongitudeDegrees>-6.36478903703391551971435546875</LongitudeDegrees>
            </Position>
            <AltitudeMeters>427.20001220703125</AltitudeMeters>
            <DistanceMeters>NAN</DistanceMeters>
          </Trackpoint>
          <Trackpoint>
            <Time>2019-10-09T07:29:17.000Z</Time>
            <Position>
              <LatitudeDegrees>39.4473926536738872528076171875</LatitudeDegrees>
              <LongitudeDegrees>-6.3647909648716449737548828125</LongitudeDegrees>
            </Position>
            <AltitudeMeters>427</AltitudeMeters>
            <DistanceMeters>NAN</DistanceMeters>
          </Trackpoint>
          <Trackpoint>
            <Time>2019-10-09T07:29:23.000Z</Time>
            <Position>
              <LatitudeDegrees>39.4471297971904277801513671875</LatitudeDegrees>
              <LongitudeDegrees>-6.36481082998216152191162109375</LongitudeDegrees>
            </Position>
            <AltitudeMeters>427.399993896484375</AltitudeMeters>
            <DistanceMeters>NAN</DistanceMeters>
          </Trackpoint>
          <Trackpoint>
            <Time>2019-10-09T07:29:27.000Z</Time>
            <Position>
              <LatitudeDegrees>39.44695285521447658538818359375</LatitudeDegrees>
              <LongitudeDegrees>-6.3648377358913421630859375</LongitudeDegrees>
            </Position>
            <AltitudeMeters>427.399993896484375</AltitudeMeters>
            <DistanceMeters>NAN</DistanceMeters>
          </Trackpoint>
          <Trackpoint>
            <Time>2019-10-09T07:29:35.000Z</Time>
            <Position>
              <LatitudeDegrees>39.4465936906635761260986328125</LatitudeDegrees>
              <LongitudeDegrees>-6.36482499539852142333984375</LongitudeDegrees>
            </Position>
            <AltitudeMeters>427.399993896484375</AltitudeMeters>
            <DistanceMeters>NAN</DistanceMeters>
          </Trackpoint>
          <Trackpoint>
            <Time>2019-10-09T07:29:38.000Z</Time>
            <Position>
              <LatitudeDegrees>39.4464609213173389434814453125</LatitudeDegrees>
              <LongitudeDegrees>-6.36481166817247867584228515625</LongitudeDegrees>
            </Position>
            <AltitudeMeters>427.399993896484375</AltitudeMeters>
            <DistanceMeters>NAN</DistanceMeters>
          </Trackpoint>
          <Trackpoint>
            <Time>2019-10-09T07:29:43.000Z</Time>
            <Position>
              <LatitudeDegrees>39.44623268209397792816162109375</LatitudeDegrees>
              <LongitudeDegrees>-6.3647842593491077423095703125</LongitudeDegrees>
            </Position>
            <AltitudeMeters>427.600006103515625</AltitudeMeters>
            <DistanceMeters>NAN</DistanceMeters>
          </Trackpoint>
          <Trackpoint>
            <Time>2019-10-09T07:29:51.000Z</Time>
            <Position>
              <LatitudeDegrees>39.44587594829499721527099609375</LatitudeDegrees>
              <LongitudeDegrees>-6.36473354883491992950439453125</LongitudeDegrees>
            </Position>
            <AltitudeMeters>427.79998779296875</AltitudeMeters>
            <DistanceMeters>NAN</DistanceMeters>
          </Trackpoint>
          <Trackpoint>
            <Time>2019-10-09T07:29:54.000Z</Time>
            <Position>
              <LatitudeDegrees>39.44574468769133090972900390625</LatitudeDegrees>
              <LongitudeDegrees>-6.364722065627574920654296875</LongitudeDegrees>
            </Position>
            <AltitudeMeters>428</AltitudeMeters>
            <DistanceMeters>NAN</DistanceMeters>
          </Trackpoint>
          <Trackpoint>
            <Time>2019-10-09T07:30:02.000Z</Time>
            <Position>
              <LatitudeDegrees>39.44538946263492107391357421875</LatitudeDegrees>
              <LongitudeDegrees>-6.36468040756881237030029296875</LongitudeDegrees>
            </Position>
            <AltitudeMeters>428.399993896484375</AltitudeMeters>
            <DistanceMeters>NAN</DistanceMeters>
          </Trackpoint>
          <Trackpoint>
            <Time>2019-10-09T07:30:03.000Z</Time>
            <Position>
              <LatitudeDegrees>39.44534503854811191558837890625</LatitudeDegrees>
              <LongitudeDegrees>-6.36467454023659229278564453125</LongitudeDegrees>
            </Position>
            <AltitudeMeters>428.600006103515625</AltitudeMeters>
            <DistanceMeters>NAN</DistanceMeters>
          </Trackpoint>
          <Trackpoint>
            <Time>2019-10-09T07:30:11.000Z</Time>
            <Position>
              <LatitudeDegrees>39.44497724063694477081298828125</LatitudeDegrees>
              <LongitudeDegrees>-6.36463162489235401153564453125</LongitudeDegrees>
            </Position>
            <AltitudeMeters>429</AltitudeMeters>
            <DistanceMeters>NAN</DistanceMeters>
          </Trackpoint>
          <Trackpoint>
            <Time>2019-10-09T07:30:21.000Z</Time>
            <Position>
              <LatitudeDegrees>39.4445320777595043182373046875</LatitudeDegrees>
              <LongitudeDegrees>-6.36455752886831760406494140625</LongitudeDegrees>
            </Position>
            <AltitudeMeters>429.600006103515625</AltitudeMeters>
            <DistanceMeters>NAN</DistanceMeters>
          </Trackpoint>
          <Trackpoint>
            <Time>2019-10-09T07:30:23.000Z</Time>
            <Position>
              <LatitudeDegrees>39.4444412179291248321533203125</LatitudeDegrees>
              <LongitudeDegrees>-6.3645452074706554412841796875</LongitudeDegrees>
            </Position>
            <AltitudeMeters>429.399993896484375</AltitudeMeters>
            <DistanceMeters>NAN</DistanceMeters>
          </Trackpoint>
          <Trackpoint>
            <Time>2019-10-09T07:30:35.000Z</Time>
            <Position>
              <LatitudeDegrees>39.4439067877829074859619140625</LatitudeDegrees>
              <LongitudeDegrees>-6.36443967930972576141357421875</LongitudeDegrees>
            </Position>
            <AltitudeMeters>430</AltitudeMeters>
            <DistanceMeters>NAN</DistanceMeters>
          </Trackpoint>
          <Trackpoint>
            <Time>2019-10-09T07:30:45.000Z</Time>
            <Position>
              <LatitudeDegrees>39.44345542229712009429931640625</LatitudeDegrees>
              <LongitudeDegrees>-6.364346556365489959716796875</LongitudeDegrees>
            </Position>
            <AltitudeMeters>430.399993896484375</AltitudeMeters>
            <DistanceMeters>NAN</DistanceMeters>
          </Trackpoint>
          <Trackpoint>
            <Time>2019-10-09T07:30:50.000Z</Time>
            <Position>
              <LatitudeDegrees>39.44322944618761539459228515625</LatitudeDegrees>
              <LongitudeDegrees>-6.364306993782520294189453125</LongitudeDegrees>
            </Position>
            <AltitudeMeters>430.600006103515625</AltitudeMeters>
            <DistanceMeters>NAN</DistanceMeters>
          </Trackpoint>
          <Trackpoint>
            <Time>2019-10-09T07:30:55.000Z</Time>
            <Position>
              <LatitudeDegrees>39.44300732575356960296630859375</LatitudeDegrees>
              <LongitudeDegrees>-6.364257372915744781494140625</LongitudeDegrees>
            </Position>
            <AltitudeMeters>430.79998779296875</AltitudeMeters>
            <DistanceMeters>NAN</DistanceMeters>
          </Trackpoint>
          <Trackpoint>
            <Time>2019-10-09T07:31:01.000Z</Time>
            <Position>
              <LatitudeDegrees>39.44273717701435089111328125</LatitudeDegrees>
              <LongitudeDegrees>-6.36420498602092266082763671875</LongitudeDegrees>
            </Position>
            <AltitudeMeters>431.20001220703125</AltitudeMeters>
            <DistanceMeters>NAN</DistanceMeters>
          </Trackpoint>
          <Trackpoint>
            <Time>2019-10-09T07:31:04.000Z</Time>
            <Position>
              <LatitudeDegrees>39.4426064193248748779296875</LatitudeDegrees>
              <LongitudeDegrees>-6.3641821034252643585205078125</LongitudeDegrees>
            </Position>
            <AltitudeMeters>431.600006103515625</AltitudeMeters>
            <DistanceMeters>NAN</DistanceMeters>
          </Trackpoint>
          <Trackpoint>
            <Time>2019-10-09T07:31:09.000Z</Time>
            <Position>
              <LatitudeDegrees>39.44238404743373394012451171875</LatitudeDegrees>
              <LongitudeDegrees>-6.36411823332309722900390625</LongitudeDegrees>
            </Position>
            <AltitudeMeters>431.600006103515625</AltitudeMeters>
            <DistanceMeters>NAN</DistanceMeters>
          </Trackpoint>
          <Trackpoint>
            <Time>2019-10-09T07:31:13.000Z</Time>
            <Position>
              <LatitudeDegrees>39.44221548736095428466796875</LatitudeDegrees>
              <LongitudeDegrees>-6.364068947732448577880859375</LongitudeDegrees>
            </Position>
            <AltitudeMeters>432.399993896484375</AltitudeMeters>
            <DistanceMeters>NAN</DistanceMeters>
          </Trackpoint>
          <Trackpoint>
            <Time>2019-10-09T07:31:15.000Z</Time>
            <Position>
              <LatitudeDegrees>39.44212873466312885284423828125</LatitudeDegrees>
              <LongitudeDegrees>-6.36405386030673980712890625</LongitudeDegrees>
            </Position>
            <AltitudeMeters>432</AltitudeMeters>
            <DistanceMeters>NAN</DistanceMeters>
          </Trackpoint>
          <Trackpoint>
            <Time>2019-10-09T07:31:19.000Z</Time>
            <Position>
              <LatitudeDegrees>39.44196310825645923614501953125</LatitudeDegrees>
              <LongitudeDegrees>-6.3640265353024005889892578125</LongitudeDegrees>
            </Position>
            <AltitudeMeters>432.20001220703125</AltitudeMeters>
            <DistanceMeters>NAN</DistanceMeters>
          </Trackpoint>
          <Trackpoint>
            <Time>2019-10-09T07:31:25.000Z</Time>
            <Position>
              <LatitudeDegrees>39.4417507946491241455078125</LatitudeDegrees>
              <LongitudeDegrees>-6.36400759220123291015625</LongitudeDegrees>
            </Position>
            <AltitudeMeters>433</AltitudeMeters>
            <DistanceMeters>NAN</DistanceMeters>
          </Trackpoint>
          <Trackpoint>
            <Time>2019-10-09T07:31:32.000Z</Time>
            <Position>
              <LatitudeDegrees>39.44151232950389385223388671875</LatitudeDegrees>
              <LongitudeDegrees>-6.3640000484883785247802734375</LongitudeDegrees>
            </Position>
            <AltitudeMeters>433.600006103515625</AltitudeMeters>
            <DistanceMeters>NAN</DistanceMeters>
          </Trackpoint>
          <Trackpoint>
            <Time>2019-10-09T07:31:37.000Z</Time>
            <Position>
              <LatitudeDegrees>39.4413479603826999664306640625</LatitudeDegrees>
              <LongitudeDegrees>-6.36397716589272022247314453125</LongitudeDegrees>
            </Position>
            <AltitudeMeters>434</AltitudeMeters>
            <DistanceMeters>NAN</DistanceMeters>
          </Trackpoint>
          <Trackpoint>
            <Time>2019-10-09T07:31:38.000Z</Time>
            <Position>
              <LatitudeDegrees>39.4413147680461406707763671875</LatitudeDegrees>
              <LongitudeDegrees>-6.3639893196523189544677734375</LongitudeDegrees>
            </Position>
            <AltitudeMeters>433.79998779296875</AltitudeMeters>
            <DistanceMeters>NAN</DistanceMeters>
          </Trackpoint>
          <Trackpoint>
            <Time>2019-10-09T07:31:45.000Z</Time>
            <Position>
              <LatitudeDegrees>39.44109172560274600982666015625</LatitudeDegrees>
              <LongitudeDegrees>-6.36400616727769374847412109375</LongitudeDegrees>
            </Position>
            <AltitudeMeters>434.399993896484375</AltitudeMeters>
            <DistanceMeters>NAN</DistanceMeters>
          </Trackpoint>
          <Trackpoint>
            <Time>2019-10-09T07:31:51.000Z</Time>
            <Position>
              <LatitudeDegrees>39.440904892981052398681640625</LatitudeDegrees>
              <LongitudeDegrees>-6.36400935240089893341064453125</LongitudeDegrees>
            </Position>
            <AltitudeMeters>435</AltitudeMeters>
            <DistanceMeters>NAN</DistanceMeters>
          </Trackpoint>
          <Trackpoint>
            <Time>2019-10-09T07:31:54.000Z</Time>
            <Position>
              <LatitudeDegrees>39.44081160239875316619873046875</LatitudeDegrees>
              <LongitudeDegrees>-6.36400692164897918701171875</LongitudeDegrees>
            </Position>
            <AltitudeMeters>435</AltitudeMeters>
            <DistanceMeters>NAN</DistanceMeters>
          </Trackpoint>
          <Trackpoint>
            <Time>2019-10-09T07:32:00.000Z</Time>
            <Position>
              <LatitudeDegrees>39.44062887690961360931396484375</LatitudeDegrees>
              <LongitudeDegrees>-6.36399577371776103973388671875</LongitudeDegrees>
            </Position>
            <AltitudeMeters>435.600006103515625</AltitudeMeters>
            <DistanceMeters>NAN</DistanceMeters>
          </Trackpoint>
          <Trackpoint>
            <Time>2019-10-09T07:32:06.000Z</Time>
            <Position>
              <LatitudeDegrees>39.44045788608491420745849609375</LatitudeDegrees>
              <LongitudeDegrees>-6.36403198353946208953857421875</LongitudeDegrees>
            </Position>
            <AltitudeMeters>436.399993896484375</AltitudeMeters>
            <DistanceMeters>NAN</DistanceMeters>
          </Trackpoint>
          <Trackpoint>
            <Time>2019-10-09T07:32:13.000Z</Time>
            <Position>
              <LatitudeDegrees>39.44025688804686069488525390625</LatitudeDegrees>
              <LongitudeDegrees>-6.3640411198139190673828125</LongitudeDegrees>
            </Position>
            <AltitudeMeters>437</AltitudeMeters>
            <DistanceMeters>NAN</DistanceMeters>
          </Trackpoint>
          <Trackpoint>
            <Time>2019-10-09T07:32:20.000Z</Time>
            <Position>
              <LatitudeDegrees>39.44005429744720458984375</LatitudeDegrees>
              <LongitudeDegrees>-6.36402494274079799652099609375</LongitudeDegrees>
            </Position>
            <AltitudeMeters>437.20001220703125</AltitudeMeters>
            <DistanceMeters>NAN</DistanceMeters>
          </Trackpoint>
          <Trackpoint>
            <Time>2019-10-09T07:32:22.000Z</Time>
            <Position>
              <LatitudeDegrees>39.43999872542917728424072265625</LatitudeDegrees>
              <LongitudeDegrees>-6.36401974596083164215087890625</LongitudeDegrees>
            </Position>
            <AltitudeMeters>437.399993896484375</AltitudeMeters>
            <DistanceMeters>NAN</DistanceMeters>
          </Trackpoint>
          <Trackpoint>
            <Time>2019-10-09T07:32:29.000Z</Time>
            <Position>
              <LatitudeDegrees>39.43979504518210887908935546875</LatitudeDegrees>
              <LongitudeDegrees>-6.364011280238628387451171875</LongitudeDegrees>
            </Position>
            <AltitudeMeters>438</AltitudeMeters>
            <DistanceMeters>NAN</DistanceMeters>
          </Trackpoint>
          <Trackpoint>
            <Time>2019-10-09T07:32:31.000Z</Time>
            <Position>
              <LatitudeDegrees>39.4397356174886226654052734375</LatitudeDegrees>
              <LongitudeDegrees>-6.36401119641959667205810546875</LongitudeDegrees>
            </Position>
            <AltitudeMeters>438.600006103515625</AltitudeMeters>
            <DistanceMeters>NAN</DistanceMeters>
          </Trackpoint>
          <Trackpoint>
            <Time>2019-10-09T07:32:37.000Z</Time>
            <Position>
              <LatitudeDegrees>39.43956504575908184051513671875</LatitudeDegrees>
              <LongitudeDegrees>-6.36402661912143230438232421875</LongitudeDegrees>
            </Position>
            <AltitudeMeters>439</AltitudeMeters>
            <DistanceMeters>NAN</DistanceMeters>
          </Trackpoint>
          <Trackpoint>
            <Time>2019-10-09T07:32:45.000Z</Time>
            <Position>
              <LatitudeDegrees>39.43933923728764057159423828125</LatitudeDegrees>
              <LongitudeDegrees>-6.364092417061328887939453125</LongitudeDegrees>
            </Position>
            <AltitudeMeters>439.399993896484375</AltitudeMeters>
            <DistanceMeters>NAN</DistanceMeters>
          </Trackpoint>
          <Trackpoint>
            <Time>2019-10-09T07:32:51.000Z</Time>
            <Position>
              <LatitudeDegrees>39.43916715681552886962890625</LatitudeDegrees>
              <LongitudeDegrees>-6.36416022665798664093017578125</LongitudeDegrees>
            </Position>
            <AltitudeMeters>439.79998779296875</AltitudeMeters>
            <DistanceMeters>NAN</DistanceMeters>
          </Trackpoint>
          <Trackpoint>
            <Time>2019-10-09T07:32:57.000Z</Time>
            <Position>
              <LatitudeDegrees>39.43899323232471942901611328125</LatitudeDegrees>
              <LongitudeDegrees>-6.36420364491641521453857421875</LongitudeDegrees>
            </Position>
            <AltitudeMeters>439.79998779296875</AltitudeMeters>
            <DistanceMeters>NAN</DistanceMeters>
          </Trackpoint>
          <Trackpoint>
            <Time>2019-10-09T07:33:03.000Z</Time>
            <Position>
              <LatitudeDegrees>39.43881670944392681121826171875</LatitudeDegrees>
              <LongitudeDegrees>-6.364216469228267669677734375</LongitudeDegrees>
            </Position>
            <AltitudeMeters>439.600006103515625</AltitudeMeters>
            <DistanceMeters>NAN</DistanceMeters>
          </Trackpoint>
          <Trackpoint>
            <Time>2019-10-09T07:33:11.000Z</Time>
            <Position>
              <LatitudeDegrees>39.438595511019229888916015625</LatitudeDegrees>
              <LongitudeDegrees>-6.36420515365898609161376953125</LongitudeDegrees>
            </Position>
            <AltitudeMeters>440.79998779296875</AltitudeMeters>
            <DistanceMeters>NAN</DistanceMeters>
          </Trackpoint>
          <Trackpoint>
            <Time>2019-10-09T07:33:12.000Z</Time>
            <Position>
              <LatitudeDegrees>39.43857497535645961761474609375</LatitudeDegrees>
              <LongitudeDegrees>-6.3642020523548126220703125</LongitudeDegrees>
            </Position>
            <AltitudeMeters>440.79998779296875</AltitudeMeters>
            <DistanceMeters>NAN</DistanceMeters>
          </Trackpoint>
          <Trackpoint>
            <Time>2019-10-09T07:33:17.000Z</Time>
            <Position>
              <LatitudeDegrees>39.43846684880554676055908203125</LatitudeDegrees>
              <LongitudeDegrees>-6.36419945396482944488525390625</LongitudeDegrees>
            </Position>
            <AltitudeMeters>440.79998779296875</AltitudeMeters>
            <DistanceMeters>NAN</DistanceMeters>
          </Trackpoint>
          <Trackpoint>
            <Time>2019-10-09T07:33:24.000Z</Time>
            <Position>
              <LatitudeDegrees>39.43829468451440334320068359375</LatitudeDegrees>
              <LongitudeDegrees>-6.36419895105063915252685546875</LongitudeDegrees>
            </Position>
            <AltitudeMeters>441.600006103515625</AltitudeMeters>
            <DistanceMeters>NAN</DistanceMeters>
          </Trackpoint>
          <Trackpoint>
            <Time>2019-10-09T07:33:30.000Z</Time>
            <Position>
              <LatitudeDegrees>39.438154958188533782958984375</LatitudeDegrees>
              <LongitudeDegrees>-6.3642005436122417449951171875</LongitudeDegrees>
            </Position>
            <AltitudeMeters>441.79998779296875</AltitudeMeters>
            <DistanceMeters>NAN</DistanceMeters>
          </Trackpoint>
          <Trackpoint>
            <Time>2019-10-09T07:33:32.000Z</Time>
            <Position>
              <LatitudeDegrees>39.4381083548069000244140625</LatitudeDegrees>
              <LongitudeDegrees>-6.3642049022018909454345703125</LongitudeDegrees>
            </Position>
            <AltitudeMeters>441.79998779296875</AltitudeMeters>
            <DistanceMeters>NAN</DistanceMeters>
          </Trackpoint>
          <Trackpoint>
            <Time>2019-10-09T07:33:36.000Z</Time>
            <Position>
              <LatitudeDegrees>39.43800969980657100677490234375</LatitudeDegrees>
              <LongitudeDegrees>-6.3642260245978832244873046875</LongitudeDegrees>
            </Position>
            <AltitudeMeters>442</AltitudeMeters>
            <DistanceMeters>NAN</DistanceMeters>
          </Trackpoint>
          <Trackpoint>
            <Time>2019-10-09T07:33:42.000Z</Time>
            <Position>
              <LatitudeDegrees>39.437857568264007568359375</LatitudeDegrees>
              <LongitudeDegrees>-6.364259384572505950927734375</LongitudeDegrees>
            </Position>
            <AltitudeMeters>442.20001220703125</AltitudeMeters>
            <DistanceMeters>NAN</DistanceMeters>
          </Trackpoint>
          <Trackpoint>
            <Time>2019-10-09T07:33:50.000Z</Time>
            <Position>
              <LatitudeDegrees>39.437646009027957916259765625</LatitudeDegrees>
              <LongitudeDegrees>-6.36432048864662647247314453125</LongitudeDegrees>
            </Position>
            <AltitudeMeters>442.79998779296875</AltitudeMeters>
            <DistanceMeters>NAN</DistanceMeters>
          </Trackpoint>
          <Trackpoint>
            <Time>2019-10-09T07:33:54.000Z</Time>
            <Position>
              <LatitudeDegrees>39.43755137734115123748779296875</LatitudeDegrees>
              <LongitudeDegrees>-6.3643614761531352996826171875</LongitudeDegrees>
            </Position>
            <AltitudeMeters>443</AltitudeMeters>
            <DistanceMeters>NAN</DistanceMeters>
          </Trackpoint>
          <Trackpoint>
            <Time>2019-10-09T07:33:57.000Z</Time>
            <Position>
              <LatitudeDegrees>39.43747493438422679901123046875</LatitudeDegrees>
              <LongitudeDegrees>-6.364370025694370269775390625</LongitudeDegrees>
            </Position>
            <AltitudeMeters>443.79998779296875</AltitudeMeters>
            <DistanceMeters>NAN</DistanceMeters>
          </Trackpoint>
          <Trackpoint>
            <Time>2019-10-09T07:34:00.000Z</Time>
            <Position>
              <LatitudeDegrees>39.4374014250934123992919921875</LatitudeDegrees>
              <LongitudeDegrees>-6.3643242605030536651611328125</LongitudeDegrees>
            </Position>
            <AltitudeMeters>444</AltitudeMeters>
            <DistanceMeters>NAN</DistanceMeters>
          </Trackpoint>
          <Trackpoint>
            <Time>2019-10-09T07:34:02.000Z</Time>
            <Position>
              <LatitudeDegrees>39.43735406734049320220947265625</LatitudeDegrees>
              <LongitudeDegrees>-6.36428184807300567626953125</LongitudeDegrees>
            </Position>
            <AltitudeMeters>444.399993896484375</AltitudeMeters>
            <DistanceMeters>NAN</DistanceMeters>
          </Trackpoint>
          <Trackpoint>
            <Time>2019-10-09T07:34:09.000Z</Time>
            <Position>
              <LatitudeDegrees>39.437189362943172454833984375</LatitudeDegrees>
              <LongitudeDegrees>-6.364138014614582061767578125</LongitudeDegrees>
            </Position>
            <AltitudeMeters>445</AltitudeMeters>
            <DistanceMeters>NAN</DistanceMeters>
          </Trackpoint>
          <Trackpoint>
            <Time>2019-10-09T07:34:10.000Z</Time>
            <Position>
              <LatitudeDegrees>39.43717025220394134521484375</LatitudeDegrees>
              <LongitudeDegrees>-6.36411295272409915924072265625</LongitudeDegrees>
            </Position>
            <AltitudeMeters>445.600006103515625</AltitudeMeters>
            <DistanceMeters>NAN</DistanceMeters>
          </Trackpoint>
          <Trackpoint>
            <Time>2019-10-09T07:34:15.000Z</Time>
            <Position>
              <LatitudeDegrees>39.4370698370039463043212890625</LatitudeDegrees>
              <LongitudeDegrees>-6.3639977015554904937744140625</LongitudeDegrees>
            </Position>
            <AltitudeMeters>446.399993896484375</AltitudeMeters>
            <DistanceMeters>NAN</DistanceMeters>
          </Trackpoint>
          <Trackpoint>
            <Time>2019-10-09T07:34:20.000Z</Time>
            <Position>
              <LatitudeDegrees>39.436958692967891693115234375</LatitudeDegrees>
              <LongitudeDegrees>-6.36387071572244167327880859375</LongitudeDegrees>
            </Position>
            <AltitudeMeters>446.600006103515625</AltitudeMeters>
            <DistanceMeters>NAN</DistanceMeters>
          </Trackpoint>
          <Trackpoint>
            <Time>2019-10-09T07:34:23.000Z</Time>
            <Position>
              <LatitudeDegrees>39.4369067251682281494140625</LatitudeDegrees>
              <LongitudeDegrees>-6.36378874070942401885986328125</LongitudeDegrees>
            </Position>
            <AltitudeMeters>447.399993896484375</AltitudeMeters>
            <DistanceMeters>NAN</DistanceMeters>
          </Trackpoint>
          <Trackpoint>
            <Time>2019-10-09T07:34:25.000Z</Time>
            <Position>
              <LatitudeDegrees>39.43686590529978275299072265625</LatitudeDegrees>
              <LongitudeDegrees>-6.3637495972216129302978515625</LongitudeDegrees>
            </Position>
            <AltitudeMeters>448</AltitudeMeters>
            <DistanceMeters>NAN</DistanceMeters>
          </Trackpoint>
          <Trackpoint>
            <Time>2019-10-09T07:34:30.000Z</Time>
            <Position>
              <LatitudeDegrees>39.4367645680904388427734375</LatitudeDegrees>
              <LongitudeDegrees>-6.36364256031811237335205078125</LongitudeDegrees>
            </Position>
            <AltitudeMeters>448.600006103515625</AltitudeMeters>
            <DistanceMeters>NAN</DistanceMeters>
          </Trackpoint>
          <Trackpoint>
            <Time>2019-10-09T07:34:33.000Z</Time>
            <Position>
              <LatitudeDegrees>39.436699189245700836181640625</LatitudeDegrees>
              <LongitudeDegrees>-6.36358254589140415191650390625</LongitudeDegrees>
            </Position>
            <AltitudeMeters>449.399993896484375</AltitudeMeters>
            <DistanceMeters>NAN</DistanceMeters>
          </Trackpoint>
          <Trackpoint>
            <Time>2019-10-09T07:34:36.000Z</Time>
            <Position>
              <LatitudeDegrees>39.4366296194493770599365234375</LatitudeDegrees>
              <LongitudeDegrees>-6.36353543959558010101318359375</LongitudeDegrees>
            </Position>
            <AltitudeMeters>450.20001220703125</AltitudeMeters>
            <DistanceMeters>NAN</DistanceMeters>
          </Trackpoint>
          <Trackpoint>
            <Time>2019-10-09T07:34:37.000Z</Time>
            <Position>
              <LatitudeDegrees>39.4366044737398624420166015625</LatitudeDegrees>
              <LongitudeDegrees>-6.3635242916643619537353515625</LongitudeDegrees>
            </Position>
            <AltitudeMeters>450.20001220703125</AltitudeMeters>
            <DistanceMeters>NAN</DistanceMeters>
          </Trackpoint>
          <Trackpoint>
            <Time>2019-10-09T07:34:40.000Z</Time>
            <Position>
              <LatitudeDegrees>39.43652878515422344207763671875</LatitudeDegrees>
              <LongitudeDegrees>-6.36348749510943889617919921875</LongitudeDegrees>
            </Position>
            <AltitudeMeters>450.600006103515625</AltitudeMeters>
            <DistanceMeters>NAN</DistanceMeters>
          </Trackpoint>
          <Trackpoint>
            <Time>2019-10-09T07:34:44.000Z</Time>
            <Position>
              <LatitudeDegrees>39.43642459809780120849609375</LatitudeDegrees>
              <LongitudeDegrees>-6.36344290338456630706787109375</LongitudeDegrees>
            </Position>
            <AltitudeMeters>450.600006103515625</AltitudeMeters>
            <DistanceMeters>NAN</DistanceMeters>
          </Trackpoint>
          <Trackpoint>
            <Time>2019-10-09T07:34:47.000Z</Time>
            <Position>
              <LatitudeDegrees>39.4363506697118282318115234375</LatitudeDegrees>
              <LongitudeDegrees>-6.36341817677021026611328125</LongitudeDegrees>
            </Position>
            <AltitudeMeters>451.600006103515625</AltitudeMeters>
            <DistanceMeters>NAN</DistanceMeters>
          </Trackpoint>
          <Trackpoint>
            <Time>2019-10-09T07:34:50.000Z</Time>
            <Position>
              <LatitudeDegrees>39.43628168664872646331787109375</LatitudeDegrees>
              <LongitudeDegrees>-6.3633678853511810302734375</LongitudeDegrees>
            </Position>
            <AltitudeMeters>452</AltitudeMeters>
            <DistanceMeters>NAN</DistanceMeters>
          </Trackpoint>
          <Trackpoint>
            <Time>2019-10-09T07:34:56.000Z</Time>
            <Position>
              <LatitudeDegrees>39.4361221790313720703125</LatitudeDegrees>
              <LongitudeDegrees>-6.36329052038490772247314453125</LongitudeDegrees>
            </Position>
            <AltitudeMeters>452.399993896484375</AltitudeMeters>
            <DistanceMeters>NAN</DistanceMeters>
          </Trackpoint>
          <Trackpoint>
            <Time>2019-10-09T07:34:57.000Z</Time>
            <Position>
              <LatitudeDegrees>39.4360948540270328521728515625</LatitudeDegrees>
              <LongitudeDegrees>-6.3632793724536895751953125</LongitudeDegrees>
            </Position>
            <AltitudeMeters>452.79998779296875</AltitudeMeters>
            <DistanceMeters>NAN</DistanceMeters>
          </Trackpoint>
          <Trackpoint>
            <Time>2019-10-09T07:35:05.000Z</Time>
            <Position>
              <LatitudeDegrees>39.435878433287143707275390625</LatitudeDegrees>
              <LongitudeDegrees>-6.3631856627762317657470703125</LongitudeDegrees>
            </Position>
            <AltitudeMeters>453</AltitudeMeters>
            <DistanceMeters>NAN</DistanceMeters>
          </Trackpoint>
          <Trackpoint>
            <Time>2019-10-09T07:35:13.000Z</Time>
            <Position>
              <LatitudeDegrees>39.43566410802304744720458984375</LatitudeDegrees>
              <LongitudeDegrees>-6.36308616958558559417724609375</LongitudeDegrees>
            </Position>
            <AltitudeMeters>453.600006103515625</AltitudeMeters>
            <DistanceMeters>NAN</DistanceMeters>
          </Trackpoint>
          <Trackpoint>
            <Time>2019-10-09T07:35:17.000Z</Time>
            <Position>
              <LatitudeDegrees>39.43553972057998180389404296875</LatitudeDegrees>
              <LongitudeDegrees>-6.363032273948192596435546875</LongitudeDegrees>
            </Position>
            <AltitudeMeters>453.79998779296875</AltitudeMeters>
            <DistanceMeters>NAN</DistanceMeters>
          </Trackpoint>
          <Trackpoint>
            <Time>2019-10-09T07:35:21.000Z</Time>
            <Position>
              <LatitudeDegrees>39.4354139082133769989013671875</LatitudeDegrees>
              <LongitudeDegrees>-6.36297293007373809814453125</LongitudeDegrees>
            </Position>
            <AltitudeMeters>453.600006103515625</AltitudeMeters>
            <DistanceMeters>NAN</DistanceMeters>
          </Trackpoint>
          <Trackpoint>
            <Time>2019-10-09T07:35:26.000Z</Time>
            <Position>
              <LatitudeDegrees>39.43523361347615718841552734375</LatitudeDegrees>
              <LongitudeDegrees>-6.3628971576690673828125</LongitudeDegrees>
            </Position>
            <AltitudeMeters>453.399993896484375</AltitudeMeters>
            <DistanceMeters>NAN</DistanceMeters>
          </Trackpoint>
          <Trackpoint>
            <Time>2019-10-09T07:35:29.000Z</Time>
            <Position>
              <LatitudeDegrees>39.435117356479167938232421875</LatitudeDegrees>
              <LongitudeDegrees>-6.36285868473351001739501953125</LongitudeDegrees>
            </Position>
            <AltitudeMeters>452.399993896484375</AltitudeMeters>
            <DistanceMeters>NAN</DistanceMeters>
          </Trackpoint>
          <Trackpoint>
            <Time>2019-10-09T07:35:32.000Z</Time>
            <Position>
              <LatitudeDegrees>39.43498559296131134033203125</LatitudeDegrees>
              <LongitudeDegrees>-6.36282046325504779815673828125</LongitudeDegrees>
            </Position>
            <AltitudeMeters>451</AltitudeMeters>
            <DistanceMeters>NAN</DistanceMeters>
          </Trackpoint>
          <Trackpoint>
            <Time>2019-10-09T07:35:35.000Z</Time>
            <Position>
              <LatitudeDegrees>39.434861876070499420166015625</LatitudeDegrees>
              <LongitudeDegrees>-6.36278408579528331756591796875</LongitudeDegrees>
            </Position>
            <AltitudeMeters>450.399993896484375</AltitudeMeters>
            <DistanceMeters>NAN</DistanceMeters>
          </Trackpoint>
          <Trackpoint>
            <Time>2019-10-09T07:35:38.000Z</Time>
            <Position>
              <LatitudeDegrees>39.43474352359771728515625</LatitudeDegrees>
              <LongitudeDegrees>-6.3627236522734165191650390625</LongitudeDegrees>
            </Position>
            <AltitudeMeters>450.20001220703125</AltitudeMeters>
            <DistanceMeters>NAN</DistanceMeters>
          </Trackpoint>
          <Trackpoint>
            <Time>2019-10-09T07:35:39.000Z</Time>
            <Position>
              <LatitudeDegrees>39.43470354191958904266357421875</LatitudeDegrees>
              <LongitudeDegrees>-6.3626991771161556243896484375</LongitudeDegrees>
            </Position>
            <AltitudeMeters>449.79998779296875</AltitudeMeters>
            <DistanceMeters>NAN</DistanceMeters>
          </Trackpoint>
          <Trackpoint>
            <Time>2019-10-09T07:35:41.000Z</Time>
            <Position>
              <LatitudeDegrees>39.4346241652965545654296875</LatitudeDegrees>
              <LongitudeDegrees>-6.36263991706073284149169921875</LongitudeDegrees>
            </Position>
            <AltitudeMeters>450</AltitudeMeters>
            <DistanceMeters>NAN</DistanceMeters>
          </Trackpoint>
          <Trackpoint>
            <Time>2019-10-09T07:35:44.000Z</Time>
            <Position>
              <LatitudeDegrees>39.4345019571483135223388671875</LatitudeDegrees>
              <LongitudeDegrees>-6.362561546266078948974609375</LongitudeDegrees>
            </Position>
            <AltitudeMeters>449.79998779296875</AltitudeMeters>
            <DistanceMeters>NAN</DistanceMeters>
          </Trackpoint>
          <Trackpoint>
            <Time>2019-10-09T07:35:45.000Z</Time>
            <Position>
              <LatitudeDegrees>39.43446365185081958770751953125</LatitudeDegrees>
              <LongitudeDegrees>-6.362537406384944915771484375</LongitudeDegrees>
            </Position>
            <AltitudeMeters>449.600006103515625</AltitudeMeters>
            <DistanceMeters>NAN</DistanceMeters>
          </Trackpoint>
          <Trackpoint>
            <Time>2019-10-09T07:35:48.000Z</Time>
            <Position>
              <LatitudeDegrees>39.43436005152761936187744140625</LatitudeDegrees>
              <LongitudeDegrees>-6.36245417408645153045654296875</LongitudeDegrees>
            </Position>
            <AltitudeMeters>449.399993896484375</AltitudeMeters>
            <DistanceMeters>NAN</DistanceMeters>
          </Trackpoint>
          <Trackpoint>
            <Time>2019-10-09T07:35:52.000Z</Time>
            <Position>
              <LatitudeDegrees>39.4342407770454883575439453125</LatitudeDegrees>
              <LongitudeDegrees>-6.36235392652451992034912109375</LongitudeDegrees>
            </Position>
            <AltitudeMeters>450</AltitudeMeters>
            <DistanceMeters>NAN</DistanceMeters>
          </Trackpoint>
          <Trackpoint>
            <Time>2019-10-09T07:35:57.000Z</Time>
            <Position>
              <LatitudeDegrees>39.43408328108489513397216796875</LatitudeDegrees>
              <LongitudeDegrees>-6.3622475601732730865478515625</LongitudeDegrees>
            </Position>
            <AltitudeMeters>450</AltitudeMeters>
            <DistanceMeters>NAN</DistanceMeters>
          </Trackpoint>
          <Trackpoint>
            <Time>2019-10-09T07:36:03.000Z</Time>
            <Position>
              <LatitudeDegrees>39.43390742875635623931884765625</LatitudeDegrees>
              <LongitudeDegrees>-6.36210565455257892608642578125</LongitudeDegrees>
            </Position>
            <AltitudeMeters>450.399993896484375</AltitudeMeters>
            <DistanceMeters>NAN</DistanceMeters>
          </Trackpoint>
          <Trackpoint>
            <Time>2019-10-09T07:36:10.000Z</Time>
            <Position>
              <LatitudeDegrees>39.43368245847523212432861328125</LatitudeDegrees>
              <LongitudeDegrees>-6.36192686855792999267578125</LongitudeDegrees>
            </Position>
            <AltitudeMeters>450</AltitudeMeters>
            <DistanceMeters>NAN</DistanceMeters>
          </Trackpoint>
          <Trackpoint>
            <Time>2019-10-09T07:36:13.000Z</Time>
            <Position>
              <LatitudeDegrees>39.43358003161847591400146484375</LatitudeDegrees>
              <LongitudeDegrees>-6.361828632652759552001953125</LongitudeDegrees>
            </Position>
            <AltitudeMeters>448.79998779296875</AltitudeMeters>
            <DistanceMeters>NAN</DistanceMeters>
          </Trackpoint>
          <Trackpoint>
            <Time>2019-10-09T07:36:16.000Z</Time>
            <Position>
              <LatitudeDegrees>39.433490596711635589599609375</LatitudeDegrees>
              <LongitudeDegrees>-6.361751854419708251953125</LongitudeDegrees>
            </Position>
            <AltitudeMeters>449.20001220703125</AltitudeMeters>
            <DistanceMeters>NAN</DistanceMeters>
          </Trackpoint>
          <Trackpoint>
            <Time>2019-10-09T07:36:19.000Z</Time>
            <Position>
              <LatitudeDegrees>39.43340820260345935821533203125</LatitudeDegrees>
              <LongitudeDegrees>-6.36168018914759159088134765625</LongitudeDegrees>
            </Position>
            <AltitudeMeters>449</AltitudeMeters>
            <DistanceMeters>NAN</DistanceMeters>
          </Trackpoint>
          <Trackpoint>
            <Time>2019-10-09T07:36:22.000Z</Time>
            <Position>
              <LatitudeDegrees>39.4333152472972869873046875</LatitudeDegrees>
              <LongitudeDegrees>-6.36161983944475650787353515625</LongitudeDegrees>
            </Position>
            <AltitudeMeters>448.399993896484375</AltitudeMeters>
            <DistanceMeters>NAN</DistanceMeters>
          </Trackpoint>
          <Trackpoint>
            <Time>2019-10-09T07:36:24.000Z</Time>
            <Position>
              <LatitudeDegrees>39.4332497008144855499267578125</LatitudeDegrees>
              <LongitudeDegrees>-6.36157725937664508819580078125</LongitudeDegrees>
            </Position>
            <AltitudeMeters>447.20001220703125</AltitudeMeters>
            <DistanceMeters>NAN</DistanceMeters>
          </Trackpoint>
          <Trackpoint>
            <Time>2019-10-09T07:36:31.000Z</Time>
            <Position>
              <LatitudeDegrees>39.4330347888171672821044921875</LatitudeDegrees>
              <LongitudeDegrees>-6.3614137284457683563232421875</LongitudeDegrees>
            </Position>
            <AltitudeMeters>446</AltitudeMeters>
            <DistanceMeters>NAN</DistanceMeters>
          </Trackpoint>
          <Trackpoint>
            <Time>2019-10-09T07:36:32.000Z</Time>
            <Position>
              <LatitudeDegrees>39.43300302140414714813232421875</LatitudeDegrees>
              <LongitudeDegrees>-6.3613828830420970916748046875</LongitudeDegrees>
            </Position>
            <AltitudeMeters>445.79998779296875</AltitudeMeters>
            <DistanceMeters>NAN</DistanceMeters>
          </Trackpoint>
          <Trackpoint>
            <Time>2019-10-09T07:36:35.000Z</Time>
            <Position>
              <LatitudeDegrees>39.432900846004486083984375</LatitudeDegrees>
              <LongitudeDegrees>-6.36130082421004772186279296875</LongitudeDegrees>
            </Position>
            <AltitudeMeters>446</AltitudeMeters>
            <DistanceMeters>NAN</DistanceMeters>
          </Trackpoint>
          <Trackpoint>
            <Time>2019-10-09T07:36:36.000Z</Time>
            <Position>
              <LatitudeDegrees>39.432863630354404449462890625</LatitudeDegrees>
              <LongitudeDegrees>-6.361279785633087158203125</LongitudeDegrees>
            </Position>
            <AltitudeMeters>445.600006103515625</AltitudeMeters>
            <DistanceMeters>NAN</DistanceMeters>
          </Trackpoint>
          <Trackpoint>
            <Time>2019-10-09T07:36:39.000Z</Time>
            <Position>
              <LatitudeDegrees>39.43275131285190582275390625</LatitudeDegrees>
              <LongitudeDegrees>-6.3611978106200695037841796875</LongitudeDegrees>
            </Position>
            <AltitudeMeters>445.600006103515625</AltitudeMeters>
            <DistanceMeters>NAN</DistanceMeters>
          </Trackpoint>
          <Trackpoint>
            <Time>2019-10-09T07:36:42.000Z</Time>
            <Position>
              <LatitudeDegrees>39.4326337985694408416748046875</LatitudeDegrees>
              <LongitudeDegrees>-6.3611284084618091583251953125</LongitudeDegrees>
            </Position>
            <AltitudeMeters>445.79998779296875</AltitudeMeters>
            <DistanceMeters>NAN</DistanceMeters>
          </Trackpoint>
          <Trackpoint>
            <Time>2019-10-09T07:36:44.000Z</Time>
            <Position>
              <LatitudeDegrees>39.43255878053605556488037109375</LatitudeDegrees>
              <LongitudeDegrees>-6.36108406819403171539306640625</LongitudeDegrees>
            </Position>
            <AltitudeMeters>445.600006103515625</AltitudeMeters>
            <DistanceMeters>NAN</DistanceMeters>
          </Trackpoint>
          <Trackpoint>
            <Time>2019-10-09T07:36:45.000Z</Time>
            <Position>
              <LatitudeDegrees>39.43252391181886196136474609375</LatitudeDegrees>
              <LongitudeDegrees>-6.3610596768558025360107421875</LongitudeDegrees>
            </Position>
            <AltitudeMeters>445.399993896484375</AltitudeMeters>
            <DistanceMeters>NAN</DistanceMeters>
          </Trackpoint>
          <Trackpoint>
            <Time>2019-10-09T07:36:49.000Z</Time>
            <Position>
              <LatitudeDegrees>39.43239315412938594818115234375</LatitudeDegrees>
              <LongitudeDegrees>-6.36097493581473827362060546875</LongitudeDegrees>
            </Position>
            <AltitudeMeters>445.399993896484375</AltitudeMeters>
            <DistanceMeters>NAN</DistanceMeters>
          </Trackpoint>
          <Trackpoint>
            <Time>2019-10-09T07:36:55.000Z</Time>
            <Position>
              <LatitudeDegrees>39.43217790685594081878662109375</LatitudeDegrees>
              <LongitudeDegrees>-6.3608239777386188507080078125</LongitudeDegrees>
            </Position>
            <AltitudeMeters>445</AltitudeMeters>
            <DistanceMeters>NAN</DistanceMeters>
          </Trackpoint>
          <Trackpoint>
            <Time>2019-10-09T07:36:56.000Z</Time>
            <Position>
              <LatitudeDegrees>39.43214002065360546112060546875</LatitudeDegrees>
              <LongitudeDegrees>-6.360793970525264739990234375</LongitudeDegrees>
            </Position>
            <AltitudeMeters>444.79998779296875</AltitudeMeters>
            <DistanceMeters>NAN</DistanceMeters>
          </Trackpoint>
          <Trackpoint>
            <Time>2019-10-09T07:37:02.000Z</Time>
            <Position>
              <LatitudeDegrees>39.4318958558142185211181640625</LatitudeDegrees>
              <LongitudeDegrees>-6.36058366857469081878662109375</LongitudeDegrees>
            </Position>
            <AltitudeMeters>443.399993896484375</AltitudeMeters>
            <DistanceMeters>NAN</DistanceMeters>
          </Trackpoint>
          <Trackpoint>
            <Time>2019-10-09T07:37:03.000Z</Time>
            <Position>
              <LatitudeDegrees>39.431851767003536224365234375</LatitudeDegrees>
              <LongitudeDegrees>-6.3605540804564952850341796875</LongitudeDegrees>
            </Position>
            <AltitudeMeters>444</AltitudeMeters>
            <DistanceMeters>NAN</DistanceMeters>
          </Trackpoint>
          <Trackpoint>
            <Time>2019-10-09T07:37:04.000Z</Time>
            <Position>
              <LatitudeDegrees>39.43180851638317108154296875</LatitudeDegrees>
              <LongitudeDegrees>-6.36052264831960201263427734375</LongitudeDegrees>
            </Position>
            <AltitudeMeters>443.79998779296875</AltitudeMeters>
            <DistanceMeters>NAN</DistanceMeters>
          </Trackpoint>
          <Trackpoint>
            <Time>2019-10-09T07:37:08.000Z</Time>
            <Position>
              <LatitudeDegrees>39.431629814207553863525390625</LatitudeDegrees>
              <LongitudeDegrees>-6.36039725504815578460693359375</LongitudeDegrees>
            </Position>
            <AltitudeMeters>443.20001220703125</AltitudeMeters>
            <DistanceMeters>NAN</DistanceMeters>
          </Trackpoint>
          <Trackpoint>
            <Time>2019-10-09T07:37:10.000Z</Time>
            <Position>
              <LatitudeDegrees>39.4315314106643199920654296875</LatitudeDegrees>
              <LongitudeDegrees>-6.360349394381046295166015625</LongitudeDegrees>
            </Position>
            <AltitudeMeters>443</AltitudeMeters>
            <DistanceMeters>NAN</DistanceMeters>
          </Trackpoint>
          <Trackpoint>
            <Time>2019-10-09T07:37:14.000Z</Time>
            <Position>
              <LatitudeDegrees>39.43133032880723476409912109375</LatitudeDegrees>
              <LongitudeDegrees>-6.36022944934666156768798828125</LongitudeDegrees>
            </Position>
            <AltitudeMeters>442.20001220703125</AltitudeMeters>
            <DistanceMeters>NAN</DistanceMeters>
          </Trackpoint>
          <Trackpoint>
            <Time>2019-10-09T07:37:17.000Z</Time>
            <Position>
              <LatitudeDegrees>39.43118146620690822601318359375</LatitudeDegrees>
              <LongitudeDegrees>-6.360128782689571380615234375</LongitudeDegrees>
            </Position>
            <AltitudeMeters>441.600006103515625</AltitudeMeters>
            <DistanceMeters>NAN</DistanceMeters>
          </Trackpoint>
          <Trackpoint>
            <Time>2019-10-09T07:37:22.000Z</Time>
            <Position>
              <LatitudeDegrees>39.43092782981693744659423828125</LatitudeDegrees>
              <LongitudeDegrees>-6.359969861805438995361328125</LongitudeDegrees>
            </Position>
            <AltitudeMeters>440.79998779296875</AltitudeMeters>
            <DistanceMeters>NAN</DistanceMeters>
          </Trackpoint>
          <Trackpoint>
            <Time>2019-10-09T07:37:24.000Z</Time>
            <Position>
              <LatitudeDegrees>39.4308181107044219970703125</LatitudeDegrees>
              <LongitudeDegrees>-6.359905488789081573486328125</LongitudeDegrees>
            </Position>
            <AltitudeMeters>440.20001220703125</AltitudeMeters>
            <DistanceMeters>NAN</DistanceMeters>
          </Trackpoint>
          <Trackpoint>
            <Time>2019-10-09T07:37:28.000Z</Time>
            <Position>
              <LatitudeDegrees>39.43059171549975872039794921875</LatitudeDegrees>
              <LongitudeDegrees>-6.35976861231029033660888671875</LongitudeDegrees>
            </Position>
            <AltitudeMeters>439.399993896484375</AltitudeMeters>
            <DistanceMeters>NAN</DistanceMeters>
          </Trackpoint>
          <Trackpoint>
            <Time>2019-10-09T07:37:32.000Z</Time>
            <Position>
              <LatitudeDegrees>39.4303755462169647216796875</LatitudeDegrees>
              <LongitudeDegrees>-6.35966484434902667999267578125</LongitudeDegrees>
            </Position>
            <AltitudeMeters>439</AltitudeMeters>
            <DistanceMeters>NAN</DistanceMeters>
          </Trackpoint>
          <Trackpoint>
            <Time>2019-10-09T07:37:35.000Z</Time>
            <Position>
              <LatitudeDegrees>39.4302429445087909698486328125</LatitudeDegrees>
              <LongitudeDegrees>-6.35961606167256832122802734375</LongitudeDegrees>
            </Position>
            <AltitudeMeters>439</AltitudeMeters>
            <DistanceMeters>NAN</DistanceMeters>
          </Trackpoint>
          <Trackpoint>
            <Time>2019-10-09T07:37:37.000Z</Time>
            <Position>
              <LatitudeDegrees>39.4301569461822509765625</LatitudeDegrees>
              <LongitudeDegrees>-6.35959946550428867340087890625</LongitudeDegrees>
            </Position>
            <AltitudeMeters>438.79998779296875</AltitudeMeters>
            <DistanceMeters>NAN</DistanceMeters>
          </Trackpoint>
          <Trackpoint>
            <Time>2019-10-09T07:37:39.000Z</Time>
            <Position>
              <LatitudeDegrees>39.43007673136889934539794921875</LatitudeDegrees>
              <LongitudeDegrees>-6.359580941498279571533203125</LongitudeDegrees>
            </Position>
            <AltitudeMeters>438.399993896484375</AltitudeMeters>
            <DistanceMeters>NAN</DistanceMeters>
          </Trackpoint>
          <Trackpoint>
            <Time>2019-10-09T07:37:42.000Z</Time>
            <Position>
              <LatitudeDegrees>39.42996860481798648834228515625</LatitudeDegrees>
              <LongitudeDegrees>-6.35955001227557659149169921875</LongitudeDegrees>
            </Position>
            <AltitudeMeters>439</AltitudeMeters>
            <DistanceMeters>NAN</DistanceMeters>
          </Trackpoint>
          <Trackpoint>
            <Time>2019-10-09T07:37:48.000Z</Time>
            <Position>
              <LatitudeDegrees>39.42977682687342166900634765625</LatitudeDegrees>
              <LongitudeDegrees>-6.35943350382149219512939453125</LongitudeDegrees>
            </Position>
            <AltitudeMeters>438.79998779296875</AltitudeMeters>
            <DistanceMeters>NAN</DistanceMeters>
          </Trackpoint>
          <Trackpoint>
            <Time>2019-10-09T07:37:49.000Z</Time>
            <Position>
              <LatitudeDegrees>39.42974698729813098907470703125</LatitudeDegrees>
              <LongitudeDegrees>-6.3594134710729122161865234375</LongitudeDegrees>
            </Position>
            <AltitudeMeters>438.79998779296875</AltitudeMeters>
            <DistanceMeters>NAN</DistanceMeters>
          </Trackpoint>
          <Trackpoint>
            <Time>2019-10-09T07:37:54.000Z</Time>
            <Position>
              <LatitudeDegrees>39.4296072609722614288330078125</LatitudeDegrees>
              <LongitudeDegrees>-6.359318085014820098876953125</LongitudeDegrees>
            </Position>
            <AltitudeMeters>439.20001220703125</AltitudeMeters>
            <DistanceMeters>NAN</DistanceMeters>
          </Trackpoint>
          <Trackpoint>
            <Time>2019-10-09T07:37:57.000Z</Time>
            <Position>
              <LatitudeDegrees>39.4295314885675907135009765625</LatitudeDegrees>
              <LongitudeDegrees>-6.3592726550996303558349609375</LongitudeDegrees>
            </Position>
            <AltitudeMeters>439.20001220703125</AltitudeMeters>
            <DistanceMeters>NAN</DistanceMeters>
          </Trackpoint>
          <Trackpoint>
            <Time>2019-10-09T07:37:59.000Z</Time>
            <Position>
              <LatitudeDegrees>39.42947776056826114654541015625</LatitudeDegrees>
              <LongitudeDegrees>-6.3592493534088134765625</LongitudeDegrees>
            </Position>
            <AltitudeMeters>439.600006103515625</AltitudeMeters>
            <DistanceMeters>NAN</DistanceMeters>
          </Trackpoint>
          <Trackpoint>
            <Time>2019-10-09T07:38:06.000Z</Time>
            <Position>
              <LatitudeDegrees>39.42929319106042385101318359375</LatitudeDegrees>
              <LongitudeDegrees>-6.35916427709162235260009765625</LongitudeDegrees>
            </Position>
            <AltitudeMeters>440.20001220703125</AltitudeMeters>
            <DistanceMeters>NAN</DistanceMeters>
          </Trackpoint>
          <Trackpoint>
            <Time>2019-10-09T07:38:07.000Z</Time>
            <Position>
              <LatitudeDegrees>39.42926955409348011016845703125</LatitudeDegrees>
              <LongitudeDegrees>-6.35914952494204044342041015625</LongitudeDegrees>
            </Position>
            <AltitudeMeters>440.600006103515625</AltitudeMeters>
            <DistanceMeters>NAN</DistanceMeters>
          </Trackpoint>
          <Trackpoint>
            <Time>2019-10-09T07:38:08.000Z</Time>
            <Position>
              <LatitudeDegrees>39.4292465038597583770751953125</LatitudeDegrees>
              <LongitudeDegrees>-6.35913510806858539581298828125</LongitudeDegrees>
            </Position>
            <AltitudeMeters>440.79998779296875</AltitudeMeters>
            <DistanceMeters>NAN</DistanceMeters>
          </Trackpoint>
          <Trackpoint>
            <Time>2019-10-09T07:38:10.000Z</Time>
            <Position>
              <LatitudeDegrees>39.429203085601329803466796875</LatitudeDegrees>
              <LongitudeDegrees>-6.35910141281783580780029296875</LongitudeDegrees>
            </Position>
            <AltitudeMeters>441</AltitudeMeters>
            <DistanceMeters>NAN</DistanceMeters>
          </Trackpoint>
          <Trackpoint>
            <Time>2019-10-09T07:38:13.000Z</Time>
            <Position>
              <LatitudeDegrees>39.4291341863572597503662109375</LatitudeDegrees>
              <LongitudeDegrees>-6.3590553961694240570068359375</LongitudeDegrees>
            </Position>
            <AltitudeMeters>441.600006103515625</AltitudeMeters>
            <DistanceMeters>NAN</DistanceMeters>
          </Trackpoint>
          <Trackpoint>
            <Time>2019-10-09T07:38:16.000Z</Time>
            <Position>
              <LatitudeDegrees>39.429064281284809112548828125</LatitudeDegrees>
              <LongitudeDegrees>-6.35901574976742267608642578125</LongitudeDegrees>
            </Position>
            <AltitudeMeters>442.399993896484375</AltitudeMeters>
            <DistanceMeters>NAN</DistanceMeters>
          </Trackpoint>
          <Trackpoint>
            <Time>2019-10-09T07:38:17.000Z</Time>
            <Position>
              <LatitudeDegrees>39.42904190160334110260009765625</LatitudeDegrees>
              <LongitudeDegrees>-6.35900451801717281341552734375</LongitudeDegrees>
            </Position>
            <AltitudeMeters>442.79998779296875</AltitudeMeters>
            <DistanceMeters>NAN</DistanceMeters>
          </Trackpoint>
          <Trackpoint>
            <Time>2019-10-09T07:38:20.000Z</Time>
            <Position>
              <LatitudeDegrees>39.42898021079599857330322265625</LatitudeDegrees>
              <LongitudeDegrees>-6.35896210558712482452392578125</LongitudeDegrees>
            </Position>
            <AltitudeMeters>443.399993896484375</AltitudeMeters>
            <DistanceMeters>NAN</DistanceMeters>
          </Trackpoint>
          <Trackpoint>
            <Time>2019-10-09T07:38:22.000Z</Time>
            <Position>
              <LatitudeDegrees>39.42895322106778621673583984375</LatitudeDegrees>
              <LongitudeDegrees>-6.3589199446141719818115234375</LongitudeDegrees>
            </Position>
            <AltitudeMeters>443.79998779296875</AltitudeMeters>
            <DistanceMeters>NAN</DistanceMeters>
          </Trackpoint>
          <Trackpoint>
            <Time>2019-10-09T07:38:23.000Z</Time>
            <Position>
              <LatitudeDegrees>39.42894123494625091552734375</LatitudeDegrees>
              <LongitudeDegrees>-6.35889572091400623321533203125</LongitudeDegrees>
            </Position>
            <AltitudeMeters>444</AltitudeMeters>
            <DistanceMeters>NAN</DistanceMeters>
          </Trackpoint>
          <Trackpoint>
            <Time>2019-10-09T07:38:26.000Z</Time>
            <Position>
              <LatitudeDegrees>39.428899995982646942138671875</LatitudeDegrees>
              <LongitudeDegrees>-6.35883654467761516571044921875</LongitudeDegrees>
            </Position>
            <AltitudeMeters>444.79998779296875</AltitudeMeters>
            <DistanceMeters>NAN</DistanceMeters>
          </Trackpoint>
          <Trackpoint>
            <Time>2019-10-09T07:38:27.000Z</Time>
            <Position>
              <LatitudeDegrees>39.42889337427914142608642578125</LatitudeDegrees>
              <LongitudeDegrees>-6.35881123133003711700439453125</LongitudeDegrees>
            </Position>
            <AltitudeMeters>444.600006103515625</AltitudeMeters>
            <DistanceMeters>NAN</DistanceMeters>
          </Trackpoint>
          <Trackpoint>
            <Time>2019-10-09T07:38:28.000Z</Time>
            <Position>
              <LatitudeDegrees>39.428887255489826202392578125</LatitudeDegrees>
              <LongitudeDegrees>-6.35878491215407848358154296875</LongitudeDegrees>
            </Position>
            <AltitudeMeters>445</AltitudeMeters>
            <DistanceMeters>NAN</DistanceMeters>
          </Trackpoint>
          <Trackpoint>
            <Time>2019-10-09T07:38:31.000Z</Time>
            <Position>
              <LatitudeDegrees>39.4288600981235504150390625</LatitudeDegrees>
              <LongitudeDegrees>-6.35871835984289646148681640625</LongitudeDegrees>
            </Position>
            <AltitudeMeters>445.399993896484375</AltitudeMeters>
            <DistanceMeters>NAN</DistanceMeters>
          </Trackpoint>
          <Trackpoint>
            <Time>2019-10-09T07:38:33.000Z</Time>
            <Position>
              <LatitudeDegrees>39.42883034236729145050048828125</LatitudeDegrees>
              <LongitudeDegrees>-6.3586758635938167572021484375</LongitudeDegrees>
            </Position>
            <AltitudeMeters>446.20001220703125</AltitudeMeters>
            <DistanceMeters>NAN</DistanceMeters>
          </Trackpoint>
          <Trackpoint>
            <Time>2019-10-09T07:38:34.000Z</Time>
            <Position>
              <LatitudeDegrees>39.42881005816161632537841796875</LatitudeDegrees>
              <LongitudeDegrees>-6.35866136290132999420166015625</LongitudeDegrees>
            </Position>
            <AltitudeMeters>446.399993896484375</AltitudeMeters>
            <DistanceMeters>NAN</DistanceMeters>
          </Trackpoint>
          <Trackpoint>
            <Time>2019-10-09T07:38:38.000Z</Time>
            <Position>
              <LatitudeDegrees>39.42872439511120319366455078125</LatitudeDegrees>
              <LongitudeDegrees>-6.35862297378480434417724609375</LongitudeDegrees>
            </Position>
            <AltitudeMeters>447</AltitudeMeters>
            <DistanceMeters>NAN</DistanceMeters>
          </Trackpoint>
          <Trackpoint>
            <Time>2019-10-09T07:38:39.000Z</Time>
            <Position>
              <LatitudeDegrees>39.428699500858783721923828125</LatitudeDegrees>
              <LongitudeDegrees>-6.3586161844432353973388671875</LongitudeDegrees>
            </Position>
            <AltitudeMeters>447</AltitudeMeters>
            <DistanceMeters>NAN</DistanceMeters>
          </Trackpoint>
          <Trackpoint>
            <Time>2019-10-09T07:38:40.000Z</Time>
            <Position>
              <LatitudeDegrees>39.42867343313992023468017578125</LatitudeDegrees>
              <LongitudeDegrees>-6.35860922746360301971435546875</LongitudeDegrees>
            </Position>
            <AltitudeMeters>447.399993896484375</AltitudeMeters>
            <DistanceMeters>NAN</DistanceMeters>
          </Trackpoint>
          <Trackpoint>
            <Time>2019-10-09T07:38:45.000Z</Time>
            <Position>
              <LatitudeDegrees>39.42854753695428371429443359375</LatitudeDegrees>
              <LongitudeDegrees>-6.3585615344345569610595703125</LongitudeDegrees>
            </Position>
            <AltitudeMeters>448.399993896484375</AltitudeMeters>
            <DistanceMeters>NAN</DistanceMeters>
          </Trackpoint>
          <Trackpoint>
            <Time>2019-10-09T07:38:48.000Z</Time>
            <Position>
              <LatitudeDegrees>39.42847293801605701446533203125</LatitudeDegrees>
              <LongitudeDegrees>-6.3585407473146915435791015625</LongitudeDegrees>
            </Position>
            <AltitudeMeters>448</AltitudeMeters>
            <DistanceMeters>NAN</DistanceMeters>
          </Trackpoint>
          <Trackpoint>
            <Time>2019-10-09T07:38:56.000Z</Time>
            <Position>
              <LatitudeDegrees>39.4282611273229122161865234375</LatitudeDegrees>
              <LongitudeDegrees>-6.35851132683455944061279296875</LongitudeDegrees>
            </Position>
            <AltitudeMeters>449</AltitudeMeters>
            <DistanceMeters>NAN</DistanceMeters>
          </Trackpoint>
          <Trackpoint>
            <Time>2019-10-09T07:39:03.000Z</Time>
            <Position>
              <LatitudeDegrees>39.428075216710567474365234375</LatitudeDegrees>
              <LongitudeDegrees>-6.35851333849132061004638671875</LongitudeDegrees>
            </Position>
            <AltitudeMeters>449.399993896484375</AltitudeMeters>
            <DistanceMeters>NAN</DistanceMeters>
          </Trackpoint>
          <Trackpoint>
            <Time>2019-10-09T07:39:05.000Z</Time>
            <Position>
              <LatitudeDegrees>39.42802350036799907684326171875</LatitudeDegrees>
              <LongitudeDegrees>-6.358502693474292755126953125</LongitudeDegrees>
            </Position>
            <AltitudeMeters>449.399993896484375</AltitudeMeters>
            <DistanceMeters>NAN</DistanceMeters>
          </Trackpoint>
          <Trackpoint>
            <Time>2019-10-09T07:39:10.000Z</Time>
            <Position>
              <LatitudeDegrees>39.4278913177549839019775390625</LatitudeDegrees>
              <LongitudeDegrees>-6.35846271179616451263427734375</LongitudeDegrees>
            </Position>
            <AltitudeMeters>449</AltitudeMeters>
            <DistanceMeters>NAN</DistanceMeters>
          </Trackpoint>
          <Trackpoint>
            <Time>2019-10-09T07:39:16.000Z</Time>
            <Position>
              <LatitudeDegrees>39.4277344085276126861572265625</LatitudeDegrees>
              <LongitudeDegrees>-6.35845952667295932769775390625</LongitudeDegrees>
            </Position>
            <AltitudeMeters>449.600006103515625</AltitudeMeters>
            <DistanceMeters>NAN</DistanceMeters>
          </Trackpoint>
          <Trackpoint>
            <Time>2019-10-09T07:39:18.000Z</Time>
            <Position>
              <LatitudeDegrees>39.4276924990117549896240234375</LatitudeDegrees>
              <LongitudeDegrees>-6.35846807621419429779052734375</LongitudeDegrees>
            </Position>
            <AltitudeMeters>449.79998779296875</AltitudeMeters>
            <DistanceMeters>NAN</DistanceMeters>
          </Trackpoint>
          <Trackpoint>
            <Time>2019-10-09T07:39:22.000Z</Time>
            <Position>
              <LatitudeDegrees>39.42759049125015735626220703125</LatitudeDegrees>
              <LongitudeDegrees>-6.358477212488651275634765625</LongitudeDegrees>
            </Position>
            <AltitudeMeters>449.79998779296875</AltitudeMeters>
            <DistanceMeters>NAN</DistanceMeters>
          </Trackpoint>
          <Trackpoint>
            <Time>2019-10-09T07:39:25.000Z</Time>
            <Position>
              <LatitudeDegrees>39.42750616930425167083740234375</LatitudeDegrees>
              <LongitudeDegrees>-6.35848349891602993011474609375</LongitudeDegrees>
            </Position>
            <AltitudeMeters>449.399993896484375</AltitudeMeters>
            <DistanceMeters>NAN</DistanceMeters>
          </Trackpoint>
          <Trackpoint>
            <Time>2019-10-09T07:39:30.000Z</Time>
            <Position>
              <LatitudeDegrees>39.42736677825450897216796875</LatitudeDegrees>
              <LongitudeDegrees>-6.35851384140551090240478515625</LongitudeDegrees>
            </Position>
            <AltitudeMeters>449.79998779296875</AltitudeMeters>
            <DistanceMeters>NAN</DistanceMeters>
          </Trackpoint>
          <Trackpoint>
            <Time>2019-10-09T07:39:35.000Z</Time>
            <Position>
              <LatitudeDegrees>39.42723258398473262786865234375</LatitudeDegrees>
              <LongitudeDegrees>-6.35855055414140224456787109375</LongitudeDegrees>
            </Position>
            <AltitudeMeters>450.600006103515625</AltitudeMeters>
            <DistanceMeters>NAN</DistanceMeters>
          </Trackpoint>
          <Trackpoint>
            <Time>2019-10-09T07:39:37.000Z</Time>
            <Position>
              <LatitudeDegrees>39.4271771796047687530517578125</LatitudeDegrees>
              <LongitudeDegrees>-6.3585538230836391448974609375</LongitudeDegrees>
            </Position>
            <AltitudeMeters>450.399993896484375</AltitudeMeters>
            <DistanceMeters>NAN</DistanceMeters>
          </Trackpoint>
          <Trackpoint>
            <Time>2019-10-09T07:39:45.000Z</Time>
            <Position>
              <LatitudeDegrees>39.42696251906454563140869140625</LatitudeDegrees>
              <LongitudeDegrees>-6.358531527221202850341796875</LongitudeDegrees>
            </Position>
            <AltitudeMeters>451</AltitudeMeters>
            <DistanceMeters>NAN</DistanceMeters>
          </Trackpoint>
          <Trackpoint>
            <Time>2019-10-09T07:39:48.000Z</Time>
            <Position>
              <LatitudeDegrees>39.42688708193600177764892578125</LatitudeDegrees>
              <LongitudeDegrees>-6.358525492250919342041015625</LongitudeDegrees>
            </Position>
            <AltitudeMeters>451.600006103515625</AltitudeMeters>
            <DistanceMeters>NAN</DistanceMeters>
          </Trackpoint>
          <Trackpoint>
            <Time>2019-10-09T07:39:52.000Z</Time>
            <Position>
              <LatitudeDegrees>39.42679806612432003021240234375</LatitudeDegrees>
              <LongitudeDegrees>-6.35849959217011928558349609375</LongitudeDegrees>
            </Position>
            <AltitudeMeters>452.20001220703125</AltitudeMeters>
            <DistanceMeters>NAN</DistanceMeters>
          </Trackpoint>
          <Trackpoint>
            <Time>2019-10-09T07:39:56.000Z</Time>
            <Position>
              <LatitudeDegrees>39.4267170131206512451171875</LatitudeDegrees>
              <LongitudeDegrees>-6.35846103541553020477294921875</LongitudeDegrees>
            </Position>
            <AltitudeMeters>452.79998779296875</AltitudeMeters>
            <DistanceMeters>NAN</DistanceMeters>
          </Trackpoint>
          <Trackpoint>
            <Time>2019-10-09T07:39:58.000Z</Time>
            <Position>
              <LatitudeDegrees>39.4266752712428569793701171875</LatitudeDegrees>
              <LongitudeDegrees>-6.35844938457012176513671875</LongitudeDegrees>
            </Position>
            <AltitudeMeters>453</AltitudeMeters>
            <DistanceMeters>NAN</DistanceMeters>
          </Trackpoint>
          <Trackpoint>
            <Time>2019-10-09T07:40:03.000Z</Time>
            <Position>
              <LatitudeDegrees>39.42656672559678554534912109375</LatitudeDegrees>
              <LongitudeDegrees>-6.3583938963711261749267578125</LongitudeDegrees>
            </Position>
            <AltitudeMeters>453.399993896484375</AltitudeMeters>
            <DistanceMeters>NAN</DistanceMeters>
          </Trackpoint>
          <Trackpoint>
            <Time>2019-10-09T07:40:05.000Z</Time>
            <Position>
              <LatitudeDegrees>39.4265212118625640869140625</LatitudeDegrees>
              <LongitudeDegrees>-6.3583667390048503875732421875</LongitudeDegrees>
            </Position>
            <AltitudeMeters>454</AltitudeMeters>
            <DistanceMeters>NAN</DistanceMeters>
          </Trackpoint>
          <Trackpoint>
            <Time>2019-10-09T07:40:10.000Z</Time>
            <Position>
              <LatitudeDegrees>39.42642255686223506927490234375</LatitudeDegrees>
              <LongitudeDegrees>-6.35828367434442043304443359375</LongitudeDegrees>
            </Position>
            <AltitudeMeters>455</AltitudeMeters>
            <DistanceMeters>NAN</DistanceMeters>
          </Trackpoint>
          <Trackpoint>
            <Time>2019-10-09T07:40:12.000Z</Time>
            <Position>
              <LatitudeDegrees>39.426376707851886749267578125</LatitudeDegrees>
              <LongitudeDegrees>-6.3582581095397472381591796875</LongitudeDegrees>
            </Position>
            <AltitudeMeters>455</AltitudeMeters>
            <DistanceMeters>NAN</DistanceMeters>
          </Trackpoint>
          <Trackpoint>
            <Time>2019-10-09T07:40:17.000Z</Time>
            <Position>
              <LatitudeDegrees>39.42624553106725215911865234375</LatitudeDegrees>
              <LongitudeDegrees>-6.3581675849854946136474609375</LongitudeDegrees>
            </Position>
            <AltitudeMeters>455</AltitudeMeters>
            <DistanceMeters>NAN</DistanceMeters>
          </Trackpoint>
          <Trackpoint>
            <Time>2019-10-09T07:40:23.000Z</Time>
            <Position>
              <LatitudeDegrees>39.426061548292636871337890625</LatitudeDegrees>
              <LongitudeDegrees>-6.35804462246596813201904296875</LongitudeDegrees>
            </Position>
            <AltitudeMeters>454</AltitudeMeters>
            <DistanceMeters>NAN</DistanceMeters>
          </Trackpoint>
          <Trackpoint>
            <Time>2019-10-09T07:40:26.000Z</Time>
            <Position>
              <LatitudeDegrees>39.425956271588802337646484375</LatitudeDegrees>
              <LongitudeDegrees>-6.358017884194850921630859375</LongitudeDegrees>
            </Position>
            <AltitudeMeters>453.399993896484375</AltitudeMeters>
            <DistanceMeters>NAN</DistanceMeters>
          </Trackpoint>
          <Trackpoint>
            <Time>2019-10-09T07:40:27.000Z</Time>
            <Position>
              <LatitudeDegrees>39.4259249232709407806396484375</LatitudeDegrees>
              <LongitudeDegrees>-6.358012519776821136474609375</LongitudeDegrees>
            </Position>
            <AltitudeMeters>453</AltitudeMeters>
            <DistanceMeters>NAN</DistanceMeters>
          </Trackpoint>
          <Trackpoint>
            <Time>2019-10-09T07:40:28.000Z</Time>
            <Position>
              <LatitudeDegrees>39.42589215002954006195068359375</LatitudeDegrees>
              <LongitudeDegrees>-6.358004473149776458740234375</LongitudeDegrees>
            </Position>
            <AltitudeMeters>453</AltitudeMeters>
            <DistanceMeters>NAN</DistanceMeters>
          </Trackpoint>
          <Trackpoint>
            <Time>2019-10-09T07:40:33.000Z</Time>
            <Position>
              <LatitudeDegrees>39.42575803957879543304443359375</LatitudeDegrees>
              <LongitudeDegrees>-6.3580240868031978607177734375</LongitudeDegrees>
            </Position>
            <AltitudeMeters>451.79998779296875</AltitudeMeters>
            <DistanceMeters>NAN</DistanceMeters>
          </Trackpoint>
          <Trackpoint>
            <Time>2019-10-09T07:40:34.000Z</Time>
            <Position>
              <LatitudeDegrees>39.425730966031551361083984375</LatitudeDegrees>
              <LongitudeDegrees>-6.35802090167999267578125</LongitudeDegrees>
            </Position>
            <AltitudeMeters>451.79998779296875</AltitudeMeters>
            <DistanceMeters>NAN</DistanceMeters>
          </Trackpoint>
          <Trackpoint>
            <Time>2019-10-09T07:40:36.000Z</Time>
            <Position>
              <LatitudeDegrees>39.4256687723100185394287109375</LatitudeDegrees>
              <LongitudeDegrees>-6.3579865358769893646240234375</LongitudeDegrees>
            </Position>
            <AltitudeMeters>451.20001220703125</AltitudeMeters>
            <DistanceMeters>NAN</DistanceMeters>
          </Trackpoint>
          <Trackpoint>
            <Time>2019-10-09T07:40:38.000Z</Time>
            <Position>
              <LatitudeDegrees>39.4256038963794708251953125</LatitudeDegrees>
              <LongitudeDegrees>-6.35793079622089862823486328125</LongitudeDegrees>
            </Position>
            <AltitudeMeters>450.600006103515625</AltitudeMeters>
            <DistanceMeters>NAN</DistanceMeters>
          </Trackpoint>
          <Trackpoint>
            <Time>2019-10-09T07:40:41.000Z</Time>
            <Position>
              <LatitudeDegrees>39.42552016116678714752197265625</LatitudeDegrees>
              <LongitudeDegrees>-6.357851922512054443359375</LongitudeDegrees>
            </Position>
            <AltitudeMeters>449.79998779296875</AltitudeMeters>
            <DistanceMeters>NAN</DistanceMeters>
          </Trackpoint>
          <Trackpoint>
            <Time>2019-10-09T07:40:42.000Z</Time>
            <Position>
              <LatitudeDegrees>39.42548923194408416748046875</LatitudeDegrees>
              <LongitudeDegrees>-6.35783323086798191070556640625</LongitudeDegrees>
            </Position>
            <AltitudeMeters>449.600006103515625</AltitudeMeters>
            <DistanceMeters>NAN</DistanceMeters>
          </Trackpoint>
          <Trackpoint>
            <Time>2019-10-09T07:40:44.000Z</Time>
            <Position>
              <LatitudeDegrees>39.4254193268716335296630859375</LatitudeDegrees>
              <LongitudeDegrees>-6.35779852978885173797607421875</LongitudeDegrees>
            </Position>
            <AltitudeMeters>449.399993896484375</AltitudeMeters>
            <DistanceMeters>NAN</DistanceMeters>
          </Trackpoint>
          <Trackpoint>
            <Time>2019-10-09T07:40:46.000Z</Time>
            <Position>
              <LatitudeDegrees>39.42533827386796474456787109375</LatitudeDegrees>
              <LongitudeDegrees>-6.35775142349302768707275390625</LongitudeDegrees>
            </Position>
            <AltitudeMeters>448.79998779296875</AltitudeMeters>
            <DistanceMeters>NAN</DistanceMeters>
          </Trackpoint>
          <Trackpoint>
            <Time>2019-10-09T07:40:47.000Z</Time>
            <Position>
              <LatitudeDegrees>39.42529787309467792510986328125</LatitudeDegrees>
              <LongitudeDegrees>-6.357727535068988800048828125</LongitudeDegrees>
            </Position>
            <AltitudeMeters>448</AltitudeMeters>
            <DistanceMeters>NAN</DistanceMeters>
          </Trackpoint>
          <Trackpoint>
            <Time>2019-10-09T07:40:52.000Z</Time>
            <Position>
              <LatitudeDegrees>39.4250810332596302032470703125</LatitudeDegrees>
              <LongitudeDegrees>-6.357635669410228729248046875</LongitudeDegrees>
            </Position>
            <AltitudeMeters>447.79998779296875</AltitudeMeters>
            <DistanceMeters>NAN</DistanceMeters>
          </Trackpoint>
          <Trackpoint>
            <Time>2019-10-09T07:40:58.000Z</Time>
            <Position>
              <LatitudeDegrees>39.42483586259186267852783203125</LatitudeDegrees>
              <LongitudeDegrees>-6.35754589922726154327392578125</LongitudeDegrees>
            </Position>
            <AltitudeMeters>447.600006103515625</AltitudeMeters>
            <DistanceMeters>NAN</DistanceMeters>
          </Trackpoint>
          <Trackpoint>
            <Time>2019-10-09T07:40:59.000Z</Time>
            <Position>
              <LatitudeDegrees>39.4247990660369396209716796875</LatitudeDegrees>
              <LongitudeDegrees>-6.35753282345831394195556640625</LongitudeDegrees>
            </Position>
            <AltitudeMeters>447.20001220703125</AltitudeMeters>
            <DistanceMeters>NAN</DistanceMeters>
          </Trackpoint>
          <Trackpoint>
            <Time>2019-10-09T07:41:03.000Z</Time>
            <Position>
              <LatitudeDegrees>39.42467107437551021575927734375</LatitudeDegrees>
              <LongitudeDegrees>-6.35744112543761730194091796875</LongitudeDegrees>
            </Position>
            <AltitudeMeters>447.600006103515625</AltitudeMeters>
            <DistanceMeters>NAN</DistanceMeters>
          </Trackpoint>
          <Trackpoint>
            <Time>2019-10-09T07:41:04.000Z</Time>
            <Position>
              <LatitudeDegrees>39.4246471859514713287353515625</LatitudeDegrees>
              <LongitudeDegrees>-6.3574101962149143218994140625</LongitudeDegrees>
            </Position>
            <AltitudeMeters>447.399993896484375</AltitudeMeters>
            <DistanceMeters>NAN</DistanceMeters>
          </Trackpoint>
          <Trackpoint>
            <Time>2019-10-09T07:41:08.000Z</Time>
            <Position>
              <LatitudeDegrees>39.42454450763761997222900390625</LatitudeDegrees>
              <LongitudeDegrees>-6.35734875686466693878173828125</LongitudeDegrees>
            </Position>
            <AltitudeMeters>447.79998779296875</AltitudeMeters>
            <DistanceMeters>NAN</DistanceMeters>
          </Trackpoint>
          <Trackpoint>
            <Time>2019-10-09T07:41:12.000Z</Time>
            <Position>
              <LatitudeDegrees>39.42441911436617374420166015625</LatitudeDegrees>
              <LongitudeDegrees>-6.35730885900557041168212890625</LongitudeDegrees>
            </Position>
            <AltitudeMeters>447.600006103515625</AltitudeMeters>
            <DistanceMeters>NAN</DistanceMeters>
          </Trackpoint>
          <Trackpoint>
            <Time>2019-10-09T07:41:13.000Z</Time>
            <Position>
              <LatitudeDegrees>39.42439095117151737213134765625</LatitudeDegrees>
              <LongitudeDegrees>-6.35729067027568817138671875</LongitudeDegrees>
            </Position>
            <AltitudeMeters>447.399993896484375</AltitudeMeters>
            <DistanceMeters>NAN</DistanceMeters>
          </Trackpoint>
          <Trackpoint>
            <Time>2019-10-09T07:41:18.000Z</Time>
            <Position>
              <LatitudeDegrees>39.4242445193231105804443359375</LatitudeDegrees>
              <LongitudeDegrees>-6.35724029503762722015380859375</LongitudeDegrees>
            </Position>
            <AltitudeMeters>447.20001220703125</AltitudeMeters>
            <DistanceMeters>NAN</DistanceMeters>
          </Trackpoint>
          <Trackpoint>
            <Time>2019-10-09T07:41:22.000Z</Time>
            <Position>
              <LatitudeDegrees>39.424118958413600921630859375</LatitudeDegrees>
              <LongitudeDegrees>-6.35719469748437404632568359375</LongitudeDegrees>
            </Position>
            <AltitudeMeters>447</AltitudeMeters>
            <DistanceMeters>NAN</DistanceMeters>
          </Trackpoint>
          <Trackpoint>
            <Time>2019-10-09T07:41:24.000Z</Time>
            <Position>
              <LatitudeDegrees>39.4240601174533367156982421875</LatitudeDegrees>
              <LongitudeDegrees>-6.3571657799184322357177734375</LongitudeDegrees>
            </Position>
            <AltitudeMeters>447.20001220703125</AltitudeMeters>
            <DistanceMeters>NAN</DistanceMeters>
          </Trackpoint>
          <Trackpoint>
            <Time>2019-10-09T07:41:27.000Z</Time>
            <Position>
              <LatitudeDegrees>39.42396867088973522186279296875</LatitudeDegrees>
              <LongitudeDegrees>-6.35713485069572925567626953125</LongitudeDegrees>
            </Position>
            <AltitudeMeters>447.399993896484375</AltitudeMeters>
            <DistanceMeters>NAN</DistanceMeters>
          </Trackpoint>
          <Trackpoint>
            <Time>2019-10-09T07:41:30.000Z</Time>
            <Position>
              <LatitudeDegrees>39.42387093789875507354736328125</LatitudeDegrees>
              <LongitudeDegrees>-6.35711724869906902313232421875</LongitudeDegrees>
            </Position>
            <AltitudeMeters>446.79998779296875</AltitudeMeters>
            <DistanceMeters>NAN</DistanceMeters>
          </Trackpoint>
          <Trackpoint>
            <Time>2019-10-09T07:41:36.000Z</Time>
            <Position>
              <LatitudeDegrees>39.42368142306804656982421875</LatitudeDegrees>
              <LongitudeDegrees>-6.35704985819756984710693359375</LongitudeDegrees>
            </Position>
            <AltitudeMeters>446.79998779296875</AltitudeMeters>
            <DistanceMeters>NAN</DistanceMeters>
          </Trackpoint>
          <Trackpoint>
            <Time>2019-10-09T07:41:41.000Z</Time>
            <Position>
              <LatitudeDegrees>39.423533566296100616455078125</LatitudeDegrees>
              <LongitudeDegrees>-6.356990598142147064208984375</LongitudeDegrees>
            </Position>
            <AltitudeMeters>446.600006103515625</AltitudeMeters>
            <DistanceMeters>NAN</DistanceMeters>
          </Trackpoint>
          <Trackpoint>
            <Time>2019-10-09T07:41:48.000Z</Time>
            <Position>
              <LatitudeDegrees>39.4233124516904354095458984375</LatitudeDegrees>
              <LongitudeDegrees>-6.35692697949707508087158203125</LongitudeDegrees>
            </Position>
            <AltitudeMeters>446.79998779296875</AltitudeMeters>
            <DistanceMeters>NAN</DistanceMeters>
          </Trackpoint>
          <Trackpoint>
            <Time>2019-10-09T07:41:53.000Z</Time>
            <Position>
              <LatitudeDegrees>39.4231545366346836090087890625</LatitudeDegrees>
              <LongitudeDegrees>-6.3568737544119358062744140625</LongitudeDegrees>
            </Position>
            <AltitudeMeters>447.20001220703125</AltitudeMeters>
            <DistanceMeters>NAN</DistanceMeters>
          </Trackpoint>
          <Trackpoint>
            <Time>2019-10-09T07:41:59.000Z</Time>
            <Position>
              <LatitudeDegrees>39.422976672649383544921875</LatitudeDegrees>
              <LongitudeDegrees>-6.35679622180759906768798828125</LongitudeDegrees>
            </Position>
            <AltitudeMeters>447.600006103515625</AltitudeMeters>
            <DistanceMeters>NAN</DistanceMeters>
          </Trackpoint>
          <Trackpoint>
            <Time>2019-10-09T07:42:02.000Z</Time>
            <Position>
              <LatitudeDegrees>39.4229114614427089691162109375</LatitudeDegrees>
              <LongitudeDegrees>-6.35676587931811809539794921875</LongitudeDegrees>
            </Position>
            <AltitudeMeters>448.399993896484375</AltitudeMeters>
            <DistanceMeters>NAN</DistanceMeters>
          </Trackpoint>
          <Trackpoint>
            <Time>2019-10-09T07:42:03.000Z</Time>
            <Position>
              <LatitudeDegrees>39.42289528436958789825439453125</LatitudeDegrees>
              <LongitudeDegrees>-6.35676763951778411865234375</LongitudeDegrees>
            </Position>
            <AltitudeMeters>449</AltitudeMeters>
            <DistanceMeters>NAN</DistanceMeters>
          </Trackpoint>
          <Trackpoint>
            <Time>2019-10-09T07:42:04.000Z</Time>
            <Position>
              <LatitudeDegrees>39.422877766191959381103515625</LatitudeDegrees>
              <LongitudeDegrees>-6.356772668659687042236328125</LongitudeDegrees>
            </Position>
            <AltitudeMeters>448.79998779296875</AltitudeMeters>
            <DistanceMeters>NAN</DistanceMeters>
          </Trackpoint>
          <Trackpoint>
            <Time>2019-10-09T07:42:07.000Z</Time>
            <Position>
              <LatitudeDegrees>39.42282085306942462921142578125</LatitudeDegrees>
              <LongitudeDegrees>-6.35678415186703205108642578125</LongitudeDegrees>
            </Position>
            <AltitudeMeters>449.399993896484375</AltitudeMeters>
            <DistanceMeters>NAN</DistanceMeters>
          </Trackpoint>
          <Trackpoint>
            <Time>2019-10-09T07:42:09.000Z</Time>
            <Position>
              <LatitudeDegrees>39.42277885973453521728515625</LatitudeDegrees>
              <LongitudeDegrees>-6.35679152794182300567626953125</LongitudeDegrees>
            </Position>
            <AltitudeMeters>449.600006103515625</AltitudeMeters>
            <DistanceMeters>NAN</DistanceMeters>
          </Trackpoint>
          <Trackpoint>
            <Time>2019-10-09T07:42:10.000Z</Time>
            <Position>
              <LatitudeDegrees>39.422744996845722198486328125</LatitudeDegrees>
              <LongitudeDegrees>-6.356801502406597137451171875</LongitudeDegrees>
            </Position>
            <AltitudeMeters>449.20001220703125</AltitudeMeters>
            <DistanceMeters>NAN</DistanceMeters>
          </Trackpoint>
          <Trackpoint>
            <Time>2019-10-09T07:42:12.000Z</Time>
            <Position>
              <LatitudeDegrees>39.42267601378262042999267578125</LatitudeDegrees>
              <LongitudeDegrees>-6.3567778654396533966064453125</LongitudeDegrees>
            </Position>
            <AltitudeMeters>449.20001220703125</AltitudeMeters>
            <DistanceMeters>NAN</DistanceMeters>
          </Trackpoint>
          <Trackpoint>
            <Time>2019-10-09T07:42:13.000Z</Time>
            <Position>
              <LatitudeDegrees>39.42264734767377376556396484375</LatitudeDegrees>
              <LongitudeDegrees>-6.35675012134015560150146484375</LongitudeDegrees>
            </Position>
            <AltitudeMeters>449.399993896484375</AltitudeMeters>
            <DistanceMeters>NAN</DistanceMeters>
          </Trackpoint>
          <Trackpoint>
            <Time>2019-10-09T07:42:19.000Z</Time>
            <Position>
              <LatitudeDegrees>39.42250368185341358184814453125</LatitudeDegrees>
              <LongitudeDegrees>-6.35655968450009822845458984375</LongitudeDegrees>
            </Position>
            <AltitudeMeters>449.79998779296875</AltitudeMeters>
            <DistanceMeters>NAN</DistanceMeters>
          </Trackpoint>
          <Trackpoint>
            <Time>2019-10-09T07:42:20.000Z</Time>
            <Position>
              <LatitudeDegrees>39.4224699027836322784423828125</LatitudeDegrees>
              <LongitudeDegrees>-6.356525234878063201904296875</LongitudeDegrees>
            </Position>
            <AltitudeMeters>449.79998779296875</AltitudeMeters>
            <DistanceMeters>NAN</DistanceMeters>
          </Trackpoint>
          <Trackpoint>
            <Time>2019-10-09T07:42:29.000Z</Time>
            <Position>
              <LatitudeDegrees>39.4221363030374050140380859375</LatitudeDegrees>
              <LongitudeDegrees>-6.3562196306884288787841796875</LongitudeDegrees>
            </Position>
            <AltitudeMeters>449.79998779296875</AltitudeMeters>
            <DistanceMeters>NAN</DistanceMeters>
          </Trackpoint>
          <Trackpoint>
            <Time>2019-10-09T07:42:38.000Z</Time>
            <Position>
              <LatitudeDegrees>39.421768002212047576904296875</LatitudeDegrees>
              <LongitudeDegrees>-6.3559649884700775146484375</LongitudeDegrees>
            </Position>
            <AltitudeMeters>449.79998779296875</AltitudeMeters>
            <DistanceMeters>NAN</DistanceMeters>
          </Trackpoint>
          <Trackpoint>
            <Time>2019-10-09T07:42:47.000Z</Time>
            <Position>
              <LatitudeDegrees>39.421361982822418212890625</LatitudeDegrees>
              <LongitudeDegrees>-6.35578687302768230438232421875</LongitudeDegrees>
            </Position>
            <AltitudeMeters>449.79998779296875</AltitudeMeters>
            <DistanceMeters>NAN</DistanceMeters>
          </Trackpoint>
          <Trackpoint>
            <Time>2019-10-09T07:42:53.000Z</Time>
            <Position>
              <LatitudeDegrees>39.4210966117680072784423828125</LatitudeDegrees>
              <LongitudeDegrees>-6.35571219027042388916015625</LongitudeDegrees>
            </Position>
            <AltitudeMeters>450.600006103515625</AltitudeMeters>
            <DistanceMeters>NAN</DistanceMeters>
          </Trackpoint>
          <Trackpoint>
            <Time>2019-10-09T07:42:56.000Z</Time>
            <Position>
              <LatitudeDegrees>39.420964680612087249755859375</LatitudeDegrees>
              <LongitudeDegrees>-6.3556798361241817474365234375</LongitudeDegrees>
            </Position>
            <AltitudeMeters>450.399993896484375</AltitudeMeters>
            <DistanceMeters>NAN</DistanceMeters>
          </Trackpoint>
          <Trackpoint>
            <Time>2019-10-09T07:43:05.000Z</Time>
            <Position>
              <LatitudeDegrees>39.420570395886898040771484375</LatitudeDegrees>
              <LongitudeDegrees>-6.35560364462435245513916015625</LongitudeDegrees>
            </Position>
            <AltitudeMeters>451.79998779296875</AltitudeMeters>
            <DistanceMeters>NAN</DistanceMeters>
          </Trackpoint>
          <Trackpoint>
            <Time>2019-10-09T07:43:09.000Z</Time>
            <Position>
              <LatitudeDegrees>39.42038993351161479949951171875</LatitudeDegrees>
              <LongitudeDegrees>-6.35557967238128185272216796875</LongitudeDegrees>
            </Position>
            <AltitudeMeters>452</AltitudeMeters>
            <DistanceMeters>NAN</DistanceMeters>
          </Trackpoint>
          <Trackpoint>
            <Time>2019-10-09T07:43:14.000Z</Time>
            <Position>
              <LatitudeDegrees>39.420163370668888092041015625</LatitudeDegrees>
              <LongitudeDegrees>-6.35554648004472255706787109375</LongitudeDegrees>
            </Position>
            <AltitudeMeters>452.399993896484375</AltitudeMeters>
            <DistanceMeters>NAN</DistanceMeters>
          </Trackpoint>
          <Trackpoint>
            <Time>2019-10-09T07:43:23.000Z</Time>
            <Position>
              <LatitudeDegrees>39.41974117420613765716552734375</LatitudeDegrees>
              <LongitudeDegrees>-6.35549216531217098236083984375</LongitudeDegrees>
            </Position>
            <AltitudeMeters>452.600006103515625</AltitudeMeters>
            <DistanceMeters>NAN</DistanceMeters>
          </Trackpoint>
          <Trackpoint>
            <Time>2019-10-09T07:43:32.000Z</Time>
            <Position>
              <LatitudeDegrees>39.41931587643921375274658203125</LatitudeDegrees>
              <LongitudeDegrees>-6.355459392070770263671875</LongitudeDegrees>
            </Position>
            <AltitudeMeters>452.399993896484375</AltitudeMeters>
            <DistanceMeters>NAN</DistanceMeters>
          </Trackpoint>
          <Trackpoint>
            <Time>2019-10-09T07:43:33.000Z</Time>
            <Position>
              <LatitudeDegrees>39.41927731968462467193603515625</LatitudeDegrees>
              <LongitudeDegrees>-6.3554585538804531097412109375</LongitudeDegrees>
            </Position>
            <AltitudeMeters>452.399993896484375</AltitudeMeters>
            <DistanceMeters>NAN</DistanceMeters>
          </Trackpoint>
          <Trackpoint>
            <Time>2019-10-09T07:43:35.000Z</Time>
            <Position>
              <LatitudeDegrees>39.419232644140720367431640625</LatitudeDegrees>
              <LongitudeDegrees>-6.35545897297561168670654296875</LongitudeDegrees>
            </Position>
            <AltitudeMeters>452.600006103515625</AltitudeMeters>
            <DistanceMeters>NAN</DistanceMeters>
          </Trackpoint>
          <Trackpoint>
            <Time>2019-10-09T07:43:36.000Z</Time>
            <Position>
              <LatitudeDegrees>39.41923566162586212158203125</LatitudeDegrees>
              <LongitudeDegrees>-6.35545847006142139434814453125</LongitudeDegrees>
            </Position>
            <AltitudeMeters>452.600006103515625</AltitudeMeters>
            <DistanceMeters>NAN</DistanceMeters>
          </Trackpoint>
          <Trackpoint>
            <Time>2019-10-09T07:43:39.000Z</Time>
            <Position>
              <LatitudeDegrees>39.4192291237413883209228515625</LatitudeDegrees>
              <LongitudeDegrees>-6.3554592244327068328857421875</LongitudeDegrees>
            </Position>
            <AltitudeMeters>452.79998779296875</AltitudeMeters>
            <DistanceMeters>NAN</DistanceMeters>
          </Trackpoint>
          <Trackpoint>
            <Time>2019-10-09T07:43:44.000Z</Time>
            <Position>
              <LatitudeDegrees>39.419215880334377288818359375</LatitudeDegrees>
              <LongitudeDegrees>-6.3554580509662628173828125</LongitudeDegrees>
            </Position>
            <AltitudeMeters>452.600006103515625</AltitudeMeters>
            <DistanceMeters>NAN</DistanceMeters>
          </Trackpoint>
          <Trackpoint>
            <Time>2019-10-09T07:43:45.000Z</Time>
            <Position>
              <LatitudeDegrees>39.419200122356414794921875</LatitudeDegrees>
              <LongitudeDegrees>-6.35545469820499420166015625</LongitudeDegrees>
            </Position>
            <AltitudeMeters>452.600006103515625</AltitudeMeters>
            <DistanceMeters>NAN</DistanceMeters>
          </Trackpoint>
          <Trackpoint>
            <Time>2019-10-09T07:43:49.000Z</Time>
            <Position>
              <LatitudeDegrees>39.41907548345625400543212890625</LatitudeDegrees>
              <LongitudeDegrees>-6.35545126162469387054443359375</LongitudeDegrees>
            </Position>
            <AltitudeMeters>452.20001220703125</AltitudeMeters>
            <DistanceMeters>NAN</DistanceMeters>
          </Trackpoint>
          <Trackpoint>
            <Time>2019-10-09T07:43:57.000Z</Time>
            <Position>
              <LatitudeDegrees>39.4187459908425807952880859375</LatitudeDegrees>
              <LongitudeDegrees>-6.3554468192160129547119140625</LongitudeDegrees>
            </Position>
            <AltitudeMeters>452.20001220703125</AltitudeMeters>
            <DistanceMeters>NAN</DistanceMeters>
          </Trackpoint>
          <Trackpoint>
            <Time>2019-10-09T07:43:59.000Z</Time>
            <Position>
              <LatitudeDegrees>39.4186581484973430633544921875</LatitudeDegrees>
              <LongitudeDegrees>-6.35544891469180583953857421875</LongitudeDegrees>
            </Position>
            <AltitudeMeters>452</AltitudeMeters>
            <DistanceMeters>NAN</DistanceMeters>
          </Trackpoint>
          <Trackpoint>
            <Time>2019-10-09T07:44:02.000Z</Time>
            <Position>
              <LatitudeDegrees>39.41852814517915248870849609375</LatitudeDegrees>
              <LongitudeDegrees>-6.3554500043392181396484375</LongitudeDegrees>
            </Position>
            <AltitudeMeters>451.79998779296875</AltitudeMeters>
            <DistanceMeters>NAN</DistanceMeters>
          </Trackpoint>
          <Trackpoint>
            <Time>2019-10-09T07:44:04.000Z</Time>
            <Position>
              <LatitudeDegrees>39.41844306886196136474609375</LatitudeDegrees>
              <LongitudeDegrees>-6.35544824413955211639404296875</LongitudeDegrees>
            </Position>
            <AltitudeMeters>451.79998779296875</AltitudeMeters>
            <DistanceMeters>NAN</DistanceMeters>
          </Trackpoint>
          <Trackpoint>
            <Time>2019-10-09T07:44:06.000Z</Time>
            <Position>
              <LatitudeDegrees>39.4183600880205631256103515625</LatitudeDegrees>
              <LongitudeDegrees>-6.3554501719772815704345703125</LongitudeDegrees>
            </Position>
            <AltitudeMeters>452</AltitudeMeters>
            <DistanceMeters>NAN</DistanceMeters>
          </Trackpoint>
          <Trackpoint>
            <Time>2019-10-09T07:44:07.000Z</Time>
            <Position>
              <LatitudeDegrees>39.418319351971149444580078125</LatitudeDegrees>
              <LongitudeDegrees>-6.35545025579631328582763671875</LongitudeDegrees>
            </Position>
            <AltitudeMeters>452.20001220703125</AltitudeMeters>
            <DistanceMeters>NAN</DistanceMeters>
          </Trackpoint>
          <Trackpoint>
            <Time>2019-10-09T07:44:08.000Z</Time>
            <Position>
              <LatitudeDegrees>39.4182823039591312408447265625</LatitudeDegrees>
              <LongitudeDegrees>-6.3554505072534084320068359375</LongitudeDegrees>
            </Position>
            <AltitudeMeters>452</AltitudeMeters>
            <DistanceMeters>NAN</DistanceMeters>
          </Trackpoint>
          <Trackpoint>
            <Time>2019-10-09T07:44:09.000Z</Time>
            <Position>
              <LatitudeDegrees>39.41824860870838165283203125</LatitudeDegrees>
              <LongitudeDegrees>-6.35545377619564533233642578125</LongitudeDegrees>
            </Position>
            <AltitudeMeters>451.79998779296875</AltitudeMeters>
            <DistanceMeters>NAN</DistanceMeters>
          </Trackpoint>
          <Trackpoint>
            <Time>2019-10-09T07:44:11.000Z</Time>
            <Position>
              <LatitudeDegrees>39.418180882930755615234375</LatitudeDegrees>
              <LongitudeDegrees>-6.3554607331752777099609375</LongitudeDegrees>
            </Position>
            <AltitudeMeters>451.600006103515625</AltitudeMeters>
            <DistanceMeters>NAN</DistanceMeters>
          </Trackpoint>
          <Trackpoint>
            <Time>2019-10-09T07:44:14.000Z</Time>
            <Position>
              <LatitudeDegrees>39.41810972057282924652099609375</LatitudeDegrees>
              <LongitudeDegrees>-6.3554629124701023101806640625</LongitudeDegrees>
            </Position>
            <AltitudeMeters>451.399993896484375</AltitudeMeters>
            <DistanceMeters>NAN</DistanceMeters>
          </Trackpoint>
          <Trackpoint>
            <Time>2019-10-09T07:44:15.000Z</Time>
            <Position>
              <LatitudeDegrees>39.41811382770538330078125</LatitudeDegrees>
              <LongitudeDegrees>-6.35546215809881687164306640625</LongitudeDegrees>
            </Position>
            <AltitudeMeters>451.399993896484375</AltitudeMeters>
            <DistanceMeters>NAN</DistanceMeters>
          </Trackpoint>
          <Trackpoint>
            <Time>2019-10-09T07:44:19.000Z</Time>
            <Position>
              <LatitudeDegrees>39.41810804419219493865966796875</LatitudeDegrees>
              <LongitudeDegrees>-6.3554639182984828948974609375</LongitudeDegrees>
            </Position>
            <AltitudeMeters>451.600006103515625</AltitudeMeters>
            <DistanceMeters>NAN</DistanceMeters>
          </Trackpoint>
          <Trackpoint>
            <Time>2019-10-09T07:44:20.000Z</Time>
            <Position>
              <LatitudeDegrees>39.41810804419219493865966796875</LatitudeDegrees>
              <LongitudeDegrees>-6.3554639182984828948974609375</LongitudeDegrees>
            </Position>
            <AltitudeMeters>451.399993896484375</AltitudeMeters>
            <DistanceMeters>NAN</DistanceMeters>
          </Trackpoint>
          <Trackpoint>
            <Time>2019-10-09T07:44:21.000Z</Time>
            <Position>
              <LatitudeDegrees>39.41810804419219493865966796875</LatitudeDegrees>
              <LongitudeDegrees>-6.3554639182984828948974609375</LongitudeDegrees>
            </Position>
            <AltitudeMeters>451.399993896484375</AltitudeMeters>
            <DistanceMeters>NAN</DistanceMeters>
          </Trackpoint>
          <Trackpoint>
            <Time>2019-10-09T07:44:23.000Z</Time>
            <Position>
              <LatitudeDegrees>39.41810804419219493865966796875</LatitudeDegrees>
              <LongitudeDegrees>-6.3554639182984828948974609375</LongitudeDegrees>
            </Position>
            <AltitudeMeters>451.600006103515625</AltitudeMeters>
            <DistanceMeters>NAN</DistanceMeters>
          </Trackpoint>
          <Trackpoint>
            <Time>2019-10-09T07:44:24.000Z</Time>
            <Position>
              <LatitudeDegrees>39.41810804419219493865966796875</LatitudeDegrees>
              <LongitudeDegrees>-6.3554639182984828948974609375</LongitudeDegrees>
            </Position>
            <AltitudeMeters>451.600006103515625</AltitudeMeters>
            <DistanceMeters>NAN</DistanceMeters>
          </Trackpoint>
          <Trackpoint>
            <Time>2019-10-09T07:44:25.000Z</Time>
            <Position>
              <LatitudeDegrees>39.41810804419219493865966796875</LatitudeDegrees>
              <LongitudeDegrees>-6.3554639182984828948974609375</LongitudeDegrees>
            </Position>
            <AltitudeMeters>451.600006103515625</AltitudeMeters>
            <DistanceMeters>NAN</DistanceMeters>
          </Trackpoint>
          <Trackpoint>
            <Time>2019-10-09T07:44:28.000Z</Time>
            <Position>
              <LatitudeDegrees>39.41810804419219493865966796875</LatitudeDegrees>
              <LongitudeDegrees>-6.3554639182984828948974609375</LongitudeDegrees>
            </Position>
            <AltitudeMeters>451.399993896484375</AltitudeMeters>
            <DistanceMeters>NAN</DistanceMeters>
          </Trackpoint>
          <Trackpoint>
            <Time>2019-10-09T07:44:37.000Z</Time>
            <Position>
              <LatitudeDegrees>39.41810804419219493865966796875</LatitudeDegrees>
              <LongitudeDegrees>-6.3554639182984828948974609375</LongitudeDegrees>
            </Position>
            <AltitudeMeters>451.79998779296875</AltitudeMeters>
            <DistanceMeters>NAN</DistanceMeters>
          </Trackpoint>
          <Trackpoint>
            <Time>2019-10-09T07:44:55.000Z</Time>
            <Position>
              <LatitudeDegrees>39.418107457458972930908203125</LatitudeDegrees>
              <LongitudeDegrees>-6.3554612360894680023193359375</LongitudeDegrees>
            </Position>
            <AltitudeMeters>451.79998779296875</AltitudeMeters>
            <DistanceMeters>NAN</DistanceMeters>
          </Trackpoint>
          <Trackpoint>
            <Time>2019-10-09T07:45:07.000Z</Time>
            <Position>
              <LatitudeDegrees>39.41808306612074375152587890625</LatitudeDegrees>
              <LongitudeDegrees>-6.35545796714723110198974609375</LongitudeDegrees>
            </Position>
            <AltitudeMeters>451.399993896484375</AltitudeMeters>
            <DistanceMeters>NAN</DistanceMeters>
          </Trackpoint>
          <Trackpoint>
            <Time>2019-10-09T07:45:08.000Z</Time>
            <Position>
              <LatitudeDegrees>39.41805691458284854888916015625</LatitudeDegrees>
              <LongitudeDegrees>-6.3554575480520725250244140625</LongitudeDegrees>
            </Position>
            <AltitudeMeters>451.399993896484375</AltitudeMeters>
            <DistanceMeters>NAN</DistanceMeters>
          </Trackpoint>
          <Trackpoint>
            <Time>2019-10-09T07:45:10.000Z</Time>
            <Position>
              <LatitudeDegrees>39.4179825671017169952392578125</LatitudeDegrees>
              <LongitudeDegrees>-6.35546484030783176422119140625</LongitudeDegrees>
            </Position>
            <AltitudeMeters>451.20001220703125</AltitudeMeters>
            <DistanceMeters>NAN</DistanceMeters>
          </Trackpoint>
          <Trackpoint>
            <Time>2019-10-09T07:45:12.000Z</Time>
            <Position>
              <LatitudeDegrees>39.417893551290035247802734375</LatitudeDegrees>
              <LongitudeDegrees>-6.35547338984906673431396484375</LongitudeDegrees>
            </Position>
            <AltitudeMeters>450.79998779296875</AltitudeMeters>
            <DistanceMeters>NAN</DistanceMeters>
          </Trackpoint>
          <Trackpoint>
            <Time>2019-10-09T07:45:13.000Z</Time>
            <Position>
              <LatitudeDegrees>39.4178442656993865966796875</LatitudeDegrees>
              <LongitudeDegrees>-6.35547959245741367340087890625</LongitudeDegrees>
            </Position>
            <AltitudeMeters>450.20001220703125</AltitudeMeters>
            <DistanceMeters>NAN</DistanceMeters>
          </Trackpoint>
          <Trackpoint>
            <Time>2019-10-09T07:45:16.000Z</Time>
            <Position>
              <LatitudeDegrees>39.41768039949238300323486328125</LatitudeDegrees>
              <LongitudeDegrees>-6.35549635626375675201416015625</LongitudeDegrees>
            </Position>
            <AltitudeMeters>450.20001220703125</AltitudeMeters>
            <DistanceMeters>NAN</DistanceMeters>
          </Trackpoint>
          <Trackpoint>
            <Time>2019-10-09T07:45:18.000Z</Time>
            <Position>
              <LatitudeDegrees>39.41756271757185459136962890625</LatitudeDegrees>
              <LongitudeDegrees>-6.35550909675657749176025390625</LongitudeDegrees>
            </Position>
            <AltitudeMeters>449.600006103515625</AltitudeMeters>
            <DistanceMeters>NAN</DistanceMeters>
          </Trackpoint>
          <Trackpoint>
            <Time>2019-10-09T07:45:19.000Z</Time>
            <Position>
              <LatitudeDegrees>39.41750069148838520050048828125</LatitudeDegrees>
              <LongitudeDegrees>-6.35551680810749530792236328125</LongitudeDegrees>
            </Position>
            <AltitudeMeters>449</AltitudeMeters>
            <DistanceMeters>NAN</DistanceMeters>
          </Trackpoint>
          <Trackpoint>
            <Time>2019-10-09T07:45:22.000Z</Time>
            <Position>
              <LatitudeDegrees>39.417305476963520050048828125</LatitudeDegrees>
              <LongitudeDegrees>-6.355539858341217041015625</LongitudeDegrees>
            </Position>
            <AltitudeMeters>448</AltitudeMeters>
            <DistanceMeters>NAN</DistanceMeters>
          </Trackpoint>
          <Trackpoint>
            <Time>2019-10-09T07:45:26.000Z</Time>
            <Position>
              <LatitudeDegrees>39.4170290417969226837158203125</LatitudeDegrees>
              <LongitudeDegrees>-6.3555752299726009368896484375</LongitudeDegrees>
            </Position>
            <AltitudeMeters>447.399993896484375</AltitudeMeters>
            <DistanceMeters>NAN</DistanceMeters>
          </Trackpoint>
          <Trackpoint>
            <Time>2019-10-09T07:45:28.000Z</Time>
            <Position>
              <LatitudeDegrees>39.41688462160527706146240234375</LatitudeDegrees>
              <LongitudeDegrees>-6.35559040121734142303466796875</LongitudeDegrees>
            </Position>
            <AltitudeMeters>446.79998779296875</AltitudeMeters>
            <DistanceMeters>NAN</DistanceMeters>
          </Trackpoint>
          <Trackpoint>
            <Time>2019-10-09T07:45:32.000Z</Time>
            <Position>
              <LatitudeDegrees>39.41658471710979938507080078125</LatitudeDegrees>
              <LongitudeDegrees>-6.3556235097348690032958984375</LongitudeDegrees>
            </Position>
            <AltitudeMeters>446</AltitudeMeters>
            <DistanceMeters>NAN</DistanceMeters>
          </Trackpoint>
          <Trackpoint>
            <Time>2019-10-09T07:45:34.000Z</Time>
            <Position>
              <LatitudeDegrees>39.41643199883401393890380859375</LatitudeDegrees>
              <LongitudeDegrees>-6.355638764798641204833984375</LongitudeDegrees>
            </Position>
            <AltitudeMeters>445.600006103515625</AltitudeMeters>
            <DistanceMeters>NAN</DistanceMeters>
          </Trackpoint>
          <Trackpoint>
            <Time>2019-10-09T07:45:40.000Z</Time>
            <Position>
              <LatitudeDegrees>39.415970407426357269287109375</LatitudeDegrees>
              <LongitudeDegrees>-6.3556573726236820220947265625</LongitudeDegrees>
            </Position>
            <AltitudeMeters>444.20001220703125</AltitudeMeters>
            <DistanceMeters>NAN</DistanceMeters>
          </Trackpoint>
          <Trackpoint>
            <Time>2019-10-09T07:45:42.000Z</Time>
            <Position>
              <LatitudeDegrees>39.4158129952847957611083984375</LatitudeDegrees>
              <LongitudeDegrees>-6.35565259493887424468994140625</LongitudeDegrees>
            </Position>
            <AltitudeMeters>443.600006103515625</AltitudeMeters>
            <DistanceMeters>NAN</DistanceMeters>
          </Trackpoint>
          <Trackpoint>
            <Time>2019-10-09T07:45:45.000Z</Time>
            <Position>
              <LatitudeDegrees>39.415578804910182952880859375</LatitudeDegrees>
              <LongitudeDegrees>-6.3556278683245182037353515625</LongitudeDegrees>
            </Position>
            <AltitudeMeters>443.20001220703125</AltitudeMeters>
            <DistanceMeters>NAN</DistanceMeters>
          </Trackpoint>
          <Trackpoint>
            <Time>2019-10-09T07:45:48.000Z</Time>
            <Position>
              <LatitudeDegrees>39.415348805487155914306640625</LatitudeDegrees>
              <LongitudeDegrees>-6.35558201931416988372802734375</LongitudeDegrees>
            </Position>
            <AltitudeMeters>442.600006103515625</AltitudeMeters>
            <DistanceMeters>NAN</DistanceMeters>
          </Trackpoint>
          <Trackpoint>
            <Time>2019-10-09T07:45:49.000Z</Time>
            <Position>
              <LatitudeDegrees>39.41527311690151691436767578125</LatitudeDegrees>
              <LongitudeDegrees>-6.3555624894797801971435546875</LongitudeDegrees>
            </Position>
            <AltitudeMeters>442.399993896484375</AltitudeMeters>
            <DistanceMeters>NAN</DistanceMeters>
          </Trackpoint>
          <Trackpoint>
            <Time>2019-10-09T07:45:50.000Z</Time>
            <Position>
              <LatitudeDegrees>39.4151974283158779144287109375</LatitudeDegrees>
              <LongitudeDegrees>-6.3555433787405490875244140625</LongitudeDegrees>
            </Position>
            <AltitudeMeters>442.399993896484375</AltitudeMeters>
            <DistanceMeters>NAN</DistanceMeters>
          </Trackpoint>
          <Trackpoint>
            <Time>2019-10-09T07:45:52.000Z</Time>
            <Position>
              <LatitudeDegrees>39.41504898481070995330810546875</LatitudeDegrees>
              <LongitudeDegrees>-6.355493925511837005615234375</LongitudeDegrees>
            </Position>
            <AltitudeMeters>442</AltitudeMeters>
            <DistanceMeters>NAN</DistanceMeters>
          </Trackpoint>
          <Trackpoint>
            <Time>2019-10-09T07:45:55.000Z</Time>
            <Position>
              <LatitudeDegrees>39.4148269481956958770751953125</LatitudeDegrees>
              <LongitudeDegrees>-6.3554126210510730743408203125</LongitudeDegrees>
            </Position>
            <AltitudeMeters>441.600006103515625</AltitudeMeters>
            <DistanceMeters>NAN</DistanceMeters>
          </Trackpoint>
          <Trackpoint>
            <Time>2019-10-09T07:45:57.000Z</Time>
            <Position>
              <LatitudeDegrees>39.41467783413827419281005859375</LatitudeDegrees>
              <LongitudeDegrees>-6.35535151697695255279541015625</LongitudeDegrees>
            </Position>
            <AltitudeMeters>441</AltitudeMeters>
            <DistanceMeters>NAN</DistanceMeters>
          </Trackpoint>
          <Trackpoint>
            <Time>2019-10-09T07:45:59.000Z</Time>
            <Position>
              <LatitudeDegrees>39.4145288877189159393310546875</LatitudeDegrees>
              <LongitudeDegrees>-6.35529041290283203125</LongitudeDegrees>
            </Position>
            <AltitudeMeters>440.600006103515625</AltitudeMeters>
            <DistanceMeters>NAN</DistanceMeters>
          </Trackpoint>
          <Trackpoint>
            <Time>2019-10-09T07:46:03.000Z</Time>
            <Position>
              <LatitudeDegrees>39.41422672010958194732666015625</LatitudeDegrees>
              <LongitudeDegrees>-6.35516359470784664154052734375</LongitudeDegrees>
            </Position>
            <AltitudeMeters>440</AltitudeMeters>
            <DistanceMeters>NAN</DistanceMeters>
          </Trackpoint>
          <Trackpoint>
            <Time>2019-10-09T07:46:04.000Z</Time>
            <Position>
              <LatitudeDegrees>39.414149858057498931884765625</LatitudeDegrees>
              <LongitudeDegrees>-6.3551306538283824920654296875</LongitudeDegrees>
            </Position>
            <AltitudeMeters>439.600006103515625</AltitudeMeters>
            <DistanceMeters>NAN</DistanceMeters>
          </Trackpoint>
          <Trackpoint>
            <Time>2019-10-09T07:46:07.000Z</Time>
            <Position>
              <LatitudeDegrees>39.41391684114933013916015625</LatitudeDegrees>
              <LongitudeDegrees>-6.35502965189516544342041015625</LongitudeDegrees>
            </Position>
            <AltitudeMeters>438.79998779296875</AltitudeMeters>
            <DistanceMeters>NAN</DistanceMeters>
          </Trackpoint>
          <Trackpoint>
            <Time>2019-10-09T07:46:08.000Z</Time>
            <Position>
              <LatitudeDegrees>39.41383779980242252349853515625</LatitudeDegrees>
              <LongitudeDegrees>-6.354998387396335601806640625</LongitudeDegrees>
            </Position>
            <AltitudeMeters>438.399993896484375</AltitudeMeters>
            <DistanceMeters>NAN</DistanceMeters>
          </Trackpoint>
          <Trackpoint>
            <Time>2019-10-09T07:46:10.000Z</Time>
            <Position>
              <LatitudeDegrees>39.41368038766086101531982421875</LatitudeDegrees>
              <LongitudeDegrees>-6.354933679103851318359375</LongitudeDegrees>
            </Position>
            <AltitudeMeters>437.79998779296875</AltitudeMeters>
            <DistanceMeters>NAN</DistanceMeters>
          </Trackpoint>
          <Trackpoint>
            <Time>2019-10-09T07:46:12.000Z</Time>
            <Position>
              <LatitudeDegrees>39.41352230496704578399658203125</LatitudeDegrees>
              <LongitudeDegrees>-6.3548681326210498809814453125</LongitudeDegrees>
            </Position>
            <AltitudeMeters>437.399993896484375</AltitudeMeters>
            <DistanceMeters>NAN</DistanceMeters>
          </Trackpoint>
          <Trackpoint>
            <Time>2019-10-09T07:46:15.000Z</Time>
            <Position>
              <LatitudeDegrees>39.4132850132882595062255859375</LatitudeDegrees>
              <LongitudeDegrees>-6.3547682203352451324462890625</LongitudeDegrees>
            </Position>
            <AltitudeMeters>436.399993896484375</AltitudeMeters>
            <DistanceMeters>NAN</DistanceMeters>
          </Trackpoint>
          <Trackpoint>
            <Time>2019-10-09T07:46:16.000Z</Time>
            <Position>
              <LatitudeDegrees>39.41320471465587615966796875</LatitudeDegrees>
              <LongitudeDegrees>-6.35473645292222499847412109375</LongitudeDegrees>
            </Position>
            <AltitudeMeters>436.20001220703125</AltitudeMeters>
            <DistanceMeters>NAN</DistanceMeters>
          </Trackpoint>
          <Trackpoint>
            <Time>2019-10-09T07:46:20.000Z</Time>
            <Position>
              <LatitudeDegrees>39.4128835201263427734375</LatitudeDegrees>
              <LongitudeDegrees>-6.35460770688951015472412109375</LongitudeDegrees>
            </Position>
            <AltitudeMeters>435</AltitudeMeters>
            <DistanceMeters>NAN</DistanceMeters>
          </Trackpoint>
          <Trackpoint>
            <Time>2019-10-09T07:46:25.000Z</Time>
            <Position>
              <LatitudeDegrees>39.4124806858599185943603515625</LatitudeDegrees>
              <LongitudeDegrees>-6.354443840682506561279296875</LongitudeDegrees>
            </Position>
            <AltitudeMeters>433.79998779296875</AltitudeMeters>
            <DistanceMeters>NAN</DistanceMeters>
          </Trackpoint>
          <Trackpoint>
            <Time>2019-10-09T07:46:26.000Z</Time>
            <Position>
              <LatitudeDegrees>39.41239912994205951690673828125</LatitudeDegrees>
              <LongitudeDegrees>-6.35441190563142299652099609375</LongitudeDegrees>
            </Position>
            <AltitudeMeters>433.79998779296875</AltitudeMeters>
            <DistanceMeters>NAN</DistanceMeters>
          </Trackpoint>
          <Trackpoint>
            <Time>2019-10-09T07:46:29.000Z</Time>
            <Position>
              <LatitudeDegrees>39.4121558032929897308349609375</LatitudeDegrees>
              <LongitudeDegrees>-6.35431283153593540191650390625</LongitudeDegrees>
            </Position>
            <AltitudeMeters>432.79998779296875</AltitudeMeters>
            <DistanceMeters>NAN</DistanceMeters>
          </Trackpoint>
          <Trackpoint>
            <Time>2019-10-09T07:46:35.000Z</Time>
            <Position>
              <LatitudeDegrees>39.41165305674076080322265625</LatitudeDegrees>
              <LongitudeDegrees>-6.35413882322609424591064453125</LongitudeDegrees>
            </Position>
            <AltitudeMeters>431.600006103515625</AltitudeMeters>
            <DistanceMeters>NAN</DistanceMeters>
          </Trackpoint>
          <Trackpoint>
            <Time>2019-10-09T07:46:36.000Z</Time>
            <Position>
              <LatitudeDegrees>39.41156613640487194061279296875</LatitudeDegrees>
              <LongitudeDegrees>-6.35411602444946765899658203125</LongitudeDegrees>
            </Position>
            <AltitudeMeters>431.20001220703125</AltitudeMeters>
            <DistanceMeters>NAN</DistanceMeters>
          </Trackpoint>
          <Trackpoint>
            <Time>2019-10-09T07:46:39.000Z</Time>
            <Position>
              <LatitudeDegrees>39.41130529157817363739013671875</LatitudeDegrees>
              <LongitudeDegrees>-6.3540570996701717376708984375</LongitudeDegrees>
            </Position>
            <AltitudeMeters>430.399993896484375</AltitudeMeters>
            <DistanceMeters>NAN</DistanceMeters>
          </Trackpoint>
          <Trackpoint>
            <Time>2019-10-09T07:46:44.000Z</Time>
            <Position>
              <LatitudeDegrees>39.41087194718420505523681640625</LatitudeDegrees>
              <LongitudeDegrees>-6.35400303639471530914306640625</LongitudeDegrees>
            </Position>
            <AltitudeMeters>429.20001220703125</AltitudeMeters>
            <DistanceMeters>NAN</DistanceMeters>
          </Trackpoint>
          <Trackpoint>
            <Time>2019-10-09T07:46:48.000Z</Time>
            <Position>
              <LatitudeDegrees>39.41052476875483989715576171875</LatitudeDegrees>
              <LongitudeDegrees>-6.3539967499673366546630859375</LongitudeDegrees>
            </Position>
            <AltitudeMeters>428.20001220703125</AltitudeMeters>
            <DistanceMeters>NAN</DistanceMeters>
          </Trackpoint>
          <Trackpoint>
            <Time>2019-10-09T07:46:51.000Z</Time>
            <Position>
              <LatitudeDegrees>39.410267360508441925048828125</LatitudeDegrees>
              <LongitudeDegrees>-6.35401242412626743316650390625</LongitudeDegrees>
            </Position>
            <AltitudeMeters>427.399993896484375</AltitudeMeters>
            <DistanceMeters>NAN</DistanceMeters>
          </Trackpoint>
          <Trackpoint>
            <Time>2019-10-09T07:46:52.000Z</Time>
            <Position>
              <LatitudeDegrees>39.41018211655318737030029296875</LatitudeDegrees>
              <LongitudeDegrees>-6.3540222309529781341552734375</LongitudeDegrees>
            </Position>
            <AltitudeMeters>426.79998779296875</AltitudeMeters>
            <DistanceMeters>NAN</DistanceMeters>
          </Trackpoint>
          <Trackpoint>
            <Time>2019-10-09T07:46:58.000Z</Time>
            <Position>
              <LatitudeDegrees>39.40966394729912281036376953125</LatitudeDegrees>
              <LongitudeDegrees>-6.3541104085743427276611328125</LongitudeDegrees>
            </Position>
            <AltitudeMeters>425.600006103515625</AltitudeMeters>
            <DistanceMeters>NAN</DistanceMeters>
          </Trackpoint>
          <Trackpoint>
            <Time>2019-10-09T07:46:59.000Z</Time>
            <Position>
              <LatitudeDegrees>39.4095771946012973785400390625</LatitudeDegrees>
              <LongitudeDegrees>-6.3541281782090663909912109375</LongitudeDegrees>
            </Position>
            <AltitudeMeters>425.600006103515625</AltitudeMeters>
            <DistanceMeters>NAN</DistanceMeters>
          </Trackpoint>
          <Trackpoint>
            <Time>2019-10-09T07:47:02.000Z</Time>
            <Position>
              <LatitudeDegrees>39.40931676886975765228271484375</LatitudeDegrees>
              <LongitudeDegrees>-6.3541774637997150421142578125</LongitudeDegrees>
            </Position>
            <AltitudeMeters>424.600006103515625</AltitudeMeters>
            <DistanceMeters>NAN</DistanceMeters>
          </Trackpoint>
          <Trackpoint>
            <Time>2019-10-09T07:47:06.000Z</Time>
            <Position>
              <LatitudeDegrees>39.4089703448116779327392578125</LatitudeDegrees>
              <LongitudeDegrees>-6.3542425073683261871337890625</LongitudeDegrees>
            </Position>
            <AltitudeMeters>423.600006103515625</AltitudeMeters>
            <DistanceMeters>NAN</DistanceMeters>
          </Trackpoint>
          <Trackpoint>
            <Time>2019-10-09T07:47:10.000Z</Time>
            <Position>
              <LatitudeDegrees>39.4086243398487567901611328125</LatitudeDegrees>
              <LongitudeDegrees>-6.3543035276234149932861328125</LongitudeDegrees>
            </Position>
            <AltitudeMeters>422.600006103515625</AltitudeMeters>
            <DistanceMeters>NAN</DistanceMeters>
          </Trackpoint>
          <Trackpoint>
            <Time>2019-10-09T07:47:12.000Z</Time>
            <Position>
              <LatitudeDegrees>39.408452175557613372802734375</LatitudeDegrees>
              <LongitudeDegrees>-6.3543387316167354583740234375</LongitudeDegrees>
            </Position>
            <AltitudeMeters>422.399993896484375</AltitudeMeters>
            <DistanceMeters>NAN</DistanceMeters>
          </Trackpoint>
          <Trackpoint>
            <Time>2019-10-09T07:47:16.000Z</Time>
            <Position>
              <LatitudeDegrees>39.408105500042438507080078125</LatitudeDegrees>
              <LongitudeDegrees>-6.35440972633659839630126953125</LongitudeDegrees>
            </Position>
            <AltitudeMeters>421.399993896484375</AltitudeMeters>
            <DistanceMeters>NAN</DistanceMeters>
          </Trackpoint>
          <Trackpoint>
            <Time>2019-10-09T07:47:20.000Z</Time>
            <Position>
              <LatitudeDegrees>39.40775773487985134124755859375</LatitudeDegrees>
              <LongitudeDegrees>-6.354476027190685272216796875</LongitudeDegrees>
            </Position>
            <AltitudeMeters>420.20001220703125</AltitudeMeters>
            <DistanceMeters>NAN</DistanceMeters>
          </Trackpoint>
          <Trackpoint>
            <Time>2019-10-09T07:47:22.000Z</Time>
            <Position>
              <LatitudeDegrees>39.40758272074162960052490234375</LatitudeDegrees>
              <LongitudeDegrees>-6.35450896807014942169189453125</LongitudeDegrees>
            </Position>
            <AltitudeMeters>419.79998779296875</AltitudeMeters>
            <DistanceMeters>NAN</DistanceMeters>
          </Trackpoint>
          <Trackpoint>
            <Time>2019-10-09T07:47:25.000Z</Time>
            <Position>
              <LatitudeDegrees>39.407320953905582427978515625</LatitudeDegrees>
              <LongitudeDegrees>-6.35455121286213397979736328125</LongitudeDegrees>
            </Position>
            <AltitudeMeters>419</AltitudeMeters>
            <DistanceMeters>NAN</DistanceMeters>
          </Trackpoint>
          <Trackpoint>
            <Time>2019-10-09T07:47:29.000Z</Time>
            <Position>
              <LatitudeDegrees>39.40697352401912212371826171875</LatitudeDegrees>
              <LongitudeDegrees>-6.3546196930110454559326171875</LongitudeDegrees>
            </Position>
            <AltitudeMeters>418</AltitudeMeters>
            <DistanceMeters>NAN</DistanceMeters>
          </Trackpoint>
          <Trackpoint>
            <Time>2019-10-09T07:47:34.000Z</Time>
            <Position>
              <LatitudeDegrees>39.40653548575937747955322265625</LatitudeDegrees>
              <LongitudeDegrees>-6.35470292530953884124755859375</LongitudeDegrees>
            </Position>
            <AltitudeMeters>416.79998779296875</AltitudeMeters>
            <DistanceMeters>NAN</DistanceMeters>
          </Trackpoint>
          <Trackpoint>
            <Time>2019-10-09T07:47:39.000Z</Time>
            <Position>
              <LatitudeDegrees>39.406094513833522796630859375</LatitudeDegrees>
              <LongitudeDegrees>-6.35479311458766460418701171875</LongitudeDegrees>
            </Position>
            <AltitudeMeters>415.600006103515625</AltitudeMeters>
            <DistanceMeters>NAN</DistanceMeters>
          </Trackpoint>
          <Trackpoint>
            <Time>2019-10-09T07:47:41.000Z</Time>
            <Position>
              <LatitudeDegrees>39.40591991879045963287353515625</LatitudeDegrees>
              <LongitudeDegrees>-6.3548304140567779541015625</LongitudeDegrees>
            </Position>
            <AltitudeMeters>414.79998779296875</AltitudeMeters>
            <DistanceMeters>NAN</DistanceMeters>
          </Trackpoint>
          <Trackpoint>
            <Time>2019-10-09T07:47:44.000Z</Time>
            <Position>
              <LatitudeDegrees>39.4056561402976512908935546875</LatitudeDegrees>
              <LongitudeDegrees>-6.3548786938190460205078125</LongitudeDegrees>
            </Position>
            <AltitudeMeters>414.399993896484375</AltitudeMeters>
            <DistanceMeters>NAN</DistanceMeters>
          </Trackpoint>
          <Trackpoint>
            <Time>2019-10-09T07:47:48.000Z</Time>
            <Position>
              <LatitudeDegrees>39.4053077884018421173095703125</LatitudeDegrees>
              <LongitudeDegrees>-6.35494650341570377349853515625</LongitudeDegrees>
            </Position>
            <AltitudeMeters>413.20001220703125</AltitudeMeters>
            <DistanceMeters>NAN</DistanceMeters>
          </Trackpoint>
          <Trackpoint>
            <Time>2019-10-09T07:47:52.000Z</Time>
            <Position>
              <LatitudeDegrees>39.4049577601253986358642578125</LatitudeDegrees>
              <LongitudeDegrees>-6.35501322336494922637939453125</LongitudeDegrees>
            </Position>
            <AltitudeMeters>412.399993896484375</AltitudeMeters>
            <DistanceMeters>NAN</DistanceMeters>
          </Trackpoint>
          <Trackpoint>
            <Time>2019-10-09T07:47:54.000Z</Time>
            <Position>
              <LatitudeDegrees>39.40478232689201831817626953125</LatitudeDegrees>
              <LongitudeDegrees>-6.35504507459700107574462890625</LongitudeDegrees>
            </Position>
            <AltitudeMeters>412.20001220703125</AltitudeMeters>
            <DistanceMeters>NAN</DistanceMeters>
          </Trackpoint>
          <Trackpoint>
            <Time>2019-10-09T07:47:59.000Z</Time>
            <Position>
              <LatitudeDegrees>39.4043393433094024658203125</LatitudeDegrees>
              <LongitudeDegrees>-6.3551088608801364898681640625</LongitudeDegrees>
            </Position>
            <AltitudeMeters>411</AltitudeMeters>
            <DistanceMeters>NAN</DistanceMeters>
          </Trackpoint>
          <Trackpoint>
            <Time>2019-10-09T07:48:02.000Z</Time>
            <Position>
              <LatitudeDegrees>39.40407388843595981597900390625</LatitudeDegrees>
              <LongitudeDegrees>-6.35512554086744785308837890625</LongitudeDegrees>
            </Position>
            <AltitudeMeters>410.399993896484375</AltitudeMeters>
            <DistanceMeters>NAN</DistanceMeters>
          </Trackpoint>
          <Trackpoint>
            <Time>2019-10-09T07:48:04.000Z</Time>
            <Position>
              <LatitudeDegrees>39.40389686264097690582275390625</LatitudeDegrees>
              <LongitudeDegrees>-6.3551174104213714599609375</LongitudeDegrees>
            </Position>
            <AltitudeMeters>409.79998779296875</AltitudeMeters>
            <DistanceMeters>NAN</DistanceMeters>
          </Trackpoint>
          <Trackpoint>
            <Time>2019-10-09T07:48:08.000Z</Time>
            <Position>
              <LatitudeDegrees>39.40354867838323116302490234375</LatitudeDegrees>
              <LongitudeDegrees>-6.355047337710857391357421875</LongitudeDegrees>
            </Position>
            <AltitudeMeters>409.20001220703125</AltitudeMeters>
            <DistanceMeters>NAN</DistanceMeters>
          </Trackpoint>
          <Trackpoint>
            <Time>2019-10-09T07:48:09.000Z</Time>
            <Position>
              <LatitudeDegrees>39.40346485935151576995849609375</LatitudeDegrees>
              <LongitudeDegrees>-6.35502059943974018096923828125</LongitudeDegrees>
            </Position>
            <AltitudeMeters>408.600006103515625</AltitudeMeters>
            <DistanceMeters>NAN</DistanceMeters>
          </Trackpoint>
          <Trackpoint>
            <Time>2019-10-09T07:48:14.000Z</Time>
            <Position>
              <LatitudeDegrees>39.40305062569677829742431640625</LatitudeDegrees>
              <LongitudeDegrees>-6.35484240017831325531005859375</LongitudeDegrees>
            </Position>
            <AltitudeMeters>407.399993896484375</AltitudeMeters>
            <DistanceMeters>NAN</DistanceMeters>
          </Trackpoint>
          <Trackpoint>
            <Time>2019-10-09T07:48:19.000Z</Time>
            <Position>
              <LatitudeDegrees>39.4026480428874492645263671875</LatitudeDegrees>
              <LongitudeDegrees>-6.3545694015920162200927734375</LongitudeDegrees>
            </Position>
            <AltitudeMeters>406</AltitudeMeters>
            <DistanceMeters>NAN</DistanceMeters>
          </Trackpoint>
          <Trackpoint>
            <Time>2019-10-09T07:48:20.000Z</Time>
            <Position>
              <LatitudeDegrees>39.40257185138761997222900390625</LatitudeDegrees>
              <LongitudeDegrees>-6.3545016758143901824951171875</LongitudeDegrees>
            </Position>
            <AltitudeMeters>405.79998779296875</AltitudeMeters>
            <DistanceMeters>NAN</DistanceMeters>
          </Trackpoint>
          <Trackpoint>
            <Time>2019-10-09T07:48:24.000Z</Time>
            <Position>
              <LatitudeDegrees>39.40227513201534748077392578125</LatitudeDegrees>
              <LongitudeDegrees>-6.35420252569019794464111328125</LongitudeDegrees>
            </Position>
            <AltitudeMeters>404.79998779296875</AltitudeMeters>
            <DistanceMeters>NAN</DistanceMeters>
          </Trackpoint>
          <Trackpoint>
            <Time>2019-10-09T07:48:26.000Z</Time>
            <Position>
              <LatitudeDegrees>39.40213213674724102020263671875</LatitudeDegrees>
              <LongitudeDegrees>-6.35403857566416263580322265625</LongitudeDegrees>
            </Position>
            <AltitudeMeters>404.20001220703125</AltitudeMeters>
            <DistanceMeters>NAN</DistanceMeters>
          </Trackpoint>
          <Trackpoint>
            <Time>2019-10-09T07:48:27.000Z</Time>
            <Position>
              <LatitudeDegrees>39.402062483131885528564453125</LatitudeDegrees>
              <LongitudeDegrees>-6.35395425371825695037841796875</LongitudeDegrees>
            </Position>
            <AltitudeMeters>403.79998779296875</AltitudeMeters>
            <DistanceMeters>NAN</DistanceMeters>
          </Trackpoint>
          <Trackpoint>
            <Time>2019-10-09T07:48:30.000Z</Time>
            <Position>
              <LatitudeDegrees>39.40185092389583587646484375</LatitudeDegrees>
              <LongitudeDegrees>-6.353697516024112701416015625</LongitudeDegrees>
            </Position>
            <AltitudeMeters>402.600006103515625</AltitudeMeters>
            <DistanceMeters>NAN</DistanceMeters>
          </Trackpoint>
          <Trackpoint>
            <Time>2019-10-09T07:48:35.000Z</Time>
            <Position>
              <LatitudeDegrees>39.40149444155395030975341796875</LatitudeDegrees>
              <LongitudeDegrees>-6.353281103074550628662109375</LongitudeDegrees>
            </Position>
            <AltitudeMeters>401.399993896484375</AltitudeMeters>
            <DistanceMeters>NAN</DistanceMeters>
          </Trackpoint>
          <Trackpoint>
            <Time>2019-10-09T07:48:37.000Z</Time>
            <Position>
              <LatitudeDegrees>39.401338957250118255615234375</LatitudeDegrees>
              <LongitudeDegrees>-6.353129558265209197998046875</LongitudeDegrees>
            </Position>
            <AltitudeMeters>400.399993896484375</AltitudeMeters>
            <DistanceMeters>NAN</DistanceMeters>
          </Trackpoint>
          <Trackpoint>
            <Time>2019-10-09T07:48:38.000Z</Time>
            <Position>
              <LatitudeDegrees>39.401257149875164031982421875</LatitudeDegrees>
              <LongitudeDegrees>-6.35306376032531261444091796875</LongitudeDegrees>
            </Position>
            <AltitudeMeters>400</AltitudeMeters>
            <DistanceMeters>NAN</DistanceMeters>
          </Trackpoint>
          <Trackpoint>
            <Time>2019-10-09T07:48:42.000Z</Time>
            <Position>
              <LatitudeDegrees>39.40090485848486423492431640625</LatitudeDegrees>
              <LongitudeDegrees>-6.35284147225320339202880859375</LongitudeDegrees>
            </Position>
            <AltitudeMeters>398.79998779296875</AltitudeMeters>
            <DistanceMeters>NAN</DistanceMeters>
          </Trackpoint>
          <Trackpoint>
            <Time>2019-10-09T07:48:45.000Z</Time>
            <Position>
              <LatitudeDegrees>39.400628507137298583984375</LatitudeDegrees>
              <LongitudeDegrees>-6.35271322913467884063720703125</LongitudeDegrees>
            </Position>
            <AltitudeMeters>397.20001220703125</AltitudeMeters>
            <DistanceMeters>NAN</DistanceMeters>
          </Trackpoint>
          <Trackpoint>
            <Time>2019-10-09T07:48:48.000Z</Time>
            <Position>
              <LatitudeDegrees>39.40034461207687854766845703125</LatitudeDegrees>
              <LongitudeDegrees>-6.3526154123246669769287109375</LongitudeDegrees>
            </Position>
            <AltitudeMeters>396</AltitudeMeters>
            <DistanceMeters>NAN</DistanceMeters>
          </Trackpoint>
          <Trackpoint>
            <Time>2019-10-09T07:48:52.000Z</Time>
            <Position>
              <LatitudeDegrees>39.399957619607448577880859375</LatitudeDegrees>
              <LongitudeDegrees>-6.3525456748902797698974609375</LongitudeDegrees>
            </Position>
            <AltitudeMeters>395</AltitudeMeters>
            <DistanceMeters>NAN</DistanceMeters>
          </Trackpoint>
          <Trackpoint>
            <Time>2019-10-09T07:48:53.000Z</Time>
            <Position>
              <LatitudeDegrees>39.3998592160642147064208984375</LatitudeDegrees>
              <LongitudeDegrees>-6.3525460101664066314697265625</LongitudeDegrees>
            </Position>
            <AltitudeMeters>394.399993896484375</AltitudeMeters>
            <DistanceMeters>NAN</DistanceMeters>
          </Trackpoint>
          <Trackpoint>
            <Time>2019-10-09T07:48:55.000Z</Time>
            <Position>
              <LatitudeDegrees>39.3996630795300006866455078125</LatitudeDegrees>
              <LongitudeDegrees>-6.352558918297290802001953125</LongitudeDegrees>
            </Position>
            <AltitudeMeters>393.20001220703125</AltitudeMeters>
            <DistanceMeters>NAN</DistanceMeters>
          </Trackpoint>
          <Trackpoint>
            <Time>2019-10-09T07:48:59.000Z</Time>
            <Position>
              <LatitudeDegrees>39.39927658997476100921630859375</LatitudeDegrees>
              <LongitudeDegrees>-6.35260946117341518402099609375</LongitudeDegrees>
            </Position>
            <AltitudeMeters>392.20001220703125</AltitudeMeters>
            <DistanceMeters>NAN</DistanceMeters>
          </Trackpoint>
          <Trackpoint>
            <Time>2019-10-09T07:49:00.000Z</Time>
            <Position>
              <LatitudeDegrees>39.39918078482151031494140625</LatitudeDegrees>
              <LongitudeDegrees>-6.3526258058845996856689453125</LongitudeDegrees>
            </Position>
            <AltitudeMeters>392</AltitudeMeters>
            <DistanceMeters>NAN</DistanceMeters>
          </Trackpoint>
          <Trackpoint>
            <Time>2019-10-09T07:49:02.000Z</Time>
            <Position>
              <LatitudeDegrees>39.39898791722953319549560546875</LatitudeDegrees>
              <LongitudeDegrees>-6.3526618480682373046875</LongitudeDegrees>
            </Position>
            <AltitudeMeters>390.600006103515625</AltitudeMeters>
            <DistanceMeters>NAN</DistanceMeters>
          </Trackpoint>
          <Trackpoint>
            <Time>2019-10-09T07:49:07.000Z</Time>
            <Position>
              <LatitudeDegrees>39.39851216040551662445068359375</LatitudeDegrees>
              <LongitudeDegrees>-6.3527444936335086822509765625</LongitudeDegrees>
            </Position>
            <AltitudeMeters>389</AltitudeMeters>
            <DistanceMeters>NAN</DistanceMeters>
          </Trackpoint>
          <Trackpoint>
            <Time>2019-10-09T07:49:11.000Z</Time>
            <Position>
              <LatitudeDegrees>39.39814402721822261810302734375</LatitudeDegrees>
              <LongitudeDegrees>-6.3527951203286647796630859375</LongitudeDegrees>
            </Position>
            <AltitudeMeters>388.600006103515625</AltitudeMeters>
            <DistanceMeters>NAN</DistanceMeters>
          </Trackpoint>
          <Trackpoint>
            <Time>2019-10-09T07:49:17.000Z</Time>
            <Position>
              <LatitudeDegrees>39.3976058252155780792236328125</LatitudeDegrees>
              <LongitudeDegrees>-6.3528206013143062591552734375</LongitudeDegrees>
            </Position>
            <AltitudeMeters>388.20001220703125</AltitudeMeters>
            <DistanceMeters>NAN</DistanceMeters>
          </Trackpoint>
          <Trackpoint>
            <Time>2019-10-09T07:49:18.000Z</Time>
            <Position>
              <LatitudeDegrees>39.39751915633678436279296875</LatitudeDegrees>
              <LongitudeDegrees>-6.35281515307724475860595703125</LongitudeDegrees>
            </Position>
            <AltitudeMeters>387.79998779296875</AltitudeMeters>
            <DistanceMeters>NAN</DistanceMeters>
          </Trackpoint>
          <Trackpoint>
            <Time>2019-10-09T07:49:19.000Z</Time>
            <Position>
              <LatitudeDegrees>39.39743332564830780029296875</LatitudeDegrees>
              <LongitudeDegrees>-6.35280869901180267333984375</LongitudeDegrees>
            </Position>
            <AltitudeMeters>387.79998779296875</AltitudeMeters>
            <DistanceMeters>NAN</DistanceMeters>
          </Trackpoint>
          <Trackpoint>
            <Time>2019-10-09T07:49:26.000Z</Time>
            <Position>
              <LatitudeDegrees>39.39685287885367870330810546875</LatitudeDegrees>
              <LongitudeDegrees>-6.3527126424014568328857421875</LongitudeDegrees>
            </Position>
            <AltitudeMeters>387</AltitudeMeters>
            <DistanceMeters>NAN</DistanceMeters>
          </Trackpoint>
          <Trackpoint>
            <Time>2019-10-09T07:49:27.000Z</Time>
            <Position>
              <LatitudeDegrees>39.39677241258323192596435546875</LatitudeDegrees>
              <LongitudeDegrees>-6.35268992744386196136474609375</LongitudeDegrees>
            </Position>
            <AltitudeMeters>386.79998779296875</AltitudeMeters>
            <DistanceMeters>NAN</DistanceMeters>
          </Trackpoint>
          <Trackpoint>
            <Time>2019-10-09T07:49:34.000Z</Time>
            <Position>
              <LatitudeDegrees>39.3962167762219905853271484375</LatitudeDegrees>
              <LongitudeDegrees>-6.35250234045088291168212890625</LongitudeDegrees>
            </Position>
            <AltitudeMeters>386</AltitudeMeters>
            <DistanceMeters>NAN</DistanceMeters>
          </Trackpoint>
          <Trackpoint>
            <Time>2019-10-09T07:49:36.000Z</Time>
            <Position>
              <LatitudeDegrees>39.39606045372784137725830078125</LatitudeDegrees>
              <LongitudeDegrees>-6.3524410687386989593505859375</LongitudeDegrees>
            </Position>
            <AltitudeMeters>386.20001220703125</AltitudeMeters>
            <DistanceMeters>NAN</DistanceMeters>
          </Trackpoint>
          <Trackpoint>
            <Time>2019-10-09T07:49:38.000Z</Time>
            <Position>
              <LatitudeDegrees>39.39590312540531158447265625</LatitudeDegrees>
              <LongitudeDegrees>-6.35237753391265869140625</LongitudeDegrees>
            </Position>
            <AltitudeMeters>385.600006103515625</AltitudeMeters>
            <DistanceMeters>NAN</DistanceMeters>
          </Trackpoint>
          <Trackpoint>
            <Time>2019-10-09T07:49:42.000Z</Time>
            <Position>
              <LatitudeDegrees>39.395589642226696014404296875</LatitudeDegrees>
              <LongitudeDegrees>-6.35224945843219757080078125</LongitudeDegrees>
            </Position>
            <AltitudeMeters>385.399993896484375</AltitudeMeters>
            <DistanceMeters>NAN</DistanceMeters>
          </Trackpoint>
          <Trackpoint>
            <Time>2019-10-09T07:49:45.000Z</Time>
            <Position>
              <LatitudeDegrees>39.395356960594654083251953125</LatitudeDegrees>
              <LongitudeDegrees>-6.35215482674539089202880859375</LongitudeDegrees>
            </Position>
            <AltitudeMeters>384.600006103515625</AltitudeMeters>
            <DistanceMeters>NAN</DistanceMeters>
          </Trackpoint>
          <Trackpoint>
            <Time>2019-10-09T07:49:47.000Z</Time>
            <Position>
              <LatitudeDegrees>39.3952022306621074676513671875</LatitudeDegrees>
              <LongitudeDegrees>-6.3520923815667629241943359375</LongitudeDegrees>
            </Position>
            <AltitudeMeters>384.399993896484375</AltitudeMeters>
            <DistanceMeters>NAN</DistanceMeters>
          </Trackpoint>
          <Trackpoint>
            <Time>2019-10-09T07:49:51.000Z</Time>
            <Position>
              <LatitudeDegrees>39.3948894180357456207275390625</LatitudeDegrees>
              <LongitudeDegrees>-6.351970843970775604248046875</LongitudeDegrees>
            </Position>
            <AltitudeMeters>383.600006103515625</AltitudeMeters>
            <DistanceMeters>NAN</DistanceMeters>
          </Trackpoint>
          <Trackpoint>
            <Time>2019-10-09T07:49:58.000Z</Time>
            <Position>
              <LatitudeDegrees>39.39434601925313472747802734375</LatitudeDegrees>
              <LongitudeDegrees>-6.3517614640295505523681640625</LongitudeDegrees>
            </Position>
            <AltitudeMeters>382.79998779296875</AltitudeMeters>
            <DistanceMeters>NAN</DistanceMeters>
          </Trackpoint>
          <Trackpoint>
            <Time>2019-10-09T07:50:02.000Z</Time>
            <Position>
              <LatitudeDegrees>39.39403362572193145751953125</LatitudeDegrees>
              <LongitudeDegrees>-6.35164319537580013275146484375</LongitudeDegrees>
            </Position>
            <AltitudeMeters>382.600006103515625</AltitudeMeters>
            <DistanceMeters>NAN</DistanceMeters>
          </Trackpoint>
          <Trackpoint>
            <Time>2019-10-09T07:50:07.000Z</Time>
            <Position>
              <LatitudeDegrees>39.3936381675302982330322265625</LatitudeDegrees>
              <LongitudeDegrees>-6.35149768553674221038818359375</LongitudeDegrees>
            </Position>
            <AltitudeMeters>382</AltitudeMeters>
            <DistanceMeters>NAN</DistanceMeters>
          </Trackpoint>
          <Trackpoint>
            <Time>2019-10-09T07:50:09.000Z</Time>
            <Position>
              <LatitudeDegrees>39.39348251558840274810791015625</LatitudeDegrees>
              <LongitudeDegrees>-6.35143943130970001220703125</LongitudeDegrees>
            </Position>
            <AltitudeMeters>382</AltitudeMeters>
            <DistanceMeters>NAN</DistanceMeters>
          </Trackpoint>
          <Trackpoint>
            <Time>2019-10-09T07:50:11.000Z</Time>
            <Position>
              <LatitudeDegrees>39.393327869474887847900390625</LatitudeDegrees>
              <LongitudeDegrees>-6.3513852842152118682861328125</LongitudeDegrees>
            </Position>
            <AltitudeMeters>381.600006103515625</AltitudeMeters>
            <DistanceMeters>NAN</DistanceMeters>
          </Trackpoint>
          <Trackpoint>
            <Time>2019-10-09T07:50:15.000Z</Time>
            <Position>
              <LatitudeDegrees>39.3930262885987758636474609375</LatitudeDegrees>
              <LongitudeDegrees>-6.35128260590136051177978515625</LongitudeDegrees>
            </Position>
            <AltitudeMeters>381</AltitudeMeters>
            <DistanceMeters>NAN</DistanceMeters>
          </Trackpoint>
          <Trackpoint>
            <Time>2019-10-09T07:50:22.000Z</Time>
            <Position>
              <LatitudeDegrees>39.39250535331666469573974609375</LatitudeDegrees>
              <LongitudeDegrees>-6.351123936474323272705078125</LongitudeDegrees>
            </Position>
            <AltitudeMeters>381</AltitudeMeters>
            <DistanceMeters>NAN</DistanceMeters>
          </Trackpoint>
          <Trackpoint>
            <Time>2019-10-09T07:50:24.000Z</Time>
            <Position>
              <LatitudeDegrees>39.39235766418278217315673828125</LatitudeDegrees>
              <LongitudeDegrees>-6.3510966114699840545654296875</LongitudeDegrees>
            </Position>
            <AltitudeMeters>381</AltitudeMeters>
            <DistanceMeters>NAN</DistanceMeters>
          </Trackpoint>
          <Trackpoint>
            <Time>2019-10-09T07:50:27.000Z</Time>
            <Position>
              <LatitudeDegrees>39.39213688485324382781982421875</LatitudeDegrees>
              <LongitudeDegrees>-6.351064257323741912841796875</LongitudeDegrees>
            </Position>
            <AltitudeMeters>380.399993896484375</AltitudeMeters>
            <DistanceMeters>NAN</DistanceMeters>
          </Trackpoint>
          <Trackpoint>
            <Time>2019-10-09T07:50:30.000Z</Time>
            <Position>
              <LatitudeDegrees>39.39191811718046665191650390625</LatitudeDegrees>
              <LongitudeDegrees>-6.35107104666531085968017578125</LongitudeDegrees>
            </Position>
            <AltitudeMeters>380.399993896484375</AltitudeMeters>
            <DistanceMeters>NAN</DistanceMeters>
          </Trackpoint>
          <Trackpoint>
            <Time>2019-10-09T07:50:31.000Z</Time>
            <Position>
              <LatitudeDegrees>39.39185022376477718353271484375</LatitudeDegrees>
              <LongitudeDegrees>-6.35110926814377307891845703125</LongitudeDegrees>
            </Position>
            <AltitudeMeters>380.20001220703125</AltitudeMeters>
            <DistanceMeters>NAN</DistanceMeters>
          </Trackpoint>
          <Trackpoint>
            <Time>2019-10-09T07:50:34.000Z</Time>
            <Position>
              <LatitudeDegrees>39.3917007744312286376953125</LatitudeDegrees>
              <LongitudeDegrees>-6.35130926035344600677490234375</LongitudeDegrees>
            </Position>
            <AltitudeMeters>380.399993896484375</AltitudeMeters>
            <DistanceMeters>NAN</DistanceMeters>
          </Trackpoint>
          <Trackpoint>
            <Time>2019-10-09T07:50:35.000Z</Time>
            <Position>
              <LatitudeDegrees>39.39165224321186542510986328125</LatitudeDegrees>
              <LongitudeDegrees>-6.35137547738850116729736328125</LongitudeDegrees>
            </Position>
            <AltitudeMeters>380.600006103515625</AltitudeMeters>
            <DistanceMeters>NAN</DistanceMeters>
          </Trackpoint>
          <Trackpoint>
            <Time>2019-10-09T07:50:36.000Z</Time>
            <Position>
              <LatitudeDegrees>39.391597174108028411865234375</LatitudeDegrees>
              <LongitudeDegrees>-6.3514305464923381805419921875</LongitudeDegrees>
            </Position>
            <AltitudeMeters>380.399993896484375</AltitudeMeters>
            <DistanceMeters>NAN</DistanceMeters>
          </Trackpoint>
          <Trackpoint>
            <Time>2019-10-09T07:50:38.000Z</Time>
            <Position>
              <LatitudeDegrees>39.39147119410336017608642578125</LatitudeDegrees>
              <LongitudeDegrees>-6.3514965958893299102783203125</LongitudeDegrees>
            </Position>
            <AltitudeMeters>380.399993896484375</AltitudeMeters>
            <DistanceMeters>NAN</DistanceMeters>
          </Trackpoint>
          <Trackpoint>
            <Time>2019-10-09T07:50:41.000Z</Time>
            <Position>
              <LatitudeDegrees>39.3912701122462749481201171875</LatitudeDegrees>
              <LongitudeDegrees>-6.3514791615307331085205078125</LongitudeDegrees>
            </Position>
            <AltitudeMeters>380.20001220703125</AltitudeMeters>
            <DistanceMeters>NAN</DistanceMeters>
          </Trackpoint>
          <Trackpoint>
            <Time>2019-10-09T07:50:44.000Z</Time>
            <Position>
              <LatitudeDegrees>39.39110406674444675445556640625</LatitudeDegrees>
              <LongitudeDegrees>-6.3513215817511081695556640625</LongitudeDegrees>
            </Position>
            <AltitudeMeters>381.399993896484375</AltitudeMeters>
            <DistanceMeters>NAN</DistanceMeters>
          </Trackpoint>
          <Trackpoint>
            <Time>2019-10-09T07:50:45.000Z</Time>
            <Position>
              <LatitudeDegrees>39.3910531885921955108642578125</LatitudeDegrees>
              <LongitudeDegrees>-6.351260058581829071044921875</LongitudeDegrees>
            </Position>
            <AltitudeMeters>381.399993896484375</AltitudeMeters>
            <DistanceMeters>NAN</DistanceMeters>
          </Trackpoint>
          <Trackpoint>
            <Time>2019-10-09T07:50:48.000Z</Time>
            <Position>
              <LatitudeDegrees>39.3908907473087310791015625</LatitudeDegrees>
              <LongitudeDegrees>-6.35108713991940021514892578125</LongitudeDegrees>
            </Position>
            <AltitudeMeters>380</AltitudeMeters>
            <DistanceMeters>NAN</DistanceMeters>
          </Trackpoint>
          <Trackpoint>
            <Time>2019-10-09T07:50:49.000Z</Time>
            <Position>
              <LatitudeDegrees>39.390824697911739349365234375</LatitudeDegrees>
              <LongitudeDegrees>-6.35105562396347522735595703125</LongitudeDegrees>
            </Position>
            <AltitudeMeters>380.399993896484375</AltitudeMeters>
            <DistanceMeters>NAN</DistanceMeters>
          </Trackpoint>
          <Trackpoint>
            <Time>2019-10-09T07:50:52.000Z</Time>
            <Position>
              <LatitudeDegrees>39.3906149826943874359130859375</LatitudeDegrees>
              <LongitudeDegrees>-6.35104791261255741119384765625</LongitudeDegrees>
            </Position>
            <AltitudeMeters>379.79998779296875</AltitudeMeters>
            <DistanceMeters>NAN</DistanceMeters>
          </Trackpoint>
          <Trackpoint>
            <Time>2019-10-09T07:51:00.000Z</Time>
            <Position>
              <LatitudeDegrees>39.3901129066944122314453125</LatitudeDegrees>
              <LongitudeDegrees>-6.35105176828801631927490234375</LongitudeDegrees>
            </Position>
            <AltitudeMeters>381.79998779296875</AltitudeMeters>
            <DistanceMeters>NAN</DistanceMeters>
          </Trackpoint>
          <Trackpoint>
            <Time>2019-10-09T07:51:05.000Z</Time>
            <Position>
              <LatitudeDegrees>39.3898760341107845306396484375</LatitudeDegrees>
              <LongitudeDegrees>-6.3510523550212383270263671875</LongitudeDegrees>
            </Position>
            <AltitudeMeters>383</AltitudeMeters>
            <DistanceMeters>NAN</DistanceMeters>
          </Trackpoint>
          <Trackpoint>
            <Time>2019-10-09T07:51:06.000Z</Time>
            <Position>
              <LatitudeDegrees>39.38983219675719738006591796875</LatitudeDegrees>
              <LongitudeDegrees>-6.35105109773576259613037109375</LongitudeDegrees>
            </Position>
            <AltitudeMeters>383.79998779296875</AltitudeMeters>
            <DistanceMeters>NAN</DistanceMeters>
          </Trackpoint>
          <Trackpoint>
            <Time>2019-10-09T07:51:09.000Z</Time>
            <Position>
              <LatitudeDegrees>39.3897020258009433746337890625</LatitudeDegrees>
              <LongitudeDegrees>-6.35105260647833347320556640625</LongitudeDegrees>
            </Position>
            <AltitudeMeters>384.20001220703125</AltitudeMeters>
            <DistanceMeters>NAN</DistanceMeters>
          </Trackpoint>
          <Trackpoint>
            <Time>2019-10-09T07:51:15.000Z</Time>
            <Position>
              <LatitudeDegrees>39.389443695545196533203125</LatitudeDegrees>
              <LongitudeDegrees>-6.3510506786406040191650390625</LongitudeDegrees>
            </Position>
            <AltitudeMeters>384.79998779296875</AltitudeMeters>
            <DistanceMeters>NAN</DistanceMeters>
          </Trackpoint>
          <Trackpoint>
            <Time>2019-10-09T07:51:16.000Z</Time>
            <Position>
              <LatitudeDegrees>39.38940052874386310577392578125</LatitudeDegrees>
              <LongitudeDegrees>-6.35104824788868427276611328125</LongitudeDegrees>
            </Position>
            <AltitudeMeters>385.20001220703125</AltitudeMeters>
            <DistanceMeters>NAN</DistanceMeters>
          </Trackpoint>
          <Trackpoint>
            <Time>2019-10-09T07:51:22.000Z</Time>
            <Position>
              <LatitudeDegrees>39.38912610523402690887451171875</LatitudeDegrees>
              <LongitudeDegrees>-6.3510431349277496337890625</LongitudeDegrees>
            </Position>
            <AltitudeMeters>385.600006103515625</AltitudeMeters>
            <DistanceMeters>NAN</DistanceMeters>
          </Trackpoint>
          <Trackpoint>
            <Time>2019-10-09T07:51:24.000Z</Time>
            <Position>
              <LatitudeDegrees>39.38902803696691989898681640625</LatitudeDegrees>
              <LongitudeDegrees>-6.351041458547115325927734375</LongitudeDegrees>
            </Position>
            <AltitudeMeters>385.79998779296875</AltitudeMeters>
            <DistanceMeters>NAN</DistanceMeters>
          </Trackpoint>
          <Trackpoint>
            <Time>2019-10-09T07:51:30.000Z</Time>
            <Position>
              <LatitudeDegrees>39.38871120102703571319580078125</LatitudeDegrees>
              <LongitudeDegrees>-6.35103852488100528717041015625</LongitudeDegrees>
            </Position>
            <AltitudeMeters>385.20001220703125</AltitudeMeters>
            <DistanceMeters>NAN</DistanceMeters>
          </Trackpoint>
          <Trackpoint>
            <Time>2019-10-09T07:51:32.000Z</Time>
            <Position>
              <LatitudeDegrees>39.3885969556868076324462890625</LatitudeDegrees>
              <LongitudeDegrees>-6.351039446890354156494140625</LongitudeDegrees>
            </Position>
            <AltitudeMeters>384.399993896484375</AltitudeMeters>
            <DistanceMeters>NAN</DistanceMeters>
          </Trackpoint>
          <Trackpoint>
            <Time>2019-10-09T07:51:36.000Z</Time>
            <Position>
              <LatitudeDegrees>39.3883414752781391143798828125</LatitudeDegrees>
              <LongitudeDegrees>-6.351039111614227294921875</LongitudeDegrees>
            </Position>
            <AltitudeMeters>383.79998779296875</AltitudeMeters>
            <DistanceMeters>NAN</DistanceMeters>
          </Trackpoint>
          <Trackpoint>
            <Time>2019-10-09T07:51:39.000Z</Time>
            <Position>
              <LatitudeDegrees>39.3881312571465969085693359375</LatitudeDegrees>
              <LongitudeDegrees>-6.35103852488100528717041015625</LongitudeDegrees>
            </Position>
            <AltitudeMeters>382.600006103515625</AltitudeMeters>
            <DistanceMeters>NAN</DistanceMeters>
          </Trackpoint>
          <Trackpoint>
            <Time>2019-10-09T07:51:43.000Z</Time>
            <Position>
              <LatitudeDegrees>39.38783369958400726318359375</LatitudeDegrees>
              <LongitudeDegrees>-6.35103785432875156402587890625</LongitudeDegrees>
            </Position>
            <AltitudeMeters>381.20001220703125</AltitudeMeters>
            <DistanceMeters>NAN</DistanceMeters>
          </Trackpoint>
          <Trackpoint>
            <Time>2019-10-09T07:51:45.000Z</Time>
            <Position>
              <LatitudeDegrees>39.3876793049275875091552734375</LatitudeDegrees>
              <LongitudeDegrees>-6.35103668086230754852294921875</LongitudeDegrees>
            </Position>
            <AltitudeMeters>380.20001220703125</AltitudeMeters>
            <DistanceMeters>NAN</DistanceMeters>
          </Trackpoint>
          <Trackpoint>
            <Time>2019-10-09T07:51:48.000Z</Time>
            <Position>
              <LatitudeDegrees>39.3874436058104038238525390625</LatitudeDegrees>
              <LongitudeDegrees>-6.3510379381477832794189453125</LongitudeDegrees>
            </Position>
            <AltitudeMeters>379.79998779296875</AltitudeMeters>
            <DistanceMeters>NAN</DistanceMeters>
          </Trackpoint>
          <Trackpoint>
            <Time>2019-10-09T07:51:51.000Z</Time>
            <Position>
              <LatitudeDegrees>39.387215785682201385498046875</LatitudeDegrees>
              <LongitudeDegrees>-6.3510325737297534942626953125</LongitudeDegrees>
            </Position>
            <AltitudeMeters>379.399993896484375</AltitudeMeters>
            <DistanceMeters>NAN</DistanceMeters>
          </Trackpoint>
          <Trackpoint>
            <Time>2019-10-09T07:51:53.000Z</Time>
            <Position>
              <LatitudeDegrees>39.38707689754664897918701171875</LatitudeDegrees>
              <LongitudeDegrees>-6.35108965449035167694091796875</LongitudeDegrees>
            </Position>
            <AltitudeMeters>379.20001220703125</AltitudeMeters>
            <DistanceMeters>NAN</DistanceMeters>
          </Trackpoint>
          <Trackpoint>
            <Time>2019-10-09T07:51:56.000Z</Time>
            <Position>
              <LatitudeDegrees>39.386918060481548309326171875</LatitudeDegrees>
              <LongitudeDegrees>-6.351274140179157257080078125</LongitudeDegrees>
            </Position>
            <AltitudeMeters>379.79998779296875</AltitudeMeters>
            <DistanceMeters>NAN</DistanceMeters>
          </Trackpoint>
          <Trackpoint>
            <Time>2019-10-09T07:52:00.000Z</Time>
            <Position>
              <LatitudeDegrees>39.386692754924297332763671875</LatitudeDegrees>
              <LongitudeDegrees>-6.351465918123722076416015625</LongitudeDegrees>
            </Position>
            <AltitudeMeters>380</AltitudeMeters>
            <DistanceMeters>NAN</DistanceMeters>
          </Trackpoint>
          <Trackpoint>
            <Time>2019-10-09T07:52:03.000Z</Time>
            <Position>
              <LatitudeDegrees>39.3864900805056095123291015625</LatitudeDegrees>
              <LongitudeDegrees>-6.351455189287662506103515625</LongitudeDegrees>
            </Position>
            <AltitudeMeters>379.79998779296875</AltitudeMeters>
            <DistanceMeters>NAN</DistanceMeters>
          </Trackpoint>
          <Trackpoint>
            <Time>2019-10-09T07:52:06.000Z</Time>
            <Position>
              <LatitudeDegrees>39.38632420264184474945068359375</LatitudeDegrees>
              <LongitudeDegrees>-6.35130322538316249847412109375</LongitudeDegrees>
            </Position>
            <AltitudeMeters>379.600006103515625</AltitudeMeters>
            <DistanceMeters>NAN</DistanceMeters>
          </Trackpoint>
          <Trackpoint>
            <Time>2019-10-09T07:52:09.000Z</Time>
            <Position>
              <LatitudeDegrees>39.3862399645149707794189453125</LatitudeDegrees>
              <LongitudeDegrees>-6.35106367059051990509033203125</LongitudeDegrees>
            </Position>
            <AltitudeMeters>379.600006103515625</AltitudeMeters>
            <DistanceMeters>NAN</DistanceMeters>
          </Trackpoint>
          <Trackpoint>
            <Time>2019-10-09T07:52:12.000Z</Time>
            <Position>
              <LatitudeDegrees>39.38623921014368534088134765625</LatitudeDegrees>
              <LongitudeDegrees>-6.3508044183254241943359375</LongitudeDegrees>
            </Position>
            <AltitudeMeters>379.600006103515625</AltitudeMeters>
            <DistanceMeters>NAN</DistanceMeters>
          </Trackpoint>
          <Trackpoint>
            <Time>2019-10-09T07:52:13.000Z</Time>
            <Position>
              <LatitudeDegrees>39.38623200170695781707763671875</LatitudeDegrees>
              <LongitudeDegrees>-6.3507231138646602630615234375</LongitudeDegrees>
            </Position>
            <AltitudeMeters>379.79998779296875</AltitudeMeters>
            <DistanceMeters>NAN</DistanceMeters>
          </Trackpoint>
          <Trackpoint>
            <Time>2019-10-09T07:52:17.000Z</Time>
            <Position>
              <LatitudeDegrees>39.386105351150035858154296875</LatitudeDegrees>
              <LongitudeDegrees>-6.35044307447969913482666015625</LongitudeDegrees>
            </Position>
            <AltitudeMeters>379.399993896484375</AltitudeMeters>
            <DistanceMeters>NAN</DistanceMeters>
          </Trackpoint>
          <Trackpoint>
            <Time>2019-10-09T07:52:18.000Z</Time>
            <Position>
              <LatitudeDegrees>39.38605480827391147613525390625</LatitudeDegrees>
              <LongitudeDegrees>-6.3503844849765300750732421875</LongitudeDegrees>
            </Position>
            <AltitudeMeters>379.399993896484375</AltitudeMeters>
            <DistanceMeters>NAN</DistanceMeters>
          </Trackpoint>
          <Trackpoint>
            <Time>2019-10-09T07:52:19.000Z</Time>
            <Position>
              <LatitudeDegrees>39.3860037624835968017578125</LatitudeDegrees>
              <LongitudeDegrees>-6.3503221236169338226318359375</LongitudeDegrees>
            </Position>
            <AltitudeMeters>379</AltitudeMeters>
            <DistanceMeters>NAN</DistanceMeters>
          </Trackpoint>
          <Trackpoint>
            <Time>2019-10-09T07:52:24.000Z</Time>
            <Position>
              <LatitudeDegrees>39.38577133230865001678466796875</LatitudeDegrees>
              <LongitudeDegrees>-6.3499720953404903411865234375</LongitudeDegrees>
            </Position>
            <AltitudeMeters>378</AltitudeMeters>
            <DistanceMeters>NAN</DistanceMeters>
          </Trackpoint>
          <Trackpoint>
            <Time>2019-10-09T07:52:27.000Z</Time>
            <Position>
              <LatitudeDegrees>39.385642670094966888427734375</LatitudeDegrees>
              <LongitudeDegrees>-6.34974117390811443328857421875</LongitudeDegrees>
            </Position>
            <AltitudeMeters>377.600006103515625</AltitudeMeters>
            <DistanceMeters>NAN</DistanceMeters>
          </Trackpoint>
          <Trackpoint>
            <Time>2019-10-09T07:52:31.000Z</Time>
            <Position>
              <LatitudeDegrees>39.3854594416916370391845703125</LatitudeDegrees>
              <LongitudeDegrees>-6.34942383505403995513916015625</LongitudeDegrees>
            </Position>
            <AltitudeMeters>376.399993896484375</AltitudeMeters>
            <DistanceMeters>NAN</DistanceMeters>
          </Trackpoint>
          <Trackpoint>
            <Time>2019-10-09T07:52:32.000Z</Time>
            <Position>
              <LatitudeDegrees>39.38541023992002010345458984375</LatitudeDegrees>
              <LongitudeDegrees>-6.34934286586940288543701171875</LongitudeDegrees>
            </Position>
            <AltitudeMeters>376</AltitudeMeters>
            <DistanceMeters>NAN</DistanceMeters>
          </Trackpoint>
          <Trackpoint>
            <Time>2019-10-09T07:52:35.000Z</Time>
            <Position>
              <LatitudeDegrees>39.3852527439594268798828125</LatitudeDegrees>
              <LongitudeDegrees>-6.3491064123809337615966796875</LongitudeDegrees>
            </Position>
            <AltitudeMeters>375.399993896484375</AltitudeMeters>
            <DistanceMeters>NAN</DistanceMeters>
          </Trackpoint>
          <Trackpoint>
            <Time>2019-10-09T07:52:39.000Z</Time>
            <Position>
              <LatitudeDegrees>39.3850098364055156707763671875</LatitudeDegrees>
              <LongitudeDegrees>-6.34881095029413700103759765625</LongitudeDegrees>
            </Position>
            <AltitudeMeters>374.600006103515625</AltitudeMeters>
            <DistanceMeters>NAN</DistanceMeters>
          </Trackpoint>
          <Trackpoint>
            <Time>2019-10-09T07:52:40.000Z</Time>
            <Position>
              <LatitudeDegrees>39.38494303263723850250244140625</LatitudeDegrees>
              <LongitudeDegrees>-6.34874355979263782501220703125</LongitudeDegrees>
            </Position>
            <AltitudeMeters>374.20001220703125</AltitudeMeters>
            <DistanceMeters>NAN</DistanceMeters>
          </Trackpoint>
          <Trackpoint>
            <Time>2019-10-09T07:52:45.000Z</Time>
            <Position>
              <LatitudeDegrees>39.38458814285695552825927734375</LatitudeDegrees>
              <LongitudeDegrees>-6.348440386354923248291015625</LongitudeDegrees>
            </Position>
            <AltitudeMeters>373.20001220703125</AltitudeMeters>
            <DistanceMeters>NAN</DistanceMeters>
          </Trackpoint>
          <Trackpoint>
            <Time>2019-10-09T07:52:51.000Z</Time>
            <Position>
              <LatitudeDegrees>39.3841277249157428741455078125</LatitudeDegrees>
              <LongitudeDegrees>-6.34818264283239841461181640625</LongitudeDegrees>
            </Position>
            <AltitudeMeters>372.20001220703125</AltitudeMeters>
            <DistanceMeters>NAN</DistanceMeters>
          </Trackpoint>
          <Trackpoint>
            <Time>2019-10-09T07:52:52.000Z</Time>
            <Position>
              <LatitudeDegrees>39.38404968939721584320068359375</LatitudeDegrees>
              <LongitudeDegrees>-6.34815095923840999603271484375</LongitudeDegrees>
            </Position>
            <AltitudeMeters>372</AltitudeMeters>
            <DistanceMeters>NAN</DistanceMeters>
          </Trackpoint>
          <Trackpoint>
            <Time>2019-10-09T07:52:59.000Z</Time>
            <Position>
              <LatitudeDegrees>39.3835185281932353973388671875</LatitudeDegrees>
              <LongitudeDegrees>-6.3479644618928432464599609375</LongitudeDegrees>
            </Position>
            <AltitudeMeters>371.399993896484375</AltitudeMeters>
            <DistanceMeters>NAN</DistanceMeters>
          </Trackpoint>
          <Trackpoint>
            <Time>2019-10-09T07:53:04.000Z</Time>
            <Position>
              <LatitudeDegrees>39.38314092345535755157470703125</LatitudeDegrees>
              <LongitudeDegrees>-6.34783362038433551788330078125</LongitudeDegrees>
            </Position>
            <AltitudeMeters>370.79998779296875</AltitudeMeters>
            <DistanceMeters>NAN</DistanceMeters>
          </Trackpoint>
          <Trackpoint>
            <Time>2019-10-09T07:53:08.000Z</Time>
            <Position>
              <LatitudeDegrees>39.382842443883419036865234375</LatitudeDegrees>
              <LongitudeDegrees>-6.34772800840437412261962890625</LongitudeDegrees>
            </Position>
            <AltitudeMeters>370.20001220703125</AltitudeMeters>
            <DistanceMeters>NAN</DistanceMeters>
          </Trackpoint>
          <Trackpoint>
            <Time>2019-10-09T07:53:13.000Z</Time>
            <Position>
              <LatitudeDegrees>39.38246366567909717559814453125</LatitudeDegrees>
              <LongitudeDegrees>-6.34761854074895381927490234375</LongitudeDegrees>
            </Position>
            <AltitudeMeters>369.79998779296875</AltitudeMeters>
            <DistanceMeters>NAN</DistanceMeters>
          </Trackpoint>
          <Trackpoint>
            <Time>2019-10-09T07:53:16.000Z</Time>
            <Position>
              <LatitudeDegrees>39.38223467208445072174072265625</LatitudeDegrees>
              <LongitudeDegrees>-6.34755534119904041290283203125</LongitudeDegrees>
            </Position>
            <AltitudeMeters>369.399993896484375</AltitudeMeters>
            <DistanceMeters>NAN</DistanceMeters>
          </Trackpoint>
          <Trackpoint>
            <Time>2019-10-09T07:53:23.000Z</Time>
            <Position>
              <LatitudeDegrees>39.3817140720784664154052734375</LatitudeDegrees>
              <LongitudeDegrees>-6.34736775420606136322021484375</LongitudeDegrees>
            </Position>
            <AltitudeMeters>369</AltitudeMeters>
            <DistanceMeters>NAN</DistanceMeters>
          </Trackpoint>
          <Trackpoint>
            <Time>2019-10-09T07:53:24.000Z</Time>
            <Position>
              <LatitudeDegrees>39.381638467311859130859375</LatitudeDegrees>
              <LongitudeDegrees>-6.34734143503010272979736328125</LongitudeDegrees>
            </Position>
            <AltitudeMeters>368.79998779296875</AltitudeMeters>
            <DistanceMeters>NAN</DistanceMeters>
          </Trackpoint>
          <Trackpoint>
            <Time>2019-10-09T07:53:25.000Z</Time>
            <Position>
              <LatitudeDegrees>39.381563365459442138671875</LatitudeDegrees>
              <LongitudeDegrees>-6.34731419384479522705078125</LongitudeDegrees>
            </Position>
            <AltitudeMeters>368.79998779296875</AltitudeMeters>
            <DistanceMeters>NAN</DistanceMeters>
          </Trackpoint>
          <Trackpoint>
            <Time>2019-10-09T07:53:32.000Z</Time>
            <Position>
              <LatitudeDegrees>39.38104636967182159423828125</LatitudeDegrees>
              <LongitudeDegrees>-6.34711973369121551513671875</LongitudeDegrees>
            </Position>
            <AltitudeMeters>367.600006103515625</AltitudeMeters>
            <DistanceMeters>NAN</DistanceMeters>
          </Trackpoint>
          <Trackpoint>
            <Time>2019-10-09T07:53:34.000Z</Time>
            <Position>
              <LatitudeDegrees>39.38090018928050994873046875</LatitudeDegrees>
              <LongitudeDegrees>-6.34706365875899791717529296875</LongitudeDegrees>
            </Position>
            <AltitudeMeters>367.79998779296875</AltitudeMeters>
            <DistanceMeters>NAN</DistanceMeters>
          </Trackpoint>
          <Trackpoint>
            <Time>2019-10-09T07:53:41.000Z</Time>
            <Position>
              <LatitudeDegrees>39.380390904843807220458984375</LatitudeDegrees>
              <LongitudeDegrees>-6.34687565267086029052734375</LongitudeDegrees>
            </Position>
            <AltitudeMeters>367.20001220703125</AltitudeMeters>
            <DistanceMeters>NAN</DistanceMeters>
          </Trackpoint>
          <Trackpoint>
            <Time>2019-10-09T07:53:44.000Z</Time>
            <Position>
              <LatitudeDegrees>39.38017356209456920623779296875</LatitudeDegrees>
              <LongitudeDegrees>-6.34680164046585559844970703125</LongitudeDegrees>
            </Position>
            <AltitudeMeters>367</AltitudeMeters>
            <DistanceMeters>NAN</DistanceMeters>
          </Trackpoint>
          <Trackpoint>
            <Time>2019-10-09T07:53:52.000Z</Time>
            <Position>
              <LatitudeDegrees>39.37960962764918804168701171875</LatitudeDegrees>
              <LongitudeDegrees>-6.34661036543548107147216796875</LongitudeDegrees>
            </Position>
            <AltitudeMeters>367.600006103515625</AltitudeMeters>
            <DistanceMeters>NAN</DistanceMeters>
          </Trackpoint>
          <Trackpoint>
            <Time>2019-10-09T07:53:54.000Z</Time>
            <Position>
              <LatitudeDegrees>39.3794717453420162200927734375</LatitudeDegrees>
              <LongitudeDegrees>-6.346562169492244720458984375</LongitudeDegrees>
            </Position>
            <AltitudeMeters>367.20001220703125</AltitudeMeters>
            <DistanceMeters>NAN</DistanceMeters>
          </Trackpoint>
          <Trackpoint>
            <Time>2019-10-09T07:54:02.000Z</Time>
            <Position>
              <LatitudeDegrees>39.37892817892134189605712890625</LatitudeDegrees>
              <LongitudeDegrees>-6.3463816232979297637939453125</LongitudeDegrees>
            </Position>
            <AltitudeMeters>367.399993896484375</AltitudeMeters>
            <DistanceMeters>NAN</DistanceMeters>
          </Trackpoint>
          <Trackpoint>
            <Time>2019-10-09T07:54:03.000Z</Time>
            <Position>
              <LatitudeDegrees>39.37886246480047702789306640625</LatitudeDegrees>
              <LongitudeDegrees>-6.34635874070227146148681640625</LongitudeDegrees>
            </Position>
            <AltitudeMeters>367</AltitudeMeters>
            <DistanceMeters>NAN</DistanceMeters>
          </Trackpoint>
          <Trackpoint>
            <Time>2019-10-09T07:54:07.000Z</Time>
            <Position>
              <LatitudeDegrees>39.37859659083187580108642578125</LatitudeDegrees>
              <LongitudeDegrees>-6.34626234881579875946044921875</LongitudeDegrees>
            </Position>
            <AltitudeMeters>366.399993896484375</AltitudeMeters>
            <DistanceMeters>NAN</DistanceMeters>
          </Trackpoint>
          <Trackpoint>
            <Time>2019-10-09T07:54:11.000Z</Time>
            <Position>
              <LatitudeDegrees>39.37833038158714771270751953125</LatitudeDegrees>
              <LongitudeDegrees>-6.346173584461212158203125</LongitudeDegrees>
            </Position>
            <AltitudeMeters>366.600006103515625</AltitudeMeters>
            <DistanceMeters>NAN</DistanceMeters>
          </Trackpoint>
          <Trackpoint>
            <Time>2019-10-09T07:54:17.000Z</Time>
            <Position>
              <LatitudeDegrees>39.377918578684329986572265625</LatitudeDegrees>
              <LongitudeDegrees>-6.34603151120245456695556640625</LongitudeDegrees>
            </Position>
            <AltitudeMeters>365.399993896484375</AltitudeMeters>
            <DistanceMeters>NAN</DistanceMeters>
          </Trackpoint>
          <Trackpoint>
            <Time>2019-10-09T07:54:21.000Z</Time>
            <Position>
              <LatitudeDegrees>39.3776344321668148040771484375</LatitudeDegrees>
              <LongitudeDegrees>-6.34593394584953784942626953125</LongitudeDegrees>
            </Position>
            <AltitudeMeters>365.20001220703125</AltitudeMeters>
            <DistanceMeters>NAN</DistanceMeters>
          </Trackpoint>
          <Trackpoint>
            <Time>2019-10-09T07:54:23.000Z</Time>
            <Position>
              <LatitudeDegrees>39.3774902634322643280029296875</LatitudeDegrees>
              <LongitudeDegrees>-6.345882900059223175048828125</LongitudeDegrees>
            </Position>
            <AltitudeMeters>364.20001220703125</AltitudeMeters>
            <DistanceMeters>NAN</DistanceMeters>
          </Trackpoint>
          <Trackpoint>
            <Time>2019-10-09T07:54:30.000Z</Time>
            <Position>
              <LatitudeDegrees>39.37698072753846645355224609375</LatitudeDegrees>
              <LongitudeDegrees>-6.3457047007977962493896484375</LongitudeDegrees>
            </Position>
            <AltitudeMeters>363.399993896484375</AltitudeMeters>
            <DistanceMeters>NAN</DistanceMeters>
          </Trackpoint>
          <Trackpoint>
            <Time>2019-10-09T07:54:31.000Z</Time>
            <Position>
              <LatitudeDegrees>39.376906044781208038330078125</LatitudeDegrees>
              <LongitudeDegrees>-6.34568215347826480865478515625</LongitudeDegrees>
            </Position>
            <AltitudeMeters>363.20001220703125</AltitudeMeters>
            <DistanceMeters>NAN</DistanceMeters>
          </Trackpoint>
          <Trackpoint>
            <Time>2019-10-09T07:54:37.000Z</Time>
            <Position>
              <LatitudeDegrees>39.376458115875720977783203125</LatitudeDegrees>
              <LongitudeDegrees>-6.34552725590765476226806640625</LongitudeDegrees>
            </Position>
            <AltitudeMeters>362.20001220703125</AltitudeMeters>
            <DistanceMeters>NAN</DistanceMeters>
          </Trackpoint>
          <Trackpoint>
            <Time>2019-10-09T07:54:41.000Z</Time>
            <Position>
              <LatitudeDegrees>39.37615561299026012420654296875</LatitudeDegrees>
              <LongitudeDegrees>-6.34542097337543964385986328125</LongitudeDegrees>
            </Position>
            <AltitudeMeters>361.600006103515625</AltitudeMeters>
            <DistanceMeters>NAN</DistanceMeters>
          </Trackpoint>
          <Trackpoint>
            <Time>2019-10-09T07:54:44.000Z</Time>
            <Position>
              <LatitudeDegrees>39.37592745758593082427978515625</LatitudeDegrees>
              <LongitudeDegrees>-6.34534050710499286651611328125</LongitudeDegrees>
            </Position>
            <AltitudeMeters>360.79998779296875</AltitudeMeters>
            <DistanceMeters>NAN</DistanceMeters>
          </Trackpoint>
          <Trackpoint>
            <Time>2019-10-09T07:54:51.000Z</Time>
            <Position>
              <LatitudeDegrees>39.3753983080387115478515625</LatitudeDegrees>
              <LongitudeDegrees>-6.3451531715691089630126953125</LongitudeDegrees>
            </Position>
            <AltitudeMeters>360.20001220703125</AltitudeMeters>
            <DistanceMeters>NAN</DistanceMeters>
          </Trackpoint>
          <Trackpoint>
            <Time>2019-10-09T07:54:52.000Z</Time>
            <Position>
              <LatitudeDegrees>39.375324212014675140380859375</LatitudeDegrees>
              <LongitudeDegrees>-6.34512693621218204498291015625</LongitudeDegrees>
            </Position>
            <AltitudeMeters>360</AltitudeMeters>
            <DistanceMeters>NAN</DistanceMeters>
          </Trackpoint>
          <Trackpoint>
            <Time>2019-10-09T07:54:57.000Z</Time>
            <Position>
              <LatitudeDegrees>39.37494861893355846405029296875</LatitudeDegrees>
              <LongitudeDegrees>-6.345000453293323516845703125</LongitudeDegrees>
            </Position>
            <AltitudeMeters>359.600006103515625</AltitudeMeters>
            <DistanceMeters>NAN</DistanceMeters>
          </Trackpoint>
          <Trackpoint>
            <Time>2019-10-09T07:55:04.000Z</Time>
            <Position>
              <LatitudeDegrees>39.37442927621304988861083984375</LatitudeDegrees>
              <LongitudeDegrees>-6.34482242166996002197265625</LongitudeDegrees>
            </Position>
            <AltitudeMeters>359.399993896484375</AltitudeMeters>
            <DistanceMeters>NAN</DistanceMeters>
          </Trackpoint>
          <Trackpoint>
            <Time>2019-10-09T07:55:11.000Z</Time>
            <Position>
              <LatitudeDegrees>39.373917393386363983154296875</LatitudeDegrees>
              <LongitudeDegrees>-6.34464765898883342742919921875</LongitudeDegrees>
            </Position>
            <AltitudeMeters>358.79998779296875</AltitudeMeters>
            <DistanceMeters>NAN</DistanceMeters>
          </Trackpoint>
          <Trackpoint>
            <Time>2019-10-09T07:55:12.000Z</Time>
            <Position>
              <LatitudeDegrees>39.37384488992393016815185546875</LatitudeDegrees>
              <LongitudeDegrees>-6.34462150745093822479248046875</LongitudeDegrees>
            </Position>
            <AltitudeMeters>358.399993896484375</AltitudeMeters>
            <DistanceMeters>NAN</DistanceMeters>
          </Trackpoint>
          <Trackpoint>
            <Time>2019-10-09T07:55:16.000Z</Time>
            <Position>
              <LatitudeDegrees>39.373557306826114654541015625</LatitudeDegrees>
              <LongitudeDegrees>-6.344525702297687530517578125</LongitudeDegrees>
            </Position>
            <AltitudeMeters>358.79998779296875</AltitudeMeters>
            <DistanceMeters>NAN</DistanceMeters>
          </Trackpoint>
          <Trackpoint>
            <Time>2019-10-09T07:55:20.000Z</Time>
            <Position>
              <LatitudeDegrees>39.373269975185394287109375</LatitudeDegrees>
              <LongitudeDegrees>-6.34442788548767566680908203125</LongitudeDegrees>
            </Position>
            <AltitudeMeters>358.20001220703125</AltitudeMeters>
            <DistanceMeters>NAN</DistanceMeters>
          </Trackpoint>
          <Trackpoint>
            <Time>2019-10-09T07:55:23.000Z</Time>
            <Position>
              <LatitudeDegrees>39.37306344509124755859375</LatitudeDegrees>
              <LongitudeDegrees>-6.3443542085587978363037109375</LongitudeDegrees>
            </Position>
            <AltitudeMeters>358.20001220703125</AltitudeMeters>
            <DistanceMeters>NAN</DistanceMeters>
          </Trackpoint>
          <Trackpoint>
            <Time>2019-10-09T07:55:26.000Z</Time>
            <Position>
              <LatitudeDegrees>39.37286772765219211578369140625</LatitudeDegrees>
              <LongitudeDegrees>-6.34428807534277439117431640625</LongitudeDegrees>
            </Position>
            <AltitudeMeters>358</AltitudeMeters>
            <DistanceMeters>NAN</DistanceMeters>
          </Trackpoint>
          <Trackpoint>
            <Time>2019-10-09T07:55:28.000Z</Time>
            <Position>
              <LatitudeDegrees>39.3727394007146358489990234375</LatitudeDegrees>
              <LongitudeDegrees>-6.34423996321856975555419921875</LongitudeDegrees>
            </Position>
            <AltitudeMeters>358</AltitudeMeters>
            <DistanceMeters>NAN</DistanceMeters>
          </Trackpoint>
          <Trackpoint>
            <Time>2019-10-09T07:55:30.000Z</Time>
            <Position>
              <LatitudeDegrees>39.37261358834803104400634765625</LatitudeDegrees>
              <LongitudeDegrees>-6.3441972993314266204833984375</LongitudeDegrees>
            </Position>
            <AltitudeMeters>357.79998779296875</AltitudeMeters>
            <DistanceMeters>NAN</DistanceMeters>
          </Trackpoint>
          <Trackpoint>
            <Time>2019-10-09T07:55:35.000Z</Time>
            <Position>
              <LatitudeDegrees>39.3722958303987979888916015625</LatitudeDegrees>
              <LongitudeDegrees>-6.3440873287618160247802734375</LongitudeDegrees>
            </Position>
            <AltitudeMeters>357.399993896484375</AltitudeMeters>
            <DistanceMeters>NAN</DistanceMeters>
          </Trackpoint>
          <Trackpoint>
            <Time>2019-10-09T07:55:36.000Z</Time>
            <Position>
              <LatitudeDegrees>39.3722321279346942901611328125</LatitudeDegrees>
              <LongitudeDegrees>-6.34406603872776031494140625</LongitudeDegrees>
            </Position>
            <AltitudeMeters>357.399993896484375</AltitudeMeters>
            <DistanceMeters>NAN</DistanceMeters>
          </Trackpoint>
          <Trackpoint>
            <Time>2019-10-09T07:55:38.000Z</Time>
            <Position>
              <LatitudeDegrees>39.372101537883281707763671875</LatitudeDegrees>
              <LongitudeDegrees>-6.34402169845998287200927734375</LongitudeDegrees>
            </Position>
            <AltitudeMeters>357</AltitudeMeters>
            <DistanceMeters>NAN</DistanceMeters>
          </Trackpoint>
          <Trackpoint>
            <Time>2019-10-09T07:55:45.000Z</Time>
            <Position>
              <LatitudeDegrees>39.37163743190467357635498046875</LatitudeDegrees>
              <LongitudeDegrees>-6.34386026300489902496337890625</LongitudeDegrees>
            </Position>
            <AltitudeMeters>356.20001220703125</AltitudeMeters>
            <DistanceMeters>NAN</DistanceMeters>
          </Trackpoint>
          <Trackpoint>
            <Time>2019-10-09T07:55:47.000Z</Time>
            <Position>
              <LatitudeDegrees>39.3715035729110240936279296875</LatitudeDegrees>
              <LongitudeDegrees>-6.343815587460994720458984375</LongitudeDegrees>
            </Position>
            <AltitudeMeters>356</AltitudeMeters>
            <DistanceMeters>NAN</DistanceMeters>
          </Trackpoint>
          <Trackpoint>
            <Time>2019-10-09T07:55:55.000Z</Time>
            <Position>
              <LatitudeDegrees>39.37095732428133487701416015625</LatitudeDegrees>
              <LongitudeDegrees>-6.3436283357441425323486328125</LongitudeDegrees>
            </Position>
            <AltitudeMeters>355.600006103515625</AltitudeMeters>
            <DistanceMeters>NAN</DistanceMeters>
          </Trackpoint>
          <Trackpoint>
            <Time>2019-10-09T07:55:56.000Z</Time>
            <Position>
              <LatitudeDegrees>39.37088808976113796234130859375</LatitudeDegrees>
              <LongitudeDegrees>-6.34360461495816707611083984375</LongitudeDegrees>
            </Position>
            <AltitudeMeters>355.79998779296875</AltitudeMeters>
            <DistanceMeters>NAN</DistanceMeters>
          </Trackpoint>
          <Trackpoint>
            <Time>2019-10-09T07:56:00.000Z</Time>
            <Position>
              <LatitudeDegrees>39.37061081640422344207763671875</LatitudeDegrees>
              <LongitudeDegrees>-6.34350989945232868194580078125</LongitudeDegrees>
            </Position>
            <AltitudeMeters>355.20001220703125</AltitudeMeters>
            <DistanceMeters>NAN</DistanceMeters>
          </Trackpoint>
          <Trackpoint>
            <Time>2019-10-09T07:56:07.000Z</Time>
            <Position>
              <LatitudeDegrees>39.37011846341192722320556640625</LatitudeDegrees>
              <LongitudeDegrees>-6.3433446921408176422119140625</LongitudeDegrees>
            </Position>
            <AltitudeMeters>354.600006103515625</AltitudeMeters>
            <DistanceMeters>NAN</DistanceMeters>
          </Trackpoint>
          <Trackpoint>
            <Time>2019-10-09T07:56:09.000Z</Time>
            <Position>
              <LatitudeDegrees>39.36997689306735992431640625</LatitudeDegrees>
              <LongitudeDegrees>-6.34329884313046932220458984375</LongitudeDegrees>
            </Position>
            <AltitudeMeters>353.79998779296875</AltitudeMeters>
            <DistanceMeters>NAN</DistanceMeters>
          </Trackpoint>
          <Trackpoint>
            <Time>2019-10-09T07:56:17.000Z</Time>
            <Position>
              <LatitudeDegrees>39.369422011077404022216796875</LatitudeDegrees>
              <LongitudeDegrees>-6.3431066460907459259033203125</LongitudeDegrees>
            </Position>
            <AltitudeMeters>353.600006103515625</AltitudeMeters>
            <DistanceMeters>NAN</DistanceMeters>
          </Trackpoint>
          <Trackpoint>
            <Time>2019-10-09T07:56:25.000Z</Time>
            <Position>
              <LatitudeDegrees>39.3688733316957950592041015625</LatitudeDegrees>
              <LongitudeDegrees>-6.34292316623032093048095703125</LongitudeDegrees>
            </Position>
            <AltitudeMeters>352.79998779296875</AltitudeMeters>
            <DistanceMeters>NAN</DistanceMeters>
          </Trackpoint>
          <Trackpoint>
            <Time>2019-10-09T07:56:26.000Z</Time>
            <Position>
              <LatitudeDegrees>39.36880501918494701385498046875</LatitudeDegrees>
              <LongitudeDegrees>-6.34289986453950405120849609375</LongitudeDegrees>
            </Position>
            <AltitudeMeters>352.79998779296875</AltitudeMeters>
            <DistanceMeters>NAN</DistanceMeters>
          </Trackpoint>
          <Trackpoint>
            <Time>2019-10-09T07:56:28.000Z</Time>
            <Position>
              <LatitudeDegrees>39.3686691485345363616943359375</LatitudeDegrees>
              <LongitudeDegrees>-6.34285309351980686187744140625</LongitudeDegrees>
            </Position>
            <AltitudeMeters>352.600006103515625</AltitudeMeters>
            <DistanceMeters>NAN</DistanceMeters>
          </Trackpoint>
          <Trackpoint>
            <Time>2019-10-09T07:56:35.000Z</Time>
            <Position>
              <LatitudeDegrees>39.36820051632821559906005859375</LatitudeDegrees>
              <LongitudeDegrees>-6.34268947876989841461181640625</LongitudeDegrees>
            </Position>
            <AltitudeMeters>353.20001220703125</AltitudeMeters>
            <DistanceMeters>NAN</DistanceMeters>
          </Trackpoint>
          <Trackpoint>
            <Time>2019-10-09T07:56:36.000Z</Time>
            <Position>
              <LatitudeDegrees>39.36813329346477985382080078125</LatitudeDegrees>
              <LongitudeDegrees>-6.342665590345859527587890625</LongitudeDegrees>
            </Position>
            <AltitudeMeters>353</AltitudeMeters>
            <DistanceMeters>NAN</DistanceMeters>
          </Trackpoint>
          <Trackpoint>
            <Time>2019-10-09T07:56:42.000Z</Time>
            <Position>
              <LatitudeDegrees>39.36774051748216152191162109375</LatitudeDegrees>
              <LongitudeDegrees>-6.3425324857234954833984375</LongitudeDegrees>
            </Position>
            <AltitudeMeters>352.600006103515625</AltitudeMeters>
            <DistanceMeters>NAN</DistanceMeters>
          </Trackpoint>
          <Trackpoint>
            <Time>2019-10-09T07:56:46.000Z</Time>
            <Position>
              <LatitudeDegrees>39.36747699044644832611083984375</LatitudeDegrees>
              <LongitudeDegrees>-6.34244170971214771270751953125</LongitudeDegrees>
            </Position>
            <AltitudeMeters>353</AltitudeMeters>
            <DistanceMeters>NAN</DistanceMeters>
          </Trackpoint>
          <Trackpoint>
            <Time>2019-10-09T07:56:54.000Z</Time>
            <Position>
              <LatitudeDegrees>39.3669542111456394195556640625</LatitudeDegrees>
              <LongitudeDegrees>-6.3422553800046443939208984375</LongitudeDegrees>
            </Position>
            <AltitudeMeters>353</AltitudeMeters>
            <DistanceMeters>NAN</DistanceMeters>
          </Trackpoint>
          <Trackpoint>
            <Time>2019-10-09T07:56:57.000Z</Time>
            <Position>
              <LatitudeDegrees>39.36676067300140857696533203125</LatitudeDegrees>
              <LongitudeDegrees>-6.34218857623636722564697265625</LongitudeDegrees>
            </Position>
            <AltitudeMeters>352.600006103515625</AltitudeMeters>
            <DistanceMeters>NAN</DistanceMeters>
          </Trackpoint>
          <Trackpoint>
            <Time>2019-10-09T07:57:05.000Z</Time>
            <Position>
              <LatitudeDegrees>39.366243593394756317138671875</LatitudeDegrees>
              <LongitudeDegrees>-6.3420076109468936920166015625</LongitudeDegrees>
            </Position>
            <AltitudeMeters>353</AltitudeMeters>
            <DistanceMeters>NAN</DistanceMeters>
          </Trackpoint>
          <Trackpoint>
            <Time>2019-10-09T07:57:08.000Z</Time>
            <Position>
              <LatitudeDegrees>39.3660519830882549285888671875</LatitudeDegrees>
              <LongitudeDegrees>-6.3419398851692676544189453125</LongitudeDegrees>
            </Position>
            <AltitudeMeters>352.600006103515625</AltitudeMeters>
            <DistanceMeters>NAN</DistanceMeters>
          </Trackpoint>
          <Trackpoint>
            <Time>2019-10-09T07:57:16.000Z</Time>
            <Position>
              <LatitudeDegrees>39.36553917825222015380859375</LatitudeDegrees>
              <LongitudeDegrees>-6.34176093153655529022216796875</LongitudeDegrees>
            </Position>
            <AltitudeMeters>352.79998779296875</AltitudeMeters>
            <DistanceMeters>NAN</DistanceMeters>
          </Trackpoint>
          <Trackpoint>
            <Time>2019-10-09T07:57:19.000Z</Time>
            <Position>
              <LatitudeDegrees>39.3653311394155025482177734375</LatitudeDegrees>
              <LongitudeDegrees>-6.34169052354991436004638671875</LongitudeDegrees>
            </Position>
            <AltitudeMeters>352.600006103515625</AltitudeMeters>
            <DistanceMeters>NAN</DistanceMeters>
          </Trackpoint>
          <Trackpoint>
            <Time>2019-10-09T07:57:28.000Z</Time>
            <Position>
              <LatitudeDegrees>39.36480299569666385650634765625</LatitudeDegrees>
              <LongitudeDegrees>-6.34150796569883823394775390625</LongitudeDegrees>
            </Position>
            <AltitudeMeters>353.79998779296875</AltitudeMeters>
            <DistanceMeters>NAN</DistanceMeters>
          </Trackpoint>
          <Trackpoint>
            <Time>2019-10-09T07:57:34.000Z</Time>
            <Position>
              <LatitudeDegrees>39.364500157535076141357421875</LatitudeDegrees>
              <LongitudeDegrees>-6.341400258243083953857421875</LongitudeDegrees>
            </Position>
            <AltitudeMeters>354.79998779296875</AltitudeMeters>
            <DistanceMeters>NAN</DistanceMeters>
          </Trackpoint>
          <Trackpoint>
            <Time>2019-10-09T07:57:35.000Z</Time>
            <Position>
              <LatitudeDegrees>39.36445447616279125213623046875</LatitudeDegrees>
              <LongitudeDegrees>-6.3413866795599460601806640625</LongitudeDegrees>
            </Position>
            <AltitudeMeters>355</AltitudeMeters>
            <DistanceMeters>NAN</DistanceMeters>
          </Trackpoint>
          <Trackpoint>
            <Time>2019-10-09T07:57:40.000Z</Time>
            <Position>
              <LatitudeDegrees>39.3642435036599636077880859375</LatitudeDegrees>
              <LongitudeDegrees>-6.34131400845944881439208984375</LongitudeDegrees>
            </Position>
            <AltitudeMeters>356</AltitudeMeters>
            <DistanceMeters>NAN</DistanceMeters>
          </Trackpoint>
          <Trackpoint>
            <Time>2019-10-09T07:57:43.000Z</Time>
            <Position>
              <LatitudeDegrees>39.3641264922916889190673828125</LatitudeDegrees>
              <LongitudeDegrees>-6.341270506381988525390625</LongitudeDegrees>
            </Position>
            <AltitudeMeters>356.600006103515625</AltitudeMeters>
            <DistanceMeters>NAN</DistanceMeters>
          </Trackpoint>
          <Trackpoint>
            <Time>2019-10-09T07:57:46.000Z</Time>
            <Position>
              <LatitudeDegrees>39.36400889419019222259521484375</LatitudeDegrees>
              <LongitudeDegrees>-6.341229937970638275146484375</LongitudeDegrees>
            </Position>
            <AltitudeMeters>357</AltitudeMeters>
            <DistanceMeters>NAN</DistanceMeters>
          </Trackpoint>
          <Trackpoint>
            <Time>2019-10-09T07:57:51.000Z</Time>
            <Position>
              <LatitudeDegrees>39.36381678096950054168701171875</LatitudeDegrees>
              <LongitudeDegrees>-6.34116296656429767608642578125</LongitudeDegrees>
            </Position>
            <AltitudeMeters>357.600006103515625</AltitudeMeters>
            <DistanceMeters>NAN</DistanceMeters>
          </Trackpoint>
          <Trackpoint>
            <Time>2019-10-09T07:57:52.000Z</Time>
            <Position>
              <LatitudeDegrees>39.3637771345674991607666015625</LatitudeDegrees>
              <LongitudeDegrees>-6.34114913642406463623046875</LongitudeDegrees>
            </Position>
            <AltitudeMeters>358</AltitudeMeters>
            <DistanceMeters>NAN</DistanceMeters>
          </Trackpoint>
          <Trackpoint>
            <Time>2019-10-09T07:57:58.000Z</Time>
            <Position>
              <LatitudeDegrees>39.3635431118309497833251953125</LatitudeDegrees>
              <LongitudeDegrees>-6.34106473065912723541259765625</LongitudeDegrees>
            </Position>
            <AltitudeMeters>358.79998779296875</AltitudeMeters>
            <DistanceMeters>NAN</DistanceMeters>
          </Trackpoint>
          <Trackpoint>
            <Time>2019-10-09T07:58:04.000Z</Time>
            <Position>
              <LatitudeDegrees>39.36331872828304767608642578125</LatitudeDegrees>
              <LongitudeDegrees>-6.3409856893122196197509765625</LongitudeDegrees>
            </Position>
            <AltitudeMeters>359.20001220703125</AltitudeMeters>
            <DistanceMeters>NAN</DistanceMeters>
          </Trackpoint>
          <Trackpoint>
            <Time>2019-10-09T07:58:07.000Z</Time>
            <Position>
              <LatitudeDegrees>39.3632103502750396728515625</LatitudeDegrees>
              <LongitudeDegrees>-6.3409464620053768157958984375</LongitudeDegrees>
            </Position>
            <AltitudeMeters>360</AltitudeMeters>
            <DistanceMeters>NAN</DistanceMeters>
          </Trackpoint>
          <Trackpoint>
            <Time>2019-10-09T07:58:11.000Z</Time>
            <Position>
              <LatitudeDegrees>39.36306308023631572723388671875</LatitudeDegrees>
              <LongitudeDegrees>-6.3408991880714893341064453125</LongitudeDegrees>
            </Position>
            <AltitudeMeters>360.399993896484375</AltitudeMeters>
            <DistanceMeters>NAN</DistanceMeters>
          </Trackpoint>
          <Trackpoint>
            <Time>2019-10-09T07:58:17.000Z</Time>
            <Position>
              <LatitudeDegrees>39.362846910953521728515625</LatitudeDegrees>
              <LongitudeDegrees>-6.3408281095325946807861328125</LongitudeDegrees>
            </Position>
            <AltitudeMeters>361.20001220703125</AltitudeMeters>
            <DistanceMeters>NAN</DistanceMeters>
          </Trackpoint>
          <Trackpoint>
            <Time>2019-10-09T07:58:19.000Z</Time>
            <Position>
              <LatitudeDegrees>39.3627766706049442291259765625</LatitudeDegrees>
              <LongitudeDegrees>-6.340801455080509185791015625</LongitudeDegrees>
            </Position>
            <AltitudeMeters>361.79998779296875</AltitudeMeters>
            <DistanceMeters>NAN</DistanceMeters>
          </Trackpoint>
          <Trackpoint>
            <Time>2019-10-09T07:58:27.000Z</Time>
            <Position>
              <LatitudeDegrees>39.3625022470951080322265625</LatitudeDegrees>
              <LongitudeDegrees>-6.34070657193660736083984375</LongitudeDegrees>
            </Position>
            <AltitudeMeters>362.600006103515625</AltitudeMeters>
            <DistanceMeters>NAN</DistanceMeters>
          </Trackpoint>
          <Trackpoint>
            <Time>2019-10-09T07:58:28.000Z</Time>
            <Position>
              <LatitudeDegrees>39.36246695928275585174560546875</LatitudeDegrees>
              <LongitudeDegrees>-6.34069676510989665985107421875</LongitudeDegrees>
            </Position>
            <AltitudeMeters>362.79998779296875</AltitudeMeters>
            <DistanceMeters>NAN</DistanceMeters>
          </Trackpoint>
          <Trackpoint>
            <Time>2019-10-09T07:58:37.000Z</Time>
            <Position>
              <LatitudeDegrees>39.36215716414153575897216796875</LatitudeDegrees>
              <LongitudeDegrees>-6.3405776582658290863037109375</LongitudeDegrees>
            </Position>
            <AltitudeMeters>364</AltitudeMeters>
            <DistanceMeters>NAN</DistanceMeters>
          </Trackpoint>
          <Trackpoint>
            <Time>2019-10-09T07:58:43.000Z</Time>
            <Position>
              <LatitudeDegrees>39.36195784248411655426025390625</LatitudeDegrees>
              <LongitudeDegrees>-6.34048202075064182281494140625</LongitudeDegrees>
            </Position>
            <AltitudeMeters>365</AltitudeMeters>
            <DistanceMeters>NAN</DistanceMeters>
          </Trackpoint>
          <Trackpoint>
            <Time>2019-10-09T07:58:46.000Z</Time>
            <Position>
              <LatitudeDegrees>39.36185575090348720550537109375</LatitudeDegrees>
              <LongitudeDegrees>-6.34042552672326564788818359375</LongitudeDegrees>
            </Position>
            <AltitudeMeters>365.20001220703125</AltitudeMeters>
            <DistanceMeters>NAN</DistanceMeters>
          </Trackpoint>
          <Trackpoint>
            <Time>2019-10-09T07:58:52.000Z</Time>
            <Position>
              <LatitudeDegrees>39.361661039292812347412109375</LatitudeDegrees>
              <LongitudeDegrees>-6.34030549786984920501708984375</LongitudeDegrees>
            </Position>
            <AltitudeMeters>366</AltitudeMeters>
            <DistanceMeters>NAN</DistanceMeters>
          </Trackpoint>
          <Trackpoint>
            <Time>2019-10-09T07:58:54.000Z</Time>
            <Position>
              <LatitudeDegrees>39.36159993521869182586669921875</LatitudeDegrees>
              <LongitudeDegrees>-6.3402593135833740234375</LongitudeDegrees>
            </Position>
            <AltitudeMeters>366.399993896484375</AltitudeMeters>
            <DistanceMeters>NAN</DistanceMeters>
          </Trackpoint>
          <Trackpoint>
            <Time>2019-10-09T07:59:01.000Z</Time>
            <Position>
              <LatitudeDegrees>39.36138485558331012725830078125</LatitudeDegrees>
              <LongitudeDegrees>-6.34008455090224742889404296875</LongitudeDegrees>
            </Position>
            <AltitudeMeters>367.20001220703125</AltitudeMeters>
            <DistanceMeters>NAN</DistanceMeters>
          </Trackpoint>
          <Trackpoint>
            <Time>2019-10-09T07:59:04.000Z</Time>
            <Position>
              <LatitudeDegrees>39.36129617504775524139404296875</LatitudeDegrees>
              <LongitudeDegrees>-6.34000324644148349761962890625</LongitudeDegrees>
            </Position>
            <AltitudeMeters>367.399993896484375</AltitudeMeters>
            <DistanceMeters>NAN</DistanceMeters>
          </Trackpoint>
          <Trackpoint>
            <Time>2019-10-09T07:59:11.000Z</Time>
            <Position>
              <LatitudeDegrees>39.3610949255526065826416015625</LatitudeDegrees>
              <LongitudeDegrees>-6.33979638107120990753173828125</LongitudeDegrees>
            </Position>
            <AltitudeMeters>368.20001220703125</AltitudeMeters>
            <DistanceMeters>NAN</DistanceMeters>
          </Trackpoint>
          <Trackpoint>
            <Time>2019-10-09T07:59:14.000Z</Time>
            <Position>
              <LatitudeDegrees>39.361008591949939727783203125</LatitudeDegrees>
              <LongitudeDegrees>-6.33970786817371845245361328125</LongitudeDegrees>
            </Position>
            <AltitudeMeters>368.399993896484375</AltitudeMeters>
            <DistanceMeters>NAN</DistanceMeters>
          </Trackpoint>
          <Trackpoint>
            <Time>2019-10-09T07:59:22.000Z</Time>
            <Position>
              <LatitudeDegrees>39.3607834540307521820068359375</LatitudeDegrees>
              <LongitudeDegrees>-6.3394598476588726043701171875</LongitudeDegrees>
            </Position>
            <AltitudeMeters>369.20001220703125</AltitudeMeters>
            <DistanceMeters>NAN</DistanceMeters>
          </Trackpoint>
          <Trackpoint>
            <Time>2019-10-09T07:59:25.000Z</Time>
            <Position>
              <LatitudeDegrees>39.360698796808719635009765625</LatitudeDegrees>
              <LongitudeDegrees>-6.339365132153034210205078125</LongitudeDegrees>
            </Position>
            <AltitudeMeters>369.399993896484375</AltitudeMeters>
            <DistanceMeters>NAN</DistanceMeters>
          </Trackpoint>
          <Trackpoint>
            <Time>2019-10-09T07:59:30.000Z</Time>
            <Position>
              <LatitudeDegrees>39.3605568073689937591552734375</LatitudeDegrees>
              <LongitudeDegrees>-6.3392093963921070098876953125</LongitudeDegrees>
            </Position>
            <AltitudeMeters>370.600006103515625</AltitudeMeters>
            <DistanceMeters>NAN</DistanceMeters>
          </Trackpoint>
          <Trackpoint>
            <Time>2019-10-09T07:59:35.000Z</Time>
            <Position>
              <LatitudeDegrees>39.360411129891872406005859375</LatitudeDegrees>
              <LongitudeDegrees>-6.3390541635453701019287109375</LongitudeDegrees>
            </Position>
            <AltitudeMeters>370.399993896484375</AltitudeMeters>
            <DistanceMeters>NAN</DistanceMeters>
          </Trackpoint>
          <Trackpoint>
            <Time>2019-10-09T07:59:44.000Z</Time>
            <Position>
              <LatitudeDegrees>39.3601434119045734405517578125</LatitudeDegrees>
              <LongitudeDegrees>-6.3387628085911273956298828125</LongitudeDegrees>
            </Position>
            <AltitudeMeters>370.79998779296875</AltitudeMeters>
            <DistanceMeters>NAN</DistanceMeters>
          </Trackpoint>
          <Trackpoint>
            <Time>2019-10-09T07:59:52.000Z</Time>
            <Position>
              <LatitudeDegrees>39.3598627857863903045654296875</LatitudeDegrees>
              <LongitudeDegrees>-6.33846692740917205810546875</LongitudeDegrees>
            </Position>
            <AltitudeMeters>370.79998779296875</AltitudeMeters>
            <DistanceMeters>NAN</DistanceMeters>
          </Trackpoint>
          <Trackpoint>
            <Time>2019-10-09T07:59:59.000Z</Time>
            <Position>
              <LatitudeDegrees>39.35960621573030948638916015625</LatitudeDegrees>
              <LongitudeDegrees>-6.3382194936275482177734375</LongitudeDegrees>
            </Position>
            <AltitudeMeters>370.600006103515625</AltitudeMeters>
            <DistanceMeters>NAN</DistanceMeters>
          </Trackpoint>
          <Trackpoint>
            <Time>2019-10-09T08:00:02.000Z</Time>
            <Position>
              <LatitudeDegrees>39.3594909645617008209228515625</LatitudeDegrees>
              <LongitudeDegrees>-6.3381264545023441314697265625</LongitudeDegrees>
            </Position>
            <AltitudeMeters>371</AltitudeMeters>
            <DistanceMeters>NAN</DistanceMeters>
          </Trackpoint>
          <Trackpoint>
            <Time>2019-10-09T08:00:03.000Z</Time>
            <Position>
              <LatitudeDegrees>39.35945198871195316314697265625</LatitudeDegrees>
              <LongitudeDegrees>-6.33809544146060943603515625</LongitudeDegrees>
            </Position>
            <AltitudeMeters>371</AltitudeMeters>
            <DistanceMeters>NAN</DistanceMeters>
          </Trackpoint>
          <Trackpoint>
            <Time>2019-10-09T08:00:11.000Z</Time>
            <Position>
              <LatitudeDegrees>39.35910078696906566619873046875</LatitudeDegrees>
              <LongitudeDegrees>-6.33787290193140506744384765625</LongitudeDegrees>
            </Position>
            <AltitudeMeters>370.20001220703125</AltitudeMeters>
            <DistanceMeters>NAN</DistanceMeters>
          </Trackpoint>
          <Trackpoint>
            <Time>2019-10-09T08:00:12.000Z</Time>
            <Position>
              <LatitudeDegrees>39.35905200429260730743408203125</LatitudeDegrees>
              <LongitudeDegrees>-6.337847672402858734130859375</LongitudeDegrees>
            </Position>
            <AltitudeMeters>370.399993896484375</AltitudeMeters>
            <DistanceMeters>NAN</DistanceMeters>
          </Trackpoint>
          <Trackpoint>
            <Time>2019-10-09T08:00:18.000Z</Time>
            <Position>
              <LatitudeDegrees>39.358742125332355499267578125</LatitudeDegrees>
              <LongitudeDegrees>-6.33771833963692188262939453125</LongitudeDegrees>
            </Position>
            <AltitudeMeters>370</AltitudeMeters>
            <DistanceMeters>NAN</DistanceMeters>
          </Trackpoint>
          <Trackpoint>
            <Time>2019-10-09T08:00:21.000Z</Time>
            <Position>
              <LatitudeDegrees>39.3585736490786075592041015625</LatitudeDegrees>
              <LongitudeDegrees>-6.3376696407794952392578125</LongitudeDegrees>
            </Position>
            <AltitudeMeters>369.20001220703125</AltitudeMeters>
            <DistanceMeters>NAN</DistanceMeters>
          </Trackpoint>
          <Trackpoint>
            <Time>2019-10-09T08:00:28.000Z</Time>
            <Position>
              <LatitudeDegrees>39.3581361137330532073974609375</LatitudeDegrees>
              <LongitudeDegrees>-6.337600238621234893798828125</LongitudeDegrees>
            </Position>
            <AltitudeMeters>368.600006103515625</AltitudeMeters>
            <DistanceMeters>NAN</DistanceMeters>
          </Trackpoint>
          <Trackpoint>
            <Time>2019-10-09T08:00:29.000Z</Time>
            <Position>
              <LatitudeDegrees>39.35806880705058574676513671875</LatitudeDegrees>
              <LongitudeDegrees>-6.33759914897382259368896484375</LongitudeDegrees>
            </Position>
            <AltitudeMeters>368.20001220703125</AltitudeMeters>
            <DistanceMeters>NAN</DistanceMeters>
          </Trackpoint>
          <Trackpoint>
            <Time>2019-10-09T08:00:35.000Z</Time>
            <Position>
              <LatitudeDegrees>39.357654154300689697265625</LatitudeDegrees>
              <LongitudeDegrees>-6.337643824517726898193359375</LongitudeDegrees>
            </Position>
            <AltitudeMeters>367</AltitudeMeters>
            <DistanceMeters>NAN</DistanceMeters>
          </Trackpoint>
          <Trackpoint>
            <Time>2019-10-09T08:00:42.000Z</Time>
            <Position>
              <LatitudeDegrees>39.35716741718351840972900390625</LatitudeDegrees>
              <LongitudeDegrees>-6.3377881608903408050537109375</LongitudeDegrees>
            </Position>
            <AltitudeMeters>366.20001220703125</AltitudeMeters>
            <DistanceMeters>NAN</DistanceMeters>
          </Trackpoint>
          <Trackpoint>
            <Time>2019-10-09T08:00:44.000Z</Time>
            <Position>
              <LatitudeDegrees>39.3570310436189174652099609375</LatitudeDegrees>
              <LongitudeDegrees>-6.33784758858382701873779296875</LongitudeDegrees>
            </Position>
            <AltitudeMeters>366</AltitudeMeters>
            <DistanceMeters>NAN</DistanceMeters>
          </Trackpoint>
          <Trackpoint>
            <Time>2019-10-09T08:00:47.000Z</Time>
            <Position>
              <LatitudeDegrees>39.356828033924102783203125</LatitudeDegrees>
              <LongitudeDegrees>-6.33793509565293788909912109375</LongitudeDegrees>
            </Position>
            <AltitudeMeters>364.79998779296875</AltitudeMeters>
            <DistanceMeters>NAN</DistanceMeters>
          </Trackpoint>
          <Trackpoint>
            <Time>2019-10-09T08:00:54.000Z</Time>
            <Position>
              <LatitudeDegrees>39.3563484214246273040771484375</LatitudeDegrees>
              <LongitudeDegrees>-6.338118575513362884521484375</LongitudeDegrees>
            </Position>
            <AltitudeMeters>364.399993896484375</AltitudeMeters>
            <DistanceMeters>NAN</DistanceMeters>
          </Trackpoint>
          <Trackpoint>
            <Time>2019-10-09T08:01:01.000Z</Time>
            <Position>
              <LatitudeDegrees>39.3558434955775737762451171875</LatitudeDegrees>
              <LongitudeDegrees>-6.3382203318178653717041015625</LongitudeDegrees>
            </Position>
            <AltitudeMeters>363.79998779296875</AltitudeMeters>
            <DistanceMeters>NAN</DistanceMeters>
          </Trackpoint>
          <Trackpoint>
            <Time>2019-10-09T08:01:02.000Z</Time>
            <Position>
              <LatitudeDegrees>39.355768896639347076416015625</LatitudeDegrees>
              <LongitudeDegrees>-6.33822293020784854888916015625</LongitudeDegrees>
            </Position>
            <AltitudeMeters>363.399993896484375</AltitudeMeters>
            <DistanceMeters>NAN</DistanceMeters>
          </Trackpoint>
          <Trackpoint>
            <Time>2019-10-09T08:01:05.000Z</Time>
            <Position>
              <LatitudeDegrees>39.355550296604633331298828125</LatitudeDegrees>
              <LongitudeDegrees>-6.33822091855108737945556640625</LongitudeDegrees>
            </Position>
            <AltitudeMeters>362.600006103515625</AltitudeMeters>
            <DistanceMeters>NAN</DistanceMeters>
          </Trackpoint>
          <Trackpoint>
            <Time>2019-10-09T08:01:10.000Z</Time>
            <Position>
              <LatitudeDegrees>39.35520194470882415771484375</LatitudeDegrees>
              <LongitudeDegrees>-6.33817297406494617462158203125</LongitudeDegrees>
            </Position>
            <AltitudeMeters>363.20001220703125</AltitudeMeters>
            <DistanceMeters>NAN</DistanceMeters>
          </Trackpoint>
          <Trackpoint>
            <Time>2019-10-09T08:01:12.000Z</Time>
            <Position>
              <LatitudeDegrees>39.35507160611450672149658203125</LatitudeDegrees>
              <LongitudeDegrees>-6.3381443917751312255859375</LongitudeDegrees>
            </Position>
            <AltitudeMeters>363.79998779296875</AltitudeMeters>
            <DistanceMeters>NAN</DistanceMeters>
          </Trackpoint>
          <Trackpoint>
            <Time>2019-10-09T08:01:18.000Z</Time>
            <Position>
              <LatitudeDegrees>39.35470716096460819244384765625</LatitudeDegrees>
              <LongitudeDegrees>-6.33803115226328372955322265625</LongitudeDegrees>
            </Position>
            <AltitudeMeters>364.20001220703125</AltitudeMeters>
            <DistanceMeters>NAN</DistanceMeters>
          </Trackpoint>
          <Trackpoint>
            <Time>2019-10-09T08:01:24.000Z</Time>
            <Position>
              <LatitudeDegrees>39.354379177093505859375</LatitudeDegrees>
              <LongitudeDegrees>-6.3379164040088653564453125</LongitudeDegrees>
            </Position>
            <AltitudeMeters>365</AltitudeMeters>
            <DistanceMeters>NAN</DistanceMeters>
          </Trackpoint>
          <Trackpoint>
            <Time>2019-10-09T08:01:26.000Z</Time>
            <Position>
              <LatitudeDegrees>39.354274235665798187255859375</LatitudeDegrees>
              <LongitudeDegrees>-6.33788161911070346832275390625</LongitudeDegrees>
            </Position>
            <AltitudeMeters>365</AltitudeMeters>
            <DistanceMeters>NAN</DistanceMeters>
          </Trackpoint>
          <Trackpoint>
            <Time>2019-10-09T08:01:32.000Z</Time>
            <Position>
              <LatitudeDegrees>39.3539716489613056182861328125</LatitudeDegrees>
              <LongitudeDegrees>-6.33777366019785404205322265625</LongitudeDegrees>
            </Position>
            <AltitudeMeters>366</AltitudeMeters>
            <DistanceMeters>NAN</DistanceMeters>
          </Trackpoint>
          <Trackpoint>
            <Time>2019-10-09T08:01:35.000Z</Time>
            <Position>
              <LatitudeDegrees>39.35382287018001079559326171875</LatitudeDegrees>
              <LongitudeDegrees>-6.3377174176275730133056640625</LongitudeDegrees>
            </Position>
            <AltitudeMeters>366.399993896484375</AltitudeMeters>
            <DistanceMeters>NAN</DistanceMeters>
          </Trackpoint>
          <Trackpoint>
            <Time>2019-10-09T08:01:41.000Z</Time>
            <Position>
              <LatitudeDegrees>39.35352749191224575042724609375</LatitudeDegrees>
              <LongitudeDegrees>-6.3376168347895145416259765625</LongitudeDegrees>
            </Position>
            <AltitudeMeters>367</AltitudeMeters>
            <DistanceMeters>NAN</DistanceMeters>
          </Trackpoint>
          <Trackpoint>
            <Time>2019-10-09T08:01:47.000Z</Time>
            <Position>
              <LatitudeDegrees>39.35323429293930530548095703125</LatitudeDegrees>
              <LongitudeDegrees>-6.33752119727432727813720703125</LongitudeDegrees>
            </Position>
            <AltitudeMeters>367.600006103515625</AltitudeMeters>
            <DistanceMeters>NAN</DistanceMeters>
          </Trackpoint>
          <Trackpoint>
            <Time>2019-10-09T08:01:51.000Z</Time>
            <Position>
              <LatitudeDegrees>39.35304435901343822479248046875</LatitudeDegrees>
              <LongitudeDegrees>-6.3374538905918598175048828125</LongitudeDegrees>
            </Position>
            <AltitudeMeters>368.20001220703125</AltitudeMeters>
            <DistanceMeters>NAN</DistanceMeters>
          </Trackpoint>
          <Trackpoint>
            <Time>2019-10-09T08:01:58.000Z</Time>
            <Position>
              <LatitudeDegrees>39.35270975343883037567138671875</LatitudeDegrees>
              <LongitudeDegrees>-6.33734039962291717529296875</LongitudeDegrees>
            </Position>
            <AltitudeMeters>369.20001220703125</AltitudeMeters>
            <DistanceMeters>NAN</DistanceMeters>
          </Trackpoint>
          <Trackpoint>
            <Time>2019-10-09T08:02:00.000Z</Time>
            <Position>
              <LatitudeDegrees>39.35262073762714862823486328125</LatitudeDegrees>
              <LongitudeDegrees>-6.33730779401957988739013671875</LongitudeDegrees>
            </Position>
            <AltitudeMeters>369.399993896484375</AltitudeMeters>
            <DistanceMeters>NAN</DistanceMeters>
          </Trackpoint>
          <Trackpoint>
            <Time>2019-10-09T08:02:07.000Z</Time>
            <Position>
              <LatitudeDegrees>39.35232083313167095184326171875</LatitudeDegrees>
              <LongitudeDegrees>-6.337205953896045684814453125</LongitudeDegrees>
            </Position>
            <AltitudeMeters>370.20001220703125</AltitudeMeters>
            <DistanceMeters>NAN</DistanceMeters>
          </Trackpoint>
          <Trackpoint>
            <Time>2019-10-09T08:02:11.000Z</Time>
            <Position>
              <LatitudeDegrees>39.35215202160179615020751953125</LatitudeDegrees>
              <LongitudeDegrees>-6.33714602328836917877197265625</LongitudeDegrees>
            </Position>
            <AltitudeMeters>370.399993896484375</AltitudeMeters>
            <DistanceMeters>NAN</DistanceMeters>
          </Trackpoint>
          <Trackpoint>
            <Time>2019-10-09T08:02:18.000Z</Time>
            <Position>
              <LatitudeDegrees>39.35184775851666927337646484375</LatitudeDegrees>
              <LongitudeDegrees>-6.33703487925231456756591796875</LongitudeDegrees>
            </Position>
            <AltitudeMeters>371.399993896484375</AltitudeMeters>
            <DistanceMeters>NAN</DistanceMeters>
          </Trackpoint>
          <Trackpoint>
            <Time>2019-10-09T08:02:19.000Z</Time>
            <Position>
              <LatitudeDegrees>39.35181372798979282379150390625</LatitudeDegrees>
              <LongitudeDegrees>-6.33702280931174755096435546875</LongitudeDegrees>
            </Position>
            <AltitudeMeters>371.399993896484375</AltitudeMeters>
            <DistanceMeters>NAN</DistanceMeters>
          </Trackpoint>
          <Trackpoint>
            <Time>2019-10-09T08:02:31.000Z</Time>
            <Position>
              <LatitudeDegrees>39.3512914516031742095947265625</LatitudeDegrees>
              <LongitudeDegrees>-6.336845867335796356201171875</LongitudeDegrees>
            </Position>
            <AltitudeMeters>371.79998779296875</AltitudeMeters>
            <DistanceMeters>NAN</DistanceMeters>
          </Trackpoint>
          <Trackpoint>
            <Time>2019-10-09T08:02:40.000Z</Time>
            <Position>
              <LatitudeDegrees>39.35087864287197589874267578125</LatitudeDegrees>
              <LongitudeDegrees>-6.3367032073438167572021484375</LongitudeDegrees>
            </Position>
            <AltitudeMeters>372</AltitudeMeters>
            <DistanceMeters>NAN</DistanceMeters>
          </Trackpoint>
          <Trackpoint>
            <Time>2019-10-09T08:02:42.000Z</Time>
            <Position>
              <LatitudeDegrees>39.3507865257561206817626953125</LatitudeDegrees>
              <LongitudeDegrees>-6.33667278103530406951904296875</LongitudeDegrees>
            </Position>
            <AltitudeMeters>371.79998779296875</AltitudeMeters>
            <DistanceMeters>NAN</DistanceMeters>
          </Trackpoint>
          <Trackpoint>
            <Time>2019-10-09T08:02:48.000Z</Time>
            <Position>
              <LatitudeDegrees>39.3504886329174041748046875</LatitudeDegrees>
              <LongitudeDegrees>-6.33657194674015045166015625</LongitudeDegrees>
            </Position>
            <AltitudeMeters>371.600006103515625</AltitudeMeters>
            <DistanceMeters>NAN</DistanceMeters>
          </Trackpoint>
          <Trackpoint>
            <Time>2019-10-09T08:02:50.000Z</Time>
            <Position>
              <LatitudeDegrees>39.35038159601390361785888671875</LatitudeDegrees>
              <LongitudeDegrees>-6.33653531782329082489013671875</LongitudeDegrees>
            </Position>
            <AltitudeMeters>371.399993896484375</AltitudeMeters>
            <DistanceMeters>NAN</DistanceMeters>
          </Trackpoint>
          <Trackpoint>
            <Time>2019-10-09T08:02:59.000Z</Time>
            <Position>
              <LatitudeDegrees>39.3499010615050792694091796875</LatitudeDegrees>
              <LongitudeDegrees>-6.3363692723214626312255859375</LongitudeDegrees>
            </Position>
            <AltitudeMeters>371</AltitudeMeters>
            <DistanceMeters>NAN</DistanceMeters>
          </Trackpoint>
          <Trackpoint>
            <Time>2019-10-09T08:03:00.000Z</Time>
            <Position>
              <LatitudeDegrees>39.3498474173247814178466796875</LatitudeDegrees>
              <LongitudeDegrees>-6.33634974248707294464111328125</LongitudeDegrees>
            </Position>
            <AltitudeMeters>370.79998779296875</AltitudeMeters>
            <DistanceMeters>NAN</DistanceMeters>
          </Trackpoint>
          <Trackpoint>
            <Time>2019-10-09T08:03:01.000Z</Time>
            <Position>
              <LatitudeDegrees>39.34979368932545185089111328125</LatitudeDegrees>
              <LongitudeDegrees>-6.33632929064333438873291015625</LongitudeDegrees>
            </Position>
            <AltitudeMeters>370.399993896484375</AltitudeMeters>
            <DistanceMeters>NAN</DistanceMeters>
          </Trackpoint>
          <Trackpoint>
            <Time>2019-10-09T08:03:07.000Z</Time>
            <Position>
              <LatitudeDegrees>39.34948054142296314239501953125</LatitudeDegrees>
              <LongitudeDegrees>-6.336217224597930908203125</LongitudeDegrees>
            </Position>
            <AltitudeMeters>371.399993896484375</AltitudeMeters>
            <DistanceMeters>NAN</DistanceMeters>
          </Trackpoint>
          <Trackpoint>
            <Time>2019-10-09T08:03:10.000Z</Time>
            <Position>
              <LatitudeDegrees>39.34932681731879711151123046875</LatitudeDegrees>
              <LongitudeDegrees>-6.33616785518825054168701171875</LongitudeDegrees>
            </Position>
            <AltitudeMeters>371.79998779296875</AltitudeMeters>
            <DistanceMeters>NAN</DistanceMeters>
          </Trackpoint>
          <Trackpoint>
            <Time>2019-10-09T08:03:16.000Z</Time>
            <Position>
              <LatitudeDegrees>39.349027164280414581298828125</LatitudeDegrees>
              <LongitudeDegrees>-6.33606174029409885406494140625</LongitudeDegrees>
            </Position>
            <AltitudeMeters>372.399993896484375</AltitudeMeters>
            <DistanceMeters>NAN</DistanceMeters>
          </Trackpoint>
          <Trackpoint>
            <Time>2019-10-09T08:03:19.000Z</Time>
            <Position>
              <LatitudeDegrees>39.3488632142543792724609375</LatitudeDegrees>
              <LongitudeDegrees>-6.3359997980296611785888671875</LongitudeDegrees>
            </Position>
            <AltitudeMeters>373</AltitudeMeters>
            <DistanceMeters>NAN</DistanceMeters>
          </Trackpoint>
          <Trackpoint>
            <Time>2019-10-09T08:03:27.000Z</Time>
            <Position>
              <LatitudeDegrees>39.34849508106708526611328125</LatitudeDegrees>
              <LongitudeDegrees>-6.3358371891081333160400390625</LongitudeDegrees>
            </Position>
            <AltitudeMeters>373.600006103515625</AltitudeMeters>
            <DistanceMeters>NAN</DistanceMeters>
          </Trackpoint>
          <Trackpoint>
            <Time>2019-10-09T08:03:29.000Z</Time>
            <Position>
              <LatitudeDegrees>39.34840111993253231048583984375</LatitudeDegrees>
              <LongitudeDegrees>-6.3357905857264995574951171875</LongitudeDegrees>
            </Position>
            <AltitudeMeters>373.600006103515625</AltitudeMeters>
            <DistanceMeters>NAN</DistanceMeters>
          </Trackpoint>
          <Trackpoint>
            <Time>2019-10-09T08:03:38.000Z</Time>
            <Position>
              <LatitudeDegrees>39.3479759059846401214599609375</LatitudeDegrees>
              <LongitudeDegrees>-6.33557022549211978912353515625</LongitudeDegrees>
            </Position>
            <AltitudeMeters>374.399993896484375</AltitudeMeters>
            <DistanceMeters>NAN</DistanceMeters>
          </Trackpoint>
          <Trackpoint>
            <Time>2019-10-09T08:03:44.000Z</Time>
            <Position>
              <LatitudeDegrees>39.3476929329335689544677734375</LatitudeDegrees>
              <LongitudeDegrees>-6.33542052470147609710693359375</LongitudeDegrees>
            </Position>
            <AltitudeMeters>374.79998779296875</AltitudeMeters>
            <DistanceMeters>NAN</DistanceMeters>
          </Trackpoint>
          <Trackpoint>
            <Time>2019-10-09T08:03:45.000Z</Time>
            <Position>
              <LatitudeDegrees>39.34764490462839603424072265625</LatitudeDegrees>
              <LongitudeDegrees>-6.33539621718227863311767578125</LongitudeDegrees>
            </Position>
            <AltitudeMeters>375.20001220703125</AltitudeMeters>
            <DistanceMeters>NAN</DistanceMeters>
          </Trackpoint>
          <Trackpoint>
            <Time>2019-10-09T08:03:52.000Z</Time>
            <Position>
              <LatitudeDegrees>39.347320608794689178466796875</LatitudeDegrees>
              <LongitudeDegrees>-6.3352212868630886077880859375</LongitudeDegrees>
            </Position>
            <AltitudeMeters>375.79998779296875</AltitudeMeters>
            <DistanceMeters>NAN</DistanceMeters>
          </Trackpoint>
          <Trackpoint>
            <Time>2019-10-09T08:03:54.000Z</Time>
            <Position>
              <LatitudeDegrees>39.34722865931689739227294921875</LatitudeDegrees>
              <LongitudeDegrees>-6.3351725041866302490234375</LongitudeDegrees>
            </Position>
            <AltitudeMeters>375.600006103515625</AltitudeMeters>
            <DistanceMeters>NAN</DistanceMeters>
          </Trackpoint>
          <Trackpoint>
            <Time>2019-10-09T08:04:03.000Z</Time>
            <Position>
              <LatitudeDegrees>39.3468520604074001312255859375</LatitudeDegrees>
              <LongitudeDegrees>-6.33496505208313465118408203125</LongitudeDegrees>
            </Position>
            <AltitudeMeters>376.79998779296875</AltitudeMeters>
            <DistanceMeters>NAN</DistanceMeters>
          </Trackpoint>
          <Trackpoint>
            <Time>2019-10-09T08:04:04.000Z</Time>
            <Position>
              <LatitudeDegrees>39.3468114919960498809814453125</LatitudeDegrees>
              <LongitudeDegrees>-6.33494493551552295684814453125</LongitudeDegrees>
            </Position>
            <AltitudeMeters>377.20001220703125</AltitudeMeters>
            <DistanceMeters>NAN</DistanceMeters>
          </Trackpoint>
          <Trackpoint>
            <Time>2019-10-09T08:04:10.000Z</Time>
            <Position>
              <LatitudeDegrees>39.34658627025783061981201171875</LatitudeDegrees>
              <LongitudeDegrees>-6.3348323665559291839599609375</LongitudeDegrees>
            </Position>
            <AltitudeMeters>378.399993896484375</AltitudeMeters>
            <DistanceMeters>NAN</DistanceMeters>
          </Trackpoint>
          <Trackpoint>
            <Time>2019-10-09T08:04:11.000Z</Time>
            <Position>
              <LatitudeDegrees>39.346550144255161285400390625</LatitudeDegrees>
              <LongitudeDegrees>-6.33481149561703205108642578125</LongitudeDegrees>
            </Position>
            <AltitudeMeters>378.20001220703125</AltitudeMeters>
            <DistanceMeters>NAN</DistanceMeters>
          </Trackpoint>
          <Trackpoint>
            <Time>2019-10-09T08:04:17.000Z</Time>
            <Position>
              <LatitudeDegrees>39.3463384173810482025146484375</LatitudeDegrees>
              <LongitudeDegrees>-6.33469901047646999359130859375</LongitudeDegrees>
            </Position>
            <AltitudeMeters>379.600006103515625</AltitudeMeters>
            <DistanceMeters>NAN</DistanceMeters>
          </Trackpoint>
          <Trackpoint>
            <Time>2019-10-09T08:04:19.000Z</Time>
            <Position>
              <LatitudeDegrees>39.34626691974699497222900390625</LatitudeDegrees>
              <LongitudeDegrees>-6.33466246537864208221435546875</LongitudeDegrees>
            </Position>
            <AltitudeMeters>379.600006103515625</AltitudeMeters>
            <DistanceMeters>NAN</DistanceMeters>
          </Trackpoint>
          <Trackpoint>
            <Time>2019-10-09T08:04:26.000Z</Time>
            <Position>
              <LatitudeDegrees>39.34602317400276660919189453125</LatitudeDegrees>
              <LongitudeDegrees>-6.334528438746929168701171875</LongitudeDegrees>
            </Position>
            <AltitudeMeters>380.600006103515625</AltitudeMeters>
            <DistanceMeters>NAN</DistanceMeters>
          </Trackpoint>
          <Trackpoint>
            <Time>2019-10-09T08:04:27.000Z</Time>
            <Position>
              <LatitudeDegrees>39.34598964639008045196533203125</LatitudeDegrees>
              <LongitudeDegrees>-6.33450672961771488189697265625</LongitudeDegrees>
            </Position>
            <AltitudeMeters>380.79998779296875</AltitudeMeters>
            <DistanceMeters>NAN</DistanceMeters>
          </Trackpoint>
          <Trackpoint>
            <Time>2019-10-09T08:04:31.000Z</Time>
            <Position>
              <LatitudeDegrees>39.345852099359035491943359375</LatitudeDegrees>
              <LongitudeDegrees>-6.33443556725978851318359375</LongitudeDegrees>
            </Position>
            <AltitudeMeters>381.20001220703125</AltitudeMeters>
            <DistanceMeters>NAN</DistanceMeters>
          </Trackpoint>
          <Trackpoint>
            <Time>2019-10-09T08:04:33.000Z</Time>
            <Position>
              <LatitudeDegrees>39.3457815237343311309814453125</LatitudeDegrees>
              <LongitudeDegrees>-6.334401704370975494384765625</LongitudeDegrees>
            </Position>
            <AltitudeMeters>381.79998779296875</AltitudeMeters>
            <DistanceMeters>NAN</DistanceMeters>
          </Trackpoint>
          <Trackpoint>
            <Time>2019-10-09T08:04:35.000Z</Time>
            <Position>
              <LatitudeDegrees>39.34571287594735622406005859375</LatitudeDegrees>
              <LongitudeDegrees>-6.334366835653781890869140625</LongitudeDegrees>
            </Position>
            <AltitudeMeters>382.20001220703125</AltitudeMeters>
            <DistanceMeters>NAN</DistanceMeters>
          </Trackpoint>
          <Trackpoint>
            <Time>2019-10-09T08:04:40.000Z</Time>
            <Position>
              <LatitudeDegrees>39.3455493450164794921875</LatitudeDegrees>
              <LongitudeDegrees>-6.334273628890514373779296875</LongitudeDegrees>
            </Position>
            <AltitudeMeters>382.79998779296875</AltitudeMeters>
            <DistanceMeters>NAN</DistanceMeters>
          </Trackpoint>
          <Trackpoint>
            <Time>2019-10-09T08:04:45.000Z</Time>
            <Position>
              <LatitudeDegrees>39.345382712781429290771484375</LatitudeDegrees>
              <LongitudeDegrees>-6.334187798202037811279296875</LongitudeDegrees>
            </Position>
            <AltitudeMeters>383.20001220703125</AltitudeMeters>
            <DistanceMeters>NAN</DistanceMeters>
          </Trackpoint>
          <Trackpoint>
            <Time>2019-10-09T08:04:50.000Z</Time>
            <Position>
              <LatitudeDegrees>39.3452172540128231048583984375</LatitudeDegrees>
              <LongitudeDegrees>-6.334097944200038909912109375</LongitudeDegrees>
            </Position>
            <AltitudeMeters>384</AltitudeMeters>
            <DistanceMeters>NAN</DistanceMeters>
          </Trackpoint>
          <Trackpoint>
            <Time>2019-10-09T08:04:55.000Z</Time>
            <Position>
              <LatitudeDegrees>39.3450522981584072113037109375</LatitudeDegrees>
              <LongitudeDegrees>-6.33400264196097850799560546875</LongitudeDegrees>
            </Position>
            <AltitudeMeters>384.79998779296875</AltitudeMeters>
            <DistanceMeters>NAN</DistanceMeters>
          </Trackpoint>
          <Trackpoint>
            <Time>2019-10-09T08:04:56.000Z</Time>
            <Position>
              <LatitudeDegrees>39.3450191058218479156494140625</LatitudeDegrees>
              <LongitudeDegrees>-6.33398554287850856781005859375</LongitudeDegrees>
            </Position>
            <AltitudeMeters>385</AltitudeMeters>
            <DistanceMeters>NAN</DistanceMeters>
          </Trackpoint>
          <Trackpoint>
            <Time>2019-10-09T08:05:02.000Z</Time>
            <Position>
              <LatitudeDegrees>39.34482070617377758026123046875</LatitudeDegrees>
              <LongitudeDegrees>-6.33388571441173553466796875</LongitudeDegrees>
            </Position>
            <AltitudeMeters>386</AltitudeMeters>
            <DistanceMeters>NAN</DistanceMeters>
          </Trackpoint>
          <Trackpoint>
            <Time>2019-10-09T08:05:06.000Z</Time>
            <Position>
              <LatitudeDegrees>39.34469145722687244415283203125</LatitudeDegrees>
              <LongitudeDegrees>-6.33381170220673084259033203125</LongitudeDegrees>
            </Position>
            <AltitudeMeters>386.399993896484375</AltitudeMeters>
            <DistanceMeters>NAN</DistanceMeters>
          </Trackpoint>
          <Trackpoint>
            <Time>2019-10-09T08:05:12.000Z</Time>
            <Position>
              <LatitudeDegrees>39.3444920517504215240478515625</LatitudeDegrees>
              <LongitudeDegrees>-6.33370525203645229339599609375</LongitudeDegrees>
            </Position>
            <AltitudeMeters>387.20001220703125</AltitudeMeters>
            <DistanceMeters>NAN</DistanceMeters>
          </Trackpoint>
          <Trackpoint>
            <Time>2019-10-09T08:05:18.000Z</Time>
            <Position>
              <LatitudeDegrees>39.344287030398845672607421875</LatitudeDegrees>
              <LongitudeDegrees>-6.333592347800731658935546875</LongitudeDegrees>
            </Position>
            <AltitudeMeters>387.79998779296875</AltitudeMeters>
            <DistanceMeters>NAN</DistanceMeters>
          </Trackpoint>
          <Trackpoint>
            <Time>2019-10-09T08:05:24.000Z</Time>
            <Position>
              <LatitudeDegrees>39.34407756663858890533447265625</LatitudeDegrees>
              <LongitudeDegrees>-6.333482377231121063232421875</LongitudeDegrees>
            </Position>
            <AltitudeMeters>388.399993896484375</AltitudeMeters>
            <DistanceMeters>NAN</DistanceMeters>
          </Trackpoint>
          <Trackpoint>
            <Time>2019-10-09T08:05:30.000Z</Time>
            <Position>
              <LatitudeDegrees>39.3438662588596343994140625</LatitudeDegrees>
              <LongitudeDegrees>-6.33337081409990787506103515625</LongitudeDegrees>
            </Position>
            <AltitudeMeters>388.79998779296875</AltitudeMeters>
            <DistanceMeters>NAN</DistanceMeters>
          </Trackpoint>
          <Trackpoint>
            <Time>2019-10-09T08:05:34.000Z</Time>
            <Position>
              <LatitudeDegrees>39.3437246046960353851318359375</LatitudeDegrees>
              <LongitudeDegrees>-6.3333018310368061065673828125</LongitudeDegrees>
            </Position>
            <AltitudeMeters>389.79998779296875</AltitudeMeters>
            <DistanceMeters>NAN</DistanceMeters>
          </Trackpoint>
          <Trackpoint>
            <Time>2019-10-09T08:05:40.000Z</Time>
            <Position>
              <LatitudeDegrees>39.3435100279748439788818359375</LatitudeDegrees>
              <LongitudeDegrees>-6.33319797925651073455810546875</LongitudeDegrees>
            </Position>
            <AltitudeMeters>389.79998779296875</AltitudeMeters>
            <DistanceMeters>NAN</DistanceMeters>
          </Trackpoint>
          <Trackpoint>
            <Time>2019-10-09T08:05:52.000Z</Time>
            <Position>
              <LatitudeDegrees>39.34306385926902294158935546875</LatitudeDegrees>
              <LongitudeDegrees>-6.33302832953631877899169921875</LongitudeDegrees>
            </Position>
            <AltitudeMeters>391</AltitudeMeters>
            <DistanceMeters>NAN</DistanceMeters>
          </Trackpoint>
          <Trackpoint>
            <Time>2019-10-09T08:06:02.000Z</Time>
            <Position>
              <LatitudeDegrees>39.34268902055919170379638671875</LatitudeDegrees>
              <LongitudeDegrees>-6.33291031233966350555419921875</LongitudeDegrees>
            </Position>
            <AltitudeMeters>392</AltitudeMeters>
            <DistanceMeters>NAN</DistanceMeters>
          </Trackpoint>
          <Trackpoint>
            <Time>2019-10-09T08:06:04.000Z</Time>
            <Position>
              <LatitudeDegrees>39.34261525981128215789794921875</LatitudeDegrees>
              <LongitudeDegrees>-6.3328874297440052032470703125</LongitudeDegrees>
            </Position>
            <AltitudeMeters>392.20001220703125</AltitudeMeters>
            <DistanceMeters>NAN</DistanceMeters>
          </Trackpoint>
          <Trackpoint>
            <Time>2019-10-09T08:06:13.000Z</Time>
            <Position>
              <LatitudeDegrees>39.34227394871413707733154296875</LatitudeDegrees>
              <LongitudeDegrees>-6.3328032754361629486083984375</LongitudeDegrees>
            </Position>
            <AltitudeMeters>393</AltitudeMeters>
            <DistanceMeters>NAN</DistanceMeters>
          </Trackpoint>
          <Trackpoint>
            <Time>2019-10-09T08:06:14.000Z</Time>
            <Position>
              <LatitudeDegrees>39.342235140502452850341796875</LatitudeDegrees>
              <LongitudeDegrees>-6.33279003202915191650390625</LongitudeDegrees>
            </Position>
            <AltitudeMeters>393.20001220703125</AltitudeMeters>
            <DistanceMeters>NAN</DistanceMeters>
          </Trackpoint>
          <Trackpoint>
            <Time>2019-10-09T08:06:23.000Z</Time>
            <Position>
              <LatitudeDegrees>39.34188871644437313079833984375</LatitudeDegrees>
              <LongitudeDegrees>-6.332697831094264984130859375</LongitudeDegrees>
            </Position>
            <AltitudeMeters>394</AltitudeMeters>
            <DistanceMeters>NAN</DistanceMeters>
          </Trackpoint>
          <Trackpoint>
            <Time>2019-10-09T08:06:25.000Z</Time>
            <Position>
              <LatitudeDegrees>39.34181059710681438446044921875</LatitudeDegrees>
              <LongitudeDegrees>-6.33267796598374843597412109375</LongitudeDegrees>
            </Position>
            <AltitudeMeters>394.600006103515625</AltitudeMeters>
            <DistanceMeters>NAN</DistanceMeters>
          </Trackpoint>
          <Trackpoint>
            <Time>2019-10-09T08:06:34.000Z</Time>
            <Position>
              <LatitudeDegrees>39.3414594791829586029052734375</LatitudeDegrees>
              <LongitudeDegrees>-6.3325774669647216796875</LongitudeDegrees>
            </Position>
            <AltitudeMeters>394.79998779296875</AltitudeMeters>
            <DistanceMeters>NAN</DistanceMeters>
          </Trackpoint>
          <Trackpoint>
            <Time>2019-10-09T08:06:39.000Z</Time>
            <Position>
              <LatitudeDegrees>39.34126761741936206817626953125</LatitudeDegrees>
              <LongitudeDegrees>-6.33252575062215328216552734375</LongitudeDegrees>
            </Position>
            <AltitudeMeters>395.600006103515625</AltitudeMeters>
            <DistanceMeters>NAN</DistanceMeters>
          </Trackpoint>
          <Trackpoint>
            <Time>2019-10-09T08:06:45.000Z</Time>
            <Position>
              <LatitudeDegrees>39.34103527106344699859619140625</LatitudeDegrees>
              <LongitudeDegrees>-6.33246841840445995330810546875</LongitudeDegrees>
            </Position>
            <AltitudeMeters>395.79998779296875</AltitudeMeters>
            <DistanceMeters>NAN</DistanceMeters>
          </Trackpoint>
          <Trackpoint>
            <Time>2019-10-09T08:06:49.000Z</Time>
            <Position>
              <LatitudeDegrees>39.3408814631402492523193359375</LatitudeDegrees>
              <LongitudeDegrees>-6.33242466486990451812744140625</LongitudeDegrees>
            </Position>
            <AltitudeMeters>396.600006103515625</AltitudeMeters>
            <DistanceMeters>NAN</DistanceMeters>
          </Trackpoint>
          <Trackpoint>
            <Time>2019-10-09T08:06:55.000Z</Time>
            <Position>
              <LatitudeDegrees>39.34065322391688823699951171875</LatitudeDegrees>
              <LongitudeDegrees>-6.3323700986802577972412109375</LongitudeDegrees>
            </Position>
            <AltitudeMeters>397</AltitudeMeters>
            <DistanceMeters>NAN</DistanceMeters>
          </Trackpoint>
          <Trackpoint>
            <Time>2019-10-09T08:07:04.000Z</Time>
            <Position>
              <LatitudeDegrees>39.3402950651943683624267578125</LatitudeDegrees>
              <LongitudeDegrees>-6.33227982558310031890869140625</LongitudeDegrees>
            </Position>
            <AltitudeMeters>397.399993896484375</AltitudeMeters>
            <DistanceMeters>NAN</DistanceMeters>
          </Trackpoint>
          <Trackpoint>
            <Time>2019-10-09T08:07:11.000Z</Time>
            <Position>
              <LatitudeDegrees>39.3399383313953876495361328125</LatitudeDegrees>
              <LongitudeDegrees>-6.33218628354370594024658203125</LongitudeDegrees>
            </Position>
            <AltitudeMeters>395.79998779296875</AltitudeMeters>
            <DistanceMeters>NAN</DistanceMeters>
          </Trackpoint>
          <Trackpoint>
            <Time>2019-10-09T08:07:13.000Z</Time>
            <Position>
              <LatitudeDegrees>39.33982190676033496856689453125</LatitudeDegrees>
              <LongitudeDegrees>-6.33215074427425861358642578125</LongitudeDegrees>
            </Position>
            <AltitudeMeters>395.79998779296875</AltitudeMeters>
            <DistanceMeters>NAN</DistanceMeters>
          </Trackpoint>
          <Trackpoint>
            <Time>2019-10-09T08:07:14.000Z</Time>
            <Position>
              <LatitudeDegrees>39.33976004831492900848388671875</LatitudeDegrees>
              <LongitudeDegrees>-6.33213465102016925811767578125</LongitudeDegrees>
            </Position>
            <AltitudeMeters>395</AltitudeMeters>
            <DistanceMeters>NAN</DistanceMeters>
          </Trackpoint>
          <Trackpoint>
            <Time>2019-10-09T08:07:18.000Z</Time>
            <Position>
              <LatitudeDegrees>39.33950255624949932098388671875</LatitudeDegrees>
              <LongitudeDegrees>-6.3320673443377017974853515625</LongitudeDegrees>
            </Position>
            <AltitudeMeters>394.399993896484375</AltitudeMeters>
            <DistanceMeters>NAN</DistanceMeters>
          </Trackpoint>
          <Trackpoint>
            <Time>2019-10-09T08:07:19.000Z</Time>
            <Position>
              <LatitudeDegrees>39.339434914290904998779296875</LatitudeDegrees>
              <LongitudeDegrees>-6.332048065960407257080078125</LongitudeDegrees>
            </Position>
            <AltitudeMeters>393.79998779296875</AltitudeMeters>
            <DistanceMeters>NAN</DistanceMeters>
          </Trackpoint>
          <Trackpoint>
            <Time>2019-10-09T08:07:24.000Z</Time>
            <Position>
              <LatitudeDegrees>39.33907507918775081634521484375</LatitudeDegrees>
              <LongitudeDegrees>-6.33195184171199798583984375</LongitudeDegrees>
            </Position>
            <AltitudeMeters>392.79998779296875</AltitudeMeters>
            <DistanceMeters>NAN</DistanceMeters>
          </Trackpoint>
          <Trackpoint>
            <Time>2019-10-09T08:07:27.000Z</Time>
            <Position>
              <LatitudeDegrees>39.33884776197373867034912109375</LatitudeDegrees>
              <LongitudeDegrees>-6.331891827285289764404296875</LongitudeDegrees>
            </Position>
            <AltitudeMeters>392</AltitudeMeters>
            <DistanceMeters>NAN</DistanceMeters>
          </Trackpoint>
          <Trackpoint>
            <Time>2019-10-09T08:07:30.000Z</Time>
            <Position>
              <LatitudeDegrees>39.3386146612465381622314453125</LatitudeDegrees>
              <LongitudeDegrees>-6.3318343274295330047607421875</LongitudeDegrees>
            </Position>
            <AltitudeMeters>391.399993896484375</AltitudeMeters>
            <DistanceMeters>NAN</DistanceMeters>
          </Trackpoint>
          <Trackpoint>
            <Time>2019-10-09T08:07:33.000Z</Time>
            <Position>
              <LatitudeDegrees>39.3383766151964664459228515625</LatitudeDegrees>
              <LongitudeDegrees>-6.33177272044122219085693359375</LongitudeDegrees>
            </Position>
            <AltitudeMeters>390.20001220703125</AltitudeMeters>
            <DistanceMeters>NAN</DistanceMeters>
          </Trackpoint>
          <Trackpoint>
            <Time>2019-10-09T08:07:36.000Z</Time>
            <Position>
              <LatitudeDegrees>39.338140077888965606689453125</LatitudeDegrees>
              <LongitudeDegrees>-6.33171035908162593841552734375</LongitudeDegrees>
            </Position>
            <AltitudeMeters>390</AltitudeMeters>
            <DistanceMeters>NAN</DistanceMeters>
          </Trackpoint>
          <Trackpoint>
            <Time>2019-10-09T08:07:43.000Z</Time>
            <Position>
              <LatitudeDegrees>39.3376225791871547698974609375</LatitudeDegrees>
              <LongitudeDegrees>-6.33157524280250072479248046875</LongitudeDegrees>
            </Position>
            <AltitudeMeters>389.79998779296875</AltitudeMeters>
            <DistanceMeters>NAN</DistanceMeters>
          </Trackpoint>
          <Trackpoint>
            <Time>2019-10-09T08:07:45.000Z</Time>
            <Position>
              <LatitudeDegrees>39.33748519979417324066162109375</LatitudeDegrees>
              <LongitudeDegrees>-6.33153953589498996734619140625</LongitudeDegrees>
            </Position>
            <AltitudeMeters>390.20001220703125</AltitudeMeters>
            <DistanceMeters>NAN</DistanceMeters>
          </Trackpoint>
          <Trackpoint>
            <Time>2019-10-09T08:07:51.000Z</Time>
            <Position>
              <LatitudeDegrees>39.3370858021080493927001953125</LatitudeDegrees>
              <LongitudeDegrees>-6.33143845014274120330810546875</LongitudeDegrees>
            </Position>
            <AltitudeMeters>390.79998779296875</AltitudeMeters>
            <DistanceMeters>NAN</DistanceMeters>
          </Trackpoint>
          <Trackpoint>
            <Time>2019-10-09T08:07:55.000Z</Time>
            <Position>
              <LatitudeDegrees>39.3368303216993808746337890625</LatitudeDegrees>
              <LongitudeDegrees>-6.3313691318035125732421875</LongitudeDegrees>
            </Position>
            <AltitudeMeters>390.79998779296875</AltitudeMeters>
            <DistanceMeters>NAN</DistanceMeters>
          </Trackpoint>
          <Trackpoint>
            <Time>2019-10-09T08:07:59.000Z</Time>
            <Position>
              <LatitudeDegrees>39.336581043899059295654296875</LatitudeDegrees>
              <LongitudeDegrees>-6.331303417682647705078125</LongitudeDegrees>
            </Position>
            <AltitudeMeters>390.79998779296875</AltitudeMeters>
            <DistanceMeters>NAN</DistanceMeters>
          </Trackpoint>
          <Trackpoint>
            <Time>2019-10-09T08:08:07.000Z</Time>
            <Position>
              <LatitudeDegrees>39.33608206920325756072998046875</LatitudeDegrees>
              <LongitudeDegrees>-6.331174336373805999755859375</LongitudeDegrees>
            </Position>
            <AltitudeMeters>390.600006103515625</AltitudeMeters>
            <DistanceMeters>NAN</DistanceMeters>
          </Trackpoint>
          <Trackpoint>
            <Time>2019-10-09T08:08:16.000Z</Time>
            <Position>
              <LatitudeDegrees>39.335531294345855712890625</LatitudeDegrees>
              <LongitudeDegrees>-6.331025473773479461669921875</LongitudeDegrees>
            </Position>
            <AltitudeMeters>390.79998779296875</AltitudeMeters>
            <DistanceMeters>NAN</DistanceMeters>
          </Trackpoint>
          <Trackpoint>
            <Time>2019-10-09T08:08:19.000Z</Time>
            <Position>
              <LatitudeDegrees>39.3353480659425258636474609375</LatitudeDegrees>
              <LongitudeDegrees>-6.3309780322015285491943359375</LongitudeDegrees>
            </Position>
            <AltitudeMeters>390.399993896484375</AltitudeMeters>
            <DistanceMeters>NAN</DistanceMeters>
          </Trackpoint>
          <Trackpoint>
            <Time>2019-10-09T08:08:27.000Z</Time>
            <Position>
              <LatitudeDegrees>39.3348612450063228607177734375</LatitudeDegrees>
              <LongitudeDegrees>-6.3308445923030376434326171875</LongitudeDegrees>
            </Position>
            <AltitudeMeters>390.399993896484375</AltitudeMeters>
            <DistanceMeters>NAN</DistanceMeters>
          </Trackpoint>
          <Trackpoint>
            <Time>2019-10-09T08:08:28.000Z</Time>
            <Position>
              <LatitudeDegrees>39.3348003923892974853515625</LatitudeDegrees>
              <LongitudeDegrees>-6.3308291696012020111083984375</LongitudeDegrees>
            </Position>
            <AltitudeMeters>390.600006103515625</AltitudeMeters>
            <DistanceMeters>NAN</DistanceMeters>
          </Trackpoint>
          <Trackpoint>
            <Time>2019-10-09T08:08:37.000Z</Time>
            <Position>
              <LatitudeDegrees>39.334253557026386260986328125</LatitudeDegrees>
              <LongitudeDegrees>-6.33068558759987354278564453125</LongitudeDegrees>
            </Position>
            <AltitudeMeters>390.600006103515625</AltitudeMeters>
            <DistanceMeters>NAN</DistanceMeters>
          </Trackpoint>
          <Trackpoint>
            <Time>2019-10-09T08:08:39.000Z</Time>
            <Position>
              <LatitudeDegrees>39.33413160033524036407470703125</LatitudeDegrees>
              <LongitudeDegrees>-6.3306524790823459625244140625</LongitudeDegrees>
            </Position>
            <AltitudeMeters>390.600006103515625</AltitudeMeters>
            <DistanceMeters>NAN</DistanceMeters>
          </Trackpoint>
          <Trackpoint>
            <Time>2019-10-09T08:08:48.000Z</Time>
            <Position>
              <LatitudeDegrees>39.33357537724077701568603515625</LatitudeDegrees>
              <LongitudeDegrees>-6.33051224984228610992431640625</LongitudeDegrees>
            </Position>
            <AltitudeMeters>390</AltitudeMeters>
            <DistanceMeters>NAN</DistanceMeters>
          </Trackpoint>
          <Trackpoint>
            <Time>2019-10-09T08:08:51.000Z</Time>
            <Position>
              <LatitudeDegrees>39.33339290320873260498046875</LatitudeDegrees>
              <LongitudeDegrees>-6.33046162314713001251220703125</LongitudeDegrees>
            </Position>
            <AltitudeMeters>390.600006103515625</AltitudeMeters>
            <DistanceMeters>NAN</DistanceMeters>
          </Trackpoint>
          <Trackpoint>
            <Time>2019-10-09T08:09:00.000Z</Time>
            <Position>
              <LatitudeDegrees>39.33283458463847637176513671875</LatitudeDegrees>
              <LongitudeDegrees>-6.330316364765167236328125</LongitudeDegrees>
            </Position>
            <AltitudeMeters>390.399993896484375</AltitudeMeters>
            <DistanceMeters>NAN</DistanceMeters>
          </Trackpoint>
          <Trackpoint>
            <Time>2019-10-09T08:09:03.000Z</Time>
            <Position>
              <LatitudeDegrees>39.33265202678740024566650390625</LatitudeDegrees>
              <LongitudeDegrees>-6.33027009665966033935546875</LongitudeDegrees>
            </Position>
            <AltitudeMeters>390.399993896484375</AltitudeMeters>
            <DistanceMeters>NAN</DistanceMeters>
          </Trackpoint>
          <Trackpoint>
            <Time>2019-10-09T08:09:11.000Z</Time>
            <Position>
              <LatitudeDegrees>39.33216604404151439666748046875</LatitudeDegrees>
              <LongitudeDegrees>-6.3301421888172626495361328125</LongitudeDegrees>
            </Position>
            <AltitudeMeters>390</AltitudeMeters>
            <DistanceMeters>NAN</DistanceMeters>
          </Trackpoint>
          <Trackpoint>
            <Time>2019-10-09T08:09:16.000Z</Time>
            <Position>
              <LatitudeDegrees>39.33186328969895839691162109375</LatitudeDegrees>
              <LongitudeDegrees>-6.33006230928003787994384765625</LongitudeDegrees>
            </Position>
            <AltitudeMeters>390</AltitudeMeters>
            <DistanceMeters>NAN</DistanceMeters>
          </Trackpoint>
          <Trackpoint>
            <Time>2019-10-09T08:09:20.000Z</Time>
            <Position>
              <LatitudeDegrees>39.33162440545856952667236328125</LatitudeDegrees>
              <LongitudeDegrees>-6.3300020433962345123291015625</LongitudeDegrees>
            </Position>
            <AltitudeMeters>390</AltitudeMeters>
            <DistanceMeters>NAN</DistanceMeters>
          </Trackpoint>
          <Trackpoint>
            <Time>2019-10-09T08:09:29.000Z</Time>
            <Position>
              <LatitudeDegrees>39.33108964003622531890869140625</LatitudeDegrees>
              <LongitudeDegrees>-6.3298563659191131591796875</LongitudeDegrees>
            </Position>
            <AltitudeMeters>390.399993896484375</AltitudeMeters>
            <DistanceMeters>NAN</DistanceMeters>
          </Trackpoint>
          <Trackpoint>
            <Time>2019-10-09T08:09:30.000Z</Time>
            <Position>
              <LatitudeDegrees>39.3310307152569293975830078125</LatitudeDegrees>
              <LongitudeDegrees>-6.32984253577888011932373046875</LongitudeDegrees>
            </Position>
            <AltitudeMeters>390.399993896484375</AltitudeMeters>
            <DistanceMeters>NAN</DistanceMeters>
          </Trackpoint>
          <Trackpoint>
            <Time>2019-10-09T08:09:39.000Z</Time>
            <Position>
              <LatitudeDegrees>39.33049418963491916656494140625</LatitudeDegrees>
              <LongitudeDegrees>-6.3296966068446636199951171875</LongitudeDegrees>
            </Position>
            <AltitudeMeters>390.399993896484375</AltitudeMeters>
            <DistanceMeters>NAN</DistanceMeters>
          </Trackpoint>
          <Trackpoint>
            <Time>2019-10-09T08:09:48.000Z</Time>
            <Position>
              <LatitudeDegrees>39.32994685135781764984130859375</LatitudeDegrees>
              <LongitudeDegrees>-6.3295537792146205902099609375</LongitudeDegrees>
            </Position>
            <AltitudeMeters>390.79998779296875</AltitudeMeters>
            <DistanceMeters>NAN</DistanceMeters>
          </Trackpoint>
          <Trackpoint>
            <Time>2019-10-09T08:09:53.000Z</Time>
            <Position>
              <LatitudeDegrees>39.32966035790741443634033203125</LatitudeDegrees>
              <LongitudeDegrees>-6.32947490550577640533447265625</LongitudeDegrees>
            </Position>
            <AltitudeMeters>391.600006103515625</AltitudeMeters>
            <DistanceMeters>NAN</DistanceMeters>
          </Trackpoint>
          <Trackpoint>
            <Time>2019-10-09T08:09:55.000Z</Time>
            <Position>
              <LatitudeDegrees>39.32955290190875530242919921875</LatitudeDegrees>
              <LongitudeDegrees>-6.3294505141675472259521484375</LongitudeDegrees>
            </Position>
            <AltitudeMeters>391.600006103515625</AltitudeMeters>
            <DistanceMeters>NAN</DistanceMeters>
          </Trackpoint>
          <Trackpoint>
            <Time>2019-10-09T08:10:02.000Z</Time>
            <Position>
              <LatitudeDegrees>39.32921846397221088409423828125</LatitudeDegrees>
              <LongitudeDegrees>-6.329361498355865478515625</LongitudeDegrees>
            </Position>
            <AltitudeMeters>392.79998779296875</AltitudeMeters>
            <DistanceMeters>NAN</DistanceMeters>
          </Trackpoint>
          <Trackpoint>
            <Time>2019-10-09T08:10:03.000Z</Time>
            <Position>
              <LatitudeDegrees>39.3291749618947505950927734375</LatitudeDegrees>
              <LongitudeDegrees>-6.32935051806271076202392578125</LongitudeDegrees>
            </Position>
            <AltitudeMeters>392.79998779296875</AltitudeMeters>
            <DistanceMeters>NAN</DistanceMeters>
          </Trackpoint>
          <Trackpoint>
            <Time>2019-10-09T08:10:08.000Z</Time>
            <Position>
              <LatitudeDegrees>39.32895376347005367279052734375</LatitudeDegrees>
              <LongitudeDegrees>-6.329297460615634918212890625</LongitudeDegrees>
            </Position>
            <AltitudeMeters>393.79998779296875</AltitudeMeters>
            <DistanceMeters>NAN</DistanceMeters>
          </Trackpoint>
          <Trackpoint>
            <Time>2019-10-09T08:10:13.000Z</Time>
            <Position>
              <LatitudeDegrees>39.328737594187259674072265625</LatitudeDegrees>
              <LongitudeDegrees>-6.32923400960862636566162109375</LongitudeDegrees>
            </Position>
            <AltitudeMeters>394</AltitudeMeters>
            <DistanceMeters>NAN</DistanceMeters>
          </Trackpoint>
          <Trackpoint>
            <Time>2019-10-09T08:10:19.000Z</Time>
            <Position>
              <LatitudeDegrees>39.32848320342600345611572265625</LatitudeDegrees>
              <LongitudeDegrees>-6.32916879840195178985595703125</LongitudeDegrees>
            </Position>
            <AltitudeMeters>395</AltitudeMeters>
            <DistanceMeters>NAN</DistanceMeters>
          </Trackpoint>
          <Trackpoint>
            <Time>2019-10-09T08:10:24.000Z</Time>
            <Position>
              <LatitudeDegrees>39.328310452401638031005859375</LatitudeDegrees>
              <LongitudeDegrees>-6.3291241228580474853515625</LongitudeDegrees>
            </Position>
            <AltitudeMeters>395.79998779296875</AltitudeMeters>
            <DistanceMeters>NAN</DistanceMeters>
          </Trackpoint>
          <Trackpoint>
            <Time>2019-10-09T08:10:25.000Z</Time>
            <Position>
              <LatitudeDegrees>39.32826762087643146514892578125</LatitudeDegrees>
              <LongitudeDegrees>-6.32911062799394130706787109375</LongitudeDegrees>
            </Position>
            <AltitudeMeters>396</AltitudeMeters>
            <DistanceMeters>NAN</DistanceMeters>
          </Trackpoint>
          <Trackpoint>
            <Time>2019-10-09T08:10:28.000Z</Time>
            <Position>
              <LatitudeDegrees>39.3281377851963043212890625</LatitudeDegrees>
              <LongitudeDegrees>-6.3290719874203205108642578125</LongitudeDegrees>
            </Position>
            <AltitudeMeters>395.79998779296875</AltitudeMeters>
            <DistanceMeters>NAN</DistanceMeters>
          </Trackpoint>
          <Trackpoint>
            <Time>2019-10-09T08:10:31.000Z</Time>
            <Position>
              <LatitudeDegrees>39.32800057344138622283935546875</LatitudeDegrees>
              <LongitudeDegrees>-6.329038627445697784423828125</LongitudeDegrees>
            </Position>
            <AltitudeMeters>395.600006103515625</AltitudeMeters>
            <DistanceMeters>NAN</DistanceMeters>
          </Trackpoint>
          <Trackpoint>
            <Time>2019-10-09T08:10:39.000Z</Time>
            <Position>
              <LatitudeDegrees>39.32763227261602878570556640625</LatitudeDegrees>
              <LongitudeDegrees>-6.32894030772149562835693359375</LongitudeDegrees>
            </Position>
            <AltitudeMeters>395.399993896484375</AltitudeMeters>
            <DistanceMeters>NAN</DistanceMeters>
          </Trackpoint>
          <Trackpoint>
            <Time>2019-10-09T08:10:49.000Z</Time>
            <Position>
              <LatitudeDegrees>39.3271110020577907562255859375</LatitudeDegrees>
              <LongitudeDegrees>-6.32879764772951602935791015625</LongitudeDegrees>
            </Position>
            <AltitudeMeters>395.79998779296875</AltitudeMeters>
            <DistanceMeters>NAN</DistanceMeters>
          </Trackpoint>
          <Trackpoint>
            <Time>2019-10-09T08:10:55.000Z</Time>
            <Position>
              <LatitudeDegrees>39.3267891369760036468505859375</LatitudeDegrees>
              <LongitudeDegrees>-6.32871064357459545135498046875</LongitudeDegrees>
            </Position>
            <AltitudeMeters>395.399993896484375</AltitudeMeters>
            <DistanceMeters>NAN</DistanceMeters>
          </Trackpoint>
          <Trackpoint>
            <Time>2019-10-09T08:11:00.000Z</Time>
            <Position>
              <LatitudeDegrees>39.32651446200907230377197265625</LatitudeDegrees>
              <LongitudeDegrees>-6.32864342071115970611572265625</LongitudeDegrees>
            </Position>
            <AltitudeMeters>395</AltitudeMeters>
            <DistanceMeters>NAN</DistanceMeters>
          </Trackpoint>
          <Trackpoint>
            <Time>2019-10-09T08:11:04.000Z</Time>
            <Position>
              <LatitudeDegrees>39.326294101774692535400390625</LatitudeDegrees>
              <LongitudeDegrees>-6.32858566939830780029296875</LongitudeDegrees>
            </Position>
            <AltitudeMeters>395</AltitudeMeters>
            <DistanceMeters>NAN</DistanceMeters>
          </Trackpoint>
          <Trackpoint>
            <Time>2019-10-09T08:11:05.000Z</Time>
            <Position>
              <LatitudeDegrees>39.3262386135756969451904296875</LatitudeDegrees>
              <LongitudeDegrees>-6.32857033051550388336181640625</LongitudeDegrees>
            </Position>
            <AltitudeMeters>394.79998779296875</AltitudeMeters>
            <DistanceMeters>NAN</DistanceMeters>
          </Trackpoint>
          <Trackpoint>
            <Time>2019-10-09T08:11:10.000Z</Time>
            <Position>
              <LatitudeDegrees>39.32596075348556041717529296875</LatitudeDegrees>
              <LongitudeDegrees>-6.328495480120182037353515625</LongitudeDegrees>
            </Position>
            <AltitudeMeters>394.79998779296875</AltitudeMeters>
            <DistanceMeters>NAN</DistanceMeters>
          </Trackpoint>
          <Trackpoint>
            <Time>2019-10-09T08:11:15.000Z</Time>
            <Position>
              <LatitudeDegrees>39.32568783871829509735107421875</LatitudeDegrees>
              <LongitudeDegrees>-6.32842347957193851470947265625</LongitudeDegrees>
            </Position>
            <AltitudeMeters>394.600006103515625</AltitudeMeters>
            <DistanceMeters>NAN</DistanceMeters>
          </Trackpoint>
          <Trackpoint>
            <Time>2019-10-09T08:11:22.000Z</Time>
            <Position>
              <LatitudeDegrees>39.325305037200450897216796875</LatitudeDegrees>
              <LongitudeDegrees>-6.32832239381968975067138671875</LongitudeDegrees>
            </Position>
            <AltitudeMeters>395</AltitudeMeters>
            <DistanceMeters>NAN</DistanceMeters>
          </Trackpoint>
          <Trackpoint>
            <Time>2019-10-09T08:11:32.000Z</Time>
            <Position>
              <LatitudeDegrees>39.32474755682051181793212890625</LatitudeDegrees>
              <LongitudeDegrees>-6.3281744532287120819091796875</LongitudeDegrees>
            </Position>
            <AltitudeMeters>394.79998779296875</AltitudeMeters>
            <DistanceMeters>NAN</DistanceMeters>
          </Trackpoint>
          <Trackpoint>
            <Time>2019-10-09T08:11:33.000Z</Time>
            <Position>
              <LatitudeDegrees>39.32469089515507221221923828125</LatitudeDegrees>
              <LongitudeDegrees>-6.328159533441066741943359375</LongitudeDegrees>
            </Position>
            <AltitudeMeters>394.79998779296875</AltitudeMeters>
            <DistanceMeters>NAN</DistanceMeters>
          </Trackpoint>
          <Trackpoint>
            <Time>2019-10-09T08:11:43.000Z</Time>
            <Position>
              <LatitudeDegrees>39.32412142865359783172607421875</LatitudeDegrees>
              <LongitudeDegrees>-6.3280091620981693267822265625</LongitudeDegrees>
            </Position>
            <AltitudeMeters>394</AltitudeMeters>
            <DistanceMeters>NAN</DistanceMeters>
          </Trackpoint>
          <Trackpoint>
            <Time>2019-10-09T08:11:52.000Z</Time>
            <Position>
              <LatitudeDegrees>39.32361298240721225738525390625</LatitudeDegrees>
              <LongitudeDegrees>-6.32787044160068035125732421875</LongitudeDegrees>
            </Position>
            <AltitudeMeters>394.20001220703125</AltitudeMeters>
            <DistanceMeters>NAN</DistanceMeters>
          </Trackpoint>
          <Trackpoint>
            <Time>2019-10-09T08:11:56.000Z</Time>
            <Position>
              <LatitudeDegrees>39.3233810551464557647705078125</LatitudeDegrees>
              <LongitudeDegrees>-6.327808164060115814208984375</LongitudeDegrees>
            </Position>
            <AltitudeMeters>394.20001220703125</AltitudeMeters>
            <DistanceMeters>NAN</DistanceMeters>
          </Trackpoint>
          <Trackpoint>
            <Time>2019-10-09T08:11:57.000Z</Time>
            <Position>
              <LatitudeDegrees>39.3233227171003818511962890625</LatitudeDegrees>
              <LongitudeDegrees>-6.32779450155794620513916015625</LongitudeDegrees>
            </Position>
            <AltitudeMeters>393.79998779296875</AltitudeMeters>
            <DistanceMeters>NAN</DistanceMeters>
          </Trackpoint>
          <Trackpoint>
            <Time>2019-10-09T08:12:05.000Z</Time>
            <Position>
              <LatitudeDegrees>39.32286548428237438201904296875</LatitudeDegrees>
              <LongitudeDegrees>-6.32767095230519771575927734375</LongitudeDegrees>
            </Position>
            <AltitudeMeters>393.399993896484375</AltitudeMeters>
            <DistanceMeters>NAN</DistanceMeters>
          </Trackpoint>
          <Trackpoint>
            <Time>2019-10-09T08:12:09.000Z</Time>
            <Position>
              <LatitudeDegrees>39.32263791561126708984375</LatitudeDegrees>
              <LongitudeDegrees>-6.32760892622172832489013671875</LongitudeDegrees>
            </Position>
            <AltitudeMeters>394</AltitudeMeters>
            <DistanceMeters>NAN</DistanceMeters>
          </Trackpoint>
          <Trackpoint>
            <Time>2019-10-09T08:12:18.000Z</Time>
            <Position>
              <LatitudeDegrees>39.32210960425436496734619140625</LatitudeDegrees>
              <LongitudeDegrees>-6.32746852934360504150390625</LongitudeDegrees>
            </Position>
            <AltitudeMeters>393.600006103515625</AltitudeMeters>
            <DistanceMeters>NAN</DistanceMeters>
          </Trackpoint>
          <Trackpoint>
            <Time>2019-10-09T08:12:21.000Z</Time>
            <Position>
              <LatitudeDegrees>39.321932494640350341796875</LatitudeDegrees>
              <LongitudeDegrees>-6.32742150686681270599365234375</LongitudeDegrees>
            </Position>
            <AltitudeMeters>393.20001220703125</AltitudeMeters>
            <DistanceMeters>NAN</DistanceMeters>
          </Trackpoint>
          <Trackpoint>
            <Time>2019-10-09T08:12:30.000Z</Time>
            <Position>
              <LatitudeDegrees>39.32141122408211231231689453125</LatitudeDegrees>
              <LongitudeDegrees>-6.32728253491222858428955078125</LongitudeDegrees>
            </Position>
            <AltitudeMeters>393.399993896484375</AltitudeMeters>
            <DistanceMeters>NAN</DistanceMeters>
          </Trackpoint>
          <Trackpoint>
            <Time>2019-10-09T08:12:35.000Z</Time>
            <Position>
              <LatitudeDegrees>39.32112406007945537567138671875</LatitudeDegrees>
              <LongitudeDegrees>-6.327208019793033599853515625</LongitudeDegrees>
            </Position>
            <AltitudeMeters>393.600006103515625</AltitudeMeters>
            <DistanceMeters>NAN</DistanceMeters>
          </Trackpoint>
          <Trackpoint>
            <Time>2019-10-09T08:12:45.000Z</Time>
            <Position>
              <LatitudeDegrees>39.32056649588048458099365234375</LatitudeDegrees>
              <LongitudeDegrees>-6.32705924101173877716064453125</LongitudeDegrees>
            </Position>
            <AltitudeMeters>394.20001220703125</AltitudeMeters>
            <DistanceMeters>NAN</DistanceMeters>
          </Trackpoint>
          <Trackpoint>
            <Time>2019-10-09T08:12:52.000Z</Time>
            <Position>
              <LatitudeDegrees>39.32018059305846691131591796875</LatitudeDegrees>
              <LongitudeDegrees>-6.3269517011940479278564453125</LongitudeDegrees>
            </Position>
            <AltitudeMeters>394.600006103515625</AltitudeMeters>
            <DistanceMeters>NAN</DistanceMeters>
          </Trackpoint>
          <Trackpoint>
            <Time>2019-10-09T08:12:54.000Z</Time>
            <Position>
              <LatitudeDegrees>39.32006902992725372314453125</LatitudeDegrees>
              <LongitudeDegrees>-6.326923370361328125</LongitudeDegrees>
            </Position>
            <AltitudeMeters>395</AltitudeMeters>
            <DistanceMeters>NAN</DistanceMeters>
          </Trackpoint>
          <Trackpoint>
            <Time>2019-10-09T08:12:57.000Z</Time>
            <Position>
              <LatitudeDegrees>39.31990030221641063690185546875</LatitudeDegrees>
              <LongitudeDegrees>-6.3268812932074069976806640625</LongitudeDegrees>
            </Position>
            <AltitudeMeters>394.79998779296875</AltitudeMeters>
            <DistanceMeters>NAN</DistanceMeters>
          </Trackpoint>
          <Trackpoint>
            <Time>2019-10-09T08:13:07.000Z</Time>
            <Position>
              <LatitudeDegrees>39.319355227053165435791015625</LatitudeDegrees>
              <LongitudeDegrees>-6.3267324306070804595947265625</LongitudeDegrees>
            </Position>
            <AltitudeMeters>395.20001220703125</AltitudeMeters>
            <DistanceMeters>NAN</DistanceMeters>
          </Trackpoint>
          <Trackpoint>
            <Time>2019-10-09T08:13:08.000Z</Time>
            <Position>
              <LatitudeDegrees>39.31930133141577243804931640625</LatitudeDegrees>
              <LongitudeDegrees>-6.326719187200069427490234375</LongitudeDegrees>
            </Position>
            <AltitudeMeters>395.399993896484375</AltitudeMeters>
            <DistanceMeters>NAN</DistanceMeters>
          </Trackpoint>
          <Trackpoint>
            <Time>2019-10-09T08:13:16.000Z</Time>
            <Position>
              <LatitudeDegrees>39.31887452490627765655517578125</LatitudeDegrees>
              <LongitudeDegrees>-6.32660678587853908538818359375</LongitudeDegrees>
            </Position>
            <AltitudeMeters>396</AltitudeMeters>
            <DistanceMeters>NAN</DistanceMeters>
          </Trackpoint>
          <Trackpoint>
            <Time>2019-10-09T08:13:21.000Z</Time>
            <Position>
              <LatitudeDegrees>39.318619631230831146240234375</LatitudeDegrees>
              <LongitudeDegrees>-6.32653285749256610870361328125</LongitudeDegrees>
            </Position>
            <AltitudeMeters>396.79998779296875</AltitudeMeters>
            <DistanceMeters>NAN</DistanceMeters>
          </Trackpoint>
          <Trackpoint>
            <Time>2019-10-09T08:13:23.000Z</Time>
            <Position>
              <LatitudeDegrees>39.318515360355377197265625</LatitudeDegrees>
              <LongitudeDegrees>-6.32651190273463726043701171875</LongitudeDegrees>
            </Position>
            <AltitudeMeters>397</AltitudeMeters>
            <DistanceMeters>NAN</DistanceMeters>
          </Trackpoint>
          <Trackpoint>
            <Time>2019-10-09T08:13:28.000Z</Time>
            <Position>
              <LatitudeDegrees>39.31825057603418827056884765625</LatitudeDegrees>
              <LongitudeDegrees>-6.32643344812095165252685546875</LongitudeDegrees>
            </Position>
            <AltitudeMeters>396.79998779296875</AltitudeMeters>
            <DistanceMeters>NAN</DistanceMeters>
          </Trackpoint>
          <Trackpoint>
            <Time>2019-10-09T08:13:38.000Z</Time>
            <Position>
              <LatitudeDegrees>39.3177158944308757781982421875</LatitudeDegrees>
              <LongitudeDegrees>-6.3262962363660335540771484375</LongitudeDegrees>
            </Position>
            <AltitudeMeters>397.79998779296875</AltitudeMeters>
            <DistanceMeters>NAN</DistanceMeters>
          </Trackpoint>
          <Trackpoint>
            <Time>2019-10-09T08:13:39.000Z</Time>
            <Position>
              <LatitudeDegrees>39.317662082612514495849609375</LatitudeDegrees>
              <LongitudeDegrees>-6.32628357969224452972412109375</LongitudeDegrees>
            </Position>
            <AltitudeMeters>397.79998779296875</AltitudeMeters>
            <DistanceMeters>NAN</DistanceMeters>
          </Trackpoint>
          <Trackpoint>
            <Time>2019-10-09T08:13:43.000Z</Time>
            <Position>
              <LatitudeDegrees>39.3174557201564311981201171875</LatitudeDegrees>
              <LongitudeDegrees>-6.3262251578271389007568359375</LongitudeDegrees>
            </Position>
            <AltitudeMeters>398</AltitudeMeters>
            <DistanceMeters>NAN</DistanceMeters>
          </Trackpoint>
          <Trackpoint>
            <Time>2019-10-09T08:13:48.000Z</Time>
            <Position>
              <LatitudeDegrees>39.317190349102020263671875</LatitudeDegrees>
              <LongitudeDegrees>-6.32615852169692516326904296875</LongitudeDegrees>
            </Position>
            <AltitudeMeters>397.79998779296875</AltitudeMeters>
            <DistanceMeters>NAN</DistanceMeters>
          </Trackpoint>
          <Trackpoint>
            <Time>2019-10-09T08:13:54.000Z</Time>
            <Position>
              <LatitudeDegrees>39.31684442795813083648681640625</LatitudeDegrees>
              <LongitudeDegrees>-6.32609850727021694183349609375</LongitudeDegrees>
            </Position>
            <AltitudeMeters>397.20001220703125</AltitudeMeters>
            <DistanceMeters>NAN</DistanceMeters>
          </Trackpoint>
          <Trackpoint>
            <Time>2019-10-09T08:13:55.000Z</Time>
            <Position>
              <LatitudeDegrees>39.3167811445891857147216796875</LatitudeDegrees>
              <LongitudeDegrees>-6.326089538633823394775390625</LongitudeDegrees>
            </Position>
            <AltitudeMeters>397</AltitudeMeters>
            <DistanceMeters>NAN</DistanceMeters>
          </Trackpoint>
          <Trackpoint>
            <Time>2019-10-09T08:14:00.000Z</Time>
            <Position>
              <LatitudeDegrees>39.31643857620656490325927734375</LatitudeDegrees>
              <LongitudeDegrees>-6.32607470266520977020263671875</LongitudeDegrees>
            </Position>
            <AltitudeMeters>395.600006103515625</AltitudeMeters>
            <DistanceMeters>NAN</DistanceMeters>
          </Trackpoint>
          <Trackpoint>
            <Time>2019-10-09T08:14:01.000Z</Time>
            <Position>
              <LatitudeDegrees>39.31636733002960681915283203125</LatitudeDegrees>
              <LongitudeDegrees>-6.32607839070260524749755859375</LongitudeDegrees>
            </Position>
            <AltitudeMeters>395</AltitudeMeters>
            <DistanceMeters>NAN</DistanceMeters>
          </Trackpoint>
          <Trackpoint>
            <Time>2019-10-09T08:14:05.000Z</Time>
            <Position>
              <LatitudeDegrees>39.31607815437018871307373046875</LatitudeDegrees>
              <LongitudeDegrees>-6.3261091522872447967529296875</LongitudeDegrees>
            </Position>
            <AltitudeMeters>394.20001220703125</AltitudeMeters>
            <DistanceMeters>NAN</DistanceMeters>
          </Trackpoint>
          <Trackpoint>
            <Time>2019-10-09T08:14:08.000Z</Time>
            <Position>
              <LatitudeDegrees>39.31584966368973255157470703125</LatitudeDegrees>
              <LongitudeDegrees>-6.326135806739330291748046875</LongitudeDegrees>
            </Position>
            <AltitudeMeters>393.600006103515625</AltitudeMeters>
            <DistanceMeters>NAN</DistanceMeters>
          </Trackpoint>
          <Trackpoint>
            <Time>2019-10-09T08:14:09.000Z</Time>
            <Position>
              <LatitudeDegrees>39.315773136913776397705078125</LatitudeDegrees>
              <LongitudeDegrees>-6.32614796049892902374267578125</LongitudeDegrees>
            </Position>
            <AltitudeMeters>393.20001220703125</AltitudeMeters>
            <DistanceMeters>NAN</DistanceMeters>
          </Trackpoint>
          <Trackpoint>
            <Time>2019-10-09T08:14:12.000Z</Time>
            <Position>
              <LatitudeDegrees>39.31554154492914676666259765625</LatitudeDegrees>
              <LongitudeDegrees>-6.32617444731295108795166015625</LongitudeDegrees>
            </Position>
            <AltitudeMeters>392.20001220703125</AltitudeMeters>
            <DistanceMeters>NAN</DistanceMeters>
          </Trackpoint>
          <Trackpoint>
            <Time>2019-10-09T08:14:14.000Z</Time>
            <Position>
              <LatitudeDegrees>39.31538513861596584320068359375</LatitudeDegrees>
              <LongitudeDegrees>-6.326192803680896759033203125</LongitudeDegrees>
            </Position>
            <AltitudeMeters>391.79998779296875</AltitudeMeters>
            <DistanceMeters>NAN</DistanceMeters>
          </Trackpoint>
          <Trackpoint>
            <Time>2019-10-09T08:14:19.000Z</Time>
            <Position>
              <LatitudeDegrees>39.3149830587208271026611328125</LatitudeDegrees>
              <LongitudeDegrees>-6.32624837569892406463623046875</LongitudeDegrees>
            </Position>
            <AltitudeMeters>390.600006103515625</AltitudeMeters>
            <DistanceMeters>NAN</DistanceMeters>
          </Trackpoint>
          <Trackpoint>
            <Time>2019-10-09T08:14:22.000Z</Time>
            <Position>
              <LatitudeDegrees>39.3147352896630764007568359375</LatitudeDegrees>
              <LongitudeDegrees>-6.3262794725596904754638671875</LongitudeDegrees>
            </Position>
            <AltitudeMeters>390.20001220703125</AltitudeMeters>
            <DistanceMeters>NAN</DistanceMeters>
          </Trackpoint>
          <Trackpoint>
            <Time>2019-10-09T08:14:24.000Z</Time>
            <Position>
              <LatitudeDegrees>39.31457008235156536102294921875</LatitudeDegrees>
              <LongitudeDegrees>-6.32630000822246074676513671875</LongitudeDegrees>
            </Position>
            <AltitudeMeters>389.399993896484375</AltitudeMeters>
            <DistanceMeters>NAN</DistanceMeters>
          </Trackpoint>
          <Trackpoint>
            <Time>2019-10-09T08:14:25.000Z</Time>
            <Position>
              <LatitudeDegrees>39.3144875206053256988525390625</LatitudeDegrees>
              <LongitudeDegrees>-6.3263093121349811553955078125</LongitudeDegrees>
            </Position>
            <AltitudeMeters>389.399993896484375</AltitudeMeters>
            <DistanceMeters>NAN</DistanceMeters>
          </Trackpoint>
          <Trackpoint>
            <Time>2019-10-09T08:14:27.000Z</Time>
            <Position>
              <LatitudeDegrees>39.31432063691318035125732421875</LatitudeDegrees>
              <LongitudeDegrees>-6.3263307698071002960205078125</LongitudeDegrees>
            </Position>
            <AltitudeMeters>388.79998779296875</AltitudeMeters>
            <DistanceMeters>NAN</DistanceMeters>
          </Trackpoint>
          <Trackpoint>
            <Time>2019-10-09T08:14:29.000Z</Time>
            <Position>
              <LatitudeDegrees>39.31415299884974956512451171875</LatitudeDegrees>
              <LongitudeDegrees>-6.32634912617504596710205078125</LongitudeDegrees>
            </Position>
            <AltitudeMeters>388.20001220703125</AltitudeMeters>
            <DistanceMeters>NAN</DistanceMeters>
          </Trackpoint>
          <Trackpoint>
            <Time>2019-10-09T08:14:30.000Z</Time>
            <Position>
              <LatitudeDegrees>39.31406834162771701812744140625</LatitudeDegrees>
              <LongitudeDegrees>-6.3263599388301372528076171875</LongitudeDegrees>
            </Position>
            <AltitudeMeters>388.399993896484375</AltitudeMeters>
            <DistanceMeters>NAN</DistanceMeters>
          </Trackpoint>
          <Trackpoint>
            <Time>2019-10-09T08:14:37.000Z</Time>
            <Position>
              <LatitudeDegrees>39.313473142683506011962890625</LatitudeDegrees>
              <LongitudeDegrees>-6.3264360465109348297119140625</LongitudeDegrees>
            </Position>
            <AltitudeMeters>386.79998779296875</AltitudeMeters>
            <DistanceMeters>NAN</DistanceMeters>
          </Trackpoint>
          <Trackpoint>
            <Time>2019-10-09T08:14:41.000Z</Time>
            <Position>
              <LatitudeDegrees>39.31313225068151950836181640625</LatitudeDegrees>
              <LongitudeDegrees>-6.3264741003513336181640625</LongitudeDegrees>
            </Position>
            <AltitudeMeters>385.600006103515625</AltitudeMeters>
            <DistanceMeters>NAN</DistanceMeters>
          </Trackpoint>
          <Trackpoint>
            <Time>2019-10-09T08:14:45.000Z</Time>
            <Position>
              <LatitudeDegrees>39.31279462762176990509033203125</LatitudeDegrees>
              <LongitudeDegrees>-6.32652430795133113861083984375</LongitudeDegrees>
            </Position>
            <AltitudeMeters>384.600006103515625</AltitudeMeters>
            <DistanceMeters>NAN</DistanceMeters>
          </Trackpoint>
          <Trackpoint>
            <Time>2019-10-09T08:14:49.000Z</Time>
            <Position>
              <LatitudeDegrees>39.31245901621878147125244140625</LatitudeDegrees>
              <LongitudeDegrees>-6.326565630733966827392578125</LongitudeDegrees>
            </Position>
            <AltitudeMeters>384.79998779296875</AltitudeMeters>
            <DistanceMeters>NAN</DistanceMeters>
          </Trackpoint>
          <Trackpoint>
            <Time>2019-10-09T08:14:51.000Z</Time>
            <Position>
              <LatitudeDegrees>39.31229188106954097747802734375</LatitudeDegrees>
              <LongitudeDegrees>-6.32658801041543483734130859375</LongitudeDegrees>
            </Position>
            <AltitudeMeters>383.79998779296875</AltitudeMeters>
            <DistanceMeters>NAN</DistanceMeters>
          </Trackpoint>
          <Trackpoint>
            <Time>2019-10-09T08:14:52.000Z</Time>
            <Position>
              <LatitudeDegrees>39.31220957078039646148681640625</LatitudeDegrees>
              <LongitudeDegrees>-6.32660008035600185394287109375</LongitudeDegrees>
            </Position>
            <AltitudeMeters>383.20001220703125</AltitudeMeters>
            <DistanceMeters>NAN</DistanceMeters>
          </Trackpoint>
          <Trackpoint>
            <Time>2019-10-09T08:14:54.000Z</Time>
            <Position>
              <LatitudeDegrees>39.31204251945018768310546875</LatitudeDegrees>
              <LongitudeDegrees>-6.32662086747586727142333984375</LongitudeDegrees>
            </Position>
            <AltitudeMeters>383.399993896484375</AltitudeMeters>
            <DistanceMeters>NAN</DistanceMeters>
          </Trackpoint>
          <Trackpoint>
            <Time>2019-10-09T08:15:00.000Z</Time>
            <Position>
              <LatitudeDegrees>39.311543963849544525146484375</LatitudeDegrees>
              <LongitudeDegrees>-6.32668540813028812408447265625</LongitudeDegrees>
            </Position>
            <AltitudeMeters>382</AltitudeMeters>
            <DistanceMeters>NAN</DistanceMeters>
          </Trackpoint>
          <Trackpoint>
            <Time>2019-10-09T08:15:02.000Z</Time>
            <Position>
              <LatitudeDegrees>39.3113778345286846160888671875</LatitudeDegrees>
              <LongitudeDegrees>-6.32670653052628040313720703125</LongitudeDegrees>
            </Position>
            <AltitudeMeters>382</AltitudeMeters>
            <DistanceMeters>NAN</DistanceMeters>
          </Trackpoint>
          <Trackpoint>
            <Time>2019-10-09T08:15:07.000Z</Time>
            <Position>
              <LatitudeDegrees>39.3109634332358837127685546875</LatitudeDegrees>
              <LongitudeDegrees>-6.32675749249756336212158203125</LongitudeDegrees>
            </Position>
            <AltitudeMeters>380.79998779296875</AltitudeMeters>
            <DistanceMeters>NAN</DistanceMeters>
          </Trackpoint>
          <Trackpoint>
            <Time>2019-10-09T08:15:12.000Z</Time>
            <Position>
              <LatitudeDegrees>39.31055800057947635650634765625</LatitudeDegrees>
              <LongitudeDegrees>-6.326811723411083221435546875</LongitudeDegrees>
            </Position>
            <AltitudeMeters>380.600006103515625</AltitudeMeters>
            <DistanceMeters>NAN</DistanceMeters>
          </Trackpoint>
          <Trackpoint>
            <Time>2019-10-09T08:15:19.000Z</Time>
            <Position>
              <LatitudeDegrees>39.31002692319452762603759765625</LatitudeDegrees>
              <LongitudeDegrees>-6.3268782757222652435302734375</LongitudeDegrees>
            </Position>
            <AltitudeMeters>381</AltitudeMeters>
            <DistanceMeters>NAN</DistanceMeters>
          </Trackpoint>
          <Trackpoint>
            <Time>2019-10-09T08:15:20.000Z</Time>
            <Position>
              <LatitudeDegrees>39.30995215661823749542236328125</LatitudeDegrees>
              <LongitudeDegrees>-6.32688506506383419036865234375</LongitudeDegrees>
            </Position>
            <AltitudeMeters>381.20001220703125</AltitudeMeters>
            <DistanceMeters>NAN</DistanceMeters>
          </Trackpoint>
          <Trackpoint>
            <Time>2019-10-09T08:15:28.000Z</Time>
            <Position>
              <LatitudeDegrees>39.3093973584473133087158203125</LatitudeDegrees>
              <LongitudeDegrees>-6.32695530541241168975830078125</LongitudeDegrees>
            </Position>
            <AltitudeMeters>380.79998779296875</AltitudeMeters>
            <DistanceMeters>NAN</DistanceMeters>
          </Trackpoint>
          <Trackpoint>
            <Time>2019-10-09T08:15:29.000Z</Time>
            <Position>
              <LatitudeDegrees>39.30933072231709957122802734375</LatitudeDegrees>
              <LongitudeDegrees>-6.32696301676332950592041015625</LongitudeDegrees>
            </Position>
            <AltitudeMeters>380.79998779296875</AltitudeMeters>
            <DistanceMeters>NAN</DistanceMeters>
          </Trackpoint>
          <Trackpoint>
            <Time>2019-10-09T08:15:38.000Z</Time>
            <Position>
              <LatitudeDegrees>39.3087492696940898895263671875</LatitudeDegrees>
              <LongitudeDegrees>-6.3270331732928752899169921875</LongitudeDegrees>
            </Position>
            <AltitudeMeters>381.399993896484375</AltitudeMeters>
            <DistanceMeters>NAN</DistanceMeters>
          </Trackpoint>
          <Trackpoint>
            <Time>2019-10-09T08:15:41.000Z</Time>
            <Position>
              <LatitudeDegrees>39.30855908431112766265869140625</LatitudeDegrees>
              <LongitudeDegrees>-6.3270546309649944305419921875</LongitudeDegrees>
            </Position>
            <AltitudeMeters>381.79998779296875</AltitudeMeters>
            <DistanceMeters>NAN</DistanceMeters>
          </Trackpoint>
          <Trackpoint>
            <Time>2019-10-09T08:15:47.000Z</Time>
            <Position>
              <LatitudeDegrees>39.308185838162899017333984375</LatitudeDegrees>
              <LongitudeDegrees>-6.32710534147918224334716796875</LongitudeDegrees>
            </Position>
            <AltitudeMeters>381.600006103515625</AltitudeMeters>
            <DistanceMeters>NAN</DistanceMeters>
          </Trackpoint>
          <Trackpoint>
            <Time>2019-10-09T08:15:51.000Z</Time>
            <Position>
              <LatitudeDegrees>39.30793044157326221466064453125</LatitudeDegrees>
              <LongitudeDegrees>-6.32713601924479007720947265625</LongitudeDegrees>
            </Position>
            <AltitudeMeters>381.399993896484375</AltitudeMeters>
            <DistanceMeters>NAN</DistanceMeters>
          </Trackpoint>
          <Trackpoint>
            <Time>2019-10-09T08:16:00.000Z</Time>
            <Position>
              <LatitudeDegrees>39.30735544301569461822509765625</LatitudeDegrees>
              <LongitudeDegrees>-6.3271884061396121978759765625</LongitudeDegrees>
            </Position>
            <AltitudeMeters>381.399993896484375</AltitudeMeters>
            <DistanceMeters>NAN</DistanceMeters>
          </Trackpoint>
          <Trackpoint>
            <Time>2019-10-09T08:16:01.000Z</Time>
            <Position>
              <LatitudeDegrees>39.30729241110384464263916015625</LatitudeDegrees>
              <LongitudeDegrees>-6.327188909053802490234375</LongitudeDegrees>
            </Position>
            <AltitudeMeters>381</AltitudeMeters>
            <DistanceMeters>NAN</DistanceMeters>
          </Trackpoint>
          <Trackpoint>
            <Time>2019-10-09T08:16:09.000Z</Time>
            <Position>
              <LatitudeDegrees>39.3067855574190616607666015625</LatitudeDegrees>
              <LongitudeDegrees>-6.32717507891356945037841796875</LongitudeDegrees>
            </Position>
            <AltitudeMeters>381.20001220703125</AltitudeMeters>
            <DistanceMeters>NAN</DistanceMeters>
          </Trackpoint>
          <Trackpoint>
            <Time>2019-10-09T08:16:15.000Z</Time>
            <Position>
              <LatitudeDegrees>39.30643670260906219482421875</LatitudeDegrees>
              <LongitudeDegrees>-6.327129565179347991943359375</LongitudeDegrees>
            </Position>
            <AltitudeMeters>381.79998779296875</AltitudeMeters>
            <DistanceMeters>NAN</DistanceMeters>
          </Trackpoint>
          <Trackpoint>
            <Time>2019-10-09T08:16:17.000Z</Time>
            <Position>
              <LatitudeDegrees>39.30633033625781536102294921875</LatitudeDegrees>
              <LongitudeDegrees>-6.327111460268497467041015625</LongitudeDegrees>
            </Position>
            <AltitudeMeters>382.20001220703125</AltitudeMeters>
            <DistanceMeters>NAN</DistanceMeters>
          </Trackpoint>
          <Trackpoint>
            <Time>2019-10-09T08:16:20.000Z</Time>
            <Position>
              <LatitudeDegrees>39.30618055164813995361328125</LatitudeDegrees>
              <LongitudeDegrees>-6.32708254270255565643310546875</LongitudeDegrees>
            </Position>
            <AltitudeMeters>382.79998779296875</AltitudeMeters>
            <DistanceMeters>NAN</DistanceMeters>
          </Trackpoint>
          <Trackpoint>
            <Time>2019-10-09T08:16:25.000Z</Time>
            <Position>
              <LatitudeDegrees>39.3059510551393032073974609375</LatitudeDegrees>
              <LongitudeDegrees>-6.32702101953327655792236328125</LongitudeDegrees>
            </Position>
            <AltitudeMeters>383.600006103515625</AltitudeMeters>
            <DistanceMeters>NAN</DistanceMeters>
          </Trackpoint>
          <Trackpoint>
            <Time>2019-10-09T08:16:27.000Z</Time>
            <Position>
              <LatitudeDegrees>39.30586245842278003692626953125</LatitudeDegrees>
              <LongitudeDegrees>-6.32699109613895416259765625</LongitudeDegrees>
            </Position>
            <AltitudeMeters>384.20001220703125</AltitudeMeters>
            <DistanceMeters>NAN</DistanceMeters>
          </Trackpoint>
          <Trackpoint>
            <Time>2019-10-09T08:16:33.000Z</Time>
            <Position>
              <LatitudeDegrees>39.30561251007020473480224609375</LatitudeDegrees>
              <LongitudeDegrees>-6.32691255770623683929443359375</LongitudeDegrees>
            </Position>
            <AltitudeMeters>385</AltitudeMeters>
            <DistanceMeters>NAN</DistanceMeters>
          </Trackpoint>
          <Trackpoint>
            <Time>2019-10-09T08:16:35.000Z</Time>
            <Position>
              <LatitudeDegrees>39.30553757585585117340087890625</LatitudeDegrees>
              <LongitudeDegrees>-6.32687618024647235870361328125</LongitudeDegrees>
            </Position>
            <AltitudeMeters>385.79998779296875</AltitudeMeters>
            <DistanceMeters>NAN</DistanceMeters>
          </Trackpoint>
          <Trackpoint>
            <Time>2019-10-09T08:16:40.000Z</Time>
            <Position>
              <LatitudeDegrees>39.30533003993332386016845703125</LatitudeDegrees>
              <LongitudeDegrees>-6.32679236121475696563720703125</LongitudeDegrees>
            </Position>
            <AltitudeMeters>386.20001220703125</AltitudeMeters>
            <DistanceMeters>NAN</DistanceMeters>
          </Trackpoint>
          <Trackpoint>
            <Time>2019-10-09T08:16:43.000Z</Time>
            <Position>
              <LatitudeDegrees>39.30520556867122650146484375</LatitudeDegrees>
              <LongitudeDegrees>-6.326731257140636444091796875</LongitudeDegrees>
            </Position>
            <AltitudeMeters>387</AltitudeMeters>
            <DistanceMeters>NAN</DistanceMeters>
          </Trackpoint>
          <Trackpoint>
            <Time>2019-10-09T08:16:48.000Z</Time>
            <Position>
              <LatitudeDegrees>39.30500331334769725799560546875</LatitudeDegrees>
              <LongitudeDegrees>-6.3266295008361339569091796875</LongitudeDegrees>
            </Position>
            <AltitudeMeters>387.399993896484375</AltitudeMeters>
            <DistanceMeters>NAN</DistanceMeters>
          </Trackpoint>
          <Trackpoint>
            <Time>2019-10-09T08:16:50.000Z</Time>
            <Position>
              <LatitudeDegrees>39.3049205839633941650390625</LatitudeDegrees>
              <LongitudeDegrees>-6.32659102790057659149169921875</LongitudeDegrees>
            </Position>
            <AltitudeMeters>388</AltitudeMeters>
            <DistanceMeters>NAN</DistanceMeters>
          </Trackpoint>
          <Trackpoint>
            <Time>2019-10-09T08:16:52.000Z</Time>
            <Position>
              <LatitudeDegrees>39.304841123521327972412109375</LatitudeDegrees>
              <LongitudeDegrees>-6.32654207758605480194091796875</LongitudeDegrees>
            </Position>
            <AltitudeMeters>388.399993896484375</AltitudeMeters>
            <DistanceMeters>NAN</DistanceMeters>
          </Trackpoint>
          <Trackpoint>
            <Time>2019-10-09T08:16:58.000Z</Time>
            <Position>
              <LatitudeDegrees>39.3045992217957973480224609375</LatitudeDegrees>
              <LongitudeDegrees>-6.3263998366892337799072265625</LongitudeDegrees>
            </Position>
            <AltitudeMeters>389</AltitudeMeters>
            <DistanceMeters>NAN</DistanceMeters>
          </Trackpoint>
          <Trackpoint>
            <Time>2019-10-09T08:17:04.000Z</Time>
            <Position>
              <LatitudeDegrees>39.30436067283153533935546875</LatitudeDegrees>
              <LongitudeDegrees>-6.32624351419508457183837890625</LongitudeDegrees>
            </Position>
            <AltitudeMeters>389.399993896484375</AltitudeMeters>
            <DistanceMeters>NAN</DistanceMeters>
          </Trackpoint>
          <Trackpoint>
            <Time>2019-10-09T08:17:06.000Z</Time>
            <Position>
              <LatitudeDegrees>39.3042786978185176849365234375</LatitudeDegrees>
              <LongitudeDegrees>-6.32619171403348445892333984375</LongitudeDegrees>
            </Position>
            <AltitudeMeters>389.79998779296875</AltitudeMeters>
            <DistanceMeters>NAN</DistanceMeters>
          </Trackpoint>
          <Trackpoint>
            <Time>2019-10-09T08:17:11.000Z</Time>
            <Position>
              <LatitudeDegrees>39.304080046713352203369140625</LatitudeDegrees>
              <LongitudeDegrees>-6.32606615312397480010986328125</LongitudeDegrees>
            </Position>
            <AltitudeMeters>390.600006103515625</AltitudeMeters>
            <DistanceMeters>NAN</DistanceMeters>
          </Trackpoint>
          <Trackpoint>
            <Time>2019-10-09T08:17:15.000Z</Time>
            <Position>
              <LatitudeDegrees>39.30392188020050525665283203125</LatitudeDegrees>
              <LongitudeDegrees>-6.3259592838585376739501953125</LongitudeDegrees>
            </Position>
            <AltitudeMeters>390.79998779296875</AltitudeMeters>
            <DistanceMeters>NAN</DistanceMeters>
          </Trackpoint>
          <Trackpoint>
            <Time>2019-10-09T08:17:20.000Z</Time>
            <Position>
              <LatitudeDegrees>39.30372272618114948272705078125</LatitudeDegrees>
              <LongitudeDegrees>-6.3258335553109645843505859375</LongitudeDegrees>
            </Position>
            <AltitudeMeters>391.79998779296875</AltitudeMeters>
            <DistanceMeters>NAN</DistanceMeters>
          </Trackpoint>
          <Trackpoint>
            <Time>2019-10-09T08:17:25.000Z</Time>
            <Position>
              <LatitudeDegrees>39.30351703427731990814208984375</LatitudeDegrees>
              <LongitudeDegrees>-6.32570958696305751800537109375</LongitudeDegrees>
            </Position>
            <AltitudeMeters>392.600006103515625</AltitudeMeters>
            <DistanceMeters>NAN</DistanceMeters>
          </Trackpoint>
          <Trackpoint>
            <Time>2019-10-09T08:17:31.000Z</Time>
            <Position>
              <LatitudeDegrees>39.3032656610012054443359375</LatitudeDegrees>
              <LongitudeDegrees>-6.3255862891674041748046875</LongitudeDegrees>
            </Position>
            <AltitudeMeters>392.600006103515625</AltitudeMeters>
            <DistanceMeters>NAN</DistanceMeters>
          </Trackpoint>
          <Trackpoint>
            <Time>2019-10-09T08:17:39.000Z</Time>
            <Position>
              <LatitudeDegrees>39.30287296883761882781982421875</LatitudeDegrees>
              <LongitudeDegrees>-6.32543851621448993682861328125</LongitudeDegrees>
            </Position>
            <AltitudeMeters>391.600006103515625</AltitudeMeters>
            <DistanceMeters>NAN</DistanceMeters>
          </Trackpoint>
          <Trackpoint>
            <Time>2019-10-09T08:17:43.000Z</Time>
            <Position>
              <LatitudeDegrees>39.30264414288103580474853515625</LatitudeDegrees>
              <LongitudeDegrees>-6.3253752328455448150634765625</LongitudeDegrees>
            </Position>
            <AltitudeMeters>391</AltitudeMeters>
            <DistanceMeters>NAN</DistanceMeters>
          </Trackpoint>
          <Trackpoint>
            <Time>2019-10-09T08:17:44.000Z</Time>
            <Position>
              <LatitudeDegrees>39.302585385739803314208984375</LatitudeDegrees>
              <LongitudeDegrees>-6.325359307229518890380859375</LongitudeDegrees>
            </Position>
            <AltitudeMeters>390.79998779296875</AltitudeMeters>
            <DistanceMeters>NAN</DistanceMeters>
          </Trackpoint>
          <Trackpoint>
            <Time>2019-10-09T08:17:48.000Z</Time>
            <Position>
              <LatitudeDegrees>39.3023364432156085968017578125</LatitudeDegrees>
              <LongitudeDegrees>-6.32530272938311100006103515625</LongitudeDegrees>
            </Position>
            <AltitudeMeters>390.399993896484375</AltitudeMeters>
            <DistanceMeters>NAN</DistanceMeters>
          </Trackpoint>
          <Trackpoint>
            <Time>2019-10-09T08:17:50.000Z</Time>
            <Position>
              <LatitudeDegrees>39.30220526643097400665283203125</LatitudeDegrees>
              <LongitudeDegrees>-6.32527339272201061248779296875</LongitudeDegrees>
            </Position>
            <AltitudeMeters>389.399993896484375</AltitudeMeters>
            <DistanceMeters>NAN</DistanceMeters>
          </Trackpoint>
          <Trackpoint>
            <Time>2019-10-09T08:17:54.000Z</Time>
            <Position>
              <LatitudeDegrees>39.30193017236888408660888671875</LatitudeDegrees>
              <LongitudeDegrees>-6.32521304301917552947998046875</LongitudeDegrees>
            </Position>
            <AltitudeMeters>388.600006103515625</AltitudeMeters>
            <DistanceMeters>NAN</DistanceMeters>
          </Trackpoint>
          <Trackpoint>
            <Time>2019-10-09T08:17:56.000Z</Time>
            <Position>
              <LatitudeDegrees>39.3017892725765705108642578125</LatitudeDegrees>
              <LongitudeDegrees>-6.3251797668635845184326171875</LongitudeDegrees>
            </Position>
            <AltitudeMeters>388</AltitudeMeters>
            <DistanceMeters>NAN</DistanceMeters>
          </Trackpoint>
          <Trackpoint>
            <Time>2019-10-09T08:17:57.000Z</Time>
            <Position>
              <LatitudeDegrees>39.30171911604702472686767578125</LatitudeDegrees>
              <LongitudeDegrees>-6.32516426034271717071533203125</LongitudeDegrees>
            </Position>
            <AltitudeMeters>387.79998779296875</AltitudeMeters>
            <DistanceMeters>NAN</DistanceMeters>
          </Trackpoint>
          <Trackpoint>
            <Time>2019-10-09T08:17:59.000Z</Time>
            <Position>
              <LatitudeDegrees>39.3015773780643939971923828125</LatitudeDegrees>
              <LongitudeDegrees>-6.32513006217777729034423828125</LongitudeDegrees>
            </Position>
            <AltitudeMeters>387.399993896484375</AltitudeMeters>
            <DistanceMeters>NAN</DistanceMeters>
          </Trackpoint>
          <Trackpoint>
            <Time>2019-10-09T08:18:02.000Z</Time>
            <Position>
              <LatitudeDegrees>39.3013611249625682830810546875</LatitudeDegrees>
              <LongitudeDegrees>-6.3250778429210186004638671875</LongitudeDegrees>
            </Position>
            <AltitudeMeters>387</AltitudeMeters>
            <DistanceMeters>NAN</DistanceMeters>
          </Trackpoint>
          <Trackpoint>
            <Time>2019-10-09T08:18:08.000Z</Time>
            <Position>
              <LatitudeDegrees>39.3009160459041595458984375</LatitudeDegrees>
              <LongitudeDegrees>-6.32497533224523067474365234375</LongitudeDegrees>
            </Position>
            <AltitudeMeters>386.20001220703125</AltitudeMeters>
            <DistanceMeters>NAN</DistanceMeters>
          </Trackpoint>
          <Trackpoint>
            <Time>2019-10-09T08:18:09.000Z</Time>
            <Position>
              <LatitudeDegrees>39.30084136314690113067626953125</LatitudeDegrees>
              <LongitudeDegrees>-6.32495664060115814208984375</LongitudeDegrees>
            </Position>
            <AltitudeMeters>385.399993896484375</AltitudeMeters>
            <DistanceMeters>NAN</DistanceMeters>
          </Trackpoint>
          <Trackpoint>
            <Time>2019-10-09T08:18:13.000Z</Time>
            <Position>
              <LatitudeDegrees>39.300549589097499847412109375</LatitudeDegrees>
              <LongitudeDegrees>-6.32488564588129520416259765625</LongitudeDegrees>
            </Position>
            <AltitudeMeters>385.20001220703125</AltitudeMeters>
            <DistanceMeters>NAN</DistanceMeters>
          </Trackpoint>
          <Trackpoint>
            <Time>2019-10-09T08:18:16.000Z</Time>
            <Position>
              <LatitudeDegrees>39.3003288097679615020751953125</LatitudeDegrees>
              <LongitudeDegrees>-6.32483770139515399932861328125</LongitudeDegrees>
            </Position>
            <AltitudeMeters>384.399993896484375</AltitudeMeters>
            <DistanceMeters>NAN</DistanceMeters>
          </Trackpoint>
          <Trackpoint>
            <Time>2019-10-09T08:18:19.000Z</Time>
            <Position>
              <LatitudeDegrees>39.30010140873491764068603515625</LatitudeDegrees>
              <LongitudeDegrees>-6.32478472776710987091064453125</LongitudeDegrees>
            </Position>
            <AltitudeMeters>383.600006103515625</AltitudeMeters>
            <DistanceMeters>NAN</DistanceMeters>
          </Trackpoint>
          <Trackpoint>
            <Time>2019-10-09T08:18:20.000Z</Time>
            <Position>
              <LatitudeDegrees>39.30002379231154918670654296875</LatitudeDegrees>
              <LongitudeDegrees>-6.324767880141735076904296875</LongitudeDegrees>
            </Position>
            <AltitudeMeters>383.20001220703125</AltitudeMeters>
            <DistanceMeters>NAN</DistanceMeters>
          </Trackpoint>
          <Trackpoint>
            <Time>2019-10-09T08:18:24.000Z</Time>
            <Position>
              <LatitudeDegrees>39.2996984906494617462158203125</LatitudeDegrees>
              <LongitudeDegrees>-6.3246919400990009307861328125</LongitudeDegrees>
            </Position>
            <AltitudeMeters>381.79998779296875</AltitudeMeters>
            <DistanceMeters>NAN</DistanceMeters>
          </Trackpoint>
          <Trackpoint>
            <Time>2019-10-09T08:18:27.000Z</Time>
            <Position>
              <LatitudeDegrees>39.29944443516433238983154296875</LatitudeDegrees>
              <LongitudeDegrees>-6.32462806999683380126953125</LongitudeDegrees>
            </Position>
            <AltitudeMeters>380.79998779296875</AltitudeMeters>
            <DistanceMeters>NAN</DistanceMeters>
          </Trackpoint>
          <Trackpoint>
            <Time>2019-10-09T08:18:28.000Z</Time>
            <Position>
              <LatitudeDegrees>39.2993578501045703887939453125</LatitudeDegrees>
              <LongitudeDegrees>-6.3246054388582706451416015625</LongitudeDegrees>
            </Position>
            <AltitudeMeters>380.600006103515625</AltitudeMeters>
            <DistanceMeters>NAN</DistanceMeters>
          </Trackpoint>
          <Trackpoint>
            <Time>2019-10-09T08:18:31.000Z</Time>
            <Position>
              <LatitudeDegrees>39.29909641854465007781982421875</LatitudeDegrees>
              <LongitudeDegrees>-6.3245420716702938079833984375</LongitudeDegrees>
            </Position>
            <AltitudeMeters>379.399993896484375</AltitudeMeters>
            <DistanceMeters>NAN</DistanceMeters>
          </Trackpoint>
          <Trackpoint>
            <Time>2019-10-09T08:18:34.000Z</Time>
            <Position>
              <LatitudeDegrees>39.298828281462192535400390625</LatitudeDegrees>
              <LongitudeDegrees>-6.32448147051036357879638671875</LongitudeDegrees>
            </Position>
            <AltitudeMeters>378</AltitudeMeters>
            <DistanceMeters>NAN</DistanceMeters>
          </Trackpoint>
          <Trackpoint>
            <Time>2019-10-09T08:18:36.000Z</Time>
            <Position>
              <LatitudeDegrees>39.2986484058201313018798828125</LatitudeDegrees>
              <LongitudeDegrees>-6.32443771697580814361572265625</LongitudeDegrees>
            </Position>
            <AltitudeMeters>377.20001220703125</AltitudeMeters>
            <DistanceMeters>NAN</DistanceMeters>
          </Trackpoint>
          <Trackpoint>
            <Time>2019-10-09T08:18:37.000Z</Time>
            <Position>
              <LatitudeDegrees>39.2985592223703861236572265625</LatitudeDegrees>
              <LongitudeDegrees>-6.3244168460369110107421875</LongitudeDegrees>
            </Position>
            <AltitudeMeters>377</AltitudeMeters>
            <DistanceMeters>NAN</DistanceMeters>
          </Trackpoint>
          <Trackpoint>
            <Time>2019-10-09T08:18:43.000Z</Time>
            <Position>
              <LatitudeDegrees>39.29803946055471897125244140625</LatitudeDegrees>
              <LongitudeDegrees>-6.32429421879351139068603515625</LongitudeDegrees>
            </Position>
            <AltitudeMeters>376.20001220703125</AltitudeMeters>
            <DistanceMeters>NAN</DistanceMeters>
          </Trackpoint>
          <Trackpoint>
            <Time>2019-10-09T08:18:50.000Z</Time>
            <Position>
              <LatitudeDegrees>39.29750000126659870147705078125</LatitudeDegrees>
              <LongitudeDegrees>-6.32416538894176483154296875</LongitudeDegrees>
            </Position>
            <AltitudeMeters>376.79998779296875</AltitudeMeters>
            <DistanceMeters>NAN</DistanceMeters>
          </Trackpoint>
          <Trackpoint>
            <Time>2019-10-09T08:18:55.000Z</Time>
            <Position>
              <LatitudeDegrees>39.29715148173272609710693359375</LatitudeDegrees>
              <LongitudeDegrees>-6.32408383302390575408935546875</LongitudeDegrees>
            </Position>
            <AltitudeMeters>377.600006103515625</AltitudeMeters>
            <DistanceMeters>NAN</DistanceMeters>
          </Trackpoint>
          <Trackpoint>
            <Time>2019-10-09T08:18:58.000Z</Time>
            <Position>
              <LatitudeDegrees>39.29694998078048229217529296875</LatitudeDegrees>
              <LongitudeDegrees>-6.32403739728033542633056640625</LongitudeDegrees>
            </Position>
            <AltitudeMeters>378</AltitudeMeters>
            <DistanceMeters>NAN</DistanceMeters>
          </Trackpoint>
          <Trackpoint>
            <Time>2019-10-09T08:18:59.000Z</Time>
            <Position>
              <LatitudeDegrees>39.2968848533928394317626953125</LatitudeDegrees>
              <LongitudeDegrees>-6.324022226035594940185546875</LongitudeDegrees>
            </Position>
            <AltitudeMeters>378</AltitudeMeters>
            <DistanceMeters>NAN</DistanceMeters>
          </Trackpoint>
          <Trackpoint>
            <Time>2019-10-09T08:19:03.000Z</Time>
            <Position>
              <LatitudeDegrees>39.2966240085661411285400390625</LatitudeDegrees>
              <LongitudeDegrees>-6.32395978085696697235107421875</LongitudeDegrees>
            </Position>
            <AltitudeMeters>378.20001220703125</AltitudeMeters>
            <DistanceMeters>NAN</DistanceMeters>
          </Trackpoint>
          <Trackpoint>
            <Time>2019-10-09T08:19:07.000Z</Time>
            <Position>
              <LatitudeDegrees>39.29636634886264801025390625</LatitudeDegrees>
              <LongitudeDegrees>-6.32389490492641925811767578125</LongitudeDegrees>
            </Position>
            <AltitudeMeters>378.20001220703125</AltitudeMeters>
            <DistanceMeters>NAN</DistanceMeters>
          </Trackpoint>
          <Trackpoint>
            <Time>2019-10-09T08:19:09.000Z</Time>
            <Position>
              <LatitudeDegrees>39.2962367646396160125732421875</LatitudeDegrees>
              <LongitudeDegrees>-6.323863975703716278076171875</LongitudeDegrees>
            </Position>
            <AltitudeMeters>378.20001220703125</AltitudeMeters>
            <DistanceMeters>NAN</DistanceMeters>
          </Trackpoint>
          <Trackpoint>
            <Time>2019-10-09T08:19:11.000Z</Time>
            <Position>
              <LatitudeDegrees>39.29610642604529857635498046875</LatitudeDegrees>
              <LongitudeDegrees>-6.32383338175714015960693359375</LongitudeDegrees>
            </Position>
            <AltitudeMeters>378.20001220703125</AltitudeMeters>
            <DistanceMeters>NAN</DistanceMeters>
          </Trackpoint>
          <Trackpoint>
            <Time>2019-10-09T08:19:17.000Z</Time>
            <Position>
              <LatitudeDegrees>39.29569889791309833526611328125</LatitudeDegrees>
              <LongitudeDegrees>-6.32373816333711147308349609375</LongitudeDegrees>
            </Position>
            <AltitudeMeters>377.20001220703125</AltitudeMeters>
            <DistanceMeters>NAN</DistanceMeters>
          </Trackpoint>
          <Trackpoint>
            <Time>2019-10-09T08:19:19.000Z</Time>
            <Position>
              <LatitudeDegrees>39.29555766284465789794921875</LatitudeDegrees>
              <LongitudeDegrees>-6.32370513863861560821533203125</LongitudeDegrees>
            </Position>
            <AltitudeMeters>376.79998779296875</AltitudeMeters>
            <DistanceMeters>NAN</DistanceMeters>
          </Trackpoint>
          <Trackpoint>
            <Time>2019-10-09T08:19:21.000Z</Time>
            <Position>
              <LatitudeDegrees>39.2954150028526782989501953125</LatitudeDegrees>
              <LongitudeDegrees>-6.32366825826466083526611328125</LongitudeDegrees>
            </Position>
            <AltitudeMeters>376.600006103515625</AltitudeMeters>
            <DistanceMeters>NAN</DistanceMeters>
          </Trackpoint>
          <Trackpoint>
            <Time>2019-10-09T08:19:25.000Z</Time>
            <Position>
              <LatitudeDegrees>39.2951182834804058074951171875</LatitudeDegrees>
              <LongitudeDegrees>-6.3236014544963836669921875</LongitudeDegrees>
            </Position>
            <AltitudeMeters>375.79998779296875</AltitudeMeters>
            <DistanceMeters>NAN</DistanceMeters>
          </Trackpoint>
          <Trackpoint>
            <Time>2019-10-09T08:19:30.000Z</Time>
            <Position>
              <LatitudeDegrees>39.29473782889544963836669921875</LatitudeDegrees>
              <LongitudeDegrees>-6.32351000793278217315673828125</LongitudeDegrees>
            </Position>
            <AltitudeMeters>375</AltitudeMeters>
            <DistanceMeters>NAN</DistanceMeters>
          </Trackpoint>
          <Trackpoint>
            <Time>2019-10-09T08:19:31.000Z</Time>
            <Position>
              <LatitudeDegrees>39.29466088302433490753173828125</LatitudeDegrees>
              <LongitudeDegrees>-6.3234909810125827789306640625</LongitudeDegrees>
            </Position>
            <AltitudeMeters>374.79998779296875</AltitudeMeters>
            <DistanceMeters>NAN</DistanceMeters>
          </Trackpoint>
          <Trackpoint>
            <Time>2019-10-09T08:19:34.000Z</Time>
            <Position>
              <LatitudeDegrees>39.2944282852113246917724609375</LatitudeDegrees>
              <LongitudeDegrees>-6.3234363310039043426513671875</LongitudeDegrees>
            </Position>
            <AltitudeMeters>373.600006103515625</AltitudeMeters>
            <DistanceMeters>NAN</DistanceMeters>
          </Trackpoint>
          <Trackpoint>
            <Time>2019-10-09T08:19:39.000Z</Time>
            <Position>
              <LatitudeDegrees>39.2940326593816280364990234375</LatitudeDegrees>
              <LongitudeDegrees>-6.3233488239347934722900390625</LongitudeDegrees>
            </Position>
            <AltitudeMeters>373.20001220703125</AltitudeMeters>
            <DistanceMeters>NAN</DistanceMeters>
          </Trackpoint>
          <Trackpoint>
            <Time>2019-10-09T08:19:46.000Z</Time>
            <Position>
              <LatitudeDegrees>39.29347920231521129608154296875</LatitudeDegrees>
              <LongitudeDegrees>-6.323216222226619720458984375</LongitudeDegrees>
            </Position>
            <AltitudeMeters>372.79998779296875</AltitudeMeters>
            <DistanceMeters>NAN</DistanceMeters>
          </Trackpoint>
          <Trackpoint>
            <Time>2019-10-09T08:19:47.000Z</Time>
            <Position>
              <LatitudeDegrees>39.29340225644409656524658203125</LatitudeDegrees>
              <LongitudeDegrees>-6.3231996260583400726318359375</LongitudeDegrees>
            </Position>
            <AltitudeMeters>372.399993896484375</AltitudeMeters>
            <DistanceMeters>NAN</DistanceMeters>
          </Trackpoint>
          <Trackpoint>
            <Time>2019-10-09T08:19:54.000Z</Time>
            <Position>
              <LatitudeDegrees>39.2928715981543064117431640625</LatitudeDegrees>
              <LongitudeDegrees>-6.323072053492069244384765625</LongitudeDegrees>
            </Position>
            <AltitudeMeters>372.600006103515625</AltitudeMeters>
            <DistanceMeters>NAN</DistanceMeters>
          </Trackpoint>
          <Trackpoint>
            <Time>2019-10-09T08:19:56.000Z</Time>
            <Position>
              <LatitudeDegrees>39.29272466339170932769775390625</LatitudeDegrees>
              <LongitudeDegrees>-6.32303894497454166412353515625</LongitudeDegrees>
            </Position>
            <AltitudeMeters>372.399993896484375</AltitudeMeters>
            <DistanceMeters>NAN</DistanceMeters>
          </Trackpoint>
          <Trackpoint>
            <Time>2019-10-09T08:20:04.000Z</Time>
            <Position>
              <LatitudeDegrees>39.292172379791736602783203125</LatitudeDegrees>
              <LongitudeDegrees>-6.322906427085399627685546875</LongitudeDegrees>
            </Position>
            <AltitudeMeters>372.600006103515625</AltitudeMeters>
            <DistanceMeters>NAN</DistanceMeters>
          </Trackpoint>
          <Trackpoint>
            <Time>2019-10-09T08:20:05.000Z</Time>
            <Position>
              <LatitudeDegrees>39.2921049892902374267578125</LatitudeDegrees>
              <LongitudeDegrees>-6.32288999855518341064453125</LongitudeDegrees>
            </Position>
            <AltitudeMeters>372.600006103515625</AltitudeMeters>
            <DistanceMeters>NAN</DistanceMeters>
          </Trackpoint>
          <Trackpoint>
            <Time>2019-10-09T08:20:13.000Z</Time>
            <Position>
              <LatitudeDegrees>39.29156846366822719573974609375</LatitudeDegrees>
              <LongitudeDegrees>-6.32276125252246856689453125</LongitudeDegrees>
            </Position>
            <AltitudeMeters>372.600006103515625</AltitudeMeters>
            <DistanceMeters>NAN</DistanceMeters>
          </Trackpoint>
          <Trackpoint>
            <Time>2019-10-09T08:20:14.000Z</Time>
            <Position>
              <LatitudeDegrees>39.2915006540715694427490234375</LatitudeDegrees>
              <LongitudeDegrees>-6.32274423725903034210205078125</LongitudeDegrees>
            </Position>
            <AltitudeMeters>372.79998779296875</AltitudeMeters>
            <DistanceMeters>NAN</DistanceMeters>
          </Trackpoint>
          <Trackpoint>
            <Time>2019-10-09T08:20:22.000Z</Time>
            <Position>
              <LatitudeDegrees>39.29096044041216373443603515625</LatitudeDegrees>
              <LongitudeDegrees>-6.3226155750453472137451171875</LongitudeDegrees>
            </Position>
            <AltitudeMeters>372.399993896484375</AltitudeMeters>
            <DistanceMeters>NAN</DistanceMeters>
          </Trackpoint>
          <Trackpoint>
            <Time>2019-10-09T08:20:24.000Z</Time>
            <Position>
              <LatitudeDegrees>39.2908250726759433746337890625</LatitudeDegrees>
              <LongitudeDegrees>-6.32258422672748565673828125</LongitudeDegrees>
            </Position>
            <AltitudeMeters>372.600006103515625</AltitudeMeters>
            <DistanceMeters>NAN</DistanceMeters>
          </Trackpoint>
          <Trackpoint>
            <Time>2019-10-09T08:20:30.000Z</Time>
            <Position>
              <LatitudeDegrees>39.29042165167629718780517578125</LatitudeDegrees>
              <LongitudeDegrees>-6.322485990822315216064453125</LongitudeDegrees>
            </Position>
            <AltitudeMeters>372.399993896484375</AltitudeMeters>
            <DistanceMeters>NAN</DistanceMeters>
          </Trackpoint>
          <Trackpoint>
            <Time>2019-10-09T08:20:36.000Z</Time>
            <Position>
              <LatitudeDegrees>39.29002200253307819366455078125</LatitudeDegrees>
              <LongitudeDegrees>-6.322388090193271636962890625</LongitudeDegrees>
            </Position>
            <AltitudeMeters>372</AltitudeMeters>
            <DistanceMeters>NAN</DistanceMeters>
          </Trackpoint>
          <Trackpoint>
            <Time>2019-10-09T08:20:45.000Z</Time>
            <Position>
              <LatitudeDegrees>39.2894588224589824676513671875</LatitudeDegrees>
              <LongitudeDegrees>-6.32225104607641696929931640625</LongitudeDegrees>
            </Position>
            <AltitudeMeters>372.399993896484375</AltitudeMeters>
            <DistanceMeters>NAN</DistanceMeters>
          </Trackpoint>
          <Trackpoint>
            <Time>2019-10-09T08:20:46.000Z</Time>
            <Position>
              <LatitudeDegrees>39.28939704783260822296142578125</LatitudeDegrees>
              <LongitudeDegrees>-6.322235874831676483154296875</LongitudeDegrees>
            </Position>
            <AltitudeMeters>372.600006103515625</AltitudeMeters>
            <DistanceMeters>NAN</DistanceMeters>
          </Trackpoint>
          <Trackpoint>
            <Time>2019-10-09T08:20:54.000Z</Time>
            <Position>
              <LatitudeDegrees>39.28891089744865894317626953125</LatitudeDegrees>
              <LongitudeDegrees>-6.32207418791949748992919921875</LongitudeDegrees>
            </Position>
            <AltitudeMeters>373</AltitudeMeters>
            <DistanceMeters>NAN</DistanceMeters>
          </Trackpoint>
          <Trackpoint>
            <Time>2019-10-09T08:21:01.000Z</Time>
            <Position>
              <LatitudeDegrees>39.28852197714149951934814453125</LatitudeDegrees>
              <LongitudeDegrees>-6.321839578449726104736328125</LongitudeDegrees>
            </Position>
            <AltitudeMeters>373.20001220703125</AltitudeMeters>
            <DistanceMeters>NAN</DistanceMeters>
          </Trackpoint>
          <Trackpoint>
            <Time>2019-10-09T08:21:09.000Z</Time>
            <Position>
              <LatitudeDegrees>39.28808762691915035247802734375</LatitudeDegrees>
              <LongitudeDegrees>-6.321482174098491668701171875</LongitudeDegrees>
            </Position>
            <AltitudeMeters>372.399993896484375</AltitudeMeters>
            <DistanceMeters>NAN</DistanceMeters>
          </Trackpoint>
          <Trackpoint>
            <Time>2019-10-09T08:21:14.000Z</Time>
            <Position>
              <LatitudeDegrees>39.28778369911015033721923828125</LatitudeDegrees>
              <LongitudeDegrees>-6.3212464749813079833984375</LongitudeDegrees>
            </Position>
            <AltitudeMeters>371.20001220703125</AltitudeMeters>
            <DistanceMeters>NAN</DistanceMeters>
          </Trackpoint>
          <Trackpoint>
            <Time>2019-10-09T08:21:16.000Z</Time>
            <Position>
              <LatitudeDegrees>39.2876610718667507171630859375</LatitudeDegrees>
              <LongitudeDegrees>-6.32114077918231487274169921875</LongitudeDegrees>
            </Position>
            <AltitudeMeters>370.79998779296875</AltitudeMeters>
            <DistanceMeters>NAN</DistanceMeters>
          </Trackpoint>
          <Trackpoint>
            <Time>2019-10-09T08:21:17.000Z</Time>
            <Position>
              <LatitudeDegrees>39.28759862668812274932861328125</LatitudeDegrees>
              <LongitudeDegrees>-6.3210883922874927520751953125</LongitudeDegrees>
            </Position>
            <AltitudeMeters>370.79998779296875</AltitudeMeters>
            <DistanceMeters>NAN</DistanceMeters>
          </Trackpoint>
          <Trackpoint>
            <Time>2019-10-09T08:21:21.000Z</Time>
            <Position>
              <LatitudeDegrees>39.28734348155558109283447265625</LatitudeDegrees>
              <LongitudeDegrees>-6.32088010199368000030517578125</LongitudeDegrees>
            </Position>
            <AltitudeMeters>369.79998779296875</AltitudeMeters>
            <DistanceMeters>NAN</DistanceMeters>
          </Trackpoint>
          <Trackpoint>
            <Time>2019-10-09T08:21:26.000Z</Time>
            <Position>
              <LatitudeDegrees>39.2870267294347286224365234375</LatitudeDegrees>
              <LongitudeDegrees>-6.320616491138935089111328125</LongitudeDegrees>
            </Position>
            <AltitudeMeters>369.600006103515625</AltitudeMeters>
            <DistanceMeters>NAN</DistanceMeters>
          </Trackpoint>
          <Trackpoint>
            <Time>2019-10-09T08:21:31.000Z</Time>
            <Position>
              <LatitudeDegrees>39.2867233045399188995361328125</LatitudeDegrees>
              <LongitudeDegrees>-6.32033812813460826873779296875</LongitudeDegrees>
            </Position>
            <AltitudeMeters>368.600006103515625</AltitudeMeters>
            <DistanceMeters>NAN</DistanceMeters>
          </Trackpoint>
          <Trackpoint>
            <Time>2019-10-09T08:21:35.000Z</Time>
            <Position>
              <LatitudeDegrees>39.2864849232137203216552734375</LatitudeDegrees>
              <LongitudeDegrees>-6.3201150856912136077880859375</LongitudeDegrees>
            </Position>
            <AltitudeMeters>369</AltitudeMeters>
            <DistanceMeters>NAN</DistanceMeters>
          </Trackpoint>
          <Trackpoint>
            <Time>2019-10-09T08:21:41.000Z</Time>
            <Position>
              <LatitudeDegrees>39.28613648749887943267822265625</LatitudeDegrees>
              <LongitudeDegrees>-6.31976480595767498016357421875</LongitudeDegrees>
            </Position>
            <AltitudeMeters>368.399993896484375</AltitudeMeters>
            <DistanceMeters>NAN</DistanceMeters>
          </Trackpoint>
          <Trackpoint>
            <Time>2019-10-09T08:21:44.000Z</Time>
            <Position>
              <LatitudeDegrees>39.28596365265548229217529296875</LatitudeDegrees>
              <LongitudeDegrees>-6.3195781409740447998046875</LongitudeDegrees>
            </Position>
            <AltitudeMeters>367.600006103515625</AltitudeMeters>
            <DistanceMeters>NAN</DistanceMeters>
          </Trackpoint>
          <Trackpoint>
            <Time>2019-10-09T08:21:49.000Z</Time>
            <Position>
              <LatitudeDegrees>39.28566073067486286163330078125</LatitudeDegrees>
              <LongitudeDegrees>-6.3192524202167987823486328125</LongitudeDegrees>
            </Position>
            <AltitudeMeters>366.399993896484375</AltitudeMeters>
            <DistanceMeters>NAN</DistanceMeters>
          </Trackpoint>
          <Trackpoint>
            <Time>2019-10-09T08:21:50.000Z</Time>
            <Position>
              <LatitudeDegrees>39.28559535183012485504150390625</LatitudeDegrees>
              <LongitudeDegrees>-6.31918746046721935272216796875</LongitudeDegrees>
            </Position>
            <AltitudeMeters>365.79998779296875</AltitudeMeters>
            <DistanceMeters>NAN</DistanceMeters>
          </Trackpoint>
          <Trackpoint>
            <Time>2019-10-09T08:21:52.000Z</Time>
            <Position>
              <LatitudeDegrees>39.28546409122645854949951171875</LatitudeDegrees>
              <LongitudeDegrees>-6.31905703805387020111083984375</LongitudeDegrees>
            </Position>
            <AltitudeMeters>365</AltitudeMeters>
            <DistanceMeters>NAN</DistanceMeters>
          </Trackpoint>
          <Trackpoint>
            <Time>2019-10-09T08:21:54.000Z</Time>
            <Position>
              <LatitudeDegrees>39.2853255383670330047607421875</LatitudeDegrees>
              <LongitudeDegrees>-6.3189248554408550262451171875</LongitudeDegrees>
            </Position>
            <AltitudeMeters>364</AltitudeMeters>
            <DistanceMeters>NAN</DistanceMeters>
          </Trackpoint>
          <Trackpoint>
            <Time>2019-10-09T08:21:57.000Z</Time>
            <Position>
              <LatitudeDegrees>39.28510333411395549774169921875</LatitudeDegrees>
              <LongitudeDegrees>-6.31874866783618927001953125</LongitudeDegrees>
            </Position>
            <AltitudeMeters>362.79998779296875</AltitudeMeters>
            <DistanceMeters>NAN</DistanceMeters>
          </Trackpoint>
          <Trackpoint>
            <Time>2019-10-09T08:22:00.000Z</Time>
            <Position>
              <LatitudeDegrees>39.28486729972064495086669921875</LatitudeDegrees>
              <LongitudeDegrees>-6.318584717810153961181640625</LongitudeDegrees>
            </Position>
            <AltitudeMeters>362.79998779296875</AltitudeMeters>
            <DistanceMeters>NAN</DistanceMeters>
          </Trackpoint>
          <Trackpoint>
            <Time>2019-10-09T08:22:01.000Z</Time>
            <Position>
              <LatitudeDegrees>39.2847812175750732421875</LatitudeDegrees>
              <LongitudeDegrees>-6.3185476697981357574462890625</LongitudeDegrees>
            </Position>
            <AltitudeMeters>362.600006103515625</AltitudeMeters>
            <DistanceMeters>NAN</DistanceMeters>
          </Trackpoint>
          <Trackpoint>
            <Time>2019-10-09T08:22:03.000Z</Time>
            <Position>
              <LatitudeDegrees>39.2846082150936126708984375</LatitudeDegrees>
              <LongitudeDegrees>-6.31849260069429874420166015625</LongitudeDegrees>
            </Position>
            <AltitudeMeters>361.399993896484375</AltitudeMeters>
            <DistanceMeters>NAN</DistanceMeters>
          </Trackpoint>
          <Trackpoint>
            <Time>2019-10-09T08:22:10.000Z</Time>
            <Position>
              <LatitudeDegrees>39.2840317077934741973876953125</LatitudeDegrees>
              <LongitudeDegrees>-6.318347342312335968017578125</LongitudeDegrees>
            </Position>
            <AltitudeMeters>361.79998779296875</AltitudeMeters>
            <DistanceMeters>NAN</DistanceMeters>
          </Trackpoint>
          <Trackpoint>
            <Time>2019-10-09T08:22:16.000Z</Time>
            <Position>
              <LatitudeDegrees>39.28357263095676898956298828125</LatitudeDegrees>
              <LongitudeDegrees>-6.31827886216342449188232421875</LongitudeDegrees>
            </Position>
            <AltitudeMeters>361.79998779296875</AltitudeMeters>
            <DistanceMeters>NAN</DistanceMeters>
          </Trackpoint>
          <Trackpoint>
            <Time>2019-10-09T08:22:19.000Z</Time>
            <Position>
              <LatitudeDegrees>39.28335436619818210601806640625</LatitudeDegrees>
              <LongitudeDegrees>-6.31824868731200695037841796875</LongitudeDegrees>
            </Position>
            <AltitudeMeters>361.600006103515625</AltitudeMeters>
            <DistanceMeters>NAN</DistanceMeters>
          </Trackpoint>
          <Trackpoint>
            <Time>2019-10-09T08:22:24.000Z</Time>
            <Position>
              <LatitudeDegrees>39.28299914114177227020263671875</LatitudeDegrees>
              <LongitudeDegrees>-6.3181932829320430755615234375</LongitudeDegrees>
            </Position>
            <AltitudeMeters>362.399993896484375</AltitudeMeters>
            <DistanceMeters>NAN</DistanceMeters>
          </Trackpoint>
          <Trackpoint>
            <Time>2019-10-09T08:22:26.000Z</Time>
            <Position>
              <LatitudeDegrees>39.2828567326068878173828125</LatitudeDegrees>
              <LongitudeDegrees>-6.31817559711635112762451171875</LongitudeDegrees>
            </Position>
            <AltitudeMeters>361.79998779296875</AltitudeMeters>
            <DistanceMeters>NAN</DistanceMeters>
          </Trackpoint>
          <Trackpoint>
            <Time>2019-10-09T08:22:34.000Z</Time>
            <Position>
              <LatitudeDegrees>39.28229036740958690643310546875</LatitudeDegrees>
              <LongitudeDegrees>-6.31809395737946033477783203125</LongitudeDegrees>
            </Position>
            <AltitudeMeters>361.399993896484375</AltitudeMeters>
            <DistanceMeters>NAN</DistanceMeters>
          </Trackpoint>
          <Trackpoint>
            <Time>2019-10-09T08:22:37.000Z</Time>
            <Position>
              <LatitudeDegrees>39.282069839537143707275390625</LatitudeDegrees>
              <LongitudeDegrees>-6.31806160323321819305419921875</LongitudeDegrees>
            </Position>
            <AltitudeMeters>361.399993896484375</AltitudeMeters>
            <DistanceMeters>NAN</DistanceMeters>
          </Trackpoint>
          <Trackpoint>
            <Time>2019-10-09T08:22:42.000Z</Time>
            <Position>
              <LatitudeDegrees>39.28169877268373966217041015625</LatitudeDegrees>
              <LongitudeDegrees>-6.31800829432904720306396484375</LongitudeDegrees>
            </Position>
            <AltitudeMeters>360</AltitudeMeters>
            <DistanceMeters>NAN</DistanceMeters>
          </Trackpoint>
          <Trackpoint>
            <Time>2019-10-09T08:22:48.000Z</Time>
            <Position>
              <LatitudeDegrees>39.28126341663300991058349609375</LatitudeDegrees>
              <LongitudeDegrees>-6.31794207729399204254150390625</LongitudeDegrees>
            </Position>
            <AltitudeMeters>360.20001220703125</AltitudeMeters>
            <DistanceMeters>NAN</DistanceMeters>
          </Trackpoint>
          <Trackpoint>
            <Time>2019-10-09T08:22:56.000Z</Time>
            <Position>
              <LatitudeDegrees>39.28069713525474071502685546875</LatitudeDegrees>
              <LongitudeDegrees>-6.3178643770515918731689453125</LongitudeDegrees>
            </Position>
            <AltitudeMeters>359.79998779296875</AltitudeMeters>
            <DistanceMeters>NAN</DistanceMeters>
          </Trackpoint>
          <Trackpoint>
            <Time>2019-10-09T08:22:59.000Z</Time>
            <Position>
              <LatitudeDegrees>39.280485995113849639892578125</LatitudeDegrees>
              <LongitudeDegrees>-6.31782741285860538482666015625</LongitudeDegrees>
            </Position>
            <AltitudeMeters>359.600006103515625</AltitudeMeters>
            <DistanceMeters>NAN</DistanceMeters>
          </Trackpoint>
          <Trackpoint>
            <Time>2019-10-09T08:23:07.000Z</Time>
            <Position>
              <LatitudeDegrees>39.27993790246546268463134765625</LatitudeDegrees>
              <LongitudeDegrees>-6.31774426437914371490478515625</LongitudeDegrees>
            </Position>
            <AltitudeMeters>360</AltitudeMeters>
            <DistanceMeters>NAN</DistanceMeters>
          </Trackpoint>
          <Trackpoint>
            <Time>2019-10-09T08:23:16.000Z</Time>
            <Position>
              <LatitudeDegrees>39.2793713696300983428955078125</LatitudeDegrees>
              <LongitudeDegrees>-6.317662708461284637451171875</LongitudeDegrees>
            </Position>
            <AltitudeMeters>360.79998779296875</AltitudeMeters>
            <DistanceMeters>NAN</DistanceMeters>
          </Trackpoint>
          <Trackpoint>
            <Time>2019-10-09T08:23:17.000Z</Time>
            <Position>
              <LatitudeDegrees>39.27931110374629497528076171875</LatitudeDegrees>
              <LongitudeDegrees>-6.317654661834239959716796875</LongitudeDegrees>
            </Position>
            <AltitudeMeters>361.20001220703125</AltitudeMeters>
            <DistanceMeters>NAN</DistanceMeters>
          </Trackpoint>
          <Trackpoint>
            <Time>2019-10-09T08:23:24.000Z</Time>
            <Position>
              <LatitudeDegrees>39.27889334969222545623779296875</LatitudeDegrees>
              <LongitudeDegrees>-6.31759523414075374603271484375</LongitudeDegrees>
            </Position>
            <AltitudeMeters>361.399993896484375</AltitudeMeters>
            <DistanceMeters>NAN</DistanceMeters>
          </Trackpoint>
          <Trackpoint>
            <Time>2019-10-09T08:23:26.000Z</Time>
            <Position>
              <LatitudeDegrees>39.278772063553333282470703125</LatitudeDegrees>
              <LongitudeDegrees>-6.317577548325061798095703125</LongitudeDegrees>
            </Position>
            <AltitudeMeters>361.399993896484375</AltitudeMeters>
            <DistanceMeters>NAN</DistanceMeters>
          </Trackpoint>
          <Trackpoint>
            <Time>2019-10-09T08:23:31.000Z</Time>
            <Position>
              <LatitudeDegrees>39.27847065031528472900390625</LatitudeDegrees>
              <LongitudeDegrees>-6.31753236986696720123291015625</LongitudeDegrees>
            </Position>
            <AltitudeMeters>361.600006103515625</AltitudeMeters>
            <DistanceMeters>NAN</DistanceMeters>
          </Trackpoint>
          <Trackpoint>
            <Time>2019-10-09T08:23:37.000Z</Time>
            <Position>
              <LatitudeDegrees>39.2781053669750690460205078125</LatitudeDegrees>
              <LongitudeDegrees>-6.317479647696018218994140625</LongitudeDegrees>
            </Position>
            <AltitudeMeters>361.399993896484375</AltitudeMeters>
            <DistanceMeters>NAN</DistanceMeters>
          </Trackpoint>
          <Trackpoint>
            <Time>2019-10-09T08:23:46.000Z</Time>
            <Position>
              <LatitudeDegrees>39.27754604257643222808837890625</LatitudeDegrees>
              <LongitudeDegrees>-6.3173916377127170562744140625</LongitudeDegrees>
            </Position>
            <AltitudeMeters>361</AltitudeMeters>
            <DistanceMeters>NAN</DistanceMeters>
          </Trackpoint>
          <Trackpoint>
            <Time>2019-10-09T08:23:47.000Z</Time>
            <Position>
              <LatitudeDegrees>39.2774820886552333831787109375</LatitudeDegrees>
              <LongitudeDegrees>-6.317382417619228363037109375</LongitudeDegrees>
            </Position>
            <AltitudeMeters>361.20001220703125</AltitudeMeters>
            <DistanceMeters>NAN</DistanceMeters>
          </Trackpoint>
          <Trackpoint>
            <Time>2019-10-09T08:23:54.000Z</Time>
            <Position>
              <LatitudeDegrees>39.27704027853906154632568359375</LatitudeDegrees>
              <LongitudeDegrees>-6.31731410510838031768798828125</LongitudeDegrees>
            </Position>
            <AltitudeMeters>361</AltitudeMeters>
            <DistanceMeters>NAN</DistanceMeters>
          </Trackpoint>
          <Trackpoint>
            <Time>2019-10-09T08:23:55.000Z</Time>
            <Position>
              <LatitudeDegrees>39.27697607316076755523681640625</LatitudeDegrees>
              <LongitudeDegrees>-6.31730739958584308624267578125</LongitudeDegrees>
            </Position>
            <AltitudeMeters>361.20001220703125</AltitudeMeters>
            <DistanceMeters>NAN</DistanceMeters>
          </Trackpoint>
          <Trackpoint>
            <Time>2019-10-09T08:24:04.000Z</Time>
            <Position>
              <LatitudeDegrees>39.27641012705862522125244140625</LatitudeDegrees>
              <LongitudeDegrees>-6.31722249090671539306640625</LongitudeDegrees>
            </Position>
            <AltitudeMeters>362.600006103515625</AltitudeMeters>
            <DistanceMeters>NAN</DistanceMeters>
          </Trackpoint>
          <Trackpoint>
            <Time>2019-10-09T08:24:13.000Z</Time>
            <Position>
              <LatitudeDegrees>39.2758539877831935882568359375</LatitudeDegrees>
              <LongitudeDegrees>-6.31714512594044208526611328125</LongitudeDegrees>
            </Position>
            <AltitudeMeters>362.399993896484375</AltitudeMeters>
            <DistanceMeters>NAN</DistanceMeters>
          </Trackpoint>
          <Trackpoint>
            <Time>2019-10-09T08:24:15.000Z</Time>
            <Position>
              <LatitudeDegrees>39.2757301032543182373046875</LatitudeDegrees>
              <LongitudeDegrees>-6.3171279430389404296875</LongitudeDegrees>
            </Position>
            <AltitudeMeters>362.399993896484375</AltitudeMeters>
            <DistanceMeters>NAN</DistanceMeters>
          </Trackpoint>
          <Trackpoint>
            <Time>2019-10-09T08:24:24.000Z</Time>
            <Position>
              <LatitudeDegrees>39.275174550712108612060546875</LatitudeDegrees>
              <LongitudeDegrees>-6.317039765417575836181640625</LongitudeDegrees>
            </Position>
            <AltitudeMeters>362.20001220703125</AltitudeMeters>
            <DistanceMeters>NAN</DistanceMeters>
          </Trackpoint>
          <Trackpoint>
            <Time>2019-10-09T08:24:27.000Z</Time>
            <Position>
              <LatitudeDegrees>39.2749839462339878082275390625</LatitudeDegrees>
              <LongitudeDegrees>-6.3170121051371097564697265625</LongitudeDegrees>
            </Position>
            <AltitudeMeters>362.399993896484375</AltitudeMeters>
            <DistanceMeters>NAN</DistanceMeters>
          </Trackpoint>
          <Trackpoint>
            <Time>2019-10-09T08:24:29.000Z</Time>
            <Position>
              <LatitudeDegrees>39.2748562060296535491943359375</LatitudeDegrees>
              <LongitudeDegrees>-6.316993497312068939208984375</LongitudeDegrees>
            </Position>
            <AltitudeMeters>361.399993896484375</AltitudeMeters>
            <DistanceMeters>NAN</DistanceMeters>
          </Trackpoint>
          <Trackpoint>
            <Time>2019-10-09T08:24:36.000Z</Time>
            <Position>
              <LatitudeDegrees>39.27440936677157878875732421875</LatitudeDegrees>
              <LongitudeDegrees>-6.31692702881991863250732421875</LongitudeDegrees>
            </Position>
            <AltitudeMeters>361.399993896484375</AltitudeMeters>
            <DistanceMeters>NAN</DistanceMeters>
          </Trackpoint>
          <Trackpoint>
            <Time>2019-10-09T08:24:41.000Z</Time>
            <Position>
              <LatitudeDegrees>39.27408699877560138702392578125</LatitudeDegrees>
              <LongitudeDegrees>-6.3168783299624919891357421875</LongitudeDegrees>
            </Position>
            <AltitudeMeters>361</AltitudeMeters>
            <DistanceMeters>NAN</DistanceMeters>
          </Trackpoint>
          <Trackpoint>
            <Time>2019-10-09T08:24:48.000Z</Time>
            <Position>
              <LatitudeDegrees>39.2736337892711162567138671875</LatitudeDegrees>
              <LongitudeDegrees>-6.3168154656887054443359375</LongitudeDegrees>
            </Position>
            <AltitudeMeters>361</AltitudeMeters>
            <DistanceMeters>NAN</DistanceMeters>
          </Trackpoint>
          <Trackpoint>
            <Time>2019-10-09T08:24:52.000Z</Time>
            <Position>
              <LatitudeDegrees>39.273374788463115692138671875</LatitudeDegrees>
              <LongitudeDegrees>-6.31677648983895778656005859375</LongitudeDegrees>
            </Position>
            <AltitudeMeters>360.399993896484375</AltitudeMeters>
            <DistanceMeters>NAN</DistanceMeters>
          </Trackpoint>
          <Trackpoint>
            <Time>2019-10-09T08:25:00.000Z</Time>
            <Position>
              <LatitudeDegrees>39.2728505842387676239013671875</LatitudeDegrees>
              <LongitudeDegrees>-6.31669518537819385528564453125</LongitudeDegrees>
            </Position>
            <AltitudeMeters>360.20001220703125</AltitudeMeters>
            <DistanceMeters>NAN</DistanceMeters>
          </Trackpoint>
          <Trackpoint>
            <Time>2019-10-09T08:25:01.000Z</Time>
            <Position>
              <LatitudeDegrees>39.2727852053940296173095703125</LatitudeDegrees>
              <LongitudeDegrees>-6.31668462418019771575927734375</LongitudeDegrees>
            </Position>
            <AltitudeMeters>360</AltitudeMeters>
            <DistanceMeters>NAN</DistanceMeters>
          </Trackpoint>
          <Trackpoint>
            <Time>2019-10-09T08:25:09.000Z</Time>
            <Position>
              <LatitudeDegrees>39.2722517810761928558349609375</LatitudeDegrees>
              <LongitudeDegrees>-6.316607259213924407958984375</LongitudeDegrees>
            </Position>
            <AltitudeMeters>360</AltitudeMeters>
            <DistanceMeters>NAN</DistanceMeters>
          </Trackpoint>
          <Trackpoint>
            <Time>2019-10-09T08:25:13.000Z</Time>
            <Position>
              <LatitudeDegrees>39.27198464982211589813232421875</LatitudeDegrees>
              <LongitudeDegrees>-6.31657163612544536590576171875</LongitudeDegrees>
            </Position>
            <AltitudeMeters>359.79998779296875</AltitudeMeters>
            <DistanceMeters>NAN</DistanceMeters>
          </Trackpoint>
          <Trackpoint>
            <Time>2019-10-09T08:25:18.000Z</Time>
            <Position>
              <LatitudeDegrees>39.27166856825351715087890625</LatitudeDegrees>
              <LongitudeDegrees>-6.31652603857219219207763671875</LongitudeDegrees>
            </Position>
            <AltitudeMeters>359.600006103515625</AltitudeMeters>
            <DistanceMeters>NAN</DistanceMeters>
          </Trackpoint>
          <Trackpoint>
            <Time>2019-10-09T08:25:26.000Z</Time>
            <Position>
              <LatitudeDegrees>39.271149225533008575439453125</LatitudeDegrees>
              <LongitudeDegrees>-6.316450349986553192138671875</LongitudeDegrees>
            </Position>
            <AltitudeMeters>359.79998779296875</AltitudeMeters>
            <DistanceMeters>NAN</DistanceMeters>
          </Trackpoint>
          <Trackpoint>
            <Time>2019-10-09T08:25:35.000Z</Time>
            <Position>
              <LatitudeDegrees>39.2705695331096649169921875</LatitudeDegrees>
              <LongitudeDegrees>-6.3163643516600131988525390625</LongitudeDegrees>
            </Position>
            <AltitudeMeters>359.79998779296875</AltitudeMeters>
            <DistanceMeters>NAN</DistanceMeters>
          </Trackpoint>
          <Trackpoint>
            <Time>2019-10-09T08:25:37.000Z</Time>
            <Position>
              <LatitudeDegrees>39.2704407870769500732421875</LatitudeDegrees>
              <LongitudeDegrees>-6.3163479231297969818115234375</LongitudeDegrees>
            </Position>
            <AltitudeMeters>359.600006103515625</AltitudeMeters>
            <DistanceMeters>NAN</DistanceMeters>
          </Trackpoint>
          <Trackpoint>
            <Time>2019-10-09T08:25:45.000Z</Time>
            <Position>
              <LatitudeDegrees>39.269979782402515411376953125</LatitudeDegrees>
              <LongitudeDegrees>-6.31627894006669521331787109375</LongitudeDegrees>
            </Position>
            <AltitudeMeters>361.20001220703125</AltitudeMeters>
            <DistanceMeters>NAN</DistanceMeters>
          </Trackpoint>
          <Trackpoint>
            <Time>2019-10-09T08:25:46.000Z</Time>
            <Position>
              <LatitudeDegrees>39.26992605440318584442138671875</LatitudeDegrees>
              <LongitudeDegrees>-6.3162691332399845123291015625</LongitudeDegrees>
            </Position>
            <AltitudeMeters>361.20001220703125</AltitudeMeters>
            <DistanceMeters>NAN</DistanceMeters>
          </Trackpoint>
          <Trackpoint>
            <Time>2019-10-09T08:25:47.000Z</Time>
            <Position>
              <LatitudeDegrees>39.26986536942422389984130859375</LatitudeDegrees>
              <LongitudeDegrees>-6.31625832058489322662353515625</LongitudeDegrees>
            </Position>
            <AltitudeMeters>361.600006103515625</AltitudeMeters>
            <DistanceMeters>NAN</DistanceMeters>
          </Trackpoint>
          <Trackpoint>
            <Time>2019-10-09T08:25:50.000Z</Time>
            <Position>
              <LatitudeDegrees>39.26970477215945720672607421875</LatitudeDegrees>
              <LongitudeDegrees>-6.31623317487537860870361328125</LongitudeDegrees>
            </Position>
            <AltitudeMeters>362</AltitudeMeters>
            <DistanceMeters>NAN</DistanceMeters>
          </Trackpoint>
          <Trackpoint>
            <Time>2019-10-09T08:25:52.000Z</Time>
            <Position>
              <LatitudeDegrees>39.26960050128400325775146484375</LatitudeDegrees>
              <LongitudeDegrees>-6.31621523760259151458740234375</LongitudeDegrees>
            </Position>
            <AltitudeMeters>362.600006103515625</AltitudeMeters>
            <DistanceMeters>NAN</DistanceMeters>
          </Trackpoint>
          <Trackpoint>
            <Time>2019-10-09T08:25:53.000Z</Time>
            <Position>
              <LatitudeDegrees>39.26954652182757854461669921875</LatitudeDegrees>
              <LongitudeDegrees>-6.31621004082262516021728515625</LongitudeDegrees>
            </Position>
            <AltitudeMeters>362.600006103515625</AltitudeMeters>
            <DistanceMeters>NAN</DistanceMeters>
          </Trackpoint>
          <Trackpoint>
            <Time>2019-10-09T08:25:56.000Z</Time>
            <Position>
              <LatitudeDegrees>39.26936999894678592681884765625</LatitudeDegrees>
              <LongitudeDegrees>-6.31618355400860309600830078125</LongitudeDegrees>
            </Position>
            <AltitudeMeters>363</AltitudeMeters>
            <DistanceMeters>NAN</DistanceMeters>
          </Trackpoint>
          <Trackpoint>
            <Time>2019-10-09T08:25:59.000Z</Time>
            <Position>
              <LatitudeDegrees>39.26919096149504184722900390625</LatitudeDegrees>
              <LongitudeDegrees>-6.3161578215658664703369140625</LongitudeDegrees>
            </Position>
            <AltitudeMeters>363</AltitudeMeters>
            <DistanceMeters>NAN</DistanceMeters>
          </Trackpoint>
          <Trackpoint>
            <Time>2019-10-09T08:26:00.000Z</Time>
            <Position>
              <LatitudeDegrees>39.26913027651607990264892578125</LatitudeDegrees>
              <LongitudeDegrees>-6.31614751182496547698974609375</LongitudeDegrees>
            </Position>
            <AltitudeMeters>363.20001220703125</AltitudeMeters>
            <DistanceMeters>NAN</DistanceMeters>
          </Trackpoint>
          <Trackpoint>
            <Time>2019-10-09T08:26:09.000Z</Time>
            <Position>
              <LatitudeDegrees>39.26858729682862758636474609375</LatitudeDegrees>
              <LongitudeDegrees>-6.316004097461700439453125</LongitudeDegrees>
            </Position>
            <AltitudeMeters>362.79998779296875</AltitudeMeters>
            <DistanceMeters>NAN</DistanceMeters>
          </Trackpoint>
          <Trackpoint>
            <Time>2019-10-09T08:26:10.000Z</Time>
            <Position>
              <LatitudeDegrees>39.2685310542583465576171875</LatitudeDegrees>
              <LongitudeDegrees>-6.31598641164600849151611328125</LongitudeDegrees>
            </Position>
            <AltitudeMeters>362.600006103515625</AltitudeMeters>
            <DistanceMeters>NAN</DistanceMeters>
          </Trackpoint>
          <Trackpoint>
            <Time>2019-10-09T08:26:16.000Z</Time>
            <Position>
              <LatitudeDegrees>39.26816266961395740509033203125</LatitudeDegrees>
              <LongitudeDegrees>-6.3158181868493556976318359375</LongitudeDegrees>
            </Position>
            <AltitudeMeters>362</AltitudeMeters>
            <DistanceMeters>NAN</DistanceMeters>
          </Trackpoint>
          <Trackpoint>
            <Time>2019-10-09T08:26:19.000Z</Time>
            <Position>
              <LatitudeDegrees>39.2679706402122974395751953125</LatitudeDegrees>
              <LongitudeDegrees>-6.315719783306121826171875</LongitudeDegrees>
            </Position>
            <AltitudeMeters>361.399993896484375</AltitudeMeters>
            <DistanceMeters>NAN</DistanceMeters>
          </Trackpoint>
          <Trackpoint>
            <Time>2019-10-09T08:26:24.000Z</Time>
            <Position>
              <LatitudeDegrees>39.26762471906840801239013671875</LatitudeDegrees>
              <LongitudeDegrees>-6.31554686464369297027587890625</LongitudeDegrees>
            </Position>
            <AltitudeMeters>360.20001220703125</AltitudeMeters>
            <DistanceMeters>NAN</DistanceMeters>
          </Trackpoint>
          <Trackpoint>
            <Time>2019-10-09T08:26:26.000Z</Time>
            <Position>
              <LatitudeDegrees>39.26747627556324005126953125</LatitudeDegrees>
              <LongitudeDegrees>-6.31547209806740283966064453125</LongitudeDegrees>
            </Position>
            <AltitudeMeters>359.399993896484375</AltitudeMeters>
            <DistanceMeters>NAN</DistanceMeters>
          </Trackpoint>
          <Trackpoint>
            <Time>2019-10-09T08:26:28.000Z</Time>
            <Position>
              <LatitudeDegrees>39.26732883788645267486572265625</LatitudeDegrees>
              <LongitudeDegrees>-6.3153950683772563934326171875</LongitudeDegrees>
            </Position>
            <AltitudeMeters>358.79998779296875</AltitudeMeters>
            <DistanceMeters>NAN</DistanceMeters>
          </Trackpoint>
          <Trackpoint>
            <Time>2019-10-09T08:26:33.000Z</Time>
            <Position>
              <LatitudeDegrees>39.2669457010924816131591796875</LatitudeDegrees>
              <LongitudeDegrees>-6.3152002729475498199462890625</LongitudeDegrees>
            </Position>
            <AltitudeMeters>358.20001220703125</AltitudeMeters>
            <DistanceMeters>NAN</DistanceMeters>
          </Trackpoint>
          <Trackpoint>
            <Time>2019-10-09T08:26:34.000Z</Time>
            <Position>
              <LatitudeDegrees>39.26686875522136688232421875</LatitudeDegrees>
              <LongitudeDegrees>-6.31515928544104099273681640625</LongitudeDegrees>
            </Position>
            <AltitudeMeters>357.79998779296875</AltitudeMeters>
            <DistanceMeters>NAN</DistanceMeters>
          </Trackpoint>
          <Trackpoint>
            <Time>2019-10-09T08:26:35.000Z</Time>
            <Position>
              <LatitudeDegrees>39.26679625175893306732177734375</LatitudeDegrees>
              <LongitudeDegrees>-6.31512123160064220428466796875</LongitudeDegrees>
            </Position>
            <AltitudeMeters>357.399993896484375</AltitudeMeters>
            <DistanceMeters>NAN</DistanceMeters>
          </Trackpoint>
          <Trackpoint>
            <Time>2019-10-09T08:26:41.000Z</Time>
            <Position>
              <LatitudeDegrees>39.26632150076329708099365234375</LatitudeDegrees>
              <LongitudeDegrees>-6.31488360464572906494140625</LongitudeDegrees>
            </Position>
            <AltitudeMeters>356</AltitudeMeters>
            <DistanceMeters>NAN</DistanceMeters>
          </Trackpoint>
          <Trackpoint>
            <Time>2019-10-09T08:26:43.000Z</Time>
            <Position>
              <LatitudeDegrees>39.26616945303976535797119140625</LatitudeDegrees>
              <LongitudeDegrees>-6.3148043118417263031005859375</LongitudeDegrees>
            </Position>
            <AltitudeMeters>356</AltitudeMeters>
            <DistanceMeters>NAN</DistanceMeters>
          </Trackpoint>
          <Trackpoint>
            <Time>2019-10-09T08:26:46.000Z</Time>
            <Position>
              <LatitudeDegrees>39.2659261263906955718994140625</LatitudeDegrees>
              <LongitudeDegrees>-6.31468252278864383697509765625</LongitudeDegrees>
            </Position>
            <AltitudeMeters>355.20001220703125</AltitudeMeters>
            <DistanceMeters>NAN</DistanceMeters>
          </Trackpoint>
          <Trackpoint>
            <Time>2019-10-09T08:26:49.000Z</Time>
            <Position>
              <LatitudeDegrees>39.2656914331018924713134765625</LatitudeDegrees>
              <LongitudeDegrees>-6.31456634961068630218505859375</LongitudeDegrees>
            </Position>
            <AltitudeMeters>355</AltitudeMeters>
            <DistanceMeters>NAN</DistanceMeters>
          </Trackpoint>
          <Trackpoint>
            <Time>2019-10-09T08:26:50.000Z</Time>
            <Position>
              <LatitudeDegrees>39.2656154930591583251953125</LatitudeDegrees>
              <LongitudeDegrees>-6.3145277090370655059814453125</LongitudeDegrees>
            </Position>
            <AltitudeMeters>355</AltitudeMeters>
            <DistanceMeters>NAN</DistanceMeters>
          </Trackpoint>
          <Trackpoint>
            <Time>2019-10-09T08:26:54.000Z</Time>
            <Position>
              <LatitudeDegrees>39.26531575620174407958984375</LatitudeDegrees>
              <LongitudeDegrees>-6.3143761642277240753173828125</LongitudeDegrees>
            </Position>
            <AltitudeMeters>354.600006103515625</AltitudeMeters>
            <DistanceMeters>NAN</DistanceMeters>
          </Trackpoint>
          <Trackpoint>
            <Time>2019-10-09T08:27:01.000Z</Time>
            <Position>
              <LatitudeDegrees>39.26482248120009899139404296875</LatitudeDegrees>
              <LongitudeDegrees>-6.31412562914192676544189453125</LongitudeDegrees>
            </Position>
            <AltitudeMeters>355.20001220703125</AltitudeMeters>
            <DistanceMeters>NAN</DistanceMeters>
          </Trackpoint>
          <Trackpoint>
            <Time>2019-10-09T08:27:03.000Z</Time>
            <Position>
              <LatitudeDegrees>39.26468837074935436248779296875</LatitudeDegrees>
              <LongitudeDegrees>-6.3140594959259033203125</LongitudeDegrees>
            </Position>
            <AltitudeMeters>355.20001220703125</AltitudeMeters>
            <DistanceMeters>NAN</DistanceMeters>
          </Trackpoint>
          <Trackpoint>
            <Time>2019-10-09T08:27:11.000Z</Time>
            <Position>
              <LatitudeDegrees>39.264164082705974578857421875</LatitudeDegrees>
              <LongitudeDegrees>-6.3138033449649810791015625</LongitudeDegrees>
            </Position>
            <AltitudeMeters>355</AltitudeMeters>
            <DistanceMeters>NAN</DistanceMeters>
          </Trackpoint>
          <Trackpoint>
            <Time>2019-10-09T08:27:14.000Z</Time>
            <Position>
              <LatitudeDegrees>39.26396937109529972076416015625</LatitudeDegrees>
              <LongitudeDegrees>-6.31370468996465206146240234375</LongitudeDegrees>
            </Position>
            <AltitudeMeters>355.600006103515625</AltitudeMeters>
            <DistanceMeters>NAN</DistanceMeters>
          </Trackpoint>
          <Trackpoint>
            <Time>2019-10-09T08:27:22.000Z</Time>
            <Position>
              <LatitudeDegrees>39.26345807500183582305908203125</LatitudeDegrees>
              <LongitudeDegrees>-6.31344870664179325103759765625</LongitudeDegrees>
            </Position>
            <AltitudeMeters>355.20001220703125</AltitudeMeters>
            <DistanceMeters>NAN</DistanceMeters>
          </Trackpoint>
          <Trackpoint>
            <Time>2019-10-09T08:27:30.000Z</Time>
            <Position>
              <LatitudeDegrees>39.2629331164062023162841796875</LatitudeDegrees>
              <LongitudeDegrees>-6.31318618543446063995361328125</LongitudeDegrees>
            </Position>
            <AltitudeMeters>355.20001220703125</AltitudeMeters>
            <DistanceMeters>NAN</DistanceMeters>
          </Trackpoint>
          <Trackpoint>
            <Time>2019-10-09T08:27:32.000Z</Time>
            <Position>
              <LatitudeDegrees>39.2627996765077114105224609375</LatitudeDegrees>
              <LongitudeDegrees>-6.31312281824648380279541015625</LongitudeDegrees>
            </Position>
            <AltitudeMeters>354.600006103515625</AltitudeMeters>
            <DistanceMeters>NAN</DistanceMeters>
          </Trackpoint>
          <Trackpoint>
            <Time>2019-10-09T08:27:40.000Z</Time>
            <Position>
              <LatitudeDegrees>39.26227086223661899566650390625</LatitudeDegrees>
              <LongitudeDegrees>-6.3128540106117725372314453125</LongitudeDegrees>
            </Position>
            <AltitudeMeters>354.600006103515625</AltitudeMeters>
            <DistanceMeters>NAN</DistanceMeters>
          </Trackpoint>
          <Trackpoint>
            <Time>2019-10-09T08:27:41.000Z</Time>
            <Position>
              <LatitudeDegrees>39.26220179535448551177978515625</LatitudeDegrees>
              <LongitudeDegrees>-6.31281872279942035675048828125</LongitudeDegrees>
            </Position>
            <AltitudeMeters>354.600006103515625</AltitudeMeters>
            <DistanceMeters>NAN</DistanceMeters>
          </Trackpoint>
          <Trackpoint>
            <Time>2019-10-09T08:27:49.000Z</Time>
            <Position>
              <LatitudeDegrees>39.26166954450309276580810546875</LatitudeDegrees>
              <LongitudeDegrees>-6.3125489093363285064697265625</LongitudeDegrees>
            </Position>
            <AltitudeMeters>354</AltitudeMeters>
            <DistanceMeters>NAN</DistanceMeters>
          </Trackpoint>
          <Trackpoint>
            <Time>2019-10-09T08:27:50.000Z</Time>
            <Position>
              <LatitudeDegrees>39.26160366274416446685791015625</LatitudeDegrees>
              <LongitudeDegrees>-6.3125160522758960723876953125</LongitudeDegrees>
            </Position>
            <AltitudeMeters>353.79998779296875</AltitudeMeters>
            <DistanceMeters>NAN</DistanceMeters>
          </Trackpoint>
          <Trackpoint>
            <Time>2019-10-09T08:27:52.000Z</Time>
            <Position>
              <LatitudeDegrees>39.2614723183214664459228515625</LatitudeDegrees>
              <LongitudeDegrees>-6.31244941614568233489990234375</LongitudeDegrees>
            </Position>
            <AltitudeMeters>353.79998779296875</AltitudeMeters>
            <DistanceMeters>NAN</DistanceMeters>
          </Trackpoint>
          <Trackpoint>
            <Time>2019-10-09T08:27:56.000Z</Time>
            <Position>
              <LatitudeDegrees>39.2612144909799098968505859375</LatitudeDegrees>
              <LongitudeDegrees>-6.31231631152331829071044921875</LongitudeDegrees>
            </Position>
            <AltitudeMeters>353.399993896484375</AltitudeMeters>
            <DistanceMeters>NAN</DistanceMeters>
          </Trackpoint>
          <Trackpoint>
            <Time>2019-10-09T08:28:03.000Z</Time>
            <Position>
              <LatitudeDegrees>39.260773770511150360107421875</LatitudeDegrees>
              <LongitudeDegrees>-6.31209083832800388336181640625</LongitudeDegrees>
            </Position>
            <AltitudeMeters>355</AltitudeMeters>
            <DistanceMeters>NAN</DistanceMeters>
          </Trackpoint>
          <Trackpoint>
            <Time>2019-10-09T08:28:12.000Z</Time>
            <Position>
              <LatitudeDegrees>39.2602535896003246307373046875</LatitudeDegrees>
              <LongitudeDegrees>-6.3118280656635761260986328125</LongitudeDegrees>
            </Position>
            <AltitudeMeters>355.399993896484375</AltitudeMeters>
            <DistanceMeters>NAN</DistanceMeters>
          </Trackpoint>
          <Trackpoint>
            <Time>2019-10-09T08:28:13.000Z</Time>
            <Position>
              <LatitudeDegrees>39.2601979337632656097412109375</LatitudeDegrees>
              <LongitudeDegrees>-6.31179948337376117706298828125</LongitudeDegrees>
            </Position>
            <AltitudeMeters>356</AltitudeMeters>
            <DistanceMeters>NAN</DistanceMeters>
          </Trackpoint>
          <Trackpoint>
            <Time>2019-10-09T08:28:21.000Z</Time>
            <Position>
              <LatitudeDegrees>39.25975461490452289581298828125</LatitudeDegrees>
              <LongitudeDegrees>-6.31157702766358852386474609375</LongitudeDegrees>
            </Position>
            <AltitudeMeters>356</AltitudeMeters>
            <DistanceMeters>NAN</DistanceMeters>
          </Trackpoint>
          <Trackpoint>
            <Time>2019-10-09T08:28:23.000Z</Time>
            <Position>
              <LatitudeDegrees>39.259643889963626861572265625</LatitudeDegrees>
              <LongitudeDegrees>-6.311521790921688079833984375</LongitudeDegrees>
            </Position>
            <AltitudeMeters>356.79998779296875</AltitudeMeters>
            <DistanceMeters>NAN</DistanceMeters>
          </Trackpoint>
          <Trackpoint>
            <Time>2019-10-09T08:28:27.000Z</Time>
            <Position>
              <LatitudeDegrees>39.25941866822540760040283203125</LatitudeDegrees>
              <LongitudeDegrees>-6.3114108145236968994140625</LongitudeDegrees>
            </Position>
            <AltitudeMeters>357</AltitudeMeters>
            <DistanceMeters>NAN</DistanceMeters>
          </Trackpoint>
          <Trackpoint>
            <Time>2019-10-09T08:28:32.000Z</Time>
            <Position>
              <LatitudeDegrees>39.259142987430095672607421875</LatitudeDegrees>
              <LongitudeDegrees>-6.31126555614173412322998046875</LongitudeDegrees>
            </Position>
            <AltitudeMeters>357.20001220703125</AltitudeMeters>
            <DistanceMeters>NAN</DistanceMeters>
          </Trackpoint>
          <Trackpoint>
            <Time>2019-10-09T08:28:41.000Z</Time>
            <Position>
              <LatitudeDegrees>39.2586435936391353607177734375</LatitudeDegrees>
              <LongitudeDegrees>-6.31101585924625396728515625</LongitudeDegrees>
            </Position>
            <AltitudeMeters>357.399993896484375</AltitudeMeters>
            <DistanceMeters>NAN</DistanceMeters>
          </Trackpoint>
          <Trackpoint>
            <Time>2019-10-09T08:28:44.000Z</Time>
            <Position>
              <LatitudeDegrees>39.25847536884248256683349609375</LatitudeDegrees>
              <LongitudeDegrees>-6.3109315373003482818603515625</LongitudeDegrees>
            </Position>
            <AltitudeMeters>357.79998779296875</AltitudeMeters>
            <DistanceMeters>NAN</DistanceMeters>
          </Trackpoint>
          <Trackpoint>
            <Time>2019-10-09T08:28:48.000Z</Time>
            <Position>
              <LatitudeDegrees>39.258254505693912506103515625</LatitudeDegrees>
              <LongitudeDegrees>-6.3108208961784839630126953125</LongitudeDegrees>
            </Position>
            <AltitudeMeters>358</AltitudeMeters>
            <DistanceMeters>NAN</DistanceMeters>
          </Trackpoint>
          <Trackpoint>
            <Time>2019-10-09T08:28:54.000Z</Time>
            <Position>
              <LatitudeDegrees>39.25792685709893703460693359375</LatitudeDegrees>
              <LongitudeDegrees>-6.310659460723400115966796875</LongitudeDegrees>
            </Position>
            <AltitudeMeters>358.79998779296875</AltitudeMeters>
            <DistanceMeters>NAN</DistanceMeters>
          </Trackpoint>
          <Trackpoint>
            <Time>2019-10-09T08:29:00.000Z</Time>
            <Position>
              <LatitudeDegrees>39.2576112784445285797119140625</LatitudeDegrees>
              <LongitudeDegrees>-6.31050095893442630767822265625</LongitudeDegrees>
            </Position>
            <AltitudeMeters>359.20001220703125</AltitudeMeters>
            <DistanceMeters>NAN</DistanceMeters>
          </Trackpoint>
          <Trackpoint>
            <Time>2019-10-09T08:29:04.000Z</Time>
            <Position>
              <LatitudeDegrees>39.257411956787109375</LatitudeDegrees>
              <LongitudeDegrees>-6.31040289066731929779052734375</LongitudeDegrees>
            </Position>
            <AltitudeMeters>359.600006103515625</AltitudeMeters>
            <DistanceMeters>NAN</DistanceMeters>
          </Trackpoint>
          <Trackpoint>
            <Time>2019-10-09T08:29:09.000Z</Time>
            <Position>
              <LatitudeDegrees>39.25716712139546871185302734375</LatitudeDegrees>
              <LongitudeDegrees>-6.3102789223194122314453125</LongitudeDegrees>
            </Position>
            <AltitudeMeters>360.20001220703125</AltitudeMeters>
            <DistanceMeters>NAN</DistanceMeters>
          </Trackpoint>
          <Trackpoint>
            <Time>2019-10-09T08:29:16.000Z</Time>
            <Position>
              <LatitudeDegrees>39.2568247206509113311767578125</LatitudeDegrees>
              <LongitudeDegrees>-6.31010650657117366790771484375</LongitudeDegrees>
            </Position>
            <AltitudeMeters>360.600006103515625</AltitudeMeters>
            <DistanceMeters>NAN</DistanceMeters>
          </Trackpoint>
          <Trackpoint>
            <Time>2019-10-09T08:29:25.000Z</Time>
            <Position>
              <LatitudeDegrees>39.25636916421353816986083984375</LatitudeDegrees>
              <LongitudeDegrees>-6.309880949556827545166015625</LongitudeDegrees>
            </Position>
            <AltitudeMeters>360.399993896484375</AltitudeMeters>
            <DistanceMeters>NAN</DistanceMeters>
          </Trackpoint>
          <Trackpoint>
            <Time>2019-10-09T08:29:27.000Z</Time>
            <Position>
              <LatitudeDegrees>39.25626464188098907470703125</LatitudeDegrees>
              <LongitudeDegrees>-6.3098274730145931243896484375</LongitudeDegrees>
            </Position>
            <AltitudeMeters>361.600006103515625</AltitudeMeters>
            <DistanceMeters>NAN</DistanceMeters>
          </Trackpoint>
          <Trackpoint>
            <Time>2019-10-09T08:29:35.000Z</Time>
            <Position>
              <LatitudeDegrees>39.2558480612933635711669921875</LatitudeDegrees>
              <LongitudeDegrees>-6.30961767397820949554443359375</LongitudeDegrees>
            </Position>
            <AltitudeMeters>361.600006103515625</AltitudeMeters>
            <DistanceMeters>NAN</DistanceMeters>
          </Trackpoint>
          <Trackpoint>
            <Time>2019-10-09T08:29:44.000Z</Time>
            <Position>
              <LatitudeDegrees>39.255343638360500335693359375</LatitudeDegrees>
              <LongitudeDegrees>-6.3093621097505092620849609375</LongitudeDegrees>
            </Position>
            <AltitudeMeters>361</AltitudeMeters>
            <DistanceMeters>NAN</DistanceMeters>
          </Trackpoint>
          <Trackpoint>
            <Time>2019-10-09T08:29:50.000Z</Time>
            <Position>
              <LatitudeDegrees>39.25498900003731250762939453125</LatitudeDegrees>
              <LongitudeDegrees>-6.30918550305068492889404296875</LongitudeDegrees>
            </Position>
            <AltitudeMeters>360.20001220703125</AltitudeMeters>
            <DistanceMeters>NAN</DistanceMeters>
          </Trackpoint>
          <Trackpoint>
            <Time>2019-10-09T08:29:54.000Z</Time>
            <Position>
              <LatitudeDegrees>39.25474273972213268280029296875</LatitudeDegrees>
              <LongitudeDegrees>-6.30906430073082447052001953125</LongitudeDegrees>
            </Position>
            <AltitudeMeters>360</AltitudeMeters>
            <DistanceMeters>NAN</DistanceMeters>
          </Trackpoint>
          <Trackpoint>
            <Time>2019-10-09T08:29:59.000Z</Time>
            <Position>
              <LatitudeDegrees>39.25442808307707309722900390625</LatitudeDegrees>
              <LongitudeDegrees>-6.3089044578373432159423828125</LongitudeDegrees>
            </Position>
            <AltitudeMeters>359.600006103515625</AltitudeMeters>
            <DistanceMeters>NAN</DistanceMeters>
          </Trackpoint>
          <Trackpoint>
            <Time>2019-10-09T08:30:02.000Z</Time>
            <Position>
              <LatitudeDegrees>39.2542404122650623321533203125</LatitudeDegrees>
              <LongitudeDegrees>-6.308807395398616790771484375</LongitudeDegrees>
            </Position>
            <AltitudeMeters>359.399993896484375</AltitudeMeters>
            <DistanceMeters>NAN</DistanceMeters>
          </Trackpoint>
          <Trackpoint>
            <Time>2019-10-09T08:30:03.000Z</Time>
            <Position>
              <LatitudeDegrees>39.2541803978383541107177734375</LatitudeDegrees>
              <LongitudeDegrees>-6.30877696909010410308837890625</LongitudeDegrees>
            </Position>
            <AltitudeMeters>359.20001220703125</AltitudeMeters>
            <DistanceMeters>NAN</DistanceMeters>
          </Trackpoint>
          <Trackpoint>
            <Time>2019-10-09T08:30:05.000Z</Time>
            <Position>
              <LatitudeDegrees>39.25405944697558879852294921875</LatitudeDegrees>
              <LongitudeDegrees>-6.30871796049177646636962890625</LongitudeDegrees>
            </Position>
            <AltitudeMeters>359.600006103515625</AltitudeMeters>
            <DistanceMeters>NAN</DistanceMeters>
          </Trackpoint>
          <Trackpoint>
            <Time>2019-10-09T08:30:11.000Z</Time>
            <Position>
              <LatitudeDegrees>39.253700785338878631591796875</LatitudeDegrees>
              <LongitudeDegrees>-6.30854110233485698699951171875</LongitudeDegrees>
            </Position>
            <AltitudeMeters>359.399993896484375</AltitudeMeters>
            <DistanceMeters>NAN</DistanceMeters>
          </Trackpoint>
          <Trackpoint>
            <Time>2019-10-09T08:30:13.000Z</Time>
            <Position>
              <LatitudeDegrees>39.25358536653220653533935546875</LatitudeDegrees>
              <LongitudeDegrees>-6.3084806688129901885986328125</LongitudeDegrees>
            </Position>
            <AltitudeMeters>359.399993896484375</AltitudeMeters>
            <DistanceMeters>NAN</DistanceMeters>
          </Trackpoint>
          <Trackpoint>
            <Time>2019-10-09T08:30:19.000Z</Time>
            <Position>
              <LatitudeDegrees>39.25323852337896823883056640625</LatitudeDegrees>
              <LongitudeDegrees>-6.30830171518027782440185546875</LongitudeDegrees>
            </Position>
            <AltitudeMeters>360.600006103515625</AltitudeMeters>
            <DistanceMeters>NAN</DistanceMeters>
          </Trackpoint>
          <Trackpoint>
            <Time>2019-10-09T08:30:25.000Z</Time>
            <Position>
              <LatitudeDegrees>39.25289134494960308074951171875</LatitudeDegrees>
              <LongitudeDegrees>-6.3081299699842929840087890625</LongitudeDegrees>
            </Position>
            <AltitudeMeters>360.20001220703125</AltitudeMeters>
            <DistanceMeters>NAN</DistanceMeters>
          </Trackpoint>
          <Trackpoint>
            <Time>2019-10-09T08:30:33.000Z</Time>
            <Position>
              <LatitudeDegrees>39.25242983736097812652587890625</LatitudeDegrees>
              <LongitudeDegrees>-6.30789653398096561431884765625</LongitudeDegrees>
            </Position>
            <AltitudeMeters>360.79998779296875</AltitudeMeters>
            <DistanceMeters>NAN</DistanceMeters>
          </Trackpoint>
          <Trackpoint>
            <Time>2019-10-09T08:30:42.000Z</Time>
            <Position>
              <LatitudeDegrees>39.2519080638885498046875</LatitudeDegrees>
              <LongitudeDegrees>-6.3076340965926647186279296875</LongitudeDegrees>
            </Position>
            <AltitudeMeters>360.79998779296875</AltitudeMeters>
            <DistanceMeters>NAN</DistanceMeters>
          </Trackpoint>
          <Trackpoint>
            <Time>2019-10-09T08:30:43.000Z</Time>
            <Position>
              <LatitudeDegrees>39.25184997729957103729248046875</LatitudeDegrees>
              <LongitudeDegrees>-6.3076032511889934539794921875</LongitudeDegrees>
            </Position>
            <AltitudeMeters>360.79998779296875</AltitudeMeters>
            <DistanceMeters>NAN</DistanceMeters>
          </Trackpoint>
          <Trackpoint>
            <Time>2019-10-09T08:30:52.000Z</Time>
            <Position>
              <LatitudeDegrees>39.251335076987743377685546875</LatitudeDegrees>
              <LongitudeDegrees>-6.30734500475227832794189453125</LongitudeDegrees>
            </Position>
            <AltitudeMeters>361.20001220703125</AltitudeMeters>
            <DistanceMeters>NAN</DistanceMeters>
          </Trackpoint>
          <Trackpoint>
            <Time>2019-10-09T08:30:55.000Z</Time>
            <Position>
              <LatitudeDegrees>39.2511699534952640533447265625</LatitudeDegrees>
              <LongitudeDegrees>-6.30726152099668979644775390625</LongitudeDegrees>
            </Position>
            <AltitudeMeters>361.399993896484375</AltitudeMeters>
            <DistanceMeters>NAN</DistanceMeters>
          </Trackpoint>
          <Trackpoint>
            <Time>2019-10-09T08:30:56.000Z</Time>
            <Position>
              <LatitudeDegrees>39.251116812229156494140625</LatitudeDegrees>
              <LongitudeDegrees>-6.30723394453525543212890625</LongitudeDegrees>
            </Position>
            <AltitudeMeters>362</AltitudeMeters>
            <DistanceMeters>NAN</DistanceMeters>
          </Trackpoint>
          <Trackpoint>
            <Time>2019-10-09T08:31:02.000Z</Time>
            <Position>
              <LatitudeDegrees>39.25079855136573314666748046875</LatitudeDegrees>
              <LongitudeDegrees>-6.3070736825466156005859375</LongitudeDegrees>
            </Position>
            <AltitudeMeters>362.399993896484375</AltitudeMeters>
            <DistanceMeters>NAN</DistanceMeters>
          </Trackpoint>
          <Trackpoint>
            <Time>2019-10-09T08:31:04.000Z</Time>
            <Position>
              <LatitudeDegrees>39.2506948672235012054443359375</LatitudeDegrees>
              <LongitudeDegrees>-6.30701936781406402587890625</LongitudeDegrees>
            </Position>
            <AltitudeMeters>363</AltitudeMeters>
            <DistanceMeters>NAN</DistanceMeters>
          </Trackpoint>
          <Trackpoint>
            <Time>2019-10-09T08:31:09.000Z</Time>
            <Position>
              <LatitudeDegrees>39.25043595023453235626220703125</LatitudeDegrees>
              <LongitudeDegrees>-6.3068928010761737823486328125</LongitudeDegrees>
            </Position>
            <AltitudeMeters>363.20001220703125</AltitudeMeters>
            <DistanceMeters>NAN</DistanceMeters>
          </Trackpoint>
          <Trackpoint>
            <Time>2019-10-09T08:31:12.000Z</Time>
            <Position>
              <LatitudeDegrees>39.250282309949398040771484375</LatitudeDegrees>
              <LongitudeDegrees>-6.3068180344998836517333984375</LongitudeDegrees>
            </Position>
            <AltitudeMeters>363.79998779296875</AltitudeMeters>
            <DistanceMeters>NAN</DistanceMeters>
          </Trackpoint>
          <Trackpoint>
            <Time>2019-10-09T08:31:15.000Z</Time>
            <Position>
              <LatitudeDegrees>39.2501326091587543487548828125</LatitudeDegrees>
              <LongitudeDegrees>-6.30674335174262523651123046875</LongitudeDegrees>
            </Position>
            <AltitudeMeters>364.20001220703125</AltitudeMeters>
            <DistanceMeters>NAN</DistanceMeters>
          </Trackpoint>
          <Trackpoint>
            <Time>2019-10-09T08:31:16.000Z</Time>
            <Position>
              <LatitudeDegrees>39.250083826482295989990234375</LatitudeDegrees>
              <LongitudeDegrees>-6.30671761929988861083984375</LongitudeDegrees>
            </Position>
            <AltitudeMeters>364.600006103515625</AltitudeMeters>
            <DistanceMeters>NAN</DistanceMeters>
          </Trackpoint>
          <Trackpoint>
            <Time>2019-10-09T08:31:22.000Z</Time>
            <Position>
              <LatitudeDegrees>39.2497745342552661895751953125</LatitudeDegrees>
              <LongitudeDegrees>-6.30656330846250057220458984375</LongitudeDegrees>
            </Position>
            <AltitudeMeters>365.20001220703125</AltitudeMeters>
            <DistanceMeters>NAN</DistanceMeters>
          </Trackpoint>
          <Trackpoint>
            <Time>2019-10-09T08:31:23.000Z</Time>
            <Position>
              <LatitudeDegrees>39.2497192136943340301513671875</LatitudeDegrees>
              <LongitudeDegrees>-6.3065357320010662078857421875</LongitudeDegrees>
            </Position>
            <AltitudeMeters>365.20001220703125</AltitudeMeters>
            <DistanceMeters>NAN</DistanceMeters>
          </Trackpoint>
          <Trackpoint>
            <Time>2019-10-09T08:31:28.000Z</Time>
            <Position>
              <LatitudeDegrees>39.24943414516746997833251953125</LatitudeDegrees>
              <LongitudeDegrees>-6.30639499984681606292724609375</LongitudeDegrees>
            </Position>
            <AltitudeMeters>365.20001220703125</AltitudeMeters>
            <DistanceMeters>NAN</DistanceMeters>
          </Trackpoint>
          <Trackpoint>
            <Time>2019-10-09T08:31:31.000Z</Time>
            <Position>
              <LatitudeDegrees>39.2492618970572948455810546875</LatitudeDegrees>
              <LongitudeDegrees>-6.30630581639707088470458984375</LongitudeDegrees>
            </Position>
            <AltitudeMeters>365.600006103515625</AltitudeMeters>
            <DistanceMeters>NAN</DistanceMeters>
          </Trackpoint>
          <Trackpoint>
            <Time>2019-10-09T08:31:39.000Z</Time>
            <Position>
              <LatitudeDegrees>39.24877884797751903533935546875</LatitudeDegrees>
              <LongitudeDegrees>-6.3060639984905719757080078125</LongitudeDegrees>
            </Position>
            <AltitudeMeters>364.20001220703125</AltitudeMeters>
            <DistanceMeters>NAN</DistanceMeters>
          </Trackpoint>
          <Trackpoint>
            <Time>2019-10-09T08:31:41.000Z</Time>
            <Position>
              <LatitudeDegrees>39.24865060485899448394775390625</LatitudeDegrees>
              <LongitudeDegrees>-6.30599677562713623046875</LongitudeDegrees>
            </Position>
            <AltitudeMeters>363.79998779296875</AltitudeMeters>
            <DistanceMeters>NAN</DistanceMeters>
          </Trackpoint>
          <Trackpoint>
            <Time>2019-10-09T08:31:48.000Z</Time>
            <Position>
              <LatitudeDegrees>39.2481829784810543060302734375</LatitudeDegrees>
              <LongitudeDegrees>-6.30575663410127162933349609375</LongitudeDegrees>
            </Position>
            <AltitudeMeters>363.20001220703125</AltitudeMeters>
            <DistanceMeters>NAN</DistanceMeters>
          </Trackpoint>
          <Trackpoint>
            <Time>2019-10-09T08:31:51.000Z</Time>
            <Position>
              <LatitudeDegrees>39.247977621853351593017578125</LatitudeDegrees>
              <LongitudeDegrees>-6.30565118975937366485595703125</LongitudeDegrees>
            </Position>
            <AltitudeMeters>362.20001220703125</AltitudeMeters>
            <DistanceMeters>NAN</DistanceMeters>
          </Trackpoint>
          <Trackpoint>
            <Time>2019-10-09T08:31:52.000Z</Time>
            <Position>
              <LatitudeDegrees>39.2479080520570278167724609375</LatitudeDegrees>
              <LongitudeDegrees>-6.3056167401373386383056640625</LongitudeDegrees>
            </Position>
            <AltitudeMeters>362.20001220703125</AltitudeMeters>
            <DistanceMeters>NAN</DistanceMeters>
          </Trackpoint>
          <Trackpoint>
            <Time>2019-10-09T08:31:56.000Z</Time>
            <Position>
              <LatitudeDegrees>39.2476217262446880340576171875</LatitudeDegrees>
              <LongitudeDegrees>-6.30547709763050079345703125</LongitudeDegrees>
            </Position>
            <AltitudeMeters>361.79998779296875</AltitudeMeters>
            <DistanceMeters>NAN</DistanceMeters>
          </Trackpoint>
          <Trackpoint>
            <Time>2019-10-09T08:32:00.000Z</Time>
            <Position>
              <LatitudeDegrees>39.24733397550880908966064453125</LatitudeDegrees>
              <LongitudeDegrees>-6.30533217452466487884521484375</LongitudeDegrees>
            </Position>
            <AltitudeMeters>361.20001220703125</AltitudeMeters>
            <DistanceMeters>NAN</DistanceMeters>
          </Trackpoint>
          <Trackpoint>
            <Time>2019-10-09T08:32:02.000Z</Time>
            <Position>
              <LatitudeDegrees>39.247192405164241790771484375</LatitudeDegrees>
              <LongitudeDegrees>-6.3052633590996265411376953125</LongitudeDegrees>
            </Position>
            <AltitudeMeters>360.600006103515625</AltitudeMeters>
            <DistanceMeters>NAN</DistanceMeters>
          </Trackpoint>
          <Trackpoint>
            <Time>2019-10-09T08:32:06.000Z</Time>
            <Position>
              <LatitudeDegrees>39.24692426808178424835205078125</LatitudeDegrees>
              <LongitudeDegrees>-6.305122710764408111572265625</LongitudeDegrees>
            </Position>
            <AltitudeMeters>361.20001220703125</AltitudeMeters>
            <DistanceMeters>NAN</DistanceMeters>
          </Trackpoint>
          <Trackpoint>
            <Time>2019-10-09T08:32:08.000Z</Time>
            <Position>
              <LatitudeDegrees>39.246793426573276519775390625</LatitudeDegrees>
              <LongitudeDegrees>-6.3050581701099872589111328125</LongitudeDegrees>
            </Position>
            <AltitudeMeters>360.600006103515625</AltitudeMeters>
            <DistanceMeters>NAN</DistanceMeters>
          </Trackpoint>
          <Trackpoint>
            <Time>2019-10-09T08:32:10.000Z</Time>
            <Position>
              <LatitudeDegrees>39.2466656863689422607421875</LatitudeDegrees>
              <LongitudeDegrees>-6.3049931265413761138916015625</LongitudeDegrees>
            </Position>
            <AltitudeMeters>360.20001220703125</AltitudeMeters>
            <DistanceMeters>NAN</DistanceMeters>
          </Trackpoint>
          <Trackpoint>
            <Time>2019-10-09T08:32:18.000Z</Time>
            <Position>
              <LatitudeDegrees>39.246157072484493255615234375</LatitudeDegrees>
              <LongitudeDegrees>-6.30474024452269077301025390625</LongitudeDegrees>
            </Position>
            <AltitudeMeters>360.79998779296875</AltitudeMeters>
            <DistanceMeters>NAN</DistanceMeters>
          </Trackpoint>
          <Trackpoint>
            <Time>2019-10-09T08:32:20.000Z</Time>
            <Position>
              <LatitudeDegrees>39.2460288293659687042236328125</LatitudeDegrees>
              <LongitudeDegrees>-6.3046749494969844818115234375</LongitudeDegrees>
            </Position>
            <AltitudeMeters>360.79998779296875</AltitudeMeters>
            <DistanceMeters>NAN</DistanceMeters>
          </Trackpoint>
          <Trackpoint>
            <Time>2019-10-09T08:32:24.000Z</Time>
            <Position>
              <LatitudeDegrees>39.2457711696624755859375</LatitudeDegrees>
              <LongitudeDegrees>-6.304546035826206207275390625</LongitudeDegrees>
            </Position>
            <AltitudeMeters>361</AltitudeMeters>
            <DistanceMeters>NAN</DistanceMeters>
          </Trackpoint>
          <Trackpoint>
            <Time>2019-10-09T08:32:30.000Z</Time>
            <Position>
              <LatitudeDegrees>39.2453884519636631011962890625</LatitudeDegrees>
              <LongitudeDegrees>-6.3043460436165332794189453125</LongitudeDegrees>
            </Position>
            <AltitudeMeters>361</AltitudeMeters>
            <DistanceMeters>NAN</DistanceMeters>
          </Trackpoint>
          <Trackpoint>
            <Time>2019-10-09T08:32:37.000Z</Time>
            <Position>
              <LatitudeDegrees>39.24494831822812557220458984375</LatitudeDegrees>
              <LongitudeDegrees>-6.30412316881120204925537109375</LongitudeDegrees>
            </Position>
            <AltitudeMeters>361.600006103515625</AltitudeMeters>
            <DistanceMeters>NAN</DistanceMeters>
          </Trackpoint>
          <Trackpoint>
            <Time>2019-10-09T08:32:39.000Z</Time>
            <Position>
              <LatitudeDegrees>39.24482493661344051361083984375</LatitudeDegrees>
              <LongitudeDegrees>-6.30406198091804981231689453125</LongitudeDegrees>
            </Position>
            <AltitudeMeters>361.600006103515625</AltitudeMeters>
            <DistanceMeters>NAN</DistanceMeters>
          </Trackpoint>
          <Trackpoint>
            <Time>2019-10-09T08:32:45.000Z</Time>
            <Position>
              <LatitudeDegrees>39.244456551969051361083984375</LatitudeDegrees>
              <LongitudeDegrees>-6.3038753159344196319580078125</LongitudeDegrees>
            </Position>
            <AltitudeMeters>362.20001220703125</AltitudeMeters>
            <DistanceMeters>NAN</DistanceMeters>
          </Trackpoint>
          <Trackpoint>
            <Time>2019-10-09T08:32:48.000Z</Time>
            <Position>
              <LatitudeDegrees>39.2442729882895946502685546875</LatitudeDegrees>
              <LongitudeDegrees>-6.30378135479986667633056640625</LongitudeDegrees>
            </Position>
            <AltitudeMeters>362.20001220703125</AltitudeMeters>
            <DistanceMeters>NAN</DistanceMeters>
          </Trackpoint>
          <Trackpoint>
            <Time>2019-10-09T08:32:56.000Z</Time>
            <Position>
              <LatitudeDegrees>39.24378423951566219329833984375</LatitudeDegrees>
              <LongitudeDegrees>-6.30353610031306743621826171875</LongitudeDegrees>
            </Position>
            <AltitudeMeters>362.79998779296875</AltitudeMeters>
            <DistanceMeters>NAN</DistanceMeters>
          </Trackpoint>
          <Trackpoint>
            <Time>2019-10-09T08:32:58.000Z</Time>
            <Position>
              <LatitudeDegrees>39.24366370774805545806884765625</LatitudeDegrees>
              <LongitudeDegrees>-6.3034749962389469146728515625</LongitudeDegrees>
            </Position>
            <AltitudeMeters>362.600006103515625</AltitudeMeters>
            <DistanceMeters>NAN</DistanceMeters>
          </Trackpoint>
          <Trackpoint>
            <Time>2019-10-09T08:33:01.000Z</Time>
            <Position>
              <LatitudeDegrees>39.2434793896973133087158203125</LatitudeDegrees>
              <LongitudeDegrees>-6.30338354967534542083740234375</LongitudeDegrees>
            </Position>
            <AltitudeMeters>363.20001220703125</AltitudeMeters>
            <DistanceMeters>NAN</DistanceMeters>
          </Trackpoint>
          <Trackpoint>
            <Time>2019-10-09T08:33:06.000Z</Time>
            <Position>
              <LatitudeDegrees>39.24316900782287120819091796875</LatitudeDegrees>
              <LongitudeDegrees>-6.30322479642927646636962890625</LongitudeDegrees>
            </Position>
            <AltitudeMeters>363</AltitudeMeters>
            <DistanceMeters>NAN</DistanceMeters>
          </Trackpoint>
          <Trackpoint>
            <Time>2019-10-09T08:33:14.000Z</Time>
            <Position>
              <LatitudeDegrees>39.2426707036793231964111328125</LatitudeDegrees>
              <LongitudeDegrees>-6.302975602447986602783203125</LongitudeDegrees>
            </Position>
            <AltitudeMeters>363.399993896484375</AltitudeMeters>
            <DistanceMeters>NAN</DistanceMeters>
          </Trackpoint>
          <Trackpoint>
            <Time>2019-10-09T08:33:16.000Z</Time>
            <Position>
              <LatitudeDegrees>39.24254472367465496063232421875</LatitudeDegrees>
              <LongitudeDegrees>-6.30291315726935863494873046875</LongitudeDegrees>
            </Position>
            <AltitudeMeters>363.20001220703125</AltitudeMeters>
            <DistanceMeters>NAN</DistanceMeters>
          </Trackpoint>
          <Trackpoint>
            <Time>2019-10-09T08:33:24.000Z</Time>
            <Position>
              <LatitudeDegrees>39.24203862436115741729736328125</LatitudeDegrees>
              <LongitudeDegrees>-6.30265700630843639373779296875</LongitudeDegrees>
            </Position>
            <AltitudeMeters>363.20001220703125</AltitudeMeters>
            <DistanceMeters>NAN</DistanceMeters>
          </Trackpoint>
          <Trackpoint>
            <Time>2019-10-09T08:33:25.000Z</Time>
            <Position>
              <LatitudeDegrees>39.2419750057160854339599609375</LatitudeDegrees>
              <LongitudeDegrees>-6.30262481980025768280029296875</LongitudeDegrees>
            </Position>
            <AltitudeMeters>362.79998779296875</AltitudeMeters>
            <DistanceMeters>NAN</DistanceMeters>
          </Trackpoint>
          <Trackpoint>
            <Time>2019-10-09T08:33:33.000Z</Time>
            <Position>
              <LatitudeDegrees>39.241461195051670074462890625</LatitudeDegrees>
              <LongitudeDegrees>-6.30236246623098850250244140625</LongitudeDegrees>
            </Position>
            <AltitudeMeters>362.79998779296875</AltitudeMeters>
            <DistanceMeters>NAN</DistanceMeters>
          </Trackpoint>
          <Trackpoint>
            <Time>2019-10-09T08:33:34.000Z</Time>
            <Position>
              <LatitudeDegrees>39.24139858223497867584228515625</LatitudeDegrees>
              <LongitudeDegrees>-6.30233128555119037628173828125</LongitudeDegrees>
            </Position>
            <AltitudeMeters>363</AltitudeMeters>
            <DistanceMeters>NAN</DistanceMeters>
          </Trackpoint>
          <Trackpoint>
            <Time>2019-10-09T08:33:42.000Z</Time>
            <Position>
              <LatitudeDegrees>39.2409081570804119110107421875</LatitudeDegrees>
              <LongitudeDegrees>-6.3020799122750759124755859375</LongitudeDegrees>
            </Position>
            <AltitudeMeters>363</AltitudeMeters>
            <DistanceMeters>NAN</DistanceMeters>
          </Trackpoint>
          <Trackpoint>
            <Time>2019-10-09T08:33:43.000Z</Time>
            <Position>
              <LatitudeDegrees>39.240846298635005950927734375</LatitudeDegrees>
              <LongitudeDegrees>-6.3020487315952777862548828125</LongitudeDegrees>
            </Position>
            <AltitudeMeters>363.20001220703125</AltitudeMeters>
            <DistanceMeters>NAN</DistanceMeters>
          </Trackpoint>
          <Trackpoint>
            <Time>2019-10-09T08:33:51.000Z</Time>
            <Position>
              <LatitudeDegrees>39.2403824441134929656982421875</LatitudeDegrees>
              <LongitudeDegrees>-6.3018140383064746856689453125</LongitudeDegrees>
            </Position>
            <AltitudeMeters>364.20001220703125</AltitudeMeters>
            <DistanceMeters>NAN</DistanceMeters>
          </Trackpoint>
          <Trackpoint>
            <Time>2019-10-09T08:33:55.000Z</Time>
            <Position>
              <LatitudeDegrees>39.240171723067760467529296875</LatitudeDegrees>
              <LongitudeDegrees>-6.30171127617359161376953125</LongitudeDegrees>
            </Position>
            <AltitudeMeters>365.20001220703125</AltitudeMeters>
            <DistanceMeters>NAN</DistanceMeters>
          </Trackpoint>
          <Trackpoint>
            <Time>2019-10-09T08:33:59.000Z</Time>
            <Position>
              <LatitudeDegrees>39.23996795900166034698486328125</LatitudeDegrees>
              <LongitudeDegrees>-6.301611699163913726806640625</LongitudeDegrees>
            </Position>
            <AltitudeMeters>366</AltitudeMeters>
            <DistanceMeters>NAN</DistanceMeters>
          </Trackpoint>
          <Trackpoint>
            <Time>2019-10-09T08:34:05.000Z</Time>
            <Position>
              <LatitudeDegrees>39.23966445028781890869140625</LatitudeDegrees>
              <LongitudeDegrees>-6.3014596514403820037841796875</LongitudeDegrees>
            </Position>
            <AltitudeMeters>366.20001220703125</AltitudeMeters>
            <DistanceMeters>NAN</DistanceMeters>
          </Trackpoint>
          <Trackpoint>
            <Time>2019-10-09T08:34:09.000Z</Time>
            <Position>
              <LatitudeDegrees>39.2394626140594482421875</LatitudeDegrees>
              <LongitudeDegrees>-6.3013605773448944091796875</LongitudeDegrees>
            </Position>
            <AltitudeMeters>366.399993896484375</AltitudeMeters>
            <DistanceMeters>NAN</DistanceMeters>
          </Trackpoint>
          <Trackpoint>
            <Time>2019-10-09T08:34:19.000Z</Time>
            <Position>
              <LatitudeDegrees>39.23893346451222896575927734375</LatitudeDegrees>
              <LongitudeDegrees>-6.30108389072120189666748046875</LongitudeDegrees>
            </Position>
            <AltitudeMeters>366.20001220703125</AltitudeMeters>
            <DistanceMeters>NAN</DistanceMeters>
          </Trackpoint>
          <Trackpoint>
            <Time>2019-10-09T08:34:28.000Z</Time>
            <Position>
              <LatitudeDegrees>39.238416217267513275146484375</LatitudeDegrees>
              <LongitudeDegrees>-6.30081466399133205413818359375</LongitudeDegrees>
            </Position>
            <AltitudeMeters>365.79998779296875</AltitudeMeters>
            <DistanceMeters>NAN</DistanceMeters>
          </Trackpoint>
          <Trackpoint>
            <Time>2019-10-09T08:34:35.000Z</Time>
            <Position>
              <LatitudeDegrees>39.23802687786519527435302734375</LatitudeDegrees>
              <LongitudeDegrees>-6.30057896487414836883544921875</LongitudeDegrees>
            </Position>
            <AltitudeMeters>366</AltitudeMeters>
            <DistanceMeters>NAN</DistanceMeters>
          </Trackpoint>
          <Trackpoint>
            <Time>2019-10-09T08:34:37.000Z</Time>
            <Position>
              <LatitudeDegrees>39.23791657201945781707763671875</LatitudeDegrees>
              <LongitudeDegrees>-6.30049891769886016845703125</LongitudeDegrees>
            </Position>
            <AltitudeMeters>365.79998779296875</AltitudeMeters>
            <DistanceMeters>NAN</DistanceMeters>
          </Trackpoint>
          <Trackpoint>
            <Time>2019-10-09T08:34:42.000Z</Time>
            <Position>
              <LatitudeDegrees>39.23763628117740154266357421875</LatitudeDegrees>
              <LongitudeDegrees>-6.30028299987316131591796875</LongitudeDegrees>
            </Position>
            <AltitudeMeters>365.20001220703125</AltitudeMeters>
            <DistanceMeters>NAN</DistanceMeters>
          </Trackpoint>
          <Trackpoint>
            <Time>2019-10-09T08:34:48.000Z</Time>
            <Position>
              <LatitudeDegrees>39.2373022623360157012939453125</LatitudeDegrees>
              <LongitudeDegrees>-6.29999608732759952545166015625</LongitudeDegrees>
            </Position>
            <AltitudeMeters>365</AltitudeMeters>
            <DistanceMeters>NAN</DistanceMeters>
          </Trackpoint>
          <Trackpoint>
            <Time>2019-10-09T08:34:49.000Z</Time>
            <Position>
              <LatitudeDegrees>39.237246774137020111083984375</LatitudeDegrees>
              <LongitudeDegrees>-6.2999475561082363128662109375</LongitudeDegrees>
            </Position>
            <AltitudeMeters>365.20001220703125</AltitudeMeters>
            <DistanceMeters>NAN</DistanceMeters>
          </Trackpoint>
          <Trackpoint>
            <Time>2019-10-09T08:34:56.000Z</Time>
            <Position>
              <LatitudeDegrees>39.2368499748408794403076171875</LatitudeDegrees>
              <LongitudeDegrees>-6.29959610290825366973876953125</LongitudeDegrees>
            </Position>
            <AltitudeMeters>364.399993896484375</AltitudeMeters>
            <DistanceMeters>NAN</DistanceMeters>
          </Trackpoint>
          <Trackpoint>
            <Time>2019-10-09T08:34:58.000Z</Time>
            <Position>
              <LatitudeDegrees>39.23673874698579311370849609375</LatitudeDegrees>
              <LongitudeDegrees>-6.2994996272027492523193359375</LongitudeDegrees>
            </Position>
            <AltitudeMeters>364.399993896484375</AltitudeMeters>
            <DistanceMeters>NAN</DistanceMeters>
          </Trackpoint>
          <Trackpoint>
            <Time>2019-10-09T08:35:02.000Z</Time>
            <Position>
              <LatitudeDegrees>39.23651553690433502197265625</LatitudeDegrees>
              <LongitudeDegrees>-6.29930810071527957916259765625</LongitudeDegrees>
            </Position>
            <AltitudeMeters>364.20001220703125</AltitudeMeters>
            <DistanceMeters>NAN</DistanceMeters>
          </Trackpoint>
          <Trackpoint>
            <Time>2019-10-09T08:35:08.000Z</Time>
            <Position>
              <LatitudeDegrees>39.23619710840284824371337890625</LatitudeDegrees>
              <LongitudeDegrees>-6.29902395419776439666748046875</LongitudeDegrees>
            </Position>
            <AltitudeMeters>364.600006103515625</AltitudeMeters>
            <DistanceMeters>NAN</DistanceMeters>
          </Trackpoint>
          <Trackpoint>
            <Time>2019-10-09T08:35:17.000Z</Time>
            <Position>
              <LatitudeDegrees>39.23572956584393978118896484375</LatitudeDegrees>
              <LongitudeDegrees>-6.2986051104962825775146484375</LongitudeDegrees>
            </Position>
            <AltitudeMeters>364.79998779296875</AltitudeMeters>
            <DistanceMeters>NAN</DistanceMeters>
          </Trackpoint>
          <Trackpoint>
            <Time>2019-10-09T08:35:18.000Z</Time>
            <Position>
              <LatitudeDegrees>39.2356761731207370758056640625</LatitudeDegrees>
              <LongitudeDegrees>-6.29856311716139316558837890625</LongitudeDegrees>
            </Position>
            <AltitudeMeters>365</AltitudeMeters>
            <DistanceMeters>NAN</DistanceMeters>
          </Trackpoint>
          <Trackpoint>
            <Time>2019-10-09T08:35:25.000Z</Time>
            <Position>
              <LatitudeDegrees>39.2353144101798534393310546875</LatitudeDegrees>
              <LongitudeDegrees>-6.29824946634471416473388671875</LongitudeDegrees>
            </Position>
            <AltitudeMeters>365.600006103515625</AltitudeMeters>
            <DistanceMeters>NAN</DistanceMeters>
          </Trackpoint>
          <Trackpoint>
            <Time>2019-10-09T08:35:29.000Z</Time>
            <Position>
              <LatitudeDegrees>39.235109388828277587890625</LatitudeDegrees>
              <LongitudeDegrees>-6.298064477741718292236328125</LongitudeDegrees>
            </Position>
            <AltitudeMeters>365.79998779296875</AltitudeMeters>
            <DistanceMeters>NAN</DistanceMeters>
          </Trackpoint>
          <Trackpoint>
            <Time>2019-10-09T08:35:38.000Z</Time>
            <Position>
              <LatitudeDegrees>39.2346344701945781707763671875</LatitudeDegrees>
              <LongitudeDegrees>-6.29766072146594524383544921875</LongitudeDegrees>
            </Position>
            <AltitudeMeters>365.399993896484375</AltitudeMeters>
            <DistanceMeters>NAN</DistanceMeters>
          </Trackpoint>
          <Trackpoint>
            <Time>2019-10-09T08:35:39.000Z</Time>
            <Position>
              <LatitudeDegrees>39.23458761535584926605224609375</LatitudeDegrees>
              <LongitudeDegrees>-6.2976254336535930633544921875</LongitudeDegrees>
            </Position>
            <AltitudeMeters>365.399993896484375</AltitudeMeters>
            <DistanceMeters>NAN</DistanceMeters>
          </Trackpoint>
          <Trackpoint>
            <Time>2019-10-09T08:35:41.000Z</Time>
            <Position>
              <LatitudeDegrees>39.23451720736920833587646484375</LatitudeDegrees>
              <LongitudeDegrees>-6.29758008755743503570556640625</LongitudeDegrees>
            </Position>
            <AltitudeMeters>366</AltitudeMeters>
            <DistanceMeters>NAN</DistanceMeters>
          </Trackpoint>
          <Trackpoint>
            <Time>2019-10-09T08:35:42.000Z</Time>
            <Position>
              <LatitudeDegrees>39.234484098851680755615234375</LatitudeDegrees>
              <LongitudeDegrees>-6.297566927969455718994140625</LongitudeDegrees>
            </Position>
            <AltitudeMeters>366.20001220703125</AltitudeMeters>
            <DistanceMeters>NAN</DistanceMeters>
          </Trackpoint>
          <Trackpoint>
            <Time>2019-10-09T08:35:45.000Z</Time>
            <Position>
              <LatitudeDegrees>39.234388209879398345947265625</LatitudeDegrees>
              <LongitudeDegrees>-6.29749492742121219635009765625</LongitudeDegrees>
            </Position>
            <AltitudeMeters>366</AltitudeMeters>
            <DistanceMeters>NAN</DistanceMeters>
          </Trackpoint>
          <Trackpoint>
            <Time>2019-10-09T08:35:46.000Z</Time>
            <Position>
              <LatitudeDegrees>39.23434688709676265716552734375</LatitudeDegrees>
              <LongitudeDegrees>-6.29746743477880954742431640625</LongitudeDegrees>
            </Position>
            <AltitudeMeters>365.600006103515625</AltitudeMeters>
            <DistanceMeters>NAN</DistanceMeters>
          </Trackpoint>
          <Trackpoint>
            <Time>2019-10-09T08:35:51.000Z</Time>
            <Position>
              <LatitudeDegrees>39.234090149402618408203125</LatitudeDegrees>
              <LongitudeDegrees>-6.29732997156679630279541015625</LongitudeDegrees>
            </Position>
            <AltitudeMeters>365.399993896484375</AltitudeMeters>
            <DistanceMeters>NAN</DistanceMeters>
          </Trackpoint>
          <Trackpoint>
            <Time>2019-10-09T08:35:56.000Z</Time>
            <Position>
              <LatitudeDegrees>39.23379988409578800201416015625</LatitudeDegrees>
              <LongitudeDegrees>-6.2971734814345836639404296875</LongitudeDegrees>
            </Position>
            <AltitudeMeters>364.20001220703125</AltitudeMeters>
            <DistanceMeters>NAN</DistanceMeters>
          </Trackpoint>
          <Trackpoint>
            <Time>2019-10-09T08:36:00.000Z</Time>
            <Position>
              <LatitudeDegrees>39.233562760055065155029296875</LatitudeDegrees>
              <LongitudeDegrees>-6.29703752696514129638671875</LongitudeDegrees>
            </Position>
            <AltitudeMeters>363.79998779296875</AltitudeMeters>
            <DistanceMeters>NAN</DistanceMeters>
          </Trackpoint>
          <Trackpoint>
            <Time>2019-10-09T08:36:04.000Z</Time>
            <Position>
              <LatitudeDegrees>39.233329407870769500732421875</LatitudeDegrees>
              <LongitudeDegrees>-6.29689863882958889007568359375</LongitudeDegrees>
            </Position>
            <AltitudeMeters>364</AltitudeMeters>
            <DistanceMeters>NAN</DistanceMeters>
          </Trackpoint>
          <Trackpoint>
            <Time>2019-10-09T08:36:07.000Z</Time>
            <Position>
              <LatitudeDegrees>39.23315607011318206787109375</LatitudeDegrees>
              <LongitudeDegrees>-6.29680844955146312713623046875</LongitudeDegrees>
            </Position>
            <AltitudeMeters>363.79998779296875</AltitudeMeters>
            <DistanceMeters>NAN</DistanceMeters>
          </Trackpoint>
          <Trackpoint>
            <Time>2019-10-09T08:36:16.000Z</Time>
            <Position>
              <LatitudeDegrees>39.23262365162372589111328125</LatitudeDegrees>
              <LongitudeDegrees>-6.29654073156416416168212890625</LongitudeDegrees>
            </Position>
            <AltitudeMeters>364</AltitudeMeters>
            <DistanceMeters>NAN</DistanceMeters>
          </Trackpoint>
          <Trackpoint>
            <Time>2019-10-09T08:36:25.000Z</Time>
            <Position>
              <LatitudeDegrees>39.23208511434495449066162109375</LatitudeDegrees>
              <LongitudeDegrees>-6.29625557921826839447021484375</LongitudeDegrees>
            </Position>
            <AltitudeMeters>363.79998779296875</AltitudeMeters>
            <DistanceMeters>NAN</DistanceMeters>
          </Trackpoint>
          <Trackpoint>
            <Time>2019-10-09T08:36:26.000Z</Time>
            <Position>
              <LatitudeDegrees>39.2320243455469608306884765625</LatitudeDegrees>
              <LongitudeDegrees>-6.29622506909072399139404296875</LongitudeDegrees>
            </Position>
            <AltitudeMeters>363.79998779296875</AltitudeMeters>
            <DistanceMeters>NAN</DistanceMeters>
          </Trackpoint>
          <Trackpoint>
            <Time>2019-10-09T08:36:35.000Z</Time>
            <Position>
              <LatitudeDegrees>39.2314798571169376373291015625</LatitudeDegrees>
              <LongitudeDegrees>-6.29595248959958553314208984375</LongitudeDegrees>
            </Position>
            <AltitudeMeters>363.79998779296875</AltitudeMeters>
            <DistanceMeters>NAN</DistanceMeters>
          </Trackpoint>
          <Trackpoint>
            <Time>2019-10-09T08:36:36.000Z</Time>
            <Position>
              <LatitudeDegrees>39.2314181663095951080322265625</LatitudeDegrees>
              <LongitudeDegrees>-6.2959202192723751068115234375</LongitudeDegrees>
            </Position>
            <AltitudeMeters>364</AltitudeMeters>
            <DistanceMeters>NAN</DistanceMeters>
          </Trackpoint>
          <Trackpoint>
            <Time>2019-10-09T08:36:45.000Z</Time>
            <Position>
              <LatitudeDegrees>39.230877868831157684326171875</LatitudeDegrees>
              <LongitudeDegrees>-6.29563339054584503173828125</LongitudeDegrees>
            </Position>
            <AltitudeMeters>364.20001220703125</AltitudeMeters>
            <DistanceMeters>NAN</DistanceMeters>
          </Trackpoint>
          <Trackpoint>
            <Time>2019-10-09T08:36:46.000Z</Time>
            <Position>
              <LatitudeDegrees>39.230817519128322601318359375</LatitudeDegrees>
              <LongitudeDegrees>-6.29560162313282489776611328125</LongitudeDegrees>
            </Position>
            <AltitudeMeters>363.79998779296875</AltitudeMeters>
            <DistanceMeters>NAN</DistanceMeters>
          </Trackpoint>
          <Trackpoint>
            <Time>2019-10-09T08:36:55.000Z</Time>
            <Position>
              <LatitudeDegrees>39.23028283752501010894775390625</LatitudeDegrees>
              <LongitudeDegrees>-6.29530590958893299102783203125</LongitudeDegrees>
            </Position>
            <AltitudeMeters>364</AltitudeMeters>
            <DistanceMeters>NAN</DistanceMeters>
          </Trackpoint>
          <Trackpoint>
            <Time>2019-10-09T08:36:56.000Z</Time>
            <Position>
              <LatitudeDegrees>39.23022332601249217987060546875</LatitudeDegrees>
              <LongitudeDegrees>-6.29527204670011997222900390625</LongitudeDegrees>
            </Position>
            <AltitudeMeters>364</AltitudeMeters>
            <DistanceMeters>NAN</DistanceMeters>
          </Trackpoint>
          <Trackpoint>
            <Time>2019-10-09T08:37:05.000Z</Time>
            <Position>
              <LatitudeDegrees>39.229697696864604949951171875</LatitudeDegrees>
              <LongitudeDegrees>-6.2949636764824390411376953125</LongitudeDegrees>
            </Position>
            <AltitudeMeters>364.399993896484375</AltitudeMeters>
            <DistanceMeters>NAN</DistanceMeters>
          </Trackpoint>
          <Trackpoint>
            <Time>2019-10-09T08:37:06.000Z</Time>
            <Position>
              <LatitudeDegrees>39.2296408675611019134521484375</LatitudeDegrees>
              <LongitudeDegrees>-6.29492419771850109100341796875</LongitudeDegrees>
            </Position>
            <AltitudeMeters>364.20001220703125</AltitudeMeters>
            <DistanceMeters>NAN</DistanceMeters>
          </Trackpoint>
          <Trackpoint>
            <Time>2019-10-09T08:37:12.000Z</Time>
            <Position>
              <LatitudeDegrees>39.22928974963724613189697265625</LatitudeDegrees>
              <LongitudeDegrees>-6.29471875727176666259765625</LongitudeDegrees>
            </Position>
            <AltitudeMeters>364.79998779296875</AltitudeMeters>
            <DistanceMeters>NAN</DistanceMeters>
          </Trackpoint>
          <Trackpoint>
            <Time>2019-10-09T08:37:15.000Z</Time>
            <Position>
              <LatitudeDegrees>39.2291128076612949371337890625</LatitudeDegrees>
              <LongitudeDegrees>-6.29462043754756450653076171875</LongitudeDegrees>
            </Position>
            <AltitudeMeters>365</AltitudeMeters>
            <DistanceMeters>NAN</DistanceMeters>
          </Trackpoint>
          <Trackpoint>
            <Time>2019-10-09T08:37:19.000Z</Time>
            <Position>
              <LatitudeDegrees>39.22888054512441158294677734375</LatitudeDegrees>
              <LongitudeDegrees>-6.29449655301868915557861328125</LongitudeDegrees>
            </Position>
            <AltitudeMeters>365.399993896484375</AltitudeMeters>
            <DistanceMeters>NAN</DistanceMeters>
          </Trackpoint>
          <Trackpoint>
            <Time>2019-10-09T08:37:25.000Z</Time>
            <Position>
              <LatitudeDegrees>39.22853303141891956329345703125</LatitudeDegrees>
              <LongitudeDegrees>-6.29430796019732952117919921875</LongitudeDegrees>
            </Position>
            <AltitudeMeters>365.399993896484375</AltitudeMeters>
            <DistanceMeters>NAN</DistanceMeters>
          </Trackpoint>
          <Trackpoint>
            <Time>2019-10-09T08:37:34.000Z</Time>
            <Position>
              <LatitudeDegrees>39.22801033593714237213134765625</LatitudeDegrees>
              <LongitudeDegrees>-6.2940262444317340850830078125</LongitudeDegrees>
            </Position>
            <AltitudeMeters>365.600006103515625</AltitudeMeters>
            <DistanceMeters>NAN</DistanceMeters>
          </Trackpoint>
          <Trackpoint>
            <Time>2019-10-09T08:37:36.000Z</Time>
            <Position>
              <LatitudeDegrees>39.227893240749835968017578125</LatitudeDegrees>
              <LongitudeDegrees>-6.293962709605693817138671875</LongitudeDegrees>
            </Position>
            <AltitudeMeters>366.399993896484375</AltitudeMeters>
            <DistanceMeters>NAN</DistanceMeters>
          </Trackpoint>
          <Trackpoint>
            <Time>2019-10-09T08:37:45.000Z</Time>
            <Position>
              <LatitudeDegrees>39.2273725569248199462890625</LatitudeDegrees>
              <LongitudeDegrees>-6.293677724897861480712890625</LongitudeDegrees>
            </Position>
            <AltitudeMeters>366.20001220703125</AltitudeMeters>
            <DistanceMeters>NAN</DistanceMeters>
          </Trackpoint>
          <Trackpoint>
            <Time>2019-10-09T08:37:46.000Z</Time>
            <Position>
              <LatitudeDegrees>39.22731363214552402496337890625</LatitudeDegrees>
              <LongitudeDegrees>-6.29364578984677791595458984375</LongitudeDegrees>
            </Position>
            <AltitudeMeters>366.20001220703125</AltitudeMeters>
            <DistanceMeters>NAN</DistanceMeters>
          </Trackpoint>
          <Trackpoint>
            <Time>2019-10-09T08:37:48.000Z</Time>
            <Position>
              <LatitudeDegrees>39.227197878062725067138671875</LatitudeDegrees>
              <LongitudeDegrees>-6.29358259029686450958251953125</LongitudeDegrees>
            </Position>
            <AltitudeMeters>366.399993896484375</AltitudeMeters>
            <DistanceMeters>NAN</DistanceMeters>
          </Trackpoint>
          <Trackpoint>
            <Time>2019-10-09T08:37:57.000Z</Time>
            <Position>
              <LatitudeDegrees>39.2266763560473918914794921875</LatitudeDegrees>
              <LongitudeDegrees>-6.29330045543611049652099609375</LongitudeDegrees>
            </Position>
            <AltitudeMeters>366.79998779296875</AltitudeMeters>
            <DistanceMeters>NAN</DistanceMeters>
          </Trackpoint>
          <Trackpoint>
            <Time>2019-10-09T08:37:58.000Z</Time>
            <Position>
              <LatitudeDegrees>39.226619862020015716552734375</LatitudeDegrees>
              <LongitudeDegrees>-6.2932705320417881011962890625</LongitudeDegrees>
            </Position>
            <AltitudeMeters>366.79998779296875</AltitudeMeters>
            <DistanceMeters>NAN</DistanceMeters>
          </Trackpoint>
          <Trackpoint>
            <Time>2019-10-09T08:38:07.000Z</Time>
            <Position>
              <LatitudeDegrees>39.22610831446945667266845703125</LatitudeDegrees>
              <LongitudeDegrees>-6.29299384541809558868408203125</LongitudeDegrees>
            </Position>
            <AltitudeMeters>367</AltitudeMeters>
            <DistanceMeters>NAN</DistanceMeters>
          </Trackpoint>
          <Trackpoint>
            <Time>2019-10-09T08:38:08.000Z</Time>
            <Position>
              <LatitudeDegrees>39.2260510660707950592041015625</LatitudeDegrees>
              <LongitudeDegrees>-6.29296333529055118560791015625</LongitudeDegrees>
            </Position>
            <AltitudeMeters>366.79998779296875</AltitudeMeters>
            <DistanceMeters>NAN</DistanceMeters>
          </Trackpoint>
          <Trackpoint>
            <Time>2019-10-09T08:38:14.000Z</Time>
            <Position>
              <LatitudeDegrees>39.22570548020303249359130859375</LatitudeDegrees>
              <LongitudeDegrees>-6.2927770055830478668212890625</LongitudeDegrees>
            </Position>
            <AltitudeMeters>367.79998779296875</AltitudeMeters>
            <DistanceMeters>NAN</DistanceMeters>
          </Trackpoint>
          <Trackpoint>
            <Time>2019-10-09T08:38:22.000Z</Time>
            <Position>
              <LatitudeDegrees>39.22525201924145221710205078125</LatitudeDegrees>
              <LongitudeDegrees>-6.29252864979207515716552734375</LongitudeDegrees>
            </Position>
            <AltitudeMeters>367.79998779296875</AltitudeMeters>
            <DistanceMeters>NAN</DistanceMeters>
          </Trackpoint>
          <Trackpoint>
            <Time>2019-10-09T08:38:31.000Z</Time>
            <Position>
              <LatitudeDegrees>39.22473929822444915771484375</LatitudeDegrees>
              <LongitudeDegrees>-6.29225380718708038330078125</LongitudeDegrees>
            </Position>
            <AltitudeMeters>368.399993896484375</AltitudeMeters>
            <DistanceMeters>NAN</DistanceMeters>
          </Trackpoint>
          <Trackpoint>
            <Time>2019-10-09T08:38:40.000Z</Time>
            <Position>
              <LatitudeDegrees>39.224229343235492706298828125</LatitudeDegrees>
              <LongitudeDegrees>-6.29197175614535808563232421875</LongitudeDegrees>
            </Position>
            <AltitudeMeters>368.600006103515625</AltitudeMeters>
            <DistanceMeters>NAN</DistanceMeters>
          </Trackpoint>
          <Trackpoint>
            <Time>2019-10-09T08:38:43.000Z</Time>
            <Position>
              <LatitudeDegrees>39.22405893914401531219482421875</LatitudeDegrees>
              <LongitudeDegrees>-6.29188106395304203033447265625</LongitudeDegrees>
            </Position>
            <AltitudeMeters>369.20001220703125</AltitudeMeters>
            <DistanceMeters>NAN</DistanceMeters>
          </Trackpoint>
          <Trackpoint>
            <Time>2019-10-09T08:38:52.000Z</Time>
            <Position>
              <LatitudeDegrees>39.22354093752801418304443359375</LatitudeDegrees>
              <LongitudeDegrees>-6.2916000187397003173828125</LongitudeDegrees>
            </Position>
            <AltitudeMeters>369.20001220703125</AltitudeMeters>
            <DistanceMeters>NAN</DistanceMeters>
          </Trackpoint>
          <Trackpoint>
            <Time>2019-10-09T08:38:55.000Z</Time>
            <Position>
              <LatitudeDegrees>39.223366677761077880859375</LatitudeDegrees>
              <LongitudeDegrees>-6.2915049679577350616455078125</LongitudeDegrees>
            </Position>
            <AltitudeMeters>369.600006103515625</AltitudeMeters>
            <DistanceMeters>NAN</DistanceMeters>
          </Trackpoint>
          <Trackpoint>
            <Time>2019-10-09T08:39:04.000Z</Time>
            <Position>
              <LatitudeDegrees>39.22285060398280620574951171875</LatitudeDegrees>
              <LongitudeDegrees>-6.29122509621083736419677734375</LongitudeDegrees>
            </Position>
            <AltitudeMeters>369.600006103515625</AltitudeMeters>
            <DistanceMeters>NAN</DistanceMeters>
          </Trackpoint>
          <Trackpoint>
            <Time>2019-10-09T08:39:06.000Z</Time>
            <Position>
              <LatitudeDegrees>39.22273702919483184814453125</LatitudeDegrees>
              <LongitudeDegrees>-6.2911609746515750885009765625</LongitudeDegrees>
            </Position>
            <AltitudeMeters>370.20001220703125</AltitudeMeters>
            <DistanceMeters>NAN</DistanceMeters>
          </Trackpoint>
          <Trackpoint>
            <Time>2019-10-09T08:39:12.000Z</Time>
            <Position>
              <LatitudeDegrees>39.22239102423191070556640625</LatitudeDegrees>
              <LongitudeDegrees>-6.29097414202988147735595703125</LongitudeDegrees>
            </Position>
            <AltitudeMeters>370.399993896484375</AltitudeMeters>
            <DistanceMeters>NAN</DistanceMeters>
          </Trackpoint>
          <Trackpoint>
            <Time>2019-10-09T08:39:17.000Z</Time>
            <Position>
              <LatitudeDegrees>39.22209925018250942230224609375</LatitudeDegrees>
              <LongitudeDegrees>-6.290813796222209930419921875</LongitudeDegrees>
            </Position>
            <AltitudeMeters>370.20001220703125</AltitudeMeters>
            <DistanceMeters>NAN</DistanceMeters>
          </Trackpoint>
          <Trackpoint>
            <Time>2019-10-09T08:39:26.000Z</Time>
            <Position>
              <LatitudeDegrees>39.22156834043562412261962890625</LatitudeDegrees>
              <LongitudeDegrees>-6.290524788200855255126953125</LongitudeDegrees>
            </Position>
            <AltitudeMeters>370.600006103515625</AltitudeMeters>
            <DistanceMeters>NAN</DistanceMeters>
          </Trackpoint>
          <Trackpoint>
            <Time>2019-10-09T08:39:35.000Z</Time>
            <Position>
              <LatitudeDegrees>39.22103525139391422271728515625</LatitudeDegrees>
              <LongitudeDegrees>-6.29023754037916660308837890625</LongitudeDegrees>
            </Position>
            <AltitudeMeters>370.79998779296875</AltitudeMeters>
            <DistanceMeters>NAN</DistanceMeters>
          </Trackpoint>
          <Trackpoint>
            <Time>2019-10-09T08:39:37.000Z</Time>
            <Position>
              <LatitudeDegrees>39.22091706655919551849365234375</LatitudeDegrees>
              <LongitudeDegrees>-6.2901732511818408966064453125</LongitudeDegrees>
            </Position>
            <AltitudeMeters>370.79998779296875</AltitudeMeters>
            <DistanceMeters>NAN</DistanceMeters>
          </Trackpoint>
          <Trackpoint>
            <Time>2019-10-09T08:39:46.000Z</Time>
            <Position>
              <LatitudeDegrees>39.22038230113685131072998046875</LatitudeDegrees>
              <LongitudeDegrees>-6.28988466225564479827880859375</LongitudeDegrees>
            </Position>
            <AltitudeMeters>370.399993896484375</AltitudeMeters>
            <DistanceMeters>NAN</DistanceMeters>
          </Trackpoint>
          <Trackpoint>
            <Time>2019-10-09T08:39:47.000Z</Time>
            <Position>
              <LatitudeDegrees>39.22032312490046024322509765625</LatitudeDegrees>
              <LongitudeDegrees>-6.289851553738117218017578125</LongitudeDegrees>
            </Position>
            <AltitudeMeters>370.399993896484375</AltitudeMeters>
            <DistanceMeters>NAN</DistanceMeters>
          </Trackpoint>
          <Trackpoint>
            <Time>2019-10-09T08:39:56.000Z</Time>
            <Position>
              <LatitudeDegrees>39.2197827436029911041259765625</LatitudeDegrees>
              <LongitudeDegrees>-6.28955642692744731903076171875</LongitudeDegrees>
            </Position>
            <AltitudeMeters>370.79998779296875</AltitudeMeters>
            <DistanceMeters>NAN</DistanceMeters>
          </Trackpoint>
          <Trackpoint>
            <Time>2019-10-09T08:39:57.000Z</Time>
            <Position>
              <LatitudeDegrees>39.21972314827144145965576171875</LatitudeDegrees>
              <LongitudeDegrees>-6.289522312581539154052734375</LongitudeDegrees>
            </Position>
            <AltitudeMeters>370.79998779296875</AltitudeMeters>
            <DistanceMeters>NAN</DistanceMeters>
          </Trackpoint>
          <Trackpoint>
            <Time>2019-10-09T08:40:02.000Z</Time>
            <Position>
              <LatitudeDegrees>39.21942961402237415313720703125</LatitudeDegrees>
              <LongitudeDegrees>-6.28936263732612133026123046875</LongitudeDegrees>
            </Position>
            <AltitudeMeters>371.399993896484375</AltitudeMeters>
            <DistanceMeters>NAN</DistanceMeters>
          </Trackpoint>
          <Trackpoint>
            <Time>2019-10-09T08:40:06.000Z</Time>
            <Position>
              <LatitudeDegrees>39.21919492073357105255126953125</LatitudeDegrees>
              <LongitudeDegrees>-6.28924076445400714874267578125</LongitudeDegrees>
            </Position>
            <AltitudeMeters>371</AltitudeMeters>
            <DistanceMeters>NAN</DistanceMeters>
          </Trackpoint>
          <Trackpoint>
            <Time>2019-10-09T08:40:14.000Z</Time>
            <Position>
              <LatitudeDegrees>39.21872704289853572845458984375</LatitudeDegrees>
              <LongitudeDegrees>-6.288987882435321807861328125</LongitudeDegrees>
            </Position>
            <AltitudeMeters>371.600006103515625</AltitudeMeters>
            <DistanceMeters>NAN</DistanceMeters>
          </Trackpoint>
          <Trackpoint>
            <Time>2019-10-09T08:40:18.000Z</Time>
            <Position>
              <LatitudeDegrees>39.21849017031490802764892578125</LatitudeDegrees>
              <LongitudeDegrees>-6.28886081278324127197265625</LongitudeDegrees>
            </Position>
            <AltitudeMeters>371.600006103515625</AltitudeMeters>
            <DistanceMeters>NAN</DistanceMeters>
          </Trackpoint>
          <Trackpoint>
            <Time>2019-10-09T08:40:25.000Z</Time>
            <Position>
              <LatitudeDegrees>39.2180778644979000091552734375</LatitudeDegrees>
              <LongitudeDegrees>-6.28863911144435405731201171875</LongitudeDegrees>
            </Position>
            <AltitudeMeters>371.399993896484375</AltitudeMeters>
            <DistanceMeters>NAN</DistanceMeters>
          </Trackpoint>
          <Trackpoint>
            <Time>2019-10-09T08:40:28.000Z</Time>
            <Position>
              <LatitudeDegrees>39.21790461055934429168701171875</LatitudeDegrees>
              <LongitudeDegrees>-6.288546659052371978759765625</LongitudeDegrees>
            </Position>
            <AltitudeMeters>371.399993896484375</AltitudeMeters>
            <DistanceMeters>NAN</DistanceMeters>
          </Trackpoint>
          <Trackpoint>
            <Time>2019-10-09T08:40:37.000Z</Time>
            <Position>
              <LatitudeDegrees>39.21737990342080593109130859375</LatitudeDegrees>
              <LongitudeDegrees>-6.28825941123068332672119140625</LongitudeDegrees>
            </Position>
            <AltitudeMeters>372</AltitudeMeters>
            <DistanceMeters>NAN</DistanceMeters>
          </Trackpoint>
          <Trackpoint>
            <Time>2019-10-09T08:40:43.000Z</Time>
            <Position>
              <LatitudeDegrees>39.2170299589633941650390625</LatitudeDegrees>
              <LongitudeDegrees>-6.28807090222835540771484375</LongitudeDegrees>
            </Position>
            <AltitudeMeters>372.399993896484375</AltitudeMeters>
            <DistanceMeters>NAN</DistanceMeters>
          </Trackpoint>
          <Trackpoint>
            <Time>2019-10-09T08:40:45.000Z</Time>
            <Position>
              <LatitudeDegrees>39.2169131152331829071044921875</LatitudeDegrees>
              <LongitudeDegrees>-6.2880077026784420013427734375</LongitudeDegrees>
            </Position>
            <AltitudeMeters>372.399993896484375</AltitudeMeters>
            <DistanceMeters>NAN</DistanceMeters>
          </Trackpoint>
          <Trackpoint>
            <Time>2019-10-09T08:40:47.000Z</Time>
            <Position>
              <LatitudeDegrees>39.2167950980365276336669921875</LatitudeDegrees>
              <LongitudeDegrees>-6.287942826747894287109375</LongitudeDegrees>
            </Position>
            <AltitudeMeters>372.399993896484375</AltitudeMeters>
            <DistanceMeters>NAN</DistanceMeters>
          </Trackpoint>
          <Trackpoint>
            <Time>2019-10-09T08:40:56.000Z</Time>
            <Position>
              <LatitudeDegrees>39.2162707261741161346435546875</LatitudeDegrees>
              <LongitudeDegrees>-6.28765759058296680450439453125</LongitudeDegrees>
            </Position>
            <AltitudeMeters>373</AltitudeMeters>
            <DistanceMeters>NAN</DistanceMeters>
          </Trackpoint>
          <Trackpoint>
            <Time>2019-10-09T08:40:58.000Z</Time>
            <Position>
              <LatitudeDegrees>39.21615564264357089996337890625</LatitudeDegrees>
              <LongitudeDegrees>-6.28759841434657573699951171875</LongitudeDegrees>
            </Position>
            <AltitudeMeters>373</AltitudeMeters>
            <DistanceMeters>NAN</DistanceMeters>
          </Trackpoint>
          <Trackpoint>
            <Time>2019-10-09T08:41:02.000Z</Time>
            <Position>
              <LatitudeDegrees>39.21592765487730503082275390625</LatitudeDegrees>
              <LongitudeDegrees>-6.2874746136367321014404296875</LongitudeDegrees>
            </Position>
            <AltitudeMeters>373.600006103515625</AltitudeMeters>
            <DistanceMeters>NAN</DistanceMeters>
          </Trackpoint>
          <Trackpoint>
            <Time>2019-10-09T08:41:05.000Z</Time>
            <Position>
              <LatitudeDegrees>39.21576236374676227569580078125</LatitudeDegrees>
              <LongitudeDegrees>-6.28738434053957462310791015625</LongitudeDegrees>
            </Position>
            <AltitudeMeters>373.79998779296875</AltitudeMeters>
            <DistanceMeters>NAN</DistanceMeters>
          </Trackpoint>
          <Trackpoint>
            <Time>2019-10-09T08:41:11.000Z</Time>
            <Position>
              <LatitudeDegrees>39.21543479897081851959228515625</LatitudeDegrees>
              <LongitudeDegrees>-6.28720362670719623565673828125</LongitudeDegrees>
            </Position>
            <AltitudeMeters>374.600006103515625</AltitudeMeters>
            <DistanceMeters>NAN</DistanceMeters>
          </Trackpoint>
          <Trackpoint>
            <Time>2019-10-09T08:41:14.000Z</Time>
            <Position>
              <LatitudeDegrees>39.21527168713510036468505859375</LatitudeDegrees>
              <LongitudeDegrees>-6.287105642259120941162109375</LongitudeDegrees>
            </Position>
            <AltitudeMeters>374.600006103515625</AltitudeMeters>
            <DistanceMeters>NAN</DistanceMeters>
          </Trackpoint>
          <Trackpoint>
            <Time>2019-10-09T08:41:22.000Z</Time>
            <Position>
              <LatitudeDegrees>39.2148434557020664215087890625</LatitudeDegrees>
              <LongitudeDegrees>-6.2867809273302555084228515625</LongitudeDegrees>
            </Position>
            <AltitudeMeters>375</AltitudeMeters>
            <DistanceMeters>NAN</DistanceMeters>
          </Trackpoint>
          <Trackpoint>
            <Time>2019-10-09T08:41:31.000Z</Time>
            <Position>
              <LatitudeDegrees>39.214397370815277099609375</LatitudeDegrees>
              <LongitudeDegrees>-6.28634884022176265716552734375</LongitudeDegrees>
            </Position>
            <AltitudeMeters>375.399993896484375</AltitudeMeters>
            <DistanceMeters>NAN</DistanceMeters>
          </Trackpoint>
          <Trackpoint>
            <Time>2019-10-09T08:41:33.000Z</Time>
            <Position>
              <LatitudeDegrees>39.21430022455751895904541015625</LatitudeDegrees>
              <LongitudeDegrees>-6.286249347031116485595703125</LongitudeDegrees>
            </Position>
            <AltitudeMeters>375.399993896484375</AltitudeMeters>
            <DistanceMeters>NAN</DistanceMeters>
          </Trackpoint>
          <Trackpoint>
            <Time>2019-10-09T08:41:39.000Z</Time>
            <Position>
              <LatitudeDegrees>39.21400954015552997589111328125</LatitudeDegrees>
              <LongitudeDegrees>-6.28595673479139804840087890625</LongitudeDegrees>
            </Position>
            <AltitudeMeters>375.600006103515625</AltitudeMeters>
            <DistanceMeters>NAN</DistanceMeters>
          </Trackpoint>
          <Trackpoint>
            <Time>2019-10-09T08:41:45.000Z</Time>
            <Position>
              <LatitudeDegrees>39.2137219570577144622802734375</LatitudeDegrees>
              <LongitudeDegrees>-6.28566236235201358795166015625</LongitudeDegrees>
            </Position>
            <AltitudeMeters>376.20001220703125</AltitudeMeters>
            <DistanceMeters>NAN</DistanceMeters>
          </Trackpoint>
          <Trackpoint>
            <Time>2019-10-09T08:41:54.000Z</Time>
            <Position>
              <LatitudeDegrees>39.21328886412084102630615234375</LatitudeDegrees>
              <LongitudeDegrees>-6.28521828912198543548583984375</LongitudeDegrees>
            </Position>
            <AltitudeMeters>376.20001220703125</AltitudeMeters>
            <DistanceMeters>NAN</DistanceMeters>
          </Trackpoint>
          <Trackpoint>
            <Time>2019-10-09T08:41:56.000Z</Time>
            <Position>
              <LatitudeDegrees>39.21319398097693920135498046875</LatitudeDegrees>
              <LongitudeDegrees>-6.28511971794068813323974609375</LongitudeDegrees>
            </Position>
            <AltitudeMeters>376.399993896484375</AltitudeMeters>
            <DistanceMeters>NAN</DistanceMeters>
          </Trackpoint>
          <Trackpoint>
            <Time>2019-10-09T08:42:02.000Z</Time>
            <Position>
              <LatitudeDegrees>39.21290933154523372650146484375</LatitudeDegrees>
              <LongitudeDegrees>-6.284825094044208526611328125</LongitudeDegrees>
            </Position>
            <AltitudeMeters>376.600006103515625</AltitudeMeters>
            <DistanceMeters>NAN</DistanceMeters>
          </Trackpoint>
          <Trackpoint>
            <Time>2019-10-09T08:42:08.000Z</Time>
            <Position>
              <LatitudeDegrees>39.2126204073429107666015625</LatitudeDegrees>
              <LongitudeDegrees>-6.2845282070338726043701171875</LongitudeDegrees>
            </Position>
            <AltitudeMeters>376.600006103515625</AltitudeMeters>
            <DistanceMeters>NAN</DistanceMeters>
          </Trackpoint>
          <Trackpoint>
            <Time>2019-10-09T08:42:13.000Z</Time>
            <Position>
              <LatitudeDegrees>39.212378673255443572998046875</LatitudeDegrees>
              <LongitudeDegrees>-6.2842790968716144561767578125</LongitudeDegrees>
            </Position>
            <AltitudeMeters>377.600006103515625</AltitudeMeters>
            <DistanceMeters>NAN</DistanceMeters>
          </Trackpoint>
          <Trackpoint>
            <Time>2019-10-09T08:42:22.000Z</Time>
            <Position>
              <LatitudeDegrees>39.2119456641376018524169921875</LatitudeDegrees>
              <LongitudeDegrees>-6.28383141942322254180908203125</LongitudeDegrees>
            </Position>
            <AltitudeMeters>377.20001220703125</AltitudeMeters>
            <DistanceMeters>NAN</DistanceMeters>
          </Trackpoint>
          <Trackpoint>
            <Time>2019-10-09T08:42:31.000Z</Time>
            <Position>
              <LatitudeDegrees>39.21151307411491870880126953125</LatitudeDegrees>
              <LongitudeDegrees>-6.28339103423058986663818359375</LongitudeDegrees>
            </Position>
            <AltitudeMeters>377.79998779296875</AltitudeMeters>
            <DistanceMeters>NAN</DistanceMeters>
          </Trackpoint>
          <Trackpoint>
            <Time>2019-10-09T08:42:34.000Z</Time>
            <Position>
              <LatitudeDegrees>39.21136714518070220947265625</LatitudeDegrees>
              <LongitudeDegrees>-6.28323831595480442047119140625</LongitudeDegrees>
            </Position>
            <AltitudeMeters>378</AltitudeMeters>
            <DistanceMeters>NAN</DistanceMeters>
          </Trackpoint>
          <Trackpoint>
            <Time>2019-10-09T08:42:43.000Z</Time>
            <Position>
              <LatitudeDegrees>39.210930280387401580810546875</LatitudeDegrees>
              <LongitudeDegrees>-6.28279524855315685272216796875</LongitudeDegrees>
            </Position>
            <AltitudeMeters>378.600006103515625</AltitudeMeters>
            <DistanceMeters>NAN</DistanceMeters>
          </Trackpoint>
          <Trackpoint>
            <Time>2019-10-09T08:42:45.000Z</Time>
            <Position>
              <LatitudeDegrees>39.21083112247288227081298828125</LatitudeDegrees>
              <LongitudeDegrees>-6.2826955877244472503662109375</LongitudeDegrees>
            </Position>
            <AltitudeMeters>378.79998779296875</AltitudeMeters>
            <DistanceMeters>NAN</DistanceMeters>
          </Trackpoint>
          <Trackpoint>
            <Time>2019-10-09T08:42:54.000Z</Time>
            <Position>
              <LatitudeDegrees>39.210389815270900726318359375</LatitudeDegrees>
              <LongitudeDegrees>-6.2822486646473407745361328125</LongitudeDegrees>
            </Position>
            <AltitudeMeters>379.600006103515625</AltitudeMeters>
            <DistanceMeters>NAN</DistanceMeters>
          </Trackpoint>
          <Trackpoint>
            <Time>2019-10-09T08:42:55.000Z</Time>
            <Position>
              <LatitudeDegrees>39.210336841642856597900390625</LatitudeDegrees>
              <LongitudeDegrees>-6.28220331855118274688720703125</LongitudeDegrees>
            </Position>
            <AltitudeMeters>379.600006103515625</AltitudeMeters>
            <DistanceMeters>NAN</DistanceMeters>
          </Trackpoint>
          <Trackpoint>
            <Time>2019-10-09T08:43:02.000Z</Time>
            <Position>
              <LatitudeDegrees>39.209956638514995574951171875</LatitudeDegrees>
              <LongitudeDegrees>-6.28190995194017887115478515625</LongitudeDegrees>
            </Position>
            <AltitudeMeters>380</AltitudeMeters>
            <DistanceMeters>NAN</DistanceMeters>
          </Trackpoint>
          <Trackpoint>
            <Time>2019-10-09T08:43:05.000Z</Time>
            <Position>
              <LatitudeDegrees>39.20978774316608905792236328125</LatitudeDegrees>
              <LongitudeDegrees>-6.28180853091180324554443359375</LongitudeDegrees>
            </Position>
            <AltitudeMeters>380.79998779296875</AltitudeMeters>
            <DistanceMeters>NAN</DistanceMeters>
          </Trackpoint>
          <Trackpoint>
            <Time>2019-10-09T08:43:14.000Z</Time>
            <Position>
              <LatitudeDegrees>39.20927326194941997528076171875</LatitudeDegrees>
              <LongitudeDegrees>-6.28152287565171718597412109375</LongitudeDegrees>
            </Position>
            <AltitudeMeters>380.600006103515625</AltitudeMeters>
            <DistanceMeters>NAN</DistanceMeters>
          </Trackpoint>
          <Trackpoint>
            <Time>2019-10-09T08:43:15.000Z</Time>
            <Position>
              <LatitudeDegrees>39.20921727083623409271240234375</LatitudeDegrees>
              <LongitudeDegrees>-6.28149270080029964447021484375</LongitudeDegrees>
            </Position>
            <AltitudeMeters>381</AltitudeMeters>
            <DistanceMeters>NAN</DistanceMeters>
          </Trackpoint>
          <Trackpoint>
            <Time>2019-10-09T08:43:24.000Z</Time>
            <Position>
              <LatitudeDegrees>39.20869298279285430908203125</LatitudeDegrees>
              <LongitudeDegrees>-6.2812173552811145782470703125</LongitudeDegrees>
            </Position>
            <AltitudeMeters>381.399993896484375</AltitudeMeters>
            <DistanceMeters>NAN</DistanceMeters>
          </Trackpoint>
          <Trackpoint>
            <Time>2019-10-09T08:43:27.000Z</Time>
            <Position>
              <LatitudeDegrees>39.2085178010165691375732421875</LatitudeDegrees>
              <LongitudeDegrees>-6.2811207957565784454345703125</LongitudeDegrees>
            </Position>
            <AltitudeMeters>381.600006103515625</AltitudeMeters>
            <DistanceMeters>NAN</DistanceMeters>
          </Trackpoint>
          <Trackpoint>
            <Time>2019-10-09T08:43:35.000Z</Time>
            <Position>
              <LatitudeDegrees>39.20804120600223541259765625</LatitudeDegrees>
              <LongitudeDegrees>-6.2808706797659397125244140625</LongitudeDegrees>
            </Position>
            <AltitudeMeters>382.20001220703125</AltitudeMeters>
            <DistanceMeters>NAN</DistanceMeters>
          </Trackpoint>
          <Trackpoint>
            <Time>2019-10-09T08:43:38.000Z</Time>
            <Position>
              <LatitudeDegrees>39.2078653536736965179443359375</LatitudeDegrees>
              <LongitudeDegrees>-6.28077755682170391082763671875</LongitudeDegrees>
            </Position>
            <AltitudeMeters>381.79998779296875</AltitudeMeters>
            <DistanceMeters>NAN</DistanceMeters>
          </Trackpoint>
          <Trackpoint>
            <Time>2019-10-09T08:43:47.000Z</Time>
            <Position>
              <LatitudeDegrees>39.20735229738056659698486328125</LatitudeDegrees>
              <LongitudeDegrees>-6.28050514496862888336181640625</LongitudeDegrees>
            </Position>
            <AltitudeMeters>382.399993896484375</AltitudeMeters>
            <DistanceMeters>NAN</DistanceMeters>
          </Trackpoint>
          <Trackpoint>
            <Time>2019-10-09T08:43:56.000Z</Time>
            <Position>
              <LatitudeDegrees>39.20684234239161014556884765625</LatitudeDegrees>
              <LongitudeDegrees>-6.28023088909685611724853515625</LongitudeDegrees>
            </Position>
            <AltitudeMeters>382.79998779296875</AltitudeMeters>
            <DistanceMeters>NAN</DistanceMeters>
          </Trackpoint>
          <Trackpoint>
            <Time>2019-10-09T08:43:58.000Z</Time>
            <Position>
              <LatitudeDegrees>39.20672784559428691864013671875</LatitudeDegrees>
              <LongitudeDegrees>-6.28017087467014789581298828125</LongitudeDegrees>
            </Position>
            <AltitudeMeters>382.79998779296875</AltitudeMeters>
            <DistanceMeters>NAN</DistanceMeters>
          </Trackpoint>
          <Trackpoint>
            <Time>2019-10-09T08:44:06.000Z</Time>
            <Position>
              <LatitudeDegrees>39.206270612776279449462890625</LatitudeDegrees>
              <LongitudeDegrees>-6.2799325771629810333251953125</LongitudeDegrees>
            </Position>
            <AltitudeMeters>383</AltitudeMeters>
            <DistanceMeters>NAN</DistanceMeters>
          </Trackpoint>
          <Trackpoint>
            <Time>2019-10-09T08:44:07.000Z</Time>
            <Position>
              <LatitudeDegrees>39.20621286146342754364013671875</LatitudeDegrees>
              <LongitudeDegrees>-6.2799017317593097686767578125</LongitudeDegrees>
            </Position>
            <AltitudeMeters>383.20001220703125</AltitudeMeters>
            <DistanceMeters>NAN</DistanceMeters>
          </Trackpoint>
          <Trackpoint>
            <Time>2019-10-09T08:44:15.000Z</Time>
            <Position>
              <LatitudeDegrees>39.20576241798698902130126953125</LatitudeDegrees>
              <LongitudeDegrees>-6.27966360189020633697509765625</LongitudeDegrees>
            </Position>
            <AltitudeMeters>383.600006103515625</AltitudeMeters>
            <DistanceMeters>NAN</DistanceMeters>
          </Trackpoint>
          <Trackpoint>
            <Time>2019-10-09T08:44:24.000Z</Time>
            <Position>
              <LatitudeDegrees>39.2052577435970306396484375</LatitudeDegrees>
              <LongitudeDegrees>-6.2793907709419727325439453125</LongitudeDegrees>
            </Position>
            <AltitudeMeters>384</AltitudeMeters>
            <DistanceMeters>NAN</DistanceMeters>
          </Trackpoint>
          <Trackpoint>
            <Time>2019-10-09T08:44:28.000Z</Time>
            <Position>
              <LatitudeDegrees>39.20502950437366962432861328125</LatitudeDegrees>
              <LongitudeDegrees>-6.27927132882177829742431640625</LongitudeDegrees>
            </Position>
            <AltitudeMeters>384.20001220703125</AltitudeMeters>
            <DistanceMeters>NAN</DistanceMeters>
          </Trackpoint>
          <Trackpoint>
            <Time>2019-10-09T08:44:34.000Z</Time>
            <Position>
              <LatitudeDegrees>39.20469188131392002105712890625</LatitudeDegrees>
              <LongitudeDegrees>-6.2790860049426555633544921875</LongitudeDegrees>
            </Position>
            <AltitudeMeters>384.600006103515625</AltitudeMeters>
            <DistanceMeters>NAN</DistanceMeters>
          </Trackpoint>
          <Trackpoint>
            <Time>2019-10-09T08:44:43.000Z</Time>
            <Position>
              <LatitudeDegrees>39.204175472259521484375</LatitudeDegrees>
              <LongitudeDegrees>-6.27881652675569057464599609375</LongitudeDegrees>
            </Position>
            <AltitudeMeters>385</AltitudeMeters>
            <DistanceMeters>NAN</DistanceMeters>
          </Trackpoint>
          <Trackpoint>
            <Time>2019-10-09T08:44:45.000Z</Time>
            <Position>
              <LatitudeDegrees>39.2040629871189594268798828125</LatitudeDegrees>
              <LongitudeDegrees>-6.27875550650060176849365234375</LongitudeDegrees>
            </Position>
            <AltitudeMeters>385.20001220703125</AltitudeMeters>
            <DistanceMeters>NAN</DistanceMeters>
          </Trackpoint>
          <Trackpoint>
            <Time>2019-10-09T08:44:46.000Z</Time>
            <Position>
              <LatitudeDegrees>39.20400582253932952880859375</LatitudeDegrees>
              <LongitudeDegrees>-6.2787254154682159423828125</LongitudeDegrees>
            </Position>
            <AltitudeMeters>385.399993896484375</AltitudeMeters>
            <DistanceMeters>NAN</DistanceMeters>
          </Trackpoint>
          <Trackpoint>
            <Time>2019-10-09T08:44:55.000Z</Time>
            <Position>
              <LatitudeDegrees>39.203485809266567230224609375</LatitudeDegrees>
              <LongitudeDegrees>-6.27844847738742828369140625</LongitudeDegrees>
            </Position>
            <AltitudeMeters>385.600006103515625</AltitudeMeters>
            <DistanceMeters>NAN</DistanceMeters>
          </Trackpoint>
          <Trackpoint>
            <Time>2019-10-09T08:44:56.000Z</Time>
            <Position>
              <LatitudeDegrees>39.2034279741346836090087890625</LatitudeDegrees>
              <LongitudeDegrees>-6.27841637469828128814697265625</LongitudeDegrees>
            </Position>
            <AltitudeMeters>385.600006103515625</AltitudeMeters>
            <DistanceMeters>NAN</DistanceMeters>
          </Trackpoint>
          <Trackpoint>
            <Time>2019-10-09T08:45:05.000Z</Time>
            <Position>
              <LatitudeDegrees>39.2029042728245258331298828125</LatitudeDegrees>
              <LongitudeDegrees>-6.278134323656558990478515625</LongitudeDegrees>
            </Position>
            <AltitudeMeters>386.20001220703125</AltitudeMeters>
            <DistanceMeters>NAN</DistanceMeters>
          </Trackpoint>
          <Trackpoint>
            <Time>2019-10-09T08:45:06.000Z</Time>
            <Position>
              <LatitudeDegrees>39.2028462700545787811279296875</LatitudeDegrees>
              <LongitudeDegrees>-6.2781043164432048797607421875</LongitudeDegrees>
            </Position>
            <AltitudeMeters>385.79998779296875</AltitudeMeters>
            <DistanceMeters>NAN</DistanceMeters>
          </Trackpoint>
          <Trackpoint>
            <Time>2019-10-09T08:45:08.000Z</Time>
            <Position>
              <LatitudeDegrees>39.202729426324367523193359375</LatitudeDegrees>
              <LongitudeDegrees>-6.2780426256358623504638671875</LongitudeDegrees>
            </Position>
            <AltitudeMeters>386.399993896484375</AltitudeMeters>
            <DistanceMeters>NAN</DistanceMeters>
          </Trackpoint>
          <Trackpoint>
            <Time>2019-10-09T08:45:14.000Z</Time>
            <Position>
              <LatitudeDegrees>39.20238710939884185791015625</LatitudeDegrees>
              <LongitudeDegrees>-6.27785839140415191650390625</LongitudeDegrees>
            </Position>
            <AltitudeMeters>386.79998779296875</AltitudeMeters>
            <DistanceMeters>NAN</DistanceMeters>
          </Trackpoint>
          <Trackpoint>
            <Time>2019-10-09T08:45:23.000Z</Time>
            <Position>
              <LatitudeDegrees>39.2018846981227397918701171875</LatitudeDegrees>
              <LongitudeDegrees>-6.2775960378348827362060546875</LongitudeDegrees>
            </Position>
            <AltitudeMeters>387.399993896484375</AltitudeMeters>
            <DistanceMeters>NAN</DistanceMeters>
          </Trackpoint>
          <Trackpoint>
            <Time>2019-10-09T08:45:24.000Z</Time>
            <Position>
              <LatitudeDegrees>39.20182912610471248626708984375</LatitudeDegrees>
              <LongitudeDegrees>-6.27756644971668720245361328125</LongitudeDegrees>
            </Position>
            <AltitudeMeters>387.600006103515625</AltitudeMeters>
            <DistanceMeters>NAN</DistanceMeters>
          </Trackpoint>
          <Trackpoint>
            <Time>2019-10-09T08:45:25.000Z</Time>
            <Position>
              <LatitudeDegrees>39.20177380554378032684326171875</LatitudeDegrees>
              <LongitudeDegrees>-6.27753518521785736083984375</LongitudeDegrees>
            </Position>
            <AltitudeMeters>387.399993896484375</AltitudeMeters>
            <DistanceMeters>NAN</DistanceMeters>
          </Trackpoint>
          <Trackpoint>
            <Time>2019-10-09T08:45:34.000Z</Time>
            <Position>
              <LatitudeDegrees>39.20127541758120059967041015625</LatitudeDegrees>
              <LongitudeDegrees>-6.27727241255342960357666015625</LongitudeDegrees>
            </Position>
            <AltitudeMeters>388.20001220703125</AltitudeMeters>
            <DistanceMeters>NAN</DistanceMeters>
          </Trackpoint>
          <Trackpoint>
            <Time>2019-10-09T08:45:35.000Z</Time>
            <Position>
              <LatitudeDegrees>39.20121967792510986328125</LatitudeDegrees>
              <LongitudeDegrees>-6.27724123187363147735595703125</LongitudeDegrees>
            </Position>
            <AltitudeMeters>388.20001220703125</AltitudeMeters>
            <DistanceMeters>NAN</DistanceMeters>
          </Trackpoint>
          <Trackpoint>
            <Time>2019-10-09T08:45:41.000Z</Time>
            <Position>
              <LatitudeDegrees>39.20088046230375766754150390625</LatitudeDegrees>
              <LongitudeDegrees>-6.27706269733607769012451171875</LongitudeDegrees>
            </Position>
            <AltitudeMeters>388.79998779296875</AltitudeMeters>
            <DistanceMeters>NAN</DistanceMeters>
          </Trackpoint>
          <Trackpoint>
            <Time>2019-10-09T08:45:46.000Z</Time>
            <Position>
              <LatitudeDegrees>39.200602434575557708740234375</LatitudeDegrees>
              <LongitudeDegrees>-6.27691349945962429046630859375</LongitudeDegrees>
            </Position>
            <AltitudeMeters>388.79998779296875</AltitudeMeters>
            <DistanceMeters>NAN</DistanceMeters>
          </Trackpoint>
          <Trackpoint>
            <Time>2019-10-09T08:45:53.000Z</Time>
            <Position>
              <LatitudeDegrees>39.20023689977824687957763671875</LatitudeDegrees>
              <LongitudeDegrees>-6.2767122499644756317138671875</LongitudeDegrees>
            </Position>
            <AltitudeMeters>389.79998779296875</AltitudeMeters>
            <DistanceMeters>NAN</DistanceMeters>
          </Trackpoint>
          <Trackpoint>
            <Time>2019-10-09T08:45:55.000Z</Time>
            <Position>
              <LatitudeDegrees>39.20013405382633209228515625</LatitudeDegrees>
              <LongitudeDegrees>-6.2766599468886852264404296875</LongitudeDegrees>
            </Position>
            <AltitudeMeters>390</AltitudeMeters>
            <DistanceMeters>NAN</DistanceMeters>
          </Trackpoint>
          <Trackpoint>
            <Time>2019-10-09T08:46:04.000Z</Time>
            <Position>
              <LatitudeDegrees>39.19966793619096279144287109375</LatitudeDegrees>
              <LongitudeDegrees>-6.2764185480773448944091796875</LongitudeDegrees>
            </Position>
            <AltitudeMeters>390.600006103515625</AltitudeMeters>
            <DistanceMeters>NAN</DistanceMeters>
          </Trackpoint>
          <Trackpoint>
            <Time>2019-10-09T08:46:09.000Z</Time>
            <Position>
              <LatitudeDegrees>39.1994160600006580352783203125</LatitudeDegrees>
              <LongitudeDegrees>-6.27628485672175884246826171875</LongitudeDegrees>
            </Position>
            <AltitudeMeters>390.79998779296875</AltitudeMeters>
            <DistanceMeters>NAN</DistanceMeters>
          </Trackpoint>
          <Trackpoint>
            <Time>2019-10-09T08:46:13.000Z</Time>
            <Position>
              <LatitudeDegrees>39.1992105357348918914794921875</LatitudeDegrees>
              <LongitudeDegrees>-6.2761771492660045623779296875</LongitudeDegrees>
            </Position>
            <AltitudeMeters>390.600006103515625</AltitudeMeters>
            <DistanceMeters>NAN</DistanceMeters>
          </Trackpoint>
          <Trackpoint>
            <Time>2019-10-09T08:46:23.000Z</Time>
            <Position>
              <LatitudeDegrees>39.19870787300169467926025390625</LatitudeDegrees>
              <LongitudeDegrees>-6.27590884454548358917236328125</LongitudeDegrees>
            </Position>
            <AltitudeMeters>391.399993896484375</AltitudeMeters>
            <DistanceMeters>NAN</DistanceMeters>
          </Trackpoint>
          <Trackpoint>
            <Time>2019-10-09T08:46:24.000Z</Time>
            <Position>
              <LatitudeDegrees>39.19865841977298259735107421875</LatitudeDegrees>
              <LongitudeDegrees>-6.27588034607470035552978515625</LongitudeDegrees>
            </Position>
            <AltitudeMeters>391.79998779296875</AltitudeMeters>
            <DistanceMeters>NAN</DistanceMeters>
          </Trackpoint>
          <Trackpoint>
            <Time>2019-10-09T08:46:29.000Z</Time>
            <Position>
              <LatitudeDegrees>39.19838785193860530853271484375</LatitudeDegrees>
              <LongitudeDegrees>-6.2757329083979129791259765625</LongitudeDegrees>
            </Position>
            <AltitudeMeters>392</AltitudeMeters>
            <DistanceMeters>NAN</DistanceMeters>
          </Trackpoint>
          <Trackpoint>
            <Time>2019-10-09T08:46:37.000Z</Time>
            <Position>
              <LatitudeDegrees>39.19801066629588603973388671875</LatitudeDegrees>
              <LongitudeDegrees>-6.2755327485501766204833984375</LongitudeDegrees>
            </Position>
            <AltitudeMeters>392.600006103515625</AltitudeMeters>
            <DistanceMeters>NAN</DistanceMeters>
          </Trackpoint>
          <Trackpoint>
            <Time>2019-10-09T08:46:41.000Z</Time>
            <Position>
              <LatitudeDegrees>39.19781201519072055816650390625</LatitudeDegrees>
              <LongitudeDegrees>-6.275430656969547271728515625</LongitudeDegrees>
            </Position>
            <AltitudeMeters>393.20001220703125</AltitudeMeters>
            <DistanceMeters>NAN</DistanceMeters>
          </Trackpoint>
          <Trackpoint>
            <Time>2019-10-09T08:46:47.000Z</Time>
            <Position>
              <LatitudeDegrees>39.19751864857971668243408203125</LatitudeDegrees>
              <LongitudeDegrees>-6.27527550794184207916259765625</LongitudeDegrees>
            </Position>
            <AltitudeMeters>393.79998779296875</AltitudeMeters>
            <DistanceMeters>NAN</DistanceMeters>
          </Trackpoint>
          <Trackpoint>
            <Time>2019-10-09T08:46:48.000Z</Time>
            <Position>
              <LatitudeDegrees>39.1974697820842266082763671875</LatitudeDegrees>
              <LongitudeDegrees>-6.27525086514651775360107421875</LongitudeDegrees>
            </Position>
            <AltitudeMeters>394.20001220703125</AltitudeMeters>
            <DistanceMeters>NAN</DistanceMeters>
          </Trackpoint>
          <Trackpoint>
            <Time>2019-10-09T08:46:58.000Z</Time>
            <Position>
              <LatitudeDegrees>39.19698203913867473602294921875</LatitudeDegrees>
              <LongitudeDegrees>-6.27499605529010295867919921875</LongitudeDegrees>
            </Position>
            <AltitudeMeters>395.399993896484375</AltitudeMeters>
            <DistanceMeters>NAN</DistanceMeters>
          </Trackpoint>
          <Trackpoint>
            <Time>2019-10-09T08:47:07.000Z</Time>
            <Position>
              <LatitudeDegrees>39.19653092510998249053955078125</LatitudeDegrees>
              <LongitudeDegrees>-6.2747498787939548492431640625</LongitudeDegrees>
            </Position>
            <AltitudeMeters>395.79998779296875</AltitudeMeters>
            <DistanceMeters>NAN</DistanceMeters>
          </Trackpoint>
          <Trackpoint>
            <Time>2019-10-09T08:47:14.000Z</Time>
            <Position>
              <LatitudeDegrees>39.19617167674005031585693359375</LatitudeDegrees>
              <LongitudeDegrees>-6.274560950696468353271484375</LongitudeDegrees>
            </Position>
            <AltitudeMeters>396.399993896484375</AltitudeMeters>
            <DistanceMeters>NAN</DistanceMeters>
          </Trackpoint>
          <Trackpoint>
            <Time>2019-10-09T08:47:18.000Z</Time>
            <Position>
              <LatitudeDegrees>39.19596648775041103363037109375</LatitudeDegrees>
              <LongitudeDegrees>-6.27445089630782604217529296875</LongitudeDegrees>
            </Position>
            <AltitudeMeters>396.600006103515625</AltitudeMeters>
            <DistanceMeters>NAN</DistanceMeters>
          </Trackpoint>
          <Trackpoint>
            <Time>2019-10-09T08:47:28.000Z</Time>
            <Position>
              <LatitudeDegrees>39.19545686803758144378662109375</LatitudeDegrees>
              <LongitudeDegrees>-6.27417630515992641448974609375</LongitudeDegrees>
            </Position>
            <AltitudeMeters>396.79998779296875</AltitudeMeters>
            <DistanceMeters>NAN</DistanceMeters>
          </Trackpoint>
          <Trackpoint>
            <Time>2019-10-09T08:47:29.000Z</Time>
            <Position>
              <LatitudeDegrees>39.1954061575233936309814453125</LatitudeDegrees>
              <LongitudeDegrees>-6.2741473875939846038818359375</LongitudeDegrees>
            </Position>
            <AltitudeMeters>396.79998779296875</AltitudeMeters>
            <DistanceMeters>NAN</DistanceMeters>
          </Trackpoint>
          <Trackpoint>
            <Time>2019-10-09T08:47:37.000Z</Time>
            <Position>
              <LatitudeDegrees>39.1949880681931972503662109375</LatitudeDegrees>
              <LongitudeDegrees>-6.27392937429249286651611328125</LongitudeDegrees>
            </Position>
            <AltitudeMeters>397.79998779296875</AltitudeMeters>
            <DistanceMeters>NAN</DistanceMeters>
          </Trackpoint>
          <Trackpoint>
            <Time>2019-10-09T08:47:38.000Z</Time>
            <Position>
              <LatitudeDegrees>39.19493601657450199127197265625</LatitudeDegrees>
              <LongitudeDegrees>-6.2739036418497562408447265625</LongitudeDegrees>
            </Position>
            <AltitudeMeters>397.399993896484375</AltitudeMeters>
            <DistanceMeters>NAN</DistanceMeters>
          </Trackpoint>
          <Trackpoint>
            <Time>2019-10-09T08:47:45.000Z</Time>
            <Position>
              <LatitudeDegrees>39.19457073323428630828857421875</LatitudeDegrees>
              <LongitudeDegrees>-6.27370960079133510589599609375</LongitudeDegrees>
            </Position>
            <AltitudeMeters>398</AltitudeMeters>
            <DistanceMeters>NAN</DistanceMeters>
          </Trackpoint>
          <Trackpoint>
            <Time>2019-10-09T08:47:53.000Z</Time>
            <Position>
              <LatitudeDegrees>39.19413755647838115692138671875</LatitudeDegrees>
              <LongitudeDegrees>-6.27347926609218120574951171875</LongitudeDegrees>
            </Position>
            <AltitudeMeters>398.399993896484375</AltitudeMeters>
            <DistanceMeters>NAN</DistanceMeters>
          </Trackpoint>
          <Trackpoint>
            <Time>2019-10-09T08:48:00.000Z</Time>
            <Position>
              <LatitudeDegrees>39.19376112520694732666015625</LatitudeDegrees>
              <LongitudeDegrees>-6.273276843130588531494140625</LongitudeDegrees>
            </Position>
            <AltitudeMeters>398.79998779296875</AltitudeMeters>
            <DistanceMeters>NAN</DistanceMeters>
          </Trackpoint>
          <Trackpoint>
            <Time>2019-10-09T08:48:01.000Z</Time>
            <Position>
              <LatitudeDegrees>39.19370748102664947509765625</LatitudeDegrees>
              <LongitudeDegrees>-6.27324926666915416717529296875</LongitudeDegrees>
            </Position>
            <AltitudeMeters>399</AltitudeMeters>
            <DistanceMeters>NAN</DistanceMeters>
          </Trackpoint>
          <Trackpoint>
            <Time>2019-10-09T08:48:10.000Z</Time>
            <Position>
              <LatitudeDegrees>39.19324656017124652862548828125</LatitudeDegrees>
              <LongitudeDegrees>-6.2730040960013866424560546875</LongitudeDegrees>
            </Position>
            <AltitudeMeters>399.20001220703125</AltitudeMeters>
            <DistanceMeters>NAN</DistanceMeters>
          </Trackpoint>
          <Trackpoint>
            <Time>2019-10-09T08:48:11.000Z</Time>
            <Position>
              <LatitudeDegrees>39.19319526292383670806884765625</LatitudeDegrees>
              <LongitudeDegrees>-6.27297735773026943206787109375</LongitudeDegrees>
            </Position>
            <AltitudeMeters>399.399993896484375</AltitudeMeters>
            <DistanceMeters>NAN</DistanceMeters>
          </Trackpoint>
          <Trackpoint>
            <Time>2019-10-09T08:48:20.000Z</Time>
            <Position>
              <LatitudeDegrees>39.19273610226809978485107421875</LatitudeDegrees>
              <LongitudeDegrees>-6.27273310907185077667236328125</LongitudeDegrees>
            </Position>
            <AltitudeMeters>399.79998779296875</AltitudeMeters>
            <DistanceMeters>NAN</DistanceMeters>
          </Trackpoint>
          <Trackpoint>
            <Time>2019-10-09T08:48:22.000Z</Time>
            <Position>
              <LatitudeDegrees>39.19263183139264583587646484375</LatitudeDegrees>
              <LongitudeDegrees>-6.2726792134344577789306640625</LongitudeDegrees>
            </Position>
            <AltitudeMeters>399.600006103515625</AltitudeMeters>
            <DistanceMeters>NAN</DistanceMeters>
          </Trackpoint>
          <Trackpoint>
            <Time>2019-10-09T08:48:28.000Z</Time>
            <Position>
              <LatitudeDegrees>39.192319102585315704345703125</LatitudeDegrees>
              <LongitudeDegrees>-6.27251903526484966278076171875</LongitudeDegrees>
            </Position>
            <AltitudeMeters>400</AltitudeMeters>
            <DistanceMeters>NAN</DistanceMeters>
          </Trackpoint>
          <Trackpoint>
            <Time>2019-10-09T08:48:33.000Z</Time>
            <Position>
              <LatitudeDegrees>39.19206731021404266357421875</LatitudeDegrees>
              <LongitudeDegrees>-6.27238291315734386444091796875</LongitudeDegrees>
            </Position>
            <AltitudeMeters>400.600006103515625</AltitudeMeters>
            <DistanceMeters>NAN</DistanceMeters>
          </Trackpoint>
          <Trackpoint>
            <Time>2019-10-09T08:48:38.000Z</Time>
            <Position>
              <LatitudeDegrees>39.19181384146213531494140625</LatitudeDegrees>
              <LongitudeDegrees>-6.272242851555347442626953125</LongitudeDegrees>
            </Position>
            <AltitudeMeters>401</AltitudeMeters>
            <DistanceMeters>NAN</DistanceMeters>
          </Trackpoint>
          <Trackpoint>
            <Time>2019-10-09T08:48:42.000Z</Time>
            <Position>
              <LatitudeDegrees>39.191606976091861724853515625</LatitudeDegrees>
              <LongitudeDegrees>-6.27213246189057826995849609375</LongitudeDegrees>
            </Position>
            <AltitudeMeters>401</AltitudeMeters>
            <DistanceMeters>NAN</DistanceMeters>
          </Trackpoint>
          <Trackpoint>
            <Time>2019-10-09T08:48:51.000Z</Time>
            <Position>
              <LatitudeDegrees>39.19114924035966396331787109375</LatitudeDegrees>
              <LongitudeDegrees>-6.2718819268047809600830078125</LongitudeDegrees>
            </Position>
            <AltitudeMeters>402</AltitudeMeters>
            <DistanceMeters>NAN</DistanceMeters>
          </Trackpoint>
          <Trackpoint>
            <Time>2019-10-09T08:48:52.000Z</Time>
            <Position>
              <LatitudeDegrees>39.1910992003977298736572265625</LatitudeDegrees>
              <LongitudeDegrees>-6.2718544341623783111572265625</LongitudeDegrees>
            </Position>
            <AltitudeMeters>402.399993896484375</AltitudeMeters>
            <DistanceMeters>NAN</DistanceMeters>
          </Trackpoint>
          <Trackpoint>
            <Time>2019-10-09T08:49:01.000Z</Time>
            <Position>
              <LatitudeDegrees>39.19064029119908809661865234375</LatitudeDegrees>
              <LongitudeDegrees>-6.27160524018108844757080078125</LongitudeDegrees>
            </Position>
            <AltitudeMeters>403.20001220703125</AltitudeMeters>
            <DistanceMeters>NAN</DistanceMeters>
          </Trackpoint>
          <Trackpoint>
            <Time>2019-10-09T08:49:11.000Z</Time>
            <Position>
              <LatitudeDegrees>39.19013737700879573822021484375</LatitudeDegrees>
              <LongitudeDegrees>-6.27131908200681209564208984375</LongitudeDegrees>
            </Position>
            <AltitudeMeters>404</AltitudeMeters>
            <DistanceMeters>NAN</DistanceMeters>
          </Trackpoint>
          <Trackpoint>
            <Time>2019-10-09T08:49:21.000Z</Time>
            <Position>
              <LatitudeDegrees>39.18960663489997386932373046875</LatitudeDegrees>
              <LongitudeDegrees>-6.271028816699981689453125</LongitudeDegrees>
            </Position>
            <AltitudeMeters>403.600006103515625</AltitudeMeters>
            <DistanceMeters>NAN</DistanceMeters>
          </Trackpoint>
          <Trackpoint>
            <Time>2019-10-09T08:49:26.000Z</Time>
            <Position>
              <LatitudeDegrees>39.18934763409197330474853515625</LatitudeDegrees>
              <LongitudeDegrees>-6.27087836153805255889892578125</LongitudeDegrees>
            </Position>
            <AltitudeMeters>403.79998779296875</AltitudeMeters>
            <DistanceMeters>NAN</DistanceMeters>
          </Trackpoint>
          <Trackpoint>
            <Time>2019-10-09T08:49:28.000Z</Time>
            <Position>
              <LatitudeDegrees>39.189243949949741363525390625</LatitudeDegrees>
              <LongitudeDegrees>-6.2708194367587566375732421875</LongitudeDegrees>
            </Position>
            <AltitudeMeters>404.20001220703125</AltitudeMeters>
            <DistanceMeters>NAN</DistanceMeters>
          </Trackpoint>
          <Trackpoint>
            <Time>2019-10-09T08:49:32.000Z</Time>
            <Position>
              <LatitudeDegrees>39.1890372522175312042236328125</LatitudeDegrees>
              <LongitudeDegrees>-6.2706977315247058868408203125</LongitudeDegrees>
            </Position>
            <AltitudeMeters>404</AltitudeMeters>
            <DistanceMeters>NAN</DistanceMeters>
          </Trackpoint>
          <Trackpoint>
            <Time>2019-10-09T08:49:39.000Z</Time>
            <Position>
              <LatitudeDegrees>39.188665933907032012939453125</LatitudeDegrees>
              <LongitudeDegrees>-6.27047787420451641082763671875</LongitudeDegrees>
            </Position>
            <AltitudeMeters>403.600006103515625</AltitudeMeters>
            <DistanceMeters>NAN</DistanceMeters>
          </Trackpoint>
          <Trackpoint>
            <Time>2019-10-09T08:49:42.000Z</Time>
            <Position>
              <LatitudeDegrees>39.18850592337548732757568359375</LatitudeDegrees>
              <LongitudeDegrees>-6.27038064412772655487060546875</LongitudeDegrees>
            </Position>
            <AltitudeMeters>403.79998779296875</AltitudeMeters>
            <DistanceMeters>NAN</DistanceMeters>
          </Trackpoint>
          <Trackpoint>
            <Time>2019-10-09T08:49:45.000Z</Time>
            <Position>
              <LatitudeDegrees>39.18834113515913486480712890625</LatitudeDegrees>
              <LongitudeDegrees>-6.27028509043157100677490234375</LongitudeDegrees>
            </Position>
            <AltitudeMeters>403.600006103515625</AltitudeMeters>
            <DistanceMeters>NAN</DistanceMeters>
          </Trackpoint>
          <Trackpoint>
            <Time>2019-10-09T08:49:48.000Z</Time>
            <Position>
              <LatitudeDegrees>39.1881819628179073333740234375</LatitudeDegrees>
              <LongitudeDegrees>-6.2701892852783203125</LongitudeDegrees>
            </Position>
            <AltitudeMeters>403</AltitudeMeters>
            <DistanceMeters>NAN</DistanceMeters>
          </Trackpoint>
          <Trackpoint>
            <Time>2019-10-09T08:49:51.000Z</Time>
            <Position>
              <LatitudeDegrees>39.188019521534442901611328125</LatitudeDegrees>
              <LongitudeDegrees>-6.27009549178183078765869140625</LongitudeDegrees>
            </Position>
            <AltitudeMeters>403</AltitudeMeters>
            <DistanceMeters>NAN</DistanceMeters>
          </Trackpoint>
          <Trackpoint>
            <Time>2019-10-09T08:49:58.000Z</Time>
            <Position>
              <LatitudeDegrees>39.18764309026300907135009765625</LatitudeDegrees>
              <LongitudeDegrees>-6.2698759697377681732177734375</LongitudeDegrees>
            </Position>
            <AltitudeMeters>403.399993896484375</AltitudeMeters>
            <DistanceMeters>NAN</DistanceMeters>
          </Trackpoint>
          <Trackpoint>
            <Time>2019-10-09T08:50:02.000Z</Time>
            <Position>
              <LatitudeDegrees>39.18743756599724292755126953125</LatitudeDegrees>
              <LongitudeDegrees>-6.26974680460989475250244140625</LongitudeDegrees>
            </Position>
            <AltitudeMeters>403.600006103515625</AltitudeMeters>
            <DistanceMeters>NAN</DistanceMeters>
          </Trackpoint>
          <Trackpoint>
            <Time>2019-10-09T08:50:10.000Z</Time>
            <Position>
              <LatitudeDegrees>39.187023751437664031982421875</LatitudeDegrees>
              <LongitudeDegrees>-6.26950121484696865081787109375</LongitudeDegrees>
            </Position>
            <AltitudeMeters>403.79998779296875</AltitudeMeters>
            <DistanceMeters>NAN</DistanceMeters>
          </Trackpoint>
          <Trackpoint>
            <Time>2019-10-09T08:50:11.000Z</Time>
            <Position>
              <LatitudeDegrees>39.18697069399058818817138671875</LatitudeDegrees>
              <LongitudeDegrees>-6.2694699503481388092041015625</LongitudeDegrees>
            </Position>
            <AltitudeMeters>404.20001220703125</AltitudeMeters>
            <DistanceMeters>NAN</DistanceMeters>
          </Trackpoint>
          <Trackpoint>
            <Time>2019-10-09T08:50:19.000Z</Time>
            <Position>
              <LatitudeDegrees>39.1865654289722442626953125</LatitudeDegrees>
              <LongitudeDegrees>-6.26922863535583019256591796875</LongitudeDegrees>
            </Position>
            <AltitudeMeters>405</AltitudeMeters>
            <DistanceMeters>NAN</DistanceMeters>
          </Trackpoint>
          <Trackpoint>
            <Time>2019-10-09T08:50:21.000Z</Time>
            <Position>
              <LatitudeDegrees>39.1864635050296783447265625</LatitudeDegrees>
              <LongitudeDegrees>-6.269170381128787994384765625</LongitudeDegrees>
            </Position>
            <AltitudeMeters>405</AltitudeMeters>
            <DistanceMeters>NAN</DistanceMeters>
          </Trackpoint>
          <Trackpoint>
            <Time>2019-10-09T08:50:25.000Z</Time>
            <Position>
              <LatitudeDegrees>39.18626376427710056304931640625</LatitudeDegrees>
              <LongitudeDegrees>-6.269053034484386444091796875</LongitudeDegrees>
            </Position>
            <AltitudeMeters>405.399993896484375</AltitudeMeters>
            <DistanceMeters>NAN</DistanceMeters>
          </Trackpoint>
          <Trackpoint>
            <Time>2019-10-09T08:50:30.000Z</Time>
            <Position>
              <LatitudeDegrees>39.185995124280452728271484375</LatitudeDegrees>
              <LongitudeDegrees>-6.26889537088572978973388671875</LongitudeDegrees>
            </Position>
            <AltitudeMeters>406.20001220703125</AltitudeMeters>
            <DistanceMeters>NAN</DistanceMeters>
          </Trackpoint>
          <Trackpoint>
            <Time>2019-10-09T08:50:32.000Z</Time>
            <Position>
              <LatitudeDegrees>39.185934774577617645263671875</LatitudeDegrees>
              <LongitudeDegrees>-6.2688602507114410400390625</LongitudeDegrees>
            </Position>
            <AltitudeMeters>406.399993896484375</AltitudeMeters>
            <DistanceMeters>NAN</DistanceMeters>
          </Trackpoint>
          <Trackpoint>
            <Time>2019-10-09T08:50:40.000Z</Time>
            <Position>
              <LatitudeDegrees>39.18558315373957157135009765625</LatitudeDegrees>
              <LongitudeDegrees>-6.26864894293248653411865234375</LongitudeDegrees>
            </Position>
            <AltitudeMeters>407.600006103515625</AltitudeMeters>
            <DistanceMeters>NAN</DistanceMeters>
          </Trackpoint>
          <Trackpoint>
            <Time>2019-10-09T08:50:43.000Z</Time>
            <Position>
              <LatitudeDegrees>39.18545356951653957366943359375</LatitudeDegrees>
              <LongitudeDegrees>-6.2685761041939258575439453125</LongitudeDegrees>
            </Position>
            <AltitudeMeters>407.79998779296875</AltitudeMeters>
            <DistanceMeters>NAN</DistanceMeters>
          </Trackpoint>
          <Trackpoint>
            <Time>2019-10-09T08:50:50.000Z</Time>
            <Position>
              <LatitudeDegrees>39.18514595367014408111572265625</LatitudeDegrees>
              <LongitudeDegrees>-6.26842439174652099609375</LongitudeDegrees>
            </Position>
            <AltitudeMeters>408.79998779296875</AltitudeMeters>
            <DistanceMeters>NAN</DistanceMeters>
          </Trackpoint>
          <Trackpoint>
            <Time>2019-10-09T08:50:53.000Z</Time>
            <Position>
              <LatitudeDegrees>39.1850142739713191986083984375</LatitudeDegrees>
              <LongitudeDegrees>-6.26836496405303478240966796875</LongitudeDegrees>
            </Position>
            <AltitudeMeters>409</AltitudeMeters>
            <DistanceMeters>NAN</DistanceMeters>
          </Trackpoint>
          <Trackpoint>
            <Time>2019-10-09T08:50:58.000Z</Time>
            <Position>
              <LatitudeDegrees>39.18479726649820804595947265625</LatitudeDegrees>
              <LongitudeDegrees>-6.26827041618525981903076171875</LongitudeDegrees>
            </Position>
            <AltitudeMeters>409.79998779296875</AltitudeMeters>
            <DistanceMeters>NAN</DistanceMeters>
          </Trackpoint>
          <Trackpoint>
            <Time>2019-10-09T08:51:01.000Z</Time>
            <Position>
              <LatitudeDegrees>39.1846629045903682708740234375</LatitudeDegrees>
              <LongitudeDegrees>-6.26822515390813350677490234375</LongitudeDegrees>
            </Position>
            <AltitudeMeters>410.20001220703125</AltitudeMeters>
            <DistanceMeters>NAN</DistanceMeters>
          </Trackpoint>
          <Trackpoint>
            <Time>2019-10-09T08:51:05.000Z</Time>
            <Position>
              <LatitudeDegrees>39.18448076583445072174072265625</LatitudeDegrees>
              <LongitudeDegrees>-6.26816195435822010040283203125</LongitudeDegrees>
            </Position>
            <AltitudeMeters>410.600006103515625</AltitudeMeters>
            <DistanceMeters>NAN</DistanceMeters>
          </Trackpoint>
          <Trackpoint>
            <Time>2019-10-09T08:51:07.000Z</Time>
            <Position>
              <LatitudeDegrees>39.1843896545469760894775390625</LatitudeDegrees>
              <LongitudeDegrees>-6.268139071762561798095703125</LongitudeDegrees>
            </Position>
            <AltitudeMeters>411.20001220703125</AltitudeMeters>
            <DistanceMeters>NAN</DistanceMeters>
          </Trackpoint>
          <Trackpoint>
            <Time>2019-10-09T08:51:13.000Z</Time>
            <Position>
              <LatitudeDegrees>39.18411665596067905426025390625</LatitudeDegrees>
              <LongitudeDegrees>-6.26804293133318424224853515625</LongitudeDegrees>
            </Position>
            <AltitudeMeters>412.20001220703125</AltitudeMeters>
            <DistanceMeters>NAN</DistanceMeters>
          </Trackpoint>
          <Trackpoint>
            <Time>2019-10-09T08:51:14.000Z</Time>
            <Position>
              <LatitudeDegrees>39.1840708069503307342529296875</LatitudeDegrees>
              <LongitudeDegrees>-6.26803077757358551025390625</LongitudeDegrees>
            </Position>
            <AltitudeMeters>412</AltitudeMeters>
            <DistanceMeters>NAN</DistanceMeters>
          </Trackpoint>
          <Trackpoint>
            <Time>2019-10-09T08:51:22.000Z</Time>
            <Position>
              <LatitudeDegrees>39.18370686471462249755859375</LatitudeDegrees>
              <LongitudeDegrees>-6.267907060682773590087890625</LongitudeDegrees>
            </Position>
            <AltitudeMeters>412.79998779296875</AltitudeMeters>
            <DistanceMeters>NAN</DistanceMeters>
          </Trackpoint>
          <Trackpoint>
            <Time>2019-10-09T08:51:27.000Z</Time>
            <Position>
              <LatitudeDegrees>39.18347594328224658966064453125</LatitudeDegrees>
              <LongitudeDegrees>-6.26783422194421291351318359375</LongitudeDegrees>
            </Position>
            <AltitudeMeters>413.399993896484375</AltitudeMeters>
            <DistanceMeters>NAN</DistanceMeters>
          </Trackpoint>
          <Trackpoint>
            <Time>2019-10-09T08:51:33.000Z</Time>
            <Position>
              <LatitudeDegrees>39.1831994242966175079345703125</LatitudeDegrees>
              <LongitudeDegrees>-6.26774420030415058135986328125</LongitudeDegrees>
            </Position>
            <AltitudeMeters>413</AltitudeMeters>
            <DistanceMeters>NAN</DistanceMeters>
          </Trackpoint>
          <Trackpoint>
            <Time>2019-10-09T08:51:41.000Z</Time>
            <Position>
              <LatitudeDegrees>39.182830117642879486083984375</LatitudeDegrees>
              <LongitudeDegrees>-6.26762081868946552276611328125</LongitudeDegrees>
            </Position>
            <AltitudeMeters>413.600006103515625</AltitudeMeters>
            <DistanceMeters>NAN</DistanceMeters>
          </Trackpoint>
          <Trackpoint>
            <Time>2019-10-09T08:51:42.000Z</Time>
            <Position>
              <LatitudeDegrees>39.18278292752802371978759765625</LatitudeDegrees>
              <LongitudeDegrees>-6.26760573126375675201416015625</LongitudeDegrees>
            </Position>
            <AltitudeMeters>413.79998779296875</AltitudeMeters>
            <DistanceMeters>NAN</DistanceMeters>
          </Trackpoint>
          <Trackpoint>
            <Time>2019-10-09T08:51:47.000Z</Time>
            <Position>
              <LatitudeDegrees>39.1825543530285358428955078125</LatitudeDegrees>
              <LongitudeDegrees>-6.2675320543348789215087890625</LongitudeDegrees>
            </Position>
            <AltitudeMeters>413.79998779296875</AltitudeMeters>
            <DistanceMeters>NAN</DistanceMeters>
          </Trackpoint>
          <Trackpoint>
            <Time>2019-10-09T08:51:51.000Z</Time>
            <Position>
              <LatitudeDegrees>39.18236919678747653961181640625</LatitudeDegrees>
              <LongitudeDegrees>-6.2674730457365512847900390625</LongitudeDegrees>
            </Position>
            <AltitudeMeters>414.600006103515625</AltitudeMeters>
            <DistanceMeters>NAN</DistanceMeters>
          </Trackpoint>
          <Trackpoint>
            <Time>2019-10-09T08:51:53.000Z</Time>
            <Position>
              <LatitudeDegrees>39.18227816931903362274169921875</LatitudeDegrees>
              <LongitudeDegrees>-6.26743976958096027374267578125</LongitudeDegrees>
            </Position>
            <AltitudeMeters>414.399993896484375</AltitudeMeters>
            <DistanceMeters>NAN</DistanceMeters>
          </Trackpoint>
          <Trackpoint>
            <Time>2019-10-09T08:52:03.000Z</Time>
            <Position>
              <LatitudeDegrees>39.181817583739757537841796875</LatitudeDegrees>
              <LongitudeDegrees>-6.267295181751251220703125</LongitudeDegrees>
            </Position>
            <AltitudeMeters>415.600006103515625</AltitudeMeters>
            <DistanceMeters>NAN</DistanceMeters>
          </Trackpoint>
          <Trackpoint>
            <Time>2019-10-09T08:52:13.000Z</Time>
            <Position>
              <LatitudeDegrees>39.18136420659720897674560546875</LatitudeDegrees>
              <LongitudeDegrees>-6.2671488337218761444091796875</LongitudeDegrees>
            </Position>
            <AltitudeMeters>416.600006103515625</AltitudeMeters>
            <DistanceMeters>NAN</DistanceMeters>
          </Trackpoint>
          <Trackpoint>
            <Time>2019-10-09T08:52:24.000Z</Time>
            <Position>
              <LatitudeDegrees>39.18086213059723377227783203125</LatitudeDegrees>
              <LongitudeDegrees>-6.266979686915874481201171875</LongitudeDegrees>
            </Position>
            <AltitudeMeters>417.399993896484375</AltitudeMeters>
            <DistanceMeters>NAN</DistanceMeters>
          </Trackpoint>
          <Trackpoint>
            <Time>2019-10-09T08:52:26.000Z</Time>
            <Position>
              <LatitudeDegrees>39.1807710193097591400146484375</LatitudeDegrees>
              <LongitudeDegrees>-6.26694926060736179351806640625</LongitudeDegrees>
            </Position>
            <AltitudeMeters>417.79998779296875</AltitudeMeters>
            <DistanceMeters>NAN</DistanceMeters>
          </Trackpoint>
          <Trackpoint>
            <Time>2019-10-09T08:52:33.000Z</Time>
            <Position>
              <LatitudeDegrees>39.18045175261795520782470703125</LatitudeDegrees>
              <LongitudeDegrees>-6.26684725284576416015625</LongitudeDegrees>
            </Position>
            <AltitudeMeters>418.20001220703125</AltitudeMeters>
            <DistanceMeters>NAN</DistanceMeters>
          </Trackpoint>
          <Trackpoint>
            <Time>2019-10-09T08:52:44.000Z</Time>
            <Position>
              <LatitudeDegrees>39.1799532808363437652587890625</LatitudeDegrees>
              <LongitudeDegrees>-6.266689337790012359619140625</LongitudeDegrees>
            </Position>
            <AltitudeMeters>418.79998779296875</AltitudeMeters>
            <DistanceMeters>NAN</DistanceMeters>
          </Trackpoint>
          <Trackpoint>
            <Time>2019-10-09T08:52:46.000Z</Time>
            <Position>
              <LatitudeDegrees>39.17986216954886913299560546875</LatitudeDegrees>
              <LongitudeDegrees>-6.2666593305766582489013671875</LongitudeDegrees>
            </Position>
            <AltitudeMeters>419</AltitudeMeters>
            <DistanceMeters>NAN</DistanceMeters>
          </Trackpoint>
          <Trackpoint>
            <Time>2019-10-09T08:52:57.000Z</Time>
            <Position>
              <LatitudeDegrees>39.1793595068156719207763671875</LatitudeDegrees>
              <LongitudeDegrees>-6.266494207084178924560546875</LongitudeDegrees>
            </Position>
            <AltitudeMeters>419.600006103515625</AltitudeMeters>
            <DistanceMeters>NAN</DistanceMeters>
          </Trackpoint>
          <Trackpoint>
            <Time>2019-10-09T08:52:59.000Z</Time>
            <Position>
              <LatitudeDegrees>39.17926847934722900390625</LatitudeDegrees>
              <LongitudeDegrees>-6.26646495424211025238037109375</LongitudeDegrees>
            </Position>
            <AltitudeMeters>420</AltitudeMeters>
            <DistanceMeters>NAN</DistanceMeters>
          </Trackpoint>
          <Trackpoint>
            <Time>2019-10-09T08:53:07.000Z</Time>
            <Position>
              <LatitudeDegrees>39.1788978315889835357666015625</LatitudeDegrees>
              <LongitudeDegrees>-6.2663367949426174163818359375</LongitudeDegrees>
            </Position>
            <AltitudeMeters>420.79998779296875</AltitudeMeters>
            <DistanceMeters>NAN</DistanceMeters>
          </Trackpoint>
          <Trackpoint>
            <Time>2019-10-09T08:53:08.000Z</Time>
            <Position>
              <LatitudeDegrees>39.17885198257863521575927734375</LatitudeDegrees>
              <LongitudeDegrees>-6.26632145605981349945068359375</LongitudeDegrees>
            </Position>
            <AltitudeMeters>420.79998779296875</AltitudeMeters>
            <DistanceMeters>NAN</DistanceMeters>
          </Trackpoint>
          <Trackpoint>
            <Time>2019-10-09T08:53:09.000Z</Time>
            <Position>
              <LatitudeDegrees>39.178806133568286895751953125</LatitudeDegrees>
              <LongitudeDegrees>-6.26630871556699275970458984375</LongitudeDegrees>
            </Position>
            <AltitudeMeters>421.20001220703125</AltitudeMeters>
            <DistanceMeters>NAN</DistanceMeters>
          </Trackpoint>
          <Trackpoint>
            <Time>2019-10-09T08:53:17.000Z</Time>
            <Position>
              <LatitudeDegrees>39.178435988724231719970703125</LatitudeDegrees>
              <LongitudeDegrees>-6.26619405113160610198974609375</LongitudeDegrees>
            </Position>
            <AltitudeMeters>421.600006103515625</AltitudeMeters>
            <DistanceMeters>NAN</DistanceMeters>
          </Trackpoint>
          <Trackpoint>
            <Time>2019-10-09T08:53:28.000Z</Time>
            <Position>
              <LatitudeDegrees>39.177929051220417022705078125</LatitudeDegrees>
              <LongitudeDegrees>-6.2660313583910465240478515625</LongitudeDegrees>
            </Position>
            <AltitudeMeters>422</AltitudeMeters>
            <DistanceMeters>NAN</DistanceMeters>
          </Trackpoint>
          <Trackpoint>
            <Time>2019-10-09T08:53:30.000Z</Time>
            <Position>
              <LatitudeDegrees>39.17779703624546527862548828125</LatitudeDegrees>
              <LongitudeDegrees>-6.265989951789379119873046875</LongitudeDegrees>
            </Position>
            <AltitudeMeters>422.20001220703125</AltitudeMeters>
            <DistanceMeters>NAN</DistanceMeters>
          </Trackpoint>
          <Trackpoint>
            <Time>2019-10-09T08:53:40.000Z</Time>
            <Position>
              <LatitudeDegrees>39.1773548908531665802001953125</LatitudeDegrees>
              <LongitudeDegrees>-6.2658449448645114898681640625</LongitudeDegrees>
            </Position>
            <AltitudeMeters>422</AltitudeMeters>
            <DistanceMeters>NAN</DistanceMeters>
          </Trackpoint>
          <Trackpoint>
            <Time>2019-10-09T08:53:47.000Z</Time>
            <Position>
              <LatitudeDegrees>39.17698415927588939666748046875</LatitudeDegrees>
              <LongitudeDegrees>-6.2657222338020801544189453125</LongitudeDegrees>
            </Position>
            <AltitudeMeters>422.399993896484375</AltitudeMeters>
            <DistanceMeters>NAN</DistanceMeters>
          </Trackpoint>
          <Trackpoint>
            <Time>2019-10-09T08:53:57.000Z</Time>
            <Position>
              <LatitudeDegrees>39.17644218541681766510009765625</LatitudeDegrees>
              <LongitudeDegrees>-6.2655462138354778289794921875</LongitudeDegrees>
            </Position>
            <AltitudeMeters>422</AltitudeMeters>
            <DistanceMeters>NAN</DistanceMeters>
          </Trackpoint>
          <Trackpoint>
            <Time>2019-10-09T08:53:59.000Z</Time>
            <Position>
              <LatitudeDegrees>39.17633355595171451568603515625</LatitudeDegrees>
              <LongitudeDegrees>-6.2655103392899036407470703125</LongitudeDegrees>
            </Position>
            <AltitudeMeters>422.20001220703125</AltitudeMeters>
            <DistanceMeters>NAN</DistanceMeters>
          </Trackpoint>
          <Trackpoint>
            <Time>2019-10-09T08:54:08.000Z</Time>
            <Position>
              <LatitudeDegrees>39.1758406162261962890625</LatitudeDegrees>
              <LongitudeDegrees>-6.26535535790026187896728515625</LongitudeDegrees>
            </Position>
            <AltitudeMeters>422.399993896484375</AltitudeMeters>
            <DistanceMeters>NAN</DistanceMeters>
          </Trackpoint>
          <Trackpoint>
            <Time>2019-10-09T08:54:15.000Z</Time>
            <Position>
              <LatitudeDegrees>39.1754615865647792816162109375</LatitudeDegrees>
              <LongitudeDegrees>-6.26524823717772960662841796875</LongitudeDegrees>
            </Position>
            <AltitudeMeters>423.399993896484375</AltitudeMeters>
            <DistanceMeters>NAN</DistanceMeters>
          </Trackpoint>
          <Trackpoint>
            <Time>2019-10-09T08:54:17.000Z</Time>
            <Position>
              <LatitudeDegrees>39.1753553040325641632080078125</LatitudeDegrees>
              <LongitudeDegrees>-6.26522074453532695770263671875</LongitudeDegrees>
            </Position>
            <AltitudeMeters>423.79998779296875</AltitudeMeters>
            <DistanceMeters>NAN</DistanceMeters>
          </Trackpoint>
          <Trackpoint>
            <Time>2019-10-09T08:54:24.000Z</Time>
            <Position>
              <LatitudeDegrees>39.17501986026763916015625</LatitudeDegrees>
              <LongitudeDegrees>-6.26513156108558177947998046875</LongitudeDegrees>
            </Position>
            <AltitudeMeters>424.399993896484375</AltitudeMeters>
            <DistanceMeters>NAN</DistanceMeters>
          </Trackpoint>
          <Trackpoint>
            <Time>2019-10-09T08:54:26.000Z</Time>
            <Position>
              <LatitudeDegrees>39.17493243701756000518798828125</LatitudeDegrees>
              <LongitudeDegrees>-6.265110187232494354248046875</LongitudeDegrees>
            </Position>
            <AltitudeMeters>424.79998779296875</AltitudeMeters>
            <DistanceMeters>NAN</DistanceMeters>
          </Trackpoint>
          <Trackpoint>
            <Time>2019-10-09T08:54:29.000Z</Time>
            <Position>
              <LatitudeDegrees>39.17480251751840114593505859375</LatitudeDegrees>
              <LongitudeDegrees>-6.2650791741907596588134765625</LongitudeDegrees>
            </Position>
            <AltitudeMeters>425.399993896484375</AltitudeMeters>
            <DistanceMeters>NAN</DistanceMeters>
          </Trackpoint>
          <Trackpoint>
            <Time>2019-10-09T08:54:34.000Z</Time>
            <Position>
              <LatitudeDegrees>39.17458525858819484710693359375</LatitudeDegrees>
              <LongitudeDegrees>-6.26502444036304950714111328125</LongitudeDegrees>
            </Position>
            <AltitudeMeters>426.20001220703125</AltitudeMeters>
            <DistanceMeters>NAN</DistanceMeters>
          </Trackpoint>
          <Trackpoint>
            <Time>2019-10-09T08:54:37.000Z</Time>
            <Position>
              <LatitudeDegrees>39.1744534112513065338134765625</LatitudeDegrees>
              <LongitudeDegrees>-6.26499342732131481170654296875</LongitudeDegrees>
            </Position>
            <AltitudeMeters>426.79998779296875</AltitudeMeters>
            <DistanceMeters>NAN</DistanceMeters>
          </Trackpoint>
          <Trackpoint>
            <Time>2019-10-09T08:54:44.000Z</Time>
            <Position>
              <LatitudeDegrees>39.174169600009918212890625</LatitudeDegrees>
              <LongitudeDegrees>-6.2649346701800823211669921875</LongitudeDegrees>
            </Position>
            <AltitudeMeters>428.20001220703125</AltitudeMeters>
            <DistanceMeters>NAN</DistanceMeters>
          </Trackpoint>
          <Trackpoint>
            <Time>2019-10-09T08:54:45.000Z</Time>
            <Position>
              <LatitudeDegrees>39.17413079179823398590087890625</LatitudeDegrees>
              <LongitudeDegrees>-6.26492553390562534332275390625</LongitudeDegrees>
            </Position>
            <AltitudeMeters>428.20001220703125</AltitudeMeters>
            <DistanceMeters>NAN</DistanceMeters>
          </Trackpoint>
          <Trackpoint>
            <Time>2019-10-09T08:54:53.000Z</Time>
            <Position>
              <LatitudeDegrees>39.17382183484733104705810546875</LatitudeDegrees>
              <LongitudeDegrees>-6.2648568861186504364013671875</LongitudeDegrees>
            </Position>
            <AltitudeMeters>429.20001220703125</AltitudeMeters>
            <DistanceMeters>NAN</DistanceMeters>
          </Trackpoint>
          <Trackpoint>
            <Time>2019-10-09T08:55:00.000Z</Time>
            <Position>
              <LatitudeDegrees>39.17354992590844631195068359375</LatitudeDegrees>
              <LongitudeDegrees>-6.26480567269027233123779296875</LongitudeDegrees>
            </Position>
            <AltitudeMeters>430.20001220703125</AltitudeMeters>
            <DistanceMeters>NAN</DistanceMeters>
          </Trackpoint>
          <Trackpoint>
            <Time>2019-10-09T08:55:01.000Z</Time>
            <Position>
              <LatitudeDegrees>39.17351036332547664642333984375</LatitudeDegrees>
              <LongitudeDegrees>-6.26479863189160823822021484375</LongitudeDegrees>
            </Position>
            <AltitudeMeters>430.399993896484375</AltitudeMeters>
            <DistanceMeters>NAN</DistanceMeters>
          </Trackpoint>
          <Trackpoint>
            <Time>2019-10-09T08:55:08.000Z</Time>
            <Position>
              <LatitudeDegrees>39.17324130423367023468017578125</LatitudeDegrees>
              <LongitudeDegrees>-6.26474046148359775543212890625</LongitudeDegrees>
            </Position>
            <AltitudeMeters>431.399993896484375</AltitudeMeters>
            <DistanceMeters>NAN</DistanceMeters>
          </Trackpoint>
          <Trackpoint>
            <Time>2019-10-09T08:55:11.000Z</Time>
            <Position>
              <LatitudeDegrees>39.173127226531505584716796875</LatitudeDegrees>
              <LongitudeDegrees>-6.26471028663218021392822265625</LongitudeDegrees>
            </Position>
            <AltitudeMeters>431.600006103515625</AltitudeMeters>
            <DistanceMeters>NAN</DistanceMeters>
          </Trackpoint>
          <Trackpoint>
            <Time>2019-10-09T08:55:16.000Z</Time>
            <Position>
              <LatitudeDegrees>39.1729312576353549957275390625</LatitudeDegrees>
              <LongitudeDegrees>-6.264671646058559417724609375</LongitudeDegrees>
            </Position>
            <AltitudeMeters>432.600006103515625</AltitudeMeters>
            <DistanceMeters>NAN</DistanceMeters>
          </Trackpoint>
          <Trackpoint>
            <Time>2019-10-09T08:55:19.000Z</Time>
            <Position>
              <LatitudeDegrees>39.1728145815432071685791015625</LatitudeDegrees>
              <LongitudeDegrees>-6.26464758999645709991455078125</LongitudeDegrees>
            </Position>
            <AltitudeMeters>432.79998779296875</AltitudeMeters>
            <DistanceMeters>NAN</DistanceMeters>
          </Trackpoint>
          <Trackpoint>
            <Time>2019-10-09T08:55:27.000Z</Time>
            <Position>
              <LatitudeDegrees>39.172500930726528167724609375</LatitudeDegrees>
              <LongitudeDegrees>-6.264588832855224609375</LongitudeDegrees>
            </Position>
            <AltitudeMeters>433.79998779296875</AltitudeMeters>
            <DistanceMeters>NAN</DistanceMeters>
          </Trackpoint>
          <Trackpoint>
            <Time>2019-10-09T08:55:29.000Z</Time>
            <Position>
              <LatitudeDegrees>39.17242415249347686767578125</LatitudeDegrees>
              <LongitudeDegrees>-6.2645713984966278076171875</LongitudeDegrees>
            </Position>
            <AltitudeMeters>433.600006103515625</AltitudeMeters>
            <DistanceMeters>NAN</DistanceMeters>
          </Trackpoint>
          <Trackpoint>
            <Time>2019-10-09T08:55:34.000Z</Time>
            <Position>
              <LatitudeDegrees>39.17223514057695865631103515625</LatitudeDegrees>
              <LongitudeDegrees>-6.26453326083719730377197265625</LongitudeDegrees>
            </Position>
            <AltitudeMeters>434.79998779296875</AltitudeMeters>
            <DistanceMeters>NAN</DistanceMeters>
          </Trackpoint>
          <Trackpoint>
            <Time>2019-10-09T08:55:39.000Z</Time>
            <Position>
              <LatitudeDegrees>39.17204436846077442169189453125</LatitudeDegrees>
              <LongitudeDegrees>-6.2645004875957965850830078125</LongitudeDegrees>
            </Position>
            <AltitudeMeters>436</AltitudeMeters>
            <DistanceMeters>NAN</DistanceMeters>
          </Trackpoint>
          <Trackpoint>
            <Time>2019-10-09T08:55:50.000Z</Time>
            <Position>
              <LatitudeDegrees>39.17162342928349971771240234375</LatitudeDegrees>
              <LongitudeDegrees>-6.2644129805266857147216796875</LongitudeDegrees>
            </Position>
            <AltitudeMeters>437</AltitudeMeters>
            <DistanceMeters>NAN</DistanceMeters>
          </Trackpoint>
          <Trackpoint>
            <Time>2019-10-09T08:55:52.000Z</Time>
            <Position>
              <LatitudeDegrees>39.17154665105044841766357421875</LatitudeDegrees>
              <LongitudeDegrees>-6.26439562998712062835693359375</LongitudeDegrees>
            </Position>
            <AltitudeMeters>437.20001220703125</AltitudeMeters>
            <DistanceMeters>NAN</DistanceMeters>
          </Trackpoint>
          <Trackpoint>
            <Time>2019-10-09T08:55:55.000Z</Time>
            <Position>
              <LatitudeDegrees>39.1714325733482837677001953125</LatitudeDegrees>
              <LongitudeDegrees>-6.26437216065824031829833984375</LongitudeDegrees>
            </Position>
            <AltitudeMeters>437.600006103515625</AltitudeMeters>
            <DistanceMeters>NAN</DistanceMeters>
          </Trackpoint>
          <Trackpoint>
            <Time>2019-10-09T08:55:57.000Z</Time>
            <Position>
              <LatitudeDegrees>39.1713571362197399139404296875</LatitudeDegrees>
              <LongitudeDegrees>-6.26435891725122928619384765625</LongitudeDegrees>
            </Position>
            <AltitudeMeters>438</AltitudeMeters>
            <DistanceMeters>NAN</DistanceMeters>
          </Trackpoint>
          <Trackpoint>
            <Time>2019-10-09T08:56:02.000Z</Time>
            <Position>
              <LatitudeDegrees>39.1711697168648242950439453125</LatitudeDegrees>
              <LongitudeDegrees>-6.26432186923921108245849609375</LongitudeDegrees>
            </Position>
            <AltitudeMeters>438.79998779296875</AltitudeMeters>
            <DistanceMeters>NAN</DistanceMeters>
          </Trackpoint>
          <Trackpoint>
            <Time>2019-10-09T08:56:04.000Z</Time>
            <Position>
              <LatitudeDegrees>39.1710939444601535797119140625</LatitudeDegrees>
              <LongitudeDegrees>-6.26430611126124858856201171875</LongitudeDegrees>
            </Position>
            <AltitudeMeters>439.20001220703125</AltitudeMeters>
            <DistanceMeters>NAN</DistanceMeters>
          </Trackpoint>
          <Trackpoint>
            <Time>2019-10-09T08:56:12.000Z</Time>
            <Position>
              <LatitudeDegrees>39.170791022479534149169921875</LatitudeDegrees>
              <LongitudeDegrees>-6.26424215734004974365234375</LongitudeDegrees>
            </Position>
            <AltitudeMeters>440.20001220703125</AltitudeMeters>
            <DistanceMeters>NAN</DistanceMeters>
          </Trackpoint>
          <Trackpoint>
            <Time>2019-10-09T08:56:14.000Z</Time>
            <Position>
              <LatitudeDegrees>39.170716591179370880126953125</LatitudeDegrees>
              <LongitudeDegrees>-6.26422547735273838043212890625</LongitudeDegrees>
            </Position>
            <AltitudeMeters>440.600006103515625</AltitudeMeters>
            <DistanceMeters>NAN</DistanceMeters>
          </Trackpoint>
          <Trackpoint>
            <Time>2019-10-09T08:56:19.000Z</Time>
            <Position>
              <LatitudeDegrees>39.17052824981510639190673828125</LatitudeDegrees>
              <LongitudeDegrees>-6.2641876749694347381591796875</LongitudeDegrees>
            </Position>
            <AltitudeMeters>441.20001220703125</AltitudeMeters>
            <DistanceMeters>NAN</DistanceMeters>
          </Trackpoint>
          <Trackpoint>
            <Time>2019-10-09T08:56:24.000Z</Time>
            <Position>
              <LatitudeDegrees>39.170341081917285919189453125</LatitudeDegrees>
              <LongitudeDegrees>-6.26414836384356021881103515625</LongitudeDegrees>
            </Position>
            <AltitudeMeters>441.600006103515625</AltitudeMeters>
            <DistanceMeters>NAN</DistanceMeters>
          </Trackpoint>
          <Trackpoint>
            <Time>2019-10-09T08:56:29.000Z</Time>
            <Position>
              <LatitudeDegrees>39.1701543331146240234375</LatitudeDegrees>
              <LongitudeDegrees>-6.26410863362252712249755859375</LongitudeDegrees>
            </Position>
            <AltitudeMeters>442.399993896484375</AltitudeMeters>
            <DistanceMeters>NAN</DistanceMeters>
          </Trackpoint>
          <Trackpoint>
            <Time>2019-10-09T08:56:33.000Z</Time>
            <Position>
              <LatitudeDegrees>39.17000555433332920074462890625</LatitudeDegrees>
              <LongitudeDegrees>-6.2640820629894733428955078125</LongitudeDegrees>
            </Position>
            <AltitudeMeters>442.79998779296875</AltitudeMeters>
            <DistanceMeters>NAN</DistanceMeters>
          </Trackpoint>
          <Trackpoint>
            <Time>2019-10-09T08:56:35.000Z</Time>
            <Position>
              <LatitudeDegrees>39.1699276864528656005859375</LatitudeDegrees>
              <LongitudeDegrees>-6.26406169496476650238037109375</LongitudeDegrees>
            </Position>
            <AltitudeMeters>443.600006103515625</AltitudeMeters>
            <DistanceMeters>NAN</DistanceMeters>
          </Trackpoint>
          <Trackpoint>
            <Time>2019-10-09T08:56:42.000Z</Time>
            <Position>
              <LatitudeDegrees>39.16966407559812068939208984375</LatitudeDegrees>
              <LongitudeDegrees>-6.264021880924701690673828125</LongitudeDegrees>
            </Position>
            <AltitudeMeters>444.399993896484375</AltitudeMeters>
            <DistanceMeters>NAN</DistanceMeters>
          </Trackpoint>
          <Trackpoint>
            <Time>2019-10-09T08:56:44.000Z</Time>
            <Position>
              <LatitudeDegrees>39.16958914138376712799072265625</LatitudeDegrees>
              <LongitudeDegrees>-6.26400922425091266632080078125</LongitudeDegrees>
            </Position>
            <AltitudeMeters>444.600006103515625</AltitudeMeters>
            <DistanceMeters>NAN</DistanceMeters>
          </Trackpoint>
          <Trackpoint>
            <Time>2019-10-09T08:56:50.000Z</Time>
            <Position>
              <LatitudeDegrees>39.16936081834137439727783203125</LatitudeDegrees>
              <LongitudeDegrees>-6.26397737301886081695556640625</LongitudeDegrees>
            </Position>
            <AltitudeMeters>445.600006103515625</AltitudeMeters>
            <DistanceMeters>NAN</DistanceMeters>
          </Trackpoint>
          <Trackpoint>
            <Time>2019-10-09T08:56:53.000Z</Time>
            <Position>
              <LatitudeDegrees>39.1692462377250194549560546875</LatitudeDegrees>
              <LongitudeDegrees>-6.2639598548412322998046875</LongitudeDegrees>
            </Position>
            <AltitudeMeters>445.600006103515625</AltitudeMeters>
            <DistanceMeters>NAN</DistanceMeters>
          </Trackpoint>
          <Trackpoint>
            <Time>2019-10-09T08:56:59.000Z</Time>
            <Position>
              <LatitudeDegrees>39.1690172441303730010986328125</LatitudeDegrees>
              <LongitudeDegrees>-6.26393244601786136627197265625</LongitudeDegrees>
            </Position>
            <AltitudeMeters>446.79998779296875</AltitudeMeters>
            <DistanceMeters>NAN</DistanceMeters>
          </Trackpoint>
          <Trackpoint>
            <Time>2019-10-09T08:57:01.000Z</Time>
            <Position>
              <LatitudeDegrees>39.1689401306211948394775390625</LatitudeDegrees>
              <LongitudeDegrees>-6.26392590813338756561279296875</LongitudeDegrees>
            </Position>
            <AltitudeMeters>447</AltitudeMeters>
            <DistanceMeters>NAN</DistanceMeters>
          </Trackpoint>
          <Trackpoint>
            <Time>2019-10-09T08:57:09.000Z</Time>
            <Position>
              <LatitudeDegrees>39.16863687336444854736328125</LatitudeDegrees>
              <LongitudeDegrees>-6.26390260644257068634033203125</LongitudeDegrees>
            </Position>
            <AltitudeMeters>448</AltitudeMeters>
            <DistanceMeters>NAN</DistanceMeters>
          </Trackpoint>
          <Trackpoint>
            <Time>2019-10-09T08:57:10.000Z</Time>
            <Position>
              <LatitudeDegrees>39.1685998253524303436279296875</LatitudeDegrees>
              <LongitudeDegrees>-6.2639008462429046630859375</LongitudeDegrees>
            </Position>
            <AltitudeMeters>448</AltitudeMeters>
            <DistanceMeters>NAN</DistanceMeters>
          </Trackpoint>
          <Trackpoint>
            <Time>2019-10-09T08:57:18.000Z</Time>
            <Position>
              <LatitudeDegrees>39.16828910820186138153076171875</LatitudeDegrees>
              <LongitudeDegrees>-6.26389749348163604736328125</LongitudeDegrees>
            </Position>
            <AltitudeMeters>449.20001220703125</AltitudeMeters>
            <DistanceMeters>NAN</DistanceMeters>
          </Trackpoint>
          <Trackpoint>
            <Time>2019-10-09T08:57:19.000Z</Time>
            <Position>
              <LatitudeDegrees>39.16824887506663799285888671875</LatitudeDegrees>
              <LongitudeDegrees>-6.26389623619616031646728515625</LongitudeDegrees>
            </Position>
            <AltitudeMeters>449.20001220703125</AltitudeMeters>
            <DistanceMeters>NAN</DistanceMeters>
          </Trackpoint>
          <Trackpoint>
            <Time>2019-10-09T08:57:27.000Z</Time>
            <Position>
              <LatitudeDegrees>39.16791125200688838958740234375</LatitudeDegrees>
              <LongitudeDegrees>-6.26388810575008392333984375</LongitudeDegrees>
            </Position>
            <AltitudeMeters>449.79998779296875</AltitudeMeters>
            <DistanceMeters>NAN</DistanceMeters>
          </Trackpoint>
          <Trackpoint>
            <Time>2019-10-09T08:57:34.000Z</Time>
            <Position>
              <LatitudeDegrees>39.1675882972776889801025390625</LatitudeDegrees>
              <LongitudeDegrees>-6.26388332806527614593505859375</LongitudeDegrees>
            </Position>
            <AltitudeMeters>449.600006103515625</AltitudeMeters>
            <DistanceMeters>NAN</DistanceMeters>
          </Trackpoint>
          <Trackpoint>
            <Time>2019-10-09T08:57:41.000Z</Time>
            <Position>
              <LatitudeDegrees>39.167247153818607330322265625</LatitudeDegrees>
              <LongitudeDegrees>-6.263888776302337646484375</LongitudeDegrees>
            </Position>
            <AltitudeMeters>449.399993896484375</AltitudeMeters>
            <DistanceMeters>NAN</DistanceMeters>
          </Trackpoint>
          <Trackpoint>
            <Time>2019-10-09T08:57:45.000Z</Time>
            <Position>
              <LatitudeDegrees>39.167032577097415924072265625</LatitudeDegrees>
              <LongitudeDegrees>-6.26389623619616031646728515625</LongitudeDegrees>
            </Position>
            <AltitudeMeters>449.20001220703125</AltitudeMeters>
            <DistanceMeters>NAN</DistanceMeters>
          </Trackpoint>
          <Trackpoint>
            <Time>2019-10-09T08:57:51.000Z</Time>
            <Position>
              <LatitudeDegrees>39.16665866039693355560302734375</LatitudeDegrees>
              <LongitudeDegrees>-6.26392741687595844268798828125</LongitudeDegrees>
            </Position>
            <AltitudeMeters>448.79998779296875</AltitudeMeters>
            <DistanceMeters>NAN</DistanceMeters>
          </Trackpoint>
          <Trackpoint>
            <Time>2019-10-09T08:57:53.000Z</Time>
            <Position>
              <LatitudeDegrees>39.16652874089777469635009765625</LatitudeDegrees>
              <LongitudeDegrees>-6.2639410793781280517578125</LongitudeDegrees>
            </Position>
            <AltitudeMeters>448</AltitudeMeters>
            <DistanceMeters>NAN</DistanceMeters>
          </Trackpoint>
          <Trackpoint>
            <Time>2019-10-09T08:57:59.000Z</Time>
            <Position>
              <LatitudeDegrees>39.16613495908677577972412109375</LatitudeDegrees>
              <LongitudeDegrees>-6.26400251872837543487548828125</LongitudeDegrees>
            </Position>
            <AltitudeMeters>447.600006103515625</AltitudeMeters>
            <DistanceMeters>NAN</DistanceMeters>
          </Trackpoint>
          <Trackpoint>
            <Time>2019-10-09T08:58:04.000Z</Time>
            <Position>
              <LatitudeDegrees>39.1658086515963077545166015625</LatitudeDegrees>
              <LongitudeDegrees>-6.2640723399817943572998046875</LongitudeDegrees>
            </Position>
            <AltitudeMeters>447.399993896484375</AltitudeMeters>
            <DistanceMeters>NAN</DistanceMeters>
          </Trackpoint>
          <Trackpoint>
            <Time>2019-10-09T08:58:06.000Z</Time>
            <Position>
              <LatitudeDegrees>39.16567915119230747222900390625</LatitudeDegrees>
              <LongitudeDegrees>-6.2640984915196895599365234375</LongitudeDegrees>
            </Position>
            <AltitudeMeters>447</AltitudeMeters>
            <DistanceMeters>NAN</DistanceMeters>
          </Trackpoint>
          <Trackpoint>
            <Time>2019-10-09T08:58:07.000Z</Time>
            <Position>
              <LatitudeDegrees>39.16561343707144260406494140625</LatitudeDegrees>
              <LongitudeDegrees>-6.264108717441558837890625</LongitudeDegrees>
            </Position>
            <AltitudeMeters>447</AltitudeMeters>
            <DistanceMeters>NAN</DistanceMeters>
          </Trackpoint>
          <Trackpoint>
            <Time>2019-10-09T08:58:15.000Z</Time>
            <Position>
              <LatitudeDegrees>39.16507967747747898101806640625</LatitudeDegrees>
              <LongitudeDegrees>-6.2642198614776134490966796875</LongitudeDegrees>
            </Position>
            <AltitudeMeters>446</AltitudeMeters>
            <DistanceMeters>NAN</DistanceMeters>
          </Trackpoint>
          <Trackpoint>
            <Time>2019-10-09T08:58:16.000Z</Time>
            <Position>
              <LatitudeDegrees>39.16501295752823352813720703125</LatitudeDegrees>
              <LongitudeDegrees>-6.26423503272235393524169921875</LongitudeDegrees>
            </Position>
            <AltitudeMeters>445.79998779296875</AltitudeMeters>
            <DistanceMeters>NAN</DistanceMeters>
          </Trackpoint>
          <Trackpoint>
            <Time>2019-10-09T08:58:17.000Z</Time>
            <Position>
              <LatitudeDegrees>39.1649456508457660675048828125</LatitudeDegrees>
              <LongitudeDegrees>-6.26424894668161869049072265625</LongitudeDegrees>
            </Position>
            <AltitudeMeters>445.79998779296875</AltitudeMeters>
            <DistanceMeters>NAN</DistanceMeters>
          </Trackpoint>
          <Trackpoint>
            <Time>2019-10-09T08:58:19.000Z</Time>
            <Position>
              <LatitudeDegrees>39.1648125462234020233154296875</LatitudeDegrees>
              <LongitudeDegrees>-6.2642771936953067779541015625</LongitudeDegrees>
            </Position>
            <AltitudeMeters>445.600006103515625</AltitudeMeters>
            <DistanceMeters>NAN</DistanceMeters>
          </Trackpoint>
          <Trackpoint>
            <Time>2019-10-09T08:58:23.000Z</Time>
            <Position>
              <LatitudeDegrees>39.16454507969319820404052734375</LatitudeDegrees>
              <LongitudeDegrees>-6.2643328495323657989501953125</LongitudeDegrees>
            </Position>
            <AltitudeMeters>445.399993896484375</AltitudeMeters>
            <DistanceMeters>NAN</DistanceMeters>
          </Trackpoint>
          <Trackpoint>
            <Time>2019-10-09T08:58:25.000Z</Time>
            <Position>
              <LatitudeDegrees>39.16441163979470729827880859375</LatitudeDegrees>
              <LongitudeDegrees>-6.26435807906091213226318359375</LongitudeDegrees>
            </Position>
            <AltitudeMeters>445.20001220703125</AltitudeMeters>
            <DistanceMeters>NAN</DistanceMeters>
          </Trackpoint>
          <Trackpoint>
            <Time>2019-10-09T08:58:27.000Z</Time>
            <Position>
              <LatitudeDegrees>39.1642762720584869384765625</LatitudeDegrees>
              <LongitudeDegrees>-6.26438573934137821197509765625</LongitudeDegrees>
            </Position>
            <AltitudeMeters>445.399993896484375</AltitudeMeters>
            <DistanceMeters>NAN</DistanceMeters>
          </Trackpoint>
          <Trackpoint>
            <Time>2019-10-09T08:58:30.000Z</Time>
            <Position>
              <LatitudeDegrees>39.16407175362110137939453125</LatitudeDegrees>
              <LongitudeDegrees>-6.26442245207726955413818359375</LongitudeDegrees>
            </Position>
            <AltitudeMeters>445</AltitudeMeters>
            <DistanceMeters>NAN</DistanceMeters>
          </Trackpoint>
          <Trackpoint>
            <Time>2019-10-09T08:58:34.000Z</Time>
            <Position>
              <LatitudeDegrees>39.163800179958343505859375</LatitudeDegrees>
              <LongitudeDegrees>-6.26448347233235836029052734375</LongitudeDegrees>
            </Position>
            <AltitudeMeters>444.79998779296875</AltitudeMeters>
            <DistanceMeters>NAN</DistanceMeters>
          </Trackpoint>
          <Trackpoint>
            <Time>2019-10-09T08:58:36.000Z</Time>
            <Position>
              <LatitudeDegrees>39.16366900317370891571044921875</LatitudeDegrees>
              <LongitudeDegrees>-6.26452420838177204132080078125</LongitudeDegrees>
            </Position>
            <AltitudeMeters>444.600006103515625</AltitudeMeters>
            <DistanceMeters>NAN</DistanceMeters>
          </Trackpoint>
          <Trackpoint>
            <Time>2019-10-09T08:58:38.000Z</Time>
            <Position>
              <LatitudeDegrees>39.163551740348339080810546875</LatitudeDegrees>
              <LongitudeDegrees>-6.26459646038711071014404296875</LongitudeDegrees>
            </Position>
            <AltitudeMeters>445.20001220703125</AltitudeMeters>
            <DistanceMeters>NAN</DistanceMeters>
          </Trackpoint>
          <Trackpoint>
            <Time>2019-10-09T08:58:40.000Z</Time>
            <Position>
              <LatitudeDegrees>39.1634555160999298095703125</LatitudeDegrees>
              <LongitudeDegrees>-6.26470073126256465911865234375</LongitudeDegrees>
            </Position>
            <AltitudeMeters>444.79998779296875</AltitudeMeters>
            <DistanceMeters>NAN</DistanceMeters>
          </Trackpoint>
          <Trackpoint>
            <Time>2019-10-09T08:58:43.000Z</Time>
            <Position>
              <LatitudeDegrees>39.16336541064083576202392578125</LatitudeDegrees>
              <LongitudeDegrees>-6.26488831825554370880126953125</LongitudeDegrees>
            </Position>
            <AltitudeMeters>445.20001220703125</AltitudeMeters>
            <DistanceMeters>NAN</DistanceMeters>
          </Trackpoint>
          <Trackpoint>
            <Time>2019-10-09T08:58:44.000Z</Time>
            <Position>
              <LatitudeDegrees>39.1633219085633754730224609375</LatitudeDegrees>
              <LongitudeDegrees>-6.264934502542018890380859375</LongitudeDegrees>
            </Position>
            <AltitudeMeters>445.399993896484375</AltitudeMeters>
            <DistanceMeters>NAN</DistanceMeters>
          </Trackpoint>
          <Trackpoint>
            <Time>2019-10-09T08:58:46.000Z</Time>
            <Position>
              <LatitudeDegrees>39.1632126085460186004638671875</LatitudeDegrees>
              <LongitudeDegrees>-6.26498236320912837982177734375</LongitudeDegrees>
            </Position>
            <AltitudeMeters>445.79998779296875</AltitudeMeters>
            <DistanceMeters>NAN</DistanceMeters>
          </Trackpoint>
          <Trackpoint>
            <Time>2019-10-09T08:58:47.000Z</Time>
            <Position>
              <LatitudeDegrees>39.163154102861881256103515625</LatitudeDegrees>
              <LongitudeDegrees>-6.264986805617809295654296875</LongitudeDegrees>
            </Position>
            <AltitudeMeters>446.20001220703125</AltitudeMeters>
            <DistanceMeters>NAN</DistanceMeters>
          </Trackpoint>
          <Trackpoint>
            <Time>2019-10-09T08:58:50.000Z</Time>
            <Position>
              <LatitudeDegrees>39.16299073956906795501708984375</LatitudeDegrees>
              <LongitudeDegrees>-6.264892928302288055419921875</LongitudeDegrees>
            </Position>
            <AltitudeMeters>445.79998779296875</AltitudeMeters>
            <DistanceMeters>NAN</DistanceMeters>
          </Trackpoint>
          <Trackpoint>
            <Time>2019-10-09T08:58:53.000Z</Time>
            <Position>
              <LatitudeDegrees>39.162822850048542022705078125</LatitudeDegrees>
              <LongitudeDegrees>-6.264772899448871612548828125</LongitudeDegrees>
            </Position>
            <AltitudeMeters>444.399993896484375</AltitudeMeters>
            <DistanceMeters>NAN</DistanceMeters>
          </Trackpoint>
          <Trackpoint>
            <Time>2019-10-09T08:58:54.000Z</Time>
            <Position>
              <LatitudeDegrees>39.16275420226156711578369140625</LatitudeDegrees>
              <LongitudeDegrees>-6.264760829508304595947265625</LongitudeDegrees>
            </Position>
            <AltitudeMeters>444.399993896484375</AltitudeMeters>
            <DistanceMeters>NAN</DistanceMeters>
          </Trackpoint>
          <Trackpoint>
            <Time>2019-10-09T08:58:57.000Z</Time>
            <Position>
              <LatitudeDegrees>39.16255052201449871063232421875</LatitudeDegrees>
              <LongitudeDegrees>-6.26483760774135589599609375</LongitudeDegrees>
            </Position>
            <AltitudeMeters>443.79998779296875</AltitudeMeters>
            <DistanceMeters>NAN</DistanceMeters>
          </Trackpoint>
          <Trackpoint>
            <Time>2019-10-09T08:58:58.000Z</Time>
            <Position>
              <LatitudeDegrees>39.16248396970331668853759765625</LatitudeDegrees>
              <LongitudeDegrees>-6.264878176152706146240234375</LongitudeDegrees>
            </Position>
            <AltitudeMeters>443.79998779296875</AltitudeMeters>
            <DistanceMeters>NAN</DistanceMeters>
          </Trackpoint>
          <Trackpoint>
            <Time>2019-10-09T08:59:00.000Z</Time>
            <Position>
              <LatitudeDegrees>39.16235153563320636749267578125</LatitudeDegrees>
              <LongitudeDegrees>-6.2649678625166416168212890625</LongitudeDegrees>
            </Position>
            <AltitudeMeters>443.20001220703125</AltitudeMeters>
            <DistanceMeters>NAN</DistanceMeters>
          </Trackpoint>
          <Trackpoint>
            <Time>2019-10-09T08:59:04.000Z</Time>
            <Position>
              <LatitudeDegrees>39.16207325644791126251220703125</LatitudeDegrees>
              <LongitudeDegrees>-6.265139691531658172607421875</LongitudeDegrees>
            </Position>
            <AltitudeMeters>442</AltitudeMeters>
            <DistanceMeters>NAN</DistanceMeters>
          </Trackpoint>
          <Trackpoint>
            <Time>2019-10-09T08:59:08.000Z</Time>
            <Position>
              <LatitudeDegrees>39.16178626008331775665283203125</LatitudeDegrees>
              <LongitudeDegrees>-6.26531529240310192108154296875</LongitudeDegrees>
            </Position>
            <AltitudeMeters>441.20001220703125</AltitudeMeters>
            <DistanceMeters>NAN</DistanceMeters>
          </Trackpoint>
          <Trackpoint>
            <Time>2019-10-09T08:59:09.000Z</Time>
            <Position>
              <LatitudeDegrees>39.16171568445861339569091796875</LatitudeDegrees>
              <LongitudeDegrees>-6.26535795629024505615234375</LongitudeDegrees>
            </Position>
            <AltitudeMeters>441</AltitudeMeters>
            <DistanceMeters>NAN</DistanceMeters>
          </Trackpoint>
          <Trackpoint>
            <Time>2019-10-09T08:59:10.000Z</Time>
            <Position>
              <LatitudeDegrees>39.16164745576679706573486328125</LatitudeDegrees>
              <LongitudeDegrees>-6.265407241880893707275390625</LongitudeDegrees>
            </Position>
            <AltitudeMeters>440.79998779296875</AltitudeMeters>
            <DistanceMeters>NAN</DistanceMeters>
          </Trackpoint>
          <Trackpoint>
            <Time>2019-10-09T08:59:12.000Z</Time>
            <Position>
              <LatitudeDegrees>39.16150462813675403594970703125</LatitudeDegrees>
              <LongitudeDegrees>-6.2655006162822246551513671875</LongitudeDegrees>
            </Position>
            <AltitudeMeters>441</AltitudeMeters>
            <DistanceMeters>NAN</DistanceMeters>
          </Trackpoint>
          <Trackpoint>
            <Time>2019-10-09T08:59:19.000Z</Time>
            <Position>
              <LatitudeDegrees>39.16102400980889797210693359375</LatitudeDegrees>
              <LongitudeDegrees>-6.265804879367351531982421875</LongitudeDegrees>
            </Position>
            <AltitudeMeters>441</AltitudeMeters>
            <DistanceMeters>NAN</DistanceMeters>
          </Trackpoint>
          <Trackpoint>
            <Time>2019-10-09T08:59:20.000Z</Time>
            <Position>
              <LatitudeDegrees>39.160960055887699127197265625</LatitudeDegrees>
              <LongitudeDegrees>-6.265845112502574920654296875</LongitudeDegrees>
            </Position>
            <AltitudeMeters>441</AltitudeMeters>
            <DistanceMeters>NAN</DistanceMeters>
          </Trackpoint>
          <Trackpoint>
            <Time>2019-10-09T08:59:21.000Z</Time>
            <Position>
              <LatitudeDegrees>39.16089559905230998992919921875</LatitudeDegrees>
              <LongitudeDegrees>-6.26588366925716400146484375</LongitudeDegrees>
            </Position>
            <AltitudeMeters>441.399993896484375</AltitudeMeters>
            <DistanceMeters>NAN</DistanceMeters>
          </Trackpoint>
          <Trackpoint>
            <Time>2019-10-09T08:59:26.000Z</Time>
            <Position>
              <LatitudeDegrees>39.1605820320546627044677734375</LatitudeDegrees>
              <LongitudeDegrees>-6.26607771031558513641357421875</LongitudeDegrees>
            </Position>
            <AltitudeMeters>440.79998779296875</AltitudeMeters>
            <DistanceMeters>NAN</DistanceMeters>
          </Trackpoint>
          <Trackpoint>
            <Time>2019-10-09T08:59:27.000Z</Time>
            <Position>
              <LatitudeDegrees>39.16052109561860561370849609375</LatitudeDegrees>
              <LongitudeDegrees>-6.26611660234630107879638671875</LongitudeDegrees>
            </Position>
            <AltitudeMeters>440.79998779296875</AltitudeMeters>
            <DistanceMeters>NAN</DistanceMeters>
          </Trackpoint>
          <Trackpoint>
            <Time>2019-10-09T08:59:29.000Z</Time>
            <Position>
              <LatitudeDegrees>39.16039888747036457061767578125</LatitudeDegrees>
              <LongitudeDegrees>-6.26619203947484493255615234375</LongitudeDegrees>
            </Position>
            <AltitudeMeters>440.79998779296875</AltitudeMeters>
            <DistanceMeters>NAN</DistanceMeters>
          </Trackpoint>
          <Trackpoint>
            <Time>2019-10-09T08:59:30.000Z</Time>
            <Position>
              <LatitudeDegrees>39.1603396274149417877197265625</LatitudeDegrees>
              <LongitudeDegrees>-6.26623093150556087493896484375</LongitudeDegrees>
            </Position>
            <AltitudeMeters>440.79998779296875</AltitudeMeters>
            <DistanceMeters>NAN</DistanceMeters>
          </Trackpoint>
          <Trackpoint>
            <Time>2019-10-09T08:59:31.000Z</Time>
            <Position>
              <LatitudeDegrees>39.1602797806262969970703125</LatitudeDegrees>
              <LongitudeDegrees>-6.26626764424145221710205078125</LongitudeDegrees>
            </Position>
            <AltitudeMeters>441</AltitudeMeters>
            <DistanceMeters>NAN</DistanceMeters>
          </Trackpoint>
          <Trackpoint>
            <Time>2019-10-09T08:59:36.000Z</Time>
            <Position>
              <LatitudeDegrees>39.15998834185302257537841796875</LatitudeDegrees>
              <LongitudeDegrees>-6.2664434127509593963623046875</LongitudeDegrees>
            </Position>
            <AltitudeMeters>441.20001220703125</AltitudeMeters>
            <DistanceMeters>NAN</DistanceMeters>
          </Trackpoint>
          <Trackpoint>
            <Time>2019-10-09T08:59:37.000Z</Time>
            <Position>
              <LatitudeDegrees>39.15993050672113895416259765625</LatitudeDegrees>
              <LongitudeDegrees>-6.266478784382343292236328125</LongitudeDegrees>
            </Position>
            <AltitudeMeters>441.20001220703125</AltitudeMeters>
            <DistanceMeters>NAN</DistanceMeters>
          </Trackpoint>
          <Trackpoint>
            <Time>2019-10-09T08:59:38.000Z</Time>
            <Position>
              <LatitudeDegrees>39.159874431788921356201171875</LatitudeDegrees>
              <LongitudeDegrees>-6.26651625148952007293701171875</LongitudeDegrees>
            </Position>
            <AltitudeMeters>441.399993896484375</AltitudeMeters>
            <DistanceMeters>NAN</DistanceMeters>
          </Trackpoint>
          <Trackpoint>
            <Time>2019-10-09T08:59:40.000Z</Time>
            <Position>
              <LatitudeDegrees>39.15976203046739101409912109375</LatitudeDegrees>
              <LongitudeDegrees>-6.26658816821873188018798828125</LongitudeDegrees>
            </Position>
            <AltitudeMeters>441.20001220703125</AltitudeMeters>
            <DistanceMeters>NAN</DistanceMeters>
          </Trackpoint>
          <Trackpoint>
            <Time>2019-10-09T08:59:45.000Z</Time>
            <Position>
              <LatitudeDegrees>39.15948358364403247833251953125</LatitudeDegrees>
              <LongitudeDegrees>-6.26676402054727077484130859375</LongitudeDegrees>
            </Position>
            <AltitudeMeters>441.600006103515625</AltitudeMeters>
            <DistanceMeters>NAN</DistanceMeters>
          </Trackpoint>
          <Trackpoint>
            <Time>2019-10-09T08:59:46.000Z</Time>
            <Position>
              <LatitudeDegrees>39.15942943654954433441162109375</LatitudeDegrees>
              <LongitudeDegrees>-6.26679897308349609375</LongitudeDegrees>
            </Position>
            <AltitudeMeters>442</AltitudeMeters>
            <DistanceMeters>NAN</DistanceMeters>
          </Trackpoint>
          <Trackpoint>
            <Time>2019-10-09T08:59:48.000Z</Time>
            <Position>
              <LatitudeDegrees>39.15931996889412403106689453125</LatitudeDegrees>
              <LongitudeDegrees>-6.26686460338532924652099609375</LongitudeDegrees>
            </Position>
            <AltitudeMeters>441.79998779296875</AltitudeMeters>
            <DistanceMeters>NAN</DistanceMeters>
          </Trackpoint>
          <Trackpoint>
            <Time>2019-10-09T08:59:56.000Z</Time>
            <Position>
              <LatitudeDegrees>39.1588751412928104400634765625</LatitudeDegrees>
              <LongitudeDegrees>-6.26714237965643405914306640625</LongitudeDegrees>
            </Position>
            <AltitudeMeters>442</AltitudeMeters>
            <DistanceMeters>NAN</DistanceMeters>
          </Trackpoint>
          <Trackpoint>
            <Time>2019-10-09T09:00:01.000Z</Time>
            <Position>
              <LatitudeDegrees>39.1585898213088512420654296875</LatitudeDegrees>
              <LongitudeDegrees>-6.2673099339008331298828125</LongitudeDegrees>
            </Position>
            <AltitudeMeters>442.600006103515625</AltitudeMeters>
            <DistanceMeters>NAN</DistanceMeters>
          </Trackpoint>
          <Trackpoint>
            <Time>2019-10-09T09:00:05.000Z</Time>
            <Position>
              <LatitudeDegrees>39.1583682037889957427978515625</LatitudeDegrees>
              <LongitudeDegrees>-6.26744328998029232025146484375</LongitudeDegrees>
            </Position>
            <AltitudeMeters>442.399993896484375</AltitudeMeters>
            <DistanceMeters>NAN</DistanceMeters>
          </Trackpoint>
          <Trackpoint>
            <Time>2019-10-09T09:00:14.000Z</Time>
            <Position>
              <LatitudeDegrees>39.15786906145513057708740234375</LatitudeDegrees>
              <LongitudeDegrees>-6.26774244010448455810546875</LongitudeDegrees>
            </Position>
            <AltitudeMeters>442.79998779296875</AltitudeMeters>
            <DistanceMeters>NAN</DistanceMeters>
          </Trackpoint>
          <Trackpoint>
            <Time>2019-10-09T09:00:19.000Z</Time>
            <Position>
              <LatitudeDegrees>39.157593213021755218505859375</LatitudeDegrees>
              <LongitudeDegrees>-6.26790873706340789794921875</LongitudeDegrees>
            </Position>
            <AltitudeMeters>443.20001220703125</AltitudeMeters>
            <DistanceMeters>NAN</DistanceMeters>
          </Trackpoint>
          <Trackpoint>
            <Time>2019-10-09T09:00:20.000Z</Time>
            <Position>
              <LatitudeDegrees>39.1575372219085693359375</LatitudeDegrees>
              <LongitudeDegrees>-6.2679404206573963165283203125</LongitudeDegrees>
            </Position>
            <AltitudeMeters>443</AltitudeMeters>
            <DistanceMeters>NAN</DistanceMeters>
          </Trackpoint>
          <Trackpoint>
            <Time>2019-10-09T09:00:29.000Z</Time>
            <Position>
              <LatitudeDegrees>39.15703095495700836181640625</LatitudeDegrees>
              <LongitudeDegrees>-6.268233954906463623046875</LongitudeDegrees>
            </Position>
            <AltitudeMeters>443.20001220703125</AltitudeMeters>
            <DistanceMeters>NAN</DistanceMeters>
          </Trackpoint>
          <Trackpoint>
            <Time>2019-10-09T09:00:30.000Z</Time>
            <Position>
              <LatitudeDegrees>39.1569751314818859100341796875</LatitudeDegrees>
              <LongitudeDegrees>-6.26826253719627857208251953125</LongitudeDegrees>
            </Position>
            <AltitudeMeters>443.399993896484375</AltitudeMeters>
            <DistanceMeters>NAN</DistanceMeters>
          </Trackpoint>
          <Trackpoint>
            <Time>2019-10-09T09:00:39.000Z</Time>
            <Position>
              <LatitudeDegrees>39.15647833608090877532958984375</LatitudeDegrees>
              <LongitudeDegrees>-6.26854668371379375457763671875</LongitudeDegrees>
            </Position>
            <AltitudeMeters>444</AltitudeMeters>
            <DistanceMeters>NAN</DistanceMeters>
          </Trackpoint>
          <Trackpoint>
            <Time>2019-10-09T09:00:40.000Z</Time>
            <Position>
              <LatitudeDegrees>39.1564229317009449005126953125</LatitudeDegrees>
              <LongitudeDegrees>-6.268576942384243011474609375</LongitudeDegrees>
            </Position>
            <AltitudeMeters>444.20001220703125</AltitudeMeters>
            <DistanceMeters>NAN</DistanceMeters>
          </Trackpoint>
          <Trackpoint>
            <Time>2019-10-09T09:00:48.000Z</Time>
            <Position>
              <LatitudeDegrees>39.15600576438009738922119140625</LatitudeDegrees>
              <LongitudeDegrees>-6.268810965120792388916015625</LongitudeDegrees>
            </Position>
            <AltitudeMeters>445</AltitudeMeters>
            <DistanceMeters>NAN</DistanceMeters>
          </Trackpoint>
          <Trackpoint>
            <Time>2019-10-09T09:00:49.000Z</Time>
            <Position>
              <LatitudeDegrees>39.15595497004687786102294921875</LatitudeDegrees>
              <LongitudeDegrees>-6.26883854158222675323486328125</LongitudeDegrees>
            </Position>
            <AltitudeMeters>445.399993896484375</AltitudeMeters>
            <DistanceMeters>NAN</DistanceMeters>
          </Trackpoint>
          <Trackpoint>
            <Time>2019-10-09T09:00:54.000Z</Time>
            <Position>
              <LatitudeDegrees>39.15570870973169803619384765625</LatitudeDegrees>
              <LongitudeDegrees>-6.26897768117487430572509765625</LongitudeDegrees>
            </Position>
            <AltitudeMeters>445.79998779296875</AltitudeMeters>
            <DistanceMeters>NAN</DistanceMeters>
          </Trackpoint>
          <Trackpoint>
            <Time>2019-10-09T09:00:56.000Z</Time>
            <Position>
              <LatitudeDegrees>39.15561432950198650360107421875</LatitudeDegrees>
              <LongitudeDegrees>-6.26902847550809383392333984375</LongitudeDegrees>
            </Position>
            <AltitudeMeters>446</AltitudeMeters>
            <DistanceMeters>NAN</DistanceMeters>
          </Trackpoint>
          <Trackpoint>
            <Time>2019-10-09T09:00:58.000Z</Time>
            <Position>
              <LatitudeDegrees>39.1555257327854633331298828125</LatitudeDegrees>
              <LongitudeDegrees>-6.26907549798488616943359375</LongitudeDegrees>
            </Position>
            <AltitudeMeters>446.79998779296875</AltitudeMeters>
            <DistanceMeters>NAN</DistanceMeters>
          </Trackpoint>
          <Trackpoint>
            <Time>2019-10-09T09:01:04.000Z</Time>
            <Position>
              <LatitudeDegrees>39.1552876867353916168212890625</LatitudeDegrees>
              <LongitudeDegrees>-6.26920969225466251373291015625</LongitudeDegrees>
            </Position>
            <AltitudeMeters>448</AltitudeMeters>
            <DistanceMeters>NAN</DistanceMeters>
          </Trackpoint>
          <Trackpoint>
            <Time>2019-10-09T09:01:09.000Z</Time>
            <Position>
              <LatitudeDegrees>39.15509817190468311309814453125</LatitudeDegrees>
              <LongitudeDegrees>-6.269315220415592193603515625</LongitudeDegrees>
            </Position>
            <AltitudeMeters>448.79998779296875</AltitudeMeters>
            <DistanceMeters>NAN</DistanceMeters>
          </Trackpoint>
          <Trackpoint>
            <Time>2019-10-09T09:01:10.000Z</Time>
            <Position>
              <LatitudeDegrees>39.155060537159442901611328125</LatitudeDegrees>
              <LongitudeDegrees>-6.269336007535457611083984375</LongitudeDegrees>
            </Position>
            <AltitudeMeters>449.20001220703125</AltitudeMeters>
            <DistanceMeters>NAN</DistanceMeters>
          </Trackpoint>
          <Trackpoint>
            <Time>2019-10-09T09:01:12.000Z</Time>
            <Position>
              <LatitudeDegrees>39.15498585440218448638916015625</LatitudeDegrees>
              <LongitudeDegrees>-6.26937800087034702301025390625</LongitudeDegrees>
            </Position>
            <AltitudeMeters>449.79998779296875</AltitudeMeters>
            <DistanceMeters>NAN</DistanceMeters>
          </Trackpoint>
          <Trackpoint>
            <Time>2019-10-09T09:01:18.000Z</Time>
            <Position>
              <LatitudeDegrees>39.15475686080753803253173828125</LatitudeDegrees>
              <LongitudeDegrees>-6.26950507052242755889892578125</LongitudeDegrees>
            </Position>
            <AltitudeMeters>450.399993896484375</AltitudeMeters>
            <DistanceMeters>NAN</DistanceMeters>
          </Trackpoint>
          <Trackpoint>
            <Time>2019-10-09T09:01:21.000Z</Time>
            <Position>
              <LatitudeDegrees>39.1546337306499481201171875</LatitudeDegrees>
              <LongitudeDegrees>-6.2695621512830257415771484375</LongitudeDegrees>
            </Position>
            <AltitudeMeters>451.20001220703125</AltitudeMeters>
            <DistanceMeters>NAN</DistanceMeters>
          </Trackpoint>
          <Trackpoint>
            <Time>2019-10-09T09:01:25.000Z</Time>
            <Position>
              <LatitudeDegrees>39.15446617640554904937744140625</LatitudeDegrees>
              <LongitudeDegrees>-6.269637085497379302978515625</LongitudeDegrees>
            </Position>
            <AltitudeMeters>451.600006103515625</AltitudeMeters>
            <DistanceMeters>NAN</DistanceMeters>
          </Trackpoint>
          <Trackpoint>
            <Time>2019-10-09T09:01:30.000Z</Time>
            <Position>
              <LatitudeDegrees>39.15425210259854793548583984375</LatitudeDegrees>
              <LongitudeDegrees>-6.26971998251974582672119140625</LongitudeDegrees>
            </Position>
            <AltitudeMeters>452.20001220703125</AltitudeMeters>
            <DistanceMeters>NAN</DistanceMeters>
          </Trackpoint>
          <Trackpoint>
            <Time>2019-10-09T09:01:36.000Z</Time>
            <Position>
              <LatitudeDegrees>39.15398287586867809295654296875</LatitudeDegrees>
              <LongitudeDegrees>-6.269803382456302642822265625</LongitudeDegrees>
            </Position>
            <AltitudeMeters>452.600006103515625</AltitudeMeters>
            <DistanceMeters>NAN</DistanceMeters>
          </Trackpoint>
          <Trackpoint>
            <Time>2019-10-09T09:01:40.000Z</Time>
            <Position>
              <LatitudeDegrees>39.15378749370574951171875</LatitudeDegrees>
              <LongitudeDegrees>-6.26985191367566585540771484375</LongitudeDegrees>
            </Position>
            <AltitudeMeters>452.79998779296875</AltitudeMeters>
            <DistanceMeters>NAN</DistanceMeters>
          </Trackpoint>
          <Trackpoint>
            <Time>2019-10-09T09:01:46.000Z</Time>
            <Position>
              <LatitudeDegrees>39.15344626642763614654541015625</LatitudeDegrees>
              <LongitudeDegrees>-6.26989298500120639801025390625</LongitudeDegrees>
            </Position>
            <AltitudeMeters>452</AltitudeMeters>
            <DistanceMeters>NAN</DistanceMeters>
          </Trackpoint>
          <Trackpoint>
            <Time>2019-10-09T09:01:52.000Z</Time>
            <Position>
              <LatitudeDegrees>39.1530524007976055145263671875</LatitudeDegrees>
              <LongitudeDegrees>-6.26989885233342647552490234375</LongitudeDegrees>
            </Position>
            <AltitudeMeters>451.600006103515625</AltitudeMeters>
            <DistanceMeters>NAN</DistanceMeters>
          </Trackpoint>
          <Trackpoint>
            <Time>2019-10-09T09:01:53.000Z</Time>
            <Position>
              <LatitudeDegrees>39.15298107080161571502685546875</LatitudeDegrees>
              <LongitudeDegrees>-6.269897259771823883056640625</LongitudeDegrees>
            </Position>
            <AltitudeMeters>451</AltitudeMeters>
            <DistanceMeters>NAN</DistanceMeters>
          </Trackpoint>
          <Trackpoint>
            <Time>2019-10-09T09:01:55.000Z</Time>
            <Position>
              <LatitudeDegrees>39.15283086709678173065185546875</LatitudeDegrees>
              <LongitudeDegrees>-6.2698903866112232208251953125</LongitudeDegrees>
            </Position>
            <AltitudeMeters>450.20001220703125</AltitudeMeters>
            <DistanceMeters>NAN</DistanceMeters>
          </Trackpoint>
          <Trackpoint>
            <Time>2019-10-09T09:01:57.000Z</Time>
            <Position>
              <LatitudeDegrees>39.1526725329458713531494140625</LatitudeDegrees>
              <LongitudeDegrees>-6.26987370662391185760498046875</LongitudeDegrees>
            </Position>
            <AltitudeMeters>450</AltitudeMeters>
            <DistanceMeters>NAN</DistanceMeters>
          </Trackpoint>
          <Trackpoint>
            <Time>2019-10-09T09:01:59.000Z</Time>
            <Position>
              <LatitudeDegrees>39.1525032185018062591552734375</LatitudeDegrees>
              <LongitudeDegrees>-6.26986180432140827178955078125</LongitudeDegrees>
            </Position>
            <AltitudeMeters>449</AltitudeMeters>
            <DistanceMeters>NAN</DistanceMeters>
          </Trackpoint>
          <Trackpoint>
            <Time>2019-10-09T09:02:01.000Z</Time>
            <Position>
              <LatitudeDegrees>39.15232208557426929473876953125</LatitudeDegrees>
              <LongitudeDegrees>-6.26985342241823673248291015625</LongitudeDegrees>
            </Position>
            <AltitudeMeters>448</AltitudeMeters>
            <DistanceMeters>NAN</DistanceMeters>
          </Trackpoint>
          <Trackpoint>
            <Time>2019-10-09T09:02:03.000Z</Time>
            <Position>
              <LatitudeDegrees>39.1521357558667659759521484375</LatitudeDegrees>
              <LongitudeDegrees>-6.26984797418117523193359375</LongitudeDegrees>
            </Position>
            <AltitudeMeters>446</AltitudeMeters>
            <DistanceMeters>NAN</DistanceMeters>
          </Trackpoint>
          <Trackpoint>
            <Time>2019-10-09T09:02:05.000Z</Time>
            <Position>
              <LatitudeDegrees>39.15193878114223480224609375</LatitudeDegrees>
              <LongitudeDegrees>-6.2698484770953655242919921875</LongitudeDegrees>
            </Position>
            <AltitudeMeters>445.20001220703125</AltitudeMeters>
            <DistanceMeters>NAN</DistanceMeters>
          </Trackpoint>
          <Trackpoint>
            <Time>2019-10-09T09:02:06.000Z</Time>
            <Position>
              <LatitudeDegrees>39.15183844976127147674560546875</LatitudeDegrees>
              <LongitudeDegrees>-6.2698473036289215087890625</LongitudeDegrees>
            </Position>
            <AltitudeMeters>444.79998779296875</AltitudeMeters>
            <DistanceMeters>NAN</DistanceMeters>
          </Trackpoint>
          <Trackpoint>
            <Time>2019-10-09T09:02:08.000Z</Time>
            <Position>
              <LatitudeDegrees>39.151632674038410186767578125</LatitudeDegrees>
              <LongitudeDegrees>-6.26986666582524776458740234375</LongitudeDegrees>
            </Position>
            <AltitudeMeters>444</AltitudeMeters>
            <DistanceMeters>NAN</DistanceMeters>
          </Trackpoint>
          <Trackpoint>
            <Time>2019-10-09T09:02:09.000Z</Time>
            <Position>
              <LatitudeDegrees>39.151528067886829376220703125</LatitudeDegrees>
              <LongitudeDegrees>-6.26988158561289310455322265625</LongitudeDegrees>
            </Position>
            <AltitudeMeters>443.399993896484375</AltitudeMeters>
            <DistanceMeters>NAN</DistanceMeters>
          </Trackpoint>
          <Trackpoint>
            <Time>2019-10-09T09:02:10.000Z</Time>
            <Position>
              <LatitudeDegrees>39.1514212824404239654541015625</LatitudeDegrees>
              <LongitudeDegrees>-6.26990136690437793731689453125</LongitudeDegrees>
            </Position>
            <AltitudeMeters>442.79998779296875</AltitudeMeters>
            <DistanceMeters>NAN</DistanceMeters>
          </Trackpoint>
          <Trackpoint>
            <Time>2019-10-09T09:02:11.000Z</Time>
            <Position>
              <LatitudeDegrees>39.15131122805178165435791015625</LatitudeDegrees>
              <LongitudeDegrees>-6.2699299491941928863525390625</LongitudeDegrees>
            </Position>
            <AltitudeMeters>442.20001220703125</AltitudeMeters>
            <DistanceMeters>NAN</DistanceMeters>
          </Trackpoint>
          <Trackpoint>
            <Time>2019-10-09T09:02:12.000Z</Time>
            <Position>
              <LatitudeDegrees>39.1512050293385982513427734375</LatitudeDegrees>
              <LongitudeDegrees>-6.2699597887694835662841796875</LongitudeDegrees>
            </Position>
            <AltitudeMeters>441.20001220703125</AltitudeMeters>
            <DistanceMeters>NAN</DistanceMeters>
          </Trackpoint>
          <Trackpoint>
            <Time>2019-10-09T09:02:13.000Z</Time>
            <Position>
              <LatitudeDegrees>39.15109782479703426361083984375</LatitudeDegrees>
              <LongitudeDegrees>-6.26999524421989917755126953125</LongitudeDegrees>
            </Position>
            <AltitudeMeters>440.399993896484375</AltitudeMeters>
            <DistanceMeters>NAN</DistanceMeters>
          </Trackpoint>
          <Trackpoint>
            <Time>2019-10-09T09:02:14.000Z</Time>
            <Position>
              <LatitudeDegrees>39.15099154226481914520263671875</LatitudeDegrees>
              <LongitudeDegrees>-6.27003598026931285858154296875</LongitudeDegrees>
            </Position>
            <AltitudeMeters>439.20001220703125</AltitudeMeters>
            <DistanceMeters>NAN</DistanceMeters>
          </Trackpoint>
          <Trackpoint>
            <Time>2019-10-09T09:02:15.000Z</Time>
            <Position>
              <LatitudeDegrees>39.15088559500873088836669921875</LatitudeDegrees>
              <LongitudeDegrees>-6.270081661641597747802734375</LongitudeDegrees>
            </Position>
            <AltitudeMeters>438.600006103515625</AltitudeMeters>
            <DistanceMeters>NAN</DistanceMeters>
          </Trackpoint>
          <Trackpoint>
            <Time>2019-10-09T09:02:18.000Z</Time>
            <Position>
              <LatitudeDegrees>39.15056356228888034820556640625</LatitudeDegrees>
              <LongitudeDegrees>-6.27022323198616504669189453125</LongitudeDegrees>
            </Position>
            <AltitudeMeters>438.20001220703125</AltitudeMeters>
            <DistanceMeters>NAN</DistanceMeters>
          </Trackpoint>
          <Trackpoint>
            <Time>2019-10-09T09:02:19.000Z</Time>
            <Position>
              <LatitudeDegrees>39.1504543460905551910400390625</LatitudeDegrees>
              <LongitudeDegrees>-6.27027117647230625152587890625</LongitudeDegrees>
            </Position>
            <AltitudeMeters>437</AltitudeMeters>
            <DistanceMeters>NAN</DistanceMeters>
          </Trackpoint>
          <Trackpoint>
            <Time>2019-10-09T09:02:21.000Z</Time>
            <Position>
              <LatitudeDegrees>39.15023582987487316131591796875</LatitudeDegrees>
              <LongitudeDegrees>-6.270369328558444976806640625</LongitudeDegrees>
            </Position>
            <AltitudeMeters>435.79998779296875</AltitudeMeters>
            <DistanceMeters>NAN</DistanceMeters>
          </Trackpoint>
          <Trackpoint>
            <Time>2019-10-09T09:02:23.000Z</Time>
            <Position>
              <LatitudeDegrees>39.150016643106937408447265625</LatitudeDegrees>
              <LongitudeDegrees>-6.27047401852905750274658203125</LongitudeDegrees>
            </Position>
            <AltitudeMeters>434.79998779296875</AltitudeMeters>
            <DistanceMeters>NAN</DistanceMeters>
          </Trackpoint>
          <Trackpoint>
            <Time>2019-10-09T09:02:24.000Z</Time>
            <Position>
              <LatitudeDegrees>39.14990625344216823577880859375</LatitudeDegrees>
              <LongitudeDegrees>-6.2705230526626110076904296875</LongitudeDegrees>
            </Position>
            <AltitudeMeters>434.20001220703125</AltitudeMeters>
            <DistanceMeters>NAN</DistanceMeters>
          </Trackpoint>
          <Trackpoint>
            <Time>2019-10-09T09:02:26.000Z</Time>
            <Position>
              <LatitudeDegrees>39.14968245662748813629150390625</LatitudeDegrees>
              <LongitudeDegrees>-6.2706266529858112335205078125</LongitudeDegrees>
            </Position>
            <AltitudeMeters>432.79998779296875</AltitudeMeters>
            <DistanceMeters>NAN</DistanceMeters>
          </Trackpoint>
          <Trackpoint>
            <Time>2019-10-09T09:02:28.000Z</Time>
            <Position>
              <LatitudeDegrees>39.14945505559444427490234375</LatitudeDegrees>
              <LongitudeDegrees>-6.270724721252918243408203125</LongitudeDegrees>
            </Position>
            <AltitudeMeters>431.600006103515625</AltitudeMeters>
            <DistanceMeters>NAN</DistanceMeters>
          </Trackpoint>
          <Trackpoint>
            <Time>2019-10-09T09:02:31.000Z</Time>
            <Position>
              <LatitudeDegrees>39.1491110622882843017578125</LatitudeDegrees>
              <LongitudeDegrees>-6.27087551169097423553466796875</LongitudeDegrees>
            </Position>
            <AltitudeMeters>429.79998779296875</AltitudeMeters>
            <DistanceMeters>NAN</DistanceMeters>
          </Trackpoint>
          <Trackpoint>
            <Time>2019-10-09T09:02:32.000Z</Time>
            <Position>
              <LatitudeDegrees>39.14899631403386592864990234375</LatitudeDegrees>
              <LongitudeDegrees>-6.27092563547194004058837890625</LongitudeDegrees>
            </Position>
            <AltitudeMeters>429.399993896484375</AltitudeMeters>
            <DistanceMeters>NAN</DistanceMeters>
          </Trackpoint>
          <Trackpoint>
            <Time>2019-10-09T09:02:35.000Z</Time>
            <Position>
              <LatitudeDegrees>39.14865307509899139404296875</LatitudeDegrees>
              <LongitudeDegrees>-6.27107583917677402496337890625</LongitudeDegrees>
            </Position>
            <AltitudeMeters>428.399993896484375</AltitudeMeters>
            <DistanceMeters>NAN</DistanceMeters>
          </Trackpoint>
          <Trackpoint>
            <Time>2019-10-09T09:02:37.000Z</Time>
            <Position>
              <LatitudeDegrees>39.14842215366661548614501953125</LatitudeDegrees>
              <LongitudeDegrees>-6.2711771763861179351806640625</LongitudeDegrees>
            </Position>
            <AltitudeMeters>426.79998779296875</AltitudeMeters>
            <DistanceMeters>NAN</DistanceMeters>
          </Trackpoint>
          <Trackpoint>
            <Time>2019-10-09T09:02:39.000Z</Time>
            <Position>
              <LatitudeDegrees>39.1481932438910007476806640625</LatitudeDegrees>
              <LongitudeDegrees>-6.27128069289028644561767578125</LongitudeDegrees>
            </Position>
            <AltitudeMeters>425.399993896484375</AltitudeMeters>
            <DistanceMeters>NAN</DistanceMeters>
          </Trackpoint>
          <Trackpoint>
            <Time>2019-10-09T09:02:41.000Z</Time>
            <Position>
              <LatitudeDegrees>39.14796282537281513214111328125</LatitudeDegrees>
              <LongitudeDegrees>-6.2713793478906154632568359375</LongitudeDegrees>
            </Position>
            <AltitudeMeters>424.399993896484375</AltitudeMeters>
            <DistanceMeters>NAN</DistanceMeters>
          </Trackpoint>
          <Trackpoint>
            <Time>2019-10-09T09:02:44.000Z</Time>
            <Position>
              <LatitudeDegrees>39.1476179100573062896728515625</LatitudeDegrees>
              <LongitudeDegrees>-6.2715275399386882781982421875</LongitudeDegrees>
            </Position>
            <AltitudeMeters>424.20001220703125</AltitudeMeters>
            <DistanceMeters>NAN</DistanceMeters>
          </Trackpoint>
          <Trackpoint>
            <Time>2019-10-09T09:02:45.000Z</Time>
            <Position>
              <LatitudeDegrees>39.147502742707729339599609375</LatitudeDegrees>
              <LongitudeDegrees>-6.2715773284435272216796875</LongitudeDegrees>
            </Position>
            <AltitudeMeters>423.399993896484375</AltitudeMeters>
            <DistanceMeters>NAN</DistanceMeters>
          </Trackpoint>
          <Trackpoint>
            <Time>2019-10-09T09:02:46.000Z</Time>
            <Position>
              <LatitudeDegrees>39.14738832972943782806396484375</LatitudeDegrees>
              <LongitudeDegrees>-6.2716267816722393035888671875</LongitudeDegrees>
            </Position>
            <AltitudeMeters>422.600006103515625</AltitudeMeters>
            <DistanceMeters>NAN</DistanceMeters>
          </Trackpoint>
          <Trackpoint>
            <Time>2019-10-09T09:02:47.000Z</Time>
            <Position>
              <LatitudeDegrees>39.14727416820824146270751953125</LatitudeDegrees>
              <LongitudeDegrees>-6.271677911281585693359375</LongitudeDegrees>
            </Position>
            <AltitudeMeters>422.20001220703125</AltitudeMeters>
            <DistanceMeters>NAN</DistanceMeters>
          </Trackpoint>
          <Trackpoint>
            <Time>2019-10-09T09:02:51.000Z</Time>
            <Position>
              <LatitudeDegrees>39.1468236409127712249755859375</LatitudeDegrees>
              <LongitudeDegrees>-6.2718745507299900054931640625</LongitudeDegrees>
            </Position>
            <AltitudeMeters>421.20001220703125</AltitudeMeters>
            <DistanceMeters>NAN</DistanceMeters>
          </Trackpoint>
          <Trackpoint>
            <Time>2019-10-09T09:02:52.000Z</Time>
            <Position>
              <LatitudeDegrees>39.14671258069574832916259765625</LatitudeDegrees>
              <LongitudeDegrees>-6.27192174084484577178955078125</LongitudeDegrees>
            </Position>
            <AltitudeMeters>421</AltitudeMeters>
            <DistanceMeters>NAN</DistanceMeters>
          </Trackpoint>
          <Trackpoint>
            <Time>2019-10-09T09:02:53.000Z</Time>
            <Position>
              <LatitudeDegrees>39.14660118520259857177734375</LatitudeDegrees>
              <LongitudeDegrees>-6.27196557819843292236328125</LongitudeDegrees>
            </Position>
            <AltitudeMeters>420</AltitudeMeters>
            <DistanceMeters>NAN</DistanceMeters>
          </Trackpoint>
          <Trackpoint>
            <Time>2019-10-09T09:02:57.000Z</Time>
            <Position>
              <LatitudeDegrees>39.1461480595171451568603515625</LatitudeDegrees>
              <LongitudeDegrees>-6.27209340222179889678955078125</LongitudeDegrees>
            </Position>
            <AltitudeMeters>419</AltitudeMeters>
            <DistanceMeters>NAN</DistanceMeters>
          </Trackpoint>
          <Trackpoint>
            <Time>2019-10-09T09:02:58.000Z</Time>
            <Position>
              <LatitudeDegrees>39.146032221615314483642578125</LatitudeDegrees>
              <LongitudeDegrees>-6.27211569808423519134521484375</LongitudeDegrees>
            </Position>
            <AltitudeMeters>419</AltitudeMeters>
            <DistanceMeters>NAN</DistanceMeters>
          </Trackpoint>
          <Trackpoint>
            <Time>2019-10-09T09:03:01.000Z</Time>
            <Position>
              <LatitudeDegrees>39.14568646810948848724365234375</LatitudeDegrees>
              <LongitudeDegrees>-6.27215995453298091888427734375</LongitudeDegrees>
            </Position>
            <AltitudeMeters>417.600006103515625</AltitudeMeters>
            <DistanceMeters>NAN</DistanceMeters>
          </Trackpoint>
          <Trackpoint>
            <Time>2019-10-09T09:03:03.000Z</Time>
            <Position>
              <LatitudeDegrees>39.14545646868646144866943359375</LatitudeDegrees>
              <LongitudeDegrees>-6.27219222486019134521484375</LongitudeDegrees>
            </Position>
            <AltitudeMeters>416.600006103515625</AltitudeMeters>
            <DistanceMeters>NAN</DistanceMeters>
          </Trackpoint>
          <Trackpoint>
            <Time>2019-10-09T09:03:04.000Z</Time>
            <Position>
              <LatitudeDegrees>39.14534197188913822174072265625</LatitudeDegrees>
              <LongitudeDegrees>-6.27220856957137584686279296875</LongitudeDegrees>
            </Position>
            <AltitudeMeters>416.399993896484375</AltitudeMeters>
            <DistanceMeters>NAN</DistanceMeters>
          </Trackpoint>
          <Trackpoint>
            <Time>2019-10-09T09:03:09.000Z</Time>
            <Position>
              <LatitudeDegrees>39.14477233774960041046142578125</LatitudeDegrees>
              <LongitudeDegrees>-6.27228987403213977813720703125</LongitudeDegrees>
            </Position>
            <AltitudeMeters>416</AltitudeMeters>
            <DistanceMeters>NAN</DistanceMeters>
          </Trackpoint>
          <Trackpoint>
            <Time>2019-10-09T09:03:10.000Z</Time>
            <Position>
              <LatitudeDegrees>39.14465985260903835296630859375</LatitudeDegrees>
              <LongitudeDegrees>-6.27230596728622913360595703125</LongitudeDegrees>
            </Position>
            <AltitudeMeters>415.399993896484375</AltitudeMeters>
            <DistanceMeters>NAN</DistanceMeters>
          </Trackpoint>
          <Trackpoint>
            <Time>2019-10-09T09:03:12.000Z</Time>
            <Position>
              <LatitudeDegrees>39.14443521760404109954833984375</LatitudeDegrees>
              <LongitudeDegrees>-6.27233915962278842926025390625</LongitudeDegrees>
            </Position>
            <AltitudeMeters>414.399993896484375</AltitudeMeters>
            <DistanceMeters>NAN</DistanceMeters>
          </Trackpoint>
          <Trackpoint>
            <Time>2019-10-09T09:03:14.000Z</Time>
            <Position>
              <LatitudeDegrees>39.14421242661774158477783203125</LatitudeDegrees>
              <LongitudeDegrees>-6.2723712623119354248046875</LongitudeDegrees>
            </Position>
            <AltitudeMeters>413.600006103515625</AltitudeMeters>
            <DistanceMeters>NAN</DistanceMeters>
          </Trackpoint>
          <Trackpoint>
            <Time>2019-10-09T09:03:15.000Z</Time>
            <Position>
              <LatitudeDegrees>39.14410161785781383514404296875</LatitudeDegrees>
              <LongitudeDegrees>-6.2723878584802150726318359375</LongitudeDegrees>
            </Position>
            <AltitudeMeters>413.20001220703125</AltitudeMeters>
            <DistanceMeters>NAN</DistanceMeters>
          </Trackpoint>
          <Trackpoint>
            <Time>2019-10-09T09:03:17.000Z</Time>
            <Position>
              <LatitudeDegrees>39.14388285018503665924072265625</LatitudeDegrees>
              <LongitudeDegrees>-6.27242465503513813018798828125</LongitudeDegrees>
            </Position>
            <AltitudeMeters>412</AltitudeMeters>
            <DistanceMeters>NAN</DistanceMeters>
          </Trackpoint>
          <Trackpoint>
            <Time>2019-10-09T09:03:18.000Z</Time>
            <Position>
              <LatitudeDegrees>39.14377556182444095611572265625</LatitudeDegrees>
              <LongitudeDegrees>-6.27243991009891033172607421875</LongitudeDegrees>
            </Position>
            <AltitudeMeters>412</AltitudeMeters>
            <DistanceMeters>NAN</DistanceMeters>
          </Trackpoint>
          <Trackpoint>
            <Time>2019-10-09T09:03:21.000Z</Time>
            <Position>
              <LatitudeDegrees>39.14345738478004932403564453125</LatitudeDegrees>
              <LongitudeDegrees>-6.27248668111860752105712890625</LongitudeDegrees>
            </Position>
            <AltitudeMeters>411.20001220703125</AltitudeMeters>
            <DistanceMeters>NAN</DistanceMeters>
          </Trackpoint>
          <Trackpoint>
            <Time>2019-10-09T09:03:22.000Z</Time>
            <Position>
              <LatitudeDegrees>39.1433528624475002288818359375</LatitudeDegrees>
              <LongitudeDegrees>-6.27250243909657001495361328125</LongitudeDegrees>
            </Position>
            <AltitudeMeters>410.600006103515625</AltitudeMeters>
            <DistanceMeters>NAN</DistanceMeters>
          </Trackpoint>
          <Trackpoint>
            <Time>2019-10-09T09:03:24.000Z</Time>
            <Position>
              <LatitudeDegrees>39.14314826019108295440673828125</LatitudeDegrees>
              <LongitudeDegrees>-6.2725340388715267181396484375</LongitudeDegrees>
            </Position>
            <AltitudeMeters>410.20001220703125</AltitudeMeters>
            <DistanceMeters>NAN</DistanceMeters>
          </Trackpoint>
          <Trackpoint>
            <Time>2019-10-09T09:03:25.000Z</Time>
            <Position>
              <LatitudeDegrees>39.14304650388658046722412109375</LatitudeDegrees>
              <LongitudeDegrees>-6.27254636026918888092041015625</LongitudeDegrees>
            </Position>
            <AltitudeMeters>410.20001220703125</AltitudeMeters>
            <DistanceMeters>NAN</DistanceMeters>
          </Trackpoint>
          <Trackpoint>
            <Time>2019-10-09T09:03:26.000Z</Time>
            <Position>
              <LatitudeDegrees>39.14294642396271228790283203125</LatitudeDegrees>
              <LongitudeDegrees>-6.27256371080875396728515625</LongitudeDegrees>
            </Position>
            <AltitudeMeters>410.20001220703125</AltitudeMeters>
            <DistanceMeters>NAN</DistanceMeters>
          </Trackpoint>
          <Trackpoint>
            <Time>2019-10-09T09:03:28.000Z</Time>
            <Position>
              <LatitudeDegrees>39.142750203609466552734375</LatitudeDegrees>
              <LongitudeDegrees>-6.2725923769176006317138671875</LongitudeDegrees>
            </Position>
            <AltitudeMeters>409.600006103515625</AltitudeMeters>
            <DistanceMeters>NAN</DistanceMeters>
          </Trackpoint>
          <Trackpoint>
            <Time>2019-10-09T09:03:30.000Z</Time>
            <Position>
              <LatitudeDegrees>39.142556749284267425537109375</LatitudeDegrees>
              <LongitudeDegrees>-6.27261945046484470367431640625</LongitudeDegrees>
            </Position>
            <AltitudeMeters>409.20001220703125</AltitudeMeters>
            <DistanceMeters>NAN</DistanceMeters>
          </Trackpoint>
          <Trackpoint>
            <Time>2019-10-09T09:03:33.000Z</Time>
            <Position>
              <LatitudeDegrees>39.14227075874805450439453125</LatitudeDegrees>
              <LongitudeDegrees>-6.27266286872327327728271484375</LongitudeDegrees>
            </Position>
            <AltitudeMeters>409</AltitudeMeters>
            <DistanceMeters>NAN</DistanceMeters>
          </Trackpoint>
          <Trackpoint>
            <Time>2019-10-09T09:03:35.000Z</Time>
            <Position>
              <LatitudeDegrees>39.14208392612636089324951171875</LatitudeDegrees>
              <LongitudeDegrees>-6.2726877629756927490234375</LongitudeDegrees>
            </Position>
            <AltitudeMeters>408.399993896484375</AltitudeMeters>
            <DistanceMeters>NAN</DistanceMeters>
          </Trackpoint>
          <Trackpoint>
            <Time>2019-10-09T09:03:39.000Z</Time>
            <Position>
              <LatitudeDegrees>39.141718558967113494873046875</LatitudeDegrees>
              <LongitudeDegrees>-6.27274266444146633148193359375</LongitudeDegrees>
            </Position>
            <AltitudeMeters>407.600006103515625</AltitudeMeters>
            <DistanceMeters>NAN</DistanceMeters>
          </Trackpoint>
          <Trackpoint>
            <Time>2019-10-09T09:03:40.000Z</Time>
            <Position>
              <LatitudeDegrees>39.14163096807897090911865234375</LatitudeDegrees>
              <LongitudeDegrees>-6.27276009880006313323974609375</LongitudeDegrees>
            </Position>
            <AltitudeMeters>406.79998779296875</AltitudeMeters>
            <DistanceMeters>NAN</DistanceMeters>
          </Trackpoint>
          <Trackpoint>
            <Time>2019-10-09T09:03:43.000Z</Time>
            <Position>
              <LatitudeDegrees>39.141367189586162567138671875</LatitudeDegrees>
              <LongitudeDegrees>-6.27279580570757389068603515625</LongitudeDegrees>
            </Position>
            <AltitudeMeters>406.600006103515625</AltitudeMeters>
            <DistanceMeters>NAN</DistanceMeters>
          </Trackpoint>
          <Trackpoint>
            <Time>2019-10-09T09:03:45.000Z</Time>
            <Position>
              <LatitudeDegrees>39.1411960311233997344970703125</LatitudeDegrees>
              <LongitudeDegrees>-6.27282178960740566253662109375</LongitudeDegrees>
            </Position>
            <AltitudeMeters>406.20001220703125</AltitudeMeters>
            <DistanceMeters>NAN</DistanceMeters>
          </Trackpoint>
          <Trackpoint>
            <Time>2019-10-09T09:03:48.000Z</Time>
            <Position>
              <LatitudeDegrees>39.1409452445805072784423828125</LatitudeDegrees>
              <LongitudeDegrees>-6.2728565745055675506591796875</LongitudeDegrees>
            </Position>
            <AltitudeMeters>405.79998779296875</AltitudeMeters>
            <DistanceMeters>NAN</DistanceMeters>
          </Trackpoint>
          <Trackpoint>
            <Time>2019-10-09T09:03:51.000Z</Time>
            <Position>
              <LatitudeDegrees>39.14069990627467632293701171875</LatitudeDegrees>
              <LongitudeDegrees>-6.2728947959840297698974609375</LongitudeDegrees>
            </Position>
            <AltitudeMeters>405.399993896484375</AltitudeMeters>
            <DistanceMeters>NAN</DistanceMeters>
          </Trackpoint>
          <Trackpoint>
            <Time>2019-10-09T09:03:54.000Z</Time>
            <Position>
              <LatitudeDegrees>39.14046169258654117584228515625</LatitudeDegrees>
              <LongitudeDegrees>-6.27293050289154052734375</LongitudeDegrees>
            </Position>
            <AltitudeMeters>405.20001220703125</AltitudeMeters>
            <DistanceMeters>NAN</DistanceMeters>
          </Trackpoint>
          <Trackpoint>
            <Time>2019-10-09T09:03:57.000Z</Time>
            <Position>
              <LatitudeDegrees>39.140231944620609283447265625</LatitudeDegrees>
              <LongitudeDegrees>-6.2729735858738422393798828125</LongitudeDegrees>
            </Position>
            <AltitudeMeters>404.600006103515625</AltitudeMeters>
            <DistanceMeters>NAN</DistanceMeters>
          </Trackpoint>
          <Trackpoint>
            <Time>2019-10-09T09:04:01.000Z</Time>
            <Position>
              <LatitudeDegrees>39.13993145339190959930419921875</LatitudeDegrees>
              <LongitudeDegrees>-6.27303569577634334564208984375</LongitudeDegrees>
            </Position>
            <AltitudeMeters>404.600006103515625</AltitudeMeters>
            <DistanceMeters>NAN</DistanceMeters>
          </Trackpoint>
          <Trackpoint>
            <Time>2019-10-09T09:04:09.000Z</Time>
            <Position>
              <LatitudeDegrees>39.1393422894179821014404296875</LatitudeDegrees>
              <LongitudeDegrees>-6.2731760926544666290283203125</LongitudeDegrees>
            </Position>
            <AltitudeMeters>404</AltitudeMeters>
            <DistanceMeters>NAN</DistanceMeters>
          </Trackpoint>
          <Trackpoint>
            <Time>2019-10-09T09:04:11.000Z</Time>
            <Position>
              <LatitudeDegrees>39.13918898440897464752197265625</LatitudeDegrees>
              <LongitudeDegrees>-6.27321548759937286376953125</LongitudeDegrees>
            </Position>
            <AltitudeMeters>403.20001220703125</AltitudeMeters>
            <DistanceMeters>NAN</DistanceMeters>
          </Trackpoint>
          <Trackpoint>
            <Time>2019-10-09T09:04:13.000Z</Time>
            <Position>
              <LatitudeDegrees>39.1390324942767620086669921875</LatitudeDegrees>
              <LongitudeDegrees>-6.273249685764312744140625</LongitudeDegrees>
            </Position>
            <AltitudeMeters>402.79998779296875</AltitudeMeters>
            <DistanceMeters>NAN</DistanceMeters>
          </Trackpoint>
          <Trackpoint>
            <Time>2019-10-09T09:04:16.000Z</Time>
            <Position>
              <LatitudeDegrees>39.1387952864170074462890625</LatitudeDegrees>
              <LongitudeDegrees>-6.27330861054360866546630859375</LongitudeDegrees>
            </Position>
            <AltitudeMeters>402.20001220703125</AltitudeMeters>
            <DistanceMeters>NAN</DistanceMeters>
          </Trackpoint>
          <Trackpoint>
            <Time>2019-10-09T09:04:18.000Z</Time>
            <Position>
              <LatitudeDegrees>39.1386345215141773223876953125</LatitudeDegrees>
              <LongitudeDegrees>-6.2733490951359272003173828125</LongitudeDegrees>
            </Position>
            <AltitudeMeters>401.79998779296875</AltitudeMeters>
            <DistanceMeters>NAN</DistanceMeters>
          </Trackpoint>
          <Trackpoint>
            <Time>2019-10-09T09:04:20.000Z</Time>
            <Position>
              <LatitudeDegrees>39.13847132585942745208740234375</LatitudeDegrees>
              <LongitudeDegrees>-6.2733876518905162811279296875</LongitudeDegrees>
            </Position>
            <AltitudeMeters>401.79998779296875</AltitudeMeters>
            <DistanceMeters>NAN</DistanceMeters>
          </Trackpoint>
          <Trackpoint>
            <Time>2019-10-09T09:04:23.000Z</Time>
            <Position>
              <LatitudeDegrees>39.13822506554424762725830078125</LatitudeDegrees>
              <LongitudeDegrees>-6.2734463252127170562744140625</LongitudeDegrees>
            </Position>
            <AltitudeMeters>401.20001220703125</AltitudeMeters>
            <DistanceMeters>NAN</DistanceMeters>
          </Trackpoint>
          <Trackpoint>
            <Time>2019-10-09T09:04:25.000Z</Time>
            <Position>
              <LatitudeDegrees>39.1380618698894977569580078125</LatitudeDegrees>
              <LongitudeDegrees>-6.2734868936240673065185546875</LongitudeDegrees>
            </Position>
            <AltitudeMeters>401</AltitudeMeters>
            <DistanceMeters>NAN</DistanceMeters>
          </Trackpoint>
          <Trackpoint>
            <Time>2019-10-09T09:04:26.000Z</Time>
            <Position>
              <LatitudeDegrees>39.1379797272384166717529296875</LatitudeDegrees>
              <LongitudeDegrees>-6.27350759692490100860595703125</LongitudeDegrees>
            </Position>
            <AltitudeMeters>401</AltitudeMeters>
            <DistanceMeters>NAN</DistanceMeters>
          </Trackpoint>
          <Trackpoint>
            <Time>2019-10-09T09:04:28.000Z</Time>
            <Position>
              <LatitudeDegrees>39.13781485520303249359130859375</LatitudeDegrees>
              <LongitudeDegrees>-6.27354866825044155120849609375</LongitudeDegrees>
            </Position>
            <AltitudeMeters>401.399993896484375</AltitudeMeters>
            <DistanceMeters>NAN</DistanceMeters>
          </Trackpoint>
          <Trackpoint>
            <Time>2019-10-09T09:04:35.000Z</Time>
            <Position>
              <LatitudeDegrees>39.13722963072359561920166015625</LatitudeDegrees>
              <LongitudeDegrees>-6.27368981949985027313232421875</LongitudeDegrees>
            </Position>
            <AltitudeMeters>400.600006103515625</AltitudeMeters>
            <DistanceMeters>NAN</DistanceMeters>
          </Trackpoint>
          <Trackpoint>
            <Time>2019-10-09T09:04:36.000Z</Time>
            <Position>
              <LatitudeDegrees>39.137144722044467926025390625</LatitudeDegrees>
              <LongitudeDegrees>-6.27370675094425678253173828125</LongitudeDegrees>
            </Position>
            <AltitudeMeters>399.79998779296875</AltitudeMeters>
            <DistanceMeters>NAN</DistanceMeters>
          </Trackpoint>
          <Trackpoint>
            <Time>2019-10-09T09:04:37.000Z</Time>
            <Position>
              <LatitudeDegrees>39.13706190884113311767578125</LatitudeDegrees>
              <LongitudeDegrees>-6.27372644841670989990234375</LongitudeDegrees>
            </Position>
            <AltitudeMeters>399.600006103515625</AltitudeMeters>
            <DistanceMeters>NAN</DistanceMeters>
          </Trackpoint>
          <Trackpoint>
            <Time>2019-10-09T09:04:42.000Z</Time>
            <Position>
              <LatitudeDegrees>39.13664490915834903717041015625</LatitudeDegrees>
              <LongitudeDegrees>-6.2738223373889923095703125</LongitudeDegrees>
            </Position>
            <AltitudeMeters>400</AltitudeMeters>
            <DistanceMeters>NAN</DistanceMeters>
          </Trackpoint>
          <Trackpoint>
            <Time>2019-10-09T09:04:47.000Z</Time>
            <Position>
              <LatitudeDegrees>39.13623000495135784149169921875</LatitudeDegrees>
              <LongitudeDegrees>-6.27391864545643329620361328125</LongitudeDegrees>
            </Position>
            <AltitudeMeters>399</AltitudeMeters>
            <DistanceMeters>NAN</DistanceMeters>
          </Trackpoint>
          <Trackpoint>
            <Time>2019-10-09T09:04:49.000Z</Time>
            <Position>
              <LatitudeDegrees>39.13606136105954647064208984375</LatitudeDegrees>
              <LongitudeDegrees>-6.27396055497229099273681640625</LongitudeDegrees>
            </Position>
            <AltitudeMeters>398.79998779296875</AltitudeMeters>
            <DistanceMeters>NAN</DistanceMeters>
          </Trackpoint>
          <Trackpoint>
            <Time>2019-10-09T09:04:54.000Z</Time>
            <Position>
              <LatitudeDegrees>39.13563841022551059722900390625</LatitudeDegrees>
              <LongitudeDegrees>-6.2740618921816349029541015625</LongitudeDegrees>
            </Position>
            <AltitudeMeters>397.600006103515625</AltitudeMeters>
            <DistanceMeters>NAN</DistanceMeters>
          </Trackpoint>
          <Trackpoint>
            <Time>2019-10-09T09:04:57.000Z</Time>
            <Position>
              <LatitudeDegrees>39.1353836841881275177001953125</LatitudeDegrees>
              <LongitudeDegrees>-6.27413271926343441009521484375</LongitudeDegrees>
            </Position>
            <AltitudeMeters>397.600006103515625</AltitudeMeters>
            <DistanceMeters>NAN</DistanceMeters>
          </Trackpoint>
          <Trackpoint>
            <Time>2019-10-09T09:05:04.000Z</Time>
            <Position>
              <LatitudeDegrees>39.1347905807197093963623046875</LatitudeDegrees>
              <LongitudeDegrees>-6.2742737866938114166259765625</LongitudeDegrees>
            </Position>
            <AltitudeMeters>397.20001220703125</AltitudeMeters>
            <DistanceMeters>NAN</DistanceMeters>
          </Trackpoint>
          <Trackpoint>
            <Time>2019-10-09T09:05:05.000Z</Time>
            <Position>
              <LatitudeDegrees>39.13470550440251827239990234375</LatitudeDegrees>
              <LongitudeDegrees>-6.27429532818496227264404296875</LongitudeDegrees>
            </Position>
            <AltitudeMeters>397</AltitudeMeters>
            <DistanceMeters>NAN</DistanceMeters>
          </Trackpoint>
          <Trackpoint>
            <Time>2019-10-09T09:05:09.000Z</Time>
            <Position>
              <LatitudeDegrees>39.13436519913375377655029296875</LatitudeDegrees>
              <LongitudeDegrees>-6.2743760459125041961669921875</LongitudeDegrees>
            </Position>
            <AltitudeMeters>396.399993896484375</AltitudeMeters>
            <DistanceMeters>NAN</DistanceMeters>
          </Trackpoint>
          <Trackpoint>
            <Time>2019-10-09T09:05:12.000Z</Time>
            <Position>
              <LatitudeDegrees>39.13411080837249755859375</LatitudeDegrees>
              <LongitudeDegrees>-6.2744400836527347564697265625</LongitudeDegrees>
            </Position>
            <AltitudeMeters>396.20001220703125</AltitudeMeters>
            <DistanceMeters>NAN</DistanceMeters>
          </Trackpoint>
          <Trackpoint>
            <Time>2019-10-09T09:05:15.000Z</Time>
            <Position>
              <LatitudeDegrees>39.1338558308780193328857421875</LatitudeDegrees>
              <LongitudeDegrees>-6.2745021097362041473388671875</LongitudeDegrees>
            </Position>
            <AltitudeMeters>395.399993896484375</AltitudeMeters>
            <DistanceMeters>NAN</DistanceMeters>
          </Trackpoint>
          <Trackpoint>
            <Time>2019-10-09T09:05:21.000Z</Time>
            <Position>
              <LatitudeDegrees>39.13334906101226806640625</LatitudeDegrees>
              <LongitudeDegrees>-6.27462255768477916717529296875</LongitudeDegrees>
            </Position>
            <AltitudeMeters>395.399993896484375</AltitudeMeters>
            <DistanceMeters>NAN</DistanceMeters>
          </Trackpoint>
          <Trackpoint>
            <Time>2019-10-09T09:05:23.000Z</Time>
            <Position>
              <LatitudeDegrees>39.133180081844329833984375</LatitudeDegrees>
              <LongitudeDegrees>-6.27466429956257343292236328125</LongitudeDegrees>
            </Position>
            <AltitudeMeters>395.20001220703125</AltitudeMeters>
            <DistanceMeters>NAN</DistanceMeters>
          </Trackpoint>
          <Trackpoint>
            <Time>2019-10-09T09:05:29.000Z</Time>
            <Position>
              <LatitudeDegrees>39.1326652653515338897705078125</LatitudeDegrees>
              <LongitudeDegrees>-6.2747860886156558990478515625</LongitudeDegrees>
            </Position>
            <AltitudeMeters>394.20001220703125</AltitudeMeters>
            <DistanceMeters>NAN</DistanceMeters>
          </Trackpoint>
          <Trackpoint>
            <Time>2019-10-09T09:05:33.000Z</Time>
            <Position>
              <LatitudeDegrees>39.13231733255088329315185546875</LatitudeDegrees>
              <LongitudeDegrees>-6.27487049438059329986572265625</LongitudeDegrees>
            </Position>
            <AltitudeMeters>394.20001220703125</AltitudeMeters>
            <DistanceMeters>NAN</DistanceMeters>
          </Trackpoint>
          <Trackpoint>
            <Time>2019-10-09T09:05:35.000Z</Time>
            <Position>
              <LatitudeDegrees>39.13213863037526607513427734375</LatitudeDegrees>
              <LongitudeDegrees>-6.27491600811481475830078125</LongitudeDegrees>
            </Position>
            <AltitudeMeters>393.79998779296875</AltitudeMeters>
            <DistanceMeters>NAN</DistanceMeters>
          </Trackpoint>
          <Trackpoint>
            <Time>2019-10-09T09:05:38.000Z</Time>
            <Position>
              <LatitudeDegrees>39.13187409751117229461669921875</LatitudeDegrees>
              <LongitudeDegrees>-6.27497769892215728759765625</LongitudeDegrees>
            </Position>
            <AltitudeMeters>393</AltitudeMeters>
            <DistanceMeters>NAN</DistanceMeters>
          </Trackpoint>
          <Trackpoint>
            <Time>2019-10-09T09:05:43.000Z</Time>
            <Position>
              <LatitudeDegrees>39.1314307786524295806884765625</LatitudeDegrees>
              <LongitudeDegrees>-6.27508523873984813690185546875</LongitudeDegrees>
            </Position>
            <AltitudeMeters>393</AltitudeMeters>
            <DistanceMeters>NAN</DistanceMeters>
          </Trackpoint>
          <Trackpoint>
            <Time>2019-10-09T09:05:47.000Z</Time>
            <Position>
              <LatitudeDegrees>39.1310733743011951446533203125</LatitudeDegrees>
              <LongitudeDegrees>-6.2751703150570392608642578125</LongitudeDegrees>
            </Position>
            <AltitudeMeters>391.20001220703125</AltitudeMeters>
            <DistanceMeters>NAN</DistanceMeters>
          </Trackpoint>
          <Trackpoint>
            <Time>2019-10-09T09:05:51.000Z</Time>
            <Position>
              <LatitudeDegrees>39.13072057999670505523681640625</LatitudeDegrees>
              <LongitudeDegrees>-6.27525723539292812347412109375</LongitudeDegrees>
            </Position>
            <AltitudeMeters>391.20001220703125</AltitudeMeters>
            <DistanceMeters>NAN</DistanceMeters>
          </Trackpoint>
          <Trackpoint>
            <Time>2019-10-09T09:05:57.000Z</Time>
            <Position>
              <LatitudeDegrees>39.1301915980875492095947265625</LatitudeDegrees>
              <LongitudeDegrees>-6.2753845565021038055419921875</LongitudeDegrees>
            </Position>
            <AltitudeMeters>390.399993896484375</AltitudeMeters>
            <DistanceMeters>NAN</DistanceMeters>
          </Trackpoint>
          <Trackpoint>
            <Time>2019-10-09T09:05:59.000Z</Time>
            <Position>
              <LatitudeDegrees>39.13001708686351776123046875</LatitudeDegrees>
              <LongitudeDegrees>-6.27542671747505664825439453125</LongitudeDegrees>
            </Position>
            <AltitudeMeters>390</AltitudeMeters>
            <DistanceMeters>NAN</DistanceMeters>
          </Trackpoint>
          <Trackpoint>
            <Time>2019-10-09T09:06:04.000Z</Time>
            <Position>
              <LatitudeDegrees>39.12957720458507537841796875</LatitudeDegrees>
              <LongitudeDegrees>-6.27553216181695461273193359375</LongitudeDegrees>
            </Position>
            <AltitudeMeters>388.79998779296875</AltitudeMeters>
            <DistanceMeters>NAN</DistanceMeters>
          </Trackpoint>
          <Trackpoint>
            <Time>2019-10-09T09:06:07.000Z</Time>
            <Position>
              <LatitudeDegrees>39.12931124679744243621826171875</LatitudeDegrees>
              <LongitudeDegrees>-6.2755991332232952117919921875</LongitudeDegrees>
            </Position>
            <AltitudeMeters>388.600006103515625</AltitudeMeters>
            <DistanceMeters>NAN</DistanceMeters>
          </Trackpoint>
          <Trackpoint>
            <Time>2019-10-09T09:06:13.000Z</Time>
            <Position>
              <LatitudeDegrees>39.128773547708988189697265625</LatitudeDegrees>
              <LongitudeDegrees>-6.275728382170200347900390625</LongitudeDegrees>
            </Position>
            <AltitudeMeters>387.79998779296875</AltitudeMeters>
            <DistanceMeters>NAN</DistanceMeters>
          </Trackpoint>
          <Trackpoint>
            <Time>2019-10-09T09:06:15.000Z</Time>
            <Position>
              <LatitudeDegrees>39.12859325297176837921142578125</LatitudeDegrees>
              <LongitudeDegrees>-6.27577121369540691375732421875</LongitudeDegrees>
            </Position>
            <AltitudeMeters>387.600006103515625</AltitudeMeters>
            <DistanceMeters>NAN</DistanceMeters>
          </Trackpoint>
          <Trackpoint>
            <Time>2019-10-09T09:06:21.000Z</Time>
            <Position>
              <LatitudeDegrees>39.12804172374308109283447265625</LatitudeDegrees>
              <LongitudeDegrees>-6.27590817399322986602783203125</LongitudeDegrees>
            </Position>
            <AltitudeMeters>387.399993896484375</AltitudeMeters>
            <DistanceMeters>NAN</DistanceMeters>
          </Trackpoint>
          <Trackpoint>
            <Time>2019-10-09T09:06:24.000Z</Time>
            <Position>
              <LatitudeDegrees>39.12776294164359569549560546875</LatitudeDegrees>
              <LongitudeDegrees>-6.27597355283796787261962890625</LongitudeDegrees>
            </Position>
            <AltitudeMeters>386.600006103515625</AltitudeMeters>
            <DistanceMeters>NAN</DistanceMeters>
          </Trackpoint>
          <Trackpoint>
            <Time>2019-10-09T09:06:25.000Z</Time>
            <Position>
              <LatitudeDegrees>39.1276679746806621551513671875</LatitudeDegrees>
              <LongitudeDegrees>-6.27599425613880157470703125</LongitudeDegrees>
            </Position>
            <AltitudeMeters>386.399993896484375</AltitudeMeters>
            <DistanceMeters>NAN</DistanceMeters>
          </Trackpoint>
          <Trackpoint>
            <Time>2019-10-09T09:06:28.000Z</Time>
            <Position>
              <LatitudeDegrees>39.1273863427340984344482421875</LatitudeDegrees>
              <LongitudeDegrees>-6.276063658297061920166015625</LongitudeDegrees>
            </Position>
            <AltitudeMeters>385.20001220703125</AltitudeMeters>
            <DistanceMeters>NAN</DistanceMeters>
          </Trackpoint>
          <Trackpoint>
            <Time>2019-10-09T09:06:34.000Z</Time>
            <Position>
              <LatitudeDegrees>39.1268260963261127471923828125</LatitudeDegrees>
              <LongitudeDegrees>-6.27619852311909198760986328125</LongitudeDegrees>
            </Position>
            <AltitudeMeters>384.600006103515625</AltitudeMeters>
            <DistanceMeters>NAN</DistanceMeters>
          </Trackpoint>
          <Trackpoint>
            <Time>2019-10-09T09:06:38.000Z</Time>
            <Position>
              <LatitudeDegrees>39.1264569573104381561279296875</LatitudeDegrees>
              <LongitudeDegrees>-6.27628737129271030426025390625</LongitudeDegrees>
            </Position>
            <AltitudeMeters>384</AltitudeMeters>
            <DistanceMeters>NAN</DistanceMeters>
          </Trackpoint>
          <Trackpoint>
            <Time>2019-10-09T09:06:42.000Z</Time>
            <Position>
              <LatitudeDegrees>39.12609360180795192718505859375</LatitudeDegrees>
              <LongitudeDegrees>-6.2763749621808528900146484375</LongitudeDegrees>
            </Position>
            <AltitudeMeters>383.20001220703125</AltitudeMeters>
            <DistanceMeters>NAN</DistanceMeters>
          </Trackpoint>
          <Trackpoint>
            <Time>2019-10-09T09:06:46.000Z</Time>
            <Position>
              <LatitudeDegrees>39.12573225796222686767578125</LatitudeDegrees>
              <LongitudeDegrees>-6.276463977992534637451171875</LongitudeDegrees>
            </Position>
            <AltitudeMeters>383.20001220703125</AltitudeMeters>
            <DistanceMeters>NAN</DistanceMeters>
          </Trackpoint>
          <Trackpoint>
            <Time>2019-10-09T09:06:49.000Z</Time>
            <Position>
              <LatitudeDegrees>39.125459678471088409423828125</LatitudeDegrees>
              <LongitudeDegrees>-6.27653078176081180572509765625</LongitudeDegrees>
            </Position>
            <AltitudeMeters>382.79998779296875</AltitudeMeters>
            <DistanceMeters>NAN</DistanceMeters>
          </Trackpoint>
          <Trackpoint>
            <Time>2019-10-09T09:06:55.000Z</Time>
            <Position>
              <LatitudeDegrees>39.124907813966274261474609375</LatitudeDegrees>
              <LongitudeDegrees>-6.2766626290977001190185546875</LongitudeDegrees>
            </Position>
            <AltitudeMeters>382</AltitudeMeters>
            <DistanceMeters>NAN</DistanceMeters>
          </Trackpoint>
          <Trackpoint>
            <Time>2019-10-09T09:06:56.000Z</Time>
            <Position>
              <LatitudeDegrees>39.12481586448848247528076171875</LatitudeDegrees>
              <LongitudeDegrees>-6.27668383531272411346435546875</LongitudeDegrees>
            </Position>
            <AltitudeMeters>381.399993896484375</AltitudeMeters>
            <DistanceMeters>NAN</DistanceMeters>
          </Trackpoint>
          <Trackpoint>
            <Time>2019-10-09T09:06:57.000Z</Time>
            <Position>
              <LatitudeDegrees>39.1247239150106906890869140625</LatitudeDegrees>
              <LongitudeDegrees>-6.2767082266509532928466796875</LongitudeDegrees>
            </Position>
            <AltitudeMeters>381.20001220703125</AltitudeMeters>
            <DistanceMeters>NAN</DistanceMeters>
          </Trackpoint>
          <Trackpoint>
            <Time>2019-10-09T09:07:02.000Z</Time>
            <Position>
              <LatitudeDegrees>39.124266095459461212158203125</LatitudeDegrees>
              <LongitudeDegrees>-6.27681769430637359619140625</LongitudeDegrees>
            </Position>
            <AltitudeMeters>380.600006103515625</AltitudeMeters>
            <DistanceMeters>NAN</DistanceMeters>
          </Trackpoint>
          <Trackpoint>
            <Time>2019-10-09T09:07:05.000Z</Time>
            <Position>
              <LatitudeDegrees>39.123991169035434722900390625</LatitudeDegrees>
              <LongitudeDegrees>-6.2768886052072048187255859375</LongitudeDegrees>
            </Position>
            <AltitudeMeters>380.399993896484375</AltitudeMeters>
            <DistanceMeters>NAN</DistanceMeters>
          </Trackpoint>
          <Trackpoint>
            <Time>2019-10-09T09:07:08.000Z</Time>
            <Position>
              <LatitudeDegrees>39.1237164102494716644287109375</LatitudeDegrees>
              <LongitudeDegrees>-6.27695381641387939453125</LongitudeDegrees>
            </Position>
            <AltitudeMeters>379.79998779296875</AltitudeMeters>
            <DistanceMeters>NAN</DistanceMeters>
          </Trackpoint>
          <Trackpoint>
            <Time>2019-10-09T09:07:11.000Z</Time>
            <Position>
              <LatitudeDegrees>39.12344207055866718292236328125</LatitudeDegrees>
              <LongitudeDegrees>-6.2770220451056957244873046875</LongitudeDegrees>
            </Position>
            <AltitudeMeters>379.20001220703125</AltitudeMeters>
            <DistanceMeters>NAN</DistanceMeters>
          </Trackpoint>
          <Trackpoint>
            <Time>2019-10-09T09:07:17.000Z</Time>
            <Position>
              <LatitudeDegrees>39.122900180518627166748046875</LatitudeDegrees>
              <LongitudeDegrees>-6.27715406008064746856689453125</LongitudeDegrees>
            </Position>
            <AltitudeMeters>378.20001220703125</AltitudeMeters>
            <DistanceMeters>NAN</DistanceMeters>
          </Trackpoint>
          <Trackpoint>
            <Time>2019-10-09T09:07:19.000Z</Time>
            <Position>
              <LatitudeDegrees>39.12271988578140735626220703125</LatitudeDegrees>
              <LongitudeDegrees>-6.27719647251069545745849609375</LongitudeDegrees>
            </Position>
            <AltitudeMeters>377.79998779296875</AltitudeMeters>
            <DistanceMeters>NAN</DistanceMeters>
          </Trackpoint>
          <Trackpoint>
            <Time>2019-10-09T09:07:22.000Z</Time>
            <Position>
              <LatitudeDegrees>39.1224483959376811981201171875</LatitudeDegrees>
              <LongitudeDegrees>-6.2772595882415771484375</LongitudeDegrees>
            </Position>
            <AltitudeMeters>377</AltitudeMeters>
            <DistanceMeters>NAN</DistanceMeters>
          </Trackpoint>
          <Trackpoint>
            <Time>2019-10-09T09:07:28.000Z</Time>
            <Position>
              <LatitudeDegrees>39.12191472016274929046630859375</LatitudeDegrees>
              <LongitudeDegrees>-6.27739244140684604644775390625</LongitudeDegrees>
            </Position>
            <AltitudeMeters>377.600006103515625</AltitudeMeters>
            <DistanceMeters>NAN</DistanceMeters>
          </Trackpoint>
          <Trackpoint>
            <Time>2019-10-09T09:07:31.000Z</Time>
            <Position>
              <LatitudeDegrees>39.12164448760449886322021484375</LatitudeDegrees>
              <LongitudeDegrees>-6.2774605862796306610107421875</LongitudeDegrees>
            </Position>
            <AltitudeMeters>376</AltitudeMeters>
            <DistanceMeters>NAN</DistanceMeters>
          </Trackpoint>
          <Trackpoint>
            <Time>2019-10-09T09:07:36.000Z</Time>
            <Position>
              <LatitudeDegrees>39.12119119428098201751708984375</LatitudeDegrees>
              <LongitudeDegrees>-6.27756712026894092559814453125</LongitudeDegrees>
            </Position>
            <AltitudeMeters>375</AltitudeMeters>
            <DistanceMeters>NAN</DistanceMeters>
          </Trackpoint>
          <Trackpoint>
            <Time>2019-10-09T09:07:39.000Z</Time>
            <Position>
              <LatitudeDegrees>39.12092330865561962127685546875</LatitudeDegrees>
              <LongitudeDegrees>-6.2776265479624271392822265625</LongitudeDegrees>
            </Position>
            <AltitudeMeters>374.79998779296875</AltitudeMeters>
            <DistanceMeters>NAN</DistanceMeters>
          </Trackpoint>
          <Trackpoint>
            <Time>2019-10-09T09:07:44.000Z</Time>
            <Position>
              <LatitudeDegrees>39.12048376165330410003662109375</LatitudeDegrees>
              <LongitudeDegrees>-6.2777324952185153961181640625</LongitudeDegrees>
            </Position>
            <AltitudeMeters>374</AltitudeMeters>
            <DistanceMeters>NAN</DistanceMeters>
          </Trackpoint>
          <Trackpoint>
            <Time>2019-10-09T09:07:49.000Z</Time>
            <Position>
              <LatitudeDegrees>39.12004874087870121002197265625</LatitudeDegrees>
              <LongitudeDegrees>-6.2778391130268573760986328125</LongitudeDegrees>
            </Position>
            <AltitudeMeters>373</AltitudeMeters>
            <DistanceMeters>NAN</DistanceMeters>
          </Trackpoint>
          <Trackpoint>
            <Time>2019-10-09T09:07:53.000Z</Time>
            <Position>
              <LatitudeDegrees>39.1197006404399871826171875</LatitudeDegrees>
              <LongitudeDegrees>-6.27792368642985820770263671875</LongitudeDegrees>
            </Position>
            <AltitudeMeters>372.79998779296875</AltitudeMeters>
            <DistanceMeters>NAN</DistanceMeters>
          </Trackpoint>
          <Trackpoint>
            <Time>2019-10-09T09:07:55.000Z</Time>
            <Position>
              <LatitudeDegrees>39.11952671594917774200439453125</LatitudeDegrees>
              <LongitudeDegrees>-6.277964673936367034912109375</LongitudeDegrees>
            </Position>
            <AltitudeMeters>371.600006103515625</AltitudeMeters>
            <DistanceMeters>NAN</DistanceMeters>
          </Trackpoint>
          <Trackpoint>
            <Time>2019-10-09T09:07:59.000Z</Time>
            <Position>
              <LatitudeDegrees>39.11918339319527149200439453125</LatitudeDegrees>
              <LongitudeDegrees>-6.27804673276841640472412109375</LongitudeDegrees>
            </Position>
            <AltitudeMeters>371.399993896484375</AltitudeMeters>
            <DistanceMeters>NAN</DistanceMeters>
          </Trackpoint>
          <Trackpoint>
            <Time>2019-10-09T09:08:05.000Z</Time>
            <Position>
              <LatitudeDegrees>39.11867310293018817901611328125</LatitudeDegrees>
              <LongitudeDegrees>-6.2781666778028011322021484375</LongitudeDegrees>
            </Position>
            <AltitudeMeters>370.600006103515625</AltitudeMeters>
            <DistanceMeters>NAN</DistanceMeters>
          </Trackpoint>
          <Trackpoint>
            <Time>2019-10-09T09:08:11.000Z</Time>
            <Position>
              <LatitudeDegrees>39.11816817708313465118408203125</LatitudeDegrees>
              <LongitudeDegrees>-6.278287209570407867431640625</LongitudeDegrees>
            </Position>
            <AltitudeMeters>371.20001220703125</AltitudeMeters>
            <DistanceMeters>NAN</DistanceMeters>
          </Trackpoint>
          <Trackpoint>
            <Time>2019-10-09T09:08:16.000Z</Time>
            <Position>
              <LatitudeDegrees>39.117739610373973846435546875</LatitudeDegrees>
              <LongitudeDegrees>-6.27838837914168834686279296875</LongitudeDegrees>
            </Position>
            <AltitudeMeters>369.399993896484375</AltitudeMeters>
            <DistanceMeters>NAN</DistanceMeters>
          </Trackpoint>
          <Trackpoint>
            <Time>2019-10-09T09:08:22.000Z</Time>
            <Position>
              <LatitudeDegrees>39.11723745055496692657470703125</LatitudeDegrees>
              <LongitudeDegrees>-6.2785103358328342437744140625</LongitudeDegrees>
            </Position>
            <AltitudeMeters>368.600006103515625</AltitudeMeters>
            <DistanceMeters>NAN</DistanceMeters>
          </Trackpoint>
          <Trackpoint>
            <Time>2019-10-09T09:08:29.000Z</Time>
            <Position>
              <LatitudeDegrees>39.11666898988187313079833984375</LatitudeDegrees>
              <LongitudeDegrees>-6.2786501459777355194091796875</LongitudeDegrees>
            </Position>
            <AltitudeMeters>368.600006103515625</AltitudeMeters>
            <DistanceMeters>NAN</DistanceMeters>
          </Trackpoint>
          <Trackpoint>
            <Time>2019-10-09T09:08:31.000Z</Time>
            <Position>
              <LatitudeDegrees>39.11651141010224819183349609375</LatitudeDegrees>
              <LongitudeDegrees>-6.27868811599910259246826171875</LongitudeDegrees>
            </Position>
            <AltitudeMeters>368.399993896484375</AltitudeMeters>
            <DistanceMeters>NAN</DistanceMeters>
          </Trackpoint>
          <Trackpoint>
            <Time>2019-10-09T09:08:34.000Z</Time>
            <Position>
              <LatitudeDegrees>39.11627302877604961395263671875</LatitudeDegrees>
              <LongitudeDegrees>-6.27874427475035190582275390625</LongitudeDegrees>
            </Position>
            <AltitudeMeters>368.20001220703125</AltitudeMeters>
            <DistanceMeters>NAN</DistanceMeters>
          </Trackpoint>
          <Trackpoint>
            <Time>2019-10-09T09:08:40.000Z</Time>
            <Position>
              <LatitudeDegrees>39.11580783315002918243408203125</LatitudeDegrees>
              <LongitudeDegrees>-6.27886028029024600982666015625</LongitudeDegrees>
            </Position>
            <AltitudeMeters>367.399993896484375</AltitudeMeters>
            <DistanceMeters>NAN</DistanceMeters>
          </Trackpoint>
          <Trackpoint>
            <Time>2019-10-09T09:08:42.000Z</Time>
            <Position>
              <LatitudeDegrees>39.115655533969402313232421875</LatitudeDegrees>
              <LongitudeDegrees>-6.27889665775001049041748046875</LongitudeDegrees>
            </Position>
            <AltitudeMeters>367</AltitudeMeters>
            <DistanceMeters>NAN</DistanceMeters>
          </Trackpoint>
          <Trackpoint>
            <Time>2019-10-09T09:08:49.000Z</Time>
            <Position>
              <LatitudeDegrees>39.1151303239166736602783203125</LatitudeDegrees>
              <LongitudeDegrees>-6.27902054227888584136962890625</LongitudeDegrees>
            </Position>
            <AltitudeMeters>366.600006103515625</AltitudeMeters>
            <DistanceMeters>NAN</DistanceMeters>
          </Trackpoint>
          <Trackpoint>
            <Time>2019-10-09T09:08:51.000Z</Time>
            <Position>
              <LatitudeDegrees>39.1149784438312053680419921875</LatitudeDegrees>
              <LongitudeDegrees>-6.27905557863414287567138671875</LongitudeDegrees>
            </Position>
            <AltitudeMeters>366.79998779296875</AltitudeMeters>
            <DistanceMeters>NAN</DistanceMeters>
          </Trackpoint>
          <Trackpoint>
            <Time>2019-10-09T09:08:58.000Z</Time>
            <Position>
              <LatitudeDegrees>39.114447869360446929931640625</LatitudeDegrees>
              <LongitudeDegrees>-6.27918499521911144256591796875</LongitudeDegrees>
            </Position>
            <AltitudeMeters>366.20001220703125</AltitudeMeters>
            <DistanceMeters>NAN</DistanceMeters>
          </Trackpoint>
          <Trackpoint>
            <Time>2019-10-09T09:09:00.000Z</Time>
            <Position>
              <LatitudeDegrees>39.11429464817047119140625</LatitudeDegrees>
              <LongitudeDegrees>-6.27922019921243190765380859375</LongitudeDegrees>
            </Position>
            <AltitudeMeters>365.79998779296875</AltitudeMeters>
            <DistanceMeters>NAN</DistanceMeters>
          </Trackpoint>
          <Trackpoint>
            <Time>2019-10-09T09:09:07.000Z</Time>
            <Position>
              <LatitudeDegrees>39.11376063711941242218017578125</LatitudeDegrees>
              <LongitudeDegrees>-6.279348693788051605224609375</LongitudeDegrees>
            </Position>
            <AltitudeMeters>365</AltitudeMeters>
            <DistanceMeters>NAN</DistanceMeters>
          </Trackpoint>
          <Trackpoint>
            <Time>2019-10-09T09:09:08.000Z</Time>
            <Position>
              <LatitudeDegrees>39.113684110343456268310546875</LatitudeDegrees>
              <LongitudeDegrees>-6.279365457594394683837890625</LongitudeDegrees>
            </Position>
            <AltitudeMeters>364.600006103515625</AltitudeMeters>
            <DistanceMeters>NAN</DistanceMeters>
          </Trackpoint>
          <Trackpoint>
            <Time>2019-10-09T09:09:11.000Z</Time>
            <Position>
              <LatitudeDegrees>39.11345369182527065277099609375</LatitudeDegrees>
              <LongitudeDegrees>-6.2794209457933902740478515625</LongitudeDegrees>
            </Position>
            <AltitudeMeters>364.399993896484375</AltitudeMeters>
            <DistanceMeters>NAN</DistanceMeters>
          </Trackpoint>
          <Trackpoint>
            <Time>2019-10-09T09:09:14.000Z</Time>
            <Position>
              <LatitudeDegrees>39.11322302184998989105224609375</LatitudeDegrees>
              <LongitudeDegrees>-6.27947819419205188751220703125</LongitudeDegrees>
            </Position>
            <AltitudeMeters>363.600006103515625</AltitudeMeters>
            <DistanceMeters>NAN</DistanceMeters>
          </Trackpoint>
          <Trackpoint>
            <Time>2019-10-09T09:09:21.000Z</Time>
            <Position>
              <LatitudeDegrees>39.1126895137131214141845703125</LatitudeDegrees>
              <LongitudeDegrees>-6.27960794605314731597900390625</LongitudeDegrees>
            </Position>
            <AltitudeMeters>363.20001220703125</AltitudeMeters>
            <DistanceMeters>NAN</DistanceMeters>
          </Trackpoint>
          <Trackpoint>
            <Time>2019-10-09T09:09:22.000Z</Time>
            <Position>
              <LatitudeDegrees>39.11261382512748241424560546875</LatitudeDegrees>
              <LongitudeDegrees>-6.2796266376972198486328125</LongitudeDegrees>
            </Position>
            <AltitudeMeters>363.20001220703125</AltitudeMeters>
            <DistanceMeters>NAN</DistanceMeters>
          </Trackpoint>
          <Trackpoint>
            <Time>2019-10-09T09:09:25.000Z</Time>
            <Position>
              <LatitudeDegrees>39.1123827360570430755615234375</LatitudeDegrees>
              <LongitudeDegrees>-6.279681287705898284912109375</LongitudeDegrees>
            </Position>
            <AltitudeMeters>362.399993896484375</AltitudeMeters>
            <DistanceMeters>NAN</DistanceMeters>
          </Trackpoint>
          <Trackpoint>
            <Time>2019-10-09T09:09:32.000Z</Time>
            <Position>
              <LatitudeDegrees>39.11184269003570079803466796875</LatitudeDegrees>
              <LongitudeDegrees>-6.27980701625347137451171875</LongitudeDegrees>
            </Position>
            <AltitudeMeters>362</AltitudeMeters>
            <DistanceMeters>NAN</DistanceMeters>
          </Trackpoint>
          <Trackpoint>
            <Time>2019-10-09T09:09:34.000Z</Time>
            <Position>
              <LatitudeDegrees>39.11168879829347133636474609375</LatitudeDegrees>
              <LongitudeDegrees>-6.27984515391290187835693359375</LongitudeDegrees>
            </Position>
            <AltitudeMeters>361.399993896484375</AltitudeMeters>
            <DistanceMeters>NAN</DistanceMeters>
          </Trackpoint>
          <Trackpoint>
            <Time>2019-10-09T09:09:37.000Z</Time>
            <Position>
              <LatitudeDegrees>39.11145745776593685150146484375</LatitudeDegrees>
              <LongitudeDegrees>-6.27990298904478549957275390625</LongitudeDegrees>
            </Position>
            <AltitudeMeters>361.20001220703125</AltitudeMeters>
            <DistanceMeters>NAN</DistanceMeters>
          </Trackpoint>
          <Trackpoint>
            <Time>2019-10-09T09:09:44.000Z</Time>
            <Position>
              <LatitudeDegrees>39.1109259612858295440673828125</LatitudeDegrees>
              <LongitudeDegrees>-6.28003290854394435882568359375</LongitudeDegrees>
            </Position>
            <AltitudeMeters>360.20001220703125</AltitudeMeters>
            <DistanceMeters>NAN</DistanceMeters>
          </Trackpoint>
          <Trackpoint>
            <Time>2019-10-09T09:09:46.000Z</Time>
            <Position>
              <LatitudeDegrees>39.11077232100069522857666015625</LatitudeDegrees>
              <LongitudeDegrees>-6.280068196356296539306640625</LongitudeDegrees>
            </Position>
            <AltitudeMeters>359.79998779296875</AltitudeMeters>
            <DistanceMeters>NAN</DistanceMeters>
          </Trackpoint>
          <Trackpoint>
            <Time>2019-10-09T09:09:53.000Z</Time>
            <Position>
              <LatitudeDegrees>39.1102373041212558746337890625</LatitudeDegrees>
              <LongitudeDegrees>-6.28019459545612335205078125</LongitudeDegrees>
            </Position>
            <AltitudeMeters>359.399993896484375</AltitudeMeters>
            <DistanceMeters>NAN</DistanceMeters>
          </Trackpoint>
          <Trackpoint>
            <Time>2019-10-09T09:09:54.000Z</Time>
            <Position>
              <LatitudeDegrees>39.11016161553561687469482421875</LatitudeDegrees>
              <LongitudeDegrees>-6.280213706195354461669921875</LongitudeDegrees>
            </Position>
            <AltitudeMeters>358.79998779296875</AltitudeMeters>
            <DistanceMeters>NAN</DistanceMeters>
          </Trackpoint>
          <Trackpoint>
            <Time>2019-10-09T09:09:57.000Z</Time>
            <Position>
              <LatitudeDegrees>39.109936393797397613525390625</LatitudeDegrees>
              <LongitudeDegrees>-6.2802695296704769134521484375</LongitudeDegrees>
            </Position>
            <AltitudeMeters>359</AltitudeMeters>
            <DistanceMeters>NAN</DistanceMeters>
          </Trackpoint>
          <Trackpoint>
            <Time>2019-10-09T09:10:04.000Z</Time>
            <Position>
              <LatitudeDegrees>39.10941780544817447662353515625</LatitudeDegrees>
              <LongitudeDegrees>-6.28039282746613025665283203125</LongitudeDegrees>
            </Position>
            <AltitudeMeters>358.79998779296875</AltitudeMeters>
            <DistanceMeters>NAN</DistanceMeters>
          </Trackpoint>
          <Trackpoint>
            <Time>2019-10-09T09:10:07.000Z</Time>
            <Position>
              <LatitudeDegrees>39.10920054651796817779541015625</LatitudeDegrees>
              <LongitudeDegrees>-6.2804447114467620849609375</LongitudeDegrees>
            </Position>
            <AltitudeMeters>358.399993896484375</AltitudeMeters>
            <DistanceMeters>NAN</DistanceMeters>
          </Trackpoint>
          <Trackpoint>
            <Time>2019-10-09T09:10:15.000Z</Time>
            <Position>
              <LatitudeDegrees>39.10862470977008342742919921875</LatitudeDegrees>
              <LongitudeDegrees>-6.28057857044041156768798828125</LongitudeDegrees>
            </Position>
            <AltitudeMeters>357.79998779296875</AltitudeMeters>
            <DistanceMeters>NAN</DistanceMeters>
          </Trackpoint>
          <Trackpoint>
            <Time>2019-10-09T09:10:16.000Z</Time>
            <Position>
              <LatitudeDegrees>39.10855413414537906646728515625</LatitudeDegrees>
              <LongitudeDegrees>-6.28059533424675464630126953125</LongitudeDegrees>
            </Position>
            <AltitudeMeters>357.399993896484375</AltitudeMeters>
            <DistanceMeters>NAN</DistanceMeters>
          </Trackpoint>
          <Trackpoint>
            <Time>2019-10-09T09:10:17.000Z</Time>
            <Position>
              <LatitudeDegrees>39.108483307063579559326171875</LatitudeDegrees>
              <LongitudeDegrees>-6.28061226569116115570068359375</LongitudeDegrees>
            </Position>
            <AltitudeMeters>357.399993896484375</AltitudeMeters>
            <DistanceMeters>NAN</DistanceMeters>
          </Trackpoint>
          <Trackpoint>
            <Time>2019-10-09T09:10:25.000Z</Time>
            <Position>
              <LatitudeDegrees>39.1079185344278812408447265625</LatitudeDegrees>
              <LongitudeDegrees>-6.2807553447782993316650390625</LongitudeDegrees>
            </Position>
            <AltitudeMeters>357</AltitudeMeters>
            <DistanceMeters>NAN</DistanceMeters>
          </Trackpoint>
          <Trackpoint>
            <Time>2019-10-09T09:10:26.000Z</Time>
            <Position>
              <LatitudeDegrees>39.10784871317446231842041015625</LatitudeDegrees>
              <LongitudeDegrees>-6.2807747907936573028564453125</LongitudeDegrees>
            </Position>
            <AltitudeMeters>356.399993896484375</AltitudeMeters>
            <DistanceMeters>NAN</DistanceMeters>
          </Trackpoint>
          <Trackpoint>
            <Time>2019-10-09T09:10:29.000Z</Time>
            <Position>
              <LatitudeDegrees>39.10764117725193500518798828125</LatitudeDegrees>
              <LongitudeDegrees>-6.28082416020333766937255859375</LongitudeDegrees>
            </Position>
            <AltitudeMeters>356.399993896484375</AltitudeMeters>
            <DistanceMeters>NAN</DistanceMeters>
          </Trackpoint>
          <Trackpoint>
            <Time>2019-10-09T09:10:37.000Z</Time>
            <Position>
              <LatitudeDegrees>39.10708646290004253387451171875</LatitudeDegrees>
              <LongitudeDegrees>-6.2809618748724460601806640625</LongitudeDegrees>
            </Position>
            <AltitudeMeters>356.399993896484375</AltitudeMeters>
            <DistanceMeters>NAN</DistanceMeters>
          </Trackpoint>
          <Trackpoint>
            <Time>2019-10-09T09:10:39.000Z</Time>
            <Position>
              <LatitudeDegrees>39.1069469042122364044189453125</LatitudeDegrees>
              <LongitudeDegrees>-6.2809950672090053558349609375</LongitudeDegrees>
            </Position>
            <AltitudeMeters>356.20001220703125</AltitudeMeters>
            <DistanceMeters>NAN</DistanceMeters>
          </Trackpoint>
          <Trackpoint>
            <Time>2019-10-09T09:10:47.000Z</Time>
            <Position>
              <LatitudeDegrees>39.10638472996652126312255859375</LatitudeDegrees>
              <LongitudeDegrees>-6.281124986708164215087890625</LongitudeDegrees>
            </Position>
            <AltitudeMeters>355.20001220703125</AltitudeMeters>
            <DistanceMeters>NAN</DistanceMeters>
          </Trackpoint>
          <Trackpoint>
            <Time>2019-10-09T09:10:48.000Z</Time>
            <Position>
              <LatitudeDegrees>39.10631499253213405609130859375</LatitudeDegrees>
              <LongitudeDegrees>-6.28114233724772930145263671875</LongitudeDegrees>
            </Position>
            <AltitudeMeters>355.20001220703125</AltitudeMeters>
            <DistanceMeters>NAN</DistanceMeters>
          </Trackpoint>
          <Trackpoint>
            <Time>2019-10-09T09:10:56.000Z</Time>
            <Position>
              <LatitudeDegrees>39.10575449466705322265625</LatitudeDegrees>
              <LongitudeDegrees>-6.2813005037605762481689453125</LongitudeDegrees>
            </Position>
            <AltitudeMeters>355</AltitudeMeters>
            <DistanceMeters>NAN</DistanceMeters>
          </Trackpoint>
          <Trackpoint>
            <Time>2019-10-09T09:10:58.000Z</Time>
            <Position>
              <LatitudeDegrees>39.1056188754737377166748046875</LatitudeDegrees>
              <LongitudeDegrees>-6.2813544832170009613037109375</LongitudeDegrees>
            </Position>
            <AltitudeMeters>354.79998779296875</AltitudeMeters>
            <DistanceMeters>NAN</DistanceMeters>
          </Trackpoint>
          <Trackpoint>
            <Time>2019-10-09T09:11:04.000Z</Time>
            <Position>
              <LatitudeDegrees>39.1052225790917873382568359375</LatitudeDegrees>
              <LongitudeDegrees>-6.28155472688376903533935546875</LongitudeDegrees>
            </Position>
            <AltitudeMeters>354.20001220703125</AltitudeMeters>
            <DistanceMeters>NAN</DistanceMeters>
          </Trackpoint>
          <Trackpoint>
            <Time>2019-10-09T09:11:06.000Z</Time>
            <Position>
              <LatitudeDegrees>39.10509609617292881011962890625</LatitudeDegrees>
              <LongitudeDegrees>-6.281629242002964019775390625</LongitudeDegrees>
            </Position>
            <AltitudeMeters>353.79998779296875</AltitudeMeters>
            <DistanceMeters>NAN</DistanceMeters>
          </Trackpoint>
          <Trackpoint>
            <Time>2019-10-09T09:11:14.000Z</Time>
            <Position>
              <LatitudeDegrees>39.104597456753253936767578125</LatitudeDegrees>
              <LongitudeDegrees>-6.2819392047822475433349609375</LongitudeDegrees>
            </Position>
            <AltitudeMeters>354</AltitudeMeters>
            <DistanceMeters>NAN</DistanceMeters>
          </Trackpoint>
          <Trackpoint>
            <Time>2019-10-09T09:11:16.000Z</Time>
            <Position>
              <LatitudeDegrees>39.10447449423372745513916015625</LatitudeDegrees>
              <LongitudeDegrees>-6.2820190005004405975341796875</LongitudeDegrees>
            </Position>
            <AltitudeMeters>354.20001220703125</AltitudeMeters>
            <DistanceMeters>NAN</DistanceMeters>
          </Trackpoint>
          <Trackpoint>
            <Time>2019-10-09T09:11:23.000Z</Time>
            <Position>
              <LatitudeDegrees>39.10403729416429996490478515625</LatitudeDegrees>
              <LongitudeDegrees>-6.28228646703064441680908203125</LongitudeDegrees>
            </Position>
            <AltitudeMeters>352.79998779296875</AltitudeMeters>
            <DistanceMeters>NAN</DistanceMeters>
          </Trackpoint>
          <Trackpoint>
            <Time>2019-10-09T09:11:27.000Z</Time>
            <Position>
              <LatitudeDegrees>39.10379723645746707916259765625</LatitudeDegrees>
              <LongitudeDegrees>-6.2824374251067638397216796875</LongitudeDegrees>
            </Position>
            <AltitudeMeters>352.79998779296875</AltitudeMeters>
            <DistanceMeters>NAN</DistanceMeters>
          </Trackpoint>
          <Trackpoint>
            <Time>2019-10-09T09:11:33.000Z</Time>
            <Position>
              <LatitudeDegrees>39.103432707488536834716796875</LatitudeDegrees>
              <LongitudeDegrees>-6.2826640717685222625732421875</LongitudeDegrees>
            </Position>
            <AltitudeMeters>351.79998779296875</AltitudeMeters>
            <DistanceMeters>NAN</DistanceMeters>
          </Trackpoint>
          <Trackpoint>
            <Time>2019-10-09T09:11:35.000Z</Time>
            <Position>
              <LatitudeDegrees>39.1033098287880420684814453125</LatitudeDegrees>
              <LongitudeDegrees>-6.28274126909673213958740234375</LongitudeDegrees>
            </Position>
            <AltitudeMeters>352.20001220703125</AltitudeMeters>
            <DistanceMeters>NAN</DistanceMeters>
          </Trackpoint>
          <Trackpoint>
            <Time>2019-10-09T09:11:39.000Z</Time>
            <Position>
              <LatitudeDegrees>39.10305929370224475860595703125</LatitudeDegrees>
              <LongitudeDegrees>-6.28289851360023021697998046875</LongitudeDegrees>
            </Position>
            <AltitudeMeters>351.600006103515625</AltitudeMeters>
            <DistanceMeters>NAN</DistanceMeters>
          </Trackpoint>
          <Trackpoint>
            <Time>2019-10-09T09:11:42.000Z</Time>
            <Position>
              <LatitudeDegrees>39.10287405364215373992919921875</LatitudeDegrees>
              <LongitudeDegrees>-6.28301217220723628997802734375</LongitudeDegrees>
            </Position>
            <AltitudeMeters>352</AltitudeMeters>
            <DistanceMeters>NAN</DistanceMeters>
          </Trackpoint>
          <Trackpoint>
            <Time>2019-10-09T09:11:43.000Z</Time>
            <Position>
              <LatitudeDegrees>39.10281202755868434906005859375</LatitudeDegrees>
              <LongitudeDegrees>-6.2830513156950473785400390625</LongitudeDegrees>
            </Position>
            <AltitudeMeters>351.79998779296875</AltitudeMeters>
            <DistanceMeters>NAN</DistanceMeters>
          </Trackpoint>
          <Trackpoint>
            <Time>2019-10-09T09:11:51.000Z</Time>
            <Position>
              <LatitudeDegrees>39.1023070178925991058349609375</LatitudeDegrees>
              <LongitudeDegrees>-6.283363290131092071533203125</LongitudeDegrees>
            </Position>
            <AltitudeMeters>351.399993896484375</AltitudeMeters>
            <DistanceMeters>NAN</DistanceMeters>
          </Trackpoint>
          <Trackpoint>
            <Time>2019-10-09T09:11:53.000Z</Time>
            <Position>
              <LatitudeDegrees>39.10218455828726291656494140625</LatitudeDegrees>
              <LongitudeDegrees>-6.28343981690704822540283203125</LongitudeDegrees>
            </Position>
            <AltitudeMeters>351.600006103515625</AltitudeMeters>
            <DistanceMeters>NAN</DistanceMeters>
          </Trackpoint>
          <Trackpoint>
            <Time>2019-10-09T09:11:59.000Z</Time>
            <Position>
              <LatitudeDegrees>39.101805947721004486083984375</LatitudeDegrees>
              <LongitudeDegrees>-6.283677779138088226318359375</LongitudeDegrees>
            </Position>
            <AltitudeMeters>350.79998779296875</AltitudeMeters>
            <DistanceMeters>NAN</DistanceMeters>
          </Trackpoint>
          <Trackpoint>
            <Time>2019-10-09T09:12:02.000Z</Time>
            <Position>
              <LatitudeDegrees>39.101615846157073974609375</LatitudeDegrees>
              <LongitudeDegrees>-6.28379738889634609222412109375</LongitudeDegrees>
            </Position>
            <AltitudeMeters>350.79998779296875</AltitudeMeters>
            <DistanceMeters>NAN</DistanceMeters>
          </Trackpoint>
          <Trackpoint>
            <Time>2019-10-09T09:12:08.000Z</Time>
            <Position>
              <LatitudeDegrees>39.10124746151268482208251953125</LatitudeDegrees>
              <LongitudeDegrees>-6.2840286456048488616943359375</LongitudeDegrees>
            </Position>
            <AltitudeMeters>349.399993896484375</AltitudeMeters>
            <DistanceMeters>NAN</DistanceMeters>
          </Trackpoint>
          <Trackpoint>
            <Time>2019-10-09T09:12:11.000Z</Time>
            <Position>
              <LatitudeDegrees>39.10106792114675045013427734375</LatitudeDegrees>
              <LongitudeDegrees>-6.28413601778447628021240234375</LongitudeDegrees>
            </Position>
            <AltitudeMeters>350</AltitudeMeters>
            <DistanceMeters>NAN</DistanceMeters>
          </Trackpoint>
          <Trackpoint>
            <Time>2019-10-09T09:12:19.000Z</Time>
            <Position>
              <LatitudeDegrees>39.1005914099514484405517578125</LatitudeDegrees>
              <LongitudeDegrees>-6.28442175686359405517578125</LongitudeDegrees>
            </Position>
            <AltitudeMeters>349.600006103515625</AltitudeMeters>
            <DistanceMeters>NAN</DistanceMeters>
          </Trackpoint>
          <Trackpoint>
            <Time>2019-10-09T09:12:27.000Z</Time>
            <Position>
              <LatitudeDegrees>39.10011791624128818511962890625</LatitudeDegrees>
              <LongitudeDegrees>-6.284719146788120269775390625</LongitudeDegrees>
            </Position>
            <AltitudeMeters>349.20001220703125</AltitudeMeters>
            <DistanceMeters>NAN</DistanceMeters>
          </Trackpoint>
          <Trackpoint>
            <Time>2019-10-09T09:12:30.000Z</Time>
            <Position>
              <LatitudeDegrees>39.09993552602827548980712890625</LatitudeDegrees>
              <LongitudeDegrees>-6.284833140671253204345703125</LongitudeDegrees>
            </Position>
            <AltitudeMeters>348.600006103515625</AltitudeMeters>
            <DistanceMeters>NAN</DistanceMeters>
          </Trackpoint>
          <Trackpoint>
            <Time>2019-10-09T09:12:34.000Z</Time>
            <Position>
              <LatitudeDegrees>39.0996918641030788421630859375</LatitudeDegrees>
              <LongitudeDegrees>-6.28498778678476810455322265625</LongitudeDegrees>
            </Position>
            <AltitudeMeters>348.399993896484375</AltitudeMeters>
            <DistanceMeters>NAN</DistanceMeters>
          </Trackpoint>
          <Trackpoint>
            <Time>2019-10-09T09:12:40.000Z</Time>
            <Position>
              <LatitudeDegrees>39.0993158519268035888671875</LatitudeDegrees>
              <LongitudeDegrees>-6.285217367112636566162109375</LongitudeDegrees>
            </Position>
            <AltitudeMeters>348.399993896484375</AltitudeMeters>
            <DistanceMeters>NAN</DistanceMeters>
          </Trackpoint>
          <Trackpoint>
            <Time>2019-10-09T09:12:48.000Z</Time>
            <Position>
              <LatitudeDegrees>39.09882190637290477752685546875</LatitudeDegrees>
              <LongitudeDegrees>-6.28552188165485858917236328125</LongitudeDegrees>
            </Position>
            <AltitudeMeters>347.399993896484375</AltitudeMeters>
            <DistanceMeters>NAN</DistanceMeters>
          </Trackpoint>
          <Trackpoint>
            <Time>2019-10-09T09:12:49.000Z</Time>
            <Position>
              <LatitudeDegrees>39.09876122139394283294677734375</LatitudeDegrees>
              <LongitudeDegrees>-6.28555691801011562347412109375</LongitudeDegrees>
            </Position>
            <AltitudeMeters>347.399993896484375</AltitudeMeters>
            <DistanceMeters>NAN</DistanceMeters>
          </Trackpoint>
          <Trackpoint>
            <Time>2019-10-09T09:12:53.000Z</Time>
            <Position>
              <LatitudeDegrees>39.09850993193686008453369140625</LatitudeDegrees>
              <LongitudeDegrees>-6.28569605760276317596435546875</LongitudeDegrees>
            </Position>
            <AltitudeMeters>347.20001220703125</AltitudeMeters>
            <DistanceMeters>NAN</DistanceMeters>
          </Trackpoint>
          <Trackpoint>
            <Time>2019-10-09T09:12:58.000Z</Time>
            <Position>
              <LatitudeDegrees>39.09818152897059917449951171875</LatitudeDegrees>
              <LongitudeDegrees>-6.2858448363840579986572265625</LongitudeDegrees>
            </Position>
            <AltitudeMeters>346.399993896484375</AltitudeMeters>
            <DistanceMeters>NAN</DistanceMeters>
          </Trackpoint>
          <Trackpoint>
            <Time>2019-10-09T09:12:59.000Z</Time>
            <Position>
              <LatitudeDegrees>39.09811397083103656768798828125</LatitudeDegrees>
              <LongitudeDegrees>-6.285868473351001739501953125</LongitudeDegrees>
            </Position>
            <AltitudeMeters>345.79998779296875</AltitudeMeters>
            <DistanceMeters>NAN</DistanceMeters>
          </Trackpoint>
          <Trackpoint>
            <Time>2019-10-09T09:13:05.000Z</Time>
            <Position>
              <LatitudeDegrees>39.09768900834023952484130859375</LatitudeDegrees>
              <LongitudeDegrees>-6.2859754264354705810546875</LongitudeDegrees>
            </Position>
            <AltitudeMeters>346</AltitudeMeters>
            <DistanceMeters>NAN</DistanceMeters>
          </Trackpoint>
          <Trackpoint>
            <Time>2019-10-09T09:13:10.000Z</Time>
            <Position>
              <LatitudeDegrees>39.09732456319034099578857421875</LatitudeDegrees>
              <LongitudeDegrees>-6.286022029817104339599609375</LongitudeDegrees>
            </Position>
            <AltitudeMeters>344.79998779296875</AltitudeMeters>
            <DistanceMeters>NAN</DistanceMeters>
          </Trackpoint>
          <Trackpoint>
            <Time>2019-10-09T09:13:13.000Z</Time>
            <Position>
              <LatitudeDegrees>39.09710428677499294281005859375</LatitudeDegrees>
              <LongitudeDegrees>-6.28602881915867328643798828125</LongitudeDegrees>
            </Position>
            <AltitudeMeters>344.399993896484375</AltitudeMeters>
            <DistanceMeters>NAN</DistanceMeters>
          </Trackpoint>
          <Trackpoint>
            <Time>2019-10-09T09:13:21.000Z</Time>
            <Position>
              <LatitudeDegrees>39.09650883637368679046630859375</LatitudeDegrees>
              <LongitudeDegrees>-6.28600752912461757659912109375</LongitudeDegrees>
            </Position>
            <AltitudeMeters>343.600006103515625</AltitudeMeters>
            <DistanceMeters>NAN</DistanceMeters>
          </Trackpoint>
          <Trackpoint>
            <Time>2019-10-09T09:13:24.000Z</Time>
            <Position>
              <LatitudeDegrees>39.09628252498805522918701171875</LatitudeDegrees>
              <LongitudeDegrees>-6.2859942018985748291015625</LongitudeDegrees>
            </Position>
            <AltitudeMeters>343.600006103515625</AltitudeMeters>
            <DistanceMeters>NAN</DistanceMeters>
          </Trackpoint>
          <Trackpoint>
            <Time>2019-10-09T09:13:30.000Z</Time>
            <Position>
              <LatitudeDegrees>39.09582453779876232147216796875</LatitudeDegrees>
              <LongitudeDegrees>-6.2859859876334667205810546875</LongitudeDegrees>
            </Position>
            <AltitudeMeters>342.399993896484375</AltitudeMeters>
            <DistanceMeters>NAN</DistanceMeters>
          </Trackpoint>
          <Trackpoint>
            <Time>2019-10-09T09:13:33.000Z</Time>
            <Position>
              <LatitudeDegrees>39.09559168852865695953369140625</LatitudeDegrees>
              <LongitudeDegrees>-6.2860094569623470306396484375</LongitudeDegrees>
            </Position>
            <AltitudeMeters>342</AltitudeMeters>
            <DistanceMeters>NAN</DistanceMeters>
          </Trackpoint>
          <Trackpoint>
            <Time>2019-10-09T09:13:35.000Z</Time>
            <Position>
              <LatitudeDegrees>39.09543980844318866729736328125</LatitudeDegrees>
              <LongitudeDegrees>-6.28603317774832248687744140625</LongitudeDegrees>
            </Position>
            <AltitudeMeters>341.20001220703125</AltitudeMeters>
            <DistanceMeters>NAN</DistanceMeters>
          </Trackpoint>
          <Trackpoint>
            <Time>2019-10-09T09:13:41.000Z</Time>
            <Position>
              <LatitudeDegrees>39.09500218927860260009765625</LatitudeDegrees>
              <LongitudeDegrees>-6.28616460599005222320556640625</LongitudeDegrees>
            </Position>
            <AltitudeMeters>341.20001220703125</AltitudeMeters>
            <DistanceMeters>NAN</DistanceMeters>
          </Trackpoint>
          <Trackpoint>
            <Time>2019-10-09T09:13:48.000Z</Time>
            <Position>
              <LatitudeDegrees>39.09453037194907665252685546875</LatitudeDegrees>
              <LongitudeDegrees>-6.286408603191375732421875</LongitudeDegrees>
            </Position>
            <AltitudeMeters>340.79998779296875</AltitudeMeters>
            <DistanceMeters>NAN</DistanceMeters>
          </Trackpoint>
          <Trackpoint>
            <Time>2019-10-09T09:13:56.000Z</Time>
            <Position>
              <LatitudeDegrees>39.09404338337481021881103515625</LatitudeDegrees>
              <LongitudeDegrees>-6.2867215834558010101318359375</LongitudeDegrees>
            </Position>
            <AltitudeMeters>341.20001220703125</AltitudeMeters>
            <DistanceMeters>NAN</DistanceMeters>
          </Trackpoint>
          <Trackpoint>
            <Time>2019-10-09T09:13:57.000Z</Time>
            <Position>
              <LatitudeDegrees>39.09398269839584827423095703125</LatitudeDegrees>
              <LongitudeDegrees>-6.286755613982677459716796875</LongitudeDegrees>
            </Position>
            <AltitudeMeters>341</AltitudeMeters>
            <DistanceMeters>NAN</DistanceMeters>
          </Trackpoint>
          <Trackpoint>
            <Time>2019-10-09T09:14:00.000Z</Time>
            <Position>
              <LatitudeDegrees>39.09384724684059619903564453125</LatitudeDegrees>
              <LongitudeDegrees>-6.2868483178317546844482421875</LongitudeDegrees>
            </Position>
            <AltitudeMeters>342.399993896484375</AltitudeMeters>
            <DistanceMeters>NAN</DistanceMeters>
          </Trackpoint>
          <Trackpoint>
            <Time>2019-10-09T09:14:01.000Z</Time>
            <Position>
              <LatitudeDegrees>39.0938171558082103729248046875</LatitudeDegrees>
              <LongitudeDegrees>-6.28684253431856632232666015625</LongitudeDegrees>
            </Position>
            <AltitudeMeters>342.399993896484375</AltitudeMeters>
            <DistanceMeters>NAN</DistanceMeters>
          </Trackpoint>
          <Trackpoint>
            <Time>2019-10-09T09:14:03.000Z</Time>
            <Position>
              <LatitudeDegrees>39.09381992183625698089599609375</LatitudeDegrees>
              <LongitudeDegrees>-6.2867675162851810455322265625</LongitudeDegrees>
            </Position>
            <AltitudeMeters>342.600006103515625</AltitudeMeters>
            <DistanceMeters>NAN</DistanceMeters>
          </Trackpoint>
          <Trackpoint>
            <Time>2019-10-09T09:14:06.000Z</Time>
            <Position>
              <LatitudeDegrees>39.093880690634250640869140625</LatitudeDegrees>
              <LongitudeDegrees>-6.28672284074127674102783203125</LongitudeDegrees>
            </Position>
            <AltitudeMeters>342.79998779296875</AltitudeMeters>
            <DistanceMeters>NAN</DistanceMeters>
          </Trackpoint>
          <Trackpoint>
            <Time>2019-10-09T09:14:10.000Z</Time>
            <Position>
              <LatitudeDegrees>39.09394430927932262420654296875</LatitudeDegrees>
              <LongitudeDegrees>-6.28668277524411678314208984375</LongitudeDegrees>
            </Position>
            <AltitudeMeters>342.79998779296875</AltitudeMeters>
            <DistanceMeters>NAN</DistanceMeters>
          </Trackpoint>
          <Trackpoint>
            <Time>2019-10-09T09:14:12.000Z</Time>
            <Position>
              <LatitudeDegrees>39.09397146664559841156005859375</LatitudeDegrees>
              <LongitudeDegrees>-6.286667101085186004638671875</LongitudeDegrees>
            </Position>
            <AltitudeMeters>343.20001220703125</AltitudeMeters>
            <DistanceMeters>NAN</DistanceMeters>
          </Trackpoint>
          <Trackpoint>
            <Time>2019-10-09T09:14:14.000Z</Time>
            <Position>
              <LatitudeDegrees>39.09400147385895252227783203125</LatitudeDegrees>
              <LongitudeDegrees>-6.28667875193059444427490234375</LongitudeDegrees>
            </Position>
            <AltitudeMeters>342.79998779296875</AltitudeMeters>
            <DistanceMeters>NAN</DistanceMeters>
          </Trackpoint>
          <Trackpoint>
            <Time>2019-10-09T09:14:16.000Z</Time>
            <Position>
              <LatitudeDegrees>39.0939988754689693450927734375</LatitudeDegrees>
              <LongitudeDegrees>-6.28674111329019069671630859375</LongitudeDegrees>
            </Position>
            <AltitudeMeters>342.79998779296875</AltitudeMeters>
            <DistanceMeters>NAN</DistanceMeters>
          </Trackpoint>
          <Trackpoint>
            <Time>2019-10-09T09:14:19.000Z</Time>
            <Position>
              <LatitudeDegrees>39.09389619715511798858642578125</LatitudeDegrees>
              <LongitudeDegrees>-6.28681453876197338104248046875</LongitudeDegrees>
            </Position>
            <AltitudeMeters>342.399993896484375</AltitudeMeters>
            <DistanceMeters>NAN</DistanceMeters>
          </Trackpoint>
          <Trackpoint>
            <Time>2019-10-09T09:14:20.000Z</Time>
            <Position>
              <LatitudeDegrees>39.09385797567665576934814453125</LatitudeDegrees>
              <LongitudeDegrees>-6.2868476472795009613037109375</LongitudeDegrees>
            </Position>
            <AltitudeMeters>342.20001220703125</AltitudeMeters>
            <DistanceMeters>NAN</DistanceMeters>
          </Trackpoint>
          <Trackpoint>
            <Time>2019-10-09T09:14:21.000Z</Time>
            <Position>
              <LatitudeDegrees>39.09381103701889514923095703125</LatitudeDegrees>
              <LongitudeDegrees>-6.2868737988173961639404296875</LongitudeDegrees>
            </Position>
            <AltitudeMeters>342.20001220703125</AltitudeMeters>
            <DistanceMeters>NAN</DistanceMeters>
          </Trackpoint>
          <Trackpoint>
            <Time>2019-10-09T09:14:24.000Z</Time>
            <Position>
              <LatitudeDegrees>39.0936629287898540496826171875</LatitudeDegrees>
              <LongitudeDegrees>-6.2869794107973575592041015625</LongitudeDegrees>
            </Position>
            <AltitudeMeters>341.79998779296875</AltitudeMeters>
            <DistanceMeters>NAN</DistanceMeters>
          </Trackpoint>
          <Trackpoint>
            <Time>2019-10-09T09:14:27.000Z</Time>
            <Position>
              <LatitudeDegrees>39.09350526519119739532470703125</LatitudeDegrees>
              <LongitudeDegrees>-6.2870843522250652313232421875</LongitudeDegrees>
            </Position>
            <AltitudeMeters>341.20001220703125</AltitudeMeters>
            <DistanceMeters>NAN</DistanceMeters>
          </Trackpoint>
          <Trackpoint>
            <Time>2019-10-09T09:14:33.000Z</Time>
            <Position>
              <LatitudeDegrees>39.09317702986299991607666015625</LatitudeDegrees>
              <LongitudeDegrees>-6.28730244934558868408203125</LongitudeDegrees>
            </Position>
            <AltitudeMeters>340.600006103515625</AltitudeMeters>
            <DistanceMeters>NAN</DistanceMeters>
          </Trackpoint>
          <Trackpoint>
            <Time>2019-10-09T09:14:40.000Z</Time>
            <Position>
              <LatitudeDegrees>39.09278810955584049224853515625</LatitudeDegrees>
              <LongitudeDegrees>-6.28755767829716205596923828125</LongitudeDegrees>
            </Position>
            <AltitudeMeters>340.20001220703125</AltitudeMeters>
            <DistanceMeters>NAN</DistanceMeters>
          </Trackpoint>
          <Trackpoint>
            <Time>2019-10-09T09:14:44.000Z</Time>
            <Position>
              <LatitudeDegrees>39.09256079234182834625244140625</LatitudeDegrees>
              <LongitudeDegrees>-6.2877089716494083404541015625</LongitudeDegrees>
            </Position>
            <AltitudeMeters>340.600006103515625</AltitudeMeters>
            <DistanceMeters>NAN</DistanceMeters>
          </Trackpoint>
          <Trackpoint>
            <Time>2019-10-09T09:14:53.000Z</Time>
            <Position>
              <LatitudeDegrees>39.09204530529677867889404296875</LatitudeDegrees>
              <LongitudeDegrees>-6.28805346786975860595703125</LongitudeDegrees>
            </Position>
            <AltitudeMeters>340.20001220703125</AltitudeMeters>
            <DistanceMeters>NAN</DistanceMeters>
          </Trackpoint>
          <Trackpoint>
            <Time>2019-10-09T09:14:54.000Z</Time>
            <Position>
              <LatitudeDegrees>39.091986715793609619140625</LatitudeDegrees>
              <LongitudeDegrees>-6.28809043206274509429931640625</LongitudeDegrees>
            </Position>
            <AltitudeMeters>340</AltitudeMeters>
            <DistanceMeters>NAN</DistanceMeters>
          </Trackpoint>
          <Trackpoint>
            <Time>2019-10-09T09:15:03.000Z</Time>
            <Position>
              <LatitudeDegrees>39.09146142192184925079345703125</LatitudeDegrees>
              <LongitudeDegrees>-6.2884390354156494140625</LongitudeDegrees>
            </Position>
            <AltitudeMeters>339.399993896484375</AltitudeMeters>
            <DistanceMeters>NAN</DistanceMeters>
          </Trackpoint>
          <Trackpoint>
            <Time>2019-10-09T09:15:09.000Z</Time>
            <Position>
              <LatitudeDegrees>39.09110628068447113037109375</LatitudeDegrees>
              <LongitudeDegrees>-6.288672722876071929931640625</LongitudeDegrees>
            </Position>
            <AltitudeMeters>339</AltitudeMeters>
            <DistanceMeters>NAN</DistanceMeters>
          </Trackpoint>
          <Trackpoint>
            <Time>2019-10-09T09:15:12.000Z</Time>
            <Position>
              <LatitudeDegrees>39.09092766232788562774658203125</LatitudeDegrees>
              <LongitudeDegrees>-6.28878596238791942596435546875</LongitudeDegrees>
            </Position>
            <AltitudeMeters>339.20001220703125</AltitudeMeters>
            <DistanceMeters>NAN</DistanceMeters>
          </Trackpoint>
          <Trackpoint>
            <Time>2019-10-09T09:15:20.000Z</Time>
            <Position>
              <LatitudeDegrees>39.09046120941638946533203125</LatitudeDegrees>
              <LongitudeDegrees>-6.28910095430910587310791015625</LongitudeDegrees>
            </Position>
            <AltitudeMeters>339</AltitudeMeters>
            <DistanceMeters>NAN</DistanceMeters>
          </Trackpoint>
          <Trackpoint>
            <Time>2019-10-09T09:15:23.000Z</Time>
            <Position>
              <LatitudeDegrees>39.09028342925012111663818359375</LatitudeDegrees>
              <LongitudeDegrees>-6.2892163731157779693603515625</LongitudeDegrees>
            </Position>
            <AltitudeMeters>339</AltitudeMeters>
            <DistanceMeters>NAN</DistanceMeters>
          </Trackpoint>
          <Trackpoint>
            <Time>2019-10-09T09:15:31.000Z</Time>
            <Position>
              <LatitudeDegrees>39.0898101031780242919921875</LatitudeDegrees>
              <LongitudeDegrees>-6.2895301915705204010009765625</LongitudeDegrees>
            </Position>
            <AltitudeMeters>338.600006103515625</AltitudeMeters>
            <DistanceMeters>NAN</DistanceMeters>
          </Trackpoint>
          <Trackpoint>
            <Time>2019-10-09T09:15:33.000Z</Time>
            <Position>
              <LatitudeDegrees>39.0896909125149250030517578125</LatitudeDegrees>
              <LongitudeDegrees>-6.28960705362260341644287109375</LongitudeDegrees>
            </Position>
            <AltitudeMeters>338</AltitudeMeters>
            <DistanceMeters>NAN</DistanceMeters>
          </Trackpoint>
          <Trackpoint>
            <Time>2019-10-09T09:15:34.000Z</Time>
            <Position>
              <LatitudeDegrees>39.0896330773830413818359375</LatitudeDegrees>
              <LongitudeDegrees>-6.2896478734910488128662109375</LongitudeDegrees>
            </Position>
            <AltitudeMeters>338</AltitudeMeters>
            <DistanceMeters>NAN</DistanceMeters>
          </Trackpoint>
          <Trackpoint>
            <Time>2019-10-09T09:15:42.000Z</Time>
            <Position>
              <LatitudeDegrees>39.08915673382580280303955078125</LatitudeDegrees>
              <LongitudeDegrees>-6.2899590097367763519287109375</LongitudeDegrees>
            </Position>
            <AltitudeMeters>338</AltitudeMeters>
            <DistanceMeters>NAN</DistanceMeters>
          </Trackpoint>
          <Trackpoint>
            <Time>2019-10-09T09:15:46.000Z</Time>
            <Position>
              <LatitudeDegrees>39.08891684375703334808349609375</LatitudeDegrees>
              <LongitudeDegrees>-6.290117092430591583251953125</LongitudeDegrees>
            </Position>
            <AltitudeMeters>337.600006103515625</AltitudeMeters>
            <DistanceMeters>NAN</DistanceMeters>
          </Trackpoint>
          <Trackpoint>
            <Time>2019-10-09T09:15:51.000Z</Time>
            <Position>
              <LatitudeDegrees>39.08862012438476085662841796875</LatitudeDegrees>
              <LongitudeDegrees>-6.29031130112707614898681640625</LongitudeDegrees>
            </Position>
            <AltitudeMeters>336.79998779296875</AltitudeMeters>
            <DistanceMeters>NAN</DistanceMeters>
          </Trackpoint>
          <Trackpoint>
            <Time>2019-10-09T09:15:56.000Z</Time>
            <Position>
              <LatitudeDegrees>39.08832348883152008056640625</LatitudeDegrees>
              <LongitudeDegrees>-6.2905138917267322540283203125</LongitudeDegrees>
            </Position>
            <AltitudeMeters>336.600006103515625</AltitudeMeters>
            <DistanceMeters>NAN</DistanceMeters>
          </Trackpoint>
          <Trackpoint>
            <Time>2019-10-09T09:15:59.000Z</Time>
            <Position>
              <LatitudeDegrees>39.08814604394137859344482421875</LatitudeDegrees>
              <LongitudeDegrees>-6.29063735716044902801513671875</LongitudeDegrees>
            </Position>
            <AltitudeMeters>335.79998779296875</AltitudeMeters>
            <DistanceMeters>NAN</DistanceMeters>
          </Trackpoint>
          <Trackpoint>
            <Time>2019-10-09T09:16:05.000Z</Time>
            <Position>
              <LatitudeDegrees>39.087790735065937042236328125</LatitudeDegrees>
              <LongitudeDegrees>-6.29090876318514347076416015625</LongitudeDegrees>
            </Position>
            <AltitudeMeters>335.399993896484375</AltitudeMeters>
            <DistanceMeters>NAN</DistanceMeters>
          </Trackpoint>
          <Trackpoint>
            <Time>2019-10-09T09:16:11.000Z</Time>
            <Position>
              <LatitudeDegrees>39.08745939843356609344482421875</LatitudeDegrees>
              <LongitudeDegrees>-6.291222162544727325439453125</LongitudeDegrees>
            </Position>
            <AltitudeMeters>334.79998779296875</AltitudeMeters>
            <DistanceMeters>NAN</DistanceMeters>
          </Trackpoint>
          <Trackpoint>
            <Time>2019-10-09T09:16:13.000Z</Time>
            <Position>
              <LatitudeDegrees>39.0873533673584461212158203125</LatitudeDegrees>
              <LongitudeDegrees>-6.29133540205657482147216796875</LongitudeDegrees>
            </Position>
            <AltitudeMeters>334.20001220703125</AltitudeMeters>
            <DistanceMeters>NAN</DistanceMeters>
          </Trackpoint>
          <Trackpoint>
            <Time>2019-10-09T09:16:19.000Z</Time>
            <Position>
              <LatitudeDegrees>39.08705522306263446807861328125</LatitudeDegrees>
              <LongitudeDegrees>-6.291686855256557464599609375</LongitudeDegrees>
            </Position>
            <AltitudeMeters>334.20001220703125</AltitudeMeters>
            <DistanceMeters>NAN</DistanceMeters>
          </Trackpoint>
          <Trackpoint>
            <Time>2019-10-09T09:16:22.000Z</Time>
            <Position>
              <LatitudeDegrees>39.086909629404544830322265625</LatitudeDegrees>
              <LongitudeDegrees>-6.2918667308986186981201171875</LongitudeDegrees>
            </Position>
            <AltitudeMeters>334.79998779296875</AltitudeMeters>
            <DistanceMeters>NAN</DistanceMeters>
          </Trackpoint>
          <Trackpoint>
            <Time>2019-10-09T09:16:30.000Z</Time>
            <Position>
              <LatitudeDegrees>39.086524061858654022216796875</LatitudeDegrees>
              <LongitudeDegrees>-6.2923451699316501617431640625</LongitudeDegrees>
            </Position>
            <AltitudeMeters>334</AltitudeMeters>
            <DistanceMeters>NAN</DistanceMeters>
          </Trackpoint>
          <Trackpoint>
            <Time>2019-10-09T09:16:32.000Z</Time>
            <Position>
              <LatitudeDegrees>39.0864266641438007354736328125</LatitudeDegrees>
              <LongitudeDegrees>-6.29246494732797145843505859375</LongitudeDegrees>
            </Position>
            <AltitudeMeters>333.600006103515625</AltitudeMeters>
            <DistanceMeters>NAN</DistanceMeters>
          </Trackpoint>
          <Trackpoint>
            <Time>2019-10-09T09:16:40.000Z</Time>
            <Position>
              <LatitudeDegrees>39.08604721538722515106201171875</LatitudeDegrees>
              <LongitudeDegrees>-6.29294422455132007598876953125</LongitudeDegrees>
            </Position>
            <AltitudeMeters>332.79998779296875</AltitudeMeters>
            <DistanceMeters>NAN</DistanceMeters>
          </Trackpoint>
          <Trackpoint>
            <Time>2019-10-09T09:16:44.000Z</Time>
            <Position>
              <LatitudeDegrees>39.085858203470706939697265625</LatitudeDegrees>
              <LongitudeDegrees>-6.2931798398494720458984375</LongitudeDegrees>
            </Position>
            <AltitudeMeters>332.399993896484375</AltitudeMeters>
            <DistanceMeters>NAN</DistanceMeters>
          </Trackpoint>
          <Trackpoint>
            <Time>2019-10-09T09:16:52.000Z</Time>
            <Position>
              <LatitudeDegrees>39.0854962728917598724365234375</LatitudeDegrees>
              <LongitudeDegrees>-6.2936359830200672149658203125</LongitudeDegrees>
            </Position>
            <AltitudeMeters>332.600006103515625</AltitudeMeters>
            <DistanceMeters>NAN</DistanceMeters>
          </Trackpoint>
          <Trackpoint>
            <Time>2019-10-09T09:17:00.000Z</Time>
            <Position>
              <LatitudeDegrees>39.0851469151675701141357421875</LatitudeDegrees>
              <LongitudeDegrees>-6.29407594911754131317138671875</LongitudeDegrees>
            </Position>
            <AltitudeMeters>332.399993896484375</AltitudeMeters>
            <DistanceMeters>NAN</DistanceMeters>
          </Trackpoint>
          <Trackpoint>
            <Time>2019-10-09T09:17:07.000Z</Time>
            <Position>
              <LatitudeDegrees>39.08487156964838504791259765625</LatitudeDegrees>
              <LongitudeDegrees>-6.2944181822240352630615234375</LongitudeDegrees>
            </Position>
            <AltitudeMeters>333.20001220703125</AltitudeMeters>
            <DistanceMeters>NAN</DistanceMeters>
          </Trackpoint>
          <Trackpoint>
            <Time>2019-10-09T09:17:09.000Z</Time>
            <Position>
              <LatitudeDegrees>39.08479915000498294830322265625</LatitudeDegrees>
              <LongitudeDegrees>-6.294507198035717010498046875</LongitudeDegrees>
            </Position>
            <AltitudeMeters>333.600006103515625</AltitudeMeters>
            <DistanceMeters>NAN</DistanceMeters>
          </Trackpoint>
          <Trackpoint>
            <Time>2019-10-09T09:17:13.000Z</Time>
            <Position>
              <LatitudeDegrees>39.084661938250064849853515625</LatitudeDegrees>
              <LongitudeDegrees>-6.29467475228011608123779296875</LongitudeDegrees>
            </Position>
            <AltitudeMeters>333.20001220703125</AltitudeMeters>
            <DistanceMeters>NAN</DistanceMeters>
          </Trackpoint>
          <Trackpoint>
            <Time>2019-10-09T09:17:15.000Z</Time>
            <Position>
              <LatitudeDegrees>39.0846034325659275054931640625</LatitudeDegrees>
              <LongitudeDegrees>-6.29475572146475315093994140625</LongitudeDegrees>
            </Position>
            <AltitudeMeters>333</AltitudeMeters>
            <DistanceMeters>NAN</DistanceMeters>
          </Trackpoint>
          <Trackpoint>
            <Time>2019-10-09T09:17:16.000Z</Time>
            <Position>
              <LatitudeDegrees>39.08458222635090351104736328125</LatitudeDegrees>
              <LongitudeDegrees>-6.2947883270680904388427734375</LongitudeDegrees>
            </Position>
            <AltitudeMeters>333.399993896484375</AltitudeMeters>
            <DistanceMeters>NAN</DistanceMeters>
          </Trackpoint>
          <Trackpoint>
            <Time>2019-10-09T09:17:20.000Z</Time>
            <Position>
              <LatitudeDegrees>39.08455272205173969268798828125</LatitudeDegrees>
              <LongitudeDegrees>-6.29483467899262905120849609375</LongitudeDegrees>
            </Position>
            <AltitudeMeters>333.600006103515625</AltitudeMeters>
            <DistanceMeters>NAN</DistanceMeters>
          </Trackpoint>
          <Trackpoint>
            <Time>2019-10-09T09:17:23.000Z</Time>
            <Position>
              <LatitudeDegrees>39.0845561586320400238037109375</LatitudeDegrees>
              <LongitudeDegrees>-6.29483099095523357391357421875</LongitudeDegrees>
            </Position>
            <AltitudeMeters>333.399993896484375</AltitudeMeters>
            <DistanceMeters>NAN</DistanceMeters>
          </Trackpoint>
          <Trackpoint>
            <Time>2019-10-09T09:17:27.000Z</Time>
            <Position>
              <LatitudeDegrees>39.08456034958362579345703125</LatitudeDegrees>
              <LongitudeDegrees>-6.2948278896510601043701171875</LongitudeDegrees>
            </Position>
            <AltitudeMeters>333.79998779296875</AltitudeMeters>
            <DistanceMeters>NAN</DistanceMeters>
          </Trackpoint>
          <Trackpoint>
            <Time>2019-10-09T09:17:29.000Z</Time>
            <Position>
              <LatitudeDegrees>39.08455557189881801605224609375</LatitudeDegrees>
              <LongitudeDegrees>-6.29483652301132678985595703125</LongitudeDegrees>
            </Position>
            <AltitudeMeters>333.79998779296875</AltitudeMeters>
            <DistanceMeters>NAN</DistanceMeters>
          </Trackpoint>
          <Trackpoint>
            <Time>2019-10-09T09:17:31.000Z</Time>
            <Position>
              <LatitudeDegrees>39.08455624245107173919677734375</LatitudeDegrees>
              <LongitudeDegrees>-6.294839121401309967041015625</LongitudeDegrees>
            </Position>
            <AltitudeMeters>333.79998779296875</AltitudeMeters>
            <DistanceMeters>NAN</DistanceMeters>
          </Trackpoint>
          <Trackpoint>
            <Time>2019-10-09T09:17:32.000Z</Time>
            <Position>
              <LatitudeDegrees>39.084557332098484039306640625</LatitudeDegrees>
              <LongitudeDegrees>-6.2948319129645824432373046875</LongitudeDegrees>
            </Position>
            <AltitudeMeters>333.600006103515625</AltitudeMeters>
            <DistanceMeters>NAN</DistanceMeters>
          </Trackpoint>
          <Trackpoint>
            <Time>2019-10-09T09:17:34.000Z</Time>
            <Position>
              <LatitudeDegrees>39.084557332098484039306640625</LatitudeDegrees>
              <LongitudeDegrees>-6.2948319129645824432373046875</LongitudeDegrees>
            </Position>
            <AltitudeMeters>333.600006103515625</AltitudeMeters>
            <DistanceMeters>NAN</DistanceMeters>
          </Trackpoint>
          <Trackpoint>
            <Time>2019-10-09T09:17:37.000Z</Time>
            <Position>
              <LatitudeDegrees>39.08455724827945232391357421875</LatitudeDegrees>
              <LongitudeDegrees>-6.29483115859329700469970703125</LongitudeDegrees>
            </Position>
            <AltitudeMeters>333.79998779296875</AltitudeMeters>
            <DistanceMeters>NAN</DistanceMeters>
          </Trackpoint>
          <Trackpoint>
            <Time>2019-10-09T09:17:39.000Z</Time>
            <Position>
              <LatitudeDegrees>39.08455724827945232391357421875</LatitudeDegrees>
              <LongitudeDegrees>-6.29483115859329700469970703125</LongitudeDegrees>
            </Position>
            <AltitudeMeters>333.600006103515625</AltitudeMeters>
            <DistanceMeters>NAN</DistanceMeters>
          </Trackpoint>
          <Trackpoint>
            <Time>2019-10-09T09:17:45.000Z</Time>
            <Position>
              <LatitudeDegrees>39.08455724827945232391357421875</LatitudeDegrees>
              <LongitudeDegrees>-6.29483115859329700469970703125</LongitudeDegrees>
            </Position>
            <AltitudeMeters>333.600006103515625</AltitudeMeters>
            <DistanceMeters>NAN</DistanceMeters>
          </Trackpoint>
          <Trackpoint>
            <Time>2019-10-09T09:17:50.000Z</Time>
            <Position>
              <LatitudeDegrees>39.08455724827945232391357421875</LatitudeDegrees>
              <LongitudeDegrees>-6.29483115859329700469970703125</LongitudeDegrees>
            </Position>
            <AltitudeMeters>333.600006103515625</AltitudeMeters>
            <DistanceMeters>NAN</DistanceMeters>
          </Trackpoint>
          <Trackpoint>
            <Time>2019-10-09T09:17:58.000Z</Time>
            <Position>
              <LatitudeDegrees>39.08455724827945232391357421875</LatitudeDegrees>
              <LongitudeDegrees>-6.29483115859329700469970703125</LongitudeDegrees>
            </Position>
            <AltitudeMeters>333.600006103515625</AltitudeMeters>
            <DistanceMeters>NAN</DistanceMeters>
          </Trackpoint>
          <Trackpoint>
            <Time>2019-10-09T09:18:00.000Z</Time>
            <Position>
              <LatitudeDegrees>39.08455724827945232391357421875</LatitudeDegrees>
              <LongitudeDegrees>-6.29483115859329700469970703125</LongitudeDegrees>
            </Position>
            <AltitudeMeters>333.600006103515625</AltitudeMeters>
            <DistanceMeters>NAN</DistanceMeters>
          </Trackpoint>
          <Trackpoint>
            <Time>2019-10-09T09:18:09.000Z</Time>
            <Position>
              <LatitudeDegrees>39.08455724827945232391357421875</LatitudeDegrees>
              <LongitudeDegrees>-6.29483115859329700469970703125</LongitudeDegrees>
            </Position>
            <AltitudeMeters>333.600006103515625</AltitudeMeters>
            <DistanceMeters>NAN</DistanceMeters>
          </Trackpoint>
          <Trackpoint>
            <Time>2019-10-09T09:18:12.000Z</Time>
            <Position>
              <LatitudeDegrees>39.08455724827945232391357421875</LatitudeDegrees>
              <LongitudeDegrees>-6.29483115859329700469970703125</LongitudeDegrees>
            </Position>
            <AltitudeMeters>333.600006103515625</AltitudeMeters>
            <DistanceMeters>NAN</DistanceMeters>
          </Trackpoint>
          <Trackpoint>
            <Time>2019-10-09T09:18:18.000Z</Time>
            <Position>
              <LatitudeDegrees>39.084556996822357177734375</LatitudeDegrees>
              <LongitudeDegrees>-6.29483350552618503570556640625</LongitudeDegrees>
            </Position>
            <AltitudeMeters>333.399993896484375</AltitudeMeters>
            <DistanceMeters>NAN</DistanceMeters>
          </Trackpoint>
          <Trackpoint>
            <Time>2019-10-09T09:18:21.000Z</Time>
            <Position>
              <LatitudeDegrees>39.084556996822357177734375</LatitudeDegrees>
              <LongitudeDegrees>-6.29483350552618503570556640625</LongitudeDegrees>
            </Position>
            <AltitudeMeters>333.399993896484375</AltitudeMeters>
            <DistanceMeters>NAN</DistanceMeters>
          </Trackpoint>
          <Trackpoint>
            <Time>2019-10-09T09:18:23.000Z</Time>
            <Position>
              <LatitudeDegrees>39.084556996822357177734375</LatitudeDegrees>
              <LongitudeDegrees>-6.29483350552618503570556640625</LongitudeDegrees>
            </Position>
            <AltitudeMeters>333.20001220703125</AltitudeMeters>
            <DistanceMeters>NAN</DistanceMeters>
          </Trackpoint>
          <Trackpoint>
            <Time>2019-10-09T09:18:26.000Z</Time>
            <Position>
              <LatitudeDegrees>39.084556996822357177734375</LatitudeDegrees>
              <LongitudeDegrees>-6.29483350552618503570556640625</LongitudeDegrees>
            </Position>
            <AltitudeMeters>333.20001220703125</AltitudeMeters>
            <DistanceMeters>NAN</DistanceMeters>
          </Trackpoint>
          <Trackpoint>
            <Time>2019-10-09T09:18:37.000Z</Time>
            <Position>
              <LatitudeDegrees>39.084556996822357177734375</LatitudeDegrees>
              <LongitudeDegrees>-6.29483350552618503570556640625</LongitudeDegrees>
            </Position>
            <AltitudeMeters>333.20001220703125</AltitudeMeters>
            <DistanceMeters>NAN</DistanceMeters>
          </Trackpoint>
          <Trackpoint>
            <Time>2019-10-09T09:18:39.000Z</Time>
            <Position>
              <LatitudeDegrees>39.084556996822357177734375</LatitudeDegrees>
              <LongitudeDegrees>-6.29483350552618503570556640625</LongitudeDegrees>
            </Position>
            <AltitudeMeters>333.20001220703125</AltitudeMeters>
            <DistanceMeters>NAN</DistanceMeters>
          </Trackpoint>
          <Trackpoint>
            <Time>2019-10-09T09:18:40.000Z</Time>
            <Position>
              <LatitudeDegrees>39.084556996822357177734375</LatitudeDegrees>
              <LongitudeDegrees>-6.29483350552618503570556640625</LongitudeDegrees>
            </Position>
            <AltitudeMeters>333.20001220703125</AltitudeMeters>
            <DistanceMeters>NAN</DistanceMeters>
          </Trackpoint>
          <Trackpoint>
            <Time>2019-10-09T09:18:42.000Z</Time>
            <Position>
              <LatitudeDegrees>39.084556996822357177734375</LatitudeDegrees>
              <LongitudeDegrees>-6.29483350552618503570556640625</LongitudeDegrees>
            </Position>
            <AltitudeMeters>333.20001220703125</AltitudeMeters>
            <DistanceMeters>NAN</DistanceMeters>
          </Trackpoint>
          <Trackpoint>
            <Time>2019-10-09T09:18:45.000Z</Time>
            <Position>
              <LatitudeDegrees>39.084556996822357177734375</LatitudeDegrees>
              <LongitudeDegrees>-6.29483350552618503570556640625</LongitudeDegrees>
            </Position>
            <AltitudeMeters>333.20001220703125</AltitudeMeters>
            <DistanceMeters>NAN</DistanceMeters>
          </Trackpoint>
          <Trackpoint>
            <Time>2019-10-09T09:18:46.000Z</Time>
            <Position>
              <LatitudeDegrees>39.084556996822357177734375</LatitudeDegrees>
              <LongitudeDegrees>-6.29483350552618503570556640625</LongitudeDegrees>
            </Position>
            <AltitudeMeters>333.20001220703125</AltitudeMeters>
            <DistanceMeters>NAN</DistanceMeters>
          </Trackpoint>
          <Trackpoint>
            <Time>2019-10-09T09:18:47.000Z</Time>
            <Position>
              <LatitudeDegrees>39.084556996822357177734375</LatitudeDegrees>
              <LongitudeDegrees>-6.29483350552618503570556640625</LongitudeDegrees>
            </Position>
            <AltitudeMeters>333</AltitudeMeters>
            <DistanceMeters>NAN</DistanceMeters>
          </Trackpoint>
          <Trackpoint>
            <Time>2019-10-09T09:18:48.000Z</Time>
            <Position>
              <LatitudeDegrees>39.084556996822357177734375</LatitudeDegrees>
              <LongitudeDegrees>-6.29483350552618503570556640625</LongitudeDegrees>
            </Position>
            <AltitudeMeters>333.20001220703125</AltitudeMeters>
            <DistanceMeters>NAN</DistanceMeters>
          </Trackpoint>
          <Trackpoint>
            <Time>2019-10-09T09:18:50.000Z</Time>
            <Position>
              <LatitudeDegrees>39.084556996822357177734375</LatitudeDegrees>
              <LongitudeDegrees>-6.29483350552618503570556640625</LongitudeDegrees>
            </Position>
            <AltitudeMeters>333.399993896484375</AltitudeMeters>
            <DistanceMeters>NAN</DistanceMeters>
          </Trackpoint>
          <Trackpoint>
            <Time>2019-10-09T09:18:53.000Z</Time>
            <Position>
              <LatitudeDegrees>39.084556996822357177734375</LatitudeDegrees>
              <LongitudeDegrees>-6.29483350552618503570556640625</LongitudeDegrees>
            </Position>
            <AltitudeMeters>333.399993896484375</AltitudeMeters>
            <DistanceMeters>NAN</DistanceMeters>
          </Trackpoint>
          <Trackpoint>
            <Time>2019-10-09T09:18:55.000Z</Time>
            <Position>
              <LatitudeDegrees>39.08455573953688144683837890625</LatitudeDegrees>
              <LongitudeDegrees>-6.2948332540690898895263671875</LongitudeDegrees>
            </Position>
            <AltitudeMeters>333.399993896484375</AltitudeMeters>
            <DistanceMeters>NAN</DistanceMeters>
          </Trackpoint>
          <Trackpoint>
            <Time>2019-10-09T09:18:59.000Z</Time>
            <Position>
              <LatitudeDegrees>39.08455573953688144683837890625</LatitudeDegrees>
              <LongitudeDegrees>-6.2948332540690898895263671875</LongitudeDegrees>
            </Position>
            <AltitudeMeters>333.20001220703125</AltitudeMeters>
            <DistanceMeters>NAN</DistanceMeters>
          </Trackpoint>
          <Trackpoint>
            <Time>2019-10-09T09:19:07.000Z</Time>
            <Position>
              <LatitudeDegrees>39.08455573953688144683837890625</LatitudeDegrees>
              <LongitudeDegrees>-6.2948332540690898895263671875</LongitudeDegrees>
            </Position>
            <AltitudeMeters>333.20001220703125</AltitudeMeters>
            <DistanceMeters>NAN</DistanceMeters>
          </Trackpoint>
          <Trackpoint>
            <Time>2019-10-09T09:19:13.000Z</Time>
            <Position>
              <LatitudeDegrees>39.08455573953688144683837890625</LatitudeDegrees>
              <LongitudeDegrees>-6.2948332540690898895263671875</LongitudeDegrees>
            </Position>
            <AltitudeMeters>333.20001220703125</AltitudeMeters>
            <DistanceMeters>NAN</DistanceMeters>
          </Trackpoint>
          <Trackpoint>
            <Time>2019-10-09T09:19:16.000Z</Time>
            <Position>
              <LatitudeDegrees>39.08455573953688144683837890625</LatitudeDegrees>
              <LongitudeDegrees>-6.2948332540690898895263671875</LongitudeDegrees>
            </Position>
            <AltitudeMeters>333.399993896484375</AltitudeMeters>
            <DistanceMeters>NAN</DistanceMeters>
          </Trackpoint>
          <Trackpoint>
            <Time>2019-10-09T09:19:17.000Z</Time>
            <Position>
              <LatitudeDegrees>39.08455573953688144683837890625</LatitudeDegrees>
              <LongitudeDegrees>-6.2948332540690898895263671875</LongitudeDegrees>
            </Position>
            <AltitudeMeters>333.600006103515625</AltitudeMeters>
            <DistanceMeters>NAN</DistanceMeters>
          </Trackpoint>
          <Trackpoint>
            <Time>2019-10-09T09:19:25.000Z</Time>
            <Position>
              <LatitudeDegrees>39.08455573953688144683837890625</LatitudeDegrees>
              <LongitudeDegrees>-6.2948332540690898895263671875</LongitudeDegrees>
            </Position>
            <AltitudeMeters>333.399993896484375</AltitudeMeters>
            <DistanceMeters>NAN</DistanceMeters>
          </Trackpoint>
          <Trackpoint>
            <Time>2019-10-09T09:19:31.000Z</Time>
            <Position>
              <LatitudeDegrees>39.08455573953688144683837890625</LatitudeDegrees>
              <LongitudeDegrees>-6.2948332540690898895263671875</LongitudeDegrees>
            </Position>
            <AltitudeMeters>333</AltitudeMeters>
            <DistanceMeters>NAN</DistanceMeters>
          </Trackpoint>
          <Trackpoint>
            <Time>2019-10-09T09:19:34.000Z</Time>
            <Position>
              <LatitudeDegrees>39.08455573953688144683837890625</LatitudeDegrees>
              <LongitudeDegrees>-6.2948332540690898895263671875</LongitudeDegrees>
            </Position>
            <AltitudeMeters>333.399993896484375</AltitudeMeters>
            <DistanceMeters>NAN</DistanceMeters>
          </Trackpoint>
          <Trackpoint>
            <Time>2019-10-09T09:19:35.000Z</Time>
            <Position>
              <LatitudeDegrees>39.08455573953688144683837890625</LatitudeDegrees>
              <LongitudeDegrees>-6.2948332540690898895263671875</LongitudeDegrees>
            </Position>
            <AltitudeMeters>333.20001220703125</AltitudeMeters>
            <DistanceMeters>NAN</DistanceMeters>
          </Trackpoint>
          <Trackpoint>
            <Time>2019-10-09T09:19:40.000Z</Time>
            <Position>
              <LatitudeDegrees>39.084554649889469146728515625</LatitudeDegrees>
              <LongitudeDegrees>-6.29483275115489959716796875</LongitudeDegrees>
            </Position>
            <AltitudeMeters>333.20001220703125</AltitudeMeters>
            <DistanceMeters>NAN</DistanceMeters>
          </Trackpoint>
          <Trackpoint>
            <Time>2019-10-09T09:19:41.000Z</Time>
            <Position>
              <LatitudeDegrees>39.084554649889469146728515625</LatitudeDegrees>
              <LongitudeDegrees>-6.29483275115489959716796875</LongitudeDegrees>
            </Position>
            <AltitudeMeters>333.20001220703125</AltitudeMeters>
            <DistanceMeters>NAN</DistanceMeters>
          </Trackpoint>
          <Trackpoint>
            <Time>2019-10-09T09:19:42.000Z</Time>
            <Position>
              <LatitudeDegrees>39.084554649889469146728515625</LatitudeDegrees>
              <LongitudeDegrees>-6.29483275115489959716796875</LongitudeDegrees>
            </Position>
            <AltitudeMeters>333.20001220703125</AltitudeMeters>
            <DistanceMeters>NAN</DistanceMeters>
          </Trackpoint>
          <Trackpoint>
            <Time>2019-10-09T09:19:48.000Z</Time>
            <Position>
              <LatitudeDegrees>39.084554649889469146728515625</LatitudeDegrees>
              <LongitudeDegrees>-6.29483275115489959716796875</LongitudeDegrees>
            </Position>
            <AltitudeMeters>333</AltitudeMeters>
            <DistanceMeters>NAN</DistanceMeters>
          </Trackpoint>
          <Trackpoint>
            <Time>2019-10-09T09:19:52.000Z</Time>
            <Position>
              <LatitudeDegrees>39.084554649889469146728515625</LatitudeDegrees>
              <LongitudeDegrees>-6.29483275115489959716796875</LongitudeDegrees>
            </Position>
            <AltitudeMeters>333.20001220703125</AltitudeMeters>
            <DistanceMeters>NAN</DistanceMeters>
          </Trackpoint>
          <Trackpoint>
            <Time>2019-10-09T09:19:53.000Z</Time>
            <Position>
              <LatitudeDegrees>39.084554649889469146728515625</LatitudeDegrees>
              <LongitudeDegrees>-6.29483275115489959716796875</LongitudeDegrees>
            </Position>
            <AltitudeMeters>333.20001220703125</AltitudeMeters>
            <DistanceMeters>NAN</DistanceMeters>
          </Trackpoint>
          <Trackpoint>
            <Time>2019-10-09T09:19:56.000Z</Time>
            <Position>
              <LatitudeDegrees>39.084554649889469146728515625</LatitudeDegrees>
              <LongitudeDegrees>-6.29483275115489959716796875</LongitudeDegrees>
            </Position>
            <AltitudeMeters>333.399993896484375</AltitudeMeters>
            <DistanceMeters>NAN</DistanceMeters>
          </Trackpoint>
          <Trackpoint>
            <Time>2019-10-09T09:19:58.000Z</Time>
            <Position>
              <LatitudeDegrees>39.084554649889469146728515625</LatitudeDegrees>
              <LongitudeDegrees>-6.29483275115489959716796875</LongitudeDegrees>
            </Position>
            <AltitudeMeters>333.20001220703125</AltitudeMeters>
            <DistanceMeters>NAN</DistanceMeters>
          </Trackpoint>
          <Trackpoint>
            <Time>2019-10-09T09:20:01.000Z</Time>
            <Position>
              <LatitudeDegrees>39.084554649889469146728515625</LatitudeDegrees>
              <LongitudeDegrees>-6.29483275115489959716796875</LongitudeDegrees>
            </Position>
            <AltitudeMeters>333.399993896484375</AltitudeMeters>
            <DistanceMeters>NAN</DistanceMeters>
          </Trackpoint>
          <Trackpoint>
            <Time>2019-10-09T09:20:09.000Z</Time>
            <Position>
              <LatitudeDegrees>39.084554649889469146728515625</LatitudeDegrees>
              <LongitudeDegrees>-6.29483275115489959716796875</LongitudeDegrees>
            </Position>
            <AltitudeMeters>333.20001220703125</AltitudeMeters>
            <DistanceMeters>NAN</DistanceMeters>
          </Trackpoint>
          <Trackpoint>
            <Time>2019-10-09T09:20:12.000Z</Time>
            <Position>
              <LatitudeDegrees>39.084554649889469146728515625</LatitudeDegrees>
              <LongitudeDegrees>-6.29483275115489959716796875</LongitudeDegrees>
            </Position>
            <AltitudeMeters>333.20001220703125</AltitudeMeters>
            <DistanceMeters>NAN</DistanceMeters>
          </Trackpoint>
          <Trackpoint>
            <Time>2019-10-09T09:20:15.000Z</Time>
            <Position>
              <LatitudeDegrees>39.08455238677561283111572265625</LatitudeDegrees>
              <LongitudeDegrees>-6.29483568482100963592529296875</LongitudeDegrees>
            </Position>
            <AltitudeMeters>333.399993896484375</AltitudeMeters>
            <DistanceMeters>NAN</DistanceMeters>
          </Trackpoint>
          <Trackpoint>
            <Time>2019-10-09T09:20:17.000Z</Time>
            <Position>
              <LatitudeDegrees>39.08455238677561283111572265625</LatitudeDegrees>
              <LongitudeDegrees>-6.29483568482100963592529296875</LongitudeDegrees>
            </Position>
            <AltitudeMeters>333.399993896484375</AltitudeMeters>
            <DistanceMeters>NAN</DistanceMeters>
          </Trackpoint>
          <Trackpoint>
            <Time>2019-10-09T09:20:19.000Z</Time>
            <Position>
              <LatitudeDegrees>39.08455238677561283111572265625</LatitudeDegrees>
              <LongitudeDegrees>-6.29483568482100963592529296875</LongitudeDegrees>
            </Position>
            <AltitudeMeters>333.20001220703125</AltitudeMeters>
            <DistanceMeters>NAN</DistanceMeters>
          </Trackpoint>
          <Trackpoint>
            <Time>2019-10-09T09:20:21.000Z</Time>
            <Position>
              <LatitudeDegrees>39.08455238677561283111572265625</LatitudeDegrees>
              <LongitudeDegrees>-6.29483568482100963592529296875</LongitudeDegrees>
            </Position>
            <AltitudeMeters>333</AltitudeMeters>
            <DistanceMeters>NAN</DistanceMeters>
          </Trackpoint>
          <Trackpoint>
            <Time>2019-10-09T09:20:22.000Z</Time>
            <Position>
              <LatitudeDegrees>39.08455238677561283111572265625</LatitudeDegrees>
              <LongitudeDegrees>-6.29483568482100963592529296875</LongitudeDegrees>
            </Position>
            <AltitudeMeters>332.79998779296875</AltitudeMeters>
            <DistanceMeters>NAN</DistanceMeters>
          </Trackpoint>
          <Trackpoint>
            <Time>2019-10-09T09:20:23.000Z</Time>
            <Position>
              <LatitudeDegrees>39.08455238677561283111572265625</LatitudeDegrees>
              <LongitudeDegrees>-6.29483568482100963592529296875</LongitudeDegrees>
            </Position>
            <AltitudeMeters>333</AltitudeMeters>
            <DistanceMeters>NAN</DistanceMeters>
          </Trackpoint>
          <Trackpoint>
            <Time>2019-10-09T09:20:24.000Z</Time>
            <Position>
              <LatitudeDegrees>39.08455238677561283111572265625</LatitudeDegrees>
              <LongitudeDegrees>-6.29483568482100963592529296875</LongitudeDegrees>
            </Position>
            <AltitudeMeters>333</AltitudeMeters>
            <DistanceMeters>NAN</DistanceMeters>
          </Trackpoint>
          <Trackpoint>
            <Time>2019-10-09T09:20:27.000Z</Time>
            <Position>
              <LatitudeDegrees>39.08455238677561283111572265625</LatitudeDegrees>
              <LongitudeDegrees>-6.29483568482100963592529296875</LongitudeDegrees>
            </Position>
            <AltitudeMeters>332.79998779296875</AltitudeMeters>
            <DistanceMeters>NAN</DistanceMeters>
          </Trackpoint>
          <Trackpoint>
            <Time>2019-10-09T09:20:29.000Z</Time>
            <Position>
              <LatitudeDegrees>39.08455238677561283111572265625</LatitudeDegrees>
              <LongitudeDegrees>-6.29483568482100963592529296875</LongitudeDegrees>
            </Position>
            <AltitudeMeters>332.79998779296875</AltitudeMeters>
            <DistanceMeters>NAN</DistanceMeters>
          </Trackpoint>
          <Trackpoint>
            <Time>2019-10-09T09:20:31.000Z</Time>
            <Position>
              <LatitudeDegrees>39.08455238677561283111572265625</LatitudeDegrees>
              <LongitudeDegrees>-6.29483568482100963592529296875</LongitudeDegrees>
            </Position>
            <AltitudeMeters>332.79998779296875</AltitudeMeters>
            <DistanceMeters>NAN</DistanceMeters>
          </Trackpoint>
          <Trackpoint>
            <Time>2019-10-09T09:20:33.000Z</Time>
            <Position>
              <LatitudeDegrees>39.08455238677561283111572265625</LatitudeDegrees>
              <LongitudeDegrees>-6.29483568482100963592529296875</LongitudeDegrees>
            </Position>
            <AltitudeMeters>333</AltitudeMeters>
            <DistanceMeters>NAN</DistanceMeters>
          </Trackpoint>
          <Trackpoint>
            <Time>2019-10-09T09:20:39.000Z</Time>
            <Position>
              <LatitudeDegrees>39.08455238677561283111572265625</LatitudeDegrees>
              <LongitudeDegrees>-6.29483568482100963592529296875</LongitudeDegrees>
            </Position>
            <AltitudeMeters>333</AltitudeMeters>
            <DistanceMeters>NAN</DistanceMeters>
          </Trackpoint>
          <Trackpoint>
            <Time>2019-10-09T09:20:40.000Z</Time>
            <Position>
              <LatitudeDegrees>39.08455238677561283111572265625</LatitudeDegrees>
              <LongitudeDegrees>-6.29483568482100963592529296875</LongitudeDegrees>
            </Position>
            <AltitudeMeters>332.79998779296875</AltitudeMeters>
            <DistanceMeters>NAN</DistanceMeters>
          </Trackpoint>
          <Trackpoint>
            <Time>2019-10-09T09:20:44.000Z</Time>
            <Position>
              <LatitudeDegrees>39.08455238677561283111572265625</LatitudeDegrees>
              <LongitudeDegrees>-6.29483568482100963592529296875</LongitudeDegrees>
            </Position>
            <AltitudeMeters>332.79998779296875</AltitudeMeters>
            <DistanceMeters>NAN</DistanceMeters>
          </Trackpoint>
          <Trackpoint>
            <Time>2019-10-09T09:20:46.000Z</Time>
            <Position>
              <LatitudeDegrees>39.08455238677561283111572265625</LatitudeDegrees>
              <LongitudeDegrees>-6.29483568482100963592529296875</LongitudeDegrees>
            </Position>
            <AltitudeMeters>332.79998779296875</AltitudeMeters>
            <DistanceMeters>NAN</DistanceMeters>
          </Trackpoint>
          <Trackpoint>
            <Time>2019-10-09T09:20:48.000Z</Time>
            <Position>
              <LatitudeDegrees>39.08455238677561283111572265625</LatitudeDegrees>
              <LongitudeDegrees>-6.29483568482100963592529296875</LongitudeDegrees>
            </Position>
            <AltitudeMeters>332.79998779296875</AltitudeMeters>
            <DistanceMeters>NAN</DistanceMeters>
          </Trackpoint>
          <Trackpoint>
            <Time>2019-10-09T09:20:51.000Z</Time>
            <Position>
              <LatitudeDegrees>39.08455238677561283111572265625</LatitudeDegrees>
              <LongitudeDegrees>-6.29483568482100963592529296875</LongitudeDegrees>
            </Position>
            <AltitudeMeters>333</AltitudeMeters>
            <DistanceMeters>NAN</DistanceMeters>
          </Trackpoint>
          <Trackpoint>
            <Time>2019-10-09T09:20:52.000Z</Time>
            <Position>
              <LatitudeDegrees>39.08455238677561283111572265625</LatitudeDegrees>
              <LongitudeDegrees>-6.29483568482100963592529296875</LongitudeDegrees>
            </Position>
            <AltitudeMeters>333</AltitudeMeters>
            <DistanceMeters>NAN</DistanceMeters>
          </Trackpoint>
          <Trackpoint>
            <Time>2019-10-09T09:20:53.000Z</Time>
            <Position>
              <LatitudeDegrees>39.08455238677561283111572265625</LatitudeDegrees>
              <LongitudeDegrees>-6.29483568482100963592529296875</LongitudeDegrees>
            </Position>
            <AltitudeMeters>333</AltitudeMeters>
            <DistanceMeters>NAN</DistanceMeters>
          </Trackpoint>
          <Trackpoint>
            <Time>2019-10-09T09:20:55.000Z</Time>
            <Position>
              <LatitudeDegrees>39.0845531411468982696533203125</LatitudeDegrees>
              <LongitudeDegrees>-6.2948401272296905517578125</LongitudeDegrees>
            </Position>
            <AltitudeMeters>333</AltitudeMeters>
            <DistanceMeters>NAN</DistanceMeters>
          </Trackpoint>
          <Trackpoint>
            <Time>2019-10-09T09:20:58.000Z</Time>
            <Position>
              <LatitudeDegrees>39.0845531411468982696533203125</LatitudeDegrees>
              <LongitudeDegrees>-6.2948401272296905517578125</LongitudeDegrees>
            </Position>
            <AltitudeMeters>332.79998779296875</AltitudeMeters>
            <DistanceMeters>NAN</DistanceMeters>
          </Trackpoint>
          <Trackpoint>
            <Time>2019-10-09T09:21:00.000Z</Time>
            <Position>
              <LatitudeDegrees>39.0845531411468982696533203125</LatitudeDegrees>
              <LongitudeDegrees>-6.2948401272296905517578125</LongitudeDegrees>
            </Position>
            <AltitudeMeters>332.79998779296875</AltitudeMeters>
            <DistanceMeters>NAN</DistanceMeters>
          </Trackpoint>
          <Trackpoint>
            <Time>2019-10-09T09:21:02.000Z</Time>
            <Position>
              <LatitudeDegrees>39.08455272205173969268798828125</LatitudeDegrees>
              <LongitudeDegrees>-6.2948401272296905517578125</LongitudeDegrees>
            </Position>
            <AltitudeMeters>332.79998779296875</AltitudeMeters>
            <DistanceMeters>NAN</DistanceMeters>
          </Trackpoint>
          <Trackpoint>
            <Time>2019-10-09T09:21:05.000Z</Time>
            <Position>
              <LatitudeDegrees>39.08454869873821735382080078125</LatitudeDegrees>
              <LongitudeDegrees>-6.29484088160097599029541015625</LongitudeDegrees>
            </Position>
            <AltitudeMeters>333</AltitudeMeters>
            <DistanceMeters>NAN</DistanceMeters>
          </Trackpoint>
          <Trackpoint>
            <Time>2019-10-09T09:21:07.000Z</Time>
            <Position>
              <LatitudeDegrees>39.08454869873821735382080078125</LatitudeDegrees>
              <LongitudeDegrees>-6.29484088160097599029541015625</LongitudeDegrees>
            </Position>
            <AltitudeMeters>333</AltitudeMeters>
            <DistanceMeters>NAN</DistanceMeters>
          </Trackpoint>
          <Trackpoint>
            <Time>2019-10-09T09:21:09.000Z</Time>
            <Position>
              <LatitudeDegrees>39.08454869873821735382080078125</LatitudeDegrees>
              <LongitudeDegrees>-6.29484088160097599029541015625</LongitudeDegrees>
            </Position>
            <AltitudeMeters>333</AltitudeMeters>
            <DistanceMeters>NAN</DistanceMeters>
          </Trackpoint>
          <Trackpoint>
            <Time>2019-10-09T09:21:11.000Z</Time>
            <Position>
              <LatitudeDegrees>39.08454827964305877685546875</LatitudeDegrees>
              <LongitudeDegrees>-6.294841468334197998046875</LongitudeDegrees>
            </Position>
            <AltitudeMeters>333.20001220703125</AltitudeMeters>
            <DistanceMeters>NAN</DistanceMeters>
          </Trackpoint>
          <Trackpoint>
            <Time>2019-10-09T09:21:12.000Z</Time>
            <Position>
              <LatitudeDegrees>39.08453218638896942138671875</LatitudeDegrees>
              <LongitudeDegrees>-6.294858567416667938232421875</LongitudeDegrees>
            </Position>
            <AltitudeMeters>333</AltitudeMeters>
            <DistanceMeters>NAN</DistanceMeters>
          </Trackpoint>
          <Trackpoint>
            <Time>2019-10-09T09:21:17.000Z</Time>
            <Position>
              <LatitudeDegrees>39.08445381559431552886962890625</LatitudeDegrees>
              <LongitudeDegrees>-6.29494884051382541656494140625</LongitudeDegrees>
            </Position>
            <AltitudeMeters>332.600006103515625</AltitudeMeters>
            <DistanceMeters>NAN</DistanceMeters>
          </Trackpoint>
          <Trackpoint>
            <Time>2019-10-09T09:21:18.000Z</Time>
            <Position>
              <LatitudeDegrees>39.08443252556025981903076171875</LatitudeDegrees>
              <LongitudeDegrees>-6.29497482441365718841552734375</LongitudeDegrees>
            </Position>
            <AltitudeMeters>332.399993896484375</AltitudeMeters>
            <DistanceMeters>NAN</DistanceMeters>
          </Trackpoint>
          <Trackpoint>
            <Time>2019-10-09T09:21:22.000Z</Time>
            <Position>
              <LatitudeDegrees>39.08431115560233592987060546875</LatitudeDegrees>
              <LongitudeDegrees>-6.29511572420597076416015625</LongitudeDegrees>
            </Position>
            <AltitudeMeters>331.79998779296875</AltitudeMeters>
            <DistanceMeters>NAN</DistanceMeters>
          </Trackpoint>
          <Trackpoint>
            <Time>2019-10-09T09:21:25.000Z</Time>
            <Position>
              <LatitudeDegrees>39.08420587889850139617919921875</LatitudeDegrees>
              <LongitudeDegrees>-6.2952466495335102081298828125</LongitudeDegrees>
            </Position>
            <AltitudeMeters>331.79998779296875</AltitudeMeters>
            <DistanceMeters>NAN</DistanceMeters>
          </Trackpoint>
          <Trackpoint>
            <Time>2019-10-09T09:21:27.000Z</Time>
            <Position>
              <LatitudeDegrees>39.08412993885576725006103515625</LatitudeDegrees>
              <LongitudeDegrees>-6.29534295760095119476318359375</LongitudeDegrees>
            </Position>
            <AltitudeMeters>331.600006103515625</AltitudeMeters>
            <DistanceMeters>NAN</DistanceMeters>
          </Trackpoint>
          <Trackpoint>
            <Time>2019-10-09T09:21:29.000Z</Time>
            <Position>
              <LatitudeDegrees>39.08405265770852565765380859375</LatitudeDegrees>
              <LongitudeDegrees>-6.29544035531580448150634765625</LongitudeDegrees>
            </Position>
            <AltitudeMeters>331.399993896484375</AltitudeMeters>
            <DistanceMeters>NAN</DistanceMeters>
          </Trackpoint>
          <Trackpoint>
            <Time>2019-10-09T09:21:30.000Z</Time>
            <Position>
              <LatitudeDegrees>39.084014184772968292236328125</LatitudeDegrees>
              <LongitudeDegrees>-6.29548829980194568634033203125</LongitudeDegrees>
            </Position>
            <AltitudeMeters>331.20001220703125</AltitudeMeters>
            <DistanceMeters>NAN</DistanceMeters>
          </Trackpoint>
          <Trackpoint>
            <Time>2019-10-09T09:21:32.000Z</Time>
            <Position>
              <LatitudeDegrees>39.08393581397831439971923828125</LatitudeDegrees>
              <LongitudeDegrees>-6.2955856136977672576904296875</LongitudeDegrees>
            </Position>
            <AltitudeMeters>331.20001220703125</AltitudeMeters>
            <DistanceMeters>NAN</DistanceMeters>
          </Trackpoint>
          <Trackpoint>
            <Time>2019-10-09T09:21:37.000Z</Time>
            <Position>
              <LatitudeDegrees>39.0837320499122142791748046875</LatitudeDegrees>
              <LongitudeDegrees>-6.29584235139191150665283203125</LongitudeDegrees>
            </Position>
            <AltitudeMeters>331</AltitudeMeters>
            <DistanceMeters>NAN</DistanceMeters>
          </Trackpoint>
          <Trackpoint>
            <Time>2019-10-09T09:21:38.000Z</Time>
            <Position>
              <LatitudeDegrees>39.08369055949151515960693359375</LatitudeDegrees>
              <LongitudeDegrees>-6.2958944030106067657470703125</LongitudeDegrees>
            </Position>
            <AltitudeMeters>330.79998779296875</AltitudeMeters>
            <DistanceMeters>NAN</DistanceMeters>
          </Trackpoint>
          <Trackpoint>
            <Time>2019-10-09T09:21:41.000Z</Time>
            <Position>
              <LatitudeDegrees>39.0835647471249103546142578125</LatitudeDegrees>
              <LongitudeDegrees>-6.29605256952345371246337890625</LongitudeDegrees>
            </Position>
            <AltitudeMeters>330.79998779296875</AltitudeMeters>
            <DistanceMeters>NAN</DistanceMeters>
          </Trackpoint>
          <Trackpoint>
            <Time>2019-10-09T09:21:45.000Z</Time>
            <Position>
              <LatitudeDegrees>39.08339585177600383758544921875</LatitudeDegrees>
              <LongitudeDegrees>-6.296268738806247711181640625</LongitudeDegrees>
            </Position>
            <AltitudeMeters>331</AltitudeMeters>
            <DistanceMeters>NAN</DistanceMeters>
          </Trackpoint>
          <Trackpoint>
            <Time>2019-10-09T09:21:48.000Z</Time>
            <Position>
              <LatitudeDegrees>39.08326475881040096282958984375</LatitudeDegrees>
              <LongitudeDegrees>-6.29643176682293415069580078125</LongitudeDegrees>
            </Position>
            <AltitudeMeters>330.79998779296875</AltitudeMeters>
            <DistanceMeters>NAN</DistanceMeters>
          </Trackpoint>
          <Trackpoint>
            <Time>2019-10-09T09:21:54.000Z</Time>
            <Position>
              <LatitudeDegrees>39.083005674183368682861328125</LatitudeDegrees>
              <LongitudeDegrees>-6.2967584095895290374755859375</LongitudeDegrees>
            </Position>
            <AltitudeMeters>330.600006103515625</AltitudeMeters>
            <DistanceMeters>NAN</DistanceMeters>
          </Trackpoint>
          <Trackpoint>
            <Time>2019-10-09T09:21:57.000Z</Time>
            <Position>
              <LatitudeDegrees>39.08287324011325836181640625</LatitudeDegrees>
              <LongitudeDegrees>-6.2969223596155643463134765625</LongitudeDegrees>
            </Position>
            <AltitudeMeters>330.20001220703125</AltitudeMeters>
            <DistanceMeters>NAN</DistanceMeters>
          </Trackpoint>
          <Trackpoint>
            <Time>2019-10-09T09:22:01.000Z</Time>
            <Position>
              <LatitudeDegrees>39.0826970525085926055908203125</LatitudeDegrees>
              <LongitudeDegrees>-6.29714079201221466064453125</LongitudeDegrees>
            </Position>
            <AltitudeMeters>330</AltitudeMeters>
            <DistanceMeters>NAN</DistanceMeters>
          </Trackpoint>
          <Trackpoint>
            <Time>2019-10-09T09:22:08.000Z</Time>
            <Position>
              <LatitudeDegrees>39.0823828987777233123779296875</LatitudeDegrees>
              <LongitudeDegrees>-6.2975318916141986846923828125</LongitudeDegrees>
            </Position>
            <AltitudeMeters>330</AltitudeMeters>
            <DistanceMeters>NAN</DistanceMeters>
          </Trackpoint>
          <Trackpoint>
            <Time>2019-10-09T09:22:13.000Z</Time>
            <Position>
              <LatitudeDegrees>39.08215985633432865142822265625</LatitudeDegrees>
              <LongitudeDegrees>-6.2978120148181915283203125</LongitudeDegrees>
            </Position>
            <AltitudeMeters>329.600006103515625</AltitudeMeters>
            <DistanceMeters>NAN</DistanceMeters>
          </Trackpoint>
          <Trackpoint>
            <Time>2019-10-09T09:22:15.000Z</Time>
            <Position>
              <LatitudeDegrees>39.08206916414201259613037109375</LatitudeDegrees>
              <LongitudeDegrees>-6.2979265116155147552490234375</LongitudeDegrees>
            </Position>
            <AltitudeMeters>329</AltitudeMeters>
            <DistanceMeters>NAN</DistanceMeters>
          </Trackpoint>
          <Trackpoint>
            <Time>2019-10-09T09:22:17.000Z</Time>
            <Position>
              <LatitudeDegrees>39.08197738230228424072265625</LatitudeDegrees>
              <LongitudeDegrees>-6.2980398349463939666748046875</LongitudeDegrees>
            </Position>
            <AltitudeMeters>329.399993896484375</AltitudeMeters>
            <DistanceMeters>NAN</DistanceMeters>
          </Trackpoint>
          <Trackpoint>
            <Time>2019-10-09T09:22:26.000Z</Time>
            <Position>
              <LatitudeDegrees>39.08157262019813060760498046875</LatitudeDegrees>
              <LongitudeDegrees>-6.298549957573413848876953125</LongitudeDegrees>
            </Position>
            <AltitudeMeters>328.79998779296875</AltitudeMeters>
            <DistanceMeters>NAN</DistanceMeters>
          </Trackpoint>
          <Trackpoint>
            <Time>2019-10-09T09:22:28.000Z</Time>
            <Position>
              <LatitudeDegrees>39.081484861671924591064453125</LatitudeDegrees>
              <LongitudeDegrees>-6.29866085015237331390380859375</LongitudeDegrees>
            </Position>
            <AltitudeMeters>328.600006103515625</AltitudeMeters>
            <DistanceMeters>NAN</DistanceMeters>
          </Trackpoint>
          <Trackpoint>
            <Time>2019-10-09T09:22:37.000Z</Time>
            <Position>
              <LatitudeDegrees>39.08107339404523372650146484375</LatitudeDegrees>
              <LongitudeDegrees>-6.29917323589324951171875</LongitudeDegrees>
            </Position>
            <AltitudeMeters>328</AltitudeMeters>
            <DistanceMeters>NAN</DistanceMeters>
          </Trackpoint>
          <Trackpoint>
            <Time>2019-10-09T09:22:46.000Z</Time>
            <Position>
              <LatitudeDegrees>39.080668129026889801025390625</LatitudeDegrees>
              <LongitudeDegrees>-6.29967858083546161651611328125</LongitudeDegrees>
            </Position>
            <AltitudeMeters>327.600006103515625</AltitudeMeters>
            <DistanceMeters>NAN</DistanceMeters>
          </Trackpoint>
          <Trackpoint>
            <Time>2019-10-09T09:22:49.000Z</Time>
            <Position>
              <LatitudeDegrees>39.08053158782422542572021484375</LatitudeDegrees>
              <LongitudeDegrees>-6.29985007457435131072998046875</LongitudeDegrees>
            </Position>
            <AltitudeMeters>327.600006103515625</AltitudeMeters>
            <DistanceMeters>NAN</DistanceMeters>
          </Trackpoint>
          <Trackpoint>
            <Time>2019-10-09T09:22:53.000Z</Time>
            <Position>
              <LatitudeDegrees>39.08035372383892536163330078125</LatitudeDegrees>
              <LongitudeDegrees>-6.300073452293872833251953125</LongitudeDegrees>
            </Position>
            <AltitudeMeters>326.79998779296875</AltitudeMeters>
            <DistanceMeters>NAN</DistanceMeters>
          </Trackpoint>
          <Trackpoint>
            <Time>2019-10-09T09:22:57.000Z</Time>
            <Position>
              <LatitudeDegrees>39.0801730938255786895751953125</LatitudeDegrees>
              <LongitudeDegrees>-6.30029213614761829376220703125</LongitudeDegrees>
            </Position>
            <AltitudeMeters>327.20001220703125</AltitudeMeters>
            <DistanceMeters>NAN</DistanceMeters>
          </Trackpoint>
          <Trackpoint>
            <Time>2019-10-09T09:23:06.000Z</Time>
            <Position>
              <LatitudeDegrees>39.0797804854810237884521484375</LatitudeDegrees>
              <LongitudeDegrees>-6.3007924519479274749755859375</LongitudeDegrees>
            </Position>
            <AltitudeMeters>327.600006103515625</AltitudeMeters>
            <DistanceMeters>NAN</DistanceMeters>
          </Trackpoint>
          <Trackpoint>
            <Time>2019-10-09T09:23:07.000Z</Time>
            <Position>
              <LatitudeDegrees>39.07973547466099262237548828125</LatitudeDegrees>
              <LongitudeDegrees>-6.30084735341370105743408203125</LongitudeDegrees>
            </Position>
            <AltitudeMeters>327.600006103515625</AltitudeMeters>
            <DistanceMeters>NAN</DistanceMeters>
          </Trackpoint>
          <Trackpoint>
            <Time>2019-10-09T09:23:15.000Z</Time>
            <Position>
              <LatitudeDegrees>39.07938645221292972564697265625</LatitudeDegrees>
              <LongitudeDegrees>-6.30128170363605022430419921875</LongitudeDegrees>
            </Position>
            <AltitudeMeters>328</AltitudeMeters>
            <DistanceMeters>NAN</DistanceMeters>
          </Trackpoint>
          <Trackpoint>
            <Time>2019-10-09T09:23:19.000Z</Time>
            <Position>
              <LatitudeDegrees>39.07921026460826396942138671875</LatitudeDegrees>
              <LongitudeDegrees>-6.301502399146556854248046875</LongitudeDegrees>
            </Position>
            <AltitudeMeters>328</AltitudeMeters>
            <DistanceMeters>NAN</DistanceMeters>
          </Trackpoint>
          <Trackpoint>
            <Time>2019-10-09T09:23:28.000Z</Time>
            <Position>
              <LatitudeDegrees>39.07881665043532848358154296875</LatitudeDegrees>
              <LongitudeDegrees>-6.30199181847274303436279296875</LongitudeDegrees>
            </Position>
            <AltitudeMeters>327.20001220703125</AltitudeMeters>
            <DistanceMeters>NAN</DistanceMeters>
          </Trackpoint>
          <Trackpoint>
            <Time>2019-10-09T09:23:29.000Z</Time>
            <Position>
              <LatitudeDegrees>39.07877172343432903289794921875</LatitudeDegrees>
              <LongitudeDegrees>-6.3020490668714046478271484375</LongitudeDegrees>
            </Position>
            <AltitudeMeters>327.399993896484375</AltitudeMeters>
            <DistanceMeters>NAN</DistanceMeters>
          </Trackpoint>
          <Trackpoint>
            <Time>2019-10-09T09:23:38.000Z</Time>
            <Position>
              <LatitudeDegrees>39.0783753432333469390869140625</LatitudeDegrees>
              <LongitudeDegrees>-6.302546449005603790283203125</LongitudeDegrees>
            </Position>
            <AltitudeMeters>327.20001220703125</AltitudeMeters>
            <DistanceMeters>NAN</DistanceMeters>
          </Trackpoint>
          <Trackpoint>
            <Time>2019-10-09T09:23:39.000Z</Time>
            <Position>
              <LatitudeDegrees>39.07832999713718891143798828125</LatitudeDegrees>
              <LongitudeDegrees>-6.3026012666523456573486328125</LongitudeDegrees>
            </Position>
            <AltitudeMeters>327.20001220703125</AltitudeMeters>
            <DistanceMeters>NAN</DistanceMeters>
          </Trackpoint>
          <Trackpoint>
            <Time>2019-10-09T09:23:48.000Z</Time>
            <Position>
              <LatitudeDegrees>39.07793336547911167144775390625</LatitudeDegrees>
              <LongitudeDegrees>-6.30310258828103542327880859375</LongitudeDegrees>
            </Position>
            <AltitudeMeters>327.20001220703125</AltitudeMeters>
            <DistanceMeters>NAN</DistanceMeters>
          </Trackpoint>
          <Trackpoint>
            <Time>2019-10-09T09:23:50.000Z</Time>
            <Position>
              <LatitudeDegrees>39.07784233801066875457763671875</LatitudeDegrees>
              <LongitudeDegrees>-6.3032131455838680267333984375</LongitudeDegrees>
            </Position>
            <AltitudeMeters>326.79998779296875</AltitudeMeters>
            <DistanceMeters>NAN</DistanceMeters>
          </Trackpoint>
          <Trackpoint>
            <Time>2019-10-09T09:23:59.000Z</Time>
            <Position>
              <LatitudeDegrees>39.07742969691753387451171875</LatitudeDegrees>
              <LongitudeDegrees>-6.30372804589569568634033203125</LongitudeDegrees>
            </Position>
            <AltitudeMeters>327</AltitudeMeters>
            <DistanceMeters>NAN</DistanceMeters>
          </Trackpoint>
          <Trackpoint>
            <Time>2019-10-09T09:24:08.000Z</Time>
            <Position>
              <LatitudeDegrees>39.0770240128040313720703125</LatitudeDegrees>
              <LongitudeDegrees>-6.30424152128398418426513671875</LongitudeDegrees>
            </Position>
            <AltitudeMeters>326.399993896484375</AltitudeMeters>
            <DistanceMeters>NAN</DistanceMeters>
          </Trackpoint>
          <Trackpoint>
            <Time>2019-10-09T09:24:11.000Z</Time>
            <Position>
              <LatitudeDegrees>39.07688948325812816619873046875</LatitudeDegrees>
              <LongitudeDegrees>-6.30440890789031982421875</LongitudeDegrees>
            </Position>
            <AltitudeMeters>326.399993896484375</AltitudeMeters>
            <DistanceMeters>NAN</DistanceMeters>
          </Trackpoint>
          <Trackpoint>
            <Time>2019-10-09T09:24:20.000Z</Time>
            <Position>
              <LatitudeDegrees>39.07647709362208843231201171875</LatitudeDegrees>
              <LongitudeDegrees>-6.30491919815540313720703125</LongitudeDegrees>
            </Position>
            <AltitudeMeters>325.600006103515625</AltitudeMeters>
            <DistanceMeters>NAN</DistanceMeters>
          </Trackpoint>
          <Trackpoint>
            <Time>2019-10-09T09:24:22.000Z</Time>
            <Position>
              <LatitudeDegrees>39.076385982334613800048828125</LatitudeDegrees>
              <LongitudeDegrees>-6.30503277294337749481201171875</LongitudeDegrees>
            </Position>
            <AltitudeMeters>325.399993896484375</AltitudeMeters>
            <DistanceMeters>NAN</DistanceMeters>
          </Trackpoint>
          <Trackpoint>
            <Time>2019-10-09T09:24:31.000Z</Time>
            <Position>
              <LatitudeDegrees>39.07597484998404979705810546875</LatitudeDegrees>
              <LongitudeDegrees>-6.30555563606321811676025390625</LongitudeDegrees>
            </Position>
            <AltitudeMeters>325.600006103515625</AltitudeMeters>
            <DistanceMeters>NAN</DistanceMeters>
          </Trackpoint>
          <Trackpoint>
            <Time>2019-10-09T09:24:39.000Z</Time>
            <Position>
              <LatitudeDegrees>39.07562381587922573089599609375</LatitudeDegrees>
              <LongitudeDegrees>-6.3059885613620281219482421875</LongitudeDegrees>
            </Position>
            <AltitudeMeters>325</AltitudeMeters>
            <DistanceMeters>NAN</DistanceMeters>
          </Trackpoint>
          <Trackpoint>
            <Time>2019-10-09T09:24:48.000Z</Time>
            <Position>
              <LatitudeDegrees>39.0752157010138034820556640625</LatitudeDegrees>
              <LongitudeDegrees>-6.30649843253195285797119140625</LongitudeDegrees>
            </Position>
            <AltitudeMeters>325.20001220703125</AltitudeMeters>
            <DistanceMeters>NAN</DistanceMeters>
          </Trackpoint>
          <Trackpoint>
            <Time>2019-10-09T09:24:50.000Z</Time>
            <Position>
              <LatitudeDegrees>39.07512408681213855743408203125</LatitudeDegrees>
              <LongitudeDegrees>-6.30661326460540294647216796875</LongitudeDegrees>
            </Position>
            <AltitudeMeters>324.600006103515625</AltitudeMeters>
            <DistanceMeters>NAN</DistanceMeters>
          </Trackpoint>
          <Trackpoint>
            <Time>2019-10-09T09:24:54.000Z</Time>
            <Position>
              <LatitudeDegrees>39.074944294989109039306640625</LatitudeDegrees>
              <LongitudeDegrees>-6.30684142000973224639892578125</LongitudeDegrees>
            </Position>
            <AltitudeMeters>324.600006103515625</AltitudeMeters>
            <DistanceMeters>NAN</DistanceMeters>
          </Trackpoint>
          <Trackpoint>
            <Time>2019-10-09T09:25:03.000Z</Time>
            <Position>
              <LatitudeDegrees>39.0745407901704311370849609375</LatitudeDegrees>
              <LongitudeDegrees>-6.30734550766646862030029296875</LongitudeDegrees>
            </Position>
            <AltitudeMeters>324</AltitudeMeters>
            <DistanceMeters>NAN</DistanceMeters>
          </Trackpoint>
          <Trackpoint>
            <Time>2019-10-09T09:25:10.000Z</Time>
            <Position>
              <LatitudeDegrees>39.074230156838893890380859375</LatitudeDegrees>
              <LongitudeDegrees>-6.30774557590484619140625</LongitudeDegrees>
            </Position>
            <AltitudeMeters>324.399993896484375</AltitudeMeters>
            <DistanceMeters>NAN</DistanceMeters>
          </Trackpoint>
          <Trackpoint>
            <Time>2019-10-09T09:25:16.000Z</Time>
            <Position>
              <LatitudeDegrees>39.07398817129433155059814453125</LatitudeDegrees>
              <LongitudeDegrees>-6.30813726224005222320556640625</LongitudeDegrees>
            </Position>
            <AltitudeMeters>323.600006103515625</AltitudeMeters>
            <DistanceMeters>NAN</DistanceMeters>
          </Trackpoint>
          <Trackpoint>
            <Time>2019-10-09T09:25:17.000Z</Time>
            <Position>
              <LatitudeDegrees>39.073951542377471923828125</LatitudeDegrees>
              <LongitudeDegrees>-6.3082054071128368377685546875</LongitudeDegrees>
            </Position>
            <AltitudeMeters>323.79998779296875</AltitudeMeters>
            <DistanceMeters>NAN</DistanceMeters>
          </Trackpoint>
          <Trackpoint>
            <Time>2019-10-09T09:25:22.000Z</Time>
            <Position>
              <LatitudeDegrees>39.0738018415868282318115234375</LatitudeDegrees>
              <LongitudeDegrees>-6.3085782341659069061279296875</LongitudeDegrees>
            </Position>
            <AltitudeMeters>322.600006103515625</AltitudeMeters>
            <DistanceMeters>NAN</DistanceMeters>
          </Trackpoint>
          <Trackpoint>
            <Time>2019-10-09T09:25:23.000Z</Time>
            <Position>
              <LatitudeDegrees>39.07378046773374080657958984375</LatitudeDegrees>
              <LongitudeDegrees>-6.30865928716957569122314453125</LongitudeDegrees>
            </Position>
            <AltitudeMeters>322.399993896484375</AltitudeMeters>
            <DistanceMeters>NAN</DistanceMeters>
          </Trackpoint>
          <Trackpoint>
            <Time>2019-10-09T09:25:29.000Z</Time>
            <Position>
              <LatitudeDegrees>39.07369480468332767486572265625</LatitudeDegrees>
              <LongitudeDegrees>-6.30919086746871471405029296875</LongitudeDegrees>
            </Position>
            <AltitudeMeters>321.20001220703125</AltitudeMeters>
            <DistanceMeters>NAN</DistanceMeters>
          </Trackpoint>
          <Trackpoint>
            <Time>2019-10-09T09:25:34.000Z</Time>
            <Position>
              <LatitudeDegrees>39.0736972354352474212646484375</LatitudeDegrees>
              <LongitudeDegrees>-6.30968389101326465606689453125</LongitudeDegrees>
            </Position>
            <AltitudeMeters>320.399993896484375</AltitudeMeters>
            <DistanceMeters>NAN</DistanceMeters>
          </Trackpoint>
          <Trackpoint>
            <Time>2019-10-09T09:25:35.000Z</Time>
            <Position>
              <LatitudeDegrees>39.0737039409577846527099609375</LatitudeDegrees>
              <LongitudeDegrees>-6.30978430621325969696044921875</LongitudeDegrees>
            </Position>
            <AltitudeMeters>320.20001220703125</AltitudeMeters>
            <DistanceMeters>NAN</DistanceMeters>
          </Trackpoint>
          <Trackpoint>
            <Time>2019-10-09T09:25:36.000Z</Time>
            <Position>
              <LatitudeDegrees>39.07371123321354389190673828125</LatitudeDegrees>
              <LongitudeDegrees>-6.30988488905131816864013671875</LongitudeDegrees>
            </Position>
            <AltitudeMeters>319.600006103515625</AltitudeMeters>
            <DistanceMeters>NAN</DistanceMeters>
          </Trackpoint>
          <Trackpoint>
            <Time>2019-10-09T09:25:42.000Z</Time>
            <Position>
              <LatitudeDegrees>39.0737528912723064422607421875</LatitudeDegrees>
              <LongitudeDegrees>-6.310489140450954437255859375</LongitudeDegrees>
            </Position>
            <AltitudeMeters>318.399993896484375</AltitudeMeters>
            <DistanceMeters>NAN</DistanceMeters>
          </Trackpoint>
          <Trackpoint>
            <Time>2019-10-09T09:25:43.000Z</Time>
            <Position>
              <LatitudeDegrees>39.07375314272940158843994140625</LatitudeDegrees>
              <LongitudeDegrees>-6.31059232167899608612060546875</LongitudeDegrees>
            </Position>
            <AltitudeMeters>318.20001220703125</AltitudeMeters>
            <DistanceMeters>NAN</DistanceMeters>
          </Trackpoint>
          <Trackpoint>
            <Time>2019-10-09T09:25:46.000Z</Time>
            <Position>
              <LatitudeDegrees>39.07373202033340930938720703125</LatitudeDegrees>
              <LongitudeDegrees>-6.3109119236469268798828125</LongitudeDegrees>
            </Position>
            <AltitudeMeters>317</AltitudeMeters>
            <DistanceMeters>NAN</DistanceMeters>
          </Trackpoint>
          <Trackpoint>
            <Time>2019-10-09T09:25:48.000Z</Time>
            <Position>
              <LatitudeDegrees>39.0736989118158817291259765625</LatitudeDegrees>
              <LongitudeDegrees>-6.311135552823543548583984375</LongitudeDegrees>
            </Position>
            <AltitudeMeters>315.600006103515625</AltitudeMeters>
            <DistanceMeters>NAN</DistanceMeters>
          </Trackpoint>
          <Trackpoint>
            <Time>2019-10-09T09:25:49.000Z</Time>
            <Position>
              <LatitudeDegrees>39.073673598468303680419921875</LatitudeDegrees>
              <LongitudeDegrees>-6.31124795414507389068603515625</LongitudeDegrees>
            </Position>
            <AltitudeMeters>314.600006103515625</AltitudeMeters>
            <DistanceMeters>NAN</DistanceMeters>
          </Trackpoint>
          <Trackpoint>
            <Time>2019-10-09T09:25:51.000Z</Time>
            <Position>
              <LatitudeDegrees>39.07360796816647052764892578125</LatitudeDegrees>
              <LongitudeDegrees>-6.31147376261651515960693359375</LongitudeDegrees>
            </Position>
            <AltitudeMeters>312.79998779296875</AltitudeMeters>
            <DistanceMeters>NAN</DistanceMeters>
          </Trackpoint>
          <Trackpoint>
            <Time>2019-10-09T09:25:52.000Z</Time>
            <Position>
              <LatitudeDegrees>39.07356773503124713897705078125</LatitudeDegrees>
              <LongitudeDegrees>-6.311587505042552947998046875</LongitudeDegrees>
            </Position>
            <AltitudeMeters>312.399993896484375</AltitudeMeters>
            <DistanceMeters>NAN</DistanceMeters>
          </Trackpoint>
          <Trackpoint>
            <Time>2019-10-09T09:25:53.000Z</Time>
            <Position>
              <LatitudeDegrees>39.0735188685357570648193359375</LatitudeDegrees>
              <LongitudeDegrees>-6.31170040927827358245849609375</LongitudeDegrees>
            </Position>
            <AltitudeMeters>311.399993896484375</AltitudeMeters>
            <DistanceMeters>NAN</DistanceMeters>
          </Trackpoint>
          <Trackpoint>
            <Time>2019-10-09T09:25:55.000Z</Time>
            <Position>
              <LatitudeDegrees>39.07339775003492832183837890625</LatitudeDegrees>
              <LongitudeDegrees>-6.3119212724268436431884765625</LongitudeDegrees>
            </Position>
            <AltitudeMeters>309.79998779296875</AltitudeMeters>
            <DistanceMeters>NAN</DistanceMeters>
          </Trackpoint>
          <Trackpoint>
            <Time>2019-10-09T09:25:56.000Z</Time>
            <Position>
              <LatitudeDegrees>39.07332801260054111480712890625</LatitudeDegrees>
              <LongitudeDegrees>-6.3120265491306781768798828125</LongitudeDegrees>
            </Position>
            <AltitudeMeters>309</AltitudeMeters>
            <DistanceMeters>NAN</DistanceMeters>
          </Trackpoint>
          <Trackpoint>
            <Time>2019-10-09T09:25:57.000Z</Time>
            <Position>
              <LatitudeDegrees>39.07325039617717266082763671875</LatitudeDegrees>
              <LongitudeDegrees>-6.3121257908642292022705078125</LongitudeDegrees>
            </Position>
            <AltitudeMeters>308.20001220703125</AltitudeMeters>
            <DistanceMeters>NAN</DistanceMeters>
          </Trackpoint>
          <Trackpoint>
            <Time>2019-10-09T09:25:58.000Z</Time>
            <Position>
              <LatitudeDegrees>39.0731661580502986907958984375</LatitudeDegrees>
              <LongitudeDegrees>-6.31222226656973361968994140625</LongitudeDegrees>
            </Position>
            <AltitudeMeters>307</AltitudeMeters>
            <DistanceMeters>NAN</DistanceMeters>
          </Trackpoint>
          <Trackpoint>
            <Time>2019-10-09T09:26:00.000Z</Time>
            <Position>
              <LatitudeDegrees>39.07297882251441478729248046875</LatitudeDegrees>
              <LongitudeDegrees>-6.31239510141313076019287109375</LongitudeDegrees>
            </Position>
            <AltitudeMeters>305.399993896484375</AltitudeMeters>
            <DistanceMeters>NAN</DistanceMeters>
          </Trackpoint>
          <Trackpoint>
            <Time>2019-10-09T09:26:01.000Z</Time>
            <Position>
              <LatitudeDegrees>39.072876311838626861572265625</LatitudeDegrees>
              <LongitudeDegrees>-6.31246936507523059844970703125</LongitudeDegrees>
            </Position>
            <AltitudeMeters>304.399993896484375</AltitudeMeters>
            <DistanceMeters>NAN</DistanceMeters>
          </Trackpoint>
          <Trackpoint>
            <Time>2019-10-09T09:26:02.000Z</Time>
            <Position>
              <LatitudeDegrees>39.07277111895382404327392578125</LatitudeDegrees>
              <LongitudeDegrees>-6.31253809668123722076416015625</LongitudeDegrees>
            </Position>
            <AltitudeMeters>303</AltitudeMeters>
            <DistanceMeters>NAN</DistanceMeters>
          </Trackpoint>
          <Trackpoint>
            <Time>2019-10-09T09:26:03.000Z</Time>
            <Position>
              <LatitudeDegrees>39.0726612322032451629638671875</LatitudeDegrees>
              <LongitudeDegrees>-6.312599368393421173095703125</LongitudeDegrees>
            </Position>
            <AltitudeMeters>302</AltitudeMeters>
            <DistanceMeters>NAN</DistanceMeters>
          </Trackpoint>
          <Trackpoint>
            <Time>2019-10-09T09:26:04.000Z</Time>
            <Position>
              <LatitudeDegrees>39.07254966907203197479248046875</LatitudeDegrees>
              <LongitudeDegrees>-6.3126521743834018707275390625</LongitudeDegrees>
            </Position>
            <AltitudeMeters>301</AltitudeMeters>
            <DistanceMeters>NAN</DistanceMeters>
          </Trackpoint>
          <Trackpoint>
            <Time>2019-10-09T09:26:05.000Z</Time>
            <Position>
              <LatitudeDegrees>39.07243869267404079437255859375</LatitudeDegrees>
              <LongitudeDegrees>-6.312701962888240814208984375</LongitudeDegrees>
            </Position>
            <AltitudeMeters>300</AltitudeMeters>
            <DistanceMeters>NAN</DistanceMeters>
          </Trackpoint>
          <Trackpoint>
            <Time>2019-10-09T09:26:07.000Z</Time>
            <Position>
              <LatitudeDegrees>39.0722166560590267181396484375</LatitudeDegrees>
              <LongitudeDegrees>-6.31277798675000667572021484375</LongitudeDegrees>
            </Position>
            <AltitudeMeters>298.600006103515625</AltitudeMeters>
            <DistanceMeters>NAN</DistanceMeters>
          </Trackpoint>
          <Trackpoint>
            <Time>2019-10-09T09:26:09.000Z</Time>
            <Position>
              <LatitudeDegrees>39.07199545763432979583740234375</LatitudeDegrees>
              <LongitudeDegrees>-6.3128305412828922271728515625</LongitudeDegrees>
            </Position>
            <AltitudeMeters>298.399993896484375</AltitudeMeters>
            <DistanceMeters>NAN</DistanceMeters>
          </Trackpoint>
          <Trackpoint>
            <Time>2019-10-09T09:26:13.000Z</Time>
            <Position>
              <LatitudeDegrees>39.0715819783508777618408203125</LatitudeDegrees>
              <LongitudeDegrees>-6.3128898851573467254638671875</LongitudeDegrees>
            </Position>
            <AltitudeMeters>298</AltitudeMeters>
            <DistanceMeters>NAN</DistanceMeters>
          </Trackpoint>
          <Trackpoint>
            <Time>2019-10-09T09:26:14.000Z</Time>
            <Position>
              <LatitudeDegrees>39.071484915912151336669921875</LatitudeDegrees>
              <LongitudeDegrees>-6.312894411385059356689453125</LongitudeDegrees>
            </Position>
            <AltitudeMeters>298.600006103515625</AltitudeMeters>
            <DistanceMeters>NAN</DistanceMeters>
          </Trackpoint>
          <Trackpoint>
            <Time>2019-10-09T09:26:18.000Z</Time>
            <Position>
              <LatitudeDegrees>39.07110781408846378326416015625</LatitudeDegrees>
              <LongitudeDegrees>-6.312862895429134368896484375</LongitudeDegrees>
            </Position>
            <AltitudeMeters>298.20001220703125</AltitudeMeters>
            <DistanceMeters>NAN</DistanceMeters>
          </Trackpoint>
          <Trackpoint>
            <Time>2019-10-09T09:26:19.000Z</Time>
            <Position>
              <LatitudeDegrees>39.071015529334545135498046875</LatitudeDegrees>
              <LongitudeDegrees>-6.31283699534833431243896484375</LongitudeDegrees>
            </Position>
            <AltitudeMeters>298.600006103515625</AltitudeMeters>
            <DistanceMeters>NAN</DistanceMeters>
          </Trackpoint>
          <Trackpoint>
            <Time>2019-10-09T09:26:22.000Z</Time>
            <Position>
              <LatitudeDegrees>39.070735909044742584228515625</LatitudeDegrees>
              <LongitudeDegrees>-6.31273289211094379425048828125</LongitudeDegrees>
            </Position>
            <AltitudeMeters>297.20001220703125</AltitudeMeters>
            <DistanceMeters>NAN</DistanceMeters>
          </Trackpoint>
          <Trackpoint>
            <Time>2019-10-09T09:26:23.000Z</Time>
            <Position>
              <LatitudeDegrees>39.07064211554825305938720703125</LatitudeDegrees>
              <LongitudeDegrees>-6.3126910664141178131103515625</LongitudeDegrees>
            </Position>
            <AltitudeMeters>296.79998779296875</AltitudeMeters>
            <DistanceMeters>NAN</DistanceMeters>
          </Trackpoint>
          <Trackpoint>
            <Time>2019-10-09T09:26:24.000Z</Time>
            <Position>
              <LatitudeDegrees>39.07054807059466838836669921875</LatitudeDegrees>
              <LongitudeDegrees>-6.31264739669859409332275390625</LongitudeDegrees>
            </Position>
            <AltitudeMeters>295.79998779296875</AltitudeMeters>
            <DistanceMeters>NAN</DistanceMeters>
          </Trackpoint>
          <Trackpoint>
            <Time>2019-10-09T09:26:25.000Z</Time>
            <Position>
              <LatitudeDegrees>39.0704520978033542633056640625</LatitudeDegrees>
              <LongitudeDegrees>-6.31260297261178493499755859375</LongitudeDegrees>
            </Position>
            <AltitudeMeters>295</AltitudeMeters>
            <DistanceMeters>NAN</DistanceMeters>
          </Trackpoint>
          <Trackpoint>
            <Time>2019-10-09T09:26:26.000Z</Time>
            <Position>
              <LatitudeDegrees>39.0703555382788181304931640625</LatitudeDegrees>
              <LongitudeDegrees>-6.31256257183849811553955078125</LongitudeDegrees>
            </Position>
            <AltitudeMeters>294</AltitudeMeters>
            <DistanceMeters>NAN</DistanceMeters>
          </Trackpoint>
          <Trackpoint>
            <Time>2019-10-09T09:26:28.000Z</Time>
            <Position>
              <LatitudeDegrees>39.0701560489833354949951171875</LatitudeDegrees>
              <LongitudeDegrees>-6.31248948164284229278564453125</LongitudeDegrees>
            </Position>
            <AltitudeMeters>292.79998779296875</AltitudeMeters>
            <DistanceMeters>NAN</DistanceMeters>
          </Trackpoint>
          <Trackpoint>
            <Time>2019-10-09T09:26:30.000Z</Time>
            <Position>
              <LatitudeDegrees>39.06994775868952274322509765625</LatitudeDegrees>
              <LongitudeDegrees>-6.31244841031730175018310546875</LongitudeDegrees>
            </Position>
            <AltitudeMeters>290.79998779296875</AltitudeMeters>
            <DistanceMeters>NAN</DistanceMeters>
          </Trackpoint>
          <Trackpoint>
            <Time>2019-10-09T09:26:32.000Z</Time>
            <Position>
              <LatitudeDegrees>39.069685153663158416748046875</LatitudeDegrees>
              <LongitudeDegrees>-6.31243047304451465606689453125</LongitudeDegrees>
            </Position>
            <AltitudeMeters>288.600006103515625</AltitudeMeters>
            <DistanceMeters>NAN</DistanceMeters>
          </Trackpoint>
          <Trackpoint>
            <Time>2019-10-09T09:26:34.000Z</Time>
            <Position>
              <LatitudeDegrees>39.0695173479616641998291015625</LatitudeDegrees>
              <LongitudeDegrees>-6.31244405172765254974365234375</LongitudeDegrees>
            </Position>
            <AltitudeMeters>287.79998779296875</AltitudeMeters>
            <DistanceMeters>NAN</DistanceMeters>
          </Trackpoint>
          <Trackpoint>
            <Time>2019-10-09T09:26:35.000Z</Time>
            <Position>
              <LatitudeDegrees>39.0694093890488147735595703125</LatitudeDegrees>
              <LongitudeDegrees>-6.3124650903046131134033203125</LongitudeDegrees>
            </Position>
            <AltitudeMeters>287.20001220703125</AltitudeMeters>
            <DistanceMeters>NAN</DistanceMeters>
          </Trackpoint>
          <Trackpoint>
            <Time>2019-10-09T09:26:36.000Z</Time>
            <Position>
              <LatitudeDegrees>39.06930218450725078582763671875</LatitudeDegrees>
              <LongitudeDegrees>-6.31249300204217433929443359375</LongitudeDegrees>
            </Position>
            <AltitudeMeters>286.399993896484375</AltitudeMeters>
            <DistanceMeters>NAN</DistanceMeters>
          </Trackpoint>
          <Trackpoint>
            <Time>2019-10-09T09:26:37.000Z</Time>
            <Position>
              <LatitudeDegrees>39.06919606961309909820556640625</LatitudeDegrees>
              <LongitudeDegrees>-6.312526278197765350341796875</LongitudeDegrees>
            </Position>
            <AltitudeMeters>285.79998779296875</AltitudeMeters>
            <DistanceMeters>NAN</DistanceMeters>
          </Trackpoint>
          <Trackpoint>
            <Time>2019-10-09T09:26:39.000Z</Time>
            <Position>
              <LatitudeDegrees>39.068986438214778900146484375</LatitudeDegrees>
              <LongitudeDegrees>-6.31260917522013187408447265625</LongitudeDegrees>
            </Position>
            <AltitudeMeters>284.79998779296875</AltitudeMeters>
            <DistanceMeters>NAN</DistanceMeters>
          </Trackpoint>
          <Trackpoint>
            <Time>2019-10-09T09:26:40.000Z</Time>
            <Position>
              <LatitudeDegrees>39.06888241879642009735107421875</LatitudeDegrees>
              <LongitudeDegrees>-6.31265468895435333251953125</LongitudeDegrees>
            </Position>
            <AltitudeMeters>284</AltitudeMeters>
            <DistanceMeters>NAN</DistanceMeters>
          </Trackpoint>
          <Trackpoint>
            <Time>2019-10-09T09:26:42.000Z</Time>
            <Position>
              <LatitudeDegrees>39.06867370940744876861572265625</LatitudeDegrees>
              <LongitudeDegrees>-6.3127457164227962493896484375</LongitudeDegrees>
            </Position>
            <AltitudeMeters>282.79998779296875</AltitudeMeters>
            <DistanceMeters>NAN</DistanceMeters>
          </Trackpoint>
          <Trackpoint>
            <Time>2019-10-09T09:26:45.000Z</Time>
            <Position>
              <LatitudeDegrees>39.06836341135203838348388671875</LatitudeDegrees>
              <LongitudeDegrees>-6.312885694205760955810546875</LongitudeDegrees>
            </Position>
            <AltitudeMeters>281.20001220703125</AltitudeMeters>
            <DistanceMeters>NAN</DistanceMeters>
          </Trackpoint>
          <Trackpoint>
            <Time>2019-10-09T09:26:48.000Z</Time>
            <Position>
              <LatitudeDegrees>39.0680568851530551910400390625</LatitudeDegrees>
              <LongitudeDegrees>-6.31302441470324993133544921875</LongitudeDegrees>
            </Position>
            <AltitudeMeters>280</AltitudeMeters>
            <DistanceMeters>NAN</DistanceMeters>
          </Trackpoint>
          <Trackpoint>
            <Time>2019-10-09T09:26:51.000Z</Time>
            <Position>
              <LatitudeDegrees>39.067755974829196929931640625</LatitudeDegrees>
              <LongitudeDegrees>-6.3131607882678508758544921875</LongitudeDegrees>
            </Position>
            <AltitudeMeters>278.399993896484375</AltitudeMeters>
            <DistanceMeters>NAN</DistanceMeters>
          </Trackpoint>
          <Trackpoint>
            <Time>2019-10-09T09:26:53.000Z</Time>
            <Position>
              <LatitudeDegrees>39.067558161914348602294921875</LatitudeDegrees>
              <LongitudeDegrees>-6.31325106136500835418701171875</LongitudeDegrees>
            </Position>
            <AltitudeMeters>277.399993896484375</AltitudeMeters>
            <DistanceMeters>NAN</DistanceMeters>
          </Trackpoint>
          <Trackpoint>
            <Time>2019-10-09T09:26:57.000Z</Time>
            <Position>
              <LatitudeDegrees>39.067164547741413116455078125</LatitudeDegrees>
              <LongitudeDegrees>-6.31343428976833820343017578125</LongitudeDegrees>
            </Position>
            <AltitudeMeters>276.20001220703125</AltitudeMeters>
            <DistanceMeters>NAN</DistanceMeters>
          </Trackpoint>
          <Trackpoint>
            <Time>2019-10-09T09:26:59.000Z</Time>
            <Position>
              <LatitudeDegrees>39.06696966849267482757568359375</LatitudeDegrees>
              <LongitudeDegrees>-6.31352967582643032073974609375</LongitudeDegrees>
            </Position>
            <AltitudeMeters>274.79998779296875</AltitudeMeters>
            <DistanceMeters>NAN</DistanceMeters>
          </Trackpoint>
          <Trackpoint>
            <Time>2019-10-09T09:27:00.000Z</Time>
            <Position>
              <LatitudeDegrees>39.0668736957013607025146484375</LatitudeDegrees>
              <LongitudeDegrees>-6.313576363027095794677734375</LongitudeDegrees>
            </Position>
            <AltitudeMeters>274.20001220703125</AltitudeMeters>
            <DistanceMeters>NAN</DistanceMeters>
          </Trackpoint>
          <Trackpoint>
            <Time>2019-10-09T09:27:03.000Z</Time>
            <Position>
              <LatitudeDegrees>39.06658896245062351226806640625</LatitudeDegrees>
              <LongitudeDegrees>-6.3137274049222469329833984375</LongitudeDegrees>
            </Position>
            <AltitudeMeters>273.20001220703125</AltitudeMeters>
            <DistanceMeters>NAN</DistanceMeters>
          </Trackpoint>
          <Trackpoint>
            <Time>2019-10-09T09:27:07.000Z</Time>
            <Position>
              <LatitudeDegrees>39.0662272833287715911865234375</LatitudeDegrees>
              <LongitudeDegrees>-6.3139299117028713226318359375</LongitudeDegrees>
            </Position>
            <AltitudeMeters>272</AltitudeMeters>
            <DistanceMeters>NAN</DistanceMeters>
          </Trackpoint>
          <Trackpoint>
            <Time>2019-10-09T09:27:08.000Z</Time>
            <Position>
              <LatitudeDegrees>39.06613902188837528228759765625</LatitudeDegrees>
              <LongitudeDegrees>-6.31398531608283519744873046875</LongitudeDegrees>
            </Position>
            <AltitudeMeters>271.600006103515625</AltitudeMeters>
            <DistanceMeters>NAN</DistanceMeters>
          </Trackpoint>
          <Trackpoint>
            <Time>2019-10-09T09:27:10.000Z</Time>
            <Position>
              <LatitudeDegrees>39.06596149317920207977294921875</LatitudeDegrees>
              <LongitudeDegrees>-6.3140905089676380157470703125</LongitudeDegrees>
            </Position>
            <AltitudeMeters>270.600006103515625</AltitudeMeters>
            <DistanceMeters>NAN</DistanceMeters>
          </Trackpoint>
          <Trackpoint>
            <Time>2019-10-09T09:27:14.000Z</Time>
            <Position>
              <LatitudeDegrees>39.0656138956546783447265625</LatitudeDegrees>
              <LongitudeDegrees>-6.31430634297430515289306640625</LongitudeDegrees>
            </Position>
            <AltitudeMeters>269</AltitudeMeters>
            <DistanceMeters>NAN</DistanceMeters>
          </Trackpoint>
          <Trackpoint>
            <Time>2019-10-09T09:27:15.000Z</Time>
            <Position>
              <LatitudeDegrees>39.06552873551845550537109375</LatitudeDegrees>
              <LongitudeDegrees>-6.31436434574425220489501953125</LongitudeDegrees>
            </Position>
            <AltitudeMeters>268.600006103515625</AltitudeMeters>
            <DistanceMeters>NAN</DistanceMeters>
          </Trackpoint>
          <Trackpoint>
            <Time>2019-10-09T09:27:20.000Z</Time>
            <Position>
              <LatitudeDegrees>39.065102599561214447021484375</LatitudeDegrees>
              <LongitudeDegrees>-6.3146618194878101348876953125</LongitudeDegrees>
            </Position>
            <AltitudeMeters>267.399993896484375</AltitudeMeters>
            <DistanceMeters>NAN</DistanceMeters>
          </Trackpoint>
          <Trackpoint>
            <Time>2019-10-09T09:27:22.000Z</Time>
            <Position>
              <LatitudeDegrees>39.0649357996881008148193359375</LatitudeDegrees>
              <LongitudeDegrees>-6.3147984445095062255859375</LongitudeDegrees>
            </Position>
            <AltitudeMeters>266.600006103515625</AltitudeMeters>
            <DistanceMeters>NAN</DistanceMeters>
          </Trackpoint>
          <Trackpoint>
            <Time>2019-10-09T09:27:24.000Z</Time>
            <Position>
              <LatitudeDegrees>39.06476640142500400543212890625</LatitudeDegrees>
              <LongitudeDegrees>-6.31493699736893177032470703125</LongitudeDegrees>
            </Position>
            <AltitudeMeters>266.399993896484375</AltitudeMeters>
            <DistanceMeters>NAN</DistanceMeters>
          </Trackpoint>
          <Trackpoint>
            <Time>2019-10-09T09:27:26.000Z</Time>
            <Position>
              <LatitudeDegrees>39.06459331512451171875</LatitudeDegrees>
              <LongitudeDegrees>-6.31507010199129581451416015625</LongitudeDegrees>
            </Position>
            <AltitudeMeters>264.79998779296875</AltitudeMeters>
            <DistanceMeters>NAN</DistanceMeters>
          </Trackpoint>
          <Trackpoint>
            <Time>2019-10-09T09:27:29.000Z</Time>
            <Position>
              <LatitudeDegrees>39.064338505268096923828125</LatitudeDegrees>
              <LongitudeDegrees>-6.31526975892484188079833984375</LongitudeDegrees>
            </Position>
            <AltitudeMeters>263.399993896484375</AltitudeMeters>
            <DistanceMeters>NAN</DistanceMeters>
          </Trackpoint>
          <Trackpoint>
            <Time>2019-10-09T09:27:30.000Z</Time>
            <Position>
              <LatitudeDegrees>39.064253680408000946044921875</LatitudeDegrees>
              <LongitudeDegrees>-6.31533631123602390289306640625</LongitudeDegrees>
            </Position>
            <AltitudeMeters>263</AltitudeMeters>
            <DistanceMeters>NAN</DistanceMeters>
          </Trackpoint>
          <Trackpoint>
            <Time>2019-10-09T09:27:32.000Z</Time>
            <Position>
              <LatitudeDegrees>39.06408579088747501373291015625</LatitudeDegrees>
              <LongitudeDegrees>-6.31546287797391414642333984375</LongitudeDegrees>
            </Position>
            <AltitudeMeters>262.399993896484375</AltitudeMeters>
            <DistanceMeters>NAN</DistanceMeters>
          </Trackpoint>
          <Trackpoint>
            <Time>2019-10-09T09:27:37.000Z</Time>
            <Position>
              <LatitudeDegrees>39.0636845491826534271240234375</LatitudeDegrees>
              <LongitudeDegrees>-6.31578105501830577850341796875</LongitudeDegrees>
            </Position>
            <AltitudeMeters>261.600006103515625</AltitudeMeters>
            <DistanceMeters>NAN</DistanceMeters>
          </Trackpoint>
          <Trackpoint>
            <Time>2019-10-09T09:27:39.000Z</Time>
            <Position>
              <LatitudeDegrees>39.06352571211755275726318359375</LatitudeDegrees>
              <LongitudeDegrees>-6.31589923985302448272705078125</LongitudeDegrees>
            </Position>
            <AltitudeMeters>261</AltitudeMeters>
            <DistanceMeters>NAN</DistanceMeters>
          </Trackpoint>
          <Trackpoint>
            <Time>2019-10-09T09:27:45.000Z</Time>
            <Position>
              <LatitudeDegrees>39.06304542906582355499267578125</LatitudeDegrees>
              <LongitudeDegrees>-6.31622713990509510040283203125</LongitudeDegrees>
            </Position>
            <AltitudeMeters>259.79998779296875</AltitudeMeters>
            <DistanceMeters>NAN</DistanceMeters>
          </Trackpoint>
          <Trackpoint>
            <Time>2019-10-09T09:27:48.000Z</Time>
            <Position>
              <LatitudeDegrees>39.062793888151645660400390625</LatitudeDegrees>
              <LongitudeDegrees>-6.31639108993113040924072265625</LongitudeDegrees>
            </Position>
            <AltitudeMeters>258.20001220703125</AltitudeMeters>
            <DistanceMeters>NAN</DistanceMeters>
          </Trackpoint>
          <Trackpoint>
            <Time>2019-10-09T09:27:50.000Z</Time>
            <Position>
              <LatitudeDegrees>39.0626223944127559661865234375</LatitudeDegrees>
              <LongitudeDegrees>-6.31649720482528209686279296875</LongitudeDegrees>
            </Position>
            <AltitudeMeters>257.20001220703125</AltitudeMeters>
            <DistanceMeters>NAN</DistanceMeters>
          </Trackpoint>
          <Trackpoint>
            <Time>2019-10-09T09:27:53.000Z</Time>
            <Position>
              <LatitudeDegrees>39.0623575262725353240966796875</LatitudeDegrees>
              <LongitudeDegrees>-6.316647827625274658203125</LongitudeDegrees>
            </Position>
            <AltitudeMeters>256.20001220703125</AltitudeMeters>
            <DistanceMeters>NAN</DistanceMeters>
          </Trackpoint>
          <Trackpoint>
            <Time>2019-10-09T09:27:54.000Z</Time>
            <Position>
              <LatitudeDegrees>39.06226943247020244598388671875</LatitudeDegrees>
              <LongitudeDegrees>-6.31669811904430389404296875</LongitudeDegrees>
            </Position>
            <AltitudeMeters>256</AltitudeMeters>
            <DistanceMeters>NAN</DistanceMeters>
          </Trackpoint>
          <Trackpoint>
            <Time>2019-10-09T09:27:57.000Z</Time>
            <Position>
              <LatitudeDegrees>39.0620076656341552734375</LatitudeDegrees>
              <LongitudeDegrees>-6.3168505020439624786376953125</LongitudeDegrees>
            </Position>
            <AltitudeMeters>254.600006103515625</AltitudeMeters>
            <DistanceMeters>NAN</DistanceMeters>
          </Trackpoint>
          <Trackpoint>
            <Time>2019-10-09T09:27:59.000Z</Time>
            <Position>
              <LatitudeDegrees>39.06182971782982349395751953125</LatitudeDegrees>
              <LongitudeDegrees>-6.316943876445293426513671875</LongitudeDegrees>
            </Position>
            <AltitudeMeters>254</AltitudeMeters>
            <DistanceMeters>NAN</DistanceMeters>
          </Trackpoint>
          <Trackpoint>
            <Time>2019-10-09T09:28:00.000Z</Time>
            <Position>
              <LatitudeDegrees>39.06174086965620517730712890625</LatitudeDegrees>
              <LongitudeDegrees>-6.3169889710843563079833984375</LongitudeDegrees>
            </Position>
            <AltitudeMeters>253.600006103515625</AltitudeMeters>
            <DistanceMeters>NAN</DistanceMeters>
          </Trackpoint>
          <Trackpoint>
            <Time>2019-10-09T09:28:02.000Z</Time>
            <Position>
              <LatitudeDegrees>39.06156367622315883636474609375</LatitudeDegrees>
              <LongitudeDegrees>-6.3170758076012134552001953125</LongitudeDegrees>
            </Position>
            <AltitudeMeters>252.399993896484375</AltitudeMeters>
            <DistanceMeters>NAN</DistanceMeters>
          </Trackpoint>
          <Trackpoint>
            <Time>2019-10-09T09:28:04.000Z</Time>
            <Position>
              <LatitudeDegrees>39.06138447113335132598876953125</LatitudeDegrees>
              <LongitudeDegrees>-6.31716239266097545623779296875</LongitudeDegrees>
            </Position>
            <AltitudeMeters>251</AltitudeMeters>
            <DistanceMeters>NAN</DistanceMeters>
          </Trackpoint>
          <Trackpoint>
            <Time>2019-10-09T09:28:06.000Z</Time>
            <Position>
              <LatitudeDegrees>39.0612061880528926849365234375</LatitudeDegrees>
              <LongitudeDegrees>-6.31724436767399311065673828125</LongitudeDegrees>
            </Position>
            <AltitudeMeters>250.1999969482421875</AltitudeMeters>
            <DistanceMeters>NAN</DistanceMeters>
          </Trackpoint>
          <Trackpoint>
            <Time>2019-10-09T09:28:08.000Z</Time>
            <Position>
              <LatitudeDegrees>39.0610278211534023284912109375</LatitudeDegrees>
              <LongitudeDegrees>-6.31731930188834667205810546875</LongitudeDegrees>
            </Position>
            <AltitudeMeters>249.8000030517578125</AltitudeMeters>
            <DistanceMeters>NAN</DistanceMeters>
          </Trackpoint>
          <Trackpoint>
            <Time>2019-10-09T09:28:10.000Z</Time>
            <Position>
              <LatitudeDegrees>39.06084937043488025665283203125</LatitudeDegrees>
              <LongitudeDegrees>-6.31739004515111446380615234375</LongitudeDegrees>
            </Position>
            <AltitudeMeters>249</AltitudeMeters>
            <DistanceMeters>NAN</DistanceMeters>
          </Trackpoint>
          <Trackpoint>
            <Time>2019-10-09T09:28:11.000Z</Time>
            <Position>
              <LatitudeDegrees>39.060760103166103363037109375</LatitudeDegrees>
              <LongitudeDegrees>-6.31742390803992748260498046875</LongitudeDegrees>
            </Position>
            <AltitudeMeters>248.600006103515625</AltitudeMeters>
            <DistanceMeters>NAN</DistanceMeters>
          </Trackpoint>
          <Trackpoint>
            <Time>2019-10-09T09:28:12.000Z</Time>
            <Position>
              <LatitudeDegrees>39.06067133881151676177978515625</LatitudeDegrees>
              <LongitudeDegrees>-6.31745852530002593994140625</LongitudeDegrees>
            </Position>
            <AltitudeMeters>248.1999969482421875</AltitudeMeters>
            <DistanceMeters>NAN</DistanceMeters>
          </Trackpoint>
          <Trackpoint>
            <Time>2019-10-09T09:28:13.000Z</Time>
            <Position>
              <LatitudeDegrees>39.06058140099048614501953125</LatitudeDegrees>
              <LongitudeDegrees>-6.3174913823604583740234375</LongitudeDegrees>
            </Position>
            <AltitudeMeters>248</AltitudeMeters>
            <DistanceMeters>NAN</DistanceMeters>
          </Trackpoint>
          <Trackpoint>
            <Time>2019-10-09T09:28:15.000Z</Time>
            <Position>
              <LatitudeDegrees>39.06040244735777378082275390625</LatitudeDegrees>
              <LongitudeDegrees>-6.3175529055297374725341796875</LongitudeDegrees>
            </Position>
            <AltitudeMeters>247.1999969482421875</AltitudeMeters>
            <DistanceMeters>NAN</DistanceMeters>
          </Trackpoint>
          <Trackpoint>
            <Time>2019-10-09T09:28:17.000Z</Time>
            <Position>
              <LatitudeDegrees>39.06022324226796627044677734375</LatitudeDegrees>
              <LongitudeDegrees>-6.31761451251804828643798828125</LongitudeDegrees>
            </Position>
            <AltitudeMeters>246.399993896484375</AltitudeMeters>
            <DistanceMeters>NAN</DistanceMeters>
          </Trackpoint>
          <Trackpoint>
            <Time>2019-10-09T09:28:18.000Z</Time>
            <Position>
              <LatitudeDegrees>39.06013213098049163818359375</LatitudeDegrees>
              <LongitudeDegrees>-6.3176442682743072509765625</LongitudeDegrees>
            </Position>
            <AltitudeMeters>245.8000030517578125</AltitudeMeters>
            <DistanceMeters>NAN</DistanceMeters>
          </Trackpoint>
          <Trackpoint>
            <Time>2019-10-09T09:28:19.000Z</Time>
            <Position>
              <LatitudeDegrees>39.060041606426239013671875</LatitudeDegrees>
              <LongitudeDegrees>-6.317672766745090484619140625</LongitudeDegrees>
            </Position>
            <AltitudeMeters>245.399993896484375</AltitudeMeters>
            <DistanceMeters>NAN</DistanceMeters>
          </Trackpoint>
          <Trackpoint>
            <Time>2019-10-09T09:28:21.000Z</Time>
            <Position>
              <LatitudeDegrees>39.05985879711806774139404296875</LatitudeDegrees>
              <LongitudeDegrees>-6.31772867403924465179443359375</LongitudeDegrees>
            </Position>
            <AltitudeMeters>244.8000030517578125</AltitudeMeters>
            <DistanceMeters>NAN</DistanceMeters>
          </Trackpoint>
          <Trackpoint>
            <Time>2019-10-09T09:28:22.000Z</Time>
            <Position>
              <LatitudeDegrees>39.05976869165897369384765625</LatitudeDegrees>
              <LongitudeDegrees>-6.3177569210529327392578125</LongitudeDegrees>
            </Position>
            <AltitudeMeters>244.600006103515625</AltitudeMeters>
            <DistanceMeters>NAN</DistanceMeters>
          </Trackpoint>
          <Trackpoint>
            <Time>2019-10-09T09:28:24.000Z</Time>
            <Position>
              <LatitudeDegrees>39.05958806164562702178955078125</LatitudeDegrees>
              <LongitudeDegrees>-6.31781165488064289093017578125</LongitudeDegrees>
            </Position>
            <AltitudeMeters>244.1999969482421875</AltitudeMeters>
            <DistanceMeters>NAN</DistanceMeters>
          </Trackpoint>
          <Trackpoint>
            <Time>2019-10-09T09:28:25.000Z</Time>
            <Position>
              <LatitudeDegrees>39.0594972856342792510986328125</LatitudeDegrees>
              <LongitudeDegrees>-6.317838728427886962890625</LongitudeDegrees>
            </Position>
            <AltitudeMeters>243.8000030517578125</AltitudeMeters>
            <DistanceMeters>NAN</DistanceMeters>
          </Trackpoint>
          <Trackpoint>
            <Time>2019-10-09T09:28:28.000Z</Time>
            <Position>
              <LatitudeDegrees>39.05922688543796539306640625</LatitudeDegrees>
              <LongitudeDegrees>-6.31791852414608001708984375</LongitudeDegrees>
            </Position>
            <AltitudeMeters>242.8000030517578125</AltitudeMeters>
            <DistanceMeters>NAN</DistanceMeters>
          </Trackpoint>
          <Trackpoint>
            <Time>2019-10-09T09:28:30.000Z</Time>
            <Position>
              <LatitudeDegrees>39.05904457904398441314697265625</LatitudeDegrees>
              <LongitudeDegrees>-6.3179709948599338531494140625</LongitudeDegrees>
            </Position>
            <AltitudeMeters>242.8000030517578125</AltitudeMeters>
            <DistanceMeters>NAN</DistanceMeters>
          </Trackpoint>
          <Trackpoint>
            <Time>2019-10-09T09:28:32.000Z</Time>
            <Position>
              <LatitudeDegrees>39.0588602609932422637939453125</LatitudeDegrees>
              <LongitudeDegrees>-6.31802874617278575897216796875</LongitudeDegrees>
            </Position>
            <AltitudeMeters>241.399993896484375</AltitudeMeters>
            <DistanceMeters>NAN</DistanceMeters>
          </Trackpoint>
          <Trackpoint>
            <Time>2019-10-09T09:28:33.000Z</Time>
            <Position>
              <LatitudeDegrees>39.05876697041094303131103515625</LatitudeDegrees>
              <LongitudeDegrees>-6.3180573284626007080078125</LongitudeDegrees>
            </Position>
            <AltitudeMeters>240.8000030517578125</AltitudeMeters>
            <DistanceMeters>NAN</DistanceMeters>
          </Trackpoint>
          <Trackpoint>
            <Time>2019-10-09T09:28:34.000Z</Time>
            <Position>
              <LatitudeDegrees>39.0586731769144535064697265625</LatitudeDegrees>
              <LongitudeDegrees>-6.31808607839047908782958984375</LongitudeDegrees>
            </Position>
            <AltitudeMeters>239.8000030517578125</AltitudeMeters>
            <DistanceMeters>NAN</DistanceMeters>
          </Trackpoint>
          <Trackpoint>
            <Time>2019-10-09T09:28:37.000Z</Time>
            <Position>
              <LatitudeDegrees>39.05838542617857456207275390625</LatitudeDegrees>
              <LongitudeDegrees>-6.3181745074689388275146484375</LongitudeDegrees>
            </Position>
            <AltitudeMeters>238.1999969482421875</AltitudeMeters>
            <DistanceMeters>NAN</DistanceMeters>
          </Trackpoint>
          <Trackpoint>
            <Time>2019-10-09T09:28:39.000Z</Time>
            <Position>
              <LatitudeDegrees>39.05819498933851718902587890625</LatitudeDegrees>
              <LongitudeDegrees>-6.31824038922786712646484375</LongitudeDegrees>
            </Position>
            <AltitudeMeters>237</AltitudeMeters>
            <DistanceMeters>NAN</DistanceMeters>
          </Trackpoint>
          <Trackpoint>
            <Time>2019-10-09T09:28:41.000Z</Time>
            <Position>
              <LatitudeDegrees>39.0580098330974578857421875</LatitudeDegrees>
              <LongitudeDegrees>-6.31831817328929901123046875</LongitudeDegrees>
            </Position>
            <AltitudeMeters>236.600006103515625</AltitudeMeters>
            <DistanceMeters>NAN</DistanceMeters>
          </Trackpoint>
          <Trackpoint>
            <Time>2019-10-09T09:28:43.000Z</Time>
            <Position>
              <LatitudeDegrees>39.0578323043882846832275390625</LatitudeDegrees>
              <LongitudeDegrees>-6.31841448135673999786376953125</LongitudeDegrees>
            </Position>
            <AltitudeMeters>236</AltitudeMeters>
            <DistanceMeters>NAN</DistanceMeters>
          </Trackpoint>
          <Trackpoint>
            <Time>2019-10-09T09:28:46.000Z</Time>
            <Position>
              <LatitudeDegrees>39.0575848706066608428955078125</LatitudeDegrees>
              <LongitudeDegrees>-6.318600811064243316650390625</LongitudeDegrees>
            </Position>
            <AltitudeMeters>235.399993896484375</AltitudeMeters>
            <DistanceMeters>NAN</DistanceMeters>
          </Trackpoint>
          <Trackpoint>
            <Time>2019-10-09T09:28:48.000Z</Time>
            <Position>
              <LatitudeDegrees>39.057438187301158905029296875</LatitudeDegrees>
              <LongitudeDegrees>-6.31875227205455303192138671875</LongitudeDegrees>
            </Position>
            <AltitudeMeters>234.8000030517578125</AltitudeMeters>
            <DistanceMeters>NAN</DistanceMeters>
          </Trackpoint>
          <Trackpoint>
            <Time>2019-10-09T09:28:51.000Z</Time>
            <Position>
              <LatitudeDegrees>39.057251103222370147705078125</LatitudeDegrees>
              <LongitudeDegrees>-6.31900372914969921112060546875</LongitudeDegrees>
            </Position>
            <AltitudeMeters>234.1999969482421875</AltitudeMeters>
            <DistanceMeters>NAN</DistanceMeters>
          </Trackpoint>
          <Trackpoint>
            <Time>2019-10-09T09:28:54.000Z</Time>
            <Position>
              <LatitudeDegrees>39.057098887860774993896484375</LatitudeDegrees>
              <LongitudeDegrees>-6.3192638196051120758056640625</LongitudeDegrees>
            </Position>
            <AltitudeMeters>233.600006103515625</AltitudeMeters>
            <DistanceMeters>NAN</DistanceMeters>
          </Trackpoint>
          <Trackpoint>
            <Time>2019-10-09T09:28:57.000Z</Time>
            <Position>
              <LatitudeDegrees>39.0569615922868251800537109375</LatitudeDegrees>
              <LongitudeDegrees>-6.319505386054515838623046875</LongitudeDegrees>
            </Position>
            <AltitudeMeters>234.600006103515625</AltitudeMeters>
            <DistanceMeters>NAN</DistanceMeters>
          </Trackpoint>
          <Trackpoint>
            <Time>2019-10-09T09:29:02.000Z</Time>
            <Position>
              <LatitudeDegrees>39.056746847927570343017578125</LatitudeDegrees>
              <LongitudeDegrees>-6.319875530898571014404296875</LongitudeDegrees>
            </Position>
            <AltitudeMeters>235.1999969482421875</AltitudeMeters>
            <DistanceMeters>NAN</DistanceMeters>
          </Trackpoint>
          <Trackpoint>
            <Time>2019-10-09T09:29:05.000Z</Time>
            <Position>
              <LatitudeDegrees>39.056630842387676239013671875</LatitudeDegrees>
              <LongitudeDegrees>-6.32009153254330158233642578125</LongitudeDegrees>
            </Position>
            <AltitudeMeters>234.8000030517578125</AltitudeMeters>
            <DistanceMeters>NAN</DistanceMeters>
          </Trackpoint>
          <Trackpoint>
            <Time>2019-10-09T09:29:10.000Z</Time>
            <Position>
              <LatitudeDegrees>39.0564543195068836212158203125</LatitudeDegrees>
              <LongitudeDegrees>-6.32043871097266674041748046875</LongitudeDegrees>
            </Position>
            <AltitudeMeters>234.8000030517578125</AltitudeMeters>
            <DistanceMeters>NAN</DistanceMeters>
          </Trackpoint>
          <Trackpoint>
            <Time>2019-10-09T09:29:15.000Z</Time>
            <Position>
              <LatitudeDegrees>39.0562746115028858184814453125</LatitudeDegrees>
              <LongitudeDegrees>-6.3207718916237354278564453125</LongitudeDegrees>
            </Position>
            <AltitudeMeters>235</AltitudeMeters>
            <DistanceMeters>NAN</DistanceMeters>
          </Trackpoint>
          <Trackpoint>
            <Time>2019-10-09T09:29:19.000Z</Time>
            <Position>
              <LatitudeDegrees>39.05611761845648288726806640625</LatitudeDegrees>
              <LongitudeDegrees>-6.3210216723382472991943359375</LongitudeDegrees>
            </Position>
            <AltitudeMeters>235.8000030517578125</AltitudeMeters>
            <DistanceMeters>NAN</DistanceMeters>
          </Trackpoint>
          <Trackpoint>
            <Time>2019-10-09T09:29:22.000Z</Time>
            <Position>
              <LatitudeDegrees>39.05598820187151432037353515625</LatitudeDegrees>
              <LongitudeDegrees>-6.32119224406778812408447265625</LongitudeDegrees>
            </Position>
            <AltitudeMeters>235.600006103515625</AltitudeMeters>
            <DistanceMeters>NAN</DistanceMeters>
          </Trackpoint>
          <Trackpoint>
            <Time>2019-10-09T09:29:26.000Z</Time>
            <Position>
              <LatitudeDegrees>39.05579692684113979339599609375</LatitudeDegrees>
              <LongitudeDegrees>-6.32138393819332122802734375</LongitudeDegrees>
            </Position>
            <AltitudeMeters>235</AltitudeMeters>
            <DistanceMeters>NAN</DistanceMeters>
          </Trackpoint>
          <Trackpoint>
            <Time>2019-10-09T09:29:28.000Z</Time>
            <Position>
              <LatitudeDegrees>39.0556924045085906982421875</LatitudeDegrees>
              <LongitudeDegrees>-6.32146306335926055908203125</LongitudeDegrees>
            </Position>
            <AltitudeMeters>235.1999969482421875</AltitudeMeters>
            <DistanceMeters>NAN</DistanceMeters>
          </Trackpoint>
          <Trackpoint>
            <Time>2019-10-09T09:29:35.000Z</Time>
            <Position>
              <LatitudeDegrees>39.055289737880229949951171875</LatitudeDegrees>
              <LongitudeDegrees>-6.32167160511016845703125</LongitudeDegrees>
            </Position>
            <AltitudeMeters>235.399993896484375</AltitudeMeters>
            <DistanceMeters>NAN</DistanceMeters>
          </Trackpoint>
          <Trackpoint>
            <Time>2019-10-09T09:29:42.000Z</Time>
            <Position>
              <LatitudeDegrees>39.05486234463751316070556640625</LatitudeDegrees>
              <LongitudeDegrees>-6.321731619536876678466796875</LongitudeDegrees>
            </Position>
            <AltitudeMeters>235</AltitudeMeters>
            <DistanceMeters>NAN</DistanceMeters>
          </Trackpoint>
          <Trackpoint>
            <Time>2019-10-09T09:29:49.000Z</Time>
            <Position>
              <LatitudeDegrees>39.05443646013736724853515625</LatitudeDegrees>
              <LongitudeDegrees>-6.32164905779063701629638671875</LongitudeDegrees>
            </Position>
            <AltitudeMeters>235.399993896484375</AltitudeMeters>
            <DistanceMeters>NAN</DistanceMeters>
          </Trackpoint>
          <Trackpoint>
            <Time>2019-10-09T09:29:52.000Z</Time>
            <Position>
              <LatitudeDegrees>39.05425867997109889984130859375</LatitudeDegrees>
              <LongitudeDegrees>-6.3215782307088375091552734375</LongitudeDegrees>
            </Position>
            <AltitudeMeters>234.600006103515625</AltitudeMeters>
            <DistanceMeters>NAN</DistanceMeters>
          </Trackpoint>
          <Trackpoint>
            <Time>2019-10-09T09:29:59.000Z</Time>
            <Position>
              <LatitudeDegrees>39.05383941717445850372314453125</LatitudeDegrees>
              <LongitudeDegrees>-6.32140262983739376068115234375</LongitudeDegrees>
            </Position>
            <AltitudeMeters>235.399993896484375</AltitudeMeters>
            <DistanceMeters>NAN</DistanceMeters>
          </Trackpoint>
          <Trackpoint>
            <Time>2019-10-09T09:30:07.000Z</Time>
            <Position>
              <LatitudeDegrees>39.05335946939885616302490234375</LatitudeDegrees>
              <LongitudeDegrees>-6.32119894959032535552978515625</LongitudeDegrees>
            </Position>
            <AltitudeMeters>235.1999969482421875</AltitudeMeters>
            <DistanceMeters>NAN</DistanceMeters>
          </Trackpoint>
          <Trackpoint>
            <Time>2019-10-09T09:30:15.000Z</Time>
            <Position>
              <LatitudeDegrees>39.052883125841617584228515625</LatitudeDegrees>
              <LongitudeDegrees>-6.3209975324571132659912109375</LongitudeDegrees>
            </Position>
            <AltitudeMeters>234.8000030517578125</AltitudeMeters>
            <DistanceMeters>NAN</DistanceMeters>
          </Trackpoint>
          <Trackpoint>
            <Time>2019-10-09T09:30:21.000Z</Time>
            <Position>
              <LatitudeDegrees>39.0525113046169281005859375</LatitudeDegrees>
              <LongitudeDegrees>-6.32087230682373046875</LongitudeDegrees>
            </Position>
            <AltitudeMeters>234.600006103515625</AltitudeMeters>
            <DistanceMeters>NAN</DistanceMeters>
          </Trackpoint>
          <Trackpoint>
            <Time>2019-10-09T09:30:24.000Z</Time>
            <Position>
              <LatitudeDegrees>39.05232044868171215057373046875</LatitudeDegrees>
              <LongitudeDegrees>-6.3208342529833316802978515625</LongitudeDegrees>
            </Position>
            <AltitudeMeters>234.399993896484375</AltitudeMeters>
            <DistanceMeters>NAN</DistanceMeters>
          </Trackpoint>
          <Trackpoint>
            <Time>2019-10-09T09:30:30.000Z</Time>
            <Position>
              <LatitudeDegrees>39.05192716978490352630615234375</LatitudeDegrees>
              <LongitudeDegrees>-6.32083584554493427276611328125</LongitudeDegrees>
            </Position>
            <AltitudeMeters>234.1999969482421875</AltitudeMeters>
            <DistanceMeters>NAN</DistanceMeters>
          </Trackpoint>
          <Trackpoint>
            <Time>2019-10-09T09:30:36.000Z</Time>
            <Position>
              <LatitudeDegrees>39.051563479006290435791015625</LatitudeDegrees>
              <LongitudeDegrees>-6.32094011642038822174072265625</LongitudeDegrees>
            </Position>
            <AltitudeMeters>234.1999969482421875</AltitudeMeters>
            <DistanceMeters>NAN</DistanceMeters>
          </Trackpoint>
          <Trackpoint>
            <Time>2019-10-09T09:30:43.000Z</Time>
            <Position>
              <LatitudeDegrees>39.05118050985038280487060546875</LatitudeDegrees>
              <LongitudeDegrees>-6.32118771784007549285888671875</LongitudeDegrees>
            </Position>
            <AltitudeMeters>233.8000030517578125</AltitudeMeters>
            <DistanceMeters>NAN</DistanceMeters>
          </Trackpoint>
          <Trackpoint>
            <Time>2019-10-09T09:30:45.000Z</Time>
            <Position>
              <LatitudeDegrees>39.051080681383609771728515625</LatitudeDegrees>
              <LongitudeDegrees>-6.32128478027880191802978515625</LongitudeDegrees>
            </Position>
            <AltitudeMeters>233.399993896484375</AltitudeMeters>
            <DistanceMeters>NAN</DistanceMeters>
          </Trackpoint>
          <Trackpoint>
            <Time>2019-10-09T09:30:49.000Z</Time>
            <Position>
              <LatitudeDegrees>39.0508964471518993377685546875</LatitudeDegrees>
              <LongitudeDegrees>-6.32149734534323215484619140625</LongitudeDegrees>
            </Position>
            <AltitudeMeters>233.8000030517578125</AltitudeMeters>
            <DistanceMeters>NAN</DistanceMeters>
          </Trackpoint>
          <Trackpoint>
            <Time>2019-10-09T09:30:56.000Z</Time>
            <Position>
              <LatitudeDegrees>39.0506319142878055572509765625</LatitudeDegrees>
              <LongitudeDegrees>-6.3218741118907928466796875</LongitudeDegrees>
            </Position>
            <AltitudeMeters>234.600006103515625</AltitudeMeters>
            <DistanceMeters>NAN</DistanceMeters>
          </Trackpoint>
          <Trackpoint>
            <Time>2019-10-09T09:31:00.000Z</Time>
            <Position>
              <LatitudeDegrees>39.050493277609348297119140625</LatitudeDegrees>
              <LongitudeDegrees>-6.322090364992618560791015625</LongitudeDegrees>
            </Position>
            <AltitudeMeters>235.8000030517578125</AltitudeMeters>
            <DistanceMeters>NAN</DistanceMeters>
          </Trackpoint>
          <Trackpoint>
            <Time>2019-10-09T09:31:04.000Z</Time>
            <Position>
              <LatitudeDegrees>39.0503553114831447601318359375</LatitudeDegrees>
              <LongitudeDegrees>-6.32230586372315883636474609375</LongitudeDegrees>
            </Position>
            <AltitudeMeters>235.600006103515625</AltitudeMeters>
            <DistanceMeters>NAN</DistanceMeters>
          </Trackpoint>
          <Trackpoint>
            <Time>2019-10-09T09:31:12.000Z</Time>
            <Position>
              <LatitudeDegrees>39.05008398927748203277587890625</LatitudeDegrees>
              <LongitudeDegrees>-6.3227121345698833465576171875</LongitudeDegrees>
            </Position>
            <AltitudeMeters>236.399993896484375</AltitudeMeters>
            <DistanceMeters>NAN</DistanceMeters>
          </Trackpoint>
          <Trackpoint>
            <Time>2019-10-09T09:31:15.000Z</Time>
            <Position>
              <LatitudeDegrees>39.04998022131621837615966796875</LatitudeDegrees>
              <LongitudeDegrees>-6.32286543957889080047607421875</LongitudeDegrees>
            </Position>
            <AltitudeMeters>236.8000030517578125</AltitudeMeters>
            <DistanceMeters>NAN</DistanceMeters>
          </Trackpoint>
          <Trackpoint>
            <Time>2019-10-09T09:31:22.000Z</Time>
            <Position>
              <LatitudeDegrees>39.049744941294193267822265625</LatitudeDegrees>
              <LongitudeDegrees>-6.32321999408304691314697265625</LongitudeDegrees>
            </Position>
            <AltitudeMeters>237.1999969482421875</AltitudeMeters>
            <DistanceMeters>NAN</DistanceMeters>
          </Trackpoint>
          <Trackpoint>
            <Time>2019-10-09T09:31:26.000Z</Time>
            <Position>
              <LatitudeDegrees>39.04961116611957550048828125</LatitudeDegrees>
              <LongitudeDegrees>-6.3234190642833709716796875</LongitudeDegrees>
            </Position>
            <AltitudeMeters>238</AltitudeMeters>
            <DistanceMeters>NAN</DistanceMeters>
          </Trackpoint>
          <Trackpoint>
            <Time>2019-10-09T09:31:31.000Z</Time>
            <Position>
              <LatitudeDegrees>39.04945065267384052276611328125</LatitudeDegrees>
              <LongitudeDegrees>-6.32365568540990352630615234375</LongitudeDegrees>
            </Position>
            <AltitudeMeters>238.1999969482421875</AltitudeMeters>
            <DistanceMeters>NAN</DistanceMeters>
          </Trackpoint>
          <Trackpoint>
            <Time>2019-10-09T09:31:38.000Z</Time>
            <Position>
              <LatitudeDegrees>39.049233309924602508544921875</LatitudeDegrees>
              <LongitudeDegrees>-6.32399364374577999114990234375</LongitudeDegrees>
            </Position>
            <AltitudeMeters>238.600006103515625</AltitudeMeters>
            <DistanceMeters>NAN</DistanceMeters>
          </Trackpoint>
          <Trackpoint>
            <Time>2019-10-09T09:31:41.000Z</Time>
            <Position>
              <LatitudeDegrees>39.0491339005529880523681640625</LatitudeDegrees>
              <LongitudeDegrees>-6.32413865067064762115478515625</LongitudeDegrees>
            </Position>
            <AltitudeMeters>239</AltitudeMeters>
            <DistanceMeters>NAN</DistanceMeters>
          </Trackpoint>
          <Trackpoint>
            <Time>2019-10-09T09:31:46.000Z</Time>
            <Position>
              <LatitudeDegrees>39.04897087253630161285400390625</LatitudeDegrees>
              <LongitudeDegrees>-6.32439203560352325439453125</LongitudeDegrees>
            </Position>
            <AltitudeMeters>239.1999969482421875</AltitudeMeters>
            <DistanceMeters>NAN</DistanceMeters>
          </Trackpoint>
          <Trackpoint>
            <Time>2019-10-09T09:31:56.000Z</Time>
            <Position>
              <LatitudeDegrees>39.04865118674933910369873046875</LatitudeDegrees>
              <LongitudeDegrees>-6.32486938498914241790771484375</LongitudeDegrees>
            </Position>
            <AltitudeMeters>239.8000030517578125</AltitudeMeters>
            <DistanceMeters>NAN</DistanceMeters>
          </Trackpoint>
          <Trackpoint>
            <Time>2019-10-09T09:32:00.000Z</Time>
            <Position>
              <LatitudeDegrees>39.048527888953685760498046875</LatitudeDegrees>
              <LongitudeDegrees>-6.3250493444502353668212890625</LongitudeDegrees>
            </Position>
            <AltitudeMeters>240.1999969482421875</AltitudeMeters>
            <DistanceMeters>NAN</DistanceMeters>
          </Trackpoint>
          <Trackpoint>
            <Time>2019-10-09T09:32:04.000Z</Time>
            <Position>
              <LatitudeDegrees>39.048409201204776763916015625</LatitudeDegrees>
              <LongitudeDegrees>-6.3252253644168376922607421875</LongitudeDegrees>
            </Position>
            <AltitudeMeters>240.600006103515625</AltitudeMeters>
            <DistanceMeters>NAN</DistanceMeters>
          </Trackpoint>
          <Trackpoint>
            <Time>2019-10-09T09:32:07.000Z</Time>
            <Position>
              <LatitudeDegrees>39.04831993393599987030029296875</LatitudeDegrees>
              <LongitudeDegrees>-6.3253567926585674285888671875</LongitudeDegrees>
            </Position>
            <AltitudeMeters>241.399993896484375</AltitudeMeters>
            <DistanceMeters>NAN</DistanceMeters>
          </Trackpoint>
          <Trackpoint>
            <Time>2019-10-09T09:32:14.000Z</Time>
            <Position>
              <LatitudeDegrees>39.0480901859700679779052734375</LatitudeDegrees>
              <LongitudeDegrees>-6.32565493695437908172607421875</LongitudeDegrees>
            </Position>
            <AltitudeMeters>241.1999969482421875</AltitudeMeters>
            <DistanceMeters>NAN</DistanceMeters>
          </Trackpoint>
          <Trackpoint>
            <Time>2019-10-09T09:32:25.000Z</Time>
            <Position>
              <LatitudeDegrees>39.0477059595286846160888671875</LatitudeDegrees>
              <LongitudeDegrees>-6.32607721723616123199462890625</LongitudeDegrees>
            </Position>
            <AltitudeMeters>241.399993896484375</AltitudeMeters>
            <DistanceMeters>NAN</DistanceMeters>
          </Trackpoint>
          <Trackpoint>
            <Time>2019-10-09T09:32:31.000Z</Time>
            <Position>
              <LatitudeDegrees>39.04748794622719287872314453125</LatitudeDegrees>
              <LongitudeDegrees>-6.32628609426319599151611328125</LongitudeDegrees>
            </Position>
            <AltitudeMeters>241.600006103515625</AltitudeMeters>
            <DistanceMeters>NAN</DistanceMeters>
          </Trackpoint>
          <Trackpoint>
            <Time>2019-10-09T09:32:33.000Z</Time>
            <Position>
              <LatitudeDegrees>39.0474124252796173095703125</LatitudeDegrees>
              <LongitudeDegrees>-6.326351054012775421142578125</LongitudeDegrees>
            </Position>
            <AltitudeMeters>242</AltitudeMeters>
            <DistanceMeters>NAN</DistanceMeters>
          </Trackpoint>
          <Trackpoint>
            <Time>2019-10-09T09:32:41.000Z</Time>
            <Position>
              <LatitudeDegrees>39.0470997802913188934326171875</LatitudeDegrees>
              <LongitudeDegrees>-6.32658264599740505218505859375</LongitudeDegrees>
            </Position>
            <AltitudeMeters>242.1999969482421875</AltitudeMeters>
            <DistanceMeters>NAN</DistanceMeters>
          </Trackpoint>
          <Trackpoint>
            <Time>2019-10-09T09:32:42.000Z</Time>
            <Position>
              <LatitudeDegrees>39.0470608882606029510498046875</LatitudeDegrees>
              <LongitudeDegrees>-6.326609887182712554931640625</LongitudeDegrees>
            </Position>
            <AltitudeMeters>242.399993896484375</AltitudeMeters>
            <DistanceMeters>NAN</DistanceMeters>
          </Trackpoint>
          <Trackpoint>
            <Time>2019-10-09T09:32:50.000Z</Time>
            <Position>
              <LatitudeDegrees>39.0467075072228908538818359375</LatitudeDegrees>
              <LongitudeDegrees>-6.32682940922677516937255859375</LongitudeDegrees>
            </Position>
            <AltitudeMeters>241.399993896484375</AltitudeMeters>
            <DistanceMeters>NAN</DistanceMeters>
          </Trackpoint>
          <Trackpoint>
            <Time>2019-10-09T09:32:58.000Z</Time>
            <Position>
              <LatitudeDegrees>39.04629084281623363494873046875</LatitudeDegrees>
              <LongitudeDegrees>-6.32709528319537639617919921875</LongitudeDegrees>
            </Position>
            <AltitudeMeters>240.1999969482421875</AltitudeMeters>
            <DistanceMeters>NAN</DistanceMeters>
          </Trackpoint>
          <Trackpoint>
            <Time>2019-10-09T09:33:04.000Z</Time>
            <Position>
              <LatitudeDegrees>39.0459722466766834259033203125</LatitudeDegrees>
              <LongitudeDegrees>-6.32730768062174320220947265625</LongitudeDegrees>
            </Position>
            <AltitudeMeters>240</AltitudeMeters>
            <DistanceMeters>NAN</DistanceMeters>
          </Trackpoint>
          <Trackpoint>
            <Time>2019-10-09T09:33:06.000Z</Time>
            <Position>
              <LatitudeDegrees>39.045866467058658599853515625</LatitudeDegrees>
              <LongitudeDegrees>-6.3273808546364307403564453125</LongitudeDegrees>
            </Position>
            <AltitudeMeters>240</AltitudeMeters>
            <DistanceMeters>NAN</DistanceMeters>
          </Trackpoint>
          <Trackpoint>
            <Time>2019-10-09T09:33:08.000Z</Time>
            <Position>
              <LatitudeDegrees>39.045761860907077789306640625</LatitudeDegrees>
              <LongitudeDegrees>-6.327454112470149993896484375</LongitudeDegrees>
            </Position>
            <AltitudeMeters>239.8000030517578125</AltitudeMeters>
            <DistanceMeters>NAN</DistanceMeters>
          </Trackpoint>
          <Trackpoint>
            <Time>2019-10-09T09:33:12.000Z</Time>
            <Position>
              <LatitudeDegrees>39.045562706887722015380859375</LatitudeDegrees>
              <LongitudeDegrees>-6.32759970612823963165283203125</LongitudeDegrees>
            </Position>
            <AltitudeMeters>240</AltitudeMeters>
            <DistanceMeters>NAN</DistanceMeters>
          </Trackpoint>
          <Trackpoint>
            <Time>2019-10-09T09:33:19.000Z</Time>
            <Position>
              <LatitudeDegrees>39.04524142853915691375732421875</LatitudeDegrees>
              <LongitudeDegrees>-6.3278069905936717987060546875</LongitudeDegrees>
            </Position>
            <AltitudeMeters>241.399993896484375</AltitudeMeters>
            <DistanceMeters>NAN</DistanceMeters>
          </Trackpoint>
          <Trackpoint>
            <Time>2019-10-09T09:33:22.000Z</Time>
            <Position>
              <LatitudeDegrees>39.04512106440961360931396484375</LatitudeDegrees>
              <LongitudeDegrees>-6.3278911449015140533447265625</LongitudeDegrees>
            </Position>
            <AltitudeMeters>241.8000030517578125</AltitudeMeters>
            <DistanceMeters>NAN</DistanceMeters>
          </Trackpoint>
          <Trackpoint>
            <Time>2019-10-09T09:33:24.000Z</Time>
            <Position>
              <LatitudeDegrees>39.04504495672881603240966796875</LatitudeDegrees>
              <LongitudeDegrees>-6.3279407657682895660400390625</LongitudeDegrees>
            </Position>
            <AltitudeMeters>242.399993896484375</AltitudeMeters>
            <DistanceMeters>NAN</DistanceMeters>
          </Trackpoint>
          <Trackpoint>
            <Time>2019-10-09T09:33:26.000Z</Time>
            <Position>
              <LatitudeDegrees>39.04497253708541393280029296875</LatitudeDegrees>
              <LongitudeDegrees>-6.3279841840267181396484375</LongitudeDegrees>
            </Position>
            <AltitudeMeters>242.8000030517578125</AltitudeMeters>
            <DistanceMeters>NAN</DistanceMeters>
          </Trackpoint>
          <Trackpoint>
            <Time>2019-10-09T09:33:29.000Z</Time>
            <Position>
              <LatitudeDegrees>39.0448715351521968841552734375</LatitudeDegrees>
              <LongitudeDegrees>-6.3280440308153629302978515625</LongitudeDegrees>
            </Position>
            <AltitudeMeters>243.600006103515625</AltitudeMeters>
            <DistanceMeters>NAN</DistanceMeters>
          </Trackpoint>
          <Trackpoint>
            <Time>2019-10-09T09:33:33.000Z</Time>
            <Position>
              <LatitudeDegrees>39.04474538750946521759033203125</LatitudeDegrees>
              <LongitudeDegrees>-6.32812567055225372314453125</LongitudeDegrees>
            </Position>
            <AltitudeMeters>244.399993896484375</AltitudeMeters>
            <DistanceMeters>NAN</DistanceMeters>
          </Trackpoint>
          <Trackpoint>
            <Time>2019-10-09T09:33:34.000Z</Time>
            <Position>
              <LatitudeDegrees>39.04471504501998424530029296875</LatitudeDegrees>
              <LongitudeDegrees>-6.32814452983438968658447265625</LongitudeDegrees>
            </Position>
            <AltitudeMeters>244.600006103515625</AltitudeMeters>
            <DistanceMeters>NAN</DistanceMeters>
          </Trackpoint>
          <Trackpoint>
            <Time>2019-10-09T09:33:36.000Z</Time>
            <Position>
              <LatitudeDegrees>39.044655449688434600830078125</LatitudeDegrees>
              <LongitudeDegrees>-6.32818199694156646728515625</LongitudeDegrees>
            </Position>
            <AltitudeMeters>244.8000030517578125</AltitudeMeters>
            <DistanceMeters>NAN</DistanceMeters>
          </Trackpoint>
          <Trackpoint>
            <Time>2019-10-09T09:33:41.000Z</Time>
            <Position>
              <LatitudeDegrees>39.04451287351548671722412109375</LatitudeDegrees>
              <LongitudeDegrees>-6.32827964611351490020751953125</LongitudeDegrees>
            </Position>
            <AltitudeMeters>245.399993896484375</AltitudeMeters>
            <DistanceMeters>NAN</DistanceMeters>
          </Trackpoint>
          <Trackpoint>
            <Time>2019-10-09T09:33:42.000Z</Time>
            <Position>
              <LatitudeDegrees>39.0444839559495449066162109375</LatitudeDegrees>
              <LongitudeDegrees>-6.32829708047211170196533203125</LongitudeDegrees>
            </Position>
            <AltitudeMeters>245.600006103515625</AltitudeMeters>
            <DistanceMeters>NAN</DistanceMeters>
          </Trackpoint>
          <Trackpoint>
            <Time>2019-10-09T09:33:45.000Z</Time>
            <Position>
              <LatitudeDegrees>39.04440055601298809051513671875</LatitudeDegrees>
              <LongitudeDegrees>-6.32834569551050662994384765625</LongitudeDegrees>
            </Position>
            <AltitudeMeters>246.1999969482421875</AltitudeMeters>
            <DistanceMeters>NAN</DistanceMeters>
          </Trackpoint>
          <Trackpoint>
            <Time>2019-10-09T09:33:48.000Z</Time>
            <Position>
              <LatitudeDegrees>39.0443163178861141204833984375</LatitudeDegrees>
              <LongitudeDegrees>-6.32839648984372615814208984375</LongitudeDegrees>
            </Position>
            <AltitudeMeters>247</AltitudeMeters>
            <DistanceMeters>NAN</DistanceMeters>
          </Trackpoint>
          <Trackpoint>
            <Time>2019-10-09T09:33:52.000Z</Time>
            <Position>
              <LatitudeDegrees>39.0442043356597423553466796875</LatitudeDegrees>
              <LongitudeDegrees>-6.3284614495933055877685546875</LongitudeDegrees>
            </Position>
            <AltitudeMeters>247.8000030517578125</AltitudeMeters>
            <DistanceMeters>NAN</DistanceMeters>
          </Trackpoint>
          <Trackpoint>
            <Time>2019-10-09T09:33:55.000Z</Time>
            <Position>
              <LatitudeDegrees>39.0441221930086612701416015625</LatitudeDegrees>
              <LongitudeDegrees>-6.32851014845073223114013671875</LongitudeDegrees>
            </Position>
            <AltitudeMeters>248.1999969482421875</AltitudeMeters>
            <DistanceMeters>NAN</DistanceMeters>
          </Trackpoint>
          <Trackpoint>
            <Time>2019-10-09T09:33:59.000Z</Time>
            <Position>
              <LatitudeDegrees>39.04400828294456005096435546875</LatitudeDegrees>
              <LongitudeDegrees>-6.32857703603804111480712890625</LongitudeDegrees>
            </Position>
            <AltitudeMeters>249.1999969482421875</AltitudeMeters>
            <DistanceMeters>NAN</DistanceMeters>
          </Trackpoint>
          <Trackpoint>
            <Time>2019-10-09T09:34:02.000Z</Time>
            <Position>
              <LatitudeDegrees>39.04392111115157604217529296875</LatitudeDegrees>
              <LongitudeDegrees>-6.3286180235445499420166015625</LongitudeDegrees>
            </Position>
            <AltitudeMeters>249.399993896484375</AltitudeMeters>
            <DistanceMeters>NAN</DistanceMeters>
          </Trackpoint>
          <Trackpoint>
            <Time>2019-10-09T09:34:07.000Z</Time>
            <Position>
              <LatitudeDegrees>39.0437726676464080810546875</LatitudeDegrees>
              <LongitudeDegrees>-6.32867996580898761749267578125</LongitudeDegrees>
            </Position>
            <AltitudeMeters>250</AltitudeMeters>
            <DistanceMeters>NAN</DistanceMeters>
          </Trackpoint>
          <Trackpoint>
            <Time>2019-10-09T09:34:08.000Z</Time>
            <Position>
              <LatitudeDegrees>39.04374115169048309326171875</LatitudeDegrees>
              <LongitudeDegrees>-6.3286914490163326263427734375</LongitudeDegrees>
            </Position>
            <AltitudeMeters>250.600006103515625</AltitudeMeters>
            <DistanceMeters>NAN</DistanceMeters>
          </Trackpoint>
          <Trackpoint>
            <Time>2019-10-09T09:34:11.000Z</Time>
            <Position>
              <LatitudeDegrees>39.04364484362304210662841796875</LatitudeDegrees>
              <LongitudeDegrees>-6.32872791029512882232666015625</LongitudeDegrees>
            </Position>
            <AltitudeMeters>251</AltitudeMeters>
            <DistanceMeters>NAN</DistanceMeters>
          </Trackpoint>
          <Trackpoint>
            <Time>2019-10-09T09:34:14.000Z</Time>
            <Position>
              <LatitudeDegrees>39.0435515530407428741455078125</LatitudeDegrees>
              <LongitudeDegrees>-6.328759677708148956298828125</LongitudeDegrees>
            </Position>
            <AltitudeMeters>251.600006103515625</AltitudeMeters>
            <DistanceMeters>NAN</DistanceMeters>
          </Trackpoint>
          <Trackpoint>
            <Time>2019-10-09T09:34:18.000Z</Time>
            <Position>
              <LatitudeDegrees>39.04342641122639179229736328125</LatitudeDegrees>
              <LongitudeDegrees>-6.32880561053752899169921875</LongitudeDegrees>
            </Position>
            <AltitudeMeters>252.600006103515625</AltitudeMeters>
            <DistanceMeters>NAN</DistanceMeters>
          </Trackpoint>
          <Trackpoint>
            <Time>2019-10-09T09:34:26.000Z</Time>
            <Position>
              <LatitudeDegrees>39.04320797882974147796630859375</LatitudeDegrees>
              <LongitudeDegrees>-6.3288644514977931976318359375</LongitudeDegrees>
            </Position>
            <AltitudeMeters>253.8000030517578125</AltitudeMeters>
            <DistanceMeters>NAN</DistanceMeters>
          </Trackpoint>
          <Trackpoint>
            <Time>2019-10-09T09:34:34.000Z</Time>
            <Position>
              <LatitudeDegrees>39.04300061054527759552001953125</LatitudeDegrees>
              <LongitudeDegrees>-6.32891516201198101043701171875</LongitudeDegrees>
            </Position>
            <AltitudeMeters>254.8000030517578125</AltitudeMeters>
            <DistanceMeters>NAN</DistanceMeters>
          </Trackpoint>
          <Trackpoint>
            <Time>2019-10-09T09:34:35.000Z</Time>
            <Position>
              <LatitudeDegrees>39.04297135770320892333984375</LatitudeDegrees>
              <LongitudeDegrees>-6.3289217837154865264892578125</LongitudeDegrees>
            </Position>
            <AltitudeMeters>255</AltitudeMeters>
            <DistanceMeters>NAN</DistanceMeters>
          </Trackpoint>
          <Trackpoint>
            <Time>2019-10-09T09:34:41.000Z</Time>
            <Position>
              <LatitudeDegrees>39.04281176626682281494140625</LatitudeDegrees>
              <LongitudeDegrees>-6.32894902490079402923583984375</LongitudeDegrees>
            </Position>
            <AltitudeMeters>256</AltitudeMeters>
            <DistanceMeters>NAN</DistanceMeters>
          </Trackpoint>
          <Trackpoint>
            <Time>2019-10-09T09:34:45.000Z</Time>
            <Position>
              <LatitudeDegrees>39.04270590282976627349853515625</LatitudeDegrees>
              <LongitudeDegrees>-6.3289673812687397003173828125</LongitudeDegrees>
            </Position>
            <AltitudeMeters>256.20001220703125</AltitudeMeters>
            <DistanceMeters>NAN</DistanceMeters>
          </Trackpoint>
          <Trackpoint>
            <Time>2019-10-09T09:34:52.000Z</Time>
            <Position>
              <LatitudeDegrees>39.042522422969341278076171875</LatitudeDegrees>
              <LongitudeDegrees>-6.32899747230112552642822265625</LongitudeDegrees>
            </Position>
            <AltitudeMeters>257.399993896484375</AltitudeMeters>
            <DistanceMeters>NAN</DistanceMeters>
          </Trackpoint>
          <Trackpoint>
            <Time>2019-10-09T09:34:55.000Z</Time>
            <Position>
              <LatitudeDegrees>39.04244455508887767791748046875</LatitudeDegrees>
              <LongitudeDegrees>-6.32900484837591648101806640625</LongitudeDegrees>
            </Position>
            <AltitudeMeters>258</AltitudeMeters>
            <DistanceMeters>NAN</DistanceMeters>
          </Trackpoint>
          <Trackpoint>
            <Time>2019-10-09T09:35:00.000Z</Time>
            <Position>
              <LatitudeDegrees>39.042313881218433380126953125</LatitudeDegrees>
              <LongitudeDegrees>-6.32901155389845371246337890625</LongitudeDegrees>
            </Position>
            <AltitudeMeters>258.600006103515625</AltitudeMeters>
            <DistanceMeters>NAN</DistanceMeters>
          </Trackpoint>
          <Trackpoint>
            <Time>2019-10-09T09:35:05.000Z</Time>
            <Position>
              <LatitudeDegrees>39.04218270443379878997802734375</LatitudeDegrees>
              <LongitudeDegrees>-6.32900945842266082763671875</LongitudeDegrees>
            </Position>
            <AltitudeMeters>259.600006103515625</AltitudeMeters>
            <DistanceMeters>NAN</DistanceMeters>
          </Trackpoint>
          <Trackpoint>
            <Time>2019-10-09T09:35:06.000Z</Time>
            <Position>
              <LatitudeDegrees>39.0421581454575061798095703125</LatitudeDegrees>
              <LongitudeDegrees>-6.32900501601397991180419921875</LongitudeDegrees>
            </Position>
            <AltitudeMeters>260</AltitudeMeters>
            <DistanceMeters>NAN</DistanceMeters>
          </Trackpoint>
          <Trackpoint>
            <Time>2019-10-09T09:35:12.000Z</Time>
            <Position>
              <LatitudeDegrees>39.0420079417526721954345703125</LatitudeDegrees>
              <LongitudeDegrees>-6.3289999030530452728271484375</LongitudeDegrees>
            </Position>
            <AltitudeMeters>261</AltitudeMeters>
            <DistanceMeters>NAN</DistanceMeters>
          </Trackpoint>
          <Trackpoint>
            <Time>2019-10-09T09:35:13.000Z</Time>
            <Position>
              <LatitudeDegrees>39.04198254458606243133544921875</LatitudeDegrees>
              <LongitudeDegrees>-6.32899965159595012664794921875</LongitudeDegrees>
            </Position>
            <AltitudeMeters>261.20001220703125</AltitudeMeters>
            <DistanceMeters>NAN</DistanceMeters>
          </Trackpoint>
          <Trackpoint>
            <Time>2019-10-09T09:35:17.000Z</Time>
            <Position>
              <LatitudeDegrees>39.04188238084316253662109375</LatitudeDegrees>
              <LongitudeDegrees>-6.32902278564870357513427734375</LongitudeDegrees>
            </Position>
            <AltitudeMeters>262.20001220703125</AltitudeMeters>
            <DistanceMeters>NAN</DistanceMeters>
          </Trackpoint>
          <Trackpoint>
            <Time>2019-10-09T09:35:20.000Z</Time>
            <Position>
              <LatitudeDegrees>39.0418225340545177459716796875</LatitudeDegrees>
              <LongitudeDegrees>-6.3290827162563800811767578125</LongitudeDegrees>
            </Position>
            <AltitudeMeters>263</AltitudeMeters>
            <DistanceMeters>NAN</DistanceMeters>
          </Trackpoint>
          <Trackpoint>
            <Time>2019-10-09T09:35:25.000Z</Time>
            <Position>
              <LatitudeDegrees>39.0417712368071079254150390625</LatitudeDegrees>
              <LongitudeDegrees>-6.32925932295620441436767578125</LongitudeDegrees>
            </Position>
            <AltitudeMeters>262.600006103515625</AltitudeMeters>
            <DistanceMeters>NAN</DistanceMeters>
          </Trackpoint>
          <Trackpoint>
            <Time>2019-10-09T09:35:31.000Z</Time>
            <Position>
              <LatitudeDegrees>39.04163972474634647369384765625</LatitudeDegrees>
              <LongitudeDegrees>-6.32943048141896724700927734375</LongitudeDegrees>
            </Position>
            <AltitudeMeters>263.399993896484375</AltitudeMeters>
            <DistanceMeters>NAN</DistanceMeters>
          </Trackpoint>
          <Trackpoint>
            <Time>2019-10-09T09:35:36.000Z</Time>
            <Position>
              <LatitudeDegrees>39.0414916165173053741455078125</LatitudeDegrees>
              <LongitudeDegrees>-6.32945897988975048065185546875</LongitudeDegrees>
            </Position>
            <AltitudeMeters>264.399993896484375</AltitudeMeters>
            <DistanceMeters>NAN</DistanceMeters>
          </Trackpoint>
          <Trackpoint>
            <Time>2019-10-09T09:35:42.000Z</Time>
            <Position>
              <LatitudeDegrees>39.041340909898281097412109375</LatitudeDegrees>
              <LongitudeDegrees>-6.3293314911425113677978515625</LongitudeDegrees>
            </Position>
            <AltitudeMeters>265.600006103515625</AltitudeMeters>
            <DistanceMeters>NAN</DistanceMeters>
          </Trackpoint>
          <Trackpoint>
            <Time>2019-10-09T09:35:47.000Z</Time>
            <Position>
              <LatitudeDegrees>39.04128315858542919158935546875</LatitudeDegrees>
              <LongitudeDegrees>-6.3291256316006183624267578125</LongitudeDegrees>
            </Position>
            <AltitudeMeters>266</AltitudeMeters>
            <DistanceMeters>NAN</DistanceMeters>
          </Trackpoint>
          <Trackpoint>
            <Time>2019-10-09T09:35:49.000Z</Time>
            <Position>
              <LatitudeDegrees>39.041271843016147613525390625</LatitudeDegrees>
              <LongitudeDegrees>-6.3290334306657314300537109375</LongitudeDegrees>
            </Position>
            <AltitudeMeters>265.79998779296875</AltitudeMeters>
            <DistanceMeters>NAN</DistanceMeters>
          </Trackpoint>
          <Trackpoint>
            <Time>2019-10-09T09:35:51.000Z</Time>
            <Position>
              <LatitudeDegrees>39.04123521409928798675537109375</LatitudeDegrees>
              <LongitudeDegrees>-6.32894349284470081329345703125</LongitudeDegrees>
            </Position>
            <AltitudeMeters>265.79998779296875</AltitudeMeters>
            <DistanceMeters>NAN</DistanceMeters>
          </Trackpoint>
          <Trackpoint>
            <Time>2019-10-09T09:35:52.000Z</Time>
            <Position>
              <LatitudeDegrees>39.0412062965333461761474609375</LatitudeDegrees>
              <LongitudeDegrees>-6.32890242151916027069091796875</LongitudeDegrees>
            </Position>
            <AltitudeMeters>265.79998779296875</AltitudeMeters>
            <DistanceMeters>NAN</DistanceMeters>
          </Trackpoint>
          <Trackpoint>
            <Time>2019-10-09T09:35:56.000Z</Time>
            <Position>
              <LatitudeDegrees>39.041051566600799560546875</LatitudeDegrees>
              <LongitudeDegrees>-6.32878825999796390533447265625</LongitudeDegrees>
            </Position>
            <AltitudeMeters>265.20001220703125</AltitudeMeters>
            <DistanceMeters>NAN</DistanceMeters>
          </Trackpoint>
          <Trackpoint>
            <Time>2019-10-09T09:35:57.000Z</Time>
            <Position>
              <LatitudeDegrees>39.041010998189449310302734375</LatitudeDegrees>
              <LongitudeDegrees>-6.32877074182033538818359375</LongitudeDegrees>
            </Position>
            <AltitudeMeters>265.399993896484375</AltitudeMeters>
            <DistanceMeters>NAN</DistanceMeters>
          </Trackpoint>
          <Trackpoint>
            <Time>2019-10-09T09:35:59.000Z</Time>
            <Position>
              <LatitudeDegrees>39.040932543575763702392578125</LatitudeDegrees>
              <LongitudeDegrees>-6.32874190807342529296875</LongitudeDegrees>
            </Position>
            <AltitudeMeters>265.79998779296875</AltitudeMeters>
            <DistanceMeters>NAN</DistanceMeters>
          </Trackpoint>
          <Trackpoint>
            <Time>2019-10-09T09:36:01.000Z</Time>
            <Position>
              <LatitudeDegrees>39.040861465036869049072265625</LatitudeDegrees>
              <LongitudeDegrees>-6.3287137448787689208984375</LongitudeDegrees>
            </Position>
            <AltitudeMeters>266.20001220703125</AltitudeMeters>
            <DistanceMeters>NAN</DistanceMeters>
          </Trackpoint>
          <Trackpoint>
            <Time>2019-10-09T09:36:03.000Z</Time>
            <Position>
              <LatitudeDegrees>39.0407932363450527191162109375</LatitudeDegrees>
              <LongitudeDegrees>-6.328685246407985687255859375</LongitudeDegrees>
            </Position>
            <AltitudeMeters>266.600006103515625</AltitudeMeters>
            <DistanceMeters>NAN</DistanceMeters>
          </Trackpoint>
          <Trackpoint>
            <Time>2019-10-09T09:36:08.000Z</Time>
            <Position>
              <LatitudeDegrees>39.04063045978546142578125</LatitudeDegrees>
              <LongitudeDegrees>-6.32861106656491756439208984375</LongitudeDegrees>
            </Position>
            <AltitudeMeters>267.600006103515625</AltitudeMeters>
            <DistanceMeters>NAN</DistanceMeters>
          </Trackpoint>
          <Trackpoint>
            <Time>2019-10-09T09:36:12.000Z</Time>
            <Position>
              <LatitudeDegrees>39.0405055694282054901123046875</LatitudeDegrees>
              <LongitudeDegrees>-6.32855490781366825103759765625</LongitudeDegrees>
            </Position>
            <AltitudeMeters>268.399993896484375</AltitudeMeters>
            <DistanceMeters>NAN</DistanceMeters>
          </Trackpoint>
          <Trackpoint>
            <Time>2019-10-09T09:36:15.000Z</Time>
            <Position>
              <LatitudeDegrees>39.04041194356977939605712890625</LatitudeDegrees>
              <LongitudeDegrees>-6.3285070471465587615966796875</LongitudeDegrees>
            </Position>
            <AltitudeMeters>268.600006103515625</AltitudeMeters>
            <DistanceMeters>NAN</DistanceMeters>
          </Trackpoint>
          <Trackpoint>
            <Time>2019-10-09T09:36:17.000Z</Time>
            <Position>
              <LatitudeDegrees>39.04034949839115142822265625</LatitudeDegrees>
              <LongitudeDegrees>-6.3284762017428874969482421875</LongitudeDegrees>
            </Position>
            <AltitudeMeters>268.79998779296875</AltitudeMeters>
            <DistanceMeters>NAN</DistanceMeters>
          </Trackpoint>
          <Trackpoint>
            <Time>2019-10-09T09:36:22.000Z</Time>
            <Position>
              <LatitudeDegrees>39.04019099660217761993408203125</LatitudeDegrees>
              <LongitudeDegrees>-6.32840369828045368194580078125</LongitudeDegrees>
            </Position>
            <AltitudeMeters>269.600006103515625</AltitudeMeters>
            <DistanceMeters>NAN</DistanceMeters>
          </Trackpoint>
          <Trackpoint>
            <Time>2019-10-09T09:36:24.000Z</Time>
            <Position>
              <LatitudeDegrees>39.040126539766788482666015625</LatitudeDegrees>
              <LongitudeDegrees>-6.32837754674255847930908203125</LongitudeDegrees>
            </Position>
            <AltitudeMeters>269.79998779296875</AltitudeMeters>
            <DistanceMeters>NAN</DistanceMeters>
          </Trackpoint>
          <Trackpoint>
            <Time>2019-10-09T09:36:32.000Z</Time>
            <Position>
              <LatitudeDegrees>39.03986611403524875640869140625</LatitudeDegrees>
              <LongitudeDegrees>-6.32825483568012714385986328125</LongitudeDegrees>
            </Position>
            <AltitudeMeters>270.79998779296875</AltitudeMeters>
            <DistanceMeters>NAN</DistanceMeters>
          </Trackpoint>
          <Trackpoint>
            <Time>2019-10-09T09:36:33.000Z</Time>
            <Position>
              <LatitudeDegrees>39.03983342461287975311279296875</LatitudeDegrees>
              <LongitudeDegrees>-6.32823991589248180389404296875</LongitudeDegrees>
            </Position>
            <AltitudeMeters>270.79998779296875</AltitudeMeters>
            <DistanceMeters>NAN</DistanceMeters>
          </Trackpoint>
          <Trackpoint>
            <Time>2019-10-09T09:36:40.000Z</Time>
            <Position>
              <LatitudeDegrees>39.03959713876247406005859375</LatitudeDegrees>
              <LongitudeDegrees>-6.32813371717929840087890625</LongitudeDegrees>
            </Position>
            <AltitudeMeters>271</AltitudeMeters>
            <DistanceMeters>NAN</DistanceMeters>
          </Trackpoint>
          <Trackpoint>
            <Time>2019-10-09T09:36:46.000Z</Time>
            <Position>
              <LatitudeDegrees>39.03939060866832733154296875</LatitudeDegrees>
              <LongitudeDegrees>-6.32803003303706645965576171875</LongitudeDegrees>
            </Position>
            <AltitudeMeters>271.600006103515625</AltitudeMeters>
            <DistanceMeters>NAN</DistanceMeters>
          </Trackpoint>
          <Trackpoint>
            <Time>2019-10-09T09:36:52.000Z</Time>
            <Position>
              <LatitudeDegrees>39.03918717987835407257080078125</LatitudeDegrees>
              <LongitudeDegrees>-6.32792023010551929473876953125</LongitudeDegrees>
            </Position>
            <AltitudeMeters>271.79998779296875</AltitudeMeters>
            <DistanceMeters>NAN</DistanceMeters>
          </Trackpoint>
          <Trackpoint>
            <Time>2019-10-09T09:37:01.000Z</Time>
            <Position>
              <LatitudeDegrees>39.0388788096606731414794921875</LatitudeDegrees>
              <LongitudeDegrees>-6.32777321152389049530029296875</LongitudeDegrees>
            </Position>
            <AltitudeMeters>271.79998779296875</AltitudeMeters>
            <DistanceMeters>NAN</DistanceMeters>
          </Trackpoint>
          <Trackpoint>
            <Time>2019-10-09T09:37:02.000Z</Time>
            <Position>
              <LatitudeDegrees>39.03884335421025753021240234375</LatitudeDegrees>
              <LongitudeDegrees>-6.327758543193340301513671875</LongitudeDegrees>
            </Position>
            <AltitudeMeters>272</AltitudeMeters>
            <DistanceMeters>NAN</DistanceMeters>
          </Trackpoint>
          <Trackpoint>
            <Time>2019-10-09T09:37:12.000Z</Time>
            <Position>
              <LatitudeDegrees>39.03848863206803798675537109375</LatitudeDegrees>
              <LongitudeDegrees>-6.3275967724621295928955078125</LongitudeDegrees>
            </Position>
            <AltitudeMeters>272.20001220703125</AltitudeMeters>
            <DistanceMeters>NAN</DistanceMeters>
          </Trackpoint>
          <Trackpoint>
            <Time>2019-10-09T09:37:17.000Z</Time>
            <Position>
              <LatitudeDegrees>39.0383188985288143157958984375</LatitudeDegrees>
              <LongitudeDegrees>-6.32751555182039737701416015625</LongitudeDegrees>
            </Position>
            <AltitudeMeters>273</AltitudeMeters>
            <DistanceMeters>NAN</DistanceMeters>
          </Trackpoint>
          <Trackpoint>
            <Time>2019-10-09T09:37:22.000Z</Time>
            <Position>
              <LatitudeDegrees>39.038151092827320098876953125</LatitudeDegrees>
              <LongitudeDegrees>-6.32743340916931629180908203125</LongitudeDegrees>
            </Position>
            <AltitudeMeters>273.79998779296875</AltitudeMeters>
            <DistanceMeters>NAN</DistanceMeters>
          </Trackpoint>
          <Trackpoint>
            <Time>2019-10-09T09:37:23.000Z</Time>
            <Position>
              <LatitudeDegrees>39.03811899013817310333251953125</LatitudeDegrees>
              <LongitudeDegrees>-6.3274177350103855133056640625</LongitudeDegrees>
            </Position>
            <AltitudeMeters>274</AltitudeMeters>
            <DistanceMeters>NAN</DistanceMeters>
          </Trackpoint>
          <Trackpoint>
            <Time>2019-10-09T09:37:27.000Z</Time>
            <Position>
              <LatitudeDegrees>39.037988819181919097900390625</LatitudeDegrees>
              <LongitudeDegrees>-6.32735679857432842254638671875</LongitudeDegrees>
            </Position>
            <AltitudeMeters>274.79998779296875</AltitudeMeters>
            <DistanceMeters>NAN</DistanceMeters>
          </Trackpoint>
          <Trackpoint>
            <Time>2019-10-09T09:37:30.000Z</Time>
            <Position>
              <LatitudeDegrees>39.0378924272954463958740234375</LatitudeDegrees>
              <LongitudeDegrees>-6.3273127935826778411865234375</LongitudeDegrees>
            </Position>
            <AltitudeMeters>275.20001220703125</AltitudeMeters>
            <DistanceMeters>NAN</DistanceMeters>
          </Trackpoint>
          <Trackpoint>
            <Time>2019-10-09T09:37:33.000Z</Time>
            <Position>
              <LatitudeDegrees>39.037795700132846832275390625</LatitudeDegrees>
              <LongitudeDegrees>-6.3272675313055515289306640625</LongitudeDegrees>
            </Position>
            <AltitudeMeters>275.79998779296875</AltitudeMeters>
            <DistanceMeters>NAN</DistanceMeters>
          </Trackpoint>
          <Trackpoint>
            <Time>2019-10-09T09:37:35.000Z</Time>
            <Position>
              <LatitudeDegrees>39.0377328358590602874755859375</LatitudeDegrees>
              <LongitudeDegrees>-6.32723827846348285675048828125</LongitudeDegrees>
            </Position>
            <AltitudeMeters>276.20001220703125</AltitudeMeters>
            <DistanceMeters>NAN</DistanceMeters>
          </Trackpoint>
          <Trackpoint>
            <Time>2019-10-09T09:37:42.000Z</Time>
            <Position>
              <LatitudeDegrees>39.03750878758728504180908203125</LatitudeDegrees>
              <LongitudeDegrees>-6.32713132537901401519775390625</LongitudeDegrees>
            </Position>
            <AltitudeMeters>277</AltitudeMeters>
            <DistanceMeters>NAN</DistanceMeters>
          </Trackpoint>
          <Trackpoint>
            <Time>2019-10-09T09:37:46.000Z</Time>
            <Position>
              <LatitudeDegrees>39.0373747609555721282958984375</LatitudeDegrees>
              <LongitudeDegrees>-6.32706619799137115478515625</LongitudeDegrees>
            </Position>
            <AltitudeMeters>277.20001220703125</AltitudeMeters>
            <DistanceMeters>NAN</DistanceMeters>
          </Trackpoint>
          <Trackpoint>
            <Time>2019-10-09T09:37:53.000Z</Time>
            <Position>
              <LatitudeDegrees>39.03714316897094249725341796875</LatitudeDegrees>
              <LongitudeDegrees>-6.32695647887885570526123046875</LongitudeDegrees>
            </Position>
            <AltitudeMeters>277.79998779296875</AltitudeMeters>
            <DistanceMeters>NAN</DistanceMeters>
          </Trackpoint>
          <Trackpoint>
            <Time>2019-10-09T09:37:57.000Z</Time>
            <Position>
              <LatitudeDegrees>39.037011153995990753173828125</LatitudeDegrees>
              <LongitudeDegrees>-6.3268906809389591217041015625</LongitudeDegrees>
            </Position>
            <AltitudeMeters>278.399993896484375</AltitudeMeters>
            <DistanceMeters>NAN</DistanceMeters>
          </Trackpoint>
          <Trackpoint>
            <Time>2019-10-09T09:38:03.000Z</Time>
            <Position>
              <LatitudeDegrees>39.03681057505309581756591796875</LatitudeDegrees>
              <LongitudeDegrees>-6.32679789327085018157958984375</LongitudeDegrees>
            </Position>
            <AltitudeMeters>278.79998779296875</AltitudeMeters>
            <DistanceMeters>NAN</DistanceMeters>
          </Trackpoint>
          <Trackpoint>
            <Time>2019-10-09T09:38:07.000Z</Time>
            <Position>
              <LatitudeDegrees>39.0366747044026851654052734375</LatitudeDegrees>
              <LongitudeDegrees>-6.3267381303012371063232421875</LongitudeDegrees>
            </Position>
            <AltitudeMeters>279.399993896484375</AltitudeMeters>
            <DistanceMeters>NAN</DistanceMeters>
          </Trackpoint>
          <Trackpoint>
            <Time>2019-10-09T09:38:15.000Z</Time>
            <Position>
              <LatitudeDegrees>39.03640338219702243804931640625</LatitudeDegrees>
              <LongitudeDegrees>-6.32660812698304653167724609375</LongitudeDegrees>
            </Position>
            <AltitudeMeters>279.79998779296875</AltitudeMeters>
            <DistanceMeters>NAN</DistanceMeters>
          </Trackpoint>
          <Trackpoint>
            <Time>2019-10-09T09:38:23.000Z</Time>
            <Position>
              <LatitudeDegrees>39.03613231144845485687255859375</LatitudeDegrees>
              <LongitudeDegrees>-6.3264816440641880035400390625</LongitudeDegrees>
            </Position>
            <AltitudeMeters>280.600006103515625</AltitudeMeters>
            <DistanceMeters>NAN</DistanceMeters>
          </Trackpoint>
          <Trackpoint>
            <Time>2019-10-09T09:38:25.000Z</Time>
            <Position>
              <LatitudeDegrees>39.0360621549189090728759765625</LatitudeDegrees>
              <LongitudeDegrees>-6.326451636850833892822265625</LongitudeDegrees>
            </Position>
            <AltitudeMeters>281</AltitudeMeters>
            <DistanceMeters>NAN</DistanceMeters>
          </Trackpoint>
          <Trackpoint>
            <Time>2019-10-09T09:38:32.000Z</Time>
            <Position>
              <LatitudeDegrees>39.03583257459104061126708984375</LatitudeDegrees>
              <LongitudeDegrees>-6.32633806206285953521728515625</LongitudeDegrees>
            </Position>
            <AltitudeMeters>281.600006103515625</AltitudeMeters>
            <DistanceMeters>NAN</DistanceMeters>
          </Trackpoint>
          <Trackpoint>
            <Time>2019-10-09T09:38:34.000Z</Time>
            <Position>
              <LatitudeDegrees>39.03576803393661975860595703125</LatitudeDegrees>
              <LongitudeDegrees>-6.32630788721144199371337890625</LongitudeDegrees>
            </Position>
            <AltitudeMeters>282.399993896484375</AltitudeMeters>
            <DistanceMeters>NAN</DistanceMeters>
          </Trackpoint>
          <Trackpoint>
            <Time>2019-10-09T09:38:38.000Z</Time>
            <Position>
              <LatitudeDegrees>39.03563476167619228363037109375</LatitudeDegrees>
              <LongitudeDegrees>-6.32625080645084381103515625</LongitudeDegrees>
            </Position>
            <AltitudeMeters>282.79998779296875</AltitudeMeters>
            <DistanceMeters>NAN</DistanceMeters>
          </Trackpoint>
          <Trackpoint>
            <Time>2019-10-09T09:38:43.000Z</Time>
            <Position>
              <LatitudeDegrees>39.0354739129543304443359375</LatitudeDegrees>
              <LongitudeDegrees>-6.326174028217792510986328125</LongitudeDegrees>
            </Position>
            <AltitudeMeters>283.399993896484375</AltitudeMeters>
            <DistanceMeters>NAN</DistanceMeters>
          </Trackpoint>
          <Trackpoint>
            <Time>2019-10-09T09:38:47.000Z</Time>
            <Position>
              <LatitudeDegrees>39.03534776531159877777099609375</LatitudeDegrees>
              <LongitudeDegrees>-6.32611292414367198944091796875</LongitudeDegrees>
            </Position>
            <AltitudeMeters>283.79998779296875</AltitudeMeters>
            <DistanceMeters>NAN</DistanceMeters>
          </Trackpoint>
          <Trackpoint>
            <Time>2019-10-09T09:38:54.000Z</Time>
            <Position>
              <LatitudeDegrees>39.035123884677886962890625</LatitudeDegrees>
              <LongitudeDegrees>-6.32601351477205753326416015625</LongitudeDegrees>
            </Position>
            <AltitudeMeters>285</AltitudeMeters>
            <DistanceMeters>NAN</DistanceMeters>
          </Trackpoint>
          <Trackpoint>
            <Time>2019-10-09T09:39:01.000Z</Time>
            <Position>
              <LatitudeDegrees>39.03490318916738033294677734375</LatitudeDegrees>
              <LongitudeDegrees>-6.325923241674900054931640625</LongitudeDegrees>
            </Position>
            <AltitudeMeters>286.20001220703125</AltitudeMeters>
            <DistanceMeters>NAN</DistanceMeters>
          </Trackpoint>
          <Trackpoint>
            <Time>2019-10-09T09:39:04.000Z</Time>
            <Position>
              <LatitudeDegrees>39.03480830602347850799560546875</LatitudeDegrees>
              <LongitudeDegrees>-6.3258939050137996673583984375</LongitudeDegrees>
            </Position>
            <AltitudeMeters>286.399993896484375</AltitudeMeters>
            <DistanceMeters>NAN</DistanceMeters>
          </Trackpoint>
          <Trackpoint>
            <Time>2019-10-09T09:39:08.000Z</Time>
            <Position>
              <LatitudeDegrees>39.03468794189393520355224609375</LatitudeDegrees>
              <LongitudeDegrees>-6.32584847509860992431640625</LongitudeDegrees>
            </Position>
            <AltitudeMeters>287.399993896484375</AltitudeMeters>
            <DistanceMeters>NAN</DistanceMeters>
          </Trackpoint>
          <Trackpoint>
            <Time>2019-10-09T09:39:12.000Z</Time>
            <Position>
              <LatitudeDegrees>39.0345718525350093841552734375</LatitudeDegrees>
              <LongitudeDegrees>-6.3258107565343379974365234375</LongitudeDegrees>
            </Position>
            <AltitudeMeters>288.399993896484375</AltitudeMeters>
            <DistanceMeters>NAN</DistanceMeters>
          </Trackpoint>
          <Trackpoint>
            <Time>2019-10-09T09:39:13.000Z</Time>
            <Position>
              <LatitudeDegrees>39.03454192914068698883056640625</LatitudeDegrees>
              <LongitudeDegrees>-6.325803883373737335205078125</LongitudeDegrees>
            </Position>
            <AltitudeMeters>288.600006103515625</AltitudeMeters>
            <DistanceMeters>NAN</DistanceMeters>
          </Trackpoint>
          <Trackpoint>
            <Time>2019-10-09T09:39:19.000Z</Time>
            <Position>
              <LatitudeDegrees>39.03434294275939464569091796875</LatitudeDegrees>
              <LongitudeDegrees>-6.3257678411900997161865234375</LongitudeDegrees>
            </Position>
            <AltitudeMeters>289</AltitudeMeters>
            <DistanceMeters>NAN</DistanceMeters>
          </Trackpoint>
          <Trackpoint>
            <Time>2019-10-09T09:39:22.000Z</Time>
            <Position>
              <LatitudeDegrees>39.03424101881682872772216796875</LatitudeDegrees>
              <LongitudeDegrees>-6.3257499039173126220703125</LongitudeDegrees>
            </Position>
            <AltitudeMeters>289.79998779296875</AltitudeMeters>
            <DistanceMeters>NAN</DistanceMeters>
          </Trackpoint>
          <Trackpoint>
            <Time>2019-10-09T09:39:29.000Z</Time>
            <Position>
              <LatitudeDegrees>39.0340062417089939117431640625</LatitudeDegrees>
              <LongitudeDegrees>-6.32572333328425884246826171875</LongitudeDegrees>
            </Position>
            <AltitudeMeters>290.399993896484375</AltitudeMeters>
            <DistanceMeters>NAN</DistanceMeters>
          </Trackpoint>
          <Trackpoint>
            <Time>2019-10-09T09:39:34.000Z</Time>
            <Position>
              <LatitudeDegrees>39.03383566997945308685302734375</LatitudeDegrees>
              <LongitudeDegrees>-6.3257110118865966796875</LongitudeDegrees>
            </Position>
            <AltitudeMeters>290.79998779296875</AltitudeMeters>
            <DistanceMeters>NAN</DistanceMeters>
          </Trackpoint>
          <Trackpoint>
            <Time>2019-10-09T09:39:39.000Z</Time>
            <Position>
              <LatitudeDegrees>39.03366400860249996185302734375</LatitudeDegrees>
              <LongitudeDegrees>-6.32570036686956882476806640625</LongitudeDegrees>
            </Position>
            <AltitudeMeters>291.20001220703125</AltitudeMeters>
            <DistanceMeters>NAN</DistanceMeters>
          </Trackpoint>
          <Trackpoint>
            <Time>2019-10-09T09:39:43.000Z</Time>
            <Position>
              <LatitudeDegrees>39.03352973051369190216064453125</LatitudeDegrees>
              <LongitudeDegrees>-6.3257021270692348480224609375</LongitudeDegrees>
            </Position>
            <AltitudeMeters>292</AltitudeMeters>
            <DistanceMeters>NAN</DistanceMeters>
          </Trackpoint>
          <Trackpoint>
            <Time>2019-10-09T09:39:50.000Z</Time>
            <Position>
              <LatitudeDegrees>39.0332937799394130706787109375</LatitudeDegrees>
              <LongitudeDegrees>-6.3257141970098018646240234375</LongitudeDegrees>
            </Position>
            <AltitudeMeters>292.79998779296875</AltitudeMeters>
            <DistanceMeters>NAN</DistanceMeters>
          </Trackpoint>
          <Trackpoint>
            <Time>2019-10-09T09:39:52.000Z</Time>
            <Position>
              <LatitudeDegrees>39.033225886523723602294921875</LatitudeDegrees>
              <LongitudeDegrees>-6.32571780122816562652587890625</LongitudeDegrees>
            </Position>
            <AltitudeMeters>293</AltitudeMeters>
            <DistanceMeters>NAN</DistanceMeters>
          </Trackpoint>
          <Trackpoint>
            <Time>2019-10-09T09:39:58.000Z</Time>
            <Position>
              <LatitudeDegrees>39.03302430175244808197021484375</LatitudeDegrees>
              <LongitudeDegrees>-6.32573221810162067413330078125</LongitudeDegrees>
            </Position>
            <AltitudeMeters>294.20001220703125</AltitudeMeters>
            <DistanceMeters>NAN</DistanceMeters>
          </Trackpoint>
          <Trackpoint>
            <Time>2019-10-09T09:40:03.000Z</Time>
            <Position>
              <LatitudeDegrees>39.03285540640354156494140625</LatitudeDegrees>
              <LongitudeDegrees>-6.32573992945253849029541015625</LongitudeDegrees>
            </Position>
            <AltitudeMeters>294.399993896484375</AltitudeMeters>
            <DistanceMeters>NAN</DistanceMeters>
          </Trackpoint>
          <Trackpoint>
            <Time>2019-10-09T09:40:11.000Z</Time>
            <Position>
              <LatitudeDegrees>39.0325739420950412750244140625</LatitudeDegrees>
              <LongitudeDegrees>-6.32575937546789646148681640625</LongitudeDegrees>
            </Position>
            <AltitudeMeters>295.20001220703125</AltitudeMeters>
            <DistanceMeters>NAN</DistanceMeters>
          </Trackpoint>
          <Trackpoint>
            <Time>2019-10-09T09:40:12.000Z</Time>
            <Position>
              <LatitudeDegrees>39.032539241015911102294921875</LatitudeDegrees>
              <LongitudeDegrees>-6.3257624767720699310302734375</LongitudeDegrees>
            </Position>
            <AltitudeMeters>295.399993896484375</AltitudeMeters>
            <DistanceMeters>NAN</DistanceMeters>
          </Trackpoint>
          <Trackpoint>
            <Time>2019-10-09T09:40:19.000Z</Time>
            <Position>
              <LatitudeDegrees>39.0322919748723506927490234375</LatitudeDegrees>
              <LongitudeDegrees>-6.32578066550195217132568359375</LongitudeDegrees>
            </Position>
            <AltitudeMeters>296.399993896484375</AltitudeMeters>
            <DistanceMeters>NAN</DistanceMeters>
          </Trackpoint>
          <Trackpoint>
            <Time>2019-10-09T09:40:22.000Z</Time>
            <Position>
              <LatitudeDegrees>39.0321863628923892974853515625</LatitudeDegrees>
              <LongitudeDegrees>-6.32578435353934764862060546875</LongitudeDegrees>
            </Position>
            <AltitudeMeters>296</AltitudeMeters>
            <DistanceMeters>NAN</DistanceMeters>
          </Trackpoint>
          <Trackpoint>
            <Time>2019-10-09T09:40:32.000Z</Time>
            <Position>
              <LatitudeDegrees>39.0318205766379833221435546875</LatitudeDegrees>
              <LongitudeDegrees>-6.32580832578241825103759765625</LongitudeDegrees>
            </Position>
            <AltitudeMeters>296.79998779296875</AltitudeMeters>
            <DistanceMeters>NAN</DistanceMeters>
          </Trackpoint>
          <Trackpoint>
            <Time>2019-10-09T09:40:35.000Z</Time>
            <Position>
              <LatitudeDegrees>39.0317027270793914794921875</LatitudeDegrees>
              <LongitudeDegrees>-6.3258117623627185821533203125</LongitudeDegrees>
            </Position>
            <AltitudeMeters>296.79998779296875</AltitudeMeters>
            <DistanceMeters>NAN</DistanceMeters>
          </Trackpoint>
          <Trackpoint>
            <Time>2019-10-09T09:40:43.000Z</Time>
            <Position>
              <LatitudeDegrees>39.0313367731869220733642578125</LatitudeDegrees>
              <LongitudeDegrees>-6.32580899633467197418212890625</LongitudeDegrees>
            </Position>
            <AltitudeMeters>296.20001220703125</AltitudeMeters>
            <DistanceMeters>NAN</DistanceMeters>
          </Trackpoint>
          <Trackpoint>
            <Time>2019-10-09T09:40:50.000Z</Time>
            <Position>
              <LatitudeDegrees>39.0309716574847698211669921875</LatitudeDegrees>
              <LongitudeDegrees>-6.3258437812328338623046875</LongitudeDegrees>
            </Position>
            <AltitudeMeters>295.79998779296875</AltitudeMeters>
            <DistanceMeters>NAN</DistanceMeters>
          </Trackpoint>
          <Trackpoint>
            <Time>2019-10-09T09:40:53.000Z</Time>
            <Position>
              <LatitudeDegrees>39.03080175630748271942138671875</LatitudeDegrees>
              <LongitudeDegrees>-6.32586297579109668731689453125</LongitudeDegrees>
            </Position>
            <AltitudeMeters>295.20001220703125</AltitudeMeters>
            <DistanceMeters>NAN</DistanceMeters>
          </Trackpoint>
          <Trackpoint>
            <Time>2019-10-09T09:40:57.000Z</Time>
            <Position>
              <LatitudeDegrees>39.0305579267442226409912109375</LatitudeDegrees>
              <LongitudeDegrees>-6.3258868642151355743408203125</LongitudeDegrees>
            </Position>
            <AltitudeMeters>294.79998779296875</AltitudeMeters>
            <DistanceMeters>NAN</DistanceMeters>
          </Trackpoint>
          <Trackpoint>
            <Time>2019-10-09T09:41:00.000Z</Time>
            <Position>
              <LatitudeDegrees>39.03037109412252902984619140625</LatitudeDegrees>
              <LongitudeDegrees>-6.3259039632976055145263671875</LongitudeDegrees>
            </Position>
            <AltitudeMeters>294</AltitudeMeters>
            <DistanceMeters>NAN</DistanceMeters>
          </Trackpoint>
          <Trackpoint>
            <Time>2019-10-09T09:41:04.000Z</Time>
            <Position>
              <LatitudeDegrees>39.03011796064674854278564453125</LatitudeDegrees>
              <LongitudeDegrees>-6.3259311206638813018798828125</LongitudeDegrees>
            </Position>
            <AltitudeMeters>293.600006103515625</AltitudeMeters>
            <DistanceMeters>NAN</DistanceMeters>
          </Trackpoint>
          <Trackpoint>
            <Time>2019-10-09T09:41:07.000Z</Time>
            <Position>
              <LatitudeDegrees>39.0299259312450885772705078125</LatitudeDegrees>
              <LongitudeDegrees>-6.32595039904117584228515625</LongitudeDegrees>
            </Position>
            <AltitudeMeters>293</AltitudeMeters>
            <DistanceMeters>NAN</DistanceMeters>
          </Trackpoint>
          <Trackpoint>
            <Time>2019-10-09T09:41:09.000Z</Time>
            <Position>
              <LatitudeDegrees>39.029795341193675994873046875</LatitudeDegrees>
              <LongitudeDegrees>-6.3259629718959331512451171875</LongitudeDegrees>
            </Position>
            <AltitudeMeters>291.79998779296875</AltitudeMeters>
            <DistanceMeters>NAN</DistanceMeters>
          </Trackpoint>
          <Trackpoint>
            <Time>2019-10-09T09:41:16.000Z</Time>
            <Position>
              <LatitudeDegrees>39.02933056466281414031982421875</LatitudeDegrees>
              <LongitudeDegrees>-6.32601083256304264068603515625</LongitudeDegrees>
            </Position>
            <AltitudeMeters>290.79998779296875</AltitudeMeters>
            <DistanceMeters>NAN</DistanceMeters>
          </Trackpoint>
          <Trackpoint>
            <Time>2019-10-09T09:41:17.000Z</Time>
            <Position>
              <LatitudeDegrees>39.029264934360980987548828125</LatitudeDegrees>
              <LongitudeDegrees>-6.32601879537105560302734375</LongitudeDegrees>
            </Position>
            <AltitudeMeters>290.600006103515625</AltitudeMeters>
            <DistanceMeters>NAN</DistanceMeters>
          </Trackpoint>
          <Trackpoint>
            <Time>2019-10-09T09:41:23.000Z</Time>
            <Position>
              <LatitudeDegrees>39.02887090109288692474365234375</LatitudeDegrees>
              <LongitudeDegrees>-6.32605944760143756866455078125</LongitudeDegrees>
            </Position>
            <AltitudeMeters>290.20001220703125</AltitudeMeters>
            <DistanceMeters>NAN</DistanceMeters>
          </Trackpoint>
          <Trackpoint>
            <Time>2019-10-09T09:41:25.000Z</Time>
            <Position>
              <LatitudeDegrees>39.0287387184798717498779296875</LatitudeDegrees>
              <LongitudeDegrees>-6.32607202045619487762451171875</LongitudeDegrees>
            </Position>
            <AltitudeMeters>289.79998779296875</AltitudeMeters>
            <DistanceMeters>NAN</DistanceMeters>
          </Trackpoint>
          <Trackpoint>
            <Time>2019-10-09T09:41:26.000Z</Time>
            <Position>
              <LatitudeDegrees>39.02867292053997516632080078125</LatitudeDegrees>
              <LongitudeDegrees>-6.32607805542647838592529296875</LongitudeDegrees>
            </Position>
            <AltitudeMeters>290</AltitudeMeters>
            <DistanceMeters>NAN</DistanceMeters>
          </Trackpoint>
          <Trackpoint>
            <Time>2019-10-09T09:41:29.000Z</Time>
            <Position>
              <LatitudeDegrees>39.0284738503396511077880859375</LatitudeDegrees>
              <LongitudeDegrees>-6.326098926365375518798828125</LongitudeDegrees>
            </Position>
            <AltitudeMeters>289.399993896484375</AltitudeMeters>
            <DistanceMeters>NAN</DistanceMeters>
          </Trackpoint>
          <Trackpoint>
            <Time>2019-10-09T09:41:33.000Z</Time>
            <Position>
              <LatitudeDegrees>39.028194062411785125732421875</LatitudeDegrees>
              <LongitudeDegrees>-6.3261249102652072906494140625</LongitudeDegrees>
            </Position>
            <AltitudeMeters>288</AltitudeMeters>
            <DistanceMeters>NAN</DistanceMeters>
          </Trackpoint>
          <Trackpoint>
            <Time>2019-10-09T09:41:36.000Z</Time>
            <Position>
              <LatitudeDegrees>39.027978479862213134765625</LatitudeDegrees>
              <LongitudeDegrees>-6.3261441886425018310546875</LongitudeDegrees>
            </Position>
            <AltitudeMeters>287.20001220703125</AltitudeMeters>
            <DistanceMeters>NAN</DistanceMeters>
          </Trackpoint>
          <Trackpoint>
            <Time>2019-10-09T09:41:39.000Z</Time>
            <Position>
              <LatitudeDegrees>39.027752839028835296630859375</LatitudeDegrees>
              <LongitudeDegrees>-6.3261524029076099395751953125</LongitudeDegrees>
            </Position>
            <AltitudeMeters>286.600006103515625</AltitudeMeters>
            <DistanceMeters>NAN</DistanceMeters>
          </Trackpoint>
          <Trackpoint>
            <Time>2019-10-09T09:41:42.000Z</Time>
            <Position>
              <LatitudeDegrees>39.02751605026423931121826171875</LatitudeDegrees>
              <LongitudeDegrees>-6.32613723166286945343017578125</LongitudeDegrees>
            </Position>
            <AltitudeMeters>285.399993896484375</AltitudeMeters>
            <DistanceMeters>NAN</DistanceMeters>
          </Trackpoint>
          <Trackpoint>
            <Time>2019-10-09T09:41:43.000Z</Time>
            <Position>
              <LatitudeDegrees>39.02743424288928508758544921875</LatitudeDegrees>
              <LongitudeDegrees>-6.32612583227455615997314453125</LongitudeDegrees>
            </Position>
            <AltitudeMeters>284.79998779296875</AltitudeMeters>
            <DistanceMeters>NAN</DistanceMeters>
          </Trackpoint>
          <Trackpoint>
            <Time>2019-10-09T09:41:44.000Z</Time>
            <Position>
              <LatitudeDegrees>39.0273510105907917022705078125</LatitudeDegrees>
              <LongitudeDegrees>-6.3261108286678791046142578125</LongitudeDegrees>
            </Position>
            <AltitudeMeters>284.20001220703125</AltitudeMeters>
            <DistanceMeters>NAN</DistanceMeters>
          </Trackpoint>
          <Trackpoint>
            <Time>2019-10-09T09:41:47.000Z</Time>
            <Position>
              <LatitudeDegrees>39.02709460817277431488037109375</LatitudeDegrees>
              <LongitudeDegrees>-6.32603715173900127410888671875</LongitudeDegrees>
            </Position>
            <AltitudeMeters>282.79998779296875</AltitudeMeters>
            <DistanceMeters>NAN</DistanceMeters>
          </Trackpoint>
          <Trackpoint>
            <Time>2019-10-09T09:41:49.000Z</Time>
            <Position>
              <LatitudeDegrees>39.02691858820617198944091796875</LatitudeDegrees>
              <LongitudeDegrees>-6.32596473209559917449951171875</LongitudeDegrees>
            </Position>
            <AltitudeMeters>281.79998779296875</AltitudeMeters>
            <DistanceMeters>NAN</DistanceMeters>
          </Trackpoint>
          <Trackpoint>
            <Time>2019-10-09T09:41:50.000Z</Time>
            <Position>
              <LatitudeDegrees>39.0268293209373950958251953125</LatitudeDegrees>
              <LongitudeDegrees>-6.32591946981847286224365234375</LongitudeDegrees>
            </Position>
            <AltitudeMeters>281.399993896484375</AltitudeMeters>
            <DistanceMeters>NAN</DistanceMeters>
          </Trackpoint>
          <Trackpoint>
            <Time>2019-10-09T09:41:52.000Z</Time>
            <Position>
              <LatitudeDegrees>39.0266536362469196319580078125</LatitudeDegrees>
              <LongitudeDegrees>-6.32581234909594058990478515625</LongitudeDegrees>
            </Position>
            <AltitudeMeters>280</AltitudeMeters>
            <DistanceMeters>NAN</DistanceMeters>
          </Trackpoint>
          <Trackpoint>
            <Time>2019-10-09T09:41:54.000Z</Time>
            <Position>
              <LatitudeDegrees>39.0264829806983470916748046875</LatitudeDegrees>
              <LongitudeDegrees>-6.3256873749196529388427734375</LongitudeDegrees>
            </Position>
            <AltitudeMeters>278.600006103515625</AltitudeMeters>
            <DistanceMeters>NAN</DistanceMeters>
          </Trackpoint>
          <Trackpoint>
            <Time>2019-10-09T09:41:59.000Z</Time>
            <Position>
              <LatitudeDegrees>39.02610705234110355377197265625</LatitudeDegrees>
              <LongitudeDegrees>-6.325302980840206146240234375</LongitudeDegrees>
            </Position>
            <AltitudeMeters>277.600006103515625</AltitudeMeters>
            <DistanceMeters>NAN</DistanceMeters>
          </Trackpoint>
          <Trackpoint>
            <Time>2019-10-09T09:42:00.000Z</Time>
            <Position>
              <LatitudeDegrees>39.026042930781841278076171875</LatitudeDegrees>
              <LongitudeDegrees>-6.3252176530659198760986328125</LongitudeDegrees>
            </Position>
            <AltitudeMeters>277.20001220703125</AltitudeMeters>
            <DistanceMeters>NAN</DistanceMeters>
          </Trackpoint>
          <Trackpoint>
            <Time>2019-10-09T09:42:02.000Z</Time>
            <Position>
              <LatitudeDegrees>39.02591929771006107330322265625</LatitudeDegrees>
              <LongitudeDegrees>-6.32504783570766448974609375</LongitudeDegrees>
            </Position>
            <AltitudeMeters>277</AltitudeMeters>
            <DistanceMeters>NAN</DistanceMeters>
          </Trackpoint>
          <Trackpoint>
            <Time>2019-10-09T09:42:05.000Z</Time>
            <Position>
              <LatitudeDegrees>39.02574998326599597930908203125</LatitudeDegrees>
              <LongitudeDegrees>-6.32480232976377010345458984375</LongitudeDegrees>
            </Position>
            <AltitudeMeters>277.600006103515625</AltitudeMeters>
            <DistanceMeters>NAN</DistanceMeters>
          </Trackpoint>
          <Trackpoint>
            <Time>2019-10-09T09:42:07.000Z</Time>
            <Position>
              <LatitudeDegrees>39.02564696967601776123046875</LatitudeDegrees>
              <LongitudeDegrees>-6.32465095259249210357666015625</LongitudeDegrees>
            </Position>
            <AltitudeMeters>278</AltitudeMeters>
            <DistanceMeters>NAN</DistanceMeters>
          </Trackpoint>
          <Trackpoint>
            <Time>2019-10-09T09:42:09.000Z</Time>
            <Position>
              <LatitudeDegrees>39.0255515836179256439208984375</LatitudeDegrees>
              <LongitudeDegrees>-6.3245095498859882354736328125</LongitudeDegrees>
            </Position>
            <AltitudeMeters>278.600006103515625</AltitudeMeters>
            <DistanceMeters>NAN</DistanceMeters>
          </Trackpoint>
          <Trackpoint>
            <Time>2019-10-09T09:42:11.000Z</Time>
            <Position>
              <LatitudeDegrees>39.0254624001681804656982421875</LatitudeDegrees>
              <LongitudeDegrees>-6.32438155822455883026123046875</LongitudeDegrees>
            </Position>
            <AltitudeMeters>279.20001220703125</AltitudeMeters>
            <DistanceMeters>NAN</DistanceMeters>
          </Trackpoint>
          <Trackpoint>
            <Time>2019-10-09T09:42:13.000Z</Time>
            <Position>
              <LatitudeDegrees>39.02537874877452850341796875</LatitudeDegrees>
              <LongitudeDegrees>-6.32426270283758640289306640625</LongitudeDegrees>
            </Position>
            <AltitudeMeters>280.20001220703125</AltitudeMeters>
            <DistanceMeters>NAN</DistanceMeters>
          </Trackpoint>
          <Trackpoint>
            <Time>2019-10-09T09:42:16.000Z</Time>
            <Position>
              <LatitudeDegrees>39.02526265941560268402099609375</LatitudeDegrees>
              <LongitudeDegrees>-6.32409741170704364776611328125</LongitudeDegrees>
            </Position>
            <AltitudeMeters>280.79998779296875</AltitudeMeters>
            <DistanceMeters>NAN</DistanceMeters>
          </Trackpoint>
          <Trackpoint>
            <Time>2019-10-09T09:42:17.000Z</Time>
            <Position>
              <LatitudeDegrees>39.025225527584552764892578125</LatitudeDegrees>
              <LongitudeDegrees>-6.32404343225061893463134765625</LongitudeDegrees>
            </Position>
            <AltitudeMeters>281.20001220703125</AltitudeMeters>
            <DistanceMeters>NAN</DistanceMeters>
          </Trackpoint>
          <Trackpoint>
            <Time>2019-10-09T09:42:18.000Z</Time>
            <Position>
              <LatitudeDegrees>39.025188647210597991943359375</LatitudeDegrees>
              <LongitudeDegrees>-6.32399146445095539093017578125</LongitudeDegrees>
            </Position>
            <AltitudeMeters>281.399993896484375</AltitudeMeters>
            <DistanceMeters>NAN</DistanceMeters>
          </Trackpoint>
          <Trackpoint>
            <Time>2019-10-09T09:42:21.000Z</Time>
            <Position>
              <LatitudeDegrees>39.025080688297748565673828125</LatitudeDegrees>
              <LongitudeDegrees>-6.3238316215574741363525390625</LongitudeDegrees>
            </Position>
            <AltitudeMeters>281.600006103515625</AltitudeMeters>
            <DistanceMeters>NAN</DistanceMeters>
          </Trackpoint>
          <Trackpoint>
            <Time>2019-10-09T09:42:24.000Z</Time>
            <Position>
              <LatitudeDegrees>39.02497281320393085479736328125</LatitudeDegrees>
              <LongitudeDegrees>-6.323680244386196136474609375</LongitudeDegrees>
            </Position>
            <AltitudeMeters>281.79998779296875</AltitudeMeters>
            <DistanceMeters>NAN</DistanceMeters>
          </Trackpoint>
          <Trackpoint>
            <Time>2019-10-09T09:42:26.000Z</Time>
            <Position>
              <LatitudeDegrees>39.0249033272266387939453125</LatitudeDegrees>
              <LongitudeDegrees>-6.3235773146152496337890625</LongitudeDegrees>
            </Position>
            <AltitudeMeters>282</AltitudeMeters>
            <DistanceMeters>NAN</DistanceMeters>
          </Trackpoint>
          <Trackpoint>
            <Time>2019-10-09T09:42:29.000Z</Time>
            <Position>
              <LatitudeDegrees>39.02479779906570911407470703125</LatitudeDegrees>
              <LongitudeDegrees>-6.32342585362493991851806640625</LongitudeDegrees>
            </Position>
            <AltitudeMeters>282.600006103515625</AltitudeMeters>
            <DistanceMeters>NAN</DistanceMeters>
          </Trackpoint>
          <Trackpoint>
            <Time>2019-10-09T09:42:36.000Z</Time>
            <Position>
              <LatitudeDegrees>39.02456193231046199798583984375</LatitudeDegrees>
              <LongitudeDegrees>-6.3230806030333042144775390625</LongitudeDegrees>
            </Position>
            <AltitudeMeters>283.399993896484375</AltitudeMeters>
            <DistanceMeters>NAN</DistanceMeters>
          </Trackpoint>
          <Trackpoint>
            <Time>2019-10-09T09:42:39.000Z</Time>
            <Position>
              <LatitudeDegrees>39.02446210384368896484375</LatitudeDegrees>
              <LongitudeDegrees>-6.322940625250339508056640625</LongitudeDegrees>
            </Position>
            <AltitudeMeters>283.79998779296875</AltitudeMeters>
            <DistanceMeters>NAN</DistanceMeters>
          </Trackpoint>
          <Trackpoint>
            <Time>2019-10-09T09:42:44.000Z</Time>
            <Position>
              <LatitudeDegrees>39.0243050269782543182373046875</LatitudeDegrees>
              <LongitudeDegrees>-6.3227077759802341461181640625</LongitudeDegrees>
            </Position>
            <AltitudeMeters>284.79998779296875</AltitudeMeters>
            <DistanceMeters>NAN</DistanceMeters>
          </Trackpoint>
          <Trackpoint>
            <Time>2019-10-09T09:42:49.000Z</Time>
            <Position>
              <LatitudeDegrees>39.02415163815021514892578125</LatitudeDegrees>
              <LongitudeDegrees>-6.32248775102198123931884765625</LongitudeDegrees>
            </Position>
            <AltitudeMeters>286</AltitudeMeters>
            <DistanceMeters>NAN</DistanceMeters>
          </Trackpoint>
          <Trackpoint>
            <Time>2019-10-09T09:42:52.000Z</Time>
            <Position>
              <LatitudeDegrees>39.02406220324337482452392578125</LatitudeDegrees>
              <LongitudeDegrees>-6.32236638106405735015869140625</LongitudeDegrees>
            </Position>
            <AltitudeMeters>286</AltitudeMeters>
            <DistanceMeters>NAN</DistanceMeters>
          </Trackpoint>
          <Trackpoint>
            <Time>2019-10-09T09:42:57.000Z</Time>
            <Position>
              <LatitudeDegrees>39.023919962346553802490234375</LatitudeDegrees>
              <LongitudeDegrees>-6.32215767167508602142333984375</LongitudeDegrees>
            </Position>
            <AltitudeMeters>287.20001220703125</AltitudeMeters>
            <DistanceMeters>NAN</DistanceMeters>
          </Trackpoint>
          <Trackpoint>
            <Time>2019-10-09T09:43:03.000Z</Time>
            <Position>
              <LatitudeDegrees>39.02375064790248870849609375</LatitudeDegrees>
              <LongitudeDegrees>-6.32192431949079036712646484375</LongitudeDegrees>
            </Position>
            <AltitudeMeters>287.600006103515625</AltitudeMeters>
            <DistanceMeters>NAN</DistanceMeters>
          </Trackpoint>
          <Trackpoint>
            <Time>2019-10-09T09:43:08.000Z</Time>
            <Position>
              <LatitudeDegrees>39.0236079879105091094970703125</LatitudeDegrees>
              <LongitudeDegrees>-6.32175936363637447357177734375</LongitudeDegrees>
            </Position>
            <AltitudeMeters>288.399993896484375</AltitudeMeters>
            <DistanceMeters>NAN</DistanceMeters>
          </Trackpoint>
          <Trackpoint>
            <Time>2019-10-09T09:43:11.000Z</Time>
            <Position>
              <LatitudeDegrees>39.0235208161175251007080078125</LatitudeDegrees>
              <LongitudeDegrees>-6.32166967727243900299072265625</LongitudeDegrees>
            </Position>
            <AltitudeMeters>288.79998779296875</AltitudeMeters>
            <DistanceMeters>NAN</DistanceMeters>
          </Trackpoint>
          <Trackpoint>
            <Time>2019-10-09T09:43:16.000Z</Time>
            <Position>
              <LatitudeDegrees>39.02336717583239078521728515625</LatitudeDegrees>
              <LongitudeDegrees>-6.32153422571718692779541015625</LongitudeDegrees>
            </Position>
            <AltitudeMeters>289.399993896484375</AltitudeMeters>
            <DistanceMeters>NAN</DistanceMeters>
          </Trackpoint>
          <Trackpoint>
            <Time>2019-10-09T09:43:21.000Z</Time>
            <Position>
              <LatitudeDegrees>39.02320791967213153839111328125</LatitudeDegrees>
              <LongitudeDegrees>-6.321408748626708984375</LongitudeDegrees>
            </Position>
            <AltitudeMeters>290</AltitudeMeters>
            <DistanceMeters>NAN</DistanceMeters>
          </Trackpoint>
          <Trackpoint>
            <Time>2019-10-09T09:43:25.000Z</Time>
            <Position>
              <LatitudeDegrees>39.02307364158332347869873046875</LatitudeDegrees>
              <LongitudeDegrees>-6.3213237561285495758056640625</LongitudeDegrees>
            </Position>
            <AltitudeMeters>290.600006103515625</AltitudeMeters>
            <DistanceMeters>NAN</DistanceMeters>
          </Trackpoint>
          <Trackpoint>
            <Time>2019-10-09T09:43:30.000Z</Time>
            <Position>
              <LatitudeDegrees>39.022900722920894622802734375</LatitudeDegrees>
              <LongitudeDegrees>-6.32123650051653385162353515625</LongitudeDegrees>
            </Position>
            <AltitudeMeters>291.600006103515625</AltitudeMeters>
            <DistanceMeters>NAN</DistanceMeters>
          </Trackpoint>
          <Trackpoint>
            <Time>2019-10-09T09:43:36.000Z</Time>
            <Position>
              <LatitudeDegrees>39.02269008569419384002685546875</LatitudeDegrees>
              <LongitudeDegrees>-6.321153938770294189453125</LongitudeDegrees>
            </Position>
            <AltitudeMeters>292.600006103515625</AltitudeMeters>
            <DistanceMeters>NAN</DistanceMeters>
          </Trackpoint>
          <Trackpoint>
            <Time>2019-10-09T09:43:41.000Z</Time>
            <Position>
              <LatitudeDegrees>39.02250937186181545257568359375</LatitudeDegrees>
              <LongitudeDegrees>-6.32111035287380218505859375</LongitudeDegrees>
            </Position>
            <AltitudeMeters>293</AltitudeMeters>
            <DistanceMeters>NAN</DistanceMeters>
          </Trackpoint>
          <Trackpoint>
            <Time>2019-10-09T09:43:47.000Z</Time>
            <Position>
              <LatitudeDegrees>39.02228750288486480712890625</LatitudeDegrees>
              <LongitudeDegrees>-6.32108143530786037445068359375</LongitudeDegrees>
            </Position>
            <AltitudeMeters>293.79998779296875</AltitudeMeters>
            <DistanceMeters>NAN</DistanceMeters>
          </Trackpoint>
          <Trackpoint>
            <Time>2019-10-09T09:43:50.000Z</Time>
            <Position>
              <LatitudeDegrees>39.02217711322009563446044921875</LatitudeDegrees>
              <LongitudeDegrees>-6.321075819432735443115234375</LongitudeDegrees>
            </Position>
            <AltitudeMeters>293.79998779296875</AltitudeMeters>
            <DistanceMeters>NAN</DistanceMeters>
          </Trackpoint>
          <Trackpoint>
            <Time>2019-10-09T09:43:56.000Z</Time>
            <Position>
              <LatitudeDegrees>39.02194828726351261138916015625</LatitudeDegrees>
              <LongitudeDegrees>-6.3210893981158733367919921875</LongitudeDegrees>
            </Position>
            <AltitudeMeters>294.79998779296875</AltitudeMeters>
            <DistanceMeters>NAN</DistanceMeters>
          </Trackpoint>
          <Trackpoint>
            <Time>2019-10-09T09:44:00.000Z</Time>
            <Position>
              <LatitudeDegrees>39.02179439552128314971923828125</LatitudeDegrees>
              <LongitudeDegrees>-6.32111705839633941650390625</LongitudeDegrees>
            </Position>
            <AltitudeMeters>295</AltitudeMeters>
            <DistanceMeters>NAN</DistanceMeters>
          </Trackpoint>
          <Trackpoint>
            <Time>2019-10-09T09:44:08.000Z</Time>
            <Position>
              <LatitudeDegrees>39.02149264700710773468017578125</LatitudeDegrees>
              <LongitudeDegrees>-6.3212077505886554718017578125</LongitudeDegrees>
            </Position>
            <AltitudeMeters>295.20001220703125</AltitudeMeters>
            <DistanceMeters>NAN</DistanceMeters>
          </Trackpoint>
          <Trackpoint>
            <Time>2019-10-09T09:44:15.000Z</Time>
            <Position>
              <LatitudeDegrees>39.02122861705720424652099609375</LatitudeDegrees>
              <LongitudeDegrees>-6.32133406586945056915283203125</LongitudeDegrees>
            </Position>
            <AltitudeMeters>295.20001220703125</AltitudeMeters>
            <DistanceMeters>NAN</DistanceMeters>
          </Trackpoint>
          <Trackpoint>
            <Time>2019-10-09T09:44:17.000Z</Time>
            <Position>
              <LatitudeDegrees>39.02114965952932834625244140625</LatitudeDegrees>
              <LongitudeDegrees>-6.32137144915759563446044921875</LongitudeDegrees>
            </Position>
            <AltitudeMeters>295.600006103515625</AltitudeMeters>
            <DistanceMeters>NAN</DistanceMeters>
          </Trackpoint>
          <Trackpoint>
            <Time>2019-10-09T09:44:24.000Z</Time>
            <Position>
              <LatitudeDegrees>39.02085243724286556243896484375</LatitudeDegrees>
              <LongitudeDegrees>-6.3215198926627635955810546875</LongitudeDegrees>
            </Position>
            <AltitudeMeters>295.399993896484375</AltitudeMeters>
            <DistanceMeters>NAN</DistanceMeters>
          </Trackpoint>
          <Trackpoint>
            <Time>2019-10-09T09:44:35.000Z</Time>
            <Position>
              <LatitudeDegrees>39.020361341536045074462890625</LatitudeDegrees>
              <LongitudeDegrees>-6.32176858372986316680908203125</LongitudeDegrees>
            </Position>
            <AltitudeMeters>294.20001220703125</AltitudeMeters>
            <DistanceMeters>NAN</DistanceMeters>
          </Trackpoint>
          <Trackpoint>
            <Time>2019-10-09T09:44:36.000Z</Time>
            <Position>
              <LatitudeDegrees>39.02031448669731616973876953125</LatitudeDegrees>
              <LongitudeDegrees>-6.321786604821681976318359375</LongitudeDegrees>
            </Position>
            <AltitudeMeters>293.79998779296875</AltitudeMeters>
            <DistanceMeters>NAN</DistanceMeters>
          </Trackpoint>
          <Trackpoint>
            <Time>2019-10-09T09:44:40.000Z</Time>
            <Position>
              <LatitudeDegrees>39.02012337930500507354736328125</LatitudeDegrees>
              <LongitudeDegrees>-6.321878470480442047119140625</LongitudeDegrees>
            </Position>
            <AltitudeMeters>293.600006103515625</AltitudeMeters>
            <DistanceMeters>NAN</DistanceMeters>
          </Trackpoint>
          <Trackpoint>
            <Time>2019-10-09T09:44:41.000Z</Time>
            <Position>
              <LatitudeDegrees>39.0200741775333881378173828125</LatitudeDegrees>
              <LongitudeDegrees>-6.3219034485518932342529296875</LongitudeDegrees>
            </Position>
            <AltitudeMeters>293.399993896484375</AltitudeMeters>
            <DistanceMeters>NAN</DistanceMeters>
          </Trackpoint>
          <Trackpoint>
            <Time>2019-10-09T09:44:44.000Z</Time>
            <Position>
              <LatitudeDegrees>39.01991869322955608367919921875</LatitudeDegrees>
              <LongitudeDegrees>-6.32198248989880084991455078125</LongitudeDegrees>
            </Position>
            <AltitudeMeters>292.600006103515625</AltitudeMeters>
            <DistanceMeters>NAN</DistanceMeters>
          </Trackpoint>
          <Trackpoint>
            <Time>2019-10-09T09:44:47.000Z</Time>
            <Position>
              <LatitudeDegrees>39.0197526477277278900146484375</LatitudeDegrees>
              <LongitudeDegrees>-6.322065889835357666015625</LongitudeDegrees>
            </Position>
            <AltitudeMeters>292</AltitudeMeters>
            <DistanceMeters>NAN</DistanceMeters>
          </Trackpoint>
          <Trackpoint>
            <Time>2019-10-09T09:44:49.000Z</Time>
            <Position>
              <LatitudeDegrees>39.01963504962623119354248046875</LatitudeDegrees>
              <LongitudeDegrees>-6.322124563157558441162109375</LongitudeDegrees>
            </Position>
            <AltitudeMeters>291.600006103515625</AltitudeMeters>
            <DistanceMeters>NAN</DistanceMeters>
          </Trackpoint>
          <Trackpoint>
            <Time>2019-10-09T09:44:51.000Z</Time>
            <Position>
              <LatitudeDegrees>39.0195094048976898193359375</LatitudeDegrees>
              <LongitudeDegrees>-6.32217929698526859283447265625</LongitudeDegrees>
            </Position>
            <AltitudeMeters>290.20001220703125</AltitudeMeters>
            <DistanceMeters>NAN</DistanceMeters>
          </Trackpoint>
          <Trackpoint>
            <Time>2019-10-09T09:44:55.000Z</Time>
            <Position>
              <LatitudeDegrees>39.01923456229269504547119140625</LatitudeDegrees>
              <LongitudeDegrees>-6.3222538121044635772705078125</LongitudeDegrees>
            </Position>
            <AltitudeMeters>289</AltitudeMeters>
            <DistanceMeters>NAN</DistanceMeters>
          </Trackpoint>
          <Trackpoint>
            <Time>2019-10-09T09:44:58.000Z</Time>
            <Position>
              <LatitudeDegrees>39.01901378296315670013427734375</LatitudeDegrees>
              <LongitudeDegrees>-6.32228440605103969573974609375</LongitudeDegrees>
            </Position>
            <AltitudeMeters>288</AltitudeMeters>
            <DistanceMeters>NAN</DistanceMeters>
          </Trackpoint>
          <Trackpoint>
            <Time>2019-10-09T09:45:00.000Z</Time>
            <Position>
              <LatitudeDegrees>39.01886098086833953857421875</LatitudeDegrees>
              <LongitudeDegrees>-6.32228516042232513427734375</LongitudeDegrees>
            </Position>
            <AltitudeMeters>287.399993896484375</AltitudeMeters>
            <DistanceMeters>NAN</DistanceMeters>
          </Trackpoint>
          <Trackpoint>
            <Time>2019-10-09T09:45:01.000Z</Time>
            <Position>
              <LatitudeDegrees>39.01878193952143192291259765625</LatitudeDegrees>
              <LongitudeDegrees>-6.3222792930901050567626953125</LongitudeDegrees>
            </Position>
            <AltitudeMeters>287.20001220703125</AltitudeMeters>
            <DistanceMeters>NAN</DistanceMeters>
          </Trackpoint>
          <Trackpoint>
            <Time>2019-10-09T09:45:03.000Z</Time>
            <Position>
              <LatitudeDegrees>39.0186189115047454833984375</LatitudeDegrees>
              <LongitudeDegrees>-6.32225699722766876220703125</LongitudeDegrees>
            </Position>
            <AltitudeMeters>286.399993896484375</AltitudeMeters>
            <DistanceMeters>NAN</DistanceMeters>
          </Trackpoint>
          <Trackpoint>
            <Time>2019-10-09T09:45:05.000Z</Time>
            <Position>
              <LatitudeDegrees>39.018454290926456451416015625</LatitudeDegrees>
              <LongitudeDegrees>-6.32222690619528293609619140625</LongitudeDegrees>
            </Position>
            <AltitudeMeters>285</AltitudeMeters>
            <DistanceMeters>NAN</DistanceMeters>
          </Trackpoint>
          <Trackpoint>
            <Time>2019-10-09T09:45:07.000Z</Time>
            <Position>
              <LatitudeDegrees>39.0182921849191188812255859375</LatitudeDegrees>
              <LongitudeDegrees>-6.3221793808043003082275390625</LongitudeDegrees>
            </Position>
            <AltitudeMeters>285</AltitudeMeters>
            <DistanceMeters>NAN</DistanceMeters>
          </Trackpoint>
          <Trackpoint>
            <Time>2019-10-09T09:45:10.000Z</Time>
            <Position>
              <LatitudeDegrees>39.01805908419191837310791015625</LatitudeDegrees>
              <LongitudeDegrees>-6.322080977261066436767578125</LongitudeDegrees>
            </Position>
            <AltitudeMeters>285</AltitudeMeters>
            <DistanceMeters>NAN</DistanceMeters>
          </Trackpoint>
          <Trackpoint>
            <Time>2019-10-09T09:45:13.000Z</Time>
            <Position>
              <LatitudeDegrees>39.01784174144268035888671875</LatitudeDegrees>
              <LongitudeDegrees>-6.32196907885372638702392578125</LongitudeDegrees>
            </Position>
            <AltitudeMeters>284.79998779296875</AltitudeMeters>
            <DistanceMeters>NAN</DistanceMeters>
          </Trackpoint>
          <Trackpoint>
            <Time>2019-10-09T09:45:16.000Z</Time>
            <Position>
              <LatitudeDegrees>39.0176424197852611541748046875</LatitudeDegrees>
              <LongitudeDegrees>-6.32184905000030994415283203125</LongitudeDegrees>
            </Position>
            <AltitudeMeters>285.399993896484375</AltitudeMeters>
            <DistanceMeters>NAN</DistanceMeters>
          </Trackpoint>
          <Trackpoint>
            <Time>2019-10-09T09:45:19.000Z</Time>
            <Position>
              <LatitudeDegrees>39.01745617389678955078125</LatitudeDegrees>
              <LongitudeDegrees>-6.321745701134204864501953125</LongitudeDegrees>
            </Position>
            <AltitudeMeters>285.600006103515625</AltitudeMeters>
            <DistanceMeters>NAN</DistanceMeters>
          </Trackpoint>
          <Trackpoint>
            <Time>2019-10-09T09:45:21.000Z</Time>
            <Position>
              <LatitudeDegrees>39.017346538603305816650390625</LatitudeDegrees>
              <LongitudeDegrees>-6.3216754607856273651123046875</LongitudeDegrees>
            </Position>
            <AltitudeMeters>285.399993896484375</AltitudeMeters>
            <DistanceMeters>NAN</DistanceMeters>
          </Trackpoint>
          <Trackpoint>
            <Time>2019-10-09T09:45:22.000Z</Time>
            <Position>
              <LatitudeDegrees>39.01729566045105457305908203125</LatitudeDegrees>
              <LongitudeDegrees>-6.32164277136325836181640625</LongitudeDegrees>
            </Position>
            <AltitudeMeters>285.79998779296875</AltitudeMeters>
            <DistanceMeters>NAN</DistanceMeters>
          </Trackpoint>
          <Trackpoint>
            <Time>2019-10-09T09:45:23.000Z</Time>
            <Position>
              <LatitudeDegrees>39.0172456204891204833984375</LatitudeDegrees>
              <LongitudeDegrees>-6.32161804474890232086181640625</LongitudeDegrees>
            </Position>
            <AltitudeMeters>285.79998779296875</AltitudeMeters>
            <DistanceMeters>NAN</DistanceMeters>
          </Trackpoint>
          <Trackpoint>
            <Time>2019-10-09T09:45:24.000Z</Time>
            <Position>
              <LatitudeDegrees>39.01719658635556697845458984375</LatitudeDegrees>
              <LongitudeDegrees>-6.32159356959164142608642578125</LongitudeDegrees>
            </Position>
            <AltitudeMeters>286.399993896484375</AltitudeMeters>
            <DistanceMeters>NAN</DistanceMeters>
          </Trackpoint>
          <Trackpoint>
            <Time>2019-10-09T09:45:26.000Z</Time>
            <Position>
              <LatitudeDegrees>39.01710103265941143035888671875</LatitudeDegrees>
              <LongitudeDegrees>-6.32154931314289569854736328125</LongitudeDegrees>
            </Position>
            <AltitudeMeters>287</AltitudeMeters>
            <DistanceMeters>NAN</DistanceMeters>
          </Trackpoint>
          <Trackpoint>
            <Time>2019-10-09T09:45:28.000Z</Time>
            <Position>
              <LatitudeDegrees>39.01700648479163646697998046875</LatitudeDegrees>
              <LongitudeDegrees>-6.3215135224163532257080078125</LongitudeDegrees>
            </Position>
            <AltitudeMeters>287.399993896484375</AltitudeMeters>
            <DistanceMeters>NAN</DistanceMeters>
          </Trackpoint>
          <Trackpoint>
            <Time>2019-10-09T09:45:29.000Z</Time>
            <Position>
              <LatitudeDegrees>39.01695988141000270843505859375</LatitudeDegrees>
              <LongitudeDegrees>-6.3214967586100101470947265625</LongitudeDegrees>
            </Position>
            <AltitudeMeters>287.399993896484375</AltitudeMeters>
            <DistanceMeters>NAN</DistanceMeters>
          </Trackpoint>
          <Trackpoint>
            <Time>2019-10-09T09:45:32.000Z</Time>
            <Position>
              <LatitudeDegrees>39.016824178397655487060546875</LatitudeDegrees>
              <LongitudeDegrees>-6.3214568607509136199951171875</LongitudeDegrees>
            </Position>
            <AltitudeMeters>288</AltitudeMeters>
            <DistanceMeters>NAN</DistanceMeters>
          </Trackpoint>
          <Trackpoint>
            <Time>2019-10-09T09:45:34.000Z</Time>
            <Position>
              <LatitudeDegrees>39.0167338214814662933349609375</LatitudeDegrees>
              <LongitudeDegrees>-6.32144051603972911834716796875</LongitudeDegrees>
            </Position>
            <AltitudeMeters>288.600006103515625</AltitudeMeters>
            <DistanceMeters>NAN</DistanceMeters>
          </Trackpoint>
          <Trackpoint>
            <Time>2019-10-09T09:45:37.000Z</Time>
            <Position>
              <LatitudeDegrees>39.01660013012588024139404296875</LatitudeDegrees>
              <LongitudeDegrees>-6.32142794318497180938720703125</LongitudeDegrees>
            </Position>
            <AltitudeMeters>288.600006103515625</AltitudeMeters>
            <DistanceMeters>NAN</DistanceMeters>
          </Trackpoint>
          <Trackpoint>
            <Time>2019-10-09T09:45:39.000Z</Time>
            <Position>
              <LatitudeDegrees>39.01651228778064250946044921875</LatitudeDegrees>
              <LongitudeDegrees>-6.321422494947910308837890625</LongitudeDegrees>
            </Position>
            <AltitudeMeters>288.79998779296875</AltitudeMeters>
            <DistanceMeters>NAN</DistanceMeters>
          </Trackpoint>
          <Trackpoint>
            <Time>2019-10-09T09:45:40.000Z</Time>
            <Position>
              <LatitudeDegrees>39.0164672769606113433837890625</LatitudeDegrees>
              <LongitudeDegrees>-6.32142391987144947052001953125</LongitudeDegrees>
            </Position>
            <AltitudeMeters>289.20001220703125</AltitudeMeters>
            <DistanceMeters>NAN</DistanceMeters>
          </Trackpoint>
          <Trackpoint>
            <Time>2019-10-09T09:45:42.000Z</Time>
            <Position>
              <LatitudeDegrees>39.0163780935108661651611328125</LatitudeDegrees>
              <LongitudeDegrees>-6.3214273564517498016357421875</LongitudeDegrees>
            </Position>
            <AltitudeMeters>289.20001220703125</AltitudeMeters>
            <DistanceMeters>NAN</DistanceMeters>
          </Trackpoint>
          <Trackpoint>
            <Time>2019-10-09T09:45:44.000Z</Time>
            <Position>
              <LatitudeDegrees>39.01628966443240642547607421875</LatitudeDegrees>
              <LongitudeDegrees>-6.3214384205639362335205078125</LongitudeDegrees>
            </Position>
            <AltitudeMeters>289.600006103515625</AltitudeMeters>
            <DistanceMeters>NAN</DistanceMeters>
          </Trackpoint>
          <Trackpoint>
            <Time>2019-10-09T09:45:47.000Z</Time>
            <Position>
              <LatitudeDegrees>39.0161558054387569427490234375</LatitudeDegrees>
              <LongitudeDegrees>-6.3214665837585926055908203125</LongitudeDegrees>
            </Position>
            <AltitudeMeters>289.79998779296875</AltitudeMeters>
            <DistanceMeters>NAN</DistanceMeters>
          </Trackpoint>
          <Trackpoint>
            <Time>2019-10-09T09:45:48.000Z</Time>
            <Position>
              <LatitudeDegrees>39.0161110460758209228515625</LatitudeDegrees>
              <LongitudeDegrees>-6.32147647440433502197265625</LongitudeDegrees>
            </Position>
            <AltitudeMeters>289.600006103515625</AltitudeMeters>
            <DistanceMeters>NAN</DistanceMeters>
          </Trackpoint>
          <Trackpoint>
            <Time>2019-10-09T09:45:49.000Z</Time>
            <Position>
              <LatitudeDegrees>39.01606620289385318756103515625</LatitudeDegrees>
              <LongitudeDegrees>-6.3214920647442340850830078125</LongitudeDegrees>
            </Position>
            <AltitudeMeters>289.79998779296875</AltitudeMeters>
            <DistanceMeters>NAN</DistanceMeters>
          </Trackpoint>
          <Trackpoint>
            <Time>2019-10-09T09:45:52.000Z</Time>
            <Position>
              <LatitudeDegrees>39.015928991138935089111328125</LatitudeDegrees>
              <LongitudeDegrees>-6.321537159383296966552734375</LongitudeDegrees>
            </Position>
            <AltitudeMeters>290.399993896484375</AltitudeMeters>
            <DistanceMeters>NAN</DistanceMeters>
          </Trackpoint>
          <Trackpoint>
            <Time>2019-10-09T09:45:53.000Z</Time>
            <Position>
              <LatitudeDegrees>39.0158835612237453460693359375</LatitudeDegrees>
              <LongitudeDegrees>-6.3215550966560840606689453125</LongitudeDegrees>
            </Position>
            <AltitudeMeters>290.600006103515625</AltitudeMeters>
            <DistanceMeters>NAN</DistanceMeters>
          </Trackpoint>
          <Trackpoint>
            <Time>2019-10-09T09:45:55.000Z</Time>
            <Position>
              <LatitudeDegrees>39.01579228229820728302001953125</LatitudeDegrees>
              <LongitudeDegrees>-6.32159055210649967193603515625</LongitudeDegrees>
            </Position>
            <AltitudeMeters>290.399993896484375</AltitudeMeters>
            <DistanceMeters>NAN</DistanceMeters>
          </Trackpoint>
          <Trackpoint>
            <Time>2019-10-09T09:46:03.000Z</Time>
            <Position>
              <LatitudeDegrees>39.0154363028705120086669921875</LatitudeDegrees>
              <LongitudeDegrees>-6.32174125872552394866943359375</LongitudeDegrees>
            </Position>
            <AltitudeMeters>290.399993896484375</AltitudeMeters>
            <DistanceMeters>NAN</DistanceMeters>
          </Trackpoint>
          <Trackpoint>
            <Time>2019-10-09T09:46:10.000Z</Time>
            <Position>
              <LatitudeDegrees>39.0151174552738666534423828125</LatitudeDegrees>
              <LongitudeDegrees>-6.32188090123236179351806640625</LongitudeDegrees>
            </Position>
            <AltitudeMeters>290</AltitudeMeters>
            <DistanceMeters>NAN</DistanceMeters>
          </Trackpoint>
          <Trackpoint>
            <Time>2019-10-09T09:46:12.000Z</Time>
            <Position>
              <LatitudeDegrees>39.015026092529296875</LatitudeDegrees>
              <LongitudeDegrees>-6.321917362511157989501953125</LongitudeDegrees>
            </Position>
            <AltitudeMeters>290</AltitudeMeters>
            <DistanceMeters>NAN</DistanceMeters>
          </Trackpoint>
          <Trackpoint>
            <Time>2019-10-09T09:46:15.000Z</Time>
            <Position>
              <LatitudeDegrees>39.01488301344215869903564453125</LatitudeDegrees>
              <LongitudeDegrees>-6.32197377271950244903564453125</LongitudeDegrees>
            </Position>
            <AltitudeMeters>289.79998779296875</AltitudeMeters>
            <DistanceMeters>NAN</DistanceMeters>
          </Trackpoint>
          <Trackpoint>
            <Time>2019-10-09T09:46:16.000Z</Time>
            <Position>
              <LatitudeDegrees>39.01483406312763690948486328125</LatitudeDegrees>
              <LongitudeDegrees>-6.32199506275355815887451171875</LongitudeDegrees>
            </Position>
            <AltitudeMeters>289</AltitudeMeters>
            <DistanceMeters>NAN</DistanceMeters>
          </Trackpoint>
          <Trackpoint>
            <Time>2019-10-09T09:46:17.000Z</Time>
            <Position>
              <LatitudeDegrees>39.01478377170860767364501953125</LatitudeDegrees>
              <LongitudeDegrees>-6.322013251483440399169921875</LongitudeDegrees>
            </Position>
            <AltitudeMeters>289</AltitudeMeters>
            <DistanceMeters>NAN</DistanceMeters>
          </Trackpoint>
          <Trackpoint>
            <Time>2019-10-09T09:46:20.000Z</Time>
            <Position>
              <LatitudeDegrees>39.01462837122380733489990234375</LatitudeDegrees>
              <LongitudeDegrees>-6.3220680691301822662353515625</LongitudeDegrees>
            </Position>
            <AltitudeMeters>288.399993896484375</AltitudeMeters>
            <DistanceMeters>NAN</DistanceMeters>
          </Trackpoint>
          <Trackpoint>
            <Time>2019-10-09T09:46:24.000Z</Time>
            <Position>
              <LatitudeDegrees>39.01441379450261592864990234375</LatitudeDegrees>
              <LongitudeDegrees>-6.32214493118226528167724609375</LongitudeDegrees>
            </Position>
            <AltitudeMeters>288</AltitudeMeters>
            <DistanceMeters>NAN</DistanceMeters>
          </Trackpoint>
          <Trackpoint>
            <Time>2019-10-09T09:46:26.000Z</Time>
            <Position>
              <LatitudeDegrees>39.0143023990094661712646484375</LatitudeDegrees>
              <LongitudeDegrees>-6.32218784652650356292724609375</LongitudeDegrees>
            </Position>
            <AltitudeMeters>287.79998779296875</AltitudeMeters>
            <DistanceMeters>NAN</DistanceMeters>
          </Trackpoint>
          <Trackpoint>
            <Time>2019-10-09T09:46:27.000Z</Time>
            <Position>
              <LatitudeDegrees>39.01424515061080455780029296875</LatitudeDegrees>
              <LongitudeDegrees>-6.322205699980258941650390625</LongitudeDegrees>
            </Position>
            <AltitudeMeters>288</AltitudeMeters>
            <DistanceMeters>NAN</DistanceMeters>
          </Trackpoint>
          <Trackpoint>
            <Time>2019-10-09T09:46:28.000Z</Time>
            <Position>
              <LatitudeDegrees>39.01418731547892093658447265625</LatitudeDegrees>
              <LongitudeDegrees>-6.32222690619528293609619140625</LongitudeDegrees>
            </Position>
            <AltitudeMeters>287.600006103515625</AltitudeMeters>
            <DistanceMeters>NAN</DistanceMeters>
          </Trackpoint>
          <Trackpoint>
            <Time>2019-10-09T09:46:30.000Z</Time>
            <Position>
              <LatitudeDegrees>39.01406812481582164764404296875</LatitudeDegrees>
              <LongitudeDegrees>-6.3222712464630603790283203125</LongitudeDegrees>
            </Position>
            <AltitudeMeters>286.79998779296875</AltitudeMeters>
            <DistanceMeters>NAN</DistanceMeters>
          </Trackpoint>
          <Trackpoint>
            <Time>2019-10-09T09:46:31.000Z</Time>
            <Position>
              <LatitudeDegrees>39.0140066854655742645263671875</LatitudeDegrees>
              <LongitudeDegrees>-6.32229588925838470458984375</LongitudeDegrees>
            </Position>
            <AltitudeMeters>286.79998779296875</AltitudeMeters>
            <DistanceMeters>NAN</DistanceMeters>
          </Trackpoint>
          <Trackpoint>
            <Time>2019-10-09T09:46:35.000Z</Time>
            <Position>
              <LatitudeDegrees>39.013752378523349761962890625</LatitudeDegrees>
              <LongitudeDegrees>-6.32237761281430721282958984375</LongitudeDegrees>
            </Position>
            <AltitudeMeters>285.399993896484375</AltitudeMeters>
            <DistanceMeters>NAN</DistanceMeters>
          </Trackpoint>
          <Trackpoint>
            <Time>2019-10-09T09:46:37.000Z</Time>
            <Position>
              <LatitudeDegrees>39.01362589560449123382568359375</LatitudeDegrees>
              <LongitudeDegrees>-6.32242823950946331024169921875</LongitudeDegrees>
            </Position>
            <AltitudeMeters>285</AltitudeMeters>
            <DistanceMeters>NAN</DistanceMeters>
          </Trackpoint>
          <Trackpoint>
            <Time>2019-10-09T09:46:39.000Z</Time>
            <Position>
              <LatitudeDegrees>39.0134958922863006591796875</LatitudeDegrees>
              <LongitudeDegrees>-6.3224749267101287841796875</LongitudeDegrees>
            </Position>
            <AltitudeMeters>284.20001220703125</AltitudeMeters>
            <DistanceMeters>NAN</DistanceMeters>
          </Trackpoint>
          <Trackpoint>
            <Time>2019-10-09T09:46:43.000Z</Time>
            <Position>
              <LatitudeDegrees>39.01323379017412662506103515625</LatitudeDegrees>
              <LongitudeDegrees>-6.3225696422159671783447265625</LongitudeDegrees>
            </Position>
            <AltitudeMeters>282.79998779296875</AltitudeMeters>
            <DistanceMeters>NAN</DistanceMeters>
          </Trackpoint>
          <Trackpoint>
            <Time>2019-10-09T09:46:45.000Z</Time>
            <Position>
              <LatitudeDegrees>39.01310068555176258087158203125</LatitudeDegrees>
              <LongitudeDegrees>-6.322614736855030059814453125</LongitudeDegrees>
            </Position>
            <AltitudeMeters>282.399993896484375</AltitudeMeters>
            <DistanceMeters>NAN</DistanceMeters>
          </Trackpoint>
          <Trackpoint>
            <Time>2019-10-09T09:46:47.000Z</Time>
            <Position>
              <LatitudeDegrees>39.012963138520717620849609375</LatitudeDegrees>
              <LongitudeDegrees>-6.322658322751522064208984375</LongitudeDegrees>
            </Position>
            <AltitudeMeters>282</AltitudeMeters>
            <DistanceMeters>NAN</DistanceMeters>
          </Trackpoint>
          <Trackpoint>
            <Time>2019-10-09T09:46:48.000Z</Time>
            <Position>
              <LatitudeDegrees>39.01289415545761585235595703125</LatitudeDegrees>
              <LongitudeDegrees>-6.32268254645168781280517578125</LongitudeDegrees>
            </Position>
            <AltitudeMeters>282</AltitudeMeters>
            <DistanceMeters>NAN</DistanceMeters>
          </Trackpoint>
          <Trackpoint>
            <Time>2019-10-09T09:46:49.000Z</Time>
            <Position>
              <LatitudeDegrees>39.0128253400325775146484375</LatitudeDegrees>
              <LongitudeDegrees>-6.32270894944667816162109375</LongitudeDegrees>
            </Position>
            <AltitudeMeters>281.79998779296875</AltitudeMeters>
            <DistanceMeters>NAN</DistanceMeters>
          </Trackpoint>
          <Trackpoint>
            <Time>2019-10-09T09:46:50.000Z</Time>
            <Position>
              <LatitudeDegrees>39.0127557702362537384033203125</LatitudeDegrees>
              <LongitudeDegrees>-6.322733424603939056396484375</LongitudeDegrees>
            </Position>
            <AltitudeMeters>281.79998779296875</AltitudeMeters>
            <DistanceMeters>NAN</DistanceMeters>
          </Trackpoint>
          <Trackpoint>
            <Time>2019-10-09T09:46:52.000Z</Time>
            <Position>
              <LatitudeDegrees>39.01261285878717899322509765625</LatitudeDegrees>
              <LongitudeDegrees>-6.32278279401361942291259765625</LongitudeDegrees>
            </Position>
            <AltitudeMeters>280.79998779296875</AltitudeMeters>
            <DistanceMeters>NAN</DistanceMeters>
          </Trackpoint>
          <Trackpoint>
            <Time>2019-10-09T09:46:53.000Z</Time>
            <Position>
              <LatitudeDegrees>39.01254110969603061676025390625</LatitudeDegrees>
              <LongitudeDegrees>-6.32280710153281688690185546875</LongitudeDegrees>
            </Position>
            <AltitudeMeters>280.399993896484375</AltitudeMeters>
            <DistanceMeters>NAN</DistanceMeters>
          </Trackpoint>
          <Trackpoint>
            <Time>2019-10-09T09:46:54.000Z</Time>
            <Position>
              <LatitudeDegrees>39.01246835477650165557861328125</LatitudeDegrees>
              <LongitudeDegrees>-6.32283090613782405853271484375</LongitudeDegrees>
            </Position>
            <AltitudeMeters>280.20001220703125</AltitudeMeters>
            <DistanceMeters>NAN</DistanceMeters>
          </Trackpoint>
          <Trackpoint>
            <Time>2019-10-09T09:46:58.000Z</Time>
            <Position>
              <LatitudeDegrees>39.0121727250516414642333984375</LatitudeDegrees>
              <LongitudeDegrees>-6.322934590280055999755859375</LongitudeDegrees>
            </Position>
            <AltitudeMeters>279.20001220703125</AltitudeMeters>
            <DistanceMeters>NAN</DistanceMeters>
          </Trackpoint>
          <Trackpoint>
            <Time>2019-10-09T09:46:59.000Z</Time>
            <Position>
              <LatitudeDegrees>39.01209619827568531036376953125</LatitudeDegrees>
              <LongitudeDegrees>-6.32296149618923664093017578125</LongitudeDegrees>
            </Position>
            <AltitudeMeters>278.600006103515625</AltitudeMeters>
            <DistanceMeters>NAN</DistanceMeters>
          </Trackpoint>
          <Trackpoint>
            <Time>2019-10-09T09:47:00.000Z</Time>
            <Position>
              <LatitudeDegrees>39.01201975531876087188720703125</LatitudeDegrees>
              <LongitudeDegrees>-6.3229877315461635589599609375</LongitudeDegrees>
            </Position>
            <AltitudeMeters>278.399993896484375</AltitudeMeters>
            <DistanceMeters>NAN</DistanceMeters>
          </Trackpoint>
          <Trackpoint>
            <Time>2019-10-09T09:47:01.000Z</Time>
            <Position>
              <LatitudeDegrees>39.01194356381893157958984375</LatitudeDegrees>
              <LongitudeDegrees>-6.32301497273147106170654296875</LongitudeDegrees>
            </Position>
            <AltitudeMeters>277.600006103515625</AltitudeMeters>
            <DistanceMeters>NAN</DistanceMeters>
          </Trackpoint>
          <Trackpoint>
            <Time>2019-10-09T09:47:03.000Z</Time>
            <Position>
              <LatitudeDegrees>39.0117891691625118255615234375</LatitudeDegrees>
              <LongitudeDegrees>-6.323066689074039459228515625</LongitudeDegrees>
            </Position>
            <AltitudeMeters>277.399993896484375</AltitudeMeters>
            <DistanceMeters>NAN</DistanceMeters>
          </Trackpoint>
          <Trackpoint>
            <Time>2019-10-09T09:47:04.000Z</Time>
            <Position>
              <LatitudeDegrees>39.0117110498249530792236328125</LatitudeDegrees>
              <LongitudeDegrees>-6.3230909965932369232177734375</LongitudeDegrees>
            </Position>
            <AltitudeMeters>277.20001220703125</AltitudeMeters>
            <DistanceMeters>NAN</DistanceMeters>
          </Trackpoint>
          <Trackpoint>
            <Time>2019-10-09T09:47:05.000Z</Time>
            <Position>
              <LatitudeDegrees>39.0116352774202823638916015625</LatitudeDegrees>
              <LongitudeDegrees>-6.3231178186833858489990234375</LongitudeDegrees>
            </Position>
            <AltitudeMeters>276.399993896484375</AltitudeMeters>
            <DistanceMeters>NAN</DistanceMeters>
          </Trackpoint>
          <Trackpoint>
            <Time>2019-10-09T09:47:08.000Z</Time>
            <Position>
              <LatitudeDegrees>39.01140888221561908721923828125</LatitudeDegrees>
              <LongitudeDegrees>-6.32319468073546886444091796875</LongitudeDegrees>
            </Position>
            <AltitudeMeters>276.399993896484375</AltitudeMeters>
            <DistanceMeters>NAN</DistanceMeters>
          </Trackpoint>
          <Trackpoint>
            <Time>2019-10-09T09:47:11.000Z</Time>
            <Position>
              <LatitudeDegrees>39.01118726469576358795166015625</LatitudeDegrees>
              <LongitudeDegrees>-6.32327430881559848785400390625</LongitudeDegrees>
            </Position>
            <AltitudeMeters>276.600006103515625</AltitudeMeters>
            <DistanceMeters>NAN</DistanceMeters>
          </Trackpoint>
          <Trackpoint>
            <Time>2019-10-09T09:47:13.000Z</Time>
            <Position>
              <LatitudeDegrees>39.01103974319994449615478515625</LatitudeDegrees>
              <LongitudeDegrees>-6.32332460023462772369384765625</LongitudeDegrees>
            </Position>
            <AltitudeMeters>276</AltitudeMeters>
            <DistanceMeters>NAN</DistanceMeters>
          </Trackpoint>
          <Trackpoint>
            <Time>2019-10-09T09:47:15.000Z</Time>
            <Position>
              <LatitudeDegrees>39.010893143713474273681640625</LatitudeDegrees>
              <LongitudeDegrees>-6.32337656803429126739501953125</LongitudeDegrees>
            </Position>
            <AltitudeMeters>275.600006103515625</AltitudeMeters>
            <DistanceMeters>NAN</DistanceMeters>
          </Trackpoint>
          <Trackpoint>
            <Time>2019-10-09T09:47:16.000Z</Time>
            <Position>
              <LatitudeDegrees>39.01082080788910388946533203125</LatitudeDegrees>
              <LongitudeDegrees>-6.32340054027736186981201171875</LongitudeDegrees>
            </Position>
            <AltitudeMeters>275.20001220703125</AltitudeMeters>
            <DistanceMeters>NAN</DistanceMeters>
          </Trackpoint>
          <Trackpoint>
            <Time>2019-10-09T09:47:18.000Z</Time>
            <Position>
              <LatitudeDegrees>39.01067764498293399810791015625</LatitudeDegrees>
              <LongitudeDegrees>-6.3234497420489788055419921875</LongitudeDegrees>
            </Position>
            <AltitudeMeters>274.600006103515625</AltitudeMeters>
            <DistanceMeters>NAN</DistanceMeters>
          </Trackpoint>
          <Trackpoint>
            <Time>2019-10-09T09:47:21.000Z</Time>
            <Position>
              <LatitudeDegrees>39.01046792976558208465576171875</LatitudeDegrees>
              <LongitudeDegrees>-6.32352476008236408233642578125</LongitudeDegrees>
            </Position>
            <AltitudeMeters>274.20001220703125</AltitudeMeters>
            <DistanceMeters>NAN</DistanceMeters>
          </Trackpoint>
          <Trackpoint>
            <Time>2019-10-09T09:47:22.000Z</Time>
            <Position>
              <LatitudeDegrees>39.01039861142635345458984375</LatitudeDegrees>
              <LongitudeDegrees>-6.32354839704930782318115234375</LongitudeDegrees>
            </Position>
            <AltitudeMeters>274</AltitudeMeters>
            <DistanceMeters>NAN</DistanceMeters>
          </Trackpoint>
          <Trackpoint>
            <Time>2019-10-09T09:47:23.000Z</Time>
            <Position>
              <LatitudeDegrees>39.0103303827345371246337890625</LatitudeDegrees>
              <LongitudeDegrees>-6.32357354275882244110107421875</LongitudeDegrees>
            </Position>
            <AltitudeMeters>273.79998779296875</AltitudeMeters>
            <DistanceMeters>NAN</DistanceMeters>
          </Trackpoint>
          <Trackpoint>
            <Time>2019-10-09T09:47:25.000Z</Time>
            <Position>
              <LatitudeDegrees>39.01019652374088764190673828125</LatitudeDegrees>
              <LongitudeDegrees>-6.32362090051174163818359375</LongitudeDegrees>
            </Position>
            <AltitudeMeters>273.399993896484375</AltitudeMeters>
            <DistanceMeters>NAN</DistanceMeters>
          </Trackpoint>
          <Trackpoint>
            <Time>2019-10-09T09:47:27.000Z</Time>
            <Position>
              <LatitudeDegrees>39.01006325148046016693115234375</LatitudeDegrees>
              <LongitudeDegrees>-6.3236716948449611663818359375</LongitudeDegrees>
            </Position>
            <AltitudeMeters>273.79998779296875</AltitudeMeters>
            <DistanceMeters>NAN</DistanceMeters>
          </Trackpoint>
          <Trackpoint>
            <Time>2019-10-09T09:47:31.000Z</Time>
            <Position>
              <LatitudeDegrees>39.00979100726544857025146484375</LatitudeDegrees>
              <LongitudeDegrees>-6.32376213558018207550048828125</LongitudeDegrees>
            </Position>
            <AltitudeMeters>273.20001220703125</AltitudeMeters>
            <DistanceMeters>NAN</DistanceMeters>
          </Trackpoint>
          <Trackpoint>
            <Time>2019-10-09T09:47:33.000Z</Time>
            <Position>
              <LatitudeDegrees>39.009652622044086456298828125</LatitudeDegrees>
              <LongitudeDegrees>-6.32381561212241649627685546875</LongitudeDegrees>
            </Position>
            <AltitudeMeters>272.79998779296875</AltitudeMeters>
            <DistanceMeters>NAN</DistanceMeters>
          </Trackpoint>
          <Trackpoint>
            <Time>2019-10-09T09:47:34.000Z</Time>
            <Position>
              <LatitudeDegrees>39.0095827169716358184814453125</LatitudeDegrees>
              <LongitudeDegrees>-6.32383950054645538330078125</LongitudeDegrees>
            </Position>
            <AltitudeMeters>272.399993896484375</AltitudeMeters>
            <DistanceMeters>NAN</DistanceMeters>
          </Trackpoint>
          <Trackpoint>
            <Time>2019-10-09T09:47:35.000Z</Time>
            <Position>
              <LatitudeDegrees>39.00951306335628032684326171875</LatitudeDegrees>
              <LongitudeDegrees>-6.32386808283627033233642578125</LongitudeDegrees>
            </Position>
            <AltitudeMeters>272</AltitudeMeters>
            <DistanceMeters>NAN</DistanceMeters>
          </Trackpoint>
          <Trackpoint>
            <Time>2019-10-09T09:47:36.000Z</Time>
            <Position>
              <LatitudeDegrees>39.00944299064576625823974609375</LatitudeDegrees>
              <LongitudeDegrees>-6.32389322854578495025634765625</LongitudeDegrees>
            </Position>
            <AltitudeMeters>271.399993896484375</AltitudeMeters>
            <DistanceMeters>NAN</DistanceMeters>
          </Trackpoint>
          <Trackpoint>
            <Time>2019-10-09T09:47:38.000Z</Time>
            <Position>
              <LatitudeDegrees>39.0093034319579601287841796875</LatitudeDegrees>
              <LongitudeDegrees>-6.32394351996481418609619140625</LongitudeDegrees>
            </Position>
            <AltitudeMeters>271</AltitudeMeters>
            <DistanceMeters>NAN</DistanceMeters>
          </Trackpoint>
          <Trackpoint>
            <Time>2019-10-09T09:47:39.000Z</Time>
            <Position>
              <LatitudeDegrees>39.0092336945235729217529296875</LatitudeDegrees>
              <LongitudeDegrees>-6.3239715993404388427734375</LongitudeDegrees>
            </Position>
            <AltitudeMeters>270.79998779296875</AltitudeMeters>
            <DistanceMeters>NAN</DistanceMeters>
          </Trackpoint>
          <Trackpoint>
            <Time>2019-10-09T09:47:42.000Z</Time>
            <Position>
              <LatitudeDegrees>39.00902607478201389312744140625</LatitudeDegrees>
              <LongitudeDegrees>-6.32406371645629405975341796875</LongitudeDegrees>
            </Position>
            <AltitudeMeters>269.600006103515625</AltitudeMeters>
            <DistanceMeters>NAN</DistanceMeters>
          </Trackpoint>
          <Trackpoint>
            <Time>2019-10-09T09:47:45.000Z</Time>
            <Position>
              <LatitudeDegrees>39.00882071815431118011474609375</LatitudeDegrees>
              <LongitudeDegrees>-6.32417083717882633209228515625</LongitudeDegrees>
            </Position>
            <AltitudeMeters>269.20001220703125</AltitudeMeters>
            <DistanceMeters>NAN</DistanceMeters>
          </Trackpoint>
          <Trackpoint>
            <Time>2019-10-09T09:47:46.000Z</Time>
            <Position>
              <LatitudeDegrees>39.00875215418636798858642578125</LatitudeDegrees>
              <LongitudeDegrees>-6.324206292629241943359375</LongitudeDegrees>
            </Position>
            <AltitudeMeters>268.600006103515625</AltitudeMeters>
            <DistanceMeters>NAN</DistanceMeters>
          </Trackpoint>
          <Trackpoint>
            <Time>2019-10-09T09:47:47.000Z</Time>
            <Position>
              <LatitudeDegrees>39.00868493132293224334716796875</LatitudeDegrees>
              <LongitudeDegrees>-6.32424426265060901641845703125</LongitudeDegrees>
            </Position>
            <AltitudeMeters>268.20001220703125</AltitudeMeters>
            <DistanceMeters>NAN</DistanceMeters>
          </Trackpoint>
          <Trackpoint>
            <Time>2019-10-09T09:47:49.000Z</Time>
            <Position>
              <LatitudeDegrees>39.00855325162410736083984375</LatitudeDegrees>
              <LongitudeDegrees>-6.324326656758785247802734375</LongitudeDegrees>
            </Position>
            <AltitudeMeters>267.600006103515625</AltitudeMeters>
            <DistanceMeters>NAN</DistanceMeters>
          </Trackpoint>
          <Trackpoint>
            <Time>2019-10-09T09:47:50.000Z</Time>
            <Position>
              <LatitudeDegrees>39.0084877051413059234619140625</LatitudeDegrees>
              <LongitudeDegrees>-6.3243700750172138214111328125</LongitudeDegrees>
            </Position>
            <AltitudeMeters>267.399993896484375</AltitudeMeters>
            <DistanceMeters>NAN</DistanceMeters>
          </Trackpoint>
          <Trackpoint>
            <Time>2019-10-09T09:47:54.000Z</Time>
            <Position>
              <LatitudeDegrees>39.008225686848163604736328125</LatitudeDegrees>
              <LongitudeDegrees>-6.32454249076545238494873046875</LongitudeDegrees>
            </Position>
            <AltitudeMeters>267</AltitudeMeters>
            <DistanceMeters>NAN</DistanceMeters>
          </Trackpoint>
          <Trackpoint>
            <Time>2019-10-09T09:47:55.000Z</Time>
            <Position>
              <LatitudeDegrees>39.00816022418439388275146484375</LatitudeDegrees>
              <LongitudeDegrees>-6.32459051907062530517578125</LongitudeDegrees>
            </Position>
            <AltitudeMeters>266.20001220703125</AltitudeMeters>
            <DistanceMeters>NAN</DistanceMeters>
          </Trackpoint>
          <Trackpoint>
            <Time>2019-10-09T09:47:57.000Z</Time>
            <Position>
              <LatitudeDegrees>39.0080290473997592926025390625</LatitudeDegrees>
              <LongitudeDegrees>-6.324684731662273406982421875</LongitudeDegrees>
            </Position>
            <AltitudeMeters>265.600006103515625</AltitudeMeters>
            <DistanceMeters>NAN</DistanceMeters>
          </Trackpoint>
          <Trackpoint>
            <Time>2019-10-09T09:48:02.000Z</Time>
            <Position>
              <LatitudeDegrees>39.0077050030231475830078125</LatitudeDegrees>
              <LongitudeDegrees>-6.32492235861718654632568359375</LongitudeDegrees>
            </Position>
            <AltitudeMeters>265</AltitudeMeters>
            <DistanceMeters>NAN</DistanceMeters>
          </Trackpoint>
          <Trackpoint>
            <Time>2019-10-09T09:48:04.000Z</Time>
            <Position>
              <LatitudeDegrees>39.00757868774235248565673828125</LatitudeDegrees>
              <LongitudeDegrees>-6.325021348893642425537109375</LongitudeDegrees>
            </Position>
            <AltitudeMeters>264.600006103515625</AltitudeMeters>
            <DistanceMeters>NAN</DistanceMeters>
          </Trackpoint>
          <Trackpoint>
            <Time>2019-10-09T09:48:05.000Z</Time>
            <Position>
              <LatitudeDegrees>39.0075164102017879486083984375</LatitudeDegrees>
              <LongitudeDegrees>-6.32507105357944965362548828125</LongitudeDegrees>
            </Position>
            <AltitudeMeters>264.20001220703125</AltitudeMeters>
            <DistanceMeters>NAN</DistanceMeters>
          </Trackpoint>
          <Trackpoint>
            <Time>2019-10-09T09:48:07.000Z</Time>
            <Position>
              <LatitudeDegrees>39.0073938667774200439453125</LatitudeDegrees>
              <LongitudeDegrees>-6.32517255842685699462890625</LongitudeDegrees>
            </Position>
            <AltitudeMeters>263.79998779296875</AltitudeMeters>
            <DistanceMeters>NAN</DistanceMeters>
          </Trackpoint>
          <Trackpoint>
            <Time>2019-10-09T09:48:10.000Z</Time>
            <Position>
              <LatitudeDegrees>39.007214494049549102783203125</LatitudeDegrees>
              <LongitudeDegrees>-6.325340531766414642333984375</LongitudeDegrees>
            </Position>
            <AltitudeMeters>263.600006103515625</AltitudeMeters>
            <DistanceMeters>NAN</DistanceMeters>
          </Trackpoint>
          <Trackpoint>
            <Time>2019-10-09T09:48:12.000Z</Time>
            <Position>
              <LatitudeDegrees>39.0070946328341960906982421875</LatitudeDegrees>
              <LongitudeDegrees>-6.3254597224295139312744140625</LongitudeDegrees>
            </Position>
            <AltitudeMeters>263</AltitudeMeters>
            <DistanceMeters>NAN</DistanceMeters>
          </Trackpoint>
          <Trackpoint>
            <Time>2019-10-09T09:48:13.000Z</Time>
            <Position>
              <LatitudeDegrees>39.00703512132167816162109375</LatitudeDegrees>
              <LongitudeDegrees>-6.32552065886557102203369140625</LongitudeDegrees>
            </Position>
            <AltitudeMeters>262.79998779296875</AltitudeMeters>
            <DistanceMeters>NAN</DistanceMeters>
          </Trackpoint>
          <Trackpoint>
            <Time>2019-10-09T09:48:15.000Z</Time>
            <Position>
              <LatitudeDegrees>39.00691987015306949615478515625</LatitudeDegrees>
              <LongitudeDegrees>-6.32565007545053958892822265625</LongitudeDegrees>
            </Position>
            <AltitudeMeters>262.20001220703125</AltitudeMeters>
            <DistanceMeters>NAN</DistanceMeters>
          </Trackpoint>
          <Trackpoint>
            <Time>2019-10-09T09:48:16.000Z</Time>
            <Position>
              <LatitudeDegrees>39.0068622864782810211181640625</LatitudeDegrees>
              <LongitudeDegrees>-6.32571495138108730316162109375</LongitudeDegrees>
            </Position>
            <AltitudeMeters>262</AltitudeMeters>
            <DistanceMeters>NAN</DistanceMeters>
          </Trackpoint>
          <Trackpoint>
            <Time>2019-10-09T09:48:17.000Z</Time>
            <Position>
              <LatitudeDegrees>39.0068052895367145538330078125</LatitudeDegrees>
              <LongitudeDegrees>-6.32578116841614246368408203125</LongitudeDegrees>
            </Position>
            <AltitudeMeters>261.600006103515625</AltitudeMeters>
            <DistanceMeters>NAN</DistanceMeters>
          </Trackpoint>
          <Trackpoint>
            <Time>2019-10-09T09:48:20.000Z</Time>
            <Position>
              <LatitudeDegrees>39.006638824939727783203125</LatitudeDegrees>
              <LongitudeDegrees>-6.32597780786454677581787109375</LongitudeDegrees>
            </Position>
            <AltitudeMeters>260.399993896484375</AltitudeMeters>
            <DistanceMeters>NAN</DistanceMeters>
          </Trackpoint>
          <Trackpoint>
            <Time>2019-10-09T09:48:26.000Z</Time>
            <Position>
              <LatitudeDegrees>39.0063104219734668731689453125</LatitudeDegrees>
              <LongitudeDegrees>-6.3263844139873981475830078125</LongitudeDegrees>
            </Position>
            <AltitudeMeters>260</AltitudeMeters>
            <DistanceMeters>NAN</DistanceMeters>
          </Trackpoint>
          <Trackpoint>
            <Time>2019-10-09T09:48:28.000Z</Time>
            <Position>
              <LatitudeDegrees>39.006195925176143646240234375</LatitudeDegrees>
              <LongitudeDegrees>-6.326522044837474822998046875</LongitudeDegrees>
            </Position>
            <AltitudeMeters>259.399993896484375</AltitudeMeters>
            <DistanceMeters>NAN</DistanceMeters>
          </Trackpoint>
          <Trackpoint>
            <Time>2019-10-09T09:48:29.000Z</Time>
            <Position>
              <LatitudeDegrees>39.00613968260586261749267578125</LatitudeDegrees>
              <LongitudeDegrees>-6.3265916146337985992431640625</LongitudeDegrees>
            </Position>
            <AltitudeMeters>259.399993896484375</AltitudeMeters>
            <DistanceMeters>NAN</DistanceMeters>
          </Trackpoint>
          <Trackpoint>
            <Time>2019-10-09T09:48:33.000Z</Time>
            <Position>
              <LatitudeDegrees>39.0059151314198970794677734375</LatitudeDegrees>
              <LongitudeDegrees>-6.32686226628720760345458984375</LongitudeDegrees>
            </Position>
            <AltitudeMeters>259.600006103515625</AltitudeMeters>
            <DistanceMeters>NAN</DistanceMeters>
          </Trackpoint>
          <Trackpoint>
            <Time>2019-10-09T09:48:35.000Z</Time>
            <Position>
              <LatitudeDegrees>39.0058058314025402069091796875</LatitudeDegrees>
              <LongitudeDegrees>-6.3269972987473011016845703125</LongitudeDegrees>
            </Position>
            <AltitudeMeters>259</AltitudeMeters>
            <DistanceMeters>NAN</DistanceMeters>
          </Trackpoint>
          <Trackpoint>
            <Time>2019-10-09T09:48:38.000Z</Time>
            <Position>
              <LatitudeDegrees>39.00564548559486865997314453125</LatitudeDegrees>
              <LongitudeDegrees>-6.32719117216765880584716796875</LongitudeDegrees>
            </Position>
            <AltitudeMeters>258.79998779296875</AltitudeMeters>
            <DistanceMeters>NAN</DistanceMeters>
          </Trackpoint>
          <Trackpoint>
            <Time>2019-10-09T09:48:39.000Z</Time>
            <Position>
              <LatitudeDegrees>39.00559209287166595458984375</LatitudeDegrees>
              <LongitudeDegrees>-6.3272559642791748046875</LongitudeDegrees>
            </Position>
            <AltitudeMeters>258.79998779296875</AltitudeMeters>
            <DistanceMeters>NAN</DistanceMeters>
          </Trackpoint>
          <Trackpoint>
            <Time>2019-10-09T09:48:41.000Z</Time>
            <Position>
              <LatitudeDegrees>39.00548773817718029022216796875</LatitudeDegrees>
              <LongitudeDegrees>-6.3273825310170650482177734375</LongitudeDegrees>
            </Position>
            <AltitudeMeters>258.399993896484375</AltitudeMeters>
            <DistanceMeters>NAN</DistanceMeters>
          </Trackpoint>
          <Trackpoint>
            <Time>2019-10-09T09:48:42.000Z</Time>
            <Position>
              <LatitudeDegrees>39.00543593801558017730712890625</LatitudeDegrees>
              <LongitudeDegrees>-6.3274458982050418853759765625</LongitudeDegrees>
            </Position>
            <AltitudeMeters>258.399993896484375</AltitudeMeters>
            <DistanceMeters>NAN</DistanceMeters>
          </Trackpoint>
          <Trackpoint>
            <Time>2019-10-09T09:48:44.000Z</Time>
            <Position>
              <LatitudeDegrees>39.00533367879688739776611328125</LatitudeDegrees>
              <LongitudeDegrees>-6.327571459114551544189453125</LongitudeDegrees>
            </Position>
            <AltitudeMeters>258.399993896484375</AltitudeMeters>
            <DistanceMeters>NAN</DistanceMeters>
          </Trackpoint>
          <Trackpoint>
            <Time>2019-10-09T09:48:48.000Z</Time>
            <Position>
              <LatitudeDegrees>39.005132429301738739013671875</LatitudeDegrees>
              <LongitudeDegrees>-6.32782249711453914642333984375</LongitudeDegrees>
            </Position>
            <AltitudeMeters>258.20001220703125</AltitudeMeters>
            <DistanceMeters>NAN</DistanceMeters>
          </Trackpoint>
          <Trackpoint>
            <Time>2019-10-09T09:48:53.000Z</Time>
            <Position>
              <LatitudeDegrees>39.00488625280559062957763671875</LatitudeDegrees>
              <LongitudeDegrees>-6.32812558673322200775146484375</LongitudeDegrees>
            </Position>
            <AltitudeMeters>258.399993896484375</AltitudeMeters>
            <DistanceMeters>NAN</DistanceMeters>
          </Trackpoint>
          <Trackpoint>
            <Time>2019-10-09T09:48:54.000Z</Time>
            <Position>
              <LatitudeDegrees>39.00483981706202030181884765625</LatitudeDegrees>
              <LongitudeDegrees>-6.32818400859832763671875</LongitudeDegrees>
            </Position>
            <AltitudeMeters>258.20001220703125</AltitudeMeters>
            <DistanceMeters>NAN</DistanceMeters>
          </Trackpoint>
          <Trackpoint>
            <Time>2019-10-09T09:48:58.000Z</Time>
            <Position>
              <LatitudeDegrees>39.0046571753919124603271484375</LatitudeDegrees>
              <LongitudeDegrees>-6.3284084759652614593505859375</LongitudeDegrees>
            </Position>
            <AltitudeMeters>258.399993896484375</AltitudeMeters>
            <DistanceMeters>NAN</DistanceMeters>
          </Trackpoint>
          <Trackpoint>
            <Time>2019-10-09T09:49:02.000Z</Time>
            <Position>
              <LatitudeDegrees>39.00448291562497615814208984375</LatitudeDegrees>
              <LongitudeDegrees>-6.3286274112761020660400390625</LongitudeDegrees>
            </Position>
            <AltitudeMeters>259.20001220703125</AltitudeMeters>
            <DistanceMeters>NAN</DistanceMeters>
          </Trackpoint>
          <Trackpoint>
            <Time>2019-10-09T09:49:06.000Z</Time>
            <Position>
              <LatitudeDegrees>39.0043074823915958404541015625</LatitudeDegrees>
              <LongitudeDegrees>-6.3288336060941219329833984375</LongitudeDegrees>
            </Position>
            <AltitudeMeters>259.399993896484375</AltitudeMeters>
            <DistanceMeters>NAN</DistanceMeters>
          </Trackpoint>
          <Trackpoint>
            <Time>2019-10-09T09:49:10.000Z</Time>
            <Position>
              <LatitudeDegrees>39.00413054041564464569091796875</LatitudeDegrees>
              <LongitudeDegrees>-6.32904826663434505462646484375</LongitudeDegrees>
            </Position>
            <AltitudeMeters>259</AltitudeMeters>
            <DistanceMeters>NAN</DistanceMeters>
          </Trackpoint>
          <Trackpoint>
            <Time>2019-10-09T09:49:12.000Z</Time>
            <Position>
              <LatitudeDegrees>39.00404219515621662139892578125</LatitudeDegrees>
              <LongitudeDegrees>-6.3291564770042896270751953125</LongitudeDegrees>
            </Position>
            <AltitudeMeters>258.79998779296875</AltitudeMeters>
            <DistanceMeters>NAN</DistanceMeters>
          </Trackpoint>
          <Trackpoint>
            <Time>2019-10-09T09:49:16.000Z</Time>
            <Position>
              <LatitudeDegrees>39.0038632415235042572021484375</LatitudeDegrees>
              <LongitudeDegrees>-6.32937298156321048736572265625</LongitudeDegrees>
            </Position>
            <AltitudeMeters>258.600006103515625</AltitudeMeters>
            <DistanceMeters>NAN</DistanceMeters>
          </Trackpoint>
          <Trackpoint>
            <Time>2019-10-09T09:49:18.000Z</Time>
            <Position>
              <LatitudeDegrees>39.00377330370247364044189453125</LatitudeDegrees>
              <LongitudeDegrees>-6.3294800184667110443115234375</LongitudeDegrees>
            </Position>
            <AltitudeMeters>258.399993896484375</AltitudeMeters>
            <DistanceMeters>NAN</DistanceMeters>
          </Trackpoint>
          <Trackpoint>
            <Time>2019-10-09T09:49:21.000Z</Time>
            <Position>
              <LatitudeDegrees>39.00363466702401638031005859375</LatitudeDegrees>
              <LongitudeDegrees>-6.3296337425708770751953125</LongitudeDegrees>
            </Position>
            <AltitudeMeters>258.399993896484375</AltitudeMeters>
            <DistanceMeters>NAN</DistanceMeters>
          </Trackpoint>
          <Trackpoint>
            <Time>2019-10-09T09:49:30.000Z</Time>
            <Position>
              <LatitudeDegrees>39.0031802840530872344970703125</LatitudeDegrees>
              <LongitudeDegrees>-6.33004118688404560089111328125</LongitudeDegrees>
            </Position>
            <AltitudeMeters>258.20001220703125</AltitudeMeters>
            <DistanceMeters>NAN</DistanceMeters>
          </Trackpoint>
          <Trackpoint>
            <Time>2019-10-09T09:49:35.000Z</Time>
            <Position>
              <LatitudeDegrees>39.00290410034358501434326171875</LatitudeDegrees>
              <LongitudeDegrees>-6.3302169553935527801513671875</LongitudeDegrees>
            </Position>
            <AltitudeMeters>258.20001220703125</AltitudeMeters>
            <DistanceMeters>NAN</DistanceMeters>
          </Trackpoint>
          <Trackpoint>
            <Time>2019-10-09T09:49:37.000Z</Time>
            <Position>
              <LatitudeDegrees>39.0027893520891666412353515625</LatitudeDegrees>
              <LongitudeDegrees>-6.330273784697055816650390625</LongitudeDegrees>
            </Position>
            <AltitudeMeters>258.600006103515625</AltitudeMeters>
            <DistanceMeters>NAN</DistanceMeters>
          </Trackpoint>
          <Trackpoint>
            <Time>2019-10-09T09:49:45.000Z</Time>
            <Position>
              <LatitudeDegrees>39.00229808874428272247314453125</LatitudeDegrees>
              <LongitudeDegrees>-6.33043262176215648651123046875</LongitudeDegrees>
            </Position>
            <AltitudeMeters>257.600006103515625</AltitudeMeters>
            <DistanceMeters>NAN</DistanceMeters>
          </Trackpoint>
          <Trackpoint>
            <Time>2019-10-09T09:49:53.000Z</Time>
            <Position>
              <LatitudeDegrees>39.001813866198062896728515625</LatitudeDegrees>
              <LongitudeDegrees>-6.330477632582187652587890625</LongitudeDegrees>
            </Position>
            <AltitudeMeters>258.20001220703125</AltitudeMeters>
            <DistanceMeters>NAN</DistanceMeters>
          </Trackpoint>
          <Trackpoint>
            <Time>2019-10-09T09:50:01.000Z</Time>
            <Position>
              <LatitudeDegrees>39.0013347566127777099609375</LatitudeDegrees>
              <LongitudeDegrees>-6.33046044968068599700927734375</LongitudeDegrees>
            </Position>
            <AltitudeMeters>258.600006103515625</AltitudeMeters>
            <DistanceMeters>NAN</DistanceMeters>
          </Trackpoint>
          <Trackpoint>
            <Time>2019-10-09T09:50:10.000Z</Time>
            <Position>
              <LatitudeDegrees>39.000804685056209564208984375</LatitudeDegrees>
              <LongitudeDegrees>-6.3304365612566471099853515625</LongitudeDegrees>
            </Position>
            <AltitudeMeters>258.79998779296875</AltitudeMeters>
            <DistanceMeters>NAN</DistanceMeters>
          </Trackpoint>
          <Trackpoint>
            <Time>2019-10-09T09:50:11.000Z</Time>
            <Position>
              <LatitudeDegrees>39.00074542500078678131103515625</LatitudeDegrees>
              <LongitudeDegrees>-6.330434381961822509765625</LongitudeDegrees>
            </Position>
            <AltitudeMeters>258.79998779296875</AltitudeMeters>
            <DistanceMeters>NAN</DistanceMeters>
          </Trackpoint>
          <Trackpoint>
            <Time>2019-10-09T09:50:19.000Z</Time>
            <Position>
              <LatitudeDegrees>39.00028827600181102752685546875</LatitudeDegrees>
              <LongitudeDegrees>-6.3304047100245952606201171875</LongitudeDegrees>
            </Position>
            <AltitudeMeters>259.399993896484375</AltitudeMeters>
            <DistanceMeters>NAN</DistanceMeters>
          </Trackpoint>
          <Trackpoint>
            <Time>2019-10-09T09:50:21.000Z</Time>
            <Position>
              <LatitudeDegrees>39.00017939507961273193359375</LatitudeDegrees>
              <LongitudeDegrees>-6.33039372973144054412841796875</LongitudeDegrees>
            </Position>
            <AltitudeMeters>259.600006103515625</AltitudeMeters>
            <DistanceMeters>NAN</DistanceMeters>
          </Trackpoint>
          <Trackpoint>
            <Time>2019-10-09T09:50:29.000Z</Time>
            <Position>
              <LatitudeDegrees>38.999755941331386566162109375</LatitudeDegrees>
              <LongitudeDegrees>-6.33029448799788951873779296875</LongitudeDegrees>
            </Position>
            <AltitudeMeters>259.600006103515625</AltitudeMeters>
            <DistanceMeters>NAN</DistanceMeters>
          </Trackpoint>
          <Trackpoint>
            <Time>2019-10-09T09:50:38.000Z</Time>
            <Position>
              <LatitudeDegrees>38.99929401464760303497314453125</LatitudeDegrees>
              <LongitudeDegrees>-6.33007739670574665069580078125</LongitudeDegrees>
            </Position>
            <AltitudeMeters>259.600006103515625</AltitudeMeters>
            <DistanceMeters>NAN</DistanceMeters>
          </Trackpoint>
          <Trackpoint>
            <Time>2019-10-09T09:50:47.000Z</Time>
            <Position>
              <LatitudeDegrees>38.99882110767066478729248046875</LatitudeDegrees>
              <LongitudeDegrees>-6.3298203237354755401611328125</LongitudeDegrees>
            </Position>
            <AltitudeMeters>259.399993896484375</AltitudeMeters>
            <DistanceMeters>NAN</DistanceMeters>
          </Trackpoint>
          <Trackpoint>
            <Time>2019-10-09T09:50:55.000Z</Time>
            <Position>
              <LatitudeDegrees>38.99836077354848384857177734375</LatitudeDegrees>
              <LongitudeDegrees>-6.3295785896480083465576171875</LongitudeDegrees>
            </Position>
            <AltitudeMeters>259</AltitudeMeters>
            <DistanceMeters>NAN</DistanceMeters>
          </Trackpoint>
          <Trackpoint>
            <Time>2019-10-09T09:50:58.000Z</Time>
            <Position>
              <LatitudeDegrees>38.99818039499223232269287109375</LatitudeDegrees>
              <LongitudeDegrees>-6.32948496378958225250244140625</LongitudeDegrees>
            </Position>
            <AltitudeMeters>258.20001220703125</AltitudeMeters>
            <DistanceMeters>NAN</DistanceMeters>
          </Trackpoint>
          <Trackpoint>
            <Time>2019-10-09T09:51:03.000Z</Time>
            <Position>
              <LatitudeDegrees>38.9978624694049358367919921875</LatitudeDegrees>
              <LongitudeDegrees>-6.3293449021875858306884765625</LongitudeDegrees>
            </Position>
            <AltitudeMeters>257.79998779296875</AltitudeMeters>
            <DistanceMeters>NAN</DistanceMeters>
          </Trackpoint>
          <Trackpoint>
            <Time>2019-10-09T09:51:06.000Z</Time>
            <Position>
              <LatitudeDegrees>38.997668512165546417236328125</LatitudeDegrees>
              <LongitudeDegrees>-6.3292741589248180389404296875</LongitudeDegrees>
            </Position>
            <AltitudeMeters>257.399993896484375</AltitudeMeters>
            <DistanceMeters>NAN</DistanceMeters>
          </Trackpoint>
          <Trackpoint>
            <Time>2019-10-09T09:51:07.000Z</Time>
            <Position>
              <LatitudeDegrees>38.99760439060628414154052734375</LatitudeDegrees>
              <LongitudeDegrees>-6.3292516954243183135986328125</LongitudeDegrees>
            </Position>
            <AltitudeMeters>257.20001220703125</AltitudeMeters>
            <DistanceMeters>NAN</DistanceMeters>
          </Trackpoint>
          <Trackpoint>
            <Time>2019-10-09T09:51:12.000Z</Time>
            <Position>
              <LatitudeDegrees>38.9972794242203235626220703125</LatitudeDegrees>
              <LongitudeDegrees>-6.32916594855487346649169921875</LongitudeDegrees>
            </Position>
            <AltitudeMeters>257.20001220703125</AltitudeMeters>
            <DistanceMeters>NAN</DistanceMeters>
          </Trackpoint>
          <Trackpoint>
            <Time>2019-10-09T09:51:15.000Z</Time>
            <Position>
              <LatitudeDegrees>38.99708144366741180419921875</LatitudeDegrees>
              <LongitudeDegrees>-6.3291299901902675628662109375</LongitudeDegrees>
            </Position>
            <AltitudeMeters>256.399993896484375</AltitudeMeters>
            <DistanceMeters>NAN</DistanceMeters>
          </Trackpoint>
          <Trackpoint>
            <Time>2019-10-09T09:51:16.000Z</Time>
            <Position>
              <LatitudeDegrees>38.99701564572751522064208984375</LatitudeDegrees>
              <LongitudeDegrees>-6.3291199319064617156982421875</LongitudeDegrees>
            </Position>
            <AltitudeMeters>256.600006103515625</AltitudeMeters>
            <DistanceMeters>NAN</DistanceMeters>
          </Trackpoint>
          <Trackpoint>
            <Time>2019-10-09T09:51:17.000Z</Time>
            <Position>
              <LatitudeDegrees>38.99694976396858692169189453125</LatitudeDegrees>
              <LongitudeDegrees>-6.3291107118129730224609375</LongitudeDegrees>
            </Position>
            <AltitudeMeters>256.20001220703125</AltitudeMeters>
            <DistanceMeters>NAN</DistanceMeters>
          </Trackpoint>
          <Trackpoint>
            <Time>2019-10-09T09:51:25.000Z</Time>
            <Position>
              <LatitudeDegrees>38.99642103351652622222900390625</LatitudeDegrees>
              <LongitudeDegrees>-6.32904994301497936248779296875</LongitudeDegrees>
            </Position>
            <AltitudeMeters>255</AltitudeMeters>
            <DistanceMeters>NAN</DistanceMeters>
          </Trackpoint>
          <Trackpoint>
            <Time>2019-10-09T09:51:26.000Z</Time>
            <Position>
              <LatitudeDegrees>38.99635397829115390777587890625</LatitudeDegrees>
              <LongitudeDegrees>-6.3290431536734104156494140625</LongitudeDegrees>
            </Position>
            <AltitudeMeters>254.8000030517578125</AltitudeMeters>
            <DistanceMeters>NAN</DistanceMeters>
          </Trackpoint>
          <Trackpoint>
            <Time>2019-10-09T09:51:34.000Z</Time>
            <Position>
              <LatitudeDegrees>38.9958280138671398162841796875</LatitudeDegrees>
              <LongitudeDegrees>-6.3289874978363513946533203125</LongitudeDegrees>
            </Position>
            <AltitudeMeters>254.399993896484375</AltitudeMeters>
            <DistanceMeters>NAN</DistanceMeters>
          </Trackpoint>
          <Trackpoint>
            <Time>2019-10-09T09:51:35.000Z</Time>
            <Position>
              <LatitudeDegrees>38.995762132108211517333984375</LatitudeDegrees>
              <LongitudeDegrees>-6.32897953502833843231201171875</LongitudeDegrees>
            </Position>
            <AltitudeMeters>254.399993896484375</AltitudeMeters>
            <DistanceMeters>NAN</DistanceMeters>
          </Trackpoint>
          <Trackpoint>
            <Time>2019-10-09T09:51:39.000Z</Time>
            <Position>
              <LatitudeDegrees>38.9954974316060543060302734375</LatitudeDegrees>
              <LongitudeDegrees>-6.32895438931882381439208984375</LongitudeDegrees>
            </Position>
            <AltitudeMeters>254.8000030517578125</AltitudeMeters>
            <DistanceMeters>NAN</DistanceMeters>
          </Trackpoint>
          <Trackpoint>
            <Time>2019-10-09T09:51:44.000Z</Time>
            <Position>
              <LatitudeDegrees>38.99516844190657138824462890625</LatitudeDegrees>
              <LongitudeDegrees>-6.32892136462032794952392578125</LongitudeDegrees>
            </Position>
            <AltitudeMeters>254.600006103515625</AltitudeMeters>
            <DistanceMeters>NAN</DistanceMeters>
          </Trackpoint>
          <Trackpoint>
            <Time>2019-10-09T09:51:49.000Z</Time>
            <Position>
              <LatitudeDegrees>38.9948453195393085479736328125</LatitudeDegrees>
              <LongitudeDegrees>-6.32888901047408580780029296875</LongitudeDegrees>
            </Position>
            <AltitudeMeters>254</AltitudeMeters>
            <DistanceMeters>NAN</DistanceMeters>
          </Trackpoint>
          <Trackpoint>
            <Time>2019-10-09T09:51:54.000Z</Time>
            <Position>
              <LatitudeDegrees>38.99453426711261272430419921875</LatitudeDegrees>
              <LongitudeDegrees>-6.32886151783168315887451171875</LongitudeDegrees>
            </Position>
            <AltitudeMeters>253.8000030517578125</AltitudeMeters>
            <DistanceMeters>NAN</DistanceMeters>
          </Trackpoint>
          <Trackpoint>
            <Time>2019-10-09T09:52:02.000Z</Time>
            <Position>
              <LatitudeDegrees>38.9940647967159748077392578125</LatitudeDegrees>
              <LongitudeDegrees>-6.3288156688213348388671875</LongitudeDegrees>
            </Position>
            <AltitudeMeters>254.1999969482421875</AltitudeMeters>
            <DistanceMeters>NAN</DistanceMeters>
          </Trackpoint>
          <Trackpoint>
            <Time>2019-10-09T09:52:07.000Z</Time>
            <Position>
              <LatitudeDegrees>38.99378928355872631072998046875</LatitudeDegrees>
              <LongitudeDegrees>-6.32878147065639495849609375</LongitudeDegrees>
            </Position>
            <AltitudeMeters>255</AltitudeMeters>
            <DistanceMeters>NAN</DistanceMeters>
          </Trackpoint>
          <Trackpoint>
            <Time>2019-10-09T09:52:10.000Z</Time>
            <Position>
              <LatitudeDegrees>38.99362315423786640167236328125</LatitudeDegrees>
              <LongitudeDegrees>-6.32875724695622920989990234375</LongitudeDegrees>
            </Position>
            <AltitudeMeters>254.600006103515625</AltitudeMeters>
            <DistanceMeters>NAN</DistanceMeters>
          </Trackpoint>
          <Trackpoint>
            <Time>2019-10-09T09:52:20.000Z</Time>
            <Position>
              <LatitudeDegrees>38.99306592531502246856689453125</LatitudeDegrees>
              <LongitudeDegrees>-6.32865482009947299957275390625</LongitudeDegrees>
            </Position>
            <AltitudeMeters>255</AltitudeMeters>
            <DistanceMeters>NAN</DistanceMeters>
          </Trackpoint>
          <Trackpoint>
            <Time>2019-10-09T09:52:29.000Z</Time>
            <Position>
              <LatitudeDegrees>38.992534093558788299560546875</LatitudeDegrees>
              <LongitudeDegrees>-6.32855742238461971282958984375</LongitudeDegrees>
            </Position>
            <AltitudeMeters>254.1999969482421875</AltitudeMeters>
            <DistanceMeters>NAN</DistanceMeters>
          </Trackpoint>
          <Trackpoint>
            <Time>2019-10-09T09:52:30.000Z</Time>
            <Position>
              <LatitudeDegrees>38.99247231893241405487060546875</LatitudeDegrees>
              <LongitudeDegrees>-6.328546442091464996337890625</LongitudeDegrees>
            </Position>
            <AltitudeMeters>254</AltitudeMeters>
            <DistanceMeters>NAN</DistanceMeters>
          </Trackpoint>
          <Trackpoint>
            <Time>2019-10-09T09:52:37.000Z</Time>
            <Position>
              <LatitudeDegrees>38.9920326881110668182373046875</LatitudeDegrees>
              <LongitudeDegrees>-6.32846941240131855010986328125</LongitudeDegrees>
            </Position>
            <AltitudeMeters>253</AltitudeMeters>
            <DistanceMeters>NAN</DistanceMeters>
          </Trackpoint>
          <Trackpoint>
            <Time>2019-10-09T09:52:39.000Z</Time>
            <Position>
              <LatitudeDegrees>38.991908468306064605712890625</LatitudeDegrees>
              <LongitudeDegrees>-6.32844862528145313262939453125</LongitudeDegrees>
            </Position>
            <AltitudeMeters>252.8000030517578125</AltitudeMeters>
            <DistanceMeters>NAN</DistanceMeters>
          </Trackpoint>
          <Trackpoint>
            <Time>2019-10-09T09:52:48.000Z</Time>
            <Position>
              <LatitudeDegrees>38.99135517887771129608154296875</LatitudeDegrees>
              <LongitudeDegrees>-6.3283528201282024383544921875</LongitudeDegrees>
            </Position>
            <AltitudeMeters>252.600006103515625</AltitudeMeters>
            <DistanceMeters>NAN</DistanceMeters>
          </Trackpoint>
          <Trackpoint>
            <Time>2019-10-09T09:52:50.000Z</Time>
            <Position>
              <LatitudeDegrees>38.9912327192723751068115234375</LatitudeDegrees>
              <LongitudeDegrees>-6.32833178155124187469482421875</LongitudeDegrees>
            </Position>
            <AltitudeMeters>252.8000030517578125</AltitudeMeters>
            <DistanceMeters>NAN</DistanceMeters>
          </Trackpoint>
          <Trackpoint>
            <Time>2019-10-09T09:52:59.000Z</Time>
            <Position>
              <LatitudeDegrees>38.99071396328508853912353515625</LatitudeDegrees>
              <LongitudeDegrees>-6.328239329159259796142578125</LongitudeDegrees>
            </Position>
            <AltitudeMeters>253</AltitudeMeters>
            <DistanceMeters>NAN</DistanceMeters>
          </Trackpoint>
          <Trackpoint>
            <Time>2019-10-09T09:53:09.000Z</Time>
            <Position>
              <LatitudeDegrees>38.99015673436224460601806640625</LatitudeDegrees>
              <LongitudeDegrees>-6.32814000360667705535888671875</LongitudeDegrees>
            </Position>
            <AltitudeMeters>253</AltitudeMeters>
            <DistanceMeters>NAN</DistanceMeters>
          </Trackpoint>
          <Trackpoint>
            <Time>2019-10-09T09:53:10.000Z</Time>
            <Position>
              <LatitudeDegrees>38.99010241962969303131103515625</LatitudeDegrees>
              <LongitudeDegrees>-6.32812977768480777740478515625</LongitudeDegrees>
            </Position>
            <AltitudeMeters>253</AltitudeMeters>
            <DistanceMeters>NAN</DistanceMeters>
          </Trackpoint>
          <Trackpoint>
            <Time>2019-10-09T09:53:15.000Z</Time>
            <Position>
              <LatitudeDegrees>38.98984375409781932830810546875</LatitudeDegrees>
              <LongitudeDegrees>-6.3280829228460788726806640625</LongitudeDegrees>
            </Position>
            <AltitudeMeters>254</AltitudeMeters>
            <DistanceMeters>NAN</DistanceMeters>
          </Trackpoint>
          <Trackpoint>
            <Time>2019-10-09T09:53:18.000Z</Time>
            <Position>
              <LatitudeDegrees>38.98970377631485462188720703125</LatitudeDegrees>
              <LongitudeDegrees>-6.328054256737232208251953125</LongitudeDegrees>
            </Position>
            <AltitudeMeters>254.399993896484375</AltitudeMeters>
            <DistanceMeters>NAN</DistanceMeters>
          </Trackpoint>
          <Trackpoint>
            <Time>2019-10-09T09:53:21.000Z</Time>
            <Position>
              <LatitudeDegrees>38.98957687430083751678466796875</LatitudeDegrees>
              <LongitudeDegrees>-6.32803036831319332122802734375</LongitudeDegrees>
            </Position>
            <AltitudeMeters>255</AltitudeMeters>
            <DistanceMeters>NAN</DistanceMeters>
          </Trackpoint>
          <Trackpoint>
            <Time>2019-10-09T09:53:24.000Z</Time>
            <Position>
              <LatitudeDegrees>38.98944921791553497314453125</LatitudeDegrees>
              <LongitudeDegrees>-6.3280172087252140045166015625</LongitudeDegrees>
            </Position>
            <AltitudeMeters>255.399993896484375</AltitudeMeters>
            <DistanceMeters>NAN</DistanceMeters>
          </Trackpoint>
          <Trackpoint>
            <Time>2019-10-09T09:53:25.000Z</Time>
            <Position>
              <LatitudeDegrees>38.9894101582467555999755859375</LatitudeDegrees>
              <LongitudeDegrees>-6.32800555787980556488037109375</LongitudeDegrees>
            </Position>
            <AltitudeMeters>255.600006103515625</AltitudeMeters>
            <DistanceMeters>NAN</DistanceMeters>
          </Trackpoint>
          <Trackpoint>
            <Time>2019-10-09T09:53:26.000Z</Time>
            <Position>
              <LatitudeDegrees>38.98937118239700794219970703125</LatitudeDegrees>
              <LongitudeDegrees>-6.3279923982918262481689453125</LongitudeDegrees>
            </Position>
            <AltitudeMeters>256</AltitudeMeters>
            <DistanceMeters>NAN</DistanceMeters>
          </Trackpoint>
          <Trackpoint>
            <Time>2019-10-09T09:53:27.000Z</Time>
            <Position>
              <LatitudeDegrees>38.98933094926178455352783203125</LatitudeDegrees>
              <LongitudeDegrees>-6.32798929698765277862548828125</LongitudeDegrees>
            </Position>
            <AltitudeMeters>256.20001220703125</AltitudeMeters>
            <DistanceMeters>NAN</DistanceMeters>
          </Trackpoint>
          <Trackpoint>
            <Time>2019-10-09T09:53:29.000Z</Time>
            <Position>
              <LatitudeDegrees>38.98925006389617919921875</LatitudeDegrees>
              <LongitudeDegrees>-6.3279799930751323699951171875</LongitudeDegrees>
            </Position>
            <AltitudeMeters>256.399993896484375</AltitudeMeters>
            <DistanceMeters>NAN</DistanceMeters>
          </Trackpoint>
          <Trackpoint>
            <Time>2019-10-09T09:53:30.000Z</Time>
            <Position>
              <LatitudeDegrees>38.9892111718654632568359375</LatitudeDegrees>
              <LongitudeDegrees>-6.32796876132488250732421875</LongitudeDegrees>
            </Position>
            <AltitudeMeters>256.399993896484375</AltitudeMeters>
            <DistanceMeters>NAN</DistanceMeters>
          </Trackpoint>
          <Trackpoint>
            <Time>2019-10-09T09:53:34.000Z</Time>
            <Position>
              <LatitudeDegrees>38.989052586257457733154296875</LatitudeDegrees>
              <LongitudeDegrees>-6.32794537581503391265869140625</LongitudeDegrees>
            </Position>
            <AltitudeMeters>257.20001220703125</AltitudeMeters>
            <DistanceMeters>NAN</DistanceMeters>
          </Trackpoint>
          <Trackpoint>
            <Time>2019-10-09T09:53:35.000Z</Time>
            <Position>
              <LatitudeDegrees>38.9890153706073760986328125</LatitudeDegrees>
              <LongitudeDegrees>-6.32794051431119441986083984375</LongitudeDegrees>
            </Position>
            <AltitudeMeters>257.600006103515625</AltitudeMeters>
            <DistanceMeters>NAN</DistanceMeters>
          </Trackpoint>
          <Trackpoint>
            <Time>2019-10-09T09:53:36.000Z</Time>
            <Position>
              <LatitudeDegrees>38.988977484405040740966796875</LatitudeDegrees>
              <LongitudeDegrees>-6.32793012075126171112060546875</LongitudeDegrees>
            </Position>
            <AltitudeMeters>257.79998779296875</AltitudeMeters>
            <DistanceMeters>NAN</DistanceMeters>
          </Trackpoint>
          <Trackpoint>
            <Time>2019-10-09T09:53:39.000Z</Time>
            <Position>
              <LatitudeDegrees>38.98886139504611492156982421875</LatitudeDegrees>
              <LongitudeDegrees>-6.327908746898174285888671875</LongitudeDegrees>
            </Position>
            <AltitudeMeters>258.600006103515625</AltitudeMeters>
            <DistanceMeters>NAN</DistanceMeters>
          </Trackpoint>
          <Trackpoint>
            <Time>2019-10-09T09:53:42.000Z</Time>
            <Position>
              <LatitudeDegrees>38.98874890990555286407470703125</LatitudeDegrees>
              <LongitudeDegrees>-6.32788670249283313751220703125</LongitudeDegrees>
            </Position>
            <AltitudeMeters>258.79998779296875</AltitudeMeters>
            <DistanceMeters>NAN</DistanceMeters>
          </Trackpoint>
          <Trackpoint>
            <Time>2019-10-09T09:53:48.000Z</Time>
            <Position>
              <LatitudeDegrees>38.9885116182267665863037109375</LatitudeDegrees>
              <LongitudeDegrees>-6.32785820402204990386962890625</LongitudeDegrees>
            </Position>
            <AltitudeMeters>259.20001220703125</AltitudeMeters>
            <DistanceMeters>NAN</DistanceMeters>
          </Trackpoint>
          <Trackpoint>
            <Time>2019-10-09T09:53:50.000Z</Time>
            <Position>
              <LatitudeDegrees>38.98842570371925830841064453125</LatitudeDegrees>
              <LongitudeDegrees>-6.3278500735759735107421875</LongitudeDegrees>
            </Position>
            <AltitudeMeters>259.399993896484375</AltitudeMeters>
            <DistanceMeters>NAN</DistanceMeters>
          </Trackpoint>
          <Trackpoint>
            <Time>2019-10-09T09:53:51.000Z</Time>
            <Position>
              <LatitudeDegrees>38.98838228546082973480224609375</LatitudeDegrees>
              <LongitudeDegrees>-6.32784630171954631805419921875</LongitudeDegrees>
            </Position>
            <AltitudeMeters>259.600006103515625</AltitudeMeters>
            <DistanceMeters>NAN</DistanceMeters>
          </Trackpoint>
          <Trackpoint>
            <Time>2019-10-09T09:54:01.000Z</Time>
            <Position>
              <LatitudeDegrees>38.98793553002178668975830078125</LatitudeDegrees>
              <LongitudeDegrees>-6.3278244249522686004638671875</LongitudeDegrees>
            </Position>
            <AltitudeMeters>260.399993896484375</AltitudeMeters>
            <DistanceMeters>NAN</DistanceMeters>
          </Trackpoint>
          <Trackpoint>
            <Time>2019-10-09T09:54:03.000Z</Time>
            <Position>
              <LatitudeDegrees>38.98784752003848552703857421875</LatitudeDegrees>
              <LongitudeDegrees>-6.3278277777135372161865234375</LongitudeDegrees>
            </Position>
            <AltitudeMeters>260.600006103515625</AltitudeMeters>
            <DistanceMeters>NAN</DistanceMeters>
          </Trackpoint>
          <Trackpoint>
            <Time>2019-10-09T09:54:10.000Z</Time>
            <Position>
              <LatitudeDegrees>38.98755147121846675872802734375</LatitudeDegrees>
              <LongitudeDegrees>-6.32783406414091587066650390625</LongitudeDegrees>
            </Position>
            <AltitudeMeters>261.20001220703125</AltitudeMeters>
            <DistanceMeters>NAN</DistanceMeters>
          </Trackpoint>
          <Trackpoint>
            <Time>2019-10-09T09:54:12.000Z</Time>
            <Position>
              <LatitudeDegrees>38.98747066967189311981201171875</LatitudeDegrees>
              <LongitudeDegrees>-6.3278388418257236480712890625</LongitudeDegrees>
            </Position>
            <AltitudeMeters>262</AltitudeMeters>
            <DistanceMeters>NAN</DistanceMeters>
          </Trackpoint>
          <Trackpoint>
            <Time>2019-10-09T09:54:17.000Z</Time>
            <Position>
              <LatitudeDegrees>38.98726514540612697601318359375</LatitudeDegrees>
              <LongitudeDegrees>-6.32786390371620655059814453125</LongitudeDegrees>
            </Position>
            <AltitudeMeters>262</AltitudeMeters>
            <DistanceMeters>NAN</DistanceMeters>
          </Trackpoint>
          <Trackpoint>
            <Time>2019-10-09T09:54:24.000Z</Time>
            <Position>
              <LatitudeDegrees>38.98696146905422210693359375</LatitudeDegrees>
              <LongitudeDegrees>-6.32791168056428432464599609375</LongitudeDegrees>
            </Position>
            <AltitudeMeters>262.79998779296875</AltitudeMeters>
            <DistanceMeters>NAN</DistanceMeters>
          </Trackpoint>
          <Trackpoint>
            <Time>2019-10-09T09:54:29.000Z</Time>
            <Position>
              <LatitudeDegrees>38.98673624731600284576416015625</LatitudeDegrees>
              <LongitudeDegrees>-6.3279518298804759979248046875</LongitudeDegrees>
            </Position>
            <AltitudeMeters>263.20001220703125</AltitudeMeters>
            <DistanceMeters>NAN</DistanceMeters>
          </Trackpoint>
          <Trackpoint>
            <Time>2019-10-09T09:54:34.000Z</Time>
            <Position>
              <LatitudeDegrees>38.986513875424861907958984375</LatitudeDegrees>
              <LongitudeDegrees>-6.32799650542438030242919921875</LongitudeDegrees>
            </Position>
            <AltitudeMeters>263.600006103515625</AltitudeMeters>
            <DistanceMeters>NAN</DistanceMeters>
          </Trackpoint>
          <Trackpoint>
            <Time>2019-10-09T09:54:46.000Z</Time>
            <Position>
              <LatitudeDegrees>38.98597148247063159942626953125</LatitudeDegrees>
              <LongitudeDegrees>-6.32811225950717926025390625</LongitudeDegrees>
            </Position>
            <AltitudeMeters>264</AltitudeMeters>
            <DistanceMeters>NAN</DistanceMeters>
          </Trackpoint>
          <Trackpoint>
            <Time>2019-10-09T09:54:54.000Z</Time>
            <Position>
              <LatitudeDegrees>38.98561005480587482452392578125</LatitudeDegrees>
              <LongitudeDegrees>-6.32819247432053089141845703125</LongitudeDegrees>
            </Position>
            <AltitudeMeters>264.399993896484375</AltitudeMeters>
            <DistanceMeters>NAN</DistanceMeters>
          </Trackpoint>
          <Trackpoint>
            <Time>2019-10-09T09:55:00.000Z</Time>
            <Position>
              <LatitudeDegrees>38.98533697240054607391357421875</LatitudeDegrees>
              <LongitudeDegrees>-6.328251399099826812744140625</LongitudeDegrees>
            </Position>
            <AltitudeMeters>264.20001220703125</AltitudeMeters>
            <DistanceMeters>NAN</DistanceMeters>
          </Trackpoint>
          <Trackpoint>
            <Time>2019-10-09T09:55:04.000Z</Time>
            <Position>
              <LatitudeDegrees>38.98515273816883563995361328125</LatitudeDegrees>
              <LongitudeDegrees>-6.328292302787303924560546875</LongitudeDegrees>
            </Position>
            <AltitudeMeters>264.600006103515625</AltitudeMeters>
            <DistanceMeters>NAN</DistanceMeters>
          </Trackpoint>
          <Trackpoint>
            <Time>2019-10-09T09:55:13.000Z</Time>
            <Position>
              <LatitudeDegrees>38.98473850451409816741943359375</LatitudeDegrees>
              <LongitudeDegrees>-6.328378804028034210205078125</LongitudeDegrees>
            </Position>
            <AltitudeMeters>264.600006103515625</AltitudeMeters>
            <DistanceMeters>NAN</DistanceMeters>
          </Trackpoint>
          <Trackpoint>
            <Time>2019-10-09T09:55:14.000Z</Time>
            <Position>
              <LatitudeDegrees>38.98469232022762298583984375</LatitudeDegrees>
              <LongitudeDegrees>-6.3283891975879669189453125</LongitudeDegrees>
            </Position>
            <AltitudeMeters>264.600006103515625</AltitudeMeters>
            <DistanceMeters>NAN</DistanceMeters>
          </Trackpoint>
          <Trackpoint>
            <Time>2019-10-09T09:55:23.000Z</Time>
            <Position>
              <LatitudeDegrees>38.98428185842931270599365234375</LatitudeDegrees>
              <LongitudeDegrees>-6.3284849189221858978271484375</LongitudeDegrees>
            </Position>
            <AltitudeMeters>265.20001220703125</AltitudeMeters>
            <DistanceMeters>NAN</DistanceMeters>
          </Trackpoint>
          <Trackpoint>
            <Time>2019-10-09T09:55:26.000Z</Time>
            <Position>
              <LatitudeDegrees>38.98414439521729946136474609375</LatitudeDegrees>
              <LongitudeDegrees>-6.3285144232213497161865234375</LongitudeDegrees>
            </Position>
            <AltitudeMeters>265.600006103515625</AltitudeMeters>
            <DistanceMeters>NAN</DistanceMeters>
          </Trackpoint>
          <Trackpoint>
            <Time>2019-10-09T09:55:34.000Z</Time>
            <Position>
              <LatitudeDegrees>38.98377022705972194671630859375</LatitudeDegrees>
              <LongitudeDegrees>-6.32859312929213047027587890625</LongitudeDegrees>
            </Position>
            <AltitudeMeters>266</AltitudeMeters>
            <DistanceMeters>NAN</DistanceMeters>
          </Trackpoint>
          <Trackpoint>
            <Time>2019-10-09T09:55:44.000Z</Time>
            <Position>
              <LatitudeDegrees>38.9832903631031513214111328125</LatitudeDegrees>
              <LongitudeDegrees>-6.32869404740631580352783203125</LongitudeDegrees>
            </Position>
            <AltitudeMeters>265.399993896484375</AltitudeMeters>
            <DistanceMeters>NAN</DistanceMeters>
          </Trackpoint>
          <Trackpoint>
            <Time>2019-10-09T09:55:52.000Z</Time>
            <Position>
              <LatitudeDegrees>38.9828736148774623870849609375</LatitudeDegrees>
              <LongitudeDegrees>-6.32878121919929981231689453125</LongitudeDegrees>
            </Position>
            <AltitudeMeters>265.399993896484375</AltitudeMeters>
            <DistanceMeters>NAN</DistanceMeters>
          </Trackpoint>
          <Trackpoint>
            <Time>2019-10-09T09:55:54.000Z</Time>
            <Position>
              <LatitudeDegrees>38.982767164707183837890625</LatitudeDegrees>
              <LongitudeDegrees>-6.3288027606904506683349609375</LongitudeDegrees>
            </Position>
            <AltitudeMeters>265.399993896484375</AltitudeMeters>
            <DistanceMeters>NAN</DistanceMeters>
          </Trackpoint>
          <Trackpoint>
            <Time>2019-10-09T09:56:04.000Z</Time>
            <Position>
              <LatitudeDegrees>38.9822449721395969390869140625</LatitudeDegrees>
              <LongitudeDegrees>-6.3289164192974567413330078125</LongitudeDegrees>
            </Position>
            <AltitudeMeters>265.399993896484375</AltitudeMeters>
            <DistanceMeters>NAN</DistanceMeters>
          </Trackpoint>
          <Trackpoint>
            <Time>2019-10-09T09:56:12.000Z</Time>
            <Position>
              <LatitudeDegrees>38.98181221447885036468505859375</LatitudeDegrees>
              <LongitudeDegrees>-6.3290061056613922119140625</LongitudeDegrees>
            </Position>
            <AltitudeMeters>265</AltitudeMeters>
            <DistanceMeters>NAN</DistanceMeters>
          </Trackpoint>
          <Trackpoint>
            <Time>2019-10-09T09:56:20.000Z</Time>
            <Position>
              <LatitudeDegrees>38.98135556839406490325927734375</LatitudeDegrees>
              <LongitudeDegrees>-6.32910333573818206787109375</LongitudeDegrees>
            </Position>
            <AltitudeMeters>264.79998779296875</AltitudeMeters>
            <DistanceMeters>NAN</DistanceMeters>
          </Trackpoint>
          <Trackpoint>
            <Time>2019-10-09T09:56:22.000Z</Time>
            <Position>
              <LatitudeDegrees>38.98124157451093196868896484375</LatitudeDegrees>
              <LongitudeDegrees>-6.32912705652415752410888671875</LongitudeDegrees>
            </Position>
            <AltitudeMeters>264</AltitudeMeters>
            <DistanceMeters>NAN</DistanceMeters>
          </Trackpoint>
          <Trackpoint>
            <Time>2019-10-09T09:56:26.000Z</Time>
            <Position>
              <LatitudeDegrees>38.98101392202079296112060546875</LatitudeDegrees>
              <LongitudeDegrees>-6.32917600683867931365966796875</LongitudeDegrees>
            </Position>
            <AltitudeMeters>263.600006103515625</AltitudeMeters>
            <DistanceMeters>NAN</DistanceMeters>
          </Trackpoint>
          <Trackpoint>
            <Time>2019-10-09T09:56:30.000Z</Time>
            <Position>
              <LatitudeDegrees>38.98078643716871738433837890625</LatitudeDegrees>
              <LongitudeDegrees>-6.3292265497148036956787109375</LongitudeDegrees>
            </Position>
            <AltitudeMeters>263.600006103515625</AltitudeMeters>
            <DistanceMeters>NAN</DistanceMeters>
          </Trackpoint>
          <Trackpoint>
            <Time>2019-10-09T09:56:34.000Z</Time>
            <Position>
              <LatitudeDegrees>38.980564735829830169677734375</LatitudeDegrees>
              <LongitudeDegrees>-6.32927055470645427703857421875</LongitudeDegrees>
            </Position>
            <AltitudeMeters>263</AltitudeMeters>
            <DistanceMeters>NAN</DistanceMeters>
          </Trackpoint>
          <Trackpoint>
            <Time>2019-10-09T09:56:39.000Z</Time>
            <Position>
              <LatitudeDegrees>38.9802963472902774810791015625</LatitudeDegrees>
              <LongitudeDegrees>-6.32933073677122592926025390625</LongitudeDegrees>
            </Position>
            <AltitudeMeters>263.20001220703125</AltitudeMeters>
            <DistanceMeters>NAN</DistanceMeters>
          </Trackpoint>
          <Trackpoint>
            <Time>2019-10-09T09:56:43.000Z</Time>
            <Position>
              <LatitudeDegrees>38.9800827763974666595458984375</LatitudeDegrees>
              <LongitudeDegrees>-6.329375244677066802978515625</LongitudeDegrees>
            </Position>
            <AltitudeMeters>264</AltitudeMeters>
            <DistanceMeters>NAN</DistanceMeters>
          </Trackpoint>
          <Trackpoint>
            <Time>2019-10-09T09:56:47.000Z</Time>
            <Position>
              <LatitudeDegrees>38.97987113334238529205322265625</LatitudeDegrees>
              <LongitudeDegrees>-6.32941673509776592254638671875</LongitudeDegrees>
            </Position>
            <AltitudeMeters>263.399993896484375</AltitudeMeters>
            <DistanceMeters>NAN</DistanceMeters>
          </Trackpoint>
          <Trackpoint>
            <Time>2019-10-09T09:56:50.000Z</Time>
            <Position>
              <LatitudeDegrees>38.97971606813371181488037109375</LatitudeDegrees>
              <LongitudeDegrees>-6.329451017081737518310546875</LongitudeDegrees>
            </Position>
            <AltitudeMeters>264</AltitudeMeters>
            <DistanceMeters>NAN</DistanceMeters>
          </Trackpoint>
          <Trackpoint>
            <Time>2019-10-09T09:57:00.000Z</Time>
            <Position>
              <LatitudeDegrees>38.9791899360716342926025390625</LatitudeDegrees>
              <LongitudeDegrees>-6.3295950181782245635986328125</LongitudeDegrees>
            </Position>
            <AltitudeMeters>264.20001220703125</AltitudeMeters>
            <DistanceMeters>NAN</DistanceMeters>
          </Trackpoint>
          <Trackpoint>
            <Time>2019-10-09T09:57:09.000Z</Time>
            <Position>
              <LatitudeDegrees>38.97876589559018611907958984375</LatitudeDegrees>
              <LongitudeDegrees>-6.32974681444466114044189453125</LongitudeDegrees>
            </Position>
            <AltitudeMeters>264.79998779296875</AltitudeMeters>
            <DistanceMeters>NAN</DistanceMeters>
          </Trackpoint>
          <Trackpoint>
            <Time>2019-10-09T09:57:10.000Z</Time>
            <Position>
              <LatitudeDegrees>38.978725410997867584228515625</LatitudeDegrees>
              <LongitudeDegrees>-6.329769529402256011962890625</LongitudeDegrees>
            </Position>
            <AltitudeMeters>265</AltitudeMeters>
            <DistanceMeters>NAN</DistanceMeters>
          </Trackpoint>
          <Trackpoint>
            <Time>2019-10-09T09:57:12.000Z</Time>
            <Position>
              <LatitudeDegrees>38.9786528237164020538330078125</LatitudeDegrees>
              <LongitudeDegrees>-6.32983624935150146484375</LongitudeDegrees>
            </Position>
            <AltitudeMeters>265.20001220703125</AltitudeMeters>
            <DistanceMeters>NAN</DistanceMeters>
          </Trackpoint>
          <Trackpoint>
            <Time>2019-10-09T09:57:14.000Z</Time>
            <Position>
              <LatitudeDegrees>38.9786135964095592498779296875</LatitudeDegrees>
              <LongitudeDegrees>-6.32993054576218128204345703125</LongitudeDegrees>
            </Position>
            <AltitudeMeters>264.79998779296875</AltitudeMeters>
            <DistanceMeters>NAN</DistanceMeters>
          </Trackpoint>
          <Trackpoint>
            <Time>2019-10-09T09:57:16.000Z</Time>
            <Position>
              <LatitudeDegrees>38.97858702577650547027587890625</LatitudeDegrees>
              <LongitudeDegrees>-6.33003464899957180023193359375</LongitudeDegrees>
            </Position>
            <AltitudeMeters>265.79998779296875</AltitudeMeters>
            <DistanceMeters>NAN</DistanceMeters>
          </Trackpoint>
          <Trackpoint>
            <Time>2019-10-09T09:57:17.000Z</Time>
            <Position>
              <LatitudeDegrees>38.978568501770496368408203125</LatitudeDegrees>
              <LongitudeDegrees>-6.3300828449428081512451171875</LongitudeDegrees>
            </Position>
            <AltitudeMeters>265.79998779296875</AltitudeMeters>
            <DistanceMeters>NAN</DistanceMeters>
          </Trackpoint>
          <Trackpoint>
            <Time>2019-10-09T09:57:19.000Z</Time>
            <Position>
              <LatitudeDegrees>38.97850957699120044708251953125</LatitudeDegrees>
              <LongitudeDegrees>-6.33015752770006656646728515625</LongitudeDegrees>
            </Position>
            <AltitudeMeters>266</AltitudeMeters>
            <DistanceMeters>NAN</DistanceMeters>
          </Trackpoint>
          <Trackpoint>
            <Time>2019-10-09T09:57:21.000Z</Time>
            <Position>
              <LatitudeDegrees>38.97843481041491031646728515625</LatitudeDegrees>
              <LongitudeDegrees>-6.33020278997719287872314453125</LongitudeDegrees>
            </Position>
            <AltitudeMeters>266.399993896484375</AltitudeMeters>
            <DistanceMeters>NAN</DistanceMeters>
          </Trackpoint>
          <Trackpoint>
            <Time>2019-10-09T09:57:23.000Z</Time>
            <Position>
              <LatitudeDegrees>38.97835400886833667755126953125</LatitudeDegrees>
              <LongitudeDegrees>-6.33021913468837738037109375</LongitudeDegrees>
            </Position>
            <AltitudeMeters>266.79998779296875</AltitudeMeters>
            <DistanceMeters>NAN</DistanceMeters>
          </Trackpoint>
          <Trackpoint>
            <Time>2019-10-09T09:57:27.000Z</Time>
            <Position>
              <LatitudeDegrees>38.97818905301392078399658203125</LatitudeDegrees>
              <LongitudeDegrees>-6.3301701843738555908203125</LongitudeDegrees>
            </Position>
            <AltitudeMeters>267</AltitudeMeters>
            <DistanceMeters>NAN</DistanceMeters>
          </Trackpoint>
          <Trackpoint>
            <Time>2019-10-09T09:57:30.000Z</Time>
            <Position>
              <LatitudeDegrees>38.978065587580204010009765625</LatitudeDegrees>
              <LongitudeDegrees>-6.3301354832947254180908203125</LongitudeDegrees>
            </Position>
            <AltitudeMeters>267.20001220703125</AltitudeMeters>
            <DistanceMeters>NAN</DistanceMeters>
          </Trackpoint>
          <Trackpoint>
            <Time>2019-10-09T09:57:32.000Z</Time>
            <Position>
              <LatitudeDegrees>38.97797615267336368560791015625</LatitudeDegrees>
              <LongitudeDegrees>-6.330133974552154541015625</LongitudeDegrees>
            </Position>
            <AltitudeMeters>266.600006103515625</AltitudeMeters>
            <DistanceMeters>NAN</DistanceMeters>
          </Trackpoint>
          <Trackpoint>
            <Time>2019-10-09T09:57:33.000Z</Time>
            <Position>
              <LatitudeDegrees>38.9779313094913959503173828125</LatitudeDegrees>
              <LongitudeDegrees>-6.33014042861759662628173828125</LongitudeDegrees>
            </Position>
            <AltitudeMeters>266.600006103515625</AltitudeMeters>
            <DistanceMeters>NAN</DistanceMeters>
          </Trackpoint>
          <Trackpoint>
            <Time>2019-10-09T09:57:38.000Z</Time>
            <Position>
              <LatitudeDegrees>38.97772419266402721405029296875</LatitudeDegrees>
              <LongitudeDegrees>-6.3301961682736873626708984375</LongitudeDegrees>
            </Position>
            <AltitudeMeters>267.399993896484375</AltitudeMeters>
            <DistanceMeters>NAN</DistanceMeters>
          </Trackpoint>
          <Trackpoint>
            <Time>2019-10-09T09:57:40.000Z</Time>
            <Position>
              <LatitudeDegrees>38.97764674387872219085693359375</LatitudeDegrees>
              <LongitudeDegrees>-6.3302273489534854888916015625</LongitudeDegrees>
            </Position>
            <AltitudeMeters>267.79998779296875</AltitudeMeters>
            <DistanceMeters>NAN</DistanceMeters>
          </Trackpoint>
          <Trackpoint>
            <Time>2019-10-09T09:57:46.000Z</Time>
            <Position>
              <LatitudeDegrees>38.9774220250546932220458984375</LatitudeDegrees>
              <LongitudeDegrees>-6.3303208909928798675537109375</LongitudeDegrees>
            </Position>
            <AltitudeMeters>268.399993896484375</AltitudeMeters>
            <DistanceMeters>NAN</DistanceMeters>
          </Trackpoint>
          <Trackpoint>
            <Time>2019-10-09T09:57:50.000Z</Time>
            <Position>
              <LatitudeDegrees>38.97727207280695438385009765625</LatitudeDegrees>
              <LongitudeDegrees>-6.3303879462182521820068359375</LongitudeDegrees>
            </Position>
            <AltitudeMeters>269.20001220703125</AltitudeMeters>
            <DistanceMeters>NAN</DistanceMeters>
          </Trackpoint>
          <Trackpoint>
            <Time>2019-10-09T09:57:51.000Z</Time>
            <Position>
              <LatitudeDegrees>38.977234102785587310791015625</LatitudeDegrees>
              <LongitudeDegrees>-6.33040194399654865264892578125</LongitudeDegrees>
            </Position>
            <AltitudeMeters>269.399993896484375</AltitudeMeters>
            <DistanceMeters>NAN</DistanceMeters>
          </Trackpoint>
          <Trackpoint>
            <Time>2019-10-09T09:58:01.000Z</Time>
            <Position>
              <LatitudeDegrees>38.97685565985739231109619140625</LatitudeDegrees>
              <LongitudeDegrees>-6.3305591046810150146484375</LongitudeDegrees>
            </Position>
            <AltitudeMeters>270.600006103515625</AltitudeMeters>
            <DistanceMeters>NAN</DistanceMeters>
          </Trackpoint>
          <Trackpoint>
            <Time>2019-10-09T09:58:02.000Z</Time>
            <Position>
              <LatitudeDegrees>38.97681660018861293792724609375</LatitudeDegrees>
              <LongitudeDegrees>-6.330572180449962615966796875</LongitudeDegrees>
            </Position>
            <AltitudeMeters>270.600006103515625</AltitudeMeters>
            <DistanceMeters>NAN</DistanceMeters>
          </Trackpoint>
          <Trackpoint>
            <Time>2019-10-09T09:58:10.000Z</Time>
            <Position>
              <LatitudeDegrees>38.97649490274488925933837890625</LatitudeDegrees>
              <LongitudeDegrees>-6.33065038360655307769775390625</LongitudeDegrees>
            </Position>
            <AltitudeMeters>271.399993896484375</AltitudeMeters>
            <DistanceMeters>NAN</DistanceMeters>
          </Trackpoint>
          <Trackpoint>
            <Time>2019-10-09T09:58:12.000Z</Time>
            <Position>
              <LatitudeDegrees>38.9764128439128398895263671875</LatitudeDegrees>
              <LongitudeDegrees>-6.330663375556468963623046875</LongitudeDegrees>
            </Position>
            <AltitudeMeters>272</AltitudeMeters>
            <DistanceMeters>NAN</DistanceMeters>
          </Trackpoint>
          <Trackpoint>
            <Time>2019-10-09T09:58:21.000Z</Time>
            <Position>
              <LatitudeDegrees>38.97605217061936855316162109375</LatitudeDegrees>
              <LongitudeDegrees>-6.330688856542110443115234375</LongitudeDegrees>
            </Position>
            <AltitudeMeters>272.20001220703125</AltitudeMeters>
            <DistanceMeters>NAN</DistanceMeters>
          </Trackpoint>
          <Trackpoint>
            <Time>2019-10-09T09:58:29.000Z</Time>
            <Position>
              <LatitudeDegrees>38.9757144637405872344970703125</LatitudeDegrees>
              <LongitudeDegrees>-6.3306905329227447509765625</LongitudeDegrees>
            </Position>
            <AltitudeMeters>271.79998779296875</AltitudeMeters>
            <DistanceMeters>NAN</DistanceMeters>
          </Trackpoint>
          <Trackpoint>
            <Time>2019-10-09T09:58:30.000Z</Time>
            <Position>
              <LatitudeDegrees>38.97567062638700008392333984375</LatitudeDegrees>
              <LongitudeDegrees>-6.3306900300085544586181640625</LongitudeDegrees>
            </Position>
            <AltitudeMeters>272</AltitudeMeters>
            <DistanceMeters>NAN</DistanceMeters>
          </Trackpoint>
          <Trackpoint>
            <Time>2019-10-09T09:58:34.000Z</Time>
            <Position>
              <LatitudeDegrees>38.975486643612384796142578125</LatitudeDegrees>
              <LongitudeDegrees>-6.3306878507137298583984375</LongitudeDegrees>
            </Position>
            <AltitudeMeters>272.20001220703125</AltitudeMeters>
            <DistanceMeters>NAN</DistanceMeters>
          </Trackpoint>
          <Trackpoint>
            <Time>2019-10-09T09:58:40.000Z</Time>
            <Position>
              <LatitudeDegrees>38.97520392201840877532958984375</LatitudeDegrees>
              <LongitudeDegrees>-6.3306896947324275970458984375</LongitudeDegrees>
            </Position>
            <AltitudeMeters>272.20001220703125</AltitudeMeters>
            <DistanceMeters>NAN</DistanceMeters>
          </Trackpoint>
          <Trackpoint>
            <Time>2019-10-09T09:58:45.000Z</Time>
            <Position>
              <LatitudeDegrees>38.9749634452164173126220703125</LatitudeDegrees>
              <LongitudeDegrees>-6.3307245634496212005615234375</LongitudeDegrees>
            </Position>
            <AltitudeMeters>272.399993896484375</AltitudeMeters>
            <DistanceMeters>NAN</DistanceMeters>
          </Trackpoint>
          <Trackpoint>
            <Time>2019-10-09T09:58:48.000Z</Time>
            <Position>
              <LatitudeDegrees>38.9748216234147548675537109375</LatitudeDegrees>
              <LongitudeDegrees>-6.330756582319736480712890625</LongitudeDegrees>
            </Position>
            <AltitudeMeters>271.399993896484375</AltitudeMeters>
            <DistanceMeters>NAN</DistanceMeters>
          </Trackpoint>
          <Trackpoint>
            <Time>2019-10-09T09:58:57.000Z</Time>
            <Position>
              <LatitudeDegrees>38.974405042827129364013671875</LatitudeDegrees>
              <LongitudeDegrees>-6.330928914248943328857421875</LongitudeDegrees>
            </Position>
            <AltitudeMeters>272.20001220703125</AltitudeMeters>
            <DistanceMeters>NAN</DistanceMeters>
          </Trackpoint>
          <Trackpoint>
            <Time>2019-10-09T09:59:06.000Z</Time>
            <Position>
              <LatitudeDegrees>38.97401486523449420928955078125</LatitudeDegrees>
              <LongitudeDegrees>-6.3311751745641231536865234375</LongitudeDegrees>
            </Position>
            <AltitudeMeters>273</AltitudeMeters>
            <DistanceMeters>NAN</DistanceMeters>
          </Trackpoint>
          <Trackpoint>
            <Time>2019-10-09T09:59:07.000Z</Time>
            <Position>
              <LatitudeDegrees>38.9739735424518585205078125</LatitudeDegrees>
              <LongitudeDegrees>-6.33120476268231868743896484375</LongitudeDegrees>
            </Position>
            <AltitudeMeters>273</AltitudeMeters>
            <DistanceMeters>NAN</DistanceMeters>
          </Trackpoint>
          <Trackpoint>
            <Time>2019-10-09T09:59:16.000Z</Time>
            <Position>
              <LatitudeDegrees>38.97359191440045833587646484375</LatitudeDegrees>
              <LongitudeDegrees>-6.3314517773687839508056640625</LongitudeDegrees>
            </Position>
            <AltitudeMeters>273.600006103515625</AltitudeMeters>
            <DistanceMeters>NAN</DistanceMeters>
          </Trackpoint>
          <Trackpoint>
            <Time>2019-10-09T09:59:24.000Z</Time>
            <Position>
              <LatitudeDegrees>38.97325747646391391754150390625</LatitudeDegrees>
              <LongitudeDegrees>-6.3316673599183559417724609375</LongitudeDegrees>
            </Position>
            <AltitudeMeters>274</AltitudeMeters>
            <DistanceMeters>NAN</DistanceMeters>
          </Trackpoint>
          <Trackpoint>
            <Time>2019-10-09T09:59:26.000Z</Time>
            <Position>
              <LatitudeDegrees>38.97317483089864253997802734375</LatitudeDegrees>
              <LongitudeDegrees>-6.331721507012844085693359375</LongitudeDegrees>
            </Position>
            <AltitudeMeters>274.399993896484375</AltitudeMeters>
            <DistanceMeters>NAN</DistanceMeters>
          </Trackpoint>
          <Trackpoint>
            <Time>2019-10-09T09:59:34.000Z</Time>
            <Position>
              <LatitudeDegrees>38.97284441627562046051025390625</LatitudeDegrees>
              <LongitudeDegrees>-6.33195393718779087066650390625</LongitudeDegrees>
            </Position>
            <AltitudeMeters>274.399993896484375</AltitudeMeters>
            <DistanceMeters>NAN</DistanceMeters>
          </Trackpoint>
          <Trackpoint>
            <Time>2019-10-09T09:59:36.000Z</Time>
            <Position>
              <LatitudeDegrees>38.97276177071034908294677734375</LatitudeDegrees>
              <LongitudeDegrees>-6.3320123590528964996337890625</LongitudeDegrees>
            </Position>
            <AltitudeMeters>274.20001220703125</AltitudeMeters>
            <DistanceMeters>NAN</DistanceMeters>
          </Trackpoint>
          <Trackpoint>
            <Time>2019-10-09T09:59:40.000Z</Time>
            <Position>
              <LatitudeDegrees>38.972601257264614105224609375</LatitudeDegrees>
              <LongitudeDegrees>-6.33212308399379253387451171875</LongitudeDegrees>
            </Position>
            <AltitudeMeters>275.20001220703125</AltitudeMeters>
            <DistanceMeters>NAN</DistanceMeters>
          </Trackpoint>
          <Trackpoint>
            <Time>2019-10-09T09:59:45.000Z</Time>
            <Position>
              <LatitudeDegrees>38.9724116586148738861083984375</LatitudeDegrees>
              <LongitudeDegrees>-6.3322435319423675537109375</LongitudeDegrees>
            </Position>
            <AltitudeMeters>275.20001220703125</AltitudeMeters>
            <DistanceMeters>NAN</DistanceMeters>
          </Trackpoint>
          <Trackpoint>
            <Time>2019-10-09T09:59:46.000Z</Time>
            <Position>
              <LatitudeDegrees>38.97237402386963367462158203125</LatitudeDegrees>
              <LongitudeDegrees>-6.33226105011999607086181640625</LongitudeDegrees>
            </Position>
            <AltitudeMeters>276</AltitudeMeters>
            <DistanceMeters>NAN</DistanceMeters>
          </Trackpoint>
          <Trackpoint>
            <Time>2019-10-09T09:59:49.000Z</Time>
            <Position>
              <LatitudeDegrees>38.972272016108036041259765625</LatitudeDegrees>
              <LongitudeDegrees>-6.33232575841248035430908203125</LongitudeDegrees>
            </Position>
            <AltitudeMeters>276.399993896484375</AltitudeMeters>
            <DistanceMeters>NAN</DistanceMeters>
          </Trackpoint>
          <Trackpoint>
            <Time>2019-10-09T09:59:52.000Z</Time>
            <Position>
              <LatitudeDegrees>38.97217369638383388519287109375</LatitudeDegrees>
              <LongitudeDegrees>-6.332396082580089569091796875</LongitudeDegrees>
            </Position>
            <AltitudeMeters>276.79998779296875</AltitudeMeters>
            <DistanceMeters>NAN</DistanceMeters>
          </Trackpoint>
          <Trackpoint>
            <Time>2019-10-09T09:59:54.000Z</Time>
            <Position>
              <LatitudeDegrees>38.972105048596858978271484375</LatitudeDegrees>
              <LongitudeDegrees>-6.3324368186295032501220703125</LongitudeDegrees>
            </Position>
            <AltitudeMeters>277.399993896484375</AltitudeMeters>
            <DistanceMeters>NAN</DistanceMeters>
          </Trackpoint>
          <Trackpoint>
            <Time>2019-10-09T09:59:59.000Z</Time>
            <Position>
              <LatitudeDegrees>38.9719382487237453460693359375</LatitudeDegrees>
              <LongitudeDegrees>-6.33253513835370540618896484375</LongitudeDegrees>
            </Position>
            <AltitudeMeters>278.399993896484375</AltitudeMeters>
            <DistanceMeters>NAN</DistanceMeters>
          </Trackpoint>
          <Trackpoint>
            <Time>2019-10-09T10:00:01.000Z</Time>
            <Position>
              <LatitudeDegrees>38.9718711934983730316162109375</LatitudeDegrees>
              <LongitudeDegrees>-6.33257889188826084136962890625</LongitudeDegrees>
            </Position>
            <AltitudeMeters>278.399993896484375</AltitudeMeters>
            <DistanceMeters>NAN</DistanceMeters>
          </Trackpoint>
          <Trackpoint>
            <Time>2019-10-09T10:00:10.000Z</Time>
            <Position>
              <LatitudeDegrees>38.971567936241626739501953125</LatitudeDegrees>
              <LongitudeDegrees>-6.332776285707950592041015625</LongitudeDegrees>
            </Position>
            <AltitudeMeters>279.399993896484375</AltitudeMeters>
            <DistanceMeters>NAN</DistanceMeters>
          </Trackpoint>
          <Trackpoint>
            <Time>2019-10-09T10:00:12.000Z</Time>
            <Position>
              <LatitudeDegrees>38.97150297649204730987548828125</LatitudeDegrees>
              <LongitudeDegrees>-6.332816183567047119140625</LongitudeDegrees>
            </Position>
            <AltitudeMeters>279.600006103515625</AltitudeMeters>
            <DistanceMeters>NAN</DistanceMeters>
          </Trackpoint>
          <Trackpoint>
            <Time>2019-10-09T10:00:18.000Z</Time>
            <Position>
              <LatitudeDegrees>38.9713127911090850830078125</LatitudeDegrees>
              <LongitudeDegrees>-6.332931183278560638427734375</LongitudeDegrees>
            </Position>
            <AltitudeMeters>280.600006103515625</AltitudeMeters>
            <DistanceMeters>NAN</DistanceMeters>
          </Trackpoint>
          <Trackpoint>
            <Time>2019-10-09T10:00:19.000Z</Time>
            <Position>
              <LatitudeDegrees>38.971281610429286956787109375</LatitudeDegrees>
              <LongitudeDegrees>-6.3329487852752208709716796875</LongitudeDegrees>
            </Position>
            <AltitudeMeters>281</AltitudeMeters>
            <DistanceMeters>NAN</DistanceMeters>
          </Trackpoint>
          <Trackpoint>
            <Time>2019-10-09T10:00:24.000Z</Time>
            <Position>
              <LatitudeDegrees>38.97113107144832611083984375</LatitudeDegrees>
              <LongitudeDegrees>-6.3330416567623615264892578125</LongitudeDegrees>
            </Position>
            <AltitudeMeters>281.600006103515625</AltitudeMeters>
            <DistanceMeters>NAN</DistanceMeters>
          </Trackpoint>
          <Trackpoint>
            <Time>2019-10-09T10:00:29.000Z</Time>
            <Position>
              <LatitudeDegrees>38.970987908542156219482421875</LatitudeDegrees>
              <LongitudeDegrees>-6.3331358693540096282958984375</LongitudeDegrees>
            </Position>
            <AltitudeMeters>282.79998779296875</AltitudeMeters>
            <DistanceMeters>NAN</DistanceMeters>
          </Trackpoint>
          <Trackpoint>
            <Time>2019-10-09T10:00:30.000Z</Time>
            <Position>
              <LatitudeDegrees>38.97095781750977039337158203125</LatitudeDegrees>
              <LongitudeDegrees>-6.33315204642713069915771484375</LongitudeDegrees>
            </Position>
            <AltitudeMeters>283</AltitudeMeters>
            <DistanceMeters>NAN</DistanceMeters>
          </Trackpoint>
          <Trackpoint>
            <Time>2019-10-09T10:00:37.000Z</Time>
            <Position>
              <LatitudeDegrees>38.97076151333749294281005859375</LatitudeDegrees>
              <LongitudeDegrees>-6.33328624069690704345703125</LongitudeDegrees>
            </Position>
            <AltitudeMeters>283.79998779296875</AltitudeMeters>
            <DistanceMeters>NAN</DistanceMeters>
          </Trackpoint>
          <Trackpoint>
            <Time>2019-10-09T10:00:39.000Z</Time>
            <Position>
              <LatitudeDegrees>38.97070451639592647552490234375</LatitudeDegrees>
              <LongitudeDegrees>-6.333320774137973785400390625</LongitudeDegrees>
            </Position>
            <AltitudeMeters>284.399993896484375</AltitudeMeters>
            <DistanceMeters>NAN</DistanceMeters>
          </Trackpoint>
          <Trackpoint>
            <Time>2019-10-09T10:00:43.000Z</Time>
            <Position>
              <LatitudeDegrees>38.9705907739698886871337890625</LatitudeDegrees>
              <LongitudeDegrees>-6.333385817706584930419921875</LongitudeDegrees>
            </Position>
            <AltitudeMeters>285</AltitudeMeters>
            <DistanceMeters>NAN</DistanceMeters>
          </Trackpoint>
          <Trackpoint>
            <Time>2019-10-09T10:00:49.000Z</Time>
            <Position>
              <LatitudeDegrees>38.97042003460228443145751953125</LatitudeDegrees>
              <LongitudeDegrees>-6.3335023261606693267822265625</LongitudeDegrees>
            </Position>
            <AltitudeMeters>286</AltitudeMeters>
            <DistanceMeters>NAN</DistanceMeters>
          </Trackpoint>
          <Trackpoint>
            <Time>2019-10-09T10:00:54.000Z</Time>
            <Position>
              <LatitudeDegrees>38.97027536295354366302490234375</LatitudeDegrees>
              <LongitudeDegrees>-6.33358664810657501220703125</LongitudeDegrees>
            </Position>
            <AltitudeMeters>287.20001220703125</AltitudeMeters>
            <DistanceMeters>NAN</DistanceMeters>
          </Trackpoint>
          <Trackpoint>
            <Time>2019-10-09T10:00:57.000Z</Time>
            <Position>
              <LatitudeDegrees>38.97018835879862308502197265625</LatitudeDegrees>
              <LongitudeDegrees>-6.33364926092326641082763671875</LongitudeDegrees>
            </Position>
            <AltitudeMeters>287</AltitudeMeters>
            <DistanceMeters>NAN</DistanceMeters>
          </Trackpoint>
          <Trackpoint>
            <Time>2019-10-09T10:01:00.000Z</Time>
            <Position>
              <LatitudeDegrees>38.97009682841598987579345703125</LatitudeDegrees>
              <LongitudeDegrees>-6.33371011354029178619384765625</LongitudeDegrees>
            </Position>
            <AltitudeMeters>288.20001220703125</AltitudeMeters>
            <DistanceMeters>NAN</DistanceMeters>
          </Trackpoint>
          <Trackpoint>
            <Time>2019-10-09T10:01:03.000Z</Time>
            <Position>
              <LatitudeDegrees>38.97000311873853206634521484375</LatitudeDegrees>
              <LongitudeDegrees>-6.3337735645473003387451171875</LongitudeDegrees>
            </Position>
            <AltitudeMeters>288.399993896484375</AltitudeMeters>
            <DistanceMeters>NAN</DistanceMeters>
          </Trackpoint>
          <Trackpoint>
            <Time>2019-10-09T10:01:07.000Z</Time>
            <Position>
              <LatitudeDegrees>38.96988543681800365447998046875</LatitudeDegrees>
              <LongitudeDegrees>-6.33385092951357364654541015625</LongitudeDegrees>
            </Position>
            <AltitudeMeters>289.399993896484375</AltitudeMeters>
            <DistanceMeters>NAN</DistanceMeters>
          </Trackpoint>
          <Trackpoint>
            <Time>2019-10-09T10:01:12.000Z</Time>
            <Position>
              <LatitudeDegrees>38.9697418548166751861572265625</LatitudeDegrees>
              <LongitudeDegrees>-6.333939693868160247802734375</LongitudeDegrees>
            </Position>
            <AltitudeMeters>290</AltitudeMeters>
            <DistanceMeters>NAN</DistanceMeters>
          </Trackpoint>
          <Trackpoint>
            <Time>2019-10-09T10:01:15.000Z</Time>
            <Position>
              <LatitudeDegrees>38.969651162624359130859375</LatitudeDegrees>
              <LongitudeDegrees>-6.33399744518101215362548828125</LongitudeDegrees>
            </Position>
            <AltitudeMeters>290.399993896484375</AltitudeMeters>
            <DistanceMeters>NAN</DistanceMeters>
          </Trackpoint>
          <Trackpoint>
            <Time>2019-10-09T10:01:21.000Z</Time>
            <Position>
              <LatitudeDegrees>38.96945712156593799591064453125</LatitudeDegrees>
              <LongitudeDegrees>-6.3341229222714900970458984375</LongitudeDegrees>
            </Position>
            <AltitudeMeters>290.79998779296875</AltitudeMeters>
            <DistanceMeters>NAN</DistanceMeters>
          </Trackpoint>
          <Trackpoint>
            <Time>2019-10-09T10:01:25.000Z</Time>
            <Position>
              <LatitudeDegrees>38.9693247713148593902587890625</LatitudeDegrees>
              <LongitudeDegrees>-6.33421017788350582122802734375</LongitudeDegrees>
            </Position>
            <AltitudeMeters>291.600006103515625</AltitudeMeters>
            <DistanceMeters>NAN</DistanceMeters>
          </Trackpoint>
          <Trackpoint>
            <Time>2019-10-09T10:01:30.000Z</Time>
            <Position>
              <LatitudeDegrees>38.96915696561336517333984375</LatitudeDegrees>
              <LongitudeDegrees>-6.334329955279827117919921875</LongitudeDegrees>
            </Position>
            <AltitudeMeters>291.600006103515625</AltitudeMeters>
            <DistanceMeters>NAN</DistanceMeters>
          </Trackpoint>
          <Trackpoint>
            <Time>2019-10-09T10:01:41.000Z</Time>
            <Position>
              <LatitudeDegrees>38.9687859825789928436279296875</LatitudeDegrees>
              <LongitudeDegrees>-6.334612257778644561767578125</LongitudeDegrees>
            </Position>
            <AltitudeMeters>292</AltitudeMeters>
            <DistanceMeters>NAN</DistanceMeters>
          </Trackpoint>
          <Trackpoint>
            <Time>2019-10-09T10:01:48.000Z</Time>
            <Position>
              <LatitudeDegrees>38.968549109995365142822265625</LatitudeDegrees>
              <LongitudeDegrees>-6.334808059036731719970703125</LongitudeDegrees>
            </Position>
            <AltitudeMeters>292.20001220703125</AltitudeMeters>
            <DistanceMeters>NAN</DistanceMeters>
          </Trackpoint>
          <Trackpoint>
            <Time>2019-10-09T10:01:51.000Z</Time>
            <Position>
              <LatitudeDegrees>38.96844274364411830902099609375</LatitudeDegrees>
              <LongitudeDegrees>-6.33488894440233707427978515625</LongitudeDegrees>
            </Position>
            <AltitudeMeters>292.399993896484375</AltitudeMeters>
            <DistanceMeters>NAN</DistanceMeters>
          </Trackpoint>
          <Trackpoint>
            <Time>2019-10-09T10:01:53.000Z</Time>
            <Position>
              <LatitudeDegrees>38.96837376058101654052734375</LatitudeDegrees>
              <LongitudeDegrees>-6.33494652807712554931640625</LongitudeDegrees>
            </Position>
            <AltitudeMeters>292.600006103515625</AltitudeMeters>
            <DistanceMeters>NAN</DistanceMeters>
          </Trackpoint>
          <Trackpoint>
            <Time>2019-10-09T10:01:58.000Z</Time>
            <Position>
              <LatitudeDegrees>38.96818977780640125274658203125</LatitudeDegrees>
              <LongitudeDegrees>-6.33510402403771877288818359375</LongitudeDegrees>
            </Position>
            <AltitudeMeters>292.399993896484375</AltitudeMeters>
            <DistanceMeters>NAN</DistanceMeters>
          </Trackpoint>
          <Trackpoint>
            <Time>2019-10-09T10:02:09.000Z</Time>
            <Position>
              <LatitudeDegrees>38.9677714370191097259521484375</LatitudeDegrees>
              <LongitudeDegrees>-6.33545455522835254669189453125</LongitudeDegrees>
            </Position>
            <AltitudeMeters>293.600006103515625</AltitudeMeters>
            <DistanceMeters>NAN</DistanceMeters>
          </Trackpoint>
          <Trackpoint>
            <Time>2019-10-09T10:02:10.000Z</Time>
            <Position>
              <LatitudeDegrees>38.967737741768360137939453125</LatitudeDegrees>
              <LongitudeDegrees>-6.33548892103135585784912109375</LongitudeDegrees>
            </Position>
            <AltitudeMeters>293.399993896484375</AltitudeMeters>
            <DistanceMeters>NAN</DistanceMeters>
          </Trackpoint>
          <Trackpoint>
            <Time>2019-10-09T10:02:12.000Z</Time>
            <Position>
              <LatitudeDegrees>38.96766674704849720001220703125</LatitudeDegrees>
              <LongitudeDegrees>-6.33555195294320583343505859375</LongitudeDegrees>
            </Position>
            <AltitudeMeters>294</AltitudeMeters>
            <DistanceMeters>NAN</DistanceMeters>
          </Trackpoint>
          <Trackpoint>
            <Time>2019-10-09T10:02:14.000Z</Time>
            <Position>
              <LatitudeDegrees>38.9675939083099365234375</LatitudeDegrees>
              <LongitudeDegrees>-6.33561565540730953216552734375</LongitudeDegrees>
            </Position>
            <AltitudeMeters>294.399993896484375</AltitudeMeters>
            <DistanceMeters>NAN</DistanceMeters>
          </Trackpoint>
          <Trackpoint>
            <Time>2019-10-09T10:02:16.000Z</Time>
            <Position>
              <LatitudeDegrees>38.967521823942661285400390625</LatitudeDegrees>
              <LongitudeDegrees>-6.33567382581532001495361328125</LongitudeDegrees>
            </Position>
            <AltitudeMeters>294.600006103515625</AltitudeMeters>
            <DistanceMeters>NAN</DistanceMeters>
          </Trackpoint>
          <Trackpoint>
            <Time>2019-10-09T10:02:17.000Z</Time>
            <Position>
              <LatitudeDegrees>38.96749005652964115142822265625</LatitudeDegrees>
              <LongitudeDegrees>-6.33570534177124500274658203125</LongitudeDegrees>
            </Position>
            <AltitudeMeters>295</AltitudeMeters>
            <DistanceMeters>NAN</DistanceMeters>
          </Trackpoint>
          <Trackpoint>
            <Time>2019-10-09T10:02:21.000Z</Time>
            <Position>
              <LatitudeDegrees>38.96735426969826221466064453125</LatitudeDegrees>
              <LongitudeDegrees>-6.33582553826272487640380859375</LongitudeDegrees>
            </Position>
            <AltitudeMeters>295.79998779296875</AltitudeMeters>
            <DistanceMeters>NAN</DistanceMeters>
          </Trackpoint>
          <Trackpoint>
            <Time>2019-10-09T10:02:24.000Z</Time>
            <Position>
              <LatitudeDegrees>38.96725586615502834320068359375</LatitudeDegrees>
              <LongitudeDegrees>-6.33590633980929851531982421875</LongitudeDegrees>
            </Position>
            <AltitudeMeters>296</AltitudeMeters>
            <DistanceMeters>NAN</DistanceMeters>
          </Trackpoint>
          <Trackpoint>
            <Time>2019-10-09T10:02:28.000Z</Time>
            <Position>
              <LatitudeDegrees>38.967116810381412506103515625</LatitudeDegrees>
              <LongitudeDegrees>-6.3360303081572055816650390625</LongitudeDegrees>
            </Position>
            <AltitudeMeters>297</AltitudeMeters>
            <DistanceMeters>NAN</DistanceMeters>
          </Trackpoint>
          <Trackpoint>
            <Time>2019-10-09T10:02:32.000Z</Time>
            <Position>
              <LatitudeDegrees>38.9669783413410186767578125</LatitudeDegrees>
              <LongitudeDegrees>-6.336157880723476409912109375</LongitudeDegrees>
            </Position>
            <AltitudeMeters>296.600006103515625</AltitudeMeters>
            <DistanceMeters>NAN</DistanceMeters>
          </Trackpoint>
          <Trackpoint>
            <Time>2019-10-09T10:02:41.000Z</Time>
            <Position>
              <LatitudeDegrees>38.96664868108928203582763671875</LatitudeDegrees>
              <LongitudeDegrees>-6.336426101624965667724609375</LongitudeDegrees>
            </Position>
            <AltitudeMeters>297.399993896484375</AltitudeMeters>
            <DistanceMeters>NAN</DistanceMeters>
          </Trackpoint>
          <Trackpoint>
            <Time>2019-10-09T10:02:49.000Z</Time>
            <Position>
              <LatitudeDegrees>38.966306112706661224365234375</LatitudeDegrees>
              <LongitudeDegrees>-6.3367072306573390960693359375</LongitudeDegrees>
            </Position>
            <AltitudeMeters>296.399993896484375</AltitudeMeters>
            <DistanceMeters>NAN</DistanceMeters>
          </Trackpoint>
          <Trackpoint>
            <Time>2019-10-09T10:02:50.000Z</Time>
            <Position>
              <LatitudeDegrees>38.9662563242018222808837890625</LatitudeDegrees>
              <LongitudeDegrees>-6.3367496430873870849609375</LongitudeDegrees>
            </Position>
            <AltitudeMeters>295.79998779296875</AltitudeMeters>
            <DistanceMeters>NAN</DistanceMeters>
          </Trackpoint>
          <Trackpoint>
            <Time>2019-10-09T10:02:54.000Z</Time>
            <Position>
              <LatitudeDegrees>38.96604820154607295989990234375</LatitudeDegrees>
              <LongitudeDegrees>-6.3369265012443065643310546875</LongitudeDegrees>
            </Position>
            <AltitudeMeters>295</AltitudeMeters>
            <DistanceMeters>NAN</DistanceMeters>
          </Trackpoint>
          <Trackpoint>
            <Time>2019-10-09T10:02:55.000Z</Time>
            <Position>
              <LatitudeDegrees>38.96599338389933109283447265625</LatitudeDegrees>
              <LongitudeDegrees>-6.33697293698787689208984375</LongitudeDegrees>
            </Position>
            <AltitudeMeters>294.399993896484375</AltitudeMeters>
            <DistanceMeters>NAN</DistanceMeters>
          </Trackpoint>
          <Trackpoint>
            <Time>2019-10-09T10:02:56.000Z</Time>
            <Position>
              <LatitudeDegrees>38.9659361355006694793701171875</LatitudeDegrees>
              <LongitudeDegrees>-6.33702163584530353546142578125</LongitudeDegrees>
            </Position>
            <AltitudeMeters>294.20001220703125</AltitudeMeters>
            <DistanceMeters>NAN</DistanceMeters>
          </Trackpoint>
          <Trackpoint>
            <Time>2019-10-09T10:02:59.000Z</Time>
            <Position>
              <LatitudeDegrees>38.965758271515369415283203125</LatitudeDegrees>
              <LongitudeDegrees>-6.33717234246432781219482421875</LongitudeDegrees>
            </Position>
            <AltitudeMeters>293.399993896484375</AltitudeMeters>
            <DistanceMeters>NAN</DistanceMeters>
          </Trackpoint>
          <Trackpoint>
            <Time>2019-10-09T10:03:02.000Z</Time>
            <Position>
              <LatitudeDegrees>38.96557713858783245086669921875</LatitudeDegrees>
              <LongitudeDegrees>-6.33732975460588932037353515625</LongitudeDegrees>
            </Position>
            <AltitudeMeters>292.600006103515625</AltitudeMeters>
            <DistanceMeters>NAN</DistanceMeters>
          </Trackpoint>
          <Trackpoint>
            <Time>2019-10-09T10:03:03.000Z</Time>
            <Position>
              <LatitudeDegrees>38.965516872704029083251953125</LatitudeDegrees>
              <LongitudeDegrees>-6.3373818062245845794677734375</LongitudeDegrees>
            </Position>
            <AltitudeMeters>292</AltitudeMeters>
            <DistanceMeters>NAN</DistanceMeters>
          </Trackpoint>
          <Trackpoint>
            <Time>2019-10-09T10:03:04.000Z</Time>
            <Position>
              <LatitudeDegrees>38.96545526571571826934814453125</LatitudeDegrees>
              <LongitudeDegrees>-6.337435953319072723388671875</LongitudeDegrees>
            </Position>
            <AltitudeMeters>291.20001220703125</AltitudeMeters>
            <DistanceMeters>NAN</DistanceMeters>
          </Trackpoint>
          <Trackpoint>
            <Time>2019-10-09T10:03:05.000Z</Time>
            <Position>
              <LatitudeDegrees>38.9653926528990268707275390625</LatitudeDegrees>
              <LongitudeDegrees>-6.337488926947116851806640625</LongitudeDegrees>
            </Position>
            <AltitudeMeters>291</AltitudeMeters>
            <DistanceMeters>NAN</DistanceMeters>
          </Trackpoint>
          <Trackpoint>
            <Time>2019-10-09T10:03:11.000Z</Time>
            <Position>
              <LatitudeDegrees>38.96501404233276844024658203125</LatitudeDegrees>
              <LongitudeDegrees>-6.33782495744526386260986328125</LongitudeDegrees>
            </Position>
            <AltitudeMeters>290</AltitudeMeters>
            <DistanceMeters>NAN</DistanceMeters>
          </Trackpoint>
          <Trackpoint>
            <Time>2019-10-09T10:03:12.000Z</Time>
            <Position>
              <LatitudeDegrees>38.96495067514479160308837890625</LatitudeDegrees>
              <LongitudeDegrees>-6.33787876926362514495849609375</LongitudeDegrees>
            </Position>
            <AltitudeMeters>289.600006103515625</AltitudeMeters>
            <DistanceMeters>NAN</DistanceMeters>
          </Trackpoint>
          <Trackpoint>
            <Time>2019-10-09T10:03:13.000Z</Time>
            <Position>
              <LatitudeDegrees>38.96488487720489501953125</LatitudeDegrees>
              <LongitudeDegrees>-6.33793727494776248931884765625</LongitudeDegrees>
            </Position>
            <AltitudeMeters>289.20001220703125</AltitudeMeters>
            <DistanceMeters>NAN</DistanceMeters>
          </Trackpoint>
          <Trackpoint>
            <Time>2019-10-09T10:03:14.000Z</Time>
            <Position>
              <LatitudeDegrees>38.96481773816049098968505859375</LatitudeDegrees>
              <LongitudeDegrees>-6.3379950262606143951416015625</LongitudeDegrees>
            </Position>
            <AltitudeMeters>289</AltitudeMeters>
            <DistanceMeters>NAN</DistanceMeters>
          </Trackpoint>
          <Trackpoint>
            <Time>2019-10-09T10:03:15.000Z</Time>
            <Position>
              <LatitudeDegrees>38.96475470624864101409912109375</LatitudeDegrees>
              <LongitudeDegrees>-6.33805428631603717803955078125</LongitudeDegrees>
            </Position>
            <AltitudeMeters>288.399993896484375</AltitudeMeters>
            <DistanceMeters>NAN</DistanceMeters>
          </Trackpoint>
          <Trackpoint>
            <Time>2019-10-09T10:03:16.000Z</Time>
            <Position>
              <LatitudeDegrees>38.9646877348423004150390625</LatitudeDegrees>
              <LongitudeDegrees>-6.3381133787333965301513671875</LongitudeDegrees>
            </Position>
            <AltitudeMeters>288</AltitudeMeters>
            <DistanceMeters>NAN</DistanceMeters>
          </Trackpoint>
          <Trackpoint>
            <Time>2019-10-09T10:03:20.000Z</Time>
            <Position>
              <LatitudeDegrees>38.96442295052111148834228515625</LatitudeDegrees>
              <LongitudeDegrees>-6.33835352025926113128662109375</LongitudeDegrees>
            </Position>
            <AltitudeMeters>287.20001220703125</AltitudeMeters>
            <DistanceMeters>NAN</DistanceMeters>
          </Trackpoint>
          <Trackpoint>
            <Time>2019-10-09T10:03:22.000Z</Time>
            <Position>
              <LatitudeDegrees>38.9642889238893985748291015625</LatitudeDegrees>
              <LongitudeDegrees>-6.33848494850099086761474609375</LongitudeDegrees>
            </Position>
            <AltitudeMeters>286.399993896484375</AltitudeMeters>
            <DistanceMeters>NAN</DistanceMeters>
          </Trackpoint>
          <Trackpoint>
            <Time>2019-10-09T10:03:23.000Z</Time>
            <Position>
              <LatitudeDegrees>38.96421968936920166015625</LatitudeDegrees>
              <LongitudeDegrees>-6.338554434478282928466796875</LongitudeDegrees>
            </Position>
            <AltitudeMeters>286</AltitudeMeters>
            <DistanceMeters>NAN</DistanceMeters>
          </Trackpoint>
          <Trackpoint>
            <Time>2019-10-09T10:03:24.000Z</Time>
            <Position>
              <LatitudeDegrees>38.9641514606773853302001953125</LatitudeDegrees>
              <LongitudeDegrees>-6.33862324990332126617431640625</LongitudeDegrees>
            </Position>
            <AltitudeMeters>285.600006103515625</AltitudeMeters>
            <DistanceMeters>NAN</DistanceMeters>
          </Trackpoint>
          <Trackpoint>
            <Time>2019-10-09T10:03:25.000Z</Time>
            <Position>
              <LatitudeDegrees>38.9640817232429981231689453125</LatitudeDegrees>
              <LongitudeDegrees>-6.338693238794803619384765625</LongitudeDegrees>
            </Position>
            <AltitudeMeters>285.20001220703125</AltitudeMeters>
            <DistanceMeters>NAN</DistanceMeters>
          </Trackpoint>
          <Trackpoint>
            <Time>2019-10-09T10:03:26.000Z</Time>
            <Position>
              <LatitudeDegrees>38.96400980651378631591796875</LatitudeDegrees>
              <LongitudeDegrees>-6.33876490406692028045654296875</LongitudeDegrees>
            </Position>
            <AltitudeMeters>284.399993896484375</AltitudeMeters>
            <DistanceMeters>NAN</DistanceMeters>
          </Trackpoint>
          <Trackpoint>
            <Time>2019-10-09T10:03:27.000Z</Time>
            <Position>
              <LatitudeDegrees>38.963935710489749908447265625</LatitudeDegrees>
              <LongitudeDegrees>-6.33883631788194179534912109375</LongitudeDegrees>
            </Position>
            <AltitudeMeters>284</AltitudeMeters>
            <DistanceMeters>NAN</DistanceMeters>
          </Trackpoint>
          <Trackpoint>
            <Time>2019-10-09T10:03:29.000Z</Time>
            <Position>
              <LatitudeDegrees>38.96379330195486545562744140625</LatitudeDegrees>
              <LongitudeDegrees>-6.338990628719329833984375</LongitudeDegrees>
            </Position>
            <AltitudeMeters>283</AltitudeMeters>
            <DistanceMeters>NAN</DistanceMeters>
          </Trackpoint>
          <Trackpoint>
            <Time>2019-10-09T10:03:30.000Z</Time>
            <Position>
              <LatitudeDegrees>38.96371870301663875579833984375</LatitudeDegrees>
              <LongitudeDegrees>-6.33906816132366657257080078125</LongitudeDegrees>
            </Position>
            <AltitudeMeters>282.20001220703125</AltitudeMeters>
            <DistanceMeters>NAN</DistanceMeters>
          </Trackpoint>
          <Trackpoint>
            <Time>2019-10-09T10:03:31.000Z</Time>
            <Position>
              <LatitudeDegrees>38.96364192478358745574951171875</LatitudeDegrees>
              <LongitudeDegrees>-6.33914820849895477294921875</LongitudeDegrees>
            </Position>
            <AltitudeMeters>281.399993896484375</AltitudeMeters>
            <DistanceMeters>NAN</DistanceMeters>
          </Trackpoint>
          <Trackpoint>
            <Time>2019-10-09T10:03:33.000Z</Time>
            <Position>
              <LatitudeDegrees>38.9634859375655651092529296875</LatitudeDegrees>
              <LongitudeDegrees>-6.3393113203346729278564453125</LongitudeDegrees>
            </Position>
            <AltitudeMeters>279.79998779296875</AltitudeMeters>
            <DistanceMeters>NAN</DistanceMeters>
          </Trackpoint>
          <Trackpoint>
            <Time>2019-10-09T10:03:34.000Z</Time>
            <Position>
              <LatitudeDegrees>38.9634098298847675323486328125</LatitudeDegrees>
              <LongitudeDegrees>-6.3393937982618808746337890625</LongitudeDegrees>
            </Position>
            <AltitudeMeters>279.600006103515625</AltitudeMeters>
            <DistanceMeters>NAN</DistanceMeters>
          </Trackpoint>
          <Trackpoint>
            <Time>2019-10-09T10:03:36.000Z</Time>
            <Position>
              <LatitudeDegrees>38.96325836889445781707763671875</LatitudeDegrees>
              <LongitudeDegrees>-6.3395587541162967681884765625</LongitudeDegrees>
            </Position>
            <AltitudeMeters>278.600006103515625</AltitudeMeters>
            <DistanceMeters>NAN</DistanceMeters>
          </Trackpoint>
          <Trackpoint>
            <Time>2019-10-09T10:03:38.000Z</Time>
            <Position>
              <LatitudeDegrees>38.96310414187610149383544921875</LatitudeDegrees>
              <LongitudeDegrees>-6.33972496725618839263916015625</LongitudeDegrees>
            </Position>
            <AltitudeMeters>277.600006103515625</AltitudeMeters>
            <DistanceMeters>NAN</DistanceMeters>
          </Trackpoint>
          <Trackpoint>
            <Time>2019-10-09T10:03:39.000Z</Time>
            <Position>
              <LatitudeDegrees>38.963022418320178985595703125</LatitudeDegrees>
              <LongitudeDegrees>-6.339808367192745208740234375</LongitudeDegrees>
            </Position>
            <AltitudeMeters>277.399993896484375</AltitudeMeters>
            <DistanceMeters>NAN</DistanceMeters>
          </Trackpoint>
          <Trackpoint>
            <Time>2019-10-09T10:03:40.000Z</Time>
            <Position>
              <LatitudeDegrees>38.962940275669097900390625</LatitudeDegrees>
              <LongitudeDegrees>-6.33989277295768260955810546875</LongitudeDegrees>
            </Position>
            <AltitudeMeters>276.399993896484375</AltitudeMeters>
            <DistanceMeters>NAN</DistanceMeters>
          </Trackpoint>
          <Trackpoint>
            <Time>2019-10-09T10:03:41.000Z</Time>
            <Position>
              <LatitudeDegrees>38.96285804919898509979248046875</LatitudeDegrees>
              <LongitudeDegrees>-6.339980699121952056884765625</LongitudeDegrees>
            </Position>
            <AltitudeMeters>276</AltitudeMeters>
            <DistanceMeters>NAN</DistanceMeters>
          </Trackpoint>
          <Trackpoint>
            <Time>2019-10-09T10:03:42.000Z</Time>
            <Position>
              <LatitudeDegrees>38.96277708001434803009033203125</LatitudeDegrees>
              <LongitudeDegrees>-6.3400680385529994964599609375</LongitudeDegrees>
            </Position>
            <AltitudeMeters>275</AltitudeMeters>
            <DistanceMeters>NAN</DistanceMeters>
          </Trackpoint>
          <Trackpoint>
            <Time>2019-10-09T10:03:44.000Z</Time>
            <Position>
              <LatitudeDegrees>38.96261413581669330596923828125</LatitudeDegrees>
              <LongitudeDegrees>-6.34024322032928466796875</LongitudeDegrees>
            </Position>
            <AltitudeMeters>273.399993896484375</AltitudeMeters>
            <DistanceMeters>NAN</DistanceMeters>
          </Trackpoint>
          <Trackpoint>
            <Time>2019-10-09T10:03:45.000Z</Time>
            <Position>
              <LatitudeDegrees>38.9625314064323902130126953125</LatitudeDegrees>
              <LongitudeDegrees>-6.34033265523612499237060546875</LongitudeDegrees>
            </Position>
            <AltitudeMeters>273</AltitudeMeters>
            <DistanceMeters>NAN</DistanceMeters>
          </Trackpoint>
          <Trackpoint>
            <Time>2019-10-09T10:03:47.000Z</Time>
            <Position>
              <LatitudeDegrees>38.96236695349216461181640625</LatitudeDegrees>
              <LongitudeDegrees>-6.34051077067852020263671875</LongitudeDegrees>
            </Position>
            <AltitudeMeters>272.399993896484375</AltitudeMeters>
            <DistanceMeters>NAN</DistanceMeters>
          </Trackpoint>
          <Trackpoint>
            <Time>2019-10-09T10:03:48.000Z</Time>
            <Position>
              <LatitudeDegrees>38.96228170953691005706787109375</LatitudeDegrees>
              <LongitudeDegrees>-6.340601630508899688720703125</LongitudeDegrees>
            </Position>
            <AltitudeMeters>271.399993896484375</AltitudeMeters>
            <DistanceMeters>NAN</DistanceMeters>
          </Trackpoint>
          <Trackpoint>
            <Time>2019-10-09T10:03:51.000Z</Time>
            <Position>
              <LatitudeDegrees>38.9620325155556201934814453125</LatitudeDegrees>
              <LongitudeDegrees>-6.3408750481903553009033203125</LongitudeDegrees>
            </Position>
            <AltitudeMeters>270.20001220703125</AltitudeMeters>
            <DistanceMeters>NAN</DistanceMeters>
          </Trackpoint>
          <Trackpoint>
            <Time>2019-10-09T10:03:52.000Z</Time>
            <Position>
              <LatitudeDegrees>38.9619466848671436309814453125</LatitudeDegrees>
              <LongitudeDegrees>-6.34096406400203704833984375</LongitudeDegrees>
            </Position>
            <AltitudeMeters>269</AltitudeMeters>
            <DistanceMeters>NAN</DistanceMeters>
          </Trackpoint>
          <Trackpoint>
            <Time>2019-10-09T10:03:56.000Z</Time>
            <Position>
              <LatitudeDegrees>38.96158643066883087158203125</LatitudeDegrees>
              <LongitudeDegrees>-6.34128198958933353424072265625</LongitudeDegrees>
            </Position>
            <AltitudeMeters>267.20001220703125</AltitudeMeters>
            <DistanceMeters>NAN</DistanceMeters>
          </Trackpoint>
          <Trackpoint>
            <Time>2019-10-09T10:03:59.000Z</Time>
            <Position>
              <LatitudeDegrees>38.9612912200391292572021484375</LatitudeDegrees>
              <LongitudeDegrees>-6.34145381860435009002685546875</LongitudeDegrees>
            </Position>
            <AltitudeMeters>266</AltitudeMeters>
            <DistanceMeters>NAN</DistanceMeters>
          </Trackpoint>
          <Trackpoint>
            <Time>2019-10-09T10:04:01.000Z</Time>
            <Position>
              <LatitudeDegrees>38.9610836841166019439697265625</LatitudeDegrees>
              <LongitudeDegrees>-6.3415373861789703369140625</LongitudeDegrees>
            </Position>
            <AltitudeMeters>265.399993896484375</AltitudeMeters>
            <DistanceMeters>NAN</DistanceMeters>
          </Trackpoint>
          <Trackpoint>
            <Time>2019-10-09T10:04:03.000Z</Time>
            <Position>
              <LatitudeDegrees>38.9608763158321380615234375</LatitudeDegrees>
              <LongitudeDegrees>-6.341596730053424835205078125</LongitudeDegrees>
            </Position>
            <AltitudeMeters>264.79998779296875</AltitudeMeters>
            <DistanceMeters>NAN</DistanceMeters>
          </Trackpoint>
          <Trackpoint>
            <Time>2019-10-09T10:04:05.000Z</Time>
            <Position>
              <LatitudeDegrees>38.9606672711670398712158203125</LatitudeDegrees>
              <LongitudeDegrees>-6.34163285605609416961669921875</LongitudeDegrees>
            </Position>
            <AltitudeMeters>263.79998779296875</AltitudeMeters>
            <DistanceMeters>NAN</DistanceMeters>
          </Trackpoint>
          <Trackpoint>
            <Time>2019-10-09T10:04:06.000Z</Time>
            <Position>
              <LatitudeDegrees>38.96056182682514190673828125</LatitudeDegrees>
              <LongitudeDegrees>-6.3416418246924877166748046875</LongitudeDegrees>
            </Position>
            <AltitudeMeters>263.399993896484375</AltitudeMeters>
            <DistanceMeters>NAN</DistanceMeters>
          </Trackpoint>
          <Trackpoint>
            <Time>2019-10-09T10:04:11.000Z</Time>
            <Position>
              <LatitudeDegrees>38.96004692651331424713134765625</LatitudeDegrees>
              <LongitudeDegrees>-6.341628246009349822998046875</LongitudeDegrees>
            </Position>
            <AltitudeMeters>262.600006103515625</AltitudeMeters>
            <DistanceMeters>NAN</DistanceMeters>
          </Trackpoint>
          <Trackpoint>
            <Time>2019-10-09T10:04:12.000Z</Time>
            <Position>
              <LatitudeDegrees>38.95994760096073150634765625</LatitudeDegrees>
              <LongitudeDegrees>-6.34162128902971744537353515625</LongitudeDegrees>
            </Position>
            <AltitudeMeters>262.79998779296875</AltitudeMeters>
            <DistanceMeters>NAN</DistanceMeters>
          </Trackpoint>
          <Trackpoint>
            <Time>2019-10-09T10:04:15.000Z</Time>
            <Position>
              <LatitudeDegrees>38.9596567489206790924072265625</LatitudeDegrees>
              <LongitudeDegrees>-6.3415968976914882659912109375</LongitudeDegrees>
            </Position>
            <AltitudeMeters>263</AltitudeMeters>
            <DistanceMeters>NAN</DistanceMeters>
          </Trackpoint>
          <Trackpoint>
            <Time>2019-10-09T10:04:19.000Z</Time>
            <Position>
              <LatitudeDegrees>38.95929850637912750244140625</LatitudeDegrees>
              <LongitudeDegrees>-6.34156680665910243988037109375</LongitudeDegrees>
            </Position>
            <AltitudeMeters>263.600006103515625</AltitudeMeters>
            <DistanceMeters>NAN</DistanceMeters>
          </Trackpoint>
          <Trackpoint>
            <Time>2019-10-09T10:04:23.000Z</Time>
            <Position>
              <LatitudeDegrees>38.95896901376545429229736328125</LatitudeDegrees>
              <LongitudeDegrees>-6.3415427505970001220703125</LongitudeDegrees>
            </Position>
            <AltitudeMeters>263.399993896484375</AltitudeMeters>
            <DistanceMeters>NAN</DistanceMeters>
          </Trackpoint>
          <Trackpoint>
            <Time>2019-10-09T10:04:25.000Z</Time>
            <Position>
              <LatitudeDegrees>38.95881160162389278411865234375</LatitudeDegrees>
              <LongitudeDegrees>-6.34153042919933795928955078125</LongitudeDegrees>
            </Position>
            <AltitudeMeters>264.20001220703125</AltitudeMeters>
            <DistanceMeters>NAN</DistanceMeters>
          </Trackpoint>
          <Trackpoint>
            <Time>2019-10-09T10:04:26.000Z</Time>
            <Position>
              <LatitudeDegrees>38.95873599685728549957275390625</LatitudeDegrees>
              <LongitudeDegrees>-6.3415274955332279205322265625</LongitudeDegrees>
            </Position>
            <AltitudeMeters>264.399993896484375</AltitudeMeters>
            <DistanceMeters>NAN</DistanceMeters>
          </Trackpoint>
          <Trackpoint>
            <Time>2019-10-09T10:04:33.000Z</Time>
            <Position>
              <LatitudeDegrees>38.958203159272670745849609375</LatitudeDegrees>
              <LongitudeDegrees>-6.341538727283477783203125</LongitudeDegrees>
            </Position>
            <AltitudeMeters>264.20001220703125</AltitudeMeters>
            <DistanceMeters>NAN</DistanceMeters>
          </Trackpoint>
          <Trackpoint>
            <Time>2019-10-09T10:04:35.000Z</Time>
            <Position>
              <LatitudeDegrees>38.95805454812943935394287109375</LatitudeDegrees>
              <LongitudeDegrees>-6.341559179127216339111328125</LongitudeDegrees>
            </Position>
            <AltitudeMeters>264</AltitudeMeters>
            <DistanceMeters>NAN</DistanceMeters>
          </Trackpoint>
          <Trackpoint>
            <Time>2019-10-09T10:04:39.000Z</Time>
            <Position>
              <LatitudeDegrees>38.9577654562890529632568359375</LatitudeDegrees>
              <LongitudeDegrees>-6.34161458350718021392822265625</LongitudeDegrees>
            </Position>
            <AltitudeMeters>263.79998779296875</AltitudeMeters>
            <DistanceMeters>NAN</DistanceMeters>
          </Trackpoint>
          <Trackpoint>
            <Time>2019-10-09T10:04:43.000Z</Time>
            <Position>
              <LatitudeDegrees>38.9574881829321384429931640625</LatitudeDegrees>
              <LongitudeDegrees>-6.34167761541903018951416015625</LongitudeDegrees>
            </Position>
            <AltitudeMeters>263.79998779296875</AltitudeMeters>
            <DistanceMeters>NAN</DistanceMeters>
          </Trackpoint>
          <Trackpoint>
            <Time>2019-10-09T10:04:51.000Z</Time>
            <Position>
              <LatitudeDegrees>38.95694646053016185760498046875</LatitudeDegrees>
              <LongitudeDegrees>-6.34183569811284542083740234375</LongitudeDegrees>
            </Position>
            <AltitudeMeters>264.399993896484375</AltitudeMeters>
            <DistanceMeters>NAN</DistanceMeters>
          </Trackpoint>
          <Trackpoint>
            <Time>2019-10-09T10:04:53.000Z</Time>
            <Position>
              <LatitudeDegrees>38.95680941641330718994140625</LatitudeDegrees>
              <LongitudeDegrees>-6.341877020895481109619140625</LongitudeDegrees>
            </Position>
            <AltitudeMeters>264.399993896484375</AltitudeMeters>
            <DistanceMeters>NAN</DistanceMeters>
          </Trackpoint>
          <Trackpoint>
            <Time>2019-10-09T10:05:01.000Z</Time>
            <Position>
              <LatitudeDegrees>38.95627699792385101318359375</LatitudeDegrees>
              <LongitudeDegrees>-6.3420397974550724029541015625</LongitudeDegrees>
            </Position>
            <AltitudeMeters>264.20001220703125</AltitudeMeters>
            <DistanceMeters>NAN</DistanceMeters>
          </Trackpoint>
          <Trackpoint>
            <Time>2019-10-09T10:05:09.000Z</Time>
            <Position>
              <LatitudeDegrees>38.95574533380568027496337890625</LatitudeDegrees>
              <LongitudeDegrees>-6.34220215491950511932373046875</LongitudeDegrees>
            </Position>
            <AltitudeMeters>263.399993896484375</AltitudeMeters>
            <DistanceMeters>NAN</DistanceMeters>
          </Trackpoint>
          <Trackpoint>
            <Time>2019-10-09T10:05:13.000Z</Time>
            <Position>
              <LatitudeDegrees>38.955465964972972869873046875</LatitudeDegrees>
              <LongitudeDegrees>-6.342287398874759674072265625</LongitudeDegrees>
            </Position>
            <AltitudeMeters>262.79998779296875</AltitudeMeters>
            <DistanceMeters>NAN</DistanceMeters>
          </Trackpoint>
          <Trackpoint>
            <Time>2019-10-09T10:05:14.000Z</Time>
            <Position>
              <LatitudeDegrees>38.95539144985377788543701171875</LatitudeDegrees>
              <LongitudeDegrees>-6.34231212548911571502685546875</LongitudeDegrees>
            </Position>
            <AltitudeMeters>262.399993896484375</AltitudeMeters>
            <DistanceMeters>NAN</DistanceMeters>
          </Trackpoint>
          <Trackpoint>
            <Time>2019-10-09T10:05:16.000Z</Time>
            <Position>
              <LatitudeDegrees>38.9552463591098785400390625</LatitudeDegrees>
              <LongitudeDegrees>-6.34235973469913005828857421875</LongitudeDegrees>
            </Position>
            <AltitudeMeters>261.20001220703125</AltitudeMeters>
            <DistanceMeters>NAN</DistanceMeters>
          </Trackpoint>
          <Trackpoint>
            <Time>2019-10-09T10:05:20.000Z</Time>
            <Position>
              <LatitudeDegrees>38.95493782125413417816162109375</LatitudeDegrees>
              <LongitudeDegrees>-6.34244975633919239044189453125</LongitudeDegrees>
            </Position>
            <AltitudeMeters>260.20001220703125</AltitudeMeters>
            <DistanceMeters>NAN</DistanceMeters>
          </Trackpoint>
          <Trackpoint>
            <Time>2019-10-09T10:05:21.000Z</Time>
            <Position>
              <LatitudeDegrees>38.954855091869831085205078125</LatitudeDegrees>
              <LongitudeDegrees>-6.3424766622483730316162109375</LongitudeDegrees>
            </Position>
            <AltitudeMeters>260</AltitudeMeters>
            <DistanceMeters>NAN</DistanceMeters>
          </Trackpoint>
          <Trackpoint>
            <Time>2019-10-09T10:05:23.000Z</Time>
            <Position>
              <LatitudeDegrees>38.9546896331012248992919921875</LatitudeDegrees>
              <LongitudeDegrees>-6.34253072552382946014404296875</LongitudeDegrees>
            </Position>
            <AltitudeMeters>258.79998779296875</AltitudeMeters>
            <DistanceMeters>NAN</DistanceMeters>
          </Trackpoint>
          <Trackpoint>
            <Time>2019-10-09T10:05:25.000Z</Time>
            <Position>
              <LatitudeDegrees>38.9545189775526523590087890625</LatitudeDegrees>
              <LongitudeDegrees>-6.3425842858850955963134765625</LongitudeDegrees>
            </Position>
            <AltitudeMeters>257.79998779296875</AltitudeMeters>
            <DistanceMeters>NAN</DistanceMeters>
          </Trackpoint>
          <Trackpoint>
            <Time>2019-10-09T10:05:28.000Z</Time>
            <Position>
              <LatitudeDegrees>38.95425301976501941680908203125</LatitudeDegrees>
              <LongitudeDegrees>-6.34266651235520839691162109375</LongitudeDegrees>
            </Position>
            <AltitudeMeters>256.79998779296875</AltitudeMeters>
            <DistanceMeters>NAN</DistanceMeters>
          </Trackpoint>
          <Trackpoint>
            <Time>2019-10-09T10:05:29.000Z</Time>
            <Position>
              <LatitudeDegrees>38.95416366867721080780029296875</LatitudeDegrees>
              <LongitudeDegrees>-6.342695094645023345947265625</LongitudeDegrees>
            </Position>
            <AltitudeMeters>256</AltitudeMeters>
            <DistanceMeters>NAN</DistanceMeters>
          </Trackpoint>
          <Trackpoint>
            <Time>2019-10-09T10:05:30.000Z</Time>
            <Position>
              <LatitudeDegrees>38.954071886837482452392578125</LatitudeDegrees>
              <LongitudeDegrees>-6.34272267110645771026611328125</LongitudeDegrees>
            </Position>
            <AltitudeMeters>255.8000030517578125</AltitudeMeters>
            <DistanceMeters>NAN</DistanceMeters>
          </Trackpoint>
          <Trackpoint>
            <Time>2019-10-09T10:05:35.000Z</Time>
            <Position>
              <LatitudeDegrees>38.95362253300845623016357421875</LatitudeDegrees>
              <LongitudeDegrees>-6.34283532388508319854736328125</LongitudeDegrees>
            </Position>
            <AltitudeMeters>255.399993896484375</AltitudeMeters>
            <DistanceMeters>NAN</DistanceMeters>
          </Trackpoint>
          <Trackpoint>
            <Time>2019-10-09T10:05:36.000Z</Time>
            <Position>
              <LatitudeDegrees>38.9535342715680599212646484375</LatitudeDegrees>
              <LongitudeDegrees>-6.3428528420627117156982421875</LongitudeDegrees>
            </Position>
            <AltitudeMeters>255.600006103515625</AltitudeMeters>
            <DistanceMeters>NAN</DistanceMeters>
          </Trackpoint>
          <Trackpoint>
            <Time>2019-10-09T10:05:39.000Z</Time>
            <Position>
              <LatitudeDegrees>38.95326814614236354827880859375</LatitudeDegrees>
              <LongitudeDegrees>-6.34288662113249301910400390625</LongitudeDegrees>
            </Position>
            <AltitudeMeters>254.399993896484375</AltitudeMeters>
            <DistanceMeters>NAN</DistanceMeters>
          </Trackpoint>
          <Trackpoint>
            <Time>2019-10-09T10:05:43.000Z</Time>
            <Position>
              <LatitudeDegrees>38.952911160886287689208984375</LatitudeDegrees>
              <LongitudeDegrees>-6.34288259781897068023681640625</LongitudeDegrees>
            </Position>
            <AltitudeMeters>253.1999969482421875</AltitudeMeters>
            <DistanceMeters>NAN</DistanceMeters>
          </Trackpoint>
          <Trackpoint>
            <Time>2019-10-09T10:05:49.000Z</Time>
            <Position>
              <LatitudeDegrees>38.9523722045123577117919921875</LatitudeDegrees>
              <LongitudeDegrees>-6.34278670884668827056884765625</LongitudeDegrees>
            </Position>
            <AltitudeMeters>252.399993896484375</AltitudeMeters>
            <DistanceMeters>NAN</DistanceMeters>
          </Trackpoint>
          <Trackpoint>
            <Time>2019-10-09T10:05:50.000Z</Time>
            <Position>
              <LatitudeDegrees>38.95228226669132709503173828125</LatitudeDegrees>
              <LongitudeDegrees>-6.34275435470044612884521484375</LongitudeDegrees>
            </Position>
            <AltitudeMeters>252.399993896484375</AltitudeMeters>
            <DistanceMeters>NAN</DistanceMeters>
          </Trackpoint>
          <Trackpoint>
            <Time>2019-10-09T10:05:52.000Z</Time>
            <Position>
              <LatitudeDegrees>38.95210993476212024688720703125</LatitudeDegrees>
              <LongitudeDegrees>-6.342687048017978668212890625</LongitudeDegrees>
            </Position>
            <AltitudeMeters>252</AltitudeMeters>
            <DistanceMeters>NAN</DistanceMeters>
          </Trackpoint>
          <Trackpoint>
            <Time>2019-10-09T10:05:56.000Z</Time>
            <Position>
              <LatitudeDegrees>38.9517660252749919891357421875</LatitudeDegrees>
              <LongitudeDegrees>-6.34250993840396404266357421875</LongitudeDegrees>
            </Position>
            <AltitudeMeters>251.1999969482421875</AltitudeMeters>
            <DistanceMeters>NAN</DistanceMeters>
          </Trackpoint>
          <Trackpoint>
            <Time>2019-10-09T10:05:57.000Z</Time>
            <Position>
              <LatitudeDegrees>38.9516822062432765960693359375</LatitudeDegrees>
              <LongitudeDegrees>-6.34245394729077816009521484375</LongitudeDegrees>
            </Position>
            <AltitudeMeters>250.8000030517578125</AltitudeMeters>
            <DistanceMeters>NAN</DistanceMeters>
          </Trackpoint>
          <Trackpoint>
            <Time>2019-10-09T10:06:02.000Z</Time>
            <Position>
              <LatitudeDegrees>38.9512832276523113250732421875</LatitudeDegrees>
              <LongitudeDegrees>-6.34214499033987522125244140625</LongitudeDegrees>
            </Position>
            <AltitudeMeters>248.8000030517578125</AltitudeMeters>
            <DistanceMeters>NAN</DistanceMeters>
          </Trackpoint>
          <Trackpoint>
            <Time>2019-10-09T10:06:08.000Z</Time>
            <Position>
              <LatitudeDegrees>38.95083102397620677947998046875</LatitudeDegrees>
              <LongitudeDegrees>-6.3417145796120166778564453125</LongitudeDegrees>
            </Position>
            <AltitudeMeters>248.399993896484375</AltitudeMeters>
            <DistanceMeters>NAN</DistanceMeters>
          </Trackpoint>
          <Trackpoint>
            <Time>2019-10-09T10:06:10.000Z</Time>
            <Position>
              <LatitudeDegrees>38.95068333484232425689697265625</LatitudeDegrees>
              <LongitudeDegrees>-6.341566555202007293701171875</LongitudeDegrees>
            </Position>
            <AltitudeMeters>248</AltitudeMeters>
            <DistanceMeters>NAN</DistanceMeters>
          </Trackpoint>
          <Trackpoint>
            <Time>2019-10-09T10:06:14.000Z</Time>
            <Position>
              <LatitudeDegrees>38.950382173061370849609375</LatitudeDegrees>
              <LongitudeDegrees>-6.341272853314876556396484375</LongitudeDegrees>
            </Position>
            <AltitudeMeters>247.399993896484375</AltitudeMeters>
            <DistanceMeters>NAN</DistanceMeters>
          </Trackpoint>
          <Trackpoint>
            <Time>2019-10-09T10:06:19.000Z</Time>
            <Position>
              <LatitudeDegrees>38.95000842399895191192626953125</LatitudeDegrees>
              <LongitudeDegrees>-6.34090631268918514251708984375</LongitudeDegrees>
            </Position>
            <AltitudeMeters>246.399993896484375</AltitudeMeters>
            <DistanceMeters>NAN</DistanceMeters>
          </Trackpoint>
          <Trackpoint>
            <Time>2019-10-09T10:06:21.000Z</Time>
            <Position>
              <LatitudeDegrees>38.94985956139862537384033203125</LatitudeDegrees>
              <LongitudeDegrees>-6.3407617248594760894775390625</LongitudeDegrees>
            </Position>
            <AltitudeMeters>245.8000030517578125</AltitudeMeters>
            <DistanceMeters>NAN</DistanceMeters>
          </Trackpoint>
          <Trackpoint>
            <Time>2019-10-09T10:06:22.000Z</Time>
            <Position>
              <LatitudeDegrees>38.9497848786413669586181640625</LatitudeDegrees>
              <LongitudeDegrees>-6.3406896404922008514404296875</LongitudeDegrees>
            </Position>
            <AltitudeMeters>245.399993896484375</AltitudeMeters>
            <DistanceMeters>NAN</DistanceMeters>
          </Trackpoint>
          <Trackpoint>
            <Time>2019-10-09T10:06:28.000Z</Time>
            <Position>
              <LatitudeDegrees>38.94936452619731426239013671875</LatitudeDegrees>
              <LongitudeDegrees>-6.34023693390190601348876953125</LongitudeDegrees>
            </Position>
            <AltitudeMeters>245.1999969482421875</AltitudeMeters>
            <DistanceMeters>NAN</DistanceMeters>
          </Trackpoint>
          <Trackpoint>
            <Time>2019-10-09T10:06:30.000Z</Time>
            <Position>
              <LatitudeDegrees>38.94923225976526737213134765625</LatitudeDegrees>
              <LongitudeDegrees>-6.34007918648421764373779296875</LongitudeDegrees>
            </Position>
            <AltitudeMeters>244.8000030517578125</AltitudeMeters>
            <DistanceMeters>NAN</DistanceMeters>
          </Trackpoint>
          <Trackpoint>
            <Time>2019-10-09T10:06:31.000Z</Time>
            <Position>
              <LatitudeDegrees>38.949168808758258819580078125</LatitudeDegrees>
              <LongitudeDegrees>-6.3399976305663585662841796875</LongitudeDegrees>
            </Position>
            <AltitudeMeters>244.399993896484375</AltitudeMeters>
            <DistanceMeters>NAN</DistanceMeters>
          </Trackpoint>
          <Trackpoint>
            <Time>2019-10-09T10:06:37.000Z</Time>
            <Position>
              <LatitudeDegrees>38.9488036930561065673828125</LatitudeDegrees>
              <LongitudeDegrees>-6.33945724926888942718505859375</LongitudeDegrees>
            </Position>
            <AltitudeMeters>243.1999969482421875</AltitudeMeters>
            <DistanceMeters>NAN</DistanceMeters>
          </Trackpoint>
          <Trackpoint>
            <Time>2019-10-09T10:06:40.000Z</Time>
            <Position>
              <LatitudeDegrees>38.94862222485244274139404296875</LatitudeDegrees>
              <LongitudeDegrees>-6.33916958235204219818115234375</LongitudeDegrees>
            </Position>
            <AltitudeMeters>241.8000030517578125</AltitudeMeters>
            <DistanceMeters>NAN</DistanceMeters>
          </Trackpoint>
          <Trackpoint>
            <Time>2019-10-09T10:06:43.000Z</Time>
            <Position>
              <LatitudeDegrees>38.948433212935924530029296875</LatitudeDegrees>
              <LongitudeDegrees>-6.33886649273335933685302734375</LongitudeDegrees>
            </Position>
            <AltitudeMeters>240.600006103515625</AltitudeMeters>
            <DistanceMeters>NAN</DistanceMeters>
          </Trackpoint>
          <Trackpoint>
            <Time>2019-10-09T10:06:44.000Z</Time>
            <Position>
              <LatitudeDegrees>38.9483646489679813385009765625</LatitudeDegrees>
              <LongitudeDegrees>-6.33876733481884002685546875</LongitudeDegrees>
            </Position>
            <AltitudeMeters>240.1999969482421875</AltitudeMeters>
            <DistanceMeters>NAN</DistanceMeters>
          </Trackpoint>
          <Trackpoint>
            <Time>2019-10-09T10:06:45.000Z</Time>
            <Position>
              <LatitudeDegrees>38.94829533062875270843505859375</LatitudeDegrees>
              <LongitudeDegrees>-6.3386682607233524322509765625</LongitudeDegrees>
            </Position>
            <AltitudeMeters>239.399993896484375</AltitudeMeters>
            <DistanceMeters>NAN</DistanceMeters>
          </Trackpoint>
          <Trackpoint>
            <Time>2019-10-09T10:06:48.000Z</Time>
            <Position>
              <LatitudeDegrees>38.94805736839771270751953125</LatitudeDegrees>
              <LongitudeDegrees>-6.3384255208075046539306640625</LongitudeDegrees>
            </Position>
            <AltitudeMeters>238.600006103515625</AltitudeMeters>
            <DistanceMeters>NAN</DistanceMeters>
          </Trackpoint>
          <Trackpoint>
            <Time>2019-10-09T10:06:49.000Z</Time>
            <Position>
              <LatitudeDegrees>38.9479710347950458526611328125</LatitudeDegrees>
              <LongitudeDegrees>-6.3383638300001621246337890625</LongitudeDegrees>
            </Position>
            <AltitudeMeters>238.1999969482421875</AltitudeMeters>
            <DistanceMeters>NAN</DistanceMeters>
          </Trackpoint>
          <Trackpoint>
            <Time>2019-10-09T10:06:52.000Z</Time>
            <Position>
              <LatitudeDegrees>38.94770331680774688720703125</LatitudeDegrees>
              <LongitudeDegrees>-6.338250339031219482421875</LongitudeDegrees>
            </Position>
            <AltitudeMeters>238.8000030517578125</AltitudeMeters>
            <DistanceMeters>NAN</DistanceMeters>
          </Trackpoint>
          <Trackpoint>
            <Time>2019-10-09T10:06:53.000Z</Time>
            <Position>
              <LatitudeDegrees>38.94761991687119007110595703125</LatitudeDegrees>
              <LongitudeDegrees>-6.3382263667881488800048828125</LongitudeDegrees>
            </Position>
            <AltitudeMeters>239</AltitudeMeters>
            <DistanceMeters>NAN</DistanceMeters>
          </Trackpoint>
          <Trackpoint>
            <Time>2019-10-09T10:06:54.000Z</Time>
            <Position>
              <LatitudeDegrees>38.94753794185817241668701171875</LatitudeDegrees>
              <LongitudeDegrees>-6.3382116146385669708251953125</LongitudeDegrees>
            </Position>
            <AltitudeMeters>239.600006103515625</AltitudeMeters>
            <DistanceMeters>NAN</DistanceMeters>
          </Trackpoint>
          <Trackpoint>
            <Time>2019-10-09T10:06:55.000Z</Time>
            <Position>
              <LatitudeDegrees>38.94745982252061367034912109375</LatitudeDegrees>
              <LongitudeDegrees>-6.338218152523040771484375</LongitudeDegrees>
            </Position>
            <AltitudeMeters>240.1999969482421875</AltitudeMeters>
            <DistanceMeters>NAN</DistanceMeters>
          </Trackpoint>
          <Trackpoint>
            <Time>2019-10-09T10:06:56.000Z</Time>
            <Position>
              <LatitudeDegrees>38.9473873190581798553466796875</LatitudeDegrees>
              <LongitudeDegrees>-6.3382434658706188201904296875</LongitudeDegrees>
            </Position>
            <AltitudeMeters>240.600006103515625</AltitudeMeters>
            <DistanceMeters>NAN</DistanceMeters>
          </Trackpoint>
          <Trackpoint>
            <Time>2019-10-09T10:06:58.000Z</Time>
            <Position>
              <LatitudeDegrees>38.94729687832295894622802734375</LatitudeDegrees>
              <LongitudeDegrees>-6.33837631903588771820068359375</LongitudeDegrees>
            </Position>
            <AltitudeMeters>241.1999969482421875</AltitudeMeters>
            <DistanceMeters>NAN</DistanceMeters>
          </Trackpoint>
          <Trackpoint>
            <Time>2019-10-09T10:07:00.000Z</Time>
            <Position>
              <LatitudeDegrees>38.94726234488189220428466796875</LatitudeDegrees>
              <LongitudeDegrees>-6.33854093961417675018310546875</LongitudeDegrees>
            </Position>
            <AltitudeMeters>241.600006103515625</AltitudeMeters>
            <DistanceMeters>NAN</DistanceMeters>
          </Trackpoint>
          <Trackpoint>
            <Time>2019-10-09T10:07:01.000Z</Time>
            <Position>
              <LatitudeDegrees>38.94723317585885524749755859375</LatitudeDegrees>
              <LongitudeDegrees>-6.3386126048862934112548828125</LongitudeDegrees>
            </Position>
            <AltitudeMeters>241.8000030517578125</AltitudeMeters>
            <DistanceMeters>NAN</DistanceMeters>
          </Trackpoint>
          <Trackpoint>
            <Time>2019-10-09T10:07:05.000Z</Time>
            <Position>
              <LatitudeDegrees>38.94704374484717845916748046875</LatitudeDegrees>
              <LongitudeDegrees>-6.338813602924346923828125</LongitudeDegrees>
            </Position>
            <AltitudeMeters>242.600006103515625</AltitudeMeters>
            <DistanceMeters>NAN</DistanceMeters>
          </Trackpoint>
          <Trackpoint>
            <Time>2019-10-09T10:07:07.000Z</Time>
            <Position>
              <LatitudeDegrees>38.94691114313900470733642578125</LatitudeDegrees>
              <LongitudeDegrees>-6.33882139809429645538330078125</LongitudeDegrees>
            </Position>
            <AltitudeMeters>242.8000030517578125</AltitudeMeters>
            <DistanceMeters>NAN</DistanceMeters>
          </Trackpoint>
          <Trackpoint>
            <Time>2019-10-09T10:07:08.000Z</Time>
            <Position>
              <LatitudeDegrees>38.9468471892178058624267578125</LatitudeDegrees>
              <LongitudeDegrees>-6.338805221021175384521484375</LongitudeDegrees>
            </Position>
            <AltitudeMeters>242.8000030517578125</AltitudeMeters>
            <DistanceMeters>NAN</DistanceMeters>
          </Trackpoint>
          <Trackpoint>
            <Time>2019-10-09T10:07:12.000Z</Time>
            <Position>
              <LatitudeDegrees>38.946574442088603973388671875</LatitudeDegrees>
              <LongitudeDegrees>-6.33881888352334499359130859375</LongitudeDegrees>
            </Position>
            <AltitudeMeters>241.8000030517578125</AltitudeMeters>
            <DistanceMeters>NAN</DistanceMeters>
          </Trackpoint>
          <Trackpoint>
            <Time>2019-10-09T10:07:14.000Z</Time>
            <Position>
              <LatitudeDegrees>38.94644477404654026031494140625</LatitudeDegrees>
              <LongitudeDegrees>-6.33889281190931797027587890625</LongitudeDegrees>
            </Position>
            <AltitudeMeters>240.8000030517578125</AltitudeMeters>
            <DistanceMeters>NAN</DistanceMeters>
          </Trackpoint>
          <Trackpoint>
            <Time>2019-10-09T10:07:15.000Z</Time>
            <Position>
              <LatitudeDegrees>38.9463814906775951385498046875</LatitudeDegrees>
              <LongitudeDegrees>-6.33893053047358989715576171875</LongitudeDegrees>
            </Position>
            <AltitudeMeters>240.600006103515625</AltitudeMeters>
            <DistanceMeters>NAN</DistanceMeters>
          </Trackpoint>
          <Trackpoint>
            <Time>2019-10-09T10:07:17.000Z</Time>
            <Position>
              <LatitudeDegrees>38.9462534151971340179443359375</LatitudeDegrees>
              <LongitudeDegrees>-6.33900261484086513519287109375</LongitudeDegrees>
            </Position>
            <AltitudeMeters>241</AltitudeMeters>
            <DistanceMeters>NAN</DistanceMeters>
          </Trackpoint>
          <Trackpoint>
            <Time>2019-10-09T10:07:24.000Z</Time>
            <Position>
              <LatitudeDegrees>38.94583105109632015228271484375</LatitudeDegrees>
              <LongitudeDegrees>-6.339199505746364593505859375</LongitudeDegrees>
            </Position>
            <AltitudeMeters>242</AltitudeMeters>
            <DistanceMeters>NAN</DistanceMeters>
          </Trackpoint>
          <Trackpoint>
            <Time>2019-10-09T10:07:30.000Z</Time>
            <Position>
              <LatitudeDegrees>38.94549426622688770294189453125</LatitudeDegrees>
              <LongitudeDegrees>-6.33926832117140293121337890625</LongitudeDegrees>
            </Position>
            <AltitudeMeters>243.399993896484375</AltitudeMeters>
            <DistanceMeters>NAN</DistanceMeters>
          </Trackpoint>
          <Trackpoint>
            <Time>2019-10-09T10:07:32.000Z</Time>
            <Position>
              <LatitudeDegrees>38.94538194872438907623291015625</LatitudeDegrees>
              <LongitudeDegrees>-6.33928039111196994781494140625</LongitudeDegrees>
            </Position>
            <AltitudeMeters>243.600006103515625</AltitudeMeters>
            <DistanceMeters>NAN</DistanceMeters>
          </Trackpoint>
          <Trackpoint>
            <Time>2019-10-09T10:07:38.000Z</Time>
            <Position>
              <LatitudeDegrees>38.94504013471305370330810546875</LatitudeDegrees>
              <LongitudeDegrees>-6.339291371405124664306640625</LongitudeDegrees>
            </Position>
            <AltitudeMeters>243.8000030517578125</AltitudeMeters>
            <DistanceMeters>NAN</DistanceMeters>
          </Trackpoint>
          <Trackpoint>
            <Time>2019-10-09T10:07:41.000Z</Time>
            <Position>
              <LatitudeDegrees>38.9448616839945316314697265625</LatitudeDegrees>
              <LongitudeDegrees>-6.3392895273864269256591796875</LongitudeDegrees>
            </Position>
            <AltitudeMeters>243.1999969482421875</AltitudeMeters>
            <DistanceMeters>NAN</DistanceMeters>
          </Trackpoint>
          <Trackpoint>
            <Time>2019-10-09T10:07:48.000Z</Time>
            <Position>
              <LatitudeDegrees>38.94440026022493839263916015625</LatitudeDegrees>
              <LongitudeDegrees>-6.3392895273864269256591796875</LongitudeDegrees>
            </Position>
            <AltitudeMeters>242.600006103515625</AltitudeMeters>
            <DistanceMeters>NAN</DistanceMeters>
          </Trackpoint>
          <Trackpoint>
            <Time>2019-10-09T10:07:54.000Z</Time>
            <Position>
              <LatitudeDegrees>38.94398686476051807403564453125</LatitudeDegrees>
              <LongitudeDegrees>-6.3392844982445240020751953125</LongitudeDegrees>
            </Position>
            <AltitudeMeters>242.1999969482421875</AltitudeMeters>
            <DistanceMeters>NAN</DistanceMeters>
          </Trackpoint>
          <Trackpoint>
            <Time>2019-10-09T10:07:57.000Z</Time>
            <Position>
              <LatitudeDegrees>38.9437794126570224761962890625</LatitudeDegrees>
              <LongitudeDegrees>-6.339280307292938232421875</LongitudeDegrees>
            </Position>
            <AltitudeMeters>242</AltitudeMeters>
            <DistanceMeters>NAN</DistanceMeters>
          </Trackpoint>
          <Trackpoint>
            <Time>2019-10-09T10:08:01.000Z</Time>
            <Position>
              <LatitudeDegrees>38.94350004382431507110595703125</LatitudeDegrees>
              <LongitudeDegrees>-6.339271254837512969970703125</LongitudeDegrees>
            </Position>
            <AltitudeMeters>241</AltitudeMeters>
            <DistanceMeters>NAN</DistanceMeters>
          </Trackpoint>
          <Trackpoint>
            <Time>2019-10-09T10:08:07.000Z</Time>
            <Position>
              <LatitudeDegrees>38.94305706024169921875</LatitudeDegrees>
              <LongitudeDegrees>-6.33926597423851490020751953125</LongitudeDegrees>
            </Position>
            <AltitudeMeters>240</AltitudeMeters>
            <DistanceMeters>NAN</DistanceMeters>
          </Trackpoint>
          <Trackpoint>
            <Time>2019-10-09T10:08:11.000Z</Time>
            <Position>
              <LatitudeDegrees>38.9427464269101619720458984375</LatitudeDegrees>
              <LongitudeDegrees>-6.3392717577517032623291015625</LongitudeDegrees>
            </Position>
            <AltitudeMeters>238.8000030517578125</AltitudeMeters>
            <DistanceMeters>NAN</DistanceMeters>
          </Trackpoint>
          <Trackpoint>
            <Time>2019-10-09T10:08:14.000Z</Time>
            <Position>
              <LatitudeDegrees>38.94249605946242809295654296875</LatitudeDegrees>
              <LongitudeDegrees>-6.33929749019443988800048828125</LongitudeDegrees>
            </Position>
            <AltitudeMeters>237.8000030517578125</AltitudeMeters>
            <DistanceMeters>NAN</DistanceMeters>
          </Trackpoint>
          <Trackpoint>
            <Time>2019-10-09T10:08:15.000Z</Time>
            <Position>
              <LatitudeDegrees>38.94241056405007839202880859375</LatitudeDegrees>
              <LongitudeDegrees>-6.33931073360145092010498046875</LongitudeDegrees>
            </Position>
            <AltitudeMeters>237.399993896484375</AltitudeMeters>
            <DistanceMeters>NAN</DistanceMeters>
          </Trackpoint>
          <Trackpoint>
            <Time>2019-10-09T10:08:17.000Z</Time>
            <Position>
              <LatitudeDegrees>38.94223571754992008209228515625</LatitudeDegrees>
              <LongitudeDegrees>-6.33935214020311832427978515625</LongitudeDegrees>
            </Position>
            <AltitudeMeters>236</AltitudeMeters>
            <DistanceMeters>NAN</DistanceMeters>
          </Trackpoint>
          <Trackpoint>
            <Time>2019-10-09T10:08:19.000Z</Time>
            <Position>
              <LatitudeDegrees>38.942060284316539764404296875</LatitudeDegrees>
              <LongitudeDegrees>-6.3394139148294925689697265625</LongitudeDegrees>
            </Position>
            <AltitudeMeters>234.600006103515625</AltitudeMeters>
            <DistanceMeters>NAN</DistanceMeters>
          </Trackpoint>
          <Trackpoint>
            <Time>2019-10-09T10:08:21.000Z</Time>
            <Position>
              <LatitudeDegrees>38.9418881200253963470458984375</LatitudeDegrees>
              <LongitudeDegrees>-6.33949882350862026214599609375</LongitudeDegrees>
            </Position>
            <AltitudeMeters>233.8000030517578125</AltitudeMeters>
            <DistanceMeters>NAN</DistanceMeters>
          </Trackpoint>
          <Trackpoint>
            <Time>2019-10-09T10:08:22.000Z</Time>
            <Position>
              <LatitudeDegrees>38.9418039657175540924072265625</LatitudeDegrees>
              <LongitudeDegrees>-6.33954945020377635955810546875</LongitudeDegrees>
            </Position>
            <AltitudeMeters>233.1999969482421875</AltitudeMeters>
            <DistanceMeters>NAN</DistanceMeters>
          </Trackpoint>
          <Trackpoint>
            <Time>2019-10-09T10:08:25.000Z</Time>
            <Position>
              <LatitudeDegrees>38.94156147725880146026611328125</LatitudeDegrees>
              <LongitudeDegrees>-6.33970702998340129852294921875</LongitudeDegrees>
            </Position>
            <AltitudeMeters>233.1999969482421875</AltitudeMeters>
            <DistanceMeters>NAN</DistanceMeters>
          </Trackpoint>
          <Trackpoint>
            <Time>2019-10-09T10:08:27.000Z</Time>
            <Position>
              <LatitudeDegrees>38.94140942953526973724365234375</LatitudeDegrees>
              <LongitudeDegrees>-6.33982856757938861846923828125</LongitudeDegrees>
            </Position>
            <AltitudeMeters>232.600006103515625</AltitudeMeters>
            <DistanceMeters>NAN</DistanceMeters>
          </Trackpoint>
          <Trackpoint>
            <Time>2019-10-09T10:08:29.000Z</Time>
            <Position>
              <LatitudeDegrees>38.94126693718135356903076171875</LatitudeDegrees>
              <LongitudeDegrees>-6.3399610854685306549072265625</LongitudeDegrees>
            </Position>
            <AltitudeMeters>231.8000030517578125</AltitudeMeters>
            <DistanceMeters>NAN</DistanceMeters>
          </Trackpoint>
          <Trackpoint>
            <Time>2019-10-09T10:08:32.000Z</Time>
            <Position>
              <LatitudeDegrees>38.94107784144580364227294921875</LatitudeDegrees>
              <LongitudeDegrees>-6.3401827029883861541748046875</LongitudeDegrees>
            </Position>
            <AltitudeMeters>230.8000030517578125</AltitudeMeters>
            <DistanceMeters>NAN</DistanceMeters>
          </Trackpoint>
          <Trackpoint>
            <Time>2019-10-09T10:08:33.000Z</Time>
            <Position>
              <LatitudeDegrees>38.9410184137523174285888671875</LatitudeDegrees>
              <LongitudeDegrees>-6.3402547873556613922119140625</LongitudeDegrees>
            </Position>
            <AltitudeMeters>230.600006103515625</AltitudeMeters>
            <DistanceMeters>NAN</DistanceMeters>
          </Trackpoint>
          <Trackpoint>
            <Time>2019-10-09T10:08:38.000Z</Time>
            <Position>
              <LatitudeDegrees>38.94078397192060947418212890625</LatitudeDegrees>
              <LongitudeDegrees>-6.34064127691090106964111328125</LongitudeDegrees>
            </Position>
            <AltitudeMeters>231.600006103515625</AltitudeMeters>
            <DistanceMeters>NAN</DistanceMeters>
          </Trackpoint>
          <Trackpoint>
            <Time>2019-10-09T10:08:40.000Z</Time>
            <Position>
              <LatitudeDegrees>38.94070300273597240447998046875</LatitudeDegrees>
              <LongitudeDegrees>-6.3407851941883563995361328125</LongitudeDegrees>
            </Position>
            <AltitudeMeters>231.8000030517578125</AltitudeMeters>
            <DistanceMeters>NAN</DistanceMeters>
          </Trackpoint>
          <Trackpoint>
            <Time>2019-10-09T10:08:45.000Z</Time>
            <Position>
              <LatitudeDegrees>38.940522707998752593994140625</LatitudeDegrees>
              <LongitudeDegrees>-6.34111837483942508697509765625</LongitudeDegrees>
            </Position>
            <AltitudeMeters>232.8000030517578125</AltitudeMeters>
            <DistanceMeters>NAN</DistanceMeters>
          </Trackpoint>
          <Trackpoint>
            <Time>2019-10-09T10:08:47.000Z</Time>
            <Position>
              <LatitudeDegrees>38.94045598804950714111328125</LatitudeDegrees>
              <LongitudeDegrees>-6.3412450253963470458984375</LongitudeDegrees>
            </Position>
            <AltitudeMeters>232.8000030517578125</AltitudeMeters>
            <DistanceMeters>NAN</DistanceMeters>
          </Trackpoint>
          <Trackpoint>
            <Time>2019-10-09T10:08:52.000Z</Time>
            <Position>
              <LatitudeDegrees>38.9402925409376621246337890625</LatitudeDegrees>
              <LongitudeDegrees>-6.34154316969215869903564453125</LongitudeDegrees>
            </Position>
            <AltitudeMeters>233.399993896484375</AltitudeMeters>
            <DistanceMeters>NAN</DistanceMeters>
          </Trackpoint>
          <Trackpoint>
            <Time>2019-10-09T10:08:54.000Z</Time>
            <Position>
              <LatitudeDegrees>38.94023294560611248016357421875</LatitudeDegrees>
              <LongitudeDegrees>-6.34165816940367221832275390625</LongitudeDegrees>
            </Position>
            <AltitudeMeters>233.600006103515625</AltitudeMeters>
            <DistanceMeters>NAN</DistanceMeters>
          </Trackpoint>
          <Trackpoint>
            <Time>2019-10-09T10:09:01.000Z</Time>
            <Position>
              <LatitudeDegrees>38.94002004526555538177490234375</LatitudeDegrees>
              <LongitudeDegrees>-6.34204591624438762664794921875</LongitudeDegrees>
            </Position>
            <AltitudeMeters>233.8000030517578125</AltitudeMeters>
            <DistanceMeters>NAN</DistanceMeters>
          </Trackpoint>
          <Trackpoint>
            <Time>2019-10-09T10:09:02.000Z</Time>
            <Position>
              <LatitudeDegrees>38.939989618957042694091796875</LatitudeDegrees>
              <LongitudeDegrees>-6.34210324846208095550537109375</LongitudeDegrees>
            </Position>
            <AltitudeMeters>234</AltitudeMeters>
            <DistanceMeters>NAN</DistanceMeters>
          </Trackpoint>
          <Trackpoint>
            <Time>2019-10-09T10:09:04.000Z</Time>
            <Position>
              <LatitudeDegrees>38.939930610358715057373046875</LatitudeDegrees>
              <LongitudeDegrees>-6.34221523068845272064208984375</LongitudeDegrees>
            </Position>
            <AltitudeMeters>234</AltitudeMeters>
            <DistanceMeters>NAN</DistanceMeters>
          </Trackpoint>
          <Trackpoint>
            <Time>2019-10-09T10:09:07.000Z</Time>
            <Position>
              <LatitudeDegrees>38.93985441885888576507568359375</LatitudeDegrees>
              <LongitudeDegrees>-6.34239728562533855438232421875</LongitudeDegrees>
            </Position>
            <AltitudeMeters>234.1999969482421875</AltitudeMeters>
            <DistanceMeters>NAN</DistanceMeters>
          </Trackpoint>
          <Trackpoint>
            <Time>2019-10-09T10:09:08.000Z</Time>
            <Position>
              <LatitudeDegrees>38.9398379065096378326416015625</LatitudeDegrees>
              <LongitudeDegrees>-6.342461071908473968505859375</LongitudeDegrees>
            </Position>
            <AltitudeMeters>234.399993896484375</AltitudeMeters>
            <DistanceMeters>NAN</DistanceMeters>
          </Trackpoint>
          <Trackpoint>
            <Time>2019-10-09T10:09:10.000Z</Time>
            <Position>
              <LatitudeDegrees>38.9398110844194889068603515625</LatitudeDegrees>
              <LongitudeDegrees>-6.34259576909244060516357421875</LongitudeDegrees>
            </Position>
            <AltitudeMeters>234.399993896484375</AltitudeMeters>
            <DistanceMeters>NAN</DistanceMeters>
          </Trackpoint>
          <Trackpoint>
            <Time>2019-10-09T10:09:14.000Z</Time>
            <Position>
              <LatitudeDegrees>38.9398486353456974029541015625</LatitudeDegrees>
              <LongitudeDegrees>-6.34285912849009037017822265625</LongitudeDegrees>
            </Position>
            <AltitudeMeters>234.8000030517578125</AltitudeMeters>
            <DistanceMeters>NAN</DistanceMeters>
          </Trackpoint>
          <Trackpoint>
            <Time>2019-10-09T10:09:17.000Z</Time>
            <Position>
              <LatitudeDegrees>38.9399847574532032012939453125</LatitudeDegrees>
              <LongitudeDegrees>-6.34295619092881679534912109375</LongitudeDegrees>
            </Position>
            <AltitudeMeters>235.1999969482421875</AltitudeMeters>
            <DistanceMeters>NAN</DistanceMeters>
          </Trackpoint>
          <Trackpoint>
            <Time>2019-10-09T10:09:19.000Z</Time>
            <Position>
              <LatitudeDegrees>38.94009062089025974273681640625</LatitudeDegrees>
              <LongitudeDegrees>-6.34293682873249053955078125</LongitudeDegrees>
            </Position>
            <AltitudeMeters>236.1999969482421875</AltitudeMeters>
            <DistanceMeters>NAN</DistanceMeters>
          </Trackpoint>
          <Trackpoint>
            <Time>2019-10-09T10:09:20.000Z</Time>
            <Position>
              <LatitudeDegrees>38.94013739190995693206787109375</LatitudeDegrees>
              <LongitudeDegrees>-6.34292534552514553070068359375</LongitudeDegrees>
            </Position>
            <AltitudeMeters>236.600006103515625</AltitudeMeters>
            <DistanceMeters>NAN</DistanceMeters>
          </Trackpoint>
          <Trackpoint>
            <Time>2019-10-09T10:09:21.000Z</Time>
            <Position>
              <LatitudeDegrees>38.9401835761964321136474609375</LatitudeDegrees>
              <LongitudeDegrees>-6.342917382717132568359375</LongitudeDegrees>
            </Position>
            <AltitudeMeters>237</AltitudeMeters>
            <DistanceMeters>NAN</DistanceMeters>
          </Trackpoint>
          <Trackpoint>
            <Time>2019-10-09T10:09:22.000Z</Time>
            <Position>
              <LatitudeDegrees>38.94022992812097072601318359375</LatitudeDegrees>
              <LongitudeDegrees>-6.34292400442063808441162109375</LongitudeDegrees>
            </Position>
            <AltitudeMeters>237.1999969482421875</AltitudeMeters>
            <DistanceMeters>NAN</DistanceMeters>
          </Trackpoint>
          <Trackpoint>
            <Time>2019-10-09T10:09:25.000Z</Time>
            <Position>
              <LatitudeDegrees>38.9403632842004299163818359375</LatitudeDegrees>
              <LongitudeDegrees>-6.3429725356400012969970703125</LongitudeDegrees>
            </Position>
            <AltitudeMeters>236.8000030517578125</AltitudeMeters>
            <DistanceMeters>NAN</DistanceMeters>
          </Trackpoint>
          <Trackpoint>
            <Time>2019-10-09T10:09:29.000Z</Time>
            <Position>
              <LatitudeDegrees>38.94049747847020626068115234375</LatitudeDegrees>
              <LongitudeDegrees>-6.343129612505435943603515625</LongitudeDegrees>
            </Position>
            <AltitudeMeters>237</AltitudeMeters>
            <DistanceMeters>NAN</DistanceMeters>
          </Trackpoint>
          <Trackpoint>
            <Time>2019-10-09T10:09:33.000Z</Time>
            <Position>
              <LatitudeDegrees>38.9405607618391513824462890625</LatitudeDegrees>
              <LongitudeDegrees>-6.34334896691143512725830078125</LongitudeDegrees>
            </Position>
            <AltitudeMeters>237</AltitudeMeters>
            <DistanceMeters>NAN</DistanceMeters>
          </Trackpoint>
          <Trackpoint>
            <Time>2019-10-09T10:09:38.000Z</Time>
            <Position>
              <LatitudeDegrees>38.94051306881010532379150390625</LatitudeDegrees>
              <LongitudeDegrees>-6.34363763965666294097900390625</LongitudeDegrees>
            </Position>
            <AltitudeMeters>237</AltitudeMeters>
            <DistanceMeters>NAN</DistanceMeters>
          </Trackpoint>
          <Trackpoint>
            <Time>2019-10-09T10:09:43.000Z</Time>
            <Position>
              <LatitudeDegrees>38.94033528864383697509765625</LatitudeDegrees>
              <LongitudeDegrees>-6.3438569940626621246337890625</LongitudeDegrees>
            </Position>
            <AltitudeMeters>237</AltitudeMeters>
            <DistanceMeters>NAN</DistanceMeters>
          </Trackpoint>
          <Trackpoint>
            <Time>2019-10-09T10:09:47.000Z</Time>
            <Position>
              <LatitudeDegrees>38.94011073745787143707275390625</LatitudeDegrees>
              <LongitudeDegrees>-6.343877948820590972900390625</LongitudeDegrees>
            </Position>
            <AltitudeMeters>236.8000030517578125</AltitudeMeters>
            <DistanceMeters>NAN</DistanceMeters>
          </Trackpoint>
          <Trackpoint>
            <Time>2019-10-09T10:09:50.000Z</Time>
            <Position>
              <LatitudeDegrees>38.939936645328998565673828125</LatitudeDegrees>
              <LongitudeDegrees>-6.34377610869705677032470703125</LongitudeDegrees>
            </Position>
            <AltitudeMeters>236.1999969482421875</AltitudeMeters>
            <DistanceMeters>NAN</DistanceMeters>
          </Trackpoint>
          <Trackpoint>
            <Time>2019-10-09T10:09:51.000Z</Time>
            <Position>
              <LatitudeDegrees>38.9398808218538761138916015625</LatitudeDegrees>
              <LongitudeDegrees>-6.3437346182763576507568359375</LongitudeDegrees>
            </Position>
            <AltitudeMeters>236</AltitudeMeters>
            <DistanceMeters>NAN</DistanceMeters>
          </Trackpoint>
          <Trackpoint>
            <Time>2019-10-09T10:09:54.000Z</Time>
            <Position>
              <LatitudeDegrees>38.9397525787353515625</LatitudeDegrees>
              <LongitudeDegrees>-6.34365557692945003509521484375</LongitudeDegrees>
            </Position>
            <AltitudeMeters>235.8000030517578125</AltitudeMeters>
            <DistanceMeters>NAN</DistanceMeters>
          </Trackpoint>
          <Trackpoint>
            <Time>2019-10-09T10:09:55.000Z</Time>
            <Position>
              <LatitudeDegrees>38.93971435725688934326171875</LatitudeDegrees>
              <LongitudeDegrees>-6.34365071542561054229736328125</LongitudeDegrees>
            </Position>
            <AltitudeMeters>235.8000030517578125</AltitudeMeters>
            <DistanceMeters>NAN</DistanceMeters>
          </Trackpoint>
          <Trackpoint>
            <Time>2019-10-09T10:09:59.000Z</Time>
            <Position>
              <LatitudeDegrees>38.93955082632601261138916015625</LatitudeDegrees>
              <LongitudeDegrees>-6.3437067903578281402587890625</LongitudeDegrees>
            </Position>
            <AltitudeMeters>235</AltitudeMeters>
            <DistanceMeters>NAN</DistanceMeters>
          </Trackpoint>
          <Trackpoint>
            <Time>2019-10-09T10:10:02.000Z</Time>
            <Position>
              <LatitudeDegrees>38.9394211582839488983154296875</LatitudeDegrees>
              <LongitudeDegrees>-6.343751214444637298583984375</LongitudeDegrees>
            </Position>
            <AltitudeMeters>234.8000030517578125</AltitudeMeters>
            <DistanceMeters>NAN</DistanceMeters>
          </Trackpoint>
          <Trackpoint>
            <Time>2019-10-09T10:10:05.000Z</Time>
            <Position>
              <LatitudeDegrees>38.93928386270999908447265625</LatitudeDegrees>
              <LongitudeDegrees>-6.3437832333147525787353515625</LongitudeDegrees>
            </Position>
            <AltitudeMeters>234.399993896484375</AltitudeMeters>
            <DistanceMeters>NAN</DistanceMeters>
          </Trackpoint>
          <Trackpoint>
            <Time>2019-10-09T10:10:06.000Z</Time>
            <Position>
              <LatitudeDegrees>38.9392377622425556182861328125</LatitudeDegrees>
              <LongitudeDegrees>-6.34379505179822444915771484375</LongitudeDegrees>
            </Position>
            <AltitudeMeters>234</AltitudeMeters>
            <DistanceMeters>NAN</DistanceMeters>
          </Trackpoint>
          <Trackpoint>
            <Time>2019-10-09T10:10:07.000Z</Time>
            <Position>
              <LatitudeDegrees>38.939192332327365875244140625</LatitudeDegrees>
              <LongitudeDegrees>-6.3438181020319461822509765625</LongitudeDegrees>
            </Position>
            <AltitudeMeters>233.8000030517578125</AltitudeMeters>
            <DistanceMeters>NAN</DistanceMeters>
          </Trackpoint>
          <Trackpoint>
            <Time>2019-10-09T10:10:10.000Z</Time>
            <Position>
              <LatitudeDegrees>38.93907456658780574798583984375</LatitudeDegrees>
              <LongitudeDegrees>-6.34389764629304409027099609375</LongitudeDegrees>
            </Position>
            <AltitudeMeters>234</AltitudeMeters>
            <DistanceMeters>NAN</DistanceMeters>
          </Trackpoint>
          <Trackpoint>
            <Time>2019-10-09T10:10:13.000Z</Time>
            <Position>
              <LatitudeDegrees>38.9389420486986637115478515625</LatitudeDegrees>
              <LongitudeDegrees>-6.34392614476382732391357421875</LongitudeDegrees>
            </Position>
            <AltitudeMeters>233.399993896484375</AltitudeMeters>
            <DistanceMeters>NAN</DistanceMeters>
          </Trackpoint>
          <Trackpoint>
            <Time>2019-10-09T10:10:15.000Z</Time>
            <Position>
              <LatitudeDegrees>38.9388552121818065643310546875</LatitudeDegrees>
              <LongitudeDegrees>-6.34395145811140537261962890625</LongitudeDegrees>
            </Position>
            <AltitudeMeters>233.1999969482421875</AltitudeMeters>
            <DistanceMeters>NAN</DistanceMeters>
          </Trackpoint>
          <Trackpoint>
            <Time>2019-10-09T10:10:17.000Z</Time>
            <Position>
              <LatitudeDegrees>38.93876644782721996307373046875</LatitudeDegrees>
              <LongitudeDegrees>-6.34397895075380802154541015625</LongitudeDegrees>
            </Position>
            <AltitudeMeters>233.8000030517578125</AltitudeMeters>
            <DistanceMeters>NAN</DistanceMeters>
          </Trackpoint>
          <Trackpoint>
            <Time>2019-10-09T10:10:18.000Z</Time>
            <Position>
              <LatitudeDegrees>38.93872101791203022003173828125</LatitudeDegrees>
              <LongitudeDegrees>-6.3439904339611530303955078125</LongitudeDegrees>
            </Position>
            <AltitudeMeters>233.600006103515625</AltitudeMeters>
            <DistanceMeters>NAN</DistanceMeters>
          </Trackpoint>
          <Trackpoint>
            <Time>2019-10-09T10:10:19.000Z</Time>
            <Position>
              <LatitudeDegrees>38.938673324882984161376953125</LatitudeDegrees>
              <LongitudeDegrees>-6.3440018333494663238525390625</LongitudeDegrees>
            </Position>
            <AltitudeMeters>233.8000030517578125</AltitudeMeters>
            <DistanceMeters>NAN</DistanceMeters>
          </Trackpoint>
          <Trackpoint>
            <Time>2019-10-09T10:10:21.000Z</Time>
            <Position>
              <LatitudeDegrees>38.9385863207280635833740234375</LatitudeDegrees>
              <LongitudeDegrees>-6.34403561241924762725830078125</LongitudeDegrees>
            </Position>
            <AltitudeMeters>233.1999969482421875</AltitudeMeters>
            <DistanceMeters>NAN</DistanceMeters>
          </Trackpoint>
          <Trackpoint>
            <Time>2019-10-09T10:10:23.000Z</Time>
            <Position>
              <LatitudeDegrees>38.9385014958679676055908203125</LatitudeDegrees>
              <LongitudeDegrees>-6.3440658710896968841552734375</LongitudeDegrees>
            </Position>
            <AltitudeMeters>233</AltitudeMeters>
            <DistanceMeters>NAN</DistanceMeters>
          </Trackpoint>
          <Trackpoint>
            <Time>2019-10-09T10:10:29.000Z</Time>
            <Position>
              <LatitudeDegrees>38.93824559636414051055908203125</LatitudeDegrees>
              <LongitudeDegrees>-6.34414155967533588409423828125</LongitudeDegrees>
            </Position>
            <AltitudeMeters>233.399993896484375</AltitudeMeters>
            <DistanceMeters>NAN</DistanceMeters>
          </Trackpoint>
          <Trackpoint>
            <Time>2019-10-09T10:10:31.000Z</Time>
            <Position>
              <LatitudeDegrees>38.93815574236214160919189453125</LatitudeDegrees>
              <LongitudeDegrees>-6.34417022578418254852294921875</LongitudeDegrees>
            </Position>
            <AltitudeMeters>233</AltitudeMeters>
            <DistanceMeters>NAN</DistanceMeters>
          </Trackpoint>
          <Trackpoint>
            <Time>2019-10-09T10:10:32.000Z</Time>
            <Position>
              <LatitudeDegrees>38.93810997717082500457763671875</LatitudeDegrees>
              <LongitudeDegrees>-6.344185732305049896240234375</LongitudeDegrees>
            </Position>
            <AltitudeMeters>232.8000030517578125</AltitudeMeters>
            <DistanceMeters>NAN</DistanceMeters>
          </Trackpoint>
          <Trackpoint>
            <Time>2019-10-09T10:10:37.000Z</Time>
            <Position>
              <LatitudeDegrees>38.937883414328098297119140625</LatitudeDegrees>
              <LongitudeDegrees>-6.34426376782357692718505859375</LongitudeDegrees>
            </Position>
            <AltitudeMeters>232.8000030517578125</AltitudeMeters>
            <DistanceMeters>NAN</DistanceMeters>
          </Trackpoint>
          <Trackpoint>
            <Time>2019-10-09T10:10:39.000Z</Time>
            <Position>
              <LatitudeDegrees>38.93779934383928775787353515625</LatitudeDegrees>
              <LongitudeDegrees>-6.34429260157048702239990234375</LongitudeDegrees>
            </Position>
            <AltitudeMeters>232.399993896484375</AltitudeMeters>
            <DistanceMeters>NAN</DistanceMeters>
          </Trackpoint>
          <Trackpoint>
            <Time>2019-10-09T10:10:40.000Z</Time>
            <Position>
              <LatitudeDegrees>38.937754333019256591796875</LatitudeDegrees>
              <LongitudeDegrees>-6.34430785663425922393798828125</LongitudeDegrees>
            </Position>
            <AltitudeMeters>232.600006103515625</AltitudeMeters>
            <DistanceMeters>NAN</DistanceMeters>
          </Trackpoint>
          <Trackpoint>
            <Time>2019-10-09T10:10:44.000Z</Time>
            <Position>
              <LatitudeDegrees>38.93756330944597721099853515625</LatitudeDegrees>
              <LongitudeDegrees>-6.3443656079471111297607421875</LongitudeDegrees>
            </Position>
            <AltitudeMeters>232.1999969482421875</AltitudeMeters>
            <DistanceMeters>NAN</DistanceMeters>
          </Trackpoint>
          <Trackpoint>
            <Time>2019-10-09T10:10:47.000Z</Time>
            <Position>
              <LatitudeDegrees>38.93741662614047527313232421875</LatitudeDegrees>
              <LongitudeDegrees>-6.34440911002457141876220703125</LongitudeDegrees>
            </Position>
            <AltitudeMeters>232</AltitudeMeters>
            <DistanceMeters>NAN</DistanceMeters>
          </Trackpoint>
          <Trackpoint>
            <Time>2019-10-09T10:10:48.000Z</Time>
            <Position>
              <LatitudeDegrees>38.93737010657787322998046875</LatitudeDegrees>
              <LongitudeDegrees>-6.3444239459931850433349609375</LongitudeDegrees>
            </Position>
            <AltitudeMeters>231.8000030517578125</AltitudeMeters>
            <DistanceMeters>NAN</DistanceMeters>
          </Trackpoint>
          <Trackpoint>
            <Time>2019-10-09T10:10:51.000Z</Time>
            <Position>
              <LatitudeDegrees>38.93723323009908199310302734375</LatitudeDegrees>
              <LongitudeDegrees>-6.34446837007999420166015625</LongitudeDegrees>
            </Position>
            <AltitudeMeters>232.1999969482421875</AltitudeMeters>
            <DistanceMeters>NAN</DistanceMeters>
          </Trackpoint>
          <Trackpoint>
            <Time>2019-10-09T10:10:54.000Z</Time>
            <Position>
              <LatitudeDegrees>38.93708889372646808624267578125</LatitudeDegrees>
              <LongitudeDegrees>-6.34451799094676971435546875</LongitudeDegrees>
            </Position>
            <AltitudeMeters>231.600006103515625</AltitudeMeters>
            <DistanceMeters>NAN</DistanceMeters>
          </Trackpoint>
          <Trackpoint>
            <Time>2019-10-09T10:10:56.000Z</Time>
            <Position>
              <LatitudeDegrees>38.93699199892580509185791015625</LatitudeDegrees>
              <LongitudeDegrees>-6.34455881081521511077880859375</LongitudeDegrees>
            </Position>
            <AltitudeMeters>231.1999969482421875</AltitudeMeters>
            <DistanceMeters>NAN</DistanceMeters>
          </Trackpoint>
          <Trackpoint>
            <Time>2019-10-09T10:10:58.000Z</Time>
            <Position>
              <LatitudeDegrees>38.936891667544841766357421875</LatitudeDegrees>
              <LongitudeDegrees>-6.34458211250603199005126953125</LongitudeDegrees>
            </Position>
            <AltitudeMeters>231.399993896484375</AltitudeMeters>
            <DistanceMeters>NAN</DistanceMeters>
          </Trackpoint>
          <Trackpoint>
            <Time>2019-10-09T10:10:59.000Z</Time>
            <Position>
              <LatitudeDegrees>38.93684246577322483062744140625</LatitudeDegrees>
              <LongitudeDegrees>-6.3445979543030261993408203125</LongitudeDegrees>
            </Position>
            <AltitudeMeters>231.399993896484375</AltitudeMeters>
            <DistanceMeters>NAN</DistanceMeters>
          </Trackpoint>
          <Trackpoint>
            <Time>2019-10-09T10:11:00.000Z</Time>
            <Position>
              <LatitudeDegrees>38.93679519183933734893798828125</LatitudeDegrees>
              <LongitudeDegrees>-6.3446163944900035858154296875</LongitudeDegrees>
            </Position>
            <AltitudeMeters>231.399993896484375</AltitudeMeters>
            <DistanceMeters>NAN</DistanceMeters>
          </Trackpoint>
          <Trackpoint>
            <Time>2019-10-09T10:11:01.000Z</Time>
            <Position>
              <LatitudeDegrees>38.936742134392261505126953125</LatitudeDegrees>
              <LongitudeDegrees>-6.3446318171918392181396484375</LongitudeDegrees>
            </Position>
            <AltitudeMeters>231.399993896484375</AltitudeMeters>
            <DistanceMeters>NAN</DistanceMeters>
          </Trackpoint>
          <Trackpoint>
            <Time>2019-10-09T10:11:02.000Z</Time>
            <Position>
              <LatitudeDegrees>38.9366933517158031463623046875</LatitudeDegrees>
              <LongitudeDegrees>-6.344644390046596527099609375</LongitudeDegrees>
            </Position>
            <AltitudeMeters>231.399993896484375</AltitudeMeters>
            <DistanceMeters>NAN</DistanceMeters>
          </Trackpoint>
          <Trackpoint>
            <Time>2019-10-09T10:11:05.000Z</Time>
            <Position>
              <LatitudeDegrees>38.93653669394552707672119140625</LatitudeDegrees>
              <LongitudeDegrees>-6.34469443000853061676025390625</LongitudeDegrees>
            </Position>
            <AltitudeMeters>230.600006103515625</AltitudeMeters>
            <DistanceMeters>NAN</DistanceMeters>
          </Trackpoint>
          <Trackpoint>
            <Time>2019-10-09T10:11:06.000Z</Time>
            <Position>
              <LatitudeDegrees>38.93648237921297550201416015625</LatitudeDegrees>
              <LongitudeDegrees>-6.3447119481861591339111328125</LongitudeDegrees>
            </Position>
            <AltitudeMeters>230.399993896484375</AltitudeMeters>
            <DistanceMeters>NAN</DistanceMeters>
          </Trackpoint>
          <Trackpoint>
            <Time>2019-10-09T10:11:07.000Z</Time>
            <Position>
              <LatitudeDegrees>38.9364298246800899505615234375</LatitudeDegrees>
              <LongitudeDegrees>-6.34472812525928020477294921875</LongitudeDegrees>
            </Position>
            <AltitudeMeters>230.1999969482421875</AltitudeMeters>
            <DistanceMeters>NAN</DistanceMeters>
          </Trackpoint>
          <Trackpoint>
            <Time>2019-10-09T10:11:09.000Z</Time>
            <Position>
              <LatitudeDegrees>38.9363228715956211090087890625</LatitudeDegrees>
              <LongitudeDegrees>-6.34476651437580585479736328125</LongitudeDegrees>
            </Position>
            <AltitudeMeters>230</AltitudeMeters>
            <DistanceMeters>NAN</DistanceMeters>
          </Trackpoint>
          <Trackpoint>
            <Time>2019-10-09T10:11:11.000Z</Time>
            <Position>
              <LatitudeDegrees>38.93621675670146942138671875</LatitudeDegrees>
              <LongitudeDegrees>-6.3448172248899936676025390625</LongitudeDegrees>
            </Position>
            <AltitudeMeters>230.1999969482421875</AltitudeMeters>
            <DistanceMeters>NAN</DistanceMeters>
          </Trackpoint>
          <Trackpoint>
            <Time>2019-10-09T10:11:12.000Z</Time>
            <Position>
              <LatitudeDegrees>38.93617241643369197845458984375</LatitudeDegrees>
              <LongitudeDegrees>-6.34486692957580089569091796875</LongitudeDegrees>
            </Position>
            <AltitudeMeters>230.399993896484375</AltitudeMeters>
            <DistanceMeters>NAN</DistanceMeters>
          </Trackpoint>
          <Trackpoint>
            <Time>2019-10-09T10:11:14.000Z</Time>
            <Position>
              <LatitudeDegrees>38.9361039362847805023193359375</LatitudeDegrees>
              <LongitudeDegrees>-6.344988048076629638671875</LongitudeDegrees>
            </Position>
            <AltitudeMeters>230.1999969482421875</AltitudeMeters>
            <DistanceMeters>NAN</DistanceMeters>
          </Trackpoint>
          <Trackpoint>
            <Time>2019-10-09T10:11:15.000Z</Time>
            <Position>
              <LatitudeDegrees>38.936071582138538360595703125</LatitudeDegrees>
              <LongitudeDegrees>-6.345047056674957275390625</LongitudeDegrees>
            </Position>
            <AltitudeMeters>230</AltitudeMeters>
            <DistanceMeters>NAN</DistanceMeters>
          </Trackpoint>
          <Trackpoint>
            <Time>2019-10-09T10:11:17.000Z</Time>
            <Position>
              <LatitudeDegrees>38.9359932951629161834716796875</LatitudeDegrees>
              <LongitudeDegrees>-6.34514872916042804718017578125</LongitudeDegrees>
            </Position>
            <AltitudeMeters>230.1999969482421875</AltitudeMeters>
            <DistanceMeters>NAN</DistanceMeters>
          </Trackpoint>
          <Trackpoint>
            <Time>2019-10-09T10:11:18.000Z</Time>
            <Position>
              <LatitudeDegrees>38.935942836105823516845703125</LatitudeDegrees>
              <LongitudeDegrees>-6.34517856873571872711181640625</LongitudeDegrees>
            </Position>
            <AltitudeMeters>230.1999969482421875</AltitudeMeters>
            <DistanceMeters>NAN</DistanceMeters>
          </Trackpoint>
          <Trackpoint>
            <Time>2019-10-09T10:11:19.000Z</Time>
            <Position>
              <LatitudeDegrees>38.93588726408779621124267578125</LatitudeDegrees>
              <LongitudeDegrees>-6.34519399143755435943603515625</LongitudeDegrees>
            </Position>
            <AltitudeMeters>230.399993896484375</AltitudeMeters>
            <DistanceMeters>NAN</DistanceMeters>
          </Trackpoint>
          <Trackpoint>
            <Time>2019-10-09T10:11:21.000Z</Time>
            <Position>
              <LatitudeDegrees>38.93577209673821926116943359375</LatitudeDegrees>
              <LongitudeDegrees>-6.34519365616142749786376953125</LongitudeDegrees>
            </Position>
            <AltitudeMeters>230.399993896484375</AltitudeMeters>
            <DistanceMeters>NAN</DistanceMeters>
          </Trackpoint>
          <Trackpoint>
            <Time>2019-10-09T10:11:23.000Z</Time>
            <Position>
              <LatitudeDegrees>38.9356546662747859954833984375</LatitudeDegrees>
              <LongitudeDegrees>-6.34516683407127857208251953125</LongitudeDegrees>
            </Position>
            <AltitudeMeters>230</AltitudeMeters>
            <DistanceMeters>NAN</DistanceMeters>
          </Trackpoint>
          <Trackpoint>
            <Time>2019-10-09T10:11:24.000Z</Time>
            <Position>
              <LatitudeDegrees>38.935590125620365142822265625</LatitudeDegrees>
              <LongitudeDegrees>-6.34517052210867404937744140625</LongitudeDegrees>
            </Position>
            <AltitudeMeters>230.1999969482421875</AltitudeMeters>
            <DistanceMeters>NAN</DistanceMeters>
          </Trackpoint>
          <Trackpoint>
            <Time>2019-10-09T10:11:26.000Z</Time>
            <Position>
              <LatitudeDegrees>38.93546716310083866119384765625</LatitudeDegrees>
              <LongitudeDegrees>-6.34522584266960620880126953125</LongitudeDegrees>
            </Position>
            <AltitudeMeters>229.600006103515625</AltitudeMeters>
            <DistanceMeters>NAN</DistanceMeters>
          </Trackpoint>
          <Trackpoint>
            <Time>2019-10-09T10:11:27.000Z</Time>
            <Position>
              <LatitudeDegrees>38.9354236610233783721923828125</LatitudeDegrees>
              <LongitudeDegrees>-6.3452926464378833770751953125</LongitudeDegrees>
            </Position>
            <AltitudeMeters>229.1999969482421875</AltitudeMeters>
            <DistanceMeters>NAN</DistanceMeters>
          </Trackpoint>
          <Trackpoint>
            <Time>2019-10-09T10:11:30.000Z</Time>
            <Position>
              <LatitudeDegrees>38.93531813286244869232177734375</LatitudeDegrees>
              <LongitudeDegrees>-6.34550445713102817535400390625</LongitudeDegrees>
            </Position>
            <AltitudeMeters>228.399993896484375</AltitudeMeters>
            <DistanceMeters>NAN</DistanceMeters>
          </Trackpoint>
          <Trackpoint>
            <Time>2019-10-09T10:11:31.000Z</Time>
            <Position>
              <LatitudeDegrees>38.93528477288782596588134765625</LatitudeDegrees>
              <LongitudeDegrees>-6.3455741107463836669921875</LongitudeDegrees>
            </Position>
            <AltitudeMeters>228</AltitudeMeters>
            <DistanceMeters>NAN</DistanceMeters>
          </Trackpoint>
          <Trackpoint>
            <Time>2019-10-09T10:11:32.000Z</Time>
            <Position>
              <LatitudeDegrees>38.9352462999522686004638671875</LatitudeDegrees>
              <LongitudeDegrees>-6.34563672356307506561279296875</LongitudeDegrees>
            </Position>
            <AltitudeMeters>228.1999969482421875</AltitudeMeters>
            <DistanceMeters>NAN</DistanceMeters>
          </Trackpoint>
          <Trackpoint>
            <Time>2019-10-09T10:11:35.000Z</Time>
            <Position>
              <LatitudeDegrees>38.93509819172322750091552734375</LatitudeDegrees>
              <LongitudeDegrees>-6.34576815180480480194091796875</LongitudeDegrees>
            </Position>
            <AltitudeMeters>228</AltitudeMeters>
            <DistanceMeters>NAN</DistanceMeters>
          </Trackpoint>
          <Trackpoint>
            <Time>2019-10-09T10:11:38.000Z</Time>
            <Position>
              <LatitudeDegrees>38.93490658141672611236572265625</LatitudeDegrees>
              <LongitudeDegrees>-6.34578206576406955718994140625</LongitudeDegrees>
            </Position>
            <AltitudeMeters>227.600006103515625</AltitudeMeters>
            <DistanceMeters>NAN</DistanceMeters>
          </Trackpoint>
          <Trackpoint>
            <Time>2019-10-09T10:11:39.000Z</Time>
            <Position>
              <LatitudeDegrees>38.93483768217265605926513671875</LatitudeDegrees>
              <LongitudeDegrees>-6.34578340686857700347900390625</LongitudeDegrees>
            </Position>
            <AltitudeMeters>227</AltitudeMeters>
            <DistanceMeters>NAN</DistanceMeters>
          </Trackpoint>
          <Trackpoint>
            <Time>2019-10-09T10:11:41.000Z</Time>
            <Position>
              <LatitudeDegrees>38.93468496389687061309814453125</LatitudeDegrees>
              <LongitudeDegrees>-6.34580553509294986724853515625</LongitudeDegrees>
            </Position>
            <AltitudeMeters>225.600006103515625</AltitudeMeters>
            <DistanceMeters>NAN</DistanceMeters>
          </Trackpoint>
          <Trackpoint>
            <Time>2019-10-09T10:11:42.000Z</Time>
            <Position>
              <LatitudeDegrees>38.93460282124578952789306640625</LatitudeDegrees>
              <LongitudeDegrees>-6.3458334468305110931396484375</LongitudeDegrees>
            </Position>
            <AltitudeMeters>224.8000030517578125</AltitudeMeters>
            <DistanceMeters>NAN</DistanceMeters>
          </Trackpoint>
          <Trackpoint>
            <Time>2019-10-09T10:11:43.000Z</Time>
            <Position>
              <LatitudeDegrees>38.93452000804245471954345703125</LatitudeDegrees>
              <LongitudeDegrees>-6.34585750289261341094970703125</LongitudeDegrees>
            </Position>
            <AltitudeMeters>223.8000030517578125</AltitudeMeters>
            <DistanceMeters>NAN</DistanceMeters>
          </Trackpoint>
          <Trackpoint>
            <Time>2019-10-09T10:11:45.000Z</Time>
            <Position>
              <LatitudeDegrees>38.9343531243503093719482421875</LatitudeDegrees>
              <LongitudeDegrees>-6.3459169305860996246337890625</LongitudeDegrees>
            </Position>
            <AltitudeMeters>222.600006103515625</AltitudeMeters>
            <DistanceMeters>NAN</DistanceMeters>
          </Trackpoint>
          <Trackpoint>
            <Time>2019-10-09T10:11:48.000Z</Time>
            <Position>
              <LatitudeDegrees>38.93409320153295993804931640625</LatitudeDegrees>
              <LongitudeDegrees>-6.34599580429494380950927734375</LongitudeDegrees>
            </Position>
            <AltitudeMeters>221.399993896484375</AltitudeMeters>
            <DistanceMeters>NAN</DistanceMeters>
          </Trackpoint>
          <Trackpoint>
            <Time>2019-10-09T10:11:50.000Z</Time>
            <Position>
              <LatitudeDegrees>38.933917097747325897216796875</LatitudeDegrees>
              <LongitudeDegrees>-6.3460450060665607452392578125</LongitudeDegrees>
            </Position>
            <AltitudeMeters>220.399993896484375</AltitudeMeters>
            <DistanceMeters>NAN</DistanceMeters>
          </Trackpoint>
          <Trackpoint>
            <Time>2019-10-09T10:11:52.000Z</Time>
            <Position>
              <LatitudeDegrees>38.933736719191074371337890625</LatitudeDegrees>
              <LongitudeDegrees>-6.3460966385900974273681640625</LongitudeDegrees>
            </Position>
            <AltitudeMeters>219.600006103515625</AltitudeMeters>
            <DistanceMeters>NAN</DistanceMeters>
          </Trackpoint>
          <Trackpoint>
            <Time>2019-10-09T10:11:53.000Z</Time>
            <Position>
              <LatitudeDegrees>38.9336477033793926239013671875</LatitudeDegrees>
              <LongitudeDegrees>-6.3461180962622165679931640625</LongitudeDegrees>
            </Position>
            <AltitudeMeters>219</AltitudeMeters>
            <DistanceMeters>NAN</DistanceMeters>
          </Trackpoint>
          <Trackpoint>
            <Time>2019-10-09T10:11:57.000Z</Time>
            <Position>
              <LatitudeDegrees>38.93329842947423458099365234375</LatitudeDegrees>
              <LongitudeDegrees>-6.34623049758374691009521484375</LongitudeDegrees>
            </Position>
            <AltitudeMeters>218</AltitudeMeters>
            <DistanceMeters>NAN</DistanceMeters>
          </Trackpoint>
          <Trackpoint>
            <Time>2019-10-09T10:11:59.000Z</Time>
            <Position>
              <LatitudeDegrees>38.93314135260879993438720703125</LatitudeDegrees>
              <LongitudeDegrees>-6.34631096385419368743896484375</LongitudeDegrees>
            </Position>
            <AltitudeMeters>217.1999969482421875</AltitudeMeters>
            <DistanceMeters>NAN</DistanceMeters>
          </Trackpoint>
          <Trackpoint>
            <Time>2019-10-09T10:12:00.000Z</Time>
            <Position>
              <LatitudeDegrees>38.93308016471564769744873046875</LatitudeDegrees>
              <LongitudeDegrees>-6.34638891555368900299072265625</LongitudeDegrees>
            </Position>
            <AltitudeMeters>216.8000030517578125</AltitudeMeters>
            <DistanceMeters>NAN</DistanceMeters>
          </Trackpoint>
          <Trackpoint>
            <Time>2019-10-09T10:12:01.000Z</Time>
            <Position>
              <LatitudeDegrees>38.93301193602383136749267578125</LatitudeDegrees>
              <LongitudeDegrees>-6.34644557721912860870361328125</LongitudeDegrees>
            </Position>
            <AltitudeMeters>216.399993896484375</AltitudeMeters>
            <DistanceMeters>NAN</DistanceMeters>
          </Trackpoint>
          <Trackpoint>
            <Time>2019-10-09T10:12:03.000Z</Time>
            <Position>
              <LatitudeDegrees>38.93284278921782970428466796875</LatitudeDegrees>
              <LongitudeDegrees>-6.34643585421144962310791015625</LongitudeDegrees>
            </Position>
            <AltitudeMeters>216.600006103515625</AltitudeMeters>
            <DistanceMeters>NAN</DistanceMeters>
          </Trackpoint>
          <Trackpoint>
            <Time>2019-10-09T10:12:06.000Z</Time>
            <Position>
              <LatitudeDegrees>38.932582698762416839599609375</LatitudeDegrees>
              <LongitudeDegrees>-6.34644784033298492431640625</LongitudeDegrees>
            </Position>
            <AltitudeMeters>215.1999969482421875</AltitudeMeters>
            <DistanceMeters>NAN</DistanceMeters>
          </Trackpoint>
          <Trackpoint>
            <Time>2019-10-09T10:12:07.000Z</Time>
            <Position>
              <LatitudeDegrees>38.93249921500682830810546875</LatitudeDegrees>
              <LongitudeDegrees>-6.346479356288909912109375</LongitudeDegrees>
            </Position>
            <AltitudeMeters>214.8000030517578125</AltitudeMeters>
            <DistanceMeters>NAN</DistanceMeters>
          </Trackpoint>
          <Trackpoint>
            <Time>2019-10-09T10:12:08.000Z</Time>
            <Position>
              <LatitudeDegrees>38.93241330049932003021240234375</LatitudeDegrees>
              <LongitudeDegrees>-6.34650341235101222991943359375</LongitudeDegrees>
            </Position>
            <AltitudeMeters>214.600006103515625</AltitudeMeters>
            <DistanceMeters>NAN</DistanceMeters>
          </Trackpoint>
          <Trackpoint>
            <Time>2019-10-09T10:12:10.000Z</Time>
            <Position>
              <LatitudeDegrees>38.93224817700684070587158203125</LatitudeDegrees>
              <LongitudeDegrees>-6.34655940346419811248779296875</LongitudeDegrees>
            </Position>
            <AltitudeMeters>214.1999969482421875</AltitudeMeters>
            <DistanceMeters>NAN</DistanceMeters>
          </Trackpoint>
          <Trackpoint>
            <Time>2019-10-09T10:12:14.000Z</Time>
            <Position>
              <LatitudeDegrees>38.9319190196692943572998046875</LatitudeDegrees>
              <LongitudeDegrees>-6.34666685946285724639892578125</LongitudeDegrees>
            </Position>
            <AltitudeMeters>213</AltitudeMeters>
            <DistanceMeters>NAN</DistanceMeters>
          </Trackpoint>
          <Trackpoint>
            <Time>2019-10-09T10:12:16.000Z</Time>
            <Position>
              <LatitudeDegrees>38.9317594282329082489013671875</LatitudeDegrees>
              <LongitudeDegrees>-6.34671363048255443572998046875</LongitudeDegrees>
            </Position>
            <AltitudeMeters>212.8000030517578125</AltitudeMeters>
            <DistanceMeters>NAN</DistanceMeters>
          </Trackpoint>
          <Trackpoint>
            <Time>2019-10-09T10:12:18.000Z</Time>
            <Position>
              <LatitudeDegrees>38.93160528503358364105224609375</LatitudeDegrees>
              <LongitudeDegrees>-6.34676258079707622528076171875</LongitudeDegrees>
            </Position>
            <AltitudeMeters>212.600006103515625</AltitudeMeters>
            <DistanceMeters>NAN</DistanceMeters>
          </Trackpoint>
          <Trackpoint>
            <Time>2019-10-09T10:12:19.000Z</Time>
            <Position>
              <LatitudeDegrees>38.9315302670001983642578125</LatitudeDegrees>
              <LongitudeDegrees>-6.3467859663069248199462890625</LongitudeDegrees>
            </Position>
            <AltitudeMeters>212</AltitudeMeters>
            <DistanceMeters>NAN</DistanceMeters>
          </Trackpoint>
          <Trackpoint>
            <Time>2019-10-09T10:12:22.000Z</Time>
            <Position>
              <LatitudeDegrees>38.931313343346118927001953125</LatitudeDegrees>
              <LongitudeDegrees>-6.34685218334197998046875</LongitudeDegrees>
            </Position>
            <AltitudeMeters>212.1999969482421875</AltitudeMeters>
            <DistanceMeters>NAN</DistanceMeters>
          </Trackpoint>
          <Trackpoint>
            <Time>2019-10-09T10:12:28.000Z</Time>
            <Position>
              <LatitudeDegrees>38.93092467449605464935302734375</LatitudeDegrees>
              <LongitudeDegrees>-6.3469755649566650390625</LongitudeDegrees>
            </Position>
            <AltitudeMeters>211.399993896484375</AltitudeMeters>
            <DistanceMeters>NAN</DistanceMeters>
          </Trackpoint>
          <Trackpoint>
            <Time>2019-10-09T10:12:29.000Z</Time>
            <Position>
              <LatitudeDegrees>38.93086063675582408905029296875</LatitudeDegrees>
              <LongitudeDegrees>-6.34699207730591297149658203125</LongitudeDegrees>
            </Position>
            <AltitudeMeters>211.8000030517578125</AltitudeMeters>
            <DistanceMeters>NAN</DistanceMeters>
          </Trackpoint>
          <Trackpoint>
            <Time>2019-10-09T10:12:31.000Z</Time>
            <Position>
              <LatitudeDegrees>38.930737338960170745849609375</LatitudeDegrees>
              <LongitudeDegrees>-6.3470270298421382904052734375</LongitudeDegrees>
            </Position>
            <AltitudeMeters>212.1999969482421875</AltitudeMeters>
            <DistanceMeters>NAN</DistanceMeters>
          </Trackpoint>
          <Trackpoint>
            <Time>2019-10-09T10:12:35.000Z</Time>
            <Position>
              <LatitudeDegrees>38.93049065954983234405517578125</LatitudeDegrees>
              <LongitudeDegrees>-6.3470997847616672515869140625</LongitudeDegrees>
            </Position>
            <AltitudeMeters>212.1999969482421875</AltitudeMeters>
            <DistanceMeters>NAN</DistanceMeters>
          </Trackpoint>
          <Trackpoint>
            <Time>2019-10-09T10:12:36.000Z</Time>
            <Position>
              <LatitudeDegrees>38.93042729236185550689697265625</LatitudeDegrees>
              <LongitudeDegrees>-6.347117722034454345703125</LongitudeDegrees>
            </Position>
            <AltitudeMeters>212</AltitudeMeters>
            <DistanceMeters>NAN</DistanceMeters>
          </Trackpoint>
          <Trackpoint>
            <Time>2019-10-09T10:12:39.000Z</Time>
            <Position>
              <LatitudeDegrees>38.93023769371211528778076171875</LatitudeDegrees>
              <LongitudeDegrees>-6.34718368761241436004638671875</LongitudeDegrees>
            </Position>
            <AltitudeMeters>211.8000030517578125</AltitudeMeters>
            <DistanceMeters>NAN</DistanceMeters>
          </Trackpoint>
          <Trackpoint>
            <Time>2019-10-09T10:12:41.000Z</Time>
            <Position>
              <LatitudeDegrees>38.930132500827312469482421875</LatitudeDegrees>
              <LongitudeDegrees>-6.347280330955982208251953125</LongitudeDegrees>
            </Position>
            <AltitudeMeters>211.1999969482421875</AltitudeMeters>
            <DistanceMeters>NAN</DistanceMeters>
          </Trackpoint>
          <Trackpoint>
            <Time>2019-10-09T10:12:42.000Z</Time>
            <Position>
              <LatitudeDegrees>38.93009855411946773529052734375</LatitudeDegrees>
              <LongitudeDegrees>-6.34736205451190471649169921875</LongitudeDegrees>
            </Position>
            <AltitudeMeters>211</AltitudeMeters>
            <DistanceMeters>NAN</DistanceMeters>
          </Trackpoint>
          <Trackpoint>
            <Time>2019-10-09T10:12:43.000Z</Time>
            <Position>
              <LatitudeDegrees>38.9300609193742275238037109375</LatitudeDegrees>
              <LongitudeDegrees>-6.347435228526592254638671875</LongitudeDegrees>
            </Position>
            <AltitudeMeters>210.1999969482421875</AltitudeMeters>
            <DistanceMeters>NAN</DistanceMeters>
          </Trackpoint>
          <Trackpoint>
            <Time>2019-10-09T10:12:44.000Z</Time>
            <Position>
              <LatitudeDegrees>38.9299985580146312713623046875</LatitudeDegrees>
              <LongitudeDegrees>-6.34747982025146484375</LongitudeDegrees>
            </Position>
            <AltitudeMeters>209.8000030517578125</AltitudeMeters>
            <DistanceMeters>NAN</DistanceMeters>
          </Trackpoint>
          <Trackpoint>
            <Time>2019-10-09T10:12:45.000Z</Time>
            <Position>
              <LatitudeDegrees>38.92993091605603694915771484375</LatitudeDegrees>
              <LongitudeDegrees>-6.34749599732458591461181640625</LongitudeDegrees>
            </Position>
            <AltitudeMeters>209.8000030517578125</AltitudeMeters>
            <DistanceMeters>NAN</DistanceMeters>
          </Trackpoint>
          <Trackpoint>
            <Time>2019-10-09T10:12:48.000Z</Time>
            <Position>
              <LatitudeDegrees>38.92974299378693103790283203125</LatitudeDegrees>
              <LongitudeDegrees>-6.34740279056131839752197265625</LongitudeDegrees>
            </Position>
            <AltitudeMeters>209.8000030517578125</AltitudeMeters>
            <DistanceMeters>NAN</DistanceMeters>
          </Trackpoint>
          <Trackpoint>
            <Time>2019-10-09T10:12:51.000Z</Time>
            <Position>
              <LatitudeDegrees>38.92954719252884387969970703125</LatitudeDegrees>
              <LongitudeDegrees>-6.34740765206515789031982421875</LongitudeDegrees>
            </Position>
            <AltitudeMeters>208.600006103515625</AltitudeMeters>
            <DistanceMeters>NAN</DistanceMeters>
          </Trackpoint>
          <Trackpoint>
            <Time>2019-10-09T10:12:52.000Z</Time>
            <Position>
              <LatitudeDegrees>38.92948114313185214996337890625</LatitudeDegrees>
              <LongitudeDegrees>-6.34742550551891326904296875</LongitudeDegrees>
            </Position>
            <AltitudeMeters>208.1999969482421875</AltitudeMeters>
            <DistanceMeters>NAN</DistanceMeters>
          </Trackpoint>
          <Trackpoint>
            <Time>2019-10-09T10:12:55.000Z</Time>
            <Position>
              <LatitudeDegrees>38.92926857806742191314697265625</LatitudeDegrees>
              <LongitudeDegrees>-6.3474950753152370452880859375</LongitudeDegrees>
            </Position>
            <AltitudeMeters>207.600006103515625</AltitudeMeters>
            <DistanceMeters>NAN</DistanceMeters>
          </Trackpoint>
          <Trackpoint>
            <Time>2019-10-09T10:12:58.000Z</Time>
            <Position>
              <LatitudeDegrees>38.92903723753988742828369140625</LatitudeDegrees>
              <LongitudeDegrees>-6.34756674058735370635986328125</LongitudeDegrees>
            </Position>
            <AltitudeMeters>206.399993896484375</AltitudeMeters>
            <DistanceMeters>NAN</DistanceMeters>
          </Trackpoint>
          <Trackpoint>
            <Time>2019-10-09T10:13:00.000Z</Time>
            <Position>
              <LatitudeDegrees>38.92888066358864307403564453125</LatitudeDegrees>
              <LongitudeDegrees>-6.3476177863776683807373046875</LongitudeDegrees>
            </Position>
            <AltitudeMeters>205.399993896484375</AltitudeMeters>
            <DistanceMeters>NAN</DistanceMeters>
          </Trackpoint>
          <Trackpoint>
            <Time>2019-10-09T10:13:01.000Z</Time>
            <Position>
              <LatitudeDegrees>38.92879910767078399658203125</LatitudeDegrees>
              <LongitudeDegrees>-6.3476419262588024139404296875</LongitudeDegrees>
            </Position>
            <AltitudeMeters>205.600006103515625</AltitudeMeters>
            <DistanceMeters>NAN</DistanceMeters>
          </Trackpoint>
          <Trackpoint>
            <Time>2019-10-09T10:13:02.000Z</Time>
            <Position>
              <LatitudeDegrees>38.92871688120067119598388671875</LatitudeDegrees>
              <LongitudeDegrees>-6.34766799397766590118408203125</LongitudeDegrees>
            </Position>
            <AltitudeMeters>205.1999969482421875</AltitudeMeters>
            <DistanceMeters>NAN</DistanceMeters>
          </Trackpoint>
          <Trackpoint>
            <Time>2019-10-09T10:13:03.000Z</Time>
            <Position>
              <LatitudeDegrees>38.9286333136260509490966796875</LatitudeDegrees>
              <LongitudeDegrees>-6.3476930558681488037109375</LongitudeDegrees>
            </Position>
            <AltitudeMeters>204.1999969482421875</AltitudeMeters>
            <DistanceMeters>NAN</DistanceMeters>
          </Trackpoint>
          <Trackpoint>
            <Time>2019-10-09T10:13:04.000Z</Time>
            <Position>
              <LatitudeDegrees>38.92854941077530384063720703125</LatitudeDegrees>
              <LongitudeDegrees>-6.34772029705345630645751953125</LongitudeDegrees>
            </Position>
            <AltitudeMeters>203.1999969482421875</AltitudeMeters>
            <DistanceMeters>NAN</DistanceMeters>
          </Trackpoint>
          <Trackpoint>
            <Time>2019-10-09T10:13:06.000Z</Time>
            <Position>
              <LatitudeDegrees>38.9283761568367481231689453125</LatitudeDegrees>
              <LongitudeDegrees>-6.34777260012924671173095703125</LongitudeDegrees>
            </Position>
            <AltitudeMeters>201.399993896484375</AltitudeMeters>
            <DistanceMeters>NAN</DistanceMeters>
          </Trackpoint>
          <Trackpoint>
            <Time>2019-10-09T10:13:08.000Z</Time>
            <Position>
              <LatitudeDegrees>38.92820055596530437469482421875</LatitudeDegrees>
              <LongitudeDegrees>-6.34782054461538791656494140625</LongitudeDegrees>
            </Position>
            <AltitudeMeters>201.8000030517578125</AltitudeMeters>
            <DistanceMeters>NAN</DistanceMeters>
          </Trackpoint>
          <Trackpoint>
            <Time>2019-10-09T10:13:10.000Z</Time>
            <Position>
              <LatitudeDegrees>38.92801866866648197174072265625</LatitudeDegrees>
              <LongitudeDegrees>-6.3478789664804935455322265625</LongitudeDegrees>
            </Position>
            <AltitudeMeters>200.399993896484375</AltitudeMeters>
            <DistanceMeters>NAN</DistanceMeters>
          </Trackpoint>
          <Trackpoint>
            <Time>2019-10-09T10:13:12.000Z</Time>
            <Position>
              <LatitudeDegrees>38.927838541567325592041015625</LatitudeDegrees>
              <LongitudeDegrees>-6.34793219156563282012939453125</LongitudeDegrees>
            </Position>
            <AltitudeMeters>198.600006103515625</AltitudeMeters>
            <DistanceMeters>NAN</DistanceMeters>
          </Trackpoint>
          <Trackpoint>
            <Time>2019-10-09T10:13:14.000Z</Time>
            <Position>
              <LatitudeDegrees>38.9276670478284358978271484375</LatitudeDegrees>
              <LongitudeDegrees>-6.34797804057598114013671875</LongitudeDegrees>
            </Position>
            <AltitudeMeters>198.399993896484375</AltitudeMeters>
            <DistanceMeters>NAN</DistanceMeters>
          </Trackpoint>
          <Trackpoint>
            <Time>2019-10-09T10:13:19.000Z</Time>
            <Position>
              <LatitudeDegrees>38.9273326098918914794921875</LatitudeDegrees>
              <LongitudeDegrees>-6.3480663858354091644287109375</LongitudeDegrees>
            </Position>
            <AltitudeMeters>197.600006103515625</AltitudeMeters>
            <DistanceMeters>NAN</DistanceMeters>
          </Trackpoint>
          <Trackpoint>
            <Time>2019-10-09T10:13:20.000Z</Time>
            <Position>
              <LatitudeDegrees>38.92727200873196125030517578125</LatitudeDegrees>
              <LongitudeDegrees>-6.34809530340135097503662109375</LongitudeDegrees>
            </Position>
            <AltitudeMeters>197.399993896484375</AltitudeMeters>
            <DistanceMeters>NAN</DistanceMeters>
          </Trackpoint>
          <Trackpoint>
            <Time>2019-10-09T10:13:23.000Z</Time>
            <Position>
              <LatitudeDegrees>38.92708106897771358489990234375</LatitudeDegrees>
              <LongitudeDegrees>-6.348156742751598358154296875</LongitudeDegrees>
            </Position>
            <AltitudeMeters>197</AltitudeMeters>
            <DistanceMeters>NAN</DistanceMeters>
          </Trackpoint>
          <Trackpoint>
            <Time>2019-10-09T10:13:24.000Z</Time>
            <Position>
              <LatitudeDegrees>38.9270132593810558319091796875</LatitudeDegrees>
              <LongitudeDegrees>-6.34818348102271556854248046875</LongitudeDegrees>
            </Position>
            <AltitudeMeters>196.600006103515625</AltitudeMeters>
            <DistanceMeters>NAN</DistanceMeters>
          </Trackpoint>
          <Trackpoint>
            <Time>2019-10-09T10:13:25.000Z</Time>
            <Position>
              <LatitudeDegrees>38.92694159410893917083740234375</LatitudeDegrees>
              <LongitudeDegrees>-6.34820175357162952423095703125</LongitudeDegrees>
            </Position>
            <AltitudeMeters>196.1999969482421875</AltitudeMeters>
            <DistanceMeters>NAN</DistanceMeters>
          </Trackpoint>
          <Trackpoint>
            <Time>2019-10-09T10:13:27.000Z</Time>
            <Position>
              <LatitudeDegrees>38.9267988502979278564453125</LatitudeDegrees>
              <LongitudeDegrees>-6.3482413999736309051513671875</LongitudeDegrees>
            </Position>
            <AltitudeMeters>195.1999969482421875</AltitudeMeters>
            <DistanceMeters>NAN</DistanceMeters>
          </Trackpoint>
          <Trackpoint>
            <Time>2019-10-09T10:13:28.000Z</Time>
            <Position>
              <LatitudeDegrees>38.92672039568424224853515625</LatitudeDegrees>
              <LongitudeDegrees>-6.348266713321208953857421875</LongitudeDegrees>
            </Position>
            <AltitudeMeters>194.1999969482421875</AltitudeMeters>
            <DistanceMeters>NAN</DistanceMeters>
          </Trackpoint>
          <Trackpoint>
            <Time>2019-10-09T10:13:29.000Z</Time>
            <Position>
              <LatitudeDegrees>38.92665191553533077239990234375</LatitudeDegrees>
              <LongitudeDegrees>-6.348287500441074371337890625</LongitudeDegrees>
            </Position>
            <AltitudeMeters>193.8000030517578125</AltitudeMeters>
            <DistanceMeters>NAN</DistanceMeters>
          </Trackpoint>
          <Trackpoint>
            <Time>2019-10-09T10:13:30.000Z</Time>
            <Position>
              <LatitudeDegrees>38.92657781951129436492919921875</LatitudeDegrees>
              <LongitudeDegrees>-6.348308287560939788818359375</LongitudeDegrees>
            </Position>
            <AltitudeMeters>193.8000030517578125</AltitudeMeters>
            <DistanceMeters>NAN</DistanceMeters>
          </Trackpoint>
          <Trackpoint>
            <Time>2019-10-09T10:13:33.000Z</Time>
            <Position>
              <LatitudeDegrees>38.9263923279941082000732421875</LatitudeDegrees>
              <LongitudeDegrees>-6.348389089107513427734375</LongitudeDegrees>
            </Position>
            <AltitudeMeters>193.399993896484375</AltitudeMeters>
            <DistanceMeters>NAN</DistanceMeters>
          </Trackpoint>
          <Trackpoint>
            <Time>2019-10-09T10:13:34.000Z</Time>
            <Position>
              <LatitudeDegrees>38.92634354531764984130859375</LatitudeDegrees>
              <LongitudeDegrees>-6.348426975309848785400390625</LongitudeDegrees>
            </Position>
            <AltitudeMeters>193.600006103515625</AltitudeMeters>
            <DistanceMeters>NAN</DistanceMeters>
          </Trackpoint>
          <Trackpoint>
            <Time>2019-10-09T10:13:37.000Z</Time>
            <Position>
              <LatitudeDegrees>38.92633239738643169403076171875</LatitudeDegrees>
              <LongitudeDegrees>-6.3486514426767826080322265625</LongitudeDegrees>
            </Position>
            <AltitudeMeters>193.399993896484375</AltitudeMeters>
            <DistanceMeters>NAN</DistanceMeters>
          </Trackpoint>
          <Trackpoint>
            <Time>2019-10-09T10:13:38.000Z</Time>
            <Position>
              <LatitudeDegrees>38.92634689807891845703125</LatitudeDegrees>
              <LongitudeDegrees>-6.34873534552752971649169921875</LongitudeDegrees>
            </Position>
            <AltitudeMeters>192.399993896484375</AltitudeMeters>
            <DistanceMeters>NAN</DistanceMeters>
          </Trackpoint>
          <Trackpoint>
            <Time>2019-10-09T10:13:39.000Z</Time>
            <Position>
              <LatitudeDegrees>38.9263303019106388092041015625</LatitudeDegrees>
              <LongitudeDegrees>-6.34881916455924510955810546875</LongitudeDegrees>
            </Position>
            <AltitudeMeters>192</AltitudeMeters>
            <DistanceMeters>NAN</DistanceMeters>
          </Trackpoint>
          <Trackpoint>
            <Time>2019-10-09T10:13:40.000Z</Time>
            <Position>
              <LatitudeDegrees>38.9262793399393558502197265625</LatitudeDegrees>
              <LongitudeDegrees>-6.348894350230693817138671875</LongitudeDegrees>
            </Position>
            <AltitudeMeters>191.600006103515625</AltitudeMeters>
            <DistanceMeters>NAN</DistanceMeters>
          </Trackpoint>
          <Trackpoint>
            <Time>2019-10-09T10:13:41.000Z</Time>
            <Position>
              <LatitudeDegrees>38.9262233488261699676513671875</LatitudeDegrees>
              <LongitudeDegrees>-6.34894472546875476837158203125</LongitudeDegrees>
            </Position>
            <AltitudeMeters>191.1999969482421875</AltitudeMeters>
            <DistanceMeters>NAN</DistanceMeters>
          </Trackpoint>
          <Trackpoint>
            <Time>2019-10-09T10:13:42.000Z</Time>
            <Position>
              <LatitudeDegrees>38.9261576347053050994873046875</LatitudeDegrees>
              <LongitudeDegrees>-6.348966099321842193603515625</LongitudeDegrees>
            </Position>
            <AltitudeMeters>190.8000030517578125</AltitudeMeters>
            <DistanceMeters>NAN</DistanceMeters>
          </Trackpoint>
          <Trackpoint>
            <Time>2019-10-09T10:13:43.000Z</Time>
            <Position>
              <LatitudeDegrees>38.926093094050884246826171875</LatitudeDegrees>
              <LongitudeDegrees>-6.348974145948886871337890625</LongitudeDegrees>
            </Position>
            <AltitudeMeters>190.600006103515625</AltitudeMeters>
            <DistanceMeters>NAN</DistanceMeters>
          </Trackpoint>
          <Trackpoint>
            <Time>2019-10-09T10:13:44.000Z</Time>
            <Position>
              <LatitudeDegrees>38.92602327279746532440185546875</LatitudeDegrees>
              <LongitudeDegrees>-6.348941959440708160400390625</LongitudeDegrees>
            </Position>
            <AltitudeMeters>190.600006103515625</AltitudeMeters>
            <DistanceMeters>NAN</DistanceMeters>
          </Trackpoint>
          <Trackpoint>
            <Time>2019-10-09T10:13:46.000Z</Time>
            <Position>
              <LatitudeDegrees>38.92591036856174468994140625</LatitudeDegrees>
              <LongitudeDegrees>-6.3488707132637500762939453125</LongitudeDegrees>
            </Position>
            <AltitudeMeters>191.600006103515625</AltitudeMeters>
            <DistanceMeters>NAN</DistanceMeters>
          </Trackpoint>
          <Trackpoint>
            <Time>2019-10-09T10:13:50.000Z</Time>
            <Position>
              <LatitudeDegrees>38.92565798945724964141845703125</LatitudeDegrees>
              <LongitudeDegrees>-6.3487818650901317596435546875</LongitudeDegrees>
            </Position>
            <AltitudeMeters>191</AltitudeMeters>
            <DistanceMeters>NAN</DistanceMeters>
          </Trackpoint>
          <Trackpoint>
            <Time>2019-10-09T10:13:52.000Z</Time>
            <Position>
              <LatitudeDegrees>38.925540558993816375732421875</LatitudeDegrees>
              <LongitudeDegrees>-6.34873584844172000885009765625</LongitudeDegrees>
            </Position>
            <AltitudeMeters>191</AltitudeMeters>
            <DistanceMeters>NAN</DistanceMeters>
          </Trackpoint>
          <Trackpoint>
            <Time>2019-10-09T10:13:53.000Z</Time>
            <Position>
              <LatitudeDegrees>38.92548833973705768585205078125</LatitudeDegrees>
              <LongitudeDegrees>-6.348713301122188568115234375</LongitudeDegrees>
            </Position>
            <AltitudeMeters>191.1999969482421875</AltitudeMeters>
            <DistanceMeters>NAN</DistanceMeters>
          </Trackpoint>
          <Trackpoint>
            <Time>2019-10-09T10:13:54.000Z</Time>
            <Position>
              <LatitudeDegrees>38.9254485256969928741455078125</LatitudeDegrees>
              <LongitudeDegrees>-6.34869427420198917388916015625</LongitudeDegrees>
            </Position>
            <AltitudeMeters>191.1999969482421875</AltitudeMeters>
            <DistanceMeters>NAN</DistanceMeters>
          </Trackpoint>
          <Trackpoint>
            <Time>2019-10-09T10:13:56.000Z</Time>
            <Position>
              <LatitudeDegrees>38.92537836916744709014892578125</LatitudeDegrees>
              <LongitudeDegrees>-6.34865932166576385498046875</LongitudeDegrees>
            </Position>
            <AltitudeMeters>191.8000030517578125</AltitudeMeters>
            <DistanceMeters>NAN</DistanceMeters>
          </Trackpoint>
          <Trackpoint>
            <Time>2019-10-09T10:14:01.000Z</Time>
            <Position>
              <LatitudeDegrees>38.92519916407763957977294921875</LatitudeDegrees>
              <LongitudeDegrees>-6.3485951162874698638916015625</LongitudeDegrees>
            </Position>
            <AltitudeMeters>191.399993896484375</AltitudeMeters>
            <DistanceMeters>NAN</DistanceMeters>
          </Trackpoint>
          <Trackpoint>
            <Time>2019-10-09T10:14:02.000Z</Time>
            <Position>
              <LatitudeDegrees>38.92516069114208221435546875</LatitudeDegrees>
              <LongitudeDegrees>-6.34862805716693401336669921875</LongitudeDegrees>
            </Position>
            <AltitudeMeters>191.1999969482421875</AltitudeMeters>
            <DistanceMeters>NAN</DistanceMeters>
          </Trackpoint>
          <Trackpoint>
            <Time>2019-10-09T10:14:04.000Z</Time>
            <Position>
              <LatitudeDegrees>38.9250954799354076385498046875</LatitudeDegrees>
              <LongitudeDegrees>-6.34870936162769794464111328125</LongitudeDegrees>
            </Position>
            <AltitudeMeters>190</AltitudeMeters>
            <DistanceMeters>NAN</DistanceMeters>
          </Trackpoint>
          <Trackpoint>
            <Time>2019-10-09T10:14:06.000Z</Time>
            <Position>
              <LatitudeDegrees>38.92501048743724822998046875</LatitudeDegrees>
              <LongitudeDegrees>-6.34877205826342105865478515625</LongitudeDegrees>
            </Position>
            <AltitudeMeters>189.8000030517578125</AltitudeMeters>
            <DistanceMeters>NAN</DistanceMeters>
          </Trackpoint>
          <Trackpoint>
            <Time>2019-10-09T10:14:07.000Z</Time>
            <Position>
              <LatitudeDegrees>38.92495877109467983245849609375</LatitudeDegrees>
              <LongitudeDegrees>-6.3487895764410495758056640625</LongitudeDegrees>
            </Position>
            <AltitudeMeters>189.399993896484375</AltitudeMeters>
            <DistanceMeters>NAN</DistanceMeters>
          </Trackpoint>
          <Trackpoint>
            <Time>2019-10-09T10:14:08.000Z</Time>
            <Position>
              <LatitudeDegrees>38.9249025285243988037109375</LatitudeDegrees>
              <LongitudeDegrees>-6.3488034904003143310546875</LongitudeDegrees>
            </Position>
            <AltitudeMeters>189</AltitudeMeters>
            <DistanceMeters>NAN</DistanceMeters>
          </Trackpoint>
          <Trackpoint>
            <Time>2019-10-09T10:14:09.000Z</Time>
            <Position>
              <LatitudeDegrees>38.9248570986092090606689453125</LatitudeDegrees>
              <LongitudeDegrees>-6.3488153927028179168701171875</LongitudeDegrees>
            </Position>
            <AltitudeMeters>189</AltitudeMeters>
            <DistanceMeters>NAN</DistanceMeters>
          </Trackpoint>
          <Trackpoint>
            <Time>2019-10-09T10:14:11.000Z</Time>
            <Position>
              <LatitudeDegrees>38.92476900480687618255615234375</LatitudeDegrees>
              <LongitudeDegrees>-6.3488432206213474273681640625</LongitudeDegrees>
            </Position>
            <AltitudeMeters>189.1999969482421875</AltitudeMeters>
            <DistanceMeters>NAN</DistanceMeters>
          </Trackpoint>
          <Trackpoint>
            <Time>2019-10-09T10:14:13.000Z</Time>
            <Position>
              <LatitudeDegrees>38.9246780611574649810791015625</LatitudeDegrees>
              <LongitudeDegrees>-6.34887046180665493011474609375</LongitudeDegrees>
            </Position>
            <AltitudeMeters>189.600006103515625</AltitudeMeters>
            <DistanceMeters>NAN</DistanceMeters>
          </Trackpoint>
          <Trackpoint>
            <Time>2019-10-09T10:14:14.000Z</Time>
            <Position>
              <LatitudeDegrees>38.924637325108051300048828125</LatitudeDegrees>
              <LongitudeDegrees>-6.3488841243088245391845703125</LongitudeDegrees>
            </Position>
            <AltitudeMeters>189.399993896484375</AltitudeMeters>
            <DistanceMeters>NAN</DistanceMeters>
          </Trackpoint>
          <Trackpoint>
            <Time>2019-10-09T10:14:15.000Z</Time>
            <Position>
              <LatitudeDegrees>38.9245895482599735260009765625</LatitudeDegrees>
              <LongitudeDegrees>-6.34890616871416568756103515625</LongitudeDegrees>
            </Position>
            <AltitudeMeters>189</AltitudeMeters>
            <DistanceMeters>NAN</DistanceMeters>
          </Trackpoint>
          <Trackpoint>
            <Time>2019-10-09T10:14:16.000Z</Time>
            <Position>
              <LatitudeDegrees>38.92455174587666988372802734375</LatitudeDegrees>
              <LongitudeDegrees>-6.34893885813653469085693359375</LongitudeDegrees>
            </Position>
            <AltitudeMeters>189</AltitudeMeters>
            <DistanceMeters>NAN</DistanceMeters>
          </Trackpoint>
          <Trackpoint>
            <Time>2019-10-09T10:14:18.000Z</Time>
            <Position>
              <LatitudeDegrees>38.92448008060455322265625</LatitudeDegrees>
              <LongitudeDegrees>-6.34900909848511219024658203125</LongitudeDegrees>
            </Position>
            <AltitudeMeters>188.600006103515625</AltitudeMeters>
            <DistanceMeters>NAN</DistanceMeters>
          </Trackpoint>
          <Trackpoint>
            <Time>2019-10-09T10:14:20.000Z</Time>
            <Position>
              <LatitudeDegrees>38.92439626157283782958984375</LatitudeDegrees>
              <LongitudeDegrees>-6.34905218146741390228271484375</LongitudeDegrees>
            </Position>
            <AltitudeMeters>187.600006103515625</AltitudeMeters>
            <DistanceMeters>NAN</DistanceMeters>
          </Trackpoint>
          <Trackpoint>
            <Time>2019-10-09T10:14:21.000Z</Time>
            <Position>
              <LatitudeDegrees>38.9243374206125736236572265625</LatitudeDegrees>
              <LongitudeDegrees>-6.34906156919896602630615234375</LongitudeDegrees>
            </Position>
            <AltitudeMeters>186.8000030517578125</AltitudeMeters>
            <DistanceMeters>NAN</DistanceMeters>
          </Trackpoint>
          <Trackpoint>
            <Time>2019-10-09T10:14:22.000Z</Time>
            <Position>
              <LatitudeDegrees>38.924287296831607818603515625</LatitudeDegrees>
              <LongitudeDegrees>-6.3490836136043071746826171875</LongitudeDegrees>
            </Position>
            <AltitudeMeters>186.399993896484375</AltitudeMeters>
            <DistanceMeters>NAN</DistanceMeters>
          </Trackpoint>
          <Trackpoint>
            <Time>2019-10-09T10:14:24.000Z</Time>
            <Position>
              <LatitudeDegrees>38.92419786192476749420166015625</LatitudeDegrees>
              <LongitudeDegrees>-6.3491521775722503662109375</LongitudeDegrees>
            </Position>
            <AltitudeMeters>186.1999969482421875</AltitudeMeters>
            <DistanceMeters>NAN</DistanceMeters>
          </Trackpoint>
          <Trackpoint>
            <Time>2019-10-09T10:14:25.000Z</Time>
            <Position>
              <LatitudeDegrees>38.92415662296116352081298828125</LatitudeDegrees>
              <LongitudeDegrees>-6.349207498133182525634765625</LongitudeDegrees>
            </Position>
            <AltitudeMeters>186</AltitudeMeters>
            <DistanceMeters>NAN</DistanceMeters>
          </Trackpoint>
          <Trackpoint>
            <Time>2019-10-09T10:14:27.000Z</Time>
            <Position>
              <LatitudeDegrees>38.92407733015716075897216796875</LatitudeDegrees>
              <LongitudeDegrees>-6.3493048958480358123779296875</LongitudeDegrees>
            </Position>
            <AltitudeMeters>186.1999969482421875</AltitudeMeters>
            <DistanceMeters>NAN</DistanceMeters>
          </Trackpoint>
          <Trackpoint>
            <Time>2019-10-09T10:14:30.000Z</Time>
            <Position>
              <LatitudeDegrees>38.92399954609572887420654296875</LatitudeDegrees>
              <LongitudeDegrees>-6.34946758858859539031982421875</LongitudeDegrees>
            </Position>
            <AltitudeMeters>186.1999969482421875</AltitudeMeters>
            <DistanceMeters>NAN</DistanceMeters>
          </Trackpoint>
          <Trackpoint>
            <Time>2019-10-09T10:14:31.000Z</Time>
            <Position>
              <LatitudeDegrees>38.923988230526447296142578125</LatitudeDegrees>
              <LongitudeDegrees>-6.34951628744602203369140625</LongitudeDegrees>
            </Position>
            <AltitudeMeters>186.1999969482421875</AltitudeMeters>
            <DistanceMeters>NAN</DistanceMeters>
          </Trackpoint>
          <Trackpoint>
            <Time>2019-10-09T10:14:34.000Z</Time>
            <Position>
              <LatitudeDegrees>38.92395478673279285430908203125</LatitudeDegrees>
              <LongitudeDegrees>-6.34963355027139186859130859375</LongitudeDegrees>
            </Position>
            <AltitudeMeters>186.1999969482421875</AltitudeMeters>
            <DistanceMeters>NAN</DistanceMeters>
          </Trackpoint>
          <Trackpoint>
            <Time>2019-10-09T10:14:37.000Z</Time>
            <Position>
              <LatitudeDegrees>38.9239525236189365386962890625</LatitudeDegrees>
              <LongitudeDegrees>-6.349642015993595123291015625</LongitudeDegrees>
            </Position>
            <AltitudeMeters>186.600006103515625</AltitudeMeters>
            <DistanceMeters>NAN</DistanceMeters>
          </Trackpoint>
          <Trackpoint>
            <Time>2019-10-09T10:14:43.000Z</Time>
            <Position>
              <LatitudeDegrees>38.923952020704746246337890625</LatitudeDegrees>
              <LongitudeDegrees>-6.3496401719748973846435546875</LongitudeDegrees>
            </Position>
            <AltitudeMeters>186.1999969482421875</AltitudeMeters>
            <DistanceMeters>NAN</DistanceMeters>
          </Trackpoint>
          <Trackpoint>
            <Time>2019-10-09T10:14:45.000Z</Time>
            <Position>
              <LatitudeDegrees>38.923952020704746246337890625</LatitudeDegrees>
              <LongitudeDegrees>-6.3496401719748973846435546875</LongitudeDegrees>
            </Position>
            <AltitudeMeters>186.399993896484375</AltitudeMeters>
            <DistanceMeters>NAN</DistanceMeters>
          </Trackpoint>
          <Trackpoint>
            <Time>2019-10-09T10:14:51.000Z</Time>
            <Position>
              <LatitudeDegrees>38.923952020704746246337890625</LatitudeDegrees>
              <LongitudeDegrees>-6.3496401719748973846435546875</LongitudeDegrees>
            </Position>
            <AltitudeMeters>186.1999969482421875</AltitudeMeters>
            <DistanceMeters>NAN</DistanceMeters>
          </Trackpoint>
          <Trackpoint>
            <Time>2019-10-09T10:14:54.000Z</Time>
            <Position>
              <LatitudeDegrees>38.923952020704746246337890625</LatitudeDegrees>
              <LongitudeDegrees>-6.3496401719748973846435546875</LongitudeDegrees>
            </Position>
            <AltitudeMeters>186.600006103515625</AltitudeMeters>
            <DistanceMeters>NAN</DistanceMeters>
          </Trackpoint>
          <Trackpoint>
            <Time>2019-10-09T10:14:57.000Z</Time>
            <Position>
              <LatitudeDegrees>38.923952020704746246337890625</LatitudeDegrees>
              <LongitudeDegrees>-6.3496401719748973846435546875</LongitudeDegrees>
            </Position>
            <AltitudeMeters>186.8000030517578125</AltitudeMeters>
            <DistanceMeters>NAN</DistanceMeters>
          </Trackpoint>
          <Trackpoint>
            <Time>2019-10-09T10:15:02.000Z</Time>
            <Position>
              <LatitudeDegrees>38.923952020704746246337890625</LatitudeDegrees>
              <LongitudeDegrees>-6.3496401719748973846435546875</LongitudeDegrees>
            </Position>
            <AltitudeMeters>186.600006103515625</AltitudeMeters>
            <DistanceMeters>NAN</DistanceMeters>
          </Trackpoint>
          <Trackpoint>
            <Time>2019-10-09T10:15:04.000Z</Time>
            <Position>
              <LatitudeDegrees>38.923952020704746246337890625</LatitudeDegrees>
              <LongitudeDegrees>-6.3496401719748973846435546875</LongitudeDegrees>
            </Position>
            <AltitudeMeters>186.600006103515625</AltitudeMeters>
            <DistanceMeters>NAN</DistanceMeters>
          </Trackpoint>
          <Trackpoint>
            <Time>2019-10-09T10:15:06.000Z</Time>
            <Position>
              <LatitudeDegrees>38.923952020704746246337890625</LatitudeDegrees>
              <LongitudeDegrees>-6.3496401719748973846435546875</LongitudeDegrees>
            </Position>
            <AltitudeMeters>186.600006103515625</AltitudeMeters>
            <DistanceMeters>NAN</DistanceMeters>
          </Trackpoint>
          <Trackpoint>
            <Time>2019-10-09T10:15:09.000Z</Time>
            <Position>
              <LatitudeDegrees>38.923952020704746246337890625</LatitudeDegrees>
              <LongitudeDegrees>-6.3496401719748973846435546875</LongitudeDegrees>
            </Position>
            <AltitudeMeters>186.600006103515625</AltitudeMeters>
            <DistanceMeters>NAN</DistanceMeters>
          </Trackpoint>
          <Trackpoint>
            <Time>2019-10-09T10:15:12.000Z</Time>
            <Position>
              <LatitudeDegrees>38.923952020704746246337890625</LatitudeDegrees>
              <LongitudeDegrees>-6.3496401719748973846435546875</LongitudeDegrees>
            </Position>
            <AltitudeMeters>186.600006103515625</AltitudeMeters>
            <DistanceMeters>NAN</DistanceMeters>
          </Trackpoint>
          <Trackpoint>
            <Time>2019-10-09T10:15:14.000Z</Time>
            <Position>
              <LatitudeDegrees>38.923952020704746246337890625</LatitudeDegrees>
              <LongitudeDegrees>-6.3496401719748973846435546875</LongitudeDegrees>
            </Position>
            <AltitudeMeters>186.600006103515625</AltitudeMeters>
            <DistanceMeters>NAN</DistanceMeters>
          </Trackpoint>
          <Trackpoint>
            <Time>2019-10-09T10:15:19.000Z</Time>
            <Position>
              <LatitudeDegrees>38.92395637929439544677734375</LatitudeDegrees>
              <LongitudeDegrees>-6.34964193217456340789794921875</LongitudeDegrees>
            </Position>
            <AltitudeMeters>186.600006103515625</AltitudeMeters>
            <DistanceMeters>NAN</DistanceMeters>
          </Trackpoint>
          <Trackpoint>
            <Time>2019-10-09T10:15:25.000Z</Time>
            <Position>
              <LatitudeDegrees>38.92395637929439544677734375</LatitudeDegrees>
              <LongitudeDegrees>-6.34964193217456340789794921875</LongitudeDegrees>
            </Position>
            <AltitudeMeters>186.399993896484375</AltitudeMeters>
            <DistanceMeters>NAN</DistanceMeters>
          </Trackpoint>
          <Trackpoint>
            <Time>2019-10-09T10:15:26.000Z</Time>
            <Position>
              <LatitudeDegrees>38.92395637929439544677734375</LatitudeDegrees>
              <LongitudeDegrees>-6.34964193217456340789794921875</LongitudeDegrees>
            </Position>
            <AltitudeMeters>186.399993896484375</AltitudeMeters>
            <DistanceMeters>NAN</DistanceMeters>
          </Trackpoint>
          <Trackpoint>
            <Time>2019-10-09T10:15:35.000Z</Time>
            <Position>
              <LatitudeDegrees>38.92395637929439544677734375</LatitudeDegrees>
              <LongitudeDegrees>-6.34964193217456340789794921875</LongitudeDegrees>
            </Position>
            <AltitudeMeters>186.399993896484375</AltitudeMeters>
            <DistanceMeters>NAN</DistanceMeters>
          </Trackpoint>
          <Trackpoint>
            <Time>2019-10-09T10:15:41.000Z</Time>
            <Position>
              <LatitudeDegrees>38.9239531941711902618408203125</LatitudeDegrees>
              <LongitudeDegrees>-6.34964813478291034698486328125</LongitudeDegrees>
            </Position>
            <AltitudeMeters>186.600006103515625</AltitudeMeters>
            <DistanceMeters>NAN</DistanceMeters>
          </Trackpoint>
          <Trackpoint>
            <Time>2019-10-09T10:15:43.000Z</Time>
            <Position>
              <LatitudeDegrees>38.92395637929439544677734375</LatitudeDegrees>
              <LongitudeDegrees>-6.34964193217456340789794921875</LongitudeDegrees>
            </Position>
            <AltitudeMeters>186.399993896484375</AltitudeMeters>
            <DistanceMeters>NAN</DistanceMeters>
          </Trackpoint>
          <Trackpoint>
            <Time>2019-10-09T10:15:45.000Z</Time>
            <Position>
              <LatitudeDegrees>38.92395637929439544677734375</LatitudeDegrees>
              <LongitudeDegrees>-6.34964193217456340789794921875</LongitudeDegrees>
            </Position>
            <AltitudeMeters>186.399993896484375</AltitudeMeters>
            <DistanceMeters>NAN</DistanceMeters>
          </Trackpoint>
          <Trackpoint>
            <Time>2019-10-09T10:15:48.000Z</Time>
            <Position>
              <LatitudeDegrees>38.92395596019923686981201171875</LatitudeDegrees>
              <LongitudeDegrees>-6.3496425189077854156494140625</LongitudeDegrees>
            </Position>
            <AltitudeMeters>186.399993896484375</AltitudeMeters>
            <DistanceMeters>NAN</DistanceMeters>
          </Trackpoint>
          <Trackpoint>
            <Time>2019-10-09T10:15:50.000Z</Time>
            <Position>
              <LatitudeDegrees>38.92394707538187503814697265625</LatitudeDegrees>
              <LongitudeDegrees>-6.34966355748474597930908203125</LongitudeDegrees>
            </Position>
            <AltitudeMeters>186.399993896484375</AltitudeMeters>
            <DistanceMeters>NAN</DistanceMeters>
          </Trackpoint>
          <Trackpoint>
            <Time>2019-10-09T10:15:55.000Z</Time>
            <Position>
              <LatitudeDegrees>38.92389946617186069488525390625</LatitudeDegrees>
              <LongitudeDegrees>-6.34982096962630748748779296875</LongitudeDegrees>
            </Position>
            <AltitudeMeters>186</AltitudeMeters>
            <DistanceMeters>NAN</DistanceMeters>
          </Trackpoint>
          <Trackpoint>
            <Time>2019-10-09T10:15:56.000Z</Time>
            <Position>
              <LatitudeDegrees>38.92388840205967426300048828125</LatitudeDegrees>
              <LongitudeDegrees>-6.3498577661812305450439453125</LongitudeDegrees>
            </Position>
            <AltitudeMeters>185.8000030517578125</AltitudeMeters>
            <DistanceMeters>NAN</DistanceMeters>
          </Trackpoint>
          <Trackpoint>
            <Time>2019-10-09T10:15:59.000Z</Time>
            <Position>
              <LatitudeDegrees>38.923866860568523406982421875</LatitudeDegrees>
              <LongitudeDegrees>-6.34996161796152591705322265625</LongitudeDegrees>
            </Position>
            <AltitudeMeters>185.600006103515625</AltitudeMeters>
            <DistanceMeters>NAN</DistanceMeters>
          </Trackpoint>
          <Trackpoint>
            <Time>2019-10-09T10:16:01.000Z</Time>
            <Position>
              <LatitudeDegrees>38.92386225052177906036376953125</LatitudeDegrees>
              <LongitudeDegrees>-6.35000755079090595245361328125</LongitudeDegrees>
            </Position>
            <AltitudeMeters>185.600006103515625</AltitudeMeters>
            <DistanceMeters>NAN</DistanceMeters>
          </Trackpoint>
          <Trackpoint>
            <Time>2019-10-09T10:16:03.000Z</Time>
            <Position>
              <LatitudeDegrees>38.92386258579790592193603515625</LatitudeDegrees>
              <LongitudeDegrees>-6.35002749972045421600341796875</LongitudeDegrees>
            </Position>
            <AltitudeMeters>185.8000030517578125</AltitudeMeters>
            <DistanceMeters>NAN</DistanceMeters>
          </Trackpoint>
          <Trackpoint>
            <Time>2019-10-09T10:16:06.000Z</Time>
            <Position>
              <LatitudeDegrees>38.92386040650308132171630859375</LatitudeDegrees>
              <LongitudeDegrees>-6.35003722272813320159912109375</LongitudeDegrees>
            </Position>
            <AltitudeMeters>186.399993896484375</AltitudeMeters>
            <DistanceMeters>NAN</DistanceMeters>
          </Trackpoint>
          <Trackpoint>
            <Time>2019-10-09T10:16:07.000Z</Time>
            <Position>
              <LatitudeDegrees>38.92386040650308132171630859375</LatitudeDegrees>
              <LongitudeDegrees>-6.35003722272813320159912109375</LongitudeDegrees>
            </Position>
            <AltitudeMeters>186</AltitudeMeters>
            <DistanceMeters>NAN</DistanceMeters>
          </Trackpoint>
          <Trackpoint>
            <Time>2019-10-09T10:16:08.000Z</Time>
            <Position>
              <LatitudeDegrees>38.92386040650308132171630859375</LatitudeDegrees>
              <LongitudeDegrees>-6.35003722272813320159912109375</LongitudeDegrees>
            </Position>
            <AltitudeMeters>186</AltitudeMeters>
            <DistanceMeters>NAN</DistanceMeters>
          </Trackpoint>
          <Trackpoint>
            <Time>2019-10-09T10:16:10.000Z</Time>
            <Position>
              <LatitudeDegrees>38.92386040650308132171630859375</LatitudeDegrees>
              <LongitudeDegrees>-6.35003722272813320159912109375</LongitudeDegrees>
            </Position>
            <AltitudeMeters>186.1999969482421875</AltitudeMeters>
            <DistanceMeters>NAN</DistanceMeters>
          </Trackpoint>
          <Trackpoint>
            <Time>2019-10-09T10:16:13.000Z</Time>
            <Position>
              <LatitudeDegrees>38.92386040650308132171630859375</LatitudeDegrees>
              <LongitudeDegrees>-6.35003722272813320159912109375</LongitudeDegrees>
            </Position>
            <AltitudeMeters>186</AltitudeMeters>
            <DistanceMeters>NAN</DistanceMeters>
          </Trackpoint>
          <Trackpoint>
            <Time>2019-10-09T10:16:16.000Z</Time>
            <Position>
              <LatitudeDegrees>38.92386040650308132171630859375</LatitudeDegrees>
              <LongitudeDegrees>-6.35003722272813320159912109375</LongitudeDegrees>
            </Position>
            <AltitudeMeters>185.8000030517578125</AltitudeMeters>
            <DistanceMeters>NAN</DistanceMeters>
          </Trackpoint>
          <Trackpoint>
            <Time>2019-10-09T10:16:20.000Z</Time>
            <Position>
              <LatitudeDegrees>38.92386040650308132171630859375</LatitudeDegrees>
              <LongitudeDegrees>-6.35003722272813320159912109375</LongitudeDegrees>
            </Position>
            <AltitudeMeters>185.600006103515625</AltitudeMeters>
            <DistanceMeters>NAN</DistanceMeters>
          </Trackpoint>
          <Trackpoint>
            <Time>2019-10-09T10:16:21.000Z</Time>
            <Position>
              <LatitudeDegrees>38.92386040650308132171630859375</LatitudeDegrees>
              <LongitudeDegrees>-6.35003722272813320159912109375</LongitudeDegrees>
            </Position>
            <AltitudeMeters>185.8000030517578125</AltitudeMeters>
            <DistanceMeters>NAN</DistanceMeters>
          </Trackpoint>
          <Trackpoint>
            <Time>2019-10-09T10:16:27.000Z</Time>
            <Position>
              <LatitudeDegrees>38.92386040650308132171630859375</LatitudeDegrees>
              <LongitudeDegrees>-6.35003722272813320159912109375</LongitudeDegrees>
            </Position>
            <AltitudeMeters>186</AltitudeMeters>
            <DistanceMeters>NAN</DistanceMeters>
          </Trackpoint>
          <Trackpoint>
            <Time>2019-10-09T10:16:33.000Z</Time>
            <Position>
              <LatitudeDegrees>38.92386040650308132171630859375</LatitudeDegrees>
              <LongitudeDegrees>-6.35003722272813320159912109375</LongitudeDegrees>
            </Position>
            <AltitudeMeters>185.8000030517578125</AltitudeMeters>
            <DistanceMeters>NAN</DistanceMeters>
          </Trackpoint>
          <Trackpoint>
            <Time>2019-10-09T10:16:37.000Z</Time>
            <Position>
              <LatitudeDegrees>38.92386040650308132171630859375</LatitudeDegrees>
              <LongitudeDegrees>-6.35003722272813320159912109375</LongitudeDegrees>
            </Position>
            <AltitudeMeters>185.8000030517578125</AltitudeMeters>
            <DistanceMeters>NAN</DistanceMeters>
          </Trackpoint>
          <Trackpoint>
            <Time>2019-10-09T10:16:41.000Z</Time>
            <Position>
              <LatitudeDegrees>38.92386040650308132171630859375</LatitudeDegrees>
              <LongitudeDegrees>-6.35003722272813320159912109375</LongitudeDegrees>
            </Position>
            <AltitudeMeters>185.8000030517578125</AltitudeMeters>
            <DistanceMeters>NAN</DistanceMeters>
          </Trackpoint>
          <Trackpoint>
            <Time>2019-10-09T10:16:43.000Z</Time>
            <Position>
              <LatitudeDegrees>38.92386107705533504486083984375</LatitudeDegrees>
              <LongitudeDegrees>-6.35003973729908466339111328125</LongitudeDegrees>
            </Position>
            <AltitudeMeters>185.8000030517578125</AltitudeMeters>
            <DistanceMeters>NAN</DistanceMeters>
          </Trackpoint>
          <Trackpoint>
            <Time>2019-10-09T10:16:45.000Z</Time>
            <Position>
              <LatitudeDegrees>38.92386107705533504486083984375</LatitudeDegrees>
              <LongitudeDegrees>-6.35003973729908466339111328125</LongitudeDegrees>
            </Position>
            <AltitudeMeters>185.8000030517578125</AltitudeMeters>
            <DistanceMeters>NAN</DistanceMeters>
          </Trackpoint>
          <Trackpoint>
            <Time>2019-10-09T10:16:46.000Z</Time>
            <Position>
              <LatitudeDegrees>38.92386107705533504486083984375</LatitudeDegrees>
              <LongitudeDegrees>-6.35003973729908466339111328125</LongitudeDegrees>
            </Position>
            <AltitudeMeters>185.8000030517578125</AltitudeMeters>
            <DistanceMeters>NAN</DistanceMeters>
          </Trackpoint>
          <Trackpoint>
            <Time>2019-10-09T10:16:48.000Z</Time>
            <Position>
              <LatitudeDegrees>38.92386107705533504486083984375</LatitudeDegrees>
              <LongitudeDegrees>-6.35003973729908466339111328125</LongitudeDegrees>
            </Position>
            <AltitudeMeters>186</AltitudeMeters>
            <DistanceMeters>NAN</DistanceMeters>
          </Trackpoint>
          <Trackpoint>
            <Time>2019-10-09T10:17:01.000Z</Time>
            <Position>
              <LatitudeDegrees>38.92386107705533504486083984375</LatitudeDegrees>
              <LongitudeDegrees>-6.35003973729908466339111328125</LongitudeDegrees>
            </Position>
            <AltitudeMeters>186</AltitudeMeters>
            <DistanceMeters>NAN</DistanceMeters>
          </Trackpoint>
          <Trackpoint>
            <Time>2019-10-09T10:17:10.000Z</Time>
            <Position>
              <LatitudeDegrees>38.92386107705533504486083984375</LatitudeDegrees>
              <LongitudeDegrees>-6.35003973729908466339111328125</LongitudeDegrees>
            </Position>
            <AltitudeMeters>185.8000030517578125</AltitudeMeters>
            <DistanceMeters>NAN</DistanceMeters>
          </Trackpoint>
          <Trackpoint>
            <Time>2019-10-09T10:17:15.000Z</Time>
            <Position>
              <LatitudeDegrees>38.92386107705533504486083984375</LatitudeDegrees>
              <LongitudeDegrees>-6.35003973729908466339111328125</LongitudeDegrees>
            </Position>
            <AltitudeMeters>185.8000030517578125</AltitudeMeters>
            <DistanceMeters>NAN</DistanceMeters>
          </Trackpoint>
          <Trackpoint>
            <Time>2019-10-09T10:17:18.000Z</Time>
            <Position>
              <LatitudeDegrees>38.92386107705533504486083984375</LatitudeDegrees>
              <LongitudeDegrees>-6.35003973729908466339111328125</LongitudeDegrees>
            </Position>
            <AltitudeMeters>186</AltitudeMeters>
            <DistanceMeters>NAN</DistanceMeters>
          </Trackpoint>
          <Trackpoint>
            <Time>2019-10-09T10:17:20.000Z</Time>
            <Position>
              <LatitudeDegrees>38.92386107705533504486083984375</LatitudeDegrees>
              <LongitudeDegrees>-6.35003973729908466339111328125</LongitudeDegrees>
            </Position>
            <AltitudeMeters>185.8000030517578125</AltitudeMeters>
            <DistanceMeters>NAN</DistanceMeters>
          </Trackpoint>
          <Trackpoint>
            <Time>2019-10-09T10:17:25.000Z</Time>
            <Position>
              <LatitudeDegrees>38.92386409454047679901123046875</LatitudeDegrees>
              <LongitudeDegrees>-6.35004208423197269439697265625</LongitudeDegrees>
            </Position>
            <AltitudeMeters>185.8000030517578125</AltitudeMeters>
            <DistanceMeters>NAN</DistanceMeters>
          </Trackpoint>
          <Trackpoint>
            <Time>2019-10-09T10:17:27.000Z</Time>
            <Position>
              <LatitudeDegrees>38.92386409454047679901123046875</LatitudeDegrees>
              <LongitudeDegrees>-6.35004208423197269439697265625</LongitudeDegrees>
            </Position>
            <AltitudeMeters>185.600006103515625</AltitudeMeters>
            <DistanceMeters>NAN</DistanceMeters>
          </Trackpoint>
          <Trackpoint>
            <Time>2019-10-09T10:17:37.000Z</Time>
            <Position>
              <LatitudeDegrees>38.92386409454047679901123046875</LatitudeDegrees>
              <LongitudeDegrees>-6.35004208423197269439697265625</LongitudeDegrees>
            </Position>
            <AltitudeMeters>186</AltitudeMeters>
            <DistanceMeters>NAN</DistanceMeters>
          </Trackpoint>
          <Trackpoint>
            <Time>2019-10-09T10:17:51.000Z</Time>
            <Position>
              <LatitudeDegrees>38.92386409454047679901123046875</LatitudeDegrees>
              <LongitudeDegrees>-6.35004208423197269439697265625</LongitudeDegrees>
            </Position>
            <AltitudeMeters>186</AltitudeMeters>
            <DistanceMeters>NAN</DistanceMeters>
          </Trackpoint>
          <Trackpoint>
            <Time>2019-10-09T10:17:59.000Z</Time>
            <Position>
              <LatitudeDegrees>38.92386409454047679901123046875</LatitudeDegrees>
              <LongitudeDegrees>-6.35004208423197269439697265625</LongitudeDegrees>
            </Position>
            <AltitudeMeters>185.8000030517578125</AltitudeMeters>
            <DistanceMeters>NAN</DistanceMeters>
          </Trackpoint>
          <Trackpoint>
            <Time>2019-10-09T10:18:06.000Z</Time>
            <Position>
              <LatitudeDegrees>38.9238576404750347137451171875</LatitudeDegrees>
              <LongitudeDegrees>-6.35004468262195587158203125</LongitudeDegrees>
            </Position>
            <AltitudeMeters>186</AltitudeMeters>
            <DistanceMeters>NAN</DistanceMeters>
          </Trackpoint>
          <Trackpoint>
            <Time>2019-10-09T10:18:16.000Z</Time>
            <Position>
              <LatitudeDegrees>38.9238576404750347137451171875</LatitudeDegrees>
              <LongitudeDegrees>-6.35004468262195587158203125</LongitudeDegrees>
            </Position>
            <AltitudeMeters>186.1999969482421875</AltitudeMeters>
            <DistanceMeters>NAN</DistanceMeters>
          </Trackpoint>
          <Trackpoint>
            <Time>2019-10-09T10:18:20.000Z</Time>
            <Position>
              <LatitudeDegrees>38.92385688610374927520751953125</LatitudeDegrees>
              <LongitudeDegrees>-6.35004661045968532562255859375</LongitudeDegrees>
            </Position>
            <AltitudeMeters>186</AltitudeMeters>
            <DistanceMeters>NAN</DistanceMeters>
          </Trackpoint>
          <Trackpoint>
            <Time>2019-10-09T10:18:22.000Z</Time>
            <Position>
              <LatitudeDegrees>38.923839032649993896484375</LatitudeDegrees>
              <LongitudeDegrees>-6.35009254328906536102294921875</LongitudeDegrees>
            </Position>
            <AltitudeMeters>186</AltitudeMeters>
            <DistanceMeters>NAN</DistanceMeters>
          </Trackpoint>
          <Trackpoint>
            <Time>2019-10-09T10:18:25.000Z</Time>
            <Position>
              <LatitudeDegrees>38.92382235266268253326416015625</LatitudeDegrees>
              <LongitudeDegrees>-6.3501678965985774993896484375</LongitudeDegrees>
            </Position>
            <AltitudeMeters>185.600006103515625</AltitudeMeters>
            <DistanceMeters>NAN</DistanceMeters>
          </Trackpoint>
          <Trackpoint>
            <Time>2019-10-09T10:18:27.000Z</Time>
            <Position>
              <LatitudeDegrees>38.92380843870341777801513671875</LatitudeDegrees>
              <LongitudeDegrees>-6.35023939423263072967529296875</LongitudeDegrees>
            </Position>
            <AltitudeMeters>185.600006103515625</AltitudeMeters>
            <DistanceMeters>NAN</DistanceMeters>
          </Trackpoint>
          <Trackpoint>
            <Time>2019-10-09T10:18:28.000Z</Time>
            <Position>
              <LatitudeDegrees>38.923802487552165985107421875</LatitudeDegrees>
              <LongitudeDegrees>-6.3502842374145984649658203125</LongitudeDegrees>
            </Position>
            <AltitudeMeters>185.399993896484375</AltitudeMeters>
            <DistanceMeters>NAN</DistanceMeters>
          </Trackpoint>
          <Trackpoint>
            <Time>2019-10-09T10:18:30.000Z</Time>
            <Position>
              <LatitudeDegrees>38.92377541400492191314697265625</LatitudeDegrees>
              <LongitudeDegrees>-6.3503999076783657073974609375</LongitudeDegrees>
            </Position>
            <AltitudeMeters>184.8000030517578125</AltitudeMeters>
            <DistanceMeters>NAN</DistanceMeters>
          </Trackpoint>
          <Trackpoint>
            <Time>2019-10-09T10:18:32.000Z</Time>
            <Position>
              <LatitudeDegrees>38.9237597398459911346435546875</LatitudeDegrees>
              <LongitudeDegrees>-6.35050409473478794097900390625</LongitudeDegrees>
            </Position>
            <AltitudeMeters>184.600006103515625</AltitudeMeters>
            <DistanceMeters>NAN</DistanceMeters>
          </Trackpoint>
          <Trackpoint>
            <Time>2019-10-09T10:18:33.000Z</Time>
            <Position>
              <LatitudeDegrees>38.9237516932189464569091796875</LatitudeDegrees>
              <LongitudeDegrees>-6.35055572725832462310791015625</LongitudeDegrees>
            </Position>
            <AltitudeMeters>184.399993896484375</AltitudeMeters>
            <DistanceMeters>NAN</DistanceMeters>
          </Trackpoint>
          <Trackpoint>
            <Time>2019-10-09T10:18:34.000Z</Time>
            <Position>
              <LatitudeDegrees>38.92374515533447265625</LatitudeDegrees>
              <LongitudeDegrees>-6.3505990616977214813232421875</LongitudeDegrees>
            </Position>
            <AltitudeMeters>184.1999969482421875</AltitudeMeters>
            <DistanceMeters>NAN</DistanceMeters>
          </Trackpoint>
          <Trackpoint>
            <Time>2019-10-09T10:18:35.000Z</Time>
            <Position>
              <LatitudeDegrees>38.92373903654515743255615234375</LatitudeDegrees>
              <LongitudeDegrees>-6.3506433181464672088623046875</LongitudeDegrees>
            </Position>
            <AltitudeMeters>184.399993896484375</AltitudeMeters>
            <DistanceMeters>NAN</DistanceMeters>
          </Trackpoint>
          <Trackpoint>
            <Time>2019-10-09T10:18:38.000Z</Time>
            <Position>
              <LatitudeDegrees>38.9237164892256259918212890625</LatitudeDegrees>
              <LongitudeDegrees>-6.35079578496515750885009765625</LongitudeDegrees>
            </Position>
            <AltitudeMeters>184.399993896484375</AltitudeMeters>
            <DistanceMeters>NAN</DistanceMeters>
          </Trackpoint>
          <Trackpoint>
            <Time>2019-10-09T10:18:40.000Z</Time>
            <Position>
              <LatitudeDegrees>38.92370425164699554443359375</LatitudeDegrees>
              <LongitudeDegrees>-6.35089921765029430389404296875</LongitudeDegrees>
            </Position>
            <AltitudeMeters>184.8000030517578125</AltitudeMeters>
            <DistanceMeters>NAN</DistanceMeters>
          </Trackpoint>
          <Trackpoint>
            <Time>2019-10-09T10:18:41.000Z</Time>
            <Position>
              <LatitudeDegrees>38.92369695939123630523681640625</LatitudeDegrees>
              <LongitudeDegrees>-6.35094992816448211669921875</LongitudeDegrees>
            </Position>
            <AltitudeMeters>184.8000030517578125</AltitudeMeters>
            <DistanceMeters>NAN</DistanceMeters>
          </Trackpoint>
          <Trackpoint>
            <Time>2019-10-09T10:18:43.000Z</Time>
            <Position>
              <LatitudeDegrees>38.92368614673614501953125</LatitudeDegrees>
              <LongitudeDegrees>-6.35105579160153865814208984375</LongitudeDegrees>
            </Position>
            <AltitudeMeters>185</AltitudeMeters>
            <DistanceMeters>NAN</DistanceMeters>
          </Trackpoint>
          <Trackpoint>
            <Time>2019-10-09T10:18:45.000Z</Time>
            <Position>
              <LatitudeDegrees>38.92367868684232234954833984375</LatitudeDegrees>
              <LongitudeDegrees>-6.3511683605611324310302734375</LongitudeDegrees>
            </Position>
            <AltitudeMeters>185.1999969482421875</AltitudeMeters>
            <DistanceMeters>NAN</DistanceMeters>
          </Trackpoint>
          <Trackpoint>
            <Time>2019-10-09T10:18:46.000Z</Time>
            <Position>
              <LatitudeDegrees>38.92367474734783172607421875</LatitudeDegrees>
              <LongitudeDegrees>-6.35122627951204776763916015625</LongitudeDegrees>
            </Position>
            <AltitudeMeters>185</AltitudeMeters>
            <DistanceMeters>NAN</DistanceMeters>
          </Trackpoint>
          <Trackpoint>
            <Time>2019-10-09T10:18:47.000Z</Time>
            <Position>
              <LatitudeDegrees>38.9236702211201190948486328125</LatitudeDegrees>
              <LongitudeDegrees>-6.35127958841621875762939453125</LongitudeDegrees>
            </Position>
            <AltitudeMeters>185.1999969482421875</AltitudeMeters>
            <DistanceMeters>NAN</DistanceMeters>
          </Trackpoint>
          <Trackpoint>
            <Time>2019-10-09T10:18:48.000Z</Time>
            <Position>
              <LatitudeDegrees>38.92366946674883365631103515625</LatitudeDegrees>
              <LongitudeDegrees>-6.351334489881992340087890625</LongitudeDegrees>
            </Position>
            <AltitudeMeters>185.399993896484375</AltitudeMeters>
            <DistanceMeters>NAN</DistanceMeters>
          </Trackpoint>
          <Trackpoint>
            <Time>2019-10-09T10:18:51.000Z</Time>
            <Position>
              <LatitudeDegrees>38.9236740767955780029296875</LatitudeDegrees>
              <LongitudeDegrees>-6.35149768553674221038818359375</LongitudeDegrees>
            </Position>
            <AltitudeMeters>185.8000030517578125</AltitudeMeters>
            <DistanceMeters>NAN</DistanceMeters>
          </Trackpoint>
          <Trackpoint>
            <Time>2019-10-09T10:18:52.000Z</Time>
            <Position>
              <LatitudeDegrees>38.92367751337587833404541015625</LatitudeDegrees>
              <LongitudeDegrees>-6.3515525870025157928466796875</LongitudeDegrees>
            </Position>
            <AltitudeMeters>186</AltitudeMeters>
            <DistanceMeters>NAN</DistanceMeters>
          </Trackpoint>
          <Trackpoint>
            <Time>2019-10-09T10:18:54.000Z</Time>
            <Position>
              <LatitudeDegrees>38.9236822910606861114501953125</LatitudeDegrees>
              <LongitudeDegrees>-6.35166331194341182708740234375</LongitudeDegrees>
            </Position>
            <AltitudeMeters>186.1999969482421875</AltitudeMeters>
            <DistanceMeters>NAN</DistanceMeters>
          </Trackpoint>
          <Trackpoint>
            <Time>2019-10-09T10:18:55.000Z</Time>
            <Position>
              <LatitudeDegrees>38.92368438653647899627685546875</LatitudeDegrees>
              <LongitudeDegrees>-6.35171779431402683258056640625</LongitudeDegrees>
            </Position>
            <AltitudeMeters>186.399993896484375</AltitudeMeters>
            <DistanceMeters>NAN</DistanceMeters>
          </Trackpoint>
          <Trackpoint>
            <Time>2019-10-09T10:18:59.000Z</Time>
            <Position>
              <LatitudeDegrees>38.9237000606954097747802734375</LatitudeDegrees>
              <LongitudeDegrees>-6.35193471796810626983642578125</LongitudeDegrees>
            </Position>
            <AltitudeMeters>186.399993896484375</AltitudeMeters>
            <DistanceMeters>NAN</DistanceMeters>
          </Trackpoint>
          <Trackpoint>
            <Time>2019-10-09T10:19:00.000Z</Time>
            <Position>
              <LatitudeDegrees>38.92370902933180332183837890625</LatitudeDegrees>
              <LongitudeDegrees>-6.3519803993403911590576171875</LongitudeDegrees>
            </Position>
            <AltitudeMeters>186.600006103515625</AltitudeMeters>
            <DistanceMeters>NAN</DistanceMeters>
          </Trackpoint>
          <Trackpoint>
            <Time>2019-10-09T10:19:03.000Z</Time>
            <Position>
              <LatitudeDegrees>38.92375764437019824981689453125</LatitudeDegrees>
              <LongitudeDegrees>-6.35208659805357456207275390625</LongitudeDegrees>
            </Position>
            <AltitudeMeters>187</AltitudeMeters>
            <DistanceMeters>NAN</DistanceMeters>
          </Trackpoint>
          <Trackpoint>
            <Time>2019-10-09T10:19:06.000Z</Time>
            <Position>
              <LatitudeDegrees>38.92388169653713703155517578125</LatitudeDegrees>
              <LongitudeDegrees>-6.3521321117877960205078125</LongitudeDegrees>
            </Position>
            <AltitudeMeters>186.8000030517578125</AltitudeMeters>
            <DistanceMeters>NAN</DistanceMeters>
          </Trackpoint>
          <Trackpoint>
            <Time>2019-10-09T10:19:09.000Z</Time>
            <Position>
              <LatitudeDegrees>38.92397582530975341796875</LatitudeDegrees>
              <LongitudeDegrees>-6.3522593490779399871826171875</LongitudeDegrees>
            </Position>
            <AltitudeMeters>186.8000030517578125</AltitudeMeters>
            <DistanceMeters>NAN</DistanceMeters>
          </Trackpoint>
          <Trackpoint>
            <Time>2019-10-09T10:19:13.000Z</Time>
            <Position>
              <LatitudeDegrees>38.92398781143128871917724609375</LatitudeDegrees>
              <LongitudeDegrees>-6.35250552557408809661865234375</LongitudeDegrees>
            </Position>
            <AltitudeMeters>186.600006103515625</AltitudeMeters>
            <DistanceMeters>NAN</DistanceMeters>
          </Trackpoint>
          <Trackpoint>
            <Time>2019-10-09T10:19:15.000Z</Time>
            <Position>
              <LatitudeDegrees>38.92399217002093791961669921875</LatitudeDegrees>
              <LongitudeDegrees>-6.35262706317007541656494140625</LongitudeDegrees>
            </Position>
            <AltitudeMeters>186.8000030517578125</AltitudeMeters>
            <DistanceMeters>NAN</DistanceMeters>
          </Trackpoint>
          <Trackpoint>
            <Time>2019-10-09T10:19:16.000Z</Time>
            <Position>
              <LatitudeDegrees>38.92399066127836704254150390625</LatitudeDegrees>
              <LongitudeDegrees>-6.352689005434513092041015625</LongitudeDegrees>
            </Position>
            <AltitudeMeters>186.8000030517578125</AltitudeMeters>
            <DistanceMeters>NAN</DistanceMeters>
          </Trackpoint>
          <Trackpoint>
            <Time>2019-10-09T10:19:18.000Z</Time>
            <Position>
              <LatitudeDegrees>38.92397917807102203369140625</LatitudeDegrees>
              <LongitudeDegrees>-6.352811045944690704345703125</LongitudeDegrees>
            </Position>
            <AltitudeMeters>187.399993896484375</AltitudeMeters>
            <DistanceMeters>NAN</DistanceMeters>
          </Trackpoint>
          <Trackpoint>
            <Time>2019-10-09T10:19:19.000Z</Time>
            <Position>
              <LatitudeDegrees>38.92397540621459484100341796875</LatitudeDegrees>
              <LongitudeDegrees>-6.35287332348525524139404296875</LongitudeDegrees>
            </Position>
            <AltitudeMeters>187.399993896484375</AltitudeMeters>
            <DistanceMeters>NAN</DistanceMeters>
          </Trackpoint>
          <Trackpoint>
            <Time>2019-10-09T10:19:20.000Z</Time>
            <Position>
              <LatitudeDegrees>38.9239763282239437103271484375</LatitudeDegrees>
              <LongitudeDegrees>-6.352937109768390655517578125</LongitudeDegrees>
            </Position>
            <AltitudeMeters>186.600006103515625</AltitudeMeters>
            <DistanceMeters>NAN</DistanceMeters>
          </Trackpoint>
          <Trackpoint>
            <Time>2019-10-09T10:19:23.000Z</Time>
            <Position>
              <LatitudeDegrees>38.92401161603629589080810546875</LatitudeDegrees>
              <LongitudeDegrees>-6.35311656631529331207275390625</LongitudeDegrees>
            </Position>
            <AltitudeMeters>186.8000030517578125</AltitudeMeters>
            <DistanceMeters>NAN</DistanceMeters>
          </Trackpoint>
          <Trackpoint>
            <Time>2019-10-09T10:19:25.000Z</Time>
            <Position>
              <LatitudeDegrees>38.92404916696250438690185546875</LatitudeDegrees>
              <LongitudeDegrees>-6.3532350026071071624755859375</LongitudeDegrees>
            </Position>
            <AltitudeMeters>186.600006103515625</AltitudeMeters>
            <DistanceMeters>NAN</DistanceMeters>
          </Trackpoint>
          <Trackpoint>
            <Time>2019-10-09T10:19:29.000Z</Time>
            <Position>
              <LatitudeDegrees>38.92412745393812656402587890625</LatitudeDegrees>
              <LongitudeDegrees>-6.3534787483513355255126953125</LongitudeDegrees>
            </Position>
            <AltitudeMeters>186.8000030517578125</AltitudeMeters>
            <DistanceMeters>NAN</DistanceMeters>
          </Trackpoint>
          <Trackpoint>
            <Time>2019-10-09T10:19:35.000Z</Time>
            <Position>
              <LatitudeDegrees>38.924248404800891876220703125</LatitudeDegrees>
              <LongitudeDegrees>-6.35384880937635898590087890625</LongitudeDegrees>
            </Position>
            <AltitudeMeters>186.1999969482421875</AltitudeMeters>
            <DistanceMeters>NAN</DistanceMeters>
          </Trackpoint>
          <Trackpoint>
            <Time>2019-10-09T10:19:38.000Z</Time>
            <Position>
              <LatitudeDegrees>38.924305401742458343505859375</LatitudeDegrees>
              <LongitudeDegrees>-6.3540366478264331817626953125</LongitudeDegrees>
            </Position>
            <AltitudeMeters>185.8000030517578125</AltitudeMeters>
            <DistanceMeters>NAN</DistanceMeters>
          </Trackpoint>
          <Trackpoint>
            <Time>2019-10-09T10:19:44.000Z</Time>
            <Position>
              <LatitudeDegrees>38.9244232513010501861572265625</LatitudeDegrees>
              <LongitudeDegrees>-6.35442011989653110504150390625</LongitudeDegrees>
            </Position>
            <AltitudeMeters>185</AltitudeMeters>
            <DistanceMeters>NAN</DistanceMeters>
          </Trackpoint>
          <Trackpoint>
            <Time>2019-10-09T10:19:47.000Z</Time>
            <Position>
              <LatitudeDegrees>38.92448418773710727691650390625</LatitudeDegrees>
              <LongitudeDegrees>-6.3546185195446014404296875</LongitudeDegrees>
            </Position>
            <AltitudeMeters>184.8000030517578125</AltitudeMeters>
            <DistanceMeters>NAN</DistanceMeters>
          </Trackpoint>
          <Trackpoint>
            <Time>2019-10-09T10:19:49.000Z</Time>
            <Position>
              <LatitudeDegrees>38.92453079111874103546142578125</LatitudeDegrees>
              <LongitudeDegrees>-6.3547499477863311767578125</LongitudeDegrees>
            </Position>
            <AltitudeMeters>184.399993896484375</AltitudeMeters>
            <DistanceMeters>NAN</DistanceMeters>
          </Trackpoint>
          <Trackpoint>
            <Time>2019-10-09T10:19:51.000Z</Time>
            <Position>
              <LatitudeDegrees>38.924585692584514617919921875</LatitudeDegrees>
              <LongitudeDegrees>-6.35488028638064861297607421875</LongitudeDegrees>
            </Position>
            <AltitudeMeters>183.8000030517578125</AltitudeMeters>
            <DistanceMeters>NAN</DistanceMeters>
          </Trackpoint>
          <Trackpoint>
            <Time>2019-10-09T10:19:52.000Z</Time>
            <Position>
              <LatitudeDegrees>38.92461896874010562896728515625</LatitudeDegrees>
              <LongitudeDegrees>-6.35493929497897624969482421875</LongitudeDegrees>
            </Position>
            <AltitudeMeters>184</AltitudeMeters>
            <DistanceMeters>NAN</DistanceMeters>
          </Trackpoint>
          <Trackpoint>
            <Time>2019-10-09T10:19:53.000Z</Time>
            <Position>
              <LatitudeDegrees>38.9246619679033756256103515625</LatitudeDegrees>
              <LongitudeDegrees>-6.3549859821796417236328125</LongitudeDegrees>
            </Position>
            <AltitudeMeters>184</AltitudeMeters>
            <DistanceMeters>NAN</DistanceMeters>
          </Trackpoint>
          <Trackpoint>
            <Time>2019-10-09T10:19:56.000Z</Time>
            <Position>
              <LatitudeDegrees>38.92479197122156620025634765625</LatitudeDegrees>
              <LongitudeDegrees>-6.35511405766010284423828125</LongitudeDegrees>
            </Position>
            <AltitudeMeters>184.600006103515625</AltitudeMeters>
            <DistanceMeters>NAN</DistanceMeters>
          </Trackpoint>
          <Trackpoint>
            <Time>2019-10-09T10:19:58.000Z</Time>
            <Position>
              <LatitudeDegrees>38.92484846524894237518310546875</LatitudeDegrees>
              <LongitudeDegrees>-6.3552268780767917633056640625</LongitudeDegrees>
            </Position>
            <AltitudeMeters>184.399993896484375</AltitudeMeters>
            <DistanceMeters>NAN</DistanceMeters>
          </Trackpoint>
          <Trackpoint>
            <Time>2019-10-09T10:20:01.000Z</Time>
            <Position>
              <LatitudeDegrees>38.9248121716082096099853515625</LatitudeDegrees>
              <LongitudeDegrees>-6.3554126210510730743408203125</LongitudeDegrees>
            </Position>
            <AltitudeMeters>183.600006103515625</AltitudeMeters>
            <DistanceMeters>NAN</DistanceMeters>
          </Trackpoint>
          <Trackpoint>
            <Time>2019-10-09T10:20:04.000Z</Time>
            <Position>
              <LatitudeDegrees>38.92467814497649669647216796875</LatitudeDegrees>
              <LongitudeDegrees>-6.35548763908445835113525390625</LongitudeDegrees>
            </Position>
            <AltitudeMeters>184.399993896484375</AltitudeMeters>
            <DistanceMeters>NAN</DistanceMeters>
          </Trackpoint>
          <Trackpoint>
            <Time>2019-10-09T10:20:07.000Z</Time>
            <Position>
              <LatitudeDegrees>38.9245270192623138427734375</LatitudeDegrees>
              <LongitudeDegrees>-6.35543231852352619171142578125</LongitudeDegrees>
            </Position>
            <AltitudeMeters>184.8000030517578125</AltitudeMeters>
            <DistanceMeters>NAN</DistanceMeters>
          </Trackpoint>
          <Trackpoint>
            <Time>2019-10-09T10:20:08.000Z</Time>
            <Position>
              <LatitudeDegrees>38.924475722014904022216796875</LatitudeDegrees>
              <LongitudeDegrees>-6.35540775954723358154296875</LongitudeDegrees>
            </Position>
            <AltitudeMeters>184.8000030517578125</AltitudeMeters>
            <DistanceMeters>NAN</DistanceMeters>
          </Trackpoint>
          <Trackpoint>
            <Time>2019-10-09T10:20:10.000Z</Time>
            <Position>
              <LatitudeDegrees>38.92437212169170379638671875</LatitudeDegrees>
              <LongitudeDegrees>-6.35536752641201019287109375</LongitudeDegrees>
            </Position>
            <AltitudeMeters>184.600006103515625</AltitudeMeters>
            <DistanceMeters>NAN</DistanceMeters>
          </Trackpoint>
          <Trackpoint>
            <Time>2019-10-09T10:20:14.000Z</Time>
            <Position>
              <LatitudeDegrees>38.92415821552276611328125</LatitudeDegrees>
              <LongitudeDegrees>-6.35531513951718807220458984375</LongitudeDegrees>
            </Position>
            <AltitudeMeters>184.8000030517578125</AltitudeMeters>
            <DistanceMeters>NAN</DistanceMeters>
          </Trackpoint>
          <Trackpoint>
            <Time>2019-10-09T10:20:19.000Z</Time>
            <Position>
              <LatitudeDegrees>38.92389737069606781005859375</LatitudeDegrees>
              <LongitudeDegrees>-6.35523500852286815643310546875</LongitudeDegrees>
            </Position>
            <AltitudeMeters>185.1999969482421875</AltitudeMeters>
            <DistanceMeters>NAN</DistanceMeters>
          </Trackpoint>
          <Trackpoint>
            <Time>2019-10-09T10:20:23.000Z</Time>
            <Position>
              <LatitudeDegrees>38.92369545064866542816162109375</LatitudeDegrees>
              <LongitudeDegrees>-6.35516124777495861053466796875</LongitudeDegrees>
            </Position>
            <AltitudeMeters>185.399993896484375</AltitudeMeters>
            <DistanceMeters>NAN</DistanceMeters>
          </Trackpoint>
          <Trackpoint>
            <Time>2019-10-09T10:20:28.000Z</Time>
            <Position>
              <LatitudeDegrees>38.923445083200931549072265625</LatitudeDegrees>
              <LongitudeDegrees>-6.35507650673389434814453125</LongitudeDegrees>
            </Position>
            <AltitudeMeters>185.8000030517578125</AltitudeMeters>
            <DistanceMeters>NAN</DistanceMeters>
          </Trackpoint>
          <Trackpoint>
            <Time>2019-10-09T10:20:31.000Z</Time>
            <Position>
              <LatitudeDegrees>38.9233004115521907806396484375</LatitudeDegrees>
              <LongitudeDegrees>-6.35502646677196025848388671875</LongitudeDegrees>
            </Position>
            <AltitudeMeters>186</AltitudeMeters>
            <DistanceMeters>NAN</DistanceMeters>
          </Trackpoint>
          <Trackpoint>
            <Time>2019-10-09T10:20:37.000Z</Time>
            <Position>
              <LatitudeDegrees>38.9230171032249927520751953125</LatitudeDegrees>
              <LongitudeDegrees>-6.35491691529750823974609375</LongitudeDegrees>
            </Position>
            <AltitudeMeters>186</AltitudeMeters>
            <DistanceMeters>NAN</DistanceMeters>
          </Trackpoint>
          <Trackpoint>
            <Time>2019-10-09T10:20:38.000Z</Time>
            <Position>
              <LatitudeDegrees>38.92297242768108844757080078125</LatitudeDegrees>
              <LongitudeDegrees>-6.35489813983440399169921875</LongitudeDegrees>
            </Position>
            <AltitudeMeters>186</AltitudeMeters>
            <DistanceMeters>NAN</DistanceMeters>
          </Trackpoint>
          <Trackpoint>
            <Time>2019-10-09T10:20:39.000Z</Time>
            <Position>
              <LatitudeDegrees>38.92292632721364498138427734375</LatitudeDegrees>
              <LongitudeDegrees>-6.3548734970390796661376953125</LongitudeDegrees>
            </Position>
            <AltitudeMeters>185.8000030517578125</AltitudeMeters>
            <DistanceMeters>NAN</DistanceMeters>
          </Trackpoint>
          <Trackpoint>
            <Time>2019-10-09T10:20:41.000Z</Time>
            <Position>
              <LatitudeDegrees>38.92283043824136257171630859375</LatitudeDegrees>
              <LongitudeDegrees>-6.35481742210686206817626953125</LongitudeDegrees>
            </Position>
            <AltitudeMeters>185.600006103515625</AltitudeMeters>
            <DistanceMeters>NAN</DistanceMeters>
          </Trackpoint>
          <Trackpoint>
            <Time>2019-10-09T10:20:47.000Z</Time>
            <Position>
              <LatitudeDegrees>38.9225430227816104888916015625</LatitudeDegrees>
              <LongitudeDegrees>-6.35460569523274898529052734375</LongitudeDegrees>
            </Position>
            <AltitudeMeters>185.1999969482421875</AltitudeMeters>
            <DistanceMeters>NAN</DistanceMeters>
          </Trackpoint>
          <Trackpoint>
            <Time>2019-10-09T10:20:49.000Z</Time>
            <Position>
              <LatitudeDegrees>38.92245031893253326416015625</LatitudeDegrees>
              <LongitudeDegrees>-6.35451860725879669189453125</LongitudeDegrees>
            </Position>
            <AltitudeMeters>184.600006103515625</AltitudeMeters>
            <DistanceMeters>NAN</DistanceMeters>
          </Trackpoint>
          <Trackpoint>
            <Time>2019-10-09T10:20:51.000Z</Time>
            <Position>
              <LatitudeDegrees>38.9223606325685977935791015625</LatitudeDegrees>
              <LongitudeDegrees>-6.35442615486681461334228515625</LongitudeDegrees>
            </Position>
            <AltitudeMeters>184</AltitudeMeters>
            <DistanceMeters>NAN</DistanceMeters>
          </Trackpoint>
          <Trackpoint>
            <Time>2019-10-09T10:20:52.000Z</Time>
            <Position>
              <LatitudeDegrees>38.9223173819482326507568359375</LatitudeDegrees>
              <LongitudeDegrees>-6.35437804274260997772216796875</LongitudeDegrees>
            </Position>
            <AltitudeMeters>184</AltitudeMeters>
            <DistanceMeters>NAN</DistanceMeters>
          </Trackpoint>
          <Trackpoint>
            <Time>2019-10-09T10:20:54.000Z</Time>
            <Position>
              <LatitudeDegrees>38.922230042517185211181640625</LatitudeDegrees>
              <LongitudeDegrees>-6.35428919456899166107177734375</LongitudeDegrees>
            </Position>
            <AltitudeMeters>184.399993896484375</AltitudeMeters>
            <DistanceMeters>NAN</DistanceMeters>
          </Trackpoint>
          <Trackpoint>
            <Time>2019-10-09T10:20:55.000Z</Time>
            <Position>
              <LatitudeDegrees>38.922191150486469268798828125</LatitudeDegrees>
              <LongitudeDegrees>-6.35424577631056308746337890625</LongitudeDegrees>
            </Position>
            <AltitudeMeters>184.8000030517578125</AltitudeMeters>
            <DistanceMeters>NAN</DistanceMeters>
          </Trackpoint>
          <Trackpoint>
            <Time>2019-10-09T10:20:57.000Z</Time>
            <Position>
              <LatitudeDegrees>38.9221205748617649078369140625</LatitudeDegrees>
              <LongitudeDegrees>-6.35415927506983280181884765625</LongitudeDegrees>
            </Position>
            <AltitudeMeters>185.8000030517578125</AltitudeMeters>
            <DistanceMeters>NAN</DistanceMeters>
          </Trackpoint>
          <Trackpoint>
            <Time>2019-10-09T10:21:00.000Z</Time>
            <Position>
              <LatitudeDegrees>38.92201244831085205078125</LatitudeDegrees>
              <LongitudeDegrees>-6.354059614241123199462890625</LongitudeDegrees>
            </Position>
            <AltitudeMeters>186.1999969482421875</AltitudeMeters>
            <DistanceMeters>NAN</DistanceMeters>
          </Trackpoint>
          <Trackpoint>
            <Time>2019-10-09T10:21:03.000Z</Time>
            <Position>
              <LatitudeDegrees>38.92189987935125827789306640625</LatitudeDegrees>
              <LongitudeDegrees>-6.35397437028586864471435546875</LongitudeDegrees>
            </Position>
            <AltitudeMeters>187</AltitudeMeters>
            <DistanceMeters>NAN</DistanceMeters>
          </Trackpoint>
          <Trackpoint>
            <Time>2019-10-09T10:21:06.000Z</Time>
            <Position>
              <LatitudeDegrees>38.92178840003907680511474609375</LatitudeDegrees>
              <LongitudeDegrees>-6.35390044189989566802978515625</LongitudeDegrees>
            </Position>
            <AltitudeMeters>188</AltitudeMeters>
            <DistanceMeters>NAN</DistanceMeters>
          </Trackpoint>
          <Trackpoint>
            <Time>2019-10-09T10:21:07.000Z</Time>
            <Position>
              <LatitudeDegrees>38.92175026237964630126953125</LatitudeDegrees>
              <LongitudeDegrees>-6.3538830913603305816650390625</LongitudeDegrees>
            </Position>
            <AltitudeMeters>188.600006103515625</AltitudeMeters>
            <DistanceMeters>NAN</DistanceMeters>
          </Trackpoint>
          <Trackpoint>
            <Time>2019-10-09T10:21:10.000Z</Time>
            <Position>
              <LatitudeDegrees>38.9216347597539424896240234375</LatitudeDegrees>
              <LongitudeDegrees>-6.35387630201876163482666015625</LongitudeDegrees>
            </Position>
            <AltitudeMeters>188.8000030517578125</AltitudeMeters>
            <DistanceMeters>NAN</DistanceMeters>
          </Trackpoint>
          <Trackpoint>
            <Time>2019-10-09T10:21:11.000Z</Time>
            <Position>
              <LatitudeDegrees>38.921592347323894500732421875</LatitudeDegrees>
              <LongitudeDegrees>-6.35388049297034740447998046875</LongitudeDegrees>
            </Position>
            <AltitudeMeters>189</AltitudeMeters>
            <DistanceMeters>NAN</DistanceMeters>
          </Trackpoint>
          <Trackpoint>
            <Time>2019-10-09T10:21:12.000Z</Time>
            <Position>
              <LatitudeDegrees>38.92155018635094165802001953125</LatitudeDegrees>
              <LongitudeDegrees>-6.353871189057826995849609375</LongitudeDegrees>
            </Position>
            <AltitudeMeters>189</AltitudeMeters>
            <DistanceMeters>NAN</DistanceMeters>
          </Trackpoint>
          <Trackpoint>
            <Time>2019-10-09T10:21:14.000Z</Time>
            <Position>
              <LatitudeDegrees>38.9214755035936832427978515625</LatitudeDegrees>
              <LongitudeDegrees>-6.3538111746311187744140625</LongitudeDegrees>
            </Position>
            <AltitudeMeters>189.399993896484375</AltitudeMeters>
            <DistanceMeters>NAN</DistanceMeters>
          </Trackpoint>
          <Trackpoint>
            <Time>2019-10-09T10:21:17.000Z</Time>
            <Position>
              <LatitudeDegrees>38.9214074425399303436279296875</LatitudeDegrees>
              <LongitudeDegrees>-6.35367111302912235260009765625</LongitudeDegrees>
            </Position>
            <AltitudeMeters>190</AltitudeMeters>
            <DistanceMeters>NAN</DistanceMeters>
          </Trackpoint>
          <Trackpoint>
            <Time>2019-10-09T10:21:18.000Z</Time>
            <Position>
              <LatitudeDegrees>38.92138338647782802581787109375</LatitudeDegrees>
              <LongitudeDegrees>-6.35362886823713779449462890625</LongitudeDegrees>
            </Position>
            <AltitudeMeters>190.1999969482421875</AltitudeMeters>
            <DistanceMeters>NAN</DistanceMeters>
          </Trackpoint>
          <Trackpoint>
            <Time>2019-10-09T10:21:19.000Z</Time>
            <Position>
              <LatitudeDegrees>38.92135304398834705352783203125</LatitudeDegrees>
              <LongitudeDegrees>-6.3535930775105953216552734375</LongitudeDegrees>
            </Position>
            <AltitudeMeters>190.1999969482421875</AltitudeMeters>
            <DistanceMeters>NAN</DistanceMeters>
          </Trackpoint>
          <Trackpoint>
            <Time>2019-10-09T10:21:24.000Z</Time>
            <Position>
              <LatitudeDegrees>38.92117819748818874359130859375</LatitudeDegrees>
              <LongitudeDegrees>-6.3534472323954105377197265625</LongitudeDegrees>
            </Position>
            <AltitudeMeters>190.399993896484375</AltitudeMeters>
            <DistanceMeters>NAN</DistanceMeters>
          </Trackpoint>
          <Trackpoint>
            <Time>2019-10-09T10:21:26.000Z</Time>
            <Position>
              <LatitudeDegrees>38.92110628075897693634033203125</LatitudeDegrees>
              <LongitudeDegrees>-6.35339434258639812469482421875</LongitudeDegrees>
            </Position>
            <AltitudeMeters>190.399993896484375</AltitudeMeters>
            <DistanceMeters>NAN</DistanceMeters>
          </Trackpoint>
          <Trackpoint>
            <Time>2019-10-09T10:21:30.000Z</Time>
            <Position>
              <LatitudeDegrees>38.9209605194628238677978515625</LatitudeDegrees>
              <LongitudeDegrees>-6.35329417884349822998046875</LongitudeDegrees>
            </Position>
            <AltitudeMeters>190.600006103515625</AltitudeMeters>
            <DistanceMeters>NAN</DistanceMeters>
          </Trackpoint>
          <Trackpoint>
            <Time>2019-10-09T10:21:33.000Z</Time>
            <Position>
              <LatitudeDegrees>38.9208468608558177947998046875</LatitudeDegrees>
              <LongitudeDegrees>-6.3532075099647045135498046875</LongitudeDegrees>
            </Position>
            <AltitudeMeters>189.8000030517578125</AltitudeMeters>
            <DistanceMeters>NAN</DistanceMeters>
          </Trackpoint>
          <Trackpoint>
            <Time>2019-10-09T10:21:42.000Z</Time>
            <Position>
              <LatitudeDegrees>38.92050848342478275299072265625</LatitudeDegrees>
              <LongitudeDegrees>-6.352890171110630035400390625</LongitudeDegrees>
            </Position>
            <AltitudeMeters>190</AltitudeMeters>
            <DistanceMeters>NAN</DistanceMeters>
          </Trackpoint>
          <Trackpoint>
            <Time>2019-10-09T10:21:46.000Z</Time>
            <Position>
              <LatitudeDegrees>38.92034403048455715179443359375</LatitudeDegrees>
              <LongitudeDegrees>-6.3527356088161468505859375</LongitudeDegrees>
            </Position>
            <AltitudeMeters>189.600006103515625</AltitudeMeters>
            <DistanceMeters>NAN</DistanceMeters>
          </Trackpoint>
          <Trackpoint>
            <Time>2019-10-09T10:21:49.000Z</Time>
            <Position>
              <LatitudeDegrees>38.9202182181179523468017578125</LatitudeDegrees>
              <LongitudeDegrees>-6.35261381976306438446044921875</LongitudeDegrees>
            </Position>
            <AltitudeMeters>189.600006103515625</AltitudeMeters>
            <DistanceMeters>NAN</DistanceMeters>
          </Trackpoint>
          <Trackpoint>
            <Time>2019-10-09T10:21:52.000Z</Time>
            <Position>
              <LatitudeDegrees>38.920087628066539764404296875</LatitudeDegrees>
              <LongitudeDegrees>-6.3524886779487133026123046875</LongitudeDegrees>
            </Position>
            <AltitudeMeters>189.399993896484375</AltitudeMeters>
            <DistanceMeters>NAN</DistanceMeters>
          </Trackpoint>
          <Trackpoint>
            <Time>2019-10-09T10:21:56.000Z</Time>
            <Position>
              <LatitudeDegrees>38.9199204929172992706298828125</LatitudeDegrees>
              <LongitudeDegrees>-6.35230821557343006134033203125</LongitudeDegrees>
            </Position>
            <AltitudeMeters>189.600006103515625</AltitudeMeters>
            <DistanceMeters>NAN</DistanceMeters>
          </Trackpoint>
          <Trackpoint>
            <Time>2019-10-09T10:21:58.000Z</Time>
            <Position>
              <LatitudeDegrees>38.919834159314632415771484375</LatitudeDegrees>
              <LongitudeDegrees>-6.3522221334278583526611328125</LongitudeDegrees>
            </Position>
            <AltitudeMeters>189.1999969482421875</AltitudeMeters>
            <DistanceMeters>NAN</DistanceMeters>
          </Trackpoint>
          <Trackpoint>
            <Time>2019-10-09T10:22:00.000Z</Time>
            <Position>
              <LatitudeDegrees>38.919750340282917022705078125</LatitudeDegrees>
              <LongitudeDegrees>-6.35214040987193584442138671875</LongitudeDegrees>
            </Position>
            <AltitudeMeters>189.399993896484375</AltitudeMeters>
            <DistanceMeters>NAN</DistanceMeters>
          </Trackpoint>
          <Trackpoint>
            <Time>2019-10-09T10:22:04.000Z</Time>
            <Position>
              <LatitudeDegrees>38.919590078294277191162109375</LatitudeDegrees>
              <LongitudeDegrees>-6.35197780095040798187255859375</LongitudeDegrees>
            </Position>
            <AltitudeMeters>189.399993896484375</AltitudeMeters>
            <DistanceMeters>NAN</DistanceMeters>
          </Trackpoint>
          <Trackpoint>
            <Time>2019-10-09T10:22:07.000Z</Time>
            <Position>
              <LatitudeDegrees>38.91948337666690349578857421875</LatitudeDegrees>
              <LongitudeDegrees>-6.35185592807829380035400390625</LongitudeDegrees>
            </Position>
            <AltitudeMeters>189.600006103515625</AltitudeMeters>
            <DistanceMeters>NAN</DistanceMeters>
          </Trackpoint>
          <Trackpoint>
            <Time>2019-10-09T10:22:11.000Z</Time>
            <Position>
              <LatitudeDegrees>38.9193471707403659820556640625</LatitudeDegrees>
              <LongitudeDegrees>-6.3517217338085174560546875</LongitudeDegrees>
            </Position>
            <AltitudeMeters>189.8000030517578125</AltitudeMeters>
            <DistanceMeters>NAN</DistanceMeters>
          </Trackpoint>
          <Trackpoint>
            <Time>2019-10-09T10:22:12.000Z</Time>
            <Position>
              <LatitudeDegrees>38.91931540332734584808349609375</LatitudeDegrees>
              <LongitudeDegrees>-6.35168745182454586029052734375</LongitudeDegrees>
            </Position>
            <AltitudeMeters>189.600006103515625</AltitudeMeters>
            <DistanceMeters>NAN</DistanceMeters>
          </Trackpoint>
          <Trackpoint>
            <Time>2019-10-09T10:22:13.000Z</Time>
            <Position>
              <LatitudeDegrees>38.91928799450397491455078125</LatitudeDegrees>
              <LongitudeDegrees>-6.3516481406986713409423828125</LongitudeDegrees>
            </Position>
            <AltitudeMeters>189.8000030517578125</AltitudeMeters>
            <DistanceMeters>NAN</DistanceMeters>
          </Trackpoint>
          <Trackpoint>
            <Time>2019-10-09T10:22:14.000Z</Time>
            <Position>
              <LatitudeDegrees>38.91925924457609653472900390625</LatitudeDegrees>
              <LongitudeDegrees>-6.351606734097003936767578125</LongitudeDegrees>
            </Position>
            <AltitudeMeters>189.8000030517578125</AltitudeMeters>
            <DistanceMeters>NAN</DistanceMeters>
          </Trackpoint>
          <Trackpoint>
            <Time>2019-10-09T10:22:18.000Z</Time>
            <Position>
              <LatitudeDegrees>38.91909462399780750274658203125</LatitudeDegrees>
              <LongitudeDegrees>-6.35141931474208831787109375</LongitudeDegrees>
            </Position>
            <AltitudeMeters>189.600006103515625</AltitudeMeters>
            <DistanceMeters>NAN</DistanceMeters>
          </Trackpoint>
          <Trackpoint>
            <Time>2019-10-09T10:22:20.000Z</Time>
            <Position>
              <LatitudeDegrees>38.9190041832625865936279296875</LatitudeDegrees>
              <LongitudeDegrees>-6.35132401250302791595458984375</LongitudeDegrees>
            </Position>
            <AltitudeMeters>190</AltitudeMeters>
            <DistanceMeters>NAN</DistanceMeters>
          </Trackpoint>
          <Trackpoint>
            <Time>2019-10-09T10:22:21.000Z</Time>
            <Position>
              <LatitudeDegrees>38.9189602620899677276611328125</LatitudeDegrees>
              <LongitudeDegrees>-6.3512753136456012725830078125</LongitudeDegrees>
            </Position>
            <AltitudeMeters>190.1999969482421875</AltitudeMeters>
            <DistanceMeters>NAN</DistanceMeters>
          </Trackpoint>
          <Trackpoint>
            <Time>2019-10-09T10:22:23.000Z</Time>
            <Position>
              <LatitudeDegrees>38.9188697375357151031494140625</LatitudeDegrees>
              <LongitudeDegrees>-6.35118328034877777099609375</LongitudeDegrees>
            </Position>
            <AltitudeMeters>189.8000030517578125</AltitudeMeters>
            <DistanceMeters>NAN</DistanceMeters>
          </Trackpoint>
          <Trackpoint>
            <Time>2019-10-09T10:22:24.000Z</Time>
            <Position>
              <LatitudeDegrees>38.91882305033504962921142578125</LatitudeDegrees>
              <LongitudeDegrees>-6.3511401973664760589599609375</LongitudeDegrees>
            </Position>
            <AltitudeMeters>189.8000030517578125</AltitudeMeters>
            <DistanceMeters>NAN</DistanceMeters>
          </Trackpoint>
          <Trackpoint>
            <Time>2019-10-09T10:22:25.000Z</Time>
            <Position>
              <LatitudeDegrees>38.9187736809253692626953125</LatitudeDegrees>
              <LongitudeDegrees>-6.351095773279666900634765625</LongitudeDegrees>
            </Position>
            <AltitudeMeters>190.399993896484375</AltitudeMeters>
            <DistanceMeters>NAN</DistanceMeters>
          </Trackpoint>
          <Trackpoint>
            <Time>2019-10-09T10:22:34.000Z</Time>
            <Position>
              <LatitudeDegrees>38.91834788024425506591796875</LatitudeDegrees>
              <LongitudeDegrees>-6.3506942801177501678466796875</LongitudeDegrees>
            </Position>
            <AltitudeMeters>190.600006103515625</AltitudeMeters>
            <DistanceMeters>NAN</DistanceMeters>
          </Trackpoint>
          <Trackpoint>
            <Time>2019-10-09T10:22:39.000Z</Time>
            <Position>
              <LatitudeDegrees>38.91812718473374843597412109375</LatitudeDegrees>
              <LongitudeDegrees>-6.35049370117485523223876953125</LongitudeDegrees>
            </Position>
            <AltitudeMeters>191.399993896484375</AltitudeMeters>
            <DistanceMeters>NAN</DistanceMeters>
          </Trackpoint>
          <Trackpoint>
            <Time>2019-10-09T10:22:40.000Z</Time>
            <Position>
              <LatitudeDegrees>38.9180774800479412078857421875</LatitudeDegrees>
              <LongitudeDegrees>-6.350484900176525115966796875</LongitudeDegrees>
            </Position>
            <AltitudeMeters>191.399993896484375</AltitudeMeters>
            <DistanceMeters>NAN</DistanceMeters>
          </Trackpoint>
          <Trackpoint>
            <Time>2019-10-09T10:22:43.000Z</Time>
            <Position>
              <LatitudeDegrees>38.9179400168359279632568359375</LatitudeDegrees>
              <LongitudeDegrees>-6.35056846775114536285400390625</LongitudeDegrees>
            </Position>
            <AltitudeMeters>191.8000030517578125</AltitudeMeters>
            <DistanceMeters>NAN</DistanceMeters>
          </Trackpoint>
          <Trackpoint>
            <Time>2019-10-09T10:22:44.000Z</Time>
            <Position>
              <LatitudeDegrees>38.917894251644611358642578125</LatitudeDegrees>
              <LongitudeDegrees>-6.350602917373180389404296875</LongitudeDegrees>
            </Position>
            <AltitudeMeters>191.600006103515625</AltitudeMeters>
            <DistanceMeters>NAN</DistanceMeters>
          </Trackpoint>
          <Trackpoint>
            <Time>2019-10-09T10:22:47.000Z</Time>
            <Position>
              <LatitudeDegrees>38.91774237155914306640625</LatitudeDegrees>
              <LongitudeDegrees>-6.35065555572509765625</LongitudeDegrees>
            </Position>
            <AltitudeMeters>191.399993896484375</AltitudeMeters>
            <DistanceMeters>NAN</DistanceMeters>
          </Trackpoint>
          <Trackpoint>
            <Time>2019-10-09T10:22:50.000Z</Time>
            <Position>
              <LatitudeDegrees>38.91760381869971752166748046875</LatitudeDegrees>
              <LongitudeDegrees>-6.35057584382593631744384765625</LongitudeDegrees>
            </Position>
            <AltitudeMeters>191.8000030517578125</AltitudeMeters>
            <DistanceMeters>NAN</DistanceMeters>
          </Trackpoint>
          <Trackpoint>
            <Time>2019-10-09T10:22:53.000Z</Time>
            <Position>
              <LatitudeDegrees>38.91753592528402805328369140625</LatitudeDegrees>
              <LongitudeDegrees>-6.3504009135067462921142578125</LongitudeDegrees>
            </Position>
            <AltitudeMeters>192.399993896484375</AltitudeMeters>
            <DistanceMeters>NAN</DistanceMeters>
          </Trackpoint>
          <Trackpoint>
            <Time>2019-10-09T10:22:54.000Z</Time>
            <Position>
              <LatitudeDegrees>38.9175192452967166900634765625</LatitudeDegrees>
              <LongitudeDegrees>-6.35033972561359405517578125</LongitudeDegrees>
            </Position>
            <AltitudeMeters>192.8000030517578125</AltitudeMeters>
            <DistanceMeters>NAN</DistanceMeters>
          </Trackpoint>
          <Trackpoint>
            <Time>2019-10-09T10:22:55.000Z</Time>
            <Position>
              <LatitudeDegrees>38.917499966919422149658203125</LatitudeDegrees>
              <LongitudeDegrees>-6.35028348304331302642822265625</LongitudeDegrees>
            </Position>
            <AltitudeMeters>193.1999969482421875</AltitudeMeters>
            <DistanceMeters>NAN</DistanceMeters>
          </Trackpoint>
          <Trackpoint>
            <Time>2019-10-09T10:22:58.000Z</Time>
            <Position>
              <LatitudeDegrees>38.9174065925180912017822265625</LatitudeDegrees>
              <LongitudeDegrees>-6.3501404039561748504638671875</LongitudeDegrees>
            </Position>
            <AltitudeMeters>193</AltitudeMeters>
            <DistanceMeters>NAN</DistanceMeters>
          </Trackpoint>
          <Trackpoint>
            <Time>2019-10-09T10:22:59.000Z</Time>
            <Position>
              <LatitudeDegrees>38.917366527020931243896484375</LatitudeDegrees>
              <LongitudeDegrees>-6.35010100901126861572265625</LongitudeDegrees>
            </Position>
            <AltitudeMeters>193</AltitudeMeters>
            <DistanceMeters>NAN</DistanceMeters>
          </Trackpoint>
          <Trackpoint>
            <Time>2019-10-09T10:23:05.000Z</Time>
            <Position>
              <LatitudeDegrees>38.91710107214748859405517578125</LatitudeDegrees>
              <LongitudeDegrees>-6.34983790107071399688720703125</LongitudeDegrees>
            </Position>
            <AltitudeMeters>191.8000030517578125</AltitudeMeters>
            <DistanceMeters>NAN</DistanceMeters>
          </Trackpoint>
          <Trackpoint>
            <Time>2019-10-09T10:23:06.000Z</Time>
            <Position>
              <LatitudeDegrees>38.917050026357173919677734375</LatitudeDegrees>
              <LongitudeDegrees>-6.349794231355190277099609375</LongitudeDegrees>
            </Position>
            <AltitudeMeters>191.600006103515625</AltitudeMeters>
            <DistanceMeters>NAN</DistanceMeters>
          </Trackpoint>
          <Trackpoint>
            <Time>2019-10-09T10:23:07.000Z</Time>
            <Position>
              <LatitudeDegrees>38.9169980585575103759765625</LatitudeDegrees>
              <LongitudeDegrees>-6.349748633801937103271484375</LongitudeDegrees>
            </Position>
            <AltitudeMeters>191.399993896484375</AltitudeMeters>
            <DistanceMeters>NAN</DistanceMeters>
          </Trackpoint>
          <Trackpoint>
            <Time>2019-10-09T10:23:10.000Z</Time>
            <Position>
              <LatitudeDegrees>38.916842825710773468017578125</LatitudeDegrees>
              <LongitudeDegrees>-6.34959876537322998046875</LongitudeDegrees>
            </Position>
            <AltitudeMeters>190.600006103515625</AltitudeMeters>
            <DistanceMeters>NAN</DistanceMeters>
          </Trackpoint>
          <Trackpoint>
            <Time>2019-10-09T10:23:14.000Z</Time>
            <Position>
              <LatitudeDegrees>38.91663671471178531646728515625</LatitudeDegrees>
              <LongitudeDegrees>-6.349386535584926605224609375</LongitudeDegrees>
            </Position>
            <AltitudeMeters>190.8000030517578125</AltitudeMeters>
            <DistanceMeters>NAN</DistanceMeters>
          </Trackpoint>
          <Trackpoint>
            <Time>2019-10-09T10:23:17.000Z</Time>
            <Position>
              <LatitudeDegrees>38.916478715837001800537109375</LatitudeDegrees>
              <LongitudeDegrees>-6.3492254354059696197509765625</LongitudeDegrees>
            </Position>
            <AltitudeMeters>190.399993896484375</AltitudeMeters>
            <DistanceMeters>NAN</DistanceMeters>
          </Trackpoint>
          <Trackpoint>
            <Time>2019-10-09T10:23:20.000Z</Time>
            <Position>
              <LatitudeDegrees>38.916309736669063568115234375</LatitudeDegrees>
              <LongitudeDegrees>-6.349060647189617156982421875</LongitudeDegrees>
            </Position>
            <AltitudeMeters>190.399993896484375</AltitudeMeters>
            <DistanceMeters>NAN</DistanceMeters>
          </Trackpoint>
          <Trackpoint>
            <Time>2019-10-09T10:23:22.000Z</Time>
            <Position>
              <LatitudeDegrees>38.9162099920213222503662109375</LatitudeDegrees>
              <LongitudeDegrees>-6.34895998053252696990966796875</LongitudeDegrees>
            </Position>
            <AltitudeMeters>190.1999969482421875</AltitudeMeters>
            <DistanceMeters>NAN</DistanceMeters>
          </Trackpoint>
          <Trackpoint>
            <Time>2019-10-09T10:23:23.000Z</Time>
            <Position>
              <LatitudeDegrees>38.91615542583167552947998046875</LatitudeDegrees>
              <LongitudeDegrees>-6.3489055819809436798095703125</LongitudeDegrees>
            </Position>
            <AltitudeMeters>190</AltitudeMeters>
            <DistanceMeters>NAN</DistanceMeters>
          </Trackpoint>
          <Trackpoint>
            <Time>2019-10-09T10:23:26.000Z</Time>
            <Position>
              <LatitudeDegrees>38.91599826514720916748046875</LatitudeDegrees>
              <LongitudeDegrees>-6.34875588119029998779296875</LongitudeDegrees>
            </Position>
            <AltitudeMeters>189.8000030517578125</AltitudeMeters>
            <DistanceMeters>NAN</DistanceMeters>
          </Trackpoint>
          <Trackpoint>
            <Time>2019-10-09T10:23:28.000Z</Time>
            <Position>
              <LatitudeDegrees>38.91589106060564517974853515625</LatitudeDegrees>
              <LongitudeDegrees>-6.3486581481993198394775390625</LongitudeDegrees>
            </Position>
            <AltitudeMeters>189.1999969482421875</AltitudeMeters>
            <DistanceMeters>NAN</DistanceMeters>
          </Trackpoint>
          <Trackpoint>
            <Time>2019-10-09T10:23:32.000Z</Time>
            <Position>
              <LatitudeDegrees>38.9156802557408809661865234375</LatitudeDegrees>
              <LongitudeDegrees>-6.3484579883515834808349609375</LongitudeDegrees>
            </Position>
            <AltitudeMeters>189.1999969482421875</AltitudeMeters>
            <DistanceMeters>NAN</DistanceMeters>
          </Trackpoint>
          <Trackpoint>
            <Time>2019-10-09T10:23:34.000Z</Time>
            <Position>
              <LatitudeDegrees>38.91558093018829822540283203125</LatitudeDegrees>
              <LongitudeDegrees>-6.34836494922637939453125</LongitudeDegrees>
            </Position>
            <AltitudeMeters>189</AltitudeMeters>
            <DistanceMeters>NAN</DistanceMeters>
          </Trackpoint>
          <Trackpoint>
            <Time>2019-10-09T10:23:36.000Z</Time>
            <Position>
              <LatitudeDegrees>38.91548772342503070831298828125</LatitudeDegrees>
              <LongitudeDegrees>-6.34826931171119213104248046875</LongitudeDegrees>
            </Position>
            <AltitudeMeters>189.399993896484375</AltitudeMeters>
            <DistanceMeters>NAN</DistanceMeters>
          </Trackpoint>
          <Trackpoint>
            <Time>2019-10-09T10:23:38.000Z</Time>
            <Position>
              <LatitudeDegrees>38.91540222801268100738525390625</LatitudeDegrees>
              <LongitudeDegrees>-6.34816738776862621307373046875</LongitudeDegrees>
            </Position>
            <AltitudeMeters>189.1999969482421875</AltitudeMeters>
            <DistanceMeters>NAN</DistanceMeters>
          </Trackpoint>
          <Trackpoint>
            <Time>2019-10-09T10:23:41.000Z</Time>
            <Position>
              <LatitudeDegrees>38.91528345644474029541015625</LatitudeDegrees>
              <LongitudeDegrees>-6.34802204556763172149658203125</LongitudeDegrees>
            </Position>
            <AltitudeMeters>189.600006103515625</AltitudeMeters>
            <DistanceMeters>NAN</DistanceMeters>
          </Trackpoint>
          <Trackpoint>
            <Time>2019-10-09T10:23:42.000Z</Time>
            <Position>
              <LatitudeDegrees>38.9152490906417369842529296875</LatitudeDegrees>
              <LongitudeDegrees>-6.34797628037631511688232421875</LongitudeDegrees>
            </Position>
            <AltitudeMeters>190</AltitudeMeters>
            <DistanceMeters>NAN</DistanceMeters>
          </Trackpoint>
          <Trackpoint>
            <Time>2019-10-09T10:23:44.000Z</Time>
            <Position>
              <LatitudeDegrees>38.915187232196331024169921875</LatitudeDegrees>
              <LongitudeDegrees>-6.34789061732590198516845703125</LongitudeDegrees>
            </Position>
            <AltitudeMeters>190.399993896484375</AltitudeMeters>
            <DistanceMeters>NAN</DistanceMeters>
          </Trackpoint>
          <Trackpoint>
            <Time>2019-10-09T10:23:45.000Z</Time>
            <Position>
              <LatitudeDegrees>38.9151538722217082977294921875</LatitudeDegrees>
              <LongitudeDegrees>-6.34786270558834075927734375</LongitudeDegrees>
            </Position>
            <AltitudeMeters>190.1999969482421875</AltitudeMeters>
            <DistanceMeters>NAN</DistanceMeters>
          </Trackpoint>
          <Trackpoint>
            <Time>2019-10-09T10:23:46.000Z</Time>
            <Position>
              <LatitudeDegrees>38.91512445174157619476318359375</LatitudeDegrees>
              <LongitudeDegrees>-6.34783948771655559539794921875</LongitudeDegrees>
            </Position>
            <AltitudeMeters>190.399993896484375</AltitudeMeters>
            <DistanceMeters>NAN</DistanceMeters>
          </Trackpoint>
          <Trackpoint>
            <Time>2019-10-09T10:23:47.000Z</Time>
            <Position>
              <LatitudeDegrees>38.91509545035660266876220703125</LatitudeDegrees>
              <LongitudeDegrees>-6.34783127345144748687744140625</LongitudeDegrees>
            </Position>
            <AltitudeMeters>190.399993896484375</AltitudeMeters>
            <DistanceMeters>NAN</DistanceMeters>
          </Trackpoint>
          <Trackpoint>
            <Time>2019-10-09T10:23:48.000Z</Time>
            <Position>
              <LatitudeDegrees>38.91506753861904144287109375</LatitudeDegrees>
              <LongitudeDegrees>-6.34783999063074588775634765625</LongitudeDegrees>
            </Position>
            <AltitudeMeters>190.600006103515625</AltitudeMeters>
            <DistanceMeters>NAN</DistanceMeters>
          </Trackpoint>
          <Trackpoint>
            <Time>2019-10-09T10:23:51.000Z</Time>
            <Position>
              <LatitudeDegrees>38.915017582476139068603515625</LatitudeDegrees>
              <LongitudeDegrees>-6.34795214049518108367919921875</LongitudeDegrees>
            </Position>
            <AltitudeMeters>190.1999969482421875</AltitudeMeters>
            <DistanceMeters>NAN</DistanceMeters>
          </Trackpoint>
          <Trackpoint>
            <Time>2019-10-09T10:23:57.000Z</Time>
            <Position>
              <LatitudeDegrees>38.91489445231854915618896484375</LatitudeDegrees>
              <LongitudeDegrees>-6.34817375801503658294677734375</LongitudeDegrees>
            </Position>
            <AltitudeMeters>191.1999969482421875</AltitudeMeters>
            <DistanceMeters>NAN</DistanceMeters>
          </Trackpoint>
          <Trackpoint>
            <Time>2019-10-09T10:23:58.000Z</Time>
            <Position>
              <LatitudeDegrees>38.91487198881804943084716796875</LatitudeDegrees>
              <LongitudeDegrees>-6.34820728562772274017333984375</LongitudeDegrees>
            </Position>
            <AltitudeMeters>191.1999969482421875</AltitudeMeters>
            <DistanceMeters>NAN</DistanceMeters>
          </Trackpoint>
          <Trackpoint>
            <Time>2019-10-09T10:24:01.000Z</Time>
            <Position>
              <LatitudeDegrees>38.91481515951454639434814453125</LatitudeDegrees>
              <LongitudeDegrees>-6.34832144714891910552978515625</LongitudeDegrees>
            </Position>
            <AltitudeMeters>190.8000030517578125</AltitudeMeters>
            <DistanceMeters>NAN</DistanceMeters>
          </Trackpoint>
          <Trackpoint>
            <Time>2019-10-09T10:24:03.000Z</Time>
            <Position>
              <LatitudeDegrees>38.91478163190186023712158203125</LatitudeDegrees>
              <LongitudeDegrees>-6.34839805774390697479248046875</LongitudeDegrees>
            </Position>
            <AltitudeMeters>191.399993896484375</AltitudeMeters>
            <DistanceMeters>NAN</DistanceMeters>
          </Trackpoint>
          <Trackpoint>
            <Time>2019-10-09T10:24:04.000Z</Time>
            <Position>
              <LatitudeDegrees>38.91476176679134368896484375</LatitudeDegrees>
              <LongitudeDegrees>-6.34843108244240283966064453125</LongitudeDegrees>
            </Position>
            <AltitudeMeters>191.600006103515625</AltitudeMeters>
            <DistanceMeters>NAN</DistanceMeters>
          </Trackpoint>
          <Trackpoint>
            <Time>2019-10-09T10:24:05.000Z</Time>
            <Position>
              <LatitudeDegrees>38.9147394709289073944091796875</LatitudeDegrees>
              <LongitudeDegrees>-6.34846360422670841217041015625</LongitudeDegrees>
            </Position>
            <AltitudeMeters>191.399993896484375</AltitudeMeters>
            <DistanceMeters>NAN</DistanceMeters>
          </Trackpoint>
          <Trackpoint>
            <Time>2019-10-09T10:24:07.000Z</Time>
            <Position>
              <LatitudeDegrees>38.9146938733756542205810546875</LatitudeDegrees>
              <LongitudeDegrees>-6.3485325872898101806640625</LongitudeDegrees>
            </Position>
            <AltitudeMeters>191.600006103515625</AltitudeMeters>
            <DistanceMeters>NAN</DistanceMeters>
          </Trackpoint>
          <Trackpoint>
            <Time>2019-10-09T10:24:11.000Z</Time>
            <Position>
              <LatitudeDegrees>38.91459806822240352630615234375</LatitudeDegrees>
              <LongitudeDegrees>-6.348689161241054534912109375</LongitudeDegrees>
            </Position>
            <AltitudeMeters>191</AltitudeMeters>
            <DistanceMeters>NAN</DistanceMeters>
          </Trackpoint>
          <Trackpoint>
            <Time>2019-10-09T10:24:12.000Z</Time>
            <Position>
              <LatitudeDegrees>38.91457174904644489288330078125</LatitudeDegrees>
              <LongitudeDegrees>-6.3487309031188488006591796875</LongitudeDegrees>
            </Position>
            <AltitudeMeters>190.8000030517578125</AltitudeMeters>
            <DistanceMeters>NAN</DistanceMeters>
          </Trackpoint>
          <Trackpoint>
            <Time>2019-10-09T10:24:14.000Z</Time>
            <Position>
              <LatitudeDegrees>38.91451978124678134918212890625</LatitudeDegrees>
              <LongitudeDegrees>-6.34881765581667423248291015625</LongitudeDegrees>
            </Position>
            <AltitudeMeters>190</AltitudeMeters>
            <DistanceMeters>NAN</DistanceMeters>
          </Trackpoint>
          <Trackpoint>
            <Time>2019-10-09T10:24:19.000Z</Time>
            <Position>
              <LatitudeDegrees>38.9143971540033817291259765625</LatitudeDegrees>
              <LongitudeDegrees>-6.349019743502140045166015625</LongitudeDegrees>
            </Position>
            <AltitudeMeters>190</AltitudeMeters>
            <DistanceMeters>NAN</DistanceMeters>
          </Trackpoint>
          <Trackpoint>
            <Time>2019-10-09T10:24:20.000Z</Time>
            <Position>
              <LatitudeDegrees>38.9143746905028820037841796875</LatitudeDegrees>
              <LongitudeDegrees>-6.349058635532855987548828125</LongitudeDegrees>
            </Position>
            <AltitudeMeters>190</AltitudeMeters>
            <DistanceMeters>NAN</DistanceMeters>
          </Trackpoint>
          <Trackpoint>
            <Time>2019-10-09T10:24:22.000Z</Time>
            <Position>
              <LatitudeDegrees>38.91434426419436931610107421875</LatitudeDegrees>
              <LongitudeDegrees>-6.34910699911415576934814453125</LongitudeDegrees>
            </Position>
            <AltitudeMeters>190.399993896484375</AltitudeMeters>
            <DistanceMeters>NAN</DistanceMeters>
          </Trackpoint>
          <Trackpoint>
            <Time>2019-10-09T10:24:29.000Z</Time>
            <Position>
              <LatitudeDegrees>38.91419590450823307037353515625</LatitudeDegrees>
              <LongitudeDegrees>-6.34933414869010448455810546875</LongitudeDegrees>
            </Position>
            <AltitudeMeters>190.399993896484375</AltitudeMeters>
            <DistanceMeters>NAN</DistanceMeters>
          </Trackpoint>
          <Trackpoint>
            <Time>2019-10-09T10:24:33.000Z</Time>
            <Position>
              <LatitudeDegrees>38.91410370357334613800048828125</LatitudeDegrees>
              <LongitudeDegrees>-6.34949021972715854644775390625</LongitudeDegrees>
            </Position>
            <AltitudeMeters>190.399993896484375</AltitudeMeters>
            <DistanceMeters>NAN</DistanceMeters>
          </Trackpoint>
          <Trackpoint>
            <Time>2019-10-09T10:24:34.000Z</Time>
            <Position>
              <LatitudeDegrees>38.9140789769589900970458984375</LatitudeDegrees>
              <LongitudeDegrees>-6.3495303690433502197265625</LongitudeDegrees>
            </Position>
            <AltitudeMeters>190.1999969482421875</AltitudeMeters>
            <DistanceMeters>NAN</DistanceMeters>
          </Trackpoint>
          <Trackpoint>
            <Time>2019-10-09T10:24:35.000Z</Time>
            <Position>
              <LatitudeDegrees>38.91405441798269748687744140625</LatitudeDegrees>
              <LongitudeDegrees>-6.349569261074066162109375</LongitudeDegrees>
            </Position>
            <AltitudeMeters>190.1999969482421875</AltitudeMeters>
            <DistanceMeters>NAN</DistanceMeters>
          </Trackpoint>
          <Trackpoint>
            <Time>2019-10-09T10:24:39.000Z</Time>
            <Position>
              <LatitudeDegrees>38.9139555953443050384521484375</LatitudeDegrees>
              <LongitudeDegrees>-6.3497149385511875152587890625</LongitudeDegrees>
            </Position>
            <AltitudeMeters>190.600006103515625</AltitudeMeters>
            <DistanceMeters>NAN</DistanceMeters>
          </Trackpoint>
          <Trackpoint>
            <Time>2019-10-09T10:24:41.000Z</Time>
            <Position>
              <LatitudeDegrees>38.9139113388955593109130859375</LatitudeDegrees>
              <LongitudeDegrees>-6.3497893698513507843017578125</LongitudeDegrees>
            </Position>
            <AltitudeMeters>190.1999969482421875</AltitudeMeters>
            <DistanceMeters>NAN</DistanceMeters>
          </Trackpoint>
          <Trackpoint>
            <Time>2019-10-09T10:24:43.000Z</Time>
            <Position>
              <LatitudeDegrees>38.91386590898036956787109375</LatitudeDegrees>
              <LongitudeDegrees>-6.34986237622797489166259765625</LongitudeDegrees>
            </Position>
            <AltitudeMeters>190.399993896484375</AltitudeMeters>
            <DistanceMeters>NAN</DistanceMeters>
          </Trackpoint>
          <Trackpoint>
            <Time>2019-10-09T10:24:49.000Z</Time>
            <Position>
              <LatitudeDegrees>38.913711346685886383056640625</LatitudeDegrees>
              <LongitudeDegrees>-6.35007611475884914398193359375</LongitudeDegrees>
            </Position>
            <AltitudeMeters>190.8000030517578125</AltitudeMeters>
            <DistanceMeters>NAN</DistanceMeters>
          </Trackpoint>
          <Trackpoint>
            <Time>2019-10-09T10:24:52.000Z</Time>
            <Position>
              <LatitudeDegrees>38.91364856623113155364990234375</LatitudeDegrees>
              <LongitudeDegrees>-6.35019497014582157135009765625</LongitudeDegrees>
            </Position>
            <AltitudeMeters>190.600006103515625</AltitudeMeters>
            <DistanceMeters>NAN</DistanceMeters>
          </Trackpoint>
          <Trackpoint>
            <Time>2019-10-09T10:24:54.000Z</Time>
            <Position>
              <LatitudeDegrees>38.91360347159206867218017578125</LatitudeDegrees>
              <LongitudeDegrees>-6.3502728380262851715087890625</LongitudeDegrees>
            </Position>
            <AltitudeMeters>190.600006103515625</AltitudeMeters>
            <DistanceMeters>NAN</DistanceMeters>
          </Trackpoint>
          <Trackpoint>
            <Time>2019-10-09T10:25:00.000Z</Time>
            <Position>
              <LatitudeDegrees>38.913465924561023712158203125</LatitudeDegrees>
              <LongitudeDegrees>-6.3504947908222675323486328125</LongitudeDegrees>
            </Position>
            <AltitudeMeters>190.8000030517578125</AltitudeMeters>
            <DistanceMeters>NAN</DistanceMeters>
          </Trackpoint>
          <Trackpoint>
            <Time>2019-10-09T10:25:01.000Z</Time>
            <Position>
              <LatitudeDegrees>38.91344320960342884063720703125</LatitudeDegrees>
              <LongitudeDegrees>-6.35053393431007862091064453125</LongitudeDegrees>
            </Position>
            <AltitudeMeters>190.600006103515625</AltitudeMeters>
            <DistanceMeters>NAN</DistanceMeters>
          </Trackpoint>
          <Trackpoint>
            <Time>2019-10-09T10:25:10.000Z</Time>
            <Position>
              <LatitudeDegrees>38.9132216759026050567626953125</LatitudeDegrees>
              <LongitudeDegrees>-6.35088128037750720977783203125</LongitudeDegrees>
            </Position>
            <AltitudeMeters>190.8000030517578125</AltitudeMeters>
            <DistanceMeters>NAN</DistanceMeters>
          </Trackpoint>
          <Trackpoint>
            <Time>2019-10-09T10:25:16.000Z</Time>
            <Position>
              <LatitudeDegrees>38.913072645664215087890625</LatitudeDegrees>
              <LongitudeDegrees>-6.3511128723621368408203125</LongitudeDegrees>
            </Position>
            <AltitudeMeters>190.8000030517578125</AltitudeMeters>
            <DistanceMeters>NAN</DistanceMeters>
          </Trackpoint>
          <Trackpoint>
            <Time>2019-10-09T10:25:18.000Z</Time>
            <Position>
              <LatitudeDegrees>38.91301942057907581329345703125</LatitudeDegrees>
              <LongitudeDegrees>-6.35119191370904445648193359375</LongitudeDegrees>
            </Position>
            <AltitudeMeters>190.600006103515625</AltitudeMeters>
            <DistanceMeters>NAN</DistanceMeters>
          </Trackpoint>
          <Trackpoint>
            <Time>2019-10-09T10:25:20.000Z</Time>
            <Position>
              <LatitudeDegrees>38.91297164373099803924560546875</LatitudeDegrees>
              <LongitudeDegrees>-6.3512764871120452880859375</LongitudeDegrees>
            </Position>
            <AltitudeMeters>190.399993896484375</AltitudeMeters>
            <DistanceMeters>NAN</DistanceMeters>
          </Trackpoint>
          <Trackpoint>
            <Time>2019-10-09T10:25:22.000Z</Time>
            <Position>
              <LatitudeDegrees>38.91292504034936428070068359375</LatitudeDegrees>
              <LongitudeDegrees>-6.35136298835277557373046875</LongitudeDegrees>
            </Position>
            <AltitudeMeters>190.1999969482421875</AltitudeMeters>
            <DistanceMeters>NAN</DistanceMeters>
          </Trackpoint>
          <Trackpoint>
            <Time>2019-10-09T10:25:25.000Z</Time>
            <Position>
              <LatitudeDegrees>38.912847675383090972900390625</LatitudeDegrees>
              <LongitudeDegrees>-6.35148142464458942413330078125</LongitudeDegrees>
            </Position>
            <AltitudeMeters>189.8000030517578125</AltitudeMeters>
            <DistanceMeters>NAN</DistanceMeters>
          </Trackpoint>
          <Trackpoint>
            <Time>2019-10-09T10:25:26.000Z</Time>
            <Position>
              <LatitudeDegrees>38.9128233678638935089111328125</LatitudeDegrees>
              <LongitudeDegrees>-6.3515220768749713897705078125</LongitudeDegrees>
            </Position>
            <AltitudeMeters>189.600006103515625</AltitudeMeters>
            <DistanceMeters>NAN</DistanceMeters>
          </Trackpoint>
          <Trackpoint>
            <Time>2019-10-09T10:25:28.000Z</Time>
            <Position>
              <LatitudeDegrees>38.9127760939300060272216796875</LatitudeDegrees>
              <LongitudeDegrees>-6.35160195641219615936279296875</LongitudeDegrees>
            </Position>
            <AltitudeMeters>189.600006103515625</AltitudeMeters>
            <DistanceMeters>NAN</DistanceMeters>
          </Trackpoint>
          <Trackpoint>
            <Time>2019-10-09T10:25:34.000Z</Time>
            <Position>
              <LatitudeDegrees>38.91263117082417011260986328125</LatitudeDegrees>
              <LongitudeDegrees>-6.351838074624538421630859375</LongitudeDegrees>
            </Position>
            <AltitudeMeters>190</AltitudeMeters>
            <DistanceMeters>NAN</DistanceMeters>
          </Trackpoint>
          <Trackpoint>
            <Time>2019-10-09T10:25:35.000Z</Time>
            <Position>
              <LatitudeDegrees>38.9126047678291797637939453125</LatitudeDegrees>
              <LongitudeDegrees>-6.35187570936977863311767578125</LongitudeDegrees>
            </Position>
            <AltitudeMeters>190</AltitudeMeters>
            <DistanceMeters>NAN</DistanceMeters>
          </Trackpoint>
          <Trackpoint>
            <Time>2019-10-09T10:25:37.000Z</Time>
            <Position>
              <LatitudeDegrees>38.91255430877208709716796875</LatitudeDegrees>
              <LongitudeDegrees>-6.3519497215747833251953125</LongitudeDegrees>
            </Position>
            <AltitudeMeters>190</AltitudeMeters>
            <DistanceMeters>NAN</DistanceMeters>
          </Trackpoint>
          <Trackpoint>
            <Time>2019-10-09T10:25:43.000Z</Time>
            <Position>
              <LatitudeDegrees>38.9124160073697566986083984375</LatitudeDegrees>
              <LongitudeDegrees>-6.35218047536909580230712890625</LongitudeDegrees>
            </Position>
            <AltitudeMeters>189.600006103515625</AltitudeMeters>
            <DistanceMeters>NAN</DistanceMeters>
          </Trackpoint>
          <Trackpoint>
            <Time>2019-10-09T10:25:45.000Z</Time>
            <Position>
              <LatitudeDegrees>38.91236362047493457794189453125</LatitudeDegrees>
              <LongitudeDegrees>-6.35226345621049404144287109375</LongitudeDegrees>
            </Position>
            <AltitudeMeters>189</AltitudeMeters>
            <DistanceMeters>NAN</DistanceMeters>
          </Trackpoint>
          <Trackpoint>
            <Time>2019-10-09T10:25:46.000Z</Time>
            <Position>
              <LatitudeDegrees>38.91233436763286590576171875</LatitudeDegrees>
              <LongitudeDegrees>-6.352306790649890899658203125</LongitudeDegrees>
            </Position>
            <AltitudeMeters>189</AltitudeMeters>
            <DistanceMeters>NAN</DistanceMeters>
          </Trackpoint>
          <Trackpoint>
            <Time>2019-10-09T10:25:50.000Z</Time>
            <Position>
              <LatitudeDegrees>38.912214003503322601318359375</LatitudeDegrees>
              <LongitudeDegrees>-6.35249479673802852630615234375</LongitudeDegrees>
            </Position>
            <AltitudeMeters>188.399993896484375</AltitudeMeters>
            <DistanceMeters>NAN</DistanceMeters>
          </Trackpoint>
          <Trackpoint>
            <Time>2019-10-09T10:25:51.000Z</Time>
            <Position>
              <LatitudeDegrees>38.9121861755847930908203125</LatitudeDegrees>
              <LongitudeDegrees>-6.35254173539578914642333984375</LongitudeDegrees>
            </Position>
            <AltitudeMeters>187.8000030517578125</AltitudeMeters>
            <DistanceMeters>NAN</DistanceMeters>
          </Trackpoint>
          <Trackpoint>
            <Time>2019-10-09T10:25:54.000Z</Time>
            <Position>
              <LatitudeDegrees>38.9121142588555812835693359375</LatitudeDegrees>
              <LongitudeDegrees>-6.352673582732677459716796875</LongitudeDegrees>
            </Position>
            <AltitudeMeters>188.600006103515625</AltitudeMeters>
            <DistanceMeters>NAN</DistanceMeters>
          </Trackpoint>
          <Trackpoint>
            <Time>2019-10-09T10:25:56.000Z</Time>
            <Position>
              <LatitudeDegrees>38.91208584420382976531982421875</LatitudeDegrees>
              <LongitudeDegrees>-6.352728568017482757568359375</LongitudeDegrees>
            </Position>
            <AltitudeMeters>189</AltitudeMeters>
            <DistanceMeters>NAN</DistanceMeters>
          </Trackpoint>
          <Trackpoint>
            <Time>2019-10-09T10:25:59.000Z</Time>
            <Position>
              <LatitudeDegrees>38.912083916366100311279296875</LatitudeDegrees>
              <LongitudeDegrees>-6.35273083113133907318115234375</LongitudeDegrees>
            </Position>
            <AltitudeMeters>189.8000030517578125</AltitudeMeters>
            <DistanceMeters>NAN</DistanceMeters>
          </Trackpoint>
          <Trackpoint>
            <Time>2019-10-09T10:26:01.000Z</Time>
            <Position>
              <LatitudeDegrees>38.912083916366100311279296875</LatitudeDegrees>
              <LongitudeDegrees>-6.35273083113133907318115234375</LongitudeDegrees>
            </Position>
            <AltitudeMeters>189.600006103515625</AltitudeMeters>
            <DistanceMeters>NAN</DistanceMeters>
          </Trackpoint>
          <Trackpoint>
            <Time>2019-10-09T10:26:05.000Z</Time>
            <Position>
              <LatitudeDegrees>38.912083916366100311279296875</LatitudeDegrees>
              <LongitudeDegrees>-6.35273083113133907318115234375</LongitudeDegrees>
            </Position>
            <AltitudeMeters>189.600006103515625</AltitudeMeters>
            <DistanceMeters>NAN</DistanceMeters>
          </Trackpoint>
          <Trackpoint>
            <Time>2019-10-09T10:26:07.000Z</Time>
            <Position>
              <LatitudeDegrees>38.912083916366100311279296875</LatitudeDegrees>
              <LongitudeDegrees>-6.35273083113133907318115234375</LongitudeDegrees>
            </Position>
            <AltitudeMeters>189.8000030517578125</AltitudeMeters>
            <DistanceMeters>NAN</DistanceMeters>
          </Trackpoint>
          <Trackpoint>
            <Time>2019-10-09T10:26:12.000Z</Time>
            <Position>
              <LatitudeDegrees>38.912083916366100311279296875</LatitudeDegrees>
              <LongitudeDegrees>-6.35273083113133907318115234375</LongitudeDegrees>
            </Position>
            <AltitudeMeters>189.600006103515625</AltitudeMeters>
            <DistanceMeters>NAN</DistanceMeters>
          </Trackpoint>
          <Trackpoint>
            <Time>2019-10-09T10:26:15.000Z</Time>
            <Position>
              <LatitudeDegrees>38.912083916366100311279296875</LatitudeDegrees>
              <LongitudeDegrees>-6.35273083113133907318115234375</LongitudeDegrees>
            </Position>
            <AltitudeMeters>189.600006103515625</AltitudeMeters>
            <DistanceMeters>NAN</DistanceMeters>
          </Trackpoint>
          <Trackpoint>
            <Time>2019-10-09T10:26:30.000Z</Time>
            <Position>
              <LatitudeDegrees>38.912083916366100311279296875</LatitudeDegrees>
              <LongitudeDegrees>-6.35273083113133907318115234375</LongitudeDegrees>
            </Position>
            <AltitudeMeters>189.600006103515625</AltitudeMeters>
            <DistanceMeters>NAN</DistanceMeters>
          </Trackpoint>
          <Trackpoint>
            <Time>2019-10-09T10:26:32.000Z</Time>
            <Position>
              <LatitudeDegrees>38.912083916366100311279296875</LatitudeDegrees>
              <LongitudeDegrees>-6.35273083113133907318115234375</LongitudeDegrees>
            </Position>
            <AltitudeMeters>189.8000030517578125</AltitudeMeters>
            <DistanceMeters>NAN</DistanceMeters>
          </Trackpoint>
          <Trackpoint>
            <Time>2019-10-09T10:26:35.000Z</Time>
            <Position>
              <LatitudeDegrees>38.912083916366100311279296875</LatitudeDegrees>
              <LongitudeDegrees>-6.35273083113133907318115234375</LongitudeDegrees>
            </Position>
            <AltitudeMeters>190.1999969482421875</AltitudeMeters>
            <DistanceMeters>NAN</DistanceMeters>
          </Trackpoint>
          <Trackpoint>
            <Time>2019-10-09T10:26:36.000Z</Time>
            <Position>
              <LatitudeDegrees>38.912083916366100311279296875</LatitudeDegrees>
              <LongitudeDegrees>-6.35273083113133907318115234375</LongitudeDegrees>
            </Position>
            <AltitudeMeters>190</AltitudeMeters>
            <DistanceMeters>NAN</DistanceMeters>
          </Trackpoint>
          <Trackpoint>
            <Time>2019-10-09T10:26:38.000Z</Time>
            <Position>
              <LatitudeDegrees>38.9120810665190219879150390625</LatitudeDegrees>
              <LongitudeDegrees>-6.3527334295213222503662109375</LongitudeDegrees>
            </Position>
            <AltitudeMeters>190</AltitudeMeters>
            <DistanceMeters>NAN</DistanceMeters>
          </Trackpoint>
          <Trackpoint>
            <Time>2019-10-09T10:26:39.000Z</Time>
            <Position>
              <LatitudeDegrees>38.91206975094974040985107421875</LatitudeDegrees>
              <LongitudeDegrees>-6.35274357162415981292724609375</LongitudeDegrees>
            </Position>
            <AltitudeMeters>189.399993896484375</AltitudeMeters>
            <DistanceMeters>NAN</DistanceMeters>
          </Trackpoint>
          <Trackpoint>
            <Time>2019-10-09T10:26:41.000Z</Time>
            <Position>
              <LatitudeDegrees>38.91203974373638629913330078125</LatitudeDegrees>
              <LongitudeDegrees>-6.35278053581714630126953125</LongitudeDegrees>
            </Position>
            <AltitudeMeters>189.399993896484375</AltitudeMeters>
            <DistanceMeters>NAN</DistanceMeters>
          </Trackpoint>
          <Trackpoint>
            <Time>2019-10-09T10:26:42.000Z</Time>
            <Position>
              <LatitudeDegrees>38.91202096827328205108642578125</LatitudeDegrees>
              <LongitudeDegrees>-6.3528031669557094573974609375</LongitudeDegrees>
            </Position>
            <AltitudeMeters>189.1999969482421875</AltitudeMeters>
            <DistanceMeters>NAN</DistanceMeters>
          </Trackpoint>
          <Trackpoint>
            <Time>2019-10-09T10:26:43.000Z</Time>
            <Position>
              <LatitudeDegrees>38.9120012708008289337158203125</LatitudeDegrees>
              <LongitudeDegrees>-6.35282772593200206756591796875</LongitudeDegrees>
            </Position>
            <AltitudeMeters>188.8000030517578125</AltitudeMeters>
            <DistanceMeters>NAN</DistanceMeters>
          </Trackpoint>
          <Trackpoint>
            <Time>2019-10-09T10:26:44.000Z</Time>
            <Position>
              <LatitudeDegrees>38.91198107041418552398681640625</LatitudeDegrees>
              <LongitudeDegrees>-6.35285639204084873199462890625</LongitudeDegrees>
            </Position>
            <AltitudeMeters>188.8000030517578125</AltitudeMeters>
            <DistanceMeters>NAN</DistanceMeters>
          </Trackpoint>
          <Trackpoint>
            <Time>2019-10-09T10:26:46.000Z</Time>
            <Position>
              <LatitudeDegrees>38.9119412563741207122802734375</LatitudeDegrees>
              <LongitudeDegrees>-6.3529228605329990386962890625</LongitudeDegrees>
            </Position>
            <AltitudeMeters>189.399993896484375</AltitudeMeters>
            <DistanceMeters>NAN</DistanceMeters>
          </Trackpoint>
          <Trackpoint>
            <Time>2019-10-09T10:26:48.000Z</Time>
            <Position>
              <LatitudeDegrees>38.91189876012504100799560546875</LatitudeDegrees>
              <LongitudeDegrees>-6.352993436157703399658203125</LongitudeDegrees>
            </Position>
            <AltitudeMeters>189</AltitudeMeters>
            <DistanceMeters>NAN</DistanceMeters>
          </Trackpoint>
          <Trackpoint>
            <Time>2019-10-09T10:26:51.000Z</Time>
            <Position>
              <LatitudeDegrees>38.91183002851903438568115234375</LatitudeDegrees>
              <LongitudeDegrees>-6.3530978746712207794189453125</LongitudeDegrees>
            </Position>
            <AltitudeMeters>189</AltitudeMeters>
            <DistanceMeters>NAN</DistanceMeters>
          </Trackpoint>
          <Trackpoint>
            <Time>2019-10-09T10:26:59.000Z</Time>
            <Position>
              <LatitudeDegrees>38.91164906322956085205078125</LatitudeDegrees>
              <LongitudeDegrees>-6.35340037755668163299560546875</LongitudeDegrees>
            </Position>
            <AltitudeMeters>189.8000030517578125</AltitudeMeters>
            <DistanceMeters>NAN</DistanceMeters>
          </Trackpoint>
          <Trackpoint>
            <Time>2019-10-09T10:27:02.000Z</Time>
            <Position>
              <LatitudeDegrees>38.91158075071871280670166015625</LatitudeDegrees>
              <LongitudeDegrees>-6.35350749827921390533447265625</LongitudeDegrees>
            </Position>
            <AltitudeMeters>189.600006103515625</AltitudeMeters>
            <DistanceMeters>NAN</DistanceMeters>
          </Trackpoint>
          <Trackpoint>
            <Time>2019-10-09T10:27:03.000Z</Time>
            <Position>
              <LatitudeDegrees>38.91155920922756195068359375</LatitudeDegrees>
              <LongitudeDegrees>-6.3535458035767078399658203125</LongitudeDegrees>
            </Position>
            <AltitudeMeters>190.1999969482421875</AltitudeMeters>
            <DistanceMeters>NAN</DistanceMeters>
          </Trackpoint>
          <Trackpoint>
            <Time>2019-10-09T10:27:06.000Z</Time>
            <Position>
              <LatitudeDegrees>38.91149039380252361297607421875</LatitudeDegrees>
              <LongitudeDegrees>-6.3536557741463184356689453125</LongitudeDegrees>
            </Position>
            <AltitudeMeters>190.399993896484375</AltitudeMeters>
            <DistanceMeters>NAN</DistanceMeters>
          </Trackpoint>
          <Trackpoint>
            <Time>2019-10-09T10:27:11.000Z</Time>
            <Position>
              <LatitudeDegrees>38.91137908212840557098388671875</LatitudeDegrees>
              <LongitudeDegrees>-6.35384009219706058502197265625</LongitudeDegrees>
            </Position>
            <AltitudeMeters>191</AltitudeMeters>
            <DistanceMeters>NAN</DistanceMeters>
          </Trackpoint>
          <Trackpoint>
            <Time>2019-10-09T10:27:12.000Z</Time>
            <Position>
              <LatitudeDegrees>38.91135645098984241485595703125</LatitudeDegrees>
              <LongitudeDegrees>-6.3538750447332859039306640625</LongitudeDegrees>
            </Position>
            <AltitudeMeters>191</AltitudeMeters>
            <DistanceMeters>NAN</DistanceMeters>
          </Trackpoint>
          <Trackpoint>
            <Time>2019-10-09T10:27:17.000Z</Time>
            <Position>
              <LatitudeDegrees>38.9112381823360919952392578125</LatitudeDegrees>
              <LongitudeDegrees>-6.3540681637823581695556640625</LongitudeDegrees>
            </Position>
            <AltitudeMeters>190.399993896484375</AltitudeMeters>
            <DistanceMeters>NAN</DistanceMeters>
          </Trackpoint>
          <Trackpoint>
            <Time>2019-10-09T10:27:18.000Z</Time>
            <Position>
              <LatitudeDegrees>38.91120960004627704620361328125</LatitudeDegrees>
              <LongitudeDegrees>-6.35410420596599578857421875</LongitudeDegrees>
            </Position>
            <AltitudeMeters>190.399993896484375</AltitudeMeters>
            <DistanceMeters>NAN</DistanceMeters>
          </Trackpoint>
          <Trackpoint>
            <Time>2019-10-09T10:27:21.000Z</Time>
            <Position>
              <LatitudeDegrees>38.91113097779452800750732421875</LatitudeDegrees>
              <LongitudeDegrees>-6.35421996004879474639892578125</LongitudeDegrees>
            </Position>
            <AltitudeMeters>190.8000030517578125</AltitudeMeters>
            <DistanceMeters>NAN</DistanceMeters>
          </Trackpoint>
          <Trackpoint>
            <Time>2019-10-09T10:27:24.000Z</Time>
            <Position>
              <LatitudeDegrees>38.911056630313396453857421875</LatitudeDegrees>
              <LongitudeDegrees>-6.35436228476464748382568359375</LongitudeDegrees>
            </Position>
            <AltitudeMeters>189.8000030517578125</AltitudeMeters>
            <DistanceMeters>NAN</DistanceMeters>
          </Trackpoint>
          <Trackpoint>
            <Time>2019-10-09T10:27:27.000Z</Time>
            <Position>
              <LatitudeDegrees>38.91095898114144802093505859375</LatitudeDegrees>
              <LongitudeDegrees>-6.35452221147716045379638671875</LongitudeDegrees>
            </Position>
            <AltitudeMeters>189.1999969482421875</AltitudeMeters>
            <DistanceMeters>NAN</DistanceMeters>
          </Trackpoint>
          <Trackpoint>
            <Time>2019-10-09T10:27:30.000Z</Time>
            <Position>
              <LatitudeDegrees>38.91086694784462451934814453125</LatitudeDegrees>
              <LongitudeDegrees>-6.35467744432389736175537109375</LongitudeDegrees>
            </Position>
            <AltitudeMeters>188.600006103515625</AltitudeMeters>
            <DistanceMeters>NAN</DistanceMeters>
          </Trackpoint>
          <Trackpoint>
            <Time>2019-10-09T10:27:34.000Z</Time>
            <Position>
              <LatitudeDegrees>38.910756222903728485107421875</LatitudeDegrees>
              <LongitudeDegrees>-6.3548460043966770172119140625</LongitudeDegrees>
            </Position>
            <AltitudeMeters>188.1999969482421875</AltitudeMeters>
            <DistanceMeters>NAN</DistanceMeters>
          </Trackpoint>
          <Trackpoint>
            <Time>2019-10-09T10:27:36.000Z</Time>
            <Position>
              <LatitudeDegrees>38.91070366837084293365478515625</LatitudeDegrees>
              <LongitudeDegrees>-6.3549350202083587646484375</LongitudeDegrees>
            </Position>
            <AltitudeMeters>187.600006103515625</AltitudeMeters>
            <DistanceMeters>NAN</DistanceMeters>
          </Trackpoint>
          <Trackpoint>
            <Time>2019-10-09T10:27:37.000Z</Time>
            <Position>
              <LatitudeDegrees>38.9106792770326137542724609375</LatitudeDegrees>
              <LongitudeDegrees>-6.3549792766571044921875</LongitudeDegrees>
            </Position>
            <AltitudeMeters>187.1999969482421875</AltitudeMeters>
            <DistanceMeters>NAN</DistanceMeters>
          </Trackpoint>
          <Trackpoint>
            <Time>2019-10-09T10:27:39.000Z</Time>
            <Position>
              <LatitudeDegrees>38.91063292510807514190673828125</LatitudeDegrees>
              <LongitudeDegrees>-6.35505094192922115325927734375</LongitudeDegrees>
            </Position>
            <AltitudeMeters>187.600006103515625</AltitudeMeters>
            <DistanceMeters>NAN</DistanceMeters>
          </Trackpoint>
          <Trackpoint>
            <Time>2019-10-09T10:27:40.000Z</Time>
            <Position>
              <LatitudeDegrees>38.9106085337698459625244140625</LatitudeDegrees>
              <LongitudeDegrees>-6.355074830353260040283203125</LongitudeDegrees>
            </Position>
            <AltitudeMeters>188</AltitudeMeters>
            <DistanceMeters>NAN</DistanceMeters>
          </Trackpoint>
          <Trackpoint>
            <Time>2019-10-09T10:27:41.000Z</Time>
            <Position>
              <LatitudeDegrees>38.91058690845966339111328125</LatitudeDegrees>
              <LongitudeDegrees>-6.35509503073990345001220703125</LongitudeDegrees>
            </Position>
            <AltitudeMeters>188</AltitudeMeters>
            <DistanceMeters>NAN</DistanceMeters>
          </Trackpoint>
          <Trackpoint>
            <Time>2019-10-09T10:27:43.000Z</Time>
            <Position>
              <LatitudeDegrees>38.910559080541133880615234375</LatitudeDegrees>
              <LongitudeDegrees>-6.3551474176347255706787109375</LongitudeDegrees>
            </Position>
            <AltitudeMeters>188</AltitudeMeters>
            <DistanceMeters>NAN</DistanceMeters>
          </Trackpoint>
          <Trackpoint>
            <Time>2019-10-09T10:27:44.000Z</Time>
            <Position>
              <LatitudeDegrees>38.9105548895895481109619140625</LatitudeDegrees>
              <LongitudeDegrees>-6.355183124542236328125</LongitudeDegrees>
            </Position>
            <AltitudeMeters>188.1999969482421875</AltitudeMeters>
            <DistanceMeters>NAN</DistanceMeters>
          </Trackpoint>
          <Trackpoint>
            <Time>2019-10-09T10:27:45.000Z</Time>
            <Position>
              <LatitudeDegrees>38.91055648215115070343017578125</LatitudeDegrees>
              <LongitudeDegrees>-6.355219669640064239501953125</LongitudeDegrees>
            </Position>
            <AltitudeMeters>188.399993896484375</AltitudeMeters>
            <DistanceMeters>NAN</DistanceMeters>
          </Trackpoint>
          <Trackpoint>
            <Time>2019-10-09T10:27:48.000Z</Time>
            <Position>
              <LatitudeDegrees>38.910561762750148773193359375</LatitudeDegrees>
              <LongitudeDegrees>-6.35529452003538608551025390625</LongitudeDegrees>
            </Position>
            <AltitudeMeters>188.399993896484375</AltitudeMeters>
            <DistanceMeters>NAN</DistanceMeters>
          </Trackpoint>
          <Trackpoint>
            <Time>2019-10-09T10:27:49.000Z</Time>
            <Position>
              <LatitudeDegrees>38.91056017018854618072509765625</LatitudeDegrees>
              <LongitudeDegrees>-6.355306841433048248291015625</LongitudeDegrees>
            </Position>
            <AltitudeMeters>188.600006103515625</AltitudeMeters>
            <DistanceMeters>NAN</DistanceMeters>
          </Trackpoint>
          <Trackpoint>
            <Time>2019-10-09T10:27:52.000Z</Time>
            <Position>
              <LatitudeDegrees>38.91057022847235202789306640625</LatitudeDegrees>
              <LongitudeDegrees>-6.3553650118410587310791015625</LongitudeDegrees>
            </Position>
            <AltitudeMeters>189.1999969482421875</AltitudeMeters>
            <DistanceMeters>NAN</DistanceMeters>
          </Trackpoint>
          <Trackpoint>
            <Time>2019-10-09T10:27:53.000Z</Time>
            <Position>
              <LatitudeDegrees>38.91058129258453845977783203125</LatitudeDegrees>
              <LongitudeDegrees>-6.3553869724273681640625</LongitudeDegrees>
            </Position>
            <AltitudeMeters>189.1999969482421875</AltitudeMeters>
            <DistanceMeters>NAN</DistanceMeters>
          </Trackpoint>
          <Trackpoint>
            <Time>2019-10-09T10:27:55.000Z</Time>
            <Position>
              <LatitudeDegrees>38.9106251299381256103515625</LatitudeDegrees>
              <LongitudeDegrees>-6.3554226793348789215087890625</LongitudeDegrees>
            </Position>
            <AltitudeMeters>189.1999969482421875</AltitudeMeters>
            <DistanceMeters>NAN</DistanceMeters>
          </Trackpoint>
          <Trackpoint>
            <Time>2019-10-09T10:27:57.000Z</Time>
            <Position>
              <LatitudeDegrees>38.910690844058990478515625</LatitudeDegrees>
              <LongitudeDegrees>-6.3554538600146770477294921875</LongitudeDegrees>
            </Position>
            <AltitudeMeters>188.8000030517578125</AltitudeMeters>
            <DistanceMeters>NAN</DistanceMeters>
          </Trackpoint>
          <Trackpoint>
            <Time>2019-10-09T10:28:00.000Z</Time>
            <Position>
              <LatitudeDegrees>38.9107983000576496124267578125</LatitudeDegrees>
              <LongitudeDegrees>-6.35550272651016712188720703125</LongitudeDegrees>
            </Position>
            <AltitudeMeters>189</AltitudeMeters>
            <DistanceMeters>NAN</DistanceMeters>
          </Trackpoint>
          <Trackpoint>
            <Time>2019-10-09T10:28:02.000Z</Time>
            <Position>
              <LatitudeDegrees>38.91086854040622711181640625</LatitudeDegrees>
              <LongitudeDegrees>-6.35553248226642608642578125</LongitudeDegrees>
            </Position>
            <AltitudeMeters>189.1999969482421875</AltitudeMeters>
            <DistanceMeters>NAN</DistanceMeters>
          </Trackpoint>
          <Trackpoint>
            <Time>2019-10-09T10:28:04.000Z</Time>
            <Position>
              <LatitudeDegrees>38.9109241962432861328125</LatitudeDegrees>
              <LongitudeDegrees>-6.355567015707492828369140625</LongitudeDegrees>
            </Position>
            <AltitudeMeters>189</AltitudeMeters>
            <DistanceMeters>NAN</DistanceMeters>
          </Trackpoint>
          <Trackpoint>
            <Time>2019-10-09T10:28:05.000Z</Time>
            <Position>
              <LatitudeDegrees>38.9109327457845211029052734375</LatitudeDegrees>
              <LongitudeDegrees>-6.3555899821221828460693359375</LongitudeDegrees>
            </Position>
            <AltitudeMeters>189</AltitudeMeters>
            <DistanceMeters>NAN</DistanceMeters>
          </Trackpoint>
          <Trackpoint>
            <Time>2019-10-09T10:28:07.000Z</Time>
            <Position>
              <LatitudeDegrees>38.91090768389403820037841796875</LatitudeDegrees>
              <LongitudeDegrees>-6.355622671544551849365234375</LongitudeDegrees>
            </Position>
            <AltitudeMeters>189.1999969482421875</AltitudeMeters>
            <DistanceMeters>NAN</DistanceMeters>
          </Trackpoint>
          <Trackpoint>
            <Time>2019-10-09T10:28:10.000Z</Time>
            <Position>
              <LatitudeDegrees>38.91080081462860107421875</LatitudeDegrees>
              <LongitudeDegrees>-6.35559911839663982391357421875</LongitudeDegrees>
            </Position>
            <AltitudeMeters>189</AltitudeMeters>
            <DistanceMeters>NAN</DistanceMeters>
          </Trackpoint>
          <Trackpoint>
            <Time>2019-10-09T10:28:11.000Z</Time>
            <Position>
              <LatitudeDegrees>38.91075848601758480072021484375</LatitudeDegrees>
              <LongitudeDegrees>-6.35558252222836017608642578125</LongitudeDegrees>
            </Position>
            <AltitudeMeters>189</AltitudeMeters>
            <DistanceMeters>NAN</DistanceMeters>
          </Trackpoint>
          <Trackpoint>
            <Time>2019-10-09T10:28:13.000Z</Time>
            <Position>
              <LatitudeDegrees>38.91067382879555225372314453125</LatitudeDegrees>
              <LongitudeDegrees>-6.35554396547377109527587890625</LongitudeDegrees>
            </Position>
            <AltitudeMeters>189.1999969482421875</AltitudeMeters>
            <DistanceMeters>NAN</DistanceMeters>
          </Trackpoint>
          <Trackpoint>
            <Time>2019-10-09T10:28:16.000Z</Time>
            <Position>
              <LatitudeDegrees>38.9105444960296154022216796875</LatitudeDegrees>
              <LongitudeDegrees>-6.35548688471317291259765625</LongitudeDegrees>
            </Position>
            <AltitudeMeters>189.399993896484375</AltitudeMeters>
            <DistanceMeters>NAN</DistanceMeters>
          </Trackpoint>
          <Trackpoint>
            <Time>2019-10-09T10:28:18.000Z</Time>
            <Position>
              <LatitudeDegrees>38.91046294011175632476806640625</LatitudeDegrees>
              <LongitudeDegrees>-6.3554552011191844940185546875</LongitudeDegrees>
            </Position>
            <AltitudeMeters>189.1999969482421875</AltitudeMeters>
            <DistanceMeters>NAN</DistanceMeters>
          </Trackpoint>
          <Trackpoint>
            <Time>2019-10-09T10:28:19.000Z</Time>
            <Position>
              <LatitudeDegrees>38.91042337752878665924072265625</LatitudeDegrees>
              <LongitudeDegrees>-6.35543701238930225372314453125</LongitudeDegrees>
            </Position>
            <AltitudeMeters>189.1999969482421875</AltitudeMeters>
            <DistanceMeters>NAN</DistanceMeters>
          </Trackpoint>
          <Trackpoint>
            <Time>2019-10-09T10:28:22.000Z</Time>
            <Position>
              <LatitudeDegrees>38.91030301339924335479736328125</LatitudeDegrees>
              <LongitudeDegrees>-6.355377919971942901611328125</LongitudeDegrees>
            </Position>
            <AltitudeMeters>189.399993896484375</AltitudeMeters>
            <DistanceMeters>NAN</DistanceMeters>
          </Trackpoint>
          <Trackpoint>
            <Time>2019-10-09T10:28:24.000Z</Time>
            <Position>
              <LatitudeDegrees>38.9102233015000820159912109375</LatitudeDegrees>
              <LongitudeDegrees>-6.3553368486464023590087890625</LongitudeDegrees>
            </Position>
            <AltitudeMeters>189.399993896484375</AltitudeMeters>
            <DistanceMeters>NAN</DistanceMeters>
          </Trackpoint>
          <Trackpoint>
            <Time>2019-10-09T10:28:25.000Z</Time>
            <Position>
              <LatitudeDegrees>38.910181224346160888671875</LatitudeDegrees>
              <LongitudeDegrees>-6.35531564243137836456298828125</LongitudeDegrees>
            </Position>
            <AltitudeMeters>189.399993896484375</AltitudeMeters>
            <DistanceMeters>NAN</DistanceMeters>
          </Trackpoint>
          <Trackpoint>
            <Time>2019-10-09T10:28:32.000Z</Time>
            <Position>
              <LatitudeDegrees>38.90988341532647609710693359375</LatitudeDegrees>
              <LongitudeDegrees>-6.3551591522991657257080078125</LongitudeDegrees>
            </Position>
            <AltitudeMeters>189.1999969482421875</AltitudeMeters>
            <DistanceMeters>NAN</DistanceMeters>
          </Trackpoint>
          <Trackpoint>
            <Time>2019-10-09T10:28:42.000Z</Time>
            <Position>
              <LatitudeDegrees>38.909465409815311431884765625</LatitudeDegrees>
              <LongitudeDegrees>-6.35494868271052837371826171875</LongitudeDegrees>
            </Position>
            <AltitudeMeters>189.399993896484375</AltitudeMeters>
            <DistanceMeters>NAN</DistanceMeters>
          </Trackpoint>
          <Trackpoint>
            <Time>2019-10-09T10:28:52.000Z</Time>
            <Position>
              <LatitudeDegrees>38.90904019586741924285888671875</LatitudeDegrees>
              <LongitudeDegrees>-6.35474927723407745361328125</LongitudeDegrees>
            </Position>
            <AltitudeMeters>189.399993896484375</AltitudeMeters>
            <DistanceMeters>NAN</DistanceMeters>
          </Trackpoint>
          <Trackpoint>
            <Time>2019-10-09T10:28:57.000Z</Time>
            <Position>
              <LatitudeDegrees>38.90882545150816440582275390625</LatitudeDegrees>
              <LongitudeDegrees>-6.35464156977832317352294921875</LongitudeDegrees>
            </Position>
            <AltitudeMeters>189.600006103515625</AltitudeMeters>
            <DistanceMeters>NAN</DistanceMeters>
          </Trackpoint>
          <Trackpoint>
            <Time>2019-10-09T10:29:00.000Z</Time>
            <Position>
              <LatitudeDegrees>38.908699639141559600830078125</LatitudeDegrees>
              <LongitudeDegrees>-6.3545767776668071746826171875</LongitudeDegrees>
            </Position>
            <AltitudeMeters>189.8000030517578125</AltitudeMeters>
            <DistanceMeters>NAN</DistanceMeters>
          </Trackpoint>
          <Trackpoint>
            <Time>2019-10-09T10:29:01.000Z</Time>
            <Position>
              <LatitudeDegrees>38.90865697525441646575927734375</LatitudeDegrees>
              <LongitudeDegrees>-6.35455741547048091888427734375</LongitudeDegrees>
            </Position>
            <AltitudeMeters>189.8000030517578125</AltitudeMeters>
            <DistanceMeters>NAN</DistanceMeters>
          </Trackpoint>
          <Trackpoint>
            <Time>2019-10-09T10:29:08.000Z</Time>
            <Position>
              <LatitudeDegrees>38.908381797373294830322265625</LatitudeDegrees>
              <LongitudeDegrees>-6.354415006935596466064453125</LongitudeDegrees>
            </Position>
            <AltitudeMeters>190.1999969482421875</AltitudeMeters>
            <DistanceMeters>NAN</DistanceMeters>
          </Trackpoint>
          <Trackpoint>
            <Time>2019-10-09T10:29:12.000Z</Time>
            <Position>
              <LatitudeDegrees>38.90823737718164920806884765625</LatitudeDegrees>
              <LongitudeDegrees>-6.35434116236865520477294921875</LongitudeDegrees>
            </Position>
            <AltitudeMeters>190.1999969482421875</AltitudeMeters>
            <DistanceMeters>NAN</DistanceMeters>
          </Trackpoint>
          <Trackpoint>
            <Time>2019-10-09T10:29:14.000Z</Time>
            <Position>
              <LatitudeDegrees>38.9081601798534393310546875</LatitudeDegrees>
              <LongitudeDegrees>-6.35430671274662017822265625</LongitudeDegrees>
            </Position>
            <AltitudeMeters>190</AltitudeMeters>
            <DistanceMeters>NAN</DistanceMeters>
          </Trackpoint>
          <Trackpoint>
            <Time>2019-10-09T10:29:17.000Z</Time>
            <Position>
              <LatitudeDegrees>38.908035792410373687744140625</LatitudeDegrees>
              <LongitudeDegrees>-6.3542525656521320343017578125</LongitudeDegrees>
            </Position>
            <AltitudeMeters>190</AltitudeMeters>
            <DistanceMeters>NAN</DistanceMeters>
          </Trackpoint>
          <Trackpoint>
            <Time>2019-10-09T10:29:23.000Z</Time>
            <Position>
              <LatitudeDegrees>38.90777737833559513092041015625</LatitudeDegrees>
              <LongitudeDegrees>-6.35417503304779529571533203125</LongitudeDegrees>
            </Position>
            <AltitudeMeters>190.1999969482421875</AltitudeMeters>
            <DistanceMeters>NAN</DistanceMeters>
          </Trackpoint>
          <Trackpoint>
            <Time>2019-10-09T10:29:24.000Z</Time>
            <Position>
              <LatitudeDegrees>38.90773379243910312652587890625</LatitudeDegrees>
              <LongitudeDegrees>-6.354166902601718902587890625</LongitudeDegrees>
            </Position>
            <AltitudeMeters>190.1999969482421875</AltitudeMeters>
            <DistanceMeters>NAN</DistanceMeters>
          </Trackpoint>
          <Trackpoint>
            <Time>2019-10-09T10:29:26.000Z</Time>
            <Position>
              <LatitudeDegrees>38.90764712356030941009521484375</LatitudeDegrees>
              <LongitudeDegrees>-6.354150474071502685546875</LongitudeDegrees>
            </Position>
            <AltitudeMeters>190.399993896484375</AltitudeMeters>
            <DistanceMeters>NAN</DistanceMeters>
          </Trackpoint>
          <Trackpoint>
            <Time>2019-10-09T10:29:30.000Z</Time>
            <Position>
              <LatitudeDegrees>38.90748334117233753204345703125</LatitudeDegrees>
              <LongitudeDegrees>-6.354097835719585418701171875</LongitudeDegrees>
            </Position>
            <AltitudeMeters>190.600006103515625</AltitudeMeters>
            <DistanceMeters>NAN</DistanceMeters>
          </Trackpoint>
          <Trackpoint>
            <Time>2019-10-09T10:29:33.000Z</Time>
            <Position>
              <LatitudeDegrees>38.90736046247184276580810546875</LatitudeDegrees>
              <LongitudeDegrees>-6.3540577702224254608154296875</LongitudeDegrees>
            </Position>
            <AltitudeMeters>190.600006103515625</AltitudeMeters>
            <DistanceMeters>NAN</DistanceMeters>
          </Trackpoint>
          <Trackpoint>
            <Time>2019-10-09T10:29:35.000Z</Time>
            <Position>
              <LatitudeDegrees>38.90728334896266460418701171875</LatitudeDegrees>
              <LongitudeDegrees>-6.35404360480606555938720703125</LongitudeDegrees>
            </Position>
            <AltitudeMeters>190.399993896484375</AltitudeMeters>
            <DistanceMeters>NAN</DistanceMeters>
          </Trackpoint>
          <Trackpoint>
            <Time>2019-10-09T10:29:37.000Z</Time>
            <Position>
              <LatitudeDegrees>38.9072084985673427581787109375</LatitudeDegrees>
              <LongitudeDegrees>-6.354046203196048736572265625</LongitudeDegrees>
            </Position>
            <AltitudeMeters>190.399993896484375</AltitudeMeters>
            <DistanceMeters>NAN</DistanceMeters>
          </Trackpoint>
          <Trackpoint>
            <Time>2019-10-09T10:29:39.000Z</Time>
            <Position>
              <LatitudeDegrees>38.907139934599399566650390625</LatitudeDegrees>
              <LongitudeDegrees>-6.354086436331272125244140625</LongitudeDegrees>
            </Position>
            <AltitudeMeters>190.1999969482421875</AltitudeMeters>
            <DistanceMeters>NAN</DistanceMeters>
          </Trackpoint>
          <Trackpoint>
            <Time>2019-10-09T10:29:40.000Z</Time>
            <Position>
              <LatitudeDegrees>38.9071114361286163330078125</LatitudeDegrees>
              <LongitudeDegrees>-6.3541244901716709136962890625</LongitudeDegrees>
            </Position>
            <AltitudeMeters>190.1999969482421875</AltitudeMeters>
            <DistanceMeters>NAN</DistanceMeters>
          </Trackpoint>
          <Trackpoint>
            <Time>2019-10-09T10:29:44.000Z</Time>
            <Position>
              <LatitudeDegrees>38.90702267177402973175048828125</LatitudeDegrees>
              <LongitudeDegrees>-6.3543085567653179168701171875</LongitudeDegrees>
            </Position>
            <AltitudeMeters>190.600006103515625</AltitudeMeters>
            <DistanceMeters>NAN</DistanceMeters>
          </Trackpoint>
          <Trackpoint>
            <Time>2019-10-09T10:29:46.000Z</Time>
            <Position>
              <LatitudeDegrees>38.906982354819774627685546875</LatitudeDegrees>
              <LongitudeDegrees>-6.354407630860805511474609375</LongitudeDegrees>
            </Position>
            <AltitudeMeters>191</AltitudeMeters>
            <DistanceMeters>NAN</DistanceMeters>
          </Trackpoint>
          <Trackpoint>
            <Time>2019-10-09T10:29:48.000Z</Time>
            <Position>
              <LatitudeDegrees>38.9069389365613460540771484375</LatitudeDegrees>
              <LongitudeDegrees>-6.3545013405382633209228515625</LongitudeDegrees>
            </Position>
            <AltitudeMeters>191.399993896484375</AltitudeMeters>
            <DistanceMeters>NAN</DistanceMeters>
          </Trackpoint>
          <Trackpoint>
            <Time>2019-10-09T10:29:49.000Z</Time>
            <Position>
              <LatitudeDegrees>38.906913958489894866943359375</LatitudeDegrees>
              <LongitudeDegrees>-6.354546435177326202392578125</LongitudeDegrees>
            </Position>
            <AltitudeMeters>191.600006103515625</AltitudeMeters>
            <DistanceMeters>NAN</DistanceMeters>
          </Trackpoint>
          <Trackpoint>
            <Time>2019-10-09T10:29:52.000Z</Time>
            <Position>
              <LatitudeDegrees>38.90684388577938079833984375</LatitudeDegrees>
              <LongitudeDegrees>-6.354670487344264984130859375</LongitudeDegrees>
            </Position>
            <AltitudeMeters>191.8000030517578125</AltitudeMeters>
            <DistanceMeters>NAN</DistanceMeters>
          </Trackpoint>
          <Trackpoint>
            <Time>2019-10-09T10:29:53.000Z</Time>
            <Position>
              <LatitudeDegrees>38.9068225957453250885009765625</LatitudeDegrees>
              <LongitudeDegrees>-6.35470828972756862640380859375</LongitudeDegrees>
            </Position>
            <AltitudeMeters>191.8000030517578125</AltitudeMeters>
            <DistanceMeters>NAN</DistanceMeters>
          </Trackpoint>
          <Trackpoint>
            <Time>2019-10-09T10:29:56.000Z</Time>
            <Position>
              <LatitudeDegrees>38.90676065348088741302490234375</LatitudeDegrees>
              <LongitudeDegrees>-6.35481960140168666839599609375</LongitudeDegrees>
            </Position>
            <AltitudeMeters>192.8000030517578125</AltitudeMeters>
            <DistanceMeters>NAN</DistanceMeters>
          </Trackpoint>
          <Trackpoint>
            <Time>2019-10-09T10:29:59.000Z</Time>
            <Position>
              <LatitudeDegrees>38.90670298598706722259521484375</LatitudeDegrees>
              <LongitudeDegrees>-6.354933679103851318359375</LongitudeDegrees>
            </Position>
            <AltitudeMeters>193.399993896484375</AltitudeMeters>
            <DistanceMeters>NAN</DistanceMeters>
          </Trackpoint>
          <Trackpoint>
            <Time>2019-10-09T10:30:00.000Z</Time>
            <Position>
              <LatitudeDegrees>38.9066849648952484130859375</LatitudeDegrees>
              <LongitudeDegrees>-6.35497097857296466827392578125</LongitudeDegrees>
            </Position>
            <AltitudeMeters>193.8000030517578125</AltitudeMeters>
            <DistanceMeters>NAN</DistanceMeters>
          </Trackpoint>
          <Trackpoint>
            <Time>2019-10-09T10:30:02.000Z</Time>
            <Position>
              <LatitudeDegrees>38.90665554441511631011962890625</LatitudeDegrees>
              <LongitudeDegrees>-6.35504909791052341461181640625</LongitudeDegrees>
            </Position>
            <AltitudeMeters>194</AltitudeMeters>
            <DistanceMeters>NAN</DistanceMeters>
          </Trackpoint>
          <Trackpoint>
            <Time>2019-10-09T10:30:06.000Z</Time>
            <Position>
              <LatitudeDegrees>38.90660827048122882843017578125</LatitudeDegrees>
              <LongitudeDegrees>-6.35520315729081630706787109375</LongitudeDegrees>
            </Position>
            <AltitudeMeters>194.8000030517578125</AltitudeMeters>
            <DistanceMeters>NAN</DistanceMeters>
          </Trackpoint>
          <Trackpoint>
            <Time>2019-10-09T10:30:07.000Z</Time>
            <Position>
              <LatitudeDegrees>38.90659988857805728912353515625</LatitudeDegrees>
              <LongitudeDegrees>-6.3552392832934856414794921875</LongitudeDegrees>
            </Position>
            <AltitudeMeters>195.1999969482421875</AltitudeMeters>
            <DistanceMeters>NAN</DistanceMeters>
          </Trackpoint>
          <Trackpoint>
            <Time>2019-10-09T10:30:09.000Z</Time>
            <Position>
              <LatitudeDegrees>38.9065805263817310333251953125</LatitudeDegrees>
              <LongitudeDegrees>-6.3552986271679401397705078125</LongitudeDegrees>
            </Position>
            <AltitudeMeters>195.600006103515625</AltitudeMeters>
            <DistanceMeters>NAN</DistanceMeters>
          </Trackpoint>
          <Trackpoint>
            <Time>2019-10-09T10:30:13.000Z</Time>
            <Position>
              <LatitudeDegrees>38.90654674731194972991943359375</LatitudeDegrees>
              <LongitudeDegrees>-6.35542980395257472991943359375</LongitudeDegrees>
            </Position>
            <AltitudeMeters>196.1999969482421875</AltitudeMeters>
            <DistanceMeters>NAN</DistanceMeters>
          </Trackpoint>
          <Trackpoint>
            <Time>2019-10-09T10:30:18.000Z</Time>
            <Position>
              <LatitudeDegrees>38.90649997629225254058837890625</LatitudeDegrees>
              <LongitudeDegrees>-6.3556055724620819091796875</LongitudeDegrees>
            </Position>
            <AltitudeMeters>197.399993896484375</AltitudeMeters>
            <DistanceMeters>NAN</DistanceMeters>
          </Trackpoint>
          <Trackpoint>
            <Time>2019-10-09T10:30:24.000Z</Time>
            <Position>
              <LatitudeDegrees>38.90643275342881679534912109375</LatitudeDegrees>
              <LongitudeDegrees>-6.3558045588433742523193359375</LongitudeDegrees>
            </Position>
            <AltitudeMeters>198</AltitudeMeters>
            <DistanceMeters>NAN</DistanceMeters>
          </Trackpoint>
          <Trackpoint>
            <Time>2019-10-09T10:30:25.000Z</Time>
            <Position>
              <LatitudeDegrees>38.90641984529793262481689453125</LatitudeDegrees>
              <LongitudeDegrees>-6.35583548806607723236083984375</LongitudeDegrees>
            </Position>
            <AltitudeMeters>198.1999969482421875</AltitudeMeters>
            <DistanceMeters>NAN</DistanceMeters>
          </Trackpoint>
          <Trackpoint>
            <Time>2019-10-09T10:30:26.000Z</Time>
            <Position>
              <LatitudeDegrees>38.90640559606254100799560546875</LatitudeDegrees>
              <LongitudeDegrees>-6.35586650110781192779541015625</LongitudeDegrees>
            </Position>
            <AltitudeMeters>198.399993896484375</AltitudeMeters>
            <DistanceMeters>NAN</DistanceMeters>
          </Trackpoint>
          <Trackpoint>
            <Time>2019-10-09T10:30:32.000Z</Time>
            <Position>
              <LatitudeDegrees>38.90635463409125804901123046875</LatitudeDegrees>
              <LongitudeDegrees>-6.35607655160129070281982421875</LongitudeDegrees>
            </Position>
            <AltitudeMeters>199.1999969482421875</AltitudeMeters>
            <DistanceMeters>NAN</DistanceMeters>
          </Trackpoint>
          <Trackpoint>
            <Time>2019-10-09T10:30:33.000Z</Time>
            <Position>
              <LatitudeDegrees>38.90634524635970592498779296875</LatitudeDegrees>
              <LongitudeDegrees>-6.35610991157591342926025390625</LongitudeDegrees>
            </Position>
            <AltitudeMeters>199.399993896484375</AltitudeMeters>
            <DistanceMeters>NAN</DistanceMeters>
          </Trackpoint>
          <Trackpoint>
            <Time>2019-10-09T10:30:40.000Z</Time>
            <Position>
              <LatitudeDegrees>38.9062888361513614654541015625</LatitudeDegrees>
              <LongitudeDegrees>-6.3563527353107929229736328125</LongitudeDegrees>
            </Position>
            <AltitudeMeters>200.600006103515625</AltitudeMeters>
            <DistanceMeters>NAN</DistanceMeters>
          </Trackpoint>
          <Trackpoint>
            <Time>2019-10-09T10:30:41.000Z</Time>
            <Position>
              <LatitudeDegrees>38.9062797836959362030029296875</LatitudeDegrees>
              <LongitudeDegrees>-6.35638517327606678009033203125</LongitudeDegrees>
            </Position>
            <AltitudeMeters>200.600006103515625</AltitudeMeters>
            <DistanceMeters>NAN</DistanceMeters>
          </Trackpoint>
          <Trackpoint>
            <Time>2019-10-09T10:30:47.000Z</Time>
            <Position>
              <LatitudeDegrees>38.90621935017406940460205078125</LatitudeDegrees>
              <LongitudeDegrees>-6.35658449493348598480224609375</LongitudeDegrees>
            </Position>
            <AltitudeMeters>201.600006103515625</AltitudeMeters>
            <DistanceMeters>NAN</DistanceMeters>
          </Trackpoint>
          <Trackpoint>
            <Time>2019-10-09T10:30:48.000Z</Time>
            <Position>
              <LatitudeDegrees>38.90620728023350238800048828125</LatitudeDegrees>
              <LongitudeDegrees>-6.35661668144166469573974609375</LongitudeDegrees>
            </Position>
            <AltitudeMeters>201.8000030517578125</AltitudeMeters>
            <DistanceMeters>NAN</DistanceMeters>
          </Trackpoint>
          <Trackpoint>
            <Time>2019-10-09T10:30:55.000Z</Time>
            <Position>
              <LatitudeDegrees>38.9061391353607177734375</LatitudeDegrees>
              <LongitudeDegrees>-6.35684248991310596466064453125</LongitudeDegrees>
            </Position>
            <AltitudeMeters>202.399993896484375</AltitudeMeters>
            <DistanceMeters>NAN</DistanceMeters>
          </Trackpoint>
          <Trackpoint>
            <Time>2019-10-09T10:31:02.000Z</Time>
            <Position>
              <LatitudeDegrees>38.90607811510562896728515625</LatitudeDegrees>
              <LongitudeDegrees>-6.357093863189220428466796875</LongitudeDegrees>
            </Position>
            <AltitudeMeters>202</AltitudeMeters>
            <DistanceMeters>NAN</DistanceMeters>
          </Trackpoint>
          <Trackpoint>
            <Time>2019-10-09T10:31:07.000Z</Time>
            <Position>
              <LatitudeDegrees>38.9060278236865997314453125</LatitudeDegrees>
              <LongitudeDegrees>-6.3572512753307819366455078125</LongitudeDegrees>
            </Position>
            <AltitudeMeters>202.8000030517578125</AltitudeMeters>
            <DistanceMeters>NAN</DistanceMeters>
          </Trackpoint>
          <Trackpoint>
            <Time>2019-10-09T10:31:09.000Z</Time>
            <Position>
              <LatitudeDegrees>38.906002677977085113525390625</LatitudeDegrees>
              <LongitudeDegrees>-6.3573257066309452056884765625</LongitudeDegrees>
            </Position>
            <AltitudeMeters>202.399993896484375</AltitudeMeters>
            <DistanceMeters>NAN</DistanceMeters>
          </Trackpoint>
          <Trackpoint>
            <Time>2019-10-09T10:31:17.000Z</Time>
            <Position>
              <LatitudeDegrees>38.90590301714837551116943359375</LatitudeDegrees>
              <LongitudeDegrees>-6.35765419341623783111572265625</LongitudeDegrees>
            </Position>
            <AltitudeMeters>202.1999969482421875</AltitudeMeters>
            <DistanceMeters>NAN</DistanceMeters>
          </Trackpoint>
          <Trackpoint>
            <Time>2019-10-09T10:31:19.000Z</Time>
            <Position>
              <LatitudeDegrees>38.90589077956974506378173828125</LatitudeDegrees>
              <LongitudeDegrees>-6.35773499496281147003173828125</LongitudeDegrees>
            </Position>
            <AltitudeMeters>202.1999969482421875</AltitudeMeters>
            <DistanceMeters>NAN</DistanceMeters>
          </Trackpoint>
          <Trackpoint>
            <Time>2019-10-09T10:31:21.000Z</Time>
            <Position>
              <LatitudeDegrees>38.90586831606924533843994140625</LatitudeDegrees>
              <LongitudeDegrees>-6.35781613178551197052001953125</LongitudeDegrees>
            </Position>
            <AltitudeMeters>202.1999969482421875</AltitudeMeters>
            <DistanceMeters>NAN</DistanceMeters>
          </Trackpoint>
          <Trackpoint>
            <Time>2019-10-09T10:31:23.000Z</Time>
            <Position>
              <LatitudeDegrees>38.90583612956106662750244140625</LatitudeDegrees>
              <LongitudeDegrees>-6.35790095664560794830322265625</LongitudeDegrees>
            </Position>
            <AltitudeMeters>202.1999969482421875</AltitudeMeters>
            <DistanceMeters>NAN</DistanceMeters>
          </Trackpoint>
          <Trackpoint>
            <Time>2019-10-09T10:31:25.000Z</Time>
            <Position>
              <LatitudeDegrees>38.90581081621348857879638671875</LatitudeDegrees>
              <LongitudeDegrees>-6.35799030773341655731201171875</LongitudeDegrees>
            </Position>
            <AltitudeMeters>202.1999969482421875</AltitudeMeters>
            <DistanceMeters>NAN</DistanceMeters>
          </Trackpoint>
          <Trackpoint>
            <Time>2019-10-09T10:31:32.000Z</Time>
            <Position>
              <LatitudeDegrees>38.90570905990898609161376953125</LatitudeDegrees>
              <LongitudeDegrees>-6.3582520745694637298583984375</LongitudeDegrees>
            </Position>
            <AltitudeMeters>203.1999969482421875</AltitudeMeters>
            <DistanceMeters>NAN</DistanceMeters>
          </Trackpoint>
          <Trackpoint>
            <Time>2019-10-09T10:31:38.000Z</Time>
            <Position>
              <LatitudeDegrees>38.9055820740759372711181640625</LatitudeDegrees>
              <LongitudeDegrees>-6.35831770487129688262939453125</LongitudeDegrees>
            </Position>
            <AltitudeMeters>204.399993896484375</AltitudeMeters>
            <DistanceMeters>NAN</DistanceMeters>
          </Trackpoint>
          <Trackpoint>
            <Time>2019-10-09T10:31:42.000Z</Time>
            <Position>
              <LatitudeDegrees>38.90552029944956302642822265625</LatitudeDegrees>
              <LongitudeDegrees>-6.358322985470294952392578125</LongitudeDegrees>
            </Position>
            <AltitudeMeters>205</AltitudeMeters>
            <DistanceMeters>NAN</DistanceMeters>
          </Trackpoint>
          <Trackpoint>
            <Time>2019-10-09T10:31:43.000Z</Time>
            <Position>
              <LatitudeDegrees>38.9055046252906322479248046875</LatitudeDegrees>
              <LongitudeDegrees>-6.35832910425961017608642578125</LongitudeDegrees>
            </Position>
            <AltitudeMeters>204.8000030517578125</AltitudeMeters>
            <DistanceMeters>NAN</DistanceMeters>
          </Trackpoint>
          <Trackpoint>
            <Time>2019-10-09T10:31:44.000Z</Time>
            <Position>
              <LatitudeDegrees>38.9054895378649234771728515625</LatitudeDegrees>
              <LongitudeDegrees>-6.3583442755043506622314453125</LongitudeDegrees>
            </Position>
            <AltitudeMeters>204.8000030517578125</AltitudeMeters>
            <DistanceMeters>NAN</DistanceMeters>
          </Trackpoint>
          <Trackpoint>
            <Time>2019-10-09T10:31:47.000Z</Time>
            <Position>
              <LatitudeDegrees>38.9054486341774463653564453125</LatitudeDegrees>
              <LongitudeDegrees>-6.35842197574675083160400390625</LongitudeDegrees>
            </Position>
            <AltitudeMeters>205</AltitudeMeters>
            <DistanceMeters>NAN</DistanceMeters>
          </Trackpoint>
          <Trackpoint>
            <Time>2019-10-09T10:31:50.000Z</Time>
            <Position>
              <LatitudeDegrees>38.90540747903287410736083984375</LatitudeDegrees>
              <LongitudeDegrees>-6.35851241648197174072265625</LongitudeDegrees>
            </Position>
            <AltitudeMeters>205.1999969482421875</AltitudeMeters>
            <DistanceMeters>NAN</DistanceMeters>
          </Trackpoint>
          <Trackpoint>
            <Time>2019-10-09T10:31:51.000Z</Time>
            <Position>
              <LatitudeDegrees>38.905395157635211944580078125</LatitudeDegrees>
              <LongitudeDegrees>-6.3585430942475795745849609375</LongitudeDegrees>
            </Position>
            <AltitudeMeters>205.600006103515625</AltitudeMeters>
            <DistanceMeters>NAN</DistanceMeters>
          </Trackpoint>
          <Trackpoint>
            <Time>2019-10-09T10:31:54.000Z</Time>
            <Position>
              <LatitudeDegrees>38.9053705148398876190185546875</LatitudeDegrees>
              <LongitudeDegrees>-6.3586409948766231536865234375</LongitudeDegrees>
            </Position>
            <AltitudeMeters>206</AltitudeMeters>
            <DistanceMeters>NAN</DistanceMeters>
          </Trackpoint>
          <Trackpoint>
            <Time>2019-10-09T10:31:56.000Z</Time>
            <Position>
              <LatitudeDegrees>38.90534930862486362457275390625</LatitudeDegrees>
              <LongitudeDegrees>-6.358711235225200653076171875</LongitudeDegrees>
            </Position>
            <AltitudeMeters>206.399993896484375</AltitudeMeters>
            <DistanceMeters>NAN</DistanceMeters>
          </Trackpoint>
          <Trackpoint>
            <Time>2019-10-09T10:32:00.000Z</Time>
            <Position>
              <LatitudeDegrees>38.90530941076576709747314453125</LatitudeDegrees>
              <LongitudeDegrees>-6.35885448195040225982666015625</LongitudeDegrees>
            </Position>
            <AltitudeMeters>207</AltitudeMeters>
            <DistanceMeters>NAN</DistanceMeters>
          </Trackpoint>
          <Trackpoint>
            <Time>2019-10-09T10:32:06.000Z</Time>
            <Position>
              <LatitudeDegrees>38.905250988900661468505859375</LatitudeDegrees>
              <LongitudeDegrees>-6.3590604253113269805908203125</LongitudeDegrees>
            </Position>
            <AltitudeMeters>207.399993896484375</AltitudeMeters>
            <DistanceMeters>NAN</DistanceMeters>
          </Trackpoint>
          <Trackpoint>
            <Time>2019-10-09T10:32:08.000Z</Time>
            <Position>
              <LatitudeDegrees>38.9052293635904788970947265625</LatitudeDegrees>
              <LongitudeDegrees>-6.3591294921934604644775390625</LongitudeDegrees>
            </Position>
            <AltitudeMeters>208.1999969482421875</AltitudeMeters>
            <DistanceMeters>NAN</DistanceMeters>
          </Trackpoint>
          <Trackpoint>
            <Time>2019-10-09T10:32:14.000Z</Time>
            <Position>
              <LatitudeDegrees>38.9051643200218677520751953125</LatitudeDegrees>
              <LongitudeDegrees>-6.35933292098343372344970703125</LongitudeDegrees>
            </Position>
            <AltitudeMeters>208.8000030517578125</AltitudeMeters>
            <DistanceMeters>NAN</DistanceMeters>
          </Trackpoint>
          <Trackpoint>
            <Time>2019-10-09T10:32:16.000Z</Time>
            <Position>
              <LatitudeDegrees>38.90514470636844635009765625</LatitudeDegrees>
              <LongitudeDegrees>-6.35940332897007465362548828125</LongitudeDegrees>
            </Position>
            <AltitudeMeters>209.1999969482421875</AltitudeMeters>
            <DistanceMeters>NAN</DistanceMeters>
          </Trackpoint>
          <Trackpoint>
            <Time>2019-10-09T10:32:25.000Z</Time>
            <Position>
              <LatitudeDegrees>38.90504906885325908660888671875</LatitudeDegrees>
              <LongitudeDegrees>-6.3597202487289905548095703125</LongitudeDegrees>
            </Position>
            <AltitudeMeters>210.399993896484375</AltitudeMeters>
            <DistanceMeters>NAN</DistanceMeters>
          </Trackpoint>
          <Trackpoint>
            <Time>2019-10-09T10:32:32.000Z</Time>
            <Position>
              <LatitudeDegrees>38.90497631393373012542724609375</LatitudeDegrees>
              <LongitudeDegrees>-6.35996575467288494110107421875</LongitudeDegrees>
            </Position>
            <AltitudeMeters>211.399993896484375</AltitudeMeters>
            <DistanceMeters>NAN</DistanceMeters>
          </Trackpoint>
          <Trackpoint>
            <Time>2019-10-09T10:32:34.000Z</Time>
            <Position>
              <LatitudeDegrees>38.90495317988097667694091796875</LatitudeDegrees>
              <LongitudeDegrees>-6.36003381572663784027099609375</LongitudeDegrees>
            </Position>
            <AltitudeMeters>211.8000030517578125</AltitudeMeters>
            <DistanceMeters>NAN</DistanceMeters>
          </Trackpoint>
          <Trackpoint>
            <Time>2019-10-09T10:32:39.000Z</Time>
            <Position>
              <LatitudeDegrees>38.9049017988145351409912109375</LatitudeDegrees>
              <LongitudeDegrees>-6.3602037169039249420166015625</LongitudeDegrees>
            </Position>
            <AltitudeMeters>212.600006103515625</AltitudeMeters>
            <DistanceMeters>NAN</DistanceMeters>
          </Trackpoint>
          <Trackpoint>
            <Time>2019-10-09T10:32:41.000Z</Time>
            <Position>
              <LatitudeDegrees>38.90488277189433574676513671875</LatitudeDegrees>
              <LongitudeDegrees>-6.3602724485099315643310546875</LongitudeDegrees>
            </Position>
            <AltitudeMeters>212.8000030517578125</AltitudeMeters>
            <DistanceMeters>NAN</DistanceMeters>
          </Trackpoint>
          <Trackpoint>
            <Time>2019-10-09T10:32:44.000Z</Time>
            <Position>
              <LatitudeDegrees>38.90485628508031368255615234375</LatitudeDegrees>
              <LongitudeDegrees>-6.36037546209990978240966796875</LongitudeDegrees>
            </Position>
            <AltitudeMeters>213.600006103515625</AltitudeMeters>
            <DistanceMeters>NAN</DistanceMeters>
          </Trackpoint>
          <Trackpoint>
            <Time>2019-10-09T10:32:49.000Z</Time>
            <Position>
              <LatitudeDegrees>38.90481554903090000152587890625</LatitudeDegrees>
              <LongitudeDegrees>-6.36055332608520984649658203125</LongitudeDegrees>
            </Position>
            <AltitudeMeters>214.399993896484375</AltitudeMeters>
            <DistanceMeters>NAN</DistanceMeters>
          </Trackpoint>
          <Trackpoint>
            <Time>2019-10-09T10:32:50.000Z</Time>
            <Position>
              <LatitudeDegrees>38.90480674803256988525390625</LatitudeDegrees>
              <LongitudeDegrees>-6.36059003882110118865966796875</LongitudeDegrees>
            </Position>
            <AltitudeMeters>214.600006103515625</AltitudeMeters>
            <DistanceMeters>NAN</DistanceMeters>
          </Trackpoint>
          <Trackpoint>
            <Time>2019-10-09T10:32:55.000Z</Time>
            <Position>
              <LatitudeDegrees>38.904771544039249420166015625</LatitudeDegrees>
              <LongitudeDegrees>-6.36075465939939022064208984375</LongitudeDegrees>
            </Position>
            <AltitudeMeters>215.399993896484375</AltitudeMeters>
            <DistanceMeters>NAN</DistanceMeters>
          </Trackpoint>
          <Trackpoint>
            <Time>2019-10-09T10:32:57.000Z</Time>
            <Position>
              <LatitudeDegrees>38.904761485755443572998046875</LatitudeDegrees>
              <LongitudeDegrees>-6.36082255281507968902587890625</LongitudeDegrees>
            </Position>
            <AltitudeMeters>215.8000030517578125</AltitudeMeters>
            <DistanceMeters>NAN</DistanceMeters>
          </Trackpoint>
          <Trackpoint>
            <Time>2019-10-09T10:33:03.000Z</Time>
            <Position>
              <LatitudeDegrees>38.90472535975277423858642578125</LatitudeDegrees>
              <LongitudeDegrees>-6.3610289990901947021484375</LongitudeDegrees>
            </Position>
            <AltitudeMeters>216.8000030517578125</AltitudeMeters>
            <DistanceMeters>NAN</DistanceMeters>
          </Trackpoint>
          <Trackpoint>
            <Time>2019-10-09T10:33:04.000Z</Time>
            <Position>
              <LatitudeDegrees>38.90472133643925189971923828125</LatitudeDegrees>
              <LongitudeDegrees>-6.361061520874500274658203125</LongitudeDegrees>
            </Position>
            <AltitudeMeters>216.8000030517578125</AltitudeMeters>
            <DistanceMeters>NAN</DistanceMeters>
          </Trackpoint>
          <Trackpoint>
            <Time>2019-10-09T10:33:10.000Z</Time>
            <Position>
              <LatitudeDegrees>38.90469501726329326629638671875</LatitudeDegrees>
              <LongitudeDegrees>-6.36126947589218616485595703125</LongitudeDegrees>
            </Position>
            <AltitudeMeters>217.600006103515625</AltitudeMeters>
            <DistanceMeters>NAN</DistanceMeters>
          </Trackpoint>
          <Trackpoint>
            <Time>2019-10-09T10:33:13.000Z</Time>
            <Position>
              <LatitudeDegrees>38.90468479134142398834228515625</LatitudeDegrees>
              <LongitudeDegrees>-6.36137542314827442169189453125</LongitudeDegrees>
            </Position>
            <AltitudeMeters>218</AltitudeMeters>
            <DistanceMeters>NAN</DistanceMeters>
          </Trackpoint>
          <Trackpoint>
            <Time>2019-10-09T10:33:17.000Z</Time>
            <Position>
              <LatitudeDegrees>38.9046728052198886871337890625</LatitudeDegrees>
              <LongitudeDegrees>-6.3615136407315731048583984375</LongitudeDegrees>
            </Position>
            <AltitudeMeters>219</AltitudeMeters>
            <DistanceMeters>NAN</DistanceMeters>
          </Trackpoint>
          <Trackpoint>
            <Time>2019-10-09T10:33:22.000Z</Time>
            <Position>
              <LatitudeDegrees>38.90466350130736827850341796875</LatitudeDegrees>
              <LongitudeDegrees>-6.3616933487355709075927734375</LongitudeDegrees>
            </Position>
            <AltitudeMeters>219.1999969482421875</AltitudeMeters>
            <DistanceMeters>NAN</DistanceMeters>
          </Trackpoint>
          <Trackpoint>
            <Time>2019-10-09T10:33:25.000Z</Time>
            <Position>
              <LatitudeDegrees>38.90465654432773590087890625</LatitudeDegrees>
              <LongitudeDegrees>-6.3618053309619426727294921875</LongitudeDegrees>
            </Position>
            <AltitudeMeters>219.8000030517578125</AltitudeMeters>
            <DistanceMeters>NAN</DistanceMeters>
          </Trackpoint>
          <Trackpoint>
            <Time>2019-10-09T10:33:29.000Z</Time>
            <Position>
              <LatitudeDegrees>38.90465545468032360076904296875</LatitudeDegrees>
              <LongitudeDegrees>-6.36195092462003231048583984375</LongitudeDegrees>
            </Position>
            <AltitudeMeters>220.399993896484375</AltitudeMeters>
            <DistanceMeters>NAN</DistanceMeters>
          </Trackpoint>
          <Trackpoint>
            <Time>2019-10-09T10:33:32.000Z</Time>
            <Position>
              <LatitudeDegrees>38.90465252101421356201171875</LatitudeDegrees>
              <LongitudeDegrees>-6.362083442509174346923828125</LongitudeDegrees>
            </Position>
            <AltitudeMeters>221</AltitudeMeters>
            <DistanceMeters>NAN</DistanceMeters>
          </Trackpoint>
          <Trackpoint>
            <Time>2019-10-09T10:33:35.000Z</Time>
            <Position>
              <LatitudeDegrees>38.90465243719518184661865234375</LatitudeDegrees>
              <LongitudeDegrees>-6.362173967063426971435546875</LongitudeDegrees>
            </Position>
            <AltitudeMeters>221.399993896484375</AltitudeMeters>
            <DistanceMeters>NAN</DistanceMeters>
          </Trackpoint>
          <Trackpoint>
            <Time>2019-10-09T10:33:42.000Z</Time>
            <Position>
              <LatitudeDegrees>38.90465713106095790863037109375</LatitudeDegrees>
              <LongitudeDegrees>-6.362429447472095489501953125</LongitudeDegrees>
            </Position>
            <AltitudeMeters>222.399993896484375</AltitudeMeters>
            <DistanceMeters>NAN</DistanceMeters>
          </Trackpoint>
          <Trackpoint>
            <Time>2019-10-09T10:33:44.000Z</Time>
            <Position>
              <LatitudeDegrees>38.9046604000031948089599609375</LatitudeDegrees>
              <LongitudeDegrees>-6.36250019073486328125</LongitudeDegrees>
            </Position>
            <AltitudeMeters>222.600006103515625</AltitudeMeters>
            <DistanceMeters>NAN</DistanceMeters>
          </Trackpoint>
          <Trackpoint>
            <Time>2019-10-09T10:33:50.000Z</Time>
            <Position>
              <LatitudeDegrees>38.90467506833374500274658203125</LatitudeDegrees>
              <LongitudeDegrees>-6.36271870695054531097412109375</LongitudeDegrees>
            </Position>
            <AltitudeMeters>223.600006103515625</AltitudeMeters>
            <DistanceMeters>NAN</DistanceMeters>
          </Trackpoint>
          <Trackpoint>
            <Time>2019-10-09T10:33:51.000Z</Time>
            <Position>
              <LatitudeDegrees>38.9046801812946796417236328125</LatitudeDegrees>
              <LongitudeDegrees>-6.36275692842900753021240234375</LongitudeDegrees>
            </Position>
            <AltitudeMeters>223.600006103515625</AltitudeMeters>
            <DistanceMeters>NAN</DistanceMeters>
          </Trackpoint>
          <Trackpoint>
            <Time>2019-10-09T10:33:59.000Z</Time>
            <Position>
              <LatitudeDegrees>38.904711194336414337158203125</LatitudeDegrees>
              <LongitudeDegrees>-6.363039650022983551025390625</LongitudeDegrees>
            </Position>
            <AltitudeMeters>224.600006103515625</AltitudeMeters>
            <DistanceMeters>NAN</DistanceMeters>
          </Trackpoint>
          <Trackpoint>
            <Time>2019-10-09T10:34:06.000Z</Time>
            <Position>
              <LatitudeDegrees>38.90475201420485973358154296875</LatitudeDegrees>
              <LongitudeDegrees>-6.36328280903398990631103515625</LongitudeDegrees>
            </Position>
            <AltitudeMeters>225.600006103515625</AltitudeMeters>
            <DistanceMeters>NAN</DistanceMeters>
          </Trackpoint>
          <Trackpoint>
            <Time>2019-10-09T10:34:07.000Z</Time>
            <Position>
              <LatitudeDegrees>38.90475737862288951873779296875</LatitudeDegrees>
              <LongitudeDegrees>-6.36331566609442234039306640625</LongitudeDegrees>
            </Position>
            <AltitudeMeters>226</AltitudeMeters>
            <DistanceMeters>NAN</DistanceMeters>
          </Trackpoint>
          <Trackpoint>
            <Time>2019-10-09T10:34:15.000Z</Time>
            <Position>
              <LatitudeDegrees>38.90482150018215179443359375</LatitudeDegrees>
              <LongitudeDegrees>-6.3635963760316371917724609375</LongitudeDegrees>
            </Position>
            <AltitudeMeters>226.600006103515625</AltitudeMeters>
            <DistanceMeters>NAN</DistanceMeters>
          </Trackpoint>
          <Trackpoint>
            <Time>2019-10-09T10:34:16.000Z</Time>
            <Position>
              <LatitudeDegrees>38.90483097173273563385009765625</LatitudeDegrees>
              <LongitudeDegrees>-6.3636329211294651031494140625</LongitudeDegrees>
            </Position>
            <AltitudeMeters>227</AltitudeMeters>
            <DistanceMeters>NAN</DistanceMeters>
          </Trackpoint>
          <Trackpoint>
            <Time>2019-10-09T10:34:20.000Z</Time>
            <Position>
              <LatitudeDegrees>38.90487154014408588409423828125</LatitudeDegrees>
              <LongitudeDegrees>-6.36375504545867443084716796875</LongitudeDegrees>
            </Position>
            <AltitudeMeters>228</AltitudeMeters>
            <DistanceMeters>NAN</DistanceMeters>
          </Trackpoint>
          <Trackpoint>
            <Time>2019-10-09T10:34:21.000Z</Time>
            <Position>
              <LatitudeDegrees>38.90487774275243282318115234375</LatitudeDegrees>
              <LongitudeDegrees>-6.363766528666019439697265625</LongitudeDegrees>
            </Position>
            <AltitudeMeters>228.1999969482421875</AltitudeMeters>
            <DistanceMeters>NAN</DistanceMeters>
          </Trackpoint>
          <Trackpoint>
            <Time>2019-10-09T10:34:24.000Z</Time>
            <Position>
              <LatitudeDegrees>38.90490272082388401031494140625</LatitudeDegrees>
              <LongitudeDegrees>-6.36380148120224475860595703125</LongitudeDegrees>
            </Position>
            <AltitudeMeters>228.1999969482421875</AltitudeMeters>
            <DistanceMeters>NAN</DistanceMeters>
          </Trackpoint>
          <Trackpoint>
            <Time>2019-10-09T10:34:26.000Z</Time>
            <Position>
              <LatitudeDegrees>38.9049507491290569305419921875</LatitudeDegrees>
              <LongitudeDegrees>-6.36384196579456329345703125</LongitudeDegrees>
            </Position>
            <AltitudeMeters>228.399993896484375</AltitudeMeters>
            <DistanceMeters>NAN</DistanceMeters>
          </Trackpoint>
          <Trackpoint>
            <Time>2019-10-09T10:34:29.000Z</Time>
            <Position>
              <LatitudeDegrees>38.905045129358768463134765625</LatitudeDegrees>
              <LongitudeDegrees>-6.3639363460242748260498046875</LongitudeDegrees>
            </Position>
            <AltitudeMeters>228</AltitudeMeters>
            <DistanceMeters>NAN</DistanceMeters>
          </Trackpoint>
          <Trackpoint>
            <Time>2019-10-09T10:34:30.000Z</Time>
            <Position>
              <LatitudeDegrees>38.90506667084991931915283203125</LatitudeDegrees>
              <LongitudeDegrees>-6.3639789260923862457275390625</LongitudeDegrees>
            </Position>
            <AltitudeMeters>228</AltitudeMeters>
            <DistanceMeters>NAN</DistanceMeters>
          </Trackpoint>
          <Trackpoint>
            <Time>2019-10-09T10:34:34.000Z</Time>
            <Position>
              <LatitudeDegrees>38.90507438220083713531494140625</LatitudeDegrees>
              <LongitudeDegrees>-6.364184953272342681884765625</LongitudeDegrees>
            </Position>
            <AltitudeMeters>228.1999969482421875</AltitudeMeters>
            <DistanceMeters>NAN</DistanceMeters>
          </Trackpoint>
          <Trackpoint>
            <Time>2019-10-09T10:34:35.000Z</Time>
            <Position>
              <LatitudeDegrees>38.90506600029766559600830078125</LatitudeDegrees>
              <LongitudeDegrees>-6.36423231102526187896728515625</LongitudeDegrees>
            </Position>
            <AltitudeMeters>228</AltitudeMeters>
            <DistanceMeters>NAN</DistanceMeters>
          </Trackpoint>
          <Trackpoint>
            <Time>2019-10-09T10:34:37.000Z</Time>
            <Position>
              <LatitudeDegrees>38.90504973940551280975341796875</LatitudeDegrees>
              <LongitudeDegrees>-6.3643282838165760040283203125</LongitudeDegrees>
            </Position>
            <AltitudeMeters>228.600006103515625</AltitudeMeters>
            <DistanceMeters>NAN</DistanceMeters>
          </Trackpoint>
          <Trackpoint>
            <Time>2019-10-09T10:34:40.000Z</Time>
            <Position>
              <LatitudeDegrees>38.90506080351769924163818359375</LatitudeDegrees>
              <LongitudeDegrees>-6.364479325711727142333984375</LongitudeDegrees>
            </Position>
            <AltitudeMeters>229.1999969482421875</AltitudeMeters>
            <DistanceMeters>NAN</DistanceMeters>
          </Trackpoint>
          <Trackpoint>
            <Time>2019-10-09T10:34:41.000Z</Time>
            <Position>
              <LatitudeDegrees>38.90507253818213939666748046875</LatitudeDegrees>
              <LongitudeDegrees>-6.36452752165496349334716796875</LongitudeDegrees>
            </Position>
            <AltitudeMeters>229.1999969482421875</AltitudeMeters>
            <DistanceMeters>NAN</DistanceMeters>
          </Trackpoint>
          <Trackpoint>
            <Time>2019-10-09T10:34:49.000Z</Time>
            <Position>
              <LatitudeDegrees>38.90517094172537326812744140625</LatitudeDegrees>
              <LongitudeDegrees>-6.3649046234786510467529296875</LongitudeDegrees>
            </Position>
            <AltitudeMeters>230.1999969482421875</AltitudeMeters>
            <DistanceMeters>NAN</DistanceMeters>
          </Trackpoint>
          <Trackpoint>
            <Time>2019-10-09T10:34:56.000Z</Time>
            <Position>
              <LatitudeDegrees>38.9052511565387248992919921875</LatitudeDegrees>
              <LongitudeDegrees>-6.3652057014405727386474609375</LongitudeDegrees>
            </Position>
            <AltitudeMeters>231</AltitudeMeters>
            <DistanceMeters>NAN</DistanceMeters>
          </Trackpoint>
          <Trackpoint>
            <Time>2019-10-09T10:34:58.000Z</Time>
            <Position>
              <LatitudeDegrees>38.9052773080766201019287109375</LatitudeDegrees>
              <LongitudeDegrees>-6.36528541333973407745361328125</LongitudeDegrees>
            </Position>
            <AltitudeMeters>231.399993896484375</AltitudeMeters>
            <DistanceMeters>NAN</DistanceMeters>
          </Trackpoint>
          <Trackpoint>
            <Time>2019-10-09T10:35:01.000Z</Time>
            <Position>
              <LatitudeDegrees>38.90530706383287906646728515625</LatitudeDegrees>
              <LongitudeDegrees>-6.365408711135387420654296875</LongitudeDegrees>
            </Position>
            <AltitudeMeters>232.600006103515625</AltitudeMeters>
            <DistanceMeters>NAN</DistanceMeters>
          </Trackpoint>
          <Trackpoint>
            <Time>2019-10-09T10:35:04.000Z</Time>
            <Position>
              <LatitudeDegrees>38.90533807687461376190185546875</LatitudeDegrees>
              <LongitudeDegrees>-6.3655270636081695556640625</LongitudeDegrees>
            </Position>
            <AltitudeMeters>233</AltitudeMeters>
            <DistanceMeters>NAN</DistanceMeters>
          </Trackpoint>
          <Trackpoint>
            <Time>2019-10-09T10:35:07.000Z</Time>
            <Position>
              <LatitudeDegrees>38.90536439605057239532470703125</LatitudeDegrees>
              <LongitudeDegrees>-6.36565270833671092987060546875</LongitudeDegrees>
            </Position>
            <AltitudeMeters>234</AltitudeMeters>
            <DistanceMeters>NAN</DistanceMeters>
          </Trackpoint>
          <Trackpoint>
            <Time>2019-10-09T10:35:11.000Z</Time>
            <Position>
              <LatitudeDegrees>38.90538820065557956695556640625</LatitudeDegrees>
              <LongitudeDegrees>-6.36582235805690288543701171875</LongitudeDegrees>
            </Position>
            <AltitudeMeters>234.8000030517578125</AltitudeMeters>
            <DistanceMeters>NAN</DistanceMeters>
          </Trackpoint>
          <Trackpoint>
            <Time>2019-10-09T10:35:12.000Z</Time>
            <Position>
              <LatitudeDegrees>38.90539557673037052154541015625</LatitudeDegrees>
              <LongitudeDegrees>-6.3658658601343631744384765625</LongitudeDegrees>
            </Position>
            <AltitudeMeters>235</AltitudeMeters>
            <DistanceMeters>NAN</DistanceMeters>
          </Trackpoint>
          <Trackpoint>
            <Time>2019-10-09T10:35:17.000Z</Time>
            <Position>
              <LatitudeDegrees>38.9054147712886333465576171875</LatitudeDegrees>
              <LongitudeDegrees>-6.36610440909862518310546875</LongitudeDegrees>
            </Position>
            <AltitudeMeters>235.1999969482421875</AltitudeMeters>
            <DistanceMeters>NAN</DistanceMeters>
          </Trackpoint>
          <Trackpoint>
            <Time>2019-10-09T10:35:25.000Z</Time>
            <Position>
              <LatitudeDegrees>38.90540110878646373748779296875</LatitudeDegrees>
              <LongitudeDegrees>-6.3664844445884227752685546875</LongitudeDegrees>
            </Position>
            <AltitudeMeters>235.8000030517578125</AltitudeMeters>
            <DistanceMeters>NAN</DistanceMeters>
          </Trackpoint>
          <Trackpoint>
            <Time>2019-10-09T10:35:32.000Z</Time>
            <Position>
              <LatitudeDegrees>38.9053024537861347198486328125</LatitudeDegrees>
              <LongitudeDegrees>-6.36681678704917430877685546875</LongitudeDegrees>
            </Position>
            <AltitudeMeters>235.8000030517578125</AltitudeMeters>
            <DistanceMeters>NAN</DistanceMeters>
          </Trackpoint>
          <Trackpoint>
            <Time>2019-10-09T10:35:34.000Z</Time>
            <Position>
              <LatitudeDegrees>38.90527655370533466339111328125</LatitudeDegrees>
              <LongitudeDegrees>-6.366923153400421142578125</LongitudeDegrees>
            </Position>
            <AltitudeMeters>236</AltitudeMeters>
            <DistanceMeters>NAN</DistanceMeters>
          </Trackpoint>
          <Trackpoint>
            <Time>2019-10-09T10:35:37.000Z</Time>
            <Position>
              <LatitudeDegrees>38.90529625117778778076171875</LatitudeDegrees>
              <LongitudeDegrees>-6.367091126739978790283203125</LongitudeDegrees>
            </Position>
            <AltitudeMeters>236.1999969482421875</AltitudeMeters>
            <DistanceMeters>NAN</DistanceMeters>
          </Trackpoint>
          <Trackpoint>
            <Time>2019-10-09T10:35:38.000Z</Time>
            <Position>
              <LatitudeDegrees>38.90531008131802082061767578125</LatitudeDegrees>
              <LongitudeDegrees>-6.3671479560434818267822265625</LongitudeDegrees>
            </Position>
            <AltitudeMeters>236.1999969482421875</AltitudeMeters>
            <DistanceMeters>NAN</DistanceMeters>
          </Trackpoint>
          <Trackpoint>
            <Time>2019-10-09T10:35:45.000Z</Time>
            <Position>
              <LatitudeDegrees>38.90539708547294139862060546875</LatitudeDegrees>
              <LongitudeDegrees>-6.36756009422242641448974609375</LongitudeDegrees>
            </Position>
            <AltitudeMeters>235.600006103515625</AltitudeMeters>
            <DistanceMeters>NAN</DistanceMeters>
          </Trackpoint>
          <Trackpoint>
            <Time>2019-10-09T10:35:50.000Z</Time>
            <Position>
              <LatitudeDegrees>38.905461542308330535888671875</LatitudeDegrees>
              <LongitudeDegrees>-6.36790157295763492584228515625</LongitudeDegrees>
            </Position>
            <AltitudeMeters>235.399993896484375</AltitudeMeters>
            <DistanceMeters>NAN</DistanceMeters>
          </Trackpoint>
          <Trackpoint>
            <Time>2019-10-09T10:35:53.000Z</Time>
            <Position>
              <LatitudeDegrees>38.90548861585557460784912109375</LatitudeDegrees>
              <LongitudeDegrees>-6.3681088574230670928955078125</LongitudeDegrees>
            </Position>
            <AltitudeMeters>235.399993896484375</AltitudeMeters>
            <DistanceMeters>NAN</DistanceMeters>
          </Trackpoint>
          <Trackpoint>
            <Time>2019-10-09T10:35:54.000Z</Time>
            <Position>
              <LatitudeDegrees>38.90549163334071636199951171875</LatitudeDegrees>
              <LongitudeDegrees>-6.36817834340035915374755859375</LongitudeDegrees>
            </Position>
            <AltitudeMeters>235.399993896484375</AltitudeMeters>
            <DistanceMeters>NAN</DistanceMeters>
          </Trackpoint>
          <Trackpoint>
            <Time>2019-10-09T10:35:55.000Z</Time>
            <Position>
              <LatitudeDegrees>38.905488364398479461669921875</LatitudeDegrees>
              <LongitudeDegrees>-6.3682463206350803375244140625</LongitudeDegrees>
            </Position>
            <AltitudeMeters>235.1999969482421875</AltitudeMeters>
            <DistanceMeters>NAN</DistanceMeters>
          </Trackpoint>
          <Trackpoint>
            <Time>2019-10-09T10:35:56.000Z</Time>
            <Position>
              <LatitudeDegrees>38.90547570772469043731689453125</LatitudeDegrees>
              <LongitudeDegrees>-6.3683150522410869598388671875</LongitudeDegrees>
            </Position>
            <AltitudeMeters>234.8000030517578125</AltitudeMeters>
            <DistanceMeters>NAN</DistanceMeters>
          </Trackpoint>
          <Trackpoint>
            <Time>2019-10-09T10:35:57.000Z</Time>
            <Position>
              <LatitudeDegrees>38.90545944683253765106201171875</LatitudeDegrees>
              <LongitudeDegrees>-6.36838160455226898193359375</LongitudeDegrees>
            </Position>
            <AltitudeMeters>234.8000030517578125</AltitudeMeters>
            <DistanceMeters>NAN</DistanceMeters>
          </Trackpoint>
          <Trackpoint>
            <Time>2019-10-09T10:36:00.000Z</Time>
            <Position>
              <LatitudeDegrees>38.9053557626903057098388671875</LatitudeDegrees>
              <LongitudeDegrees>-6.3685353286564350128173828125</LongitudeDegrees>
            </Position>
            <AltitudeMeters>234.8000030517578125</AltitudeMeters>
            <DistanceMeters>NAN</DistanceMeters>
          </Trackpoint>
          <Trackpoint>
            <Time>2019-10-09T10:36:04.000Z</Time>
            <Position>
              <LatitudeDegrees>38.905145712196826934814453125</LatitudeDegrees>
              <LongitudeDegrees>-6.3686064071953296661376953125</LongitudeDegrees>
            </Position>
            <AltitudeMeters>234.399993896484375</AltitudeMeters>
            <DistanceMeters>NAN</DistanceMeters>
          </Trackpoint>
          <Trackpoint>
            <Time>2019-10-09T10:36:06.000Z</Time>
            <Position>
              <LatitudeDegrees>38.90503481961786746978759765625</LatitudeDegrees>
              <LongitudeDegrees>-6.36857044883072376251220703125</LongitudeDegrees>
            </Position>
            <AltitudeMeters>234</AltitudeMeters>
            <DistanceMeters>NAN</DistanceMeters>
          </Trackpoint>
          <Trackpoint>
            <Time>2019-10-09T10:36:07.000Z</Time>
            <Position>
              <LatitudeDegrees>38.904984109103679656982421875</LatitudeDegrees>
              <LongitudeDegrees>-6.36853641830384731292724609375</LongitudeDegrees>
            </Position>
            <AltitudeMeters>234.1999969482421875</AltitudeMeters>
            <DistanceMeters>NAN</DistanceMeters>
          </Trackpoint>
          <Trackpoint>
            <Time>2019-10-09T10:36:11.000Z</Time>
            <Position>
              <LatitudeDegrees>38.9048464782536029815673828125</LatitudeDegrees>
              <LongitudeDegrees>-6.368323601782321929931640625</LongitudeDegrees>
            </Position>
            <AltitudeMeters>234.399993896484375</AltitudeMeters>
            <DistanceMeters>NAN</DistanceMeters>
          </Trackpoint>
          <Trackpoint>
            <Time>2019-10-09T10:36:13.000Z</Time>
            <Position>
              <LatitudeDegrees>38.9048075862228870391845703125</LatitudeDegrees>
              <LongitudeDegrees>-6.36820080690085887908935546875</LongitudeDegrees>
            </Position>
            <AltitudeMeters>234.600006103515625</AltitudeMeters>
            <DistanceMeters>NAN</DistanceMeters>
          </Trackpoint>
          <Trackpoint>
            <Time>2019-10-09T10:36:17.000Z</Time>
            <Position>
              <LatitudeDegrees>38.90475419349968433380126953125</LatitudeDegrees>
              <LongitudeDegrees>-6.36794884689152240753173828125</LongitudeDegrees>
            </Position>
            <AltitudeMeters>235.1999969482421875</AltitudeMeters>
            <DistanceMeters>NAN</DistanceMeters>
          </Trackpoint>
          <Trackpoint>
            <Time>2019-10-09T10:36:25.000Z</Time>
            <Position>
              <LatitudeDegrees>38.90465109609067440032958984375</LatitudeDegrees>
              <LongitudeDegrees>-6.367444507777690887451171875</LongitudeDegrees>
            </Position>
            <AltitudeMeters>235.399993896484375</AltitudeMeters>
            <DistanceMeters>NAN</DistanceMeters>
          </Trackpoint>
          <Trackpoint>
            <Time>2019-10-09T10:36:31.000Z</Time>
            <Position>
              <LatitudeDegrees>38.90461287461221218109130859375</LatitudeDegrees>
              <LongitudeDegrees>-6.367094479501247406005859375</LongitudeDegrees>
            </Position>
            <AltitudeMeters>236</AltitudeMeters>
            <DistanceMeters>NAN</DistanceMeters>
          </Trackpoint>
          <Trackpoint>
            <Time>2019-10-09T10:36:32.000Z</Time>
            <Position>
              <LatitudeDegrees>38.9045928418636322021484375</LatitudeDegrees>
              <LongitudeDegrees>-6.3670406676828861236572265625</LongitudeDegrees>
            </Position>
            <AltitudeMeters>236</AltitudeMeters>
            <DistanceMeters>NAN</DistanceMeters>
          </Trackpoint>
          <Trackpoint>
            <Time>2019-10-09T10:36:36.000Z</Time>
            <Position>
              <LatitudeDegrees>38.90444724820554256439208984375</LatitudeDegrees>
              <LongitudeDegrees>-6.36684528551995754241943359375</LongitudeDegrees>
            </Position>
            <AltitudeMeters>235.1999969482421875</AltitudeMeters>
            <DistanceMeters>NAN</DistanceMeters>
          </Trackpoint>
          <Trackpoint>
            <Time>2019-10-09T10:36:38.000Z</Time>
            <Position>
              <LatitudeDegrees>38.90434817411005496978759765625</LatitudeDegrees>
              <LongitudeDegrees>-6.36678175069391727447509765625</LongitudeDegrees>
            </Position>
            <AltitudeMeters>234.8000030517578125</AltitudeMeters>
            <DistanceMeters>NAN</DistanceMeters>
          </Trackpoint>
          <Trackpoint>
            <Time>2019-10-09T10:36:41.000Z</Time>
            <Position>
              <LatitudeDegrees>38.90418388880789279937744140625</LatitudeDegrees>
              <LongitudeDegrees>-6.366722323000431060791015625</LongitudeDegrees>
            </Position>
            <AltitudeMeters>234.8000030517578125</AltitudeMeters>
            <DistanceMeters>NAN</DistanceMeters>
          </Trackpoint>
          <Trackpoint>
            <Time>2019-10-09T10:36:42.000Z</Time>
            <Position>
              <LatitudeDegrees>38.90412747859954833984375</LatitudeDegrees>
              <LongitudeDegrees>-6.36671083979308605194091796875</LongitudeDegrees>
            </Position>
            <AltitudeMeters>234.8000030517578125</AltitudeMeters>
            <DistanceMeters>NAN</DistanceMeters>
          </Trackpoint>
          <Trackpoint>
            <Time>2019-10-09T10:36:49.000Z</Time>
            <Position>
              <LatitudeDegrees>38.90374459326267242431640625</LatitudeDegrees>
              <LongitudeDegrees>-6.36668242514133453369140625</LongitudeDegrees>
            </Position>
            <AltitudeMeters>234.399993896484375</AltitudeMeters>
            <DistanceMeters>NAN</DistanceMeters>
          </Trackpoint>
          <Trackpoint>
            <Time>2019-10-09T10:36:59.000Z</Time>
            <Position>
              <LatitudeDegrees>38.90320421196520328521728515625</LatitudeDegrees>
              <LongitudeDegrees>-6.36666859500110149383544921875</LongitudeDegrees>
            </Position>
            <AltitudeMeters>235</AltitudeMeters>
            <DistanceMeters>NAN</DistanceMeters>
          </Trackpoint>
          <Trackpoint>
            <Time>2019-10-09T10:37:08.000Z</Time>
            <Position>
              <LatitudeDegrees>38.90272325836122035980224609375</LatitudeDegrees>
              <LongitudeDegrees>-6.36665216647088527679443359375</LongitudeDegrees>
            </Position>
            <AltitudeMeters>235.1999969482421875</AltitudeMeters>
            <DistanceMeters>NAN</DistanceMeters>
          </Trackpoint>
          <Trackpoint>
            <Time>2019-10-09T10:37:11.000Z</Time>
            <Position>
              <LatitudeDegrees>38.9025649242103099822998046875</LatitudeDegrees>
              <LongitudeDegrees>-6.36665099300444126129150390625</LongitudeDegrees>
            </Position>
            <AltitudeMeters>235.600006103515625</AltitudeMeters>
            <DistanceMeters>NAN</DistanceMeters>
          </Trackpoint>
          <Trackpoint>
            <Time>2019-10-09T10:37:16.000Z</Time>
            <Position>
              <LatitudeDegrees>38.90231137163937091827392578125</LatitudeDegrees>
              <LongitudeDegrees>-6.3666455447673797607421875</LongitudeDegrees>
            </Position>
            <AltitudeMeters>236</AltitudeMeters>
            <DistanceMeters>NAN</DistanceMeters>
          </Trackpoint>
          <Trackpoint>
            <Time>2019-10-09T10:37:19.000Z</Time>
            <Position>
              <LatitudeDegrees>38.90216435305774211883544921875</LatitudeDegrees>
              <LongitudeDegrees>-6.36663976125419139862060546875</LongitudeDegrees>
            </Position>
            <AltitudeMeters>236.399993896484375</AltitudeMeters>
            <DistanceMeters>NAN</DistanceMeters>
          </Trackpoint>
          <Trackpoint>
            <Time>2019-10-09T10:37:28.000Z</Time>
            <Position>
              <LatitudeDegrees>38.90175146050751209259033203125</LatitudeDegrees>
              <LongitudeDegrees>-6.36659324169158935546875</LongitudeDegrees>
            </Position>
            <AltitudeMeters>236.399993896484375</AltitudeMeters>
            <DistanceMeters>NAN</DistanceMeters>
          </Trackpoint>
          <Trackpoint>
            <Time>2019-10-09T10:37:29.000Z</Time>
            <Position>
              <LatitudeDegrees>38.901708126068115234375</LatitudeDegrees>
              <LongitudeDegrees>-6.36659986339509487152099609375</LongitudeDegrees>
            </Position>
            <AltitudeMeters>236.600006103515625</AltitudeMeters>
            <DistanceMeters>NAN</DistanceMeters>
          </Trackpoint>
          <Trackpoint>
            <Time>2019-10-09T10:37:31.000Z</Time>
            <Position>
              <LatitudeDegrees>38.90161617659032344818115234375</LatitudeDegrees>
              <LongitudeDegrees>-6.36660573072731494903564453125</LongitudeDegrees>
            </Position>
            <AltitudeMeters>235.8000030517578125</AltitudeMeters>
            <DistanceMeters>NAN</DistanceMeters>
          </Trackpoint>
          <Trackpoint>
            <Time>2019-10-09T10:37:33.000Z</Time>
            <Position>
              <LatitudeDegrees>38.9015259034931659698486328125</LatitudeDegrees>
              <LongitudeDegrees>-6.36659701354801654815673828125</LongitudeDegrees>
            </Position>
            <AltitudeMeters>235.8000030517578125</AltitudeMeters>
            <DistanceMeters>NAN</DistanceMeters>
          </Trackpoint>
          <Trackpoint>
            <Time>2019-10-09T10:37:39.000Z</Time>
            <Position>
              <LatitudeDegrees>38.90125952661037445068359375</LatitudeDegrees>
              <LongitudeDegrees>-6.36656600050628185272216796875</LongitudeDegrees>
            </Position>
            <AltitudeMeters>236</AltitudeMeters>
            <DistanceMeters>NAN</DistanceMeters>
          </Trackpoint>
          <Trackpoint>
            <Time>2019-10-09T10:37:41.000Z</Time>
            <Position>
              <LatitudeDegrees>38.9011730253696441650390625</LatitudeDegrees>
              <LongitudeDegrees>-6.36656030081212520599365234375</LongitudeDegrees>
            </Position>
            <AltitudeMeters>236</AltitudeMeters>
            <DistanceMeters>NAN</DistanceMeters>
          </Trackpoint>
          <Trackpoint>
            <Time>2019-10-09T10:37:51.000Z</Time>
            <Position>
              <LatitudeDegrees>38.90072819776833057403564453125</LatitudeDegrees>
              <LongitudeDegrees>-6.366547644138336181640625</LongitudeDegrees>
            </Position>
            <AltitudeMeters>236</AltitudeMeters>
            <DistanceMeters>NAN</DistanceMeters>
          </Trackpoint>
          <Trackpoint>
            <Time>2019-10-09T10:37:52.000Z</Time>
            <Position>
              <LatitudeDegrees>38.90067807398736476898193359375</LatitudeDegrees>
              <LongitudeDegrees>-6.3665461353957653045654296875</LongitudeDegrees>
            </Position>
            <AltitudeMeters>235.600006103515625</AltitudeMeters>
            <DistanceMeters>NAN</DistanceMeters>
          </Trackpoint>
          <Trackpoint>
            <Time>2019-10-09T10:37:53.000Z</Time>
            <Position>
              <LatitudeDegrees>38.900626860558986663818359375</LatitudeDegrees>
              <LongitudeDegrees>-6.36654186062514781951904296875</LongitudeDegrees>
            </Position>
            <AltitudeMeters>235.600006103515625</AltitudeMeters>
            <DistanceMeters>NAN</DistanceMeters>
          </Trackpoint>
          <Trackpoint>
            <Time>2019-10-09T10:37:54.000Z</Time>
            <Position>
              <LatitudeDegrees>38.900574557483196258544921875</LatitudeDegrees>
              <LongitudeDegrees>-6.36653850786387920379638671875</LongitudeDegrees>
            </Position>
            <AltitudeMeters>235.399993896484375</AltitudeMeters>
            <DistanceMeters>NAN</DistanceMeters>
          </Trackpoint>
          <Trackpoint>
            <Time>2019-10-09T10:37:59.000Z</Time>
            <Position>
              <LatitudeDegrees>38.90029652975499629974365234375</LatitudeDegrees>
              <LongitudeDegrees>-6.36653465218842029571533203125</LongitudeDegrees>
            </Position>
            <AltitudeMeters>235</AltitudeMeters>
            <DistanceMeters>NAN</DistanceMeters>
          </Trackpoint>
          <Trackpoint>
            <Time>2019-10-09T10:38:08.000Z</Time>
            <Position>
              <LatitudeDegrees>38.89977090060710906982421875</LatitudeDegrees>
              <LongitudeDegrees>-6.36654420755803585052490234375</LongitudeDegrees>
            </Position>
            <AltitudeMeters>234</AltitudeMeters>
            <DistanceMeters>NAN</DistanceMeters>
          </Trackpoint>
          <Trackpoint>
            <Time>2019-10-09T10:38:09.000Z</Time>
            <Position>
              <LatitudeDegrees>38.899711556732654571533203125</LatitudeDegrees>
              <LongitudeDegrees>-6.36654923669993877410888671875</LongitudeDegrees>
            </Position>
            <AltitudeMeters>234</AltitudeMeters>
            <DistanceMeters>NAN</DistanceMeters>
          </Trackpoint>
          <Trackpoint>
            <Time>2019-10-09T10:38:14.000Z</Time>
            <Position>
              <LatitudeDegrees>38.89940855093300342559814453125</LatitudeDegrees>
              <LongitudeDegrees>-6.36655694805085659027099609375</LongitudeDegrees>
            </Position>
            <AltitudeMeters>233.8000030517578125</AltitudeMeters>
            <DistanceMeters>NAN</DistanceMeters>
          </Trackpoint>
          <Trackpoint>
            <Time>2019-10-09T10:38:17.000Z</Time>
            <Position>
              <LatitudeDegrees>38.8992339558899402618408203125</LatitudeDegrees>
              <LongitudeDegrees>-6.36655309237539768218994140625</LongitudeDegrees>
            </Position>
            <AltitudeMeters>234.1999969482421875</AltitudeMeters>
            <DistanceMeters>NAN</DistanceMeters>
          </Trackpoint>
          <Trackpoint>
            <Time>2019-10-09T10:38:23.000Z</Time>
            <Position>
              <LatitudeDegrees>38.8988738693296909332275390625</LatitudeDegrees>
              <LongitudeDegrees>-6.36653901077806949615478515625</LongitudeDegrees>
            </Position>
            <AltitudeMeters>233.600006103515625</AltitudeMeters>
            <DistanceMeters>NAN</DistanceMeters>
          </Trackpoint>
          <Trackpoint>
            <Time>2019-10-09T10:38:24.000Z</Time>
            <Position>
              <LatitudeDegrees>38.898815028369426727294921875</LatitudeDegrees>
              <LongitudeDegrees>-6.36653867550194263458251953125</LongitudeDegrees>
            </Position>
            <AltitudeMeters>234.1999969482421875</AltitudeMeters>
            <DistanceMeters>NAN</DistanceMeters>
          </Trackpoint>
          <Trackpoint>
            <Time>2019-10-09T10:38:27.000Z</Time>
            <Position>
              <LatitudeDegrees>38.89863892458379268646240234375</LatitudeDegrees>
              <LongitudeDegrees>-6.36653490364551544189453125</LongitudeDegrees>
            </Position>
            <AltitudeMeters>234</AltitudeMeters>
            <DistanceMeters>NAN</DistanceMeters>
          </Trackpoint>
          <Trackpoint>
            <Time>2019-10-09T10:38:34.000Z</Time>
            <Position>
              <LatitudeDegrees>38.898230977356433868408203125</LatitudeDegrees>
              <LongitudeDegrees>-6.36652442626655101776123046875</LongitudeDegrees>
            </Position>
            <AltitudeMeters>234.1999969482421875</AltitudeMeters>
            <DistanceMeters>NAN</DistanceMeters>
          </Trackpoint>
          <Trackpoint>
            <Time>2019-10-09T10:38:37.000Z</Time>
            <Position>
              <LatitudeDegrees>38.898060321807861328125</LatitudeDegrees>
              <LongitudeDegrees>-6.366526186466217041015625</LongitudeDegrees>
            </Position>
            <AltitudeMeters>234.8000030517578125</AltitudeMeters>
            <DistanceMeters>NAN</DistanceMeters>
          </Trackpoint>
          <Trackpoint>
            <Time>2019-10-09T10:38:47.000Z</Time>
            <Position>
              <LatitudeDegrees>38.89749898575246334075927734375</LatitudeDegrees>
              <LongitudeDegrees>-6.36651051230728626251220703125</LongitudeDegrees>
            </Position>
            <AltitudeMeters>235.1999969482421875</AltitudeMeters>
            <DistanceMeters>NAN</DistanceMeters>
          </Trackpoint>
          <Trackpoint>
            <Time>2019-10-09T10:38:53.000Z</Time>
            <Position>
              <LatitudeDegrees>38.89717946760356426239013671875</LatitudeDegrees>
              <LongitudeDegrees>-6.36650950647890567779541015625</LongitudeDegrees>
            </Position>
            <AltitudeMeters>236</AltitudeMeters>
            <DistanceMeters>NAN</DistanceMeters>
          </Trackpoint>
          <Trackpoint>
            <Time>2019-10-09T10:38:57.000Z</Time>
            <Position>
              <LatitudeDegrees>38.896964974701404571533203125</LatitudeDegrees>
              <LongitudeDegrees>-6.36650405824184417724609375</LongitudeDegrees>
            </Position>
            <AltitudeMeters>236</AltitudeMeters>
            <DistanceMeters>NAN</DistanceMeters>
          </Trackpoint>
          <Trackpoint>
            <Time>2019-10-09T10:39:04.000Z</Time>
            <Position>
              <LatitudeDegrees>38.89657932333648204803466796875</LatitudeDegrees>
              <LongitudeDegrees>-6.3664988614618778228759765625</LongitudeDegrees>
            </Position>
            <AltitudeMeters>237</AltitudeMeters>
            <DistanceMeters>NAN</DistanceMeters>
          </Trackpoint>
          <Trackpoint>
            <Time>2019-10-09T10:39:06.000Z</Time>
            <Position>
              <LatitudeDegrees>38.8964655809104442596435546875</LatitudeDegrees>
              <LongitudeDegrees>-6.366495005786418914794921875</LongitudeDegrees>
            </Position>
            <AltitudeMeters>237</AltitudeMeters>
            <DistanceMeters>NAN</DistanceMeters>
          </Trackpoint>
          <Trackpoint>
            <Time>2019-10-09T10:39:13.000Z</Time>
            <Position>
              <LatitudeDegrees>38.8960622437298297882080078125</LatitudeDegrees>
              <LongitudeDegrees>-6.36647631414234638214111328125</LongitudeDegrees>
            </Position>
            <AltitudeMeters>237</AltitudeMeters>
            <DistanceMeters>NAN</DistanceMeters>
          </Trackpoint>
          <Trackpoint>
            <Time>2019-10-09T10:39:17.000Z</Time>
            <Position>
              <LatitudeDegrees>38.8958345912396907806396484375</LatitudeDegrees>
              <LongitudeDegrees>-6.36646918952465057373046875</LongitudeDegrees>
            </Position>
            <AltitudeMeters>236.8000030517578125</AltitudeMeters>
            <DistanceMeters>NAN</DistanceMeters>
          </Trackpoint>
          <Trackpoint>
            <Time>2019-10-09T10:39:26.000Z</Time>
            <Position>
              <LatitudeDegrees>38.895322121679782867431640625</LatitudeDegrees>
              <LongitudeDegrees>-6.3664696924388408660888671875</LongitudeDegrees>
            </Position>
            <AltitudeMeters>236.8000030517578125</AltitudeMeters>
            <DistanceMeters>NAN</DistanceMeters>
          </Trackpoint>
          <Trackpoint>
            <Time>2019-10-09T10:39:34.000Z</Time>
            <Position>
              <LatitudeDegrees>38.8948569260537624359130859375</LatitudeDegrees>
              <LongitudeDegrees>-6.36646189726889133453369140625</LongitudeDegrees>
            </Position>
            <AltitudeMeters>236.8000030517578125</AltitudeMeters>
            <DistanceMeters>NAN</DistanceMeters>
          </Trackpoint>
          <Trackpoint>
            <Time>2019-10-09T10:39:42.000Z</Time>
            <Position>
              <LatitudeDegrees>38.89440782368183135986328125</LatitudeDegrees>
              <LongitudeDegrees>-6.36645753867924213409423828125</LongitudeDegrees>
            </Position>
            <AltitudeMeters>237.399993896484375</AltitudeMeters>
            <DistanceMeters>NAN</DistanceMeters>
          </Trackpoint>
          <Trackpoint>
            <Time>2019-10-09T10:39:47.000Z</Time>
            <Position>
              <LatitudeDegrees>38.8941375911235809326171875</LatitudeDegrees>
              <LongitudeDegrees>-6.36645041406154632568359375</LongitudeDegrees>
            </Position>
            <AltitudeMeters>238.399993896484375</AltitudeMeters>
            <DistanceMeters>NAN</DistanceMeters>
          </Trackpoint>
          <Trackpoint>
            <Time>2019-10-09T10:39:50.000Z</Time>
            <Position>
              <LatitudeDegrees>38.89397858642041683197021484375</LatitudeDegrees>
              <LongitudeDegrees>-6.3664458878338336944580078125</LongitudeDegrees>
            </Position>
            <AltitudeMeters>238.600006103515625</AltitudeMeters>
            <DistanceMeters>NAN</DistanceMeters>
          </Trackpoint>
          <Trackpoint>
            <Time>2019-10-09T10:39:59.000Z</Time>
            <Position>
              <LatitudeDegrees>38.893523700535297393798828125</LatitudeDegrees>
              <LongitudeDegrees>-6.36645980179309844970703125</LongitudeDegrees>
            </Position>
            <AltitudeMeters>239</AltitudeMeters>
            <DistanceMeters>NAN</DistanceMeters>
          </Trackpoint>
          <Trackpoint>
            <Time>2019-10-09T10:40:02.000Z</Time>
            <Position>
              <LatitudeDegrees>38.89339218847453594207763671875</LatitudeDegrees>
              <LongitudeDegrees>-6.36655057780444622039794921875</LongitudeDegrees>
            </Position>
            <AltitudeMeters>239.8000030517578125</AltitudeMeters>
            <DistanceMeters>NAN</DistanceMeters>
          </Trackpoint>
          <Trackpoint>
            <Time>2019-10-09T10:40:03.000Z</Time>
            <Position>
              <LatitudeDegrees>38.89335530810058116912841796875</LatitudeDegrees>
              <LongitudeDegrees>-6.366594918072223663330078125</LongitudeDegrees>
            </Position>
            <AltitudeMeters>239.399993896484375</AltitudeMeters>
            <DistanceMeters>NAN</DistanceMeters>
          </Trackpoint>
          <Trackpoint>
            <Time>2019-10-09T10:40:04.000Z</Time>
            <Position>
              <LatitudeDegrees>38.89331339858472347259521484375</LatitudeDegrees>
              <LongitudeDegrees>-6.36663104407489299774169921875</LongitudeDegrees>
            </Position>
            <AltitudeMeters>239.399993896484375</AltitudeMeters>
            <DistanceMeters>NAN</DistanceMeters>
          </Trackpoint>
          <Trackpoint>
            <Time>2019-10-09T10:40:07.000Z</Time>
            <Position>
              <LatitudeDegrees>38.89316654764115810394287109375</LatitudeDegrees>
              <LongitudeDegrees>-6.3666705228388309478759765625</LongitudeDegrees>
            </Position>
            <AltitudeMeters>239.600006103515625</AltitudeMeters>
            <DistanceMeters>NAN</DistanceMeters>
          </Trackpoint>
          <Trackpoint>
            <Time>2019-10-09T10:40:10.000Z</Time>
            <Position>
              <LatitudeDegrees>38.893022127449512481689453125</LatitudeDegrees>
              <LongitudeDegrees>-6.3665880449116230010986328125</LongitudeDegrees>
            </Position>
            <AltitudeMeters>240.1999969482421875</AltitudeMeters>
            <DistanceMeters>NAN</DistanceMeters>
          </Trackpoint>
          <Trackpoint>
            <Time>2019-10-09T10:40:13.000Z</Time>
            <Position>
              <LatitudeDegrees>38.89294191263616085052490234375</LatitudeDegrees>
              <LongitudeDegrees>-6.36640741489827632904052734375</LongitudeDegrees>
            </Position>
            <AltitudeMeters>240.1999969482421875</AltitudeMeters>
            <DistanceMeters>NAN</DistanceMeters>
          </Trackpoint>
          <Trackpoint>
            <Time>2019-10-09T10:40:17.000Z</Time>
            <Position>
              <LatitudeDegrees>38.89285616576671600341796875</LatitudeDegrees>
              <LongitudeDegrees>-6.3661448098719120025634765625</LongitudeDegrees>
            </Position>
            <AltitudeMeters>240.399993896484375</AltitudeMeters>
            <DistanceMeters>NAN</DistanceMeters>
          </Trackpoint>
          <Trackpoint>
            <Time>2019-10-09T10:40:20.000Z</Time>
            <Position>
              <LatitudeDegrees>38.89270126819610595703125</LatitudeDegrees>
              <LongitudeDegrees>-6.3660299777984619140625</LongitudeDegrees>
            </Position>
            <AltitudeMeters>239.600006103515625</AltitudeMeters>
            <DistanceMeters>NAN</DistanceMeters>
          </Trackpoint>
          <Trackpoint>
            <Time>2019-10-09T10:40:21.000Z</Time>
            <Position>
              <LatitudeDegrees>38.89264469034969806671142578125</LatitudeDegrees>
              <LongitudeDegrees>-6.3660049997270107269287109375</LongitudeDegrees>
            </Position>
            <AltitudeMeters>239.399993896484375</AltitudeMeters>
            <DistanceMeters>NAN</DistanceMeters>
          </Trackpoint>
          <Trackpoint>
            <Time>2019-10-09T10:40:23.000Z</Time>
            <Position>
              <LatitudeDegrees>38.8925304450094699859619140625</LatitudeDegrees>
              <LongitudeDegrees>-6.365968622267246246337890625</LongitudeDegrees>
            </Position>
            <AltitudeMeters>240</AltitudeMeters>
            <DistanceMeters>NAN</DistanceMeters>
          </Trackpoint>
          <Trackpoint>
            <Time>2019-10-09T10:40:26.000Z</Time>
            <Position>
              <LatitudeDegrees>38.8923584483563899993896484375</LatitudeDegrees>
              <LongitudeDegrees>-6.3659416325390338897705078125</LongitudeDegrees>
            </Position>
            <AltitudeMeters>239.399993896484375</AltitudeMeters>
            <DistanceMeters>NAN</DistanceMeters>
          </Trackpoint>
          <Trackpoint>
            <Time>2019-10-09T10:40:32.000Z</Time>
            <Position>
              <LatitudeDegrees>38.89201931655406951904296875</LatitudeDegrees>
              <LongitudeDegrees>-6.3659868948161602020263671875</LongitudeDegrees>
            </Position>
            <AltitudeMeters>240</AltitudeMeters>
            <DistanceMeters>NAN</DistanceMeters>
          </Trackpoint>
          <Trackpoint>
            <Time>2019-10-09T10:40:38.000Z</Time>
            <Position>
              <LatitudeDegrees>38.8917075097560882568359375</LatitudeDegrees>
              <LongitudeDegrees>-6.3660978712141513824462890625</LongitudeDegrees>
            </Position>
            <AltitudeMeters>239.8000030517578125</AltitudeMeters>
            <DistanceMeters>NAN</DistanceMeters>
          </Trackpoint>
          <Trackpoint>
            <Time>2019-10-09T10:40:45.000Z</Time>
            <Position>
              <LatitudeDegrees>38.891380615532398223876953125</LatitudeDegrees>
              <LongitudeDegrees>-6.36623072437942028045654296875</LongitudeDegrees>
            </Position>
            <AltitudeMeters>240.600006103515625</AltitudeMeters>
            <DistanceMeters>NAN</DistanceMeters>
          </Trackpoint>
          <Trackpoint>
            <Time>2019-10-09T10:40:46.000Z</Time>
            <Position>
              <LatitudeDegrees>38.89133912511169910430908203125</LatitudeDegrees>
              <LongitudeDegrees>-6.3662520982325077056884765625</LongitudeDegrees>
            </Position>
            <AltitudeMeters>241.1999969482421875</AltitudeMeters>
            <DistanceMeters>NAN</DistanceMeters>
          </Trackpoint>
          <Trackpoint>
            <Time>2019-10-09T10:40:51.000Z</Time>
            <Position>
              <LatitudeDegrees>38.89113393612205982208251953125</LatitudeDegrees>
              <LongitudeDegrees>-6.366329379379749298095703125</LongitudeDegrees>
            </Position>
            <AltitudeMeters>241.399993896484375</AltitudeMeters>
            <DistanceMeters>NAN</DistanceMeters>
          </Trackpoint>
          <Trackpoint>
            <Time>2019-10-09T10:40:53.000Z</Time>
            <Position>
              <LatitudeDegrees>38.8910476863384246826171875</LatitudeDegrees>
              <LongitudeDegrees>-6.366356201469898223876953125</LongitudeDegrees>
            </Position>
            <AltitudeMeters>242.1999969482421875</AltitudeMeters>
            <DistanceMeters>NAN</DistanceMeters>
          </Trackpoint>
          <Trackpoint>
            <Time>2019-10-09T10:40:59.000Z</Time>
            <Position>
              <LatitudeDegrees>38.890783488750457763671875</LatitudeDegrees>
              <LongitudeDegrees>-6.3664033077657222747802734375</LongitudeDegrees>
            </Position>
            <AltitudeMeters>242.8000030517578125</AltitudeMeters>
            <DistanceMeters>NAN</DistanceMeters>
          </Trackpoint>
          <Trackpoint>
            <Time>2019-10-09T10:41:07.000Z</Time>
            <Position>
              <LatitudeDegrees>38.89041996560990810394287109375</LatitudeDegrees>
              <LongitudeDegrees>-6.366413198411464691162109375</LongitudeDegrees>
            </Position>
            <AltitudeMeters>243</AltitudeMeters>
            <DistanceMeters>NAN</DistanceMeters>
          </Trackpoint>
          <Trackpoint>
            <Time>2019-10-09T10:41:08.000Z</Time>
            <Position>
              <LatitudeDegrees>38.8903756253421306610107421875</LatitudeDegrees>
              <LongitudeDegrees>-6.36641244404017925262451171875</LongitudeDegrees>
            </Position>
            <AltitudeMeters>242.8000030517578125</AltitudeMeters>
            <DistanceMeters>NAN</DistanceMeters>
          </Trackpoint>
          <Trackpoint>
            <Time>2019-10-09T10:41:15.000Z</Time>
            <Position>
              <LatitudeDegrees>38.890050239861011505126953125</LatitudeDegrees>
              <LongitudeDegrees>-6.36639132164418697357177734375</LongitudeDegrees>
            </Position>
            <AltitudeMeters>243.1999969482421875</AltitudeMeters>
            <DistanceMeters>NAN</DistanceMeters>
          </Trackpoint>
          <Trackpoint>
            <Time>2019-10-09T10:41:16.000Z</Time>
            <Position>
              <LatitudeDegrees>38.890003301203250885009765625</LatitudeDegrees>
              <LongitudeDegrees>-6.3663862086832523345947265625</LongitudeDegrees>
            </Position>
            <AltitudeMeters>243.1999969482421875</AltitudeMeters>
            <DistanceMeters>NAN</DistanceMeters>
          </Trackpoint>
          <Trackpoint>
            <Time>2019-10-09T10:41:25.000Z</Time>
            <Position>
              <LatitudeDegrees>38.8895863853394985198974609375</LatitudeDegrees>
              <LongitudeDegrees>-6.36634388007223606109619140625</LongitudeDegrees>
            </Position>
            <AltitudeMeters>244</AltitudeMeters>
            <DistanceMeters>NAN</DistanceMeters>
          </Trackpoint>
          <Trackpoint>
            <Time>2019-10-09T10:41:27.000Z</Time>
            <Position>
              <LatitudeDegrees>38.889494352042675018310546875</LatitudeDegrees>
              <LongitudeDegrees>-6.3663397729396820068359375</LongitudeDegrees>
            </Position>
            <AltitudeMeters>244.399993896484375</AltitudeMeters>
            <DistanceMeters>NAN</DistanceMeters>
          </Trackpoint>
          <Trackpoint>
            <Time>2019-10-09T10:41:34.000Z</Time>
            <Position>
              <LatitudeDegrees>38.88917726464569568634033203125</LatitudeDegrees>
              <LongitudeDegrees>-6.3663265295326709747314453125</LongitudeDegrees>
            </Position>
            <AltitudeMeters>244.399993896484375</AltitudeMeters>
            <DistanceMeters>NAN</DistanceMeters>
          </Trackpoint>
          <Trackpoint>
            <Time>2019-10-09T10:41:43.000Z</Time>
            <Position>
              <LatitudeDegrees>38.88876722194254398345947265625</LatitudeDegrees>
              <LongitudeDegrees>-6.36629660613834857940673828125</LongitudeDegrees>
            </Position>
            <AltitudeMeters>245</AltitudeMeters>
            <DistanceMeters>NAN</DistanceMeters>
          </Trackpoint>
          <Trackpoint>
            <Time>2019-10-09T10:41:50.000Z</Time>
            <Position>
              <LatitudeDegrees>38.888436220586299896240234375</LatitudeDegrees>
              <LongitudeDegrees>-6.36624631471931934356689453125</LongitudeDegrees>
            </Position>
            <AltitudeMeters>245.399993896484375</AltitudeMeters>
            <DistanceMeters>NAN</DistanceMeters>
          </Trackpoint>
          <Trackpoint>
            <Time>2019-10-09T10:41:53.000Z</Time>
            <Position>
              <LatitudeDegrees>38.88829247094690799713134765625</LatitudeDegrees>
              <LongitudeDegrees>-6.36622619815170764923095703125</LongitudeDegrees>
            </Position>
            <AltitudeMeters>244.8000030517578125</AltitudeMeters>
            <DistanceMeters>NAN</DistanceMeters>
          </Trackpoint>
          <Trackpoint>
            <Time>2019-10-09T10:42:03.000Z</Time>
            <Position>
              <LatitudeDegrees>38.88777245767414569854736328125</LatitudeDegrees>
              <LongitudeDegrees>-6.366141624748706817626953125</LongitudeDegrees>
            </Position>
            <AltitudeMeters>244.600006103515625</AltitudeMeters>
            <DistanceMeters>NAN</DistanceMeters>
          </Trackpoint>
          <Trackpoint>
            <Time>2019-10-09T10:42:07.000Z</Time>
            <Position>
              <LatitudeDegrees>38.88753843493759632110595703125</LatitudeDegrees>
              <LongitudeDegrees>-6.36610382236540317535400390625</LongitudeDegrees>
            </Position>
            <AltitudeMeters>244.1999969482421875</AltitudeMeters>
            <DistanceMeters>NAN</DistanceMeters>
          </Trackpoint>
          <Trackpoint>
            <Time>2019-10-09T10:42:09.000Z</Time>
            <Position>
              <LatitudeDegrees>38.88741304166615009307861328125</LatitudeDegrees>
              <LongitudeDegrees>-6.36608035303652286529541015625</LongitudeDegrees>
            </Position>
            <AltitudeMeters>243.600006103515625</AltitudeMeters>
            <DistanceMeters>NAN</DistanceMeters>
          </Trackpoint>
          <Trackpoint>
            <Time>2019-10-09T10:42:10.000Z</Time>
            <Position>
              <LatitudeDegrees>38.88734766282141208648681640625</LatitudeDegrees>
              <LongitudeDegrees>-6.3660666905343532562255859375</LongitudeDegrees>
            </Position>
            <AltitudeMeters>243.399993896484375</AltitudeMeters>
            <DistanceMeters>NAN</DistanceMeters>
          </Trackpoint>
          <Trackpoint>
            <Time>2019-10-09T10:42:11.000Z</Time>
            <Position>
              <LatitudeDegrees>38.8872803561389446258544921875</LatitudeDegrees>
              <LongitudeDegrees>-6.36605453677475452423095703125</LongitudeDegrees>
            </Position>
            <AltitudeMeters>243</AltitudeMeters>
            <DistanceMeters>NAN</DistanceMeters>
          </Trackpoint>
          <Trackpoint>
            <Time>2019-10-09T10:42:14.000Z</Time>
            <Position>
              <LatitudeDegrees>38.88706938363611698150634765625</LatitudeDegrees>
              <LongitudeDegrees>-6.3660197518765926361083984375</LongitudeDegrees>
            </Position>
            <AltitudeMeters>242</AltitudeMeters>
            <DistanceMeters>NAN</DistanceMeters>
          </Trackpoint>
          <Trackpoint>
            <Time>2019-10-09T10:42:16.000Z</Time>
            <Position>
              <LatitudeDegrees>38.8869224488735198974609375</LatitudeDegrees>
              <LongitudeDegrees>-6.36599586345255374908447265625</LongitudeDegrees>
            </Position>
            <AltitudeMeters>241</AltitudeMeters>
            <DistanceMeters>NAN</DistanceMeters>
          </Trackpoint>
          <Trackpoint>
            <Time>2019-10-09T10:42:17.000Z</Time>
            <Position>
              <LatitudeDegrees>38.88684759847819805145263671875</LatitudeDegrees>
              <LongitudeDegrees>-6.3659803569316864013671875</LongitudeDegrees>
            </Position>
            <AltitudeMeters>241</AltitudeMeters>
            <DistanceMeters>NAN</DistanceMeters>
          </Trackpoint>
          <Trackpoint>
            <Time>2019-10-09T10:42:19.000Z</Time>
            <Position>
              <LatitudeDegrees>38.8866944611072540283203125</LatitudeDegrees>
              <LongitudeDegrees>-6.3659583963453769683837890625</LongitudeDegrees>
            </Position>
            <AltitudeMeters>240.1999969482421875</AltitudeMeters>
            <DistanceMeters>NAN</DistanceMeters>
          </Trackpoint>
          <Trackpoint>
            <Time>2019-10-09T10:42:20.000Z</Time>
            <Position>
              <LatitudeDegrees>38.8866165094077587127685546875</LatitudeDegrees>
              <LongitudeDegrees>-6.3659463264048099517822265625</LongitudeDegrees>
            </Position>
            <AltitudeMeters>239.8000030517578125</AltitudeMeters>
            <DistanceMeters>NAN</DistanceMeters>
          </Trackpoint>
          <Trackpoint>
            <Time>2019-10-09T10:42:23.000Z</Time>
            <Position>
              <LatitudeDegrees>38.88637536205351352691650390625</LatitudeDegrees>
              <LongitudeDegrees>-6.365902237594127655029296875</LongitudeDegrees>
            </Position>
            <AltitudeMeters>238.600006103515625</AltitudeMeters>
            <DistanceMeters>NAN</DistanceMeters>
          </Trackpoint>
          <Trackpoint>
            <Time>2019-10-09T10:42:26.000Z</Time>
            <Position>
              <LatitudeDegrees>38.886126838624477386474609375</LatitudeDegrees>
              <LongitudeDegrees>-6.36586024425923824310302734375</LongitudeDegrees>
            </Position>
            <AltitudeMeters>237.600006103515625</AltitudeMeters>
            <DistanceMeters>NAN</DistanceMeters>
          </Trackpoint>
          <Trackpoint>
            <Time>2019-10-09T10:42:27.000Z</Time>
            <Position>
              <LatitudeDegrees>38.88604427687823772430419921875</LatitudeDegrees>
              <LongitudeDegrees>-6.36584633029997348785400390625</LongitudeDegrees>
            </Position>
            <AltitudeMeters>237.1999969482421875</AltitudeMeters>
            <DistanceMeters>NAN</DistanceMeters>
          </Trackpoint>
          <Trackpoint>
            <Time>2019-10-09T10:42:29.000Z</Time>
            <Position>
              <LatitudeDegrees>38.88588015921413898468017578125</LatitudeDegrees>
              <LongitudeDegrees>-6.36581967584788799285888671875</LongitudeDegrees>
            </Position>
            <AltitudeMeters>236.8000030517578125</AltitudeMeters>
            <DistanceMeters>NAN</DistanceMeters>
          </Trackpoint>
          <Trackpoint>
            <Time>2019-10-09T10:42:30.000Z</Time>
            <Position>
              <LatitudeDegrees>38.8858001120388507843017578125</LatitudeDegrees>
              <LongitudeDegrees>-6.36580542661249637603759765625</LongitudeDegrees>
            </Position>
            <AltitudeMeters>236.8000030517578125</AltitudeMeters>
            <DistanceMeters>NAN</DistanceMeters>
          </Trackpoint>
          <Trackpoint>
            <Time>2019-10-09T10:42:31.000Z</Time>
            <Position>
              <LatitudeDegrees>38.885721825063228607177734375</LatitudeDegrees>
              <LongitudeDegrees>-6.36579536832869052886962890625</LongitudeDegrees>
            </Position>
            <AltitudeMeters>237.1999969482421875</AltitudeMeters>
            <DistanceMeters>NAN</DistanceMeters>
          </Trackpoint>
          <Trackpoint>
            <Time>2019-10-09T10:42:34.000Z</Time>
            <Position>
              <LatitudeDegrees>38.8854960165917873382568359375</LatitudeDegrees>
              <LongitudeDegrees>-6.365763433277606964111328125</LongitudeDegrees>
            </Position>
            <AltitudeMeters>237.1999969482421875</AltitudeMeters>
            <DistanceMeters>NAN</DistanceMeters>
          </Trackpoint>
          <Trackpoint>
            <Time>2019-10-09T10:42:36.000Z</Time>
            <Position>
              <LatitudeDegrees>38.8853481598198413848876953125</LatitudeDegrees>
              <LongitudeDegrees>-6.36573669500648975372314453125</LongitudeDegrees>
            </Position>
            <AltitudeMeters>237.399993896484375</AltitudeMeters>
            <DistanceMeters>NAN</DistanceMeters>
          </Trackpoint>
          <Trackpoint>
            <Time>2019-10-09T10:42:39.000Z</Time>
            <Position>
              <LatitudeDegrees>38.88513601385056972503662109375</LatitudeDegrees>
              <LongitudeDegrees>-6.36569780297577381134033203125</LongitudeDegrees>
            </Position>
            <AltitudeMeters>236.600006103515625</AltitudeMeters>
            <DistanceMeters>NAN</DistanceMeters>
          </Trackpoint>
          <Trackpoint>
            <Time>2019-10-09T10:42:40.000Z</Time>
            <Position>
              <LatitudeDegrees>38.8850655220448970794677734375</LatitudeDegrees>
              <LongitudeDegrees>-6.36568732559680938720703125</LongitudeDegrees>
            </Position>
            <AltitudeMeters>237.1999969482421875</AltitudeMeters>
            <DistanceMeters>NAN</DistanceMeters>
          </Trackpoint>
          <Trackpoint>
            <Time>2019-10-09T10:42:42.000Z</Time>
            <Position>
              <LatitudeDegrees>38.88492160476744174957275390625</LatitudeDegrees>
              <LongitudeDegrees>-6.36566662229597568511962890625</LongitudeDegrees>
            </Position>
            <AltitudeMeters>236.8000030517578125</AltitudeMeters>
            <DistanceMeters>NAN</DistanceMeters>
          </Trackpoint>
          <Trackpoint>
            <Time>2019-10-09T10:42:44.000Z</Time>
            <Position>
              <LatitudeDegrees>38.8847793638706207275390625</LatitudeDegrees>
              <LongitudeDegrees>-6.36563996784389019012451171875</LongitudeDegrees>
            </Position>
            <AltitudeMeters>236.600006103515625</AltitudeMeters>
            <DistanceMeters>NAN</DistanceMeters>
          </Trackpoint>
          <Trackpoint>
            <Time>2019-10-09T10:42:46.000Z</Time>
            <Position>
              <LatitudeDegrees>38.884636871516704559326171875</LatitudeDegrees>
              <LongitudeDegrees>-6.36561800725758075714111328125</LongitudeDegrees>
            </Position>
            <AltitudeMeters>236.600006103515625</AltitudeMeters>
            <DistanceMeters>NAN</DistanceMeters>
          </Trackpoint>
          <Trackpoint>
            <Time>2019-10-09T10:42:48.000Z</Time>
            <Position>
              <LatitudeDegrees>38.88449630700051784515380859375</LatitudeDegrees>
              <LongitudeDegrees>-6.365597136318683624267578125</LongitudeDegrees>
            </Position>
            <AltitudeMeters>236.600006103515625</AltitudeMeters>
            <DistanceMeters>NAN</DistanceMeters>
          </Trackpoint>
          <Trackpoint>
            <Time>2019-10-09T10:42:51.000Z</Time>
            <Position>
              <LatitudeDegrees>38.88428877107799053192138671875</LatitudeDegrees>
              <LongitudeDegrees>-6.3655619323253631591796875</LongitudeDegrees>
            </Position>
            <AltitudeMeters>236.8000030517578125</AltitudeMeters>
            <DistanceMeters>NAN</DistanceMeters>
          </Trackpoint>
          <Trackpoint>
            <Time>2019-10-09T10:42:58.000Z</Time>
            <Position>
              <LatitudeDegrees>38.883834220468997955322265625</LatitudeDegrees>
              <LongitudeDegrees>-6.3654926978051662445068359375</LongitudeDegrees>
            </Position>
            <AltitudeMeters>238</AltitudeMeters>
            <DistanceMeters>NAN</DistanceMeters>
          </Trackpoint>
          <Trackpoint>
            <Time>2019-10-09T10:42:59.000Z</Time>
            <Position>
              <LatitudeDegrees>38.88377286493778228759765625</LatitudeDegrees>
              <LongitudeDegrees>-6.3654812984168529510498046875</LongitudeDegrees>
            </Position>
            <AltitudeMeters>238</AltitudeMeters>
            <DistanceMeters>NAN</DistanceMeters>
          </Trackpoint>
          <Trackpoint>
            <Time>2019-10-09T10:43:03.000Z</Time>
            <Position>
              <LatitudeDegrees>38.88353154994547367095947265625</LatitudeDegrees>
              <LongitudeDegrees>-6.3654424063861370086669921875</LongitudeDegrees>
            </Position>
            <AltitudeMeters>238.600006103515625</AltitudeMeters>
            <DistanceMeters>NAN</DistanceMeters>
          </Trackpoint>
          <Trackpoint>
            <Time>2019-10-09T10:43:05.000Z</Time>
            <Position>
              <LatitudeDegrees>38.8834102638065814971923828125</LatitudeDegrees>
              <LongitudeDegrees>-6.36542472057044506072998046875</LongitudeDegrees>
            </Position>
            <AltitudeMeters>239.1999969482421875</AltitudeMeters>
            <DistanceMeters>NAN</DistanceMeters>
          </Trackpoint>
          <Trackpoint>
            <Time>2019-10-09T10:43:07.000Z</Time>
            <Position>
              <LatitudeDegrees>38.8832895644009113311767578125</LatitudeDegrees>
              <LongitudeDegrees>-6.3654078729450702667236328125</LongitudeDegrees>
            </Position>
            <AltitudeMeters>239</AltitudeMeters>
            <DistanceMeters>NAN</DistanceMeters>
          </Trackpoint>
          <Trackpoint>
            <Time>2019-10-09T10:43:09.000Z</Time>
            <Position>
              <LatitudeDegrees>38.88317163102328777313232421875</LatitudeDegrees>
              <LongitudeDegrees>-6.365383900701999664306640625</LongitudeDegrees>
            </Position>
            <AltitudeMeters>239.1999969482421875</AltitudeMeters>
            <DistanceMeters>NAN</DistanceMeters>
          </Trackpoint>
          <Trackpoint>
            <Time>2019-10-09T10:43:12.000Z</Time>
            <Position>
              <LatitudeDegrees>38.8829975388944149017333984375</LatitudeDegrees>
              <LongitudeDegrees>-6.36535699479281902313232421875</LongitudeDegrees>
            </Position>
            <AltitudeMeters>239.1999969482421875</AltitudeMeters>
            <DistanceMeters>NAN</DistanceMeters>
          </Trackpoint>
          <Trackpoint>
            <Time>2019-10-09T10:43:15.000Z</Time>
            <Position>
              <LatitudeDegrees>38.882829733192920684814453125</LatitudeDegrees>
              <LongitudeDegrees>-6.3653284125030040740966796875</LongitudeDegrees>
            </Position>
            <AltitudeMeters>240.1999969482421875</AltitudeMeters>
            <DistanceMeters>NAN</DistanceMeters>
          </Trackpoint>
          <Trackpoint>
            <Time>2019-10-09T10:43:18.000Z</Time>
            <Position>
              <LatitudeDegrees>38.882663436233997344970703125</LatitudeDegrees>
              <LongitudeDegrees>-6.36529949493706226348876953125</LongitudeDegrees>
            </Position>
            <AltitudeMeters>239.8000030517578125</AltitudeMeters>
            <DistanceMeters>NAN</DistanceMeters>
          </Trackpoint>
          <Trackpoint>
            <Time>2019-10-09T10:43:19.000Z</Time>
            <Position>
              <LatitudeDegrees>38.88260870240628719329833984375</LatitudeDegrees>
              <LongitudeDegrees>-6.365292705595493316650390625</LongitudeDegrees>
            </Position>
            <AltitudeMeters>240.1999969482421875</AltitudeMeters>
            <DistanceMeters>NAN</DistanceMeters>
          </Trackpoint>
          <Trackpoint>
            <Time>2019-10-09T10:43:24.000Z</Time>
            <Position>
              <LatitudeDegrees>38.8823481090366840362548828125</LatitudeDegrees>
              <LongitudeDegrees>-6.36524752713739871978759765625</LongitudeDegrees>
            </Position>
            <AltitudeMeters>240.8000030517578125</AltitudeMeters>
            <DistanceMeters>NAN</DistanceMeters>
          </Trackpoint>
          <Trackpoint>
            <Time>2019-10-09T10:43:27.000Z</Time>
            <Position>
              <LatitudeDegrees>38.8821878470480442047119140625</LatitudeDegrees>
              <LongitudeDegrees>-6.365222297608852386474609375</LongitudeDegrees>
            </Position>
            <AltitudeMeters>241</AltitudeMeters>
            <DistanceMeters>NAN</DistanceMeters>
          </Trackpoint>
          <Trackpoint>
            <Time>2019-10-09T10:43:37.000Z</Time>
            <Position>
              <LatitudeDegrees>38.88165383599698543548583984375</LatitudeDegrees>
              <LongitudeDegrees>-6.36512632481753826141357421875</LongitudeDegrees>
            </Position>
            <AltitudeMeters>241</AltitudeMeters>
            <DistanceMeters>NAN</DistanceMeters>
          </Trackpoint>
          <Trackpoint>
            <Time>2019-10-09T10:43:38.000Z</Time>
            <Position>
              <LatitudeDegrees>38.8815997727215290069580078125</LatitudeDegrees>
              <LongitudeDegrees>-6.36511744000017642974853515625</LongitudeDegrees>
            </Position>
            <AltitudeMeters>241</AltitudeMeters>
            <DistanceMeters>NAN</DistanceMeters>
          </Trackpoint>
          <Trackpoint>
            <Time>2019-10-09T10:43:45.000Z</Time>
            <Position>
              <LatitudeDegrees>38.88121847994625568389892578125</LatitudeDegrees>
              <LongitudeDegrees>-6.36505826376378536224365234375</LongitudeDegrees>
            </Position>
            <AltitudeMeters>240.399993896484375</AltitudeMeters>
            <DistanceMeters>NAN</DistanceMeters>
          </Trackpoint>
          <Trackpoint>
            <Time>2019-10-09T10:43:47.000Z</Time>
            <Position>
              <LatitudeDegrees>38.881111443042755126953125</LatitudeDegrees>
              <LongitudeDegrees>-6.36503823101520538330078125</LongitudeDegrees>
            </Position>
            <AltitudeMeters>240.600006103515625</AltitudeMeters>
            <DistanceMeters>NAN</DistanceMeters>
          </Trackpoint>
          <Trackpoint>
            <Time>2019-10-09T10:43:57.000Z</Time>
            <Position>
              <LatitudeDegrees>38.88056787662208080291748046875</LatitudeDegrees>
              <LongitudeDegrees>-6.36495231650769710540771484375</LongitudeDegrees>
            </Position>
            <AltitudeMeters>240.8000030517578125</AltitudeMeters>
            <DistanceMeters>NAN</DistanceMeters>
          </Trackpoint>
          <Trackpoint>
            <Time>2019-10-09T10:43:59.000Z</Time>
            <Position>
              <LatitudeDegrees>38.880457989871501922607421875</LatitudeDegrees>
              <LongitudeDegrees>-6.364937983453273773193359375</LongitudeDegrees>
            </Position>
            <AltitudeMeters>240.600006103515625</AltitudeMeters>
            <DistanceMeters>NAN</DistanceMeters>
          </Trackpoint>
          <Trackpoint>
            <Time>2019-10-09T10:44:07.000Z</Time>
            <Position>
              <LatitudeDegrees>38.88001601211726665496826171875</LatitudeDegrees>
              <LongitudeDegrees>-6.3648672401905059814453125</LongitudeDegrees>
            </Position>
            <AltitudeMeters>240.8000030517578125</AltitudeMeters>
            <DistanceMeters>NAN</DistanceMeters>
          </Trackpoint>
          <Trackpoint>
            <Time>2019-10-09T10:44:15.000Z</Time>
            <Position>
              <LatitudeDegrees>38.8795783929526805877685546875</LatitudeDegrees>
              <LongitudeDegrees>-6.36479909531772136688232421875</LongitudeDegrees>
            </Position>
            <AltitudeMeters>240.8000030517578125</AltitudeMeters>
            <DistanceMeters>NAN</DistanceMeters>
          </Trackpoint>
          <Trackpoint>
            <Time>2019-10-09T10:44:19.000Z</Time>
            <Position>
              <LatitudeDegrees>38.87936105020344257354736328125</LatitudeDegrees>
              <LongitudeDegrees>-6.364761292934417724609375</LongitudeDegrees>
            </Position>
            <AltitudeMeters>241</AltitudeMeters>
            <DistanceMeters>NAN</DistanceMeters>
          </Trackpoint>
          <Trackpoint>
            <Time>2019-10-09T10:44:24.000Z</Time>
            <Position>
              <LatitudeDegrees>38.87906902469694614410400390625</LatitudeDegrees>
              <LongitudeDegrees>-6.364713348448276519775390625</LongitudeDegrees>
            </Position>
            <AltitudeMeters>240.1999969482421875</AltitudeMeters>
            <DistanceMeters>NAN</DistanceMeters>
          </Trackpoint>
          <Trackpoint>
            <Time>2019-10-09T10:44:26.000Z</Time>
            <Position>
              <LatitudeDegrees>38.8789440505206584930419921875</LatitudeDegrees>
              <LongitudeDegrees>-6.36469029821455478668212890625</LongitudeDegrees>
            </Position>
            <AltitudeMeters>240.1999969482421875</AltitudeMeters>
            <DistanceMeters>NAN</DistanceMeters>
          </Trackpoint>
          <Trackpoint>
            <Time>2019-10-09T10:44:33.000Z</Time>
            <Position>
              <LatitudeDegrees>38.87846603058278560638427734375</LatitudeDegrees>
              <LongitudeDegrees>-6.36461251415312290191650390625</LongitudeDegrees>
            </Position>
            <AltitudeMeters>239.8000030517578125</AltitudeMeters>
            <DistanceMeters>NAN</DistanceMeters>
          </Trackpoint>
          <Trackpoint>
            <Time>2019-10-09T10:44:36.000Z</Time>
            <Position>
              <LatitudeDegrees>38.87825824320316314697265625</LatitudeDegrees>
              <LongitudeDegrees>-6.3645730353891849517822265625</LongitudeDegrees>
            </Position>
            <AltitudeMeters>238.399993896484375</AltitudeMeters>
            <DistanceMeters>NAN</DistanceMeters>
          </Trackpoint>
          <Trackpoint>
            <Time>2019-10-09T10:44:39.000Z</Time>
            <Position>
              <LatitudeDegrees>38.87803587131202220916748046875</LatitudeDegrees>
              <LongitudeDegrees>-6.364541687071323394775390625</LongitudeDegrees>
            </Position>
            <AltitudeMeters>238</AltitudeMeters>
            <DistanceMeters>NAN</DistanceMeters>
          </Trackpoint>
          <Trackpoint>
            <Time>2019-10-09T10:44:42.000Z</Time>
            <Position>
              <LatitudeDegrees>38.877803273499011993408203125</LatitudeDegrees>
              <LongitudeDegrees>-6.364504136145114898681640625</LongitudeDegrees>
            </Position>
            <AltitudeMeters>237.399993896484375</AltitudeMeters>
            <DistanceMeters>NAN</DistanceMeters>
          </Trackpoint>
          <Trackpoint>
            <Time>2019-10-09T10:44:44.000Z</Time>
            <Position>
              <LatitudeDegrees>38.87764242477715015411376953125</LatitudeDegrees>
              <LongitudeDegrees>-6.36447756551206111907958984375</LongitudeDegrees>
            </Position>
            <AltitudeMeters>236.8000030517578125</AltitudeMeters>
            <DistanceMeters>NAN</DistanceMeters>
          </Trackpoint>
          <Trackpoint>
            <Time>2019-10-09T10:44:45.000Z</Time>
            <Position>
              <LatitudeDegrees>38.87756112031638622283935546875</LatitudeDegrees>
              <LongitudeDegrees>-6.3644620589911937713623046875</LongitudeDegrees>
            </Position>
            <AltitudeMeters>236.1999969482421875</AltitudeMeters>
            <DistanceMeters>NAN</DistanceMeters>
          </Trackpoint>
          <Trackpoint>
            <Time>2019-10-09T10:44:48.000Z</Time>
            <Position>
              <LatitudeDegrees>38.87731435708701610565185546875</LatitudeDegrees>
              <LongitudeDegrees>-6.36441998183727264404296875</LongitudeDegrees>
            </Position>
            <AltitudeMeters>235.600006103515625</AltitudeMeters>
            <DistanceMeters>NAN</DistanceMeters>
          </Trackpoint>
          <Trackpoint>
            <Time>2019-10-09T10:44:51.000Z</Time>
            <Position>
              <LatitudeDegrees>38.8770641572773456573486328125</LatitudeDegrees>
              <LongitudeDegrees>-6.36437949724495410919189453125</LongitudeDegrees>
            </Position>
            <AltitudeMeters>234.600006103515625</AltitudeMeters>
            <DistanceMeters>NAN</DistanceMeters>
          </Trackpoint>
          <Trackpoint>
            <Time>2019-10-09T10:44:57.000Z</Time>
            <Position>
              <LatitudeDegrees>38.87657457031309604644775390625</LatitudeDegrees>
              <LongitudeDegrees>-6.3642971031367778778076171875</LongitudeDegrees>
            </Position>
            <AltitudeMeters>233.600006103515625</AltitudeMeters>
            <DistanceMeters>NAN</DistanceMeters>
          </Trackpoint>
          <Trackpoint>
            <Time>2019-10-09T10:44:59.000Z</Time>
            <Position>
              <LatitudeDegrees>38.87641548179090023040771484375</LatitudeDegrees>
              <LongitudeDegrees>-6.36427522636950016021728515625</LongitudeDegrees>
            </Position>
            <AltitudeMeters>233.8000030517578125</AltitudeMeters>
            <DistanceMeters>NAN</DistanceMeters>
          </Trackpoint>
          <Trackpoint>
            <Time>2019-10-09T10:45:06.000Z</Time>
            <Position>
              <LatitudeDegrees>38.87588490732014179229736328125</LatitudeDegrees>
              <LongitudeDegrees>-6.36421336792409420013427734375</LongitudeDegrees>
            </Position>
            <AltitudeMeters>233.8000030517578125</AltitudeMeters>
            <DistanceMeters>NAN</DistanceMeters>
          </Trackpoint>
          <Trackpoint>
            <Time>2019-10-09T10:45:08.000Z</Time>
            <Position>
              <LatitudeDegrees>38.8757347874343395233154296875</LatitudeDegrees>
              <LongitudeDegrees>-6.3641941733658313751220703125</LongitudeDegrees>
            </Position>
            <AltitudeMeters>233.8000030517578125</AltitudeMeters>
            <DistanceMeters>NAN</DistanceMeters>
          </Trackpoint>
          <Trackpoint>
            <Time>2019-10-09T10:45:15.000Z</Time>
            <Position>
              <LatitudeDegrees>38.87519189156591892242431640625</LatitudeDegrees>
              <LongitudeDegrees>-6.3641458936035633087158203125</LongitudeDegrees>
            </Position>
            <AltitudeMeters>232.8000030517578125</AltitudeMeters>
            <DistanceMeters>NAN</DistanceMeters>
          </Trackpoint>
          <Trackpoint>
            <Time>2019-10-09T10:45:16.000Z</Time>
            <Position>
              <LatitudeDegrees>38.87511259876191616058349609375</LatitudeDegrees>
              <LongitudeDegrees>-6.3641403615474700927734375</LongitudeDegrees>
            </Position>
            <AltitudeMeters>232.399993896484375</AltitudeMeters>
            <DistanceMeters>NAN</DistanceMeters>
          </Trackpoint>
          <Trackpoint>
            <Time>2019-10-09T10:45:17.000Z</Time>
            <Position>
              <LatitudeDegrees>38.87503280304372310638427734375</LatitudeDegrees>
              <LongitudeDegrees>-6.3641324825584888458251953125</LongitudeDegrees>
            </Position>
            <AltitudeMeters>232</AltitudeMeters>
            <DistanceMeters>NAN</DistanceMeters>
          </Trackpoint>
          <Trackpoint>
            <Time>2019-10-09T10:45:22.000Z</Time>
            <Position>
              <LatitudeDegrees>38.8746347464621067047119140625</LatitudeDegrees>
              <LongitudeDegrees>-6.3640966080129146575927734375</LongitudeDegrees>
            </Position>
            <AltitudeMeters>231.600006103515625</AltitudeMeters>
            <DistanceMeters>NAN</DistanceMeters>
          </Trackpoint>
          <Trackpoint>
            <Time>2019-10-09T10:45:24.000Z</Time>
            <Position>
              <LatitudeDegrees>38.87447490356862545013427734375</LatitudeDegrees>
              <LongitudeDegrees>-6.36408470571041107177734375</LongitudeDegrees>
            </Position>
            <AltitudeMeters>231.399993896484375</AltitudeMeters>
            <DistanceMeters>NAN</DistanceMeters>
          </Trackpoint>
          <Trackpoint>
            <Time>2019-10-09T10:45:26.000Z</Time>
            <Position>
              <LatitudeDegrees>38.87431531213223934173583984375</LatitudeDegrees>
              <LongitudeDegrees>-6.36407104320824146270751953125</LongitudeDegrees>
            </Position>
            <AltitudeMeters>231</AltitudeMeters>
            <DistanceMeters>NAN</DistanceMeters>
          </Trackpoint>
          <Trackpoint>
            <Time>2019-10-09T10:45:29.000Z</Time>
            <Position>
              <LatitudeDegrees>38.87407776899635791778564453125</LatitudeDegrees>
              <LongitudeDegrees>-6.36405251920223236083984375</LongitudeDegrees>
            </Position>
            <AltitudeMeters>230.8000030517578125</AltitudeMeters>
            <DistanceMeters>NAN</DistanceMeters>
          </Trackpoint>
          <Trackpoint>
            <Time>2019-10-09T10:45:31.000Z</Time>
            <Position>
              <LatitudeDegrees>38.8739190995693206787109375</LatitudeDegrees>
              <LongitudeDegrees>-6.36404153890907764434814453125</LongitudeDegrees>
            </Position>
            <AltitudeMeters>230.1999969482421875</AltitudeMeters>
            <DistanceMeters>NAN</DistanceMeters>
          </Trackpoint>
          <Trackpoint>
            <Time>2019-10-09T10:45:35.000Z</Time>
            <Position>
              <LatitudeDegrees>38.87360435910522937774658203125</LatitudeDegrees>
              <LongitudeDegrees>-6.364015303552150726318359375</LongitudeDegrees>
            </Position>
            <AltitudeMeters>230.600006103515625</AltitudeMeters>
            <DistanceMeters>NAN</DistanceMeters>
          </Trackpoint>
          <Trackpoint>
            <Time>2019-10-09T10:45:42.000Z</Time>
            <Position>
              <LatitudeDegrees>38.87307093478739261627197265625</LatitudeDegrees>
              <LongitudeDegrees>-6.36396928690373897552490234375</LongitudeDegrees>
            </Position>
            <AltitudeMeters>230.600006103515625</AltitudeMeters>
            <DistanceMeters>NAN</DistanceMeters>
          </Trackpoint>
          <Trackpoint>
            <Time>2019-10-09T10:45:44.000Z</Time>
            <Position>
              <LatitudeDegrees>38.87292106635868549346923828125</LatitudeDegrees>
              <LongitudeDegrees>-6.3639547862112522125244140625</LongitudeDegrees>
            </Position>
            <AltitudeMeters>229.8000030517578125</AltitudeMeters>
            <DistanceMeters>NAN</DistanceMeters>
          </Trackpoint>
          <Trackpoint>
            <Time>2019-10-09T10:45:52.000Z</Time>
            <Position>
              <LatitudeDegrees>38.87232645414769649505615234375</LatitudeDegrees>
              <LongitudeDegrees>-6.36390491388738155364990234375</LongitudeDegrees>
            </Position>
            <AltitudeMeters>229.600006103515625</AltitudeMeters>
            <DistanceMeters>NAN</DistanceMeters>
          </Trackpoint>
          <Trackpoint>
            <Time>2019-10-09T10:45:55.000Z</Time>
            <Position>
              <LatitudeDegrees>38.87210785411298274993896484375</LatitudeDegrees>
              <LongitudeDegrees>-6.36389016173779964447021484375</LongitudeDegrees>
            </Position>
            <AltitudeMeters>230</AltitudeMeters>
            <DistanceMeters>NAN</DistanceMeters>
          </Trackpoint>
          <Trackpoint>
            <Time>2019-10-09T10:46:00.000Z</Time>
            <Position>
              <LatitudeDegrees>38.8717574067413806915283203125</LatitudeDegrees>
              <LongitudeDegrees>-6.36386149562895298004150390625</LongitudeDegrees>
            </Position>
            <AltitudeMeters>230</AltitudeMeters>
            <DistanceMeters>NAN</DistanceMeters>
          </Trackpoint>
          <Trackpoint>
            <Time>2019-10-09T10:46:05.000Z</Time>
            <Position>
              <LatitudeDegrees>38.87142422609031200408935546875</LatitudeDegrees>
              <LongitudeDegrees>-6.36383500881493091583251953125</LongitudeDegrees>
            </Position>
            <AltitudeMeters>230.1999969482421875</AltitudeMeters>
            <DistanceMeters>NAN</DistanceMeters>
          </Trackpoint>
          <Trackpoint>
            <Time>2019-10-09T10:46:13.000Z</Time>
            <Position>
              <LatitudeDegrees>38.87090220116078853607177734375</LatitudeDegrees>
              <LongitudeDegrees>-6.36379561387002468109130859375</LongitudeDegrees>
            </Position>
            <AltitudeMeters>230.600006103515625</AltitudeMeters>
            <DistanceMeters>NAN</DistanceMeters>
          </Trackpoint>
          <Trackpoint>
            <Time>2019-10-09T10:46:22.000Z</Time>
            <Position>
              <LatitudeDegrees>38.87034178711473941802978515625</LatitudeDegrees>
              <LongitudeDegrees>-6.36374850757420063018798828125</LongitudeDegrees>
            </Position>
            <AltitudeMeters>231</AltitudeMeters>
            <DistanceMeters>NAN</DistanceMeters>
          </Trackpoint>
          <Trackpoint>
            <Time>2019-10-09T10:46:31.000Z</Time>
            <Position>
              <LatitudeDegrees>38.869782127439975738525390625</LatitudeDegrees>
              <LongitudeDegrees>-6.36370643042027950286865234375</LongitudeDegrees>
            </Position>
            <AltitudeMeters>230.8000030517578125</AltitudeMeters>
            <DistanceMeters>NAN</DistanceMeters>
          </Trackpoint>
          <Trackpoint>
            <Time>2019-10-09T10:46:33.000Z</Time>
            <Position>
              <LatitudeDegrees>38.86966033838689327239990234375</LatitudeDegrees>
              <LongitudeDegrees>-6.36369444429874420166015625</LongitudeDegrees>
            </Position>
            <AltitudeMeters>230.600006103515625</AltitudeMeters>
            <DistanceMeters>NAN</DistanceMeters>
          </Trackpoint>
          <Trackpoint>
            <Time>2019-10-09T10:46:40.000Z</Time>
            <Position>
              <LatitudeDegrees>38.86924199759960174560546875</LatitudeDegrees>
              <LongitudeDegrees>-6.36366016231477260589599609375</LongitudeDegrees>
            </Position>
            <AltitudeMeters>231.399993896484375</AltitudeMeters>
            <DistanceMeters>NAN</DistanceMeters>
          </Trackpoint>
          <Trackpoint>
            <Time>2019-10-09T10:46:45.000Z</Time>
            <Position>
              <LatitudeDegrees>38.86894293129444122314453125</LatitudeDegrees>
              <LongitudeDegrees>-6.36363384313881397247314453125</LongitudeDegrees>
            </Position>
            <AltitudeMeters>231.600006103515625</AltitudeMeters>
            <DistanceMeters>NAN</DistanceMeters>
          </Trackpoint>
          <Trackpoint>
            <Time>2019-10-09T10:46:50.000Z</Time>
            <Position>
              <LatitudeDegrees>38.86864185333251953125</LatitudeDegrees>
              <LongitudeDegrees>-6.36361062526702880859375</LongitudeDegrees>
            </Position>
            <AltitudeMeters>232.600006103515625</AltitudeMeters>
            <DistanceMeters>NAN</DistanceMeters>
          </Trackpoint>
          <Trackpoint>
            <Time>2019-10-09T10:46:53.000Z</Time>
            <Position>
              <LatitudeDegrees>38.86846289969980716705322265625</LatitudeDegrees>
              <LongitudeDegrees>-6.3635933585464954376220703125</LongitudeDegrees>
            </Position>
            <AltitudeMeters>232.1999969482421875</AltitudeMeters>
            <DistanceMeters>NAN</DistanceMeters>
          </Trackpoint>
          <Trackpoint>
            <Time>2019-10-09T10:47:02.000Z</Time>
            <Position>
              <LatitudeDegrees>38.86794389225542545318603515625</LatitudeDegrees>
              <LongitudeDegrees>-6.36355765163898468017578125</LongitudeDegrees>
            </Position>
            <AltitudeMeters>233</AltitudeMeters>
            <DistanceMeters>NAN</DistanceMeters>
          </Trackpoint>
          <Trackpoint>
            <Time>2019-10-09T10:47:04.000Z</Time>
            <Position>
              <LatitudeDegrees>38.8678283058106899261474609375</LatitudeDegrees>
              <LongitudeDegrees>-6.3635507784783840179443359375</LongitudeDegrees>
            </Position>
            <AltitudeMeters>233.399993896484375</AltitudeMeters>
            <DistanceMeters>NAN</DistanceMeters>
          </Trackpoint>
          <Trackpoint>
            <Time>2019-10-09T10:47:08.000Z</Time>
            <Position>
              <LatitudeDegrees>38.867598474025726318359375</LatitudeDegrees>
              <LongitudeDegrees>-6.363527141511440277099609375</LongitudeDegrees>
            </Position>
            <AltitudeMeters>233.8000030517578125</AltitudeMeters>
            <DistanceMeters>NAN</DistanceMeters>
          </Trackpoint>
          <Trackpoint>
            <Time>2019-10-09T10:47:11.000Z</Time>
            <Position>
              <LatitudeDegrees>38.86742706410586833953857421875</LatitudeDegrees>
              <LongitudeDegrees>-6.36350945569574832916259765625</LongitudeDegrees>
            </Position>
            <AltitudeMeters>233.600006103515625</AltitudeMeters>
            <DistanceMeters>NAN</DistanceMeters>
          </Trackpoint>
          <Trackpoint>
            <Time>2019-10-09T10:47:17.000Z</Time>
            <Position>
              <LatitudeDegrees>38.86708055622875690460205078125</LatitudeDegrees>
              <LongitudeDegrees>-6.36347777210175991058349609375</LongitudeDegrees>
            </Position>
            <AltitudeMeters>234</AltitudeMeters>
            <DistanceMeters>NAN</DistanceMeters>
          </Trackpoint>
          <Trackpoint>
            <Time>2019-10-09T10:47:19.000Z</Time>
            <Position>
              <LatitudeDegrees>38.86696304194629192352294921875</LatitudeDegrees>
              <LongitudeDegrees>-6.3634676299989223480224609375</LongitudeDegrees>
            </Position>
            <AltitudeMeters>234</AltitudeMeters>
            <DistanceMeters>NAN</DistanceMeters>
          </Trackpoint>
          <Trackpoint>
            <Time>2019-10-09T10:47:26.000Z</Time>
            <Position>
              <LatitudeDegrees>38.866548724472522735595703125</LatitudeDegrees>
              <LongitudeDegrees>-6.3634361140429973602294921875</LongitudeDegrees>
            </Position>
            <AltitudeMeters>234.8000030517578125</AltitudeMeters>
            <DistanceMeters>NAN</DistanceMeters>
          </Trackpoint>
          <Trackpoint>
            <Time>2019-10-09T10:47:29.000Z</Time>
            <Position>
              <LatitudeDegrees>38.86636935174465179443359375</LatitudeDegrees>
              <LongitudeDegrees>-6.36342261917889118194580078125</LongitudeDegrees>
            </Position>
            <AltitudeMeters>234.399993896484375</AltitudeMeters>
            <DistanceMeters>NAN</DistanceMeters>
          </Trackpoint>
          <Trackpoint>
            <Time>2019-10-09T10:47:38.000Z</Time>
            <Position>
              <LatitudeDegrees>38.86584590189158916473388671875</LatitudeDegrees>
              <LongitudeDegrees>-6.3633767701685428619384765625</LongitudeDegrees>
            </Position>
            <AltitudeMeters>234.8000030517578125</AltitudeMeters>
            <DistanceMeters>NAN</DistanceMeters>
          </Trackpoint>
          <Trackpoint>
            <Time>2019-10-09T10:47:39.000Z</Time>
            <Position>
              <LatitudeDegrees>38.86579175479710102081298828125</LatitudeDegrees>
              <LongitudeDegrees>-6.3633680529892444610595703125</LongitudeDegrees>
            </Position>
            <AltitudeMeters>235.1999969482421875</AltitudeMeters>
            <DistanceMeters>NAN</DistanceMeters>
          </Trackpoint>
          <Trackpoint>
            <Time>2019-10-09T10:47:41.000Z</Time>
            <Position>
              <LatitudeDegrees>38.86568362824618816375732421875</LatitudeDegrees>
              <LongitudeDegrees>-6.36335288174450397491455078125</LongitudeDegrees>
            </Position>
            <AltitudeMeters>235.8000030517578125</AltitudeMeters>
            <DistanceMeters>NAN</DistanceMeters>
          </Trackpoint>
          <Trackpoint>
            <Time>2019-10-09T10:47:42.000Z</Time>
            <Position>
              <LatitudeDegrees>38.865630067884922027587890625</LatitudeDegrees>
              <LongitudeDegrees>-6.36335120536386966705322265625</LongitudeDegrees>
            </Position>
            <AltitudeMeters>235.8000030517578125</AltitudeMeters>
            <DistanceMeters>NAN</DistanceMeters>
          </Trackpoint>
          <Trackpoint>
            <Time>2019-10-09T10:47:46.000Z</Time>
            <Position>
              <LatitudeDegrees>38.8654183410108089447021484375</LatitudeDegrees>
              <LongitudeDegrees>-6.36333997361361980438232421875</LongitudeDegrees>
            </Position>
            <AltitudeMeters>236.1999969482421875</AltitudeMeters>
            <DistanceMeters>NAN</DistanceMeters>
          </Trackpoint>
          <Trackpoint>
            <Time>2019-10-09T10:47:53.000Z</Time>
            <Position>
              <LatitudeDegrees>38.865055404603481292724609375</LatitudeDegrees>
              <LongitudeDegrees>-6.36328884400427341461181640625</LongitudeDegrees>
            </Position>
            <AltitudeMeters>236.8000030517578125</AltitudeMeters>
            <DistanceMeters>NAN</DistanceMeters>
          </Trackpoint>
          <Trackpoint>
            <Time>2019-10-09T10:47:56.000Z</Time>
            <Position>
              <LatitudeDegrees>38.86490126140415668487548828125</LatitudeDegrees>
              <LongitudeDegrees>-6.3632537238299846649169921875</LongitudeDegrees>
            </Position>
            <AltitudeMeters>237.399993896484375</AltitudeMeters>
            <DistanceMeters>NAN</DistanceMeters>
          </Trackpoint>
          <Trackpoint>
            <Time>2019-10-09T10:47:59.000Z</Time>
            <Position>
              <LatitudeDegrees>38.864748291671276092529296875</LatitudeDegrees>
              <LongitudeDegrees>-6.3632081262767314910888671875</LongitudeDegrees>
            </Position>
            <AltitudeMeters>238</AltitudeMeters>
            <DistanceMeters>NAN</DistanceMeters>
          </Trackpoint>
          <Trackpoint>
            <Time>2019-10-09T10:48:04.000Z</Time>
            <Position>
              <LatitudeDegrees>38.8644929789006710052490234375</LatitudeDegrees>
              <LongitudeDegrees>-6.36312472634017467498779296875</LongitudeDegrees>
            </Position>
            <AltitudeMeters>238.600006103515625</AltitudeMeters>
            <DistanceMeters>NAN</DistanceMeters>
          </Trackpoint>
          <Trackpoint>
            <Time>2019-10-09T10:48:10.000Z</Time>
            <Position>
              <LatitudeDegrees>38.864191062748432159423828125</LatitudeDegrees>
              <LongitudeDegrees>-6.3629915378987789154052734375</LongitudeDegrees>
            </Position>
            <AltitudeMeters>239</AltitudeMeters>
            <DistanceMeters>NAN</DistanceMeters>
          </Trackpoint>
          <Trackpoint>
            <Time>2019-10-09T10:48:13.000Z</Time>
            <Position>
              <LatitudeDegrees>38.864042200148105621337890625</LatitudeDegrees>
              <LongitudeDegrees>-6.36291350238025188446044921875</LongitudeDegrees>
            </Position>
            <AltitudeMeters>239</AltitudeMeters>
            <DistanceMeters>NAN</DistanceMeters>
          </Trackpoint>
          <Trackpoint>
            <Time>2019-10-09T10:48:20.000Z</Time>
            <Position>
              <LatitudeDegrees>38.86369175277650356292724609375</LatitudeDegrees>
              <LongitudeDegrees>-6.36272356845438480377197265625</LongitudeDegrees>
            </Position>
            <AltitudeMeters>238.8000030517578125</AltitudeMeters>
            <DistanceMeters>NAN</DistanceMeters>
          </Trackpoint>
          <Trackpoint>
            <Time>2019-10-09T10:48:26.000Z</Time>
            <Position>
              <LatitudeDegrees>38.863391093909740447998046875</LatitudeDegrees>
              <LongitudeDegrees>-6.36256380937993526458740234375</LongitudeDegrees>
            </Position>
            <AltitudeMeters>239</AltitudeMeters>
            <DistanceMeters>NAN</DistanceMeters>
          </Trackpoint>
          <Trackpoint>
            <Time>2019-10-09T10:48:30.000Z</Time>
            <Position>
              <LatitudeDegrees>38.86318154633045196533203125</LatitudeDegrees>
              <LongitudeDegrees>-6.36245903559029102325439453125</LongitudeDegrees>
            </Position>
            <AltitudeMeters>239.600006103515625</AltitudeMeters>
            <DistanceMeters>NAN</DistanceMeters>
          </Trackpoint>
          <Trackpoint>
            <Time>2019-10-09T10:48:40.000Z</Time>
            <Position>
              <LatitudeDegrees>38.86263915337622165679931640625</LatitudeDegrees>
              <LongitudeDegrees>-6.362232975661754608154296875</LongitudeDegrees>
            </Position>
            <AltitudeMeters>238.8000030517578125</AltitudeMeters>
            <DistanceMeters>NAN</DistanceMeters>
          </Trackpoint>
          <Trackpoint>
            <Time>2019-10-09T10:48:41.000Z</Time>
            <Position>
              <LatitudeDegrees>38.86258215643465518951416015625</LatitudeDegrees>
              <LongitudeDegrees>-6.3622167147696018218994140625</LongitudeDegrees>
            </Position>
            <AltitudeMeters>238.8000030517578125</AltitudeMeters>
            <DistanceMeters>NAN</DistanceMeters>
          </Trackpoint>
          <Trackpoint>
            <Time>2019-10-09T10:48:47.000Z</Time>
            <Position>
              <LatitudeDegrees>38.8622493110597133636474609375</LatitudeDegrees>
              <LongitudeDegrees>-6.36213784106075763702392578125</LongitudeDegrees>
            </Position>
            <AltitudeMeters>239.399993896484375</AltitudeMeters>
            <DistanceMeters>NAN</DistanceMeters>
          </Trackpoint>
          <Trackpoint>
            <Time>2019-10-09T10:48:49.000Z</Time>
            <Position>
              <LatitudeDegrees>38.8621415197849273681640625</LatitudeDegrees>
              <LongitudeDegrees>-6.36212308891117572784423828125</LongitudeDegrees>
            </Position>
            <AltitudeMeters>239.399993896484375</AltitudeMeters>
            <DistanceMeters>NAN</DistanceMeters>
          </Trackpoint>
          <Trackpoint>
            <Time>2019-10-09T10:48:54.000Z</Time>
            <Position>
              <LatitudeDegrees>38.8618711195886135101318359375</LatitudeDegrees>
              <LongitudeDegrees>-6.3621328957378864288330078125</LongitudeDegrees>
            </Position>
            <AltitudeMeters>240</AltitudeMeters>
            <DistanceMeters>NAN</DistanceMeters>
          </Trackpoint>
          <Trackpoint>
            <Time>2019-10-09T10:48:55.000Z</Time>
            <Position>
              <LatitudeDegrees>38.86181990616023540496826171875</LatitudeDegrees>
              <LongitudeDegrees>-6.362140439450740814208984375</LongitudeDegrees>
            </Position>
            <AltitudeMeters>240.399993896484375</AltitudeMeters>
            <DistanceMeters>NAN</DistanceMeters>
          </Trackpoint>
          <Trackpoint>
            <Time>2019-10-09T10:48:56.000Z</Time>
            <Position>
              <LatitudeDegrees>38.86176978237926959991455078125</LatitudeDegrees>
              <LongitudeDegrees>-6.3621453009545803070068359375</LongitudeDegrees>
            </Position>
            <AltitudeMeters>240.600006103515625</AltitudeMeters>
            <DistanceMeters>NAN</DistanceMeters>
          </Trackpoint>
          <Trackpoint>
            <Time>2019-10-09T10:49:01.000Z</Time>
            <Position>
              <LatitudeDegrees>38.861522935330867767333984375</LatitudeDegrees>
              <LongitudeDegrees>-6.362184025347232818603515625</LongitudeDegrees>
            </Position>
            <AltitudeMeters>241.600006103515625</AltitudeMeters>
            <DistanceMeters>NAN</DistanceMeters>
          </Trackpoint>
          <Trackpoint>
            <Time>2019-10-09T10:49:04.000Z</Time>
            <Position>
              <LatitudeDegrees>38.86138304136693477630615234375</LatitudeDegrees>
              <LongitudeDegrees>-6.3622105121612548828125</LongitudeDegrees>
            </Position>
            <AltitudeMeters>242.399993896484375</AltitudeMeters>
            <DistanceMeters>NAN</DistanceMeters>
          </Trackpoint>
          <Trackpoint>
            <Time>2019-10-09T10:49:05.000Z</Time>
            <Position>
              <LatitudeDegrees>38.86133677326142787933349609375</LatitudeDegrees>
              <LongitudeDegrees>-6.36222166009247303009033203125</LongitudeDegrees>
            </Position>
            <AltitudeMeters>243.1999969482421875</AltitudeMeters>
            <DistanceMeters>NAN</DistanceMeters>
          </Trackpoint>
          <Trackpoint>
            <Time>2019-10-09T10:49:09.000Z</Time>
            <Position>
              <LatitudeDegrees>38.8611571490764617919921875</LatitudeDegrees>
              <LongitudeDegrees>-6.36226139031350612640380859375</LongitudeDegrees>
            </Position>
            <AltitudeMeters>243.1999969482421875</AltitudeMeters>
            <DistanceMeters>NAN</DistanceMeters>
          </Trackpoint>
          <Trackpoint>
            <Time>2019-10-09T10:49:13.000Z</Time>
            <Position>
              <LatitudeDegrees>38.86098540388047695159912109375</LatitudeDegrees>
              <LongitudeDegrees>-6.362316124141216278076171875</LongitudeDegrees>
            </Position>
            <AltitudeMeters>244</AltitudeMeters>
            <DistanceMeters>NAN</DistanceMeters>
          </Trackpoint>
          <Trackpoint>
            <Time>2019-10-09T10:49:15.000Z</Time>
            <Position>
              <LatitudeDegrees>38.86089806444942951202392578125</LatitudeDegrees>
              <LongitudeDegrees>-6.36233883909881114959716796875</LongitudeDegrees>
            </Position>
            <AltitudeMeters>244.1999969482421875</AltitudeMeters>
            <DistanceMeters>NAN</DistanceMeters>
          </Trackpoint>
          <Trackpoint>
            <Time>2019-10-09T10:49:17.000Z</Time>
            <Position>
              <LatitudeDegrees>38.86081558652222156524658203125</LatitudeDegrees>
              <LongitudeDegrees>-6.36236985214054584503173828125</LongitudeDegrees>
            </Position>
            <AltitudeMeters>244.399993896484375</AltitudeMeters>
            <DistanceMeters>NAN</DistanceMeters>
          </Trackpoint>
          <Trackpoint>
            <Time>2019-10-09T10:49:19.000Z</Time>
            <Position>
              <LatitudeDegrees>38.8607308454811573028564453125</LatitudeDegrees>
              <LongitudeDegrees>-6.3623991049826145172119140625</LongitudeDegrees>
            </Position>
            <AltitudeMeters>245.600006103515625</AltitudeMeters>
            <DistanceMeters>NAN</DistanceMeters>
          </Trackpoint>
          <Trackpoint>
            <Time>2019-10-09T10:49:21.000Z</Time>
            <Position>
              <LatitudeDegrees>38.86064375750720500946044921875</LatitudeDegrees>
              <LongitudeDegrees>-6.36242232285439968109130859375</LongitudeDegrees>
            </Position>
            <AltitudeMeters>245.399993896484375</AltitudeMeters>
            <DistanceMeters>NAN</DistanceMeters>
          </Trackpoint>
          <Trackpoint>
            <Time>2019-10-09T10:49:29.000Z</Time>
            <Position>
              <LatitudeDegrees>38.8603053800761699676513671875</LatitudeDegrees>
              <LongitudeDegrees>-6.36250832118093967437744140625</LongitudeDegrees>
            </Position>
            <AltitudeMeters>246.1999969482421875</AltitudeMeters>
            <DistanceMeters>NAN</DistanceMeters>
          </Trackpoint>
          <Trackpoint>
            <Time>2019-10-09T10:49:30.000Z</Time>
            <Position>
              <LatitudeDegrees>38.8602661527693271636962890625</LatitudeDegrees>
              <LongitudeDegrees>-6.36251653544604778289794921875</LongitudeDegrees>
            </Position>
            <AltitudeMeters>246.600006103515625</AltitudeMeters>
            <DistanceMeters>NAN</DistanceMeters>
          </Trackpoint>
          <Trackpoint>
            <Time>2019-10-09T10:49:38.000Z</Time>
            <Position>
              <LatitudeDegrees>38.85996147058904170989990234375</LatitudeDegrees>
              <LongitudeDegrees>-6.362570263445377349853515625</LongitudeDegrees>
            </Position>
            <AltitudeMeters>247.600006103515625</AltitudeMeters>
            <DistanceMeters>NAN</DistanceMeters>
          </Trackpoint>
          <Trackpoint>
            <Time>2019-10-09T10:49:39.000Z</Time>
            <Position>
              <LatitudeDegrees>38.85992157272994518280029296875</LatitudeDegrees>
              <LongitudeDegrees>-6.3625737838447093963623046875</LongitudeDegrees>
            </Position>
            <AltitudeMeters>247.8000030517578125</AltitudeMeters>
            <DistanceMeters>NAN</DistanceMeters>
          </Trackpoint>
          <Trackpoint>
            <Time>2019-10-09T10:49:47.000Z</Time>
            <Position>
              <LatitudeDegrees>38.85961060412228107452392578125</LatitudeDegrees>
              <LongitudeDegrees>-6.3625831715762615203857421875</LongitudeDegrees>
            </Position>
            <AltitudeMeters>248.600006103515625</AltitudeMeters>
            <DistanceMeters>NAN</DistanceMeters>
          </Trackpoint>
          <Trackpoint>
            <Time>2019-10-09T10:49:49.000Z</Time>
            <Position>
              <LatitudeDegrees>38.859532065689563751220703125</LatitudeDegrees>
              <LongitudeDegrees>-6.3625811599195003509521484375</LongitudeDegrees>
            </Position>
            <AltitudeMeters>248.8000030517578125</AltitudeMeters>
            <DistanceMeters>NAN</DistanceMeters>
          </Trackpoint>
          <Trackpoint>
            <Time>2019-10-09T10:49:58.000Z</Time>
            <Position>
              <LatitudeDegrees>38.85918438434600830078125</LatitudeDegrees>
              <LongitudeDegrees>-6.36253598146140575408935546875</LongitudeDegrees>
            </Position>
            <AltitudeMeters>249.1999969482421875</AltitudeMeters>
            <DistanceMeters>NAN</DistanceMeters>
          </Trackpoint>
          <Trackpoint>
            <Time>2019-10-09T10:50:04.000Z</Time>
            <Position>
              <LatitudeDegrees>38.85894759558141231536865234375</LatitudeDegrees>
              <LongitudeDegrees>-6.36249147355556488037109375</LongitudeDegrees>
            </Position>
            <AltitudeMeters>249.8000030517578125</AltitudeMeters>
            <DistanceMeters>NAN</DistanceMeters>
          </Trackpoint>
          <Trackpoint>
            <Time>2019-10-09T10:50:09.000Z</Time>
            <Position>
              <LatitudeDegrees>38.85875615291297435760498046875</LatitudeDegrees>
              <LongitudeDegrees>-6.3624379970133304595947265625</LongitudeDegrees>
            </Position>
            <AltitudeMeters>249.8000030517578125</AltitudeMeters>
            <DistanceMeters>NAN</DistanceMeters>
          </Trackpoint>
          <Trackpoint>
            <Time>2019-10-09T10:50:14.000Z</Time>
            <Position>
              <LatitudeDegrees>38.8585595972836017608642578125</LatitudeDegrees>
              <LongitudeDegrees>-6.36238284409046173095703125</LongitudeDegrees>
            </Position>
            <AltitudeMeters>250.1999969482421875</AltitudeMeters>
            <DistanceMeters>NAN</DistanceMeters>
          </Trackpoint>
          <Trackpoint>
            <Time>2019-10-09T10:50:20.000Z</Time>
            <Position>
              <LatitudeDegrees>38.8583198748528957366943359375</LatitudeDegrees>
              <LongitudeDegrees>-6.36230447329580783843994140625</LongitudeDegrees>
            </Position>
            <AltitudeMeters>250.399993896484375</AltitudeMeters>
            <DistanceMeters>NAN</DistanceMeters>
          </Trackpoint>
          <Trackpoint>
            <Time>2019-10-09T10:50:23.000Z</Time>
            <Position>
              <LatitudeDegrees>38.85820529423654079437255859375</LatitudeDegrees>
              <LongitudeDegrees>-6.36226139031350612640380859375</LongitudeDegrees>
            </Position>
            <AltitudeMeters>251</AltitudeMeters>
            <DistanceMeters>NAN</DistanceMeters>
          </Trackpoint>
          <Trackpoint>
            <Time>2019-10-09T10:50:29.000Z</Time>
            <Position>
              <LatitudeDegrees>38.85797244496643543243408203125</LatitudeDegrees>
              <LongitudeDegrees>-6.36217958293855190277099609375</LongitudeDegrees>
            </Position>
            <AltitudeMeters>252</AltitudeMeters>
            <DistanceMeters>NAN</DistanceMeters>
          </Trackpoint>
          <Trackpoint>
            <Time>2019-10-09T10:50:38.000Z</Time>
            <Position>
              <LatitudeDegrees>38.857634067535400390625</LatitudeDegrees>
              <LongitudeDegrees>-6.36206902563571929931640625</LongitudeDegrees>
            </Position>
            <AltitudeMeters>252.600006103515625</AltitudeMeters>
            <DistanceMeters>NAN</DistanceMeters>
          </Trackpoint>
          <Trackpoint>
            <Time>2019-10-09T10:50:44.000Z</Time>
            <Position>
              <LatitudeDegrees>38.85740800760686397552490234375</LatitudeDegrees>
              <LongitudeDegrees>-6.3619919121265411376953125</LongitudeDegrees>
            </Position>
            <AltitudeMeters>253.1999969482421875</AltitudeMeters>
            <DistanceMeters>NAN</DistanceMeters>
          </Trackpoint>
          <Trackpoint>
            <Time>2019-10-09T10:50:48.000Z</Time>
            <Position>
              <LatitudeDegrees>38.8572547025978565216064453125</LatitudeDegrees>
              <LongitudeDegrees>-6.361942291259765625</LongitudeDegrees>
            </Position>
            <AltitudeMeters>253.600006103515625</AltitudeMeters>
            <DistanceMeters>NAN</DistanceMeters>
          </Trackpoint>
          <Trackpoint>
            <Time>2019-10-09T10:50:51.000Z</Time>
            <Position>
              <LatitudeDegrees>38.85713928379118442535400390625</LatitudeDegrees>
              <LongitudeDegrees>-6.36190465651452541351318359375</LongitudeDegrees>
            </Position>
            <AltitudeMeters>254.1999969482421875</AltitudeMeters>
            <DistanceMeters>NAN</DistanceMeters>
          </Trackpoint>
          <Trackpoint>
            <Time>2019-10-09T10:50:59.000Z</Time>
            <Position>
              <LatitudeDegrees>38.85682605206966400146484375</LatitudeDegrees>
              <LongitudeDegrees>-6.36179267428815364837646484375</LongitudeDegrees>
            </Position>
            <AltitudeMeters>254.8000030517578125</AltitudeMeters>
            <DistanceMeters>NAN</DistanceMeters>
          </Trackpoint>
          <Trackpoint>
            <Time>2019-10-09T10:51:08.000Z</Time>
            <Position>
              <LatitudeDegrees>38.85647543705999851226806640625</LatitudeDegrees>
              <LongitudeDegrees>-6.36166535317897796630859375</LongitudeDegrees>
            </Position>
            <AltitudeMeters>255.1999969482421875</AltitudeMeters>
            <DistanceMeters>NAN</DistanceMeters>
          </Trackpoint>
          <Trackpoint>
            <Time>2019-10-09T10:51:09.000Z</Time>
            <Position>
              <LatitudeDegrees>38.85643486864864826202392578125</LatitudeDegrees>
              <LongitudeDegrees>-6.36165462434291839599609375</LongitudeDegrees>
            </Position>
            <AltitudeMeters>255.1999969482421875</AltitudeMeters>
            <DistanceMeters>NAN</DistanceMeters>
          </Trackpoint>
          <Trackpoint>
            <Time>2019-10-09T10:51:19.000Z</Time>
            <Position>
              <LatitudeDegrees>38.8560430146753787994384765625</LatitudeDegrees>
              <LongitudeDegrees>-6.361525543034076690673828125</LongitudeDegrees>
            </Position>
            <AltitudeMeters>255.8000030517578125</AltitudeMeters>
            <DistanceMeters>NAN</DistanceMeters>
          </Trackpoint>
          <Trackpoint>
            <Time>2019-10-09T10:51:20.000Z</Time>
            <Position>
              <LatitudeDegrees>38.8560019433498382568359375</LatitudeDegrees>
              <LongitudeDegrees>-6.36151221580803394317626953125</LongitudeDegrees>
            </Position>
            <AltitudeMeters>256</AltitudeMeters>
            <DistanceMeters>NAN</DistanceMeters>
          </Trackpoint>
          <Trackpoint>
            <Time>2019-10-09T10:51:28.000Z</Time>
            <Position>
              <LatitudeDegrees>38.85564110241830348968505859375</LatitudeDegrees>
              <LongitudeDegrees>-6.36140115559101104736328125</LongitudeDegrees>
            </Position>
            <AltitudeMeters>255.600006103515625</AltitudeMeters>
            <DistanceMeters>NAN</DistanceMeters>
          </Trackpoint>
          <Trackpoint>
            <Time>2019-10-09T10:51:36.000Z</Time>
            <Position>
              <LatitudeDegrees>38.85528923012316226959228515625</LatitudeDegrees>
              <LongitudeDegrees>-6.361291520297527313232421875</LongitudeDegrees>
            </Position>
            <AltitudeMeters>256.399993896484375</AltitudeMeters>
            <DistanceMeters>NAN</DistanceMeters>
          </Trackpoint>
          <Trackpoint>
            <Time>2019-10-09T10:51:37.000Z</Time>
            <Position>
              <LatitudeDegrees>38.8552470691502094268798828125</LatitudeDegrees>
              <LongitudeDegrees>-6.36127534322440624237060546875</LongitudeDegrees>
            </Position>
            <AltitudeMeters>256.79998779296875</AltitudeMeters>
            <DistanceMeters>NAN</DistanceMeters>
          </Trackpoint>
          <Trackpoint>
            <Time>2019-10-09T10:51:41.000Z</Time>
            <Position>
              <LatitudeDegrees>38.85507582686841487884521484375</LatitudeDegrees>
              <LongitudeDegrees>-6.36121901683509349822998046875</LongitudeDegrees>
            </Position>
            <AltitudeMeters>257.399993896484375</AltitudeMeters>
            <DistanceMeters>NAN</DistanceMeters>
          </Trackpoint>
          <Trackpoint>
            <Time>2019-10-09T10:51:47.000Z</Time>
            <Position>
              <LatitudeDegrees>38.85481330566108226776123046875</LatitudeDegrees>
              <LongitudeDegrees>-6.3611371256411075592041015625</LongitudeDegrees>
            </Position>
            <AltitudeMeters>258</AltitudeMeters>
            <DistanceMeters>NAN</DistanceMeters>
          </Trackpoint>
          <Trackpoint>
            <Time>2019-10-09T10:51:51.000Z</Time>
            <Position>
              <LatitudeDegrees>38.8546569831669330596923828125</LatitudeDegrees>
              <LongitudeDegrees>-6.3610841520130634307861328125</LongitudeDegrees>
            </Position>
            <AltitudeMeters>258.600006103515625</AltitudeMeters>
            <DistanceMeters>NAN</DistanceMeters>
          </Trackpoint>
          <Trackpoint>
            <Time>2019-10-09T10:51:54.000Z</Time>
            <Position>
              <LatitudeDegrees>38.854541480541229248046875</LatitudeDegrees>
              <LongitudeDegrees>-6.36104584671556949615478515625</LongitudeDegrees>
            </Position>
            <AltitudeMeters>259.399993896484375</AltitudeMeters>
            <DistanceMeters>NAN</DistanceMeters>
          </Trackpoint>
          <Trackpoint>
            <Time>2019-10-09T10:51:56.000Z</Time>
            <Position>
              <LatitudeDegrees>38.85446663014590740203857421875</LatitudeDegrees>
              <LongitudeDegrees>-6.36101852171123027801513671875</LongitudeDegrees>
            </Position>
            <AltitudeMeters>259.79998779296875</AltitudeMeters>
            <DistanceMeters>NAN</DistanceMeters>
          </Trackpoint>
          <Trackpoint>
            <Time>2019-10-09T10:52:02.000Z</Time>
            <Position>
              <LatitudeDegrees>38.8542432524263858795166015625</LatitudeDegrees>
              <LongitudeDegrees>-6.3609413243830204010009765625</LongitudeDegrees>
            </Position>
            <AltitudeMeters>260.79998779296875</AltitudeMeters>
            <DistanceMeters>NAN</DistanceMeters>
          </Trackpoint>
          <Trackpoint>
            <Time>2019-10-09T10:52:08.000Z</Time>
            <Position>
              <LatitudeDegrees>38.85402188636362552642822265625</LatitudeDegrees>
              <LongitudeDegrees>-6.36085792444646358489990234375</LongitudeDegrees>
            </Position>
            <AltitudeMeters>261.600006103515625</AltitudeMeters>
            <DistanceMeters>NAN</DistanceMeters>
          </Trackpoint>
          <Trackpoint>
            <Time>2019-10-09T10:52:09.000Z</Time>
            <Position>
              <LatitudeDegrees>38.85398617945611476898193359375</LatitudeDegrees>
              <LongitudeDegrees>-6.36084535159170627593994140625</LongitudeDegrees>
            </Position>
            <AltitudeMeters>262</AltitudeMeters>
            <DistanceMeters>NAN</DistanceMeters>
          </Trackpoint>
          <Trackpoint>
            <Time>2019-10-09T10:52:10.000Z</Time>
            <Position>
              <LatitudeDegrees>38.8539500534534454345703125</LatitudeDegrees>
              <LongitudeDegrees>-6.36083479039371013641357421875</LongitudeDegrees>
            </Position>
            <AltitudeMeters>262.20001220703125</AltitudeMeters>
            <DistanceMeters>NAN</DistanceMeters>
          </Trackpoint>
          <Trackpoint>
            <Time>2019-10-09T10:52:13.000Z</Time>
            <Position>
              <LatitudeDegrees>38.85384134016931056976318359375</LatitudeDegrees>
              <LongitudeDegrees>-6.36080126278102397918701171875</LongitudeDegrees>
            </Position>
            <AltitudeMeters>263.399993896484375</AltitudeMeters>
            <DistanceMeters>NAN</DistanceMeters>
          </Trackpoint>
          <Trackpoint>
            <Time>2019-10-09T10:52:18.000Z</Time>
            <Position>
              <LatitudeDegrees>38.8536652363836765289306640625</LatitudeDegrees>
              <LongitudeDegrees>-6.3607294298708438873291015625</LongitudeDegrees>
            </Position>
            <AltitudeMeters>263.600006103515625</AltitudeMeters>
            <DistanceMeters>NAN</DistanceMeters>
          </Trackpoint>
          <Trackpoint>
            <Time>2019-10-09T10:52:20.000Z</Time>
            <Position>
              <LatitudeDegrees>38.85359130799770355224609375</LatitudeDegrees>
              <LongitudeDegrees>-6.36070780456066131591796875</LongitudeDegrees>
            </Position>
            <AltitudeMeters>264.399993896484375</AltitudeMeters>
            <DistanceMeters>NAN</DistanceMeters>
          </Trackpoint>
          <Trackpoint>
            <Time>2019-10-09T10:52:25.000Z</Time>
            <Position>
              <LatitudeDegrees>38.85341587476432323455810546875</LatitudeDegrees>
              <LongitudeDegrees>-6.360641084611415863037109375</LongitudeDegrees>
            </Position>
            <AltitudeMeters>265.399993896484375</AltitudeMeters>
            <DistanceMeters>NAN</DistanceMeters>
          </Trackpoint>
          <Trackpoint>
            <Time>2019-10-09T10:52:28.000Z</Time>
            <Position>
              <LatitudeDegrees>38.853308670222759246826171875</LatitudeDegrees>
              <LongitudeDegrees>-6.3606023602187633514404296875</LongitudeDegrees>
            </Position>
            <AltitudeMeters>266</AltitudeMeters>
            <DistanceMeters>NAN</DistanceMeters>
          </Trackpoint>
          <Trackpoint>
            <Time>2019-10-09T10:52:33.000Z</Time>
            <Position>
              <LatitudeDegrees>38.8531194068491458892822265625</LatitudeDegrees>
              <LongitudeDegrees>-6.36055148206651210784912109375</LongitudeDegrees>
            </Position>
            <AltitudeMeters>266.399993896484375</AltitudeMeters>
            <DistanceMeters>NAN</DistanceMeters>
          </Trackpoint>
          <Trackpoint>
            <Time>2019-10-09T10:52:35.000Z</Time>
            <Position>
              <LatitudeDegrees>38.853041119873523712158203125</LatitudeDegrees>
              <LongitudeDegrees>-6.36052675545215606689453125</LongitudeDegrees>
            </Position>
            <AltitudeMeters>267</AltitudeMeters>
            <DistanceMeters>NAN</DistanceMeters>
          </Trackpoint>
          <Trackpoint>
            <Time>2019-10-09T10:52:39.000Z</Time>
            <Position>
              <LatitudeDegrees>38.85288278572261333465576171875</LatitudeDegrees>
              <LongitudeDegrees>-6.36047570966184139251708984375</LongitudeDegrees>
            </Position>
            <AltitudeMeters>267.79998779296875</AltitudeMeters>
            <DistanceMeters>NAN</DistanceMeters>
          </Trackpoint>
          <Trackpoint>
            <Time>2019-10-09T10:52:45.000Z</Time>
            <Position>
              <LatitudeDegrees>38.8526473380625247955322265625</LatitudeDegrees>
              <LongitudeDegrees>-6.36040731333196163177490234375</LongitudeDegrees>
            </Position>
            <AltitudeMeters>268.600006103515625</AltitudeMeters>
            <DistanceMeters>NAN</DistanceMeters>
          </Trackpoint>
          <Trackpoint>
            <Time>2019-10-09T10:52:51.000Z</Time>
            <Position>
              <LatitudeDegrees>38.8524089567363262176513671875</LatitudeDegrees>
              <LongitudeDegrees>-6.36036003939807415008544921875</LongitudeDegrees>
            </Position>
            <AltitudeMeters>269.20001220703125</AltitudeMeters>
            <DistanceMeters>NAN</DistanceMeters>
          </Trackpoint>
          <Trackpoint>
            <Time>2019-10-09T10:52:56.000Z</Time>
            <Position>
              <LatitudeDegrees>38.8522084616124629974365234375</LatitudeDegrees>
              <LongitudeDegrees>-6.360324919223785400390625</LongitudeDegrees>
            </Position>
            <AltitudeMeters>269.600006103515625</AltitudeMeters>
            <DistanceMeters>NAN</DistanceMeters>
          </Trackpoint>
          <Trackpoint>
            <Time>2019-10-09T10:52:58.000Z</Time>
            <Position>
              <LatitudeDegrees>38.85212791152298450469970703125</LatitudeDegrees>
              <LongitudeDegrees>-6.360313855111598968505859375</LongitudeDegrees>
            </Position>
            <AltitudeMeters>270.20001220703125</AltitudeMeters>
            <DistanceMeters>NAN</DistanceMeters>
          </Trackpoint>
          <Trackpoint>
            <Time>2019-10-09T10:53:06.000Z</Time>
            <Position>
              <LatitudeDegrees>38.851799257099628448486328125</LatitudeDegrees>
              <LongitudeDegrees>-6.3602888770401477813720703125</LongitudeDegrees>
            </Position>
            <AltitudeMeters>271</AltitudeMeters>
            <DistanceMeters>NAN</DistanceMeters>
          </Trackpoint>
          <Trackpoint>
            <Time>2019-10-09T10:53:07.000Z</Time>
            <Position>
              <LatitudeDegrees>38.85175810195505619049072265625</LatitudeDegrees>
              <LongitudeDegrees>-6.360286362469196319580078125</LongitudeDegrees>
            </Position>
            <AltitudeMeters>271.399993896484375</AltitudeMeters>
            <DistanceMeters>NAN</DistanceMeters>
          </Trackpoint>
          <Trackpoint>
            <Time>2019-10-09T10:53:14.000Z</Time>
            <Position>
              <LatitudeDegrees>38.8514668308198451995849609375</LatitudeDegrees>
              <LongitudeDegrees>-6.36030144989490509033203125</LongitudeDegrees>
            </Position>
            <AltitudeMeters>271.79998779296875</AltitudeMeters>
            <DistanceMeters>NAN</DistanceMeters>
          </Trackpoint>
          <Trackpoint>
            <Time>2019-10-09T10:53:20.000Z</Time>
            <Position>
              <LatitudeDegrees>38.85121026076376438140869140625</LatitudeDegrees>
              <LongitudeDegrees>-6.36032734997570514678955078125</LongitudeDegrees>
            </Position>
            <AltitudeMeters>272.399993896484375</AltitudeMeters>
            <DistanceMeters>NAN</DistanceMeters>
          </Trackpoint>
          <Trackpoint>
            <Time>2019-10-09T10:53:23.000Z</Time>
            <Position>
              <LatitudeDegrees>38.8510836102068424224853515625</LatitudeDegrees>
              <LongitudeDegrees>-6.36034059338271617889404296875</LongitudeDegrees>
            </Position>
            <AltitudeMeters>272.399993896484375</AltitudeMeters>
            <DistanceMeters>NAN</DistanceMeters>
          </Trackpoint>
          <Trackpoint>
            <Time>2019-10-09T10:53:31.000Z</Time>
            <Position>
              <LatitudeDegrees>38.85074087418615818023681640625</LatitudeDegrees>
              <LongitudeDegrees>-6.3604040443897247314453125</LongitudeDegrees>
            </Position>
            <AltitudeMeters>273</AltitudeMeters>
            <DistanceMeters>NAN</DistanceMeters>
          </Trackpoint>
          <Trackpoint>
            <Time>2019-10-09T10:53:41.000Z</Time>
            <Position>
              <LatitudeDegrees>38.85029353201389312744140625</LatitudeDegrees>
              <LongitudeDegrees>-6.360494904220104217529296875</LongitudeDegrees>
            </Position>
            <AltitudeMeters>273.20001220703125</AltitudeMeters>
            <DistanceMeters>NAN</DistanceMeters>
          </Trackpoint>
          <Trackpoint>
            <Time>2019-10-09T10:53:42.000Z</Time>
            <Position>
              <LatitudeDegrees>38.85024818591773509979248046875</LatitudeDegrees>
              <LongitudeDegrees>-6.36050370521843433380126953125</LongitudeDegrees>
            </Position>
            <AltitudeMeters>273.600006103515625</AltitudeMeters>
            <DistanceMeters>NAN</DistanceMeters>
          </Trackpoint>
          <Trackpoint>
            <Time>2019-10-09T10:53:49.000Z</Time>
            <Position>
              <LatitudeDegrees>38.8499289192259311676025390625</LatitudeDegrees>
              <LongitudeDegrees>-6.36056874878704547882080078125</LongitudeDegrees>
            </Position>
            <AltitudeMeters>273.399993896484375</AltitudeMeters>
            <DistanceMeters>NAN</DistanceMeters>
          </Trackpoint>
          <Trackpoint>
            <Time>2019-10-09T10:53:52.000Z</Time>
            <Position>
              <LatitudeDegrees>38.84979053400456905364990234375</LatitudeDegrees>
              <LongitudeDegrees>-6.36059054173529148101806640625</LongitudeDegrees>
            </Position>
            <AltitudeMeters>273.79998779296875</AltitudeMeters>
            <DistanceMeters>NAN</DistanceMeters>
          </Trackpoint>
          <Trackpoint>
            <Time>2019-10-09T10:53:58.000Z</Time>
            <Position>
              <LatitudeDegrees>38.84949046187102794647216796875</LatitudeDegrees>
              <LongitudeDegrees>-6.3606481254100799560546875</LongitudeDegrees>
            </Position>
            <AltitudeMeters>273.600006103515625</AltitudeMeters>
            <DistanceMeters>NAN</DistanceMeters>
          </Trackpoint>
          <Trackpoint>
            <Time>2019-10-09T10:54:00.000Z</Time>
            <Position>
              <LatitudeDegrees>38.8493864424526691436767578125</LatitudeDegrees>
              <LongitudeDegrees>-6.3606677390635013580322265625</LongitudeDegrees>
            </Position>
            <AltitudeMeters>273.600006103515625</AltitudeMeters>
            <DistanceMeters>NAN</DistanceMeters>
          </Trackpoint>
          <Trackpoint>
            <Time>2019-10-09T10:54:07.000Z</Time>
            <Position>
              <LatitudeDegrees>38.84901571087539196014404296875</LatitudeDegrees>
              <LongitudeDegrees>-6.36071643792092800140380859375</LongitudeDegrees>
            </Position>
            <AltitudeMeters>273.600006103515625</AltitudeMeters>
            <DistanceMeters>NAN</DistanceMeters>
          </Trackpoint>
          <Trackpoint>
            <Time>2019-10-09T10:54:10.000Z</Time>
            <Position>
              <LatitudeDegrees>38.84885695762932300567626953125</LatitudeDegrees>
              <LongitudeDegrees>-6.3607384823262691497802734375</LongitudeDegrees>
            </Position>
            <AltitudeMeters>273.600006103515625</AltitudeMeters>
            <DistanceMeters>NAN</DistanceMeters>
          </Trackpoint>
          <Trackpoint>
            <Time>2019-10-09T10:54:14.000Z</Time>
            <Position>
              <LatitudeDegrees>38.84863190352916717529296875</LatitudeDegrees>
              <LongitudeDegrees>-6.3607622869312763214111328125</LongitudeDegrees>
            </Position>
            <AltitudeMeters>273.20001220703125</AltitudeMeters>
            <DistanceMeters>NAN</DistanceMeters>
          </Trackpoint>
          <Trackpoint>
            <Time>2019-10-09T10:54:18.000Z</Time>
            <Position>
              <LatitudeDegrees>38.8483863137662410736083984375</LatitudeDegrees>
              <LongitudeDegrees>-6.36079237796366214752197265625</LongitudeDegrees>
            </Position>
            <AltitudeMeters>272.399993896484375</AltitudeMeters>
            <DistanceMeters>NAN</DistanceMeters>
          </Trackpoint>
          <Trackpoint>
            <Time>2019-10-09T10:54:22.000Z</Time>
            <Position>
              <LatitudeDegrees>38.8481147401034832000732421875</LatitudeDegrees>
              <LongitudeDegrees>-6.360811404883861541748046875</LongitudeDegrees>
            </Position>
            <AltitudeMeters>271.399993896484375</AltitudeMeters>
            <DistanceMeters>NAN</DistanceMeters>
          </Trackpoint>
          <Trackpoint>
            <Time>2019-10-09T10:54:24.000Z</Time>
            <Position>
              <LatitudeDegrees>38.84796964935958385467529296875</LatitudeDegrees>
              <LongitudeDegrees>-6.3608197867870330810546875</LongitudeDegrees>
            </Position>
            <AltitudeMeters>270.399993896484375</AltitudeMeters>
            <DistanceMeters>NAN</DistanceMeters>
          </Trackpoint>
          <Trackpoint>
            <Time>2019-10-09T10:54:25.000Z</Time>
            <Position>
              <LatitudeDegrees>38.847894631326198577880859375</LatitudeDegrees>
              <LongitudeDegrees>-6.36082448065280914306640625</LongitudeDegrees>
            </Position>
            <AltitudeMeters>270.399993896484375</AltitudeMeters>
            <DistanceMeters>NAN</DistanceMeters>
          </Trackpoint>
          <Trackpoint>
            <Time>2019-10-09T10:54:30.000Z</Time>
            <Position>
              <LatitudeDegrees>38.847494982182979583740234375</LatitudeDegrees>
              <LongitudeDegrees>-6.3608544878661632537841796875</LongitudeDegrees>
            </Position>
            <AltitudeMeters>269.20001220703125</AltitudeMeters>
            <DistanceMeters>NAN</DistanceMeters>
          </Trackpoint>
          <Trackpoint>
            <Time>2019-10-09T10:54:33.000Z</Time>
            <Position>
              <LatitudeDegrees>38.8472396694123744964599609375</LatitudeDegrees>
              <LongitudeDegrees>-6.360888518393039703369140625</LongitudeDegrees>
            </Position>
            <AltitudeMeters>267.79998779296875</AltitudeMeters>
            <DistanceMeters>NAN</DistanceMeters>
          </Trackpoint>
          <Trackpoint>
            <Time>2019-10-09T10:54:37.000Z</Time>
            <Position>
              <LatitudeDegrees>38.8468953408300876617431640625</LatitudeDegrees>
              <LongitudeDegrees>-6.36094191111624240875244140625</LongitudeDegrees>
            </Position>
            <AltitudeMeters>266.399993896484375</AltitudeMeters>
            <DistanceMeters>NAN</DistanceMeters>
          </Trackpoint>
          <Trackpoint>
            <Time>2019-10-09T10:54:39.000Z</Time>
            <Position>
              <LatitudeDegrees>38.84672326035797595977783203125</LatitudeDegrees>
              <LongitudeDegrees>-6.36097761802375316619873046875</LongitudeDegrees>
            </Position>
            <AltitudeMeters>264.79998779296875</AltitudeMeters>
            <DistanceMeters>NAN</DistanceMeters>
          </Trackpoint>
          <Trackpoint>
            <Time>2019-10-09T10:54:41.000Z</Time>
            <Position>
              <LatitudeDegrees>38.84655210189521312713623046875</LatitudeDegrees>
              <LongitudeDegrees>-6.36103243567049503326416015625</LongitudeDegrees>
            </Position>
            <AltitudeMeters>264.20001220703125</AltitudeMeters>
            <DistanceMeters>NAN</DistanceMeters>
          </Trackpoint>
          <Trackpoint>
            <Time>2019-10-09T10:54:44.000Z</Time>
            <Position>
              <LatitudeDegrees>38.8462951965630054473876953125</LatitudeDegrees>
              <LongitudeDegrees>-6.36111374013125896453857421875</LongitudeDegrees>
            </Position>
            <AltitudeMeters>263.600006103515625</AltitudeMeters>
            <DistanceMeters>NAN</DistanceMeters>
          </Trackpoint>
          <Trackpoint>
            <Time>2019-10-09T10:54:47.000Z</Time>
            <Position>
              <LatitudeDegrees>38.8460420630872249603271484375</LatitudeDegrees>
              <LongitudeDegrees>-6.36122019030153751373291015625</LongitudeDegrees>
            </Position>
            <AltitudeMeters>263.20001220703125</AltitudeMeters>
            <DistanceMeters>NAN</DistanceMeters>
          </Trackpoint>
          <Trackpoint>
            <Time>2019-10-09T10:54:48.000Z</Time>
            <Position>
              <LatitudeDegrees>38.84595765732228755950927734375</LatitudeDegrees>
              <LongitudeDegrees>-6.3612611778080463409423828125</LongitudeDegrees>
            </Position>
            <AltitudeMeters>262.79998779296875</AltitudeMeters>
            <DistanceMeters>NAN</DistanceMeters>
          </Trackpoint>
          <Trackpoint>
            <Time>2019-10-09T10:54:49.000Z</Time>
            <Position>
              <LatitudeDegrees>38.8458744250237941741943359375</LatitudeDegrees>
              <LongitudeDegrees>-6.36130082421004772186279296875</LongitudeDegrees>
            </Position>
            <AltitudeMeters>261.79998779296875</AltitudeMeters>
            <DistanceMeters>NAN</DistanceMeters>
          </Trackpoint>
          <Trackpoint>
            <Time>2019-10-09T10:54:54.000Z</Time>
            <Position>
              <LatitudeDegrees>38.845474608242511749267578125</LatitudeDegrees>
              <LongitudeDegrees>-6.3615384511649608612060546875</LongitudeDegrees>
            </Position>
            <AltitudeMeters>260.79998779296875</AltitudeMeters>
            <DistanceMeters>NAN</DistanceMeters>
          </Trackpoint>
          <Trackpoint>
            <Time>2019-10-09T10:54:56.000Z</Time>
            <Position>
              <LatitudeDegrees>38.84532147087156772613525390625</LatitudeDegrees>
              <LongitudeDegrees>-6.361641548573970794677734375</LongitudeDegrees>
            </Position>
            <AltitudeMeters>261.20001220703125</AltitudeMeters>
            <DistanceMeters>NAN</DistanceMeters>
          </Trackpoint>
          <Trackpoint>
            <Time>2019-10-09T10:54:59.000Z</Time>
            <Position>
              <LatitudeDegrees>38.8451041281223297119140625</LatitudeDegrees>
              <LongitudeDegrees>-6.36180306784808635711669921875</LongitudeDegrees>
            </Position>
            <AltitudeMeters>261.20001220703125</AltitudeMeters>
            <DistanceMeters>NAN</DistanceMeters>
          </Trackpoint>
          <Trackpoint>
            <Time>2019-10-09T10:55:00.000Z</Time>
            <Position>
              <LatitudeDegrees>38.8450335524976253509521484375</LatitudeDegrees>
              <LongitudeDegrees>-6.36185738258063793182373046875</LongitudeDegrees>
            </Position>
            <AltitudeMeters>260.600006103515625</AltitudeMeters>
            <DistanceMeters>NAN</DistanceMeters>
          </Trackpoint>
          <Trackpoint>
            <Time>2019-10-09T10:55:01.000Z</Time>
            <Position>
              <LatitudeDegrees>38.8449644856154918670654296875</LatitudeDegrees>
              <LongitudeDegrees>-6.361914463341236114501953125</LongitudeDegrees>
            </Position>
            <AltitudeMeters>260.600006103515625</AltitudeMeters>
            <DistanceMeters>NAN</DistanceMeters>
          </Trackpoint>
          <Trackpoint>
            <Time>2019-10-09T10:55:02.000Z</Time>
            <Position>
              <LatitudeDegrees>38.84489558637142181396484375</LatitudeDegrees>
              <LongitudeDegrees>-6.36196911334991455078125</LongitudeDegrees>
            </Position>
            <AltitudeMeters>261</AltitudeMeters>
            <DistanceMeters>NAN</DistanceMeters>
          </Trackpoint>
          <Trackpoint>
            <Time>2019-10-09T10:55:04.000Z</Time>
            <Position>
              <LatitudeDegrees>38.8447572849690914154052734375</LatitudeDegrees>
              <LongitudeDegrees>-6.36207229457795619964599609375</LongitudeDegrees>
            </Position>
            <AltitudeMeters>261.399993896484375</AltitudeMeters>
            <DistanceMeters>NAN</DistanceMeters>
          </Trackpoint>
          <Trackpoint>
            <Time>2019-10-09T10:55:06.000Z</Time>
            <Position>
              <LatitudeDegrees>38.84462141431868076324462890625</LatitudeDegrees>
              <LongitudeDegrees>-6.362173967063426971435546875</LongitudeDegrees>
            </Position>
            <AltitudeMeters>261.20001220703125</AltitudeMeters>
            <DistanceMeters>NAN</DistanceMeters>
          </Trackpoint>
          <Trackpoint>
            <Time>2019-10-09T10:55:08.000Z</Time>
            <Position>
              <LatitudeDegrees>38.84448587894439697265625</LatitudeDegrees>
              <LongitudeDegrees>-6.3622706942260265350341796875</LongitudeDegrees>
            </Position>
            <AltitudeMeters>261</AltitudeMeters>
            <DistanceMeters>NAN</DistanceMeters>
          </Trackpoint>
          <Trackpoint>
            <Time>2019-10-09T10:55:11.000Z</Time>
            <Position>
              <LatitudeDegrees>38.844295442104339599609375</LatitudeDegrees>
              <LongitudeDegrees>-6.362417377531528472900390625</LongitudeDegrees>
            </Position>
            <AltitudeMeters>260.600006103515625</AltitudeMeters>
            <DistanceMeters>NAN</DistanceMeters>
          </Trackpoint>
          <Trackpoint>
            <Time>2019-10-09T10:55:13.000Z</Time>
            <Position>
              <LatitudeDegrees>38.8441712222993373870849609375</LatitudeDegrees>
              <LongitudeDegrees>-6.36250429786741733551025390625</LongitudeDegrees>
            </Position>
            <AltitudeMeters>261.20001220703125</AltitudeMeters>
            <DistanceMeters>NAN</DistanceMeters>
          </Trackpoint>
          <Trackpoint>
            <Time>2019-10-09T10:55:15.000Z</Time>
            <Position>
              <LatitudeDegrees>38.8440475054085254669189453125</LatitudeDegrees>
              <LongitudeDegrees>-6.362586356699466705322265625</LongitudeDegrees>
            </Position>
            <AltitudeMeters>262.20001220703125</AltitudeMeters>
            <DistanceMeters>NAN</DistanceMeters>
          </Trackpoint>
          <Trackpoint>
            <Time>2019-10-09T10:55:18.000Z</Time>
            <Position>
              <LatitudeDegrees>38.84386654011905193328857421875</LatitudeDegrees>
              <LongitudeDegrees>-6.36270244605839252471923828125</LongitudeDegrees>
            </Position>
            <AltitudeMeters>261.600006103515625</AltitudeMeters>
            <DistanceMeters>NAN</DistanceMeters>
          </Trackpoint>
          <Trackpoint>
            <Time>2019-10-09T10:55:22.000Z</Time>
            <Position>
              <LatitudeDegrees>38.84361843578517436981201171875</LatitudeDegrees>
              <LongitudeDegrees>-6.36283823288977146148681640625</LongitudeDegrees>
            </Position>
            <AltitudeMeters>262</AltitudeMeters>
            <DistanceMeters>NAN</DistanceMeters>
          </Trackpoint>
          <Trackpoint>
            <Time>2019-10-09T10:55:28.000Z</Time>
            <Position>
              <LatitudeDegrees>38.843216188251972198486328125</LatitudeDegrees>
              <LongitudeDegrees>-6.36300218291580677032470703125</LongitudeDegrees>
            </Position>
            <AltitudeMeters>261</AltitudeMeters>
            <DistanceMeters>NAN</DistanceMeters>
          </Trackpoint>
          <Trackpoint>
            <Time>2019-10-09T10:55:30.000Z</Time>
            <Position>
              <LatitudeDegrees>38.84307160042226314544677734375</LatitudeDegrees>
              <LongitudeDegrees>-6.3630485348403453826904296875</LongitudeDegrees>
            </Position>
            <AltitudeMeters>260.399993896484375</AltitudeMeters>
            <DistanceMeters>NAN</DistanceMeters>
          </Trackpoint>
          <Trackpoint>
            <Time>2019-10-09T10:55:32.000Z</Time>
            <Position>
              <LatitudeDegrees>38.8429209776222705841064453125</LatitudeDegrees>
              <LongitudeDegrees>-6.36309136636555194854736328125</LongitudeDegrees>
            </Position>
            <AltitudeMeters>259.79998779296875</AltitudeMeters>
            <DistanceMeters>NAN</DistanceMeters>
          </Trackpoint>
          <Trackpoint>
            <Time>2019-10-09T10:55:38.000Z</Time>
            <Position>
              <LatitudeDegrees>38.8424532674252986907958984375</LatitudeDegrees>
              <LongitudeDegrees>-6.36321726255118846893310546875</LongitudeDegrees>
            </Position>
            <AltitudeMeters>258.600006103515625</AltitudeMeters>
            <DistanceMeters>NAN</DistanceMeters>
          </Trackpoint>
          <Trackpoint>
            <Time>2019-10-09T10:55:42.000Z</Time>
            <Position>
              <LatitudeDegrees>38.84212411008775234222412109375</LatitudeDegrees>
              <LongitudeDegrees>-6.36330259032547473907470703125</LongitudeDegrees>
            </Position>
            <AltitudeMeters>257.399993896484375</AltitudeMeters>
            <DistanceMeters>NAN</DistanceMeters>
          </Trackpoint>
          <Trackpoint>
            <Time>2019-10-09T10:55:46.000Z</Time>
            <Position>
              <LatitudeDegrees>38.8417937792837619781494140625</LatitudeDegrees>
              <LongitudeDegrees>-6.3633878342807292938232421875</LongitudeDegrees>
            </Position>
            <AltitudeMeters>256.399993896484375</AltitudeMeters>
            <DistanceMeters>NAN</DistanceMeters>
          </Trackpoint>
          <Trackpoint>
            <Time>2019-10-09T10:55:49.000Z</Time>
            <Position>
              <LatitudeDegrees>38.841545842587947845458984375</LatitudeDegrees>
              <LongitudeDegrees>-6.36344960890710353851318359375</LongitudeDegrees>
            </Position>
            <AltitudeMeters>255.600006103515625</AltitudeMeters>
            <DistanceMeters>NAN</DistanceMeters>
          </Trackpoint>
          <Trackpoint>
            <Time>2019-10-09T10:55:52.000Z</Time>
            <Position>
              <LatitudeDegrees>38.8412927091121673583984375</LatitudeDegrees>
              <LongitudeDegrees>-6.36351431719958782196044921875</LongitudeDegrees>
            </Position>
            <AltitudeMeters>255</AltitudeMeters>
            <DistanceMeters>NAN</DistanceMeters>
          </Trackpoint>
          <Trackpoint>
            <Time>2019-10-09T10:55:57.000Z</Time>
            <Position>
              <LatitudeDegrees>38.840867914259433746337890625</LatitudeDegrees>
              <LongitudeDegrees>-6.36362730525434017181396484375</LongitudeDegrees>
            </Position>
            <AltitudeMeters>253.600006103515625</AltitudeMeters>
            <DistanceMeters>NAN</DistanceMeters>
          </Trackpoint>
          <Trackpoint>
            <Time>2019-10-09T10:55:59.000Z</Time>
            <Position>
              <LatitudeDegrees>38.84069885127246379852294921875</LatitudeDegrees>
              <LongitudeDegrees>-6.3636677898466587066650390625</LongitudeDegrees>
            </Position>
            <AltitudeMeters>253.600006103515625</AltitudeMeters>
            <DistanceMeters>NAN</DistanceMeters>
          </Trackpoint>
          <Trackpoint>
            <Time>2019-10-09T10:56:00.000Z</Time>
            <Position>
              <LatitudeDegrees>38.8406129367649555206298828125</LatitudeDegrees>
              <LongitudeDegrees>-6.36368773877620697021484375</LongitudeDegrees>
            </Position>
            <AltitudeMeters>253.600006103515625</AltitudeMeters>
            <DistanceMeters>NAN</DistanceMeters>
          </Trackpoint>
          <Trackpoint>
            <Time>2019-10-09T10:56:02.000Z</Time>
            <Position>
              <LatitudeDegrees>38.84044437669217586517333984375</LatitudeDegrees>
              <LongitudeDegrees>-6.3637311570346355438232421875</LongitudeDegrees>
            </Position>
            <AltitudeMeters>253.600006103515625</AltitudeMeters>
            <DistanceMeters>NAN</DistanceMeters>
          </Trackpoint>
          <Trackpoint>
            <Time>2019-10-09T10:56:09.000Z</Time>
            <Position>
              <LatitudeDegrees>38.83986937813460826873779296875</LatitudeDegrees>
              <LongitudeDegrees>-6.363881528377532958984375</LongitudeDegrees>
            </Position>
            <AltitudeMeters>253.1999969482421875</AltitudeMeters>
            <DistanceMeters>NAN</DistanceMeters>
          </Trackpoint>
          <Trackpoint>
            <Time>2019-10-09T10:56:10.000Z</Time>
            <Position>
              <LatitudeDegrees>38.8397898338735103607177734375</LatitudeDegrees>
              <LongitudeDegrees>-6.3639021478593349456787109375</LongitudeDegrees>
            </Position>
            <AltitudeMeters>253.399993896484375</AltitudeMeters>
            <DistanceMeters>NAN</DistanceMeters>
          </Trackpoint>
          <Trackpoint>
            <Time>2019-10-09T10:56:14.000Z</Time>
            <Position>
              <LatitudeDegrees>38.8394753448665142059326171875</LatitudeDegrees>
              <LongitudeDegrees>-6.36397951282560825347900390625</LongitudeDegrees>
            </Position>
            <AltitudeMeters>254.1999969482421875</AltitudeMeters>
            <DistanceMeters>NAN</DistanceMeters>
          </Trackpoint>
          <Trackpoint>
            <Time>2019-10-09T10:56:18.000Z</Time>
            <Position>
              <LatitudeDegrees>38.83917451836168766021728515625</LatitudeDegrees>
              <LongitudeDegrees>-6.364053525030612945556640625</LongitudeDegrees>
            </Position>
            <AltitudeMeters>254.1999969482421875</AltitudeMeters>
            <DistanceMeters>NAN</DistanceMeters>
          </Trackpoint>
          <Trackpoint>
            <Time>2019-10-09T10:56:19.000Z</Time>
            <Position>
              <LatitudeDegrees>38.83910000324249267578125</LatitudeDegrees>
              <LongitudeDegrees>-6.364070959389209747314453125</LongitudeDegrees>
            </Position>
            <AltitudeMeters>254.399993896484375</AltitudeMeters>
            <DistanceMeters>NAN</DistanceMeters>
          </Trackpoint>
          <Trackpoint>
            <Time>2019-10-09T10:56:20.000Z</Time>
            <Position>
              <LatitudeDegrees>38.8390260748565196990966796875</LatitudeDegrees>
              <LongitudeDegrees>-6.3640878908336162567138671875</LongitudeDegrees>
            </Position>
            <AltitudeMeters>254.600006103515625</AltitudeMeters>
            <DistanceMeters>NAN</DistanceMeters>
          </Trackpoint>
          <Trackpoint>
            <Time>2019-10-09T10:56:28.000Z</Time>
            <Position>
              <LatitudeDegrees>38.83845501579344272613525390625</LatitudeDegrees>
              <LongitudeDegrees>-6.36422879062592983245849609375</LongitudeDegrees>
            </Position>
            <AltitudeMeters>254.1999969482421875</AltitudeMeters>
            <DistanceMeters>NAN</DistanceMeters>
          </Trackpoint>
          <Trackpoint>
            <Time>2019-10-09T10:56:29.000Z</Time>
            <Position>
              <LatitudeDegrees>38.83838812820613384246826171875</LatitudeDegrees>
              <LongitudeDegrees>-6.364243961870670318603515625</LongitudeDegrees>
            </Position>
            <AltitudeMeters>254</AltitudeMeters>
            <DistanceMeters>NAN</DistanceMeters>
          </Trackpoint>
          <Trackpoint>
            <Time>2019-10-09T10:56:35.000Z</Time>
            <Position>
              <LatitudeDegrees>38.837992586195468902587890625</LatitudeDegrees>
              <LongitudeDegrees>-6.36433909647166728973388671875</LongitudeDegrees>
            </Position>
            <AltitudeMeters>255.399993896484375</AltitudeMeters>
            <DistanceMeters>NAN</DistanceMeters>
          </Trackpoint>
          <Trackpoint>
            <Time>2019-10-09T10:56:37.000Z</Time>
            <Position>
              <LatitudeDegrees>38.8378626666963100433349609375</LatitudeDegrees>
              <LongitudeDegrees>-6.364367343485355377197265625</LongitudeDegrees>
            </Position>
            <AltitudeMeters>255.1999969482421875</AltitudeMeters>
            <DistanceMeters>NAN</DistanceMeters>
          </Trackpoint>
          <Trackpoint>
            <Time>2019-10-09T10:56:40.000Z</Time>
            <Position>
              <LatitudeDegrees>38.83766761980950832366943359375</LatitudeDegrees>
              <LongitudeDegrees>-6.36441067792475223541259765625</LongitudeDegrees>
            </Position>
            <AltitudeMeters>255.600006103515625</AltitudeMeters>
            <DistanceMeters>NAN</DistanceMeters>
          </Trackpoint>
          <Trackpoint>
            <Time>2019-10-09T10:56:48.000Z</Time>
            <Position>
              <LatitudeDegrees>38.837151713669300079345703125</LatitudeDegrees>
              <LongitudeDegrees>-6.364528276026248931884765625</LongitudeDegrees>
            </Position>
            <AltitudeMeters>255.600006103515625</AltitudeMeters>
            <DistanceMeters>NAN</DistanceMeters>
          </Trackpoint>
          <Trackpoint>
            <Time>2019-10-09T10:56:57.000Z</Time>
            <Position>
              <LatitudeDegrees>38.836593143641948699951171875</LatitudeDegrees>
              <LongitudeDegrees>-6.36465408839285373687744140625</LongitudeDegrees>
            </Position>
            <AltitudeMeters>256.399993896484375</AltitudeMeters>
            <DistanceMeters>NAN</DistanceMeters>
          </Trackpoint>
          <Trackpoint>
            <Time>2019-10-09T10:56:58.000Z</Time>
            <Position>
              <LatitudeDegrees>38.8365316204726696014404296875</LatitudeDegrees>
              <LongitudeDegrees>-6.3646679185330867767333984375</LongitudeDegrees>
            </Position>
            <AltitudeMeters>256.600006103515625</AltitudeMeters>
            <DistanceMeters>NAN</DistanceMeters>
          </Trackpoint>
          <Trackpoint>
            <Time>2019-10-09T10:56:59.000Z</Time>
            <Position>
              <LatitudeDegrees>38.83647286333143711090087890625</LatitudeDegrees>
              <LongitudeDegrees>-6.3646830059587955474853515625</LongitudeDegrees>
            </Position>
            <AltitudeMeters>256.600006103515625</AltitudeMeters>
            <DistanceMeters>NAN</DistanceMeters>
          </Trackpoint>
          <Trackpoint>
            <Time>2019-10-09T10:57:08.000Z</Time>
            <Position>
              <LatitudeDegrees>38.83592803962528705596923828125</LatitudeDegrees>
              <LongitudeDegrees>-6.36478987522423267364501953125</LongitudeDegrees>
            </Position>
            <AltitudeMeters>257.20001220703125</AltitudeMeters>
            <DistanceMeters>NAN</DistanceMeters>
          </Trackpoint>
          <Trackpoint>
            <Time>2019-10-09T10:57:17.000Z</Time>
            <Position>
              <LatitudeDegrees>38.83535807020962238311767578125</LatitudeDegrees>
              <LongitudeDegrees>-6.3649213872849941253662109375</LongitudeDegrees>
            </Position>
            <AltitudeMeters>257.20001220703125</AltitudeMeters>
            <DistanceMeters>NAN</DistanceMeters>
          </Trackpoint>
          <Trackpoint>
            <Time>2019-10-09T10:57:23.000Z</Time>
            <Position>
              <LatitudeDegrees>38.8349776156246662139892578125</LatitudeDegrees>
              <LongitudeDegrees>-6.36499824933707714080810546875</LongitudeDegrees>
            </Position>
            <AltitudeMeters>256.79998779296875</AltitudeMeters>
            <DistanceMeters>NAN</DistanceMeters>
          </Trackpoint>
          <Trackpoint>
            <Time>2019-10-09T10:57:28.000Z</Time>
            <Position>
              <LatitudeDegrees>38.83466170169413089752197265625</LatitudeDegrees>
              <LongitudeDegrees>-6.36507150717079639434814453125</LongitudeDegrees>
            </Position>
            <AltitudeMeters>256.600006103515625</AltitudeMeters>
            <DistanceMeters>NAN</DistanceMeters>
          </Trackpoint>
          <Trackpoint>
            <Time>2019-10-09T10:57:36.000Z</Time>
            <Position>
              <LatitudeDegrees>38.8341732881963253021240234375</LatitudeDegrees>
              <LongitudeDegrees>-6.36517242528498172760009765625</LongitudeDegrees>
            </Position>
            <AltitudeMeters>257.20001220703125</AltitudeMeters>
            <DistanceMeters>NAN</DistanceMeters>
          </Trackpoint>
          <Trackpoint>
            <Time>2019-10-09T10:57:45.000Z</Time>
            <Position>
              <LatitudeDegrees>38.83363894186913967132568359375</LatitudeDegrees>
              <LongitudeDegrees>-6.36528625153005123138427734375</LongitudeDegrees>
            </Position>
            <AltitudeMeters>257.20001220703125</AltitudeMeters>
            <DistanceMeters>NAN</DistanceMeters>
          </Trackpoint>
          <Trackpoint>
            <Time>2019-10-09T10:57:48.000Z</Time>
            <Position>
              <LatitudeDegrees>38.83345806039869785308837890625</LatitudeDegrees>
              <LongitudeDegrees>-6.36532950215041637420654296875</LongitudeDegrees>
            </Position>
            <AltitudeMeters>257.20001220703125</AltitudeMeters>
            <DistanceMeters>NAN</DistanceMeters>
          </Trackpoint>
          <Trackpoint>
            <Time>2019-10-09T10:57:57.000Z</Time>
            <Position>
              <LatitudeDegrees>38.83290787227451801300048828125</LatitudeDegrees>
              <LongitudeDegrees>-6.36545305140316486358642578125</LongitudeDegrees>
            </Position>
            <AltitudeMeters>257.20001220703125</AltitudeMeters>
            <DistanceMeters>NAN</DistanceMeters>
          </Trackpoint>
          <Trackpoint>
            <Time>2019-10-09T10:58:00.000Z</Time>
            <Position>
              <LatitudeDegrees>38.832721374928951263427734375</LatitudeDegrees>
              <LongitudeDegrees>-6.36549496091902256011962890625</LongitudeDegrees>
            </Position>
            <AltitudeMeters>257.600006103515625</AltitudeMeters>
            <DistanceMeters>NAN</DistanceMeters>
          </Trackpoint>
          <Trackpoint>
            <Time>2019-10-09T10:58:02.000Z</Time>
            <Position>
              <LatitudeDegrees>38.83259832859039306640625</LatitudeDegrees>
              <LongitudeDegrees>-6.365522705018520355224609375</LongitudeDegrees>
            </Position>
            <AltitudeMeters>257.600006103515625</AltitudeMeters>
            <DistanceMeters>NAN</DistanceMeters>
          </Trackpoint>
          <Trackpoint>
            <Time>2019-10-09T10:58:08.000Z</Time>
            <Position>
              <LatitudeDegrees>38.83224628865718841552734375</LatitudeDegrees>
              <LongitudeDegrees>-6.3656009919941425323486328125</LongitudeDegrees>
            </Position>
            <AltitudeMeters>258.600006103515625</AltitudeMeters>
            <DistanceMeters>NAN</DistanceMeters>
          </Trackpoint>
          <Trackpoint>
            <Time>2019-10-09T10:58:11.000Z</Time>
            <Position>
              <LatitudeDegrees>38.83206649683415889739990234375</LatitudeDegrees>
              <LongitudeDegrees>-6.36563879437744617462158203125</LongitudeDegrees>
            </Position>
            <AltitudeMeters>258.79998779296875</AltitudeMeters>
            <DistanceMeters>NAN</DistanceMeters>
          </Trackpoint>
          <Trackpoint>
            <Time>2019-10-09T10:58:18.000Z</Time>
            <Position>
              <LatitudeDegrees>38.8316838629543781280517578125</LatitudeDegrees>
              <LongitudeDegrees>-6.36572512798011302947998046875</LongitudeDegrees>
            </Position>
            <AltitudeMeters>259.79998779296875</AltitudeMeters>
            <DistanceMeters>NAN</DistanceMeters>
          </Trackpoint>
          <Trackpoint>
            <Time>2019-10-09T10:58:23.000Z</Time>
            <Position>
              <LatitudeDegrees>38.83143902756273746490478515625</LatitudeDegrees>
              <LongitudeDegrees>-6.36577491648495197296142578125</LongitudeDegrees>
            </Position>
            <AltitudeMeters>260.600006103515625</AltitudeMeters>
            <DistanceMeters>NAN</DistanceMeters>
          </Trackpoint>
          <Trackpoint>
            <Time>2019-10-09T10:58:24.000Z</Time>
            <Position>
              <LatitudeDegrees>38.83139443583786487579345703125</LatitudeDegrees>
              <LongitudeDegrees>-6.36578522622585296630859375</LongitudeDegrees>
            </Position>
            <AltitudeMeters>261</AltitudeMeters>
            <DistanceMeters>NAN</DistanceMeters>
          </Trackpoint>
          <Trackpoint>
            <Time>2019-10-09T10:58:25.000Z</Time>
            <Position>
              <LatitudeDegrees>38.83135118521749973297119140625</LatitudeDegrees>
              <LongitudeDegrees>-6.36580173857510089874267578125</LongitudeDegrees>
            </Position>
            <AltitudeMeters>261</AltitudeMeters>
            <DistanceMeters>NAN</DistanceMeters>
          </Trackpoint>
          <Trackpoint>
            <Time>2019-10-09T10:58:33.000Z</Time>
            <Position>
              <LatitudeDegrees>38.83100601844489574432373046875</LatitudeDegrees>
              <LongitudeDegrees>-6.36589427478611469268798828125</LongitudeDegrees>
            </Position>
            <AltitudeMeters>262.20001220703125</AltitudeMeters>
            <DistanceMeters>NAN</DistanceMeters>
          </Trackpoint>
          <Trackpoint>
            <Time>2019-10-09T10:58:35.000Z</Time>
            <Position>
              <LatitudeDegrees>38.8309294916689395904541015625</LatitudeDegrees>
              <LongitudeDegrees>-6.3659161515533924102783203125</LongitudeDegrees>
            </Position>
            <AltitudeMeters>262.399993896484375</AltitudeMeters>
            <DistanceMeters>NAN</DistanceMeters>
          </Trackpoint>
          <Trackpoint>
            <Time>2019-10-09T10:58:40.000Z</Time>
            <Position>
              <LatitudeDegrees>38.83074047975242137908935546875</LatitudeDegrees>
              <LongitudeDegrees>-6.365971975028514862060546875</LongitudeDegrees>
            </Position>
            <AltitudeMeters>263.20001220703125</AltitudeMeters>
            <DistanceMeters>NAN</DistanceMeters>
          </Trackpoint>
          <Trackpoint>
            <Time>2019-10-09T10:58:46.000Z</Time>
            <Position>
              <LatitudeDegrees>38.83052070625126361846923828125</LatitudeDegrees>
              <LongitudeDegrees>-6.36604028753936290740966796875</LongitudeDegrees>
            </Position>
            <AltitudeMeters>264.20001220703125</AltitudeMeters>
            <DistanceMeters>NAN</DistanceMeters>
          </Trackpoint>
          <Trackpoint>
            <Time>2019-10-09T10:58:51.000Z</Time>
            <Position>
              <LatitudeDegrees>38.830348961055278778076171875</LatitudeDegrees>
              <LongitudeDegrees>-6.3660978712141513824462890625</LongitudeDegrees>
            </Position>
            <AltitudeMeters>265.20001220703125</AltitudeMeters>
            <DistanceMeters>NAN</DistanceMeters>
          </Trackpoint>
          <Trackpoint>
            <Time>2019-10-09T10:58:53.000Z</Time>
            <Position>
              <LatitudeDegrees>38.83027427829802036285400390625</LatitudeDegrees>
              <LongitudeDegrees>-6.36611689813435077667236328125</LongitudeDegrees>
            </Position>
            <AltitudeMeters>265.600006103515625</AltitudeMeters>
            <DistanceMeters>NAN</DistanceMeters>
          </Trackpoint>
          <Trackpoint>
            <Time>2019-10-09T10:58:57.000Z</Time>
            <Position>
              <LatitudeDegrees>38.830132372677326202392578125</LatitudeDegrees>
              <LongitudeDegrees>-6.3661702908575534820556640625</LongitudeDegrees>
            </Position>
            <AltitudeMeters>266.399993896484375</AltitudeMeters>
            <DistanceMeters>NAN</DistanceMeters>
          </Trackpoint>
          <Trackpoint>
            <Time>2019-10-09T10:59:01.000Z</Time>
            <Position>
              <LatitudeDegrees>38.82999147288501262664794921875</LatitudeDegrees>
              <LongitudeDegrees>-6.3662262819707393646240234375</LongitudeDegrees>
            </Position>
            <AltitudeMeters>266.79998779296875</AltitudeMeters>
            <DistanceMeters>NAN</DistanceMeters>
          </Trackpoint>
          <Trackpoint>
            <Time>2019-10-09T10:59:03.000Z</Time>
            <Position>
              <LatitudeDegrees>38.82992022670805454254150390625</LatitudeDegrees>
              <LongitudeDegrees>-6.36625402607023715972900390625</LongitudeDegrees>
            </Position>
            <AltitudeMeters>267.600006103515625</AltitudeMeters>
            <DistanceMeters>NAN</DistanceMeters>
          </Trackpoint>
          <Trackpoint>
            <Time>2019-10-09T10:59:09.000Z</Time>
            <Position>
              <LatitudeDegrees>38.82971026003360748291015625</LatitudeDegrees>
              <LongitudeDegrees>-6.36632828973233699798583984375</LongitudeDegrees>
            </Position>
            <AltitudeMeters>268.600006103515625</AltitudeMeters>
            <DistanceMeters>NAN</DistanceMeters>
          </Trackpoint>
          <Trackpoint>
            <Time>2019-10-09T10:59:11.000Z</Time>
            <Position>
              <LatitudeDegrees>38.82964412681758403778076171875</LatitudeDegrees>
              <LongitudeDegrees>-6.36635175906121730804443359375</LongitudeDegrees>
            </Position>
            <AltitudeMeters>269</AltitudeMeters>
            <DistanceMeters>NAN</DistanceMeters>
          </Trackpoint>
          <Trackpoint>
            <Time>2019-10-09T10:59:15.000Z</Time>
            <Position>
              <LatitudeDegrees>38.8295079208910465240478515625</LatitudeDegrees>
              <LongitudeDegrees>-6.3663934171199798583984375</LongitudeDegrees>
            </Position>
            <AltitudeMeters>269.79998779296875</AltitudeMeters>
            <DistanceMeters>NAN</DistanceMeters>
          </Trackpoint>
          <Trackpoint>
            <Time>2019-10-09T10:59:18.000Z</Time>
            <Position>
              <LatitudeDegrees>38.8294051587581634521484375</LatitudeDegrees>
              <LongitudeDegrees>-6.36643088422715663909912109375</LongitudeDegrees>
            </Position>
            <AltitudeMeters>270.20001220703125</AltitudeMeters>
            <DistanceMeters>NAN</DistanceMeters>
          </Trackpoint>
          <Trackpoint>
            <Time>2019-10-09T10:59:21.000Z</Time>
            <Position>
              <LatitudeDegrees>38.82930365391075611114501953125</LatitudeDegrees>
              <LongitudeDegrees>-6.3664717040956020355224609375</LongitudeDegrees>
            </Position>
            <AltitudeMeters>271</AltitudeMeters>
            <DistanceMeters>NAN</DistanceMeters>
          </Trackpoint>
          <Trackpoint>
            <Time>2019-10-09T10:59:25.000Z</Time>
            <Position>
              <LatitudeDegrees>38.8291645981371402740478515625</LatitudeDegrees>
              <LongitudeDegrees>-6.366518475115299224853515625</LongitudeDegrees>
            </Position>
            <AltitudeMeters>272</AltitudeMeters>
            <DistanceMeters>NAN</DistanceMeters>
          </Trackpoint>
          <Trackpoint>
            <Time>2019-10-09T10:59:30.000Z</Time>
            <Position>
              <LatitudeDegrees>38.8289962895214557647705078125</LatitudeDegrees>
              <LongitudeDegrees>-6.36657991446554660797119140625</LongitudeDegrees>
            </Position>
            <AltitudeMeters>272.600006103515625</AltitudeMeters>
            <DistanceMeters>NAN</DistanceMeters>
          </Trackpoint>
          <Trackpoint>
            <Time>2019-10-09T10:59:32.000Z</Time>
            <Position>
              <LatitudeDegrees>38.8289319165050983428955078125</LatitudeDegrees>
              <LongitudeDegrees>-6.3666041381657123565673828125</LongitudeDegrees>
            </Position>
            <AltitudeMeters>273.20001220703125</AltitudeMeters>
            <DistanceMeters>NAN</DistanceMeters>
          </Trackpoint>
          <Trackpoint>
            <Time>2019-10-09T10:59:39.000Z</Time>
            <Position>
              <LatitudeDegrees>38.82870602421462535858154296875</LatitudeDegrees>
              <LongitudeDegrees>-6.3666802458465099334716796875</LongitudeDegrees>
            </Position>
            <AltitudeMeters>274.399993896484375</AltitudeMeters>
            <DistanceMeters>NAN</DistanceMeters>
          </Trackpoint>
          <Trackpoint>
            <Time>2019-10-09T10:59:40.000Z</Time>
            <Position>
              <LatitudeDegrees>38.8286737538874149322509765625</LatitudeDegrees>
              <LongitudeDegrees>-6.36669189669191837310791015625</LongitudeDegrees>
            </Position>
            <AltitudeMeters>274.399993896484375</AltitudeMeters>
            <DistanceMeters>NAN</DistanceMeters>
          </Trackpoint>
          <Trackpoint>
            <Time>2019-10-09T10:59:45.000Z</Time>
            <Position>
              <LatitudeDegrees>38.82851273752748966217041015625</LatitudeDegrees>
              <LongitudeDegrees>-6.36674906127154827117919921875</LongitudeDegrees>
            </Position>
            <AltitudeMeters>275.399993896484375</AltitudeMeters>
            <DistanceMeters>NAN</DistanceMeters>
          </Trackpoint>
          <Trackpoint>
            <Time>2019-10-09T10:59:50.000Z</Time>
            <Position>
              <LatitudeDegrees>38.82834627293050289154052734375</LatitudeDegrees>
              <LongitudeDegrees>-6.36680874042212963104248046875</LongitudeDegrees>
            </Position>
            <AltitudeMeters>276.399993896484375</AltitudeMeters>
            <DistanceMeters>NAN</DistanceMeters>
          </Trackpoint>
          <Trackpoint>
            <Time>2019-10-09T10:59:51.000Z</Time>
            <Position>
              <LatitudeDegrees>38.82831375114619731903076171875</LatitudeDegrees>
              <LongitudeDegrees>-6.36682131327688694000244140625</LongitudeDegrees>
            </Position>
            <AltitudeMeters>276.600006103515625</AltitudeMeters>
            <DistanceMeters>NAN</DistanceMeters>
          </Trackpoint>
          <Trackpoint>
            <Time>2019-10-09T10:59:58.000Z</Time>
            <Position>
              <LatitudeDegrees>38.82808140479028224945068359375</LatitudeDegrees>
              <LongitudeDegrees>-6.366905383765697479248046875</LongitudeDegrees>
            </Position>
            <AltitudeMeters>277.600006103515625</AltitudeMeters>
            <DistanceMeters>NAN</DistanceMeters>
          </Trackpoint>
          <Trackpoint>
            <Time>2019-10-09T11:00:00.000Z</Time>
            <Position>
              <LatitudeDegrees>38.82801644504070281982421875</LatitudeDegrees>
              <LongitudeDegrees>-6.366933546960353851318359375</LongitudeDegrees>
            </Position>
            <AltitudeMeters>278.399993896484375</AltitudeMeters>
            <DistanceMeters>NAN</DistanceMeters>
          </Trackpoint>
          <Trackpoint>
            <Time>2019-10-09T11:00:05.000Z</Time>
            <Position>
              <LatitudeDegrees>38.8278486393392086029052734375</LatitudeDegrees>
              <LongitudeDegrees>-6.36698543094098567962646484375</LongitudeDegrees>
            </Position>
            <AltitudeMeters>279</AltitudeMeters>
            <DistanceMeters>NAN</DistanceMeters>
          </Trackpoint>
          <Trackpoint>
            <Time>2019-10-09T11:00:09.000Z</Time>
            <Position>
              <LatitudeDegrees>38.82771360687911510467529296875</LatitudeDegrees>
              <LongitudeDegrees>-6.3670296035706996917724609375</LongitudeDegrees>
            </Position>
            <AltitudeMeters>279.600006103515625</AltitudeMeters>
            <DistanceMeters>NAN</DistanceMeters>
          </Trackpoint>
          <Trackpoint>
            <Time>2019-10-09T11:00:14.000Z</Time>
            <Position>
              <LatitudeDegrees>38.82755133323371410369873046875</LatitudeDegrees>
              <LongitudeDegrees>-6.3670934736728668212890625</LongitudeDegrees>
            </Position>
            <AltitudeMeters>280.20001220703125</AltitudeMeters>
            <DistanceMeters>NAN</DistanceMeters>
          </Trackpoint>
          <Trackpoint>
            <Time>2019-10-09T11:00:20.000Z</Time>
            <Position>
              <LatitudeDegrees>38.82735192775726318359375</LatitudeDegrees>
              <LongitudeDegrees>-6.36715860106050968170166015625</LongitudeDegrees>
            </Position>
            <AltitudeMeters>281.20001220703125</AltitudeMeters>
            <DistanceMeters>NAN</DistanceMeters>
          </Trackpoint>
          <Trackpoint>
            <Time>2019-10-09T11:00:21.000Z</Time>
            <Position>
              <LatitudeDegrees>38.8273199088871479034423828125</LatitudeDegrees>
              <LongitudeDegrees>-6.36716966517269611358642578125</LongitudeDegrees>
            </Position>
            <AltitudeMeters>281.399993896484375</AltitudeMeters>
            <DistanceMeters>NAN</DistanceMeters>
          </Trackpoint>
          <Trackpoint>
            <Time>2019-10-09T11:00:25.000Z</Time>
            <Position>
              <LatitudeDegrees>38.8271869719028472900390625</LatitudeDegrees>
              <LongitudeDegrees>-6.367219872772693634033203125</LongitudeDegrees>
            </Position>
            <AltitudeMeters>282.600006103515625</AltitudeMeters>
            <DistanceMeters>NAN</DistanceMeters>
          </Trackpoint>
          <Trackpoint>
            <Time>2019-10-09T11:00:30.000Z</Time>
            <Position>
              <LatitudeDegrees>38.82701053284108638763427734375</LatitudeDegrees>
              <LongitudeDegrees>-6.3672750256955623626708984375</LongitudeDegrees>
            </Position>
            <AltitudeMeters>283</AltitudeMeters>
            <DistanceMeters>NAN</DistanceMeters>
          </Trackpoint>
          <Trackpoint>
            <Time>2019-10-09T11:00:39.000Z</Time>
            <Position>
              <LatitudeDegrees>38.82667324505746364593505859375</LatitudeDegrees>
              <LongitudeDegrees>-6.3673863373696804046630859375</LongitudeDegrees>
            </Position>
            <AltitudeMeters>283.399993896484375</AltitudeMeters>
            <DistanceMeters>NAN</DistanceMeters>
          </Trackpoint>
          <Trackpoint>
            <Time>2019-10-09T11:00:42.000Z</Time>
            <Position>
              <LatitudeDegrees>38.826554305851459503173828125</LatitudeDegrees>
              <LongitudeDegrees>-6.36742749251425266265869140625</LongitudeDegrees>
            </Position>
            <AltitudeMeters>283.79998779296875</AltitudeMeters>
            <DistanceMeters>NAN</DistanceMeters>
          </Trackpoint>
          <Trackpoint>
            <Time>2019-10-09T11:00:48.000Z</Time>
            <Position>
              <LatitudeDegrees>38.826287090778350830078125</LatitudeDegrees>
              <LongitudeDegrees>-6.3675231300294399261474609375</LongitudeDegrees>
            </Position>
            <AltitudeMeters>283.79998779296875</AltitudeMeters>
            <DistanceMeters>NAN</DistanceMeters>
          </Trackpoint>
          <Trackpoint>
            <Time>2019-10-09T11:00:57.000Z</Time>
            <Position>
              <LatitudeDegrees>38.82583916187286376953125</LatitudeDegrees>
              <LongitudeDegrees>-6.3676904328167438507080078125</LongitudeDegrees>
            </Position>
            <AltitudeMeters>283.399993896484375</AltitudeMeters>
            <DistanceMeters>NAN</DistanceMeters>
          </Trackpoint>
          <Trackpoint>
            <Time>2019-10-09T11:01:01.000Z</Time>
            <Position>
              <LatitudeDegrees>38.825626932084560394287109375</LatitudeDegrees>
              <LongitudeDegrees>-6.36775656603276729583740234375</LongitudeDegrees>
            </Position>
            <AltitudeMeters>283.399993896484375</AltitudeMeters>
            <DistanceMeters>NAN</DistanceMeters>
          </Trackpoint>
          <Trackpoint>
            <Time>2019-10-09T11:01:07.000Z</Time>
            <Position>
              <LatitudeDegrees>38.82530330680310726165771484375</LatitudeDegrees>
              <LongitudeDegrees>-6.36786997318267822265625</LongitudeDegrees>
            </Position>
            <AltitudeMeters>282.79998779296875</AltitudeMeters>
            <DistanceMeters>NAN</DistanceMeters>
          </Trackpoint>
          <Trackpoint>
            <Time>2019-10-09T11:01:08.000Z</Time>
            <Position>
              <LatitudeDegrees>38.82524907588958740234375</LatitudeDegrees>
              <LongitudeDegrees>-6.367889083921909332275390625</LongitudeDegrees>
            </Position>
            <AltitudeMeters>283.399993896484375</AltitudeMeters>
            <DistanceMeters>NAN</DistanceMeters>
          </Trackpoint>
          <Trackpoint>
            <Time>2019-10-09T11:01:14.000Z</Time>
            <Position>
              <LatitudeDegrees>38.824924193322658538818359375</LatitudeDegrees>
              <LongitudeDegrees>-6.3679998926818370819091796875</LongitudeDegrees>
            </Position>
            <AltitudeMeters>283.399993896484375</AltitudeMeters>
            <DistanceMeters>NAN</DistanceMeters>
          </Trackpoint>
          <Trackpoint>
            <Time>2019-10-09T11:01:17.000Z</Time>
            <Position>
              <LatitudeDegrees>38.8247594051063060760498046875</LatitudeDegrees>
              <LongitudeDegrees>-6.368052028119564056396484375</LongitudeDegrees>
            </Position>
            <AltitudeMeters>283.399993896484375</AltitudeMeters>
            <DistanceMeters>NAN</DistanceMeters>
          </Trackpoint>
          <Trackpoint>
            <Time>2019-10-09T11:01:22.000Z</Time>
            <Position>
              <LatitudeDegrees>38.82448934018611907958984375</LatitudeDegrees>
              <LongitudeDegrees>-6.36813484132289886474609375</LongitudeDegrees>
            </Position>
            <AltitudeMeters>283.399993896484375</AltitudeMeters>
            <DistanceMeters>NAN</DistanceMeters>
          </Trackpoint>
          <Trackpoint>
            <Time>2019-10-09T11:01:26.000Z</Time>
            <Position>
              <LatitudeDegrees>38.82426797412335872650146484375</LatitudeDegrees>
              <LongitudeDegrees>-6.36819787323474884033203125</LongitudeDegrees>
            </Position>
            <AltitudeMeters>283.20001220703125</AltitudeMeters>
            <DistanceMeters>NAN</DistanceMeters>
          </Trackpoint>
          <Trackpoint>
            <Time>2019-10-09T11:01:28.000Z</Time>
            <Position>
              <LatitudeDegrees>38.82415683008730411529541015625</LatitudeDegrees>
              <LongitudeDegrees>-6.368225030601024627685546875</LongitudeDegrees>
            </Position>
            <AltitudeMeters>282.79998779296875</AltitudeMeters>
            <DistanceMeters>NAN</DistanceMeters>
          </Trackpoint>
          <Trackpoint>
            <Time>2019-10-09T11:01:37.000Z</Time>
            <Position>
              <LatitudeDegrees>38.823653496801853179931640625</LatitudeDegrees>
              <LongitudeDegrees>-6.3683728873729705810546875</LongitudeDegrees>
            </Position>
            <AltitudeMeters>283</AltitudeMeters>
            <DistanceMeters>NAN</DistanceMeters>
          </Trackpoint>
          <Trackpoint>
            <Time>2019-10-09T11:01:46.000Z</Time>
            <Position>
              <LatitudeDegrees>38.82314815185964107513427734375</LatitudeDegrees>
              <LongitudeDegrees>-6.36851680465042591094970703125</LongitudeDegrees>
            </Position>
            <AltitudeMeters>283.20001220703125</AltitudeMeters>
            <DistanceMeters>NAN</DistanceMeters>
          </Trackpoint>
          <Trackpoint>
            <Time>2019-10-09T11:01:55.000Z</Time>
            <Position>
              <LatitudeDegrees>38.822638280689716339111328125</LatitudeDegrees>
              <LongitudeDegrees>-6.36865728534758090972900390625</LongitudeDegrees>
            </Position>
            <AltitudeMeters>283.20001220703125</AltitudeMeters>
            <DistanceMeters>NAN</DistanceMeters>
          </Trackpoint>
          <Trackpoint>
            <Time>2019-10-09T11:01:56.000Z</Time>
            <Position>
              <LatitudeDegrees>38.82258119992911815643310546875</LatitudeDegrees>
              <LongitudeDegrees>-6.36867337860167026519775390625</LongitudeDegrees>
            </Position>
            <AltitudeMeters>283.399993896484375</AltitudeMeters>
            <DistanceMeters>NAN</DistanceMeters>
          </Trackpoint>
          <Trackpoint>
            <Time>2019-10-09T11:02:05.000Z</Time>
            <Position>
              <LatitudeDegrees>38.8220684789121150970458984375</LatitudeDegrees>
              <LongitudeDegrees>-6.36882056482136249542236328125</LongitudeDegrees>
            </Position>
            <AltitudeMeters>283</AltitudeMeters>
            <DistanceMeters>NAN</DistanceMeters>
          </Trackpoint>
          <Trackpoint>
            <Time>2019-10-09T11:02:06.000Z</Time>
            <Position>
              <LatitudeDegrees>38.8220101408660411834716796875</LatitudeDegrees>
              <LongitudeDegrees>-6.36883481405675411224365234375</LongitudeDegrees>
            </Position>
            <AltitudeMeters>282.79998779296875</AltitudeMeters>
            <DistanceMeters>NAN</DistanceMeters>
          </Trackpoint>
          <Trackpoint>
            <Time>2019-10-09T11:02:15.000Z</Time>
            <Position>
              <LatitudeDegrees>38.821464143693447113037109375</LatitudeDegrees>
              <LongitudeDegrees>-6.3689871132373809814453125</LongitudeDegrees>
            </Position>
            <AltitudeMeters>282.600006103515625</AltitudeMeters>
            <DistanceMeters>NAN</DistanceMeters>
          </Trackpoint>
          <Trackpoint>
            <Time>2019-10-09T11:02:16.000Z</Time>
            <Position>
              <LatitudeDegrees>38.8214032910764217376708984375</LatitudeDegrees>
              <LongitudeDegrees>-6.36900479905307292938232421875</LongitudeDegrees>
            </Position>
            <AltitudeMeters>282.79998779296875</AltitudeMeters>
            <DistanceMeters>NAN</DistanceMeters>
          </Trackpoint>
          <Trackpoint>
            <Time>2019-10-09T11:02:25.000Z</Time>
            <Position>
              <LatitudeDegrees>38.82085368968546390533447265625</LatitudeDegrees>
              <LongitudeDegrees>-6.369149386882781982421875</LongitudeDegrees>
            </Position>
            <AltitudeMeters>282.600006103515625</AltitudeMeters>
            <DistanceMeters>NAN</DistanceMeters>
          </Trackpoint>
          <Trackpoint>
            <Time>2019-10-09T11:02:29.000Z</Time>
            <Position>
              <LatitudeDegrees>38.82060776464641094207763671875</LatitudeDegrees>
              <LongitudeDegrees>-6.36921577155590057373046875</LongitudeDegrees>
            </Position>
            <AltitudeMeters>282.20001220703125</AltitudeMeters>
            <DistanceMeters>NAN</DistanceMeters>
          </Trackpoint>
          <Trackpoint>
            <Time>2019-10-09T11:02:38.000Z</Time>
            <Position>
              <LatitudeDegrees>38.8200474344193935394287109375</LatitudeDegrees>
              <LongitudeDegrees>-6.36937268078327178955078125</LongitudeDegrees>
            </Position>
            <AltitudeMeters>283</AltitudeMeters>
            <DistanceMeters>NAN</DistanceMeters>
          </Trackpoint>
          <Trackpoint>
            <Time>2019-10-09T11:02:46.000Z</Time>
            <Position>
              <LatitudeDegrees>38.81953806616365909576416015625</LatitudeDegrees>
              <LongitudeDegrees>-6.36950838379561901092529296875</LongitudeDegrees>
            </Position>
            <AltitudeMeters>281.79998779296875</AltitudeMeters>
            <DistanceMeters>NAN</DistanceMeters>
          </Trackpoint>
          <Trackpoint>
            <Time>2019-10-09T11:02:55.000Z</Time>
            <Position>
              <LatitudeDegrees>38.81896474398672580718994140625</LatitudeDegrees>
              <LongitudeDegrees>-6.36966998688876628875732421875</LongitudeDegrees>
            </Position>
            <AltitudeMeters>281.399993896484375</AltitudeMeters>
            <DistanceMeters>NAN</DistanceMeters>
          </Trackpoint>
          <Trackpoint>
            <Time>2019-10-09T11:02:56.000Z</Time>
            <Position>
              <LatitudeDegrees>38.81889919750392436981201171875</LatitudeDegrees>
              <LongitudeDegrees>-6.36968842707574367523193359375</LongitudeDegrees>
            </Position>
            <AltitudeMeters>281.20001220703125</AltitudeMeters>
            <DistanceMeters>NAN</DistanceMeters>
          </Trackpoint>
          <Trackpoint>
            <Time>2019-10-09T11:03:01.000Z</Time>
            <Position>
              <LatitudeDegrees>38.81857951171696186065673828125</LatitudeDegrees>
              <LongitudeDegrees>-6.3697741739451885223388671875</LongitudeDegrees>
            </Position>
            <AltitudeMeters>280.600006103515625</AltitudeMeters>
            <DistanceMeters>NAN</DistanceMeters>
          </Trackpoint>
          <Trackpoint>
            <Time>2019-10-09T11:03:05.000Z</Time>
            <Position>
              <LatitudeDegrees>38.8183222711086273193359375</LatitudeDegrees>
              <LongitudeDegrees>-6.36985120363533496856689453125</LongitudeDegrees>
            </Position>
            <AltitudeMeters>281</AltitudeMeters>
            <DistanceMeters>NAN</DistanceMeters>
          </Trackpoint>
          <Trackpoint>
            <Time>2019-10-09T11:03:13.000Z</Time>
            <Position>
              <LatitudeDegrees>38.817805610597133636474609375</LatitudeDegrees>
              <LongitudeDegrees>-6.37001330964267253875732421875</LongitudeDegrees>
            </Position>
            <AltitudeMeters>279.600006103515625</AltitudeMeters>
            <DistanceMeters>NAN</DistanceMeters>
          </Trackpoint>
          <Trackpoint>
            <Time>2019-10-09T11:03:15.000Z</Time>
            <Position>
              <LatitudeDegrees>38.8176773674786090850830078125</LatitudeDegrees>
              <LongitudeDegrees>-6.37005622498691082000732421875</LongitudeDegrees>
            </Position>
            <AltitudeMeters>279.600006103515625</AltitudeMeters>
            <DistanceMeters>NAN</DistanceMeters>
          </Trackpoint>
          <Trackpoint>
            <Time>2019-10-09T11:03:19.000Z</Time>
            <Position>
              <LatitudeDegrees>38.81742213852703571319580078125</LatitudeDegrees>
              <LongitudeDegrees>-6.37014649808406829833984375</LongitudeDegrees>
            </Position>
            <AltitudeMeters>279.399993896484375</AltitudeMeters>
            <DistanceMeters>NAN</DistanceMeters>
          </Trackpoint>
          <Trackpoint>
            <Time>2019-10-09T11:03:27.000Z</Time>
            <Position>
              <LatitudeDegrees>38.81691620685160160064697265625</LatitudeDegrees>
              <LongitudeDegrees>-6.3703330792486667633056640625</LongitudeDegrees>
            </Position>
            <AltitudeMeters>279.20001220703125</AltitudeMeters>
            <DistanceMeters>NAN</DistanceMeters>
          </Trackpoint>
          <Trackpoint>
            <Time>2019-10-09T11:03:28.000Z</Time>
            <Position>
              <LatitudeDegrees>38.81685418076813220977783203125</LatitudeDegrees>
              <LongitudeDegrees>-6.37035529129207134246826171875</LongitudeDegrees>
            </Position>
            <AltitudeMeters>279.20001220703125</AltitudeMeters>
            <DistanceMeters>NAN</DistanceMeters>
          </Trackpoint>
          <Trackpoint>
            <Time>2019-10-09T11:03:36.000Z</Time>
            <Position>
              <LatitudeDegrees>38.8163493387401103973388671875</LatitudeDegrees>
              <LongitudeDegrees>-6.37054438702762126922607421875</LongitudeDegrees>
            </Position>
            <AltitudeMeters>278</AltitudeMeters>
            <DistanceMeters>NAN</DistanceMeters>
          </Trackpoint>
          <Trackpoint>
            <Time>2019-10-09T11:03:38.000Z</Time>
            <Position>
              <LatitudeDegrees>38.81622553803026676177978515625</LatitudeDegrees>
              <LongitudeDegrees>-6.37059048749506473541259765625</LongitudeDegrees>
            </Position>
            <AltitudeMeters>278.20001220703125</AltitudeMeters>
            <DistanceMeters>NAN</DistanceMeters>
          </Trackpoint>
          <Trackpoint>
            <Time>2019-10-09T11:03:47.000Z</Time>
            <Position>
              <LatitudeDegrees>38.8156630285084247589111328125</LatitudeDegrees>
              <LongitudeDegrees>-6.3707887195050716400146484375</LongitudeDegrees>
            </Position>
            <AltitudeMeters>277.20001220703125</AltitudeMeters>
            <DistanceMeters>NAN</DistanceMeters>
          </Trackpoint>
          <Trackpoint>
            <Time>2019-10-09T11:03:48.000Z</Time>
            <Position>
              <LatitudeDegrees>38.815598823130130767822265625</LatitudeDegrees>
              <LongitudeDegrees>-6.37081034481525421142578125</LongitudeDegrees>
            </Position>
            <AltitudeMeters>277</AltitudeMeters>
            <DistanceMeters>NAN</DistanceMeters>
          </Trackpoint>
          <Trackpoint>
            <Time>2019-10-09T11:03:56.000Z</Time>
            <Position>
              <LatitudeDegrees>38.81507537327706813812255859375</LatitudeDegrees>
              <LongitudeDegrees>-6.37098209001123905181884765625</LongitudeDegrees>
            </Position>
            <AltitudeMeters>276.79998779296875</AltitudeMeters>
            <DistanceMeters>NAN</DistanceMeters>
          </Trackpoint>
          <Trackpoint>
            <Time>2019-10-09T11:03:57.000Z</Time>
            <Position>
              <LatitudeDegrees>38.815008737146854400634765625</LatitudeDegrees>
              <LongitudeDegrees>-6.371003128588199615478515625</LongitudeDegrees>
            </Position>
            <AltitudeMeters>276.600006103515625</AltitudeMeters>
            <DistanceMeters>NAN</DistanceMeters>
          </Trackpoint>
          <Trackpoint>
            <Time>2019-10-09T11:04:01.000Z</Time>
            <Position>
              <LatitudeDegrees>38.81472316570580005645751953125</LatitudeDegrees>
              <LongitudeDegrees>-6.371085606515407562255859375</LongitudeDegrees>
            </Position>
            <AltitudeMeters>275.600006103515625</AltitudeMeters>
            <DistanceMeters>NAN</DistanceMeters>
          </Trackpoint>
          <Trackpoint>
            <Time>2019-10-09T11:04:04.000Z</Time>
            <Position>
              <LatitudeDegrees>38.8145039789378643035888671875</LatitudeDegrees>
              <LongitudeDegrees>-6.37117437086999416351318359375</LongitudeDegrees>
            </Position>
            <AltitudeMeters>275</AltitudeMeters>
            <DistanceMeters>NAN</DistanceMeters>
          </Trackpoint>
          <Trackpoint>
            <Time>2019-10-09T11:04:05.000Z</Time>
            <Position>
              <LatitudeDegrees>38.81443013437092304229736328125</LatitudeDegrees>
              <LongitudeDegrees>-6.37120471335947513580322265625</LongitudeDegrees>
            </Position>
            <AltitudeMeters>274.600006103515625</AltitudeMeters>
            <DistanceMeters>NAN</DistanceMeters>
          </Trackpoint>
          <Trackpoint>
            <Time>2019-10-09T11:04:09.000Z</Time>
            <Position>
              <LatitudeDegrees>38.81413592956960201263427734375</LatitudeDegrees>
              <LongitudeDegrees>-6.371338404715061187744140625</LongitudeDegrees>
            </Position>
            <AltitudeMeters>274</AltitudeMeters>
            <DistanceMeters>NAN</DistanceMeters>
          </Trackpoint>
          <Trackpoint>
            <Time>2019-10-09T11:04:10.000Z</Time>
            <Position>
              <LatitudeDegrees>38.81406350992619991302490234375</LatitudeDegrees>
              <LongitudeDegrees>-6.371380984783172607421875</LongitudeDegrees>
            </Position>
            <AltitudeMeters>273.399993896484375</AltitudeMeters>
            <DistanceMeters>NAN</DistanceMeters>
          </Trackpoint>
          <Trackpoint>
            <Time>2019-10-09T11:04:11.000Z</Time>
            <Position>
              <LatitudeDegrees>38.81398849189281463623046875</LatitudeDegrees>
              <LongitudeDegrees>-6.37141828425228595733642578125</LongitudeDegrees>
            </Position>
            <AltitudeMeters>273</AltitudeMeters>
            <DistanceMeters>NAN</DistanceMeters>
          </Trackpoint>
          <Trackpoint>
            <Time>2019-10-09T11:04:13.000Z</Time>
            <Position>
              <LatitudeDegrees>38.81383158266544342041015625</LatitudeDegrees>
              <LongitudeDegrees>-6.37147410772740840911865234375</LongitudeDegrees>
            </Position>
            <AltitudeMeters>272.20001220703125</AltitudeMeters>
            <DistanceMeters>NAN</DistanceMeters>
          </Trackpoint>
          <Trackpoint>
            <Time>2019-10-09T11:04:17.000Z</Time>
            <Position>
              <LatitudeDegrees>38.81351617164909839630126953125</LatitudeDegrees>
              <LongitudeDegrees>-6.37158491648733615875244140625</LongitudeDegrees>
            </Position>
            <AltitudeMeters>271.20001220703125</AltitudeMeters>
            <DistanceMeters>NAN</DistanceMeters>
          </Trackpoint>
          <Trackpoint>
            <Time>2019-10-09T11:04:19.000Z</Time>
            <Position>
              <LatitudeDegrees>38.8133536465466022491455078125</LatitudeDegrees>
              <LongitudeDegrees>-6.37163939885795116424560546875</LongitudeDegrees>
            </Position>
            <AltitudeMeters>270</AltitudeMeters>
            <DistanceMeters>NAN</DistanceMeters>
          </Trackpoint>
          <Trackpoint>
            <Time>2019-10-09T11:04:22.000Z</Time>
            <Position>
              <LatitudeDegrees>38.81310797296464443206787109375</LatitudeDegrees>
              <LongitudeDegrees>-6.371685750782489776611328125</LongitudeDegrees>
            </Position>
            <AltitudeMeters>269</AltitudeMeters>
            <DistanceMeters>NAN</DistanceMeters>
          </Trackpoint>
          <Trackpoint>
            <Time>2019-10-09T11:04:27.000Z</Time>
            <Position>
              <LatitudeDegrees>38.8127172924578189849853515625</LatitudeDegrees>
              <LongitudeDegrees>-6.371755488216876983642578125</LongitudeDegrees>
            </Position>
            <AltitudeMeters>269</AltitudeMeters>
            <DistanceMeters>NAN</DistanceMeters>
          </Trackpoint>
          <Trackpoint>
            <Time>2019-10-09T11:04:29.000Z</Time>
            <Position>
              <LatitudeDegrees>38.81257320754230022430419921875</LatitudeDegrees>
              <LongitudeDegrees>-6.3718009181320667266845703125</LongitudeDegrees>
            </Position>
            <AltitudeMeters>269</AltitudeMeters>
            <DistanceMeters>NAN</DistanceMeters>
          </Trackpoint>
          <Trackpoint>
            <Time>2019-10-09T11:04:36.000Z</Time>
            <Position>
              <LatitudeDegrees>38.81209778599441051483154296875</LatitudeDegrees>
              <LongitudeDegrees>-6.3719712384045124053955078125</LongitudeDegrees>
            </Position>
            <AltitudeMeters>269.79998779296875</AltitudeMeters>
            <DistanceMeters>NAN</DistanceMeters>
          </Trackpoint>
          <Trackpoint>
            <Time>2019-10-09T11:04:39.000Z</Time>
            <Position>
              <LatitudeDegrees>38.81189636886119842529296875</LatitudeDegrees>
              <LongitudeDegrees>-6.3720436580479145050048828125</LongitudeDegrees>
            </Position>
            <AltitudeMeters>269.600006103515625</AltitudeMeters>
            <DistanceMeters>NAN</DistanceMeters>
          </Trackpoint>
          <Trackpoint>
            <Time>2019-10-09T11:04:47.000Z</Time>
            <Position>
              <LatitudeDegrees>38.8114040158689022064208984375</LatitudeDegrees>
              <LongitudeDegrees>-6.372232921421527862548828125</LongitudeDegrees>
            </Position>
            <AltitudeMeters>269.600006103515625</AltitudeMeters>
            <DistanceMeters>NAN</DistanceMeters>
          </Trackpoint>
          <Trackpoint>
            <Time>2019-10-09T11:04:49.000Z</Time>
            <Position>
              <LatitudeDegrees>38.8112920336425304412841796875</LatitudeDegrees>
              <LongitudeDegrees>-6.3722793571650981903076171875</LongitudeDegrees>
            </Position>
            <AltitudeMeters>270.399993896484375</AltitudeMeters>
            <DistanceMeters>NAN</DistanceMeters>
          </Trackpoint>
          <Trackpoint>
            <Time>2019-10-09T11:04:56.000Z</Time>
            <Position>
              <LatitudeDegrees>38.81092029623687267303466796875</LatitudeDegrees>
              <LongitudeDegrees>-6.372413299977779388427734375</LongitudeDegrees>
            </Position>
            <AltitudeMeters>270.79998779296875</AltitudeMeters>
            <DistanceMeters>NAN</DistanceMeters>
          </Trackpoint>
          <Trackpoint>
            <Time>2019-10-09T11:04:59.000Z</Time>
            <Position>
              <LatitudeDegrees>38.81077797152101993560791015625</LatitudeDegrees>
              <LongitudeDegrees>-6.37246384285390377044677734375</LongitudeDegrees>
            </Position>
            <AltitudeMeters>271.399993896484375</AltitudeMeters>
            <DistanceMeters>NAN</DistanceMeters>
          </Trackpoint>
          <Trackpoint>
            <Time>2019-10-09T11:05:05.000Z</Time>
            <Position>
              <LatitudeDegrees>38.81050539202988147735595703125</LatitudeDegrees>
              <LongitudeDegrees>-6.37257498688995838165283203125</LongitudeDegrees>
            </Position>
            <AltitudeMeters>272.20001220703125</AltitudeMeters>
            <DistanceMeters>NAN</DistanceMeters>
          </Trackpoint>
          <Trackpoint>
            <Time>2019-10-09T11:05:06.000Z</Time>
            <Position>
              <LatitudeDegrees>38.81046012975275516510009765625</LatitudeDegrees>
              <LongitudeDegrees>-6.37259141542017459869384765625</LongitudeDegrees>
            </Position>
            <AltitudeMeters>272.399993896484375</AltitudeMeters>
            <DistanceMeters>NAN</DistanceMeters>
          </Trackpoint>
          <Trackpoint>
            <Time>2019-10-09T11:05:11.000Z</Time>
            <Position>
              <LatitudeDegrees>38.81023113615810871124267578125</LatitudeDegrees>
              <LongitudeDegrees>-6.37266048230230808258056640625</LongitudeDegrees>
            </Position>
            <AltitudeMeters>272.600006103515625</AltitudeMeters>
            <DistanceMeters>NAN</DistanceMeters>
          </Trackpoint>
          <Trackpoint>
            <Time>2019-10-09T11:05:12.000Z</Time>
            <Position>
              <LatitudeDegrees>38.810188807547092437744140625</LatitudeDegrees>
              <LongitudeDegrees>-6.3726726360619068145751953125</LongitudeDegrees>
            </Position>
            <AltitudeMeters>272.79998779296875</AltitudeMeters>
            <DistanceMeters>NAN</DistanceMeters>
          </Trackpoint>
          <Trackpoint>
            <Time>2019-10-09T11:05:17.000Z</Time>
            <Position>
              <LatitudeDegrees>38.809968195855617523193359375</LatitudeDegrees>
              <LongitudeDegrees>-6.37274949811398983001708984375</LongitudeDegrees>
            </Position>
            <AltitudeMeters>273.600006103515625</AltitudeMeters>
            <DistanceMeters>NAN</DistanceMeters>
          </Trackpoint>
          <Trackpoint>
            <Time>2019-10-09T11:05:23.000Z</Time>
            <Position>
              <LatitudeDegrees>38.809703327715396881103515625</LatitudeDegrees>
              <LongitudeDegrees>-6.37283767573535442352294921875</LongitudeDegrees>
            </Position>
            <AltitudeMeters>273.79998779296875</AltitudeMeters>
            <DistanceMeters>NAN</DistanceMeters>
          </Trackpoint>
          <Trackpoint>
            <Time>2019-10-09T11:05:33.000Z</Time>
            <Position>
              <LatitudeDegrees>38.8092609308660030364990234375</LatitudeDegrees>
              <LongitudeDegrees>-6.372979246079921722412109375</LongitudeDegrees>
            </Position>
            <AltitudeMeters>273.600006103515625</AltitudeMeters>
            <DistanceMeters>NAN</DistanceMeters>
          </Trackpoint>
          <Trackpoint>
            <Time>2019-10-09T11:05:42.000Z</Time>
            <Position>
              <LatitudeDegrees>38.80886388011276721954345703125</LatitudeDegrees>
              <LongitudeDegrees>-6.37312316335737705230712890625</LongitudeDegrees>
            </Position>
            <AltitudeMeters>274.600006103515625</AltitudeMeters>
            <DistanceMeters>NAN</DistanceMeters>
          </Trackpoint>
          <Trackpoint>
            <Time>2019-10-09T11:05:47.000Z</Time>
            <Position>
              <LatitudeDegrees>38.80864108912646770477294921875</LatitudeDegrees>
              <LongitudeDegrees>-6.3732020370662212371826171875</LongitudeDegrees>
            </Position>
            <AltitudeMeters>274.79998779296875</AltitudeMeters>
            <DistanceMeters>NAN</DistanceMeters>
          </Trackpoint>
          <Trackpoint>
            <Time>2019-10-09T11:05:53.000Z</Time>
            <Position>
              <LatitudeDegrees>38.80837270058691501617431640625</LatitudeDegrees>
              <LongitudeDegrees>-6.37329482473433017730712890625</LongitudeDegrees>
            </Position>
            <AltitudeMeters>275</AltitudeMeters>
            <DistanceMeters>NAN</DistanceMeters>
          </Trackpoint>
          <Trackpoint>
            <Time>2019-10-09T11:06:02.000Z</Time>
            <Position>
              <LatitudeDegrees>38.80796299315989017486572265625</LatitudeDegrees>
              <LongitudeDegrees>-6.3734477944672107696533203125</LongitudeDegrees>
            </Position>
            <AltitudeMeters>275</AltitudeMeters>
            <DistanceMeters>NAN</DistanceMeters>
          </Trackpoint>
          <Trackpoint>
            <Time>2019-10-09T11:06:13.000Z</Time>
            <Position>
              <LatitudeDegrees>38.80746762268245220184326171875</LatitudeDegrees>
              <LongitudeDegrees>-6.3736332021653652191162109375</LongitudeDegrees>
            </Position>
            <AltitudeMeters>276</AltitudeMeters>
            <DistanceMeters>NAN</DistanceMeters>
          </Trackpoint>
          <Trackpoint>
            <Time>2019-10-09T11:06:14.000Z</Time>
            <Position>
              <LatitudeDegrees>38.80742168985307216644287109375</LatitudeDegrees>
              <LongitudeDegrees>-6.373649127781391143798828125</LongitudeDegrees>
            </Position>
            <AltitudeMeters>276</AltitudeMeters>
            <DistanceMeters>NAN</DistanceMeters>
          </Trackpoint>
          <Trackpoint>
            <Time>2019-10-09T11:06:25.000Z</Time>
            <Position>
              <LatitudeDegrees>38.80692296661436557769775390625</LatitudeDegrees>
              <LongitudeDegrees>-6.3738269917666912078857421875</LongitudeDegrees>
            </Position>
            <AltitudeMeters>276.79998779296875</AltitudeMeters>
            <DistanceMeters>NAN</DistanceMeters>
          </Trackpoint>
          <Trackpoint>
            <Time>2019-10-09T11:06:27.000Z</Time>
            <Position>
              <LatitudeDegrees>38.80683361552655696868896484375</LatitudeDegrees>
              <LongitudeDegrees>-6.37385867536067962646484375</LongitudeDegrees>
            </Position>
            <AltitudeMeters>277</AltitudeMeters>
            <DistanceMeters>NAN</DistanceMeters>
          </Trackpoint>
          <Trackpoint>
            <Time>2019-10-09T11:06:36.000Z</Time>
            <Position>
              <LatitudeDegrees>38.806433379650115966796875</LatitudeDegrees>
              <LongitudeDegrees>-6.3740108907222747802734375</LongitudeDegrees>
            </Position>
            <AltitudeMeters>277.20001220703125</AltitudeMeters>
            <DistanceMeters>NAN</DistanceMeters>
          </Trackpoint>
          <Trackpoint>
            <Time>2019-10-09T11:06:41.000Z</Time>
            <Position>
              <LatitudeDegrees>38.80621318705379962921142578125</LatitudeDegrees>
              <LongitudeDegrees>-6.37409269809722900390625</LongitudeDegrees>
            </Position>
            <AltitudeMeters>278.20001220703125</AltitudeMeters>
            <DistanceMeters>NAN</DistanceMeters>
          </Trackpoint>
          <Trackpoint>
            <Time>2019-10-09T11:06:45.000Z</Time>
            <Position>
              <LatitudeDegrees>38.80603976547718048095703125</LatitudeDegrees>
              <LongitudeDegrees>-6.37415799312293529510498046875</LongitudeDegrees>
            </Position>
            <AltitudeMeters>278.399993896484375</AltitudeMeters>
            <DistanceMeters>NAN</DistanceMeters>
          </Trackpoint>
          <Trackpoint>
            <Time>2019-10-09T11:06:51.000Z</Time>
            <Position>
              <LatitudeDegrees>38.80578336305916309356689453125</LatitudeDegrees>
              <LongitudeDegrees>-6.3742568157613277435302734375</LongitudeDegrees>
            </Position>
            <AltitudeMeters>279</AltitudeMeters>
            <DistanceMeters>NAN</DistanceMeters>
          </Trackpoint>
          <Trackpoint>
            <Time>2019-10-09T11:06:53.000Z</Time>
            <Position>
              <LatitudeDegrees>38.80569518543779850006103515625</LatitudeDegrees>
              <LongitudeDegrees>-6.37428581714630126953125</LongitudeDegrees>
            </Position>
            <AltitudeMeters>279.399993896484375</AltitudeMeters>
            <DistanceMeters>NAN</DistanceMeters>
          </Trackpoint>
          <Trackpoint>
            <Time>2019-10-09T11:07:02.000Z</Time>
            <Position>
              <LatitudeDegrees>38.805301487445831298828125</LatitudeDegrees>
              <LongitudeDegrees>-6.37444716878235340118408203125</LongitudeDegrees>
            </Position>
            <AltitudeMeters>280.20001220703125</AltitudeMeters>
            <DistanceMeters>NAN</DistanceMeters>
          </Trackpoint>
          <Trackpoint>
            <Time>2019-10-09T11:07:03.000Z</Time>
            <Position>
              <LatitudeDegrees>38.8052590750157833099365234375</LatitudeDegrees>
              <LongitudeDegrees>-6.37447030283510684967041015625</LongitudeDegrees>
            </Position>
            <AltitudeMeters>280.399993896484375</AltitudeMeters>
            <DistanceMeters>NAN</DistanceMeters>
          </Trackpoint>
          <Trackpoint>
            <Time>2019-10-09T11:07:06.000Z</Time>
            <Position>
              <LatitudeDegrees>38.80513259209692478179931640625</LatitudeDegrees>
              <LongitudeDegrees>-6.37454154901206493377685546875</LongitudeDegrees>
            </Position>
            <AltitudeMeters>280.399993896484375</AltitudeMeters>
            <DistanceMeters>NAN</DistanceMeters>
          </Trackpoint>
          <Trackpoint>
            <Time>2019-10-09T11:07:08.000Z</Time>
            <Position>
              <LatitudeDegrees>38.80504198372364044189453125</LatitudeDegrees>
              <LongitudeDegrees>-6.3745696283876895904541015625</LongitudeDegrees>
            </Position>
            <AltitudeMeters>280.79998779296875</AltitudeMeters>
            <DistanceMeters>NAN</DistanceMeters>
          </Trackpoint>
          <Trackpoint>
            <Time>2019-10-09T11:07:18.000Z</Time>
            <Position>
              <LatitudeDegrees>38.804596401751041412353515625</LatitudeDegrees>
              <LongitudeDegrees>-6.37471807189285755157470703125</LongitudeDegrees>
            </Position>
            <AltitudeMeters>281.399993896484375</AltitudeMeters>
            <DistanceMeters>NAN</DistanceMeters>
          </Trackpoint>
          <Trackpoint>
            <Time>2019-10-09T11:07:23.000Z</Time>
            <Position>
              <LatitudeDegrees>38.80437905900180339813232421875</LatitudeDegrees>
              <LongitudeDegrees>-6.37478864751756191253662109375</LongitudeDegrees>
            </Position>
            <AltitudeMeters>281.600006103515625</AltitudeMeters>
            <DistanceMeters>NAN</DistanceMeters>
          </Trackpoint>
          <Trackpoint>
            <Time>2019-10-09T11:07:26.000Z</Time>
            <Position>
              <LatitudeDegrees>38.80424679256975650787353515625</LatitudeDegrees>
              <LongitudeDegrees>-6.37483022175729274749755859375</LongitudeDegrees>
            </Position>
            <AltitudeMeters>282.399993896484375</AltitudeMeters>
            <DistanceMeters>NAN</DistanceMeters>
          </Trackpoint>
          <Trackpoint>
            <Time>2019-10-09T11:07:32.000Z</Time>
            <Position>
              <LatitudeDegrees>38.80398058332502841949462890625</LatitudeDegrees>
              <LongitudeDegrees>-6.37491890229284763336181640625</LongitudeDegrees>
            </Position>
            <AltitudeMeters>282.20001220703125</AltitudeMeters>
            <DistanceMeters>NAN</DistanceMeters>
          </Trackpoint>
          <Trackpoint>
            <Time>2019-10-09T11:07:41.000Z</Time>
            <Position>
              <LatitudeDegrees>38.8035719655454158782958984375</LatitudeDegrees>
              <LongitudeDegrees>-6.3750463910400867462158203125</LongitudeDegrees>
            </Position>
            <AltitudeMeters>283.600006103515625</AltitudeMeters>
            <DistanceMeters>NAN</DistanceMeters>
          </Trackpoint>
          <Trackpoint>
            <Time>2019-10-09T11:07:46.000Z</Time>
            <Position>
              <LatitudeDegrees>38.80335059948265552520751953125</LatitudeDegrees>
              <LongitudeDegrees>-6.3751074112951755523681640625</LongitudeDegrees>
            </Position>
            <AltitudeMeters>284.399993896484375</AltitudeMeters>
            <DistanceMeters>NAN</DistanceMeters>
          </Trackpoint>
          <Trackpoint>
            <Time>2019-10-09T11:07:52.000Z</Time>
            <Position>
              <LatitudeDegrees>38.80309076048433780670166015625</LatitudeDegrees>
              <LongitudeDegrees>-6.37519366107881069183349609375</LongitudeDegrees>
            </Position>
            <AltitudeMeters>284.600006103515625</AltitudeMeters>
            <DistanceMeters>NAN</DistanceMeters>
          </Trackpoint>
          <Trackpoint>
            <Time>2019-10-09T11:07:59.000Z</Time>
            <Position>
              <LatitudeDegrees>38.80278163589537143707275390625</LatitudeDegrees>
              <LongitudeDegrees>-6.375293321907520294189453125</LongitudeDegrees>
            </Position>
            <AltitudeMeters>285.20001220703125</AltitudeMeters>
            <DistanceMeters>NAN</DistanceMeters>
          </Trackpoint>
          <Trackpoint>
            <Time>2019-10-09T11:08:01.000Z</Time>
            <Position>
              <LatitudeDegrees>38.80269245244562625885009765625</LatitudeDegrees>
              <LongitudeDegrees>-6.37532542459666728973388671875</LongitudeDegrees>
            </Position>
            <AltitudeMeters>285.600006103515625</AltitudeMeters>
            <DistanceMeters>NAN</DistanceMeters>
          </Trackpoint>
          <Trackpoint>
            <Time>2019-10-09T11:08:08.000Z</Time>
            <Position>
              <LatitudeDegrees>38.802389614284038543701171875</LatitudeDegrees>
              <LongitudeDegrees>-6.375430785119533538818359375</LongitudeDegrees>
            </Position>
            <AltitudeMeters>286.600006103515625</AltitudeMeters>
            <DistanceMeters>NAN</DistanceMeters>
          </Trackpoint>
          <Trackpoint>
            <Time>2019-10-09T11:08:12.000Z</Time>
            <Position>
              <LatitudeDegrees>38.80221753381192684173583984375</LatitudeDegrees>
              <LongitudeDegrees>-6.3754943199455738067626953125</LongitudeDegrees>
            </Position>
            <AltitudeMeters>286.79998779296875</AltitudeMeters>
            <DistanceMeters>NAN</DistanceMeters>
          </Trackpoint>
          <Trackpoint>
            <Time>2019-10-09T11:08:17.000Z</Time>
            <Position>
              <LatitudeDegrees>38.8020048849284648895263671875</LatitudeDegrees>
              <LongitudeDegrees>-6.37557520531117916107177734375</LongitudeDegrees>
            </Position>
            <AltitudeMeters>287.79998779296875</AltitudeMeters>
            <DistanceMeters>NAN</DistanceMeters>
          </Trackpoint>
          <Trackpoint>
            <Time>2019-10-09T11:08:27.000Z</Time>
            <Position>
              <LatitudeDegrees>38.801568858325481414794921875</LatitudeDegrees>
              <LongitudeDegrees>-6.375746615231037139892578125</LongitudeDegrees>
            </Position>
            <AltitudeMeters>288</AltitudeMeters>
            <DistanceMeters>NAN</DistanceMeters>
          </Trackpoint>
          <Trackpoint>
            <Time>2019-10-09T11:08:34.000Z</Time>
            <Position>
              <LatitudeDegrees>38.80124556832015514373779296875</LatitudeDegrees>
              <LongitudeDegrees>-6.375882066786289215087890625</LongitudeDegrees>
            </Position>
            <AltitudeMeters>287.600006103515625</AltitudeMeters>
            <DistanceMeters>NAN</DistanceMeters>
          </Trackpoint>
          <Trackpoint>
            <Time>2019-10-09T11:08:42.000Z</Time>
            <Position>
              <LatitudeDegrees>38.80082865245640277862548828125</LatitudeDegrees>
              <LongitudeDegrees>-6.37606286443769931793212890625</LongitudeDegrees>
            </Position>
            <AltitudeMeters>287.79998779296875</AltitudeMeters>
            <DistanceMeters>NAN</DistanceMeters>
          </Trackpoint>
          <Trackpoint>
            <Time>2019-10-09T11:08:52.000Z</Time>
            <Position>
              <LatitudeDegrees>38.8002870976924896240234375</LatitudeDegrees>
              <LongitudeDegrees>-6.3762862421572208404541015625</LongitudeDegrees>
            </Position>
            <AltitudeMeters>287.20001220703125</AltitudeMeters>
            <DistanceMeters>NAN</DistanceMeters>
          </Trackpoint>
          <Trackpoint>
            <Time>2019-10-09T11:08:56.000Z</Time>
            <Position>
              <LatitudeDegrees>38.8000757060945034027099609375</LatitudeDegrees>
              <LongitudeDegrees>-6.37637416832149028778076171875</LongitudeDegrees>
            </Position>
            <AltitudeMeters>286.600006103515625</AltitudeMeters>
            <DistanceMeters>NAN</DistanceMeters>
          </Trackpoint>
          <Trackpoint>
            <Time>2019-10-09T11:09:06.000Z</Time>
            <Position>
              <LatitudeDegrees>38.79953431896865367889404296875</LatitudeDegrees>
              <LongitudeDegrees>-6.37658824212849140167236328125</LongitudeDegrees>
            </Position>
            <AltitudeMeters>286.600006103515625</AltitudeMeters>
            <DistanceMeters>NAN</DistanceMeters>
          </Trackpoint>
          <Trackpoint>
            <Time>2019-10-09T11:09:08.000Z</Time>
            <Position>
              <LatitudeDegrees>38.79942946135997772216796875</LatitudeDegrees>
              <LongitudeDegrees>-6.37663098983466625213623046875</LongitudeDegrees>
            </Position>
            <AltitudeMeters>286.79998779296875</AltitudeMeters>
            <DistanceMeters>NAN</DistanceMeters>
          </Trackpoint>
          <Trackpoint>
            <Time>2019-10-09T11:09:13.000Z</Time>
            <Position>
              <LatitudeDegrees>38.79915394820272922515869140625</LatitudeDegrees>
              <LongitudeDegrees>-6.37672369368374347686767578125</LongitudeDegrees>
            </Position>
            <AltitudeMeters>286.79998779296875</AltitudeMeters>
            <DistanceMeters>NAN</DistanceMeters>
          </Trackpoint>
          <Trackpoint>
            <Time>2019-10-09T11:09:17.000Z</Time>
            <Position>
              <LatitudeDegrees>38.79893417470157146453857421875</LatitudeDegrees>
              <LongitudeDegrees>-6.3767891563475131988525390625</LongitudeDegrees>
            </Position>
            <AltitudeMeters>287.20001220703125</AltitudeMeters>
            <DistanceMeters>NAN</DistanceMeters>
          </Trackpoint>
          <Trackpoint>
            <Time>2019-10-09T11:09:27.000Z</Time>
            <Position>
              <LatitudeDegrees>38.79838834516704082489013671875</LatitudeDegrees>
              <LongitudeDegrees>-6.37695394456386566162109375</LongitudeDegrees>
            </Position>
            <AltitudeMeters>287.399993896484375</AltitudeMeters>
            <DistanceMeters>NAN</DistanceMeters>
          </Trackpoint>
          <Trackpoint>
            <Time>2019-10-09T11:09:30.000Z</Time>
            <Position>
              <LatitudeDegrees>38.7982155941426753997802734375</LatitudeDegrees>
              <LongitudeDegrees>-6.376997865736484527587890625</LongitudeDegrees>
            </Position>
            <AltitudeMeters>286.600006103515625</AltitudeMeters>
            <DistanceMeters>NAN</DistanceMeters>
          </Trackpoint>
          <Trackpoint>
            <Time>2019-10-09T11:09:37.000Z</Time>
            <Position>
              <LatitudeDegrees>38.79777990281581878662109375</LatitudeDegrees>
              <LongitudeDegrees>-6.37710414826869964599609375</LongitudeDegrees>
            </Position>
            <AltitudeMeters>285.399993896484375</AltitudeMeters>
            <DistanceMeters>NAN</DistanceMeters>
          </Trackpoint>
          <Trackpoint>
            <Time>2019-10-09T11:09:38.000Z</Time>
            <Position>
              <LatitudeDegrees>38.79771293140947818756103515625</LatitudeDegrees>
              <LongitudeDegrees>-6.37711864896118640899658203125</LongitudeDegrees>
            </Position>
            <AltitudeMeters>285.20001220703125</AltitudeMeters>
            <DistanceMeters>NAN</DistanceMeters>
          </Trackpoint>
          <Trackpoint>
            <Time>2019-10-09T11:09:45.000Z</Time>
            <Position>
              <LatitudeDegrees>38.79724421538412570953369140625</LatitudeDegrees>
              <LongitudeDegrees>-6.3772099278867244720458984375</LongitudeDegrees>
            </Position>
            <AltitudeMeters>284.20001220703125</AltitudeMeters>
            <DistanceMeters>NAN</DistanceMeters>
          </Trackpoint>
          <Trackpoint>
            <Time>2019-10-09T11:09:51.000Z</Time>
            <Position>
              <LatitudeDegrees>38.7968215160071849822998046875</LatitudeDegrees>
              <LongitudeDegrees>-6.37727715075016021728515625</LongitudeDegrees>
            </Position>
            <AltitudeMeters>283.600006103515625</AltitudeMeters>
            <DistanceMeters>NAN</DistanceMeters>
          </Trackpoint>
          <Trackpoint>
            <Time>2019-10-09T11:09:53.000Z</Time>
            <Position>
              <LatitudeDegrees>38.7966746650636196136474609375</LatitudeDegrees>
              <LongitudeDegrees>-6.3773017935454845428466796875</LongitudeDegrees>
            </Position>
            <AltitudeMeters>283</AltitudeMeters>
            <DistanceMeters>NAN</DistanceMeters>
          </Trackpoint>
          <Trackpoint>
            <Time>2019-10-09T11:09:55.000Z</Time>
            <Position>
              <LatitudeDegrees>38.79652798175811767578125</LatitudeDegrees>
              <LongitudeDegrees>-6.3773306272923946380615234375</LongitudeDegrees>
            </Position>
            <AltitudeMeters>282.20001220703125</AltitudeMeters>
            <DistanceMeters>NAN</DistanceMeters>
          </Trackpoint>
          <Trackpoint>
            <Time>2019-10-09T11:09:56.000Z</Time>
            <Position>
              <LatitudeDegrees>38.79645262844860553741455078125</LatitudeDegrees>
              <LongitudeDegrees>-6.37734294869005680084228515625</LongitudeDegrees>
            </Position>
            <AltitudeMeters>281.79998779296875</AltitudeMeters>
            <DistanceMeters>NAN</DistanceMeters>
          </Trackpoint>
          <Trackpoint>
            <Time>2019-10-09T11:09:59.000Z</Time>
            <Position>
              <LatitudeDegrees>38.7962139956653118133544921875</LatitudeDegrees>
              <LongitudeDegrees>-6.3773775659501552581787109375</LongitudeDegrees>
            </Position>
            <AltitudeMeters>281</AltitudeMeters>
            <DistanceMeters>NAN</DistanceMeters>
          </Trackpoint>
          <Trackpoint>
            <Time>2019-10-09T11:10:00.000Z</Time>
            <Position>
              <LatitudeDegrees>38.7961328588426113128662109375</LatitudeDegrees>
              <LongitudeDegrees>-6.377389468252658843994140625</LongitudeDegrees>
            </Position>
            <AltitudeMeters>280.600006103515625</AltitudeMeters>
            <DistanceMeters>NAN</DistanceMeters>
          </Trackpoint>
          <Trackpoint>
            <Time>2019-10-09T11:10:03.000Z</Time>
            <Position>
              <LatitudeDegrees>38.79588617943227291107177734375</LatitudeDegrees>
              <LongitudeDegrees>-6.37742140330374240875244140625</LongitudeDegrees>
            </Position>
            <AltitudeMeters>279.399993896484375</AltitudeMeters>
            <DistanceMeters>NAN</DistanceMeters>
          </Trackpoint>
          <Trackpoint>
            <Time>2019-10-09T11:10:05.000Z</Time>
            <Position>
              <LatitudeDegrees>38.79572222940623760223388671875</LatitudeDegrees>
              <LongitudeDegrees>-6.37744487263262271881103515625</LongitudeDegrees>
            </Position>
            <AltitudeMeters>278.79998779296875</AltitudeMeters>
            <DistanceMeters>NAN</DistanceMeters>
          </Trackpoint>
          <Trackpoint>
            <Time>2019-10-09T11:10:06.000Z</Time>
            <Position>
              <LatitudeDegrees>38.79564293660223484039306640625</LatitudeDegrees>
              <LongitudeDegrees>-6.37745727784931659698486328125</LongitudeDegrees>
            </Position>
            <AltitudeMeters>278.399993896484375</AltitudeMeters>
            <DistanceMeters>NAN</DistanceMeters>
          </Trackpoint>
          <Trackpoint>
            <Time>2019-10-09T11:10:07.000Z</Time>
            <Position>
              <LatitudeDegrees>38.79556431435048580169677734375</LatitudeDegrees>
              <LongitudeDegrees>-6.37746901251375675201416015625</LongitudeDegrees>
            </Position>
            <AltitudeMeters>278.20001220703125</AltitudeMeters>
            <DistanceMeters>NAN</DistanceMeters>
          </Trackpoint>
          <Trackpoint>
            <Time>2019-10-09T11:10:09.000Z</Time>
            <Position>
              <LatitudeDegrees>38.79540480673313140869140625</LatitudeDegrees>
              <LongitudeDegrees>-6.3774892129004001617431640625</LongitudeDegrees>
            </Position>
            <AltitudeMeters>278.20001220703125</AltitudeMeters>
            <DistanceMeters>NAN</DistanceMeters>
          </Trackpoint>
          <Trackpoint>
            <Time>2019-10-09T11:10:11.000Z</Time>
            <Position>
              <LatitudeDegrees>38.79524731077253818511962890625</LatitudeDegrees>
              <LongitudeDegrees>-6.37750991620123386383056640625</LongitudeDegrees>
            </Position>
            <AltitudeMeters>278.399993896484375</AltitudeMeters>
            <DistanceMeters>NAN</DistanceMeters>
          </Trackpoint>
          <Trackpoint>
            <Time>2019-10-09T11:10:12.000Z</Time>
            <Position>
              <LatitudeDegrees>38.79517237655818462371826171875</LatitudeDegrees>
              <LongitudeDegrees>-6.3775200583040714263916015625</LongitudeDegrees>
            </Position>
            <AltitudeMeters>278.399993896484375</AltitudeMeters>
            <DistanceMeters>NAN</DistanceMeters>
          </Trackpoint>
          <Trackpoint>
            <Time>2019-10-09T11:10:13.000Z</Time>
            <Position>
              <LatitudeDegrees>38.7950985319912433624267578125</LatitudeDegrees>
              <LongitudeDegrees>-6.37752986513078212738037109375</LongitudeDegrees>
            </Position>
            <AltitudeMeters>278</AltitudeMeters>
            <DistanceMeters>NAN</DistanceMeters>
          </Trackpoint>
          <Trackpoint>
            <Time>2019-10-09T11:10:14.000Z</Time>
            <Position>
              <LatitudeDegrees>38.7950227595865726470947265625</LatitudeDegrees>
              <LongitudeDegrees>-6.37754000723361968994140625</LongitudeDegrees>
            </Position>
            <AltitudeMeters>278</AltitudeMeters>
            <DistanceMeters>NAN</DistanceMeters>
          </Trackpoint>
          <Trackpoint>
            <Time>2019-10-09T11:10:19.000Z</Time>
            <Position>
              <LatitudeDegrees>38.7946717254817485809326171875</LatitudeDegrees>
              <LongitudeDegrees>-6.37758770026266574859619140625</LongitudeDegrees>
            </Position>
            <AltitudeMeters>278.79998779296875</AltitudeMeters>
            <DistanceMeters>NAN</DistanceMeters>
          </Trackpoint>
          <Trackpoint>
            <Time>2019-10-09T11:10:21.000Z</Time>
            <Position>
              <LatitudeDegrees>38.79453987814486026763916015625</LatitudeDegrees>
              <LongitudeDegrees>-6.37760362587869167327880859375</LongitudeDegrees>
            </Position>
            <AltitudeMeters>279.399993896484375</AltitudeMeters>
            <DistanceMeters>NAN</DistanceMeters>
          </Trackpoint>
          <Trackpoint>
            <Time>2019-10-09T11:10:23.000Z</Time>
            <Position>
              <LatitudeDegrees>38.79441012628376483917236328125</LatitudeDegrees>
              <LongitudeDegrees>-6.37761770747601985931396484375</LongitudeDegrees>
            </Position>
            <AltitudeMeters>279.399993896484375</AltitudeMeters>
            <DistanceMeters>NAN</DistanceMeters>
          </Trackpoint>
          <Trackpoint>
            <Time>2019-10-09T11:10:26.000Z</Time>
            <Position>
              <LatitudeDegrees>38.79422421567142009735107421875</LatitudeDegrees>
              <LongitudeDegrees>-6.37764620594680309295654296875</LongitudeDegrees>
            </Position>
            <AltitudeMeters>278.600006103515625</AltitudeMeters>
            <DistanceMeters>NAN</DistanceMeters>
          </Trackpoint>
          <Trackpoint>
            <Time>2019-10-09T11:10:29.000Z</Time>
            <Position>
              <LatitudeDegrees>38.79404299892485141754150390625</LatitudeDegrees>
              <LongitudeDegrees>-6.37767269276082515716552734375</LongitudeDegrees>
            </Position>
            <AltitudeMeters>279.399993896484375</AltitudeMeters>
            <DistanceMeters>NAN</DistanceMeters>
          </Trackpoint>
          <Trackpoint>
            <Time>2019-10-09T11:10:32.000Z</Time>
            <Position>
              <LatitudeDegrees>38.79386781714856624603271484375</LatitudeDegrees>
              <LongitudeDegrees>-6.377699263393878936767578125</LongitudeDegrees>
            </Position>
            <AltitudeMeters>279.79998779296875</AltitudeMeters>
            <DistanceMeters>NAN</DistanceMeters>
          </Trackpoint>
          <Trackpoint>
            <Time>2019-10-09T11:10:40.000Z</Time>
            <Position>
              <LatitudeDegrees>38.7933561019599437713623046875</LatitudeDegrees>
              <LongitudeDegrees>-6.37776757590472698211669921875</LongitudeDegrees>
            </Position>
            <AltitudeMeters>278.79998779296875</AltitudeMeters>
            <DistanceMeters>NAN</DistanceMeters>
          </Trackpoint>
          <Trackpoint>
            <Time>2019-10-09T11:10:42.000Z</Time>
            <Position>
              <LatitudeDegrees>38.79321687854826450347900390625</LatitudeDegrees>
              <LongitudeDegrees>-6.3777869381010532379150390625</LongitudeDegrees>
            </Position>
            <AltitudeMeters>277.79998779296875</AltitudeMeters>
            <DistanceMeters>NAN</DistanceMeters>
          </Trackpoint>
          <Trackpoint>
            <Time>2019-10-09T11:10:47.000Z</Time>
            <Position>
              <LatitudeDegrees>38.7928555347025394439697265625</LatitudeDegrees>
              <LongitudeDegrees>-6.37782775796949863433837890625</LongitudeDegrees>
            </Position>
            <AltitudeMeters>276.600006103515625</AltitudeMeters>
            <DistanceMeters>NAN</DistanceMeters>
          </Trackpoint>
          <Trackpoint>
            <Time>2019-10-09T11:10:48.000Z</Time>
            <Position>
              <LatitudeDegrees>38.7927834503352642059326171875</LatitudeDegrees>
              <LongitudeDegrees>-6.37783681042492389678955078125</LongitudeDegrees>
            </Position>
            <AltitudeMeters>276.79998779296875</AltitudeMeters>
            <DistanceMeters>NAN</DistanceMeters>
          </Trackpoint>
          <Trackpoint>
            <Time>2019-10-09T11:10:51.000Z</Time>
            <Position>
              <LatitudeDegrees>38.7925601564347743988037109375</LatitudeDegrees>
              <LongitudeDegrees>-6.3778663985431194305419921875</LongitudeDegrees>
            </Position>
            <AltitudeMeters>275</AltitudeMeters>
            <DistanceMeters>NAN</DistanceMeters>
          </Trackpoint>
          <Trackpoint>
            <Time>2019-10-09T11:10:56.000Z</Time>
            <Position>
              <LatitudeDegrees>38.79219110123813152313232421875</LatitudeDegrees>
              <LongitudeDegrees>-6.37791895307600498199462890625</LongitudeDegrees>
            </Position>
            <AltitudeMeters>274.20001220703125</AltitudeMeters>
            <DistanceMeters>NAN</DistanceMeters>
          </Trackpoint>
          <Trackpoint>
            <Time>2019-10-09T11:10:58.000Z</Time>
            <Position>
              <LatitudeDegrees>38.79205129109323024749755859375</LatitudeDegrees>
              <LongitudeDegrees>-6.3779403269290924072265625</LongitudeDegrees>
            </Position>
            <AltitudeMeters>273.79998779296875</AltitudeMeters>
            <DistanceMeters>NAN</DistanceMeters>
          </Trackpoint>
          <Trackpoint>
            <Time>2019-10-09T11:11:00.000Z</Time>
            <Position>
              <LatitudeDegrees>38.791919611394405364990234375</LatitudeDegrees>
              <LongitudeDegrees>-6.37795834802091121673583984375</LongitudeDegrees>
            </Position>
            <AltitudeMeters>274.20001220703125</AltitudeMeters>
            <DistanceMeters>NAN</DistanceMeters>
          </Trackpoint>
          <Trackpoint>
            <Time>2019-10-09T11:11:02.000Z</Time>
            <Position>
              <LatitudeDegrees>38.791793547570705413818359375</LatitudeDegrees>
              <LongitudeDegrees>-6.37796622700989246368408203125</LongitudeDegrees>
            </Position>
            <AltitudeMeters>275</AltitudeMeters>
            <DistanceMeters>NAN</DistanceMeters>
          </Trackpoint>
          <Trackpoint>
            <Time>2019-10-09T11:11:08.000Z</Time>
            <Position>
              <LatitudeDegrees>38.79144645296037197113037109375</LatitudeDegrees>
              <LongitudeDegrees>-6.3780025206506252288818359375</LongitudeDegrees>
            </Position>
            <AltitudeMeters>276.20001220703125</AltitudeMeters>
            <DistanceMeters>NAN</DistanceMeters>
          </Trackpoint>
          <Trackpoint>
            <Time>2019-10-09T11:11:10.000Z</Time>
            <Position>
              <LatitudeDegrees>38.79134218208491802215576171875</LatitudeDegrees>
              <LongitudeDegrees>-6.378018446266651153564453125</LongitudeDegrees>
            </Position>
            <AltitudeMeters>276.399993896484375</AltitudeMeters>
            <DistanceMeters>NAN</DistanceMeters>
          </Trackpoint>
          <Trackpoint>
            <Time>2019-10-09T11:11:17.000Z</Time>
            <Position>
              <LatitudeDegrees>38.790980167686939239501953125</LatitudeDegrees>
              <LongitudeDegrees>-6.378070078790187835693359375</LongitudeDegrees>
            </Position>
            <AltitudeMeters>277</AltitudeMeters>
            <DistanceMeters>NAN</DistanceMeters>
          </Trackpoint>
          <Trackpoint>
            <Time>2019-10-09T11:11:18.000Z</Time>
            <Position>
              <LatitudeDegrees>38.79092895425856113433837890625</LatitudeDegrees>
              <LongitudeDegrees>-6.378078125417232513427734375</LongitudeDegrees>
            </Position>
            <AltitudeMeters>277.399993896484375</AltitudeMeters>
            <DistanceMeters>NAN</DistanceMeters>
          </Trackpoint>
          <Trackpoint>
            <Time>2019-10-09T11:11:20.000Z</Time>
            <Position>
              <LatitudeDegrees>38.7908234260976314544677734375</LatitudeDegrees>
              <LongitudeDegrees>-6.378094218671321868896484375</LongitudeDegrees>
            </Position>
            <AltitudeMeters>277.20001220703125</AltitudeMeters>
            <DistanceMeters>NAN</DistanceMeters>
          </Trackpoint>
          <Trackpoint>
            <Time>2019-10-09T11:11:21.000Z</Time>
            <Position>
              <LatitudeDegrees>38.790771625936031341552734375</LatitudeDegrees>
              <LongitudeDegrees>-6.37810134328901767730712890625</LongitudeDegrees>
            </Position>
            <AltitudeMeters>277.20001220703125</AltitudeMeters>
            <DistanceMeters>NAN</DistanceMeters>
          </Trackpoint>
          <Trackpoint>
            <Time>2019-10-09T11:11:26.000Z</Time>
            <Position>
              <LatitudeDegrees>38.7905069254338741302490234375</LatitudeDegrees>
              <LongitudeDegrees>-6.3781346194446086883544921875</LongitudeDegrees>
            </Position>
            <AltitudeMeters>277.600006103515625</AltitudeMeters>
            <DistanceMeters>NAN</DistanceMeters>
          </Trackpoint>
          <Trackpoint>
            <Time>2019-10-09T11:11:30.000Z</Time>
            <Position>
              <LatitudeDegrees>38.79029913805425167083740234375</LatitudeDegrees>
              <LongitudeDegrees>-6.378159932792186737060546875</LongitudeDegrees>
            </Position>
            <AltitudeMeters>278.20001220703125</AltitudeMeters>
            <DistanceMeters>NAN</DistanceMeters>
          </Trackpoint>
          <Trackpoint>
            <Time>2019-10-09T11:11:32.000Z</Time>
            <Position>
              <LatitudeDegrees>38.7901957891881465911865234375</LatitudeDegrees>
              <LongitudeDegrees>-6.37817225418984889984130859375</LongitudeDegrees>
            </Position>
            <AltitudeMeters>278.399993896484375</AltitudeMeters>
            <DistanceMeters>NAN</DistanceMeters>
          </Trackpoint>
          <Trackpoint>
            <Time>2019-10-09T11:11:38.000Z</Time>
            <Position>
              <LatitudeDegrees>38.78988624550402164459228515625</LatitudeDegrees>
              <LongitudeDegrees>-6.37819320894777774810791015625</LongitudeDegrees>
            </Position>
            <AltitudeMeters>278.600006103515625</AltitudeMeters>
            <DistanceMeters>NAN</DistanceMeters>
          </Trackpoint>
          <Trackpoint>
            <Time>2019-10-09T11:11:39.000Z</Time>
            <Position>
              <LatitudeDegrees>38.78983142785727977752685546875</LatitudeDegrees>
              <LongitudeDegrees>-6.3781969808042049407958984375</LongitudeDegrees>
            </Position>
            <AltitudeMeters>279</AltitudeMeters>
            <DistanceMeters>NAN</DistanceMeters>
          </Trackpoint>
          <Trackpoint>
            <Time>2019-10-09T11:11:46.000Z</Time>
            <Position>
              <LatitudeDegrees>38.78944619558751583099365234375</LatitudeDegrees>
              <LongitudeDegrees>-6.37820779345929622650146484375</LongitudeDegrees>
            </Position>
            <AltitudeMeters>278.600006103515625</AltitudeMeters>
            <DistanceMeters>NAN</DistanceMeters>
          </Trackpoint>
          <Trackpoint>
            <Time>2019-10-09T11:11:55.000Z</Time>
            <Position>
              <LatitudeDegrees>38.78894411958754062652587890625</LatitudeDegrees>
              <LongitudeDegrees>-6.378220282495021820068359375</LongitudeDegrees>
            </Position>
            <AltitudeMeters>278.79998779296875</AltitudeMeters>
            <DistanceMeters>NAN</DistanceMeters>
          </Trackpoint>
          <Trackpoint>
            <Time>2019-10-09T11:11:59.000Z</Time>
            <Position>
              <LatitudeDegrees>38.7887195684015750885009765625</LatitudeDegrees>
              <LongitudeDegrees>-6.37822707183659076690673828125</LongitudeDegrees>
            </Position>
            <AltitudeMeters>279.399993896484375</AltitudeMeters>
            <DistanceMeters>NAN</DistanceMeters>
          </Trackpoint>
          <Trackpoint>
            <Time>2019-10-09T11:12:03.000Z</Time>
            <Position>
              <LatitudeDegrees>38.788494430482387542724609375</LatitudeDegrees>
              <LongitudeDegrees>-6.378232352435588836669921875</LongitudeDegrees>
            </Position>
            <AltitudeMeters>279</AltitudeMeters>
            <DistanceMeters>NAN</DistanceMeters>
          </Trackpoint>
          <Trackpoint>
            <Time>2019-10-09T11:12:12.000Z</Time>
            <Position>
              <LatitudeDegrees>38.78797081299126148223876953125</LatitudeDegrees>
              <LongitudeDegrees>-6.37825406156480312347412109375</LongitudeDegrees>
            </Position>
            <AltitudeMeters>279.20001220703125</AltitudeMeters>
            <DistanceMeters>NAN</DistanceMeters>
          </Trackpoint>
          <Trackpoint>
            <Time>2019-10-09T11:12:14.000Z</Time>
            <Position>
              <LatitudeDegrees>38.787846006453037261962890625</LatitudeDegrees>
              <LongitudeDegrees>-6.3782623596489429473876953125</LongitudeDegrees>
            </Position>
            <AltitudeMeters>278.79998779296875</AltitudeMeters>
            <DistanceMeters>NAN</DistanceMeters>
          </Trackpoint>
          <Trackpoint>
            <Time>2019-10-09T11:12:16.000Z</Time>
            <Position>
              <LatitudeDegrees>38.787721283733844757080078125</LatitudeDegrees>
              <LongitudeDegrees>-6.37826562859117984771728515625</LongitudeDegrees>
            </Position>
            <AltitudeMeters>278.399993896484375</AltitudeMeters>
            <DistanceMeters>NAN</DistanceMeters>
          </Trackpoint>
          <Trackpoint>
            <Time>2019-10-09T11:12:21.000Z</Time>
            <Position>
              <LatitudeDegrees>38.78740687854588031768798828125</LatitudeDegrees>
              <LongitudeDegrees>-6.37827686034142971038818359375</LongitudeDegrees>
            </Position>
            <AltitudeMeters>278.600006103515625</AltitudeMeters>
            <DistanceMeters>NAN</DistanceMeters>
          </Trackpoint>
          <Trackpoint>
            <Time>2019-10-09T11:12:26.000Z</Time>
            <Position>
              <LatitudeDegrees>38.7870636396110057830810546875</LatitudeDegrees>
              <LongitudeDegrees>-6.37828834354877471923828125</LongitudeDegrees>
            </Position>
            <AltitudeMeters>277.399993896484375</AltitudeMeters>
            <DistanceMeters>NAN</DistanceMeters>
          </Trackpoint>
          <Trackpoint>
            <Time>2019-10-09T11:12:30.000Z</Time>
            <Position>
              <LatitudeDegrees>38.78677991218864917755126953125</LatitudeDegrees>
              <LongitudeDegrees>-6.378295384347438812255859375</LongitudeDegrees>
            </Position>
            <AltitudeMeters>277.20001220703125</AltitudeMeters>
            <DistanceMeters>NAN</DistanceMeters>
          </Trackpoint>
          <Trackpoint>
            <Time>2019-10-09T11:12:34.000Z</Time>
            <Position>
              <LatitudeDegrees>38.78649828024208545684814453125</LatitudeDegrees>
              <LongitudeDegrees>-6.37831114232540130615234375</LongitudeDegrees>
            </Position>
            <AltitudeMeters>276.20001220703125</AltitudeMeters>
            <DistanceMeters>NAN</DistanceMeters>
          </Trackpoint>
          <Trackpoint>
            <Time>2019-10-09T11:12:38.000Z</Time>
            <Position>
              <LatitudeDegrees>38.786225281655788421630859375</LatitudeDegrees>
              <LongitudeDegrees>-6.37833201326429843902587890625</LongitudeDegrees>
            </Position>
            <AltitudeMeters>276.79998779296875</AltitudeMeters>
            <DistanceMeters>NAN</DistanceMeters>
          </Trackpoint>
          <Trackpoint>
            <Time>2019-10-09T11:12:40.000Z</Time>
            <Position>
              <LatitudeDegrees>38.78609427250921726226806640625</LatitudeDegrees>
              <LongitudeDegrees>-6.37834089808166027069091796875</LongitudeDegrees>
            </Position>
            <AltitudeMeters>277.399993896484375</AltitudeMeters>
            <DistanceMeters>NAN</DistanceMeters>
          </Trackpoint>
          <Trackpoint>
            <Time>2019-10-09T11:12:46.000Z</Time>
            <Position>
              <LatitudeDegrees>38.78570334054529666900634765625</LatitudeDegrees>
              <LongitudeDegrees>-6.37835648842155933380126953125</LongitudeDegrees>
            </Position>
            <AltitudeMeters>277</AltitudeMeters>
            <DistanceMeters>NAN</DistanceMeters>
          </Trackpoint>
          <Trackpoint>
            <Time>2019-10-09T11:12:49.000Z</Time>
            <Position>
              <LatitudeDegrees>38.78550603054463863372802734375</LatitudeDegrees>
              <LongitudeDegrees>-6.37835933826863765716552734375</LongitudeDegrees>
            </Position>
            <AltitudeMeters>276.600006103515625</AltitudeMeters>
            <DistanceMeters>NAN</DistanceMeters>
          </Trackpoint>
          <Trackpoint>
            <Time>2019-10-09T11:12:52.000Z</Time>
            <Position>
              <LatitudeDegrees>38.7853017635643482208251953125</LatitudeDegrees>
              <LongitudeDegrees>-6.3783612661063671112060546875</LongitudeDegrees>
            </Position>
            <AltitudeMeters>276.399993896484375</AltitudeMeters>
            <DistanceMeters>NAN</DistanceMeters>
          </Trackpoint>
          <Trackpoint>
            <Time>2019-10-09T11:12:55.000Z</Time>
            <Position>
              <LatitudeDegrees>38.7850938923656940460205078125</LatitudeDegrees>
              <LongitudeDegrees>-6.378371827304363250732421875</LongitudeDegrees>
            </Position>
            <AltitudeMeters>275.79998779296875</AltitudeMeters>
            <DistanceMeters>NAN</DistanceMeters>
          </Trackpoint>
          <Trackpoint>
            <Time>2019-10-09T11:13:00.000Z</Time>
            <Position>
              <LatitudeDegrees>38.78474294207990169525146484375</LatitudeDegrees>
              <LongitudeDegrees>-6.3783895969390869140625</LongitudeDegrees>
            </Position>
            <AltitudeMeters>275.20001220703125</AltitudeMeters>
            <DistanceMeters>NAN</DistanceMeters>
          </Trackpoint>
          <Trackpoint>
            <Time>2019-10-09T11:13:04.000Z</Time>
            <Position>
              <LatitudeDegrees>38.7844575382769107818603515625</LatitudeDegrees>
              <LongitudeDegrees>-6.37839873321354389190673828125</LongitudeDegrees>
            </Position>
            <AltitudeMeters>275</AltitudeMeters>
            <DistanceMeters>NAN</DistanceMeters>
          </Trackpoint>
          <Trackpoint>
            <Time>2019-10-09T11:13:12.000Z</Time>
            <Position>
              <LatitudeDegrees>38.78391061909496784210205078125</LatitudeDegrees>
              <LongitudeDegrees>-6.37840946204960346221923828125</LongitudeDegrees>
            </Position>
            <AltitudeMeters>275</AltitudeMeters>
            <DistanceMeters>NAN</DistanceMeters>
          </Trackpoint>
          <Trackpoint>
            <Time>2019-10-09T11:13:15.000Z</Time>
            <Position>
              <LatitudeDegrees>38.783706016838550567626953125</LatitudeDegrees>
              <LongitudeDegrees>-6.37841516174376010894775390625</LongitudeDegrees>
            </Position>
            <AltitudeMeters>275.20001220703125</AltitudeMeters>
            <DistanceMeters>NAN</DistanceMeters>
          </Trackpoint>
          <Trackpoint>
            <Time>2019-10-09T11:13:23.000Z</Time>
            <Position>
              <LatitudeDegrees>38.78317787311971187591552734375</LatitudeDegrees>
              <LongitudeDegrees>-6.37842421419918537139892578125</LongitudeDegrees>
            </Position>
            <AltitudeMeters>275.399993896484375</AltitudeMeters>
            <DistanceMeters>NAN</DistanceMeters>
          </Trackpoint>
          <Trackpoint>
            <Time>2019-10-09T11:13:25.000Z</Time>
            <Position>
              <LatitudeDegrees>38.78305180929601192474365234375</LatitudeDegrees>
              <LongitudeDegrees>-6.3784266449511051177978515625</LongitudeDegrees>
            </Position>
            <AltitudeMeters>275.399993896484375</AltitudeMeters>
            <DistanceMeters>NAN</DistanceMeters>
          </Trackpoint>
          <Trackpoint>
            <Time>2019-10-09T11:13:33.000Z</Time>
            <Position>
              <LatitudeDegrees>38.782573454082012176513671875</LatitudeDegrees>
              <LongitudeDegrees>-6.37843410484492778778076171875</LongitudeDegrees>
            </Position>
            <AltitudeMeters>276.399993896484375</AltitudeMeters>
            <DistanceMeters>NAN</DistanceMeters>
          </Trackpoint>
          <Trackpoint>
            <Time>2019-10-09T11:13:35.000Z</Time>
            <Position>
              <LatitudeDegrees>38.78246172331273555755615234375</LatitudeDegrees>
              <LongitudeDegrees>-6.3784413971006870269775390625</LongitudeDegrees>
            </Position>
            <AltitudeMeters>276.600006103515625</AltitudeMeters>
            <DistanceMeters>NAN</DistanceMeters>
          </Trackpoint>
          <Trackpoint>
            <Time>2019-10-09T11:13:43.000Z</Time>
            <Position>
              <LatitudeDegrees>38.7820311449468135833740234375</LatitudeDegrees>
              <LongitudeDegrees>-6.37845589779317378997802734375</LongitudeDegrees>
            </Position>
            <AltitudeMeters>276.79998779296875</AltitudeMeters>
            <DistanceMeters>NAN</DistanceMeters>
          </Trackpoint>
          <Trackpoint>
            <Time>2019-10-09T11:13:45.000Z</Time>
            <Position>
              <LatitudeDegrees>38.7819248624145984649658203125</LatitudeDegrees>
              <LongitudeDegrees>-6.37845732271671295166015625</LongitudeDegrees>
            </Position>
            <AltitudeMeters>277.399993896484375</AltitudeMeters>
            <DistanceMeters>NAN</DistanceMeters>
          </Trackpoint>
          <Trackpoint>
            <Time>2019-10-09T11:13:55.000Z</Time>
            <Position>
              <LatitudeDegrees>38.7814075313508510589599609375</LatitudeDegrees>
              <LongitudeDegrees>-6.3784631900489330291748046875</LongitudeDegrees>
            </Position>
            <AltitudeMeters>278.20001220703125</AltitudeMeters>
            <DistanceMeters>NAN</DistanceMeters>
          </Trackpoint>
          <Trackpoint>
            <Time>2019-10-09T11:13:59.000Z</Time>
            <Position>
              <LatitudeDegrees>38.781204521656036376953125</LatitudeDegrees>
              <LongitudeDegrees>-6.378465704619884490966796875</LongitudeDegrees>
            </Position>
            <AltitudeMeters>278.600006103515625</AltitudeMeters>
            <DistanceMeters>NAN</DistanceMeters>
          </Trackpoint>
          <Trackpoint>
            <Time>2019-10-09T11:14:07.000Z</Time>
            <Position>
              <LatitudeDegrees>38.78079079091548919677734375</LatitudeDegrees>
              <LongitudeDegrees>-6.37847819365561008453369140625</LongitudeDegrees>
            </Position>
            <AltitudeMeters>278.79998779296875</AltitudeMeters>
            <DistanceMeters>NAN</DistanceMeters>
          </Trackpoint>
          <Trackpoint>
            <Time>2019-10-09T11:14:15.000Z</Time>
            <Position>
              <LatitudeDegrees>38.7803752161562442779541015625</LatitudeDegrees>
              <LongitudeDegrees>-6.3784906826913356781005859375</LongitudeDegrees>
            </Position>
            <AltitudeMeters>279.600006103515625</AltitudeMeters>
            <DistanceMeters>NAN</DistanceMeters>
          </Trackpoint>
          <Trackpoint>
            <Time>2019-10-09T11:14:19.000Z</Time>
            <Position>
              <LatitudeDegrees>38.78017497248947620391845703125</LatitudeDegrees>
              <LongitudeDegrees>-6.37849361635744571685791015625</LongitudeDegrees>
            </Position>
            <AltitudeMeters>280</AltitudeMeters>
            <DistanceMeters>NAN</DistanceMeters>
          </Trackpoint>
          <Trackpoint>
            <Time>2019-10-09T11:14:26.000Z</Time>
            <Position>
              <LatitudeDegrees>38.7798297218978404998779296875</LatitudeDegrees>
              <LongitudeDegrees>-6.37849730439484119415283203125</LongitudeDegrees>
            </Position>
            <AltitudeMeters>280.399993896484375</AltitudeMeters>
            <DistanceMeters>NAN</DistanceMeters>
          </Trackpoint>
          <Trackpoint>
            <Time>2019-10-09T11:14:28.000Z</Time>
            <Position>
              <LatitudeDegrees>38.77972721122205257415771484375</LatitudeDegrees>
              <LongitudeDegrees>-6.37850283645093441009521484375</LongitudeDegrees>
            </Position>
            <AltitudeMeters>280.79998779296875</AltitudeMeters>
            <DistanceMeters>NAN</DistanceMeters>
          </Trackpoint>
          <Trackpoint>
            <Time>2019-10-09T11:14:34.000Z</Time>
            <Position>
              <LatitudeDegrees>38.77941590733826160430908203125</LatitudeDegrees>
              <LongitudeDegrees>-6.37850618921220302581787109375</LongitudeDegrees>
            </Position>
            <AltitudeMeters>281.399993896484375</AltitudeMeters>
            <DistanceMeters>NAN</DistanceMeters>
          </Trackpoint>
          <Trackpoint>
            <Time>2019-10-09T11:14:38.000Z</Time>
            <Position>
              <LatitudeDegrees>38.7792047671973705291748046875</LatitudeDegrees>
              <LongitudeDegrees>-6.3785074464976787567138671875</LongitudeDegrees>
            </Position>
            <AltitudeMeters>282</AltitudeMeters>
            <DistanceMeters>NAN</DistanceMeters>
          </Trackpoint>
          <Trackpoint>
            <Time>2019-10-09T11:14:42.000Z</Time>
            <Position>
              <LatitudeDegrees>38.778992034494876861572265625</LatitudeDegrees>
              <LongitudeDegrees>-6.37851633131504058837890625</LongitudeDegrees>
            </Position>
            <AltitudeMeters>281.600006103515625</AltitudeMeters>
            <DistanceMeters>NAN</DistanceMeters>
          </Trackpoint>
          <Trackpoint>
            <Time>2019-10-09T11:14:53.000Z</Time>
            <Position>
              <LatitudeDegrees>38.778418041765689849853515625</LatitudeDegrees>
              <LongitudeDegrees>-6.37852345593273639678955078125</LongitudeDegrees>
            </Position>
            <AltitudeMeters>282.79998779296875</AltitudeMeters>
            <DistanceMeters>NAN</DistanceMeters>
          </Trackpoint>
          <Trackpoint>
            <Time>2019-10-09T11:14:59.000Z</Time>
            <Position>
              <LatitudeDegrees>38.77809793688356876373291015625</LatitudeDegrees>
              <LongitudeDegrees>-6.37853032909333705902099609375</LongitudeDegrees>
            </Position>
            <AltitudeMeters>283.20001220703125</AltitudeMeters>
            <DistanceMeters>NAN</DistanceMeters>
          </Trackpoint>
          <Trackpoint>
            <Time>2019-10-09T11:15:04.000Z</Time>
            <Position>
              <LatitudeDegrees>38.77783860079944133758544921875</LatitudeDegrees>
              <LongitudeDegrees>-6.3785399682819843292236328125</LongitudeDegrees>
            </Position>
            <AltitudeMeters>283.79998779296875</AltitudeMeters>
            <DistanceMeters>NAN</DistanceMeters>
          </Trackpoint>
          <Trackpoint>
            <Time>2019-10-09T11:15:10.000Z</Time>
            <Position>
              <LatitudeDegrees>38.77752612344920635223388671875</LatitudeDegrees>
              <LongitudeDegrees>-6.37855245731770992279052734375</LongitudeDegrees>
            </Position>
            <AltitudeMeters>284.20001220703125</AltitudeMeters>
            <DistanceMeters>NAN</DistanceMeters>
          </Trackpoint>
          <Trackpoint>
            <Time>2019-10-09T11:15:15.000Z</Time>
            <Position>
              <LatitudeDegrees>38.7772683799266815185546875</LatitudeDegrees>
              <LongitudeDegrees>-6.3785496912896633148193359375</LongitudeDegrees>
            </Position>
            <AltitudeMeters>284.399993896484375</AltitudeMeters>
            <DistanceMeters>NAN</DistanceMeters>
          </Trackpoint>
          <Trackpoint>
            <Time>2019-10-09T11:15:21.000Z</Time>
            <Position>
              <LatitudeDegrees>38.77696252427995204925537109375</LatitudeDegrees>
              <LongitudeDegrees>-6.378558911383152008056640625</LongitudeDegrees>
            </Position>
            <AltitudeMeters>285.79998779296875</AltitudeMeters>
            <DistanceMeters>NAN</DistanceMeters>
          </Trackpoint>
          <Trackpoint>
            <Time>2019-10-09T11:15:25.000Z</Time>
            <Position>
              <LatitudeDegrees>38.77677493728697299957275390625</LatitudeDegrees>
              <LongitudeDegrees>-6.3785664550960063934326171875</LongitudeDegrees>
            </Position>
            <AltitudeMeters>286.20001220703125</AltitudeMeters>
            <DistanceMeters>NAN</DistanceMeters>
          </Trackpoint>
          <Trackpoint>
            <Time>2019-10-09T11:15:27.000Z</Time>
            <Position>
              <LatitudeDegrees>38.77668835222721099853515625</LatitudeDegrees>
              <LongitudeDegrees>-6.37856989167630672454833984375</LongitudeDegrees>
            </Position>
            <AltitudeMeters>287</AltitudeMeters>
            <DistanceMeters>NAN</DistanceMeters>
          </Trackpoint>
          <Trackpoint>
            <Time>2019-10-09T11:15:33.000Z</Time>
            <Position>
              <LatitudeDegrees>38.77644686959683895111083984375</LatitudeDegrees>
              <LongitudeDegrees>-6.37858212925493717193603515625</LongitudeDegrees>
            </Position>
            <AltitudeMeters>288</AltitudeMeters>
            <DistanceMeters>NAN</DistanceMeters>
          </Trackpoint>
          <Trackpoint>
            <Time>2019-10-09T11:15:34.000Z</Time>
            <Position>
              <LatitudeDegrees>38.77640864811837673187255859375</LatitudeDegrees>
              <LongitudeDegrees>-6.37858296744525432586669921875</LongitudeDegrees>
            </Position>
            <AltitudeMeters>288.20001220703125</AltitudeMeters>
            <DistanceMeters>NAN</DistanceMeters>
          </Trackpoint>
          <Trackpoint>
            <Time>2019-10-09T11:15:37.000Z</Time>
            <Position>
              <LatitudeDegrees>38.7762945704162120819091796875</LatitudeDegrees>
              <LongitudeDegrees>-6.37858682312071323394775390625</LongitudeDegrees>
            </Position>
            <AltitudeMeters>289</AltitudeMeters>
            <DistanceMeters>NAN</DistanceMeters>
          </Trackpoint>
          <Trackpoint>
            <Time>2019-10-09T11:15:43.000Z</Time>
            <Position>
              <LatitudeDegrees>38.7760747969150543212890625</LatitudeDegrees>
              <LongitudeDegrees>-6.37859453447163105010986328125</LongitudeDegrees>
            </Position>
            <AltitudeMeters>289.79998779296875</AltitudeMeters>
            <DistanceMeters>NAN</DistanceMeters>
          </Trackpoint>
          <Trackpoint>
            <Time>2019-10-09T11:15:44.000Z</Time>
            <Position>
              <LatitudeDegrees>38.7760387547314167022705078125</LatitudeDegrees>
              <LongitudeDegrees>-6.378593109548091888427734375</LongitudeDegrees>
            </Position>
            <AltitudeMeters>290.20001220703125</AltitudeMeters>
            <DistanceMeters>NAN</DistanceMeters>
          </Trackpoint>
          <Trackpoint>
            <Time>2019-10-09T11:15:48.000Z</Time>
            <Position>
              <LatitudeDegrees>38.77590070478618144989013671875</LatitudeDegrees>
              <LongitudeDegrees>-6.3785989768803119659423828125</LongitudeDegrees>
            </Position>
            <AltitudeMeters>291.20001220703125</AltitudeMeters>
            <DistanceMeters>NAN</DistanceMeters>
          </Trackpoint>
          <Trackpoint>
            <Time>2019-10-09T11:15:51.000Z</Time>
            <Position>
              <LatitudeDegrees>38.77579727210104465484619140625</LatitudeDegrees>
              <LongitudeDegrees>-6.3786167465150356292724609375</LongitudeDegrees>
            </Position>
            <AltitudeMeters>291.600006103515625</AltitudeMeters>
            <DistanceMeters>NAN</DistanceMeters>
          </Trackpoint>
          <Trackpoint>
            <Time>2019-10-09T11:15:53.000Z</Time>
            <Position>
              <LatitudeDegrees>38.77572803758084774017333984375</LatitudeDegrees>
              <LongitudeDegrees>-6.3786298222839832305908203125</LongitudeDegrees>
            </Position>
            <AltitudeMeters>292.20001220703125</AltitudeMeters>
            <DistanceMeters>NAN</DistanceMeters>
          </Trackpoint>
          <Trackpoint>
            <Time>2019-10-09T11:15:58.000Z</Time>
            <Position>
              <LatitudeDegrees>38.775556795299053192138671875</LatitudeDegrees>
              <LongitudeDegrees>-6.378658153116703033447265625</LongitudeDegrees>
            </Position>
            <AltitudeMeters>293.20001220703125</AltitudeMeters>
            <DistanceMeters>NAN</DistanceMeters>
          </Trackpoint>
          <Trackpoint>
            <Time>2019-10-09T11:16:00.000Z</Time>
            <Position>
              <LatitudeDegrees>38.7754873931407928466796875</LatitudeDegrees>
              <LongitudeDegrees>-6.37866477482020854949951171875</LongitudeDegrees>
            </Position>
            <AltitudeMeters>293.79998779296875</AltitudeMeters>
            <DistanceMeters>NAN</DistanceMeters>
          </Trackpoint>
          <Trackpoint>
            <Time>2019-10-09T11:16:03.000Z</Time>
            <Position>
              <LatitudeDegrees>38.77539276145398616790771484375</LatitudeDegrees>
              <LongitudeDegrees>-6.37867751531302928924560546875</LongitudeDegrees>
            </Position>
            <AltitudeMeters>294.399993896484375</AltitudeMeters>
            <DistanceMeters>NAN</DistanceMeters>
          </Trackpoint>
          <Trackpoint>
            <Time>2019-10-09T11:16:07.000Z</Time>
            <Position>
              <LatitudeDegrees>38.77526946365833282470703125</LatitudeDegrees>
              <LongitudeDegrees>-6.3787092827260494232177734375</LongitudeDegrees>
            </Position>
            <AltitudeMeters>295.20001220703125</AltitudeMeters>
            <DistanceMeters>NAN</DistanceMeters>
          </Trackpoint>
          <Trackpoint>
            <Time>2019-10-09T11:16:09.000Z</Time>
            <Position>
              <LatitudeDegrees>38.77521171234548091888427734375</LatitudeDegrees>
              <LongitudeDegrees>-6.378737278282642364501953125</LongitudeDegrees>
            </Position>
            <AltitudeMeters>295.600006103515625</AltitudeMeters>
            <DistanceMeters>NAN</DistanceMeters>
          </Trackpoint>
          <Trackpoint>
            <Time>2019-10-09T11:16:13.000Z</Time>
            <Position>
              <LatitudeDegrees>38.77510274760425090789794921875</LatitudeDegrees>
              <LongitudeDegrees>-6.3787823729217052459716796875</LongitudeDegrees>
            </Position>
            <AltitudeMeters>296.399993896484375</AltitudeMeters>
            <DistanceMeters>NAN</DistanceMeters>
          </Trackpoint>
          <Trackpoint>
            <Time>2019-10-09T11:16:15.000Z</Time>
            <Position>
              <LatitudeDegrees>38.775041811168193817138671875</LatitudeDegrees>
              <LongitudeDegrees>-6.378802992403507232666015625</LongitudeDegrees>
            </Position>
            <AltitudeMeters>296.600006103515625</AltitudeMeters>
            <DistanceMeters>NAN</DistanceMeters>
          </Trackpoint>
          <Trackpoint>
            <Time>2019-10-09T11:16:21.000Z</Time>
            <Position>
              <LatitudeDegrees>38.7748463451862335205078125</LatitudeDegrees>
              <LongitudeDegrees>-6.3788871467113494873046875</LongitudeDegrees>
            </Position>
            <AltitudeMeters>297.600006103515625</AltitudeMeters>
            <DistanceMeters>NAN</DistanceMeters>
          </Trackpoint>
          <Trackpoint>
            <Time>2019-10-09T11:16:32.000Z</Time>
            <Position>
              <LatitudeDegrees>38.77448651008307933807373046875</LatitudeDegrees>
              <LongitudeDegrees>-6.379101388156414031982421875</LongitudeDegrees>
            </Position>
            <AltitudeMeters>298.20001220703125</AltitudeMeters>
            <DistanceMeters>NAN</DistanceMeters>
          </Trackpoint>
          <Trackpoint>
            <Time>2019-10-09T11:16:35.000Z</Time>
            <Position>
              <LatitudeDegrees>38.77440034411847591400146484375</LatitudeDegrees>
              <LongitudeDegrees>-6.379193253815174102783203125</LongitudeDegrees>
            </Position>
            <AltitudeMeters>298.79998779296875</AltitudeMeters>
            <DistanceMeters>NAN</DistanceMeters>
          </Trackpoint>
          <Trackpoint>
            <Time>2019-10-09T11:16:37.000Z</Time>
            <Position>
              <LatitudeDegrees>38.774370588362216949462890625</LatitudeDegrees>
              <LongitudeDegrees>-6.37928117997944355010986328125</LongitudeDegrees>
            </Position>
            <AltitudeMeters>299.20001220703125</AltitudeMeters>
            <DistanceMeters>NAN</DistanceMeters>
          </Trackpoint>
          <Trackpoint>
            <Time>2019-10-09T11:16:44.000Z</Time>
            <Position>
              <LatitudeDegrees>38.77428132109344005584716796875</LatitudeDegrees>
              <LongitudeDegrees>-6.3796058110892772674560546875</LongitudeDegrees>
            </Position>
            <AltitudeMeters>299.20001220703125</AltitudeMeters>
            <DistanceMeters>NAN</DistanceMeters>
          </Trackpoint>
          <Trackpoint>
            <Time>2019-10-09T11:16:48.000Z</Time>
            <Position>
              <LatitudeDegrees>38.77414268441498279571533203125</LatitudeDegrees>
              <LongitudeDegrees>-6.37974251993000507354736328125</LongitudeDegrees>
            </Position>
            <AltitudeMeters>299.20001220703125</AltitudeMeters>
            <DistanceMeters>NAN</DistanceMeters>
          </Trackpoint>
          <Trackpoint>
            <Time>2019-10-09T11:16:49.000Z</Time>
            <Position>
              <LatitudeDegrees>38.7741038762032985687255859375</LatitudeDegrees>
              <LongitudeDegrees>-6.37977621518075466156005859375</LongitudeDegrees>
            </Position>
            <AltitudeMeters>299.20001220703125</AltitudeMeters>
            <DistanceMeters>NAN</DistanceMeters>
          </Trackpoint>
          <Trackpoint>
            <Time>2019-10-09T11:16:52.000Z</Time>
            <Position>
              <LatitudeDegrees>38.7740287743508815765380859375</LatitudeDegrees>
              <LongitudeDegrees>-6.37993262149393558502197265625</LongitudeDegrees>
            </Position>
            <AltitudeMeters>298.600006103515625</AltitudeMeters>
            <DistanceMeters>NAN</DistanceMeters>
          </Trackpoint>
          <Trackpoint>
            <Time>2019-10-09T11:16:54.000Z</Time>
            <Position>
              <LatitudeDegrees>38.77400388009846210479736328125</LatitudeDegrees>
              <LongitudeDegrees>-6.38005482964217662811279296875</LongitudeDegrees>
            </Position>
            <AltitudeMeters>298.600006103515625</AltitudeMeters>
            <DistanceMeters>NAN</DistanceMeters>
          </Trackpoint>
          <Trackpoint>
            <Time>2019-10-09T11:16:59.000Z</Time>
            <Position>
              <LatitudeDegrees>38.77395115792751312255859375</LatitudeDegrees>
              <LongitudeDegrees>-6.3803489506244659423828125</LongitudeDegrees>
            </Position>
            <AltitudeMeters>298.20001220703125</AltitudeMeters>
            <DistanceMeters>NAN</DistanceMeters>
          </Trackpoint>
          <Trackpoint>
            <Time>2019-10-09T11:17:02.000Z</Time>
            <Position>
              <LatitudeDegrees>38.773917965590953826904296875</LatitudeDegrees>
              <LongitudeDegrees>-6.380520947277545928955078125</LongitudeDegrees>
            </Position>
            <AltitudeMeters>299</AltitudeMeters>
            <DistanceMeters>NAN</DistanceMeters>
          </Trackpoint>
          <Trackpoint>
            <Time>2019-10-09T11:17:05.000Z</Time>
            <Position>
              <LatitudeDegrees>38.77388871274888515472412109375</LatitudeDegrees>
              <LongitudeDegrees>-6.38069939799606800079345703125</LongitudeDegrees>
            </Position>
            <AltitudeMeters>299.20001220703125</AltitudeMeters>
            <DistanceMeters>NAN</DistanceMeters>
          </Trackpoint>
          <Trackpoint>
            <Time>2019-10-09T11:17:06.000Z</Time>
            <Position>
              <LatitudeDegrees>38.77388142049312591552734375</LatitudeDegrees>
              <LongitudeDegrees>-6.3807593286037445068359375</LongitudeDegrees>
            </Position>
            <AltitudeMeters>299.20001220703125</AltitudeMeters>
            <DistanceMeters>NAN</DistanceMeters>
          </Trackpoint>
          <Trackpoint>
            <Time>2019-10-09T11:17:09.000Z</Time>
            <Position>
              <LatitudeDegrees>38.77387848682701587677001953125</LatitudeDegrees>
              <LongitudeDegrees>-6.38093895278871059417724609375</LongitudeDegrees>
            </Position>
            <AltitudeMeters>298.79998779296875</AltitudeMeters>
            <DistanceMeters>NAN</DistanceMeters>
          </Trackpoint>
          <Trackpoint>
            <Time>2019-10-09T11:17:11.000Z</Time>
            <Position>
              <LatitudeDegrees>38.7739169597625732421875</LatitudeDegrees>
              <LongitudeDegrees>-6.3810451515018939971923828125</LongitudeDegrees>
            </Position>
            <AltitudeMeters>299</AltitudeMeters>
            <DistanceMeters>NAN</DistanceMeters>
          </Trackpoint>
          <Trackpoint>
            <Time>2019-10-09T11:17:13.000Z</Time>
            <Position>
              <LatitudeDegrees>38.77396314404904842376708984375</LatitudeDegrees>
              <LongitudeDegrees>-6.38115051202476024627685546875</LongitudeDegrees>
            </Position>
            <AltitudeMeters>298.79998779296875</AltitudeMeters>
            <DistanceMeters>NAN</DistanceMeters>
          </Trackpoint>
          <Trackpoint>
            <Time>2019-10-09T11:17:16.000Z</Time>
            <Position>
              <LatitudeDegrees>38.773989044129848480224609375</LatitudeDegrees>
              <LongitudeDegrees>-6.3813321478664875030517578125</LongitudeDegrees>
            </Position>
            <AltitudeMeters>299.20001220703125</AltitudeMeters>
            <DistanceMeters>NAN</DistanceMeters>
          </Trackpoint>
          <Trackpoint>
            <Time>2019-10-09T11:17:19.000Z</Time>
            <Position>
              <LatitudeDegrees>38.77393011935055255889892578125</LatitudeDegrees>
              <LongitudeDegrees>-6.381501965224742889404296875</LongitudeDegrees>
            </Position>
            <AltitudeMeters>299.399993896484375</AltitudeMeters>
            <DistanceMeters>NAN</DistanceMeters>
          </Trackpoint>
          <Trackpoint>
            <Time>2019-10-09T11:17:22.000Z</Time>
            <Position>
              <LatitudeDegrees>38.7737994454801082611083984375</LatitudeDegrees>
              <LongitudeDegrees>-6.3815842755138874053955078125</LongitudeDegrees>
            </Position>
            <AltitudeMeters>299.20001220703125</AltitudeMeters>
            <DistanceMeters>NAN</DistanceMeters>
          </Trackpoint>
          <Trackpoint>
            <Time>2019-10-09T11:17:25.000Z</Time>
            <Position>
              <LatitudeDegrees>38.77364513464272022247314453125</LatitudeDegrees>
              <LongitudeDegrees>-6.38160430826246738433837890625</LongitudeDegrees>
            </Position>
            <AltitudeMeters>299.399993896484375</AltitudeMeters>
            <DistanceMeters>NAN</DistanceMeters>
          </Trackpoint>
          <Trackpoint>
            <Time>2019-10-09T11:17:28.000Z</Time>
            <Position>
              <LatitudeDegrees>38.773490488529205322265625</LatitudeDegrees>
              <LongitudeDegrees>-6.38164755888283252716064453125</LongitudeDegrees>
            </Position>
            <AltitudeMeters>299.600006103515625</AltitudeMeters>
            <DistanceMeters>NAN</DistanceMeters>
          </Trackpoint>
          <Trackpoint>
            <Time>2019-10-09T11:17:35.000Z</Time>
            <Position>
              <LatitudeDegrees>38.7731104530394077301025390625</LatitudeDegrees>
              <LongitudeDegrees>-6.3818478025496006011962890625</LongitudeDegrees>
            </Position>
            <AltitudeMeters>298.399993896484375</AltitudeMeters>
            <DistanceMeters>NAN</DistanceMeters>
          </Trackpoint>
          <Trackpoint>
            <Time>2019-10-09T11:17:36.000Z</Time>
            <Position>
              <LatitudeDegrees>38.77305102534592151641845703125</LatitudeDegrees>
              <LongitudeDegrees>-6.3818752951920032501220703125</LongitudeDegrees>
            </Position>
            <AltitudeMeters>298.20001220703125</AltitudeMeters>
            <DistanceMeters>NAN</DistanceMeters>
          </Trackpoint>
          <Trackpoint>
            <Time>2019-10-09T11:17:39.000Z</Time>
            <Position>
              <LatitudeDegrees>38.77286352217197418212890625</LatitudeDegrees>
              <LongitudeDegrees>-6.38194151222705841064453125</LongitudeDegrees>
            </Position>
            <AltitudeMeters>297.79998779296875</AltitudeMeters>
            <DistanceMeters>NAN</DistanceMeters>
          </Trackpoint>
          <Trackpoint>
            <Time>2019-10-09T11:17:42.000Z</Time>
            <Position>
              <LatitudeDegrees>38.77266344614326953887939453125</LatitudeDegrees>
              <LongitudeDegrees>-6.38198979198932647705078125</LongitudeDegrees>
            </Position>
            <AltitudeMeters>297.600006103515625</AltitudeMeters>
            <DistanceMeters>NAN</DistanceMeters>
          </Trackpoint>
          <Trackpoint>
            <Time>2019-10-09T11:17:47.000Z</Time>
            <Position>
              <LatitudeDegrees>38.77232263796031475067138671875</LatitudeDegrees>
              <LongitudeDegrees>-6.382026337087154388427734375</LongitudeDegrees>
            </Position>
            <AltitudeMeters>297.399993896484375</AltitudeMeters>
            <DistanceMeters>NAN</DistanceMeters>
          </Trackpoint>
          <Trackpoint>
            <Time>2019-10-09T11:17:49.000Z</Time>
            <Position>
              <LatitudeDegrees>38.77218752168118953704833984375</LatitudeDegrees>
              <LongitudeDegrees>-6.38201535679399967193603515625</LongitudeDegrees>
            </Position>
            <AltitudeMeters>296.600006103515625</AltitudeMeters>
            <DistanceMeters>NAN</DistanceMeters>
          </Trackpoint>
          <Trackpoint>
            <Time>2019-10-09T11:17:56.000Z</Time>
            <Position>
              <LatitudeDegrees>38.77171645872294902801513671875</LatitudeDegrees>
              <LongitudeDegrees>-6.3819007761776447296142578125</LongitudeDegrees>
            </Position>
            <AltitudeMeters>296.600006103515625</AltitudeMeters>
            <DistanceMeters>NAN</DistanceMeters>
          </Trackpoint>
          <Trackpoint>
            <Time>2019-10-09T11:18:00.000Z</Time>
            <Position>
              <LatitudeDegrees>38.77145268023014068603515625</LatitudeDegrees>
              <LongitudeDegrees>-6.38178854249417781829833984375</LongitudeDegrees>
            </Position>
            <AltitudeMeters>296</AltitudeMeters>
            <DistanceMeters>NAN</DistanceMeters>
          </Trackpoint>
          <Trackpoint>
            <Time>2019-10-09T11:18:01.000Z</Time>
            <Position>
              <LatitudeDegrees>38.77138872630894184112548828125</LatitudeDegrees>
              <LongitudeDegrees>-6.38175786472856998443603515625</LongitudeDegrees>
            </Position>
            <AltitudeMeters>296.20001220703125</AltitudeMeters>
            <DistanceMeters>NAN</DistanceMeters>
          </Trackpoint>
          <Trackpoint>
            <Time>2019-10-09T11:18:02.000Z</Time>
            <Position>
              <LatitudeDegrees>38.77132485620677471160888671875</LatitudeDegrees>
              <LongitudeDegrees>-6.381726600229740142822265625</LongitudeDegrees>
            </Position>
            <AltitudeMeters>296.600006103515625</AltitudeMeters>
            <DistanceMeters>NAN</DistanceMeters>
          </Trackpoint>
          <Trackpoint>
            <Time>2019-10-09T11:18:04.000Z</Time>
            <Position>
              <LatitudeDegrees>38.77119879238307476043701171875</LatitudeDegrees>
              <LongitudeDegrees>-6.3816634006798267364501953125</LongitudeDegrees>
            </Position>
            <AltitudeMeters>296.399993896484375</AltitudeMeters>
            <DistanceMeters>NAN</DistanceMeters>
          </Trackpoint>
          <Trackpoint>
            <Time>2019-10-09T11:18:12.000Z</Time>
            <Position>
              <LatitudeDegrees>38.77071239054203033447265625</LatitudeDegrees>
              <LongitudeDegrees>-6.38140616007149219512939453125</LongitudeDegrees>
            </Position>
            <AltitudeMeters>296.399993896484375</AltitudeMeters>
            <DistanceMeters>NAN</DistanceMeters>
          </Trackpoint>
          <Trackpoint>
            <Time>2019-10-09T11:18:14.000Z</Time>
            <Position>
              <LatitudeDegrees>38.77059395425021648406982421875</LatitudeDegrees>
              <LongitudeDegrees>-6.38134715147316455841064453125</LongitudeDegrees>
            </Position>
            <AltitudeMeters>296.399993896484375</AltitudeMeters>
            <DistanceMeters>NAN</DistanceMeters>
          </Trackpoint>
          <Trackpoint>
            <Time>2019-10-09T11:18:19.000Z</Time>
            <Position>
              <LatitudeDegrees>38.770295642316341400146484375</LatitudeDegrees>
              <LongitudeDegrees>-6.38121639378368854522705078125</LongitudeDegrees>
            </Position>
            <AltitudeMeters>296.600006103515625</AltitudeMeters>
            <DistanceMeters>NAN</DistanceMeters>
          </Trackpoint>
          <Trackpoint>
            <Time>2019-10-09T11:18:23.000Z</Time>
            <Position>
              <LatitudeDegrees>38.7700580991804599761962890625</LatitudeDegrees>
              <LongitudeDegrees>-6.38112008571624755859375</LongitudeDegrees>
            </Position>
            <AltitudeMeters>297.20001220703125</AltitudeMeters>
            <DistanceMeters>NAN</DistanceMeters>
          </Trackpoint>
          <Trackpoint>
            <Time>2019-10-09T11:18:32.000Z</Time>
            <Position>
              <LatitudeDegrees>38.76950916834175586700439453125</LatitudeDegrees>
              <LongitudeDegrees>-6.38096225447952747344970703125</LongitudeDegrees>
            </Position>
            <AltitudeMeters>297.20001220703125</AltitudeMeters>
            <DistanceMeters>NAN</DistanceMeters>
          </Trackpoint>
          <Trackpoint>
            <Time>2019-10-09T11:18:36.000Z</Time>
            <Position>
              <LatitudeDegrees>38.76925921998918056488037109375</LatitudeDegrees>
              <LongitudeDegrees>-6.3809086941182613372802734375</LongitudeDegrees>
            </Position>
            <AltitudeMeters>297.399993896484375</AltitudeMeters>
            <DistanceMeters>NAN</DistanceMeters>
          </Trackpoint>
          <Trackpoint>
            <Time>2019-10-09T11:18:42.000Z</Time>
            <Position>
              <LatitudeDegrees>38.768885470926761627197265625</LatitudeDegrees>
              <LongitudeDegrees>-6.3808563910424709320068359375</LongitudeDegrees>
            </Position>
            <AltitudeMeters>297.20001220703125</AltitudeMeters>
            <DistanceMeters>NAN</DistanceMeters>
          </Trackpoint>
          <Trackpoint>
            <Time>2019-10-09T11:18:45.000Z</Time>
            <Position>
              <LatitudeDegrees>38.7686987221240997314453125</LatitudeDegrees>
              <LongitudeDegrees>-6.38084113597869873046875</LongitudeDegrees>
            </Position>
            <AltitudeMeters>297.600006103515625</AltitudeMeters>
            <DistanceMeters>NAN</DistanceMeters>
          </Trackpoint>
          <Trackpoint>
            <Time>2019-10-09T11:18:50.000Z</Time>
            <Position>
              <LatitudeDegrees>38.76838850788772106170654296875</LatitudeDegrees>
              <LongitudeDegrees>-6.380828730762004852294921875</LongitudeDegrees>
            </Position>
            <AltitudeMeters>298.20001220703125</AltitudeMeters>
            <DistanceMeters>NAN</DistanceMeters>
          </Trackpoint>
          <Trackpoint>
            <Time>2019-10-09T11:18:59.000Z</Time>
            <Position>
              <LatitudeDegrees>38.76783546991646289825439453125</LatitudeDegrees>
              <LongitudeDegrees>-6.38086460530757904052734375</LongitudeDegrees>
            </Position>
            <AltitudeMeters>298.600006103515625</AltitudeMeters>
            <DistanceMeters>NAN</DistanceMeters>
          </Trackpoint>
          <Trackpoint>
            <Time>2019-10-09T11:19:01.000Z</Time>
            <Position>
              <LatitudeDegrees>38.76771393232047557830810546875</LatitudeDegrees>
              <LongitudeDegrees>-6.38088061474263668060302734375</LongitudeDegrees>
            </Position>
            <AltitudeMeters>298.79998779296875</AltitudeMeters>
            <DistanceMeters>NAN</DistanceMeters>
          </Trackpoint>
          <Trackpoint>
            <Time>2019-10-09T11:19:05.000Z</Time>
            <Position>
              <LatitudeDegrees>38.76747035421431064605712890625</LatitudeDegrees>
              <LongitudeDegrees>-6.38091984204947948455810546875</LongitudeDegrees>
            </Position>
            <AltitudeMeters>298.79998779296875</AltitudeMeters>
            <DistanceMeters>NAN</DistanceMeters>
          </Trackpoint>
          <Trackpoint>
            <Time>2019-10-09T11:19:08.000Z</Time>
            <Position>
              <LatitudeDegrees>38.767283856868743896484375</LatitudeDegrees>
              <LongitudeDegrees>-6.3809573091566562652587890625</LongitudeDegrees>
            </Position>
            <AltitudeMeters>299.20001220703125</AltitudeMeters>
            <DistanceMeters>NAN</DistanceMeters>
          </Trackpoint>
          <Trackpoint>
            <Time>2019-10-09T11:19:17.000Z</Time>
            <Position>
              <LatitudeDegrees>38.76672050915658473968505859375</LatitudeDegrees>
              <LongitudeDegrees>-6.381100974977016448974609375</LongitudeDegrees>
            </Position>
            <AltitudeMeters>298.20001220703125</AltitudeMeters>
            <DistanceMeters>NAN</DistanceMeters>
          </Trackpoint>
          <Trackpoint>
            <Time>2019-10-09T11:19:19.000Z</Time>
            <Position>
              <LatitudeDegrees>38.76659427769482135772705078125</LatitudeDegrees>
              <LongitudeDegrees>-6.3811402022838592529296875</LongitudeDegrees>
            </Position>
            <AltitudeMeters>298.20001220703125</AltitudeMeters>
            <DistanceMeters>NAN</DistanceMeters>
          </Trackpoint>
          <Trackpoint>
            <Time>2019-10-09T11:19:23.000Z</Time>
            <Position>
              <LatitudeDegrees>38.766332007944583892822265625</LatitudeDegrees>
              <LongitudeDegrees>-6.38122410513460636138916015625</LongitudeDegrees>
            </Position>
            <AltitudeMeters>297.600006103515625</AltitudeMeters>
            <DistanceMeters>NAN</DistanceMeters>
          </Trackpoint>
          <Trackpoint>
            <Time>2019-10-09T11:19:27.000Z</Time>
            <Position>
              <LatitudeDegrees>38.76605205237865447998046875</LatitudeDegrees>
              <LongitudeDegrees>-6.381318569183349609375</LongitudeDegrees>
            </Position>
            <AltitudeMeters>296.600006103515625</AltitudeMeters>
            <DistanceMeters>NAN</DistanceMeters>
          </Trackpoint>
          <Trackpoint>
            <Time>2019-10-09T11:19:28.000Z</Time>
            <Position>
              <LatitudeDegrees>38.76597887836396694183349609375</LatitudeDegrees>
              <LongitudeDegrees>-6.38134245760738849639892578125</LongitudeDegrees>
            </Position>
            <AltitudeMeters>296.20001220703125</AltitudeMeters>
            <DistanceMeters>NAN</DistanceMeters>
          </Trackpoint>
          <Trackpoint>
            <Time>2019-10-09T11:19:31.000Z</Time>
            <Position>
              <LatitudeDegrees>38.76575625501573085784912109375</LatitudeDegrees>
              <LongitudeDegrees>-6.381418816745281219482421875</LongitudeDegrees>
            </Position>
            <AltitudeMeters>295.20001220703125</AltitudeMeters>
            <DistanceMeters>NAN</DistanceMeters>
          </Trackpoint>
          <Trackpoint>
            <Time>2019-10-09T11:19:34.000Z</Time>
            <Position>
              <LatitudeDegrees>38.7655251659452915191650390625</LatitudeDegrees>
              <LongitudeDegrees>-6.3814927451312541961669921875</LongitudeDegrees>
            </Position>
            <AltitudeMeters>295.600006103515625</AltitudeMeters>
            <DistanceMeters>NAN</DistanceMeters>
          </Trackpoint>
          <Trackpoint>
            <Time>2019-10-09T11:19:35.000Z</Time>
            <Position>
              <LatitudeDegrees>38.76544612459838390350341796875</LatitudeDegrees>
              <LongitudeDegrees>-6.38151814229786396026611328125</LongitudeDegrees>
            </Position>
            <AltitudeMeters>294.79998779296875</AltitudeMeters>
            <DistanceMeters>NAN</DistanceMeters>
          </Trackpoint>
          <Trackpoint>
            <Time>2019-10-09T11:19:38.000Z</Time>
            <Position>
              <LatitudeDegrees>38.76520673744380474090576171875</LatitudeDegrees>
              <LongitudeDegrees>-6.38159894384443759918212890625</LongitudeDegrees>
            </Position>
            <AltitudeMeters>293.600006103515625</AltitudeMeters>
            <DistanceMeters>NAN</DistanceMeters>
          </Trackpoint>
          <Trackpoint>
            <Time>2019-10-09T11:19:43.000Z</Time>
            <Position>
              <LatitudeDegrees>38.76480306498706340789794921875</LatitudeDegrees>
              <LongitudeDegrees>-6.3817284442484378814697265625</LongitudeDegrees>
            </Position>
            <AltitudeMeters>292.600006103515625</AltitudeMeters>
            <DistanceMeters>NAN</DistanceMeters>
          </Trackpoint>
          <Trackpoint>
            <Time>2019-10-09T11:19:45.000Z</Time>
            <Position>
              <LatitudeDegrees>38.76464389264583587646484375</LatitudeDegrees>
              <LongitudeDegrees>-6.38177789747714996337890625</LongitudeDegrees>
            </Position>
            <AltitudeMeters>292.79998779296875</AltitudeMeters>
            <DistanceMeters>NAN</DistanceMeters>
          </Trackpoint>
          <Trackpoint>
            <Time>2019-10-09T11:19:49.000Z</Time>
            <Position>
              <LatitudeDegrees>38.7643294036388397216796875</LatitudeDegrees>
              <LongitudeDegrees>-6.381881497800350189208984375</LongitudeDegrees>
            </Position>
            <AltitudeMeters>292.79998779296875</AltitudeMeters>
            <DistanceMeters>NAN</DistanceMeters>
          </Trackpoint>
          <Trackpoint>
            <Time>2019-10-09T11:19:51.000Z</Time>
            <Position>
              <LatitudeDegrees>38.7641751766204833984375</LatitudeDegrees>
              <LongitudeDegrees>-6.381934471428394317626953125</LongitudeDegrees>
            </Position>
            <AltitudeMeters>292.600006103515625</AltitudeMeters>
            <DistanceMeters>NAN</DistanceMeters>
          </Trackpoint>
          <Trackpoint>
            <Time>2019-10-09T11:19:53.000Z</Time>
            <Position>
              <LatitudeDegrees>38.76402438618242740631103515625</LatitudeDegrees>
              <LongitudeDegrees>-6.381984762847423553466796875</LongitudeDegrees>
            </Position>
            <AltitudeMeters>292.399993896484375</AltitudeMeters>
            <DistanceMeters>NAN</DistanceMeters>
          </Trackpoint>
          <Trackpoint>
            <Time>2019-10-09T11:19:56.000Z</Time>
            <Position>
              <LatitudeDegrees>38.7638018466532230377197265625</LatitudeDegrees>
              <LongitudeDegrees>-6.382063888013362884521484375</LongitudeDegrees>
            </Position>
            <AltitudeMeters>294</AltitudeMeters>
            <DistanceMeters>NAN</DistanceMeters>
          </Trackpoint>
          <Trackpoint>
            <Time>2019-10-09T11:20:02.000Z</Time>
            <Position>
              <LatitudeDegrees>38.763357438147068023681640625</LatitudeDegrees>
              <LongitudeDegrees>-6.3822125829756259918212890625</LongitudeDegrees>
            </Position>
            <AltitudeMeters>294.20001220703125</AltitudeMeters>
            <DistanceMeters>NAN</DistanceMeters>
          </Trackpoint>
          <Trackpoint>
            <Time>2019-10-09T11:20:09.000Z</Time>
            <Position>
              <LatitudeDegrees>38.7628352455794811248779296875</LatitudeDegrees>
              <LongitudeDegrees>-6.38238566927611827850341796875</LongitudeDegrees>
            </Position>
            <AltitudeMeters>293</AltitudeMeters>
            <DistanceMeters>NAN</DistanceMeters>
          </Trackpoint>
          <Trackpoint>
            <Time>2019-10-09T11:20:11.000Z</Time>
            <Position>
              <LatitudeDegrees>38.7626823596656322479248046875</LatitudeDegrees>
              <LongitudeDegrees>-6.38243579305708408355712890625</LongitudeDegrees>
            </Position>
            <AltitudeMeters>292.79998779296875</AltitudeMeters>
            <DistanceMeters>NAN</DistanceMeters>
          </Trackpoint>
          <Trackpoint>
            <Time>2019-10-09T11:20:13.000Z</Time>
            <Position>
              <LatitudeDegrees>38.7625284679234027862548828125</LatitudeDegrees>
              <LongitudeDegrees>-6.382486335933208465576171875</LongitudeDegrees>
            </Position>
            <AltitudeMeters>291</AltitudeMeters>
            <DistanceMeters>NAN</DistanceMeters>
          </Trackpoint>
          <Trackpoint>
            <Time>2019-10-09T11:20:19.000Z</Time>
            <Position>
              <LatitudeDegrees>38.76206721179187297821044921875</LatitudeDegrees>
              <LongitudeDegrees>-6.38263142667710781097412109375</LongitudeDegrees>
            </Position>
            <AltitudeMeters>290.600006103515625</AltitudeMeters>
            <DistanceMeters>NAN</DistanceMeters>
          </Trackpoint>
          <Trackpoint>
            <Time>2019-10-09T11:20:23.000Z</Time>
            <Position>
              <LatitudeDegrees>38.76176965422928333282470703125</LatitudeDegrees>
              <LongitudeDegrees>-6.3827255554497241973876953125</LongitudeDegrees>
            </Position>
            <AltitudeMeters>290.79998779296875</AltitudeMeters>
            <DistanceMeters>NAN</DistanceMeters>
          </Trackpoint>
          <Trackpoint>
            <Time>2019-10-09T11:20:31.000Z</Time>
            <Position>
              <LatitudeDegrees>38.76119666732847690582275390625</LatitudeDegrees>
              <LongitudeDegrees>-6.38291381299495697021484375</LongitudeDegrees>
            </Position>
            <AltitudeMeters>290.600006103515625</AltitudeMeters>
            <DistanceMeters>NAN</DistanceMeters>
          </Trackpoint>
          <Trackpoint>
            <Time>2019-10-09T11:20:33.000Z</Time>
            <Position>
              <LatitudeDegrees>38.7610592879354953765869140625</LatitudeDegrees>
              <LongitudeDegrees>-6.3829602487385272979736328125</LongitudeDegrees>
            </Position>
            <AltitudeMeters>290.20001220703125</AltitudeMeters>
            <DistanceMeters>NAN</DistanceMeters>
          </Trackpoint>
          <Trackpoint>
            <Time>2019-10-09T11:20:41.000Z</Time>
            <Position>
              <LatitudeDegrees>38.76053935848176479339599609375</LatitudeDegrees>
              <LongitudeDegrees>-6.383132748305797576904296875</LongitudeDegrees>
            </Position>
            <AltitudeMeters>291</AltitudeMeters>
            <DistanceMeters>NAN</DistanceMeters>
          </Trackpoint>
          <Trackpoint>
            <Time>2019-10-09T11:20:42.000Z</Time>
            <Position>
              <LatitudeDegrees>38.76047548837959766387939453125</LatitudeDegrees>
              <LongitudeDegrees>-6.38315479271113872528076171875</LongitudeDegrees>
            </Position>
            <AltitudeMeters>291</AltitudeMeters>
            <DistanceMeters>NAN</DistanceMeters>
          </Trackpoint>
          <Trackpoint>
            <Time>2019-10-09T11:20:49.000Z</Time>
            <Position>
              <LatitudeDegrees>38.76004516147077083587646484375</LatitudeDegrees>
              <LongitudeDegrees>-6.3833029009401798248291015625</LongitudeDegrees>
            </Position>
            <AltitudeMeters>290.79998779296875</AltitudeMeters>
            <DistanceMeters>NAN</DistanceMeters>
          </Trackpoint>
          <Trackpoint>
            <Time>2019-10-09T11:20:50.000Z</Time>
            <Position>
              <LatitudeDegrees>38.75998313538730144500732421875</LatitudeDegrees>
              <LongitudeDegrees>-6.3833223469555377960205078125</LongitudeDegrees>
            </Position>
            <AltitudeMeters>291.20001220703125</AltitudeMeters>
            <DistanceMeters>NAN</DistanceMeters>
          </Trackpoint>
          <Trackpoint>
            <Time>2019-10-09T11:20:59.000Z</Time>
            <Position>
              <LatitudeDegrees>38.75944174826145172119140625</LatitudeDegrees>
              <LongitudeDegrees>-6.38349845074117183685302734375</LongitudeDegrees>
            </Position>
            <AltitudeMeters>291.20001220703125</AltitudeMeters>
            <DistanceMeters>NAN</DistanceMeters>
          </Trackpoint>
          <Trackpoint>
            <Time>2019-10-09T11:21:01.000Z</Time>
            <Position>
              <LatitudeDegrees>38.7593217194080352783203125</LatitudeDegrees>
              <LongitudeDegrees>-6.3835386000573635101318359375</LongitudeDegrees>
            </Position>
            <AltitudeMeters>291.399993896484375</AltitudeMeters>
            <DistanceMeters>NAN</DistanceMeters>
          </Trackpoint>
          <Trackpoint>
            <Time>2019-10-09T11:21:10.000Z</Time>
            <Position>
              <LatitudeDegrees>38.75876775942742824554443359375</LatitudeDegrees>
              <LongitudeDegrees>-6.38371068052947521209716796875</LongitudeDegrees>
            </Position>
            <AltitudeMeters>291.79998779296875</AltitudeMeters>
            <DistanceMeters>NAN</DistanceMeters>
          </Trackpoint>
          <Trackpoint>
            <Time>2019-10-09T11:21:11.000Z</Time>
            <Position>
              <LatitudeDegrees>38.75870606862008571624755859375</LatitudeDegrees>
              <LongitudeDegrees>-6.38373012654483318328857421875</LongitudeDegrees>
            </Position>
            <AltitudeMeters>292</AltitudeMeters>
            <DistanceMeters>NAN</DistanceMeters>
          </Trackpoint>
          <Trackpoint>
            <Time>2019-10-09T11:21:13.000Z</Time>
            <Position>
              <LatitudeDegrees>38.75858386047184467315673828125</LatitudeDegrees>
              <LongitudeDegrees>-6.383772790431976318359375</LongitudeDegrees>
            </Position>
            <AltitudeMeters>292.20001220703125</AltitudeMeters>
            <DistanceMeters>NAN</DistanceMeters>
          </Trackpoint>
          <Trackpoint>
            <Time>2019-10-09T11:21:22.000Z</Time>
            <Position>
              <LatitudeDegrees>38.75803920440375804901123046875</LatitudeDegrees>
              <LongitudeDegrees>-6.38395492918789386749267578125</LongitudeDegrees>
            </Position>
            <AltitudeMeters>292</AltitudeMeters>
            <DistanceMeters>NAN</DistanceMeters>
          </Trackpoint>
          <Trackpoint>
            <Time>2019-10-09T11:21:31.000Z</Time>
            <Position>
              <LatitudeDegrees>38.75750477425754070281982421875</LatitudeDegrees>
              <LongitudeDegrees>-6.384130530059337615966796875</LongitudeDegrees>
            </Position>
            <AltitudeMeters>291.79998779296875</AltitudeMeters>
            <DistanceMeters>NAN</DistanceMeters>
          </Trackpoint>
          <Trackpoint>
            <Time>2019-10-09T11:21:32.000Z</Time>
            <Position>
              <LatitudeDegrees>38.75744576565921306610107421875</LatitudeDegrees>
              <LongitudeDegrees>-6.38415106572210788726806640625</LongitudeDegrees>
            </Position>
            <AltitudeMeters>292.20001220703125</AltitudeMeters>
            <DistanceMeters>NAN</DistanceMeters>
          </Trackpoint>
          <Trackpoint>
            <Time>2019-10-09T11:21:40.000Z</Time>
            <Position>
              <LatitudeDegrees>38.756969086825847625732421875</LatitudeDegrees>
              <LongitudeDegrees>-6.38430344872176647186279296875</LongitudeDegrees>
            </Position>
            <AltitudeMeters>292.20001220703125</AltitudeMeters>
            <DistanceMeters>NAN</DistanceMeters>
          </Trackpoint>
          <Trackpoint>
            <Time>2019-10-09T11:21:43.000Z</Time>
            <Position>
              <LatitudeDegrees>38.75679013319313526153564453125</LatitudeDegrees>
              <LongitudeDegrees>-6.38435759581625461578369140625</LongitudeDegrees>
            </Position>
            <AltitudeMeters>293.20001220703125</AltitudeMeters>
            <DistanceMeters>NAN</DistanceMeters>
          </Trackpoint>
          <Trackpoint>
            <Time>2019-10-09T11:21:52.000Z</Time>
            <Position>
              <LatitudeDegrees>38.75624899752438068389892578125</LatitudeDegrees>
              <LongitudeDegrees>-6.38453713618218898773193359375</LongitudeDegrees>
            </Position>
            <AltitudeMeters>293.399993896484375</AltitudeMeters>
            <DistanceMeters>NAN</DistanceMeters>
          </Trackpoint>
          <Trackpoint>
            <Time>2019-10-09T11:21:55.000Z</Time>
            <Position>
              <LatitudeDegrees>38.7560670264065265655517578125</LatitudeDegrees>
              <LongitudeDegrees>-6.3845975697040557861328125</LongitudeDegrees>
            </Position>
            <AltitudeMeters>293.79998779296875</AltitudeMeters>
            <DistanceMeters>NAN</DistanceMeters>
          </Trackpoint>
          <Trackpoint>
            <Time>2019-10-09T11:22:04.000Z</Time>
            <Position>
              <LatitudeDegrees>38.75551708973944187164306640625</LatitudeDegrees>
              <LongitudeDegrees>-6.38477887026965618133544921875</LongitudeDegrees>
            </Position>
            <AltitudeMeters>294</AltitudeMeters>
            <DistanceMeters>NAN</DistanceMeters>
          </Trackpoint>
          <Trackpoint>
            <Time>2019-10-09T11:22:11.000Z</Time>
            <Position>
              <LatitudeDegrees>38.75508776865899562835693359375</LatitudeDegrees>
              <LongitudeDegrees>-6.3849140703678131103515625</LongitudeDegrees>
            </Position>
            <AltitudeMeters>294.399993896484375</AltitudeMeters>
            <DistanceMeters>NAN</DistanceMeters>
          </Trackpoint>
          <Trackpoint>
            <Time>2019-10-09T11:22:13.000Z</Time>
            <Position>
              <LatitudeDegrees>38.754967153072357177734375</LatitudeDegrees>
              <LongitudeDegrees>-6.3849507831037044525146484375</LongitudeDegrees>
            </Position>
            <AltitudeMeters>294.20001220703125</AltitudeMeters>
            <DistanceMeters>NAN</DistanceMeters>
          </Trackpoint>
          <Trackpoint>
            <Time>2019-10-09T11:22:20.000Z</Time>
            <Position>
              <LatitudeDegrees>38.75454797409474849700927734375</LatitudeDegrees>
              <LongitudeDegrees>-6.3850892521440982818603515625</LongitudeDegrees>
            </Position>
            <AltitudeMeters>294.600006103515625</AltitudeMeters>
            <DistanceMeters>NAN</DistanceMeters>
          </Trackpoint>
          <Trackpoint>
            <Time>2019-10-09T11:22:27.000Z</Time>
            <Position>
              <LatitudeDegrees>38.7541101872920989990234375</LatitudeDegrees>
              <LongitudeDegrees>-6.3852411322295665740966796875</LongitudeDegrees>
            </Position>
            <AltitudeMeters>295.399993896484375</AltitudeMeters>
            <DistanceMeters>NAN</DistanceMeters>
          </Trackpoint>
          <Trackpoint>
            <Time>2019-10-09T11:22:35.000Z</Time>
            <Position>
              <LatitudeDegrees>38.75361506827175617218017578125</LatitudeDegrees>
              <LongitudeDegrees>-6.38540918938815593719482421875</LongitudeDegrees>
            </Position>
            <AltitudeMeters>294.79998779296875</AltitudeMeters>
            <DistanceMeters>NAN</DistanceMeters>
          </Trackpoint>
          <Trackpoint>
            <Time>2019-10-09T11:22:41.000Z</Time>
            <Position>
              <LatitudeDegrees>38.753255903720855712890625</LatitudeDegrees>
              <LongitudeDegrees>-6.38552226126194000244140625</LongitudeDegrees>
            </Position>
            <AltitudeMeters>294.600006103515625</AltitudeMeters>
            <DistanceMeters>NAN</DistanceMeters>
          </Trackpoint>
          <Trackpoint>
            <Time>2019-10-09T11:22:44.000Z</Time>
            <Position>
              <LatitudeDegrees>38.7530775368213653564453125</LatitudeDegrees>
              <LongitudeDegrees>-6.3855797611176967620849609375</LongitudeDegrees>
            </Position>
            <AltitudeMeters>294.79998779296875</AltitudeMeters>
            <DistanceMeters>NAN</DistanceMeters>
          </Trackpoint>
          <Trackpoint>
            <Time>2019-10-09T11:22:50.000Z</Time>
            <Position>
              <LatitudeDegrees>38.75271250493824481964111328125</LatitudeDegrees>
              <LongitudeDegrees>-6.3857024721801280975341796875</LongitudeDegrees>
            </Position>
            <AltitudeMeters>294.399993896484375</AltitudeMeters>
            <DistanceMeters>NAN</DistanceMeters>
          </Trackpoint>
          <Trackpoint>
            <Time>2019-10-09T11:22:54.000Z</Time>
            <Position>
              <LatitudeDegrees>38.75246666371822357177734375</LatitudeDegrees>
              <LongitudeDegrees>-6.3857842795550823211669921875</LongitudeDegrees>
            </Position>
            <AltitudeMeters>294.20001220703125</AltitudeMeters>
            <DistanceMeters>NAN</DistanceMeters>
          </Trackpoint>
          <Trackpoint>
            <Time>2019-10-09T11:23:03.000Z</Time>
            <Position>
              <LatitudeDegrees>38.751907087862491607666015625</LatitudeDegrees>
              <LongitudeDegrees>-6.3859559409320354461669921875</LongitudeDegrees>
            </Position>
            <AltitudeMeters>293.600006103515625</AltitudeMeters>
            <DistanceMeters>NAN</DistanceMeters>
          </Trackpoint>
          <Trackpoint>
            <Time>2019-10-09T11:23:06.000Z</Time>
            <Position>
              <LatitudeDegrees>38.7517195008695125579833984375</LatitudeDegrees>
              <LongitudeDegrees>-6.386017464101314544677734375</LongitudeDegrees>
            </Position>
            <AltitudeMeters>294.20001220703125</AltitudeMeters>
            <DistanceMeters>NAN</DistanceMeters>
          </Trackpoint>
          <Trackpoint>
            <Time>2019-10-09T11:23:15.000Z</Time>
            <Position>
              <LatitudeDegrees>38.751156069338321685791015625</LatitudeDegrees>
              <LongitudeDegrees>-6.3862043805420398712158203125</LongitudeDegrees>
            </Position>
            <AltitudeMeters>294.20001220703125</AltitudeMeters>
            <DistanceMeters>NAN</DistanceMeters>
          </Trackpoint>
          <Trackpoint>
            <Time>2019-10-09T11:23:17.000Z</Time>
            <Position>
              <LatitudeDegrees>38.75102925114333629608154296875</LatitudeDegrees>
              <LongitudeDegrees>-6.3862462900578975677490234375</LongitudeDegrees>
            </Position>
            <AltitudeMeters>294.600006103515625</AltitudeMeters>
            <DistanceMeters>NAN</DistanceMeters>
          </Trackpoint>
          <Trackpoint>
            <Time>2019-10-09T11:23:26.000Z</Time>
            <Position>
              <LatitudeDegrees>38.7504699267446994781494140625</LatitudeDegrees>
              <LongitudeDegrees>-6.38642138801515102386474609375</LongitudeDegrees>
            </Position>
            <AltitudeMeters>294.79998779296875</AltitudeMeters>
            <DistanceMeters>NAN</DistanceMeters>
          </Trackpoint>
          <Trackpoint>
            <Time>2019-10-09T11:23:35.000Z</Time>
            <Position>
              <LatitudeDegrees>38.74992124736309051513671875</LatitudeDegrees>
              <LongitudeDegrees>-6.38660042546689510345458984375</LongitudeDegrees>
            </Position>
            <AltitudeMeters>295.20001220703125</AltitudeMeters>
            <DistanceMeters>NAN</DistanceMeters>
          </Trackpoint>
          <Trackpoint>
            <Time>2019-10-09T11:23:37.000Z</Time>
            <Position>
              <LatitudeDegrees>38.74979878775775432586669921875</LatitudeDegrees>
              <LongitudeDegrees>-6.38663931749761104583740234375</LongitudeDegrees>
            </Position>
            <AltitudeMeters>295.20001220703125</AltitudeMeters>
            <DistanceMeters>NAN</DistanceMeters>
          </Trackpoint>
          <Trackpoint>
            <Time>2019-10-09T11:23:40.000Z</Time>
            <Position>
              <LatitudeDegrees>38.749613799154758453369140625</LatitudeDegrees>
              <LongitudeDegrees>-6.38670645654201507568359375</LongitudeDegrees>
            </Position>
            <AltitudeMeters>295.399993896484375</AltitudeMeters>
            <DistanceMeters>NAN</DistanceMeters>
          </Trackpoint>
          <Trackpoint>
            <Time>2019-10-09T11:23:46.000Z</Time>
            <Position>
              <LatitudeDegrees>38.74924725852906703948974609375</LatitudeDegrees>
              <LongitudeDegrees>-6.3868300057947635650634765625</LongitudeDegrees>
            </Position>
            <AltitudeMeters>296</AltitudeMeters>
            <DistanceMeters>NAN</DistanceMeters>
          </Trackpoint>
          <Trackpoint>
            <Time>2019-10-09T11:23:55.000Z</Time>
            <Position>
              <LatitudeDegrees>38.74867494218051433563232421875</LatitudeDegrees>
              <LongitudeDegrees>-6.38700443319976329803466796875</LongitudeDegrees>
            </Position>
            <AltitudeMeters>295.600006103515625</AltitudeMeters>
            <DistanceMeters>NAN</DistanceMeters>
          </Trackpoint>
          <Trackpoint>
            <Time>2019-10-09T11:23:56.000Z</Time>
            <Position>
              <LatitudeDegrees>38.74860889278352260589599609375</LatitudeDegrees>
              <LongitudeDegrees>-6.38702538795769214630126953125</LongitudeDegrees>
            </Position>
            <AltitudeMeters>295.600006103515625</AltitudeMeters>
            <DistanceMeters>NAN</DistanceMeters>
          </Trackpoint>
          <Trackpoint>
            <Time>2019-10-09T11:24:04.000Z</Time>
            <Position>
              <LatitudeDegrees>38.748065494000911712646484375</LatitudeDegrees>
              <LongitudeDegrees>-6.3872073590755462646484375</LongitudeDegrees>
            </Position>
            <AltitudeMeters>294.399993896484375</AltitudeMeters>
            <DistanceMeters>NAN</DistanceMeters>
          </Trackpoint>
          <Trackpoint>
            <Time>2019-10-09T11:24:06.000Z</Time>
            <Position>
              <LatitudeDegrees>38.74792568385601043701171875</LatitudeDegrees>
              <LongitudeDegrees>-6.38725253753364086151123046875</LongitudeDegrees>
            </Position>
            <AltitudeMeters>294</AltitudeMeters>
            <DistanceMeters>NAN</DistanceMeters>
          </Trackpoint>
          <Trackpoint>
            <Time>2019-10-09T11:24:14.000Z</Time>
            <Position>
              <LatitudeDegrees>38.7473535351455211639404296875</LatitudeDegrees>
              <LongitudeDegrees>-6.3874341733753681182861328125</LongitudeDegrees>
            </Position>
            <AltitudeMeters>294.20001220703125</AltitudeMeters>
            <DistanceMeters>NAN</DistanceMeters>
          </Trackpoint>
          <Trackpoint>
            <Time>2019-10-09T11:24:18.000Z</Time>
            <Position>
              <LatitudeDegrees>38.7470618449151515960693359375</LatitudeDegrees>
              <LongitudeDegrees>-6.38752779923379421234130859375</LongitudeDegrees>
            </Position>
            <AltitudeMeters>293.79998779296875</AltitudeMeters>
            <DistanceMeters>NAN</DistanceMeters>
          </Trackpoint>
          <Trackpoint>
            <Time>2019-10-09T11:24:26.000Z</Time>
            <Position>
              <LatitudeDegrees>38.74648558907210826873779296875</LatitudeDegrees>
              <LongitudeDegrees>-6.38772158883512020111083984375</LongitudeDegrees>
            </Position>
            <AltitudeMeters>294.399993896484375</AltitudeMeters>
            <DistanceMeters>NAN</DistanceMeters>
          </Trackpoint>
          <Trackpoint>
            <Time>2019-10-09T11:24:30.000Z</Time>
            <Position>
              <LatitudeDegrees>38.7461998499929904937744140625</LatitudeDegrees>
              <LongitudeDegrees>-6.38781881891191005706787109375</LongitudeDegrees>
            </Position>
            <AltitudeMeters>294</AltitudeMeters>
            <DistanceMeters>NAN</DistanceMeters>
          </Trackpoint>
          <Trackpoint>
            <Time>2019-10-09T11:24:38.000Z</Time>
            <Position>
              <LatitudeDegrees>38.7456392683088779449462890625</LatitudeDegrees>
              <LongitudeDegrees>-6.3879940845072269439697265625</LongitudeDegrees>
            </Position>
            <AltitudeMeters>293.600006103515625</AltitudeMeters>
            <DistanceMeters>NAN</DistanceMeters>
          </Trackpoint>
          <Trackpoint>
            <Time>2019-10-09T11:24:41.000Z</Time>
            <Position>
              <LatitudeDegrees>38.74543818645179271697998046875</LatitudeDegrees>
              <LongitudeDegrees>-6.38806122355163097381591796875</LongitudeDegrees>
            </Position>
            <AltitudeMeters>294.399993896484375</AltitudeMeters>
            <DistanceMeters>NAN</DistanceMeters>
          </Trackpoint>
          <Trackpoint>
            <Time>2019-10-09T11:24:49.000Z</Time>
            <Position>
              <LatitudeDegrees>38.74491624534130096435546875</LatitudeDegrees>
              <LongitudeDegrees>-6.38822861015796661376953125</LongitudeDegrees>
            </Position>
            <AltitudeMeters>294.399993896484375</AltitudeMeters>
            <DistanceMeters>NAN</DistanceMeters>
          </Trackpoint>
          <Trackpoint>
            <Time>2019-10-09T11:24:52.000Z</Time>
            <Position>
              <LatitudeDegrees>38.74473251402378082275390625</LatitudeDegrees>
              <LongitudeDegrees>-6.38829507865011692047119140625</LongitudeDegrees>
            </Position>
            <AltitudeMeters>294.399993896484375</AltitudeMeters>
            <DistanceMeters>NAN</DistanceMeters>
          </Trackpoint>
          <Trackpoint>
            <Time>2019-10-09T11:24:57.000Z</Time>
            <Position>
              <LatitudeDegrees>38.74444560147821903228759765625</LatitudeDegrees>
              <LongitudeDegrees>-6.38838409446179866790771484375</LongitudeDegrees>
            </Position>
            <AltitudeMeters>295.600006103515625</AltitudeMeters>
            <DistanceMeters>NAN</DistanceMeters>
          </Trackpoint>
          <Trackpoint>
            <Time>2019-10-09T11:25:00.000Z</Time>
            <Position>
              <LatitudeDegrees>38.74427980743348598480224609375</LatitudeDegrees>
              <LongitudeDegrees>-6.38843757100403308868408203125</LongitudeDegrees>
            </Position>
            <AltitudeMeters>295.79998779296875</AltitudeMeters>
            <DistanceMeters>NAN</DistanceMeters>
          </Trackpoint>
          <Trackpoint>
            <Time>2019-10-09T11:25:06.000Z</Time>
            <Position>
              <LatitudeDegrees>38.74395375140011310577392578125</LatitudeDegrees>
              <LongitudeDegrees>-6.388547457754611968994140625</LongitudeDegrees>
            </Position>
            <AltitudeMeters>296.399993896484375</AltitudeMeters>
            <DistanceMeters>NAN</DistanceMeters>
          </Trackpoint>
          <Trackpoint>
            <Time>2019-10-09T11:25:08.000Z</Time>
            <Position>
              <LatitudeDegrees>38.74384344555437564849853515625</LatitudeDegrees>
              <LongitudeDegrees>-6.388580314815044403076171875</LongitudeDegrees>
            </Position>
            <AltitudeMeters>296.600006103515625</AltitudeMeters>
            <DistanceMeters>NAN</DistanceMeters>
          </Trackpoint>
          <Trackpoint>
            <Time>2019-10-09T11:25:12.000Z</Time>
            <Position>
              <LatitudeDegrees>38.74361964873969554901123046875</LatitudeDegrees>
              <LongitudeDegrees>-6.3886539079248905181884765625</LongitudeDegrees>
            </Position>
            <AltitudeMeters>296.79998779296875</AltitudeMeters>
            <DistanceMeters>NAN</DistanceMeters>
          </Trackpoint>
          <Trackpoint>
            <Time>2019-10-09T11:25:21.000Z</Time>
            <Position>
              <LatitudeDegrees>38.7430945225059986114501953125</LatitudeDegrees>
              <LongitudeDegrees>-6.3888255693018436431884765625</LongitudeDegrees>
            </Position>
            <AltitudeMeters>296</AltitudeMeters>
            <DistanceMeters>NAN</DistanceMeters>
          </Trackpoint>
          <Trackpoint>
            <Time>2019-10-09T11:25:22.000Z</Time>
            <Position>
              <LatitudeDegrees>38.74303593300282955169677734375</LatitudeDegrees>
              <LongitudeDegrees>-6.38884484767913818359375</LongitudeDegrees>
            </Position>
            <AltitudeMeters>295.600006103515625</AltitudeMeters>
            <DistanceMeters>NAN</DistanceMeters>
          </Trackpoint>
          <Trackpoint>
            <Time>2019-10-09T11:25:26.000Z</Time>
            <Position>
              <LatitudeDegrees>38.74280258081853389739990234375</LatitudeDegrees>
              <LongitudeDegrees>-6.3889224641025066375732421875</LongitudeDegrees>
            </Position>
            <AltitudeMeters>295.600006103515625</AltitudeMeters>
            <DistanceMeters>NAN</DistanceMeters>
          </Trackpoint>
          <Trackpoint>
            <Time>2019-10-09T11:25:32.000Z</Time>
            <Position>
              <LatitudeDegrees>38.7424581684172153472900390625</LatitudeDegrees>
              <LongitudeDegrees>-6.389032937586307525634765625</LongitudeDegrees>
            </Position>
            <AltitudeMeters>295.399993896484375</AltitudeMeters>
            <DistanceMeters>NAN</DistanceMeters>
          </Trackpoint>
          <Trackpoint>
            <Time>2019-10-09T11:25:41.000Z</Time>
            <Position>
              <LatitudeDegrees>38.74194695614278316497802734375</LatitudeDegrees>
              <LongitudeDegrees>-6.38920552097260951995849609375</LongitudeDegrees>
            </Position>
            <AltitudeMeters>296</AltitudeMeters>
            <DistanceMeters>NAN</DistanceMeters>
          </Trackpoint>
          <Trackpoint>
            <Time>2019-10-09T11:25:42.000Z</Time>
            <Position>
              <LatitudeDegrees>38.74188777990639209747314453125</LatitudeDegrees>
              <LongitudeDegrees>-6.389228403568267822265625</LongitudeDegrees>
            </Position>
            <AltitudeMeters>296.20001220703125</AltitudeMeters>
            <DistanceMeters>NAN</DistanceMeters>
          </Trackpoint>
          <Trackpoint>
            <Time>2019-10-09T11:25:49.000Z</Time>
            <Position>
              <LatitudeDegrees>38.7414664216339588165283203125</LatitudeDegrees>
              <LongitudeDegrees>-6.38936259783804416656494140625</LongitudeDegrees>
            </Position>
            <AltitudeMeters>296.20001220703125</AltitudeMeters>
            <DistanceMeters>NAN</DistanceMeters>
          </Trackpoint>
          <Trackpoint>
            <Time>2019-10-09T11:25:54.000Z</Time>
            <Position>
              <LatitudeDegrees>38.7411532737314701080322265625</LatitudeDegrees>
              <LongitudeDegrees>-6.38946150429546833038330078125</LongitudeDegrees>
            </Position>
            <AltitudeMeters>296</AltitudeMeters>
            <DistanceMeters>NAN</DistanceMeters>
          </Trackpoint>
          <Trackpoint>
            <Time>2019-10-09T11:25:56.000Z</Time>
            <Position>
              <LatitudeDegrees>38.74102729372680187225341796875</LatitudeDegrees>
              <LongitudeDegrees>-6.38950190506875514984130859375</LongitudeDegrees>
            </Position>
            <AltitudeMeters>296.600006103515625</AltitudeMeters>
            <DistanceMeters>NAN</DistanceMeters>
          </Trackpoint>
          <Trackpoint>
            <Time>2019-10-09T11:26:05.000Z</Time>
            <Position>
              <LatitudeDegrees>38.7404595874249935150146484375</LatitudeDegrees>
              <LongitudeDegrees>-6.38967859558761119842529296875</LongitudeDegrees>
            </Position>
            <AltitudeMeters>297.399993896484375</AltitudeMeters>
            <DistanceMeters>NAN</DistanceMeters>
          </Trackpoint>
          <Trackpoint>
            <Time>2019-10-09T11:26:08.000Z</Time>
            <Position>
              <LatitudeDegrees>38.74027141369879245758056640625</LatitudeDegrees>
              <LongitudeDegrees>-6.38974380679428577423095703125</LongitudeDegrees>
            </Position>
            <AltitudeMeters>297.600006103515625</AltitudeMeters>
            <DistanceMeters>NAN</DistanceMeters>
          </Trackpoint>
          <Trackpoint>
            <Time>2019-10-09T11:26:17.000Z</Time>
            <Position>
              <LatitudeDegrees>38.73971686698496341705322265625</LatitudeDegrees>
              <LongitudeDegrees>-6.38993759639561176300048828125</LongitudeDegrees>
            </Position>
            <AltitudeMeters>297.399993896484375</AltitudeMeters>
            <DistanceMeters>NAN</DistanceMeters>
          </Trackpoint>
          <Trackpoint>
            <Time>2019-10-09T11:26:19.000Z</Time>
            <Position>
              <LatitudeDegrees>38.73959549702703952789306640625</LatitudeDegrees>
              <LongitudeDegrees>-6.38998604379594326019287109375</LongitudeDegrees>
            </Position>
            <AltitudeMeters>297</AltitudeMeters>
            <DistanceMeters>NAN</DistanceMeters>
          </Trackpoint>
          <Trackpoint>
            <Time>2019-10-09T11:26:25.000Z</Time>
            <Position>
              <LatitudeDegrees>38.7392287887632846832275390625</LatitudeDegrees>
              <LongitudeDegrees>-6.39011646620929241180419921875</LongitudeDegrees>
            </Position>
            <AltitudeMeters>297.79998779296875</AltitudeMeters>
            <DistanceMeters>NAN</DistanceMeters>
          </Trackpoint>
          <Trackpoint>
            <Time>2019-10-09T11:26:30.000Z</Time>
            <Position>
              <LatitudeDegrees>38.7389183230698108673095703125</LatitudeDegrees>
              <LongitudeDegrees>-6.390213780105113983154296875</LongitudeDegrees>
            </Position>
            <AltitudeMeters>298</AltitudeMeters>
            <DistanceMeters>NAN</DistanceMeters>
          </Trackpoint>
          <Trackpoint>
            <Time>2019-10-09T11:26:39.000Z</Time>
            <Position>
              <LatitudeDegrees>38.7383513711392879486083984375</LatitudeDegrees>
              <LongitudeDegrees>-6.3903889618813991546630859375</LongitudeDegrees>
            </Position>
            <AltitudeMeters>297.79998779296875</AltitudeMeters>
            <DistanceMeters>NAN</DistanceMeters>
          </Trackpoint>
          <Trackpoint>
            <Time>2019-10-09T11:26:40.000Z</Time>
            <Position>
              <LatitudeDegrees>38.73828808777034282684326171875</LatitudeDegrees>
              <LongitudeDegrees>-6.390408910810947418212890625</LongitudeDegrees>
            </Position>
            <AltitudeMeters>298</AltitudeMeters>
            <DistanceMeters>NAN</DistanceMeters>
          </Trackpoint>
          <Trackpoint>
            <Time>2019-10-09T11:26:49.000Z</Time>
            <Position>
              <LatitudeDegrees>38.73772867955267429351806640625</LatitudeDegrees>
              <LongitudeDegrees>-6.3905767165124416351318359375</LongitudeDegrees>
            </Position>
            <AltitudeMeters>298</AltitudeMeters>
            <DistanceMeters>NAN</DistanceMeters>
          </Trackpoint>
          <Trackpoint>
            <Time>2019-10-09T11:26:50.000Z</Time>
            <Position>
              <LatitudeDegrees>38.73766648583114147186279296875</LatitudeDegrees>
              <LongitudeDegrees>-6.39059574343264102935791015625</LongitudeDegrees>
            </Position>
            <AltitudeMeters>298.399993896484375</AltitudeMeters>
            <DistanceMeters>NAN</DistanceMeters>
          </Trackpoint>
          <Trackpoint>
            <Time>2019-10-09T11:26:52.000Z</Time>
            <Position>
              <LatitudeDegrees>38.73754327185451984405517578125</LatitudeDegrees>
              <LongitudeDegrees>-6.39063589274883270263671875</LongitudeDegrees>
            </Position>
            <AltitudeMeters>299.20001220703125</AltitudeMeters>
            <DistanceMeters>NAN</DistanceMeters>
          </Trackpoint>
          <Trackpoint>
            <Time>2019-10-09T11:27:01.000Z</Time>
            <Position>
              <LatitudeDegrees>38.736992664635181427001953125</LatitudeDegrees>
              <LongitudeDegrees>-6.3908157683908939361572265625</LongitudeDegrees>
            </Position>
            <AltitudeMeters>298.79998779296875</AltitudeMeters>
            <DistanceMeters>NAN</DistanceMeters>
          </Trackpoint>
          <Trackpoint>
            <Time>2019-10-09T11:27:10.000Z</Time>
            <Position>
              <LatitudeDegrees>38.73646234162151813507080078125</LatitudeDegrees>
              <LongitudeDegrees>-6.39098918996751308441162109375</LongitudeDegrees>
            </Position>
            <AltitudeMeters>300</AltitudeMeters>
            <DistanceMeters>NAN</DistanceMeters>
          </Trackpoint>
          <Trackpoint>
            <Time>2019-10-09T11:27:11.000Z</Time>
            <Position>
              <LatitudeDegrees>38.73640500940382480621337890625</LatitudeDegrees>
              <LongitudeDegrees>-6.3910072110593318939208984375</LongitudeDegrees>
            </Position>
            <AltitudeMeters>299.79998779296875</AltitudeMeters>
            <DistanceMeters>NAN</DistanceMeters>
          </Trackpoint>
          <Trackpoint>
            <Time>2019-10-09T11:27:14.000Z</Time>
            <Position>
              <LatitudeDegrees>38.7362327612936496734619140625</LatitudeDegrees>
              <LongitudeDegrees>-6.39106060378253459930419921875</LongitudeDegrees>
            </Position>
            <AltitudeMeters>300.20001220703125</AltitudeMeters>
            <DistanceMeters>NAN</DistanceMeters>
          </Trackpoint>
          <Trackpoint>
            <Time>2019-10-09T11:27:21.000Z</Time>
            <Position>
              <LatitudeDegrees>38.7358304299414157867431640625</LatitudeDegrees>
              <LongitudeDegrees>-6.39118214137852191925048828125</LongitudeDegrees>
            </Position>
            <AltitudeMeters>300.79998779296875</AltitudeMeters>
            <DistanceMeters>NAN</DistanceMeters>
          </Trackpoint>
          <Trackpoint>
            <Time>2019-10-09T11:27:30.000Z</Time>
            <Position>
              <LatitudeDegrees>38.73531988821923732757568359375</LatitudeDegrees>
              <LongitudeDegrees>-6.3913579098880290985107421875</LongitudeDegrees>
            </Position>
            <AltitudeMeters>300.20001220703125</AltitudeMeters>
            <DistanceMeters>NAN</DistanceMeters>
          </Trackpoint>
          <Trackpoint>
            <Time>2019-10-09T11:27:39.000Z</Time>
            <Position>
              <LatitudeDegrees>38.73481571674346923828125</LatitudeDegrees>
              <LongitudeDegrees>-6.39152429066598415374755859375</LongitudeDegrees>
            </Position>
            <AltitudeMeters>300.79998779296875</AltitudeMeters>
            <DistanceMeters>NAN</DistanceMeters>
          </Trackpoint>
          <Trackpoint>
            <Time>2019-10-09T11:27:48.000Z</Time>
            <Position>
              <LatitudeDegrees>38.7342848069965839385986328125</LatitudeDegrees>
              <LongitudeDegrees>-6.39169310219585895538330078125</LongitudeDegrees>
            </Position>
            <AltitudeMeters>301</AltitudeMeters>
            <DistanceMeters>NAN</DistanceMeters>
          </Trackpoint>
          <Trackpoint>
            <Time>2019-10-09T11:27:56.000Z</Time>
            <Position>
              <LatitudeDegrees>38.73381064273416996002197265625</LatitudeDegrees>
              <LongitudeDegrees>-6.3918544538319110870361328125</LongitudeDegrees>
            </Position>
            <AltitudeMeters>301</AltitudeMeters>
            <DistanceMeters>NAN</DistanceMeters>
          </Trackpoint>
          <Trackpoint>
            <Time>2019-10-09T11:27:59.000Z</Time>
            <Position>
              <LatitudeDegrees>38.73363378457725048065185546875</LatitudeDegrees>
              <LongitudeDegrees>-6.39191119931638240814208984375</LongitudeDegrees>
            </Position>
            <AltitudeMeters>301.399993896484375</AltitudeMeters>
            <DistanceMeters>NAN</DistanceMeters>
          </Trackpoint>
          <Trackpoint>
            <Time>2019-10-09T11:28:08.000Z</Time>
            <Position>
              <LatitudeDegrees>38.73311293311417102813720703125</LatitudeDegrees>
              <LongitudeDegrees>-6.39207967557013034820556640625</LongitudeDegrees>
            </Position>
            <AltitudeMeters>301.20001220703125</AltitudeMeters>
            <DistanceMeters>NAN</DistanceMeters>
          </Trackpoint>
          <Trackpoint>
            <Time>2019-10-09T11:28:09.000Z</Time>
            <Position>
              <LatitudeDegrees>38.73305526562035083770751953125</LatitudeDegrees>
              <LongitudeDegrees>-6.39209635555744171142578125</LongitudeDegrees>
            </Position>
            <AltitudeMeters>301.79998779296875</AltitudeMeters>
            <DistanceMeters>NAN</DistanceMeters>
          </Trackpoint>
          <Trackpoint>
            <Time>2019-10-09T11:28:18.000Z</Time>
            <Position>
              <LatitudeDegrees>38.73253257013857364654541015625</LatitudeDegrees>
              <LongitudeDegrees>-6.39226223342120647430419921875</LongitudeDegrees>
            </Position>
            <AltitudeMeters>301.399993896484375</AltitudeMeters>
            <DistanceMeters>NAN</DistanceMeters>
          </Trackpoint>
          <Trackpoint>
            <Time>2019-10-09T11:28:19.000Z</Time>
            <Position>
              <LatitudeDegrees>38.73247322626411914825439453125</LatitudeDegrees>
              <LongitudeDegrees>-6.3922820985317230224609375</LongitudeDegrees>
            </Position>
            <AltitudeMeters>301.399993896484375</AltitudeMeters>
            <DistanceMeters>NAN</DistanceMeters>
          </Trackpoint>
          <Trackpoint>
            <Time>2019-10-09T11:28:27.000Z</Time>
            <Position>
              <LatitudeDegrees>38.7320129759609699249267578125</LatitudeDegrees>
              <LongitudeDegrees>-6.392433978617191314697265625</LongitudeDegrees>
            </Position>
            <AltitudeMeters>301.600006103515625</AltitudeMeters>
            <DistanceMeters>NAN</DistanceMeters>
          </Trackpoint>
          <Trackpoint>
            <Time>2019-10-09T11:28:32.000Z</Time>
            <Position>
              <LatitudeDegrees>38.73173142783343791961669921875</LatitudeDegrees>
              <LongitudeDegrees>-6.39252810738980770111083984375</LongitudeDegrees>
            </Position>
            <AltitudeMeters>301.600006103515625</AltitudeMeters>
            <DistanceMeters>NAN</DistanceMeters>
          </Trackpoint>
          <Trackpoint>
            <Time>2019-10-09T11:28:42.000Z</Time>
            <Position>
              <LatitudeDegrees>38.7311767973005771636962890625</LatitudeDegrees>
              <LongitudeDegrees>-6.39270655810832977294921875</LongitudeDegrees>
            </Position>
            <AltitudeMeters>301.79998779296875</AltitudeMeters>
            <DistanceMeters>NAN</DistanceMeters>
          </Trackpoint>
          <Trackpoint>
            <Time>2019-10-09T11:28:43.000Z</Time>
            <Position>
              <LatitudeDegrees>38.73112223111093044281005859375</LatitudeDegrees>
              <LongitudeDegrees>-6.39272592030465602874755859375</LongitudeDegrees>
            </Position>
            <AltitudeMeters>302</AltitudeMeters>
            <DistanceMeters>NAN</DistanceMeters>
          </Trackpoint>
          <Trackpoint>
            <Time>2019-10-09T11:28:46.000Z</Time>
            <Position>
              <LatitudeDegrees>38.73095727525651454925537109375</LatitudeDegrees>
              <LongitudeDegrees>-6.39278157614171504974365234375</LongitudeDegrees>
            </Position>
            <AltitudeMeters>302.600006103515625</AltitudeMeters>
            <DistanceMeters>NAN</DistanceMeters>
          </Trackpoint>
          <Trackpoint>
            <Time>2019-10-09T11:28:54.000Z</Time>
            <Position>
              <LatitudeDegrees>38.7305139563977718353271484375</LatitudeDegrees>
              <LongitudeDegrees>-6.39292188920080661773681640625</LongitudeDegrees>
            </Position>
            <AltitudeMeters>302</AltitudeMeters>
            <DistanceMeters>NAN</DistanceMeters>
          </Trackpoint>
          <Trackpoint>
            <Time>2019-10-09T11:29:04.000Z</Time>
            <Position>
              <LatitudeDegrees>38.72994792647659778594970703125</LatitudeDegrees>
              <LongitudeDegrees>-6.393105201423168182373046875</LongitudeDegrees>
            </Position>
            <AltitudeMeters>302.20001220703125</AltitudeMeters>
            <DistanceMeters>NAN</DistanceMeters>
          </Trackpoint>
          <Trackpoint>
            <Time>2019-10-09T11:29:09.000Z</Time>
            <Position>
              <LatitudeDegrees>38.72964047826826572418212890625</LatitudeDegrees>
              <LongitudeDegrees>-6.39320586808025836944580078125</LongitudeDegrees>
            </Position>
            <AltitudeMeters>302</AltitudeMeters>
            <DistanceMeters>NAN</DistanceMeters>
          </Trackpoint>
          <Trackpoint>
            <Time>2019-10-09T11:29:11.000Z</Time>
            <Position>
              <LatitudeDegrees>38.7295118160545825958251953125</LatitudeDegrees>
              <LongitudeDegrees>-6.39324836432933807373046875</LongitudeDegrees>
            </Position>
            <AltitudeMeters>302</AltitudeMeters>
            <DistanceMeters>NAN</DistanceMeters>
          </Trackpoint>
          <Trackpoint>
            <Time>2019-10-09T11:29:15.000Z</Time>
            <Position>
              <LatitudeDegrees>38.729247786104679107666015625</LatitudeDegrees>
              <LongitudeDegrees>-6.393330506980419158935546875</LongitudeDegrees>
            </Position>
            <AltitudeMeters>302.20001220703125</AltitudeMeters>
            <DistanceMeters>NAN</DistanceMeters>
          </Trackpoint>
          <Trackpoint>
            <Time>2019-10-09T11:29:19.000Z</Time>
            <Position>
              <LatitudeDegrees>38.7289800681173801422119140625</LatitudeDegrees>
              <LongitudeDegrees>-6.39341843314468860626220703125</LongitudeDegrees>
            </Position>
            <AltitudeMeters>302.20001220703125</AltitudeMeters>
            <DistanceMeters>NAN</DistanceMeters>
          </Trackpoint>
          <Trackpoint>
            <Time>2019-10-09T11:29:27.000Z</Time>
            <Position>
              <LatitudeDegrees>38.72843407094478607177734375</LatitudeDegrees>
              <LongitudeDegrees>-6.39359747059643268585205078125</LongitudeDegrees>
            </Position>
            <AltitudeMeters>302.399993896484375</AltitudeMeters>
            <DistanceMeters>NAN</DistanceMeters>
          </Trackpoint>
          <Trackpoint>
            <Time>2019-10-09T11:29:35.000Z</Time>
            <Position>
              <LatitudeDegrees>38.72791296802461147308349609375</LatitudeDegrees>
              <LongitudeDegrees>-6.393771730363368988037109375</LongitudeDegrees>
            </Position>
            <AltitudeMeters>302.600006103515625</AltitudeMeters>
            <DistanceMeters>NAN</DistanceMeters>
          </Trackpoint>
          <Trackpoint>
            <Time>2019-10-09T11:29:38.000Z</Time>
            <Position>
              <LatitudeDegrees>38.727726638317108154296875</LatitudeDegrees>
              <LongitudeDegrees>-6.39383618719875812530517578125</LongitudeDegrees>
            </Position>
            <AltitudeMeters>303.20001220703125</AltitudeMeters>
            <DistanceMeters>NAN</DistanceMeters>
          </Trackpoint>
          <Trackpoint>
            <Time>2019-10-09T11:29:39.000Z</Time>
            <Position>
              <LatitudeDegrees>38.7276657857000827789306640625</LatitudeDegrees>
              <LongitudeDegrees>-6.39385462738573551177978515625</LongitudeDegrees>
            </Position>
            <AltitudeMeters>303.600006103515625</AltitudeMeters>
            <DistanceMeters>NAN</DistanceMeters>
          </Trackpoint>
          <Trackpoint>
            <Time>2019-10-09T11:29:45.000Z</Time>
            <Position>
              <LatitudeDegrees>38.72729823924601078033447265625</LatitudeDegrees>
              <LongitudeDegrees>-6.3939740695059299468994140625</LongitudeDegrees>
            </Position>
            <AltitudeMeters>303</AltitudeMeters>
            <DistanceMeters>NAN</DistanceMeters>
          </Trackpoint>
          <Trackpoint>
            <Time>2019-10-09T11:29:54.000Z</Time>
            <Position>
              <LatitudeDegrees>38.72676213271915912628173828125</LatitudeDegrees>
              <LongitudeDegrees>-6.39414313249289989471435546875</LongitudeDegrees>
            </Position>
            <AltitudeMeters>304.399993896484375</AltitudeMeters>
            <DistanceMeters>NAN</DistanceMeters>
          </Trackpoint>
          <Trackpoint>
            <Time>2019-10-09T11:29:55.000Z</Time>
            <Position>
              <LatitudeDegrees>38.72670195065438747406005859375</LatitudeDegrees>
              <LongitudeDegrees>-6.39416165649890899658203125</LongitudeDegrees>
            </Position>
            <AltitudeMeters>304.399993896484375</AltitudeMeters>
            <DistanceMeters>NAN</DistanceMeters>
          </Trackpoint>
          <Trackpoint>
            <Time>2019-10-09T11:29:58.000Z</Time>
            <Position>
              <LatitudeDegrees>38.72652425430715084075927734375</LatitudeDegrees>
              <LongitudeDegrees>-6.39422276057302951812744140625</LongitudeDegrees>
            </Position>
            <AltitudeMeters>304.600006103515625</AltitudeMeters>
            <DistanceMeters>NAN</DistanceMeters>
          </Trackpoint>
          <Trackpoint>
            <Time>2019-10-09T11:30:06.000Z</Time>
            <Position>
              <LatitudeDegrees>38.72605285607278347015380859375</LatitudeDegrees>
              <LongitudeDegrees>-6.39438402839004993438720703125</LongitudeDegrees>
            </Position>
            <AltitudeMeters>304.600006103515625</AltitudeMeters>
            <DistanceMeters>NAN</DistanceMeters>
          </Trackpoint>
          <Trackpoint>
            <Time>2019-10-09T11:30:15.000Z</Time>
            <Position>
              <LatitudeDegrees>38.7255357764661312103271484375</LatitudeDegrees>
              <LongitudeDegrees>-6.3945540972054004669189453125</LongitudeDegrees>
            </Position>
            <AltitudeMeters>305.399993896484375</AltitudeMeters>
            <DistanceMeters>NAN</DistanceMeters>
          </Trackpoint>
          <Trackpoint>
            <Time>2019-10-09T11:30:16.000Z</Time>
            <Position>
              <LatitudeDegrees>38.725477941334247589111328125</LatitudeDegrees>
              <LongitudeDegrees>-6.39457295648753643035888671875</LongitudeDegrees>
            </Position>
            <AltitudeMeters>305.79998779296875</AltitudeMeters>
            <DistanceMeters>NAN</DistanceMeters>
          </Trackpoint>
          <Trackpoint>
            <Time>2019-10-09T11:30:19.000Z</Time>
            <Position>
              <LatitudeDegrees>38.72530519030988216400146484375</LatitudeDegrees>
              <LongitudeDegrees>-6.39463380910456180572509765625</LongitudeDegrees>
            </Position>
            <AltitudeMeters>305.600006103515625</AltitudeMeters>
            <DistanceMeters>NAN</DistanceMeters>
          </Trackpoint>
          <Trackpoint>
            <Time>2019-10-09T11:30:28.000Z</Time>
            <Position>
              <LatitudeDegrees>38.724791295826435089111328125</LatitudeDegrees>
              <LongitudeDegrees>-6.394805051386356353759765625</LongitudeDegrees>
            </Position>
            <AltitudeMeters>306</AltitudeMeters>
            <DistanceMeters>NAN</DistanceMeters>
          </Trackpoint>
          <Trackpoint>
            <Time>2019-10-09T11:30:38.000Z</Time>
            <Position>
              <LatitudeDegrees>38.72424487955868244171142578125</LatitudeDegrees>
              <LongitudeDegrees>-6.39497260563075542449951171875</LongitudeDegrees>
            </Position>
            <AltitudeMeters>306.399993896484375</AltitudeMeters>
            <DistanceMeters>NAN</DistanceMeters>
          </Trackpoint>
          <Trackpoint>
            <Time>2019-10-09T11:30:40.000Z</Time>
            <Position>
              <LatitudeDegrees>38.724136836826801300048828125</LatitudeDegrees>
              <LongitudeDegrees>-6.395008563995361328125</LongitudeDegrees>
            </Position>
            <AltitudeMeters>306.79998779296875</AltitudeMeters>
            <DistanceMeters>NAN</DistanceMeters>
          </Trackpoint>
          <Trackpoint>
            <Time>2019-10-09T11:30:48.000Z</Time>
            <Position>
              <LatitudeDegrees>38.72370533645153045654296875</LatitudeDegrees>
              <LongitudeDegrees>-6.3951505534350872039794921875</LongitudeDegrees>
            </Position>
            <AltitudeMeters>307.399993896484375</AltitudeMeters>
            <DistanceMeters>NAN</DistanceMeters>
          </Trackpoint>
          <Trackpoint>
            <Time>2019-10-09T11:30:58.000Z</Time>
            <Position>
              <LatitudeDegrees>38.7231536395847797393798828125</LatitudeDegrees>
              <LongitudeDegrees>-6.395335458219051361083984375</LongitudeDegrees>
            </Position>
            <AltitudeMeters>307.399993896484375</AltitudeMeters>
            <DistanceMeters>NAN</DistanceMeters>
          </Trackpoint>
          <Trackpoint>
            <Time>2019-10-09T11:31:00.000Z</Time>
            <Position>
              <LatitudeDegrees>38.7230396457016468048095703125</LatitudeDegrees>
              <LongitudeDegrees>-6.39537133276462554931640625</LongitudeDegrees>
            </Position>
            <AltitudeMeters>307.399993896484375</AltitudeMeters>
            <DistanceMeters>NAN</DistanceMeters>
          </Trackpoint>
          <Trackpoint>
            <Time>2019-10-09T11:31:09.000Z</Time>
            <Position>
              <LatitudeDegrees>38.7225249968469142913818359375</LatitudeDegrees>
              <LongitudeDegrees>-6.39553804881870746612548828125</LongitudeDegrees>
            </Position>
            <AltitudeMeters>307.600006103515625</AltitudeMeters>
            <DistanceMeters>NAN</DistanceMeters>
          </Trackpoint>
          <Trackpoint>
            <Time>2019-10-09T11:31:11.000Z</Time>
            <Position>
              <LatitudeDegrees>38.7224113382399082183837890625</LatitudeDegrees>
              <LongitudeDegrees>-6.39557660557329654693603515625</LongitudeDegrees>
            </Position>
            <AltitudeMeters>307.600006103515625</AltitudeMeters>
            <DistanceMeters>NAN</DistanceMeters>
          </Trackpoint>
          <Trackpoint>
            <Time>2019-10-09T11:31:20.000Z</Time>
            <Position>
              <LatitudeDegrees>38.72187464497983455657958984375</LatitudeDegrees>
              <LongitudeDegrees>-6.39574726112186908721923828125</LongitudeDegrees>
            </Position>
            <AltitudeMeters>307.399993896484375</AltitudeMeters>
            <DistanceMeters>NAN</DistanceMeters>
          </Trackpoint>
          <Trackpoint>
            <Time>2019-10-09T11:31:21.000Z</Time>
            <Position>
              <LatitudeDegrees>38.72181379236280918121337890625</LatitudeDegrees>
              <LongitudeDegrees>-6.395765952765941619873046875</LongitudeDegrees>
            </Position>
            <AltitudeMeters>307.20001220703125</AltitudeMeters>
            <DistanceMeters>NAN</DistanceMeters>
          </Trackpoint>
          <Trackpoint>
            <Time>2019-10-09T11:31:30.000Z</Time>
            <Position>
              <LatitudeDegrees>38.7212670408189296722412109375</LatitudeDegrees>
              <LongitudeDegrees>-6.39593887142837047576904296875</LongitudeDegrees>
            </Position>
            <AltitudeMeters>307.600006103515625</AltitudeMeters>
            <DistanceMeters>NAN</DistanceMeters>
          </Trackpoint>
          <Trackpoint>
            <Time>2019-10-09T11:31:33.000Z</Time>
            <Position>
              <LatitudeDegrees>38.72108615934848785400390625</LatitudeDegrees>
              <LongitudeDegrees>-6.39600609429180622100830078125</LongitudeDegrees>
            </Position>
            <AltitudeMeters>307.399993896484375</AltitudeMeters>
            <DistanceMeters>NAN</DistanceMeters>
          </Trackpoint>
          <Trackpoint>
            <Time>2019-10-09T11:31:38.000Z</Time>
            <Position>
              <LatitudeDegrees>38.720780052244663238525390625</LatitudeDegrees>
              <LongitudeDegrees>-6.39611254446208477020263671875</LongitudeDegrees>
            </Position>
            <AltitudeMeters>308</AltitudeMeters>
            <DistanceMeters>NAN</DistanceMeters>
          </Trackpoint>
          <Trackpoint>
            <Time>2019-10-09T11:31:45.000Z</Time>
            <Position>
              <LatitudeDegrees>38.72035928070545196533203125</LatitudeDegrees>
              <LongitudeDegrees>-6.3962442241609096527099609375</LongitudeDegrees>
            </Position>
            <AltitudeMeters>307.600006103515625</AltitudeMeters>
            <DistanceMeters>NAN</DistanceMeters>
          </Trackpoint>
          <Trackpoint>
            <Time>2019-10-09T11:31:54.000Z</Time>
            <Position>
              <LatitudeDegrees>38.719814456999301910400390625</LatitudeDegrees>
              <LongitudeDegrees>-6.39641848392784595489501953125</LongitudeDegrees>
            </Position>
            <AltitudeMeters>307.600006103515625</AltitudeMeters>
            <DistanceMeters>NAN</DistanceMeters>
          </Trackpoint>
          <Trackpoint>
            <Time>2019-10-09T11:31:55.000Z</Time>
            <Position>
              <LatitudeDegrees>38.7197546102106571197509765625</LatitudeDegrees>
              <LongitudeDegrees>-6.39643876813352108001708984375</LongitudeDegrees>
            </Position>
            <AltitudeMeters>308.20001220703125</AltitudeMeters>
            <DistanceMeters>NAN</DistanceMeters>
          </Trackpoint>
          <Trackpoint>
            <Time>2019-10-09T11:32:04.000Z</Time>
            <Position>
              <LatitudeDegrees>38.7192272208631038665771484375</LatitudeDegrees>
              <LongitudeDegrees>-6.3966106809675693511962890625</LongitudeDegrees>
            </Position>
            <AltitudeMeters>308.399993896484375</AltitudeMeters>
            <DistanceMeters>NAN</DistanceMeters>
          </Trackpoint>
          <Trackpoint>
            <Time>2019-10-09T11:32:05.000Z</Time>
            <Position>
              <LatitudeDegrees>38.71916863135993480682373046875</LatitudeDegrees>
              <LongitudeDegrees>-6.39663289301097393035888671875</LongitudeDegrees>
            </Position>
            <AltitudeMeters>308.600006103515625</AltitudeMeters>
            <DistanceMeters>NAN</DistanceMeters>
          </Trackpoint>
          <Trackpoint>
            <Time>2019-10-09T11:32:09.000Z</Time>
            <Position>
              <LatitudeDegrees>38.7189251370728015899658203125</LatitudeDegrees>
              <LongitudeDegrees>-6.39671101234853267669677734375</LongitudeDegrees>
            </Position>
            <AltitudeMeters>309</AltitudeMeters>
            <DistanceMeters>NAN</DistanceMeters>
          </Trackpoint>
          <Trackpoint>
            <Time>2019-10-09T11:32:14.000Z</Time>
            <Position>
              <LatitudeDegrees>38.71862146072089672088623046875</LatitudeDegrees>
              <LongitudeDegrees>-6.396809332072734832763671875</LongitudeDegrees>
            </Position>
            <AltitudeMeters>309</AltitudeMeters>
            <DistanceMeters>NAN</DistanceMeters>
          </Trackpoint>
          <Trackpoint>
            <Time>2019-10-09T11:32:23.000Z</Time>
            <Position>
              <LatitudeDegrees>38.71808518655598163604736328125</LatitudeDegrees>
              <LongitudeDegrees>-6.3969855196774005889892578125</LongitudeDegrees>
            </Position>
            <AltitudeMeters>309</AltitudeMeters>
            <DistanceMeters>NAN</DistanceMeters>
          </Trackpoint>
          <Trackpoint>
            <Time>2019-10-09T11:32:24.000Z</Time>
            <Position>
              <LatitudeDegrees>38.7180264294147491455078125</LatitudeDegrees>
              <LongitudeDegrees>-6.39700588770210742950439453125</LongitudeDegrees>
            </Position>
            <AltitudeMeters>309</AltitudeMeters>
            <DistanceMeters>NAN</DistanceMeters>
          </Trackpoint>
          <Trackpoint>
            <Time>2019-10-09T11:32:33.000Z</Time>
            <Position>
              <LatitudeDegrees>38.71749208308756351470947265625</LatitudeDegrees>
              <LongitudeDegrees>-6.39718257822096347808837890625</LongitudeDegrees>
            </Position>
            <AltitudeMeters>309.20001220703125</AltitudeMeters>
            <DistanceMeters>NAN</DistanceMeters>
          </Trackpoint>
          <Trackpoint>
            <Time>2019-10-09T11:32:34.000Z</Time>
            <Position>
              <LatitudeDegrees>38.71743206866085529327392578125</LatitudeDegrees>
              <LongitudeDegrees>-6.3972014375030994415283203125</LongitudeDegrees>
            </Position>
            <AltitudeMeters>309</AltitudeMeters>
            <DistanceMeters>NAN</DistanceMeters>
          </Trackpoint>
          <Trackpoint>
            <Time>2019-10-09T11:32:39.000Z</Time>
            <Position>
              <LatitudeDegrees>38.71712612919509410858154296875</LatitudeDegrees>
              <LongitudeDegrees>-6.39729984104633331298828125</LongitudeDegrees>
            </Position>
            <AltitudeMeters>309.20001220703125</AltitudeMeters>
            <DistanceMeters>NAN</DistanceMeters>
          </Trackpoint>
          <Trackpoint>
            <Time>2019-10-09T11:32:42.000Z</Time>
            <Position>
              <LatitudeDegrees>38.71694189496338367462158203125</LatitudeDegrees>
              <LongitudeDegrees>-6.39735943637788295745849609375</LongitudeDegrees>
            </Position>
            <AltitudeMeters>309.20001220703125</AltitudeMeters>
            <DistanceMeters>NAN</DistanceMeters>
          </Trackpoint>
          <Trackpoint>
            <Time>2019-10-09T11:32:46.000Z</Time>
            <Position>
              <LatitudeDegrees>38.71669479645788669586181640625</LatitudeDegrees>
              <LongitudeDegrees>-6.397440992295742034912109375</LongitudeDegrees>
            </Position>
            <AltitudeMeters>309.79998779296875</AltitudeMeters>
            <DistanceMeters>NAN</DistanceMeters>
          </Trackpoint>
          <Trackpoint>
            <Time>2019-10-09T11:32:55.000Z</Time>
            <Position>
              <LatitudeDegrees>38.71612683869898319244384765625</LatitudeDegrees>
              <LongitudeDegrees>-6.39761458151042461395263671875</LongitudeDegrees>
            </Position>
            <AltitudeMeters>308.600006103515625</AltitudeMeters>
            <DistanceMeters>NAN</DistanceMeters>
          </Trackpoint>
          <Trackpoint>
            <Time>2019-10-09T11:33:03.000Z</Time>
            <Position>
              <LatitudeDegrees>38.71560238301753997802734375</LatitudeDegrees>
              <LongitudeDegrees>-6.39778557233512401580810546875</LongitudeDegrees>
            </Position>
            <AltitudeMeters>307.79998779296875</AltitudeMeters>
            <DistanceMeters>NAN</DistanceMeters>
          </Trackpoint>
          <Trackpoint>
            <Time>2019-10-09T11:33:04.000Z</Time>
            <Position>
              <LatitudeDegrees>38.71553574688732624053955078125</LatitudeDegrees>
              <LongitudeDegrees>-6.39780853874981403350830078125</LongitudeDegrees>
            </Position>
            <AltitudeMeters>307.79998779296875</AltitudeMeters>
            <DistanceMeters>NAN</DistanceMeters>
          </Trackpoint>
          <Trackpoint>
            <Time>2019-10-09T11:33:11.000Z</Time>
            <Position>
              <LatitudeDegrees>38.71505764313042163848876953125</LatitudeDegrees>
              <LongitudeDegrees>-6.39796108938753604888916015625</LongitudeDegrees>
            </Position>
            <AltitudeMeters>306.79998779296875</AltitudeMeters>
            <DistanceMeters>NAN</DistanceMeters>
          </Trackpoint>
          <Trackpoint>
            <Time>2019-10-09T11:33:15.000Z</Time>
            <Position>
              <LatitudeDegrees>38.71478573419153690338134765625</LatitudeDegrees>
              <LongitudeDegrees>-6.3980496861040592193603515625</LongitudeDegrees>
            </Position>
            <AltitudeMeters>307.20001220703125</AltitudeMeters>
            <DistanceMeters>NAN</DistanceMeters>
          </Trackpoint>
          <Trackpoint>
            <Time>2019-10-09T11:33:23.000Z</Time>
            <Position>
              <LatitudeDegrees>38.71426035650074481964111328125</LatitudeDegrees>
              <LongitudeDegrees>-6.39822117984294891357421875</LongitudeDegrees>
            </Position>
            <AltitudeMeters>306.79998779296875</AltitudeMeters>
            <DistanceMeters>NAN</DistanceMeters>
          </Trackpoint>
          <Trackpoint>
            <Time>2019-10-09T11:33:25.000Z</Time>
            <Position>
              <LatitudeDegrees>38.71413378976285457611083984375</LatitudeDegrees>
              <LongitudeDegrees>-6.3982605747878551483154296875</LongitudeDegrees>
            </Position>
            <AltitudeMeters>306.79998779296875</AltitudeMeters>
            <DistanceMeters>NAN</DistanceMeters>
          </Trackpoint>
          <Trackpoint>
            <Time>2019-10-09T11:33:31.000Z</Time>
            <Position>
              <LatitudeDegrees>38.713755346834659576416015625</LatitudeDegrees>
              <LongitudeDegrees>-6.3983826152980327606201171875</LongitudeDegrees>
            </Position>
            <AltitudeMeters>307.79998779296875</AltitudeMeters>
            <DistanceMeters>NAN</DistanceMeters>
          </Trackpoint>
          <Trackpoint>
            <Time>2019-10-09T11:33:34.000Z</Time>
            <Position>
              <LatitudeDegrees>38.7135684303939342498779296875</LatitudeDegrees>
              <LongitudeDegrees>-6.3984473235905170440673828125</LongitudeDegrees>
            </Position>
            <AltitudeMeters>307.399993896484375</AltitudeMeters>
            <DistanceMeters>NAN</DistanceMeters>
          </Trackpoint>
          <Trackpoint>
            <Time>2019-10-09T11:33:44.000Z</Time>
            <Position>
              <LatitudeDegrees>38.71304313652217388153076171875</LatitudeDegrees>
              <LongitudeDegrees>-6.398620493710041046142578125</LongitudeDegrees>
            </Position>
            <AltitudeMeters>308</AltitudeMeters>
            <DistanceMeters>NAN</DistanceMeters>
          </Trackpoint>
          <Trackpoint>
            <Time>2019-10-09T11:33:45.000Z</Time>
            <Position>
              <LatitudeDegrees>38.71298647485673427581787109375</LatitudeDegrees>
              <LongitudeDegrees>-6.39863834716379642486572265625</LongitudeDegrees>
            </Position>
            <AltitudeMeters>308.20001220703125</AltitudeMeters>
            <DistanceMeters>NAN</DistanceMeters>
          </Trackpoint>
          <Trackpoint>
            <Time>2019-10-09T11:33:53.000Z</Time>
            <Position>
              <LatitudeDegrees>38.712547682225704193115234375</LatitudeDegrees>
              <LongitudeDegrees>-6.39878570102155208587646484375</LongitudeDegrees>
            </Position>
            <AltitudeMeters>308.79998779296875</AltitudeMeters>
            <DistanceMeters>NAN</DistanceMeters>
          </Trackpoint>
          <Trackpoint>
            <Time>2019-10-09T11:33:54.000Z</Time>
            <Position>
              <LatitudeDegrees>38.71249361895024776458740234375</LatitudeDegrees>
              <LongitudeDegrees>-6.39880363829433917999267578125</LongitudeDegrees>
            </Position>
            <AltitudeMeters>308.79998779296875</AltitudeMeters>
            <DistanceMeters>NAN</DistanceMeters>
          </Trackpoint>
          <Trackpoint>
            <Time>2019-10-09T11:34:04.000Z</Time>
            <Position>
              <LatitudeDegrees>38.7119527347385883331298828125</LatitudeDegrees>
              <LongitudeDegrees>-6.3989794068038463592529296875</LongitudeDegrees>
            </Position>
            <AltitudeMeters>309.600006103515625</AltitudeMeters>
            <DistanceMeters>NAN</DistanceMeters>
          </Trackpoint>
          <Trackpoint>
            <Time>2019-10-09T11:34:09.000Z</Time>
            <Position>
              <LatitudeDegrees>38.711679987609386444091796875</LatitudeDegrees>
              <LongitudeDegrees>-6.39905937016010284423828125</LongitudeDegrees>
            </Position>
            <AltitudeMeters>310</AltitudeMeters>
            <DistanceMeters>NAN</DistanceMeters>
          </Trackpoint>
          <Trackpoint>
            <Time>2019-10-09T11:34:13.000Z</Time>
            <Position>
              <LatitudeDegrees>38.7114608846604824066162109375</LatitudeDegrees>
              <LongitudeDegrees>-6.3991302810609340667724609375</LongitudeDegrees>
            </Position>
            <AltitudeMeters>310.399993896484375</AltitudeMeters>
            <DistanceMeters>NAN</DistanceMeters>
          </Trackpoint>
          <Trackpoint>
            <Time>2019-10-09T11:34:22.000Z</Time>
            <Position>
              <LatitudeDegrees>38.71096492744982242584228515625</LatitudeDegrees>
              <LongitudeDegrees>-6.39929716475307941436767578125</LongitudeDegrees>
            </Position>
            <AltitudeMeters>310.399993896484375</AltitudeMeters>
            <DistanceMeters>NAN</DistanceMeters>
          </Trackpoint>
          <Trackpoint>
            <Time>2019-10-09T11:34:24.000Z</Time>
            <Position>
              <LatitudeDegrees>38.7108550406992435455322265625</LatitudeDegrees>
              <LongitudeDegrees>-6.39933831989765167236328125</LongitudeDegrees>
            </Position>
            <AltitudeMeters>311.20001220703125</AltitudeMeters>
            <DistanceMeters>NAN</DistanceMeters>
          </Trackpoint>
          <Trackpoint>
            <Time>2019-10-09T11:34:25.000Z</Time>
            <Position>
              <LatitudeDegrees>38.710801564157009124755859375</LatitudeDegrees>
              <LongitudeDegrees>-6.39936572872102260589599609375</LongitudeDegrees>
            </Position>
            <AltitudeMeters>311.600006103515625</AltitudeMeters>
            <DistanceMeters>NAN</DistanceMeters>
          </Trackpoint>
          <Trackpoint>
            <Time>2019-10-09T11:34:27.000Z</Time>
            <Position>
              <LatitudeDegrees>38.7107169069349765777587890625</LatitudeDegrees>
              <LongitudeDegrees>-6.39946798793971538543701171875</LongitudeDegrees>
            </Position>
            <AltitudeMeters>311.20001220703125</AltitudeMeters>
            <DistanceMeters>NAN</DistanceMeters>
          </Trackpoint>
          <Trackpoint>
            <Time>2019-10-09T11:34:32.000Z</Time>
            <Position>
              <LatitudeDegrees>38.71051565743982791900634765625</LatitudeDegrees>
              <LongitudeDegrees>-6.39972514472901821136474609375</LongitudeDegrees>
            </Position>
            <AltitudeMeters>311.20001220703125</AltitudeMeters>
            <DistanceMeters>NAN</DistanceMeters>
          </Trackpoint>
          <Trackpoint>
            <Time>2019-10-09T11:34:35.000Z</Time>
            <Position>
              <LatitudeDegrees>38.71034483425319194793701171875</LatitudeDegrees>
              <LongitudeDegrees>-6.39974878169596195220947265625</LongitudeDegrees>
            </Position>
            <AltitudeMeters>311.20001220703125</AltitudeMeters>
            <DistanceMeters>NAN</DistanceMeters>
          </Trackpoint>
          <Trackpoint>
            <Time>2019-10-09T11:34:38.000Z</Time>
            <Position>
              <LatitudeDegrees>38.71018205769360065460205078125</LatitudeDegrees>
              <LongitudeDegrees>-6.3996791280806064605712890625</LongitudeDegrees>
            </Position>
            <AltitudeMeters>311.79998779296875</AltitudeMeters>
            <DistanceMeters>NAN</DistanceMeters>
          </Trackpoint>
          <Trackpoint>
            <Time>2019-10-09T11:34:39.000Z</Time>
            <Position>
              <LatitudeDegrees>38.71012673713266849517822265625</LatitudeDegrees>
              <LongitudeDegrees>-6.3996529765427112579345703125</LongitudeDegrees>
            </Position>
            <AltitudeMeters>311.600006103515625</AltitudeMeters>
            <DistanceMeters>NAN</DistanceMeters>
          </Trackpoint>
          <Trackpoint>
            <Time>2019-10-09T11:34:40.000Z</Time>
            <Position>
              <LatitudeDegrees>38.7100681476294994354248046875</LatitudeDegrees>
              <LongitudeDegrees>-6.39963336288928985595703125</LongitudeDegrees>
            </Position>
            <AltitudeMeters>311.600006103515625</AltitudeMeters>
            <DistanceMeters>NAN</DistanceMeters>
          </Trackpoint>
          <Trackpoint>
            <Time>2019-10-09T11:34:43.000Z</Time>
            <Position>
              <LatitudeDegrees>38.70989330112934112548828125</LatitudeDegrees>
              <LongitudeDegrees>-6.3996469415724277496337890625</LongitudeDegrees>
            </Position>
            <AltitudeMeters>311.600006103515625</AltitudeMeters>
            <DistanceMeters>NAN</DistanceMeters>
          </Trackpoint>
          <Trackpoint>
            <Time>2019-10-09T11:34:44.000Z</Time>
            <Position>
              <LatitudeDegrees>38.70983756147325038909912109375</LatitudeDegrees>
              <LongitudeDegrees>-6.39966127462685108184814453125</LongitudeDegrees>
            </Position>
            <AltitudeMeters>311.79998779296875</AltitudeMeters>
            <DistanceMeters>NAN</DistanceMeters>
          </Trackpoint>
          <Trackpoint>
            <Time>2019-10-09T11:34:48.000Z</Time>
            <Position>
              <LatitudeDegrees>38.70962298475205898284912109375</LatitudeDegrees>
              <LongitudeDegrees>-6.39971919357776641845703125</LongitudeDegrees>
            </Position>
            <AltitudeMeters>311.399993896484375</AltitudeMeters>
            <DistanceMeters>NAN</DistanceMeters>
          </Trackpoint>
          <Trackpoint>
            <Time>2019-10-09T11:34:50.000Z</Time>
            <Position>
              <LatitudeDegrees>38.70952290482819080352783203125</LatitudeDegrees>
              <LongitudeDegrees>-6.39976303093135356903076171875</LongitudeDegrees>
            </Position>
            <AltitudeMeters>311.399993896484375</AltitudeMeters>
            <DistanceMeters>NAN</DistanceMeters>
          </Trackpoint>
          <Trackpoint>
            <Time>2019-10-09T11:34:51.000Z</Time>
            <Position>
              <LatitudeDegrees>38.709470517933368682861328125</LatitudeDegrees>
              <LongitudeDegrees>-6.399775184690952301025390625</LongitudeDegrees>
            </Position>
            <AltitudeMeters>311.600006103515625</AltitudeMeters>
            <DistanceMeters>NAN</DistanceMeters>
          </Trackpoint>
          <Trackpoint>
            <Time>2019-10-09T11:34:54.000Z</Time>
            <Position>
              <LatitudeDegrees>38.70932140387594699859619140625</LatitudeDegrees>
              <LongitudeDegrees>-6.399820782244205474853515625</LongitudeDegrees>
            </Position>
            <AltitudeMeters>311.600006103515625</AltitudeMeters>
            <DistanceMeters>NAN</DistanceMeters>
          </Trackpoint>
          <Trackpoint>
            <Time>2019-10-09T11:34:55.000Z</Time>
            <Position>
              <LatitudeDegrees>38.70927161537110805511474609375</LatitudeDegrees>
              <LongitudeDegrees>-6.39984349720180034637451171875</LongitudeDegrees>
            </Position>
            <AltitudeMeters>311.600006103515625</AltitudeMeters>
            <DistanceMeters>NAN</DistanceMeters>
          </Trackpoint>
          <Trackpoint>
            <Time>2019-10-09T11:35:01.000Z</Time>
            <Position>
              <LatitudeDegrees>38.70894304476678371429443359375</LatitudeDegrees>
              <LongitudeDegrees>-6.39996201731264591217041015625</LongitudeDegrees>
            </Position>
            <AltitudeMeters>311.399993896484375</AltitudeMeters>
            <DistanceMeters>NAN</DistanceMeters>
          </Trackpoint>
          <Trackpoint>
            <Time>2019-10-09T11:35:03.000Z</Time>
            <Position>
              <LatitudeDegrees>38.70883139781653881072998046875</LatitudeDegrees>
              <LongitudeDegrees>-6.39999655075371265411376953125</LongitudeDegrees>
            </Position>
            <AltitudeMeters>311.600006103515625</AltitudeMeters>
            <DistanceMeters>NAN</DistanceMeters>
          </Trackpoint>
          <Trackpoint>
            <Time>2019-10-09T11:35:06.000Z</Time>
            <Position>
              <LatitudeDegrees>38.708659820258617401123046875</LatitudeDegrees>
              <LongitudeDegrees>-6.40005287714302539825439453125</LongitudeDegrees>
            </Position>
            <AltitudeMeters>311.399993896484375</AltitudeMeters>
            <DistanceMeters>NAN</DistanceMeters>
          </Trackpoint>
          <Trackpoint>
            <Time>2019-10-09T11:35:13.000Z</Time>
            <Position>
              <LatitudeDegrees>38.7082605063915252685546875</LatitudeDegrees>
              <LongitudeDegrees>-6.4001786895096302032470703125</LongitudeDegrees>
            </Position>
            <AltitudeMeters>310.79998779296875</AltitudeMeters>
            <DistanceMeters>NAN</DistanceMeters>
          </Trackpoint>
          <Trackpoint>
            <Time>2019-10-09T11:35:16.000Z</Time>
            <Position>
              <LatitudeDegrees>38.70808909647166728973388671875</LatitudeDegrees>
              <LongitudeDegrees>-6.40023493207991123199462890625</LongitudeDegrees>
            </Position>
            <AltitudeMeters>311</AltitudeMeters>
            <DistanceMeters>NAN</DistanceMeters>
          </Trackpoint>
          <Trackpoint>
            <Time>2019-10-09T11:35:22.000Z</Time>
            <Position>
              <LatitudeDegrees>38.70775558054447174072265625</LatitudeDegrees>
              <LongitudeDegrees>-6.40034012496471405029296875</LongitudeDegrees>
            </Position>
            <AltitudeMeters>310.79998779296875</AltitudeMeters>
            <DistanceMeters>NAN</DistanceMeters>
          </Trackpoint>
          <Trackpoint>
            <Time>2019-10-09T11:35:32.000Z</Time>
            <Position>
              <LatitudeDegrees>38.7071956694126129150390625</LatitudeDegrees>
              <LongitudeDegrees>-6.4005417935550212860107421875</LongitudeDegrees>
            </Position>
            <AltitudeMeters>310.600006103515625</AltitudeMeters>
            <DistanceMeters>NAN</DistanceMeters>
          </Trackpoint>
          <Trackpoint>
            <Time>2019-10-09T11:35:41.000Z</Time>
            <Position>
              <LatitudeDegrees>38.70670055039227008819580078125</LatitudeDegrees>
              <LongitudeDegrees>-6.400702893733978271484375</LongitudeDegrees>
            </Position>
            <AltitudeMeters>310.600006103515625</AltitudeMeters>
            <DistanceMeters>NAN</DistanceMeters>
          </Trackpoint>
          <Trackpoint>
            <Time>2019-10-09T11:35:45.000Z</Time>
            <Position>
              <LatitudeDegrees>38.706475161015987396240234375</LatitudeDegrees>
              <LongitudeDegrees>-6.4007717929780483245849609375</LongitudeDegrees>
            </Position>
            <AltitudeMeters>310</AltitudeMeters>
            <DistanceMeters>NAN</DistanceMeters>
          </Trackpoint>
          <Trackpoint>
            <Time>2019-10-09T11:35:50.000Z</Time>
            <Position>
              <LatitudeDegrees>38.7061879970133304595947265625</LatitudeDegrees>
              <LongitudeDegrees>-6.40086290426552295684814453125</LongitudeDegrees>
            </Position>
            <AltitudeMeters>309.79998779296875</AltitudeMeters>
            <DistanceMeters>NAN</DistanceMeters>
          </Trackpoint>
          <Trackpoint>
            <Time>2019-10-09T11:35:59.000Z</Time>
            <Position>
              <LatitudeDegrees>38.70564158074557781219482421875</LatitudeDegrees>
              <LongitudeDegrees>-6.401042528450489044189453125</LongitudeDegrees>
            </Position>
            <AltitudeMeters>309.20001220703125</AltitudeMeters>
            <DistanceMeters>NAN</DistanceMeters>
          </Trackpoint>
          <Trackpoint>
            <Time>2019-10-09T11:36:01.000Z</Time>
            <Position>
              <LatitudeDegrees>38.70551769621670246124267578125</LatitudeDegrees>
              <LongitudeDegrees>-6.401081420481204986572265625</LongitudeDegrees>
            </Position>
            <AltitudeMeters>308.79998779296875</AltitudeMeters>
            <DistanceMeters>NAN</DistanceMeters>
          </Trackpoint>
          <Trackpoint>
            <Time>2019-10-09T11:36:08.000Z</Time>
            <Position>
              <LatitudeDegrees>38.70509709231555461883544921875</LatitudeDegrees>
              <LongitudeDegrees>-6.40122114680707454681396484375</LongitudeDegrees>
            </Position>
            <AltitudeMeters>309.600006103515625</AltitudeMeters>
            <DistanceMeters>NAN</DistanceMeters>
          </Trackpoint>
          <Trackpoint>
            <Time>2019-10-09T11:36:13.000Z</Time>
            <Position>
              <LatitudeDegrees>38.7048140354454517364501953125</LatitudeDegrees>
              <LongitudeDegrees>-6.4013130962848663330078125</LongitudeDegrees>
            </Position>
            <AltitudeMeters>309.79998779296875</AltitudeMeters>
            <DistanceMeters>NAN</DistanceMeters>
          </Trackpoint>
          <Trackpoint>
            <Time>2019-10-09T11:36:15.000Z</Time>
            <Position>
              <LatitudeDegrees>38.7047248519957065582275390625</LatitudeDegrees>
              <LongitudeDegrees>-6.40139934606850147247314453125</LongitudeDegrees>
            </Position>
            <AltitudeMeters>310.399993896484375</AltitudeMeters>
            <DistanceMeters>NAN</DistanceMeters>
          </Trackpoint>
          <Trackpoint>
            <Time>2019-10-09T11:36:19.000Z</Time>
            <Position>
              <LatitudeDegrees>38.7045759893953800201416015625</LatitudeDegrees>
              <LongitudeDegrees>-6.4015972428023815155029296875</LongitudeDegrees>
            </Position>
            <AltitudeMeters>311</AltitudeMeters>
            <DistanceMeters>NAN</DistanceMeters>
          </Trackpoint>
          <Trackpoint>
            <Time>2019-10-09T11:36:22.000Z</Time>
            <Position>
              <LatitudeDegrees>38.70440508238971233367919921875</LatitudeDegrees>
              <LongitudeDegrees>-6.40161626972258090972900390625</LongitudeDegrees>
            </Position>
            <AltitudeMeters>311.399993896484375</AltitudeMeters>
            <DistanceMeters>NAN</DistanceMeters>
          </Trackpoint>
          <Trackpoint>
            <Time>2019-10-09T11:36:24.000Z</Time>
            <Position>
              <LatitudeDegrees>38.7042977102100849151611328125</LatitudeDegrees>
              <LongitudeDegrees>-6.4015663973987102508544921875</LongitudeDegrees>
            </Position>
            <AltitudeMeters>311.600006103515625</AltitudeMeters>
            <DistanceMeters>NAN</DistanceMeters>
          </Trackpoint>
          <Trackpoint>
            <Time>2019-10-09T11:36:26.000Z</Time>
            <Position>
              <LatitudeDegrees>38.7041867338120937347412109375</LatitudeDegrees>
              <LongitudeDegrees>-6.40153094194829463958740234375</LongitudeDegrees>
            </Position>
            <AltitudeMeters>312</AltitudeMeters>
            <DistanceMeters>NAN</DistanceMeters>
          </Trackpoint>
          <Trackpoint>
            <Time>2019-10-09T11:36:29.000Z</Time>
            <Position>
              <LatitudeDegrees>38.7040217779576778411865234375</LatitudeDegrees>
              <LongitudeDegrees>-6.40157352201640605926513671875</LongitudeDegrees>
            </Position>
            <AltitudeMeters>311.600006103515625</AltitudeMeters>
            <DistanceMeters>NAN</DistanceMeters>
          </Trackpoint>
          <Trackpoint>
            <Time>2019-10-09T11:36:34.000Z</Time>
            <Position>
              <LatitudeDegrees>38.703750707209110260009765625</LatitudeDegrees>
              <LongitudeDegrees>-6.4016679860651493072509765625</LongitudeDegrees>
            </Position>
            <AltitudeMeters>312.399993896484375</AltitudeMeters>
            <DistanceMeters>NAN</DistanceMeters>
          </Trackpoint>
          <Trackpoint>
            <Time>2019-10-09T11:36:40.000Z</Time>
            <Position>
              <LatitudeDegrees>38.7034286744892597198486328125</LatitudeDegrees>
              <LongitudeDegrees>-6.40176932327449321746826171875</LongitudeDegrees>
            </Position>
            <AltitudeMeters>313</AltitudeMeters>
            <DistanceMeters>NAN</DistanceMeters>
          </Trackpoint>
          <Trackpoint>
            <Time>2019-10-09T11:36:42.000Z</Time>
            <Position>
              <LatitudeDegrees>38.7033217214047908782958984375</LatitudeDegrees>
              <LongitudeDegrees>-6.40180570073425769805908203125</LongitudeDegrees>
            </Position>
            <AltitudeMeters>313.20001220703125</AltitudeMeters>
            <DistanceMeters>NAN</DistanceMeters>
          </Trackpoint>
          <Trackpoint>
            <Time>2019-10-09T11:36:49.000Z</Time>
            <Position>
              <LatitudeDegrees>38.702952079474925994873046875</LatitudeDegrees>
              <LongitudeDegrees>-6.4019274897873401641845703125</LongitudeDegrees>
            </Position>
            <AltitudeMeters>313.79998779296875</AltitudeMeters>
            <DistanceMeters>NAN</DistanceMeters>
          </Trackpoint>
          <Trackpoint>
            <Time>2019-10-09T11:36:52.000Z</Time>
            <Position>
              <LatitudeDegrees>38.7027946673333644866943359375</LatitudeDegrees>
              <LongitudeDegrees>-6.40197853557765483856201171875</LongitudeDegrees>
            </Position>
            <AltitudeMeters>314.20001220703125</AltitudeMeters>
            <DistanceMeters>NAN</DistanceMeters>
          </Trackpoint>
          <Trackpoint>
            <Time>2019-10-09T11:36:59.000Z</Time>
            <Position>
              <LatitudeDegrees>38.7024199962615966796875</LatitudeDegrees>
              <LongitudeDegrees>-6.4021025039255619049072265625</LongitudeDegrees>
            </Position>
            <AltitudeMeters>314</AltitudeMeters>
            <DistanceMeters>NAN</DistanceMeters>
          </Trackpoint>
          <Trackpoint>
            <Time>2019-10-09T11:37:07.000Z</Time>
            <Position>
              <LatitudeDegrees>38.70195262134075164794921875</LatitudeDegrees>
              <LongitudeDegrees>-6.402253210544586181640625</LongitudeDegrees>
            </Position>
            <AltitudeMeters>313.399993896484375</AltitudeMeters>
            <DistanceMeters>NAN</DistanceMeters>
          </Trackpoint>
          <Trackpoint>
            <Time>2019-10-09T11:37:09.000Z</Time>
            <Position>
              <LatitudeDegrees>38.70182923972606658935546875</LatitudeDegrees>
              <LongitudeDegrees>-6.40229034237563610076904296875</LongitudeDegrees>
            </Position>
            <AltitudeMeters>313.20001220703125</AltitudeMeters>
            <DistanceMeters>NAN</DistanceMeters>
          </Trackpoint>
          <Trackpoint>
            <Time>2019-10-09T11:37:15.000Z</Time>
            <Position>
              <LatitudeDegrees>38.7014538981020450592041015625</LatitudeDegrees>
              <LongitudeDegrees>-6.40241481363773345947265625</LongitudeDegrees>
            </Position>
            <AltitudeMeters>312.600006103515625</AltitudeMeters>
            <DistanceMeters>NAN</DistanceMeters>
          </Trackpoint>
          <Trackpoint>
            <Time>2019-10-09T11:37:21.000Z</Time>
            <Position>
              <LatitudeDegrees>38.7010720185935497283935546875</LatitudeDegrees>
              <LongitudeDegrees>-6.4025294780731201171875</LongitudeDegrees>
            </Position>
            <AltitudeMeters>312.399993896484375</AltitudeMeters>
            <DistanceMeters>NAN</DistanceMeters>
          </Trackpoint>
          <Trackpoint>
            <Time>2019-10-09T11:37:24.000Z</Time>
            <Position>
              <LatitudeDegrees>38.70088107883930206298828125</LatitudeDegrees>
              <LongitudeDegrees>-6.4025889895856380462646484375</LongitudeDegrees>
            </Position>
            <AltitudeMeters>312</AltitudeMeters>
            <DistanceMeters>NAN</DistanceMeters>
          </Trackpoint>
          <Trackpoint>
            <Time>2019-10-09T11:37:26.000Z</Time>
            <Position>
              <LatitudeDegrees>38.7007571943104267120361328125</LatitudeDegrees>
              <LongitudeDegrees>-6.40262670814990997314453125</LongitudeDegrees>
            </Position>
            <AltitudeMeters>311.600006103515625</AltitudeMeters>
            <DistanceMeters>NAN</DistanceMeters>
          </Trackpoint>
          <Trackpoint>
            <Time>2019-10-09T11:37:29.000Z</Time>
            <Position>
              <LatitudeDegrees>38.700572960078716278076171875</LatitudeDegrees>
              <LongitudeDegrees>-6.40267993323504924774169921875</LongitudeDegrees>
            </Position>
            <AltitudeMeters>311.79998779296875</AltitudeMeters>
            <DistanceMeters>NAN</DistanceMeters>
          </Trackpoint>
          <Trackpoint>
            <Time>2019-10-09T11:37:35.000Z</Time>
            <Position>
              <LatitudeDegrees>38.70023273862898349761962890625</LatitudeDegrees>
              <LongitudeDegrees>-6.4027861319482326507568359375</LongitudeDegrees>
            </Position>
            <AltitudeMeters>311.79998779296875</AltitudeMeters>
            <DistanceMeters>NAN</DistanceMeters>
          </Trackpoint>
          <Trackpoint>
            <Time>2019-10-09T11:37:43.000Z</Time>
            <Position>
              <LatitudeDegrees>38.69981129653751850128173828125</LatitudeDegrees>
              <LongitudeDegrees>-6.40293541364371776580810546875</LongitudeDegrees>
            </Position>
            <AltitudeMeters>312.20001220703125</AltitudeMeters>
            <DistanceMeters>NAN</DistanceMeters>
          </Trackpoint>
          <Trackpoint>
            <Time>2019-10-09T11:37:45.000Z</Time>
            <Position>
              <LatitudeDegrees>38.699766956269741058349609375</LatitudeDegrees>
              <LongitudeDegrees>-6.40297246165573596954345703125</LongitudeDegrees>
            </Position>
            <AltitudeMeters>312.79998779296875</AltitudeMeters>
            <DistanceMeters>NAN</DistanceMeters>
          </Trackpoint>
          <Trackpoint>
            <Time>2019-10-09T11:37:46.000Z</Time>
            <Position>
              <LatitudeDegrees>38.69975186884403228759765625</LatitudeDegrees>
              <LongitudeDegrees>-6.4029946736991405487060546875</LongitudeDegrees>
            </Position>
            <AltitudeMeters>313</AltitudeMeters>
            <DistanceMeters>NAN</DistanceMeters>
          </Trackpoint>
          <Trackpoint>
            <Time>2019-10-09T11:37:48.000Z</Time>
            <Position>
              <LatitudeDegrees>38.6997161619365215301513671875</LatitudeDegrees>
              <LongitudeDegrees>-6.40306281857192516326904296875</LongitudeDegrees>
            </Position>
            <AltitudeMeters>312.79998779296875</AltitudeMeters>
            <DistanceMeters>NAN</DistanceMeters>
          </Trackpoint>
          <Trackpoint>
            <Time>2019-10-09T11:37:51.000Z</Time>
            <Position>
              <LatitudeDegrees>38.69963519275188446044921875</LatitudeDegrees>
              <LongitudeDegrees>-6.4031727053225040435791015625</LongitudeDegrees>
            </Position>
            <AltitudeMeters>312.79998779296875</AltitudeMeters>
            <DistanceMeters>NAN</DistanceMeters>
          </Trackpoint>
          <Trackpoint>
            <Time>2019-10-09T11:37:54.000Z</Time>
            <Position>
              <LatitudeDegrees>38.69952212087810039520263671875</LatitudeDegrees>
              <LongitudeDegrees>-6.4032179675996303558349609375</LongitudeDegrees>
            </Position>
            <AltitudeMeters>313.399993896484375</AltitudeMeters>
            <DistanceMeters>NAN</DistanceMeters>
          </Trackpoint>
          <Trackpoint>
            <Time>2019-10-09T11:37:55.000Z</Time>
            <Position>
              <LatitudeDegrees>38.699479289352893829345703125</LatitudeDegrees>
              <LongitudeDegrees>-6.40321218408644199371337890625</LongitudeDegrees>
            </Position>
            <AltitudeMeters>313.399993896484375</AltitudeMeters>
            <DistanceMeters>NAN</DistanceMeters>
          </Trackpoint>
          <Trackpoint>
            <Time>2019-10-09T11:37:58.000Z</Time>
            <Position>
              <LatitudeDegrees>38.69935414753854274749755859375</LatitudeDegrees>
              <LongitudeDegrees>-6.40315317548811435699462890625</LongitudeDegrees>
            </Position>
            <AltitudeMeters>313.399993896484375</AltitudeMeters>
            <DistanceMeters>NAN</DistanceMeters>
          </Trackpoint>
          <Trackpoint>
            <Time>2019-10-09T11:38:00.000Z</Time>
            <Position>
              <LatitudeDegrees>38.6992635391652584075927734375</LatitudeDegrees>
              <LongitudeDegrees>-6.40312023460865020751953125</LongitudeDegrees>
            </Position>
            <AltitudeMeters>313.20001220703125</AltitudeMeters>
            <DistanceMeters>NAN</DistanceMeters>
          </Trackpoint>
          <Trackpoint>
            <Time>2019-10-09T11:38:01.000Z</Time>
            <Position>
              <LatitudeDegrees>38.69921542704105377197265625</LatitudeDegrees>
              <LongitudeDegrees>-6.40311294235289096832275390625</LongitudeDegrees>
            </Position>
            <AltitudeMeters>313.20001220703125</AltitudeMeters>
            <DistanceMeters>NAN</DistanceMeters>
          </Trackpoint>
          <Trackpoint>
            <Time>2019-10-09T11:38:04.000Z</Time>
            <Position>
              <LatitudeDegrees>38.6990707553923130035400390625</LatitudeDegrees>
              <LongitudeDegrees>-6.40314412303268909454345703125</LongitudeDegrees>
            </Position>
            <AltitudeMeters>313.399993896484375</AltitudeMeters>
            <DistanceMeters>NAN</DistanceMeters>
          </Trackpoint>
          <Trackpoint>
            <Time>2019-10-09T11:38:11.000Z</Time>
            <Position>
              <LatitudeDegrees>38.69874143041670322418212890625</LatitudeDegrees>
              <LongitudeDegrees>-6.40325727872550487518310546875</LongitudeDegrees>
            </Position>
            <AltitudeMeters>314.399993896484375</AltitudeMeters>
            <DistanceMeters>NAN</DistanceMeters>
          </Trackpoint>
          <Trackpoint>
            <Time>2019-10-09T11:38:12.000Z</Time>
            <Position>
              <LatitudeDegrees>38.698693402111530303955078125</LatitudeDegrees>
              <LongitudeDegrees>-6.4032722823321819305419921875</LongitudeDegrees>
            </Position>
            <AltitudeMeters>314.20001220703125</AltitudeMeters>
            <DistanceMeters>NAN</DistanceMeters>
          </Trackpoint>
          <Trackpoint>
            <Time>2019-10-09T11:38:21.000Z</Time>
            <Position>
              <LatitudeDegrees>38.69826148264110088348388671875</LatitudeDegrees>
              <LongitudeDegrees>-6.4034117572009563446044921875</LongitudeDegrees>
            </Position>
            <AltitudeMeters>314</AltitudeMeters>
            <DistanceMeters>NAN</DistanceMeters>
          </Trackpoint>
          <Trackpoint>
            <Time>2019-10-09T11:38:31.000Z</Time>
            <Position>
              <LatitudeDegrees>38.69777047075331211090087890625</LatitudeDegrees>
              <LongitudeDegrees>-6.403567492961883544921875</LongitudeDegrees>
            </Position>
            <AltitudeMeters>314</AltitudeMeters>
            <DistanceMeters>NAN</DistanceMeters>
          </Trackpoint>
          <Trackpoint>
            <Time>2019-10-09T11:38:40.000Z</Time>
            <Position>
              <LatitudeDegrees>38.69729907251894474029541015625</LatitudeDegrees>
              <LongitudeDegrees>-6.40372230671346187591552734375</LongitudeDegrees>
            </Position>
            <AltitudeMeters>313.79998779296875</AltitudeMeters>
            <DistanceMeters>NAN</DistanceMeters>
          </Trackpoint>
          <Trackpoint>
            <Time>2019-10-09T11:38:44.000Z</Time>
            <Position>
              <LatitudeDegrees>38.697084076702594757080078125</LatitudeDegrees>
              <LongitudeDegrees>-6.40380143187940120697021484375</LongitudeDegrees>
            </Position>
            <AltitudeMeters>313.20001220703125</AltitudeMeters>
            <DistanceMeters>NAN</DistanceMeters>
          </Trackpoint>
          <Trackpoint>
            <Time>2019-10-09T11:38:48.000Z</Time>
            <Position>
              <LatitudeDegrees>38.696860782802104949951171875</LatitudeDegrees>
              <LongitudeDegrees>-6.40386722981929779052734375</LongitudeDegrees>
            </Position>
            <AltitudeMeters>313</AltitudeMeters>
            <DistanceMeters>NAN</DistanceMeters>
          </Trackpoint>
          <Trackpoint>
            <Time>2019-10-09T11:38:58.000Z</Time>
            <Position>
              <LatitudeDegrees>38.69630816392600536346435546875</LatitudeDegrees>
              <LongitudeDegrees>-6.40405171550810337066650390625</LongitudeDegrees>
            </Position>
            <AltitudeMeters>313</AltitudeMeters>
            <DistanceMeters>NAN</DistanceMeters>
          </Trackpoint>
          <Trackpoint>
            <Time>2019-10-09T11:38:59.000Z</Time>
            <Position>
              <LatitudeDegrees>38.696251250803470611572265625</LatitudeDegrees>
              <LongitudeDegrees>-6.404066048562526702880859375</LongitudeDegrees>
            </Position>
            <AltitudeMeters>313</AltitudeMeters>
            <DistanceMeters>NAN</DistanceMeters>
          </Trackpoint>
          <Trackpoint>
            <Time>2019-10-09T11:39:07.000Z</Time>
            <Position>
              <LatitudeDegrees>38.69579820893704891204833984375</LatitudeDegrees>
              <LongitudeDegrees>-6.4042207784950733184814453125</LongitudeDegrees>
            </Position>
            <AltitudeMeters>312.399993896484375</AltitudeMeters>
            <DistanceMeters>NAN</DistanceMeters>
          </Trackpoint>
          <Trackpoint>
            <Time>2019-10-09T11:39:13.000Z</Time>
            <Position>
              <LatitudeDegrees>38.69543351233005523681640625</LatitudeDegrees>
              <LongitudeDegrees>-6.404340974986553192138671875</LongitudeDegrees>
            </Position>
            <AltitudeMeters>312</AltitudeMeters>
            <DistanceMeters>NAN</DistanceMeters>
          </Trackpoint>
          <Trackpoint>
            <Time>2019-10-09T11:39:15.000Z</Time>
            <Position>
              <LatitudeDegrees>38.69530317373573780059814453125</LatitudeDegrees>
              <LongitudeDegrees>-6.404381878674030303955078125</LongitudeDegrees>
            </Position>
            <AltitudeMeters>311.20001220703125</AltitudeMeters>
            <DistanceMeters>NAN</DistanceMeters>
          </Trackpoint>
          <Trackpoint>
            <Time>2019-10-09T11:39:16.000Z</Time>
            <Position>
              <LatitudeDegrees>38.69523947127163410186767578125</LatitudeDegrees>
              <LongitudeDegrees>-6.404401995241641998291015625</LongitudeDegrees>
            </Position>
            <AltitudeMeters>310.79998779296875</AltitudeMeters>
            <DistanceMeters>NAN</DistanceMeters>
          </Trackpoint>
          <Trackpoint>
            <Time>2019-10-09T11:39:21.000Z</Time>
            <Position>
              <LatitudeDegrees>38.69491877965629100799560546875</LatitudeDegrees>
              <LongitudeDegrees>-6.404508613049983978271484375</LongitudeDegrees>
            </Position>
            <AltitudeMeters>310.20001220703125</AltitudeMeters>
            <DistanceMeters>NAN</DistanceMeters>
          </Trackpoint>
          <Trackpoint>
            <Time>2019-10-09T11:39:23.000Z</Time>
            <Position>
              <LatitudeDegrees>38.69479455985128879547119140625</LatitudeDegrees>
              <LongitudeDegrees>-6.40455144457519054412841796875</LongitudeDegrees>
            </Position>
            <AltitudeMeters>310.20001220703125</AltitudeMeters>
            <DistanceMeters>NAN</DistanceMeters>
          </Trackpoint>
          <Trackpoint>
            <Time>2019-10-09T11:39:28.000Z</Time>
            <Position>
              <LatitudeDegrees>38.6944781430065631866455078125</LatitudeDegrees>
              <LongitudeDegrees>-6.404652781784534454345703125</LongitudeDegrees>
            </Position>
            <AltitudeMeters>309.79998779296875</AltitudeMeters>
            <DistanceMeters>NAN</DistanceMeters>
          </Trackpoint>
          <Trackpoint>
            <Time>2019-10-09T11:39:32.000Z</Time>
            <Position>
              <LatitudeDegrees>38.69422241114079952239990234375</LatitudeDegrees>
              <LongitudeDegrees>-6.4047360979020595550537109375</LongitudeDegrees>
            </Position>
            <AltitudeMeters>309.600006103515625</AltitudeMeters>
            <DistanceMeters>NAN</DistanceMeters>
          </Trackpoint>
          <Trackpoint>
            <Time>2019-10-09T11:39:33.000Z</Time>
            <Position>
              <LatitudeDegrees>38.6941574513912200927734375</LatitudeDegrees>
              <LongitudeDegrees>-6.40475948341190814971923828125</LongitudeDegrees>
            </Position>
            <AltitudeMeters>309.399993896484375</AltitudeMeters>
            <DistanceMeters>NAN</DistanceMeters>
          </Trackpoint>
          <Trackpoint>
            <Time>2019-10-09T11:39:36.000Z</Time>
            <Position>
              <LatitudeDegrees>38.69396139867603778839111328125</LatitudeDegrees>
              <LongitudeDegrees>-6.40482620336115360260009765625</LongitudeDegrees>
            </Position>
            <AltitudeMeters>308.399993896484375</AltitudeMeters>
            <DistanceMeters>NAN</DistanceMeters>
          </Trackpoint>
          <Trackpoint>
            <Time>2019-10-09T11:39:38.000Z</Time>
            <Position>
              <LatitudeDegrees>38.6938275396823883056640625</LatitudeDegrees>
              <LongitudeDegrees>-6.4048722200095653533935546875</LongitudeDegrees>
            </Position>
            <AltitudeMeters>308</AltitudeMeters>
            <DistanceMeters>NAN</DistanceMeters>
          </Trackpoint>
          <Trackpoint>
            <Time>2019-10-09T11:39:40.000Z</Time>
            <Position>
              <LatitudeDegrees>38.6936909146606922149658203125</LatitudeDegrees>
              <LongitudeDegrees>-6.40490734018385410308837890625</LongitudeDegrees>
            </Position>
            <AltitudeMeters>307.600006103515625</AltitudeMeters>
            <DistanceMeters>NAN</DistanceMeters>
          </Trackpoint>
          <Trackpoint>
            <Time>2019-10-09T11:39:41.000Z</Time>
            <Position>
              <LatitudeDegrees>38.6936208419501781463623046875</LatitudeDegrees>
              <LongitudeDegrees>-6.40492661856114864349365234375</LongitudeDegrees>
            </Position>
            <AltitudeMeters>307.20001220703125</AltitudeMeters>
            <DistanceMeters>NAN</DistanceMeters>
          </Trackpoint>
          <Trackpoint>
            <Time>2019-10-09T11:39:45.000Z</Time>
            <Position>
              <LatitudeDegrees>38.69334541261196136474609375</LatitudeDegrees>
              <LongitudeDegrees>-6.40501253306865692138671875</LongitudeDegrees>
            </Position>
            <AltitudeMeters>307.600006103515625</AltitudeMeters>
            <DistanceMeters>NAN</DistanceMeters>
          </Trackpoint>
          <Trackpoint>
            <Time>2019-10-09T11:39:46.000Z</Time>
            <Position>
              <LatitudeDegrees>38.693276681005954742431640625</LatitudeDegrees>
              <LongitudeDegrees>-6.40503457747399806976318359375</LongitudeDegrees>
            </Position>
            <AltitudeMeters>307.600006103515625</AltitudeMeters>
            <DistanceMeters>NAN</DistanceMeters>
          </Trackpoint>
          <Trackpoint>
            <Time>2019-10-09T11:39:49.000Z</Time>
            <Position>
              <LatitudeDegrees>38.69306570850312709808349609375</LatitudeDegrees>
              <LongitudeDegrees>-6.40509811230003833770751953125</LongitudeDegrees>
            </Position>
            <AltitudeMeters>306.399993896484375</AltitudeMeters>
            <DistanceMeters>NAN</DistanceMeters>
          </Trackpoint>
          <Trackpoint>
            <Time>2019-10-09T11:39:50.000Z</Time>
            <Position>
              <LatitudeDegrees>38.69299563579261302947998046875</LatitudeDegrees>
              <LongitudeDegrees>-6.40512141399085521697998046875</LongitudeDegrees>
            </Position>
            <AltitudeMeters>306</AltitudeMeters>
            <DistanceMeters>NAN</DistanceMeters>
          </Trackpoint>
          <Trackpoint>
            <Time>2019-10-09T11:39:51.000Z</Time>
            <Position>
              <LatitudeDegrees>38.692924976348876953125</LatitudeDegrees>
              <LongitudeDegrees>-6.4051431231200695037841796875</LongitudeDegrees>
            </Position>
            <AltitudeMeters>306</AltitudeMeters>
            <DistanceMeters>NAN</DistanceMeters>
          </Trackpoint>
          <Trackpoint>
            <Time>2019-10-09T11:39:53.000Z</Time>
            <Position>
              <LatitudeDegrees>38.69278625585138797760009765625</LatitudeDegrees>
              <LongitudeDegrees>-6.40518578700721263885498046875</LongitudeDegrees>
            </Position>
            <AltitudeMeters>305.399993896484375</AltitudeMeters>
            <DistanceMeters>NAN</DistanceMeters>
          </Trackpoint>
          <Trackpoint>
            <Time>2019-10-09T11:39:54.000Z</Time>
            <Position>
              <LatitudeDegrees>38.69271911680698394775390625</LatitudeDegrees>
              <LongitudeDegrees>-6.4052049815654754638671875</LongitudeDegrees>
            </Position>
            <AltitudeMeters>304.79998779296875</AltitudeMeters>
            <DistanceMeters>NAN</DistanceMeters>
          </Trackpoint>
          <Trackpoint>
            <Time>2019-10-09T11:39:55.000Z</Time>
            <Position>
              <LatitudeDegrees>38.69265197776257991790771484375</LatitudeDegrees>
              <LongitudeDegrees>-6.40522434376180171966552734375</LongitudeDegrees>
            </Position>
            <AltitudeMeters>305.600006103515625</AltitudeMeters>
            <DistanceMeters>NAN</DistanceMeters>
          </Trackpoint>
          <Trackpoint>
            <Time>2019-10-09T11:39:58.000Z</Time>
            <Position>
              <LatitudeDegrees>38.6924569308757781982421875</LatitudeDegrees>
              <LongitudeDegrees>-6.40528419055044651031494140625</LongitudeDegrees>
            </Position>
            <AltitudeMeters>305.79998779296875</AltitudeMeters>
            <DistanceMeters>NAN</DistanceMeters>
          </Trackpoint>
          <Trackpoint>
            <Time>2019-10-09T11:40:03.000Z</Time>
            <Position>
              <LatitudeDegrees>38.692152835428714752197265625</LatitudeDegrees>
              <LongitudeDegrees>-6.40538661740720272064208984375</LongitudeDegrees>
            </Position>
            <AltitudeMeters>306.399993896484375</AltitudeMeters>
            <DistanceMeters>NAN</DistanceMeters>
          </Trackpoint>
          <Trackpoint>
            <Time>2019-10-09T11:40:06.000Z</Time>
            <Position>
              <LatitudeDegrees>38.69199357926845550537109375</LatitudeDegrees>
              <LongitudeDegrees>-6.4054579474031925201416015625</LongitudeDegrees>
            </Position>
            <AltitudeMeters>306.79998779296875</AltitudeMeters>
            <DistanceMeters>NAN</DistanceMeters>
          </Trackpoint>
          <Trackpoint>
            <Time>2019-10-09T11:40:07.000Z</Time>
            <Position>
              <LatitudeDegrees>38.69196332059800624847412109375</LatitudeDegrees>
              <LongitudeDegrees>-6.40548418276011943817138671875</LongitudeDegrees>
            </Position>
            <AltitudeMeters>307</AltitudeMeters>
            <DistanceMeters>NAN</DistanceMeters>
          </Trackpoint>
          <Trackpoint>
            <Time>2019-10-09T11:40:10.000Z</Time>
            <Position>
              <LatitudeDegrees>38.69193725287914276123046875</LatitudeDegrees>
              <LongitudeDegrees>-6.40552081167697906494140625</LongitudeDegrees>
            </Position>
            <AltitudeMeters>307</AltitudeMeters>
            <DistanceMeters>NAN</DistanceMeters>
          </Trackpoint>
          <Trackpoint>
            <Time>2019-10-09T11:40:12.000Z</Time>
            <Position>
              <LatitudeDegrees>38.69194018654525279998779296875</LatitudeDegrees>
              <LongitudeDegrees>-6.40551988966763019561767578125</LongitudeDegrees>
            </Position>
            <AltitudeMeters>307.399993896484375</AltitudeMeters>
            <DistanceMeters>NAN</DistanceMeters>
          </Trackpoint>
          <Trackpoint>
            <Time>2019-10-09T11:40:15.000Z</Time>
            <Position>
              <LatitudeDegrees>38.69193515740334987640380859375</LatitudeDegrees>
              <LongitudeDegrees>-6.40553112141788005828857421875</LongitudeDegrees>
            </Position>
            <AltitudeMeters>307.20001220703125</AltitudeMeters>
            <DistanceMeters>NAN</DistanceMeters>
          </Trackpoint>
          <Trackpoint>
            <Time>2019-10-09T11:40:19.000Z</Time>
            <Position>
              <LatitudeDegrees>38.69183725677430629730224609375</LatitudeDegrees>
              <LongitudeDegrees>-6.4056904613971710205078125</LongitudeDegrees>
            </Position>
            <AltitudeMeters>306.79998779296875</AltitudeMeters>
            <DistanceMeters>NAN</DistanceMeters>
          </Trackpoint>
          <Trackpoint>
            <Time>2019-10-09T11:40:21.000Z</Time>
            <Position>
              <LatitudeDegrees>38.691753856837749481201171875</LatitudeDegrees>
              <LongitudeDegrees>-6.40574620105326175689697265625</LongitudeDegrees>
            </Position>
            <AltitudeMeters>307.399993896484375</AltitudeMeters>
            <DistanceMeters>NAN</DistanceMeters>
          </Trackpoint>
          <Trackpoint>
            <Time>2019-10-09T11:40:23.000Z</Time>
            <Position>
              <LatitudeDegrees>38.6916628293693065643310546875</LatitudeDegrees>
              <LongitudeDegrees>-6.4057637192308902740478515625</LongitudeDegrees>
            </Position>
            <AltitudeMeters>307.79998779296875</AltitudeMeters>
            <DistanceMeters>NAN</DistanceMeters>
          </Trackpoint>
          <Trackpoint>
            <Time>2019-10-09T11:40:26.000Z</Time>
            <Position>
              <LatitudeDegrees>38.6915310658514499664306640625</LatitudeDegrees>
              <LongitudeDegrees>-6.40571384690701961517333984375</LongitudeDegrees>
            </Position>
            <AltitudeMeters>308</AltitudeMeters>
            <DistanceMeters>NAN</DistanceMeters>
          </Trackpoint>
          <Trackpoint>
            <Time>2019-10-09T11:40:27.000Z</Time>
            <Position>
              <LatitudeDegrees>38.6914859712123870849609375</LatitudeDegrees>
              <LongitudeDegrees>-6.40569255687296390533447265625</LongitudeDegrees>
            </Position>
            <AltitudeMeters>308</AltitudeMeters>
            <DistanceMeters>NAN</DistanceMeters>
          </Trackpoint>
          <Trackpoint>
            <Time>2019-10-09T11:40:28.000Z</Time>
            <Position>
              <LatitudeDegrees>38.6914385296404361724853515625</LatitudeDegrees>
              <LongitudeDegrees>-6.4056886173784732818603515625</LongitudeDegrees>
            </Position>
            <AltitudeMeters>307.79998779296875</AltitudeMeters>
            <DistanceMeters>NAN</DistanceMeters>
          </Trackpoint>
          <Trackpoint>
            <Time>2019-10-09T11:40:29.000Z</Time>
            <Position>
              <LatitudeDegrees>38.69139301590621471405029296875</LatitudeDegrees>
              <LongitudeDegrees>-6.40569138340651988983154296875</LongitudeDegrees>
            </Position>
            <AltitudeMeters>308.20001220703125</AltitudeMeters>
            <DistanceMeters>NAN</DistanceMeters>
          </Trackpoint>
          <Trackpoint>
            <Time>2019-10-09T11:40:31.000Z</Time>
            <Position>
              <LatitudeDegrees>38.69130550883710384368896484375</LatitudeDegrees>
              <LongitudeDegrees>-6.40571300871670246124267578125</LongitudeDegrees>
            </Position>
            <AltitudeMeters>308.399993896484375</AltitudeMeters>
            <DistanceMeters>NAN</DistanceMeters>
          </Trackpoint>
          <Trackpoint>
            <Time>2019-10-09T11:40:35.000Z</Time>
            <Position>
              <LatitudeDegrees>38.6911340989172458648681640625</LatitudeDegrees>
              <LongitudeDegrees>-6.40575952827930450439453125</LongitudeDegrees>
            </Position>
            <AltitudeMeters>308.600006103515625</AltitudeMeters>
            <DistanceMeters>NAN</DistanceMeters>
          </Trackpoint>
          <Trackpoint>
            <Time>2019-10-09T11:40:38.000Z</Time>
            <Position>
              <LatitudeDegrees>38.69100744836032390594482421875</LatitudeDegrees>
              <LongitudeDegrees>-6.4057985879480838775634765625</LongitudeDegrees>
            </Position>
            <AltitudeMeters>308.79998779296875</AltitudeMeters>
            <DistanceMeters>NAN</DistanceMeters>
          </Trackpoint>
          <Trackpoint>
            <Time>2019-10-09T11:40:39.000Z</Time>
            <Position>
              <LatitudeDegrees>38.69096620939671993255615234375</LatitudeDegrees>
              <LongitudeDegrees>-6.40581040643155574798583984375</LongitudeDegrees>
            </Position>
            <AltitudeMeters>308.79998779296875</AltitudeMeters>
            <DistanceMeters>NAN</DistanceMeters>
          </Trackpoint>
          <Trackpoint>
            <Time>2019-10-09T11:40:41.000Z</Time>
            <Position>
              <LatitudeDegrees>38.6908849887549877166748046875</LatitudeDegrees>
              <LongitudeDegrees>-6.4058326184749603271484375</LongitudeDegrees>
            </Position>
            <AltitudeMeters>309.20001220703125</AltitudeMeters>
            <DistanceMeters>NAN</DistanceMeters>
          </Trackpoint>
          <Trackpoint>
            <Time>2019-10-09T11:40:45.000Z</Time>
            <Position>
              <LatitudeDegrees>38.69072263129055500030517578125</LatitudeDegrees>
              <LongitudeDegrees>-6.4058807305991649627685546875</LongitudeDegrees>
            </Position>
            <AltitudeMeters>310</AltitudeMeters>
            <DistanceMeters>NAN</DistanceMeters>
          </Trackpoint>
          <Trackpoint>
            <Time>2019-10-09T11:40:47.000Z</Time>
            <Position>
              <LatitudeDegrees>38.69064199738204479217529296875</LatitudeDegrees>
              <LongitudeDegrees>-6.4059048704802989959716796875</LongitudeDegrees>
            </Position>
            <AltitudeMeters>310.399993896484375</AltitudeMeters>
            <DistanceMeters>NAN</DistanceMeters>
          </Trackpoint>
          <Trackpoint>
            <Time>2019-10-09T11:40:48.000Z</Time>
            <Position>
              <LatitudeDegrees>38.69060310535132884979248046875</LatitudeDegrees>
              <LongitudeDegrees>-6.40591417439281940460205078125</LongitudeDegrees>
            </Position>
            <AltitudeMeters>310.399993896484375</AltitudeMeters>
            <DistanceMeters>NAN</DistanceMeters>
          </Trackpoint>
          <Trackpoint>
            <Time>2019-10-09T11:40:51.000Z</Time>
            <Position>
              <LatitudeDegrees>38.69048693217337131500244140625</LatitudeDegrees>
              <LongitudeDegrees>-6.405942253768444061279296875</LongitudeDegrees>
            </Position>
            <AltitudeMeters>311</AltitudeMeters>
            <DistanceMeters>NAN</DistanceMeters>
          </Trackpoint>
          <Trackpoint>
            <Time>2019-10-09T11:40:55.000Z</Time>
            <Position>
              <LatitudeDegrees>38.6903284303843975067138671875</LatitudeDegrees>
              <LongitudeDegrees>-6.40596329234540462493896484375</LongitudeDegrees>
            </Position>
            <AltitudeMeters>311</AltitudeMeters>
            <DistanceMeters>NAN</DistanceMeters>
          </Trackpoint>
          <Trackpoint>
            <Time>2019-10-09T11:40:57.000Z</Time>
            <Position>
              <LatitudeDegrees>38.69024813175201416015625</LatitudeDegrees>
              <LongitudeDegrees>-6.4059601910412311553955078125</LongitudeDegrees>
            </Position>
            <AltitudeMeters>311.600006103515625</AltitudeMeters>
            <DistanceMeters>NAN</DistanceMeters>
          </Trackpoint>
          <Trackpoint>
            <Time>2019-10-09T11:41:02.000Z</Time>
            <Position>
              <LatitudeDegrees>38.69004755280911922454833984375</LatitudeDegrees>
              <LongitudeDegrees>-6.4059038646519184112548828125</LongitudeDegrees>
            </Position>
            <AltitudeMeters>311.600006103515625</AltitudeMeters>
            <DistanceMeters>NAN</DistanceMeters>
          </Trackpoint>
          <Trackpoint>
            <Time>2019-10-09T11:41:04.000Z</Time>
            <Position>
              <LatitudeDegrees>38.68996943347156047821044921875</LatitudeDegrees>
              <LongitudeDegrees>-6.40586455352604389190673828125</LongitudeDegrees>
            </Position>
            <AltitudeMeters>312.20001220703125</AltitudeMeters>
            <DistanceMeters>NAN</DistanceMeters>
          </Trackpoint>
          <Trackpoint>
            <Time>2019-10-09T11:41:06.000Z</Time>
            <Position>
              <LatitudeDegrees>38.68989483453333377838134765625</LatitudeDegrees>
              <LongitudeDegrees>-6.4058111608028411865234375</LongitudeDegrees>
            </Position>
            <AltitudeMeters>312</AltitudeMeters>
            <DistanceMeters>NAN</DistanceMeters>
          </Trackpoint>
          <Trackpoint>
            <Time>2019-10-09T11:41:09.000Z</Time>
            <Position>
              <LatitudeDegrees>38.68979006074368953704833984375</LatitudeDegrees>
              <LongitudeDegrees>-6.40572558157145977020263671875</LongitudeDegrees>
            </Position>
            <AltitudeMeters>312.79998779296875</AltitudeMeters>
            <DistanceMeters>NAN</DistanceMeters>
          </Trackpoint>
          <Trackpoint>
            <Time>2019-10-09T11:41:11.000Z</Time>
            <Position>
              <LatitudeDegrees>38.68972367607057094573974609375</LatitudeDegrees>
              <LongitudeDegrees>-6.40567143447697162628173828125</LongitudeDegrees>
            </Position>
            <AltitudeMeters>313.20001220703125</AltitudeMeters>
            <DistanceMeters>NAN</DistanceMeters>
          </Trackpoint>
          <Trackpoint>
            <Time>2019-10-09T11:41:13.000Z</Time>
            <Position>
              <LatitudeDegrees>38.689657710492610931396484375</LatitudeDegrees>
              <LongitudeDegrees>-6.405608654022216796875</LongitudeDegrees>
            </Position>
            <AltitudeMeters>313</AltitudeMeters>
            <DistanceMeters>NAN</DistanceMeters>
          </Trackpoint>
          <Trackpoint>
            <Time>2019-10-09T11:41:17.000Z</Time>
            <Position>
              <LatitudeDegrees>38.68952997028827667236328125</LatitudeDegrees>
              <LongitudeDegrees>-6.4054770581424236297607421875</LongitudeDegrees>
            </Position>
            <AltitudeMeters>313.20001220703125</AltitudeMeters>
            <DistanceMeters>NAN</DistanceMeters>
          </Trackpoint>
          <Trackpoint>
            <Time>2019-10-09T11:41:21.000Z</Time>
            <Position>
              <LatitudeDegrees>38.68939175270497798919677734375</LatitudeDegrees>
              <LongitudeDegrees>-6.40535946004092693328857421875</LongitudeDegrees>
            </Position>
            <AltitudeMeters>314.20001220703125</AltitudeMeters>
            <DistanceMeters>NAN</DistanceMeters>
          </Trackpoint>
          <Trackpoint>
            <Time>2019-10-09T11:41:26.000Z</Time>
            <Position>
              <LatitudeDegrees>38.68923467583954334259033203125</LatitudeDegrees>
              <LongitudeDegrees>-6.40521009452641010284423828125</LongitudeDegrees>
            </Position>
            <AltitudeMeters>314</AltitudeMeters>
            <DistanceMeters>NAN</DistanceMeters>
          </Trackpoint>
          <Trackpoint>
            <Time>2019-10-09T11:41:33.000Z</Time>
            <Position>
              <LatitudeDegrees>38.6890201829373836517333984375</LatitudeDegrees>
              <LongitudeDegrees>-6.40498260967433452606201171875</LongitudeDegrees>
            </Position>
            <AltitudeMeters>314.399993896484375</AltitudeMeters>
            <DistanceMeters>NAN</DistanceMeters>
          </Trackpoint>
          <Trackpoint>
            <Time>2019-10-09T11:41:35.000Z</Time>
            <Position>
              <LatitudeDegrees>38.68895689956843852996826171875</LatitudeDegrees>
              <LongitudeDegrees>-6.40491890721023082733154296875</LongitudeDegrees>
            </Position>
            <AltitudeMeters>314.399993896484375</AltitudeMeters>
            <DistanceMeters>NAN</DistanceMeters>
          </Trackpoint>
          <Trackpoint>
            <Time>2019-10-09T11:41:45.000Z</Time>
            <Position>
              <LatitudeDegrees>38.688623718917369842529296875</LatitudeDegrees>
              <LongitudeDegrees>-6.4045848883688449859619140625</LongitudeDegrees>
            </Position>
            <AltitudeMeters>315.20001220703125</AltitudeMeters>
            <DistanceMeters>NAN</DistanceMeters>
          </Trackpoint>
          <Trackpoint>
            <Time>2019-10-09T11:41:46.000Z</Time>
            <Position>
              <LatitudeDegrees>38.6885886825621128082275390625</LatitudeDegrees>
              <LongitudeDegrees>-6.40454985201358795166015625</LongitudeDegrees>
            </Position>
            <AltitudeMeters>315</AltitudeMeters>
            <DistanceMeters>NAN</DistanceMeters>
          </Trackpoint>
          <Trackpoint>
            <Time>2019-10-09T11:41:52.000Z</Time>
            <Position>
              <LatitudeDegrees>38.68837754242122173309326171875</LatitudeDegrees>
              <LongitudeDegrees>-6.404371149837970733642578125</LongitudeDegrees>
            </Position>
            <AltitudeMeters>315.399993896484375</AltitudeMeters>
            <DistanceMeters>NAN</DistanceMeters>
          </Trackpoint>
          <Trackpoint>
            <Time>2019-10-09T11:41:56.000Z</Time>
            <Position>
              <LatitudeDegrees>38.68824091739952564239501953125</LatitudeDegrees>
              <LongitudeDegrees>-6.40424416400492191314697265625</LongitudeDegrees>
            </Position>
            <AltitudeMeters>315.20001220703125</AltitudeMeters>
            <DistanceMeters>NAN</DistanceMeters>
          </Trackpoint>
          <Trackpoint>
            <Time>2019-10-09T11:42:07.000Z</Time>
            <Position>
              <LatitudeDegrees>38.6878577806055545806884765625</LatitudeDegrees>
              <LongitudeDegrees>-6.4038918726146221160888671875</LongitudeDegrees>
            </Position>
            <AltitudeMeters>315.79998779296875</AltitudeMeters>
            <DistanceMeters>NAN</DistanceMeters>
          </Trackpoint>
          <Trackpoint>
            <Time>2019-10-09T11:42:11.000Z</Time>
            <Position>
              <LatitudeDegrees>38.68772082030773162841796875</LatitudeDegrees>
              <LongitudeDegrees>-6.40376823954284191131591796875</LongitudeDegrees>
            </Position>
            <AltitudeMeters>316.399993896484375</AltitudeMeters>
            <DistanceMeters>NAN</DistanceMeters>
          </Trackpoint>
          <Trackpoint>
            <Time>2019-10-09T11:42:15.000Z</Time>
            <Position>
              <LatitudeDegrees>38.6875841952860355377197265625</LatitudeDegrees>
              <LongitudeDegrees>-6.40364485792815685272216796875</LongitudeDegrees>
            </Position>
            <AltitudeMeters>316.600006103515625</AltitudeMeters>
            <DistanceMeters>NAN</DistanceMeters>
          </Trackpoint>
          <Trackpoint>
            <Time>2019-10-09T11:42:24.000Z</Time>
            <Position>
              <LatitudeDegrees>38.68727666325867176055908203125</LatitudeDegrees>
              <LongitudeDegrees>-6.40336004085838794708251953125</LongitudeDegrees>
            </Position>
            <AltitudeMeters>317.399993896484375</AltitudeMeters>
            <DistanceMeters>NAN</DistanceMeters>
          </Trackpoint>
          <Trackpoint>
            <Time>2019-10-09T11:42:25.000Z</Time>
            <Position>
              <LatitudeDegrees>38.68725009262561798095703125</LatitudeDegrees>
              <LongitudeDegrees>-6.40333439223468303680419921875</LongitudeDegrees>
            </Position>
            <AltitudeMeters>317.79998779296875</AltitudeMeters>
            <DistanceMeters>NAN</DistanceMeters>
          </Trackpoint>
          <Trackpoint>
            <Time>2019-10-09T11:42:30.000Z</Time>
            <Position>
              <LatitudeDegrees>38.68708354420959949493408203125</LatitudeDegrees>
              <LongitudeDegrees>-6.4031834341585636138916015625</LongitudeDegrees>
            </Position>
            <AltitudeMeters>318.20001220703125</AltitudeMeters>
            <DistanceMeters>NAN</DistanceMeters>
          </Trackpoint>
          <Trackpoint>
            <Time>2019-10-09T11:42:34.000Z</Time>
            <Position>
              <LatitudeDegrees>38.68695144541561603546142578125</LatitudeDegrees>
              <LongitudeDegrees>-6.403062231838703155517578125</LongitudeDegrees>
            </Position>
            <AltitudeMeters>318.399993896484375</AltitudeMeters>
            <DistanceMeters>NAN</DistanceMeters>
          </Trackpoint>
          <Trackpoint>
            <Time>2019-10-09T11:42:35.000Z</Time>
            <Position>
              <LatitudeDegrees>38.686919175088405609130859375</LatitudeDegrees>
              <LongitudeDegrees>-6.40303038060665130615234375</LongitudeDegrees>
            </Position>
            <AltitudeMeters>318.399993896484375</AltitudeMeters>
            <DistanceMeters>NAN</DistanceMeters>
          </Trackpoint>
          <Trackpoint>
            <Time>2019-10-09T11:42:42.000Z</Time>
            <Position>
              <LatitudeDegrees>38.68669009767472743988037109375</LatitudeDegrees>
              <LongitudeDegrees>-6.4028072543442249298095703125</LongitudeDegrees>
            </Position>
            <AltitudeMeters>319.20001220703125</AltitudeMeters>
            <DistanceMeters>NAN</DistanceMeters>
          </Trackpoint>
          <Trackpoint>
            <Time>2019-10-09T11:42:43.000Z</Time>
            <Position>
              <LatitudeDegrees>38.686656989157199859619140625</LatitudeDegrees>
              <LongitudeDegrees>-6.402776576578617095947265625</LongitudeDegrees>
            </Position>
            <AltitudeMeters>319.20001220703125</AltitudeMeters>
            <DistanceMeters>NAN</DistanceMeters>
          </Trackpoint>
          <Trackpoint>
            <Time>2019-10-09T11:42:44.000Z</Time>
            <Position>
              <LatitudeDegrees>38.6866232939064502716064453125</LatitudeDegrees>
              <LongitudeDegrees>-6.4027469046413898468017578125</LongitudeDegrees>
            </Position>
            <AltitudeMeters>319.600006103515625</AltitudeMeters>
            <DistanceMeters>NAN</DistanceMeters>
          </Trackpoint>
          <Trackpoint>
            <Time>2019-10-09T11:42:52.000Z</Time>
            <Position>
              <LatitudeDegrees>38.68635918013751506805419921875</LatitudeDegrees>
              <LongitudeDegrees>-6.40250039286911487579345703125</LongitudeDegrees>
            </Position>
            <AltitudeMeters>320.600006103515625</AltitudeMeters>
            <DistanceMeters>NAN</DistanceMeters>
          </Trackpoint>
          <Trackpoint>
            <Time>2019-10-09T11:42:53.000Z</Time>
            <Position>
              <LatitudeDegrees>38.686325736343860626220703125</LatitudeDegrees>
              <LongitudeDegrees>-6.40247155912220478057861328125</LongitudeDegrees>
            </Position>
            <AltitudeMeters>320.600006103515625</AltitudeMeters>
            <DistanceMeters>NAN</DistanceMeters>
          </Trackpoint>
          <Trackpoint>
            <Time>2019-10-09T11:43:01.000Z</Time>
            <Position>
              <LatitudeDegrees>38.686058185994625091552734375</LatitudeDegrees>
              <LongitudeDegrees>-6.40222303569316864013671875</LongitudeDegrees>
            </Position>
            <AltitudeMeters>321.399993896484375</AltitudeMeters>
            <DistanceMeters>NAN</DistanceMeters>
          </Trackpoint>
          <Trackpoint>
            <Time>2019-10-09T11:43:05.000Z</Time>
            <Position>
              <LatitudeDegrees>38.68592097423970699310302734375</LatitudeDegrees>
              <LongitudeDegrees>-6.4020961336791515350341796875</LongitudeDegrees>
            </Position>
            <AltitudeMeters>321.79998779296875</AltitudeMeters>
            <DistanceMeters>NAN</DistanceMeters>
          </Trackpoint>
          <Trackpoint>
            <Time>2019-10-09T11:43:10.000Z</Time>
            <Position>
              <LatitudeDegrees>38.68575132451951503753662109375</LatitudeDegrees>
              <LongitudeDegrees>-6.4019378833472728729248046875</LongitudeDegrees>
            </Position>
            <AltitudeMeters>322.600006103515625</AltitudeMeters>
            <DistanceMeters>NAN</DistanceMeters>
          </Trackpoint>
          <Trackpoint>
            <Time>2019-10-09T11:43:11.000Z</Time>
            <Position>
              <LatitudeDegrees>38.6857183836400508880615234375</LatitudeDegrees>
              <LongitudeDegrees>-6.4019058644771575927734375</LongitudeDegrees>
            </Position>
            <AltitudeMeters>322.79998779296875</AltitudeMeters>
            <DistanceMeters>NAN</DistanceMeters>
          </Trackpoint>
          <Trackpoint>
            <Time>2019-10-09T11:43:19.000Z</Time>
            <Position>
              <LatitudeDegrees>38.68545192293822765350341796875</LatitudeDegrees>
              <LongitudeDegrees>-6.40165918506681919097900390625</LongitudeDegrees>
            </Position>
            <AltitudeMeters>323.600006103515625</AltitudeMeters>
            <DistanceMeters>NAN</DistanceMeters>
          </Trackpoint>
          <Trackpoint>
            <Time>2019-10-09T11:43:22.000Z</Time>
            <Position>
              <LatitudeDegrees>38.68535251356661319732666015625</LatitudeDegrees>
              <LongitudeDegrees>-6.40156053006649017333984375</LongitudeDegrees>
            </Position>
            <AltitudeMeters>324</AltitudeMeters>
            <DistanceMeters>NAN</DistanceMeters>
          </Trackpoint>
          <Trackpoint>
            <Time>2019-10-09T11:43:27.000Z</Time>
            <Position>
              <LatitudeDegrees>38.68518521077930927276611328125</LatitudeDegrees>
              <LongitudeDegrees>-6.40137973241508007049560546875</LongitudeDegrees>
            </Position>
            <AltitudeMeters>324.20001220703125</AltitudeMeters>
            <DistanceMeters>NAN</DistanceMeters>
          </Trackpoint>
          <Trackpoint>
            <Time>2019-10-09T11:43:37.000Z</Time>
            <Position>
              <LatitudeDegrees>38.684812299907207489013671875</LatitudeDegrees>
              <LongitudeDegrees>-6.401006318628787994384765625</LongitudeDegrees>
            </Position>
            <AltitudeMeters>324.20001220703125</AltitudeMeters>
            <DistanceMeters>NAN</DistanceMeters>
          </Trackpoint>
          <Trackpoint>
            <Time>2019-10-09T11:43:46.000Z</Time>
            <Position>
              <LatitudeDegrees>38.6844714917242527008056640625</LatitudeDegrees>
              <LongitudeDegrees>-6.4006862975656986236572265625</LongitudeDegrees>
            </Position>
            <AltitudeMeters>324</AltitudeMeters>
            <DistanceMeters>NAN</DistanceMeters>
          </Trackpoint>
          <Trackpoint>
            <Time>2019-10-09T11:43:54.000Z</Time>
            <Position>
              <LatitudeDegrees>38.6841378919780254364013671875</LatitudeDegrees>
              <LongitudeDegrees>-6.40039167366921901702880859375</LongitudeDegrees>
            </Position>
            <AltitudeMeters>323.79998779296875</AltitudeMeters>
            <DistanceMeters>NAN</DistanceMeters>
          </Trackpoint>
          <Trackpoint>
            <Time>2019-10-09T11:43:56.000Z</Time>
            <Position>
              <LatitudeDegrees>38.68404619395732879638671875</LatitudeDegrees>
              <LongitudeDegrees>-6.40031623654067516326904296875</LongitudeDegrees>
            </Position>
            <AltitudeMeters>323.399993896484375</AltitudeMeters>
            <DistanceMeters>NAN</DistanceMeters>
          </Trackpoint>
          <Trackpoint>
            <Time>2019-10-09T11:43:58.000Z</Time>
            <Position>
              <LatitudeDegrees>38.6839516460895538330078125</LatitudeDegrees>
              <LongitudeDegrees>-6.40022923238575458526611328125</LongitudeDegrees>
            </Position>
            <AltitudeMeters>323</AltitudeMeters>
            <DistanceMeters>NAN</DistanceMeters>
          </Trackpoint>
          <Trackpoint>
            <Time>2019-10-09T11:43:59.000Z</Time>
            <Position>
              <LatitudeDegrees>38.68389909155666828155517578125</LatitudeDegrees>
              <LongitudeDegrees>-6.400193609297275543212890625</LongitudeDegrees>
            </Position>
            <AltitudeMeters>322.600006103515625</AltitudeMeters>
            <DistanceMeters>NAN</DistanceMeters>
          </Trackpoint>
          <Trackpoint>
            <Time>2019-10-09T11:44:00.000Z</Time>
            <Position>
              <LatitudeDegrees>38.68384477682411670684814453125</LatitudeDegrees>
              <LongitudeDegrees>-6.40017248690128326416015625</LongitudeDegrees>
            </Position>
            <AltitudeMeters>322.399993896484375</AltitudeMeters>
            <DistanceMeters>NAN</DistanceMeters>
          </Trackpoint>
          <Trackpoint>
            <Time>2019-10-09T11:44:04.000Z</Time>
            <Position>
              <LatitudeDegrees>38.6836604587733745574951171875</LatitudeDegrees>
              <LongitudeDegrees>-6.400015912950038909912109375</LongitudeDegrees>
            </Position>
            <AltitudeMeters>322</AltitudeMeters>
            <DistanceMeters>NAN</DistanceMeters>
          </Trackpoint>
          <Trackpoint>
            <Time>2019-10-09T11:44:05.000Z</Time>
            <Position>
              <LatitudeDegrees>38.68363254703581333160400390625</LatitudeDegrees>
              <LongitudeDegrees>-6.3999577425420284271240234375</LongitudeDegrees>
            </Position>
            <AltitudeMeters>322.20001220703125</AltitudeMeters>
            <DistanceMeters>NAN</DistanceMeters>
          </Trackpoint>
          <Trackpoint>
            <Time>2019-10-09T11:44:07.000Z</Time>
            <Position>
              <LatitudeDegrees>38.68355744518339633941650390625</LatitudeDegrees>
              <LongitudeDegrees>-6.3998427428305149078369140625</LongitudeDegrees>
            </Position>
            <AltitudeMeters>321.79998779296875</AltitudeMeters>
            <DistanceMeters>NAN</DistanceMeters>
          </Trackpoint>
          <Trackpoint>
            <Time>2019-10-09T11:44:08.000Z</Time>
            <Position>
              <LatitudeDegrees>38.6835109256207942962646484375</LatitudeDegrees>
              <LongitudeDegrees>-6.39979840256273746490478515625</LongitudeDegrees>
            </Position>
            <AltitudeMeters>321.600006103515625</AltitudeMeters>
            <DistanceMeters>NAN</DistanceMeters>
          </Trackpoint>
          <Trackpoint>
            <Time>2019-10-09T11:44:09.000Z</Time>
            <Position>
              <LatitudeDegrees>38.6834608018398284912109375</LatitudeDegrees>
              <LongitudeDegrees>-6.39975733123719692230224609375</LongitudeDegrees>
            </Position>
            <AltitudeMeters>321.79998779296875</AltitudeMeters>
            <DistanceMeters>NAN</DistanceMeters>
          </Trackpoint>
          <Trackpoint>
            <Time>2019-10-09T11:44:11.000Z</Time>
            <Position>
              <LatitudeDegrees>38.68337161839008331298828125</LatitudeDegrees>
              <LongitudeDegrees>-6.39966395683586597442626953125</LongitudeDegrees>
            </Position>
            <AltitudeMeters>321.79998779296875</AltitudeMeters>
            <DistanceMeters>NAN</DistanceMeters>
          </Trackpoint>
          <Trackpoint>
            <Time>2019-10-09T11:44:15.000Z</Time>
            <Position>
              <LatitudeDegrees>38.68318327702581882476806640625</LatitudeDegrees>
              <LongitudeDegrees>-6.39948307536542415618896484375</LongitudeDegrees>
            </Position>
            <AltitudeMeters>321.600006103515625</AltitudeMeters>
            <DistanceMeters>NAN</DistanceMeters>
          </Trackpoint>
          <Trackpoint>
            <Time>2019-10-09T11:44:17.000Z</Time>
            <Position>
              <LatitudeDegrees>38.6830931715667247772216796875</LatitudeDegrees>
              <LongitudeDegrees>-6.39938634820282459259033203125</LongitudeDegrees>
            </Position>
            <AltitudeMeters>321.20001220703125</AltitudeMeters>
            <DistanceMeters>NAN</DistanceMeters>
          </Trackpoint>
          <Trackpoint>
            <Time>2019-10-09T11:44:18.000Z</Time>
            <Position>
              <LatitudeDegrees>38.6830485798418521881103515625</LatitudeDegrees>
              <LongitudeDegrees>-6.39933790080249309539794921875</LongitudeDegrees>
            </Position>
            <AltitudeMeters>321.399993896484375</AltitudeMeters>
            <DistanceMeters>NAN</DistanceMeters>
          </Trackpoint>
          <Trackpoint>
            <Time>2019-10-09T11:44:19.000Z</Time>
            <Position>
              <LatitudeDegrees>38.683002479374408721923828125</LatitudeDegrees>
              <LongitudeDegrees>-6.39929414726793766021728515625</LongitudeDegrees>
            </Position>
            <AltitudeMeters>321.79998779296875</AltitudeMeters>
            <DistanceMeters>NAN</DistanceMeters>
          </Trackpoint>
          <Trackpoint>
            <Time>2019-10-09T11:44:20.000Z</Time>
            <Position>
              <LatitudeDegrees>38.68295763619244098663330078125</LatitudeDegrees>
              <LongitudeDegrees>-6.39925089664757251739501953125</LongitudeDegrees>
            </Position>
            <AltitudeMeters>322</AltitudeMeters>
            <DistanceMeters>NAN</DistanceMeters>
          </Trackpoint>
          <Trackpoint>
            <Time>2019-10-09T11:44:23.000Z</Time>
            <Position>
              <LatitudeDegrees>38.6828266270458698272705078125</LatitudeDegrees>
              <LongitudeDegrees>-6.3991292752325534820556640625</LongitudeDegrees>
            </Position>
            <AltitudeMeters>322</AltitudeMeters>
            <DistanceMeters>NAN</DistanceMeters>
          </Trackpoint>
          <Trackpoint>
            <Time>2019-10-09T11:44:24.000Z</Time>
            <Position>
              <LatitudeDegrees>38.68278513662517070770263671875</LatitudeDegrees>
              <LongitudeDegrees>-6.39909013174474239349365234375</LongitudeDegrees>
            </Position>
            <AltitudeMeters>322.399993896484375</AltitudeMeters>
            <DistanceMeters>NAN</DistanceMeters>
          </Trackpoint>
          <Trackpoint>
            <Time>2019-10-09T11:44:25.000Z</Time>
            <Position>
              <LatitudeDegrees>38.68274373002350330352783203125</LatitudeDegrees>
              <LongitudeDegrees>-6.399050988256931304931640625</LongitudeDegrees>
            </Position>
            <AltitudeMeters>322.399993896484375</AltitudeMeters>
            <DistanceMeters>NAN</DistanceMeters>
          </Trackpoint>
          <Trackpoint>
            <Time>2019-10-09T11:44:26.000Z</Time>
            <Position>
              <LatitudeDegrees>38.68270374834537506103515625</LatitudeDegrees>
              <LongitudeDegrees>-6.39900966547429561614990234375</LongitudeDegrees>
            </Position>
            <AltitudeMeters>322.600006103515625</AltitudeMeters>
            <DistanceMeters>NAN</DistanceMeters>
          </Trackpoint>
          <Trackpoint>
            <Time>2019-10-09T11:44:27.000Z</Time>
            <Position>
              <LatitudeDegrees>38.68266443721950054168701171875</LatitudeDegrees>
              <LongitudeDegrees>-6.39897177927196025848388671875</LongitudeDegrees>
            </Position>
            <AltitudeMeters>322.79998779296875</AltitudeMeters>
            <DistanceMeters>NAN</DistanceMeters>
          </Trackpoint>
          <Trackpoint>
            <Time>2019-10-09T11:44:30.000Z</Time>
            <Position>
              <LatitudeDegrees>38.6825488507747650146484375</LatitudeDegrees>
              <LongitudeDegrees>-6.39886214397847652435302734375</LongitudeDegrees>
            </Position>
            <AltitudeMeters>323</AltitudeMeters>
            <DistanceMeters>NAN</DistanceMeters>
          </Trackpoint>
          <Trackpoint>
            <Time>2019-10-09T11:44:33.000Z</Time>
            <Position>
              <LatitudeDegrees>38.68242789991199970245361328125</LatitudeDegrees>
              <LongitudeDegrees>-6.39876441098749637603759765625</LongitudeDegrees>
            </Position>
            <AltitudeMeters>323.600006103515625</AltitudeMeters>
            <DistanceMeters>NAN</DistanceMeters>
          </Trackpoint>
          <Trackpoint>
            <Time>2019-10-09T11:44:34.000Z</Time>
            <Position>
              <LatitudeDegrees>38.682382218539714813232421875</LatitudeDegrees>
              <LongitudeDegrees>-6.39874563552439212799072265625</LongitudeDegrees>
            </Position>
            <AltitudeMeters>323.79998779296875</AltitudeMeters>
            <DistanceMeters>NAN</DistanceMeters>
          </Trackpoint>
          <Trackpoint>
            <Time>2019-10-09T11:44:36.000Z</Time>
            <Position>
              <LatitudeDegrees>38.6822908557951450347900390625</LatitudeDegrees>
              <LongitudeDegrees>-6.39871361665427684783935546875</LongitudeDegrees>
            </Position>
            <AltitudeMeters>324</AltitudeMeters>
            <DistanceMeters>NAN</DistanceMeters>
          </Trackpoint>
          <Trackpoint>
            <Time>2019-10-09T11:44:38.000Z</Time>
            <Position>
              <LatitudeDegrees>38.6822107248008251190185546875</LatitudeDegrees>
              <LongitudeDegrees>-6.3986416161060333251953125</LongitudeDegrees>
            </Position>
            <AltitudeMeters>323.79998779296875</AltitudeMeters>
            <DistanceMeters>NAN</DistanceMeters>
          </Trackpoint>
          <Trackpoint>
            <Time>2019-10-09T11:44:39.000Z</Time>
            <Position>
              <LatitudeDegrees>38.68218515999615192413330078125</LatitudeDegrees>
              <LongitudeDegrees>-6.39858721755445003509521484375</LongitudeDegrees>
            </Position>
            <AltitudeMeters>324</AltitudeMeters>
            <DistanceMeters>NAN</DistanceMeters>
          </Trackpoint>
          <Trackpoint>
            <Time>2019-10-09T11:44:41.000Z</Time>
            <Position>
              <LatitudeDegrees>38.68214987218379974365234375</LatitudeDegrees>
              <LongitudeDegrees>-6.3984748162329196929931640625</LongitudeDegrees>
            </Position>
            <AltitudeMeters>324.399993896484375</AltitudeMeters>
            <DistanceMeters>NAN</DistanceMeters>
          </Trackpoint>
          <Trackpoint>
            <Time>2019-10-09T11:44:42.000Z</Time>
            <Position>
              <LatitudeDegrees>38.68211156688630580902099609375</LatitudeDegrees>
              <LongitudeDegrees>-6.39843575656414031982421875</LongitudeDegrees>
            </Position>
            <AltitudeMeters>325</AltitudeMeters>
            <DistanceMeters>NAN</DistanceMeters>
          </Trackpoint>
          <Trackpoint>
            <Time>2019-10-09T11:44:43.000Z</Time>
            <Position>
              <LatitudeDegrees>38.68206999264657497406005859375</LatitudeDegrees>
              <LongitudeDegrees>-6.39840348623692989349365234375</LongitudeDegrees>
            </Position>
            <AltitudeMeters>325</AltitudeMeters>
            <DistanceMeters>NAN</DistanceMeters>
          </Trackpoint>
          <Trackpoint>
            <Time>2019-10-09T11:44:46.000Z</Time>
            <Position>
              <LatitudeDegrees>38.6819565854966640472412109375</LatitudeDegrees>
              <LongitudeDegrees>-6.39830374158918857574462890625</LongitudeDegrees>
            </Position>
            <AltitudeMeters>325.20001220703125</AltitudeMeters>
            <DistanceMeters>NAN</DistanceMeters>
          </Trackpoint>
          <Trackpoint>
            <Time>2019-10-09T11:44:50.000Z</Time>
            <Position>
              <LatitudeDegrees>38.6818040348589420318603515625</LatitudeDegrees>
              <LongitudeDegrees>-6.3981740735471248626708984375</LongitudeDegrees>
            </Position>
            <AltitudeMeters>326</AltitudeMeters>
            <DistanceMeters>NAN</DistanceMeters>
          </Trackpoint>
          <Trackpoint>
            <Time>2019-10-09T11:44:51.000Z</Time>
            <Position>
              <LatitudeDegrees>38.681767322123050689697265625</LatitudeDegrees>
              <LongitudeDegrees>-6.39814230613410472869873046875</LongitudeDegrees>
            </Position>
            <AltitudeMeters>326.399993896484375</AltitudeMeters>
            <DistanceMeters>NAN</DistanceMeters>
          </Trackpoint>
          <Trackpoint>
            <Time>2019-10-09T11:44:56.000Z</Time>
            <Position>
              <LatitudeDegrees>38.6815901286900043487548828125</LatitudeDegrees>
              <LongitudeDegrees>-6.39798221178352832794189453125</LongitudeDegrees>
            </Position>
            <AltitudeMeters>327.20001220703125</AltitudeMeters>
            <DistanceMeters>NAN</DistanceMeters>
          </Trackpoint>
          <Trackpoint>
            <Time>2019-10-09T11:45:00.000Z</Time>
            <Position>
              <LatitudeDegrees>38.68145811371505260467529296875</LatitudeDegrees>
              <LongitudeDegrees>-6.39786235056817531585693359375</LongitudeDegrees>
            </Position>
            <AltitudeMeters>327.399993896484375</AltitudeMeters>
            <DistanceMeters>NAN</DistanceMeters>
          </Trackpoint>
          <Trackpoint>
            <Time>2019-10-09T11:45:03.000Z</Time>
            <Position>
              <LatitudeDegrees>38.6813611350953578948974609375</LatitudeDegrees>
              <LongitudeDegrees>-6.39777082018554210662841796875</LongitudeDegrees>
            </Position>
            <AltitudeMeters>328.20001220703125</AltitudeMeters>
            <DistanceMeters>NAN</DistanceMeters>
          </Trackpoint>
          <Trackpoint>
            <Time>2019-10-09T11:45:07.000Z</Time>
            <Position>
              <LatitudeDegrees>38.68122526444494724273681640625</LatitudeDegrees>
              <LongitudeDegrees>-6.39764727093279361724853515625</LongitudeDegrees>
            </Position>
            <AltitudeMeters>328.20001220703125</AltitudeMeters>
            <DistanceMeters>NAN</DistanceMeters>
          </Trackpoint>
          <Trackpoint>
            <Time>2019-10-09T11:45:17.000Z</Time>
            <Position>
              <LatitudeDegrees>38.68089501745998859405517578125</LatitudeDegrees>
              <LongitudeDegrees>-6.397317610681056976318359375</LongitudeDegrees>
            </Position>
            <AltitudeMeters>329</AltitudeMeters>
            <DistanceMeters>NAN</DistanceMeters>
          </Trackpoint>
          <Trackpoint>
            <Time>2019-10-09T11:45:22.000Z</Time>
            <Position>
              <LatitudeDegrees>38.68072302080690860748291015625</LatitudeDegrees>
              <LongitudeDegrees>-6.397166065871715545654296875</LongitudeDegrees>
            </Position>
            <AltitudeMeters>329.20001220703125</AltitudeMeters>
            <DistanceMeters>NAN</DistanceMeters>
          </Trackpoint>
          <Trackpoint>
            <Time>2019-10-09T11:45:23.000Z</Time>
            <Position>
              <LatitudeDegrees>38.6806932650506496429443359375</LatitudeDegrees>
              <LongitudeDegrees>-6.39712952077388763427734375</LongitudeDegrees>
            </Position>
            <AltitudeMeters>329.20001220703125</AltitudeMeters>
            <DistanceMeters>NAN</DistanceMeters>
          </Trackpoint>
          <Trackpoint>
            <Time>2019-10-09T11:45:25.000Z</Time>
            <Position>
              <LatitudeDegrees>38.68063132278621196746826171875</LatitudeDegrees>
              <LongitudeDegrees>-6.39706942252814769744873046875</LongitudeDegrees>
            </Position>
            <AltitudeMeters>329.20001220703125</AltitudeMeters>
            <DistanceMeters>NAN</DistanceMeters>
          </Trackpoint>
          <Trackpoint>
            <Time>2019-10-09T11:45:30.000Z</Time>
            <Position>
              <LatitudeDegrees>38.68044608272612094879150390625</LatitudeDegrees>
              <LongitudeDegrees>-6.396881751716136932373046875</LongitudeDegrees>
            </Position>
            <AltitudeMeters>329</AltitudeMeters>
            <DistanceMeters>NAN</DistanceMeters>
          </Trackpoint>
          <Trackpoint>
            <Time>2019-10-09T11:45:31.000Z</Time>
            <Position>
              <LatitudeDegrees>38.68040618486702442169189453125</LatitudeDegrees>
              <LongitudeDegrees>-6.396846212446689605712890625</LongitudeDegrees>
            </Position>
            <AltitudeMeters>329</AltitudeMeters>
            <DistanceMeters>NAN</DistanceMeters>
          </Trackpoint>
          <Trackpoint>
            <Time>2019-10-09T11:45:40.000Z</Time>
            <Position>
              <LatitudeDegrees>38.680056743323802947998046875</LatitudeDegrees>
              <LongitudeDegrees>-6.3965362496674060821533203125</LongitudeDegrees>
            </Position>
            <AltitudeMeters>329.399993896484375</AltitudeMeters>
            <DistanceMeters>NAN</DistanceMeters>
          </Trackpoint>
          <Trackpoint>
            <Time>2019-10-09T11:45:42.000Z</Time>
            <Position>
              <LatitudeDegrees>38.67998222820460796356201171875</LatitudeDegrees>
              <LongitudeDegrees>-6.39645486138761043548583984375</LongitudeDegrees>
            </Position>
            <AltitudeMeters>329.600006103515625</AltitudeMeters>
            <DistanceMeters>NAN</DistanceMeters>
          </Trackpoint>
          <Trackpoint>
            <Time>2019-10-09T11:45:47.000Z</Time>
            <Position>
              <LatitudeDegrees>38.67979112081229686737060546875</LatitudeDegrees>
              <LongitudeDegrees>-6.39625470153987407684326171875</LongitudeDegrees>
            </Position>
            <AltitudeMeters>330.399993896484375</AltitudeMeters>
            <DistanceMeters>NAN</DistanceMeters>
          </Trackpoint>
          <Trackpoint>
            <Time>2019-10-09T11:45:48.000Z</Time>
            <Position>
              <LatitudeDegrees>38.67975457571446895599365234375</LatitudeDegrees>
              <LongitudeDegrees>-6.39621681533753871917724609375</LongitudeDegrees>
            </Position>
            <AltitudeMeters>330.20001220703125</AltitudeMeters>
            <DistanceMeters>NAN</DistanceMeters>
          </Trackpoint>
          <Trackpoint>
            <Time>2019-10-09T11:45:56.000Z</Time>
            <Position>
              <LatitudeDegrees>38.6794406734406948089599609375</LatitudeDegrees>
              <LongitudeDegrees>-6.39591137878596782684326171875</LongitudeDegrees>
            </Position>
            <AltitudeMeters>330.600006103515625</AltitudeMeters>
            <DistanceMeters>NAN</DistanceMeters>
          </Trackpoint>
          <Trackpoint>
            <Time>2019-10-09T11:46:07.000Z</Time>
            <Position>
              <LatitudeDegrees>38.67901059798896312713623046875</LatitudeDegrees>
              <LongitudeDegrees>-6.39550544321537017822265625</LongitudeDegrees>
            </Position>
            <AltitudeMeters>330.79998779296875</AltitudeMeters>
            <DistanceMeters>NAN</DistanceMeters>
          </Trackpoint>
          <Trackpoint>
            <Time>2019-10-09T11:46:14.000Z</Time>
            <Position>
              <LatitudeDegrees>38.67873852141201496124267578125</LatitudeDegrees>
              <LongitudeDegrees>-6.395240239799022674560546875</LongitudeDegrees>
            </Position>
            <AltitudeMeters>331.600006103515625</AltitudeMeters>
            <DistanceMeters>NAN</DistanceMeters>
          </Trackpoint>
          <Trackpoint>
            <Time>2019-10-09T11:46:21.000Z</Time>
            <Position>
              <LatitudeDegrees>38.67846040986478328704833984375</LatitudeDegrees>
              <LongitudeDegrees>-6.39497260563075542449951171875</LongitudeDegrees>
            </Position>
            <AltitudeMeters>331.79998779296875</AltitudeMeters>
            <DistanceMeters>NAN</DistanceMeters>
          </Trackpoint>
          <Trackpoint>
            <Time>2019-10-09T11:46:27.000Z</Time>
            <Position>
              <LatitudeDegrees>38.67822043597698211669921875</LatitudeDegrees>
              <LongitudeDegrees>-6.39474009163677692413330078125</LongitudeDegrees>
            </Position>
            <AltitudeMeters>331.600006103515625</AltitudeMeters>
            <DistanceMeters>NAN</DistanceMeters>
          </Trackpoint>
          <Trackpoint>
            <Time>2019-10-09T11:46:31.000Z</Time>
            <Position>
              <LatitudeDegrees>38.678065203130245208740234375</LatitudeDegrees>
              <LongitudeDegrees>-6.39459072612226009368896484375</LongitudeDegrees>
            </Position>
            <AltitudeMeters>331.79998779296875</AltitudeMeters>
            <DistanceMeters>NAN</DistanceMeters>
          </Trackpoint>
          <Trackpoint>
            <Time>2019-10-09T11:46:34.000Z</Time>
            <Position>
              <LatitudeDegrees>38.67794693447649478912353515625</LatitudeDegrees>
              <LongitudeDegrees>-6.3944833539426326751708984375</LongitudeDegrees>
            </Position>
            <AltitudeMeters>332.399993896484375</AltitudeMeters>
            <DistanceMeters>NAN</DistanceMeters>
          </Trackpoint>
          <Trackpoint>
            <Time>2019-10-09T11:46:42.000Z</Time>
            <Position>
              <LatitudeDegrees>38.677633367478847503662109375</LatitudeDegrees>
              <LongitudeDegrees>-6.394191496074199676513671875</LongitudeDegrees>
            </Position>
            <AltitudeMeters>332.399993896484375</AltitudeMeters>
            <DistanceMeters>NAN</DistanceMeters>
          </Trackpoint>
          <Trackpoint>
            <Time>2019-10-09T11:46:44.000Z</Time>
            <Position>
              <LatitudeDegrees>38.6775564216077327728271484375</LatitudeDegrees>
              <LongitudeDegrees>-6.3941179029643535614013671875</LongitudeDegrees>
            </Position>
            <AltitudeMeters>332.79998779296875</AltitudeMeters>
            <DistanceMeters>NAN</DistanceMeters>
          </Trackpoint>
          <Trackpoint>
            <Time>2019-10-09T11:46:52.000Z</Time>
            <Position>
              <LatitudeDegrees>38.67724738083779811859130859375</LatitudeDegrees>
              <LongitudeDegrees>-6.3938299007713794708251953125</LongitudeDegrees>
            </Position>
            <AltitudeMeters>333</AltitudeMeters>
            <DistanceMeters>NAN</DistanceMeters>
          </Trackpoint>
          <Trackpoint>
            <Time>2019-10-09T11:47:01.000Z</Time>
            <Position>
              <LatitudeDegrees>38.6769056506454944610595703125</LatitudeDegrees>
              <LongitudeDegrees>-6.39349353499710559844970703125</LongitudeDegrees>
            </Position>
            <AltitudeMeters>333.79998779296875</AltitudeMeters>
            <DistanceMeters>NAN</DistanceMeters>
          </Trackpoint>
          <Trackpoint>
            <Time>2019-10-09T11:47:10.000Z</Time>
            <Position>
              <LatitudeDegrees>38.6765747331082820892333984375</LatitudeDegrees>
              <LongitudeDegrees>-6.3931737653911113739013671875</LongitudeDegrees>
            </Position>
            <AltitudeMeters>334.399993896484375</AltitudeMeters>
            <DistanceMeters>NAN</DistanceMeters>
          </Trackpoint>
          <Trackpoint>
            <Time>2019-10-09T11:47:11.000Z</Time>
            <Position>
              <LatitudeDegrees>38.676537014544010162353515625</LatitudeDegrees>
              <LongitudeDegrees>-6.3931459374725818634033203125</LongitudeDegrees>
            </Position>
            <AltitudeMeters>334.79998779296875</AltitudeMeters>
            <DistanceMeters>NAN</DistanceMeters>
          </Trackpoint>
          <Trackpoint>
            <Time>2019-10-09T11:47:12.000Z</Time>
            <Position>
              <LatitudeDegrees>38.67650575004518032073974609375</LatitudeDegrees>
              <LongitudeDegrees>-6.39311836101114749908447265625</LongitudeDegrees>
            </Position>
            <AltitudeMeters>335</AltitudeMeters>
            <DistanceMeters>NAN</DistanceMeters>
          </Trackpoint>
          <Trackpoint>
            <Time>2019-10-09T11:47:13.000Z</Time>
            <Position>
              <LatitudeDegrees>38.6764761619269847869873046875</LatitudeDegrees>
              <LongitudeDegrees>-6.39308433048427104949951171875</LongitudeDegrees>
            </Position>
            <AltitudeMeters>335.20001220703125</AltitudeMeters>
            <DistanceMeters>NAN</DistanceMeters>
          </Trackpoint>
          <Trackpoint>
            <Time>2019-10-09T11:47:15.000Z</Time>
            <Position>
              <LatitudeDegrees>38.67640567012131214141845703125</LatitudeDegrees>
              <LongitudeDegrees>-6.393019370734691619873046875</LongitudeDegrees>
            </Position>
            <AltitudeMeters>335.399993896484375</AltitudeMeters>
            <DistanceMeters>NAN</DistanceMeters>
          </Trackpoint>
          <Trackpoint>
            <Time>2019-10-09T11:47:22.000Z</Time>
            <Position>
              <LatitudeDegrees>38.67617265321314334869384765625</LatitudeDegrees>
              <LongitudeDegrees>-6.39280001632869243621826171875</LongitudeDegrees>
            </Position>
            <AltitudeMeters>336.20001220703125</AltitudeMeters>
            <DistanceMeters>NAN</DistanceMeters>
          </Trackpoint>
          <Trackpoint>
            <Time>2019-10-09T11:47:23.000Z</Time>
            <Position>
              <LatitudeDegrees>38.67613811977207660675048828125</LatitudeDegrees>
              <LongitudeDegrees>-6.39277218841016292572021484375</LongitudeDegrees>
            </Position>
            <AltitudeMeters>336.399993896484375</AltitudeMeters>
            <DistanceMeters>NAN</DistanceMeters>
          </Trackpoint>
          <Trackpoint>
            <Time>2019-10-09T11:47:25.000Z</Time>
            <Position>
              <LatitudeDegrees>38.6760677956044673919677734375</LatitudeDegrees>
              <LongitudeDegrees>-6.39271066524088382720947265625</LongitudeDegrees>
            </Position>
            <AltitudeMeters>336.600006103515625</AltitudeMeters>
            <DistanceMeters>NAN</DistanceMeters>
          </Trackpoint>
          <Trackpoint>
            <Time>2019-10-09T11:47:28.000Z</Time>
            <Position>
              <LatitudeDegrees>38.6759393848478794097900390625</LatitudeDegrees>
              <LongitudeDegrees>-6.3926817476749420166015625</LongitudeDegrees>
            </Position>
            <AltitudeMeters>336.399993896484375</AltitudeMeters>
            <DistanceMeters>NAN</DistanceMeters>
          </Trackpoint>
          <Trackpoint>
            <Time>2019-10-09T11:47:33.000Z</Time>
            <Position>
              <LatitudeDegrees>38.67571718059480190277099609375</LatitudeDegrees>
              <LongitudeDegrees>-6.39261544682085514068603515625</LongitudeDegrees>
            </Position>
            <AltitudeMeters>337.20001220703125</AltitudeMeters>
            <DistanceMeters>NAN</DistanceMeters>
          </Trackpoint>
          <Trackpoint>
            <Time>2019-10-09T11:47:34.000Z</Time>
            <Position>
              <LatitudeDegrees>38.675686419010162353515625</LatitudeDegrees>
              <LongitudeDegrees>-6.39257336966693401336669921875</LongitudeDegrees>
            </Position>
            <AltitudeMeters>337.399993896484375</AltitudeMeters>
            <DistanceMeters>NAN</DistanceMeters>
          </Trackpoint>
          <Trackpoint>
            <Time>2019-10-09T11:47:37.000Z</Time>
            <Position>
              <LatitudeDegrees>38.67562280036509037017822265625</LatitudeDegrees>
              <LongitudeDegrees>-6.39241411350667476654052734375</LongitudeDegrees>
            </Position>
            <AltitudeMeters>337.79998779296875</AltitudeMeters>
            <DistanceMeters>NAN</DistanceMeters>
          </Trackpoint>
          <Trackpoint>
            <Time>2019-10-09T11:47:42.000Z</Time>
            <Position>
              <LatitudeDegrees>38.67548701353371143341064453125</LatitudeDegrees>
              <LongitudeDegrees>-6.39216667972505092620849609375</LongitudeDegrees>
            </Position>
            <AltitudeMeters>338.20001220703125</AltitudeMeters>
            <DistanceMeters>NAN</DistanceMeters>
          </Trackpoint>
          <Trackpoint>
            <Time>2019-10-09T11:47:44.000Z</Time>
            <Position>
              <LatitudeDegrees>38.67541224695742130279541015625</LatitudeDegrees>
              <LongitudeDegrees>-6.39209459535777568817138671875</LongitudeDegrees>
            </Position>
            <AltitudeMeters>338.399993896484375</AltitudeMeters>
            <DistanceMeters>NAN</DistanceMeters>
          </Trackpoint>
          <Trackpoint>
            <Time>2019-10-09T11:47:50.000Z</Time>
            <Position>
              <LatitudeDegrees>38.67518476210534572601318359375</LatitudeDegrees>
              <LongitudeDegrees>-6.3918772526085376739501953125</LongitudeDegrees>
            </Position>
            <AltitudeMeters>339</AltitudeMeters>
            <DistanceMeters>NAN</DistanceMeters>
          </Trackpoint>
          <Trackpoint>
            <Time>2019-10-09T11:47:57.000Z</Time>
            <Position>
              <LatitudeDegrees>38.67491670884191989898681640625</LatitudeDegrees>
              <LongitudeDegrees>-6.3916278071701526641845703125</LongitudeDegrees>
            </Position>
            <AltitudeMeters>339.600006103515625</AltitudeMeters>
            <DistanceMeters>NAN</DistanceMeters>
          </Trackpoint>
          <Trackpoint>
            <Time>2019-10-09T11:48:00.000Z</Time>
            <Position>
              <LatitudeDegrees>38.67480355314910411834716796875</LatitudeDegrees>
              <LongitudeDegrees>-6.39151741750538349151611328125</LongitudeDegrees>
            </Position>
            <AltitudeMeters>339.79998779296875</AltitudeMeters>
            <DistanceMeters>NAN</DistanceMeters>
          </Trackpoint>
          <Trackpoint>
            <Time>2019-10-09T11:48:09.000Z</Time>
            <Position>
              <LatitudeDegrees>38.67445637471973896026611328125</LatitudeDegrees>
              <LongitudeDegrees>-6.391188092529773712158203125</LongitudeDegrees>
            </Position>
            <AltitudeMeters>340.600006103515625</AltitudeMeters>
            <DistanceMeters>NAN</DistanceMeters>
          </Trackpoint>
          <Trackpoint>
            <Time>2019-10-09T11:48:10.000Z</Time>
            <Position>
              <LatitudeDegrees>38.67441630922257900238037109375</LatitudeDegrees>
              <LongitudeDegrees>-6.39115163125097751617431640625</LongitudeDegrees>
            </Position>
            <AltitudeMeters>340.600006103515625</AltitudeMeters>
            <DistanceMeters>NAN</DistanceMeters>
          </Trackpoint>
          <Trackpoint>
            <Time>2019-10-09T11:48:17.000Z</Time>
            <Position>
              <LatitudeDegrees>38.67413836531341075897216796875</LatitudeDegrees>
              <LongitudeDegrees>-6.39089531265199184417724609375</LongitudeDegrees>
            </Position>
            <AltitudeMeters>341</AltitudeMeters>
            <DistanceMeters>NAN</DistanceMeters>
          </Trackpoint>
          <Trackpoint>
            <Time>2019-10-09T11:48:27.000Z</Time>
            <Position>
              <LatitudeDegrees>38.67374257184565067291259765625</LatitudeDegrees>
              <LongitudeDegrees>-6.39053170569241046905517578125</LongitudeDegrees>
            </Position>
            <AltitudeMeters>341.399993896484375</AltitudeMeters>
            <DistanceMeters>NAN</DistanceMeters>
          </Trackpoint>
          <Trackpoint>
            <Time>2019-10-09T11:48:33.000Z</Time>
            <Position>
              <LatitudeDegrees>38.67351307533681392669677734375</LatitudeDegrees>
              <LongitudeDegrees>-6.390312016010284423828125</LongitudeDegrees>
            </Position>
            <AltitudeMeters>341.79998779296875</AltitudeMeters>
            <DistanceMeters>NAN</DistanceMeters>
          </Trackpoint>
          <Trackpoint>
            <Time>2019-10-09T11:48:36.000Z</Time>
            <Position>
              <LatitudeDegrees>38.67339338175952434539794921875</LatitudeDegrees>
              <LongitudeDegrees>-6.39019676484167575836181640625</LongitudeDegrees>
            </Position>
            <AltitudeMeters>341.79998779296875</AltitudeMeters>
            <DistanceMeters>NAN</DistanceMeters>
          </Trackpoint>
          <Trackpoint>
            <Time>2019-10-09T11:48:43.000Z</Time>
            <Position>
              <LatitudeDegrees>38.673117868602275848388671875</LatitudeDegrees>
              <LongitudeDegrees>-6.389926783740520477294921875</LongitudeDegrees>
            </Position>
            <AltitudeMeters>342.20001220703125</AltitudeMeters>
            <DistanceMeters>NAN</DistanceMeters>
          </Trackpoint>
          <Trackpoint>
            <Time>2019-10-09T11:48:48.000Z</Time>
            <Position>
              <LatitudeDegrees>38.672925420105457305908203125</LatitudeDegrees>
              <LongitudeDegrees>-6.38974900357425212860107421875</LongitudeDegrees>
            </Position>
            <AltitudeMeters>342.79998779296875</AltitudeMeters>
            <DistanceMeters>NAN</DistanceMeters>
          </Trackpoint>
          <Trackpoint>
            <Time>2019-10-09T11:48:54.000Z</Time>
            <Position>
              <LatitudeDegrees>38.6726989410817623138427734375</LatitudeDegrees>
              <LongitudeDegrees>-6.38952822424471378326416015625</LongitudeDegrees>
            </Position>
            <AltitudeMeters>343</AltitudeMeters>
            <DistanceMeters>NAN</DistanceMeters>
          </Trackpoint>
          <Trackpoint>
            <Time>2019-10-09T11:49:03.000Z</Time>
            <Position>
              <LatitudeDegrees>38.6723537743091583251953125</LatitudeDegrees>
              <LongitudeDegrees>-6.3892064429819583892822265625</LongitudeDegrees>
            </Position>
            <AltitudeMeters>343.600006103515625</AltitudeMeters>
            <DistanceMeters>NAN</DistanceMeters>
          </Trackpoint>
          <Trackpoint>
            <Time>2019-10-09T11:49:04.000Z</Time>
            <Position>
              <LatitudeDegrees>38.67231714539229869842529296875</LatitudeDegrees>
              <LongitudeDegrees>-6.38916964642703533172607421875</LongitudeDegrees>
            </Position>
            <AltitudeMeters>343.79998779296875</AltitudeMeters>
            <DistanceMeters>NAN</DistanceMeters>
          </Trackpoint>
          <Trackpoint>
            <Time>2019-10-09T11:49:11.000Z</Time>
            <Position>
              <LatitudeDegrees>38.6720414645969867706298828125</LatitudeDegrees>
              <LongitudeDegrees>-6.38890125788748264312744140625</LongitudeDegrees>
            </Position>
            <AltitudeMeters>344.600006103515625</AltitudeMeters>
            <DistanceMeters>NAN</DistanceMeters>
          </Trackpoint>
          <Trackpoint>
            <Time>2019-10-09T11:49:18.000Z</Time>
            <Position>
              <LatitudeDegrees>38.67173845879733562469482421875</LatitudeDegrees>
              <LongitudeDegrees>-6.38861945830285549163818359375</LongitudeDegrees>
            </Position>
            <AltitudeMeters>344.600006103515625</AltitudeMeters>
            <DistanceMeters>NAN</DistanceMeters>
          </Trackpoint>
          <Trackpoint>
            <Time>2019-10-09T11:49:23.000Z</Time>
            <Position>
              <LatitudeDegrees>38.67153092287480831146240234375</LatitudeDegrees>
              <LongitudeDegrees>-6.3884242437779903411865234375</LongitudeDegrees>
            </Position>
            <AltitudeMeters>345</AltitudeMeters>
            <DistanceMeters>NAN</DistanceMeters>
          </Trackpoint>
          <Trackpoint>
            <Time>2019-10-09T11:49:26.000Z</Time>
            <Position>
              <LatitudeDegrees>38.671403937041759490966796875</LatitudeDegrees>
              <LongitudeDegrees>-6.38830580748617649078369140625</LongitudeDegrees>
            </Position>
            <AltitudeMeters>345.399993896484375</AltitudeMeters>
            <DistanceMeters>NAN</DistanceMeters>
          </Trackpoint>
          <Trackpoint>
            <Time>2019-10-09T11:49:36.000Z</Time>
            <Position>
              <LatitudeDegrees>38.67095424793660640716552734375</LatitudeDegrees>
              <LongitudeDegrees>-6.38792107813060283660888671875</LongitudeDegrees>
            </Position>
            <AltitudeMeters>345.79998779296875</AltitudeMeters>
            <DistanceMeters>NAN</DistanceMeters>
          </Trackpoint>
          <Trackpoint>
            <Time>2019-10-09T11:49:38.000Z</Time>
            <Position>
              <LatitudeDegrees>38.6708458699285984039306640625</LatitudeDegrees>
              <LongitudeDegrees>-6.38791923411190509796142578125</LongitudeDegrees>
            </Position>
            <AltitudeMeters>346</AltitudeMeters>
            <DistanceMeters>NAN</DistanceMeters>
          </Trackpoint>
          <Trackpoint>
            <Time>2019-10-09T11:49:39.000Z</Time>
            <Position>
              <LatitudeDegrees>38.6707925610244274139404296875</LatitudeDegrees>
              <LongitudeDegrees>-6.38791319914162158966064453125</LongitudeDegrees>
            </Position>
            <AltitudeMeters>345.600006103515625</AltitudeMeters>
            <DistanceMeters>NAN</DistanceMeters>
          </Trackpoint>
          <Trackpoint>
            <Time>2019-10-09T11:49:42.000Z</Time>
            <Position>
              <LatitudeDegrees>38.6706628091633319854736328125</LatitudeDegrees>
              <LongitudeDegrees>-6.38778931461274623870849609375</LongitudeDegrees>
            </Position>
            <AltitudeMeters>345.600006103515625</AltitudeMeters>
            <DistanceMeters>NAN</DistanceMeters>
          </Trackpoint>
          <Trackpoint>
            <Time>2019-10-09T11:49:45.000Z</Time>
            <Position>
              <LatitudeDegrees>38.670607320964336395263671875</LatitudeDegrees>
              <LongitudeDegrees>-6.38757951557636260986328125</LongitudeDegrees>
            </Position>
            <AltitudeMeters>346</AltitudeMeters>
            <DistanceMeters>NAN</DistanceMeters>
          </Trackpoint>
          <Trackpoint>
            <Time>2019-10-09T11:49:47.000Z</Time>
            <Position>
              <LatitudeDegrees>38.67054906673729419708251953125</LatitudeDegrees>
              <LongitudeDegrees>-6.387453116476535797119140625</LongitudeDegrees>
            </Position>
            <AltitudeMeters>346</AltitudeMeters>
            <DistanceMeters>NAN</DistanceMeters>
          </Trackpoint>
          <Trackpoint>
            <Time>2019-10-09T11:49:49.000Z</Time>
            <Position>
              <LatitudeDegrees>38.6704542674124240875244140625</LatitudeDegrees>
              <LongitudeDegrees>-6.3873656094074249267578125</LongitudeDegrees>
            </Position>
            <AltitudeMeters>346.20001220703125</AltitudeMeters>
            <DistanceMeters>NAN</DistanceMeters>
          </Trackpoint>
          <Trackpoint>
            <Time>2019-10-09T11:49:51.000Z</Time>
            <Position>
              <LatitudeDegrees>38.67036290466785430908203125</LatitudeDegrees>
              <LongitudeDegrees>-6.3872742466628551483154296875</LongitudeDegrees>
            </Position>
            <AltitudeMeters>346</AltitudeMeters>
            <DistanceMeters>NAN</DistanceMeters>
          </Trackpoint>
          <Trackpoint>
            <Time>2019-10-09T11:49:56.000Z</Time>
            <Position>
              <LatitudeDegrees>38.6701347492635250091552734375</LatitudeDegrees>
              <LongitudeDegrees>-6.38705355115234851837158203125</LongitudeDegrees>
            </Position>
            <AltitudeMeters>346</AltitudeMeters>
            <DistanceMeters>NAN</DistanceMeters>
          </Trackpoint>
          <Trackpoint>
            <Time>2019-10-09T11:50:05.000Z</Time>
            <Position>
              <LatitudeDegrees>38.669714815914630889892578125</LatitudeDegrees>
              <LongitudeDegrees>-6.386645771563053131103515625</LongitudeDegrees>
            </Position>
            <AltitudeMeters>345.600006103515625</AltitudeMeters>
            <DistanceMeters>NAN</DistanceMeters>
          </Trackpoint>
          <Trackpoint>
            <Time>2019-10-09T11:50:09.000Z</Time>
            <Position>
              <LatitudeDegrees>38.6695299111306667327880859375</LatitudeDegrees>
              <LongitudeDegrees>-6.38646547682583332061767578125</LongitudeDegrees>
            </Position>
            <AltitudeMeters>346</AltitudeMeters>
            <DistanceMeters>NAN</DistanceMeters>
          </Trackpoint>
          <Trackpoint>
            <Time>2019-10-09T11:50:11.000Z</Time>
            <Position>
              <LatitudeDegrees>38.6694377101957798004150390625</LatitudeDegrees>
              <LongitudeDegrees>-6.38637294061481952667236328125</LongitudeDegrees>
            </Position>
            <AltitudeMeters>345.79998779296875</AltitudeMeters>
            <DistanceMeters>NAN</DistanceMeters>
          </Trackpoint>
          <Trackpoint>
            <Time>2019-10-09T11:50:20.000Z</Time>
            <Position>
              <LatitudeDegrees>38.66901501081883907318115234375</LatitudeDegrees>
              <LongitudeDegrees>-6.38594680465757846832275390625</LongitudeDegrees>
            </Position>
            <AltitudeMeters>345.20001220703125</AltitudeMeters>
            <DistanceMeters>NAN</DistanceMeters>
          </Trackpoint>
          <Trackpoint>
            <Time>2019-10-09T11:50:22.000Z</Time>
            <Position>
              <LatitudeDegrees>38.66892448626458644866943359375</LatitudeDegrees>
              <LongitudeDegrees>-6.38585426844656467437744140625</LongitudeDegrees>
            </Position>
            <AltitudeMeters>346</AltitudeMeters>
            <DistanceMeters>NAN</DistanceMeters>
          </Trackpoint>
          <Trackpoint>
            <Time>2019-10-09T11:50:24.000Z</Time>
            <Position>
              <LatitudeDegrees>38.66883178241550922393798828125</LatitudeDegrees>
              <LongitudeDegrees>-6.38576743192970752716064453125</LongitudeDegrees>
            </Position>
            <AltitudeMeters>346.20001220703125</AltitudeMeters>
            <DistanceMeters>NAN</DistanceMeters>
          </Trackpoint>
          <Trackpoint>
            <Time>2019-10-09T11:50:29.000Z</Time>
            <Position>
              <LatitudeDegrees>38.66860899142920970916748046875</LatitudeDegrees>
              <LongitudeDegrees>-6.38554581440985202789306640625</LongitudeDegrees>
            </Position>
            <AltitudeMeters>346.20001220703125</AltitudeMeters>
            <DistanceMeters>NAN</DistanceMeters>
          </Trackpoint>
          <Trackpoint>
            <Time>2019-10-09T11:50:37.000Z</Time>
            <Position>
              <LatitudeDegrees>38.6682635731995105743408203125</LatitudeDegrees>
              <LongitudeDegrees>-6.38520282693207263946533203125</LongitudeDegrees>
            </Position>
            <AltitudeMeters>347.20001220703125</AltitudeMeters>
            <DistanceMeters>NAN</DistanceMeters>
          </Trackpoint>
          <Trackpoint>
            <Time>2019-10-09T11:50:40.000Z</Time>
            <Position>
              <LatitudeDegrees>38.66814094595611095428466796875</LatitudeDegrees>
              <LongitudeDegrees>-6.38508028350770473480224609375</LongitudeDegrees>
            </Position>
            <AltitudeMeters>347.20001220703125</AltitudeMeters>
            <DistanceMeters>NAN</DistanceMeters>
          </Trackpoint>
          <Trackpoint>
            <Time>2019-10-09T11:50:46.000Z</Time>
            <Position>
              <LatitudeDegrees>38.66791530512273311614990234375</LatitudeDegrees>
              <LongitudeDegrees>-6.38485531322658061981201171875</LongitudeDegrees>
            </Position>
            <AltitudeMeters>348.20001220703125</AltitudeMeters>
            <DistanceMeters>NAN</DistanceMeters>
          </Trackpoint>
          <Trackpoint>
            <Time>2019-10-09T11:50:47.000Z</Time>
            <Position>
              <LatitudeDegrees>38.66788010112941265106201171875</LatitudeDegrees>
              <LongitudeDegrees>-6.38481952250003814697265625</LongitudeDegrees>
            </Position>
            <AltitudeMeters>348.20001220703125</AltitudeMeters>
            <DistanceMeters>NAN</DistanceMeters>
          </Trackpoint>
          <Trackpoint>
            <Time>2019-10-09T11:50:54.000Z</Time>
            <Position>
              <LatitudeDegrees>38.6676470004022121429443359375</LatitudeDegrees>
              <LongitudeDegrees>-6.3845816440880298614501953125</LongitudeDegrees>
            </Position>
            <AltitudeMeters>349.600006103515625</AltitudeMeters>
            <DistanceMeters>NAN</DistanceMeters>
          </Trackpoint>
          <Trackpoint>
            <Time>2019-10-09T11:50:55.000Z</Time>
            <Position>
              <LatitudeDegrees>38.66761188022792339324951171875</LatitudeDegrees>
              <LongitudeDegrees>-6.38455105014145374298095703125</LongitudeDegrees>
            </Position>
            <AltitudeMeters>349.79998779296875</AltitudeMeters>
            <DistanceMeters>NAN</DistanceMeters>
          </Trackpoint>
          <Trackpoint>
            <Time>2019-10-09T11:51:01.000Z</Time>
            <Position>
              <LatitudeDegrees>38.6674079485237598419189453125</LatitudeDegrees>
              <LongitudeDegrees>-6.3843513093888759613037109375</LongitudeDegrees>
            </Position>
            <AltitudeMeters>350.399993896484375</AltitudeMeters>
            <DistanceMeters>NAN</DistanceMeters>
          </Trackpoint>
          <Trackpoint>
            <Time>2019-10-09T11:51:02.000Z</Time>
            <Position>
              <LatitudeDegrees>38.66737634874880313873291015625</LatitudeDegrees>
              <LongitudeDegrees>-6.38431929051876068115234375</LongitudeDegrees>
            </Position>
            <AltitudeMeters>350.600006103515625</AltitudeMeters>
            <DistanceMeters>NAN</DistanceMeters>
          </Trackpoint>
          <Trackpoint>
            <Time>2019-10-09T11:51:06.000Z</Time>
            <Position>
              <LatitudeDegrees>38.66725816391408443450927734375</LatitudeDegrees>
              <LongitudeDegrees>-6.38418459333479404449462890625</LongitudeDegrees>
            </Position>
            <AltitudeMeters>351.399993896484375</AltitudeMeters>
            <DistanceMeters>NAN</DistanceMeters>
          </Trackpoint>
          <Trackpoint>
            <Time>2019-10-09T11:51:07.000Z</Time>
            <Position>
              <LatitudeDegrees>38.66722614504396915435791015625</LatitudeDegrees>
              <LongitudeDegrees>-6.384156681597232818603515625</LongitudeDegrees>
            </Position>
            <AltitudeMeters>351.399993896484375</AltitudeMeters>
            <DistanceMeters>NAN</DistanceMeters>
          </Trackpoint>
          <Trackpoint>
            <Time>2019-10-09T11:51:08.000Z</Time>
            <Position>
              <LatitudeDegrees>38.66719563491642475128173828125</LatitudeDegrees>
              <LongitudeDegrees>-6.38412910513579845428466796875</LongitudeDegrees>
            </Position>
            <AltitudeMeters>351.79998779296875</AltitudeMeters>
            <DistanceMeters>NAN</DistanceMeters>
          </Trackpoint>
          <Trackpoint>
            <Time>2019-10-09T11:51:09.000Z</Time>
            <Position>
              <LatitudeDegrees>38.6671608500182628631591796875</LatitudeDegrees>
              <LongitudeDegrees>-6.38409842737019062042236328125</LongitudeDegrees>
            </Position>
            <AltitudeMeters>351.79998779296875</AltitudeMeters>
            <DistanceMeters>NAN</DistanceMeters>
          </Trackpoint>
          <Trackpoint>
            <Time>2019-10-09T11:51:15.000Z</Time>
            <Position>
              <LatitudeDegrees>38.666977621614933013916015625</LatitudeDegrees>
              <LongitudeDegrees>-6.383913941681385040283203125</LongitudeDegrees>
            </Position>
            <AltitudeMeters>353</AltitudeMeters>
            <DistanceMeters>NAN</DistanceMeters>
          </Trackpoint>
          <Trackpoint>
            <Time>2019-10-09T11:51:16.000Z</Time>
            <Position>
              <LatitudeDegrees>38.66694753058254718780517578125</LatitudeDegrees>
              <LongitudeDegrees>-6.3838827610015869140625</LongitudeDegrees>
            </Position>
            <AltitudeMeters>353.20001220703125</AltitudeMeters>
            <DistanceMeters>NAN</DistanceMeters>
          </Trackpoint>
          <Trackpoint>
            <Time>2019-10-09T11:51:20.000Z</Time>
            <Position>
              <LatitudeDegrees>38.66682951338589191436767578125</LatitudeDegrees>
              <LongitudeDegrees>-6.38376264832913875579833984375</LongitudeDegrees>
            </Position>
            <AltitudeMeters>354</AltitudeMeters>
            <DistanceMeters>NAN</DistanceMeters>
          </Trackpoint>
          <Trackpoint>
            <Time>2019-10-09T11:51:24.000Z</Time>
            <Position>
              <LatitudeDegrees>38.66671417839825153350830078125</LatitudeDegrees>
              <LongitudeDegrees>-6.3836539350450038909912109375</LongitudeDegrees>
            </Position>
            <AltitudeMeters>355</AltitudeMeters>
            <DistanceMeters>NAN</DistanceMeters>
          </Trackpoint>
          <Trackpoint>
            <Time>2019-10-09T11:51:25.000Z</Time>
            <Position>
              <LatitudeDegrees>38.666684590280055999755859375</LatitudeDegrees>
              <LongitudeDegrees>-6.38362350873649120330810546875</LongitudeDegrees>
            </Position>
            <AltitudeMeters>355.20001220703125</AltitudeMeters>
            <DistanceMeters>NAN</DistanceMeters>
          </Trackpoint>
          <Trackpoint>
            <Time>2019-10-09T11:51:31.000Z</Time>
            <Position>
              <LatitudeDegrees>38.66651167161762714385986328125</LatitudeDegrees>
              <LongitudeDegrees>-6.38344061560928821563720703125</LongitudeDegrees>
            </Position>
            <AltitudeMeters>356.399993896484375</AltitudeMeters>
            <DistanceMeters>NAN</DistanceMeters>
          </Trackpoint>
          <Trackpoint>
            <Time>2019-10-09T11:51:32.000Z</Time>
            <Position>
              <LatitudeDegrees>38.66648032329976558685302734375</LatitudeDegrees>
              <LongitudeDegrees>-6.38341094367206096649169921875</LongitudeDegrees>
            </Position>
            <AltitudeMeters>356.600006103515625</AltitudeMeters>
            <DistanceMeters>NAN</DistanceMeters>
          </Trackpoint>
          <Trackpoint>
            <Time>2019-10-09T11:51:40.000Z</Time>
            <Position>
              <LatitudeDegrees>38.666227944195270538330078125</LatitudeDegrees>
              <LongitudeDegrees>-6.38314926065504550933837890625</LongitudeDegrees>
            </Position>
            <AltitudeMeters>357.79998779296875</AltitudeMeters>
            <DistanceMeters>NAN</DistanceMeters>
          </Trackpoint>
          <Trackpoint>
            <Time>2019-10-09T11:51:50.000Z</Time>
            <Position>
              <LatitudeDegrees>38.6658767424523830413818359375</LatitudeDegrees>
              <LongitudeDegrees>-6.38279034756124019622802734375</LongitudeDegrees>
            </Position>
            <AltitudeMeters>358.20001220703125</AltitudeMeters>
            <DistanceMeters>NAN</DistanceMeters>
          </Trackpoint>
          <Trackpoint>
            <Time>2019-10-09T11:51:52.000Z</Time>
            <Position>
              <LatitudeDegrees>38.665802478790283203125</LatitudeDegrees>
              <LongitudeDegrees>-6.3827141560614109039306640625</LongitudeDegrees>
            </Position>
            <AltitudeMeters>358.399993896484375</AltitudeMeters>
            <DistanceMeters>NAN</DistanceMeters>
          </Trackpoint>
          <Trackpoint>
            <Time>2019-10-09T11:51:56.000Z</Time>
            <Position>
              <LatitudeDegrees>38.6656521074473857879638671875</LatitudeDegrees>
              <LongitudeDegrees>-6.3825629465281963348388671875</LongitudeDegrees>
            </Position>
            <AltitudeMeters>358.20001220703125</AltitudeMeters>
            <DistanceMeters>NAN</DistanceMeters>
          </Trackpoint>
          <Trackpoint>
            <Time>2019-10-09T11:52:03.000Z</Time>
            <Position>
              <LatitudeDegrees>38.66537801921367645263671875</LatitudeDegrees>
              <LongitudeDegrees>-6.38228290714323520660400390625</LongitudeDegrees>
            </Position>
            <AltitudeMeters>358.20001220703125</AltitudeMeters>
            <DistanceMeters>NAN</DistanceMeters>
          </Trackpoint>
          <Trackpoint>
            <Time>2019-10-09T11:52:06.000Z</Time>
            <Position>
              <LatitudeDegrees>38.6652512848377227783203125</LatitudeDegrees>
              <LongitudeDegrees>-6.38216036371886730194091796875</LongitudeDegrees>
            </Position>
            <AltitudeMeters>358.20001220703125</AltitudeMeters>
            <DistanceMeters>NAN</DistanceMeters>
          </Trackpoint>
          <Trackpoint>
            <Time>2019-10-09T11:52:10.000Z</Time>
            <Position>
              <LatitudeDegrees>38.665078617632389068603515625</LatitudeDegrees>
              <LongitudeDegrees>-6.3819799013435840606689453125</LongitudeDegrees>
            </Position>
            <AltitudeMeters>358</AltitudeMeters>
            <DistanceMeters>NAN</DistanceMeters>
          </Trackpoint>
          <Trackpoint>
            <Time>2019-10-09T11:52:15.000Z</Time>
            <Position>
              <LatitudeDegrees>38.66485490463674068450927734375</LatitudeDegrees>
              <LongitudeDegrees>-6.38175350613892078399658203125</LongitudeDegrees>
            </Position>
            <AltitudeMeters>357.600006103515625</AltitudeMeters>
            <DistanceMeters>NAN</DistanceMeters>
          </Trackpoint>
          <Trackpoint>
            <Time>2019-10-09T11:52:19.000Z</Time>
            <Position>
              <LatitudeDegrees>38.66467662155628204345703125</LatitudeDegrees>
              <LongitudeDegrees>-6.38157983310520648956298828125</LongitudeDegrees>
            </Position>
            <AltitudeMeters>357.79998779296875</AltitudeMeters>
            <DistanceMeters>NAN</DistanceMeters>
          </Trackpoint>
          <Trackpoint>
            <Time>2019-10-09T11:52:27.000Z</Time>
            <Position>
              <LatitudeDegrees>38.66431896574795246124267578125</LatitudeDegrees>
              <LongitudeDegrees>-6.38126936741173267364501953125</LongitudeDegrees>
            </Position>
            <AltitudeMeters>359</AltitudeMeters>
            <DistanceMeters>NAN</DistanceMeters>
          </Trackpoint>
          <Trackpoint>
            <Time>2019-10-09T11:52:30.000Z</Time>
            <Position>
              <LatitudeDegrees>38.664165996015071868896484375</LatitudeDegrees>
              <LongitudeDegrees>-6.38121136464178562164306640625</LongitudeDegrees>
            </Position>
            <AltitudeMeters>359.20001220703125</AltitudeMeters>
            <DistanceMeters>NAN</DistanceMeters>
          </Trackpoint>
          <Trackpoint>
            <Time>2019-10-09T11:52:32.000Z</Time>
            <Position>
              <LatitudeDegrees>38.66405443288385868072509765625</LatitudeDegrees>
              <LongitudeDegrees>-6.38121823780238628387451171875</LongitudeDegrees>
            </Position>
            <AltitudeMeters>359.399993896484375</AltitudeMeters>
            <DistanceMeters>NAN</DistanceMeters>
          </Trackpoint>
          <Trackpoint>
            <Time>2019-10-09T11:52:34.000Z</Time>
            <Position>
              <LatitudeDegrees>38.66393993608653545379638671875</LatitudeDegrees>
              <LongitudeDegrees>-6.3812295533716678619384765625</LongitudeDegrees>
            </Position>
            <AltitudeMeters>360</AltitudeMeters>
            <DistanceMeters>NAN</DistanceMeters>
          </Trackpoint>
          <Trackpoint>
            <Time>2019-10-09T11:52:36.000Z</Time>
            <Position>
              <LatitudeDegrees>38.6638335697352886199951171875</LatitudeDegrees>
              <LongitudeDegrees>-6.381188817322254180908203125</LongitudeDegrees>
            </Position>
            <AltitudeMeters>360.20001220703125</AltitudeMeters>
            <DistanceMeters>NAN</DistanceMeters>
          </Trackpoint>
          <Trackpoint>
            <Time>2019-10-09T11:52:40.000Z</Time>
            <Position>
              <LatitudeDegrees>38.6636669375002384185791015625</LatitudeDegrees>
              <LongitudeDegrees>-6.3809864781796932220458984375</LongitudeDegrees>
            </Position>
            <AltitudeMeters>360.399993896484375</AltitudeMeters>
            <DistanceMeters>NAN</DistanceMeters>
          </Trackpoint>
          <Trackpoint>
            <Time>2019-10-09T11:52:44.000Z</Time>
            <Position>
              <LatitudeDegrees>38.6636075936257839202880859375</LatitudeDegrees>
              <LongitudeDegrees>-6.3806843943893909454345703125</LongitudeDegrees>
            </Position>
            <AltitudeMeters>359.79998779296875</AltitudeMeters>
            <DistanceMeters>NAN</DistanceMeters>
          </Trackpoint>
          <Trackpoint>
            <Time>2019-10-09T11:52:45.000Z</Time>
            <Position>
              <LatitudeDegrees>38.663589321076869964599609375</LatitudeDegrees>
              <LongitudeDegrees>-6.380607783794403076171875</LongitudeDegrees>
            </Position>
            <AltitudeMeters>359.79998779296875</AltitudeMeters>
            <DistanceMeters>NAN</DistanceMeters>
          </Trackpoint>
          <Trackpoint>
            <Time>2019-10-09T11:52:48.000Z</Time>
            <Position>
              <LatitudeDegrees>38.663492091000080108642578125</LatitudeDegrees>
              <LongitudeDegrees>-6.38040460646152496337890625</LongitudeDegrees>
            </Position>
            <AltitudeMeters>360</AltitudeMeters>
            <DistanceMeters>NAN</DistanceMeters>
          </Trackpoint>
          <Trackpoint>
            <Time>2019-10-09T11:52:50.000Z</Time>
            <Position>
              <LatitudeDegrees>38.6634030751883983612060546875</LatitudeDegrees>
              <LongitudeDegrees>-6.38029287569224834442138671875</LongitudeDegrees>
            </Position>
            <AltitudeMeters>360.399993896484375</AltitudeMeters>
            <DistanceMeters>NAN</DistanceMeters>
          </Trackpoint>
          <Trackpoint>
            <Time>2019-10-09T11:52:54.000Z</Time>
            <Position>
              <LatitudeDegrees>38.6632154881954193115234375</LatitudeDegrees>
              <LongitudeDegrees>-6.380093805491924285888671875</LongitudeDegrees>
            </Position>
            <AltitudeMeters>359.79998779296875</AltitudeMeters>
            <DistanceMeters>NAN</DistanceMeters>
          </Trackpoint>
          <Trackpoint>
            <Time>2019-10-09T11:53:02.000Z</Time>
            <Position>
              <LatitudeDegrees>38.66284609772264957427978515625</LatitudeDegrees>
              <LongitudeDegrees>-6.37971972115337848663330078125</LongitudeDegrees>
            </Position>
            <AltitudeMeters>360.600006103515625</AltitudeMeters>
            <DistanceMeters>NAN</DistanceMeters>
          </Trackpoint>
          <Trackpoint>
            <Time>2019-10-09T11:53:07.000Z</Time>
            <Position>
              <LatitudeDegrees>38.6626248992979526519775390625</LatitudeDegrees>
              <LongitudeDegrees>-6.3794941641390323638916015625</LongitudeDegrees>
            </Position>
            <AltitudeMeters>360</AltitudeMeters>
            <DistanceMeters>NAN</DistanceMeters>
          </Trackpoint>
          <Trackpoint>
            <Time>2019-10-09T11:53:09.000Z</Time>
            <Position>
              <LatitudeDegrees>38.6625370569527149200439453125</LatitudeDegrees>
              <LongitudeDegrees>-6.37940548360347747802734375</LongitudeDegrees>
            </Position>
            <AltitudeMeters>360</AltitudeMeters>
            <DistanceMeters>NAN</DistanceMeters>
          </Trackpoint>
          <Trackpoint>
            <Time>2019-10-09T11:53:11.000Z</Time>
            <Position>
              <LatitudeDegrees>38.6624461971223354339599609375</LatitudeDegrees>
              <LongitudeDegrees>-6.37931152246892452239990234375</LongitudeDegrees>
            </Position>
            <AltitudeMeters>359.79998779296875</AltitudeMeters>
            <DistanceMeters>NAN</DistanceMeters>
          </Trackpoint>
          <Trackpoint>
            <Time>2019-10-09T11:53:17.000Z</Time>
            <Position>
              <LatitudeDegrees>38.6621479690074920654296875</LatitudeDegrees>
              <LongitudeDegrees>-6.37901111505925655364990234375</LongitudeDegrees>
            </Position>
            <AltitudeMeters>358.79998779296875</AltitudeMeters>
            <DistanceMeters>NAN</DistanceMeters>
          </Trackpoint>
          <Trackpoint>
            <Time>2019-10-09T11:53:18.000Z</Time>
            <Position>
              <LatitudeDegrees>38.662096671760082244873046875</LatitudeDegrees>
              <LongitudeDegrees>-6.3789614103734493255615234375</LongitudeDegrees>
            </Position>
            <AltitudeMeters>358.399993896484375</AltitudeMeters>
            <DistanceMeters>NAN</DistanceMeters>
          </Trackpoint>
          <Trackpoint>
            <Time>2019-10-09T11:53:20.000Z</Time>
            <Position>
              <LatitudeDegrees>38.66199231706559658050537109375</LatitudeDegrees>
              <LongitudeDegrees>-6.37886040844023227691650390625</LongitudeDegrees>
            </Position>
            <AltitudeMeters>358.600006103515625</AltitudeMeters>
            <DistanceMeters>NAN</DistanceMeters>
          </Trackpoint>
          <Trackpoint>
            <Time>2019-10-09T11:53:25.000Z</Time>
            <Position>
              <LatitudeDegrees>38.6617080867290496826171875</LatitudeDegrees>
              <LongitudeDegrees>-6.3786472566425800323486328125</LongitudeDegrees>
            </Position>
            <AltitudeMeters>357.79998779296875</AltitudeMeters>
            <DistanceMeters>NAN</DistanceMeters>
          </Trackpoint>
          <Trackpoint>
            <Time>2019-10-09T11:53:26.000Z</Time>
            <Position>
              <LatitudeDegrees>38.66164832375943660736083984375</LatitudeDegrees>
              <LongitudeDegrees>-6.3786081969738006591796875</LongitudeDegrees>
            </Position>
            <AltitudeMeters>357.600006103515625</AltitudeMeters>
            <DistanceMeters>NAN</DistanceMeters>
          </Trackpoint>
          <Trackpoint>
            <Time>2019-10-09T11:53:28.000Z</Time>
            <Position>
              <LatitudeDegrees>38.66152502596378326416015625</LatitudeDegrees>
              <LongitudeDegrees>-6.37854021973907947540283203125</LongitudeDegrees>
            </Position>
            <AltitudeMeters>357.20001220703125</AltitudeMeters>
            <DistanceMeters>NAN</DistanceMeters>
          </Trackpoint>
          <Trackpoint>
            <Time>2019-10-09T11:53:30.000Z</Time>
            <Position>
              <LatitudeDegrees>38.66139653138816356658935546875</LatitudeDegrees>
              <LongitudeDegrees>-6.37848054058849811553955078125</LongitudeDegrees>
            </Position>
            <AltitudeMeters>356.600006103515625</AltitudeMeters>
            <DistanceMeters>NAN</DistanceMeters>
          </Trackpoint>
          <Trackpoint>
            <Time>2019-10-09T11:53:32.000Z</Time>
            <Position>
              <LatitudeDegrees>38.66126493550837039947509765625</LatitudeDegrees>
              <LongitudeDegrees>-6.37842806987464427947998046875</LongitudeDegrees>
            </Position>
            <AltitudeMeters>356.399993896484375</AltitudeMeters>
            <DistanceMeters>NAN</DistanceMeters>
          </Trackpoint>
          <Trackpoint>
            <Time>2019-10-09T11:53:38.000Z</Time>
            <Position>
              <LatitudeDegrees>38.66086076013743877410888671875</LatitudeDegrees>
              <LongitudeDegrees>-6.37832589447498321533203125</LongitudeDegrees>
            </Position>
            <AltitudeMeters>355.600006103515625</AltitudeMeters>
            <DistanceMeters>NAN</DistanceMeters>
          </Trackpoint>
          <Trackpoint>
            <Time>2019-10-09T11:53:39.000Z</Time>
            <Position>
              <LatitudeDegrees>38.66079152561724185943603515625</LatitudeDegrees>
              <LongitudeDegrees>-6.37832363136112689971923828125</LongitudeDegrees>
            </Position>
            <AltitudeMeters>355</AltitudeMeters>
            <DistanceMeters>NAN</DistanceMeters>
          </Trackpoint>
          <Trackpoint>
            <Time>2019-10-09T11:53:42.000Z</Time>
            <Position>
              <LatitudeDegrees>38.6605874262750148773193359375</LatitudeDegrees>
              <LongitudeDegrees>-6.37832363136112689971923828125</LongitudeDegrees>
            </Position>
            <AltitudeMeters>355</AltitudeMeters>
            <DistanceMeters>NAN</DistanceMeters>
          </Trackpoint>
          <Trackpoint>
            <Time>2019-10-09T11:53:44.000Z</Time>
            <Position>
              <LatitudeDegrees>38.66045239381492137908935546875</LatitudeDegrees>
              <LongitudeDegrees>-6.37834559194743633270263671875</LongitudeDegrees>
            </Position>
            <AltitudeMeters>354.79998779296875</AltitudeMeters>
            <DistanceMeters>NAN</DistanceMeters>
          </Trackpoint>
          <Trackpoint>
            <Time>2019-10-09T11:53:47.000Z</Time>
            <Position>
              <LatitudeDegrees>38.66024502553045749664306640625</LatitudeDegrees>
              <LongitudeDegrees>-6.378377191722393035888671875</LongitudeDegrees>
            </Position>
            <AltitudeMeters>354.79998779296875</AltitudeMeters>
            <DistanceMeters>NAN</DistanceMeters>
          </Trackpoint>
          <Trackpoint>
            <Time>2019-10-09T11:53:50.000Z</Time>
            <Position>
              <LatitudeDegrees>38.66003572940826416015625</LatitudeDegrees>
              <LongitudeDegrees>-6.37842915952205657958984375</LongitudeDegrees>
            </Position>
            <AltitudeMeters>354</AltitudeMeters>
            <DistanceMeters>NAN</DistanceMeters>
          </Trackpoint>
          <Trackpoint>
            <Time>2019-10-09T11:53:51.000Z</Time>
            <Position>
              <LatitudeDegrees>38.6599651537835597991943359375</LatitudeDegrees>
              <LongitudeDegrees>-6.3784484378993511199951171875</LongitudeDegrees>
            </Position>
            <AltitudeMeters>353.600006103515625</AltitudeMeters>
            <DistanceMeters>NAN</DistanceMeters>
          </Trackpoint>
          <Trackpoint>
            <Time>2019-10-09T11:53:52.000Z</Time>
            <Position>
              <LatitudeDegrees>38.659893907606601715087890625</LatitudeDegrees>
              <LongitudeDegrees>-6.37846528552472591400146484375</LongitudeDegrees>
            </Position>
            <AltitudeMeters>353.20001220703125</AltitudeMeters>
            <DistanceMeters>NAN</DistanceMeters>
          </Trackpoint>
          <Trackpoint>
            <Time>2019-10-09T11:54:00.000Z</Time>
            <Position>
              <LatitudeDegrees>38.65934036672115325927734375</LatitudeDegrees>
              <LongitudeDegrees>-6.37864507734775543212890625</LongitudeDegrees>
            </Position>
            <AltitudeMeters>352.600006103515625</AltitudeMeters>
            <DistanceMeters>NAN</DistanceMeters>
          </Trackpoint>
          <Trackpoint>
            <Time>2019-10-09T11:54:04.000Z</Time>
            <Position>
              <LatitudeDegrees>38.659064434468746185302734375</LatitudeDegrees>
              <LongitudeDegrees>-6.37872696854174137115478515625</LongitudeDegrees>
            </Position>
            <AltitudeMeters>352.399993896484375</AltitudeMeters>
            <DistanceMeters>NAN</DistanceMeters>
          </Trackpoint>
          <Trackpoint>
            <Time>2019-10-09T11:54:09.000Z</Time>
            <Position>
              <LatitudeDegrees>38.65872521884739398956298828125</LatitudeDegrees>
              <LongitudeDegrees>-6.37882570736110210418701171875</LongitudeDegrees>
            </Position>
            <AltitudeMeters>352.399993896484375</AltitudeMeters>
            <DistanceMeters>NAN</DistanceMeters>
          </Trackpoint>
          <Trackpoint>
            <Time>2019-10-09T11:54:16.000Z</Time>
            <Position>
              <LatitudeDegrees>38.65825834684073925018310546875</LatitudeDegrees>
              <LongitudeDegrees>-6.378913633525371551513671875</LongitudeDegrees>
            </Position>
            <AltitudeMeters>352.600006103515625</AltitudeMeters>
            <DistanceMeters>NAN</DistanceMeters>
          </Trackpoint>
          <Trackpoint>
            <Time>2019-10-09T11:54:17.000Z</Time>
            <Position>
              <LatitudeDegrees>38.65819229744374752044677734375</LatitudeDegrees>
              <LongitudeDegrees>-6.37892159633338451385498046875</LongitudeDegrees>
            </Position>
            <AltitudeMeters>352.79998779296875</AltitudeMeters>
            <DistanceMeters>NAN</DistanceMeters>
          </Trackpoint>
          <Trackpoint>
            <Time>2019-10-09T11:54:23.000Z</Time>
            <Position>
              <LatitudeDegrees>38.65780505351722240447998046875</LatitudeDegrees>
              <LongitudeDegrees>-6.37893852777779102325439453125</LongitudeDegrees>
            </Position>
            <AltitudeMeters>353.20001220703125</AltitudeMeters>
            <DistanceMeters>NAN</DistanceMeters>
          </Trackpoint>
          <Trackpoint>
            <Time>2019-10-09T11:54:25.000Z</Time>
            <Position>
              <LatitudeDegrees>38.657678402960300445556640625</LatitudeDegrees>
              <LongitudeDegrees>-6.37893249280750751495361328125</LongitudeDegrees>
            </Position>
            <AltitudeMeters>353.600006103515625</AltitudeMeters>
            <DistanceMeters>NAN</DistanceMeters>
          </Trackpoint>
          <Trackpoint>
            <Time>2019-10-09T11:54:28.000Z</Time>
            <Position>
              <LatitudeDegrees>38.6574862897396087646484375</LatitudeDegrees>
              <LongitudeDegrees>-6.37891195714473724365234375</LongitudeDegrees>
            </Position>
            <AltitudeMeters>353.399993896484375</AltitudeMeters>
            <DistanceMeters>NAN</DistanceMeters>
          </Trackpoint>
          <Trackpoint>
            <Time>2019-10-09T11:54:31.000Z</Time>
            <Position>
              <LatitudeDegrees>38.6572953499853610992431640625</LatitudeDegrees>
              <LongitudeDegrees>-6.3788765855133533477783203125</LongitudeDegrees>
            </Position>
            <AltitudeMeters>353.399993896484375</AltitudeMeters>
            <DistanceMeters>NAN</DistanceMeters>
          </Trackpoint>
          <Trackpoint>
            <Time>2019-10-09T11:54:34.000Z</Time>
            <Position>
              <LatitudeDegrees>38.65710365585982799530029296875</LatitudeDegrees>
              <LongitudeDegrees>-6.3788336701691150665283203125</LongitudeDegrees>
            </Position>
            <AltitudeMeters>354</AltitudeMeters>
            <DistanceMeters>NAN</DistanceMeters>
          </Trackpoint>
          <Trackpoint>
            <Time>2019-10-09T11:54:42.000Z</Time>
            <Position>
              <LatitudeDegrees>38.65658439695835113525390625</LatitudeDegrees>
              <LongitudeDegrees>-6.3786982186138629913330078125</LongitudeDegrees>
            </Position>
            <AltitudeMeters>353.600006103515625</AltitudeMeters>
            <DistanceMeters>NAN</DistanceMeters>
          </Trackpoint>
          <Trackpoint>
            <Time>2019-10-09T11:54:44.000Z</Time>
            <Position>
              <LatitudeDegrees>38.65645506419241428375244140625</LatitudeDegrees>
              <LongitudeDegrees>-6.3786633498966693878173828125</LongitudeDegrees>
            </Position>
            <AltitudeMeters>353.600006103515625</AltitudeMeters>
            <DistanceMeters>NAN</DistanceMeters>
          </Trackpoint>
          <Trackpoint>
            <Time>2019-10-09T11:54:53.000Z</Time>
            <Position>
              <LatitudeDegrees>38.65588291548192501068115234375</LatitudeDegrees>
              <LongitudeDegrees>-6.37851876206696033477783203125</LongitudeDegrees>
            </Position>
            <AltitudeMeters>353.79998779296875</AltitudeMeters>
            <DistanceMeters>NAN</DistanceMeters>
          </Trackpoint>
          <Trackpoint>
            <Time>2019-10-09T11:54:55.000Z</Time>
            <Position>
              <LatitudeDegrees>38.65575852803885936737060546875</LatitudeDegrees>
              <LongitudeDegrees>-6.37848825193941593170166015625</LongitudeDegrees>
            </Position>
            <AltitudeMeters>353.79998779296875</AltitudeMeters>
            <DistanceMeters>NAN</DistanceMeters>
          </Trackpoint>
          <Trackpoint>
            <Time>2019-10-09T11:55:03.000Z</Time>
            <Position>
              <LatitudeDegrees>38.6552734673023223876953125</LatitudeDegrees>
              <LongitudeDegrees>-6.3782794587314128875732421875</LongitudeDegrees>
            </Position>
            <AltitudeMeters>353.79998779296875</AltitudeMeters>
            <DistanceMeters>NAN</DistanceMeters>
          </Trackpoint>
          <Trackpoint>
            <Time>2019-10-09T11:55:10.000Z</Time>
            <Position>
              <LatitudeDegrees>38.65488312207162380218505859375</LatitudeDegrees>
              <LongitudeDegrees>-6.37801735661923885345458984375</LongitudeDegrees>
            </Position>
            <AltitudeMeters>353.399993896484375</AltitudeMeters>
            <DistanceMeters>NAN</DistanceMeters>
          </Trackpoint>
          <Trackpoint>
            <Time>2019-10-09T11:55:17.000Z</Time>
            <Position>
              <LatitudeDegrees>38.65446805022656917572021484375</LatitudeDegrees>
              <LongitudeDegrees>-6.37774410657584667205810546875</LongitudeDegrees>
            </Position>
            <AltitudeMeters>352.600006103515625</AltitudeMeters>
            <DistanceMeters>NAN</DistanceMeters>
          </Trackpoint>
          <Trackpoint>
            <Time>2019-10-09T11:55:18.000Z</Time>
            <Position>
              <LatitudeDegrees>38.65440367721021175384521484375</LatitudeDegrees>
              <LongitudeDegrees>-6.37771124951541423797607421875</LongitudeDegrees>
            </Position>
            <AltitudeMeters>352.399993896484375</AltitudeMeters>
            <DistanceMeters>NAN</DistanceMeters>
          </Trackpoint>
          <Trackpoint>
            <Time>2019-10-09T11:55:26.000Z</Time>
            <Position>
              <LatitudeDegrees>38.65390210412442684173583984375</LatitudeDegrees>
              <LongitudeDegrees>-6.37749306857585906982421875</LongitudeDegrees>
            </Position>
            <AltitudeMeters>352.399993896484375</AltitudeMeters>
            <DistanceMeters>NAN</DistanceMeters>
          </Trackpoint>
          <Trackpoint>
            <Time>2019-10-09T11:55:34.000Z</Time>
            <Position>
              <LatitudeDegrees>38.6534007824957370758056640625</LatitudeDegrees>
              <LongitudeDegrees>-6.37728989124298095703125</LongitudeDegrees>
            </Position>
            <AltitudeMeters>352</AltitudeMeters>
            <DistanceMeters>NAN</DistanceMeters>
          </Trackpoint>
          <Trackpoint>
            <Time>2019-10-09T11:55:37.000Z</Time>
            <Position>
              <LatitudeDegrees>38.65321462042629718780517578125</LatitudeDegrees>
              <LongitudeDegrees>-6.37721302919089794158935546875</LongitudeDegrees>
            </Position>
            <AltitudeMeters>352.600006103515625</AltitudeMeters>
            <DistanceMeters>NAN</DistanceMeters>
          </Trackpoint>
          <Trackpoint>
            <Time>2019-10-09T11:55:43.000Z</Time>
            <Position>
              <LatitudeDegrees>38.652828969061374664306640625</LatitudeDegrees>
              <LongitudeDegrees>-6.3770498335361480712890625</LongitudeDegrees>
            </Position>
            <AltitudeMeters>352</AltitudeMeters>
            <DistanceMeters>NAN</DistanceMeters>
          </Trackpoint>
          <Trackpoint>
            <Time>2019-10-09T11:55:47.000Z</Time>
            <Position>
              <LatitudeDegrees>38.652561418712139129638671875</LatitudeDegrees>
              <LongitudeDegrees>-6.37693759985268115997314453125</LongitudeDegrees>
            </Position>
            <AltitudeMeters>351.79998779296875</AltitudeMeters>
            <DistanceMeters>NAN</DistanceMeters>
          </Trackpoint>
          <Trackpoint>
            <Time>2019-10-09T11:55:48.000Z</Time>
            <Position>
              <LatitudeDegrees>38.652495034039020538330078125</LatitudeDegrees>
              <LongitudeDegrees>-6.376908682286739349365234375</LongitudeDegrees>
            </Position>
            <AltitudeMeters>351.399993896484375</AltitudeMeters>
            <DistanceMeters>NAN</DistanceMeters>
          </Trackpoint>
          <Trackpoint>
            <Time>2019-10-09T11:55:51.000Z</Time>
            <Position>
              <LatitudeDegrees>38.652295209467411041259765625</LatitudeDegrees>
              <LongitudeDegrees>-6.37682293541729450225830078125</LongitudeDegrees>
            </Position>
            <AltitudeMeters>351</AltitudeMeters>
            <DistanceMeters>NAN</DistanceMeters>
          </Trackpoint>
          <Trackpoint>
            <Time>2019-10-09T11:55:52.000Z</Time>
            <Position>
              <LatitudeDegrees>38.6522286571562290191650390625</LatitudeDegrees>
              <LongitudeDegrees>-6.37679544277489185333251953125</LongitudeDegrees>
            </Position>
            <AltitudeMeters>350.79998779296875</AltitudeMeters>
            <DistanceMeters>NAN</DistanceMeters>
          </Trackpoint>
          <Trackpoint>
            <Time>2019-10-09T11:55:54.000Z</Time>
            <Position>
              <LatitudeDegrees>38.652096055448055267333984375</LatitudeDegrees>
              <LongitudeDegrees>-6.376741714775562286376953125</LongitudeDegrees>
            </Position>
            <AltitudeMeters>350.20001220703125</AltitudeMeters>
            <DistanceMeters>NAN</DistanceMeters>
          </Trackpoint>
          <Trackpoint>
            <Time>2019-10-09T11:55:58.000Z</Time>
            <Position>
              <LatitudeDegrees>38.65182816982269287109375</LatitudeDegrees>
              <LongitudeDegrees>-6.3766322471201419830322265625</LongitudeDegrees>
            </Position>
            <AltitudeMeters>350.600006103515625</AltitudeMeters>
            <DistanceMeters>NAN</DistanceMeters>
          </Trackpoint>
          <Trackpoint>
            <Time>2019-10-09T11:56:02.000Z</Time>
            <Position>
              <LatitudeDegrees>38.65155919454991817474365234375</LatitudeDegrees>
              <LongitudeDegrees>-6.37652202509343624114990234375</LongitudeDegrees>
            </Position>
            <AltitudeMeters>350</AltitudeMeters>
            <DistanceMeters>NAN</DistanceMeters>
          </Trackpoint>
          <Trackpoint>
            <Time>2019-10-09T11:56:04.000Z</Time>
            <Position>
              <LatitudeDegrees>38.6514223180711269378662109375</LatitudeDegrees>
              <LongitudeDegrees>-6.37646670453250408172607421875</LongitudeDegrees>
            </Position>
            <AltitudeMeters>350</AltitudeMeters>
            <DistanceMeters>NAN</DistanceMeters>
          </Trackpoint>
          <Trackpoint>
            <Time>2019-10-09T11:56:08.000Z</Time>
            <Position>
              <LatitudeDegrees>38.65115317516028881072998046875</LatitudeDegrees>
              <LongitudeDegrees>-6.3763586618006229400634765625</LongitudeDegrees>
            </Position>
            <AltitudeMeters>349</AltitudeMeters>
            <DistanceMeters>NAN</DistanceMeters>
          </Trackpoint>
          <Trackpoint>
            <Time>2019-10-09T11:56:09.000Z</Time>
            <Position>
              <LatitudeDegrees>38.65108712576329708099365234375</LatitudeDegrees>
              <LongitudeDegrees>-6.3763328455388545989990234375</LongitudeDegrees>
            </Position>
            <AltitudeMeters>349.399993896484375</AltitudeMeters>
            <DistanceMeters>NAN</DistanceMeters>
          </Trackpoint>
          <Trackpoint>
            <Time>2019-10-09T11:56:17.000Z</Time>
            <Position>
              <LatitudeDegrees>38.6505817808210849761962890625</LatitudeDegrees>
              <LongitudeDegrees>-6.376127488911151885986328125</LongitudeDegrees>
            </Position>
            <AltitudeMeters>349.79998779296875</AltitudeMeters>
            <DistanceMeters>NAN</DistanceMeters>
          </Trackpoint>
          <Trackpoint>
            <Time>2019-10-09T11:56:18.000Z</Time>
            <Position>
              <LatitudeDegrees>38.65052151493728160858154296875</LatitudeDegrees>
              <LongitudeDegrees>-6.3761043548583984375</LongitudeDegrees>
            </Position>
            <AltitudeMeters>349.399993896484375</AltitudeMeters>
            <DistanceMeters>NAN</DistanceMeters>
          </Trackpoint>
          <Trackpoint>
            <Time>2019-10-09T11:56:24.000Z</Time>
            <Position>
              <LatitudeDegrees>38.650164194405078887939453125</LatitudeDegrees>
              <LongitudeDegrees>-6.375952474772930145263671875</LongitudeDegrees>
            </Position>
            <AltitudeMeters>350.20001220703125</AltitudeMeters>
            <DistanceMeters>NAN</DistanceMeters>
          </Trackpoint>
          <Trackpoint>
            <Time>2019-10-09T11:56:28.000Z</Time>
            <Position>
              <LatitudeDegrees>38.64993327297270298004150390625</LatitudeDegrees>
              <LongitudeDegrees>-6.37586069293320178985595703125</LongitudeDegrees>
            </Position>
            <AltitudeMeters>350.399993896484375</AltitudeMeters>
            <DistanceMeters>NAN</DistanceMeters>
          </Trackpoint>
          <Trackpoint>
            <Time>2019-10-09T11:56:37.000Z</Time>
            <Position>
              <LatitudeDegrees>38.6494280956685543060302734375</LatitudeDegrees>
              <LongitudeDegrees>-6.3756616227328777313232421875</LongitudeDegrees>
            </Position>
            <AltitudeMeters>350.20001220703125</AltitudeMeters>
            <DistanceMeters>NAN</DistanceMeters>
          </Trackpoint>
          <Trackpoint>
            <Time>2019-10-09T11:56:39.000Z</Time>
            <Position>
              <LatitudeDegrees>38.64931435324251651763916015625</LatitudeDegrees>
              <LongitudeDegrees>-6.37561929412186145782470703125</LongitudeDegrees>
            </Position>
            <AltitudeMeters>351</AltitudeMeters>
            <DistanceMeters>NAN</DistanceMeters>
          </Trackpoint>
          <Trackpoint>
            <Time>2019-10-09T11:56:48.000Z</Time>
            <Position>
              <LatitudeDegrees>38.6487932503223419189453125</LatitudeDegrees>
              <LongitudeDegrees>-6.3754058070480823516845703125</LongitudeDegrees>
            </Position>
            <AltitudeMeters>350.399993896484375</AltitudeMeters>
            <DistanceMeters>NAN</DistanceMeters>
          </Trackpoint>
          <Trackpoint>
            <Time>2019-10-09T11:56:51.000Z</Time>
            <Position>
              <LatitudeDegrees>38.648609854280948638916015625</LatitudeDegrees>
              <LongitudeDegrees>-6.37533196248114109039306640625</LongitudeDegrees>
            </Position>
            <AltitudeMeters>350.399993896484375</AltitudeMeters>
            <DistanceMeters>NAN</DistanceMeters>
          </Trackpoint>
          <Trackpoint>
            <Time>2019-10-09T11:56:55.000Z</Time>
            <Position>
              <LatitudeDegrees>38.64835110493004322052001953125</LatitudeDegrees>
              <LongitudeDegrees>-6.37522467412054538726806640625</LongitudeDegrees>
            </Position>
            <AltitudeMeters>349.600006103515625</AltitudeMeters>
            <DistanceMeters>NAN</DistanceMeters>
          </Trackpoint>
          <Trackpoint>
            <Time>2019-10-09T11:56:57.000Z</Time>
            <Position>
              <LatitudeDegrees>38.64822001196444034576416015625</LatitudeDegrees>
              <LongitudeDegrees>-6.37517337687313556671142578125</LongitudeDegrees>
            </Position>
            <AltitudeMeters>348.79998779296875</AltitudeMeters>
            <DistanceMeters>NAN</DistanceMeters>
          </Trackpoint>
          <Trackpoint>
            <Time>2019-10-09T11:57:00.000Z</Time>
            <Position>
              <LatitudeDegrees>38.64802823401987552642822265625</LatitudeDegrees>
              <LongitudeDegrees>-6.37509517371654510498046875</LongitudeDegrees>
            </Position>
            <AltitudeMeters>349.600006103515625</AltitudeMeters>
            <DistanceMeters>NAN</DistanceMeters>
          </Trackpoint>
          <Trackpoint>
            <Time>2019-10-09T11:57:06.000Z</Time>
            <Position>
              <LatitudeDegrees>38.64764769561588764190673828125</LatitudeDegrees>
              <LongitudeDegrees>-6.37493784539401531219482421875</LongitudeDegrees>
            </Position>
            <AltitudeMeters>349.600006103515625</AltitudeMeters>
            <DistanceMeters>NAN</DistanceMeters>
          </Trackpoint>
          <Trackpoint>
            <Time>2019-10-09T11:57:10.000Z</Time>
            <Position>
              <LatitudeDegrees>38.6473946459591388702392578125</LatitudeDegrees>
              <LongitudeDegrees>-6.374837346374988555908203125</LongitudeDegrees>
            </Position>
            <AltitudeMeters>349.600006103515625</AltitudeMeters>
            <DistanceMeters>NAN</DistanceMeters>
          </Trackpoint>
          <Trackpoint>
            <Time>2019-10-09T11:57:17.000Z</Time>
            <Position>
              <LatitudeDegrees>38.64695618860423564910888671875</LatitudeDegrees>
              <LongitudeDegrees>-6.37465923093259334564208984375</LongitudeDegrees>
            </Position>
            <AltitudeMeters>350</AltitudeMeters>
            <DistanceMeters>NAN</DistanceMeters>
          </Trackpoint>
          <Trackpoint>
            <Time>2019-10-09T11:57:22.000Z</Time>
            <Position>
              <LatitudeDegrees>38.64664287306368350982666015625</LatitudeDegrees>
              <LongitudeDegrees>-6.374530903995037078857421875</LongitudeDegrees>
            </Position>
            <AltitudeMeters>350.20001220703125</AltitudeMeters>
            <DistanceMeters>NAN</DistanceMeters>
          </Trackpoint>
          <Trackpoint>
            <Time>2019-10-09T11:57:27.000Z</Time>
            <Position>
              <LatitudeDegrees>38.64633165299892425537109375</LatitudeDegrees>
              <LongitudeDegrees>-6.37440358288586139678955078125</LongitudeDegrees>
            </Position>
            <AltitudeMeters>350.399993896484375</AltitudeMeters>
            <DistanceMeters>NAN</DistanceMeters>
          </Trackpoint>
          <Trackpoint>
            <Time>2019-10-09T11:57:32.000Z</Time>
            <Position>
              <LatitudeDegrees>38.646013475954532623291015625</LatitudeDegrees>
              <LongitudeDegrees>-6.374271400272846221923828125</LongitudeDegrees>
            </Position>
            <AltitudeMeters>350.79998779296875</AltitudeMeters>
            <DistanceMeters>NAN</DistanceMeters>
          </Trackpoint>
          <Trackpoint>
            <Time>2019-10-09T11:57:40.000Z</Time>
            <Position>
              <LatitudeDegrees>38.6454983241856098175048828125</LatitudeDegrees>
              <LongitudeDegrees>-6.37405824847519397735595703125</LongitudeDegrees>
            </Position>
            <AltitudeMeters>350.20001220703125</AltitudeMeters>
            <DistanceMeters>NAN</DistanceMeters>
          </Trackpoint>
          <Trackpoint>
            <Time>2019-10-09T11:57:44.000Z</Time>
            <Position>
              <LatitudeDegrees>38.6452401615679264068603515625</LatitudeDegrees>
              <LongitudeDegrees>-6.3739537261426448822021484375</LongitudeDegrees>
            </Position>
            <AltitudeMeters>350</AltitudeMeters>
            <DistanceMeters>NAN</DistanceMeters>
          </Trackpoint>
          <Trackpoint>
            <Time>2019-10-09T11:57:52.000Z</Time>
            <Position>
              <LatitudeDegrees>38.64472392015159130096435546875</LatitudeDegrees>
              <LongitudeDegrees>-6.37374174781143665313720703125</LongitudeDegrees>
            </Position>
            <AltitudeMeters>349.79998779296875</AltitudeMeters>
            <DistanceMeters>NAN</DistanceMeters>
          </Trackpoint>
          <Trackpoint>
            <Time>2019-10-09T11:57:56.000Z</Time>
            <Position>
              <LatitudeDegrees>38.64446491934359073638916015625</LatitudeDegrees>
              <LongitudeDegrees>-6.37363362126052379608154296875</LongitudeDegrees>
            </Position>
            <AltitudeMeters>349.79998779296875</AltitudeMeters>
            <DistanceMeters>NAN</DistanceMeters>
          </Trackpoint>
          <Trackpoint>
            <Time>2019-10-09T11:58:04.000Z</Time>
            <Position>
              <LatitudeDegrees>38.64393820054829120635986328125</LatitudeDegrees>
              <LongitudeDegrees>-6.3734261691570281982421875</LongitudeDegrees>
            </Position>
            <AltitudeMeters>349.20001220703125</AltitudeMeters>
            <DistanceMeters>NAN</DistanceMeters>
          </Trackpoint>
          <Trackpoint>
            <Time>2019-10-09T11:58:11.000Z</Time>
            <Position>
              <LatitudeDegrees>38.64347417838871479034423828125</LatitudeDegrees>
              <LongitudeDegrees>-6.37323631905019283294677734375</LongitudeDegrees>
            </Position>
            <AltitudeMeters>349.399993896484375</AltitudeMeters>
            <DistanceMeters>NAN</DistanceMeters>
          </Trackpoint>
          <Trackpoint>
            <Time>2019-10-09T11:58:14.000Z</Time>
            <Position>
              <LatitudeDegrees>38.64327888004481792449951171875</LatitudeDegrees>
              <LongitudeDegrees>-6.3731554336845874786376953125</LongitudeDegrees>
            </Position>
            <AltitudeMeters>349</AltitudeMeters>
            <DistanceMeters>NAN</DistanceMeters>
          </Trackpoint>
          <Trackpoint>
            <Time>2019-10-09T11:58:19.000Z</Time>
            <Position>
              <LatitudeDegrees>38.6429460346698760986328125</LatitudeDegrees>
              <LongitudeDegrees>-6.37302408926188945770263671875</LongitudeDegrees>
            </Position>
            <AltitudeMeters>348.79998779296875</AltitudeMeters>
            <DistanceMeters>NAN</DistanceMeters>
          </Trackpoint>
          <Trackpoint>
            <Time>2019-10-09T11:58:27.000Z</Time>
            <Position>
              <LatitudeDegrees>38.64241319708526134490966796875</LatitudeDegrees>
              <LongitudeDegrees>-6.37280984781682491302490234375</LongitudeDegrees>
            </Position>
            <AltitudeMeters>349</AltitudeMeters>
            <DistanceMeters>NAN</DistanceMeters>
          </Trackpoint>
          <Trackpoint>
            <Time>2019-10-09T11:58:35.000Z</Time>
            <Position>
              <LatitudeDegrees>38.64187323488295078277587890625</LatitudeDegrees>
              <LongitudeDegrees>-6.37259493581950664520263671875</LongitudeDegrees>
            </Position>
            <AltitudeMeters>348.600006103515625</AltitudeMeters>
            <DistanceMeters>NAN</DistanceMeters>
          </Trackpoint>
          <Trackpoint>
            <Time>2019-10-09T11:58:36.000Z</Time>
            <Position>
              <LatitudeDegrees>38.641805090010166168212890625</LatitudeDegrees>
              <LongitudeDegrees>-6.37256853282451629638671875</LongitudeDegrees>
            </Position>
            <AltitudeMeters>348.600006103515625</AltitudeMeters>
            <DistanceMeters>NAN</DistanceMeters>
          </Trackpoint>
          <Trackpoint>
            <Time>2019-10-09T11:58:44.000Z</Time>
            <Position>
              <LatitudeDegrees>38.64125096239149570465087890625</LatitudeDegrees>
              <LongitudeDegrees>-6.3723410479724407196044921875</LongitudeDegrees>
            </Position>
            <AltitudeMeters>348.399993896484375</AltitudeMeters>
            <DistanceMeters>NAN</DistanceMeters>
          </Trackpoint>
          <Trackpoint>
            <Time>2019-10-09T11:58:47.000Z</Time>
            <Position>
              <LatitudeDegrees>38.64104107953608036041259765625</LatitudeDegrees>
              <LongitudeDegrees>-6.37225337326526641845703125</LongitudeDegrees>
            </Position>
            <AltitudeMeters>348.600006103515625</AltitudeMeters>
            <DistanceMeters>NAN</DistanceMeters>
          </Trackpoint>
          <Trackpoint>
            <Time>2019-10-09T11:58:52.000Z</Time>
            <Position>
              <LatitudeDegrees>38.64068962633609771728515625</LatitudeDegrees>
              <LongitudeDegrees>-6.37211381457746028900146484375</LongitudeDegrees>
            </Position>
            <AltitudeMeters>347.600006103515625</AltitudeMeters>
            <DistanceMeters>NAN</DistanceMeters>
          </Trackpoint>
          <Trackpoint>
            <Time>2019-10-09T11:58:56.000Z</Time>
            <Position>
              <LatitudeDegrees>38.64041067659854888916015625</LatitudeDegrees>
              <LongitudeDegrees>-6.3720037601888179779052734375</LongitudeDegrees>
            </Position>
            <AltitudeMeters>347.600006103515625</AltitudeMeters>
            <DistanceMeters>NAN</DistanceMeters>
          </Trackpoint>
          <Trackpoint>
            <Time>2019-10-09T11:59:04.000Z</Time>
            <Position>
              <LatitudeDegrees>38.6398640088737010955810546875</LatitudeDegrees>
              <LongitudeDegrees>-6.3717757724225521087646484375</LongitudeDegrees>
            </Position>
            <AltitudeMeters>347.399993896484375</AltitudeMeters>
            <DistanceMeters>NAN</DistanceMeters>
          </Trackpoint>
          <Trackpoint>
            <Time>2019-10-09T11:59:05.000Z</Time>
            <Position>
              <LatitudeDegrees>38.63979519344866275787353515625</LatitudeDegrees>
              <LongitudeDegrees>-6.3717469386756420135498046875</LongitudeDegrees>
            </Position>
            <AltitudeMeters>347.600006103515625</AltitudeMeters>
            <DistanceMeters>NAN</DistanceMeters>
          </Trackpoint>
          <Trackpoint>
            <Time>2019-10-09T11:59:11.000Z</Time>
            <Position>
              <LatitudeDegrees>38.6393734999001026153564453125</LatitudeDegrees>
              <LongitudeDegrees>-6.371581815183162689208984375</LongitudeDegrees>
            </Position>
            <AltitudeMeters>347.600006103515625</AltitudeMeters>
            <DistanceMeters>NAN</DistanceMeters>
          </Trackpoint>
          <Trackpoint>
            <Time>2019-10-09T11:59:16.000Z</Time>
            <Position>
              <LatitudeDegrees>38.6390214599668979644775390625</LatitudeDegrees>
              <LongitudeDegrees>-6.371431611478328704833984375</LongitudeDegrees>
            </Position>
            <AltitudeMeters>347.399993896484375</AltitudeMeters>
            <DistanceMeters>NAN</DistanceMeters>
          </Trackpoint>
          <Trackpoint>
            <Time>2019-10-09T11:59:21.000Z</Time>
            <Position>
              <LatitudeDegrees>38.63866279833018779754638671875</LatitudeDegrees>
              <LongitudeDegrees>-6.3712964951992034912109375</LongitudeDegrees>
            </Position>
            <AltitudeMeters>347</AltitudeMeters>
            <DistanceMeters>NAN</DistanceMeters>
          </Trackpoint>
          <Trackpoint>
            <Time>2019-10-09T11:59:24.000Z</Time>
            <Position>
              <LatitudeDegrees>38.63845140673220157623291015625</LatitudeDegrees>
              <LongitudeDegrees>-6.37120756320655345916748046875</LongitudeDegrees>
            </Position>
            <AltitudeMeters>346.79998779296875</AltitudeMeters>
            <DistanceMeters>NAN</DistanceMeters>
          </Trackpoint>
          <Trackpoint>
            <Time>2019-10-09T11:59:32.000Z</Time>
            <Position>
              <LatitudeDegrees>38.63789208233356475830078125</LatitudeDegrees>
              <LongitudeDegrees>-6.37097639031708240509033203125</LongitudeDegrees>
            </Position>
            <AltitudeMeters>347.20001220703125</AltitudeMeters>
            <DistanceMeters>NAN</DistanceMeters>
          </Trackpoint>
          <Trackpoint>
            <Time>2019-10-09T11:59:36.000Z</Time>
            <Position>
              <LatitudeDegrees>38.6376072652637958526611328125</LatitudeDegrees>
              <LongitudeDegrees>-6.37086289934813976287841796875</LongitudeDegrees>
            </Position>
            <AltitudeMeters>346.79998779296875</AltitudeMeters>
            <DistanceMeters>NAN</DistanceMeters>
          </Trackpoint>
          <Trackpoint>
            <Time>2019-10-09T11:59:40.000Z</Time>
            <Position>
              <LatitudeDegrees>38.6373246274888515472412109375</LatitudeDegrees>
              <LongitudeDegrees>-6.37074588797986507415771484375</LongitudeDegrees>
            </Position>
            <AltitudeMeters>346.600006103515625</AltitudeMeters>
            <DistanceMeters>NAN</DistanceMeters>
          </Trackpoint>
          <Trackpoint>
            <Time>2019-10-09T11:59:47.000Z</Time>
            <Position>
              <LatitudeDegrees>38.636825568974018096923828125</LatitudeDegrees>
              <LongitudeDegrees>-6.3705392740666866302490234375</LongitudeDegrees>
            </Position>
            <AltitudeMeters>346.399993896484375</AltitudeMeters>
            <DistanceMeters>NAN</DistanceMeters>
          </Trackpoint>
          <Trackpoint>
            <Time>2019-10-09T11:59:54.000Z</Time>
            <Position>
              <LatitudeDegrees>38.6363218165934085845947265625</LatitudeDegrees>
              <LongitudeDegrees>-6.37033819220960140228271484375</LongitudeDegrees>
            </Position>
            <AltitudeMeters>346.20001220703125</AltitudeMeters>
            <DistanceMeters>NAN</DistanceMeters>
          </Trackpoint>
          <Trackpoint>
            <Time>2019-10-09T11:59:57.000Z</Time>
            <Position>
              <LatitudeDegrees>38.63610480912029743194580078125</LatitudeDegrees>
              <LongitudeDegrees>-6.37024934403598308563232421875</LongitudeDegrees>
            </Position>
            <AltitudeMeters>345.600006103515625</AltitudeMeters>
            <DistanceMeters>NAN</DistanceMeters>
          </Trackpoint>
          <Trackpoint>
            <Time>2019-10-09T12:00:01.000Z</Time>
            <Position>
              <LatitudeDegrees>38.635807000100612640380859375</LatitudeDegrees>
              <LongitudeDegrees>-6.37012730352580547332763671875</LongitudeDegrees>
            </Position>
            <AltitudeMeters>345.20001220703125</AltitudeMeters>
            <DistanceMeters>NAN</DistanceMeters>
          </Trackpoint>
          <Trackpoint>
            <Time>2019-10-09T12:00:03.000Z</Time>
            <Position>
              <LatitudeDegrees>38.63565537147223949432373046875</LatitudeDegrees>
              <LongitudeDegrees>-6.3700641877949237823486328125</LongitudeDegrees>
            </Position>
            <AltitudeMeters>344</AltitudeMeters>
            <DistanceMeters>NAN</DistanceMeters>
          </Trackpoint>
          <Trackpoint>
            <Time>2019-10-09T12:00:07.000Z</Time>
            <Position>
              <LatitudeDegrees>38.6353545449674129486083984375</LatitudeDegrees>
              <LongitudeDegrees>-6.36993921361863613128662109375</LongitudeDegrees>
            </Position>
            <AltitudeMeters>344</AltitudeMeters>
            <DistanceMeters>NAN</DistanceMeters>
          </Trackpoint>
          <Trackpoint>
            <Time>2019-10-09T12:00:12.000Z</Time>
            <Position>
              <LatitudeDegrees>38.63498414866626262664794921875</LatitudeDegrees>
              <LongitudeDegrees>-6.3697919435799121856689453125</LongitudeDegrees>
            </Position>
            <AltitudeMeters>344.20001220703125</AltitudeMeters>
            <DistanceMeters>NAN</DistanceMeters>
          </Trackpoint>
          <Trackpoint>
            <Time>2019-10-09T12:00:15.000Z</Time>
            <Position>
              <LatitudeDegrees>38.6347706615924835205078125</LatitudeDegrees>
              <LongitudeDegrees>-6.36970460414886474609375</LongitudeDegrees>
            </Position>
            <AltitudeMeters>344.20001220703125</AltitudeMeters>
            <DistanceMeters>NAN</DistanceMeters>
          </Trackpoint>
          <Trackpoint>
            <Time>2019-10-09T12:00:23.000Z</Time>
            <Position>
              <LatitudeDegrees>38.63421955145895481109619140625</LatitudeDegrees>
              <LongitudeDegrees>-6.36947837658226490020751953125</LongitudeDegrees>
            </Position>
            <AltitudeMeters>344.399993896484375</AltitudeMeters>
            <DistanceMeters>NAN</DistanceMeters>
          </Trackpoint>
          <Trackpoint>
            <Time>2019-10-09T12:00:31.000Z</Time>
            <Position>
              <LatitudeDegrees>38.63371177576482295989990234375</LatitudeDegrees>
              <LongitudeDegrees>-6.36927218176424503326416015625</LongitudeDegrees>
            </Position>
            <AltitudeMeters>344.79998779296875</AltitudeMeters>
            <DistanceMeters>NAN</DistanceMeters>
          </Trackpoint>
          <Trackpoint>
            <Time>2019-10-09T12:00:32.000Z</Time>
            <Position>
              <LatitudeDegrees>38.63365176133811473846435546875</LatitudeDegrees>
              <LongitudeDegrees>-6.3692471198737621307373046875</LongitudeDegrees>
            </Position>
            <AltitudeMeters>345.20001220703125</AltitudeMeters>
            <DistanceMeters>NAN</DistanceMeters>
          </Trackpoint>
          <Trackpoint>
            <Time>2019-10-09T12:00:40.000Z</Time>
            <Position>
              <LatitudeDegrees>38.63319821655750274658203125</LatitudeDegrees>
              <LongitudeDegrees>-6.3690700940787792205810546875</LongitudeDegrees>
            </Position>
            <AltitudeMeters>346</AltitudeMeters>
            <DistanceMeters>NAN</DistanceMeters>
          </Trackpoint>
          <Trackpoint>
            <Time>2019-10-09T12:00:41.000Z</Time>
            <Position>
              <LatitudeDegrees>38.63314214162528514862060546875</LatitudeDegrees>
              <LongitudeDegrees>-6.36904838494956493377685546875</LongitudeDegrees>
            </Position>
            <AltitudeMeters>346.20001220703125</AltitudeMeters>
            <DistanceMeters>NAN</DistanceMeters>
          </Trackpoint>
          <Trackpoint>
            <Time>2019-10-09T12:00:45.000Z</Time>
            <Position>
              <LatitudeDegrees>38.63292329013347625732421875</LatitudeDegrees>
              <LongitudeDegrees>-6.36896473355591297149658203125</LongitudeDegrees>
            </Position>
            <AltitudeMeters>346.600006103515625</AltitudeMeters>
            <DistanceMeters>NAN</DistanceMeters>
          </Trackpoint>
          <Trackpoint>
            <Time>2019-10-09T12:00:47.000Z</Time>
            <Position>
              <LatitudeDegrees>38.632813990116119384765625</LatitudeDegrees>
              <LongitudeDegrees>-6.3689242489635944366455078125</LongitudeDegrees>
            </Position>
            <AltitudeMeters>347</AltitudeMeters>
            <DistanceMeters>NAN</DistanceMeters>
          </Trackpoint>
          <Trackpoint>
            <Time>2019-10-09T12:00:49.000Z</Time>
            <Position>
              <LatitudeDegrees>38.63270628266036510467529296875</LatitudeDegrees>
              <LongitudeDegrees>-6.3688779808580875396728515625</LongitudeDegrees>
            </Position>
            <AltitudeMeters>347.20001220703125</AltitudeMeters>
            <DistanceMeters>NAN</DistanceMeters>
          </Trackpoint>
          <Trackpoint>
            <Time>2019-10-09T12:00:55.000Z</Time>
            <Position>
              <LatitudeDegrees>38.6323806457221508026123046875</LatitudeDegrees>
              <LongitudeDegrees>-6.36873557232320308685302734375</LongitudeDegrees>
            </Position>
            <AltitudeMeters>347.600006103515625</AltitudeMeters>
            <DistanceMeters>NAN</DistanceMeters>
          </Trackpoint>
          <Trackpoint>
            <Time>2019-10-09T12:00:56.000Z</Time>
            <Position>
              <LatitudeDegrees>38.6323253251612186431884765625</LatitudeDegrees>
              <LongitudeDegrees>-6.36871864087879657745361328125</LongitudeDegrees>
            </Position>
            <AltitudeMeters>347.79998779296875</AltitudeMeters>
            <DistanceMeters>NAN</DistanceMeters>
          </Trackpoint>
          <Trackpoint>
            <Time>2019-10-09T12:01:05.000Z</Time>
            <Position>
              <LatitudeDegrees>38.631822578608989715576171875</LatitudeDegrees>
              <LongitudeDegrees>-6.36853516101837158203125</LongitudeDegrees>
            </Position>
            <AltitudeMeters>348.20001220703125</AltitudeMeters>
            <DistanceMeters>NAN</DistanceMeters>
          </Trackpoint>
          <Trackpoint>
            <Time>2019-10-09T12:01:08.000Z</Time>
            <Position>
              <LatitudeDegrees>38.6316539347171783447265625</LatitudeDegrees>
              <LongitudeDegrees>-6.368477158248424530029296875</LongitudeDegrees>
            </Position>
            <AltitudeMeters>348</AltitudeMeters>
            <DistanceMeters>NAN</DistanceMeters>
          </Trackpoint>
          <Trackpoint>
            <Time>2019-10-09T12:01:17.000Z</Time>
            <Position>
              <LatitudeDegrees>38.63112025894224643707275390625</LatitudeDegrees>
              <LongitudeDegrees>-6.36826836504042148590087890625</LongitudeDegrees>
            </Position>
            <AltitudeMeters>347.399993896484375</AltitudeMeters>
            <DistanceMeters>NAN</DistanceMeters>
          </Trackpoint>
          <Trackpoint>
            <Time>2019-10-09T12:01:20.000Z</Time>
            <Position>
              <LatitudeDegrees>38.630938790738582611083984375</LatitudeDegrees>
              <LongitudeDegrees>-6.36819250881671905517578125</LongitudeDegrees>
            </Position>
            <AltitudeMeters>348.399993896484375</AltitudeMeters>
            <DistanceMeters>NAN</DistanceMeters>
          </Trackpoint>
          <Trackpoint>
            <Time>2019-10-09T12:01:26.000Z</Time>
            <Position>
              <LatitudeDegrees>38.6305730044841766357421875</LatitudeDegrees>
              <LongitudeDegrees>-6.3680461607873439788818359375</LongitudeDegrees>
            </Position>
            <AltitudeMeters>348</AltitudeMeters>
            <DistanceMeters>NAN</DistanceMeters>
          </Trackpoint>
          <Trackpoint>
            <Time>2019-10-09T12:01:34.000Z</Time>
            <Position>
              <LatitudeDegrees>38.63007302395999431610107421875</LatitudeDegrees>
              <LongitudeDegrees>-6.3678433187305927276611328125</LongitudeDegrees>
            </Position>
            <AltitudeMeters>347.79998779296875</AltitudeMeters>
            <DistanceMeters>NAN</DistanceMeters>
          </Trackpoint>
          <Trackpoint>
            <Time>2019-10-09T12:01:37.000Z</Time>
            <Position>
              <LatitudeDegrees>38.62987093627452850341796875</LatitudeDegrees>
              <LongitudeDegrees>-6.36776159517467021942138671875</LongitudeDegrees>
            </Position>
            <AltitudeMeters>348</AltitudeMeters>
            <DistanceMeters>NAN</DistanceMeters>
          </Trackpoint>
          <Trackpoint>
            <Time>2019-10-09T12:01:42.000Z</Time>
            <Position>
              <LatitudeDegrees>38.62950908951461315155029296875</LatitudeDegrees>
              <LongitudeDegrees>-6.36763201095163822174072265625</LongitudeDegrees>
            </Position>
            <AltitudeMeters>347.20001220703125</AltitudeMeters>
            <DistanceMeters>NAN</DistanceMeters>
          </Trackpoint>
          <Trackpoint>
            <Time>2019-10-09T12:01:44.000Z</Time>
            <Position>
              <LatitudeDegrees>38.629356287419795989990234375</LatitudeDegrees>
              <LongitudeDegrees>-6.36759730987250804901123046875</LongitudeDegrees>
            </Position>
            <AltitudeMeters>346.79998779296875</AltitudeMeters>
            <DistanceMeters>NAN</DistanceMeters>
          </Trackpoint>
          <Trackpoint>
            <Time>2019-10-09T12:01:47.000Z</Time>
            <Position>
              <LatitudeDegrees>38.6291314847767353057861328125</LatitudeDegrees>
              <LongitudeDegrees>-6.367511563003063201904296875</LongitudeDegrees>
            </Position>
            <AltitudeMeters>346</AltitudeMeters>
            <DistanceMeters>NAN</DistanceMeters>
          </Trackpoint>
          <Trackpoint>
            <Time>2019-10-09T12:01:50.000Z</Time>
            <Position>
              <LatitudeDegrees>38.62890877760946750640869140625</LatitudeDegrees>
              <LongitudeDegrees>-6.36742246337234973907470703125</LongitudeDegrees>
            </Position>
            <AltitudeMeters>346</AltitudeMeters>
            <DistanceMeters>NAN</DistanceMeters>
          </Trackpoint>
          <Trackpoint>
            <Time>2019-10-09T12:01:54.000Z</Time>
            <Position>
              <LatitudeDegrees>38.6286151595413684844970703125</LatitudeDegrees>
              <LongitudeDegrees>-6.367299668490886688232421875</LongitudeDegrees>
            </Position>
            <AltitudeMeters>344.79998779296875</AltitudeMeters>
            <DistanceMeters>NAN</DistanceMeters>
          </Trackpoint>
          <Trackpoint>
            <Time>2019-10-09T12:01:59.000Z</Time>
            <Position>
              <LatitudeDegrees>38.628251552581787109375</LatitudeDegrees>
              <LongitudeDegrees>-6.36715256609022617340087890625</LongitudeDegrees>
            </Position>
            <AltitudeMeters>344.79998779296875</AltitudeMeters>
            <DistanceMeters>NAN</DistanceMeters>
          </Trackpoint>
          <Trackpoint>
            <Time>2019-10-09T12:02:02.000Z</Time>
            <Position>
              <LatitudeDegrees>38.62803555093705654144287109375</LatitudeDegrees>
              <LongitudeDegrees>-6.36705634184181690216064453125</LongitudeDegrees>
            </Position>
            <AltitudeMeters>344.600006103515625</AltitudeMeters>
            <DistanceMeters>NAN</DistanceMeters>
          </Trackpoint>
          <Trackpoint>
            <Time>2019-10-09T12:02:04.000Z</Time>
            <Position>
              <LatitudeDegrees>38.6278881132602691650390625</LatitudeDegrees>
              <LongitudeDegrees>-6.366987191140651702880859375</LongitudeDegrees>
            </Position>
            <AltitudeMeters>344</AltitudeMeters>
            <DistanceMeters>NAN</DistanceMeters>
          </Trackpoint>
          <Trackpoint>
            <Time>2019-10-09T12:02:06.000Z</Time>
            <Position>
              <LatitudeDegrees>38.62775257788598537445068359375</LatitudeDegrees>
              <LongitudeDegrees>-6.36691938154399394989013671875</LongitudeDegrees>
            </Position>
            <AltitudeMeters>344.600006103515625</AltitudeMeters>
            <DistanceMeters>NAN</DistanceMeters>
          </Trackpoint>
          <Trackpoint>
            <Time>2019-10-09T12:02:09.000Z</Time>
            <Position>
              <LatitudeDegrees>38.6275469698011875152587890625</LatitudeDegrees>
              <LongitudeDegrees>-6.3668116740882396697998046875</LongitudeDegrees>
            </Position>
            <AltitudeMeters>344.20001220703125</AltitudeMeters>
            <DistanceMeters>NAN</DistanceMeters>
          </Trackpoint>
          <Trackpoint>
            <Time>2019-10-09T12:02:16.000Z</Time>
            <Position>
              <LatitudeDegrees>38.62705000676214694976806640625</LatitudeDegrees>
              <LongitudeDegrees>-6.36658360250294208526611328125</LongitudeDegrees>
            </Position>
            <AltitudeMeters>344</AltitudeMeters>
            <DistanceMeters>NAN</DistanceMeters>
          </Trackpoint>
          <Trackpoint>
            <Time>2019-10-09T12:02:18.000Z</Time>
            <Position>
              <LatitudeDegrees>38.62691438756883144378662109375</LatitudeDegrees>
              <LongitudeDegrees>-6.36652274988591670989990234375</LongitudeDegrees>
            </Position>
            <AltitudeMeters>343.79998779296875</AltitudeMeters>
            <DistanceMeters>NAN</DistanceMeters>
          </Trackpoint>
          <Trackpoint>
            <Time>2019-10-09T12:02:20.000Z</Time>
            <Position>
              <LatitudeDegrees>38.6267697997391223907470703125</LatitudeDegrees>
              <LongitudeDegrees>-6.3664633221924304962158203125</LongitudeDegrees>
            </Position>
            <AltitudeMeters>343.79998779296875</AltitudeMeters>
            <DistanceMeters>NAN</DistanceMeters>
          </Trackpoint>
          <Trackpoint>
            <Time>2019-10-09T12:02:28.000Z</Time>
            <Position>
              <LatitudeDegrees>38.62622640095651149749755859375</LatitudeDegrees>
              <LongitudeDegrees>-6.36624312959611415863037109375</LongitudeDegrees>
            </Position>
            <AltitudeMeters>344.20001220703125</AltitudeMeters>
            <DistanceMeters>NAN</DistanceMeters>
          </Trackpoint>
          <Trackpoint>
            <Time>2019-10-09T12:02:29.000Z</Time>
            <Position>
              <LatitudeDegrees>38.62615632824599742889404296875</LatitudeDegrees>
              <LongitudeDegrees>-6.36621580459177494049072265625</LongitudeDegrees>
            </Position>
            <AltitudeMeters>344.20001220703125</AltitudeMeters>
            <DistanceMeters>NAN</DistanceMeters>
          </Trackpoint>
          <Trackpoint>
            <Time>2019-10-09T12:02:31.000Z</Time>
            <Position>
              <LatitudeDegrees>38.62602070905268192291259765625</LatitudeDegrees>
              <LongitudeDegrees>-6.36616199277341365814208984375</LongitudeDegrees>
            </Position>
            <AltitudeMeters>345</AltitudeMeters>
            <DistanceMeters>NAN</DistanceMeters>
          </Trackpoint>
          <Trackpoint>
            <Time>2019-10-09T12:02:39.000Z</Time>
            <Position>
              <LatitudeDegrees>38.62548477016389369964599609375</LatitudeDegrees>
              <LongitudeDegrees>-6.36594557203352451324462890625</LongitudeDegrees>
            </Position>
            <AltitudeMeters>345</AltitudeMeters>
            <DistanceMeters>NAN</DistanceMeters>
          </Trackpoint>
          <Trackpoint>
            <Time>2019-10-09T12:02:43.000Z</Time>
            <Position>
              <LatitudeDegrees>38.62522509880363941192626953125</LatitudeDegrees>
              <LongitudeDegrees>-6.3658387027680873870849609375</LongitudeDegrees>
            </Position>
            <AltitudeMeters>344.79998779296875</AltitudeMeters>
            <DistanceMeters>NAN</DistanceMeters>
          </Trackpoint>
          <Trackpoint>
            <Time>2019-10-09T12:02:49.000Z</Time>
            <Position>
              <LatitudeDegrees>38.62487188540399074554443359375</LatitudeDegrees>
              <LongitudeDegrees>-6.36570316739380359649658203125</LongitudeDegrees>
            </Position>
            <AltitudeMeters>345.79998779296875</AltitudeMeters>
            <DistanceMeters>NAN</DistanceMeters>
          </Trackpoint>
          <Trackpoint>
            <Time>2019-10-09T12:02:50.000Z</Time>
            <Position>
              <LatitudeDegrees>38.6248169839382171630859375</LatitudeDegrees>
              <LongitudeDegrees>-6.36568087153136730194091796875</LongitudeDegrees>
            </Position>
            <AltitudeMeters>346</AltitudeMeters>
            <DistanceMeters>NAN</DistanceMeters>
          </Trackpoint>
          <Trackpoint>
            <Time>2019-10-09T12:02:59.000Z</Time>
            <Position>
              <LatitudeDegrees>38.6243608407676219940185546875</LatitudeDegrees>
              <LongitudeDegrees>-6.36549931950867176055908203125</LongitudeDegrees>
            </Position>
            <AltitudeMeters>347.20001220703125</AltitudeMeters>
            <DistanceMeters>NAN</DistanceMeters>
          </Trackpoint>
          <Trackpoint>
            <Time>2019-10-09T12:03:00.000Z</Time>
            <Position>
              <LatitudeDegrees>38.6243162490427494049072265625</LatitudeDegrees>
              <LongitudeDegrees>-6.36548054404556751251220703125</LongitudeDegrees>
            </Position>
            <AltitudeMeters>347.600006103515625</AltitudeMeters>
            <DistanceMeters>NAN</DistanceMeters>
          </Trackpoint>
          <Trackpoint>
            <Time>2019-10-09T12:03:04.000Z</Time>
            <Position>
              <LatitudeDegrees>38.62413645721971988677978515625</LatitudeDegrees>
              <LongitudeDegrees>-6.36540661565959453582763671875</LongitudeDegrees>
            </Position>
            <AltitudeMeters>348.399993896484375</AltitudeMeters>
            <DistanceMeters>NAN</DistanceMeters>
          </Trackpoint>
          <Trackpoint>
            <Time>2019-10-09T12:03:06.000Z</Time>
            <Position>
              <LatitudeDegrees>38.6240440048277378082275390625</LatitudeDegrees>
              <LongitudeDegrees>-6.3653750158846378326416015625</LongitudeDegrees>
            </Position>
            <AltitudeMeters>348.79998779296875</AltitudeMeters>
            <DistanceMeters>NAN</DistanceMeters>
          </Trackpoint>
          <Trackpoint>
            <Time>2019-10-09T12:03:08.000Z</Time>
            <Position>
              <LatitudeDegrees>38.62395993433892726898193359375</LatitudeDegrees>
              <LongitudeDegrees>-6.36533888988196849822998046875</LongitudeDegrees>
            </Position>
            <AltitudeMeters>349.20001220703125</AltitudeMeters>
            <DistanceMeters>NAN</DistanceMeters>
          </Trackpoint>
          <Trackpoint>
            <Time>2019-10-09T12:03:09.000Z</Time>
            <Position>
              <LatitudeDegrees>38.6239122413098812103271484375</LatitudeDegrees>
              <LongitudeDegrees>-6.36532061733305454254150390625</LongitudeDegrees>
            </Position>
            <AltitudeMeters>349.399993896484375</AltitudeMeters>
            <DistanceMeters>NAN</DistanceMeters>
          </Trackpoint>
          <Trackpoint>
            <Time>2019-10-09T12:03:14.000Z</Time>
            <Position>
              <LatitudeDegrees>38.62369858659803867340087890625</LatitudeDegrees>
              <LongitudeDegrees>-6.36523512192070484161376953125</LongitudeDegrees>
            </Position>
            <AltitudeMeters>350.20001220703125</AltitudeMeters>
            <DistanceMeters>NAN</DistanceMeters>
          </Trackpoint>
          <Trackpoint>
            <Time>2019-10-09T12:03:15.000Z</Time>
            <Position>
              <LatitudeDegrees>38.6236530728638172149658203125</LatitudeDegrees>
              <LongitudeDegrees>-6.36521383188664913177490234375</LongitudeDegrees>
            </Position>
            <AltitudeMeters>350.600006103515625</AltitudeMeters>
            <DistanceMeters>NAN</DistanceMeters>
          </Trackpoint>
          <Trackpoint>
            <Time>2019-10-09T12:03:19.000Z</Time>
            <Position>
              <LatitudeDegrees>38.6234800703823566436767578125</LatitudeDegrees>
              <LongitudeDegrees>-6.3651483692228794097900390625</LongitudeDegrees>
            </Position>
            <AltitudeMeters>351</AltitudeMeters>
            <DistanceMeters>NAN</DistanceMeters>
          </Trackpoint>
          <Trackpoint>
            <Time>2019-10-09T12:03:22.000Z</Time>
            <Position>
              <LatitudeDegrees>38.62335157580673694610595703125</LatitudeDegrees>
              <LongitudeDegrees>-6.36509950272738933563232421875</LongitudeDegrees>
            </Position>
            <AltitudeMeters>351.600006103515625</AltitudeMeters>
            <DistanceMeters>NAN</DistanceMeters>
          </Trackpoint>
          <Trackpoint>
            <Time>2019-10-09T12:03:26.000Z</Time>
            <Position>
              <LatitudeDegrees>38.62317773513495922088623046875</LatitudeDegrees>
              <LongitudeDegrees>-6.365032531321048736572265625</LongitudeDegrees>
            </Position>
            <AltitudeMeters>352</AltitudeMeters>
            <DistanceMeters>NAN</DistanceMeters>
          </Trackpoint>
          <Trackpoint>
            <Time>2019-10-09T12:03:29.000Z</Time>
            <Position>
              <LatitudeDegrees>38.6230448819696903228759765625</LatitudeDegrees>
              <LongitudeDegrees>-6.3649689964950084686279296875</LongitudeDegrees>
            </Position>
            <AltitudeMeters>352.600006103515625</AltitudeMeters>
            <DistanceMeters>NAN</DistanceMeters>
          </Trackpoint>
          <Trackpoint>
            <Time>2019-10-09T12:03:32.000Z</Time>
            <Position>
              <LatitudeDegrees>38.62290498800575733184814453125</LatitudeDegrees>
              <LongitudeDegrees>-6.36491744779050350189208984375</LongitudeDegrees>
            </Position>
            <AltitudeMeters>352.79998779296875</AltitudeMeters>
            <DistanceMeters>NAN</DistanceMeters>
          </Trackpoint>
          <Trackpoint>
            <Time>2019-10-09T12:03:38.000Z</Time>
            <Position>
              <LatitudeDegrees>38.62262452952563762664794921875</LatitudeDegrees>
              <LongitudeDegrees>-6.3648055493831634521484375</LongitudeDegrees>
            </Position>
            <AltitudeMeters>353.20001220703125</AltitudeMeters>
            <DistanceMeters>NAN</DistanceMeters>
          </Trackpoint>
          <Trackpoint>
            <Time>2019-10-09T12:03:44.000Z</Time>
            <Position>
              <LatitudeDegrees>38.62233686260879039764404296875</LatitudeDegrees>
              <LongitudeDegrees>-6.36468761600553989410400390625</LongitudeDegrees>
            </Position>
            <AltitudeMeters>353.79998779296875</AltitudeMeters>
            <DistanceMeters>NAN</DistanceMeters>
          </Trackpoint>
          <Trackpoint>
            <Time>2019-10-09T12:03:50.000Z</Time>
            <Position>
              <LatitudeDegrees>38.622042238712310791015625</LatitudeDegrees>
              <LongitudeDegrees>-6.3645676709711551666259765625</LongitudeDegrees>
            </Position>
            <AltitudeMeters>353.600006103515625</AltitudeMeters>
            <DistanceMeters>NAN</DistanceMeters>
          </Trackpoint>
          <Trackpoint>
            <Time>2019-10-09T12:04:00.000Z</Time>
            <Position>
              <LatitudeDegrees>38.62153907306492328643798828125</LatitudeDegrees>
              <LongitudeDegrees>-6.36436038650572299957275390625</LongitudeDegrees>
            </Position>
            <AltitudeMeters>353.79998779296875</AltitudeMeters>
            <DistanceMeters>NAN</DistanceMeters>
          </Trackpoint>
          <Trackpoint>
            <Time>2019-10-09T12:04:01.000Z</Time>
            <Position>
              <LatitudeDegrees>38.621487356722354888916015625</LatitudeDegrees>
              <LongitudeDegrees>-6.3643383421003818511962890625</LongitudeDegrees>
            </Position>
            <AltitudeMeters>354</AltitudeMeters>
            <DistanceMeters>NAN</DistanceMeters>
          </Trackpoint>
          <Trackpoint>
            <Time>2019-10-09T12:04:11.000Z</Time>
            <Position>
              <LatitudeDegrees>38.62097078002989292144775390625</LatitudeDegrees>
              <LongitudeDegrees>-6.36412871070206165313720703125</LongitudeDegrees>
            </Position>
            <AltitudeMeters>354.600006103515625</AltitudeMeters>
            <DistanceMeters>NAN</DistanceMeters>
          </Trackpoint>
          <Trackpoint>
            <Time>2019-10-09T12:04:12.000Z</Time>
            <Position>
              <LatitudeDegrees>38.620919398963451385498046875</LatitudeDegrees>
              <LongitudeDegrees>-6.36410591192543506622314453125</LongitudeDegrees>
            </Position>
            <AltitudeMeters>355</AltitudeMeters>
            <DistanceMeters>NAN</DistanceMeters>
          </Trackpoint>
          <Trackpoint>
            <Time>2019-10-09T12:04:19.000Z</Time>
            <Position>
              <LatitudeDegrees>38.62054749391973018646240234375</LatitudeDegrees>
              <LongitudeDegrees>-6.36395922861993312835693359375</LongitudeDegrees>
            </Position>
            <AltitudeMeters>354.600006103515625</AltitudeMeters>
            <DistanceMeters>NAN</DistanceMeters>
          </Trackpoint>
          <Trackpoint>
            <Time>2019-10-09T12:04:22.000Z</Time>
            <Position>
              <LatitudeDegrees>38.62038522027432918548583984375</LatitudeDegrees>
              <LongitudeDegrees>-6.36389016173779964447021484375</LongitudeDegrees>
            </Position>
            <AltitudeMeters>354.600006103515625</AltitudeMeters>
            <DistanceMeters>NAN</DistanceMeters>
          </Trackpoint>
          <Trackpoint>
            <Time>2019-10-09T12:04:32.000Z</Time>
            <Position>
              <LatitudeDegrees>38.6198429949581623077392578125</LatitudeDegrees>
              <LongitudeDegrees>-6.363673321902751922607421875</LongitudeDegrees>
            </Position>
            <AltitudeMeters>354.79998779296875</AltitudeMeters>
            <DistanceMeters>NAN</DistanceMeters>
          </Trackpoint>
          <Trackpoint>
            <Time>2019-10-09T12:04:39.000Z</Time>
            <Position>
              <LatitudeDegrees>38.61946421675384044647216796875</LatitudeDegrees>
              <LongitudeDegrees>-6.363516747951507568359375</LongitudeDegrees>
            </Position>
            <AltitudeMeters>355</AltitudeMeters>
            <DistanceMeters>NAN</DistanceMeters>
          </Trackpoint>
          <Trackpoint>
            <Time>2019-10-09T12:04:43.000Z</Time>
            <Position>
              <LatitudeDegrees>38.619248382747173309326171875</LatitudeDegrees>
              <LongitudeDegrees>-6.36342697776854038238525390625</LongitudeDegrees>
            </Position>
            <AltitudeMeters>354.79998779296875</AltitudeMeters>
            <DistanceMeters>NAN</DistanceMeters>
          </Trackpoint>
          <Trackpoint>
            <Time>2019-10-09T12:04:50.000Z</Time>
            <Position>
              <LatitudeDegrees>38.6188693530857563018798828125</LatitudeDegrees>
              <LongitudeDegrees>-6.36327375657856464385986328125</LongitudeDegrees>
            </Position>
            <AltitudeMeters>355.20001220703125</AltitudeMeters>
            <DistanceMeters>NAN</DistanceMeters>
          </Trackpoint>
          <Trackpoint>
            <Time>2019-10-09T12:04:52.000Z</Time>
            <Position>
              <LatitudeDegrees>38.61875896342098712921142578125</LatitudeDegrees>
              <LongitudeDegrees>-6.3632310926914215087890625</LongitudeDegrees>
            </Position>
            <AltitudeMeters>355.399993896484375</AltitudeMeters>
            <DistanceMeters>NAN</DistanceMeters>
          </Trackpoint>
          <Trackpoint>
            <Time>2019-10-09T12:05:02.000Z</Time>
            <Position>
              <LatitudeDegrees>38.61820257268846035003662109375</LatitudeDegrees>
              <LongitudeDegrees>-6.36301182210445404052734375</LongitudeDegrees>
            </Position>
            <AltitudeMeters>354.79998779296875</AltitudeMeters>
            <DistanceMeters>NAN</DistanceMeters>
          </Trackpoint>
          <Trackpoint>
            <Time>2019-10-09T12:05:11.000Z</Time>
            <Position>
              <LatitudeDegrees>38.6176992394030094146728515625</LatitudeDegrees>
              <LongitudeDegrees>-6.36283119209110736846923828125</LongitudeDegrees>
            </Position>
            <AltitudeMeters>354.600006103515625</AltitudeMeters>
            <DistanceMeters>NAN</DistanceMeters>
          </Trackpoint>
          <Trackpoint>
            <Time>2019-10-09T12:05:20.000Z</Time>
            <Position>
              <LatitudeDegrees>38.6171869374811649322509765625</LatitudeDegrees>
              <LongitudeDegrees>-6.36269222013652324676513671875</LongitudeDegrees>
            </Position>
            <AltitudeMeters>354.600006103515625</AltitudeMeters>
            <DistanceMeters>NAN</DistanceMeters>
          </Trackpoint>
          <Trackpoint>
            <Time>2019-10-09T12:05:22.000Z</Time>
            <Position>
              <LatitudeDegrees>38.617074787616729736328125</LatitudeDegrees>
              <LongitudeDegrees>-6.36266657151281833648681640625</LongitudeDegrees>
            </Position>
            <AltitudeMeters>354.79998779296875</AltitudeMeters>
            <DistanceMeters>NAN</DistanceMeters>
          </Trackpoint>
          <Trackpoint>
            <Time>2019-10-09T12:05:31.000Z</Time>
            <Position>
              <LatitudeDegrees>38.61655913293361663818359375</LatitudeDegrees>
              <LongitudeDegrees>-6.3625811599195003509521484375</LongitudeDegrees>
            </Position>
            <AltitudeMeters>354.79998779296875</AltitudeMeters>
            <DistanceMeters>NAN</DistanceMeters>
          </Trackpoint>
          <Trackpoint>
            <Time>2019-10-09T12:05:32.000Z</Time>
            <Position>
              <LatitudeDegrees>38.61650087870657444000244140625</LatitudeDegrees>
              <LongitudeDegrees>-6.362571604549884796142578125</LongitudeDegrees>
            </Position>
            <AltitudeMeters>354.79998779296875</AltitudeMeters>
            <DistanceMeters>NAN</DistanceMeters>
          </Trackpoint>
          <Trackpoint>
            <Time>2019-10-09T12:05:42.000Z</Time>
            <Position>
              <LatitudeDegrees>38.61593610607087612152099609375</LatitudeDegrees>
              <LongitudeDegrees>-6.362487785518169403076171875</LongitudeDegrees>
            </Position>
            <AltitudeMeters>355.600006103515625</AltitudeMeters>
            <DistanceMeters>NAN</DistanceMeters>
          </Trackpoint>
          <Trackpoint>
            <Time>2019-10-09T12:05:43.000Z</Time>
            <Position>
              <LatitudeDegrees>38.6158812046051025390625</LatitudeDegrees>
              <LongitudeDegrees>-6.3624778948724269866943359375</LongitudeDegrees>
            </Position>
            <AltitudeMeters>355.600006103515625</AltitudeMeters>
            <DistanceMeters>NAN</DistanceMeters>
          </Trackpoint>
          <Trackpoint>
            <Time>2019-10-09T12:05:45.000Z</Time>
            <Position>
              <LatitudeDegrees>38.615768887102603912353515625</LatitudeDegrees>
              <LongitudeDegrees>-6.3624586164951324462890625</LongitudeDegrees>
            </Position>
            <AltitudeMeters>356.20001220703125</AltitudeMeters>
            <DistanceMeters>NAN</DistanceMeters>
          </Trackpoint>
          <Trackpoint>
            <Time>2019-10-09T12:05:54.000Z</Time>
            <Position>
              <LatitudeDegrees>38.6152708344161510467529296875</LatitudeDegrees>
              <LongitudeDegrees>-6.3624071516096591949462890625</LongitudeDegrees>
            </Position>
            <AltitudeMeters>356.79998779296875</AltitudeMeters>
            <DistanceMeters>NAN</DistanceMeters>
          </Trackpoint>
          <Trackpoint>
            <Time>2019-10-09T12:05:55.000Z</Time>
            <Position>
              <LatitudeDegrees>38.61521358601748943328857421875</LatitudeDegrees>
              <LongitudeDegrees>-6.362401954829692840576171875</LongitudeDegrees>
            </Position>
            <AltitudeMeters>357</AltitudeMeters>
            <DistanceMeters>NAN</DistanceMeters>
          </Trackpoint>
          <Trackpoint>
            <Time>2019-10-09T12:05:57.000Z</Time>
            <Position>
              <LatitudeDegrees>38.61510663293302059173583984375</LatitudeDegrees>
              <LongitudeDegrees>-6.3623923994600772857666015625</LongitudeDegrees>
            </Position>
            <AltitudeMeters>357.600006103515625</AltitudeMeters>
            <DistanceMeters>NAN</DistanceMeters>
          </Trackpoint>
          <Trackpoint>
            <Time>2019-10-09T12:06:04.000Z</Time>
            <Position>
              <LatitudeDegrees>38.61472391523420810699462890625</LatitudeDegrees>
              <LongitudeDegrees>-6.36238326318562030792236328125</LongitudeDegrees>
            </Position>
            <AltitudeMeters>358</AltitudeMeters>
            <DistanceMeters>NAN</DistanceMeters>
          </Trackpoint>
          <Trackpoint>
            <Time>2019-10-09T12:06:05.000Z</Time>
            <Position>
              <LatitudeDegrees>38.61467027105391025543212890625</LatitudeDegrees>
              <LongitudeDegrees>-6.36238276027143001556396484375</LongitudeDegrees>
            </Position>
            <AltitudeMeters>358.20001220703125</AltitudeMeters>
            <DistanceMeters>NAN</DistanceMeters>
          </Trackpoint>
          <Trackpoint>
            <Time>2019-10-09T12:06:08.000Z</Time>
            <Position>
              <LatitudeDegrees>38.614504896104335784912109375</LatitudeDegrees>
              <LongitudeDegrees>-6.36238510720431804656982421875</LongitudeDegrees>
            </Position>
            <AltitudeMeters>358.600006103515625</AltitudeMeters>
            <DistanceMeters>NAN</DistanceMeters>
          </Trackpoint>
          <Trackpoint>
            <Time>2019-10-09T12:06:16.000Z</Time>
            <Position>
              <LatitudeDegrees>38.61405671574175357818603515625</LatitudeDegrees>
              <LongitudeDegrees>-6.3623970933258533477783203125</LongitudeDegrees>
            </Position>
            <AltitudeMeters>358.79998779296875</AltitudeMeters>
            <DistanceMeters>NAN</DistanceMeters>
          </Trackpoint>
          <Trackpoint>
            <Time>2019-10-09T12:06:26.000Z</Time>
            <Position>
              <LatitudeDegrees>38.61349764280021190643310546875</LatitudeDegrees>
              <LongitudeDegrees>-6.36242953129112720489501953125</LongitudeDegrees>
            </Position>
            <AltitudeMeters>358.79998779296875</AltitudeMeters>
            <DistanceMeters>NAN</DistanceMeters>
          </Trackpoint>
          <Trackpoint>
            <Time>2019-10-09T12:06:27.000Z</Time>
            <Position>
              <LatitudeDegrees>38.6134419031441211700439453125</LatitudeDegrees>
              <LongitudeDegrees>-6.3624319620430469512939453125</LongitudeDegrees>
            </Position>
            <AltitudeMeters>358.79998779296875</AltitudeMeters>
            <DistanceMeters>NAN</DistanceMeters>
          </Trackpoint>
          <Trackpoint>
            <Time>2019-10-09T12:06:35.000Z</Time>
            <Position>
              <LatitudeDegrees>38.61298668198287487030029296875</LatitudeDegrees>
              <LongitudeDegrees>-6.3624532520771026611328125</LongitudeDegrees>
            </Position>
            <AltitudeMeters>359</AltitudeMeters>
            <DistanceMeters>NAN</DistanceMeters>
          </Trackpoint>
          <Trackpoint>
            <Time>2019-10-09T12:06:45.000Z</Time>
            <Position>
              <LatitudeDegrees>38.61242459155619144439697265625</LatitudeDegrees>
              <LongitudeDegrees>-6.3624809123575687408447265625</LongitudeDegrees>
            </Position>
            <AltitudeMeters>358.79998779296875</AltitudeMeters>
            <DistanceMeters>NAN</DistanceMeters>
          </Trackpoint>
          <Trackpoint>
            <Time>2019-10-09T12:06:48.000Z</Time>
            <Position>
              <LatitudeDegrees>38.6122543551027774810791015625</LatitudeDegrees>
              <LongitudeDegrees>-6.36249105446040630340576171875</LongitudeDegrees>
            </Position>
            <AltitudeMeters>359.79998779296875</AltitudeMeters>
            <DistanceMeters>NAN</DistanceMeters>
          </Trackpoint>
          <Trackpoint>
            <Time>2019-10-09T12:06:57.000Z</Time>
            <Position>
              <LatitudeDegrees>38.61174951307475566864013671875</LatitudeDegrees>
              <LongitudeDegrees>-6.36252843774855136871337890625</LongitudeDegrees>
            </Position>
            <AltitudeMeters>360</AltitudeMeters>
            <DistanceMeters>NAN</DistanceMeters>
          </Trackpoint>
          <Trackpoint>
            <Time>2019-10-09T12:07:07.000Z</Time>
            <Position>
              <LatitudeDegrees>38.61119203269481658935546875</LatitudeDegrees>
              <LongitudeDegrees>-6.362552158534526824951171875</LongitudeDegrees>
            </Position>
            <AltitudeMeters>360.399993896484375</AltitudeMeters>
            <DistanceMeters>NAN</DistanceMeters>
          </Trackpoint>
          <Trackpoint>
            <Time>2019-10-09T12:07:08.000Z</Time>
            <Position>
              <LatitudeDegrees>38.61113562248647212982177734375</LatitudeDegrees>
              <LongitudeDegrees>-6.36255542747676372528076171875</LongitudeDegrees>
            </Position>
            <AltitudeMeters>360.20001220703125</AltitudeMeters>
            <DistanceMeters>NAN</DistanceMeters>
          </Trackpoint>
          <Trackpoint>
            <Time>2019-10-09T12:07:18.000Z</Time>
            <Position>
              <LatitudeDegrees>38.6105628870427608489990234375</LatitudeDegrees>
              <LongitudeDegrees>-6.36256984435021877288818359375</LongitudeDegrees>
            </Position>
            <AltitudeMeters>360.600006103515625</AltitudeMeters>
            <DistanceMeters>NAN</DistanceMeters>
          </Trackpoint>
          <Trackpoint>
            <Time>2019-10-09T12:07:21.000Z</Time>
            <Position>
              <LatitudeDegrees>38.61039047129452228546142578125</LatitudeDegrees>
              <LongitudeDegrees>-6.36257872916758060455322265625</LongitudeDegrees>
            </Position>
            <AltitudeMeters>360.600006103515625</AltitudeMeters>
            <DistanceMeters>NAN</DistanceMeters>
          </Trackpoint>
          <Trackpoint>
            <Time>2019-10-09T12:07:26.000Z</Time>
            <Position>
              <LatitudeDegrees>38.61010213382542133331298828125</LatitudeDegrees>
              <LongitudeDegrees>-6.36259079910814762115478515625</LongitudeDegrees>
            </Position>
            <AltitudeMeters>360.79998779296875</AltitudeMeters>
            <DistanceMeters>NAN</DistanceMeters>
          </Trackpoint>
          <Trackpoint>
            <Time>2019-10-09T12:07:30.000Z</Time>
            <Position>
              <LatitudeDegrees>38.60987230204045772552490234375</LatitudeDegrees>
              <LongitudeDegrees>-6.36261192150413990020751953125</LongitudeDegrees>
            </Position>
            <AltitudeMeters>361.399993896484375</AltitudeMeters>
            <DistanceMeters>NAN</DistanceMeters>
          </Trackpoint>
          <Trackpoint>
            <Time>2019-10-09T12:07:31.000Z</Time>
            <Position>
              <LatitudeDegrees>38.60981463454663753509521484375</LatitudeDegrees>
              <LongitudeDegrees>-6.3626329600811004638671875</LongitudeDegrees>
            </Position>
            <AltitudeMeters>361.399993896484375</AltitudeMeters>
            <DistanceMeters>NAN</DistanceMeters>
          </Trackpoint>
          <Trackpoint>
            <Time>2019-10-09T12:07:34.000Z</Time>
            <Position>
              <LatitudeDegrees>38.60963442362844944000244140625</LatitudeDegrees>
              <LongitudeDegrees>-6.3626700080931186676025390625</LongitudeDegrees>
            </Position>
            <AltitudeMeters>361</AltitudeMeters>
            <DistanceMeters>NAN</DistanceMeters>
          </Trackpoint>
          <Trackpoint>
            <Time>2019-10-09T12:07:35.000Z</Time>
            <Position>
              <LatitudeDegrees>38.60957038588821887969970703125</LatitudeDegrees>
              <LongitudeDegrees>-6.36267294175922870635986328125</LongitudeDegrees>
            </Position>
            <AltitudeMeters>361.399993896484375</AltitudeMeters>
            <DistanceMeters>NAN</DistanceMeters>
          </Trackpoint>
          <Trackpoint>
            <Time>2019-10-09T12:07:42.000Z</Time>
            <Position>
              <LatitudeDegrees>38.60911323688924312591552734375</LatitudeDegrees>
              <LongitudeDegrees>-6.3626941479742527008056640625</LongitudeDegrees>
            </Position>
            <AltitudeMeters>361.20001220703125</AltitudeMeters>
            <DistanceMeters>NAN</DistanceMeters>
          </Trackpoint>
          <Trackpoint>
            <Time>2019-10-09T12:07:43.000Z</Time>
            <Position>
              <LatitudeDegrees>38.60904802568256855010986328125</LatitudeDegrees>
              <LongitudeDegrees>-6.36269775219261646270751953125</LongitudeDegrees>
            </Position>
            <AltitudeMeters>361.20001220703125</AltitudeMeters>
            <DistanceMeters>NAN</DistanceMeters>
          </Trackpoint>
          <Trackpoint>
            <Time>2019-10-09T12:07:50.000Z</Time>
            <Position>
              <LatitudeDegrees>38.6086011864244937896728515625</LatitudeDegrees>
              <LongitudeDegrees>-6.36271401308476924896240234375</LongitudeDegrees>
            </Position>
            <AltitudeMeters>362</AltitudeMeters>
            <DistanceMeters>NAN</DistanceMeters>
          </Trackpoint>
          <Trackpoint>
            <Time>2019-10-09T12:07:51.000Z</Time>
            <Position>
              <LatitudeDegrees>38.608536310493946075439453125</LatitudeDegrees>
              <LongitudeDegrees>-6.36271803639829158782958984375</LongitudeDegrees>
            </Position>
            <AltitudeMeters>362</AltitudeMeters>
            <DistanceMeters>NAN</DistanceMeters>
          </Trackpoint>
          <Trackpoint>
            <Time>2019-10-09T12:07:57.000Z</Time>
            <Position>
              <LatitudeDegrees>38.60815669409930706024169921875</LatitudeDegrees>
              <LongitudeDegrees>-6.36271803639829158782958984375</LongitudeDegrees>
            </Position>
            <AltitudeMeters>362.600006103515625</AltitudeMeters>
            <DistanceMeters>NAN</DistanceMeters>
          </Trackpoint>
          <Trackpoint>
            <Time>2019-10-09T12:08:00.000Z</Time>
            <Position>
              <LatitudeDegrees>38.607971034944057464599609375</LatitudeDegrees>
              <LongitudeDegrees>-6.3627179525792598724365234375</LongitudeDegrees>
            </Position>
            <AltitudeMeters>362.399993896484375</AltitudeMeters>
            <DistanceMeters>NAN</DistanceMeters>
          </Trackpoint>
          <Trackpoint>
            <Time>2019-10-09T12:08:09.000Z</Time>
            <Position>
              <LatitudeDegrees>38.60739880241453647613525390625</LatitudeDegrees>
              <LongitudeDegrees>-6.36270747520029544830322265625</LongitudeDegrees>
            </Position>
            <AltitudeMeters>362.79998779296875</AltitudeMeters>
            <DistanceMeters>NAN</DistanceMeters>
          </Trackpoint>
          <Trackpoint>
            <Time>2019-10-09T12:08:10.000Z</Time>
            <Position>
              <LatitudeDegrees>38.6073325015604496002197265625</LatitudeDegrees>
              <LongitudeDegrees>-6.362706385552883148193359375</LongitudeDegrees>
            </Position>
            <AltitudeMeters>362.79998779296875</AltitudeMeters>
            <DistanceMeters>NAN</DistanceMeters>
          </Trackpoint>
          <Trackpoint>
            <Time>2019-10-09T12:08:18.000Z</Time>
            <Position>
              <LatitudeDegrees>38.60679865814745426177978515625</LatitudeDegrees>
              <LongitudeDegrees>-6.36271099559962749481201171875</LongitudeDegrees>
            </Position>
            <AltitudeMeters>362.399993896484375</AltitudeMeters>
            <DistanceMeters>NAN</DistanceMeters>
          </Trackpoint>
          <Trackpoint>
            <Time>2019-10-09T12:08:21.000Z</Time>
            <Position>
              <LatitudeDegrees>38.6065958999097347259521484375</LatitudeDegrees>
              <LongitudeDegrees>-6.3627196289598941802978515625</LongitudeDegrees>
            </Position>
            <AltitudeMeters>362.600006103515625</AltitudeMeters>
            <DistanceMeters>NAN</DistanceMeters>
          </Trackpoint>
          <Trackpoint>
            <Time>2019-10-09T12:08:27.000Z</Time>
            <Position>
              <LatitudeDegrees>38.60619482584297657012939453125</LatitudeDegrees>
              <LongitudeDegrees>-6.3627384044229984283447265625</LongitudeDegrees>
            </Position>
            <AltitudeMeters>362.79998779296875</AltitudeMeters>
            <DistanceMeters>NAN</DistanceMeters>
          </Trackpoint>
          <Trackpoint>
            <Time>2019-10-09T12:08:31.000Z</Time>
            <Position>
              <LatitudeDegrees>38.60593180172145366668701171875</LatitudeDegrees>
              <LongitudeDegrees>-6.36274351738393306732177734375</LongitudeDegrees>
            </Position>
            <AltitudeMeters>362.79998779296875</AltitudeMeters>
            <DistanceMeters>NAN</DistanceMeters>
          </Trackpoint>
          <Trackpoint>
            <Time>2019-10-09T12:08:33.000Z</Time>
            <Position>
              <LatitudeDegrees>38.6058012954890727996826171875</LatitudeDegrees>
              <LongitudeDegrees>-6.362747959792613983154296875</LongitudeDegrees>
            </Position>
            <AltitudeMeters>363</AltitudeMeters>
            <DistanceMeters>NAN</DistanceMeters>
          </Trackpoint>
          <Trackpoint>
            <Time>2019-10-09T12:08:42.000Z</Time>
            <Position>
              <LatitudeDegrees>38.6052256263792514801025390625</LatitudeDegrees>
              <LongitudeDegrees>-6.36277134530246257781982421875</LongitudeDegrees>
            </Position>
            <AltitudeMeters>363</AltitudeMeters>
            <DistanceMeters>NAN</DistanceMeters>
          </Trackpoint>
          <Trackpoint>
            <Time>2019-10-09T12:08:51.000Z</Time>
            <Position>
              <LatitudeDegrees>38.6046613566577434539794921875</LatitudeDegrees>
              <LongitudeDegrees>-6.362792886793613433837890625</LongitudeDegrees>
            </Position>
            <AltitudeMeters>363.79998779296875</AltitudeMeters>
            <DistanceMeters>NAN</DistanceMeters>
          </Trackpoint>
          <Trackpoint>
            <Time>2019-10-09T12:08:54.000Z</Time>
            <Position>
              <LatitudeDegrees>38.6044749431312084197998046875</LatitudeDegrees>
              <LongitudeDegrees>-6.36280152015388011932373046875</LongitudeDegrees>
            </Position>
            <AltitudeMeters>364.20001220703125</AltitudeMeters>
            <DistanceMeters>NAN</DistanceMeters>
          </Trackpoint>
          <Trackpoint>
            <Time>2019-10-09T12:08:59.000Z</Time>
            <Position>
              <LatitudeDegrees>38.6041805706918239593505859375</LatitudeDegrees>
              <LongitudeDegrees>-6.3628114946186542510986328125</LongitudeDegrees>
            </Position>
            <AltitudeMeters>365</AltitudeMeters>
            <DistanceMeters>NAN</DistanceMeters>
          </Trackpoint>
          <Trackpoint>
            <Time>2019-10-09T12:09:01.000Z</Time>
            <Position>
              <LatitudeDegrees>38.60406649298965930938720703125</LatitudeDegrees>
              <LongitudeDegrees>-6.3628145121037960052490234375</LongitudeDegrees>
            </Position>
            <AltitudeMeters>365.399993896484375</AltitudeMeters>
            <DistanceMeters>NAN</DistanceMeters>
          </Trackpoint>
          <Trackpoint>
            <Time>2019-10-09T12:09:11.000Z</Time>
            <Position>
              <LatitudeDegrees>38.60350825823843479156494140625</LatitudeDegrees>
              <LongitudeDegrees>-6.3628403283655643463134765625</LongitudeDegrees>
            </Position>
            <AltitudeMeters>366</AltitudeMeters>
            <DistanceMeters>NAN</DistanceMeters>
          </Trackpoint>
          <Trackpoint>
            <Time>2019-10-09T12:09:16.000Z</Time>
            <Position>
              <LatitudeDegrees>38.6032381094992160797119140625</LatitudeDegrees>
              <LongitudeDegrees>-6.3628497160971164703369140625</LongitudeDegrees>
            </Position>
            <AltitudeMeters>366.600006103515625</AltitudeMeters>
            <DistanceMeters>NAN</DistanceMeters>
          </Trackpoint>
          <Trackpoint>
            <Time>2019-10-09T12:09:18.000Z</Time>
            <Position>
              <LatitudeDegrees>38.60312771983444690704345703125</LatitudeDegrees>
              <LongitudeDegrees>-6.36285197921097278594970703125</LongitudeDegrees>
            </Position>
            <AltitudeMeters>367</AltitudeMeters>
            <DistanceMeters>NAN</DistanceMeters>
          </Trackpoint>
          <Trackpoint>
            <Time>2019-10-09T12:09:24.000Z</Time>
            <Position>
              <LatitudeDegrees>38.602791689336299896240234375</LatitudeDegrees>
              <LongitudeDegrees>-6.36285801418125629425048828125</LongitudeDegrees>
            </Position>
            <AltitudeMeters>367.399993896484375</AltitudeMeters>
            <DistanceMeters>NAN</DistanceMeters>
          </Trackpoint>
          <Trackpoint>
            <Time>2019-10-09T12:09:27.000Z</Time>
            <Position>
              <LatitudeDegrees>38.60262480564415454864501953125</LatitudeDegrees>
              <LongitudeDegrees>-6.36286807246506214141845703125</LongitudeDegrees>
            </Position>
            <AltitudeMeters>367.79998779296875</AltitudeMeters>
            <DistanceMeters>NAN</DistanceMeters>
          </Trackpoint>
          <Trackpoint>
            <Time>2019-10-09T12:09:36.000Z</Time>
            <Position>
              <LatitudeDegrees>38.60213077627122402191162109375</LatitudeDegrees>
              <LongitudeDegrees>-6.3628503866493701934814453125</LongitudeDegrees>
            </Position>
            <AltitudeMeters>368.20001220703125</AltitudeMeters>
            <DistanceMeters>NAN</DistanceMeters>
          </Trackpoint>
          <Trackpoint>
            <Time>2019-10-09T12:09:46.000Z</Time>
            <Position>
              <LatitudeDegrees>38.6015818454325199127197265625</LatitudeDegrees>
              <LongitudeDegrees>-6.3627885282039642333984375</LongitudeDegrees>
            </Position>
            <AltitudeMeters>368.600006103515625</AltitudeMeters>
            <DistanceMeters>NAN</DistanceMeters>
          </Trackpoint>
          <Trackpoint>
            <Time>2019-10-09T12:09:47.000Z</Time>
            <Position>
              <LatitudeDegrees>38.60152593813836574554443359375</LatitudeDegrees>
              <LongitudeDegrees>-6.362781822681427001953125</LongitudeDegrees>
            </Position>
            <AltitudeMeters>368.399993896484375</AltitudeMeters>
            <DistanceMeters>NAN</DistanceMeters>
          </Trackpoint>
          <Trackpoint>
            <Time>2019-10-09T12:09:51.000Z</Time>
            <Position>
              <LatitudeDegrees>38.60130197368562221527099609375</LatitudeDegrees>
              <LongitudeDegrees>-6.36275290511548519134521484375</LongitudeDegrees>
            </Position>
            <AltitudeMeters>368.79998779296875</AltitudeMeters>
            <DistanceMeters>NAN</DistanceMeters>
          </Trackpoint>
          <Trackpoint>
            <Time>2019-10-09T12:09:59.000Z</Time>
            <Position>
              <LatitudeDegrees>38.6008539609611034393310546875</LatitudeDegrees>
              <LongitudeDegrees>-6.3626918010413646697998046875</LongitudeDegrees>
            </Position>
            <AltitudeMeters>368.600006103515625</AltitudeMeters>
            <DistanceMeters>NAN</DistanceMeters>
          </Trackpoint>
          <Trackpoint>
            <Time>2019-10-09T12:10:02.000Z</Time>
            <Position>
              <LatitudeDegrees>38.60068640671670436859130859375</LatitudeDegrees>
              <LongitudeDegrees>-6.36266715824604034423828125</LongitudeDegrees>
            </Position>
            <AltitudeMeters>368.79998779296875</AltitudeMeters>
            <DistanceMeters>NAN</DistanceMeters>
          </Trackpoint>
          <Trackpoint>
            <Time>2019-10-09T12:10:12.000Z</Time>
            <Position>
              <LatitudeDegrees>38.6001272499561309814453125</LatitudeDegrees>
              <LongitudeDegrees>-6.3625483028590679168701171875</LongitudeDegrees>
            </Position>
            <AltitudeMeters>369.399993896484375</AltitudeMeters>
            <DistanceMeters>NAN</DistanceMeters>
          </Trackpoint>
          <Trackpoint>
            <Time>2019-10-09T12:10:13.000Z</Time>
            <Position>
              <LatitudeDegrees>38.60007167793810367584228515625</LatitudeDegrees>
              <LongitudeDegrees>-6.36253036558628082275390625</LongitudeDegrees>
            </Position>
            <AltitudeMeters>369.399993896484375</AltitudeMeters>
            <DistanceMeters>NAN</DistanceMeters>
          </Trackpoint>
          <Trackpoint>
            <Time>2019-10-09T12:10:21.000Z</Time>
            <Position>
              <LatitudeDegrees>38.5996238328516483306884765625</LatitudeDegrees>
              <LongitudeDegrees>-6.36236649937927722930908203125</LongitudeDegrees>
            </Position>
            <AltitudeMeters>370</AltitudeMeters>
            <DistanceMeters>NAN</DistanceMeters>
          </Trackpoint>
          <Trackpoint>
            <Time>2019-10-09T12:10:23.000Z</Time>
            <Position>
              <LatitudeDegrees>38.59950791113078594207763671875</LatitudeDegrees>
              <LongitudeDegrees>-6.36231872253119945526123046875</LongitudeDegrees>
            </Position>
            <AltitudeMeters>369.79998779296875</AltitudeMeters>
            <DistanceMeters>NAN</DistanceMeters>
          </Trackpoint>
          <Trackpoint>
            <Time>2019-10-09T12:10:32.000Z</Time>
            <Position>
              <LatitudeDegrees>38.59896107576787471771240234375</LatitudeDegrees>
              <LongitudeDegrees>-6.36209241114556789398193359375</LongitudeDegrees>
            </Position>
            <AltitudeMeters>369.79998779296875</AltitudeMeters>
            <DistanceMeters>NAN</DistanceMeters>
          </Trackpoint>
          <Trackpoint>
            <Time>2019-10-09T12:10:33.000Z</Time>
            <Position>
              <LatitudeDegrees>38.59889904968440532684326171875</LatitudeDegrees>
              <LongitudeDegrees>-6.36206659488379955291748046875</LongitudeDegrees>
            </Position>
            <AltitudeMeters>370</AltitudeMeters>
            <DistanceMeters>NAN</DistanceMeters>
          </Trackpoint>
          <Trackpoint>
            <Time>2019-10-09T12:10:42.000Z</Time>
            <Position>
              <LatitudeDegrees>38.5983434133231639862060546875</LatitudeDegrees>
              <LongitudeDegrees>-6.36183273978531360626220703125</LongitudeDegrees>
            </Position>
            <AltitudeMeters>370.399993896484375</AltitudeMeters>
            <DistanceMeters>NAN</DistanceMeters>
          </Trackpoint>
          <Trackpoint>
            <Time>2019-10-09T12:10:44.000Z</Time>
            <Position>
              <LatitudeDegrees>38.59822028316557407379150390625</LatitudeDegrees>
              <LongitudeDegrees>-6.36178202927112579345703125</LongitudeDegrees>
            </Position>
            <AltitudeMeters>370.20001220703125</AltitudeMeters>
            <DistanceMeters>NAN</DistanceMeters>
          </Trackpoint>
          <Trackpoint>
            <Time>2019-10-09T12:10:53.000Z</Time>
            <Position>
              <LatitudeDegrees>38.5976705141365528106689453125</LatitudeDegrees>
              <LongitudeDegrees>-6.36155412532389163970947265625</LongitudeDegrees>
            </Position>
            <AltitudeMeters>370.79998779296875</AltitudeMeters>
            <DistanceMeters>NAN</DistanceMeters>
          </Trackpoint>
          <Trackpoint>
            <Time>2019-10-09T12:10:54.000Z</Time>
            <Position>
              <LatitudeDegrees>38.59760857187211513519287109375</LatitudeDegrees>
              <LongitudeDegrees>-6.361528895795345306396484375</LongitudeDegrees>
            </Position>
            <AltitudeMeters>370.600006103515625</AltitudeMeters>
            <DistanceMeters>NAN</DistanceMeters>
          </Trackpoint>
          <Trackpoint>
            <Time>2019-10-09T12:10:56.000Z</Time>
            <Position>
              <LatitudeDegrees>38.59748552553355693817138671875</LatitudeDegrees>
              <LongitudeDegrees>-6.3614797778427600860595703125</LongitudeDegrees>
            </Position>
            <AltitudeMeters>371.20001220703125</AltitudeMeters>
            <DistanceMeters>NAN</DistanceMeters>
          </Trackpoint>
          <Trackpoint>
            <Time>2019-10-09T12:11:04.000Z</Time>
            <Position>
              <LatitudeDegrees>38.59698311425745487213134765625</LatitudeDegrees>
              <LongitudeDegrees>-6.3612722419202327728271484375</LongitudeDegrees>
            </Position>
            <AltitudeMeters>371.399993896484375</AltitudeMeters>
            <DistanceMeters>NAN</DistanceMeters>
          </Trackpoint>
          <Trackpoint>
            <Time>2019-10-09T12:11:05.000Z</Time>
            <Position>
              <LatitudeDegrees>38.59691798686981201171875</LatitudeDegrees>
              <LongitudeDegrees>-6.36124617420136928558349609375</LongitudeDegrees>
            </Position>
            <AltitudeMeters>371.20001220703125</AltitudeMeters>
            <DistanceMeters>NAN</DistanceMeters>
          </Trackpoint>
          <Trackpoint>
            <Time>2019-10-09T12:11:13.000Z</Time>
            <Position>
              <LatitudeDegrees>38.5963957943022251129150390625</LatitudeDegrees>
              <LongitudeDegrees>-6.3610241375863552093505859375</LongitudeDegrees>
            </Position>
            <AltitudeMeters>371.20001220703125</AltitudeMeters>
            <DistanceMeters>NAN</DistanceMeters>
          </Trackpoint>
          <Trackpoint>
            <Time>2019-10-09T12:11:16.000Z</Time>
            <Position>
              <LatitudeDegrees>38.596194796264171600341796875</LatitudeDegrees>
              <LongitudeDegrees>-6.3609458506107330322265625</LongitudeDegrees>
            </Position>
            <AltitudeMeters>370.600006103515625</AltitudeMeters>
            <DistanceMeters>NAN</DistanceMeters>
          </Trackpoint>
          <Trackpoint>
            <Time>2019-10-09T12:11:17.000Z</Time>
            <Position>
              <LatitudeDegrees>38.596129752695560455322265625</LatitudeDegrees>
              <LongitudeDegrees>-6.3609198667109012603759765625</LongitudeDegrees>
            </Position>
            <AltitudeMeters>370.20001220703125</AltitudeMeters>
            <DistanceMeters>NAN</DistanceMeters>
          </Trackpoint>
          <Trackpoint>
            <Time>2019-10-09T12:11:22.000Z</Time>
            <Position>
              <LatitudeDegrees>38.595805205404758453369140625</LatitudeDegrees>
              <LongitudeDegrees>-6.36078617535531520843505859375</LongitudeDegrees>
            </Position>
            <AltitudeMeters>370.399993896484375</AltitudeMeters>
            <DistanceMeters>NAN</DistanceMeters>
          </Trackpoint>
          <Trackpoint>
            <Time>2019-10-09T12:11:25.000Z</Time>
            <Position>
              <LatitudeDegrees>38.59561451710760593414306640625</LatitudeDegrees>
              <LongitudeDegrees>-6.3607029430568218231201171875</LongitudeDegrees>
            </Position>
            <AltitudeMeters>370.600006103515625</AltitudeMeters>
            <DistanceMeters>NAN</DistanceMeters>
          </Trackpoint>
          <Trackpoint>
            <Time>2019-10-09T12:11:34.000Z</Time>
            <Position>
              <LatitudeDegrees>38.59506516717374324798583984375</LatitudeDegrees>
              <LongitudeDegrees>-6.36047713458538055419921875</LongitudeDegrees>
            </Position>
            <AltitudeMeters>371.20001220703125</AltitudeMeters>
            <DistanceMeters>NAN</DistanceMeters>
          </Trackpoint>
          <Trackpoint>
            <Time>2019-10-09T12:11:35.000Z</Time>
            <Position>
              <LatitudeDegrees>38.59500934369862079620361328125</LatitudeDegrees>
              <LongitudeDegrees>-6.360451318323612213134765625</LongitudeDegrees>
            </Position>
            <AltitudeMeters>371.399993896484375</AltitudeMeters>
            <DistanceMeters>NAN</DistanceMeters>
          </Trackpoint>
          <Trackpoint>
            <Time>2019-10-09T12:11:42.000Z</Time>
            <Position>
              <LatitudeDegrees>38.5946084372699260711669921875</LatitudeDegrees>
              <LongitudeDegrees>-6.3602855242788791656494140625</LongitudeDegrees>
            </Position>
            <AltitudeMeters>371.399993896484375</AltitudeMeters>
            <DistanceMeters>NAN</DistanceMeters>
          </Trackpoint>
          <Trackpoint>
            <Time>2019-10-09T12:11:48.000Z</Time>
            <Position>
              <LatitudeDegrees>38.59428414143621921539306640625</LatitudeDegrees>
              <LongitudeDegrees>-6.3601572811603546142578125</LongitudeDegrees>
            </Position>
            <AltitudeMeters>372.399993896484375</AltitudeMeters>
            <DistanceMeters>NAN</DistanceMeters>
          </Trackpoint>
          <Trackpoint>
            <Time>2019-10-09T12:11:51.000Z</Time>
            <Position>
              <LatitudeDegrees>38.59412589110434055328369140625</LatitudeDegrees>
              <LongitudeDegrees>-6.36009131558239459991455078125</LongitudeDegrees>
            </Position>
            <AltitudeMeters>372.399993896484375</AltitudeMeters>
            <DistanceMeters>NAN</DistanceMeters>
          </Trackpoint>
          <Trackpoint>
            <Time>2019-10-09T12:11:59.000Z</Time>
            <Position>
              <LatitudeDegrees>38.5936998389661312103271484375</LatitudeDegrees>
              <LongitudeDegrees>-6.35991613380610942840576171875</LongitudeDegrees>
            </Position>
            <AltitudeMeters>373</AltitudeMeters>
            <DistanceMeters>NAN</DistanceMeters>
          </Trackpoint>
          <Trackpoint>
            <Time>2019-10-09T12:12:03.000Z</Time>
            <Position>
              <LatitudeDegrees>38.59348165802657604217529296875</LatitudeDegrees>
              <LongitudeDegrees>-6.3598354160785675048828125</LongitudeDegrees>
            </Position>
            <AltitudeMeters>373.399993896484375</AltitudeMeters>
            <DistanceMeters>NAN</DistanceMeters>
          </Trackpoint>
          <Trackpoint>
            <Time>2019-10-09T12:12:07.000Z</Time>
            <Position>
              <LatitudeDegrees>38.5932680033147335052490234375</LatitudeDegrees>
              <LongitudeDegrees>-6.35974648408591747283935546875</LongitudeDegrees>
            </Position>
            <AltitudeMeters>373.399993896484375</AltitudeMeters>
            <DistanceMeters>NAN</DistanceMeters>
          </Trackpoint>
          <Trackpoint>
            <Time>2019-10-09T12:12:14.000Z</Time>
            <Position>
              <LatitudeDegrees>38.5928826034069061279296875</LatitudeDegrees>
              <LongitudeDegrees>-6.35959728620946407318115234375</LongitudeDegrees>
            </Position>
            <AltitudeMeters>373.399993896484375</AltitudeMeters>
            <DistanceMeters>NAN</DistanceMeters>
          </Trackpoint>
          <Trackpoint>
            <Time>2019-10-09T12:12:23.000Z</Time>
            <Position>
              <LatitudeDegrees>38.59237625263631343841552734375</LatitudeDegrees>
              <LongitudeDegrees>-6.3593983836472034454345703125</LongitudeDegrees>
            </Position>
            <AltitudeMeters>373.79998779296875</AltitudeMeters>
            <DistanceMeters>NAN</DistanceMeters>
          </Trackpoint>
          <Trackpoint>
            <Time>2019-10-09T12:12:25.000Z</Time>
            <Position>
              <LatitudeDegrees>38.59225907362997531890869140625</LatitudeDegrees>
              <LongitudeDegrees>-6.3593524508178234100341796875</LongitudeDegrees>
            </Position>
            <AltitudeMeters>373.600006103515625</AltitudeMeters>
            <DistanceMeters>NAN</DistanceMeters>
          </Trackpoint>
          <Trackpoint>
            <Time>2019-10-09T12:12:34.000Z</Time>
            <Position>
              <LatitudeDegrees>38.59171307645738124847412109375</LatitudeDegrees>
              <LongitudeDegrees>-6.35913343168795108795166015625</LongitudeDegrees>
            </Position>
            <AltitudeMeters>372.79998779296875</AltitudeMeters>
            <DistanceMeters>NAN</DistanceMeters>
          </Trackpoint>
          <Trackpoint>
            <Time>2019-10-09T12:12:37.000Z</Time>
            <Position>
              <LatitudeDegrees>38.59153152443468570709228515625</LatitudeDegrees>
              <LongitudeDegrees>-6.35906218551099300384521484375</LongitudeDegrees>
            </Position>
            <AltitudeMeters>372.79998779296875</AltitudeMeters>
            <DistanceMeters>NAN</DistanceMeters>
          </Trackpoint>
          <Trackpoint>
            <Time>2019-10-09T12:12:45.000Z</Time>
            <Position>
              <LatitudeDegrees>38.5910729505121707916259765625</LatitudeDegrees>
              <LongitudeDegrees>-6.358884237706661224365234375</LongitudeDegrees>
            </Position>
            <AltitudeMeters>373.399993896484375</AltitudeMeters>
            <DistanceMeters>NAN</DistanceMeters>
          </Trackpoint>
          <Trackpoint>
            <Time>2019-10-09T12:12:55.000Z</Time>
            <Position>
              <LatitudeDegrees>38.590533323585987091064453125</LatitudeDegrees>
              <LongitudeDegrees>-6.3586698286235332489013671875</LongitudeDegrees>
            </Position>
            <AltitudeMeters>374</AltitudeMeters>
            <DistanceMeters>NAN</DistanceMeters>
          </Trackpoint>
          <Trackpoint>
            <Time>2019-10-09T12:13:05.000Z</Time>
            <Position>
              <LatitudeDegrees>38.5899769328534603118896484375</LatitudeDegrees>
              <LongitudeDegrees>-6.358452737331390380859375</LongitudeDegrees>
            </Position>
            <AltitudeMeters>374.20001220703125</AltitudeMeters>
            <DistanceMeters>NAN</DistanceMeters>
          </Trackpoint>
          <Trackpoint>
            <Time>2019-10-09T12:13:07.000Z</Time>
            <Position>
              <LatitudeDegrees>38.58986377716064453125</LatitudeDegrees>
              <LongitudeDegrees>-6.3584066368639469146728515625</LongitudeDegrees>
            </Position>
            <AltitudeMeters>374.20001220703125</AltitudeMeters>
            <DistanceMeters>NAN</DistanceMeters>
          </Trackpoint>
          <Trackpoint>
            <Time>2019-10-09T12:13:12.000Z</Time>
            <Position>
              <LatitudeDegrees>38.589585162699222564697265625</LatitudeDegrees>
              <LongitudeDegrees>-6.3582946546375751495361328125</LongitudeDegrees>
            </Position>
            <AltitudeMeters>374.600006103515625</AltitudeMeters>
            <DistanceMeters>NAN</DistanceMeters>
          </Trackpoint>
          <Trackpoint>
            <Time>2019-10-09T12:13:18.000Z</Time>
            <Position>
              <LatitudeDegrees>38.58925533480942249298095703125</LatitudeDegrees>
              <LongitudeDegrees>-6.35816372931003570556640625</LongitudeDegrees>
            </Position>
            <AltitudeMeters>374.600006103515625</AltitudeMeters>
            <DistanceMeters>NAN</DistanceMeters>
          </Trackpoint>
          <Trackpoint>
            <Time>2019-10-09T12:13:28.000Z</Time>
            <Position>
              <LatitudeDegrees>38.5887038893997669219970703125</LatitudeDegrees>
              <LongitudeDegrees>-6.357948482036590576171875</LongitudeDegrees>
            </Position>
            <AltitudeMeters>375</AltitudeMeters>
            <DistanceMeters>NAN</DistanceMeters>
          </Trackpoint>
          <Trackpoint>
            <Time>2019-10-09T12:13:29.000Z</Time>
            <Position>
              <LatitudeDegrees>38.58864932321012020111083984375</LatitudeDegrees>
              <LongitudeDegrees>-6.3579271920025348663330078125</LongitudeDegrees>
            </Position>
            <AltitudeMeters>375.399993896484375</AltitudeMeters>
            <DistanceMeters>NAN</DistanceMeters>
          </Trackpoint>
          <Trackpoint>
            <Time>2019-10-09T12:13:31.000Z</Time>
            <Position>
              <LatitudeDegrees>38.58853943645954132080078125</LatitudeDegrees>
              <LongitudeDegrees>-6.35788134299218654632568359375</LongitudeDegrees>
            </Position>
            <AltitudeMeters>375.600006103515625</AltitudeMeters>
            <DistanceMeters>NAN</DistanceMeters>
          </Trackpoint>
          <Trackpoint>
            <Time>2019-10-09T12:13:39.000Z</Time>
            <Position>
              <LatitudeDegrees>38.588094525039196014404296875</LatitudeDegrees>
              <LongitudeDegrees>-6.35770532302558422088623046875</LongitudeDegrees>
            </Position>
            <AltitudeMeters>375.399993896484375</AltitudeMeters>
            <DistanceMeters>NAN</DistanceMeters>
          </Trackpoint>
          <Trackpoint>
            <Time>2019-10-09T12:13:46.000Z</Time>
            <Position>
              <LatitudeDegrees>38.58769345097243785858154296875</LatitudeDegrees>
              <LongitudeDegrees>-6.3575474917888641357421875</LongitudeDegrees>
            </Position>
            <AltitudeMeters>375.79998779296875</AltitudeMeters>
            <DistanceMeters>NAN</DistanceMeters>
          </Trackpoint>
          <Trackpoint>
            <Time>2019-10-09T12:13:53.000Z</Time>
            <Position>
              <LatitudeDegrees>38.5872642137110233306884765625</LatitudeDegrees>
              <LongitudeDegrees>-6.35737960226833820343017578125</LongitudeDegrees>
            </Position>
            <AltitudeMeters>375.79998779296875</AltitudeMeters>
            <DistanceMeters>NAN</DistanceMeters>
          </Trackpoint>
          <Trackpoint>
            <Time>2019-10-09T12:13:57.000Z</Time>
            <Position>
              <LatitudeDegrees>38.587008900940418243408203125</LatitudeDegrees>
              <LongitudeDegrees>-6.35727566666901111602783203125</LongitudeDegrees>
            </Position>
            <AltitudeMeters>375.399993896484375</AltitudeMeters>
            <DistanceMeters>NAN</DistanceMeters>
          </Trackpoint>
          <Trackpoint>
            <Time>2019-10-09T12:14:02.000Z</Time>
            <Position>
              <LatitudeDegrees>38.586701117455959320068359375</LatitudeDegrees>
              <LongitudeDegrees>-6.3571520335972309112548828125</LongitudeDegrees>
            </Position>
            <AltitudeMeters>376.20001220703125</AltitudeMeters>
            <DistanceMeters>NAN</DistanceMeters>
          </Trackpoint>
          <Trackpoint>
            <Time>2019-10-09T12:14:03.000Z</Time>
            <Position>
              <LatitudeDegrees>38.58664068393409252166748046875</LatitudeDegrees>
              <LongitudeDegrees>-6.35712973773479461669921875</LongitudeDegrees>
            </Position>
            <AltitudeMeters>376.600006103515625</AltitudeMeters>
            <DistanceMeters>NAN</DistanceMeters>
          </Trackpoint>
          <Trackpoint>
            <Time>2019-10-09T12:14:04.000Z</Time>
            <Position>
              <LatitudeDegrees>38.5865799151360988616943359375</LatitudeDegrees>
              <LongitudeDegrees>-6.35710618458688259124755859375</LongitudeDegrees>
            </Position>
            <AltitudeMeters>376.79998779296875</AltitudeMeters>
            <DistanceMeters>NAN</DistanceMeters>
          </Trackpoint>
          <Trackpoint>
            <Time>2019-10-09T12:14:13.000Z</Time>
            <Position>
              <LatitudeDegrees>38.58602561987936496734619140625</LatitudeDegrees>
              <LongitudeDegrees>-6.3568881712853908538818359375</LongitudeDegrees>
            </Position>
            <AltitudeMeters>376.79998779296875</AltitudeMeters>
            <DistanceMeters>NAN</DistanceMeters>
          </Trackpoint>
          <Trackpoint>
            <Time>2019-10-09T12:14:22.000Z</Time>
            <Position>
              <LatitudeDegrees>38.5854641161859035491943359375</LatitudeDegrees>
              <LongitudeDegrees>-6.35668323375284671783447265625</LongitudeDegrees>
            </Position>
            <AltitudeMeters>377</AltitudeMeters>
            <DistanceMeters>NAN</DistanceMeters>
          </Trackpoint>
          <Trackpoint>
            <Time>2019-10-09T12:14:24.000Z</Time>
            <Position>
              <LatitudeDegrees>38.5853363759815692901611328125</LatitudeDegrees>
              <LongitudeDegrees>-6.3566474430263042449951171875</LongitudeDegrees>
            </Position>
            <AltitudeMeters>376.79998779296875</AltitudeMeters>
            <DistanceMeters>NAN</DistanceMeters>
          </Trackpoint>
          <Trackpoint>
            <Time>2019-10-09T12:14:32.000Z</Time>
            <Position>
              <LatitudeDegrees>38.58481611125171184539794921875</LatitudeDegrees>
              <LongitudeDegrees>-6.3565331138670444488525390625</LongitudeDegrees>
            </Position>
            <AltitudeMeters>376.399993896484375</AltitudeMeters>
            <DistanceMeters>NAN</DistanceMeters>
          </Trackpoint>
          <Trackpoint>
            <Time>2019-10-09T12:14:33.000Z</Time>
            <Position>
              <LatitudeDegrees>38.58475106768310070037841796875</LatitudeDegrees>
              <LongitudeDegrees>-6.35651878081262111663818359375</LongitudeDegrees>
            </Position>
            <AltitudeMeters>376.399993896484375</AltitudeMeters>
            <DistanceMeters>NAN</DistanceMeters>
          </Trackpoint>
          <Trackpoint>
            <Time>2019-10-09T12:14:41.000Z</Time>
            <Position>
              <LatitudeDegrees>38.5842229239642620086669921875</LatitudeDegrees>
              <LongitudeDegrees>-6.35641635395586490631103515625</LongitudeDegrees>
            </Position>
            <AltitudeMeters>376.399993896484375</AltitudeMeters>
            <DistanceMeters>NAN</DistanceMeters>
          </Trackpoint>
          <Trackpoint>
            <Time>2019-10-09T12:14:42.000Z</Time>
            <Position>
              <LatitudeDegrees>38.58415536582469940185546875</LatitudeDegrees>
              <LongitudeDegrees>-6.356403194367885589599609375</LongitudeDegrees>
            </Position>
            <AltitudeMeters>376.20001220703125</AltitudeMeters>
            <DistanceMeters>NAN</DistanceMeters>
          </Trackpoint>
          <Trackpoint>
            <Time>2019-10-09T12:14:48.000Z</Time>
            <Position>
              <LatitudeDegrees>38.58375571668148040771484375</LatitudeDegrees>
              <LongitudeDegrees>-6.35632247664034366607666015625</LongitudeDegrees>
            </Position>
            <AltitudeMeters>375.600006103515625</AltitudeMeters>
            <DistanceMeters>NAN</DistanceMeters>
          </Trackpoint>
          <Trackpoint>
            <Time>2019-10-09T12:14:52.000Z</Time>
            <Position>
              <LatitudeDegrees>38.583491183817386627197265625</LatitudeDegrees>
              <LongitudeDegrees>-6.35626631788909435272216796875</LongitudeDegrees>
            </Position>
            <AltitudeMeters>374.79998779296875</AltitudeMeters>
            <DistanceMeters>NAN</DistanceMeters>
          </Trackpoint>
          <Trackpoint>
            <Time>2019-10-09T12:14:57.000Z</Time>
            <Position>
              <LatitudeDegrees>38.58314157463610172271728515625</LatitudeDegrees>
              <LongitudeDegrees>-6.356200017035007476806640625</LongitudeDegrees>
            </Position>
            <AltitudeMeters>374.600006103515625</AltitudeMeters>
            <DistanceMeters>NAN</DistanceMeters>
          </Trackpoint>
          <Trackpoint>
            <Time>2019-10-09T12:15:01.000Z</Time>
            <Position>
              <LatitudeDegrees>38.5828536562621593475341796875</LatitudeDegrees>
              <LongitudeDegrees>-6.356138996779918670654296875</LongitudeDegrees>
            </Position>
            <AltitudeMeters>374</AltitudeMeters>
            <DistanceMeters>NAN</DistanceMeters>
          </Trackpoint>
          <Trackpoint>
            <Time>2019-10-09T12:15:05.000Z</Time>
            <Position>
              <LatitudeDegrees>38.58257177285850048065185546875</LatitudeDegrees>
              <LongitudeDegrees>-6.35608099400997161865234375</LongitudeDegrees>
            </Position>
            <AltitudeMeters>373.79998779296875</AltitudeMeters>
            <DistanceMeters>NAN</DistanceMeters>
          </Trackpoint>
          <Trackpoint>
            <Time>2019-10-09T12:15:06.000Z</Time>
            <Position>
              <LatitudeDegrees>38.5825024545192718505859375</LatitudeDegrees>
              <LongitudeDegrees>-6.356069929897785186767578125</LongitudeDegrees>
            </Position>
            <AltitudeMeters>374</AltitudeMeters>
            <DistanceMeters>NAN</DistanceMeters>
          </Trackpoint>
          <Trackpoint>
            <Time>2019-10-09T12:15:08.000Z</Time>
            <Position>
              <LatitudeDegrees>38.58236574567854404449462890625</LatitudeDegrees>
              <LongitudeDegrees>-6.3560449518263339996337890625</LongitudeDegrees>
            </Position>
            <AltitudeMeters>374</AltitudeMeters>
            <DistanceMeters>NAN</DistanceMeters>
          </Trackpoint>
          <Trackpoint>
            <Time>2019-10-09T12:15:09.000Z</Time>
            <Position>
              <LatitudeDegrees>38.582298271358013153076171875</LatitudeDegrees>
              <LongitudeDegrees>-6.35603078640997409820556640625</LongitudeDegrees>
            </Position>
            <AltitudeMeters>374.20001220703125</AltitudeMeters>
            <DistanceMeters>NAN</DistanceMeters>
          </Trackpoint>
          <Trackpoint>
            <Time>2019-10-09T12:15:12.000Z</Time>
            <Position>
              <LatitudeDegrees>38.582098446786403656005859375</LatitudeDegrees>
              <LongitudeDegrees>-6.35598971508443355560302734375</LongitudeDegrees>
            </Position>
            <AltitudeMeters>373.79998779296875</AltitudeMeters>
            <DistanceMeters>NAN</DistanceMeters>
          </Trackpoint>
          <Trackpoint>
            <Time>2019-10-09T12:15:19.000Z</Time>
            <Position>
              <LatitudeDegrees>38.58164037577807903289794921875</LatitudeDegrees>
              <LongitudeDegrees>-6.35589449666440486907958984375</LongitudeDegrees>
            </Position>
            <AltitudeMeters>374</AltitudeMeters>
            <DistanceMeters>NAN</DistanceMeters>
          </Trackpoint>
          <Trackpoint>
            <Time>2019-10-09T12:15:23.000Z</Time>
            <Position>
              <LatitudeDegrees>38.581383638083934783935546875</LatitudeDegrees>
              <LongitudeDegrees>-6.3558416068553924560546875</LongitudeDegrees>
            </Position>
            <AltitudeMeters>374.20001220703125</AltitudeMeters>
            <DistanceMeters>NAN</DistanceMeters>
          </Trackpoint>
          <Trackpoint>
            <Time>2019-10-09T12:15:31.000Z</Time>
            <Position>
              <LatitudeDegrees>38.58088231645524501800537109375</LatitudeDegrees>
              <LongitudeDegrees>-6.35572518222033977508544921875</LongitudeDegrees>
            </Position>
            <AltitudeMeters>374.79998779296875</AltitudeMeters>
            <DistanceMeters>NAN</DistanceMeters>
          </Trackpoint>
          <Trackpoint>
            <Time>2019-10-09T12:15:40.000Z</Time>
            <Position>
              <LatitudeDegrees>38.58032207004725933074951171875</LatitudeDegrees>
              <LongitudeDegrees>-6.355535499751567840576171875</LongitudeDegrees>
            </Position>
            <AltitudeMeters>374.600006103515625</AltitudeMeters>
            <DistanceMeters>NAN</DistanceMeters>
          </Trackpoint>
          <Trackpoint>
            <Time>2019-10-09T12:15:45.000Z</Time>
            <Position>
              <LatitudeDegrees>38.58002032153308391571044921875</LatitudeDegrees>
              <LongitudeDegrees>-6.35540499351918697357177734375</LongitudeDegrees>
            </Position>
            <AltitudeMeters>374.600006103515625</AltitudeMeters>
            <DistanceMeters>NAN</DistanceMeters>
          </Trackpoint>
          <Trackpoint>
            <Time>2019-10-09T12:15:50.000Z</Time>
            <Position>
              <LatitudeDegrees>38.5797225125133991241455078125</LatitudeDegrees>
              <LongitudeDegrees>-6.3552622497081756591796875</LongitudeDegrees>
            </Position>
            <AltitudeMeters>375</AltitudeMeters>
            <DistanceMeters>NAN</DistanceMeters>
          </Trackpoint>
          <Trackpoint>
            <Time>2019-10-09T12:15:58.000Z</Time>
            <Position>
              <LatitudeDegrees>38.579222448170185089111328125</LatitudeDegrees>
              <LongitudeDegrees>-6.35501456446945667266845703125</LongitudeDegrees>
            </Position>
            <AltitudeMeters>374.600006103515625</AltitudeMeters>
            <DistanceMeters>NAN</DistanceMeters>
          </Trackpoint>
          <Trackpoint>
            <Time>2019-10-09T12:16:00.000Z</Time>
            <Position>
              <LatitudeDegrees>38.57909806072711944580078125</LatitudeDegrees>
              <LongitudeDegrees>-6.35495086200535297393798828125</LongitudeDegrees>
            </Position>
            <AltitudeMeters>374.600006103515625</AltitudeMeters>
            <DistanceMeters>NAN</DistanceMeters>
          </Trackpoint>
          <Trackpoint>
            <Time>2019-10-09T12:16:02.000Z</Time>
            <Position>
              <LatitudeDegrees>38.5789741761982440948486328125</LatitudeDegrees>
              <LongitudeDegrees>-6.35489143431186676025390625</LongitudeDegrees>
            </Position>
            <AltitudeMeters>374.600006103515625</AltitudeMeters>
            <DistanceMeters>NAN</DistanceMeters>
          </Trackpoint>
          <Trackpoint>
            <Time>2019-10-09T12:16:10.000Z</Time>
            <Position>
              <LatitudeDegrees>38.57847033999860286712646484375</LatitudeDegrees>
              <LongitudeDegrees>-6.35464324615895748138427734375</LongitudeDegrees>
            </Position>
            <AltitudeMeters>373.600006103515625</AltitudeMeters>
            <DistanceMeters>NAN</DistanceMeters>
          </Trackpoint>
          <Trackpoint>
            <Time>2019-10-09T12:16:11.000Z</Time>
            <Position>
              <LatitudeDegrees>38.57840848155319690704345703125</LatitudeDegrees>
              <LongitudeDegrees>-6.354613490402698516845703125</LongitudeDegrees>
            </Position>
            <AltitudeMeters>373.600006103515625</AltitudeMeters>
            <DistanceMeters>NAN</DistanceMeters>
          </Trackpoint>
          <Trackpoint>
            <Time>2019-10-09T12:16:13.000Z</Time>
            <Position>
              <LatitudeDegrees>38.5782841779291629791259765625</LatitudeDegrees>
              <LongitudeDegrees>-6.3545536436140537261962890625</LongitudeDegrees>
            </Position>
            <AltitudeMeters>373.600006103515625</AltitudeMeters>
            <DistanceMeters>NAN</DistanceMeters>
          </Trackpoint>
          <Trackpoint>
            <Time>2019-10-09T12:16:21.000Z</Time>
            <Position>
              <LatitudeDegrees>38.577782772481441497802734375</LatitudeDegrees>
              <LongitudeDegrees>-6.3543058745563030242919921875</LongitudeDegrees>
            </Position>
            <AltitudeMeters>373.399993896484375</AltitudeMeters>
            <DistanceMeters>NAN</DistanceMeters>
          </Trackpoint>
          <Trackpoint>
            <Time>2019-10-09T12:16:22.000Z</Time>
            <Position>
              <LatitudeDegrees>38.5777200758457183837890625</LatitudeDegrees>
              <LongitudeDegrees>-6.354274861514568328857421875</LongitudeDegrees>
            </Position>
            <AltitudeMeters>373.399993896484375</AltitudeMeters>
            <DistanceMeters>NAN</DistanceMeters>
          </Trackpoint>
          <Trackpoint>
            <Time>2019-10-09T12:16:29.000Z</Time>
            <Position>
              <LatitudeDegrees>38.57728698290884494781494140625</LatitudeDegrees>
              <LongitudeDegrees>-6.354057602584362030029296875</LongitudeDegrees>
            </Position>
            <AltitudeMeters>373.600006103515625</AltitudeMeters>
            <DistanceMeters>NAN</DistanceMeters>
          </Trackpoint>
          <Trackpoint>
            <Time>2019-10-09T12:16:31.000Z</Time>
            <Position>
              <LatitudeDegrees>38.57716795988380908966064453125</LatitudeDegrees>
              <LongitudeDegrees>-6.353999935090541839599609375</LongitudeDegrees>
            </Position>
            <AltitudeMeters>373</AltitudeMeters>
            <DistanceMeters>NAN</DistanceMeters>
          </Trackpoint>
          <Trackpoint>
            <Time>2019-10-09T12:16:32.000Z</Time>
            <Position>
              <LatitudeDegrees>38.577108196914196014404296875</LatitudeDegrees>
              <LongitudeDegrees>-6.3539721071720123291015625</LongitudeDegrees>
            </Position>
            <AltitudeMeters>373</AltitudeMeters>
            <DistanceMeters>NAN</DistanceMeters>
          </Trackpoint>
          <Trackpoint>
            <Time>2019-10-09T12:16:33.000Z</Time>
            <Position>
              <LatitudeDegrees>38.57704843394458293914794921875</LatitudeDegrees>
              <LongitudeDegrees>-6.353944949805736541748046875</LongitudeDegrees>
            </Position>
            <AltitudeMeters>372.79998779296875</AltitudeMeters>
            <DistanceMeters>NAN</DistanceMeters>
          </Trackpoint>
          <Trackpoint>
            <Time>2019-10-09T12:16:38.000Z</Time>
            <Position>
              <LatitudeDegrees>38.57675473205745220184326171875</LatitudeDegrees>
              <LongitudeDegrees>-6.35380287654697895050048828125</LongitudeDegrees>
            </Position>
            <AltitudeMeters>373</AltitudeMeters>
            <DistanceMeters>NAN</DistanceMeters>
          </Trackpoint>
          <Trackpoint>
            <Time>2019-10-09T12:16:41.000Z</Time>
            <Position>
              <LatitudeDegrees>38.57657318003475666046142578125</LatitudeDegrees>
              <LongitudeDegrees>-6.3537131063640117645263671875</LongitudeDegrees>
            </Position>
            <AltitudeMeters>373.20001220703125</AltitudeMeters>
            <DistanceMeters>NAN</DistanceMeters>
          </Trackpoint>
          <Trackpoint>
            <Time>2019-10-09T12:16:43.000Z</Time>
            <Position>
              <LatitudeDegrees>38.57645072042942047119140625</LatitudeDegrees>
              <LongitudeDegrees>-6.35365401394665241241455078125</LongitudeDegrees>
            </Position>
            <AltitudeMeters>372.79998779296875</AltitudeMeters>
            <DistanceMeters>NAN</DistanceMeters>
          </Trackpoint>
          <Trackpoint>
            <Time>2019-10-09T12:16:45.000Z</Time>
            <Position>
              <LatitudeDegrees>38.5763254947960376739501953125</LatitudeDegrees>
              <LongitudeDegrees>-6.35359886102378368377685546875</LongitudeDegrees>
            </Position>
            <AltitudeMeters>372.79998779296875</AltitudeMeters>
            <DistanceMeters>NAN</DistanceMeters>
          </Trackpoint>
          <Trackpoint>
            <Time>2019-10-09T12:16:48.000Z</Time>
            <Position>
              <LatitudeDegrees>38.57613916508853435516357421875</LatitudeDegrees>
              <LongitudeDegrees>-6.35350339114665985107421875</LongitudeDegrees>
            </Position>
            <AltitudeMeters>372.79998779296875</AltitudeMeters>
            <DistanceMeters>NAN</DistanceMeters>
          </Trackpoint>
          <Trackpoint>
            <Time>2019-10-09T12:16:50.000Z</Time>
            <Position>
              <LatitudeDegrees>38.57601259835064411163330078125</LatitudeDegrees>
              <LongitudeDegrees>-6.353442706167697906494140625</LongitudeDegrees>
            </Position>
            <AltitudeMeters>372.79998779296875</AltitudeMeters>
            <DistanceMeters>NAN</DistanceMeters>
          </Trackpoint>
          <Trackpoint>
            <Time>2019-10-09T12:16:52.000Z</Time>
            <Position>
              <LatitudeDegrees>38.57588837854564189910888671875</LatitudeDegrees>
              <LongitudeDegrees>-6.353379003703594207763671875</LongitudeDegrees>
            </Position>
            <AltitudeMeters>372.600006103515625</AltitudeMeters>
            <DistanceMeters>NAN</DistanceMeters>
          </Trackpoint>
          <Trackpoint>
            <Time>2019-10-09T12:16:56.000Z</Time>
            <Position>
              <LatitudeDegrees>38.5756391845643520355224609375</LatitudeDegrees>
              <LongitudeDegrees>-6.35326174087822437286376953125</LongitudeDegrees>
            </Position>
            <AltitudeMeters>372.600006103515625</AltitudeMeters>
            <DistanceMeters>NAN</DistanceMeters>
          </Trackpoint>
          <Trackpoint>
            <Time>2019-10-09T12:16:58.000Z</Time>
            <Position>
              <LatitudeDegrees>38.5755126178264617919921875</LatitudeDegrees>
              <LongitudeDegrees>-6.353199295699596405029296875</LongitudeDegrees>
            </Position>
            <AltitudeMeters>372.399993896484375</AltitudeMeters>
            <DistanceMeters>NAN</DistanceMeters>
          </Trackpoint>
          <Trackpoint>
            <Time>2019-10-09T12:17:01.000Z</Time>
            <Position>
              <LatitudeDegrees>38.57532243244349956512451171875</LatitudeDegrees>
              <LongitudeDegrees>-6.35310499928891658782958984375</LongitudeDegrees>
            </Position>
            <AltitudeMeters>372.79998779296875</AltitudeMeters>
            <DistanceMeters>NAN</DistanceMeters>
          </Trackpoint>
          <Trackpoint>
            <Time>2019-10-09T12:17:09.000Z</Time>
            <Position>
              <LatitudeDegrees>38.5748026706278324127197265625</LatitudeDegrees>
              <LongitudeDegrees>-6.352859325706958770751953125</LongitudeDegrees>
            </Position>
            <AltitudeMeters>372.399993896484375</AltitudeMeters>
            <DistanceMeters>NAN</DistanceMeters>
          </Trackpoint>
          <Trackpoint>
            <Time>2019-10-09T12:17:10.000Z</Time>
            <Position>
              <LatitudeDegrees>38.57473905198276042938232421875</LatitudeDegrees>
              <LongitudeDegrees>-6.35282688774168491363525390625</LongitudeDegrees>
            </Position>
            <AltitudeMeters>372.399993896484375</AltitudeMeters>
            <DistanceMeters>NAN</DistanceMeters>
          </Trackpoint>
          <Trackpoint>
            <Time>2019-10-09T12:17:13.000Z</Time>
            <Position>
              <LatitudeDegrees>38.57454660348594188690185546875</LatitudeDegrees>
              <LongitudeDegrees>-6.35274298489093780517578125</LongitudeDegrees>
            </Position>
            <AltitudeMeters>373</AltitudeMeters>
            <DistanceMeters>NAN</DistanceMeters>
          </Trackpoint>
          <Trackpoint>
            <Time>2019-10-09T12:17:18.000Z</Time>
            <Position>
              <LatitudeDegrees>38.57422239147126674652099609375</LatitudeDegrees>
              <LongitudeDegrees>-6.352617926895618438720703125</LongitudeDegrees>
            </Position>
            <AltitudeMeters>372.79998779296875</AltitudeMeters>
            <DistanceMeters>NAN</DistanceMeters>
          </Trackpoint>
          <Trackpoint>
            <Time>2019-10-09T12:17:27.000Z</Time>
            <Position>
              <LatitudeDegrees>38.57365711592137813568115234375</LatitudeDegrees>
              <LongitudeDegrees>-6.35243243537843227386474609375</LongitudeDegrees>
            </Position>
            <AltitudeMeters>373</AltitudeMeters>
            <DistanceMeters>NAN</DistanceMeters>
          </Trackpoint>
          <Trackpoint>
            <Time>2019-10-09T12:17:35.000Z</Time>
            <Position>
              <LatitudeDegrees>38.57319091446697711944580078125</LatitudeDegrees>
              <LongitudeDegrees>-6.35228206403553485870361328125</LongitudeDegrees>
            </Position>
            <AltitudeMeters>373</AltitudeMeters>
            <DistanceMeters>NAN</DistanceMeters>
          </Trackpoint>
          <Trackpoint>
            <Time>2019-10-09T12:17:40.000Z</Time>
            <Position>
              <LatitudeDegrees>38.57289251871407032012939453125</LatitudeDegrees>
              <LongitudeDegrees>-6.35218508541584014892578125</LongitudeDegrees>
            </Position>
            <AltitudeMeters>373.600006103515625</AltitudeMeters>
            <DistanceMeters>NAN</DistanceMeters>
          </Trackpoint>
          <Trackpoint>
            <Time>2019-10-09T12:17:46.000Z</Time>
            <Position>
              <LatitudeDegrees>38.57253729365766048431396484375</LatitudeDegrees>
              <LongitudeDegrees>-6.352076791226863861083984375</LongitudeDegrees>
            </Position>
            <AltitudeMeters>373.399993896484375</AltitudeMeters>
            <DistanceMeters>NAN</DistanceMeters>
          </Trackpoint>
          <Trackpoint>
            <Time>2019-10-09T12:17:55.000Z</Time>
            <Position>
              <LatitudeDegrees>38.57200227677822113037109375</LatitudeDegrees>
              <LongitudeDegrees>-6.351897083222866058349609375</LongitudeDegrees>
            </Position>
            <AltitudeMeters>373.79998779296875</AltitudeMeters>
            <DistanceMeters>NAN</DistanceMeters>
          </Trackpoint>
          <Trackpoint>
            <Time>2019-10-09T12:17:56.000Z</Time>
            <Position>
              <LatitudeDegrees>38.57194234617054462432861328125</LatitudeDegrees>
              <LongitudeDegrees>-6.35187839157879352569580078125</LongitudeDegrees>
            </Position>
            <AltitudeMeters>373.79998779296875</AltitudeMeters>
            <DistanceMeters>NAN</DistanceMeters>
          </Trackpoint>
          <Trackpoint>
            <Time>2019-10-09T12:18:01.000Z</Time>
            <Position>
              <LatitudeDegrees>38.57163322158157825469970703125</LatitudeDegrees>
              <LongitudeDegrees>-6.35181535966694355010986328125</LongitudeDegrees>
            </Position>
            <AltitudeMeters>374.20001220703125</AltitudeMeters>
            <DistanceMeters>NAN</DistanceMeters>
          </Trackpoint>
          <Trackpoint>
            <Time>2019-10-09T12:18:02.000Z</Time>
            <Position>
              <LatitudeDegrees>38.57157153077423572540283203125</LatitudeDegrees>
              <LongitudeDegrees>-6.3518208079040050506591796875</LongitudeDegrees>
            </Position>
            <AltitudeMeters>374.399993896484375</AltitudeMeters>
            <DistanceMeters>NAN</DistanceMeters>
          </Trackpoint>
          <Trackpoint>
            <Time>2019-10-09T12:18:05.000Z</Time>
            <Position>
              <LatitudeDegrees>38.5713932476937770843505859375</LatitudeDegrees>
              <LongitudeDegrees>-6.3518845103681087493896484375</LongitudeDegrees>
            </Position>
            <AltitudeMeters>374.399993896484375</AltitudeMeters>
            <DistanceMeters>NAN</DistanceMeters>
          </Trackpoint>
          <Trackpoint>
            <Time>2019-10-09T12:18:06.000Z</Time>
            <Position>
              <LatitudeDegrees>38.5713335685431957244873046875</LatitudeDegrees>
              <LongitudeDegrees>-6.351902782917022705078125</LongitudeDegrees>
            </Position>
            <AltitudeMeters>374.399993896484375</AltitudeMeters>
            <DistanceMeters>NAN</DistanceMeters>
          </Trackpoint>
          <Trackpoint>
            <Time>2019-10-09T12:18:07.000Z</Time>
            <Position>
              <LatitudeDegrees>38.57127271592617034912109375</LatitudeDegrees>
              <LongitudeDegrees>-6.3519049622118473052978515625</LongitudeDegrees>
            </Position>
            <AltitudeMeters>374.600006103515625</AltitudeMeters>
            <DistanceMeters>NAN</DistanceMeters>
          </Trackpoint>
          <Trackpoint>
            <Time>2019-10-09T12:18:09.000Z</Time>
            <Position>
              <LatitudeDegrees>38.571158386766910552978515625</LatitudeDegrees>
              <LongitudeDegrees>-6.3518536649644374847412109375</LongitudeDegrees>
            </Position>
            <AltitudeMeters>374.600006103515625</AltitudeMeters>
            <DistanceMeters>NAN</DistanceMeters>
          </Trackpoint>
          <Trackpoint>
            <Time>2019-10-09T12:18:12.000Z</Time>
            <Position>
              <LatitudeDegrees>38.5710194148123264312744140625</LatitudeDegrees>
              <LongitudeDegrees>-6.35169767774641513824462890625</LongitudeDegrees>
            </Position>
            <AltitudeMeters>374</AltitudeMeters>
            <DistanceMeters>NAN</DistanceMeters>
          </Trackpoint>
          <Trackpoint>
            <Time>2019-10-09T12:18:13.000Z</Time>
            <Position>
              <LatitudeDegrees>38.5709743201732635498046875</LatitudeDegrees>
              <LongitudeDegrees>-6.35164403356611728668212890625</LongitudeDegrees>
            </Position>
            <AltitudeMeters>373.79998779296875</AltitudeMeters>
            <DistanceMeters>NAN</DistanceMeters>
          </Trackpoint>
          <Trackpoint>
            <Time>2019-10-09T12:18:14.000Z</Time>
            <Position>
              <LatitudeDegrees>38.5709252022206783294677734375</LatitudeDegrees>
              <LongitudeDegrees>-6.351596675813198089599609375</LongitudeDegrees>
            </Position>
            <AltitudeMeters>373.79998779296875</AltitudeMeters>
            <DistanceMeters>NAN</DistanceMeters>
          </Trackpoint>
          <Trackpoint>
            <Time>2019-10-09T12:18:17.000Z</Time>
            <Position>
              <LatitudeDegrees>38.570750020444393157958984375</LatitudeDegrees>
              <LongitudeDegrees>-6.35150321759283542633056640625</LongitudeDegrees>
            </Position>
            <AltitudeMeters>374.600006103515625</AltitudeMeters>
            <DistanceMeters>NAN</DistanceMeters>
          </Trackpoint>
          <Trackpoint>
            <Time>2019-10-09T12:18:25.000Z</Time>
            <Position>
              <LatitudeDegrees>38.570255152881145477294921875</LatitudeDegrees>
              <LongitudeDegrees>-6.35134161449968814849853515625</LongitudeDegrees>
            </Position>
            <AltitudeMeters>374.399993896484375</AltitudeMeters>
            <DistanceMeters>NAN</DistanceMeters>
          </Trackpoint>
          <Trackpoint>
            <Time>2019-10-09T12:18:26.000Z</Time>
            <Position>
              <LatitudeDegrees>38.570194803178310394287109375</LatitudeDegrees>
              <LongitudeDegrees>-6.3513219170272350311279296875</LongitudeDegrees>
            </Position>
            <AltitudeMeters>374.399993896484375</AltitudeMeters>
            <DistanceMeters>NAN</DistanceMeters>
          </Trackpoint>
          <Trackpoint>
            <Time>2019-10-09T12:18:35.000Z</Time>
            <Position>
              <LatitudeDegrees>38.56965375132858753204345703125</LatitudeDegrees>
              <LongitudeDegrees>-6.3511485792696475982666015625</LongitudeDegrees>
            </Position>
            <AltitudeMeters>374.79998779296875</AltitudeMeters>
            <DistanceMeters>NAN</DistanceMeters>
          </Trackpoint>
          <Trackpoint>
            <Time>2019-10-09T12:18:37.000Z</Time>
            <Position>
              <LatitudeDegrees>38.5695326328277587890625</LatitudeDegrees>
              <LongitudeDegrees>-6.35110725648701190948486328125</LongitudeDegrees>
            </Position>
            <AltitudeMeters>374.79998779296875</AltitudeMeters>
            <DistanceMeters>NAN</DistanceMeters>
          </Trackpoint>
          <Trackpoint>
            <Time>2019-10-09T12:18:46.000Z</Time>
            <Position>
              <LatitudeDegrees>38.56899392791092395782470703125</LatitudeDegrees>
              <LongitudeDegrees>-6.35093743912875652313232421875</LongitudeDegrees>
            </Position>
            <AltitudeMeters>375</AltitudeMeters>
            <DistanceMeters>NAN</DistanceMeters>
          </Trackpoint>
          <Trackpoint>
            <Time>2019-10-09T12:18:47.000Z</Time>
            <Position>
              <LatitudeDegrees>38.56893341057002544403076171875</LatitudeDegrees>
              <LongitudeDegrees>-6.35091799311339855194091796875</LongitudeDegrees>
            </Position>
            <AltitudeMeters>375.20001220703125</AltitudeMeters>
            <DistanceMeters>NAN</DistanceMeters>
          </Trackpoint>
          <Trackpoint>
            <Time>2019-10-09T12:18:54.000Z</Time>
            <Position>
              <LatitudeDegrees>38.56851733289659023284912109375</LatitudeDegrees>
              <LongitudeDegrees>-6.3507791049778461456298828125</LongitudeDegrees>
            </Position>
            <AltitudeMeters>375.399993896484375</AltitudeMeters>
            <DistanceMeters>NAN</DistanceMeters>
          </Trackpoint>
          <Trackpoint>
            <Time>2019-10-09T12:18:56.000Z</Time>
            <Position>
              <LatitudeDegrees>38.56840007007122039794921875</LatitudeDegrees>
              <LongitudeDegrees>-6.3507382012903690338134765625</LongitudeDegrees>
            </Position>
            <AltitudeMeters>375.79998779296875</AltitudeMeters>
            <DistanceMeters>NAN</DistanceMeters>
          </Trackpoint>
          <Trackpoint>
            <Time>2019-10-09T12:19:03.000Z</Time>
            <Position>
              <LatitudeDegrees>38.56798592023551464080810546875</LatitudeDegrees>
              <LongitudeDegrees>-6.3506121374666690826416015625</LongitudeDegrees>
            </Position>
            <AltitudeMeters>375.600006103515625</AltitudeMeters>
            <DistanceMeters>NAN</DistanceMeters>
          </Trackpoint>
          <Trackpoint>
            <Time>2019-10-09T12:19:11.000Z</Time>
            <Position>
              <LatitudeDegrees>38.56750915758311748504638671875</LatitudeDegrees>
              <LongitudeDegrees>-6.35046889074146747589111328125</LongitudeDegrees>
            </Position>
            <AltitudeMeters>376.20001220703125</AltitudeMeters>
            <DistanceMeters>NAN</DistanceMeters>
          </Trackpoint>
          <Trackpoint>
            <Time>2019-10-09T12:19:13.000Z</Time>
            <Position>
              <LatitudeDegrees>38.56739197857677936553955078125</LatitudeDegrees>
              <LongitudeDegrees>-6.350436620414257049560546875</LongitudeDegrees>
            </Position>
            <AltitudeMeters>376</AltitudeMeters>
            <DistanceMeters>NAN</DistanceMeters>
          </Trackpoint>
          <Trackpoint>
            <Time>2019-10-09T12:19:19.000Z</Time>
            <Position>
              <LatitudeDegrees>38.56704278849065303802490234375</LatitudeDegrees>
              <LongitudeDegrees>-6.350351460278034210205078125</LongitudeDegrees>
            </Position>
            <AltitudeMeters>377</AltitudeMeters>
            <DistanceMeters>NAN</DistanceMeters>
          </Trackpoint>
          <Trackpoint>
            <Time>2019-10-09T12:19:22.000Z</Time>
            <Position>
              <LatitudeDegrees>38.5668759047985076904296875</LatitudeDegrees>
              <LongitudeDegrees>-6.35031516663730144500732421875</LongitudeDegrees>
            </Position>
            <AltitudeMeters>377.20001220703125</AltitudeMeters>
            <DistanceMeters>NAN</DistanceMeters>
          </Trackpoint>
          <Trackpoint>
            <Time>2019-10-09T12:19:31.000Z</Time>
            <Position>
              <LatitudeDegrees>38.56638045050203800201416015625</LatitudeDegrees>
              <LongitudeDegrees>-6.35021810419857501983642578125</LongitudeDegrees>
            </Position>
            <AltitudeMeters>378.20001220703125</AltitudeMeters>
            <DistanceMeters>NAN</DistanceMeters>
          </Trackpoint>
          <Trackpoint>
            <Time>2019-10-09T12:19:35.000Z</Time>
            <Position>
              <LatitudeDegrees>38.56616470031440258026123046875</LatitudeDegrees>
              <LongitudeDegrees>-6.35017183609306812286376953125</LongitudeDegrees>
            </Position>
            <AltitudeMeters>378.79998779296875</AltitudeMeters>
            <DistanceMeters>NAN</DistanceMeters>
          </Trackpoint>
          <Trackpoint>
            <Time>2019-10-09T12:19:40.000Z</Time>
            <Position>
              <LatitudeDegrees>38.56589865870773792266845703125</LatitudeDegrees>
              <LongitudeDegrees>-6.3501097261905670166015625</LongitudeDegrees>
            </Position>
            <AltitudeMeters>379.20001220703125</AltitudeMeters>
            <DistanceMeters>NAN</DistanceMeters>
          </Trackpoint>
          <Trackpoint>
            <Time>2019-10-09T12:19:44.000Z</Time>
            <Position>
              <LatitudeDegrees>38.5656865127384662628173828125</LatitudeDegrees>
              <LongitudeDegrees>-6.35006756521761417388916015625</LongitudeDegrees>
            </Position>
            <AltitudeMeters>380.20001220703125</AltitudeMeters>
            <DistanceMeters>NAN</DistanceMeters>
          </Trackpoint>
          <Trackpoint>
            <Time>2019-10-09T12:19:45.000Z</Time>
            <Position>
              <LatitudeDegrees>38.56563395820558071136474609375</LatitudeDegrees>
              <LongitudeDegrees>-6.3500552438199520111083984375</LongitudeDegrees>
            </Position>
            <AltitudeMeters>380.399993896484375</AltitudeMeters>
            <DistanceMeters>NAN</DistanceMeters>
          </Trackpoint>
          <Trackpoint>
            <Time>2019-10-09T12:19:51.000Z</Time>
            <Position>
              <LatitudeDegrees>38.5653213970363140106201171875</LatitudeDegrees>
              <LongitudeDegrees>-6.34998760186135768890380859375</LongitudeDegrees>
            </Position>
            <AltitudeMeters>381.399993896484375</AltitudeMeters>
            <DistanceMeters>NAN</DistanceMeters>
          </Trackpoint>
          <Trackpoint>
            <Time>2019-10-09T12:19:53.000Z</Time>
            <Position>
              <LatitudeDegrees>38.56521318666636943817138671875</LatitudeDegrees>
              <LongitudeDegrees>-6.349966563284397125244140625</LongitudeDegrees>
            </Position>
            <AltitudeMeters>381.20001220703125</AltitudeMeters>
            <DistanceMeters>NAN</DistanceMeters>
          </Trackpoint>
          <Trackpoint>
            <Time>2019-10-09T12:20:02.000Z</Time>
            <Position>
              <LatitudeDegrees>38.5647333227097988128662109375</LatitudeDegrees>
              <LongitudeDegrees>-6.34990965016186237335205078125</LongitudeDegrees>
            </Position>
            <AltitudeMeters>382.600006103515625</AltitudeMeters>
            <DistanceMeters>NAN</DistanceMeters>
          </Trackpoint>
          <Trackpoint>
            <Time>2019-10-09T12:20:10.000Z</Time>
            <Position>
              <LatitudeDegrees>38.564296625554561614990234375</LatitudeDegrees>
              <LongitudeDegrees>-6.349928341805934906005859375</LongitudeDegrees>
            </Position>
            <AltitudeMeters>383</AltitudeMeters>
            <DistanceMeters>NAN</DistanceMeters>
          </Trackpoint>
          <Trackpoint>
            <Time>2019-10-09T12:20:18.000Z</Time>
            <Position>
              <LatitudeDegrees>38.56384911574423313140869140625</LatitudeDegrees>
              <LongitudeDegrees>-6.349959187209606170654296875</LongitudeDegrees>
            </Position>
            <AltitudeMeters>383.79998779296875</AltitudeMeters>
            <DistanceMeters>NAN</DistanceMeters>
          </Trackpoint>
          <Trackpoint>
            <Time>2019-10-09T12:20:23.000Z</Time>
            <Position>
              <LatitudeDegrees>38.5635585151612758636474609375</LatitudeDegrees>
              <LongitudeDegrees>-6.349977962672710418701171875</LongitudeDegrees>
            </Position>
            <AltitudeMeters>383.399993896484375</AltitudeMeters>
            <DistanceMeters>NAN</DistanceMeters>
          </Trackpoint>
          <Trackpoint>
            <Time>2019-10-09T12:20:32.000Z</Time>
            <Position>
              <LatitudeDegrees>38.5630296170711517333984375</LatitudeDegrees>
              <LongitudeDegrees>-6.350015513598918914794921875</LongitudeDegrees>
            </Position>
            <AltitudeMeters>383.20001220703125</AltitudeMeters>
            <DistanceMeters>NAN</DistanceMeters>
          </Trackpoint>
          <Trackpoint>
            <Time>2019-10-09T12:20:34.000Z</Time>
            <Position>
              <LatitudeDegrees>38.562915287911891937255859375</LatitudeDegrees>
              <LongitudeDegrees>-6.3500280864536762237548828125</LongitudeDegrees>
            </Position>
            <AltitudeMeters>383.20001220703125</AltitudeMeters>
            <DistanceMeters>NAN</DistanceMeters>
          </Trackpoint>
          <Trackpoint>
            <Time>2019-10-09T12:20:41.000Z</Time>
            <Position>
              <LatitudeDegrees>38.56251664459705352783203125</LatitudeDegrees>
              <LongitudeDegrees>-6.35005281306803226470947265625</LongitudeDegrees>
            </Position>
            <AltitudeMeters>383.20001220703125</AltitudeMeters>
            <DistanceMeters>NAN</DistanceMeters>
          </Trackpoint>
          <Trackpoint>
            <Time>2019-10-09T12:20:44.000Z</Time>
            <Position>
              <LatitudeDegrees>38.562342636287212371826171875</LatitudeDegrees>
              <LongitudeDegrees>-6.35006756521761417388916015625</LongitudeDegrees>
            </Position>
            <AltitudeMeters>383</AltitudeMeters>
            <DistanceMeters>NAN</DistanceMeters>
          </Trackpoint>
          <Trackpoint>
            <Time>2019-10-09T12:20:54.000Z</Time>
            <Position>
              <LatitudeDegrees>38.5617885924875736236572265625</LatitudeDegrees>
              <LongitudeDegrees>-6.3501058705151081085205078125</LongitudeDegrees>
            </Position>
            <AltitudeMeters>384.20001220703125</AltitudeMeters>
            <DistanceMeters>NAN</DistanceMeters>
          </Trackpoint>
          <Trackpoint>
            <Time>2019-10-09T12:20:56.000Z</Time>
            <Position>
              <LatitudeDegrees>38.56167853809893131256103515625</LatitudeDegrees>
              <LongitudeDegrees>-6.35011182166635990142822265625</LongitudeDegrees>
            </Position>
            <AltitudeMeters>384.399993896484375</AltitudeMeters>
            <DistanceMeters>NAN</DistanceMeters>
          </Trackpoint>
          <Trackpoint>
            <Time>2019-10-09T12:20:58.000Z</Time>
            <Position>
              <LatitudeDegrees>38.56156722642481327056884765625</LatitudeDegrees>
              <LongitudeDegrees>-6.35012037120759487152099609375</LongitudeDegrees>
            </Position>
            <AltitudeMeters>385</AltitudeMeters>
            <DistanceMeters>NAN</DistanceMeters>
          </Trackpoint>
          <Trackpoint>
            <Time>2019-10-09T12:21:07.000Z</Time>
            <Position>
              <LatitudeDegrees>38.56108023785054683685302734375</LatitudeDegrees>
              <LongitudeDegrees>-6.350151635706424713134765625</LongitudeDegrees>
            </Position>
            <AltitudeMeters>385.600006103515625</AltitudeMeters>
            <DistanceMeters>NAN</DistanceMeters>
          </Trackpoint>
          <Trackpoint>
            <Time>2019-10-09T12:21:16.000Z</Time>
            <Position>
              <LatitudeDegrees>38.5605775751173496246337890625</LatitudeDegrees>
              <LongitudeDegrees>-6.35018147528171539306640625</LongitudeDegrees>
            </Position>
            <AltitudeMeters>386.20001220703125</AltitudeMeters>
            <DistanceMeters>NAN</DistanceMeters>
          </Trackpoint>
          <Trackpoint>
            <Time>2019-10-09T12:21:21.000Z</Time>
            <Position>
              <LatitudeDegrees>38.56029937975108623504638671875</LatitudeDegrees>
              <LongitudeDegrees>-6.35019144974648952484130859375</LongitudeDegrees>
            </Position>
            <AltitudeMeters>387.399993896484375</AltitudeMeters>
            <DistanceMeters>NAN</DistanceMeters>
          </Trackpoint>
          <Trackpoint>
            <Time>2019-10-09T12:21:24.000Z</Time>
            <Position>
              <LatitudeDegrees>38.56014599092304706573486328125</LatitudeDegrees>
              <LongitudeDegrees>-6.3501886837184429168701171875</LongitudeDegrees>
            </Position>
            <AltitudeMeters>387.399993896484375</AltitudeMeters>
            <DistanceMeters>NAN</DistanceMeters>
          </Trackpoint>
          <Trackpoint>
            <Time>2019-10-09T12:21:31.000Z</Time>
            <Position>
              <LatitudeDegrees>38.55979411862790584564208984375</LatitudeDegrees>
              <LongitudeDegrees>-6.35018013417720794677734375</LongitudeDegrees>
            </Position>
            <AltitudeMeters>388</AltitudeMeters>
            <DistanceMeters>NAN</DistanceMeters>
          </Trackpoint>
          <Trackpoint>
            <Time>2019-10-09T12:21:32.000Z</Time>
            <Position>
              <LatitudeDegrees>38.55976075865328311920166015625</LatitudeDegrees>
              <LongitudeDegrees>-6.3501524738967418670654296875</LongitudeDegrees>
            </Position>
            <AltitudeMeters>387.79998779296875</AltitudeMeters>
            <DistanceMeters>NAN</DistanceMeters>
          </Trackpoint>
          <Trackpoint>
            <Time>2019-10-09T12:21:33.000Z</Time>
            <Position>
              <LatitudeDegrees>38.559758327901363372802734375</LatitudeDegrees>
              <LongitudeDegrees>-6.3501122407615184783935546875</LongitudeDegrees>
            </Position>
            <AltitudeMeters>388.399993896484375</AltitudeMeters>
            <DistanceMeters>NAN</DistanceMeters>
          </Trackpoint>
          <Trackpoint>
            <Time>2019-10-09T12:21:38.000Z</Time>
            <Position>
              <LatitudeDegrees>38.55979395098984241485595703125</LatitudeDegrees>
              <LongitudeDegrees>-6.3499181158840656280517578125</LongitudeDegrees>
            </Position>
            <AltitudeMeters>387.79998779296875</AltitudeMeters>
            <DistanceMeters>NAN</DistanceMeters>
          </Trackpoint>
          <Trackpoint>
            <Time>2019-10-09T12:21:40.000Z</Time>
            <Position>
              <LatitudeDegrees>38.55981574393808841705322265625</LatitudeDegrees>
              <LongitudeDegrees>-6.3498832471668720245361328125</LongitudeDegrees>
            </Position>
            <AltitudeMeters>387</AltitudeMeters>
            <DistanceMeters>NAN</DistanceMeters>
          </Trackpoint>
          <Trackpoint>
            <Time>2019-10-09T12:21:41.000Z</Time>
            <Position>
              <LatitudeDegrees>38.55981993488967418670654296875</LatitudeDegrees>
              <LongitudeDegrees>-6.34987344034016132354736328125</LongitudeDegrees>
            </Position>
            <AltitudeMeters>387</AltitudeMeters>
            <DistanceMeters>NAN</DistanceMeters>
          </Trackpoint>
          <Trackpoint>
            <Time>2019-10-09T12:21:42.000Z</Time>
            <Position>
              <LatitudeDegrees>38.5598228685557842254638671875</LatitudeDegrees>
              <LongitudeDegrees>-6.34986254386603832244873046875</LongitudeDegrees>
            </Position>
            <AltitudeMeters>387.20001220703125</AltitudeMeters>
            <DistanceMeters>NAN</DistanceMeters>
          </Trackpoint>
          <Trackpoint>
            <Time>2019-10-09T12:25:44.000Z</Time>
            <Position>
              <LatitudeDegrees>38.55994516052305698394775390625</LatitudeDegrees>
              <LongitudeDegrees>-6.349878720939159393310546875</LongitudeDegrees>
            </Position>
            <AltitudeMeters>387.399993896484375</AltitudeMeters>
            <DistanceMeters>NAN</DistanceMeters>
          </Trackpoint>
          <Trackpoint>
            <Time>2019-10-09T12:25:45.000Z</Time>
            <Position>
              <LatitudeDegrees>38.55998287908732891082763671875</LatitudeDegrees>
              <LongitudeDegrees>-6.34987168014049530029296875</LongitudeDegrees>
            </Position>
            <AltitudeMeters>387.399993896484375</AltitudeMeters>
            <DistanceMeters>NAN</DistanceMeters>
          </Trackpoint>
          <Trackpoint>
            <Time>2019-10-09T12:25:46.000Z</Time>
            <Position>
              <LatitudeDegrees>38.56002487242221832275390625</LatitudeDegrees>
              <LongitudeDegrees>-6.3498772121965885162353515625</LongitudeDegrees>
            </Position>
            <AltitudeMeters>387</AltitudeMeters>
            <DistanceMeters>NAN</DistanceMeters>
          </Trackpoint>
          <Trackpoint>
            <Time>2019-10-09T12:25:47.000Z</Time>
            <Position>
              <LatitudeDegrees>38.56005982495844364166259765625</LatitudeDegrees>
              <LongitudeDegrees>-6.34989808313548564910888671875</LongitudeDegrees>
            </Position>
            <AltitudeMeters>387</AltitudeMeters>
            <DistanceMeters>NAN</DistanceMeters>
          </Trackpoint>
          <Trackpoint>
            <Time>2019-10-09T12:25:49.000Z</Time>
            <Position>
              <LatitudeDegrees>38.56009972281754016876220703125</LatitudeDegrees>
              <LongitudeDegrees>-6.3499675691127777099609375</LongitudeDegrees>
            </Position>
            <AltitudeMeters>387.399993896484375</AltitudeMeters>
            <DistanceMeters>NAN</DistanceMeters>
          </Trackpoint>
          <Trackpoint>
            <Time>2019-10-09T12:25:53.000Z</Time>
            <Position>
              <LatitudeDegrees>38.56014766730368137359619140625</LatitudeDegrees>
              <LongitudeDegrees>-6.350081898272037506103515625</LongitudeDegrees>
            </Position>
            <AltitudeMeters>388</AltitudeMeters>
            <DistanceMeters>NAN</DistanceMeters>
          </Trackpoint>
          <Trackpoint>
            <Time>2019-10-09T12:25:54.000Z</Time>
            <Position>
              <LatitudeDegrees>38.56015638448297977447509765625</LatitudeDegrees>
              <LongitudeDegrees>-6.35010159574449062347412109375</LongitudeDegrees>
            </Position>
            <AltitudeMeters>388.20001220703125</AltitudeMeters>
            <DistanceMeters>NAN</DistanceMeters>
          </Trackpoint>
          <Trackpoint>
            <Time>2019-10-09T12:25:55.000Z</Time>
            <Position>
              <LatitudeDegrees>38.5601625032722949981689453125</LatitudeDegrees>
              <LongitudeDegrees>-6.350121460855007171630859375</LongitudeDegrees>
            </Position>
            <AltitudeMeters>388.20001220703125</AltitudeMeters>
            <DistanceMeters>NAN</DistanceMeters>
          </Trackpoint>
          <Trackpoint>
            <Time>2019-10-09T12:25:58.000Z</Time>
            <Position>
              <LatitudeDegrees>38.56011464260518550872802734375</LatitudeDegrees>
              <LongitudeDegrees>-6.350186504423618316650390625</LongitudeDegrees>
            </Position>
            <AltitudeMeters>388.20001220703125</AltitudeMeters>
            <DistanceMeters>NAN</DistanceMeters>
          </Trackpoint>
          <Trackpoint>
            <Time>2019-10-09T12:26:01.000Z</Time>
            <Position>
              <LatitudeDegrees>38.55999670922756195068359375</LatitudeDegrees>
              <LongitudeDegrees>-6.3502116501331329345703125</LongitudeDegrees>
            </Position>
            <AltitudeMeters>388.600006103515625</AltitudeMeters>
            <DistanceMeters>NAN</DistanceMeters>
          </Trackpoint>
          <Trackpoint>
            <Time>2019-10-09T12:26:02.000Z</Time>
            <Position>
              <LatitudeDegrees>38.55995471589267253875732421875</LatitudeDegrees>
              <LongitudeDegrees>-6.3502118177711963653564453125</LongitudeDegrees>
            </Position>
            <AltitudeMeters>388.600006103515625</AltitudeMeters>
            <DistanceMeters>NAN</DistanceMeters>
          </Trackpoint>
          <Trackpoint>
            <Time>2019-10-09T12:26:05.000Z</Time>
            <Position>
              <LatitudeDegrees>38.55982680805027484893798828125</LatitudeDegrees>
              <LongitudeDegrees>-6.35020804591476917266845703125</LongitudeDegrees>
            </Position>
            <AltitudeMeters>388.79998779296875</AltitudeMeters>
            <DistanceMeters>NAN</DistanceMeters>
          </Trackpoint>
          <Trackpoint>
            <Time>2019-10-09T12:26:09.000Z</Time>
            <Position>
              <LatitudeDegrees>38.5596552304923534393310546875</LatitudeDegrees>
              <LongitudeDegrees>-6.350199244916439056396484375</LongitudeDegrees>
            </Position>
            <AltitudeMeters>389.20001220703125</AltitudeMeters>
            <DistanceMeters>NAN</DistanceMeters>
          </Trackpoint>
          <Trackpoint>
            <Time>2019-10-09T12:26:12.000Z</Time>
            <Position>
              <LatitudeDegrees>38.5595214553177356719970703125</LatitudeDegrees>
              <LongitudeDegrees>-6.35019513778388500213623046875</LongitudeDegrees>
            </Position>
            <AltitudeMeters>389.20001220703125</AltitudeMeters>
            <DistanceMeters>NAN</DistanceMeters>
          </Trackpoint>
          <Trackpoint>
            <Time>2019-10-09T12:26:19.000Z</Time>
            <Position>
              <LatitudeDegrees>38.55920705012977123260498046875</LatitudeDegrees>
              <LongitudeDegrees>-6.350177787244319915771484375</LongitudeDegrees>
            </Position>
            <AltitudeMeters>389.79998779296875</AltitudeMeters>
            <DistanceMeters>NAN</DistanceMeters>
          </Trackpoint>
          <Trackpoint>
            <Time>2019-10-09T12:26:20.000Z</Time>
            <Position>
              <LatitudeDegrees>38.55915986001491546630859375</LatitudeDegrees>
              <LongitudeDegrees>-6.35017720051109790802001953125</LongitudeDegrees>
            </Position>
            <AltitudeMeters>389.79998779296875</AltitudeMeters>
            <DistanceMeters>NAN</DistanceMeters>
          </Trackpoint>
          <Trackpoint>
            <Time>2019-10-09T12:26:26.000Z</Time>
            <Position>
              <LatitudeDegrees>38.55888417921960353851318359375</LatitudeDegrees>
              <LongitudeDegrees>-6.3501625321805477142333984375</LongitudeDegrees>
            </Position>
            <AltitudeMeters>390.600006103515625</AltitudeMeters>
            <DistanceMeters>NAN</DistanceMeters>
          </Trackpoint>
          <Trackpoint>
            <Time>2019-10-09T12:26:32.000Z</Time>
            <Position>
              <LatitudeDegrees>38.55860958807170391082763671875</LatitudeDegrees>
              <LongitudeDegrees>-6.35015088133513927459716796875</LongitudeDegrees>
            </Position>
            <AltitudeMeters>390.600006103515625</AltitudeMeters>
            <DistanceMeters>NAN</DistanceMeters>
          </Trackpoint>
          <Trackpoint>
            <Time>2019-10-09T12:26:42.000Z</Time>
            <Position>
              <LatitudeDegrees>38.55814606882631778717041015625</LatitudeDegrees>
              <LongitudeDegrees>-6.35013009421527385711669921875</LongitudeDegrees>
            </Position>
            <AltitudeMeters>391.600006103515625</AltitudeMeters>
            <DistanceMeters>NAN</DistanceMeters>
          </Trackpoint>
          <Trackpoint>
            <Time>2019-10-09T12:26:44.000Z</Time>
            <Position>
              <LatitudeDegrees>38.558051772415637969970703125</LatitudeDegrees>
              <LongitudeDegrees>-6.350124813616275787353515625</LongitudeDegrees>
            </Position>
            <AltitudeMeters>391.600006103515625</AltitudeMeters>
            <DistanceMeters>NAN</DistanceMeters>
          </Trackpoint>
          <Trackpoint>
            <Time>2019-10-09T12:26:53.000Z</Time>
            <Position>
              <LatitudeDegrees>38.55764265172183513641357421875</LatitudeDegrees>
              <LongitudeDegrees>-6.350105702877044677734375</LongitudeDegrees>
            </Position>
            <AltitudeMeters>392.399993896484375</AltitudeMeters>
            <DistanceMeters>NAN</DistanceMeters>
          </Trackpoint>
          <Trackpoint>
            <Time>2019-10-09T12:27:01.000Z</Time>
            <Position>
              <LatitudeDegrees>38.5572787933051586151123046875</LatitudeDegrees>
              <LongitudeDegrees>-6.35009706951677799224853515625</LongitudeDegrees>
            </Position>
            <AltitudeMeters>393</AltitudeMeters>
            <DistanceMeters>NAN</DistanceMeters>
          </Trackpoint>
          <Trackpoint>
            <Time>2019-10-09T12:27:11.000Z</Time>
            <Position>
              <LatitudeDegrees>38.5568097420036792755126953125</LatitudeDegrees>
              <LongitudeDegrees>-6.35012322105467319488525390625</LongitudeDegrees>
            </Position>
            <AltitudeMeters>393.20001220703125</AltitudeMeters>
            <DistanceMeters>NAN</DistanceMeters>
          </Trackpoint>
          <Trackpoint>
            <Time>2019-10-09T12:27:21.000Z</Time>
            <Position>
              <LatitudeDegrees>38.556335158646106719970703125</LatitudeDegrees>
              <LongitudeDegrees>-6.35017032735049724578857421875</LongitudeDegrees>
            </Position>
            <AltitudeMeters>393.399993896484375</AltitudeMeters>
            <DistanceMeters>NAN</DistanceMeters>
          </Trackpoint>
          <Trackpoint>
            <Time>2019-10-09T12:27:30.000Z</Time>
            <Position>
              <LatitudeDegrees>38.55588597245514392852783203125</LatitudeDegrees>
              <LongitudeDegrees>-6.35022162459790706634521484375</LongitudeDegrees>
            </Position>
            <AltitudeMeters>393</AltitudeMeters>
            <DistanceMeters>NAN</DistanceMeters>
          </Trackpoint>
          <Trackpoint>
            <Time>2019-10-09T12:27:32.000Z</Time>
            <Position>
              <LatitudeDegrees>38.5557841323316097259521484375</LatitudeDegrees>
              <LongitudeDegrees>-6.35023453272879123687744140625</LongitudeDegrees>
            </Position>
            <AltitudeMeters>393</AltitudeMeters>
            <DistanceMeters>NAN</DistanceMeters>
          </Trackpoint>
          <Trackpoint>
            <Time>2019-10-09T12:27:34.000Z</Time>
            <Position>
              <LatitudeDegrees>38.55568095110356807708740234375</LatitudeDegrees>
              <LongitudeDegrees>-6.35024878196418285369873046875</LongitudeDegrees>
            </Position>
            <AltitudeMeters>393.20001220703125</AltitudeMeters>
            <DistanceMeters>NAN</DistanceMeters>
          </Trackpoint>
          <Trackpoint>
            <Time>2019-10-09T12:27:39.000Z</Time>
            <Position>
              <LatitudeDegrees>38.5554227046668529510498046875</LatitudeDegrees>
              <LongitudeDegrees>-6.35028080083429813385009765625</LongitudeDegrees>
            </Position>
            <AltitudeMeters>392.600006103515625</AltitudeMeters>
            <DistanceMeters>NAN</DistanceMeters>
          </Trackpoint>
          <Trackpoint>
            <Time>2019-10-09T12:27:47.000Z</Time>
            <Position>
              <LatitudeDegrees>38.5550086386501789093017578125</LatitudeDegrees>
              <LongitudeDegrees>-6.3503274880349636077880859375</LongitudeDegrees>
            </Position>
            <AltitudeMeters>392.399993896484375</AltitudeMeters>
            <DistanceMeters>NAN</DistanceMeters>
          </Trackpoint>
          <Trackpoint>
            <Time>2019-10-09T12:27:49.000Z</Time>
            <Position>
              <LatitudeDegrees>38.554898835718631744384765625</LatitudeDegrees>
              <LongitudeDegrees>-6.35033796541392803192138671875</LongitudeDegrees>
            </Position>
            <AltitudeMeters>392.600006103515625</AltitudeMeters>
            <DistanceMeters>NAN</DistanceMeters>
          </Trackpoint>
          <Trackpoint>
            <Time>2019-10-09T12:27:50.000Z</Time>
            <Position>
              <LatitudeDegrees>38.5548440180718898773193359375</LatitudeDegrees>
              <LongitudeDegrees>-6.3503435812890529632568359375</LongitudeDegrees>
            </Position>
            <AltitudeMeters>392.399993896484375</AltitudeMeters>
            <DistanceMeters>NAN</DistanceMeters>
          </Trackpoint>
          <Trackpoint>
            <Time>2019-10-09T12:27:53.000Z</Time>
            <Position>
              <LatitudeDegrees>38.554678224027156829833984375</LatitudeDegrees>
              <LongitudeDegrees>-6.35036177001893520355224609375</LongitudeDegrees>
            </Position>
            <AltitudeMeters>392.399993896484375</AltitudeMeters>
            <DistanceMeters>NAN</DistanceMeters>
          </Trackpoint>
          <Trackpoint>
            <Time>2019-10-09T12:27:56.000Z</Time>
            <Position>
              <LatitudeDegrees>38.55451268143951892852783203125</LatitudeDegrees>
              <LongitudeDegrees>-6.35038222186267375946044921875</LongitudeDegrees>
            </Position>
            <AltitudeMeters>392.600006103515625</AltitudeMeters>
            <DistanceMeters>NAN</DistanceMeters>
          </Trackpoint>
          <Trackpoint>
            <Time>2019-10-09T12:28:00.000Z</Time>
            <Position>
              <LatitudeDegrees>38.55430640280246734619140625</LatitudeDegrees>
              <LongitudeDegrees>-6.35040183551609516143798828125</LongitudeDegrees>
            </Position>
            <AltitudeMeters>393.20001220703125</AltitudeMeters>
            <DistanceMeters>NAN</DistanceMeters>
          </Trackpoint>
          <Trackpoint>
            <Time>2019-10-09T12:28:03.000Z</Time>
            <Position>
              <LatitudeDegrees>38.554159216582775115966796875</LatitudeDegrees>
              <LongitudeDegrees>-6.35041440837085247039794921875</LongitudeDegrees>
            </Position>
            <AltitudeMeters>394</AltitudeMeters>
            <DistanceMeters>NAN</DistanceMeters>
          </Trackpoint>
          <Trackpoint>
            <Time>2019-10-09T12:28:05.000Z</Time>
            <Position>
              <LatitudeDegrees>38.554064333438873291015625</LatitudeDegrees>
              <LongitudeDegrees>-6.3504200242459774017333984375</LongitudeDegrees>
            </Position>
            <AltitudeMeters>394</AltitudeMeters>
            <DistanceMeters>NAN</DistanceMeters>
          </Trackpoint>
          <Trackpoint>
            <Time>2019-10-09T12:28:09.000Z</Time>
            <Position>
              <LatitudeDegrees>38.5538693703711032867431640625</LatitudeDegrees>
              <LongitudeDegrees>-6.350419186055660247802734375</LongitudeDegrees>
            </Position>
            <AltitudeMeters>394.600006103515625</AltitudeMeters>
            <DistanceMeters>NAN</DistanceMeters>
          </Trackpoint>
          <Trackpoint>
            <Time>2019-10-09T12:28:11.000Z</Time>
            <Position>
              <LatitudeDegrees>38.553770296275615692138671875</LatitudeDegrees>
              <LongitudeDegrees>-6.35041750967502593994140625</LongitudeDegrees>
            </Position>
            <AltitudeMeters>395.399993896484375</AltitudeMeters>
            <DistanceMeters>NAN</DistanceMeters>
          </Trackpoint>
          <Trackpoint>
            <Time>2019-10-09T12:28:15.000Z</Time>
            <Position>
              <LatitudeDegrees>38.55356787331402301788330078125</LatitudeDegrees>
              <LongitudeDegrees>-6.35040401481091976165771484375</LongitudeDegrees>
            </Position>
            <AltitudeMeters>395.20001220703125</AltitudeMeters>
            <DistanceMeters>NAN</DistanceMeters>
          </Trackpoint>
          <Trackpoint>
            <Time>2019-10-09T12:28:19.000Z</Time>
            <Position>
              <LatitudeDegrees>38.5533641092479228973388671875</LatitudeDegrees>
              <LongitudeDegrees>-6.35038842447102069854736328125</LongitudeDegrees>
            </Position>
            <AltitudeMeters>395.600006103515625</AltitudeMeters>
            <DistanceMeters>NAN</DistanceMeters>
          </Trackpoint>
          <Trackpoint>
            <Time>2019-10-09T12:28:24.000Z</Time>
            <Position>
              <LatitudeDegrees>38.55315699242055416107177734375</LatitudeDegrees>
              <LongitudeDegrees>-6.3503740914165973663330078125</LongitudeDegrees>
            </Position>
            <AltitudeMeters>395.600006103515625</AltitudeMeters>
            <DistanceMeters>NAN</DistanceMeters>
          </Trackpoint>
          <Trackpoint>
            <Time>2019-10-09T12:28:30.000Z</Time>
            <Position>
              <LatitudeDegrees>38.5528427548706531524658203125</LatitudeDegrees>
              <LongitudeDegrees>-6.35034852661192417144775390625</LongitudeDegrees>
            </Position>
            <AltitudeMeters>395.600006103515625</AltitudeMeters>
            <DistanceMeters>NAN</DistanceMeters>
          </Trackpoint>
          <Trackpoint>
            <Time>2019-10-09T12:28:39.000Z</Time>
            <Position>
              <LatitudeDegrees>38.5523544251918792724609375</LatitudeDegrees>
              <LongitudeDegrees>-6.35031290352344512939453125</LongitudeDegrees>
            </Position>
            <AltitudeMeters>396.399993896484375</AltitudeMeters>
            <DistanceMeters>NAN</DistanceMeters>
          </Trackpoint>
          <Trackpoint>
            <Time>2019-10-09T12:28:40.000Z</Time>
            <Position>
              <LatitudeDegrees>38.552299439907073974609375</LatitudeDegrees>
              <LongitudeDegrees>-6.3503077067434787750244140625</LongitudeDegrees>
            </Position>
            <AltitudeMeters>396.399993896484375</AltitudeMeters>
            <DistanceMeters>NAN</DistanceMeters>
          </Trackpoint>
          <Trackpoint>
            <Time>2019-10-09T12:28:47.000Z</Time>
            <Position>
              <LatitudeDegrees>38.55191378854215145111083984375</LatitudeDegrees>
              <LongitudeDegrees>-6.3502792082726955413818359375</LongitudeDegrees>
            </Position>
            <AltitudeMeters>395.79998779296875</AltitudeMeters>
            <DistanceMeters>NAN</DistanceMeters>
          </Trackpoint>
          <Trackpoint>
            <Time>2019-10-09T12:28:49.000Z</Time>
            <Position>
              <LatitudeDegrees>38.551802225410938262939453125</LatitudeDegrees>
              <LongitudeDegrees>-6.35027074255049228668212890625</LongitudeDegrees>
            </Position>
            <AltitudeMeters>395.79998779296875</AltitudeMeters>
            <DistanceMeters>NAN</DistanceMeters>
          </Trackpoint>
          <Trackpoint>
            <Time>2019-10-09T12:28:56.000Z</Time>
            <Position>
              <LatitudeDegrees>38.5514191724359989166259765625</LatitudeDegrees>
              <LongitudeDegrees>-6.3502383045852184295654296875</LongitudeDegrees>
            </Position>
            <AltitudeMeters>396.399993896484375</AltitudeMeters>
            <DistanceMeters>NAN</DistanceMeters>
          </Trackpoint>
          <Trackpoint>
            <Time>2019-10-09T12:29:02.000Z</Time>
            <Position>
              <LatitudeDegrees>38.55109537951648235321044921875</LatitudeDegrees>
              <LongitudeDegrees>-6.350211314857006072998046875</LongitudeDegrees>
            </Position>
            <AltitudeMeters>396.79998779296875</AltitudeMeters>
            <DistanceMeters>NAN</DistanceMeters>
          </Trackpoint>
          <Trackpoint>
            <Time>2019-10-09T12:29:07.000Z</Time>
            <Position>
              <LatitudeDegrees>38.55082799680531024932861328125</LatitudeDegrees>
              <LongitudeDegrees>-6.3501893542706966400146484375</LongitudeDegrees>
            </Position>
            <AltitudeMeters>397.399993896484375</AltitudeMeters>
            <DistanceMeters>NAN</DistanceMeters>
          </Trackpoint>
          <Trackpoint>
            <Time>2019-10-09T12:29:12.000Z</Time>
            <Position>
              <LatitudeDegrees>38.550557680428028106689453125</LatitudeDegrees>
              <LongitudeDegrees>-6.35017032735049724578857421875</LongitudeDegrees>
            </Position>
            <AltitudeMeters>397.399993896484375</AltitudeMeters>
            <DistanceMeters>NAN</DistanceMeters>
          </Trackpoint>
          <Trackpoint>
            <Time>2019-10-09T12:29:21.000Z</Time>
            <Position>
              <LatitudeDegrees>38.55006457306444644927978515625</LatitudeDegrees>
              <LongitudeDegrees>-6.35014182887971401214599609375</LongitudeDegrees>
            </Position>
            <AltitudeMeters>397.600006103515625</AltitudeMeters>
            <DistanceMeters>NAN</DistanceMeters>
          </Trackpoint>
          <Trackpoint>
            <Time>2019-10-09T12:29:28.000Z</Time>
            <Position>
              <LatitudeDegrees>38.54963676072657108306884765625</LatitudeDegrees>
              <LongitudeDegrees>-6.35019044391810894012451171875</LongitudeDegrees>
            </Position>
            <AltitudeMeters>397</AltitudeMeters>
            <DistanceMeters>NAN</DistanceMeters>
          </Trackpoint>
          <Trackpoint>
            <Time>2019-10-09T12:29:30.000Z</Time>
            <Position>
              <LatitudeDegrees>38.54950348846614360809326171875</LatitudeDegrees>
              <LongitudeDegrees>-6.35022246278822422027587890625</LongitudeDegrees>
            </Position>
            <AltitudeMeters>396.399993896484375</AltitudeMeters>
            <DistanceMeters>NAN</DistanceMeters>
          </Trackpoint>
          <Trackpoint>
            <Time>2019-10-09T12:29:35.000Z</Time>
            <Position>
              <LatitudeDegrees>38.5491657815873622894287109375</LatitudeDegrees>
              <LongitudeDegrees>-6.3503251411020755767822265625</LongitudeDegrees>
            </Position>
            <AltitudeMeters>396</AltitudeMeters>
            <DistanceMeters>NAN</DistanceMeters>
          </Trackpoint>
          <Trackpoint>
            <Time>2019-10-09T12:29:36.000Z</Time>
            <Position>
              <LatitudeDegrees>38.5490970499813556671142578125</LatitudeDegrees>
              <LongitudeDegrees>-6.3503469340503215789794921875</LongitudeDegrees>
            </Position>
            <AltitudeMeters>395.600006103515625</AltitudeMeters>
            <DistanceMeters>NAN</DistanceMeters>
          </Trackpoint>
          <Trackpoint>
            <Time>2019-10-09T12:29:41.000Z</Time>
            <Position>
              <LatitudeDegrees>38.5487523861229419708251953125</LatitudeDegrees>
              <LongitudeDegrees>-6.3504515402019023895263671875</LongitudeDegrees>
            </Position>
            <AltitudeMeters>395.20001220703125</AltitudeMeters>
            <DistanceMeters>NAN</DistanceMeters>
          </Trackpoint>
          <Trackpoint>
            <Time>2019-10-09T12:29:45.000Z</Time>
            <Position>
              <LatitudeDegrees>38.54848609305918216705322265625</LatitudeDegrees>
              <LongitudeDegrees>-6.3505293242633342742919921875</LongitudeDegrees>
            </Position>
            <AltitudeMeters>395.399993896484375</AltitudeMeters>
            <DistanceMeters>NAN</DistanceMeters>
          </Trackpoint>
          <Trackpoint>
            <Time>2019-10-09T12:29:53.000Z</Time>
            <Position>
              <LatitudeDegrees>38.548003546893596649169921875</LatitudeDegrees>
              <LongitudeDegrees>-6.35068044997751712799072265625</LongitudeDegrees>
            </Position>
            <AltitudeMeters>395.600006103515625</AltitudeMeters>
            <DistanceMeters>NAN</DistanceMeters>
          </Trackpoint>
          <Trackpoint>
            <Time>2019-10-09T12:29:56.000Z</Time>
            <Position>
              <LatitudeDegrees>38.5478322207927703857421875</LatitudeDegrees>
              <LongitudeDegrees>-6.35073040612041950225830078125</LongitudeDegrees>
            </Position>
            <AltitudeMeters>396.20001220703125</AltitudeMeters>
            <DistanceMeters>NAN</DistanceMeters>
          </Trackpoint>
          <Trackpoint>
            <Time>2019-10-09T12:30:01.000Z</Time>
            <Position>
              <LatitudeDegrees>38.54755721054971218109130859375</LatitudeDegrees>
              <LongitudeDegrees>-6.35081741027534008026123046875</LongitudeDegrees>
            </Position>
            <AltitudeMeters>397.20001220703125</AltitudeMeters>
            <DistanceMeters>NAN</DistanceMeters>
          </Trackpoint>
          <Trackpoint>
            <Time>2019-10-09T12:30:02.000Z</Time>
            <Position>
              <LatitudeDegrees>38.547503985464572906494140625</LatitudeDegrees>
              <LongitudeDegrees>-6.3508324138820171356201171875</LongitudeDegrees>
            </Position>
            <AltitudeMeters>397.20001220703125</AltitudeMeters>
            <DistanceMeters>NAN</DistanceMeters>
          </Trackpoint>
          <Trackpoint>
            <Time>2019-10-09T12:30:12.000Z</Time>
            <Position>
              <LatitudeDegrees>38.54695388115942478179931640625</LatitudeDegrees>
              <LongitudeDegrees>-6.35098471306264400482177734375</LongitudeDegrees>
            </Position>
            <AltitudeMeters>397.399993896484375</AltitudeMeters>
            <DistanceMeters>NAN</DistanceMeters>
          </Trackpoint>
          <Trackpoint>
            <Time>2019-10-09T12:30:20.000Z</Time>
            <Position>
              <LatitudeDegrees>38.546468317508697509765625</LatitudeDegrees>
              <LongitudeDegrees>-6.35105025954544544219970703125</LongitudeDegrees>
            </Position>
            <AltitudeMeters>396.600006103515625</AltitudeMeters>
            <DistanceMeters>NAN</DistanceMeters>
          </Trackpoint>
          <Trackpoint>
            <Time>2019-10-09T12:30:23.000Z</Time>
            <Position>
              <LatitudeDegrees>38.54627679102122783660888671875</LatitudeDegrees>
              <LongitudeDegrees>-6.35105243884027004241943359375</LongitudeDegrees>
            </Position>
            <AltitudeMeters>396.20001220703125</AltitudeMeters>
            <DistanceMeters>NAN</DistanceMeters>
          </Trackpoint>
          <Trackpoint>
            <Time>2019-10-09T12:30:29.000Z</Time>
            <Position>
              <LatitudeDegrees>38.54590161703526973724365234375</LatitudeDegrees>
              <LongitudeDegrees>-6.3510500080883502960205078125</LongitudeDegrees>
            </Position>
            <AltitudeMeters>396.600006103515625</AltitudeMeters>
            <DistanceMeters>NAN</DistanceMeters>
          </Trackpoint>
          <Trackpoint>
            <Time>2019-10-09T12:30:37.000Z</Time>
            <Position>
              <LatitudeDegrees>38.5454036481678485870361328125</LatitudeDegrees>
              <LongitudeDegrees>-6.35105260647833347320556640625</LongitudeDegrees>
            </Position>
            <AltitudeMeters>396.399993896484375</AltitudeMeters>
            <DistanceMeters>NAN</DistanceMeters>
          </Trackpoint>
          <Trackpoint>
            <Time>2019-10-09T12:30:46.000Z</Time>
            <Position>
              <LatitudeDegrees>38.544852621853351593017578125</LatitudeDegrees>
              <LongitudeDegrees>-6.35105445049703121185302734375</LongitudeDegrees>
            </Position>
            <AltitudeMeters>396.600006103515625</AltitudeMeters>
            <DistanceMeters>NAN</DistanceMeters>
          </Trackpoint>
          <Trackpoint>
            <Time>2019-10-09T12:30:48.000Z</Time>
            <Position>
              <LatitudeDegrees>38.54472731240093708038330078125</LatitudeDegrees>
              <LongitudeDegrees>-6.351056210696697235107421875</LongitudeDegrees>
            </Position>
            <AltitudeMeters>396.79998779296875</AltitudeMeters>
            <DistanceMeters>NAN</DistanceMeters>
          </Trackpoint>
          <Trackpoint>
            <Time>2019-10-09T12:30:53.000Z</Time>
            <Position>
              <LatitudeDegrees>38.5444204509258270263671875</LatitudeDegrees>
              <LongitudeDegrees>-6.351055204868316650390625</LongitudeDegrees>
            </Position>
            <AltitudeMeters>397.399993896484375</AltitudeMeters>
            <DistanceMeters>NAN</DistanceMeters>
          </Trackpoint>
          <Trackpoint>
            <Time>2019-10-09T12:30:58.000Z</Time>
            <Position>
              <LatitudeDegrees>38.544115014374256134033203125</LatitudeDegrees>
              <LongitudeDegrees>-6.35105612687766551971435546875</LongitudeDegrees>
            </Position>
            <AltitudeMeters>397.20001220703125</AltitudeMeters>
            <DistanceMeters>NAN</DistanceMeters>
          </Trackpoint>
          <Trackpoint>
            <Time>2019-10-09T12:31:07.000Z</Time>
            <Position>
              <LatitudeDegrees>38.54356423951685428619384765625</LatitudeDegrees>
              <LongitudeDegrees>-6.351049840450286865234375</LongitudeDegrees>
            </Position>
            <AltitudeMeters>397.79998779296875</AltitudeMeters>
            <DistanceMeters>NAN</DistanceMeters>
          </Trackpoint>
          <Trackpoint>
            <Time>2019-10-09T12:31:15.000Z</Time>
            <Position>
              <LatitudeDegrees>38.54306702502071857452392578125</LatitudeDegrees>
              <LongitudeDegrees>-6.35105377994477748870849609375</LongitudeDegrees>
            </Position>
            <AltitudeMeters>397.79998779296875</AltitudeMeters>
            <DistanceMeters>NAN</DistanceMeters>
          </Trackpoint>
          <Trackpoint>
            <Time>2019-10-09T12:31:20.000Z</Time>
            <Position>
              <LatitudeDegrees>38.54276594705879688262939453125</LatitudeDegrees>
              <LongitudeDegrees>-6.35105478577315807342529296875</LongitudeDegrees>
            </Position>
            <AltitudeMeters>398.399993896484375</AltitudeMeters>
            <DistanceMeters>NAN</DistanceMeters>
          </Trackpoint>
          <Trackpoint>
            <Time>2019-10-09T12:31:23.000Z</Time>
            <Position>
              <LatitudeDegrees>38.5425903461873531341552734375</LatitudeDegrees>
              <LongitudeDegrees>-6.3510526902973651885986328125</LongitudeDegrees>
            </Position>
            <AltitudeMeters>398.399993896484375</AltitudeMeters>
            <DistanceMeters>NAN</DistanceMeters>
          </Trackpoint>
          <Trackpoint>
            <Time>2019-10-09T12:31:31.000Z</Time>
            <Position>
              <LatitudeDegrees>38.54214468039572238922119140625</LatitudeDegrees>
              <LongitudeDegrees>-6.3510565459728240966796875</LongitudeDegrees>
            </Position>
            <AltitudeMeters>399.399993896484375</AltitudeMeters>
            <DistanceMeters>NAN</DistanceMeters>
          </Trackpoint>
          <Trackpoint>
            <Time>2019-10-09T12:31:33.000Z</Time>
            <Position>
              <LatitudeDegrees>38.54203957132995128631591796875</LatitudeDegrees>
              <LongitudeDegrees>-6.3510525226593017578125</LongitudeDegrees>
            </Position>
            <AltitudeMeters>400.20001220703125</AltitudeMeters>
            <DistanceMeters>NAN</DistanceMeters>
          </Trackpoint>
          <Trackpoint>
            <Time>2019-10-09T12:31:37.000Z</Time>
            <Position>
              <LatitudeDegrees>38.54184812866151332855224609375</LatitudeDegrees>
              <LongitudeDegrees>-6.3510503433644771575927734375</LongitudeDegrees>
            </Position>
            <AltitudeMeters>400.600006103515625</AltitudeMeters>
            <DistanceMeters>NAN</DistanceMeters>
          </Trackpoint>
          <Trackpoint>
            <Time>2019-10-09T12:31:41.000Z</Time>
            <Position>
              <LatitudeDegrees>38.541664816439151763916015625</LatitudeDegrees>
              <LongitudeDegrees>-6.35104740969836711883544921875</LongitudeDegrees>
            </Position>
            <AltitudeMeters>400.79998779296875</AltitudeMeters>
            <DistanceMeters>NAN</DistanceMeters>
          </Trackpoint>
          <Trackpoint>
            <Time>2019-10-09T12:31:45.000Z</Time>
            <Position>
              <LatitudeDegrees>38.5414856113493442535400390625</LatitudeDegrees>
              <LongitudeDegrees>-6.351045481860637664794921875</LongitudeDegrees>
            </Position>
            <AltitudeMeters>401.600006103515625</AltitudeMeters>
            <DistanceMeters>NAN</DistanceMeters>
          </Trackpoint>
          <Trackpoint>
            <Time>2019-10-09T12:31:49.000Z</Time>
            <Position>
              <LatitudeDegrees>38.5413072444498538970947265625</LatitudeDegrees>
              <LongitudeDegrees>-6.35104355402290821075439453125</LongitudeDegrees>
            </Position>
            <AltitudeMeters>401.600006103515625</AltitudeMeters>
            <DistanceMeters>NAN</DistanceMeters>
          </Trackpoint>
          <Trackpoint>
            <Time>2019-10-09T12:31:58.000Z</Time>
            <Position>
              <LatitudeDegrees>38.54090700857341289520263671875</LatitudeDegrees>
              <LongitudeDegrees>-6.35108135640621185302734375</LongitudeDegrees>
            </Position>
            <AltitudeMeters>402.79998779296875</AltitudeMeters>
            <DistanceMeters>NAN</DistanceMeters>
          </Trackpoint>
          <Trackpoint>
            <Time>2019-10-09T12:31:59.000Z</Time>
            <Position>
              <LatitudeDegrees>38.5408609919250011444091796875</LatitudeDegrees>
              <LongitudeDegrees>-6.35108931921422481536865234375</LongitudeDegrees>
            </Position>
            <AltitudeMeters>403</AltitudeMeters>
            <DistanceMeters>NAN</DistanceMeters>
          </Trackpoint>
          <Trackpoint>
            <Time>2019-10-09T12:32:09.000Z</Time>
            <Position>
              <LatitudeDegrees>38.5403835587203502655029296875</LatitudeDegrees>
              <LongitudeDegrees>-6.35118059813976287841796875</LongitudeDegrees>
            </Position>
            <AltitudeMeters>402.79998779296875</AltitudeMeters>
            <DistanceMeters>NAN</DistanceMeters>
          </Trackpoint>
          <Trackpoint>
            <Time>2019-10-09T12:32:18.000Z</Time>
            <Position>
              <LatitudeDegrees>38.53993018157780170440673828125</LatitudeDegrees>
              <LongitudeDegrees>-6.35127573274075984954833984375</LongitudeDegrees>
            </Position>
            <AltitudeMeters>403</AltitudeMeters>
            <DistanceMeters>NAN</DistanceMeters>
          </Trackpoint>
          <Trackpoint>
            <Time>2019-10-09T12:32:27.000Z</Time>
            <Position>
              <LatitudeDegrees>38.5394320450723171234130859375</LatitudeDegrees>
              <LongitudeDegrees>-6.35137908160686492919921875</LongitudeDegrees>
            </Position>
            <AltitudeMeters>402.600006103515625</AltitudeMeters>
            <DistanceMeters>NAN</DistanceMeters>
          </Trackpoint>
          <Trackpoint>
            <Time>2019-10-09T12:32:37.000Z</Time>
            <Position>
              <LatitudeDegrees>38.53888428770005702972412109375</LatitudeDegrees>
              <LongitudeDegrees>-6.35147354565560817718505859375</LongitudeDegrees>
            </Position>
            <AltitudeMeters>403.20001220703125</AltitudeMeters>
            <DistanceMeters>NAN</DistanceMeters>
          </Trackpoint>
          <Trackpoint>
            <Time>2019-10-09T12:32:42.000Z</Time>
            <Position>
              <LatitudeDegrees>38.5386149771511554718017578125</LatitudeDegrees>
              <LongitudeDegrees>-6.3514965958893299102783203125</LongitudeDegrees>
            </Position>
            <AltitudeMeters>404.20001220703125</AltitudeMeters>
            <DistanceMeters>NAN</DistanceMeters>
          </Trackpoint>
          <Trackpoint>
            <Time>2019-10-09T12:32:45.000Z</Time>
            <Position>
              <LatitudeDegrees>38.5384614206850528717041015625</LatitudeDegrees>
              <LongitudeDegrees>-6.35149131529033184051513671875</LongitudeDegrees>
            </Position>
            <AltitudeMeters>404.79998779296875</AltitudeMeters>
            <DistanceMeters>NAN</DistanceMeters>
          </Trackpoint>
          <Trackpoint>
            <Time>2019-10-09T12:32:47.000Z</Time>
            <Position>
              <LatitudeDegrees>38.5383588261902332305908203125</LatitudeDegrees>
              <LongitudeDegrees>-6.351490058004856109619140625</LongitudeDegrees>
            </Position>
            <AltitudeMeters>405.399993896484375</AltitudeMeters>
            <DistanceMeters>NAN</DistanceMeters>
          </Trackpoint>
          <Trackpoint>
            <Time>2019-10-09T12:32:52.000Z</Time>
            <Position>
              <LatitudeDegrees>38.5380959697067737579345703125</LatitudeDegrees>
              <LongitudeDegrees>-6.35146013461053371429443359375</LongitudeDegrees>
            </Position>
            <AltitudeMeters>405.79998779296875</AltitudeMeters>
            <DistanceMeters>NAN</DistanceMeters>
          </Trackpoint>
          <Trackpoint>
            <Time>2019-10-09T12:32:56.000Z</Time>
            <Position>
              <LatitudeDegrees>38.537886254489421844482421875</LatitudeDegrees>
              <LongitudeDegrees>-6.35142392478883266448974609375</LongitudeDegrees>
            </Position>
            <AltitudeMeters>406.600006103515625</AltitudeMeters>
            <DistanceMeters>NAN</DistanceMeters>
          </Trackpoint>
          <Trackpoint>
            <Time>2019-10-09T12:33:00.000Z</Time>
            <Position>
              <LatitudeDegrees>38.53767670691013336181640625</LatitudeDegrees>
              <LongitudeDegrees>-6.35138654150068759918212890625</LongitudeDegrees>
            </Position>
            <AltitudeMeters>407.20001220703125</AltitudeMeters>
            <DistanceMeters>NAN</DistanceMeters>
          </Trackpoint>
          <Trackpoint>
            <Time>2019-10-09T12:33:03.000Z</Time>
            <Position>
              <LatitudeDegrees>38.537520468235015869140625</LatitudeDegrees>
              <LongitudeDegrees>-6.351361982524394989013671875</LongitudeDegrees>
            </Position>
            <AltitudeMeters>407.600006103515625</AltitudeMeters>
            <DistanceMeters>NAN</DistanceMeters>
          </Trackpoint>
          <Trackpoint>
            <Time>2019-10-09T12:33:07.000Z</Time>
            <Position>
              <LatitudeDegrees>38.53731787763535976409912109375</LatitudeDegrees>
              <LongitudeDegrees>-6.35132610797882080078125</LongitudeDegrees>
            </Position>
            <AltitudeMeters>408.20001220703125</AltitudeMeters>
            <DistanceMeters>NAN</DistanceMeters>
          </Trackpoint>
          <Trackpoint>
            <Time>2019-10-09T12:33:12.000Z</Time>
            <Position>
              <LatitudeDegrees>38.53705870918929576873779296875</LatitudeDegrees>
              <LongitudeDegrees>-6.35128076188266277313232421875</LongitudeDegrees>
            </Position>
            <AltitudeMeters>408.79998779296875</AltitudeMeters>
            <DistanceMeters>NAN</DistanceMeters>
          </Trackpoint>
          <Trackpoint>
            <Time>2019-10-09T12:33:17.000Z</Time>
            <Position>
              <LatitudeDegrees>38.53679015301167964935302734375</LatitudeDegrees>
              <LongitudeDegrees>-6.3512347452342510223388671875</LongitudeDegrees>
            </Position>
            <AltitudeMeters>409</AltitudeMeters>
            <DistanceMeters>NAN</DistanceMeters>
          </Trackpoint>
          <Trackpoint>
            <Time>2019-10-09T12:33:27.000Z</Time>
            <Position>
              <LatitudeDegrees>38.53626242838799953460693359375</LatitudeDegrees>
              <LongitudeDegrees>-6.35113592259585857391357421875</LongitudeDegrees>
            </Position>
            <AltitudeMeters>409.20001220703125</AltitudeMeters>
            <DistanceMeters>NAN</DistanceMeters>
          </Trackpoint>
          <Trackpoint>
            <Time>2019-10-09T12:33:28.000Z</Time>
            <Position>
              <LatitudeDegrees>38.53620962239801883697509765625</LatitudeDegrees>
              <LongitudeDegrees>-6.351127959787845611572265625</LongitudeDegrees>
            </Position>
            <AltitudeMeters>409.20001220703125</AltitudeMeters>
            <DistanceMeters>NAN</DistanceMeters>
          </Trackpoint>
          <Trackpoint>
            <Time>2019-10-09T12:33:37.000Z</Time>
            <Position>
              <LatitudeDegrees>38.53573537431657314300537109375</LatitudeDegrees>
              <LongitudeDegrees>-6.351022683084011077880859375</LongitudeDegrees>
            </Position>
            <AltitudeMeters>409.79998779296875</AltitudeMeters>
            <DistanceMeters>NAN</DistanceMeters>
          </Trackpoint>
          <Trackpoint>
            <Time>2019-10-09T12:33:47.000Z</Time>
            <Position>
              <LatitudeDegrees>38.53521066717803478240966796875</LatitudeDegrees>
              <LongitudeDegrees>-6.3508625887334346771240234375</LongitudeDegrees>
            </Position>
            <AltitudeMeters>410.20001220703125</AltitudeMeters>
            <DistanceMeters>NAN</DistanceMeters>
          </Trackpoint>
          <Trackpoint>
            <Time>2019-10-09T12:33:50.000Z</Time>
            <Position>
              <LatitudeDegrees>38.5350540094077587127685546875</LatitudeDegrees>
              <LongitudeDegrees>-6.350808106362819671630859375</LongitudeDegrees>
            </Position>
            <AltitudeMeters>410.600006103515625</AltitudeMeters>
            <DistanceMeters>NAN</DistanceMeters>
          </Trackpoint>
          <Trackpoint>
            <Time>2019-10-09T12:33:52.000Z</Time>
            <Position>
              <LatitudeDegrees>38.5349487327039241790771484375</LatitudeDegrees>
              <LongitudeDegrees>-6.350771896541118621826171875</LongitudeDegrees>
            </Position>
            <AltitudeMeters>411</AltitudeMeters>
            <DistanceMeters>NAN</DistanceMeters>
          </Trackpoint>
          <Trackpoint>
            <Time>2019-10-09T12:34:00.000Z</Time>
            <Position>
              <LatitudeDegrees>38.534526787698268890380859375</LatitudeDegrees>
              <LongitudeDegrees>-6.35061121545732021331787109375</LongitudeDegrees>
            </Position>
            <AltitudeMeters>410.79998779296875</AltitudeMeters>
            <DistanceMeters>NAN</DistanceMeters>
          </Trackpoint>
          <Trackpoint>
            <Time>2019-10-09T12:34:06.000Z</Time>
            <Position>
              <LatitudeDegrees>38.53419109247624874114990234375</LatitudeDegrees>
              <LongitudeDegrees>-6.350486576557159423828125</LongitudeDegrees>
            </Position>
            <AltitudeMeters>410.20001220703125</AltitudeMeters>
            <DistanceMeters>NAN</DistanceMeters>
          </Trackpoint>
          <Trackpoint>
            <Time>2019-10-09T12:34:08.000Z</Time>
            <Position>
              <LatitudeDegrees>38.53407206945121288299560546875</LatitudeDegrees>
              <LongitudeDegrees>-6.35043896734714508056640625</LongitudeDegrees>
            </Position>
            <AltitudeMeters>409.79998779296875</AltitudeMeters>
            <DistanceMeters>NAN</DistanceMeters>
          </Trackpoint>
          <Trackpoint>
            <Time>2019-10-09T12:34:09.000Z</Time>
            <Position>
              <LatitudeDegrees>38.5340099595487117767333984375</LatitudeDegrees>
              <LongitudeDegrees>-6.350415833294391632080078125</LongitudeDegrees>
            </Position>
            <AltitudeMeters>409.79998779296875</AltitudeMeters>
            <DistanceMeters>NAN</DistanceMeters>
          </Trackpoint>
          <Trackpoint>
            <Time>2019-10-09T12:34:15.000Z</Time>
            <Position>
              <LatitudeDegrees>38.53362732566893100738525390625</LatitudeDegrees>
              <LongitudeDegrees>-6.350274346768856048583984375</LongitudeDegrees>
            </Position>
            <AltitudeMeters>409.20001220703125</AltitudeMeters>
            <DistanceMeters>NAN</DistanceMeters>
          </Trackpoint>
          <Trackpoint>
            <Time>2019-10-09T12:34:18.000Z</Time>
            <Position>
              <LatitudeDegrees>38.53344208560883998870849609375</LatitudeDegrees>
              <LongitudeDegrees>-6.35020351968705654144287109375</LongitudeDegrees>
            </Position>
            <AltitudeMeters>409.20001220703125</AltitudeMeters>
            <DistanceMeters>NAN</DistanceMeters>
          </Trackpoint>
          <Trackpoint>
            <Time>2019-10-09T12:34:27.000Z</Time>
            <Position>
              <LatitudeDegrees>38.53290832601487636566162109375</LatitudeDegrees>
              <LongitudeDegrees>-6.35000285692512989044189453125</LongitudeDegrees>
            </Position>
            <AltitudeMeters>409.79998779296875</AltitudeMeters>
            <DistanceMeters>NAN</DistanceMeters>
          </Trackpoint>
          <Trackpoint>
            <Time>2019-10-09T12:34:37.000Z</Time>
            <Position>
              <LatitudeDegrees>38.53236601687967777252197265625</LatitudeDegrees>
              <LongitudeDegrees>-6.34980169124901294708251953125</LongitudeDegrees>
            </Position>
            <AltitudeMeters>411</AltitudeMeters>
            <DistanceMeters>NAN</DistanceMeters>
          </Trackpoint>
          <Trackpoint>
            <Time>2019-10-09T12:34:38.000Z</Time>
            <Position>
              <LatitudeDegrees>38.5323137976229190826416015625</LatitudeDegrees>
              <LongitudeDegrees>-6.34978040121495723724365234375</LongitudeDegrees>
            </Position>
            <AltitudeMeters>411</AltitudeMeters>
            <DistanceMeters>NAN</DistanceMeters>
          </Trackpoint>
          <Trackpoint>
            <Time>2019-10-09T12:34:46.000Z</Time>
            <Position>
              <LatitudeDegrees>38.53188925422728061676025390625</LatitudeDegrees>
              <LongitudeDegrees>-6.34962089359760284423828125</LongitudeDegrees>
            </Position>
            <AltitudeMeters>412.20001220703125</AltitudeMeters>
            <DistanceMeters>NAN</DistanceMeters>
          </Trackpoint>
          <Trackpoint>
            <Time>2019-10-09T12:34:48.000Z</Time>
            <Position>
              <LatitudeDegrees>38.5317833907902240753173828125</LatitudeDegrees>
              <LongitudeDegrees>-6.349584348499774932861328125</LongitudeDegrees>
            </Position>
            <AltitudeMeters>412.399993896484375</AltitudeMeters>
            <DistanceMeters>NAN</DistanceMeters>
          </Trackpoint>
          <Trackpoint>
            <Time>2019-10-09T12:34:57.000Z</Time>
            <Position>
              <LatitudeDegrees>38.5313098132610321044921875</LatitudeDegrees>
              <LongitudeDegrees>-6.3494071550667285919189453125</LongitudeDegrees>
            </Position>
            <AltitudeMeters>412.600006103515625</AltitudeMeters>
            <DistanceMeters>NAN</DistanceMeters>
          </Trackpoint>
          <Trackpoint>
            <Time>2019-10-09T12:35:00.000Z</Time>
            <Position>
              <LatitudeDegrees>38.5311513952910900115966796875</LatitudeDegrees>
              <LongitudeDegrees>-6.349356360733509063720703125</LongitudeDegrees>
            </Position>
            <AltitudeMeters>413.399993896484375</AltitudeMeters>
            <DistanceMeters>NAN</DistanceMeters>
          </Trackpoint>
          <Trackpoint>
            <Time>2019-10-09T12:35:07.000Z</Time>
            <Position>
              <LatitudeDegrees>38.5307765565812587738037109375</LatitudeDegrees>
              <LongitudeDegrees>-6.3492750562727451324462890625</LongitudeDegrees>
            </Position>
            <AltitudeMeters>414.20001220703125</AltitudeMeters>
            <DistanceMeters>NAN</DistanceMeters>
          </Trackpoint>
          <Trackpoint>
            <Time>2019-10-09T12:35:10.000Z</Time>
            <Position>
              <LatitudeDegrees>38.530611433088779449462890625</LatitudeDegrees>
              <LongitudeDegrees>-6.3492594659328460693359375</LongitudeDegrees>
            </Position>
            <AltitudeMeters>414.399993896484375</AltitudeMeters>
            <DistanceMeters>NAN</DistanceMeters>
          </Trackpoint>
          <Trackpoint>
            <Time>2019-10-09T12:35:17.000Z</Time>
            <Position>
              <LatitudeDegrees>38.53022863157093524932861328125</LatitudeDegrees>
              <LongitudeDegrees>-6.34925636462867259979248046875</LongitudeDegrees>
            </Position>
            <AltitudeMeters>415</AltitudeMeters>
            <DistanceMeters>NAN</DistanceMeters>
          </Trackpoint>
          <Trackpoint>
            <Time>2019-10-09T12:35:26.000Z</Time>
            <Position>
              <LatitudeDegrees>38.5297519527375698089599609375</LatitudeDegrees>
              <LongitudeDegrees>-6.3493337295949459075927734375</LongitudeDegrees>
            </Position>
            <AltitudeMeters>415.600006103515625</AltitudeMeters>
            <DistanceMeters>NAN</DistanceMeters>
          </Trackpoint>
          <Trackpoint>
            <Time>2019-10-09T12:35:27.000Z</Time>
            <Position>
              <LatitudeDegrees>38.52970090694725513458251953125</LatitudeDegrees>
              <LongitudeDegrees>-6.34934521280229091644287109375</LongitudeDegrees>
            </Position>
            <AltitudeMeters>415.600006103515625</AltitudeMeters>
            <DistanceMeters>NAN</DistanceMeters>
          </Trackpoint>
          <Trackpoint>
            <Time>2019-10-09T12:35:34.000Z</Time>
            <Position>
              <LatitudeDegrees>38.52934618480503559112548828125</LatitudeDegrees>
              <LongitudeDegrees>-6.34943791665136814117431640625</LongitudeDegrees>
            </Position>
            <AltitudeMeters>416.79998779296875</AltitudeMeters>
            <DistanceMeters>NAN</DistanceMeters>
          </Trackpoint>
          <Trackpoint>
            <Time>2019-10-09T12:35:35.000Z</Time>
            <Position>
              <LatitudeDegrees>38.5292954742908477783203125</LatitudeDegrees>
              <LongitudeDegrees>-6.34945166297256946563720703125</LongitudeDegrees>
            </Position>
            <AltitudeMeters>416.399993896484375</AltitudeMeters>
            <DistanceMeters>NAN</DistanceMeters>
          </Trackpoint>
          <Trackpoint>
            <Time>2019-10-09T12:35:45.000Z</Time>
            <Position>
              <LatitudeDegrees>38.52879725396633148193359375</LatitudeDegrees>
              <LongitudeDegrees>-6.34959583170711994171142578125</LongitudeDegrees>
            </Position>
            <AltitudeMeters>417.600006103515625</AltitudeMeters>
            <DistanceMeters>NAN</DistanceMeters>
          </Trackpoint>
          <Trackpoint>
            <Time>2019-10-09T12:35:49.000Z</Time>
            <Position>
              <LatitudeDegrees>38.52859851904213428497314453125</LatitudeDegrees>
              <LongitudeDegrees>-6.34965869598090648651123046875</LongitudeDegrees>
            </Position>
            <AltitudeMeters>418</AltitudeMeters>
            <DistanceMeters>NAN</DistanceMeters>
          </Trackpoint>
          <Trackpoint>
            <Time>2019-10-09T12:35:54.000Z</Time>
            <Position>
              <LatitudeDegrees>38.52834940887987613677978515625</LatitudeDegrees>
              <LongitudeDegrees>-6.349733211100101470947265625</LongitudeDegrees>
            </Position>
            <AltitudeMeters>418.600006103515625</AltitudeMeters>
            <DistanceMeters>NAN</DistanceMeters>
          </Trackpoint>
          <Trackpoint>
            <Time>2019-10-09T12:36:05.000Z</Time>
            <Position>
              <LatitudeDegrees>38.5277842171490192413330078125</LatitudeDegrees>
              <LongitudeDegrees>-6.34989908896386623382568359375</LongitudeDegrees>
            </Position>
            <AltitudeMeters>419</AltitudeMeters>
            <DistanceMeters>NAN</DistanceMeters>
          </Trackpoint>
          <Trackpoint>
            <Time>2019-10-09T12:36:06.000Z</Time>
            <Position>
              <LatitudeDegrees>38.52773199789226055145263671875</LatitudeDegrees>
              <LongitudeDegrees>-6.3499140925705432891845703125</LongitudeDegrees>
            </Position>
            <AltitudeMeters>419.20001220703125</AltitudeMeters>
            <DistanceMeters>NAN</DistanceMeters>
          </Trackpoint>
          <Trackpoint>
            <Time>2019-10-09T12:36:15.000Z</Time>
            <Position>
              <LatitudeDegrees>38.52726965211331844329833984375</LatitudeDegrees>
              <LongitudeDegrees>-6.35004510171711444854736328125</LongitudeDegrees>
            </Position>
            <AltitudeMeters>420.20001220703125</AltitudeMeters>
            <DistanceMeters>NAN</DistanceMeters>
          </Trackpoint>
          <Trackpoint>
            <Time>2019-10-09T12:36:16.000Z</Time>
            <Position>
              <LatitudeDegrees>38.5272189415991306304931640625</LatitudeDegrees>
              <LongitudeDegrees>-6.350061111152172088623046875</LongitudeDegrees>
            </Position>
            <AltitudeMeters>420.399993896484375</AltitudeMeters>
            <DistanceMeters>NAN</DistanceMeters>
          </Trackpoint>
          <Trackpoint>
            <Time>2019-10-09T12:36:22.000Z</Time>
            <Position>
              <LatitudeDegrees>38.5269208811223506927490234375</LatitudeDegrees>
              <LongitudeDegrees>-6.3501554913818836212158203125</LongitudeDegrees>
            </Position>
            <AltitudeMeters>420.399993896484375</AltitudeMeters>
            <DistanceMeters>NAN</DistanceMeters>
          </Trackpoint>
          <Trackpoint>
            <Time>2019-10-09T12:36:27.000Z</Time>
            <Position>
              <LatitudeDegrees>38.5266841761767864227294921875</LatitudeDegrees>
              <LongitudeDegrees>-6.35019354522228240966796875</LongitudeDegrees>
            </Position>
            <AltitudeMeters>420.600006103515625</AltitudeMeters>
            <DistanceMeters>NAN</DistanceMeters>
          </Trackpoint>
          <Trackpoint>
            <Time>2019-10-09T12:36:31.000Z</Time>
            <Position>
              <LatitudeDegrees>38.52649030275642871856689453125</LatitudeDegrees>
              <LongitudeDegrees>-6.35025531984865665435791015625</LongitudeDegrees>
            </Position>
            <AltitudeMeters>421.399993896484375</AltitudeMeters>
            <DistanceMeters>NAN</DistanceMeters>
          </Trackpoint>
          <Trackpoint>
            <Time>2019-10-09T12:36:33.000Z</Time>
            <Position>
              <LatitudeDegrees>38.5263879597187042236328125</LatitudeDegrees>
              <LongitudeDegrees>-6.35029253549873828887939453125</LongitudeDegrees>
            </Position>
            <AltitudeMeters>421.79998779296875</AltitudeMeters>
            <DistanceMeters>NAN</DistanceMeters>
          </Trackpoint>
          <Trackpoint>
            <Time>2019-10-09T12:36:41.000Z</Time>
            <Position>
              <LatitudeDegrees>38.52597825229167938232421875</LatitudeDegrees>
              <LongitudeDegrees>-6.3504243828356266021728515625</LongitudeDegrees>
            </Position>
            <AltitudeMeters>422.399993896484375</AltitudeMeters>
            <DistanceMeters>NAN</DistanceMeters>
          </Trackpoint>
          <Trackpoint>
            <Time>2019-10-09T12:36:50.000Z</Time>
            <Position>
              <LatitudeDegrees>38.525506518781185150146484375</LatitudeDegrees>
              <LongitudeDegrees>-6.35056645609438419342041015625</LongitudeDegrees>
            </Position>
            <AltitudeMeters>423.399993896484375</AltitudeMeters>
            <DistanceMeters>NAN</DistanceMeters>
          </Trackpoint>
          <Trackpoint>
            <Time>2019-10-09T12:37:00.000Z</Time>
            <Position>
              <LatitudeDegrees>38.52501592598855495452880859375</LatitudeDegrees>
              <LongitudeDegrees>-6.35071062482893466949462890625</LongitudeDegrees>
            </Position>
            <AltitudeMeters>424.600006103515625</AltitudeMeters>
            <DistanceMeters>NAN</DistanceMeters>
          </Trackpoint>
          <Trackpoint>
            <Time>2019-10-09T12:37:08.000Z</Time>
            <Position>
              <LatitudeDegrees>38.52465919218957424163818359375</LatitudeDegrees>
              <LongitudeDegrees>-6.3508129678666591644287109375</LongitudeDegrees>
            </Position>
            <AltitudeMeters>425.399993896484375</AltitudeMeters>
            <DistanceMeters>NAN</DistanceMeters>
          </Trackpoint>
          <Trackpoint>
            <Time>2019-10-09T12:37:10.000Z</Time>
            <Position>
              <LatitudeDegrees>38.52456984110176563262939453125</LatitudeDegrees>
              <LongitudeDegrees>-6.35084037669003009796142578125</LongitudeDegrees>
            </Position>
            <AltitudeMeters>425.79998779296875</AltitudeMeters>
            <DistanceMeters>NAN</DistanceMeters>
          </Trackpoint>
          <Trackpoint>
            <Time>2019-10-09T12:37:16.000Z</Time>
            <Position>
              <LatitudeDegrees>38.52430321276187896728515625</LatitudeDegrees>
              <LongitudeDegrees>-6.3509224355220794677734375</LongitudeDegrees>
            </Position>
            <AltitudeMeters>426.79998779296875</AltitudeMeters>
            <DistanceMeters>NAN</DistanceMeters>
          </Trackpoint>
          <Trackpoint>
            <Time>2019-10-09T12:37:18.000Z</Time>
            <Position>
              <LatitudeDegrees>38.52421562187373638153076171875</LatitudeDegrees>
              <LongitudeDegrees>-6.35094749741256237030029296875</LongitudeDegrees>
            </Position>
            <AltitudeMeters>427</AltitudeMeters>
            <DistanceMeters>NAN</DistanceMeters>
          </Trackpoint>
          <Trackpoint>
            <Time>2019-10-09T12:37:26.000Z</Time>
            <Position>
              <LatitudeDegrees>38.52385754697024822235107421875</LatitudeDegrees>
              <LongitudeDegrees>-6.3510463200509548187255859375</LongitudeDegrees>
            </Position>
            <AltitudeMeters>427.79998779296875</AltitudeMeters>
            <DistanceMeters>NAN</DistanceMeters>
          </Trackpoint>
          <Trackpoint>
            <Time>2019-10-09T12:37:30.000Z</Time>
            <Position>
              <LatitudeDegrees>38.5236770845949649810791015625</LatitudeDegrees>
              <LongitudeDegrees>-6.35110080242156982421875</LongitudeDegrees>
            </Position>
            <AltitudeMeters>428.20001220703125</AltitudeMeters>
            <DistanceMeters>NAN</DistanceMeters>
          </Trackpoint>
          <Trackpoint>
            <Time>2019-10-09T12:37:35.000Z</Time>
            <Position>
              <LatitudeDegrees>38.52345605380833148956298828125</LatitudeDegrees>
              <LongitudeDegrees>-6.351162493228912353515625</LongitudeDegrees>
            </Position>
            <AltitudeMeters>429</AltitudeMeters>
            <DistanceMeters>NAN</DistanceMeters>
          </Trackpoint>
          <Trackpoint>
            <Time>2019-10-09T12:37:41.000Z</Time>
            <Position>
              <LatitudeDegrees>38.5231932811439037322998046875</LatitudeDegrees>
              <LongitudeDegrees>-6.351235918700695037841796875</LongitudeDegrees>
            </Position>
            <AltitudeMeters>429.79998779296875</AltitudeMeters>
            <DistanceMeters>NAN</DistanceMeters>
          </Trackpoint>
          <Trackpoint>
            <Time>2019-10-09T12:37:45.000Z</Time>
            <Position>
              <LatitudeDegrees>38.52301868610084056854248046875</LatitudeDegrees>
              <LongitudeDegrees>-6.35128528811037540435791015625</LongitudeDegrees>
            </Position>
            <AltitudeMeters>430</AltitudeMeters>
            <DistanceMeters>NAN</DistanceMeters>
          </Trackpoint>
          <Trackpoint>
            <Time>2019-10-09T12:37:49.000Z</Time>
            <Position>
              <LatitudeDegrees>38.52284786291420459747314453125</LatitudeDegrees>
              <LongitudeDegrees>-6.3513383455574512481689453125</LongitudeDegrees>
            </Position>
            <AltitudeMeters>430.79998779296875</AltitudeMeters>
            <DistanceMeters>NAN</DistanceMeters>
          </Trackpoint>
          <Trackpoint>
            <Time>2019-10-09T12:37:51.000Z</Time>
            <Position>
              <LatitudeDegrees>38.52276085875928401947021484375</LatitudeDegrees>
              <LongitudeDegrees>-6.3513634912669658660888671875</LongitudeDegrees>
            </Position>
            <AltitudeMeters>431</AltitudeMeters>
            <DistanceMeters>NAN</DistanceMeters>
          </Trackpoint>
          <Trackpoint>
            <Time>2019-10-09T12:38:00.000Z</Time>
            <Position>
              <LatitudeDegrees>38.52238115854561328887939453125</LatitudeDegrees>
              <LongitudeDegrees>-6.3514754734933376312255859375</LongitudeDegrees>
            </Position>
            <AltitudeMeters>432.20001220703125</AltitudeMeters>
            <DistanceMeters>NAN</DistanceMeters>
          </Trackpoint>
          <Trackpoint>
            <Time>2019-10-09T12:38:01.000Z</Time>
            <Position>
              <LatitudeDegrees>38.52233790792524814605712890625</LatitudeDegrees>
              <LongitudeDegrees>-6.35148863308131694793701171875</LongitudeDegrees>
            </Position>
            <AltitudeMeters>432.399993896484375</AltitudeMeters>
            <DistanceMeters>NAN</DistanceMeters>
          </Trackpoint>
          <Trackpoint>
            <Time>2019-10-09T12:38:06.000Z</Time>
            <Position>
              <LatitudeDegrees>38.522117547690868377685546875</LatitudeDegrees>
              <LongitudeDegrees>-6.35154965333640575408935546875</LongitudeDegrees>
            </Position>
            <AltitudeMeters>433.399993896484375</AltitudeMeters>
            <DistanceMeters>NAN</DistanceMeters>
          </Trackpoint>
          <Trackpoint>
            <Time>2019-10-09T12:38:10.000Z</Time>
            <Position>
              <LatitudeDegrees>38.52194228209555149078369140625</LatitudeDegrees>
              <LongitudeDegrees>-6.35160111822187900543212890625</LongitudeDegrees>
            </Position>
            <AltitudeMeters>433.20001220703125</AltitudeMeters>
            <DistanceMeters>NAN</DistanceMeters>
          </Trackpoint>
          <Trackpoint>
            <Time>2019-10-09T12:38:22.000Z</Time>
            <Position>
              <LatitudeDegrees>38.52141288109123706817626953125</LatitudeDegrees>
              <LongitudeDegrees>-6.35174922645092010498046875</LongitudeDegrees>
            </Position>
            <AltitudeMeters>434.20001220703125</AltitudeMeters>
            <DistanceMeters>NAN</DistanceMeters>
          </Trackpoint>
          <Trackpoint>
            <Time>2019-10-09T12:38:23.000Z</Time>
            <Position>
              <LatitudeDegrees>38.52136745117604732513427734375</LatitudeDegrees>
              <LongitudeDegrees>-6.35176188312470912933349609375</LongitudeDegrees>
            </Position>
            <AltitudeMeters>434.399993896484375</AltitudeMeters>
            <DistanceMeters>NAN</DistanceMeters>
          </Trackpoint>
          <Trackpoint>
            <Time>2019-10-09T12:38:26.000Z</Time>
            <Position>
              <LatitudeDegrees>38.52123283781111240386962890625</LatitudeDegrees>
              <LongitudeDegrees>-6.35180144570767879486083984375</LongitudeDegrees>
            </Position>
            <AltitudeMeters>434.600006103515625</AltitudeMeters>
            <DistanceMeters>NAN</DistanceMeters>
          </Trackpoint>
          <Trackpoint>
            <Time>2019-10-09T12:38:34.000Z</Time>
            <Position>
              <LatitudeDegrees>38.52087400853633880615234375</LatitudeDegrees>
              <LongitudeDegrees>-6.35190973989665508270263671875</LongitudeDegrees>
            </Position>
            <AltitudeMeters>434.79998779296875</AltitudeMeters>
            <DistanceMeters>NAN</DistanceMeters>
          </Trackpoint>
          <Trackpoint>
            <Time>2019-10-09T12:38:41.000Z</Time>
            <Position>
              <LatitudeDegrees>38.5205610282719135284423828125</LatitudeDegrees>
              <LongitudeDegrees>-6.35200026445090770721435546875</LongitudeDegrees>
            </Position>
            <AltitudeMeters>435.600006103515625</AltitudeMeters>
            <DistanceMeters>NAN</DistanceMeters>
          </Trackpoint>
          <Trackpoint>
            <Time>2019-10-09T12:38:43.000Z</Time>
            <Position>
              <LatitudeDegrees>38.52047243155539035797119140625</LatitudeDegrees>
              <LongitudeDegrees>-6.35202557779848575592041015625</LongitudeDegrees>
            </Position>
            <AltitudeMeters>435.79998779296875</AltitudeMeters>
            <DistanceMeters>NAN</DistanceMeters>
          </Trackpoint>
          <Trackpoint>
            <Time>2019-10-09T12:38:49.000Z</Time>
            <Position>
              <LatitudeDegrees>38.52020270191133022308349609375</LatitudeDegrees>
              <LongitudeDegrees>-6.352105624973773956298828125</LongitudeDegrees>
            </Position>
            <AltitudeMeters>436.79998779296875</AltitudeMeters>
            <DistanceMeters>NAN</DistanceMeters>
          </Trackpoint>
          <Trackpoint>
            <Time>2019-10-09T12:38:53.000Z</Time>
            <Position>
              <LatitudeDegrees>38.52002416737377643585205078125</LatitudeDegrees>
              <LongitudeDegrees>-6.35215566493570804595947265625</LongitudeDegrees>
            </Position>
            <AltitudeMeters>436.79998779296875</AltitudeMeters>
            <DistanceMeters>NAN</DistanceMeters>
          </Trackpoint>
          <Trackpoint>
            <Time>2019-10-09T12:39:01.000Z</Time>
            <Position>
              <LatitudeDegrees>38.5196725465357303619384765625</LatitudeDegrees>
              <LongitudeDegrees>-6.352258510887622833251953125</LongitudeDegrees>
            </Position>
            <AltitudeMeters>438</AltitudeMeters>
            <DistanceMeters>NAN</DistanceMeters>
          </Trackpoint>
          <Trackpoint>
            <Time>2019-10-09T12:39:04.000Z</Time>
            <Position>
              <LatitudeDegrees>38.5195431299507617950439453125</LatitudeDegrees>
              <LongitudeDegrees>-6.35230050422251224517822265625</LongitudeDegrees>
            </Position>
            <AltitudeMeters>438.79998779296875</AltitudeMeters>
            <DistanceMeters>NAN</DistanceMeters>
          </Trackpoint>
          <Trackpoint>
            <Time>2019-10-09T12:39:07.000Z</Time>
            <Position>
              <LatitudeDegrees>38.51941295899450778961181640625</LatitudeDegrees>
              <LongitudeDegrees>-6.3523399829864501953125</LongitudeDegrees>
            </Position>
            <AltitudeMeters>439</AltitudeMeters>
            <DistanceMeters>NAN</DistanceMeters>
          </Trackpoint>
          <Trackpoint>
            <Time>2019-10-09T12:39:14.000Z</Time>
            <Position>
              <LatitudeDegrees>38.5191109590232372283935546875</LatitudeDegrees>
              <LongitudeDegrees>-6.35243117809295654296875</LongitudeDegrees>
            </Position>
            <AltitudeMeters>440.20001220703125</AltitudeMeters>
            <DistanceMeters>NAN</DistanceMeters>
          </Trackpoint>
          <Trackpoint>
            <Time>2019-10-09T12:39:16.000Z</Time>
            <Position>
              <LatitudeDegrees>38.51902403868734836578369140625</LatitudeDegrees>
              <LongitudeDegrees>-6.3524566590785980224609375</LongitudeDegrees>
            </Position>
            <AltitudeMeters>440.20001220703125</AltitudeMeters>
            <DistanceMeters>NAN</DistanceMeters>
          </Trackpoint>
          <Trackpoint>
            <Time>2019-10-09T12:39:23.000Z</Time>
            <Position>
              <LatitudeDegrees>38.51871944032609462738037109375</LatitudeDegrees>
              <LongitudeDegrees>-6.35254240594804286956787109375</LongitudeDegrees>
            </Position>
            <AltitudeMeters>441.20001220703125</AltitudeMeters>
            <DistanceMeters>NAN</DistanceMeters>
          </Trackpoint>
          <Trackpoint>
            <Time>2019-10-09T12:39:26.000Z</Time>
            <Position>
              <LatitudeDegrees>38.51858667097985744476318359375</LatitudeDegrees>
              <LongitudeDegrees>-6.35258096270263195037841796875</LongitudeDegrees>
            </Position>
            <AltitudeMeters>441.20001220703125</AltitudeMeters>
            <DistanceMeters>NAN</DistanceMeters>
          </Trackpoint>
          <Trackpoint>
            <Time>2019-10-09T12:39:31.000Z</Time>
            <Position>
              <LatitudeDegrees>38.51836790330708026885986328125</LatitudeDegrees>
              <LongitudeDegrees>-6.35264483280479907989501953125</LongitudeDegrees>
            </Position>
            <AltitudeMeters>442.20001220703125</AltitudeMeters>
            <DistanceMeters>NAN</DistanceMeters>
          </Trackpoint>
          <Trackpoint>
            <Time>2019-10-09T12:39:36.000Z</Time>
            <Position>
              <LatitudeDegrees>38.51814880035817623138427734375</LatitudeDegrees>
              <LongitudeDegrees>-6.352709122002124786376953125</LongitudeDegrees>
            </Position>
            <AltitudeMeters>442.79998779296875</AltitudeMeters>
            <DistanceMeters>NAN</DistanceMeters>
          </Trackpoint>
          <Trackpoint>
            <Time>2019-10-09T12:39:39.000Z</Time>
            <Position>
              <LatitudeDegrees>38.5180179588496685028076171875</LatitudeDegrees>
              <LongitudeDegrees>-6.3527475111186504364013671875</LongitudeDegrees>
            </Position>
            <AltitudeMeters>443.399993896484375</AltitudeMeters>
            <DistanceMeters>NAN</DistanceMeters>
          </Trackpoint>
          <Trackpoint>
            <Time>2019-10-09T12:39:46.000Z</Time>
            <Position>
              <LatitudeDegrees>38.51770740933716297149658203125</LatitudeDegrees>
              <LongitudeDegrees>-6.35284624993801116943359375</LongitudeDegrees>
            </Position>
            <AltitudeMeters>443.79998779296875</AltitudeMeters>
            <DistanceMeters>NAN</DistanceMeters>
          </Trackpoint>
          <Trackpoint>
            <Time>2019-10-09T12:39:52.000Z</Time>
            <Position>
              <LatitudeDegrees>38.5174374282360076904296875</LatitudeDegrees>
              <LongitudeDegrees>-6.352925710380077362060546875</LongitudeDegrees>
            </Position>
            <AltitudeMeters>444.79998779296875</AltitudeMeters>
            <DistanceMeters>NAN</DistanceMeters>
          </Trackpoint>
          <Trackpoint>
            <Time>2019-10-09T12:40:00.000Z</Time>
            <Position>
              <LatitudeDegrees>38.51707600057125091552734375</LatitudeDegrees>
              <LongitudeDegrees>-6.35303325019776821136474609375</LongitudeDegrees>
            </Position>
            <AltitudeMeters>445</AltitudeMeters>
            <DistanceMeters>NAN</DistanceMeters>
          </Trackpoint>
          <Trackpoint>
            <Time>2019-10-09T12:40:12.000Z</Time>
            <Position>
              <LatitudeDegrees>38.5165353678166866302490234375</LatitudeDegrees>
              <LongitudeDegrees>-6.3531947694718837738037109375</LongitudeDegrees>
            </Position>
            <AltitudeMeters>445.600006103515625</AltitudeMeters>
            <DistanceMeters>NAN</DistanceMeters>
          </Trackpoint>
          <Trackpoint>
            <Time>2019-10-09T12:40:13.000Z</Time>
            <Position>
              <LatitudeDegrees>38.51649069227278232574462890625</LatitudeDegrees>
              <LongitudeDegrees>-6.3532091863453388214111328125</LongitudeDegrees>
            </Position>
            <AltitudeMeters>445.79998779296875</AltitudeMeters>
            <DistanceMeters>NAN</DistanceMeters>
          </Trackpoint>
          <Trackpoint>
            <Time>2019-10-09T12:40:23.000Z</Time>
            <Position>
              <LatitudeDegrees>38.51603974588215351104736328125</LatitudeDegrees>
              <LongitudeDegrees>-6.35333977639675140380859375</LongitudeDegrees>
            </Position>
            <AltitudeMeters>446.600006103515625</AltitudeMeters>
            <DistanceMeters>NAN</DistanceMeters>
          </Trackpoint>
          <Trackpoint>
            <Time>2019-10-09T12:40:26.000Z</Time>
            <Position>
              <LatitudeDegrees>38.51590119302272796630859375</LatitudeDegrees>
              <LongitudeDegrees>-6.35338026098906993865966796875</LongitudeDegrees>
            </Position>
            <AltitudeMeters>446.79998779296875</AltitudeMeters>
            <DistanceMeters>NAN</DistanceMeters>
          </Trackpoint>
          <Trackpoint>
            <Time>2019-10-09T12:40:34.000Z</Time>
            <Position>
              <LatitudeDegrees>38.5155506618320941925048828125</LatitudeDegrees>
              <LongitudeDegrees>-6.35348872281610965728759765625</LongitudeDegrees>
            </Position>
            <AltitudeMeters>447.79998779296875</AltitudeMeters>
            <DistanceMeters>NAN</DistanceMeters>
          </Trackpoint>
          <Trackpoint>
            <Time>2019-10-09T12:40:35.000Z</Time>
            <Position>
              <LatitudeDegrees>38.51550397463142871856689453125</LatitudeDegrees>
              <LongitudeDegrees>-6.35349861346185207366943359375</LongitudeDegrees>
            </Position>
            <AltitudeMeters>447.79998779296875</AltitudeMeters>
            <DistanceMeters>NAN</DistanceMeters>
          </Trackpoint>
          <Trackpoint>
            <Time>2019-10-09T12:40:42.000Z</Time>
            <Position>
              <LatitudeDegrees>38.51517565548419952392578125</LatitudeDegrees>
              <LongitudeDegrees>-6.35360062122344970703125</LongitudeDegrees>
            </Position>
            <AltitudeMeters>448.399993896484375</AltitudeMeters>
            <DistanceMeters>NAN</DistanceMeters>
          </Trackpoint>
          <Trackpoint>
            <Time>2019-10-09T12:40:44.000Z</Time>
            <Position>
              <LatitudeDegrees>38.5150812752544879913330078125</LatitudeDegrees>
              <LongitudeDegrees>-6.35363054461777210235595703125</LongitudeDegrees>
            </Position>
            <AltitudeMeters>449</AltitudeMeters>
            <DistanceMeters>NAN</DistanceMeters>
          </Trackpoint>
          <Trackpoint>
            <Time>2019-10-09T12:40:50.000Z</Time>
            <Position>
              <LatitudeDegrees>38.51478313095867633819580078125</LatitudeDegrees>
              <LongitudeDegrees>-6.35371528565883636474609375</LongitudeDegrees>
            </Position>
            <AltitudeMeters>449.600006103515625</AltitudeMeters>
            <DistanceMeters>NAN</DistanceMeters>
          </Trackpoint>
          <Trackpoint>
            <Time>2019-10-09T12:41:01.000Z</Time>
            <Position>
              <LatitudeDegrees>38.5142229683697223663330078125</LatitudeDegrees>
              <LongitudeDegrees>-6.3538807444274425506591796875</LongitudeDegrees>
            </Position>
            <AltitudeMeters>449.79998779296875</AltitudeMeters>
            <DistanceMeters>NAN</DistanceMeters>
          </Trackpoint>
          <Trackpoint>
            <Time>2019-10-09T12:41:02.000Z</Time>
            <Position>
              <LatitudeDegrees>38.5141704976558685302734375</LatitudeDegrees>
              <LongitudeDegrees>-6.3538968376815319061279296875</LongitudeDegrees>
            </Position>
            <AltitudeMeters>449.600006103515625</AltitudeMeters>
            <DistanceMeters>NAN</DistanceMeters>
          </Trackpoint>
          <Trackpoint>
            <Time>2019-10-09T12:41:12.000Z</Time>
            <Position>
              <LatitudeDegrees>38.51364151574671268463134765625</LatitudeDegrees>
              <LongitudeDegrees>-6.35404913686215877532958984375</LongitudeDegrees>
            </Position>
            <AltitudeMeters>450</AltitudeMeters>
            <DistanceMeters>NAN</DistanceMeters>
          </Trackpoint>
          <Trackpoint>
            <Time>2019-10-09T12:41:13.000Z</Time>
            <Position>
              <LatitudeDegrees>38.51358837448060512542724609375</LatitudeDegrees>
              <LongitudeDegrees>-6.35406355373561382293701171875</LongitudeDegrees>
            </Position>
            <AltitudeMeters>450.20001220703125</AltitudeMeters>
            <DistanceMeters>NAN</DistanceMeters>
          </Trackpoint>
          <Trackpoint>
            <Time>2019-10-09T12:41:22.000Z</Time>
            <Position>
              <LatitudeDegrees>38.51311211474239826202392578125</LatitudeDegrees>
              <LongitudeDegrees>-6.35421090759336948394775390625</LongitudeDegrees>
            </Position>
            <AltitudeMeters>450.20001220703125</AltitudeMeters>
            <DistanceMeters>NAN</DistanceMeters>
          </Trackpoint>
          <Trackpoint>
            <Time>2019-10-09T12:41:31.000Z</Time>
            <Position>
              <LatitudeDegrees>38.512633927166461944580078125</LatitudeDegrees>
              <LongitudeDegrees>-6.35434694588184356689453125</LongitudeDegrees>
            </Position>
            <AltitudeMeters>451.20001220703125</AltitudeMeters>
            <DistanceMeters>NAN</DistanceMeters>
          </Trackpoint>
          <Trackpoint>
            <Time>2019-10-09T12:41:32.000Z</Time>
            <Position>
              <LatitudeDegrees>38.512580953538417816162109375</LatitudeDegrees>
              <LongitudeDegrees>-6.35436572134494781494140625</LongitudeDegrees>
            </Position>
            <AltitudeMeters>451.399993896484375</AltitudeMeters>
            <DistanceMeters>NAN</DistanceMeters>
          </Trackpoint>
          <Trackpoint>
            <Time>2019-10-09T12:41:41.000Z</Time>
            <Position>
              <LatitudeDegrees>38.512106202542781829833984375</LatitudeDegrees>
              <LongitudeDegrees>-6.354506202042102813720703125</LongitudeDegrees>
            </Position>
            <AltitudeMeters>451.600006103515625</AltitudeMeters>
            <DistanceMeters>NAN</DistanceMeters>
          </Trackpoint>
          <Trackpoint>
            <Time>2019-10-09T12:41:51.000Z</Time>
            <Position>
              <LatitudeDegrees>38.5115957446396350860595703125</LatitudeDegrees>
              <LongitudeDegrees>-6.35466118343174457550048828125</LongitudeDegrees>
            </Position>
            <AltitudeMeters>452.399993896484375</AltitudeMeters>
            <DistanceMeters>NAN</DistanceMeters>
          </Trackpoint>
          <Trackpoint>
            <Time>2019-10-09T12:41:58.000Z</Time>
            <Position>
              <LatitudeDegrees>38.511252589523792266845703125</LatitudeDegrees>
              <LongitudeDegrees>-6.35475925169885158538818359375</LongitudeDegrees>
            </Position>
            <AltitudeMeters>453.399993896484375</AltitudeMeters>
            <DistanceMeters>NAN</DistanceMeters>
          </Trackpoint>
          <Trackpoint>
            <Time>2019-10-09T12:42:00.000Z</Time>
            <Position>
              <LatitudeDegrees>38.5111610591411590576171875</LatitudeDegrees>
              <LongitudeDegrees>-6.35478624142706394195556640625</LongitudeDegrees>
            </Position>
            <AltitudeMeters>454</AltitudeMeters>
            <DistanceMeters>NAN</DistanceMeters>
          </Trackpoint>
          <Trackpoint>
            <Time>2019-10-09T12:42:06.000Z</Time>
            <Position>
              <LatitudeDegrees>38.510895855724811553955078125</LatitudeDegrees>
              <LongitudeDegrees>-6.3548731617629528045654296875</LongitudeDegrees>
            </Position>
            <AltitudeMeters>454.600006103515625</AltitudeMeters>
            <DistanceMeters>NAN</DistanceMeters>
          </Trackpoint>
          <Trackpoint>
            <Time>2019-10-09T12:42:10.000Z</Time>
            <Position>
              <LatitudeDegrees>38.510719835758209228515625</LatitudeDegrees>
              <LongitudeDegrees>-6.3549237884581089019775390625</LongitudeDegrees>
            </Position>
            <AltitudeMeters>455.20001220703125</AltitudeMeters>
            <DistanceMeters>NAN</DistanceMeters>
          </Trackpoint>
          <Trackpoint>
            <Time>2019-10-09T12:42:13.000Z</Time>
            <Position>
              <LatitudeDegrees>38.5105902515351772308349609375</LatitudeDegrees>
              <LongitudeDegrees>-6.35495756752789020538330078125</LongitudeDegrees>
            </Position>
            <AltitudeMeters>455.600006103515625</AltitudeMeters>
            <DistanceMeters>NAN</DistanceMeters>
          </Trackpoint>
          <Trackpoint>
            <Time>2019-10-09T12:42:19.000Z</Time>
            <Position>
              <LatitudeDegrees>38.51033401675522327423095703125</LatitudeDegrees>
              <LongitudeDegrees>-6.355035938322544097900390625</LongitudeDegrees>
            </Position>
            <AltitudeMeters>456.399993896484375</AltitudeMeters>
            <DistanceMeters>NAN</DistanceMeters>
          </Trackpoint>
          <Trackpoint>
            <Time>2019-10-09T12:42:21.000Z</Time>
            <Position>
              <LatitudeDegrees>38.5102491080760955810546875</LatitudeDegrees>
              <LongitudeDegrees>-6.3550584018230438232421875</LongitudeDegrees>
            </Position>
            <AltitudeMeters>457</AltitudeMeters>
            <DistanceMeters>NAN</DistanceMeters>
          </Trackpoint>
          <Trackpoint>
            <Time>2019-10-09T12:42:29.000Z</Time>
            <Position>
              <LatitudeDegrees>38.50989497266709804534912109375</LatitudeDegrees>
              <LongitudeDegrees>-6.3551628403365612030029296875</LongitudeDegrees>
            </Position>
            <AltitudeMeters>457.20001220703125</AltitudeMeters>
            <DistanceMeters>NAN</DistanceMeters>
          </Trackpoint>
          <Trackpoint>
            <Time>2019-10-09T12:42:36.000Z</Time>
            <Position>
              <LatitudeDegrees>38.509584926068782806396484375</LatitudeDegrees>
              <LongitudeDegrees>-6.35525495745241641998291015625</LongitudeDegrees>
            </Position>
            <AltitudeMeters>458.20001220703125</AltitudeMeters>
            <DistanceMeters>NAN</DistanceMeters>
          </Trackpoint>
          <Trackpoint>
            <Time>2019-10-09T12:42:39.000Z</Time>
            <Position>
              <LatitudeDegrees>38.5094489715993404388427734375</LatitudeDegrees>
              <LongitudeDegrees>-6.3552946038544178009033203125</LongitudeDegrees>
            </Position>
            <AltitudeMeters>458.20001220703125</AltitudeMeters>
            <DistanceMeters>NAN</DistanceMeters>
          </Trackpoint>
          <Trackpoint>
            <Time>2019-10-09T12:42:51.000Z</Time>
            <Position>
              <LatitudeDegrees>38.5089121945202350616455078125</LatitudeDegrees>
              <LongitudeDegrees>-6.355455704033374786376953125</LongitudeDegrees>
            </Position>
            <AltitudeMeters>459.20001220703125</AltitudeMeters>
            <DistanceMeters>NAN</DistanceMeters>
          </Trackpoint>
          <Trackpoint>
            <Time>2019-10-09T12:42:52.000Z</Time>
            <Position>
              <LatitudeDegrees>38.5088672675192356109619140625</LatitudeDegrees>
              <LongitudeDegrees>-6.355469115078449249267578125</LongitudeDegrees>
            </Position>
            <AltitudeMeters>459.20001220703125</AltitudeMeters>
            <DistanceMeters>NAN</DistanceMeters>
          </Trackpoint>
          <Trackpoint>
            <Time>2019-10-09T12:43:02.000Z</Time>
            <Position>
              <LatitudeDegrees>38.5084133036434650421142578125</LatitudeDegrees>
              <LongitudeDegrees>-6.355604566633701324462890625</LongitudeDegrees>
            </Position>
            <AltitudeMeters>459.600006103515625</AltitudeMeters>
            <DistanceMeters>NAN</DistanceMeters>
          </Trackpoint>
          <Trackpoint>
            <Time>2019-10-09T12:43:07.000Z</Time>
            <Position>
              <LatitudeDegrees>38.50818724371492862701416015625</LatitudeDegrees>
              <LongitudeDegrees>-6.3556704483926296234130859375</LongitudeDegrees>
            </Position>
            <AltitudeMeters>460.399993896484375</AltitudeMeters>
            <DistanceMeters>NAN</DistanceMeters>
          </Trackpoint>
          <Trackpoint>
            <Time>2019-10-09T12:43:10.000Z</Time>
            <Position>
              <LatitudeDegrees>38.5080512054264545440673828125</LatitudeDegrees>
              <LongitudeDegrees>-6.355710513889789581298828125</LongitudeDegrees>
            </Position>
            <AltitudeMeters>460</AltitudeMeters>
            <DistanceMeters>NAN</DistanceMeters>
          </Trackpoint>
          <Trackpoint>
            <Time>2019-10-09T12:43:17.000Z</Time>
            <Position>
              <LatitudeDegrees>38.50772992707788944244384765625</LatitudeDegrees>
              <LongitudeDegrees>-6.35580564849078655242919921875</LongitudeDegrees>
            </Position>
            <AltitudeMeters>461.399993896484375</AltitudeMeters>
            <DistanceMeters>NAN</DistanceMeters>
          </Trackpoint>
          <Trackpoint>
            <Time>2019-10-09T12:43:20.000Z</Time>
            <Position>
              <LatitudeDegrees>38.5075910389423370361328125</LatitudeDegrees>
              <LongitudeDegrees>-6.355849318206310272216796875</LongitudeDegrees>
            </Position>
            <AltitudeMeters>461.20001220703125</AltitudeMeters>
            <DistanceMeters>NAN</DistanceMeters>
          </Trackpoint>
          <Trackpoint>
            <Time>2019-10-09T12:43:31.000Z</Time>
            <Position>
              <LatitudeDegrees>38.507086448371410369873046875</LatitudeDegrees>
              <LongitudeDegrees>-6.355998180806636810302734375</LongitudeDegrees>
            </Position>
            <AltitudeMeters>462.399993896484375</AltitudeMeters>
            <DistanceMeters>NAN</DistanceMeters>
          </Trackpoint>
          <Trackpoint>
            <Time>2019-10-09T12:43:32.000Z</Time>
            <Position>
              <LatitudeDegrees>38.50704126991331577301025390625</LatitudeDegrees>
              <LongitudeDegrees>-6.35601184330880641937255859375</LongitudeDegrees>
            </Position>
            <AltitudeMeters>462.600006103515625</AltitudeMeters>
            <DistanceMeters>NAN</DistanceMeters>
          </Trackpoint>
          <Trackpoint>
            <Time>2019-10-09T12:43:42.000Z</Time>
            <Position>
              <LatitudeDegrees>38.50658076815307140350341796875</LatitudeDegrees>
              <LongitudeDegrees>-6.3561565987765789031982421875</LongitudeDegrees>
            </Position>
            <AltitudeMeters>463.600006103515625</AltitudeMeters>
            <DistanceMeters>NAN</DistanceMeters>
          </Trackpoint>
          <Trackpoint>
            <Time>2019-10-09T12:43:47.000Z</Time>
            <Position>
              <LatitudeDegrees>38.506351523101329803466796875</LatitudeDegrees>
              <LongitudeDegrees>-6.35621787048876285552978515625</LongitudeDegrees>
            </Position>
            <AltitudeMeters>464.600006103515625</AltitudeMeters>
            <DistanceMeters>NAN</DistanceMeters>
          </Trackpoint>
          <Trackpoint>
            <Time>2019-10-09T12:43:53.000Z</Time>
            <Position>
              <LatitudeDegrees>38.506075255572795867919921875</LatitudeDegrees>
              <LongitudeDegrees>-6.3563007675111293792724609375</LongitudeDegrees>
            </Position>
            <AltitudeMeters>465.399993896484375</AltitudeMeters>
            <DistanceMeters>NAN</DistanceMeters>
          </Trackpoint>
          <Trackpoint>
            <Time>2019-10-09T12:44:01.000Z</Time>
            <Position>
              <LatitudeDegrees>38.50571709685027599334716796875</LatitudeDegrees>
              <LongitudeDegrees>-6.35640679858624935150146484375</LongitudeDegrees>
            </Position>
            <AltitudeMeters>465.600006103515625</AltitudeMeters>
            <DistanceMeters>NAN</DistanceMeters>
          </Trackpoint>
          <Trackpoint>
            <Time>2019-10-09T12:44:02.000Z</Time>
            <Position>
              <LatitudeDegrees>38.50567418150603771209716796875</LatitudeDegrees>
              <LongitudeDegrees>-6.35641769506037235260009765625</LongitudeDegrees>
            </Position>
            <AltitudeMeters>466.20001220703125</AltitudeMeters>
            <DistanceMeters>NAN</DistanceMeters>
          </Trackpoint>
          <Trackpoint>
            <Time>2019-10-09T12:44:10.000Z</Time>
            <Position>
              <LatitudeDegrees>38.50531208328902721405029296875</LatitudeDegrees>
              <LongitudeDegrees>-6.35653068311512470245361328125</LongitudeDegrees>
            </Position>
            <AltitudeMeters>466.79998779296875</AltitudeMeters>
            <DistanceMeters>NAN</DistanceMeters>
          </Trackpoint>
          <Trackpoint>
            <Time>2019-10-09T12:44:12.000Z</Time>
            <Position>
              <LatitudeDegrees>38.50521937943994998931884765625</LatitudeDegrees>
              <LongitudeDegrees>-6.356551386415958404541015625</LongitudeDegrees>
            </Position>
            <AltitudeMeters>467.399993896484375</AltitudeMeters>
            <DistanceMeters>NAN</DistanceMeters>
          </Trackpoint>
          <Trackpoint>
            <Time>2019-10-09T12:44:18.000Z</Time>
            <Position>
              <LatitudeDegrees>38.50494143553078174591064453125</LatitudeDegrees>
              <LongitudeDegrees>-6.3566387258470058441162109375</LongitudeDegrees>
            </Position>
            <AltitudeMeters>468</AltitudeMeters>
            <DistanceMeters>NAN</DistanceMeters>
          </Trackpoint>
          <Trackpoint>
            <Time>2019-10-09T12:44:20.000Z</Time>
            <Position>
              <LatitudeDegrees>38.50484739057719707489013671875</LatitudeDegrees>
              <LongitudeDegrees>-6.3566655479371547698974609375</LongitudeDegrees>
            </Position>
            <AltitudeMeters>468.399993896484375</AltitudeMeters>
            <DistanceMeters>NAN</DistanceMeters>
          </Trackpoint>
          <Trackpoint>
            <Time>2019-10-09T12:44:21.000Z</Time>
            <Position>
              <LatitudeDegrees>38.50479927845299243927001953125</LatitudeDegrees>
              <LongitudeDegrees>-6.35668180882930755615234375</LongitudeDegrees>
            </Position>
            <AltitudeMeters>468.399993896484375</AltitudeMeters>
            <DistanceMeters>NAN</DistanceMeters>
          </Trackpoint>
          <Trackpoint>
            <Time>2019-10-09T12:44:24.000Z</Time>
            <Position>
              <LatitudeDegrees>38.50466432981193065643310546875</LatitudeDegrees>
              <LongitudeDegrees>-6.3567195273935794830322265625</LongitudeDegrees>
            </Position>
            <AltitudeMeters>468.600006103515625</AltitudeMeters>
            <DistanceMeters>NAN</DistanceMeters>
          </Trackpoint>
          <Trackpoint>
            <Time>2019-10-09T12:44:34.000Z</Time>
            <Position>
              <LatitudeDegrees>38.50422712974250316619873046875</LatitudeDegrees>
              <LongitudeDegrees>-6.3568603433668613433837890625</LongitudeDegrees>
            </Position>
            <AltitudeMeters>469.399993896484375</AltitudeMeters>
            <DistanceMeters>NAN</DistanceMeters>
          </Trackpoint>
          <Trackpoint>
            <Time>2019-10-09T12:44:43.000Z</Time>
            <Position>
              <LatitudeDegrees>38.5038344375789165496826171875</LatitudeDegrees>
              <LongitudeDegrees>-6.3569708168506622314453125</LongitudeDegrees>
            </Position>
            <AltitudeMeters>470.20001220703125</AltitudeMeters>
            <DistanceMeters>NAN</DistanceMeters>
          </Trackpoint>
          <Trackpoint>
            <Time>2019-10-09T12:44:48.000Z</Time>
            <Position>
              <LatitudeDegrees>38.50361558608710765838623046875</LatitudeDegrees>
              <LongitudeDegrees>-6.35703879408538341522216796875</LongitudeDegrees>
            </Position>
            <AltitudeMeters>470.600006103515625</AltitudeMeters>
            <DistanceMeters>NAN</DistanceMeters>
          </Trackpoint>
          <Trackpoint>
            <Time>2019-10-09T12:44:51.000Z</Time>
            <Position>
              <LatitudeDegrees>38.50348658859729766845703125</LatitudeDegrees>
              <LongitudeDegrees>-6.3570727407932281494140625</LongitudeDegrees>
            </Position>
            <AltitudeMeters>471</AltitudeMeters>
            <DistanceMeters>NAN</DistanceMeters>
          </Trackpoint>
          <Trackpoint>
            <Time>2019-10-09T12:44:58.000Z</Time>
            <Position>
              <LatitudeDegrees>38.50317184813320636749267578125</LatitudeDegrees>
              <LongitudeDegrees>-6.35714708827435970306396484375</LongitudeDegrees>
            </Position>
            <AltitudeMeters>471.600006103515625</AltitudeMeters>
            <DistanceMeters>NAN</DistanceMeters>
          </Trackpoint>
          <Trackpoint>
            <Time>2019-10-09T12:45:00.000Z</Time>
            <Position>
              <LatitudeDegrees>38.50308333523571491241455078125</LatitudeDegrees>
              <LongitudeDegrees>-6.35716452263295650482177734375</LongitudeDegrees>
            </Position>
            <AltitudeMeters>471.399993896484375</AltitudeMeters>
            <DistanceMeters>NAN</DistanceMeters>
          </Trackpoint>
          <Trackpoint>
            <Time>2019-10-09T12:45:10.000Z</Time>
            <Position>
              <LatitudeDegrees>38.50262668915092945098876953125</LatitudeDegrees>
              <LongitudeDegrees>-6.35718472301959991455078125</LongitudeDegrees>
            </Position>
            <AltitudeMeters>471.600006103515625</AltitudeMeters>
            <DistanceMeters>NAN</DistanceMeters>
          </Trackpoint>
          <Trackpoint>
            <Time>2019-10-09T12:45:17.000Z</Time>
            <Position>
              <LatitudeDegrees>38.50226752460002899169921875</LatitudeDegrees>
              <LongitudeDegrees>-6.35716821067035198211669921875</LongitudeDegrees>
            </Position>
            <AltitudeMeters>471.399993896484375</AltitudeMeters>
            <DistanceMeters>NAN</DistanceMeters>
          </Trackpoint>
          <Trackpoint>
            <Time>2019-10-09T12:45:26.000Z</Time>
            <Position>
              <LatitudeDegrees>38.50181766785681247711181640625</LatitudeDegrees>
              <LongitudeDegrees>-6.35713451541960239410400390625</LongitudeDegrees>
            </Position>
            <AltitudeMeters>471.20001220703125</AltitudeMeters>
            <DistanceMeters>NAN</DistanceMeters>
          </Trackpoint>
          <Trackpoint>
            <Time>2019-10-09T12:45:34.000Z</Time>
            <Position>
              <LatitudeDegrees>38.5013798810541629791259765625</LatitudeDegrees>
              <LongitudeDegrees>-6.3571118004620075225830078125</LongitudeDegrees>
            </Position>
            <AltitudeMeters>470.79998779296875</AltitudeMeters>
            <DistanceMeters>NAN</DistanceMeters>
          </Trackpoint>
          <Trackpoint>
            <Time>2019-10-09T12:45:35.000Z</Time>
            <Position>
              <LatitudeDegrees>38.5013212077319622039794921875</LatitudeDegrees>
              <LongitudeDegrees>-6.3571087829768657684326171875</LongitudeDegrees>
            </Position>
            <AltitudeMeters>470.399993896484375</AltitudeMeters>
            <DistanceMeters>NAN</DistanceMeters>
          </Trackpoint>
          <Trackpoint>
            <Time>2019-10-09T12:45:39.000Z</Time>
            <Position>
              <LatitudeDegrees>38.50108056329190731048583984375</LatitudeDegrees>
              <LongitudeDegrees>-6.35709486901760101318359375</LongitudeDegrees>
            </Position>
            <AltitudeMeters>470.399993896484375</AltitudeMeters>
            <DistanceMeters>NAN</DistanceMeters>
          </Trackpoint>
          <Trackpoint>
            <Time>2019-10-09T12:45:42.000Z</Time>
            <Position>
              <LatitudeDegrees>38.5008944012224674224853515625</LatitudeDegrees>
              <LongitudeDegrees>-6.35708279907703399658203125</LongitudeDegrees>
            </Position>
            <AltitudeMeters>470</AltitudeMeters>
            <DistanceMeters>NAN</DistanceMeters>
          </Trackpoint>
          <Trackpoint>
            <Time>2019-10-09T12:45:45.000Z</Time>
            <Position>
              <LatitudeDegrees>38.50070153363049030303955078125</LatitudeDegrees>
              <LongitudeDegrees>-6.357067711651325225830078125</LongitudeDegrees>
            </Position>
            <AltitudeMeters>470</AltitudeMeters>
            <DistanceMeters>NAN</DistanceMeters>
          </Trackpoint>
          <Trackpoint>
            <Time>2019-10-09T12:45:49.000Z</Time>
            <Position>
              <LatitudeDegrees>38.50044169463217258453369140625</LatitudeDegrees>
              <LongitudeDegrees>-6.35705186985433101654052734375</LongitudeDegrees>
            </Position>
            <AltitudeMeters>469.20001220703125</AltitudeMeters>
            <DistanceMeters>NAN</DistanceMeters>
          </Trackpoint>
          <Trackpoint>
            <Time>2019-10-09T12:45:53.000Z</Time>
            <Position>
              <LatitudeDegrees>38.50017766468226909637451171875</LatitudeDegrees>
              <LongitudeDegrees>-6.3570380397140979766845703125</LongitudeDegrees>
            </Position>
            <AltitudeMeters>469</AltitudeMeters>
            <DistanceMeters>NAN</DistanceMeters>
          </Trackpoint>
          <Trackpoint>
            <Time>2019-10-09T12:45:58.000Z</Time>
            <Position>
              <LatitudeDegrees>38.49984817206859588623046875</LatitudeDegrees>
              <LongitudeDegrees>-6.3570169173181056976318359375</LongitudeDegrees>
            </Position>
            <AltitudeMeters>468.600006103515625</AltitudeMeters>
            <DistanceMeters>NAN</DistanceMeters>
          </Trackpoint>
          <Trackpoint>
            <Time>2019-10-09T12:46:03.000Z</Time>
            <Position>
              <LatitudeDegrees>38.49952588789165019989013671875</LatitudeDegrees>
              <LongitudeDegrees>-6.3569941185414791107177734375</LongitudeDegrees>
            </Position>
            <AltitudeMeters>468.399993896484375</AltitudeMeters>
            <DistanceMeters>NAN</DistanceMeters>
          </Trackpoint>
          <Trackpoint>
            <Time>2019-10-09T12:46:12.000Z</Time>
            <Position>
              <LatitudeDegrees>38.49893764592707157135009765625</LatitudeDegrees>
              <LongitudeDegrees>-6.3569589145481586456298828125</LongitudeDegrees>
            </Position>
            <AltitudeMeters>468.600006103515625</AltitudeMeters>
            <DistanceMeters>NAN</DistanceMeters>
          </Trackpoint>
          <Trackpoint>
            <Time>2019-10-09T12:46:13.000Z</Time>
            <Position>
              <LatitudeDegrees>38.49887159653007984161376953125</LatitudeDegrees>
              <LongitudeDegrees>-6.35695271193981170654296875</LongitudeDegrees>
            </Position>
            <AltitudeMeters>468.79998779296875</AltitudeMeters>
            <DistanceMeters>NAN</DistanceMeters>
          </Trackpoint>
          <Trackpoint>
            <Time>2019-10-09T12:46:21.000Z</Time>
            <Position>
              <LatitudeDegrees>38.49833750165998935699462890625</LatitudeDegrees>
              <LongitudeDegrees>-6.3569146580994129180908203125</LongitudeDegrees>
            </Position>
            <AltitudeMeters>468.399993896484375</AltitudeMeters>
            <DistanceMeters>NAN</DistanceMeters>
          </Trackpoint>
          <Trackpoint>
            <Time>2019-10-09T12:46:23.000Z</Time>
            <Position>
              <LatitudeDegrees>38.49822543561458587646484375</LatitudeDegrees>
              <LongitudeDegrees>-6.35690803639590740203857421875</LongitudeDegrees>
            </Position>
            <AltitudeMeters>468.399993896484375</AltitudeMeters>
            <DistanceMeters>NAN</DistanceMeters>
          </Trackpoint>
          <Trackpoint>
            <Time>2019-10-09T12:46:28.000Z</Time>
            <Position>
              <LatitudeDegrees>38.4979412890970706939697265625</LatitudeDegrees>
              <LongitudeDegrees>-6.3568901829421520233154296875</LongitudeDegrees>
            </Position>
            <AltitudeMeters>468</AltitudeMeters>
            <DistanceMeters>NAN</DistanceMeters>
          </Trackpoint>
          <Trackpoint>
            <Time>2019-10-09T12:46:36.000Z</Time>
            <Position>
              <LatitudeDegrees>38.49742219783365726470947265625</LatitudeDegrees>
              <LongitudeDegrees>-6.3568583317101001739501953125</LongitudeDegrees>
            </Position>
            <AltitudeMeters>468.79998779296875</AltitudeMeters>
            <DistanceMeters>NAN</DistanceMeters>
          </Trackpoint>
          <Trackpoint>
            <Time>2019-10-09T12:46:45.000Z</Time>
            <Position>
              <LatitudeDegrees>38.49687485955655574798583984375</LatitudeDegrees>
              <LongitudeDegrees>-6.35681985877454280853271484375</LongitudeDegrees>
            </Position>
            <AltitudeMeters>469</AltitudeMeters>
            <DistanceMeters>NAN</DistanceMeters>
          </Trackpoint>
          <Trackpoint>
            <Time>2019-10-09T12:46:55.000Z</Time>
            <Position>
              <LatitudeDegrees>38.496315367519855499267578125</LatitudeDegrees>
              <LongitudeDegrees>-6.3567830622196197509765625</LongitudeDegrees>
            </Position>
            <AltitudeMeters>470</AltitudeMeters>
            <DistanceMeters>NAN</DistanceMeters>
          </Trackpoint>
          <Trackpoint>
            <Time>2019-10-09T12:46:59.000Z</Time>
            <Position>
              <LatitudeDegrees>38.4960977733135223388671875</LatitudeDegrees>
              <LongitudeDegrees>-6.35676554404199123382568359375</LongitudeDegrees>
            </Position>
            <AltitudeMeters>470.399993896484375</AltitudeMeters>
            <DistanceMeters>NAN</DistanceMeters>
          </Trackpoint>
          <Trackpoint>
            <Time>2019-10-09T12:47:04.000Z</Time>
            <Position>
              <LatitudeDegrees>38.4958216734230518341064453125</LatitudeDegrees>
              <LongitudeDegrees>-6.356751881539821624755859375</LongitudeDegrees>
            </Position>
            <AltitudeMeters>470.399993896484375</AltitudeMeters>
            <DistanceMeters>NAN</DistanceMeters>
          </Trackpoint>
          <Trackpoint>
            <Time>2019-10-09T12:47:14.000Z</Time>
            <Position>
              <LatitudeDegrees>38.49527173675596714019775390625</LatitudeDegrees>
              <LongitudeDegrees>-6.35672044940292835235595703125</LongitudeDegrees>
            </Position>
            <AltitudeMeters>471</AltitudeMeters>
            <DistanceMeters>NAN</DistanceMeters>
          </Trackpoint>
          <Trackpoint>
            <Time>2019-10-09T12:47:21.000Z</Time>
            <Position>
              <LatitudeDegrees>38.49488214589655399322509765625</LatitudeDegrees>
              <LongitudeDegrees>-6.3566950522363185882568359375</LongitudeDegrees>
            </Position>
            <AltitudeMeters>471.399993896484375</AltitudeMeters>
            <DistanceMeters>NAN</DistanceMeters>
          </Trackpoint>
          <Trackpoint>
            <Time>2019-10-09T12:47:24.000Z</Time>
            <Position>
              <LatitudeDegrees>38.49471853114664554595947265625</LatitudeDegrees>
              <LongitudeDegrees>-6.3566970638930797576904296875</LongitudeDegrees>
            </Position>
            <AltitudeMeters>472</AltitudeMeters>
            <DistanceMeters>NAN</DistanceMeters>
          </Trackpoint>
          <Trackpoint>
            <Time>2019-10-09T12:47:29.000Z</Time>
            <Position>
              <LatitudeDegrees>38.49444888532161712646484375</LatitudeDegrees>
              <LongitudeDegrees>-6.35668356902897357940673828125</LongitudeDegrees>
            </Position>
            <AltitudeMeters>472.600006103515625</AltitudeMeters>
            <DistanceMeters>NAN</DistanceMeters>
          </Trackpoint>
          <Trackpoint>
            <Time>2019-10-09T12:47:35.000Z</Time>
            <Position>
              <LatitudeDegrees>38.49412827752530574798583984375</LatitudeDegrees>
              <LongitudeDegrees>-6.3566571660339832305908203125</LongitudeDegrees>
            </Position>
            <AltitudeMeters>473</AltitudeMeters>
            <DistanceMeters>NAN</DistanceMeters>
          </Trackpoint>
          <Trackpoint>
            <Time>2019-10-09T12:47:41.000Z</Time>
            <Position>
              <LatitudeDegrees>38.493817560374736785888671875</LatitudeDegrees>
              <LongitudeDegrees>-6.3566377200186252593994140625</LongitudeDegrees>
            </Position>
            <AltitudeMeters>474.20001220703125</AltitudeMeters>
            <DistanceMeters>NAN</DistanceMeters>
          </Trackpoint>
          <Trackpoint>
            <Time>2019-10-09T12:47:43.000Z</Time>
            <Position>
              <LatitudeDegrees>38.49371530115604400634765625</LatitudeDegrees>
              <LongitudeDegrees>-6.35663696564733982086181640625</LongitudeDegrees>
            </Position>
            <AltitudeMeters>474.20001220703125</AltitudeMeters>
            <DistanceMeters>NAN</DistanceMeters>
          </Trackpoint>
          <Trackpoint>
            <Time>2019-10-09T12:47:48.000Z</Time>
            <Position>
              <LatitudeDegrees>38.493462838232517242431640625</LatitudeDegrees>
              <LongitudeDegrees>-6.35662221349775791168212890625</LongitudeDegrees>
            </Position>
            <AltitudeMeters>475.20001220703125</AltitudeMeters>
            <DistanceMeters>NAN</DistanceMeters>
          </Trackpoint>
          <Trackpoint>
            <Time>2019-10-09T12:47:50.000Z</Time>
            <Position>
              <LatitudeDegrees>38.49336200393736362457275390625</LatitudeDegrees>
              <LongitudeDegrees>-6.35661249049007892608642578125</LongitudeDegrees>
            </Position>
            <AltitudeMeters>475.600006103515625</AltitudeMeters>
            <DistanceMeters>NAN</DistanceMeters>
          </Trackpoint>
          <Trackpoint>
            <Time>2019-10-09T12:47:57.000Z</Time>
            <Position>
              <LatitudeDegrees>38.49303075112402439117431640625</LatitudeDegrees>
              <LongitudeDegrees>-6.3565934635698795318603515625</LongitudeDegrees>
            </Position>
            <AltitudeMeters>476.399993896484375</AltitudeMeters>
            <DistanceMeters>NAN</DistanceMeters>
          </Trackpoint>
          <Trackpoint>
            <Time>2019-10-09T12:47:59.000Z</Time>
            <Position>
              <LatitudeDegrees>38.4929379634559154510498046875</LatitudeDegrees>
              <LongitudeDegrees>-6.356594301760196685791015625</LongitudeDegrees>
            </Position>
            <AltitudeMeters>476.79998779296875</AltitudeMeters>
            <DistanceMeters>NAN</DistanceMeters>
          </Trackpoint>
          <Trackpoint>
            <Time>2019-10-09T12:48:03.000Z</Time>
            <Position>
              <LatitudeDegrees>38.4927592612802982330322265625</LatitudeDegrees>
              <LongitudeDegrees>-6.35659505613148212432861328125</LongitudeDegrees>
            </Position>
            <AltitudeMeters>477.399993896484375</AltitudeMeters>
            <DistanceMeters>NAN</DistanceMeters>
          </Trackpoint>
          <Trackpoint>
            <Time>2019-10-09T12:48:08.000Z</Time>
            <Position>
              <LatitudeDegrees>38.49253806285560131072998046875</LatitudeDegrees>
              <LongitudeDegrees>-6.3565994985401630401611328125</LongitudeDegrees>
            </Position>
            <AltitudeMeters>478.20001220703125</AltitudeMeters>
            <DistanceMeters>NAN</DistanceMeters>
          </Trackpoint>
          <Trackpoint>
            <Time>2019-10-09T12:48:10.000Z</Time>
            <Position>
              <LatitudeDegrees>38.49244871176779270172119140625</LatitudeDegrees>
              <LongitudeDegrees>-6.3566068746149539947509765625</LongitudeDegrees>
            </Position>
            <AltitudeMeters>478.399993896484375</AltitudeMeters>
            <DistanceMeters>NAN</DistanceMeters>
          </Trackpoint>
          <Trackpoint>
            <Time>2019-10-09T12:48:17.000Z</Time>
            <Position>
              <LatitudeDegrees>38.49214210174977779388427734375</LatitudeDegrees>
              <LongitudeDegrees>-6.3566457666456699371337890625</LongitudeDegrees>
            </Position>
            <AltitudeMeters>479.600006103515625</AltitudeMeters>
            <DistanceMeters>NAN</DistanceMeters>
          </Trackpoint>
          <Trackpoint>
            <Time>2019-10-09T12:48:18.000Z</Time>
            <Position>
              <LatitudeDegrees>38.49209717474877834320068359375</LatitudeDegrees>
              <LongitudeDegrees>-6.35665171779692173004150390625</LongitudeDegrees>
            </Position>
            <AltitudeMeters>479.600006103515625</AltitudeMeters>
            <DistanceMeters>NAN</DistanceMeters>
          </Trackpoint>
          <Trackpoint>
            <Time>2019-10-09T12:48:27.000Z</Time>
            <Position>
              <LatitudeDegrees>38.49166684783995151519775390625</LatitudeDegrees>
              <LongitudeDegrees>-6.35673888958990573883056640625</LongitudeDegrees>
            </Position>
            <AltitudeMeters>479.79998779296875</AltitudeMeters>
            <DistanceMeters>NAN</DistanceMeters>
          </Trackpoint>
          <Trackpoint>
            <Time>2019-10-09T12:48:37.000Z</Time>
            <Position>
              <LatitudeDegrees>38.4911107085645198822021484375</LatitudeDegrees>
              <LongitudeDegrees>-6.35690552182495594024658203125</LongitudeDegrees>
            </Position>
            <AltitudeMeters>478.79998779296875</AltitudeMeters>
            <DistanceMeters>NAN</DistanceMeters>
          </Trackpoint>
          <Trackpoint>
            <Time>2019-10-09T12:48:42.000Z</Time>
            <Position>
              <LatitudeDegrees>38.4908290766179561614990234375</LatitudeDegrees>
              <LongitudeDegrees>-6.35698984377086162567138671875</LongitudeDegrees>
            </Position>
            <AltitudeMeters>478.399993896484375</AltitudeMeters>
            <DistanceMeters>NAN</DistanceMeters>
          </Trackpoint>
          <Trackpoint>
            <Time>2019-10-09T12:48:46.000Z</Time>
            <Position>
              <LatitudeDegrees>38.49060150794684886932373046875</LatitudeDegrees>
              <LongitudeDegrees>-6.35706746019423007965087890625</LongitudeDegrees>
            </Position>
            <AltitudeMeters>479</AltitudeMeters>
            <DistanceMeters>NAN</DistanceMeters>
          </Trackpoint>
          <Trackpoint>
            <Time>2019-10-09T12:48:52.000Z</Time>
            <Position>
              <LatitudeDegrees>38.4902604483067989349365234375</LatitudeDegrees>
              <LongitudeDegrees>-6.3571788556873798370361328125</LongitudeDegrees>
            </Position>
            <AltitudeMeters>479</AltitudeMeters>
            <DistanceMeters>NAN</DistanceMeters>
          </Trackpoint>
          <Trackpoint>
            <Time>2019-10-09T12:48:56.000Z</Time>
            <Position>
              <LatitudeDegrees>38.49003958515822887420654296875</LatitudeDegrees>
              <LongitudeDegrees>-6.3572646863758563995361328125</LongitudeDegrees>
            </Position>
            <AltitudeMeters>479.20001220703125</AltitudeMeters>
            <DistanceMeters>NAN</DistanceMeters>
          </Trackpoint>
          <Trackpoint>
            <Time>2019-10-09T12:48:59.000Z</Time>
            <Position>
              <LatitudeDegrees>38.489868678152561187744140625</LatitudeDegrees>
              <LongitudeDegrees>-6.3573116250336170196533203125</LongitudeDegrees>
            </Position>
            <AltitudeMeters>479</AltitudeMeters>
            <DistanceMeters>NAN</DistanceMeters>
          </Trackpoint>
          <Trackpoint>
            <Time>2019-10-09T12:49:01.000Z</Time>
            <Position>
              <LatitudeDegrees>38.4897588752210140228271484375</LatitudeDegrees>
              <LongitudeDegrees>-6.35734741576015949249267578125</LongitudeDegrees>
            </Position>
            <AltitudeMeters>478.79998779296875</AltitudeMeters>
            <DistanceMeters>NAN</DistanceMeters>
          </Trackpoint>
          <Trackpoint>
            <Time>2019-10-09T12:49:10.000Z</Time>
            <Position>
              <LatitudeDegrees>38.48924699239432811737060546875</LatitudeDegrees>
              <LongitudeDegrees>-6.35752360336482524871826171875</LongitudeDegrees>
            </Position>
            <AltitudeMeters>478.79998779296875</AltitudeMeters>
            <DistanceMeters>NAN</DistanceMeters>
          </Trackpoint>
          <Trackpoint>
            <Time>2019-10-09T12:49:12.000Z</Time>
            <Position>
              <LatitudeDegrees>38.48913140594959259033203125</LatitudeDegrees>
              <LongitudeDegrees>-6.357559226453304290771484375</LongitudeDegrees>
            </Position>
            <AltitudeMeters>479.20001220703125</AltitudeMeters>
            <DistanceMeters>NAN</DistanceMeters>
          </Trackpoint>
          <Trackpoint>
            <Time>2019-10-09T12:49:21.000Z</Time>
            <Position>
              <LatitudeDegrees>38.48861533217132091522216796875</LatitudeDegrees>
              <LongitudeDegrees>-6.3577344082295894622802734375</LongitudeDegrees>
            </Position>
            <AltitudeMeters>478.79998779296875</AltitudeMeters>
            <DistanceMeters>NAN</DistanceMeters>
          </Trackpoint>
          <Trackpoint>
            <Time>2019-10-09T12:49:23.000Z</Time>
            <Position>
              <LatitudeDegrees>38.4884999133646488189697265625</LatitudeDegrees>
              <LongitudeDegrees>-6.35777506045997142791748046875</LongitudeDegrees>
            </Position>
            <AltitudeMeters>479</AltitudeMeters>
            <DistanceMeters>NAN</DistanceMeters>
          </Trackpoint>
          <Trackpoint>
            <Time>2019-10-09T12:49:32.000Z</Time>
            <Position>
              <LatitudeDegrees>38.4879825823009014129638671875</LatitudeDegrees>
              <LongitudeDegrees>-6.35794169269502162933349609375</LongitudeDegrees>
            </Position>
            <AltitudeMeters>478.600006103515625</AltitudeMeters>
            <DistanceMeters>NAN</DistanceMeters>
          </Trackpoint>
          <Trackpoint>
            <Time>2019-10-09T12:49:34.000Z</Time>
            <Position>
              <LatitudeDegrees>38.4878665767610073089599609375</LatitudeDegrees>
              <LongitudeDegrees>-6.35797656141221523284912109375</LongitudeDegrees>
            </Position>
            <AltitudeMeters>478.399993896484375</AltitudeMeters>
            <DistanceMeters>NAN</DistanceMeters>
          </Trackpoint>
          <Trackpoint>
            <Time>2019-10-09T12:49:42.000Z</Time>
            <Position>
              <LatitudeDegrees>38.48741554655134677886962890625</LatitudeDegrees>
              <LongitudeDegrees>-6.3581260107457637786865234375</LongitudeDegrees>
            </Position>
            <AltitudeMeters>479.399993896484375</AltitudeMeters>
            <DistanceMeters>NAN</DistanceMeters>
          </Trackpoint>
          <Trackpoint>
            <Time>2019-10-09T12:49:52.000Z</Time>
            <Position>
              <LatitudeDegrees>38.4868563897907733917236328125</LatitudeDegrees>
              <LongitudeDegrees>-6.35831854306161403656005859375</LongitudeDegrees>
            </Position>
            <AltitudeMeters>479.600006103515625</AltitudeMeters>
            <DistanceMeters>NAN</DistanceMeters>
          </Trackpoint>
          <Trackpoint>
            <Time>2019-10-09T12:49:58.000Z</Time>
            <Position>
              <LatitudeDegrees>38.4865276515483856201171875</LatitudeDegrees>
              <LongitudeDegrees>-6.358428262174129486083984375</LongitudeDegrees>
            </Position>
            <AltitudeMeters>480.600006103515625</AltitudeMeters>
            <DistanceMeters>NAN</DistanceMeters>
          </Trackpoint>
          <Trackpoint>
            <Time>2019-10-09T12:50:02.000Z</Time>
            <Position>
              <LatitudeDegrees>38.4863192774355411529541015625</LatitudeDegrees>
              <LongitudeDegrees>-6.35849271900951862335205078125</LongitudeDegrees>
            </Position>
            <AltitudeMeters>481.399993896484375</AltitudeMeters>
            <DistanceMeters>NAN</DistanceMeters>
          </Trackpoint>
          <Trackpoint>
            <Time>2019-10-09T12:50:03.000Z</Time>
            <Position>
              <LatitudeDegrees>38.4862683154642581939697265625</LatitudeDegrees>
              <LongitudeDegrees>-6.35851115919649600982666015625</LongitudeDegrees>
            </Position>
            <AltitudeMeters>481.79998779296875</AltitudeMeters>
            <DistanceMeters>NAN</DistanceMeters>
          </Trackpoint>
          <Trackpoint>
            <Time>2019-10-09T12:50:11.000Z</Time>
            <Position>
              <LatitudeDegrees>38.48589691333472728729248046875</LatitudeDegrees>
              <LongitudeDegrees>-6.3586420007050037384033203125</LongitudeDegrees>
            </Position>
            <AltitudeMeters>483.600006103515625</AltitudeMeters>
            <DistanceMeters>NAN</DistanceMeters>
          </Trackpoint>
          <Trackpoint>
            <Time>2019-10-09T12:50:19.000Z</Time>
            <Position>
              <LatitudeDegrees>38.48553582094609737396240234375</LatitudeDegrees>
              <LongitudeDegrees>-6.35875373147428035736083984375</LongitudeDegrees>
            </Position>
            <AltitudeMeters>483.79998779296875</AltitudeMeters>
            <DistanceMeters>NAN</DistanceMeters>
          </Trackpoint>
          <Trackpoint>
            <Time>2019-10-09T12:50:25.000Z</Time>
            <Position>
              <LatitudeDegrees>38.48525553010404109954833984375</LatitudeDegrees>
              <LongitudeDegrees>-6.3588485307991504669189453125</LongitudeDegrees>
            </Position>
            <AltitudeMeters>484.600006103515625</AltitudeMeters>
            <DistanceMeters>NAN</DistanceMeters>
          </Trackpoint>
          <Trackpoint>
            <Time>2019-10-09T12:50:26.000Z</Time>
            <Position>
              <LatitudeDegrees>38.48521026782691478729248046875</LatitudeDegrees>
              <LongitudeDegrees>-6.35886336676776409149169921875</LongitudeDegrees>
            </Position>
            <AltitudeMeters>485</AltitudeMeters>
            <DistanceMeters>NAN</DistanceMeters>
          </Trackpoint>
          <Trackpoint>
            <Time>2019-10-09T12:50:28.000Z</Time>
            <Position>
              <LatitudeDegrees>38.48512108437716960906982421875</LatitudeDegrees>
              <LongitudeDegrees>-6.358892284333705902099609375</LongitudeDegrees>
            </Position>
            <AltitudeMeters>485.399993896484375</AltitudeMeters>
            <DistanceMeters>NAN</DistanceMeters>
          </Trackpoint>
          <Trackpoint>
            <Time>2019-10-09T12:50:32.000Z</Time>
            <Position>
              <LatitudeDegrees>38.4849419631063938140869140625</LatitudeDegrees>
              <LongitudeDegrees>-6.35895942337810993194580078125</LongitudeDegrees>
            </Position>
            <AltitudeMeters>485.600006103515625</AltitudeMeters>
            <DistanceMeters>NAN</DistanceMeters>
          </Trackpoint>
          <Trackpoint>
            <Time>2019-10-09T12:50:34.000Z</Time>
            <Position>
              <LatitudeDegrees>38.48485521040856838226318359375</LatitudeDegrees>
              <LongitudeDegrees>-6.35898876003921031951904296875</LongitudeDegrees>
            </Position>
            <AltitudeMeters>486.20001220703125</AltitudeMeters>
            <DistanceMeters>NAN</DistanceMeters>
          </Trackpoint>
          <Trackpoint>
            <Time>2019-10-09T12:50:36.000Z</Time>
            <Position>
              <LatitudeDegrees>38.48476720042526721954345703125</LatitudeDegrees>
              <LongitudeDegrees>-6.35901709087193012237548828125</LongitudeDegrees>
            </Position>
            <AltitudeMeters>486.79998779296875</AltitudeMeters>
            <DistanceMeters>NAN</DistanceMeters>
          </Trackpoint>
          <Trackpoint>
            <Time>2019-10-09T12:50:40.000Z</Time>
            <Position>
              <LatitudeDegrees>38.48458849824965000152587890625</LatitudeDegrees>
              <LongitudeDegrees>-6.35907710529863834381103515625</LongitudeDegrees>
            </Position>
            <AltitudeMeters>487.20001220703125</AltitudeMeters>
            <DistanceMeters>NAN</DistanceMeters>
          </Trackpoint>
          <Trackpoint>
            <Time>2019-10-09T12:50:41.000Z</Time>
            <Position>
              <LatitudeDegrees>38.48454591818153858184814453125</LatitudeDegrees>
              <LongitudeDegrees>-6.3590919412672519683837890625</LongitudeDegrees>
            </Position>
            <AltitudeMeters>487.20001220703125</AltitudeMeters>
            <DistanceMeters>NAN</DistanceMeters>
          </Trackpoint>
          <Trackpoint>
            <Time>2019-10-09T12:50:46.000Z</Time>
            <Position>
              <LatitudeDegrees>38.48433016799390316009521484375</LatitudeDegrees>
              <LongitudeDegrees>-6.35916461236774921417236328125</LongitudeDegrees>
            </Position>
            <AltitudeMeters>488.399993896484375</AltitudeMeters>
            <DistanceMeters>NAN</DistanceMeters>
          </Trackpoint>
          <Trackpoint>
            <Time>2019-10-09T12:50:52.000Z</Time>
            <Position>
              <LatitudeDegrees>38.48407921381294727325439453125</LatitudeDegrees>
              <LongitudeDegrees>-6.3592468388378620147705078125</LongitudeDegrees>
            </Position>
            <AltitudeMeters>489.600006103515625</AltitudeMeters>
            <DistanceMeters>NAN</DistanceMeters>
          </Trackpoint>
          <Trackpoint>
            <Time>2019-10-09T12:50:55.000Z</Time>
            <Position>
              <LatitudeDegrees>38.4839569218456745147705078125</LatitudeDegrees>
              <LongitudeDegrees>-6.35928983800113201141357421875</LongitudeDegrees>
            </Position>
            <AltitudeMeters>490.20001220703125</AltitudeMeters>
            <DistanceMeters>NAN</DistanceMeters>
          </Trackpoint>
          <Trackpoint>
            <Time>2019-10-09T12:50:59.000Z</Time>
            <Position>
              <LatitudeDegrees>38.4837917983531951904296875</LatitudeDegrees>
              <LongitudeDegrees>-6.35934532620012760162353515625</LongitudeDegrees>
            </Position>
            <AltitudeMeters>490.600006103515625</AltitudeMeters>
            <DistanceMeters>NAN</DistanceMeters>
          </Trackpoint>
          <Trackpoint>
            <Time>2019-10-09T12:51:04.000Z</Time>
            <Position>
              <LatitudeDegrees>38.483590967953205108642578125</LatitudeDegrees>
              <LongitudeDegrees>-6.35941036976873874664306640625</LongitudeDegrees>
            </Position>
            <AltitudeMeters>491.600006103515625</AltitudeMeters>
            <DistanceMeters>NAN</DistanceMeters>
          </Trackpoint>
          <Trackpoint>
            <Time>2019-10-09T12:51:05.000Z</Time>
            <Position>
              <LatitudeDegrees>38.483554422855377197265625</LatitudeDegrees>
              <LongitudeDegrees>-6.35942034423351287841796875</LongitudeDegrees>
            </Position>
            <AltitudeMeters>491.79998779296875</AltitudeMeters>
            <DistanceMeters>NAN</DistanceMeters>
          </Trackpoint>
          <Trackpoint>
            <Time>2019-10-09T12:51:14.000Z</Time>
            <Position>
              <LatitudeDegrees>38.4832042269408702850341796875</LatitudeDegrees>
              <LongitudeDegrees>-6.35953995399177074432373046875</LongitudeDegrees>
            </Position>
            <AltitudeMeters>492.79998779296875</AltitudeMeters>
            <DistanceMeters>NAN</DistanceMeters>
          </Trackpoint>
          <Trackpoint>
            <Time>2019-10-09T12:51:16.000Z</Time>
            <Position>
              <LatitudeDegrees>38.4831247664988040924072265625</LatitudeDegrees>
              <LongitudeDegrees>-6.35956962592899799346923828125</LongitudeDegrees>
            </Position>
            <AltitudeMeters>493</AltitudeMeters>
            <DistanceMeters>NAN</DistanceMeters>
          </Trackpoint>
          <Trackpoint>
            <Time>2019-10-09T12:51:24.000Z</Time>
            <Position>
              <LatitudeDegrees>38.48280918784439563751220703125</LatitudeDegrees>
              <LongitudeDegrees>-6.3596726395189762115478515625</LongitudeDegrees>
            </Position>
            <AltitudeMeters>493</AltitudeMeters>
            <DistanceMeters>NAN</DistanceMeters>
          </Trackpoint>
          <Trackpoint>
            <Time>2019-10-09T12:51:33.000Z</Time>
            <Position>
              <LatitudeDegrees>38.48244734108448028564453125</LatitudeDegrees>
              <LongitudeDegrees>-6.3597976975142955780029296875</LongitudeDegrees>
            </Position>
            <AltitudeMeters>493.600006103515625</AltitudeMeters>
            <DistanceMeters>NAN</DistanceMeters>
          </Trackpoint>
          <Trackpoint>
            <Time>2019-10-09T12:51:35.000Z</Time>
            <Position>
              <LatitudeDegrees>38.482365198433399200439453125</LatitudeDegrees>
              <LongitudeDegrees>-6.35982544161379337310791015625</LongitudeDegrees>
            </Position>
            <AltitudeMeters>494</AltitudeMeters>
            <DistanceMeters>NAN</DistanceMeters>
          </Trackpoint>
          <Trackpoint>
            <Time>2019-10-09T12:51:45.000Z</Time>
            <Position>
              <LatitudeDegrees>38.48195155151188373565673828125</LatitudeDegrees>
              <LongitudeDegrees>-6.359960474073886871337890625</LongitudeDegrees>
            </Position>
            <AltitudeMeters>494.600006103515625</AltitudeMeters>
            <DistanceMeters>NAN</DistanceMeters>
          </Trackpoint>
          <Trackpoint>
            <Time>2019-10-09T12:51:50.000Z</Time>
            <Position>
              <LatitudeDegrees>38.48174401558935642242431640625</LatitudeDegrees>
              <LongitudeDegrees>-6.36003079824149608612060546875</LongitudeDegrees>
            </Position>
            <AltitudeMeters>494.600006103515625</AltitudeMeters>
            <DistanceMeters>NAN</DistanceMeters>
          </Trackpoint>
          <Trackpoint>
            <Time>2019-10-09T12:51:55.000Z</Time>
            <Position>
              <LatitudeDegrees>38.4815432690083980560302734375</LatitudeDegrees>
              <LongitudeDegrees>-6.3600937463343143463134765625</LongitudeDegrees>
            </Position>
            <AltitudeMeters>495</AltitudeMeters>
            <DistanceMeters>NAN</DistanceMeters>
          </Trackpoint>
          <Trackpoint>
            <Time>2019-10-09T12:51:58.000Z</Time>
            <Position>
              <LatitudeDegrees>38.48142181523144245147705078125</LatitudeDegrees>
              <LongitudeDegrees>-6.36013506911695003509521484375</LongitudeDegrees>
            </Position>
            <AltitudeMeters>495.20001220703125</AltitudeMeters>
            <DistanceMeters>NAN</DistanceMeters>
          </Trackpoint>
          <Trackpoint>
            <Time>2019-10-09T12:52:05.000Z</Time>
            <Position>
              <LatitudeDegrees>38.4811362437903881072998046875</LatitudeDegrees>
              <LongitudeDegrees>-6.3602332212030887603759765625</LongitudeDegrees>
            </Position>
            <AltitudeMeters>496.20001220703125</AltitudeMeters>
            <DistanceMeters>NAN</DistanceMeters>
          </Trackpoint>
          <Trackpoint>
            <Time>2019-10-09T12:52:09.000Z</Time>
            <Position>
              <LatitudeDegrees>38.48097405396401882171630859375</LatitudeDegrees>
              <LongitudeDegrees>-6.36028946377336978912353515625</LongitudeDegrees>
            </Position>
            <AltitudeMeters>496.79998779296875</AltitudeMeters>
            <DistanceMeters>NAN</DistanceMeters>
          </Trackpoint>
          <Trackpoint>
            <Time>2019-10-09T12:52:13.000Z</Time>
            <Position>
              <LatitudeDegrees>38.4808113612234592437744140625</LatitudeDegrees>
              <LongitudeDegrees>-6.36034243740141391754150390625</LongitudeDegrees>
            </Position>
            <AltitudeMeters>497.20001220703125</AltitudeMeters>
            <DistanceMeters>NAN</DistanceMeters>
          </Trackpoint>
          <Trackpoint>
            <Time>2019-10-09T12:52:19.000Z</Time>
            <Position>
              <LatitudeDegrees>38.48057574592530727386474609375</LatitudeDegrees>
              <LongitudeDegrees>-6.3604256696999073028564453125</LongitudeDegrees>
            </Position>
            <AltitudeMeters>498</AltitudeMeters>
            <DistanceMeters>NAN</DistanceMeters>
          </Trackpoint>
          <Trackpoint>
            <Time>2019-10-09T12:52:20.000Z</Time>
            <Position>
              <LatitudeDegrees>38.4805360995233058929443359375</LatitudeDegrees>
              <LongitudeDegrees>-6.36043832637369632720947265625</LongitudeDegrees>
            </Position>
            <AltitudeMeters>498.399993896484375</AltitudeMeters>
            <DistanceMeters>NAN</DistanceMeters>
          </Trackpoint>
          <Trackpoint>
            <Time>2019-10-09T12:52:29.000Z</Time>
            <Position>
              <LatitudeDegrees>38.480182550847530364990234375</LatitudeDegrees>
              <LongitudeDegrees>-6.36055047623813152313232421875</LongitudeDegrees>
            </Position>
            <AltitudeMeters>499</AltitudeMeters>
            <DistanceMeters>NAN</DistanceMeters>
          </Trackpoint>
          <Trackpoint>
            <Time>2019-10-09T12:52:32.000Z</Time>
            <Position>
              <LatitudeDegrees>38.4800667129456996917724609375</LatitudeDegrees>
              <LongitudeDegrees>-6.3605866022408008575439453125</LongitudeDegrees>
            </Position>
            <AltitudeMeters>500.20001220703125</AltitudeMeters>
            <DistanceMeters>NAN</DistanceMeters>
          </Trackpoint>
          <Trackpoint>
            <Time>2019-10-09T12:52:40.000Z</Time>
            <Position>
              <LatitudeDegrees>38.4797565825283527374267578125</LatitudeDegrees>
              <LongitudeDegrees>-6.360696069896221160888671875</LongitudeDegrees>
            </Position>
            <AltitudeMeters>500.399993896484375</AltitudeMeters>
            <DistanceMeters>NAN</DistanceMeters>
          </Trackpoint>
          <Trackpoint>
            <Time>2019-10-09T12:52:51.000Z</Time>
            <Position>
              <LatitudeDegrees>38.479324243962764739990234375</LatitudeDegrees>
              <LongitudeDegrees>-6.36083328165113925933837890625</LongitudeDegrees>
            </Position>
            <AltitudeMeters>500.79998779296875</AltitudeMeters>
            <DistanceMeters>NAN</DistanceMeters>
          </Trackpoint>
          <Trackpoint>
            <Time>2019-10-09T12:52:53.000Z</Time>
            <Position>
              <LatitudeDegrees>38.4792476333677768707275390625</LatitudeDegrees>
              <LongitudeDegrees>-6.36086027137935161590576171875</LongitudeDegrees>
            </Position>
            <AltitudeMeters>501.20001220703125</AltitudeMeters>
            <DistanceMeters>NAN</DistanceMeters>
          </Trackpoint>
          <Trackpoint>
            <Time>2019-10-09T12:53:01.000Z</Time>
            <Position>
              <LatitudeDegrees>38.47893037833273410797119140625</LatitudeDegrees>
              <LongitudeDegrees>-6.36096923612058162689208984375</LongitudeDegrees>
            </Position>
            <AltitudeMeters>502</AltitudeMeters>
            <DistanceMeters>NAN</DistanceMeters>
          </Trackpoint>
          <Trackpoint>
            <Time>2019-10-09T12:53:11.000Z</Time>
            <Position>
              <LatitudeDegrees>38.47852938808500766754150390625</LatitudeDegrees>
              <LongitudeDegrees>-6.36110384948551654815673828125</LongitudeDegrees>
            </Position>
            <AltitudeMeters>502</AltitudeMeters>
            <DistanceMeters>NAN</DistanceMeters>
          </Trackpoint>
          <Trackpoint>
            <Time>2019-10-09T12:53:15.000Z</Time>
            <Position>
              <LatitudeDegrees>38.4783675335347652435302734375</LatitudeDegrees>
              <LongitudeDegrees>-6.36115430854260921478271484375</LongitudeDegrees>
            </Position>
            <AltitudeMeters>502.399993896484375</AltitudeMeters>
            <DistanceMeters>NAN</DistanceMeters>
          </Trackpoint>
          <Trackpoint>
            <Time>2019-10-09T12:53:22.000Z</Time>
            <Position>
              <LatitudeDegrees>38.47808338701725006103515625</LatitudeDegrees>
              <LongitudeDegrees>-6.36124667711555957794189453125</LongitudeDegrees>
            </Position>
            <AltitudeMeters>502.79998779296875</AltitudeMeters>
            <DistanceMeters>NAN</DistanceMeters>
          </Trackpoint>
          <Trackpoint>
            <Time>2019-10-09T12:53:26.000Z</Time>
            <Position>
              <LatitudeDegrees>38.477920778095722198486328125</LatitudeDegrees>
              <LongitudeDegrees>-6.3613057695329189300537109375</LongitudeDegrees>
            </Position>
            <AltitudeMeters>503.399993896484375</AltitudeMeters>
            <DistanceMeters>NAN</DistanceMeters>
          </Trackpoint>
          <Trackpoint>
            <Time>2019-10-09T12:53:32.000Z</Time>
            <Position>
              <LatitudeDegrees>38.477674014866352081298828125</LatitudeDegrees>
              <LongitudeDegrees>-6.361382044851779937744140625</LongitudeDegrees>
            </Position>
            <AltitudeMeters>503.79998779296875</AltitudeMeters>
            <DistanceMeters>NAN</DistanceMeters>
          </Trackpoint>
          <Trackpoint>
            <Time>2019-10-09T12:53:35.000Z</Time>
            <Position>
              <LatitudeDegrees>38.47755272872745990753173828125</LatitudeDegrees>
              <LongitudeDegrees>-6.36141934432089328765869140625</LongitudeDegrees>
            </Position>
            <AltitudeMeters>504.600006103515625</AltitudeMeters>
            <DistanceMeters>NAN</DistanceMeters>
          </Trackpoint>
          <Trackpoint>
            <Time>2019-10-09T12:53:43.000Z</Time>
            <Position>
              <LatitudeDegrees>38.4772272594273090362548828125</LatitudeDegrees>
              <LongitudeDegrees>-6.36152730323374271392822265625</LongitudeDegrees>
            </Position>
            <AltitudeMeters>504.600006103515625</AltitudeMeters>
            <DistanceMeters>NAN</DistanceMeters>
          </Trackpoint>
          <Trackpoint>
            <Time>2019-10-09T12:53:50.000Z</Time>
            <Position>
              <LatitudeDegrees>38.47695015370845794677734375</LatitudeDegrees>
              <LongitudeDegrees>-6.3616164028644561767578125</LongitudeDegrees>
            </Position>
            <AltitudeMeters>505.600006103515625</AltitudeMeters>
            <DistanceMeters>NAN</DistanceMeters>
          </Trackpoint>
          <Trackpoint>
            <Time>2019-10-09T12:53:53.000Z</Time>
            <Position>
              <LatitudeDegrees>38.4768309630453586578369140625</LatitudeDegrees>
              <LongitudeDegrees>-6.36165386997163295745849609375</LongitudeDegrees>
            </Position>
            <AltitudeMeters>505.79998779296875</AltitudeMeters>
            <DistanceMeters>NAN</DistanceMeters>
          </Trackpoint>
          <Trackpoint>
            <Time>2019-10-09T12:54:02.000Z</Time>
            <Position>
              <LatitudeDegrees>38.47646542824804782867431640625</LatitudeDegrees>
              <LongitudeDegrees>-6.3617832027375698089599609375</LongitudeDegrees>
            </Position>
            <AltitudeMeters>506.79998779296875</AltitudeMeters>
            <DistanceMeters>NAN</DistanceMeters>
          </Trackpoint>
          <Trackpoint>
            <Time>2019-10-09T12:54:03.000Z</Time>
            <Position>
              <LatitudeDegrees>38.4764249436557292938232421875</LatitudeDegrees>
              <LongitudeDegrees>-6.36179652996361255645751953125</LongitudeDegrees>
            </Position>
            <AltitudeMeters>507</AltitudeMeters>
            <DistanceMeters>NAN</DistanceMeters>
          </Trackpoint>
          <Trackpoint>
            <Time>2019-10-09T12:54:09.000Z</Time>
            <Position>
              <LatitudeDegrees>38.47619284875690937042236328125</LatitudeDegrees>
              <LongitudeDegrees>-6.36187716387212276458740234375</LongitudeDegrees>
            </Position>
            <AltitudeMeters>507.79998779296875</AltitudeMeters>
            <DistanceMeters>NAN</DistanceMeters>
          </Trackpoint>
          <Trackpoint>
            <Time>2019-10-09T12:54:13.000Z</Time>
            <Position>
              <LatitudeDegrees>38.47603308968245983123779296875</LatitudeDegrees>
              <LongitudeDegrees>-6.36191907338798046112060546875</LongitudeDegrees>
            </Position>
            <AltitudeMeters>508.20001220703125</AltitudeMeters>
            <DistanceMeters>NAN</DistanceMeters>
          </Trackpoint>
          <Trackpoint>
            <Time>2019-10-09T12:54:16.000Z</Time>
            <Position>
              <LatitudeDegrees>38.47591239027678966522216796875</LatitudeDegrees>
              <LongitudeDegrees>-6.361958049237728118896484375</LongitudeDegrees>
            </Position>
            <AltitudeMeters>508.79998779296875</AltitudeMeters>
            <DistanceMeters>NAN</DistanceMeters>
          </Trackpoint>
          <Trackpoint>
            <Time>2019-10-09T12:54:19.000Z</Time>
            <Position>
              <LatitudeDegrees>38.4757862426340579986572265625</LatitudeDegrees>
              <LongitudeDegrees>-6.362004987895488739013671875</LongitudeDegrees>
            </Position>
            <AltitudeMeters>509.20001220703125</AltitudeMeters>
            <DistanceMeters>NAN</DistanceMeters>
          </Trackpoint>
          <Trackpoint>
            <Time>2019-10-09T12:54:22.000Z</Time>
            <Position>
              <LatitudeDegrees>38.47566495649516582489013671875</LatitudeDegrees>
              <LongitudeDegrees>-6.36204798705875873565673828125</LongitudeDegrees>
            </Position>
            <AltitudeMeters>509.79998779296875</AltitudeMeters>
            <DistanceMeters>NAN</DistanceMeters>
          </Trackpoint>
          <Trackpoint>
            <Time>2019-10-09T12:54:23.000Z</Time>
            <Position>
              <LatitudeDegrees>38.47562422044575214385986328125</LatitudeDegrees>
              <LongitudeDegrees>-6.3620611466467380523681640625</LongitudeDegrees>
            </Position>
            <AltitudeMeters>510</AltitudeMeters>
            <DistanceMeters>NAN</DistanceMeters>
          </Trackpoint>
          <Trackpoint>
            <Time>2019-10-09T12:54:27.000Z</Time>
            <Position>
              <LatitudeDegrees>38.47547016106545925140380859375</LatitudeDegrees>
              <LongitudeDegrees>-6.3621117733418941497802734375</LongitudeDegrees>
            </Position>
            <AltitudeMeters>510.399993896484375</AltitudeMeters>
            <DistanceMeters>NAN</DistanceMeters>
          </Trackpoint>
          <Trackpoint>
            <Time>2019-10-09T12:54:33.000Z</Time>
            <Position>
              <LatitudeDegrees>38.47523798234760761260986328125</LatitudeDegrees>
              <LongitudeDegrees>-6.36218746192753314971923828125</LongitudeDegrees>
            </Position>
            <AltitudeMeters>511.20001220703125</AltitudeMeters>
            <DistanceMeters>NAN</DistanceMeters>
          </Trackpoint>
          <Trackpoint>
            <Time>2019-10-09T12:54:43.000Z</Time>
            <Position>
              <LatitudeDegrees>38.47484269179403781890869140625</LatitudeDegrees>
              <LongitudeDegrees>-6.362315118312835693359375</LongitudeDegrees>
            </Position>
            <AltitudeMeters>511.600006103515625</AltitudeMeters>
            <DistanceMeters>NAN</DistanceMeters>
          </Trackpoint>
          <Trackpoint>
            <Time>2019-10-09T12:54:48.000Z</Time>
            <Position>
              <LatitudeDegrees>38.474639765918254852294921875</LatitudeDegrees>
              <LongitudeDegrees>-6.3623769767582416534423828125</LongitudeDegrees>
            </Position>
            <AltitudeMeters>512.4000244140625</AltitudeMeters>
            <DistanceMeters>NAN</DistanceMeters>
          </Trackpoint>
          <Trackpoint>
            <Time>2019-10-09T12:54:52.000Z</Time>
            <Position>
              <LatitudeDegrees>38.4744766540825366973876953125</LatitudeDegrees>
              <LongitudeDegrees>-6.362433470785617828369140625</LongitudeDegrees>
            </Position>
            <AltitudeMeters>512.4000244140625</AltitudeMeters>
            <DistanceMeters>NAN</DistanceMeters>
          </Trackpoint>
          <Trackpoint>
            <Time>2019-10-09T12:54:59.000Z</Time>
            <Position>
              <LatitudeDegrees>38.47418806515634059906005859375</LatitudeDegrees>
              <LongitudeDegrees>-6.36252827011048793792724609375</LongitudeDegrees>
            </Position>
            <AltitudeMeters>513.20001220703125</AltitudeMeters>
            <DistanceMeters>NAN</DistanceMeters>
          </Trackpoint>
          <Trackpoint>
            <Time>2019-10-09T12:55:08.000Z</Time>
            <Position>
              <LatitudeDegrees>38.4737977199256420135498046875</LatitudeDegrees>
              <LongitudeDegrees>-6.36265701614320278167724609375</LongitudeDegrees>
            </Position>
            <AltitudeMeters>513.5999755859375</AltitudeMeters>
            <DistanceMeters>NAN</DistanceMeters>
          </Trackpoint>
          <Trackpoint>
            <Time>2019-10-09T12:55:09.000Z</Time>
            <Position>
              <LatitudeDegrees>38.473752625286579132080078125</LatitudeDegrees>
              <LongitudeDegrees>-6.3626730255782604217529296875</LongitudeDegrees>
            </Position>
            <AltitudeMeters>513.5999755859375</AltitudeMeters>
            <DistanceMeters>NAN</DistanceMeters>
          </Trackpoint>
          <Trackpoint>
            <Time>2019-10-09T12:55:21.000Z</Time>
            <Position>
              <LatitudeDegrees>38.4732150100171566009521484375</LatitudeDegrees>
              <LongitudeDegrees>-6.3628529012203216552734375</LongitudeDegrees>
            </Position>
            <AltitudeMeters>514</AltitudeMeters>
            <DistanceMeters>NAN</DistanceMeters>
          </Trackpoint>
          <Trackpoint>
            <Time>2019-10-09T12:55:22.000Z</Time>
            <Position>
              <LatitudeDegrees>38.4731710888445377349853515625</LatitudeDegrees>
              <LongitudeDegrees>-6.36286790482699871063232421875</LongitudeDegrees>
            </Position>
            <AltitudeMeters>514.20001220703125</AltitudeMeters>
            <DistanceMeters>NAN</DistanceMeters>
          </Trackpoint>
          <Trackpoint>
            <Time>2019-10-09T12:55:25.000Z</Time>
            <Position>
              <LatitudeDegrees>38.47303840331733226776123046875</LatitudeDegrees>
              <LongitudeDegrees>-6.36291048489511013031005859375</LongitudeDegrees>
            </Position>
            <AltitudeMeters>514.5999755859375</AltitudeMeters>
            <DistanceMeters>NAN</DistanceMeters>
          </Trackpoint>
          <Trackpoint>
            <Time>2019-10-09T12:55:32.000Z</Time>
            <Position>
              <LatitudeDegrees>38.4727303683757781982421875</LatitudeDegrees>
              <LongitudeDegrees>-6.36301022954285144805908203125</LongitudeDegrees>
            </Position>
            <AltitudeMeters>515.4000244140625</AltitudeMeters>
            <DistanceMeters>NAN</DistanceMeters>
          </Trackpoint>
          <Trackpoint>
            <Time>2019-10-09T12:55:33.000Z</Time>
            <Position>
              <LatitudeDegrees>38.4726876206696033477783203125</LatitudeDegrees>
              <LongitudeDegrees>-6.36302682571113109588623046875</LongitudeDegrees>
            </Position>
            <AltitudeMeters>515.5999755859375</AltitudeMeters>
            <DistanceMeters>NAN</DistanceMeters>
          </Trackpoint>
          <Trackpoint>
            <Time>2019-10-09T12:55:40.000Z</Time>
            <Position>
              <LatitudeDegrees>38.472371958196163177490234375</LatitudeDegrees>
              <LongitudeDegrees>-6.36311701498925685882568359375</LongitudeDegrees>
            </Position>
            <AltitudeMeters>516.4000244140625</AltitudeMeters>
            <DistanceMeters>NAN</DistanceMeters>
          </Trackpoint>
          <Trackpoint>
            <Time>2019-10-09T12:55:48.000Z</Time>
            <Position>
              <LatitudeDegrees>38.47197390161454677581787109375</LatitudeDegrees>
              <LongitudeDegrees>-6.3632285781204700469970703125</LongitudeDegrees>
            </Position>
            <AltitudeMeters>515.79998779296875</AltitudeMeters>
            <DistanceMeters>NAN</DistanceMeters>
          </Trackpoint>
          <Trackpoint>
            <Time>2019-10-09T12:55:55.000Z</Time>
            <Position>
              <LatitudeDegrees>38.47157634794712066650390625</LatitudeDegrees>
              <LongitudeDegrees>-6.3633351959288120269775390625</LongitudeDegrees>
            </Position>
            <AltitudeMeters>514.79998779296875</AltitudeMeters>
            <DistanceMeters>NAN</DistanceMeters>
          </Trackpoint>
          <Trackpoint>
            <Time>2019-10-09T12:55:56.000Z</Time>
            <Position>
              <LatitudeDegrees>38.47151935100555419921875</LatitudeDegrees>
              <LongitudeDegrees>-6.3633516244590282440185546875</LongitudeDegrees>
            </Position>
            <AltitudeMeters>514.79998779296875</AltitudeMeters>
            <DistanceMeters>NAN</DistanceMeters>
          </Trackpoint>
          <Trackpoint>
            <Time>2019-10-09T12:55:58.000Z</Time>
            <Position>
              <LatitudeDegrees>38.47140477038919925689697265625</LatitudeDegrees>
              <LongitudeDegrees>-6.3633786141872406005859375</LongitudeDegrees>
            </Position>
            <AltitudeMeters>514.5999755859375</AltitudeMeters>
            <DistanceMeters>NAN</DistanceMeters>
          </Trackpoint>
          <Trackpoint>
            <Time>2019-10-09T12:56:07.000Z</Time>
            <Position>
              <LatitudeDegrees>38.470885343849658966064453125</LatitudeDegrees>
              <LongitudeDegrees>-6.36351783759891986846923828125</LongitudeDegrees>
            </Position>
            <AltitudeMeters>514.20001220703125</AltitudeMeters>
            <DistanceMeters>NAN</DistanceMeters>
          </Trackpoint>
          <Trackpoint>
            <Time>2019-10-09T12:56:13.000Z</Time>
            <Position>
              <LatitudeDegrees>38.4705374948680400848388671875</LatitudeDegrees>
              <LongitudeDegrees>-6.36360861361026763916015625</LongitudeDegrees>
            </Position>
            <AltitudeMeters>514</AltitudeMeters>
            <DistanceMeters>NAN</DistanceMeters>
          </Trackpoint>
          <Trackpoint>
            <Time>2019-10-09T12:56:16.000Z</Time>
            <Position>
              <LatitudeDegrees>38.47036130726337432861328125</LatitudeDegrees>
              <LongitudeDegrees>-6.36365982703864574432373046875</LongitudeDegrees>
            </Position>
            <AltitudeMeters>513.5999755859375</AltitudeMeters>
            <DistanceMeters>NAN</DistanceMeters>
          </Trackpoint>
          <Trackpoint>
            <Time>2019-10-09T12:56:19.000Z</Time>
            <Position>
              <LatitudeDegrees>38.4701881371438503265380859375</LatitudeDegrees>
              <LongitudeDegrees>-6.3637039996683597564697265625</LongitudeDegrees>
            </Position>
            <AltitudeMeters>514</AltitudeMeters>
            <DistanceMeters>NAN</DistanceMeters>
          </Trackpoint>
          <Trackpoint>
            <Time>2019-10-09T12:56:20.000Z</Time>
            <Position>
              <LatitudeDegrees>38.47012535668909549713134765625</LatitudeDegrees>
              <LongitudeDegrees>-6.36372017674148082733154296875</LongitudeDegrees>
            </Position>
            <AltitudeMeters>514.20001220703125</AltitudeMeters>
            <DistanceMeters>NAN</DistanceMeters>
          </Trackpoint>
          <Trackpoint>
            <Time>2019-10-09T12:56:30.000Z</Time>
            <Position>
              <LatitudeDegrees>38.4695618413388729095458984375</LatitudeDegrees>
              <LongitudeDegrees>-6.36387683451175689697265625</LongitudeDegrees>
            </Position>
            <AltitudeMeters>514.4000244140625</AltitudeMeters>
            <DistanceMeters>NAN</DistanceMeters>
          </Trackpoint>
          <Trackpoint>
            <Time>2019-10-09T12:56:33.000Z</Time>
            <Position>
              <LatitudeDegrees>38.46939780749380588531494140625</LatitudeDegrees>
              <LongitudeDegrees>-6.363917402923107147216796875</LongitudeDegrees>
            </Position>
            <AltitudeMeters>514.79998779296875</AltitudeMeters>
            <DistanceMeters>NAN</DistanceMeters>
          </Trackpoint>
          <Trackpoint>
            <Time>2019-10-09T12:56:38.000Z</Time>
            <Position>
              <LatitudeDegrees>38.469133190810680389404296875</LatitudeDegrees>
              <LongitudeDegrees>-6.36398638598620891571044921875</LongitudeDegrees>
            </Position>
            <AltitudeMeters>515.5999755859375</AltitudeMeters>
            <DistanceMeters>NAN</DistanceMeters>
          </Trackpoint>
          <Trackpoint>
            <Time>2019-10-09T12:56:40.000Z</Time>
            <Position>
              <LatitudeDegrees>38.46903839148581027984619140625</LatitudeDegrees>
              <LongitudeDegrees>-6.364014632999897003173828125</LongitudeDegrees>
            </Position>
            <AltitudeMeters>516.20001220703125</AltitudeMeters>
            <DistanceMeters>NAN</DistanceMeters>
          </Trackpoint>
          <Trackpoint>
            <Time>2019-10-09T12:56:44.000Z</Time>
            <Position>
              <LatitudeDegrees>38.4688386507332324981689453125</LatitudeDegrees>
              <LongitudeDegrees>-6.3640706241130828857421875</LongitudeDegrees>
            </Position>
            <AltitudeMeters>516.20001220703125</AltitudeMeters>
            <DistanceMeters>NAN</DistanceMeters>
          </Trackpoint>
          <Trackpoint>
            <Time>2019-10-09T12:56:46.000Z</Time>
            <Position>
              <LatitudeDegrees>38.4687390737235546112060546875</LatitudeDegrees>
              <LongitudeDegrees>-6.364098452031612396240234375</LongitudeDegrees>
            </Position>
            <AltitudeMeters>516.5999755859375</AltitudeMeters>
            <DistanceMeters>NAN</DistanceMeters>
          </Trackpoint>
          <Trackpoint>
            <Time>2019-10-09T12:56:48.000Z</Time>
            <Position>
              <LatitudeDegrees>38.46864175982773303985595703125</LatitudeDegrees>
              <LongitudeDegrees>-6.36412418447434902191162109375</LongitudeDegrees>
            </Position>
            <AltitudeMeters>516.79998779296875</AltitudeMeters>
            <DistanceMeters>NAN</DistanceMeters>
          </Trackpoint>
          <Trackpoint>
            <Time>2019-10-09T12:56:53.000Z</Time>
            <Position>
              <LatitudeDegrees>38.46840756945312023162841796875</LatitudeDegrees>
              <LongitudeDegrees>-6.36418956331908702850341796875</LongitudeDegrees>
            </Position>
            <AltitudeMeters>517.79998779296875</AltitudeMeters>
            <DistanceMeters>NAN</DistanceMeters>
          </Trackpoint>
          <Trackpoint>
            <Time>2019-10-09T12:56:58.000Z</Time>
            <Position>
              <LatitudeDegrees>38.468176312744617462158203125</LatitudeDegrees>
              <LongitudeDegrees>-6.36425293050706386566162109375</LongitudeDegrees>
            </Position>
            <AltitudeMeters>517.5999755859375</AltitudeMeters>
            <DistanceMeters>NAN</DistanceMeters>
          </Trackpoint>
          <Trackpoint>
            <Time>2019-10-09T12:57:08.000Z</Time>
            <Position>
              <LatitudeDegrees>38.46772880293428897857666015625</LatitudeDegrees>
              <LongitudeDegrees>-6.36436960659921169281005859375</LongitudeDegrees>
            </Position>
            <AltitudeMeters>518.79998779296875</AltitudeMeters>
            <DistanceMeters>NAN</DistanceMeters>
          </Trackpoint>
          <Trackpoint>
            <Time>2019-10-09T12:57:10.000Z</Time>
            <Position>
              <LatitudeDegrees>38.46764431335031986236572265625</LatitudeDegrees>
              <LongitudeDegrees>-6.364392153918743133544921875</LongitudeDegrees>
            </Position>
            <AltitudeMeters>519.20001220703125</AltitudeMeters>
            <DistanceMeters>NAN</DistanceMeters>
          </Trackpoint>
          <Trackpoint>
            <Time>2019-10-09T12:57:17.000Z</Time>
            <Position>
              <LatitudeDegrees>38.46732948906719684600830078125</LatitudeDegrees>
              <LongitudeDegrees>-6.36446599848568439483642578125</LongitudeDegrees>
            </Position>
            <AltitudeMeters>519.79998779296875</AltitudeMeters>
            <DistanceMeters>NAN</DistanceMeters>
          </Trackpoint>
          <Trackpoint>
            <Time>2019-10-09T12:57:20.000Z</Time>
            <Position>
              <LatitudeDegrees>38.467197306454181671142578125</LatitudeDegrees>
              <LongitudeDegrees>-6.3644955866038799285888671875</LongitudeDegrees>
            </Position>
            <AltitudeMeters>520.79998779296875</AltitudeMeters>
            <DistanceMeters>NAN</DistanceMeters>
          </Trackpoint>
          <Trackpoint>
            <Time>2019-10-09T12:57:22.000Z</Time>
            <Position>
              <LatitudeDegrees>38.46710619516670703887939453125</LatitudeDegrees>
              <LongitudeDegrees>-6.36450975202023983001708984375</LongitudeDegrees>
            </Position>
            <AltitudeMeters>521</AltitudeMeters>
            <DistanceMeters>NAN</DistanceMeters>
          </Trackpoint>
          <Trackpoint>
            <Time>2019-10-09T12:57:29.000Z</Time>
            <Position>
              <LatitudeDegrees>38.46679665148258209228515625</LatitudeDegrees>
              <LongitudeDegrees>-6.36456792242825031280517578125</LongitudeDegrees>
            </Position>
            <AltitudeMeters>521.79998779296875</AltitudeMeters>
            <DistanceMeters>NAN</DistanceMeters>
          </Trackpoint>
          <Trackpoint>
            <Time>2019-10-09T12:57:31.000Z</Time>
            <Position>
              <LatitudeDegrees>38.4667119942605495452880859375</LatitudeDegrees>
              <LongitudeDegrees>-6.36458368040621280670166015625</LongitudeDegrees>
            </Position>
            <AltitudeMeters>522.20001220703125</AltitudeMeters>
            <DistanceMeters>NAN</DistanceMeters>
          </Trackpoint>
          <Trackpoint>
            <Time>2019-10-09T12:57:37.000Z</Time>
            <Position>
              <LatitudeDegrees>38.46644469536840915679931640625</LatitudeDegrees>
              <LongitudeDegrees>-6.3646266795694828033447265625</LongitudeDegrees>
            </Position>
            <AltitudeMeters>523</AltitudeMeters>
            <DistanceMeters>NAN</DistanceMeters>
          </Trackpoint>
          <Trackpoint>
            <Time>2019-10-09T12:57:40.000Z</Time>
            <Position>
              <LatitudeDegrees>38.4663093276321887969970703125</LatitudeDegrees>
              <LongitudeDegrees>-6.36464436538517475128173828125</LongitudeDegrees>
            </Position>
            <AltitudeMeters>523.4000244140625</AltitudeMeters>
            <DistanceMeters>NAN</DistanceMeters>
          </Trackpoint>
          <Trackpoint>
            <Time>2019-10-09T12:57:41.000Z</Time>
            <Position>
              <LatitudeDegrees>38.46626465208828449249267578125</LatitudeDegrees>
              <LongitudeDegrees>-6.36465065181255340576171875</LongitudeDegrees>
            </Position>
            <AltitudeMeters>524</AltitudeMeters>
            <DistanceMeters>NAN</DistanceMeters>
          </Trackpoint>
          <Trackpoint>
            <Time>2019-10-09T12:57:46.000Z</Time>
            <Position>
              <LatitudeDegrees>38.46604160964488983154296875</LatitudeDegrees>
              <LongitudeDegrees>-6.36467940174043178558349609375</LongitudeDegrees>
            </Position>
            <AltitudeMeters>524.4000244140625</AltitudeMeters>
            <DistanceMeters>NAN</DistanceMeters>
          </Trackpoint>
          <Trackpoint>
            <Time>2019-10-09T12:57:52.000Z</Time>
            <Position>
              <LatitudeDegrees>38.46576374955475330352783203125</LatitudeDegrees>
              <LongitudeDegrees>-6.36470136232674121856689453125</LongitudeDegrees>
            </Position>
            <AltitudeMeters>525.5999755859375</AltitudeMeters>
            <DistanceMeters>NAN</DistanceMeters>
          </Trackpoint>
          <Trackpoint>
            <Time>2019-10-09T12:58:03.000Z</Time>
            <Position>
              <LatitudeDegrees>38.4652367793023586273193359375</LatitudeDegrees>
              <LongitudeDegrees>-6.364736147224903106689453125</LongitudeDegrees>
            </Position>
            <AltitudeMeters>525.5999755859375</AltitudeMeters>
            <DistanceMeters>NAN</DistanceMeters>
          </Trackpoint>
          <Trackpoint>
            <Time>2019-10-09T12:58:05.000Z</Time>
            <Position>
              <LatitudeDegrees>38.465139381587505340576171875</LatitudeDegrees>
              <LongitudeDegrees>-6.3647416792809963226318359375</LongitudeDegrees>
            </Position>
            <AltitudeMeters>525.5999755859375</AltitudeMeters>
            <DistanceMeters>NAN</DistanceMeters>
          </Trackpoint>
          <Trackpoint>
            <Time>2019-10-09T12:58:14.000Z</Time>
            <Position>
              <LatitudeDegrees>38.46469254232943058013916015625</LatitudeDegrees>
              <LongitudeDegrees>-6.36475064791738986968994140625</LongitudeDegrees>
            </Position>
            <AltitudeMeters>525.4000244140625</AltitudeMeters>
            <DistanceMeters>NAN</DistanceMeters>
          </Trackpoint>
          <Trackpoint>
            <Time>2019-10-09T12:58:16.000Z</Time>
            <Position>
              <LatitudeDegrees>38.46458525396883487701416015625</LatitudeDegrees>
              <LongitudeDegrees>-6.36474964208900928497314453125</LongitudeDegrees>
            </Position>
            <AltitudeMeters>525.4000244140625</AltitudeMeters>
            <DistanceMeters>NAN</DistanceMeters>
          </Trackpoint>
          <Trackpoint>
            <Time>2019-10-09T12:58:22.000Z</Time>
            <Position>
              <LatitudeDegrees>38.46424612216651439666748046875</LatitudeDegrees>
              <LongitudeDegrees>-6.3647430203855037689208984375</LongitudeDegrees>
            </Position>
            <AltitudeMeters>525.20001220703125</AltitudeMeters>
            <DistanceMeters>NAN</DistanceMeters>
          </Trackpoint>
          <Trackpoint>
            <Time>2019-10-09T12:58:24.000Z</Time>
            <Position>
              <LatitudeDegrees>38.4641176275908946990966796875</LatitudeDegrees>
              <LongitudeDegrees>-6.3647425174713134765625</LongitudeDegrees>
            </Position>
            <AltitudeMeters>524.5999755859375</AltitudeMeters>
            <DistanceMeters>NAN</DistanceMeters>
          </Trackpoint>
          <Trackpoint>
            <Time>2019-10-09T12:58:25.000Z</Time>
            <Position>
              <LatitudeDegrees>38.4640507400035858154296875</LatitudeDegrees>
              <LongitudeDegrees>-6.36473941616714000701904296875</LongitudeDegrees>
            </Position>
            <AltitudeMeters>524.20001220703125</AltitudeMeters>
            <DistanceMeters>NAN</DistanceMeters>
          </Trackpoint>
          <Trackpoint>
            <Time>2019-10-09T12:58:27.000Z</Time>
            <Position>
              <LatitudeDegrees>38.4639114327728748321533203125</LatitudeDegrees>
              <LongitudeDegrees>-6.36473304592072963714599609375</LongitudeDegrees>
            </Position>
            <AltitudeMeters>523.20001220703125</AltitudeMeters>
            <DistanceMeters>NAN</DistanceMeters>
          </Trackpoint>
          <Trackpoint>
            <Time>2019-10-09T12:58:30.000Z</Time>
            <Position>
              <LatitudeDegrees>38.46368989907205104827880859375</LatitudeDegrees>
              <LongitudeDegrees>-6.36472449637949466705322265625</LongitudeDegrees>
            </Position>
            <AltitudeMeters>522</AltitudeMeters>
            <DistanceMeters>NAN</DistanceMeters>
          </Trackpoint>
          <Trackpoint>
            <Time>2019-10-09T12:58:31.000Z</Time>
            <Position>
              <LatitudeDegrees>38.46361110918223857879638671875</LatitudeDegrees>
              <LongitudeDegrees>-6.36472164653241634368896484375</LongitudeDegrees>
            </Position>
            <AltitudeMeters>521.79998779296875</AltitudeMeters>
            <DistanceMeters>NAN</DistanceMeters>
          </Trackpoint>
          <Trackpoint>
            <Time>2019-10-09T12:58:34.000Z</Time>
            <Position>
              <LatitudeDegrees>38.4633748233318328857421875</LatitudeDegrees>
              <LongitudeDegrees>-6.364713348448276519775390625</LongitudeDegrees>
            </Position>
            <AltitudeMeters>521.4000244140625</AltitudeMeters>
            <DistanceMeters>NAN</DistanceMeters>
          </Trackpoint>
          <Trackpoint>
            <Time>2019-10-09T12:58:36.000Z</Time>
            <Position>
              <LatitudeDegrees>38.4632170759141445159912109375</LatitudeDegrees>
              <LongitudeDegrees>-6.36470622383058071136474609375</LongitudeDegrees>
            </Position>
            <AltitudeMeters>520.5999755859375</AltitudeMeters>
            <DistanceMeters>NAN</DistanceMeters>
          </Trackpoint>
          <Trackpoint>
            <Time>2019-10-09T12:58:39.000Z</Time>
            <Position>
              <LatitudeDegrees>38.4629790298640727996826171875</LatitudeDegrees>
              <LongitudeDegrees>-6.364695914089679718017578125</LongitudeDegrees>
            </Position>
            <AltitudeMeters>520.20001220703125</AltitudeMeters>
            <DistanceMeters>NAN</DistanceMeters>
          </Trackpoint>
          <Trackpoint>
            <Time>2019-10-09T12:58:44.000Z</Time>
            <Position>
              <LatitudeDegrees>38.46264400519430637359619140625</LatitudeDegrees>
              <LongitudeDegrees>-6.36468996293842792510986328125</LongitudeDegrees>
            </Position>
            <AltitudeMeters>521.4000244140625</AltitudeMeters>
            <DistanceMeters>NAN</DistanceMeters>
          </Trackpoint>
          <Trackpoint>
            <Time>2019-10-09T12:58:45.000Z</Time>
            <Position>
              <LatitudeDegrees>38.46258365549147129058837890625</LatitudeDegrees>
              <LongitudeDegrees>-6.36468862183392047882080078125</LongitudeDegrees>
            </Position>
            <AltitudeMeters>521.5999755859375</AltitudeMeters>
            <DistanceMeters>NAN</DistanceMeters>
          </Trackpoint>
          <Trackpoint>
            <Time>2019-10-09T12:58:50.000Z</Time>
            <Position>
              <LatitudeDegrees>38.462307639420032501220703125</LatitudeDegrees>
              <LongitudeDegrees>-6.36467722244560718536376953125</LongitudeDegrees>
            </Position>
            <AltitudeMeters>523</AltitudeMeters>
            <DistanceMeters>NAN</DistanceMeters>
          </Trackpoint>
          <Trackpoint>
            <Time>2019-10-09T12:58:54.000Z</Time>
            <Position>
              <LatitudeDegrees>38.46209339797496795654296875</LatitudeDegrees>
              <LongitudeDegrees>-6.36466498486697673797607421875</LongitudeDegrees>
            </Position>
            <AltitudeMeters>523.20001220703125</AltitudeMeters>
            <DistanceMeters>NAN</DistanceMeters>
          </Trackpoint>
          <Trackpoint>
            <Time>2019-10-09T12:58:57.000Z</Time>
            <Position>
              <LatitudeDegrees>38.46193422563374042510986328125</LatitudeDegrees>
              <LongitudeDegrees>-6.3646568544209003448486328125</LongitudeDegrees>
            </Position>
            <AltitudeMeters>524.20001220703125</AltitudeMeters>
            <DistanceMeters>NAN</DistanceMeters>
          </Trackpoint>
          <Trackpoint>
            <Time>2019-10-09T12:59:02.000Z</Time>
            <Position>
              <LatitudeDegrees>38.461665250360965728759765625</LatitudeDegrees>
              <LongitudeDegrees>-6.364648975431919097900390625</LongitudeDegrees>
            </Position>
            <AltitudeMeters>524.4000244140625</AltitudeMeters>
            <DistanceMeters>NAN</DistanceMeters>
          </Trackpoint>
          <Trackpoint>
            <Time>2019-10-09T12:59:03.000Z</Time>
            <Position>
              <LatitudeDegrees>38.46160951070487499237060546875</LatitudeDegrees>
              <LongitudeDegrees>-6.36464687995612621307373046875</LongitudeDegrees>
            </Position>
            <AltitudeMeters>524</AltitudeMeters>
            <DistanceMeters>NAN</DistanceMeters>
          </Trackpoint>
          <Trackpoint>
            <Time>2019-10-09T12:59:09.000Z</Time>
            <Position>
              <LatitudeDegrees>38.46123852767050266265869140625</LatitudeDegrees>
              <LongitudeDegrees>-6.36463581584393978118896484375</LongitudeDegrees>
            </Position>
            <AltitudeMeters>523.20001220703125</AltitudeMeters>
            <DistanceMeters>NAN</DistanceMeters>
          </Trackpoint>
          <Trackpoint>
            <Time>2019-10-09T12:59:10.000Z</Time>
            <Position>
              <LatitudeDegrees>38.4611695446074008941650390625</LatitudeDegrees>
              <LongitudeDegrees>-6.3646337203681468963623046875</LongitudeDegrees>
            </Position>
            <AltitudeMeters>523</AltitudeMeters>
            <DistanceMeters>NAN</DistanceMeters>
          </Trackpoint>
          <Trackpoint>
            <Time>2019-10-09T12:59:18.000Z</Time>
            <Position>
              <LatitudeDegrees>38.46062949858605861663818359375</LatitudeDegrees>
              <LongitudeDegrees>-6.36461368761956691741943359375</LongitudeDegrees>
            </Position>
            <AltitudeMeters>522.5999755859375</AltitudeMeters>
            <DistanceMeters>NAN</DistanceMeters>
          </Trackpoint>
          <Trackpoint>
            <Time>2019-10-09T12:59:19.000Z</Time>
            <Position>
              <LatitudeDegrees>38.46056043170392513275146484375</LatitudeDegrees>
              <LongitudeDegrees>-6.36461175978183746337890625</LongitudeDegrees>
            </Position>
            <AltitudeMeters>522.4000244140625</AltitudeMeters>
            <DistanceMeters>NAN</DistanceMeters>
          </Trackpoint>
          <Trackpoint>
            <Time>2019-10-09T12:59:22.000Z</Time>
            <Position>
              <LatitudeDegrees>38.4603504650294780731201171875</LatitudeDegrees>
              <LongitudeDegrees>-6.3646048866212368011474609375</LongitudeDegrees>
            </Position>
            <AltitudeMeters>522.4000244140625</AltitudeMeters>
            <DistanceMeters>NAN</DistanceMeters>
          </Trackpoint>
          <Trackpoint>
            <Time>2019-10-09T12:59:23.000Z</Time>
            <Position>
              <LatitudeDegrees>38.4602822363376617431640625</LatitudeDegrees>
              <LongitudeDegrees>-6.3646025396883487701416015625</LongitudeDegrees>
            </Position>
            <AltitudeMeters>522</AltitudeMeters>
            <DistanceMeters>NAN</DistanceMeters>
          </Trackpoint>
          <Trackpoint>
            <Time>2019-10-09T12:59:31.000Z</Time>
            <Position>
              <LatitudeDegrees>38.45974235795438289642333984375</LatitudeDegrees>
              <LongitudeDegrees>-6.3645817525684833526611328125</LongitudeDegrees>
            </Position>
            <AltitudeMeters>522.79998779296875</AltitudeMeters>
            <DistanceMeters>NAN</DistanceMeters>
          </Trackpoint>
          <Trackpoint>
            <Time>2019-10-09T12:59:32.000Z</Time>
            <Position>
              <LatitudeDegrees>38.459677062928676605224609375</LatitudeDegrees>
              <LongitudeDegrees>-6.36457957327365875244140625</LongitudeDegrees>
            </Position>
            <AltitudeMeters>522.79998779296875</AltitudeMeters>
            <DistanceMeters>NAN</DistanceMeters>
          </Trackpoint>
          <Trackpoint>
            <Time>2019-10-09T12:59:35.000Z</Time>
            <Position>
              <LatitudeDegrees>38.45948101021349430084228515625</LatitudeDegrees>
              <LongitudeDegrees>-6.36457647196948528289794921875</LongitudeDegrees>
            </Position>
            <AltitudeMeters>523</AltitudeMeters>
            <DistanceMeters>NAN</DistanceMeters>
          </Trackpoint>
          <Trackpoint>
            <Time>2019-10-09T12:59:38.000Z</Time>
            <Position>
              <LatitudeDegrees>38.45928353257477283477783203125</LatitudeDegrees>
              <LongitudeDegrees>-6.36456758715212345123291015625</LongitudeDegrees>
            </Position>
            <AltitudeMeters>523.5999755859375</AltitudeMeters>
            <DistanceMeters>NAN</DistanceMeters>
          </Trackpoint>
          <Trackpoint>
            <Time>2019-10-09T12:59:46.000Z</Time>
            <Position>
              <LatitudeDegrees>38.458756394684314727783203125</LatitudeDegrees>
              <LongitudeDegrees>-6.36454763822257518768310546875</LongitudeDegrees>
            </Position>
            <AltitudeMeters>523.4000244140625</AltitudeMeters>
            <DistanceMeters>NAN</DistanceMeters>
          </Trackpoint>
          <Trackpoint>
            <Time>2019-10-09T12:59:51.000Z</Time>
            <Position>
              <LatitudeDegrees>38.458429165184497833251953125</LatitudeDegrees>
              <LongitudeDegrees>-6.3645344786345958709716796875</LongitudeDegrees>
            </Position>
            <AltitudeMeters>522.4000244140625</AltitudeMeters>
            <DistanceMeters>NAN</DistanceMeters>
          </Trackpoint>
          <Trackpoint>
            <Time>2019-10-09T12:59:55.000Z</Time>
            <Position>
              <LatitudeDegrees>38.4581607766449451446533203125</LatitudeDegrees>
              <LongitudeDegrees>-6.3645250909030437469482421875</LongitudeDegrees>
            </Position>
            <AltitudeMeters>522.5999755859375</AltitudeMeters>
            <DistanceMeters>NAN</DistanceMeters>
          </Trackpoint>
          <Trackpoint>
            <Time>2019-10-09T13:00:00.000Z</Time>
            <Position>
              <LatitudeDegrees>38.45783002674579620361328125</LatitudeDegrees>
              <LongitudeDegrees>-6.36451545171439647674560546875</LongitudeDegrees>
            </Position>
            <AltitudeMeters>522.5999755859375</AltitudeMeters>
            <DistanceMeters>NAN</DistanceMeters>
          </Trackpoint>
          <Trackpoint>
            <Time>2019-10-09T13:00:08.000Z</Time>
            <Position>
              <LatitudeDegrees>38.457297943532466888427734375</LatitudeDegrees>
              <LongitudeDegrees>-6.36449365876615047454833984375</LongitudeDegrees>
            </Position>
            <AltitudeMeters>522.5999755859375</AltitudeMeters>
            <DistanceMeters>NAN</DistanceMeters>
          </Trackpoint>
          <Trackpoint>
            <Time>2019-10-09T13:00:11.000Z</Time>
            <Position>
              <LatitudeDegrees>38.45709686167538166046142578125</LatitudeDegrees>
              <LongitudeDegrees>-6.3644892163574695587158203125</LongitudeDegrees>
            </Position>
            <AltitudeMeters>522.4000244140625</AltitudeMeters>
            <DistanceMeters>NAN</DistanceMeters>
          </Trackpoint>
          <Trackpoint>
            <Time>2019-10-09T13:00:19.000Z</Time>
            <Position>
              <LatitudeDegrees>38.4565732441842555999755859375</LatitudeDegrees>
              <LongitudeDegrees>-6.3644702732563018798828125</LongitudeDegrees>
            </Position>
            <AltitudeMeters>523</AltitudeMeters>
            <DistanceMeters>NAN</DistanceMeters>
          </Trackpoint>
          <Trackpoint>
            <Time>2019-10-09T13:00:20.000Z</Time>
            <Position>
              <LatitudeDegrees>38.456512056291103363037109375</LatitudeDegrees>
              <LongitudeDegrees>-6.36446935124695301055908203125</LongitudeDegrees>
            </Position>
            <AltitudeMeters>523</AltitudeMeters>
            <DistanceMeters>NAN</DistanceMeters>
          </Trackpoint>
          <Trackpoint>
            <Time>2019-10-09T13:00:25.000Z</Time>
            <Position>
              <LatitudeDegrees>38.4562101401388645172119140625</LatitudeDegrees>
              <LongitudeDegrees>-6.36445962823927402496337890625</LongitudeDegrees>
            </Position>
            <AltitudeMeters>524.20001220703125</AltitudeMeters>
            <DistanceMeters>NAN</DistanceMeters>
          </Trackpoint>
          <Trackpoint>
            <Time>2019-10-09T13:00:29.000Z</Time>
            <Position>
              <LatitudeDegrees>38.455974273383617401123046875</LatitudeDegrees>
              <LongitudeDegrees>-6.36445191688835620880126953125</LongitudeDegrees>
            </Position>
            <AltitudeMeters>524.79998779296875</AltitudeMeters>
            <DistanceMeters>NAN</DistanceMeters>
          </Trackpoint>
          <Trackpoint>
            <Time>2019-10-09T13:00:37.000Z</Time>
            <Position>
              <LatitudeDegrees>38.4555402584373950958251953125</LatitudeDegrees>
              <LongitudeDegrees>-6.36443607509136199951171875</LongitudeDegrees>
            </Position>
            <AltitudeMeters>525.20001220703125</AltitudeMeters>
            <DistanceMeters>NAN</DistanceMeters>
          </Trackpoint>
          <Trackpoint>
            <Time>2019-10-09T13:00:39.000Z</Time>
            <Position>
              <LatitudeDegrees>38.45543883740901947021484375</LatitudeDegrees>
              <LongitudeDegrees>-6.36443146504461765289306640625</LongitudeDegrees>
            </Position>
            <AltitudeMeters>525.79998779296875</AltitudeMeters>
            <DistanceMeters>NAN</DistanceMeters>
          </Trackpoint>
          <Trackpoint>
            <Time>2019-10-09T13:00:42.000Z</Time>
            <Position>
              <LatitudeDegrees>38.45528989098966121673583984375</LatitudeDegrees>
              <LongitudeDegrees>-6.3644261844456195831298828125</LongitudeDegrees>
            </Position>
            <AltitudeMeters>526.4000244140625</AltitudeMeters>
            <DistanceMeters>NAN</DistanceMeters>
          </Trackpoint>
          <Trackpoint>
            <Time>2019-10-09T13:00:45.000Z</Time>
            <Position>
              <LatitudeDegrees>38.45514639280736446380615234375</LatitudeDegrees>
              <LongitudeDegrees>-6.3644191436469554901123046875</LongitudeDegrees>
            </Position>
            <AltitudeMeters>527</AltitudeMeters>
            <DistanceMeters>NAN</DistanceMeters>
          </Trackpoint>
          <Trackpoint>
            <Time>2019-10-09T13:00:46.000Z</Time>
            <Position>
              <LatitudeDegrees>38.45510079525411128997802734375</LatitudeDegrees>
              <LongitudeDegrees>-6.36441838927567005157470703125</LongitudeDegrees>
            </Position>
            <AltitudeMeters>527</AltitudeMeters>
            <DistanceMeters>NAN</DistanceMeters>
          </Trackpoint>
          <Trackpoint>
            <Time>2019-10-09T13:00:49.000Z</Time>
            <Position>
              <LatitudeDegrees>38.45495335757732391357421875</LatitudeDegrees>
              <LongitudeDegrees>-6.3644107617437839508056640625</LongitudeDegrees>
            </Position>
            <AltitudeMeters>527.4000244140625</AltitudeMeters>
            <DistanceMeters>NAN</DistanceMeters>
          </Trackpoint>
          <Trackpoint>
            <Time>2019-10-09T13:00:50.000Z</Time>
            <Position>
              <LatitudeDegrees>38.45490239560604095458984375</LatitudeDegrees>
              <LongitudeDegrees>-6.36441134847700595855712890625</LongitudeDegrees>
            </Position>
            <AltitudeMeters>527.5999755859375</AltitudeMeters>
            <DistanceMeters>NAN</DistanceMeters>
          </Trackpoint>
          <Trackpoint>
            <Time>2019-10-09T13:00:53.000Z</Time>
            <Position>
              <LatitudeDegrees>38.454747162759304046630859375</LatitudeDegrees>
              <LongitudeDegrees>-6.36441369540989398956298828125</LongitudeDegrees>
            </Position>
            <AltitudeMeters>528.4000244140625</AltitudeMeters>
            <DistanceMeters>NAN</DistanceMeters>
          </Trackpoint>
          <Trackpoint>
            <Time>2019-10-09T13:00:55.000Z</Time>
            <Position>
              <LatitudeDegrees>38.45464532263576984405517578125</LatitudeDegrees>
              <LongitudeDegrees>-6.36441201902925968170166015625</LongitudeDegrees>
            </Position>
            <AltitudeMeters>528.79998779296875</AltitudeMeters>
            <DistanceMeters>NAN</DistanceMeters>
          </Trackpoint>
          <Trackpoint>
            <Time>2019-10-09T13:01:01.000Z</Time>
            <Position>
              <LatitudeDegrees>38.45434642396867275238037109375</LatitudeDegrees>
              <LongitudeDegrees>-6.36440078727900981903076171875</LongitudeDegrees>
            </Position>
            <AltitudeMeters>529.20001220703125</AltitudeMeters>
            <DistanceMeters>NAN</DistanceMeters>
          </Trackpoint>
          <Trackpoint>
            <Time>2019-10-09T13:01:04.000Z</Time>
            <Position>
              <LatitudeDegrees>38.454198651015758514404296875</LatitudeDegrees>
              <LongitudeDegrees>-6.3643936626613140106201171875</LongitudeDegrees>
            </Position>
            <AltitudeMeters>530</AltitudeMeters>
            <DistanceMeters>NAN</DistanceMeters>
          </Trackpoint>
          <Trackpoint>
            <Time>2019-10-09T13:01:09.000Z</Time>
            <Position>
              <LatitudeDegrees>38.4539493732154369354248046875</LatitudeDegrees>
              <LongitudeDegrees>-6.36437932960689067840576171875</LongitudeDegrees>
            </Position>
            <AltitudeMeters>530.20001220703125</AltitudeMeters>
            <DistanceMeters>NAN</DistanceMeters>
          </Trackpoint>
          <Trackpoint>
            <Time>2019-10-09T13:01:16.000Z</Time>
            <Position>
              <LatitudeDegrees>38.4535659849643707275390625</LatitudeDegrees>
              <LongitudeDegrees>-6.3643259368836879730224609375</LongitudeDegrees>
            </Position>
            <AltitudeMeters>530.20001220703125</AltitudeMeters>
            <DistanceMeters>NAN</DistanceMeters>
          </Trackpoint>
          <Trackpoint>
            <Time>2019-10-09T13:01:23.000Z</Time>
            <Position>
              <LatitudeDegrees>38.45314596779644489288330078125</LatitudeDegrees>
              <LongitudeDegrees>-6.3642095960676670074462890625</LongitudeDegrees>
            </Position>
            <AltitudeMeters>529.20001220703125</AltitudeMeters>
            <DistanceMeters>NAN</DistanceMeters>
          </Trackpoint>
          <Trackpoint>
            <Time>2019-10-09T13:01:26.000Z</Time>
            <Position>
              <LatitudeDegrees>38.452962823212146759033203125</LatitudeDegrees>
              <LongitudeDegrees>-6.36414865963160991668701171875</LongitudeDegrees>
            </Position>
            <AltitudeMeters>529</AltitudeMeters>
            <DistanceMeters>NAN</DistanceMeters>
          </Trackpoint>
          <Trackpoint>
            <Time>2019-10-09T13:01:30.000Z</Time>
            <Position>
              <LatitudeDegrees>38.452725447714328765869140625</LatitudeDegrees>
              <LongitudeDegrees>-6.36405243538320064544677734375</LongitudeDegrees>
            </Position>
            <AltitudeMeters>528.79998779296875</AltitudeMeters>
            <DistanceMeters>NAN</DistanceMeters>
          </Trackpoint>
          <Trackpoint>
            <Time>2019-10-09T13:01:32.000Z</Time>
            <Position>
              <LatitudeDegrees>38.45261053182184696197509765625</LatitudeDegrees>
              <LongitudeDegrees>-6.36399292387068271636962890625</LongitudeDegrees>
            </Position>
            <AltitudeMeters>529</AltitudeMeters>
            <DistanceMeters>NAN</DistanceMeters>
          </Trackpoint>
          <Trackpoint>
            <Time>2019-10-09T13:01:35.000Z</Time>
            <Position>
              <LatitudeDegrees>38.45243870280683040618896484375</LatitudeDegrees>
              <LongitudeDegrees>-6.3639031536877155303955078125</LongitudeDegrees>
            </Position>
            <AltitudeMeters>529</AltitudeMeters>
            <DistanceMeters>NAN</DistanceMeters>
          </Trackpoint>
          <Trackpoint>
            <Time>2019-10-09T13:01:36.000Z</Time>
            <Position>
              <LatitudeDegrees>38.452380783855915069580078125</LatitudeDegrees>
              <LongitudeDegrees>-6.36387725360691547393798828125</LongitudeDegrees>
            </Position>
            <AltitudeMeters>529</AltitudeMeters>
            <DistanceMeters>NAN</DistanceMeters>
          </Trackpoint>
          <Trackpoint>
            <Time>2019-10-09T13:01:39.000Z</Time>
            <Position>
              <LatitudeDegrees>38.45219646580517292022705078125</LatitudeDegrees>
              <LongitudeDegrees>-6.36385696940124034881591796875</LongitudeDegrees>
            </Position>
            <AltitudeMeters>528.79998779296875</AltitudeMeters>
            <DistanceMeters>NAN</DistanceMeters>
          </Trackpoint>
          <Trackpoint>
            <Time>2019-10-09T13:01:42.000Z</Time>
            <Position>
              <LatitudeDegrees>38.4520486928522586822509765625</LatitudeDegrees>
              <LongitudeDegrees>-6.363991163671016693115234375</LongitudeDegrees>
            </Position>
            <AltitudeMeters>527.79998779296875</AltitudeMeters>
            <DistanceMeters>NAN</DistanceMeters>
          </Trackpoint>
          <Trackpoint>
            <Time>2019-10-09T13:01:43.000Z</Time>
            <Position>
              <LatitudeDegrees>38.45200988464057445526123046875</LatitudeDegrees>
              <LongitudeDegrees>-6.36405159719288349151611328125</LongitudeDegrees>
            </Position>
            <AltitudeMeters>527.79998779296875</AltitudeMeters>
            <DistanceMeters>NAN</DistanceMeters>
          </Trackpoint>
          <Trackpoint>
            <Time>2019-10-09T13:01:45.000Z</Time>
            <Position>
              <LatitudeDegrees>38.451927490532398223876953125</LatitudeDegrees>
              <LongitudeDegrees>-6.36418218724429607391357421875</LongitudeDegrees>
            </Position>
            <AltitudeMeters>527</AltitudeMeters>
            <DistanceMeters>NAN</DistanceMeters>
          </Trackpoint>
          <Trackpoint>
            <Time>2019-10-09T13:01:46.000Z</Time>
            <Position>
              <LatitudeDegrees>38.451883234083652496337890625</LatitudeDegrees>
              <LongitudeDegrees>-6.36425058357417583465576171875</LongitudeDegrees>
            </Position>
            <AltitudeMeters>526.4000244140625</AltitudeMeters>
            <DistanceMeters>NAN</DistanceMeters>
          </Trackpoint>
          <Trackpoint>
            <Time>2019-10-09T13:01:47.000Z</Time>
            <Position>
              <LatitudeDegrees>38.45183772034943103790283203125</LatitudeDegrees>
              <LongitudeDegrees>-6.36432216502726078033447265625</LongitudeDegrees>
            </Position>
            <AltitudeMeters>525.5999755859375</AltitudeMeters>
            <DistanceMeters>NAN</DistanceMeters>
          </Trackpoint>
          <Trackpoint>
            <Time>2019-10-09T13:01:48.000Z</Time>
            <Position>
              <LatitudeDegrees>38.45179061405360698699951171875</LatitudeDegrees>
              <LongitudeDegrees>-6.36439642868936061859130859375</LongitudeDegrees>
            </Position>
            <AltitudeMeters>525.20001220703125</AltitudeMeters>
            <DistanceMeters>NAN</DistanceMeters>
          </Trackpoint>
          <Trackpoint>
            <Time>2019-10-09T13:01:49.000Z</Time>
            <Position>
              <LatitudeDegrees>38.451741747558116912841796875</LatitudeDegrees>
              <LongitudeDegrees>-6.364471949636936187744140625</LongitudeDegrees>
            </Position>
            <AltitudeMeters>525</AltitudeMeters>
            <DistanceMeters>NAN</DistanceMeters>
          </Trackpoint>
          <Trackpoint>
            <Time>2019-10-09T13:01:51.000Z</Time>
            <Position>
              <LatitudeDegrees>38.4516409970819950103759765625</LatitudeDegrees>
              <LongitudeDegrees>-6.3646310381591320037841796875</LongitudeDegrees>
            </Position>
            <AltitudeMeters>523.5999755859375</AltitudeMeters>
            <DistanceMeters>NAN</DistanceMeters>
          </Trackpoint>
          <Trackpoint>
            <Time>2019-10-09T13:01:52.000Z</Time>
            <Position>
              <LatitudeDegrees>38.45158978365361690521240234375</LatitudeDegrees>
              <LongitudeDegrees>-6.36470991186797618865966796875</LongitudeDegrees>
            </Position>
            <AltitudeMeters>522.5999755859375</AltitudeMeters>
            <DistanceMeters>NAN</DistanceMeters>
          </Trackpoint>
          <Trackpoint>
            <Time>2019-10-09T13:01:55.000Z</Time>
            <Position>
              <LatitudeDegrees>38.45144377090036869049072265625</LatitudeDegrees>
              <LongitudeDegrees>-6.36494292877614498138427734375</LongitudeDegrees>
            </Position>
            <AltitudeMeters>522.20001220703125</AltitudeMeters>
            <DistanceMeters>NAN</DistanceMeters>
          </Trackpoint>
          <Trackpoint>
            <Time>2019-10-09T13:01:58.000Z</Time>
            <Position>
              <LatitudeDegrees>38.45129071734845638275146484375</LatitudeDegrees>
              <LongitudeDegrees>-6.365182399749755859375</LongitudeDegrees>
            </Position>
            <AltitudeMeters>521.20001220703125</AltitudeMeters>
            <DistanceMeters>NAN</DistanceMeters>
          </Trackpoint>
          <Trackpoint>
            <Time>2019-10-09T13:02:01.000Z</Time>
            <Position>
              <LatitudeDegrees>38.45112257637083530426025390625</LatitudeDegrees>
              <LongitudeDegrees>-6.3654253073036670684814453125</LongitudeDegrees>
            </Position>
            <AltitudeMeters>520.20001220703125</AltitudeMeters>
            <DistanceMeters>NAN</DistanceMeters>
          </Trackpoint>
          <Trackpoint>
            <Time>2019-10-09T13:02:03.000Z</Time>
            <Position>
              <LatitudeDegrees>38.45100321806967258453369140625</LatitudeDegrees>
              <LongitudeDegrees>-6.3655914366245269775390625</LongitudeDegrees>
            </Position>
            <AltitudeMeters>518.4000244140625</AltitudeMeters>
            <DistanceMeters>NAN</DistanceMeters>
          </Trackpoint>
          <Trackpoint>
            <Time>2019-10-09T13:02:06.000Z</Time>
            <Position>
              <LatitudeDegrees>38.4508095122873783111572265625</LatitudeDegrees>
              <LongitudeDegrees>-6.365829147398471832275390625</LongitudeDegrees>
            </Position>
            <AltitudeMeters>516.79998779296875</AltitudeMeters>
            <DistanceMeters>NAN</DistanceMeters>
          </Trackpoint>
          <Trackpoint>
            <Time>2019-10-09T13:02:08.000Z</Time>
            <Position>
              <LatitudeDegrees>38.45067649148404598236083984375</LatitudeDegrees>
              <LongitudeDegrees>-6.365970633924007415771484375</LongitudeDegrees>
            </Position>
            <AltitudeMeters>515.79998779296875</AltitudeMeters>
            <DistanceMeters>NAN</DistanceMeters>
          </Trackpoint>
          <Trackpoint>
            <Time>2019-10-09T13:02:09.000Z</Time>
            <Position>
              <LatitudeDegrees>38.45060759223997592926025390625</LatitudeDegrees>
              <LongitudeDegrees>-6.3660405389964580535888671875</LongitudeDegrees>
            </Position>
            <AltitudeMeters>515.4000244140625</AltitudeMeters>
            <DistanceMeters>NAN</DistanceMeters>
          </Trackpoint>
          <Trackpoint>
            <Time>2019-10-09T13:02:11.000Z</Time>
            <Position>
              <LatitudeDegrees>38.45046878792345523834228515625</LatitudeDegrees>
              <LongitudeDegrees>-6.36617439799010753631591796875</LongitudeDegrees>
            </Position>
            <AltitudeMeters>514.5999755859375</AltitudeMeters>
            <DistanceMeters>NAN</DistanceMeters>
          </Trackpoint>
          <Trackpoint>
            <Time>2019-10-09T13:02:13.000Z</Time>
            <Position>
              <LatitudeDegrees>38.4503183327615261077880859375</LatitudeDegrees>
              <LongitudeDegrees>-6.36630012653768062591552734375</LongitudeDegrees>
            </Position>
            <AltitudeMeters>513.5999755859375</AltitudeMeters>
            <DistanceMeters>NAN</DistanceMeters>
          </Trackpoint>
          <Trackpoint>
            <Time>2019-10-09T13:02:15.000Z</Time>
            <Position>
              <LatitudeDegrees>38.4501667879521846771240234375</LatitudeDegrees>
              <LongitudeDegrees>-6.36641747318208217620849609375</LongitudeDegrees>
            </Position>
            <AltitudeMeters>512.79998779296875</AltitudeMeters>
            <DistanceMeters>NAN</DistanceMeters>
          </Trackpoint>
          <Trackpoint>
            <Time>2019-10-09T13:02:16.000Z</Time>
            <Position>
              <LatitudeDegrees>38.45009210519492626190185546875</LatitudeDegrees>
              <LongitudeDegrees>-6.3664723746478557586669921875</LongitudeDegrees>
            </Position>
            <AltitudeMeters>512.20001220703125</AltitudeMeters>
            <DistanceMeters>NAN</DistanceMeters>
          </Trackpoint>
          <Trackpoint>
            <Time>2019-10-09T13:02:18.000Z</Time>
            <Position>
              <LatitudeDegrees>38.4499351121485233306884765625</LatitudeDegrees>
              <LongitudeDegrees>-6.36657689698040485382080078125</LongitudeDegrees>
            </Position>
            <AltitudeMeters>511.20001220703125</AltitudeMeters>
            <DistanceMeters>NAN</DistanceMeters>
          </Trackpoint>
          <Trackpoint>
            <Time>2019-10-09T13:02:20.000Z</Time>
            <Position>
              <LatitudeDegrees>38.44976806081831455230712890625</LatitudeDegrees>
              <LongitudeDegrees>-6.3666822575032711029052734375</LongitudeDegrees>
            </Position>
            <AltitudeMeters>509.600006103515625</AltitudeMeters>
            <DistanceMeters>NAN</DistanceMeters>
          </Trackpoint>
          <Trackpoint>
            <Time>2019-10-09T13:02:22.000Z</Time>
            <Position>
              <LatitudeDegrees>38.4496005065739154815673828125</LatitudeDegrees>
              <LongitudeDegrees>-6.36679147370159626007080078125</LongitudeDegrees>
            </Position>
            <AltitudeMeters>507.600006103515625</AltitudeMeters>
            <DistanceMeters>NAN</DistanceMeters>
          </Trackpoint>
          <Trackpoint>
            <Time>2019-10-09T13:02:26.000Z</Time>
            <Position>
              <LatitudeDegrees>38.4492836706340312957763671875</LatitudeDegrees>
              <LongitudeDegrees>-6.36699733324348926544189453125</LongitudeDegrees>
            </Position>
            <AltitudeMeters>506.399993896484375</AltitudeMeters>
            <DistanceMeters>NAN</DistanceMeters>
          </Trackpoint>
          <Trackpoint>
            <Time>2019-10-09T13:02:28.000Z</Time>
            <Position>
              <LatitudeDegrees>38.44913606531918048858642578125</LatitudeDegrees>
              <LongitudeDegrees>-6.36708903126418590545654296875</LongitudeDegrees>
            </Position>
            <AltitudeMeters>505.399993896484375</AltitudeMeters>
            <DistanceMeters>NAN</DistanceMeters>
          </Trackpoint>
          <Trackpoint>
            <Time>2019-10-09T13:02:32.000Z</Time>
            <Position>
              <LatitudeDegrees>38.44884219579398632049560546875</LatitudeDegrees>
              <LongitudeDegrees>-6.367265470325946807861328125</LongitudeDegrees>
            </Position>
            <AltitudeMeters>504.20001220703125</AltitudeMeters>
            <DistanceMeters>NAN</DistanceMeters>
          </Trackpoint>
          <Trackpoint>
            <Time>2019-10-09T13:02:33.000Z</Time>
            <Position>
              <LatitudeDegrees>38.44876994378864765167236328125</LatitudeDegrees>
              <LongitudeDegrees>-6.3673115707933902740478515625</LongitudeDegrees>
            </Position>
            <AltitudeMeters>504</AltitudeMeters>
            <DistanceMeters>NAN</DistanceMeters>
          </Trackpoint>
          <Trackpoint>
            <Time>2019-10-09T13:02:39.000Z</Time>
            <Position>
              <LatitudeDegrees>38.44837733544409275054931640625</LatitudeDegrees>
              <LongitudeDegrees>-6.36756763793528079986572265625</LongitudeDegrees>
            </Position>
            <AltitudeMeters>504.79998779296875</AltitudeMeters>
            <DistanceMeters>NAN</DistanceMeters>
          </Trackpoint>
          <Trackpoint>
            <Time>2019-10-09T13:02:42.000Z</Time>
            <Position>
              <LatitudeDegrees>38.44822478480637073516845703125</LatitudeDegrees>
              <LongitudeDegrees>-6.36768649332225322723388671875</LongitudeDegrees>
            </Position>
            <AltitudeMeters>504.79998779296875</AltitudeMeters>
            <DistanceMeters>NAN</DistanceMeters>
          </Trackpoint>
          <Trackpoint>
            <Time>2019-10-09T13:02:44.000Z</Time>
            <Position>
              <LatitudeDegrees>38.44814565964043140411376953125</LatitudeDegrees>
              <LongitudeDegrees>-6.3677544705569744110107421875</LongitudeDegrees>
            </Position>
            <AltitudeMeters>505.399993896484375</AltitudeMeters>
            <DistanceMeters>NAN</DistanceMeters>
          </Trackpoint>
          <Trackpoint>
            <Time>2019-10-09T13:02:46.000Z</Time>
            <Position>
              <LatitudeDegrees>38.4480786882340908050537109375</LatitudeDegrees>
              <LongitudeDegrees>-6.3678114674985408782958984375</LongitudeDegrees>
            </Position>
            <AltitudeMeters>505.399993896484375</AltitudeMeters>
            <DistanceMeters>NAN</DistanceMeters>
          </Trackpoint>
          <Trackpoint>
            <Time>2019-10-09T13:02:50.000Z</Time>
            <Position>
              <LatitudeDegrees>38.44797148369252681732177734375</LatitudeDegrees>
              <LongitudeDegrees>-6.3678926043212413787841796875</LongitudeDegrees>
            </Position>
            <AltitudeMeters>505.600006103515625</AltitudeMeters>
            <DistanceMeters>NAN</DistanceMeters>
          </Trackpoint>
          <Trackpoint>
            <Time>2019-10-09T13:02:57.000Z</Time>
            <Position>
              <LatitudeDegrees>38.4477752633392810821533203125</LatitudeDegrees>
              <LongitudeDegrees>-6.36801523156464099884033203125</LongitudeDegrees>
            </Position>
            <AltitudeMeters>505.79998779296875</AltitudeMeters>
            <DistanceMeters>NAN</DistanceMeters>
          </Trackpoint>
          <Trackpoint>
            <Time>2019-10-09T13:02:59.000Z</Time>
            <Position>
              <LatitudeDegrees>38.44770125113427639007568359375</LatitudeDegrees>
              <LongitudeDegrees>-6.36805932037532329559326171875</LongitudeDegrees>
            </Position>
            <AltitudeMeters>505.600006103515625</AltitudeMeters>
            <DistanceMeters>NAN</DistanceMeters>
          </Trackpoint>
          <Trackpoint>
            <Time>2019-10-09T13:03:01.000Z</Time>
            <Position>
              <LatitudeDegrees>38.44762749038636684417724609375</LatitudeDegrees>
              <LongitudeDegrees>-6.36811204254627227783203125</LongitudeDegrees>
            </Position>
            <AltitudeMeters>505</AltitudeMeters>
            <DistanceMeters>NAN</DistanceMeters>
          </Trackpoint>
          <Trackpoint>
            <Time>2019-10-09T13:03:04.000Z</Time>
            <Position>
              <LatitudeDegrees>38.447507880628108978271484375</LatitudeDegrees>
              <LongitudeDegrees>-6.368190161883831024169921875</LongitudeDegrees>
            </Position>
            <AltitudeMeters>505.399993896484375</AltitudeMeters>
            <DistanceMeters>NAN</DistanceMeters>
          </Trackpoint>
          <Trackpoint>
            <Time>2019-10-09T13:03:09.000Z</Time>
            <Position>
              <LatitudeDegrees>38.44730629585683345794677734375</LatitudeDegrees>
              <LongitudeDegrees>-6.3683261163532733917236328125</LongitudeDegrees>
            </Position>
            <AltitudeMeters>505.79998779296875</AltitudeMeters>
            <DistanceMeters>NAN</DistanceMeters>
          </Trackpoint>
          <Trackpoint>
            <Time>2019-10-09T13:03:10.000Z</Time>
            <Position>
              <LatitudeDegrees>38.447265140712261199951171875</LatitudeDegrees>
              <LongitudeDegrees>-6.3683509267866611480712890625</LongitudeDegrees>
            </Position>
            <AltitudeMeters>506.399993896484375</AltitudeMeters>
            <DistanceMeters>NAN</DistanceMeters>
          </Trackpoint>
          <Trackpoint>
            <Time>2019-10-09T13:03:11.000Z</Time>
            <Position>
              <LatitudeDegrees>38.44722457230091094970703125</LatitudeDegrees>
              <LongitudeDegrees>-6.36837716214358806610107421875</LongitudeDegrees>
            </Position>
            <AltitudeMeters>506.79998779296875</AltitudeMeters>
            <DistanceMeters>NAN</DistanceMeters>
          </Trackpoint>
          <Trackpoint>
            <Time>2019-10-09T13:03:13.000Z</Time>
            <Position>
              <LatitudeDegrees>38.44714343547821044921875</LatitudeDegrees>
              <LongitudeDegrees>-6.36843181215226650238037109375</LongitudeDegrees>
            </Position>
            <AltitudeMeters>506.79998779296875</AltitudeMeters>
            <DistanceMeters>NAN</DistanceMeters>
          </Trackpoint>
          <Trackpoint>
            <Time>2019-10-09T13:03:15.000Z</Time>
            <Position>
              <LatitudeDegrees>38.44706087373197078704833984375</LatitudeDegrees>
              <LongitudeDegrees>-6.3684826903045177459716796875</LongitudeDegrees>
            </Position>
            <AltitudeMeters>506.600006103515625</AltitudeMeters>
            <DistanceMeters>NAN</DistanceMeters>
          </Trackpoint>
          <Trackpoint>
            <Time>2019-10-09T13:03:18.000Z</Time>
            <Position>
              <LatitudeDegrees>38.44693715684115886688232421875</LatitudeDegrees>
              <LongitudeDegrees>-6.3685524277389049530029296875</LongitudeDegrees>
            </Position>
            <AltitudeMeters>506.79998779296875</AltitudeMeters>
            <DistanceMeters>NAN</DistanceMeters>
          </Trackpoint>
          <Trackpoint>
            <Time>2019-10-09T13:03:20.000Z</Time>
            <Position>
              <LatitudeDegrees>38.446855433285236358642578125</LatitudeDegrees>
              <LongitudeDegrees>-6.36859525926411151885986328125</LongitudeDegrees>
            </Position>
            <AltitudeMeters>507.399993896484375</AltitudeMeters>
            <DistanceMeters>NAN</DistanceMeters>
          </Trackpoint>
          <Trackpoint>
            <Time>2019-10-09T13:03:23.000Z</Time>
            <Position>
              <LatitudeDegrees>38.44674252904951572418212890625</LatitudeDegrees>
              <LongitudeDegrees>-6.36867790482938289642333984375</LongitudeDegrees>
            </Position>
            <AltitudeMeters>507.600006103515625</AltitudeMeters>
            <DistanceMeters>NAN</DistanceMeters>
          </Trackpoint>
          <Trackpoint>
            <Time>2019-10-09T13:03:24.000Z</Time>
            <Position>
              <LatitudeDegrees>38.4467057324945926666259765625</LatitudeDegrees>
              <LongitudeDegrees>-6.36870623566210269927978515625</LongitudeDegrees>
            </Position>
            <AltitudeMeters>507.79998779296875</AltitudeMeters>
            <DistanceMeters>NAN</DistanceMeters>
          </Trackpoint>
          <Trackpoint>
            <Time>2019-10-09T13:03:27.000Z</Time>
            <Position>
              <LatitudeDegrees>38.44659903086721897125244140625</LatitudeDegrees>
              <LongitudeDegrees>-6.36879273690283298492431640625</LongitudeDegrees>
            </Position>
            <AltitudeMeters>508</AltitudeMeters>
            <DistanceMeters>NAN</DistanceMeters>
          </Trackpoint>
          <Trackpoint>
            <Time>2019-10-09T13:03:35.000Z</Time>
            <Position>
              <LatitudeDegrees>38.44632804393768310546875</LatitudeDegrees>
              <LongitudeDegrees>-6.36905643157660961151123046875</LongitudeDegrees>
            </Position>
            <AltitudeMeters>508.79998779296875</AltitudeMeters>
            <DistanceMeters>NAN</DistanceMeters>
          </Trackpoint>
          <Trackpoint>
            <Time>2019-10-09T13:03:37.000Z</Time>
            <Position>
              <LatitudeDegrees>38.44626392237842082977294921875</LatitudeDegrees>
              <LongitudeDegrees>-6.36913002468645572662353515625</LongitudeDegrees>
            </Position>
            <AltitudeMeters>509.20001220703125</AltitudeMeters>
            <DistanceMeters>NAN</DistanceMeters>
          </Trackpoint>
          <Trackpoint>
            <Time>2019-10-09T13:03:44.000Z</Time>
            <Position>
              <LatitudeDegrees>38.44604632817208766937255859375</LatitudeDegrees>
              <LongitudeDegrees>-6.36939908377826213836669921875</LongitudeDegrees>
            </Position>
            <AltitudeMeters>509.79998779296875</AltitudeMeters>
            <DistanceMeters>NAN</DistanceMeters>
          </Trackpoint>
          <Trackpoint>
            <Time>2019-10-09T13:03:47.000Z</Time>
            <Position>
              <LatitudeDegrees>38.44595412723720073699951171875</LatitudeDegrees>
              <LongitudeDegrees>-6.369511149823665618896484375</LongitudeDegrees>
            </Position>
            <AltitudeMeters>510.399993896484375</AltitudeMeters>
            <DistanceMeters>NAN</DistanceMeters>
          </Trackpoint>
          <Trackpoint>
            <Time>2019-10-09T13:03:54.000Z</Time>
            <Position>
              <LatitudeDegrees>38.44573502428829669952392578125</LatitudeDegrees>
              <LongitudeDegrees>-6.36977811343967914581298828125</LongitudeDegrees>
            </Position>
            <AltitudeMeters>511.20001220703125</AltitudeMeters>
            <DistanceMeters>NAN</DistanceMeters>
          </Trackpoint>
          <Trackpoint>
            <Time>2019-10-09T13:03:59.000Z</Time>
            <Position>
              <LatitudeDegrees>38.44558364711701869964599609375</LatitudeDegrees>
              <LongitudeDegrees>-6.3699723221361637115478515625</LongitudeDegrees>
            </Position>
            <AltitudeMeters>511.399993896484375</AltitudeMeters>
            <DistanceMeters>NAN</DistanceMeters>
          </Trackpoint>
          <Trackpoint>
            <Time>2019-10-09T13:04:04.000Z</Time>
            <Position>
              <LatitudeDegrees>38.44543294049799442291259765625</LatitudeDegrees>
              <LongitudeDegrees>-6.370161585509777069091796875</LongitudeDegrees>
            </Position>
            <AltitudeMeters>512.5999755859375</AltitudeMeters>
            <DistanceMeters>NAN</DistanceMeters>
          </Trackpoint>
          <Trackpoint>
            <Time>2019-10-09T13:04:05.000Z</Time>
            <Position>
              <LatitudeDegrees>38.44540276564657688140869140625</LatitudeDegrees>
              <LongitudeDegrees>-6.37019821442663669586181640625</LongitudeDegrees>
            </Position>
            <AltitudeMeters>512.5999755859375</AltitudeMeters>
            <DistanceMeters>NAN</DistanceMeters>
          </Trackpoint>
          <Trackpoint>
            <Time>2019-10-09T13:04:12.000Z</Time>
            <Position>
              <LatitudeDegrees>38.44519455917179584503173828125</LatitudeDegrees>
              <LongitudeDegrees>-6.37046559713780879974365234375</LongitudeDegrees>
            </Position>
            <AltitudeMeters>513.79998779296875</AltitudeMeters>
            <DistanceMeters>NAN</DistanceMeters>
          </Trackpoint>
          <Trackpoint>
            <Time>2019-10-09T13:04:13.000Z</Time>
            <Position>
              <LatitudeDegrees>38.44516438432037830352783203125</LatitudeDegrees>
              <LongitudeDegrees>-6.37050381861627101898193359375</LongitudeDegrees>
            </Position>
            <AltitudeMeters>514</AltitudeMeters>
            <DistanceMeters>NAN</DistanceMeters>
          </Trackpoint>
          <Trackpoint>
            <Time>2019-10-09T13:04:21.000Z</Time>
            <Position>
              <LatitudeDegrees>38.44491879455745220184326171875</LatitudeDegrees>
              <LongitudeDegrees>-6.3708168826997280120849609375</LongitudeDegrees>
            </Position>
            <AltitudeMeters>514.79998779296875</AltitudeMeters>
            <DistanceMeters>NAN</DistanceMeters>
          </Trackpoint>
          <Trackpoint>
            <Time>2019-10-09T13:04:26.000Z</Time>
            <Position>
              <LatitudeDegrees>38.4447648189961910247802734375</LatitudeDegrees>
              <LongitudeDegrees>-6.371006481349468231201171875</LongitudeDegrees>
            </Position>
            <AltitudeMeters>515.20001220703125</AltitudeMeters>
            <DistanceMeters>NAN</DistanceMeters>
          </Trackpoint>
          <Trackpoint>
            <Time>2019-10-09T13:04:30.000Z</Time>
            <Position>
              <LatitudeDegrees>38.444647975265979766845703125</LatitudeDegrees>
              <LongitudeDegrees>-6.37116163037717342376708984375</LongitudeDegrees>
            </Position>
            <AltitudeMeters>515.20001220703125</AltitudeMeters>
            <DistanceMeters>NAN</DistanceMeters>
          </Trackpoint>
          <Trackpoint>
            <Time>2019-10-09T13:04:38.000Z</Time>
            <Position>
              <LatitudeDegrees>38.44440422952175140380859375</LatitudeDegrees>
              <LongitudeDegrees>-6.37147511355578899383544921875</LongitudeDegrees>
            </Position>
            <AltitudeMeters>516.4000244140625</AltitudeMeters>
            <DistanceMeters>NAN</DistanceMeters>
          </Trackpoint>
          <Trackpoint>
            <Time>2019-10-09T13:04:39.000Z</Time>
            <Position>
              <LatitudeDegrees>38.44437145628035068511962890625</LatitudeDegrees>
              <LongitudeDegrees>-6.37151367031037807464599609375</LongitudeDegrees>
            </Position>
            <AltitudeMeters>516.4000244140625</AltitudeMeters>
            <DistanceMeters>NAN</DistanceMeters>
          </Trackpoint>
          <Trackpoint>
            <Time>2019-10-09T13:04:46.000Z</Time>
            <Position>
              <LatitudeDegrees>38.44414849765598773956298828125</LatitudeDegrees>
              <LongitudeDegrees>-6.37179614044725894927978515625</LongitudeDegrees>
            </Position>
            <AltitudeMeters>517.5999755859375</AltitudeMeters>
            <DistanceMeters>NAN</DistanceMeters>
          </Trackpoint>
          <Trackpoint>
            <Time>2019-10-09T13:04:48.000Z</Time>
            <Position>
              <LatitudeDegrees>38.44408563338220119476318359375</LatitudeDegrees>
              <LongitudeDegrees>-6.37187660671770572662353515625</LongitudeDegrees>
            </Position>
            <AltitudeMeters>517.79998779296875</AltitudeMeters>
            <DistanceMeters>NAN</DistanceMeters>
          </Trackpoint>
          <Trackpoint>
            <Time>2019-10-09T13:04:57.000Z</Time>
            <Position>
              <LatitudeDegrees>38.4438086114823818206787109375</LatitudeDegrees>
              <LongitudeDegrees>-6.3722267188131809234619140625</LongitudeDegrees>
            </Position>
            <AltitudeMeters>518.5999755859375</AltitudeMeters>
            <DistanceMeters>NAN</DistanceMeters>
          </Trackpoint>
          <Trackpoint>
            <Time>2019-10-09T13:05:05.000Z</Time>
            <Position>
              <LatitudeDegrees>38.4435658715665340423583984375</LatitudeDegrees>
              <LongitudeDegrees>-6.37254162691533565521240234375</LongitudeDegrees>
            </Position>
            <AltitudeMeters>519.79998779296875</AltitudeMeters>
            <DistanceMeters>NAN</DistanceMeters>
          </Trackpoint>
          <Trackpoint>
            <Time>2019-10-09T13:05:14.000Z</Time>
            <Position>
              <LatitudeDegrees>38.44328968785703182220458984375</LatitudeDegrees>
              <LongitudeDegrees>-6.3728897273540496826171875</LongitudeDegrees>
            </Position>
            <AltitudeMeters>520.20001220703125</AltitudeMeters>
            <DistanceMeters>NAN</DistanceMeters>
          </Trackpoint>
          <Trackpoint>
            <Time>2019-10-09T13:05:19.000Z</Time>
            <Position>
              <LatitudeDegrees>38.44314183108508586883544921875</LatitudeDegrees>
              <LongitudeDegrees>-6.37308443896472454071044921875</LongitudeDegrees>
            </Position>
            <AltitudeMeters>521.20001220703125</AltitudeMeters>
            <DistanceMeters>NAN</DistanceMeters>
          </Trackpoint>
          <Trackpoint>
            <Time>2019-10-09T13:05:25.000Z</Time>
            <Position>
              <LatitudeDegrees>38.442957513034343719482421875</LatitudeDegrees>
              <LongitudeDegrees>-6.3733120076358318328857421875</LongitudeDegrees>
            </Position>
            <AltitudeMeters>521.4000244140625</AltitudeMeters>
            <DistanceMeters>NAN</DistanceMeters>
          </Trackpoint>
          <Trackpoint>
            <Time>2019-10-09T13:05:28.000Z</Time>
            <Position>
              <LatitudeDegrees>38.4428748674690723419189453125</LatitudeDegrees>
              <LongitudeDegrees>-6.37341384775936603546142578125</LongitudeDegrees>
            </Position>
            <AltitudeMeters>522.4000244140625</AltitudeMeters>
            <DistanceMeters>NAN</DistanceMeters>
          </Trackpoint>
          <Trackpoint>
            <Time>2019-10-09T13:05:31.000Z</Time>
            <Position>
              <LatitudeDegrees>38.4428011067211627960205078125</LatitudeDegrees>
              <LongitudeDegrees>-6.373486854135990142822265625</LongitudeDegrees>
            </Position>
            <AltitudeMeters>522.5999755859375</AltitudeMeters>
            <DistanceMeters>NAN</DistanceMeters>
          </Trackpoint>
          <Trackpoint>
            <Time>2019-10-09T13:05:38.000Z</Time>
            <Position>
              <LatitudeDegrees>38.4426783956587314605712890625</LatitudeDegrees>
              <LongitudeDegrees>-6.3735951483249664306640625</LongitudeDegrees>
            </Position>
            <AltitudeMeters>523</AltitudeMeters>
            <DistanceMeters>NAN</DistanceMeters>
          </Trackpoint>
          <Trackpoint>
            <Time>2019-10-09T13:05:43.000Z</Time>
            <Position>
              <LatitudeDegrees>38.44261611811816692352294921875</LatitudeDegrees>
              <LongitudeDegrees>-6.3736352138221263885498046875</LongitudeDegrees>
            </Position>
            <AltitudeMeters>523.20001220703125</AltitudeMeters>
            <DistanceMeters>NAN</DistanceMeters>
          </Trackpoint>
          <Trackpoint>
            <Time>2019-10-09T13:05:45.000Z</Time>
            <Position>
              <LatitudeDegrees>38.44261192716658115386962890625</LatitudeDegrees>
              <LongitudeDegrees>-6.37363730929791927337646484375</LongitudeDegrees>
            </Position>
            <AltitudeMeters>523.20001220703125</AltitudeMeters>
            <DistanceMeters>NAN</DistanceMeters>
          </Trackpoint>
          <Trackpoint>
            <Time>2019-10-09T13:05:47.000Z</Time>
            <Position>
              <LatitudeDegrees>38.4426120109856128692626953125</LatitudeDegrees>
              <LongitudeDegrees>-6.373637057840824127197265625</LongitudeDegrees>
            </Position>
            <AltitudeMeters>524</AltitudeMeters>
            <DistanceMeters>NAN</DistanceMeters>
          </Trackpoint>
          <Trackpoint>
            <Time>2019-10-09T13:05:50.000Z</Time>
            <Position>
              <LatitudeDegrees>38.4426120109856128692626953125</LatitudeDegrees>
              <LongitudeDegrees>-6.373637057840824127197265625</LongitudeDegrees>
            </Position>
            <AltitudeMeters>523.20001220703125</AltitudeMeters>
            <DistanceMeters>NAN</DistanceMeters>
          </Trackpoint>
          <Trackpoint>
            <Time>2019-10-09T13:05:53.000Z</Time>
            <Position>
              <LatitudeDegrees>38.4426120109856128692626953125</LatitudeDegrees>
              <LongitudeDegrees>-6.373637057840824127197265625</LongitudeDegrees>
            </Position>
            <AltitudeMeters>523.4000244140625</AltitudeMeters>
            <DistanceMeters>NAN</DistanceMeters>
          </Trackpoint>
          <Trackpoint>
            <Time>2019-10-09T13:06:01.000Z</Time>
            <Position>
              <LatitudeDegrees>38.4426120109856128692626953125</LatitudeDegrees>
              <LongitudeDegrees>-6.373637057840824127197265625</LongitudeDegrees>
            </Position>
            <AltitudeMeters>523.20001220703125</AltitudeMeters>
            <DistanceMeters>NAN</DistanceMeters>
          </Trackpoint>
          <Trackpoint>
            <Time>2019-10-09T13:06:03.000Z</Time>
            <Position>
              <LatitudeDegrees>38.44261117279529571533203125</LatitudeDegrees>
              <LongitudeDegrees>-6.37363747693598270416259765625</LongitudeDegrees>
            </Position>
            <AltitudeMeters>523.4000244140625</AltitudeMeters>
            <DistanceMeters>NAN</DistanceMeters>
          </Trackpoint>
          <Trackpoint>
            <Time>2019-10-09T13:06:05.000Z</Time>
            <Position>
              <LatitudeDegrees>38.44259667210280895233154296875</LatitudeDegrees>
              <LongitudeDegrees>-6.37364719994366168975830078125</LongitudeDegrees>
            </Position>
            <AltitudeMeters>523.5999755859375</AltitudeMeters>
            <DistanceMeters>NAN</DistanceMeters>
          </Trackpoint>
          <Trackpoint>
            <Time>2019-10-09T13:06:11.000Z</Time>
            <Position>
              <LatitudeDegrees>38.44248368404805660247802734375</LatitudeDegrees>
              <LongitudeDegrees>-6.37373370118439197540283203125</LongitudeDegrees>
            </Position>
            <AltitudeMeters>523.20001220703125</AltitudeMeters>
            <DistanceMeters>NAN</DistanceMeters>
          </Trackpoint>
          <Trackpoint>
            <Time>2019-10-09T13:06:17.000Z</Time>
            <Position>
              <LatitudeDegrees>38.44227296300232410430908203125</LatitudeDegrees>
              <LongitudeDegrees>-6.3738554902374744415283203125</LongitudeDegrees>
            </Position>
            <AltitudeMeters>524.4000244140625</AltitudeMeters>
            <DistanceMeters>NAN</DistanceMeters>
          </Trackpoint>
          <Trackpoint>
            <Time>2019-10-09T13:06:18.000Z</Time>
            <Position>
              <LatitudeDegrees>38.44223775900900363922119140625</LatitudeDegrees>
              <LongitudeDegrees>-6.37387879192829132080078125</LongitudeDegrees>
            </Position>
            <AltitudeMeters>524.4000244140625</AltitudeMeters>
            <DistanceMeters>NAN</DistanceMeters>
          </Trackpoint>
          <Trackpoint>
            <Time>2019-10-09T13:06:22.000Z</Time>
            <Position>
              <LatitudeDegrees>38.44210968352854251861572265625</LatitudeDegrees>
              <LongitudeDegrees>-6.37398180551826953887939453125</LongitudeDegrees>
            </Position>
            <AltitudeMeters>525.20001220703125</AltitudeMeters>
            <DistanceMeters>NAN</DistanceMeters>
          </Trackpoint>
          <Trackpoint>
            <Time>2019-10-09T13:06:23.000Z</Time>
            <Position>
              <LatitudeDegrees>38.442074395716190338134765625</LatitudeDegrees>
              <LongitudeDegrees>-6.37399538420140743255615234375</LongitudeDegrees>
            </Position>
            <AltitudeMeters>525.20001220703125</AltitudeMeters>
            <DistanceMeters>NAN</DistanceMeters>
          </Trackpoint>
          <Trackpoint>
            <Time>2019-10-09T13:06:26.000Z</Time>
            <Position>
              <LatitudeDegrees>38.4419635869562625885009765625</LatitudeDegrees>
              <LongitudeDegrees>-6.37402354739606380462646484375</LongitudeDegrees>
            </Position>
            <AltitudeMeters>526.4000244140625</AltitudeMeters>
            <DistanceMeters>NAN</DistanceMeters>
          </Trackpoint>
          <Trackpoint>
            <Time>2019-10-09T13:06:30.000Z</Time>
            <Position>
              <LatitudeDegrees>38.4418100304901599884033203125</LatitudeDegrees>
              <LongitudeDegrees>-6.3740573264658451080322265625</LongitudeDegrees>
            </Position>
            <AltitudeMeters>527.4000244140625</AltitudeMeters>
            <DistanceMeters>NAN</DistanceMeters>
          </Trackpoint>
          <Trackpoint>
            <Time>2019-10-09T13:06:31.000Z</Time>
            <Position>
              <LatitudeDegrees>38.44177155755460262298583984375</LatitudeDegrees>
              <LongitudeDegrees>-6.37406277470290660858154296875</LongitudeDegrees>
            </Position>
            <AltitudeMeters>527.20001220703125</AltitudeMeters>
            <DistanceMeters>NAN</DistanceMeters>
          </Trackpoint>
          <Trackpoint>
            <Time>2019-10-09T13:06:35.000Z</Time>
            <Position>
              <LatitudeDegrees>38.4416279755532741546630859375</LatitudeDegrees>
              <LongitudeDegrees>-6.3740811310708522796630859375</LongitudeDegrees>
            </Position>
            <AltitudeMeters>528</AltitudeMeters>
            <DistanceMeters>NAN</DistanceMeters>
          </Trackpoint>
          <Trackpoint>
            <Time>2019-10-09T13:06:37.000Z</Time>
            <Position>
              <LatitudeDegrees>38.44156100414693355560302734375</LatitudeDegrees>
              <LongitudeDegrees>-6.37408875860273838043212890625</LongitudeDegrees>
            </Position>
            <AltitudeMeters>528.4000244140625</AltitudeMeters>
            <DistanceMeters>NAN</DistanceMeters>
          </Trackpoint>
          <Trackpoint>
            <Time>2019-10-09T13:06:40.000Z</Time>
            <Position>
              <LatitudeDegrees>38.44146125949919223785400390625</LatitudeDegrees>
              <LongitudeDegrees>-6.3740942068397998809814453125</LongitudeDegrees>
            </Position>
            <AltitudeMeters>528.79998779296875</AltitudeMeters>
            <DistanceMeters>NAN</DistanceMeters>
          </Trackpoint>
          <Trackpoint>
            <Time>2019-10-09T13:06:42.000Z</Time>
            <Position>
              <LatitudeDegrees>38.4413952939212322235107421875</LatitudeDegrees>
              <LongitudeDegrees>-6.374096386134624481201171875</LongitudeDegrees>
            </Position>
            <AltitudeMeters>529.5999755859375</AltitudeMeters>
            <DistanceMeters>NAN</DistanceMeters>
          </Trackpoint>
          <Trackpoint>
            <Time>2019-10-09T13:06:48.000Z</Time>
            <Position>
              <LatitudeDegrees>38.441195301711559295654296875</LatitudeDegrees>
              <LongitudeDegrees>-6.37409864924848079681396484375</LongitudeDegrees>
            </Position>
            <AltitudeMeters>530.5999755859375</AltitudeMeters>
            <DistanceMeters>NAN</DistanceMeters>
          </Trackpoint>
          <Trackpoint>
            <Time>2019-10-09T13:06:49.000Z</Time>
            <Position>
              <LatitudeDegrees>38.44116068445146083831787109375</LatitudeDegrees>
              <LongitudeDegrees>-6.37410032562911510467529296875</LongitudeDegrees>
            </Position>
            <AltitudeMeters>531</AltitudeMeters>
            <DistanceMeters>NAN</DistanceMeters>
          </Trackpoint>
          <Trackpoint>
            <Time>2019-10-09T13:06:55.000Z</Time>
            <Position>
              <LatitudeDegrees>38.44095381908118724822998046875</LatitudeDegrees>
              <LongitudeDegrees>-6.37409873306751251220703125</LongitudeDegrees>
            </Position>
            <AltitudeMeters>532</AltitudeMeters>
            <DistanceMeters>NAN</DistanceMeters>
          </Trackpoint>
          <Trackpoint>
            <Time>2019-10-09T13:06:59.000Z</Time>
            <Position>
              <LatitudeDegrees>38.44082104973495006561279296875</LatitudeDegrees>
              <LongitudeDegrees>-6.3740942068397998809814453125</LongitudeDegrees>
            </Position>
            <AltitudeMeters>532.5999755859375</AltitudeMeters>
            <DistanceMeters>NAN</DistanceMeters>
          </Trackpoint>
          <Trackpoint>
            <Time>2019-10-09T13:07:02.000Z</Time>
            <Position>
              <LatitudeDegrees>38.44071879051625728607177734375</LatitudeDegrees>
              <LongitudeDegrees>-6.37409194372594356536865234375</LongitudeDegrees>
            </Position>
            <AltitudeMeters>533</AltitudeMeters>
            <DistanceMeters>NAN</DistanceMeters>
          </Trackpoint>
          <Trackpoint>
            <Time>2019-10-09T13:07:08.000Z</Time>
            <Position>
              <LatitudeDegrees>38.440512008965015411376953125</LatitudeDegrees>
              <LongitudeDegrees>-6.3741042651236057281494140625</LongitudeDegrees>
            </Position>
            <AltitudeMeters>534</AltitudeMeters>
            <DistanceMeters>NAN</DistanceMeters>
          </Trackpoint>
          <Trackpoint>
            <Time>2019-10-09T13:07:10.000Z</Time>
            <Position>
              <LatitudeDegrees>38.4404437802731990814208984375</LatitudeDegrees>
              <LongitudeDegrees>-6.374112479388713836669921875</LongitudeDegrees>
            </Position>
            <AltitudeMeters>534.4000244140625</AltitudeMeters>
            <DistanceMeters>NAN</DistanceMeters>
          </Trackpoint>
          <Trackpoint>
            <Time>2019-10-09T13:07:14.000Z</Time>
            <Position>
              <LatitudeDegrees>38.4403083287179470062255859375</LatitudeDegrees>
              <LongitudeDegrees>-6.37412932701408863067626953125</LongitudeDegrees>
            </Position>
            <AltitudeMeters>535.20001220703125</AltitudeMeters>
            <DistanceMeters>NAN</DistanceMeters>
          </Trackpoint>
          <Trackpoint>
            <Time>2019-10-09T13:07:19.000Z</Time>
            <Position>
              <LatitudeDegrees>38.44013750553131103515625</LatitudeDegrees>
              <LongitudeDegrees>-6.374170817434787750244140625</LongitudeDegrees>
            </Position>
            <AltitudeMeters>536.4000244140625</AltitudeMeters>
            <DistanceMeters>NAN</DistanceMeters>
          </Trackpoint>
          <Trackpoint>
            <Time>2019-10-09T13:07:21.000Z</Time>
            <Position>
              <LatitudeDegrees>38.4400699473917484283447265625</LatitudeDegrees>
              <LongitudeDegrees>-6.37418297119438648223876953125</LongitudeDegrees>
            </Position>
            <AltitudeMeters>536.4000244140625</AltitudeMeters>
            <DistanceMeters>NAN</DistanceMeters>
          </Trackpoint>
          <Trackpoint>
            <Time>2019-10-09T13:07:28.000Z</Time>
            <Position>
              <LatitudeDegrees>38.43983701430261135101318359375</LatitudeDegrees>
              <LongitudeDegrees>-6.3742346875369548797607421875</LongitudeDegrees>
            </Position>
            <AltitudeMeters>537.4000244140625</AltitudeMeters>
            <DistanceMeters>NAN</DistanceMeters>
          </Trackpoint>
          <Trackpoint>
            <Time>2019-10-09T13:07:31.000Z</Time>
            <Position>
              <LatitudeDegrees>38.43973509036004543304443359375</LatitudeDegrees>
              <LongitudeDegrees>-6.3742561452090740203857421875</LongitudeDegrees>
            </Position>
            <AltitudeMeters>538</AltitudeMeters>
            <DistanceMeters>NAN</DistanceMeters>
          </Trackpoint>
          <Trackpoint>
            <Time>2019-10-09T13:07:33.000Z</Time>
            <Position>
              <LatitudeDegrees>38.439668454229831695556640625</LatitudeDegrees>
              <LongitudeDegrees>-6.37427114881575107574462890625</LongitudeDegrees>
            </Position>
            <AltitudeMeters>538.5999755859375</AltitudeMeters>
            <DistanceMeters>NAN</DistanceMeters>
          </Trackpoint>
          <Trackpoint>
            <Time>2019-10-09T13:07:38.000Z</Time>
            <Position>
              <LatitudeDegrees>38.43949721194803714752197265625</LatitudeDegrees>
              <LongitudeDegrees>-6.3743107952177524566650390625</LongitudeDegrees>
            </Position>
            <AltitudeMeters>539.79998779296875</AltitudeMeters>
            <DistanceMeters>NAN</DistanceMeters>
          </Trackpoint>
          <Trackpoint>
            <Time>2019-10-09T13:07:40.000Z</Time>
            <Position>
              <LatitudeDegrees>38.43942739069461822509765625</LatitudeDegrees>
              <LongitudeDegrees>-6.37432697229087352752685546875</LongitudeDegrees>
            </Position>
            <AltitudeMeters>540.20001220703125</AltitudeMeters>
            <DistanceMeters>NAN</DistanceMeters>
          </Trackpoint>
          <Trackpoint>
            <Time>2019-10-09T13:07:44.000Z</Time>
            <Position>
              <LatitudeDegrees>38.4392857365310192108154296875</LatitudeDegrees>
              <LongitudeDegrees>-6.3743622601032257080078125</LongitudeDegrees>
            </Position>
            <AltitudeMeters>541</AltitudeMeters>
            <DistanceMeters>NAN</DistanceMeters>
          </Trackpoint>
          <Trackpoint>
            <Time>2019-10-09T13:07:50.000Z</Time>
            <Position>
              <LatitudeDegrees>38.43907895497977733612060546875</LatitudeDegrees>
              <LongitudeDegrees>-6.37443359009921550750732421875</LongitudeDegrees>
            </Position>
            <AltitudeMeters>542.20001220703125</AltitudeMeters>
            <DistanceMeters>NAN</DistanceMeters>
          </Trackpoint>
          <Trackpoint>
            <Time>2019-10-09T13:07:58.000Z</Time>
            <Position>
              <LatitudeDegrees>38.43881593085825443267822265625</LatitudeDegrees>
              <LongitudeDegrees>-6.37456409633159637451171875</LongitudeDegrees>
            </Position>
            <AltitudeMeters>543.4000244140625</AltitudeMeters>
            <DistanceMeters>NAN</DistanceMeters>
          </Trackpoint>
          <Trackpoint>
            <Time>2019-10-09T13:07:59.000Z</Time>
            <Position>
              <LatitudeDegrees>38.43878458254039287567138671875</LatitudeDegrees>
              <LongitudeDegrees>-6.374581195414066314697265625</LongitudeDegrees>
            </Position>
            <AltitudeMeters>543.5999755859375</AltitudeMeters>
            <DistanceMeters>NAN</DistanceMeters>
          </Trackpoint>
          <Trackpoint>
            <Time>2019-10-09T13:08:03.000Z</Time>
            <Position>
              <LatitudeDegrees>38.4386594407260417938232421875</LatitudeDegrees>
              <LongitudeDegrees>-6.37466040439903736114501953125</LongitudeDegrees>
            </Position>
            <AltitudeMeters>544.4000244140625</AltitudeMeters>
            <DistanceMeters>NAN</DistanceMeters>
          </Trackpoint>
          <Trackpoint>
            <Time>2019-10-09T13:08:07.000Z</Time>
            <Position>
              <LatitudeDegrees>38.43853647820651531219482421875</LatitudeDegrees>
              <LongitudeDegrees>-6.3747543655335903167724609375</LongitudeDegrees>
            </Position>
            <AltitudeMeters>545</AltitudeMeters>
            <DistanceMeters>NAN</DistanceMeters>
          </Trackpoint>
          <Trackpoint>
            <Time>2019-10-09T13:08:09.000Z</Time>
            <Position>
              <LatitudeDegrees>38.43847612850368022918701171875</LatitudeDegrees>
              <LongitudeDegrees>-6.37480407021939754486083984375</LongitudeDegrees>
            </Position>
            <AltitudeMeters>545.4000244140625</AltitudeMeters>
            <DistanceMeters>NAN</DistanceMeters>
          </Trackpoint>
          <Trackpoint>
            <Time>2019-10-09T13:08:16.000Z</Time>
            <Position>
              <LatitudeDegrees>38.438277728855609893798828125</LatitudeDegrees>
              <LongitudeDegrees>-6.374988220632076263427734375</LongitudeDegrees>
            </Position>
            <AltitudeMeters>546.20001220703125</AltitudeMeters>
            <DistanceMeters>NAN</DistanceMeters>
          </Trackpoint>
          <Trackpoint>
            <Time>2019-10-09T13:08:17.000Z</Time>
            <Position>
              <LatitudeDegrees>38.43825166113674640655517578125</LatitudeDegrees>
              <LongitudeDegrees>-6.375016383826732635498046875</LongitudeDegrees>
            </Position>
            <AltitudeMeters>547</AltitudeMeters>
            <DistanceMeters>NAN</DistanceMeters>
          </Trackpoint>
          <Trackpoint>
            <Time>2019-10-09T13:08:23.000Z</Time>
            <Position>
              <LatitudeDegrees>38.438100703060626983642578125</LatitudeDegrees>
              <LongitudeDegrees>-6.37520656920969486236572265625</LongitudeDegrees>
            </Position>
            <AltitudeMeters>548</AltitudeMeters>
            <DistanceMeters>NAN</DistanceMeters>
          </Trackpoint>
          <Trackpoint>
            <Time>2019-10-09T13:08:26.000Z</Time>
            <Position>
              <LatitudeDegrees>38.43802568502724170684814453125</LatitudeDegrees>
              <LongitudeDegrees>-6.3753075711429119110107421875</LongitudeDegrees>
            </Position>
            <AltitudeMeters>548.4000244140625</AltitudeMeters>
            <DistanceMeters>NAN</DistanceMeters>
          </Trackpoint>
          <Trackpoint>
            <Time>2019-10-09T13:08:33.000Z</Time>
            <Position>
              <LatitudeDegrees>38.437877409160137176513671875</LatitudeDegrees>
              <LongitudeDegrees>-6.3755583576858043670654296875</LongitudeDegrees>
            </Position>
            <AltitudeMeters>549.20001220703125</AltitudeMeters>
            <DistanceMeters>NAN</DistanceMeters>
          </Trackpoint>
          <Trackpoint>
            <Time>2019-10-09T13:08:34.000Z</Time>
            <Position>
              <LatitudeDegrees>38.43785854987800121307373046875</LatitudeDegrees>
              <LongitudeDegrees>-6.37559481896460056304931640625</LongitudeDegrees>
            </Position>
            <AltitudeMeters>549.20001220703125</AltitudeMeters>
            <DistanceMeters>NAN</DistanceMeters>
          </Trackpoint>
          <Trackpoint>
            <Time>2019-10-09T13:08:38.000Z</Time>
            <Position>
              <LatitudeDegrees>38.4377853758633136749267578125</LatitudeDegrees>
              <LongitudeDegrees>-6.37574066407978534698486328125</LongitudeDegrees>
            </Position>
            <AltitudeMeters>550.4000244140625</AltitudeMeters>
            <DistanceMeters>NAN</DistanceMeters>
          </Trackpoint>
          <Trackpoint>
            <Time>2019-10-09T13:08:43.000Z</Time>
            <Position>
              <LatitudeDegrees>38.43770675361156463623046875</LatitudeDegrees>
              <LongitudeDegrees>-6.37593428604304790496826171875</LongitudeDegrees>
            </Position>
            <AltitudeMeters>551</AltitudeMeters>
            <DistanceMeters>NAN</DistanceMeters>
          </Trackpoint>
          <Trackpoint>
            <Time>2019-10-09T13:08:45.000Z</Time>
            <Position>
              <LatitudeDegrees>38.4376811049878597259521484375</LatitudeDegrees>
              <LongitudeDegrees>-6.37601491995155811309814453125</LongitudeDegrees>
            </Position>
            <AltitudeMeters>551.4000244140625</AltitudeMeters>
            <DistanceMeters>NAN</DistanceMeters>
          </Trackpoint>
          <Trackpoint>
            <Time>2019-10-09T13:08:50.000Z</Time>
            <Position>
              <LatitudeDegrees>38.43761865980923175811767578125</LatitudeDegrees>
              <LongitudeDegrees>-6.37621977366507053375244140625</LongitudeDegrees>
            </Position>
            <AltitudeMeters>552.4000244140625</AltitudeMeters>
            <DistanceMeters>NAN</DistanceMeters>
          </Trackpoint>
          <Trackpoint>
            <Time>2019-10-09T13:08:53.000Z</Time>
            <Position>
              <LatitudeDegrees>38.4375842101871967315673828125</LatitudeDegrees>
              <LongitudeDegrees>-6.37634416110813617706298828125</LongitudeDegrees>
            </Position>
            <AltitudeMeters>553.20001220703125</AltitudeMeters>
            <DistanceMeters>NAN</DistanceMeters>
          </Trackpoint>
          <Trackpoint>
            <Time>2019-10-09T13:08:54.000Z</Time>
            <Position>
              <LatitudeDegrees>38.43757473863661289215087890625</LatitudeDegrees>
              <LongitudeDegrees>-6.3763848133385181427001953125</LongitudeDegrees>
            </Position>
            <AltitudeMeters>553.4000244140625</AltitudeMeters>
            <DistanceMeters>NAN</DistanceMeters>
          </Trackpoint>
          <Trackpoint>
            <Time>2019-10-09T13:09:01.000Z</Time>
            <Position>
              <LatitudeDegrees>38.43752042390406131744384765625</LatitudeDegrees>
              <LongitudeDegrees>-6.37666317634284496307373046875</LongitudeDegrees>
            </Position>
            <AltitudeMeters>554.4000244140625</AltitudeMeters>
            <DistanceMeters>NAN</DistanceMeters>
          </Trackpoint>
          <Trackpoint>
            <Time>2019-10-09T13:09:06.000Z</Time>
            <Position>
              <LatitudeDegrees>38.437497206032276153564453125</LatitudeDegrees>
              <LongitudeDegrees>-6.3768659345805644989013671875</LongitudeDegrees>
            </Position>
            <AltitudeMeters>555</AltitudeMeters>
            <DistanceMeters>NAN</DistanceMeters>
          </Trackpoint>
          <Trackpoint>
            <Time>2019-10-09T13:09:10.000Z</Time>
            <Position>
              <LatitudeDegrees>38.43748907558619976043701171875</LatitudeDegrees>
              <LongitudeDegrees>-6.3770275376737117767333984375</LongitudeDegrees>
            </Position>
            <AltitudeMeters>555.79998779296875</AltitudeMeters>
            <DistanceMeters>NAN</DistanceMeters>
          </Trackpoint>
          <Trackpoint>
            <Time>2019-10-09T13:09:12.000Z</Time>
            <Position>
              <LatitudeDegrees>38.43748622573912143707275390625</LatitudeDegrees>
              <LongitudeDegrees>-6.377107836306095123291015625</LongitudeDegrees>
            </Position>
            <AltitudeMeters>556.20001220703125</AltitudeMeters>
            <DistanceMeters>NAN</DistanceMeters>
          </Trackpoint>
          <Trackpoint>
            <Time>2019-10-09T13:09:17.000Z</Time>
            <Position>
              <LatitudeDegrees>38.437471054494380950927734375</LatitudeDegrees>
              <LongitudeDegrees>-6.3773125223815441131591796875</LongitudeDegrees>
            </Position>
            <AltitudeMeters>557.20001220703125</AltitudeMeters>
            <DistanceMeters>NAN</DistanceMeters>
          </Trackpoint>
          <Trackpoint>
            <Time>2019-10-09T13:09:19.000Z</Time>
            <Position>
              <LatitudeDegrees>38.43746778555214405059814453125</LatitudeDegrees>
              <LongitudeDegrees>-6.37739810161292552947998046875</LongitudeDegrees>
            </Position>
            <AltitudeMeters>557.79998779296875</AltitudeMeters>
            <DistanceMeters>NAN</DistanceMeters>
          </Trackpoint>
          <Trackpoint>
            <Time>2019-10-09T13:09:26.000Z</Time>
            <Position>
              <LatitudeDegrees>38.4374539554119110107421875</LatitudeDegrees>
              <LongitudeDegrees>-6.37768995948135852813720703125</LongitudeDegrees>
            </Position>
            <AltitudeMeters>558.20001220703125</AltitudeMeters>
            <DistanceMeters>NAN</DistanceMeters>
          </Trackpoint>
          <Trackpoint>
            <Time>2019-10-09T13:09:28.000Z</Time>
            <Position>
              <LatitudeDegrees>38.437447585165500640869140625</LatitudeDegrees>
              <LongitudeDegrees>-6.37777545489370822906494140625</LongitudeDegrees>
            </Position>
            <AltitudeMeters>559</AltitudeMeters>
            <DistanceMeters>NAN</DistanceMeters>
          </Trackpoint>
          <Trackpoint>
            <Time>2019-10-09T13:09:30.000Z</Time>
            <Position>
              <LatitudeDegrees>38.43744163401424884796142578125</LatitudeDegrees>
              <LongitudeDegrees>-6.37785994447767734527587890625</LongitudeDegrees>
            </Position>
            <AltitudeMeters>559.4000244140625</AltitudeMeters>
            <DistanceMeters>NAN</DistanceMeters>
          </Trackpoint>
          <Trackpoint>
            <Time>2019-10-09T13:09:36.000Z</Time>
            <Position>
              <LatitudeDegrees>38.4374303184449672698974609375</LatitudeDegrees>
              <LongitudeDegrees>-6.37811542488634586334228515625</LongitudeDegrees>
            </Position>
            <AltitudeMeters>560.5999755859375</AltitudeMeters>
            <DistanceMeters>NAN</DistanceMeters>
          </Trackpoint>
          <Trackpoint>
            <Time>2019-10-09T13:09:39.000Z</Time>
            <Position>
              <LatitudeDegrees>38.43741833232343196868896484375</LatitudeDegrees>
              <LongitudeDegrees>-6.378237046301364898681640625</LongitudeDegrees>
            </Position>
            <AltitudeMeters>560.5999755859375</AltitudeMeters>
            <DistanceMeters>NAN</DistanceMeters>
          </Trackpoint>
          <Trackpoint>
            <Time>2019-10-09T13:09:44.000Z</Time>
            <Position>
              <LatitudeDegrees>38.43741238117218017578125</LatitudeDegrees>
              <LongitudeDegrees>-6.3784507848322391510009765625</LongitudeDegrees>
            </Position>
            <AltitudeMeters>561.79998779296875</AltitudeMeters>
            <DistanceMeters>NAN</DistanceMeters>
          </Trackpoint>
          <Trackpoint>
            <Time>2019-10-09T13:09:47.000Z</Time>
            <Position>
              <LatitudeDegrees>38.4374011494219303131103515625</LatitudeDegrees>
              <LongitudeDegrees>-6.37857542373239994049072265625</LongitudeDegrees>
            </Position>
            <AltitudeMeters>562.20001220703125</AltitudeMeters>
            <DistanceMeters>NAN</DistanceMeters>
          </Trackpoint>
          <Trackpoint>
            <Time>2019-10-09T13:09:49.000Z</Time>
            <Position>
              <LatitudeDegrees>38.43739670701324939727783203125</LatitudeDegrees>
              <LongitudeDegrees>-6.3786623440682888031005859375</LongitudeDegrees>
            </Position>
            <AltitudeMeters>562.79998779296875</AltitudeMeters>
            <DistanceMeters>NAN</DistanceMeters>
          </Trackpoint>
          <Trackpoint>
            <Time>2019-10-09T13:09:55.000Z</Time>
            <Position>
              <LatitudeDegrees>38.43738463707268238067626953125</LatitudeDegrees>
              <LongitudeDegrees>-6.378931067883968353271484375</LongitudeDegrees>
            </Position>
            <AltitudeMeters>563.5999755859375</AltitudeMeters>
            <DistanceMeters>NAN</DistanceMeters>
          </Trackpoint>
          <Trackpoint>
            <Time>2019-10-09T13:09:59.000Z</Time>
            <Position>
              <LatitudeDegrees>38.43737424351274967193603515625</LatitudeDegrees>
              <LongitudeDegrees>-6.3791151344776153564453125</LongitudeDegrees>
            </Position>
            <AltitudeMeters>564</AltitudeMeters>
            <DistanceMeters>NAN</DistanceMeters>
          </Trackpoint>
          <Trackpoint>
            <Time>2019-10-09T13:10:06.000Z</Time>
            <Position>
              <LatitudeDegrees>38.437361083924770355224609375</LatitudeDegrees>
              <LongitudeDegrees>-6.379433982074260711669921875</LongitudeDegrees>
            </Position>
            <AltitudeMeters>564.5999755859375</AltitudeMeters>
            <DistanceMeters>NAN</DistanceMeters>
          </Trackpoint>
          <Trackpoint>
            <Time>2019-10-09T13:10:08.000Z</Time>
            <Position>
              <LatitudeDegrees>38.437357060611248016357421875</LatitudeDegrees>
              <LongitudeDegrees>-6.37952626682817935943603515625</LongitudeDegrees>
            </Position>
            <AltitudeMeters>565.4000244140625</AltitudeMeters>
            <DistanceMeters>NAN</DistanceMeters>
          </Trackpoint>
          <Trackpoint>
            <Time>2019-10-09T13:10:13.000Z</Time>
            <Position>
              <LatitudeDegrees>38.43734591268002986907958984375</LatitudeDegrees>
              <LongitudeDegrees>-6.3797580264508724212646484375</LongitudeDegrees>
            </Position>
            <AltitudeMeters>566.5999755859375</AltitudeMeters>
            <DistanceMeters>NAN</DistanceMeters>
          </Trackpoint>
          <Trackpoint>
            <Time>2019-10-09T13:10:15.000Z</Time>
            <Position>
              <LatitudeDegrees>38.43734054826200008392333984375</LatitudeDegrees>
              <LongitudeDegrees>-6.3798532448709011077880859375</LongitudeDegrees>
            </Position>
            <AltitudeMeters>566.5999755859375</AltitudeMeters>
            <DistanceMeters>NAN</DistanceMeters>
          </Trackpoint>
          <Trackpoint>
            <Time>2019-10-09T13:10:24.000Z</Time>
            <Position>
              <LatitudeDegrees>38.43731489963829517364501953125</LatitudeDegrees>
              <LongitudeDegrees>-6.38028952293097972869873046875</LongitudeDegrees>
            </Position>
            <AltitudeMeters>567.4000244140625</AltitudeMeters>
            <DistanceMeters>NAN</DistanceMeters>
          </Trackpoint>
          <Trackpoint>
            <Time>2019-10-09T13:10:25.000Z</Time>
            <Position>
              <LatitudeDegrees>38.43731037341058254241943359375</LatitudeDegrees>
              <LongitudeDegrees>-6.38033880852162837982177734375</LongitudeDegrees>
            </Position>
            <AltitudeMeters>567.79998779296875</AltitudeMeters>
            <DistanceMeters>NAN</DistanceMeters>
          </Trackpoint>
          <Trackpoint>
            <Time>2019-10-09T13:10:32.000Z</Time>
            <Position>
              <LatitudeDegrees>38.4372915141284465789794921875</LatitudeDegrees>
              <LongitudeDegrees>-6.38068967498838901519775390625</LongitudeDegrees>
            </Position>
            <AltitudeMeters>568</AltitudeMeters>
            <DistanceMeters>NAN</DistanceMeters>
          </Trackpoint>
          <Trackpoint>
            <Time>2019-10-09T13:10:41.000Z</Time>
            <Position>
              <LatitudeDegrees>38.43726661987602710723876953125</LatitudeDegrees>
              <LongitudeDegrees>-6.381150595843791961669921875</LongitudeDegrees>
            </Position>
            <AltitudeMeters>568.20001220703125</AltitudeMeters>
            <DistanceMeters>NAN</DistanceMeters>
          </Trackpoint>
          <Trackpoint>
            <Time>2019-10-09T13:10:42.000Z</Time>
            <Position>
              <LatitudeDegrees>38.437263183295726776123046875</LatitudeDegrees>
              <LongitudeDegrees>-6.38120063580572605133056640625</LongitudeDegrees>
            </Position>
            <AltitudeMeters>567.79998779296875</AltitudeMeters>
            <DistanceMeters>NAN</DistanceMeters>
          </Trackpoint>
          <Trackpoint>
            <Time>2019-10-09T13:10:49.000Z</Time>
            <Position>
              <LatitudeDegrees>38.437237702310085296630859375</LatitudeDegrees>
              <LongitudeDegrees>-6.38154882006347179412841796875</LongitudeDegrees>
            </Position>
            <AltitudeMeters>567.5999755859375</AltitudeMeters>
            <DistanceMeters>NAN</DistanceMeters>
          </Trackpoint>
          <Trackpoint>
            <Time>2019-10-09T13:10:52.000Z</Time>
            <Position>
              <LatitudeDegrees>38.4372206032276153564453125</LatitudeDegrees>
              <LongitudeDegrees>-6.38169734738767147064208984375</LongitudeDegrees>
            </Position>
            <AltitudeMeters>567.79998779296875</AltitudeMeters>
            <DistanceMeters>NAN</DistanceMeters>
          </Trackpoint>
          <Trackpoint>
            <Time>2019-10-09T13:10:58.000Z</Time>
            <Position>
              <LatitudeDegrees>38.43718380667269229888916015625</LatitudeDegrees>
              <LongitudeDegrees>-6.3820057176053524017333984375</LongitudeDegrees>
            </Position>
            <AltitudeMeters>567.5999755859375</AltitudeMeters>
            <DistanceMeters>NAN</DistanceMeters>
          </Trackpoint>
          <Trackpoint>
            <Time>2019-10-09T13:10:59.000Z</Time>
            <Position>
              <LatitudeDegrees>38.43717433512210845947265625</LatitudeDegrees>
              <LongitudeDegrees>-6.3820601999759674072265625</LongitudeDegrees>
            </Position>
            <AltitudeMeters>567.5999755859375</AltitudeMeters>
            <DistanceMeters>NAN</DistanceMeters>
          </Trackpoint>
          <Trackpoint>
            <Time>2019-10-09T13:11:08.000Z</Time>
            <Position>
              <LatitudeDegrees>38.43707283027470111846923828125</LatitudeDegrees>
              <LongitudeDegrees>-6.38255565427243709564208984375</LongitudeDegrees>
            </Position>
            <AltitudeMeters>567.4000244140625</AltitudeMeters>
            <DistanceMeters>NAN</DistanceMeters>
          </Trackpoint>
          <Trackpoint>
            <Time>2019-10-09T13:11:11.000Z</Time>
            <Position>
              <LatitudeDegrees>38.4370283223688602447509765625</LatitudeDegrees>
              <LongitudeDegrees>-6.38272413052618503570556640625</LongitudeDegrees>
            </Position>
            <AltitudeMeters>566.79998779296875</AltitudeMeters>
            <DistanceMeters>NAN</DistanceMeters>
          </Trackpoint>
          <Trackpoint>
            <Time>2019-10-09T13:11:15.000Z</Time>
            <Position>
              <LatitudeDegrees>38.4369471855461597442626953125</LatitudeDegrees>
              <LongitudeDegrees>-6.382981874048709869384765625</LongitudeDegrees>
            </Position>
            <AltitudeMeters>567.20001220703125</AltitudeMeters>
            <DistanceMeters>NAN</DistanceMeters>
          </Trackpoint>
          <Trackpoint>
            <Time>2019-10-09T13:11:21.000Z</Time>
            <Position>
              <LatitudeDegrees>38.4367912821471691131591796875</LatitudeDegrees>
              <LongitudeDegrees>-6.38340692035853862762451171875</LongitudeDegrees>
            </Position>
            <AltitudeMeters>565.4000244140625</AltitudeMeters>
            <DistanceMeters>NAN</DistanceMeters>
          </Trackpoint>
          <Trackpoint>
            <Time>2019-10-09T13:11:22.000Z</Time>
            <Position>
              <LatitudeDegrees>38.43676253221929073333740234375</LatitudeDegrees>
              <LongitudeDegrees>-6.3834802620112895965576171875</LongitudeDegrees>
            </Position>
            <AltitudeMeters>565.4000244140625</AltitudeMeters>
            <DistanceMeters>NAN</DistanceMeters>
          </Trackpoint>
          <Trackpoint>
            <Time>2019-10-09T13:11:27.000Z</Time>
            <Position>
              <LatitudeDegrees>38.4366036951541900634765625</LatitudeDegrees>
              <LongitudeDegrees>-6.38388016261160373687744140625</LongitudeDegrees>
            </Position>
            <AltitudeMeters>564.4000244140625</AltitudeMeters>
            <DistanceMeters>NAN</DistanceMeters>
          </Trackpoint>
          <Trackpoint>
            <Time>2019-10-09T13:11:29.000Z</Time>
            <Position>
              <LatitudeDegrees>38.43653521500527858734130859375</LatitudeDegrees>
              <LongitudeDegrees>-6.384055428206920623779296875</LongitudeDegrees>
            </Position>
            <AltitudeMeters>563.79998779296875</AltitudeMeters>
            <DistanceMeters>NAN</DistanceMeters>
          </Trackpoint>
          <Trackpoint>
            <Time>2019-10-09T13:11:31.000Z</Time>
            <Position>
              <LatitudeDegrees>38.43646463938057422637939453125</LatitudeDegrees>
              <LongitudeDegrees>-6.38423672877252101898193359375</LongitudeDegrees>
            </Position>
            <AltitudeMeters>562.79998779296875</AltitudeMeters>
            <DistanceMeters>NAN</DistanceMeters>
          </Trackpoint>
          <Trackpoint>
            <Time>2019-10-09T13:11:33.000Z</Time>
            <Position>
              <LatitudeDegrees>38.436391465365886688232421875</LatitudeDegrees>
              <LongitudeDegrees>-6.384426914155483245849609375</LongitudeDegrees>
            </Position>
            <AltitudeMeters>561.79998779296875</AltitudeMeters>
            <DistanceMeters>NAN</DistanceMeters>
          </Trackpoint>
          <Trackpoint>
            <Time>2019-10-09T13:11:36.000Z</Time>
            <Position>
              <LatitudeDegrees>38.43627311289310455322265625</LatitudeDegrees>
              <LongitudeDegrees>-6.38473075814545154571533203125</LongitudeDegrees>
            </Position>
            <AltitudeMeters>559.79998779296875</AltitudeMeters>
            <DistanceMeters>NAN</DistanceMeters>
          </Trackpoint>
          <Trackpoint>
            <Time>2019-10-09T13:11:38.000Z</Time>
            <Position>
              <LatitudeDegrees>38.43618870712816715240478515625</LatitudeDegrees>
              <LongitudeDegrees>-6.3849447481334209442138671875</LongitudeDegrees>
            </Position>
            <AltitudeMeters>558.79998779296875</AltitudeMeters>
            <DistanceMeters>NAN</DistanceMeters>
          </Trackpoint>
          <Trackpoint>
            <Time>2019-10-09T13:11:39.000Z</Time>
            <Position>
              <LatitudeDegrees>38.436145372688770294189453125</LatitudeDegrees>
              <LongitudeDegrees>-6.3850547187030315399169921875</LongitudeDegrees>
            </Position>
            <AltitudeMeters>557.5999755859375</AltitudeMeters>
            <DistanceMeters>NAN</DistanceMeters>
          </Trackpoint>
          <Trackpoint>
            <Time>2019-10-09T13:11:40.000Z</Time>
            <Position>
              <LatitudeDegrees>38.4361022897064685821533203125</LatitudeDegrees>
              <LongitudeDegrees>-6.38516192324459552764892578125</LongitudeDegrees>
            </Position>
            <AltitudeMeters>556.4000244140625</AltitudeMeters>
            <DistanceMeters>NAN</DistanceMeters>
          </Trackpoint>
          <Trackpoint>
            <Time>2019-10-09T13:11:41.000Z</Time>
            <Position>
              <LatitudeDegrees>38.436060212552547454833984375</LatitudeDegrees>
              <LongitudeDegrees>-6.38527055270969867706298828125</LongitudeDegrees>
            </Position>
            <AltitudeMeters>556</AltitudeMeters>
            <DistanceMeters>NAN</DistanceMeters>
          </Trackpoint>
          <Trackpoint>
            <Time>2019-10-09T13:11:42.000Z</Time>
            <Position>
              <LatitudeDegrees>38.43601905740797519683837890625</LatitudeDegrees>
              <LongitudeDegrees>-6.38537876307964324951171875</LongitudeDegrees>
            </Position>
            <AltitudeMeters>556.4000244140625</AltitudeMeters>
            <DistanceMeters>NAN</DistanceMeters>
          </Trackpoint>
          <Trackpoint>
            <Time>2019-10-09T13:11:44.000Z</Time>
            <Position>
              <LatitudeDegrees>38.435940854251384735107421875</LatitudeDegrees>
              <LongitudeDegrees>-6.3855878077447414398193359375</LongitudeDegrees>
            </Position>
            <AltitudeMeters>556.20001220703125</AltitudeMeters>
            <DistanceMeters>NAN</DistanceMeters>
          </Trackpoint>
          <Trackpoint>
            <Time>2019-10-09T13:11:50.000Z</Time>
            <Position>
              <LatitudeDegrees>38.4357244335114955902099609375</LatitudeDegrees>
              <LongitudeDegrees>-6.38615199364721775054931640625</LongitudeDegrees>
            </Position>
            <AltitudeMeters>556.79998779296875</AltitudeMeters>
            <DistanceMeters>NAN</DistanceMeters>
          </Trackpoint>
          <Trackpoint>
            <Time>2019-10-09T13:11:51.000Z</Time>
            <Position>
              <LatitudeDegrees>38.43568931333720684051513671875</LatitudeDegrees>
              <LongitudeDegrees>-6.3862338848412036895751953125</LongitudeDegrees>
            </Position>
            <AltitudeMeters>556.79998779296875</AltitudeMeters>
            <DistanceMeters>NAN</DistanceMeters>
          </Trackpoint>
          <Trackpoint>
            <Time>2019-10-09T13:11:55.000Z</Time>
            <Position>
              <LatitudeDegrees>38.43557112850248813629150390625</LatitudeDegrees>
              <LongitudeDegrees>-6.38654820621013641357421875</LongitudeDegrees>
            </Position>
            <AltitudeMeters>556.79998779296875</AltitudeMeters>
            <DistanceMeters>NAN</DistanceMeters>
          </Trackpoint>
          <Trackpoint>
            <Time>2019-10-09T13:12:00.000Z</Time>
            <Position>
              <LatitudeDegrees>38.43542545102536678314208984375</LatitudeDegrees>
              <LongitudeDegrees>-6.386924050748348236083984375</LongitudeDegrees>
            </Position>
            <AltitudeMeters>557.4000244140625</AltitudeMeters>
            <DistanceMeters>NAN</DistanceMeters>
          </Trackpoint>
          <Trackpoint>
            <Time>2019-10-09T13:12:01.000Z</Time>
            <Position>
              <LatitudeDegrees>38.43539611436426639556884765625</LatitudeDegrees>
              <LongitudeDegrees>-6.38699856586754322052001953125</LongitudeDegrees>
            </Position>
            <AltitudeMeters>556.79998779296875</AltitudeMeters>
            <DistanceMeters>NAN</DistanceMeters>
          </Trackpoint>
          <Trackpoint>
            <Time>2019-10-09T13:12:02.000Z</Time>
            <Position>
              <LatitudeDegrees>38.43536711297929286956787109375</LatitudeDegrees>
              <LongitudeDegrees>-6.387072242796421051025390625</LongitudeDegrees>
            </Position>
            <AltitudeMeters>557.4000244140625</AltitudeMeters>
            <DistanceMeters>NAN</DistanceMeters>
          </Trackpoint>
          <Trackpoint>
            <Time>2019-10-09T13:12:05.000Z</Time>
            <Position>
              <LatitudeDegrees>38.43528446741402149200439453125</LatitudeDegrees>
              <LongitudeDegrees>-6.3873000629246234893798828125</LongitudeDegrees>
            </Position>
            <AltitudeMeters>557.20001220703125</AltitudeMeters>
            <DistanceMeters>NAN</DistanceMeters>
          </Trackpoint>
          <Trackpoint>
            <Time>2019-10-09T13:12:07.000Z</Time>
            <Position>
              <LatitudeDegrees>38.4352275542914867401123046875</LatitudeDegrees>
              <LongitudeDegrees>-6.387447416782379150390625</LongitudeDegrees>
            </Position>
            <AltitudeMeters>556.79998779296875</AltitudeMeters>
            <DistanceMeters>NAN</DistanceMeters>
          </Trackpoint>
          <Trackpoint>
            <Time>2019-10-09T13:12:08.000Z</Time>
            <Position>
              <LatitudeDegrees>38.4351987205445766448974609375</LatitudeDegrees>
              <LongitudeDegrees>-6.38752025552093982696533203125</LongitudeDegrees>
            </Position>
            <AltitudeMeters>556.79998779296875</AltitudeMeters>
            <DistanceMeters>NAN</DistanceMeters>
          </Trackpoint>
          <Trackpoint>
            <Time>2019-10-09T13:12:10.000Z</Time>
            <Position>
              <LatitudeDegrees>38.43514264561235904693603515625</LatitudeDegrees>
              <LongitudeDegrees>-6.3876631669700145721435546875</LongitudeDegrees>
            </Position>
            <AltitudeMeters>557.20001220703125</AltitudeMeters>
            <DistanceMeters>NAN</DistanceMeters>
          </Trackpoint>
          <Trackpoint>
            <Time>2019-10-09T13:12:12.000Z</Time>
            <Position>
              <LatitudeDegrees>38.43508967198431491851806640625</LatitudeDegrees>
              <LongitudeDegrees>-6.3878054916858673095703125</LongitudeDegrees>
            </Position>
            <AltitudeMeters>557</AltitudeMeters>
            <DistanceMeters>NAN</DistanceMeters>
          </Trackpoint>
          <Trackpoint>
            <Time>2019-10-09T13:12:18.000Z</Time>
            <Position>
              <LatitudeDegrees>38.434928990900516510009765625</LatitudeDegrees>
              <LongitudeDegrees>-6.3882185518741607666015625</LongitudeDegrees>
            </Position>
            <AltitudeMeters>557.4000244140625</AltitudeMeters>
            <DistanceMeters>NAN</DistanceMeters>
          </Trackpoint>
          <Trackpoint>
            <Time>2019-10-09T13:12:24.000Z</Time>
            <Position>
              <LatitudeDegrees>38.434772081673145294189453125</LatitudeDegrees>
              <LongitudeDegrees>-6.38861677609384059906005859375</LongitudeDegrees>
            </Position>
            <AltitudeMeters>557.79998779296875</AltitudeMeters>
            <DistanceMeters>NAN</DistanceMeters>
          </Trackpoint>
          <Trackpoint>
            <Time>2019-10-09T13:12:27.000Z</Time>
            <Position>
              <LatitudeDegrees>38.43469169922173023223876953125</LatitudeDegrees>
              <LongitudeDegrees>-6.38882380910217761993408203125</LongitudeDegrees>
            </Position>
            <AltitudeMeters>557</AltitudeMeters>
            <DistanceMeters>NAN</DistanceMeters>
          </Trackpoint>
          <Trackpoint>
            <Time>2019-10-09T13:12:29.000Z</Time>
            <Position>
              <LatitudeDegrees>38.4346351213753223419189453125</LatitudeDegrees>
              <LongitudeDegrees>-6.38896998949348926544189453125</LongitudeDegrees>
            </Position>
            <AltitudeMeters>556.20001220703125</AltitudeMeters>
            <DistanceMeters>NAN</DistanceMeters>
          </Trackpoint>
          <Trackpoint>
            <Time>2019-10-09T13:12:32.000Z</Time>
            <Position>
              <LatitudeDegrees>38.43454702757298946380615234375</LatitudeDegrees>
              <LongitudeDegrees>-6.38919864781200885772705078125</LongitudeDegrees>
            </Position>
            <AltitudeMeters>555.20001220703125</AltitudeMeters>
            <DistanceMeters>NAN</DistanceMeters>
          </Trackpoint>
          <Trackpoint>
            <Time>2019-10-09T13:12:35.000Z</Time>
            <Position>
              <LatitudeDegrees>38.43445013277232646942138671875</LatitudeDegrees>
              <LongitudeDegrees>-6.38944122008979320526123046875</LongitudeDegrees>
            </Position>
            <AltitudeMeters>554.4000244140625</AltitudeMeters>
            <DistanceMeters>NAN</DistanceMeters>
          </Trackpoint>
          <Trackpoint>
            <Time>2019-10-09T13:12:38.000Z</Time>
            <Position>
              <LatitudeDegrees>38.4343479573726654052734375</LatitudeDegrees>
              <LongitudeDegrees>-6.389697454869747161865234375</LongitudeDegrees>
            </Position>
            <AltitudeMeters>554</AltitudeMeters>
            <DistanceMeters>NAN</DistanceMeters>
          </Trackpoint>
          <Trackpoint>
            <Time>2019-10-09T13:12:40.000Z</Time>
            <Position>
              <LatitudeDegrees>38.43427193351089954376220703125</LatitudeDegrees>
              <LongitudeDegrees>-6.38988009653985500335693359375</LongitudeDegrees>
            </Position>
            <AltitudeMeters>553</AltitudeMeters>
            <DistanceMeters>NAN</DistanceMeters>
          </Trackpoint>
          <Trackpoint>
            <Time>2019-10-09T13:12:42.000Z</Time>
            <Position>
              <LatitudeDegrees>38.43419180251657962799072265625</LatitudeDegrees>
              <LongitudeDegrees>-6.3900627382099628448486328125</LongitudeDegrees>
            </Position>
            <AltitudeMeters>552</AltitudeMeters>
            <DistanceMeters>NAN</DistanceMeters>
          </Trackpoint>
          <Trackpoint>
            <Time>2019-10-09T13:12:43.000Z</Time>
            <Position>
              <LatitudeDegrees>38.43415073119103908538818359375</LatitudeDegrees>
              <LongitudeDegrees>-6.39015317894518375396728515625</LongitudeDegrees>
            </Position>
            <AltitudeMeters>551.4000244140625</AltitudeMeters>
            <DistanceMeters>NAN</DistanceMeters>
          </Trackpoint>
          <Trackpoint>
            <Time>2019-10-09T13:12:48.000Z</Time>
            <Position>
              <LatitudeDegrees>38.4339132718741893768310546875</LatitudeDegrees>
              <LongitudeDegrees>-6.39060462825000286102294921875</LongitudeDegrees>
            </Position>
            <AltitudeMeters>550.5999755859375</AltitudeMeters>
            <DistanceMeters>NAN</DistanceMeters>
          </Trackpoint>
          <Trackpoint>
            <Time>2019-10-09T13:12:49.000Z</Time>
            <Position>
              <LatitudeDegrees>38.43385602347552776336669921875</LatitudeDegrees>
              <LongitudeDegrees>-6.39069330878555774688720703125</LongitudeDegrees>
            </Position>
            <AltitudeMeters>550</AltitudeMeters>
            <DistanceMeters>NAN</DistanceMeters>
          </Trackpoint>
          <Trackpoint>
            <Time>2019-10-09T13:12:50.000Z</Time>
            <Position>
              <LatitudeDegrees>38.43379609286785125732421875</LatitudeDegrees>
              <LongitudeDegrees>-6.39078333042562007904052734375</LongitudeDegrees>
            </Position>
            <AltitudeMeters>549</AltitudeMeters>
            <DistanceMeters>NAN</DistanceMeters>
          </Trackpoint>
          <Trackpoint>
            <Time>2019-10-09T13:12:51.000Z</Time>
            <Position>
              <LatitudeDegrees>38.43373616226017475128173828125</LatitudeDegrees>
              <LongitudeDegrees>-6.39087460935115814208984375</LongitudeDegrees>
            </Position>
            <AltitudeMeters>547.5999755859375</AltitudeMeters>
            <DistanceMeters>NAN</DistanceMeters>
          </Trackpoint>
          <Trackpoint>
            <Time>2019-10-09T13:12:52.000Z</Time>
            <Position>
              <LatitudeDegrees>38.43367463909089565277099609375</LatitudeDegrees>
              <LongitudeDegrees>-6.390966139733791351318359375</LongitudeDegrees>
            </Position>
            <AltitudeMeters>546.5999755859375</AltitudeMeters>
            <DistanceMeters>NAN</DistanceMeters>
          </Trackpoint>
          <Trackpoint>
            <Time>2019-10-09T13:12:54.000Z</Time>
            <Position>
              <LatitudeDegrees>38.43354455195367336273193359375</LatitudeDegrees>
              <LongitudeDegrees>-6.39115012250840663909912109375</LongitudeDegrees>
            </Position>
            <AltitudeMeters>546.20001220703125</AltitudeMeters>
            <DistanceMeters>NAN</DistanceMeters>
          </Trackpoint>
          <Trackpoint>
            <Time>2019-10-09T13:12:55.000Z</Time>
            <Position>
              <LatitudeDegrees>38.43347825109958648681640625</LatitudeDegrees>
              <LongitudeDegrees>-6.3912415690720081329345703125</LongitudeDegrees>
            </Position>
            <AltitudeMeters>546.20001220703125</AltitudeMeters>
            <DistanceMeters>NAN</DistanceMeters>
          </Trackpoint>
          <Trackpoint>
            <Time>2019-10-09T13:12:56.000Z</Time>
            <Position>
              <LatitudeDegrees>38.4334123693406581878662109375</LatitudeDegrees>
              <LongitudeDegrees>-6.39133553020656108856201171875</LongitudeDegrees>
            </Position>
            <AltitudeMeters>545.4000244140625</AltitudeMeters>
            <DistanceMeters>NAN</DistanceMeters>
          </Trackpoint>
          <Trackpoint>
            <Time>2019-10-09T13:12:57.000Z</Time>
            <Position>
              <LatitudeDegrees>38.43334690667688846588134765625</LatitudeDegrees>
              <LongitudeDegrees>-6.39143158681690692901611328125</LongitudeDegrees>
            </Position>
            <AltitudeMeters>545</AltitudeMeters>
            <DistanceMeters>NAN</DistanceMeters>
          </Trackpoint>
          <Trackpoint>
            <Time>2019-10-09T13:12:59.000Z</Time>
            <Position>
              <LatitudeDegrees>38.43321279622614383697509765625</LatitudeDegrees>
              <LongitudeDegrees>-6.3916268013417720794677734375</LongitudeDegrees>
            </Position>
            <AltitudeMeters>544.20001220703125</AltitudeMeters>
            <DistanceMeters>NAN</DistanceMeters>
          </Trackpoint>
          <Trackpoint>
            <Time>2019-10-09T13:13:00.000Z</Time>
            <Position>
              <LatitudeDegrees>38.43314565718173980712890625</LatitudeDegrees>
              <LongitudeDegrees>-6.3917277194559574127197265625</LongitudeDegrees>
            </Position>
            <AltitudeMeters>543.5999755859375</AltitudeMeters>
            <DistanceMeters>NAN</DistanceMeters>
          </Trackpoint>
          <Trackpoint>
            <Time>2019-10-09T13:13:01.000Z</Time>
            <Position>
              <LatitudeDegrees>38.43307784758508205413818359375</LatitudeDegrees>
              <LongitudeDegrees>-6.391829811036586761474609375</LongitudeDegrees>
            </Position>
            <AltitudeMeters>543.20001220703125</AltitudeMeters>
            <DistanceMeters>NAN</DistanceMeters>
          </Trackpoint>
          <Trackpoint>
            <Time>2019-10-09T13:13:02.000Z</Time>
            <Position>
              <LatitudeDegrees>38.4330068528652191162109375</LatitudeDegrees>
              <LongitudeDegrees>-6.3919312320649623870849609375</LongitudeDegrees>
            </Position>
            <AltitudeMeters>542.4000244140625</AltitudeMeters>
            <DistanceMeters>NAN</DistanceMeters>
          </Trackpoint>
          <Trackpoint>
            <Time>2019-10-09T13:13:03.000Z</Time>
            <Position>
              <LatitudeDegrees>38.432936780154705047607421875</LatitudeDegrees>
              <LongitudeDegrees>-6.39203541912138462066650390625</LongitudeDegrees>
            </Position>
            <AltitudeMeters>541.4000244140625</AltitudeMeters>
            <DistanceMeters>NAN</DistanceMeters>
          </Trackpoint>
          <Trackpoint>
            <Time>2019-10-09T13:13:04.000Z</Time>
            <Position>
              <LatitudeDegrees>38.43286897055804729461669921875</LatitudeDegrees>
              <LongitudeDegrees>-6.392141282558441162109375</LongitudeDegrees>
            </Position>
            <AltitudeMeters>540</AltitudeMeters>
            <DistanceMeters>NAN</DistanceMeters>
          </Trackpoint>
          <Trackpoint>
            <Time>2019-10-09T13:13:06.000Z</Time>
            <Position>
              <LatitudeDegrees>38.432738967239856719970703125</LatitudeDegrees>
              <LongitudeDegrees>-6.3923560269176959991455078125</LongitudeDegrees>
            </Position>
            <AltitudeMeters>538</AltitudeMeters>
            <DistanceMeters>NAN</DistanceMeters>
          </Trackpoint>
          <Trackpoint>
            <Time>2019-10-09T13:13:09.000Z</Time>
            <Position>
              <LatitudeDegrees>38.43256738968193531036376953125</LatitudeDegrees>
              <LongitudeDegrees>-6.39268702827394008636474609375</LongitudeDegrees>
            </Position>
            <AltitudeMeters>537.4000244140625</AltitudeMeters>
            <DistanceMeters>NAN</DistanceMeters>
          </Trackpoint>
          <Trackpoint>
            <Time>2019-10-09T13:13:13.000Z</Time>
            <Position>
              <LatitudeDegrees>38.432373516261577606201171875</LatitudeDegrees>
              <LongitudeDegrees>-6.3931524753570556640625</LongitudeDegrees>
            </Position>
            <AltitudeMeters>537</AltitudeMeters>
            <DistanceMeters>NAN</DistanceMeters>
          </Trackpoint>
          <Trackpoint>
            <Time>2019-10-09T13:13:15.000Z</Time>
            <Position>
              <LatitudeDegrees>38.4322938881814479827880859375</LatitudeDegrees>
              <LongitudeDegrees>-6.3933952152729034423828125</LongitudeDegrees>
            </Position>
            <AltitudeMeters>535.79998779296875</AltitudeMeters>
            <DistanceMeters>NAN</DistanceMeters>
          </Trackpoint>
          <Trackpoint>
            <Time>2019-10-09T13:13:18.000Z</Time>
            <Position>
              <LatitudeDegrees>38.43219883739948272705078125</LatitudeDegrees>
              <LongitudeDegrees>-6.393767707049846649169921875</LongitudeDegrees>
            </Position>
            <AltitudeMeters>534</AltitudeMeters>
            <DistanceMeters>NAN</DistanceMeters>
          </Trackpoint>
          <Trackpoint>
            <Time>2019-10-09T13:13:20.000Z</Time>
            <Position>
              <LatitudeDegrees>38.43214980326592922210693359375</LatitudeDegrees>
              <LongitudeDegrees>-6.39401405118405818939208984375</LongitudeDegrees>
            </Position>
            <AltitudeMeters>533</AltitudeMeters>
            <DistanceMeters>NAN</DistanceMeters>
          </Trackpoint>
          <Trackpoint>
            <Time>2019-10-09T13:13:24.000Z</Time>
            <Position>
              <LatitudeDegrees>38.43208744190633296966552734375</LatitudeDegrees>
              <LongitudeDegrees>-6.39449919573962688446044921875</LongitudeDegrees>
            </Position>
            <AltitudeMeters>532.5999755859375</AltitudeMeters>
            <DistanceMeters>NAN</DistanceMeters>
          </Trackpoint>
          <Trackpoint>
            <Time>2019-10-09T13:13:26.000Z</Time>
            <Position>
              <LatitudeDegrees>38.43206397257745265960693359375</LatitudeDegrees>
              <LongitudeDegrees>-6.394733972847461700439453125</LongitudeDegrees>
            </Position>
            <AltitudeMeters>532.20001220703125</AltitudeMeters>
            <DistanceMeters>NAN</DistanceMeters>
          </Trackpoint>
          <Trackpoint>
            <Time>2019-10-09T13:13:27.000Z</Time>
            <Position>
              <LatitudeDegrees>38.43205860815942287445068359375</LatitudeDegrees>
              <LongitudeDegrees>-6.39485073275864124298095703125</LongitudeDegrees>
            </Position>
            <AltitudeMeters>532</AltitudeMeters>
            <DistanceMeters>NAN</DistanceMeters>
          </Trackpoint>
          <Trackpoint>
            <Time>2019-10-09T13:13:29.000Z</Time>
            <Position>
              <LatitudeDegrees>38.43204461038112640380859375</LatitudeDegrees>
              <LongitudeDegrees>-6.39508165419101715087890625</LongitudeDegrees>
            </Position>
            <AltitudeMeters>531.4000244140625</AltitudeMeters>
            <DistanceMeters>NAN</DistanceMeters>
          </Trackpoint>
          <Trackpoint>
            <Time>2019-10-09T13:13:30.000Z</Time>
            <Position>
              <LatitudeDegrees>38.43203865922987461090087890625</LatitudeDegrees>
              <LongitudeDegrees>-6.395195312798023223876953125</LongitudeDegrees>
            </Position>
            <AltitudeMeters>530.79998779296875</AltitudeMeters>
            <DistanceMeters>NAN</DistanceMeters>
          </Trackpoint>
          <Trackpoint>
            <Time>2019-10-09T13:13:31.000Z</Time>
            <Position>
              <LatitudeDegrees>38.43203430064022541046142578125</LatitudeDegrees>
              <LongitudeDegrees>-6.3953074626624584197998046875</LongitudeDegrees>
            </Position>
            <AltitudeMeters>530.5999755859375</AltitudeMeters>
            <DistanceMeters>NAN</DistanceMeters>
          </Trackpoint>
          <Trackpoint>
            <Time>2019-10-09T13:13:32.000Z</Time>
            <Position>
              <LatitudeDegrees>38.432030864059925079345703125</LatitudeDegrees>
              <LongitudeDegrees>-6.3954184390604496002197265625</LongitudeDegrees>
            </Position>
            <AltitudeMeters>530.5999755859375</AltitudeMeters>
            <DistanceMeters>NAN</DistanceMeters>
          </Trackpoint>
          <Trackpoint>
            <Time>2019-10-09T13:13:38.000Z</Time>
            <Position>
              <LatitudeDegrees>38.4320142678916454315185546875</LatitudeDegrees>
              <LongitudeDegrees>-6.396054960787296295166015625</LongitudeDegrees>
            </Position>
            <AltitudeMeters>529.79998779296875</AltitudeMeters>
            <DistanceMeters>NAN</DistanceMeters>
          </Trackpoint>
          <Trackpoint>
            <Time>2019-10-09T13:13:42.000Z</Time>
            <Position>
              <LatitudeDegrees>38.43199792318046092987060546875</LatitudeDegrees>
              <LongitudeDegrees>-6.39646299183368682861328125</LongitudeDegrees>
            </Position>
            <AltitudeMeters>528.5999755859375</AltitudeMeters>
            <DistanceMeters>NAN</DistanceMeters>
          </Trackpoint>
          <Trackpoint>
            <Time>2019-10-09T13:13:44.000Z</Time>
            <Position>
              <LatitudeDegrees>38.431991301476955413818359375</LatitudeDegrees>
              <LongitudeDegrees>-6.39666474424302577972412109375</LongitudeDegrees>
            </Position>
            <AltitudeMeters>528.79998779296875</AltitudeMeters>
            <DistanceMeters>NAN</DistanceMeters>
          </Trackpoint>
          <Trackpoint>
            <Time>2019-10-09T13:13:46.000Z</Time>
            <Position>
              <LatitudeDegrees>38.43198585323989391326904296875</LatitudeDegrees>
              <LongitudeDegrees>-6.39686406590044498443603515625</LongitudeDegrees>
            </Position>
            <AltitudeMeters>529.5999755859375</AltitudeMeters>
            <DistanceMeters>NAN</DistanceMeters>
          </Trackpoint>
          <Trackpoint>
            <Time>2019-10-09T13:13:49.000Z</Time>
            <Position>
              <LatitudeDegrees>38.43197830952703952789306640625</LatitudeDegrees>
              <LongitudeDegrees>-6.397165395319461822509765625</LongitudeDegrees>
            </Position>
            <AltitudeMeters>528.20001220703125</AltitudeMeters>
            <DistanceMeters>NAN</DistanceMeters>
          </Trackpoint>
          <Trackpoint>
            <Time>2019-10-09T13:13:51.000Z</Time>
            <Position>
              <LatitudeDegrees>38.431969843804836273193359375</LatitudeDegrees>
              <LongitudeDegrees>-6.39736195094883441925048828125</LongitudeDegrees>
            </Position>
            <AltitudeMeters>527.4000244140625</AltitudeMeters>
            <DistanceMeters>NAN</DistanceMeters>
          </Trackpoint>
          <Trackpoint>
            <Time>2019-10-09T13:13:53.000Z</Time>
            <Position>
              <LatitudeDegrees>38.43196221627295017242431640625</LatitudeDegrees>
              <LongitudeDegrees>-6.3975541479885578155517578125</LongitudeDegrees>
            </Position>
            <AltitudeMeters>527.4000244140625</AltitudeMeters>
            <DistanceMeters>NAN</DistanceMeters>
          </Trackpoint>
          <Trackpoint>
            <Time>2019-10-09T13:13:56.000Z</Time>
            <Position>
              <LatitudeDegrees>38.43194696120917797088623046875</LatitudeDegrees>
              <LongitudeDegrees>-6.39784323982894420623779296875</LongitudeDegrees>
            </Position>
            <AltitudeMeters>527.5999755859375</AltitudeMeters>
            <DistanceMeters>NAN</DistanceMeters>
          </Trackpoint>
          <Trackpoint>
            <Time>2019-10-09T13:13:57.000Z</Time>
            <Position>
              <LatitudeDegrees>38.43194310553371906280517578125</LatitudeDegrees>
              <LongitudeDegrees>-6.39793946407735347747802734375</LongitudeDegrees>
            </Position>
            <AltitudeMeters>527.4000244140625</AltitudeMeters>
            <DistanceMeters>NAN</DistanceMeters>
          </Trackpoint>
          <Trackpoint>
            <Time>2019-10-09T13:13:59.000Z</Time>
            <Position>
              <LatitudeDegrees>38.4319371543824672698974609375</LatitudeDegrees>
              <LongitudeDegrees>-6.39813174493610858917236328125</LongitudeDegrees>
            </Position>
            <AltitudeMeters>527</AltitudeMeters>
            <DistanceMeters>NAN</DistanceMeters>
          </Trackpoint>
          <Trackpoint>
            <Time>2019-10-09T13:14:02.000Z</Time>
            <Position>
              <LatitudeDegrees>38.431925587356090545654296875</LatitudeDegrees>
              <LongitudeDegrees>-6.3984216749668121337890625</LongitudeDegrees>
            </Position>
            <AltitudeMeters>526.5999755859375</AltitudeMeters>
            <DistanceMeters>NAN</DistanceMeters>
          </Trackpoint>
          <Trackpoint>
            <Time>2019-10-09T13:14:03.000Z</Time>
            <Position>
              <LatitudeDegrees>38.43192047439515590667724609375</LatitudeDegrees>
              <LongitudeDegrees>-6.39851756393909454345703125</LongitudeDegrees>
            </Position>
            <AltitudeMeters>526.20001220703125</AltitudeMeters>
            <DistanceMeters>NAN</DistanceMeters>
          </Trackpoint>
          <Trackpoint>
            <Time>2019-10-09T13:14:06.000Z</Time>
            <Position>
              <LatitudeDegrees>38.43191309832036495208740234375</LatitudeDegrees>
              <LongitudeDegrees>-6.39880280010402202606201171875</LongitudeDegrees>
            </Position>
            <AltitudeMeters>525.5999755859375</AltitudeMeters>
            <DistanceMeters>NAN</DistanceMeters>
          </Trackpoint>
          <Trackpoint>
            <Time>2019-10-09T13:14:08.000Z</Time>
            <Position>
              <LatitudeDegrees>38.43190538696944713592529296875</LatitudeDegrees>
              <LongitudeDegrees>-6.3989956676959991455078125</LongitudeDegrees>
            </Position>
            <AltitudeMeters>525</AltitudeMeters>
            <DistanceMeters>NAN</DistanceMeters>
          </Trackpoint>
          <Trackpoint>
            <Time>2019-10-09T13:14:09.000Z</Time>
            <Position>
              <LatitudeDegrees>38.43190270476043224334716796875</LatitudeDegrees>
              <LongitudeDegrees>-6.399092562496662139892578125</LongitudeDegrees>
            </Position>
            <AltitudeMeters>524.79998779296875</AltitudeMeters>
            <DistanceMeters>NAN</DistanceMeters>
          </Trackpoint>
          <Trackpoint>
            <Time>2019-10-09T13:14:11.000Z</Time>
            <Position>
              <LatitudeDegrees>38.43189784325659275054931640625</LatitudeDegrees>
              <LongitudeDegrees>-6.39928425662219524383544921875</LongitudeDegrees>
            </Position>
            <AltitudeMeters>523.5999755859375</AltitudeMeters>
            <DistanceMeters>NAN</DistanceMeters>
          </Trackpoint>
          <Trackpoint>
            <Time>2019-10-09T13:14:13.000Z</Time>
            <Position>
              <LatitudeDegrees>38.43189164064824581146240234375</LatitudeDegrees>
              <LongitudeDegrees>-6.39947318471968173980712890625</LongitudeDegrees>
            </Position>
            <AltitudeMeters>522.20001220703125</AltitudeMeters>
            <DistanceMeters>NAN</DistanceMeters>
          </Trackpoint>
          <Trackpoint>
            <Time>2019-10-09T13:14:16.000Z</Time>
            <Position>
              <LatitudeDegrees>38.43188711442053318023681640625</LatitudeDegrees>
              <LongitudeDegrees>-6.3997512124478816986083984375</LongitudeDegrees>
            </Position>
            <AltitudeMeters>523.4000244140625</AltitudeMeters>
            <DistanceMeters>NAN</DistanceMeters>
          </Trackpoint>
          <Trackpoint>
            <Time>2019-10-09T13:14:20.000Z</Time>
            <Position>
              <LatitudeDegrees>38.43187370337545871734619140625</LatitudeDegrees>
              <LongitudeDegrees>-6.400109790265560150146484375</LongitudeDegrees>
            </Position>
            <AltitudeMeters>522.20001220703125</AltitudeMeters>
            <DistanceMeters>NAN</DistanceMeters>
          </Trackpoint>
          <Trackpoint>
            <Time>2019-10-09T13:14:21.000Z</Time>
            <Position>
              <LatitudeDegrees>38.4318667463958263397216796875</LatitudeDegrees>
              <LongitudeDegrees>-6.40019905753433704376220703125</LongitudeDegrees>
            </Position>
            <AltitudeMeters>521.5999755859375</AltitudeMeters>
            <DistanceMeters>NAN</DistanceMeters>
          </Trackpoint>
          <Trackpoint>
            <Time>2019-10-09T13:14:23.000Z</Time>
            <Position>
              <LatitudeDegrees>38.43185551464557647705078125</LatitudeDegrees>
              <LongitudeDegrees>-6.40036837197840213775634765625</LongitudeDegrees>
            </Position>
            <AltitudeMeters>521</AltitudeMeters>
            <DistanceMeters>NAN</DistanceMeters>
          </Trackpoint>
          <Trackpoint>
            <Time>2019-10-09T13:14:26.000Z</Time>
            <Position>
              <LatitudeDegrees>38.43183648772537708282470703125</LatitudeDegrees>
              <LongitudeDegrees>-6.40061563812196254730224609375</LongitudeDegrees>
            </Position>
            <AltitudeMeters>521.20001220703125</AltitudeMeters>
            <DistanceMeters>NAN</DistanceMeters>
          </Trackpoint>
          <Trackpoint>
            <Time>2019-10-09T13:14:27.000Z</Time>
            <Position>
              <LatitudeDegrees>38.43182642944157123565673828125</LatitudeDegrees>
              <LongitudeDegrees>-6.40069794841110706329345703125</LongitudeDegrees>
            </Position>
            <AltitudeMeters>521</AltitudeMeters>
            <DistanceMeters>NAN</DistanceMeters>
          </Trackpoint>
          <Trackpoint>
            <Time>2019-10-09T13:14:30.000Z</Time>
            <Position>
              <LatitudeDegrees>38.4317960031330585479736328125</LatitudeDegrees>
              <LongitudeDegrees>-6.400933898985385894775390625</LongitudeDegrees>
            </Position>
            <AltitudeMeters>520</AltitudeMeters>
            <DistanceMeters>NAN</DistanceMeters>
          </Trackpoint>
          <Trackpoint>
            <Time>2019-10-09T13:14:31.000Z</Time>
            <Position>
              <LatitudeDegrees>38.43178468756377696990966796875</LatitudeDegrees>
              <LongitudeDegrees>-6.401013694703578948974609375</LongitudeDegrees>
            </Position>
            <AltitudeMeters>520.4000244140625</AltitudeMeters>
            <DistanceMeters>NAN</DistanceMeters>
          </Trackpoint>
          <Trackpoint>
            <Time>2019-10-09T13:14:33.000Z</Time>
            <Position>
              <LatitudeDegrees>38.4317624755203723907470703125</LatitudeDegrees>
              <LongitudeDegrees>-6.401169933378696441650390625</LongitudeDegrees>
            </Position>
            <AltitudeMeters>520.4000244140625</AltitudeMeters>
            <DistanceMeters>NAN</DistanceMeters>
          </Trackpoint>
          <Trackpoint>
            <Time>2019-10-09T13:14:35.000Z</Time>
            <Position>
              <LatitudeDegrees>38.43173674307763576507568359375</LatitudeDegrees>
              <LongitudeDegrees>-6.401324830949306488037109375</LongitudeDegrees>
            </Position>
            <AltitudeMeters>520.20001220703125</AltitudeMeters>
            <DistanceMeters>NAN</DistanceMeters>
          </Trackpoint>
          <Trackpoint>
            <Time>2019-10-09T13:14:36.000Z</Time>
            <Position>
              <LatitudeDegrees>38.431721739470958709716796875</LatitudeDegrees>
              <LongitudeDegrees>-6.40140253119170665740966796875</LongitudeDegrees>
            </Position>
            <AltitudeMeters>519.79998779296875</AltitudeMeters>
            <DistanceMeters>NAN</DistanceMeters>
          </Trackpoint>
          <Trackpoint>
            <Time>2019-10-09T13:14:38.000Z</Time>
            <Position>
              <LatitudeDegrees>38.43169047497212886810302734375</LatitudeDegrees>
              <LongitudeDegrees>-6.40155608765780925750732421875</LongitudeDegrees>
            </Position>
            <AltitudeMeters>518.79998779296875</AltitudeMeters>
            <DistanceMeters>NAN</DistanceMeters>
          </Trackpoint>
          <Trackpoint>
            <Time>2019-10-09T13:14:41.000Z</Time>
            <Position>
              <LatitudeDegrees>38.43164227902889251708984375</LatitudeDegrees>
              <LongitudeDegrees>-6.401786506175994873046875</LongitudeDegrees>
            </Position>
            <AltitudeMeters>519.5999755859375</AltitudeMeters>
            <DistanceMeters>NAN</DistanceMeters>
          </Trackpoint>
          <Trackpoint>
            <Time>2019-10-09T13:14:43.000Z</Time>
            <Position>
              <LatitudeDegrees>38.4316062368452548980712890625</LatitudeDegrees>
              <LongitudeDegrees>-6.40193981118500232696533203125</LongitudeDegrees>
            </Position>
            <AltitudeMeters>519.20001220703125</AltitudeMeters>
            <DistanceMeters>NAN</DistanceMeters>
          </Trackpoint>
          <Trackpoint>
            <Time>2019-10-09T13:14:46.000Z</Time>
            <Position>
              <LatitudeDegrees>38.431544713675975799560546875</LatitudeDegrees>
              <LongitudeDegrees>-6.4021660387516021728515625</LongitudeDegrees>
            </Position>
            <AltitudeMeters>518</AltitudeMeters>
            <DistanceMeters>NAN</DistanceMeters>
          </Trackpoint>
          <Trackpoint>
            <Time>2019-10-09T13:14:47.000Z</Time>
            <Position>
              <LatitudeDegrees>38.4315210767090320587158203125</LatitudeDegrees>
              <LongitudeDegrees>-6.4022416435182094573974609375</LongitudeDegrees>
            </Position>
            <AltitudeMeters>517.79998779296875</AltitudeMeters>
            <DistanceMeters>NAN</DistanceMeters>
          </Trackpoint>
          <Trackpoint>
            <Time>2019-10-09T13:14:49.000Z</Time>
            <Position>
              <LatitudeDegrees>38.43147237785160541534423828125</LatitudeDegrees>
              <LongitudeDegrees>-6.4023908413946628570556640625</LongitudeDegrees>
            </Position>
            <AltitudeMeters>518</AltitudeMeters>
            <DistanceMeters>NAN</DistanceMeters>
          </Trackpoint>
          <Trackpoint>
            <Time>2019-10-09T13:14:50.000Z</Time>
            <Position>
              <LatitudeDegrees>38.43144488520920276641845703125</LatitudeDegrees>
              <LongitudeDegrees>-6.40246401540935039520263671875</LongitudeDegrees>
            </Position>
            <AltitudeMeters>517.5999755859375</AltitudeMeters>
            <DistanceMeters>NAN</DistanceMeters>
          </Trackpoint>
          <Trackpoint>
            <Time>2019-10-09T13:14:52.000Z</Time>
            <Position>
              <LatitudeDegrees>38.43139350414276123046875</LatitudeDegrees>
              <LongitudeDegrees>-6.40261388383805751800537109375</LongitudeDegrees>
            </Position>
            <AltitudeMeters>517</AltitudeMeters>
            <DistanceMeters>NAN</DistanceMeters>
          </Trackpoint>
          <Trackpoint>
            <Time>2019-10-09T13:14:54.000Z</Time>
            <Position>
              <LatitudeDegrees>38.4313403628766536712646484375</LatitudeDegrees>
              <LongitudeDegrees>-6.4027666859328746795654296875</LongitudeDegrees>
            </Position>
            <AltitudeMeters>516.79998779296875</AltitudeMeters>
            <DistanceMeters>NAN</DistanceMeters>
          </Trackpoint>
          <Trackpoint>
            <Time>2019-10-09T13:14:55.000Z</Time>
            <Position>
              <LatitudeDegrees>38.43131094239652156829833984375</LatitudeDegrees>
              <LongitudeDegrees>-6.4028404466807842254638671875</LongitudeDegrees>
            </Position>
            <AltitudeMeters>516.5999755859375</AltitudeMeters>
            <DistanceMeters>NAN</DistanceMeters>
          </Trackpoint>
          <Trackpoint>
            <Time>2019-10-09T13:14:56.000Z</Time>
            <Position>
              <LatitudeDegrees>38.4312800131738185882568359375</LatitudeDegrees>
              <LongitudeDegrees>-6.40291462652385234832763671875</LongitudeDegrees>
            </Position>
            <AltitudeMeters>516.4000244140625</AltitudeMeters>
            <DistanceMeters>NAN</DistanceMeters>
          </Trackpoint>
          <Trackpoint>
            <Time>2019-10-09T13:14:58.000Z</Time>
            <Position>
              <LatitudeDegrees>38.43121714890003204345703125</LatitudeDegrees>
              <LongitudeDegrees>-6.403068266808986663818359375</LongitudeDegrees>
            </Position>
            <AltitudeMeters>516.79998779296875</AltitudeMeters>
            <DistanceMeters>NAN</DistanceMeters>
          </Trackpoint>
          <Trackpoint>
            <Time>2019-10-09T13:15:04.000Z</Time>
            <Position>
              <LatitudeDegrees>38.43100047670304775238037109375</LatitudeDegrees>
              <LongitudeDegrees>-6.403523571789264678955078125</LongitudeDegrees>
            </Position>
            <AltitudeMeters>515.20001220703125</AltitudeMeters>
            <DistanceMeters>NAN</DistanceMeters>
          </Trackpoint>
          <Trackpoint>
            <Time>2019-10-09T13:15:06.000Z</Time>
            <Position>
              <LatitudeDegrees>38.43092168681323528289794921875</LatitudeDegrees>
              <LongitudeDegrees>-6.40367302112281322479248046875</LongitudeDegrees>
            </Position>
            <AltitudeMeters>515</AltitudeMeters>
            <DistanceMeters>NAN</DistanceMeters>
          </Trackpoint>
          <Trackpoint>
            <Time>2019-10-09T13:15:09.000Z</Time>
            <Position>
              <LatitudeDegrees>38.43079545535147190093994140625</LatitudeDegrees>
              <LongitudeDegrees>-6.4038952253758907318115234375</LongitudeDegrees>
            </Position>
            <AltitudeMeters>514.4000244140625</AltitudeMeters>
            <DistanceMeters>NAN</DistanceMeters>
          </Trackpoint>
          <Trackpoint>
            <Time>2019-10-09T13:15:10.000Z</Time>
            <Position>
              <LatitudeDegrees>38.430752120912075042724609375</LatitudeDegrees>
              <LongitudeDegrees>-6.40396915376186370849609375</LongitudeDegrees>
            </Position>
            <AltitudeMeters>514.20001220703125</AltitudeMeters>
            <DistanceMeters>NAN</DistanceMeters>
          </Trackpoint>
          <Trackpoint>
            <Time>2019-10-09T13:15:14.000Z</Time>
            <Position>
              <LatitudeDegrees>38.43056025914847850799560546875</LatitudeDegrees>
              <LongitudeDegrees>-6.4042616821825504302978515625</LongitudeDegrees>
            </Position>
            <AltitudeMeters>513</AltitudeMeters>
            <DistanceMeters>NAN</DistanceMeters>
          </Trackpoint>
          <Trackpoint>
            <Time>2019-10-09T13:15:18.000Z</Time>
            <Position>
              <LatitudeDegrees>38.43035138212144374847412109375</LatitudeDegrees>
              <LongitudeDegrees>-6.40454339794814586639404296875</LongitudeDegrees>
            </Position>
            <AltitudeMeters>512</AltitudeMeters>
            <DistanceMeters>NAN</DistanceMeters>
          </Trackpoint>
          <Trackpoint>
            <Time>2019-10-09T13:15:20.000Z</Time>
            <Position>
              <LatitudeDegrees>38.4302468597888946533203125</LatitudeDegrees>
              <LongitudeDegrees>-6.40467725694179534912109375</LongitudeDegrees>
            </Position>
            <AltitudeMeters>511.79998779296875</AltitudeMeters>
            <DistanceMeters>NAN</DistanceMeters>
          </Trackpoint>
          <Trackpoint>
            <Time>2019-10-09T13:15:22.000Z</Time>
            <Position>
              <LatitudeDegrees>38.4301414154469966888427734375</LatitudeDegrees>
              <LongitudeDegrees>-6.40480868518352508544921875</LongitudeDegrees>
            </Position>
            <AltitudeMeters>511.600006103515625</AltitudeMeters>
            <DistanceMeters>NAN</DistanceMeters>
          </Trackpoint>
          <Trackpoint>
            <Time>2019-10-09T13:15:25.000Z</Time>
            <Position>
              <LatitudeDegrees>38.4299813210964202880859375</LatitudeDegrees>
              <LongitudeDegrees>-6.40499803237617015838623046875</LongitudeDegrees>
            </Position>
            <AltitudeMeters>510.600006103515625</AltitudeMeters>
            <DistanceMeters>NAN</DistanceMeters>
          </Trackpoint>
          <Trackpoint>
            <Time>2019-10-09T13:15:28.000Z</Time>
            <Position>
              <LatitudeDegrees>38.42982332222163677215576171875</LatitudeDegrees>
              <LongitudeDegrees>-6.4051862061023712158203125</LongitudeDegrees>
            </Position>
            <AltitudeMeters>511.79998779296875</AltitudeMeters>
            <DistanceMeters>NAN</DistanceMeters>
          </Trackpoint>
          <Trackpoint>
            <Time>2019-10-09T13:15:30.000Z</Time>
            <Position>
              <LatitudeDegrees>38.4297169558703899383544921875</LatitudeDegrees>
              <LongitudeDegrees>-6.40531386248767375946044921875</LongitudeDegrees>
            </Position>
            <AltitudeMeters>510.399993896484375</AltitudeMeters>
            <DistanceMeters>NAN</DistanceMeters>
          </Trackpoint>
          <Trackpoint>
            <Time>2019-10-09T13:15:32.000Z</Time>
            <Position>
              <LatitudeDegrees>38.4296106733381748199462890625</LatitudeDegrees>
              <LongitudeDegrees>-6.40543975867331027984619140625</LongitudeDegrees>
            </Position>
            <AltitudeMeters>511</AltitudeMeters>
            <DistanceMeters>NAN</DistanceMeters>
          </Trackpoint>
          <Trackpoint>
            <Time>2019-10-09T13:15:33.000Z</Time>
            <Position>
              <LatitudeDegrees>38.4295587055385112762451171875</LatitudeDegrees>
              <LongitudeDegrees>-6.40550337731838226318359375</LongitudeDegrees>
            </Position>
            <AltitudeMeters>510.399993896484375</AltitudeMeters>
            <DistanceMeters>NAN</DistanceMeters>
          </Trackpoint>
          <Trackpoint>
            <Time>2019-10-09T13:15:34.000Z</Time>
            <Position>
              <LatitudeDegrees>38.4295057319104671478271484375</LatitudeDegrees>
              <LongitudeDegrees>-6.4055682532489299774169921875</LongitudeDegrees>
            </Position>
            <AltitudeMeters>510.399993896484375</AltitudeMeters>
            <DistanceMeters>NAN</DistanceMeters>
          </Trackpoint>
          <Trackpoint>
            <Time>2019-10-09T13:15:35.000Z</Time>
            <Position>
              <LatitudeDegrees>38.42945485375821590423583984375</LatitudeDegrees>
              <LongitudeDegrees>-6.405632793903350830078125</LongitudeDegrees>
            </Position>
            <AltitudeMeters>510.79998779296875</AltitudeMeters>
            <DistanceMeters>NAN</DistanceMeters>
          </Trackpoint>
          <Trackpoint>
            <Time>2019-10-09T13:15:37.000Z</Time>
            <Position>
              <LatitudeDegrees>38.42934672720730304718017578125</LatitudeDegrees>
              <LongitudeDegrees>-6.405761204659938812255859375</LongitudeDegrees>
            </Position>
            <AltitudeMeters>510.20001220703125</AltitudeMeters>
            <DistanceMeters>NAN</DistanceMeters>
          </Trackpoint>
          <Trackpoint>
            <Time>2019-10-09T13:15:39.000Z</Time>
            <Position>
              <LatitudeDegrees>38.429240025579929351806640625</LatitudeDegrees>
              <LongitudeDegrees>-6.405891962349414825439453125</LongitudeDegrees>
            </Position>
            <AltitudeMeters>509.79998779296875</AltitudeMeters>
            <DistanceMeters>NAN</DistanceMeters>
          </Trackpoint>
          <Trackpoint>
            <Time>2019-10-09T13:15:41.000Z</Time>
            <Position>
              <LatitudeDegrees>38.42913650907576084136962890625</LatitudeDegrees>
              <LongitudeDegrees>-6.40601693652570247650146484375</LongitudeDegrees>
            </Position>
            <AltitudeMeters>509</AltitudeMeters>
            <DistanceMeters>NAN</DistanceMeters>
          </Trackpoint>
          <Trackpoint>
            <Time>2019-10-09T13:15:43.000Z</Time>
            <Position>
              <LatitudeDegrees>38.429035507142543792724609375</LatitudeDegrees>
              <LongitudeDegrees>-6.406134031713008880615234375</LongitudeDegrees>
            </Position>
            <AltitudeMeters>508.600006103515625</AltitudeMeters>
            <DistanceMeters>NAN</DistanceMeters>
          </Trackpoint>
          <Trackpoint>
            <Time>2019-10-09T13:15:48.000Z</Time>
            <Position>
              <LatitudeDegrees>38.4287889115512371063232421875</LatitudeDegrees>
              <LongitudeDegrees>-6.40642379410564899444580078125</LongitudeDegrees>
            </Position>
            <AltitudeMeters>508.399993896484375</AltitudeMeters>
            <DistanceMeters>NAN</DistanceMeters>
          </Trackpoint>
          <Trackpoint>
            <Time>2019-10-09T13:15:54.000Z</Time>
            <Position>
              <LatitudeDegrees>38.42848121188580989837646484375</LatitudeDegrees>
              <LongitudeDegrees>-6.40678354538977146148681640625</LongitudeDegrees>
            </Position>
            <AltitudeMeters>507.79998779296875</AltitudeMeters>
            <DistanceMeters>NAN</DistanceMeters>
          </Trackpoint>
          <Trackpoint>
            <Time>2019-10-09T13:15:55.000Z</Time>
            <Position>
              <LatitudeDegrees>38.42843075282871723175048828125</LatitudeDegrees>
              <LongitudeDegrees>-6.406843475997447967529296875</LongitudeDegrees>
            </Position>
            <AltitudeMeters>508</AltitudeMeters>
            <DistanceMeters>NAN</DistanceMeters>
          </Trackpoint>
          <Trackpoint>
            <Time>2019-10-09T13:16:01.000Z</Time>
            <Position>
              <LatitudeDegrees>38.42812632210552692413330078125</LatitudeDegrees>
              <LongitudeDegrees>-6.407203562557697296142578125</LongitudeDegrees>
            </Position>
            <AltitudeMeters>506.79998779296875</AltitudeMeters>
            <DistanceMeters>NAN</DistanceMeters>
          </Trackpoint>
          <Trackpoint>
            <Time>2019-10-09T13:16:02.000Z</Time>
            <Position>
              <LatitudeDegrees>38.4280794672667980194091796875</LatitudeDegrees>
              <LongitudeDegrees>-6.407266594469547271728515625</LongitudeDegrees>
            </Position>
            <AltitudeMeters>506.600006103515625</AltitudeMeters>
            <DistanceMeters>NAN</DistanceMeters>
          </Trackpoint>
          <Trackpoint>
            <Time>2019-10-09T13:16:06.000Z</Time>
            <Position>
              <LatitudeDegrees>38.42787872068583965301513671875</LatitudeDegrees>
              <LongitudeDegrees>-6.40750388614833354949951171875</LongitudeDegrees>
            </Position>
            <AltitudeMeters>506.399993896484375</AltitudeMeters>
            <DistanceMeters>NAN</DistanceMeters>
          </Trackpoint>
          <Trackpoint>
            <Time>2019-10-09T13:16:08.000Z</Time>
            <Position>
              <LatitudeDegrees>38.427777551114559173583984375</LatitudeDegrees>
              <LongitudeDegrees>-6.40762374736368656158447265625</LongitudeDegrees>
            </Position>
            <AltitudeMeters>505.20001220703125</AltitudeMeters>
            <DistanceMeters>NAN</DistanceMeters>
          </Trackpoint>
          <Trackpoint>
            <Time>2019-10-09T13:16:09.000Z</Time>
            <Position>
              <LatitudeDegrees>38.42772717587649822235107421875</LatitudeDegrees>
              <LongitudeDegrees>-6.40768409706652164459228515625</LongitudeDegrees>
            </Position>
            <AltitudeMeters>504.79998779296875</AltitudeMeters>
            <DistanceMeters>NAN</DistanceMeters>
          </Trackpoint>
          <Trackpoint>
            <Time>2019-10-09T13:16:10.000Z</Time>
            <Position>
              <LatitudeDegrees>38.42767923139035701751708984375</LatitudeDegrees>
              <LongitudeDegrees>-6.4077475480735301971435546875</LongitudeDegrees>
            </Position>
            <AltitudeMeters>504.600006103515625</AltitudeMeters>
            <DistanceMeters>NAN</DistanceMeters>
          </Trackpoint>
          <Trackpoint>
            <Time>2019-10-09T13:16:12.000Z</Time>
            <Position>
              <LatitudeDegrees>38.42757739126682281494140625</LatitudeDegrees>
              <LongitudeDegrees>-6.40787017531692981719970703125</LongitudeDegrees>
            </Position>
            <AltitudeMeters>505</AltitudeMeters>
            <DistanceMeters>NAN</DistanceMeters>
          </Trackpoint>
          <Trackpoint>
            <Time>2019-10-09T13:16:14.000Z</Time>
            <Position>
              <LatitudeDegrees>38.42747990973293781280517578125</LatitudeDegrees>
              <LongitudeDegrees>-6.4079892821609973907470703125</LongitudeDegrees>
            </Position>
            <AltitudeMeters>505</AltitudeMeters>
            <DistanceMeters>NAN</DistanceMeters>
          </Trackpoint>
          <Trackpoint>
            <Time>2019-10-09T13:16:19.000Z</Time>
            <Position>
              <LatitudeDegrees>38.42723943293094635009765625</LatitudeDegrees>
              <LongitudeDegrees>-6.40827954746782779693603515625</LongitudeDegrees>
            </Position>
            <AltitudeMeters>504.399993896484375</AltitudeMeters>
            <DistanceMeters>NAN</DistanceMeters>
          </Trackpoint>
          <Trackpoint>
            <Time>2019-10-09T13:16:21.000Z</Time>
            <Position>
              <LatitudeDegrees>38.4271530993282794952392578125</LatitudeDegrees>
              <LongitudeDegrees>-6.40837660990655422210693359375</LongitudeDegrees>
            </Position>
            <AltitudeMeters>504.600006103515625</AltitudeMeters>
            <DistanceMeters>NAN</DistanceMeters>
          </Trackpoint>
          <Trackpoint>
            <Time>2019-10-09T13:16:23.000Z</Time>
            <Position>
              <LatitudeDegrees>38.4270877204835414886474609375</LatitudeDegrees>
              <LongitudeDegrees>-6.4084638655185699462890625</LongitudeDegrees>
            </Position>
            <AltitudeMeters>504.20001220703125</AltitudeMeters>
            <DistanceMeters>NAN</DistanceMeters>
          </Trackpoint>
          <Trackpoint>
            <Time>2019-10-09T13:16:26.000Z</Time>
            <Position>
              <LatitudeDegrees>38.4269965253770351409912109375</LatitudeDegrees>
              <LongitudeDegrees>-6.40858029015362262725830078125</LongitudeDegrees>
            </Position>
            <AltitudeMeters>504.20001220703125</AltitudeMeters>
            <DistanceMeters>NAN</DistanceMeters>
          </Trackpoint>
          <Trackpoint>
            <Time>2019-10-09T13:16:28.000Z</Time>
            <Position>
              <LatitudeDegrees>38.42692963778972625732421875</LatitudeDegrees>
              <LongitudeDegrees>-6.4086601696908473968505859375</LongitudeDegrees>
            </Position>
            <AltitudeMeters>504.20001220703125</AltitudeMeters>
            <DistanceMeters>NAN</DistanceMeters>
          </Trackpoint>
          <Trackpoint>
            <Time>2019-10-09T13:16:31.000Z</Time>
            <Position>
              <LatitudeDegrees>38.4268298931419849395751953125</LatitudeDegrees>
              <LongitudeDegrees>-6.40878371894359588623046875</LongitudeDegrees>
            </Position>
            <AltitudeMeters>504</AltitudeMeters>
            <DistanceMeters>NAN</DistanceMeters>
          </Trackpoint>
          <Trackpoint>
            <Time>2019-10-09T13:16:32.000Z</Time>
            <Position>
              <LatitudeDegrees>38.42679393477737903594970703125</LatitudeDegrees>
              <LongitudeDegrees>-6.40882889740169048309326171875</LongitudeDegrees>
            </Position>
            <AltitudeMeters>503.79998779296875</AltitudeMeters>
            <DistanceMeters>NAN</DistanceMeters>
          </Trackpoint>
          <Trackpoint>
            <Time>2019-10-09T13:16:38.000Z</Time>
            <Position>
              <LatitudeDegrees>38.4265613369643688201904296875</LatitudeDegrees>
              <LongitudeDegrees>-6.40910918824374675750732421875</LongitudeDegrees>
            </Position>
            <AltitudeMeters>503.20001220703125</AltitudeMeters>
            <DistanceMeters>NAN</DistanceMeters>
          </Trackpoint>
          <Trackpoint>
            <Time>2019-10-09T13:16:40.000Z</Time>
            <Position>
              <LatitudeDegrees>38.42647575773298740386962890625</LatitudeDegrees>
              <LongitudeDegrees>-6.40920055098831653594970703125</LongitudeDegrees>
            </Position>
            <AltitudeMeters>503.20001220703125</AltitudeMeters>
            <DistanceMeters>NAN</DistanceMeters>
          </Trackpoint>
          <Trackpoint>
            <Time>2019-10-09T13:16:41.000Z</Time>
            <Position>
              <LatitudeDegrees>38.42643384821712970733642578125</LatitudeDegrees>
              <LongitudeDegrees>-6.40924832783639430999755859375</LongitudeDegrees>
            </Position>
            <AltitudeMeters>503.20001220703125</AltitudeMeters>
            <DistanceMeters>NAN</DistanceMeters>
          </Trackpoint>
          <Trackpoint>
            <Time>2019-10-09T13:16:43.000Z</Time>
            <Position>
              <LatitudeDegrees>38.42635019682347774505615234375</LatitudeDegrees>
              <LongitudeDegrees>-6.40935058705508708953857421875</LongitudeDegrees>
            </Position>
            <AltitudeMeters>502.79998779296875</AltitudeMeters>
            <DistanceMeters>NAN</DistanceMeters>
          </Trackpoint>
          <Trackpoint>
            <Time>2019-10-09T13:16:44.000Z</Time>
            <Position>
              <LatitudeDegrees>38.42630761675536632537841796875</LatitudeDegrees>
              <LongitudeDegrees>-6.4094024710357189178466796875</LongitudeDegrees>
            </Position>
            <AltitudeMeters>502.399993896484375</AltitudeMeters>
            <DistanceMeters>NAN</DistanceMeters>
          </Trackpoint>
          <Trackpoint>
            <Time>2019-10-09T13:16:46.000Z</Time>
            <Position>
              <LatitudeDegrees>38.42621776275336742401123046875</LatitudeDegrees>
              <LongitudeDegrees>-6.40950431115925312042236328125</LongitudeDegrees>
            </Position>
            <AltitudeMeters>502</AltitudeMeters>
            <DistanceMeters>NAN</DistanceMeters>
          </Trackpoint>
          <Trackpoint>
            <Time>2019-10-09T13:16:47.000Z</Time>
            <Position>
              <LatitudeDegrees>38.42617484740912914276123046875</LatitudeDegrees>
              <LongitudeDegrees>-6.4095550216734409332275390625</LongitudeDegrees>
            </Position>
            <AltitudeMeters>502</AltitudeMeters>
            <DistanceMeters>NAN</DistanceMeters>
          </Trackpoint>
          <Trackpoint>
            <Time>2019-10-09T13:16:50.000Z</Time>
            <Position>
              <LatitudeDegrees>38.42604626901447772979736328125</LatitudeDegrees>
              <LongitudeDegrees>-6.409710086882114410400390625</LongitudeDegrees>
            </Position>
            <AltitudeMeters>501.399993896484375</AltitudeMeters>
            <DistanceMeters>NAN</DistanceMeters>
          </Trackpoint>
          <Trackpoint>
            <Time>2019-10-09T13:16:53.000Z</Time>
            <Position>
              <LatitudeDegrees>38.42591081745922565460205078125</LatitudeDegrees>
              <LongitudeDegrees>-6.40986640937626361846923828125</LongitudeDegrees>
            </Position>
            <AltitudeMeters>501.20001220703125</AltitudeMeters>
            <DistanceMeters>NAN</DistanceMeters>
          </Trackpoint>
          <Trackpoint>
            <Time>2019-10-09T13:16:54.000Z</Time>
            <Position>
              <LatitudeDegrees>38.4258659742772579193115234375</LatitudeDegrees>
              <LongitudeDegrees>-6.4099174551665782928466796875</LongitudeDegrees>
            </Position>
            <AltitudeMeters>501</AltitudeMeters>
            <DistanceMeters>NAN</DistanceMeters>
          </Trackpoint>
          <Trackpoint>
            <Time>2019-10-09T13:16:55.000Z</Time>
            <Position>
              <LatitudeDegrees>38.42582079581916332244873046875</LatitudeDegrees>
              <LongitudeDegrees>-6.4099700935184955596923828125</LongitudeDegrees>
            </Position>
            <AltitudeMeters>500.600006103515625</AltitudeMeters>
            <DistanceMeters>NAN</DistanceMeters>
          </Trackpoint>
          <Trackpoint>
            <Time>2019-10-09T13:16:56.000Z</Time>
            <Position>
              <LatitudeDegrees>38.425775952637195587158203125</LatitudeDegrees>
              <LongitudeDegrees>-6.41002281568944454193115234375</LongitudeDegrees>
            </Position>
            <AltitudeMeters>500.399993896484375</AltitudeMeters>
            <DistanceMeters>NAN</DistanceMeters>
          </Trackpoint>
          <Trackpoint>
            <Time>2019-10-09T13:16:58.000Z</Time>
            <Position>
              <LatitudeDegrees>38.42569137923419475555419921875</LatitudeDegrees>
              <LongitudeDegrees>-6.4101280085742473602294921875</LongitudeDegrees>
            </Position>
            <AltitudeMeters>500.20001220703125</AltitudeMeters>
            <DistanceMeters>NAN</DistanceMeters>
          </Trackpoint>
          <Trackpoint>
            <Time>2019-10-09T13:17:02.000Z</Time>
            <Position>
              <LatitudeDegrees>38.42551586218178272247314453125</LatitudeDegrees>
              <LongitudeDegrees>-6.41033814288675785064697265625</LongitudeDegrees>
            </Position>
            <AltitudeMeters>500.399993896484375</AltitudeMeters>
            <DistanceMeters>NAN</DistanceMeters>
          </Trackpoint>
          <Trackpoint>
            <Time>2019-10-09T13:17:03.000Z</Time>
            <Position>
              <LatitudeDegrees>38.42547185719013214111328125</LatitudeDegrees>
              <LongitudeDegrees>-6.4103908650577068328857421875</LongitudeDegrees>
            </Position>
            <AltitudeMeters>500</AltitudeMeters>
            <DistanceMeters>NAN</DistanceMeters>
          </Trackpoint>
          <Trackpoint>
            <Time>2019-10-09T13:17:09.000Z</Time>
            <Position>
              <LatitudeDegrees>38.42520623467862606048583984375</LatitudeDegrees>
              <LongitudeDegrees>-6.4107335172593593597412109375</LongitudeDegrees>
            </Position>
            <AltitudeMeters>498.79998779296875</AltitudeMeters>
            <DistanceMeters>NAN</DistanceMeters>
          </Trackpoint>
          <Trackpoint>
            <Time>2019-10-09T13:17:10.000Z</Time>
            <Position>
              <LatitudeDegrees>38.42516080476343631744384765625</LatitudeDegrees>
              <LongitudeDegrees>-6.41079562716186046600341796875</LongitudeDegrees>
            </Position>
            <AltitudeMeters>498.79998779296875</AltitudeMeters>
            <DistanceMeters>NAN</DistanceMeters>
          </Trackpoint>
          <Trackpoint>
            <Time>2019-10-09T13:17:13.000Z</Time>
            <Position>
              <LatitudeDegrees>38.42501479201018810272216796875</LatitudeDegrees>
              <LongitudeDegrees>-6.41099109314382076263427734375</LongitudeDegrees>
            </Position>
            <AltitudeMeters>497.79998779296875</AltitudeMeters>
            <DistanceMeters>NAN</DistanceMeters>
          </Trackpoint>
          <Trackpoint>
            <Time>2019-10-09T13:17:15.000Z</Time>
            <Position>
              <LatitudeDegrees>38.424911610782146453857421875</LatitudeDegrees>
              <LongitudeDegrees>-6.41111581586301326751708984375</LongitudeDegrees>
            </Position>
            <AltitudeMeters>497.20001220703125</AltitudeMeters>
            <DistanceMeters>NAN</DistanceMeters>
          </Trackpoint>
          <Trackpoint>
            <Time>2019-10-09T13:17:17.000Z</Time>
            <Position>
              <LatitudeDegrees>38.42480239458382129669189453125</LatitudeDegrees>
              <LongitudeDegrees>-6.411242969334125518798828125</LongitudeDegrees>
            </Position>
            <AltitudeMeters>496.79998779296875</AltitudeMeters>
            <DistanceMeters>NAN</DistanceMeters>
          </Trackpoint>
          <Trackpoint>
            <Time>2019-10-09T13:17:18.000Z</Time>
            <Position>
              <LatitudeDegrees>38.4247464872896671295166015625</LatitudeDegrees>
              <LongitudeDegrees>-6.41130139119923114776611328125</LongitudeDegrees>
            </Position>
            <AltitudeMeters>496.600006103515625</AltitudeMeters>
            <DistanceMeters>NAN</DistanceMeters>
          </Trackpoint>
          <Trackpoint>
            <Time>2019-10-09T13:17:23.000Z</Time>
            <Position>
              <LatitudeDegrees>38.424454964697360992431640625</LatitudeDegrees>
              <LongitudeDegrees>-6.41155620105564594268798828125</LongitudeDegrees>
            </Position>
            <AltitudeMeters>495.600006103515625</AltitudeMeters>
            <DistanceMeters>NAN</DistanceMeters>
          </Trackpoint>
          <Trackpoint>
            <Time>2019-10-09T13:17:24.000Z</Time>
            <Position>
              <LatitudeDegrees>38.42440576292574405670166015625</LatitudeDegrees>
              <LongitudeDegrees>-6.4116129465401172637939453125</LongitudeDegrees>
            </Position>
            <AltitudeMeters>495.399993896484375</AltitudeMeters>
            <DistanceMeters>NAN</DistanceMeters>
          </Trackpoint>
          <Trackpoint>
            <Time>2019-10-09T13:17:26.000Z</Time>
            <Position>
              <LatitudeDegrees>38.424342982470989227294921875</LatitudeDegrees>
              <LongitudeDegrees>-6.4117661677300930023193359375</LongitudeDegrees>
            </Position>
            <AltitudeMeters>494.600006103515625</AltitudeMeters>
            <DistanceMeters>NAN</DistanceMeters>
          </Trackpoint>
          <Trackpoint>
            <Time>2019-10-09T13:17:27.000Z</Time>
            <Position>
              <LatitudeDegrees>38.4243277274072170257568359375</LatitudeDegrees>
              <LongitudeDegrees>-6.41185007058084011077880859375</LongitudeDegrees>
            </Position>
            <AltitudeMeters>494.399993896484375</AltitudeMeters>
            <DistanceMeters>NAN</DistanceMeters>
          </Trackpoint>
          <Trackpoint>
            <Time>2019-10-09T13:17:29.000Z</Time>
            <Position>
              <LatitudeDegrees>38.42426276765763759613037109375</LatitudeDegrees>
              <LongitudeDegrees>-6.4120065607130527496337890625</LongitudeDegrees>
            </Position>
            <AltitudeMeters>494.399993896484375</AltitudeMeters>
            <DistanceMeters>NAN</DistanceMeters>
          </Trackpoint>
          <Trackpoint>
            <Time>2019-10-09T13:17:32.000Z</Time>
            <Position>
              <LatitudeDegrees>38.42409814707934856414794921875</LatitudeDegrees>
              <LongitudeDegrees>-6.4121805690228939056396484375</LongitudeDegrees>
            </Position>
            <AltitudeMeters>494.399993896484375</AltitudeMeters>
            <DistanceMeters>NAN</DistanceMeters>
          </Trackpoint>
          <Trackpoint>
            <Time>2019-10-09T13:17:33.000Z</Time>
            <Position>
              <LatitudeDegrees>38.42403695918619632720947265625</LatitudeDegrees>
              <LongitudeDegrees>-6.4122288487851619720458984375</LongitudeDegrees>
            </Position>
            <AltitudeMeters>494</AltitudeMeters>
            <DistanceMeters>NAN</DistanceMeters>
          </Trackpoint>
          <Trackpoint>
            <Time>2019-10-09T13:17:34.000Z</Time>
            <Position>
              <LatitudeDegrees>38.42398012988269329071044921875</LatitudeDegrees>
              <LongitudeDegrees>-6.412281654775142669677734375</LongitudeDegrees>
            </Position>
            <AltitudeMeters>494</AltitudeMeters>
            <DistanceMeters>NAN</DistanceMeters>
          </Trackpoint>
          <Trackpoint>
            <Time>2019-10-09T13:17:37.000Z</Time>
            <Position>
              <LatitudeDegrees>38.42381835915148258209228515625</LatitudeDegrees>
              <LongitudeDegrees>-6.4124437607824802398681640625</LongitudeDegrees>
            </Position>
            <AltitudeMeters>493.600006103515625</AltitudeMeters>
            <DistanceMeters>NAN</DistanceMeters>
          </Trackpoint>
          <Trackpoint>
            <Time>2019-10-09T13:17:38.000Z</Time>
            <Position>
              <LatitudeDegrees>38.42377678491175174713134765625</LatitudeDegrees>
              <LongitudeDegrees>-6.41249262727797031402587890625</LongitudeDegrees>
            </Position>
            <AltitudeMeters>493.20001220703125</AltitudeMeters>
            <DistanceMeters>NAN</DistanceMeters>
          </Trackpoint>
          <Trackpoint>
            <Time>2019-10-09T13:17:40.000Z</Time>
            <Position>
              <LatitudeDegrees>38.42369799502193927764892578125</LatitudeDegrees>
              <LongitudeDegrees>-6.41259002499282360076904296875</LongitudeDegrees>
            </Position>
            <AltitudeMeters>492.600006103515625</AltitudeMeters>
            <DistanceMeters>NAN</DistanceMeters>
          </Trackpoint>
          <Trackpoint>
            <Time>2019-10-09T13:17:41.000Z</Time>
            <Position>
              <LatitudeDegrees>38.4236632101237773895263671875</LatitudeDegrees>
              <LongitudeDegrees>-6.41263830475509166717529296875</LongitudeDegrees>
            </Position>
            <AltitudeMeters>492</AltitudeMeters>
            <DistanceMeters>NAN</DistanceMeters>
          </Trackpoint>
          <Trackpoint>
            <Time>2019-10-09T13:17:43.000Z</Time>
            <Position>
              <LatitudeDegrees>38.423595316708087921142578125</LatitudeDegrees>
              <LongitudeDegrees>-6.4127294160425662994384765625</LongitudeDegrees>
            </Position>
            <AltitudeMeters>492</AltitudeMeters>
            <DistanceMeters>NAN</DistanceMeters>
          </Trackpoint>
          <Trackpoint>
            <Time>2019-10-09T13:17:44.000Z</Time>
            <Position>
              <LatitudeDegrees>38.42356145381927490234375</LatitudeDegrees>
              <LongitudeDegrees>-6.41277275048196315765380859375</LongitudeDegrees>
            </Position>
            <AltitudeMeters>492.20001220703125</AltitudeMeters>
            <DistanceMeters>NAN</DistanceMeters>
          </Trackpoint>
          <Trackpoint>
            <Time>2019-10-09T13:17:45.000Z</Time>
            <Position>
              <LatitudeDegrees>38.42353052459657192230224609375</LatitudeDegrees>
              <LongitudeDegrees>-6.4128179289400577545166015625</LongitudeDegrees>
            </Position>
            <AltitudeMeters>492</AltitudeMeters>
            <DistanceMeters>NAN</DistanceMeters>
          </Trackpoint>
          <Trackpoint>
            <Time>2019-10-09T13:17:47.000Z</Time>
            <Position>
              <LatitudeDegrees>38.42346833087503910064697265625</LatitudeDegrees>
              <LongitudeDegrees>-6.4129002392292022705078125</LongitudeDegrees>
            </Position>
            <AltitudeMeters>491.399993896484375</AltitudeMeters>
            <DistanceMeters>NAN</DistanceMeters>
          </Trackpoint>
          <Trackpoint>
            <Time>2019-10-09T13:17:48.000Z</Time>
            <Position>
              <LatitudeDegrees>38.42343664728105068206787109375</LatitudeDegrees>
              <LongitudeDegrees>-6.41293175518512725830078125</LongitudeDegrees>
            </Position>
            <AltitudeMeters>491.399993896484375</AltitudeMeters>
            <DistanceMeters>NAN</DistanceMeters>
          </Trackpoint>
          <Trackpoint>
            <Time>2019-10-09T13:17:49.000Z</Time>
            <Position>
              <LatitudeDegrees>38.4234043769538402557373046875</LatitudeDegrees>
              <LongitudeDegrees>-6.41296503134071826934814453125</LongitudeDegrees>
            </Position>
            <AltitudeMeters>491.399993896484375</AltitudeMeters>
            <DistanceMeters>NAN</DistanceMeters>
          </Trackpoint>
          <Trackpoint>
            <Time>2019-10-09T13:17:50.000Z</Time>
            <Position>
              <LatitudeDegrees>38.42336774803698062896728515625</LatitudeDegrees>
              <LongitudeDegrees>-6.4129983074963092803955078125</LongitudeDegrees>
            </Position>
            <AltitudeMeters>491.399993896484375</AltitudeMeters>
            <DistanceMeters>NAN</DistanceMeters>
          </Trackpoint>
          <Trackpoint>
            <Time>2019-10-09T13:17:55.000Z</Time>
            <Position>
              <LatitudeDegrees>38.4231953322887420654296875</LatitudeDegrees>
              <LongitudeDegrees>-6.4131791889667510986328125</LongitudeDegrees>
            </Position>
            <AltitudeMeters>491</AltitudeMeters>
            <DistanceMeters>NAN</DistanceMeters>
          </Trackpoint>
          <Trackpoint>
            <Time>2019-10-09T13:17:56.000Z</Time>
            <Position>
              <LatitudeDegrees>38.42316105030477046966552734375</LatitudeDegrees>
              <LongitudeDegrees>-6.413212716579437255859375</LongitudeDegrees>
            </Position>
            <AltitudeMeters>490.79998779296875</AltitudeMeters>
            <DistanceMeters>NAN</DistanceMeters>
          </Trackpoint>
          <Trackpoint>
            <Time>2019-10-09T13:18:00.000Z</Time>
            <Position>
              <LatitudeDegrees>38.423051498830318450927734375</LatitudeDegrees>
              <LongitudeDegrees>-6.4133288897573947906494140625</LongitudeDegrees>
            </Position>
            <AltitudeMeters>490.600006103515625</AltitudeMeters>
            <DistanceMeters>NAN</DistanceMeters>
          </Trackpoint>
          <Trackpoint>
            <Time>2019-10-09T13:18:03.000Z</Time>
            <Position>
              <LatitudeDegrees>38.4230053983628749847412109375</LatitudeDegrees>
              <LongitudeDegrees>-6.4134179055690765380859375</LongitudeDegrees>
            </Position>
            <AltitudeMeters>490.20001220703125</AltitudeMeters>
            <DistanceMeters>NAN</DistanceMeters>
          </Trackpoint>
          <Trackpoint>
            <Time>2019-10-09T13:18:04.000Z</Time>
            <Position>
              <LatitudeDegrees>38.4230060689151287078857421875</LatitudeDegrees>
              <LongitudeDegrees>-6.413459815084934234619140625</LongitudeDegrees>
            </Position>
            <AltitudeMeters>489.79998779296875</AltitudeMeters>
            <DistanceMeters>NAN</DistanceMeters>
          </Trackpoint>
          <Trackpoint>
            <Time>2019-10-09T13:18:05.000Z</Time>
            <Position>
              <LatitudeDegrees>38.4230204857885837554931640625</LatitudeDegrees>
              <LongitudeDegrees>-6.4134928397834300994873046875</LongitudeDegrees>
            </Position>
            <AltitudeMeters>489.79998779296875</AltitudeMeters>
            <DistanceMeters>NAN</DistanceMeters>
          </Trackpoint>
          <Trackpoint>
            <Time>2019-10-09T13:18:08.000Z</Time>
            <Position>
              <LatitudeDegrees>38.42305007390677928924560546875</LatitudeDegrees>
              <LongitudeDegrees>-6.4135619066655635833740234375</LongitudeDegrees>
            </Position>
            <AltitudeMeters>489.79998779296875</AltitudeMeters>
            <DistanceMeters>NAN</DistanceMeters>
          </Trackpoint>
          <Trackpoint>
            <Time>2019-10-09T13:18:09.000Z</Time>
            <Position>
              <LatitudeDegrees>38.42305116355419158935546875</LatitudeDegrees>
              <LongitudeDegrees>-6.41356785781681537628173828125</LongitudeDegrees>
            </Position>
            <AltitudeMeters>489.600006103515625</AltitudeMeters>
            <DistanceMeters>NAN</DistanceMeters>
          </Trackpoint>
          <Trackpoint>
            <Time>2019-10-09T13:18:11.000Z</Time>
            <Position>
              <LatitudeDegrees>38.42305116355419158935546875</LatitudeDegrees>
              <LongitudeDegrees>-6.41356970183551311492919921875</LongitudeDegrees>
            </Position>
            <AltitudeMeters>490</AltitudeMeters>
            <DistanceMeters>NAN</DistanceMeters>
          </Trackpoint>
          <Trackpoint>
            <Time>2019-10-09T13:18:15.000Z</Time>
            <Position>
              <LatitudeDegrees>38.4230489842593669891357421875</LatitudeDegrees>
              <LongitudeDegrees>-6.41356936655938625335693359375</LongitudeDegrees>
            </Position>
            <AltitudeMeters>490</AltitudeMeters>
            <DistanceMeters>NAN</DistanceMeters>
          </Trackpoint>
          <Trackpoint>
            <Time>2019-10-09T13:18:19.000Z</Time>
            <Position>
              <LatitudeDegrees>38.4230489842593669891357421875</LatitudeDegrees>
              <LongitudeDegrees>-6.41356936655938625335693359375</LongitudeDegrees>
            </Position>
            <AltitudeMeters>490</AltitudeMeters>
            <DistanceMeters>NAN</DistanceMeters>
          </Trackpoint>
          <Trackpoint>
            <Time>2019-10-09T13:18:22.000Z</Time>
            <Position>
              <LatitudeDegrees>38.4230489842593669891357421875</LatitudeDegrees>
              <LongitudeDegrees>-6.41356936655938625335693359375</LongitudeDegrees>
            </Position>
            <AltitudeMeters>490</AltitudeMeters>
            <DistanceMeters>NAN</DistanceMeters>
          </Trackpoint>
          <Trackpoint>
            <Time>2019-10-09T13:18:28.000Z</Time>
            <Position>
              <LatitudeDegrees>38.4230489842593669891357421875</LatitudeDegrees>
              <LongitudeDegrees>-6.41356936655938625335693359375</LongitudeDegrees>
            </Position>
            <AltitudeMeters>490</AltitudeMeters>
            <DistanceMeters>NAN</DistanceMeters>
          </Trackpoint>
          <Trackpoint>
            <Time>2019-10-09T13:18:29.000Z</Time>
            <Position>
              <LatitudeDegrees>38.4230489842593669891357421875</LatitudeDegrees>
              <LongitudeDegrees>-6.41356936655938625335693359375</LongitudeDegrees>
            </Position>
            <AltitudeMeters>490.20001220703125</AltitudeMeters>
            <DistanceMeters>NAN</DistanceMeters>
          </Trackpoint>
          <Trackpoint>
            <Time>2019-10-09T13:18:30.000Z</Time>
            <Position>
              <LatitudeDegrees>38.4230489842593669891357421875</LatitudeDegrees>
              <LongitudeDegrees>-6.41356936655938625335693359375</LongitudeDegrees>
            </Position>
            <AltitudeMeters>490.20001220703125</AltitudeMeters>
            <DistanceMeters>NAN</DistanceMeters>
          </Trackpoint>
          <Trackpoint>
            <Time>2019-10-09T13:18:32.000Z</Time>
            <Position>
              <LatitudeDegrees>38.4230489842593669891357421875</LatitudeDegrees>
              <LongitudeDegrees>-6.41356936655938625335693359375</LongitudeDegrees>
            </Position>
            <AltitudeMeters>490.20001220703125</AltitudeMeters>
            <DistanceMeters>NAN</DistanceMeters>
          </Trackpoint>
          <Trackpoint>
            <Time>2019-10-09T13:18:36.000Z</Time>
            <Position>
              <LatitudeDegrees>38.4230489842593669891357421875</LatitudeDegrees>
              <LongitudeDegrees>-6.41356936655938625335693359375</LongitudeDegrees>
            </Position>
            <AltitudeMeters>490.20001220703125</AltitudeMeters>
            <DistanceMeters>NAN</DistanceMeters>
          </Trackpoint>
          <Trackpoint>
            <Time>2019-10-09T13:18:45.000Z</Time>
            <Position>
              <LatitudeDegrees>38.4230489842593669891357421875</LatitudeDegrees>
              <LongitudeDegrees>-6.41356936655938625335693359375</LongitudeDegrees>
            </Position>
            <AltitudeMeters>490</AltitudeMeters>
            <DistanceMeters>NAN</DistanceMeters>
          </Trackpoint>
          <Trackpoint>
            <Time>2019-10-09T13:18:47.000Z</Time>
            <Position>
              <LatitudeDegrees>38.4230489842593669891357421875</LatitudeDegrees>
              <LongitudeDegrees>-6.41356936655938625335693359375</LongitudeDegrees>
            </Position>
            <AltitudeMeters>490</AltitudeMeters>
            <DistanceMeters>NAN</DistanceMeters>
          </Trackpoint>
          <Trackpoint>
            <Time>2019-10-09T13:18:49.000Z</Time>
            <Position>
              <LatitudeDegrees>38.4230489842593669891357421875</LatitudeDegrees>
              <LongitudeDegrees>-6.41357137821614742279052734375</LongitudeDegrees>
            </Position>
            <AltitudeMeters>490</AltitudeMeters>
            <DistanceMeters>NAN</DistanceMeters>
          </Trackpoint>
          <Trackpoint>
            <Time>2019-10-09T13:18:57.000Z</Time>
            <Position>
              <LatitudeDegrees>38.4230489842593669891357421875</LatitudeDegrees>
              <LongitudeDegrees>-6.41357137821614742279052734375</LongitudeDegrees>
            </Position>
            <AltitudeMeters>490.399993896484375</AltitudeMeters>
            <DistanceMeters>NAN</DistanceMeters>
          </Trackpoint>
          <Trackpoint>
            <Time>2019-10-09T13:19:02.000Z</Time>
            <Position>
              <LatitudeDegrees>38.4230489842593669891357421875</LatitudeDegrees>
              <LongitudeDegrees>-6.41357137821614742279052734375</LongitudeDegrees>
            </Position>
            <AltitudeMeters>490.20001220703125</AltitudeMeters>
            <DistanceMeters>NAN</DistanceMeters>
          </Trackpoint>
          <Trackpoint>
            <Time>2019-10-09T13:19:05.000Z</Time>
            <Position>
              <LatitudeDegrees>38.4230489842593669891357421875</LatitudeDegrees>
              <LongitudeDegrees>-6.41357137821614742279052734375</LongitudeDegrees>
            </Position>
            <AltitudeMeters>490.20001220703125</AltitudeMeters>
            <DistanceMeters>NAN</DistanceMeters>
          </Trackpoint>
          <Trackpoint>
            <Time>2019-10-09T13:19:06.000Z</Time>
            <Position>
              <LatitudeDegrees>38.4230489842593669891357421875</LatitudeDegrees>
              <LongitudeDegrees>-6.41357137821614742279052734375</LongitudeDegrees>
            </Position>
            <AltitudeMeters>490.20001220703125</AltitudeMeters>
            <DistanceMeters>NAN</DistanceMeters>
          </Trackpoint>
          <Trackpoint>
            <Time>2019-10-09T13:19:08.000Z</Time>
            <Position>
              <LatitudeDegrees>38.4230489842593669891357421875</LatitudeDegrees>
              <LongitudeDegrees>-6.41357137821614742279052734375</LongitudeDegrees>
            </Position>
            <AltitudeMeters>490.399993896484375</AltitudeMeters>
            <DistanceMeters>NAN</DistanceMeters>
          </Trackpoint>
          <Trackpoint>
            <Time>2019-10-09T13:19:10.000Z</Time>
            <Position>
              <LatitudeDegrees>38.4230489842593669891357421875</LatitudeDegrees>
              <LongitudeDegrees>-6.41357137821614742279052734375</LongitudeDegrees>
            </Position>
            <AltitudeMeters>490.399993896484375</AltitudeMeters>
            <DistanceMeters>NAN</DistanceMeters>
          </Trackpoint>
          <Trackpoint>
            <Time>2019-10-09T13:19:12.000Z</Time>
            <Position>
              <LatitudeDegrees>38.4230489842593669891357421875</LatitudeDegrees>
              <LongitudeDegrees>-6.41357137821614742279052734375</LongitudeDegrees>
            </Position>
            <AltitudeMeters>490.399993896484375</AltitudeMeters>
            <DistanceMeters>NAN</DistanceMeters>
          </Trackpoint>
          <Trackpoint>
            <Time>2019-10-09T13:19:17.000Z</Time>
            <Position>
              <LatitudeDegrees>38.4230489842593669891357421875</LatitudeDegrees>
              <LongitudeDegrees>-6.41357137821614742279052734375</LongitudeDegrees>
            </Position>
            <AltitudeMeters>490.20001220703125</AltitudeMeters>
            <DistanceMeters>NAN</DistanceMeters>
          </Trackpoint>
          <Trackpoint>
            <Time>2019-10-09T13:19:23.000Z</Time>
            <Position>
              <LatitudeDegrees>38.4230489842593669891357421875</LatitudeDegrees>
              <LongitudeDegrees>-6.41357137821614742279052734375</LongitudeDegrees>
            </Position>
            <AltitudeMeters>490</AltitudeMeters>
            <DistanceMeters>NAN</DistanceMeters>
          </Trackpoint>
          <Trackpoint>
            <Time>2019-10-09T13:19:24.000Z</Time>
            <Position>
              <LatitudeDegrees>38.4230489842593669891357421875</LatitudeDegrees>
              <LongitudeDegrees>-6.41357137821614742279052734375</LongitudeDegrees>
            </Position>
            <AltitudeMeters>490</AltitudeMeters>
            <DistanceMeters>NAN</DistanceMeters>
          </Trackpoint>
          <Trackpoint>
            <Time>2019-10-09T13:19:27.000Z</Time>
            <Position>
              <LatitudeDegrees>38.4230489842593669891357421875</LatitudeDegrees>
              <LongitudeDegrees>-6.41357137821614742279052734375</LongitudeDegrees>
            </Position>
            <AltitudeMeters>490.20001220703125</AltitudeMeters>
            <DistanceMeters>NAN</DistanceMeters>
          </Trackpoint>
          <Trackpoint>
            <Time>2019-10-09T13:19:28.000Z</Time>
            <Position>
              <LatitudeDegrees>38.4230489842593669891357421875</LatitudeDegrees>
              <LongitudeDegrees>-6.41357137821614742279052734375</LongitudeDegrees>
            </Position>
            <AltitudeMeters>490.20001220703125</AltitudeMeters>
            <DistanceMeters>NAN</DistanceMeters>
          </Trackpoint>
          <Trackpoint>
            <Time>2019-10-09T13:19:32.000Z</Time>
            <Position>
              <LatitudeDegrees>38.42304789461195468902587890625</LatitudeDegrees>
              <LongitudeDegrees>-6.41357372514903545379638671875</LongitudeDegrees>
            </Position>
            <AltitudeMeters>489.79998779296875</AltitudeMeters>
            <DistanceMeters>NAN</DistanceMeters>
          </Trackpoint>
          <Trackpoint>
            <Time>2019-10-09T13:19:34.000Z</Time>
            <Position>
              <LatitudeDegrees>38.42304789461195468902587890625</LatitudeDegrees>
              <LongitudeDegrees>-6.41357372514903545379638671875</LongitudeDegrees>
            </Position>
            <AltitudeMeters>490</AltitudeMeters>
            <DistanceMeters>NAN</DistanceMeters>
          </Trackpoint>
          <Trackpoint>
            <Time>2019-10-09T13:19:38.000Z</Time>
            <Position>
              <LatitudeDegrees>38.42304789461195468902587890625</LatitudeDegrees>
              <LongitudeDegrees>-6.41357372514903545379638671875</LongitudeDegrees>
            </Position>
            <AltitudeMeters>490.20001220703125</AltitudeMeters>
            <DistanceMeters>NAN</DistanceMeters>
          </Trackpoint>
          <Trackpoint>
            <Time>2019-10-09T13:19:40.000Z</Time>
            <Position>
              <LatitudeDegrees>38.42304789461195468902587890625</LatitudeDegrees>
              <LongitudeDegrees>-6.41357372514903545379638671875</LongitudeDegrees>
            </Position>
            <AltitudeMeters>490.20001220703125</AltitudeMeters>
            <DistanceMeters>NAN</DistanceMeters>
          </Trackpoint>
          <Trackpoint>
            <Time>2019-10-09T13:19:44.000Z</Time>
            <Position>
              <LatitudeDegrees>38.42304789461195468902587890625</LatitudeDegrees>
              <LongitudeDegrees>-6.41357372514903545379638671875</LongitudeDegrees>
            </Position>
            <AltitudeMeters>490.20001220703125</AltitudeMeters>
            <DistanceMeters>NAN</DistanceMeters>
          </Trackpoint>
          <Trackpoint>
            <Time>2019-10-09T13:19:45.000Z</Time>
            <Position>
              <LatitudeDegrees>38.42304789461195468902587890625</LatitudeDegrees>
              <LongitudeDegrees>-6.41357372514903545379638671875</LongitudeDegrees>
            </Position>
            <AltitudeMeters>490.20001220703125</AltitudeMeters>
            <DistanceMeters>NAN</DistanceMeters>
          </Trackpoint>
          <Trackpoint>
            <Time>2019-10-09T13:19:46.000Z</Time>
            <Position>
              <LatitudeDegrees>38.42304789461195468902587890625</LatitudeDegrees>
              <LongitudeDegrees>-6.41357372514903545379638671875</LongitudeDegrees>
            </Position>
            <AltitudeMeters>490.20001220703125</AltitudeMeters>
            <DistanceMeters>NAN</DistanceMeters>
          </Trackpoint>
          <Trackpoint>
            <Time>2019-10-09T13:19:52.000Z</Time>
            <Position>
              <LatitudeDegrees>38.42304789461195468902587890625</LatitudeDegrees>
              <LongitudeDegrees>-6.41357372514903545379638671875</LongitudeDegrees>
            </Position>
            <AltitudeMeters>490.20001220703125</AltitudeMeters>
            <DistanceMeters>NAN</DistanceMeters>
          </Trackpoint>
          <Trackpoint>
            <Time>2019-10-09T13:19:54.000Z</Time>
            <Position>
              <LatitudeDegrees>38.42304789461195468902587890625</LatitudeDegrees>
              <LongitudeDegrees>-6.41357372514903545379638671875</LongitudeDegrees>
            </Position>
            <AltitudeMeters>490.399993896484375</AltitudeMeters>
            <DistanceMeters>NAN</DistanceMeters>
          </Trackpoint>
          <Trackpoint>
            <Time>2019-10-09T13:19:57.000Z</Time>
            <Position>
              <LatitudeDegrees>38.42304789461195468902587890625</LatitudeDegrees>
              <LongitudeDegrees>-6.41357372514903545379638671875</LongitudeDegrees>
            </Position>
            <AltitudeMeters>490.20001220703125</AltitudeMeters>
            <DistanceMeters>NAN</DistanceMeters>
          </Trackpoint>
          <Trackpoint>
            <Time>2019-10-09T13:19:58.000Z</Time>
            <Position>
              <LatitudeDegrees>38.42304789461195468902587890625</LatitudeDegrees>
              <LongitudeDegrees>-6.41357372514903545379638671875</LongitudeDegrees>
            </Position>
            <AltitudeMeters>490.20001220703125</AltitudeMeters>
            <DistanceMeters>NAN</DistanceMeters>
          </Trackpoint>
          <Trackpoint>
            <Time>2019-10-09T13:19:59.000Z</Time>
            <Position>
              <LatitudeDegrees>38.42304789461195468902587890625</LatitudeDegrees>
              <LongitudeDegrees>-6.41357372514903545379638671875</LongitudeDegrees>
            </Position>
            <AltitudeMeters>490.20001220703125</AltitudeMeters>
            <DistanceMeters>NAN</DistanceMeters>
          </Trackpoint>
          <Trackpoint>
            <Time>2019-10-09T13:20:00.000Z</Time>
            <Position>
              <LatitudeDegrees>38.42304789461195468902587890625</LatitudeDegrees>
              <LongitudeDegrees>-6.41357372514903545379638671875</LongitudeDegrees>
            </Position>
            <AltitudeMeters>490.20001220703125</AltitudeMeters>
            <DistanceMeters>NAN</DistanceMeters>
          </Trackpoint>
          <Trackpoint>
            <Time>2019-10-09T13:20:02.000Z</Time>
            <Position>
              <LatitudeDegrees>38.42304789461195468902587890625</LatitudeDegrees>
              <LongitudeDegrees>-6.41357372514903545379638671875</LongitudeDegrees>
            </Position>
            <AltitudeMeters>490.399993896484375</AltitudeMeters>
            <DistanceMeters>NAN</DistanceMeters>
          </Trackpoint>
          <Trackpoint>
            <Time>2019-10-09T13:20:04.000Z</Time>
            <Position>
              <LatitudeDegrees>38.42304789461195468902587890625</LatitudeDegrees>
              <LongitudeDegrees>-6.41357372514903545379638671875</LongitudeDegrees>
            </Position>
            <AltitudeMeters>490.20001220703125</AltitudeMeters>
            <DistanceMeters>NAN</DistanceMeters>
          </Trackpoint>
          <Trackpoint>
            <Time>2019-10-09T13:20:07.000Z</Time>
            <Position>
              <LatitudeDegrees>38.42304789461195468902587890625</LatitudeDegrees>
              <LongitudeDegrees>-6.41357372514903545379638671875</LongitudeDegrees>
            </Position>
            <AltitudeMeters>490.20001220703125</AltitudeMeters>
            <DistanceMeters>NAN</DistanceMeters>
          </Trackpoint>
          <Trackpoint>
            <Time>2019-10-09T13:20:08.000Z</Time>
            <Position>
              <LatitudeDegrees>38.42304789461195468902587890625</LatitudeDegrees>
              <LongitudeDegrees>-6.41357372514903545379638671875</LongitudeDegrees>
            </Position>
            <AltitudeMeters>490.20001220703125</AltitudeMeters>
            <DistanceMeters>NAN</DistanceMeters>
          </Trackpoint>
          <Trackpoint>
            <Time>2019-10-09T13:20:10.000Z</Time>
            <Position>
              <LatitudeDegrees>38.42304638586938381195068359375</LatitudeDegrees>
              <LongitudeDegrees>-6.41357758082449436187744140625</LongitudeDegrees>
            </Position>
            <AltitudeMeters>490</AltitudeMeters>
            <DistanceMeters>NAN</DistanceMeters>
          </Trackpoint>
          <Trackpoint>
            <Time>2019-10-09T13:20:13.000Z</Time>
            <Position>
              <LatitudeDegrees>38.42304638586938381195068359375</LatitudeDegrees>
              <LongitudeDegrees>-6.41357758082449436187744140625</LongitudeDegrees>
            </Position>
            <AltitudeMeters>490.20001220703125</AltitudeMeters>
            <DistanceMeters>NAN</DistanceMeters>
          </Trackpoint>
          <Trackpoint>
            <Time>2019-10-09T13:20:14.000Z</Time>
            <Position>
              <LatitudeDegrees>38.42304638586938381195068359375</LatitudeDegrees>
              <LongitudeDegrees>-6.41357758082449436187744140625</LongitudeDegrees>
            </Position>
            <AltitudeMeters>490.20001220703125</AltitudeMeters>
            <DistanceMeters>NAN</DistanceMeters>
          </Trackpoint>
          <Trackpoint>
            <Time>2019-10-09T13:20:15.000Z</Time>
            <Position>
              <LatitudeDegrees>38.42304638586938381195068359375</LatitudeDegrees>
              <LongitudeDegrees>-6.41357758082449436187744140625</LongitudeDegrees>
            </Position>
            <AltitudeMeters>490.20001220703125</AltitudeMeters>
            <DistanceMeters>NAN</DistanceMeters>
          </Trackpoint>
          <Trackpoint>
            <Time>2019-10-09T13:20:20.000Z</Time>
            <Position>
              <LatitudeDegrees>38.42304638586938381195068359375</LatitudeDegrees>
              <LongitudeDegrees>-6.41357758082449436187744140625</LongitudeDegrees>
            </Position>
            <AltitudeMeters>490</AltitudeMeters>
            <DistanceMeters>NAN</DistanceMeters>
          </Trackpoint>
          <Trackpoint>
            <Time>2019-10-09T13:20:22.000Z</Time>
            <Position>
              <LatitudeDegrees>38.42304638586938381195068359375</LatitudeDegrees>
              <LongitudeDegrees>-6.41357758082449436187744140625</LongitudeDegrees>
            </Position>
            <AltitudeMeters>490.20001220703125</AltitudeMeters>
            <DistanceMeters>NAN</DistanceMeters>
          </Trackpoint>
          <Trackpoint>
            <Time>2019-10-09T13:20:28.000Z</Time>
            <Position>
              <LatitudeDegrees>38.42304638586938381195068359375</LatitudeDegrees>
              <LongitudeDegrees>-6.41357758082449436187744140625</LongitudeDegrees>
            </Position>
            <AltitudeMeters>490.20001220703125</AltitudeMeters>
            <DistanceMeters>NAN</DistanceMeters>
          </Trackpoint>
          <Trackpoint>
            <Time>2019-10-09T13:20:31.000Z</Time>
            <Position>
              <LatitudeDegrees>38.42304638586938381195068359375</LatitudeDegrees>
              <LongitudeDegrees>-6.41357758082449436187744140625</LongitudeDegrees>
            </Position>
            <AltitudeMeters>490</AltitudeMeters>
            <DistanceMeters>NAN</DistanceMeters>
          </Trackpoint>
          <Trackpoint>
            <Time>2019-10-09T13:20:32.000Z</Time>
            <Position>
              <LatitudeDegrees>38.42304638586938381195068359375</LatitudeDegrees>
              <LongitudeDegrees>-6.41357758082449436187744140625</LongitudeDegrees>
            </Position>
            <AltitudeMeters>490.20001220703125</AltitudeMeters>
            <DistanceMeters>NAN</DistanceMeters>
          </Trackpoint>
          <Trackpoint>
            <Time>2019-10-09T13:20:41.000Z</Time>
            <Position>
              <LatitudeDegrees>38.42304638586938381195068359375</LatitudeDegrees>
              <LongitudeDegrees>-6.41357758082449436187744140625</LongitudeDegrees>
            </Position>
            <AltitudeMeters>490.399993896484375</AltitudeMeters>
            <DistanceMeters>NAN</DistanceMeters>
          </Trackpoint>
          <Trackpoint>
            <Time>2019-10-09T13:20:43.000Z</Time>
            <Position>
              <LatitudeDegrees>38.42304638586938381195068359375</LatitudeDegrees>
              <LongitudeDegrees>-6.41357758082449436187744140625</LongitudeDegrees>
            </Position>
            <AltitudeMeters>490.399993896484375</AltitudeMeters>
            <DistanceMeters>NAN</DistanceMeters>
          </Trackpoint>
          <Trackpoint>
            <Time>2019-10-09T13:20:47.000Z</Time>
            <Position>
              <LatitudeDegrees>38.42304638586938381195068359375</LatitudeDegrees>
              <LongitudeDegrees>-6.41357758082449436187744140625</LongitudeDegrees>
            </Position>
            <AltitudeMeters>490.20001220703125</AltitudeMeters>
            <DistanceMeters>NAN</DistanceMeters>
          </Trackpoint>
          <Trackpoint>
            <Time>2019-10-09T13:20:52.000Z</Time>
            <Position>
              <LatitudeDegrees>38.423048146069049835205078125</LatitudeDegrees>
              <LongitudeDegrees>-6.413583867251873016357421875</LongitudeDegrees>
            </Position>
            <AltitudeMeters>490.20001220703125</AltitudeMeters>
            <DistanceMeters>NAN</DistanceMeters>
          </Trackpoint>
          <Trackpoint>
            <Time>2019-10-09T13:20:53.000Z</Time>
            <Position>
              <LatitudeDegrees>38.42306097038090229034423828125</LatitudeDegrees>
              <LongitudeDegrees>-6.41359250061213970184326171875</LongitudeDegrees>
            </Position>
            <AltitudeMeters>490.20001220703125</AltitudeMeters>
            <DistanceMeters>NAN</DistanceMeters>
          </Trackpoint>
          <Trackpoint>
            <Time>2019-10-09T13:20:54.000Z</Time>
            <Position>
              <LatitudeDegrees>38.42307262122631072998046875</LatitudeDegrees>
              <LongitudeDegrees>-6.41360406763851642608642578125</LongitudeDegrees>
            </Position>
            <AltitudeMeters>490.20001220703125</AltitudeMeters>
            <DistanceMeters>NAN</DistanceMeters>
          </Trackpoint>
          <Trackpoint>
            <Time>2019-10-09T13:20:55.000Z</Time>
            <Position>
              <LatitudeDegrees>38.42308527790009975433349609375</LatitudeDegrees>
              <LongitudeDegrees>-6.4136142097413539886474609375</LongitudeDegrees>
            </Position>
            <AltitudeMeters>490.20001220703125</AltitudeMeters>
            <DistanceMeters>NAN</DistanceMeters>
          </Trackpoint>
          <Trackpoint>
            <Time>2019-10-09T13:20:57.000Z</Time>
            <Position>
              <LatitudeDegrees>38.4231220744550228118896484375</LatitudeDegrees>
              <LongitudeDegrees>-6.41364212147891521453857421875</LongitudeDegrees>
            </Position>
            <AltitudeMeters>490</AltitudeMeters>
            <DistanceMeters>NAN</DistanceMeters>
          </Trackpoint>
          <Trackpoint>
            <Time>2019-10-09T13:20:58.000Z</Time>
            <Position>
              <LatitudeDegrees>38.42314395122230052947998046875</LatitudeDegrees>
              <LongitudeDegrees>-6.41366525553166866302490234375</LongitudeDegrees>
            </Position>
            <AltitudeMeters>489.79998779296875</AltitudeMeters>
            <DistanceMeters>NAN</DistanceMeters>
          </Trackpoint>
          <Trackpoint>
            <Time>2019-10-09T13:21:02.000Z</Time>
            <Position>
              <LatitudeDegrees>38.42323531396687030792236328125</LatitudeDegrees>
              <LongitudeDegrees>-6.41376416198909282684326171875</LongitudeDegrees>
            </Position>
            <AltitudeMeters>490.20001220703125</AltitudeMeters>
            <DistanceMeters>NAN</DistanceMeters>
          </Trackpoint>
          <Trackpoint>
            <Time>2019-10-09T13:21:04.000Z</Time>
            <Position>
              <LatitudeDegrees>38.4232910536229610443115234375</LatitudeDegrees>
              <LongitudeDegrees>-6.413829959928989410400390625</LongitudeDegrees>
            </Position>
            <AltitudeMeters>490.20001220703125</AltitudeMeters>
            <DistanceMeters>NAN</DistanceMeters>
          </Trackpoint>
          <Trackpoint>
            <Time>2019-10-09T13:21:10.000Z</Time>
            <Position>
              <LatitudeDegrees>38.42347185127437114715576171875</LatitudeDegrees>
              <LongitudeDegrees>-6.41400053165853023529052734375</LongitudeDegrees>
            </Position>
            <AltitudeMeters>490.20001220703125</AltitudeMeters>
            <DistanceMeters>NAN</DistanceMeters>
          </Trackpoint>
          <Trackpoint>
            <Time>2019-10-09T13:21:13.000Z</Time>
            <Position>
              <LatitudeDegrees>38.42355550266802310943603515625</LatitudeDegrees>
              <LongitudeDegrees>-6.4141070656478404998779296875</LongitudeDegrees>
            </Position>
            <AltitudeMeters>490.399993896484375</AltitudeMeters>
            <DistanceMeters>NAN</DistanceMeters>
          </Trackpoint>
          <Trackpoint>
            <Time>2019-10-09T13:21:14.000Z</Time>
            <Position>
              <LatitudeDegrees>38.42358115129172801971435546875</LatitudeDegrees>
              <LongitudeDegrees>-6.4141365699470043182373046875</LongitudeDegrees>
            </Position>
            <AltitudeMeters>490.600006103515625</AltitudeMeters>
            <DistanceMeters>NAN</DistanceMeters>
          </Trackpoint>
          <Trackpoint>
            <Time>2019-10-09T13:21:18.000Z</Time>
            <Position>
              <LatitudeDegrees>38.42368424870073795318603515625</LatitudeDegrees>
              <LongitudeDegrees>-6.41423338092863559722900390625</LongitudeDegrees>
            </Position>
            <AltitudeMeters>490.399993896484375</AltitudeMeters>
            <DistanceMeters>NAN</DistanceMeters>
          </Trackpoint>
          <Trackpoint>
            <Time>2019-10-09T13:21:19.000Z</Time>
            <Position>
              <LatitudeDegrees>38.42370402999222278594970703125</LatitudeDegrees>
              <LongitudeDegrees>-6.414263807237148284912109375</LongitudeDegrees>
            </Position>
            <AltitudeMeters>490.79998779296875</AltitudeMeters>
            <DistanceMeters>NAN</DistanceMeters>
          </Trackpoint>
          <Trackpoint>
            <Time>2019-10-09T13:21:21.000Z</Time>
            <Position>
              <LatitudeDegrees>38.4237470291554927825927734375</LatitudeDegrees>
              <LongitudeDegrees>-6.41432021744549274444580078125</LongitudeDegrees>
            </Position>
            <AltitudeMeters>491.600006103515625</AltitudeMeters>
            <DistanceMeters>NAN</DistanceMeters>
          </Trackpoint>
          <Trackpoint>
            <Time>2019-10-09T13:21:26.000Z</Time>
            <Position>
              <LatitudeDegrees>38.42386479489505290985107421875</LatitudeDegrees>
              <LongitudeDegrees>-6.4144483767449855804443359375</LongitudeDegrees>
            </Position>
            <AltitudeMeters>491.79998779296875</AltitudeMeters>
            <DistanceMeters>NAN</DistanceMeters>
          </Trackpoint>
          <Trackpoint>
            <Time>2019-10-09T13:21:27.000Z</Time>
            <Position>
              <LatitudeDegrees>38.4238911978900432586669921875</LatitudeDegrees>
              <LongitudeDegrees>-6.4144694991409778594970703125</LongitudeDegrees>
            </Position>
            <AltitudeMeters>492</AltitudeMeters>
            <DistanceMeters>NAN</DistanceMeters>
          </Trackpoint>
          <Trackpoint>
            <Time>2019-10-09T13:21:28.000Z</Time>
            <Position>
              <LatitudeDegrees>38.423920534551143646240234375</LatitudeDegrees>
              <LongitudeDegrees>-6.41449145972728729248046875</LongitudeDegrees>
            </Position>
            <AltitudeMeters>492</AltitudeMeters>
            <DistanceMeters>NAN</DistanceMeters>
          </Trackpoint>
          <Trackpoint>
            <Time>2019-10-09T13:21:29.000Z</Time>
            <Position>
              <LatitudeDegrees>38.423954732716083526611328125</LatitudeDegrees>
              <LongitudeDegrees>-6.4144889451563358306884765625</LongitudeDegrees>
            </Position>
            <AltitudeMeters>492.20001220703125</AltitudeMeters>
            <DistanceMeters>NAN</DistanceMeters>
          </Trackpoint>
          <Trackpoint>
            <Time>2019-10-09T13:21:32.000Z</Time>
            <Position>
              <LatitudeDegrees>38.4240605123341083526611328125</LatitudeDegrees>
              <LongitudeDegrees>-6.4145130850374698638916015625</LongitudeDegrees>
            </Position>
            <AltitudeMeters>492.20001220703125</AltitudeMeters>
            <DistanceMeters>NAN</DistanceMeters>
          </Trackpoint>
          <Trackpoint>
            <Time>2019-10-09T13:21:34.000Z</Time>
            <Position>
              <LatitudeDegrees>38.4241232089698314666748046875</LatitudeDegrees>
              <LongitudeDegrees>-6.4145503006875514984130859375</LongitudeDegrees>
            </Position>
            <AltitudeMeters>492.79998779296875</AltitudeMeters>
            <DistanceMeters>NAN</DistanceMeters>
          </Trackpoint>
          <Trackpoint>
            <Time>2019-10-09T13:21:38.000Z</Time>
            <Position>
              <LatitudeDegrees>38.42426226474344730377197265625</LatitudeDegrees>
              <LongitudeDegrees>-6.414611153304576873779296875</LongitudeDegrees>
            </Position>
            <AltitudeMeters>492.399993896484375</AltitudeMeters>
            <DistanceMeters>NAN</DistanceMeters>
          </Trackpoint>
          <Trackpoint>
            <Time>2019-10-09T13:21:43.000Z</Time>
            <Position>
              <LatitudeDegrees>38.424416743218898773193359375</LatitudeDegrees>
              <LongitudeDegrees>-6.4147336967289447784423828125</LongitudeDegrees>
            </Position>
            <AltitudeMeters>492.399993896484375</AltitudeMeters>
            <DistanceMeters>NAN</DistanceMeters>
          </Trackpoint>
          <Trackpoint>
            <Time>2019-10-09T13:21:46.000Z</Time>
            <Position>
              <LatitudeDegrees>38.42441766522824764251708984375</LatitudeDegrees>
              <LongitudeDegrees>-6.414879374206066131591796875</LongitudeDegrees>
            </Position>
            <AltitudeMeters>491.79998779296875</AltitudeMeters>
            <DistanceMeters>NAN</DistanceMeters>
          </Trackpoint>
          <Trackpoint>
            <Time>2019-10-09T13:21:47.000Z</Time>
            <Position>
              <LatitudeDegrees>38.4244130551815032958984375</LatitudeDegrees>
              <LongitudeDegrees>-6.41492857597768306732177734375</LongitudeDegrees>
            </Position>
            <AltitudeMeters>492</AltitudeMeters>
            <DistanceMeters>NAN</DistanceMeters>
          </Trackpoint>
          <Trackpoint>
            <Time>2019-10-09T13:21:52.000Z</Time>
            <Position>
              <LatitudeDegrees>38.4243827126920223236083984375</LatitudeDegrees>
              <LongitudeDegrees>-6.4151720702648162841796875</LongitudeDegrees>
            </Position>
            <AltitudeMeters>492.399993896484375</AltitudeMeters>
            <DistanceMeters>NAN</DistanceMeters>
          </Trackpoint>
          <Trackpoint>
            <Time>2019-10-09T13:21:54.000Z</Time>
            <Position>
              <LatitudeDegrees>38.4243699721992015838623046875</LatitudeDegrees>
              <LongitudeDegrees>-6.41526971943676471710205078125</LongitudeDegrees>
            </Position>
            <AltitudeMeters>492.399993896484375</AltitudeMeters>
            <DistanceMeters>NAN</DistanceMeters>
          </Trackpoint>
          <Trackpoint>
            <Time>2019-10-09T13:21:56.000Z</Time>
            <Position>
              <LatitudeDegrees>38.42435396276414394378662109375</LatitudeDegrees>
              <LongitudeDegrees>-6.41536409966647624969482421875</LongitudeDegrees>
            </Position>
            <AltitudeMeters>492.399993896484375</AltitudeMeters>
            <DistanceMeters>NAN</DistanceMeters>
          </Trackpoint>
          <Trackpoint>
            <Time>2019-10-09T13:22:02.000Z</Time>
            <Position>
              <LatitudeDegrees>38.4243156574666500091552734375</LatitudeDegrees>
              <LongitudeDegrees>-6.41567037440836429595947265625</LongitudeDegrees>
            </Position>
            <AltitudeMeters>491.79998779296875</AltitudeMeters>
            <DistanceMeters>NAN</DistanceMeters>
          </Trackpoint>
          <Trackpoint>
            <Time>2019-10-09T13:22:07.000Z</Time>
            <Position>
              <LatitudeDegrees>38.4242861531674861907958984375</LatitudeDegrees>
              <LongitudeDegrees>-6.41593993641436100006103515625</LongitudeDegrees>
            </Position>
            <AltitudeMeters>492.399993896484375</AltitudeMeters>
            <DistanceMeters>NAN</DistanceMeters>
          </Trackpoint>
          <Trackpoint>
            <Time>2019-10-09T13:22:09.000Z</Time>
            <Position>
              <LatitudeDegrees>38.4243015758693218231201171875</LatitudeDegrees>
              <LongitudeDegrees>-6.41604387201368808746337890625</LongitudeDegrees>
            </Position>
            <AltitudeMeters>491.79998779296875</AltitudeMeters>
            <DistanceMeters>NAN</DistanceMeters>
          </Trackpoint>
          <Trackpoint>
            <Time>2019-10-09T13:22:12.000Z</Time>
            <Position>
              <LatitudeDegrees>38.4243984706699848175048828125</LatitudeDegrees>
              <LongitudeDegrees>-6.416118554770946502685546875</LongitudeDegrees>
            </Position>
            <AltitudeMeters>491.399993896484375</AltitudeMeters>
            <DistanceMeters>NAN</DistanceMeters>
          </Trackpoint>
          <Trackpoint>
            <Time>2019-10-09T13:22:13.000Z</Time>
            <Position>
              <LatitudeDegrees>38.42443644069135189056396484375</LatitudeDegrees>
              <LongitudeDegrees>-6.4161314629018306732177734375</LongitudeDegrees>
            </Position>
            <AltitudeMeters>491.20001220703125</AltitudeMeters>
            <DistanceMeters>NAN</DistanceMeters>
          </Trackpoint>
          <Trackpoint>
            <Time>2019-10-09T13:22:16.000Z</Time>
            <Position>
              <LatitudeDegrees>38.4245583973824977874755859375</LatitudeDegrees>
              <LongitudeDegrees>-6.41617831774055957794189453125</LongitudeDegrees>
            </Position>
            <AltitudeMeters>490.600006103515625</AltitudeMeters>
            <DistanceMeters>NAN</DistanceMeters>
          </Trackpoint>
          <Trackpoint>
            <Time>2019-10-09T13:22:18.000Z</Time>
            <Position>
              <LatitudeDegrees>38.42463634908199310302734375</LatitudeDegrees>
              <LongitudeDegrees>-6.41621620394289493560791015625</LongitudeDegrees>
            </Position>
            <AltitudeMeters>490.600006103515625</AltitudeMeters>
            <DistanceMeters>NAN</DistanceMeters>
          </Trackpoint>
          <Trackpoint>
            <Time>2019-10-09T13:22:21.000Z</Time>
            <Position>
              <LatitudeDegrees>38.4247659333050251007080078125</LatitudeDegrees>
              <LongitudeDegrees>-6.41627378761768341064453125</LongitudeDegrees>
            </Position>
            <AltitudeMeters>491</AltitudeMeters>
            <DistanceMeters>NAN</DistanceMeters>
          </Trackpoint>
          <Trackpoint>
            <Time>2019-10-09T13:22:23.000Z</Time>
            <Position>
              <LatitudeDegrees>38.4248551167547702789306640625</LatitudeDegrees>
              <LongitudeDegrees>-6.4163093268871307373046875</LongitudeDegrees>
            </Position>
            <AltitudeMeters>490.399993896484375</AltitudeMeters>
            <DistanceMeters>NAN</DistanceMeters>
          </Trackpoint>
          <Trackpoint>
            <Time>2019-10-09T13:22:25.000Z</Time>
            <Position>
              <LatitudeDegrees>38.4249392710626125335693359375</LatitudeDegrees>
              <LongitudeDegrees>-6.41635014675557613372802734375</LongitudeDegrees>
            </Position>
            <AltitudeMeters>490.600006103515625</AltitudeMeters>
            <DistanceMeters>NAN</DistanceMeters>
          </Trackpoint>
          <Trackpoint>
            <Time>2019-10-09T13:22:28.000Z</Time>
            <Position>
              <LatitudeDegrees>38.425059132277965545654296875</LatitudeDegrees>
              <LongitudeDegrees>-6.41640513204038143157958984375</LongitudeDegrees>
            </Position>
            <AltitudeMeters>489.600006103515625</AltitudeMeters>
            <DistanceMeters>NAN</DistanceMeters>
          </Trackpoint>
          <Trackpoint>
            <Time>2019-10-09T13:22:32.000Z</Time>
            <Position>
              <LatitudeDegrees>38.425210006535053253173828125</LatitudeDegrees>
              <LongitudeDegrees>-6.4164761267602443695068359375</LongitudeDegrees>
            </Position>
            <AltitudeMeters>489.600006103515625</AltitudeMeters>
            <DistanceMeters>NAN</DistanceMeters>
          </Trackpoint>
          <Trackpoint>
            <Time>2019-10-09T13:22:33.000Z</Time>
            <Position>
              <LatitudeDegrees>38.42524026520550251007080078125</LatitudeDegrees>
              <LongitudeDegrees>-6.4165042899549007415771484375</LongitudeDegrees>
            </Position>
            <AltitudeMeters>489.79998779296875</AltitudeMeters>
            <DistanceMeters>NAN</DistanceMeters>
          </Trackpoint>
          <Trackpoint>
            <Time>2019-10-09T13:22:34.000Z</Time>
            <Position>
              <LatitudeDegrees>38.42526239342987537384033203125</LatitudeDegrees>
              <LongitudeDegrees>-6.41653572209179401397705078125</LongitudeDegrees>
            </Position>
            <AltitudeMeters>490</AltitudeMeters>
            <DistanceMeters>NAN</DistanceMeters>
          </Trackpoint>
          <Trackpoint>
            <Time>2019-10-09T13:22:35.000Z</Time>
            <Position>
              <LatitudeDegrees>38.42528100125491619110107421875</LatitudeDegrees>
              <LongitudeDegrees>-6.41656958498060703277587890625</LongitudeDegrees>
            </Position>
            <AltitudeMeters>490.399993896484375</AltitudeMeters>
            <DistanceMeters>NAN</DistanceMeters>
          </Trackpoint>
          <Trackpoint>
            <Time>2019-10-09T13:22:37.000Z</Time>
            <Position>
              <LatitudeDegrees>38.4253097511827945709228515625</LatitudeDegrees>
              <LongitudeDegrees>-6.41663446091115474700927734375</LongitudeDegrees>
            </Position>
            <AltitudeMeters>490.20001220703125</AltitudeMeters>
            <DistanceMeters>NAN</DistanceMeters>
          </Trackpoint>
          <Trackpoint>
            <Time>2019-10-09T13:22:39.000Z</Time>
            <Position>
              <LatitudeDegrees>38.4253248386085033416748046875</LatitudeDegrees>
              <LongitudeDegrees>-6.416690535843372344970703125</LongitudeDegrees>
            </Position>
            <AltitudeMeters>490.20001220703125</AltitudeMeters>
            <DistanceMeters>NAN</DistanceMeters>
          </Trackpoint>
          <Trackpoint>
            <Time>2019-10-09T13:22:40.000Z</Time>
            <Position>
              <LatitudeDegrees>38.42532374896109104156494140625</LatitudeDegrees>
              <LongitudeDegrees>-6.41672431491315364837646484375</LongitudeDegrees>
            </Position>
            <AltitudeMeters>490</AltitudeMeters>
            <DistanceMeters>NAN</DistanceMeters>
          </Trackpoint>
          <Trackpoint>
            <Time>2019-10-09T13:22:42.000Z</Time>
            <Position>
              <LatitudeDegrees>38.42531771399080753326416015625</LatitudeDegrees>
              <LongitudeDegrees>-6.41678952611982822418212890625</LongitudeDegrees>
            </Position>
            <AltitudeMeters>489.20001220703125</AltitudeMeters>
            <DistanceMeters>NAN</DistanceMeters>
          </Trackpoint>
          <Trackpoint>
            <Time>2019-10-09T13:22:44.000Z</Time>
            <Position>
              <LatitudeDegrees>38.425310589373111724853515625</LatitudeDegrees>
              <LongitudeDegrees>-6.41685641370713710784912109375</LongitudeDegrees>
            </Position>
            <AltitudeMeters>488.79998779296875</AltitudeMeters>
            <DistanceMeters>NAN</DistanceMeters>
          </Trackpoint>
          <Trackpoint>
            <Time>2019-10-09T13:22:46.000Z</Time>
            <Position>
              <LatitudeDegrees>38.4253147803246974945068359375</LatitudeDegrees>
              <LongitudeDegrees>-6.4169289171695709228515625</LongitudeDegrees>
            </Position>
            <AltitudeMeters>488.399993896484375</AltitudeMeters>
            <DistanceMeters>NAN</DistanceMeters>
          </Trackpoint>
          <Trackpoint>
            <Time>2019-10-09T13:22:48.000Z</Time>
            <Position>
              <LatitudeDegrees>38.42531570233404636383056640625</LatitudeDegrees>
              <LongitudeDegrees>-6.41699588857591152191162109375</LongitudeDegrees>
            </Position>
            <AltitudeMeters>488.20001220703125</AltitudeMeters>
            <DistanceMeters>NAN</DistanceMeters>
          </Trackpoint>
          <Trackpoint>
            <Time>2019-10-09T13:22:51.000Z</Time>
            <Position>
              <LatitudeDegrees>38.42532492242753505706787109375</LatitudeDegrees>
              <LongitudeDegrees>-6.41709026880562305450439453125</LongitudeDegrees>
            </Position>
            <AltitudeMeters>487.600006103515625</AltitudeMeters>
            <DistanceMeters>NAN</DistanceMeters>
          </Trackpoint>
          <Trackpoint>
            <Time>2019-10-09T13:22:54.000Z</Time>
            <Position>
              <LatitudeDegrees>38.42532894574105739593505859375</LatitudeDegrees>
              <LongitudeDegrees>-6.41718707978725433349609375</LongitudeDegrees>
            </Position>
            <AltitudeMeters>487.79998779296875</AltitudeMeters>
            <DistanceMeters>NAN</DistanceMeters>
          </Trackpoint>
          <Trackpoint>
            <Time>2019-10-09T13:22:57.000Z</Time>
            <Position>
              <LatitudeDegrees>38.42534177005290985107421875</LatitudeDegrees>
              <LongitudeDegrees>-6.4172925241291522979736328125</LongitudeDegrees>
            </Position>
            <AltitudeMeters>487.20001220703125</AltitudeMeters>
            <DistanceMeters>NAN</DistanceMeters>
          </Trackpoint>
          <Trackpoint>
            <Time>2019-10-09T13:23:00.000Z</Time>
            <Position>
              <LatitudeDegrees>38.42534738592803478240966796875</LatitudeDegrees>
              <LongitudeDegrees>-6.4173978008329868316650390625</LongitudeDegrees>
            </Position>
            <AltitudeMeters>486</AltitudeMeters>
            <DistanceMeters>NAN</DistanceMeters>
          </Trackpoint>
          <Trackpoint>
            <Time>2019-10-09T13:23:03.000Z</Time>
            <Position>
              <LatitudeDegrees>38.4253281913697719573974609375</LatitudeDegrees>
              <LongitudeDegrees>-6.4174953661859035491943359375</LongitudeDegrees>
            </Position>
            <AltitudeMeters>487.399993896484375</AltitudeMeters>
            <DistanceMeters>NAN</DistanceMeters>
          </Trackpoint>
          <Trackpoint>
            <Time>2019-10-09T13:23:05.000Z</Time>
            <Position>
              <LatitudeDegrees>38.4253228269517421722412109375</LatitudeDegrees>
              <LongitudeDegrees>-6.41755320131778717041015625</LongitudeDegrees>
            </Position>
            <AltitudeMeters>487</AltitudeMeters>
            <DistanceMeters>NAN</DistanceMeters>
          </Trackpoint>
          <Trackpoint>
            <Time>2019-10-09T13:23:09.000Z</Time>
            <Position>
              <LatitudeDegrees>38.42533984221518039703369140625</LatitudeDegrees>
              <LongitudeDegrees>-6.4176764152944087982177734375</LongitudeDegrees>
            </Position>
            <AltitudeMeters>486.600006103515625</AltitudeMeters>
            <DistanceMeters>NAN</DistanceMeters>
          </Trackpoint>
          <Trackpoint>
            <Time>2019-10-09T13:23:11.000Z</Time>
            <Position>
              <LatitudeDegrees>38.42535191215574741363525390625</LatitudeDegrees>
              <LongitudeDegrees>-6.4177317358553409576416015625</LongitudeDegrees>
            </Position>
            <AltitudeMeters>486.79998779296875</AltitudeMeters>
            <DistanceMeters>NAN</DistanceMeters>
          </Trackpoint>
          <Trackpoint>
            <Time>2019-10-09T13:23:13.000Z</Time>
            <Position>
              <LatitudeDegrees>38.42536029405891895294189453125</LatitudeDegrees>
              <LongitudeDegrees>-6.41780306585133075714111328125</LongitudeDegrees>
            </Position>
            <AltitudeMeters>486.600006103515625</AltitudeMeters>
            <DistanceMeters>NAN</DistanceMeters>
          </Trackpoint>
          <Trackpoint>
            <Time>2019-10-09T13:23:14.000Z</Time>
            <Position>
              <LatitudeDegrees>38.4253650717437267303466796875</LatitudeDegrees>
              <LongitudeDegrees>-6.41784179024398326873779296875</LongitudeDegrees>
            </Position>
            <AltitudeMeters>486.399993896484375</AltitudeMeters>
            <DistanceMeters>NAN</DistanceMeters>
          </Trackpoint>
          <Trackpoint>
            <Time>2019-10-09T13:23:15.000Z</Time>
            <Position>
              <LatitudeDegrees>38.42536993324756622314453125</LatitudeDegrees>
              <LongitudeDegrees>-6.4178785867989063262939453125</LongitudeDegrees>
            </Position>
            <AltitudeMeters>486.399993896484375</AltitudeMeters>
            <DistanceMeters>NAN</DistanceMeters>
          </Trackpoint>
          <Trackpoint>
            <Time>2019-10-09T13:23:16.000Z</Time>
            <Position>
              <LatitudeDegrees>38.4253731183707714080810546875</LatitudeDegrees>
              <LongitudeDegrees>-6.41791186295449733734130859375</LongitudeDegrees>
            </Position>
            <AltitudeMeters>486.399993896484375</AltitudeMeters>
            <DistanceMeters>NAN</DistanceMeters>
          </Trackpoint>
          <Trackpoint>
            <Time>2019-10-09T13:23:17.000Z</Time>
            <Position>
              <LatitudeDegrees>38.42537538148462772369384765625</LatitudeDegrees>
              <LongitudeDegrees>-6.4179553650319576263427734375</LongitudeDegrees>
            </Position>
            <AltitudeMeters>486.20001220703125</AltitudeMeters>
            <DistanceMeters>NAN</DistanceMeters>
          </Trackpoint>
          <Trackpoint>
            <Time>2019-10-09T13:23:21.000Z</Time>
            <Position>
              <LatitudeDegrees>38.42538208700716495513916015625</LatitudeDegrees>
              <LongitudeDegrees>-6.41812317073345184326171875</LongitudeDegrees>
            </Position>
            <AltitudeMeters>486</AltitudeMeters>
            <DistanceMeters>NAN</DistanceMeters>
          </Trackpoint>
          <Trackpoint>
            <Time>2019-10-09T13:23:23.000Z</Time>
            <Position>
              <LatitudeDegrees>38.4253939054906368255615234375</LatitudeDegrees>
              <LongitudeDegrees>-6.41820631921291351318359375</LongitudeDegrees>
            </Position>
            <AltitudeMeters>486</AltitudeMeters>
            <DistanceMeters>NAN</DistanceMeters>
          </Trackpoint>
          <Trackpoint>
            <Time>2019-10-09T13:23:26.000Z</Time>
            <Position>
              <LatitudeDegrees>38.42541712336242198944091796875</LatitudeDegrees>
              <LongitudeDegrees>-6.41833397559821605682373046875</LongitudeDegrees>
            </Position>
            <AltitudeMeters>486.20001220703125</AltitudeMeters>
            <DistanceMeters>NAN</DistanceMeters>
          </Trackpoint>
          <Trackpoint>
            <Time>2019-10-09T13:23:28.000Z</Time>
            <Position>
              <LatitudeDegrees>38.42543221078813076019287109375</LatitudeDegrees>
              <LongitudeDegrees>-6.418424583971500396728515625</LongitudeDegrees>
            </Position>
            <AltitudeMeters>486</AltitudeMeters>
            <DistanceMeters>NAN</DistanceMeters>
          </Trackpoint>
          <Trackpoint>
            <Time>2019-10-09T13:23:29.000Z</Time>
            <Position>
              <LatitudeDegrees>38.4254381619393825531005859375</LatitudeDegrees>
              <LongitudeDegrees>-6.41846640966832637786865234375</LongitudeDegrees>
            </Position>
            <AltitudeMeters>485.79998779296875</AltitudeMeters>
            <DistanceMeters>NAN</DistanceMeters>
          </Trackpoint>
          <Trackpoint>
            <Time>2019-10-09T13:23:32.000Z</Time>
            <Position>
              <LatitudeDegrees>38.42544545419514179229736328125</LatitudeDegrees>
              <LongitudeDegrees>-6.41857034526765346527099609375</LongitudeDegrees>
            </Position>
            <AltitudeMeters>485.79998779296875</AltitudeMeters>
            <DistanceMeters>NAN</DistanceMeters>
          </Trackpoint>
          <Trackpoint>
            <Time>2019-10-09T13:23:33.000Z</Time>
            <Position>
              <LatitudeDegrees>38.42544461600482463836669921875</LatitudeDegrees>
              <LongitudeDegrees>-6.4185977540910243988037109375</LongitudeDegrees>
            </Position>
            <AltitudeMeters>486</AltitudeMeters>
            <DistanceMeters>NAN</DistanceMeters>
          </Trackpoint>
          <Trackpoint>
            <Time>2019-10-09T13:23:34.000Z</Time>
            <Position>
              <LatitudeDegrees>38.425444699823856353759765625</LatitudeDegrees>
              <LongitudeDegrees>-6.418621726334095001220703125</LongitudeDegrees>
            </Position>
            <AltitudeMeters>486</AltitudeMeters>
            <DistanceMeters>NAN</DistanceMeters>
          </Trackpoint>
          <Trackpoint>
            <Time>2019-10-09T13:23:40.000Z</Time>
            <Position>
              <LatitudeDegrees>38.42543891631066799163818359375</LatitudeDegrees>
              <LongitudeDegrees>-6.4187653921544551849365234375</LongitudeDegrees>
            </Position>
            <AltitudeMeters>485.79998779296875</AltitudeMeters>
            <DistanceMeters>NAN</DistanceMeters>
          </Trackpoint>
          <Trackpoint>
            <Time>2019-10-09T13:23:41.000Z</Time>
            <Position>
              <LatitudeDegrees>38.42543640173971652984619140625</LatitudeDegrees>
              <LongitudeDegrees>-6.4187935553491115570068359375</LongitudeDegrees>
            </Position>
            <AltitudeMeters>486</AltitudeMeters>
            <DistanceMeters>NAN</DistanceMeters>
          </Trackpoint>
          <Trackpoint>
            <Time>2019-10-09T13:23:43.000Z</Time>
            <Position>
              <LatitudeDegrees>38.4254344739019870758056640625</LatitudeDegrees>
              <LongitudeDegrees>-6.41883102245628833770751953125</LongitudeDegrees>
            </Position>
            <AltitudeMeters>486.20001220703125</AltitudeMeters>
            <DistanceMeters>NAN</DistanceMeters>
          </Trackpoint>
          <Trackpoint>
            <Time>2019-10-09T13:23:45.000Z</Time>
            <Position>
              <LatitudeDegrees>38.42542651109397411346435546875</LatitudeDegrees>
              <LongitudeDegrees>-6.41887427307665348052978515625</LongitudeDegrees>
            </Position>
            <AltitudeMeters>485.79998779296875</AltitudeMeters>
            <DistanceMeters>NAN</DistanceMeters>
          </Trackpoint>
          <Trackpoint>
            <Time>2019-10-09T13:23:47.000Z</Time>
            <Position>
              <LatitudeDegrees>38.42541008256375789642333984375</LatitudeDegrees>
              <LongitudeDegrees>-6.41890964470803737640380859375</LongitudeDegrees>
            </Position>
            <AltitudeMeters>485.79998779296875</AltitudeMeters>
            <DistanceMeters>NAN</DistanceMeters>
          </Trackpoint>
          <Trackpoint>
            <Time>2019-10-09T13:23:49.000Z</Time>
            <Position>
              <LatitudeDegrees>38.42539013363420963287353515625</LatitudeDegrees>
              <LongitudeDegrees>-6.418931186199188232421875</LongitudeDegrees>
            </Position>
            <AltitudeMeters>485.79998779296875</AltitudeMeters>
            <DistanceMeters>NAN</DistanceMeters>
          </Trackpoint>
          <Trackpoint>
            <Time>2019-10-09T13:23:50.000Z</Time>
            <Position>
              <LatitudeDegrees>38.42540555633604526519775390625</LatitudeDegrees>
              <LongitudeDegrees>-6.418973766267299652099609375</LongitudeDegrees>
            </Position>
            <AltitudeMeters>485.79998779296875</AltitudeMeters>
            <DistanceMeters>NAN</DistanceMeters>
          </Trackpoint>
          <Trackpoint>
            <Time>2019-10-09T13:23:51.000Z</Time>
            <Position>
              <LatitudeDegrees>38.4254108369350433349609375</LatitudeDegrees>
              <LongitudeDegrees>-6.41897611320018768310546875</LongitudeDegrees>
            </Position>
            <AltitudeMeters>485.600006103515625</AltitudeMeters>
            <DistanceMeters>NAN</DistanceMeters>
          </Trackpoint>
          <Trackpoint>
            <Time>2019-10-09T13:23:54.000Z</Time>
            <Position>
              <LatitudeDegrees>38.42541209422051906585693359375</LatitudeDegrees>
              <LongitudeDegrees>-6.41898818314075469970703125</LongitudeDegrees>
            </Position>
            <AltitudeMeters>485.79998779296875</AltitudeMeters>
            <DistanceMeters>NAN</DistanceMeters>
          </Trackpoint>
          <Trackpoint>
            <Time>2019-10-09T13:23:55.000Z</Time>
            <Position>
              <LatitudeDegrees>38.42541209422051906585693359375</LatitudeDegrees>
              <LongitudeDegrees>-6.41898818314075469970703125</LongitudeDegrees>
            </Position>
            <AltitudeMeters>485.79998779296875</AltitudeMeters>
            <DistanceMeters>NAN</DistanceMeters>
          </Trackpoint>
          <Trackpoint>
            <Time>2019-10-09T13:23:59.000Z</Time>
            <Position>
              <LatitudeDegrees>38.42541209422051906585693359375</LatitudeDegrees>
              <LongitudeDegrees>-6.41898818314075469970703125</LongitudeDegrees>
            </Position>
            <AltitudeMeters>485.79998779296875</AltitudeMeters>
            <DistanceMeters>NAN</DistanceMeters>
          </Trackpoint>
          <Trackpoint>
            <Time>2019-10-09T13:24:01.000Z</Time>
            <Position>
              <LatitudeDegrees>38.42541209422051906585693359375</LatitudeDegrees>
              <LongitudeDegrees>-6.41898818314075469970703125</LongitudeDegrees>
            </Position>
            <AltitudeMeters>485.600006103515625</AltitudeMeters>
            <DistanceMeters>NAN</DistanceMeters>
          </Trackpoint>
          <Trackpoint>
            <Time>2019-10-09T13:24:06.000Z</Time>
            <Position>
              <LatitudeDegrees>38.42541209422051906585693359375</LatitudeDegrees>
              <LongitudeDegrees>-6.41898818314075469970703125</LongitudeDegrees>
            </Position>
            <AltitudeMeters>486</AltitudeMeters>
            <DistanceMeters>NAN</DistanceMeters>
          </Trackpoint>
          <Trackpoint>
            <Time>2019-10-09T13:24:08.000Z</Time>
            <Position>
              <LatitudeDegrees>38.42541209422051906585693359375</LatitudeDegrees>
              <LongitudeDegrees>-6.41898818314075469970703125</LongitudeDegrees>
            </Position>
            <AltitudeMeters>485.79998779296875</AltitudeMeters>
            <DistanceMeters>NAN</DistanceMeters>
          </Trackpoint>
          <Trackpoint>
            <Time>2019-10-09T13:24:13.000Z</Time>
            <Position>
              <LatitudeDegrees>38.42541209422051906585693359375</LatitudeDegrees>
              <LongitudeDegrees>-6.41898818314075469970703125</LongitudeDegrees>
            </Position>
            <AltitudeMeters>485.600006103515625</AltitudeMeters>
            <DistanceMeters>NAN</DistanceMeters>
          </Trackpoint>
          <Trackpoint>
            <Time>2019-10-09T13:24:21.000Z</Time>
            <Position>
              <LatitudeDegrees>38.42541209422051906585693359375</LatitudeDegrees>
              <LongitudeDegrees>-6.41898818314075469970703125</LongitudeDegrees>
            </Position>
            <AltitudeMeters>485.79998779296875</AltitudeMeters>
            <DistanceMeters>NAN</DistanceMeters>
          </Trackpoint>
          <Trackpoint>
            <Time>2019-10-09T13:24:27.000Z</Time>
            <Position>
              <LatitudeDegrees>38.42540304176509380340576171875</LatitudeDegrees>
              <LongitudeDegrees>-6.4190017618238925933837890625</LongitudeDegrees>
            </Position>
            <AltitudeMeters>485.600006103515625</AltitudeMeters>
            <DistanceMeters>NAN</DistanceMeters>
          </Trackpoint>
          <Trackpoint>
            <Time>2019-10-09T13:24:29.000Z</Time>
            <Position>
              <LatitudeDegrees>38.425395749509334564208984375</LatitudeDegrees>
              <LongitudeDegrees>-6.41899765469133853912353515625</LongitudeDegrees>
            </Position>
            <AltitudeMeters>485.600006103515625</AltitudeMeters>
            <DistanceMeters>NAN</DistanceMeters>
          </Trackpoint>
          <Trackpoint>
            <Time>2019-10-09T13:24:31.000Z</Time>
            <Position>
              <LatitudeDegrees>38.42540270648896694183349609375</LatitudeDegrees>
              <LongitudeDegrees>-6.41900637187063694000244140625</LongitudeDegrees>
            </Position>
            <AltitudeMeters>485.79998779296875</AltitudeMeters>
            <DistanceMeters>NAN</DistanceMeters>
          </Trackpoint>
          <Trackpoint>
            <Time>2019-10-09T13:24:34.000Z</Time>
            <Position>
              <LatitudeDegrees>38.4254136867821216583251953125</LatitudeDegrees>
              <LongitudeDegrees>-6.41903243958950042724609375</LongitudeDegrees>
            </Position>
            <AltitudeMeters>486.20001220703125</AltitudeMeters>
            <DistanceMeters>NAN</DistanceMeters>
          </Trackpoint>
          <Trackpoint>
            <Time>2019-10-09T13:24:35.000Z</Time>
            <Position>
              <LatitudeDegrees>38.42541955411434173583984375</LatitudeDegrees>
              <LongitudeDegrees>-6.41905129887163639068603515625</LongitudeDegrees>
            </Position>
            <AltitudeMeters>486.20001220703125</AltitudeMeters>
            <DistanceMeters>NAN</DistanceMeters>
          </Trackpoint>
          <Trackpoint>
            <Time>2019-10-09T13:24:39.000Z</Time>
            <Position>
              <LatitudeDegrees>38.4254331327974796295166015625</LatitudeDegrees>
              <LongitudeDegrees>-6.41912271268665790557861328125</LongitudeDegrees>
            </Position>
            <AltitudeMeters>486.20001220703125</AltitudeMeters>
            <DistanceMeters>NAN</DistanceMeters>
          </Trackpoint>
          <Trackpoint>
            <Time>2019-10-09T13:24:40.000Z</Time>
            <Position>
              <LatitudeDegrees>38.42543740756809711456298828125</LatitudeDegrees>
              <LongitudeDegrees>-6.41914509236812591552734375</LongitudeDegrees>
            </Position>
            <AltitudeMeters>486.20001220703125</AltitudeMeters>
            <DistanceMeters>NAN</DistanceMeters>
          </Trackpoint>
          <Trackpoint>
            <Time>2019-10-09T13:24:41.000Z</Time>
            <Position>
              <LatitudeDegrees>38.42543439008295536041259765625</LatitudeDegrees>
              <LongitudeDegrees>-6.4191739261150360107421875</LongitudeDegrees>
            </Position>
            <AltitudeMeters>486.399993896484375</AltitudeMeters>
            <DistanceMeters>NAN</DistanceMeters>
          </Trackpoint>
          <Trackpoint>
            <Time>2019-10-10T07:02:39.000Z</Time>
            <Position>
              <LatitudeDegrees>38.4239597618579864501953125</LatitudeDegrees>
              <LongitudeDegrees>-6.41864083707332611083984375</LongitudeDegrees>
            </Position>
            <AltitudeMeters>424</AltitudeMeters>
            <DistanceMeters>NAN</DistanceMeters>
          </Trackpoint>
          <Trackpoint>
            <Time>2019-10-10T07:02:43.000Z</Time>
            <Position>
              <LatitudeDegrees>38.4238523058593273162841796875</LatitudeDegrees>
              <LongitudeDegrees>-6.41857570968568325042724609375</LongitudeDegrees>
            </Position>
            <AltitudeMeters>424</AltitudeMeters>
            <DistanceMeters>NAN</DistanceMeters>
          </Trackpoint>
          <Trackpoint>
            <Time>2019-10-10T07:02:44.000Z</Time>
            <Position>
              <LatitudeDegrees>38.4238234721124172210693359375</LatitudeDegrees>
              <LongitudeDegrees>-6.41855257563292980194091796875</LongitudeDegrees>
            </Position>
            <AltitudeMeters>423</AltitudeMeters>
            <DistanceMeters>NAN</DistanceMeters>
          </Trackpoint>
          <Trackpoint>
            <Time>2019-10-10T07:02:48.000Z</Time>
            <Position>
              <LatitudeDegrees>38.42371911741793155670166015625</LatitudeDegrees>
              <LongitudeDegrees>-6.4184676669538021087646484375</LongitudeDegrees>
            </Position>
            <AltitudeMeters>423.600006103515625</AltitudeMeters>
            <DistanceMeters>NAN</DistanceMeters>
          </Trackpoint>
          <Trackpoint>
            <Time>2019-10-10T07:02:51.000Z</Time>
            <Position>
              <LatitudeDegrees>38.423654325306415557861328125</LatitudeDegrees>
              <LongitudeDegrees>-6.41843833029270172119140625</LongitudeDegrees>
            </Position>
            <AltitudeMeters>424</AltitudeMeters>
            <DistanceMeters>NAN</DistanceMeters>
          </Trackpoint>
          <Trackpoint>
            <Time>2019-10-10T07:02:52.000Z</Time>
            <Position>
              <LatitudeDegrees>38.42362582683563232421875</LatitudeDegrees>
              <LongitudeDegrees>-6.4184344746172428131103515625</LongitudeDegrees>
            </Position>
            <AltitudeMeters>424</AltitudeMeters>
            <DistanceMeters>NAN</DistanceMeters>
          </Trackpoint>
          <Trackpoint>
            <Time>2019-10-10T07:02:55.000Z</Time>
            <Position>
              <LatitudeDegrees>38.423538319766521453857421875</LatitudeDegrees>
              <LongitudeDegrees>-6.418397761881351470947265625</LongitudeDegrees>
            </Position>
            <AltitudeMeters>424.399993896484375</AltitudeMeters>
            <DistanceMeters>NAN</DistanceMeters>
          </Trackpoint>
          <Trackpoint>
            <Time>2019-10-10T07:02:56.000Z</Time>
            <Position>
              <LatitudeDegrees>38.4235116653144359588623046875</LatitudeDegrees>
              <LongitudeDegrees>-6.418390385806560516357421875</LongitudeDegrees>
            </Position>
            <AltitudeMeters>424.399993896484375</AltitudeMeters>
            <DistanceMeters>NAN</DistanceMeters>
          </Trackpoint>
          <Trackpoint>
            <Time>2019-10-10T07:03:01.000Z</Time>
            <Position>
              <LatitudeDegrees>38.42339557595551013946533203125</LatitudeDegrees>
              <LongitudeDegrees>-6.41834604553878307342529296875</LongitudeDegrees>
            </Position>
            <AltitudeMeters>425</AltitudeMeters>
            <DistanceMeters>NAN</DistanceMeters>
          </Trackpoint>
          <Trackpoint>
            <Time>2019-10-10T07:03:02.000Z</Time>
            <Position>
              <LatitudeDegrees>38.4233832545578479766845703125</LatitudeDegrees>
              <LongitudeDegrees>-6.418325342237949371337890625</LongitudeDegrees>
            </Position>
            <AltitudeMeters>424.79998779296875</AltitudeMeters>
            <DistanceMeters>NAN</DistanceMeters>
          </Trackpoint>
          <Trackpoint>
            <Time>2019-10-10T07:03:05.000Z</Time>
            <Position>
              <LatitudeDegrees>38.42336523346602916717529296875</LatitudeDegrees>
              <LongitudeDegrees>-6.41824982129037380218505859375</LongitudeDegrees>
            </Position>
            <AltitudeMeters>425</AltitudeMeters>
            <DistanceMeters>NAN</DistanceMeters>
          </Trackpoint>
          <Trackpoint>
            <Time>2019-10-10T07:03:07.000Z</Time>
            <Position>
              <LatitudeDegrees>38.42336607165634632110595703125</LatitudeDegrees>
              <LongitudeDegrees>-6.41821377910673618316650390625</LongitudeDegrees>
            </Position>
            <AltitudeMeters>424.79998779296875</AltitudeMeters>
            <DistanceMeters>NAN</DistanceMeters>
          </Trackpoint>
          <Trackpoint>
            <Time>2019-10-10T07:03:08.000Z</Time>
            <Position>
              <LatitudeDegrees>38.4233607910573482513427734375</LatitudeDegrees>
              <LongitudeDegrees>-6.41819399781525135040283203125</LongitudeDegrees>
            </Position>
            <AltitudeMeters>424.79998779296875</AltitudeMeters>
            <DistanceMeters>NAN</DistanceMeters>
          </Trackpoint>
          <Trackpoint>
            <Time>2019-10-10T07:03:12.000Z</Time>
            <Position>
              <LatitudeDegrees>38.42335483990609645843505859375</LatitudeDegrees>
              <LongitudeDegrees>-6.4180743880569934844970703125</LongitudeDegrees>
            </Position>
            <AltitudeMeters>425</AltitudeMeters>
            <DistanceMeters>NAN</DistanceMeters>
          </Trackpoint>
          <Trackpoint>
            <Time>2019-10-10T07:03:15.000Z</Time>
            <Position>
              <LatitudeDegrees>38.423359952867031097412109375</LatitudeDegrees>
              <LongitudeDegrees>-6.41796936281025409698486328125</LongitudeDegrees>
            </Position>
            <AltitudeMeters>424.79998779296875</AltitudeMeters>
            <DistanceMeters>NAN</DistanceMeters>
          </Trackpoint>
          <Trackpoint>
            <Time>2019-10-10T07:03:16.000Z</Time>
            <Position>
              <LatitudeDegrees>38.4233624674379825592041015625</LatitudeDegrees>
              <LongitudeDegrees>-6.41793952323496341705322265625</LongitudeDegrees>
            </Position>
            <AltitudeMeters>424.79998779296875</AltitudeMeters>
            <DistanceMeters>NAN</DistanceMeters>
          </Trackpoint>
          <Trackpoint>
            <Time>2019-10-10T07:03:18.000Z</Time>
            <Position>
              <LatitudeDegrees>38.4233641438186168670654296875</LatitudeDegrees>
              <LongitudeDegrees>-6.41785218380391597747802734375</LongitudeDegrees>
            </Position>
            <AltitudeMeters>425.20001220703125</AltitudeMeters>
            <DistanceMeters>NAN</DistanceMeters>
          </Trackpoint>
          <Trackpoint>
            <Time>2019-10-10T07:03:19.000Z</Time>
            <Position>
              <LatitudeDegrees>38.42337210662662982940673828125</LatitudeDegrees>
              <LongitudeDegrees>-6.417820751667022705078125</LongitudeDegrees>
            </Position>
            <AltitudeMeters>425.20001220703125</AltitudeMeters>
            <DistanceMeters>NAN</DistanceMeters>
          </Trackpoint>
          <Trackpoint>
            <Time>2019-10-10T07:03:23.000Z</Time>
            <Position>
              <LatitudeDegrees>38.4233866073191165924072265625</LatitudeDegrees>
              <LongitudeDegrees>-6.41768974252045154571533203125</LongitudeDegrees>
            </Position>
            <AltitudeMeters>425</AltitudeMeters>
            <DistanceMeters>NAN</DistanceMeters>
          </Trackpoint>
          <Trackpoint>
            <Time>2019-10-10T07:03:29.000Z</Time>
            <Position>
              <LatitudeDegrees>38.4234355576336383819580078125</LatitudeDegrees>
              <LongitudeDegrees>-6.417502574622631072998046875</LongitudeDegrees>
            </Position>
            <AltitudeMeters>425.79998779296875</AltitudeMeters>
            <DistanceMeters>NAN</DistanceMeters>
          </Trackpoint>
          <Trackpoint>
            <Time>2019-10-10T07:03:35.000Z</Time>
            <Position>
              <LatitudeDegrees>38.4235448576509952545166015625</LatitudeDegrees>
              <LongitudeDegrees>-6.41720644198358058929443359375</LongitudeDegrees>
            </Position>
            <AltitudeMeters>426.399993896484375</AltitudeMeters>
            <DistanceMeters>NAN</DistanceMeters>
          </Trackpoint>
          <Trackpoint>
            <Time>2019-10-10T07:03:37.000Z</Time>
            <Position>
              <LatitudeDegrees>38.423565812408924102783203125</LatitudeDegrees>
              <LongitudeDegrees>-6.41712362878024578094482421875</LongitudeDegrees>
            </Position>
            <AltitudeMeters>426.600006103515625</AltitudeMeters>
            <DistanceMeters>NAN</DistanceMeters>
          </Trackpoint>
          <Trackpoint>
            <Time>2019-10-10T07:03:42.000Z</Time>
            <Position>
              <LatitudeDegrees>38.4236199595034122467041015625</LatitudeDegrees>
              <LongitudeDegrees>-6.4169637858867645263671875</LongitudeDegrees>
            </Position>
            <AltitudeMeters>426.600006103515625</AltitudeMeters>
            <DistanceMeters>NAN</DistanceMeters>
          </Trackpoint>
          <Trackpoint>
            <Time>2019-10-10T07:03:46.000Z</Time>
            <Position>
              <LatitudeDegrees>38.42365466058254241943359375</LatitudeDegrees>
              <LongitudeDegrees>-6.416830681264400482177734375</LongitudeDegrees>
            </Position>
            <AltitudeMeters>427.399993896484375</AltitudeMeters>
            <DistanceMeters>NAN</DistanceMeters>
          </Trackpoint>
          <Trackpoint>
            <Time>2019-10-10T07:03:50.000Z</Time>
            <Position>
              <LatitudeDegrees>38.42367787845432758331298828125</LatitudeDegrees>
              <LongitudeDegrees>-6.41670855693519115447998046875</LongitudeDegrees>
            </Position>
            <AltitudeMeters>427.20001220703125</AltitudeMeters>
            <DistanceMeters>NAN</DistanceMeters>
          </Trackpoint>
          <Trackpoint>
            <Time>2019-10-10T07:03:51.000Z</Time>
            <Position>
              <LatitudeDegrees>38.42367620207369327545166015625</LatitudeDegrees>
              <LongitudeDegrees>-6.41667746007442474365234375</LongitudeDegrees>
            </Position>
            <AltitudeMeters>427.399993896484375</AltitudeMeters>
            <DistanceMeters>NAN</DistanceMeters>
          </Trackpoint>
          <Trackpoint>
            <Time>2019-10-10T07:03:55.000Z</Time>
            <Position>
              <LatitudeDegrees>38.4236216358840465545654296875</LatitudeDegrees>
              <LongitudeDegrees>-6.4165250770747661590576171875</LongitudeDegrees>
            </Position>
            <AltitudeMeters>426.79998779296875</AltitudeMeters>
            <DistanceMeters>NAN</DistanceMeters>
          </Trackpoint>
          <Trackpoint>
            <Time>2019-10-10T07:03:59.000Z</Time>
            <Position>
              <LatitudeDegrees>38.42363161034882068634033203125</LatitudeDegrees>
              <LongitudeDegrees>-6.41637361608445644378662109375</LongitudeDegrees>
            </Position>
            <AltitudeMeters>427.399993896484375</AltitudeMeters>
            <DistanceMeters>NAN</DistanceMeters>
          </Trackpoint>
          <Trackpoint>
            <Time>2019-10-10T07:04:03.000Z</Time>
            <Position>
              <LatitudeDegrees>38.4236454404890537261962890625</LatitudeDegrees>
              <LongitudeDegrees>-6.41621050424873828887939453125</LongitudeDegrees>
            </Position>
            <AltitudeMeters>427.600006103515625</AltitudeMeters>
            <DistanceMeters>NAN</DistanceMeters>
          </Trackpoint>
          <Trackpoint>
            <Time>2019-10-10T07:04:09.000Z</Time>
            <Position>
              <LatitudeDegrees>38.423667065799236297607421875</LatitudeDegrees>
              <LongitudeDegrees>-6.41596307046711444854736328125</LongitudeDegrees>
            </Position>
            <AltitudeMeters>427.79998779296875</AltitudeMeters>
            <DistanceMeters>NAN</DistanceMeters>
          </Trackpoint>
          <Trackpoint>
            <Time>2019-10-10T07:04:15.000Z</Time>
            <Position>
              <LatitudeDegrees>38.423692546784877777099609375</LatitudeDegrees>
              <LongitudeDegrees>-6.41571714542806148529052734375</LongitudeDegrees>
            </Position>
            <AltitudeMeters>428</AltitudeMeters>
            <DistanceMeters>NAN</DistanceMeters>
          </Trackpoint>
          <Trackpoint>
            <Time>2019-10-10T07:04:18.000Z</Time>
            <Position>
              <LatitudeDegrees>38.42371626757085323333740234375</LatitudeDegrees>
              <LongitudeDegrees>-6.415594182908535003662109375</LongitudeDegrees>
            </Position>
            <AltitudeMeters>428.399993896484375</AltitudeMeters>
            <DistanceMeters>NAN</DistanceMeters>
          </Trackpoint>
          <Trackpoint>
            <Time>2019-10-10T07:04:23.000Z</Time>
            <Position>
              <LatitudeDegrees>38.42376655898988246917724609375</LatitudeDegrees>
              <LongitudeDegrees>-6.4153780974447727203369140625</LongitudeDegrees>
            </Position>
            <AltitudeMeters>428.79998779296875</AltitudeMeters>
            <DistanceMeters>NAN</DistanceMeters>
          </Trackpoint>
          <Trackpoint>
            <Time>2019-10-10T07:04:30.000Z</Time>
            <Position>
              <LatitudeDegrees>38.4238211251795291900634765625</LatitudeDegrees>
              <LongitudeDegrees>-6.41512270085513591766357421875</LongitudeDegrees>
            </Position>
            <AltitudeMeters>428.79998779296875</AltitudeMeters>
            <DistanceMeters>NAN</DistanceMeters>
          </Trackpoint>
          <Trackpoint>
            <Time>2019-10-10T07:04:33.000Z</Time>
            <Position>
              <LatitudeDegrees>38.4238471090793609619140625</LatitudeDegrees>
              <LongitudeDegrees>-6.4150914363563060760498046875</LongitudeDegrees>
            </Position>
            <AltitudeMeters>429.20001220703125</AltitudeMeters>
            <DistanceMeters>NAN</DistanceMeters>
          </Trackpoint>
          <Trackpoint>
            <Time>2019-10-10T07:04:37.000Z</Time>
            <Position>
              <LatitudeDegrees>38.42387594282627105712890625</LatitudeDegrees>
              <LongitudeDegrees>-6.41495539806783199310302734375</LongitudeDegrees>
            </Position>
            <AltitudeMeters>429.399993896484375</AltitudeMeters>
            <DistanceMeters>NAN</DistanceMeters>
          </Trackpoint>
          <Trackpoint>
            <Time>2019-10-10T07:04:38.000Z</Time>
            <Position>
              <LatitudeDegrees>38.42387820594012737274169921875</LatitudeDegrees>
              <LongitudeDegrees>-6.4149221219122409820556640625</LongitudeDegrees>
            </Position>
            <AltitudeMeters>429.20001220703125</AltitudeMeters>
            <DistanceMeters>NAN</DistanceMeters>
          </Trackpoint>
          <Trackpoint>
            <Time>2019-10-10T07:04:42.000Z</Time>
            <Position>
              <LatitudeDegrees>38.423966467380523681640625</LatitudeDegrees>
              <LongitudeDegrees>-6.41473830677568912506103515625</LongitudeDegrees>
            </Position>
            <AltitudeMeters>429.20001220703125</AltitudeMeters>
            <DistanceMeters>NAN</DistanceMeters>
          </Trackpoint>
          <Trackpoint>
            <Time>2019-10-10T07:04:43.000Z</Time>
            <Position>
              <LatitudeDegrees>38.42395364306867122650146484375</LatitudeDegrees>
              <LongitudeDegrees>-6.414710395038127899169921875</LongitudeDegrees>
            </Position>
            <AltitudeMeters>429.20001220703125</AltitudeMeters>
            <DistanceMeters>NAN</DistanceMeters>
          </Trackpoint>
          <Trackpoint>
            <Time>2019-10-10T07:04:47.000Z</Time>
            <Position>
              <LatitudeDegrees>38.42384451068937778472900390625</LatitudeDegrees>
              <LongitudeDegrees>-6.41464040614664554595947265625</LongitudeDegrees>
            </Position>
            <AltitudeMeters>428.79998779296875</AltitudeMeters>
            <DistanceMeters>NAN</DistanceMeters>
          </Trackpoint>
          <Trackpoint>
            <Time>2019-10-10T07:04:52.000Z</Time>
            <Position>
              <LatitudeDegrees>38.4236457757651805877685546875</LatitudeDegrees>
              <LongitudeDegrees>-6.41452104784548282623291015625</LongitudeDegrees>
            </Position>
            <AltitudeMeters>428.399993896484375</AltitudeMeters>
            <DistanceMeters>NAN</DistanceMeters>
          </Trackpoint>
          <Trackpoint>
            <Time>2019-10-10T07:04:53.000Z</Time>
            <Position>
              <LatitudeDegrees>38.423604033887386322021484375</LatitudeDegrees>
              <LongitudeDegrees>-6.414490453898906707763671875</LongitudeDegrees>
            </Position>
            <AltitudeMeters>428.399993896484375</AltitudeMeters>
            <DistanceMeters>NAN</DistanceMeters>
          </Trackpoint>
          <Trackpoint>
            <Time>2019-10-10T07:04:56.000Z</Time>
            <Position>
              <LatitudeDegrees>38.42349029146134853363037109375</LatitudeDegrees>
              <LongitudeDegrees>-6.41442666761577129364013671875</LongitudeDegrees>
            </Position>
            <AltitudeMeters>427.79998779296875</AltitudeMeters>
            <DistanceMeters>NAN</DistanceMeters>
          </Trackpoint>
          <Trackpoint>
            <Time>2019-10-10T07:04:58.000Z</Time>
            <Position>
              <LatitudeDegrees>38.423406891524791717529296875</LatitudeDegrees>
              <LongitudeDegrees>-6.414409987628459930419921875</LongitudeDegrees>
            </Position>
            <AltitudeMeters>427.399993896484375</AltitudeMeters>
            <DistanceMeters>NAN</DistanceMeters>
          </Trackpoint>
          <Trackpoint>
            <Time>2019-10-10T07:04:59.000Z</Time>
            <Position>
              <LatitudeDegrees>38.4233629703521728515625</LatitudeDegrees>
              <LongitudeDegrees>-6.414404623210430145263671875</LongitudeDegrees>
            </Position>
            <AltitudeMeters>427.600006103515625</AltitudeMeters>
            <DistanceMeters>NAN</DistanceMeters>
          </Trackpoint>
          <Trackpoint>
            <Time>2019-10-10T07:05:00.000Z</Time>
            <Position>
              <LatitudeDegrees>38.423318378627300262451171875</LatitudeDegrees>
              <LongitudeDegrees>-6.41439079307019710540771484375</LongitudeDegrees>
            </Position>
            <AltitudeMeters>427.399993896484375</AltitudeMeters>
            <DistanceMeters>NAN</DistanceMeters>
          </Trackpoint>
          <Trackpoint>
            <Time>2019-10-10T07:05:02.000Z</Time>
            <Position>
              <LatitudeDegrees>38.42322810553014278411865234375</LatitudeDegrees>
              <LongitudeDegrees>-6.414371095597743988037109375</LongitudeDegrees>
            </Position>
            <AltitudeMeters>427.20001220703125</AltitudeMeters>
            <DistanceMeters>NAN</DistanceMeters>
          </Trackpoint>
          <Trackpoint>
            <Time>2019-10-10T07:05:04.000Z</Time>
            <Position>
              <LatitudeDegrees>38.42312701977789402008056640625</LatitudeDegrees>
              <LongitudeDegrees>-6.414354331791400909423828125</LongitudeDegrees>
            </Position>
            <AltitudeMeters>426.79998779296875</AltitudeMeters>
            <DistanceMeters>NAN</DistanceMeters>
          </Trackpoint>
          <Trackpoint>
            <Time>2019-10-10T07:05:07.000Z</Time>
            <Position>
              <LatitudeDegrees>38.4229758940637111663818359375</LatitudeDegrees>
              <LongitudeDegrees>-6.41432239674031734466552734375</LongitudeDegrees>
            </Position>
            <AltitudeMeters>426.20001220703125</AltitudeMeters>
            <DistanceMeters>NAN</DistanceMeters>
          </Trackpoint>
          <Trackpoint>
            <Time>2019-10-10T07:05:10.000Z</Time>
            <Position>
              <LatitudeDegrees>38.42282108031213283538818359375</LatitudeDegrees>
              <LongitudeDegrees>-6.41430236399173736572265625</LongitudeDegrees>
            </Position>
            <AltitudeMeters>426</AltitudeMeters>
            <DistanceMeters>NAN</DistanceMeters>
          </Trackpoint>
          <Trackpoint>
            <Time>2019-10-10T07:05:11.000Z</Time>
            <Position>
              <LatitudeDegrees>38.42277464456856250762939453125</LatitudeDegrees>
              <LongitudeDegrees>-6.4143045432865619659423828125</LongitudeDegrees>
            </Position>
            <AltitudeMeters>426.20001220703125</AltitudeMeters>
            <DistanceMeters>NAN</DistanceMeters>
          </Trackpoint>
          <Trackpoint>
            <Time>2019-10-10T07:05:12.000Z</Time>
            <Position>
              <LatitudeDegrees>38.42273390851914882659912109375</LatitudeDegrees>
              <LongitudeDegrees>-6.41430362127721309661865234375</LongitudeDegrees>
            </Position>
            <AltitudeMeters>426.399993896484375</AltitudeMeters>
            <DistanceMeters>NAN</DistanceMeters>
          </Trackpoint>
          <Trackpoint>
            <Time>2019-10-10T07:05:13.000Z</Time>
            <Position>
              <LatitudeDegrees>38.42269300483167171478271484375</LatitudeDegrees>
              <LongitudeDegrees>-6.41430445946753025054931640625</LongitudeDegrees>
            </Position>
            <AltitudeMeters>426.399993896484375</AltitudeMeters>
            <DistanceMeters>NAN</DistanceMeters>
          </Trackpoint>
          <Trackpoint>
            <Time>2019-10-10T07:05:15.000Z</Time>
            <Position>
              <LatitudeDegrees>38.42261907644569873809814453125</LatitudeDegrees>
              <LongitudeDegrees>-6.41431384719908237457275390625</LongitudeDegrees>
            </Position>
            <AltitudeMeters>426</AltitudeMeters>
            <DistanceMeters>NAN</DistanceMeters>
          </Trackpoint>
          <Trackpoint>
            <Time>2019-10-10T07:05:17.000Z</Time>
            <Position>
              <LatitudeDegrees>38.42257565818727016448974609375</LatitudeDegrees>
              <LongitudeDegrees>-6.414337567985057830810546875</LongitudeDegrees>
            </Position>
            <AltitudeMeters>426.20001220703125</AltitudeMeters>
            <DistanceMeters>NAN</DistanceMeters>
          </Trackpoint>
          <Trackpoint>
            <Time>2019-10-10T07:05:18.000Z</Time>
            <Position>
              <LatitudeDegrees>38.42255990020930767059326171875</LatitudeDegrees>
              <LongitudeDegrees>-6.41435466706752777099609375</LongitudeDegrees>
            </Position>
            <AltitudeMeters>426.20001220703125</AltitudeMeters>
            <DistanceMeters>NAN</DistanceMeters>
          </Trackpoint>
          <Trackpoint>
            <Time>2019-10-10T07:05:23.000Z</Time>
            <Position>
              <LatitudeDegrees>38.4224910847842693328857421875</LatitudeDegrees>
              <LongitudeDegrees>-6.4144477061927318572998046875</LongitudeDegrees>
            </Position>
            <AltitudeMeters>426.600006103515625</AltitudeMeters>
            <DistanceMeters>NAN</DistanceMeters>
          </Trackpoint>
          <Trackpoint>
            <Time>2019-10-10T07:05:27.000Z</Time>
            <Position>
              <LatitudeDegrees>38.42246367596089839935302734375</LatitudeDegrees>
              <LongitudeDegrees>-6.4144721813499927520751953125</LongitudeDegrees>
            </Position>
            <AltitudeMeters>426</AltitudeMeters>
            <DistanceMeters>NAN</DistanceMeters>
          </Trackpoint>
          <Trackpoint>
            <Time>2019-10-10T07:05:31.000Z</Time>
            <Position>
              <LatitudeDegrees>38.422508351504802703857421875</LatitudeDegrees>
              <LongitudeDegrees>-6.41430797986686229705810546875</LongitudeDegrees>
            </Position>
            <AltitudeMeters>426</AltitudeMeters>
            <DistanceMeters>NAN</DistanceMeters>
          </Trackpoint>
          <Trackpoint>
            <Time>2019-10-10T07:05:32.000Z</Time>
            <Position>
              <LatitudeDegrees>38.422529138624668121337890625</LatitudeDegrees>
              <LongitudeDegrees>-6.4142569340765476226806640625</LongitudeDegrees>
            </Position>
            <AltitudeMeters>426</AltitudeMeters>
            <DistanceMeters>NAN</DistanceMeters>
          </Trackpoint>
          <Trackpoint>
            <Time>2019-10-10T07:05:34.000Z</Time>
            <Position>
              <LatitudeDegrees>38.42258135788142681121826171875</LatitudeDegrees>
              <LongitudeDegrees>-6.41411569900810718536376953125</LongitudeDegrees>
            </Position>
            <AltitudeMeters>426.600006103515625</AltitudeMeters>
            <DistanceMeters>NAN</DistanceMeters>
          </Trackpoint>
          <Trackpoint>
            <Time>2019-10-10T07:05:37.000Z</Time>
            <Position>
              <LatitudeDegrees>38.422623686492443084716796875</LatitudeDegrees>
              <LongitudeDegrees>-6.4140160381793975830078125</LongitudeDegrees>
            </Position>
            <AltitudeMeters>426.600006103515625</AltitudeMeters>
            <DistanceMeters>NAN</DistanceMeters>
          </Trackpoint>
          <Trackpoint>
            <Time>2019-10-10T07:05:44.000Z</Time>
            <Position>
              <LatitudeDegrees>38.422775566577911376953125</LatitudeDegrees>
              <LongitudeDegrees>-6.4136916585266590118408203125</LongitudeDegrees>
            </Position>
            <AltitudeMeters>426.600006103515625</AltitudeMeters>
            <DistanceMeters>NAN</DistanceMeters>
          </Trackpoint>
          <Trackpoint>
            <Time>2019-10-10T07:05:45.000Z</Time>
            <Position>
              <LatitudeDegrees>38.42279861681163311004638671875</LatitudeDegrees>
              <LongitudeDegrees>-6.41365033574402332305908203125</LongitudeDegrees>
            </Position>
            <AltitudeMeters>426.79998779296875</AltitudeMeters>
            <DistanceMeters>NAN</DistanceMeters>
          </Trackpoint>
          <Trackpoint>
            <Time>2019-10-10T07:05:48.000Z</Time>
            <Position>
              <LatitudeDegrees>38.42288143001496791839599609375</LatitudeDegrees>
              <LongitudeDegrees>-6.4135411195456981658935546875</LongitudeDegrees>
            </Position>
            <AltitudeMeters>427</AltitudeMeters>
            <DistanceMeters>NAN</DistanceMeters>
          </Trackpoint>
          <Trackpoint>
            <Time>2019-10-10T07:05:50.000Z</Time>
            <Position>
              <LatitudeDegrees>38.42293205671012401580810546875</LatitudeDegrees>
              <LongitudeDegrees>-6.4134643413126468658447265625</LongitudeDegrees>
            </Position>
            <AltitudeMeters>427</AltitudeMeters>
            <DistanceMeters>NAN</DistanceMeters>
          </Trackpoint>
          <Trackpoint>
            <Time>2019-10-10T07:05:54.000Z</Time>
            <Position>
              <LatitudeDegrees>38.4230325557291507720947265625</LatitudeDegrees>
              <LongitudeDegrees>-6.41331195831298828125</LongitudeDegrees>
            </Position>
            <AltitudeMeters>427.399993896484375</AltitudeMeters>
            <DistanceMeters>NAN</DistanceMeters>
          </Trackpoint>
          <Trackpoint>
            <Time>2019-10-10T07:06:00.000Z</Time>
            <Position>
              <LatitudeDegrees>38.4231830947101116180419921875</LatitudeDegrees>
              <LongitudeDegrees>-6.41307148151099681854248046875</LongitudeDegrees>
            </Position>
            <AltitudeMeters>428</AltitudeMeters>
            <DistanceMeters>NAN</DistanceMeters>
          </Trackpoint>
          <Trackpoint>
            <Time>2019-10-10T07:06:03.000Z</Time>
            <Position>
              <LatitudeDegrees>38.4232615493237972259521484375</LatitudeDegrees>
              <LongitudeDegrees>-6.41295187175273895263671875</LongitudeDegrees>
            </Position>
            <AltitudeMeters>428.399993896484375</AltitudeMeters>
            <DistanceMeters>NAN</DistanceMeters>
          </Trackpoint>
          <Trackpoint>
            <Time>2019-10-10T07:06:10.000Z</Time>
            <Position>
              <LatitudeDegrees>38.42345877550542354583740234375</LatitudeDegrees>
              <LongitudeDegrees>-6.41268691979348659515380859375</LongitudeDegrees>
            </Position>
            <AltitudeMeters>428.600006103515625</AltitudeMeters>
            <DistanceMeters>NAN</DistanceMeters>
          </Trackpoint>
          <Trackpoint>
            <Time>2019-10-10T07:06:15.000Z</Time>
            <Position>
              <LatitudeDegrees>38.423598669469356536865234375</LatitudeDegrees>
              <LongitudeDegrees>-6.41250419430434703826904296875</LongitudeDegrees>
            </Position>
            <AltitudeMeters>429.20001220703125</AltitudeMeters>
            <DistanceMeters>NAN</DistanceMeters>
          </Trackpoint>
          <Trackpoint>
            <Time>2019-10-10T07:06:16.000Z</Time>
            <Position>
              <LatitudeDegrees>38.4236249886453151702880859375</LatitudeDegrees>
              <LongitudeDegrees>-6.41246815212070941925048828125</LongitudeDegrees>
            </Position>
            <AltitudeMeters>429.399993896484375</AltitudeMeters>
            <DistanceMeters>NAN</DistanceMeters>
          </Trackpoint>
          <Trackpoint>
            <Time>2019-10-10T07:06:17.000Z</Time>
            <Position>
              <LatitudeDegrees>38.42365055344998836517333984375</LatitudeDegrees>
              <LongitudeDegrees>-6.41242942772805690765380859375</LongitudeDegrees>
            </Position>
            <AltitudeMeters>429.79998779296875</AltitudeMeters>
            <DistanceMeters>NAN</DistanceMeters>
          </Trackpoint>
          <Trackpoint>
            <Time>2019-10-10T07:06:18.000Z</Time>
            <Position>
              <LatitudeDegrees>38.4236722625792026519775390625</LatitudeDegrees>
              <LongitudeDegrees>-6.41238592565059661865234375</LongitudeDegrees>
            </Position>
            <AltitudeMeters>430</AltitudeMeters>
            <DistanceMeters>NAN</DistanceMeters>
          </Trackpoint>
          <Trackpoint>
            <Time>2019-10-10T07:06:22.000Z</Time>
            <Position>
              <LatitudeDegrees>38.42370855621993541717529296875</LatitudeDegrees>
              <LongitudeDegrees>-6.41218735836446285247802734375</LongitudeDegrees>
            </Position>
            <AltitudeMeters>430.20001220703125</AltitudeMeters>
            <DistanceMeters>NAN</DistanceMeters>
          </Trackpoint>
          <Trackpoint>
            <Time>2019-10-10T07:06:23.000Z</Time>
            <Position>
              <LatitudeDegrees>38.42369950376451015472412109375</LatitudeDegrees>
              <LongitudeDegrees>-6.41213916242122650146484375</LongitudeDegrees>
            </Position>
            <AltitudeMeters>430.399993896484375</AltitudeMeters>
            <DistanceMeters>NAN</DistanceMeters>
          </Trackpoint>
          <Trackpoint>
            <Time>2019-10-10T07:06:26.000Z</Time>
            <Position>
              <LatitudeDegrees>38.423625491559505462646484375</LatitudeDegrees>
              <LongitudeDegrees>-6.412022151052951812744140625</LongitudeDegrees>
            </Position>
            <AltitudeMeters>430.79998779296875</AltitudeMeters>
            <DistanceMeters>NAN</DistanceMeters>
          </Trackpoint>
          <Trackpoint>
            <Time>2019-10-10T07:06:27.000Z</Time>
            <Position>
              <LatitudeDegrees>38.4235934726893901824951171875</LatitudeDegrees>
              <LongitudeDegrees>-6.41198652796447277069091796875</LongitudeDegrees>
            </Position>
            <AltitudeMeters>431</AltitudeMeters>
            <DistanceMeters>NAN</DistanceMeters>
          </Trackpoint>
          <Trackpoint>
            <Time>2019-10-10T07:06:28.000Z</Time>
            <Position>
              <LatitudeDegrees>38.4235569275915622711181640625</LatitudeDegrees>
              <LongitudeDegrees>-6.41195752657949924468994140625</LongitudeDegrees>
            </Position>
            <AltitudeMeters>431.20001220703125</AltitudeMeters>
            <DistanceMeters>NAN</DistanceMeters>
          </Trackpoint>
          <Trackpoint>
            <Time>2019-10-10T07:06:31.000Z</Time>
            <Position>
              <LatitudeDegrees>38.42343932949006557464599609375</LatitudeDegrees>
              <LongitudeDegrees>-6.41188628040254116058349609375</LongitudeDegrees>
            </Position>
            <AltitudeMeters>431.20001220703125</AltitudeMeters>
            <DistanceMeters>NAN</DistanceMeters>
          </Trackpoint>
          <Trackpoint>
            <Time>2019-10-10T07:06:34.000Z</Time>
            <Position>
              <LatitudeDegrees>38.4233225695788860321044921875</LatitudeDegrees>
              <LongitudeDegrees>-6.41183213330805301666259765625</LongitudeDegrees>
            </Position>
            <AltitudeMeters>431.20001220703125</AltitudeMeters>
            <DistanceMeters>NAN</DistanceMeters>
          </Trackpoint>
          <Trackpoint>
            <Time>2019-10-10T07:06:37.000Z</Time>
            <Position>
              <LatitudeDegrees>38.423199355602264404296875</LatitudeDegrees>
              <LongitudeDegrees>-6.41175317578017711639404296875</LongitudeDegrees>
            </Position>
            <AltitudeMeters>431</AltitudeMeters>
            <DistanceMeters>NAN</DistanceMeters>
          </Trackpoint>
          <Trackpoint>
            <Time>2019-10-10T07:06:44.000Z</Time>
            <Position>
              <LatitudeDegrees>38.42291261069476604461669921875</LatitudeDegrees>
              <LongitudeDegrees>-6.41147774644196033477783203125</LongitudeDegrees>
            </Position>
            <AltitudeMeters>430.399993896484375</AltitudeMeters>
            <DistanceMeters>NAN</DistanceMeters>
          </Trackpoint>
          <Trackpoint>
            <Time>2019-10-10T07:06:49.000Z</Time>
            <Position>
              <LatitudeDegrees>38.422714881598949432373046875</LatitudeDegrees>
              <LongitudeDegrees>-6.41119611449539661407470703125</LongitudeDegrees>
            </Position>
            <AltitudeMeters>429.399993896484375</AltitudeMeters>
            <DistanceMeters>NAN</DistanceMeters>
          </Trackpoint>
          <Trackpoint>
            <Time>2019-10-10T07:06:51.000Z</Time>
            <Position>
              <LatitudeDegrees>38.42264019884169101715087890625</LatitudeDegrees>
              <LongitudeDegrees>-6.4110701344907283782958984375</LongitudeDegrees>
            </Position>
            <AltitudeMeters>429</AltitudeMeters>
            <DistanceMeters>NAN</DistanceMeters>
          </Trackpoint>
          <Trackpoint>
            <Time>2019-10-10T07:06:56.000Z</Time>
            <Position>
              <LatitudeDegrees>38.4224585629999637603759765625</LatitudeDegrees>
              <LongitudeDegrees>-6.41074667684733867645263671875</LongitudeDegrees>
            </Position>
            <AltitudeMeters>429</AltitudeMeters>
            <DistanceMeters>NAN</DistanceMeters>
          </Trackpoint>
          <Trackpoint>
            <Time>2019-10-10T07:06:58.000Z</Time>
            <Position>
              <LatitudeDegrees>38.42238555662333965301513671875</LatitudeDegrees>
              <LongitudeDegrees>-6.41062949784100055694580078125</LongitudeDegrees>
            </Position>
            <AltitudeMeters>429</AltitudeMeters>
            <DistanceMeters>NAN</DistanceMeters>
          </Trackpoint>
          <Trackpoint>
            <Time>2019-10-10T07:07:03.000Z</Time>
            <Position>
              <LatitudeDegrees>38.4222245402634143829345703125</LatitudeDegrees>
              <LongitudeDegrees>-6.41033009625971317291259765625</LongitudeDegrees>
            </Position>
            <AltitudeMeters>429.600006103515625</AltitudeMeters>
            <DistanceMeters>NAN</DistanceMeters>
          </Trackpoint>
          <Trackpoint>
            <Time>2019-10-10T07:07:04.000Z</Time>
            <Position>
              <LatitudeDegrees>38.422193191945552825927734375</LatitudeDegrees>
              <LongitudeDegrees>-6.41027460806071758270263671875</LongitudeDegrees>
            </Position>
            <AltitudeMeters>430</AltitudeMeters>
            <DistanceMeters>NAN</DistanceMeters>
          </Trackpoint>
          <Trackpoint>
            <Time>2019-10-10T07:07:08.000Z</Time>
            <Position>
              <LatitudeDegrees>38.42207794077694416046142578125</LatitudeDegrees>
              <LongitudeDegrees>-6.4100669883191585540771484375</LongitudeDegrees>
            </Position>
            <AltitudeMeters>430.399993896484375</AltitudeMeters>
            <DistanceMeters>NAN</DistanceMeters>
          </Trackpoint>
          <Trackpoint>
            <Time>2019-10-10T07:07:11.000Z</Time>
            <Position>
              <LatitudeDegrees>38.42200241982936859130859375</LatitudeDegrees>
              <LongitudeDegrees>-6.40992491506040096282958984375</LongitudeDegrees>
            </Position>
            <AltitudeMeters>431.399993896484375</AltitudeMeters>
            <DistanceMeters>NAN</DistanceMeters>
          </Trackpoint>
          <Trackpoint>
            <Time>2019-10-10T07:07:12.000Z</Time>
            <Position>
              <LatitudeDegrees>38.4219776093959808349609375</LatitudeDegrees>
              <LongitudeDegrees>-6.409879736602306365966796875</LongitudeDegrees>
            </Position>
            <AltitudeMeters>431.399993896484375</AltitudeMeters>
            <DistanceMeters>NAN</DistanceMeters>
          </Trackpoint>
          <Trackpoint>
            <Time>2019-10-10T07:07:15.000Z</Time>
            <Position>
              <LatitudeDegrees>38.42190125025808811187744140625</LatitudeDegrees>
              <LongitudeDegrees>-6.40974453650414943695068359375</LongitudeDegrees>
            </Position>
            <AltitudeMeters>432</AltitudeMeters>
            <DistanceMeters>NAN</DistanceMeters>
          </Trackpoint>
          <Trackpoint>
            <Time>2019-10-10T07:07:20.000Z</Time>
            <Position>
              <LatitudeDegrees>38.42178138904273509979248046875</LatitudeDegrees>
              <LongitudeDegrees>-6.40952392481267452239990234375</LongitudeDegrees>
            </Position>
            <AltitudeMeters>432.600006103515625</AltitudeMeters>
            <DistanceMeters>NAN</DistanceMeters>
          </Trackpoint>
          <Trackpoint>
            <Time>2019-10-10T07:07:23.000Z</Time>
            <Position>
              <LatitudeDegrees>38.4217055328190326690673828125</LatitudeDegrees>
              <LongitudeDegrees>-6.40939115546643733978271484375</LongitudeDegrees>
            </Position>
            <AltitudeMeters>433.20001220703125</AltitudeMeters>
            <DistanceMeters>NAN</DistanceMeters>
          </Trackpoint>
          <Trackpoint>
            <Time>2019-10-10T07:07:30.000Z</Time>
            <Position>
              <LatitudeDegrees>38.42153093777596950531005859375</LatitudeDegrees>
              <LongitudeDegrees>-6.40908856876194477081298828125</LongitudeDegrees>
            </Position>
            <AltitudeMeters>433.79998779296875</AltitudeMeters>
            <DistanceMeters>NAN</DistanceMeters>
          </Trackpoint>
          <Trackpoint>
            <Time>2019-10-10T07:07:32.000Z</Time>
            <Position>
              <LatitudeDegrees>38.42148207128047943115234375</LatitudeDegrees>
              <LongitudeDegrees>-6.4090038277208805084228515625</LongitudeDegrees>
            </Position>
            <AltitudeMeters>434</AltitudeMeters>
            <DistanceMeters>NAN</DistanceMeters>
          </Trackpoint>
          <Trackpoint>
            <Time>2019-10-10T07:07:40.000Z</Time>
            <Position>
              <LatitudeDegrees>38.4212810732424259185791015625</LatitudeDegrees>
              <LongitudeDegrees>-6.40866830013692378997802734375</LongitudeDegrees>
            </Position>
            <AltitudeMeters>434.79998779296875</AltitudeMeters>
            <DistanceMeters>NAN</DistanceMeters>
          </Trackpoint>
          <Trackpoint>
            <Time>2019-10-10T07:07:43.000Z</Time>
            <Position>
              <LatitudeDegrees>38.4212009422481060028076171875</LatitudeDegrees>
              <LongitudeDegrees>-6.408551372587680816650390625</LongitudeDegrees>
            </Position>
            <AltitudeMeters>435.399993896484375</AltitudeMeters>
            <DistanceMeters>NAN</DistanceMeters>
          </Trackpoint>
          <Trackpoint>
            <Time>2019-10-10T07:07:52.000Z</Time>
            <Position>
              <LatitudeDegrees>38.420934565365314483642578125</LatitudeDegrees>
              <LongitudeDegrees>-6.40819002874195575714111328125</LongitudeDegrees>
            </Position>
            <AltitudeMeters>435.399993896484375</AltitudeMeters>
            <DistanceMeters>NAN</DistanceMeters>
          </Trackpoint>
          <Trackpoint>
            <Time>2019-10-10T07:07:59.000Z</Time>
            <Position>
              <LatitudeDegrees>38.42071319930255413055419921875</LatitudeDegrees>
              <LongitudeDegrees>-6.40791007317602634429931640625</LongitudeDegrees>
            </Position>
            <AltitudeMeters>436</AltitudeMeters>
            <DistanceMeters>NAN</DistanceMeters>
          </Trackpoint>
          <Trackpoint>
            <Time>2019-10-10T07:08:05.000Z</Time>
            <Position>
              <LatitudeDegrees>38.4205220080912113189697265625</LatitudeDegrees>
              <LongitudeDegrees>-6.407672278583049774169921875</LongitudeDegrees>
            </Position>
            <AltitudeMeters>435.600006103515625</AltitudeMeters>
            <DistanceMeters>NAN</DistanceMeters>
          </Trackpoint>
          <Trackpoint>
            <Time>2019-10-10T07:08:14.000Z</Time>
            <Position>
              <LatitudeDegrees>38.420233838260173797607421875</LatitudeDegrees>
              <LongitudeDegrees>-6.40731127001345157623291015625</LongitudeDegrees>
            </Position>
            <AltitudeMeters>435.79998779296875</AltitudeMeters>
            <DistanceMeters>NAN</DistanceMeters>
          </Trackpoint>
          <Trackpoint>
            <Time>2019-10-10T07:08:21.000Z</Time>
            <Position>
              <LatitudeDegrees>38.42001163400709629058837890625</LatitudeDegrees>
              <LongitudeDegrees>-6.40703625977039337158203125</LongitudeDegrees>
            </Position>
            <AltitudeMeters>435.600006103515625</AltitudeMeters>
            <DistanceMeters>NAN</DistanceMeters>
          </Trackpoint>
          <Trackpoint>
            <Time>2019-10-10T07:08:32.000Z</Time>
            <Position>
              <LatitudeDegrees>38.41965548694133758544921875</LatitudeDegrees>
              <LongitudeDegrees>-6.406592689454555511474609375</LongitudeDegrees>
            </Position>
            <AltitudeMeters>436.399993896484375</AltitudeMeters>
            <DistanceMeters>NAN</DistanceMeters>
          </Trackpoint>
          <Trackpoint>
            <Time>2019-10-10T07:08:37.000Z</Time>
            <Position>
              <LatitudeDegrees>38.41946999542415142059326171875</LatitudeDegrees>
              <LongitudeDegrees>-6.4063692279160022735595703125</LongitudeDegrees>
            </Position>
            <AltitudeMeters>436.399993896484375</AltitudeMeters>
            <DistanceMeters>NAN</DistanceMeters>
          </Trackpoint>
          <Trackpoint>
            <Time>2019-10-10T07:08:47.000Z</Time>
            <Position>
              <LatitudeDegrees>38.41915885917842388153076171875</LatitudeDegrees>
              <LongitudeDegrees>-6.40598273836076259613037109375</LongitudeDegrees>
            </Position>
            <AltitudeMeters>436.79998779296875</AltitudeMeters>
            <DistanceMeters>NAN</DistanceMeters>
          </Trackpoint>
          <Trackpoint>
            <Time>2019-10-10T07:08:48.000Z</Time>
            <Position>
              <LatitudeDegrees>38.41912616975605487823486328125</LatitudeDegrees>
              <LongitudeDegrees>-6.405940912663936614990234375</LongitudeDegrees>
            </Position>
            <AltitudeMeters>437</AltitudeMeters>
            <DistanceMeters>NAN</DistanceMeters>
          </Trackpoint>
          <Trackpoint>
            <Time>2019-10-10T07:08:57.000Z</Time>
            <Position>
              <LatitudeDegrees>38.41883313842117786407470703125</LatitudeDegrees>
              <LongitudeDegrees>-6.405572108924388885498046875</LongitudeDegrees>
            </Position>
            <AltitudeMeters>437</AltitudeMeters>
            <DistanceMeters>NAN</DistanceMeters>
          </Trackpoint>
          <Trackpoint>
            <Time>2019-10-10T07:09:03.000Z</Time>
            <Position>
              <LatitudeDegrees>38.4186240099370479583740234375</LatitudeDegrees>
              <LongitudeDegrees>-6.40534336678683757781982421875</LongitudeDegrees>
            </Position>
            <AltitudeMeters>436.79998779296875</AltitudeMeters>
            <DistanceMeters>NAN</DistanceMeters>
          </Trackpoint>
          <Trackpoint>
            <Time>2019-10-10T07:09:04.000Z</Time>
            <Position>
              <LatitudeDegrees>38.4185797534883022308349609375</LatitudeDegrees>
              <LongitudeDegrees>-6.40532392077147960662841796875</LongitudeDegrees>
            </Position>
            <AltitudeMeters>436.79998779296875</AltitudeMeters>
            <DistanceMeters>NAN</DistanceMeters>
          </Trackpoint>
          <Trackpoint>
            <Time>2019-10-10T07:09:09.000Z</Time>
            <Position>
              <LatitudeDegrees>38.4183485805988311767578125</LatitudeDegrees>
              <LongitudeDegrees>-6.40521160326898097991943359375</LongitudeDegrees>
            </Position>
            <AltitudeMeters>436.600006103515625</AltitudeMeters>
            <DistanceMeters>NAN</DistanceMeters>
          </Trackpoint>
          <Trackpoint>
            <Time>2019-10-10T07:09:12.000Z</Time>
            <Position>
              <LatitudeDegrees>38.41828580014407634735107421875</LatitudeDegrees>
              <LongitudeDegrees>-6.40503122471272945404052734375</LongitudeDegrees>
            </Position>
            <AltitudeMeters>436.600006103515625</AltitudeMeters>
            <DistanceMeters>NAN</DistanceMeters>
          </Trackpoint>
          <Trackpoint>
            <Time>2019-10-10T07:09:17.000Z</Time>
            <Position>
              <LatitudeDegrees>38.4181697107851505279541015625</LatitudeDegrees>
              <LongitudeDegrees>-6.404751352965831756591796875</LongitudeDegrees>
            </Position>
            <AltitudeMeters>437</AltitudeMeters>
            <DistanceMeters>NAN</DistanceMeters>
          </Trackpoint>
          <Trackpoint>
            <Time>2019-10-10T07:09:18.000Z</Time>
            <Position>
              <LatitudeDegrees>38.41813157312572002410888671875</LatitudeDegrees>
              <LongitudeDegrees>-6.40470399521291255950927734375</LongitudeDegrees>
            </Position>
            <AltitudeMeters>437</AltitudeMeters>
            <DistanceMeters>NAN</DistanceMeters>
          </Trackpoint>
          <Trackpoint>
            <Time>2019-10-10T07:09:26.000Z</Time>
            <Position>
              <LatitudeDegrees>38.4178362786769866943359375</LatitudeDegrees>
              <LongitudeDegrees>-6.40432882122695446014404296875</LongitudeDegrees>
            </Position>
            <AltitudeMeters>437.20001220703125</AltitudeMeters>
            <DistanceMeters>NAN</DistanceMeters>
          </Trackpoint>
          <Trackpoint>
            <Time>2019-10-10T07:09:35.000Z</Time>
            <Position>
              <LatitudeDegrees>38.4175239689648151397705078125</LatitudeDegrees>
              <LongitudeDegrees>-6.40392632223665714263916015625</LongitudeDegrees>
            </Position>
            <AltitudeMeters>437.600006103515625</AltitudeMeters>
            <DistanceMeters>NAN</DistanceMeters>
          </Trackpoint>
          <Trackpoint>
            <Time>2019-10-10T07:09:38.000Z</Time>
            <Position>
              <LatitudeDegrees>38.41741383075714111328125</LatitudeDegrees>
              <LongitudeDegrees>-6.403787769377231597900390625</LongitudeDegrees>
            </Position>
            <AltitudeMeters>438</AltitudeMeters>
            <DistanceMeters>NAN</DistanceMeters>
          </Trackpoint>
          <Trackpoint>
            <Time>2019-10-10T07:09:45.000Z</Time>
            <Position>
              <LatitudeDegrees>38.41719028539955615997314453125</LatitudeDegrees>
              <LongitudeDegrees>-6.40350521542131900787353515625</LongitudeDegrees>
            </Position>
            <AltitudeMeters>438.20001220703125</AltitudeMeters>
            <DistanceMeters>NAN</DistanceMeters>
          </Trackpoint>
          <Trackpoint>
            <Time>2019-10-10T07:09:55.000Z</Time>
            <Position>
              <LatitudeDegrees>38.41686121188104152679443359375</LatitudeDegrees>
              <LongitudeDegrees>-6.4030994474887847900390625</LongitudeDegrees>
            </Position>
            <AltitudeMeters>438.79998779296875</AltitudeMeters>
            <DistanceMeters>NAN</DistanceMeters>
          </Trackpoint>
          <Trackpoint>
            <Time>2019-10-10T07:09:58.000Z</Time>
            <Position>
              <LatitudeDegrees>38.41676549054682254791259765625</LatitudeDegrees>
              <LongitudeDegrees>-6.40298050828278064727783203125</LongitudeDegrees>
            </Position>
            <AltitudeMeters>439.20001220703125</AltitudeMeters>
            <DistanceMeters>NAN</DistanceMeters>
          </Trackpoint>
          <Trackpoint>
            <Time>2019-10-10T07:10:04.000Z</Time>
            <Position>
              <LatitudeDegrees>38.41657698154449462890625</LatitudeDegrees>
              <LongitudeDegrees>-6.402741707861423492431640625</LongitudeDegrees>
            </Position>
            <AltitudeMeters>439.399993896484375</AltitudeMeters>
            <DistanceMeters>NAN</DistanceMeters>
          </Trackpoint>
          <Trackpoint>
            <Time>2019-10-10T07:10:14.000Z</Time>
            <Position>
              <LatitudeDegrees>38.4162616543471813201904296875</LatitudeDegrees>
              <LongitudeDegrees>-6.40234683640301227569580078125</LongitudeDegrees>
            </Position>
            <AltitudeMeters>440.20001220703125</AltitudeMeters>
            <DistanceMeters>NAN</DistanceMeters>
          </Trackpoint>
          <Trackpoint>
            <Time>2019-10-10T07:10:17.000Z</Time>
            <Position>
              <LatitudeDegrees>38.41616719029843807220458984375</LatitudeDegrees>
              <LongitudeDegrees>-6.4022223651409149169921875</LongitudeDegrees>
            </Position>
            <AltitudeMeters>440.600006103515625</AltitudeMeters>
            <DistanceMeters>NAN</DistanceMeters>
          </Trackpoint>
          <Trackpoint>
            <Time>2019-10-10T07:10:25.000Z</Time>
            <Position>
              <LatitudeDegrees>38.41591925360262393951416015625</LatitudeDegrees>
              <LongitudeDegrees>-6.40188583172857761383056640625</LongitudeDegrees>
            </Position>
            <AltitudeMeters>441.20001220703125</AltitudeMeters>
            <DistanceMeters>NAN</DistanceMeters>
          </Trackpoint>
          <Trackpoint>
            <Time>2019-10-10T07:10:37.000Z</Time>
            <Position>
              <LatitudeDegrees>38.4155656211078166961669921875</LatitudeDegrees>
              <LongitudeDegrees>-6.4013565145432949066162109375</LongitudeDegrees>
            </Position>
            <AltitudeMeters>441.399993896484375</AltitudeMeters>
            <DistanceMeters>NAN</DistanceMeters>
          </Trackpoint>
          <Trackpoint>
            <Time>2019-10-10T07:10:38.000Z</Time>
            <Position>
              <LatitudeDegrees>38.41553695499897003173828125</LatitudeDegrees>
              <LongitudeDegrees>-6.40131217427551746368408203125</LongitudeDegrees>
            </Position>
            <AltitudeMeters>441.600006103515625</AltitudeMeters>
            <DistanceMeters>NAN</DistanceMeters>
          </Trackpoint>
          <Trackpoint>
            <Time>2019-10-10T07:10:47.000Z</Time>
            <Position>
              <LatitudeDegrees>38.41528994031250476837158203125</LatitudeDegrees>
              <LongitudeDegrees>-6.4008961804211139678955078125</LongitudeDegrees>
            </Position>
            <AltitudeMeters>442</AltitudeMeters>
            <DistanceMeters>NAN</DistanceMeters>
          </Trackpoint>
          <Trackpoint>
            <Time>2019-10-10T07:10:51.000Z</Time>
            <Position>
              <LatitudeDegrees>38.4151867590844631195068359375</LatitudeDegrees>
              <LongitudeDegrees>-6.4007084257900714874267578125</LongitudeDegrees>
            </Position>
            <AltitudeMeters>442.600006103515625</AltitudeMeters>
            <DistanceMeters>NAN</DistanceMeters>
          </Trackpoint>
          <Trackpoint>
            <Time>2019-10-10T07:10:57.000Z</Time>
            <Position>
              <LatitudeDegrees>38.415034376084804534912109375</LatitudeDegrees>
              <LongitudeDegrees>-6.40042453072965145111083984375</LongitudeDegrees>
            </Position>
            <AltitudeMeters>442.79998779296875</AltitudeMeters>
            <DistanceMeters>NAN</DistanceMeters>
          </Trackpoint>
          <Trackpoint>
            <Time>2019-10-10T07:10:58.000Z</Time>
            <Position>
              <LatitudeDegrees>38.41500897891819477081298828125</LatitudeDegrees>
              <LongitudeDegrees>-6.40037625096738338470458984375</LongitudeDegrees>
            </Position>
            <AltitudeMeters>442.79998779296875</AltitudeMeters>
            <DistanceMeters>NAN</DistanceMeters>
          </Trackpoint>
          <Trackpoint>
            <Time>2019-10-10T07:11:08.000Z</Time>
            <Position>
              <LatitudeDegrees>38.414767496287822723388671875</LatitudeDegrees>
              <LongitudeDegrees>-6.3998729176819324493408203125</LongitudeDegrees>
            </Position>
            <AltitudeMeters>442.79998779296875</AltitudeMeters>
            <DistanceMeters>NAN</DistanceMeters>
          </Trackpoint>
          <Trackpoint>
            <Time>2019-10-10T07:11:16.000Z</Time>
            <Position>
              <LatitudeDegrees>38.4145436994731426239013671875</LatitudeDegrees>
              <LongitudeDegrees>-6.399445272982120513916015625</LongitudeDegrees>
            </Position>
            <AltitudeMeters>442.399993896484375</AltitudeMeters>
            <DistanceMeters>NAN</DistanceMeters>
          </Trackpoint>
          <Trackpoint>
            <Time>2019-10-10T07:11:20.000Z</Time>
            <Position>
              <LatitudeDegrees>38.41435099951922893524169921875</LatitudeDegrees>
              <LongitudeDegrees>-6.39930403791368007659912109375</LongitudeDegrees>
            </Position>
            <AltitudeMeters>441.79998779296875</AltitudeMeters>
            <DistanceMeters>NAN</DistanceMeters>
          </Trackpoint>
          <Trackpoint>
            <Time>2019-10-10T07:11:21.000Z</Time>
            <Position>
              <LatitudeDegrees>38.4143252670764923095703125</LatitudeDegrees>
              <LongitudeDegrees>-6.39924385584890842437744140625</LongitudeDegrees>
            </Position>
            <AltitudeMeters>441</AltitudeMeters>
            <DistanceMeters>NAN</DistanceMeters>
          </Trackpoint>
          <Trackpoint>
            <Time>2019-10-10T07:11:23.000Z</Time>
            <Position>
              <LatitudeDegrees>38.41430447995662689208984375</LatitudeDegrees>
              <LongitudeDegrees>-6.3991058059036731719970703125</LongitudeDegrees>
            </Position>
            <AltitudeMeters>441</AltitudeMeters>
            <DistanceMeters>NAN</DistanceMeters>
          </Trackpoint>
          <Trackpoint>
            <Time>2019-10-10T07:11:25.000Z</Time>
            <Position>
              <LatitudeDegrees>38.41429936699569225311279296875</LatitudeDegrees>
              <LongitudeDegrees>-6.39896683394908905029296875</LongitudeDegrees>
            </Position>
            <AltitudeMeters>441</AltitudeMeters>
            <DistanceMeters>NAN</DistanceMeters>
          </Trackpoint>
          <Trackpoint>
            <Time>2019-10-10T07:11:28.000Z</Time>
            <Position>
              <LatitudeDegrees>38.4142774902284145355224609375</LatitudeDegrees>
              <LongitudeDegrees>-6.3987651653587818145751953125</LongitudeDegrees>
            </Position>
            <AltitudeMeters>441.399993896484375</AltitudeMeters>
            <DistanceMeters>NAN</DistanceMeters>
          </Trackpoint>
          <Trackpoint>
            <Time>2019-10-10T07:11:29.000Z</Time>
            <Position>
              <LatitudeDegrees>38.41425578109920024871826171875</LatitudeDegrees>
              <LongitudeDegrees>-6.39870003797113895416259765625</LongitudeDegrees>
            </Position>
            <AltitudeMeters>441.600006103515625</AltitudeMeters>
            <DistanceMeters>NAN</DistanceMeters>
          </Trackpoint>
          <Trackpoint>
            <Time>2019-10-10T07:11:36.000Z</Time>
            <Position>
              <LatitudeDegrees>38.41406735591590404510498046875</LatitudeDegrees>
              <LongitudeDegrees>-6.3982686214148998260498046875</LongitudeDegrees>
            </Position>
            <AltitudeMeters>440.79998779296875</AltitudeMeters>
            <DistanceMeters>NAN</DistanceMeters>
          </Trackpoint>
          <Trackpoint>
            <Time>2019-10-10T07:11:46.000Z</Time>
            <Position>
              <LatitudeDegrees>38.41378304176032543182373046875</LatitudeDegrees>
              <LongitudeDegrees>-6.39767711050808429718017578125</LongitudeDegrees>
            </Position>
            <AltitudeMeters>440.79998779296875</AltitudeMeters>
            <DistanceMeters>NAN</DistanceMeters>
          </Trackpoint>
          <Trackpoint>
            <Time>2019-10-10T07:11:57.000Z</Time>
            <Position>
              <LatitudeDegrees>38.41349386610090732574462890625</LatitudeDegrees>
              <LongitudeDegrees>-6.39705198816955089569091796875</LongitudeDegrees>
            </Position>
            <AltitudeMeters>441.600006103515625</AltitudeMeters>
            <DistanceMeters>NAN</DistanceMeters>
          </Trackpoint>
          <Trackpoint>
            <Time>2019-10-10T07:11:58.000Z</Time>
            <Position>
              <LatitudeDegrees>38.413467295467853546142578125</LatitudeDegrees>
              <LongitudeDegrees>-6.39699767343699932098388671875</LongitudeDegrees>
            </Position>
            <AltitudeMeters>441.79998779296875</AltitudeMeters>
            <DistanceMeters>NAN</DistanceMeters>
          </Trackpoint>
          <Trackpoint>
            <Time>2019-10-10T07:11:59.000Z</Time>
            <Position>
              <LatitudeDegrees>38.41344189830124378204345703125</LatitudeDegrees>
              <LongitudeDegrees>-6.3969429396092891693115234375</LongitudeDegrees>
            </Position>
            <AltitudeMeters>442.20001220703125</AltitudeMeters>
            <DistanceMeters>NAN</DistanceMeters>
          </Trackpoint>
          <Trackpoint>
            <Time>2019-10-10T07:12:00.000Z</Time>
            <Position>
              <LatitudeDegrees>38.4134148247539997100830078125</LatitudeDegrees>
              <LongitudeDegrees>-6.39688719995319843292236328125</LongitudeDegrees>
            </Position>
            <AltitudeMeters>442</AltitudeMeters>
            <DistanceMeters>NAN</DistanceMeters>
          </Trackpoint>
          <Trackpoint>
            <Time>2019-10-10T07:12:10.000Z</Time>
            <Position>
              <LatitudeDegrees>38.41315356083214282989501953125</LatitudeDegrees>
              <LongitudeDegrees>-6.39632527716457843780517578125</LongitudeDegrees>
            </Position>
            <AltitudeMeters>442.600006103515625</AltitudeMeters>
            <DistanceMeters>NAN</DistanceMeters>
          </Trackpoint>
          <Trackpoint>
            <Time>2019-10-10T07:12:18.000Z</Time>
            <Position>
              <LatitudeDegrees>38.4129457734525203704833984375</LatitudeDegrees>
              <LongitudeDegrees>-6.39588640071451663970947265625</LongitudeDegrees>
            </Position>
            <AltitudeMeters>443.20001220703125</AltitudeMeters>
            <DistanceMeters>NAN</DistanceMeters>
          </Trackpoint>
          <Trackpoint>
            <Time>2019-10-10T07:12:21.000Z</Time>
            <Position>
              <LatitudeDegrees>38.41287477873265743255615234375</LatitudeDegrees>
              <LongitudeDegrees>-6.39572161249816417694091796875</LongitudeDegrees>
            </Position>
            <AltitudeMeters>442.600006103515625</AltitudeMeters>
            <DistanceMeters>NAN</DistanceMeters>
          </Trackpoint>
          <Trackpoint>
            <Time>2019-10-10T07:12:22.000Z</Time>
            <Position>
              <LatitudeDegrees>38.41284980066120624542236328125</LatitudeDegrees>
              <LongitudeDegrees>-6.39566830359399318695068359375</LongitudeDegrees>
            </Position>
            <AltitudeMeters>442.20001220703125</AltitudeMeters>
            <DistanceMeters>NAN</DistanceMeters>
          </Trackpoint>
          <Trackpoint>
            <Time>2019-10-10T07:12:25.000Z</Time>
            <Position>
              <LatitudeDegrees>38.41277788393199443817138671875</LatitudeDegrees>
              <LongitudeDegrees>-6.39551223255693912506103515625</LongitudeDegrees>
            </Position>
            <AltitudeMeters>443.399993896484375</AltitudeMeters>
            <DistanceMeters>NAN</DistanceMeters>
          </Trackpoint>
          <Trackpoint>
            <Time>2019-10-10T07:12:29.000Z</Time>
            <Position>
              <LatitudeDegrees>38.41268266551196575164794921875</LatitudeDegrees>
              <LongitudeDegrees>-6.39530151151120662689208984375</LongitudeDegrees>
            </Position>
            <AltitudeMeters>443.79998779296875</AltitudeMeters>
            <DistanceMeters>NAN</DistanceMeters>
          </Trackpoint>
          <Trackpoint>
            <Time>2019-10-10T07:12:35.000Z</Time>
            <Position>
              <LatitudeDegrees>38.4125447832047939300537109375</LatitudeDegrees>
              <LongitudeDegrees>-6.3949909619987010955810546875</LongitudeDegrees>
            </Position>
            <AltitudeMeters>444.20001220703125</AltitudeMeters>
            <DistanceMeters>NAN</DistanceMeters>
          </Trackpoint>
          <Trackpoint>
            <Time>2019-10-10T07:12:37.000Z</Time>
            <Position>
              <LatitudeDegrees>38.41249658726155757904052734375</LatitudeDegrees>
              <LongitudeDegrees>-6.3948799856007099151611328125</LongitudeDegrees>
            </Position>
            <AltitudeMeters>444.399993896484375</AltitudeMeters>
            <DistanceMeters>NAN</DistanceMeters>
          </Trackpoint>
          <Trackpoint>
            <Time>2019-10-10T07:12:45.000Z</Time>
            <Position>
              <LatitudeDegrees>38.41233464889228343963623046875</LatitudeDegrees>
              <LongitudeDegrees>-6.39445996843278408050537109375</LongitudeDegrees>
            </Position>
            <AltitudeMeters>445</AltitudeMeters>
            <DistanceMeters>NAN</DistanceMeters>
          </Trackpoint>
          <Trackpoint>
            <Time>2019-10-10T07:12:47.000Z</Time>
            <Position>
              <LatitudeDegrees>38.4122953377664089202880859375</LatitudeDegrees>
              <LongitudeDegrees>-6.39436257071793079376220703125</LongitudeDegrees>
            </Position>
            <AltitudeMeters>445.600006103515625</AltitudeMeters>
            <DistanceMeters>NAN</DistanceMeters>
          </Trackpoint>
          <Trackpoint>
            <Time>2019-10-10T07:12:54.000Z</Time>
            <Position>
              <LatitudeDegrees>38.4121639095246791839599609375</LatitudeDegrees>
              <LongitudeDegrees>-6.39401371590793132781982421875</LongitudeDegrees>
            </Position>
            <AltitudeMeters>445.600006103515625</AltitudeMeters>
            <DistanceMeters>NAN</DistanceMeters>
          </Trackpoint>
          <Trackpoint>
            <Time>2019-10-10T07:13:05.000Z</Time>
            <Position>
              <LatitudeDegrees>38.41198076494038105010986328125</LatitudeDegrees>
              <LongitudeDegrees>-6.39345196075737476348876953125</LongitudeDegrees>
            </Position>
            <AltitudeMeters>446.600006103515625</AltitudeMeters>
            <DistanceMeters>NAN</DistanceMeters>
          </Trackpoint>
          <Trackpoint>
            <Time>2019-10-10T07:13:16.000Z</Time>
            <Position>
              <LatitudeDegrees>38.4118044935166835784912109375</LatitudeDegrees>
              <LongitudeDegrees>-6.39287578873336315155029296875</LongitudeDegrees>
            </Position>
            <AltitudeMeters>447.600006103515625</AltitudeMeters>
            <DistanceMeters>NAN</DistanceMeters>
          </Trackpoint>
          <Trackpoint>
            <Time>2019-10-10T07:13:23.000Z</Time>
            <Position>
              <LatitudeDegrees>38.411691002547740936279296875</LatitudeDegrees>
              <LongitudeDegrees>-6.39250396750867366790771484375</LongitudeDegrees>
            </Position>
            <AltitudeMeters>447.79998779296875</AltitudeMeters>
            <DistanceMeters>NAN</DistanceMeters>
          </Trackpoint>
          <Trackpoint>
            <Time>2019-10-10T07:13:27.000Z</Time>
            <Position>
              <LatitudeDegrees>38.41162637807428836822509765625</LatitudeDegrees>
              <LongitudeDegrees>-6.3922896422445774078369140625</LongitudeDegrees>
            </Position>
            <AltitudeMeters>448</AltitudeMeters>
            <DistanceMeters>NAN</DistanceMeters>
          </Trackpoint>
          <Trackpoint>
            <Time>2019-10-10T07:13:36.000Z</Time>
            <Position>
              <LatitudeDegrees>38.4114826284348964691162109375</LatitudeDegrees>
              <LongitudeDegrees>-6.391815729439258575439453125</LongitudeDegrees>
            </Position>
            <AltitudeMeters>448</AltitudeMeters>
            <DistanceMeters>NAN</DistanceMeters>
          </Trackpoint>
          <Trackpoint>
            <Time>2019-10-10T07:13:44.000Z</Time>
            <Position>
              <LatitudeDegrees>38.41135279275476932525634765625</LatitudeDegrees>
              <LongitudeDegrees>-6.3913991488516330718994140625</LongitudeDegrees>
            </Position>
            <AltitudeMeters>448.79998779296875</AltitudeMeters>
            <DistanceMeters>NAN</DistanceMeters>
          </Trackpoint>
          <Trackpoint>
            <Time>2019-10-10T07:13:46.000Z</Time>
            <Position>
              <LatitudeDegrees>38.41132194735109806060791015625</LatitudeDegrees>
              <LongitudeDegrees>-6.3912925310432910919189453125</LongitudeDegrees>
            </Position>
            <AltitudeMeters>448.399993896484375</AltitudeMeters>
            <DistanceMeters>NAN</DistanceMeters>
          </Trackpoint>
          <Trackpoint>
            <Time>2019-10-10T07:13:47.000Z</Time>
            <Position>
              <LatitudeDegrees>38.41130652464926242828369140625</LatitudeDegrees>
              <LongitudeDegrees>-6.3912415690720081329345703125</LongitudeDegrees>
            </Position>
            <AltitudeMeters>447.79998779296875</AltitudeMeters>
            <DistanceMeters>NAN</DistanceMeters>
          </Trackpoint>
          <Trackpoint>
            <Time>2019-10-10T07:13:50.000Z</Time>
            <Position>
              <LatitudeDegrees>38.41126042418181896209716796875</LatitudeDegrees>
              <LongitudeDegrees>-6.3910927064716815948486328125</LongitudeDegrees>
            </Position>
            <AltitudeMeters>449</AltitudeMeters>
            <DistanceMeters>NAN</DistanceMeters>
          </Trackpoint>
          <Trackpoint>
            <Time>2019-10-10T07:13:56.000Z</Time>
            <Position>
              <LatitudeDegrees>38.41117165982723236083984375</LatitudeDegrees>
              <LongitudeDegrees>-6.3907899521291255950927734375</LongitudeDegrees>
            </Position>
            <AltitudeMeters>449</AltitudeMeters>
            <DistanceMeters>NAN</DistanceMeters>
          </Trackpoint>
          <Trackpoint>
            <Time>2019-10-10T07:14:00.000Z</Time>
            <Position>
              <LatitudeDegrees>38.4111087955534458160400390625</LatitudeDegrees>
              <LongitudeDegrees>-6.390588618814945220947265625</LongitudeDegrees>
            </Position>
            <AltitudeMeters>450</AltitudeMeters>
            <DistanceMeters>NAN</DistanceMeters>
          </Trackpoint>
          <Trackpoint>
            <Time>2019-10-10T07:14:05.000Z</Time>
            <Position>
              <LatitudeDegrees>38.4110350348055362701416015625</LatitudeDegrees>
              <LongitudeDegrees>-6.39033280313014984130859375</LongitudeDegrees>
            </Position>
            <AltitudeMeters>450.399993896484375</AltitudeMeters>
            <DistanceMeters>NAN</DistanceMeters>
          </Trackpoint>
          <Trackpoint>
            <Time>2019-10-10T07:14:15.000Z</Time>
            <Position>
              <LatitudeDegrees>38.41088407672941684722900390625</LatitudeDegrees>
              <LongitudeDegrees>-6.38982050120830535888671875</LongitudeDegrees>
            </Position>
            <AltitudeMeters>450.600006103515625</AltitudeMeters>
            <DistanceMeters>NAN</DistanceMeters>
          </Trackpoint>
          <Trackpoint>
            <Time>2019-10-10T07:14:17.000Z</Time>
            <Position>
              <LatitudeDegrees>38.41085356660187244415283203125</LatitudeDegrees>
              <LongitudeDegrees>-6.3897160626947879791259765625</LongitudeDegrees>
            </Position>
            <AltitudeMeters>450.79998779296875</AltitudeMeters>
            <DistanceMeters>NAN</DistanceMeters>
          </Trackpoint>
          <Trackpoint>
            <Time>2019-10-10T07:14:19.000Z</Time>
            <Position>
              <LatitudeDegrees>38.41082355938851833343505859375</LatitudeDegrees>
              <LongitudeDegrees>-6.38961371965706348419189453125</LongitudeDegrees>
            </Position>
            <AltitudeMeters>451.20001220703125</AltitudeMeters>
            <DistanceMeters>NAN</DistanceMeters>
          </Trackpoint>
          <Trackpoint>
            <Time>2019-10-10T07:14:26.000Z</Time>
            <Position>
              <LatitudeDegrees>38.4107124991714954376220703125</LatitudeDegrees>
              <LongitudeDegrees>-6.3892604224383831024169921875</LongitudeDegrees>
            </Position>
            <AltitudeMeters>451.399993896484375</AltitudeMeters>
            <DistanceMeters>NAN</DistanceMeters>
          </Trackpoint>
          <Trackpoint>
            <Time>2019-10-10T07:14:33.000Z</Time>
            <Position>
              <LatitudeDegrees>38.41060303151607513427734375</LatitudeDegrees>
              <LongitudeDegrees>-6.38890109024941921234130859375</LongitudeDegrees>
            </Position>
            <AltitudeMeters>452.20001220703125</AltitudeMeters>
            <DistanceMeters>NAN</DistanceMeters>
          </Trackpoint>
          <Trackpoint>
            <Time>2019-10-10T07:14:35.000Z</Time>
            <Position>
              <LatitudeDegrees>38.41057428158819675445556640625</LatitudeDegrees>
              <LongitudeDegrees>-6.3887964002788066864013671875</LongitudeDegrees>
            </Position>
            <AltitudeMeters>452</AltitudeMeters>
            <DistanceMeters>NAN</DistanceMeters>
          </Trackpoint>
          <Trackpoint>
            <Time>2019-10-10T07:14:44.000Z</Time>
            <Position>
              <LatitudeDegrees>38.41043078340590000152587890625</LatitudeDegrees>
              <LongitudeDegrees>-6.3883177936077117919921875</LongitudeDegrees>
            </Position>
            <AltitudeMeters>452.20001220703125</AltitudeMeters>
            <DistanceMeters>NAN</DistanceMeters>
          </Trackpoint>
          <Trackpoint>
            <Time>2019-10-10T07:14:54.000Z</Time>
            <Position>
              <LatitudeDegrees>38.41027571819722652435302734375</LatitudeDegrees>
              <LongitudeDegrees>-6.3877929188311100006103515625</LongitudeDegrees>
            </Position>
            <AltitudeMeters>452.79998779296875</AltitudeMeters>
            <DistanceMeters>NAN</DistanceMeters>
          </Trackpoint>
          <Trackpoint>
            <Time>2019-10-10T07:14:57.000Z</Time>
            <Position>
              <LatitudeDegrees>38.4102317132055759429931640625</LatitudeDegrees>
              <LongitudeDegrees>-6.38763693161308765411376953125</LongitudeDegrees>
            </Position>
            <AltitudeMeters>453.20001220703125</AltitudeMeters>
            <DistanceMeters>NAN</DistanceMeters>
          </Trackpoint>
          <Trackpoint>
            <Time>2019-10-10T07:15:07.000Z</Time>
            <Position>
              <LatitudeDegrees>38.41009483672678470611572265625</LatitudeDegrees>
              <LongitudeDegrees>-6.3871113024652004241943359375</LongitudeDegrees>
            </Position>
            <AltitudeMeters>453.600006103515625</AltitudeMeters>
            <DistanceMeters>NAN</DistanceMeters>
          </Trackpoint>
          <Trackpoint>
            <Time>2019-10-10T07:15:08.000Z</Time>
            <Position>
              <LatitudeDegrees>38.41008142568171024322509765625</LatitudeDegrees>
              <LongitudeDegrees>-6.3870583288371562957763671875</LongitudeDegrees>
            </Position>
            <AltitudeMeters>453.399993896484375</AltitudeMeters>
            <DistanceMeters>NAN</DistanceMeters>
          </Trackpoint>
          <Trackpoint>
            <Time>2019-10-10T07:15:18.000Z</Time>
            <Position>
              <LatitudeDegrees>38.40995267964899539947509765625</LatitudeDegrees>
              <LongitudeDegrees>-6.38650705106556415557861328125</LongitudeDegrees>
            </Position>
            <AltitudeMeters>453.399993896484375</AltitudeMeters>
            <DistanceMeters>NAN</DistanceMeters>
          </Trackpoint>
          <Trackpoint>
            <Time>2019-10-10T07:15:26.000Z</Time>
            <Position>
              <LatitudeDegrees>38.40985612012445926666259765625</LatitudeDegrees>
              <LongitudeDegrees>-6.38603766448795795440673828125</LongitudeDegrees>
            </Position>
            <AltitudeMeters>453</AltitudeMeters>
            <DistanceMeters>NAN</DistanceMeters>
          </Trackpoint>
          <Trackpoint>
            <Time>2019-10-10T07:15:33.000Z</Time>
            <Position>
              <LatitudeDegrees>38.40976878069341182708740234375</LatitudeDegrees>
              <LongitudeDegrees>-6.3856085948646068572998046875</LongitudeDegrees>
            </Position>
            <AltitudeMeters>452.20001220703125</AltitudeMeters>
            <DistanceMeters>NAN</DistanceMeters>
          </Trackpoint>
          <Trackpoint>
            <Time>2019-10-10T07:15:37.000Z</Time>
            <Position>
              <LatitudeDegrees>38.4097180701792240142822265625</LatitudeDegrees>
              <LongitudeDegrees>-6.38536577112972736358642578125</LongitudeDegrees>
            </Position>
            <AltitudeMeters>452.399993896484375</AltitudeMeters>
            <DistanceMeters>NAN</DistanceMeters>
          </Trackpoint>
          <Trackpoint>
            <Time>2019-10-10T07:15:48.000Z</Time>
            <Position>
              <LatitudeDegrees>38.40957717038691043853759765625</LatitudeDegrees>
              <LongitudeDegrees>-6.3846887648105621337890625</LongitudeDegrees>
            </Position>
            <AltitudeMeters>452.20001220703125</AltitudeMeters>
            <DistanceMeters>NAN</DistanceMeters>
          </Trackpoint>
          <Trackpoint>
            <Time>2019-10-10T07:15:51.000Z</Time>
            <Position>
              <LatitudeDegrees>38.40953945182263851165771484375</LatitudeDegrees>
              <LongitudeDegrees>-6.3845063745975494384765625</LongitudeDegrees>
            </Position>
            <AltitudeMeters>451.79998779296875</AltitudeMeters>
            <DistanceMeters>NAN</DistanceMeters>
          </Trackpoint>
          <Trackpoint>
            <Time>2019-10-10T07:15:52.000Z</Time>
            <Position>
              <LatitudeDegrees>38.4095269627869129180908203125</LatitudeDegrees>
              <LongitudeDegrees>-6.38444493524730205535888671875</LongitudeDegrees>
            </Position>
            <AltitudeMeters>451.20001220703125</AltitudeMeters>
            <DistanceMeters>NAN</DistanceMeters>
          </Trackpoint>
          <Trackpoint>
            <Time>2019-10-10T07:15:54.000Z</Time>
            <Position>
              <LatitudeDegrees>38.40950106270611286163330078125</LatitudeDegrees>
              <LongitudeDegrees>-6.38432004489004611968994140625</LongitudeDegrees>
            </Position>
            <AltitudeMeters>452.600006103515625</AltitudeMeters>
            <DistanceMeters>NAN</DistanceMeters>
          </Trackpoint>
          <Trackpoint>
            <Time>2019-10-10T07:15:57.000Z</Time>
            <Position>
              <LatitudeDegrees>38.40946066193282604217529296875</LatitudeDegrees>
              <LongitudeDegrees>-6.38412474654614925384521484375</LongitudeDegrees>
            </Position>
            <AltitudeMeters>452.399993896484375</AltitudeMeters>
            <DistanceMeters>NAN</DistanceMeters>
          </Trackpoint>
          <Trackpoint>
            <Time>2019-10-10T07:16:00.000Z</Time>
            <Position>
              <LatitudeDegrees>38.4094233624637126922607421875</LatitudeDegrees>
              <LongitudeDegrees>-6.3839322142302989959716796875</LongitudeDegrees>
            </Position>
            <AltitudeMeters>452.20001220703125</AltitudeMeters>
            <DistanceMeters>NAN</DistanceMeters>
          </Trackpoint>
          <Trackpoint>
            <Time>2019-10-10T07:16:10.000Z</Time>
            <Position>
              <LatitudeDegrees>38.409278690814971923828125</LatitudeDegrees>
              <LongitudeDegrees>-6.3832462392747402191162109375</LongitudeDegrees>
            </Position>
            <AltitudeMeters>451.600006103515625</AltitudeMeters>
            <DistanceMeters>NAN</DistanceMeters>
          </Trackpoint>
          <Trackpoint>
            <Time>2019-10-10T07:16:11.000Z</Time>
            <Position>
              <LatitudeDegrees>38.4092639386653900146484375</LatitudeDegrees>
              <LongitudeDegrees>-6.38317641802132129669189453125</LongitudeDegrees>
            </Position>
            <AltitudeMeters>451.399993896484375</AltitudeMeters>
            <DistanceMeters>NAN</DistanceMeters>
          </Trackpoint>
          <Trackpoint>
            <Time>2019-10-10T07:16:21.000Z</Time>
            <Position>
              <LatitudeDegrees>38.4091289900243282318115234375</LatitudeDegrees>
              <LongitudeDegrees>-6.3825076259672641754150390625</LongitudeDegrees>
            </Position>
            <AltitudeMeters>451.399993896484375</AltitudeMeters>
            <DistanceMeters>NAN</DistanceMeters>
          </Trackpoint>
          <Trackpoint>
            <Time>2019-10-10T07:16:26.000Z</Time>
            <Position>
              <LatitudeDegrees>38.4090649522840976715087890625</LatitudeDegrees>
              <LongitudeDegrees>-6.38219959102571010589599609375</LongitudeDegrees>
            </Position>
            <AltitudeMeters>452.600006103515625</AltitudeMeters>
            <DistanceMeters>NAN</DistanceMeters>
          </Trackpoint>
          <Trackpoint>
            <Time>2019-10-10T07:16:29.000Z</Time>
            <Position>
              <LatitudeDegrees>38.4090307541191577911376953125</LatitudeDegrees>
              <LongitudeDegrees>-6.3820208050310611724853515625</LongitudeDegrees>
            </Position>
            <AltitudeMeters>452.79998779296875</AltitudeMeters>
            <DistanceMeters>NAN</DistanceMeters>
          </Trackpoint>
          <Trackpoint>
            <Time>2019-10-10T07:16:41.000Z</Time>
            <Position>
              <LatitudeDegrees>38.4088865853846073150634765625</LatitudeDegrees>
              <LongitudeDegrees>-6.38132837601006031036376953125</LongitudeDegrees>
            </Position>
            <AltitudeMeters>453.399993896484375</AltitudeMeters>
            <DistanceMeters>NAN</DistanceMeters>
          </Trackpoint>
          <Trackpoint>
            <Time>2019-10-10T07:16:47.000Z</Time>
            <Position>
              <LatitudeDegrees>38.40881936252117156982421875</LatitudeDegrees>
              <LongitudeDegrees>-6.38098689727485179901123046875</LongitudeDegrees>
            </Position>
            <AltitudeMeters>453.79998779296875</AltitudeMeters>
            <DistanceMeters>NAN</DistanceMeters>
          </Trackpoint>
          <Trackpoint>
            <Time>2019-10-10T07:16:50.000Z</Time>
            <Position>
              <LatitudeDegrees>38.4087819792330265045166015625</LatitudeDegrees>
              <LongitudeDegrees>-6.3808174990117549896240234375</LongitudeDegrees>
            </Position>
            <AltitudeMeters>453.600006103515625</AltitudeMeters>
            <DistanceMeters>NAN</DistanceMeters>
          </Trackpoint>
          <Trackpoint>
            <Time>2019-10-10T07:17:00.000Z</Time>
            <Position>
              <LatitudeDegrees>38.40866379439830780029296875</LatitudeDegrees>
              <LongitudeDegrees>-6.38024241663515567779541015625</LongitudeDegrees>
            </Position>
            <AltitudeMeters>453.79998779296875</AltitudeMeters>
            <DistanceMeters>NAN</DistanceMeters>
          </Trackpoint>
          <Trackpoint>
            <Time>2019-10-10T07:17:09.000Z</Time>
            <Position>
              <LatitudeDegrees>38.40856329537928104400634765625</LatitudeDegrees>
              <LongitudeDegrees>-6.379737742245197296142578125</LongitudeDegrees>
            </Position>
            <AltitudeMeters>454.20001220703125</AltitudeMeters>
            <DistanceMeters>NAN</DistanceMeters>
          </Trackpoint>
          <Trackpoint>
            <Time>2019-10-10T07:17:12.000Z</Time>
            <Position>
              <LatitudeDegrees>38.4085275046527385711669921875</LatitudeDegrees>
              <LongitudeDegrees>-6.37957513332366943359375</LongitudeDegrees>
            </Position>
            <AltitudeMeters>454.399993896484375</AltitudeMeters>
            <DistanceMeters>NAN</DistanceMeters>
          </Trackpoint>
          <Trackpoint>
            <Time>2019-10-10T07:17:16.000Z</Time>
            <Position>
              <LatitudeDegrees>38.4084835834801197052001953125</LatitudeDegrees>
              <LongitudeDegrees>-6.37935678474605083465576171875</LongitudeDegrees>
            </Position>
            <AltitudeMeters>454.79998779296875</AltitudeMeters>
            <DistanceMeters>NAN</DistanceMeters>
          </Trackpoint>
          <Trackpoint>
            <Time>2019-10-10T07:17:20.000Z</Time>
            <Position>
              <LatitudeDegrees>38.40843471698462963104248046875</LatitudeDegrees>
              <LongitudeDegrees>-6.37913784943521022796630859375</LongitudeDegrees>
            </Position>
            <AltitudeMeters>455.20001220703125</AltitudeMeters>
            <DistanceMeters>NAN</DistanceMeters>
          </Trackpoint>
          <Trackpoint>
            <Time>2019-10-10T07:17:30.000Z</Time>
            <Position>
              <LatitudeDegrees>38.4083219803869724273681640625</LatitudeDegrees>
              <LongitudeDegrees>-6.378587074577808380126953125</LongitudeDegrees>
            </Position>
            <AltitudeMeters>456</AltitudeMeters>
            <DistanceMeters>NAN</DistanceMeters>
          </Trackpoint>
          <Trackpoint>
            <Time>2019-10-10T07:17:40.000Z</Time>
            <Position>
              <LatitudeDegrees>38.40820454992353916168212890625</LatitudeDegrees>
              <LongitudeDegrees>-6.37802741490304470062255859375</LongitudeDegrees>
            </Position>
            <AltitudeMeters>456.20001220703125</AltitudeMeters>
            <DistanceMeters>NAN</DistanceMeters>
          </Trackpoint>
          <Trackpoint>
            <Time>2019-10-10T07:17:48.000Z</Time>
            <Position>
              <LatitudeDegrees>38.40811218135058879852294921875</LatitudeDegrees>
              <LongitudeDegrees>-6.37756909243762493133544921875</LongitudeDegrees>
            </Position>
            <AltitudeMeters>456.20001220703125</AltitudeMeters>
            <DistanceMeters>NAN</DistanceMeters>
          </Trackpoint>
          <Trackpoint>
            <Time>2019-10-10T07:18:00.000Z</Time>
            <Position>
              <LatitudeDegrees>38.4079679287970066070556640625</LatitudeDegrees>
              <LongitudeDegrees>-6.37687691487371921539306640625</LongitudeDegrees>
            </Position>
            <AltitudeMeters>456.20001220703125</AltitudeMeters>
            <DistanceMeters>NAN</DistanceMeters>
          </Trackpoint>
          <Trackpoint>
            <Time>2019-10-10T07:18:02.000Z</Time>
            <Position>
              <LatitudeDegrees>38.4079442918300628662109375</LatitudeDegrees>
              <LongitudeDegrees>-6.376759819686412811279296875</LongitudeDegrees>
            </Position>
            <AltitudeMeters>456.20001220703125</AltitudeMeters>
            <DistanceMeters>NAN</DistanceMeters>
          </Trackpoint>
          <Trackpoint>
            <Time>2019-10-10T07:18:13.000Z</Time>
            <Position>
              <LatitudeDegrees>38.407808840274810791015625</LatitudeDegrees>
              <LongitudeDegrees>-6.3761137425899505615234375</LongitudeDegrees>
            </Position>
            <AltitudeMeters>456.399993896484375</AltitudeMeters>
            <DistanceMeters>NAN</DistanceMeters>
          </Trackpoint>
          <Trackpoint>
            <Time>2019-10-10T07:18:17.000Z</Time>
            <Position>
              <LatitudeDegrees>38.4077624045312404632568359375</LatitudeDegrees>
              <LongitudeDegrees>-6.375876702368259429931640625</LongitudeDegrees>
            </Position>
            <AltitudeMeters>457.20001220703125</AltitudeMeters>
            <DistanceMeters>NAN</DistanceMeters>
          </Trackpoint>
          <Trackpoint>
            <Time>2019-10-10T07:18:24.000Z</Time>
            <Position>
              <LatitudeDegrees>38.40767665766179561614990234375</LatitudeDegrees>
              <LongitudeDegrees>-6.3754581101238727569580078125</LongitudeDegrees>
            </Position>
            <AltitudeMeters>456.600006103515625</AltitudeMeters>
            <DistanceMeters>NAN</DistanceMeters>
          </Trackpoint>
          <Trackpoint>
            <Time>2019-10-10T07:18:32.000Z</Time>
            <Position>
              <LatitudeDegrees>38.40758093632757663726806640625</LatitudeDegrees>
              <LongitudeDegrees>-6.37498193420469760894775390625</LongitudeDegrees>
            </Position>
            <AltitudeMeters>456.600006103515625</AltitudeMeters>
            <DistanceMeters>NAN</DistanceMeters>
          </Trackpoint>
          <Trackpoint>
            <Time>2019-10-10T07:18:36.000Z</Time>
            <Position>
              <LatitudeDegrees>38.4075317345559597015380859375</LatitudeDegrees>
              <LongitudeDegrees>-6.37474020011723041534423828125</LongitudeDegrees>
            </Position>
            <AltitudeMeters>456.600006103515625</AltitudeMeters>
            <DistanceMeters>NAN</DistanceMeters>
          </Trackpoint>
          <Trackpoint>
            <Time>2019-10-10T07:18:42.000Z</Time>
            <Position>
              <LatitudeDegrees>38.40745956636965274810791015625</LatitudeDegrees>
              <LongitudeDegrees>-6.3743756711483001708984375</LongitudeDegrees>
            </Position>
            <AltitudeMeters>456</AltitudeMeters>
            <DistanceMeters>NAN</DistanceMeters>
          </Trackpoint>
          <Trackpoint>
            <Time>2019-10-10T07:18:44.000Z</Time>
            <Position>
              <LatitudeDegrees>38.40743375010788440704345703125</LatitudeDegrees>
              <LongitudeDegrees>-6.374257318675518035888671875</LongitudeDegrees>
            </Position>
            <AltitudeMeters>456.600006103515625</AltitudeMeters>
            <DistanceMeters>NAN</DistanceMeters>
          </Trackpoint>
          <Trackpoint>
            <Time>2019-10-10T07:18:48.000Z</Time>
            <Position>
              <LatitudeDegrees>38.40738429687917232513427734375</LatitudeDegrees>
              <LongitudeDegrees>-6.3740201108157634735107421875</LongitudeDegrees>
            </Position>
            <AltitudeMeters>456</AltitudeMeters>
            <DistanceMeters>NAN</DistanceMeters>
          </Trackpoint>
          <Trackpoint>
            <Time>2019-10-10T07:18:59.000Z</Time>
            <Position>
              <LatitudeDegrees>38.40724918060004711151123046875</LatitudeDegrees>
              <LongitudeDegrees>-6.3733723573386669158935546875</LongitudeDegrees>
            </Position>
            <AltitudeMeters>456.399993896484375</AltitudeMeters>
            <DistanceMeters>NAN</DistanceMeters>
          </Trackpoint>
          <Trackpoint>
            <Time>2019-10-10T07:19:07.000Z</Time>
            <Position>
              <LatitudeDegrees>38.407151699066162109375</LatitudeDegrees>
              <LongitudeDegrees>-6.3729130290448665618896484375</LongitudeDegrees>
            </Position>
            <AltitudeMeters>456</AltitudeMeters>
            <DistanceMeters>NAN</DistanceMeters>
          </Trackpoint>
          <Trackpoint>
            <Time>2019-10-10T07:19:18.000Z</Time>
            <Position>
              <LatitudeDegrees>38.40702119283378124237060546875</LatitudeDegrees>
              <LongitudeDegrees>-6.37227826751768589019775390625</LongitudeDegrees>
            </Position>
            <AltitudeMeters>456</AltitudeMeters>
            <DistanceMeters>NAN</DistanceMeters>
          </Trackpoint>
          <Trackpoint>
            <Time>2019-10-10T07:19:29.000Z</Time>
            <Position>
              <LatitudeDegrees>38.40689244680106639862060546875</LatitudeDegrees>
              <LongitudeDegrees>-6.37163755483925342559814453125</LongitudeDegrees>
            </Position>
            <AltitudeMeters>456.600006103515625</AltitudeMeters>
            <DistanceMeters>NAN</DistanceMeters>
          </Trackpoint>
          <Trackpoint>
            <Time>2019-10-10T07:19:30.000Z</Time>
            <Position>
              <LatitudeDegrees>38.406879119575023651123046875</LatitudeDegrees>
              <LongitudeDegrees>-6.37157921679317951202392578125</LongitudeDegrees>
            </Position>
            <AltitudeMeters>456.79998779296875</AltitudeMeters>
            <DistanceMeters>NAN</DistanceMeters>
          </Trackpoint>
          <Trackpoint>
            <Time>2019-10-10T07:19:36.000Z</Time>
            <Position>
              <LatitudeDegrees>38.40680661611258983612060546875</LatitudeDegrees>
              <LongitudeDegrees>-6.3712232373654842376708984375</LongitudeDegrees>
            </Position>
            <AltitudeMeters>457</AltitudeMeters>
            <DistanceMeters>NAN</DistanceMeters>
          </Trackpoint>
          <Trackpoint>
            <Time>2019-10-10T07:19:43.000Z</Time>
            <Position>
              <LatitudeDegrees>38.40672053396701812744140625</LatitudeDegrees>
              <LongitudeDegrees>-6.3708152063190937042236328125</LongitudeDegrees>
            </Position>
            <AltitudeMeters>457.79998779296875</AltitudeMeters>
            <DistanceMeters>NAN</DistanceMeters>
          </Trackpoint>
          <Trackpoint>
            <Time>2019-10-10T07:19:45.000Z</Time>
            <Position>
              <LatitudeDegrees>38.40669597499072551727294921875</LatitudeDegrees>
              <LongitudeDegrees>-6.37069710530340671539306640625</LongitudeDegrees>
            </Position>
            <AltitudeMeters>458.600006103515625</AltitudeMeters>
            <DistanceMeters>NAN</DistanceMeters>
          </Trackpoint>
          <Trackpoint>
            <Time>2019-10-10T07:19:55.000Z</Time>
            <Position>
              <LatitudeDegrees>38.406575024127960205078125</LatitudeDegrees>
              <LongitudeDegrees>-6.37011690996587276458740234375</LongitudeDegrees>
            </Position>
            <AltitudeMeters>458.20001220703125</AltitudeMeters>
            <DistanceMeters>NAN</DistanceMeters>
          </Trackpoint>
          <Trackpoint>
            <Time>2019-10-10T07:20:03.000Z</Time>
            <Position>
              <LatitudeDegrees>38.40647921897470951080322265625</LatitudeDegrees>
              <LongitudeDegrees>-6.36965054087340831756591796875</LongitudeDegrees>
            </Position>
            <AltitudeMeters>458.399993896484375</AltitudeMeters>
            <DistanceMeters>NAN</DistanceMeters>
          </Trackpoint>
          <Trackpoint>
            <Time>2019-10-10T07:20:14.000Z</Time>
            <Position>
              <LatitudeDegrees>38.4063478745520114898681640625</LatitudeDegrees>
              <LongitudeDegrees>-6.36901619844138622283935546875</LongitudeDegrees>
            </Position>
            <AltitudeMeters>459.20001220703125</AltitudeMeters>
            <DistanceMeters>NAN</DistanceMeters>
          </Trackpoint>
          <Trackpoint>
            <Time>2019-10-10T07:20:18.000Z</Time>
            <Position>
              <LatitudeDegrees>38.406301438808441162109375</LatitudeDegrees>
              <LongitudeDegrees>-6.36878988705575466156005859375</LongitudeDegrees>
            </Position>
            <AltitudeMeters>460.20001220703125</AltitudeMeters>
            <DistanceMeters>NAN</DistanceMeters>
          </Trackpoint>
          <Trackpoint>
            <Time>2019-10-10T07:20:23.000Z</Time>
            <Position>
              <LatitudeDegrees>38.4062422625720500946044921875</LatitudeDegrees>
              <LongitudeDegrees>-6.368510015308856964111328125</LongitudeDegrees>
            </Position>
            <AltitudeMeters>459.600006103515625</AltitudeMeters>
            <DistanceMeters>NAN</DistanceMeters>
          </Trackpoint>
          <Trackpoint>
            <Time>2019-10-10T07:20:33.000Z</Time>
            <Position>
              <LatitudeDegrees>38.4061292745172977447509765625</LatitudeDegrees>
              <LongitudeDegrees>-6.36796192266047000885009765625</LongitudeDegrees>
            </Position>
            <AltitudeMeters>460.20001220703125</AltitudeMeters>
            <DistanceMeters>NAN</DistanceMeters>
          </Trackpoint>
          <Trackpoint>
            <Time>2019-10-10T07:20:42.000Z</Time>
            <Position>
              <LatitudeDegrees>38.406026847660541534423828125</LatitudeDegrees>
              <LongitudeDegrees>-6.367467306554317474365234375</LongitudeDegrees>
            </Position>
            <AltitudeMeters>461</AltitudeMeters>
            <DistanceMeters>NAN</DistanceMeters>
          </Trackpoint>
          <Trackpoint>
            <Time>2019-10-10T07:20:43.000Z</Time>
            <Position>
              <LatitudeDegrees>38.406017459928989410400390625</LatitudeDegrees>
              <LongitudeDegrees>-6.36741089634597301483154296875</LongitudeDegrees>
            </Position>
            <AltitudeMeters>461.20001220703125</AltitudeMeters>
            <DistanceMeters>NAN</DistanceMeters>
          </Trackpoint>
          <Trackpoint>
            <Time>2019-10-10T07:20:51.000Z</Time>
            <Position>
              <LatitudeDegrees>38.40591830201447010040283203125</LatitudeDegrees>
              <LongitudeDegrees>-6.366950310766696929931640625</LongitudeDegrees>
            </Position>
            <AltitudeMeters>461.20001220703125</AltitudeMeters>
            <DistanceMeters>NAN</DistanceMeters>
          </Trackpoint>
          <Trackpoint>
            <Time>2019-10-10T07:21:03.000Z</Time>
            <Position>
              <LatitudeDegrees>38.4057752229273319244384765625</LatitudeDegrees>
              <LongitudeDegrees>-6.36625553481280803680419921875</LongitudeDegrees>
            </Position>
            <AltitudeMeters>461.20001220703125</AltitudeMeters>
            <DistanceMeters>NAN</DistanceMeters>
          </Trackpoint>
          <Trackpoint>
            <Time>2019-10-10T07:21:12.000Z</Time>
            <Position>
              <LatitudeDegrees>38.4056670963764190673828125</LatitudeDegrees>
              <LongitudeDegrees>-6.3657317496836185455322265625</LongitudeDegrees>
            </Position>
            <AltitudeMeters>461.399993896484375</AltitudeMeters>
            <DistanceMeters>NAN</DistanceMeters>
          </Trackpoint>
          <Trackpoint>
            <Time>2019-10-10T07:21:23.000Z</Time>
            <Position>
              <LatitudeDegrees>38.40553457848727703094482421875</LatitudeDegrees>
              <LongitudeDegrees>-6.365088522434234619140625</LongitudeDegrees>
            </Position>
            <AltitudeMeters>461.79998779296875</AltitudeMeters>
            <DistanceMeters>NAN</DistanceMeters>
          </Trackpoint>
          <Trackpoint>
            <Time>2019-10-10T07:21:34.000Z</Time>
            <Position>
              <LatitudeDegrees>38.40539879165589809417724609375</LatitudeDegrees>
              <LongitudeDegrees>-6.36444470845162868499755859375</LongitudeDegrees>
            </Position>
            <AltitudeMeters>461.600006103515625</AltitudeMeters>
            <DistanceMeters>NAN</DistanceMeters>
          </Trackpoint>
          <Trackpoint>
            <Time>2019-10-10T07:21:46.000Z</Time>
            <Position>
              <LatitudeDegrees>38.40524422936141490936279296875</LatitudeDegrees>
              <LongitudeDegrees>-6.3637568056583404541015625</LongitudeDegrees>
            </Position>
            <AltitudeMeters>461.399993896484375</AltitudeMeters>
            <DistanceMeters>NAN</DistanceMeters>
          </Trackpoint>
          <Trackpoint>
            <Time>2019-10-10T07:21:57.000Z</Time>
            <Position>
              <LatitudeDegrees>38.40508815832436084747314453125</LatitudeDegrees>
              <LongitudeDegrees>-6.36312983930110931396484375</LongitudeDegrees>
            </Position>
            <AltitudeMeters>461.79998779296875</AltitudeMeters>
            <DistanceMeters>NAN</DistanceMeters>
          </Trackpoint>
          <Trackpoint>
            <Time>2019-10-10T07:21:59.000Z</Time>
            <Position>
              <LatitudeDegrees>38.40505756437778472900390625</LatitudeDegrees>
              <LongitudeDegrees>-6.3630146719515323638916015625</LongitudeDegrees>
            </Position>
            <AltitudeMeters>462.399993896484375</AltitudeMeters>
            <DistanceMeters>NAN</DistanceMeters>
          </Trackpoint>
          <Trackpoint>
            <Time>2019-10-10T07:22:07.000Z</Time>
            <Position>
              <LatitudeDegrees>38.40491473674774169921875</LatitudeDegrees>
              <LongitudeDegrees>-6.3625395856797695159912109375</LongitudeDegrees>
            </Position>
            <AltitudeMeters>461.79998779296875</AltitudeMeters>
            <DistanceMeters>NAN</DistanceMeters>
          </Trackpoint>
          <Trackpoint>
            <Time>2019-10-10T07:22:14.000Z</Time>
            <Position>
              <LatitudeDegrees>38.40475271455943584442138671875</LatitudeDegrees>
              <LongitudeDegrees>-6.3620799221098423004150390625</LongitudeDegrees>
            </Position>
            <AltitudeMeters>461.399993896484375</AltitudeMeters>
            <DistanceMeters>NAN</DistanceMeters>
          </Trackpoint>
          <Trackpoint>
            <Time>2019-10-10T07:22:21.000Z</Time>
            <Position>
              <LatitudeDegrees>38.40458038263022899627685546875</LatitudeDegrees>
              <LongitudeDegrees>-6.361596621572971343994140625</LongitudeDegrees>
            </Position>
            <AltitudeMeters>460.79998779296875</AltitudeMeters>
            <DistanceMeters>NAN</DistanceMeters>
          </Trackpoint>
          <Trackpoint>
            <Time>2019-10-10T07:22:24.000Z</Time>
            <Position>
              <LatitudeDegrees>38.4045021794736385345458984375</LatitudeDegrees>
              <LongitudeDegrees>-6.3613857328891754150390625</LongitudeDegrees>
            </Position>
            <AltitudeMeters>460.20001220703125</AltitudeMeters>
            <DistanceMeters>NAN</DistanceMeters>
          </Trackpoint>
          <Trackpoint>
            <Time>2019-10-10T07:22:29.000Z</Time>
            <Position>
              <LatitudeDegrees>38.4043653868138790130615234375</LatitudeDegrees>
              <LongitudeDegrees>-6.36103503406047821044921875</LongitudeDegrees>
            </Position>
            <AltitudeMeters>460.20001220703125</AltitudeMeters>
            <DistanceMeters>NAN</DistanceMeters>
          </Trackpoint>
          <Trackpoint>
            <Time>2019-10-10T07:22:31.000Z</Time>
            <Position>
              <LatitudeDegrees>38.40430654585361480712890625</LatitudeDegrees>
              <LongitudeDegrees>-6.3608957268297672271728515625</LongitudeDegrees>
            </Position>
            <AltitudeMeters>459.79998779296875</AltitudeMeters>
            <DistanceMeters>NAN</DistanceMeters>
          </Trackpoint>
          <Trackpoint>
            <Time>2019-10-10T07:22:39.000Z</Time>
            <Position>
              <LatitudeDegrees>38.4040599502623081207275390625</LatitudeDegrees>
              <LongitudeDegrees>-6.3603396713733673095703125</LongitudeDegrees>
            </Position>
            <AltitudeMeters>459.399993896484375</AltitudeMeters>
            <DistanceMeters>NAN</DistanceMeters>
          </Trackpoint>
          <Trackpoint>
            <Time>2019-10-10T07:22:45.000Z</Time>
            <Position>
              <LatitudeDegrees>38.403867669403553009033203125</LatitudeDegrees>
              <LongitudeDegrees>-6.3599304668605327606201171875</LongitudeDegrees>
            </Position>
            <AltitudeMeters>459.20001220703125</AltitudeMeters>
            <DistanceMeters>NAN</DistanceMeters>
          </Trackpoint>
          <Trackpoint>
            <Time>2019-10-10T07:22:46.000Z</Time>
            <Position>
              <LatitudeDegrees>38.403828442096710205078125</LatitudeDegrees>
              <LongitudeDegrees>-6.3598660938441753387451171875</LongitudeDegrees>
            </Position>
            <AltitudeMeters>458.79998779296875</AltitudeMeters>
            <DistanceMeters>NAN</DistanceMeters>
          </Trackpoint>
          <Trackpoint>
            <Time>2019-10-10T07:22:53.000Z</Time>
            <Position>
              <LatitudeDegrees>38.40356851927936077117919921875</LatitudeDegrees>
              <LongitudeDegrees>-6.3593869842588901519775390625</LongitudeDegrees>
            </Position>
            <AltitudeMeters>458</AltitudeMeters>
            <DistanceMeters>NAN</DistanceMeters>
          </Trackpoint>
          <Trackpoint>
            <Time>2019-10-10T07:23:02.000Z</Time>
            <Position>
              <LatitudeDegrees>38.403259478509426116943359375</LatitudeDegrees>
              <LongitudeDegrees>-6.35875993408262729644775390625</LongitudeDegrees>
            </Position>
            <AltitudeMeters>457.399993896484375</AltitudeMeters>
            <DistanceMeters>NAN</DistanceMeters>
          </Trackpoint>
          <Trackpoint>
            <Time>2019-10-10T07:23:04.000Z</Time>
            <Position>
              <LatitudeDegrees>38.4031895734369754791259765625</LatitudeDegrees>
              <LongitudeDegrees>-6.35862146504223346710205078125</LongitudeDegrees>
            </Position>
            <AltitudeMeters>457</AltitudeMeters>
            <DistanceMeters>NAN</DistanceMeters>
          </Trackpoint>
          <Trackpoint>
            <Time>2019-10-10T07:23:11.000Z</Time>
            <Position>
              <LatitudeDegrees>38.4029468335211277008056640625</LatitudeDegrees>
              <LongitudeDegrees>-6.35812777094542980194091796875</LongitudeDegrees>
            </Position>
            <AltitudeMeters>456.399993896484375</AltitudeMeters>
            <DistanceMeters>NAN</DistanceMeters>
          </Trackpoint>
          <Trackpoint>
            <Time>2019-10-10T07:23:19.000Z</Time>
            <Position>
              <LatitudeDegrees>38.4026799537241458892822265625</LatitudeDegrees>
              <LongitudeDegrees>-6.35757456533610820770263671875</LongitudeDegrees>
            </Position>
            <AltitudeMeters>456.399993896484375</AltitudeMeters>
            <DistanceMeters>NAN</DistanceMeters>
          </Trackpoint>
          <Trackpoint>
            <Time>2019-10-10T07:23:20.000Z</Time>
            <Position>
              <LatitudeDegrees>38.4026464261114597320556640625</LatitudeDegrees>
              <LongitudeDegrees>-6.357504911720752716064453125</LongitudeDegrees>
            </Position>
            <AltitudeMeters>456</AltitudeMeters>
            <DistanceMeters>NAN</DistanceMeters>
          </Trackpoint>
          <Trackpoint>
            <Time>2019-10-10T07:23:27.000Z</Time>
            <Position>
              <LatitudeDegrees>38.40242371894419193267822265625</LatitudeDegrees>
              <LongitudeDegrees>-6.35702018626034259796142578125</LongitudeDegrees>
            </Position>
            <AltitudeMeters>456.600006103515625</AltitudeMeters>
            <DistanceMeters>NAN</DistanceMeters>
          </Trackpoint>
          <Trackpoint>
            <Time>2019-10-10T07:23:36.000Z</Time>
            <Position>
              <LatitudeDegrees>38.4021264128386974334716796875</LatitudeDegrees>
              <LongitudeDegrees>-6.356422640383243560791015625</LongitudeDegrees>
            </Position>
            <AltitudeMeters>456.20001220703125</AltitudeMeters>
            <DistanceMeters>NAN</DistanceMeters>
          </Trackpoint>
          <Trackpoint>
            <Time>2019-10-10T07:23:41.000Z</Time>
            <Position>
              <LatitudeDegrees>38.4019656479358673095703125</LatitudeDegrees>
              <LongitudeDegrees>-6.35609968565404415130615234375</LongitudeDegrees>
            </Position>
            <AltitudeMeters>456.399993896484375</AltitudeMeters>
            <DistanceMeters>NAN</DistanceMeters>
          </Trackpoint>
          <Trackpoint>
            <Time>2019-10-10T07:23:50.000Z</Time>
            <Position>
              <LatitudeDegrees>38.401682674884796142578125</LatitudeDegrees>
              <LongitudeDegrees>-6.3555279560387134552001953125</LongitudeDegrees>
            </Position>
            <AltitudeMeters>456.79998779296875</AltitudeMeters>
            <DistanceMeters>NAN</DistanceMeters>
          </Trackpoint>
          <Trackpoint>
            <Time>2019-10-10T07:23:54.000Z</Time>
            <Position>
              <LatitudeDegrees>38.40156189166009426116943359375</LatitudeDegrees>
              <LongitudeDegrees>-6.3552835397422313690185546875</LongitudeDegrees>
            </Position>
            <AltitudeMeters>456.399993896484375</AltitudeMeters>
            <DistanceMeters>NAN</DistanceMeters>
          </Trackpoint>
          <Trackpoint>
            <Time>2019-10-10T07:24:04.000Z</Time>
            <Position>
              <LatitudeDegrees>38.40126986615359783172607421875</LatitudeDegrees>
              <LongitudeDegrees>-6.35470091365277767181396484375</LongitudeDegrees>
            </Position>
            <AltitudeMeters>456.600006103515625</AltitudeMeters>
            <DistanceMeters>NAN</DistanceMeters>
          </Trackpoint>
          <Trackpoint>
            <Time>2019-10-10T07:24:05.000Z</Time>
            <Position>
              <LatitudeDegrees>38.4012402780354022979736328125</LatitudeDegrees>
              <LongitudeDegrees>-6.35464358143508434295654296875</LongitudeDegrees>
            </Position>
            <AltitudeMeters>456.600006103515625</AltitudeMeters>
            <DistanceMeters>NAN</DistanceMeters>
          </Trackpoint>
          <Trackpoint>
            <Time>2019-10-10T07:24:14.000Z</Time>
            <Position>
              <LatitudeDegrees>38.400980271399021148681640625</LatitudeDegrees>
              <LongitudeDegrees>-6.354118622839450836181640625</LongitudeDegrees>
            </Position>
            <AltitudeMeters>457.20001220703125</AltitudeMeters>
            <DistanceMeters>NAN</DistanceMeters>
          </Trackpoint>
          <Trackpoint>
            <Time>2019-10-10T07:24:17.000Z</Time>
            <Position>
              <LatitudeDegrees>38.4008952789008617401123046875</LatitudeDegrees>
              <LongitudeDegrees>-6.35394285432994365692138671875</LongitudeDegrees>
            </Position>
            <AltitudeMeters>457.20001220703125</AltitudeMeters>
            <DistanceMeters>NAN</DistanceMeters>
          </Trackpoint>
          <Trackpoint>
            <Time>2019-10-10T07:24:27.000Z</Time>
            <Position>
              <LatitudeDegrees>38.40060769580304622650146484375</LatitudeDegrees>
              <LongitudeDegrees>-6.353369615972042083740234375</LongitudeDegrees>
            </Position>
            <AltitudeMeters>457.399993896484375</AltitudeMeters>
            <DistanceMeters>NAN</DistanceMeters>
          </Trackpoint>
          <Trackpoint>
            <Time>2019-10-10T07:24:35.000Z</Time>
            <Position>
              <LatitudeDegrees>38.40036713518202304840087890625</LatitudeDegrees>
              <LongitudeDegrees>-6.3528943620622158050537109375</LongitudeDegrees>
            </Position>
            <AltitudeMeters>457.20001220703125</AltitudeMeters>
            <DistanceMeters>NAN</DistanceMeters>
          </Trackpoint>
          <Trackpoint>
            <Time>2019-10-10T07:24:45.000Z</Time>
            <Position>
              <LatitudeDegrees>38.40007209219038486480712890625</LatitudeDegrees>
              <LongitudeDegrees>-6.35228835046291351318359375</LongitudeDegrees>
            </Position>
            <AltitudeMeters>457.399993896484375</AltitudeMeters>
            <DistanceMeters>NAN</DistanceMeters>
          </Trackpoint>
          <Trackpoint>
            <Time>2019-10-10T07:24:47.000Z</Time>
            <Position>
              <LatitudeDegrees>38.40001056902110576629638671875</LatitudeDegrees>
              <LongitudeDegrees>-6.35216555558145046234130859375</LongitudeDegrees>
            </Position>
            <AltitudeMeters>457.399993896484375</AltitudeMeters>
            <DistanceMeters>NAN</DistanceMeters>
          </Trackpoint>
          <Trackpoint>
            <Time>2019-10-10T07:24:51.000Z</Time>
            <Position>
              <LatitudeDegrees>38.39989020489156246185302734375</LatitudeDegrees>
              <LongitudeDegrees>-6.351918540894985198974609375</LongitudeDegrees>
            </Position>
            <AltitudeMeters>456.79998779296875</AltitudeMeters>
            <DistanceMeters>NAN</DistanceMeters>
          </Trackpoint>
          <Trackpoint>
            <Time>2019-10-10T07:24:58.000Z</Time>
            <Position>
              <LatitudeDegrees>38.39967571198940277099609375</LatitudeDegrees>
              <LongitudeDegrees>-6.3514939136803150177001953125</LongitudeDegrees>
            </Position>
            <AltitudeMeters>456.399993896484375</AltitudeMeters>
            <DistanceMeters>NAN</DistanceMeters>
          </Trackpoint>
          <Trackpoint>
            <Time>2019-10-10T07:25:08.000Z</Time>
            <Position>
              <LatitudeDegrees>38.39938192628324031829833984375</LatitudeDegrees>
              <LongitudeDegrees>-6.35090089403092861175537109375</LongitudeDegrees>
            </Position>
            <AltitudeMeters>457.20001220703125</AltitudeMeters>
            <DistanceMeters>NAN</DistanceMeters>
          </Trackpoint>
          <Trackpoint>
            <Time>2019-10-10T07:25:17.000Z</Time>
            <Position>
              <LatitudeDegrees>38.399139605462551116943359375</LatitudeDegrees>
              <LongitudeDegrees>-6.35041692294180393218994140625</LongitudeDegrees>
            </Position>
            <AltitudeMeters>457.600006103515625</AltitudeMeters>
            <DistanceMeters>NAN</DistanceMeters>
          </Trackpoint>
          <Trackpoint>
            <Time>2019-10-10T07:25:21.000Z</Time>
            <Position>
              <LatitudeDegrees>38.39903893880546092987060546875</LatitudeDegrees>
              <LongitudeDegrees>-6.350225396454334259033203125</LongitudeDegrees>
            </Position>
            <AltitudeMeters>458.20001220703125</AltitudeMeters>
            <DistanceMeters>NAN</DistanceMeters>
          </Trackpoint>
          <Trackpoint>
            <Time>2019-10-10T07:25:26.000Z</Time>
            <Position>
              <LatitudeDegrees>38.3989188261330127716064453125</LatitudeDegrees>
              <LongitudeDegrees>-6.34998567402362823486328125</LongitudeDegrees>
            </Position>
            <AltitudeMeters>458.79998779296875</AltitudeMeters>
            <DistanceMeters>NAN</DistanceMeters>
          </Trackpoint>
          <Trackpoint>
            <Time>2019-10-10T07:25:30.000Z</Time>
            <Position>
              <LatitudeDegrees>38.39882679283618927001953125</LatitudeDegrees>
              <LongitudeDegrees>-6.34979062713682651519775390625</LongitudeDegrees>
            </Position>
            <AltitudeMeters>459.20001220703125</AltitudeMeters>
            <DistanceMeters>NAN</DistanceMeters>
          </Trackpoint>
          <Trackpoint>
            <Time>2019-10-10T07:25:38.000Z</Time>
            <Position>
              <LatitudeDegrees>38.39863996021449565887451171875</LatitudeDegrees>
              <LongitudeDegrees>-6.34940254501998424530029296875</LongitudeDegrees>
            </Position>
            <AltitudeMeters>460.20001220703125</AltitudeMeters>
            <DistanceMeters>NAN</DistanceMeters>
          </Trackpoint>
          <Trackpoint>
            <Time>2019-10-10T07:25:43.000Z</Time>
            <Position>
              <LatitudeDegrees>38.3985225297510623931884765625</LatitudeDegrees>
              <LongitudeDegrees>-6.34914882481098175048828125</LongitudeDegrees>
            </Position>
            <AltitudeMeters>460.399993896484375</AltitudeMeters>
            <DistanceMeters>NAN</DistanceMeters>
          </Trackpoint>
          <Trackpoint>
            <Time>2019-10-10T07:25:49.000Z</Time>
            <Position>
              <LatitudeDegrees>38.39839571155607700347900390625</LatitudeDegrees>
              <LongitudeDegrees>-6.34883592836558818817138671875</LongitudeDegrees>
            </Position>
            <AltitudeMeters>460.20001220703125</AltitudeMeters>
            <DistanceMeters>NAN</DistanceMeters>
          </Trackpoint>
          <Trackpoint>
            <Time>2019-10-10T07:25:58.000Z</Time>
            <Position>
              <LatitudeDegrees>38.398212902247905731201171875</LatitudeDegrees>
              <LongitudeDegrees>-6.348371990025043487548828125</LongitudeDegrees>
            </Position>
            <AltitudeMeters>460.399993896484375</AltitudeMeters>
            <DistanceMeters>NAN</DistanceMeters>
          </Trackpoint>
          <Trackpoint>
            <Time>2019-10-10T07:26:04.000Z</Time>
            <Position>
              <LatitudeDegrees>38.39799639768898487091064453125</LatitudeDegrees>
              <LongitudeDegrees>-6.3481327705085277557373046875</LongitudeDegrees>
            </Position>
            <AltitudeMeters>460.600006103515625</AltitudeMeters>
            <DistanceMeters>NAN</DistanceMeters>
          </Trackpoint>
          <Trackpoint>
            <Time>2019-10-10T07:26:10.000Z</Time>
            <Position>
              <LatitudeDegrees>38.39773722924292087554931640625</LatitudeDegrees>
              <LongitudeDegrees>-6.3479698263108730316162109375</LongitudeDegrees>
            </Position>
            <AltitudeMeters>460.600006103515625</AltitudeMeters>
            <DistanceMeters>NAN</DistanceMeters>
          </Trackpoint>
          <Trackpoint>
            <Time>2019-10-10T07:26:13.000Z</Time>
            <Position>
              <LatitudeDegrees>38.3976070582866668701171875</LatitudeDegrees>
              <LongitudeDegrees>-6.347904615104198455810546875</LongitudeDegrees>
            </Position>
            <AltitudeMeters>460.600006103515625</AltitudeMeters>
            <DistanceMeters>NAN</DistanceMeters>
          </Trackpoint>
          <Trackpoint>
            <Time>2019-10-10T07:26:21.000Z</Time>
            <Position>
              <LatitudeDegrees>38.39725292287766933441162109375</LatitudeDegrees>
              <LongitudeDegrees>-6.3477689959108829498291015625</LongitudeDegrees>
            </Position>
            <AltitudeMeters>461.600006103515625</AltitudeMeters>
            <DistanceMeters>NAN</DistanceMeters>
          </Trackpoint>
          <Trackpoint>
            <Time>2019-10-10T07:26:22.000Z</Time>
            <Position>
              <LatitudeDegrees>38.39720942080020904541015625</LatitudeDegrees>
              <LongitudeDegrees>-6.347760446369647979736328125</LongitudeDegrees>
            </Position>
            <AltitudeMeters>461.79998779296875</AltitudeMeters>
            <DistanceMeters>NAN</DistanceMeters>
          </Trackpoint>
          <Trackpoint>
            <Time>2019-10-10T07:26:26.000Z</Time>
            <Position>
              <LatitudeDegrees>38.39703977108001708984375</LatitudeDegrees>
              <LongitudeDegrees>-6.3477099873125553131103515625</LongitudeDegrees>
            </Position>
            <AltitudeMeters>463</AltitudeMeters>
            <DistanceMeters>NAN</DistanceMeters>
          </Trackpoint>
          <Trackpoint>
            <Time>2019-10-10T07:26:30.000Z</Time>
            <Position>
              <LatitudeDegrees>38.396869115531444549560546875</LatitudeDegrees>
              <LongitudeDegrees>-6.34763916023075580596923828125</LongitudeDegrees>
            </Position>
            <AltitudeMeters>463.600006103515625</AltitudeMeters>
            <DistanceMeters>NAN</DistanceMeters>
          </Trackpoint>
          <Trackpoint>
            <Time>2019-10-10T07:26:41.000Z</Time>
            <Position>
              <LatitudeDegrees>38.39636863209307193756103515625</LatitudeDegrees>
              <LongitudeDegrees>-6.34736138395965099334716796875</LongitudeDegrees>
            </Position>
            <AltitudeMeters>462.79998779296875</AltitudeMeters>
            <DistanceMeters>NAN</DistanceMeters>
          </Trackpoint>
          <Trackpoint>
            <Time>2019-10-10T07:26:42.000Z</Time>
            <Position>
              <LatitudeDegrees>38.396313898265361785888671875</LatitudeDegrees>
              <LongitudeDegrees>-6.3473371602594852447509765625</LongitudeDegrees>
            </Position>
            <AltitudeMeters>462.600006103515625</AltitudeMeters>
            <DistanceMeters>NAN</DistanceMeters>
          </Trackpoint>
          <Trackpoint>
            <Time>2019-10-10T07:26:44.000Z</Time>
            <Position>
              <LatitudeDegrees>38.39619915001094341278076171875</LatitudeDegrees>
              <LongitudeDegrees>-6.34729147888720035552978515625</LongitudeDegrees>
            </Position>
            <AltitudeMeters>462</AltitudeMeters>
            <DistanceMeters>NAN</DistanceMeters>
          </Trackpoint>
          <Trackpoint>
            <Time>2019-10-10T07:26:47.000Z</Time>
            <Position>
              <LatitudeDegrees>38.396014161407947540283203125</LatitudeDegrees>
              <LongitudeDegrees>-6.3472238369286060333251953125</LongitudeDegrees>
            </Position>
            <AltitudeMeters>460.600006103515625</AltitudeMeters>
            <DistanceMeters>NAN</DistanceMeters>
          </Trackpoint>
          <Trackpoint>
            <Time>2019-10-10T07:26:48.000Z</Time>
            <Position>
              <LatitudeDegrees>38.39594702236354351043701171875</LatitudeDegrees>
              <LongitudeDegrees>-6.3472033850848674774169921875</LongitudeDegrees>
            </Position>
            <AltitudeMeters>460.600006103515625</AltitudeMeters>
            <DistanceMeters>NAN</DistanceMeters>
          </Trackpoint>
          <Trackpoint>
            <Time>2019-10-10T07:26:51.000Z</Time>
            <Position>
              <LatitudeDegrees>38.39574158191680908203125</LatitudeDegrees>
              <LongitudeDegrees>-6.34714026935398578643798828125</LongitudeDegrees>
            </Position>
            <AltitudeMeters>459.600006103515625</AltitudeMeters>
            <DistanceMeters>NAN</DistanceMeters>
          </Trackpoint>
          <Trackpoint>
            <Time>2019-10-10T07:26:56.000Z</Time>
            <Position>
              <LatitudeDegrees>38.39538954198360443115234375</LatitudeDegrees>
              <LongitudeDegrees>-6.34704739786684513092041015625</LongitudeDegrees>
            </Position>
            <AltitudeMeters>458.600006103515625</AltitudeMeters>
            <DistanceMeters>NAN</DistanceMeters>
          </Trackpoint>
          <Trackpoint>
            <Time>2019-10-10T07:26:58.000Z</Time>
            <Position>
              <LatitudeDegrees>38.3952495642006397247314453125</LatitudeDegrees>
              <LongitudeDegrees>-6.3470149599015712738037109375</LongitudeDegrees>
            </Position>
            <AltitudeMeters>458.600006103515625</AltitudeMeters>
            <DistanceMeters>NAN</DistanceMeters>
          </Trackpoint>
          <Trackpoint>
            <Time>2019-10-10T07:27:04.000Z</Time>
            <Position>
              <LatitudeDegrees>38.3948442153632640838623046875</LatitudeDegrees>
              <LongitudeDegrees>-6.34690943174064159393310546875</LongitudeDegrees>
            </Position>
            <AltitudeMeters>458</AltitudeMeters>
            <DistanceMeters>NAN</DistanceMeters>
          </Trackpoint>
          <Trackpoint>
            <Time>2019-10-10T07:27:06.000Z</Time>
            <Position>
              <LatitudeDegrees>38.39471622370183467864990234375</LatitudeDegrees>
              <LongitudeDegrees>-6.346871294081211090087890625</LongitudeDegrees>
            </Position>
            <AltitudeMeters>458.20001220703125</AltitudeMeters>
            <DistanceMeters>NAN</DistanceMeters>
          </Trackpoint>
          <Trackpoint>
            <Time>2019-10-10T07:27:15.000Z</Time>
            <Position>
              <LatitudeDegrees>38.39417793788015842437744140625</LatitudeDegrees>
              <LongitudeDegrees>-6.34670558385550975799560546875</LongitudeDegrees>
            </Position>
            <AltitudeMeters>458.600006103515625</AltitudeMeters>
            <DistanceMeters>NAN</DistanceMeters>
          </Trackpoint>
          <Trackpoint>
            <Time>2019-10-10T07:27:21.000Z</Time>
            <Position>
              <LatitudeDegrees>38.39384727180004119873046875</LatitudeDegrees>
              <LongitudeDegrees>-6.34662344120442867279052734375</LongitudeDegrees>
            </Position>
            <AltitudeMeters>459.79998779296875</AltitudeMeters>
            <DistanceMeters>NAN</DistanceMeters>
          </Trackpoint>
          <Trackpoint>
            <Time>2019-10-10T07:27:26.000Z</Time>
            <Position>
              <LatitudeDegrees>38.39357779361307621002197265625</LatitudeDegrees>
              <LongitudeDegrees>-6.34655085392296314239501953125</LongitudeDegrees>
            </Position>
            <AltitudeMeters>460.20001220703125</AltitudeMeters>
            <DistanceMeters>NAN</DistanceMeters>
          </Trackpoint>
          <Trackpoint>
            <Time>2019-10-10T07:27:29.000Z</Time>
            <Position>
              <LatitudeDegrees>38.39342440478503704071044921875</LatitudeDegrees>
              <LongitudeDegrees>-6.3465147279202938079833984375</LongitudeDegrees>
            </Position>
            <AltitudeMeters>461.20001220703125</AltitudeMeters>
            <DistanceMeters>NAN</DistanceMeters>
          </Trackpoint>
          <Trackpoint>
            <Time>2019-10-10T07:27:34.000Z</Time>
            <Position>
              <LatitudeDegrees>38.3931956626474857330322265625</LatitudeDegrees>
              <LongitudeDegrees>-6.3464543782174587249755859375</LongitudeDegrees>
            </Position>
            <AltitudeMeters>462</AltitudeMeters>
            <DistanceMeters>NAN</DistanceMeters>
          </Trackpoint>
          <Trackpoint>
            <Time>2019-10-10T07:27:36.000Z</Time>
            <Position>
              <LatitudeDegrees>38.39310958050191402435302734375</LatitudeDegrees>
              <LongitudeDegrees>-6.34643266908824443817138671875</LongitudeDegrees>
            </Position>
            <AltitudeMeters>462.600006103515625</AltitudeMeters>
            <DistanceMeters>NAN</DistanceMeters>
          </Trackpoint>
          <Trackpoint>
            <Time>2019-10-10T07:27:43.000Z</Time>
            <Position>
              <LatitudeDegrees>38.39281260967254638671875</LatitudeDegrees>
              <LongitudeDegrees>-6.3463588245213031768798828125</LongitudeDegrees>
            </Position>
            <AltitudeMeters>463.399993896484375</AltitudeMeters>
            <DistanceMeters>NAN</DistanceMeters>
          </Trackpoint>
          <Trackpoint>
            <Time>2019-10-10T07:27:45.000Z</Time>
            <Position>
              <LatitudeDegrees>38.392726443707942962646484375</LatitudeDegrees>
              <LongitudeDegrees>-6.34633426554501056671142578125</LongitudeDegrees>
            </Position>
            <AltitudeMeters>463.79998779296875</AltitudeMeters>
            <DistanceMeters>NAN</DistanceMeters>
          </Trackpoint>
          <Trackpoint>
            <Time>2019-10-10T07:27:46.000Z</Time>
            <Position>
              <LatitudeDegrees>38.39268386363983154296875</LatitudeDegrees>
              <LongitudeDegrees>-6.346323452889919281005859375</LongitudeDegrees>
            </Position>
            <AltitudeMeters>463.79998779296875</AltitudeMeters>
            <DistanceMeters>NAN</DistanceMeters>
          </Trackpoint>
          <Trackpoint>
            <Time>2019-10-10T07:27:51.000Z</Time>
            <Position>
              <LatitudeDegrees>38.392468281090259552001953125</LatitudeDegrees>
              <LongitudeDegrees>-6.34627081453800201416015625</LongitudeDegrees>
            </Position>
            <AltitudeMeters>464.20001220703125</AltitudeMeters>
            <DistanceMeters>NAN</DistanceMeters>
          </Trackpoint>
          <Trackpoint>
            <Time>2019-10-10T07:27:57.000Z</Time>
            <Position>
              <LatitudeDegrees>38.39220986701548099517822265625</LatitudeDegrees>
              <LongitudeDegrees>-6.346205770969390869140625</LongitudeDegrees>
            </Position>
            <AltitudeMeters>464.600006103515625</AltitudeMeters>
            <DistanceMeters>NAN</DistanceMeters>
          </Trackpoint>
          <Trackpoint>
            <Time>2019-10-10T07:28:07.000Z</Time>
            <Position>
              <LatitudeDegrees>38.3917559869587421417236328125</LatitudeDegrees>
              <LongitudeDegrees>-6.34607233107089996337890625</LongitudeDegrees>
            </Position>
            <AltitudeMeters>464.600006103515625</AltitudeMeters>
            <DistanceMeters>NAN</DistanceMeters>
          </Trackpoint>
          <Trackpoint>
            <Time>2019-10-10T07:28:16.000Z</Time>
            <Position>
              <LatitudeDegrees>38.3913345448672771453857421875</LatitudeDegrees>
              <LongitudeDegrees>-6.3459414057433605194091796875</LongitudeDegrees>
            </Position>
            <AltitudeMeters>464.20001220703125</AltitudeMeters>
            <DistanceMeters>NAN</DistanceMeters>
          </Trackpoint>
          <Trackpoint>
            <Time>2019-10-10T07:28:22.000Z</Time>
            <Position>
              <LatitudeDegrees>38.391013182699680328369140625</LatitudeDegrees>
              <LongitudeDegrees>-6.34583001025021076202392578125</LongitudeDegrees>
            </Position>
            <AltitudeMeters>462.600006103515625</AltitudeMeters>
            <DistanceMeters>NAN</DistanceMeters>
          </Trackpoint>
          <Trackpoint>
            <Time>2019-10-10T07:28:25.000Z</Time>
            <Position>
              <LatitudeDegrees>38.39082869701087474822998046875</LatitudeDegrees>
              <LongitudeDegrees>-6.3457650505006313323974609375</LongitudeDegrees>
            </Position>
            <AltitudeMeters>462</AltitudeMeters>
            <DistanceMeters>NAN</DistanceMeters>
          </Trackpoint>
          <Trackpoint>
            <Time>2019-10-10T07:28:28.000Z</Time>
            <Position>
              <LatitudeDegrees>38.390643037855625152587890625</LatitudeDegrees>
              <LongitudeDegrees>-6.34569204412400722503662109375</LongitudeDegrees>
            </Position>
            <AltitudeMeters>461</AltitudeMeters>
            <DistanceMeters>NAN</DistanceMeters>
          </Trackpoint>
          <Trackpoint>
            <Time>2019-10-10T07:28:31.000Z</Time>
            <Position>
              <LatitudeDegrees>38.39043893851339817047119140625</LatitudeDegrees>
              <LongitudeDegrees>-6.34560738690197467803955078125</LongitudeDegrees>
            </Position>
            <AltitudeMeters>460</AltitudeMeters>
            <DistanceMeters>NAN</DistanceMeters>
          </Trackpoint>
          <Trackpoint>
            <Time>2019-10-10T07:28:34.000Z</Time>
            <Position>
              <LatitudeDegrees>38.39021765626966953277587890625</LatitudeDegrees>
              <LongitudeDegrees>-6.34551619179546833038330078125</LongitudeDegrees>
            </Position>
            <AltitudeMeters>459.20001220703125</AltitudeMeters>
            <DistanceMeters>NAN</DistanceMeters>
          </Trackpoint>
          <Trackpoint>
            <Time>2019-10-10T07:28:35.000Z</Time>
            <Position>
              <LatitudeDegrees>38.3901493437588214874267578125</LatitudeDegrees>
              <LongitudeDegrees>-6.345487274229526519775390625</LongitudeDegrees>
            </Position>
            <AltitudeMeters>458.79998779296875</AltitudeMeters>
            <DistanceMeters>NAN</DistanceMeters>
          </Trackpoint>
          <Trackpoint>
            <Time>2019-10-10T07:28:37.000Z</Time>
            <Position>
              <LatitudeDegrees>38.38999939151108264923095703125</LatitudeDegrees>
              <LongitudeDegrees>-6.3454227335751056671142578125</LongitudeDegrees>
            </Position>
            <AltitudeMeters>458</AltitudeMeters>
            <DistanceMeters>NAN</DistanceMeters>
          </Trackpoint>
          <Trackpoint>
            <Time>2019-10-10T07:28:38.000Z</Time>
            <Position>
              <LatitudeDegrees>38.38986947201192378997802734375</LatitudeDegrees>
              <LongitudeDegrees>-6.34536649100482463836669921875</LongitudeDegrees>
            </Position>
            <AltitudeMeters>457.79998779296875</AltitudeMeters>
            <DistanceMeters>NAN</DistanceMeters>
          </Trackpoint>
          <Trackpoint>
            <Time>2019-10-10T07:28:42.000Z</Time>
            <Position>
              <LatitudeDegrees>38.3896108902990818023681640625</LatitudeDegrees>
              <LongitudeDegrees>-6.34525769390165805816650390625</LongitudeDegrees>
            </Position>
            <AltitudeMeters>456.600006103515625</AltitudeMeters>
            <DistanceMeters>NAN</DistanceMeters>
          </Trackpoint>
          <Trackpoint>
            <Time>2019-10-10T07:28:45.000Z</Time>
            <Position>
              <LatitudeDegrees>38.38939237408339977264404296875</LatitudeDegrees>
              <LongitudeDegrees>-6.345166750252246856689453125</LongitudeDegrees>
            </Position>
            <AltitudeMeters>456</AltitudeMeters>
            <DistanceMeters>NAN</DistanceMeters>
          </Trackpoint>
          <Trackpoint>
            <Time>2019-10-10T07:28:47.000Z</Time>
            <Position>
              <LatitudeDegrees>38.3892471157014369964599609375</LatitudeDegrees>
              <LongitudeDegrees>-6.34510413743555545806884765625</LongitudeDegrees>
            </Position>
            <AltitudeMeters>456</AltitudeMeters>
            <DistanceMeters>NAN</DistanceMeters>
          </Trackpoint>
          <Trackpoint>
            <Time>2019-10-10T07:28:52.000Z</Time>
            <Position>
              <LatitudeDegrees>38.38891644962131977081298828125</LatitudeDegrees>
              <LongitudeDegrees>-6.34496457874774932861328125</LongitudeDegrees>
            </Position>
            <AltitudeMeters>456.399993896484375</AltitudeMeters>
            <DistanceMeters>NAN</DistanceMeters>
          </Trackpoint>
          <Trackpoint>
            <Time>2019-10-10T07:28:57.000Z</Time>
            <Position>
              <LatitudeDegrees>38.38862291537225246429443359375</LatitudeDegrees>
              <LongitudeDegrees>-6.3448383472859859466552734375</LongitudeDegrees>
            </Position>
            <AltitudeMeters>457.20001220703125</AltitudeMeters>
            <DistanceMeters>NAN</DistanceMeters>
          </Trackpoint>
          <Trackpoint>
            <Time>2019-10-10T07:28:59.000Z</Time>
            <Position>
              <LatitudeDegrees>38.38850657455623149871826171875</LatitudeDegrees>
              <LongitudeDegrees>-6.3447877205908298492431640625</LongitudeDegrees>
            </Position>
            <AltitudeMeters>457.79998779296875</AltitudeMeters>
            <DistanceMeters>NAN</DistanceMeters>
          </Trackpoint>
          <Trackpoint>
            <Time>2019-10-10T07:29:01.000Z</Time>
            <Position>
              <LatitudeDegrees>38.38839861564338207244873046875</LatitudeDegrees>
              <LongitudeDegrees>-6.34474053047597408294677734375</LongitudeDegrees>
            </Position>
            <AltitudeMeters>457.600006103515625</AltitudeMeters>
            <DistanceMeters>NAN</DistanceMeters>
          </Trackpoint>
          <Trackpoint>
            <Time>2019-10-10T07:29:10.000Z</Time>
            <Position>
              <LatitudeDegrees>38.3879412151873111724853515625</LatitudeDegrees>
              <LongitudeDegrees>-6.34451673366129398345947265625</LongitudeDegrees>
            </Position>
            <AltitudeMeters>458</AltitudeMeters>
            <DistanceMeters>NAN</DistanceMeters>
          </Trackpoint>
          <Trackpoint>
            <Time>2019-10-10T07:29:14.000Z</Time>
            <Position>
              <LatitudeDegrees>38.38775002397596836090087890625</LatitudeDegrees>
              <LongitudeDegrees>-6.34441715665161609649658203125</LongitudeDegrees>
            </Position>
            <AltitudeMeters>458.399993896484375</AltitudeMeters>
            <DistanceMeters>NAN</DistanceMeters>
          </Trackpoint>
          <Trackpoint>
            <Time>2019-10-10T07:29:17.000Z</Time>
            <Position>
              <LatitudeDegrees>38.387602083384990692138671875</LatitudeDegrees>
              <LongitudeDegrees>-6.344334594905376434326171875</LongitudeDegrees>
            </Position>
            <AltitudeMeters>458.79998779296875</AltitudeMeters>
            <DistanceMeters>NAN</DistanceMeters>
          </Trackpoint>
          <Trackpoint>
            <Time>2019-10-10T07:29:22.000Z</Time>
            <Position>
              <LatitudeDegrees>38.3873655460774898529052734375</LatitudeDegrees>
              <LongitudeDegrees>-6.3441962935030460357666015625</LongitudeDegrees>
            </Position>
            <AltitudeMeters>459</AltitudeMeters>
            <DistanceMeters>NAN</DistanceMeters>
          </Trackpoint>
          <Trackpoint>
            <Time>2019-10-10T07:29:32.000Z</Time>
            <Position>
              <LatitudeDegrees>38.38687897659838199615478515625</LatitudeDegrees>
              <LongitudeDegrees>-6.34388825856149196624755859375</LongitudeDegrees>
            </Position>
            <AltitudeMeters>459</AltitudeMeters>
            <DistanceMeters>NAN</DistanceMeters>
          </Trackpoint>
          <Trackpoint>
            <Time>2019-10-10T07:29:33.000Z</Time>
            <Position>
              <LatitudeDegrees>38.386828936636447906494140625</LatitudeDegrees>
              <LongitudeDegrees>-6.34385808371007442474365234375</LongitudeDegrees>
            </Position>
            <AltitudeMeters>459</AltitudeMeters>
            <DistanceMeters>NAN</DistanceMeters>
          </Trackpoint>
          <Trackpoint>
            <Time>2019-10-10T07:29:41.000Z</Time>
            <Position>
              <LatitudeDegrees>38.3864448778331279754638671875</LatitudeDegrees>
              <LongitudeDegrees>-6.34361081756651401519775390625</LongitudeDegrees>
            </Position>
            <AltitudeMeters>459.79998779296875</AltitudeMeters>
            <DistanceMeters>NAN</DistanceMeters>
          </Trackpoint>
          <Trackpoint>
            <Time>2019-10-10T07:29:43.000Z</Time>
            <Position>
              <LatitudeDegrees>38.38635108433663845062255859375</LatitudeDegrees>
              <LongitudeDegrees>-6.34354895912110805511474609375</LongitudeDegrees>
            </Position>
            <AltitudeMeters>459.79998779296875</AltitudeMeters>
            <DistanceMeters>NAN</DistanceMeters>
          </Trackpoint>
          <Trackpoint>
            <Time>2019-10-10T07:29:53.000Z</Time>
            <Position>
              <LatitudeDegrees>38.38588706217706203460693359375</LatitudeDegrees>
              <LongitudeDegrees>-6.343233883380889892578125</LongitudeDegrees>
            </Position>
            <AltitudeMeters>460</AltitudeMeters>
            <DistanceMeters>NAN</DistanceMeters>
          </Trackpoint>
          <Trackpoint>
            <Time>2019-10-10T07:29:54.000Z</Time>
            <Position>
              <LatitudeDegrees>38.3858402073383331298828125</LatitudeDegrees>
              <LongitudeDegrees>-6.34320194832980632781982421875</LongitudeDegrees>
            </Position>
            <AltitudeMeters>459.79998779296875</AltitudeMeters>
            <DistanceMeters>NAN</DistanceMeters>
          </Trackpoint>
          <Trackpoint>
            <Time>2019-10-10T07:29:59.000Z</Time>
            <Position>
              <LatitudeDegrees>38.38560576550662517547607421875</LatitudeDegrees>
              <LongitudeDegrees>-6.34304688312113285064697265625</LongitudeDegrees>
            </Position>
            <AltitudeMeters>460.600006103515625</AltitudeMeters>
            <DistanceMeters>NAN</DistanceMeters>
          </Trackpoint>
          <Trackpoint>
            <Time>2019-10-10T07:30:06.000Z</Time>
            <Position>
              <LatitudeDegrees>38.3852824755012989044189453125</LatitudeDegrees>
              <LongitudeDegrees>-6.3428355753421783447265625</LongitudeDegrees>
            </Position>
            <AltitudeMeters>460.20001220703125</AltitudeMeters>
            <DistanceMeters>NAN</DistanceMeters>
          </Trackpoint>
          <Trackpoint>
            <Time>2019-10-10T07:30:15.000Z</Time>
            <Position>
              <LatitudeDegrees>38.38486178778111934661865234375</LatitudeDegrees>
              <LongitudeDegrees>-6.3425728864967823028564453125</LongitudeDegrees>
            </Position>
            <AltitudeMeters>460.600006103515625</AltitudeMeters>
            <DistanceMeters>NAN</DistanceMeters>
          </Trackpoint>
          <Trackpoint>
            <Time>2019-10-10T07:30:25.000Z</Time>
            <Position>
              <LatitudeDegrees>38.384350575506687164306640625</LatitudeDegrees>
              <LongitudeDegrees>-6.34227658621966838836669921875</LongitudeDegrees>
            </Position>
            <AltitudeMeters>459.399993896484375</AltitudeMeters>
            <DistanceMeters>NAN</DistanceMeters>
          </Trackpoint>
          <Trackpoint>
            <Time>2019-10-10T07:30:30.000Z</Time>
            <Position>
              <LatitudeDegrees>38.38406785391271114349365234375</LatitudeDegrees>
              <LongitudeDegrees>-6.342115737497806549072265625</LongitudeDegrees>
            </Position>
            <AltitudeMeters>458.79998779296875</AltitudeMeters>
            <DistanceMeters>NAN</DistanceMeters>
          </Trackpoint>
          <Trackpoint>
            <Time>2019-10-10T07:30:34.000Z</Time>
            <Position>
              <LatitudeDegrees>38.38382729329168796539306640625</LatitudeDegrees>
              <LongitudeDegrees>-6.34198271669447422027587890625</LongitudeDegrees>
            </Position>
            <AltitudeMeters>458</AltitudeMeters>
            <DistanceMeters>NAN</DistanceMeters>
          </Trackpoint>
          <Trackpoint>
            <Time>2019-10-10T07:30:35.000Z</Time>
            <Position>
              <LatitudeDegrees>38.38376677595078945159912109375</LatitudeDegrees>
              <LongitudeDegrees>-6.3419479317963123321533203125</LongitudeDegrees>
            </Position>
            <AltitudeMeters>458</AltitudeMeters>
            <DistanceMeters>NAN</DistanceMeters>
          </Trackpoint>
          <Trackpoint>
            <Time>2019-10-10T07:30:36.000Z</Time>
            <Position>
              <LatitudeDegrees>38.38370558805763721466064453125</LatitudeDegrees>
              <LongitudeDegrees>-6.3419127278029918670654296875</LongitudeDegrees>
            </Position>
            <AltitudeMeters>457.600006103515625</AltitudeMeters>
            <DistanceMeters>NAN</DistanceMeters>
          </Trackpoint>
          <Trackpoint>
            <Time>2019-10-10T07:30:40.000Z</Time>
            <Position>
              <LatitudeDegrees>38.38345639407634735107421875</LatitudeDegrees>
              <LongitudeDegrees>-6.34176914580166339874267578125</LongitudeDegrees>
            </Position>
            <AltitudeMeters>457.399993896484375</AltitudeMeters>
            <DistanceMeters>NAN</DistanceMeters>
          </Trackpoint>
          <Trackpoint>
            <Time>2019-10-10T07:30:43.000Z</Time>
            <Position>
              <LatitudeDegrees>38.38326863944530487060546875</LatitudeDegrees>
              <LongitudeDegrees>-6.34166252799332141876220703125</LongitudeDegrees>
            </Position>
            <AltitudeMeters>456.600006103515625</AltitudeMeters>
            <DistanceMeters>NAN</DistanceMeters>
          </Trackpoint>
          <Trackpoint>
            <Time>2019-10-10T07:30:45.000Z</Time>
            <Position>
              <LatitudeDegrees>38.38314416818320751190185546875</LatitudeDegrees>
              <LongitudeDegrees>-6.341592706739902496337890625</LongitudeDegrees>
            </Position>
            <AltitudeMeters>456.20001220703125</AltitudeMeters>
            <DistanceMeters>NAN</DistanceMeters>
          </Trackpoint>
          <Trackpoint>
            <Time>2019-10-10T07:30:47.000Z</Time>
            <Position>
              <LatitudeDegrees>38.38302045129239559173583984375</LatitudeDegrees>
              <LongitudeDegrees>-6.34152053855359554290771484375</LongitudeDegrees>
            </Position>
            <AltitudeMeters>456</AltitudeMeters>
            <DistanceMeters>NAN</DistanceMeters>
          </Trackpoint>
          <Trackpoint>
            <Time>2019-10-10T07:30:50.000Z</Time>
            <Position>
              <LatitudeDegrees>38.3828361332416534423828125</LatitudeDegrees>
              <LongitudeDegrees>-6.34141157381236553192138671875</LongitudeDegrees>
            </Position>
            <AltitudeMeters>455.79998779296875</AltitudeMeters>
            <DistanceMeters>NAN</DistanceMeters>
          </Trackpoint>
          <Trackpoint>
            <Time>2019-10-10T07:30:56.000Z</Time>
            <Position>
              <LatitudeDegrees>38.382471017539501190185546875</LatitudeDegrees>
              <LongitudeDegrees>-6.34118668735027313232421875</LongitudeDegrees>
            </Position>
            <AltitudeMeters>455.399993896484375</AltitudeMeters>
            <DistanceMeters>NAN</DistanceMeters>
          </Trackpoint>
          <Trackpoint>
            <Time>2019-10-10T07:30:57.000Z</Time>
            <Position>
              <LatitudeDegrees>38.38241167366504669189453125</LatitudeDegrees>
              <LongitudeDegrees>-6.341148801147937774658203125</LongitudeDegrees>
            </Position>
            <AltitudeMeters>455.20001220703125</AltitudeMeters>
            <DistanceMeters>NAN</DistanceMeters>
          </Trackpoint>
          <Trackpoint>
            <Time>2019-10-10T07:31:05.000Z</Time>
            <Position>
              <LatitudeDegrees>38.3819375932216644287109375</LatitudeDegrees>
              <LongitudeDegrees>-6.3408385030925273895263671875</LongitudeDegrees>
            </Position>
            <AltitudeMeters>455</AltitudeMeters>
            <DistanceMeters>NAN</DistanceMeters>
          </Trackpoint>
          <Trackpoint>
            <Time>2019-10-10T07:31:10.000Z</Time>
            <Position>
              <LatitudeDegrees>38.381646573543548583984375</LatitudeDegrees>
              <LongitudeDegrees>-6.3406363315880298614501953125</LongitudeDegrees>
            </Position>
            <AltitudeMeters>454.79998779296875</AltitudeMeters>
            <DistanceMeters>NAN</DistanceMeters>
          </Trackpoint>
          <Trackpoint>
            <Time>2019-10-10T07:31:19.000Z</Time>
            <Position>
              <LatitudeDegrees>38.38112949393689632415771484375</LatitudeDegrees>
              <LongitudeDegrees>-6.3402792625129222869873046875</LongitudeDegrees>
            </Position>
            <AltitudeMeters>454.600006103515625</AltitudeMeters>
            <DistanceMeters>NAN</DistanceMeters>
          </Trackpoint>
          <Trackpoint>
            <Time>2019-10-10T07:31:22.000Z</Time>
            <Position>
              <LatitudeDegrees>38.38095615617930889129638671875</LatitudeDegrees>
              <LongitudeDegrees>-6.34016769938170909881591796875</LongitudeDegrees>
            </Position>
            <AltitudeMeters>454.399993896484375</AltitudeMeters>
            <DistanceMeters>NAN</DistanceMeters>
          </Trackpoint>
          <Trackpoint>
            <Time>2019-10-10T07:31:24.000Z</Time>
            <Position>
              <LatitudeDegrees>38.38083696551620960235595703125</LatitudeDegrees>
              <LongitudeDegrees>-6.34009628556668758392333984375</LongitudeDegrees>
            </Position>
            <AltitudeMeters>454.20001220703125</AltitudeMeters>
            <DistanceMeters>NAN</DistanceMeters>
          </Trackpoint>
          <Trackpoint>
            <Time>2019-10-10T07:31:32.000Z</Time>
            <Position>
              <LatitudeDegrees>38.3803552575409412384033203125</LatitudeDegrees>
              <LongitudeDegrees>-6.3398591615259647369384765625</LongitudeDegrees>
            </Position>
            <AltitudeMeters>454</AltitudeMeters>
            <DistanceMeters>NAN</DistanceMeters>
          </Trackpoint>
          <Trackpoint>
            <Time>2019-10-10T07:31:39.000Z</Time>
            <Position>
              <LatitudeDegrees>38.3799066580832004547119140625</LatitudeDegrees>
              <LongitudeDegrees>-6.33969537913799285888671875</LongitudeDegrees>
            </Position>
            <AltitudeMeters>453.20001220703125</AltitudeMeters>
            <DistanceMeters>NAN</DistanceMeters>
          </Trackpoint>
          <Trackpoint>
            <Time>2019-10-10T07:31:41.000Z</Time>
            <Position>
              <LatitudeDegrees>38.379768021404743194580078125</LatitudeDegrees>
              <LongitudeDegrees>-6.33965120650827884674072265625</LongitudeDegrees>
            </Position>
            <AltitudeMeters>452.600006103515625</AltitudeMeters>
            <DistanceMeters>NAN</DistanceMeters>
          </Trackpoint>
          <Trackpoint>
            <Time>2019-10-10T07:31:44.000Z</Time>
            <Position>
              <LatitudeDegrees>38.379542715847492218017578125</LatitudeDegrees>
              <LongitudeDegrees>-6.3395782001316547393798828125</LongitudeDegrees>
            </Position>
            <AltitudeMeters>452</AltitudeMeters>
            <DistanceMeters>NAN</DistanceMeters>
          </Trackpoint>
          <Trackpoint>
            <Time>2019-10-10T07:31:47.000Z</Time>
            <Position>
              <LatitudeDegrees>38.37933710776269435882568359375</LatitudeDegrees>
              <LongitudeDegrees>-6.3395087979733943939208984375</LongitudeDegrees>
            </Position>
            <AltitudeMeters>451</AltitudeMeters>
            <DistanceMeters>NAN</DistanceMeters>
          </Trackpoint>
          <Trackpoint>
            <Time>2019-10-10T07:31:50.000Z</Time>
            <Position>
              <LatitudeDegrees>38.379114903509616851806640625</LatitudeDegrees>
              <LongitudeDegrees>-6.33942849934101104736328125</LongitudeDegrees>
            </Position>
            <AltitudeMeters>450.600006103515625</AltitudeMeters>
            <DistanceMeters>NAN</DistanceMeters>
          </Trackpoint>
          <Trackpoint>
            <Time>2019-10-10T07:31:58.000Z</Time>
            <Position>
              <LatitudeDegrees>38.378557674586772918701171875</LatitudeDegrees>
              <LongitudeDegrees>-6.3391664810478687286376953125</LongitudeDegrees>
            </Position>
            <AltitudeMeters>450.600006103515625</AltitudeMeters>
            <DistanceMeters>NAN</DistanceMeters>
          </Trackpoint>
          <Trackpoint>
            <Time>2019-10-10T07:32:05.000Z</Time>
            <Position>
              <LatitudeDegrees>38.37814654223620891571044921875</LatitudeDegrees>
              <LongitudeDegrees>-6.338921226561069488525390625</LongitudeDegrees>
            </Position>
            <AltitudeMeters>451.20001220703125</AltitudeMeters>
            <DistanceMeters>NAN</DistanceMeters>
          </Trackpoint>
          <Trackpoint>
            <Time>2019-10-10T07:32:11.000Z</Time>
            <Position>
              <LatitudeDegrees>38.3778292872011661529541015625</LatitudeDegrees>
              <LongitudeDegrees>-6.33872031234204769134521484375</LongitudeDegrees>
            </Position>
            <AltitudeMeters>452</AltitudeMeters>
            <DistanceMeters>NAN</DistanceMeters>
          </Trackpoint>
          <Trackpoint>
            <Time>2019-10-10T07:32:17.000Z</Time>
            <Position>
              <LatitudeDegrees>38.37749895639717578887939453125</LatitudeDegrees>
              <LongitudeDegrees>-6.338506825268268585205078125</LongitudeDegrees>
            </Position>
            <AltitudeMeters>451.399993896484375</AltitudeMeters>
            <DistanceMeters>NAN</DistanceMeters>
          </Trackpoint>
          <Trackpoint>
            <Time>2019-10-10T07:32:22.000Z</Time>
            <Position>
              <LatitudeDegrees>38.3772164024412631988525390625</LatitudeDegrees>
              <LongitudeDegrees>-6.33832653053104877471923828125</LongitudeDegrees>
            </Position>
            <AltitudeMeters>451</AltitudeMeters>
            <DistanceMeters>NAN</DistanceMeters>
          </Trackpoint>
          <Trackpoint>
            <Time>2019-10-10T07:32:26.000Z</Time>
            <Position>
              <LatitudeDegrees>38.376987241208553314208984375</LatitudeDegrees>
              <LongitudeDegrees>-6.3381797634065151214599609375</LongitudeDegrees>
            </Position>
            <AltitudeMeters>451</AltitudeMeters>
            <DistanceMeters>NAN</DistanceMeters>
          </Trackpoint>
          <Trackpoint>
            <Time>2019-10-10T07:32:30.000Z</Time>
            <Position>
              <LatitudeDegrees>38.376743830740451812744140625</LatitudeDegrees>
              <LongitudeDegrees>-6.33802168071269989013671875</LongitudeDegrees>
            </Position>
            <AltitudeMeters>449.79998779296875</AltitudeMeters>
            <DistanceMeters>NAN</DistanceMeters>
          </Trackpoint>
          <Trackpoint>
            <Time>2019-10-10T07:32:34.000Z</Time>
            <Position>
              <LatitudeDegrees>38.3764828182756900787353515625</LatitudeDegrees>
              <LongitudeDegrees>-6.33785814978182315826416015625</LongitudeDegrees>
            </Position>
            <AltitudeMeters>448.600006103515625</AltitudeMeters>
            <DistanceMeters>NAN</DistanceMeters>
          </Trackpoint>
          <Trackpoint>
            <Time>2019-10-10T07:32:42.000Z</Time>
            <Position>
              <LatitudeDegrees>38.375961966812610626220703125</LatitudeDegrees>
              <LongitudeDegrees>-6.3375266455113887786865234375</LongitudeDegrees>
            </Position>
            <AltitudeMeters>448.399993896484375</AltitudeMeters>
            <DistanceMeters>NAN</DistanceMeters>
          </Trackpoint>
          <Trackpoint>
            <Time>2019-10-10T07:32:45.000Z</Time>
            <Position>
              <LatitudeDegrees>38.3757846057415008544921875</LatitudeDegrees>
              <LongitudeDegrees>-6.33741281926631927490234375</LongitudeDegrees>
            </Position>
            <AltitudeMeters>448.600006103515625</AltitudeMeters>
            <DistanceMeters>NAN</DistanceMeters>
          </Trackpoint>
          <Trackpoint>
            <Time>2019-10-10T07:32:53.000Z</Time>
            <Position>
              <LatitudeDegrees>38.37530708871781826019287109375</LatitudeDegrees>
              <LongitudeDegrees>-6.3371115736663341522216796875</LongitudeDegrees>
            </Position>
            <AltitudeMeters>448.399993896484375</AltitudeMeters>
            <DistanceMeters>NAN</DistanceMeters>
          </Trackpoint>
          <Trackpoint>
            <Time>2019-10-10T07:32:54.000Z</Time>
            <Position>
              <LatitudeDegrees>38.3752459846436977386474609375</LatitudeDegrees>
              <LongitudeDegrees>-6.337073184549808502197265625</LongitudeDegrees>
            </Position>
            <AltitudeMeters>448</AltitudeMeters>
            <DistanceMeters>NAN</DistanceMeters>
          </Trackpoint>
          <Trackpoint>
            <Time>2019-10-10T07:32:59.000Z</Time>
            <Position>
              <LatitudeDegrees>38.37492722086608409881591796875</LatitudeDegrees>
              <LongitudeDegrees>-6.33686791174113750457763671875</LongitudeDegrees>
            </Position>
            <AltitudeMeters>447.399993896484375</AltitudeMeters>
            <DistanceMeters>NAN</DistanceMeters>
          </Trackpoint>
          <Trackpoint>
            <Time>2019-10-10T07:33:03.000Z</Time>
            <Position>
              <LatitudeDegrees>38.37466067634522914886474609375</LatitudeDegrees>
              <LongitudeDegrees>-6.3367008604109287261962890625</LongitudeDegrees>
            </Position>
            <AltitudeMeters>446.20001220703125</AltitudeMeters>
            <DistanceMeters>NAN</DistanceMeters>
          </Trackpoint>
          <Trackpoint>
            <Time>2019-10-10T07:33:06.000Z</Time>
            <Position>
              <LatitudeDegrees>38.37444794364273548126220703125</LatitudeDegrees>
              <LongitudeDegrees>-6.33656146936118602752685546875</LongitudeDegrees>
            </Position>
            <AltitudeMeters>444.79998779296875</AltitudeMeters>
            <DistanceMeters>NAN</DistanceMeters>
          </Trackpoint>
          <Trackpoint>
            <Time>2019-10-10T07:33:09.000Z</Time>
            <Position>
              <LatitudeDegrees>38.374231271445751190185546875</LatitudeDegrees>
              <LongitudeDegrees>-6.33641009218990802764892578125</LongitudeDegrees>
            </Position>
            <AltitudeMeters>443.399993896484375</AltitudeMeters>
            <DistanceMeters>NAN</DistanceMeters>
          </Trackpoint>
          <Trackpoint>
            <Time>2019-10-10T07:33:11.000Z</Time>
            <Position>
              <LatitudeDegrees>38.37408567778766155242919921875</LatitudeDegrees>
              <LongitudeDegrees>-6.33629660122096538543701171875</LongitudeDegrees>
            </Position>
            <AltitudeMeters>442.79998779296875</AltitudeMeters>
            <DistanceMeters>NAN</DistanceMeters>
          </Trackpoint>
          <Trackpoint>
            <Time>2019-10-10T07:33:13.000Z</Time>
            <Position>
              <LatitudeDegrees>38.373939581215381622314453125</LatitudeDegrees>
              <LongitudeDegrees>-6.33617456071078777313232421875</LongitudeDegrees>
            </Position>
            <AltitudeMeters>442.20001220703125</AltitudeMeters>
            <DistanceMeters>NAN</DistanceMeters>
          </Trackpoint>
          <Trackpoint>
            <Time>2019-10-10T07:33:16.000Z</Time>
            <Position>
              <LatitudeDegrees>38.373720645904541015625</LatitudeDegrees>
              <LongitudeDegrees>-6.3359666056931018829345703125</LongitudeDegrees>
            </Position>
            <AltitudeMeters>440.79998779296875</AltitudeMeters>
            <DistanceMeters>NAN</DistanceMeters>
          </Trackpoint>
          <Trackpoint>
            <Time>2019-10-10T07:33:18.000Z</Time>
            <Position>
              <LatitudeDegrees>38.373576812446117401123046875</LatitudeDegrees>
              <LongitudeDegrees>-6.33581900037825107574462890625</LongitudeDegrees>
            </Position>
            <AltitudeMeters>439.399993896484375</AltitudeMeters>
            <DistanceMeters>NAN</DistanceMeters>
          </Trackpoint>
          <Trackpoint>
            <Time>2019-10-10T07:33:21.000Z</Time>
            <Position>
              <LatitudeDegrees>38.3733593858778476715087890625</LatitudeDegrees>
              <LongitudeDegrees>-6.33558816276490688323974609375</LongitudeDegrees>
            </Position>
            <AltitudeMeters>438.399993896484375</AltitudeMeters>
            <DistanceMeters>NAN</DistanceMeters>
          </Trackpoint>
          <Trackpoint>
            <Time>2019-10-10T07:33:26.000Z</Time>
            <Position>
              <LatitudeDegrees>38.37300977669656276702880859375</LatitudeDegrees>
              <LongitudeDegrees>-6.33520695380866527557373046875</LongitudeDegrees>
            </Position>
            <AltitudeMeters>437.399993896484375</AltitudeMeters>
            <DistanceMeters>NAN</DistanceMeters>
          </Trackpoint>
          <Trackpoint>
            <Time>2019-10-10T07:33:27.000Z</Time>
            <Position>
              <LatitudeDegrees>38.37294456548988819122314453125</LatitudeDegrees>
              <LongitudeDegrees>-6.33513201959431171417236328125</LongitudeDegrees>
            </Position>
            <AltitudeMeters>437.20001220703125</AltitudeMeters>
            <DistanceMeters>NAN</DistanceMeters>
          </Trackpoint>
          <Trackpoint>
            <Time>2019-10-10T07:33:32.000Z</Time>
            <Position>
              <LatitudeDegrees>38.37261599488556385040283203125</LatitudeDegrees>
              <LongitudeDegrees>-6.334774196147918701171875</LongitudeDegrees>
            </Position>
            <AltitudeMeters>436.20001220703125</AltitudeMeters>
            <DistanceMeters>NAN</DistanceMeters>
          </Trackpoint>
          <Trackpoint>
            <Time>2019-10-10T07:33:35.000Z</Time>
            <Position>
              <LatitudeDegrees>38.37242237292230129241943359375</LatitudeDegrees>
              <LongitudeDegrees>-6.33456758223474025726318359375</LongitudeDegrees>
            </Position>
            <AltitudeMeters>435.79998779296875</AltitudeMeters>
            <DistanceMeters>NAN</DistanceMeters>
          </Trackpoint>
          <Trackpoint>
            <Time>2019-10-10T07:33:37.000Z</Time>
            <Position>
              <LatitudeDegrees>38.37229580618441104888916015625</LatitudeDegrees>
              <LongitudeDegrees>-6.3344387523829936981201171875</LongitudeDegrees>
            </Position>
            <AltitudeMeters>435.79998779296875</AltitudeMeters>
            <DistanceMeters>NAN</DistanceMeters>
          </Trackpoint>
          <Trackpoint>
            <Time>2019-10-10T07:33:38.000Z</Time>
            <Position>
              <LatitudeDegrees>38.3722395636141300201416015625</LatitudeDegrees>
              <LongitudeDegrees>-6.334381587803363800048828125</LongitudeDegrees>
            </Position>
            <AltitudeMeters>435.600006103515625</AltitudeMeters>
            <DistanceMeters>NAN</DistanceMeters>
          </Trackpoint>
          <Trackpoint>
            <Time>2019-10-10T07:33:39.000Z</Time>
            <Position>
              <LatitudeDegrees>38.37218717671930789947509765625</LatitudeDegrees>
              <LongitudeDegrees>-6.33432484231889247894287109375</LongitudeDegrees>
            </Position>
            <AltitudeMeters>435.600006103515625</AltitudeMeters>
            <DistanceMeters>NAN</DistanceMeters>
          </Trackpoint>
          <Trackpoint>
            <Time>2019-10-10T07:33:40.000Z</Time>
            <Position>
              <LatitudeDegrees>38.3721440099179744720458984375</LatitudeDegrees>
              <LongitudeDegrees>-6.33427723310887813568115234375</LongitudeDegrees>
            </Position>
            <AltitudeMeters>435.79998779296875</AltitudeMeters>
            <DistanceMeters>NAN</DistanceMeters>
          </Trackpoint>
          <Trackpoint>
            <Time>2019-10-10T07:33:43.000Z</Time>
            <Position>
              <LatitudeDegrees>38.37206027470529079437255859375</LatitudeDegrees>
              <LongitudeDegrees>-6.3341988623142242431640625</LongitudeDegrees>
            </Position>
            <AltitudeMeters>437.20001220703125</AltitudeMeters>
            <DistanceMeters>NAN</DistanceMeters>
          </Trackpoint>
          <Trackpoint>
            <Time>2019-10-10T07:33:45.000Z</Time>
            <Position>
              <LatitudeDegrees>38.37205625139176845550537109375</LatitudeDegrees>
              <LongitudeDegrees>-6.33419550955295562744140625</LongitudeDegrees>
            </Position>
            <AltitudeMeters>438.20001220703125</AltitudeMeters>
            <DistanceMeters>NAN</DistanceMeters>
          </Trackpoint>
          <Trackpoint>
            <Time>2019-10-10T07:33:46.000Z</Time>
            <Position>
              <LatitudeDegrees>38.37205625139176845550537109375</LatitudeDegrees>
              <LongitudeDegrees>-6.33419550955295562744140625</LongitudeDegrees>
            </Position>
            <AltitudeMeters>437.600006103515625</AltitudeMeters>
            <DistanceMeters>NAN</DistanceMeters>
          </Trackpoint>
          <Trackpoint>
            <Time>2019-10-10T07:33:48.000Z</Time>
            <Position>
              <LatitudeDegrees>38.3720494620501995086669921875</LatitudeDegrees>
              <LongitudeDegrees>-6.334189139306545257568359375</LongitudeDegrees>
            </Position>
            <AltitudeMeters>437.399993896484375</AltitudeMeters>
            <DistanceMeters>NAN</DistanceMeters>
          </Trackpoint>
          <Trackpoint>
            <Time>2019-10-10T07:33:52.000Z</Time>
            <Position>
              <LatitudeDegrees>38.372035212814807891845703125</LatitudeDegrees>
              <LongitudeDegrees>-6.33417665027081966400146484375</LongitudeDegrees>
            </Position>
            <AltitudeMeters>437.399993896484375</AltitudeMeters>
            <DistanceMeters>NAN</DistanceMeters>
          </Trackpoint>
          <Trackpoint>
            <Time>2019-10-10T07:34:04.000Z</Time>
            <Position>
              <LatitudeDegrees>38.372035212814807891845703125</LatitudeDegrees>
              <LongitudeDegrees>-6.33417665027081966400146484375</LongitudeDegrees>
            </Position>
            <AltitudeMeters>437.20001220703125</AltitudeMeters>
            <DistanceMeters>NAN</DistanceMeters>
          </Trackpoint>
          <Trackpoint>
            <Time>2019-10-10T07:34:07.000Z</Time>
            <Position>
              <LatitudeDegrees>38.372035212814807891845703125</LatitudeDegrees>
              <LongitudeDegrees>-6.33417665027081966400146484375</LongitudeDegrees>
            </Position>
            <AltitudeMeters>437.399993896484375</AltitudeMeters>
            <DistanceMeters>NAN</DistanceMeters>
          </Trackpoint>
          <Trackpoint>
            <Time>2019-10-10T07:34:10.000Z</Time>
            <Position>
              <LatitudeDegrees>38.372035212814807891845703125</LatitudeDegrees>
              <LongitudeDegrees>-6.33417665027081966400146484375</LongitudeDegrees>
            </Position>
            <AltitudeMeters>437.399993896484375</AltitudeMeters>
            <DistanceMeters>NAN</DistanceMeters>
          </Trackpoint>
          <Trackpoint>
            <Time>2019-10-10T07:34:14.000Z</Time>
            <Position>
              <LatitudeDegrees>38.372035212814807891845703125</LatitudeDegrees>
              <LongitudeDegrees>-6.33417665027081966400146484375</LongitudeDegrees>
            </Position>
            <AltitudeMeters>437.20001220703125</AltitudeMeters>
            <DistanceMeters>NAN</DistanceMeters>
          </Trackpoint>
          <Trackpoint>
            <Time>2019-10-10T07:34:20.000Z</Time>
            <Position>
              <LatitudeDegrees>38.372035212814807891845703125</LatitudeDegrees>
              <LongitudeDegrees>-6.33417665027081966400146484375</LongitudeDegrees>
            </Position>
            <AltitudeMeters>437.600006103515625</AltitudeMeters>
            <DistanceMeters>NAN</DistanceMeters>
          </Trackpoint>
          <Trackpoint>
            <Time>2019-10-10T07:34:23.000Z</Time>
            <Position>
              <LatitudeDegrees>38.372035212814807891845703125</LatitudeDegrees>
              <LongitudeDegrees>-6.33417665027081966400146484375</LongitudeDegrees>
            </Position>
            <AltitudeMeters>437.20001220703125</AltitudeMeters>
            <DistanceMeters>NAN</DistanceMeters>
          </Trackpoint>
          <Trackpoint>
            <Time>2019-10-10T07:34:25.000Z</Time>
            <Position>
              <LatitudeDegrees>38.372035212814807891845703125</LatitudeDegrees>
              <LongitudeDegrees>-6.33417665027081966400146484375</LongitudeDegrees>
            </Position>
            <AltitudeMeters>437.600006103515625</AltitudeMeters>
            <DistanceMeters>NAN</DistanceMeters>
          </Trackpoint>
          <Trackpoint>
            <Time>2019-10-10T07:34:29.000Z</Time>
            <Position>
              <LatitudeDegrees>38.372035212814807891845703125</LatitudeDegrees>
              <LongitudeDegrees>-6.33417665027081966400146484375</LongitudeDegrees>
            </Position>
            <AltitudeMeters>437.20001220703125</AltitudeMeters>
            <DistanceMeters>NAN</DistanceMeters>
          </Trackpoint>
          <Trackpoint>
            <Time>2019-10-10T07:34:30.000Z</Time>
            <Position>
              <LatitudeDegrees>38.372035212814807891845703125</LatitudeDegrees>
              <LongitudeDegrees>-6.33417665027081966400146484375</LongitudeDegrees>
            </Position>
            <AltitudeMeters>437.20001220703125</AltitudeMeters>
            <DistanceMeters>NAN</DistanceMeters>
          </Trackpoint>
          <Trackpoint>
            <Time>2019-10-10T07:34:32.000Z</Time>
            <Position>
              <LatitudeDegrees>38.372033201158046722412109375</LatitudeDegrees>
              <LongitudeDegrees>-6.334173381328582763671875</LongitudeDegrees>
            </Position>
            <AltitudeMeters>437.399993896484375</AltitudeMeters>
            <DistanceMeters>NAN</DistanceMeters>
          </Trackpoint>
          <Trackpoint>
            <Time>2019-10-10T07:34:33.000Z</Time>
            <Position>
              <LatitudeDegrees>38.372033201158046722412109375</LatitudeDegrees>
              <LongitudeDegrees>-6.334173381328582763671875</LongitudeDegrees>
            </Position>
            <AltitudeMeters>437.399993896484375</AltitudeMeters>
            <DistanceMeters>NAN</DistanceMeters>
          </Trackpoint>
          <Trackpoint>
            <Time>2019-10-10T07:34:51.000Z</Time>
            <Position>
              <LatitudeDegrees>38.372033201158046722412109375</LatitudeDegrees>
              <LongitudeDegrees>-6.334173381328582763671875</LongitudeDegrees>
            </Position>
            <AltitudeMeters>437.20001220703125</AltitudeMeters>
            <DistanceMeters>NAN</DistanceMeters>
          </Trackpoint>
          <Trackpoint>
            <Time>2019-10-10T07:35:16.000Z</Time>
            <Position>
              <LatitudeDegrees>38.372032530605792999267578125</LatitudeDegrees>
              <LongitudeDegrees>-6.33417111821472644805908203125</LongitudeDegrees>
            </Position>
            <AltitudeMeters>437.20001220703125</AltitudeMeters>
            <DistanceMeters>NAN</DistanceMeters>
          </Trackpoint>
          <Trackpoint>
            <Time>2019-10-10T07:35:20.000Z</Time>
            <Position>
              <LatitudeDegrees>38.372032530605792999267578125</LatitudeDegrees>
              <LongitudeDegrees>-6.33417111821472644805908203125</LongitudeDegrees>
            </Position>
            <AltitudeMeters>437.20001220703125</AltitudeMeters>
            <DistanceMeters>NAN</DistanceMeters>
          </Trackpoint>
          <Trackpoint>
            <Time>2019-10-10T07:35:34.000Z</Time>
            <Position>
              <LatitudeDegrees>38.372032530605792999267578125</LatitudeDegrees>
              <LongitudeDegrees>-6.33417111821472644805908203125</LongitudeDegrees>
            </Position>
            <AltitudeMeters>437</AltitudeMeters>
            <DistanceMeters>NAN</DistanceMeters>
          </Trackpoint>
          <Trackpoint>
            <Time>2019-10-10T07:35:36.000Z</Time>
            <Position>
              <LatitudeDegrees>38.372032530605792999267578125</LatitudeDegrees>
              <LongitudeDegrees>-6.33417111821472644805908203125</LongitudeDegrees>
            </Position>
            <AltitudeMeters>437.399993896484375</AltitudeMeters>
            <DistanceMeters>NAN</DistanceMeters>
          </Trackpoint>
          <Trackpoint>
            <Time>2019-10-10T07:35:49.000Z</Time>
            <Position>
              <LatitudeDegrees>38.372032530605792999267578125</LatitudeDegrees>
              <LongitudeDegrees>-6.33417111821472644805908203125</LongitudeDegrees>
            </Position>
            <AltitudeMeters>437</AltitudeMeters>
            <DistanceMeters>NAN</DistanceMeters>
          </Trackpoint>
          <Trackpoint>
            <Time>2019-10-10T07:35:57.000Z</Time>
            <Position>
              <LatitudeDegrees>38.3720350451767444610595703125</LatitudeDegrees>
              <LongitudeDegrees>-6.334171034395694732666015625</LongitudeDegrees>
            </Position>
            <AltitudeMeters>437</AltitudeMeters>
            <DistanceMeters>NAN</DistanceMeters>
          </Trackpoint>
          <Trackpoint>
            <Time>2019-10-10T07:36:00.000Z</Time>
            <Position>
              <LatitudeDegrees>38.3720350451767444610595703125</LatitudeDegrees>
              <LongitudeDegrees>-6.334171034395694732666015625</LongitudeDegrees>
            </Position>
            <AltitudeMeters>437.20001220703125</AltitudeMeters>
            <DistanceMeters>NAN</DistanceMeters>
          </Trackpoint>
          <Trackpoint>
            <Time>2019-10-10T07:36:04.000Z</Time>
            <Position>
              <LatitudeDegrees>38.372035212814807891845703125</LatitudeDegrees>
              <LongitudeDegrees>-6.3341701962053775787353515625</LongitudeDegrees>
            </Position>
            <AltitudeMeters>437.20001220703125</AltitudeMeters>
            <DistanceMeters>NAN</DistanceMeters>
          </Trackpoint>
          <Trackpoint>
            <Time>2019-10-10T07:36:07.000Z</Time>
            <Position>
              <LatitudeDegrees>38.3720340393483638763427734375</LatitudeDegrees>
              <LongitudeDegrees>-6.33417069911956787109375</LongitudeDegrees>
            </Position>
            <AltitudeMeters>437</AltitudeMeters>
            <DistanceMeters>NAN</DistanceMeters>
          </Trackpoint>
          <Trackpoint>
            <Time>2019-10-10T07:36:10.000Z</Time>
            <Position>
              <LatitudeDegrees>38.3720340393483638763427734375</LatitudeDegrees>
              <LongitudeDegrees>-6.3341693580150604248046875</LongitudeDegrees>
            </Position>
            <AltitudeMeters>437.20001220703125</AltitudeMeters>
            <DistanceMeters>NAN</DistanceMeters>
          </Trackpoint>
          <Trackpoint>
            <Time>2019-10-10T07:36:12.000Z</Time>
            <Position>
              <LatitudeDegrees>38.3720166049897670745849609375</LatitudeDegrees>
              <LongitudeDegrees>-6.3341450504958629608154296875</LongitudeDegrees>
            </Position>
            <AltitudeMeters>437</AltitudeMeters>
            <DistanceMeters>NAN</DistanceMeters>
          </Trackpoint>
          <Trackpoint>
            <Time>2019-10-10T07:36:16.000Z</Time>
            <Position>
              <LatitudeDegrees>38.37194569408893585205078125</LatitudeDegrees>
              <LongitudeDegrees>-6.3340679369866847991943359375</LongitudeDegrees>
            </Position>
            <AltitudeMeters>436.79998779296875</AltitudeMeters>
            <DistanceMeters>NAN</DistanceMeters>
          </Trackpoint>
          <Trackpoint>
            <Time>2019-10-10T07:36:17.000Z</Time>
            <Position>
              <LatitudeDegrees>38.3719143457710742950439453125</LatitudeDegrees>
              <LongitudeDegrees>-6.334036923944950103759765625</LongitudeDegrees>
            </Position>
            <AltitudeMeters>436.79998779296875</AltitudeMeters>
            <DistanceMeters>NAN</DistanceMeters>
          </Trackpoint>
          <Trackpoint>
            <Time>2019-10-10T07:36:22.000Z</Time>
            <Position>
              <LatitudeDegrees>38.37173187173902988433837890625</LatitudeDegrees>
              <LongitudeDegrees>-6.333829723298549652099609375</LongitudeDegrees>
            </Position>
            <AltitudeMeters>436.20001220703125</AltitudeMeters>
            <DistanceMeters>NAN</DistanceMeters>
          </Trackpoint>
          <Trackpoint>
            <Time>2019-10-10T07:36:23.000Z</Time>
            <Position>
              <LatitudeDegrees>38.37169046513736248016357421875</LatitudeDegrees>
              <LongitudeDegrees>-6.33378379046916961669921875</LongitudeDegrees>
            </Position>
            <AltitudeMeters>435.79998779296875</AltitudeMeters>
            <DistanceMeters>NAN</DistanceMeters>
          </Trackpoint>
          <Trackpoint>
            <Time>2019-10-10T07:36:28.000Z</Time>
            <Position>
              <LatitudeDegrees>38.3714701049029827117919921875</LatitudeDegrees>
              <LongitudeDegrees>-6.33355580270290374755859375</LongitudeDegrees>
            </Position>
            <AltitudeMeters>435.79998779296875</AltitudeMeters>
            <DistanceMeters>NAN</DistanceMeters>
          </Trackpoint>
          <Trackpoint>
            <Time>2019-10-10T07:36:29.000Z</Time>
            <Position>
              <LatitudeDegrees>38.37142375297844409942626953125</LatitudeDegrees>
              <LongitudeDegrees>-6.333511210978031158447265625</LongitudeDegrees>
            </Position>
            <AltitudeMeters>435.79998779296875</AltitudeMeters>
            <DistanceMeters>NAN</DistanceMeters>
          </Trackpoint>
          <Trackpoint>
            <Time>2019-10-10T07:36:32.000Z</Time>
            <Position>
              <LatitudeDegrees>38.37127706967294216156005859375</LatitudeDegrees>
              <LongitudeDegrees>-6.33338741026818752288818359375</LongitudeDegrees>
            </Position>
            <AltitudeMeters>435.600006103515625</AltitudeMeters>
            <DistanceMeters>NAN</DistanceMeters>
          </Trackpoint>
          <Trackpoint>
            <Time>2019-10-10T07:36:36.000Z</Time>
            <Position>
              <LatitudeDegrees>38.3710701204836368560791015625</LatitudeDegrees>
              <LongitudeDegrees>-6.33324273861944675445556640625</LongitudeDegrees>
            </Position>
            <AltitudeMeters>436</AltitudeMeters>
            <DistanceMeters>NAN</DistanceMeters>
          </Trackpoint>
          <Trackpoint>
            <Time>2019-10-10T07:36:38.000Z</Time>
            <Position>
              <LatitudeDegrees>38.37096224538981914520263671875</LatitudeDegrees>
              <LongitudeDegrees>-6.333179287612438201904296875</LongitudeDegrees>
            </Position>
            <AltitudeMeters>435.600006103515625</AltitudeMeters>
            <DistanceMeters>NAN</DistanceMeters>
          </Trackpoint>
          <Trackpoint>
            <Time>2019-10-10T07:36:42.000Z</Time>
            <Position>
              <LatitudeDegrees>38.37074230425059795379638671875</LatitudeDegrees>
              <LongitudeDegrees>-6.3330721668899059295654296875</LongitudeDegrees>
            </Position>
            <AltitudeMeters>435.79998779296875</AltitudeMeters>
            <DistanceMeters>NAN</DistanceMeters>
          </Trackpoint>
          <Trackpoint>
            <Time>2019-10-10T07:36:45.000Z</Time>
            <Position>
              <LatitudeDegrees>38.37057818658649921417236328125</LatitudeDegrees>
              <LongitudeDegrees>-6.333000250160694122314453125</LongitudeDegrees>
            </Position>
            <AltitudeMeters>435.79998779296875</AltitudeMeters>
            <DistanceMeters>NAN</DistanceMeters>
          </Trackpoint>
          <Trackpoint>
            <Time>2019-10-10T07:36:52.000Z</Time>
            <Position>
              <LatitudeDegrees>38.37023318745195865631103515625</LatitudeDegrees>
              <LongitudeDegrees>-6.33282029069960117340087890625</LongitudeDegrees>
            </Position>
            <AltitudeMeters>436.79998779296875</AltitudeMeters>
            <DistanceMeters>NAN</DistanceMeters>
          </Trackpoint>
          <Trackpoint>
            <Time>2019-10-10T07:36:53.000Z</Time>
            <Position>
              <LatitudeDegrees>38.37018809281289577484130859375</LatitudeDegrees>
              <LongitudeDegrees>-6.3327908702194690704345703125</LongitudeDegrees>
            </Position>
            <AltitudeMeters>437</AltitudeMeters>
            <DistanceMeters>NAN</DistanceMeters>
          </Trackpoint>
          <Trackpoint>
            <Time>2019-10-10T07:36:58.000Z</Time>
            <Position>
              <LatitudeDegrees>38.3699865080416202545166015625</LatitudeDegrees>
              <LongitudeDegrees>-6.3326517306268215179443359375</LongitudeDegrees>
            </Position>
            <AltitudeMeters>438.20001220703125</AltitudeMeters>
            <DistanceMeters>NAN</DistanceMeters>
          </Trackpoint>
          <Trackpoint>
            <Time>2019-10-10T07:37:00.000Z</Time>
            <Position>
              <LatitudeDegrees>38.36991786025464534759521484375</LatitudeDegrees>
              <LongitudeDegrees>-6.3325910456478595733642578125</LongitudeDegrees>
            </Position>
            <AltitudeMeters>438.600006103515625</AltitudeMeters>
            <DistanceMeters>NAN</DistanceMeters>
          </Trackpoint>
          <Trackpoint>
            <Time>2019-10-10T07:37:05.000Z</Time>
            <Position>
              <LatitudeDegrees>38.3697484619915485382080078125</LatitudeDegrees>
              <LongitudeDegrees>-6.33244478143751621246337890625</LongitudeDegrees>
            </Position>
            <AltitudeMeters>439.20001220703125</AltitudeMeters>
            <DistanceMeters>NAN</DistanceMeters>
          </Trackpoint>
          <Trackpoint>
            <Time>2019-10-10T07:37:08.000Z</Time>
            <Position>
              <LatitudeDegrees>38.369647376239299774169921875</LatitudeDegrees>
              <LongitudeDegrees>-6.3323550112545490264892578125</LongitudeDegrees>
            </Position>
            <AltitudeMeters>439.600006103515625</AltitudeMeters>
            <DistanceMeters>NAN</DistanceMeters>
          </Trackpoint>
          <Trackpoint>
            <Time>2019-10-10T07:37:11.000Z</Time>
            <Position>
              <LatitudeDegrees>38.3695426024496555328369140625</LatitudeDegrees>
              <LongitudeDegrees>-6.33227773010730743408203125</LongitudeDegrees>
            </Position>
            <AltitudeMeters>440.399993896484375</AltitudeMeters>
            <DistanceMeters>NAN</DistanceMeters>
          </Trackpoint>
          <Trackpoint>
            <Time>2019-10-10T07:37:17.000Z</Time>
            <Position>
              <LatitudeDegrees>38.36931838653981685638427734375</LatitudeDegrees>
              <LongitudeDegrees>-6.33213364519178867340087890625</LongitudeDegrees>
            </Position>
            <AltitudeMeters>441.20001220703125</AltitudeMeters>
            <DistanceMeters>NAN</DistanceMeters>
          </Trackpoint>
          <Trackpoint>
            <Time>2019-10-10T07:37:20.000Z</Time>
            <Position>
              <LatitudeDegrees>38.36920070461928844451904296875</LatitudeDegrees>
              <LongitudeDegrees>-6.332064159214496612548828125</LongitudeDegrees>
            </Position>
            <AltitudeMeters>441.20001220703125</AltitudeMeters>
            <DistanceMeters>NAN</DistanceMeters>
          </Trackpoint>
          <Trackpoint>
            <Time>2019-10-10T07:37:21.000Z</Time>
            <Position>
              <LatitudeDegrees>38.3691603876650333404541015625</LatitudeDegrees>
              <LongitudeDegrees>-6.33204379118978977203369140625</LongitudeDegrees>
            </Position>
            <AltitudeMeters>441.600006103515625</AltitudeMeters>
            <DistanceMeters>NAN</DistanceMeters>
          </Trackpoint>
          <Trackpoint>
            <Time>2019-10-10T07:37:26.000Z</Time>
            <Position>
              <LatitudeDegrees>38.36894455365836620330810546875</LatitudeDegrees>
              <LongitudeDegrees>-6.33195720613002777099609375</LongitudeDegrees>
            </Position>
            <AltitudeMeters>441.600006103515625</AltitudeMeters>
            <DistanceMeters>NAN</DistanceMeters>
          </Trackpoint>
          <Trackpoint>
            <Time>2019-10-10T07:37:35.000Z</Time>
            <Position>
              <LatitudeDegrees>38.3685340918600559234619140625</LatitudeDegrees>
              <LongitudeDegrees>-6.3318383507430553436279296875</LongitudeDegrees>
            </Position>
            <AltitudeMeters>442</AltitudeMeters>
            <DistanceMeters>NAN</DistanceMeters>
          </Trackpoint>
          <Trackpoint>
            <Time>2019-10-10T07:37:43.000Z</Time>
            <Position>
              <LatitudeDegrees>38.3681217022240161895751953125</LatitudeDegrees>
              <LongitudeDegrees>-6.33172276429831981658935546875</LongitudeDegrees>
            </Position>
            <AltitudeMeters>441.399993896484375</AltitudeMeters>
            <DistanceMeters>NAN</DistanceMeters>
          </Trackpoint>
          <Trackpoint>
            <Time>2019-10-10T07:37:51.000Z</Time>
            <Position>
              <LatitudeDegrees>38.36768190376460552215576171875</LatitudeDegrees>
              <LongitudeDegrees>-6.33160105906426906585693359375</LongitudeDegrees>
            </Position>
            <AltitudeMeters>440.600006103515625</AltitudeMeters>
            <DistanceMeters>NAN</DistanceMeters>
          </Trackpoint>
          <Trackpoint>
            <Time>2019-10-10T07:37:52.000Z</Time>
            <Position>
              <LatitudeDegrees>38.36762440390884876251220703125</LatitudeDegrees>
              <LongitudeDegrees>-6.331584714353084564208984375</LongitudeDegrees>
            </Position>
            <AltitudeMeters>440.399993896484375</AltitudeMeters>
            <DistanceMeters>NAN</DistanceMeters>
          </Trackpoint>
          <Trackpoint>
            <Time>2019-10-10T07:37:56.000Z</Time>
            <Position>
              <LatitudeDegrees>38.36738753132522106170654296875</LatitudeDegrees>
              <LongitudeDegrees>-6.3315112888813018798828125</LongitudeDegrees>
            </Position>
            <AltitudeMeters>440</AltitudeMeters>
            <DistanceMeters>NAN</DistanceMeters>
          </Trackpoint>
          <Trackpoint>
            <Time>2019-10-10T07:37:57.000Z</Time>
            <Position>
              <LatitudeDegrees>38.367326259613037109375</LatitudeDegrees>
              <LongitudeDegrees>-6.33149075321853160858154296875</LongitudeDegrees>
            </Position>
            <AltitudeMeters>439.399993896484375</AltitudeMeters>
            <DistanceMeters>NAN</DistanceMeters>
          </Trackpoint>
          <Trackpoint>
            <Time>2019-10-10T07:38:00.000Z</Time>
            <Position>
              <LatitudeDegrees>38.36713406257331371307373046875</LatitudeDegrees>
              <LongitudeDegrees>-6.3314323313534259796142578125</LongitudeDegrees>
            </Position>
            <AltitudeMeters>439.20001220703125</AltitudeMeters>
            <DistanceMeters>NAN</DistanceMeters>
          </Trackpoint>
          <Trackpoint>
            <Time>2019-10-10T07:38:03.000Z</Time>
            <Position>
              <LatitudeDegrees>38.36692669428884983062744140625</LatitudeDegrees>
              <LongitudeDegrees>-6.33137919008731842041015625</LongitudeDegrees>
            </Position>
            <AltitudeMeters>438.20001220703125</AltitudeMeters>
            <DistanceMeters>NAN</DistanceMeters>
          </Trackpoint>
          <Trackpoint>
            <Time>2019-10-10T07:38:07.000Z</Time>
            <Position>
              <LatitudeDegrees>38.3666310645639896392822265625</LatitudeDegrees>
              <LongitudeDegrees>-6.33130853064358234405517578125</LongitudeDegrees>
            </Position>
            <AltitudeMeters>436.79998779296875</AltitudeMeters>
            <DistanceMeters>NAN</DistanceMeters>
          </Trackpoint>
          <Trackpoint>
            <Time>2019-10-10T07:38:10.000Z</Time>
            <Position>
              <LatitudeDegrees>38.36640567518770694732666015625</LatitudeDegrees>
              <LongitudeDegrees>-6.33125153370201587677001953125</LongitudeDegrees>
            </Position>
            <AltitudeMeters>436.399993896484375</AltitudeMeters>
            <DistanceMeters>NAN</DistanceMeters>
          </Trackpoint>
          <Trackpoint>
            <Time>2019-10-10T07:38:14.000Z</Time>
            <Position>
              <LatitudeDegrees>38.36611448787152767181396484375</LatitudeDegrees>
              <LongitudeDegrees>-6.33117877878248691558837890625</LongitudeDegrees>
            </Position>
            <AltitudeMeters>436.20001220703125</AltitudeMeters>
            <DistanceMeters>NAN</DistanceMeters>
          </Trackpoint>
          <Trackpoint>
            <Time>2019-10-10T07:38:16.000Z</Time>
            <Position>
              <LatitudeDegrees>38.36597400717437267303466796875</LatitudeDegrees>
              <LongitudeDegrees>-6.33114575408399105072021484375</LongitudeDegrees>
            </Position>
            <AltitudeMeters>436.399993896484375</AltitudeMeters>
            <DistanceMeters>NAN</DistanceMeters>
          </Trackpoint>
          <Trackpoint>
            <Time>2019-10-10T07:38:23.000Z</Time>
            <Position>
              <LatitudeDegrees>38.36554594337940216064453125</LatitudeDegrees>
              <LongitudeDegrees>-6.33103854954242706298828125</LongitudeDegrees>
            </Position>
            <AltitudeMeters>437.79998779296875</AltitudeMeters>
            <DistanceMeters>NAN</DistanceMeters>
          </Trackpoint>
          <Trackpoint>
            <Time>2019-10-10T07:38:24.000Z</Time>
            <Position>
              <LatitudeDegrees>38.3654914610087871551513671875</LatitudeDegrees>
              <LongitudeDegrees>-6.33102538995444774627685546875</LongitudeDegrees>
            </Position>
            <AltitudeMeters>438</AltitudeMeters>
            <DistanceMeters>NAN</DistanceMeters>
          </Trackpoint>
          <Trackpoint>
            <Time>2019-10-10T07:38:32.000Z</Time>
            <Position>
              <LatitudeDegrees>38.36507060565054416656494140625</LatitudeDegrees>
              <LongitudeDegrees>-6.3309250585734844207763671875</LongitudeDegrees>
            </Position>
            <AltitudeMeters>438.79998779296875</AltitudeMeters>
            <DistanceMeters>NAN</DistanceMeters>
          </Trackpoint>
          <Trackpoint>
            <Time>2019-10-10T07:38:36.000Z</Time>
            <Position>
              <LatitudeDegrees>38.36486399173736572265625</LatitudeDegrees>
              <LongitudeDegrees>-6.330874264240264892578125</LongitudeDegrees>
            </Position>
            <AltitudeMeters>439.20001220703125</AltitudeMeters>
            <DistanceMeters>NAN</DistanceMeters>
          </Trackpoint>
          <Trackpoint>
            <Time>2019-10-10T07:38:43.000Z</Time>
            <Position>
              <LatitudeDegrees>38.36450281552970409393310546875</LatitudeDegrees>
              <LongitudeDegrees>-6.3307845778763294219970703125</LongitudeDegrees>
            </Position>
            <AltitudeMeters>439.600006103515625</AltitudeMeters>
            <DistanceMeters>NAN</DistanceMeters>
          </Trackpoint>
          <Trackpoint>
            <Time>2019-10-10T07:38:53.000Z</Time>
            <Position>
              <LatitudeDegrees>38.3640045113861560821533203125</LatitudeDegrees>
              <LongitudeDegrees>-6.33065541274845600128173828125</LongitudeDegrees>
            </Position>
            <AltitudeMeters>440.20001220703125</AltitudeMeters>
            <DistanceMeters>NAN</DistanceMeters>
          </Trackpoint>
          <Trackpoint>
            <Time>2019-10-10T07:38:54.000Z</Time>
            <Position>
              <LatitudeDegrees>38.363955058157444000244140625</LatitudeDegrees>
              <LongitudeDegrees>-6.330643258988857269287109375</LongitudeDegrees>
            </Position>
            <AltitudeMeters>440.20001220703125</AltitudeMeters>
            <DistanceMeters>NAN</DistanceMeters>
          </Trackpoint>
          <Trackpoint>
            <Time>2019-10-10T07:38:59.000Z</Time>
            <Position>
              <LatitudeDegrees>38.363708294928073883056640625</LatitudeDegrees>
              <LongitudeDegrees>-6.33058785460889339447021484375</LongitudeDegrees>
            </Position>
            <AltitudeMeters>441</AltitudeMeters>
            <DistanceMeters>NAN</DistanceMeters>
          </Trackpoint>
          <Trackpoint>
            <Time>2019-10-10T07:39:03.000Z</Time>
            <Position>
              <LatitudeDegrees>38.36351224221289157867431640625</LatitudeDegrees>
              <LongitudeDegrees>-6.3305334560573101043701171875</LongitudeDegrees>
            </Position>
            <AltitudeMeters>441</AltitudeMeters>
            <DistanceMeters>NAN</DistanceMeters>
          </Trackpoint>
          <Trackpoint>
            <Time>2019-10-10T07:39:05.000Z</Time>
            <Position>
              <LatitudeDegrees>38.36341417394578456878662109375</LatitudeDegrees>
              <LongitudeDegrees>-6.330504454672336578369140625</LongitudeDegrees>
            </Position>
            <AltitudeMeters>441.399993896484375</AltitudeMeters>
            <DistanceMeters>NAN</DistanceMeters>
          </Trackpoint>
          <Trackpoint>
            <Time>2019-10-10T07:39:13.000Z</Time>
            <Position>
              <LatitudeDegrees>38.363021314144134521484375</LatitudeDegrees>
              <LongitudeDegrees>-6.33036724291741847991943359375</LongitudeDegrees>
            </Position>
            <AltitudeMeters>442</AltitudeMeters>
            <DistanceMeters>NAN</DistanceMeters>
          </Trackpoint>
          <Trackpoint>
            <Time>2019-10-10T07:39:22.000Z</Time>
            <Position>
              <LatitudeDegrees>38.36255687288939952850341796875</LatitudeDegrees>
              <LongitudeDegrees>-6.3301757164299488067626953125</LongitudeDegrees>
            </Position>
            <AltitudeMeters>441.600006103515625</AltitudeMeters>
            <DistanceMeters>NAN</DistanceMeters>
          </Trackpoint>
          <Trackpoint>
            <Time>2019-10-10T07:39:31.000Z</Time>
            <Position>
              <LatitudeDegrees>38.36204809136688709259033203125</LatitudeDegrees>
              <LongitudeDegrees>-6.32995166815817356109619140625</LongitudeDegrees>
            </Position>
            <AltitudeMeters>440.399993896484375</AltitudeMeters>
            <DistanceMeters>NAN</DistanceMeters>
          </Trackpoint>
          <Trackpoint>
            <Time>2019-10-10T07:39:40.000Z</Time>
            <Position>
              <LatitudeDegrees>38.36150662042200565338134765625</LatitudeDegrees>
              <LongitudeDegrees>-6.32971479557454586029052734375</LongitudeDegrees>
            </Position>
            <AltitudeMeters>439.79998779296875</AltitudeMeters>
            <DistanceMeters>NAN</DistanceMeters>
          </Trackpoint>
          <Trackpoint>
            <Time>2019-10-10T07:39:41.000Z</Time>
            <Position>
              <LatitudeDegrees>38.36144627071917057037353515625</LatitudeDegrees>
              <LongitudeDegrees>-6.32968847639858722686767578125</LongitudeDegrees>
            </Position>
            <AltitudeMeters>439.600006103515625</AltitudeMeters>
            <DistanceMeters>NAN</DistanceMeters>
          </Trackpoint>
          <Trackpoint>
            <Time>2019-10-10T07:39:42.000Z</Time>
            <Position>
              <LatitudeDegrees>38.361385501921176910400390625</LatitudeDegrees>
              <LongitudeDegrees>-6.3296624086797237396240234375</LongitudeDegrees>
            </Position>
            <AltitudeMeters>439.399993896484375</AltitudeMeters>
            <DistanceMeters>NAN</DistanceMeters>
          </Trackpoint>
          <Trackpoint>
            <Time>2019-10-10T07:39:48.000Z</Time>
            <Position>
              <LatitudeDegrees>38.36101091466844081878662109375</LatitudeDegrees>
              <LongitudeDegrees>-6.32949954830110073089599609375</LongitudeDegrees>
            </Position>
            <AltitudeMeters>438.399993896484375</AltitudeMeters>
            <DistanceMeters>NAN</DistanceMeters>
          </Trackpoint>
          <Trackpoint>
            <Time>2019-10-10T07:39:52.000Z</Time>
            <Position>
              <LatitudeDegrees>38.36075057275593280792236328125</LatitudeDegrees>
              <LongitudeDegrees>-6.32938337512314319610595703125</LongitudeDegrees>
            </Position>
            <AltitudeMeters>437.600006103515625</AltitudeMeters>
            <DistanceMeters>NAN</DistanceMeters>
          </Trackpoint>
          <Trackpoint>
            <Time>2019-10-10T07:39:57.000Z</Time>
            <Position>
              <LatitudeDegrees>38.360422588884830474853515625</LatitudeDegrees>
              <LongitudeDegrees>-6.329238452017307281494140625</LongitudeDegrees>
            </Position>
            <AltitudeMeters>437.20001220703125</AltitudeMeters>
            <DistanceMeters>NAN</DistanceMeters>
          </Trackpoint>
          <Trackpoint>
            <Time>2019-10-10T07:40:03.000Z</Time>
            <Position>
              <LatitudeDegrees>38.36004699580371379852294921875</LatitudeDegrees>
              <LongitudeDegrees>-6.32907508872449398040771484375</LongitudeDegrees>
            </Position>
            <AltitudeMeters>437.399993896484375</AltitudeMeters>
            <DistanceMeters>NAN</DistanceMeters>
          </Trackpoint>
          <Trackpoint>
            <Time>2019-10-10T07:40:06.000Z</Time>
            <Position>
              <LatitudeDegrees>38.3598822914063930511474609375</LatitudeDegrees>
              <LongitudeDegrees>-6.3290049321949481964111328125</LongitudeDegrees>
            </Position>
            <AltitudeMeters>438.399993896484375</AltitudeMeters>
            <DistanceMeters>NAN</DistanceMeters>
          </Trackpoint>
          <Trackpoint>
            <Time>2019-10-10T07:40:10.000Z</Time>
            <Position>
              <LatitudeDegrees>38.35968540050089359283447265625</LatitudeDegrees>
              <LongitudeDegrees>-6.32891918532550334930419921875</LongitudeDegrees>
            </Position>
            <AltitudeMeters>439.399993896484375</AltitudeMeters>
            <DistanceMeters>NAN</DistanceMeters>
          </Trackpoint>
          <Trackpoint>
            <Time>2019-10-10T07:40:14.000Z</Time>
            <Position>
              <LatitudeDegrees>38.3594955503940582275390625</LatitudeDegrees>
              <LongitudeDegrees>-6.328837461769580841064453125</LongitudeDegrees>
            </Position>
            <AltitudeMeters>440</AltitudeMeters>
            <DistanceMeters>NAN</DistanceMeters>
          </Trackpoint>
          <Trackpoint>
            <Time>2019-10-10T07:40:17.000Z</Time>
            <Position>
              <LatitudeDegrees>38.35935347713530063629150390625</LatitudeDegrees>
              <LongitudeDegrees>-6.32877803407609462738037109375</LongitudeDegrees>
            </Position>
            <AltitudeMeters>439.600006103515625</AltitudeMeters>
            <DistanceMeters>NAN</DistanceMeters>
          </Trackpoint>
          <Trackpoint>
            <Time>2019-10-10T07:40:24.000Z</Time>
            <Position>
              <LatitudeDegrees>38.359024822711944580078125</LatitudeDegrees>
              <LongitudeDegrees>-6.3286354579031467437744140625</LongitudeDegrees>
            </Position>
            <AltitudeMeters>440.79998779296875</AltitudeMeters>
            <DistanceMeters>NAN</DistanceMeters>
          </Trackpoint>
          <Trackpoint>
            <Time>2019-10-10T07:40:26.000Z</Time>
            <Position>
              <LatitudeDegrees>38.35892767645418643951416015625</LatitudeDegrees>
              <LongitudeDegrees>-6.3285938836634159088134765625</LongitudeDegrees>
            </Position>
            <AltitudeMeters>440.79998779296875</AltitudeMeters>
            <DistanceMeters>NAN</DistanceMeters>
          </Trackpoint>
          <Trackpoint>
            <Time>2019-10-10T07:40:29.000Z</Time>
            <Position>
              <LatitudeDegrees>38.35878518410027027130126953125</LatitudeDegrees>
              <LongitudeDegrees>-6.3285301811993122100830078125</LongitudeDegrees>
            </Position>
            <AltitudeMeters>441.20001220703125</AltitudeMeters>
            <DistanceMeters>NAN</DistanceMeters>
          </Trackpoint>
          <Trackpoint>
            <Time>2019-10-10T07:40:35.000Z</Time>
            <Position>
              <LatitudeDegrees>38.35850137285888195037841796875</LatitudeDegrees>
              <LongitudeDegrees>-6.328405626118183135986328125</LongitudeDegrees>
            </Position>
            <AltitudeMeters>441.399993896484375</AltitudeMeters>
            <DistanceMeters>NAN</DistanceMeters>
          </Trackpoint>
          <Trackpoint>
            <Time>2019-10-10T07:40:36.000Z</Time>
            <Position>
              <LatitudeDegrees>38.3584548532962799072265625</LatitudeDegrees>
              <LongitudeDegrees>-6.32838525809347629547119140625</LongitudeDegrees>
            </Position>
            <AltitudeMeters>441.399993896484375</AltitudeMeters>
            <DistanceMeters>NAN</DistanceMeters>
          </Trackpoint>
          <Trackpoint>
            <Time>2019-10-10T07:40:43.000Z</Time>
            <Position>
              <LatitudeDegrees>38.358139358460903167724609375</LatitudeDegrees>
              <LongitudeDegrees>-6.32824611850082874298095703125</LongitudeDegrees>
            </Position>
            <AltitudeMeters>442.20001220703125</AltitudeMeters>
            <DistanceMeters>NAN</DistanceMeters>
          </Trackpoint>
          <Trackpoint>
            <Time>2019-10-10T07:40:46.000Z</Time>
            <Position>
              <LatitudeDegrees>38.35801002569496631622314453125</LatitudeDegrees>
              <LongitudeDegrees>-6.3281902112066745758056640625</LongitudeDegrees>
            </Position>
            <AltitudeMeters>442.399993896484375</AltitudeMeters>
            <DistanceMeters>NAN</DistanceMeters>
          </Trackpoint>
          <Trackpoint>
            <Time>2019-10-10T07:40:57.000Z</Time>
            <Position>
              <LatitudeDegrees>38.35754499770700931549072265625</LatitudeDegrees>
              <LongitudeDegrees>-6.32798661477863788604736328125</LongitudeDegrees>
            </Position>
            <AltitudeMeters>443</AltitudeMeters>
            <DistanceMeters>NAN</DistanceMeters>
          </Trackpoint>
          <Trackpoint>
            <Time>2019-10-10T07:40:58.000Z</Time>
            <Position>
              <LatitudeDegrees>38.357501663267612457275390625</LatitudeDegrees>
              <LongitudeDegrees>-6.32796750403940677642822265625</LongitudeDegrees>
            </Position>
            <AltitudeMeters>443.20001220703125</AltitudeMeters>
            <DistanceMeters>NAN</DistanceMeters>
          </Trackpoint>
          <Trackpoint>
            <Time>2019-10-10T07:41:09.000Z</Time>
            <Position>
              <LatitudeDegrees>38.35701056756079196929931640625</LatitudeDegrees>
              <LongitudeDegrees>-6.32773951627314090728759765625</LongitudeDegrees>
            </Position>
            <AltitudeMeters>443</AltitudeMeters>
            <DistanceMeters>NAN</DistanceMeters>
          </Trackpoint>
          <Trackpoint>
            <Time>2019-10-10T07:41:19.000Z</Time>
            <Position>
              <LatitudeDegrees>38.35652424953877925872802734375</LatitudeDegrees>
              <LongitudeDegrees>-6.327488310635089874267578125</LongitudeDegrees>
            </Position>
            <AltitudeMeters>443.20001220703125</AltitudeMeters>
            <DistanceMeters>NAN</DistanceMeters>
          </Trackpoint>
          <Trackpoint>
            <Time>2019-10-10T07:41:24.000Z</Time>
            <Position>
              <LatitudeDegrees>38.3562767319381237030029296875</LatitudeDegrees>
              <LongitudeDegrees>-6.3273543678224086761474609375</LongitudeDegrees>
            </Position>
            <AltitudeMeters>442.600006103515625</AltitudeMeters>
            <DistanceMeters>NAN</DistanceMeters>
          </Trackpoint>
          <Trackpoint>
            <Time>2019-10-10T07:41:32.000Z</Time>
            <Position>
              <LatitudeDegrees>38.35587733425199985504150390625</LatitudeDegrees>
              <LongitudeDegrees>-6.327142976224422454833984375</LongitudeDegrees>
            </Position>
            <AltitudeMeters>443</AltitudeMeters>
            <DistanceMeters>NAN</DistanceMeters>
          </Trackpoint>
          <Trackpoint>
            <Time>2019-10-10T07:41:42.000Z</Time>
            <Position>
              <LatitudeDegrees>38.355376012623310089111328125</LatitudeDegrees>
              <LongitudeDegrees>-6.326876766979694366455078125</LongitudeDegrees>
            </Position>
            <AltitudeMeters>443</AltitudeMeters>
            <DistanceMeters>NAN</DistanceMeters>
          </Trackpoint>
          <Trackpoint>
            <Time>2019-10-10T07:41:43.000Z</Time>
            <Position>
              <LatitudeDegrees>38.35532605648040771484375</LatitudeDegrees>
              <LongitudeDegrees>-6.32685053162276744842529296875</LongitudeDegrees>
            </Position>
            <AltitudeMeters>443.20001220703125</AltitudeMeters>
            <DistanceMeters>NAN</DistanceMeters>
          </Trackpoint>
          <Trackpoint>
            <Time>2019-10-10T07:41:53.000Z</Time>
            <Position>
              <LatitudeDegrees>38.354837559163570404052734375</LatitudeDegrees>
              <LongitudeDegrees>-6.326585747301578521728515625</LongitudeDegrees>
            </Position>
            <AltitudeMeters>443.399993896484375</AltitudeMeters>
            <DistanceMeters>NAN</DistanceMeters>
          </Trackpoint>
          <Trackpoint>
            <Time>2019-10-10T07:41:55.000Z</Time>
            <Position>
              <LatitudeDegrees>38.3547415025532245635986328125</LatitudeDegrees>
              <LongitudeDegrees>-6.32653403095901012420654296875</LongitudeDegrees>
            </Position>
            <AltitudeMeters>443.399993896484375</AltitudeMeters>
            <DistanceMeters>NAN</DistanceMeters>
          </Trackpoint>
          <Trackpoint>
            <Time>2019-10-10T07:42:05.000Z</Time>
            <Position>
              <LatitudeDegrees>38.35425057448446750640869140625</LatitudeDegrees>
              <LongitudeDegrees>-6.32626966573297977447509765625</LongitudeDegrees>
            </Position>
            <AltitudeMeters>444.20001220703125</AltitudeMeters>
            <DistanceMeters>NAN</DistanceMeters>
          </Trackpoint>
          <Trackpoint>
            <Time>2019-10-10T07:42:07.000Z</Time>
            <Position>
              <LatitudeDegrees>38.35414831526577472686767578125</LatitudeDegrees>
              <LongitudeDegrees>-6.326215602457523345947265625</LongitudeDegrees>
            </Position>
            <AltitudeMeters>444.20001220703125</AltitudeMeters>
            <DistanceMeters>NAN</DistanceMeters>
          </Trackpoint>
          <Trackpoint>
            <Time>2019-10-10T07:42:11.000Z</Time>
            <Position>
              <LatitudeDegrees>38.35394379682838916778564453125</LatitudeDegrees>
              <LongitudeDegrees>-6.3261084817349910736083984375</LongitudeDegrees>
            </Position>
            <AltitudeMeters>444.399993896484375</AltitudeMeters>
            <DistanceMeters>NAN</DistanceMeters>
          </Trackpoint>
          <Trackpoint>
            <Time>2019-10-10T07:42:20.000Z</Time>
            <Position>
              <LatitudeDegrees>38.35348446853458881378173828125</LatitudeDegrees>
              <LongitudeDegrees>-6.3258617185056209564208984375</LongitudeDegrees>
            </Position>
            <AltitudeMeters>443.600006103515625</AltitudeMeters>
            <DistanceMeters>NAN</DistanceMeters>
          </Trackpoint>
          <Trackpoint>
            <Time>2019-10-10T07:42:30.000Z</Time>
            <Position>
              <LatitudeDegrees>38.3529813028872013092041015625</LatitudeDegrees>
              <LongitudeDegrees>-6.32556491531431674957275390625</LongitudeDegrees>
            </Position>
            <AltitudeMeters>443.79998779296875</AltitudeMeters>
            <DistanceMeters>NAN</DistanceMeters>
          </Trackpoint>
          <Trackpoint>
            <Time>2019-10-10T07:42:31.000Z</Time>
            <Position>
              <LatitudeDegrees>38.3529310114681720733642578125</LatitudeDegrees>
              <LongitudeDegrees>-6.32553306408226490020751953125</LongitudeDegrees>
            </Position>
            <AltitudeMeters>443.79998779296875</AltitudeMeters>
            <DistanceMeters>NAN</DistanceMeters>
          </Trackpoint>
          <Trackpoint>
            <Time>2019-10-10T07:42:34.000Z</Time>
            <Position>
              <LatitudeDegrees>38.35277955047786235809326171875</LatitudeDegrees>
              <LongitudeDegrees>-6.32543566636741161346435546875</LongitudeDegrees>
            </Position>
            <AltitudeMeters>443.20001220703125</AltitudeMeters>
            <DistanceMeters>NAN</DistanceMeters>
          </Trackpoint>
          <Trackpoint>
            <Time>2019-10-10T07:42:41.000Z</Time>
            <Position>
              <LatitudeDegrees>38.35243321023881435394287109375</LatitudeDegrees>
              <LongitudeDegrees>-6.325185298919677734375</LongitudeDegrees>
            </Position>
            <AltitudeMeters>442.79998779296875</AltitudeMeters>
            <DistanceMeters>NAN</DistanceMeters>
          </Trackpoint>
          <Trackpoint>
            <Time>2019-10-10T07:42:46.000Z</Time>
            <Position>
              <LatitudeDegrees>38.35218091495335102081298828125</LatitudeDegrees>
              <LongitudeDegrees>-6.32498371414840221405029296875</LongitudeDegrees>
            </Position>
            <AltitudeMeters>442.20001220703125</AltitudeMeters>
            <DistanceMeters>NAN</DistanceMeters>
          </Trackpoint>
          <Trackpoint>
            <Time>2019-10-10T07:42:51.000Z</Time>
            <Position>
              <LatitudeDegrees>38.35190900601446628570556640625</LatitudeDegrees>
              <LongitudeDegrees>-6.32475874386727809906005859375</LongitudeDegrees>
            </Position>
            <AltitudeMeters>441.20001220703125</AltitudeMeters>
            <DistanceMeters>NAN</DistanceMeters>
          </Trackpoint>
          <Trackpoint>
            <Time>2019-10-10T07:42:52.000Z</Time>
            <Position>
              <LatitudeDegrees>38.35185326635837554931640625</LatitudeDegrees>
              <LongitudeDegrees>-6.3247127272188663482666015625</LongitudeDegrees>
            </Position>
            <AltitudeMeters>440.79998779296875</AltitudeMeters>
            <DistanceMeters>NAN</DistanceMeters>
          </Trackpoint>
          <Trackpoint>
            <Time>2019-10-10T07:43:00.000Z</Time>
            <Position>
              <LatitudeDegrees>38.35139720700681209564208984375</LatitudeDegrees>
              <LongitudeDegrees>-6.3243310153484344482421875</LongitudeDegrees>
            </Position>
            <AltitudeMeters>439.79998779296875</AltitudeMeters>
            <DistanceMeters>NAN</DistanceMeters>
          </Trackpoint>
          <Trackpoint>
            <Time>2019-10-10T07:43:03.000Z</Time>
            <Position>
              <LatitudeDegrees>38.35122085176408290863037109375</LatitudeDegrees>
              <LongitudeDegrees>-6.32418307475745677947998046875</LongitudeDegrees>
            </Position>
            <AltitudeMeters>439.20001220703125</AltitudeMeters>
            <DistanceMeters>NAN</DistanceMeters>
          </Trackpoint>
          <Trackpoint>
            <Time>2019-10-10T07:43:05.000Z</Time>
            <Position>
              <LatitudeDegrees>38.351101242005825042724609375</LatitudeDegrees>
              <LongitudeDegrees>-6.3240842521190643310546875</LongitudeDegrees>
            </Position>
            <AltitudeMeters>438.600006103515625</AltitudeMeters>
            <DistanceMeters>NAN</DistanceMeters>
          </Trackpoint>
          <Trackpoint>
            <Time>2019-10-10T07:43:09.000Z</Time>
            <Position>
              <LatitudeDegrees>38.35086294449865818023681640625</LatitudeDegrees>
              <LongitudeDegrees>-6.32388333790004253387451171875</LongitudeDegrees>
            </Position>
            <AltitudeMeters>437.399993896484375</AltitudeMeters>
            <DistanceMeters>NAN</DistanceMeters>
          </Trackpoint>
          <Trackpoint>
            <Time>2019-10-10T07:43:15.000Z</Time>
            <Position>
              <LatitudeDegrees>38.3505052886903285980224609375</LatitudeDegrees>
              <LongitudeDegrees>-6.32358712144196033477783203125</LongitudeDegrees>
            </Position>
            <AltitudeMeters>437.20001220703125</AltitudeMeters>
            <DistanceMeters>NAN</DistanceMeters>
          </Trackpoint>
          <Trackpoint>
            <Time>2019-10-10T07:43:17.000Z</Time>
            <Position>
              <LatitudeDegrees>38.35038609802722930908203125</LatitudeDegrees>
              <LongitudeDegrees>-6.32348888553678989410400390625</LongitudeDegrees>
            </Position>
            <AltitudeMeters>437</AltitudeMeters>
            <DistanceMeters>NAN</DistanceMeters>
          </Trackpoint>
          <Trackpoint>
            <Time>2019-10-10T07:43:25.000Z</Time>
            <Position>
              <LatitudeDegrees>38.3499168790876865386962890625</LatitudeDegrees>
              <LongitudeDegrees>-6.32309652864933013916015625</LongitudeDegrees>
            </Position>
            <AltitudeMeters>436.600006103515625</AltitudeMeters>
            <DistanceMeters>NAN</DistanceMeters>
          </Trackpoint>
          <Trackpoint>
            <Time>2019-10-10T07:43:27.000Z</Time>
            <Position>
              <LatitudeDegrees>38.349799029529094696044921875</LatitudeDegrees>
              <LongitudeDegrees>-6.32300022058188915252685546875</LongitudeDegrees>
            </Position>
            <AltitudeMeters>436.79998779296875</AltitudeMeters>
            <DistanceMeters>NAN</DistanceMeters>
          </Trackpoint>
          <Trackpoint>
            <Time>2019-10-10T07:43:30.000Z</Time>
            <Position>
              <LatitudeDegrees>38.34962426684796810150146484375</LatitudeDegrees>
              <LongitudeDegrees>-6.32285605184733867645263671875</LongitudeDegrees>
            </Position>
            <AltitudeMeters>436.20001220703125</AltitudeMeters>
            <DistanceMeters>NAN</DistanceMeters>
          </Trackpoint>
          <Trackpoint>
            <Time>2019-10-10T07:43:38.000Z</Time>
            <Position>
              <LatitudeDegrees>38.3491663634777069091796875</LatitudeDegrees>
              <LongitudeDegrees>-6.32246998138725757598876953125</LongitudeDegrees>
            </Position>
            <AltitudeMeters>436</AltitudeMeters>
            <DistanceMeters>NAN</DistanceMeters>
          </Trackpoint>
          <Trackpoint>
            <Time>2019-10-10T07:43:40.000Z</Time>
            <Position>
              <LatitudeDegrees>38.34905295632779598236083984375</LatitudeDegrees>
              <LongitudeDegrees>-6.32237325422465801239013671875</LongitudeDegrees>
            </Position>
            <AltitudeMeters>436</AltitudeMeters>
            <DistanceMeters>NAN</DistanceMeters>
          </Trackpoint>
          <Trackpoint>
            <Time>2019-10-10T07:43:48.000Z</Time>
            <Position>
              <LatitudeDegrees>38.34859228692948818206787109375</LatitudeDegrees>
              <LongitudeDegrees>-6.32198601029813289642333984375</LongitudeDegrees>
            </Position>
            <AltitudeMeters>435.20001220703125</AltitudeMeters>
            <DistanceMeters>NAN</DistanceMeters>
          </Trackpoint>
          <Trackpoint>
            <Time>2019-10-10T07:43:50.000Z</Time>
            <Position>
              <LatitudeDegrees>38.34847770631313323974609375</LatitudeDegrees>
              <LongitudeDegrees>-6.32189179770648479461669921875</LongitudeDegrees>
            </Position>
            <AltitudeMeters>435.20001220703125</AltitudeMeters>
            <DistanceMeters>NAN</DistanceMeters>
          </Trackpoint>
          <Trackpoint>
            <Time>2019-10-10T07:43:52.000Z</Time>
            <Position>
              <LatitudeDegrees>38.3483635447919368743896484375</LatitudeDegrees>
              <LongitudeDegrees>-6.321795322000980377197265625</LongitudeDegrees>
            </Position>
            <AltitudeMeters>434.79998779296875</AltitudeMeters>
            <DistanceMeters>NAN</DistanceMeters>
          </Trackpoint>
          <Trackpoint>
            <Time>2019-10-10T07:44:00.000Z</Time>
            <Position>
              <LatitudeDegrees>38.34790614433586597442626953125</LatitudeDegrees>
              <LongitudeDegrees>-6.3214069046080112457275390625</LongitudeDegrees>
            </Position>
            <AltitudeMeters>434.600006103515625</AltitudeMeters>
            <DistanceMeters>NAN</DistanceMeters>
          </Trackpoint>
          <Trackpoint>
            <Time>2019-10-10T07:44:02.000Z</Time>
            <Position>
              <LatitudeDegrees>38.34779500029981136322021484375</LatitudeDegrees>
              <LongitudeDegrees>-6.32131177000701427459716796875</LongitudeDegrees>
            </Position>
            <AltitudeMeters>434</AltitudeMeters>
            <DistanceMeters>NAN</DistanceMeters>
          </Trackpoint>
          <Trackpoint>
            <Time>2019-10-10T07:44:04.000Z</Time>
            <Position>
              <LatitudeDegrees>38.3476831018924713134765625</LatitudeDegrees>
              <LongitudeDegrees>-6.32121571339666843414306640625</LongitudeDegrees>
            </Position>
            <AltitudeMeters>433.79998779296875</AltitudeMeters>
            <DistanceMeters>NAN</DistanceMeters>
          </Trackpoint>
          <Trackpoint>
            <Time>2019-10-10T07:44:08.000Z</Time>
            <Position>
              <LatitudeDegrees>38.3474515937268733978271484375</LatitudeDegrees>
              <LongitudeDegrees>-6.32102611474692821502685546875</LongitudeDegrees>
            </Position>
            <AltitudeMeters>433</AltitudeMeters>
            <DistanceMeters>NAN</DistanceMeters>
          </Trackpoint>
          <Trackpoint>
            <Time>2019-10-10T07:44:14.000Z</Time>
            <Position>
              <LatitudeDegrees>38.34709578193724155426025390625</LatitudeDegrees>
              <LongitudeDegrees>-6.32072805427014827728271484375</LongitudeDegrees>
            </Position>
            <AltitudeMeters>432.399993896484375</AltitudeMeters>
            <DistanceMeters>NAN</DistanceMeters>
          </Trackpoint>
          <Trackpoint>
            <Time>2019-10-10T07:44:15.000Z</Time>
            <Position>
              <LatitudeDegrees>38.3470366895198822021484375</LatitudeDegrees>
              <LongitudeDegrees>-6.3206778466701507568359375</LongitudeDegrees>
            </Position>
            <AltitudeMeters>432.20001220703125</AltitudeMeters>
            <DistanceMeters>NAN</DistanceMeters>
          </Trackpoint>
          <Trackpoint>
            <Time>2019-10-10T07:44:16.000Z</Time>
            <Position>
              <LatitudeDegrees>38.3469776809215545654296875</LatitudeDegrees>
              <LongitudeDegrees>-6.32062730379402637481689453125</LongitudeDegrees>
            </Position>
            <AltitudeMeters>431.79998779296875</AltitudeMeters>
            <DistanceMeters>NAN</DistanceMeters>
          </Trackpoint>
          <Trackpoint>
            <Time>2019-10-10T07:44:21.000Z</Time>
            <Position>
              <LatitudeDegrees>38.34668464958667755126953125</LatitudeDegrees>
              <LongitudeDegrees>-6.32038020528852939605712890625</LongitudeDegrees>
            </Position>
            <AltitudeMeters>431.20001220703125</AltitudeMeters>
            <DistanceMeters>NAN</DistanceMeters>
          </Trackpoint>
          <Trackpoint>
            <Time>2019-10-10T07:44:24.000Z</Time>
            <Position>
              <LatitudeDegrees>38.34650603123009204864501953125</LatitudeDegrees>
              <LongitudeDegrees>-6.3202297501266002655029296875</LongitudeDegrees>
            </Position>
            <AltitudeMeters>430.79998779296875</AltitudeMeters>
            <DistanceMeters>NAN</DistanceMeters>
          </Trackpoint>
          <Trackpoint>
            <Time>2019-10-10T07:44:25.000Z</Time>
            <Position>
              <LatitudeDegrees>38.34644551388919353485107421875</LatitudeDegrees>
              <LongitudeDegrees>-6.3201791234314441680908203125</LongitudeDegrees>
            </Position>
            <AltitudeMeters>430.79998779296875</AltitudeMeters>
            <DistanceMeters>NAN</DistanceMeters>
          </Trackpoint>
          <Trackpoint>
            <Time>2019-10-10T07:44:31.000Z</Time>
            <Position>
              <LatitudeDegrees>38.3460779674351215362548828125</LatitudeDegrees>
              <LongitudeDegrees>-6.3198726810514926910400390625</LongitudeDegrees>
            </Position>
            <AltitudeMeters>429.79998779296875</AltitudeMeters>
            <DistanceMeters>NAN</DistanceMeters>
          </Trackpoint>
          <Trackpoint>
            <Time>2019-10-10T07:44:34.000Z</Time>
            <Position>
              <LatitudeDegrees>38.34589415229856967926025390625</LatitudeDegrees>
              <LongitudeDegrees>-6.31971702910959720611572265625</LongitudeDegrees>
            </Position>
            <AltitudeMeters>429</AltitudeMeters>
            <DistanceMeters>NAN</DistanceMeters>
          </Trackpoint>
          <Trackpoint>
            <Time>2019-10-10T07:44:36.000Z</Time>
            <Position>
              <LatitudeDegrees>38.34577244706451892852783203125</LatitudeDegrees>
              <LongitudeDegrees>-6.3196111656725406646728515625</LongitudeDegrees>
            </Position>
            <AltitudeMeters>429</AltitudeMeters>
            <DistanceMeters>NAN</DistanceMeters>
          </Trackpoint>
          <Trackpoint>
            <Time>2019-10-10T07:44:38.000Z</Time>
            <Position>
              <LatitudeDegrees>38.34564805962145328521728515625</LatitudeDegrees>
              <LongitudeDegrees>-6.31950966082513332366943359375</LongitudeDegrees>
            </Position>
            <AltitudeMeters>428.79998779296875</AltitudeMeters>
            <DistanceMeters>NAN</DistanceMeters>
          </Trackpoint>
          <Trackpoint>
            <Time>2019-10-10T07:44:43.000Z</Time>
            <Position>
              <LatitudeDegrees>38.34533893503248691558837890625</LatitudeDegrees>
              <LongitudeDegrees>-6.31925032474100589752197265625</LongitudeDegrees>
            </Position>
            <AltitudeMeters>427.600006103515625</AltitudeMeters>
            <DistanceMeters>NAN</DistanceMeters>
          </Trackpoint>
          <Trackpoint>
            <Time>2019-10-10T07:44:45.000Z</Time>
            <Position>
              <LatitudeDegrees>38.34521538577973842620849609375</LatitudeDegrees>
              <LongitudeDegrees>-6.3191468082368373870849609375</LongitudeDegrees>
            </Position>
            <AltitudeMeters>427.600006103515625</AltitudeMeters>
            <DistanceMeters>NAN</DistanceMeters>
          </Trackpoint>
          <Trackpoint>
            <Time>2019-10-10T07:44:51.000Z</Time>
            <Position>
              <LatitudeDegrees>38.34484272636473178863525390625</LatitudeDegrees>
              <LongitudeDegrees>-6.3188360072672367095947265625</LongitudeDegrees>
            </Position>
            <AltitudeMeters>426.20001220703125</AltitudeMeters>
            <DistanceMeters>NAN</DistanceMeters>
          </Trackpoint>
          <Trackpoint>
            <Time>2019-10-10T07:44:56.000Z</Time>
            <Position>
              <LatitudeDegrees>38.3445413969457149505615234375</LatitudeDegrees>
              <LongitudeDegrees>-6.31859184242784976959228515625</LongitudeDegrees>
            </Position>
            <AltitudeMeters>427</AltitudeMeters>
            <DistanceMeters>NAN</DistanceMeters>
          </Trackpoint>
          <Trackpoint>
            <Time>2019-10-10T07:45:00.000Z</Time>
            <Position>
              <LatitudeDegrees>38.3443137444555759429931640625</LatitudeDegrees>
              <LongitudeDegrees>-6.3184269703924655914306640625</LongitudeDegrees>
            </Position>
            <AltitudeMeters>427.399993896484375</AltitudeMeters>
            <DistanceMeters>NAN</DistanceMeters>
          </Trackpoint>
          <Trackpoint>
            <Time>2019-10-10T07:45:03.000Z</Time>
            <Position>
              <LatitudeDegrees>38.34415725432336330413818359375</LatitudeDegrees>
              <LongitudeDegrees>-6.318326555192470550537109375</LongitudeDegrees>
            </Position>
            <AltitudeMeters>428.20001220703125</AltitudeMeters>
            <DistanceMeters>NAN</DistanceMeters>
          </Trackpoint>
          <Trackpoint>
            <Time>2019-10-10T07:45:06.000Z</Time>
            <Position>
              <LatitudeDegrees>38.34400772117078304290771484375</LatitudeDegrees>
              <LongitudeDegrees>-6.3182361982762813568115234375</LongitudeDegrees>
            </Position>
            <AltitudeMeters>428.399993896484375</AltitudeMeters>
            <DistanceMeters>NAN</DistanceMeters>
          </Trackpoint>
          <Trackpoint>
            <Time>2019-10-10T07:45:09.000Z</Time>
            <Position>
              <LatitudeDegrees>38.34386556409299373626708984375</LatitudeDegrees>
              <LongitudeDegrees>-6.3181584142148494720458984375</LongitudeDegrees>
            </Position>
            <AltitudeMeters>429</AltitudeMeters>
            <DistanceMeters>NAN</DistanceMeters>
          </Trackpoint>
          <Trackpoint>
            <Time>2019-10-10T07:45:11.000Z</Time>
            <Position>
              <LatitudeDegrees>38.34377319552004337310791015625</LatitudeDegrees>
              <LongitudeDegrees>-6.31811189465224742889404296875</LongitudeDegrees>
            </Position>
            <AltitudeMeters>429.20001220703125</AltitudeMeters>
            <DistanceMeters>NAN</DistanceMeters>
          </Trackpoint>
          <Trackpoint>
            <Time>2019-10-10T07:45:12.000Z</Time>
            <Position>
              <LatitudeDegrees>38.3437276817858219146728515625</LatitudeDegrees>
              <LongitudeDegrees>-6.3180910237133502960205078125</LongitudeDegrees>
            </Position>
            <AltitudeMeters>429.399993896484375</AltitudeMeters>
            <DistanceMeters>NAN</DistanceMeters>
          </Trackpoint>
          <Trackpoint>
            <Time>2019-10-10T07:45:17.000Z</Time>
            <Position>
              <LatitudeDegrees>38.3435104228556156158447265625</LatitudeDegrees>
              <LongitudeDegrees>-6.31799454800784587860107421875</LongitudeDegrees>
            </Position>
            <AltitudeMeters>429.79998779296875</AltitudeMeters>
            <DistanceMeters>NAN</DistanceMeters>
          </Trackpoint>
          <Trackpoint>
            <Time>2019-10-10T07:45:21.000Z</Time>
            <Position>
              <LatitudeDegrees>38.34334052167832851409912109375</LatitudeDegrees>
              <LongitudeDegrees>-6.3179297558963298797607421875</LongitudeDegrees>
            </Position>
            <AltitudeMeters>430.399993896484375</AltitudeMeters>
            <DistanceMeters>NAN</DistanceMeters>
          </Trackpoint>
          <Trackpoint>
            <Time>2019-10-10T07:45:28.000Z</Time>
            <Position>
              <LatitudeDegrees>38.34303927607834339141845703125</LatitudeDegrees>
              <LongitudeDegrees>-6.3178368844091892242431640625</LongitudeDegrees>
            </Position>
            <AltitudeMeters>431.399993896484375</AltitudeMeters>
            <DistanceMeters>NAN</DistanceMeters>
          </Trackpoint>
          <Trackpoint>
            <Time>2019-10-10T07:45:30.000Z</Time>
            <Position>
              <LatitudeDegrees>38.34295235574245452880859375</LatitudeDegrees>
              <LongitudeDegrees>-6.31781467236578464508056640625</LongitudeDegrees>
            </Position>
            <AltitudeMeters>431.399993896484375</AltitudeMeters>
            <DistanceMeters>NAN</DistanceMeters>
          </Trackpoint>
          <Trackpoint>
            <Time>2019-10-10T07:45:38.000Z</Time>
            <Position>
              <LatitudeDegrees>38.342604674398899078369140625</LatitudeDegrees>
              <LongitudeDegrees>-6.3177487067878246307373046875</LongitudeDegrees>
            </Position>
            <AltitudeMeters>432</AltitudeMeters>
            <DistanceMeters>NAN</DistanceMeters>
          </Trackpoint>
          <Trackpoint>
            <Time>2019-10-10T07:45:40.000Z</Time>
            <Position>
              <LatitudeDegrees>38.34251943044364452362060546875</LatitudeDegrees>
              <LongitudeDegrees>-6.31773487664759159088134765625</LongitudeDegrees>
            </Position>
            <AltitudeMeters>432.600006103515625</AltitudeMeters>
            <DistanceMeters>NAN</DistanceMeters>
          </Trackpoint>
          <Trackpoint>
            <Time>2019-10-10T07:45:49.000Z</Time>
            <Position>
              <LatitudeDegrees>38.34211952984333038330078125</LatitudeDegrees>
              <LongitudeDegrees>-6.317718364298343658447265625</LongitudeDegrees>
            </Position>
            <AltitudeMeters>433</AltitudeMeters>
            <DistanceMeters>NAN</DistanceMeters>
          </Trackpoint>
          <Trackpoint>
            <Time>2019-10-10T07:45:55.000Z</Time>
            <Position>
              <LatitudeDegrees>38.3418565057218074798583984375</LatitudeDegrees>
              <LongitudeDegrees>-6.31773403845727443695068359375</LongitudeDegrees>
            </Position>
            <AltitudeMeters>433.600006103515625</AltitudeMeters>
            <DistanceMeters>NAN</DistanceMeters>
          </Trackpoint>
          <Trackpoint>
            <Time>2019-10-10T07:46:00.000Z</Time>
            <Position>
              <LatitudeDegrees>38.34164033643901348114013671875</LatitudeDegrees>
              <LongitudeDegrees>-6.31776387803256511688232421875</LongitudeDegrees>
            </Position>
            <AltitudeMeters>434.20001220703125</AltitudeMeters>
            <DistanceMeters>NAN</DistanceMeters>
          </Trackpoint>
          <Trackpoint>
            <Time>2019-10-10T07:46:05.000Z</Time>
            <Position>
              <LatitudeDegrees>38.3414260111749172210693359375</LatitudeDegrees>
              <LongitudeDegrees>-6.317802183330059051513671875</LongitudeDegrees>
            </Position>
            <AltitudeMeters>434.600006103515625</AltitudeMeters>
            <DistanceMeters>NAN</DistanceMeters>
          </Trackpoint>
          <Trackpoint>
            <Time>2019-10-10T07:46:10.000Z</Time>
            <Position>
              <LatitudeDegrees>38.341217972338199615478515625</LatitudeDegrees>
              <LongitudeDegrees>-6.317853145301342010498046875</LongitudeDegrees>
            </Position>
            <AltitudeMeters>434.79998779296875</AltitudeMeters>
            <DistanceMeters>NAN</DistanceMeters>
          </Trackpoint>
          <Trackpoint>
            <Time>2019-10-10T07:46:19.000Z</Time>
            <Position>
              <LatitudeDegrees>38.34084170870482921600341796875</LatitudeDegrees>
              <LongitudeDegrees>-6.317974515259265899658203125</LongitudeDegrees>
            </Position>
            <AltitudeMeters>435.600006103515625</AltitudeMeters>
            <DistanceMeters>NAN</DistanceMeters>
          </Trackpoint>
          <Trackpoint>
            <Time>2019-10-10T07:46:23.000Z</Time>
            <Position>
              <LatitudeDegrees>38.3406736515462398529052734375</LatitudeDegrees>
              <LongitudeDegrees>-6.31803117692470550537109375</LongitudeDegrees>
            </Position>
            <AltitudeMeters>435.79998779296875</AltitudeMeters>
            <DistanceMeters>NAN</DistanceMeters>
          </Trackpoint>
          <Trackpoint>
            <Time>2019-10-10T07:46:35.000Z</Time>
            <Position>
              <LatitudeDegrees>38.340165205299854278564453125</LatitudeDegrees>
              <LongitudeDegrees>-6.318218596279621124267578125</LongitudeDegrees>
            </Position>
            <AltitudeMeters>436.20001220703125</AltitudeMeters>
            <DistanceMeters>NAN</DistanceMeters>
          </Trackpoint>
          <Trackpoint>
            <Time>2019-10-10T07:46:36.000Z</Time>
            <Position>
              <LatitudeDegrees>38.34012153558433055877685546875</LatitudeDegrees>
              <LongitudeDegrees>-6.31823502480983734130859375</LongitudeDegrees>
            </Position>
            <AltitudeMeters>436.20001220703125</AltitudeMeters>
            <DistanceMeters>NAN</DistanceMeters>
          </Trackpoint>
          <Trackpoint>
            <Time>2019-10-10T07:46:41.000Z</Time>
            <Position>
              <LatitudeDegrees>38.33990058861672878265380859375</LatitudeDegrees>
              <LongitudeDegrees>-6.318315826356410980224609375</LongitudeDegrees>
            </Position>
            <AltitudeMeters>437</AltitudeMeters>
            <DistanceMeters>NAN</DistanceMeters>
          </Trackpoint>
          <Trackpoint>
            <Time>2019-10-10T07:46:45.000Z</Time>
            <Position>
              <LatitudeDegrees>38.3397211320698261260986328125</LatitudeDegrees>
              <LongitudeDegrees>-6.318384893238544464111328125</LongitudeDegrees>
            </Position>
            <AltitudeMeters>436.399993896484375</AltitudeMeters>
            <DistanceMeters>NAN</DistanceMeters>
          </Trackpoint>
          <Trackpoint>
            <Time>2019-10-10T07:46:54.000Z</Time>
            <Position>
              <LatitudeDegrees>38.33927982486784458160400390625</LatitudeDegrees>
              <LongitudeDegrees>-6.31855026818811893463134765625</LongitudeDegrees>
            </Position>
            <AltitudeMeters>435.79998779296875</AltitudeMeters>
            <DistanceMeters>NAN</DistanceMeters>
          </Trackpoint>
          <Trackpoint>
            <Time>2019-10-10T07:47:04.000Z</Time>
            <Position>
              <LatitudeDegrees>38.33877322264015674591064453125</LatitudeDegrees>
              <LongitudeDegrees>-6.3187411241233348846435546875</LongitudeDegrees>
            </Position>
            <AltitudeMeters>435.79998779296875</AltitudeMeters>
            <DistanceMeters>NAN</DistanceMeters>
          </Trackpoint>
          <Trackpoint>
            <Time>2019-10-10T07:47:06.000Z</Time>
            <Position>
              <LatitudeDegrees>38.33867113105952739715576171875</LatitudeDegrees>
              <LongitudeDegrees>-6.31877708248794078826904296875</LongitudeDegrees>
            </Position>
            <AltitudeMeters>435.79998779296875</AltitudeMeters>
            <DistanceMeters>NAN</DistanceMeters>
          </Trackpoint>
          <Trackpoint>
            <Time>2019-10-10T07:47:12.000Z</Time>
            <Position>
              <LatitudeDegrees>38.3383652754127979278564453125</LatitudeDegrees>
              <LongitudeDegrees>-6.3188941776752471923828125</LongitudeDegrees>
            </Position>
            <AltitudeMeters>435.79998779296875</AltitudeMeters>
            <DistanceMeters>NAN</DistanceMeters>
          </Trackpoint>
          <Trackpoint>
            <Time>2019-10-10T07:47:16.000Z</Time>
            <Position>
              <LatitudeDegrees>38.33816369064152240753173828125</LatitudeDegrees>
              <LongitudeDegrees>-6.31896969862282276153564453125</LongitudeDegrees>
            </Position>
            <AltitudeMeters>436</AltitudeMeters>
            <DistanceMeters>NAN</DistanceMeters>
          </Trackpoint>
          <Trackpoint>
            <Time>2019-10-10T07:47:17.000Z</Time>
            <Position>
              <LatitudeDegrees>38.3381134830415248870849609375</LatitudeDegrees>
              <LongitudeDegrees>-6.31898981519043445587158203125</LongitudeDegrees>
            </Position>
            <AltitudeMeters>436</AltitudeMeters>
            <DistanceMeters>NAN</DistanceMeters>
          </Trackpoint>
          <Trackpoint>
            <Time>2019-10-10T07:47:27.000Z</Time>
            <Position>
              <LatitudeDegrees>38.33761014975607395172119140625</LatitudeDegrees>
              <LongitudeDegrees>-6.31917488761246204376220703125</LongitudeDegrees>
            </Position>
            <AltitudeMeters>436.600006103515625</AltitudeMeters>
            <DistanceMeters>NAN</DistanceMeters>
          </Trackpoint>
          <Trackpoint>
            <Time>2019-10-10T07:47:30.000Z</Time>
            <Position>
              <LatitudeDegrees>38.33746145479381084442138671875</LatitudeDegrees>
              <LongitudeDegrees>-6.31923205219209194183349609375</LongitudeDegrees>
            </Position>
            <AltitudeMeters>436.399993896484375</AltitudeMeters>
            <DistanceMeters>NAN</DistanceMeters>
          </Trackpoint>
          <Trackpoint>
            <Time>2019-10-10T07:47:36.000Z</Time>
            <Position>
              <LatitudeDegrees>38.337168507277965545654296875</LatitudeDegrees>
              <LongitudeDegrees>-6.31934009492397308349609375</LongitudeDegrees>
            </Position>
            <AltitudeMeters>437</AltitudeMeters>
            <DistanceMeters>NAN</DistanceMeters>
          </Trackpoint>
          <Trackpoint>
            <Time>2019-10-10T07:47:41.000Z</Time>
            <Position>
              <LatitudeDegrees>38.3369302935898303985595703125</LatitudeDegrees>
              <LongitudeDegrees>-6.3194307871162891387939453125</LongitudeDegrees>
            </Position>
            <AltitudeMeters>437.20001220703125</AltitudeMeters>
            <DistanceMeters>NAN</DistanceMeters>
          </Trackpoint>
          <Trackpoint>
            <Time>2019-10-10T07:47:48.000Z</Time>
            <Position>
              <LatitudeDegrees>38.33659644238650798797607421875</LatitudeDegrees>
              <LongitudeDegrees>-6.3195501454174518585205078125</LongitudeDegrees>
            </Position>
            <AltitudeMeters>438</AltitudeMeters>
            <DistanceMeters>NAN</DistanceMeters>
          </Trackpoint>
          <Trackpoint>
            <Time>2019-10-10T07:47:49.000Z</Time>
            <Position>
              <LatitudeDegrees>38.33654849790036678314208984375</LatitudeDegrees>
              <LongitudeDegrees>-6.31956615485250949859619140625</LongitudeDegrees>
            </Position>
            <AltitudeMeters>438.399993896484375</AltitudeMeters>
            <DistanceMeters>NAN</DistanceMeters>
          </Trackpoint>
          <Trackpoint>
            <Time>2019-10-10T07:47:55.000Z</Time>
            <Position>
              <LatitudeDegrees>38.33626485429704189300537109375</LatitudeDegrees>
              <LongitudeDegrees>-6.31965785287320613861083984375</LongitudeDegrees>
            </Position>
            <AltitudeMeters>439</AltitudeMeters>
            <DistanceMeters>NAN</DistanceMeters>
          </Trackpoint>
          <Trackpoint>
            <Time>2019-10-10T07:47:56.000Z</Time>
            <Position>
              <LatitudeDegrees>38.33621825091540813446044921875</LatitudeDegrees>
              <LongitudeDegrees>-6.31967076100409030914306640625</LongitudeDegrees>
            </Position>
            <AltitudeMeters>439.20001220703125</AltitudeMeters>
            <DistanceMeters>NAN</DistanceMeters>
          </Trackpoint>
          <Trackpoint>
            <Time>2019-10-10T07:47:57.000Z</Time>
            <Position>
              <LatitudeDegrees>38.33617114461958408355712890625</LatitudeDegrees>
              <LongitudeDegrees>-6.3196827471256256103515625</LongitudeDegrees>
            </Position>
            <AltitudeMeters>439.399993896484375</AltitudeMeters>
            <DistanceMeters>NAN</DistanceMeters>
          </Trackpoint>
          <Trackpoint>
            <Time>2019-10-10T07:48:06.000Z</Time>
            <Position>
              <LatitudeDegrees>38.3357702381908893585205078125</LatitudeDegrees>
              <LongitudeDegrees>-6.319791376590728759765625</LongitudeDegrees>
            </Position>
            <AltitudeMeters>440.20001220703125</AltitudeMeters>
            <DistanceMeters>NAN</DistanceMeters>
          </Trackpoint>
          <Trackpoint>
            <Time>2019-10-10T07:48:18.000Z</Time>
            <Position>
              <LatitudeDegrees>38.33524242974817752838134765625</LatitudeDegrees>
              <LongitudeDegrees>-6.319907717406749725341796875</LongitudeDegrees>
            </Position>
            <AltitudeMeters>440.399993896484375</AltitudeMeters>
            <DistanceMeters>NAN</DistanceMeters>
          </Trackpoint>
          <Trackpoint>
            <Time>2019-10-10T07:48:19.000Z</Time>
            <Position>
              <LatitudeDegrees>38.33519901148974895477294921875</LatitudeDegrees>
              <LongitudeDegrees>-6.31991685368120670318603515625</LongitudeDegrees>
            </Position>
            <AltitudeMeters>440.399993896484375</AltitudeMeters>
            <DistanceMeters>NAN</DistanceMeters>
          </Trackpoint>
          <Trackpoint>
            <Time>2019-10-10T07:48:20.000Z</Time>
            <Position>
              <LatitudeDegrees>38.33515458740293979644775390625</LatitudeDegrees>
              <LongitudeDegrees>-6.31992540322244167327880859375</LongitudeDegrees>
            </Position>
            <AltitudeMeters>440.399993896484375</AltitudeMeters>
            <DistanceMeters>NAN</DistanceMeters>
          </Trackpoint>
          <Trackpoint>
            <Time>2019-10-10T07:48:31.000Z</Time>
            <Position>
              <LatitudeDegrees>38.334657959640026092529296875</LatitudeDegrees>
              <LongitudeDegrees>-6.32000796496868133544921875</LongitudeDegrees>
            </Position>
            <AltitudeMeters>440.600006103515625</AltitudeMeters>
            <DistanceMeters>NAN</DistanceMeters>
          </Trackpoint>
          <Trackpoint>
            <Time>2019-10-10T07:48:37.000Z</Time>
            <Position>
              <LatitudeDegrees>38.33436517976224422454833984375</LatitudeDegrees>
              <LongitudeDegrees>-6.3200443424284458160400390625</LongitudeDegrees>
            </Position>
            <AltitudeMeters>440.20001220703125</AltitudeMeters>
            <DistanceMeters>NAN</DistanceMeters>
          </Trackpoint>
          <Trackpoint>
            <Time>2019-10-10T07:48:42.000Z</Time>
            <Position>
              <LatitudeDegrees>38.33410148508846759796142578125</LatitudeDegrees>
              <LongitudeDegrees>-6.32006957195699214935302734375</LongitudeDegrees>
            </Position>
            <AltitudeMeters>440.79998779296875</AltitudeMeters>
            <DistanceMeters>NAN</DistanceMeters>
          </Trackpoint>
          <Trackpoint>
            <Time>2019-10-10T07:48:48.000Z</Time>
            <Position>
              <LatitudeDegrees>38.3337662927806377410888671875</LatitudeDegrees>
              <LongitudeDegrees>-6.320097148418426513671875</LongitudeDegrees>
            </Position>
            <AltitudeMeters>440.20001220703125</AltitudeMeters>
            <DistanceMeters>NAN</DistanceMeters>
          </Trackpoint>
          <Trackpoint>
            <Time>2019-10-10T07:48:53.000Z</Time>
            <Position>
              <LatitudeDegrees>38.3334705792367458343505859375</LatitudeDegrees>
              <LongitudeDegrees>-6.32012455724179744720458984375</LongitudeDegrees>
            </Position>
            <AltitudeMeters>439.600006103515625</AltitudeMeters>
            <DistanceMeters>NAN</DistanceMeters>
          </Trackpoint>
          <Trackpoint>
            <Time>2019-10-10T07:48:54.000Z</Time>
            <Position>
              <LatitudeDegrees>38.3333896100521087646484375</LatitudeDegrees>
              <LongitudeDegrees>-6.3201355375349521636962890625</LongitudeDegrees>
            </Position>
            <AltitudeMeters>439</AltitudeMeters>
            <DistanceMeters>NAN</DistanceMeters>
          </Trackpoint>
          <Trackpoint>
            <Time>2019-10-10T07:48:57.000Z</Time>
            <Position>
              <LatitudeDegrees>38.33322540856897830963134765625</LatitudeDegrees>
              <LongitudeDegrees>-6.32015741430222988128662109375</LongitudeDegrees>
            </Position>
            <AltitudeMeters>439</AltitudeMeters>
            <DistanceMeters>NAN</DistanceMeters>
          </Trackpoint>
          <Trackpoint>
            <Time>2019-10-10T07:49:02.000Z</Time>
            <Position>
              <LatitudeDegrees>38.33290689624845981597900390625</LatitudeDegrees>
              <LongitudeDegrees>-6.3201935403048992156982421875</LongitudeDegrees>
            </Position>
            <AltitudeMeters>438.600006103515625</AltitudeMeters>
            <DistanceMeters>NAN</DistanceMeters>
          </Trackpoint>
          <Trackpoint>
            <Time>2019-10-10T07:49:03.000Z</Time>
            <Position>
              <LatitudeDegrees>38.33284042775630950927734375</LatitudeDegrees>
              <LongitudeDegrees>-6.32020116783678531646728515625</LongitudeDegrees>
            </Position>
            <AltitudeMeters>438.600006103515625</AltitudeMeters>
            <DistanceMeters>NAN</DistanceMeters>
          </Trackpoint>
          <Trackpoint>
            <Time>2019-10-10T07:49:05.000Z</Time>
            <Position>
              <LatitudeDegrees>38.33270765841007232666015625</LatitudeDegrees>
              <LongitudeDegrees>-6.32021608762443065643310546875</LongitudeDegrees>
            </Position>
            <AltitudeMeters>437.79998779296875</AltitudeMeters>
            <DistanceMeters>NAN</DistanceMeters>
          </Trackpoint>
          <Trackpoint>
            <Time>2019-10-10T07:49:09.000Z</Time>
            <Position>
              <LatitudeDegrees>38.33243348635733127593994140625</LatitudeDegrees>
              <LongitudeDegrees>-6.320249699056148529052734375</LongitudeDegrees>
            </Position>
            <AltitudeMeters>437</AltitudeMeters>
            <DistanceMeters>NAN</DistanceMeters>
          </Trackpoint>
          <Trackpoint>
            <Time>2019-10-10T07:49:12.000Z</Time>
            <Position>
              <LatitudeDegrees>38.332223184406757354736328125</LatitudeDegrees>
              <LongitudeDegrees>-6.3202810473740100860595703125</LongitudeDegrees>
            </Position>
            <AltitudeMeters>436.600006103515625</AltitudeMeters>
            <DistanceMeters>NAN</DistanceMeters>
          </Trackpoint>
          <Trackpoint>
            <Time>2019-10-10T07:49:14.000Z</Time>
            <Position>
              <LatitudeDegrees>38.33208044059574604034423828125</LatitudeDegrees>
              <LongitudeDegrees>-6.32030091248452663421630859375</LongitudeDegrees>
            </Position>
            <AltitudeMeters>436.20001220703125</AltitudeMeters>
            <DistanceMeters>NAN</DistanceMeters>
          </Trackpoint>
          <Trackpoint>
            <Time>2019-10-10T07:49:18.000Z</Time>
            <Position>
              <LatitudeDegrees>38.33179092966020107269287109375</LatitudeDegrees>
              <LongitudeDegrees>-6.32034500129520893096923828125</LongitudeDegrees>
            </Position>
            <AltitudeMeters>435.20001220703125</AltitudeMeters>
            <DistanceMeters>NAN</DistanceMeters>
          </Trackpoint>
          <Trackpoint>
            <Time>2019-10-10T07:49:23.000Z</Time>
            <Position>
              <LatitudeDegrees>38.33141676150262355804443359375</LatitudeDegrees>
              <LongitudeDegrees>-6.3204014115035533905029296875</LongitudeDegrees>
            </Position>
            <AltitudeMeters>433.79998779296875</AltitudeMeters>
            <DistanceMeters>NAN</DistanceMeters>
          </Trackpoint>
          <Trackpoint>
            <Time>2019-10-10T07:49:24.000Z</Time>
            <Position>
              <LatitudeDegrees>38.331340737640857696533203125</LatitudeDegrees>
              <LongitudeDegrees>-6.32041373290121555328369140625</LongitudeDegrees>
            </Position>
            <AltitudeMeters>433.79998779296875</AltitudeMeters>
            <DistanceMeters>NAN</DistanceMeters>
          </Trackpoint>
          <Trackpoint>
            <Time>2019-10-10T07:49:29.000Z</Time>
            <Position>
              <LatitudeDegrees>38.33094838075339794158935546875</LatitudeDegrees>
              <LongitudeDegrees>-6.320480369031429290771484375</LongitudeDegrees>
            </Position>
            <AltitudeMeters>432.600006103515625</AltitudeMeters>
            <DistanceMeters>NAN</DistanceMeters>
          </Trackpoint>
          <Trackpoint>
            <Time>2019-10-10T07:49:33.000Z</Time>
            <Position>
              <LatitudeDegrees>38.33061226643621921539306640625</LatitudeDegrees>
              <LongitudeDegrees>-6.3205325044691562652587890625</LongitudeDegrees>
            </Position>
            <AltitudeMeters>431.399993896484375</AltitudeMeters>
            <DistanceMeters>NAN</DistanceMeters>
          </Trackpoint>
          <Trackpoint>
            <Time>2019-10-10T07:49:34.000Z</Time>
            <Position>
              <LatitudeDegrees>38.33052610047161579132080078125</LatitudeDegrees>
              <LongitudeDegrees>-6.32054574787616729736328125</LongitudeDegrees>
            </Position>
            <AltitudeMeters>431.600006103515625</AltitudeMeters>
            <DistanceMeters>NAN</DistanceMeters>
          </Trackpoint>
          <Trackpoint>
            <Time>2019-10-10T07:49:36.000Z</Time>
            <Position>
              <LatitudeDegrees>38.3303491584956645965576171875</LatitudeDegrees>
              <LongitudeDegrees>-6.320574916899204254150390625</LongitudeDegrees>
            </Position>
            <AltitudeMeters>430</AltitudeMeters>
            <DistanceMeters>NAN</DistanceMeters>
          </Trackpoint>
          <Trackpoint>
            <Time>2019-10-10T07:49:38.000Z</Time>
            <Position>
              <LatitudeDegrees>38.3301697857677936553955078125</LatitudeDegrees>
              <LongitudeDegrees>-6.3206062652170658111572265625</LongitudeDegrees>
            </Position>
            <AltitudeMeters>429</AltitudeMeters>
            <DistanceMeters>NAN</DistanceMeters>
          </Trackpoint>
          <Trackpoint>
            <Time>2019-10-10T07:49:40.000Z</Time>
            <Position>
              <LatitudeDegrees>38.32998429425060749053955078125</LatitudeDegrees>
              <LongitudeDegrees>-6.32063786499202251434326171875</LongitudeDegrees>
            </Position>
            <AltitudeMeters>428</AltitudeMeters>
            <DistanceMeters>NAN</DistanceMeters>
          </Trackpoint>
          <Trackpoint>
            <Time>2019-10-10T07:49:41.000Z</Time>
            <Position>
              <LatitudeDegrees>38.32988907583057880401611328125</LatitudeDegrees>
              <LongitudeDegrees>-6.3206532038748264312744140625</LongitudeDegrees>
            </Position>
            <AltitudeMeters>427.600006103515625</AltitudeMeters>
            <DistanceMeters>NAN</DistanceMeters>
          </Trackpoint>
          <Trackpoint>
            <Time>2019-10-10T07:49:43.000Z</Time>
            <Position>
              <LatitudeDegrees>38.3296940289437770843505859375</LatitudeDegrees>
              <LongitudeDegrees>-6.32068245671689510345458984375</LongitudeDegrees>
            </Position>
            <AltitudeMeters>426.399993896484375</AltitudeMeters>
            <DistanceMeters>NAN</DistanceMeters>
          </Trackpoint>
          <Trackpoint>
            <Time>2019-10-10T07:49:45.000Z</Time>
            <Position>
              <LatitudeDegrees>38.3294925279915332794189453125</LatitudeDegrees>
              <LongitudeDegrees>-6.32071061991155147552490234375</LongitudeDegrees>
            </Position>
            <AltitudeMeters>424.600006103515625</AltitudeMeters>
            <DistanceMeters>NAN</DistanceMeters>
          </Trackpoint>
          <Trackpoint>
            <Time>2019-10-10T07:49:47.000Z</Time>
            <Position>
              <LatitudeDegrees>38.3292893506586551666259765625</LatitudeDegrees>
              <LongitudeDegrees>-6.32074230350553989410400390625</LongitudeDegrees>
            </Position>
            <AltitudeMeters>423.79998779296875</AltitudeMeters>
            <DistanceMeters>NAN</DistanceMeters>
          </Trackpoint>
          <Trackpoint>
            <Time>2019-10-10T07:49:48.000Z</Time>
            <Position>
              <LatitudeDegrees>38.329184912145137786865234375</LatitudeDegrees>
              <LongitudeDegrees>-6.32075906731188297271728515625</LongitudeDegrees>
            </Position>
            <AltitudeMeters>423.399993896484375</AltitudeMeters>
            <DistanceMeters>NAN</DistanceMeters>
          </Trackpoint>
          <Trackpoint>
            <Time>2019-10-10T07:49:50.000Z</Time>
            <Position>
              <LatitudeDegrees>38.328973688185214996337890625</LatitudeDegrees>
              <LongitudeDegrees>-6.3207940198481082916259765625</LongitudeDegrees>
            </Position>
            <AltitudeMeters>422.20001220703125</AltitudeMeters>
            <DistanceMeters>NAN</DistanceMeters>
          </Trackpoint>
          <Trackpoint>
            <Time>2019-10-10T07:49:51.000Z</Time>
            <Position>
              <LatitudeDegrees>38.32886748947203159332275390625</LatitudeDegrees>
              <LongitudeDegrees>-6.32081237621605396270751953125</LongitudeDegrees>
            </Position>
            <AltitudeMeters>422</AltitudeMeters>
            <DistanceMeters>NAN</DistanceMeters>
          </Trackpoint>
          <Trackpoint>
            <Time>2019-10-10T07:49:52.000Z</Time>
            <Position>
              <LatitudeDegrees>38.32876103930175304412841796875</LatitudeDegrees>
              <LongitudeDegrees>-6.3208288885653018951416015625</LongitudeDegrees>
            </Position>
            <AltitudeMeters>421.399993896484375</AltitudeMeters>
            <DistanceMeters>NAN</DistanceMeters>
          </Trackpoint>
          <Trackpoint>
            <Time>2019-10-10T07:49:53.000Z</Time>
            <Position>
              <LatitudeDegrees>38.32865341566503047943115234375</LatitudeDegrees>
              <LongitudeDegrees>-6.32084573619067668914794921875</LongitudeDegrees>
            </Position>
            <AltitudeMeters>420.79998779296875</AltitudeMeters>
            <DistanceMeters>NAN</DistanceMeters>
          </Trackpoint>
          <Trackpoint>
            <Time>2019-10-10T07:49:55.000Z</Time>
            <Position>
              <LatitudeDegrees>38.3283747173845767974853515625</LatitudeDegrees>
              <LongitudeDegrees>-6.3208929263055324554443359375</LongitudeDegrees>
            </Position>
            <AltitudeMeters>418.79998779296875</AltitudeMeters>
            <DistanceMeters>NAN</DistanceMeters>
          </Trackpoint>
          <Trackpoint>
            <Time>2019-10-10T07:49:57.000Z</Time>
            <Position>
              <LatitudeDegrees>38.3282147906720638275146484375</LatitudeDegrees>
              <LongitudeDegrees>-6.32091614417731761932373046875</LongitudeDegrees>
            </Position>
            <AltitudeMeters>417.399993896484375</AltitudeMeters>
            <DistanceMeters>NAN</DistanceMeters>
          </Trackpoint>
          <Trackpoint>
            <Time>2019-10-10T07:50:00.000Z</Time>
            <Position>
              <LatitudeDegrees>38.3278862200677394866943359375</LatitudeDegrees>
              <LongitudeDegrees>-6.3209707103669643402099609375</LongitudeDegrees>
            </Position>
            <AltitudeMeters>416</AltitudeMeters>
            <DistanceMeters>NAN</DistanceMeters>
          </Trackpoint>
          <Trackpoint>
            <Time>2019-10-10T07:50:01.000Z</Time>
            <Position>
              <LatitudeDegrees>38.32777784205973148345947265625</LatitudeDegrees>
              <LongitudeDegrees>-6.320988647639751434326171875</LongitudeDegrees>
            </Position>
            <AltitudeMeters>415.20001220703125</AltitudeMeters>
            <DistanceMeters>NAN</DistanceMeters>
          </Trackpoint>
          <Trackpoint>
            <Time>2019-10-10T07:50:02.000Z</Time>
            <Position>
              <LatitudeDegrees>38.32766954787075519561767578125</LatitudeDegrees>
              <LongitudeDegrees>-6.3210050761699676513671875</LongitudeDegrees>
            </Position>
            <AltitudeMeters>414.79998779296875</AltitudeMeters>
            <DistanceMeters>NAN</DistanceMeters>
          </Trackpoint>
          <Trackpoint>
            <Time>2019-10-10T07:50:04.000Z</Time>
            <Position>
              <LatitudeDegrees>38.32745932973921298980712890625</LatitudeDegrees>
              <LongitudeDegrees>-6.32103902287781238555908203125</LongitudeDegrees>
            </Position>
            <AltitudeMeters>413.79998779296875</AltitudeMeters>
            <DistanceMeters>NAN</DistanceMeters>
          </Trackpoint>
          <Trackpoint>
            <Time>2019-10-10T07:50:06.000Z</Time>
            <Position>
              <LatitudeDegrees>38.327253721654415130615234375</LatitudeDegrees>
              <LongitudeDegrees>-6.3210709579288959503173828125</LongitudeDegrees>
            </Position>
            <AltitudeMeters>413.600006103515625</AltitudeMeters>
            <DistanceMeters>NAN</DistanceMeters>
          </Trackpoint>
          <Trackpoint>
            <Time>2019-10-10T07:50:08.000Z</Time>
            <Position>
              <LatitudeDegrees>38.3270584233105182647705078125</LatitudeDegrees>
              <LongitudeDegrees>-6.32110138423740863800048828125</LongitudeDegrees>
            </Position>
            <AltitudeMeters>413.399993896484375</AltitudeMeters>
            <DistanceMeters>NAN</DistanceMeters>
          </Trackpoint>
          <Trackpoint>
            <Time>2019-10-10T07:50:11.000Z</Time>
            <Position>
              <LatitudeDegrees>38.32677670754492282867431640625</LatitudeDegrees>
              <LongitudeDegrees>-6.32114396430552005767822265625</LongitudeDegrees>
            </Position>
            <AltitudeMeters>414</AltitudeMeters>
            <DistanceMeters>NAN</DistanceMeters>
          </Trackpoint>
          <Trackpoint>
            <Time>2019-10-10T07:50:15.000Z</Time>
            <Position>
              <LatitudeDegrees>38.3264374919235706329345703125</LatitudeDegrees>
              <LongitudeDegrees>-6.321181766688823699951171875</LongitudeDegrees>
            </Position>
            <AltitudeMeters>414.399993896484375</AltitudeMeters>
            <DistanceMeters>NAN</DistanceMeters>
          </Trackpoint>
          <Trackpoint>
            <Time>2019-10-10T07:50:16.000Z</Time>
            <Position>
              <LatitudeDegrees>38.326357863843441009521484375</LatitudeDegrees>
              <LongitudeDegrees>-6.32118319161236286163330078125</LongitudeDegrees>
            </Position>
            <AltitudeMeters>415</AltitudeMeters>
            <DistanceMeters>NAN</DistanceMeters>
          </Trackpoint>
          <Trackpoint>
            <Time>2019-10-10T07:50:21.000Z</Time>
            <Position>
              <LatitudeDegrees>38.326003141701221466064453125</LatitudeDegrees>
              <LongitudeDegrees>-6.3211571238934993743896484375</LongitudeDegrees>
            </Position>
            <AltitudeMeters>415.600006103515625</AltitudeMeters>
            <DistanceMeters>NAN</DistanceMeters>
          </Trackpoint>
          <Trackpoint>
            <Time>2019-10-10T07:50:23.000Z</Time>
            <Position>
              <LatitudeDegrees>38.32587875425815582275390625</LatitudeDegrees>
              <LongitudeDegrees>-6.32113239727914333343505859375</LongitudeDegrees>
            </Position>
            <AltitudeMeters>416.399993896484375</AltitudeMeters>
            <DistanceMeters>NAN</DistanceMeters>
          </Trackpoint>
          <Trackpoint>
            <Time>2019-10-10T07:50:26.000Z</Time>
            <Position>
              <LatitudeDegrees>38.32570575177669525146484375</LatitudeDegrees>
              <LongitudeDegrees>-6.3210790045559406280517578125</LongitudeDegrees>
            </Position>
            <AltitudeMeters>416.79998779296875</AltitudeMeters>
            <DistanceMeters>NAN</DistanceMeters>
          </Trackpoint>
          <Trackpoint>
            <Time>2019-10-10T07:50:27.000Z</Time>
            <Position>
              <LatitudeDegrees>38.3256522752344608306884765625</LatitudeDegrees>
              <LongitudeDegrees>-6.32106031291186809539794921875</LongitudeDegrees>
            </Position>
            <AltitudeMeters>417</AltitudeMeters>
            <DistanceMeters>NAN</DistanceMeters>
          </Trackpoint>
          <Trackpoint>
            <Time>2019-10-10T07:50:29.000Z</Time>
            <Position>
              <LatitudeDegrees>38.3255506865680217742919921875</LatitudeDegrees>
              <LongitudeDegrees>-6.32101924158632755279541015625</LongitudeDegrees>
            </Position>
            <AltitudeMeters>417.600006103515625</AltitudeMeters>
            <DistanceMeters>NAN</DistanceMeters>
          </Trackpoint>
          <Trackpoint>
            <Time>2019-10-10T07:50:32.000Z</Time>
            <Position>
              <LatitudeDegrees>38.3254055120050907135009765625</LatitudeDegrees>
              <LongitudeDegrees>-6.32094346918165683746337890625</LongitudeDegrees>
            </Position>
            <AltitudeMeters>417.20001220703125</AltitudeMeters>
            <DistanceMeters>NAN</DistanceMeters>
          </Trackpoint>
          <Trackpoint>
            <Time>2019-10-10T07:50:34.000Z</Time>
            <Position>
              <LatitudeDegrees>38.3253149874508380889892578125</LatitudeDegrees>
              <LongitudeDegrees>-6.32089133374392986297607421875</LongitudeDegrees>
            </Position>
            <AltitudeMeters>418</AltitudeMeters>
            <DistanceMeters>NAN</DistanceMeters>
          </Trackpoint>
          <Trackpoint>
            <Time>2019-10-10T07:50:38.000Z</Time>
            <Position>
              <LatitudeDegrees>38.32515380345284938812255859375</LatitudeDegrees>
              <LongitudeDegrees>-6.3207806088030338287353515625</LongitudeDegrees>
            </Position>
            <AltitudeMeters>418.399993896484375</AltitudeMeters>
            <DistanceMeters>NAN</DistanceMeters>
          </Trackpoint>
          <Trackpoint>
            <Time>2019-10-10T07:50:39.000Z</Time>
            <Position>
              <LatitudeDegrees>38.3251161687076091766357421875</LatitudeDegrees>
              <LongitudeDegrees>-6.32075319997966289520263671875</LongitudeDegrees>
            </Position>
            <AltitudeMeters>419.20001220703125</AltitudeMeters>
            <DistanceMeters>NAN</DistanceMeters>
          </Trackpoint>
          <Trackpoint>
            <Time>2019-10-10T07:50:41.000Z</Time>
            <Position>
              <LatitudeDegrees>38.3250424079596996307373046875</LatitudeDegrees>
              <LongitudeDegrees>-6.320694275200366973876953125</LongitudeDegrees>
            </Position>
            <AltitudeMeters>419.399993896484375</AltitudeMeters>
            <DistanceMeters>NAN</DistanceMeters>
          </Trackpoint>
          <Trackpoint>
            <Time>2019-10-10T07:50:46.000Z</Time>
            <Position>
              <LatitudeDegrees>38.32486043684184551239013671875</LatitudeDegrees>
              <LongitudeDegrees>-6.32053074426949024200439453125</LongitudeDegrees>
            </Position>
            <AltitudeMeters>419.79998779296875</AltitudeMeters>
            <DistanceMeters>NAN</DistanceMeters>
          </Trackpoint>
          <Trackpoint>
            <Time>2019-10-10T07:50:51.000Z</Time>
            <Position>
              <LatitudeDegrees>38.32469053566455841064453125</LatitudeDegrees>
              <LongitudeDegrees>-6.3203534670174121856689453125</LongitudeDegrees>
            </Position>
            <AltitudeMeters>419.79998779296875</AltitudeMeters>
            <DistanceMeters>NAN</DistanceMeters>
          </Trackpoint>
          <Trackpoint>
            <Time>2019-10-10T07:50:55.000Z</Time>
            <Position>
              <LatitudeDegrees>38.324558436870574951171875</LatitudeDegrees>
              <LongitudeDegrees>-6.32021038793027400970458984375</LongitudeDegrees>
            </Position>
            <AltitudeMeters>420.20001220703125</AltitudeMeters>
            <DistanceMeters>NAN</DistanceMeters>
          </Trackpoint>
          <Trackpoint>
            <Time>2019-10-10T07:51:01.000Z</Time>
            <Position>
              <LatitudeDegrees>38.32436741329729557037353515625</LatitudeDegrees>
              <LongitudeDegrees>-6.319999583065509796142578125</LongitudeDegrees>
            </Position>
            <AltitudeMeters>420.79998779296875</AltitudeMeters>
            <DistanceMeters>NAN</DistanceMeters>
          </Trackpoint>
          <Trackpoint>
            <Time>2019-10-10T07:51:04.000Z</Time>
            <Position>
              <LatitudeDegrees>38.32427454181015491485595703125</LatitudeDegrees>
              <LongitudeDegrees>-6.31989665329456329345703125</LongitudeDegrees>
            </Position>
            <AltitudeMeters>421.20001220703125</AltitudeMeters>
            <DistanceMeters>NAN</DistanceMeters>
          </Trackpoint>
          <Trackpoint>
            <Time>2019-10-10T07:51:09.000Z</Time>
            <Position>
              <LatitudeDegrees>38.32412769086658954620361328125</LatitudeDegrees>
              <LongitudeDegrees>-6.31973697803914546966552734375</LongitudeDegrees>
            </Position>
            <AltitudeMeters>421.600006103515625</AltitudeMeters>
            <DistanceMeters>NAN</DistanceMeters>
          </Trackpoint>
          <Trackpoint>
            <Time>2019-10-10T07:51:13.000Z</Time>
            <Position>
              <LatitudeDegrees>38.32401168532669544219970703125</LatitudeDegrees>
              <LongitudeDegrees>-6.31961091421544551849365234375</LongitudeDegrees>
            </Position>
            <AltitudeMeters>422</AltitudeMeters>
            <DistanceMeters>NAN</DistanceMeters>
          </Trackpoint>
          <Trackpoint>
            <Time>2019-10-10T07:51:15.000Z</Time>
            <Position>
              <LatitudeDegrees>38.3239537663757801055908203125</LatitudeDegrees>
              <LongitudeDegrees>-6.319549977779388427734375</LongitudeDegrees>
            </Position>
            <AltitudeMeters>422.600006103515625</AltitudeMeters>
            <DistanceMeters>NAN</DistanceMeters>
          </Trackpoint>
          <Trackpoint>
            <Time>2019-10-10T07:51:23.000Z</Time>
            <Position>
              <LatitudeDegrees>38.32373357377946376800537109375</LatitudeDegrees>
              <LongitudeDegrees>-6.3193104229867458343505859375</LongitudeDegrees>
            </Position>
            <AltitudeMeters>423.20001220703125</AltitudeMeters>
            <DistanceMeters>NAN</DistanceMeters>
          </Trackpoint>
          <Trackpoint>
            <Time>2019-10-10T07:51:25.000Z</Time>
            <Position>
              <LatitudeDegrees>38.32367892377078533172607421875</LatitudeDegrees>
              <LongitudeDegrees>-6.31924915127456188201904296875</LongitudeDegrees>
            </Position>
            <AltitudeMeters>423.600006103515625</AltitudeMeters>
            <DistanceMeters>NAN</DistanceMeters>
          </Trackpoint>
          <Trackpoint>
            <Time>2019-10-10T07:51:35.000Z</Time>
            <Position>
              <LatitudeDegrees>38.32340282388031482696533203125</LatitudeDegrees>
              <LongitudeDegrees>-6.3189459778368473052978515625</LongitudeDegrees>
            </Position>
            <AltitudeMeters>424.20001220703125</AltitudeMeters>
            <DistanceMeters>NAN</DistanceMeters>
          </Trackpoint>
          <Trackpoint>
            <Time>2019-10-10T07:51:38.000Z</Time>
            <Position>
              <LatitudeDegrees>38.32331992685794830322265625</LatitudeDegrees>
              <LongitudeDegrees>-6.31885193288326263427734375</LongitudeDegrees>
            </Position>
            <AltitudeMeters>424.600006103515625</AltitudeMeters>
            <DistanceMeters>NAN</DistanceMeters>
          </Trackpoint>
          <Trackpoint>
            <Time>2019-10-10T07:51:44.000Z</Time>
            <Position>
              <LatitudeDegrees>38.32315488718450069427490234375</LatitudeDegrees>
              <LongitudeDegrees>-6.31867163814604282379150390625</LongitudeDegrees>
            </Position>
            <AltitudeMeters>424.79998779296875</AltitudeMeters>
            <DistanceMeters>NAN</DistanceMeters>
          </Trackpoint>
          <Trackpoint>
            <Time>2019-10-10T07:51:50.000Z</Time>
            <Position>
              <LatitudeDegrees>38.32299278117716312408447265625</LatitudeDegrees>
              <LongitudeDegrees>-6.31849092431366443634033203125</LongitudeDegrees>
            </Position>
            <AltitudeMeters>425.600006103515625</AltitudeMeters>
            <DistanceMeters>NAN</DistanceMeters>
          </Trackpoint>
          <Trackpoint>
            <Time>2019-10-10T07:51:56.000Z</Time>
            <Position>
              <LatitudeDegrees>38.32282799296081066131591796875</LatitudeDegrees>
              <LongitudeDegrees>-6.31831171922385692596435546875</LongitudeDegrees>
            </Position>
            <AltitudeMeters>426.20001220703125</AltitudeMeters>
            <DistanceMeters>NAN</DistanceMeters>
          </Trackpoint>
          <Trackpoint>
            <Time>2019-10-10T07:52:01.000Z</Time>
            <Position>
              <LatitudeDegrees>38.32268952392041683197021484375</LatitudeDegrees>
              <LongitudeDegrees>-6.31816101260483264923095703125</LongitudeDegrees>
            </Position>
            <AltitudeMeters>427</AltitudeMeters>
            <DistanceMeters>NAN</DistanceMeters>
          </Trackpoint>
          <Trackpoint>
            <Time>2019-10-10T07:52:07.000Z</Time>
            <Position>
              <LatitudeDegrees>38.32252331078052520751953125</LatitudeDegrees>
              <LongitudeDegrees>-6.31798365153372287750244140625</LongitudeDegrees>
            </Position>
            <AltitudeMeters>427</AltitudeMeters>
            <DistanceMeters>NAN</DistanceMeters>
          </Trackpoint>
          <Trackpoint>
            <Time>2019-10-10T07:52:13.000Z</Time>
            <Position>
              <LatitudeDegrees>38.32235910929739475250244140625</LatitudeDegrees>
              <LongitudeDegrees>-6.3178016804158687591552734375</LongitudeDegrees>
            </Position>
            <AltitudeMeters>428</AltitudeMeters>
            <DistanceMeters>NAN</DistanceMeters>
          </Trackpoint>
          <Trackpoint>
            <Time>2019-10-10T07:52:18.000Z</Time>
            <Position>
              <LatitudeDegrees>38.3222197182476520538330078125</LatitudeDegrees>
              <LongitudeDegrees>-6.31764703430235385894775390625</LongitudeDegrees>
            </Position>
            <AltitudeMeters>428.20001220703125</AltitudeMeters>
            <DistanceMeters>NAN</DistanceMeters>
          </Trackpoint>
          <Trackpoint>
            <Time>2019-10-10T07:52:28.000Z</Time>
            <Position>
              <LatitudeDegrees>38.321931548416614532470703125</LatitudeDegrees>
              <LongitudeDegrees>-6.317333467304706573486328125</LongitudeDegrees>
            </Position>
            <AltitudeMeters>428.600006103515625</AltitudeMeters>
            <DistanceMeters>NAN</DistanceMeters>
          </Trackpoint>
          <Trackpoint>
            <Time>2019-10-10T07:52:32.000Z</Time>
            <Position>
              <LatitudeDegrees>38.321818225085735321044921875</LatitudeDegrees>
              <LongitudeDegrees>-6.31720933131873607635498046875</LongitudeDegrees>
            </Position>
            <AltitudeMeters>429</AltitudeMeters>
            <DistanceMeters>NAN</DistanceMeters>
          </Trackpoint>
          <Trackpoint>
            <Time>2019-10-10T07:52:41.000Z</Time>
            <Position>
              <LatitudeDegrees>38.3215679414570331573486328125</LatitudeDegrees>
              <LongitudeDegrees>-6.31693574599921703338623046875</LongitudeDegrees>
            </Position>
            <AltitudeMeters>429.79998779296875</AltitudeMeters>
            <DistanceMeters>NAN</DistanceMeters>
          </Trackpoint>
          <Trackpoint>
            <Time>2019-10-10T07:52:42.000Z</Time>
            <Position>
              <LatitudeDegrees>38.32154086790978908538818359375</LatitudeDegrees>
              <LongitudeDegrees>-6.31690691225230693817138671875</LongitudeDegrees>
            </Position>
            <AltitudeMeters>430.399993896484375</AltitudeMeters>
            <DistanceMeters>NAN</DistanceMeters>
          </Trackpoint>
          <Trackpoint>
            <Time>2019-10-10T07:52:50.000Z</Time>
            <Position>
              <LatitudeDegrees>38.32132645882666110992431640625</LatitudeDegrees>
              <LongitudeDegrees>-6.316670961678028106689453125</LongitudeDegrees>
            </Position>
            <AltitudeMeters>430.600006103515625</AltitudeMeters>
            <DistanceMeters>NAN</DistanceMeters>
          </Trackpoint>
          <Trackpoint>
            <Time>2019-10-10T07:52:53.000Z</Time>
            <Position>
              <LatitudeDegrees>38.32124984823167324066162109375</LatitudeDegrees>
              <LongitudeDegrees>-6.3165846280753612518310546875</LongitudeDegrees>
            </Position>
            <AltitudeMeters>431.600006103515625</AltitudeMeters>
            <DistanceMeters>NAN</DistanceMeters>
          </Trackpoint>
          <Trackpoint>
            <Time>2019-10-10T07:52:58.000Z</Time>
            <Position>
              <LatitudeDegrees>38.32111942581832408905029296875</LatitudeDegrees>
              <LongitudeDegrees>-6.31644305773079395294189453125</LongitudeDegrees>
            </Position>
            <AltitudeMeters>431.79998779296875</AltitudeMeters>
            <DistanceMeters>NAN</DistanceMeters>
          </Trackpoint>
          <Trackpoint>
            <Time>2019-10-10T07:53:05.000Z</Time>
            <Position>
              <LatitudeDegrees>38.32092412747442722320556640625</LatitudeDegrees>
              <LongitudeDegrees>-6.31623032502830028533935546875</LongitudeDegrees>
            </Position>
            <AltitudeMeters>432.600006103515625</AltitudeMeters>
            <DistanceMeters>NAN</DistanceMeters>
          </Trackpoint>
          <Trackpoint>
            <Time>2019-10-10T07:53:06.000Z</Time>
            <Position>
              <LatitudeDegrees>38.32089562900364398956298828125</LatitudeDegrees>
              <LongitudeDegrees>-6.31619897671043872833251953125</LongitudeDegrees>
            </Position>
            <AltitudeMeters>432.79998779296875</AltitudeMeters>
            <DistanceMeters>NAN</DistanceMeters>
          </Trackpoint>
          <Trackpoint>
            <Time>2019-10-10T07:53:16.000Z</Time>
            <Position>
              <LatitudeDegrees>38.3206167630851268768310546875</LatitudeDegrees>
              <LongitudeDegrees>-6.3158902712166309356689453125</LongitudeDegrees>
            </Position>
            <AltitudeMeters>433.399993896484375</AltitudeMeters>
            <DistanceMeters>NAN</DistanceMeters>
          </Trackpoint>
          <Trackpoint>
            <Time>2019-10-10T07:53:21.000Z</Time>
            <Position>
              <LatitudeDegrees>38.32047033123672008514404296875</LatitudeDegrees>
              <LongitudeDegrees>-6.31573998369276523590087890625</LongitudeDegrees>
            </Position>
            <AltitudeMeters>433.79998779296875</AltitudeMeters>
            <DistanceMeters>NAN</DistanceMeters>
          </Trackpoint>
          <Trackpoint>
            <Time>2019-10-10T07:53:27.000Z</Time>
            <Position>
              <LatitudeDegrees>38.32029707729816436767578125</LatitudeDegrees>
              <LongitudeDegrees>-6.3155613653361797332763671875</LongitudeDegrees>
            </Position>
            <AltitudeMeters>434.20001220703125</AltitudeMeters>
            <DistanceMeters>NAN</DistanceMeters>
          </Trackpoint>
          <Trackpoint>
            <Time>2019-10-10T07:53:33.000Z</Time>
            <Position>
              <LatitudeDegrees>38.320119380950927734375</LatitudeDegrees>
              <LongitudeDegrees>-6.3153886981308460235595703125</LongitudeDegrees>
            </Position>
            <AltitudeMeters>435</AltitudeMeters>
            <DistanceMeters>NAN</DistanceMeters>
          </Trackpoint>
          <Trackpoint>
            <Time>2019-10-10T07:53:38.000Z</Time>
            <Position>
              <LatitudeDegrees>38.3199723623692989349365234375</LatitudeDegrees>
              <LongitudeDegrees>-6.315249390900135040283203125</LongitudeDegrees>
            </Position>
            <AltitudeMeters>435.79998779296875</AltitudeMeters>
            <DistanceMeters>NAN</DistanceMeters>
          </Trackpoint>
          <Trackpoint>
            <Time>2019-10-10T07:53:42.000Z</Time>
            <Position>
              <LatitudeDegrees>38.31985526718199253082275390625</LatitudeDegrees>
              <LongitudeDegrees>-6.31513841450214385986328125</LongitudeDegrees>
            </Position>
            <AltitudeMeters>436</AltitudeMeters>
            <DistanceMeters>NAN</DistanceMeters>
          </Trackpoint>
          <Trackpoint>
            <Time>2019-10-10T07:53:47.000Z</Time>
            <Position>
              <LatitudeDegrees>38.31970338709652423858642578125</LatitudeDegrees>
              <LongitudeDegrees>-6.31500891409814357757568359375</LongitudeDegrees>
            </Position>
            <AltitudeMeters>436.600006103515625</AltitudeMeters>
            <DistanceMeters>NAN</DistanceMeters>
          </Trackpoint>
          <Trackpoint>
            <Time>2019-10-10T07:53:55.000Z</Time>
            <Position>
              <LatitudeDegrees>38.3194570429623126983642578125</LatitudeDegrees>
              <LongitudeDegrees>-6.31479433737695217132568359375</LongitudeDegrees>
            </Position>
            <AltitudeMeters>437.20001220703125</AltitudeMeters>
            <DistanceMeters>NAN</DistanceMeters>
          </Trackpoint>
          <Trackpoint>
            <Time>2019-10-10T07:53:58.000Z</Time>
            <Position>
              <LatitudeDegrees>38.31936408765614032745361328125</LatitudeDegrees>
              <LongitudeDegrees>-6.31471722386777400970458984375</LongitudeDegrees>
            </Position>
            <AltitudeMeters>437.399993896484375</AltitudeMeters>
            <DistanceMeters>NAN</DistanceMeters>
          </Trackpoint>
          <Trackpoint>
            <Time>2019-10-10T07:54:04.000Z</Time>
            <Position>
              <LatitudeDegrees>38.319175243377685546875</LatitudeDegrees>
              <LongitudeDegrees>-6.314561404287815093994140625</LongitudeDegrees>
            </Position>
            <AltitudeMeters>438.20001220703125</AltitudeMeters>
            <DistanceMeters>NAN</DistanceMeters>
          </Trackpoint>
          <Trackpoint>
            <Time>2019-10-10T07:54:12.000Z</Time>
            <Position>
              <LatitudeDegrees>38.31890190951526165008544921875</LatitudeDegrees>
              <LongitudeDegrees>-6.31435160525143146514892578125</LongitudeDegrees>
            </Position>
            <AltitudeMeters>438.600006103515625</AltitudeMeters>
            <DistanceMeters>NAN</DistanceMeters>
          </Trackpoint>
          <Trackpoint>
            <Time>2019-10-10T07:54:21.000Z</Time>
            <Position>
              <LatitudeDegrees>38.318523466587066650390625</LatitudeDegrees>
              <LongitudeDegrees>-6.3140811212360858917236328125</LongitudeDegrees>
            </Position>
            <AltitudeMeters>438.20001220703125</AltitudeMeters>
            <DistanceMeters>NAN</DistanceMeters>
          </Trackpoint>
          <Trackpoint>
            <Time>2019-10-10T07:54:28.000Z</Time>
            <Position>
              <LatitudeDegrees>38.31818617880344390869140625</LatitudeDegrees>
              <LongitudeDegrees>-6.3138571567833423614501953125</LongitudeDegrees>
            </Position>
            <AltitudeMeters>437.600006103515625</AltitudeMeters>
            <DistanceMeters>NAN</DistanceMeters>
          </Trackpoint>
          <Trackpoint>
            <Time>2019-10-10T07:54:33.000Z</Time>
            <Position>
              <LatitudeDegrees>38.3179436065256595611572265625</LatitudeDegrees>
              <LongitudeDegrees>-6.3136881776154041290283203125</LongitudeDegrees>
            </Position>
            <AltitudeMeters>437.399993896484375</AltitudeMeters>
            <DistanceMeters>NAN</DistanceMeters>
          </Trackpoint>
          <Trackpoint>
            <Time>2019-10-10T07:54:38.000Z</Time>
            <Position>
              <LatitudeDegrees>38.3177005313336849212646484375</LatitudeDegrees>
              <LongitudeDegrees>-6.31353034637868404388427734375</LongitudeDegrees>
            </Position>
            <AltitudeMeters>437.600006103515625</AltitudeMeters>
            <DistanceMeters>NAN</DistanceMeters>
          </Trackpoint>
          <Trackpoint>
            <Time>2019-10-10T07:54:43.000Z</Time>
            <Position>
              <LatitudeDegrees>38.31745854578912258148193359375</LatitudeDegrees>
              <LongitudeDegrees>-6.31337746046483516693115234375</LongitudeDegrees>
            </Position>
            <AltitudeMeters>437.600006103515625</AltitudeMeters>
            <DistanceMeters>NAN</DistanceMeters>
          </Trackpoint>
          <Trackpoint>
            <Time>2019-10-10T07:54:52.000Z</Time>
            <Position>
              <LatitudeDegrees>38.31705101765692234039306640625</LatitudeDegrees>
              <LongitudeDegrees>-6.31312265060842037200927734375</LongitudeDegrees>
            </Position>
            <AltitudeMeters>439.399993896484375</AltitudeMeters>
            <DistanceMeters>NAN</DistanceMeters>
          </Trackpoint>
          <Trackpoint>
            <Time>2019-10-10T07:54:59.000Z</Time>
            <Position>
              <LatitudeDegrees>38.31674105487763881683349609375</LatitudeDegrees>
              <LongitudeDegrees>-6.3129391707479953765869140625</LongitudeDegrees>
            </Position>
            <AltitudeMeters>439.399993896484375</AltitudeMeters>
            <DistanceMeters>NAN</DistanceMeters>
          </Trackpoint>
          <Trackpoint>
            <Time>2019-10-10T07:55:00.000Z</Time>
            <Position>
              <LatitudeDegrees>38.31669461913406848907470703125</LatitudeDegrees>
              <LongitudeDegrees>-6.31291578523814678192138671875</LongitudeDegrees>
            </Position>
            <AltitudeMeters>440.399993896484375</AltitudeMeters>
            <DistanceMeters>NAN</DistanceMeters>
          </Trackpoint>
          <Trackpoint>
            <Time>2019-10-10T07:55:02.000Z</Time>
            <Position>
              <LatitudeDegrees>38.31659965217113494873046875</LatitudeDegrees>
              <LongitudeDegrees>-6.31286666728556156158447265625</LongitudeDegrees>
            </Position>
            <AltitudeMeters>440.399993896484375</AltitudeMeters>
            <DistanceMeters>NAN</DistanceMeters>
          </Trackpoint>
          <Trackpoint>
            <Time>2019-10-10T07:55:11.000Z</Time>
            <Position>
              <LatitudeDegrees>38.3161537349224090576171875</LatitudeDegrees>
              <LongitudeDegrees>-6.31271378137171268463134765625</LongitudeDegrees>
            </Position>
            <AltitudeMeters>440</AltitudeMeters>
            <DistanceMeters>NAN</DistanceMeters>
          </Trackpoint>
          <Trackpoint>
            <Time>2019-10-10T07:55:18.000Z</Time>
            <Position>
              <LatitudeDegrees>38.31576724536716938018798828125</LatitudeDegrees>
              <LongitudeDegrees>-6.3126800023019313812255859375</LongitudeDegrees>
            </Position>
            <AltitudeMeters>439.79998779296875</AltitudeMeters>
            <DistanceMeters>NAN</DistanceMeters>
          </Trackpoint>
          <Trackpoint>
            <Time>2019-10-10T07:55:19.000Z</Time>
            <Position>
              <LatitudeDegrees>38.31571024842560291290283203125</LatitudeDegrees>
              <LongitudeDegrees>-6.31268008612096309661865234375</LongitudeDegrees>
            </Position>
            <AltitudeMeters>439.399993896484375</AltitudeMeters>
            <DistanceMeters>NAN</DistanceMeters>
          </Trackpoint>
          <Trackpoint>
            <Time>2019-10-10T07:55:26.000Z</Time>
            <Position>
              <LatitudeDegrees>38.3152784965932369232177734375</LatitudeDegrees>
              <LongitudeDegrees>-6.31271813996136188507080078125</LongitudeDegrees>
            </Position>
            <AltitudeMeters>437.79998779296875</AltitudeMeters>
            <DistanceMeters>NAN</DistanceMeters>
          </Trackpoint>
          <Trackpoint>
            <Time>2019-10-10T07:55:31.000Z</Time>
            <Position>
              <LatitudeDegrees>38.31493534147739410400390625</LatitudeDegrees>
              <LongitudeDegrees>-6.3127644918859004974365234375</LongitudeDegrees>
            </Position>
            <AltitudeMeters>437.399993896484375</AltitudeMeters>
            <DistanceMeters>NAN</DistanceMeters>
          </Trackpoint>
          <Trackpoint>
            <Time>2019-10-10T07:55:32.000Z</Time>
            <Position>
              <LatitudeDegrees>38.31486501730978488922119140625</LatitudeDegrees>
              <LongitudeDegrees>-6.3127755559980869293212890625</LongitudeDegrees>
            </Position>
            <AltitudeMeters>436.79998779296875</AltitudeMeters>
            <DistanceMeters>NAN</DistanceMeters>
          </Trackpoint>
          <Trackpoint>
            <Time>2019-10-10T07:55:34.000Z</Time>
            <Position>
              <LatitudeDegrees>38.314721770584583282470703125</LatitudeDegrees>
              <LongitudeDegrees>-6.3127909786999225616455078125</LongitudeDegrees>
            </Position>
            <AltitudeMeters>436.20001220703125</AltitudeMeters>
            <DistanceMeters>NAN</DistanceMeters>
          </Trackpoint>
          <Trackpoint>
            <Time>2019-10-10T07:55:36.000Z</Time>
            <Position>
              <LatitudeDegrees>38.31458053551614284515380859375</LatitudeDegrees>
              <LongitudeDegrees>-6.3128114305436611175537109375</LongitudeDegrees>
            </Position>
            <AltitudeMeters>435.79998779296875</AltitudeMeters>
            <DistanceMeters>NAN</DistanceMeters>
          </Trackpoint>
          <Trackpoint>
            <Time>2019-10-10T07:55:42.000Z</Time>
            <Position>
              <LatitudeDegrees>38.3141660504043102264404296875</LatitudeDegrees>
              <LongitudeDegrees>-6.3128672540187835693359375</LongitudeDegrees>
            </Position>
            <AltitudeMeters>435.79998779296875</AltitudeMeters>
            <DistanceMeters>NAN</DistanceMeters>
          </Trackpoint>
          <Trackpoint>
            <Time>2019-10-10T07:55:45.000Z</Time>
            <Position>
              <LatitudeDegrees>38.31396781839430332183837890625</LatitudeDegrees>
              <LongitudeDegrees>-6.31289131008088588714599609375</LongitudeDegrees>
            </Position>
            <AltitudeMeters>436.399993896484375</AltitudeMeters>
            <DistanceMeters>NAN</DistanceMeters>
          </Trackpoint>
          <Trackpoint>
            <Time>2019-10-10T07:55:46.000Z</Time>
            <Position>
              <LatitudeDegrees>38.31390327773988246917724609375</LatitudeDegrees>
              <LongitudeDegrees>-6.31290036253631114959716796875</LongitudeDegrees>
            </Position>
            <AltitudeMeters>436.20001220703125</AltitudeMeters>
            <DistanceMeters>NAN</DistanceMeters>
          </Trackpoint>
          <Trackpoint>
            <Time>2019-10-10T07:55:49.000Z</Time>
            <Position>
              <LatitudeDegrees>38.313719294965267181396484375</LatitudeDegrees>
              <LongitudeDegrees>-6.312922574579715728759765625</LongitudeDegrees>
            </Position>
            <AltitudeMeters>437</AltitudeMeters>
            <DistanceMeters>NAN</DistanceMeters>
          </Trackpoint>
          <Trackpoint>
            <Time>2019-10-10T07:55:51.000Z</Time>
            <Position>
              <LatitudeDegrees>38.3136002719402313232421875</LatitudeDegrees>
              <LongitudeDegrees>-6.312936656177043914794921875</LongitudeDegrees>
            </Position>
            <AltitudeMeters>436.600006103515625</AltitudeMeters>
            <DistanceMeters>NAN</DistanceMeters>
          </Trackpoint>
          <Trackpoint>
            <Time>2019-10-10T07:55:54.000Z</Time>
            <Position>
              <LatitudeDegrees>38.3134277723729610443115234375</LatitudeDegrees>
              <LongitudeDegrees>-6.312960125505924224853515625</LongitudeDegrees>
            </Position>
            <AltitudeMeters>437.20001220703125</AltitudeMeters>
            <DistanceMeters>NAN</DistanceMeters>
          </Trackpoint>
          <Trackpoint>
            <Time>2019-10-10T07:55:57.000Z</Time>
            <Position>
              <LatitudeDegrees>38.3132594637572765350341796875</LatitudeDegrees>
              <LongitudeDegrees>-6.31298015825450420379638671875</LongitudeDegrees>
            </Position>
            <AltitudeMeters>437.79998779296875</AltitudeMeters>
            <DistanceMeters>NAN</DistanceMeters>
          </Trackpoint>
          <Trackpoint>
            <Time>2019-10-10T07:56:00.000Z</Time>
            <Position>
              <LatitudeDegrees>38.31309878267347812652587890625</LatitudeDegrees>
              <LongitudeDegrees>-6.31299776025116443634033203125</LongitudeDegrees>
            </Position>
            <AltitudeMeters>438</AltitudeMeters>
            <DistanceMeters>NAN</DistanceMeters>
          </Trackpoint>
          <Trackpoint>
            <Time>2019-10-10T07:56:10.000Z</Time>
            <Position>
              <LatitudeDegrees>38.312578685581684112548828125</LatitudeDegrees>
              <LongitudeDegrees>-6.31306448020040988922119140625</LongitudeDegrees>
            </Position>
            <AltitudeMeters>438.399993896484375</AltitudeMeters>
            <DistanceMeters>NAN</DistanceMeters>
          </Trackpoint>
          <Trackpoint>
            <Time>2019-10-10T07:56:15.000Z</Time>
            <Position>
              <LatitudeDegrees>38.3123250491917133331298828125</LatitudeDegrees>
              <LongitudeDegrees>-6.313101947307586669921875</LongitudeDegrees>
            </Position>
            <AltitudeMeters>439.20001220703125</AltitudeMeters>
            <DistanceMeters>NAN</DistanceMeters>
          </Trackpoint>
          <Trackpoint>
            <Time>2019-10-10T07:56:19.000Z</Time>
            <Position>
              <LatitudeDegrees>38.3121222071349620819091796875</LatitudeDegrees>
              <LongitudeDegrees>-6.31313270889222621917724609375</LongitudeDegrees>
            </Position>
            <AltitudeMeters>438.600006103515625</AltitudeMeters>
            <DistanceMeters>NAN</DistanceMeters>
          </Trackpoint>
          <Trackpoint>
            <Time>2019-10-10T07:56:27.000Z</Time>
            <Position>
              <LatitudeDegrees>38.31172381527721881866455078125</LatitudeDegrees>
              <LongitudeDegrees>-6.313185431063175201416015625</LongitudeDegrees>
            </Position>
            <AltitudeMeters>439.79998779296875</AltitudeMeters>
            <DistanceMeters>NAN</DistanceMeters>
          </Trackpoint>
          <Trackpoint>
            <Time>2019-10-10T07:56:28.000Z</Time>
            <Position>
              <LatitudeDegrees>38.31167218275368213653564453125</LatitudeDegrees>
              <LongitudeDegrees>-6.3131896220147609710693359375</LongitudeDegrees>
            </Position>
            <AltitudeMeters>440.20001220703125</AltitudeMeters>
            <DistanceMeters>NAN</DistanceMeters>
          </Trackpoint>
          <Trackpoint>
            <Time>2019-10-10T07:56:30.000Z</Time>
            <Position>
              <LatitudeDegrees>38.3115690015256404876708984375</LatitudeDegrees>
              <LongitudeDegrees>-6.3132016919553279876708984375</LongitudeDegrees>
            </Position>
            <AltitudeMeters>440.20001220703125</AltitudeMeters>
            <DistanceMeters>NAN</DistanceMeters>
          </Trackpoint>
          <Trackpoint>
            <Time>2019-10-10T07:56:33.000Z</Time>
            <Position>
              <LatitudeDegrees>38.31141988746821880340576171875</LatitudeDegrees>
              <LongitudeDegrees>-6.31322222761809825897216796875</LongitudeDegrees>
            </Position>
            <AltitudeMeters>441</AltitudeMeters>
            <DistanceMeters>NAN</DistanceMeters>
          </Trackpoint>
          <Trackpoint>
            <Time>2019-10-10T07:56:35.000Z</Time>
            <Position>
              <LatitudeDegrees>38.3113242499530315399169921875</LatitudeDegrees>
              <LongitudeDegrees>-6.313236393034458160400390625</LongitudeDegrees>
            </Position>
            <AltitudeMeters>441.399993896484375</AltitudeMeters>
            <DistanceMeters>NAN</DistanceMeters>
          </Trackpoint>
          <Trackpoint>
            <Time>2019-10-10T07:56:37.000Z</Time>
            <Position>
              <LatitudeDegrees>38.31122861243784427642822265625</LatitudeDegrees>
              <LongitudeDegrees>-6.3132459484040737152099609375</LongitudeDegrees>
            </Position>
            <AltitudeMeters>442.20001220703125</AltitudeMeters>
            <DistanceMeters>NAN</DistanceMeters>
          </Trackpoint>
          <Trackpoint>
            <Time>2019-10-10T07:56:40.000Z</Time>
            <Position>
              <LatitudeDegrees>38.3110878802835941314697265625</LatitudeDegrees>
              <LongitudeDegrees>-6.31326044909656047821044921875</LongitudeDegrees>
            </Position>
            <AltitudeMeters>442</AltitudeMeters>
            <DistanceMeters>NAN</DistanceMeters>
          </Trackpoint>
          <Trackpoint>
            <Time>2019-10-10T07:56:44.000Z</Time>
            <Position>
              <LatitudeDegrees>38.310896940529346466064453125</LatitudeDegrees>
              <LongitudeDegrees>-6.3132714293897151947021484375</LongitudeDegrees>
            </Position>
            <AltitudeMeters>442</AltitudeMeters>
            <DistanceMeters>NAN</DistanceMeters>
          </Trackpoint>
          <Trackpoint>
            <Time>2019-10-10T07:56:46.000Z</Time>
            <Position>
              <LatitudeDegrees>38.31080415286123752593994140625</LatitudeDegrees>
              <LongitudeDegrees>-6.31327318958938121795654296875</LongitudeDegrees>
            </Position>
            <AltitudeMeters>442.600006103515625</AltitudeMeters>
            <DistanceMeters>NAN</DistanceMeters>
          </Trackpoint>
          <Trackpoint>
            <Time>2019-10-10T07:56:48.000Z</Time>
            <Position>
              <LatitudeDegrees>38.3107137121260166168212890625</LatitudeDegrees>
              <LongitudeDegrees>-6.31327503360807895660400390625</LongitudeDegrees>
            </Position>
            <AltitudeMeters>442.79998779296875</AltitudeMeters>
            <DistanceMeters>NAN</DistanceMeters>
          </Trackpoint>
          <Trackpoint>
            <Time>2019-10-10T07:56:59.000Z</Time>
            <Position>
              <LatitudeDegrees>38.310226388275623321533203125</LatitudeDegrees>
              <LongitudeDegrees>-6.31323672831058502197265625</LongitudeDegrees>
            </Position>
            <AltitudeMeters>443.399993896484375</AltitudeMeters>
            <DistanceMeters>NAN</DistanceMeters>
          </Trackpoint>
          <Trackpoint>
            <Time>2019-10-10T07:57:03.000Z</Time>
            <Position>
              <LatitudeDegrees>38.31005036830902099609375</LatitudeDegrees>
              <LongitudeDegrees>-6.313212253153324127197265625</LongitudeDegrees>
            </Position>
            <AltitudeMeters>444</AltitudeMeters>
            <DistanceMeters>NAN</DistanceMeters>
          </Trackpoint>
          <Trackpoint>
            <Time>2019-10-10T07:57:10.000Z</Time>
            <Position>
              <LatitudeDegrees>38.309744261205196380615234375</LatitudeDegrees>
              <LongitudeDegrees>-6.313162632286548614501953125</LongitudeDegrees>
            </Position>
            <AltitudeMeters>444.20001220703125</AltitudeMeters>
            <DistanceMeters>NAN</DistanceMeters>
          </Trackpoint>
          <Trackpoint>
            <Time>2019-10-10T07:57:16.000Z</Time>
            <Position>
              <LatitudeDegrees>38.309482075273990631103515625</LatitudeDegrees>
              <LongitudeDegrees>-6.31313187070190906524658203125</LongitudeDegrees>
            </Position>
            <AltitudeMeters>445.20001220703125</AltitudeMeters>
            <DistanceMeters>NAN</DistanceMeters>
          </Trackpoint>
          <Trackpoint>
            <Time>2019-10-10T07:57:21.000Z</Time>
            <Position>
              <LatitudeDegrees>38.309271521866321563720703125</LatitudeDegrees>
              <LongitudeDegrees>-6.31310421042144298553466796875</LongitudeDegrees>
            </Position>
            <AltitudeMeters>445.79998779296875</AltitudeMeters>
            <DistanceMeters>NAN</DistanceMeters>
          </Trackpoint>
          <Trackpoint>
            <Time>2019-10-10T07:57:25.000Z</Time>
            <Position>
              <LatitudeDegrees>38.30911302007734775543212890625</LatitudeDegrees>
              <LongitudeDegrees>-6.31308811716735363006591796875</LongitudeDegrees>
            </Position>
            <AltitudeMeters>446.20001220703125</AltitudeMeters>
            <DistanceMeters>NAN</DistanceMeters>
          </Trackpoint>
          <Trackpoint>
            <Time>2019-10-10T07:57:30.000Z</Time>
            <Position>
              <LatitudeDegrees>38.30892761237919330596923828125</LatitudeDegrees>
              <LongitudeDegrees>-6.31306146271526813507080078125</LongitudeDegrees>
            </Position>
            <AltitudeMeters>446.600006103515625</AltitudeMeters>
            <DistanceMeters>NAN</DistanceMeters>
          </Trackpoint>
          <Trackpoint>
            <Time>2019-10-10T07:57:33.000Z</Time>
            <Position>
              <LatitudeDegrees>38.3088160492479801177978515625</LatitudeDegrees>
              <LongitudeDegrees>-6.3130444474518299102783203125</LongitudeDegrees>
            </Position>
            <AltitudeMeters>447.399993896484375</AltitudeMeters>
            <DistanceMeters>NAN</DistanceMeters>
          </Trackpoint>
          <Trackpoint>
            <Time>2019-10-10T07:57:40.000Z</Time>
            <Position>
              <LatitudeDegrees>38.3085545338690280914306640625</LatitudeDegrees>
              <LongitudeDegrees>-6.3130139373242855072021484375</LongitudeDegrees>
            </Position>
            <AltitudeMeters>448.399993896484375</AltitudeMeters>
            <DistanceMeters>NAN</DistanceMeters>
          </Trackpoint>
          <Trackpoint>
            <Time>2019-10-10T07:57:44.000Z</Time>
            <Position>
              <LatitudeDegrees>38.30840148031711578369140625</LatitudeDegrees>
              <LongitudeDegrees>-6.31299407221376895904541015625</LongitudeDegrees>
            </Position>
            <AltitudeMeters>448.600006103515625</AltitudeMeters>
            <DistanceMeters>NAN</DistanceMeters>
          </Trackpoint>
          <Trackpoint>
            <Time>2019-10-10T07:57:45.000Z</Time>
            <Position>
              <LatitudeDegrees>38.3083644323050975799560546875</LatitudeDegrees>
              <LongitudeDegrees>-6.31298988126218318939208984375</LongitudeDegrees>
            </Position>
            <AltitudeMeters>448.79998779296875</AltitudeMeters>
            <DistanceMeters>NAN</DistanceMeters>
          </Trackpoint>
          <Trackpoint>
            <Time>2019-10-10T07:57:51.000Z</Time>
            <Position>
              <LatitudeDegrees>38.3081387914717197418212890625</LatitudeDegrees>
              <LongitudeDegrees>-6.3129673339426517486572265625</LongitudeDegrees>
            </Position>
            <AltitudeMeters>449.399993896484375</AltitudeMeters>
            <DistanceMeters>NAN</DistanceMeters>
          </Trackpoint>
          <Trackpoint>
            <Time>2019-10-10T07:57:54.000Z</Time>
            <Position>
              <LatitudeDegrees>38.30803443677723407745361328125</LatitudeDegrees>
              <LongitudeDegrees>-6.3129495643079280853271484375</LongitudeDegrees>
            </Position>
            <AltitudeMeters>449.79998779296875</AltitudeMeters>
            <DistanceMeters>NAN</DistanceMeters>
          </Trackpoint>
          <Trackpoint>
            <Time>2019-10-10T07:57:59.000Z</Time>
            <Position>
              <LatitudeDegrees>38.30784500576555728912353515625</LatitudeDegrees>
              <LongitudeDegrees>-6.31291888654232025146484375</LongitudeDegrees>
            </Position>
            <AltitudeMeters>450.399993896484375</AltitudeMeters>
            <DistanceMeters>NAN</DistanceMeters>
          </Trackpoint>
          <Trackpoint>
            <Time>2019-10-10T07:58:01.000Z</Time>
            <Position>
              <LatitudeDegrees>38.3077659644186496734619140625</LatitudeDegrees>
              <LongitudeDegrees>-6.312909834086894989013671875</LongitudeDegrees>
            </Position>
            <AltitudeMeters>451</AltitudeMeters>
            <DistanceMeters>NAN</DistanceMeters>
          </Trackpoint>
          <Trackpoint>
            <Time>2019-10-10T07:58:08.000Z</Time>
            <Position>
              <LatitudeDegrees>38.30748726613819599151611328125</LatitudeDegrees>
              <LongitudeDegrees>-6.31286549381911754608154296875</LongitudeDegrees>
            </Position>
            <AltitudeMeters>451.399993896484375</AltitudeMeters>
            <DistanceMeters>NAN</DistanceMeters>
          </Trackpoint>
          <Trackpoint>
            <Time>2019-10-10T07:58:10.000Z</Time>
            <Position>
              <LatitudeDegrees>38.30740797333419322967529296875</LatitudeDegrees>
              <LongitudeDegrees>-6.312850154936313629150390625</LongitudeDegrees>
            </Position>
            <AltitudeMeters>452</AltitudeMeters>
            <DistanceMeters>NAN</DistanceMeters>
          </Trackpoint>
          <Trackpoint>
            <Time>2019-10-10T07:58:17.000Z</Time>
            <Position>
              <LatitudeDegrees>38.3071299456059932708740234375</LatitudeDegrees>
              <LongitudeDegrees>-6.312811933457851409912109375</LongitudeDegrees>
            </Position>
            <AltitudeMeters>453</AltitudeMeters>
            <DistanceMeters>NAN</DistanceMeters>
          </Trackpoint>
          <Trackpoint>
            <Time>2019-10-10T07:58:18.000Z</Time>
            <Position>
              <LatitudeDegrees>38.30709348432719707489013671875</LatitudeDegrees>
              <LongitudeDegrees>-6.3128087483346462249755859375</LongitudeDegrees>
            </Position>
            <AltitudeMeters>453.20001220703125</AltitudeMeters>
            <DistanceMeters>NAN</DistanceMeters>
          </Trackpoint>
          <Trackpoint>
            <Time>2019-10-10T07:58:27.000Z</Time>
            <Position>
              <LatitudeDegrees>38.30675938166677951812744140625</LatitudeDegrees>
              <LongitudeDegrees>-6.31276977248489856719970703125</LongitudeDegrees>
            </Position>
            <AltitudeMeters>454</AltitudeMeters>
            <DistanceMeters>NAN</DistanceMeters>
          </Trackpoint>
          <Trackpoint>
            <Time>2019-10-10T07:58:29.000Z</Time>
            <Position>
              <LatitudeDegrees>38.306686878204345703125</LatitudeDegrees>
              <LongitudeDegrees>-6.31275753490626811981201171875</LongitudeDegrees>
            </Position>
            <AltitudeMeters>454.20001220703125</AltitudeMeters>
            <DistanceMeters>NAN</DistanceMeters>
          </Trackpoint>
          <Trackpoint>
            <Time>2019-10-10T07:58:38.000Z</Time>
            <Position>
              <LatitudeDegrees>38.3063534460961818695068359375</LatitudeDegrees>
              <LongitudeDegrees>-6.3127088360488414764404296875</LongitudeDegrees>
            </Position>
            <AltitudeMeters>455</AltitudeMeters>
            <DistanceMeters>NAN</DistanceMeters>
          </Trackpoint>
          <Trackpoint>
            <Time>2019-10-10T07:58:41.000Z</Time>
            <Position>
              <LatitudeDegrees>38.30624624155461788177490234375</LatitudeDegrees>
              <LongitudeDegrees>-6.3126910664141178131103515625</LongitudeDegrees>
            </Position>
            <AltitudeMeters>455.20001220703125</AltitudeMeters>
            <DistanceMeters>NAN</DistanceMeters>
          </Trackpoint>
          <Trackpoint>
            <Time>2019-10-10T07:58:46.000Z</Time>
            <Position>
              <LatitudeDegrees>38.30606787465512752532958984375</LatitudeDegrees>
              <LongitudeDegrees>-6.31266809999942779541015625</LongitudeDegrees>
            </Position>
            <AltitudeMeters>456.399993896484375</AltitudeMeters>
            <DistanceMeters>NAN</DistanceMeters>
          </Trackpoint>
          <Trackpoint>
            <Time>2019-10-10T07:58:47.000Z</Time>
            <Position>
              <LatitudeDegrees>38.30603233538568019866943359375</LatitudeDegrees>
              <LongitudeDegrees>-6.312664411962032318115234375</LongitudeDegrees>
            </Position>
            <AltitudeMeters>456.600006103515625</AltitudeMeters>
            <DistanceMeters>NAN</DistanceMeters>
          </Trackpoint>
          <Trackpoint>
            <Time>2019-10-10T07:58:57.000Z</Time>
            <Position>
              <LatitudeDegrees>38.30567660741508007049560546875</LatitudeDegrees>
              <LongitudeDegrees>-6.31261236034333705902099609375</LongitudeDegrees>
            </Position>
            <AltitudeMeters>457.20001220703125</AltitudeMeters>
            <DistanceMeters>NAN</DistanceMeters>
          </Trackpoint>
          <Trackpoint>
            <Time>2019-10-10T07:58:58.000Z</Time>
            <Position>
              <LatitudeDegrees>38.3056421577930450439453125</LatitudeDegrees>
              <LongitudeDegrees>-6.31260414607822895050048828125</LongitudeDegrees>
            </Position>
            <AltitudeMeters>457.600006103515625</AltitudeMeters>
            <DistanceMeters>NAN</DistanceMeters>
          </Trackpoint>
          <Trackpoint>
            <Time>2019-10-10T07:59:04.000Z</Time>
            <Position>
              <LatitudeDegrees>38.3054418303072452545166015625</LatitudeDegrees>
              <LongitudeDegrees>-6.31257195957005023956298828125</LongitudeDegrees>
            </Position>
            <AltitudeMeters>458.600006103515625</AltitudeMeters>
            <DistanceMeters>NAN</DistanceMeters>
          </Trackpoint>
          <Trackpoint>
            <Time>2019-10-10T07:59:12.000Z</Time>
            <Position>
              <LatitudeDegrees>38.305171765387058258056640625</LatitudeDegrees>
              <LongitudeDegrees>-6.3125212490558624267578125</LongitudeDegrees>
            </Position>
            <AltitudeMeters>459.79998779296875</AltitudeMeters>
            <DistanceMeters>NAN</DistanceMeters>
          </Trackpoint>
          <Trackpoint>
            <Time>2019-10-10T07:59:13.000Z</Time>
            <Position>
              <LatitudeDegrees>38.305136896669864654541015625</LatitudeDegrees>
              <LongitudeDegrees>-6.31251613609492778778076171875</LongitudeDegrees>
            </Position>
            <AltitudeMeters>459.600006103515625</AltitudeMeters>
            <DistanceMeters>NAN</DistanceMeters>
          </Trackpoint>
          <Trackpoint>
            <Time>2019-10-10T07:59:21.000Z</Time>
            <Position>
              <LatitudeDegrees>38.30485149286687374114990234375</LatitudeDegrees>
              <LongitudeDegrees>-6.3124607317149639129638671875</LongitudeDegrees>
            </Position>
            <AltitudeMeters>460.79998779296875</AltitudeMeters>
            <DistanceMeters>NAN</DistanceMeters>
          </Trackpoint>
          <Trackpoint>
            <Time>2019-10-10T07:59:28.000Z</Time>
            <Position>
              <LatitudeDegrees>38.30460405908524990081787109375</LatitudeDegrees>
              <LongitudeDegrees>-6.3123953528702259063720703125</LongitudeDegrees>
            </Position>
            <AltitudeMeters>462</AltitudeMeters>
            <DistanceMeters>NAN</DistanceMeters>
          </Trackpoint>
          <Trackpoint>
            <Time>2019-10-10T07:59:31.000Z</Time>
            <Position>
              <LatitudeDegrees>38.3045033924281597137451171875</LatitudeDegrees>
              <LongitudeDegrees>-6.31236509419977664947509765625</LongitudeDegrees>
            </Position>
            <AltitudeMeters>461.600006103515625</AltitudeMeters>
            <DistanceMeters>NAN</DistanceMeters>
          </Trackpoint>
          <Trackpoint>
            <Time>2019-10-10T07:59:41.000Z</Time>
            <Position>
              <LatitudeDegrees>38.3041830360889434814453125</LatitudeDegrees>
              <LongitudeDegrees>-6.31223299540579319000244140625</LongitudeDegrees>
            </Position>
            <AltitudeMeters>463.20001220703125</AltitudeMeters>
            <DistanceMeters>NAN</DistanceMeters>
          </Trackpoint>
          <Trackpoint>
            <Time>2019-10-10T07:59:50.000Z</Time>
            <Position>
              <LatitudeDegrees>38.3038975484669208526611328125</LatitudeDegrees>
              <LongitudeDegrees>-6.31209871731698513031005859375</LongitudeDegrees>
            </Position>
            <AltitudeMeters>464.20001220703125</AltitudeMeters>
            <DistanceMeters>NAN</DistanceMeters>
          </Trackpoint>
          <Trackpoint>
            <Time>2019-10-10T07:59:51.000Z</Time>
            <Position>
              <LatitudeDegrees>38.3038670383393764495849609375</LatitudeDegrees>
              <LongitudeDegrees>-6.3120825402438640594482421875</LongitudeDegrees>
            </Position>
            <AltitudeMeters>464.399993896484375</AltitudeMeters>
            <DistanceMeters>NAN</DistanceMeters>
          </Trackpoint>
          <Trackpoint>
            <Time>2019-10-10T07:59:58.000Z</Time>
            <Position>
              <LatitudeDegrees>38.3036464266479015350341796875</LatitudeDegrees>
              <LongitudeDegrees>-6.31196812726557254791259765625</LongitudeDegrees>
            </Position>
            <AltitudeMeters>465.399993896484375</AltitudeMeters>
            <DistanceMeters>NAN</DistanceMeters>
          </Trackpoint>
          <Trackpoint>
            <Time>2019-10-10T07:59:59.000Z</Time>
            <Position>
              <LatitudeDegrees>38.3036162517964839935302734375</LatitudeDegrees>
              <LongitudeDegrees>-6.311951614916324615478515625</LongitudeDegrees>
            </Position>
            <AltitudeMeters>465.79998779296875</AltitudeMeters>
            <DistanceMeters>NAN</DistanceMeters>
          </Trackpoint>
          <Trackpoint>
            <Time>2019-10-10T08:00:06.000Z</Time>
            <Position>
              <LatitudeDegrees>38.30338130705058574676513671875</LatitudeDegrees>
              <LongitudeDegrees>-6.3118401356041431427001953125</LongitudeDegrees>
            </Position>
            <AltitudeMeters>466.399993896484375</AltitudeMeters>
            <DistanceMeters>NAN</DistanceMeters>
          </Trackpoint>
          <Trackpoint>
            <Time>2019-10-10T08:00:07.000Z</Time>
            <Position>
              <LatitudeDegrees>38.30334861762821674346923828125</LatitudeDegrees>
              <LongitudeDegrees>-6.31182412616908550262451171875</LongitudeDegrees>
            </Position>
            <AltitudeMeters>466.600006103515625</AltitudeMeters>
            <DistanceMeters>NAN</DistanceMeters>
          </Trackpoint>
          <Trackpoint>
            <Time>2019-10-10T08:00:15.000Z</Time>
            <Position>
              <LatitudeDegrees>38.30308257602155208587646484375</LatitudeDegrees>
              <LongitudeDegrees>-6.31169982254505157470703125</LongitudeDegrees>
            </Position>
            <AltitudeMeters>467.399993896484375</AltitudeMeters>
            <DistanceMeters>NAN</DistanceMeters>
          </Trackpoint>
          <Trackpoint>
            <Time>2019-10-10T08:00:16.000Z</Time>
            <Position>
              <LatitudeDegrees>38.303049467504024505615234375</LatitudeDegrees>
              <LongitudeDegrees>-6.31168666295707225799560546875</LongitudeDegrees>
            </Position>
            <AltitudeMeters>467.600006103515625</AltitudeMeters>
            <DistanceMeters>NAN</DistanceMeters>
          </Trackpoint>
          <Trackpoint>
            <Time>2019-10-10T08:00:22.000Z</Time>
            <Position>
              <LatitudeDegrees>38.3028367348015308380126953125</LatitudeDegrees>
              <LongitudeDegrees>-6.311621032655239105224609375</LongitudeDegrees>
            </Position>
            <AltitudeMeters>467.79998779296875</AltitudeMeters>
            <DistanceMeters>NAN</DistanceMeters>
          </Trackpoint>
          <Trackpoint>
            <Time>2019-10-10T08:00:31.000Z</Time>
            <Position>
              <LatitudeDegrees>38.30249181948602199554443359375</LatitudeDegrees>
              <LongitudeDegrees>-6.31151416338980197906494140625</LongitudeDegrees>
            </Position>
            <AltitudeMeters>467.600006103515625</AltitudeMeters>
            <DistanceMeters>NAN</DistanceMeters>
          </Trackpoint>
          <Trackpoint>
            <Time>2019-10-10T08:00:34.000Z</Time>
            <Position>
              <LatitudeDegrees>38.30234731547534465789794921875</LatitudeDegrees>
              <LongitudeDegrees>-6.3114780373871326446533203125</LongitudeDegrees>
            </Position>
            <AltitudeMeters>466.399993896484375</AltitudeMeters>
            <DistanceMeters>NAN</DistanceMeters>
          </Trackpoint>
          <Trackpoint>
            <Time>2019-10-10T08:00:37.000Z</Time>
            <Position>
              <LatitudeDegrees>38.30218604765832424163818359375</LatitudeDegrees>
              <LongitudeDegrees>-6.311433948576450347900390625</LongitudeDegrees>
            </Position>
            <AltitudeMeters>465.20001220703125</AltitudeMeters>
            <DistanceMeters>NAN</DistanceMeters>
          </Trackpoint>
          <Trackpoint>
            <Time>2019-10-10T08:00:38.000Z</Time>
            <Position>
              <LatitudeDegrees>38.30212737433612346649169921875</LatitudeDegrees>
              <LongitudeDegrees>-6.31141961552202701568603515625</LongitudeDegrees>
            </Position>
            <AltitudeMeters>465.20001220703125</AltitudeMeters>
            <DistanceMeters>NAN</DistanceMeters>
          </Trackpoint>
          <Trackpoint>
            <Time>2019-10-10T08:00:41.000Z</Time>
            <Position>
              <LatitudeDegrees>38.30193995498120784759521484375</LatitudeDegrees>
              <LongitudeDegrees>-6.3113690726459026336669921875</LongitudeDegrees>
            </Position>
            <AltitudeMeters>464</AltitudeMeters>
            <DistanceMeters>NAN</DistanceMeters>
          </Trackpoint>
          <Trackpoint>
            <Time>2019-10-10T08:00:44.000Z</Time>
            <Position>
              <LatitudeDegrees>38.3017336763441562652587890625</LatitudeDegrees>
              <LongitudeDegrees>-6.31131769157946109771728515625</LongitudeDegrees>
            </Position>
            <AltitudeMeters>463</AltitudeMeters>
            <DistanceMeters>NAN</DistanceMeters>
          </Trackpoint>
          <Trackpoint>
            <Time>2019-10-10T08:00:45.000Z</Time>
            <Position>
              <LatitudeDegrees>38.3016629330813884735107421875</LatitudeDegrees>
              <LongitudeDegrees>-6.31129749119281768798828125</LongitudeDegrees>
            </Position>
            <AltitudeMeters>462.600006103515625</AltitudeMeters>
            <DistanceMeters>NAN</DistanceMeters>
          </Trackpoint>
          <Trackpoint>
            <Time>2019-10-10T08:00:47.000Z</Time>
            <Position>
              <LatitudeDegrees>38.3015184290707111358642578125</LatitudeDegrees>
              <LongitudeDegrees>-6.31126371212303638458251953125</LongitudeDegrees>
            </Position>
            <AltitudeMeters>462</AltitudeMeters>
            <DistanceMeters>NAN</DistanceMeters>
          </Trackpoint>
          <Trackpoint>
            <Time>2019-10-10T08:00:49.000Z</Time>
            <Position>
              <LatitudeDegrees>38.3013729192316532135009765625</LatitudeDegrees>
              <LongitudeDegrees>-6.31122381426393985748291015625</LongitudeDegrees>
            </Position>
            <AltitudeMeters>461.600006103515625</AltitudeMeters>
            <DistanceMeters>NAN</DistanceMeters>
          </Trackpoint>
          <Trackpoint>
            <Time>2019-10-10T08:00:51.000Z</Time>
            <Position>
              <LatitudeDegrees>38.301224224269390106201171875</LatitudeDegrees>
              <LongitudeDegrees>-6.31119179539382457733154296875</LongitudeDegrees>
            </Position>
            <AltitudeMeters>460.399993896484375</AltitudeMeters>
            <DistanceMeters>NAN</DistanceMeters>
          </Trackpoint>
          <Trackpoint>
            <Time>2019-10-10T08:00:52.000Z</Time>
            <Position>
              <LatitudeDegrees>38.301148451864719390869140625</LatitudeDegrees>
              <LongitudeDegrees>-6.31117536686360836029052734375</LongitudeDegrees>
            </Position>
            <AltitudeMeters>460.399993896484375</AltitudeMeters>
            <DistanceMeters>NAN</DistanceMeters>
          </Trackpoint>
          <Trackpoint>
            <Time>2019-10-10T08:00:55.000Z</Time>
            <Position>
              <LatitudeDegrees>38.3009169436991214752197265625</LatitudeDegrees>
              <LongitudeDegrees>-6.3111156038939952850341796875</LongitudeDegrees>
            </Position>
            <AltitudeMeters>459.20001220703125</AltitudeMeters>
            <DistanceMeters>NAN</DistanceMeters>
          </Trackpoint>
          <Trackpoint>
            <Time>2019-10-10T08:00:58.000Z</Time>
            <Position>
              <LatitudeDegrees>38.3006765507161617279052734375</LatitudeDegrees>
              <LongitudeDegrees>-6.31105969659984111785888671875</LongitudeDegrees>
            </Position>
            <AltitudeMeters>458.20001220703125</AltitudeMeters>
            <DistanceMeters>NAN</DistanceMeters>
          </Trackpoint>
          <Trackpoint>
            <Time>2019-10-10T08:01:01.000Z</Time>
            <Position>
              <LatitudeDegrees>38.30044244416058063507080078125</LatitudeDegrees>
              <LongitudeDegrees>-6.31100538186728954315185546875</LongitudeDegrees>
            </Position>
            <AltitudeMeters>457.79998779296875</AltitudeMeters>
            <DistanceMeters>NAN</DistanceMeters>
          </Trackpoint>
          <Trackpoint>
            <Time>2019-10-10T08:01:03.000Z</Time>
            <Position>
              <LatitudeDegrees>38.30028821714222431182861328125</LatitudeDegrees>
              <LongitudeDegrees>-6.310977302491664886474609375</LongitudeDegrees>
            </Position>
            <AltitudeMeters>457.600006103515625</AltitudeMeters>
            <DistanceMeters>NAN</DistanceMeters>
          </Trackpoint>
          <Trackpoint>
            <Time>2019-10-10T08:01:05.000Z</Time>
            <Position>
              <LatitudeDegrees>38.300139941275119781494140625</LatitudeDegrees>
              <LongitudeDegrees>-6.3109586946666240692138671875</LongitudeDegrees>
            </Position>
            <AltitudeMeters>457.600006103515625</AltitudeMeters>
            <DistanceMeters>NAN</DistanceMeters>
          </Trackpoint>
          <Trackpoint>
            <Time>2019-10-10T08:01:07.000Z</Time>
            <Position>
              <LatitudeDegrees>38.29999744892120361328125</LatitudeDegrees>
              <LongitudeDegrees>-6.31094855256378650665283203125</LongitudeDegrees>
            </Position>
            <AltitudeMeters>458</AltitudeMeters>
            <DistanceMeters>NAN</DistanceMeters>
          </Trackpoint>
          <Trackpoint>
            <Time>2019-10-10T08:01:08.000Z</Time>
            <Position>
              <LatitudeDegrees>38.2999282144010066986083984375</LatitudeDegrees>
              <LongitudeDegrees>-6.31094486452639102935791015625</LongitudeDegrees>
            </Position>
            <AltitudeMeters>457.79998779296875</AltitudeMeters>
            <DistanceMeters>NAN</DistanceMeters>
          </Trackpoint>
          <Trackpoint>
            <Time>2019-10-10T08:01:15.000Z</Time>
            <Position>
              <LatitudeDegrees>38.29949646256864070892333984375</LatitudeDegrees>
              <LongitudeDegrees>-6.31095039658248424530029296875</LongitudeDegrees>
            </Position>
            <AltitudeMeters>459.399993896484375</AltitudeMeters>
            <DistanceMeters>NAN</DistanceMeters>
          </Trackpoint>
          <Trackpoint>
            <Time>2019-10-10T08:01:21.000Z</Time>
            <Position>
              <LatitudeDegrees>38.29919748008251190185546875</LatitudeDegrees>
              <LongitudeDegrees>-6.31094318814575672149658203125</LongitudeDegrees>
            </Position>
            <AltitudeMeters>460.399993896484375</AltitudeMeters>
            <DistanceMeters>NAN</DistanceMeters>
          </Trackpoint>
          <Trackpoint>
            <Time>2019-10-10T08:01:22.000Z</Time>
            <Position>
              <LatitudeDegrees>38.2991540618240833282470703125</LatitudeDegrees>
              <LongitudeDegrees>-6.31094117648899555206298828125</LongitudeDegrees>
            </Position>
            <AltitudeMeters>460.79998779296875</AltitudeMeters>
            <DistanceMeters>NAN</DistanceMeters>
          </Trackpoint>
          <Trackpoint>
            <Time>2019-10-10T08:01:27.000Z</Time>
            <Position>
              <LatitudeDegrees>38.2989425025880336761474609375</LatitudeDegrees>
              <LongitudeDegrees>-6.310923993587493896484375</LongitudeDegrees>
            </Position>
            <AltitudeMeters>462</AltitudeMeters>
            <DistanceMeters>NAN</DistanceMeters>
          </Trackpoint>
          <Trackpoint>
            <Time>2019-10-10T08:01:28.000Z</Time>
            <Position>
              <LatitudeDegrees>38.298901431262493133544921875</LatitudeDegrees>
              <LongitudeDegrees>-6.31091888062655925750732421875</LongitudeDegrees>
            </Position>
            <AltitudeMeters>462.20001220703125</AltitudeMeters>
            <DistanceMeters>NAN</DistanceMeters>
          </Trackpoint>
          <Trackpoint>
            <Time>2019-10-10T08:01:31.000Z</Time>
            <Position>
              <LatitudeDegrees>38.298776708543300628662109375</LatitudeDegrees>
              <LongitudeDegrees>-6.310903541743755340576171875</LongitudeDegrees>
            </Position>
            <AltitudeMeters>462.79998779296875</AltitudeMeters>
            <DistanceMeters>NAN</DistanceMeters>
          </Trackpoint>
          <Trackpoint>
            <Time>2019-10-10T08:01:32.000Z</Time>
            <Position>
              <LatitudeDegrees>38.29873454757034778594970703125</LatitudeDegrees>
              <LongitudeDegrees>-6.3109010271728038787841796875</LongitudeDegrees>
            </Position>
            <AltitudeMeters>463</AltitudeMeters>
            <DistanceMeters>NAN</DistanceMeters>
          </Trackpoint>
          <Trackpoint>
            <Time>2019-10-10T08:01:36.000Z</Time>
            <Position>
              <LatitudeDegrees>38.29856120981276035308837890625</LatitudeDegrees>
              <LongitudeDegrees>-6.310891807079315185546875</LongitudeDegrees>
            </Position>
            <AltitudeMeters>463.20001220703125</AltitudeMeters>
            <DistanceMeters>NAN</DistanceMeters>
          </Trackpoint>
          <Trackpoint>
            <Time>2019-10-10T08:01:40.000Z</Time>
            <Position>
              <LatitudeDegrees>38.29837898723781108856201171875</LatitudeDegrees>
              <LongitudeDegrees>-6.31088803522288799285888671875</LongitudeDegrees>
            </Position>
            <AltitudeMeters>463.20001220703125</AltitudeMeters>
            <DistanceMeters>NAN</DistanceMeters>
          </Trackpoint>
          <Trackpoint>
            <Time>2019-10-10T08:01:47.000Z</Time>
            <Position>
              <LatitudeDegrees>38.2980488240718841552734375</LatitudeDegrees>
              <LongitudeDegrees>-6.310879401862621307373046875</LongitudeDegrees>
            </Position>
            <AltitudeMeters>463</AltitudeMeters>
            <DistanceMeters>NAN</DistanceMeters>
          </Trackpoint>
          <Trackpoint>
            <Time>2019-10-10T08:01:52.000Z</Time>
            <Position>
              <LatitudeDegrees>38.297809101641178131103515625</LatitudeDegrees>
              <LongitudeDegrees>-6.31087613292038440704345703125</LongitudeDegrees>
            </Position>
            <AltitudeMeters>463</AltitudeMeters>
            <DistanceMeters>NAN</DistanceMeters>
          </Trackpoint>
          <Trackpoint>
            <Time>2019-10-10T08:01:56.000Z</Time>
            <Position>
              <LatitudeDegrees>38.29761455766856670379638671875</LatitudeDegrees>
              <LongitudeDegrees>-6.31087009795010089874267578125</LongitudeDegrees>
            </Position>
            <AltitudeMeters>463.20001220703125</AltitudeMeters>
            <DistanceMeters>NAN</DistanceMeters>
          </Trackpoint>
          <Trackpoint>
            <Time>2019-10-10T08:02:02.000Z</Time>
            <Position>
              <LatitudeDegrees>38.29732806421816349029541015625</LatitudeDegrees>
              <LongitudeDegrees>-6.3108609616756439208984375</LongitudeDegrees>
            </Position>
            <AltitudeMeters>463</AltitudeMeters>
            <DistanceMeters>NAN</DistanceMeters>
          </Trackpoint>
          <Trackpoint>
            <Time>2019-10-10T08:02:06.000Z</Time>
            <Position>
              <LatitudeDegrees>38.29713863320648670196533203125</LatitudeDegrees>
              <LongitudeDegrees>-6.31085869856178760528564453125</LongitudeDegrees>
            </Position>
            <AltitudeMeters>462.600006103515625</AltitudeMeters>
            <DistanceMeters>NAN</DistanceMeters>
          </Trackpoint>
          <Trackpoint>
            <Time>2019-10-10T08:02:12.000Z</Time>
            <Position>
              <LatitudeDegrees>38.2968627847731113433837890625</LatitudeDegrees>
              <LongitudeDegrees>-6.31084713153541088104248046875</LongitudeDegrees>
            </Position>
            <AltitudeMeters>463.399993896484375</AltitudeMeters>
            <DistanceMeters>NAN</DistanceMeters>
          </Trackpoint>
          <Trackpoint>
            <Time>2019-10-10T08:02:16.000Z</Time>
            <Position>
              <LatitudeDegrees>38.2966874353587627410888671875</LatitudeDegrees>
              <LongitudeDegrees>-6.31084444932639598846435546875</LongitudeDegrees>
            </Position>
            <AltitudeMeters>464</AltitudeMeters>
            <DistanceMeters>NAN</DistanceMeters>
          </Trackpoint>
          <Trackpoint>
            <Time>2019-10-10T08:02:17.000Z</Time>
            <Position>
              <LatitudeDegrees>38.29664535820484161376953125</LatitudeDegrees>
              <LongitudeDegrees>-6.310843527317047119140625</LongitudeDegrees>
            </Position>
            <AltitudeMeters>464.20001220703125</AltitudeMeters>
            <DistanceMeters>NAN</DistanceMeters>
          </Trackpoint>
          <Trackpoint>
            <Time>2019-10-10T08:02:21.000Z</Time>
            <Position>
              <LatitudeDegrees>38.296490125358104705810546875</LatitudeDegrees>
              <LongitudeDegrees>-6.3108379952609539031982421875</LongitudeDegrees>
            </Position>
            <AltitudeMeters>465.20001220703125</AltitudeMeters>
            <DistanceMeters>NAN</DistanceMeters>
          </Trackpoint>
          <Trackpoint>
            <Time>2019-10-10T08:02:26.000Z</Time>
            <Position>
              <LatitudeDegrees>38.2963095791637897491455078125</LatitudeDegrees>
              <LongitudeDegrees>-6.31083187647163867950439453125</LongitudeDegrees>
            </Position>
            <AltitudeMeters>466</AltitudeMeters>
            <DistanceMeters>NAN</DistanceMeters>
          </Trackpoint>
          <Trackpoint>
            <Time>2019-10-10T08:02:27.000Z</Time>
            <Position>
              <LatitudeDegrees>38.29627647064626216888427734375</LatitudeDegrees>
              <LongitudeDegrees>-6.31083204410970211029052734375</LongitudeDegrees>
            </Position>
            <AltitudeMeters>466.20001220703125</AltitudeMeters>
            <DistanceMeters>NAN</DistanceMeters>
          </Trackpoint>
          <Trackpoint>
            <Time>2019-10-10T08:02:33.000Z</Time>
            <Position>
              <LatitudeDegrees>38.2960774004459381103515625</LatitudeDegrees>
              <LongitudeDegrees>-6.3108265958726406097412109375</LongitudeDegrees>
            </Position>
            <AltitudeMeters>467.399993896484375</AltitudeMeters>
            <DistanceMeters>NAN</DistanceMeters>
          </Trackpoint>
          <Trackpoint>
            <Time>2019-10-10T08:02:35.000Z</Time>
            <Position>
              <LatitudeDegrees>38.29601210542023181915283203125</LatitudeDegrees>
              <LongitudeDegrees>-6.3108207285404205322265625</LongitudeDegrees>
            </Position>
            <AltitudeMeters>467.600006103515625</AltitudeMeters>
            <DistanceMeters>NAN</DistanceMeters>
          </Trackpoint>
          <Trackpoint>
            <Time>2019-10-10T08:02:38.000Z</Time>
            <Position>
              <LatitudeDegrees>38.29591537825763225555419921875</LatitudeDegrees>
              <LongitudeDegrees>-6.31082215346395969390869140625</LongitudeDegrees>
            </Position>
            <AltitudeMeters>468.399993896484375</AltitudeMeters>
            <DistanceMeters>NAN</DistanceMeters>
          </Trackpoint>
          <Trackpoint>
            <Time>2019-10-10T08:02:39.000Z</Time>
            <Position>
              <LatitudeDegrees>38.29588335938751697540283203125</LatitudeDegrees>
              <LongitudeDegrees>-6.3108245842158794403076171875</LongitudeDegrees>
            </Position>
            <AltitudeMeters>468.600006103515625</AltitudeMeters>
            <DistanceMeters>NAN</DistanceMeters>
          </Trackpoint>
          <Trackpoint>
            <Time>2019-10-10T08:02:43.000Z</Time>
            <Position>
              <LatitudeDegrees>38.29575327225029468536376953125</LatitudeDegrees>
              <LongitudeDegrees>-6.31081880070269107818603515625</LongitudeDegrees>
            </Position>
            <AltitudeMeters>469.20001220703125</AltitudeMeters>
            <DistanceMeters>NAN</DistanceMeters>
          </Trackpoint>
          <Trackpoint>
            <Time>2019-10-10T08:02:46.000Z</Time>
            <Position>
              <LatitudeDegrees>38.2956567965447902679443359375</LatitudeDegrees>
              <LongitudeDegrees>-6.310807652771472930908203125</LongitudeDegrees>
            </Position>
            <AltitudeMeters>469.600006103515625</AltitudeMeters>
            <DistanceMeters>NAN</DistanceMeters>
          </Trackpoint>
          <Trackpoint>
            <Time>2019-10-10T08:02:50.000Z</Time>
            <Position>
              <LatitudeDegrees>38.29553031362593173980712890625</LatitudeDegrees>
              <LongitudeDegrees>-6.31081041879951953887939453125</LongitudeDegrees>
            </Position>
            <AltitudeMeters>470.79998779296875</AltitudeMeters>
            <DistanceMeters>NAN</DistanceMeters>
          </Trackpoint>
          <Trackpoint>
            <Time>2019-10-10T08:02:52.000Z</Time>
            <Position>
              <LatitudeDegrees>38.29546644352376461029052734375</LatitudeDegrees>
              <LongitudeDegrees>-6.3108118437230587005615234375</LongitudeDegrees>
            </Position>
            <AltitudeMeters>471</AltitudeMeters>
            <DistanceMeters>NAN</DistanceMeters>
          </Trackpoint>
          <Trackpoint>
            <Time>2019-10-10T08:03:00.000Z</Time>
            <Position>
              <LatitudeDegrees>38.29520610161125659942626953125</LatitudeDegrees>
              <LongitudeDegrees>-6.31079348735511302947998046875</LongitudeDegrees>
            </Position>
            <AltitudeMeters>472</AltitudeMeters>
            <DistanceMeters>NAN</DistanceMeters>
          </Trackpoint>
          <Trackpoint>
            <Time>2019-10-10T08:03:01.000Z</Time>
            <Position>
              <LatitudeDegrees>38.29517374746501445770263671875</LatitudeDegrees>
              <LongitudeDegrees>-6.3107944093644618988037109375</LongitudeDegrees>
            </Position>
            <AltitudeMeters>472.399993896484375</AltitudeMeters>
            <DistanceMeters>NAN</DistanceMeters>
          </Trackpoint>
          <Trackpoint>
            <Time>2019-10-10T08:03:05.000Z</Time>
            <Position>
              <LatitudeDegrees>38.29504416324198246002197265625</LatitudeDegrees>
              <LongitudeDegrees>-6.31078845821321010589599609375</LongitudeDegrees>
            </Position>
            <AltitudeMeters>473.399993896484375</AltitudeMeters>
            <DistanceMeters>NAN</DistanceMeters>
          </Trackpoint>
          <Trackpoint>
            <Time>2019-10-10T08:03:10.000Z</Time>
            <Position>
              <LatitudeDegrees>38.2948833145201206207275390625</LatitudeDegrees>
              <LongitudeDegrees>-6.31078946404159069061279296875</LongitudeDegrees>
            </Position>
            <AltitudeMeters>474.20001220703125</AltitudeMeters>
            <DistanceMeters>NAN</DistanceMeters>
          </Trackpoint>
          <Trackpoint>
            <Time>2019-10-10T08:03:14.000Z</Time>
            <Position>
              <LatitudeDegrees>38.2947569154202938079833984375</LatitudeDegrees>
              <LongitudeDegrees>-6.31077856756746768951416015625</LongitudeDegrees>
            </Position>
            <AltitudeMeters>474.600006103515625</AltitudeMeters>
            <DistanceMeters>NAN</DistanceMeters>
          </Trackpoint>
          <Trackpoint>
            <Time>2019-10-10T08:03:19.000Z</Time>
            <Position>
              <LatitudeDegrees>38.29459615051746368408203125</LatitudeDegrees>
              <LongitudeDegrees>-6.3107732869684696197509765625</LongitudeDegrees>
            </Position>
            <AltitudeMeters>475.20001220703125</AltitudeMeters>
            <DistanceMeters>NAN</DistanceMeters>
          </Trackpoint>
          <Trackpoint>
            <Time>2019-10-10T08:03:20.000Z</Time>
            <Position>
              <LatitudeDegrees>38.29456471838057041168212890625</LatitudeDegrees>
              <LongitudeDegrees>-6.31077655591070652008056640625</LongitudeDegrees>
            </Position>
            <AltitudeMeters>475.600006103515625</AltitudeMeters>
            <DistanceMeters>NAN</DistanceMeters>
          </Trackpoint>
          <Trackpoint>
            <Time>2019-10-10T08:03:24.000Z</Time>
            <Position>
              <LatitudeDegrees>38.2944290153682231903076171875</LatitudeDegrees>
              <LongitudeDegrees>-6.31077622063457965850830078125</LongitudeDegrees>
            </Position>
            <AltitudeMeters>476</AltitudeMeters>
            <DistanceMeters>NAN</DistanceMeters>
          </Trackpoint>
          <Trackpoint>
            <Time>2019-10-10T08:03:25.000Z</Time>
            <Position>
              <LatitudeDegrees>38.2943941466510295867919921875</LatitudeDegrees>
              <LongitudeDegrees>-6.3107751309871673583984375</LongitudeDegrees>
            </Position>
            <AltitudeMeters>475.79998779296875</AltitudeMeters>
            <DistanceMeters>NAN</DistanceMeters>
          </Trackpoint>
          <Trackpoint>
            <Time>2019-10-10T08:03:30.000Z</Time>
            <Position>
              <LatitudeDegrees>38.2942214794456958770751953125</LatitudeDegrees>
              <LongitudeDegrees>-6.31077018566429615020751953125</LongitudeDegrees>
            </Position>
            <AltitudeMeters>476.600006103515625</AltitudeMeters>
            <DistanceMeters>NAN</DistanceMeters>
          </Trackpoint>
          <Trackpoint>
            <Time>2019-10-10T08:03:35.000Z</Time>
            <Position>
              <LatitudeDegrees>38.29404520802199840545654296875</LatitudeDegrees>
              <LongitudeDegrees>-6.3107635639607906341552734375</LongitudeDegrees>
            </Position>
            <AltitudeMeters>477.79998779296875</AltitudeMeters>
            <DistanceMeters>NAN</DistanceMeters>
          </Trackpoint>
          <Trackpoint>
            <Time>2019-10-10T08:03:45.000Z</Time>
            <Position>
              <LatitudeDegrees>38.29368294216692447662353515625</LatitudeDegrees>
              <LongitudeDegrees>-6.31075543351471424102783203125</LongitudeDegrees>
            </Position>
            <AltitudeMeters>478</AltitudeMeters>
            <DistanceMeters>NAN</DistanceMeters>
          </Trackpoint>
          <Trackpoint>
            <Time>2019-10-10T08:03:55.000Z</Time>
            <Position>
              <LatitudeDegrees>38.2932967878878116607666015625</LatitudeDegrees>
              <LongitudeDegrees>-6.31073934026062488555908203125</LongitudeDegrees>
            </Position>
            <AltitudeMeters>478.20001220703125</AltitudeMeters>
            <DistanceMeters>NAN</DistanceMeters>
          </Trackpoint>
          <Trackpoint>
            <Time>2019-10-10T08:04:01.000Z</Time>
            <Position>
              <LatitudeDegrees>38.29305061139166355133056640625</LatitudeDegrees>
              <LongitudeDegrees>-6.31072861142456531524658203125</LongitudeDegrees>
            </Position>
            <AltitudeMeters>478.20001220703125</AltitudeMeters>
            <DistanceMeters>NAN</DistanceMeters>
          </Trackpoint>
          <Trackpoint>
            <Time>2019-10-10T08:04:04.000Z</Time>
            <Position>
              <LatitudeDegrees>38.29291448928415775299072265625</LatitudeDegrees>
              <LongitudeDegrees>-6.31072592921555042266845703125</LongitudeDegrees>
            </Position>
            <AltitudeMeters>478</AltitudeMeters>
            <DistanceMeters>NAN</DistanceMeters>
          </Trackpoint>
          <Trackpoint>
            <Time>2019-10-10T08:04:10.000Z</Time>
            <Position>
              <LatitudeDegrees>38.2926088012754917144775390625</LatitudeDegrees>
              <LongitudeDegrees>-6.310717798769474029541015625</LongitudeDegrees>
            </Position>
            <AltitudeMeters>477.20001220703125</AltitudeMeters>
            <DistanceMeters>NAN</DistanceMeters>
          </Trackpoint>
          <Trackpoint>
            <Time>2019-10-10T08:04:12.000Z</Time>
            <Position>
              <LatitudeDegrees>38.29250293783843517303466796875</LatitudeDegrees>
              <LongitudeDegrees>-6.31071721203625202178955078125</LongitudeDegrees>
            </Position>
            <AltitudeMeters>476.600006103515625</AltitudeMeters>
            <DistanceMeters>NAN</DistanceMeters>
          </Trackpoint>
          <Trackpoint>
            <Time>2019-10-10T08:04:17.000Z</Time>
            <Position>
              <LatitudeDegrees>38.29223639331758022308349609375</LatitudeDegrees>
              <LongitudeDegrees>-6.3107122667133808135986328125</LongitudeDegrees>
            </Position>
            <AltitudeMeters>476.20001220703125</AltitudeMeters>
            <DistanceMeters>NAN</DistanceMeters>
          </Trackpoint>
          <Trackpoint>
            <Time>2019-10-10T08:04:21.000Z</Time>
            <Position>
              <LatitudeDegrees>38.2920165359973907470703125</LatitudeDegrees>
              <LongitudeDegrees>-6.310707740485668182373046875</LongitudeDegrees>
            </Position>
            <AltitudeMeters>475.79998779296875</AltitudeMeters>
            <DistanceMeters>NAN</DistanceMeters>
          </Trackpoint>
          <Trackpoint>
            <Time>2019-10-10T08:04:24.000Z</Time>
            <Position>
              <LatitudeDegrees>38.29184814356267452239990234375</LatitudeDegrees>
              <LongitudeDegrees>-6.31070162169635295867919921875</LongitudeDegrees>
            </Position>
            <AltitudeMeters>475.600006103515625</AltitudeMeters>
            <DistanceMeters>NAN</DistanceMeters>
          </Trackpoint>
          <Trackpoint>
            <Time>2019-10-10T08:04:28.000Z</Time>
            <Position>
              <LatitudeDegrees>38.29161864705383777618408203125</LatitudeDegrees>
              <LongitudeDegrees>-6.3106931559741497039794921875</LongitudeDegrees>
            </Position>
            <AltitudeMeters>475.20001220703125</AltitudeMeters>
            <DistanceMeters>NAN</DistanceMeters>
          </Trackpoint>
          <Trackpoint>
            <Time>2019-10-10T08:04:33.000Z</Time>
            <Position>
              <LatitudeDegrees>38.29132611863315105438232421875</LatitudeDegrees>
              <LongitudeDegrees>-6.3106804154813289642333984375</LongitudeDegrees>
            </Position>
            <AltitudeMeters>474.600006103515625</AltitudeMeters>
            <DistanceMeters>NAN</DistanceMeters>
          </Trackpoint>
          <Trackpoint>
            <Time>2019-10-10T08:04:34.000Z</Time>
            <Position>
              <LatitudeDegrees>38.2912670262157917022705078125</LatitudeDegrees>
              <LongitudeDegrees>-6.3106785714626312255859375</LongitudeDegrees>
            </Position>
            <AltitudeMeters>474.399993896484375</AltitudeMeters>
            <DistanceMeters>NAN</DistanceMeters>
          </Trackpoint>
          <Trackpoint>
            <Time>2019-10-10T08:04:35.000Z</Time>
            <Position>
              <LatitudeDegrees>38.291208185255527496337890625</LatitudeDegrees>
              <LongitudeDegrees>-6.31067731417715549468994140625</LongitudeDegrees>
            </Position>
            <AltitudeMeters>474.399993896484375</AltitudeMeters>
            <DistanceMeters>NAN</DistanceMeters>
          </Trackpoint>
          <Trackpoint>
            <Time>2019-10-10T08:04:41.000Z</Time>
            <Position>
              <LatitudeDegrees>38.29085220582783222198486328125</LatitudeDegrees>
              <LongitudeDegrees>-6.31066717207431793212890625</LongitudeDegrees>
            </Position>
            <AltitudeMeters>474</AltitudeMeters>
            <DistanceMeters>NAN</DistanceMeters>
          </Trackpoint>
          <Trackpoint>
            <Time>2019-10-10T08:04:45.000Z</Time>
            <Position>
              <LatitudeDegrees>38.29061298631131649017333984375</LatitudeDegrees>
              <LongitudeDegrees>-6.31066004745662212371826171875</LongitudeDegrees>
            </Position>
            <AltitudeMeters>473.399993896484375</AltitudeMeters>
            <DistanceMeters>NAN</DistanceMeters>
          </Trackpoint>
          <Trackpoint>
            <Time>2019-10-10T08:04:48.000Z</Time>
            <Position>
              <LatitudeDegrees>38.29043193720281124114990234375</LatitudeDegrees>
              <LongitudeDegrees>-6.31065317429602146148681640625</LongitudeDegrees>
            </Position>
            <AltitudeMeters>473</AltitudeMeters>
            <DistanceMeters>NAN</DistanceMeters>
          </Trackpoint>
          <Trackpoint>
            <Time>2019-10-10T08:04:57.000Z</Time>
            <Position>
              <LatitudeDegrees>38.28990790061652660369873046875</LatitudeDegrees>
              <LongitudeDegrees>-6.3106378354132175445556640625</LongitudeDegrees>
            </Position>
            <AltitudeMeters>473.399993896484375</AltitudeMeters>
            <DistanceMeters>NAN</DistanceMeters>
          </Trackpoint>
          <Trackpoint>
            <Time>2019-10-10T08:05:07.000Z</Time>
            <Position>
              <LatitudeDegrees>38.2893638312816619873046875</LatitudeDegrees>
              <LongitudeDegrees>-6.31062316708266735076904296875</LongitudeDegrees>
            </Position>
            <AltitudeMeters>473.399993896484375</AltitudeMeters>
            <DistanceMeters>NAN</DistanceMeters>
          </Trackpoint>
          <Trackpoint>
            <Time>2019-10-10T08:05:08.000Z</Time>
            <Position>
              <LatitudeDegrees>38.2893110252916812896728515625</LatitudeDegrees>
              <LongitudeDegrees>-6.310622580349445343017578125</LongitudeDegrees>
            </Position>
            <AltitudeMeters>473.399993896484375</AltitudeMeters>
            <DistanceMeters>NAN</DistanceMeters>
          </Trackpoint>
          <Trackpoint>
            <Time>2019-10-10T08:05:17.000Z</Time>
            <Position>
              <LatitudeDegrees>38.2888278923928737640380859375</LatitudeDegrees>
              <LongitudeDegrees>-6.310613192617893218994140625</LongitudeDegrees>
            </Position>
            <AltitudeMeters>473.600006103515625</AltitudeMeters>
            <DistanceMeters>NAN</DistanceMeters>
          </Trackpoint>
          <Trackpoint>
            <Time>2019-10-10T08:05:20.000Z</Time>
            <Position>
              <LatitudeDegrees>38.28866821713745594024658203125</LatitudeDegrees>
              <LongitudeDegrees>-6.31060740910470485687255859375</LongitudeDegrees>
            </Position>
            <AltitudeMeters>473.399993896484375</AltitudeMeters>
            <DistanceMeters>NAN</DistanceMeters>
          </Trackpoint>
          <Trackpoint>
            <Time>2019-10-10T08:05:29.000Z</Time>
            <Position>
              <LatitudeDegrees>38.288194052875041961669921875</LatitudeDegrees>
              <LongitudeDegrees>-6.31058871746063232421875</LongitudeDegrees>
            </Position>
            <AltitudeMeters>474</AltitudeMeters>
            <DistanceMeters>NAN</DistanceMeters>
          </Trackpoint>
          <Trackpoint>
            <Time>2019-10-10T08:05:32.000Z</Time>
            <Position>
              <LatitudeDegrees>38.2880440168082714080810546875</LatitudeDegrees>
              <LongitudeDegrees>-6.3105851970613002777099609375</LongitudeDegrees>
            </Position>
            <AltitudeMeters>473.399993896484375</AltitudeMeters>
            <DistanceMeters>NAN</DistanceMeters>
          </Trackpoint>
          <Trackpoint>
            <Time>2019-10-10T08:05:35.000Z</Time>
            <Position>
              <LatitudeDegrees>38.28790009953081607818603515625</LatitudeDegrees>
              <LongitudeDegrees>-6.31058159284293651580810546875</LongitudeDegrees>
            </Position>
            <AltitudeMeters>474.79998779296875</AltitudeMeters>
            <DistanceMeters>NAN</DistanceMeters>
          </Trackpoint>
          <Trackpoint>
            <Time>2019-10-10T08:05:43.000Z</Time>
            <Position>
              <LatitudeDegrees>38.2875238358974456787109375</LatitudeDegrees>
              <LongitudeDegrees>-6.3105748035013675689697265625</LongitudeDegrees>
            </Position>
            <AltitudeMeters>475.20001220703125</AltitudeMeters>
            <DistanceMeters>NAN</DistanceMeters>
          </Trackpoint>
          <Trackpoint>
            <Time>2019-10-10T08:05:44.000Z</Time>
            <Position>
              <LatitudeDegrees>38.28747815452516078948974609375</LatitudeDegrees>
              <LongitudeDegrees>-6.31057463586330413818359375</LongitudeDegrees>
            </Position>
            <AltitudeMeters>476</AltitudeMeters>
            <DistanceMeters>NAN</DistanceMeters>
          </Trackpoint>
          <Trackpoint>
            <Time>2019-10-10T08:05:48.000Z</Time>
            <Position>
              <LatitudeDegrees>38.28729090280830860137939453125</LatitudeDegrees>
              <LongitudeDegrees>-6.31056415848433971405029296875</LongitudeDegrees>
            </Position>
            <AltitudeMeters>475.79998779296875</AltitudeMeters>
            <DistanceMeters>NAN</DistanceMeters>
          </Trackpoint>
          <Trackpoint>
            <Time>2019-10-10T08:05:53.000Z</Time>
            <Position>
              <LatitudeDegrees>38.28706123866140842437744140625</LatitudeDegrees>
              <LongitudeDegrees>-6.3105566985905170440673828125</LongitudeDegrees>
            </Position>
            <AltitudeMeters>475.600006103515625</AltitudeMeters>
            <DistanceMeters>NAN</DistanceMeters>
          </Trackpoint>
          <Trackpoint>
            <Time>2019-10-10T08:06:01.000Z</Time>
            <Position>
              <LatitudeDegrees>38.28671791590750217437744140625</LatitudeDegrees>
              <LongitudeDegrees>-6.310542784631252288818359375</LongitudeDegrees>
            </Position>
            <AltitudeMeters>477.20001220703125</AltitudeMeters>
            <DistanceMeters>NAN</DistanceMeters>
          </Trackpoint>
          <Trackpoint>
            <Time>2019-10-10T08:06:02.000Z</Time>
            <Position>
              <LatitudeDegrees>38.28668455593287944793701171875</LatitudeDegrees>
              <LongitudeDegrees>-6.31054588593542575836181640625</LongitudeDegrees>
            </Position>
            <AltitudeMeters>477</AltitudeMeters>
            <DistanceMeters>NAN</DistanceMeters>
          </Trackpoint>
          <Trackpoint>
            <Time>2019-10-10T08:06:08.000Z</Time>
            <Position>
              <LatitudeDegrees>38.28648355789482593536376953125</LatitudeDegrees>
              <LongitudeDegrees>-6.310540772974491119384765625</LongitudeDegrees>
            </Position>
            <AltitudeMeters>478.600006103515625</AltitudeMeters>
            <DistanceMeters>NAN</DistanceMeters>
          </Trackpoint>
          <Trackpoint>
            <Time>2019-10-10T08:06:10.000Z</Time>
            <Position>
              <LatitudeDegrees>38.2864162512123584747314453125</LatitudeDegrees>
              <LongitudeDegrees>-6.31054068915545940399169921875</LongitudeDegrees>
            </Position>
            <AltitudeMeters>478.399993896484375</AltitudeMeters>
            <DistanceMeters>NAN</DistanceMeters>
          </Trackpoint>
          <Trackpoint>
            <Time>2019-10-10T08:06:17.000Z</Time>
            <Position>
              <LatitudeDegrees>38.28618180938065052032470703125</LatitudeDegrees>
              <LongitudeDegrees>-6.31053012795746326446533203125</LongitudeDegrees>
            </Position>
            <AltitudeMeters>479.79998779296875</AltitudeMeters>
            <DistanceMeters>NAN</DistanceMeters>
          </Trackpoint>
          <Trackpoint>
            <Time>2019-10-10T08:06:20.000Z</Time>
            <Position>
              <LatitudeDegrees>38.28608089126646518707275390625</LatitudeDegrees>
              <LongitudeDegrees>-6.3105283677577972412109375</LongitudeDegrees>
            </Position>
            <AltitudeMeters>479.79998779296875</AltitudeMeters>
            <DistanceMeters>NAN</DistanceMeters>
          </Trackpoint>
          <Trackpoint>
            <Time>2019-10-10T08:06:25.000Z</Time>
            <Position>
              <LatitudeDegrees>38.2859173603355884552001953125</LatitudeDegrees>
              <LongitudeDegrees>-6.31052141077816486358642578125</LongitudeDegrees>
            </Position>
            <AltitudeMeters>480.399993896484375</AltitudeMeters>
            <DistanceMeters>NAN</DistanceMeters>
          </Trackpoint>
          <Trackpoint>
            <Time>2019-10-10T08:06:27.000Z</Time>
            <Position>
              <LatitudeDegrees>38.28585424460470676422119140625</LatitudeDegrees>
              <LongitudeDegrees>-6.31052124314010143280029296875</LongitudeDegrees>
            </Position>
            <AltitudeMeters>480.79998779296875</AltitudeMeters>
            <DistanceMeters>NAN</DistanceMeters>
          </Trackpoint>
          <Trackpoint>
            <Time>2019-10-10T08:06:30.000Z</Time>
            <Position>
              <LatitudeDegrees>38.28575961291790008544921875</LatitudeDegrees>
              <LongitudeDegrees>-6.31051965057849884033203125</LongitudeDegrees>
            </Position>
            <AltitudeMeters>481.79998779296875</AltitudeMeters>
            <DistanceMeters>NAN</DistanceMeters>
          </Trackpoint>
          <Trackpoint>
            <Time>2019-10-10T08:06:31.000Z</Time>
            <Position>
              <LatitudeDegrees>38.28572834841907024383544921875</LatitudeDegrees>
              <LongitudeDegrees>-6.310515291988849639892578125</LongitudeDegrees>
            </Position>
            <AltitudeMeters>482</AltitudeMeters>
            <DistanceMeters>NAN</DistanceMeters>
          </Trackpoint>
          <Trackpoint>
            <Time>2019-10-10T08:06:37.000Z</Time>
            <Position>
              <LatitudeDegrees>38.28553053550422191619873046875</LatitudeDegrees>
              <LongitudeDegrees>-6.310510933399200439453125</LongitudeDegrees>
            </Position>
            <AltitudeMeters>482.399993896484375</AltitudeMeters>
            <DistanceMeters>NAN</DistanceMeters>
          </Trackpoint>
          <Trackpoint>
            <Time>2019-10-10T08:06:39.000Z</Time>
            <Position>
              <LatitudeDegrees>38.2854647375643253326416015625</LatitudeDegrees>
              <LongitudeDegrees>-6.3105104304850101470947265625</LongitudeDegrees>
            </Position>
            <AltitudeMeters>483</AltitudeMeters>
            <DistanceMeters>NAN</DistanceMeters>
          </Trackpoint>
          <Trackpoint>
            <Time>2019-10-10T08:06:46.000Z</Time>
            <Position>
              <LatitudeDegrees>38.2852404378354549407958984375</LatitudeDegrees>
              <LongitudeDegrees>-6.3105015456676483154296875</LongitudeDegrees>
            </Position>
            <AltitudeMeters>484</AltitudeMeters>
            <DistanceMeters>NAN</DistanceMeters>
          </Trackpoint>
          <Trackpoint>
            <Time>2019-10-10T08:06:49.000Z</Time>
            <Position>
              <LatitudeDegrees>38.28514538705348968505859375</LatitudeDegrees>
              <LongitudeDegrees>-6.31049928255379199981689453125</LongitudeDegrees>
            </Position>
            <AltitudeMeters>484</AltitudeMeters>
            <DistanceMeters>NAN</DistanceMeters>
          </Trackpoint>
          <Trackpoint>
            <Time>2019-10-10T08:06:54.000Z</Time>
            <Position>
              <LatitudeDegrees>38.285006247460842132568359375</LatitudeDegrees>
              <LongitudeDegrees>-6.31049408577382564544677734375</LongitudeDegrees>
            </Position>
            <AltitudeMeters>485.399993896484375</AltitudeMeters>
            <DistanceMeters>NAN</DistanceMeters>
          </Trackpoint>
          <Trackpoint>
            <Time>2019-10-10T08:07:00.000Z</Time>
            <Position>
              <LatitudeDegrees>38.28483986668288707733154296875</LatitudeDegrees>
              <LongitudeDegrees>-6.3104893080890178680419921875</LongitudeDegrees>
            </Position>
            <AltitudeMeters>485.79998779296875</AltitudeMeters>
            <DistanceMeters>NAN</DistanceMeters>
          </Trackpoint>
          <Trackpoint>
            <Time>2019-10-10T08:07:05.000Z</Time>
            <Position>
              <LatitudeDegrees>38.28469670377671718597412109375</LatitudeDegrees>
              <LongitudeDegrees>-6.31048880517482757568359375</LongitudeDegrees>
            </Position>
            <AltitudeMeters>486.399993896484375</AltitudeMeters>
            <DistanceMeters>NAN</DistanceMeters>
          </Trackpoint>
          <Trackpoint>
            <Time>2019-10-10T08:07:09.000Z</Time>
            <Position>
              <LatitudeDegrees>38.28457868658006191253662109375</LatitudeDegrees>
              <LongitudeDegrees>-6.31048369221389293670654296875</LongitudeDegrees>
            </Position>
            <AltitudeMeters>486.79998779296875</AltitudeMeters>
            <DistanceMeters>NAN</DistanceMeters>
          </Trackpoint>
          <Trackpoint>
            <Time>2019-10-10T08:07:11.000Z</Time>
            <Position>
              <LatitudeDegrees>38.28451917506754398345947265625</LatitudeDegrees>
              <LongitudeDegrees>-6.31048033945262432098388671875</LongitudeDegrees>
            </Position>
            <AltitudeMeters>488</AltitudeMeters>
            <DistanceMeters>NAN</DistanceMeters>
          </Trackpoint>
          <Trackpoint>
            <Time>2019-10-10T08:07:19.000Z</Time>
            <Position>
              <LatitudeDegrees>38.2842902652919292449951171875</LatitudeDegrees>
              <LongitudeDegrees>-6.31047128699719905853271484375</LongitudeDegrees>
            </Position>
            <AltitudeMeters>488.600006103515625</AltitudeMeters>
            <DistanceMeters>NAN</DistanceMeters>
          </Trackpoint>
          <Trackpoint>
            <Time>2019-10-10T08:07:23.000Z</Time>
            <Position>
              <LatitudeDegrees>38.28417350538074970245361328125</LatitudeDegrees>
              <LongitudeDegrees>-6.31047396920621395111083984375</LongitudeDegrees>
            </Position>
            <AltitudeMeters>489.20001220703125</AltitudeMeters>
            <DistanceMeters>NAN</DistanceMeters>
          </Trackpoint>
          <Trackpoint>
            <Time>2019-10-10T08:07:29.000Z</Time>
            <Position>
              <LatitudeDegrees>38.2839979045093059539794921875</LatitudeDegrees>
              <LongitudeDegrees>-6.31046474911272525787353515625</LongitudeDegrees>
            </Position>
            <AltitudeMeters>489.399993896484375</AltitudeMeters>
            <DistanceMeters>NAN</DistanceMeters>
          </Trackpoint>
          <Trackpoint>
            <Time>2019-10-10T08:07:35.000Z</Time>
            <Position>
              <LatitudeDegrees>38.2838223874568939208984375</LatitudeDegrees>
              <LongitudeDegrees>-6.31046106107532978057861328125</LongitudeDegrees>
            </Position>
            <AltitudeMeters>490.20001220703125</AltitudeMeters>
            <DistanceMeters>NAN</DistanceMeters>
          </Trackpoint>
          <Trackpoint>
            <Time>2019-10-10T08:07:38.000Z</Time>
            <Position>
              <LatitudeDegrees>38.28373194672167301177978515625</LatitudeDegrees>
              <LongitudeDegrees>-6.310455612838268280029296875</LongitudeDegrees>
            </Position>
            <AltitudeMeters>490.600006103515625</AltitudeMeters>
            <DistanceMeters>NAN</DistanceMeters>
          </Trackpoint>
          <Trackpoint>
            <Time>2019-10-10T08:07:43.000Z</Time>
            <Position>
              <LatitudeDegrees>38.28358459286391735076904296875</LatitudeDegrees>
              <LongitudeDegrees>-6.31045435555279254913330078125</LongitudeDegrees>
            </Position>
            <AltitudeMeters>491.399993896484375</AltitudeMeters>
            <DistanceMeters>NAN</DistanceMeters>
          </Trackpoint>
          <Trackpoint>
            <Time>2019-10-10T08:07:48.000Z</Time>
            <Position>
              <LatitudeDegrees>38.28343212604522705078125</LatitudeDegrees>
              <LongitudeDegrees>-6.31045033223927021026611328125</LongitudeDegrees>
            </Position>
            <AltitudeMeters>491.399993896484375</AltitudeMeters>
            <DistanceMeters>NAN</DistanceMeters>
          </Trackpoint>
          <Trackpoint>
            <Time>2019-10-10T08:07:54.000Z</Time>
            <Position>
              <LatitudeDegrees>38.28324881382286548614501953125</LatitudeDegrees>
              <LongitudeDegrees>-6.310446560382843017578125</LongitudeDegrees>
            </Position>
            <AltitudeMeters>492.399993896484375</AltitudeMeters>
            <DistanceMeters>NAN</DistanceMeters>
          </Trackpoint>
          <Trackpoint>
            <Time>2019-10-10T08:07:59.000Z</Time>
            <Position>
              <LatitudeDegrees>38.283095844089984893798828125</LatitudeDegrees>
              <LongitudeDegrees>-6.31043516099452972412109375</LongitudeDegrees>
            </Position>
            <AltitudeMeters>492.399993896484375</AltitudeMeters>
            <DistanceMeters>NAN</DistanceMeters>
          </Trackpoint>
          <Trackpoint>
            <Time>2019-10-10T08:08:06.000Z</Time>
            <Position>
              <LatitudeDegrees>38.2828831113874912261962890625</LatitudeDegrees>
              <LongitudeDegrees>-6.31044647656381130218505859375</LongitudeDegrees>
            </Position>
            <AltitudeMeters>492.79998779296875</AltitudeMeters>
            <DistanceMeters>NAN</DistanceMeters>
          </Trackpoint>
          <Trackpoint>
            <Time>2019-10-10T08:08:14.000Z</Time>
            <Position>
              <LatitudeDegrees>38.282631151378154754638671875</LatitudeDegrees>
              <LongitudeDegrees>-6.31043859757483005523681640625</LongitudeDegrees>
            </Position>
            <AltitudeMeters>493.399993896484375</AltitudeMeters>
            <DistanceMeters>NAN</DistanceMeters>
          </Trackpoint>
          <Trackpoint>
            <Time>2019-10-10T08:08:15.000Z</Time>
            <Position>
              <LatitudeDegrees>38.28260022215545177459716796875</LatitudeDegrees>
              <LongitudeDegrees>-6.310437507927417755126953125</LongitudeDegrees>
            </Position>
            <AltitudeMeters>493.600006103515625</AltitudeMeters>
            <DistanceMeters>NAN</DistanceMeters>
          </Trackpoint>
          <Trackpoint>
            <Time>2019-10-10T08:08:22.000Z</Time>
            <Position>
              <LatitudeDegrees>38.28238883055746555328369140625</LatitudeDegrees>
              <LongitudeDegrees>-6.3104326464235782623291015625</LongitudeDegrees>
            </Position>
            <AltitudeMeters>494</AltitudeMeters>
            <DistanceMeters>NAN</DistanceMeters>
          </Trackpoint>
          <Trackpoint>
            <Time>2019-10-10T08:08:28.000Z</Time>
            <Position>
              <LatitudeDegrees>38.28220191411674022674560546875</LatitudeDegrees>
              <LongitudeDegrees>-6.3104262761771678924560546875</LongitudeDegrees>
            </Position>
            <AltitudeMeters>494.600006103515625</AltitudeMeters>
            <DistanceMeters>NAN</DistanceMeters>
          </Trackpoint>
          <Trackpoint>
            <Time>2019-10-10T08:08:30.000Z</Time>
            <Position>
              <LatitudeDegrees>38.28213921748101711273193359375</LatitudeDegrees>
              <LongitudeDegrees>-6.31042468361556529998779296875</LongitudeDegrees>
            </Position>
            <AltitudeMeters>494.79998779296875</AltitudeMeters>
            <DistanceMeters>NAN</DistanceMeters>
          </Trackpoint>
          <Trackpoint>
            <Time>2019-10-10T08:08:42.000Z</Time>
            <Position>
              <LatitudeDegrees>38.281763456761837005615234375</LatitudeDegrees>
              <LongitudeDegrees>-6.31041211076080799102783203125</LongitudeDegrees>
            </Position>
            <AltitudeMeters>495.20001220703125</AltitudeMeters>
            <DistanceMeters>NAN</DistanceMeters>
          </Trackpoint>
          <Trackpoint>
            <Time>2019-10-10T08:08:46.000Z</Time>
            <Position>
              <LatitudeDegrees>38.28163714148104190826416015625</LatitudeDegrees>
              <LongitudeDegrees>-6.31041093729436397552490234375</LongitudeDegrees>
            </Position>
            <AltitudeMeters>495.600006103515625</AltitudeMeters>
            <DistanceMeters>NAN</DistanceMeters>
          </Trackpoint>
          <Trackpoint>
            <Time>2019-10-10T08:08:54.000Z</Time>
            <Position>
              <LatitudeDegrees>38.28138761222362518310546875</LatitudeDegrees>
              <LongitudeDegrees>-6.31041194312274456024169921875</LongitudeDegrees>
            </Position>
            <AltitudeMeters>496</AltitudeMeters>
            <DistanceMeters>NAN</DistanceMeters>
          </Trackpoint>
          <Trackpoint>
            <Time>2019-10-10T08:08:57.000Z</Time>
            <Position>
              <LatitudeDegrees>38.28129247762262821197509765625</LatitudeDegrees>
              <LongitudeDegrees>-6.3103954307734966278076171875</LongitudeDegrees>
            </Position>
            <AltitudeMeters>496.79998779296875</AltitudeMeters>
            <DistanceMeters>NAN</DistanceMeters>
          </Trackpoint>
          <Trackpoint>
            <Time>2019-10-10T08:09:03.000Z</Time>
            <Position>
              <LatitudeDegrees>38.2810977660119533538818359375</LatitudeDegrees>
              <LongitudeDegrees>-6.3103781640529632568359375</LongitudeDegrees>
            </Position>
            <AltitudeMeters>496.600006103515625</AltitudeMeters>
            <DistanceMeters>NAN</DistanceMeters>
          </Trackpoint>
          <Trackpoint>
            <Time>2019-10-10T08:09:09.000Z</Time>
            <Position>
              <LatitudeDegrees>38.2809039764106273651123046875</LatitudeDegrees>
              <LongitudeDegrees>-6.3103562034666538238525390625</LongitudeDegrees>
            </Position>
            <AltitudeMeters>497.20001220703125</AltitudeMeters>
            <DistanceMeters>NAN</DistanceMeters>
          </Trackpoint>
          <Trackpoint>
            <Time>2019-10-10T08:09:17.000Z</Time>
            <Position>
              <LatitudeDegrees>38.280597366392612457275390625</LatitudeDegrees>
              <LongitudeDegrees>-6.31028755567967891693115234375</LongitudeDegrees>
            </Position>
            <AltitudeMeters>496.600006103515625</AltitudeMeters>
            <DistanceMeters>NAN</DistanceMeters>
          </Trackpoint>
          <Trackpoint>
            <Time>2019-10-10T08:09:25.000Z</Time>
            <Position>
              <LatitudeDegrees>38.2802625931799411773681640625</LatitudeDegrees>
              <LongitudeDegrees>-6.310145147144794464111328125</LongitudeDegrees>
            </Position>
            <AltitudeMeters>496.600006103515625</AltitudeMeters>
            <DistanceMeters>NAN</DistanceMeters>
          </Trackpoint>
          <Trackpoint>
            <Time>2019-10-10T08:09:37.000Z</Time>
            <Position>
              <LatitudeDegrees>38.27976311556994915008544921875</LatitudeDegrees>
              <LongitudeDegrees>-6.309893690049648284912109375</LongitudeDegrees>
            </Position>
            <AltitudeMeters>496.79998779296875</AltitudeMeters>
            <DistanceMeters>NAN</DistanceMeters>
          </Trackpoint>
          <Trackpoint>
            <Time>2019-10-10T08:09:49.000Z</Time>
            <Position>
              <LatitudeDegrees>38.27927964739501476287841796875</LatitudeDegrees>
              <LongitudeDegrees>-6.30962915718555450439453125</LongitudeDegrees>
            </Position>
            <AltitudeMeters>497.20001220703125</AltitudeMeters>
            <DistanceMeters>NAN</DistanceMeters>
          </Trackpoint>
          <Trackpoint>
            <Time>2019-10-10T08:09:55.000Z</Time>
            <Position>
              <LatitudeDegrees>38.27904495410621166229248046875</LatitudeDegrees>
              <LongitudeDegrees>-6.30949948914349079132080078125</LongitudeDegrees>
            </Position>
            <AltitudeMeters>498</AltitudeMeters>
            <DistanceMeters>NAN</DistanceMeters>
          </Trackpoint>
          <Trackpoint>
            <Time>2019-10-10T08:10:01.000Z</Time>
            <Position>
              <LatitudeDegrees>38.278813026845455169677734375</LatitudeDegrees>
              <LongitudeDegrees>-6.3093738444149494171142578125</LongitudeDegrees>
            </Position>
            <AltitudeMeters>499</AltitudeMeters>
            <DistanceMeters>NAN</DistanceMeters>
          </Trackpoint>
          <Trackpoint>
            <Time>2019-10-10T08:10:03.000Z</Time>
            <Position>
              <LatitudeDegrees>38.27873624861240386962890625</LatitudeDegrees>
              <LongitudeDegrees>-6.3093349523842334747314453125</LongitudeDegrees>
            </Position>
            <AltitudeMeters>499.20001220703125</AltitudeMeters>
            <DistanceMeters>NAN</DistanceMeters>
          </Trackpoint>
          <Trackpoint>
            <Time>2019-10-10T08:10:07.000Z</Time>
            <Position>
              <LatitudeDegrees>38.27858696691691875457763671875</LatitudeDegrees>
              <LongitudeDegrees>-6.3092564977705478668212890625</LongitudeDegrees>
            </Position>
            <AltitudeMeters>499.20001220703125</AltitudeMeters>
            <DistanceMeters>NAN</DistanceMeters>
          </Trackpoint>
          <Trackpoint>
            <Time>2019-10-10T08:10:09.000Z</Time>
            <Position>
              <LatitudeDegrees>38.27851220034062862396240234375</LatitudeDegrees>
              <LongitudeDegrees>-6.3092149235308170318603515625</LongitudeDegrees>
            </Position>
            <AltitudeMeters>499.600006103515625</AltitudeMeters>
            <DistanceMeters>NAN</DistanceMeters>
          </Trackpoint>
          <Trackpoint>
            <Time>2019-10-10T08:10:12.000Z</Time>
            <Position>
              <LatitudeDegrees>38.27839963138103485107421875</LatitudeDegrees>
              <LongitudeDegrees>-6.30915348418056964874267578125</LongitudeDegrees>
            </Position>
            <AltitudeMeters>500.20001220703125</AltitudeMeters>
            <DistanceMeters>NAN</DistanceMeters>
          </Trackpoint>
          <Trackpoint>
            <Time>2019-10-10T08:10:16.000Z</Time>
            <Position>
              <LatitudeDegrees>38.27824330888688564300537109375</LatitudeDegrees>
              <LongitudeDegrees>-6.30907419137656688690185546875</LongitudeDegrees>
            </Position>
            <AltitudeMeters>500</AltitudeMeters>
            <DistanceMeters>NAN</DistanceMeters>
          </Trackpoint>
          <Trackpoint>
            <Time>2019-10-10T08:10:17.000Z</Time>
            <Position>
              <LatitudeDegrees>38.27820609323680400848388671875</LatitudeDegrees>
              <LongitudeDegrees>-6.30905373953282833099365234375</LongitudeDegrees>
            </Position>
            <AltitudeMeters>500.20001220703125</AltitudeMeters>
            <DistanceMeters>NAN</DistanceMeters>
          </Trackpoint>
          <Trackpoint>
            <Time>2019-10-10T08:10:20.000Z</Time>
            <Position>
              <LatitudeDegrees>38.27809310518205165863037109375</LatitudeDegrees>
              <LongitudeDegrees>-6.3089941442012786865234375</LongitudeDegrees>
            </Position>
            <AltitudeMeters>500.600006103515625</AltitudeMeters>
            <DistanceMeters>NAN</DistanceMeters>
          </Trackpoint>
          <Trackpoint>
            <Time>2019-10-10T08:10:25.000Z</Time>
            <Position>
              <LatitudeDegrees>38.277908451855182647705078125</LatitudeDegrees>
              <LongitudeDegrees>-6.30890135653316974639892578125</LongitudeDegrees>
            </Position>
            <AltitudeMeters>501.399993896484375</AltitudeMeters>
            <DistanceMeters>NAN</DistanceMeters>
          </Trackpoint>
          <Trackpoint>
            <Time>2019-10-10T08:10:28.000Z</Time>
            <Position>
              <LatitudeDegrees>38.2778030075132846832275390625</LatitudeDegrees>
              <LongitudeDegrees>-6.3088434375822544097900390625</LongitudeDegrees>
            </Position>
            <AltitudeMeters>501.600006103515625</AltitudeMeters>
            <DistanceMeters>NAN</DistanceMeters>
          </Trackpoint>
          <Trackpoint>
            <Time>2019-10-10T08:10:34.000Z</Time>
            <Position>
              <LatitudeDegrees>38.27758826315402984619140625</LatitudeDegrees>
              <LongitudeDegrees>-6.308723576366901397705078125</LongitudeDegrees>
            </Position>
            <AltitudeMeters>502.399993896484375</AltitudeMeters>
            <DistanceMeters>NAN</DistanceMeters>
          </Trackpoint>
          <Trackpoint>
            <Time>2019-10-10T08:10:37.000Z</Time>
            <Position>
              <LatitudeDegrees>38.2774811424314975738525390625</LatitudeDegrees>
              <LongitudeDegrees>-6.3086697645485401153564453125</LongitudeDegrees>
            </Position>
            <AltitudeMeters>502.79998779296875</AltitudeMeters>
            <DistanceMeters>NAN</DistanceMeters>
          </Trackpoint>
          <Trackpoint>
            <Time>2019-10-10T08:10:47.000Z</Time>
            <Position>
              <LatitudeDegrees>38.27711862511932849884033203125</LatitudeDegrees>
              <LongitudeDegrees>-6.3084779866039752960205078125</LongitudeDegrees>
            </Position>
            <AltitudeMeters>503.399993896484375</AltitudeMeters>
            <DistanceMeters>NAN</DistanceMeters>
          </Trackpoint>
          <Trackpoint>
            <Time>2019-10-10T08:10:58.000Z</Time>
            <Position>
              <LatitudeDegrees>38.27670120634138584136962890625</LatitudeDegrees>
              <LongitudeDegrees>-6.3082818500697612762451171875</LongitudeDegrees>
            </Position>
            <AltitudeMeters>503.79998779296875</AltitudeMeters>
            <DistanceMeters>NAN</DistanceMeters>
          </Trackpoint>
          <Trackpoint>
            <Time>2019-10-10T08:11:06.000Z</Time>
            <Position>
              <LatitudeDegrees>38.27641605399549007415771484375</LatitudeDegrees>
              <LongitudeDegrees>-6.30815922282636165618896484375</LongitudeDegrees>
            </Position>
            <AltitudeMeters>503.600006103515625</AltitudeMeters>
            <DistanceMeters>NAN</DistanceMeters>
          </Trackpoint>
          <Trackpoint>
            <Time>2019-10-10T08:11:09.000Z</Time>
            <Position>
              <LatitudeDegrees>38.276305161416530609130859375</LatitudeDegrees>
              <LongitudeDegrees>-6.308122761547565460205078125</LongitudeDegrees>
            </Position>
            <AltitudeMeters>503.20001220703125</AltitudeMeters>
            <DistanceMeters>NAN</DistanceMeters>
          </Trackpoint>
          <Trackpoint>
            <Time>2019-10-10T08:11:12.000Z</Time>
            <Position>
              <LatitudeDegrees>38.27618521638214588165283203125</LatitudeDegrees>
              <LongitudeDegrees>-6.3080867193639278411865234375</LongitudeDegrees>
            </Position>
            <AltitudeMeters>503</AltitudeMeters>
            <DistanceMeters>NAN</DistanceMeters>
          </Trackpoint>
          <Trackpoint>
            <Time>2019-10-10T08:11:15.000Z</Time>
            <Position>
              <LatitudeDegrees>38.27605269849300384521484375</LatitudeDegrees>
              <LongitudeDegrees>-6.3080682791769504547119140625</LongitudeDegrees>
            </Position>
            <AltitudeMeters>502.20001220703125</AltitudeMeters>
            <DistanceMeters>NAN</DistanceMeters>
          </Trackpoint>
          <Trackpoint>
            <Time>2019-10-10T08:11:18.000Z</Time>
            <Position>
              <LatitudeDegrees>38.27590794302523136138916015625</LatitudeDegrees>
              <LongitudeDegrees>-6.30803181789815425872802734375</LongitudeDegrees>
            </Position>
            <AltitudeMeters>502</AltitudeMeters>
            <DistanceMeters>NAN</DistanceMeters>
          </Trackpoint>
          <Trackpoint>
            <Time>2019-10-10T08:11:21.000Z</Time>
            <Position>
              <LatitudeDegrees>38.27574868686497211456298828125</LatitudeDegrees>
              <LongitudeDegrees>-6.30798898637294769287109375</LongitudeDegrees>
            </Position>
            <AltitudeMeters>501</AltitudeMeters>
            <DistanceMeters>NAN</DistanceMeters>
          </Trackpoint>
          <Trackpoint>
            <Time>2019-10-10T08:11:23.000Z</Time>
            <Position>
              <LatitudeDegrees>38.27563636936247348785400390625</LatitudeDegrees>
              <LongitudeDegrees>-6.3079579733312129974365234375</LongitudeDegrees>
            </Position>
            <AltitudeMeters>500.399993896484375</AltitudeMeters>
            <DistanceMeters>NAN</DistanceMeters>
          </Trackpoint>
          <Trackpoint>
            <Time>2019-10-10T08:11:24.000Z</Time>
            <Position>
              <LatitudeDegrees>38.27557853423058986663818359375</LatitudeDegrees>
              <LongitudeDegrees>-6.30794330500066280364990234375</LongitudeDegrees>
            </Position>
            <AltitudeMeters>500.20001220703125</AltitudeMeters>
            <DistanceMeters>NAN</DistanceMeters>
          </Trackpoint>
          <Trackpoint>
            <Time>2019-10-10T08:11:25.000Z</Time>
            <Position>
              <LatitudeDegrees>38.27551868744194507598876953125</LatitudeDegrees>
              <LongitudeDegrees>-6.307928301393985748291015625</LongitudeDegrees>
            </Position>
            <AltitudeMeters>500</AltitudeMeters>
            <DistanceMeters>NAN</DistanceMeters>
          </Trackpoint>
          <Trackpoint>
            <Time>2019-10-10T08:11:29.000Z</Time>
            <Position>
              <LatitudeDegrees>38.2752653025090694427490234375</LatitudeDegrees>
              <LongitudeDegrees>-6.307862587273120880126953125</LongitudeDegrees>
            </Position>
            <AltitudeMeters>499</AltitudeMeters>
            <DistanceMeters>NAN</DistanceMeters>
          </Trackpoint>
          <Trackpoint>
            <Time>2019-10-10T08:11:32.000Z</Time>
            <Position>
              <LatitudeDegrees>38.27506690286099910736083984375</LatitudeDegrees>
              <LongitudeDegrees>-6.3078127987682819366455078125</LongitudeDegrees>
            </Position>
            <AltitudeMeters>498.20001220703125</AltitudeMeters>
            <DistanceMeters>NAN</DistanceMeters>
          </Trackpoint>
          <Trackpoint>
            <Time>2019-10-10T08:11:33.000Z</Time>
            <Position>
              <LatitudeDegrees>38.27499967999756336212158203125</LatitudeDegrees>
              <LongitudeDegrees>-6.30779561586678028106689453125</LongitudeDegrees>
            </Position>
            <AltitudeMeters>497.600006103515625</AltitudeMeters>
            <DistanceMeters>NAN</DistanceMeters>
          </Trackpoint>
          <Trackpoint>
            <Time>2019-10-10T08:11:35.000Z</Time>
            <Position>
              <LatitudeDegrees>38.274864144623279571533203125</LatitudeDegrees>
              <LongitudeDegrees>-6.30776577629148960113525390625</LongitudeDegrees>
            </Position>
            <AltitudeMeters>496.600006103515625</AltitudeMeters>
            <DistanceMeters>NAN</DistanceMeters>
          </Trackpoint>
          <Trackpoint>
            <Time>2019-10-10T08:11:41.000Z</Time>
            <Position>
              <LatitudeDegrees>38.27445820905268192291259765625</LatitudeDegrees>
              <LongitudeDegrees>-6.30766854621469974517822265625</LongitudeDegrees>
            </Position>
            <AltitudeMeters>496</AltitudeMeters>
            <DistanceMeters>NAN</DistanceMeters>
          </Trackpoint>
          <Trackpoint>
            <Time>2019-10-10T08:11:44.000Z</Time>
            <Position>
              <LatitudeDegrees>38.27425704337656497955322265625</LatitudeDegrees>
              <LongitudeDegrees>-6.30761892534792423248291015625</LongitudeDegrees>
            </Position>
            <AltitudeMeters>495</AltitudeMeters>
            <DistanceMeters>NAN</DistanceMeters>
          </Trackpoint>
          <Trackpoint>
            <Time>2019-10-10T08:11:52.000Z</Time>
            <Position>
              <LatitudeDegrees>38.27376267872750759124755859375</LatitudeDegrees>
              <LongitudeDegrees>-6.3074974715709686279296875</LongitudeDegrees>
            </Position>
            <AltitudeMeters>495.20001220703125</AltitudeMeters>
            <DistanceMeters>NAN</DistanceMeters>
          </Trackpoint>
          <Trackpoint>
            <Time>2019-10-10T08:12:02.000Z</Time>
            <Position>
              <LatitudeDegrees>38.273211903870105743408203125</LatitudeDegrees>
              <LongitudeDegrees>-6.307364366948604583740234375</LongitudeDegrees>
            </Position>
            <AltitudeMeters>495.399993896484375</AltitudeMeters>
            <DistanceMeters>NAN</DistanceMeters>
          </Trackpoint>
          <Trackpoint>
            <Time>2019-10-10T08:12:12.000Z</Time>
            <Position>
              <LatitudeDegrees>38.27269046567380428314208984375</LatitudeDegrees>
              <LongitudeDegrees>-6.307232268154621124267578125</LongitudeDegrees>
            </Position>
            <AltitudeMeters>495.600006103515625</AltitudeMeters>
            <DistanceMeters>NAN</DistanceMeters>
          </Trackpoint>
          <Trackpoint>
            <Time>2019-10-10T08:12:14.000Z</Time>
            <Position>
              <LatitudeDegrees>38.2725847698748111724853515625</LatitudeDegrees>
              <LongitudeDegrees>-6.3072052784264087677001953125</LongitudeDegrees>
            </Position>
            <AltitudeMeters>495.600006103515625</AltitudeMeters>
            <DistanceMeters>NAN</DistanceMeters>
          </Trackpoint>
          <Trackpoint>
            <Time>2019-10-10T08:12:22.000Z</Time>
            <Position>
              <LatitudeDegrees>38.27217011712491512298583984375</LatitudeDegrees>
              <LongitudeDegrees>-6.307104863226413726806640625</LongitudeDegrees>
            </Position>
            <AltitudeMeters>495.20001220703125</AltitudeMeters>
            <DistanceMeters>NAN</DistanceMeters>
          </Trackpoint>
          <Trackpoint>
            <Time>2019-10-10T08:12:25.000Z</Time>
            <Position>
              <LatitudeDegrees>38.2720171473920345306396484375</LatitudeDegrees>
              <LongitudeDegrees>-6.307067312300205230712890625</LongitudeDegrees>
            </Position>
            <AltitudeMeters>495.399993896484375</AltitudeMeters>
            <DistanceMeters>NAN</DistanceMeters>
          </Trackpoint>
          <Trackpoint>
            <Time>2019-10-10T08:12:36.000Z</Time>
            <Position>
              <LatitudeDegrees>38.2714547216892242431640625</LatitudeDegrees>
              <LongitudeDegrees>-6.30692976526916027069091796875</LongitudeDegrees>
            </Position>
            <AltitudeMeters>495.20001220703125</AltitudeMeters>
            <DistanceMeters>NAN</DistanceMeters>
          </Trackpoint>
          <Trackpoint>
            <Time>2019-10-10T08:12:41.000Z</Time>
            <Position>
              <LatitudeDegrees>38.27117753215134143829345703125</LatitudeDegrees>
              <LongitudeDegrees>-6.30686421878635883331298828125</LongitudeDegrees>
            </Position>
            <AltitudeMeters>494</AltitudeMeters>
            <DistanceMeters>NAN</DistanceMeters>
          </Trackpoint>
          <Trackpoint>
            <Time>2019-10-10T08:12:45.000Z</Time>
            <Position>
              <LatitudeDegrees>38.27094183303415775299072265625</LatitudeDegrees>
              <LongitudeDegrees>-6.306800432503223419189453125</LongitudeDegrees>
            </Position>
            <AltitudeMeters>494.20001220703125</AltitudeMeters>
            <DistanceMeters>NAN</DistanceMeters>
          </Trackpoint>
          <Trackpoint>
            <Time>2019-10-10T08:12:53.000Z</Time>
            <Position>
              <LatitudeDegrees>38.27045492827892303466796875</LatitudeDegrees>
              <LongitudeDegrees>-6.3066805712878704071044921875</LongitudeDegrees>
            </Position>
            <AltitudeMeters>493</AltitudeMeters>
            <DistanceMeters>NAN</DistanceMeters>
          </Trackpoint>
          <Trackpoint>
            <Time>2019-10-10T08:12:55.000Z</Time>
            <Position>
              <LatitudeDegrees>38.270337246358394622802734375</LatitudeDegrees>
              <LongitudeDegrees>-6.306649558246135711669921875</LongitudeDegrees>
            </Position>
            <AltitudeMeters>493</AltitudeMeters>
            <DistanceMeters>NAN</DistanceMeters>
          </Trackpoint>
          <Trackpoint>
            <Time>2019-10-10T08:13:00.000Z</Time>
            <Position>
              <LatitudeDegrees>38.27004161663353443145751953125</LatitudeDegrees>
              <LongitudeDegrees>-6.3065746240317821502685546875</LongitudeDegrees>
            </Position>
            <AltitudeMeters>491.79998779296875</AltitudeMeters>
            <DistanceMeters>NAN</DistanceMeters>
          </Trackpoint>
          <Trackpoint>
            <Time>2019-10-10T08:13:05.000Z</Time>
            <Position>
              <LatitudeDegrees>38.2697526924312114715576171875</LatitudeDegrees>
              <LongitudeDegrees>-6.3064998574554920196533203125</LongitudeDegrees>
            </Position>
            <AltitudeMeters>492</AltitudeMeters>
            <DistanceMeters>NAN</DistanceMeters>
          </Trackpoint>
          <Trackpoint>
            <Time>2019-10-10T08:13:15.000Z</Time>
            <Position>
              <LatitudeDegrees>38.26918599195778369903564453125</LatitudeDegrees>
              <LongitudeDegrees>-6.30635895766317844390869140625</LongitudeDegrees>
            </Position>
            <AltitudeMeters>491.600006103515625</AltitudeMeters>
            <DistanceMeters>NAN</DistanceMeters>
          </Trackpoint>
          <Trackpoint>
            <Time>2019-10-10T08:13:19.000Z</Time>
            <Position>
              <LatitudeDegrees>38.26895398087799549102783203125</LatitudeDegrees>
              <LongitudeDegrees>-6.30630196072161197662353515625</LongitudeDegrees>
            </Position>
            <AltitudeMeters>491.600006103515625</AltitudeMeters>
            <DistanceMeters>NAN</DistanceMeters>
          </Trackpoint>
          <Trackpoint>
            <Time>2019-10-10T08:13:22.000Z</Time>
            <Position>
              <LatitudeDegrees>38.26877444051206111907958984375</LatitudeDegrees>
              <LongitudeDegrees>-6.30625493824481964111328125</LongitudeDegrees>
            </Position>
            <AltitudeMeters>490.79998779296875</AltitudeMeters>
            <DistanceMeters>NAN</DistanceMeters>
          </Trackpoint>
          <Trackpoint>
            <Time>2019-10-10T08:13:24.000Z</Time>
            <Position>
              <LatitudeDegrees>38.26865114271640777587890625</LatitudeDegrees>
              <LongitudeDegrees>-6.30623037926852703094482421875</LongitudeDegrees>
            </Position>
            <AltitudeMeters>490.20001220703125</AltitudeMeters>
            <DistanceMeters>NAN</DistanceMeters>
          </Trackpoint>
          <Trackpoint>
            <Time>2019-10-10T08:13:30.000Z</Time>
            <Position>
              <LatitudeDegrees>38.26827689073979854583740234375</LatitudeDegrees>
              <LongitudeDegrees>-6.30613013170659542083740234375</LongitudeDegrees>
            </Position>
            <AltitudeMeters>489.79998779296875</AltitudeMeters>
            <DistanceMeters>NAN</DistanceMeters>
          </Trackpoint>
          <Trackpoint>
            <Time>2019-10-10T08:13:31.000Z</Time>
            <Position>
              <LatitudeDegrees>38.26821100898087024688720703125</LatitudeDegrees>
              <LongitudeDegrees>-6.3061161339282989501953125</LongitudeDegrees>
            </Position>
            <AltitudeMeters>489.600006103515625</AltitudeMeters>
            <DistanceMeters>NAN</DistanceMeters>
          </Trackpoint>
          <Trackpoint>
            <Time>2019-10-10T08:13:34.000Z</Time>
            <Position>
              <LatitudeDegrees>38.26801302842795848846435546875</LatitudeDegrees>
              <LongitudeDegrees>-6.3060665130615234375</LongitudeDegrees>
            </Position>
            <AltitudeMeters>488.399993896484375</AltitudeMeters>
            <DistanceMeters>NAN</DistanceMeters>
          </Trackpoint>
          <Trackpoint>
            <Time>2019-10-10T08:13:39.000Z</Time>
            <Position>
              <LatitudeDegrees>38.26769267208874225616455078125</LatitudeDegrees>
              <LongitudeDegrees>-6.30599015392363071441650390625</LongitudeDegrees>
            </Position>
            <AltitudeMeters>488</AltitudeMeters>
            <DistanceMeters>NAN</DistanceMeters>
          </Trackpoint>
          <Trackpoint>
            <Time>2019-10-10T08:13:44.000Z</Time>
            <Position>
              <LatitudeDegrees>38.26740902848541736602783203125</LatitudeDegrees>
              <LongitudeDegrees>-6.30592326633632183074951171875</LongitudeDegrees>
            </Position>
            <AltitudeMeters>488.79998779296875</AltitudeMeters>
            <DistanceMeters>NAN</DistanceMeters>
          </Trackpoint>
          <Trackpoint>
            <Time>2019-10-10T08:13:46.000Z</Time>
            <Position>
              <LatitudeDegrees>38.2672971300780773162841796875</LatitudeDegrees>
              <LongitudeDegrees>-6.305896528065204620361328125</LongitudeDegrees>
            </Position>
            <AltitudeMeters>488.600006103515625</AltitudeMeters>
            <DistanceMeters>NAN</DistanceMeters>
          </Trackpoint>
          <Trackpoint>
            <Time>2019-10-10T08:13:50.000Z</Time>
            <Position>
              <LatitudeDegrees>38.26707107014954090118408203125</LatitudeDegrees>
              <LongitudeDegrees>-6.3058383576571941375732421875</LongitudeDegrees>
            </Position>
            <AltitudeMeters>488.600006103515625</AltitudeMeters>
            <DistanceMeters>NAN</DistanceMeters>
          </Trackpoint>
          <Trackpoint>
            <Time>2019-10-10T08:13:52.000Z</Time>
            <Position>
              <LatitudeDegrees>38.2669621892273426055908203125</LatitudeDegrees>
              <LongitudeDegrees>-6.30580826662480831146240234375</LongitudeDegrees>
            </Position>
            <AltitudeMeters>488.79998779296875</AltitudeMeters>
            <DistanceMeters>NAN</DistanceMeters>
          </Trackpoint>
          <Trackpoint>
            <Time>2019-10-10T08:13:54.000Z</Time>
            <Position>
              <LatitudeDegrees>38.2668538950383663177490234375</LatitudeDegrees>
              <LongitudeDegrees>-6.30578219890594482421875</LongitudeDegrees>
            </Position>
            <AltitudeMeters>488.600006103515625</AltitudeMeters>
            <DistanceMeters>NAN</DistanceMeters>
          </Trackpoint>
          <Trackpoint>
            <Time>2019-10-10T08:14:02.000Z</Time>
            <Position>
              <LatitudeDegrees>38.2664363086223602294921875</LatitudeDegrees>
              <LongitudeDegrees>-6.305677592754364013671875</LongitudeDegrees>
            </Position>
            <AltitudeMeters>488.600006103515625</AltitudeMeters>
            <DistanceMeters>NAN</DistanceMeters>
          </Trackpoint>
          <Trackpoint>
            <Time>2019-10-10T08:14:03.000Z</Time>
            <Position>
              <LatitudeDegrees>38.26638408936560153961181640625</LatitudeDegrees>
              <LongitudeDegrees>-6.3056660257279872894287109375</LongitudeDegrees>
            </Position>
            <AltitudeMeters>488.79998779296875</AltitudeMeters>
            <DistanceMeters>NAN</DistanceMeters>
          </Trackpoint>
          <Trackpoint>
            <Time>2019-10-10T08:14:06.000Z</Time>
            <Position>
              <LatitudeDegrees>38.26623019762337207794189453125</LatitudeDegrees>
              <LongitudeDegrees>-6.30562596023082733154296875</LongitudeDegrees>
            </Position>
            <AltitudeMeters>489</AltitudeMeters>
            <DistanceMeters>NAN</DistanceMeters>
          </Trackpoint>
          <Trackpoint>
            <Time>2019-10-10T08:14:08.000Z</Time>
            <Position>
              <LatitudeDegrees>38.2661323808133602142333984375</LatitudeDegrees>
              <LongitudeDegrees>-6.30560182034969329833984375</LongitudeDegrees>
            </Position>
            <AltitudeMeters>489.399993896484375</AltitudeMeters>
            <DistanceMeters>NAN</DistanceMeters>
          </Trackpoint>
          <Trackpoint>
            <Time>2019-10-10T08:14:11.000Z</Time>
            <Position>
              <LatitudeDegrees>38.26599734835326671600341796875</LatitudeDegrees>
              <LongitudeDegrees>-6.30557005293667316436767578125</LongitudeDegrees>
            </Position>
            <AltitudeMeters>490</AltitudeMeters>
            <DistanceMeters>NAN</DistanceMeters>
          </Trackpoint>
          <Trackpoint>
            <Time>2019-10-10T08:14:12.000Z</Time>
            <Position>
              <LatitudeDegrees>38.2659535109996795654296875</LatitudeDegrees>
              <LongitudeDegrees>-6.3055597431957721710205078125</LongitudeDegrees>
            </Position>
            <AltitudeMeters>490.399993896484375</AltitudeMeters>
            <DistanceMeters>NAN</DistanceMeters>
          </Trackpoint>
          <Trackpoint>
            <Time>2019-10-10T08:14:14.000Z</Time>
            <Position>
              <LatitudeDegrees>38.265868015587329864501953125</LatitudeDegrees>
              <LongitudeDegrees>-6.3055345974862575531005859375</LongitudeDegrees>
            </Position>
            <AltitudeMeters>490.399993896484375</AltitudeMeters>
            <DistanceMeters>NAN</DistanceMeters>
          </Trackpoint>
          <Trackpoint>
            <Time>2019-10-10T08:14:19.000Z</Time>
            <Position>
              <LatitudeDegrees>38.26567447744309902191162109375</LatitudeDegrees>
              <LongitudeDegrees>-6.3054900057613849639892578125</LongitudeDegrees>
            </Position>
            <AltitudeMeters>491.600006103515625</AltitudeMeters>
            <DistanceMeters>NAN</DistanceMeters>
          </Trackpoint>
          <Trackpoint>
            <Time>2019-10-10T08:14:20.000Z</Time>
            <Position>
              <LatitudeDegrees>38.26563633978366851806640625</LatitudeDegrees>
              <LongitudeDegrees>-6.30548170767724514007568359375</LongitudeDegrees>
            </Position>
            <AltitudeMeters>491.79998779296875</AltitudeMeters>
            <DistanceMeters>NAN</DistanceMeters>
          </Trackpoint>
          <Trackpoint>
            <Time>2019-10-10T08:14:24.000Z</Time>
            <Position>
              <LatitudeDegrees>38.2654889859259128570556640625</LatitudeDegrees>
              <LongitudeDegrees>-6.3054457493126392364501953125</LongitudeDegrees>
            </Position>
            <AltitudeMeters>492.600006103515625</AltitudeMeters>
            <DistanceMeters>NAN</DistanceMeters>
          </Trackpoint>
          <Trackpoint>
            <Time>2019-10-10T08:14:29.000Z</Time>
            <Position>
              <LatitudeDegrees>38.26530969701707363128662109375</LatitudeDegrees>
              <LongitudeDegrees>-6.305401325225830078125</LongitudeDegrees>
            </Position>
            <AltitudeMeters>493</AltitudeMeters>
            <DistanceMeters>NAN</DistanceMeters>
          </Trackpoint>
          <Trackpoint>
            <Time>2019-10-10T08:14:31.000Z</Time>
            <Position>
              <LatitudeDegrees>38.2652375288307666778564453125</LatitudeDegrees>
              <LongitudeDegrees>-6.305382885038852691650390625</LongitudeDegrees>
            </Position>
            <AltitudeMeters>493.20001220703125</AltitudeMeters>
            <DistanceMeters>NAN</DistanceMeters>
          </Trackpoint>
          <Trackpoint>
            <Time>2019-10-10T08:14:33.000Z</Time>
            <Position>
              <LatitudeDegrees>38.26516603119671344757080078125</LatitudeDegrees>
              <LongitudeDegrees>-6.30536788143217563629150390625</LongitudeDegrees>
            </Position>
            <AltitudeMeters>493.600006103515625</AltitudeMeters>
            <DistanceMeters>NAN</DistanceMeters>
          </Trackpoint>
          <Trackpoint>
            <Time>2019-10-10T08:14:38.000Z</Time>
            <Position>
              <LatitudeDegrees>38.264989592134952545166015625</LatitudeDegrees>
              <LongitudeDegrees>-6.3053250499069690704345703125</LongitudeDegrees>
            </Position>
            <AltitudeMeters>494.399993896484375</AltitudeMeters>
            <DistanceMeters>NAN</DistanceMeters>
          </Trackpoint>
          <Trackpoint>
            <Time>2019-10-10T08:14:41.000Z</Time>
            <Position>
              <LatitudeDegrees>38.2648881711065769195556640625</LatitudeDegrees>
              <LongitudeDegrees>-6.30529747344553470611572265625</LongitudeDegrees>
            </Position>
            <AltitudeMeters>494.79998779296875</AltitudeMeters>
            <DistanceMeters>NAN</DistanceMeters>
          </Trackpoint>
          <Trackpoint>
            <Time>2019-10-10T08:14:43.000Z</Time>
            <Position>
              <LatitudeDegrees>38.2648214511573314666748046875</LatitudeDegrees>
              <LongitudeDegrees>-6.30527903325855731964111328125</LongitudeDegrees>
            </Position>
            <AltitudeMeters>495.399993896484375</AltitudeMeters>
            <DistanceMeters>NAN</DistanceMeters>
          </Trackpoint>
          <Trackpoint>
            <Time>2019-10-10T08:14:47.000Z</Time>
            <Position>
              <LatitudeDegrees>38.264684490859508514404296875</LatitudeDegrees>
              <LongitudeDegrees>-6.30525070242583751678466796875</LongitudeDegrees>
            </Position>
            <AltitudeMeters>495.600006103515625</AltitudeMeters>
            <DistanceMeters>NAN</DistanceMeters>
          </Trackpoint>
          <Trackpoint>
            <Time>2019-10-10T08:14:48.000Z</Time>
            <Position>
              <LatitudeDegrees>38.264651633799076080322265625</LatitudeDegrees>
              <LongitudeDegrees>-6.30524374544620513916015625</LongitudeDegrees>
            </Position>
            <AltitudeMeters>495.79998779296875</AltitudeMeters>
            <DistanceMeters>NAN</DistanceMeters>
          </Trackpoint>
          <Trackpoint>
            <Time>2019-10-10T08:14:51.000Z</Time>
            <Position>
              <LatitudeDegrees>38.2645507156848907470703125</LatitudeDegrees>
              <LongitudeDegrees>-6.305213905870914459228515625</LongitudeDegrees>
            </Position>
            <AltitudeMeters>496</AltitudeMeters>
            <DistanceMeters>NAN</DistanceMeters>
          </Trackpoint>
          <Trackpoint>
            <Time>2019-10-10T08:14:56.000Z</Time>
            <Position>
              <LatitudeDegrees>38.26437176205217838287353515625</LatitudeDegrees>
              <LongitudeDegrees>-6.30516671575605869293212890625</LongitudeDegrees>
            </Position>
            <AltitudeMeters>496.600006103515625</AltitudeMeters>
            <DistanceMeters>NAN</DistanceMeters>
          </Trackpoint>
          <Trackpoint>
            <Time>2019-10-10T08:14:58.000Z</Time>
            <Position>
              <LatitudeDegrees>38.2642987556755542755126953125</LatitudeDegrees>
              <LongitudeDegrees>-6.30514877848327159881591796875</LongitudeDegrees>
            </Position>
            <AltitudeMeters>496.79998779296875</AltitudeMeters>
            <DistanceMeters>NAN</DistanceMeters>
          </Trackpoint>
          <Trackpoint>
            <Time>2019-10-10T08:15:00.000Z</Time>
            <Position>
              <LatitudeDegrees>38.26422675512731075286865234375</LatitudeDegrees>
              <LongitudeDegrees>-6.305129416286945343017578125</LongitudeDegrees>
            </Position>
            <AltitudeMeters>497.20001220703125</AltitudeMeters>
            <DistanceMeters>NAN</DistanceMeters>
          </Trackpoint>
          <Trackpoint>
            <Time>2019-10-10T08:15:10.000Z</Time>
            <Position>
              <LatitudeDegrees>38.26385937631130218505859375</LatitudeDegrees>
              <LongitudeDegrees>-6.3050363771617412567138671875</LongitudeDegrees>
            </Position>
            <AltitudeMeters>496.79998779296875</AltitudeMeters>
            <DistanceMeters>NAN</DistanceMeters>
          </Trackpoint>
          <Trackpoint>
            <Time>2019-10-10T08:15:21.000Z</Time>
            <Position>
              <LatitudeDegrees>38.2634609006345272064208984375</LatitudeDegrees>
              <LongitudeDegrees>-6.3049398176372051239013671875</LongitudeDegrees>
            </Position>
            <AltitudeMeters>498</AltitudeMeters>
            <DistanceMeters>NAN</DistanceMeters>
          </Trackpoint>
          <Trackpoint>
            <Time>2019-10-10T08:15:24.000Z</Time>
            <Position>
              <LatitudeDegrees>38.2633531093597412109375</LatitudeDegrees>
              <LongitudeDegrees>-6.30491257645189762115478515625</LongitudeDegrees>
            </Position>
            <AltitudeMeters>498.399993896484375</AltitudeMeters>
            <DistanceMeters>NAN</DistanceMeters>
          </Trackpoint>
          <Trackpoint>
            <Time>2019-10-10T08:15:31.000Z</Time>
            <Position>
              <LatitudeDegrees>38.263099975883960723876953125</LatitudeDegrees>
              <LongitudeDegrees>-6.3048435933887958526611328125</LongitudeDegrees>
            </Position>
            <AltitudeMeters>499.20001220703125</AltitudeMeters>
            <DistanceMeters>NAN</DistanceMeters>
          </Trackpoint>
          <Trackpoint>
            <Time>2019-10-10T08:15:39.000Z</Time>
            <Position>
              <LatitudeDegrees>38.26280660927295684814453125</LatitudeDegrees>
              <LongitudeDegrees>-6.304773353040218353271484375</LongitudeDegrees>
            </Position>
            <AltitudeMeters>499.399993896484375</AltitudeMeters>
            <DistanceMeters>NAN</DistanceMeters>
          </Trackpoint>
          <Trackpoint>
            <Time>2019-10-10T08:15:40.000Z</Time>
            <Position>
              <LatitudeDegrees>38.26276947744190692901611328125</LatitudeDegrees>
              <LongitudeDegrees>-6.3047631271183490753173828125</LongitudeDegrees>
            </Position>
            <AltitudeMeters>499.600006103515625</AltitudeMeters>
            <DistanceMeters>NAN</DistanceMeters>
          </Trackpoint>
          <Trackpoint>
            <Time>2019-10-10T08:15:50.000Z</Time>
            <Position>
              <LatitudeDegrees>38.26239732094109058380126953125</LatitudeDegrees>
              <LongitudeDegrees>-6.3046732731163501739501953125</LongitudeDegrees>
            </Position>
            <AltitudeMeters>500.20001220703125</AltitudeMeters>
            <DistanceMeters>NAN</DistanceMeters>
          </Trackpoint>
          <Trackpoint>
            <Time>2019-10-10T08:15:54.000Z</Time>
            <Position>
              <LatitudeDegrees>38.262247033417224884033203125</LatitudeDegrees>
              <LongitudeDegrees>-6.30463379435241222381591796875</LongitudeDegrees>
            </Position>
            <AltitudeMeters>500.600006103515625</AltitudeMeters>
            <DistanceMeters>NAN</DistanceMeters>
          </Trackpoint>
          <Trackpoint>
            <Time>2019-10-10T08:16:00.000Z</Time>
            <Position>
              <LatitudeDegrees>38.262015692889690399169921875</LatitudeDegrees>
              <LongitudeDegrees>-6.30457176826894283294677734375</LongitudeDegrees>
            </Position>
            <AltitudeMeters>500.79998779296875</AltitudeMeters>
            <DistanceMeters>NAN</DistanceMeters>
          </Trackpoint>
          <Trackpoint>
            <Time>2019-10-10T08:16:11.000Z</Time>
            <Position>
              <LatitudeDegrees>38.26158813200891017913818359375</LatitudeDegrees>
              <LongitudeDegrees>-6.30447286181151866912841796875</LongitudeDegrees>
            </Position>
            <AltitudeMeters>501.399993896484375</AltitudeMeters>
            <DistanceMeters>NAN</DistanceMeters>
          </Trackpoint>
          <Trackpoint>
            <Time>2019-10-10T08:16:19.000Z</Time>
            <Position>
              <LatitudeDegrees>38.26127448119223117828369140625</LatitudeDegrees>
              <LongitudeDegrees>-6.3043866120278835296630859375</LongitudeDegrees>
            </Position>
            <AltitudeMeters>501.20001220703125</AltitudeMeters>
            <DistanceMeters>NAN</DistanceMeters>
          </Trackpoint>
          <Trackpoint>
            <Time>2019-10-10T08:16:22.000Z</Time>
            <Position>
              <LatitudeDegrees>38.26115478761494159698486328125</LatitudeDegrees>
              <LongitudeDegrees>-6.3043539226055145263671875</LongitudeDegrees>
            </Position>
            <AltitudeMeters>501.399993896484375</AltitudeMeters>
            <DistanceMeters>NAN</DistanceMeters>
          </Trackpoint>
          <Trackpoint>
            <Time>2019-10-10T08:16:30.000Z</Time>
            <Position>
              <LatitudeDegrees>38.260810375213623046875</LatitudeDegrees>
              <LongitudeDegrees>-6.30427303723990917205810546875</LongitudeDegrees>
            </Position>
            <AltitudeMeters>501.20001220703125</AltitudeMeters>
            <DistanceMeters>NAN</DistanceMeters>
          </Trackpoint>
          <Trackpoint>
            <Time>2019-10-10T08:16:40.000Z</Time>
            <Position>
              <LatitudeDegrees>38.26035615988075733184814453125</LatitudeDegrees>
              <LongitudeDegrees>-6.30415988154709339141845703125</LongitudeDegrees>
            </Position>
            <AltitudeMeters>501.20001220703125</AltitudeMeters>
            <DistanceMeters>NAN</DistanceMeters>
          </Trackpoint>
          <Trackpoint>
            <Time>2019-10-10T08:16:51.000Z</Time>
            <Position>
              <LatitudeDegrees>38.2598540000617504119873046875</LatitudeDegrees>
              <LongitudeDegrees>-6.30403515882790088653564453125</LongitudeDegrees>
            </Position>
            <AltitudeMeters>501.79998779296875</AltitudeMeters>
            <DistanceMeters>NAN</DistanceMeters>
          </Trackpoint>
          <Trackpoint>
            <Time>2019-10-10T08:16:53.000Z</Time>
            <Position>
              <LatitudeDegrees>38.2597629725933074951171875</LatitudeDegrees>
              <LongitudeDegrees>-6.304012946784496307373046875</LongitudeDegrees>
            </Position>
            <AltitudeMeters>501.79998779296875</AltitudeMeters>
            <DistanceMeters>NAN</DistanceMeters>
          </Trackpoint>
          <Trackpoint>
            <Time>2019-10-10T08:17:05.000Z</Time>
            <Position>
              <LatitudeDegrees>38.25921705923974514007568359375</LatitudeDegrees>
              <LongitudeDegrees>-6.30387774668633937835693359375</LongitudeDegrees>
            </Position>
            <AltitudeMeters>502</AltitudeMeters>
            <DistanceMeters>NAN</DistanceMeters>
          </Trackpoint>
          <Trackpoint>
            <Time>2019-10-10T08:17:07.000Z</Time>
            <Position>
              <LatitudeDegrees>38.2591267861425876617431640625</LatitudeDegrees>
              <LongitudeDegrees>-6.30385360680520534515380859375</LongitudeDegrees>
            </Position>
            <AltitudeMeters>502.20001220703125</AltitudeMeters>
            <DistanceMeters>NAN</DistanceMeters>
          </Trackpoint>
          <Trackpoint>
            <Time>2019-10-10T08:17:16.000Z</Time>
            <Position>
              <LatitudeDegrees>38.2587294839322566986083984375</LatitudeDegrees>
              <LongitudeDegrees>-6.30375117994844913482666015625</LongitudeDegrees>
            </Position>
            <AltitudeMeters>502.79998779296875</AltitudeMeters>
            <DistanceMeters>NAN</DistanceMeters>
          </Trackpoint>
          <Trackpoint>
            <Time>2019-10-10T08:17:17.000Z</Time>
            <Position>
              <LatitudeDegrees>38.25868916697800159454345703125</LatitudeDegrees>
              <LongitudeDegrees>-6.30374195985496044158935546875</LongitudeDegrees>
            </Position>
            <AltitudeMeters>503</AltitudeMeters>
            <DistanceMeters>NAN</DistanceMeters>
          </Trackpoint>
          <Trackpoint>
            <Time>2019-10-10T08:17:23.000Z</Time>
            <Position>
              <LatitudeDegrees>38.25845229439437389373779296875</LatitudeDegrees>
              <LongitudeDegrees>-6.3036785088479518890380859375</LongitudeDegrees>
            </Position>
            <AltitudeMeters>504</AltitudeMeters>
            <DistanceMeters>NAN</DistanceMeters>
          </Trackpoint>
          <Trackpoint>
            <Time>2019-10-10T08:17:27.000Z</Time>
            <Position>
              <LatitudeDegrees>38.258300162851810455322265625</LatitudeDegrees>
              <LongitudeDegrees>-6.30363903008401393890380859375</LongitudeDegrees>
            </Position>
            <AltitudeMeters>504.20001220703125</AltitudeMeters>
            <DistanceMeters>NAN</DistanceMeters>
          </Trackpoint>
          <Trackpoint>
            <Time>2019-10-10T08:17:32.000Z</Time>
            <Position>
              <LatitudeDegrees>38.25811148621141910552978515625</LatitudeDegrees>
              <LongitudeDegrees>-6.30359376780688762664794921875</LongitudeDegrees>
            </Position>
            <AltitudeMeters>505</AltitudeMeters>
            <DistanceMeters>NAN</DistanceMeters>
          </Trackpoint>
          <Trackpoint>
            <Time>2019-10-10T08:17:37.000Z</Time>
            <Position>
              <LatitudeDegrees>38.25791803188621997833251953125</LatitudeDegrees>
              <LongitudeDegrees>-6.30354666151106357574462890625</LongitudeDegrees>
            </Position>
            <AltitudeMeters>505</AltitudeMeters>
            <DistanceMeters>NAN</DistanceMeters>
          </Trackpoint>
          <Trackpoint>
            <Time>2019-10-10T08:17:39.000Z</Time>
            <Position>
              <LatitudeDegrees>38.25784158892929553985595703125</LatitudeDegrees>
              <LongitudeDegrees>-6.3035262934863567352294921875</LongitudeDegrees>
            </Position>
            <AltitudeMeters>506</AltitudeMeters>
            <DistanceMeters>NAN</DistanceMeters>
          </Trackpoint>
          <Trackpoint>
            <Time>2019-10-10T08:17:48.000Z</Time>
            <Position>
              <LatitudeDegrees>38.257497511804103851318359375</LatitudeDegrees>
              <LongitudeDegrees>-6.303436271846294403076171875</LongitudeDegrees>
            </Position>
            <AltitudeMeters>506</AltitudeMeters>
            <DistanceMeters>NAN</DistanceMeters>
          </Trackpoint>
          <Trackpoint>
            <Time>2019-10-10T08:17:58.000Z</Time>
            <Position>
              <LatitudeDegrees>38.25712158344686031341552734375</LatitudeDegrees>
              <LongitudeDegrees>-6.30333107896149158477783203125</LongitudeDegrees>
            </Position>
            <AltitudeMeters>507</AltitudeMeters>
            <DistanceMeters>NAN</DistanceMeters>
          </Trackpoint>
          <Trackpoint>
            <Time>2019-10-10T08:17:59.000Z</Time>
            <Position>
              <LatitudeDegrees>38.2570836134254932403564453125</LatitudeDegrees>
              <LongitudeDegrees>-6.30332001484930515289306640625</LongitudeDegrees>
            </Position>
            <AltitudeMeters>507</AltitudeMeters>
            <DistanceMeters>NAN</DistanceMeters>
          </Trackpoint>
          <Trackpoint>
            <Time>2019-10-10T08:18:09.000Z</Time>
            <Position>
              <LatitudeDegrees>38.2566940225660800933837890625</LatitudeDegrees>
              <LongitudeDegrees>-6.30321356467902660369873046875</LongitudeDegrees>
            </Position>
            <AltitudeMeters>507.399993896484375</AltitudeMeters>
            <DistanceMeters>NAN</DistanceMeters>
          </Trackpoint>
          <Trackpoint>
            <Time>2019-10-10T08:18:10.000Z</Time>
            <Position>
              <LatitudeDegrees>38.2566524483263492584228515625</LatitudeDegrees>
              <LongitudeDegrees>-6.30320258438587188720703125</LongitudeDegrees>
            </Position>
            <AltitudeMeters>507.399993896484375</AltitudeMeters>
            <DistanceMeters>NAN</DistanceMeters>
          </Trackpoint>
          <Trackpoint>
            <Time>2019-10-10T08:18:15.000Z</Time>
            <Position>
              <LatitudeDegrees>38.2564558088779449462890625</LatitudeDegrees>
              <LongitudeDegrees>-6.30314265377819538116455078125</LongitudeDegrees>
            </Position>
            <AltitudeMeters>508.20001220703125</AltitudeMeters>
            <DistanceMeters>NAN</DistanceMeters>
          </Trackpoint>
          <Trackpoint>
            <Time>2019-10-10T08:18:20.000Z</Time>
            <Position>
              <LatitudeDegrees>38.25626612640917301177978515625</LatitudeDegrees>
              <LongitudeDegrees>-6.30308414809405803680419921875</LongitudeDegrees>
            </Position>
            <AltitudeMeters>508.600006103515625</AltitudeMeters>
            <DistanceMeters>NAN</DistanceMeters>
          </Trackpoint>
          <Trackpoint>
            <Time>2019-10-10T08:18:31.000Z</Time>
            <Position>
              <LatitudeDegrees>38.25583697296679019927978515625</LatitudeDegrees>
              <LongitudeDegrees>-6.3029600121080875396728515625</LongitudeDegrees>
            </Position>
            <AltitudeMeters>508.79998779296875</AltitudeMeters>
            <DistanceMeters>NAN</DistanceMeters>
          </Trackpoint>
          <Trackpoint>
            <Time>2019-10-10T08:18:34.000Z</Time>
            <Position>
              <LatitudeDegrees>38.255719877779483795166015625</LatitudeDegrees>
              <LongitudeDegrees>-6.3029217906296253204345703125</LongitudeDegrees>
            </Position>
            <AltitudeMeters>509.399993896484375</AltitudeMeters>
            <DistanceMeters>NAN</DistanceMeters>
          </Trackpoint>
          <Trackpoint>
            <Time>2019-10-10T08:18:41.000Z</Time>
            <Position>
              <LatitudeDegrees>38.2554276846349239349365234375</LatitudeDegrees>
              <LongitudeDegrees>-6.30283805541694164276123046875</LongitudeDegrees>
            </Position>
            <AltitudeMeters>509</AltitudeMeters>
            <DistanceMeters>NAN</DistanceMeters>
          </Trackpoint>
          <Trackpoint>
            <Time>2019-10-10T08:18:50.000Z</Time>
            <Position>
              <LatitudeDegrees>38.25501722283661365509033203125</LatitudeDegrees>
              <LongitudeDegrees>-6.302710063755512237548828125</LongitudeDegrees>
            </Position>
            <AltitudeMeters>508.79998779296875</AltitudeMeters>
            <DistanceMeters>NAN</DistanceMeters>
          </Trackpoint>
          <Trackpoint>
            <Time>2019-10-10T08:18:53.000Z</Time>
            <Position>
              <LatitudeDegrees>38.25487808324396610260009765625</LatitudeDegrees>
              <LongitudeDegrees>-6.30266773514449596405029296875</LongitudeDegrees>
            </Position>
            <AltitudeMeters>508.20001220703125</AltitudeMeters>
            <DistanceMeters>NAN</DistanceMeters>
          </Trackpoint>
          <Trackpoint>
            <Time>2019-10-10T08:18:57.000Z</Time>
            <Position>
              <LatitudeDegrees>38.2546736486256122589111328125</LatitudeDegrees>
              <LongitudeDegrees>-6.30260646343231201171875</LongitudeDegrees>
            </Position>
            <AltitudeMeters>508.399993896484375</AltitudeMeters>
            <DistanceMeters>NAN</DistanceMeters>
          </Trackpoint>
          <Trackpoint>
            <Time>2019-10-10T08:19:07.000Z</Time>
            <Position>
              <LatitudeDegrees>38.25415556319057941436767578125</LatitudeDegrees>
              <LongitudeDegrees>-6.3024477101862430572509765625</LongitudeDegrees>
            </Position>
            <AltitudeMeters>508.600006103515625</AltitudeMeters>
            <DistanceMeters>NAN</DistanceMeters>
          </Trackpoint>
          <Trackpoint>
            <Time>2019-10-10T08:19:08.000Z</Time>
            <Position>
              <LatitudeDegrees>38.25410342775285243988037109375</LatitudeDegrees>
              <LongitudeDegrees>-6.30243052728474140167236328125</LongitudeDegrees>
            </Position>
            <AltitudeMeters>508.399993896484375</AltitudeMeters>
            <DistanceMeters>NAN</DistanceMeters>
          </Trackpoint>
          <Trackpoint>
            <Time>2019-10-10T08:19:17.000Z</Time>
            <Position>
              <LatitudeDegrees>38.25360856018960475921630859375</LatitudeDegrees>
              <LongitudeDegrees>-6.3022886216640472412109375</LongitudeDegrees>
            </Position>
            <AltitudeMeters>507.600006103515625</AltitudeMeters>
            <DistanceMeters>NAN</DistanceMeters>
          </Trackpoint>
          <Trackpoint>
            <Time>2019-10-10T08:19:18.000Z</Time>
            <Position>
              <LatitudeDegrees>38.25354896485805511474609375</LatitudeDegrees>
              <LongitudeDegrees>-6.30227060057222843170166015625</LongitudeDegrees>
            </Position>
            <AltitudeMeters>507.20001220703125</AltitudeMeters>
            <DistanceMeters>NAN</DistanceMeters>
          </Trackpoint>
          <Trackpoint>
            <Time>2019-10-10T08:19:24.000Z</Time>
            <Position>
              <LatitudeDegrees>38.25317680835723876953125</LatitudeDegrees>
              <LongitudeDegrees>-6.30216197110712528228759765625</LongitudeDegrees>
            </Position>
            <AltitudeMeters>506.20001220703125</AltitudeMeters>
            <DistanceMeters>NAN</DistanceMeters>
          </Trackpoint>
          <Trackpoint>
            <Time>2019-10-10T08:19:26.000Z</Time>
            <Position>
              <LatitudeDegrees>38.25304730795323848724365234375</LatitudeDegrees>
              <LongitudeDegrees>-6.3021238334476947784423828125</LongitudeDegrees>
            </Position>
            <AltitudeMeters>505.399993896484375</AltitudeMeters>
            <DistanceMeters>NAN</DistanceMeters>
          </Trackpoint>
          <Trackpoint>
            <Time>2019-10-10T08:19:32.000Z</Time>
            <Position>
              <LatitudeDegrees>38.2526412047445774078369140625</LatitudeDegrees>
              <LongitudeDegrees>-6.3019994460046291351318359375</LongitudeDegrees>
            </Position>
            <AltitudeMeters>504.600006103515625</AltitudeMeters>
            <DistanceMeters>NAN</DistanceMeters>
          </Trackpoint>
          <Trackpoint>
            <Time>2019-10-10T08:19:34.000Z</Time>
            <Position>
              <LatitudeDegrees>38.25253911316394805908203125</LatitudeDegrees>
              <LongitudeDegrees>-6.30196332000195980072021484375</LongitudeDegrees>
            </Position>
            <AltitudeMeters>504.399993896484375</AltitudeMeters>
            <DistanceMeters>NAN</DistanceMeters>
          </Trackpoint>
          <Trackpoint>
            <Time>2019-10-10T08:19:37.000Z</Time>
            <Position>
              <LatitudeDegrees>38.25237843208014965057373046875</LatitudeDegrees>
              <LongitudeDegrees>-6.30192476324737071990966796875</LongitudeDegrees>
            </Position>
            <AltitudeMeters>504.20001220703125</AltitudeMeters>
            <DistanceMeters>NAN</DistanceMeters>
          </Trackpoint>
          <Trackpoint>
            <Time>2019-10-10T08:19:39.000Z</Time>
            <Position>
              <LatitudeDegrees>38.252265863120555877685546875</LatitudeDegrees>
              <LongitudeDegrees>-6.30189500749111175537109375</LongitudeDegrees>
            </Position>
            <AltitudeMeters>503.600006103515625</AltitudeMeters>
            <DistanceMeters>NAN</DistanceMeters>
          </Trackpoint>
          <Trackpoint>
            <Time>2019-10-10T08:19:45.000Z</Time>
            <Position>
              <LatitudeDegrees>38.25192145071923732757568359375</LatitudeDegrees>
              <LongitudeDegrees>-6.30180054344236850738525390625</LongitudeDegrees>
            </Position>
            <AltitudeMeters>502.79998779296875</AltitudeMeters>
            <DistanceMeters>NAN</DistanceMeters>
          </Trackpoint>
          <Trackpoint>
            <Time>2019-10-10T08:19:49.000Z</Time>
            <Position>
              <LatitudeDegrees>38.25169949792325496673583984375</LatitudeDegrees>
              <LongitudeDegrees>-6.3017349131405353546142578125</LongitudeDegrees>
            </Position>
            <AltitudeMeters>503</AltitudeMeters>
            <DistanceMeters>NAN</DistanceMeters>
          </Trackpoint>
          <Trackpoint>
            <Time>2019-10-10T08:19:57.000Z</Time>
            <Position>
              <LatitudeDegrees>38.25127218849956989288330078125</LatitudeDegrees>
              <LongitudeDegrees>-6.30160977132618427276611328125</LongitudeDegrees>
            </Position>
            <AltitudeMeters>503.600006103515625</AltitudeMeters>
            <DistanceMeters>NAN</DistanceMeters>
          </Trackpoint>
          <Trackpoint>
            <Time>2019-10-10T08:20:00.000Z</Time>
            <Position>
              <LatitudeDegrees>38.2511156983673572540283203125</LatitudeDegrees>
              <LongitudeDegrees>-6.301563419401645660400390625</LongitudeDegrees>
            </Position>
            <AltitudeMeters>503.600006103515625</AltitudeMeters>
            <DistanceMeters>NAN</DistanceMeters>
          </Trackpoint>
          <Trackpoint>
            <Time>2019-10-10T08:20:07.000Z</Time>
            <Position>
              <LatitudeDegrees>38.25079274363815784454345703125</LatitudeDegrees>
              <LongitudeDegrees>-6.30146727897226810455322265625</LongitudeDegrees>
            </Position>
            <AltitudeMeters>504.399993896484375</AltitudeMeters>
            <DistanceMeters>NAN</DistanceMeters>
          </Trackpoint>
          <Trackpoint>
            <Time>2019-10-10T08:20:08.000Z</Time>
            <Position>
              <LatitudeDegrees>38.25074848718941211700439453125</LatitudeDegrees>
              <LongitudeDegrees>-6.30145487375557422637939453125</LongitudeDegrees>
            </Position>
            <AltitudeMeters>504.600006103515625</AltitudeMeters>
            <DistanceMeters>NAN</DistanceMeters>
          </Trackpoint>
          <Trackpoint>
            <Time>2019-10-10T08:20:12.000Z</Time>
            <Position>
              <LatitudeDegrees>38.25059627182781696319580078125</LatitudeDegrees>
              <LongitudeDegrees>-6.3014039956033229827880859375</LongitudeDegrees>
            </Position>
            <AltitudeMeters>505.600006103515625</AltitudeMeters>
            <DistanceMeters>NAN</DistanceMeters>
          </Trackpoint>
          <Trackpoint>
            <Time>2019-10-10T08:20:14.000Z</Time>
            <Position>
              <LatitudeDegrees>38.2505262829363346099853515625</LatitudeDegrees>
              <LongitudeDegrees>-6.3013820350170135498046875</LongitudeDegrees>
            </Position>
            <AltitudeMeters>505.600006103515625</AltitudeMeters>
            <DistanceMeters>NAN</DistanceMeters>
          </Trackpoint>
          <Trackpoint>
            <Time>2019-10-10T08:20:19.000Z</Time>
            <Position>
              <LatitudeDegrees>38.25035269372165203094482421875</LatitudeDegrees>
              <LongitudeDegrees>-6.301326714456081390380859375</LongitudeDegrees>
            </Position>
            <AltitudeMeters>506.79998779296875</AltitudeMeters>
            <DistanceMeters>NAN</DistanceMeters>
          </Trackpoint>
          <Trackpoint>
            <Time>2019-10-10T08:20:22.000Z</Time>
            <Position>
              <LatitudeDegrees>38.250246159732341766357421875</LatitudeDegrees>
              <LongitudeDegrees>-6.3013007305562496185302734375</LongitudeDegrees>
            </Position>
            <AltitudeMeters>507</AltitudeMeters>
            <DistanceMeters>NAN</DistanceMeters>
          </Trackpoint>
          <Trackpoint>
            <Time>2019-10-10T08:20:25.000Z</Time>
            <Position>
              <LatitudeDegrees>38.25014683417975902557373046875</LatitudeDegrees>
              <LongitudeDegrees>-6.301268041133880615234375</LongitudeDegrees>
            </Position>
            <AltitudeMeters>507.20001220703125</AltitudeMeters>
            <DistanceMeters>NAN</DistanceMeters>
          </Trackpoint>
          <Trackpoint>
            <Time>2019-10-10T08:20:27.000Z</Time>
            <Position>
              <LatitudeDegrees>38.2500775158405303955078125</LatitudeDegrees>
              <LongitudeDegrees>-6.30124884657561779022216796875</LongitudeDegrees>
            </Position>
            <AltitudeMeters>508</AltitudeMeters>
            <DistanceMeters>NAN</DistanceMeters>
          </Trackpoint>
          <Trackpoint>
            <Time>2019-10-10T08:20:31.000Z</Time>
            <Position>
              <LatitudeDegrees>38.24994130991399288177490234375</LatitudeDegrees>
              <LongitudeDegrees>-6.3012128882110118865966796875</LongitudeDegrees>
            </Position>
            <AltitudeMeters>508.79998779296875</AltitudeMeters>
            <DistanceMeters>NAN</DistanceMeters>
          </Trackpoint>
          <Trackpoint>
            <Time>2019-10-10T08:20:34.000Z</Time>
            <Position>
              <LatitudeDegrees>38.24983888305723667144775390625</LatitudeDegrees>
              <LongitudeDegrees>-6.30119402892887592315673828125</LongitudeDegrees>
            </Position>
            <AltitudeMeters>509</AltitudeMeters>
            <DistanceMeters>NAN</DistanceMeters>
          </Trackpoint>
          <Trackpoint>
            <Time>2019-10-10T08:20:38.000Z</Time>
            <Position>
              <LatitudeDegrees>38.24970980174839496612548828125</LatitudeDegrees>
              <LongitudeDegrees>-6.30114910192787647247314453125</LongitudeDegrees>
            </Position>
            <AltitudeMeters>509.399993896484375</AltitudeMeters>
            <DistanceMeters>NAN</DistanceMeters>
          </Trackpoint>
          <Trackpoint>
            <Time>2019-10-10T08:20:39.000Z</Time>
            <Position>
              <LatitudeDegrees>38.24967694468796253204345703125</LatitudeDegrees>
              <LongitudeDegrees>-6.3011421449482440948486328125</LongitudeDegrees>
            </Position>
            <AltitudeMeters>509.600006103515625</AltitudeMeters>
            <DistanceMeters>NAN</DistanceMeters>
          </Trackpoint>
          <Trackpoint>
            <Time>2019-10-10T08:20:43.000Z</Time>
            <Position>
              <LatitudeDegrees>38.24954417534172534942626953125</LatitudeDegrees>
              <LongitudeDegrees>-6.3010990619659423828125</LongitudeDegrees>
            </Position>
            <AltitudeMeters>509.79998779296875</AltitudeMeters>
            <DistanceMeters>NAN</DistanceMeters>
          </Trackpoint>
          <Trackpoint>
            <Time>2019-10-10T08:20:44.000Z</Time>
            <Position>
              <LatitudeDegrees>38.249509222805500030517578125</LatitudeDegrees>
              <LongitudeDegrees>-6.30109369754791259765625</LongitudeDegrees>
            </Position>
            <AltitudeMeters>510.399993896484375</AltitudeMeters>
            <DistanceMeters>NAN</DistanceMeters>
          </Trackpoint>
          <Trackpoint>
            <Time>2019-10-10T08:20:48.000Z</Time>
            <Position>
              <LatitudeDegrees>38.2493747770786285400390625</LatitudeDegrees>
              <LongitudeDegrees>-6.30105153657495975494384765625</LongitudeDegrees>
            </Position>
            <AltitudeMeters>511</AltitudeMeters>
            <DistanceMeters>NAN</DistanceMeters>
          </Trackpoint>
          <Trackpoint>
            <Time>2019-10-10T08:20:50.000Z</Time>
            <Position>
              <LatitudeDegrees>38.24930260889232158660888671875</LatitudeDegrees>
              <LongitudeDegrees>-6.301032006740570068359375</LongitudeDegrees>
            </Position>
            <AltitudeMeters>511.600006103515625</AltitudeMeters>
            <DistanceMeters>NAN</DistanceMeters>
          </Trackpoint>
          <Trackpoint>
            <Time>2019-10-10T08:20:56.000Z</Time>
            <Position>
              <LatitudeDegrees>38.24908333830535411834716796875</LatitudeDegrees>
              <LongitudeDegrees>-6.30097006447613239288330078125</LongitudeDegrees>
            </Position>
            <AltitudeMeters>512</AltitudeMeters>
            <DistanceMeters>NAN</DistanceMeters>
          </Trackpoint>
          <Trackpoint>
            <Time>2019-10-10T08:20:58.000Z</Time>
            <Position>
              <LatitudeDegrees>38.24900957755744457244873046875</LatitudeDegrees>
              <LongitudeDegrees>-6.3009574078023433685302734375</LongitudeDegrees>
            </Position>
            <AltitudeMeters>512.5999755859375</AltitudeMeters>
            <DistanceMeters>NAN</DistanceMeters>
          </Trackpoint>
          <Trackpoint>
            <Time>2019-10-10T08:21:04.000Z</Time>
            <Position>
              <LatitudeDegrees>38.24879030697047710418701171875</LatitudeDegrees>
              <LongitudeDegrees>-6.3008769415318965911865234375</LongitudeDegrees>
            </Position>
            <AltitudeMeters>512.5999755859375</AltitudeMeters>
            <DistanceMeters>NAN</DistanceMeters>
          </Trackpoint>
          <Trackpoint>
            <Time>2019-10-10T08:21:13.000Z</Time>
            <Position>
              <LatitudeDegrees>38.248448409140110015869140625</LatitudeDegrees>
              <LongitudeDegrees>-6.3007612712681293487548828125</LongitudeDegrees>
            </Position>
            <AltitudeMeters>513</AltitudeMeters>
            <DistanceMeters>NAN</DistanceMeters>
          </Trackpoint>
          <Trackpoint>
            <Time>2019-10-10T08:21:22.000Z</Time>
            <Position>
              <LatitudeDegrees>38.24805202893912792205810546875</LatitudeDegrees>
              <LongitudeDegrees>-6.300620622932910919189453125</LongitudeDegrees>
            </Position>
            <AltitudeMeters>512.20001220703125</AltitudeMeters>
            <DistanceMeters>NAN</DistanceMeters>
          </Trackpoint>
          <Trackpoint>
            <Time>2019-10-10T08:21:26.000Z</Time>
            <Position>
              <LatitudeDegrees>38.24783879332244396209716796875</LatitudeDegrees>
              <LongitudeDegrees>-6.30053571425378322601318359375</LongitudeDegrees>
            </Position>
            <AltitudeMeters>511.399993896484375</AltitudeMeters>
            <DistanceMeters>NAN</DistanceMeters>
          </Trackpoint>
          <Trackpoint>
            <Time>2019-10-10T08:21:29.000Z</Time>
            <Position>
              <LatitudeDegrees>38.2476563192903995513916015625</LatitudeDegrees>
              <LongitudeDegrees>-6.30046078003942966461181640625</LongitudeDegrees>
            </Position>
            <AltitudeMeters>510.600006103515625</AltitudeMeters>
            <DistanceMeters>NAN</DistanceMeters>
          </Trackpoint>
          <Trackpoint>
            <Time>2019-10-10T08:21:30.000Z</Time>
            <Position>
              <LatitudeDegrees>38.24759186245501041412353515625</LatitudeDegrees>
              <LongitudeDegrees>-6.300433538854122161865234375</LongitudeDegrees>
            </Position>
            <AltitudeMeters>510</AltitudeMeters>
            <DistanceMeters>NAN</DistanceMeters>
          </Trackpoint>
          <Trackpoint>
            <Time>2019-10-10T08:21:32.000Z</Time>
            <Position>
              <LatitudeDegrees>38.24745741672813892364501953125</LatitudeDegrees>
              <LongitudeDegrees>-6.30037645809352397918701171875</LongitudeDegrees>
            </Position>
            <AltitudeMeters>509.600006103515625</AltitudeMeters>
            <DistanceMeters>NAN</DistanceMeters>
          </Trackpoint>
          <Trackpoint>
            <Time>2019-10-10T08:21:34.000Z</Time>
            <Position>
              <LatitudeDegrees>38.24731458909809589385986328125</LatitudeDegrees>
              <LongitudeDegrees>-6.3003120012581348419189453125</LongitudeDegrees>
            </Position>
            <AltitudeMeters>508.79998779296875</AltitudeMeters>
            <DistanceMeters>NAN</DistanceMeters>
          </Trackpoint>
          <Trackpoint>
            <Time>2019-10-10T08:21:36.000Z</Time>
            <Position>
              <LatitudeDegrees>38.24716773815453052520751953125</LatitudeDegrees>
              <LongitudeDegrees>-6.3002553395926952362060546875</LongitudeDegrees>
            </Position>
            <AltitudeMeters>507</AltitudeMeters>
            <DistanceMeters>NAN</DistanceMeters>
          </Trackpoint>
          <Trackpoint>
            <Time>2019-10-10T08:21:39.000Z</Time>
            <Position>
              <LatitudeDegrees>38.246944360435009002685546875</LatitudeDegrees>
              <LongitudeDegrees>-6.3001594506204128265380859375</LongitudeDegrees>
            </Position>
            <AltitudeMeters>506.20001220703125</AltitudeMeters>
            <DistanceMeters>NAN</DistanceMeters>
          </Trackpoint>
          <Trackpoint>
            <Time>2019-10-10T08:21:41.000Z</Time>
            <Position>
              <LatitudeDegrees>38.2467892952263355255126953125</LatitudeDegrees>
              <LongitudeDegrees>-6.30009465850889682769775390625</LongitudeDegrees>
            </Position>
            <AltitudeMeters>505.399993896484375</AltitudeMeters>
            <DistanceMeters>NAN</DistanceMeters>
          </Trackpoint>
          <Trackpoint>
            <Time>2019-10-10T08:21:43.000Z</Time>
            <Position>
              <LatitudeDegrees>38.24663129635155200958251953125</LatitudeDegrees>
              <LongitudeDegrees>-6.30002844147384166717529296875</LongitudeDegrees>
            </Position>
            <AltitudeMeters>504.600006103515625</AltitudeMeters>
            <DistanceMeters>NAN</DistanceMeters>
          </Trackpoint>
          <Trackpoint>
            <Time>2019-10-10T08:21:44.000Z</Time>
            <Position>
              <LatitudeDegrees>38.24655015952885150909423828125</LatitudeDegrees>
              <LongitudeDegrees>-6.2999988533556461334228515625</LongitudeDegrees>
            </Position>
            <AltitudeMeters>504.20001220703125</AltitudeMeters>
            <DistanceMeters>NAN</DistanceMeters>
          </Trackpoint>
          <Trackpoint>
            <Time>2019-10-10T08:21:47.000Z</Time>
            <Position>
              <LatitudeDegrees>38.24629283510148525238037109375</LatitudeDegrees>
              <LongitudeDegrees>-6.2999301217496395111083984375</LongitudeDegrees>
            </Position>
            <AltitudeMeters>502.79998779296875</AltitudeMeters>
            <DistanceMeters>NAN</DistanceMeters>
          </Trackpoint>
          <Trackpoint>
            <Time>2019-10-10T08:21:49.000Z</Time>
            <Position>
              <LatitudeDegrees>38.24611254036426544189453125</LatitudeDegrees>
              <LongitudeDegrees>-6.29990740679204463958740234375</LongitudeDegrees>
            </Position>
            <AltitudeMeters>502</AltitudeMeters>
            <DistanceMeters>NAN</DistanceMeters>
          </Trackpoint>
          <Trackpoint>
            <Time>2019-10-10T08:21:50.000Z</Time>
            <Position>
              <LatitudeDegrees>38.24602000415325164794921875</LatitudeDegrees>
              <LongitudeDegrees>-6.29990237765014171600341796875</LongitudeDegrees>
            </Position>
            <AltitudeMeters>501.600006103515625</AltitudeMeters>
            <DistanceMeters>NAN</DistanceMeters>
          </Trackpoint>
          <Trackpoint>
            <Time>2019-10-10T08:21:51.000Z</Time>
            <Position>
              <LatitudeDegrees>38.245925791561603546142578125</LatitudeDegrees>
              <LongitudeDegrees>-6.29990137182176113128662109375</LongitudeDegrees>
            </Position>
            <AltitudeMeters>500.79998779296875</AltitudeMeters>
            <DistanceMeters>NAN</DistanceMeters>
          </Trackpoint>
          <Trackpoint>
            <Time>2019-10-10T08:21:52.000Z</Time>
            <Position>
              <LatitudeDegrees>38.24583082459867000579833984375</LatitudeDegrees>
              <LongitudeDegrees>-6.299912519752979278564453125</LongitudeDegrees>
            </Position>
            <AltitudeMeters>500.399993896484375</AltitudeMeters>
            <DistanceMeters>NAN</DistanceMeters>
          </Trackpoint>
          <Trackpoint>
            <Time>2019-10-10T08:21:53.000Z</Time>
            <Position>
              <LatitudeDegrees>38.2457345165312290191650390625</LatitudeDegrees>
              <LongitudeDegrees>-6.29992936737835407257080078125</LongitudeDegrees>
            </Position>
            <AltitudeMeters>500.20001220703125</AltitudeMeters>
            <DistanceMeters>NAN</DistanceMeters>
          </Trackpoint>
          <Trackpoint>
            <Time>2019-10-10T08:21:54.000Z</Time>
            <Position>
              <LatitudeDegrees>38.24563770554959774017333984375</LatitudeDegrees>
              <LongitudeDegrees>-6.29994395188987255096435546875</LongitudeDegrees>
            </Position>
            <AltitudeMeters>499.600006103515625</AltitudeMeters>
            <DistanceMeters>NAN</DistanceMeters>
          </Trackpoint>
          <Trackpoint>
            <Time>2019-10-10T08:21:55.000Z</Time>
            <Position>
              <LatitudeDegrees>38.24553242884576320648193359375</LatitudeDegrees>
              <LongitudeDegrees>-6.2999740429222583770751953125</LongitudeDegrees>
            </Position>
            <AltitudeMeters>498.79998779296875</AltitudeMeters>
            <DistanceMeters>NAN</DistanceMeters>
          </Trackpoint>
          <Trackpoint>
            <Time>2019-10-10T08:21:58.000Z</Time>
            <Position>
              <LatitudeDegrees>38.24525347910821437835693359375</LatitudeDegrees>
              <LongitudeDegrees>-6.30007454194128513336181640625</LongitudeDegrees>
            </Position>
            <AltitudeMeters>497.79998779296875</AltitudeMeters>
            <DistanceMeters>NAN</DistanceMeters>
          </Trackpoint>
          <Trackpoint>
            <Time>2019-10-10T08:22:00.000Z</Time>
            <Position>
              <LatitudeDegrees>38.2450626231729984283447265625</LatitudeDegrees>
              <LongitudeDegrees>-6.300151906907558441162109375</LongitudeDegrees>
            </Position>
            <AltitudeMeters>496.399993896484375</AltitudeMeters>
            <DistanceMeters>NAN</DistanceMeters>
          </Trackpoint>
          <Trackpoint>
            <Time>2019-10-10T08:22:03.000Z</Time>
            <Position>
              <LatitudeDegrees>38.24477721937000751495361328125</LatitudeDegrees>
              <LongitudeDegrees>-6.3002804853022098541259765625</LongitudeDegrees>
            </Position>
            <AltitudeMeters>495.20001220703125</AltitudeMeters>
            <DistanceMeters>NAN</DistanceMeters>
          </Trackpoint>
          <Trackpoint>
            <Time>2019-10-10T08:22:04.000Z</Time>
            <Position>
              <LatitudeDegrees>38.24467462487518787384033203125</LatitudeDegrees>
              <LongitudeDegrees>-6.300329267978668212890625</LongitudeDegrees>
            </Position>
            <AltitudeMeters>494.600006103515625</AltitudeMeters>
            <DistanceMeters>NAN</DistanceMeters>
          </Trackpoint>
          <Trackpoint>
            <Time>2019-10-10T08:22:06.000Z</Time>
            <Position>
              <LatitudeDegrees>38.24449106119573116302490234375</LatitudeDegrees>
              <LongitudeDegrees>-6.30040948279201984405517578125</LongitudeDegrees>
            </Position>
            <AltitudeMeters>494.20001220703125</AltitudeMeters>
            <DistanceMeters>NAN</DistanceMeters>
          </Trackpoint>
          <Trackpoint>
            <Time>2019-10-10T08:22:09.000Z</Time>
            <Position>
              <LatitudeDegrees>38.24420289136469364166259765625</LatitudeDegrees>
              <LongitudeDegrees>-6.30053378641605377197265625</LongitudeDegrees>
            </Position>
            <AltitudeMeters>492.79998779296875</AltitudeMeters>
            <DistanceMeters>NAN</DistanceMeters>
          </Trackpoint>
          <Trackpoint>
            <Time>2019-10-10T08:22:11.000Z</Time>
            <Position>
              <LatitudeDegrees>38.2440138794481754302978515625</LatitudeDegrees>
              <LongitudeDegrees>-6.3006187789142131805419921875</LongitudeDegrees>
            </Position>
            <AltitudeMeters>491.600006103515625</AltitudeMeters>
            <DistanceMeters>NAN</DistanceMeters>
          </Trackpoint>
          <Trackpoint>
            <Time>2019-10-10T08:22:13.000Z</Time>
            <Position>
              <LatitudeDegrees>38.24382855556905269622802734375</LatitudeDegrees>
              <LongitudeDegrees>-6.3007203675806522369384765625</LongitudeDegrees>
            </Position>
            <AltitudeMeters>491.20001220703125</AltitudeMeters>
            <DistanceMeters>NAN</DistanceMeters>
          </Trackpoint>
          <Trackpoint>
            <Time>2019-10-10T08:22:14.000Z</Time>
            <Position>
              <LatitudeDegrees>38.24373476207256317138671875</LatitudeDegrees>
              <LongitudeDegrees>-6.30076252855360507965087890625</LongitudeDegrees>
            </Position>
            <AltitudeMeters>490.600006103515625</AltitudeMeters>
            <DistanceMeters>NAN</DistanceMeters>
          </Trackpoint>
          <Trackpoint>
            <Time>2019-10-10T08:22:16.000Z</Time>
            <Position>
              <LatitudeDegrees>38.24354843236505985260009765625</LatitudeDegrees>
              <LongitudeDegrees>-6.30084182135760784149169921875</LongitudeDegrees>
            </Position>
            <AltitudeMeters>490</AltitudeMeters>
            <DistanceMeters>NAN</DistanceMeters>
          </Trackpoint>
          <Trackpoint>
            <Time>2019-10-10T08:22:18.000Z</Time>
            <Position>
              <LatitudeDegrees>38.24336470104753971099853515625</LatitudeDegrees>
              <LongitudeDegrees>-6.3009138219058513641357421875</LongitudeDegrees>
            </Position>
            <AltitudeMeters>489.600006103515625</AltitudeMeters>
            <DistanceMeters>NAN</DistanceMeters>
          </Trackpoint>
          <Trackpoint>
            <Time>2019-10-10T08:22:20.000Z</Time>
            <Position>
              <LatitudeDegrees>38.243180215358734130859375</LatitudeDegrees>
              <LongitudeDegrees>-6.30096838809549808502197265625</LongitudeDegrees>
            </Position>
            <AltitudeMeters>489.600006103515625</AltitudeMeters>
            <DistanceMeters>NAN</DistanceMeters>
          </Trackpoint>
          <Trackpoint>
            <Time>2019-10-10T08:22:22.000Z</Time>
            <Position>
              <LatitudeDegrees>38.24298801831901073455810546875</LatitudeDegrees>
              <LongitudeDegrees>-6.30100375972688198089599609375</LongitudeDegrees>
            </Position>
            <AltitudeMeters>488.79998779296875</AltitudeMeters>
            <DistanceMeters>NAN</DistanceMeters>
          </Trackpoint>
          <Trackpoint>
            <Time>2019-10-10T08:22:25.000Z</Time>
            <Position>
              <LatitudeDegrees>38.2427244074642658233642578125</LatitudeDegrees>
              <LongitudeDegrees>-6.30102739669382572174072265625</LongitudeDegrees>
            </Position>
            <AltitudeMeters>488.20001220703125</AltitudeMeters>
            <DistanceMeters>NAN</DistanceMeters>
          </Trackpoint>
          <Trackpoint>
            <Time>2019-10-10T08:22:28.000Z</Time>
            <Position>
              <LatitudeDegrees>38.24244855903089046478271484375</LatitudeDegrees>
              <LongitudeDegrees>-6.30101817660033702850341796875</LongitudeDegrees>
            </Position>
            <AltitudeMeters>487.600006103515625</AltitudeMeters>
            <DistanceMeters>NAN</DistanceMeters>
          </Trackpoint>
          <Trackpoint>
            <Time>2019-10-10T08:22:29.000Z</Time>
            <Position>
              <LatitudeDegrees>38.24236390180885791778564453125</LatitudeDegrees>
              <LongitudeDegrees>-6.30101448856294155120849609375</LongitudeDegrees>
            </Position>
            <AltitudeMeters>487</AltitudeMeters>
            <DistanceMeters>NAN</DistanceMeters>
          </Trackpoint>
          <Trackpoint>
            <Time>2019-10-10T08:22:36.000Z</Time>
            <Position>
              <LatitudeDegrees>38.24179477058351039886474609375</LatitudeDegrees>
              <LongitudeDegrees>-6.30098481662571430206298828125</LongitudeDegrees>
            </Position>
            <AltitudeMeters>487</AltitudeMeters>
            <DistanceMeters>NAN</DistanceMeters>
          </Trackpoint>
          <Trackpoint>
            <Time>2019-10-10T08:22:37.000Z</Time>
            <Position>
              <LatitudeDegrees>38.24171564541757106781005859375</LatitudeDegrees>
              <LongitudeDegrees>-6.3009832240641117095947265625</LongitudeDegrees>
            </Position>
            <AltitudeMeters>487</AltitudeMeters>
            <DistanceMeters>NAN</DistanceMeters>
          </Trackpoint>
          <Trackpoint>
            <Time>2019-10-10T08:22:39.000Z</Time>
            <Position>
              <LatitudeDegrees>38.241564519703388214111328125</LatitudeDegrees>
              <LongitudeDegrees>-6.30097291432321071624755859375</LongitudeDegrees>
            </Position>
            <AltitudeMeters>486</AltitudeMeters>
            <DistanceMeters>NAN</DistanceMeters>
          </Trackpoint>
          <Trackpoint>
            <Time>2019-10-10T08:22:45.000Z</Time>
            <Position>
              <LatitudeDegrees>38.24112254194915294647216796875</LatitudeDegrees>
              <LongitudeDegrees>-6.3009456731379032135009765625</LongitudeDegrees>
            </Position>
            <AltitudeMeters>485.600006103515625</AltitudeMeters>
            <DistanceMeters>NAN</DistanceMeters>
          </Trackpoint>
          <Trackpoint>
            <Time>2019-10-10T08:22:48.000Z</Time>
            <Position>
              <LatitudeDegrees>38.24089287780225276947021484375</LatitudeDegrees>
              <LongitudeDegrees>-6.30093569867312908172607421875</LongitudeDegrees>
            </Position>
            <AltitudeMeters>485</AltitudeMeters>
            <DistanceMeters>NAN</DistanceMeters>
          </Trackpoint>
          <Trackpoint>
            <Time>2019-10-10T08:22:49.000Z</Time>
            <Position>
              <LatitudeDegrees>38.2408170215785503387451171875</LatitudeDegrees>
              <LongitudeDegrees>-6.30093343555927276611328125</LongitudeDegrees>
            </Position>
            <AltitudeMeters>484.600006103515625</AltitudeMeters>
            <DistanceMeters>NAN</DistanceMeters>
          </Trackpoint>
          <Trackpoint>
            <Time>2019-10-10T08:22:55.000Z</Time>
            <Position>
              <LatitudeDegrees>38.24034905992448329925537109375</LatitudeDegrees>
              <LongitudeDegrees>-6.300908625125885009765625</LongitudeDegrees>
            </Position>
            <AltitudeMeters>483.20001220703125</AltitudeMeters>
            <DistanceMeters>NAN</DistanceMeters>
          </Trackpoint>
          <Trackpoint>
            <Time>2019-10-10T08:22:57.000Z</Time>
            <Position>
              <LatitudeDegrees>38.24020086787641048431396484375</LatitudeDegrees>
              <LongitudeDegrees>-6.30089881829917430877685546875</LongitudeDegrees>
            </Position>
            <AltitudeMeters>483.20001220703125</AltitudeMeters>
            <DistanceMeters>NAN</DistanceMeters>
          </Trackpoint>
          <Trackpoint>
            <Time>2019-10-10T08:23:01.000Z</Time>
            <Position>
              <LatitudeDegrees>38.239881098270416259765625</LatitudeDegrees>
              <LongitudeDegrees>-6.3008816353976726531982421875</LongitudeDegrees>
            </Position>
            <AltitudeMeters>482</AltitudeMeters>
            <DistanceMeters>NAN</DistanceMeters>
          </Trackpoint>
          <Trackpoint>
            <Time>2019-10-10T08:23:08.000Z</Time>
            <Position>
              <LatitudeDegrees>38.23932898230850696563720703125</LatitudeDegrees>
              <LongitudeDegrees>-6.30085028707981109619140625</LongitudeDegrees>
            </Position>
            <AltitudeMeters>481.399993896484375</AltitudeMeters>
            <DistanceMeters>NAN</DistanceMeters>
          </Trackpoint>
          <Trackpoint>
            <Time>2019-10-10T08:23:09.000Z</Time>
            <Position>
              <LatitudeDegrees>38.23924968950450420379638671875</LatitudeDegrees>
              <LongitudeDegrees>-6.300845928490161895751953125</LongitudeDegrees>
            </Position>
            <AltitudeMeters>480.79998779296875</AltitudeMeters>
            <DistanceMeters>NAN</DistanceMeters>
          </Trackpoint>
          <Trackpoint>
            <Time>2019-10-10T08:23:14.000Z</Time>
            <Position>
              <LatitudeDegrees>38.23886512778699398040771484375</LatitudeDegrees>
              <LongitudeDegrees>-6.300825811922550201416015625</LongitudeDegrees>
            </Position>
            <AltitudeMeters>479.600006103515625</AltitudeMeters>
            <DistanceMeters>NAN</DistanceMeters>
          </Trackpoint>
          <Trackpoint>
            <Time>2019-10-10T08:23:21.000Z</Time>
            <Position>
              <LatitudeDegrees>38.23832315392792224884033203125</LatitudeDegrees>
              <LongitudeDegrees>-6.3007946312427520751953125</LongitudeDegrees>
            </Position>
            <AltitudeMeters>479.399993896484375</AltitudeMeters>
            <DistanceMeters>NAN</DistanceMeters>
          </Trackpoint>
          <Trackpoint>
            <Time>2019-10-10T08:23:25.000Z</Time>
            <Position>
              <LatitudeDegrees>38.23802878148853778839111328125</LatitudeDegrees>
              <LongitudeDegrees>-6.30077895708382129669189453125</LongitudeDegrees>
            </Position>
            <AltitudeMeters>479.20001220703125</AltitudeMeters>
            <DistanceMeters>NAN</DistanceMeters>
          </Trackpoint>
          <Trackpoint>
            <Time>2019-10-10T08:23:29.000Z</Time>
            <Position>
              <LatitudeDegrees>38.2377539388835430145263671875</LatitudeDegrees>
              <LongitudeDegrees>-6.30076437257230281829833984375</LongitudeDegrees>
            </Position>
            <AltitudeMeters>479.399993896484375</AltitudeMeters>
            <DistanceMeters>NAN</DistanceMeters>
          </Trackpoint>
          <Trackpoint>
            <Time>2019-10-10T08:23:36.000Z</Time>
            <Position>
              <LatitudeDegrees>38.23731229640543460845947265625</LatitudeDegrees>
              <LongitudeDegrees>-6.30073972977697849273681640625</LongitudeDegrees>
            </Position>
            <AltitudeMeters>480.20001220703125</AltitudeMeters>
            <DistanceMeters>NAN</DistanceMeters>
          </Trackpoint>
          <Trackpoint>
            <Time>2019-10-10T08:23:38.000Z</Time>
            <Position>
              <LatitudeDegrees>38.23719310574233531951904296875</LatitudeDegrees>
              <LongitudeDegrees>-6.30073252134025096893310546875</LongitudeDegrees>
            </Position>
            <AltitudeMeters>479.79998779296875</AltitudeMeters>
            <DistanceMeters>NAN</DistanceMeters>
          </Trackpoint>
          <Trackpoint>
            <Time>2019-10-10T08:23:42.000Z</Time>
            <Position>
              <LatitudeDegrees>38.23696595616638660430908203125</LatitudeDegrees>
              <LongitudeDegrees>-6.300719864666461944580078125</LongitudeDegrees>
            </Position>
            <AltitudeMeters>481</AltitudeMeters>
            <DistanceMeters>NAN</DistanceMeters>
          </Trackpoint>
          <Trackpoint>
            <Time>2019-10-10T08:23:47.000Z</Time>
            <Position>
              <LatitudeDegrees>38.23668859899044036865234375</LatitudeDegrees>
              <LongitudeDegrees>-6.3007061183452606201171875</LongitudeDegrees>
            </Position>
            <AltitudeMeters>481</AltitudeMeters>
            <DistanceMeters>NAN</DistanceMeters>
          </Trackpoint>
          <Trackpoint>
            <Time>2019-10-10T08:23:55.000Z</Time>
            <Position>
              <LatitudeDegrees>38.2362614572048187255859375</LatitudeDegrees>
              <LongitudeDegrees>-6.30068658851087093353271484375</LongitudeDegrees>
            </Position>
            <AltitudeMeters>481.600006103515625</AltitudeMeters>
            <DistanceMeters>NAN</DistanceMeters>
          </Trackpoint>
          <Trackpoint>
            <Time>2019-10-10T08:23:58.000Z</Time>
            <Position>
              <LatitudeDegrees>38.23610094375908374786376953125</LatitudeDegrees>
              <LongitudeDegrees>-6.30067686550319194793701171875</LongitudeDegrees>
            </Position>
            <AltitudeMeters>481.79998779296875</AltitudeMeters>
            <DistanceMeters>NAN</DistanceMeters>
          </Trackpoint>
          <Trackpoint>
            <Time>2019-10-10T08:24:02.000Z</Time>
            <Position>
              <LatitudeDegrees>38.23589374311268329620361328125</LatitudeDegrees>
              <LongitudeDegrees>-6.3006630353629589080810546875</LongitudeDegrees>
            </Position>
            <AltitudeMeters>482.20001220703125</AltitudeMeters>
            <DistanceMeters>NAN</DistanceMeters>
          </Trackpoint>
          <Trackpoint>
            <Time>2019-10-10T08:24:05.000Z</Time>
            <Position>
              <LatitudeDegrees>38.23573800735175609588623046875</LatitudeDegrees>
              <LongitudeDegrees>-6.30065574310719966888427734375</LongitudeDegrees>
            </Position>
            <AltitudeMeters>482.600006103515625</AltitudeMeters>
            <DistanceMeters>NAN</DistanceMeters>
          </Trackpoint>
          <Trackpoint>
            <Time>2019-10-10T08:24:09.000Z</Time>
            <Position>
              <LatitudeDegrees>38.23553097434341907501220703125</LatitudeDegrees>
              <LongitudeDegrees>-6.300635375082492828369140625</LongitudeDegrees>
            </Position>
            <AltitudeMeters>483.399993896484375</AltitudeMeters>
            <DistanceMeters>NAN</DistanceMeters>
          </Trackpoint>
          <Trackpoint>
            <Time>2019-10-10T08:24:14.000Z</Time>
            <Position>
              <LatitudeDegrees>38.235271386802196502685546875</LatitudeDegrees>
              <LongitudeDegrees>-6.300616599619388580322265625</LongitudeDegrees>
            </Position>
            <AltitudeMeters>483.399993896484375</AltitudeMeters>
            <DistanceMeters>NAN</DistanceMeters>
          </Trackpoint>
          <Trackpoint>
            <Time>2019-10-10T08:24:21.000Z</Time>
            <Position>
              <LatitudeDegrees>38.234926052391529083251953125</LatitudeDegrees>
              <LongitudeDegrees>-6.3005956448614597320556640625</LongitudeDegrees>
            </Position>
            <AltitudeMeters>484.600006103515625</AltitudeMeters>
            <DistanceMeters>NAN</DistanceMeters>
          </Trackpoint>
          <Trackpoint>
            <Time>2019-10-10T08:24:22.000Z</Time>
            <Position>
              <LatitudeDegrees>38.23487718589603900909423828125</LatitudeDegrees>
              <LongitudeDegrees>-6.3005929626524448394775390625</LongitudeDegrees>
            </Position>
            <AltitudeMeters>484.600006103515625</AltitudeMeters>
            <DistanceMeters>NAN</DistanceMeters>
          </Trackpoint>
          <Trackpoint>
            <Time>2019-10-10T08:24:29.000Z</Time>
            <Position>
              <LatitudeDegrees>38.2345235534012317657470703125</LatitudeDegrees>
              <LongitudeDegrees>-6.3005755282938480377197265625</LongitudeDegrees>
            </Position>
            <AltitudeMeters>485.20001220703125</AltitudeMeters>
            <DistanceMeters>NAN</DistanceMeters>
          </Trackpoint>
          <Trackpoint>
            <Time>2019-10-10T08:24:30.000Z</Time>
            <Position>
              <LatitudeDegrees>38.2344739325344562530517578125</LatitudeDegrees>
              <LongitudeDegrees>-6.3005731813609600067138671875</LongitudeDegrees>
            </Position>
            <AltitudeMeters>485.600006103515625</AltitudeMeters>
            <DistanceMeters>NAN</DistanceMeters>
          </Trackpoint>
          <Trackpoint>
            <Time>2019-10-10T08:24:36.000Z</Time>
            <Position>
              <LatitudeDegrees>38.23419087566435337066650390625</LatitudeDegrees>
              <LongitudeDegrees>-6.30057393573224544525146484375</LongitudeDegrees>
            </Position>
            <AltitudeMeters>486</AltitudeMeters>
            <DistanceMeters>NAN</DistanceMeters>
          </Trackpoint>
          <Trackpoint>
            <Time>2019-10-10T08:24:37.000Z</Time>
            <Position>
              <LatitudeDegrees>38.23414544574916362762451171875</LatitudeDegrees>
              <LongitudeDegrees>-6.30057259462773799896240234375</LongitudeDegrees>
            </Position>
            <AltitudeMeters>486</AltitudeMeters>
            <DistanceMeters>NAN</DistanceMeters>
          </Trackpoint>
          <Trackpoint>
            <Time>2019-10-10T08:24:48.000Z</Time>
            <Position>
              <LatitudeDegrees>38.23364521376788616180419921875</LatitudeDegrees>
              <LongitudeDegrees>-6.3005557470023632049560546875</LongitudeDegrees>
            </Position>
            <AltitudeMeters>486.79998779296875</AltitudeMeters>
            <DistanceMeters>NAN</DistanceMeters>
          </Trackpoint>
          <Trackpoint>
            <Time>2019-10-10T08:24:49.000Z</Time>
            <Position>
              <LatitudeDegrees>38.23359978385269641876220703125</LatitudeDegrees>
              <LongitudeDegrees>-6.300557591021060943603515625</LongitudeDegrees>
            </Position>
            <AltitudeMeters>487</AltitudeMeters>
            <DistanceMeters>NAN</DistanceMeters>
          </Trackpoint>
          <Trackpoint>
            <Time>2019-10-10T08:24:58.000Z</Time>
            <Position>
              <LatitudeDegrees>38.23316258378326892852783203125</LatitudeDegrees>
              <LongitudeDegrees>-6.3005795516073703765869140625</LongitudeDegrees>
            </Position>
            <AltitudeMeters>486.399993896484375</AltitudeMeters>
            <DistanceMeters>NAN</DistanceMeters>
          </Trackpoint>
          <Trackpoint>
            <Time>2019-10-10T08:24:59.000Z</Time>
            <Position>
              <LatitudeDegrees>38.233111537992954254150390625</LatitudeDegrees>
              <LongitudeDegrees>-6.30058147944509983062744140625</LongitudeDegrees>
            </Position>
            <AltitudeMeters>486.399993896484375</AltitudeMeters>
            <DistanceMeters>NAN</DistanceMeters>
          </Trackpoint>
          <Trackpoint>
            <Time>2019-10-10T08:25:06.000Z</Time>
            <Position>
              <LatitudeDegrees>38.2327405549585819244384765625</LatitudeDegrees>
              <LongitudeDegrees>-6.30060092546045780181884765625</LongitudeDegrees>
            </Position>
            <AltitudeMeters>486.399993896484375</AltitudeMeters>
            <DistanceMeters>NAN</DistanceMeters>
          </Trackpoint>
          <Trackpoint>
            <Time>2019-10-10T08:25:07.000Z</Time>
            <Position>
              <LatitudeDegrees>38.23268414475023746490478515625</LatitudeDegrees>
              <LongitudeDegrees>-6.30060511641204357147216796875</LongitudeDegrees>
            </Position>
            <AltitudeMeters>486.399993896484375</AltitudeMeters>
            <DistanceMeters>NAN</DistanceMeters>
          </Trackpoint>
          <Trackpoint>
            <Time>2019-10-10T08:25:13.000Z</Time>
            <Position>
              <LatitudeDegrees>38.23236127384006977081298828125</LatitudeDegrees>
              <LongitudeDegrees>-6.30061282776296138763427734375</LongitudeDegrees>
            </Position>
            <AltitudeMeters>486.20001220703125</AltitudeMeters>
            <DistanceMeters>NAN</DistanceMeters>
          </Trackpoint>
          <Trackpoint>
            <Time>2019-10-10T08:25:17.000Z</Time>
            <Position>
              <LatitudeDegrees>38.2321474514901638031005859375</LatitudeDegrees>
              <LongitudeDegrees>-6.30061031319200992584228515625</LongitudeDegrees>
            </Position>
            <AltitudeMeters>486.399993896484375</AltitudeMeters>
            <DistanceMeters>NAN</DistanceMeters>
          </Trackpoint>
          <Trackpoint>
            <Time>2019-10-10T08:25:20.000Z</Time>
            <Position>
              <LatitudeDegrees>38.23199029080569744110107421875</LatitudeDegrees>
              <LongitudeDegrees>-6.3006000034511089324951171875</LongitudeDegrees>
            </Position>
            <AltitudeMeters>485.79998779296875</AltitudeMeters>
            <DistanceMeters>NAN</DistanceMeters>
          </Trackpoint>
          <Trackpoint>
            <Time>2019-10-10T08:25:21.000Z</Time>
            <Position>
              <LatitudeDegrees>38.23193731717765331268310546875</LatitudeDegrees>
              <LongitudeDegrees>-6.3005926273763179779052734375</LongitudeDegrees>
            </Position>
            <AltitudeMeters>485.79998779296875</AltitudeMeters>
            <DistanceMeters>NAN</DistanceMeters>
          </Trackpoint>
          <Trackpoint>
            <Time>2019-10-10T08:25:25.000Z</Time>
            <Position>
              <LatitudeDegrees>38.2317213155329227447509765625</LatitudeDegrees>
              <LongitudeDegrees>-6.30055968649685382843017578125</LongitudeDegrees>
            </Position>
            <AltitudeMeters>485.600006103515625</AltitudeMeters>
            <DistanceMeters>NAN</DistanceMeters>
          </Trackpoint>
          <Trackpoint>
            <Time>2019-10-10T08:25:35.000Z</Time>
            <Position>
              <LatitudeDegrees>38.23118143714964389801025390625</LatitudeDegrees>
              <LongitudeDegrees>-6.30047000013291835784912109375</LongitudeDegrees>
            </Position>
            <AltitudeMeters>485.20001220703125</AltitudeMeters>
            <DistanceMeters>NAN</DistanceMeters>
          </Trackpoint>
          <Trackpoint>
            <Time>2019-10-10T08:25:38.000Z</Time>
            <Position>
              <LatitudeDegrees>38.23102151043713092803955078125</LatitudeDegrees>
              <LongitudeDegrees>-6.30044921301305294036865234375</LongitudeDegrees>
            </Position>
            <AltitudeMeters>485</AltitudeMeters>
            <DistanceMeters>NAN</DistanceMeters>
          </Trackpoint>
          <Trackpoint>
            <Time>2019-10-10T08:25:48.000Z</Time>
            <Position>
              <LatitudeDegrees>38.2304764352738857269287109375</LatitudeDegrees>
              <LongitudeDegrees>-6.30034963600337505340576171875</LongitudeDegrees>
            </Position>
            <AltitudeMeters>485.20001220703125</AltitudeMeters>
            <DistanceMeters>NAN</DistanceMeters>
          </Trackpoint>
          <Trackpoint>
            <Time>2019-10-10T08:25:52.000Z</Time>
            <Position>
              <LatitudeDegrees>38.2302467711269855499267578125</LatitudeDegrees>
              <LongitudeDegrees>-6.30030521191656589508056640625</LongitudeDegrees>
            </Position>
            <AltitudeMeters>484.600006103515625</AltitudeMeters>
            <DistanceMeters>NAN</DistanceMeters>
          </Trackpoint>
          <Trackpoint>
            <Time>2019-10-10T08:25:56.000Z</Time>
            <Position>
              <LatitudeDegrees>38.22999707423150539398193359375</LatitudeDegrees>
              <LongitudeDegrees>-6.300253160297870635986328125</LongitudeDegrees>
            </Position>
            <AltitudeMeters>483.20001220703125</AltitudeMeters>
            <DistanceMeters>NAN</DistanceMeters>
          </Trackpoint>
          <Trackpoint>
            <Time>2019-10-10T08:26:00.000Z</Time>
            <Position>
              <LatitudeDegrees>38.22972080670297145843505859375</LatitudeDegrees>
              <LongitudeDegrees>-6.300194822251796722412109375</LongitudeDegrees>
            </Position>
            <AltitudeMeters>482</AltitudeMeters>
            <DistanceMeters>NAN</DistanceMeters>
          </Trackpoint>
          <Trackpoint>
            <Time>2019-10-10T08:26:03.000Z</Time>
            <Position>
              <LatitudeDegrees>38.22950430214405059814453125</LatitudeDegrees>
              <LongitudeDegrees>-6.300144530832767486572265625</LongitudeDegrees>
            </Position>
            <AltitudeMeters>480.79998779296875</AltitudeMeters>
            <DistanceMeters>NAN</DistanceMeters>
          </Trackpoint>
          <Trackpoint>
            <Time>2019-10-10T08:26:05.000Z</Time>
            <Position>
              <LatitudeDegrees>38.2293559424579143524169921875</LatitudeDegrees>
              <LongitudeDegrees>-6.30010287277400493621826171875</LongitudeDegrees>
            </Position>
            <AltitudeMeters>479.79998779296875</AltitudeMeters>
            <DistanceMeters>NAN</DistanceMeters>
          </Trackpoint>
          <Trackpoint>
            <Time>2019-10-10T08:26:06.000Z</Time>
            <Position>
              <LatitudeDegrees>38.2292823493480682373046875</LatitudeDegrees>
              <LongitudeDegrees>-6.30007906816899776458740234375</LongitudeDegrees>
            </Position>
            <AltitudeMeters>479.79998779296875</AltitudeMeters>
            <DistanceMeters>NAN</DistanceMeters>
          </Trackpoint>
          <Trackpoint>
            <Time>2019-10-10T08:26:08.000Z</Time>
            <Position>
              <LatitudeDegrees>38.2291349954903125762939453125</LatitudeDegrees>
              <LongitudeDegrees>-6.30002642981708049774169921875</LongitudeDegrees>
            </Position>
            <AltitudeMeters>478.79998779296875</AltitudeMeters>
            <DistanceMeters>NAN</DistanceMeters>
          </Trackpoint>
          <Trackpoint>
            <Time>2019-10-10T08:26:11.000Z</Time>
            <Position>
              <LatitudeDegrees>38.2289110310375690460205078125</LatitudeDegrees>
              <LongitudeDegrees>-6.29993640817701816558837890625</LongitudeDegrees>
            </Position>
            <AltitudeMeters>477.600006103515625</AltitudeMeters>
            <DistanceMeters>NAN</DistanceMeters>
          </Trackpoint>
          <Trackpoint>
            <Time>2019-10-10T08:26:14.000Z</Time>
            <Position>
              <LatitudeDegrees>38.22868824005126953125</LatitudeDegrees>
              <LongitudeDegrees>-6.2998332269489765167236328125</LongitudeDegrees>
            </Position>
            <AltitudeMeters>476.79998779296875</AltitudeMeters>
            <DistanceMeters>NAN</DistanceMeters>
          </Trackpoint>
          <Trackpoint>
            <Time>2019-10-10T08:26:15.000Z</Time>
            <Position>
              <LatitudeDegrees>38.22861389257013797760009765625</LatitudeDegrees>
              <LongitudeDegrees>-6.2997963465750217437744140625</LongitudeDegrees>
            </Position>
            <AltitudeMeters>476.399993896484375</AltitudeMeters>
            <DistanceMeters>NAN</DistanceMeters>
          </Trackpoint>
          <Trackpoint>
            <Time>2019-10-10T08:26:16.000Z</Time>
            <Position>
              <LatitudeDegrees>38.22854063473641872406005859375</LatitudeDegrees>
              <LongitudeDegrees>-6.29975728690624237060546875</LongitudeDegrees>
            </Position>
            <AltitudeMeters>476.20001220703125</AltitudeMeters>
            <DistanceMeters>NAN</DistanceMeters>
          </Trackpoint>
          <Trackpoint>
            <Time>2019-10-10T08:26:17.000Z</Time>
            <Position>
              <LatitudeDegrees>38.2284624315798282623291015625</LatitudeDegrees>
              <LongitudeDegrees>-6.29971629939973354339599609375</LongitudeDegrees>
            </Position>
            <AltitudeMeters>475.600006103515625</AltitudeMeters>
            <DistanceMeters>NAN</DistanceMeters>
          </Trackpoint>
          <Trackpoint>
            <Time>2019-10-10T08:26:18.000Z</Time>
            <Position>
              <LatitudeDegrees>38.22838791646063327789306640625</LatitudeDegrees>
              <LongitudeDegrees>-6.29967690445482730865478515625</LongitudeDegrees>
            </Position>
            <AltitudeMeters>475</AltitudeMeters>
            <DistanceMeters>NAN</DistanceMeters>
          </Trackpoint>
          <Trackpoint>
            <Time>2019-10-10T08:26:22.000Z</Time>
            <Position>
              <LatitudeDegrees>38.22808742523193359375</LatitudeDegrees>
              <LongitudeDegrees>-6.2995204143226146697998046875</LongitudeDegrees>
            </Position>
            <AltitudeMeters>473.79998779296875</AltitudeMeters>
            <DistanceMeters>NAN</DistanceMeters>
          </Trackpoint>
          <Trackpoint>
            <Time>2019-10-10T08:26:23.000Z</Time>
            <Position>
              <LatitudeDegrees>38.22800687514245510101318359375</LatitudeDegrees>
              <LongitudeDegrees>-6.299476660788059234619140625</LongitudeDegrees>
            </Position>
            <AltitudeMeters>473</AltitudeMeters>
            <DistanceMeters>NAN</DistanceMeters>
          </Trackpoint>
          <Trackpoint>
            <Time>2019-10-10T08:26:24.000Z</Time>
            <Position>
              <LatitudeDegrees>38.22792984545230865478515625</LatitudeDegrees>
              <LongitudeDegrees>-6.2994347512722015380859375</LongitudeDegrees>
            </Position>
            <AltitudeMeters>472.79998779296875</AltitudeMeters>
            <DistanceMeters>NAN</DistanceMeters>
          </Trackpoint>
          <Trackpoint>
            <Time>2019-10-10T08:26:27.000Z</Time>
            <Position>
              <LatitudeDegrees>38.2276949845254421234130859375</LatitudeDegrees>
              <LongitudeDegrees>-6.2993112020194530487060546875</LongitudeDegrees>
            </Position>
            <AltitudeMeters>471.399993896484375</AltitudeMeters>
            <DistanceMeters>NAN</DistanceMeters>
          </Trackpoint>
          <Trackpoint>
            <Time>2019-10-10T08:26:32.000Z</Time>
            <Position>
              <LatitudeDegrees>38.22730044834315776824951171875</LatitudeDegrees>
              <LongitudeDegrees>-6.29910006187856197357177734375</LongitudeDegrees>
            </Position>
            <AltitudeMeters>470.20001220703125</AltitudeMeters>
            <DistanceMeters>NAN</DistanceMeters>
          </Trackpoint>
          <Trackpoint>
            <Time>2019-10-10T08:26:33.000Z</Time>
            <Position>
              <LatitudeDegrees>38.22722383774816989898681640625</LatitudeDegrees>
              <LongitudeDegrees>-6.299058906733989715576171875</LongitudeDegrees>
            </Position>
            <AltitudeMeters>469.600006103515625</AltitudeMeters>
            <DistanceMeters>NAN</DistanceMeters>
          </Trackpoint>
          <Trackpoint>
            <Time>2019-10-10T08:26:37.000Z</Time>
            <Position>
              <LatitudeDegrees>38.22692334651947021484375</LatitudeDegrees>
              <LongitudeDegrees>-6.29889889620244503021240234375</LongitudeDegrees>
            </Position>
            <AltitudeMeters>469.79998779296875</AltitudeMeters>
            <DistanceMeters>NAN</DistanceMeters>
          </Trackpoint>
          <Trackpoint>
            <Time>2019-10-10T08:26:41.000Z</Time>
            <Position>
              <LatitudeDegrees>38.22663970291614532470703125</LatitudeDegrees>
              <LongitudeDegrees>-6.29874609410762786865234375</LongitudeDegrees>
            </Position>
            <AltitudeMeters>469.399993896484375</AltitudeMeters>
            <DistanceMeters>NAN</DistanceMeters>
          </Trackpoint>
          <Trackpoint>
            <Time>2019-10-10T08:26:46.000Z</Time>
            <Position>
              <LatitudeDegrees>38.2263183407485485076904296875</LatitudeDegrees>
              <LongitudeDegrees>-6.2985729239881038665771484375</LongitudeDegrees>
            </Position>
            <AltitudeMeters>470</AltitudeMeters>
            <DistanceMeters>NAN</DistanceMeters>
          </Trackpoint>
          <Trackpoint>
            <Time>2019-10-10T08:26:49.000Z</Time>
            <Position>
              <LatitudeDegrees>38.226137124001979827880859375</LatitudeDegrees>
              <LongitudeDegrees>-6.29847745411098003387451171875</LongitudeDegrees>
            </Position>
            <AltitudeMeters>469.600006103515625</AltitudeMeters>
            <DistanceMeters>NAN</DistanceMeters>
          </Trackpoint>
          <Trackpoint>
            <Time>2019-10-10T08:26:54.000Z</Time>
            <Position>
              <LatitudeDegrees>38.225853145122528076171875</LatitudeDegrees>
              <LongitudeDegrees>-6.29832423292100429534912109375</LongitudeDegrees>
            </Position>
            <AltitudeMeters>470</AltitudeMeters>
            <DistanceMeters>NAN</DistanceMeters>
          </Trackpoint>
          <Trackpoint>
            <Time>2019-10-10T08:26:56.000Z</Time>
            <Position>
              <LatitudeDegrees>38.22574728168547153472900390625</LatitudeDegrees>
              <LongitudeDegrees>-6.298266313970088958740234375</LongitudeDegrees>
            </Position>
            <AltitudeMeters>470.399993896484375</AltitudeMeters>
            <DistanceMeters>NAN</DistanceMeters>
          </Trackpoint>
          <Trackpoint>
            <Time>2019-10-10T08:27:00.000Z</Time>
            <Position>
              <LatitudeDegrees>38.22555215097963809967041015625</LatitudeDegrees>
              <LongitudeDegrees>-6.2981494702398777008056640625</LongitudeDegrees>
            </Position>
            <AltitudeMeters>470.600006103515625</AltitudeMeters>
            <DistanceMeters>NAN</DistanceMeters>
          </Trackpoint>
          <Trackpoint>
            <Time>2019-10-10T08:27:02.000Z</Time>
            <Position>
              <LatitudeDegrees>38.225462548434734344482421875</LatitudeDegrees>
              <LongitudeDegrees>-6.29809071309864521026611328125</LongitudeDegrees>
            </Position>
            <AltitudeMeters>471.20001220703125</AltitudeMeters>
            <DistanceMeters>NAN</DistanceMeters>
          </Trackpoint>
          <Trackpoint>
            <Time>2019-10-10T08:27:04.000Z</Time>
            <Position>
              <LatitudeDegrees>38.2253799028694629669189453125</LatitudeDegrees>
              <LongitudeDegrees>-6.2980297766625881195068359375</LongitudeDegrees>
            </Position>
            <AltitudeMeters>471.600006103515625</AltitudeMeters>
            <DistanceMeters>NAN</DistanceMeters>
          </Trackpoint>
          <Trackpoint>
            <Time>2019-10-10T08:27:10.000Z</Time>
            <Position>
              <LatitudeDegrees>38.22515082545578479766845703125</LatitudeDegrees>
              <LongitudeDegrees>-6.29782785661518573760986328125</LongitudeDegrees>
            </Position>
            <AltitudeMeters>472</AltitudeMeters>
            <DistanceMeters>NAN</DistanceMeters>
          </Trackpoint>
          <Trackpoint>
            <Time>2019-10-10T08:27:12.000Z</Time>
            <Position>
              <LatitudeDegrees>38.22507999837398529052734375</LatitudeDegrees>
              <LongitudeDegrees>-6.2977556884288787841796875</LongitudeDegrees>
            </Position>
            <AltitudeMeters>472.20001220703125</AltitudeMeters>
            <DistanceMeters>NAN</DistanceMeters>
          </Trackpoint>
          <Trackpoint>
            <Time>2019-10-10T08:27:13.000Z</Time>
            <Position>
              <LatitudeDegrees>38.22504387237131595611572265625</LatitudeDegrees>
              <LongitudeDegrees>-6.297717131674289703369140625</LongitudeDegrees>
            </Position>
            <AltitudeMeters>472.20001220703125</AltitudeMeters>
            <DistanceMeters>NAN</DistanceMeters>
          </Trackpoint>
          <Trackpoint>
            <Time>2019-10-10T08:27:17.000Z</Time>
            <Position>
              <LatitudeDegrees>38.22490699589252471923828125</LatitudeDegrees>
              <LongitudeDegrees>-6.297567598521709442138671875</LongitudeDegrees>
            </Position>
            <AltitudeMeters>472.399993896484375</AltitudeMeters>
            <DistanceMeters>NAN</DistanceMeters>
          </Trackpoint>
          <Trackpoint>
            <Time>2019-10-10T08:27:24.000Z</Time>
            <Position>
              <LatitudeDegrees>38.2246677763760089874267578125</LatitudeDegrees>
              <LongitudeDegrees>-6.29729577340185642242431640625</LongitudeDegrees>
            </Position>
            <AltitudeMeters>472.399993896484375</AltitudeMeters>
            <DistanceMeters>NAN</DistanceMeters>
          </Trackpoint>
          <Trackpoint>
            <Time>2019-10-10T08:27:32.000Z</Time>
            <Position>
              <LatitudeDegrees>38.2243945263326168060302734375</LatitudeDegrees>
              <LongitudeDegrees>-6.2969858944416046142578125</LongitudeDegrees>
            </Position>
            <AltitudeMeters>473</AltitudeMeters>
            <DistanceMeters>NAN</DistanceMeters>
          </Trackpoint>
          <Trackpoint>
            <Time>2019-10-10T08:27:36.000Z</Time>
            <Position>
              <LatitudeDegrees>38.22426133789122104644775390625</LatitudeDegrees>
              <LongitudeDegrees>-6.296825967729091644287109375</LongitudeDegrees>
            </Position>
            <AltitudeMeters>473.20001220703125</AltitudeMeters>
            <DistanceMeters>NAN</DistanceMeters>
          </Trackpoint>
          <Trackpoint>
            <Time>2019-10-10T08:27:47.000Z</Time>
            <Position>
              <LatitudeDegrees>38.223879039287567138671875</LatitudeDegrees>
              <LongitudeDegrees>-6.2963959760963916778564453125</LongitudeDegrees>
            </Position>
            <AltitudeMeters>472.600006103515625</AltitudeMeters>
            <DistanceMeters>NAN</DistanceMeters>
          </Trackpoint>
          <Trackpoint>
            <Time>2019-10-10T08:27:57.000Z</Time>
            <Position>
              <LatitudeDegrees>38.22353060357272624969482421875</LatitudeDegrees>
              <LongitudeDegrees>-6.2959988415241241455078125</LongitudeDegrees>
            </Position>
            <AltitudeMeters>473</AltitudeMeters>
            <DistanceMeters>NAN</DistanceMeters>
          </Trackpoint>
          <Trackpoint>
            <Time>2019-10-10T08:28:07.000Z</Time>
            <Position>
              <LatitudeDegrees>38.22318769991397857666015625</LatitudeDegrees>
              <LongitudeDegrees>-6.295603215694427490234375</LongitudeDegrees>
            </Position>
            <AltitudeMeters>472.600006103515625</AltitudeMeters>
            <DistanceMeters>NAN</DistanceMeters>
          </Trackpoint>
          <Trackpoint>
            <Time>2019-10-10T08:28:18.000Z</Time>
            <Position>
              <LatitudeDegrees>38.22280892170965671539306640625</LatitudeDegrees>
              <LongitudeDegrees>-6.2951678596436977386474609375</LongitudeDegrees>
            </Position>
            <AltitudeMeters>473.20001220703125</AltitudeMeters>
            <DistanceMeters>NAN</DistanceMeters>
          </Trackpoint>
          <Trackpoint>
            <Time>2019-10-10T08:28:26.000Z</Time>
            <Position>
              <LatitudeDegrees>38.22253818623721599578857421875</LatitudeDegrees>
              <LongitudeDegrees>-6.294864602386951446533203125</LongitudeDegrees>
            </Position>
            <AltitudeMeters>474.20001220703125</AltitudeMeters>
            <DistanceMeters>NAN</DistanceMeters>
          </Trackpoint>
          <Trackpoint>
            <Time>2019-10-10T08:28:27.000Z</Time>
            <Position>
              <LatitudeDegrees>38.22250482626259326934814453125</LatitudeDegrees>
              <LongitudeDegrees>-6.2948258779942989349365234375</LongitudeDegrees>
            </Position>
            <AltitudeMeters>474.399993896484375</AltitudeMeters>
            <DistanceMeters>NAN</DistanceMeters>
          </Trackpoint>
          <Trackpoint>
            <Time>2019-10-10T08:28:29.000Z</Time>
            <Position>
              <LatitudeDegrees>38.222437016665935516357421875</LatitudeDegrees>
              <LongitudeDegrees>-6.2947511114180088043212890625</LongitudeDegrees>
            </Position>
            <AltitudeMeters>474.600006103515625</AltitudeMeters>
            <DistanceMeters>NAN</DistanceMeters>
          </Trackpoint>
          <Trackpoint>
            <Time>2019-10-10T08:28:34.000Z</Time>
            <Position>
              <LatitudeDegrees>38.222271390259265899658203125</LatitudeDegrees>
              <LongitudeDegrees>-6.29456679336726665496826171875</LongitudeDegrees>
            </Position>
            <AltitudeMeters>474.600006103515625</AltitudeMeters>
            <DistanceMeters>NAN</DistanceMeters>
          </Trackpoint>
          <Trackpoint>
            <Time>2019-10-10T08:28:41.000Z</Time>
            <Position>
              <LatitudeDegrees>38.22203560732305049896240234375</LatitudeDegrees>
              <LongitudeDegrees>-6.294312067329883575439453125</LongitudeDegrees>
            </Position>
            <AltitudeMeters>475</AltitudeMeters>
            <DistanceMeters>NAN</DistanceMeters>
          </Trackpoint>
          <Trackpoint>
            <Time>2019-10-10T08:28:44.000Z</Time>
            <Position>
              <LatitudeDegrees>38.22193250991404056549072265625</LatitudeDegrees>
              <LongitudeDegrees>-6.29420536570250988006591796875</LongitudeDegrees>
            </Position>
            <AltitudeMeters>475</AltitudeMeters>
            <DistanceMeters>NAN</DistanceMeters>
          </Trackpoint>
          <Trackpoint>
            <Time>2019-10-10T08:28:48.000Z</Time>
            <Position>
              <LatitudeDegrees>38.22178649716079235076904296875</LatitudeDegrees>
              <LongitudeDegrees>-6.2940810620784759521484375</LongitudeDegrees>
            </Position>
            <AltitudeMeters>475.600006103515625</AltitudeMeters>
            <DistanceMeters>NAN</DistanceMeters>
          </Trackpoint>
          <Trackpoint>
            <Time>2019-10-10T08:28:49.000Z</Time>
            <Position>
              <LatitudeDegrees>38.221750371158123016357421875</LatitudeDegrees>
              <LongitudeDegrees>-6.294050551950931549072265625</LongitudeDegrees>
            </Position>
            <AltitudeMeters>475.79998779296875</AltitudeMeters>
            <DistanceMeters>NAN</DistanceMeters>
          </Trackpoint>
          <Trackpoint>
            <Time>2019-10-10T08:28:58.000Z</Time>
            <Position>
              <LatitudeDegrees>38.22142741642892360687255859375</LatitudeDegrees>
              <LongitudeDegrees>-6.29379741847515106201171875</LongitudeDegrees>
            </Position>
            <AltitudeMeters>476.600006103515625</AltitudeMeters>
            <DistanceMeters>NAN</DistanceMeters>
          </Trackpoint>
          <Trackpoint>
            <Time>2019-10-10T08:28:59.000Z</Time>
            <Position>
              <LatitudeDegrees>38.2213931344449520111083984375</LatitudeDegrees>
              <LongitudeDegrees>-6.293776296079158782958984375</LongitudeDegrees>
            </Position>
            <AltitudeMeters>476.600006103515625</AltitudeMeters>
            <DistanceMeters>NAN</DistanceMeters>
          </Trackpoint>
          <Trackpoint>
            <Time>2019-10-10T08:29:08.000Z</Time>
            <Position>
              <LatitudeDegrees>38.221086524426937103271484375</LatitudeDegrees>
              <LongitudeDegrees>-6.293568424880504608154296875</LongitudeDegrees>
            </Position>
            <AltitudeMeters>477.20001220703125</AltitudeMeters>
            <DistanceMeters>NAN</DistanceMeters>
          </Trackpoint>
          <Trackpoint>
            <Time>2019-10-10T08:29:11.000Z</Time>
            <Position>
              <LatitudeDegrees>38.22098954580724239349365234375</LatitudeDegrees>
              <LongitudeDegrees>-6.29350413568317890167236328125</LongitudeDegrees>
            </Position>
            <AltitudeMeters>478</AltitudeMeters>
            <DistanceMeters>NAN</DistanceMeters>
          </Trackpoint>
          <Trackpoint>
            <Time>2019-10-10T08:29:18.000Z</Time>
            <Position>
              <LatitudeDegrees>38.22076239623129367828369140625</LatitudeDegrees>
              <LongitudeDegrees>-6.29336315207183361053466796875</LongitudeDegrees>
            </Position>
            <AltitudeMeters>478.79998779296875</AltitudeMeters>
            <DistanceMeters>NAN</DistanceMeters>
          </Trackpoint>
          <Trackpoint>
            <Time>2019-10-10T08:29:20.000Z</Time>
            <Position>
              <LatitudeDegrees>38.22070062160491943359375</LatitudeDegrees>
              <LongitudeDegrees>-6.2933241762220859527587890625</LongitudeDegrees>
            </Position>
            <AltitudeMeters>479.399993896484375</AltitudeMeters>
            <DistanceMeters>NAN</DistanceMeters>
          </Trackpoint>
          <Trackpoint>
            <Time>2019-10-10T08:29:24.000Z</Time>
            <Position>
              <LatitudeDegrees>38.220573551952838897705078125</LatitudeDegrees>
              <LongitudeDegrees>-6.29324161447584629058837890625</LongitudeDegrees>
            </Position>
            <AltitudeMeters>479.600006103515625</AltitudeMeters>
            <DistanceMeters>NAN</DistanceMeters>
          </Trackpoint>
          <Trackpoint>
            <Time>2019-10-10T08:29:29.000Z</Time>
            <Position>
              <LatitudeDegrees>38.220414631068706512451171875</LatitudeDegrees>
              <LongitudeDegrees>-6.29314564168453216552734375</LongitudeDegrees>
            </Position>
            <AltitudeMeters>480.600006103515625</AltitudeMeters>
            <DistanceMeters>NAN</DistanceMeters>
          </Trackpoint>
          <Trackpoint>
            <Time>2019-10-10T08:29:33.000Z</Time>
            <Position>
              <LatitudeDegrees>38.2202910818159580230712890625</LatitudeDegrees>
              <LongitudeDegrees>-6.29306651651859283447265625</LongitudeDegrees>
            </Position>
            <AltitudeMeters>481.20001220703125</AltitudeMeters>
            <DistanceMeters>NAN</DistanceMeters>
          </Trackpoint>
          <Trackpoint>
            <Time>2019-10-10T08:29:37.000Z</Time>
            <Position>
              <LatitudeDegrees>38.22016778402030467987060546875</LatitudeDegrees>
              <LongitudeDegrees>-6.29298605024814605712890625</LongitudeDegrees>
            </Position>
            <AltitudeMeters>481.600006103515625</AltitudeMeters>
            <DistanceMeters>NAN</DistanceMeters>
          </Trackpoint>
          <Trackpoint>
            <Time>2019-10-10T08:29:41.000Z</Time>
            <Position>
              <LatitudeDegrees>38.22004339657723903656005859375</LatitudeDegrees>
              <LongitudeDegrees>-6.29290851764380931854248046875</LongitudeDegrees>
            </Position>
            <AltitudeMeters>482.20001220703125</AltitudeMeters>
            <DistanceMeters>NAN</DistanceMeters>
          </Trackpoint>
          <Trackpoint>
            <Time>2019-10-10T08:29:46.000Z</Time>
            <Position>
              <LatitudeDegrees>38.21989168412983417510986328125</LatitudeDegrees>
              <LongitudeDegrees>-6.2928118743002414703369140625</LongitudeDegrees>
            </Position>
            <AltitudeMeters>482.600006103515625</AltitudeMeters>
            <DistanceMeters>NAN</DistanceMeters>
          </Trackpoint>
          <Trackpoint>
            <Time>2019-10-10T08:29:48.000Z</Time>
            <Position>
              <LatitudeDegrees>38.219830580055713653564453125</LatitudeDegrees>
              <LongitudeDegrees>-6.29277071915566921234130859375</LongitudeDegrees>
            </Position>
            <AltitudeMeters>483.20001220703125</AltitudeMeters>
            <DistanceMeters>NAN</DistanceMeters>
          </Trackpoint>
          <Trackpoint>
            <Time>2019-10-10T08:29:52.000Z</Time>
            <Position>
              <LatitudeDegrees>38.21970510296523571014404296875</LatitudeDegrees>
              <LongitudeDegrees>-6.29269226454198360443115234375</LongitudeDegrees>
            </Position>
            <AltitudeMeters>484</AltitudeMeters>
            <DistanceMeters>NAN</DistanceMeters>
          </Trackpoint>
          <Trackpoint>
            <Time>2019-10-10T08:29:57.000Z</Time>
            <Position>
              <LatitudeDegrees>38.219547607004642486572265625</LatitudeDegrees>
              <LongitudeDegrees>-6.292593441903591156005859375</LongitudeDegrees>
            </Position>
            <AltitudeMeters>484</AltitudeMeters>
            <DistanceMeters>NAN</DistanceMeters>
          </Trackpoint>
          <Trackpoint>
            <Time>2019-10-10T08:30:01.000Z</Time>
            <Position>
              <LatitudeDegrees>38.2194250635802745819091796875</LatitudeDegrees>
              <LongitudeDegrees>-6.2925121374428272247314453125</LongitudeDegrees>
            </Position>
            <AltitudeMeters>485</AltitudeMeters>
            <DistanceMeters>NAN</DistanceMeters>
          </Trackpoint>
          <Trackpoint>
            <Time>2019-10-10T08:30:06.000Z</Time>
            <Position>
              <LatitudeDegrees>38.21926823817193508148193359375</LatitudeDegrees>
              <LongitudeDegrees>-6.292409710586071014404296875</LongitudeDegrees>
            </Position>
            <AltitudeMeters>485.600006103515625</AltitudeMeters>
            <DistanceMeters>NAN</DistanceMeters>
          </Trackpoint>
          <Trackpoint>
            <Time>2019-10-10T08:30:09.000Z</Time>
            <Position>
              <LatitudeDegrees>38.21917268447577953338623046875</LatitudeDegrees>
              <LongitudeDegrees>-6.29235036671161651611328125</LongitudeDegrees>
            </Position>
            <AltitudeMeters>486</AltitudeMeters>
            <DistanceMeters>NAN</DistanceMeters>
          </Trackpoint>
          <Trackpoint>
            <Time>2019-10-10T08:30:15.000Z</Time>
            <Position>
              <LatitudeDegrees>38.21898870170116424560546875</LatitudeDegrees>
              <LongitudeDegrees>-6.29223293624818325042724609375</LongitudeDegrees>
            </Position>
            <AltitudeMeters>486.600006103515625</AltitudeMeters>
            <DistanceMeters>NAN</DistanceMeters>
          </Trackpoint>
          <Trackpoint>
            <Time>2019-10-10T08:30:18.000Z</Time>
            <Position>
              <LatitudeDegrees>38.21889608167111873626708984375</LatitudeDegrees>
              <LongitudeDegrees>-6.29217392764985561370849609375</LongitudeDegrees>
            </Position>
            <AltitudeMeters>487</AltitudeMeters>
            <DistanceMeters>NAN</DistanceMeters>
          </Trackpoint>
          <Trackpoint>
            <Time>2019-10-10T08:30:23.000Z</Time>
            <Position>
              <LatitudeDegrees>38.2187464646995067596435546875</LatitudeDegrees>
              <LongitudeDegrees>-6.292085163295269012451171875</LongitudeDegrees>
            </Position>
            <AltitudeMeters>487.399993896484375</AltitudeMeters>
            <DistanceMeters>NAN</DistanceMeters>
          </Trackpoint>
          <Trackpoint>
            <Time>2019-10-10T08:30:26.000Z</Time>
            <Position>
              <LatitudeDegrees>38.21865853853523731231689453125</LatitudeDegrees>
              <LongitudeDegrees>-6.292025484144687652587890625</LongitudeDegrees>
            </Position>
            <AltitudeMeters>488.20001220703125</AltitudeMeters>
            <DistanceMeters>NAN</DistanceMeters>
          </Trackpoint>
          <Trackpoint>
            <Time>2019-10-10T08:30:32.000Z</Time>
            <Position>
              <LatitudeDegrees>38.218480758368968963623046875</LatitudeDegrees>
              <LongitudeDegrees>-6.2919173575937747955322265625</LongitudeDegrees>
            </Position>
            <AltitudeMeters>488.20001220703125</AltitudeMeters>
            <DistanceMeters>NAN</DistanceMeters>
          </Trackpoint>
          <Trackpoint>
            <Time>2019-10-10T08:30:39.000Z</Time>
            <Position>
              <LatitudeDegrees>38.218279592692852020263671875</LatitudeDegrees>
              <LongitudeDegrees>-6.29177964292466640472412109375</LongitudeDegrees>
            </Position>
            <AltitudeMeters>489.20001220703125</AltitudeMeters>
            <DistanceMeters>NAN</DistanceMeters>
          </Trackpoint>
          <Trackpoint>
            <Time>2019-10-10T08:30:40.000Z</Time>
            <Position>
              <LatitudeDegrees>38.218247406184673309326171875</LatitudeDegrees>
              <LongitudeDegrees>-6.2917607836425304412841796875</LongitudeDegrees>
            </Position>
            <AltitudeMeters>489.20001220703125</AltitudeMeters>
            <DistanceMeters>NAN</DistanceMeters>
          </Trackpoint>
          <Trackpoint>
            <Time>2019-10-10T08:30:45.000Z</Time>
            <Position>
              <LatitudeDegrees>38.21809016168117523193359375</LatitudeDegrees>
              <LongitudeDegrees>-6.29165835678577423095703125</LongitudeDegrees>
            </Position>
            <AltitudeMeters>490.399993896484375</AltitudeMeters>
            <DistanceMeters>NAN</DistanceMeters>
          </Trackpoint>
          <Trackpoint>
            <Time>2019-10-10T08:30:51.000Z</Time>
            <Position>
              <LatitudeDegrees>38.21790106594562530517578125</LatitudeDegrees>
              <LongitudeDegrees>-6.29153975285589694976806640625</LongitudeDegrees>
            </Position>
            <AltitudeMeters>490.79998779296875</AltitudeMeters>
            <DistanceMeters>NAN</DistanceMeters>
          </Trackpoint>
          <Trackpoint>
            <Time>2019-10-10T08:30:55.000Z</Time>
            <Position>
              <LatitudeDegrees>38.21777927689254283905029296875</LatitudeDegrees>
              <LongitudeDegrees>-6.29146129824221134185791015625</LongitudeDegrees>
            </Position>
            <AltitudeMeters>491.399993896484375</AltitudeMeters>
            <DistanceMeters>NAN</DistanceMeters>
          </Trackpoint>
          <Trackpoint>
            <Time>2019-10-10T08:31:03.000Z</Time>
            <Position>
              <LatitudeDegrees>38.21753435768187046051025390625</LatitudeDegrees>
              <LongitudeDegrees>-6.291306652128696441650390625</LongitudeDegrees>
            </Position>
            <AltitudeMeters>492.20001220703125</AltitudeMeters>
            <DistanceMeters>NAN</DistanceMeters>
          </Trackpoint>
          <Trackpoint>
            <Time>2019-10-10T08:31:04.000Z</Time>
            <Position>
              <LatitudeDegrees>38.217503763735294342041015625</LatitudeDegrees>
              <LongitudeDegrees>-6.2912862002849578857421875</LongitudeDegrees>
            </Position>
            <AltitudeMeters>492.600006103515625</AltitudeMeters>
            <DistanceMeters>NAN</DistanceMeters>
          </Trackpoint>
          <Trackpoint>
            <Time>2019-10-10T08:31:14.000Z</Time>
            <Position>
              <LatitudeDegrees>38.21718097664415836334228515625</LatitudeDegrees>
              <LongitudeDegrees>-6.29108075983822345733642578125</LongitudeDegrees>
            </Position>
            <AltitudeMeters>493.399993896484375</AltitudeMeters>
            <DistanceMeters>NAN</DistanceMeters>
          </Trackpoint>
          <Trackpoint>
            <Time>2019-10-10T08:31:23.000Z</Time>
            <Position>
              <LatitudeDegrees>38.21686816401779651641845703125</LatitudeDegrees>
              <LongitudeDegrees>-6.290877163410186767578125</LongitudeDegrees>
            </Position>
            <AltitudeMeters>493.20001220703125</AltitudeMeters>
            <DistanceMeters>NAN</DistanceMeters>
          </Trackpoint>
          <Trackpoint>
            <Time>2019-10-10T08:31:30.000Z</Time>
            <Position>
              <LatitudeDegrees>38.21660899557173252105712890625</LatitudeDegrees>
              <LongitudeDegrees>-6.29071681760251522064208984375</LongitudeDegrees>
            </Position>
            <AltitudeMeters>492.79998779296875</AltitudeMeters>
            <DistanceMeters>NAN</DistanceMeters>
          </Trackpoint>
          <Trackpoint>
            <Time>2019-10-10T08:31:31.000Z</Time>
            <Position>
              <LatitudeDegrees>38.2165695168077945709228515625</LatitudeDegrees>
              <LongitudeDegrees>-6.29069385118782520294189453125</LongitudeDegrees>
            </Position>
            <AltitudeMeters>492.79998779296875</AltitudeMeters>
            <DistanceMeters>NAN</DistanceMeters>
          </Trackpoint>
          <Trackpoint>
            <Time>2019-10-10T08:31:36.000Z</Time>
            <Position>
              <LatitudeDegrees>38.21636759676039218902587890625</LatitudeDegrees>
              <LongitudeDegrees>-6.290591843426227569580078125</LongitudeDegrees>
            </Position>
            <AltitudeMeters>493</AltitudeMeters>
            <DistanceMeters>NAN</DistanceMeters>
          </Trackpoint>
          <Trackpoint>
            <Time>2019-10-10T08:31:40.000Z</Time>
            <Position>
              <LatitudeDegrees>38.216197192668914794921875</LatitudeDegrees>
              <LongitudeDegrees>-6.2905219383537769317626953125</LongitudeDegrees>
            </Position>
            <AltitudeMeters>492.600006103515625</AltitudeMeters>
            <DistanceMeters>NAN</DistanceMeters>
          </Trackpoint>
          <Trackpoint>
            <Time>2019-10-10T08:31:41.000Z</Time>
            <Position>
              <LatitudeDegrees>38.2161529362201690673828125</LatitudeDegrees>
              <LongitudeDegrees>-6.290506012737751007080078125</LongitudeDegrees>
            </Position>
            <AltitudeMeters>492.399993896484375</AltitudeMeters>
            <DistanceMeters>NAN</DistanceMeters>
          </Trackpoint>
          <Trackpoint>
            <Time>2019-10-10T08:31:47.000Z</Time>
            <Position>
              <LatitudeDegrees>38.21588546968996524810791015625</LatitudeDegrees>
              <LongitudeDegrees>-6.29044256173074245452880859375</LongitudeDegrees>
            </Position>
            <AltitudeMeters>492.600006103515625</AltitudeMeters>
            <DistanceMeters>NAN</DistanceMeters>
          </Trackpoint>
          <Trackpoint>
            <Time>2019-10-10T08:31:50.000Z</Time>
            <Position>
              <LatitudeDegrees>38.2157524488866329193115234375</LatitudeDegrees>
              <LongitudeDegrees>-6.29042596556246280670166015625</LongitudeDegrees>
            </Position>
            <AltitudeMeters>492.79998779296875</AltitudeMeters>
            <DistanceMeters>NAN</DistanceMeters>
          </Trackpoint>
          <Trackpoint>
            <Time>2019-10-10T08:32:00.000Z</Time>
            <Position>
              <LatitudeDegrees>38.2153015024960041046142578125</LatitudeDegrees>
              <LongitudeDegrees>-6.2903968803584575653076171875</LongitudeDegrees>
            </Position>
            <AltitudeMeters>493.20001220703125</AltitudeMeters>
            <DistanceMeters>NAN</DistanceMeters>
          </Trackpoint>
          <Trackpoint>
            <Time>2019-10-10T08:32:08.000Z</Time>
            <Position>
              <LatitudeDegrees>38.21493051946163177490234375</LatitudeDegrees>
              <LongitudeDegrees>-6.2903801165521144866943359375</LongitudeDegrees>
            </Position>
            <AltitudeMeters>493.600006103515625</AltitudeMeters>
            <DistanceMeters>NAN</DistanceMeters>
          </Trackpoint>
          <Trackpoint>
            <Time>2019-10-10T08:32:10.000Z</Time>
            <Position>
              <LatitudeDegrees>38.21483806706964969635009765625</LatitudeDegrees>
              <LongitudeDegrees>-6.29037751816213130950927734375</LongitudeDegrees>
            </Position>
            <AltitudeMeters>493.20001220703125</AltitudeMeters>
            <DistanceMeters>NAN</DistanceMeters>
          </Trackpoint>
          <Trackpoint>
            <Time>2019-10-10T08:32:20.000Z</Time>
            <Position>
              <LatitudeDegrees>38.21437203325331211090087890625</LatitudeDegrees>
              <LongitudeDegrees>-6.2903569824993610382080078125</LongitudeDegrees>
            </Position>
            <AltitudeMeters>493</AltitudeMeters>
            <DistanceMeters>NAN</DistanceMeters>
          </Trackpoint>
          <Trackpoint>
            <Time>2019-10-10T08:32:31.000Z</Time>
            <Position>
              <LatitudeDegrees>38.21385604329407215118408203125</LatitudeDegrees>
              <LongitudeDegrees>-6.2903355248272418975830078125</LongitudeDegrees>
            </Position>
            <AltitudeMeters>493</AltitudeMeters>
            <DistanceMeters>NAN</DistanceMeters>
          </Trackpoint>
          <Trackpoint>
            <Time>2019-10-10T08:32:43.000Z</Time>
            <Position>
              <LatitudeDegrees>38.21329437196254730224609375</LatitudeDegrees>
              <LongitudeDegrees>-6.29031884483993053436279296875</LongitudeDegrees>
            </Position>
            <AltitudeMeters>492.600006103515625</AltitudeMeters>
            <DistanceMeters>NAN</DistanceMeters>
          </Trackpoint>
          <Trackpoint>
            <Time>2019-10-10T08:32:51.000Z</Time>
            <Position>
              <LatitudeDegrees>38.21291056461632251739501953125</LatitudeDegrees>
              <LongitudeDegrees>-6.2902919389307498931884765625</LongitudeDegrees>
            </Position>
            <AltitudeMeters>493.20001220703125</AltitudeMeters>
            <DistanceMeters>NAN</DistanceMeters>
          </Trackpoint>
          <Trackpoint>
            <Time>2019-10-10T08:33:00.000Z</Time>
            <Position>
              <LatitudeDegrees>38.21248007006943225860595703125</LatitudeDegrees>
              <LongitudeDegrees>-6.29027165472507476806640625</LongitudeDegrees>
            </Position>
            <AltitudeMeters>493.20001220703125</AltitudeMeters>
            <DistanceMeters>NAN</DistanceMeters>
          </Trackpoint>
          <Trackpoint>
            <Time>2019-10-10T08:33:02.000Z</Time>
            <Position>
              <LatitudeDegrees>38.2123832590878009796142578125</LatitudeDegrees>
              <LongitudeDegrees>-6.29026721231639385223388671875</LongitudeDegrees>
            </Position>
            <AltitudeMeters>493.20001220703125</AltitudeMeters>
            <DistanceMeters>NAN</DistanceMeters>
          </Trackpoint>
          <Trackpoint>
            <Time>2019-10-10T08:33:10.000Z</Time>
            <Position>
              <LatitudeDegrees>38.21201252751052379608154296875</LatitudeDegrees>
              <LongitudeDegrees>-6.29025028087198734283447265625</LongitudeDegrees>
            </Position>
            <AltitudeMeters>493.600006103515625</AltitudeMeters>
            <DistanceMeters>NAN</DistanceMeters>
          </Trackpoint>
          <Trackpoint>
            <Time>2019-10-10T08:33:15.000Z</Time>
            <Position>
              <LatitudeDegrees>38.211787305772304534912109375</LatitudeDegrees>
              <LongitudeDegrees>-6.29024215042591094970703125</LongitudeDegrees>
            </Position>
            <AltitudeMeters>494.399993896484375</AltitudeMeters>
            <DistanceMeters>NAN</DistanceMeters>
          </Trackpoint>
          <Trackpoint>
            <Time>2019-10-10T08:33:20.000Z</Time>
            <Position>
              <LatitudeDegrees>38.2115609943866729736328125</LatitudeDegrees>
              <LongitudeDegrees>-6.29022815264761447906494140625</LongitudeDegrees>
            </Position>
            <AltitudeMeters>494.600006103515625</AltitudeMeters>
            <DistanceMeters>NAN</DistanceMeters>
          </Trackpoint>
          <Trackpoint>
            <Time>2019-10-10T08:33:26.000Z</Time>
            <Position>
              <LatitudeDegrees>38.21129235439002513885498046875</LatitudeDegrees>
              <LongitudeDegrees>-6.29021960310637950897216796875</LongitudeDegrees>
            </Position>
            <AltitudeMeters>495.399993896484375</AltitudeMeters>
            <DistanceMeters>NAN</DistanceMeters>
          </Trackpoint>
          <Trackpoint>
            <Time>2019-10-10T08:33:31.000Z</Time>
            <Position>
              <LatitudeDegrees>38.21107006631791591644287109375</LatitudeDegrees>
              <LongitudeDegrees>-6.2902084551751613616943359375</LongitudeDegrees>
            </Position>
            <AltitudeMeters>495.79998779296875</AltitudeMeters>
            <DistanceMeters>NAN</DistanceMeters>
          </Trackpoint>
          <Trackpoint>
            <Time>2019-10-10T08:33:36.000Z</Time>
            <Position>
              <LatitudeDegrees>38.21084476076066493988037109375</LatitudeDegrees>
              <LongitudeDegrees>-6.29019747488200664520263671875</LongitudeDegrees>
            </Position>
            <AltitudeMeters>495.79998779296875</AltitudeMeters>
            <DistanceMeters>NAN</DistanceMeters>
          </Trackpoint>
          <Trackpoint>
            <Time>2019-10-10T08:33:43.000Z</Time>
            <Position>
              <LatitudeDegrees>38.21053764782845973968505859375</LatitudeDegrees>
              <LongitudeDegrees>-6.29018389619886875152587890625</LongitudeDegrees>
            </Position>
            <AltitudeMeters>496</AltitudeMeters>
            <DistanceMeters>NAN</DistanceMeters>
          </Trackpoint>
          <Trackpoint>
            <Time>2019-10-10T08:33:46.000Z</Time>
            <Position>
              <LatitudeDegrees>38.2104058004915714263916015625</LatitudeDegrees>
              <LongitudeDegrees>-6.29017802886664867401123046875</LongitudeDegrees>
            </Position>
            <AltitudeMeters>496</AltitudeMeters>
            <DistanceMeters>NAN</DistanceMeters>
          </Trackpoint>
          <Trackpoint>
            <Time>2019-10-10T08:33:51.000Z</Time>
            <Position>
              <LatitudeDegrees>38.21018745191395282745361328125</LatitudeDegrees>
              <LongitudeDegrees>-6.2901685573160648345947265625</LongitudeDegrees>
            </Position>
            <AltitudeMeters>496.79998779296875</AltitudeMeters>
            <DistanceMeters>NAN</DistanceMeters>
          </Trackpoint>
          <Trackpoint>
            <Time>2019-10-10T08:33:58.000Z</Time>
            <Position>
              <LatitudeDegrees>38.2098837755620479583740234375</LatitudeDegrees>
              <LongitudeDegrees>-6.29015489481389522552490234375</LongitudeDegrees>
            </Position>
            <AltitudeMeters>497.399993896484375</AltitudeMeters>
            <DistanceMeters>NAN</DistanceMeters>
          </Trackpoint>
          <Trackpoint>
            <Time>2019-10-10T08:34:04.000Z</Time>
            <Position>
              <LatitudeDegrees>38.20962016470730304718017578125</LatitudeDegrees>
              <LongitudeDegrees>-6.29013955593109130859375</LongitudeDegrees>
            </Position>
            <AltitudeMeters>498</AltitudeMeters>
            <DistanceMeters>NAN</DistanceMeters>
          </Trackpoint>
          <Trackpoint>
            <Time>2019-10-10T08:34:09.000Z</Time>
            <Position>
              <LatitudeDegrees>38.20940357632935047149658203125</LatitudeDegrees>
              <LongitudeDegrees>-6.29013226367533206939697265625</LongitudeDegrees>
            </Position>
            <AltitudeMeters>498.20001220703125</AltitudeMeters>
            <DistanceMeters>NAN</DistanceMeters>
          </Trackpoint>
          <Trackpoint>
            <Time>2019-10-10T08:34:17.000Z</Time>
            <Position>
              <LatitudeDegrees>38.2090596668422222137451171875</LatitudeDegrees>
              <LongitudeDegrees>-6.29011499695479869842529296875</LongitudeDegrees>
            </Position>
            <AltitudeMeters>499.20001220703125</AltitudeMeters>
            <DistanceMeters>NAN</DistanceMeters>
          </Trackpoint>
          <Trackpoint>
            <Time>2019-10-10T08:34:19.000Z</Time>
            <Position>
              <LatitudeDegrees>38.2089726626873016357421875</LatitudeDegrees>
              <LongitudeDegrees>-6.29011072218418121337890625</LongitudeDegrees>
            </Position>
            <AltitudeMeters>499.20001220703125</AltitudeMeters>
            <DistanceMeters>NAN</DistanceMeters>
          </Trackpoint>
          <Trackpoint>
            <Time>2019-10-10T08:34:26.000Z</Time>
            <Position>
              <LatitudeDegrees>38.20867535658180713653564453125</LatitudeDegrees>
              <LongitudeDegrees>-6.29008901305496692657470703125</LongitudeDegrees>
            </Position>
            <AltitudeMeters>500.399993896484375</AltitudeMeters>
            <DistanceMeters>NAN</DistanceMeters>
          </Trackpoint>
          <Trackpoint>
            <Time>2019-10-10T08:34:28.000Z</Time>
            <Position>
              <LatitudeDegrees>38.20859673433005809783935546875</LatitudeDegrees>
              <LongitudeDegrees>-6.29008255898952484130859375</LongitudeDegrees>
            </Position>
            <AltitudeMeters>500.399993896484375</AltitudeMeters>
            <DistanceMeters>NAN</DistanceMeters>
          </Trackpoint>
          <Trackpoint>
            <Time>2019-10-10T08:34:36.000Z</Time>
            <Position>
              <LatitudeDegrees>38.20830303244292736053466796875</LatitudeDegrees>
              <LongitudeDegrees>-6.29007945768535137176513671875</LongitudeDegrees>
            </Position>
            <AltitudeMeters>501.600006103515625</AltitudeMeters>
            <DistanceMeters>NAN</DistanceMeters>
          </Trackpoint>
          <Trackpoint>
            <Time>2019-10-10T08:34:42.000Z</Time>
            <Position>
              <LatitudeDegrees>38.2080954127013683319091796875</LatitudeDegrees>
              <LongitudeDegrees>-6.29007023759186267852783203125</LongitudeDegrees>
            </Position>
            <AltitudeMeters>502.600006103515625</AltitudeMeters>
            <DistanceMeters>NAN</DistanceMeters>
          </Trackpoint>
          <Trackpoint>
            <Time>2019-10-10T08:34:49.000Z</Time>
            <Position>
              <LatitudeDegrees>38.2078503258526325225830078125</LatitudeDegrees>
              <LongitudeDegrees>-6.2900525517761707305908203125</LongitudeDegrees>
            </Position>
            <AltitudeMeters>503.600006103515625</AltitudeMeters>
            <DistanceMeters>NAN</DistanceMeters>
          </Trackpoint>
          <Trackpoint>
            <Time>2019-10-10T08:34:52.000Z</Time>
            <Position>
              <LatitudeDegrees>38.2077470608055591583251953125</LatitudeDegrees>
              <LongitudeDegrees>-6.29004769027233123779296875</LongitudeDegrees>
            </Position>
            <AltitudeMeters>504</AltitudeMeters>
            <DistanceMeters>NAN</DistanceMeters>
          </Trackpoint>
          <Trackpoint>
            <Time>2019-10-10T08:34:56.000Z</Time>
            <Position>
              <LatitudeDegrees>38.207609094679355621337890625</LatitudeDegrees>
              <LongitudeDegrees>-6.29003821872174739837646484375</LongitudeDegrees>
            </Position>
            <AltitudeMeters>504.600006103515625</AltitudeMeters>
            <DistanceMeters>NAN</DistanceMeters>
          </Trackpoint>
          <Trackpoint>
            <Time>2019-10-10T08:35:00.000Z</Time>
            <Position>
              <LatitudeDegrees>38.20747104473412036895751953125</LatitudeDegrees>
              <LongitudeDegrees>-6.29003436304628849029541015625</LongitudeDegrees>
            </Position>
            <AltitudeMeters>505.399993896484375</AltitudeMeters>
            <DistanceMeters>NAN</DistanceMeters>
          </Trackpoint>
          <Trackpoint>
            <Time>2019-10-10T08:35:06.000Z</Time>
            <Position>
              <LatitudeDegrees>38.20727155543863773345947265625</LatitudeDegrees>
              <LongitudeDegrees>-6.290027908980846405029296875</LongitudeDegrees>
            </Position>
            <AltitudeMeters>505.79998779296875</AltitudeMeters>
            <DistanceMeters>NAN</DistanceMeters>
          </Trackpoint>
          <Trackpoint>
            <Time>2019-10-10T08:35:09.000Z</Time>
            <Position>
              <LatitudeDegrees>38.20717197842895984649658203125</LatitudeDegrees>
              <LongitudeDegrees>-6.29001617431640625</LongitudeDegrees>
            </Position>
            <AltitudeMeters>506.600006103515625</AltitudeMeters>
            <DistanceMeters>NAN</DistanceMeters>
          </Trackpoint>
          <Trackpoint>
            <Time>2019-10-10T08:35:13.000Z</Time>
            <Position>
              <LatitudeDegrees>38.2070359401404857635498046875</LatitudeDegrees>
              <LongitudeDegrees>-6.29001793451607227325439453125</LongitudeDegrees>
            </Position>
            <AltitudeMeters>507</AltitudeMeters>
            <DistanceMeters>NAN</DistanceMeters>
          </Trackpoint>
          <Trackpoint>
            <Time>2019-10-10T08:35:17.000Z</Time>
            <Position>
              <LatitudeDegrees>38.20690224878489971160888671875</LatitudeDegrees>
              <LongitudeDegrees>-6.29000955261290073394775390625</LongitudeDegrees>
            </Position>
            <AltitudeMeters>507.399993896484375</AltitudeMeters>
            <DistanceMeters>NAN</DistanceMeters>
          </Trackpoint>
          <Trackpoint>
            <Time>2019-10-10T08:35:23.000Z</Time>
            <Position>
              <LatitudeDegrees>38.20669605396687984466552734375</LatitudeDegrees>
              <LongitudeDegrees>-6.2900029309093952178955078125</LongitudeDegrees>
            </Position>
            <AltitudeMeters>508.20001220703125</AltitudeMeters>
            <DistanceMeters>NAN</DistanceMeters>
          </Trackpoint>
          <Trackpoint>
            <Time>2019-10-10T08:35:26.000Z</Time>
            <Position>
              <LatitudeDegrees>38.206588514149188995361328125</LatitudeDegrees>
              <LongitudeDegrees>-6.2899979017674922943115234375</LongitudeDegrees>
            </Position>
            <AltitudeMeters>508.600006103515625</AltitudeMeters>
            <DistanceMeters>NAN</DistanceMeters>
          </Trackpoint>
          <Trackpoint>
            <Time>2019-10-10T08:35:31.000Z</Time>
            <Position>
              <LatitudeDegrees>38.2064089737832546234130859375</LatitudeDegrees>
              <LongitudeDegrees>-6.28999094478785991668701171875</LongitudeDegrees>
            </Position>
            <AltitudeMeters>509.399993896484375</AltitudeMeters>
            <DistanceMeters>NAN</DistanceMeters>
          </Trackpoint>
          <Trackpoint>
            <Time>2019-10-10T08:35:34.000Z</Time>
            <Position>
              <LatitudeDegrees>38.20629573427140712738037109375</LatitudeDegrees>
              <LongitudeDegrees>-6.2899839878082275390625</LongitudeDegrees>
            </Position>
            <AltitudeMeters>509.399993896484375</AltitudeMeters>
            <DistanceMeters>NAN</DistanceMeters>
          </Trackpoint>
          <Trackpoint>
            <Time>2019-10-10T08:35:44.000Z</Time>
            <Position>
              <LatitudeDegrees>38.20589541457593441009521484375</LatitudeDegrees>
              <LongitudeDegrees>-6.28996060229837894439697265625</LongitudeDegrees>
            </Position>
            <AltitudeMeters>509.20001220703125</AltitudeMeters>
            <DistanceMeters>NAN</DistanceMeters>
          </Trackpoint>
          <Trackpoint>
            <Time>2019-10-10T08:35:53.000Z</Time>
            <Position>
              <LatitudeDegrees>38.20550230331718921661376953125</LatitudeDegrees>
              <LongitudeDegrees>-6.28994618542492389678955078125</LongitudeDegrees>
            </Position>
            <AltitudeMeters>509</AltitudeMeters>
            <DistanceMeters>NAN</DistanceMeters>
          </Trackpoint>
          <Trackpoint>
            <Time>2019-10-10T08:36:01.000Z</Time>
            <Position>
              <LatitudeDegrees>38.20514221675693988800048828125</LatitudeDegrees>
              <LongitudeDegrees>-6.28989857621490955352783203125</LongitudeDegrees>
            </Position>
            <AltitudeMeters>509.20001220703125</AltitudeMeters>
            <DistanceMeters>NAN</DistanceMeters>
          </Trackpoint>
          <Trackpoint>
            <Time>2019-10-10T08:36:03.000Z</Time>
            <Position>
              <LatitudeDegrees>38.20505370385944843292236328125</LatitudeDegrees>
              <LongitudeDegrees>-6.28987829200923442840576171875</LongitudeDegrees>
            </Position>
            <AltitudeMeters>509.20001220703125</AltitudeMeters>
            <DistanceMeters>NAN</DistanceMeters>
          </Trackpoint>
          <Trackpoint>
            <Time>2019-10-10T08:36:09.000Z</Time>
            <Position>
              <LatitudeDegrees>38.20477659814059734344482421875</LatitudeDegrees>
              <LongitudeDegrees>-6.28980738110840320587158203125</LongitudeDegrees>
            </Position>
            <AltitudeMeters>509</AltitudeMeters>
            <DistanceMeters>NAN</DistanceMeters>
          </Trackpoint>
          <Trackpoint>
            <Time>2019-10-10T08:36:10.000Z</Time>
            <Position>
              <LatitudeDegrees>38.20473116822540760040283203125</LatitudeDegrees>
              <LongitudeDegrees>-6.28979246132075786590576171875</LongitudeDegrees>
            </Position>
            <AltitudeMeters>509.20001220703125</AltitudeMeters>
            <DistanceMeters>NAN</DistanceMeters>
          </Trackpoint>
          <Trackpoint>
            <Time>2019-10-10T08:36:18.000Z</Time>
            <Position>
              <LatitudeDegrees>38.204368650913238525390625</LatitudeDegrees>
              <LongitudeDegrees>-6.2896344624459743499755859375</LongitudeDegrees>
            </Position>
            <AltitudeMeters>508.600006103515625</AltitudeMeters>
            <DistanceMeters>NAN</DistanceMeters>
          </Trackpoint>
          <Trackpoint>
            <Time>2019-10-10T08:36:20.000Z</Time>
            <Position>
              <LatitudeDegrees>38.20427812635898590087890625</LatitudeDegrees>
              <LongitudeDegrees>-6.28959129564464092254638671875</LongitudeDegrees>
            </Position>
            <AltitudeMeters>508.79998779296875</AltitudeMeters>
            <DistanceMeters>NAN</DistanceMeters>
          </Trackpoint>
          <Trackpoint>
            <Time>2019-10-10T08:36:24.000Z</Time>
            <Position>
              <LatitudeDegrees>38.20409900508821010589599609375</LatitudeDegrees>
              <LongitudeDegrees>-6.2895057164132595062255859375</LongitudeDegrees>
            </Position>
            <AltitudeMeters>508.600006103515625</AltitudeMeters>
            <DistanceMeters>NAN</DistanceMeters>
          </Trackpoint>
          <Trackpoint>
            <Time>2019-10-10T08:36:30.000Z</Time>
            <Position>
              <LatitudeDegrees>38.20383380167186260223388671875</LatitudeDegrees>
              <LongitudeDegrees>-6.28937722183763980865478515625</LongitudeDegrees>
            </Position>
            <AltitudeMeters>509</AltitudeMeters>
            <DistanceMeters>NAN</DistanceMeters>
          </Trackpoint>
          <Trackpoint>
            <Time>2019-10-10T08:36:42.000Z</Time>
            <Position>
              <LatitudeDegrees>38.20332954637706279754638671875</LatitudeDegrees>
              <LongitudeDegrees>-6.28913079388439655303955078125</LongitudeDegrees>
            </Position>
            <AltitudeMeters>509.79998779296875</AltitudeMeters>
            <DistanceMeters>NAN</DistanceMeters>
          </Trackpoint>
          <Trackpoint>
            <Time>2019-10-10T08:36:44.000Z</Time>
            <Position>
              <LatitudeDegrees>38.20325511507689952850341796875</LatitudeDegrees>
              <LongitudeDegrees>-6.289095841348171234130859375</LongitudeDegrees>
            </Position>
            <AltitudeMeters>510.399993896484375</AltitudeMeters>
            <DistanceMeters>NAN</DistanceMeters>
          </Trackpoint>
          <Trackpoint>
            <Time>2019-10-10T08:36:51.000Z</Time>
            <Position>
              <LatitudeDegrees>38.20301069878041744232177734375</LatitudeDegrees>
              <LongitudeDegrees>-6.28897237591445446014404296875</LongitudeDegrees>
            </Position>
            <AltitudeMeters>511.399993896484375</AltitudeMeters>
            <DistanceMeters>NAN</DistanceMeters>
          </Trackpoint>
          <Trackpoint>
            <Time>2019-10-10T08:36:52.000Z</Time>
            <Position>
              <LatitudeDegrees>38.20297650061547756195068359375</LatitudeDegrees>
              <LongitudeDegrees>-6.2889575399458408355712890625</LongitudeDegrees>
            </Position>
            <AltitudeMeters>511.600006103515625</AltitudeMeters>
            <DistanceMeters>NAN</DistanceMeters>
          </Trackpoint>
          <Trackpoint>
            <Time>2019-10-10T08:36:59.000Z</Time>
            <Position>
              <LatitudeDegrees>38.20274985395371913909912109375</LatitudeDegrees>
              <LongitudeDegrees>-6.28884698264300823211669921875</LongitudeDegrees>
            </Position>
            <AltitudeMeters>513</AltitudeMeters>
            <DistanceMeters>NAN</DistanceMeters>
          </Trackpoint>
          <Trackpoint>
            <Time>2019-10-10T08:37:00.000Z</Time>
            <Position>
              <LatitudeDegrees>38.20271817035973072052001953125</LatitudeDegrees>
              <LongitudeDegrees>-6.28882736898958683013916015625</LongitudeDegrees>
            </Position>
            <AltitudeMeters>512.79998779296875</AltitudeMeters>
            <DistanceMeters>NAN</DistanceMeters>
          </Trackpoint>
          <Trackpoint>
            <Time>2019-10-10T08:37:07.000Z</Time>
            <Position>
              <LatitudeDegrees>38.20249755866825580596923828125</LatitudeDegrees>
              <LongitudeDegrees>-6.2887178175151348114013671875</LongitudeDegrees>
            </Position>
            <AltitudeMeters>514</AltitudeMeters>
            <DistanceMeters>NAN</DistanceMeters>
          </Trackpoint>
          <Trackpoint>
            <Time>2019-10-10T08:37:09.000Z</Time>
            <Position>
              <LatitudeDegrees>38.202435113489627838134765625</LatitudeDegrees>
              <LongitudeDegrees>-6.28869057632982730865478515625</LongitudeDegrees>
            </Position>
            <AltitudeMeters>514.5999755859375</AltitudeMeters>
            <DistanceMeters>NAN</DistanceMeters>
          </Trackpoint>
          <Trackpoint>
            <Time>2019-10-10T08:37:13.000Z</Time>
            <Position>
              <LatitudeDegrees>38.2023102231323719024658203125</LatitudeDegrees>
              <LongitudeDegrees>-6.2886360101401805877685546875</LongitudeDegrees>
            </Position>
            <AltitudeMeters>515</AltitudeMeters>
            <DistanceMeters>NAN</DistanceMeters>
          </Trackpoint>
          <Trackpoint>
            <Time>2019-10-10T08:37:19.000Z</Time>
            <Position>
              <LatitudeDegrees>38.20212573744356632232666015625</LatitudeDegrees>
              <LongitudeDegrees>-6.288553364574909210205078125</LongitudeDegrees>
            </Position>
            <AltitudeMeters>515.79998779296875</AltitudeMeters>
            <DistanceMeters>NAN</DistanceMeters>
          </Trackpoint>
          <Trackpoint>
            <Time>2019-10-10T08:37:20.000Z</Time>
            <Position>
              <LatitudeDegrees>38.2020969875156879425048828125</LatitudeDegrees>
              <LongitudeDegrees>-6.2885377742350101470947265625</LongitudeDegrees>
            </Position>
            <AltitudeMeters>516</AltitudeMeters>
            <DistanceMeters>NAN</DistanceMeters>
          </Trackpoint>
          <Trackpoint>
            <Time>2019-10-10T08:37:27.000Z</Time>
            <Position>
              <LatitudeDegrees>38.20188903249800205230712890625</LatitudeDegrees>
              <LongitudeDegrees>-6.2884385325014591217041015625</LongitudeDegrees>
            </Position>
            <AltitudeMeters>517.20001220703125</AltitudeMeters>
            <DistanceMeters>NAN</DistanceMeters>
          </Trackpoint>
          <Trackpoint>
            <Time>2019-10-10T08:37:28.000Z</Time>
            <Position>
              <LatitudeDegrees>38.201858103275299072265625</LatitudeDegrees>
              <LongitudeDegrees>-6.2884251214563846588134765625</LongitudeDegrees>
            </Position>
            <AltitudeMeters>517.5999755859375</AltitudeMeters>
            <DistanceMeters>NAN</DistanceMeters>
          </Trackpoint>
          <Trackpoint>
            <Time>2019-10-10T08:37:33.000Z</Time>
            <Position>
              <LatitudeDegrees>38.20171125233173370361328125</LatitudeDegrees>
              <LongitudeDegrees>-6.2883516959846019744873046875</LongitudeDegrees>
            </Position>
            <AltitudeMeters>518.20001220703125</AltitudeMeters>
            <DistanceMeters>NAN</DistanceMeters>
          </Trackpoint>
          <Trackpoint>
            <Time>2019-10-10T08:37:38.000Z</Time>
            <Position>
              <LatitudeDegrees>38.20156130008399486541748046875</LatitudeDegrees>
              <LongitudeDegrees>-6.2882829643785953521728515625</LongitudeDegrees>
            </Position>
            <AltitudeMeters>519</AltitudeMeters>
            <DistanceMeters>NAN</DistanceMeters>
          </Trackpoint>
          <Trackpoint>
            <Time>2019-10-10T08:37:42.000Z</Time>
            <Position>
              <LatitudeDegrees>38.20143506862223148345947265625</LatitudeDegrees>
              <LongitudeDegrees>-6.28822512924671173095703125</LongitudeDegrees>
            </Position>
            <AltitudeMeters>519.4000244140625</AltitudeMeters>
            <DistanceMeters>NAN</DistanceMeters>
          </Trackpoint>
          <Trackpoint>
            <Time>2019-10-10T08:37:45.000Z</Time>
            <Position>
              <LatitudeDegrees>38.20134638808667659759521484375</LatitudeDegrees>
              <LongitudeDegrees>-6.2881766818463802337646484375</LongitudeDegrees>
            </Position>
            <AltitudeMeters>519.79998779296875</AltitudeMeters>
            <DistanceMeters>NAN</DistanceMeters>
          </Trackpoint>
          <Trackpoint>
            <Time>2019-10-10T08:37:50.000Z</Time>
            <Position>
              <LatitudeDegrees>38.20119249634444713592529296875</LatitudeDegrees>
              <LongitudeDegrees>-6.28810116089880466461181640625</LongitudeDegrees>
            </Position>
            <AltitudeMeters>520.4000244140625</AltitudeMeters>
            <DistanceMeters>NAN</DistanceMeters>
          </Trackpoint>
          <Trackpoint>
            <Time>2019-10-10T08:37:55.000Z</Time>
            <Position>
              <LatitudeDegrees>38.2010386884212493896484375</LatitudeDegrees>
              <LongitudeDegrees>-6.2880231253802776336669921875</LongitudeDegrees>
            </Position>
            <AltitudeMeters>520.79998779296875</AltitudeMeters>
            <DistanceMeters>NAN</DistanceMeters>
          </Trackpoint>
          <Trackpoint>
            <Time>2019-10-10T08:38:02.000Z</Time>
            <Position>
              <LatitudeDegrees>38.20081807672977447509765625</LatitudeDegrees>
              <LongitudeDegrees>-6.28791608847677707672119140625</LongitudeDegrees>
            </Position>
            <AltitudeMeters>521.79998779296875</AltitudeMeters>
            <DistanceMeters>NAN</DistanceMeters>
          </Trackpoint>
          <Trackpoint>
            <Time>2019-10-10T08:38:04.000Z</Time>
            <Position>
              <LatitudeDegrees>38.20075244642794132232666015625</LatitudeDegrees>
              <LongitudeDegrees>-6.2878849916160106658935546875</LongitudeDegrees>
            </Position>
            <AltitudeMeters>522</AltitudeMeters>
            <DistanceMeters>NAN</DistanceMeters>
          </Trackpoint>
          <Trackpoint>
            <Time>2019-10-10T08:38:14.000Z</Time>
            <Position>
              <LatitudeDegrees>38.20042856968939304351806640625</LatitudeDegrees>
              <LongitudeDegrees>-6.28772632218897342681884765625</LongitudeDegrees>
            </Position>
            <AltitudeMeters>523</AltitudeMeters>
            <DistanceMeters>NAN</DistanceMeters>
          </Trackpoint>
          <Trackpoint>
            <Time>2019-10-10T08:38:16.000Z</Time>
            <Position>
              <LatitudeDegrees>38.20036386139690876007080078125</LatitudeDegrees>
              <LongitudeDegrees>-6.287692375481128692626953125</LongitudeDegrees>
            </Position>
            <AltitudeMeters>523</AltitudeMeters>
            <DistanceMeters>NAN</DistanceMeters>
          </Trackpoint>
          <Trackpoint>
            <Time>2019-10-10T08:38:25.000Z</Time>
            <Position>
              <LatitudeDegrees>38.20005758665502071380615234375</LatitudeDegrees>
              <LongitudeDegrees>-6.28754317760467529296875</LongitudeDegrees>
            </Position>
            <AltitudeMeters>523.79998779296875</AltitudeMeters>
            <DistanceMeters>NAN</DistanceMeters>
          </Trackpoint>
          <Trackpoint>
            <Time>2019-10-10T08:38:26.000Z</Time>
            <Position>
              <LatitudeDegrees>38.200023137032985687255859375</LatitudeDegrees>
              <LongitudeDegrees>-6.28752683289349079132080078125</LongitudeDegrees>
            </Position>
            <AltitudeMeters>524</AltitudeMeters>
            <DistanceMeters>NAN</DistanceMeters>
          </Trackpoint>
          <Trackpoint>
            <Time>2019-10-10T08:38:35.000Z</Time>
            <Position>
              <LatitudeDegrees>38.199710659682750701904296875</LatitudeDegrees>
              <LongitudeDegrees>-6.28737780265510082244873046875</LongitudeDegrees>
            </Position>
            <AltitudeMeters>524.20001220703125</AltitudeMeters>
            <DistanceMeters>NAN</DistanceMeters>
          </Trackpoint>
          <Trackpoint>
            <Time>2019-10-10T08:38:42.000Z</Time>
            <Position>
              <LatitudeDegrees>38.19946029223501682281494140625</LatitudeDegrees>
              <LongitudeDegrees>-6.287256516516208648681640625</LongitudeDegrees>
            </Position>
            <AltitudeMeters>524.79998779296875</AltitudeMeters>
            <DistanceMeters>NAN</DistanceMeters>
          </Trackpoint>
          <Trackpoint>
            <Time>2019-10-10T08:38:47.000Z</Time>
            <Position>
              <LatitudeDegrees>38.1992746330797672271728515625</LatitudeDegrees>
              <LongitudeDegrees>-6.287168674170970916748046875</LongitudeDegrees>
            </Position>
            <AltitudeMeters>524.5999755859375</AltitudeMeters>
            <DistanceMeters>NAN</DistanceMeters>
          </Trackpoint>
          <Trackpoint>
            <Time>2019-10-10T08:38:55.000Z</Time>
            <Position>
              <LatitudeDegrees>38.1989514268934726715087890625</LatitudeDegrees>
              <LongitudeDegrees>-6.28700933419167995452880859375</LongitudeDegrees>
            </Position>
            <AltitudeMeters>523.79998779296875</AltitudeMeters>
            <DistanceMeters>NAN</DistanceMeters>
          </Trackpoint>
          <Trackpoint>
            <Time>2019-10-10T08:38:56.000Z</Time>
            <Position>
              <LatitudeDegrees>38.19890876300632953643798828125</LatitudeDegrees>
              <LongitudeDegrees>-6.286989636719226837158203125</LongitudeDegrees>
            </Position>
            <AltitudeMeters>523.79998779296875</AltitudeMeters>
            <DistanceMeters>NAN</DistanceMeters>
          </Trackpoint>
          <Trackpoint>
            <Time>2019-10-10T08:39:05.000Z</Time>
            <Position>
              <LatitudeDegrees>38.1985313259065151214599609375</LatitudeDegrees>
              <LongitudeDegrees>-6.28681168891489505767822265625</LongitudeDegrees>
            </Position>
            <AltitudeMeters>524.20001220703125</AltitudeMeters>
            <DistanceMeters>NAN</DistanceMeters>
          </Trackpoint>
          <Trackpoint>
            <Time>2019-10-10T08:39:08.000Z</Time>
            <Position>
              <LatitudeDegrees>38.1984039209783077239990234375</LatitudeDegrees>
              <LongitudeDegrees>-6.2867484055459499359130859375</LongitudeDegrees>
            </Position>
            <AltitudeMeters>524.4000244140625</AltitudeMeters>
            <DistanceMeters>NAN</DistanceMeters>
          </Trackpoint>
          <Trackpoint>
            <Time>2019-10-10T08:39:18.000Z</Time>
            <Position>
              <LatitudeDegrees>38.1979717500507831573486328125</LatitudeDegrees>
              <LongitudeDegrees>-6.286531984806060791015625</LongitudeDegrees>
            </Position>
            <AltitudeMeters>524.4000244140625</AltitudeMeters>
            <DistanceMeters>NAN</DistanceMeters>
          </Trackpoint>
          <Trackpoint>
            <Time>2019-10-10T08:39:19.000Z</Time>
            <Position>
              <LatitudeDegrees>38.19792808033525943756103515625</LatitudeDegrees>
              <LongitudeDegrees>-6.28651228733360767364501953125</LongitudeDegrees>
            </Position>
            <AltitudeMeters>524.20001220703125</AltitudeMeters>
            <DistanceMeters>NAN</DistanceMeters>
          </Trackpoint>
          <Trackpoint>
            <Time>2019-10-10T08:39:28.000Z</Time>
            <Position>
              <LatitudeDegrees>38.1975295208394527435302734375</LatitudeDegrees>
              <LongitudeDegrees>-6.2863252870738506317138671875</LongitudeDegrees>
            </Position>
            <AltitudeMeters>524</AltitudeMeters>
            <DistanceMeters>NAN</DistanceMeters>
          </Trackpoint>
          <Trackpoint>
            <Time>2019-10-10T08:39:34.000Z</Time>
            <Position>
              <LatitudeDegrees>38.19726641289889812469482421875</LatitudeDegrees>
              <LongitudeDegrees>-6.28619712777435779571533203125</LongitudeDegrees>
            </Position>
            <AltitudeMeters>525.20001220703125</AltitudeMeters>
            <DistanceMeters>NAN</DistanceMeters>
          </Trackpoint>
          <Trackpoint>
            <Time>2019-10-10T08:39:37.000Z</Time>
            <Position>
              <LatitudeDegrees>38.1971335597336292266845703125</LatitudeDegrees>
              <LongitudeDegrees>-6.28613476641476154327392578125</LongitudeDegrees>
            </Position>
            <AltitudeMeters>525</AltitudeMeters>
            <DistanceMeters>NAN</DistanceMeters>
          </Trackpoint>
          <Trackpoint>
            <Time>2019-10-10T08:39:43.000Z</Time>
            <Position>
              <LatitudeDegrees>38.1968710385262966156005859375</LatitudeDegrees>
              <LongitudeDegrees>-6.28601306118071079254150390625</LongitudeDegrees>
            </Position>
            <AltitudeMeters>524.79998779296875</AltitudeMeters>
            <DistanceMeters>NAN</DistanceMeters>
          </Trackpoint>
          <Trackpoint>
            <Time>2019-10-10T08:39:47.000Z</Time>
            <Position>
              <LatitudeDegrees>38.19670046679675579071044921875</LatitudeDegrees>
              <LongitudeDegrees>-6.2859284877777099609375</LongitudeDegrees>
            </Position>
            <AltitudeMeters>525.20001220703125</AltitudeMeters>
            <DistanceMeters>NAN</DistanceMeters>
          </Trackpoint>
          <Trackpoint>
            <Time>2019-10-10T08:39:54.000Z</Time>
            <Position>
              <LatitudeDegrees>38.19640106521546840667724609375</LatitudeDegrees>
              <LongitudeDegrees>-6.28577501513063907623291015625</LongitudeDegrees>
            </Position>
            <AltitudeMeters>525.5999755859375</AltitudeMeters>
            <DistanceMeters>NAN</DistanceMeters>
          </Trackpoint>
          <Trackpoint>
            <Time>2019-10-10T08:40:00.000Z</Time>
            <Position>
              <LatitudeDegrees>38.19614843465387821197509765625</LatitudeDegrees>
              <LongitudeDegrees>-6.2856557406485080718994140625</LongitudeDegrees>
            </Position>
            <AltitudeMeters>526.20001220703125</AltitudeMeters>
            <DistanceMeters>NAN</DistanceMeters>
          </Trackpoint>
          <Trackpoint>
            <Time>2019-10-10T08:40:03.000Z</Time>
            <Position>
              <LatitudeDegrees>38.19602421484887599945068359375</LatitudeDegrees>
              <LongitudeDegrees>-6.28559715114533901214599609375</LongitudeDegrees>
            </Position>
            <AltitudeMeters>526.20001220703125</AltitudeMeters>
            <DistanceMeters>NAN</DistanceMeters>
          </Trackpoint>
          <Trackpoint>
            <Time>2019-10-10T08:40:09.000Z</Time>
            <Position>
              <LatitudeDegrees>38.19577694870531558990478515625</LatitudeDegrees>
              <LongitudeDegrees>-6.28547745756804943084716796875</LongitudeDegrees>
            </Position>
            <AltitudeMeters>526.79998779296875</AltitudeMeters>
            <DistanceMeters>NAN</DistanceMeters>
          </Trackpoint>
          <Trackpoint>
            <Time>2019-10-10T08:40:12.000Z</Time>
            <Position>
              <LatitudeDegrees>38.19565272890031337738037109375</LatitudeDegrees>
              <LongitudeDegrees>-6.285416521131992340087890625</LongitudeDegrees>
            </Position>
            <AltitudeMeters>527</AltitudeMeters>
            <DistanceMeters>NAN</DistanceMeters>
          </Trackpoint>
          <Trackpoint>
            <Time>2019-10-10T08:40:18.000Z</Time>
            <Position>
              <LatitudeDegrees>38.1954021938145160675048828125</LatitudeDegrees>
              <LongitudeDegrees>-6.28529238514602184295654296875</LongitudeDegrees>
            </Position>
            <AltitudeMeters>527.20001220703125</AltitudeMeters>
            <DistanceMeters>NAN</DistanceMeters>
          </Trackpoint>
          <Trackpoint>
            <Time>2019-10-10T08:40:21.000Z</Time>
            <Position>
              <LatitudeDegrees>38.195277638733386993408203125</LatitudeDegrees>
              <LongitudeDegrees>-6.28523572348058223724365234375</LongitudeDegrees>
            </Position>
            <AltitudeMeters>527.4000244140625</AltitudeMeters>
            <DistanceMeters>NAN</DistanceMeters>
          </Trackpoint>
          <Trackpoint>
            <Time>2019-10-10T08:40:32.000Z</Time>
            <Position>
              <LatitudeDegrees>38.19483247585594654083251953125</LatitudeDegrees>
              <LongitudeDegrees>-6.2850187160074710845947265625</LongitudeDegrees>
            </Position>
            <AltitudeMeters>528.20001220703125</AltitudeMeters>
            <DistanceMeters>NAN</DistanceMeters>
          </Trackpoint>
          <Trackpoint>
            <Time>2019-10-10T08:40:35.000Z</Time>
            <Position>
              <LatitudeDegrees>38.19470657967031002044677734375</LatitudeDegrees>
              <LongitudeDegrees>-6.284960545599460601806640625</LongitudeDegrees>
            </Position>
            <AltitudeMeters>528.4000244140625</AltitudeMeters>
            <DistanceMeters>NAN</DistanceMeters>
          </Trackpoint>
          <Trackpoint>
            <Time>2019-10-10T08:40:41.000Z</Time>
            <Position>
              <LatitudeDegrees>38.19446115754544734954833984375</LatitudeDegrees>
              <LongitudeDegrees>-6.28483691252768039703369140625</LongitudeDegrees>
            </Position>
            <AltitudeMeters>528.79998779296875</AltitudeMeters>
            <DistanceMeters>NAN</DistanceMeters>
          </Trackpoint>
          <Trackpoint>
            <Time>2019-10-10T08:40:48.000Z</Time>
            <Position>
              <LatitudeDegrees>38.19417198188602924346923828125</LatitudeDegrees>
              <LongitudeDegrees>-6.2846988625824451446533203125</LongitudeDegrees>
            </Position>
            <AltitudeMeters>529.4000244140625</AltitudeMeters>
            <DistanceMeters>NAN</DistanceMeters>
          </Trackpoint>
          <Trackpoint>
            <Time>2019-10-10T08:40:49.000Z</Time>
            <Position>
              <LatitudeDegrees>38.1941301561892032623291015625</LatitudeDegrees>
              <LongitudeDegrees>-6.28467849455773830413818359375</LongitudeDegrees>
            </Position>
            <AltitudeMeters>529.4000244140625</AltitudeMeters>
            <DistanceMeters>NAN</DistanceMeters>
          </Trackpoint>
          <Trackpoint>
            <Time>2019-10-10T08:41:01.000Z</Time>
            <Position>
              <LatitudeDegrees>38.1936342827975749969482421875</LatitudeDegrees>
              <LongitudeDegrees>-6.28443843685090541839599609375</LongitudeDegrees>
            </Position>
            <AltitudeMeters>530.4000244140625</AltitudeMeters>
            <DistanceMeters>NAN</DistanceMeters>
          </Trackpoint>
          <Trackpoint>
            <Time>2019-10-10T08:41:03.000Z</Time>
            <Position>
              <LatitudeDegrees>38.19355155341327190399169921875</LatitudeDegrees>
              <LongitudeDegrees>-6.28439887426793575286865234375</LongitudeDegrees>
            </Position>
            <AltitudeMeters>530.5999755859375</AltitudeMeters>
            <DistanceMeters>NAN</DistanceMeters>
          </Trackpoint>
          <Trackpoint>
            <Time>2019-10-10T08:41:11.000Z</Time>
            <Position>
              <LatitudeDegrees>38.1932232342660427093505859375</LatitudeDegrees>
              <LongitudeDegrees>-6.28423810936510562896728515625</LongitudeDegrees>
            </Position>
            <AltitudeMeters>531</AltitudeMeters>
            <DistanceMeters>NAN</DistanceMeters>
          </Trackpoint>
          <Trackpoint>
            <Time>2019-10-10T08:41:21.000Z</Time>
            <Position>
              <LatitudeDegrees>38.19280874915421009063720703125</LatitudeDegrees>
              <LongitudeDegrees>-6.284039877355098724365234375</LongitudeDegrees>
            </Position>
            <AltitudeMeters>531.79998779296875</AltitudeMeters>
            <DistanceMeters>NAN</DistanceMeters>
          </Trackpoint>
          <Trackpoint>
            <Time>2019-10-10T08:41:23.000Z</Time>
            <Position>
              <LatitudeDegrees>38.192725516855716705322265625</LatitudeDegrees>
              <LongitudeDegrees>-6.2839986383914947509765625</LongitudeDegrees>
            </Position>
            <AltitudeMeters>532</AltitudeMeters>
            <DistanceMeters>NAN</DistanceMeters>
          </Trackpoint>
          <Trackpoint>
            <Time>2019-10-10T08:41:33.000Z</Time>
            <Position>
              <LatitudeDegrees>38.1923156417906284332275390625</LatitudeDegrees>
              <LongitudeDegrees>-6.28380350768566131591796875</LongitudeDegrees>
            </Position>
            <AltitudeMeters>532.20001220703125</AltitudeMeters>
            <DistanceMeters>NAN</DistanceMeters>
          </Trackpoint>
          <Trackpoint>
            <Time>2019-10-10T08:41:36.000Z</Time>
            <Position>
              <LatitudeDegrees>38.19219485856592655181884765625</LatitudeDegrees>
              <LongitudeDegrees>-6.28374156542122364044189453125</LongitudeDegrees>
            </Position>
            <AltitudeMeters>532.5999755859375</AltitudeMeters>
            <DistanceMeters>NAN</DistanceMeters>
          </Trackpoint>
          <Trackpoint>
            <Time>2019-10-10T08:41:37.000Z</Time>
            <Position>
              <LatitudeDegrees>38.19215328432619571685791015625</LatitudeDegrees>
              <LongitudeDegrees>-6.28372195176780223846435546875</LongitudeDegrees>
            </Position>
            <AltitudeMeters>532.79998779296875</AltitudeMeters>
            <DistanceMeters>NAN</DistanceMeters>
          </Trackpoint>
          <Trackpoint>
            <Time>2019-10-10T08:41:40.000Z</Time>
            <Position>
              <LatitudeDegrees>38.19203124381601810455322265625</LatitudeDegrees>
              <LongitudeDegrees>-6.28366126678884029388427734375</LongitudeDegrees>
            </Position>
            <AltitudeMeters>532.79998779296875</AltitudeMeters>
            <DistanceMeters>NAN</DistanceMeters>
          </Trackpoint>
          <Trackpoint>
            <Time>2019-10-10T08:41:52.000Z</Time>
            <Position>
              <LatitudeDegrees>38.19154676981270313262939453125</LatitudeDegrees>
              <LongitudeDegrees>-6.2834268249571323394775390625</LongitudeDegrees>
            </Position>
            <AltitudeMeters>533.5999755859375</AltitudeMeters>
            <DistanceMeters>NAN</DistanceMeters>
          </Trackpoint>
          <Trackpoint>
            <Time>2019-10-10T08:41:59.000Z</Time>
            <Position>
              <LatitudeDegrees>38.191261030733585357666015625</LatitudeDegrees>
              <LongitudeDegrees>-6.28328776918351650238037109375</LongitudeDegrees>
            </Position>
            <AltitudeMeters>534</AltitudeMeters>
            <DistanceMeters>NAN</DistanceMeters>
          </Trackpoint>
          <Trackpoint>
            <Time>2019-10-10T08:42:00.000Z</Time>
            <Position>
              <LatitudeDegrees>38.19121987558901309967041015625</LatitudeDegrees>
              <LongitudeDegrees>-6.2832689099013805389404296875</LongitudeDegrees>
            </Position>
            <AltitudeMeters>533.79998779296875</AltitudeMeters>
            <DistanceMeters>NAN</DistanceMeters>
          </Trackpoint>
          <Trackpoint>
            <Time>2019-10-10T08:42:06.000Z</Time>
            <Position>
              <LatitudeDegrees>38.190973699092864990234375</LatitudeDegrees>
              <LongitudeDegrees>-6.28314862959086894989013671875</LongitudeDegrees>
            </Position>
            <AltitudeMeters>533.79998779296875</AltitudeMeters>
            <DistanceMeters>NAN</DistanceMeters>
          </Trackpoint>
          <Trackpoint>
            <Time>2019-10-10T08:42:10.000Z</Time>
            <Position>
              <LatitudeDegrees>38.19080731831490993499755859375</LatitudeDegrees>
              <LongitudeDegrees>-6.2830664031207561492919921875</LongitudeDegrees>
            </Position>
            <AltitudeMeters>533.5999755859375</AltitudeMeters>
            <DistanceMeters>NAN</DistanceMeters>
          </Trackpoint>
          <Trackpoint>
            <Time>2019-10-10T08:42:18.000Z</Time>
            <Position>
              <LatitudeDegrees>38.1904823519289493560791015625</LatitudeDegrees>
              <LongitudeDegrees>-6.28291024826467037200927734375</LongitudeDegrees>
            </Position>
            <AltitudeMeters>533.4000244140625</AltitudeMeters>
            <DistanceMeters>NAN</DistanceMeters>
          </Trackpoint>
          <Trackpoint>
            <Time>2019-10-10T08:42:22.000Z</Time>
            <Position>
              <LatitudeDegrees>38.19031588733196258544921875</LatitudeDegrees>
              <LongitudeDegrees>-6.2828303687274456024169921875</LongitudeDegrees>
            </Position>
            <AltitudeMeters>532.79998779296875</AltitudeMeters>
            <DistanceMeters>NAN</DistanceMeters>
          </Trackpoint>
          <Trackpoint>
            <Time>2019-10-10T08:42:26.000Z</Time>
            <Position>
              <LatitudeDegrees>38.190119080245494842529296875</LatitudeDegrees>
              <LongitudeDegrees>-6.28273598849773406982421875</LongitudeDegrees>
            </Position>
            <AltitudeMeters>531.79998779296875</AltitudeMeters>
            <DistanceMeters>NAN</DistanceMeters>
          </Trackpoint>
          <Trackpoint>
            <Time>2019-10-10T08:42:29.000Z</Time>
            <Position>
              <LatitudeDegrees>38.18995605222880840301513671875</LatitudeDegrees>
              <LongitudeDegrees>-6.2826546840369701385498046875</LongitudeDegrees>
            </Position>
            <AltitudeMeters>530.5999755859375</AltitudeMeters>
            <DistanceMeters>NAN</DistanceMeters>
          </Trackpoint>
          <Trackpoint>
            <Time>2019-10-10T08:42:31.000Z</Time>
            <Position>
              <LatitudeDegrees>38.1898377835750579833984375</LatitudeDegrees>
              <LongitudeDegrees>-6.28259425051510334014892578125</LongitudeDegrees>
            </Position>
            <AltitudeMeters>529.79998779296875</AltitudeMeters>
            <DistanceMeters>NAN</DistanceMeters>
          </Trackpoint>
          <Trackpoint>
            <Time>2019-10-10T08:42:32.000Z</Time>
            <Position>
              <LatitudeDegrees>38.18977533839643001556396484375</LatitudeDegrees>
              <LongitudeDegrees>-6.28256290219724178314208984375</LongitudeDegrees>
            </Position>
            <AltitudeMeters>529.79998779296875</AltitudeMeters>
            <DistanceMeters>NAN</DistanceMeters>
          </Trackpoint>
          <Trackpoint>
            <Time>2019-10-10T08:42:33.000Z</Time>
            <Position>
              <LatitudeDegrees>38.18971130065619945526123046875</LatitudeDegrees>
              <LongitudeDegrees>-6.28253205679357051849365234375</LongitudeDegrees>
            </Position>
            <AltitudeMeters>529.4000244140625</AltitudeMeters>
            <DistanceMeters>NAN</DistanceMeters>
          </Trackpoint>
          <Trackpoint>
            <Time>2019-10-10T08:42:36.000Z</Time>
            <Position>
              <LatitudeDegrees>38.18951298482716083526611328125</LatitudeDegrees>
              <LongitudeDegrees>-6.2824364192783832550048828125</LongitudeDegrees>
            </Position>
            <AltitudeMeters>528</AltitudeMeters>
            <DistanceMeters>NAN</DistanceMeters>
          </Trackpoint>
          <Trackpoint>
            <Time>2019-10-10T08:42:39.000Z</Time>
            <Position>
              <LatitudeDegrees>38.1893048621714115142822265625</LatitudeDegrees>
              <LongitudeDegrees>-6.2823351658880710601806640625</LongitudeDegrees>
            </Position>
            <AltitudeMeters>526.79998779296875</AltitudeMeters>
            <DistanceMeters>NAN</DistanceMeters>
          </Trackpoint>
          <Trackpoint>
            <Time>2019-10-10T08:42:41.000Z</Time>
            <Position>
              <LatitudeDegrees>38.189162872731685638427734375</LatitudeDegrees>
              <LongitudeDegrees>-6.28226500935852527618408203125</LongitudeDegrees>
            </Position>
            <AltitudeMeters>526</AltitudeMeters>
            <DistanceMeters>NAN</DistanceMeters>
          </Trackpoint>
          <Trackpoint>
            <Time>2019-10-10T08:42:42.000Z</Time>
            <Position>
              <LatitudeDegrees>38.18909053690731525421142578125</LatitudeDegrees>
              <LongitudeDegrees>-6.28222913481295108795166015625</LongitudeDegrees>
            </Position>
            <AltitudeMeters>525.79998779296875</AltitudeMeters>
            <DistanceMeters>NAN</DistanceMeters>
          </Trackpoint>
          <Trackpoint>
            <Time>2019-10-10T08:42:45.000Z</Time>
            <Position>
              <LatitudeDegrees>38.188868500292301177978515625</LatitudeDegrees>
              <LongitudeDegrees>-6.28211916424334049224853515625</LongitudeDegrees>
            </Position>
            <AltitudeMeters>524.20001220703125</AltitudeMeters>
            <DistanceMeters>NAN</DistanceMeters>
          </Trackpoint>
          <Trackpoint>
            <Time>2019-10-10T08:42:50.000Z</Time>
            <Position>
              <LatitudeDegrees>38.18849005736410617828369140625</LatitudeDegrees>
              <LongitudeDegrees>-6.281934678554534912109375</LongitudeDegrees>
            </Position>
            <AltitudeMeters>522.79998779296875</AltitudeMeters>
            <DistanceMeters>NAN</DistanceMeters>
          </Trackpoint>
          <Trackpoint>
            <Time>2019-10-10T08:42:52.000Z</Time>
            <Position>
              <LatitudeDegrees>38.1883389316499233245849609375</LatitudeDegrees>
              <LongitudeDegrees>-6.281861923635005950927734375</LongitudeDegrees>
            </Position>
            <AltitudeMeters>521.5999755859375</AltitudeMeters>
            <DistanceMeters>NAN</DistanceMeters>
          </Trackpoint>
          <Trackpoint>
            <Time>2019-10-10T08:42:54.000Z</Time>
            <Position>
              <LatitudeDegrees>38.18818755447864532470703125</LatitudeDegrees>
              <LongitudeDegrees>-6.2817906774580478668212890625</LongitudeDegrees>
            </Position>
            <AltitudeMeters>521.20001220703125</AltitudeMeters>
            <DistanceMeters>NAN</DistanceMeters>
          </Trackpoint>
          <Trackpoint>
            <Time>2019-10-10T08:42:56.000Z</Time>
            <Position>
              <LatitudeDegrees>38.188042379915714263916015625</LatitudeDegrees>
              <LongitudeDegrees>-6.281719096004962921142578125</LongitudeDegrees>
            </Position>
            <AltitudeMeters>520.5999755859375</AltitudeMeters>
            <DistanceMeters>NAN</DistanceMeters>
          </Trackpoint>
          <Trackpoint>
            <Time>2019-10-10T08:42:59.000Z</Time>
            <Position>
              <LatitudeDegrees>38.1878323294222354888916015625</LatitudeDegrees>
              <LongitudeDegrees>-6.28162086009979248046875</LongitudeDegrees>
            </Position>
            <AltitudeMeters>520.5999755859375</AltitudeMeters>
            <DistanceMeters>NAN</DistanceMeters>
          </Trackpoint>
          <Trackpoint>
            <Time>2019-10-10T08:43:00.000Z</Time>
            <Position>
              <LatitudeDegrees>38.18776552565395832061767578125</LatitudeDegrees>
              <LongitudeDegrees>-6.28158942796289920806884765625</LongitudeDegrees>
            </Position>
            <AltitudeMeters>520.79998779296875</AltitudeMeters>
            <DistanceMeters>NAN</DistanceMeters>
          </Trackpoint>
          <Trackpoint>
            <Time>2019-10-10T08:43:08.000Z</Time>
            <Position>
              <LatitudeDegrees>38.1872435845434665679931640625</LatitudeDegrees>
              <LongitudeDegrees>-6.28134316764771938323974609375</LongitudeDegrees>
            </Position>
            <AltitudeMeters>520</AltitudeMeters>
            <DistanceMeters>NAN</DistanceMeters>
          </Trackpoint>
          <Trackpoint>
            <Time>2019-10-10T08:43:09.000Z</Time>
            <Position>
              <LatitudeDegrees>38.18718063645064830780029296875</LatitudeDegrees>
              <LongitudeDegrees>-6.28131433390080928802490234375</LongitudeDegrees>
            </Position>
            <AltitudeMeters>520.4000244140625</AltitudeMeters>
            <DistanceMeters>NAN</DistanceMeters>
          </Trackpoint>
          <Trackpoint>
            <Time>2019-10-10T08:43:16.000Z</Time>
            <Position>
              <LatitudeDegrees>38.1867443583905696868896484375</LatitudeDegrees>
              <LongitudeDegrees>-6.2811104021966457366943359375</LongitudeDegrees>
            </Position>
            <AltitudeMeters>519.4000244140625</AltitudeMeters>
            <DistanceMeters>NAN</DistanceMeters>
          </Trackpoint>
          <Trackpoint>
            <Time>2019-10-10T08:43:18.000Z</Time>
            <Position>
              <LatitudeDegrees>38.186621479690074920654296875</LatitudeDegrees>
              <LongitudeDegrees>-6.28105700947344303131103515625</LongitudeDegrees>
            </Position>
            <AltitudeMeters>519.5999755859375</AltitudeMeters>
            <DistanceMeters>NAN</DistanceMeters>
          </Trackpoint>
          <Trackpoint>
            <Time>2019-10-10T08:43:26.000Z</Time>
            <Position>
              <LatitudeDegrees>38.18612200208008289337158203125</LatitudeDegrees>
              <LongitudeDegrees>-6.2809229828417301177978515625</LongitudeDegrees>
            </Position>
            <AltitudeMeters>519.5999755859375</AltitudeMeters>
            <DistanceMeters>NAN</DistanceMeters>
          </Trackpoint>
          <Trackpoint>
            <Time>2019-10-10T08:43:33.000Z</Time>
            <Position>
              <LatitudeDegrees>38.18567994050681591033935546875</LatitudeDegrees>
              <LongitudeDegrees>-6.28093396313488483428955078125</LongitudeDegrees>
            </Position>
            <AltitudeMeters>519.20001220703125</AltitudeMeters>
            <DistanceMeters>NAN</DistanceMeters>
          </Trackpoint>
          <Trackpoint>
            <Time>2019-10-10T08:43:40.000Z</Time>
            <Position>
              <LatitudeDegrees>38.185257576406002044677734375</LatitudeDegrees>
              <LongitudeDegrees>-6.281056590378284454345703125</LongitudeDegrees>
            </Position>
            <AltitudeMeters>519.4000244140625</AltitudeMeters>
            <DistanceMeters>NAN</DistanceMeters>
          </Trackpoint>
          <Trackpoint>
            <Time>2019-10-10T08:43:45.000Z</Time>
            <Position>
              <LatitudeDegrees>38.18498558364808559417724609375</LatitudeDegrees>
              <LongitudeDegrees>-6.281206123530864715576171875</LongitudeDegrees>
            </Position>
            <AltitudeMeters>519.5999755859375</AltitudeMeters>
            <DistanceMeters>NAN</DistanceMeters>
          </Trackpoint>
          <Trackpoint>
            <Time>2019-10-10T08:43:48.000Z</Time>
            <Position>
              <LatitudeDegrees>38.1848319433629512786865234375</LatitudeDegrees>
              <LongitudeDegrees>-6.2813021801412105560302734375</LongitudeDegrees>
            </Position>
            <AltitudeMeters>519.20001220703125</AltitudeMeters>
            <DistanceMeters>NAN</DistanceMeters>
          </Trackpoint>
          <Trackpoint>
            <Time>2019-10-10T08:43:56.000Z</Time>
            <Position>
              <LatitudeDegrees>38.1844208948314189910888671875</LatitudeDegrees>
              <LongitudeDegrees>-6.28159068524837493896484375</LongitudeDegrees>
            </Position>
            <AltitudeMeters>519.20001220703125</AltitudeMeters>
            <DistanceMeters>NAN</DistanceMeters>
          </Trackpoint>
          <Trackpoint>
            <Time>2019-10-10T08:43:57.000Z</Time>
            <Position>
              <LatitudeDegrees>38.1843689270317554473876953125</LatitudeDegrees>
              <LongitudeDegrees>-6.2816284038126468658447265625</LongitudeDegrees>
            </Position>
            <AltitudeMeters>519.20001220703125</AltitudeMeters>
            <DistanceMeters>NAN</DistanceMeters>
          </Trackpoint>
          <Trackpoint>
            <Time>2019-10-10T08:44:06.000Z</Time>
            <Position>
              <LatitudeDegrees>38.1838935054838657379150390625</LatitudeDegrees>
              <LongitudeDegrees>-6.281969882547855377197265625</LongitudeDegrees>
            </Position>
            <AltitudeMeters>518.79998779296875</AltitudeMeters>
            <DistanceMeters>NAN</DistanceMeters>
          </Trackpoint>
          <Trackpoint>
            <Time>2019-10-10T08:44:15.000Z</Time>
            <Position>
              <LatitudeDegrees>38.1834085285663604736328125</LatitudeDegrees>
              <LongitudeDegrees>-6.28230012953281402587890625</LongitudeDegrees>
            </Position>
            <AltitudeMeters>518.5999755859375</AltitudeMeters>
            <DistanceMeters>NAN</DistanceMeters>
          </Trackpoint>
          <Trackpoint>
            <Time>2019-10-10T08:44:16.000Z</Time>
            <Position>
              <LatitudeDegrees>38.18335262127220630645751953125</LatitudeDegrees>
              <LongitudeDegrees>-6.28233290277421474456787109375</LongitudeDegrees>
            </Position>
            <AltitudeMeters>518.4000244140625</AltitudeMeters>
            <DistanceMeters>NAN</DistanceMeters>
          </Trackpoint>
          <Trackpoint>
            <Time>2019-10-10T08:44:25.000Z</Time>
            <Position>
              <LatitudeDegrees>38.18285129964351654052734375</LatitudeDegrees>
              <LongitudeDegrees>-6.2825931608676910400390625</LongitudeDegrees>
            </Position>
            <AltitudeMeters>518.20001220703125</AltitudeMeters>
            <DistanceMeters>NAN</DistanceMeters>
          </Trackpoint>
          <Trackpoint>
            <Time>2019-10-10T08:44:28.000Z</Time>
            <Position>
              <LatitudeDegrees>38.1826818175613880157470703125</LatitudeDegrees>
              <LongitudeDegrees>-6.2826647423207759857177734375</LongitudeDegrees>
            </Position>
            <AltitudeMeters>518.4000244140625</AltitudeMeters>
            <DistanceMeters>NAN</DistanceMeters>
          </Trackpoint>
          <Trackpoint>
            <Time>2019-10-10T08:44:36.000Z</Time>
            <Position>
              <LatitudeDegrees>38.18222793750464916229248046875</LatitudeDegrees>
              <LongitudeDegrees>-6.28281301818788051605224609375</LongitudeDegrees>
            </Position>
            <AltitudeMeters>518.20001220703125</AltitudeMeters>
            <DistanceMeters>NAN</DistanceMeters>
          </Trackpoint>
          <Trackpoint>
            <Time>2019-10-10T08:44:44.000Z</Time>
            <Position>
              <LatitudeDegrees>38.181780762970447540283203125</LatitudeDegrees>
              <LongitudeDegrees>-6.28290672786533832550048828125</LongitudeDegrees>
            </Position>
            <AltitudeMeters>518.79998779296875</AltitudeMeters>
            <DistanceMeters>NAN</DistanceMeters>
          </Trackpoint>
          <Trackpoint>
            <Time>2019-10-10T08:44:54.000Z</Time>
            <Position>
              <LatitudeDegrees>38.18123468197882175445556640625</LatitudeDegrees>
              <LongitudeDegrees>-6.2829617969691753387451171875</LongitudeDegrees>
            </Position>
            <AltitudeMeters>519</AltitudeMeters>
            <DistanceMeters>NAN</DistanceMeters>
          </Trackpoint>
          <Trackpoint>
            <Time>2019-10-10T08:44:58.000Z</Time>
            <Position>
              <LatitudeDegrees>38.1810258887708187103271484375</LatitudeDegrees>
              <LongitudeDegrees>-6.28295953385531902313232421875</LongitudeDegrees>
            </Position>
            <AltitudeMeters>520</AltitudeMeters>
            <DistanceMeters>NAN</DistanceMeters>
          </Trackpoint>
          <Trackpoint>
            <Time>2019-10-10T08:45:01.000Z</Time>
            <Position>
              <LatitudeDegrees>38.18086638115346431732177734375</LatitudeDegrees>
              <LongitudeDegrees>-6.2829514034092426300048828125</LongitudeDegrees>
            </Position>
            <AltitudeMeters>519.79998779296875</AltitudeMeters>
            <DistanceMeters>NAN</DistanceMeters>
          </Trackpoint>
          <Trackpoint>
            <Time>2019-10-10T08:45:05.000Z</Time>
            <Position>
              <LatitudeDegrees>38.1806565821170806884765625</LatitudeDegrees>
              <LongitudeDegrees>-6.2829312868416309356689453125</LongitudeDegrees>
            </Position>
            <AltitudeMeters>520.20001220703125</AltitudeMeters>
            <DistanceMeters>NAN</DistanceMeters>
          </Trackpoint>
          <Trackpoint>
            <Time>2019-10-10T08:45:09.000Z</Time>
            <Position>
              <LatitudeDegrees>38.18045080639421939849853515625</LatitudeDegrees>
              <LongitudeDegrees>-6.28290371038019657135009765625</LongitudeDegrees>
            </Position>
            <AltitudeMeters>520.5999755859375</AltitudeMeters>
            <DistanceMeters>NAN</DistanceMeters>
          </Trackpoint>
          <Trackpoint>
            <Time>2019-10-10T08:45:11.000Z</Time>
            <Position>
              <LatitudeDegrees>38.180345110595226287841796875</LatitudeDegrees>
              <LongitudeDegrees>-6.28288174979388713836669921875</LongitudeDegrees>
            </Position>
            <AltitudeMeters>521.20001220703125</AltitudeMeters>
            <DistanceMeters>NAN</DistanceMeters>
          </Trackpoint>
          <Trackpoint>
            <Time>2019-10-10T08:45:17.000Z</Time>
            <Position>
              <LatitudeDegrees>38.1800331361591815948486328125</LatitudeDegrees>
              <LongitudeDegrees>-6.28280036151409149169921875</LongitudeDegrees>
            </Position>
            <AltitudeMeters>520.4000244140625</AltitudeMeters>
            <DistanceMeters>NAN</DistanceMeters>
          </Trackpoint>
          <Trackpoint>
            <Time>2019-10-10T08:45:21.000Z</Time>
            <Position>
              <LatitudeDegrees>38.1798182241618633270263671875</LatitudeDegrees>
              <LongitudeDegrees>-6.28274126909673213958740234375</LongitudeDegrees>
            </Position>
            <AltitudeMeters>520.20001220703125</AltitudeMeters>
            <DistanceMeters>NAN</DistanceMeters>
          </Trackpoint>
          <Trackpoint>
            <Time>2019-10-10T08:45:27.000Z</Time>
            <Position>
              <LatitudeDegrees>38.1794765777885913848876953125</LatitudeDegrees>
              <LongitudeDegrees>-6.28263750113546848297119140625</LongitudeDegrees>
            </Position>
            <AltitudeMeters>519</AltitudeMeters>
            <DistanceMeters>NAN</DistanceMeters>
          </Trackpoint>
          <Trackpoint>
            <Time>2019-10-10T08:45:34.000Z</Time>
            <Position>
              <LatitudeDegrees>38.1790407188236713409423828125</LatitudeDegrees>
              <LongitudeDegrees>-6.28251629881560802459716796875</LongitudeDegrees>
            </Position>
            <AltitudeMeters>518</AltitudeMeters>
            <DistanceMeters>NAN</DistanceMeters>
          </Trackpoint>
          <Trackpoint>
            <Time>2019-10-10T08:45:36.000Z</Time>
            <Position>
              <LatitudeDegrees>38.1789153255522251129150390625</LatitudeDegrees>
              <LongitudeDegrees>-6.282483525574207305908203125</LongitudeDegrees>
            </Position>
            <AltitudeMeters>517.79998779296875</AltitudeMeters>
            <DistanceMeters>NAN</DistanceMeters>
          </Trackpoint>
          <Trackpoint>
            <Time>2019-10-10T08:45:41.000Z</Time>
            <Position>
              <LatitudeDegrees>38.17861584015190601348876953125</LatitudeDegrees>
              <LongitudeDegrees>-6.2823978625237941741943359375</LongitudeDegrees>
            </Position>
            <AltitudeMeters>518.5999755859375</AltitudeMeters>
            <DistanceMeters>NAN</DistanceMeters>
          </Trackpoint>
          <Trackpoint>
            <Time>2019-10-10T08:45:45.000Z</Time>
            <Position>
              <LatitudeDegrees>38.1783906184136867523193359375</LatitudeDegrees>
              <LongitudeDegrees>-6.28233969211578369140625</LongitudeDegrees>
            </Position>
            <AltitudeMeters>518.79998779296875</AltitudeMeters>
            <DistanceMeters>NAN</DistanceMeters>
          </Trackpoint>
          <Trackpoint>
            <Time>2019-10-10T08:45:46.000Z</Time>
            <Position>
              <LatitudeDegrees>38.17833655513823032379150390625</LatitudeDegrees>
              <LongitudeDegrees>-6.282325275242328643798828125</LongitudeDegrees>
            </Position>
            <AltitudeMeters>519.20001220703125</AltitudeMeters>
            <DistanceMeters>NAN</DistanceMeters>
          </Trackpoint>
          <Trackpoint>
            <Time>2019-10-10T08:45:50.000Z</Time>
            <Position>
              <LatitudeDegrees>38.17812818102538585662841796875</LatitudeDegrees>
              <LongitudeDegrees>-6.28226366825401782989501953125</LongitudeDegrees>
            </Position>
            <AltitudeMeters>520.20001220703125</AltitudeMeters>
            <DistanceMeters>NAN</DistanceMeters>
          </Trackpoint>
          <Trackpoint>
            <Time>2019-10-10T08:45:52.000Z</Time>
            <Position>
              <LatitudeDegrees>38.17802743054926395416259765625</LatitudeDegrees>
              <LongitudeDegrees>-6.28223617561161518096923828125</LongitudeDegrees>
            </Position>
            <AltitudeMeters>520.4000244140625</AltitudeMeters>
            <DistanceMeters>NAN</DistanceMeters>
          </Trackpoint>
          <Trackpoint>
            <Time>2019-10-10T08:45:58.000Z</Time>
            <Position>
              <LatitudeDegrees>38.1777338124811649322509765625</LatitudeDegrees>
              <LongitudeDegrees>-6.282154284417629241943359375</LongitudeDegrees>
            </Position>
            <AltitudeMeters>520.4000244140625</AltitudeMeters>
            <DistanceMeters>NAN</DistanceMeters>
          </Trackpoint>
          <Trackpoint>
            <Time>2019-10-10T08:46:06.000Z</Time>
            <Position>
              <LatitudeDegrees>38.17732569761574268341064453125</LatitudeDegrees>
              <LongitudeDegrees>-6.282052360475063323974609375</LongitudeDegrees>
            </Position>
            <AltitudeMeters>520.79998779296875</AltitudeMeters>
            <DistanceMeters>NAN</DistanceMeters>
          </Trackpoint>
          <Trackpoint>
            <Time>2019-10-10T08:46:16.000Z</Time>
            <Position>
              <LatitudeDegrees>38.1767993979156017303466796875</LatitudeDegrees>
              <LongitudeDegrees>-6.28193040378391742706298828125</LongitudeDegrees>
            </Position>
            <AltitudeMeters>520.4000244140625</AltitudeMeters>
            <DistanceMeters>NAN</DistanceMeters>
          </Trackpoint>
          <Trackpoint>
            <Time>2019-10-10T08:46:17.000Z</Time>
            <Position>
              <LatitudeDegrees>38.176744244992733001708984375</LatitudeDegrees>
              <LongitudeDegrees>-6.2819190882146358489990234375</LongitudeDegrees>
            </Position>
            <AltitudeMeters>520.4000244140625</AltitudeMeters>
            <DistanceMeters>NAN</DistanceMeters>
          </Trackpoint>
          <Trackpoint>
            <Time>2019-10-10T08:46:26.000Z</Time>
            <Position>
              <LatitudeDegrees>38.1762066297233104705810546875</LatitudeDegrees>
              <LongitudeDegrees>-6.2817953713238239288330078125</LongitudeDegrees>
            </Position>
            <AltitudeMeters>519.79998779296875</AltitudeMeters>
            <DistanceMeters>NAN</DistanceMeters>
          </Trackpoint>
          <Trackpoint>
            <Time>2019-10-10T08:46:28.000Z</Time>
            <Position>
              <LatitudeDegrees>38.17608140408992767333984375</LatitudeDegrees>
              <LongitudeDegrees>-6.2817589938640594482421875</LongitudeDegrees>
            </Position>
            <AltitudeMeters>518.79998779296875</AltitudeMeters>
            <DistanceMeters>NAN</DistanceMeters>
          </Trackpoint>
          <Trackpoint>
            <Time>2019-10-10T08:46:32.000Z</Time>
            <Position>
              <LatitudeDegrees>38.1758190505206584930419921875</LatitudeDegrees>
              <LongitudeDegrees>-6.28168531693518161773681640625</LongitudeDegrees>
            </Position>
            <AltitudeMeters>517.79998779296875</AltitudeMeters>
            <DistanceMeters>NAN</DistanceMeters>
          </Trackpoint>
          <Trackpoint>
            <Time>2019-10-10T08:46:35.000Z</Time>
            <Position>
              <LatitudeDegrees>38.17562098614871501922607421875</LatitudeDegrees>
              <LongitudeDegrees>-6.2816243804991245269775390625</LongitudeDegrees>
            </Position>
            <AltitudeMeters>517.5999755859375</AltitudeMeters>
            <DistanceMeters>NAN</DistanceMeters>
          </Trackpoint>
          <Trackpoint>
            <Time>2019-10-10T08:46:37.000Z</Time>
            <Position>
              <LatitudeDegrees>38.1754874624311923980712890625</LatitudeDegrees>
              <LongitudeDegrees>-6.28158171661198139190673828125</LongitudeDegrees>
            </Position>
            <AltitudeMeters>516.79998779296875</AltitudeMeters>
            <DistanceMeters>NAN</DistanceMeters>
          </Trackpoint>
          <Trackpoint>
            <Time>2019-10-10T08:46:40.000Z</Time>
            <Position>
              <LatitudeDegrees>38.1752846203744411468505859375</LatitudeDegrees>
              <LongitudeDegrees>-6.28152052871882915496826171875</LongitudeDegrees>
            </Position>
            <AltitudeMeters>516.4000244140625</AltitudeMeters>
            <DistanceMeters>NAN</DistanceMeters>
          </Trackpoint>
          <Trackpoint>
            <Time>2019-10-10T08:46:44.000Z</Time>
            <Position>
              <LatitudeDegrees>38.17500709556043148040771484375</LatitudeDegrees>
              <LongitudeDegrees>-6.2814302556216716766357421875</LongitudeDegrees>
            </Position>
            <AltitudeMeters>515.5999755859375</AltitudeMeters>
            <DistanceMeters>NAN</DistanceMeters>
          </Trackpoint>
          <Trackpoint>
            <Time>2019-10-10T08:46:49.000Z</Time>
            <Position>
              <LatitudeDegrees>38.174650780856609344482421875</LatitudeDegrees>
              <LongitudeDegrees>-6.28132254816591739654541015625</LongitudeDegrees>
            </Position>
            <AltitudeMeters>514.5999755859375</AltitudeMeters>
            <DistanceMeters>NAN</DistanceMeters>
          </Trackpoint>
          <Trackpoint>
            <Time>2019-10-10T08:46:51.000Z</Time>
            <Position>
              <LatitudeDegrees>38.17450837232172489166259765625</LatitudeDegrees>
              <LongitudeDegrees>-6.28127879463136196136474609375</LongitudeDegrees>
            </Position>
            <AltitudeMeters>514.20001220703125</AltitudeMeters>
            <DistanceMeters>NAN</DistanceMeters>
          </Trackpoint>
          <Trackpoint>
            <Time>2019-10-10T08:46:53.000Z</Time>
            <Position>
              <LatitudeDegrees>38.1743642874062061309814453125</LatitudeDegrees>
              <LongitudeDegrees>-6.281236298382282257080078125</LongitudeDegrees>
            </Position>
            <AltitudeMeters>514.20001220703125</AltitudeMeters>
            <DistanceMeters>NAN</DistanceMeters>
          </Trackpoint>
          <Trackpoint>
            <Time>2019-10-10T08:46:56.000Z</Time>
            <Position>
              <LatitudeDegrees>38.17414543591439723968505859375</LatitudeDegrees>
              <LongitudeDegrees>-6.28117360174655914306640625</LongitudeDegrees>
            </Position>
            <AltitudeMeters>513.4000244140625</AltitudeMeters>
            <DistanceMeters>NAN</DistanceMeters>
          </Trackpoint>
          <Trackpoint>
            <Time>2019-10-10T08:47:00.000Z</Time>
            <Position>
              <LatitudeDegrees>38.17385106347501277923583984375</LatitudeDegrees>
              <LongitudeDegrees>-6.2810849212110042572021484375</LongitudeDegrees>
            </Position>
            <AltitudeMeters>512.20001220703125</AltitudeMeters>
            <DistanceMeters>NAN</DistanceMeters>
          </Trackpoint>
          <Trackpoint>
            <Time>2019-10-10T08:47:07.000Z</Time>
            <Position>
              <LatitudeDegrees>38.17334094084799289703369140625</LatitudeDegrees>
              <LongitudeDegrees>-6.28093077801167964935302734375</LongitudeDegrees>
            </Position>
            <AltitudeMeters>511.600006103515625</AltitudeMeters>
            <DistanceMeters>NAN</DistanceMeters>
          </Trackpoint>
          <Trackpoint>
            <Time>2019-10-10T08:47:09.000Z</Time>
            <Position>
              <LatitudeDegrees>38.17319744266569614410400390625</LatitudeDegrees>
              <LongitudeDegrees>-6.280886270105838775634765625</LongitudeDegrees>
            </Position>
            <AltitudeMeters>511</AltitudeMeters>
            <DistanceMeters>NAN</DistanceMeters>
          </Trackpoint>
          <Trackpoint>
            <Time>2019-10-10T08:47:12.000Z</Time>
            <Position>
              <LatitudeDegrees>38.17298554815351963043212890625</LatitudeDegrees>
              <LongitudeDegrees>-6.280818879604339599609375</LongitudeDegrees>
            </Position>
            <AltitudeMeters>510.79998779296875</AltitudeMeters>
            <DistanceMeters>NAN</DistanceMeters>
          </Trackpoint>
          <Trackpoint>
            <Time>2019-10-10T08:47:15.000Z</Time>
            <Position>
              <LatitudeDegrees>38.17277960479259490966796875</LatitudeDegrees>
              <LongitudeDegrees>-6.28075576387345790863037109375</LongitudeDegrees>
            </Position>
            <AltitudeMeters>510.600006103515625</AltitudeMeters>
            <DistanceMeters>NAN</DistanceMeters>
          </Trackpoint>
          <Trackpoint>
            <Time>2019-10-10T08:47:16.000Z</Time>
            <Position>
              <LatitudeDegrees>38.17271213047206401824951171875</LatitudeDegrees>
              <LongitudeDegrees>-6.2807348929345607757568359375</LongitudeDegrees>
            </Position>
            <AltitudeMeters>511</AltitudeMeters>
            <DistanceMeters>NAN</DistanceMeters>
          </Trackpoint>
          <Trackpoint>
            <Time>2019-10-10T08:47:24.000Z</Time>
            <Position>
              <LatitudeDegrees>38.1721883453428745269775390625</LatitudeDegrees>
              <LongitudeDegrees>-6.28057957626879215240478515625</LongitudeDegrees>
            </Position>
            <AltitudeMeters>511</AltitudeMeters>
            <DistanceMeters>NAN</DistanceMeters>
          </Trackpoint>
          <Trackpoint>
            <Time>2019-10-10T08:47:27.000Z</Time>
            <Position>
              <LatitudeDegrees>38.17199832759797573089599609375</LatitudeDegrees>
              <LongitudeDegrees>-6.28052324987947940826416015625</LongitudeDegrees>
            </Position>
            <AltitudeMeters>510.399993896484375</AltitudeMeters>
            <DistanceMeters>NAN</DistanceMeters>
          </Trackpoint>
          <Trackpoint>
            <Time>2019-10-10T08:47:31.000Z</Time>
            <Position>
              <LatitudeDegrees>38.17175039090216159820556640625</LatitudeDegrees>
              <LongitudeDegrees>-6.28044798038899898529052734375</LongitudeDegrees>
            </Position>
            <AltitudeMeters>511</AltitudeMeters>
            <DistanceMeters>NAN</DistanceMeters>
          </Trackpoint>
          <Trackpoint>
            <Time>2019-10-10T08:47:36.000Z</Time>
            <Position>
              <LatitudeDegrees>38.17144788801670074462890625</LatitudeDegrees>
              <LongitudeDegrees>-6.2803543545305728912353515625</LongitudeDegrees>
            </Position>
            <AltitudeMeters>510.79998779296875</AltitudeMeters>
            <DistanceMeters>NAN</DistanceMeters>
          </Trackpoint>
          <Trackpoint>
            <Time>2019-10-10T08:47:39.000Z</Time>
            <Position>
              <LatitudeDegrees>38.17126826383173465728759765625</LatitudeDegrees>
              <LongitudeDegrees>-6.28029878251254558563232421875</LongitudeDegrees>
            </Position>
            <AltitudeMeters>511</AltitudeMeters>
            <DistanceMeters>NAN</DistanceMeters>
          </Trackpoint>
          <Trackpoint>
            <Time>2019-10-10T08:47:48.000Z</Time>
            <Position>
              <LatitudeDegrees>38.1707265414297580718994140625</LatitudeDegrees>
              <LongitudeDegrees>-6.2801456451416015625</LongitudeDegrees>
            </Position>
            <AltitudeMeters>510.600006103515625</AltitudeMeters>
            <DistanceMeters>NAN</DistanceMeters>
          </Trackpoint>
          <Trackpoint>
            <Time>2019-10-10T08:47:51.000Z</Time>
            <Position>
              <LatitudeDegrees>38.1705394573509693145751953125</LatitudeDegrees>
              <LongitudeDegrees>-6.2801067531108856201171875</LongitudeDegrees>
            </Position>
            <AltitudeMeters>510.20001220703125</AltitudeMeters>
            <DistanceMeters>NAN</DistanceMeters>
          </Trackpoint>
          <Trackpoint>
            <Time>2019-10-10T08:47:52.000Z</Time>
            <Position>
              <LatitudeDegrees>38.1704749166965484619140625</LatitudeDegrees>
              <LongitudeDegrees>-6.28009694628417491912841796875</LongitudeDegrees>
            </Position>
            <AltitudeMeters>509.79998779296875</AltitudeMeters>
            <DistanceMeters>NAN</DistanceMeters>
          </Trackpoint>
          <Trackpoint>
            <Time>2019-10-10T08:47:58.000Z</Time>
            <Position>
              <LatitudeDegrees>38.17007082514464855194091796875</LatitudeDegrees>
              <LongitudeDegrees>-6.28009040839970111846923828125</LongitudeDegrees>
            </Position>
            <AltitudeMeters>509</AltitudeMeters>
            <DistanceMeters>NAN</DistanceMeters>
          </Trackpoint>
          <Trackpoint>
            <Time>2019-10-10T08:47:59.000Z</Time>
            <Position>
              <LatitudeDegrees>38.16999924369156360626220703125</LatitudeDegrees>
              <LongitudeDegrees>-6.2801013886928558349609375</LongitudeDegrees>
            </Position>
            <AltitudeMeters>508.399993896484375</AltitudeMeters>
            <DistanceMeters>NAN</DistanceMeters>
          </Trackpoint>
          <Trackpoint>
            <Time>2019-10-10T08:48:03.000Z</Time>
            <Position>
              <LatitudeDegrees>38.1696995906531810760498046875</LatitudeDegrees>
              <LongitudeDegrees>-6.2801779992878437042236328125</LongitudeDegrees>
            </Position>
            <AltitudeMeters>507</AltitudeMeters>
            <DistanceMeters>NAN</DistanceMeters>
          </Trackpoint>
          <Trackpoint>
            <Time>2019-10-10T08:48:04.000Z</Time>
            <Position>
              <LatitudeDegrees>38.16962256096303462982177734375</LatitudeDegrees>
              <LongitudeDegrees>-6.28020775504410266876220703125</LongitudeDegrees>
            </Position>
            <AltitudeMeters>507</AltitudeMeters>
            <DistanceMeters>NAN</DistanceMeters>
          </Trackpoint>
          <Trackpoint>
            <Time>2019-10-10T08:48:08.000Z</Time>
            <Position>
              <LatitudeDegrees>38.16930958069860935211181640625</LatitudeDegrees>
              <LongitudeDegrees>-6.28035284578800201416015625</LongitudeDegrees>
            </Position>
            <AltitudeMeters>505.399993896484375</AltitudeMeters>
            <DistanceMeters>NAN</DistanceMeters>
          </Trackpoint>
          <Trackpoint>
            <Time>2019-10-10T08:48:11.000Z</Time>
            <Position>
              <LatitudeDegrees>38.16906751133501529693603515625</LatitudeDegrees>
              <LongitudeDegrees>-6.2804931588470935821533203125</LongitudeDegrees>
            </Position>
            <AltitudeMeters>504.600006103515625</AltitudeMeters>
            <DistanceMeters>NAN</DistanceMeters>
          </Trackpoint>
          <Trackpoint>
            <Time>2019-10-10T08:48:14.000Z</Time>
            <Position>
              <LatitudeDegrees>38.1688194908201694488525390625</LatitudeDegrees>
              <LongitudeDegrees>-6.2806406803429126739501953125</LongitudeDegrees>
            </Position>
            <AltitudeMeters>504.20001220703125</AltitudeMeters>
            <DistanceMeters>NAN</DistanceMeters>
          </Trackpoint>
          <Trackpoint>
            <Time>2019-10-10T08:48:17.000Z</Time>
            <Position>
              <LatitudeDegrees>38.1685586459934711456298828125</LatitudeDegrees>
              <LongitudeDegrees>-6.28080018796026706695556640625</LongitudeDegrees>
            </Position>
            <AltitudeMeters>502.79998779296875</AltitudeMeters>
            <DistanceMeters>NAN</DistanceMeters>
          </Trackpoint>
          <Trackpoint>
            <Time>2019-10-10T08:48:19.000Z</Time>
            <Position>
              <LatitudeDegrees>38.1683801114559173583984375</LatitudeDegrees>
              <LongitudeDegrees>-6.2809122540056705474853515625</LongitudeDegrees>
            </Position>
            <AltitudeMeters>502</AltitudeMeters>
            <DistanceMeters>NAN</DistanceMeters>
          </Trackpoint>
          <Trackpoint>
            <Time>2019-10-10T08:48:20.000Z</Time>
            <Position>
              <LatitudeDegrees>38.168289922177791595458984375</LatitudeDegrees>
              <LongitudeDegrees>-6.2809689156711101531982421875</LongitudeDegrees>
            </Position>
            <AltitudeMeters>501.20001220703125</AltitudeMeters>
            <DistanceMeters>NAN</DistanceMeters>
          </Trackpoint>
          <Trackpoint>
            <Time>2019-10-10T08:48:22.000Z</Time>
            <Position>
              <LatitudeDegrees>38.16811096854507923126220703125</LatitudeDegrees>
              <LongitudeDegrees>-6.2810802273452281951904296875</LongitudeDegrees>
            </Position>
            <AltitudeMeters>500</AltitudeMeters>
            <DistanceMeters>NAN</DistanceMeters>
          </Trackpoint>
          <Trackpoint>
            <Time>2019-10-10T08:48:25.000Z</Time>
            <Position>
              <LatitudeDegrees>38.16784643568098545074462890625</LatitudeDegrees>
              <LongitudeDegrees>-6.28124342299997806549072265625</LongitudeDegrees>
            </Position>
            <AltitudeMeters>499</AltitudeMeters>
            <DistanceMeters>NAN</DistanceMeters>
          </Trackpoint>
          <Trackpoint>
            <Time>2019-10-10T08:48:27.000Z</Time>
            <Position>
              <LatitudeDegrees>38.16767477430403232574462890625</LatitudeDegrees>
              <LongitudeDegrees>-6.28134769387543201446533203125</LongitudeDegrees>
            </Position>
            <AltitudeMeters>498.79998779296875</AltitudeMeters>
            <DistanceMeters>NAN</DistanceMeters>
          </Trackpoint>
          <Trackpoint>
            <Time>2019-10-10T08:48:29.000Z</Time>
            <Position>
              <LatitudeDegrees>38.167510740458965301513671875</LatitudeDegrees>
              <LongitudeDegrees>-6.28144442103803157806396484375</LongitudeDegrees>
            </Position>
            <AltitudeMeters>500</AltitudeMeters>
            <DistanceMeters>NAN</DistanceMeters>
          </Trackpoint>
          <Trackpoint>
            <Time>2019-10-10T08:48:34.000Z</Time>
            <Position>
              <LatitudeDegrees>38.167130537331104278564453125</LatitudeDegrees>
              <LongitudeDegrees>-6.28168188035488128662109375</LongitudeDegrees>
            </Position>
            <AltitudeMeters>499.600006103515625</AltitudeMeters>
            <DistanceMeters>NAN</DistanceMeters>
          </Trackpoint>
          <Trackpoint>
            <Time>2019-10-10T08:48:36.000Z</Time>
            <Position>
              <LatitudeDegrees>38.16698863171041011810302734375</LatitudeDegrees>
              <LongitudeDegrees>-6.28177106380462646484375</LongitudeDegrees>
            </Position>
            <AltitudeMeters>500.399993896484375</AltitudeMeters>
            <DistanceMeters>NAN</DistanceMeters>
          </Trackpoint>
          <Trackpoint>
            <Time>2019-10-10T08:48:40.000Z</Time>
            <Position>
              <LatitudeDegrees>38.1667250208556652069091796875</LatitudeDegrees>
              <LongitudeDegrees>-6.28193266689777374267578125</LongitudeDegrees>
            </Position>
            <AltitudeMeters>501.20001220703125</AltitudeMeters>
            <DistanceMeters>NAN</DistanceMeters>
          </Trackpoint>
          <Trackpoint>
            <Time>2019-10-10T08:48:43.000Z</Time>
            <Position>
              <LatitudeDegrees>38.1665510125458240509033203125</LatitudeDegrees>
              <LongitudeDegrees>-6.28203953616321086883544921875</LongitudeDegrees>
            </Position>
            <AltitudeMeters>502</AltitudeMeters>
            <DistanceMeters>NAN</DistanceMeters>
          </Trackpoint>
          <Trackpoint>
            <Time>2019-10-10T08:48:46.000Z</Time>
            <Position>
              <LatitudeDegrees>38.16644380800426006317138671875</LatitudeDegrees>
              <LongitudeDegrees>-6.2821065075695514678955078125</LongitudeDegrees>
            </Position>
            <AltitudeMeters>502.399993896484375</AltitudeMeters>
            <DistanceMeters>NAN</DistanceMeters>
          </Trackpoint>
          <Trackpoint>
            <Time>2019-10-10T08:48:49.000Z</Time>
            <Position>
              <LatitudeDegrees>38.166293688118457794189453125</LatitudeDegrees>
              <LongitudeDegrees>-6.2821960262954235076904296875</LongitudeDegrees>
            </Position>
            <AltitudeMeters>502.79998779296875</AltitudeMeters>
            <DistanceMeters>NAN</DistanceMeters>
          </Trackpoint>
          <Trackpoint>
            <Time>2019-10-10T08:48:51.000Z</Time>
            <Position>
              <LatitudeDegrees>38.16619369201362133026123046875</LatitudeDegrees>
              <LongitudeDegrees>-6.282254867255687713623046875</LongitudeDegrees>
            </Position>
            <AltitudeMeters>503.79998779296875</AltitudeMeters>
            <DistanceMeters>NAN</DistanceMeters>
          </Trackpoint>
          <Trackpoint>
            <Time>2019-10-10T08:48:53.000Z</Time>
            <Position>
              <LatitudeDegrees>38.1660967133939266204833984375</LatitudeDegrees>
              <LongitudeDegrees>-6.2823147140443325042724609375</LongitudeDegrees>
            </Position>
            <AltitudeMeters>503.600006103515625</AltitudeMeters>
            <DistanceMeters>NAN</DistanceMeters>
          </Trackpoint>
          <Trackpoint>
            <Time>2019-10-10T08:48:57.000Z</Time>
            <Position>
              <LatitudeDegrees>38.165908791124820709228515625</LatitudeDegrees>
              <LongitudeDegrees>-6.282431893050670623779296875</LongitudeDegrees>
            </Position>
            <AltitudeMeters>504</AltitudeMeters>
            <DistanceMeters>NAN</DistanceMeters>
          </Trackpoint>
          <Trackpoint>
            <Time>2019-10-10T08:49:01.000Z</Time>
            <Position>
              <LatitudeDegrees>38.16572480835020542144775390625</LatitudeDegrees>
              <LongitudeDegrees>-6.28254530020058155059814453125</LongitudeDegrees>
            </Position>
            <AltitudeMeters>504</AltitudeMeters>
            <DistanceMeters>NAN</DistanceMeters>
          </Trackpoint>
          <Trackpoint>
            <Time>2019-10-10T08:49:02.000Z</Time>
            <Position>
              <LatitudeDegrees>38.1656791269779205322265625</LatitudeDegrees>
              <LongitudeDegrees>-6.28257228992879390716552734375</LongitudeDegrees>
            </Position>
            <AltitudeMeters>504.399993896484375</AltitudeMeters>
            <DistanceMeters>NAN</DistanceMeters>
          </Trackpoint>
          <Trackpoint>
            <Time>2019-10-10T08:49:03.000Z</Time>
            <Position>
              <LatitudeDegrees>38.16563495434820652008056640625</LatitudeDegrees>
              <LongitudeDegrees>-6.28259827382862567901611328125</LongitudeDegrees>
            </Position>
            <AltitudeMeters>504.79998779296875</AltitudeMeters>
            <DistanceMeters>NAN</DistanceMeters>
          </Trackpoint>
          <Trackpoint>
            <Time>2019-10-10T08:49:08.000Z</Time>
            <Position>
              <LatitudeDegrees>38.16542088054120540618896484375</LatitudeDegrees>
              <LongitudeDegrees>-6.28272500820457935333251953125</LongitudeDegrees>
            </Position>
            <AltitudeMeters>505.20001220703125</AltitudeMeters>
            <DistanceMeters>NAN</DistanceMeters>
          </Trackpoint>
          <Trackpoint>
            <Time>2019-10-10T08:49:11.000Z</Time>
            <Position>
              <LatitudeDegrees>38.1652984209358692169189453125</LatitudeDegrees>
              <LongitudeDegrees>-6.28280103206634521484375</LongitudeDegrees>
            </Position>
            <AltitudeMeters>505.600006103515625</AltitudeMeters>
            <DistanceMeters>NAN</DistanceMeters>
          </Trackpoint>
          <Trackpoint>
            <Time>2019-10-10T08:49:12.000Z</Time>
            <Position>
              <LatitudeDegrees>38.16525693051517009735107421875</LatitudeDegrees>
              <LongitudeDegrees>-6.2828253395855426788330078125</LongitudeDegrees>
            </Position>
            <AltitudeMeters>505.79998779296875</AltitudeMeters>
            <DistanceMeters>NAN</DistanceMeters>
          </Trackpoint>
          <Trackpoint>
            <Time>2019-10-10T08:49:20.000Z</Time>
            <Position>
              <LatitudeDegrees>38.16492551006376743316650390625</LatitudeDegrees>
              <LongitudeDegrees>-6.283022649586200714111328125</LongitudeDegrees>
            </Position>
            <AltitudeMeters>506.79998779296875</AltitudeMeters>
            <DistanceMeters>NAN</DistanceMeters>
          </Trackpoint>
          <Trackpoint>
            <Time>2019-10-10T08:49:21.000Z</Time>
            <Position>
              <LatitudeDegrees>38.1648840196430683135986328125</LatitudeDegrees>
              <LongitudeDegrees>-6.28304712474346160888671875</LongitudeDegrees>
            </Position>
            <AltitudeMeters>507</AltitudeMeters>
            <DistanceMeters>NAN</DistanceMeters>
          </Trackpoint>
          <Trackpoint>
            <Time>2019-10-10T08:49:23.000Z</Time>
            <Position>
              <LatitudeDegrees>38.1648022122681140899658203125</LatitudeDegrees>
              <LongitudeDegrees>-6.2830965779721736907958984375</LongitudeDegrees>
            </Position>
            <AltitudeMeters>507.20001220703125</AltitudeMeters>
            <DistanceMeters>NAN</DistanceMeters>
          </Trackpoint>
          <Trackpoint>
            <Time>2019-10-10T08:49:35.000Z</Time>
            <Position>
              <LatitudeDegrees>38.164297454059123992919921875</LatitudeDegrees>
              <LongitudeDegrees>-6.28340385854244232177734375</LongitudeDegrees>
            </Position>
            <AltitudeMeters>507.399993896484375</AltitudeMeters>
            <DistanceMeters>NAN</DistanceMeters>
          </Trackpoint>
          <Trackpoint>
            <Time>2019-10-10T08:49:37.000Z</Time>
            <Position>
              <LatitudeDegrees>38.16420936025679111480712890625</LatitudeDegrees>
              <LongitudeDegrees>-6.2834608554840087890625</LongitudeDegrees>
            </Position>
            <AltitudeMeters>507.600006103515625</AltitudeMeters>
            <DistanceMeters>NAN</DistanceMeters>
          </Trackpoint>
          <Trackpoint>
            <Time>2019-10-10T08:49:47.000Z</Time>
            <Position>
              <LatitudeDegrees>38.1637667119503021240234375</LatitudeDegrees>
              <LongitudeDegrees>-6.28372781910002231597900390625</LongitudeDegrees>
            </Position>
            <AltitudeMeters>508.399993896484375</AltitudeMeters>
            <DistanceMeters>NAN</DistanceMeters>
          </Trackpoint>
          <Trackpoint>
            <Time>2019-10-10T08:49:49.000Z</Time>
            <Position>
              <LatitudeDegrees>38.16368130035698413848876953125</LatitudeDegrees>
              <LongitudeDegrees>-6.2837795354425907135009765625</LongitudeDegrees>
            </Position>
            <AltitudeMeters>508.20001220703125</AltitudeMeters>
            <DistanceMeters>NAN</DistanceMeters>
          </Trackpoint>
          <Trackpoint>
            <Time>2019-10-10T08:49:55.000Z</Time>
            <Position>
              <LatitudeDegrees>38.16345431841909885406494140625</LatitudeDegrees>
              <LongitudeDegrees>-6.2839193455874919891357421875</LongitudeDegrees>
            </Position>
            <AltitudeMeters>509.600006103515625</AltitudeMeters>
            <DistanceMeters>NAN</DistanceMeters>
          </Trackpoint>
          <Trackpoint>
            <Time>2019-10-10T08:49:57.000Z</Time>
            <Position>
              <LatitudeDegrees>38.16338307224214076995849609375</LatitudeDegrees>
              <LongitudeDegrees>-6.28396033309400081634521484375</LongitudeDegrees>
            </Position>
            <AltitudeMeters>510</AltitudeMeters>
            <DistanceMeters>NAN</DistanceMeters>
          </Trackpoint>
          <Trackpoint>
            <Time>2019-10-10T08:50:00.000Z</Time>
            <Position>
              <LatitudeDegrees>38.16328114829957485198974609375</LatitudeDegrees>
              <LongitudeDegrees>-6.2840195931494235992431640625</LongitudeDegrees>
            </Position>
            <AltitudeMeters>510.399993896484375</AltitudeMeters>
            <DistanceMeters>NAN</DistanceMeters>
          </Trackpoint>
          <Trackpoint>
            <Time>2019-10-10T08:50:01.000Z</Time>
            <Position>
              <LatitudeDegrees>38.16325013525784015655517578125</LatitudeDegrees>
              <LongitudeDegrees>-6.2840335071086883544921875</LongitudeDegrees>
            </Position>
            <AltitudeMeters>510.600006103515625</AltitudeMeters>
            <DistanceMeters>NAN</DistanceMeters>
          </Trackpoint>
          <Trackpoint>
            <Time>2019-10-10T08:50:04.000Z</Time>
            <Position>
              <LatitudeDegrees>38.16315508447587490081787109375</LatitudeDegrees>
              <LongitudeDegrees>-6.28408974967896938323974609375</LongitudeDegrees>
            </Position>
            <AltitudeMeters>511.20001220703125</AltitudeMeters>
            <DistanceMeters>NAN</DistanceMeters>
          </Trackpoint>
          <Trackpoint>
            <Time>2019-10-10T08:50:08.000Z</Time>
            <Position>
              <LatitudeDegrees>38.16303153522312641143798828125</LatitudeDegrees>
              <LongitudeDegrees>-6.28416535444557666778564453125</LongitudeDegrees>
            </Position>
            <AltitudeMeters>511.600006103515625</AltitudeMeters>
            <DistanceMeters>NAN</DistanceMeters>
          </Trackpoint>
          <Trackpoint>
            <Time>2019-10-10T08:50:12.000Z</Time>
            <Position>
              <LatitudeDegrees>38.16291284747421741485595703125</LatitudeDegrees>
              <LongitudeDegrees>-6.28423609770834445953369140625</LongitudeDegrees>
            </Position>
            <AltitudeMeters>512</AltitudeMeters>
            <DistanceMeters>NAN</DistanceMeters>
          </Trackpoint>
          <Trackpoint>
            <Time>2019-10-10T08:50:16.000Z</Time>
            <Position>
              <LatitudeDegrees>38.16279617138206958770751953125</LatitudeDegrees>
              <LongitudeDegrees>-6.2843049131333827972412109375</LongitudeDegrees>
            </Position>
            <AltitudeMeters>512.79998779296875</AltitudeMeters>
            <DistanceMeters>NAN</DistanceMeters>
          </Trackpoint>
          <Trackpoint>
            <Time>2019-10-10T08:50:20.000Z</Time>
            <Position>
              <LatitudeDegrees>38.16268234513700008392333984375</LatitudeDegrees>
              <LongitudeDegrees>-6.284377165138721466064453125</LongitudeDegrees>
            </Position>
            <AltitudeMeters>513.5999755859375</AltitudeMeters>
            <DistanceMeters>NAN</DistanceMeters>
          </Trackpoint>
          <Trackpoint>
            <Time>2019-10-10T08:50:21.000Z</Time>
            <Position>
              <LatitudeDegrees>38.16265602596104145050048828125</LatitudeDegrees>
              <LongitudeDegrees>-6.28439753316342830657958984375</LongitudeDegrees>
            </Position>
            <AltitudeMeters>513.79998779296875</AltitudeMeters>
            <DistanceMeters>NAN</DistanceMeters>
          </Trackpoint>
          <Trackpoint>
            <Time>2019-10-10T08:50:22.000Z</Time>
            <Position>
              <LatitudeDegrees>38.1626292876899242401123046875</LatitudeDegrees>
              <LongitudeDegrees>-6.28441697917878627777099609375</LongitudeDegrees>
            </Position>
            <AltitudeMeters>514</AltitudeMeters>
            <DistanceMeters>NAN</DistanceMeters>
          </Trackpoint>
          <Trackpoint>
            <Time>2019-10-10T08:50:28.000Z</Time>
            <Position>
              <LatitudeDegrees>38.1624606437981128692626953125</LatitudeDegrees>
              <LongitudeDegrees>-6.2845305539667606353759765625</LongitudeDegrees>
            </Position>
            <AltitudeMeters>515.20001220703125</AltitudeMeters>
            <DistanceMeters>NAN</DistanceMeters>
          </Trackpoint>
          <Trackpoint>
            <Time>2019-10-10T08:50:31.000Z</Time>
            <Position>
              <LatitudeDegrees>38.16237422637641429901123046875</LatitudeDegrees>
              <LongitudeDegrees>-6.28458746708929538726806640625</LongitudeDegrees>
            </Position>
            <AltitudeMeters>515.20001220703125</AltitudeMeters>
            <DistanceMeters>NAN</DistanceMeters>
          </Trackpoint>
          <Trackpoint>
            <Time>2019-10-10T08:50:38.000Z</Time>
            <Position>
              <LatitudeDegrees>38.16217725165188312530517578125</LatitudeDegrees>
              <LongitudeDegrees>-6.28471956588327884674072265625</LongitudeDegrees>
            </Position>
            <AltitudeMeters>516.4000244140625</AltitudeMeters>
            <DistanceMeters>NAN</DistanceMeters>
          </Trackpoint>
          <Trackpoint>
            <Time>2019-10-10T08:50:41.000Z</Time>
            <Position>
              <LatitudeDegrees>38.162091672420501708984375</LatitudeDegrees>
              <LongitudeDegrees>-6.28478175960481166839599609375</LongitudeDegrees>
            </Position>
            <AltitudeMeters>517</AltitudeMeters>
            <DistanceMeters>NAN</DistanceMeters>
          </Trackpoint>
          <Trackpoint>
            <Time>2019-10-10T08:50:42.000Z</Time>
            <Position>
              <LatitudeDegrees>38.1620626710355281829833984375</LatitudeDegrees>
              <LongitudeDegrees>-6.28479869104921817779541015625</LongitudeDegrees>
            </Position>
            <AltitudeMeters>517.4000244140625</AltitudeMeters>
            <DistanceMeters>NAN</DistanceMeters>
          </Trackpoint>
          <Trackpoint>
            <Time>2019-10-10T08:50:49.000Z</Time>
            <Position>
              <LatitudeDegrees>38.16186896525323390960693359375</LatitudeDegrees>
              <LongitudeDegrees>-6.2849265150725841522216796875</LongitudeDegrees>
            </Position>
            <AltitudeMeters>517.5999755859375</AltitudeMeters>
            <DistanceMeters>NAN</DistanceMeters>
          </Trackpoint>
          <Trackpoint>
            <Time>2019-10-10T08:50:54.000Z</Time>
            <Position>
              <LatitudeDegrees>38.16173049621284008026123046875</LatitudeDegrees>
              <LongitudeDegrees>-6.28500656224787235260009765625</LongitudeDegrees>
            </Position>
            <AltitudeMeters>518.5999755859375</AltitudeMeters>
            <DistanceMeters>NAN</DistanceMeters>
          </Trackpoint>
          <Trackpoint>
            <Time>2019-10-10T08:51:00.000Z</Time>
            <Position>
              <LatitudeDegrees>38.16155732609331607818603515625</LatitudeDegrees>
              <LongitudeDegrees>-6.285108067095279693603515625</LongitudeDegrees>
            </Position>
            <AltitudeMeters>519.4000244140625</AltitudeMeters>
            <DistanceMeters>NAN</DistanceMeters>
          </Trackpoint>
          <Trackpoint>
            <Time>2019-10-10T08:51:05.000Z</Time>
            <Position>
              <LatitudeDegrees>38.1614139117300510406494140625</LatitudeDegrees>
              <LongitudeDegrees>-6.28518342040479183197021484375</LongitudeDegrees>
            </Position>
            <AltitudeMeters>520</AltitudeMeters>
            <DistanceMeters>NAN</DistanceMeters>
          </Trackpoint>
          <Trackpoint>
            <Time>2019-10-10T08:51:10.000Z</Time>
            <Position>
              <LatitudeDegrees>38.16127066500484943389892578125</LatitudeDegrees>
              <LongitudeDegrees>-6.28524511121213436126708984375</LongitudeDegrees>
            </Position>
            <AltitudeMeters>521.20001220703125</AltitudeMeters>
            <DistanceMeters>NAN</DistanceMeters>
          </Trackpoint>
          <Trackpoint>
            <Time>2019-10-10T08:51:11.000Z</Time>
            <Position>
              <LatitudeDegrees>38.16124199889600276947021484375</LatitudeDegrees>
              <LongitudeDegrees>-6.28525969572365283966064453125</LongitudeDegrees>
            </Position>
            <AltitudeMeters>521.20001220703125</AltitudeMeters>
            <DistanceMeters>NAN</DistanceMeters>
          </Trackpoint>
          <Trackpoint>
            <Time>2019-10-10T08:51:17.000Z</Time>
            <Position>
              <LatitudeDegrees>38.1610652245581150054931640625</LatitudeDegrees>
              <LongitudeDegrees>-6.2853563390672206878662109375</LongitudeDegrees>
            </Position>
            <AltitudeMeters>522.20001220703125</AltitudeMeters>
            <DistanceMeters>NAN</DistanceMeters>
          </Trackpoint>
          <Trackpoint>
            <Time>2019-10-10T08:51:20.000Z</Time>
            <Position>
              <LatitudeDegrees>38.1609740294516086578369140625</LatitudeDegrees>
              <LongitudeDegrees>-6.285405121743679046630859375</LongitudeDegrees>
            </Position>
            <AltitudeMeters>523</AltitudeMeters>
            <DistanceMeters>NAN</DistanceMeters>
          </Trackpoint>
          <Trackpoint>
            <Time>2019-10-10T08:51:24.000Z</Time>
            <Position>
              <LatitudeDegrees>38.1608529947698116302490234375</LatitudeDegrees>
              <LongitudeDegrees>-6.285471506416797637939453125</LongitudeDegrees>
            </Position>
            <AltitudeMeters>523.4000244140625</AltitudeMeters>
            <DistanceMeters>NAN</DistanceMeters>
          </Trackpoint>
          <Trackpoint>
            <Time>2019-10-10T08:51:29.000Z</Time>
            <Position>
              <LatitudeDegrees>38.1607024557888507843017578125</LatitudeDegrees>
              <LongitudeDegrees>-6.28554652445018291473388671875</LongitudeDegrees>
            </Position>
            <AltitudeMeters>523.4000244140625</AltitudeMeters>
            <DistanceMeters>NAN</DistanceMeters>
          </Trackpoint>
          <Trackpoint>
            <Time>2019-10-10T08:51:37.000Z</Time>
            <Position>
              <LatitudeDegrees>38.16045108251273632049560546875</LatitudeDegrees>
              <LongitudeDegrees>-6.2856495380401611328125</LongitudeDegrees>
            </Position>
            <AltitudeMeters>523.79998779296875</AltitudeMeters>
            <DistanceMeters>NAN</DistanceMeters>
          </Trackpoint>
          <Trackpoint>
            <Time>2019-10-10T08:51:45.000Z</Time>
            <Position>
              <LatitudeDegrees>38.16018705256283283233642578125</LatitudeDegrees>
              <LongitudeDegrees>-6.28574031405150890350341796875</LongitudeDegrees>
            </Position>
            <AltitudeMeters>524.4000244140625</AltitudeMeters>
            <DistanceMeters>NAN</DistanceMeters>
          </Trackpoint>
          <Trackpoint>
            <Time>2019-10-10T08:51:53.000Z</Time>
            <Position>
              <LatitudeDegrees>38.1599024869501590728759765625</LatitudeDegrees>
              <LongitudeDegrees>-6.28582094796001911163330078125</LongitudeDegrees>
            </Position>
            <AltitudeMeters>524.79998779296875</AltitudeMeters>
            <DistanceMeters>NAN</DistanceMeters>
          </Trackpoint>
          <Trackpoint>
            <Time>2019-10-10T08:51:58.000Z</Time>
            <Position>
              <LatitudeDegrees>38.159714229404926300048828125</LatitudeDegrees>
              <LongitudeDegrees>-6.285856068134307861328125</LongitudeDegrees>
            </Position>
            <AltitudeMeters>525</AltitudeMeters>
            <DistanceMeters>NAN</DistanceMeters>
          </Trackpoint>
          <Trackpoint>
            <Time>2019-10-10T08:52:01.000Z</Time>
            <Position>
              <LatitudeDegrees>38.1595985591411590576171875</LatitudeDegrees>
              <LongitudeDegrees>-6.285874843597412109375</LongitudeDegrees>
            </Position>
            <AltitudeMeters>524.79998779296875</AltitudeMeters>
            <DistanceMeters>NAN</DistanceMeters>
          </Trackpoint>
          <Trackpoint>
            <Time>2019-10-10T08:52:10.000Z</Time>
            <Position>
              <LatitudeDegrees>38.15920469351112842559814453125</LatitudeDegrees>
              <LongitudeDegrees>-6.28590242005884647369384765625</LongitudeDegrees>
            </Position>
            <AltitudeMeters>525</AltitudeMeters>
            <DistanceMeters>NAN</DistanceMeters>
          </Trackpoint>
          <Trackpoint>
            <Time>2019-10-10T08:52:14.000Z</Time>
            <Position>
              <LatitudeDegrees>38.1590126641094684600830078125</LatitudeDegrees>
              <LongitudeDegrees>-6.285903342068195343017578125</LongitudeDegrees>
            </Position>
            <AltitudeMeters>524</AltitudeMeters>
            <DistanceMeters>NAN</DistanceMeters>
          </Trackpoint>
          <Trackpoint>
            <Time>2019-10-10T08:52:17.000Z</Time>
            <Position>
              <LatitudeDegrees>38.15885919146239757537841796875</LatitudeDegrees>
              <LongitudeDegrees>-6.2858941219747066497802734375</LongitudeDegrees>
            </Position>
            <AltitudeMeters>523.5999755859375</AltitudeMeters>
            <DistanceMeters>NAN</DistanceMeters>
          </Trackpoint>
          <Trackpoint>
            <Time>2019-10-10T08:52:18.000Z</Time>
            <Position>
              <LatitudeDegrees>38.158804960548877716064453125</LatitudeDegrees>
              <LongitudeDegrees>-6.2858914397656917572021484375</LongitudeDegrees>
            </Position>
            <AltitudeMeters>523</AltitudeMeters>
            <DistanceMeters>NAN</DistanceMeters>
          </Trackpoint>
          <Trackpoint>
            <Time>2019-10-10T08:52:23.000Z</Time>
            <Position>
              <LatitudeDegrees>38.158522658050060272216796875</LatitudeDegrees>
              <LongitudeDegrees>-6.28586319275200366973876953125</LongitudeDegrees>
            </Position>
            <AltitudeMeters>521.79998779296875</AltitudeMeters>
            <DistanceMeters>NAN</DistanceMeters>
          </Trackpoint>
          <Trackpoint>
            <Time>2019-10-10T08:52:25.000Z</Time>
            <Position>
              <LatitudeDegrees>38.1584095023572444915771484375</LatitudeDegrees>
              <LongitudeDegrees>-6.285849027335643768310546875</LongitudeDegrees>
            </Position>
            <AltitudeMeters>521.4000244140625</AltitudeMeters>
            <DistanceMeters>NAN</DistanceMeters>
          </Trackpoint>
          <Trackpoint>
            <Time>2019-10-10T08:52:29.000Z</Time>
            <Position>
              <LatitudeDegrees>38.15817237831652164459228515625</LatitudeDegrees>
              <LongitudeDegrees>-6.2858136557042598724365234375</LongitudeDegrees>
            </Position>
            <AltitudeMeters>520.79998779296875</AltitudeMeters>
            <DistanceMeters>NAN</DistanceMeters>
          </Trackpoint>
          <Trackpoint>
            <Time>2019-10-10T08:52:32.000Z</Time>
            <Position>
              <LatitudeDegrees>38.15798495896160602569580078125</LatitudeDegrees>
              <LongitudeDegrees>-6.2857821397483348846435546875</LongitudeDegrees>
            </Position>
            <AltitudeMeters>519.5999755859375</AltitudeMeters>
            <DistanceMeters>NAN</DistanceMeters>
          </Trackpoint>
          <Trackpoint>
            <Time>2019-10-10T08:52:34.000Z</Time>
            <Position>
              <LatitudeDegrees>38.1578539498150348663330078125</LatitudeDegrees>
              <LongitudeDegrees>-6.28575892187654972076416015625</LongitudeDegrees>
            </Position>
            <AltitudeMeters>519</AltitudeMeters>
            <DistanceMeters>NAN</DistanceMeters>
          </Trackpoint>
          <Trackpoint>
            <Time>2019-10-10T08:52:35.000Z</Time>
            <Position>
              <LatitudeDegrees>38.15778605639934539794921875</LatitudeDegrees>
              <LongitudeDegrees>-6.28574651665985584259033203125</LongitudeDegrees>
            </Position>
            <AltitudeMeters>518.4000244140625</AltitudeMeters>
            <DistanceMeters>NAN</DistanceMeters>
          </Trackpoint>
          <Trackpoint>
            <Time>2019-10-10T08:52:37.000Z</Time>
            <Position>
              <LatitudeDegrees>38.15764750353991985321044921875</LatitudeDegrees>
              <LongitudeDegrees>-6.28572237677872180938720703125</LongitudeDegrees>
            </Position>
            <AltitudeMeters>517.20001220703125</AltitudeMeters>
            <DistanceMeters>NAN</DistanceMeters>
          </Trackpoint>
          <Trackpoint>
            <Time>2019-10-10T08:52:40.000Z</Time>
            <Position>
              <LatitudeDegrees>38.15744130872189998626708984375</LatitudeDegrees>
              <LongitudeDegrees>-6.28568616695702075958251953125</LongitudeDegrees>
            </Position>
            <AltitudeMeters>516.20001220703125</AltitudeMeters>
            <DistanceMeters>NAN</DistanceMeters>
          </Trackpoint>
          <Trackpoint>
            <Time>2019-10-10T08:52:43.000Z</Time>
            <Position>
              <LatitudeDegrees>38.1572370417416095733642578125</LatitudeDegrees>
              <LongitudeDegrees>-6.28564744256436824798583984375</LongitudeDegrees>
            </Position>
            <AltitudeMeters>515.4000244140625</AltitudeMeters>
            <DistanceMeters>NAN</DistanceMeters>
          </Trackpoint>
          <Trackpoint>
            <Time>2019-10-10T08:52:45.000Z</Time>
            <Position>
              <LatitudeDegrees>38.1570989079773426055908203125</LatitudeDegrees>
              <LongitudeDegrees>-6.28562212921679019927978515625</LongitudeDegrees>
            </Position>
            <AltitudeMeters>514.79998779296875</AltitudeMeters>
            <DistanceMeters>NAN</DistanceMeters>
          </Trackpoint>
          <Trackpoint>
            <Time>2019-10-10T08:52:50.000Z</Time>
            <Position>
              <LatitudeDegrees>38.1567599438130855560302734375</LatitudeDegrees>
              <LongitudeDegrees>-6.28555909730494022369384765625</LongitudeDegrees>
            </Position>
            <AltitudeMeters>514</AltitudeMeters>
            <DistanceMeters>NAN</DistanceMeters>
          </Trackpoint>
          <Trackpoint>
            <Time>2019-10-10T08:52:52.000Z</Time>
            <Position>
              <LatitudeDegrees>38.15662792883813381195068359375</LatitudeDegrees>
              <LongitudeDegrees>-6.28553646616637706756591796875</LongitudeDegrees>
            </Position>
            <AltitudeMeters>513.79998779296875</AltitudeMeters>
            <DistanceMeters>NAN</DistanceMeters>
          </Trackpoint>
          <Trackpoint>
            <Time>2019-10-10T08:52:53.000Z</Time>
            <Position>
              <LatitudeDegrees>38.1565641425549983978271484375</LatitudeDegrees>
              <LongitudeDegrees>-6.28552674315869808197021484375</LongitudeDegrees>
            </Position>
            <AltitudeMeters>513.79998779296875</AltitudeMeters>
            <DistanceMeters>NAN</DistanceMeters>
          </Trackpoint>
          <Trackpoint>
            <Time>2019-10-10T08:52:59.000Z</Time>
            <Position>
              <LatitudeDegrees>38.15622643567621707916259765625</LatitudeDegrees>
              <LongitudeDegrees>-6.285443343222141265869140625</LongitudeDegrees>
            </Position>
            <AltitudeMeters>514</AltitudeMeters>
            <DistanceMeters>NAN</DistanceMeters>
          </Trackpoint>
          <Trackpoint>
            <Time>2019-10-10T08:53:02.000Z</Time>
            <Position>
              <LatitudeDegrees>38.15606231801211833953857421875</LatitudeDegrees>
              <LongitudeDegrees>-6.285395734012126922607421875</LongitudeDegrees>
            </Position>
            <AltitudeMeters>513.79998779296875</AltitudeMeters>
            <DistanceMeters>NAN</DistanceMeters>
          </Trackpoint>
          <Trackpoint>
            <Time>2019-10-10T08:53:08.000Z</Time>
            <Position>
              <LatitudeDegrees>38.15574145875871181488037109375</LatitudeDegrees>
              <LongitudeDegrees>-6.28528383560478687286376953125</LongitudeDegrees>
            </Position>
            <AltitudeMeters>514</AltitudeMeters>
            <DistanceMeters>NAN</DistanceMeters>
          </Trackpoint>
          <Trackpoint>
            <Time>2019-10-10T08:53:13.000Z</Time>
            <Position>
              <LatitudeDegrees>38.1554939411580562591552734375</LatitudeDegrees>
              <LongitudeDegrees>-6.2851910479366779327392578125</LongitudeDegrees>
            </Position>
            <AltitudeMeters>514.79998779296875</AltitudeMeters>
            <DistanceMeters>NAN</DistanceMeters>
          </Trackpoint>
          <Trackpoint>
            <Time>2019-10-10T08:53:17.000Z</Time>
            <Position>
              <LatitudeDegrees>38.15530501306056976318359375</LatitudeDegrees>
              <LongitudeDegrees>-6.28512290306389331817626953125</LongitudeDegrees>
            </Position>
            <AltitudeMeters>515.20001220703125</AltitudeMeters>
            <DistanceMeters>NAN</DistanceMeters>
          </Trackpoint>
          <Trackpoint>
            <Time>2019-10-10T08:53:22.000Z</Time>
            <Position>
              <LatitudeDegrees>38.15507727675139904022216796875</LatitudeDegrees>
              <LongitudeDegrees>-6.28502969630062580108642578125</LongitudeDegrees>
            </Position>
            <AltitudeMeters>515.79998779296875</AltitudeMeters>
            <DistanceMeters>NAN</DistanceMeters>
          </Trackpoint>
          <Trackpoint>
            <Time>2019-10-10T08:53:26.000Z</Time>
            <Position>
              <LatitudeDegrees>38.15489731729030609130859375</LatitudeDegrees>
              <LongitudeDegrees>-6.284963227808475494384765625</LongitudeDegrees>
            </Position>
            <AltitudeMeters>516.20001220703125</AltitudeMeters>
            <DistanceMeters>NAN</DistanceMeters>
          </Trackpoint>
          <Trackpoint>
            <Time>2019-10-10T08:53:28.000Z</Time>
            <Position>
              <LatitudeDegrees>38.1548109836876392364501953125</LatitudeDegrees>
              <LongitudeDegrees>-6.28492676652967929840087890625</LongitudeDegrees>
            </Position>
            <AltitudeMeters>516</AltitudeMeters>
            <DistanceMeters>NAN</DistanceMeters>
          </Trackpoint>
          <Trackpoint>
            <Time>2019-10-10T08:53:31.000Z</Time>
            <Position>
              <LatitudeDegrees>38.15467871725559234619140625</LatitudeDegrees>
              <LongitudeDegrees>-6.28488150425255298614501953125</LongitudeDegrees>
            </Position>
            <AltitudeMeters>517</AltitudeMeters>
            <DistanceMeters>NAN</DistanceMeters>
          </Trackpoint>
          <Trackpoint>
            <Time>2019-10-10T08:53:37.000Z</Time>
            <Position>
              <LatitudeDegrees>38.154422901570796966552734375</LatitudeDegrees>
              <LongitudeDegrees>-6.2847860343754291534423828125</LongitudeDegrees>
            </Position>
            <AltitudeMeters>516.5999755859375</AltitudeMeters>
            <DistanceMeters>NAN</DistanceMeters>
          </Trackpoint>
          <Trackpoint>
            <Time>2019-10-10T08:53:43.000Z</Time>
            <Position>
              <LatitudeDegrees>38.15416012890636920928955078125</LatitudeDegrees>
              <LongitudeDegrees>-6.2846924923360347747802734375</LongitudeDegrees>
            </Position>
            <AltitudeMeters>517.20001220703125</AltitudeMeters>
            <DistanceMeters>NAN</DistanceMeters>
          </Trackpoint>
          <Trackpoint>
            <Time>2019-10-10T08:53:44.000Z</Time>
            <Position>
              <LatitudeDegrees>38.15411888994276523590087890625</LatitudeDegrees>
              <LongitudeDegrees>-6.28467564471065998077392578125</LongitudeDegrees>
            </Position>
            <AltitudeMeters>517.4000244140625</AltitudeMeters>
            <DistanceMeters>NAN</DistanceMeters>
          </Trackpoint>
          <Trackpoint>
            <Time>2019-10-10T08:53:49.000Z</Time>
            <Position>
              <LatitudeDegrees>38.15391428768634796142578125</LatitudeDegrees>
              <LongitudeDegrees>-6.2845935858786106109619140625</LongitudeDegrees>
            </Position>
            <AltitudeMeters>517</AltitudeMeters>
            <DistanceMeters>NAN</DistanceMeters>
          </Trackpoint>
          <Trackpoint>
            <Time>2019-10-10T08:53:55.000Z</Time>
            <Position>
              <LatitudeDegrees>38.15367422997951507568359375</LatitudeDegrees>
              <LongitudeDegrees>-6.28448487259447574615478515625</LongitudeDegrees>
            </Position>
            <AltitudeMeters>517.5999755859375</AltitudeMeters>
            <DistanceMeters>NAN</DistanceMeters>
          </Trackpoint>
          <Trackpoint>
            <Time>2019-10-10T08:54:04.000Z</Time>
            <Position>
              <LatitudeDegrees>38.1533200107514858245849609375</LatitudeDegrees>
              <LongitudeDegrees>-6.28426426090300083160400390625</LongitudeDegrees>
            </Position>
            <AltitudeMeters>516.5999755859375</AltitudeMeters>
            <DistanceMeters>NAN</DistanceMeters>
          </Trackpoint>
          <Trackpoint>
            <Time>2019-10-10T08:54:08.000Z</Time>
            <Position>
              <LatitudeDegrees>38.153159916400909423828125</LatitudeDegrees>
              <LongitudeDegrees>-6.284135766327381134033203125</LongitudeDegrees>
            </Position>
            <AltitudeMeters>515.79998779296875</AltitudeMeters>
            <DistanceMeters>NAN</DistanceMeters>
          </Trackpoint>
          <Trackpoint>
            <Time>2019-10-10T08:54:12.000Z</Time>
            <Position>
              <LatitudeDegrees>38.15298280678689479827880859375</LatitudeDegrees>
              <LongitudeDegrees>-6.2839904241263866424560546875</LongitudeDegrees>
            </Position>
            <AltitudeMeters>515.4000244140625</AltitudeMeters>
            <DistanceMeters>NAN</DistanceMeters>
          </Trackpoint>
          <Trackpoint>
            <Time>2019-10-10T08:54:15.000Z</Time>
            <Position>
              <LatitudeDegrees>38.15283830277621746063232421875</LatitudeDegrees>
              <LongitudeDegrees>-6.2838690541684627532958984375</LongitudeDegrees>
            </Position>
            <AltitudeMeters>514.5999755859375</AltitudeMeters>
            <DistanceMeters>NAN</DistanceMeters>
          </Trackpoint>
          <Trackpoint>
            <Time>2019-10-10T08:54:17.000Z</Time>
            <Position>
              <LatitudeDegrees>38.15273805521428585052490234375</LatitudeDegrees>
              <LongitudeDegrees>-6.2837813794612884521484375</LongitudeDegrees>
            </Position>
            <AltitudeMeters>513.20001220703125</AltitudeMeters>
            <DistanceMeters>NAN</DistanceMeters>
          </Trackpoint>
          <Trackpoint>
            <Time>2019-10-10T08:54:19.000Z</Time>
            <Position>
              <LatitudeDegrees>38.152633868157863616943359375</LatitudeDegrees>
              <LongitudeDegrees>-6.28369160927832126617431640625</LongitudeDegrees>
            </Position>
            <AltitudeMeters>512.4000244140625</AltitudeMeters>
            <DistanceMeters>NAN</DistanceMeters>
          </Trackpoint>
          <Trackpoint>
            <Time>2019-10-10T08:54:20.000Z</Time>
            <Position>
              <LatitudeDegrees>38.1525813974440097808837890625</LatitudeDegrees>
              <LongitudeDegrees>-6.2836445868015289306640625</LongitudeDegrees>
            </Position>
            <AltitudeMeters>512</AltitudeMeters>
            <DistanceMeters>NAN</DistanceMeters>
          </Trackpoint>
          <Trackpoint>
            <Time>2019-10-10T08:54:22.000Z</Time>
            <Position>
              <LatitudeDegrees>38.1524746119976043701171875</LatitudeDegrees>
              <LongitudeDegrees>-6.2835512124001979827880859375</LongitudeDegrees>
            </Position>
            <AltitudeMeters>510.79998779296875</AltitudeMeters>
            <DistanceMeters>NAN</DistanceMeters>
          </Trackpoint>
          <Trackpoint>
            <Time>2019-10-10T08:54:24.000Z</Time>
            <Position>
              <LatitudeDegrees>38.15236573107540607452392578125</LatitudeDegrees>
              <LongitudeDegrees>-6.283457167446613311767578125</LongitudeDegrees>
            </Position>
            <AltitudeMeters>510.600006103515625</AltitudeMeters>
            <DistanceMeters>NAN</DistanceMeters>
          </Trackpoint>
          <Trackpoint>
            <Time>2019-10-10T08:54:28.000Z</Time>
            <Position>
              <LatitudeDegrees>38.1521447002887725830078125</LatitudeDegrees>
              <LongitudeDegrees>-6.2832665629684925079345703125</LongitudeDegrees>
            </Position>
            <AltitudeMeters>510.399993896484375</AltitudeMeters>
            <DistanceMeters>NAN</DistanceMeters>
          </Trackpoint>
          <Trackpoint>
            <Time>2019-10-10T08:54:31.000Z</Time>
            <Position>
              <LatitudeDegrees>38.15198175609111785888671875</LatitudeDegrees>
              <LongitudeDegrees>-6.28312490880489349365234375</LongitudeDegrees>
            </Position>
            <AltitudeMeters>509.399993896484375</AltitudeMeters>
            <DistanceMeters>NAN</DistanceMeters>
          </Trackpoint>
          <Trackpoint>
            <Time>2019-10-10T08:54:37.000Z</Time>
            <Position>
              <LatitudeDegrees>38.15166215412318706512451171875</LatitudeDegrees>
              <LongitudeDegrees>-6.282848976552486419677734375</LongitudeDegrees>
            </Position>
            <AltitudeMeters>508.20001220703125</AltitudeMeters>
            <DistanceMeters>NAN</DistanceMeters>
          </Trackpoint>
          <Trackpoint>
            <Time>2019-10-10T08:54:40.000Z</Time>
            <Position>
              <LatitudeDegrees>38.15151027403771877288818359375</LatitudeDegrees>
              <LongitudeDegrees>-6.28271930851042270660400390625</LongitudeDegrees>
            </Position>
            <AltitudeMeters>508.79998779296875</AltitudeMeters>
            <DistanceMeters>NAN</DistanceMeters>
          </Trackpoint>
          <Trackpoint>
            <Time>2019-10-10T08:54:42.000Z</Time>
            <Position>
              <LatitudeDegrees>38.15141002647578716278076171875</LatitudeDegrees>
              <LongitudeDegrees>-6.2826345674693584442138671875</LongitudeDegrees>
            </Position>
            <AltitudeMeters>509.399993896484375</AltitudeMeters>
            <DistanceMeters>NAN</DistanceMeters>
          </Trackpoint>
          <Trackpoint>
            <Time>2019-10-10T08:54:50.000Z</Time>
            <Position>
              <LatitudeDegrees>38.15101079642772674560546875</LatitudeDegrees>
              <LongitudeDegrees>-6.28228797577321529388427734375</LongitudeDegrees>
            </Position>
            <AltitudeMeters>508.79998779296875</AltitudeMeters>
            <DistanceMeters>NAN</DistanceMeters>
          </Trackpoint>
          <Trackpoint>
            <Time>2019-10-10T08:54:54.000Z</Time>
            <Position>
              <LatitudeDegrees>38.15081172622740268707275390625</LatitudeDegrees>
              <LongitudeDegrees>-6.28211966715753078460693359375</LongitudeDegrees>
            </Position>
            <AltitudeMeters>507.600006103515625</AltitudeMeters>
            <DistanceMeters>NAN</DistanceMeters>
          </Trackpoint>
          <Trackpoint>
            <Time>2019-10-10T08:54:59.000Z</Time>
            <Position>
              <LatitudeDegrees>38.1505680643022060394287109375</LatitudeDegrees>
              <LongitudeDegrees>-6.28191280178725719451904296875</LongitudeDegrees>
            </Position>
            <AltitudeMeters>507.79998779296875</AltitudeMeters>
            <DistanceMeters>NAN</DistanceMeters>
          </Trackpoint>
          <Trackpoint>
            <Time>2019-10-10T08:55:07.000Z</Time>
            <Position>
              <LatitudeDegrees>38.15018375404179096221923828125</LatitudeDegrees>
              <LongitudeDegrees>-6.2815814651548862457275390625</LongitudeDegrees>
            </Position>
            <AltitudeMeters>507.20001220703125</AltitudeMeters>
            <DistanceMeters>NAN</DistanceMeters>
          </Trackpoint>
          <Trackpoint>
            <Time>2019-10-10T08:55:10.000Z</Time>
            <Position>
              <LatitudeDegrees>38.15003774128854274749755859375</LatitudeDegrees>
              <LongitudeDegrees>-6.2814567424356937408447265625</LongitudeDegrees>
            </Position>
            <AltitudeMeters>507.20001220703125</AltitudeMeters>
            <DistanceMeters>NAN</DistanceMeters>
          </Trackpoint>
          <Trackpoint>
            <Time>2019-10-10T08:55:16.000Z</Time>
            <Position>
              <LatitudeDegrees>38.14974621869623661041259765625</LatitudeDegrees>
              <LongitudeDegrees>-6.2811982445418834686279296875</LongitudeDegrees>
            </Position>
            <AltitudeMeters>506.20001220703125</AltitudeMeters>
            <DistanceMeters>NAN</DistanceMeters>
          </Trackpoint>
          <Trackpoint>
            <Time>2019-10-10T08:55:21.000Z</Time>
            <Position>
              <LatitudeDegrees>38.1494961865246295928955078125</LatitudeDegrees>
              <LongitudeDegrees>-6.2809880264103412628173828125</LongitudeDegrees>
            </Position>
            <AltitudeMeters>505.600006103515625</AltitudeMeters>
            <DistanceMeters>NAN</DistanceMeters>
          </Trackpoint>
          <Trackpoint>
            <Time>2019-10-10T08:55:27.000Z</Time>
            <Position>
              <LatitudeDegrees>38.14919921569526195526123046875</LatitudeDegrees>
              <LongitudeDegrees>-6.28072977997362613677978515625</LongitudeDegrees>
            </Position>
            <AltitudeMeters>504.79998779296875</AltitudeMeters>
            <DistanceMeters>NAN</DistanceMeters>
          </Trackpoint>
          <Trackpoint>
            <Time>2019-10-10T08:55:29.000Z</Time>
            <Position>
              <LatitudeDegrees>38.14910508692264556884765625</LatitudeDegrees>
              <LongitudeDegrees>-6.28065015189349651336669921875</LongitudeDegrees>
            </Position>
            <AltitudeMeters>505</AltitudeMeters>
            <DistanceMeters>NAN</DistanceMeters>
          </Trackpoint>
          <Trackpoint>
            <Time>2019-10-10T08:55:38.000Z</Time>
            <Position>
              <LatitudeDegrees>38.14870099537074565887451171875</LatitudeDegrees>
              <LongitudeDegrees>-6.28030993044376373291015625</LongitudeDegrees>
            </Position>
            <AltitudeMeters>505.79998779296875</AltitudeMeters>
            <DistanceMeters>NAN</DistanceMeters>
          </Trackpoint>
          <Trackpoint>
            <Time>2019-10-10T08:55:40.000Z</Time>
            <Position>
              <LatitudeDegrees>38.14862069673836231231689453125</LatitudeDegrees>
              <LongitudeDegrees>-6.2802400253713130950927734375</LongitudeDegrees>
            </Position>
            <AltitudeMeters>506</AltitudeMeters>
            <DistanceMeters>NAN</DistanceMeters>
          </Trackpoint>
          <Trackpoint>
            <Time>2019-10-10T08:55:46.000Z</Time>
            <Position>
              <LatitudeDegrees>38.14838851802051067352294921875</LatitudeDegrees>
              <LongitudeDegrees>-6.28003508783876895904541015625</LongitudeDegrees>
            </Position>
            <AltitudeMeters>507</AltitudeMeters>
            <DistanceMeters>NAN</DistanceMeters>
          </Trackpoint>
          <Trackpoint>
            <Time>2019-10-10T08:55:48.000Z</Time>
            <Position>
              <LatitudeDegrees>38.1483113206923007965087890625</LatitudeDegrees>
              <LongitudeDegrees>-6.27997205592691898345947265625</LongitudeDegrees>
            </Position>
            <AltitudeMeters>507</AltitudeMeters>
            <DistanceMeters>NAN</DistanceMeters>
          </Trackpoint>
          <Trackpoint>
            <Time>2019-10-10T08:55:57.000Z</Time>
            <Position>
              <LatitudeDegrees>38.14797093160450458526611328125</LatitudeDegrees>
              <LongitudeDegrees>-6.27970919944345951080322265625</LongitudeDegrees>
            </Position>
            <AltitudeMeters>507.600006103515625</AltitudeMeters>
            <DistanceMeters>NAN</DistanceMeters>
          </Trackpoint>
          <Trackpoint>
            <Time>2019-10-10T08:56:02.000Z</Time>
            <Position>
              <LatitudeDegrees>38.1477859430015087127685546875</LatitudeDegrees>
              <LongitudeDegrees>-6.279571317136287689208984375</LongitudeDegrees>
            </Position>
            <AltitudeMeters>508</AltitudeMeters>
            <DistanceMeters>NAN</DistanceMeters>
          </Trackpoint>
          <Trackpoint>
            <Time>2019-10-10T08:56:06.000Z</Time>
            <Position>
              <LatitudeDegrees>38.1476310454308986663818359375</LatitudeDegrees>
              <LongitudeDegrees>-6.279474757611751556396484375</LongitudeDegrees>
            </Position>
            <AltitudeMeters>508.399993896484375</AltitudeMeters>
            <DistanceMeters>NAN</DistanceMeters>
          </Trackpoint>
          <Trackpoint>
            <Time>2019-10-10T08:56:15.000Z</Time>
            <Position>
              <LatitudeDegrees>38.14727523364126682281494140625</LatitudeDegrees>
              <LongitudeDegrees>-6.279295720160007476806640625</LongitudeDegrees>
            </Position>
            <AltitudeMeters>508.600006103515625</AltitudeMeters>
            <DistanceMeters>NAN</DistanceMeters>
          </Trackpoint>
          <Trackpoint>
            <Time>2019-10-10T08:56:22.000Z</Time>
            <Position>
              <LatitudeDegrees>38.14698304049670696258544921875</LatitudeDegrees>
              <LongitudeDegrees>-6.2791875936090946197509765625</LongitudeDegrees>
            </Position>
            <AltitudeMeters>509.20001220703125</AltitudeMeters>
            <DistanceMeters>NAN</DistanceMeters>
          </Trackpoint>
          <Trackpoint>
            <Time>2019-10-10T08:56:23.000Z</Time>
            <Position>
              <LatitudeDegrees>38.14694129861891269683837890625</LatitudeDegrees>
              <LongitudeDegrees>-6.2791768647730350494384765625</LongitudeDegrees>
            </Position>
            <AltitudeMeters>509.20001220703125</AltitudeMeters>
            <DistanceMeters>NAN</DistanceMeters>
          </Trackpoint>
          <Trackpoint>
            <Time>2019-10-10T08:56:32.000Z</Time>
            <Position>
              <LatitudeDegrees>38.1465501151978969573974609375</LatitudeDegrees>
              <LongitudeDegrees>-6.27909698523581027984619140625</LongitudeDegrees>
            </Position>
            <AltitudeMeters>509.20001220703125</AltitudeMeters>
            <DistanceMeters>NAN</DistanceMeters>
          </Trackpoint>
          <Trackpoint>
            <Time>2019-10-10T08:56:41.000Z</Time>
            <Position>
              <LatitudeDegrees>38.14614635892212390899658203125</LatitudeDegrees>
              <LongitudeDegrees>-6.27910754643380641937255859375</LongitudeDegrees>
            </Position>
            <AltitudeMeters>510</AltitudeMeters>
            <DistanceMeters>NAN</DistanceMeters>
          </Trackpoint>
          <Trackpoint>
            <Time>2019-10-10T08:56:49.000Z</Time>
            <Position>
              <LatitudeDegrees>38.1457880325615406036376953125</LatitudeDegrees>
              <LongitudeDegrees>-6.279149539768695831298828125</LongitudeDegrees>
            </Position>
            <AltitudeMeters>509.600006103515625</AltitudeMeters>
            <DistanceMeters>NAN</DistanceMeters>
          </Trackpoint>
          <Trackpoint>
            <Time>2019-10-10T08:56:57.000Z</Time>
            <Position>
              <LatitudeDegrees>38.14545183442533016204833984375</LatitudeDegrees>
              <LongitudeDegrees>-6.279196478426456451416015625</LongitudeDegrees>
            </Position>
            <AltitudeMeters>510.20001220703125</AltitudeMeters>
            <DistanceMeters>NAN</DistanceMeters>
          </Trackpoint>
          <Trackpoint>
            <Time>2019-10-10T08:56:58.000Z</Time>
            <Position>
              <LatitudeDegrees>38.145411014556884765625</LatitudeDegrees>
              <LongitudeDegrees>-6.27920427359640598297119140625</LongitudeDegrees>
            </Position>
            <AltitudeMeters>510.20001220703125</AltitudeMeters>
            <DistanceMeters>NAN</DistanceMeters>
          </Trackpoint>
          <Trackpoint>
            <Time>2019-10-10T08:57:06.000Z</Time>
            <Position>
              <LatitudeDegrees>38.14511773176491260528564453125</LatitudeDegrees>
              <LongitudeDegrees>-6.27929982729256153106689453125</LongitudeDegrees>
            </Position>
            <AltitudeMeters>511.399993896484375</AltitudeMeters>
            <DistanceMeters>NAN</DistanceMeters>
          </Trackpoint>
          <Trackpoint>
            <Time>2019-10-10T08:57:07.000Z</Time>
            <Position>
              <LatitudeDegrees>38.14508889801800251007080078125</LatitudeDegrees>
              <LongitudeDegrees>-6.27931156195700168609619140625</LongitudeDegrees>
            </Position>
            <AltitudeMeters>511.399993896484375</AltitudeMeters>
            <DistanceMeters>NAN</DistanceMeters>
          </Trackpoint>
          <Trackpoint>
            <Time>2019-10-10T08:57:15.000Z</Time>
            <Position>
              <LatitudeDegrees>38.14486007206141948699951171875</LatitudeDegrees>
              <LongitudeDegrees>-6.2794249691069126129150390625</LongitudeDegrees>
            </Position>
            <AltitudeMeters>512</AltitudeMeters>
            <DistanceMeters>NAN</DistanceMeters>
          </Trackpoint>
          <Trackpoint>
            <Time>2019-10-10T08:57:16.000Z</Time>
            <Position>
              <LatitudeDegrees>38.144833333790302276611328125</LatitudeDegrees>
              <LongitudeDegrees>-6.27944064326584339141845703125</LongitudeDegrees>
            </Position>
            <AltitudeMeters>512.4000244140625</AltitudeMeters>
            <DistanceMeters>NAN</DistanceMeters>
          </Trackpoint>
          <Trackpoint>
            <Time>2019-10-10T08:57:23.000Z</Time>
            <Position>
              <LatitudeDegrees>38.1446547992527484893798828125</LatitudeDegrees>
              <LongitudeDegrees>-6.279542483389377593994140625</LongitudeDegrees>
            </Position>
            <AltitudeMeters>513.5999755859375</AltitudeMeters>
            <DistanceMeters>NAN</DistanceMeters>
          </Trackpoint>
          <Trackpoint>
            <Time>2019-10-10T08:57:25.000Z</Time>
            <Position>
              <LatitudeDegrees>38.144607357680797576904296875</LatitudeDegrees>
              <LongitudeDegrees>-6.27957676537334918975830078125</LongitudeDegrees>
            </Position>
            <AltitudeMeters>514.20001220703125</AltitudeMeters>
            <DistanceMeters>NAN</DistanceMeters>
          </Trackpoint>
          <Trackpoint>
            <Time>2019-10-10T08:57:30.000Z</Time>
            <Position>
              <LatitudeDegrees>38.14448456279933452606201171875</LatitudeDegrees>
              <LongitudeDegrees>-6.2796536274254322052001953125</LongitudeDegrees>
            </Position>
            <AltitudeMeters>515</AltitudeMeters>
            <DistanceMeters>NAN</DistanceMeters>
          </Trackpoint>
          <Trackpoint>
            <Time>2019-10-10T08:57:34.000Z</Time>
            <Position>
              <LatitudeDegrees>38.14438917674124240875244140625</LatitudeDegrees>
              <LongitudeDegrees>-6.2797200120985507965087890625</LongitudeDegrees>
            </Position>
            <AltitudeMeters>515.5999755859375</AltitudeMeters>
            <DistanceMeters>NAN</DistanceMeters>
          </Trackpoint>
          <Trackpoint>
            <Time>2019-10-10T08:57:38.000Z</Time>
            <Position>
              <LatitudeDegrees>38.14429261721670627593994140625</LatitudeDegrees>
              <LongitudeDegrees>-6.27979150973260402679443359375</LongitudeDegrees>
            </Position>
            <AltitudeMeters>516.20001220703125</AltitudeMeters>
            <DistanceMeters>NAN</DistanceMeters>
          </Trackpoint>
          <Trackpoint>
            <Time>2019-10-10T08:57:44.000Z</Time>
            <Position>
              <LatitudeDegrees>38.14415548928081989288330078125</LatitudeDegrees>
              <LongitudeDegrees>-6.27990491688251495361328125</LongitudeDegrees>
            </Position>
            <AltitudeMeters>517</AltitudeMeters>
            <DistanceMeters>NAN</DistanceMeters>
          </Trackpoint>
          <Trackpoint>
            <Time>2019-10-10T08:57:45.000Z</Time>
            <Position>
              <LatitudeDegrees>38.14413227140903472900390625</LatitudeDegrees>
              <LongitudeDegrees>-6.2799243628978729248046875</LongitudeDegrees>
            </Position>
            <AltitudeMeters>517.20001220703125</AltitudeMeters>
            <DistanceMeters>NAN</DistanceMeters>
          </Trackpoint>
          <Trackpoint>
            <Time>2019-10-10T08:57:48.000Z</Time>
            <Position>
              <LatitudeDegrees>38.14406462945044040679931640625</LatitudeDegrees>
              <LongitudeDegrees>-6.27998596988618373870849609375</LongitudeDegrees>
            </Position>
            <AltitudeMeters>518.4000244140625</AltitudeMeters>
            <DistanceMeters>NAN</DistanceMeters>
          </Trackpoint>
          <Trackpoint>
            <Time>2019-10-10T08:57:55.000Z</Time>
            <Position>
              <LatitudeDegrees>38.14391291700303554534912109375</LatitudeDegrees>
              <LongitudeDegrees>-6.28013818524777889251708984375</LongitudeDegrees>
            </Position>
            <AltitudeMeters>519</AltitudeMeters>
            <DistanceMeters>NAN</DistanceMeters>
          </Trackpoint>
          <Trackpoint>
            <Time>2019-10-10T08:57:57.000Z</Time>
            <Position>
              <LatitudeDegrees>38.14386983402073383331298828125</LatitudeDegrees>
              <LongitudeDegrees>-6.2801826931536197662353515625</LongitudeDegrees>
            </Position>
            <AltitudeMeters>519.5999755859375</AltitudeMeters>
            <DistanceMeters>NAN</DistanceMeters>
          </Trackpoint>
          <Trackpoint>
            <Time>2019-10-10T08:58:04.000Z</Time>
            <Position>
              <LatitudeDegrees>38.14372784458100795745849609375</LatitudeDegrees>
              <LongitudeDegrees>-6.2803426198661327362060546875</LongitudeDegrees>
            </Position>
            <AltitudeMeters>520.5999755859375</AltitudeMeters>
            <DistanceMeters>NAN</DistanceMeters>
          </Trackpoint>
          <Trackpoint>
            <Time>2019-10-10T08:58:05.000Z</Time>
            <Position>
              <LatitudeDegrees>38.14370789565145969390869140625</LatitudeDegrees>
              <LongitudeDegrees>-6.28036583773791790008544921875</LongitudeDegrees>
            </Position>
            <AltitudeMeters>520.5999755859375</AltitudeMeters>
            <DistanceMeters>NAN</DistanceMeters>
          </Trackpoint>
          <Trackpoint>
            <Time>2019-10-10T08:58:09.000Z</Time>
            <Position>
              <LatitudeDegrees>38.1436281837522983551025390625</LatitudeDegrees>
              <LongitudeDegrees>-6.2804567813873291015625</LongitudeDegrees>
            </Position>
            <AltitudeMeters>521.79998779296875</AltitudeMeters>
            <DistanceMeters>NAN</DistanceMeters>
          </Trackpoint>
          <Trackpoint>
            <Time>2019-10-10T08:58:15.000Z</Time>
            <Position>
              <LatitudeDegrees>38.14350991509854793548583984375</LatitudeDegrees>
              <LongitudeDegrees>-6.28059600479900836944580078125</LongitudeDegrees>
            </Position>
            <AltitudeMeters>522.4000244140625</AltitudeMeters>
            <DistanceMeters>NAN</DistanceMeters>
          </Trackpoint>
          <Trackpoint>
            <Time>2019-10-10T08:58:17.000Z</Time>
            <Position>
              <LatitudeDegrees>38.14346968196332454681396484375</LatitudeDegrees>
              <LongitudeDegrees>-6.28064093180000782012939453125</LongitudeDegrees>
            </Position>
            <AltitudeMeters>523</AltitudeMeters>
            <DistanceMeters>NAN</DistanceMeters>
          </Trackpoint>
          <Trackpoint>
            <Time>2019-10-10T08:58:22.000Z</Time>
            <Position>
              <LatitudeDegrees>38.14337278716266155242919921875</LatitudeDegrees>
              <LongitudeDegrees>-6.28074956126511096954345703125</LongitudeDegrees>
            </Position>
            <AltitudeMeters>524</AltitudeMeters>
            <DistanceMeters>NAN</DistanceMeters>
          </Trackpoint>
          <Trackpoint>
            <Time>2019-10-10T08:58:26.000Z</Time>
            <Position>
              <LatitudeDegrees>38.14329885877668857574462890625</LatitudeDegrees>
              <LongitudeDegrees>-6.28083941526710987091064453125</LongitudeDegrees>
            </Position>
            <AltitudeMeters>524.4000244140625</AltitudeMeters>
            <DistanceMeters>NAN</DistanceMeters>
          </Trackpoint>
          <Trackpoint>
            <Time>2019-10-10T08:58:30.000Z</Time>
            <Position>
              <LatitudeDegrees>38.14322392456233501434326171875</LatitudeDegrees>
              <LongitudeDegrees>-6.28093245439231395721435546875</LongitudeDegrees>
            </Position>
            <AltitudeMeters>525</AltitudeMeters>
            <DistanceMeters>NAN</DistanceMeters>
          </Trackpoint>
          <Trackpoint>
            <Time>2019-10-10T08:58:38.000Z</Time>
            <Position>
              <LatitudeDegrees>38.1430639140307903289794921875</LatitudeDegrees>
              <LongitudeDegrees>-6.281102858483791351318359375</LongitudeDegrees>
            </Position>
            <AltitudeMeters>526</AltitudeMeters>
            <DistanceMeters>NAN</DistanceMeters>
          </Trackpoint>
          <Trackpoint>
            <Time>2019-10-10T08:58:39.000Z</Time>
            <Position>
              <LatitudeDegrees>38.14304337836802005767822265625</LatitudeDegrees>
              <LongitudeDegrees>-6.28112439997494220733642578125</LongitudeDegrees>
            </Position>
            <AltitudeMeters>526.20001220703125</AltitudeMeters>
            <DistanceMeters>NAN</DistanceMeters>
          </Trackpoint>
          <Trackpoint>
            <Time>2019-10-10T08:58:45.000Z</Time>
            <Position>
              <LatitudeDegrees>38.1429200805723667144775390625</LatitudeDegrees>
              <LongitudeDegrees>-6.2812498770654201507568359375</LongitudeDegrees>
            </Position>
            <AltitudeMeters>527.4000244140625</AltitudeMeters>
            <DistanceMeters>NAN</DistanceMeters>
          </Trackpoint>
          <Trackpoint>
            <Time>2019-10-10T08:58:50.000Z</Time>
            <Position>
              <LatitudeDegrees>38.14281840808689594268798828125</LatitudeDegrees>
              <LongitudeDegrees>-6.28134601749479770660400390625</LongitudeDegrees>
            </Position>
            <AltitudeMeters>527.79998779296875</AltitudeMeters>
            <DistanceMeters>NAN</DistanceMeters>
          </Trackpoint>
          <Trackpoint>
            <Time>2019-10-10T08:58:58.000Z</Time>
            <Position>
              <LatitudeDegrees>38.1426511891186237335205078125</LatitudeDegrees>
              <LongitudeDegrees>-6.28148901276290416717529296875</LongitudeDegrees>
            </Position>
            <AltitudeMeters>528.79998779296875</AltitudeMeters>
            <DistanceMeters>NAN</DistanceMeters>
          </Trackpoint>
          <Trackpoint>
            <Time>2019-10-10T08:58:59.000Z</Time>
            <Position>
              <LatitudeDegrees>38.1426293961703777313232421875</LatitudeDegrees>
              <LongitudeDegrees>-6.2815060280263423919677734375</LongitudeDegrees>
            </Position>
            <AltitudeMeters>528.79998779296875</AltitudeMeters>
            <DistanceMeters>NAN</DistanceMeters>
          </Trackpoint>
          <Trackpoint>
            <Time>2019-10-10T08:59:09.000Z</Time>
            <Position>
              <LatitudeDegrees>38.14240300096571445465087890625</LatitudeDegrees>
              <LongitudeDegrees>-6.281668804585933685302734375</LongitudeDegrees>
            </Position>
            <AltitudeMeters>529.5999755859375</AltitudeMeters>
            <DistanceMeters>NAN</DistanceMeters>
          </Trackpoint>
          <Trackpoint>
            <Time>2019-10-10T08:59:12.000Z</Time>
            <Position>
              <LatitudeDegrees>38.14233393408358097076416015625</LatitudeDegrees>
              <LongitudeDegrees>-6.2817155756056308746337890625</LongitudeDegrees>
            </Position>
            <AltitudeMeters>530</AltitudeMeters>
            <DistanceMeters>NAN</DistanceMeters>
          </Trackpoint>
          <Trackpoint>
            <Time>2019-10-10T08:59:17.000Z</Time>
            <Position>
              <LatitudeDegrees>38.14222446642816066741943359375</LatitudeDegrees>
              <LongitudeDegrees>-6.28179025836288928985595703125</LongitudeDegrees>
            </Position>
            <AltitudeMeters>531.20001220703125</AltitudeMeters>
            <DistanceMeters>NAN</DistanceMeters>
          </Trackpoint>
          <Trackpoint>
            <Time>2019-10-10T08:59:18.000Z</Time>
            <Position>
              <LatitudeDegrees>38.142198733985424041748046875</LatitudeDegrees>
              <LongitudeDegrees>-6.28179864026606082916259765625</LongitudeDegrees>
            </Position>
            <AltitudeMeters>531.4000244140625</AltitudeMeters>
            <DistanceMeters>NAN</DistanceMeters>
          </Trackpoint>
          <Trackpoint>
            <Time>2019-10-10T08:59:28.000Z</Time>
            <Position>
              <LatitudeDegrees>38.14196479506790637969970703125</LatitudeDegrees>
              <LongitudeDegrees>-6.28193308599293231964111328125</LongitudeDegrees>
            </Position>
            <AltitudeMeters>532</AltitudeMeters>
            <DistanceMeters>NAN</DistanceMeters>
          </Trackpoint>
          <Trackpoint>
            <Time>2019-10-10T08:59:29.000Z</Time>
            <Position>
              <LatitudeDegrees>38.14194132573902606964111328125</LatitudeDegrees>
              <LongitudeDegrees>-6.2819432280957698822021484375</LongitudeDegrees>
            </Position>
            <AltitudeMeters>532.20001220703125</AltitudeMeters>
            <DistanceMeters>NAN</DistanceMeters>
          </Trackpoint>
          <Trackpoint>
            <Time>2019-10-10T08:59:37.000Z</Time>
            <Position>
              <LatitudeDegrees>38.1417476199567317962646484375</LatitudeDegrees>
              <LongitudeDegrees>-6.28201154060661792755126953125</LongitudeDegrees>
            </Position>
            <AltitudeMeters>532.79998779296875</AltitudeMeters>
            <DistanceMeters>NAN</DistanceMeters>
          </Trackpoint>
          <Trackpoint>
            <Time>2019-10-10T08:59:40.000Z</Time>
            <Position>
              <LatitudeDegrees>38.141674362123012542724609375</LatitudeDegrees>
              <LongitudeDegrees>-6.2820417992770671844482421875</LongitudeDegrees>
            </Position>
            <AltitudeMeters>533.79998779296875</AltitudeMeters>
            <DistanceMeters>NAN</DistanceMeters>
          </Trackpoint>
          <Trackpoint>
            <Time>2019-10-10T08:59:48.000Z</Time>
            <Position>
              <LatitudeDegrees>38.14146892167627811431884765625</LatitudeDegrees>
              <LongitudeDegrees>-6.28210223279893398284912109375</LongitudeDegrees>
            </Position>
            <AltitudeMeters>534.5999755859375</AltitudeMeters>
            <DistanceMeters>NAN</DistanceMeters>
          </Trackpoint>
          <Trackpoint>
            <Time>2019-10-10T08:59:51.000Z</Time>
            <Position>
              <LatitudeDegrees>38.14139214344322681427001953125</LatitudeDegrees>
              <LongitudeDegrees>-6.282118745148181915283203125</LongitudeDegrees>
            </Position>
            <AltitudeMeters>535</AltitudeMeters>
            <DistanceMeters>NAN</DistanceMeters>
          </Trackpoint>
          <Trackpoint>
            <Time>2019-10-10T08:59:59.000Z</Time>
            <Position>
              <LatitudeDegrees>38.141188882291316986083984375</LatitudeDegrees>
              <LongitudeDegrees>-6.2821584753692150115966796875</LongitudeDegrees>
            </Position>
            <AltitudeMeters>536</AltitudeMeters>
            <DistanceMeters>NAN</DistanceMeters>
          </Trackpoint>
          <Trackpoint>
            <Time>2019-10-10T09:00:05.000Z</Time>
            <Position>
              <LatitudeDegrees>38.14103138633072376251220703125</LatitudeDegrees>
              <LongitudeDegrees>-6.28218286670744419097900390625</LongitudeDegrees>
            </Position>
            <AltitudeMeters>537</AltitudeMeters>
            <DistanceMeters>NAN</DistanceMeters>
          </Trackpoint>
          <Trackpoint>
            <Time>2019-10-10T09:00:09.000Z</Time>
            <Position>
              <LatitudeDegrees>38.14092812128365039825439453125</LatitudeDegrees>
              <LongitudeDegrees>-6.28219560720026493072509765625</LongitudeDegrees>
            </Position>
            <AltitudeMeters>537.4000244140625</AltitudeMeters>
            <DistanceMeters>NAN</DistanceMeters>
          </Trackpoint>
          <Trackpoint>
            <Time>2019-10-10T09:00:14.000Z</Time>
            <Position>
              <LatitudeDegrees>38.1407964415848255157470703125</LatitudeDegrees>
              <LongitudeDegrees>-6.28220465965569019317626953125</LongitudeDegrees>
            </Position>
            <AltitudeMeters>538.4000244140625</AltitudeMeters>
            <DistanceMeters>NAN</DistanceMeters>
          </Trackpoint>
          <Trackpoint>
            <Time>2019-10-10T09:00:16.000Z</Time>
            <Position>
              <LatitudeDegrees>38.1407421268522739410400390625</LatitudeDegrees>
              <LongitudeDegrees>-6.28220147453248500823974609375</LongitudeDegrees>
            </Position>
            <AltitudeMeters>538.20001220703125</AltitudeMeters>
            <DistanceMeters>NAN</DistanceMeters>
          </Trackpoint>
          <Trackpoint>
            <Time>2019-10-10T09:00:23.000Z</Time>
            <Position>
              <LatitudeDegrees>38.1405575573444366455078125</LatitudeDegrees>
              <LongitudeDegrees>-6.28220180980861186981201171875</LongitudeDegrees>
            </Position>
            <AltitudeMeters>539.79998779296875</AltitudeMeters>
            <DistanceMeters>NAN</DistanceMeters>
          </Trackpoint>
          <Trackpoint>
            <Time>2019-10-10T09:00:25.000Z</Time>
            <Position>
              <LatitudeDegrees>38.14050449989736080169677734375</LatitudeDegrees>
              <LongitudeDegrees>-6.2821988761425018310546875</LongitudeDegrees>
            </Position>
            <AltitudeMeters>539.4000244140625</AltitudeMeters>
            <DistanceMeters>NAN</DistanceMeters>
          </Trackpoint>
          <Trackpoint>
            <Time>2019-10-10T09:00:34.000Z</Time>
            <Position>
              <LatitudeDegrees>38.1402767635881900787353515625</LatitudeDegrees>
              <LongitudeDegrees>-6.28217280842363834381103515625</LongitudeDegrees>
            </Position>
            <AltitudeMeters>540.20001220703125</AltitudeMeters>
            <DistanceMeters>NAN</DistanceMeters>
          </Trackpoint>
          <Trackpoint>
            <Time>2019-10-10T09:00:37.000Z</Time>
            <Position>
              <LatitudeDegrees>38.1402006559073925018310546875</LatitudeDegrees>
              <LongitudeDegrees>-6.28215872682631015777587890625</LongitudeDegrees>
            </Position>
            <AltitudeMeters>541</AltitudeMeters>
            <DistanceMeters>NAN</DistanceMeters>
          </Trackpoint>
          <Trackpoint>
            <Time>2019-10-10T09:00:45.000Z</Time>
            <Position>
              <LatitudeDegrees>38.13999571837484836578369140625</LatitudeDegrees>
              <LongitudeDegrees>-6.2821182422339916229248046875</LongitudeDegrees>
            </Position>
            <AltitudeMeters>542</AltitudeMeters>
            <DistanceMeters>NAN</DistanceMeters>
          </Trackpoint>
          <Trackpoint>
            <Time>2019-10-10T09:00:47.000Z</Time>
            <Position>
              <LatitudeDegrees>38.13994609750807285308837890625</LatitudeDegrees>
              <LongitudeDegrees>-6.282102651894092559814453125</LongitudeDegrees>
            </Position>
            <AltitudeMeters>542.4000244140625</AltitudeMeters>
            <DistanceMeters>NAN</DistanceMeters>
          </Trackpoint>
          <Trackpoint>
            <Time>2019-10-10T09:00:54.000Z</Time>
            <Position>
              <LatitudeDegrees>38.139767982065677642822265625</LatitudeDegrees>
              <LongitudeDegrees>-6.282048337161540985107421875</LongitudeDegrees>
            </Position>
            <AltitudeMeters>543.4000244140625</AltitudeMeters>
            <DistanceMeters>NAN</DistanceMeters>
          </Trackpoint>
          <Trackpoint>
            <Time>2019-10-10T09:00:57.000Z</Time>
            <Position>
              <LatitudeDegrees>38.13969128765165805816650390625</LatitudeDegrees>
              <LongitudeDegrees>-6.28202713094651699066162109375</LongitudeDegrees>
            </Position>
            <AltitudeMeters>543.4000244140625</AltitudeMeters>
            <DistanceMeters>NAN</DistanceMeters>
          </Trackpoint>
          <Trackpoint>
            <Time>2019-10-10T09:01:03.000Z</Time>
            <Position>
              <LatitudeDegrees>38.1395421735942363739013671875</LatitudeDegrees>
              <LongitudeDegrees>-6.2819707207381725311279296875</LongitudeDegrees>
            </Position>
            <AltitudeMeters>544.4000244140625</AltitudeMeters>
            <DistanceMeters>NAN</DistanceMeters>
          </Trackpoint>
          <Trackpoint>
            <Time>2019-10-10T09:01:06.000Z</Time>
            <Position>
              <LatitudeDegrees>38.13946715556085109710693359375</LatitudeDegrees>
              <LongitudeDegrees>-6.2819345109164714813232421875</LongitudeDegrees>
            </Position>
            <AltitudeMeters>544.5999755859375</AltitudeMeters>
            <DistanceMeters>NAN</DistanceMeters>
          </Trackpoint>
          <Trackpoint>
            <Time>2019-10-10T09:01:15.000Z</Time>
            <Position>
              <LatitudeDegrees>38.1392481364309787750244140625</LatitudeDegrees>
              <LongitudeDegrees>-6.28182537853717803955078125</LongitudeDegrees>
            </Position>
            <AltitudeMeters>545.4000244140625</AltitudeMeters>
            <DistanceMeters>NAN</DistanceMeters>
          </Trackpoint>
          <Trackpoint>
            <Time>2019-10-10T09:01:16.000Z</Time>
            <Position>
              <LatitudeDegrees>38.13922382891178131103515625</LatitudeDegrees>
              <LongitudeDegrees>-6.28181188367307186126708984375</LongitudeDegrees>
            </Position>
            <AltitudeMeters>545.5999755859375</AltitudeMeters>
            <DistanceMeters>NAN</DistanceMeters>
          </Trackpoint>
          <Trackpoint>
            <Time>2019-10-10T09:01:22.000Z</Time>
            <Position>
              <LatitudeDegrees>38.139075301587581634521484375</LatitudeDegrees>
              <LongitudeDegrees>-6.28172638826072216033935546875</LongitudeDegrees>
            </Position>
            <AltitudeMeters>546.79998779296875</AltitudeMeters>
            <DistanceMeters>NAN</DistanceMeters>
          </Trackpoint>
          <Trackpoint>
            <Time>2019-10-10T09:01:26.000Z</Time>
            <Position>
              <LatitudeDegrees>38.13897798769176006317138671875</LatitudeDegrees>
              <LongitudeDegrees>-6.28166385926306247711181640625</LongitudeDegrees>
            </Position>
            <AltitudeMeters>547.5999755859375</AltitudeMeters>
            <DistanceMeters>NAN</DistanceMeters>
          </Trackpoint>
          <Trackpoint>
            <Time>2019-10-10T09:01:27.000Z</Time>
            <Position>
              <LatitudeDegrees>38.13895585946738719940185546875</LatitudeDegrees>
              <LongitudeDegrees>-6.2816490232944488525390625</LongitudeDegrees>
            </Position>
            <AltitudeMeters>547.79998779296875</AltitudeMeters>
            <DistanceMeters>NAN</DistanceMeters>
          </Trackpoint>
          <Trackpoint>
            <Time>2019-10-10T09:01:35.000Z</Time>
            <Position>
              <LatitudeDegrees>38.1387676857411861419677734375</LatitudeDegrees>
              <LongitudeDegrees>-6.28152220509946346282958984375</LongitudeDegrees>
            </Position>
            <AltitudeMeters>548.20001220703125</AltitudeMeters>
            <DistanceMeters>NAN</DistanceMeters>
          </Trackpoint>
          <Trackpoint>
            <Time>2019-10-10T09:01:38.000Z</Time>
            <Position>
              <LatitudeDegrees>38.138701803982257843017578125</LatitudeDegrees>
              <LongitudeDegrees>-6.28147057257592678070068359375</LongitudeDegrees>
            </Position>
            <AltitudeMeters>549.20001220703125</AltitudeMeters>
            <DistanceMeters>NAN</DistanceMeters>
          </Trackpoint>
          <Trackpoint>
            <Time>2019-10-10T09:01:44.000Z</Time>
            <Position>
              <LatitudeDegrees>38.13857682980597019195556640625</LatitudeDegrees>
              <LongitudeDegrees>-6.28134568221867084503173828125</LongitudeDegrees>
            </Position>
            <AltitudeMeters>550.4000244140625</AltitudeMeters>
            <DistanceMeters>NAN</DistanceMeters>
          </Trackpoint>
          <Trackpoint>
            <Time>2019-10-10T09:01:45.000Z</Time>
            <Position>
              <LatitudeDegrees>38.138557970523834228515625</LatitudeDegrees>
              <LongitudeDegrees>-6.281323470175266265869140625</LongitudeDegrees>
            </Position>
            <AltitudeMeters>550.5999755859375</AltitudeMeters>
            <DistanceMeters>NAN</DistanceMeters>
          </Trackpoint>
          <Trackpoint>
            <Time>2019-10-10T09:01:50.000Z</Time>
            <Position>
              <LatitudeDegrees>38.1384491734206676483154296875</LatitudeDegrees>
              <LongitudeDegrees>-6.28121257759630680084228515625</LongitudeDegrees>
            </Position>
            <AltitudeMeters>551.79998779296875</AltitudeMeters>
            <DistanceMeters>NAN</DistanceMeters>
          </Trackpoint>
          <Trackpoint>
            <Time>2019-10-10T09:01:54.000Z</Time>
            <Position>
              <LatitudeDegrees>38.138361163437366485595703125</LatitudeDegrees>
              <LongitudeDegrees>-6.28113579936325550079345703125</LongitudeDegrees>
            </Position>
            <AltitudeMeters>551.79998779296875</AltitudeMeters>
            <DistanceMeters>NAN</DistanceMeters>
          </Trackpoint>
          <Trackpoint>
            <Time>2019-10-10T09:02:00.000Z</Time>
            <Position>
              <LatitudeDegrees>38.138230741024017333984375</LatitudeDegrees>
              <LongitudeDegrees>-6.28100604750216007232666015625</LongitudeDegrees>
            </Position>
            <AltitudeMeters>552.79998779296875</AltitudeMeters>
            <DistanceMeters>NAN</DistanceMeters>
          </Trackpoint>
          <Trackpoint>
            <Time>2019-10-10T09:02:02.000Z</Time>
            <Position>
              <LatitudeDegrees>38.13819109462201595306396484375</LatitudeDegrees>
              <LongitudeDegrees>-6.2809570133686065673828125</LongitudeDegrees>
            </Position>
            <AltitudeMeters>553.79998779296875</AltitudeMeters>
            <DistanceMeters>NAN</DistanceMeters>
          </Trackpoint>
          <Trackpoint>
            <Time>2019-10-10T09:02:08.000Z</Time>
            <Position>
              <LatitudeDegrees>38.13807810656726360321044921875</LatitudeDegrees>
              <LongitudeDegrees>-6.2808163650333881378173828125</LongitudeDegrees>
            </Position>
            <AltitudeMeters>554</AltitudeMeters>
            <DistanceMeters>NAN</DistanceMeters>
          </Trackpoint>
          <Trackpoint>
            <Time>2019-10-10T09:02:12.000Z</Time>
            <Position>
              <LatitudeDegrees>38.1380039267241954803466796875</LatitudeDegrees>
              <LongitudeDegrees>-6.2807194702327251434326171875</LongitudeDegrees>
            </Position>
            <AltitudeMeters>555</AltitudeMeters>
            <DistanceMeters>NAN</DistanceMeters>
          </Trackpoint>
          <Trackpoint>
            <Time>2019-10-10T09:02:14.000Z</Time>
            <Position>
              <LatitudeDegrees>38.13796662725508213043212890625</LatitudeDegrees>
              <LongitudeDegrees>-6.28066255711019039154052734375</LongitudeDegrees>
            </Position>
            <AltitudeMeters>555.20001220703125</AltitudeMeters>
            <DistanceMeters>NAN</DistanceMeters>
          </Trackpoint>
          <Trackpoint>
            <Time>2019-10-10T09:02:20.000Z</Time>
            <Position>
              <LatitudeDegrees>38.1378574110567569732666015625</LatitudeDegrees>
              <LongitudeDegrees>-6.2804894708096981048583984375</LongitudeDegrees>
            </Position>
            <AltitudeMeters>556</AltitudeMeters>
            <DistanceMeters>NAN</DistanceMeters>
          </Trackpoint>
          <Trackpoint>
            <Time>2019-10-10T09:02:22.000Z</Time>
            <Position>
              <LatitudeDegrees>38.137821368873119354248046875</LatitudeDegrees>
              <LongitudeDegrees>-6.28043037839233875274658203125</LongitudeDegrees>
            </Position>
            <AltitudeMeters>556.4000244140625</AltitudeMeters>
            <DistanceMeters>NAN</DistanceMeters>
          </Trackpoint>
          <Trackpoint>
            <Time>2019-10-10T09:02:28.000Z</Time>
            <Position>
              <LatitudeDegrees>38.13771466724574565887451171875</LatitudeDegrees>
              <LongitudeDegrees>-6.28026424907147884368896484375</LongitudeDegrees>
            </Position>
            <AltitudeMeters>557.4000244140625</AltitudeMeters>
            <DistanceMeters>NAN</DistanceMeters>
          </Trackpoint>
          <Trackpoint>
            <Time>2019-10-10T09:02:29.000Z</Time>
            <Position>
              <LatitudeDegrees>38.1376969814300537109375</LatitudeDegrees>
              <LongitudeDegrees>-6.28023826517164707183837890625</LongitudeDegrees>
            </Position>
            <AltitudeMeters>557.20001220703125</AltitudeMeters>
            <DistanceMeters>NAN</DistanceMeters>
          </Trackpoint>
          <Trackpoint>
            <Time>2019-10-10T09:02:36.000Z</Time>
            <Position>
              <LatitudeDegrees>38.13757569529116153717041015625</LatitudeDegrees>
              <LongitudeDegrees>-6.28001891076564788818359375</LongitudeDegrees>
            </Position>
            <AltitudeMeters>557.79998779296875</AltitudeMeters>
            <DistanceMeters>NAN</DistanceMeters>
          </Trackpoint>
          <Trackpoint>
            <Time>2019-10-10T09:02:41.000Z</Time>
            <Position>
              <LatitudeDegrees>38.13749489374458789825439453125</LatitudeDegrees>
              <LongitudeDegrees>-6.279874742031097412109375</LongitudeDegrees>
            </Position>
            <AltitudeMeters>558.5999755859375</AltitudeMeters>
            <DistanceMeters>NAN</DistanceMeters>
          </Trackpoint>
          <Trackpoint>
            <Time>2019-10-10T09:02:45.000Z</Time>
            <Position>
              <LatitudeDegrees>38.1374319456517696380615234375</LatitudeDegrees>
              <LongitudeDegrees>-6.27975949086248874664306640625</LongitudeDegrees>
            </Position>
            <AltitudeMeters>559</AltitudeMeters>
            <DistanceMeters>NAN</DistanceMeters>
          </Trackpoint>
          <Trackpoint>
            <Time>2019-10-10T09:02:52.000Z</Time>
            <Position>
              <LatitudeDegrees>38.13732147216796875</LatitudeDegrees>
              <LongitudeDegrees>-6.27956603653728961944580078125</LongitudeDegrees>
            </Position>
            <AltitudeMeters>559.5999755859375</AltitudeMeters>
            <DistanceMeters>NAN</DistanceMeters>
          </Trackpoint>
          <Trackpoint>
            <Time>2019-10-10T09:02:55.000Z</Time>
            <Position>
              <LatitudeDegrees>38.1372686661779880523681640625</LatitudeDegrees>
              <LongitudeDegrees>-6.27948624081909656524658203125</LongitudeDegrees>
            </Position>
            <AltitudeMeters>559.79998779296875</AltitudeMeters>
            <DistanceMeters>NAN</DistanceMeters>
          </Trackpoint>
          <Trackpoint>
            <Time>2019-10-10T09:03:01.000Z</Time>
            <Position>
              <LatitudeDegrees>38.13717302866280078887939453125</LatitudeDegrees>
              <LongitudeDegrees>-6.27931877039372920989990234375</LongitudeDegrees>
            </Position>
            <AltitudeMeters>561</AltitudeMeters>
            <DistanceMeters>NAN</DistanceMeters>
          </Trackpoint>
          <Trackpoint>
            <Time>2019-10-10T09:03:04.000Z</Time>
            <Position>
              <LatitudeDegrees>38.13713078387081623077392578125</LatitudeDegrees>
              <LongitudeDegrees>-6.27922908402979373931884765625</LongitudeDegrees>
            </Position>
            <AltitudeMeters>561.20001220703125</AltitudeMeters>
            <DistanceMeters>NAN</DistanceMeters>
          </Trackpoint>
          <Trackpoint>
            <Time>2019-10-10T09:03:11.000Z</Time>
            <Position>
              <LatitudeDegrees>38.13701234757900238037109375</LatitudeDegrees>
              <LongitudeDegrees>-6.27904535271227359771728515625</LongitudeDegrees>
            </Position>
            <AltitudeMeters>562.20001220703125</AltitudeMeters>
            <DistanceMeters>NAN</DistanceMeters>
          </Trackpoint>
          <Trackpoint>
            <Time>2019-10-10T09:03:12.000Z</Time>
            <Position>
              <LatitudeDegrees>38.1369967572391033172607421875</LatitudeDegrees>
              <LongitudeDegrees>-6.2790186144411563873291015625</LongitudeDegrees>
            </Position>
            <AltitudeMeters>562</AltitudeMeters>
            <DistanceMeters>NAN</DistanceMeters>
          </Trackpoint>
          <Trackpoint>
            <Time>2019-10-10T09:03:18.000Z</Time>
            <Position>
              <LatitudeDegrees>38.136893324553966522216796875</LatitudeDegrees>
              <LongitudeDegrees>-6.278849802911281585693359375</LongitudeDegrees>
            </Position>
            <AltitudeMeters>563.20001220703125</AltitudeMeters>
            <DistanceMeters>NAN</DistanceMeters>
          </Trackpoint>
          <Trackpoint>
            <Time>2019-10-10T09:03:20.000Z</Time>
            <Position>
              <LatitudeDegrees>38.13685585744678974151611328125</LatitudeDegrees>
              <LongitudeDegrees>-6.278799511492252349853515625</LongitudeDegrees>
            </Position>
            <AltitudeMeters>563.4000244140625</AltitudeMeters>
            <DistanceMeters>NAN</DistanceMeters>
          </Trackpoint>
          <Trackpoint>
            <Time>2019-10-10T09:03:27.000Z</Time>
            <Position>
              <LatitudeDegrees>38.13673381693661212921142578125</LatitudeDegrees>
              <LongitudeDegrees>-6.27861821092665195465087890625</LongitudeDegrees>
            </Position>
            <AltitudeMeters>564.4000244140625</AltitudeMeters>
            <DistanceMeters>NAN</DistanceMeters>
          </Trackpoint>
          <Trackpoint>
            <Time>2019-10-10T09:03:29.000Z</Time>
            <Position>
              <LatitudeDegrees>38.13669308088719844818115234375</LatitudeDegrees>
              <LongitudeDegrees>-6.27857311628758907318115234375</LongitudeDegrees>
            </Position>
            <AltitudeMeters>564.5999755859375</AltitudeMeters>
            <DistanceMeters>NAN</DistanceMeters>
          </Trackpoint>
          <Trackpoint>
            <Time>2019-10-10T09:03:33.000Z</Time>
            <Position>
              <LatitudeDegrees>38.1366093456745147705078125</LatitudeDegrees>
              <LongitudeDegrees>-6.27848736941814422607421875</LongitudeDegrees>
            </Position>
            <AltitudeMeters>565.4000244140625</AltitudeMeters>
            <DistanceMeters>NAN</DistanceMeters>
          </Trackpoint>
          <Trackpoint>
            <Time>2019-10-10T09:03:38.000Z</Time>
            <Position>
              <LatitudeDegrees>38.13650406897068023681640625</LatitudeDegrees>
              <LongitudeDegrees>-6.2783820927143096923828125</LongitudeDegrees>
            </Position>
            <AltitudeMeters>566.4000244140625</AltitudeMeters>
            <DistanceMeters>NAN</DistanceMeters>
          </Trackpoint>
          <Trackpoint>
            <Time>2019-10-10T09:03:43.000Z</Time>
            <Position>
              <LatitudeDegrees>38.13638948835432529449462890625</LatitudeDegrees>
              <LongitudeDegrees>-6.27828930504620075225830078125</LongitudeDegrees>
            </Position>
            <AltitudeMeters>566.4000244140625</AltitudeMeters>
            <DistanceMeters>NAN</DistanceMeters>
          </Trackpoint>
          <Trackpoint>
            <Time>2019-10-10T09:03:47.000Z</Time>
            <Position>
              <LatitudeDegrees>38.13629996962845325469970703125</LatitudeDegrees>
              <LongitudeDegrees>-6.27821772359311580657958984375</LongitudeDegrees>
            </Position>
            <AltitudeMeters>567.4000244140625</AltitudeMeters>
            <DistanceMeters>NAN</DistanceMeters>
          </Trackpoint>
          <Trackpoint>
            <Time>2019-10-10T09:03:49.000Z</Time>
            <Position>
              <LatitudeDegrees>38.136253617703914642333984375</LatitudeDegrees>
              <LongitudeDegrees>-6.27818486653268337249755859375</LongitudeDegrees>
            </Position>
            <AltitudeMeters>568</AltitudeMeters>
            <DistanceMeters>NAN</DistanceMeters>
          </Trackpoint>
          <Trackpoint>
            <Time>2019-10-10T09:03:56.000Z</Time>
            <Position>
              <LatitudeDegrees>38.13607893884181976318359375</LatitudeDegrees>
              <LongitudeDegrees>-6.2780862115323543548583984375</LongitudeDegrees>
            </Position>
            <AltitudeMeters>568.79998779296875</AltitudeMeters>
            <DistanceMeters>NAN</DistanceMeters>
          </Trackpoint>
          <Trackpoint>
            <Time>2019-10-10T09:03:58.000Z</Time>
            <Position>
              <LatitudeDegrees>38.136030323803424835205078125</LatitudeDegrees>
              <LongitudeDegrees>-6.2780570425093173980712890625</LongitudeDegrees>
            </Position>
            <AltitudeMeters>569</AltitudeMeters>
            <DistanceMeters>NAN</DistanceMeters>
          </Trackpoint>
          <Trackpoint>
            <Time>2019-10-10T09:04:05.000Z</Time>
            <Position>
              <LatitudeDegrees>38.13585438765585422515869140625</LatitudeDegrees>
              <LongitudeDegrees>-6.27797297202050685882568359375</LongitudeDegrees>
            </Position>
            <AltitudeMeters>570.4000244140625</AltitudeMeters>
            <DistanceMeters>NAN</DistanceMeters>
          </Trackpoint>
          <Trackpoint>
            <Time>2019-10-10T09:04:06.000Z</Time>
            <Position>
              <LatitudeDegrees>38.13582773320376873016357421875</LatitudeDegrees>
              <LongitudeDegrees>-6.27796559594571590423583984375</LongitudeDegrees>
            </Position>
            <AltitudeMeters>570.5999755859375</AltitudeMeters>
            <DistanceMeters>NAN</DistanceMeters>
          </Trackpoint>
          <Trackpoint>
            <Time>2019-10-10T09:04:15.000Z</Time>
            <Position>
              <LatitudeDegrees>38.1355842389166355133056640625</LatitudeDegrees>
              <LongitudeDegrees>-6.27789384685456752777099609375</LongitudeDegrees>
            </Position>
            <AltitudeMeters>571.4000244140625</AltitudeMeters>
            <DistanceMeters>NAN</DistanceMeters>
          </Trackpoint>
          <Trackpoint>
            <Time>2019-10-10T09:04:18.000Z</Time>
            <Position>
              <LatitudeDegrees>38.1355057843029499053955078125</LatitudeDegrees>
              <LongitudeDegrees>-6.27787322737276554107666015625</LongitudeDegrees>
            </Position>
            <AltitudeMeters>571.4000244140625</AltitudeMeters>
            <DistanceMeters>NAN</DistanceMeters>
          </Trackpoint>
          <Trackpoint>
            <Time>2019-10-10T09:04:25.000Z</Time>
            <Position>
              <LatitudeDegrees>38.13532163389027118682861328125</LatitudeDegrees>
              <LongitudeDegrees>-6.27784355543553829193115234375</LongitudeDegrees>
            </Position>
            <AltitudeMeters>572.5999755859375</AltitudeMeters>
            <DistanceMeters>NAN</DistanceMeters>
          </Trackpoint>
          <Trackpoint>
            <Time>2019-10-10T09:04:27.000Z</Time>
            <Position>
              <LatitudeDegrees>38.1352710910141468048095703125</LatitudeDegrees>
              <LongitudeDegrees>-6.2778402864933013916015625</LongitudeDegrees>
            </Position>
            <AltitudeMeters>572.5999755859375</AltitudeMeters>
            <DistanceMeters>NAN</DistanceMeters>
          </Trackpoint>
          <Trackpoint>
            <Time>2019-10-10T09:04:33.000Z</Time>
            <Position>
              <LatitudeDegrees>38.1351131759583950042724609375</LatitudeDegrees>
              <LongitudeDegrees>-6.27783584408462047576904296875</LongitudeDegrees>
            </Position>
            <AltitudeMeters>573.79998779296875</AltitudeMeters>
            <DistanceMeters>NAN</DistanceMeters>
          </Trackpoint>
          <Trackpoint>
            <Time>2019-10-10T09:04:38.000Z</Time>
            <Position>
              <LatitudeDegrees>38.1349807418882846832275390625</LatitudeDegrees>
              <LongitudeDegrees>-6.27783969976007938385009765625</LongitudeDegrees>
            </Position>
            <AltitudeMeters>574.5999755859375</AltitudeMeters>
            <DistanceMeters>NAN</DistanceMeters>
          </Trackpoint>
          <Trackpoint>
            <Time>2019-10-10T09:04:39.000Z</Time>
            <Position>
              <LatitudeDegrees>38.13495417125523090362548828125</LatitudeDegrees>
              <LongitudeDegrees>-6.2778414599597454071044921875</LongitudeDegrees>
            </Position>
            <AltitudeMeters>575</AltitudeMeters>
            <DistanceMeters>NAN</DistanceMeters>
          </Trackpoint>
          <Trackpoint>
            <Time>2019-10-10T09:04:49.000Z</Time>
            <Position>
              <LatitudeDegrees>38.1346917338669300079345703125</LatitudeDegrees>
              <LongitudeDegrees>-6.277886889874935150146484375</LongitudeDegrees>
            </Position>
            <AltitudeMeters>575.79998779296875</AltitudeMeters>
            <DistanceMeters>NAN</DistanceMeters>
          </Trackpoint>
          <Trackpoint>
            <Time>2019-10-10T09:04:51.000Z</Time>
            <Position>
              <LatitudeDegrees>38.134639598429203033447265625</LatitudeDegrees>
              <LongitudeDegrees>-6.27790289930999279022216796875</LongitudeDegrees>
            </Position>
            <AltitudeMeters>576.20001220703125</AltitudeMeters>
            <DistanceMeters>NAN</DistanceMeters>
          </Trackpoint>
          <Trackpoint>
            <Time>2019-10-10T09:04:58.000Z</Time>
            <Position>
              <LatitudeDegrees>38.13445745967328548431396484375</LatitudeDegrees>
              <LongitudeDegrees>-6.27796727232635021209716796875</LongitudeDegrees>
            </Position>
            <AltitudeMeters>578.5999755859375</AltitudeMeters>
            <DistanceMeters>NAN</DistanceMeters>
          </Trackpoint>
          <Trackpoint>
            <Time>2019-10-10T09:05:08.000Z</Time>
            <Position>
              <LatitudeDegrees>38.13420650549232959747314453125</LatitudeDegrees>
              <LongitudeDegrees>-6.278071962296962738037109375</LongitudeDegrees>
            </Position>
            <AltitudeMeters>578.4000244140625</AltitudeMeters>
            <DistanceMeters>NAN</DistanceMeters>
          </Trackpoint>
          <Trackpoint>
            <Time>2019-10-10T09:05:12.000Z</Time>
            <Position>
              <LatitudeDegrees>38.1341120414435863494873046875</LatitudeDegrees>
              <LongitudeDegrees>-6.27811848185956478118896484375</LongitudeDegrees>
            </Position>
            <AltitudeMeters>579.79998779296875</AltitudeMeters>
            <DistanceMeters>NAN</DistanceMeters>
          </Trackpoint>
          <Trackpoint>
            <Time>2019-10-10T09:05:18.000Z</Time>
            <Position>
              <LatitudeDegrees>38.13397130928933620452880859375</LatitudeDegrees>
              <LongitudeDegrees>-6.2781991995871067047119140625</LongitudeDegrees>
            </Position>
            <AltitudeMeters>579.79998779296875</AltitudeMeters>
            <DistanceMeters>NAN</DistanceMeters>
          </Trackpoint>
          <Trackpoint>
            <Time>2019-10-10T09:05:22.000Z</Time>
            <Position>
              <LatitudeDegrees>38.133875839412212371826171875</LatitudeDegrees>
              <LongitudeDegrees>-6.278253681957721710205078125</LongitudeDegrees>
            </Position>
            <AltitudeMeters>581</AltitudeMeters>
            <DistanceMeters>NAN</DistanceMeters>
          </Trackpoint>
          <Trackpoint>
            <Time>2019-10-10T09:05:27.000Z</Time>
            <Position>
              <LatitudeDegrees>38.13375622965395450592041015625</LatitudeDegrees>
              <LongitudeDegrees>-6.2783276103436946868896484375</LongitudeDegrees>
            </Position>
            <AltitudeMeters>581.79998779296875</AltitudeMeters>
            <DistanceMeters>NAN</DistanceMeters>
          </Trackpoint>
          <Trackpoint>
            <Time>2019-10-10T09:05:28.000Z</Time>
            <Position>
              <LatitudeDegrees>38.1337335146963596343994140625</LatitudeDegrees>
              <LongitudeDegrees>-6.27833959646522998809814453125</LongitudeDegrees>
            </Position>
            <AltitudeMeters>582</AltitudeMeters>
            <DistanceMeters>NAN</DistanceMeters>
          </Trackpoint>
          <Trackpoint>
            <Time>2019-10-10T09:05:38.000Z</Time>
            <Position>
              <LatitudeDegrees>38.1335006654262542724609375</LatitudeDegrees>
              <LongitudeDegrees>-6.27846532501280307769775390625</LongitudeDegrees>
            </Position>
            <AltitudeMeters>583.20001220703125</AltitudeMeters>
            <DistanceMeters>NAN</DistanceMeters>
          </Trackpoint>
          <Trackpoint>
            <Time>2019-10-10T09:05:46.000Z</Time>
            <Position>
              <LatitudeDegrees>38.1333087198436260223388671875</LatitudeDegrees>
              <LongitudeDegrees>-6.27855802886188030242919921875</LongitudeDegrees>
            </Position>
            <AltitudeMeters>584.79998779296875</AltitudeMeters>
            <DistanceMeters>NAN</DistanceMeters>
          </Trackpoint>
          <Trackpoint>
            <Time>2019-10-10T09:05:47.000Z</Time>
            <Position>
              <LatitudeDegrees>38.1332832388579845428466796875</LatitudeDegrees>
              <LongitudeDegrees>-6.2785683386027812957763671875</LongitudeDegrees>
            </Position>
            <AltitudeMeters>585.20001220703125</AltitudeMeters>
            <DistanceMeters>NAN</DistanceMeters>
          </Trackpoint>
          <Trackpoint>
            <Time>2019-10-10T09:05:54.000Z</Time>
            <Position>
              <LatitudeDegrees>38.13311350531876087188720703125</LatitudeDegrees>
              <LongitudeDegrees>-6.2786404229700565338134765625</LongitudeDegrees>
            </Position>
            <AltitudeMeters>585.79998779296875</AltitudeMeters>
            <DistanceMeters>NAN</DistanceMeters>
          </Trackpoint>
          <Trackpoint>
            <Time>2019-10-10T09:06:00.000Z</Time>
            <Position>
              <LatitudeDegrees>38.13296430744230747222900390625</LatitudeDegrees>
              <LongitudeDegrees>-6.27869389951229095458984375</LongitudeDegrees>
            </Position>
            <AltitudeMeters>587</AltitudeMeters>
            <DistanceMeters>NAN</DistanceMeters>
          </Trackpoint>
          <Trackpoint>
            <Time>2019-10-10T09:06:09.000Z</Time>
            <Position>
              <LatitudeDegrees>38.1327327154576778411865234375</LatitudeDegrees>
              <LongitudeDegrees>-6.27875215373933315277099609375</LongitudeDegrees>
            </Position>
            <AltitudeMeters>587.20001220703125</AltitudeMeters>
            <DistanceMeters>NAN</DistanceMeters>
          </Trackpoint>
          <Trackpoint>
            <Time>2019-10-10T09:06:12.000Z</Time>
            <Position>
              <LatitudeDegrees>38.13265333883464336395263671875</LatitudeDegrees>
              <LongitudeDegrees>-6.278767324984073638916015625</LongitudeDegrees>
            </Position>
            <AltitudeMeters>588</AltitudeMeters>
            <DistanceMeters>NAN</DistanceMeters>
          </Trackpoint>
          <Trackpoint>
            <Time>2019-10-10T09:06:18.000Z</Time>
            <Position>
              <LatitudeDegrees>38.1324960105121135711669921875</LatitudeDegrees>
              <LongitudeDegrees>-6.278793811798095703125</LongitudeDegrees>
            </Position>
            <AltitudeMeters>588.4000244140625</AltitudeMeters>
            <DistanceMeters>NAN</DistanceMeters>
          </Trackpoint>
          <Trackpoint>
            <Time>2019-10-10T09:06:21.000Z</Time>
            <Position>
              <LatitudeDegrees>38.13241881318390369415283203125</LatitudeDegrees>
              <LongitudeDegrees>-6.27880278043448925018310546875</LongitudeDegrees>
            </Position>
            <AltitudeMeters>589.4000244140625</AltitudeMeters>
            <DistanceMeters>NAN</DistanceMeters>
          </Trackpoint>
          <Trackpoint>
            <Time>2019-10-10T09:06:27.000Z</Time>
            <Position>
              <LatitudeDegrees>38.1322576291859149932861328125</LatitudeDegrees>
              <LongitudeDegrees>-6.2788110785186290740966796875</LongitudeDegrees>
            </Position>
            <AltitudeMeters>589.20001220703125</AltitudeMeters>
            <DistanceMeters>NAN</DistanceMeters>
          </Trackpoint>
          <Trackpoint>
            <Time>2019-10-10T09:06:29.000Z</Time>
            <Position>
              <LatitudeDegrees>38.13220423646271228790283203125</LatitudeDegrees>
              <LongitudeDegrees>-6.2788124196231365203857421875</LongitudeDegrees>
            </Position>
            <AltitudeMeters>590.5999755859375</AltitudeMeters>
            <DistanceMeters>NAN</DistanceMeters>
          </Trackpoint>
          <Trackpoint>
            <Time>2019-10-10T09:06:38.000Z</Time>
            <Position>
              <LatitudeDegrees>38.13196652568876743316650390625</LatitudeDegrees>
              <LongitudeDegrees>-6.27880998887121677398681640625</LongitudeDegrees>
            </Position>
            <AltitudeMeters>592.20001220703125</AltitudeMeters>
            <DistanceMeters>NAN</DistanceMeters>
          </Trackpoint>
          <Trackpoint>
            <Time>2019-10-10T09:06:40.000Z</Time>
            <Position>
              <LatitudeDegrees>38.13191346824169158935546875</LatitudeDegrees>
              <LongitudeDegrees>-6.2788053788244724273681640625</LongitudeDegrees>
            </Position>
            <AltitudeMeters>591.79998779296875</AltitudeMeters>
            <DistanceMeters>NAN</DistanceMeters>
          </Trackpoint>
          <Trackpoint>
            <Time>2019-10-10T09:06:51.000Z</Time>
            <Position>
              <LatitudeDegrees>38.1316246278584003448486328125</LatitudeDegrees>
              <LongitudeDegrees>-6.27876363694667816162109375</LongitudeDegrees>
            </Position>
            <AltitudeMeters>593</AltitudeMeters>
            <DistanceMeters>NAN</DistanceMeters>
          </Trackpoint>
          <Trackpoint>
            <Time>2019-10-10T09:06:54.000Z</Time>
            <Position>
              <LatitudeDegrees>38.1315453350543975830078125</LatitudeDegrees>
              <LongitudeDegrees>-6.278747208416461944580078125</LongitudeDegrees>
            </Position>
            <AltitudeMeters>593.20001220703125</AltitudeMeters>
            <DistanceMeters>NAN</DistanceMeters>
          </Trackpoint>
          <Trackpoint>
            <Time>2019-10-10T09:07:01.000Z</Time>
            <Position>
              <LatitudeDegrees>38.13136068172752857208251953125</LatitudeDegrees>
              <LongitudeDegrees>-6.27871829085052013397216796875</LongitudeDegrees>
            </Position>
            <AltitudeMeters>594.4000244140625</AltitudeMeters>
            <DistanceMeters>NAN</DistanceMeters>
          </Trackpoint>
          <Trackpoint>
            <Time>2019-10-10T09:07:07.000Z</Time>
            <Position>
              <LatitudeDegrees>38.131203018128871917724609375</LatitudeDegrees>
              <LongitudeDegrees>-6.2786980904638767242431640625</LongitudeDegrees>
            </Position>
            <AltitudeMeters>595.79998779296875</AltitudeMeters>
            <DistanceMeters>NAN</DistanceMeters>
          </Trackpoint>
          <Trackpoint>
            <Time>2019-10-10T09:07:09.000Z</Time>
            <Position>
              <LatitudeDegrees>38.13114979304373264312744140625</LatitudeDegrees>
              <LongitudeDegrees>-6.27868677489459514617919921875</LongitudeDegrees>
            </Position>
            <AltitudeMeters>595.5999755859375</AltitudeMeters>
            <DistanceMeters>NAN</DistanceMeters>
          </Trackpoint>
          <Trackpoint>
            <Time>2019-10-10T09:07:17.000Z</Time>
            <Position>
              <LatitudeDegrees>38.13094074837863445281982421875</LatitudeDegrees>
              <LongitudeDegrees>-6.27864855341613292694091796875</LongitudeDegrees>
            </Position>
            <AltitudeMeters>596.79998779296875</AltitudeMeters>
            <DistanceMeters>NAN</DistanceMeters>
          </Trackpoint>
          <Trackpoint>
            <Time>2019-10-10T09:07:19.000Z</Time>
            <Position>
              <LatitudeDegrees>38.13089163042604923248291015625</LatitudeDegrees>
              <LongitudeDegrees>-6.27864235080778598785400390625</LongitudeDegrees>
            </Position>
            <AltitudeMeters>597.4000244140625</AltitudeMeters>
            <DistanceMeters>NAN</DistanceMeters>
          </Trackpoint>
          <Trackpoint>
            <Time>2019-10-10T09:07:23.000Z</Time>
            <Position>
              <LatitudeDegrees>38.13078534789383411407470703125</LatitudeDegrees>
              <LongitudeDegrees>-6.2786223180592060089111328125</LongitudeDegrees>
            </Position>
            <AltitudeMeters>597.79998779296875</AltitudeMeters>
            <DistanceMeters>NAN</DistanceMeters>
          </Trackpoint>
          <Trackpoint>
            <Time>2019-10-10T09:07:26.000Z</Time>
            <Position>
              <LatitudeDegrees>38.13070605508983135223388671875</LatitudeDegrees>
              <LongitudeDegrees>-6.2786073982715606689453125</LongitudeDegrees>
            </Position>
            <AltitudeMeters>598.79998779296875</AltitudeMeters>
            <DistanceMeters>NAN</DistanceMeters>
          </Trackpoint>
          <Trackpoint>
            <Time>2019-10-10T09:07:27.000Z</Time>
            <Position>
              <LatitudeDegrees>38.13068074174225330352783203125</LatitudeDegrees>
              <LongitudeDegrees>-6.27860127948224544525146484375</LongitudeDegrees>
            </Position>
            <AltitudeMeters>598.5999755859375</AltitudeMeters>
            <DistanceMeters>NAN</DistanceMeters>
          </Trackpoint>
          <Trackpoint>
            <Time>2019-10-10T09:07:31.000Z</Time>
            <Position>
              <LatitudeDegrees>38.130577392876148223876953125</LatitudeDegrees>
              <LongitudeDegrees>-6.27857747487723827362060546875</LongitudeDegrees>
            </Position>
            <AltitudeMeters>600.20001220703125</AltitudeMeters>
            <DistanceMeters>NAN</DistanceMeters>
          </Trackpoint>
          <Trackpoint>
            <Time>2019-10-10T09:07:36.000Z</Time>
            <Position>
              <LatitudeDegrees>38.130446635186672210693359375</LatitudeDegrees>
              <LongitudeDegrees>-6.27854428254067897796630859375</LongitudeDegrees>
            </Position>
            <AltitudeMeters>600</AltitudeMeters>
            <DistanceMeters>NAN</DistanceMeters>
          </Trackpoint>
          <Trackpoint>
            <Time>2019-10-10T09:07:44.000Z</Time>
            <Position>
              <LatitudeDegrees>38.13024111092090606689453125</LatitudeDegrees>
              <LongitudeDegrees>-6.2784694321453571319580078125</LongitudeDegrees>
            </Position>
            <AltitudeMeters>601.20001220703125</AltitudeMeters>
            <DistanceMeters>NAN</DistanceMeters>
          </Trackpoint>
          <Trackpoint>
            <Time>2019-10-10T09:07:45.000Z</Time>
            <Position>
              <LatitudeDegrees>38.13021219335496425628662109375</LatitudeDegrees>
              <LongitudeDegrees>-6.27845861949026584625244140625</LongitudeDegrees>
            </Position>
            <AltitudeMeters>601.79998779296875</AltitudeMeters>
            <DistanceMeters>NAN</DistanceMeters>
          </Trackpoint>
          <Trackpoint>
            <Time>2019-10-10T09:07:53.000Z</Time>
            <Position>
              <LatitudeDegrees>38.12999862246215343475341796875</LatitudeDegrees>
              <LongitudeDegrees>-6.278369687497615814208984375</LongitudeDegrees>
            </Position>
            <AltitudeMeters>602.5999755859375</AltitudeMeters>
            <DistanceMeters>NAN</DistanceMeters>
          </Trackpoint>
          <Trackpoint>
            <Time>2019-10-10T09:07:55.000Z</Time>
            <Position>
              <LatitudeDegrees>38.12994539737701416015625</LatitudeDegrees>
              <LongitudeDegrees>-6.27834294922649860382080078125</LongitudeDegrees>
            </Position>
            <AltitudeMeters>603.20001220703125</AltitudeMeters>
            <DistanceMeters>NAN</DistanceMeters>
          </Trackpoint>
          <Trackpoint>
            <Time>2019-10-10T09:08:02.000Z</Time>
            <Position>
              <LatitudeDegrees>38.12976895831525325775146484375</LatitudeDegrees>
              <LongitudeDegrees>-6.278240270912647247314453125</LongitudeDegrees>
            </Position>
            <AltitudeMeters>604.20001220703125</AltitudeMeters>
            <DistanceMeters>NAN</DistanceMeters>
          </Trackpoint>
          <Trackpoint>
            <Time>2019-10-10T09:08:03.000Z</Time>
            <Position>
              <LatitudeDegrees>38.1297428905963897705078125</LatitudeDegrees>
              <LongitudeDegrees>-6.27822459675371646881103515625</LongitudeDegrees>
            </Position>
            <AltitudeMeters>604.20001220703125</AltitudeMeters>
            <DistanceMeters>NAN</DistanceMeters>
          </Trackpoint>
          <Trackpoint>
            <Time>2019-10-10T09:08:11.000Z</Time>
            <Position>
              <LatitudeDegrees>38.129546754062175750732421875</LatitudeDegrees>
              <LongitudeDegrees>-6.27809702418744564056396484375</LongitudeDegrees>
            </Position>
            <AltitudeMeters>605.20001220703125</AltitudeMeters>
            <DistanceMeters>NAN</DistanceMeters>
          </Trackpoint>
          <Trackpoint>
            <Time>2019-10-10T09:08:17.000Z</Time>
            <Position>
              <LatitudeDegrees>38.1293926946818828582763671875</LatitudeDegrees>
              <LongitudeDegrees>-6.27797749824821949005126953125</LongitudeDegrees>
            </Position>
            <AltitudeMeters>606.79998779296875</AltitudeMeters>
            <DistanceMeters>NAN</DistanceMeters>
          </Trackpoint>
          <Trackpoint>
            <Time>2019-10-10T09:08:20.000Z</Time>
            <Position>
              <LatitudeDegrees>38.12931130640208721160888671875</LatitudeDegrees>
              <LongitudeDegrees>-6.2779068388044834136962890625</LongitudeDegrees>
            </Position>
            <AltitudeMeters>607</AltitudeMeters>
            <DistanceMeters>NAN</DistanceMeters>
          </Trackpoint>
          <Trackpoint>
            <Time>2019-10-10T09:08:25.000Z</Time>
            <Position>
              <LatitudeDegrees>38.1291811354458332061767578125</LatitudeDegrees>
              <LongitudeDegrees>-6.27778521738946437835693359375</LongitudeDegrees>
            </Position>
            <AltitudeMeters>608</AltitudeMeters>
            <DistanceMeters>NAN</DistanceMeters>
          </Trackpoint>
          <Trackpoint>
            <Time>2019-10-10T09:08:29.000Z</Time>
            <Position>
              <LatitudeDegrees>38.12907946296036243438720703125</LatitudeDegrees>
              <LongitudeDegrees>-6.2776838801801204681396484375</LongitudeDegrees>
            </Position>
            <AltitudeMeters>608.79998779296875</AltitudeMeters>
            <DistanceMeters>NAN</DistanceMeters>
          </Trackpoint>
          <Trackpoint>
            <Time>2019-10-10T09:08:31.000Z</Time>
            <Position>
              <LatitudeDegrees>38.12902875244617462158203125</LatitudeDegrees>
              <LongitudeDegrees>-6.2776339240372180938720703125</LongitudeDegrees>
            </Position>
            <AltitudeMeters>609</AltitudeMeters>
            <DistanceMeters>NAN</DistanceMeters>
          </Trackpoint>
          <Trackpoint>
            <Time>2019-10-10T09:08:38.000Z</Time>
            <Position>
              <LatitudeDegrees>38.1288572587072849273681640625</LatitudeDegrees>
              <LongitudeDegrees>-6.27744742669165134429931640625</LongitudeDegrees>
            </Position>
            <AltitudeMeters>609.4000244140625</AltitudeMeters>
            <DistanceMeters>NAN</DistanceMeters>
          </Trackpoint>
          <Trackpoint>
            <Time>2019-10-10T09:08:44.000Z</Time>
            <Position>
              <LatitudeDegrees>38.12871166504919528961181640625</LatitudeDegrees>
              <LongitudeDegrees>-6.27727928571403026580810546875</LongitudeDegrees>
            </Position>
            <AltitudeMeters>610.20001220703125</AltitudeMeters>
            <DistanceMeters>NAN</DistanceMeters>
          </Trackpoint>
          <Trackpoint>
            <Time>2019-10-10T09:08:48.000Z</Time>
            <Position>
              <LatitudeDegrees>38.12861426733434200286865234375</LatitudeDegrees>
              <LongitudeDegrees>-6.27716462127864360809326171875</LongitudeDegrees>
            </Position>
            <AltitudeMeters>610</AltitudeMeters>
            <DistanceMeters>NAN</DistanceMeters>
          </Trackpoint>
          <Trackpoint>
            <Time>2019-10-10T09:08:57.000Z</Time>
            <Position>
              <LatitudeDegrees>38.1283697672188282012939453125</LatitudeDegrees>
              <LongitudeDegrees>-6.2768842466175556182861328125</LongitudeDegrees>
            </Position>
            <AltitudeMeters>610.5999755859375</AltitudeMeters>
            <DistanceMeters>NAN</DistanceMeters>
          </Trackpoint>
          <Trackpoint>
            <Time>2019-10-10T09:09:04.000Z</Time>
            <Position>
              <LatitudeDegrees>38.1281883828341960906982421875</LatitudeDegrees>
              <LongitudeDegrees>-6.27666388638317584991455078125</LongitudeDegrees>
            </Position>
            <AltitudeMeters>609.4000244140625</AltitudeMeters>
            <DistanceMeters>NAN</DistanceMeters>
          </Trackpoint>
          <Trackpoint>
            <Time>2019-10-10T09:09:05.000Z</Time>
            <Position>
              <LatitudeDegrees>38.1281605549156665802001953125</LatitudeDegrees>
              <LongitudeDegrees>-6.2766371481120586395263671875</LongitudeDegrees>
            </Position>
            <AltitudeMeters>609</AltitudeMeters>
            <DistanceMeters>NAN</DistanceMeters>
          </Trackpoint>
          <Trackpoint>
            <Time>2019-10-10T09:09:08.000Z</Time>
            <Position>
              <LatitudeDegrees>38.1280727125704288482666015625</LatitudeDegrees>
              <LongitudeDegrees>-6.276547797024250030517578125</LongitudeDegrees>
            </Position>
            <AltitudeMeters>609.20001220703125</AltitudeMeters>
            <DistanceMeters>NAN</DistanceMeters>
          </Trackpoint>
          <Trackpoint>
            <Time>2019-10-10T09:09:11.000Z</Time>
            <Position>
              <LatitudeDegrees>38.12796735204756259918212890625</LatitudeDegrees>
              <LongitudeDegrees>-6.276449896395206451416015625</LongitudeDegrees>
            </Position>
            <AltitudeMeters>608.20001220703125</AltitudeMeters>
            <DistanceMeters>NAN</DistanceMeters>
          </Trackpoint>
          <Trackpoint>
            <Time>2019-10-10T09:09:12.000Z</Time>
            <Position>
              <LatitudeDegrees>38.12792762182652950286865234375</LatitudeDegrees>
              <LongitudeDegrees>-6.276415698230266571044921875</LongitudeDegrees>
            </Position>
            <AltitudeMeters>606</AltitudeMeters>
            <DistanceMeters>NAN</DistanceMeters>
          </Trackpoint>
          <Trackpoint>
            <Time>2019-10-10T09:09:13.000Z</Time>
            <Position>
              <LatitudeDegrees>38.12788856215775012969970703125</LatitudeDegrees>
              <LongitudeDegrees>-6.27638451755046844482421875</LongitudeDegrees>
            </Position>
            <AltitudeMeters>607</AltitudeMeters>
            <DistanceMeters>NAN</DistanceMeters>
          </Trackpoint>
          <Trackpoint>
            <Time>2019-10-10T09:09:18.000Z</Time>
            <Position>
              <LatitudeDegrees>38.12768756411969661712646484375</LatitudeDegrees>
              <LongitudeDegrees>-6.27624571323394775390625</LongitudeDegrees>
            </Position>
            <AltitudeMeters>607</AltitudeMeters>
            <DistanceMeters>NAN</DistanceMeters>
          </Trackpoint>
          <Trackpoint>
            <Time>2019-10-10T09:09:19.000Z</Time>
            <Position>
              <LatitudeDegrees>38.12764607369899749755859375</LatitudeDegrees>
              <LongitudeDegrees>-6.27622350119054317474365234375</LongitudeDegrees>
            </Position>
            <AltitudeMeters>607</AltitudeMeters>
            <DistanceMeters>NAN</DistanceMeters>
          </Trackpoint>
          <Trackpoint>
            <Time>2019-10-10T09:09:27.000Z</Time>
            <Position>
              <LatitudeDegrees>38.1273009069263935089111328125</LatitudeDegrees>
              <LongitudeDegrees>-6.27606826834380626678466796875</LongitudeDegrees>
            </Position>
            <AltitudeMeters>607.79998779296875</AltitudeMeters>
            <DistanceMeters>NAN</DistanceMeters>
          </Trackpoint>
          <Trackpoint>
            <Time>2019-10-10T09:09:29.000Z</Time>
            <Position>
              <LatitudeDegrees>38.1272174231708049774169921875</LatitudeDegrees>
              <LongitudeDegrees>-6.27603809349238872528076171875</LongitudeDegrees>
            </Position>
            <AltitudeMeters>608.20001220703125</AltitudeMeters>
            <DistanceMeters>NAN</DistanceMeters>
          </Trackpoint>
          <Trackpoint>
            <Time>2019-10-10T09:09:36.000Z</Time>
            <Position>
              <LatitudeDegrees>38.12691458500921726226806640625</LatitudeDegrees>
              <LongitudeDegrees>-6.2759649194777011871337890625</LongitudeDegrees>
            </Position>
            <AltitudeMeters>609</AltitudeMeters>
            <DistanceMeters>NAN</DistanceMeters>
          </Trackpoint>
          <Trackpoint>
            <Time>2019-10-10T09:09:37.000Z</Time>
            <Position>
              <LatitudeDegrees>38.12687368132174015045166015625</LatitudeDegrees>
              <LongitudeDegrees>-6.2759600579738616943359375</LongitudeDegrees>
            </Position>
            <AltitudeMeters>609.5999755859375</AltitudeMeters>
            <DistanceMeters>NAN</DistanceMeters>
          </Trackpoint>
          <Trackpoint>
            <Time>2019-10-10T09:09:43.000Z</Time>
            <Position>
              <LatitudeDegrees>38.1266390718519687652587890625</LatitudeDegrees>
              <LongitudeDegrees>-6.2759508378803730010986328125</LongitudeDegrees>
            </Position>
            <AltitudeMeters>610.5999755859375</AltitudeMeters>
            <DistanceMeters>NAN</DistanceMeters>
          </Trackpoint>
          <Trackpoint>
            <Time>2019-10-10T09:09:45.000Z</Time>
            <Position>
              <LatitudeDegrees>38.12656455673277378082275390625</LatitudeDegrees>
              <LongitudeDegrees>-6.275947652757167816162109375</LongitudeDegrees>
            </Position>
            <AltitudeMeters>610.5999755859375</AltitudeMeters>
            <DistanceMeters>NAN</DistanceMeters>
          </Trackpoint>
          <Trackpoint>
            <Time>2019-10-10T09:09:52.000Z</Time>
            <Position>
              <LatitudeDegrees>38.12632374465465545654296875</LatitudeDegrees>
              <LongitudeDegrees>-6.2759367562830448150634765625</LongitudeDegrees>
            </Position>
            <AltitudeMeters>611.5999755859375</AltitudeMeters>
            <DistanceMeters>NAN</DistanceMeters>
          </Trackpoint>
          <Trackpoint>
            <Time>2019-10-10T09:09:53.000Z</Time>
            <Position>
              <LatitudeDegrees>38.12628761865198612213134765625</LatitudeDegrees>
              <LongitudeDegrees>-6.2759367562830448150634765625</LongitudeDegrees>
            </Position>
            <AltitudeMeters>611.5999755859375</AltitudeMeters>
            <DistanceMeters>NAN</DistanceMeters>
          </Trackpoint>
          <Trackpoint>
            <Time>2019-10-10T09:10:01.000Z</Time>
            <Position>
              <LatitudeDegrees>38.12601797282695770263671875</LatitudeDegrees>
              <LongitudeDegrees>-6.2759387679398059844970703125</LongitudeDegrees>
            </Position>
            <AltitudeMeters>611</AltitudeMeters>
            <DistanceMeters>NAN</DistanceMeters>
          </Trackpoint>
          <Trackpoint>
            <Time>2019-10-10T09:10:10.000Z</Time>
            <Position>
              <LatitudeDegrees>38.1256966106593608856201171875</LatitudeDegrees>
              <LongitudeDegrees>-6.27592879347503185272216796875</LongitudeDegrees>
            </Position>
            <AltitudeMeters>611.79998779296875</AltitudeMeters>
            <DistanceMeters>NAN</DistanceMeters>
          </Trackpoint>
          <Trackpoint>
            <Time>2019-10-10T09:10:15.000Z</Time>
            <Position>
              <LatitudeDegrees>38.1255249492824077606201171875</LatitudeDegrees>
              <LongitudeDegrees>-6.27592141740024089813232421875</LongitudeDegrees>
            </Position>
            <AltitudeMeters>612.79998779296875</AltitudeMeters>
            <DistanceMeters>NAN</DistanceMeters>
          </Trackpoint>
          <Trackpoint>
            <Time>2019-10-10T09:10:20.000Z</Time>
            <Position>
              <LatitudeDegrees>38.1253472529351711273193359375</LatitudeDegrees>
              <LongitudeDegrees>-6.27590842545032501220703125</LongitudeDegrees>
            </Position>
            <AltitudeMeters>613.20001220703125</AltitudeMeters>
            <DistanceMeters>NAN</DistanceMeters>
          </Trackpoint>
          <Trackpoint>
            <Time>2019-10-10T09:10:25.000Z</Time>
            <Position>
              <LatitudeDegrees>38.12517332844436168670654296875</LatitudeDegrees>
              <LongitudeDegrees>-6.2758787535130977630615234375</LongitudeDegrees>
            </Position>
            <AltitudeMeters>613</AltitudeMeters>
            <DistanceMeters>NAN</DistanceMeters>
          </Trackpoint>
          <Trackpoint>
            <Time>2019-10-10T09:10:29.000Z</Time>
            <Position>
              <LatitudeDegrees>38.1250347755849361419677734375</LatitudeDegrees>
              <LongitudeDegrees>-6.27585352398455142974853515625</LongitudeDegrees>
            </Position>
            <AltitudeMeters>613.4000244140625</AltitudeMeters>
            <DistanceMeters>NAN</DistanceMeters>
          </Trackpoint>
          <Trackpoint>
            <Time>2019-10-10T09:10:30.000Z</Time>
            <Position>
              <LatitudeDegrees>38.12499948777258396148681640625</LatitudeDegrees>
              <LongitudeDegrees>-6.2758428789675235748291015625</LongitudeDegrees>
            </Position>
            <AltitudeMeters>613.79998779296875</AltitudeMeters>
            <DistanceMeters>NAN</DistanceMeters>
          </Trackpoint>
          <Trackpoint>
            <Time>2019-10-10T09:10:37.000Z</Time>
            <Position>
              <LatitudeDegrees>38.12474953942000865936279296875</LatitudeDegrees>
              <LongitudeDegrees>-6.2757754884660243988037109375</LongitudeDegrees>
            </Position>
            <AltitudeMeters>613.5999755859375</AltitudeMeters>
            <DistanceMeters>NAN</DistanceMeters>
          </Trackpoint>
          <Trackpoint>
            <Time>2019-10-10T09:10:47.000Z</Time>
            <Position>
              <LatitudeDegrees>38.12438576482236385345458984375</LatitudeDegrees>
              <LongitudeDegrees>-6.27563559450209140777587890625</LongitudeDegrees>
            </Position>
            <AltitudeMeters>613.5999755859375</AltitudeMeters>
            <DistanceMeters>NAN</DistanceMeters>
          </Trackpoint>
          <Trackpoint>
            <Time>2019-10-10T09:10:53.000Z</Time>
            <Position>
              <LatitudeDegrees>38.12416993081569671630859375</LatitudeDegrees>
              <LongitudeDegrees>-6.27552696503698825836181640625</LongitudeDegrees>
            </Position>
            <AltitudeMeters>613.20001220703125</AltitudeMeters>
            <DistanceMeters>NAN</DistanceMeters>
          </Trackpoint>
          <Trackpoint>
            <Time>2019-10-10T09:10:56.000Z</Time>
            <Position>
              <LatitudeDegrees>38.12406272627413272857666015625</LatitudeDegrees>
              <LongitudeDegrees>-6.2754646874964237213134765625</LongitudeDegrees>
            </Position>
            <AltitudeMeters>613.4000244140625</AltitudeMeters>
            <DistanceMeters>NAN</DistanceMeters>
          </Trackpoint>
          <Trackpoint>
            <Time>2019-10-10T09:11:02.000Z</Time>
            <Position>
              <LatitudeDegrees>38.123841024935245513916015625</LatitudeDegrees>
              <LongitudeDegrees>-6.2753319181501865386962890625</LongitudeDegrees>
            </Position>
            <AltitudeMeters>612.5999755859375</AltitudeMeters>
            <DistanceMeters>NAN</DistanceMeters>
          </Trackpoint>
          <Trackpoint>
            <Time>2019-10-10T09:11:05.000Z</Time>
            <Position>
              <LatitudeDegrees>38.12373247928917407989501953125</LatitudeDegrees>
              <LongitudeDegrees>-6.275256313383579254150390625</LongitudeDegrees>
            </Position>
            <AltitudeMeters>612.79998779296875</AltitudeMeters>
            <DistanceMeters>NAN</DistanceMeters>
          </Trackpoint>
          <Trackpoint>
            <Time>2019-10-10T09:11:09.000Z</Time>
            <Position>
              <LatitudeDegrees>38.1235863827168941497802734375</LatitudeDegrees>
              <LongitudeDegrees>-6.27514961175620555877685546875</LongitudeDegrees>
            </Position>
            <AltitudeMeters>612.4000244140625</AltitudeMeters>
            <DistanceMeters>NAN</DistanceMeters>
          </Trackpoint>
          <Trackpoint>
            <Time>2019-10-10T09:11:14.000Z</Time>
            <Position>
              <LatitudeDegrees>38.12340675853192806243896484375</LatitudeDegrees>
              <LongitudeDegrees>-6.27502463757991790771484375</LongitudeDegrees>
            </Position>
            <AltitudeMeters>612.79998779296875</AltitudeMeters>
            <DistanceMeters>NAN</DistanceMeters>
          </Trackpoint>
          <Trackpoint>
            <Time>2019-10-10T09:11:15.000Z</Time>
            <Position>
              <LatitudeDegrees>38.12336887232959270477294921875</LatitudeDegrees>
              <LongitudeDegrees>-6.275006867945194244384765625</LongitudeDegrees>
            </Position>
            <AltitudeMeters>612.5999755859375</AltitudeMeters>
            <DistanceMeters>NAN</DistanceMeters>
          </Trackpoint>
          <Trackpoint>
            <Time>2019-10-10T09:11:21.000Z</Time>
            <Position>
              <LatitudeDegrees>38.12315194867551326751708984375</LatitudeDegrees>
              <LongitudeDegrees>-6.27486831508576869964599609375</LongitudeDegrees>
            </Position>
            <AltitudeMeters>612.5999755859375</AltitudeMeters>
            <DistanceMeters>NAN</DistanceMeters>
          </Trackpoint>
          <Trackpoint>
            <Time>2019-10-10T09:11:26.000Z</Time>
            <Position>
              <LatitudeDegrees>38.122974671423435211181640625</LatitudeDegrees>
              <LongitudeDegrees>-6.27475013025104999542236328125</LongitudeDegrees>
            </Position>
            <AltitudeMeters>612.5999755859375</AltitudeMeters>
            <DistanceMeters>NAN</DistanceMeters>
          </Trackpoint>
          <Trackpoint>
            <Time>2019-10-10T09:11:29.000Z</Time>
            <Position>
              <LatitudeDegrees>38.12286905944347381591796875</LatitudeDegrees>
              <LongitudeDegrees>-6.27468206919729709625244140625</LongitudeDegrees>
            </Position>
            <AltitudeMeters>612.5999755859375</AltitudeMeters>
            <DistanceMeters>NAN</DistanceMeters>
          </Trackpoint>
          <Trackpoint>
            <Time>2019-10-10T09:11:37.000Z</Time>
            <Position>
              <LatitudeDegrees>38.12258181162178516387939453125</LatitudeDegrees>
              <LongitudeDegrees>-6.274483166635036468505859375</LongitudeDegrees>
            </Position>
            <AltitudeMeters>612.5999755859375</AltitudeMeters>
            <DistanceMeters>NAN</DistanceMeters>
          </Trackpoint>
          <Trackpoint>
            <Time>2019-10-10T09:11:43.000Z</Time>
            <Position>
              <LatitudeDegrees>38.12237159349024295806884765625</LatitudeDegrees>
              <LongitudeDegrees>-6.27432902343571186065673828125</LongitudeDegrees>
            </Position>
            <AltitudeMeters>612.4000244140625</AltitudeMeters>
            <DistanceMeters>NAN</DistanceMeters>
          </Trackpoint>
          <Trackpoint>
            <Time>2019-10-10T09:11:45.000Z</Time>
            <Position>
              <LatitudeDegrees>38.12230370007455348968505859375</LatitudeDegrees>
              <LongitudeDegrees>-6.27428225241601467132568359375</LongitudeDegrees>
            </Position>
            <AltitudeMeters>613</AltitudeMeters>
            <DistanceMeters>NAN</DistanceMeters>
          </Trackpoint>
          <Trackpoint>
            <Time>2019-10-10T09:11:56.000Z</Time>
            <Position>
              <LatitudeDegrees>38.1219083257019519805908203125</LatitudeDegrees>
              <LongitudeDegrees>-6.274029873311519622802734375</LongitudeDegrees>
            </Position>
            <AltitudeMeters>614</AltitudeMeters>
            <DistanceMeters>NAN</DistanceMeters>
          </Trackpoint>
          <Trackpoint>
            <Time>2019-10-10T09:12:04.000Z</Time>
            <Position>
              <LatitudeDegrees>38.121629543602466583251953125</LatitudeDegrees>
              <LongitudeDegrees>-6.2738436274230480194091796875</LongitudeDegrees>
            </Position>
            <AltitudeMeters>614</AltitudeMeters>
            <DistanceMeters>NAN</DistanceMeters>
          </Trackpoint>
          <Trackpoint>
            <Time>2019-10-10T09:12:15.000Z</Time>
            <Position>
              <LatitudeDegrees>38.12125830911099910736083984375</LatitudeDegrees>
              <LongitudeDegrees>-6.27358320169150829315185546875</LongitudeDegrees>
            </Position>
            <AltitudeMeters>614.5999755859375</AltitudeMeters>
            <DistanceMeters>NAN</DistanceMeters>
          </Trackpoint>
          <Trackpoint>
            <Time>2019-10-10T09:12:20.000Z</Time>
            <Position>
              <LatitudeDegrees>38.12109201215207576751708984375</LatitudeDegrees>
              <LongitudeDegrees>-6.2734697945415973663330078125</LongitudeDegrees>
            </Position>
            <AltitudeMeters>615.20001220703125</AltitudeMeters>
            <DistanceMeters>NAN</DistanceMeters>
          </Trackpoint>
          <Trackpoint>
            <Time>2019-10-10T09:12:24.000Z</Time>
            <Position>
              <LatitudeDegrees>38.1209625117480754852294921875</LatitudeDegrees>
              <LongitudeDegrees>-6.27337935380637645721435546875</LongitudeDegrees>
            </Position>
            <AltitudeMeters>615.20001220703125</AltitudeMeters>
            <DistanceMeters>NAN</DistanceMeters>
          </Trackpoint>
          <Trackpoint>
            <Time>2019-10-10T09:12:35.000Z</Time>
            <Position>
              <LatitudeDegrees>38.12060904689133167266845703125</LatitudeDegrees>
              <LongitudeDegrees>-6.273155473172664642333984375</LongitudeDegrees>
            </Position>
            <AltitudeMeters>615.5999755859375</AltitudeMeters>
            <DistanceMeters>NAN</DistanceMeters>
          </Trackpoint>
          <Trackpoint>
            <Time>2019-10-10T09:12:36.000Z</Time>
            <Position>
              <LatitudeDegrees>38.12058021314442157745361328125</LatitudeDegrees>
              <LongitudeDegrees>-6.2731321714818477630615234375</LongitudeDegrees>
            </Position>
            <AltitudeMeters>616.5999755859375</AltitudeMeters>
            <DistanceMeters>NAN</DistanceMeters>
          </Trackpoint>
          <Trackpoint>
            <Time>2019-10-10T09:12:42.000Z</Time>
            <Position>
              <LatitudeDegrees>38.12040100805461406707763671875</LatitudeDegrees>
              <LongitudeDegrees>-6.27301306463778018951416015625</LongitudeDegrees>
            </Position>
            <AltitudeMeters>617.79998779296875</AltitudeMeters>
            <DistanceMeters>NAN</DistanceMeters>
          </Trackpoint>
          <Trackpoint>
            <Time>2019-10-10T09:12:44.000Z</Time>
            <Position>
              <LatitudeDegrees>38.120348118245601654052734375</LatitudeDegrees>
              <LongitudeDegrees>-6.2729782797396183013916015625</LongitudeDegrees>
            </Position>
            <AltitudeMeters>618</AltitudeMeters>
            <DistanceMeters>NAN</DistanceMeters>
          </Trackpoint>
          <Trackpoint>
            <Time>2019-10-10T09:12:54.000Z</Time>
            <Position>
              <LatitudeDegrees>38.12007880769670009613037109375</LatitudeDegrees>
              <LongitudeDegrees>-6.27279798500239849090576171875</LongitudeDegrees>
            </Position>
            <AltitudeMeters>618.79998779296875</AltitudeMeters>
            <DistanceMeters>NAN</DistanceMeters>
          </Trackpoint>
          <Trackpoint>
            <Time>2019-10-10T09:12:55.000Z</Time>
            <Position>
              <LatitudeDegrees>38.1200549192726612091064453125</LatitudeDegrees>
              <LongitudeDegrees>-6.272779293358325958251953125</LongitudeDegrees>
            </Position>
            <AltitudeMeters>619</AltitudeMeters>
            <DistanceMeters>NAN</DistanceMeters>
          </Trackpoint>
          <Trackpoint>
            <Time>2019-10-10T09:13:01.000Z</Time>
            <Position>
              <LatitudeDegrees>38.11990178190171718597412109375</LatitudeDegrees>
              <LongitudeDegrees>-6.27267493866384029388427734375</LongitudeDegrees>
            </Position>
            <AltitudeMeters>620.20001220703125</AltitudeMeters>
            <DistanceMeters>NAN</DistanceMeters>
          </Trackpoint>
          <Trackpoint>
            <Time>2019-10-10T09:13:02.000Z</Time>
            <Position>
              <LatitudeDegrees>38.11987646855413913726806640625</LatitudeDegrees>
              <LongitudeDegrees>-6.272658593952655792236328125</LongitudeDegrees>
            </Position>
            <AltitudeMeters>620.20001220703125</AltitudeMeters>
            <DistanceMeters>NAN</DistanceMeters>
          </Trackpoint>
          <Trackpoint>
            <Time>2019-10-10T09:13:10.000Z</Time>
            <Position>
              <LatitudeDegrees>38.1196797452867031097412109375</LatitudeDegrees>
              <LongitudeDegrees>-6.2725263275206089019775390625</LongitudeDegrees>
            </Position>
            <AltitudeMeters>621.5999755859375</AltitudeMeters>
            <DistanceMeters>NAN</DistanceMeters>
          </Trackpoint>
          <Trackpoint>
            <Time>2019-10-10T09:13:20.000Z</Time>
            <Position>
              <LatitudeDegrees>38.1194329820573329925537109375</LatitudeDegrees>
              <LongitudeDegrees>-6.272364221513271331787109375</LongitudeDegrees>
            </Position>
            <AltitudeMeters>622.20001220703125</AltitudeMeters>
            <DistanceMeters>NAN</DistanceMeters>
          </Trackpoint>
          <Trackpoint>
            <Time>2019-10-10T09:13:22.000Z</Time>
            <Position>
              <LatitudeDegrees>38.1193830259144306182861328125</LatitudeDegrees>
              <LongitudeDegrees>-6.27233035862445831298828125</LongitudeDegrees>
            </Position>
            <AltitudeMeters>622.5999755859375</AltitudeMeters>
            <DistanceMeters>NAN</DistanceMeters>
          </Trackpoint>
          <Trackpoint>
            <Time>2019-10-10T09:13:28.000Z</Time>
            <Position>
              <LatitudeDegrees>38.11922754161059856414794921875</LatitudeDegrees>
              <LongitudeDegrees>-6.27223245799541473388671875</LongitudeDegrees>
            </Position>
            <AltitudeMeters>623.20001220703125</AltitudeMeters>
            <DistanceMeters>NAN</DistanceMeters>
          </Trackpoint>
          <Trackpoint>
            <Time>2019-10-10T09:13:31.000Z</Time>
            <Position>
              <LatitudeDegrees>38.11915378086268901824951171875</LatitudeDegrees>
              <LongitudeDegrees>-6.272170431911945343017578125</LongitudeDegrees>
            </Position>
            <AltitudeMeters>623.79998779296875</AltitudeMeters>
            <DistanceMeters>NAN</DistanceMeters>
          </Trackpoint>
          <Trackpoint>
            <Time>2019-10-10T09:13:35.000Z</Time>
            <Position>
              <LatitudeDegrees>38.1190410442650318145751953125</LatitudeDegrees>
              <LongitudeDegrees>-6.27209608443081378936767578125</LongitudeDegrees>
            </Position>
            <AltitudeMeters>623.4000244140625</AltitudeMeters>
            <DistanceMeters>NAN</DistanceMeters>
          </Trackpoint>
          <Trackpoint>
            <Time>2019-10-10T09:13:43.000Z</Time>
            <Position>
              <LatitudeDegrees>38.11881959438323974609375</LatitudeDegrees>
              <LongitudeDegrees>-6.2719446234405040740966796875</LongitudeDegrees>
            </Position>
            <AltitudeMeters>624.5999755859375</AltitudeMeters>
            <DistanceMeters>NAN</DistanceMeters>
          </Trackpoint>
          <Trackpoint>
            <Time>2019-10-10T09:13:45.000Z</Time>
            <Position>
              <LatitudeDegrees>38.1187592446804046630859375</LatitudeDegrees>
              <LongitudeDegrees>-6.27190497703850269317626953125</LongitudeDegrees>
            </Position>
            <AltitudeMeters>624.79998779296875</AltitudeMeters>
            <DistanceMeters>NAN</DistanceMeters>
          </Trackpoint>
          <Trackpoint>
            <Time>2019-10-10T09:13:49.000Z</Time>
            <Position>
              <LatitudeDegrees>38.1186434067785739898681640625</LatitudeDegrees>
              <LongitudeDegrees>-6.27182551659643650054931640625</LongitudeDegrees>
            </Position>
            <AltitudeMeters>625.79998779296875</AltitudeMeters>
            <DistanceMeters>NAN</DistanceMeters>
          </Trackpoint>
          <Trackpoint>
            <Time>2019-10-10T09:13:50.000Z</Time>
            <Position>
              <LatitudeDegrees>38.1186152435839176177978515625</LatitudeDegrees>
              <LongitudeDegrees>-6.2718071602284908294677734375</LongitudeDegrees>
            </Position>
            <AltitudeMeters>625.5999755859375</AltitudeMeters>
            <DistanceMeters>NAN</DistanceMeters>
          </Trackpoint>
          <Trackpoint>
            <Time>2019-10-10T09:13:59.000Z</Time>
            <Position>
              <LatitudeDegrees>38.1183584220707416534423828125</LatitudeDegrees>
              <LongitudeDegrees>-6.2716297991573810577392578125</LongitudeDegrees>
            </Position>
            <AltitudeMeters>626.4000244140625</AltitudeMeters>
            <DistanceMeters>NAN</DistanceMeters>
          </Trackpoint>
          <Trackpoint>
            <Time>2019-10-10T09:14:03.000Z</Time>
            <Position>
              <LatitudeDegrees>38.118258677423000335693359375</LatitudeDegrees>
              <LongitudeDegrees>-6.2715634144842624664306640625</LongitudeDegrees>
            </Position>
            <AltitudeMeters>627.20001220703125</AltitudeMeters>
            <DistanceMeters>NAN</DistanceMeters>
          </Trackpoint>
          <Trackpoint>
            <Time>2019-10-10T09:14:09.000Z</Time>
            <Position>
              <LatitudeDegrees>38.1181039474904537200927734375</LatitudeDegrees>
              <LongitudeDegrees>-6.2714608199894428253173828125</LongitudeDegrees>
            </Position>
            <AltitudeMeters>627.5999755859375</AltitudeMeters>
            <DistanceMeters>NAN</DistanceMeters>
          </Trackpoint>
          <Trackpoint>
            <Time>2019-10-10T09:14:20.000Z</Time>
            <Position>
              <LatitudeDegrees>38.1178105808794498443603515625</LatitudeDegrees>
              <LongitudeDegrees>-6.27128840424120426177978515625</LongitudeDegrees>
            </Position>
            <AltitudeMeters>628</AltitudeMeters>
            <DistanceMeters>NAN</DistanceMeters>
          </Trackpoint>
          <Trackpoint>
            <Time>2019-10-10T09:14:22.000Z</Time>
            <Position>
              <LatitudeDegrees>38.117754422128200531005859375</LatitudeDegrees>
              <LongitudeDegrees>-6.27126225270330905914306640625</LongitudeDegrees>
            </Position>
            <AltitudeMeters>628.5999755859375</AltitudeMeters>
            <DistanceMeters>NAN</DistanceMeters>
          </Trackpoint>
          <Trackpoint>
            <Time>2019-10-10T09:14:28.000Z</Time>
            <Position>
              <LatitudeDegrees>38.11758737079799175262451171875</LatitudeDegrees>
              <LongitudeDegrees>-6.27119620330631732940673828125</LongitudeDegrees>
            </Position>
            <AltitudeMeters>629.5999755859375</AltitudeMeters>
            <DistanceMeters>NAN</DistanceMeters>
          </Trackpoint>
          <Trackpoint>
            <Time>2019-10-10T09:14:30.000Z</Time>
            <Position>
              <LatitudeDegrees>38.11753414571285247802734375</LatitudeDegrees>
              <LongitudeDegrees>-6.2711667828261852264404296875</LongitudeDegrees>
            </Position>
            <AltitudeMeters>630</AltitudeMeters>
            <DistanceMeters>NAN</DistanceMeters>
          </Trackpoint>
          <Trackpoint>
            <Time>2019-10-10T09:14:37.000Z</Time>
            <Position>
              <LatitudeDegrees>38.11732468195259571075439453125</LatitudeDegrees>
              <LongitudeDegrees>-6.27111934125423431396484375</LongitudeDegrees>
            </Position>
            <AltitudeMeters>630.20001220703125</AltitudeMeters>
            <DistanceMeters>NAN</DistanceMeters>
          </Trackpoint>
          <Trackpoint>
            <Time>2019-10-10T09:14:39.000Z</Time>
            <Position>
              <LatitudeDegrees>38.11726114712655544281005859375</LatitudeDegrees>
              <LongitudeDegrees>-6.27111422829329967498779296875</LongitudeDegrees>
            </Position>
            <AltitudeMeters>630.79998779296875</AltitudeMeters>
            <DistanceMeters>NAN</DistanceMeters>
          </Trackpoint>
          <Trackpoint>
            <Time>2019-10-10T09:14:45.000Z</Time>
            <Position>
              <LatitudeDegrees>38.11707708053290843963623046875</LatitudeDegrees>
              <LongitudeDegrees>-6.2711198441684246063232421875</LongitudeDegrees>
            </Position>
            <AltitudeMeters>631.20001220703125</AltitudeMeters>
            <DistanceMeters>NAN</DistanceMeters>
          </Trackpoint>
          <Trackpoint>
            <Time>2019-10-10T09:14:46.000Z</Time>
            <Position>
              <LatitudeDegrees>38.11704724095761775970458984375</LatitudeDegrees>
              <LongitudeDegrees>-6.2711205147206783294677734375</LongitudeDegrees>
            </Position>
            <AltitudeMeters>631.4000244140625</AltitudeMeters>
            <DistanceMeters>NAN</DistanceMeters>
          </Trackpoint>
          <Trackpoint>
            <Time>2019-10-10T09:14:50.000Z</Time>
            <Position>
              <LatitudeDegrees>38.116923607885837554931640625</LatitudeDegrees>
              <LongitudeDegrees>-6.2711275555193424224853515625</LongitudeDegrees>
            </Position>
            <AltitudeMeters>632.20001220703125</AltitudeMeters>
            <DistanceMeters>NAN</DistanceMeters>
          </Trackpoint>
          <Trackpoint>
            <Time>2019-10-10T09:14:57.000Z</Time>
            <Position>
              <LatitudeDegrees>38.11670978553593158721923828125</LatitudeDegrees>
              <LongitudeDegrees>-6.2711459957063198089599609375</LongitudeDegrees>
            </Position>
            <AltitudeMeters>632.20001220703125</AltitudeMeters>
            <DistanceMeters>NAN</DistanceMeters>
          </Trackpoint>
          <Trackpoint>
            <Time>2019-10-10T09:15:05.000Z</Time>
            <Position>
              <LatitudeDegrees>38.11647073365747928619384765625</LatitudeDegrees>
              <LongitudeDegrees>-6.27118011005222797393798828125</LongitudeDegrees>
            </Position>
            <AltitudeMeters>633.4000244140625</AltitudeMeters>
            <DistanceMeters>NAN</DistanceMeters>
          </Trackpoint>
          <Trackpoint>
            <Time>2019-10-10T09:15:07.000Z</Time>
            <Position>
              <LatitudeDegrees>38.11640971340239048004150390625</LatitudeDegrees>
              <LongitudeDegrees>-6.2711942754685878753662109375</LongitudeDegrees>
            </Position>
            <AltitudeMeters>633.5999755859375</AltitudeMeters>
            <DistanceMeters>NAN</DistanceMeters>
          </Trackpoint>
          <Trackpoint>
            <Time>2019-10-10T09:15:13.000Z</Time>
            <Position>
              <LatitudeDegrees>38.11623503454029560089111328125</LatitudeDegrees>
              <LongitudeDegrees>-6.271240711212158203125</LongitudeDegrees>
            </Position>
            <AltitudeMeters>634.4000244140625</AltitudeMeters>
            <DistanceMeters>NAN</DistanceMeters>
          </Trackpoint>
          <Trackpoint>
            <Time>2019-10-10T09:15:15.000Z</Time>
            <Position>
              <LatitudeDegrees>38.1161764450371265411376953125</LatitudeDegrees>
              <LongitudeDegrees>-6.27126493491232395172119140625</LongitudeDegrees>
            </Position>
            <AltitudeMeters>634.5999755859375</AltitudeMeters>
            <DistanceMeters>NAN</DistanceMeters>
          </Trackpoint>
          <Trackpoint>
            <Time>2019-10-10T09:15:24.000Z</Time>
            <Position>
              <LatitudeDegrees>38.1159229762852191925048828125</LatitudeDegrees>
              <LongitudeDegrees>-6.2714122049510478973388671875</LongitudeDegrees>
            </Position>
            <AltitudeMeters>635.20001220703125</AltitudeMeters>
            <DistanceMeters>NAN</DistanceMeters>
          </Trackpoint>
          <Trackpoint>
            <Time>2019-10-10T09:15:27.000Z</Time>
            <Position>
              <LatitudeDegrees>38.11584167182445526123046875</LatitudeDegrees>
              <LongitudeDegrees>-6.27147071063518524169921875</LongitudeDegrees>
            </Position>
            <AltitudeMeters>635.4000244140625</AltitudeMeters>
            <DistanceMeters>NAN</DistanceMeters>
          </Trackpoint>
          <Trackpoint>
            <Time>2019-10-10T09:15:35.000Z</Time>
            <Position>
              <LatitudeDegrees>38.1156317889690399169921875</LatitudeDegrees>
              <LongitudeDegrees>-6.27164513804018497467041015625</LongitudeDegrees>
            </Position>
            <AltitudeMeters>636</AltitudeMeters>
            <DistanceMeters>NAN</DistanceMeters>
          </Trackpoint>
          <Trackpoint>
            <Time>2019-10-10T09:15:42.000Z</Time>
            <Position>
              <LatitudeDegrees>38.11544478870928287506103515625</LatitudeDegrees>
              <LongitudeDegrees>-6.2718306295573711395263671875</LongitudeDegrees>
            </Position>
            <AltitudeMeters>636.20001220703125</AltitudeMeters>
            <DistanceMeters>NAN</DistanceMeters>
          </Trackpoint>
          <Trackpoint>
            <Time>2019-10-10T09:15:52.000Z</Time>
            <Position>
              <LatitudeDegrees>38.11514169909060001373291015625</LatitudeDegrees>
              <LongitudeDegrees>-6.272163726389408111572265625</LongitudeDegrees>
            </Position>
            <AltitudeMeters>635.79998779296875</AltitudeMeters>
            <DistanceMeters>NAN</DistanceMeters>
          </Trackpoint>
          <Trackpoint>
            <Time>2019-10-10T09:15:57.000Z</Time>
            <Position>
              <LatitudeDegrees>38.1149828620254993438720703125</LatitudeDegrees>
              <LongitudeDegrees>-6.27233463339507579803466796875</LongitudeDegrees>
            </Position>
            <AltitudeMeters>635.79998779296875</AltitudeMeters>
            <DistanceMeters>NAN</DistanceMeters>
          </Trackpoint>
          <Trackpoint>
            <Time>2019-10-10T09:16:00.000Z</Time>
            <Position>
              <LatitudeDegrees>38.11488973908126354217529296875</LatitudeDegrees>
              <LongitudeDegrees>-6.27243940718472003936767578125</LongitudeDegrees>
            </Position>
            <AltitudeMeters>635.20001220703125</AltitudeMeters>
            <DistanceMeters>NAN</DistanceMeters>
          </Trackpoint>
          <Trackpoint>
            <Time>2019-10-10T09:16:01.000Z</Time>
            <Position>
              <LatitudeDegrees>38.1148547865450382232666015625</LatitudeDegrees>
              <LongitudeDegrees>-6.2724750302731990814208984375</LongitudeDegrees>
            </Position>
            <AltitudeMeters>635.20001220703125</AltitudeMeters>
            <DistanceMeters>NAN</DistanceMeters>
          </Trackpoint>
          <Trackpoint>
            <Time>2019-10-10T09:16:09.000Z</Time>
            <Position>
              <LatitudeDegrees>38.11455412767827510833740234375</LatitudeDegrees>
              <LongitudeDegrees>-6.27279329113662242889404296875</LongitudeDegrees>
            </Position>
            <AltitudeMeters>634.5999755859375</AltitudeMeters>
            <DistanceMeters>NAN</DistanceMeters>
          </Trackpoint>
          <Trackpoint>
            <Time>2019-10-10T09:16:11.000Z</Time>
            <Position>
              <LatitudeDegrees>38.11447869054973125457763671875</LatitudeDegrees>
              <LongitudeDegrees>-6.272879205644130706787109375</LongitudeDegrees>
            </Position>
            <AltitudeMeters>633.79998779296875</AltitudeMeters>
            <DistanceMeters>NAN</DistanceMeters>
          </Trackpoint>
          <Trackpoint>
            <Time>2019-10-10T09:16:13.000Z</Time>
            <Position>
              <LatitudeDegrees>38.11440325342118740081787109375</LatitudeDegrees>
              <LongitudeDegrees>-6.27296629361808300018310546875</LongitudeDegrees>
            </Position>
            <AltitudeMeters>633.5999755859375</AltitudeMeters>
            <DistanceMeters>NAN</DistanceMeters>
          </Trackpoint>
          <Trackpoint>
            <Time>2019-10-10T09:16:20.000Z</Time>
            <Position>
              <LatitudeDegrees>38.11413452960550785064697265625</LatitudeDegrees>
              <LongitudeDegrees>-6.27324440516531467437744140625</LongitudeDegrees>
            </Position>
            <AltitudeMeters>633</AltitudeMeters>
            <DistanceMeters>NAN</DistanceMeters>
          </Trackpoint>
          <Trackpoint>
            <Time>2019-10-10T09:16:22.000Z</Time>
            <Position>
              <LatitudeDegrees>38.11405800282955169677734375</LatitudeDegrees>
              <LongitudeDegrees>-6.27332746982574462890625</LongitudeDegrees>
            </Position>
            <AltitudeMeters>632.79998779296875</AltitudeMeters>
            <DistanceMeters>NAN</DistanceMeters>
          </Trackpoint>
          <Trackpoint>
            <Time>2019-10-10T09:16:23.000Z</Time>
            <Position>
              <LatitudeDegrees>38.11402003280818462371826171875</LatitudeDegrees>
              <LongitudeDegrees>-6.27336728386580944061279296875</LongitudeDegrees>
            </Position>
            <AltitudeMeters>632.5999755859375</AltitudeMeters>
            <DistanceMeters>NAN</DistanceMeters>
          </Trackpoint>
          <Trackpoint>
            <Time>2019-10-10T09:16:28.000Z</Time>
            <Position>
              <LatitudeDegrees>38.11381752602756023406982421875</LatitudeDegrees>
              <LongitudeDegrees>-6.27358320169150829315185546875</LongitudeDegrees>
            </Position>
            <AltitudeMeters>632.20001220703125</AltitudeMeters>
            <DistanceMeters>NAN</DistanceMeters>
          </Trackpoint>
          <Trackpoint>
            <Time>2019-10-10T09:16:29.000Z</Time>
            <Position>
              <LatitudeDegrees>38.11377678997814655303955078125</LatitudeDegrees>
              <LongitudeDegrees>-6.27362611703574657440185546875</LongitudeDegrees>
            </Position>
            <AltitudeMeters>632.20001220703125</AltitudeMeters>
            <DistanceMeters>NAN</DistanceMeters>
          </Trackpoint>
          <Trackpoint>
            <Time>2019-10-10T09:16:34.000Z</Time>
            <Position>
              <LatitudeDegrees>38.1135733611881732940673828125</LatitudeDegrees>
              <LongitudeDegrees>-6.273844130337238311767578125</LongitudeDegrees>
            </Position>
            <AltitudeMeters>632.4000244140625</AltitudeMeters>
            <DistanceMeters>NAN</DistanceMeters>
          </Trackpoint>
          <Trackpoint>
            <Time>2019-10-10T09:16:40.000Z</Time>
            <Position>
              <LatitudeDegrees>38.1133426912128925323486328125</LatitudeDegrees>
              <LongitudeDegrees>-6.27408594824373722076416015625</LongitudeDegrees>
            </Position>
            <AltitudeMeters>632.4000244140625</AltitudeMeters>
            <DistanceMeters>NAN</DistanceMeters>
          </Trackpoint>
          <Trackpoint>
            <Time>2019-10-10T09:16:41.000Z</Time>
            <Position>
              <LatitudeDegrees>38.11330296099185943603515625</LatitudeDegrees>
              <LongitudeDegrees>-6.27412802539765834808349609375</LongitudeDegrees>
            </Position>
            <AltitudeMeters>632.79998779296875</AltitudeMeters>
            <DistanceMeters>NAN</DistanceMeters>
          </Trackpoint>
          <Trackpoint>
            <Time>2019-10-10T09:16:49.000Z</Time>
            <Position>
              <LatitudeDegrees>38.11301537789404392242431640625</LatitudeDegrees>
              <LongitudeDegrees>-6.274432875216007232666015625</LongitudeDegrees>
            </Position>
            <AltitudeMeters>633</AltitudeMeters>
            <DistanceMeters>NAN</DistanceMeters>
          </Trackpoint>
          <Trackpoint>
            <Time>2019-10-10T09:16:50.000Z</Time>
            <Position>
              <LatitudeDegrees>38.11297598294913768768310546875</LatitudeDegrees>
              <LongitudeDegrees>-6.274474449455738067626953125</LongitudeDegrees>
            </Position>
            <AltitudeMeters>633.4000244140625</AltitudeMeters>
            <DistanceMeters>NAN</DistanceMeters>
          </Trackpoint>
          <Trackpoint>
            <Time>2019-10-10T09:16:52.000Z</Time>
            <Position>
              <LatitudeDegrees>38.11290758661925792694091796875</LatitudeDegrees>
              <LongitudeDegrees>-6.27454854547977447509765625</LongitudeDegrees>
            </Position>
            <AltitudeMeters>633.79998779296875</AltitudeMeters>
            <DistanceMeters>NAN</DistanceMeters>
          </Trackpoint>
          <Trackpoint>
            <Time>2019-10-10T09:17:00.000Z</Time>
            <Position>
              <LatitudeDegrees>38.112625367939472198486328125</LatitudeDegrees>
              <LongitudeDegrees>-6.2748471088707447052001953125</LongitudeDegrees>
            </Position>
            <AltitudeMeters>634</AltitudeMeters>
            <DistanceMeters>NAN</DistanceMeters>
          </Trackpoint>
          <Trackpoint>
            <Time>2019-10-10T09:17:01.000Z</Time>
            <Position>
              <LatitudeDegrees>38.11258924193680286407470703125</LatitudeDegrees>
              <LongitudeDegrees>-6.27488222904503345489501953125</LongitudeDegrees>
            </Position>
            <AltitudeMeters>634</AltitudeMeters>
            <DistanceMeters>NAN</DistanceMeters>
          </Trackpoint>
          <Trackpoint>
            <Time>2019-10-10T09:17:10.000Z</Time>
            <Position>
              <LatitudeDegrees>38.11227089725434780120849609375</LatitudeDegrees>
              <LongitudeDegrees>-6.27522714436054229736328125</LongitudeDegrees>
            </Position>
            <AltitudeMeters>634.4000244140625</AltitudeMeters>
            <DistanceMeters>NAN</DistanceMeters>
          </Trackpoint>
          <Trackpoint>
            <Time>2019-10-10T09:17:12.000Z</Time>
            <Position>
              <LatitudeDegrees>38.11220166273415088653564453125</LatitudeDegrees>
              <LongitudeDegrees>-6.275304257869720458984375</LongitudeDegrees>
            </Position>
            <AltitudeMeters>634.20001220703125</AltitudeMeters>
            <DistanceMeters>NAN</DistanceMeters>
          </Trackpoint>
          <Trackpoint>
            <Time>2019-10-10T09:17:18.000Z</Time>
            <Position>
              <LatitudeDegrees>38.11199496500194072723388671875</LatitudeDegrees>
              <LongitudeDegrees>-6.27552352845668792724609375</LongitudeDegrees>
            </Position>
            <AltitudeMeters>635.20001220703125</AltitudeMeters>
            <DistanceMeters>NAN</DistanceMeters>
          </Trackpoint>
          <Trackpoint>
            <Time>2019-10-10T09:17:23.000Z</Time>
            <Position>
              <LatitudeDegrees>38.11182598583400249481201171875</LatitudeDegrees>
              <LongitudeDegrees>-6.2757052481174468994140625</LongitudeDegrees>
            </Position>
            <AltitudeMeters>635.5999755859375</AltitudeMeters>
            <DistanceMeters>NAN</DistanceMeters>
          </Trackpoint>
          <Trackpoint>
            <Time>2019-10-10T09:17:35.000Z</Time>
            <Position>
              <LatitudeDegrees>38.1114051304757595062255859375</LatitudeDegrees>
              <LongitudeDegrees>-6.27615393139421939849853515625</LongitudeDegrees>
            </Position>
            <AltitudeMeters>635.5999755859375</AltitudeMeters>
            <DistanceMeters>NAN</DistanceMeters>
          </Trackpoint>
          <Trackpoint>
            <Time>2019-10-10T09:17:37.000Z</Time>
            <Position>
              <LatitudeDegrees>38.11133312992751598358154296875</LatitudeDegrees>
              <LongitudeDegrees>-6.2762237526476383209228515625</LongitudeDegrees>
            </Position>
            <AltitudeMeters>636.20001220703125</AltitudeMeters>
            <DistanceMeters>NAN</DistanceMeters>
          </Trackpoint>
          <Trackpoint>
            <Time>2019-10-10T09:17:43.000Z</Time>
            <Position>
              <LatitudeDegrees>38.11110891401767730712890625</LatitudeDegrees>
              <LongitudeDegrees>-6.276416368782520294189453125</LongitudeDegrees>
            </Position>
            <AltitudeMeters>636.4000244140625</AltitudeMeters>
            <DistanceMeters>NAN</DistanceMeters>
          </Trackpoint>
          <Trackpoint>
            <Time>2019-10-10T09:17:44.000Z</Time>
            <Position>
              <LatitudeDegrees>38.11106909997761249542236328125</LatitudeDegrees>
              <LongitudeDegrees>-6.27644352614879608154296875</LongitudeDegrees>
            </Position>
            <AltitudeMeters>636</AltitudeMeters>
            <DistanceMeters>NAN</DistanceMeters>
          </Trackpoint>
          <Trackpoint>
            <Time>2019-10-10T09:17:45.000Z</Time>
            <Position>
              <LatitudeDegrees>38.1110316328704357147216796875</LatitudeDegrees>
              <LongitudeDegrees>-6.276470012962818145751953125</LongitudeDegrees>
            </Position>
            <AltitudeMeters>636</AltitudeMeters>
            <DistanceMeters>NAN</DistanceMeters>
          </Trackpoint>
          <Trackpoint>
            <Time>2019-10-10T09:17:54.000Z</Time>
            <Position>
              <LatitudeDegrees>38.11064757406711578369140625</LatitudeDegrees>
              <LongitudeDegrees>-6.27667427994310855865478515625</LongitudeDegrees>
            </Position>
            <AltitudeMeters>636.4000244140625</AltitudeMeters>
            <DistanceMeters>NAN</DistanceMeters>
          </Trackpoint>
          <Trackpoint>
            <Time>2019-10-10T09:17:57.000Z</Time>
            <Position>
              <LatitudeDegrees>38.1105168163776397705078125</LatitudeDegrees>
              <LongitudeDegrees>-6.27671618945896625518798828125</LongitudeDegrees>
            </Position>
            <AltitudeMeters>635.20001220703125</AltitudeMeters>
            <DistanceMeters>NAN</DistanceMeters>
          </Trackpoint>
          <Trackpoint>
            <Time>2019-10-10T09:18:01.000Z</Time>
            <Position>
              <LatitudeDegrees>38.1103295646607875823974609375</LatitudeDegrees>
              <LongitudeDegrees>-6.276768408715724945068359375</LongitudeDegrees>
            </Position>
            <AltitudeMeters>636.20001220703125</AltitudeMeters>
            <DistanceMeters>NAN</DistanceMeters>
          </Trackpoint>
          <Trackpoint>
            <Time>2019-10-10T09:18:02.000Z</Time>
            <Position>
              <LatitudeDegrees>38.11028237454593181610107421875</LatitudeDegrees>
              <LongitudeDegrees>-6.27677612006664276123046875</LongitudeDegrees>
            </Position>
            <AltitudeMeters>636.4000244140625</AltitudeMeters>
            <DistanceMeters>NAN</DistanceMeters>
          </Trackpoint>
          <Trackpoint>
            <Time>2019-10-10T09:18:04.000Z</Time>
            <Position>
              <LatitudeDegrees>38.11018162406980991363525390625</LatitudeDegrees>
              <LongitudeDegrees>-6.2767893634736537933349609375</LongitudeDegrees>
            </Position>
            <AltitudeMeters>635.20001220703125</AltitudeMeters>
            <DistanceMeters>NAN</DistanceMeters>
          </Trackpoint>
          <Trackpoint>
            <Time>2019-10-10T09:18:11.000Z</Time>
            <Position>
              <LatitudeDegrees>38.1098283268511295318603515625</LatitudeDegrees>
              <LongitudeDegrees>-6.27678819000720977783203125</LongitudeDegrees>
            </Position>
            <AltitudeMeters>634.4000244140625</AltitudeMeters>
            <DistanceMeters>NAN</DistanceMeters>
          </Trackpoint>
          <Trackpoint>
            <Time>2019-10-10T09:18:14.000Z</Time>
            <Position>
              <LatitudeDegrees>38.109682984650135040283203125</LatitudeDegrees>
              <LongitudeDegrees>-6.276771761476993560791015625</LongitudeDegrees>
            </Position>
            <AltitudeMeters>634.5999755859375</AltitudeMeters>
            <DistanceMeters>NAN</DistanceMeters>
          </Trackpoint>
          <Trackpoint>
            <Time>2019-10-10T09:18:16.000Z</Time>
            <Position>
              <LatitudeDegrees>38.1095849163830280303955078125</LatitudeDegrees>
              <LongitudeDegrees>-6.27674954943358898162841796875</LongitudeDegrees>
            </Position>
            <AltitudeMeters>634</AltitudeMeters>
            <DistanceMeters>NAN</DistanceMeters>
          </Trackpoint>
          <Trackpoint>
            <Time>2019-10-10T09:18:18.000Z</Time>
            <Position>
              <LatitudeDegrees>38.10948777012526988983154296875</LatitudeDegrees>
              <LongitudeDegrees>-6.27672993578016757965087890625</LongitudeDegrees>
            </Position>
            <AltitudeMeters>633.20001220703125</AltitudeMeters>
            <DistanceMeters>NAN</DistanceMeters>
          </Trackpoint>
          <Trackpoint>
            <Time>2019-10-10T09:18:21.000Z</Time>
            <Position>
              <LatitudeDegrees>38.10934393666684627532958984375</LatitudeDegrees>
              <LongitudeDegrees>-6.2766907922923564910888671875</LongitudeDegrees>
            </Position>
            <AltitudeMeters>632.79998779296875</AltitudeMeters>
            <DistanceMeters>NAN</DistanceMeters>
          </Trackpoint>
          <Trackpoint>
            <Time>2019-10-10T09:18:23.000Z</Time>
            <Position>
              <LatitudeDegrees>38.10925408266484737396240234375</LatitudeDegrees>
              <LongitudeDegrees>-6.27666355110704898834228515625</LongitudeDegrees>
            </Position>
            <AltitudeMeters>632.20001220703125</AltitudeMeters>
            <DistanceMeters>NAN</DistanceMeters>
          </Trackpoint>
          <Trackpoint>
            <Time>2019-10-10T09:18:24.000Z</Time>
            <Position>
              <LatitudeDegrees>38.10920781455934047698974609375</LatitudeDegrees>
              <LongitudeDegrees>-6.27664628438651561737060546875</LongitudeDegrees>
            </Position>
            <AltitudeMeters>632.4000244140625</AltitudeMeters>
            <DistanceMeters>NAN</DistanceMeters>
          </Trackpoint>
          <Trackpoint>
            <Time>2019-10-10T09:18:26.000Z</Time>
            <Position>
              <LatitudeDegrees>38.10911737382411956787109375</LatitudeDegrees>
              <LongitudeDegrees>-6.27661175094544887542724609375</LongitudeDegrees>
            </Position>
            <AltitudeMeters>633.20001220703125</AltitudeMeters>
            <DistanceMeters>NAN</DistanceMeters>
          </Trackpoint>
          <Trackpoint>
            <Time>2019-10-10T09:18:31.000Z</Time>
            <Position>
              <LatitudeDegrees>38.108864240348339080810546875</LatitudeDegrees>
              <LongitudeDegrees>-6.27650999464094638824462890625</LongitudeDegrees>
            </Position>
            <AltitudeMeters>632.20001220703125</AltitudeMeters>
            <DistanceMeters>NAN</DistanceMeters>
          </Trackpoint>
          <Trackpoint>
            <Time>2019-10-10T09:18:36.000Z</Time>
            <Position>
              <LatitudeDegrees>38.10861554928123950958251953125</LatitudeDegrees>
              <LongitudeDegrees>-6.276410333812236785888671875</LongitudeDegrees>
            </Position>
            <AltitudeMeters>631.79998779296875</AltitudeMeters>
            <DistanceMeters>NAN</DistanceMeters>
          </Trackpoint>
          <Trackpoint>
            <Time>2019-10-10T09:18:37.000Z</Time>
            <Position>
              <LatitudeDegrees>38.10856609605252742767333984375</LatitudeDegrees>
              <LongitudeDegrees>-6.27639432437717914581298828125</LongitudeDegrees>
            </Position>
            <AltitudeMeters>631.20001220703125</AltitudeMeters>
            <DistanceMeters>NAN</DistanceMeters>
          </Trackpoint>
          <Trackpoint>
            <Time>2019-10-10T09:18:40.000Z</Time>
            <Position>
              <LatitudeDegrees>38.10841103084385395050048828125</LatitudeDegrees>
              <LongitudeDegrees>-6.2763382494449615478515625</LongitudeDegrees>
            </Position>
            <AltitudeMeters>631.4000244140625</AltitudeMeters>
            <DistanceMeters>NAN</DistanceMeters>
          </Trackpoint>
          <Trackpoint>
            <Time>2019-10-10T09:18:42.000Z</Time>
            <Position>
              <LatitudeDegrees>38.10830106027424335479736328125</LatitudeDegrees>
              <LongitudeDegrees>-6.276302374899387359619140625</LongitudeDegrees>
            </Position>
            <AltitudeMeters>631.20001220703125</AltitudeMeters>
            <DistanceMeters>NAN</DistanceMeters>
          </Trackpoint>
          <Trackpoint>
            <Time>2019-10-10T09:18:45.000Z</Time>
            <Position>
              <LatitudeDegrees>38.1081428937613964080810546875</LatitudeDegrees>
              <LongitudeDegrees>-6.276268847286701202392578125</LongitudeDegrees>
            </Position>
            <AltitudeMeters>630.20001220703125</AltitudeMeters>
            <DistanceMeters>NAN</DistanceMeters>
          </Trackpoint>
          <Trackpoint>
            <Time>2019-10-10T09:18:47.000Z</Time>
            <Position>
              <LatitudeDegrees>38.108041472733020782470703125</LatitudeDegrees>
              <LongitudeDegrees>-6.27625568769872188568115234375</LongitudeDegrees>
            </Position>
            <AltitudeMeters>630.4000244140625</AltitudeMeters>
            <DistanceMeters>NAN</DistanceMeters>
          </Trackpoint>
          <Trackpoint>
            <Time>2019-10-10T09:18:51.000Z</Time>
            <Position>
              <LatitudeDegrees>38.107839636504650115966796875</LatitudeDegrees>
              <LongitudeDegrees>-6.27624236047267913818359375</LongitudeDegrees>
            </Position>
            <AltitudeMeters>630.5999755859375</AltitudeMeters>
            <DistanceMeters>NAN</DistanceMeters>
          </Trackpoint>
          <Trackpoint>
            <Time>2019-10-10T09:18:55.000Z</Time>
            <Position>
              <LatitudeDegrees>38.10762195847928524017333984375</LatitudeDegrees>
              <LongitudeDegrees>-6.276262812316417694091796875</LongitudeDegrees>
            </Position>
            <AltitudeMeters>629.79998779296875</AltitudeMeters>
            <DistanceMeters>NAN</DistanceMeters>
          </Trackpoint>
          <Trackpoint>
            <Time>2019-10-10T09:19:03.000Z</Time>
            <Position>
              <LatitudeDegrees>38.10718090273439884185791015625</LatitudeDegrees>
              <LongitudeDegrees>-6.27638242207467555999755859375</LongitudeDegrees>
            </Position>
            <AltitudeMeters>629.4000244140625</AltitudeMeters>
            <DistanceMeters>NAN</DistanceMeters>
          </Trackpoint>
          <Trackpoint>
            <Time>2019-10-10T09:19:08.000Z</Time>
            <Position>
              <LatitudeDegrees>38.10692626051604747772216796875</LatitudeDegrees>
              <LongitudeDegrees>-6.2765117548406124114990234375</LongitudeDegrees>
            </Position>
            <AltitudeMeters>628.5999755859375</AltitudeMeters>
            <DistanceMeters>NAN</DistanceMeters>
          </Trackpoint>
          <Trackpoint>
            <Time>2019-10-10T09:19:09.000Z</Time>
            <Position>
              <LatitudeDegrees>38.10687798075377941131591796875</LatitudeDegrees>
              <LongitudeDegrees>-6.2765422649681568145751953125</LongitudeDegrees>
            </Position>
            <AltitudeMeters>628.4000244140625</AltitudeMeters>
            <DistanceMeters>NAN</DistanceMeters>
          </Trackpoint>
          <Trackpoint>
            <Time>2019-10-10T09:19:12.000Z</Time>
            <Position>
              <LatitudeDegrees>38.10674387030303478240966796875</LatitudeDegrees>
              <LongitudeDegrees>-6.27661644481122493743896484375</LongitudeDegrees>
            </Position>
            <AltitudeMeters>629.5999755859375</AltitudeMeters>
            <DistanceMeters>NAN</DistanceMeters>
          </Trackpoint>
          <Trackpoint>
            <Time>2019-10-10T09:19:15.000Z</Time>
            <Position>
              <LatitudeDegrees>38.10662786476314067840576171875</LatitudeDegrees>
              <LongitudeDegrees>-6.27670378424227237701416015625</LongitudeDegrees>
            </Position>
            <AltitudeMeters>629.20001220703125</AltitudeMeters>
            <DistanceMeters>NAN</DistanceMeters>
          </Trackpoint>
          <Trackpoint>
            <Time>2019-10-10T09:19:18.000Z</Time>
            <Position>
              <LatitudeDegrees>38.1065189838409423828125</LatitudeDegrees>
              <LongitudeDegrees>-6.2768017686903476715087890625</LongitudeDegrees>
            </Position>
            <AltitudeMeters>630.5999755859375</AltitudeMeters>
            <DistanceMeters>NAN</DistanceMeters>
          </Trackpoint>
          <Trackpoint>
            <Time>2019-10-10T09:19:19.000Z</Time>
            <Position>
              <LatitudeDegrees>38.10648201964795589447021484375</LatitudeDegrees>
              <LongitudeDegrees>-6.2768317759037017822265625</LongitudeDegrees>
            </Position>
            <AltitudeMeters>631</AltitudeMeters>
            <DistanceMeters>NAN</DistanceMeters>
          </Trackpoint>
          <Trackpoint>
            <Time>2019-10-10T09:19:22.000Z</Time>
            <Position>
              <LatitudeDegrees>38.106381185352802276611328125</LatitudeDegrees>
              <LongitudeDegrees>-6.27691383473575115203857421875</LongitudeDegrees>
            </Position>
            <AltitudeMeters>631.20001220703125</AltitudeMeters>
            <DistanceMeters>NAN</DistanceMeters>
          </Trackpoint>
          <Trackpoint>
            <Time>2019-10-10T09:19:26.000Z</Time>
            <Position>
              <LatitudeDegrees>38.10625285841524600982666015625</LatitudeDegrees>
              <LongitudeDegrees>-6.277020536363124847412109375</LongitudeDegrees>
            </Position>
            <AltitudeMeters>632</AltitudeMeters>
            <DistanceMeters>NAN</DistanceMeters>
          </Trackpoint>
          <Trackpoint>
            <Time>2019-10-10T09:19:30.000Z</Time>
            <Position>
              <LatitudeDegrees>38.106131069362163543701171875</LatitudeDegrees>
              <LongitudeDegrees>-6.2771249748766422271728515625</LongitudeDegrees>
            </Position>
            <AltitudeMeters>632.79998779296875</AltitudeMeters>
            <DistanceMeters>NAN</DistanceMeters>
          </Trackpoint>
          <Trackpoint>
            <Time>2019-10-10T09:19:33.000Z</Time>
            <Position>
              <LatitudeDegrees>38.10603928752243518829345703125</LatitudeDegrees>
              <LongitudeDegrees>-6.27719990909099578857421875</LongitudeDegrees>
            </Position>
            <AltitudeMeters>632.79998779296875</AltitudeMeters>
            <DistanceMeters>NAN</DistanceMeters>
          </Trackpoint>
          <Trackpoint>
            <Time>2019-10-10T09:19:34.000Z</Time>
            <Position>
              <LatitudeDegrees>38.10600978322327136993408203125</LatitudeDegrees>
              <LongitudeDegrees>-6.27722480334341526031494140625</LongitudeDegrees>
            </Position>
            <AltitudeMeters>633</AltitudeMeters>
            <DistanceMeters>NAN</DistanceMeters>
          </Trackpoint>
          <Trackpoint>
            <Time>2019-10-10T09:19:37.000Z</Time>
            <Position>
              <LatitudeDegrees>38.10592194087803363800048828125</LatitudeDegrees>
              <LongitudeDegrees>-6.27729688771069049835205078125</LongitudeDegrees>
            </Position>
            <AltitudeMeters>633.5999755859375</AltitudeMeters>
            <DistanceMeters>NAN</DistanceMeters>
          </Trackpoint>
          <Trackpoint>
            <Time>2019-10-10T09:19:39.000Z</Time>
            <Position>
              <LatitudeDegrees>38.105866871774196624755859375</LatitudeDegrees>
              <LongitudeDegrees>-6.27734743058681488037109375</LongitudeDegrees>
            </Position>
            <AltitudeMeters>633.5999755859375</AltitudeMeters>
            <DistanceMeters>NAN</DistanceMeters>
          </Trackpoint>
          <Trackpoint>
            <Time>2019-10-10T09:19:41.000Z</Time>
            <Position>
              <LatitudeDegrees>38.10581029392778873443603515625</LatitudeDegrees>
              <LongitudeDegrees>-6.277396380901336669921875</LongitudeDegrees>
            </Position>
            <AltitudeMeters>634.20001220703125</AltitudeMeters>
            <DistanceMeters>NAN</DistanceMeters>
          </Trackpoint>
          <Trackpoint>
            <Time>2019-10-10T09:19:47.000Z</Time>
            <Position>
              <LatitudeDegrees>38.10563008300960063934326171875</LatitudeDegrees>
              <LongitudeDegrees>-6.2775444053113460540771484375</LongitudeDegrees>
            </Position>
            <AltitudeMeters>635.20001220703125</AltitudeMeters>
            <DistanceMeters>NAN</DistanceMeters>
          </Trackpoint>
          <Trackpoint>
            <Time>2019-10-10T09:19:58.000Z</Time>
            <Position>
              <LatitudeDegrees>38.1053084693849086761474609375</LatitudeDegrees>
              <LongitudeDegrees>-6.27784204669296741485595703125</LongitudeDegrees>
            </Position>
            <AltitudeMeters>635.79998779296875</AltitudeMeters>
            <DistanceMeters>NAN</DistanceMeters>
          </Trackpoint>
          <Trackpoint>
            <Time>2019-10-10T09:20:05.000Z</Time>
            <Position>
              <LatitudeDegrees>38.10510269366204738616943359375</LatitudeDegrees>
              <LongitudeDegrees>-6.27806232310831546783447265625</LongitudeDegrees>
            </Position>
            <AltitudeMeters>636.4000244140625</AltitudeMeters>
            <DistanceMeters>NAN</DistanceMeters>
          </Trackpoint>
          <Trackpoint>
            <Time>2019-10-10T09:20:06.000Z</Time>
            <Position>
              <LatitudeDegrees>38.10507436282932758331298828125</LatitudeDegrees>
              <LongitudeDegrees>-6.2780959345400333404541015625</LongitudeDegrees>
            </Position>
            <AltitudeMeters>636.20001220703125</AltitudeMeters>
            <DistanceMeters>NAN</DistanceMeters>
          </Trackpoint>
          <Trackpoint>
            <Time>2019-10-10T09:20:15.000Z</Time>
            <Position>
              <LatitudeDegrees>38.10482357628643512725830078125</LatitudeDegrees>
              <LongitudeDegrees>-6.2784117646515369415283203125</LongitudeDegrees>
            </Position>
            <AltitudeMeters>637.4000244140625</AltitudeMeters>
            <DistanceMeters>NAN</DistanceMeters>
          </Trackpoint>
          <Trackpoint>
            <Time>2019-10-10T09:20:16.000Z</Time>
            <Position>
              <LatitudeDegrees>38.10479658655822277069091796875</LatitudeDegrees>
              <LongitudeDegrees>-6.278447806835174560546875</LongitudeDegrees>
            </Position>
            <AltitudeMeters>637.4000244140625</AltitudeMeters>
            <DistanceMeters>NAN</DistanceMeters>
          </Trackpoint>
          <Trackpoint>
            <Time>2019-10-10T09:20:21.000Z</Time>
            <Position>
              <LatitudeDegrees>38.10465778224170207977294921875</LatitudeDegrees>
              <LongitudeDegrees>-6.278629861772060394287109375</LongitudeDegrees>
            </Position>
            <AltitudeMeters>636.79998779296875</AltitudeMeters>
            <DistanceMeters>NAN</DistanceMeters>
          </Trackpoint>
          <Trackpoint>
            <Time>2019-10-10T09:20:25.000Z</Time>
            <Position>
              <LatitudeDegrees>38.10454814694821834564208984375</LatitudeDegrees>
              <LongitudeDegrees>-6.2787741981446743011474609375</LongitudeDegrees>
            </Position>
            <AltitudeMeters>637.4000244140625</AltitudeMeters>
            <DistanceMeters>NAN</DistanceMeters>
          </Trackpoint>
          <Trackpoint>
            <Time>2019-10-10T09:20:36.000Z</Time>
            <Position>
              <LatitudeDegrees>38.1042188219726085662841796875</LatitudeDegrees>
              <LongitudeDegrees>-6.27915264107286930084228515625</LongitudeDegrees>
            </Position>
            <AltitudeMeters>637.4000244140625</AltitudeMeters>
            <DistanceMeters>NAN</DistanceMeters>
          </Trackpoint>
          <Trackpoint>
            <Time>2019-10-10T09:20:47.000Z</Time>
            <Position>
              <LatitudeDegrees>38.10382478870451450347900390625</LatitudeDegrees>
              <LongitudeDegrees>-6.279453299939632415771484375</LongitudeDegrees>
            </Position>
            <AltitudeMeters>637.5999755859375</AltitudeMeters>
            <DistanceMeters>NAN</DistanceMeters>
          </Trackpoint>
          <Trackpoint>
            <Time>2019-10-10T09:20:55.000Z</Time>
            <Position>
              <LatitudeDegrees>38.10352387838065624237060546875</LatitudeDegrees>
              <LongitudeDegrees>-6.27961255609989166259765625</LongitudeDegrees>
            </Position>
            <AltitudeMeters>637.4000244140625</AltitudeMeters>
            <DistanceMeters>NAN</DistanceMeters>
          </Trackpoint>
          <Trackpoint>
            <Time>2019-10-10T09:20:56.000Z</Time>
            <Position>
              <LatitudeDegrees>38.10348548926413059234619140625</LatitudeDegrees>
              <LongitudeDegrees>-6.27962621860206127166748046875</LongitudeDegrees>
            </Position>
            <AltitudeMeters>637.4000244140625</AltitudeMeters>
            <DistanceMeters>NAN</DistanceMeters>
          </Trackpoint>
          <Trackpoint>
            <Time>2019-10-10T09:20:57.000Z</Time>
            <Position>
              <LatitudeDegrees>38.103446848690509796142578125</LatitudeDegrees>
              <LongitudeDegrees>-6.27964113838970661163330078125</LongitudeDegrees>
            </Position>
            <AltitudeMeters>637.4000244140625</AltitudeMeters>
            <DistanceMeters>NAN</DistanceMeters>
          </Trackpoint>
          <Trackpoint>
            <Time>2019-10-10T09:21:04.000Z</Time>
            <Position>
              <LatitudeDegrees>38.1031546555459499359130859375</LatitudeDegrees>
              <LongitudeDegrees>-6.27972529269754886627197265625</LongitudeDegrees>
            </Position>
            <AltitudeMeters>636.79998779296875</AltitudeMeters>
            <DistanceMeters>NAN</DistanceMeters>
          </Trackpoint>
          <Trackpoint>
            <Time>2019-10-10T09:21:13.000Z</Time>
            <Position>
              <LatitudeDegrees>38.102741427719593048095703125</LatitudeDegrees>
              <LongitudeDegrees>-6.27975412644445896148681640625</LongitudeDegrees>
            </Position>
            <AltitudeMeters>636.79998779296875</AltitudeMeters>
            <DistanceMeters>NAN</DistanceMeters>
          </Trackpoint>
          <Trackpoint>
            <Time>2019-10-10T09:21:17.000Z</Time>
            <Position>
              <LatitudeDegrees>38.10256364755332469940185546875</LatitudeDegrees>
              <LongitudeDegrees>-6.27973459661006927490234375</LongitudeDegrees>
            </Position>
            <AltitudeMeters>636.20001220703125</AltitudeMeters>
            <DistanceMeters>NAN</DistanceMeters>
          </Trackpoint>
          <Trackpoint>
            <Time>2019-10-10T09:21:20.000Z</Time>
            <Position>
              <LatitudeDegrees>38.10242434032261371612548828125</LatitudeDegrees>
              <LongitudeDegrees>-6.27971339039504528045654296875</LongitudeDegrees>
            </Position>
            <AltitudeMeters>635.4000244140625</AltitudeMeters>
            <DistanceMeters>NAN</DistanceMeters>
          </Trackpoint>
          <Trackpoint>
            <Time>2019-10-10T09:21:23.000Z</Time>
            <Position>
              <LatitudeDegrees>38.10227598063647747039794921875</LatitudeDegrees>
              <LongitudeDegrees>-6.279674582183361053466796875</LongitudeDegrees>
            </Position>
            <AltitudeMeters>635</AltitudeMeters>
            <DistanceMeters>NAN</DistanceMeters>
          </Trackpoint>
          <Trackpoint>
            <Time>2019-10-10T09:21:28.000Z</Time>
            <Position>
              <LatitudeDegrees>38.1020222604274749755859375</LatitudeDegrees>
              <LongitudeDegrees>-6.279594786465167999267578125</LongitudeDegrees>
            </Position>
            <AltitudeMeters>634.20001220703125</AltitudeMeters>
            <DistanceMeters>NAN</DistanceMeters>
          </Trackpoint>
          <Trackpoint>
            <Time>2019-10-10T09:21:33.000Z</Time>
            <Position>
              <LatitudeDegrees>38.10175831429660320281982421875</LatitudeDegrees>
              <LongitudeDegrees>-6.27949185669422149658203125</LongitudeDegrees>
            </Position>
            <AltitudeMeters>633.79998779296875</AltitudeMeters>
            <DistanceMeters>NAN</DistanceMeters>
          </Trackpoint>
          <Trackpoint>
            <Time>2019-10-10T09:21:35.000Z</Time>
            <Position>
              <LatitudeDegrees>38.10163979418575763702392578125</LatitudeDegrees>
              <LongitudeDegrees>-6.2794464267790317535400390625</LongitudeDegrees>
            </Position>
            <AltitudeMeters>633.4000244140625</AltitudeMeters>
            <DistanceMeters>NAN</DistanceMeters>
          </Trackpoint>
          <Trackpoint>
            <Time>2019-10-10T09:21:36.000Z</Time>
            <Position>
              <LatitudeDegrees>38.10158045031130313873291015625</LatitudeDegrees>
              <LongitudeDegrees>-6.27942337654531002044677734375</LongitudeDegrees>
            </Position>
            <AltitudeMeters>632.79998779296875</AltitudeMeters>
            <DistanceMeters>NAN</DistanceMeters>
          </Trackpoint>
          <Trackpoint>
            <Time>2019-10-10T09:21:39.000Z</Time>
            <Position>
              <LatitudeDegrees>38.10138858854770660400390625</LatitudeDegrees>
              <LongitudeDegrees>-6.27935950644314289093017578125</LongitudeDegrees>
            </Position>
            <AltitudeMeters>631.4000244140625</AltitudeMeters>
            <DistanceMeters>NAN</DistanceMeters>
          </Trackpoint>
          <Trackpoint>
            <Time>2019-10-10T09:21:42.000Z</Time>
            <Position>
              <LatitudeDegrees>38.1011880934238433837890625</LatitudeDegrees>
              <LongitudeDegrees>-6.2793076224625110626220703125</LongitudeDegrees>
            </Position>
            <AltitudeMeters>630.20001220703125</AltitudeMeters>
            <DistanceMeters>NAN</DistanceMeters>
          </Trackpoint>
          <Trackpoint>
            <Time>2019-10-10T09:21:44.000Z</Time>
            <Position>
              <LatitudeDegrees>38.10105021111667156219482421875</LatitudeDegrees>
              <LongitudeDegrees>-6.27928071655333042144775390625</LongitudeDegrees>
            </Position>
            <AltitudeMeters>628.79998779296875</AltitudeMeters>
            <DistanceMeters>NAN</DistanceMeters>
          </Trackpoint>
          <Trackpoint>
            <Time>2019-10-10T09:21:49.000Z</Time>
            <Position>
              <LatitudeDegrees>38.10070387087762355804443359375</LatitudeDegrees>
              <LongitudeDegrees>-6.27922958694398403167724609375</LongitudeDegrees>
            </Position>
            <AltitudeMeters>627.79998779296875</AltitudeMeters>
            <DistanceMeters>NAN</DistanceMeters>
          </Trackpoint>
          <Trackpoint>
            <Time>2019-10-10T09:21:50.000Z</Time>
            <Position>
              <LatitudeDegrees>38.1006337143480777740478515625</LatitudeDegrees>
              <LongitudeDegrees>-6.279225647449493408203125</LongitudeDegrees>
            </Position>
            <AltitudeMeters>627.5999755859375</AltitudeMeters>
            <DistanceMeters>NAN</DistanceMeters>
          </Trackpoint>
          <Trackpoint>
            <Time>2019-10-10T09:21:54.000Z</Time>
            <Position>
              <LatitudeDegrees>38.1003497354686260223388671875</LatitudeDegrees>
              <LongitudeDegrees>-6.27920645289123058319091796875</LongitudeDegrees>
            </Position>
            <AltitudeMeters>626.5999755859375</AltitudeMeters>
            <DistanceMeters>NAN</DistanceMeters>
          </Trackpoint>
          <Trackpoint>
            <Time>2019-10-10T09:21:57.000Z</Time>
            <Position>
              <LatitudeDegrees>38.10013272799551486968994140625</LatitudeDegrees>
              <LongitudeDegrees>-6.27918834798038005828857421875</LongitudeDegrees>
            </Position>
            <AltitudeMeters>625.5999755859375</AltitudeMeters>
            <DistanceMeters>NAN</DistanceMeters>
          </Trackpoint>
          <Trackpoint>
            <Time>2019-10-10T09:21:58.000Z</Time>
            <Position>
              <LatitudeDegrees>38.10006433166563510894775390625</LatitudeDegrees>
              <LongitudeDegrees>-6.27918365411460399627685546875</LongitudeDegrees>
            </Position>
            <AltitudeMeters>625.4000244140625</AltitudeMeters>
            <DistanceMeters>NAN</DistanceMeters>
          </Trackpoint>
          <Trackpoint>
            <Time>2019-10-10T09:22:04.000Z</Time>
            <Position>
              <LatitudeDegrees>38.099679015576839447021484375</LatitudeDegrees>
              <LongitudeDegrees>-6.27916638739407062530517578125</LongitudeDegrees>
            </Position>
            <AltitudeMeters>625</AltitudeMeters>
            <DistanceMeters>NAN</DistanceMeters>
          </Trackpoint>
          <Trackpoint>
            <Time>2019-10-10T09:22:08.000Z</Time>
            <Position>
              <LatitudeDegrees>38.0994418077170848846435546875</LatitudeDegrees>
              <LongitudeDegrees>-6.27915113233029842376708984375</LongitudeDegrees>
            </Position>
            <AltitudeMeters>625.20001220703125</AltitudeMeters>
            <DistanceMeters>NAN</DistanceMeters>
          </Trackpoint>
          <Trackpoint>
            <Time>2019-10-10T09:22:10.000Z</Time>
            <Position>
              <LatitudeDegrees>38.09932773001492023468017578125</LatitudeDegrees>
              <LongitudeDegrees>-6.2791430018842220306396484375</LongitudeDegrees>
            </Position>
            <AltitudeMeters>625.4000244140625</AltitudeMeters>
            <DistanceMeters>NAN</DistanceMeters>
          </Trackpoint>
          <Trackpoint>
            <Time>2019-10-10T09:22:14.000Z</Time>
            <Position>
              <LatitudeDegrees>38.099101670086383819580078125</LatitudeDegrees>
              <LongitudeDegrees>-6.27912933938205242156982421875</LongitudeDegrees>
            </Position>
            <AltitudeMeters>624.79998779296875</AltitudeMeters>
            <DistanceMeters>NAN</DistanceMeters>
          </Trackpoint>
          <Trackpoint>
            <Time>2019-10-10T09:22:20.000Z</Time>
            <Position>
              <LatitudeDegrees>38.09876832179725170135498046875</LatitudeDegrees>
              <LongitudeDegrees>-6.2791017629206180572509765625</LongitudeDegrees>
            </Position>
            <AltitudeMeters>625</AltitudeMeters>
            <DistanceMeters>NAN</DistanceMeters>
          </Trackpoint>
          <Trackpoint>
            <Time>2019-10-10T09:22:28.000Z</Time>
            <Position>
              <LatitudeDegrees>38.098325170576572418212890625</LatitudeDegrees>
              <LongitudeDegrees>-6.27902842126786708831787109375</LongitudeDegrees>
            </Position>
            <AltitudeMeters>624.4000244140625</AltitudeMeters>
            <DistanceMeters>NAN</DistanceMeters>
          </Trackpoint>
          <Trackpoint>
            <Time>2019-10-10T09:22:29.000Z</Time>
            <Position>
              <LatitudeDegrees>38.09826808981597423553466796875</LatitudeDegrees>
              <LongitudeDegrees>-6.2790132500231266021728515625</LongitudeDegrees>
            </Position>
            <AltitudeMeters>624</AltitudeMeters>
            <DistanceMeters>NAN</DistanceMeters>
          </Trackpoint>
          <Trackpoint>
            <Time>2019-10-10T09:22:32.000Z</Time>
            <Position>
              <LatitudeDegrees>38.098094165325164794921875</LatitudeDegrees>
              <LongitudeDegrees>-6.27895248122513294219970703125</LongitudeDegrees>
            </Position>
            <AltitudeMeters>622.79998779296875</AltitudeMeters>
            <DistanceMeters>NAN</DistanceMeters>
          </Trackpoint>
          <Trackpoint>
            <Time>2019-10-10T09:22:35.000Z</Time>
            <Position>
              <LatitudeDegrees>38.097923509776592254638671875</LatitudeDegrees>
              <LongitudeDegrees>-6.2788684107363224029541015625</LongitudeDegrees>
            </Position>
            <AltitudeMeters>622.4000244140625</AltitudeMeters>
            <DistanceMeters>NAN</DistanceMeters>
          </Trackpoint>
          <Trackpoint>
            <Time>2019-10-10T09:22:37.000Z</Time>
            <Position>
              <LatitudeDegrees>38.09780809096992015838623046875</LatitudeDegrees>
              <LongitudeDegrees>-6.2788077257573604583740234375</LongitudeDegrees>
            </Position>
            <AltitudeMeters>621.79998779296875</AltitudeMeters>
            <DistanceMeters>NAN</DistanceMeters>
          </Trackpoint>
          <Trackpoint>
            <Time>2019-10-10T09:22:42.000Z</Time>
            <Position>
              <LatitudeDegrees>38.0975159816443920135498046875</LatitudeDegrees>
              <LongitudeDegrees>-6.27860463224351406097412109375</LongitudeDegrees>
            </Position>
            <AltitudeMeters>620.79998779296875</AltitudeMeters>
            <DistanceMeters>NAN</DistanceMeters>
          </Trackpoint>
          <Trackpoint>
            <Time>2019-10-10T09:22:46.000Z</Time>
            <Position>
              <LatitudeDegrees>38.0972893349826335906982421875</LatitudeDegrees>
              <LongitudeDegrees>-6.2784087471663951873779296875</LongitudeDegrees>
            </Position>
            <AltitudeMeters>619.4000244140625</AltitudeMeters>
            <DistanceMeters>NAN</DistanceMeters>
          </Trackpoint>
          <Trackpoint>
            <Time>2019-10-10T09:22:50.000Z</Time>
            <Position>
              <LatitudeDegrees>38.09705874882638454437255859375</LatitudeDegrees>
              <LongitudeDegrees>-6.27820716239511966705322265625</LongitudeDegrees>
            </Position>
            <AltitudeMeters>618.20001220703125</AltitudeMeters>
            <DistanceMeters>NAN</DistanceMeters>
          </Trackpoint>
          <Trackpoint>
            <Time>2019-10-10T09:22:54.000Z</Time>
            <Position>
              <LatitudeDegrees>38.0968219600617885589599609375</LatitudeDegrees>
              <LongitudeDegrees>-6.27800985239446163177490234375</LongitudeDegrees>
            </Position>
            <AltitudeMeters>617.5999755859375</AltitudeMeters>
            <DistanceMeters>NAN</DistanceMeters>
          </Trackpoint>
          <Trackpoint>
            <Time>2019-10-10T09:22:56.000Z</Time>
            <Position>
              <LatitudeDegrees>38.09670167975127696990966796875</LatitudeDegrees>
              <LongitudeDegrees>-6.277917735278606414794921875</LongitudeDegrees>
            </Position>
            <AltitudeMeters>617.20001220703125</AltitudeMeters>
            <DistanceMeters>NAN</DistanceMeters>
          </Trackpoint>
          <Trackpoint>
            <Time>2019-10-10T09:22:59.000Z</Time>
            <Position>
              <LatitudeDegrees>38.0965171940624713897705078125</LatitudeDegrees>
              <LongitudeDegrees>-6.27779309637844562530517578125</LongitudeDegrees>
            </Position>
            <AltitudeMeters>617.20001220703125</AltitudeMeters>
            <DistanceMeters>NAN</DistanceMeters>
          </Trackpoint>
          <Trackpoint>
            <Time>2019-10-10T09:23:05.000Z</Time>
            <Position>
              <LatitudeDegrees>38.09617160819470882415771484375</LatitudeDegrees>
              <LongitudeDegrees>-6.27761137671768665313720703125</LongitudeDegrees>
            </Position>
            <AltitudeMeters>617.4000244140625</AltitudeMeters>
            <DistanceMeters>NAN</DistanceMeters>
          </Trackpoint>
          <Trackpoint>
            <Time>2019-10-10T09:23:10.000Z</Time>
            <Position>
              <LatitudeDegrees>38.09593255631625652313232421875</LatitudeDegrees>
              <LongitudeDegrees>-6.2775103747844696044921875</LongitudeDegrees>
            </Position>
            <AltitudeMeters>618.20001220703125</AltitudeMeters>
            <DistanceMeters>NAN</DistanceMeters>
          </Trackpoint>
          <Trackpoint>
            <Time>2019-10-10T09:23:11.000Z</Time>
            <Position>
              <LatitudeDegrees>38.09588871896266937255859375</LatitudeDegrees>
              <LongitudeDegrees>-6.27749185077846050262451171875</LongitudeDegrees>
            </Position>
            <AltitudeMeters>618.5999755859375</AltitudeMeters>
            <DistanceMeters>NAN</DistanceMeters>
          </Trackpoint>
          <Trackpoint>
            <Time>2019-10-10T09:23:16.000Z</Time>
            <Position>
              <LatitudeDegrees>38.0956776626408100128173828125</LatitudeDegrees>
              <LongitudeDegrees>-6.277401410043239593505859375</LongitudeDegrees>
            </Position>
            <AltitudeMeters>619</AltitudeMeters>
            <DistanceMeters>NAN</DistanceMeters>
          </Trackpoint>
          <Trackpoint>
            <Time>2019-10-10T09:23:17.000Z</Time>
            <Position>
              <LatitudeDegrees>38.0956367589533329010009765625</LatitudeDegrees>
              <LongitudeDegrees>-6.27738389186561107635498046875</LongitudeDegrees>
            </Position>
            <AltitudeMeters>619.5999755859375</AltitudeMeters>
            <DistanceMeters>NAN</DistanceMeters>
          </Trackpoint>
          <Trackpoint>
            <Time>2019-10-10T09:23:21.000Z</Time>
            <Position>
              <LatitudeDegrees>38.09548311866819858551025390625</LatitudeDegrees>
              <LongitudeDegrees>-6.277315579354763031005859375</LongitudeDegrees>
            </Position>
            <AltitudeMeters>620.20001220703125</AltitudeMeters>
            <DistanceMeters>NAN</DistanceMeters>
          </Trackpoint>
          <Trackpoint>
            <Time>2019-10-10T09:23:24.000Z</Time>
            <Position>
              <LatitudeDegrees>38.09537247754633426666259765625</LatitudeDegrees>
              <LongitudeDegrees>-6.27725816331803798675537109375</LongitudeDegrees>
            </Position>
            <AltitudeMeters>620.20001220703125</AltitudeMeters>
            <DistanceMeters>NAN</DistanceMeters>
          </Trackpoint>
          <Trackpoint>
            <Time>2019-10-10T09:23:26.000Z</Time>
            <Position>
              <LatitudeDegrees>38.09529888443648815155029296875</LatitudeDegrees>
              <LongitudeDegrees>-6.2772225402295589447021484375</LongitudeDegrees>
            </Position>
            <AltitudeMeters>620.79998779296875</AltitudeMeters>
            <DistanceMeters>NAN</DistanceMeters>
          </Trackpoint>
          <Trackpoint>
            <Time>2019-10-10T09:23:30.000Z</Time>
            <Position>
              <LatitudeDegrees>38.09515723027288913726806640625</LatitudeDegrees>
              <LongitudeDegrees>-6.277143917977809906005859375</LongitudeDegrees>
            </Position>
            <AltitudeMeters>620.79998779296875</AltitudeMeters>
            <DistanceMeters>NAN</DistanceMeters>
          </Trackpoint>
          <Trackpoint>
            <Time>2019-10-10T09:23:33.000Z</Time>
            <Position>
              <LatitudeDegrees>38.09505446814000606536865234375</LatitudeDegrees>
              <LongitudeDegrees>-6.27707895822823047637939453125</LongitudeDegrees>
            </Position>
            <AltitudeMeters>621.79998779296875</AltitudeMeters>
            <DistanceMeters>NAN</DistanceMeters>
          </Trackpoint>
          <Trackpoint>
            <Time>2019-10-10T09:23:34.000Z</Time>
            <Position>
              <LatitudeDegrees>38.09502102434635162353515625</LatitudeDegrees>
              <LongitudeDegrees>-6.27705632708966732025146484375</LongitudeDegrees>
            </Position>
            <AltitudeMeters>621.79998779296875</AltitudeMeters>
            <DistanceMeters>NAN</DistanceMeters>
          </Trackpoint>
          <Trackpoint>
            <Time>2019-10-10T09:23:38.000Z</Time>
            <Position>
              <LatitudeDegrees>38.0948941223323345184326171875</LatitudeDegrees>
              <LongitudeDegrees>-6.2769653834402561187744140625</LongitudeDegrees>
            </Position>
            <AltitudeMeters>622.20001220703125</AltitudeMeters>
            <DistanceMeters>NAN</DistanceMeters>
          </Trackpoint>
          <Trackpoint>
            <Time>2019-10-10T09:23:39.000Z</Time>
            <Position>
              <LatitudeDegrees>38.094863109290599822998046875</LatitudeDegrees>
              <LongitudeDegrees>-6.276941411197185516357421875</LongitudeDegrees>
            </Position>
            <AltitudeMeters>622.20001220703125</AltitudeMeters>
            <DistanceMeters>NAN</DistanceMeters>
          </Trackpoint>
          <Trackpoint>
            <Time>2019-10-10T09:23:44.000Z</Time>
            <Position>
              <LatitudeDegrees>38.0947170965373516082763671875</LatitudeDegrees>
              <LongitudeDegrees>-6.27682381309568881988525390625</LongitudeDegrees>
            </Position>
            <AltitudeMeters>622.5999755859375</AltitudeMeters>
            <DistanceMeters>NAN</DistanceMeters>
          </Trackpoint>
          <Trackpoint>
            <Time>2019-10-10T09:23:46.000Z</Time>
            <Position>
              <LatitudeDegrees>38.094658590853214263916015625</LatitudeDegrees>
              <LongitudeDegrees>-6.27678290940821170806884765625</LongitudeDegrees>
            </Position>
            <AltitudeMeters>622.79998779296875</AltitudeMeters>
            <DistanceMeters>NAN</DistanceMeters>
          </Trackpoint>
          <Trackpoint>
            <Time>2019-10-10T09:23:47.000Z</Time>
            <Position>
              <LatitudeDegrees>38.094629086554050445556640625</LatitudeDegrees>
              <LongitudeDegrees>-6.27675960771739482879638671875</LongitudeDegrees>
            </Position>
            <AltitudeMeters>623</AltitudeMeters>
            <DistanceMeters>NAN</DistanceMeters>
          </Trackpoint>
          <Trackpoint>
            <Time>2019-10-10T09:23:51.000Z</Time>
            <Position>
              <LatitudeDegrees>38.09452121146023273468017578125</LatitudeDegrees>
              <LongitudeDegrees>-6.27665030770003795623779296875</LongitudeDegrees>
            </Position>
            <AltitudeMeters>624</AltitudeMeters>
            <DistanceMeters>NAN</DistanceMeters>
          </Trackpoint>
          <Trackpoint>
            <Time>2019-10-10T09:23:54.000Z</Time>
            <Position>
              <LatitudeDegrees>38.09443018399178981781005859375</LatitudeDegrees>
              <LongitudeDegrees>-6.276581995189189910888671875</LongitudeDegrees>
            </Position>
            <AltitudeMeters>623.79998779296875</AltitudeMeters>
            <DistanceMeters>NAN</DistanceMeters>
          </Trackpoint>
          <Trackpoint>
            <Time>2019-10-10T09:24:00.000Z</Time>
            <Position>
              <LatitudeDegrees>38.09424293227493762969970703125</LatitudeDegrees>
              <LongitudeDegrees>-6.27641293220221996307373046875</LongitudeDegrees>
            </Position>
            <AltitudeMeters>624.4000244140625</AltitudeMeters>
            <DistanceMeters>NAN</DistanceMeters>
          </Trackpoint>
          <Trackpoint>
            <Time>2019-10-10T09:24:01.000Z</Time>
            <Position>
              <LatitudeDegrees>38.0942131765186786651611328125</LatitudeDegrees>
              <LongitudeDegrees>-6.2763850204646587371826171875</LongitudeDegrees>
            </Position>
            <AltitudeMeters>624.5999755859375</AltitudeMeters>
            <DistanceMeters>NAN</DistanceMeters>
          </Trackpoint>
          <Trackpoint>
            <Time>2019-10-10T09:24:08.000Z</Time>
            <Position>
              <LatitudeDegrees>38.0939970910549163818359375</LatitudeDegrees>
              <LongitudeDegrees>-6.27618159167468547821044921875</LongitudeDegrees>
            </Position>
            <AltitudeMeters>625.20001220703125</AltitudeMeters>
            <DistanceMeters>NAN</DistanceMeters>
          </Trackpoint>
          <Trackpoint>
            <Time>2019-10-10T09:24:16.000Z</Time>
            <Position>
              <LatitudeDegrees>38.0937556922435760498046875</LatitudeDegrees>
              <LongitudeDegrees>-6.27594622783362865447998046875</LongitudeDegrees>
            </Position>
            <AltitudeMeters>625.5999755859375</AltitudeMeters>
            <DistanceMeters>NAN</DistanceMeters>
          </Trackpoint>
          <Trackpoint>
            <Time>2019-10-10T09:24:22.000Z</Time>
            <Position>
              <LatitudeDegrees>38.09357170946896076202392578125</LatitudeDegrees>
              <LongitudeDegrees>-6.2757610715925693511962890625</LongitudeDegrees>
            </Position>
            <AltitudeMeters>626.4000244140625</AltitudeMeters>
            <DistanceMeters>NAN</DistanceMeters>
          </Trackpoint>
          <Trackpoint>
            <Time>2019-10-10T09:24:27.000Z</Time>
            <Position>
              <LatitudeDegrees>38.09341496787965297698974609375</LatitudeDegrees>
              <LongitudeDegrees>-6.2756122089922428131103515625</LongitudeDegrees>
            </Position>
            <AltitudeMeters>626.4000244140625</AltitudeMeters>
            <DistanceMeters>NAN</DistanceMeters>
          </Trackpoint>
          <Trackpoint>
            <Time>2019-10-10T09:24:36.000Z</Time>
            <Position>
              <LatitudeDegrees>38.0931235291063785552978515625</LatitudeDegrees>
              <LongitudeDegrees>-6.2753493525087833404541015625</LongitudeDegrees>
            </Position>
            <AltitudeMeters>626.4000244140625</AltitudeMeters>
            <DistanceMeters>NAN</DistanceMeters>
          </Trackpoint>
          <Trackpoint>
            <Time>2019-10-10T09:24:45.000Z</Time>
            <Position>
              <LatitudeDegrees>38.0928361974656581878662109375</LatitudeDegrees>
              <LongitudeDegrees>-6.27507559955120086669921875</LongitudeDegrees>
            </Position>
            <AltitudeMeters>626.79998779296875</AltitudeMeters>
            <DistanceMeters>NAN</DistanceMeters>
          </Trackpoint>
          <Trackpoint>
            <Time>2019-10-10T09:24:47.000Z</Time>
            <Position>
              <LatitudeDegrees>38.09277291409671306610107421875</LatitudeDegrees>
              <LongitudeDegrees>-6.2750167585909366607666015625</LongitudeDegrees>
            </Position>
            <AltitudeMeters>627.5999755859375</AltitudeMeters>
            <DistanceMeters>NAN</DistanceMeters>
          </Trackpoint>
          <Trackpoint>
            <Time>2019-10-10T09:24:54.000Z</Time>
            <Position>
              <LatitudeDegrees>38.0925549007952213287353515625</LatitudeDegrees>
              <LongitudeDegrees>-6.27482187934219837188720703125</LongitudeDegrees>
            </Position>
            <AltitudeMeters>627.79998779296875</AltitudeMeters>
            <DistanceMeters>NAN</DistanceMeters>
          </Trackpoint>
          <Trackpoint>
            <Time>2019-10-10T09:24:57.000Z</Time>
            <Position>
              <LatitudeDegrees>38.0924620293080806732177734375</LatitudeDegrees>
              <LongitudeDegrees>-6.2747364677488803863525390625</LongitudeDegrees>
            </Position>
            <AltitudeMeters>628.5999755859375</AltitudeMeters>
            <DistanceMeters>NAN</DistanceMeters>
          </Trackpoint>
          <Trackpoint>
            <Time>2019-10-10T09:25:01.000Z</Time>
            <Position>
              <LatitudeDegrees>38.09234091080725193023681640625</LatitudeDegrees>
              <LongitudeDegrees>-6.27462306059896945953369140625</LongitudeDegrees>
            </Position>
            <AltitudeMeters>629</AltitudeMeters>
            <DistanceMeters>NAN</DistanceMeters>
          </Trackpoint>
          <Trackpoint>
            <Time>2019-10-10T09:25:09.000Z</Time>
            <Position>
              <LatitudeDegrees>38.09208936989307403564453125</LatitudeDegrees>
              <LongitudeDegrees>-6.27439297735691070556640625</LongitudeDegrees>
            </Position>
            <AltitudeMeters>629.20001220703125</AltitudeMeters>
            <DistanceMeters>NAN</DistanceMeters>
          </Trackpoint>
          <Trackpoint>
            <Time>2019-10-10T09:25:12.000Z</Time>
            <Position>
              <LatitudeDegrees>38.09199591167271137237548828125</LatitudeDegrees>
              <LongitudeDegrees>-6.2743099965155124664306640625</LongitudeDegrees>
            </Position>
            <AltitudeMeters>629.79998779296875</AltitudeMeters>
            <DistanceMeters>NAN</DistanceMeters>
          </Trackpoint>
          <Trackpoint>
            <Time>2019-10-10T09:25:19.000Z</Time>
            <Position>
              <LatitudeDegrees>38.09177446179091930389404296875</LatitudeDegrees>
              <LongitudeDegrees>-6.274107992649078369140625</LongitudeDegrees>
            </Position>
            <AltitudeMeters>630</AltitudeMeters>
            <DistanceMeters>NAN</DistanceMeters>
          </Trackpoint>
          <Trackpoint>
            <Time>2019-10-10T09:25:28.000Z</Time>
            <Position>
              <LatitudeDegrees>38.09148813597857952117919921875</LatitudeDegrees>
              <LongitudeDegrees>-6.27383918501436710357666015625</LongitudeDegrees>
            </Position>
            <AltitudeMeters>630.79998779296875</AltitudeMeters>
            <DistanceMeters>NAN</DistanceMeters>
          </Trackpoint>
          <Trackpoint>
            <Time>2019-10-10T09:25:29.000Z</Time>
            <Position>
              <LatitudeDegrees>38.09145770967006683349609375</LatitudeDegrees>
              <LongitudeDegrees>-6.2738090939819812774658203125</LongitudeDegrees>
            </Position>
            <AltitudeMeters>630.79998779296875</AltitudeMeters>
            <DistanceMeters>NAN</DistanceMeters>
          </Trackpoint>
          <Trackpoint>
            <Time>2019-10-10T09:25:37.000Z</Time>
            <Position>
              <LatitudeDegrees>38.09121237136423587799072265625</LatitudeDegrees>
              <LongitudeDegrees>-6.27357213757932186126708984375</LongitudeDegrees>
            </Position>
            <AltitudeMeters>631</AltitudeMeters>
            <DistanceMeters>NAN</DistanceMeters>
          </Trackpoint>
          <Trackpoint>
            <Time>2019-10-10T09:25:42.000Z</Time>
            <Position>
              <LatitudeDegrees>38.09105713851749897003173828125</LatitudeDegrees>
              <LongitudeDegrees>-6.27342964522540569305419921875</LongitudeDegrees>
            </Position>
            <AltitudeMeters>631.79998779296875</AltitudeMeters>
            <DistanceMeters>NAN</DistanceMeters>
          </Trackpoint>
          <Trackpoint>
            <Time>2019-10-10T09:25:45.000Z</Time>
            <Position>
              <LatitudeDegrees>38.09095286764204502105712890625</LatitudeDegrees>
              <LongitudeDegrees>-6.27336024306714534759521484375</LongitudeDegrees>
            </Position>
            <AltitudeMeters>632</AltitudeMeters>
            <DistanceMeters>NAN</DistanceMeters>
          </Trackpoint>
          <Trackpoint>
            <Time>2019-10-10T09:25:49.000Z</Time>
            <Position>
              <LatitudeDegrees>38.09079780243337154388427734375</LatitudeDegrees>
              <LongitudeDegrees>-6.2733152322471141815185546875</LongitudeDegrees>
            </Position>
            <AltitudeMeters>633</AltitudeMeters>
            <DistanceMeters>NAN</DistanceMeters>
          </Trackpoint>
          <Trackpoint>
            <Time>2019-10-10T09:25:50.000Z</Time>
            <Position>
              <LatitudeDegrees>38.09075891040265560150146484375</LatitudeDegrees>
              <LongitudeDegrees>-6.27331263385713100433349609375</LongitudeDegrees>
            </Position>
            <AltitudeMeters>633.20001220703125</AltitudeMeters>
            <DistanceMeters>NAN</DistanceMeters>
          </Trackpoint>
          <Trackpoint>
            <Time>2019-10-10T09:25:56.000Z</Time>
            <Position>
              <LatitudeDegrees>38.0905289947986602783203125</LatitudeDegrees>
              <LongitudeDegrees>-6.27330810762941837310791015625</LongitudeDegrees>
            </Position>
            <AltitudeMeters>634.20001220703125</AltitudeMeters>
            <DistanceMeters>NAN</DistanceMeters>
          </Trackpoint>
          <Trackpoint>
            <Time>2019-10-10T09:26:05.000Z</Time>
            <Position>
              <LatitudeDegrees>38.09019497595727443695068359375</LatitudeDegrees>
              <LongitudeDegrees>-6.27327508293092250823974609375</LongitudeDegrees>
            </Position>
            <AltitudeMeters>634.79998779296875</AltitudeMeters>
            <DistanceMeters>NAN</DistanceMeters>
          </Trackpoint>
          <Trackpoint>
            <Time>2019-10-10T09:26:09.000Z</Time>
            <Position>
              <LatitudeDegrees>38.0900453589856624603271484375</LatitudeDegrees>
              <LongitudeDegrees>-6.27323971129953861236572265625</LongitudeDegrees>
            </Position>
            <AltitudeMeters>635.20001220703125</AltitudeMeters>
            <DistanceMeters>NAN</DistanceMeters>
          </Trackpoint>
          <Trackpoint>
            <Time>2019-10-10T09:26:14.000Z</Time>
            <Position>
              <LatitudeDegrees>38.08986389078199863433837890625</LatitudeDegrees>
              <LongitudeDegrees>-6.273193694651126861572265625</LongitudeDegrees>
            </Position>
            <AltitudeMeters>636</AltitudeMeters>
            <DistanceMeters>NAN</DistanceMeters>
          </Trackpoint>
          <Trackpoint>
            <Time>2019-10-10T09:26:16.000Z</Time>
            <Position>
              <LatitudeDegrees>38.08978845365345478057861328125</LatitudeDegrees>
              <LongitudeDegrees>-6.273174248635768890380859375</LongitudeDegrees>
            </Position>
            <AltitudeMeters>636.20001220703125</AltitudeMeters>
            <DistanceMeters>NAN</DistanceMeters>
          </Trackpoint>
          <Trackpoint>
            <Time>2019-10-10T09:26:22.000Z</Time>
            <Position>
              <LatitudeDegrees>38.0895689316093921661376953125</LatitudeDegrees>
              <LongitudeDegrees>-6.27311314456164836883544921875</LongitudeDegrees>
            </Position>
            <AltitudeMeters>636.20001220703125</AltitudeMeters>
            <DistanceMeters>NAN</DistanceMeters>
          </Trackpoint>
          <Trackpoint>
            <Time>2019-10-10T09:26:28.000Z</Time>
            <Position>
              <LatitudeDegrees>38.0894006229937076568603515625</LatitudeDegrees>
              <LongitudeDegrees>-6.27304877154529094696044921875</LongitudeDegrees>
            </Position>
            <AltitudeMeters>637.4000244140625</AltitudeMeters>
            <DistanceMeters>NAN</DistanceMeters>
          </Trackpoint>
          <Trackpoint>
            <Time>2019-10-10T09:26:33.000Z</Time>
            <Position>
              <LatitudeDegrees>38.08929241262376308441162109375</LatitudeDegrees>
              <LongitudeDegrees>-6.27297283150255680084228515625</LongitudeDegrees>
            </Position>
            <AltitudeMeters>637.4000244140625</AltitudeMeters>
            <DistanceMeters>NAN</DistanceMeters>
          </Trackpoint>
          <Trackpoint>
            <Time>2019-10-10T09:26:35.000Z</Time>
            <Position>
              <LatitudeDegrees>38.08921898715198040008544921875</LatitudeDegrees>
              <LongitudeDegrees>-6.27293712459504604339599609375</LongitudeDegrees>
            </Position>
            <AltitudeMeters>637.20001220703125</AltitudeMeters>
            <DistanceMeters>NAN</DistanceMeters>
          </Trackpoint>
          <Trackpoint>
            <Time>2019-10-10T09:26:37.000Z</Time>
            <Position>
              <LatitudeDegrees>38.0891382694244384765625</LatitudeDegrees>
              <LongitudeDegrees>-6.2729232944548130035400390625</LongitudeDegrees>
            </Position>
            <AltitudeMeters>637.4000244140625</AltitudeMeters>
            <DistanceMeters>NAN</DistanceMeters>
          </Trackpoint>
          <Trackpoint>
            <Time>2019-10-10T09:26:38.000Z</Time>
            <Position>
              <LatitudeDegrees>38.08909879066050052642822265625</LatitudeDegrees>
              <LongitudeDegrees>-6.272912062704563140869140625</LongitudeDegrees>
            </Position>
            <AltitudeMeters>637.5999755859375</AltitudeMeters>
            <DistanceMeters>NAN</DistanceMeters>
          </Trackpoint>
          <Trackpoint>
            <Time>2019-10-10T09:26:42.000Z</Time>
            <Position>
              <LatitudeDegrees>38.088954873383045196533203125</LatitudeDegrees>
              <LongitudeDegrees>-6.27283050678670406341552734375</LongitudeDegrees>
            </Position>
            <AltitudeMeters>637.5999755859375</AltitudeMeters>
            <DistanceMeters>NAN</DistanceMeters>
          </Trackpoint>
          <Trackpoint>
            <Time>2019-10-10T09:26:49.000Z</Time>
            <Position>
              <LatitudeDegrees>38.0887129716575145721435546875</LatitudeDegrees>
              <LongitudeDegrees>-6.27270796336233615875244140625</LongitudeDegrees>
            </Position>
            <AltitudeMeters>638.5999755859375</AltitudeMeters>
            <DistanceMeters>NAN</DistanceMeters>
          </Trackpoint>
          <Trackpoint>
            <Time>2019-10-10T09:26:50.000Z</Time>
            <Position>
              <LatitudeDegrees>38.08867818675935268402099609375</LatitudeDegrees>
              <LongitudeDegrees>-6.27269371412694454193115234375</LongitudeDegrees>
            </Position>
            <AltitudeMeters>638.79998779296875</AltitudeMeters>
            <DistanceMeters>NAN</DistanceMeters>
          </Trackpoint>
          <Trackpoint>
            <Time>2019-10-10T09:26:57.000Z</Time>
            <Position>
              <LatitudeDegrees>38.08842723257839679718017578125</LatitudeDegrees>
              <LongitudeDegrees>-6.2726245634257793426513671875</LongitudeDegrees>
            </Position>
            <AltitudeMeters>639.5999755859375</AltitudeMeters>
            <DistanceMeters>NAN</DistanceMeters>
          </Trackpoint>
          <Trackpoint>
            <Time>2019-10-10T09:26:59.000Z</Time>
            <Position>
              <LatitudeDegrees>38.088362105190753936767578125</LatitudeDegrees>
              <LongitudeDegrees>-6.2726198695600032806396484375</LongitudeDegrees>
            </Position>
            <AltitudeMeters>640.5999755859375</AltitudeMeters>
            <DistanceMeters>NAN</DistanceMeters>
          </Trackpoint>
          <Trackpoint>
            <Time>2019-10-10T09:27:00.000Z</Time>
            <Position>
              <LatitudeDegrees>38.08833025395870208740234375</LatitudeDegrees>
              <LongitudeDegrees>-6.272613666951656341552734375</LongitudeDegrees>
            </Position>
            <AltitudeMeters>640.79998779296875</AltitudeMeters>
            <DistanceMeters>NAN</DistanceMeters>
          </Trackpoint>
          <Trackpoint>
            <Time>2019-10-10T09:27:04.000Z</Time>
            <Position>
              <LatitudeDegrees>38.08820511214435100555419921875</LatitudeDegrees>
              <LongitudeDegrees>-6.27258541993796825408935546875</LongitudeDegrees>
            </Position>
            <AltitudeMeters>641.79998779296875</AltitudeMeters>
            <DistanceMeters>NAN</DistanceMeters>
          </Trackpoint>
          <Trackpoint>
            <Time>2019-10-10T09:27:05.000Z</Time>
            <Position>
              <LatitudeDegrees>38.08817342855036258697509765625</LatitudeDegrees>
              <LongitudeDegrees>-6.27257804386317729949951171875</LongitudeDegrees>
            </Position>
            <AltitudeMeters>641.79998779296875</AltitudeMeters>
            <DistanceMeters>NAN</DistanceMeters>
          </Trackpoint>
          <Trackpoint>
            <Time>2019-10-10T09:27:11.000Z</Time>
            <Position>
              <LatitudeDegrees>38.0879931338131427764892578125</LatitudeDegrees>
              <LongitudeDegrees>-6.27254652790725231170654296875</LongitudeDegrees>
            </Position>
            <AltitudeMeters>642.4000244140625</AltitudeMeters>
            <DistanceMeters>NAN</DistanceMeters>
          </Trackpoint>
          <Trackpoint>
            <Time>2019-10-10T09:27:12.000Z</Time>
            <Position>
              <LatitudeDegrees>38.08796589262783527374267578125</LatitudeDegrees>
              <LongitudeDegrees>-6.2725360505282878875732421875</LongitudeDegrees>
            </Position>
            <AltitudeMeters>642.4000244140625</AltitudeMeters>
            <DistanceMeters>NAN</DistanceMeters>
          </Trackpoint>
          <Trackpoint>
            <Time>2019-10-10T09:27:14.000Z</Time>
            <Position>
              <LatitudeDegrees>38.08790151961147785186767578125</LatitudeDegrees>
              <LongitudeDegrees>-6.272506378591060638427734375</LongitudeDegrees>
            </Position>
            <AltitudeMeters>643</AltitudeMeters>
            <DistanceMeters>NAN</DistanceMeters>
          </Trackpoint>
          <Trackpoint>
            <Time>2019-10-10T09:27:18.000Z</Time>
            <Position>
              <LatitudeDegrees>38.087780736386775970458984375</LatitudeDegrees>
              <LongitudeDegrees>-6.27243638969957828521728515625</LongitudeDegrees>
            </Position>
            <AltitudeMeters>643.5999755859375</AltitudeMeters>
            <DistanceMeters>NAN</DistanceMeters>
          </Trackpoint>
          <Trackpoint>
            <Time>2019-10-10T09:27:21.000Z</Time>
            <Position>
              <LatitudeDegrees>38.08769599534571170806884765625</LatitudeDegrees>
              <LongitudeDegrees>-6.27237821929156780242919921875</LongitudeDegrees>
            </Position>
            <AltitudeMeters>644</AltitudeMeters>
            <DistanceMeters>NAN</DistanceMeters>
          </Trackpoint>
          <Trackpoint>
            <Time>2019-10-10T09:27:27.000Z</Time>
            <Position>
              <LatitudeDegrees>38.08752399869263172149658203125</LatitudeDegrees>
              <LongitudeDegrees>-6.27226690761744976043701171875</LongitudeDegrees>
            </Position>
            <AltitudeMeters>645.20001220703125</AltitudeMeters>
            <DistanceMeters>NAN</DistanceMeters>
          </Trackpoint>
          <Trackpoint>
            <Time>2019-10-10T09:27:34.000Z</Time>
            <Position>
              <LatitudeDegrees>38.0873103439807891845703125</LatitudeDegrees>
              <LongitudeDegrees>-6.27212977968156337738037109375</LongitudeDegrees>
            </Position>
            <AltitudeMeters>645.79998779296875</AltitudeMeters>
            <DistanceMeters>NAN</DistanceMeters>
          </Trackpoint>
          <Trackpoint>
            <Time>2019-10-10T09:27:36.000Z</Time>
            <Position>
              <LatitudeDegrees>38.0872513353824615478515625</LatitudeDegrees>
              <LongitudeDegrees>-6.272083930671215057373046875</LongitudeDegrees>
            </Position>
            <AltitudeMeters>646.4000244140625</AltitudeMeters>
            <DistanceMeters>NAN</DistanceMeters>
          </Trackpoint>
          <Trackpoint>
            <Time>2019-10-10T09:27:43.000Z</Time>
            <Position>
              <LatitudeDegrees>38.08703063987195491790771484375</LatitudeDegrees>
              <LongitudeDegrees>-6.271937079727649688720703125</LongitudeDegrees>
            </Position>
            <AltitudeMeters>647.4000244140625</AltitudeMeters>
            <DistanceMeters>NAN</DistanceMeters>
          </Trackpoint>
          <Trackpoint>
            <Time>2019-10-10T09:27:51.000Z</Time>
            <Position>
              <LatitudeDegrees>38.08677247725427150726318359375</LatitudeDegrees>
              <LongitudeDegrees>-6.27175628207623958587646484375</LongitudeDegrees>
            </Position>
            <AltitudeMeters>648</AltitudeMeters>
            <DistanceMeters>NAN</DistanceMeters>
          </Trackpoint>
          <Trackpoint>
            <Time>2019-10-10T09:27:58.000Z</Time>
            <Position>
              <LatitudeDegrees>38.08652135543525218963623046875</LatitudeDegrees>
              <LongitudeDegrees>-6.271553523838520050048828125</LongitudeDegrees>
            </Position>
            <AltitudeMeters>647.20001220703125</AltitudeMeters>
            <DistanceMeters>NAN</DistanceMeters>
          </Trackpoint>
          <Trackpoint>
            <Time>2019-10-10T09:27:59.000Z</Time>
            <Position>
              <LatitudeDegrees>38.08648447506129741668701171875</LatitudeDegrees>
              <LongitudeDegrees>-6.27151471562683582305908203125</LongitudeDegrees>
            </Position>
            <AltitudeMeters>646.79998779296875</AltitudeMeters>
            <DistanceMeters>NAN</DistanceMeters>
          </Trackpoint>
          <Trackpoint>
            <Time>2019-10-10T09:28:01.000Z</Time>
            <Position>
              <LatitudeDegrees>38.08640669099986553192138671875</LatitudeDegrees>
              <LongitudeDegrees>-6.2714326567947864532470703125</LongitudeDegrees>
            </Position>
            <AltitudeMeters>646.20001220703125</AltitudeMeters>
            <DistanceMeters>NAN</DistanceMeters>
          </Trackpoint>
          <Trackpoint>
            <Time>2019-10-10T09:28:04.000Z</Time>
            <Position>
              <LatitudeDegrees>38.08628641068935394287109375</LatitudeDegrees>
              <LongitudeDegrees>-6.27126552164554595947265625</LongitudeDegrees>
            </Position>
            <AltitudeMeters>645</AltitudeMeters>
            <DistanceMeters>NAN</DistanceMeters>
          </Trackpoint>
          <Trackpoint>
            <Time>2019-10-10T09:28:07.000Z</Time>
            <Position>
              <LatitudeDegrees>38.08617685921490192413330078125</LatitudeDegrees>
              <LongitudeDegrees>-6.27103376202285289764404296875</LongitudeDegrees>
            </Position>
            <AltitudeMeters>643.5999755859375</AltitudeMeters>
            <DistanceMeters>NAN</DistanceMeters>
          </Trackpoint>
          <Trackpoint>
            <Time>2019-10-10T09:28:09.000Z</Time>
            <Position>
              <LatitudeDegrees>38.08609739877283573150634765625</LatitudeDegrees>
              <LongitudeDegrees>-6.2708531320095062255859375</LongitudeDegrees>
            </Position>
            <AltitudeMeters>642.20001220703125</AltitudeMeters>
            <DistanceMeters>NAN</DistanceMeters>
          </Trackpoint>
          <Trackpoint>
            <Time>2019-10-10T09:28:10.000Z</Time>
            <Position>
              <LatitudeDegrees>38.08605649508535861968994140625</LatitudeDegrees>
              <LongitudeDegrees>-6.2707590870559215545654296875</LongitudeDegrees>
            </Position>
            <AltitudeMeters>640.79998779296875</AltitudeMeters>
            <DistanceMeters>NAN</DistanceMeters>
          </Trackpoint>
          <Trackpoint>
            <Time>2019-10-10T09:28:12.000Z</Time>
            <Position>
              <LatitudeDegrees>38.08596630580723285675048828125</LatitudeDegrees>
              <LongitudeDegrees>-6.27056739293038845062255859375</LongitudeDegrees>
            </Position>
            <AltitudeMeters>639.20001220703125</AltitudeMeters>
            <DistanceMeters>NAN</DistanceMeters>
          </Trackpoint>
          <Trackpoint>
            <Time>2019-10-10T09:28:15.000Z</Time>
            <Position>
              <LatitudeDegrees>38.08584644459187984466552734375</LatitudeDegrees>
              <LongitudeDegrees>-6.270298920571804046630859375</LongitudeDegrees>
            </Position>
            <AltitudeMeters>638.20001220703125</AltitudeMeters>
            <DistanceMeters>NAN</DistanceMeters>
          </Trackpoint>
          <Trackpoint>
            <Time>2019-10-10T09:28:16.000Z</Time>
            <Position>
              <LatitudeDegrees>38.0858109891414642333984375</LatitudeDegrees>
              <LongitudeDegrees>-6.27020864747464656829833984375</LongitudeDegrees>
            </Position>
            <AltitudeMeters>637</AltitudeMeters>
            <DistanceMeters>NAN</DistanceMeters>
          </Trackpoint>
          <Trackpoint>
            <Time>2019-10-10T09:28:17.000Z</Time>
            <Position>
              <LatitudeDegrees>38.0857742764055728912353515625</LatitudeDegrees>
              <LongitudeDegrees>-6.270117200911045074462890625</LongitudeDegrees>
            </Position>
            <AltitudeMeters>635.79998779296875</AltitudeMeters>
            <DistanceMeters>NAN</DistanceMeters>
          </Trackpoint>
          <Trackpoint>
            <Time>2019-10-10T09:28:18.000Z</Time>
            <Position>
              <LatitudeDegrees>38.08573521673679351806640625</LatitudeDegrees>
              <LongitudeDegrees>-6.27002441324293613433837890625</LongitudeDegrees>
            </Position>
            <AltitudeMeters>634.79998779296875</AltitudeMeters>
            <DistanceMeters>NAN</DistanceMeters>
          </Trackpoint>
          <Trackpoint>
            <Time>2019-10-10T09:28:19.000Z</Time>
            <Position>
              <LatitudeDegrees>38.0856929719448089599609375</LatitudeDegrees>
              <LongitudeDegrees>-6.26993154175579547882080078125</LongitudeDegrees>
            </Position>
            <AltitudeMeters>634.5999755859375</AltitudeMeters>
            <DistanceMeters>NAN</DistanceMeters>
          </Trackpoint>
          <Trackpoint>
            <Time>2019-10-10T09:28:20.000Z</Time>
            <Position>
              <LatitudeDegrees>38.08565064333379268646240234375</LatitudeDegrees>
              <LongitudeDegrees>-6.2698370777070522308349609375</LongitudeDegrees>
            </Position>
            <AltitudeMeters>634</AltitudeMeters>
            <DistanceMeters>NAN</DistanceMeters>
          </Trackpoint>
          <Trackpoint>
            <Time>2019-10-10T09:28:22.000Z</Time>
            <Position>
              <LatitudeDegrees>38.08556514792144298553466796875</LatitudeDegrees>
              <LongitudeDegrees>-6.2696463055908679962158203125</LongitudeDegrees>
            </Position>
            <AltitudeMeters>633.5999755859375</AltitudeMeters>
            <DistanceMeters>NAN</DistanceMeters>
          </Trackpoint>
          <Trackpoint>
            <Time>2019-10-10T09:28:23.000Z</Time>
            <Position>
              <LatitudeDegrees>38.08552223257720470428466796875</LatitudeDegrees>
              <LongitudeDegrees>-6.26954949460923671722412109375</LongitudeDegrees>
            </Position>
            <AltitudeMeters>633.20001220703125</AltitudeMeters>
            <DistanceMeters>NAN</DistanceMeters>
          </Trackpoint>
          <Trackpoint>
            <Time>2019-10-10T09:28:25.000Z</Time>
            <Position>
              <LatitudeDegrees>38.08543690480291843414306640625</LatitudeDegrees>
              <LongitudeDegrees>-6.26935486681759357452392578125</LongitudeDegrees>
            </Position>
            <AltitudeMeters>632.20001220703125</AltitudeMeters>
            <DistanceMeters>NAN</DistanceMeters>
          </Trackpoint>
          <Trackpoint>
            <Time>2019-10-10T09:28:27.000Z</Time>
            <Position>
              <LatitudeDegrees>38.08533690869808197021484375</LatitudeDegrees>
              <LongitudeDegrees>-6.26917566172778606414794921875</LongitudeDegrees>
            </Position>
            <AltitudeMeters>631.4000244140625</AltitudeMeters>
            <DistanceMeters>NAN</DistanceMeters>
          </Trackpoint>
          <Trackpoint>
            <Time>2019-10-10T09:28:28.000Z</Time>
            <Position>
              <LatitudeDegrees>38.08527228422462940216064453125</LatitudeDegrees>
              <LongitudeDegrees>-6.2690951116383075714111328125</LongitudeDegrees>
            </Position>
            <AltitudeMeters>631</AltitudeMeters>
            <DistanceMeters>NAN</DistanceMeters>
          </Trackpoint>
          <Trackpoint>
            <Time>2019-10-10T09:28:29.000Z</Time>
            <Position>
              <LatitudeDegrees>38.085195086896419525146484375</LatitudeDegrees>
              <LongitudeDegrees>-6.269026882946491241455078125</LongitudeDegrees>
            </Position>
            <AltitudeMeters>630</AltitudeMeters>
            <DistanceMeters>NAN</DistanceMeters>
          </Trackpoint>
          <Trackpoint>
            <Time>2019-10-10T09:28:30.000Z</Time>
            <Position>
              <LatitudeDegrees>38.08510749600827693939208984375</LatitudeDegrees>
              <LongitudeDegrees>-6.2689740769565105438232421875</LongitudeDegrees>
            </Position>
            <AltitudeMeters>628.79998779296875</AltitudeMeters>
            <DistanceMeters>NAN</DistanceMeters>
          </Trackpoint>
          <Trackpoint>
            <Time>2019-10-10T09:28:31.000Z</Time>
            <Position>
              <LatitudeDegrees>38.08501328341662883758544921875</LatitudeDegrees>
              <LongitudeDegrees>-6.26893409527838230133056640625</LongitudeDegrees>
            </Position>
            <AltitudeMeters>627.5999755859375</AltitudeMeters>
            <DistanceMeters>NAN</DistanceMeters>
          </Trackpoint>
          <Trackpoint>
            <Time>2019-10-10T09:28:32.000Z</Time>
            <Position>
              <LatitudeDegrees>38.08491538278758525848388671875</LatitudeDegrees>
              <LongitudeDegrees>-6.26890174113214015960693359375</LongitudeDegrees>
            </Position>
            <AltitudeMeters>626.5999755859375</AltitudeMeters>
            <DistanceMeters>NAN</DistanceMeters>
          </Trackpoint>
          <Trackpoint>
            <Time>2019-10-10T09:28:34.000Z</Time>
            <Position>
              <LatitudeDegrees>38.08471597731113433837890625</LatitudeDegrees>
              <LongitudeDegrees>-6.2688387930393218994140625</LongitudeDegrees>
            </Position>
            <AltitudeMeters>625.4000244140625</AltitudeMeters>
            <DistanceMeters>NAN</DistanceMeters>
          </Trackpoint>
          <Trackpoint>
            <Time>2019-10-10T09:28:36.000Z</Time>
            <Position>
              <LatitudeDegrees>38.08452554047107696533203125</LatitudeDegrees>
              <LongitudeDegrees>-6.2687467597424983978271484375</LongitudeDegrees>
            </Position>
            <AltitudeMeters>624.5999755859375</AltitudeMeters>
            <DistanceMeters>NAN</DistanceMeters>
          </Trackpoint>
          <Trackpoint>
            <Time>2019-10-10T09:28:37.000Z</Time>
            <Position>
              <LatitudeDegrees>38.08443862013518810272216796875</LatitudeDegrees>
              <LongitudeDegrees>-6.26868699677288532257080078125</LongitudeDegrees>
            </Position>
            <AltitudeMeters>624.20001220703125</AltitudeMeters>
            <DistanceMeters>NAN</DistanceMeters>
          </Trackpoint>
          <Trackpoint>
            <Time>2019-10-10T09:28:39.000Z</Time>
            <Position>
              <LatitudeDegrees>38.08427668176591396331787109375</LatitudeDegrees>
              <LongitudeDegrees>-6.26855774782598018646240234375</LongitudeDegrees>
            </Position>
            <AltitudeMeters>623</AltitudeMeters>
            <DistanceMeters>NAN</DistanceMeters>
          </Trackpoint>
          <Trackpoint>
            <Time>2019-10-10T09:28:40.000Z</Time>
            <Position>
              <LatitudeDegrees>38.0842025019228458404541015625</LatitudeDegrees>
              <LongitudeDegrees>-6.2684927880764007568359375</LongitudeDegrees>
            </Position>
            <AltitudeMeters>623.20001220703125</AltitudeMeters>
            <DistanceMeters>NAN</DistanceMeters>
          </Trackpoint>
          <Trackpoint>
            <Time>2019-10-10T09:28:42.000Z</Time>
            <Position>
              <LatitudeDegrees>38.08406344614923000335693359375</LatitudeDegrees>
              <LongitudeDegrees>-6.2683725915849208831787109375</LongitudeDegrees>
            </Position>
            <AltitudeMeters>624.20001220703125</AltitudeMeters>
            <DistanceMeters>NAN</DistanceMeters>
          </Trackpoint>
          <Trackpoint>
            <Time>2019-10-10T09:28:45.000Z</Time>
            <Position>
              <LatitudeDegrees>38.08386362157762050628662109375</LatitudeDegrees>
              <LongitudeDegrees>-6.26820621080696582794189453125</LongitudeDegrees>
            </Position>
            <AltitudeMeters>623.79998779296875</AltitudeMeters>
            <DistanceMeters>NAN</DistanceMeters>
          </Trackpoint>
          <Trackpoint>
            <Time>2019-10-10T09:28:46.000Z</Time>
            <Position>
              <LatitudeDegrees>38.08379991911351680755615234375</LatitudeDegrees>
              <LongitudeDegrees>-6.26815172843635082244873046875</LongitudeDegrees>
            </Position>
            <AltitudeMeters>624.20001220703125</AltitudeMeters>
            <DistanceMeters>NAN</DistanceMeters>
          </Trackpoint>
          <Trackpoint>
            <Time>2019-10-10T09:28:47.000Z</Time>
            <Position>
              <LatitudeDegrees>38.08374258689582347869873046875</LatitudeDegrees>
              <LongitudeDegrees>-6.2680985033512115478515625</LongitudeDegrees>
            </Position>
            <AltitudeMeters>624.4000244140625</AltitudeMeters>
            <DistanceMeters>NAN</DistanceMeters>
          </Trackpoint>
          <Trackpoint>
            <Time>2019-10-10T09:28:51.000Z</Time>
            <Position>
              <LatitudeDegrees>38.08353924192488193511962890625</LatitudeDegrees>
              <LongitudeDegrees>-6.26787386834621429443359375</LongitudeDegrees>
            </Position>
            <AltitudeMeters>624.4000244140625</AltitudeMeters>
            <DistanceMeters>NAN</DistanceMeters>
          </Trackpoint>
          <Trackpoint>
            <Time>2019-10-10T09:28:52.000Z</Time>
            <Position>
              <LatitudeDegrees>38.0834960751235485076904296875</LatitudeDegrees>
              <LongitudeDegrees>-6.26781762577593326568603515625</LongitudeDegrees>
            </Position>
            <AltitudeMeters>625.4000244140625</AltitudeMeters>
            <DistanceMeters>NAN</DistanceMeters>
          </Trackpoint>
          <Trackpoint>
            <Time>2019-10-10T09:28:54.000Z</Time>
            <Position>
              <LatitudeDegrees>38.08341803960502147674560546875</LatitudeDegrees>
              <LongitudeDegrees>-6.267707906663417816162109375</LongitudeDegrees>
            </Position>
            <AltitudeMeters>625.4000244140625</AltitudeMeters>
            <DistanceMeters>NAN</DistanceMeters>
          </Trackpoint>
          <Trackpoint>
            <Time>2019-10-10T09:28:57.000Z</Time>
            <Position>
              <LatitudeDegrees>38.0833227373659610748291015625</LatitudeDegrees>
              <LongitudeDegrees>-6.26754068769514560699462890625</LongitudeDegrees>
            </Position>
            <AltitudeMeters>625.4000244140625</AltitudeMeters>
            <DistanceMeters>NAN</DistanceMeters>
          </Trackpoint>
          <Trackpoint>
            <Time>2019-10-10T09:29:06.000Z</Time>
            <Position>
              <LatitudeDegrees>38.08306734077632427215576171875</LatitudeDegrees>
              <LongitudeDegrees>-6.2670497596263885498046875</LongitudeDegrees>
            </Position>
            <AltitudeMeters>626</AltitudeMeters>
            <DistanceMeters>NAN</DistanceMeters>
          </Trackpoint>
          <Trackpoint>
            <Time>2019-10-10T09:29:08.000Z</Time>
            <Position>
              <LatitudeDegrees>38.083020150661468505859375</LatitudeDegrees>
              <LongitudeDegrees>-6.26694314181804656982421875</LongitudeDegrees>
            </Position>
            <AltitudeMeters>626.5999755859375</AltitudeMeters>
            <DistanceMeters>NAN</DistanceMeters>
          </Trackpoint>
          <Trackpoint>
            <Time>2019-10-10T09:29:13.000Z</Time>
            <Position>
              <LatitudeDegrees>38.0829019658267498016357421875</LatitudeDegrees>
              <LongitudeDegrees>-6.26667357981204986572265625</LongitudeDegrees>
            </Position>
            <AltitudeMeters>626.5999755859375</AltitudeMeters>
            <DistanceMeters>NAN</DistanceMeters>
          </Trackpoint>
          <Trackpoint>
            <Time>2019-10-10T09:29:15.000Z</Time>
            <Position>
              <LatitudeDegrees>38.08285276405513286590576171875</LatitudeDegrees>
              <LongitudeDegrees>-6.26656771637499332427978515625</LongitudeDegrees>
            </Position>
            <AltitudeMeters>625.79998779296875</AltitudeMeters>
            <DistanceMeters>NAN</DistanceMeters>
          </Trackpoint>
          <Trackpoint>
            <Time>2019-10-10T09:29:24.000Z</Time>
            <Position>
              <LatitudeDegrees>38.0826580524444580078125</LatitudeDegrees>
              <LongitudeDegrees>-6.26607335172593593597412109375</LongitudeDegrees>
            </Position>
            <AltitudeMeters>626.5999755859375</AltitudeMeters>
            <DistanceMeters>NAN</DistanceMeters>
          </Trackpoint>
          <Trackpoint>
            <Time>2019-10-10T09:29:35.000Z</Time>
            <Position>
              <LatitudeDegrees>38.08245755732059478759765625</LatitudeDegrees>
              <LongitudeDegrees>-6.26547404564917087554931640625</LongitudeDegrees>
            </Position>
            <AltitudeMeters>627</AltitudeMeters>
            <DistanceMeters>NAN</DistanceMeters>
          </Trackpoint>
          <Trackpoint>
            <Time>2019-10-10T09:29:39.000Z</Time>
            <Position>
              <LatitudeDegrees>38.08238019235432147979736328125</LatitudeDegrees>
              <LongitudeDegrees>-6.26525527797639369964599609375</LongitudeDegrees>
            </Position>
            <AltitudeMeters>627.79998779296875</AltitudeMeters>
            <DistanceMeters>NAN</DistanceMeters>
          </Trackpoint>
          <Trackpoint>
            <Time>2019-10-10T09:29:42.000Z</Time>
            <Position>
              <LatitudeDegrees>38.08232168667018413543701171875</LatitudeDegrees>
              <LongitudeDegrees>-6.265097446739673614501953125</LongitudeDegrees>
            </Position>
            <AltitudeMeters>627.79998779296875</AltitudeMeters>
            <DistanceMeters>NAN</DistanceMeters>
          </Trackpoint>
          <Trackpoint>
            <Time>2019-10-10T09:29:43.000Z</Time>
            <Position>
              <LatitudeDegrees>38.0823024921119213104248046875</LatitudeDegrees>
              <LongitudeDegrees>-6.2650453113019466400146484375</LongitudeDegrees>
            </Position>
            <AltitudeMeters>628.4000244140625</AltitudeMeters>
            <DistanceMeters>NAN</DistanceMeters>
          </Trackpoint>
          <Trackpoint>
            <Time>2019-10-10T09:29:48.000Z</Time>
            <Position>
              <LatitudeDegrees>38.08221506886184215545654296875</LatitudeDegrees>
              <LongitudeDegrees>-6.2647780962288379669189453125</LongitudeDegrees>
            </Position>
            <AltitudeMeters>628.79998779296875</AltitudeMeters>
            <DistanceMeters>NAN</DistanceMeters>
          </Trackpoint>
          <Trackpoint>
            <Time>2019-10-10T09:29:49.000Z</Time>
            <Position>
              <LatitudeDegrees>38.0821980535984039306640625</LatitudeDegrees>
              <LongitudeDegrees>-6.26472587697207927703857421875</LongitudeDegrees>
            </Position>
            <AltitudeMeters>628.79998779296875</AltitudeMeters>
            <DistanceMeters>NAN</DistanceMeters>
          </Trackpoint>
          <Trackpoint>
            <Time>2019-10-10T09:29:52.000Z</Time>
            <Position>
              <LatitudeDegrees>38.08214801363646984100341796875</LatitudeDegrees>
              <LongitudeDegrees>-6.2645705603063106536865234375</LongitudeDegrees>
            </Position>
            <AltitudeMeters>629</AltitudeMeters>
            <DistanceMeters>NAN</DistanceMeters>
          </Trackpoint>
          <Trackpoint>
            <Time>2019-10-10T09:29:59.000Z</Time>
            <Position>
              <LatitudeDegrees>38.082008622586727142333984375</LatitudeDegrees>
              <LongitudeDegrees>-6.2642242200672626495361328125</LongitudeDegrees>
            </Position>
            <AltitudeMeters>630.20001220703125</AltitudeMeters>
            <DistanceMeters>NAN</DistanceMeters>
          </Trackpoint>
          <Trackpoint>
            <Time>2019-10-10T09:30:01.000Z</Time>
            <Position>
              <LatitudeDegrees>38.081970401108264923095703125</LatitudeDegrees>
              <LongitudeDegrees>-6.2641293369233608245849609375</LongitudeDegrees>
            </Position>
            <AltitudeMeters>630.4000244140625</AltitudeMeters>
            <DistanceMeters>NAN</DistanceMeters>
          </Trackpoint>
          <Trackpoint>
            <Time>2019-10-10T09:30:10.000Z</Time>
            <Position>
              <LatitudeDegrees>38.08176680468022823333740234375</LatitudeDegrees>
              <LongitudeDegrees>-6.263718120753765106201171875</LongitudeDegrees>
            </Position>
            <AltitudeMeters>629.79998779296875</AltitudeMeters>
            <DistanceMeters>NAN</DistanceMeters>
          </Trackpoint>
          <Trackpoint>
            <Time>2019-10-10T09:30:16.000Z</Time>
            <Position>
              <LatitudeDegrees>38.08163302950561046600341796875</LatitudeDegrees>
              <LongitudeDegrees>-6.2634876184165477752685546875</LongitudeDegrees>
            </Position>
            <AltitudeMeters>630.79998779296875</AltitudeMeters>
            <DistanceMeters>NAN</DistanceMeters>
          </Trackpoint>
          <Trackpoint>
            <Time>2019-10-10T09:30:22.000Z</Time>
            <Position>
              <LatitudeDegrees>38.08148718439042568206787109375</LatitudeDegrees>
              <LongitudeDegrees>-6.263268180191516876220703125</LongitudeDegrees>
            </Position>
            <AltitudeMeters>631.4000244140625</AltitudeMeters>
            <DistanceMeters>NAN</DistanceMeters>
          </Trackpoint>
          <Trackpoint>
            <Time>2019-10-10T09:30:24.000Z</Time>
            <Position>
              <LatitudeDegrees>38.08142901398241519927978515625</LatitudeDegrees>
              <LongitudeDegrees>-6.26320724375545978546142578125</LongitudeDegrees>
            </Position>
            <AltitudeMeters>632.20001220703125</AltitudeMeters>
            <DistanceMeters>NAN</DistanceMeters>
          </Trackpoint>
          <Trackpoint>
            <Time>2019-10-10T09:30:27.000Z</Time>
            <Position>
              <LatitudeDegrees>38.0813372321426868438720703125</LatitudeDegrees>
              <LongitudeDegrees>-6.2631282024085521697998046875</LongitudeDegrees>
            </Position>
            <AltitudeMeters>632.5999755859375</AltitudeMeters>
            <DistanceMeters>NAN</DistanceMeters>
          </Trackpoint>
          <Trackpoint>
            <Time>2019-10-10T09:30:30.000Z</Time>
            <Position>
              <LatitudeDegrees>38.08124360628426074981689453125</LatitudeDegrees>
              <LongitudeDegrees>-6.2630685232579708099365234375</LongitudeDegrees>
            </Position>
            <AltitudeMeters>632.79998779296875</AltitudeMeters>
            <DistanceMeters>NAN</DistanceMeters>
          </Trackpoint>
          <Trackpoint>
            <Time>2019-10-10T09:30:35.000Z</Time>
            <Position>
              <LatitudeDegrees>38.08112449944019317626953125</LatitudeDegrees>
              <LongitudeDegrees>-6.262914799153804779052734375</LongitudeDegrees>
            </Position>
            <AltitudeMeters>633.5999755859375</AltitudeMeters>
            <DistanceMeters>NAN</DistanceMeters>
          </Trackpoint>
          <Trackpoint>
            <Time>2019-10-10T09:30:36.000Z</Time>
            <Position>
              <LatitudeDegrees>38.08111117221415042877197265625</LatitudeDegrees>
              <LongitudeDegrees>-6.2628740631043910980224609375</LongitudeDegrees>
            </Position>
            <AltitudeMeters>633.79998779296875</AltitudeMeters>
            <DistanceMeters>NAN</DistanceMeters>
          </Trackpoint>
          <Trackpoint>
            <Time>2019-10-10T09:30:41.000Z</Time>
            <Position>
              <LatitudeDegrees>38.08106155134737491607666015625</LatitudeDegrees>
              <LongitudeDegrees>-6.262651942670345306396484375</LongitudeDegrees>
            </Position>
            <AltitudeMeters>634.4000244140625</AltitudeMeters>
            <DistanceMeters>NAN</DistanceMeters>
          </Trackpoint>
          <Trackpoint>
            <Time>2019-10-10T09:30:46.000Z</Time>
            <Position>
              <LatitudeDegrees>38.080979324877262115478515625</LatitudeDegrees>
              <LongitudeDegrees>-6.26244281418621540069580078125</LongitudeDegrees>
            </Position>
            <AltitudeMeters>635</AltitudeMeters>
            <DistanceMeters>NAN</DistanceMeters>
          </Trackpoint>
          <Trackpoint>
            <Time>2019-10-10T09:30:48.000Z</Time>
            <Position>
              <LatitudeDegrees>38.0809399299323558807373046875</LatitudeDegrees>
              <LongitudeDegrees>-6.26236536540091037750244140625</LongitudeDegrees>
            </Position>
            <AltitudeMeters>635</AltitudeMeters>
            <DistanceMeters>NAN</DistanceMeters>
          </Trackpoint>
          <Trackpoint>
            <Time>2019-10-10T09:30:54.000Z</Time>
            <Position>
              <LatitudeDegrees>38.08080531656742095947265625</LatitudeDegrees>
              <LongitudeDegrees>-6.26215363852679729461669921875</LongitudeDegrees>
            </Position>
            <AltitudeMeters>636</AltitudeMeters>
            <DistanceMeters>NAN</DistanceMeters>
          </Trackpoint>
          <Trackpoint>
            <Time>2019-10-10T09:30:56.000Z</Time>
            <Position>
              <LatitudeDegrees>38.08076382614672183990478515625</LatitudeDegrees>
              <LongitudeDegrees>-6.26208004541695117950439453125</LongitudeDegrees>
            </Position>
            <AltitudeMeters>636.4000244140625</AltitudeMeters>
            <DistanceMeters>NAN</DistanceMeters>
          </Trackpoint>
          <Trackpoint>
            <Time>2019-10-10T09:31:02.000Z</Time>
            <Position>
              <LatitudeDegrees>38.08065201155841350555419921875</LatitudeDegrees>
              <LongitudeDegrees>-6.261858008801937103271484375</LongitudeDegrees>
            </Position>
            <AltitudeMeters>637.20001220703125</AltitudeMeters>
            <DistanceMeters>NAN</DistanceMeters>
          </Trackpoint>
          <Trackpoint>
            <Time>2019-10-10T09:31:06.000Z</Time>
            <Position>
              <LatitudeDegrees>38.08057674206793308258056640625</LatitudeDegrees>
              <LongitudeDegrees>-6.2617103196680545806884765625</LongitudeDegrees>
            </Position>
            <AltitudeMeters>637.5999755859375</AltitudeMeters>
            <DistanceMeters>NAN</DistanceMeters>
          </Trackpoint>
          <Trackpoint>
            <Time>2019-10-10T09:31:11.000Z</Time>
            <Position>
              <LatitudeDegrees>38.0804997123777866363525390625</LatitudeDegrees>
              <LongitudeDegrees>-6.26150504685938358306884765625</LongitudeDegrees>
            </Position>
            <AltitudeMeters>638.20001220703125</AltitudeMeters>
            <DistanceMeters>NAN</DistanceMeters>
          </Trackpoint>
          <Trackpoint>
            <Time>2019-10-10T09:31:13.000Z</Time>
            <Position>
              <LatitudeDegrees>38.080471046268939971923828125</LatitudeDegrees>
              <LongitudeDegrees>-6.26141837798058986663818359375</LongitudeDegrees>
            </Position>
            <AltitudeMeters>639</AltitudeMeters>
            <DistanceMeters>NAN</DistanceMeters>
          </Trackpoint>
          <Trackpoint>
            <Time>2019-10-10T09:31:20.000Z</Time>
            <Position>
              <LatitudeDegrees>38.08038295246660709381103515625</LatitudeDegrees>
              <LongitudeDegrees>-6.26110506244003772735595703125</LongitudeDegrees>
            </Position>
            <AltitudeMeters>638.79998779296875</AltitudeMeters>
            <DistanceMeters>NAN</DistanceMeters>
          </Trackpoint>
          <Trackpoint>
            <Time>2019-10-10T09:31:28.000Z</Time>
            <Position>
              <LatitudeDegrees>38.08029360137879848480224609375</LatitudeDegrees>
              <LongitudeDegrees>-6.26068060286343097686767578125</LongitudeDegrees>
            </Position>
            <AltitudeMeters>638</AltitudeMeters>
            <DistanceMeters>NAN</DistanceMeters>
          </Trackpoint>
          <Trackpoint>
            <Time>2019-10-10T09:31:32.000Z</Time>
            <Position>
              <LatitudeDegrees>38.08024465106427669525146484375</LatitudeDegrees>
              <LongitudeDegrees>-6.2604295648634433746337890625</LongitudeDegrees>
            </Position>
            <AltitudeMeters>637</AltitudeMeters>
            <DistanceMeters>NAN</DistanceMeters>
          </Trackpoint>
          <Trackpoint>
            <Time>2019-10-10T09:31:37.000Z</Time>
            <Position>
              <LatitudeDegrees>38.08018228970468044281005859375</LatitudeDegrees>
              <LongitudeDegrees>-6.26009521074593067169189453125</LongitudeDegrees>
            </Position>
            <AltitudeMeters>636.4000244140625</AltitudeMeters>
            <DistanceMeters>NAN</DistanceMeters>
          </Trackpoint>
          <Trackpoint>
            <Time>2019-10-10T09:31:40.000Z</Time>
            <Position>
              <LatitudeDegrees>38.08013987727463245391845703125</LatitudeDegrees>
              <LongitudeDegrees>-6.25989102758467197418212890625</LongitudeDegrees>
            </Position>
            <AltitudeMeters>636.4000244140625</AltitudeMeters>
            <DistanceMeters>NAN</DistanceMeters>
          </Trackpoint>
          <Trackpoint>
            <Time>2019-10-10T09:31:43.000Z</Time>
            <Position>
              <LatitudeDegrees>38.08009964413940906524658203125</LatitudeDegrees>
              <LongitudeDegrees>-6.25968550331890583038330078125</LongitudeDegrees>
            </Position>
            <AltitudeMeters>636.20001220703125</AltitudeMeters>
            <DistanceMeters>NAN</DistanceMeters>
          </Trackpoint>
          <Trackpoint>
            <Time>2019-10-10T09:31:44.000Z</Time>
            <Position>
              <LatitudeDegrees>38.08008505962789058685302734375</LatitudeDegrees>
              <LongitudeDegrees>-6.25961811281740665435791015625</LongitudeDegrees>
            </Position>
            <AltitudeMeters>636</AltitudeMeters>
            <DistanceMeters>NAN</DistanceMeters>
          </Trackpoint>
          <Trackpoint>
            <Time>2019-10-10T09:31:48.000Z</Time>
            <Position>
              <LatitudeDegrees>38.08003677986562252044677734375</LatitudeDegrees>
              <LongitudeDegrees>-6.2593533284962177276611328125</LongitudeDegrees>
            </Position>
            <AltitudeMeters>635.20001220703125</AltitudeMeters>
            <DistanceMeters>NAN</DistanceMeters>
          </Trackpoint>
          <Trackpoint>
            <Time>2019-10-10T09:31:54.000Z</Time>
            <Position>
              <LatitudeDegrees>38.07996050454676151275634765625</LatitudeDegrees>
              <LongitudeDegrees>-6.2589727900922298431396484375</LongitudeDegrees>
            </Position>
            <AltitudeMeters>636.4000244140625</AltitudeMeters>
            <DistanceMeters>NAN</DistanceMeters>
          </Trackpoint>
          <Trackpoint>
            <Time>2019-10-10T09:31:58.000Z</Time>
            <Position>
              <LatitudeDegrees>38.0799002386629581451416015625</LatitudeDegrees>
              <LongitudeDegrees>-6.258724518120288848876953125</LongitudeDegrees>
            </Position>
            <AltitudeMeters>635.79998779296875</AltitudeMeters>
            <DistanceMeters>NAN</DistanceMeters>
          </Trackpoint>
          <Trackpoint>
            <Time>2019-10-10T09:32:06.000Z</Time>
            <Position>
              <LatitudeDegrees>38.0797399766743183135986328125</LatitudeDegrees>
              <LongitudeDegrees>-6.258236356079578399658203125</LongitudeDegrees>
            </Position>
            <AltitudeMeters>636.79998779296875</AltitudeMeters>
            <DistanceMeters>NAN</DistanceMeters>
          </Trackpoint>
          <Trackpoint>
            <Time>2019-10-10T09:32:07.000Z</Time>
            <Position>
              <LatitudeDegrees>38.07971659116446971893310546875</LatitudeDegrees>
              <LongitudeDegrees>-6.25817860476672649383544921875</LongitudeDegrees>
            </Position>
            <AltitudeMeters>637</AltitudeMeters>
            <DistanceMeters>NAN</DistanceMeters>
          </Trackpoint>
          <Trackpoint>
            <Time>2019-10-10T09:32:13.000Z</Time>
            <Position>
              <LatitudeDegrees>38.07955138385295867919921875</LatitudeDegrees>
              <LongitudeDegrees>-6.25784785486757755279541015625</LongitudeDegrees>
            </Position>
            <AltitudeMeters>635.79998779296875</AltitudeMeters>
            <DistanceMeters>NAN</DistanceMeters>
          </Trackpoint>
          <Trackpoint>
            <Time>2019-10-10T09:32:15.000Z</Time>
            <Position>
              <LatitudeDegrees>38.07948759756982326507568359375</LatitudeDegrees>
              <LongitudeDegrees>-6.25774919986724853515625</LongitudeDegrees>
            </Position>
            <AltitudeMeters>636.5999755859375</AltitudeMeters>
            <DistanceMeters>NAN</DistanceMeters>
          </Trackpoint>
          <Trackpoint>
            <Time>2019-10-10T09:32:16.000Z</Time>
            <Position>
              <LatitudeDegrees>38.07945339940488338470458984375</LatitudeDegrees>
              <LongitudeDegrees>-6.25770016573369503021240234375</LongitudeDegrees>
            </Position>
            <AltitudeMeters>636.79998779296875</AltitudeMeters>
            <DistanceMeters>NAN</DistanceMeters>
          </Trackpoint>
          <Trackpoint>
            <Time>2019-10-10T09:32:19.000Z</Time>
            <Position>
              <LatitudeDegrees>38.07934912852942943572998046875</LatitudeDegrees>
              <LongitudeDegrees>-6.2575572542846202850341796875</LongitudeDegrees>
            </Position>
            <AltitudeMeters>635.79998779296875</AltitudeMeters>
            <DistanceMeters>NAN</DistanceMeters>
          </Trackpoint>
          <Trackpoint>
            <Time>2019-10-10T09:32:25.000Z</Time>
            <Position>
              <LatitudeDegrees>38.0791244097054004669189453125</LatitudeDegrees>
              <LongitudeDegrees>-6.25729364342987537384033203125</LongitudeDegrees>
            </Position>
            <AltitudeMeters>635.4000244140625</AltitudeMeters>
            <DistanceMeters>NAN</DistanceMeters>
          </Trackpoint>
          <Trackpoint>
            <Time>2019-10-10T09:32:33.000Z</Time>
            <Position>
              <LatitudeDegrees>38.07878502644598484039306640625</LatitudeDegrees>
              <LongitudeDegrees>-6.25701201148331165313720703125</LongitudeDegrees>
            </Position>
            <AltitudeMeters>635.4000244140625</AltitudeMeters>
            <DistanceMeters>NAN</DistanceMeters>
          </Trackpoint>
          <Trackpoint>
            <Time>2019-10-10T09:32:34.000Z</Time>
            <Position>
              <LatitudeDegrees>38.07874202728271484375</LatitudeDegrees>
              <LongitudeDegrees>-6.25698166899383068084716796875</LongitudeDegrees>
            </Position>
            <AltitudeMeters>634.79998779296875</AltitudeMeters>
            <DistanceMeters>NAN</DistanceMeters>
          </Trackpoint>
          <Trackpoint>
            <Time>2019-10-10T09:32:42.000Z</Time>
            <Position>
              <LatitudeDegrees>38.078378923237323760986328125</LatitudeDegrees>
              <LongitudeDegrees>-6.25676684081554412841796875</LongitudeDegrees>
            </Position>
            <AltitudeMeters>635.20001220703125</AltitudeMeters>
            <DistanceMeters>NAN</DistanceMeters>
          </Trackpoint>
          <Trackpoint>
            <Time>2019-10-10T09:32:51.000Z</Time>
            <Position>
              <LatitudeDegrees>38.07796418666839599609375</LatitudeDegrees>
              <LongitudeDegrees>-6.25652753747999668121337890625</LongitudeDegrees>
            </Position>
            <AltitudeMeters>634.5999755859375</AltitudeMeters>
            <DistanceMeters>NAN</DistanceMeters>
          </Trackpoint>
          <Trackpoint>
            <Time>2019-10-10T09:33:01.000Z</Time>
            <Position>
              <LatitudeDegrees>38.07748096995055675506591796875</LatitudeDegrees>
              <LongitudeDegrees>-6.25623886473476886749267578125</LongitudeDegrees>
            </Position>
            <AltitudeMeters>634.4000244140625</AltitudeMeters>
            <DistanceMeters>NAN</DistanceMeters>
          </Trackpoint>
          <Trackpoint>
            <Time>2019-10-10T09:33:02.000Z</Time>
            <Position>
              <LatitudeDegrees>38.077431432902812957763671875</LatitudeDegrees>
              <LongitudeDegrees>-6.256207264959812164306640625</LongitudeDegrees>
            </Position>
            <AltitudeMeters>634.4000244140625</AltitudeMeters>
            <DistanceMeters>NAN</DistanceMeters>
          </Trackpoint>
          <Trackpoint>
            <Time>2019-10-10T09:33:04.000Z</Time>
            <Position>
              <LatitudeDegrees>38.07732925750315189361572265625</LatitudeDegrees>
              <LongitudeDegrees>-6.256142556667327880859375</LongitudeDegrees>
            </Position>
            <AltitudeMeters>633.4000244140625</AltitudeMeters>
            <DistanceMeters>NAN</DistanceMeters>
          </Trackpoint>
          <Trackpoint>
            <Time>2019-10-10T09:33:08.000Z</Time>
            <Position>
              <LatitudeDegrees>38.07711937464773654937744140625</LatitudeDegrees>
              <LongitudeDegrees>-6.25599411316215991973876953125</LongitudeDegrees>
            </Position>
            <AltitudeMeters>633</AltitudeMeters>
            <DistanceMeters>NAN</DistanceMeters>
          </Trackpoint>
          <Trackpoint>
            <Time>2019-10-10T09:33:10.000Z</Time>
            <Position>
              <LatitudeDegrees>38.07700864970684051513671875</LatitudeDegrees>
              <LongitudeDegrees>-6.25591398216784000396728515625</LongitudeDegrees>
            </Position>
            <AltitudeMeters>633</AltitudeMeters>
            <DistanceMeters>NAN</DistanceMeters>
          </Trackpoint>
          <Trackpoint>
            <Time>2019-10-10T09:33:12.000Z</Time>
            <Position>
              <LatitudeDegrees>38.07689524255692958831787109375</LatitudeDegrees>
              <LongitudeDegrees>-6.2558300793170928955078125</LongitudeDegrees>
            </Position>
            <AltitudeMeters>632.20001220703125</AltitudeMeters>
            <DistanceMeters>NAN</DistanceMeters>
          </Trackpoint>
          <Trackpoint>
            <Time>2019-10-10T09:33:18.000Z</Time>
            <Position>
              <LatitudeDegrees>38.0765515007078647613525390625</LatitudeDegrees>
              <LongitudeDegrees>-6.255554147064685821533203125</LongitudeDegrees>
            </Position>
            <AltitudeMeters>631.79998779296875</AltitudeMeters>
            <DistanceMeters>NAN</DistanceMeters>
          </Trackpoint>
          <Trackpoint>
            <Time>2019-10-10T09:33:21.000Z</Time>
            <Position>
              <LatitudeDegrees>38.07637221179902553558349609375</LatitudeDegrees>
              <LongitudeDegrees>-6.2553980760276317596435546875</LongitudeDegrees>
            </Position>
            <AltitudeMeters>631.20001220703125</AltitudeMeters>
            <DistanceMeters>NAN</DistanceMeters>
          </Trackpoint>
          <Trackpoint>
            <Time>2019-10-10T09:33:26.000Z</Time>
            <Position>
              <LatitudeDegrees>38.07607792317867279052734375</LatitudeDegrees>
              <LongitudeDegrees>-6.25512273050844669342041015625</LongitudeDegrees>
            </Position>
            <AltitudeMeters>630</AltitudeMeters>
            <DistanceMeters>NAN</DistanceMeters>
          </Trackpoint>
          <Trackpoint>
            <Time>2019-10-10T09:33:28.000Z</Time>
            <Position>
              <LatitudeDegrees>38.075960241258144378662109375</LatitudeDegrees>
              <LongitudeDegrees>-6.25500706024467945098876953125</LongitudeDegrees>
            </Position>
            <AltitudeMeters>629.4000244140625</AltitudeMeters>
            <DistanceMeters>NAN</DistanceMeters>
          </Trackpoint>
          <Trackpoint>
            <Time>2019-10-10T09:33:30.000Z</Time>
            <Position>
              <LatitudeDegrees>38.07584599591791629791259765625</LatitudeDegrees>
              <LongitudeDegrees>-6.25488786958158016204833984375</LongitudeDegrees>
            </Position>
            <AltitudeMeters>628.4000244140625</AltitudeMeters>
            <DistanceMeters>NAN</DistanceMeters>
          </Trackpoint>
          <Trackpoint>
            <Time>2019-10-10T09:33:33.000Z</Time>
            <Position>
              <LatitudeDegrees>38.07567819021642208099365234375</LatitudeDegrees>
              <LongitudeDegrees>-6.25469625927507877349853515625</LongitudeDegrees>
            </Position>
            <AltitudeMeters>628.20001220703125</AltitudeMeters>
            <DistanceMeters>NAN</DistanceMeters>
          </Trackpoint>
          <Trackpoint>
            <Time>2019-10-10T09:33:35.000Z</Time>
            <Position>
              <LatitudeDegrees>38.0755694769322872161865234375</LatitudeDegrees>
              <LongitudeDegrees>-6.25457002781331539154052734375</LongitudeDegrees>
            </Position>
            <AltitudeMeters>628.5999755859375</AltitudeMeters>
            <DistanceMeters>NAN</DistanceMeters>
          </Trackpoint>
          <Trackpoint>
            <Time>2019-10-10T09:33:36.000Z</Time>
            <Position>
              <LatitudeDegrees>38.07551658712327480316162109375</LatitudeDegrees>
              <LongitudeDegrees>-6.25450632534921169281005859375</LongitudeDegrees>
            </Position>
            <AltitudeMeters>628.4000244140625</AltitudeMeters>
            <DistanceMeters>NAN</DistanceMeters>
          </Trackpoint>
          <Trackpoint>
            <Time>2019-10-10T09:33:37.000Z</Time>
            <Position>
              <LatitudeDegrees>38.07546327821910381317138671875</LatitudeDegrees>
              <LongitudeDegrees>-6.25444346107542514801025390625</LongitudeDegrees>
            </Position>
            <AltitudeMeters>626.79998779296875</AltitudeMeters>
            <DistanceMeters>NAN</DistanceMeters>
          </Trackpoint>
          <Trackpoint>
            <Time>2019-10-10T09:33:43.000Z</Time>
            <Position>
              <LatitudeDegrees>38.075141496956348419189453125</LatitudeDegrees>
              <LongitudeDegrees>-6.2540415488183498382568359375</LongitudeDegrees>
            </Position>
            <AltitudeMeters>625.4000244140625</AltitudeMeters>
            <DistanceMeters>NAN</DistanceMeters>
          </Trackpoint>
          <Trackpoint>
            <Time>2019-10-10T09:33:45.000Z</Time>
            <Position>
              <LatitudeDegrees>38.07503781281411647796630859375</LatitudeDegrees>
              <LongitudeDegrees>-6.25390492379665374755859375</LongitudeDegrees>
            </Position>
            <AltitudeMeters>625.4000244140625</AltitudeMeters>
            <DistanceMeters>NAN</DistanceMeters>
          </Trackpoint>
          <Trackpoint>
            <Time>2019-10-10T09:33:48.000Z</Time>
            <Position>
              <LatitudeDegrees>38.074881993234157562255859375</LatitudeDegrees>
              <LongitudeDegrees>-6.253692023456096649169921875</LongitudeDegrees>
            </Position>
            <AltitudeMeters>624.5999755859375</AltitudeMeters>
            <DistanceMeters>NAN</DistanceMeters>
          </Trackpoint>
          <Trackpoint>
            <Time>2019-10-10T09:33:49.000Z</Time>
            <Position>
              <LatitudeDegrees>38.0748295225203037261962890625</LatitudeDegrees>
              <LongitudeDegrees>-6.25361918471753597259521484375</LongitudeDegrees>
            </Position>
            <AltitudeMeters>624.20001220703125</AltitudeMeters>
            <DistanceMeters>NAN</DistanceMeters>
          </Trackpoint>
          <Trackpoint>
            <Time>2019-10-10T09:33:54.000Z</Time>
            <Position>
              <LatitudeDegrees>38.07456390000879764556884765625</LatitudeDegrees>
              <LongitudeDegrees>-6.25327401794493198394775390625</LongitudeDegrees>
            </Position>
            <AltitudeMeters>623.20001220703125</AltitudeMeters>
            <DistanceMeters>NAN</DistanceMeters>
          </Trackpoint>
          <Trackpoint>
            <Time>2019-10-10T09:33:55.000Z</Time>
            <Position>
              <LatitudeDegrees>38.074513189494609832763671875</LatitudeDegrees>
              <LongitudeDegrees>-6.25320461578667163848876953125</LongitudeDegrees>
            </Position>
            <AltitudeMeters>622.5999755859375</AltitudeMeters>
            <DistanceMeters>NAN</DistanceMeters>
          </Trackpoint>
          <Trackpoint>
            <Time>2019-10-10T09:33:59.000Z</Time>
            <Position>
              <LatitudeDegrees>38.07431244291365146636962890625</LatitudeDegrees>
              <LongitudeDegrees>-6.25293035991489887237548828125</LongitudeDegrees>
            </Position>
            <AltitudeMeters>622.5999755859375</AltitudeMeters>
            <DistanceMeters>NAN</DistanceMeters>
          </Trackpoint>
          <Trackpoint>
            <Time>2019-10-10T09:34:01.000Z</Time>
            <Position>
              <LatitudeDegrees>38.07421454228460788726806640625</LatitudeDegrees>
              <LongitudeDegrees>-6.25279306434094905853271484375</LongitudeDegrees>
            </Position>
            <AltitudeMeters>621.79998779296875</AltitudeMeters>
            <DistanceMeters>NAN</DistanceMeters>
          </Trackpoint>
          <Trackpoint>
            <Time>2019-10-10T09:34:03.000Z</Time>
            <Position>
              <LatitudeDegrees>38.07411999441683292388916015625</LatitudeDegrees>
              <LongitudeDegrees>-6.25265208072960376739501953125</LongitudeDegrees>
            </Position>
            <AltitudeMeters>621.4000244140625</AltitudeMeters>
            <DistanceMeters>NAN</DistanceMeters>
          </Trackpoint>
          <Trackpoint>
            <Time>2019-10-10T09:34:09.000Z</Time>
            <Position>
              <LatitudeDegrees>38.073862083256244659423828125</LatitudeDegrees>
              <LongitudeDegrees>-6.2522112764418125152587890625</LongitudeDegrees>
            </Position>
            <AltitudeMeters>620.5999755859375</AltitudeMeters>
            <DistanceMeters>NAN</DistanceMeters>
          </Trackpoint>
          <Trackpoint>
            <Time>2019-10-10T09:34:11.000Z</Time>
            <Position>
              <LatitudeDegrees>38.073779605329036712646484375</LatitudeDegrees>
              <LongitudeDegrees>-6.252060234546661376953125</LongitudeDegrees>
            </Position>
            <AltitudeMeters>620.20001220703125</AltitudeMeters>
            <DistanceMeters>NAN</DistanceMeters>
          </Trackpoint>
          <Trackpoint>
            <Time>2019-10-10T09:34:16.000Z</Time>
            <Position>
              <LatitudeDegrees>38.0735796131193637847900390625</LatitudeDegrees>
              <LongitudeDegrees>-6.25164675526320934295654296875</LongitudeDegrees>
            </Position>
            <AltitudeMeters>618.5999755859375</AltitudeMeters>
            <DistanceMeters>NAN</DistanceMeters>
          </Trackpoint>
          <Trackpoint>
            <Time>2019-10-10T09:34:17.000Z</Time>
            <Position>
              <LatitudeDegrees>38.07353946380317211151123046875</LatitudeDegrees>
              <LongitudeDegrees>-6.2515578232705593109130859375</LongitudeDegrees>
            </Position>
            <AltitudeMeters>618</AltitudeMeters>
            <DistanceMeters>NAN</DistanceMeters>
          </Trackpoint>
          <Trackpoint>
            <Time>2019-10-10T09:34:19.000Z</Time>
            <Position>
              <LatitudeDegrees>38.0734579078853130340576171875</LatitudeDegrees>
              <LongitudeDegrees>-6.25137333758175373077392578125</LongitudeDegrees>
            </Position>
            <AltitudeMeters>617.4000244140625</AltitudeMeters>
            <DistanceMeters>NAN</DistanceMeters>
          </Trackpoint>
          <Trackpoint>
            <Time>2019-10-10T09:34:21.000Z</Time>
            <Position>
              <LatitudeDegrees>38.0733737535774707794189453125</LatitudeDegrees>
              <LongitudeDegrees>-6.2511844933032989501953125</LongitudeDegrees>
            </Position>
            <AltitudeMeters>616</AltitudeMeters>
            <DistanceMeters>NAN</DistanceMeters>
          </Trackpoint>
          <Trackpoint>
            <Time>2019-10-10T09:34:22.000Z</Time>
            <Position>
              <LatitudeDegrees>38.0733291618525981903076171875</LatitudeDegrees>
              <LongitudeDegrees>-6.25108600594103336334228515625</LongitudeDegrees>
            </Position>
            <AltitudeMeters>614.5999755859375</AltitudeMeters>
            <DistanceMeters>NAN</DistanceMeters>
          </Trackpoint>
          <Trackpoint>
            <Time>2019-10-10T09:34:23.000Z</Time>
            <Position>
              <LatitudeDegrees>38.07328314520418643951416015625</LatitudeDegrees>
              <LongitudeDegrees>-6.25098659656941890716552734375</LongitudeDegrees>
            </Position>
            <AltitudeMeters>613.5999755859375</AltitudeMeters>
            <DistanceMeters>NAN</DistanceMeters>
          </Trackpoint>
          <Trackpoint>
            <Time>2019-10-10T09:34:24.000Z</Time>
            <Position>
              <LatitudeDegrees>38.073236458003520965576171875</LatitudeDegrees>
              <LongitudeDegrees>-6.2508855946362018585205078125</LongitudeDegrees>
            </Position>
            <AltitudeMeters>612.4000244140625</AltitudeMeters>
            <DistanceMeters>NAN</DistanceMeters>
          </Trackpoint>
          <Trackpoint>
            <Time>2019-10-10T09:34:26.000Z</Time>
            <Position>
              <LatitudeDegrees>38.07314383797347545623779296875</LatitudeDegrees>
              <LongitudeDegrees>-6.250677891075611114501953125</LongitudeDegrees>
            </Position>
            <AltitudeMeters>610.79998779296875</AltitudeMeters>
            <DistanceMeters>NAN</DistanceMeters>
          </Trackpoint>
          <Trackpoint>
            <Time>2019-10-10T09:34:29.000Z</Time>
            <Position>
              <LatitudeDegrees>38.073004782199859619140625</LatitudeDegrees>
              <LongitudeDegrees>-6.2503615580499172210693359375</LongitudeDegrees>
            </Position>
            <AltitudeMeters>609.4000244140625</AltitudeMeters>
            <DistanceMeters>NAN</DistanceMeters>
          </Trackpoint>
          <Trackpoint>
            <Time>2019-10-10T09:34:31.000Z</Time>
            <Position>
              <LatitudeDegrees>38.0729080550372600555419921875</LatitudeDegrees>
              <LongitudeDegrees>-6.25015041790902614593505859375</LongitudeDegrees>
            </Position>
            <AltitudeMeters>607.5999755859375</AltitudeMeters>
            <DistanceMeters>NAN</DistanceMeters>
          </Trackpoint>
          <Trackpoint>
            <Time>2019-10-10T09:34:33.000Z</Time>
            <Position>
              <LatitudeDegrees>38.07280587963759899139404296875</LatitudeDegrees>
              <LongitudeDegrees>-6.2499374337494373321533203125</LongitudeDegrees>
            </Position>
            <AltitudeMeters>606.5999755859375</AltitudeMeters>
            <DistanceMeters>NAN</DistanceMeters>
          </Trackpoint>
          <Trackpoint>
            <Time>2019-10-10T09:34:34.000Z</Time>
            <Position>
              <LatitudeDegrees>38.07275391183793544769287109375</LatitudeDegrees>
              <LongitudeDegrees>-6.2498294748365879058837890625</LongitudeDegrees>
            </Position>
            <AltitudeMeters>606.4000244140625</AltitudeMeters>
            <DistanceMeters>NAN</DistanceMeters>
          </Trackpoint>
          <Trackpoint>
            <Time>2019-10-10T09:34:35.000Z</Time>
            <Position>
              <LatitudeDegrees>38.0726998485624790191650390625</LatitudeDegrees>
              <LongitudeDegrees>-6.24972201883792877197265625</LongitudeDegrees>
            </Position>
            <AltitudeMeters>605.4000244140625</AltitudeMeters>
            <DistanceMeters>NAN</DistanceMeters>
          </Trackpoint>
          <Trackpoint>
            <Time>2019-10-10T09:34:36.000Z</Time>
            <Position>
              <LatitudeDegrees>38.07264360599219799041748046875</LatitudeDegrees>
              <LongitudeDegrees>-6.24961598776280879974365234375</LongitudeDegrees>
            </Position>
            <AltitudeMeters>604.4000244140625</AltitudeMeters>
            <DistanceMeters>NAN</DistanceMeters>
          </Trackpoint>
          <Trackpoint>
            <Time>2019-10-10T09:34:38.000Z</Time>
            <Position>
              <LatitudeDegrees>38.07252609170973300933837890625</LatitudeDegrees>
              <LongitudeDegrees>-6.24940224923193454742431640625</LongitudeDegrees>
            </Position>
            <AltitudeMeters>603.4000244140625</AltitudeMeters>
            <DistanceMeters>NAN</DistanceMeters>
          </Trackpoint>
          <Trackpoint>
            <Time>2019-10-10T09:34:39.000Z</Time>
            <Position>
              <LatitudeDegrees>38.07246322743594646453857421875</LatitudeDegrees>
              <LongitudeDegrees>-6.2492973916232585906982421875</LongitudeDegrees>
            </Position>
            <AltitudeMeters>603</AltitudeMeters>
            <DistanceMeters>NAN</DistanceMeters>
          </Trackpoint>
          <Trackpoint>
            <Time>2019-10-10T09:34:40.000Z</Time>
            <Position>
              <LatitudeDegrees>38.0723967589437961578369140625</LatitudeDegrees>
              <LongitudeDegrees>-6.2491931207478046417236328125</LongitudeDegrees>
            </Position>
            <AltitudeMeters>602.20001220703125</AltitudeMeters>
            <DistanceMeters>NAN</DistanceMeters>
          </Trackpoint>
          <Trackpoint>
            <Time>2019-10-10T09:34:42.000Z</Time>
            <Position>
              <LatitudeDegrees>38.072259463369846343994140625</LatitudeDegrees>
              <LongitudeDegrees>-6.24899002723395824432373046875</LongitudeDegrees>
            </Position>
            <AltitudeMeters>600.5999755859375</AltitudeMeters>
            <DistanceMeters>NAN</DistanceMeters>
          </Trackpoint>
          <Trackpoint>
            <Time>2019-10-10T09:34:43.000Z</Time>
            <Position>
              <LatitudeDegrees>38.07218872010707855224609375</LatitudeDegrees>
              <LongitudeDegrees>-6.24889212660491466522216796875</LongitudeDegrees>
            </Position>
            <AltitudeMeters>599.5999755859375</AltitudeMeters>
            <DistanceMeters>NAN</DistanceMeters>
          </Trackpoint>
          <Trackpoint>
            <Time>2019-10-10T09:34:45.000Z</Time>
            <Position>
              <LatitudeDegrees>38.072038851678371429443359375</LatitudeDegrees>
              <LongitudeDegrees>-6.24870336614549160003662109375</LongitudeDegrees>
            </Position>
            <AltitudeMeters>598.4000244140625</AltitudeMeters>
            <DistanceMeters>NAN</DistanceMeters>
          </Trackpoint>
          <Trackpoint>
            <Time>2019-10-10T09:34:47.000Z</Time>
            <Position>
              <LatitudeDegrees>38.07188118807971477508544921875</LatitudeDegrees>
              <LongitudeDegrees>-6.24852332286536693572998046875</LongitudeDegrees>
            </Position>
            <AltitudeMeters>597.20001220703125</AltitudeMeters>
            <DistanceMeters>NAN</DistanceMeters>
          </Trackpoint>
          <Trackpoint>
            <Time>2019-10-10T09:34:48.000Z</Time>
            <Position>
              <LatitudeDegrees>38.0718004703521728515625</LatitudeDegrees>
              <LongitudeDegrees>-6.24843447469174861907958984375</LongitudeDegrees>
            </Position>
            <AltitudeMeters>595.79998779296875</AltitudeMeters>
            <DistanceMeters>NAN</DistanceMeters>
          </Trackpoint>
          <Trackpoint>
            <Time>2019-10-10T09:34:50.000Z</Time>
            <Position>
              <LatitudeDegrees>38.07163207791745662689208984375</LatitudeDegrees>
              <LongitudeDegrees>-6.24826423823833465576171875</LongitudeDegrees>
            </Position>
            <AltitudeMeters>594.5999755859375</AltitudeMeters>
            <DistanceMeters>NAN</DistanceMeters>
          </Trackpoint>
          <Trackpoint>
            <Time>2019-10-10T09:34:51.000Z</Time>
            <Position>
              <LatitudeDegrees>38.07154574431478977203369140625</LatitudeDegrees>
              <LongitudeDegrees>-6.2481804192066192626953125</LongitudeDegrees>
            </Position>
            <AltitudeMeters>594.4000244140625</AltitudeMeters>
            <DistanceMeters>NAN</DistanceMeters>
          </Trackpoint>
          <Trackpoint>
            <Time>2019-10-10T09:34:53.000Z</Time>
            <Position>
              <LatitudeDegrees>38.07137056253850460052490234375</LatitudeDegrees>
              <LongitudeDegrees>-6.248008422553539276123046875</LongitudeDegrees>
            </Position>
            <AltitudeMeters>593.4000244140625</AltitudeMeters>
            <DistanceMeters>NAN</DistanceMeters>
          </Trackpoint>
          <Trackpoint>
            <Time>2019-10-10T09:34:55.000Z</Time>
            <Position>
              <LatitudeDegrees>38.07119035162031650543212890625</LatitudeDegrees>
              <LongitudeDegrees>-6.247838772833347320556640625</LongitudeDegrees>
            </Position>
            <AltitudeMeters>592.4000244140625</AltitudeMeters>
            <DistanceMeters>NAN</DistanceMeters>
          </Trackpoint>
          <Trackpoint>
            <Time>2019-10-10T09:34:57.000Z</Time>
            <Position>
              <LatitudeDegrees>38.0710060335695743560791015625</LatitudeDegrees>
              <LongitudeDegrees>-6.247665099799633026123046875</LongitudeDegrees>
            </Position>
            <AltitudeMeters>590.79998779296875</AltitudeMeters>
            <DistanceMeters>NAN</DistanceMeters>
          </Trackpoint>
          <Trackpoint>
            <Time>2019-10-10T09:34:58.000Z</Time>
            <Position>
              <LatitudeDegrees>38.0709131620824337005615234375</LatitudeDegrees>
              <LongitudeDegrees>-6.2475784309208393096923828125</LongitudeDegrees>
            </Position>
            <AltitudeMeters>589.79998779296875</AltitudeMeters>
            <DistanceMeters>NAN</DistanceMeters>
          </Trackpoint>
          <Trackpoint>
            <Time>2019-10-10T09:34:59.000Z</Time>
            <Position>
              <LatitudeDegrees>38.07082087732851505279541015625</LatitudeDegrees>
              <LongitudeDegrees>-6.24748815782368183135986328125</LongitudeDegrees>
            </Position>
            <AltitudeMeters>588.79998779296875</AltitudeMeters>
            <DistanceMeters>NAN</DistanceMeters>
          </Trackpoint>
          <Trackpoint>
            <Time>2019-10-10T09:35:01.000Z</Time>
            <Position>
              <LatitudeDegrees>38.07063840329647064208984375</LatitudeDegrees>
              <LongitudeDegrees>-6.2472981400787830352783203125</LongitudeDegrees>
            </Position>
            <AltitudeMeters>586.79998779296875</AltitudeMeters>
            <DistanceMeters>NAN</DistanceMeters>
          </Trackpoint>
          <Trackpoint>
            <Time>2019-10-10T09:35:03.000Z</Time>
            <Position>
              <LatitudeDegrees>38.07047302834689617156982421875</LatitudeDegrees>
              <LongitudeDegrees>-6.24708381481468677520751953125</LongitudeDegrees>
            </Position>
            <AltitudeMeters>585</AltitudeMeters>
            <DistanceMeters>NAN</DistanceMeters>
          </Trackpoint>
          <Trackpoint>
            <Time>2019-10-10T09:35:04.000Z</Time>
            <Position>
              <LatitudeDegrees>38.0704001896083354949951171875</LatitudeDegrees>
              <LongitudeDegrees>-6.2469648756086826324462890625</LongitudeDegrees>
            </Position>
            <AltitudeMeters>584.5999755859375</AltitudeMeters>
            <DistanceMeters>NAN</DistanceMeters>
          </Trackpoint>
          <Trackpoint>
            <Time>2019-10-10T09:35:05.000Z</Time>
            <Position>
              <LatitudeDegrees>38.07033522985875606536865234375</LatitudeDegrees>
              <LongitudeDegrees>-6.246838308870792388916015625</LongitudeDegrees>
            </Position>
            <AltitudeMeters>583.5999755859375</AltitudeMeters>
            <DistanceMeters>NAN</DistanceMeters>
          </Trackpoint>
          <Trackpoint>
            <Time>2019-10-10T09:35:07.000Z</Time>
            <Position>
              <LatitudeDegrees>38.0702208168804645538330078125</LatitudeDegrees>
              <LongitudeDegrees>-6.246572434902191162109375</LongitudeDegrees>
            </Position>
            <AltitudeMeters>581.5999755859375</AltitudeMeters>
            <DistanceMeters>NAN</DistanceMeters>
          </Trackpoint>
          <Trackpoint>
            <Time>2019-10-10T09:35:08.000Z</Time>
            <Position>
              <LatitudeDegrees>38.07017362676560878753662109375</LatitudeDegrees>
              <LongitudeDegrees>-6.2464321218430995941162109375</LongitudeDegrees>
            </Position>
            <AltitudeMeters>581.79998779296875</AltitudeMeters>
            <DistanceMeters>NAN</DistanceMeters>
          </Trackpoint>
          <Trackpoint>
            <Time>2019-10-10T09:35:09.000Z</Time>
            <Position>
              <LatitudeDegrees>38.07013674639165401458740234375</LatitudeDegrees>
              <LongitudeDegrees>-6.24628434889018535614013671875</LongitudeDegrees>
            </Position>
            <AltitudeMeters>581.20001220703125</AltitudeMeters>
            <DistanceMeters>NAN</DistanceMeters>
          </Trackpoint>
          <Trackpoint>
            <Time>2019-10-10T09:35:11.000Z</Time>
            <Position>
              <LatitudeDegrees>38.0700803361833095550537109375</LatitudeDegrees>
              <LongitudeDegrees>-6.24598461203277111053466796875</LongitudeDegrees>
            </Position>
            <AltitudeMeters>580</AltitudeMeters>
            <DistanceMeters>NAN</DistanceMeters>
          </Trackpoint>
          <Trackpoint>
            <Time>2019-10-10T09:35:12.000Z</Time>
            <Position>
              <LatitudeDegrees>38.070053346455097198486328125</LatitudeDegrees>
              <LongitudeDegrees>-6.2458323128521442413330078125</LongitudeDegrees>
            </Position>
            <AltitudeMeters>579.20001220703125</AltitudeMeters>
            <DistanceMeters>NAN</DistanceMeters>
          </Trackpoint>
          <Trackpoint>
            <Time>2019-10-10T09:35:13.000Z</Time>
            <Position>
              <LatitudeDegrees>38.07002660818397998809814453125</LatitudeDegrees>
              <LongitudeDegrees>-6.2456794269382953643798828125</LongitudeDegrees>
            </Position>
            <AltitudeMeters>578.20001220703125</AltitudeMeters>
            <DistanceMeters>NAN</DistanceMeters>
          </Trackpoint>
          <Trackpoint>
            <Time>2019-10-10T09:35:14.000Z</Time>
            <Position>
              <LatitudeDegrees>38.070000708103179931640625</LatitudeDegrees>
              <LongitudeDegrees>-6.24552595429122447967529296875</LongitudeDegrees>
            </Position>
            <AltitudeMeters>576.20001220703125</AltitudeMeters>
            <DistanceMeters>NAN</DistanceMeters>
          </Trackpoint>
          <Trackpoint>
            <Time>2019-10-10T09:35:15.000Z</Time>
            <Position>
              <LatitudeDegrees>38.06997455656528472900390625</LatitudeDegrees>
              <LongitudeDegrees>-6.24537172727286815643310546875</LongitudeDegrees>
            </Position>
            <AltitudeMeters>574.5999755859375</AltitudeMeters>
            <DistanceMeters>NAN</DistanceMeters>
          </Trackpoint>
          <Trackpoint>
            <Time>2019-10-10T09:35:18.000Z</Time>
            <Position>
              <LatitudeDegrees>38.06986852549016475677490234375</LatitudeDegrees>
              <LongitudeDegrees>-6.24491172842681407928466796875</LongitudeDegrees>
            </Position>
            <AltitudeMeters>573</AltitudeMeters>
            <DistanceMeters>NAN</DistanceMeters>
          </Trackpoint>
          <Trackpoint>
            <Time>2019-10-10T09:35:19.000Z</Time>
            <Position>
              <LatitudeDegrees>38.0698184855282306671142578125</LatitudeDegrees>
              <LongitudeDegrees>-6.24476286582648754119873046875</LongitudeDegrees>
            </Position>
            <AltitudeMeters>571.79998779296875</AltitudeMeters>
            <DistanceMeters>NAN</DistanceMeters>
          </Trackpoint>
          <Trackpoint>
            <Time>2019-10-10T09:35:20.000Z</Time>
            <Position>
              <LatitudeDegrees>38.0697579681873321533203125</LatitudeDegrees>
              <LongitudeDegrees>-6.244620122015476226806640625</LongitudeDegrees>
            </Position>
            <AltitudeMeters>570.79998779296875</AltitudeMeters>
            <DistanceMeters>NAN</DistanceMeters>
          </Trackpoint>
          <Trackpoint>
            <Time>2019-10-10T09:35:21.000Z</Time>
            <Position>
              <LatitudeDegrees>38.06968982331454753875732421875</LatitudeDegrees>
              <LongitudeDegrees>-6.2444816529750823974609375</LongitudeDegrees>
            </Position>
            <AltitudeMeters>570.4000244140625</AltitudeMeters>
            <DistanceMeters>NAN</DistanceMeters>
          </Trackpoint>
          <Trackpoint>
            <Time>2019-10-10T09:35:22.000Z</Time>
            <Position>
              <LatitudeDegrees>38.0696156434714794158935546875</LatitudeDegrees>
              <LongitudeDegrees>-6.24434888362884521484375</LongitudeDegrees>
            </Position>
            <AltitudeMeters>569.79998779296875</AltitudeMeters>
            <DistanceMeters>NAN</DistanceMeters>
          </Trackpoint>
          <Trackpoint>
            <Time>2019-10-10T09:35:23.000Z</Time>
            <Position>
              <LatitudeDegrees>38.06953274644911289215087890625</LatitudeDegrees>
              <LongitudeDegrees>-6.24422390945255756378173828125</LongitudeDegrees>
            </Position>
            <AltitudeMeters>568.79998779296875</AltitudeMeters>
            <DistanceMeters>NAN</DistanceMeters>
          </Trackpoint>
          <Trackpoint>
            <Time>2019-10-10T09:35:24.000Z</Time>
            <Position>
              <LatitudeDegrees>38.06944356299936771392822265625</LatitudeDegrees>
              <LongitudeDegrees>-6.24410622753202915191650390625</LongitudeDegrees>
            </Position>
            <AltitudeMeters>567.79998779296875</AltitudeMeters>
            <DistanceMeters>NAN</DistanceMeters>
          </Trackpoint>
          <Trackpoint>
            <Time>2019-10-10T09:35:26.000Z</Time>
            <Position>
              <LatitudeDegrees>38.06924608536064624786376953125</LatitudeDegrees>
              <LongitudeDegrees>-6.24389491975307464599609375</LongitudeDegrees>
            </Position>
            <AltitudeMeters>566.4000244140625</AltitudeMeters>
            <DistanceMeters>NAN</DistanceMeters>
          </Trackpoint>
          <Trackpoint>
            <Time>2019-10-10T09:35:27.000Z</Time>
            <Position>
              <LatitudeDegrees>38.06913829408586025238037109375</LatitudeDegrees>
              <LongitudeDegrees>-6.24380531720817089080810546875</LongitudeDegrees>
            </Position>
            <AltitudeMeters>565</AltitudeMeters>
            <DistanceMeters>NAN</DistanceMeters>
          </Trackpoint>
          <Trackpoint>
            <Time>2019-10-10T09:35:29.000Z</Time>
            <Position>
              <LatitudeDegrees>38.06890645064413547515869140625</LatitudeDegrees>
              <LongitudeDegrees>-6.24366081319749355316162109375</LongitudeDegrees>
            </Position>
            <AltitudeMeters>563.20001220703125</AltitudeMeters>
            <DistanceMeters>NAN</DistanceMeters>
          </Trackpoint>
          <Trackpoint>
            <Time>2019-10-10T09:35:30.000Z</Time>
            <Position>
              <LatitudeDegrees>38.068784661591053009033203125</LatitudeDegrees>
              <LongitudeDegrees>-6.2436070851981639862060546875</LongitudeDegrees>
            </Position>
            <AltitudeMeters>562</AltitudeMeters>
            <DistanceMeters>NAN</DistanceMeters>
          </Trackpoint>
          <Trackpoint>
            <Time>2019-10-10T09:35:31.000Z</Time>
            <Position>
              <LatitudeDegrees>38.0686609447002410888671875</LatitudeDegrees>
              <LongitudeDegrees>-6.2435645051300525665283203125</LongitudeDegrees>
            </Position>
            <AltitudeMeters>561.20001220703125</AltitudeMeters>
            <DistanceMeters>NAN</DistanceMeters>
          </Trackpoint>
          <Trackpoint>
            <Time>2019-10-10T09:35:32.000Z</Time>
            <Position>
              <LatitudeDegrees>38.06853731162846088409423828125</LatitudeDegrees>
              <LongitudeDegrees>-6.24353324063122272491455078125</LongitudeDegrees>
            </Position>
            <AltitudeMeters>560.4000244140625</AltitudeMeters>
            <DistanceMeters>NAN</DistanceMeters>
          </Trackpoint>
          <Trackpoint>
            <Time>2019-10-10T09:35:34.000Z</Time>
            <Position>
              <LatitudeDegrees>38.06828535161912441253662109375</LatitudeDegrees>
              <LongitudeDegrees>-6.24350407160818576812744140625</LongitudeDegrees>
            </Position>
            <AltitudeMeters>559</AltitudeMeters>
            <DistanceMeters>NAN</DistanceMeters>
          </Trackpoint>
          <Trackpoint>
            <Time>2019-10-10T09:35:35.000Z</Time>
            <Position>
              <LatitudeDegrees>38.0681588687002658843994140625</LatitudeDegrees>
              <LongitudeDegrees>-6.24350373633205890655517578125</LongitudeDegrees>
            </Position>
            <AltitudeMeters>557.79998779296875</AltitudeMeters>
            <DistanceMeters>NAN</DistanceMeters>
          </Trackpoint>
          <Trackpoint>
            <Time>2019-10-10T09:35:36.000Z</Time>
            <Position>
              <LatitudeDegrees>38.06803272105753421783447265625</LatitudeDegrees>
              <LongitudeDegrees>-6.2435125373303890228271484375</LongitudeDegrees>
            </Position>
            <AltitudeMeters>557.20001220703125</AltitudeMeters>
            <DistanceMeters>NAN</DistanceMeters>
          </Trackpoint>
          <Trackpoint>
            <Time>2019-10-10T09:35:38.000Z</Time>
            <Position>
              <LatitudeDegrees>38.0677813477814197540283203125</LatitudeDegrees>
              <LongitudeDegrees>-6.24354028142988681793212890625</LongitudeDegrees>
            </Position>
            <AltitudeMeters>556.79998779296875</AltitudeMeters>
            <DistanceMeters>NAN</DistanceMeters>
          </Trackpoint>
          <Trackpoint>
            <Time>2019-10-10T09:35:40.000Z</Time>
            <Position>
              <LatitudeDegrees>38.06753349490463733673095703125</LatitudeDegrees>
              <LongitudeDegrees>-6.243576742708683013916015625</LongitudeDegrees>
            </Position>
            <AltitudeMeters>555</AltitudeMeters>
            <DistanceMeters>NAN</DistanceMeters>
          </Trackpoint>
          <Trackpoint>
            <Time>2019-10-10T09:35:42.000Z</Time>
            <Position>
              <LatitudeDegrees>38.06728539057075977325439453125</LatitudeDegrees>
              <LongitudeDegrees>-6.2436126172542572021484375</LongitudeDegrees>
            </Position>
            <AltitudeMeters>552.79998779296875</AltitudeMeters>
            <DistanceMeters>NAN</DistanceMeters>
          </Trackpoint>
          <Trackpoint>
            <Time>2019-10-10T09:35:43.000Z</Time>
            <Position>
              <LatitudeDegrees>38.06716251187026500701904296875</LatitudeDegrees>
              <LongitudeDegrees>-6.24362778849899768829345703125</LongitudeDegrees>
            </Position>
            <AltitudeMeters>552.4000244140625</AltitudeMeters>
            <DistanceMeters>NAN</DistanceMeters>
          </Trackpoint>
          <Trackpoint>
            <Time>2019-10-10T09:35:44.000Z</Time>
            <Position>
              <LatitudeDegrees>38.06703946553170680999755859375</LatitudeDegrees>
              <LongitudeDegrees>-6.2436399422585964202880859375</LongitudeDegrees>
            </Position>
            <AltitudeMeters>551.79998779296875</AltitudeMeters>
            <DistanceMeters>NAN</DistanceMeters>
          </Trackpoint>
          <Trackpoint>
            <Time>2019-10-10T09:35:45.000Z</Time>
            <Position>
              <LatitudeDegrees>38.06691708974540233612060546875</LatitudeDegrees>
              <LongitudeDegrees>-6.24364572577178478240966796875</LongitudeDegrees>
            </Position>
            <AltitudeMeters>550.5999755859375</AltitudeMeters>
            <DistanceMeters>NAN</DistanceMeters>
          </Trackpoint>
          <Trackpoint>
            <Time>2019-10-10T09:35:46.000Z</Time>
            <Position>
              <LatitudeDegrees>38.06679471395909786224365234375</LatitudeDegrees>
              <LongitudeDegrees>-6.24364807270467281341552734375</LongitudeDegrees>
            </Position>
            <AltitudeMeters>549.4000244140625</AltitudeMeters>
            <DistanceMeters>NAN</DistanceMeters>
          </Trackpoint>
          <Trackpoint>
            <Time>2019-10-10T09:35:49.000Z</Time>
            <Position>
              <LatitudeDegrees>38.0664347112178802490234375</LatitudeDegrees>
              <LongitudeDegrees>-6.2436198256909847259521484375</LongitudeDegrees>
            </Position>
            <AltitudeMeters>548</AltitudeMeters>
            <DistanceMeters>NAN</DistanceMeters>
          </Trackpoint>
          <Trackpoint>
            <Time>2019-10-10T09:35:51.000Z</Time>
            <Position>
              <LatitudeDegrees>38.066200353205204010009765625</LatitudeDegrees>
              <LongitudeDegrees>-6.24356391839683055877685546875</LongitudeDegrees>
            </Position>
            <AltitudeMeters>547.20001220703125</AltitudeMeters>
            <DistanceMeters>NAN</DistanceMeters>
          </Trackpoint>
          <Trackpoint>
            <Time>2019-10-10T09:35:52.000Z</Time>
            <Position>
              <LatitudeDegrees>38.06608426384627819061279296875</LatitudeDegrees>
              <LongitudeDegrees>-6.24352603219449520111083984375</LongitudeDegrees>
            </Position>
            <AltitudeMeters>546.5999755859375</AltitudeMeters>
            <DistanceMeters>NAN</DistanceMeters>
          </Trackpoint>
          <Trackpoint>
            <Time>2019-10-10T09:35:53.000Z</Time>
            <Position>
              <LatitudeDegrees>38.0659705214202404022216796875</LatitudeDegrees>
              <LongitudeDegrees>-6.2434853799641132354736328125</LongitudeDegrees>
            </Position>
            <AltitudeMeters>545.4000244140625</AltitudeMeters>
            <DistanceMeters>NAN</DistanceMeters>
          </Trackpoint>
          <Trackpoint>
            <Time>2019-10-10T09:35:55.000Z</Time>
            <Position>
              <LatitudeDegrees>38.06574798189103603363037109375</LatitudeDegrees>
              <LongitudeDegrees>-6.243386976420879364013671875</LongitudeDegrees>
            </Position>
            <AltitudeMeters>544.4000244140625</AltitudeMeters>
            <DistanceMeters>NAN</DistanceMeters>
          </Trackpoint>
          <Trackpoint>
            <Time>2019-10-10T09:35:57.000Z</Time>
            <Position>
              <LatitudeDegrees>38.06553239934146404266357421875</LatitudeDegrees>
              <LongitudeDegrees>-6.24327088706195354461669921875</LongitudeDegrees>
            </Position>
            <AltitudeMeters>544.20001220703125</AltitudeMeters>
            <DistanceMeters>NAN</DistanceMeters>
          </Trackpoint>
          <Trackpoint>
            <Time>2019-10-10T09:35:58.000Z</Time>
            <Position>
              <LatitudeDegrees>38.0654273740947246551513671875</LatitudeDegrees>
              <LongitudeDegrees>-6.243209950625896453857421875</LongitudeDegrees>
            </Position>
            <AltitudeMeters>544.4000244140625</AltitudeMeters>
            <DistanceMeters>NAN</DistanceMeters>
          </Trackpoint>
          <Trackpoint>
            <Time>2019-10-10T09:35:59.000Z</Time>
            <Position>
              <LatitudeDegrees>38.0653227679431438446044921875</LatitudeDegrees>
              <LongitudeDegrees>-6.24314926564693450927734375</LongitudeDegrees>
            </Position>
            <AltitudeMeters>543.5999755859375</AltitudeMeters>
            <DistanceMeters>NAN</DistanceMeters>
          </Trackpoint>
          <Trackpoint>
            <Time>2019-10-10T09:36:00.000Z</Time>
            <Position>
              <LatitudeDegrees>38.065217994153499603271484375</LatitudeDegrees>
              <LongitudeDegrees>-6.243089251220226287841796875</LongitudeDegrees>
            </Position>
            <AltitudeMeters>542</AltitudeMeters>
            <DistanceMeters>NAN</DistanceMeters>
          </Trackpoint>
          <Trackpoint>
            <Time>2019-10-10T09:36:01.000Z</Time>
            <Position>
              <LatitudeDegrees>38.0651145614683628082275390625</LatitudeDegrees>
              <LongitudeDegrees>-6.2430290691554546356201171875</LongitudeDegrees>
            </Position>
            <AltitudeMeters>540.79998779296875</AltitudeMeters>
            <DistanceMeters>NAN</DistanceMeters>
          </Trackpoint>
          <Trackpoint>
            <Time>2019-10-10T09:36:03.000Z</Time>
            <Position>
              <LatitudeDegrees>38.06491322815418243408203125</LatitudeDegrees>
              <LongitudeDegrees>-6.242908872663974761962890625</LongitudeDegrees>
            </Position>
            <AltitudeMeters>539.5999755859375</AltitudeMeters>
            <DistanceMeters>NAN</DistanceMeters>
          </Trackpoint>
          <Trackpoint>
            <Time>2019-10-10T09:36:04.000Z</Time>
            <Position>
              <LatitudeDegrees>38.0648165009915828704833984375</LatitudeDegrees>
              <LongitudeDegrees>-6.2428481876850128173828125</LongitudeDegrees>
            </Position>
            <AltitudeMeters>539</AltitudeMeters>
            <DistanceMeters>NAN</DistanceMeters>
          </Trackpoint>
          <Trackpoint>
            <Time>2019-10-10T09:36:06.000Z</Time>
            <Position>
              <LatitudeDegrees>38.06462866254150867462158203125</LatitudeDegrees>
              <LongitudeDegrees>-6.2427248060703277587890625</LongitudeDegrees>
            </Position>
            <AltitudeMeters>538.79998779296875</AltitudeMeters>
            <DistanceMeters>NAN</DistanceMeters>
          </Trackpoint>
          <Trackpoint>
            <Time>2019-10-10T09:36:08.000Z</Time>
            <Position>
              <LatitudeDegrees>38.06444928981363773345947265625</LatitudeDegrees>
              <LongitudeDegrees>-6.24259530566632747650146484375</LongitudeDegrees>
            </Position>
            <AltitudeMeters>538.4000244140625</AltitudeMeters>
            <DistanceMeters>NAN</DistanceMeters>
          </Trackpoint>
          <Trackpoint>
            <Time>2019-10-10T09:36:09.000Z</Time>
            <Position>
              <LatitudeDegrees>38.0643611960113048553466796875</LatitudeDegrees>
              <LongitudeDegrees>-6.24252925626933574676513671875</LongitudeDegrees>
            </Position>
            <AltitudeMeters>538</AltitudeMeters>
            <DistanceMeters>NAN</DistanceMeters>
          </Trackpoint>
          <Trackpoint>
            <Time>2019-10-10T09:36:11.000Z</Time>
            <Position>
              <LatitudeDegrees>38.0641875229775905609130859375</LatitudeDegrees>
              <LongitudeDegrees>-6.2423937208950519561767578125</LongitudeDegrees>
            </Position>
            <AltitudeMeters>537.79998779296875</AltitudeMeters>
            <DistanceMeters>NAN</DistanceMeters>
          </Trackpoint>
          <Trackpoint>
            <Time>2019-10-10T09:36:13.000Z</Time>
            <Position>
              <LatitudeDegrees>38.064017705619335174560546875</LatitudeDegrees>
              <LongitudeDegrees>-6.2422569282352924346923828125</LongitudeDegrees>
            </Position>
            <AltitudeMeters>537</AltitudeMeters>
            <DistanceMeters>NAN</DistanceMeters>
          </Trackpoint>
          <Trackpoint>
            <Time>2019-10-10T09:36:14.000Z</Time>
            <Position>
              <LatitudeDegrees>38.0639337189495563507080078125</LatitudeDegrees>
              <LongitudeDegrees>-6.24218710698187351226806640625</LongitudeDegrees>
            </Position>
            <AltitudeMeters>536.20001220703125</AltitudeMeters>
            <DistanceMeters>NAN</DistanceMeters>
          </Trackpoint>
          <Trackpoint>
            <Time>2019-10-10T09:36:17.000Z</Time>
            <Position>
              <LatitudeDegrees>38.0636812560260295867919921875</LatitudeDegrees>
              <LongitudeDegrees>-6.24196884222328662872314453125</LongitudeDegrees>
            </Position>
            <AltitudeMeters>536.4000244140625</AltitudeMeters>
            <DistanceMeters>NAN</DistanceMeters>
          </Trackpoint>
          <Trackpoint>
            <Time>2019-10-10T09:36:18.000Z</Time>
            <Position>
              <LatitudeDegrees>38.06359852664172649383544921875</LatitudeDegrees>
              <LongitudeDegrees>-6.2418944947421550750732421875</LongitudeDegrees>
            </Position>
            <AltitudeMeters>535.79998779296875</AltitudeMeters>
            <DistanceMeters>NAN</DistanceMeters>
          </Trackpoint>
          <Trackpoint>
            <Time>2019-10-10T09:36:20.000Z</Time>
            <Position>
              <LatitudeDegrees>38.0634306371212005615234375</LatitudeDegrees>
              <LongitudeDegrees>-6.24174437485635280609130859375</LongitudeDegrees>
            </Position>
            <AltitudeMeters>534.4000244140625</AltitudeMeters>
            <DistanceMeters>NAN</DistanceMeters>
          </Trackpoint>
          <Trackpoint>
            <Time>2019-10-10T09:36:23.000Z</Time>
            <Position>
              <LatitudeDegrees>38.06317708455026149749755859375</LatitudeDegrees>
              <LongitudeDegrees>-6.241516135632991790771484375</LongitudeDegrees>
            </Position>
            <AltitudeMeters>533.4000244140625</AltitudeMeters>
            <DistanceMeters>NAN</DistanceMeters>
          </Trackpoint>
          <Trackpoint>
            <Time>2019-10-10T09:36:26.000Z</Time>
            <Position>
              <LatitudeDegrees>38.0629245378077030181884765625</LatitudeDegrees>
              <LongitudeDegrees>-6.2412903271615505218505859375</LongitudeDegrees>
            </Position>
            <AltitudeMeters>532</AltitudeMeters>
            <DistanceMeters>NAN</DistanceMeters>
          </Trackpoint>
          <Trackpoint>
            <Time>2019-10-10T09:36:29.000Z</Time>
            <Position>
              <LatitudeDegrees>38.06266729719936847686767578125</LatitudeDegrees>
              <LongitudeDegrees>-6.24106694944202899932861328125</LongitudeDegrees>
            </Position>
            <AltitudeMeters>530.4000244140625</AltitudeMeters>
            <DistanceMeters>NAN</DistanceMeters>
          </Trackpoint>
          <Trackpoint>
            <Time>2019-10-10T09:36:33.000Z</Time>
            <Position>
              <LatitudeDegrees>38.06231106631457805633544921875</LatitudeDegrees>
              <LongitudeDegrees>-6.2408078648149967193603515625</LongitudeDegrees>
            </Position>
            <AltitudeMeters>528.79998779296875</AltitudeMeters>
            <DistanceMeters>NAN</DistanceMeters>
          </Trackpoint>
          <Trackpoint>
            <Time>2019-10-10T09:36:36.000Z</Time>
            <Position>
              <LatitudeDegrees>38.0620373971760272979736328125</LatitudeDegrees>
              <LongitudeDegrees>-6.2406380474567413330078125</LongitudeDegrees>
            </Position>
            <AltitudeMeters>527.5999755859375</AltitudeMeters>
            <DistanceMeters>NAN</DistanceMeters>
          </Trackpoint>
          <Trackpoint>
            <Time>2019-10-10T09:36:39.000Z</Time>
            <Position>
              <LatitudeDegrees>38.06176356039941310882568359375</LatitudeDegrees>
              <LongitudeDegrees>-6.24047284014523029327392578125</LongitudeDegrees>
            </Position>
            <AltitudeMeters>526.20001220703125</AltitudeMeters>
            <DistanceMeters>NAN</DistanceMeters>
          </Trackpoint>
          <Trackpoint>
            <Time>2019-10-10T09:36:41.000Z</Time>
            <Position>
              <LatitudeDegrees>38.06157530285418033599853515625</LatitudeDegrees>
              <LongitudeDegrees>-6.2403756938874721527099609375</LongitudeDegrees>
            </Position>
            <AltitudeMeters>525.79998779296875</AltitudeMeters>
            <DistanceMeters>NAN</DistanceMeters>
          </Trackpoint>
          <Trackpoint>
            <Time>2019-10-10T09:36:42.000Z</Time>
            <Position>
              <LatitudeDegrees>38.06148000061511993408203125</LatitudeDegrees>
              <LongitudeDegrees>-6.24032615683972835540771484375</LongitudeDegrees>
            </Position>
            <AltitudeMeters>525</AltitudeMeters>
            <DistanceMeters>NAN</DistanceMeters>
          </Trackpoint>
          <Trackpoint>
            <Time>2019-10-10T09:36:44.000Z</Time>
            <Position>
              <LatitudeDegrees>38.0612927488982677459716796875</LatitudeDegrees>
              <LongitudeDegrees>-6.2402083911001682281494140625</LongitudeDegrees>
            </Position>
            <AltitudeMeters>523.79998779296875</AltitudeMeters>
            <DistanceMeters>NAN</DistanceMeters>
          </Trackpoint>
          <Trackpoint>
            <Time>2019-10-10T09:36:47.000Z</Time>
            <Position>
              <LatitudeDegrees>38.06100533343851566314697265625</LatitudeDegrees>
              <LongitudeDegrees>-6.2400169484317302703857421875</LongitudeDegrees>
            </Position>
            <AltitudeMeters>522.20001220703125</AltitudeMeters>
            <DistanceMeters>NAN</DistanceMeters>
          </Trackpoint>
          <Trackpoint>
            <Time>2019-10-10T09:36:49.000Z</Time>
            <Position>
              <LatitudeDegrees>38.06081171147525310516357421875</LatitudeDegrees>
              <LongitudeDegrees>-6.23988107778131961822509765625</LongitudeDegrees>
            </Position>
            <AltitudeMeters>520.79998779296875</AltitudeMeters>
            <DistanceMeters>NAN</DistanceMeters>
          </Trackpoint>
          <Trackpoint>
            <Time>2019-10-10T09:36:51.000Z</Time>
            <Position>
              <LatitudeDegrees>38.06061624549329280853271484375</LatitudeDegrees>
              <LongitudeDegrees>-6.23974462039768695831298828125</LongitudeDegrees>
            </Position>
            <AltitudeMeters>518.79998779296875</AltitudeMeters>
            <DistanceMeters>NAN</DistanceMeters>
          </Trackpoint>
          <Trackpoint>
            <Time>2019-10-10T09:36:53.000Z</Time>
            <Position>
              <LatitudeDegrees>38.06041994132101535797119140625</LatitudeDegrees>
              <LongitudeDegrees>-6.239607073366641998291015625</LongitudeDegrees>
            </Position>
            <AltitudeMeters>516.79998779296875</AltitudeMeters>
            <DistanceMeters>NAN</DistanceMeters>
          </Trackpoint>
          <Trackpoint>
            <Time>2019-10-10T09:36:55.000Z</Time>
            <Position>
              <LatitudeDegrees>38.06022212840616703033447265625</LatitudeDegrees>
              <LongitudeDegrees>-6.23947329819202423095703125</LongitudeDegrees>
            </Position>
            <AltitudeMeters>515.5999755859375</AltitudeMeters>
            <DistanceMeters>NAN</DistanceMeters>
          </Trackpoint>
          <Trackpoint>
            <Time>2019-10-10T09:36:56.000Z</Time>
            <Position>
              <LatitudeDegrees>38.060122467577457427978515625</LatitudeDegrees>
              <LongitudeDegrees>-6.23940892517566680908203125</LongitudeDegrees>
            </Position>
            <AltitudeMeters>515.5999755859375</AltitudeMeters>
            <DistanceMeters>NAN</DistanceMeters>
          </Trackpoint>
          <Trackpoint>
            <Time>2019-10-10T09:36:58.000Z</Time>
            <Position>
              <LatitudeDegrees>38.0599238164722919464111328125</LatitudeDegrees>
              <LongitudeDegrees>-6.23928043060004711151123046875</LongitudeDegrees>
            </Position>
            <AltitudeMeters>514.4000244140625</AltitudeMeters>
            <DistanceMeters>NAN</DistanceMeters>
          </Trackpoint>
          <Trackpoint>
            <Time>2019-10-10T09:37:03.000Z</Time>
            <Position>
              <LatitudeDegrees>38.05943238548934459686279296875</LatitudeDegrees>
              <LongitudeDegrees>-6.23898111283779144287109375</LongitudeDegrees>
            </Position>
            <AltitudeMeters>513</AltitudeMeters>
            <DistanceMeters>NAN</DistanceMeters>
          </Trackpoint>
          <Trackpoint>
            <Time>2019-10-10T09:37:04.000Z</Time>
            <Position>
              <LatitudeDegrees>38.0593364126980304718017578125</LatitudeDegrees>
              <LongitudeDegrees>-6.23892101459205150604248046875</LongitudeDegrees>
            </Position>
            <AltitudeMeters>511.600006103515625</AltitudeMeters>
            <DistanceMeters>NAN</DistanceMeters>
          </Trackpoint>
          <Trackpoint>
            <Time>2019-10-10T09:37:10.000Z</Time>
            <Position>
              <LatitudeDegrees>38.0587895773351192474365234375</LatitudeDegrees>
              <LongitudeDegrees>-6.2385916896164417266845703125</LongitudeDegrees>
            </Position>
            <AltitudeMeters>511.600006103515625</AltitudeMeters>
            <DistanceMeters>NAN</DistanceMeters>
          </Trackpoint>
          <Trackpoint>
            <Time>2019-10-10T09:37:11.000Z</Time>
            <Position>
              <LatitudeDegrees>38.05870299227535724639892578125</LatitudeDegrees>
              <LongitudeDegrees>-6.23853997327387332916259765625</LongitudeDegrees>
            </Position>
            <AltitudeMeters>511</AltitudeMeters>
            <DistanceMeters>NAN</DistanceMeters>
          </Trackpoint>
          <Trackpoint>
            <Time>2019-10-10T09:37:17.000Z</Time>
            <Position>
              <LatitudeDegrees>38.05820410139858722686767578125</LatitudeDegrees>
              <LongitudeDegrees>-6.23828667216002941131591796875</LongitudeDegrees>
            </Position>
            <AltitudeMeters>511.79998779296875</AltitudeMeters>
            <DistanceMeters>NAN</DistanceMeters>
          </Trackpoint>
          <Trackpoint>
            <Time>2019-10-10T09:37:24.000Z</Time>
            <Position>
              <LatitudeDegrees>38.05763765238225460052490234375</LatitudeDegrees>
              <LongitudeDegrees>-6.2380911223590373992919921875</LongitudeDegrees>
            </Position>
            <AltitudeMeters>510.79998779296875</AltitudeMeters>
            <DistanceMeters>NAN</DistanceMeters>
          </Trackpoint>
          <Trackpoint>
            <Time>2019-10-10T09:37:25.000Z</Time>
            <Position>
              <LatitudeDegrees>38.05755592882633209228515625</LatitudeDegrees>
              <LongitudeDegrees>-6.2380703352391719818115234375</LongitudeDegrees>
            </Position>
            <AltitudeMeters>510.399993896484375</AltitudeMeters>
            <DistanceMeters>NAN</DistanceMeters>
          </Trackpoint>
          <Trackpoint>
            <Time>2019-10-10T09:37:30.000Z</Time>
            <Position>
              <LatitudeDegrees>38.05713951587677001953125</LatitudeDegrees>
              <LongitudeDegrees>-6.23800252564251422882080078125</LongitudeDegrees>
            </Position>
            <AltitudeMeters>509.20001220703125</AltitudeMeters>
            <DistanceMeters>NAN</DistanceMeters>
          </Trackpoint>
          <Trackpoint>
            <Time>2019-10-10T09:37:31.000Z</Time>
            <Position>
              <LatitudeDegrees>38.05705477483570575714111328125</LatitudeDegrees>
              <LongitudeDegrees>-6.23799297027289867401123046875</LongitudeDegrees>
            </Position>
            <AltitudeMeters>508.79998779296875</AltitudeMeters>
            <DistanceMeters>NAN</DistanceMeters>
          </Trackpoint>
          <Trackpoint>
            <Time>2019-10-10T09:37:32.000Z</Time>
            <Position>
              <LatitudeDegrees>38.05696777068078517913818359375</LatitudeDegrees>
              <LongitudeDegrees>-6.23798810876905918121337890625</LongitudeDegrees>
            </Position>
            <AltitudeMeters>507.79998779296875</AltitudeMeters>
            <DistanceMeters>NAN</DistanceMeters>
          </Trackpoint>
          <Trackpoint>
            <Time>2019-10-10T09:37:37.000Z</Time>
            <Position>
              <LatitudeDegrees>38.05652369745075702667236328125</LatitudeDegrees>
              <LongitudeDegrees>-6.23800571076571941375732421875</LongitudeDegrees>
            </Position>
            <AltitudeMeters>507</AltitudeMeters>
            <DistanceMeters>NAN</DistanceMeters>
          </Trackpoint>
          <Trackpoint>
            <Time>2019-10-10T09:37:38.000Z</Time>
            <Position>
              <LatitudeDegrees>38.05643074214458465576171875</LatitudeDegrees>
              <LongitudeDegrees>-6.238012500107288360595703125</LongitudeDegrees>
            </Position>
            <AltitudeMeters>506.399993896484375</AltitudeMeters>
            <DistanceMeters>NAN</DistanceMeters>
          </Trackpoint>
          <Trackpoint>
            <Time>2019-10-10T09:37:39.000Z</Time>
            <Position>
              <LatitudeDegrees>38.056336529552936553955078125</LatitudeDegrees>
              <LongitudeDegrees>-6.238024570047855377197265625</LongitudeDegrees>
            </Position>
            <AltitudeMeters>505</AltitudeMeters>
            <DistanceMeters>NAN</DistanceMeters>
          </Trackpoint>
          <Trackpoint>
            <Time>2019-10-10T09:37:41.000Z</Time>
            <Position>
              <LatitudeDegrees>38.0561476014554500579833984375</LatitudeDegrees>
              <LongitudeDegrees>-6.238053403794765472412109375</LongitudeDegrees>
            </Position>
            <AltitudeMeters>503.79998779296875</AltitudeMeters>
            <DistanceMeters>NAN</DistanceMeters>
          </Trackpoint>
          <Trackpoint>
            <Time>2019-10-10T09:37:43.000Z</Time>
            <Position>
              <LatitudeDegrees>38.05595557205379009246826171875</LatitudeDegrees>
              <LongitudeDegrees>-6.2380840815603733062744140625</LongitudeDegrees>
            </Position>
            <AltitudeMeters>502.600006103515625</AltitudeMeters>
            <DistanceMeters>NAN</DistanceMeters>
          </Trackpoint>
          <Trackpoint>
            <Time>2019-10-10T09:37:45.000Z</Time>
            <Position>
              <LatitudeDegrees>38.05576329119503498077392578125</LatitudeDegrees>
              <LongitudeDegrees>-6.2381140887737274169921875</LongitudeDegrees>
            </Position>
            <AltitudeMeters>501</AltitudeMeters>
            <DistanceMeters>NAN</DistanceMeters>
          </Trackpoint>
          <Trackpoint>
            <Time>2019-10-10T09:37:50.000Z</Time>
            <Position>
              <LatitudeDegrees>38.0552732013165950775146484375</LatitudeDegrees>
              <LongitudeDegrees>-6.2382094748318195343017578125</LongitudeDegrees>
            </Position>
            <AltitudeMeters>499.399993896484375</AltitudeMeters>
            <DistanceMeters>NAN</DistanceMeters>
          </Trackpoint>
          <Trackpoint>
            <Time>2019-10-10T09:37:53.000Z</Time>
            <Position>
              <LatitudeDegrees>38.05497287772595882415771484375</LatitudeDegrees>
              <LongitudeDegrees>-6.23827300965785980224609375</LongitudeDegrees>
            </Position>
            <AltitudeMeters>497.79998779296875</AltitudeMeters>
            <DistanceMeters>NAN</DistanceMeters>
          </Trackpoint>
          <Trackpoint>
            <Time>2019-10-10T09:37:54.000Z</Time>
            <Position>
              <LatitudeDegrees>38.05487397126853466033935546875</LatitudeDegrees>
              <LongitudeDegrees>-6.23829740099608898162841796875</LongitudeDegrees>
            </Position>
            <AltitudeMeters>497</AltitudeMeters>
            <DistanceMeters>NAN</DistanceMeters>
          </Trackpoint>
          <Trackpoint>
            <Time>2019-10-10T09:37:56.000Z</Time>
            <Position>
              <LatitudeDegrees>38.05467347614467144012451171875</LatitudeDegrees>
              <LongitudeDegrees>-6.2383365444839000701904296875</LongitudeDegrees>
            </Position>
            <AltitudeMeters>496.79998779296875</AltitudeMeters>
            <DistanceMeters>NAN</DistanceMeters>
          </Trackpoint>
          <Trackpoint>
            <Time>2019-10-10T09:37:58.000Z</Time>
            <Position>
              <LatitudeDegrees>38.0544720590114593505859375</LatitudeDegrees>
              <LongitudeDegrees>-6.2383744306862354278564453125</LongitudeDegrees>
            </Position>
            <AltitudeMeters>495.79998779296875</AltitudeMeters>
            <DistanceMeters>NAN</DistanceMeters>
          </Trackpoint>
          <Trackpoint>
            <Time>2019-10-10T09:37:59.000Z</Time>
            <Position>
              <LatitudeDegrees>38.05437323637306690216064453125</LatitudeDegrees>
              <LongitudeDegrees>-6.2383928708732128143310546875</LongitudeDegrees>
            </Position>
            <AltitudeMeters>494.600006103515625</AltitudeMeters>
            <DistanceMeters>NAN</DistanceMeters>
          </Trackpoint>
          <Trackpoint>
            <Time>2019-10-10T09:38:02.000Z</Time>
            <Position>
              <LatitudeDegrees>38.05407844483852386474609375</LatitudeDegrees>
              <LongitudeDegrees>-6.238451711833477020263671875</LongitudeDegrees>
            </Position>
            <AltitudeMeters>494.600006103515625</AltitudeMeters>
            <DistanceMeters>NAN</DistanceMeters>
          </Trackpoint>
          <Trackpoint>
            <Time>2019-10-10T09:38:05.000Z</Time>
            <Position>
              <LatitudeDegrees>38.0537815578281879425048828125</LatitudeDegrees>
              <LongitudeDegrees>-6.23850208707153797149658203125</LongitudeDegrees>
            </Position>
            <AltitudeMeters>492.79998779296875</AltitudeMeters>
            <DistanceMeters>NAN</DistanceMeters>
          </Trackpoint>
          <Trackpoint>
            <Time>2019-10-10T09:38:09.000Z</Time>
            <Position>
              <LatitudeDegrees>38.0533926375210285186767578125</LatitudeDegrees>
              <LongitudeDegrees>-6.238530836999416351318359375</LongitudeDegrees>
            </Position>
            <AltitudeMeters>491.79998779296875</AltitudeMeters>
            <DistanceMeters>NAN</DistanceMeters>
          </Trackpoint>
          <Trackpoint>
            <Time>2019-10-10T09:38:10.000Z</Time>
            <Position>
              <LatitudeDegrees>38.0532970838248729705810546875</LatitudeDegrees>
              <LongitudeDegrees>-6.23852706514298915863037109375</LongitudeDegrees>
            </Position>
            <AltitudeMeters>491.600006103515625</AltitudeMeters>
            <DistanceMeters>NAN</DistanceMeters>
          </Trackpoint>
          <Trackpoint>
            <Time>2019-10-10T09:38:11.000Z</Time>
            <Position>
              <LatitudeDegrees>38.05320203304290771484375</LatitudeDegrees>
              <LongitudeDegrees>-6.2385192699730396270751953125</LongitudeDegrees>
            </Position>
            <AltitudeMeters>490.79998779296875</AltitudeMeters>
            <DistanceMeters>NAN</DistanceMeters>
          </Trackpoint>
          <Trackpoint>
            <Time>2019-10-10T09:38:15.000Z</Time>
            <Position>
              <LatitudeDegrees>38.0528323911130428314208984375</LatitudeDegrees>
              <LongitudeDegrees>-6.23843662440776824951171875</LongitudeDegrees>
            </Position>
            <AltitudeMeters>490.20001220703125</AltitudeMeters>
            <DistanceMeters>NAN</DistanceMeters>
          </Trackpoint>
          <Trackpoint>
            <Time>2019-10-10T09:38:16.000Z</Time>
            <Position>
              <LatitudeDegrees>38.05274270474910736083984375</LatitudeDegrees>
              <LongitudeDegrees>-6.238406784832477569580078125</LongitudeDegrees>
            </Position>
            <AltitudeMeters>489.399993896484375</AltitudeMeters>
            <DistanceMeters>NAN</DistanceMeters>
          </Trackpoint>
          <Trackpoint>
            <Time>2019-10-10T09:38:18.000Z</Time>
            <Position>
              <LatitudeDegrees>38.0525702051818370819091796875</LatitudeDegrees>
              <LongitudeDegrees>-6.23833872377872467041015625</LongitudeDegrees>
            </Position>
            <AltitudeMeters>488.20001220703125</AltitudeMeters>
            <DistanceMeters>NAN</DistanceMeters>
          </Trackpoint>
          <Trackpoint>
            <Time>2019-10-10T09:38:21.000Z</Time>
            <Position>
              <LatitudeDegrees>38.05231916718184947967529296875</LatitudeDegrees>
              <LongitudeDegrees>-6.23822062276303768157958984375</LongitudeDegrees>
            </Position>
            <AltitudeMeters>487.399993896484375</AltitudeMeters>
            <DistanceMeters>NAN</DistanceMeters>
          </Trackpoint>
          <Trackpoint>
            <Time>2019-10-10T09:38:23.000Z</Time>
            <Position>
              <LatitudeDegrees>38.0521547980606555938720703125</LatitudeDegrees>
              <LongitudeDegrees>-6.238141246140003204345703125</LongitudeDegrees>
            </Position>
            <AltitudeMeters>487.20001220703125</AltitudeMeters>
            <DistanceMeters>NAN</DistanceMeters>
          </Trackpoint>
          <Trackpoint>
            <Time>2019-10-10T09:38:30.000Z</Time>
            <Position>
              <LatitudeDegrees>38.05159631185233592987060546875</LatitudeDegrees>
              <LongitudeDegrees>-6.2378718517720699310302734375</LongitudeDegrees>
            </Position>
            <AltitudeMeters>487</AltitudeMeters>
            <DistanceMeters>NAN</DistanceMeters>
          </Trackpoint>
          <Trackpoint>
            <Time>2019-10-10T09:38:31.000Z</Time>
            <Position>
              <LatitudeDegrees>38.05151903070509433746337890625</LatitudeDegrees>
              <LongitudeDegrees>-6.23783371411263942718505859375</LongitudeDegrees>
            </Position>
            <AltitudeMeters>486.79998779296875</AltitudeMeters>
            <DistanceMeters>NAN</DistanceMeters>
          </Trackpoint>
          <Trackpoint>
            <Time>2019-10-10T09:38:34.000Z</Time>
            <Position>
              <LatitudeDegrees>38.0512887798249721527099609375</LatitudeDegrees>
              <LongitudeDegrees>-6.23771402053534984588623046875</LongitudeDegrees>
            </Position>
            <AltitudeMeters>486.20001220703125</AltitudeMeters>
            <DistanceMeters>NAN</DistanceMeters>
          </Trackpoint>
          <Trackpoint>
            <Time>2019-10-10T09:38:37.000Z</Time>
            <Position>
              <LatitudeDegrees>38.05106389336287975311279296875</LatitudeDegrees>
              <LongitudeDegrees>-6.237587369978427886962890625</LongitudeDegrees>
            </Position>
            <AltitudeMeters>485.399993896484375</AltitudeMeters>
            <DistanceMeters>NAN</DistanceMeters>
          </Trackpoint>
          <Trackpoint>
            <Time>2019-10-10T09:38:38.000Z</Time>
            <Position>
              <LatitudeDegrees>38.05098962970077991485595703125</LatitudeDegrees>
              <LongitudeDegrees>-6.2375446222722530364990234375</LongitudeDegrees>
            </Position>
            <AltitudeMeters>485</AltitudeMeters>
            <DistanceMeters>NAN</DistanceMeters>
          </Trackpoint>
          <Trackpoint>
            <Time>2019-10-10T09:38:39.000Z</Time>
            <Position>
              <LatitudeDegrees>38.05091586895287036895751953125</LatitudeDegrees>
              <LongitudeDegrees>-6.2374996952712535858154296875</LongitudeDegrees>
            </Position>
            <AltitudeMeters>485</AltitudeMeters>
            <DistanceMeters>NAN</DistanceMeters>
          </Trackpoint>
          <Trackpoint>
            <Time>2019-10-10T09:38:45.000Z</Time>
            <Position>
              <LatitudeDegrees>38.05046794004738330841064453125</LatitudeDegrees>
              <LongitudeDegrees>-6.23718797229230403900146484375</LongitudeDegrees>
            </Position>
            <AltitudeMeters>483.600006103515625</AltitudeMeters>
            <DistanceMeters>NAN</DistanceMeters>
          </Trackpoint>
          <Trackpoint>
            <Time>2019-10-10T09:38:47.000Z</Time>
            <Position>
              <LatitudeDegrees>38.05031555704772472381591796875</LatitudeDegrees>
              <LongitudeDegrees>-6.2370779179036617279052734375</LongitudeDegrees>
            </Position>
            <AltitudeMeters>482.600006103515625</AltitudeMeters>
            <DistanceMeters>NAN</DistanceMeters>
          </Trackpoint>
          <Trackpoint>
            <Time>2019-10-10T09:38:50.000Z</Time>
            <Position>
              <LatitudeDegrees>38.0500871501863002777099609375</LatitudeDegrees>
              <LongitudeDegrees>-6.23690851964056491851806640625</LongitudeDegrees>
            </Position>
            <AltitudeMeters>482.399993896484375</AltitudeMeters>
            <DistanceMeters>NAN</DistanceMeters>
          </Trackpoint>
          <Trackpoint>
            <Time>2019-10-10T09:38:54.000Z</Time>
            <Position>
              <LatitudeDegrees>38.049774505198001861572265625</LatitudeDegrees>
              <LongitudeDegrees>-6.23669209890067577362060546875</LongitudeDegrees>
            </Position>
            <AltitudeMeters>481.20001220703125</AltitudeMeters>
            <DistanceMeters>NAN</DistanceMeters>
          </Trackpoint>
          <Trackpoint>
            <Time>2019-10-10T09:38:55.000Z</Time>
            <Position>
              <LatitudeDegrees>38.0496965534985065460205078125</LatitudeDegrees>
              <LongitudeDegrees>-6.2366380356252193450927734375</LongitudeDegrees>
            </Position>
            <AltitudeMeters>481.600006103515625</AltitudeMeters>
            <DistanceMeters>NAN</DistanceMeters>
          </Trackpoint>
          <Trackpoint>
            <Time>2019-10-10T09:38:58.000Z</Time>
            <Position>
              <LatitudeDegrees>38.049468062818050384521484375</LatitudeDegrees>
              <LongitudeDegrees>-6.23647299595177173614501953125</LongitudeDegrees>
            </Position>
            <AltitudeMeters>480</AltitudeMeters>
            <DistanceMeters>NAN</DistanceMeters>
          </Trackpoint>
          <Trackpoint>
            <Time>2019-10-10T09:39:02.000Z</Time>
            <Position>
              <LatitudeDegrees>38.049160279333591461181640625</LatitudeDegrees>
              <LongitudeDegrees>-6.23625598847866058349609375</LongitudeDegrees>
            </Position>
            <AltitudeMeters>479</AltitudeMeters>
            <DistanceMeters>NAN</DistanceMeters>
          </Trackpoint>
          <Trackpoint>
            <Time>2019-10-10T09:39:04.000Z</Time>
            <Position>
              <LatitudeDegrees>38.0490068905055522918701171875</LatitudeDegrees>
              <LongitudeDegrees>-6.2361441738903522491455078125</LongitudeDegrees>
            </Position>
            <AltitudeMeters>478.600006103515625</AltitudeMeters>
            <DistanceMeters>NAN</DistanceMeters>
          </Trackpoint>
          <Trackpoint>
            <Time>2019-10-10T09:39:06.000Z</Time>
            <Position>
              <LatitudeDegrees>38.0488496460020542144775390625</LatitudeDegrees>
              <LongitudeDegrees>-6.2360305152833461761474609375</LongitudeDegrees>
            </Position>
            <AltitudeMeters>477.79998779296875</AltitudeMeters>
            <DistanceMeters>NAN</DistanceMeters>
          </Trackpoint>
          <Trackpoint>
            <Time>2019-10-10T09:39:08.000Z</Time>
            <Position>
              <LatitudeDegrees>38.04869164712727069854736328125</LatitudeDegrees>
              <LongitudeDegrees>-6.23591928742825984954833984375</LongitudeDegrees>
            </Position>
            <AltitudeMeters>476.79998779296875</AltitudeMeters>
            <DistanceMeters>NAN</DistanceMeters>
          </Trackpoint>
          <Trackpoint>
            <Time>2019-10-10T09:39:12.000Z</Time>
            <Position>
              <LatitudeDegrees>38.04838352836668491363525390625</LatitudeDegrees>
              <LongitudeDegrees>-6.235691718757152557373046875</LongitudeDegrees>
            </Position>
            <AltitudeMeters>475.79998779296875</AltitudeMeters>
            <DistanceMeters>NAN</DistanceMeters>
          </Trackpoint>
          <Trackpoint>
            <Time>2019-10-10T09:39:13.000Z</Time>
            <Position>
              <LatitudeDegrees>38.0483064986765384674072265625</LatitudeDegrees>
              <LongitudeDegrees>-6.23563547618687152862548828125</LongitudeDegrees>
            </Position>
            <AltitudeMeters>475</AltitudeMeters>
            <DistanceMeters>NAN</DistanceMeters>
          </Trackpoint>
          <Trackpoint>
            <Time>2019-10-10T09:39:19.000Z</Time>
            <Position>
              <LatitudeDegrees>38.0478347651660442352294921875</LatitudeDegrees>
              <LongitudeDegrees>-6.2353214062750339508056640625</LongitudeDegrees>
            </Position>
            <AltitudeMeters>474.20001220703125</AltitudeMeters>
            <DistanceMeters>NAN</DistanceMeters>
          </Trackpoint>
          <Trackpoint>
            <Time>2019-10-10T09:39:20.000Z</Time>
            <Position>
              <LatitudeDegrees>38.04775471799075603485107421875</LatitudeDegrees>
              <LongitudeDegrees>-6.23527388088405132293701171875</LongitudeDegrees>
            </Position>
            <AltitudeMeters>473.79998779296875</AltitudeMeters>
            <DistanceMeters>NAN</DistanceMeters>
          </Trackpoint>
          <Trackpoint>
            <Time>2019-10-10T09:39:22.000Z</Time>
            <Position>
              <LatitudeDegrees>38.04759194143116474151611328125</LatitudeDegrees>
              <LongitudeDegrees>-6.23518603853881359100341796875</LongitudeDegrees>
            </Position>
            <AltitudeMeters>472.79998779296875</AltitudeMeters>
            <DistanceMeters>NAN</DistanceMeters>
          </Trackpoint>
          <Trackpoint>
            <Time>2019-10-10T09:39:29.000Z</Time>
            <Position>
              <LatitudeDegrees>38.04702331312000751495361328125</LatitudeDegrees>
              <LongitudeDegrees>-6.23490323312580585479736328125</LongitudeDegrees>
            </Position>
            <AltitudeMeters>472.79998779296875</AltitudeMeters>
            <DistanceMeters>NAN</DistanceMeters>
          </Trackpoint>
          <Trackpoint>
            <Time>2019-10-10T09:39:31.000Z</Time>
            <Position>
              <LatitudeDegrees>38.0468591116368770599365234375</LatitudeDegrees>
              <LongitudeDegrees>-6.23482176102697849273681640625</LongitudeDegrees>
            </Position>
            <AltitudeMeters>471</AltitudeMeters>
            <DistanceMeters>NAN</DistanceMeters>
          </Trackpoint>
          <Trackpoint>
            <Time>2019-10-10T09:39:34.000Z</Time>
            <Position>
              <LatitudeDegrees>38.04661360569298267364501953125</LatitudeDegrees>
              <LongitudeDegrees>-6.23470240272581577301025390625</LongitudeDegrees>
            </Position>
            <AltitudeMeters>470.399993896484375</AltitudeMeters>
            <DistanceMeters>NAN</DistanceMeters>
          </Trackpoint>
          <Trackpoint>
            <Time>2019-10-10T09:39:36.000Z</Time>
            <Position>
              <LatitudeDegrees>38.0464524216949939727783203125</LatitudeDegrees>
              <LongitudeDegrees>-6.23461556620895862579345703125</LongitudeDegrees>
            </Position>
            <AltitudeMeters>469.399993896484375</AltitudeMeters>
            <DistanceMeters>NAN</DistanceMeters>
          </Trackpoint>
          <Trackpoint>
            <Time>2019-10-10T09:39:40.000Z</Time>
            <Position>
              <LatitudeDegrees>38.0461382679641246795654296875</LatitudeDegrees>
              <LongitudeDegrees>-6.23442244715988636016845703125</LongitudeDegrees>
            </Position>
            <AltitudeMeters>468.399993896484375</AltitudeMeters>
            <DistanceMeters>NAN</DistanceMeters>
          </Trackpoint>
          <Trackpoint>
            <Time>2019-10-10T09:39:42.000Z</Time>
            <Position>
              <LatitudeDegrees>38.0459833703935146331787109375</LatitudeDegrees>
              <LongitudeDegrees>-6.23431541025638580322265625</LongitudeDegrees>
            </Position>
            <AltitudeMeters>467.600006103515625</AltitudeMeters>
            <DistanceMeters>NAN</DistanceMeters>
          </Trackpoint>
          <Trackpoint>
            <Time>2019-10-10T09:39:43.000Z</Time>
            <Position>
              <LatitudeDegrees>38.04590768180787563323974609375</LatitudeDegrees>
              <LongitudeDegrees>-6.23425782658159732818603515625</LongitudeDegrees>
            </Position>
            <AltitudeMeters>467</AltitudeMeters>
            <DistanceMeters>NAN</DistanceMeters>
          </Trackpoint>
          <Trackpoint>
            <Time>2019-10-10T09:39:47.000Z</Time>
            <Position>
              <LatitudeDegrees>38.0456065200269222259521484375</LatitudeDegrees>
              <LongitudeDegrees>-6.23401542194187641143798828125</LongitudeDegrees>
            </Position>
            <AltitudeMeters>466</AltitudeMeters>
            <DistanceMeters>NAN</DistanceMeters>
          </Trackpoint>
          <Trackpoint>
            <Time>2019-10-10T09:39:51.000Z</Time>
            <Position>
              <LatitudeDegrees>38.04530804045498371124267578125</LatitudeDegrees>
              <LongitudeDegrees>-6.23376513831317424774169921875</LongitudeDegrees>
            </Position>
            <AltitudeMeters>465.79998779296875</AltitudeMeters>
            <DistanceMeters>NAN</DistanceMeters>
          </Trackpoint>
          <Trackpoint>
            <Time>2019-10-10T09:39:56.000Z</Time>
            <Position>
              <LatitudeDegrees>38.04493538103997707366943359375</LatitudeDegrees>
              <LongitudeDegrees>-6.2334492243826389312744140625</LongitudeDegrees>
            </Position>
            <AltitudeMeters>464.79998779296875</AltitudeMeters>
            <DistanceMeters>NAN</DistanceMeters>
          </Trackpoint>
          <Trackpoint>
            <Time>2019-10-10T09:39:59.000Z</Time>
            <Position>
              <LatitudeDegrees>38.04470806382596492767333984375</LatitudeDegrees>
              <LongitudeDegrees>-6.23326356522738933563232421875</LongitudeDegrees>
            </Position>
            <AltitudeMeters>463.600006103515625</AltitudeMeters>
            <DistanceMeters>NAN</DistanceMeters>
          </Trackpoint>
          <Trackpoint>
            <Time>2019-10-10T09:40:01.000Z</Time>
            <Position>
              <LatitudeDegrees>38.0445617996156215667724609375</LatitudeDegrees>
              <LongitudeDegrees>-6.2331390939652919769287109375</LongitudeDegrees>
            </Position>
            <AltitudeMeters>463.20001220703125</AltitudeMeters>
            <DistanceMeters>NAN</DistanceMeters>
          </Trackpoint>
          <Trackpoint>
            <Time>2019-10-10T09:40:03.000Z</Time>
            <Position>
              <LatitudeDegrees>38.04441704414784908294677734375</LatitudeDegrees>
              <LongitudeDegrees>-6.23301990330219268798828125</LongitudeDegrees>
            </Position>
            <AltitudeMeters>462.399993896484375</AltitudeMeters>
            <DistanceMeters>NAN</DistanceMeters>
          </Trackpoint>
          <Trackpoint>
            <Time>2019-10-10T09:40:06.000Z</Time>
            <Position>
              <LatitudeDegrees>38.04420925676822662353515625</LatitudeDegrees>
              <LongitudeDegrees>-6.23284832574427127838134765625</LongitudeDegrees>
            </Position>
            <AltitudeMeters>463.399993896484375</AltitudeMeters>
            <DistanceMeters>NAN</DistanceMeters>
          </Trackpoint>
          <Trackpoint>
            <Time>2019-10-10T09:40:09.000Z</Time>
            <Position>
              <LatitudeDegrees>38.0440072529017925262451171875</LatitudeDegrees>
              <LongitudeDegrees>-6.2326854653656482696533203125</LongitudeDegrees>
            </Position>
            <AltitudeMeters>462.79998779296875</AltitudeMeters>
            <DistanceMeters>NAN</DistanceMeters>
          </Trackpoint>
          <Trackpoint>
            <Time>2019-10-10T09:40:15.000Z</Time>
            <Position>
              <LatitudeDegrees>38.0436169914901256561279296875</LatitudeDegrees>
              <LongitudeDegrees>-6.23237214982509613037109375</LongitudeDegrees>
            </Position>
            <AltitudeMeters>462.399993896484375</AltitudeMeters>
            <DistanceMeters>NAN</DistanceMeters>
          </Trackpoint>
          <Trackpoint>
            <Time>2019-10-10T09:40:18.000Z</Time>
            <Position>
              <LatitudeDegrees>38.04342613555490970611572265625</LatitudeDegrees>
              <LongitudeDegrees>-6.2322241254150867462158203125</LongitudeDegrees>
            </Position>
            <AltitudeMeters>462.399993896484375</AltitudeMeters>
            <DistanceMeters>NAN</DistanceMeters>
          </Trackpoint>
          <Trackpoint>
            <Time>2019-10-10T09:40:26.000Z</Time>
            <Position>
              <LatitudeDegrees>38.0429347045719623565673828125</LatitudeDegrees>
              <LongitudeDegrees>-6.23184819705784320831298828125</LongitudeDegrees>
            </Position>
            <AltitudeMeters>462</AltitudeMeters>
            <DistanceMeters>NAN</DistanceMeters>
          </Trackpoint>
          <Trackpoint>
            <Time>2019-10-10T09:40:28.000Z</Time>
            <Position>
              <LatitudeDegrees>38.0428113229572772979736328125</LatitudeDegrees>
              <LongitudeDegrees>-6.231756247580051422119140625</LongitudeDegrees>
            </Position>
            <AltitudeMeters>461.79998779296875</AltitudeMeters>
            <DistanceMeters>NAN</DistanceMeters>
          </Trackpoint>
          <Trackpoint>
            <Time>2019-10-10T09:40:31.000Z</Time>
            <Position>
              <LatitudeDegrees>38.042627088725566864013671875</LatitudeDegrees>
              <LongitudeDegrees>-6.23161484487354755401611328125</LongitudeDegrees>
            </Position>
            <AltitudeMeters>461.20001220703125</AltitudeMeters>
            <DistanceMeters>NAN</DistanceMeters>
          </Trackpoint>
          <Trackpoint>
            <Time>2019-10-10T09:40:37.000Z</Time>
            <Position>
              <LatitudeDegrees>38.04226641543209552764892578125</LatitudeDegrees>
              <LongitudeDegrees>-6.23134947381913661956787109375</LongitudeDegrees>
            </Position>
            <AltitudeMeters>462</AltitudeMeters>
            <DistanceMeters>NAN</DistanceMeters>
          </Trackpoint>
          <Trackpoint>
            <Time>2019-10-10T09:40:38.000Z</Time>
            <Position>
              <LatitudeDegrees>38.04221109487116336822509765625</LatitudeDegrees>
              <LongitudeDegrees>-6.231307648122310638427734375</LongitudeDegrees>
            </Position>
            <AltitudeMeters>461.79998779296875</AltitudeMeters>
            <DistanceMeters>NAN</DistanceMeters>
          </Trackpoint>
          <Trackpoint>
            <Time>2019-10-10T09:40:41.000Z</Time>
            <Position>
              <LatitudeDegrees>38.04205066524446010589599609375</LatitudeDegrees>
              <LongitudeDegrees>-6.23119273222982883453369140625</LongitudeDegrees>
            </Position>
            <AltitudeMeters>462.600006103515625</AltitudeMeters>
            <DistanceMeters>NAN</DistanceMeters>
          </Trackpoint>
          <Trackpoint>
            <Time>2019-10-10T09:40:46.000Z</Time>
            <Position>
              <LatitudeDegrees>38.04180373437702655792236328125</LatitudeDegrees>
              <LongitudeDegrees>-6.23100950382649898529052734375</LongitudeDegrees>
            </Position>
            <AltitudeMeters>462.79998779296875</AltitudeMeters>
            <DistanceMeters>NAN</DistanceMeters>
          </Trackpoint>
          <Trackpoint>
            <Time>2019-10-10T09:40:53.000Z</Time>
            <Position>
              <LatitudeDegrees>38.04146208800375461578369140625</LatitudeDegrees>
              <LongitudeDegrees>-6.230753771960735321044921875</LongitudeDegrees>
            </Position>
            <AltitudeMeters>463.399993896484375</AltitudeMeters>
            <DistanceMeters>NAN</DistanceMeters>
          </Trackpoint>
          <Trackpoint>
            <Time>2019-10-10T09:40:55.000Z</Time>
            <Position>
              <LatitudeDegrees>38.04136184044182300567626953125</LatitudeDegrees>
              <LongitudeDegrees>-6.23068462125957012176513671875</LongitudeDegrees>
            </Position>
            <AltitudeMeters>463.600006103515625</AltitudeMeters>
            <DistanceMeters>NAN</DistanceMeters>
          </Trackpoint>
          <Trackpoint>
            <Time>2019-10-10T09:40:59.000Z</Time>
            <Position>
              <LatitudeDegrees>38.0411688052117824554443359375</LatitudeDegrees>
              <LongitudeDegrees>-6.23053844086825847625732421875</LongitudeDegrees>
            </Position>
            <AltitudeMeters>463.20001220703125</AltitudeMeters>
            <DistanceMeters>NAN</DistanceMeters>
          </Trackpoint>
          <Trackpoint>
            <Time>2019-10-10T09:41:03.000Z</Time>
            <Position>
              <LatitudeDegrees>38.04097543470561504364013671875</LatitudeDegrees>
              <LongitudeDegrees>-6.23040072619915008544921875</LongitudeDegrees>
            </Position>
            <AltitudeMeters>462.79998779296875</AltitudeMeters>
            <DistanceMeters>NAN</DistanceMeters>
          </Trackpoint>
          <Trackpoint>
            <Time>2019-10-10T09:41:06.000Z</Time>
            <Position>
              <LatitudeDegrees>38.0408295057713985443115234375</LatitudeDegrees>
              <LongitudeDegrees>-6.23029746115207672119140625</LongitudeDegrees>
            </Position>
            <AltitudeMeters>463.399993896484375</AltitudeMeters>
            <DistanceMeters>NAN</DistanceMeters>
          </Trackpoint>
          <Trackpoint>
            <Time>2019-10-10T09:41:12.000Z</Time>
            <Position>
              <LatitudeDegrees>38.04053119383752346038818359375</LatitudeDegrees>
              <LongitudeDegrees>-6.23007894493639469146728515625</LongitudeDegrees>
            </Position>
            <AltitudeMeters>463.20001220703125</AltitudeMeters>
            <DistanceMeters>NAN</DistanceMeters>
          </Trackpoint>
          <Trackpoint>
            <Time>2019-10-10T09:41:14.000Z</Time>
            <Position>
              <LatitudeDegrees>38.04043329320847988128662109375</LatitudeDegrees>
              <LongitudeDegrees>-6.23000635765492916107177734375</LongitudeDegrees>
            </Position>
            <AltitudeMeters>463.399993896484375</AltitudeMeters>
            <DistanceMeters>NAN</DistanceMeters>
          </Trackpoint>
          <Trackpoint>
            <Time>2019-10-10T09:41:24.000Z</Time>
            <Position>
              <LatitudeDegrees>38.0399581231176853179931640625</LatitudeDegrees>
              <LongitudeDegrees>-6.229647696018218994140625</LongitudeDegrees>
            </Position>
            <AltitudeMeters>463.600006103515625</AltitudeMeters>
            <DistanceMeters>NAN</DistanceMeters>
          </Trackpoint>
          <Trackpoint>
            <Time>2019-10-10T09:41:25.000Z</Time>
            <Position>
              <LatitudeDegrees>38.0399105139076709747314453125</LatitudeDegrees>
              <LongitudeDegrees>-6.2296119891107082366943359375</LongitudeDegrees>
            </Position>
            <AltitudeMeters>463.79998779296875</AltitudeMeters>
            <DistanceMeters>NAN</DistanceMeters>
          </Trackpoint>
          <Trackpoint>
            <Time>2019-10-10T09:41:34.000Z</Time>
            <Position>
              <LatitudeDegrees>38.03946970961987972259521484375</LatitudeDegrees>
              <LongitudeDegrees>-6.22929272241890430450439453125</LongitudeDegrees>
            </Position>
            <AltitudeMeters>463.20001220703125</AltitudeMeters>
            <DistanceMeters>NAN</DistanceMeters>
          </Trackpoint>
          <Trackpoint>
            <Time>2019-10-10T09:41:39.000Z</Time>
            <Position>
              <LatitudeDegrees>38.03921942599117755889892578125</LatitudeDegrees>
              <LongitudeDegrees>-6.22910463251173496246337890625</LongitudeDegrees>
            </Position>
            <AltitudeMeters>462.600006103515625</AltitudeMeters>
            <DistanceMeters>NAN</DistanceMeters>
          </Trackpoint>
          <Trackpoint>
            <Time>2019-10-10T09:41:41.000Z</Time>
            <Position>
              <LatitudeDegrees>38.0391206033527851104736328125</LatitudeDegrees>
              <LongitudeDegrees>-6.22903170995414257049560546875</LongitudeDegrees>
            </Position>
            <AltitudeMeters>462.79998779296875</AltitudeMeters>
            <DistanceMeters>NAN</DistanceMeters>
          </Trackpoint>
          <Trackpoint>
            <Time>2019-10-10T09:41:46.000Z</Time>
            <Position>
              <LatitudeDegrees>38.0388741753995418548583984375</LatitudeDegrees>
              <LongitudeDegrees>-6.22885501943528652191162109375</LongitudeDegrees>
            </Position>
            <AltitudeMeters>462.600006103515625</AltitudeMeters>
            <DistanceMeters>NAN</DistanceMeters>
          </Trackpoint>
          <Trackpoint>
            <Time>2019-10-10T09:41:50.000Z</Time>
            <Position>
              <LatitudeDegrees>38.0386773683130741119384765625</LatitudeDegrees>
              <LongitudeDegrees>-6.2287080846726894378662109375</LongitudeDegrees>
            </Position>
            <AltitudeMeters>462.600006103515625</AltitudeMeters>
            <DistanceMeters>NAN</DistanceMeters>
          </Trackpoint>
          <Trackpoint>
            <Time>2019-10-10T09:41:53.000Z</Time>
            <Position>
              <LatitudeDegrees>38.0385315231978893280029296875</LatitudeDegrees>
              <LongitudeDegrees>-6.2286058254539966583251953125</LongitudeDegrees>
            </Position>
            <AltitudeMeters>462.600006103515625</AltitudeMeters>
            <DistanceMeters>NAN</DistanceMeters>
          </Trackpoint>
          <Trackpoint>
            <Time>2019-10-10T09:41:58.000Z</Time>
            <Position>
              <LatitudeDegrees>38.0382901243865489959716796875</LatitudeDegrees>
              <LongitudeDegrees>-6.22842486016452312469482421875</LongitudeDegrees>
            </Position>
            <AltitudeMeters>462</AltitudeMeters>
            <DistanceMeters>NAN</DistanceMeters>
          </Trackpoint>
          <Trackpoint>
            <Time>2019-10-10T09:41:59.000Z</Time>
            <Position>
              <LatitudeDegrees>38.0382435210049152374267578125</LatitudeDegrees>
              <LongitudeDegrees>-6.228390075266361236572265625</LongitudeDegrees>
            </Position>
            <AltitudeMeters>461.399993896484375</AltitudeMeters>
            <DistanceMeters>NAN</DistanceMeters>
          </Trackpoint>
          <Trackpoint>
            <Time>2019-10-10T09:42:05.000Z</Time>
            <Position>
              <LatitudeDegrees>38.03796415217220783233642578125</LatitudeDegrees>
              <LongitudeDegrees>-6.2281699664890766143798828125</LongitudeDegrees>
            </Position>
            <AltitudeMeters>462.399993896484375</AltitudeMeters>
            <DistanceMeters>NAN</DistanceMeters>
          </Trackpoint>
          <Trackpoint>
            <Time>2019-10-10T09:42:06.000Z</Time>
            <Position>
              <LatitudeDegrees>38.0379193089902400970458984375</LatitudeDegrees>
              <LongitudeDegrees>-6.22813132591545581817626953125</LongitudeDegrees>
            </Position>
            <AltitudeMeters>462.600006103515625</AltitudeMeters>
            <DistanceMeters>NAN</DistanceMeters>
          </Trackpoint>
          <Trackpoint>
            <Time>2019-10-10T09:42:09.000Z</Time>
            <Position>
              <LatitudeDegrees>38.03778176195919513702392578125</LatitudeDegrees>
              <LongitudeDegrees>-6.22801356017589569091796875</LongitudeDegrees>
            </Position>
            <AltitudeMeters>463.600006103515625</AltitudeMeters>
            <DistanceMeters>NAN</DistanceMeters>
          </Trackpoint>
          <Trackpoint>
            <Time>2019-10-10T09:42:12.000Z</Time>
            <Position>
              <LatitudeDegrees>38.0376470647752285003662109375</LatitudeDegrees>
              <LongitudeDegrees>-6.22788883745670318603515625</LongitudeDegrees>
            </Position>
            <AltitudeMeters>462.600006103515625</AltitudeMeters>
            <DistanceMeters>NAN</DistanceMeters>
          </Trackpoint>
          <Trackpoint>
            <Time>2019-10-10T09:42:15.000Z</Time>
            <Position>
              <LatitudeDegrees>38.03751823492348194122314453125</LatitudeDegrees>
              <LongitudeDegrees>-6.22776017524302005767822265625</LongitudeDegrees>
            </Position>
            <AltitudeMeters>462.399993896484375</AltitudeMeters>
            <DistanceMeters>NAN</DistanceMeters>
          </Trackpoint>
          <Trackpoint>
            <Time>2019-10-10T09:42:23.000Z</Time>
            <Position>
              <LatitudeDegrees>38.0371880717575550079345703125</LatitudeDegrees>
              <LongitudeDegrees>-6.2273894436657428741455078125</LongitudeDegrees>
            </Position>
            <AltitudeMeters>463.399993896484375</AltitudeMeters>
            <DistanceMeters>NAN</DistanceMeters>
          </Trackpoint>
          <Trackpoint>
            <Time>2019-10-10T09:42:24.000Z</Time>
            <Position>
              <LatitudeDegrees>38.03714926354587078094482421875</LatitudeDegrees>
              <LongitudeDegrees>-6.22734040953218936920166015625</LongitudeDegrees>
            </Position>
            <AltitudeMeters>463.600006103515625</AltitudeMeters>
            <DistanceMeters>NAN</DistanceMeters>
          </Trackpoint>
          <Trackpoint>
            <Time>2019-10-10T09:42:31.000Z</Time>
            <Position>
              <LatitudeDegrees>38.0368869937956333160400390625</LatitudeDegrees>
              <LongitudeDegrees>-6.2269726954400539398193359375</LongitudeDegrees>
            </Position>
            <AltitudeMeters>463</AltitudeMeters>
            <DistanceMeters>NAN</DistanceMeters>
          </Trackpoint>
          <Trackpoint>
            <Time>2019-10-10T09:42:37.000Z</Time>
            <Position>
              <LatitudeDegrees>38.03667669184505939483642578125</LatitudeDegrees>
              <LongitudeDegrees>-6.22664269991219043731689453125</LongitudeDegrees>
            </Position>
            <AltitudeMeters>462.600006103515625</AltitudeMeters>
            <DistanceMeters>NAN</DistanceMeters>
          </Trackpoint>
          <Trackpoint>
            <Time>2019-10-10T09:42:41.000Z</Time>
            <Position>
              <LatitudeDegrees>38.03653679788112640380859375</LatitudeDegrees>
              <LongitudeDegrees>-6.22640331275761127471923828125</LongitudeDegrees>
            </Position>
            <AltitudeMeters>462</AltitudeMeters>
            <DistanceMeters>NAN</DistanceMeters>
          </Trackpoint>
          <Trackpoint>
            <Time>2019-10-10T09:42:45.000Z</Time>
            <Position>
              <LatitudeDegrees>38.0363907851278781890869140625</LatitudeDegrees>
              <LongitudeDegrees>-6.2261568009853363037109375</LongitudeDegrees>
            </Position>
            <AltitudeMeters>461.600006103515625</AltitudeMeters>
            <DistanceMeters>NAN</DistanceMeters>
          </Trackpoint>
          <Trackpoint>
            <Time>2019-10-10T09:42:50.000Z</Time>
            <Position>
              <LatitudeDegrees>38.036199174821376800537109375</LatitudeDegrees>
              <LongitudeDegrees>-6.22582948766648769378662109375</LongitudeDegrees>
            </Position>
            <AltitudeMeters>461.399993896484375</AltitudeMeters>
            <DistanceMeters>NAN</DistanceMeters>
          </Trackpoint>
          <Trackpoint>
            <Time>2019-10-10T09:42:53.000Z</Time>
            <Position>
              <LatitudeDegrees>38.0360732786357402801513671875</LatitudeDegrees>
              <LongitudeDegrees>-6.22561491094529628753662109375</LongitudeDegrees>
            </Position>
            <AltitudeMeters>460.600006103515625</AltitudeMeters>
            <DistanceMeters>NAN</DistanceMeters>
          </Trackpoint>
          <Trackpoint>
            <Time>2019-10-10T09:42:58.000Z</Time>
            <Position>
              <LatitudeDegrees>38.03589499555528163909912109375</LatitudeDegrees>
              <LongitudeDegrees>-6.22531299479305744171142578125</LongitudeDegrees>
            </Position>
            <AltitudeMeters>459.600006103515625</AltitudeMeters>
            <DistanceMeters>NAN</DistanceMeters>
          </Trackpoint>
          <Trackpoint>
            <Time>2019-10-10T09:42:59.000Z</Time>
            <Position>
              <LatitudeDegrees>38.0358496494591236114501953125</LatitudeDegrees>
              <LongitudeDegrees>-6.22523554600775241851806640625</LongitudeDegrees>
            </Position>
            <AltitudeMeters>459.399993896484375</AltitudeMeters>
            <DistanceMeters>NAN</DistanceMeters>
          </Trackpoint>
          <Trackpoint>
            <Time>2019-10-10T09:43:02.000Z</Time>
            <Position>
              <LatitudeDegrees>38.03570405580103397369384765625</LatitudeDegrees>
              <LongitudeDegrees>-6.22499917633831501007080078125</LongitudeDegrees>
            </Position>
            <AltitudeMeters>458.20001220703125</AltitudeMeters>
            <DistanceMeters>NAN</DistanceMeters>
          </Trackpoint>
          <Trackpoint>
            <Time>2019-10-10T09:43:04.000Z</Time>
            <Position>
              <LatitudeDegrees>38.0355971865355968475341796875</LatitudeDegrees>
              <LongitudeDegrees>-6.22483757324516773223876953125</LongitudeDegrees>
            </Position>
            <AltitudeMeters>456.600006103515625</AltitudeMeters>
            <DistanceMeters>NAN</DistanceMeters>
          </Trackpoint>
          <Trackpoint>
            <Time>2019-10-10T09:43:06.000Z</Time>
            <Position>
              <LatitudeDegrees>38.0354801751673221588134765625</LatitudeDegrees>
              <LongitudeDegrees>-6.22467881999909877777099609375</LongitudeDegrees>
            </Position>
            <AltitudeMeters>456</AltitudeMeters>
            <DistanceMeters>NAN</DistanceMeters>
          </Trackpoint>
          <Trackpoint>
            <Time>2019-10-10T09:43:07.000Z</Time>
            <Position>
              <LatitudeDegrees>38.03541772998869419097900390625</LatitudeDegrees>
              <LongitudeDegrees>-6.22460237704217433929443359375</LongitudeDegrees>
            </Position>
            <AltitudeMeters>455.399993896484375</AltitudeMeters>
            <DistanceMeters>NAN</DistanceMeters>
          </Trackpoint>
          <Trackpoint>
            <Time>2019-10-10T09:43:11.000Z</Time>
            <Position>
              <LatitudeDegrees>38.035135008394718170166015625</LatitudeDegrees>
              <LongitudeDegrees>-6.22432946227490901947021484375</LongitudeDegrees>
            </Position>
            <AltitudeMeters>453.600006103515625</AltitudeMeters>
            <DistanceMeters>NAN</DistanceMeters>
          </Trackpoint>
          <Trackpoint>
            <Time>2019-10-10T09:43:12.000Z</Time>
            <Position>
              <LatitudeDegrees>38.0350567214190959930419921875</LatitudeDegrees>
              <LongitudeDegrees>-6.2242720462381839752197265625</LongitudeDegrees>
            </Position>
            <AltitudeMeters>452.79998779296875</AltitudeMeters>
            <DistanceMeters>NAN</DistanceMeters>
          </Trackpoint>
          <Trackpoint>
            <Time>2019-10-10T09:43:13.000Z</Time>
            <Position>
              <LatitudeDegrees>38.0349777638912200927734375</LatitudeDegrees>
              <LongitudeDegrees>-6.22421546839177608489990234375</LongitudeDegrees>
            </Position>
            <AltitudeMeters>452.600006103515625</AltitudeMeters>
            <DistanceMeters>NAN</DistanceMeters>
          </Trackpoint>
          <Trackpoint>
            <Time>2019-10-10T09:43:18.000Z</Time>
            <Position>
              <LatitudeDegrees>38.034562356770038604736328125</LatitudeDegrees>
              <LongitudeDegrees>-6.22399904765188694000244140625</LongitudeDegrees>
            </Position>
            <AltitudeMeters>451.20001220703125</AltitudeMeters>
            <DistanceMeters>NAN</DistanceMeters>
          </Trackpoint>
          <Trackpoint>
            <Time>2019-10-10T09:43:24.000Z</Time>
            <Position>
              <LatitudeDegrees>38.03403002209961414337158203125</LatitudeDegrees>
              <LongitudeDegrees>-6.2238777615129947662353515625</LongitudeDegrees>
            </Position>
            <AltitudeMeters>450.79998779296875</AltitudeMeters>
            <DistanceMeters>NAN</DistanceMeters>
          </Trackpoint>
          <Trackpoint>
            <Time>2019-10-10T09:43:26.000Z</Time>
            <Position>
              <LatitudeDegrees>38.0338517390191555023193359375</LatitudeDegrees>
              <LongitudeDegrees>-6.22387281619012355804443359375</LongitudeDegrees>
            </Position>
            <AltitudeMeters>450.20001220703125</AltitudeMeters>
            <DistanceMeters>NAN</DistanceMeters>
          </Trackpoint>
          <Trackpoint>
            <Time>2019-10-10T09:43:31.000Z</Time>
            <Position>
              <LatitudeDegrees>38.0334142036736011505126953125</LatitudeDegrees>
              <LongitudeDegrees>-6.2238915078341960906982421875</LongitudeDegrees>
            </Position>
            <AltitudeMeters>448.79998779296875</AltitudeMeters>
            <DistanceMeters>NAN</DistanceMeters>
          </Trackpoint>
          <Trackpoint>
            <Time>2019-10-10T09:43:35.000Z</Time>
            <Position>
              <LatitudeDegrees>38.03307331167161464691162109375</LatitudeDegrees>
              <LongitudeDegrees>-6.223916821181774139404296875</LongitudeDegrees>
            </Position>
            <AltitudeMeters>447.20001220703125</AltitudeMeters>
            <DistanceMeters>NAN</DistanceMeters>
          </Trackpoint>
          <Trackpoint>
            <Time>2019-10-10T09:43:39.000Z</Time>
            <Position>
              <LatitudeDegrees>38.0327376164495944976806640625</LatitudeDegrees>
              <LongitudeDegrees>-6.22393350116908550262451171875</LongitudeDegrees>
            </Position>
            <AltitudeMeters>447.399993896484375</AltitudeMeters>
            <DistanceMeters>NAN</DistanceMeters>
          </Trackpoint>
          <Trackpoint>
            <Time>2019-10-10T09:43:46.000Z</Time>
            <Position>
              <LatitudeDegrees>38.032185919582843780517578125</LatitudeDegrees>
              <LongitudeDegrees>-6.223961077630519866943359375</LongitudeDegrees>
            </Position>
            <AltitudeMeters>446.399993896484375</AltitudeMeters>
            <DistanceMeters>NAN</DistanceMeters>
          </Trackpoint>
          <Trackpoint>
            <Time>2019-10-10T09:43:47.000Z</Time>
            <Position>
              <LatitudeDegrees>38.0321113206446170806884765625</LatitudeDegrees>
              <LongitudeDegrees>-6.2239595688879489898681640625</LongitudeDegrees>
            </Position>
            <AltitudeMeters>446.79998779296875</AltitudeMeters>
            <DistanceMeters>NAN</DistanceMeters>
          </Trackpoint>
          <Trackpoint>
            <Time>2019-10-10T09:43:51.000Z</Time>
            <Position>
              <LatitudeDegrees>38.03180898539721965789794921875</LatitudeDegrees>
              <LongitudeDegrees>-6.223930232226848602294921875</LongitudeDegrees>
            </Position>
            <AltitudeMeters>445.79998779296875</AltitudeMeters>
            <DistanceMeters>NAN</DistanceMeters>
          </Trackpoint>
          <Trackpoint>
            <Time>2019-10-10T09:43:54.000Z</Time>
            <Position>
              <LatitudeDegrees>38.031579740345478057861328125</LatitudeDegrees>
              <LongitudeDegrees>-6.2238811142742633819580078125</LongitudeDegrees>
            </Position>
            <AltitudeMeters>445.399993896484375</AltitudeMeters>
            <DistanceMeters>NAN</DistanceMeters>
          </Trackpoint>
          <Trackpoint>
            <Time>2019-10-10T09:43:55.000Z</Time>
            <Position>
              <LatitudeDegrees>38.03150254301726818084716796875</LatitudeDegrees>
              <LongitudeDegrees>-6.2238579802215099334716796875</LongitudeDegrees>
            </Position>
            <AltitudeMeters>444.600006103515625</AltitudeMeters>
            <DistanceMeters>NAN</DistanceMeters>
          </Trackpoint>
          <Trackpoint>
            <Time>2019-10-10T09:43:57.000Z</Time>
            <Position>
              <LatitudeDegrees>38.03134496323764324188232421875</LatitudeDegrees>
              <LongitudeDegrees>-6.22380106709897518157958984375</LongitudeDegrees>
            </Position>
            <AltitudeMeters>443</AltitudeMeters>
            <DistanceMeters>NAN</DistanceMeters>
          </Trackpoint>
          <Trackpoint>
            <Time>2019-10-10T09:44:00.000Z</Time>
            <Position>
              <LatitudeDegrees>38.03110876120626926422119140625</LatitudeDegrees>
              <LongitudeDegrees>-6.22367584146559238433837890625</LongitudeDegrees>
            </Position>
            <AltitudeMeters>442.399993896484375</AltitudeMeters>
            <DistanceMeters>NAN</DistanceMeters>
          </Trackpoint>
          <Trackpoint>
            <Time>2019-10-10T09:44:01.000Z</Time>
            <Position>
              <LatitudeDegrees>38.03102762438356876373291015625</LatitudeDegrees>
              <LongitudeDegrees>-6.2236216105520725250244140625</LongitudeDegrees>
            </Position>
            <AltitudeMeters>441.79998779296875</AltitudeMeters>
            <DistanceMeters>NAN</DistanceMeters>
          </Trackpoint>
          <Trackpoint>
            <Time>2019-10-10T09:44:03.000Z</Time>
            <Position>
              <LatitudeDegrees>38.030869625508785247802734375</LatitudeDegrees>
              <LongitudeDegrees>-6.2234965525567531585693359375</LongitudeDegrees>
            </Position>
            <AltitudeMeters>440.399993896484375</AltitudeMeters>
            <DistanceMeters>NAN</DistanceMeters>
          </Trackpoint>
          <Trackpoint>
            <Time>2019-10-10T09:44:04.000Z</Time>
            <Position>
              <LatitudeDegrees>38.030791170895099639892578125</LatitudeDegrees>
              <LongitudeDegrees>-6.22342656366527080535888671875</LongitudeDegrees>
            </Position>
            <AltitudeMeters>438.79998779296875</AltitudeMeters>
            <DistanceMeters>NAN</DistanceMeters>
          </Trackpoint>
          <Trackpoint>
            <Time>2019-10-10T09:44:05.000Z</Time>
            <Position>
              <LatitudeDegrees>38.03071296773850917816162109375</LatitudeDegrees>
              <LongitudeDegrees>-6.22335263527929782867431640625</LongitudeDegrees>
            </Position>
            <AltitudeMeters>438.399993896484375</AltitudeMeters>
            <DistanceMeters>NAN</DistanceMeters>
          </Trackpoint>
          <Trackpoint>
            <Time>2019-10-10T09:44:07.000Z</Time>
            <Position>
              <LatitudeDegrees>38.03056343458592891693115234375</LatitudeDegrees>
              <LongitudeDegrees>-6.2231917865574359893798828125</LongitudeDegrees>
            </Position>
            <AltitudeMeters>437.600006103515625</AltitudeMeters>
            <DistanceMeters>NAN</DistanceMeters>
          </Trackpoint>
          <Trackpoint>
            <Time>2019-10-10T09:44:10.000Z</Time>
            <Position>
              <LatitudeDegrees>38.03035539574921131134033203125</LatitudeDegrees>
              <LongitudeDegrees>-6.22291711159050464630126953125</LongitudeDegrees>
            </Position>
            <AltitudeMeters>436.20001220703125</AltitudeMeters>
            <DistanceMeters>NAN</DistanceMeters>
          </Trackpoint>
          <Trackpoint>
            <Time>2019-10-10T09:44:12.000Z</Time>
            <Position>
              <LatitudeDegrees>38.0302237160503864288330078125</LatitudeDegrees>
              <LongitudeDegrees>-6.22271695174276828765869140625</LongitudeDegrees>
            </Position>
            <AltitudeMeters>434.399993896484375</AltitudeMeters>
            <DistanceMeters>NAN</DistanceMeters>
          </Trackpoint>
          <Trackpoint>
            <Time>2019-10-10T09:44:14.000Z</Time>
            <Position>
              <LatitudeDegrees>38.03009538911283016204833984375</LatitudeDegrees>
              <LongitudeDegrees>-6.2225141935050487518310546875</LongitudeDegrees>
            </Position>
            <AltitudeMeters>433.399993896484375</AltitudeMeters>
            <DistanceMeters>NAN</DistanceMeters>
          </Trackpoint>
          <Trackpoint>
            <Time>2019-10-10T09:44:17.000Z</Time>
            <Position>
              <LatitudeDegrees>38.02990042604506015777587890625</LatitudeDegrees>
              <LongitudeDegrees>-6.22222577221691608428955078125</LongitudeDegrees>
            </Position>
            <AltitudeMeters>433.20001220703125</AltitudeMeters>
            <DistanceMeters>NAN</DistanceMeters>
          </Trackpoint>
          <Trackpoint>
            <Time>2019-10-10T09:44:21.000Z</Time>
            <Position>
              <LatitudeDegrees>38.029621057212352752685546875</LatitudeDegrees>
              <LongitudeDegrees>-6.22190373949706554412841796875</LongitudeDegrees>
            </Position>
            <AltitudeMeters>433</AltitudeMeters>
            <DistanceMeters>NAN</DistanceMeters>
          </Trackpoint>
          <Trackpoint>
            <Time>2019-10-10T09:44:22.000Z</Time>
            <Position>
              <LatitudeDegrees>38.0295494757592678070068359375</LatitudeDegrees>
              <LongitudeDegrees>-6.22183819301426410675048828125</LongitudeDegrees>
            </Position>
            <AltitudeMeters>432.79998779296875</AltitudeMeters>
            <DistanceMeters>NAN</DistanceMeters>
          </Trackpoint>
          <Trackpoint>
            <Time>2019-10-10T09:44:23.000Z</Time>
            <Position>
              <LatitudeDegrees>38.02947462536394596099853515625</LatitudeDegrees>
              <LongitudeDegrees>-6.22177918441593647003173828125</LongitudeDegrees>
            </Position>
            <AltitudeMeters>432.20001220703125</AltitudeMeters>
            <DistanceMeters>NAN</DistanceMeters>
          </Trackpoint>
          <Trackpoint>
            <Time>2019-10-10T09:44:24.000Z</Time>
            <Position>
              <LatitudeDegrees>38.0293999426066875457763671875</LatitudeDegrees>
              <LongitudeDegrees>-6.22173584997653961181640625</LongitudeDegrees>
            </Position>
            <AltitudeMeters>432.399993896484375</AltitudeMeters>
            <DistanceMeters>NAN</DistanceMeters>
          </Trackpoint>
          <Trackpoint>
            <Time>2019-10-10T09:44:26.000Z</Time>
            <Position>
              <LatitudeDegrees>38.0292432010173797607421875</LatitudeDegrees>
              <LongitudeDegrees>-6.22169821523129940032958984375</LongitudeDegrees>
            </Position>
            <AltitudeMeters>433.399993896484375</AltitudeMeters>
            <DistanceMeters>NAN</DistanceMeters>
          </Trackpoint>
          <Trackpoint>
            <Time>2019-10-10T09:44:30.000Z</Time>
            <Position>
              <LatitudeDegrees>38.02893583662807941436767578125</LatitudeDegrees>
              <LongitudeDegrees>-6.221691258251667022705078125</LongitudeDegrees>
            </Position>
            <AltitudeMeters>433.79998779296875</AltitudeMeters>
            <DistanceMeters>NAN</DistanceMeters>
          </Trackpoint>
          <Trackpoint>
            <Time>2019-10-10T09:44:33.000Z</Time>
            <Position>
              <LatitudeDegrees>38.02875445224344730377197265625</LatitudeDegrees>
              <LongitudeDegrees>-6.22153141535818576812744140625</LongitudeDegrees>
            </Position>
            <AltitudeMeters>433.600006103515625</AltitudeMeters>
            <DistanceMeters>NAN</DistanceMeters>
          </Trackpoint>
          <Trackpoint>
            <Time>2019-10-10T09:44:37.000Z</Time>
            <Position>
              <LatitudeDegrees>38.02856217138469219207763671875</LatitudeDegrees>
              <LongitudeDegrees>-6.221262775361537933349609375</LongitudeDegrees>
            </Position>
            <AltitudeMeters>432.79998779296875</AltitudeMeters>
            <DistanceMeters>NAN</DistanceMeters>
          </Trackpoint>
          <Trackpoint>
            <Time>2019-10-10T09:44:38.000Z</Time>
            <Position>
              <LatitudeDegrees>38.028489165008068084716796875</LatitudeDegrees>
              <LongitudeDegrees>-6.2212388031184673309326171875</LongitudeDegrees>
            </Position>
            <AltitudeMeters>432.20001220703125</AltitudeMeters>
            <DistanceMeters>NAN</DistanceMeters>
          </Trackpoint>
          <Trackpoint>
            <Time>2019-10-10T09:44:40.000Z</Time>
            <Position>
              <LatitudeDegrees>38.02833602763712406158447265625</LatitudeDegrees>
              <LongitudeDegrees>-6.221212483942508697509765625</LongitudeDegrees>
            </Position>
            <AltitudeMeters>431.600006103515625</AltitudeMeters>
            <DistanceMeters>NAN</DistanceMeters>
          </Trackpoint>
          <Trackpoint>
            <Time>2019-10-10T09:44:42.000Z</Time>
            <Position>
              <LatitudeDegrees>38.02818029187619686126708984375</LatitudeDegrees>
              <LongitudeDegrees>-6.22117929160594940185546875</LongitudeDegrees>
            </Position>
            <AltitudeMeters>430.79998779296875</AltitudeMeters>
            <DistanceMeters>NAN</DistanceMeters>
          </Trackpoint>
          <Trackpoint>
            <Time>2019-10-10T09:44:44.000Z</Time>
            <Position>
              <LatitudeDegrees>38.02801935933530330657958984375</LatitudeDegrees>
              <LongitudeDegrees>-6.221132688224315643310546875</LongitudeDegrees>
            </Position>
            <AltitudeMeters>429.79998779296875</AltitudeMeters>
            <DistanceMeters>NAN</DistanceMeters>
          </Trackpoint>
          <Trackpoint>
            <Time>2019-10-10T09:44:46.000Z</Time>
            <Position>
              <LatitudeDegrees>38.02785574458539485931396484375</LatitudeDegrees>
              <LongitudeDegrees>-6.2210601009428501129150390625</LongitudeDegrees>
            </Position>
            <AltitudeMeters>428.600006103515625</AltitudeMeters>
            <DistanceMeters>NAN</DistanceMeters>
          </Trackpoint>
          <Trackpoint>
            <Time>2019-10-10T09:44:48.000Z</Time>
            <Position>
              <LatitudeDegrees>38.0276876874268054962158203125</LatitudeDegrees>
              <LongitudeDegrees>-6.2209672294557094573974609375</LongitudeDegrees>
            </Position>
            <AltitudeMeters>427.20001220703125</AltitudeMeters>
            <DistanceMeters>NAN</DistanceMeters>
          </Trackpoint>
          <Trackpoint>
            <Time>2019-10-10T09:44:50.000Z</Time>
            <Position>
              <LatitudeDegrees>38.02751912735402584075927734375</LatitudeDegrees>
              <LongitudeDegrees>-6.22085734270513057708740234375</LongitudeDegrees>
            </Position>
            <AltitudeMeters>426</AltitudeMeters>
            <DistanceMeters>NAN</DistanceMeters>
          </Trackpoint>
          <Trackpoint>
            <Time>2019-10-10T09:44:52.000Z</Time>
            <Position>
              <LatitudeDegrees>38.0273490585386753082275390625</LatitudeDegrees>
              <LongitudeDegrees>-6.22073597274720668792724609375</LongitudeDegrees>
            </Position>
            <AltitudeMeters>424.79998779296875</AltitudeMeters>
            <DistanceMeters>NAN</DistanceMeters>
          </Trackpoint>
          <Trackpoint>
            <Time>2019-10-10T09:44:54.000Z</Time>
            <Position>
              <LatitudeDegrees>38.02717991173267364501953125</LatitudeDegrees>
              <LongitudeDegrees>-6.22060932219028472900390625</LongitudeDegrees>
            </Position>
            <AltitudeMeters>423</AltitudeMeters>
            <DistanceMeters>NAN</DistanceMeters>
          </Trackpoint>
          <Trackpoint>
            <Time>2019-10-10T09:44:57.000Z</Time>
            <Position>
              <LatitudeDegrees>38.0269188992679119110107421875</LatitudeDegrees>
              <LongitudeDegrees>-6.2204222381114959716796875</LongitudeDegrees>
            </Position>
            <AltitudeMeters>421.600006103515625</AltitudeMeters>
            <DistanceMeters>NAN</DistanceMeters>
          </Trackpoint>
          <Trackpoint>
            <Time>2019-10-10T09:44:59.000Z</Time>
            <Position>
              <LatitudeDegrees>38.0267407000064849853515625</LatitudeDegrees>
              <LongitudeDegrees>-6.2203013710677623748779296875</LongitudeDegrees>
            </Position>
            <AltitudeMeters>420</AltitudeMeters>
            <DistanceMeters>NAN</DistanceMeters>
          </Trackpoint>
          <Trackpoint>
            <Time>2019-10-10T09:45:01.000Z</Time>
            <Position>
              <LatitudeDegrees>38.026564009487628936767578125</LatitudeDegrees>
              <LongitudeDegrees>-6.22018695808947086334228515625</LongitudeDegrees>
            </Position>
            <AltitudeMeters>418.600006103515625</AltitudeMeters>
            <DistanceMeters>NAN</DistanceMeters>
          </Trackpoint>
          <Trackpoint>
            <Time>2019-10-10T09:45:07.000Z</Time>
            <Position>
              <LatitudeDegrees>38.02605313248932361602783203125</LatitudeDegrees>
              <LongitudeDegrees>-6.21990415267646312713623046875</LongitudeDegrees>
            </Position>
            <AltitudeMeters>418.79998779296875</AltitudeMeters>
            <DistanceMeters>NAN</DistanceMeters>
          </Trackpoint>
          <Trackpoint>
            <Time>2019-10-10T09:45:08.000Z</Time>
            <Position>
              <LatitudeDegrees>38.02597048692405223846435546875</LatitudeDegrees>
              <LongitudeDegrees>-6.2198782525956630706787109375</LongitudeDegrees>
            </Position>
            <AltitudeMeters>419.399993896484375</AltitudeMeters>
            <DistanceMeters>NAN</DistanceMeters>
          </Trackpoint>
          <Trackpoint>
            <Time>2019-10-10T09:45:09.000Z</Time>
            <Position>
              <LatitudeDegrees>38.02588976919651031494140625</LatitudeDegrees>
              <LongitudeDegrees>-6.21985838748514652252197265625</LongitudeDegrees>
            </Position>
            <AltitudeMeters>419.600006103515625</AltitudeMeters>
            <DistanceMeters>NAN</DistanceMeters>
          </Trackpoint>
          <Trackpoint>
            <Time>2019-10-10T09:45:12.000Z</Time>
            <Position>
              <LatitudeDegrees>38.02566580474376678466796875</LatitudeDegrees>
              <LongitudeDegrees>-6.21982033364474773406982421875</LongitudeDegrees>
            </Position>
            <AltitudeMeters>420.79998779296875</AltitudeMeters>
            <DistanceMeters>NAN</DistanceMeters>
          </Trackpoint>
          <Trackpoint>
            <Time>2019-10-10T09:45:13.000Z</Time>
            <Position>
              <LatitudeDegrees>38.02559673786163330078125</LatitudeDegrees>
              <LongitudeDegrees>-6.21981664560735225677490234375</LongitudeDegrees>
            </Position>
            <AltitudeMeters>421</AltitudeMeters>
            <DistanceMeters>NAN</DistanceMeters>
          </Trackpoint>
          <Trackpoint>
            <Time>2019-10-10T09:45:16.000Z</Time>
            <Position>
              <LatitudeDegrees>38.02541124634444713592529296875</LatitudeDegrees>
              <LongitudeDegrees>-6.219809018075466156005859375</LongitudeDegrees>
            </Position>
            <AltitudeMeters>422.600006103515625</AltitudeMeters>
            <DistanceMeters>NAN</DistanceMeters>
          </Trackpoint>
          <Trackpoint>
            <Time>2019-10-10T09:45:18.000Z</Time>
            <Position>
              <LatitudeDegrees>38.02530362270772457122802734375</LatitudeDegrees>
              <LongitudeDegrees>-6.21982569806277751922607421875</LongitudeDegrees>
            </Position>
            <AltitudeMeters>423.20001220703125</AltitudeMeters>
            <DistanceMeters>NAN</DistanceMeters>
          </Trackpoint>
          <Trackpoint>
            <Time>2019-10-10T09:45:19.000Z</Time>
            <Position>
              <LatitudeDegrees>38.02525416947901248931884765625</LatitudeDegrees>
              <LongitudeDegrees>-6.21983349323272705078125</LongitudeDegrees>
            </Position>
            <AltitudeMeters>423.600006103515625</AltitudeMeters>
            <DistanceMeters>NAN</DistanceMeters>
          </Trackpoint>
          <Trackpoint>
            <Time>2019-10-10T09:45:23.000Z</Time>
            <Position>
              <LatitudeDegrees>38.02508133463561534881591796875</LatitudeDegrees>
              <LongitudeDegrees>-6.21986098587512969970703125</LongitudeDegrees>
            </Position>
            <AltitudeMeters>424.79998779296875</AltitudeMeters>
            <DistanceMeters>NAN</DistanceMeters>
          </Trackpoint>
          <Trackpoint>
            <Time>2019-10-10T09:45:24.000Z</Time>
            <Position>
              <LatitudeDegrees>38.025045208632946014404296875</LatitudeDegrees>
              <LongitudeDegrees>-6.21986500918865203857421875</LongitudeDegrees>
            </Position>
            <AltitudeMeters>425</AltitudeMeters>
            <DistanceMeters>NAN</DistanceMeters>
          </Trackpoint>
          <Trackpoint>
            <Time>2019-10-10T09:45:26.000Z</Time>
            <Position>
              <LatitudeDegrees>38.0249691009521484375</LatitudeDegrees>
              <LongitudeDegrees>-6.219879090785980224609375</LongitudeDegrees>
            </Position>
            <AltitudeMeters>425.79998779296875</AltitudeMeters>
            <DistanceMeters>NAN</DistanceMeters>
          </Trackpoint>
          <Trackpoint>
            <Time>2019-10-10T09:45:30.000Z</Time>
            <Position>
              <LatitudeDegrees>38.02481881342828273773193359375</LatitudeDegrees>
              <LongitudeDegrees>-6.21990884654223918914794921875</LongitudeDegrees>
            </Position>
            <AltitudeMeters>426.399993896484375</AltitudeMeters>
            <DistanceMeters>NAN</DistanceMeters>
          </Trackpoint>
          <Trackpoint>
            <Time>2019-10-10T09:45:33.000Z</Time>
            <Position>
              <LatitudeDegrees>38.02470867522060871124267578125</LatitudeDegrees>
              <LongitudeDegrees>-6.21991890482604503631591796875</LongitudeDegrees>
            </Position>
            <AltitudeMeters>426.79998779296875</AltitudeMeters>
            <DistanceMeters>NAN</DistanceMeters>
          </Trackpoint>
          <Trackpoint>
            <Time>2019-10-10T09:45:34.000Z</Time>
            <Position>
              <LatitudeDegrees>38.02467464469373226165771484375</LatitudeDegrees>
              <LongitudeDegrees>-6.21992393396794795989990234375</LongitudeDegrees>
            </Position>
            <AltitudeMeters>427</AltitudeMeters>
            <DistanceMeters>NAN</DistanceMeters>
          </Trackpoint>
          <Trackpoint>
            <Time>2019-10-10T09:45:36.000Z</Time>
            <Position>
              <LatitudeDegrees>38.024603314697742462158203125</LatitudeDegrees>
              <LongitudeDegrees>-6.2199325673282146453857421875</LongitudeDegrees>
            </Position>
            <AltitudeMeters>427.600006103515625</AltitudeMeters>
            <DistanceMeters>NAN</DistanceMeters>
          </Trackpoint>
          <Trackpoint>
            <Time>2019-10-10T09:45:39.000Z</Time>
            <Position>
              <LatitudeDegrees>38.02449409849941730499267578125</LatitudeDegrees>
              <LongitudeDegrees>-6.21993164531886577606201171875</LongitudeDegrees>
            </Position>
            <AltitudeMeters>428.20001220703125</AltitudeMeters>
            <DistanceMeters>NAN</DistanceMeters>
          </Trackpoint>
          <Trackpoint>
            <Time>2019-10-10T09:45:42.000Z</Time>
            <Position>
              <LatitudeDegrees>38.02438848651945590972900390625</LatitudeDegrees>
              <LongitudeDegrees>-6.2199194915592670440673828125</LongitudeDegrees>
            </Position>
            <AltitudeMeters>428.600006103515625</AltitudeMeters>
            <DistanceMeters>NAN</DistanceMeters>
          </Trackpoint>
          <Trackpoint>
            <Time>2019-10-10T09:45:47.000Z</Time>
            <Position>
              <LatitudeDegrees>38.0242088623344898223876953125</LatitudeDegrees>
              <LongitudeDegrees>-6.21989593841135501861572265625</LongitudeDegrees>
            </Position>
            <AltitudeMeters>428.600006103515625</AltitudeMeters>
            <DistanceMeters>NAN</DistanceMeters>
          </Trackpoint>
          <Trackpoint>
            <Time>2019-10-10T09:45:50.000Z</Time>
            <Position>
              <LatitudeDegrees>38.02409671247005462646484375</LatitudeDegrees>
              <LongitudeDegrees>-6.2198688648641109466552734375</LongitudeDegrees>
            </Position>
            <AltitudeMeters>429.399993896484375</AltitudeMeters>
            <DistanceMeters>NAN</DistanceMeters>
          </Trackpoint>
          <Trackpoint>
            <Time>2019-10-10T09:45:53.000Z</Time>
            <Position>
              <LatitudeDegrees>38.02399503998458385467529296875</LatitudeDegrees>
              <LongitudeDegrees>-6.219831816852092742919921875</LongitudeDegrees>
            </Position>
            <AltitudeMeters>430</AltitudeMeters>
            <DistanceMeters>NAN</DistanceMeters>
          </Trackpoint>
          <Trackpoint>
            <Time>2019-10-10T09:45:54.000Z</Time>
            <Position>
              <LatitudeDegrees>38.023960590362548828125</LatitudeDegrees>
              <LongitudeDegrees>-6.2198202498257160186767578125</LongitudeDegrees>
            </Position>
            <AltitudeMeters>430.399993896484375</AltitudeMeters>
            <DistanceMeters>NAN</DistanceMeters>
          </Trackpoint>
          <Trackpoint>
            <Time>2019-10-10T09:46:02.000Z</Time>
            <Position>
              <LatitudeDegrees>38.023681640625</LatitudeDegrees>
              <LongitudeDegrees>-6.2197099439799785614013671875</LongitudeDegrees>
            </Position>
            <AltitudeMeters>431.399993896484375</AltitudeMeters>
            <DistanceMeters>NAN</DistanceMeters>
          </Trackpoint>
          <Trackpoint>
            <Time>2019-10-10T09:46:03.000Z</Time>
            <Position>
              <LatitudeDegrees>38.0236462689936161041259765625</LatitudeDegrees>
              <LongitudeDegrees>-6.21969661675393581390380859375</LongitudeDegrees>
            </Position>
            <AltitudeMeters>431.399993896484375</AltitudeMeters>
            <DistanceMeters>NAN</DistanceMeters>
          </Trackpoint>
          <Trackpoint>
            <Time>2019-10-10T09:46:11.000Z</Time>
            <Position>
              <LatitudeDegrees>38.0233723483979701995849609375</LatitudeDegrees>
              <LongitudeDegrees>-6.21958597563207149505615234375</LongitudeDegrees>
            </Position>
            <AltitudeMeters>432.79998779296875</AltitudeMeters>
            <DistanceMeters>NAN</DistanceMeters>
          </Trackpoint>
          <Trackpoint>
            <Time>2019-10-10T09:46:12.000Z</Time>
            <Position>
              <LatitudeDegrees>38.02333722822368144989013671875</LatitudeDegrees>
              <LongitudeDegrees>-6.2195724807679653167724609375</LongitudeDegrees>
            </Position>
            <AltitudeMeters>433</AltitudeMeters>
            <DistanceMeters>NAN</DistanceMeters>
          </Trackpoint>
          <Trackpoint>
            <Time>2019-10-10T09:46:21.000Z</Time>
            <Position>
              <LatitudeDegrees>38.02302039228379726409912109375</LatitudeDegrees>
              <LongitudeDegrees>-6.219441890716552734375</LongitudeDegrees>
            </Position>
            <AltitudeMeters>433.20001220703125</AltitudeMeters>
            <DistanceMeters>NAN</DistanceMeters>
          </Trackpoint>
          <Trackpoint>
            <Time>2019-10-10T09:46:26.000Z</Time>
            <Position>
              <LatitudeDegrees>38.022841773927211761474609375</LatitudeDegrees>
              <LongitudeDegrees>-6.21938162483274936676025390625</LongitudeDegrees>
            </Position>
            <AltitudeMeters>433.79998779296875</AltitudeMeters>
            <DistanceMeters>NAN</DistanceMeters>
          </Trackpoint>
          <Trackpoint>
            <Time>2019-10-10T09:46:32.000Z</Time>
            <Position>
              <LatitudeDegrees>38.02261722274124622344970703125</LatitudeDegrees>
              <LongitudeDegrees>-6.21932513080537319183349609375</LongitudeDegrees>
            </Position>
            <AltitudeMeters>434.20001220703125</AltitudeMeters>
            <DistanceMeters>NAN</DistanceMeters>
          </Trackpoint>
          <Trackpoint>
            <Time>2019-10-10T09:46:41.000Z</Time>
            <Position>
              <LatitudeDegrees>38.02226836793124675750732421875</LatitudeDegrees>
              <LongitudeDegrees>-6.2193233706057071685791015625</LongitudeDegrees>
            </Position>
            <AltitudeMeters>435</AltitudeMeters>
            <DistanceMeters>NAN</DistanceMeters>
          </Trackpoint>
          <Trackpoint>
            <Time>2019-10-10T09:46:51.000Z</Time>
            <Position>
              <LatitudeDegrees>38.0218847282230854034423828125</LatitudeDegrees>
              <LongitudeDegrees>-6.21942755766212940216064453125</LongitudeDegrees>
            </Position>
            <AltitudeMeters>435.399993896484375</AltitudeMeters>
            <DistanceMeters>NAN</DistanceMeters>
          </Trackpoint>
          <Trackpoint>
            <Time>2019-10-10T09:47:00.000Z</Time>
            <Position>
              <LatitudeDegrees>38.0215685628354549407958984375</LatitudeDegrees>
              <LongitudeDegrees>-6.21962151490151882171630859375</LongitudeDegrees>
            </Position>
            <AltitudeMeters>436.399993896484375</AltitudeMeters>
            <DistanceMeters>NAN</DistanceMeters>
          </Trackpoint>
          <Trackpoint>
            <Time>2019-10-10T09:47:01.000Z</Time>
            <Position>
              <LatitudeDegrees>38.02153595723211765289306640625</LatitudeDegrees>
              <LongitudeDegrees>-6.21964867226779460906982421875</LongitudeDegrees>
            </Position>
            <AltitudeMeters>436.399993896484375</AltitudeMeters>
            <DistanceMeters>NAN</DistanceMeters>
          </Trackpoint>
          <Trackpoint>
            <Time>2019-10-10T09:47:09.000Z</Time>
            <Position>
              <LatitudeDegrees>38.02128215320408344268798828125</LatitudeDegrees>
              <LongitudeDegrees>-6.21988705359399318695068359375</LongitudeDegrees>
            </Position>
            <AltitudeMeters>437.399993896484375</AltitudeMeters>
            <DistanceMeters>NAN</DistanceMeters>
          </Trackpoint>
          <Trackpoint>
            <Time>2019-10-10T09:47:18.000Z</Time>
            <Position>
              <LatitudeDegrees>38.02101426757872104644775390625</LatitudeDegrees>
              <LongitudeDegrees>-6.2201432883739471435546875</LongitudeDegrees>
            </Position>
            <AltitudeMeters>437.79998779296875</AltitudeMeters>
            <DistanceMeters>NAN</DistanceMeters>
          </Trackpoint>
          <Trackpoint>
            <Time>2019-10-10T09:47:27.000Z</Time>
            <Position>
              <LatitudeDegrees>38.02069701254367828369140625</LatitudeDegrees>
              <LongitudeDegrees>-6.2203747965395450592041015625</LongitudeDegrees>
            </Position>
            <AltitudeMeters>438</AltitudeMeters>
            <DistanceMeters>NAN</DistanceMeters>
          </Trackpoint>
          <Trackpoint>
            <Time>2019-10-10T09:47:33.000Z</Time>
            <Position>
              <LatitudeDegrees>38.0204294621944427490234375</LatitudeDegrees>
              <LongitudeDegrees>-6.2205283530056476593017578125</LongitudeDegrees>
            </Position>
            <AltitudeMeters>437.20001220703125</AltitudeMeters>
            <DistanceMeters>NAN</DistanceMeters>
          </Trackpoint>
          <Trackpoint>
            <Time>2019-10-10T09:47:39.000Z</Time>
            <Position>
              <LatitudeDegrees>38.02012578584253787994384765625</LatitudeDegrees>
              <LongitudeDegrees>-6.2207040376961231231689453125</LongitudeDegrees>
            </Position>
            <AltitudeMeters>436.399993896484375</AltitudeMeters>
            <DistanceMeters>NAN</DistanceMeters>
          </Trackpoint>
          <Trackpoint>
            <Time>2019-10-10T09:47:42.000Z</Time>
            <Position>
              <LatitudeDegrees>38.01996032707393169403076171875</LatitudeDegrees>
              <LongitudeDegrees>-6.22079900465905666351318359375</LongitudeDegrees>
            </Position>
            <AltitudeMeters>435.399993896484375</AltitudeMeters>
            <DistanceMeters>NAN</DistanceMeters>
          </Trackpoint>
          <Trackpoint>
            <Time>2019-10-10T09:47:43.000Z</Time>
            <Position>
              <LatitudeDegrees>38.01990115083754062652587890625</LatitudeDegrees>
              <LongitudeDegrees>-6.220833621919155120849609375</LongitudeDegrees>
            </Position>
            <AltitudeMeters>435.399993896484375</AltitudeMeters>
            <DistanceMeters>NAN</DistanceMeters>
          </Trackpoint>
          <Trackpoint>
            <Time>2019-10-10T09:47:46.000Z</Time>
            <Position>
              <LatitudeDegrees>38.01971557550132274627685546875</LatitudeDegrees>
              <LongitudeDegrees>-6.22094216756522655487060546875</LongitudeDegrees>
            </Position>
            <AltitudeMeters>434.20001220703125</AltitudeMeters>
            <DistanceMeters>NAN</DistanceMeters>
          </Trackpoint>
          <Trackpoint>
            <Time>2019-10-10T09:47:49.000Z</Time>
            <Position>
              <LatitudeDegrees>38.019521869719028472900390625</LatitudeDegrees>
              <LongitudeDegrees>-6.22105590999126434326171875</LongitudeDegrees>
            </Position>
            <AltitudeMeters>433.399993896484375</AltitudeMeters>
            <DistanceMeters>NAN</DistanceMeters>
          </Trackpoint>
          <Trackpoint>
            <Time>2019-10-10T09:47:50.000Z</Time>
            <Position>
              <LatitudeDegrees>38.01945540122687816619873046875</LatitudeDegrees>
              <LongitudeDegrees>-6.2210953049361705780029296875</LongitudeDegrees>
            </Position>
            <AltitudeMeters>432.79998779296875</AltitudeMeters>
            <DistanceMeters>NAN</DistanceMeters>
          </Trackpoint>
          <Trackpoint>
            <Time>2019-10-10T09:47:55.000Z</Time>
            <Position>
              <LatitudeDegrees>38.0191220529377460479736328125</LatitudeDegrees>
              <LongitudeDegrees>-6.2212890945374965667724609375</LongitudeDegrees>
            </Position>
            <AltitudeMeters>432.20001220703125</AltitudeMeters>
            <DistanceMeters>NAN</DistanceMeters>
          </Trackpoint>
          <Trackpoint>
            <Time>2019-10-10T09:47:56.000Z</Time>
            <Position>
              <LatitudeDegrees>38.0190533213317394256591796875</LatitudeDegrees>
              <LongitudeDegrees>-6.22132815420627593994140625</LongitudeDegrees>
            </Position>
            <AltitudeMeters>431.79998779296875</AltitudeMeters>
            <DistanceMeters>NAN</DistanceMeters>
          </Trackpoint>
          <Trackpoint>
            <Time>2019-10-10T09:47:59.000Z</Time>
            <Position>
              <LatitudeDegrees>38.01884419284760951995849609375</LatitudeDegrees>
              <LongitudeDegrees>-6.22145287692546844482421875</LongitudeDegrees>
            </Position>
            <AltitudeMeters>431.600006103515625</AltitudeMeters>
            <DistanceMeters>NAN</DistanceMeters>
          </Trackpoint>
          <Trackpoint>
            <Time>2019-10-10T09:48:03.000Z</Time>
            <Position>
              <LatitudeDegrees>38.01856675185263156890869140625</LatitudeDegrees>
              <LongitudeDegrees>-6.2216149829328060150146484375</LongitudeDegrees>
            </Position>
            <AltitudeMeters>430.600006103515625</AltitudeMeters>
            <DistanceMeters>NAN</DistanceMeters>
          </Trackpoint>
          <Trackpoint>
            <Time>2019-10-10T09:48:08.000Z</Time>
            <Position>
              <LatitudeDegrees>38.01823432557284832000732421875</LatitudeDegrees>
              <LongitudeDegrees>-6.221809275448322296142578125</LongitudeDegrees>
            </Position>
            <AltitudeMeters>430.79998779296875</AltitudeMeters>
            <DistanceMeters>NAN</DistanceMeters>
          </Trackpoint>
          <Trackpoint>
            <Time>2019-10-10T09:48:16.000Z</Time>
            <Position>
              <LatitudeDegrees>38.0177135579288005828857421875</LatitudeDegrees>
              <LongitudeDegrees>-6.22210725210607051849365234375</LongitudeDegrees>
            </Position>
            <AltitudeMeters>430.79998779296875</AltitudeMeters>
            <DistanceMeters>NAN</DistanceMeters>
          </Trackpoint>
          <Trackpoint>
            <Time>2019-10-10T09:48:17.000Z</Time>
            <Position>
              <LatitudeDegrees>38.0176501907408237457275390625</LatitudeDegrees>
              <LongitudeDegrees>-6.22214396484196186065673828125</LongitudeDegrees>
            </Position>
            <AltitudeMeters>430.600006103515625</AltitudeMeters>
            <DistanceMeters>NAN</DistanceMeters>
          </Trackpoint>
          <Trackpoint>
            <Time>2019-10-10T09:48:23.000Z</Time>
            <Position>
              <LatitudeDegrees>38.01728147082030773162841796875</LatitudeDegrees>
              <LongitudeDegrees>-6.222356446087360382080078125</LongitudeDegrees>
            </Position>
            <AltitudeMeters>430.600006103515625</AltitudeMeters>
            <DistanceMeters>NAN</DistanceMeters>
          </Trackpoint>
          <Trackpoint>
            <Time>2019-10-10T09:48:25.000Z</Time>
            <Position>
              <LatitudeDegrees>38.017161190509796142578125</LatitudeDegrees>
              <LongitudeDegrees>-6.22242559678852558135986328125</LongitudeDegrees>
            </Position>
            <AltitudeMeters>431.20001220703125</AltitudeMeters>
            <DistanceMeters>NAN</DistanceMeters>
          </Trackpoint>
          <Trackpoint>
            <Time>2019-10-10T09:48:30.000Z</Time>
            <Position>
              <LatitudeDegrees>38.01686011254787445068359375</LatitudeDegrees>
              <LongitudeDegrees>-6.22260396368801593780517578125</LongitudeDegrees>
            </Position>
            <AltitudeMeters>430.79998779296875</AltitudeMeters>
            <DistanceMeters>NAN</DistanceMeters>
          </Trackpoint>
          <Trackpoint>
            <Time>2019-10-10T09:48:33.000Z</Time>
            <Position>
              <LatitudeDegrees>38.01667369902133941650390625</LatitudeDegrees>
              <LongitudeDegrees>-6.2227110005915164947509765625</LongitudeDegrees>
            </Position>
            <AltitudeMeters>430.600006103515625</AltitudeMeters>
            <DistanceMeters>NAN</DistanceMeters>
          </Trackpoint>
          <Trackpoint>
            <Time>2019-10-10T09:48:40.000Z</Time>
            <Position>
              <LatitudeDegrees>38.01623691804707050323486328125</LatitudeDegrees>
              <LongitudeDegrees>-6.22297544963657855987548828125</LongitudeDegrees>
            </Position>
            <AltitudeMeters>429.399993896484375</AltitudeMeters>
            <DistanceMeters>NAN</DistanceMeters>
          </Trackpoint>
          <Trackpoint>
            <Time>2019-10-10T09:48:41.000Z</Time>
            <Position>
              <LatitudeDegrees>38.0161754786968231201171875</LatitudeDegrees>
              <LongitudeDegrees>-6.22301392257213592529296875</LongitudeDegrees>
            </Position>
            <AltitudeMeters>429.20001220703125</AltitudeMeters>
            <DistanceMeters>NAN</DistanceMeters>
          </Trackpoint>
          <Trackpoint>
            <Time>2019-10-10T09:48:48.000Z</Time>
            <Position>
              <LatitudeDegrees>38.0157424695789813995361328125</LatitudeDegrees>
              <LongitudeDegrees>-6.223283149302005767822265625</LongitudeDegrees>
            </Position>
            <AltitudeMeters>428.399993896484375</AltitudeMeters>
            <DistanceMeters>NAN</DistanceMeters>
          </Trackpoint>
          <Trackpoint>
            <Time>2019-10-10T09:48:49.000Z</Time>
            <Position>
              <LatitudeDegrees>38.01568019203841686248779296875</LatitudeDegrees>
              <LongitudeDegrees>-6.22331961058080196380615234375</LongitudeDegrees>
            </Position>
            <AltitudeMeters>428.20001220703125</AltitudeMeters>
            <DistanceMeters>NAN</DistanceMeters>
          </Trackpoint>
          <Trackpoint>
            <Time>2019-10-10T09:48:54.000Z</Time>
            <Position>
              <LatitudeDegrees>38.0153706483542919158935546875</LatitudeDegrees>
              <LongitudeDegrees>-6.22351088561117649078369140625</LongitudeDegrees>
            </Position>
            <AltitudeMeters>427.600006103515625</AltitudeMeters>
            <DistanceMeters>NAN</DistanceMeters>
          </Trackpoint>
          <Trackpoint>
            <Time>2019-10-10T09:48:57.000Z</Time>
            <Position>
              <LatitudeDegrees>38.01519152708351612091064453125</LatitudeDegrees>
              <LongitudeDegrees>-6.2236273102462291717529296875</LongitudeDegrees>
            </Position>
            <AltitudeMeters>427.20001220703125</AltitudeMeters>
            <DistanceMeters>NAN</DistanceMeters>
          </Trackpoint>
          <Trackpoint>
            <Time>2019-10-10T09:48:58.000Z</Time>
            <Position>
              <LatitudeDegrees>38.015131093561649322509765625</LatitudeDegrees>
              <LongitudeDegrees>-6.22366662137210369110107421875</LongitudeDegrees>
            </Position>
            <AltitudeMeters>427</AltitudeMeters>
            <DistanceMeters>NAN</DistanceMeters>
          </Trackpoint>
          <Trackpoint>
            <Time>2019-10-10T09:49:03.000Z</Time>
            <Position>
              <LatitudeDegrees>38.01483663730323314666748046875</LatitudeDegrees>
              <LongitudeDegrees>-6.223862171173095703125</LongitudeDegrees>
            </Position>
            <AltitudeMeters>427.399993896484375</AltitudeMeters>
            <DistanceMeters>NAN</DistanceMeters>
          </Trackpoint>
          <Trackpoint>
            <Time>2019-10-10T09:49:06.000Z</Time>
            <Position>
              <LatitudeDegrees>38.014659024775028228759765625</LatitudeDegrees>
              <LongitudeDegrees>-6.22397524304687976837158203125</LongitudeDegrees>
            </Position>
            <AltitudeMeters>427.20001220703125</AltitudeMeters>
            <DistanceMeters>NAN</DistanceMeters>
          </Trackpoint>
          <Trackpoint>
            <Time>2019-10-10T09:49:11.000Z</Time>
            <Position>
              <LatitudeDegrees>38.014365322887897491455078125</LatitudeDegrees>
              <LongitudeDegrees>-6.22416132129728794097900390625</LongitudeDegrees>
            </Position>
            <AltitudeMeters>427.20001220703125</AltitudeMeters>
            <DistanceMeters>NAN</DistanceMeters>
          </Trackpoint>
          <Trackpoint>
            <Time>2019-10-10T09:49:16.000Z</Time>
            <Position>
              <LatitudeDegrees>38.01406533457338809967041015625</LatitudeDegrees>
              <LongitudeDegrees>-6.224346645176410675048828125</LongitudeDegrees>
            </Position>
            <AltitudeMeters>427</AltitudeMeters>
            <DistanceMeters>NAN</DistanceMeters>
          </Trackpoint>
          <Trackpoint>
            <Time>2019-10-10T09:49:22.000Z</Time>
            <Position>
              <LatitudeDegrees>38.01370910368859767913818359375</LatitudeDegrees>
              <LongitudeDegrees>-6.22457387857139110565185546875</LongitudeDegrees>
            </Position>
            <AltitudeMeters>426.20001220703125</AltitudeMeters>
            <DistanceMeters>NAN</DistanceMeters>
          </Trackpoint>
          <Trackpoint>
            <Time>2019-10-10T09:49:26.000Z</Time>
            <Position>
              <LatitudeDegrees>38.013474158942699432373046875</LatitudeDegrees>
              <LongitudeDegrees>-6.22472274117171764373779296875</LongitudeDegrees>
            </Position>
            <AltitudeMeters>426.399993896484375</AltitudeMeters>
            <DistanceMeters>NAN</DistanceMeters>
          </Trackpoint>
          <Trackpoint>
            <Time>2019-10-10T09:49:35.000Z</Time>
            <Position>
              <LatitudeDegrees>38.01296026445925235748291015625</LatitudeDegrees>
              <LongitudeDegrees>-6.22505080886185169219970703125</LongitudeDegrees>
            </Position>
            <AltitudeMeters>426.20001220703125</AltitudeMeters>
            <DistanceMeters>NAN</DistanceMeters>
          </Trackpoint>
          <Trackpoint>
            <Time>2019-10-10T09:49:37.000Z</Time>
            <Position>
              <LatitudeDegrees>38.0128460191190242767333984375</LatitudeDegrees>
              <LongitudeDegrees>-6.225119791924953460693359375</LongitudeDegrees>
            </Position>
            <AltitudeMeters>426.399993896484375</AltitudeMeters>
            <DistanceMeters>NAN</DistanceMeters>
          </Trackpoint>
          <Trackpoint>
            <Time>2019-10-10T09:49:41.000Z</Time>
            <Position>
              <LatitudeDegrees>38.01261685788631439208984375</LatitudeDegrees>
              <LongitudeDegrees>-6.22526773251593112945556640625</LongitudeDegrees>
            </Position>
            <AltitudeMeters>425.79998779296875</AltitudeMeters>
            <DistanceMeters>NAN</DistanceMeters>
          </Trackpoint>
          <Trackpoint>
            <Time>2019-10-10T09:49:45.000Z</Time>
            <Position>
              <LatitudeDegrees>38.01238476298749446868896484375</LatitudeDegrees>
              <LongitudeDegrees>-6.225416846573352813720703125</LongitudeDegrees>
            </Position>
            <AltitudeMeters>426.20001220703125</AltitudeMeters>
            <DistanceMeters>NAN</DistanceMeters>
          </Trackpoint>
          <Trackpoint>
            <Time>2019-10-10T09:49:51.000Z</Time>
            <Position>
              <LatitudeDegrees>38.01204144023358821868896484375</LatitudeDegrees>
              <LongitudeDegrees>-6.22563217766582965850830078125</LongitudeDegrees>
            </Position>
            <AltitudeMeters>425.20001220703125</AltitudeMeters>
            <DistanceMeters>NAN</DistanceMeters>
          </Trackpoint>
          <Trackpoint>
            <Time>2019-10-10T09:49:55.000Z</Time>
            <Position>
              <LatitudeDegrees>38.011813871562480926513671875</LatitudeDegrees>
              <LongitudeDegrees>-6.2257730774581432342529296875</LongitudeDegrees>
            </Position>
            <AltitudeMeters>426</AltitudeMeters>
            <DistanceMeters>NAN</DistanceMeters>
          </Trackpoint>
          <Trackpoint>
            <Time>2019-10-10T09:50:04.000Z</Time>
            <Position>
              <LatitudeDegrees>38.01129125989973545074462890625</LatitudeDegrees>
              <LongitudeDegrees>-6.2261080183088779449462890625</LongitudeDegrees>
            </Position>
            <AltitudeMeters>425.20001220703125</AltitudeMeters>
            <DistanceMeters>NAN</DistanceMeters>
          </Trackpoint>
          <Trackpoint>
            <Time>2019-10-10T09:50:06.000Z</Time>
            <Position>
              <LatitudeDegrees>38.01117776893079280853271484375</LatitudeDegrees>
              <LongitudeDegrees>-6.22618119232356548309326171875</LongitudeDegrees>
            </Position>
            <AltitudeMeters>425.20001220703125</AltitudeMeters>
            <DistanceMeters>NAN</DistanceMeters>
          </Trackpoint>
          <Trackpoint>
            <Time>2019-10-10T09:50:15.000Z</Time>
            <Position>
              <LatitudeDegrees>38.0106613598763942718505859375</LatitudeDegrees>
              <LongitudeDegrees>-6.22650573961436748504638671875</LongitudeDegrees>
            </Position>
            <AltitudeMeters>425</AltitudeMeters>
            <DistanceMeters>NAN</DistanceMeters>
          </Trackpoint>
          <Trackpoint>
            <Time>2019-10-10T09:50:17.000Z</Time>
            <Position>
              <LatitudeDegrees>38.0105430074036121368408203125</LatitudeDegrees>
              <LongitudeDegrees>-6.22657916508615016937255859375</LongitudeDegrees>
            </Position>
            <AltitudeMeters>424</AltitudeMeters>
            <DistanceMeters>NAN</DistanceMeters>
          </Trackpoint>
          <Trackpoint>
            <Time>2019-10-10T09:50:23.000Z</Time>
            <Position>
              <LatitudeDegrees>38.01019239239394664764404296875</LatitudeDegrees>
              <LongitudeDegrees>-6.2268003635108470916748046875</LongitudeDegrees>
            </Position>
            <AltitudeMeters>424</AltitudeMeters>
            <DistanceMeters>NAN</DistanceMeters>
          </Trackpoint>
          <Trackpoint>
            <Time>2019-10-10T09:50:31.000Z</Time>
            <Position>
              <LatitudeDegrees>38.00973557867109775543212890625</LatitudeDegrees>
              <LongitudeDegrees>-6.22709029354155063629150390625</LongitudeDegrees>
            </Position>
            <AltitudeMeters>423.20001220703125</AltitudeMeters>
            <DistanceMeters>NAN</DistanceMeters>
          </Trackpoint>
          <Trackpoint>
            <Time>2019-10-10T09:50:40.000Z</Time>
            <Position>
              <LatitudeDegrees>38.00923769362270832061767578125</LatitudeDegrees>
              <LongitudeDegrees>-6.22740578837692737579345703125</LongitudeDegrees>
            </Position>
            <AltitudeMeters>423.79998779296875</AltitudeMeters>
            <DistanceMeters>NAN</DistanceMeters>
          </Trackpoint>
          <Trackpoint>
            <Time>2019-10-10T09:50:41.000Z</Time>
            <Position>
              <LatitudeDegrees>38.0091807805001735687255859375</LatitudeDegrees>
              <LongitudeDegrees>-6.227438561618328094482421875</LongitudeDegrees>
            </Position>
            <AltitudeMeters>423.79998779296875</AltitudeMeters>
            <DistanceMeters>NAN</DistanceMeters>
          </Trackpoint>
          <Trackpoint>
            <Time>2019-10-10T09:50:46.000Z</Time>
            <Position>
              <LatitudeDegrees>38.0089082010090351104736328125</LatitudeDegrees>
              <LongitudeDegrees>-6.22761298902332782745361328125</LongitudeDegrees>
            </Position>
            <AltitudeMeters>422.79998779296875</AltitudeMeters>
            <DistanceMeters>NAN</DistanceMeters>
          </Trackpoint>
          <Trackpoint>
            <Time>2019-10-10T09:50:50.000Z</Time>
            <Position>
              <LatitudeDegrees>38.0086896009743213653564453125</LatitudeDegrees>
              <LongitudeDegrees>-6.2277575768530368804931640625</LongitudeDegrees>
            </Position>
            <AltitudeMeters>422.399993896484375</AltitudeMeters>
            <DistanceMeters>NAN</DistanceMeters>
          </Trackpoint>
          <Trackpoint>
            <Time>2019-10-10T09:50:55.000Z</Time>
            <Position>
              <LatitudeDegrees>38.0084093101322650909423828125</LatitudeDegrees>
              <LongitudeDegrees>-6.22793351300060749053955078125</LongitudeDegrees>
            </Position>
            <AltitudeMeters>421.79998779296875</AltitudeMeters>
            <DistanceMeters>NAN</DistanceMeters>
          </Trackpoint>
          <Trackpoint>
            <Time>2019-10-10T09:50:58.000Z</Time>
            <Position>
              <LatitudeDegrees>38.00823681056499481201171875</LatitudeDegrees>
              <LongitudeDegrees>-6.2280455790460109710693359375</LongitudeDegrees>
            </Position>
            <AltitudeMeters>421.20001220703125</AltitudeMeters>
            <DistanceMeters>NAN</DistanceMeters>
          </Trackpoint>
          <Trackpoint>
            <Time>2019-10-10T09:51:01.000Z</Time>
            <Position>
              <LatitudeDegrees>38.00805752165615558624267578125</LatitudeDegrees>
              <LongitudeDegrees>-6.22815228067338466644287109375</LongitudeDegrees>
            </Position>
            <AltitudeMeters>420.79998779296875</AltitudeMeters>
            <DistanceMeters>NAN</DistanceMeters>
          </Trackpoint>
          <Trackpoint>
            <Time>2019-10-10T09:51:04.000Z</Time>
            <Position>
              <LatitudeDegrees>38.00787471234798431396484375</LatitudeDegrees>
              <LongitudeDegrees>-6.22826300561428070068359375</LongitudeDegrees>
            </Position>
            <AltitudeMeters>420.20001220703125</AltitudeMeters>
            <DistanceMeters>NAN</DistanceMeters>
          </Trackpoint>
          <Trackpoint>
            <Time>2019-10-10T09:51:06.000Z</Time>
            <Position>
              <LatitudeDegrees>38.0077541805803775787353515625</LatitudeDegrees>
              <LongitudeDegrees>-6.22833886183798313140869140625</LongitudeDegrees>
            </Position>
            <AltitudeMeters>419.600006103515625</AltitudeMeters>
            <DistanceMeters>NAN</DistanceMeters>
          </Trackpoint>
          <Trackpoint>
            <Time>2019-10-10T09:51:13.000Z</Time>
            <Position>
              <LatitudeDegrees>38.00732888281345367431640625</LatitudeDegrees>
              <LongitudeDegrees>-6.22860976494848728179931640625</LongitudeDegrees>
            </Position>
            <AltitudeMeters>418.79998779296875</AltitudeMeters>
            <DistanceMeters>NAN</DistanceMeters>
          </Trackpoint>
          <Trackpoint>
            <Time>2019-10-10T09:51:14.000Z</Time>
            <Position>
              <LatitudeDegrees>38.00726962275803089141845703125</LatitudeDegrees>
              <LongitudeDegrees>-6.22864781878888607025146484375</LongitudeDegrees>
            </Position>
            <AltitudeMeters>418.79998779296875</AltitudeMeters>
            <DistanceMeters>NAN</DistanceMeters>
          </Trackpoint>
          <Trackpoint>
            <Time>2019-10-10T09:51:15.000Z</Time>
            <Position>
              <LatitudeDegrees>38.00721044652163982391357421875</LatitudeDegrees>
              <LongitudeDegrees>-6.22868386097252368927001953125</LongitudeDegrees>
            </Position>
            <AltitudeMeters>418.399993896484375</AltitudeMeters>
            <DistanceMeters>NAN</DistanceMeters>
          </Trackpoint>
          <Trackpoint>
            <Time>2019-10-10T09:51:23.000Z</Time>
            <Position>
              <LatitudeDegrees>38.006753884255886077880859375</LatitudeDegrees>
              <LongitudeDegrees>-6.2289732880890369415283203125</LongitudeDegrees>
            </Position>
            <AltitudeMeters>418.399993896484375</AltitudeMeters>
            <DistanceMeters>NAN</DistanceMeters>
          </Trackpoint>
          <Trackpoint>
            <Time>2019-10-10T09:51:31.000Z</Time>
            <Position>
              <LatitudeDegrees>38.006307296454906463623046875</LatitudeDegrees>
              <LongitudeDegrees>-6.22924930416047573089599609375</LongitudeDegrees>
            </Position>
            <AltitudeMeters>417.79998779296875</AltitudeMeters>
            <DistanceMeters>NAN</DistanceMeters>
          </Trackpoint>
          <Trackpoint>
            <Time>2019-10-10T09:51:37.000Z</Time>
            <Position>
              <LatitudeDegrees>38.00598953850567340850830078125</LatitudeDegrees>
              <LongitudeDegrees>-6.22945256531238555908203125</LongitudeDegrees>
            </Position>
            <AltitudeMeters>418</AltitudeMeters>
            <DistanceMeters>NAN</DistanceMeters>
          </Trackpoint>
          <Trackpoint>
            <Time>2019-10-10T09:51:40.000Z</Time>
            <Position>
              <LatitudeDegrees>38.00583581440150737762451171875</LatitudeDegrees>
              <LongitudeDegrees>-6.2295489571988582611083984375</LongitudeDegrees>
            </Position>
            <AltitudeMeters>419.20001220703125</AltitudeMeters>
            <DistanceMeters>NAN</DistanceMeters>
          </Trackpoint>
          <Trackpoint>
            <Time>2019-10-10T09:51:49.000Z</Time>
            <Position>
              <LatitudeDegrees>38.0053904838860034942626953125</LatitudeDegrees>
              <LongitudeDegrees>-6.22983603738248348236083984375</LongitudeDegrees>
            </Position>
            <AltitudeMeters>419.600006103515625</AltitudeMeters>
            <DistanceMeters>NAN</DistanceMeters>
          </Trackpoint>
          <Trackpoint>
            <Time>2019-10-10T09:51:50.000Z</Time>
            <Position>
              <LatitudeDegrees>38.00534002482891082763671875</LatitudeDegrees>
              <LongitudeDegrees>-6.229867972433567047119140625</LongitudeDegrees>
            </Position>
            <AltitudeMeters>419.79998779296875</AltitudeMeters>
            <DistanceMeters>NAN</DistanceMeters>
          </Trackpoint>
          <Trackpoint>
            <Time>2019-10-10T09:51:55.000Z</Time>
            <Position>
              <LatitudeDegrees>38.00509870983660221099853515625</LatitudeDegrees>
              <LongitudeDegrees>-6.230022199451923370361328125</LongitudeDegrees>
            </Position>
            <AltitudeMeters>419.600006103515625</AltitudeMeters>
            <DistanceMeters>NAN</DistanceMeters>
          </Trackpoint>
          <Trackpoint>
            <Time>2019-10-10T09:51:59.000Z</Time>
            <Position>
              <LatitudeDegrees>38.004905842244625091552734375</LatitudeDegrees>
              <LongitudeDegrees>-6.23013543896377086639404296875</LongitudeDegrees>
            </Position>
            <AltitudeMeters>420.600006103515625</AltitudeMeters>
            <DistanceMeters>NAN</DistanceMeters>
          </Trackpoint>
          <Trackpoint>
            <Time>2019-10-10T09:52:01.000Z</Time>
            <Position>
              <LatitudeDegrees>38.00481255166232585906982421875</LatitudeDegrees>
              <LongitudeDegrees>-6.23019327409565448760986328125</LongitudeDegrees>
            </Position>
            <AltitudeMeters>420.79998779296875</AltitudeMeters>
            <DistanceMeters>NAN</DistanceMeters>
          </Trackpoint>
          <Trackpoint>
            <Time>2019-10-10T09:52:08.000Z</Time>
            <Position>
              <LatitudeDegrees>38.00446855835616588592529296875</LatitudeDegrees>
              <LongitudeDegrees>-6.230370216071605682373046875</LongitudeDegrees>
            </Position>
            <AltitudeMeters>419.79998779296875</AltitudeMeters>
            <DistanceMeters>NAN</DistanceMeters>
          </Trackpoint>
          <Trackpoint>
            <Time>2019-10-10T09:52:10.000Z</Time>
            <Position>
              <LatitudeDegrees>38.00436143763363361358642578125</LatitudeDegrees>
              <LongitudeDegrees>-6.23041958548128604888916015625</LongitudeDegrees>
            </Position>
            <AltitudeMeters>419.399993896484375</AltitudeMeters>
            <DistanceMeters>NAN</DistanceMeters>
          </Trackpoint>
          <Trackpoint>
            <Time>2019-10-10T09:52:16.000Z</Time>
            <Position>
              <LatitudeDegrees>38.00401207990944385528564453125</LatitudeDegrees>
              <LongitudeDegrees>-6.23055486939847469329833984375</LongitudeDegrees>
            </Position>
            <AltitudeMeters>418.20001220703125</AltitudeMeters>
            <DistanceMeters>NAN</DistanceMeters>
          </Trackpoint>
          <Trackpoint>
            <Time>2019-10-10T09:52:17.000Z</Time>
            <Position>
              <LatitudeDegrees>38.003948964178562164306640625</LatitudeDegrees>
              <LongitudeDegrees>-6.2305779196321964263916015625</LongitudeDegrees>
            </Position>
            <AltitudeMeters>417.79998779296875</AltitudeMeters>
            <DistanceMeters>NAN</DistanceMeters>
          </Trackpoint>
          <Trackpoint>
            <Time>2019-10-10T09:52:21.000Z</Time>
            <Position>
              <LatitudeDegrees>38.00368451513350009918212890625</LatitudeDegrees>
              <LongitudeDegrees>-6.23067204840481281280517578125</LongitudeDegrees>
            </Position>
            <AltitudeMeters>416.600006103515625</AltitudeMeters>
            <DistanceMeters>NAN</DistanceMeters>
          </Trackpoint>
          <Trackpoint>
            <Time>2019-10-10T09:52:25.000Z</Time>
            <Position>
              <LatitudeDegrees>38.00341662950813770294189453125</LatitudeDegrees>
              <LongitudeDegrees>-6.2307626567780971527099609375</LongitudeDegrees>
            </Position>
            <AltitudeMeters>416.79998779296875</AltitudeMeters>
            <DistanceMeters>NAN</DistanceMeters>
          </Trackpoint>
          <Trackpoint>
            <Time>2019-10-10T09:52:29.000Z</Time>
            <Position>
              <LatitudeDegrees>38.0031441338360309600830078125</LatitudeDegrees>
              <LongitudeDegrees>-6.230855025351047515869140625</LongitudeDegrees>
            </Position>
            <AltitudeMeters>415.399993896484375</AltitudeMeters>
            <DistanceMeters>NAN</DistanceMeters>
          </Trackpoint>
          <Trackpoint>
            <Time>2019-10-10T09:52:32.000Z</Time>
            <Position>
              <LatitudeDegrees>38.0029443092644214630126953125</LatitudeDegrees>
              <LongitudeDegrees>-6.23092065565288066864013671875</LongitudeDegrees>
            </Position>
            <AltitudeMeters>415.399993896484375</AltitudeMeters>
            <DistanceMeters>NAN</DistanceMeters>
          </Trackpoint>
          <Trackpoint>
            <Time>2019-10-10T09:52:38.000Z</Time>
            <Position>
              <LatitudeDegrees>38.00253150053322315216064453125</LatitudeDegrees>
              <LongitudeDegrees>-6.2310303747653961181640625</LongitudeDegrees>
            </Position>
            <AltitudeMeters>414.399993896484375</AltitudeMeters>
            <DistanceMeters>NAN</DistanceMeters>
          </Trackpoint>
          <Trackpoint>
            <Time>2019-10-10T09:52:40.000Z</Time>
            <Position>
              <LatitudeDegrees>38.00238649360835552215576171875</LatitudeDegrees>
              <LongitudeDegrees>-6.23105141334235668182373046875</LongitudeDegrees>
            </Position>
            <AltitudeMeters>414</AltitudeMeters>
            <DistanceMeters>NAN</DistanceMeters>
          </Trackpoint>
          <Trackpoint>
            <Time>2019-10-10T09:52:42.000Z</Time>
            <Position>
              <LatitudeDegrees>38.002241738140583038330078125</LatitudeDegrees>
              <LongitudeDegrees>-6.2310499884188175201416015625</LongitudeDegrees>
            </Position>
            <AltitudeMeters>413.79998779296875</AltitudeMeters>
            <DistanceMeters>NAN</DistanceMeters>
          </Trackpoint>
          <Trackpoint>
            <Time>2019-10-10T09:52:44.000Z</Time>
            <Position>
              <LatitudeDegrees>38.00209463573992252349853515625</LatitudeDegrees>
              <LongitudeDegrees>-6.23104739002883434295654296875</LongitudeDegrees>
            </Position>
            <AltitudeMeters>413</AltitudeMeters>
            <DistanceMeters>NAN</DistanceMeters>
          </Trackpoint>
          <Trackpoint>
            <Time>2019-10-10T09:52:45.000Z</Time>
            <Position>
              <LatitudeDegrees>38.002021126449108123779296875</LatitudeDegrees>
              <LongitudeDegrees>-6.2310365773737430572509765625</LongitudeDegrees>
            </Position>
            <AltitudeMeters>412.79998779296875</AltitudeMeters>
            <DistanceMeters>NAN</DistanceMeters>
          </Trackpoint>
          <Trackpoint>
            <Time>2019-10-10T09:52:47.000Z</Time>
            <Position>
              <LatitudeDegrees>38.00187461078166961669921875</LatitudeDegrees>
              <LongitudeDegrees>-6.23100765980780124664306640625</LongitudeDegrees>
            </Position>
            <AltitudeMeters>412</AltitudeMeters>
            <DistanceMeters>NAN</DistanceMeters>
          </Trackpoint>
          <Trackpoint>
            <Time>2019-10-10T09:52:49.000Z</Time>
            <Position>
              <LatitudeDegrees>38.00173320807516574859619140625</LatitudeDegrees>
              <LongitudeDegrees>-6.23096399009227752685546875</LongitudeDegrees>
            </Position>
            <AltitudeMeters>411.20001220703125</AltitudeMeters>
            <DistanceMeters>NAN</DistanceMeters>
          </Trackpoint>
          <Trackpoint>
            <Time>2019-10-10T09:52:51.000Z</Time>
            <Position>
              <LatitudeDegrees>38.00159566104412078857421875</LatitudeDegrees>
              <LongitudeDegrees>-6.2309069931507110595703125</LongitudeDegrees>
            </Position>
            <AltitudeMeters>410.79998779296875</AltitudeMeters>
            <DistanceMeters>NAN</DistanceMeters>
          </Trackpoint>
          <Trackpoint>
            <Time>2019-10-10T09:52:53.000Z</Time>
            <Position>
              <LatitudeDegrees>38.0014580301940441131591796875</LatitudeDegrees>
              <LongitudeDegrees>-6.23084220103919506072998046875</LongitudeDegrees>
            </Position>
            <AltitudeMeters>410.600006103515625</AltitudeMeters>
            <DistanceMeters>NAN</DistanceMeters>
          </Trackpoint>
          <Trackpoint>
            <Time>2019-10-10T09:52:58.000Z</Time>
            <Position>
              <LatitudeDegrees>38.0011073313653469085693359375</LatitudeDegrees>
              <LongitudeDegrees>-6.23064572922885417938232421875</LongitudeDegrees>
            </Position>
            <AltitudeMeters>410.20001220703125</AltitudeMeters>
            <DistanceMeters>NAN</DistanceMeters>
          </Trackpoint>
          <Trackpoint>
            <Time>2019-10-10T09:52:59.000Z</Time>
            <Position>
              <LatitudeDegrees>38.00103642046451568603515625</LatitudeDegrees>
              <LongitudeDegrees>-6.230606250464916229248046875</LongitudeDegrees>
            </Position>
            <AltitudeMeters>409.600006103515625</AltitudeMeters>
            <DistanceMeters>NAN</DistanceMeters>
          </Trackpoint>
          <Trackpoint>
            <Time>2019-10-10T09:53:02.000Z</Time>
            <Position>
              <LatitudeDegrees>38.00082829780876636505126953125</LatitudeDegrees>
              <LongitudeDegrees>-6.23048764653503894805908203125</LongitudeDegrees>
            </Position>
            <AltitudeMeters>408.79998779296875</AltitudeMeters>
            <DistanceMeters>NAN</DistanceMeters>
          </Trackpoint>
          <Trackpoint>
            <Time>2019-10-10T09:53:06.000Z</Time>
            <Position>
              <LatitudeDegrees>38.00054716877639293670654296875</LatitudeDegrees>
              <LongitudeDegrees>-6.23033425770699977874755859375</LongitudeDegrees>
            </Position>
            <AltitudeMeters>408</AltitudeMeters>
            <DistanceMeters>NAN</DistanceMeters>
          </Trackpoint>
          <Trackpoint>
            <Time>2019-10-10T09:53:08.000Z</Time>
            <Position>
              <LatitudeDegrees>38.00040501169860363006591796875</LatitudeDegrees>
              <LongitudeDegrees>-6.2302607484161853790283203125</LongitudeDegrees>
            </Position>
            <AltitudeMeters>408</AltitudeMeters>
            <DistanceMeters>NAN</DistanceMeters>
          </Trackpoint>
          <Trackpoint>
            <Time>2019-10-10T09:53:12.000Z</Time>
            <Position>
              <LatitudeDegrees>38.00011499784886837005615234375</LatitudeDegrees>
              <LongitudeDegrees>-6.2301102094352245330810546875</LongitudeDegrees>
            </Position>
            <AltitudeMeters>407.399993896484375</AltitudeMeters>
            <DistanceMeters>NAN</DistanceMeters>
          </Trackpoint>
          <Trackpoint>
            <Time>2019-10-10T09:53:14.000Z</Time>
            <Position>
              <LatitudeDegrees>37.99996730871498584747314453125</LatitudeDegrees>
              <LongitudeDegrees>-6.2300294078886508941650390625</LongitudeDegrees>
            </Position>
            <AltitudeMeters>406.600006103515625</AltitudeMeters>
            <DistanceMeters>NAN</DistanceMeters>
          </Trackpoint>
          <Trackpoint>
            <Time>2019-10-10T09:53:16.000Z</Time>
            <Position>
              <LatitudeDegrees>37.999820373952388763427734375</LatitudeDegrees>
              <LongitudeDegrees>-6.22994466684758663177490234375</LongitudeDegrees>
            </Position>
            <AltitudeMeters>405.79998779296875</AltitudeMeters>
            <DistanceMeters>NAN</DistanceMeters>
          </Trackpoint>
          <Trackpoint>
            <Time>2019-10-10T09:53:17.000Z</Time>
            <Position>
              <LatitudeDegrees>37.999746613204479217529296875</LatitudeDegrees>
              <LongitudeDegrees>-6.229908205568790435791015625</LongitudeDegrees>
            </Position>
            <AltitudeMeters>406</AltitudeMeters>
            <DistanceMeters>NAN</DistanceMeters>
          </Trackpoint>
          <Trackpoint>
            <Time>2019-10-10T09:53:18.000Z</Time>
            <Position>
              <LatitudeDegrees>37.99967410974204540252685546875</LatitudeDegrees>
              <LongitudeDegrees>-6.22987174428999423980712890625</LongitudeDegrees>
            </Position>
            <AltitudeMeters>405.399993896484375</AltitudeMeters>
            <DistanceMeters>NAN</DistanceMeters>
          </Trackpoint>
          <Trackpoint>
            <Time>2019-10-10T09:53:20.000Z</Time>
            <Position>
              <LatitudeDegrees>37.99952759407460689544677734375</LatitudeDegrees>
              <LongitudeDegrees>-6.22979798354208469390869140625</LongitudeDegrees>
            </Position>
            <AltitudeMeters>403.79998779296875</AltitudeMeters>
            <DistanceMeters>NAN</DistanceMeters>
          </Trackpoint>
          <Trackpoint>
            <Time>2019-10-10T09:53:22.000Z</Time>
            <Position>
              <LatitudeDegrees>37.99937973730266094207763671875</LatitudeDegrees>
              <LongitudeDegrees>-6.22973511926829814910888671875</LongitudeDegrees>
            </Position>
            <AltitudeMeters>402.600006103515625</AltitudeMeters>
            <DistanceMeters>NAN</DistanceMeters>
          </Trackpoint>
          <Trackpoint>
            <Time>2019-10-10T09:53:24.000Z</Time>
            <Position>
              <LatitudeDegrees>37.99923389218747615814208984375</LatitudeDegrees>
              <LongitudeDegrees>-6.22967443428933620452880859375</LongitudeDegrees>
            </Position>
            <AltitudeMeters>402.600006103515625</AltitudeMeters>
            <DistanceMeters>NAN</DistanceMeters>
          </Trackpoint>
          <Trackpoint>
            <Time>2019-10-10T09:53:26.000Z</Time>
            <Position>
              <LatitudeDegrees>37.99908670596778392791748046875</LatitudeDegrees>
              <LongitudeDegrees>-6.22962079010903835296630859375</LongitudeDegrees>
            </Position>
            <AltitudeMeters>403</AltitudeMeters>
            <DistanceMeters>NAN</DistanceMeters>
          </Trackpoint>
          <Trackpoint>
            <Time>2019-10-10T09:53:29.000Z</Time>
            <Position>
              <LatitudeDegrees>37.99886240623891353607177734375</LatitudeDegrees>
              <LongitudeDegrees>-6.22954669408500194549560546875</LongitudeDegrees>
            </Position>
            <AltitudeMeters>402</AltitudeMeters>
            <DistanceMeters>NAN</DistanceMeters>
          </Trackpoint>
          <Trackpoint>
            <Time>2019-10-10T09:53:30.000Z</Time>
            <Position>
              <LatitudeDegrees>37.9987872205674648284912109375</LatitudeDegrees>
              <LongitudeDegrees>-6.2295248173177242279052734375</LongitudeDegrees>
            </Position>
            <AltitudeMeters>401.600006103515625</AltitudeMeters>
            <DistanceMeters>NAN</DistanceMeters>
          </Trackpoint>
          <Trackpoint>
            <Time>2019-10-10T09:53:33.000Z</Time>
            <Position>
              <LatitudeDegrees>37.998565100133419036865234375</LatitudeDegrees>
              <LongitudeDegrees>-6.229470334947109222412109375</LongitudeDegrees>
            </Position>
            <AltitudeMeters>401.600006103515625</AltitudeMeters>
            <DistanceMeters>NAN</DistanceMeters>
          </Trackpoint>
          <Trackpoint>
            <Time>2019-10-10T09:53:37.000Z</Time>
            <Position>
              <LatitudeDegrees>37.9982685483992099761962890625</LatitudeDegrees>
              <LongitudeDegrees>-6.22942171990871429443359375</LongitudeDegrees>
            </Position>
            <AltitudeMeters>401</AltitudeMeters>
            <DistanceMeters>NAN</DistanceMeters>
          </Trackpoint>
          <Trackpoint>
            <Time>2019-10-10T09:53:38.000Z</Time>
            <Position>
              <LatitudeDegrees>37.99819403328001499176025390625</LatitudeDegrees>
              <LongitudeDegrees>-6.22941493056714534759521484375</LongitudeDegrees>
            </Position>
            <AltitudeMeters>400.600006103515625</AltitudeMeters>
            <DistanceMeters>NAN</DistanceMeters>
          </Trackpoint>
          <Trackpoint>
            <Time>2019-10-10T09:53:42.000Z</Time>
            <Position>
              <LatitudeDegrees>37.99789161421358585357666015625</LatitudeDegrees>
              <LongitudeDegrees>-6.22939758002758026123046875</LongitudeDegrees>
            </Position>
            <AltitudeMeters>400.20001220703125</AltitudeMeters>
            <DistanceMeters>NAN</DistanceMeters>
          </Trackpoint>
          <Trackpoint>
            <Time>2019-10-10T09:53:47.000Z</Time>
            <Position>
              <LatitudeDegrees>37.9975071363151073455810546875</LatitudeDegrees>
              <LongitudeDegrees>-6.22941476292908191680908203125</LongitudeDegrees>
            </Position>
            <AltitudeMeters>399.399993896484375</AltitudeMeters>
            <DistanceMeters>NAN</DistanceMeters>
          </Trackpoint>
          <Trackpoint>
            <Time>2019-10-10T09:53:51.000Z</Time>
            <Position>
              <LatitudeDegrees>37.997189126908779144287109375</LatitudeDegrees>
              <LongitudeDegrees>-6.2294389866292476654052734375</LongitudeDegrees>
            </Position>
            <AltitudeMeters>398.600006103515625</AltitudeMeters>
            <DistanceMeters>NAN</DistanceMeters>
          </Trackpoint>
          <Trackpoint>
            <Time>2019-10-10T09:53:52.000Z</Time>
            <Position>
              <LatitudeDegrees>37.997108660638332366943359375</LatitudeDegrees>
              <LongitudeDegrees>-6.229448206722736358642578125</LongitudeDegrees>
            </Position>
            <AltitudeMeters>398.399993896484375</AltitudeMeters>
            <DistanceMeters>NAN</DistanceMeters>
          </Trackpoint>
          <Trackpoint>
            <Time>2019-10-10T09:53:55.000Z</Time>
            <Position>
              <LatitudeDegrees>37.99686097539961338043212890625</LatitudeDegrees>
              <LongitudeDegrees>-6.22947511263191699981689453125</LongitudeDegrees>
            </Position>
            <AltitudeMeters>397</AltitudeMeters>
            <DistanceMeters>NAN</DistanceMeters>
          </Trackpoint>
          <Trackpoint>
            <Time>2019-10-10T09:53:58.000Z</Time>
            <Position>
              <LatitudeDegrees>37.99661722965538501739501953125</LatitudeDegrees>
              <LongitudeDegrees>-6.22949640266597270965576171875</LongitudeDegrees>
            </Position>
            <AltitudeMeters>396</AltitudeMeters>
            <DistanceMeters>NAN</DistanceMeters>
          </Trackpoint>
          <Trackpoint>
            <Time>2019-10-10T09:53:59.000Z</Time>
            <Position>
              <LatitudeDegrees>37.99653693102300167083740234375</LatitudeDegrees>
              <LongitudeDegrees>-6.2295013479888439178466796875</LongitudeDegrees>
            </Position>
            <AltitudeMeters>395.600006103515625</AltitudeMeters>
            <DistanceMeters>NAN</DistanceMeters>
          </Trackpoint>
          <Trackpoint>
            <Time>2019-10-10T09:54:05.000Z</Time>
            <Position>
              <LatitudeDegrees>37.9960696399211883544921875</LatitudeDegrees>
              <LongitudeDegrees>-6.22955557890236377716064453125</LongitudeDegrees>
            </Position>
            <AltitudeMeters>396</AltitudeMeters>
            <DistanceMeters>NAN</DistanceMeters>
          </Trackpoint>
          <Trackpoint>
            <Time>2019-10-10T09:54:08.000Z</Time>
            <Position>
              <LatitudeDegrees>37.99584492109715938568115234375</LatitudeDegrees>
              <LongitudeDegrees>-6.229580976068973541259765625</LongitudeDegrees>
            </Position>
            <AltitudeMeters>395.399993896484375</AltitudeMeters>
            <DistanceMeters>NAN</DistanceMeters>
          </Trackpoint>
          <Trackpoint>
            <Time>2019-10-10T09:54:13.000Z</Time>
            <Position>
              <LatitudeDegrees>37.99548466689884662628173828125</LatitudeDegrees>
              <LongitudeDegrees>-6.229619197547435760498046875</LongitudeDegrees>
            </Position>
            <AltitudeMeters>394.79998779296875</AltitudeMeters>
            <DistanceMeters>NAN</DistanceMeters>
          </Trackpoint>
          <Trackpoint>
            <Time>2019-10-10T09:54:16.000Z</Time>
            <Position>
              <LatitudeDegrees>37.99526841379702091217041015625</LatitudeDegrees>
              <LongitudeDegrees>-6.22964166104793548583984375</LongitudeDegrees>
            </Position>
            <AltitudeMeters>394.79998779296875</AltitudeMeters>
            <DistanceMeters>NAN</DistanceMeters>
          </Trackpoint>
          <Trackpoint>
            <Time>2019-10-10T09:54:22.000Z</Time>
            <Position>
              <LatitudeDegrees>37.99483473412692546844482421875</LatitudeDegrees>
              <LongitudeDegrees>-6.2296837382018566131591796875</LongitudeDegrees>
            </Position>
            <AltitudeMeters>394.600006103515625</AltitudeMeters>
            <DistanceMeters>NAN</DistanceMeters>
          </Trackpoint>
          <Trackpoint>
            <Time>2019-10-10T09:54:27.000Z</Time>
            <Position>
              <LatitudeDegrees>37.99447515048086643218994140625</LatitudeDegrees>
              <LongitudeDegrees>-6.2297189421951770782470703125</LongitudeDegrees>
            </Position>
            <AltitudeMeters>393.600006103515625</AltitudeMeters>
            <DistanceMeters>NAN</DistanceMeters>
          </Trackpoint>
          <Trackpoint>
            <Time>2019-10-10T09:54:34.000Z</Time>
            <Position>
              <LatitudeDegrees>37.99399319104850292205810546875</LatitudeDegrees>
              <LongitudeDegrees>-6.2297724187374114990234375</LongitudeDegrees>
            </Position>
            <AltitudeMeters>394.20001220703125</AltitudeMeters>
            <DistanceMeters>NAN</DistanceMeters>
          </Trackpoint>
          <Trackpoint>
            <Time>2019-10-10T09:54:37.000Z</Time>
            <Position>
              <LatitudeDegrees>37.99378599040210247039794921875</LatitudeDegrees>
              <LongitudeDegrees>-6.22979211620986461639404296875</LongitudeDegrees>
            </Position>
            <AltitudeMeters>394</AltitudeMeters>
            <DistanceMeters>NAN</DistanceMeters>
          </Trackpoint>
          <Trackpoint>
            <Time>2019-10-10T09:54:45.000Z</Time>
            <Position>
              <LatitudeDegrees>37.99324384890496730804443359375</LatitudeDegrees>
              <LongitudeDegrees>-6.2298533879220485687255859375</LongitudeDegrees>
            </Position>
            <AltitudeMeters>394.399993896484375</AltitudeMeters>
            <DistanceMeters>NAN</DistanceMeters>
          </Trackpoint>
          <Trackpoint>
            <Time>2019-10-10T09:54:48.000Z</Time>
            <Position>
              <LatitudeDegrees>37.993042767047882080078125</LatitudeDegrees>
              <LongitudeDegrees>-6.22987492941319942474365234375</LongitudeDegrees>
            </Position>
            <AltitudeMeters>394</AltitudeMeters>
            <DistanceMeters>NAN</DistanceMeters>
          </Trackpoint>
          <Trackpoint>
            <Time>2019-10-10T09:54:56.000Z</Time>
            <Position>
              <LatitudeDegrees>37.9925098456442356109619140625</LatitudeDegrees>
              <LongitudeDegrees>-6.22992270626127719879150390625</LongitudeDegrees>
            </Position>
            <AltitudeMeters>393</AltitudeMeters>
            <DistanceMeters>NAN</DistanceMeters>
          </Trackpoint>
          <Trackpoint>
            <Time>2019-10-10T09:54:58.000Z</Time>
            <Position>
              <LatitudeDegrees>37.99237917177379131317138671875</LatitudeDegrees>
              <LongitudeDegrees>-6.22993628494441509246826171875</LongitudeDegrees>
            </Position>
            <AltitudeMeters>392.79998779296875</AltitudeMeters>
            <DistanceMeters>NAN</DistanceMeters>
          </Trackpoint>
          <Trackpoint>
            <Time>2019-10-10T09:55:00.000Z</Time>
            <Position>
              <LatitudeDegrees>37.99224807880818843841552734375</LatitudeDegrees>
              <LongitudeDegrees>-6.22995438985526561737060546875</LongitudeDegrees>
            </Position>
            <AltitudeMeters>392.600006103515625</AltitudeMeters>
            <DistanceMeters>NAN</DistanceMeters>
          </Trackpoint>
          <Trackpoint>
            <Time>2019-10-10T09:55:04.000Z</Time>
            <Position>
              <LatitudeDegrees>37.9919744096696376800537109375</LatitudeDegrees>
              <LongitudeDegrees>-6.22998272068798542022705078125</LongitudeDegrees>
            </Position>
            <AltitudeMeters>392.20001220703125</AltitudeMeters>
            <DistanceMeters>NAN</DistanceMeters>
          </Trackpoint>
          <Trackpoint>
            <Time>2019-10-10T09:55:07.000Z</Time>
            <Position>
              <LatitudeDegrees>37.9917581565678119659423828125</LatitudeDegrees>
              <LongitudeDegrees>-6.23000786639750003814697265625</LongitudeDegrees>
            </Position>
            <AltitudeMeters>392.20001220703125</AltitudeMeters>
            <DistanceMeters>NAN</DistanceMeters>
          </Trackpoint>
          <Trackpoint>
            <Time>2019-10-10T09:55:08.000Z</Time>
            <Position>
              <LatitudeDegrees>37.99168263562023639678955078125</LatitudeDegrees>
              <LongitudeDegrees>-6.2300170026719570159912109375</LongitudeDegrees>
            </Position>
            <AltitudeMeters>391</AltitudeMeters>
            <DistanceMeters>NAN</DistanceMeters>
          </Trackpoint>
          <Trackpoint>
            <Time>2019-10-10T09:55:12.000Z</Time>
            <Position>
              <LatitudeDegrees>37.99136764369904994964599609375</LatitudeDegrees>
              <LongitudeDegrees>-6.23004801571369171142578125</LongitudeDegrees>
            </Position>
            <AltitudeMeters>389.79998779296875</AltitudeMeters>
            <DistanceMeters>NAN</DistanceMeters>
          </Trackpoint>
          <Trackpoint>
            <Time>2019-10-10T09:55:15.000Z</Time>
            <Position>
              <LatitudeDegrees>37.991127669811248779296875</LatitudeDegrees>
              <LongitudeDegrees>-6.23007140122354030609130859375</LongitudeDegrees>
            </Position>
            <AltitudeMeters>388.79998779296875</AltitudeMeters>
            <DistanceMeters>NAN</DistanceMeters>
          </Trackpoint>
          <Trackpoint>
            <Time>2019-10-10T09:55:22.000Z</Time>
            <Position>
              <LatitudeDegrees>37.99060421995818614959716796875</LatitudeDegrees>
              <LongitudeDegrees>-6.23012018389999866485595703125</LongitudeDegrees>
            </Position>
            <AltitudeMeters>388.79998779296875</AltitudeMeters>
            <DistanceMeters>NAN</DistanceMeters>
          </Trackpoint>
          <Trackpoint>
            <Time>2019-10-10T09:55:23.000Z</Time>
            <Position>
              <LatitudeDegrees>37.99053548835217952728271484375</LatitudeDegrees>
              <LongitudeDegrees>-6.23012982308864593505859375</LongitudeDegrees>
            </Position>
            <AltitudeMeters>388.79998779296875</AltitudeMeters>
            <DistanceMeters>NAN</DistanceMeters>
          </Trackpoint>
          <Trackpoint>
            <Time>2019-10-10T09:55:28.000Z</Time>
            <Position>
              <LatitudeDegrees>37.99021027050912380218505859375</LatitudeDegrees>
              <LongitudeDegrees>-6.23016695491969585418701171875</LongitudeDegrees>
            </Position>
            <AltitudeMeters>389.79998779296875</AltitudeMeters>
            <DistanceMeters>NAN</DistanceMeters>
          </Trackpoint>
          <Trackpoint>
            <Time>2019-10-10T09:55:30.000Z</Time>
            <Position>
              <LatitudeDegrees>37.99009359441697597503662109375</LatitudeDegrees>
              <LongitudeDegrees>-6.23018103651702404022216796875</LongitudeDegrees>
            </Position>
            <AltitudeMeters>390.399993896484375</AltitudeMeters>
            <DistanceMeters>NAN</DistanceMeters>
          </Trackpoint>
          <Trackpoint>
            <Time>2019-10-10T09:55:32.000Z</Time>
            <Position>
              <LatitudeDegrees>37.989984042942523956298828125</LatitudeDegrees>
              <LongitudeDegrees>-6.23019285500049591064453125</LongitudeDegrees>
            </Position>
            <AltitudeMeters>390.79998779296875</AltitudeMeters>
            <DistanceMeters>NAN</DistanceMeters>
          </Trackpoint>
          <Trackpoint>
            <Time>2019-10-10T09:55:36.000Z</Time>
            <Position>
              <LatitudeDegrees>37.98978262580931186676025390625</LatitudeDegrees>
              <LongitudeDegrees>-6.230210624635219573974609375</LongitudeDegrees>
            </Position>
            <AltitudeMeters>392</AltitudeMeters>
            <DistanceMeters>NAN</DistanceMeters>
          </Trackpoint>
          <Trackpoint>
            <Time>2019-10-10T09:55:37.000Z</Time>
            <Position>
              <LatitudeDegrees>37.98973493278026580810546875</LatitudeDegrees>
              <LongitudeDegrees>-6.23021355830132961273193359375</LongitudeDegrees>
            </Position>
            <AltitudeMeters>392.399993896484375</AltitudeMeters>
            <DistanceMeters>NAN</DistanceMeters>
          </Trackpoint>
          <Trackpoint>
            <Time>2019-10-10T09:55:43.000Z</Time>
            <Position>
              <LatitudeDegrees>37.98946444876492023468017578125</LatitudeDegrees>
              <LongitudeDegrees>-6.2302439846098423004150390625</LongitudeDegrees>
            </Position>
            <AltitudeMeters>393.20001220703125</AltitudeMeters>
            <DistanceMeters>NAN</DistanceMeters>
          </Trackpoint>
          <Trackpoint>
            <Time>2019-10-10T09:55:45.000Z</Time>
            <Position>
              <LatitudeDegrees>37.9893740080296993255615234375</LatitudeDegrees>
              <LongitudeDegrees>-6.23025211505591869354248046875</LongitudeDegrees>
            </Position>
            <AltitudeMeters>393.20001220703125</AltitudeMeters>
            <DistanceMeters>NAN</DistanceMeters>
          </Trackpoint>
          <Trackpoint>
            <Time>2019-10-10T09:55:50.000Z</Time>
            <Position>
              <LatitudeDegrees>37.98915532417595386505126953125</LatitudeDegrees>
              <LongitudeDegrees>-6.23027625493705272674560546875</LongitudeDegrees>
            </Position>
            <AltitudeMeters>394.20001220703125</AltitudeMeters>
            <DistanceMeters>NAN</DistanceMeters>
          </Trackpoint>
          <Trackpoint>
            <Time>2019-10-10T09:55:53.000Z</Time>
            <Position>
              <LatitudeDegrees>37.98902456648647785186767578125</LatitudeDegrees>
              <LongitudeDegrees>-6.23029477894306182861328125</LongitudeDegrees>
            </Position>
            <AltitudeMeters>394.600006103515625</AltitudeMeters>
            <DistanceMeters>NAN</DistanceMeters>
          </Trackpoint>
          <Trackpoint>
            <Time>2019-10-10T09:55:56.000Z</Time>
            <Position>
              <LatitudeDegrees>37.98889313824474811553955078125</LatitudeDegrees>
              <LongitudeDegrees>-6.23031028546392917633056640625</LongitudeDegrees>
            </Position>
            <AltitudeMeters>395.399993896484375</AltitudeMeters>
            <DistanceMeters>NAN</DistanceMeters>
          </Trackpoint>
          <Trackpoint>
            <Time>2019-10-10T09:55:59.000Z</Time>
            <Position>
              <LatitudeDegrees>37.98876254819333553314208984375</LatitudeDegrees>
              <LongitudeDegrees>-6.23031891882419586181640625</LongitudeDegrees>
            </Position>
            <AltitudeMeters>395.399993896484375</AltitudeMeters>
            <DistanceMeters>NAN</DistanceMeters>
          </Trackpoint>
          <Trackpoint>
            <Time>2019-10-10T09:56:07.000Z</Time>
            <Position>
              <LatitudeDegrees>37.98840430565178394317626953125</LatitudeDegrees>
              <LongitudeDegrees>-6.23036007396876811981201171875</LongitudeDegrees>
            </Position>
            <AltitudeMeters>395.79998779296875</AltitudeMeters>
            <DistanceMeters>NAN</DistanceMeters>
          </Trackpoint>
          <Trackpoint>
            <Time>2019-10-10T09:56:10.000Z</Time>
            <Position>
              <LatitudeDegrees>37.988249994814395904541015625</LatitudeDegrees>
              <LongitudeDegrees>-6.230374909937381744384765625</LongitudeDegrees>
            </Position>
            <AltitudeMeters>396.399993896484375</AltitudeMeters>
            <DistanceMeters>NAN</DistanceMeters>
          </Trackpoint>
          <Trackpoint>
            <Time>2019-10-10T09:56:15.000Z</Time>
            <Position>
              <LatitudeDegrees>37.98798252828419208526611328125</LatitudeDegrees>
              <LongitudeDegrees>-6.2304025702178478240966796875</LongitudeDegrees>
            </Position>
            <AltitudeMeters>395.600006103515625</AltitudeMeters>
            <DistanceMeters>NAN</DistanceMeters>
          </Trackpoint>
          <Trackpoint>
            <Time>2019-10-10T09:56:17.000Z</Time>
            <Position>
              <LatitudeDegrees>37.98787347972393035888671875</LatitudeDegrees>
              <LongitudeDegrees>-6.23041271232068538665771484375</LongitudeDegrees>
            </Position>
            <AltitudeMeters>395.20001220703125</AltitudeMeters>
            <DistanceMeters>NAN</DistanceMeters>
          </Trackpoint>
          <Trackpoint>
            <Time>2019-10-10T09:56:25.000Z</Time>
            <Position>
              <LatitudeDegrees>37.98741817474365234375</LatitudeDegrees>
              <LongitudeDegrees>-6.23045839369297027587890625</LongitudeDegrees>
            </Position>
            <AltitudeMeters>394.79998779296875</AltitudeMeters>
            <DistanceMeters>NAN</DistanceMeters>
          </Trackpoint>
          <Trackpoint>
            <Time>2019-10-10T09:56:31.000Z</Time>
            <Position>
              <LatitudeDegrees>37.98704802989959716796875</LatitudeDegrees>
              <LongitudeDegrees>-6.230494938790798187255859375</LongitudeDegrees>
            </Position>
            <AltitudeMeters>394</AltitudeMeters>
            <DistanceMeters>NAN</DistanceMeters>
          </Trackpoint>
          <Trackpoint>
            <Time>2019-10-10T09:56:35.000Z</Time>
            <Position>
              <LatitudeDegrees>37.9868010990321636199951171875</LatitudeDegrees>
              <LongitudeDegrees>-6.23051614500582218170166015625</LongitudeDegrees>
            </Position>
            <AltitudeMeters>393.79998779296875</AltitudeMeters>
            <DistanceMeters>NAN</DistanceMeters>
          </Trackpoint>
          <Trackpoint>
            <Time>2019-10-10T09:56:41.000Z</Time>
            <Position>
              <LatitudeDegrees>37.98643288202583789825439453125</LatitudeDegrees>
              <LongitudeDegrees>-6.23055503703653812408447265625</LongitudeDegrees>
            </Position>
            <AltitudeMeters>393.399993896484375</AltitudeMeters>
            <DistanceMeters>NAN</DistanceMeters>
          </Trackpoint>
          <Trackpoint>
            <Time>2019-10-10T09:56:45.000Z</Time>
            <Position>
              <LatitudeDegrees>37.98618561588227748870849609375</LatitudeDegrees>
              <LongitudeDegrees>-6.230580769479274749755859375</LongitudeDegrees>
            </Position>
            <AltitudeMeters>392.600006103515625</AltitudeMeters>
            <DistanceMeters>NAN</DistanceMeters>
          </Trackpoint>
          <Trackpoint>
            <Time>2019-10-10T09:56:54.000Z</Time>
            <Position>
              <LatitudeDegrees>37.98562838695943355560302734375</LatitudeDegrees>
              <LongitudeDegrees>-6.23063835315406322479248046875</LongitudeDegrees>
            </Position>
            <AltitudeMeters>392.20001220703125</AltitudeMeters>
            <DistanceMeters>NAN</DistanceMeters>
          </Trackpoint>
          <Trackpoint>
            <Time>2019-10-10T09:56:55.000Z</Time>
            <Position>
              <LatitudeDegrees>37.98556619323790073394775390625</LatitudeDegrees>
              <LongitudeDegrees>-6.23064807616174221038818359375</LongitudeDegrees>
            </Position>
            <AltitudeMeters>392.20001220703125</AltitudeMeters>
            <DistanceMeters>NAN</DistanceMeters>
          </Trackpoint>
          <Trackpoint>
            <Time>2019-10-10T09:57:00.000Z</Time>
            <Position>
              <LatitudeDegrees>37.9852544702589511871337890625</LatitudeDegrees>
              <LongitudeDegrees>-6.2306843698024749755859375</LongitudeDegrees>
            </Position>
            <AltitudeMeters>391.600006103515625</AltitudeMeters>
            <DistanceMeters>NAN</DistanceMeters>
          </Trackpoint>
          <Trackpoint>
            <Time>2019-10-10T09:57:04.000Z</Time>
            <Position>
              <LatitudeDegrees>37.985009215772151947021484375</LatitudeDegrees>
              <LongitudeDegrees>-6.23071026988327503204345703125</LongitudeDegrees>
            </Position>
            <AltitudeMeters>391.399993896484375</AltitudeMeters>
            <DistanceMeters>NAN</DistanceMeters>
          </Trackpoint>
          <Trackpoint>
            <Time>2019-10-10T09:57:13.000Z</Time>
            <Position>
              <LatitudeDegrees>37.98445492051541805267333984375</LatitudeDegrees>
              <LongitudeDegrees>-6.23076458461582660675048828125</LongitudeDegrees>
            </Position>
            <AltitudeMeters>391.399993896484375</AltitudeMeters>
            <DistanceMeters>NAN</DistanceMeters>
          </Trackpoint>
          <Trackpoint>
            <Time>2019-10-10T09:57:15.000Z</Time>
            <Position>
              <LatitudeDegrees>37.98432868905365467071533203125</LatitudeDegrees>
              <LongitudeDegrees>-6.23077799566090106964111328125</LongitudeDegrees>
            </Position>
            <AltitudeMeters>391</AltitudeMeters>
            <DistanceMeters>NAN</DistanceMeters>
          </Trackpoint>
          <Trackpoint>
            <Time>2019-10-10T09:57:22.000Z</Time>
            <Position>
              <LatitudeDegrees>37.98389467410743236541748046875</LatitudeDegrees>
              <LongitudeDegrees>-6.2308243475854396820068359375</LongitudeDegrees>
            </Position>
            <AltitudeMeters>390.600006103515625</AltitudeMeters>
            <DistanceMeters>NAN</DistanceMeters>
          </Trackpoint>
          <Trackpoint>
            <Time>2019-10-10T09:57:26.000Z</Time>
            <Position>
              <LatitudeDegrees>37.9836421273648738861083984375</LatitudeDegrees>
              <LongitudeDegrees>-6.2308506667613983154296875</LongitudeDegrees>
            </Position>
            <AltitudeMeters>390</AltitudeMeters>
            <DistanceMeters>NAN</DistanceMeters>
          </Trackpoint>
          <Trackpoint>
            <Time>2019-10-10T09:57:31.000Z</Time>
            <Position>
              <LatitudeDegrees>37.98332973383367061614990234375</LatitudeDegrees>
              <LongitudeDegrees>-6.2308813445270061492919921875</LongitudeDegrees>
            </Position>
            <AltitudeMeters>389.399993896484375</AltitudeMeters>
            <DistanceMeters>NAN</DistanceMeters>
          </Trackpoint>
          <Trackpoint>
            <Time>2019-10-10T09:57:37.000Z</Time>
            <Position>
              <LatitudeDegrees>37.98296310938894748687744140625</LatitudeDegrees>
              <LongitudeDegrees>-6.230896599590778350830078125</LongitudeDegrees>
            </Position>
            <AltitudeMeters>389</AltitudeMeters>
            <DistanceMeters>NAN</DistanceMeters>
          </Trackpoint>
          <Trackpoint>
            <Time>2019-10-10T09:57:45.000Z</Time>
            <Position>
              <LatitudeDegrees>37.98247310332953929901123046875</LatitudeDegrees>
              <LongitudeDegrees>-6.23085577972233295440673828125</LongitudeDegrees>
            </Position>
            <AltitudeMeters>388.79998779296875</AltitudeMeters>
            <DistanceMeters>NAN</DistanceMeters>
          </Trackpoint>
          <Trackpoint>
            <Time>2019-10-10T09:57:49.000Z</Time>
            <Position>
              <LatitudeDegrees>37.9822148568928241729736328125</LatitudeDegrees>
              <LongitudeDegrees>-6.2308139540255069732666015625</LongitudeDegrees>
            </Position>
            <AltitudeMeters>388.399993896484375</AltitudeMeters>
            <DistanceMeters>NAN</DistanceMeters>
          </Trackpoint>
          <Trackpoint>
            <Time>2019-10-10T09:57:52.000Z</Time>
            <Position>
              <LatitudeDegrees>37.98201109282672405242919921875</LatitudeDegrees>
              <LongitudeDegrees>-6.2307690270245075225830078125</LongitudeDegrees>
            </Position>
            <AltitudeMeters>387.399993896484375</AltitudeMeters>
            <DistanceMeters>NAN</DistanceMeters>
          </Trackpoint>
          <Trackpoint>
            <Time>2019-10-10T09:57:53.000Z</Time>
            <Position>
              <LatitudeDegrees>37.9819397628307342529296875</LatitudeDegrees>
              <LongitudeDegrees>-6.23075335286557674407958984375</LongitudeDegrees>
            </Position>
            <AltitudeMeters>387.20001220703125</AltitudeMeters>
            <DistanceMeters>NAN</DistanceMeters>
          </Trackpoint>
          <Trackpoint>
            <Time>2019-10-10T09:57:57.000Z</Time>
            <Position>
              <LatitudeDegrees>37.98164673149585723876953125</LatitudeDegrees>
              <LongitudeDegrees>-6.2306875549256801605224609375</LongitudeDegrees>
            </Position>
            <AltitudeMeters>385.79998779296875</AltitudeMeters>
            <DistanceMeters>NAN</DistanceMeters>
          </Trackpoint>
          <Trackpoint>
            <Time>2019-10-10T09:58:01.000Z</Time>
            <Position>
              <LatitudeDegrees>37.981343977153301239013671875</LatitudeDegrees>
              <LongitudeDegrees>-6.230625696480274200439453125</LongitudeDegrees>
            </Position>
            <AltitudeMeters>384.79998779296875</AltitudeMeters>
            <DistanceMeters>NAN</DistanceMeters>
          </Trackpoint>
          <Trackpoint>
            <Time>2019-10-10T09:58:02.000Z</Time>
            <Position>
              <LatitudeDegrees>37.98126854002475738525390625</LatitudeDegrees>
              <LongitudeDegrees>-6.2306077592074871063232421875</LongitudeDegrees>
            </Position>
            <AltitudeMeters>384.79998779296875</AltitudeMeters>
            <DistanceMeters>NAN</DistanceMeters>
          </Trackpoint>
          <Trackpoint>
            <Time>2019-10-10T09:58:07.000Z</Time>
            <Position>
              <LatitudeDegrees>37.98089060001075267791748046875</LatitudeDegrees>
              <LongitudeDegrees>-6.23052637092769145965576171875</LongitudeDegrees>
            </Position>
            <AltitudeMeters>383.600006103515625</AltitudeMeters>
            <DistanceMeters>NAN</DistanceMeters>
          </Trackpoint>
          <Trackpoint>
            <Time>2019-10-10T09:58:10.000Z</Time>
            <Position>
              <LatitudeDegrees>37.98066998831927776336669921875</LatitudeDegrees>
              <LongitudeDegrees>-6.23046803288161754608154296875</LongitudeDegrees>
            </Position>
            <AltitudeMeters>383</AltitudeMeters>
            <DistanceMeters>NAN</DistanceMeters>
          </Trackpoint>
          <Trackpoint>
            <Time>2019-10-10T09:58:11.000Z</Time>
            <Position>
              <LatitudeDegrees>37.9805951379239559173583984375</LatitudeDegrees>
              <LongitudeDegrees>-6.23045261017978191375732421875</LongitudeDegrees>
            </Position>
            <AltitudeMeters>382.79998779296875</AltitudeMeters>
            <DistanceMeters>NAN</DistanceMeters>
          </Trackpoint>
          <Trackpoint>
            <Time>2019-10-10T09:58:12.000Z</Time>
            <Position>
              <LatitudeDegrees>37.98052011989057064056396484375</LatitudeDegrees>
              <LongitudeDegrees>-6.230435259640216827392578125</LongitudeDegrees>
            </Position>
            <AltitudeMeters>382</AltitudeMeters>
            <DistanceMeters>NAN</DistanceMeters>
          </Trackpoint>
          <Trackpoint>
            <Time>2019-10-10T09:58:15.000Z</Time>
            <Position>
              <LatitudeDegrees>37.98029967583715915679931640625</LatitudeDegrees>
              <LongitudeDegrees>-6.2303884886205196380615234375</LongitudeDegrees>
            </Position>
            <AltitudeMeters>381.399993896484375</AltitudeMeters>
            <DistanceMeters>NAN</DistanceMeters>
          </Trackpoint>
          <Trackpoint>
            <Time>2019-10-10T09:58:16.000Z</Time>
            <Position>
              <LatitudeDegrees>37.98022574745118618011474609375</LatitudeDegrees>
              <LongitudeDegrees>-6.23037214390933513641357421875</LongitudeDegrees>
            </Position>
            <AltitudeMeters>381</AltitudeMeters>
            <DistanceMeters>NAN</DistanceMeters>
          </Trackpoint>
          <Trackpoint>
            <Time>2019-10-10T09:58:23.000Z</Time>
            <Position>
              <LatitudeDegrees>37.979703135788440704345703125</LatitudeDegrees>
              <LongitudeDegrees>-6.2302552163600921630859375</LongitudeDegrees>
            </Position>
            <AltitudeMeters>380.399993896484375</AltitudeMeters>
            <DistanceMeters>NAN</DistanceMeters>
          </Trackpoint>
          <Trackpoint>
            <Time>2019-10-10T09:58:26.000Z</Time>
            <Position>
              <LatitudeDegrees>37.9794769920408725738525390625</LatitudeDegrees>
              <LongitudeDegrees>-6.2302064336836338043212890625</LongitudeDegrees>
            </Position>
            <AltitudeMeters>379.79998779296875</AltitudeMeters>
            <DistanceMeters>NAN</DistanceMeters>
          </Trackpoint>
          <Trackpoint>
            <Time>2019-10-10T09:58:32.000Z</Time>
            <Position>
              <LatitudeDegrees>37.97903937287628650665283203125</LatitudeDegrees>
              <LongitudeDegrees>-6.23009537346661090850830078125</LongitudeDegrees>
            </Position>
            <AltitudeMeters>378.79998779296875</AltitudeMeters>
            <DistanceMeters>NAN</DistanceMeters>
          </Trackpoint>
          <Trackpoint>
            <Time>2019-10-10T09:58:34.000Z</Time>
            <Position>
              <LatitudeDegrees>37.97889755107462406158447265625</LatitudeDegrees>
              <LongitudeDegrees>-6.2300562299787998199462890625</LongitudeDegrees>
            </Position>
            <AltitudeMeters>378.600006103515625</AltitudeMeters>
            <DistanceMeters>NAN</DistanceMeters>
          </Trackpoint>
          <Trackpoint>
            <Time>2019-10-10T09:58:42.000Z</Time>
            <Position>
              <LatitudeDegrees>37.97832607291638851165771484375</LatitudeDegrees>
              <LongitudeDegrees>-6.2298842333257198333740234375</LongitudeDegrees>
            </Position>
            <AltitudeMeters>378</AltitudeMeters>
            <DistanceMeters>NAN</DistanceMeters>
          </Trackpoint>
          <Trackpoint>
            <Time>2019-10-10T09:58:43.000Z</Time>
            <Position>
              <LatitudeDegrees>37.97825365327298641204833984375</LatitudeDegrees>
              <LongitudeDegrees>-6.229862608015537261962890625</LongitudeDegrees>
            </Position>
            <AltitudeMeters>378.20001220703125</AltitudeMeters>
            <DistanceMeters>NAN</DistanceMeters>
          </Trackpoint>
          <Trackpoint>
            <Time>2019-10-10T09:58:45.000Z</Time>
            <Position>
              <LatitudeDegrees>37.978107221424579620361328125</LatitudeDegrees>
              <LongitudeDegrees>-6.2298148311674594879150390625</LongitudeDegrees>
            </Position>
            <AltitudeMeters>377.600006103515625</AltitudeMeters>
            <DistanceMeters>NAN</DistanceMeters>
          </Trackpoint>
          <Trackpoint>
            <Time>2019-10-10T09:58:52.000Z</Time>
            <Position>
              <LatitudeDegrees>37.9775675944983959197998046875</LatitudeDegrees>
              <LongitudeDegrees>-6.22970008291304111480712890625</LongitudeDegrees>
            </Position>
            <AltitudeMeters>376.600006103515625</AltitudeMeters>
            <DistanceMeters>NAN</DistanceMeters>
          </Trackpoint>
          <Trackpoint>
            <Time>2019-10-10T09:58:57.000Z</Time>
            <Position>
              <LatitudeDegrees>37.97716987319290637969970703125</LatitudeDegrees>
              <LongitudeDegrees>-6.2297187745571136474609375</LongitudeDegrees>
            </Position>
            <AltitudeMeters>375.79998779296875</AltitudeMeters>
            <DistanceMeters>NAN</DistanceMeters>
          </Trackpoint>
          <Trackpoint>
            <Time>2019-10-10T09:58:58.000Z</Time>
            <Position>
              <LatitudeDegrees>37.97709234058856964111328125</LatitudeDegrees>
              <LongitudeDegrees>-6.22973293997347354888916015625</LongitudeDegrees>
            </Position>
            <AltitudeMeters>375.600006103515625</AltitudeMeters>
            <DistanceMeters>NAN</DistanceMeters>
          </Trackpoint>
          <Trackpoint>
            <Time>2019-10-10T09:58:59.000Z</Time>
            <Position>
              <LatitudeDegrees>37.9770152270793914794921875</LatitudeDegrees>
              <LongitudeDegrees>-6.2297523021697998046875</LongitudeDegrees>
            </Position>
            <AltitudeMeters>375.399993896484375</AltitudeMeters>
            <DistanceMeters>NAN</DistanceMeters>
          </Trackpoint>
          <Trackpoint>
            <Time>2019-10-10T09:59:04.000Z</Time>
            <Position>
              <LatitudeDegrees>37.9766640253365039825439453125</LatitudeDegrees>
              <LongitudeDegrees>-6.22988448478281497955322265625</LongitudeDegrees>
            </Position>
            <AltitudeMeters>376.399993896484375</AltitudeMeters>
            <DistanceMeters>NAN</DistanceMeters>
          </Trackpoint>
          <Trackpoint>
            <Time>2019-10-10T09:59:05.000Z</Time>
            <Position>
              <LatitudeDegrees>37.97659889794886112213134765625</LatitudeDegrees>
              <LongitudeDegrees>-6.22991583310067653656005859375</LongitudeDegrees>
            </Position>
            <AltitudeMeters>376.600006103515625</AltitudeMeters>
            <DistanceMeters>NAN</DistanceMeters>
          </Trackpoint>
          <Trackpoint>
            <Time>2019-10-10T09:59:10.000Z</Time>
            <Position>
              <LatitudeDegrees>37.97629664652049541473388671875</LatitudeDegrees>
              <LongitudeDegrees>-6.2301192618906497955322265625</LongitudeDegrees>
            </Position>
            <AltitudeMeters>376.600006103515625</AltitudeMeters>
            <DistanceMeters>NAN</DistanceMeters>
          </Trackpoint>
          <Trackpoint>
            <Time>2019-10-10T09:59:16.000Z</Time>
            <Position>
              <LatitudeDegrees>37.975968830287456512451171875</LatitudeDegrees>
              <LongitudeDegrees>-6.23044271953403949737548828125</LongitudeDegrees>
            </Position>
            <AltitudeMeters>375.79998779296875</AltitudeMeters>
            <DistanceMeters>NAN</DistanceMeters>
          </Trackpoint>
          <Trackpoint>
            <Time>2019-10-10T09:59:20.000Z</Time>
            <Position>
              <LatitudeDegrees>37.975789792835712432861328125</LatitudeDegrees>
              <LongitudeDegrees>-6.23069233261048793792724609375</LongitudeDegrees>
            </Position>
            <AltitudeMeters>377.20001220703125</AltitudeMeters>
            <DistanceMeters>NAN</DistanceMeters>
          </Trackpoint>
          <Trackpoint>
            <Time>2019-10-10T09:59:23.000Z</Time>
            <Position>
              <LatitudeDegrees>37.97568476758897304534912109375</LatitudeDegrees>
              <LongitudeDegrees>-6.23087053187191486358642578125</LongitudeDegrees>
            </Position>
            <AltitudeMeters>377.399993896484375</AltitudeMeters>
            <DistanceMeters>NAN</DistanceMeters>
          </Trackpoint>
          <Trackpoint>
            <Time>2019-10-10T09:59:24.000Z</Time>
            <Position>
              <LatitudeDegrees>37.97565308399498462677001953125</LatitudeDegrees>
              <LongitudeDegrees>-6.23092350549995899200439453125</LongitudeDegrees>
            </Position>
            <AltitudeMeters>377.600006103515625</AltitudeMeters>
            <DistanceMeters>NAN</DistanceMeters>
          </Trackpoint>
          <Trackpoint>
            <Time>2019-10-10T09:59:27.000Z</Time>
            <Position>
              <LatitudeDegrees>37.9755748808383941650390625</LatitudeDegrees>
              <LongitudeDegrees>-6.23107136227190494537353515625</LongitudeDegrees>
            </Position>
            <AltitudeMeters>378.399993896484375</AltitudeMeters>
            <DistanceMeters>NAN</DistanceMeters>
          </Trackpoint>
          <Trackpoint>
            <Time>2019-10-10T09:59:28.000Z</Time>
            <Position>
              <LatitudeDegrees>37.97555451281368732452392578125</LatitudeDegrees>
              <LongitudeDegrees>-6.23112081550061702728271484375</LongitudeDegrees>
            </Position>
            <AltitudeMeters>378.600006103515625</AltitudeMeters>
            <DistanceMeters>NAN</DistanceMeters>
          </Trackpoint>
          <Trackpoint>
            <Time>2019-10-10T09:59:29.000Z</Time>
            <Position>
              <LatitudeDegrees>37.975530959665775299072265625</LatitudeDegrees>
              <LongitudeDegrees>-6.23116054572165012359619140625</LongitudeDegrees>
            </Position>
            <AltitudeMeters>378.600006103515625</AltitudeMeters>
            <DistanceMeters>NAN</DistanceMeters>
          </Trackpoint>
          <Trackpoint>
            <Time>2019-10-10T09:59:30.000Z</Time>
            <Position>
              <LatitudeDegrees>37.97550824470818042755126953125</LatitudeDegrees>
              <LongitudeDegrees>-6.231203712522983551025390625</LongitudeDegrees>
            </Position>
            <AltitudeMeters>378.79998779296875</AltitudeMeters>
            <DistanceMeters>NAN</DistanceMeters>
          </Trackpoint>
          <Trackpoint>
            <Time>2019-10-10T09:59:31.000Z</Time>
            <Position>
              <LatitudeDegrees>37.97549013979732990264892578125</LatitudeDegrees>
              <LongitudeDegrees>-6.23124956153333187103271484375</LongitudeDegrees>
            </Position>
            <AltitudeMeters>379.399993896484375</AltitudeMeters>
            <DistanceMeters>NAN</DistanceMeters>
          </Trackpoint>
          <Trackpoint>
            <Time>2019-10-10T09:59:32.000Z</Time>
            <Position>
              <LatitudeDegrees>37.9754731245338916778564453125</LatitudeDegrees>
              <LongitudeDegrees>-6.231293566524982452392578125</LongitudeDegrees>
            </Position>
            <AltitudeMeters>380.20001220703125</AltitudeMeters>
            <DistanceMeters>NAN</DistanceMeters>
          </Trackpoint>
          <Trackpoint>
            <Time>2019-10-10T09:59:34.000Z</Time>
            <Position>
              <LatitudeDegrees>37.9754322208464145660400390625</LatitudeDegrees>
              <LongitudeDegrees>-6.2313755415380001068115234375</LongitudeDegrees>
            </Position>
            <AltitudeMeters>380.20001220703125</AltitudeMeters>
            <DistanceMeters>NAN</DistanceMeters>
          </Trackpoint>
          <Trackpoint>
            <Time>2019-10-10T09:59:38.000Z</Time>
            <Position>
              <LatitudeDegrees>37.97535695135593414306640625</LatitudeDegrees>
              <LongitudeDegrees>-6.23152918182313442230224609375</LongitudeDegrees>
            </Position>
            <AltitudeMeters>381.20001220703125</AltitudeMeters>
            <DistanceMeters>NAN</DistanceMeters>
          </Trackpoint>
          <Trackpoint>
            <Time>2019-10-10T09:59:44.000Z</Time>
            <Position>
              <LatitudeDegrees>37.975249327719211578369140625</LatitudeDegrees>
              <LongitudeDegrees>-6.23175297863781452178955078125</LongitudeDegrees>
            </Position>
            <AltitudeMeters>382</AltitudeMeters>
            <DistanceMeters>NAN</DistanceMeters>
          </Trackpoint>
          <Trackpoint>
            <Time>2019-10-10T09:59:46.000Z</Time>
            <Position>
              <LatitudeDegrees>37.975210435688495635986328125</LatitudeDegrees>
              <LongitudeDegrees>-6.23182305134832859039306640625</LongitudeDegrees>
            </Position>
            <AltitudeMeters>382.20001220703125</AltitudeMeters>
            <DistanceMeters>NAN</DistanceMeters>
          </Trackpoint>
          <Trackpoint>
            <Time>2019-10-10T09:59:52.000Z</Time>
            <Position>
              <LatitudeDegrees>37.97509635798633098602294921875</LatitudeDegrees>
              <LongitudeDegrees>-6.23205305077135562896728515625</LongitudeDegrees>
            </Position>
            <AltitudeMeters>383</AltitudeMeters>
            <DistanceMeters>NAN</DistanceMeters>
          </Trackpoint>
          <Trackpoint>
            <Time>2019-10-10T09:59:55.000Z</Time>
            <Position>
              <LatitudeDegrees>37.97503852285444736480712890625</LatitudeDegrees>
              <LongitudeDegrees>-6.23216872103512287139892578125</LongitudeDegrees>
            </Position>
            <AltitudeMeters>383.399993896484375</AltitudeMeters>
            <DistanceMeters>NAN</DistanceMeters>
          </Trackpoint>
          <Trackpoint>
            <Time>2019-10-10T09:59:59.000Z</Time>
            <Position>
              <LatitudeDegrees>37.97495855949819087982177734375</LatitudeDegrees>
              <LongitudeDegrees>-6.23232110403478145599365234375</LongitudeDegrees>
            </Position>
            <AltitudeMeters>383.600006103515625</AltitudeMeters>
            <DistanceMeters>NAN</DistanceMeters>
          </Trackpoint>
          <Trackpoint>
            <Time>2019-10-10T10:00:03.000Z</Time>
            <Position>
              <LatitudeDegrees>37.9748736508190631866455078125</LatitudeDegrees>
              <LongitudeDegrees>-6.23247633688151836395263671875</LongitudeDegrees>
            </Position>
            <AltitudeMeters>384</AltitudeMeters>
            <DistanceMeters>NAN</DistanceMeters>
          </Trackpoint>
          <Trackpoint>
            <Time>2019-10-10T10:00:06.000Z</Time>
            <Position>
              <LatitudeDegrees>37.9748230241239070892333984375</LatitudeDegrees>
              <LongitudeDegrees>-6.2325905822217464447021484375</LongitudeDegrees>
            </Position>
            <AltitudeMeters>384.600006103515625</AltitudeMeters>
            <DistanceMeters>NAN</DistanceMeters>
          </Trackpoint>
          <Trackpoint>
            <Time>2019-10-10T10:00:11.000Z</Time>
            <Position>
              <LatitudeDegrees>37.9747375287115573883056640625</LatitudeDegrees>
              <LongitudeDegrees>-6.23276400379836559295654296875</LongitudeDegrees>
            </Position>
            <AltitudeMeters>385.600006103515625</AltitudeMeters>
            <DistanceMeters>NAN</DistanceMeters>
          </Trackpoint>
          <Trackpoint>
            <Time>2019-10-10T10:00:13.000Z</Time>
            <Position>
              <LatitudeDegrees>37.9747046716511249542236328125</LatitudeDegrees>
              <LongitudeDegrees>-6.23283776454627513885498046875</LongitudeDegrees>
            </Position>
            <AltitudeMeters>385.600006103515625</AltitudeMeters>
            <DistanceMeters>NAN</DistanceMeters>
          </Trackpoint>
          <Trackpoint>
            <Time>2019-10-10T10:00:20.000Z</Time>
            <Position>
              <LatitudeDegrees>37.97458221204578876495361328125</LatitudeDegrees>
              <LongitudeDegrees>-6.23307891190052032470703125</LongitudeDegrees>
            </Position>
            <AltitudeMeters>386.600006103515625</AltitudeMeters>
            <DistanceMeters>NAN</DistanceMeters>
          </Trackpoint>
          <Trackpoint>
            <Time>2019-10-10T10:00:28.000Z</Time>
            <Position>
              <LatitudeDegrees>37.9744227044284343719482421875</LatitudeDegrees>
              <LongitudeDegrees>-6.23335576616227626800537109375</LongitudeDegrees>
            </Position>
            <AltitudeMeters>387.600006103515625</AltitudeMeters>
            <DistanceMeters>NAN</DistanceMeters>
          </Trackpoint>
          <Trackpoint>
            <Time>2019-10-10T10:00:30.000Z</Time>
            <Position>
              <LatitudeDegrees>37.9743841476738452911376953125</LatitudeDegrees>
              <LongitudeDegrees>-6.23342416249215602874755859375</LongitudeDegrees>
            </Position>
            <AltitudeMeters>388</AltitudeMeters>
            <DistanceMeters>NAN</DistanceMeters>
          </Trackpoint>
          <Trackpoint>
            <Time>2019-10-10T10:00:34.000Z</Time>
            <Position>
              <LatitudeDegrees>37.97429722733795642852783203125</LatitudeDegrees>
              <LongitudeDegrees>-6.23355609364807605743408203125</LongitudeDegrees>
            </Position>
            <AltitudeMeters>388.399993896484375</AltitudeMeters>
            <DistanceMeters>NAN</DistanceMeters>
          </Trackpoint>
          <Trackpoint>
            <Time>2019-10-10T10:00:36.000Z</Time>
            <Position>
              <LatitudeDegrees>37.97425196506083011627197265625</LatitudeDegrees>
              <LongitudeDegrees>-6.233622729778289794921875</LongitudeDegrees>
            </Position>
            <AltitudeMeters>388.79998779296875</AltitudeMeters>
            <DistanceMeters>NAN</DistanceMeters>
          </Trackpoint>
          <Trackpoint>
            <Time>2019-10-10T10:00:39.000Z</Time>
            <Position>
              <LatitudeDegrees>37.974178455770015716552734375</LatitudeDegrees>
              <LongitudeDegrees>-6.23371325433254241943359375</LongitudeDegrees>
            </Position>
            <AltitudeMeters>389</AltitudeMeters>
            <DistanceMeters>NAN</DistanceMeters>
          </Trackpoint>
          <Trackpoint>
            <Time>2019-10-10T10:00:43.000Z</Time>
            <Position>
              <LatitudeDegrees>37.9740755259990692138671875</LatitudeDegrees>
              <LongitudeDegrees>-6.2338344566524028778076171875</LongitudeDegrees>
            </Position>
            <AltitudeMeters>390.20001220703125</AltitudeMeters>
            <DistanceMeters>NAN</DistanceMeters>
          </Trackpoint>
          <Trackpoint>
            <Time>2019-10-10T10:00:46.000Z</Time>
            <Position>
              <LatitudeDegrees>37.97399480827152729034423828125</LatitudeDegrees>
              <LongitudeDegrees>-6.23391802422702312469482421875</LongitudeDegrees>
            </Position>
            <AltitudeMeters>390</AltitudeMeters>
            <DistanceMeters>NAN</DistanceMeters>
          </Trackpoint>
          <Trackpoint>
            <Time>2019-10-10T10:00:51.000Z</Time>
            <Position>
              <LatitudeDegrees>37.97386472113430500030517578125</LatitudeDegrees>
              <LongitudeDegrees>-6.23405699618160724639892578125</LongitudeDegrees>
            </Position>
            <AltitudeMeters>391.20001220703125</AltitudeMeters>
            <DistanceMeters>NAN</DistanceMeters>
          </Trackpoint>
          <Trackpoint>
            <Time>2019-10-10T10:00:56.000Z</Time>
            <Position>
              <LatitudeDegrees>37.97371971420943737030029296875</LatitudeDegrees>
              <LongitudeDegrees>-6.2341801263391971588134765625</LongitudeDegrees>
            </Position>
            <AltitudeMeters>391.20001220703125</AltitudeMeters>
            <DistanceMeters>NAN</DistanceMeters>
          </Trackpoint>
          <Trackpoint>
            <Time>2019-10-10T10:01:03.000Z</Time>
            <Position>
              <LatitudeDegrees>37.9735122621059417724609375</LatitudeDegrees>
              <LongitudeDegrees>-6.2343293242156505584716796875</LongitudeDegrees>
            </Position>
            <AltitudeMeters>392.20001220703125</AltitudeMeters>
            <DistanceMeters>NAN</DistanceMeters>
          </Trackpoint>
          <Trackpoint>
            <Time>2019-10-10T10:01:06.000Z</Time>
            <Position>
              <LatitudeDegrees>37.973420061171054840087890625</LatitudeDegrees>
              <LongitudeDegrees>-6.2343883328139781951904296875</LongitudeDegrees>
            </Position>
            <AltitudeMeters>392.20001220703125</AltitudeMeters>
            <DistanceMeters>NAN</DistanceMeters>
          </Trackpoint>
          <Trackpoint>
            <Time>2019-10-10T10:01:11.000Z</Time>
            <Position>
              <LatitudeDegrees>37.97325669787824153900146484375</LatitudeDegrees>
              <LongitudeDegrees>-6.2344728223979473114013671875</LongitudeDegrees>
            </Position>
            <AltitudeMeters>393.399993896484375</AltitudeMeters>
            <DistanceMeters>NAN</DistanceMeters>
          </Trackpoint>
          <Trackpoint>
            <Time>2019-10-10T10:01:13.000Z</Time>
            <Position>
              <LatitudeDegrees>37.973190732300281524658203125</LatitudeDegrees>
              <LongitudeDegrees>-6.23450190760195255279541015625</LongitudeDegrees>
            </Position>
            <AltitudeMeters>393.20001220703125</AltitudeMeters>
            <DistanceMeters>NAN</DistanceMeters>
          </Trackpoint>
          <Trackpoint>
            <Time>2019-10-10T10:01:20.000Z</Time>
            <Position>
              <LatitudeDegrees>37.97295679338276386260986328125</LatitudeDegrees>
              <LongitudeDegrees>-6.2345881573855876922607421875</LongitudeDegrees>
            </Position>
            <AltitudeMeters>394.399993896484375</AltitudeMeters>
            <DistanceMeters>NAN</DistanceMeters>
          </Trackpoint>
          <Trackpoint>
            <Time>2019-10-10T10:01:23.000Z</Time>
            <Position>
              <LatitudeDegrees>37.9728529416024684906005859375</LatitudeDegrees>
              <LongitudeDegrees>-6.23461221344769001007080078125</LongitudeDegrees>
            </Position>
            <AltitudeMeters>394.600006103515625</AltitudeMeters>
            <DistanceMeters>NAN</DistanceMeters>
          </Trackpoint>
          <Trackpoint>
            <Time>2019-10-10T10:01:29.000Z</Time>
            <Position>
              <LatitudeDegrees>37.97264331020414829254150390625</LatitudeDegrees>
              <LongitudeDegrees>-6.23465864919126033782958984375</LongitudeDegrees>
            </Position>
            <AltitudeMeters>395.600006103515625</AltitudeMeters>
            <DistanceMeters>NAN</DistanceMeters>
          </Trackpoint>
          <Trackpoint>
            <Time>2019-10-10T10:01:33.000Z</Time>
            <Position>
              <LatitudeDegrees>37.97250350005924701690673828125</LatitudeDegrees>
              <LongitudeDegrees>-6.23468580655753612518310546875</LongitudeDegrees>
            </Position>
            <AltitudeMeters>396.600006103515625</AltitudeMeters>
            <DistanceMeters>NAN</DistanceMeters>
          </Trackpoint>
          <Trackpoint>
            <Time>2019-10-10T10:01:34.000Z</Time>
            <Position>
              <LatitudeDegrees>37.97246812842786312103271484375</LatitudeDegrees>
              <LongitudeDegrees>-6.2346894107758998870849609375</LongitudeDegrees>
            </Position>
            <AltitudeMeters>396.79998779296875</AltitudeMeters>
            <DistanceMeters>NAN</DistanceMeters>
          </Trackpoint>
          <Trackpoint>
            <Time>2019-10-10T10:01:43.000Z</Time>
            <Position>
              <LatitudeDegrees>37.9721468500792980194091796875</LatitudeDegrees>
              <LongitudeDegrees>-6.23472872190177440643310546875</LongitudeDegrees>
            </Position>
            <AltitudeMeters>397.79998779296875</AltitudeMeters>
            <DistanceMeters>NAN</DistanceMeters>
          </Trackpoint>
          <Trackpoint>
            <Time>2019-10-10T10:01:44.000Z</Time>
            <Position>
              <LatitudeDegrees>37.97211147844791412353515625</LatitudeDegrees>
              <LongitudeDegrees>-6.23473073355853557586669921875</LongitudeDegrees>
            </Position>
            <AltitudeMeters>397.79998779296875</AltitudeMeters>
            <DistanceMeters>NAN</DistanceMeters>
          </Trackpoint>
          <Trackpoint>
            <Time>2019-10-10T10:01:55.000Z</Time>
            <Position>
              <LatitudeDegrees>37.97172934748232364654541015625</LatitudeDegrees>
              <LongitudeDegrees>-6.234770715236663818359375</LongitudeDegrees>
            </Position>
            <AltitudeMeters>399</AltitudeMeters>
            <DistanceMeters>NAN</DistanceMeters>
          </Trackpoint>
          <Trackpoint>
            <Time>2019-10-10T10:02:01.000Z</Time>
            <Position>
              <LatitudeDegrees>37.9715215601027011871337890625</LatitudeDegrees>
              <LongitudeDegrees>-6.23478789813816547393798828125</LongitudeDegrees>
            </Position>
            <AltitudeMeters>400</AltitudeMeters>
            <DistanceMeters>NAN</DistanceMeters>
          </Trackpoint>
          <Trackpoint>
            <Time>2019-10-10T10:02:06.000Z</Time>
            <Position>
              <LatitudeDegrees>37.9713472165167331695556640625</LatitudeDegrees>
              <LongitudeDegrees>-6.2348050810396671295166015625</LongitudeDegrees>
            </Position>
            <AltitudeMeters>400.399993896484375</AltitudeMeters>
            <DistanceMeters>NAN</DistanceMeters>
          </Trackpoint>
          <Trackpoint>
            <Time>2019-10-10T10:02:11.000Z</Time>
            <Position>
              <LatitudeDegrees>37.97117295674979686737060546875</LatitudeDegrees>
              <LongitudeDegrees>-6.23482762835919857025146484375</LongitudeDegrees>
            </Position>
            <AltitudeMeters>401.20001220703125</AltitudeMeters>
            <DistanceMeters>NAN</DistanceMeters>
          </Trackpoint>
          <Trackpoint>
            <Time>2019-10-10T10:02:15.000Z</Time>
            <Position>
              <LatitudeDegrees>37.9710297100245952606201171875</LatitudeDegrees>
              <LongitudeDegrees>-6.23484120704233646392822265625</LongitudeDegrees>
            </Position>
            <AltitudeMeters>401.79998779296875</AltitudeMeters>
            <DistanceMeters>NAN</DistanceMeters>
          </Trackpoint>
          <Trackpoint>
            <Time>2019-10-10T10:02:17.000Z</Time>
            <Position>
              <LatitudeDegrees>37.970959134399890899658203125</LatitudeDegrees>
              <LongitudeDegrees>-6.23485009185969829559326171875</LongitudeDegrees>
            </Position>
            <AltitudeMeters>402.399993896484375</AltitudeMeters>
            <DistanceMeters>NAN</DistanceMeters>
          </Trackpoint>
          <Trackpoint>
            <Time>2019-10-10T10:02:24.000Z</Time>
            <Position>
              <LatitudeDegrees>37.9707093536853790283203125</LatitudeDegrees>
              <LongitudeDegrees>-6.23487808741629123687744140625</LongitudeDegrees>
            </Position>
            <AltitudeMeters>403.600006103515625</AltitudeMeters>
            <DistanceMeters>NAN</DistanceMeters>
          </Trackpoint>
          <Trackpoint>
            <Time>2019-10-10T10:02:26.000Z</Time>
            <Position>
              <LatitudeDegrees>37.97063668258488178253173828125</LatitudeDegrees>
              <LongitudeDegrees>-6.2348855473101139068603515625</LongitudeDegrees>
            </Position>
            <AltitudeMeters>403.600006103515625</AltitudeMeters>
            <DistanceMeters>NAN</DistanceMeters>
          </Trackpoint>
          <Trackpoint>
            <Time>2019-10-10T10:02:38.000Z</Time>
            <Position>
              <LatitudeDegrees>37.97019302845001220703125</LatitudeDegrees>
              <LongitudeDegrees>-6.234935335814952850341796875</LongitudeDegrees>
            </Position>
            <AltitudeMeters>404.79998779296875</AltitudeMeters>
            <DistanceMeters>NAN</DistanceMeters>
          </Trackpoint>
          <Trackpoint>
            <Time>2019-10-10T10:02:39.000Z</Time>
            <Position>
              <LatitudeDegrees>37.97015388496220111846923828125</LatitudeDegrees>
              <LongitudeDegrees>-6.2349395267665386199951171875</LongitudeDegrees>
            </Position>
            <AltitudeMeters>404.600006103515625</AltitudeMeters>
            <DistanceMeters>NAN</DistanceMeters>
          </Trackpoint>
          <Trackpoint>
            <Time>2019-10-10T10:02:47.000Z</Time>
            <Position>
              <LatitudeDegrees>37.969848699867725372314453125</LatitudeDegrees>
              <LongitudeDegrees>-6.2349670194089412689208984375</LongitudeDegrees>
            </Position>
            <AltitudeMeters>405.79998779296875</AltitudeMeters>
            <DistanceMeters>NAN</DistanceMeters>
          </Trackpoint>
          <Trackpoint>
            <Time>2019-10-10T10:02:55.000Z</Time>
            <Position>
              <LatitudeDegrees>37.96954770572483539581298828125</LatitudeDegrees>
              <LongitudeDegrees>-6.23499660752713680267333984375</LongitudeDegrees>
            </Position>
            <AltitudeMeters>406.20001220703125</AltitudeMeters>
            <DistanceMeters>NAN</DistanceMeters>
          </Trackpoint>
          <Trackpoint>
            <Time>2019-10-10T10:02:57.000Z</Time>
            <Position>
              <LatitudeDegrees>37.96947092749178409576416015625</LatitudeDegrees>
              <LongitudeDegrees>-6.23499878682196140289306640625</LongitudeDegrees>
            </Position>
            <AltitudeMeters>406.79998779296875</AltitudeMeters>
            <DistanceMeters>NAN</DistanceMeters>
          </Trackpoint>
          <Trackpoint>
            <Time>2019-10-10T10:03:01.000Z</Time>
            <Position>
              <LatitudeDegrees>37.96932122670114040374755859375</LatitudeDegrees>
              <LongitudeDegrees>-6.2350042350590229034423828125</LongitudeDegrees>
            </Position>
            <AltitudeMeters>407.399993896484375</AltitudeMeters>
            <DistanceMeters>NAN</DistanceMeters>
          </Trackpoint>
          <Trackpoint>
            <Time>2019-10-10T10:03:04.000Z</Time>
            <Position>
              <LatitudeDegrees>37.969206310808658599853515625</LatitudeDegrees>
              <LongitudeDegrees>-6.23500716872513294219970703125</LongitudeDegrees>
            </Position>
            <AltitudeMeters>408</AltitudeMeters>
            <DistanceMeters>NAN</DistanceMeters>
          </Trackpoint>
          <Trackpoint>
            <Time>2019-10-10T10:03:06.000Z</Time>
            <Position>
              <LatitudeDegrees>37.96913162805140018463134765625</LatitudeDegrees>
              <LongitudeDegrees>-6.23500415123999118804931640625</LongitudeDegrees>
            </Position>
            <AltitudeMeters>408.20001220703125</AltitudeMeters>
            <DistanceMeters>NAN</DistanceMeters>
          </Trackpoint>
          <Trackpoint>
            <Time>2019-10-10T10:03:14.000Z</Time>
            <Position>
              <LatitudeDegrees>37.96881772577762603759765625</LatitudeDegrees>
              <LongitudeDegrees>-6.2349703721702098846435546875</LongitudeDegrees>
            </Position>
            <AltitudeMeters>408.399993896484375</AltitudeMeters>
            <DistanceMeters>NAN</DistanceMeters>
          </Trackpoint>
          <Trackpoint>
            <Time>2019-10-10T10:03:21.000Z</Time>
            <Position>
              <LatitudeDegrees>37.968510277569293975830078125</LatitudeDegrees>
              <LongitudeDegrees>-6.23485662974417209625244140625</LongitudeDegrees>
            </Position>
            <AltitudeMeters>408.20001220703125</AltitudeMeters>
            <DistanceMeters>NAN</DistanceMeters>
          </Trackpoint>
          <Trackpoint>
            <Time>2019-10-10T10:03:28.000Z</Time>
            <Position>
              <LatitudeDegrees>37.9681674577295780181884765625</LatitudeDegrees>
              <LongitudeDegrees>-6.23467809520661830902099609375</LongitudeDegrees>
            </Position>
            <AltitudeMeters>407</AltitudeMeters>
            <DistanceMeters>NAN</DistanceMeters>
          </Trackpoint>
          <Trackpoint>
            <Time>2019-10-10T10:03:29.000Z</Time>
            <Position>
              <LatitudeDegrees>37.96811691485345363616943359375</LatitudeDegrees>
              <LongitudeDegrees>-6.234645657241344451904296875</LongitudeDegrees>
            </Position>
            <AltitudeMeters>406.79998779296875</AltitudeMeters>
            <DistanceMeters>NAN</DistanceMeters>
          </Trackpoint>
          <Trackpoint>
            <Time>2019-10-10T10:03:33.000Z</Time>
            <Position>
              <LatitudeDegrees>37.96791382133960723876953125</LatitudeDegrees>
              <LongitudeDegrees>-6.2345130555331707000732421875</LongitudeDegrees>
            </Position>
            <AltitudeMeters>406.399993896484375</AltitudeMeters>
            <DistanceMeters>NAN</DistanceMeters>
          </Trackpoint>
          <Trackpoint>
            <Time>2019-10-10T10:03:36.000Z</Time>
            <Position>
              <LatitudeDegrees>37.96776001341640949249267578125</LatitudeDegrees>
              <LongitudeDegrees>-6.23441507108509540557861328125</LongitudeDegrees>
            </Position>
            <AltitudeMeters>406.20001220703125</AltitudeMeters>
            <DistanceMeters>NAN</DistanceMeters>
          </Trackpoint>
          <Trackpoint>
            <Time>2019-10-10T10:03:41.000Z</Time>
            <Position>
              <LatitudeDegrees>37.9674918763339519500732421875</LatitudeDegrees>
              <LongitudeDegrees>-6.23424433171749114990234375</LongitudeDegrees>
            </Position>
            <AltitudeMeters>405.79998779296875</AltitudeMeters>
            <DistanceMeters>NAN</DistanceMeters>
          </Trackpoint>
          <Trackpoint>
            <Time>2019-10-10T10:03:45.000Z</Time>
            <Position>
              <LatitudeDegrees>37.967269085347652435302734375</LatitudeDegrees>
              <LongitudeDegrees>-6.234102509915828704833984375</LongitudeDegrees>
            </Position>
            <AltitudeMeters>405.20001220703125</AltitudeMeters>
            <DistanceMeters>NAN</DistanceMeters>
          </Trackpoint>
          <Trackpoint>
            <Time>2019-10-10T10:03:46.000Z</Time>
            <Position>
              <LatitudeDegrees>37.9672105796635150909423828125</LatitudeDegrees>
              <LongitudeDegrees>-6.2340698204934597015380859375</LongitudeDegrees>
            </Position>
            <AltitudeMeters>404.79998779296875</AltitudeMeters>
            <DistanceMeters>NAN</DistanceMeters>
          </Trackpoint>
          <Trackpoint>
            <Time>2019-10-10T10:03:49.000Z</Time>
            <Position>
              <LatitudeDegrees>37.967041432857513427734375</LatitudeDegrees>
              <LongitudeDegrees>-6.23396345414221286773681640625</LongitudeDegrees>
            </Position>
            <AltitudeMeters>404.600006103515625</AltitudeMeters>
            <DistanceMeters>NAN</DistanceMeters>
          </Trackpoint>
          <Trackpoint>
            <Time>2019-10-10T10:03:51.000Z</Time>
            <Position>
              <LatitudeDegrees>37.9669299535453319549560546875</LatitudeDegrees>
              <LongitudeDegrees>-6.233893968164920806884765625</LongitudeDegrees>
            </Position>
            <AltitudeMeters>404</AltitudeMeters>
            <DistanceMeters>NAN</DistanceMeters>
          </Trackpoint>
          <Trackpoint>
            <Time>2019-10-10T10:03:54.000Z</Time>
            <Position>
              <LatitudeDegrees>37.96676206402480602264404296875</LatitudeDegrees>
              <LongitudeDegrees>-6.2337861768901348114013671875</LongitudeDegrees>
            </Position>
            <AltitudeMeters>404.600006103515625</AltitudeMeters>
            <DistanceMeters>NAN</DistanceMeters>
          </Trackpoint>
          <Trackpoint>
            <Time>2019-10-10T10:04:03.000Z</Time>
            <Position>
              <LatitudeDegrees>37.9662446491420269012451171875</LatitudeDegrees>
              <LongitudeDegrees>-6.23346338979899883270263671875</LongitudeDegrees>
            </Position>
            <AltitudeMeters>403.399993896484375</AltitudeMeters>
            <DistanceMeters>NAN</DistanceMeters>
          </Trackpoint>
          <Trackpoint>
            <Time>2019-10-10T10:04:09.000Z</Time>
            <Position>
              <LatitudeDegrees>37.9659160785377025604248046875</LatitudeDegrees>
              <LongitudeDegrees>-6.23325350694358348846435546875</LongitudeDegrees>
            </Position>
            <AltitudeMeters>403.20001220703125</AltitudeMeters>
            <DistanceMeters>NAN</DistanceMeters>
          </Trackpoint>
          <Trackpoint>
            <Time>2019-10-10T10:04:14.000Z</Time>
            <Position>
              <LatitudeDegrees>37.9656331054866313934326171875</LatitudeDegrees>
              <LongitudeDegrees>-6.233070529997348785400390625</LongitudeDegrees>
            </Position>
            <AltitudeMeters>402.20001220703125</AltitudeMeters>
            <DistanceMeters>NAN</DistanceMeters>
          </Trackpoint>
          <Trackpoint>
            <Time>2019-10-10T10:04:19.000Z</Time>
            <Position>
              <LatitudeDegrees>37.96533848159015178680419921875</LatitudeDegrees>
              <LongitudeDegrees>-6.232885457575321197509765625</LongitudeDegrees>
            </Position>
            <AltitudeMeters>401</AltitudeMeters>
            <DistanceMeters>NAN</DistanceMeters>
          </Trackpoint>
          <Trackpoint>
            <Time>2019-10-10T10:04:24.000Z</Time>
            <Position>
              <LatitudeDegrees>37.965035475790500640869140625</LatitudeDegrees>
              <LongitudeDegrees>-6.23268119059503078460693359375</LongitudeDegrees>
            </Position>
            <AltitudeMeters>400</AltitudeMeters>
            <DistanceMeters>NAN</DistanceMeters>
          </Trackpoint>
          <Trackpoint>
            <Time>2019-10-10T10:04:28.000Z</Time>
            <Position>
              <LatitudeDegrees>37.964777983725070953369140625</LatitudeDegrees>
              <LongitudeDegrees>-6.23249561525881290435791015625</LongitudeDegrees>
            </Position>
            <AltitudeMeters>399.399993896484375</AltitudeMeters>
            <DistanceMeters>NAN</DistanceMeters>
          </Trackpoint>
          <Trackpoint>
            <Time>2019-10-10T10:04:29.000Z</Time>
            <Position>
              <LatitudeDegrees>37.96471034176647663116455078125</LatitudeDegrees>
              <LongitudeDegrees>-6.2324430607259273529052734375</LongitudeDegrees>
            </Position>
            <AltitudeMeters>398.600006103515625</AltitudeMeters>
            <DistanceMeters>NAN</DistanceMeters>
          </Trackpoint>
          <Trackpoint>
            <Time>2019-10-10T10:04:31.000Z</Time>
            <Position>
              <LatitudeDegrees>37.96456952579319477081298828125</LatitudeDegrees>
              <LongitudeDegrees>-6.232329569756984710693359375</LongitudeDegrees>
            </Position>
            <AltitudeMeters>397.20001220703125</AltitudeMeters>
            <DistanceMeters>NAN</DistanceMeters>
          </Trackpoint>
          <Trackpoint>
            <Time>2019-10-10T10:04:34.000Z</Time>
            <Position>
              <LatitudeDegrees>37.9643523506820201873779296875</LatitudeDegrees>
              <LongitudeDegrees>-6.23214055784046649932861328125</LongitudeDegrees>
            </Position>
            <AltitudeMeters>395.79998779296875</AltitudeMeters>
            <DistanceMeters>NAN</DistanceMeters>
          </Trackpoint>
          <Trackpoint>
            <Time>2019-10-10T10:04:35.000Z</Time>
            <Position>
              <LatitudeDegrees>37.96428076922893524169921875</LatitudeDegrees>
              <LongitudeDegrees>-6.232068724930286407470703125</LongitudeDegrees>
            </Position>
            <AltitudeMeters>394.600006103515625</AltitudeMeters>
            <DistanceMeters>NAN</DistanceMeters>
          </Trackpoint>
          <Trackpoint>
            <Time>2019-10-10T10:04:36.000Z</Time>
            <Position>
              <LatitudeDegrees>37.964204661548137664794921875</LatitudeDegrees>
              <LongitudeDegrees>-6.23200058005750179290771484375</LongitudeDegrees>
            </Position>
            <AltitudeMeters>393</AltitudeMeters>
            <DistanceMeters>NAN</DistanceMeters>
          </Trackpoint>
          <Trackpoint>
            <Time>2019-10-10T10:04:38.000Z</Time>
            <Position>
              <LatitudeDegrees>37.96406258828938007354736328125</LatitudeDegrees>
              <LongitudeDegrees>-6.23185289092361927032470703125</LongitudeDegrees>
            </Position>
            <AltitudeMeters>391.79998779296875</AltitudeMeters>
            <DistanceMeters>NAN</DistanceMeters>
          </Trackpoint>
          <Trackpoint>
            <Time>2019-10-10T10:04:40.000Z</Time>
            <Position>
              <LatitudeDegrees>37.9639208503067493438720703125</LatitudeDegrees>
              <LongitudeDegrees>-6.2316950596868991851806640625</LongitudeDegrees>
            </Position>
            <AltitudeMeters>390.600006103515625</AltitudeMeters>
            <DistanceMeters>NAN</DistanceMeters>
          </Trackpoint>
          <Trackpoint>
            <Time>2019-10-10T10:04:43.000Z</Time>
            <Position>
              <LatitudeDegrees>37.963715493679046630859375</LatitudeDegrees>
              <LongitudeDegrees>-6.23144016601145267486572265625</LongitudeDegrees>
            </Position>
            <AltitudeMeters>389.399993896484375</AltitudeMeters>
            <DistanceMeters>NAN</DistanceMeters>
          </Trackpoint>
          <Trackpoint>
            <Time>2019-10-10T10:04:45.000Z</Time>
            <Position>
              <LatitudeDegrees>37.96358314342796802520751953125</LatitudeDegrees>
              <LongitudeDegrees>-6.23125073499977588653564453125</LongitudeDegrees>
            </Position>
            <AltitudeMeters>387.79998779296875</AltitudeMeters>
            <DistanceMeters>NAN</DistanceMeters>
          </Trackpoint>
          <Trackpoint>
            <Time>2019-10-10T10:04:47.000Z</Time>
            <Position>
              <LatitudeDegrees>37.96345422975718975067138671875</LatitudeDegrees>
              <LongitudeDegrees>-6.2310516647994518280029296875</LongitudeDegrees>
            </Position>
            <AltitudeMeters>386.79998779296875</AltitudeMeters>
            <DistanceMeters>NAN</DistanceMeters>
          </Trackpoint>
          <Trackpoint>
            <Time>2019-10-10T10:04:49.000Z</Time>
            <Position>
              <LatitudeDegrees>37.96332883648574352264404296875</LatitudeDegrees>
              <LongitudeDegrees>-6.230838932096958160400390625</LongitudeDegrees>
            </Position>
            <AltitudeMeters>385.399993896484375</AltitudeMeters>
            <DistanceMeters>NAN</DistanceMeters>
          </Trackpoint>
          <Trackpoint>
            <Time>2019-10-10T10:04:51.000Z</Time>
            <Position>
              <LatitudeDegrees>37.963204868137836456298828125</LatitudeDegrees>
              <LongitudeDegrees>-6.2306158058345317840576171875</LongitudeDegrees>
            </Position>
            <AltitudeMeters>384</AltitudeMeters>
            <DistanceMeters>NAN</DistanceMeters>
          </Trackpoint>
          <Trackpoint>
            <Time>2019-10-10T10:04:52.000Z</Time>
            <Position>
              <LatitudeDegrees>37.963143177330493927001953125</LatitudeDegrees>
              <LongitudeDegrees>-6.2305019795894622802734375</LongitudeDegrees>
            </Position>
            <AltitudeMeters>383</AltitudeMeters>
            <DistanceMeters>NAN</DistanceMeters>
          </Trackpoint>
          <Trackpoint>
            <Time>2019-10-10T10:04:53.000Z</Time>
            <Position>
              <LatitudeDegrees>37.96308123506605625152587890625</LatitudeDegrees>
              <LongitudeDegrees>-6.2303884886205196380615234375</LongitudeDegrees>
            </Position>
            <AltitudeMeters>382</AltitudeMeters>
            <DistanceMeters>NAN</DistanceMeters>
          </Trackpoint>
          <Trackpoint>
            <Time>2019-10-10T10:04:54.000Z</Time>
            <Position>
              <LatitudeDegrees>37.96302038244903087615966796875</LatitudeDegrees>
              <LongitudeDegrees>-6.23027441091835498809814453125</LongitudeDegrees>
            </Position>
            <AltitudeMeters>381.600006103515625</AltitudeMeters>
            <DistanceMeters>NAN</DistanceMeters>
          </Trackpoint>
          <Trackpoint>
            <Time>2019-10-10T10:04:55.000Z</Time>
            <Position>
              <LatitudeDegrees>37.962963469326496124267578125</LatitudeDegrees>
              <LongitudeDegrees>-6.23016192577779293060302734375</LongitudeDegrees>
            </Position>
            <AltitudeMeters>381</AltitudeMeters>
            <DistanceMeters>NAN</DistanceMeters>
          </Trackpoint>
          <Trackpoint>
            <Time>2019-10-10T10:05:00.000Z</Time>
            <Position>
              <LatitudeDegrees>37.962696589529514312744140625</LatitudeDegrees>
              <LongitudeDegrees>-6.22964140959084033966064453125</LongitudeDegrees>
            </Position>
            <AltitudeMeters>381.20001220703125</AltitudeMeters>
            <DistanceMeters>NAN</DistanceMeters>
          </Trackpoint>
          <Trackpoint>
            <Time>2019-10-10T10:05:03.000Z</Time>
            <Position>
              <LatitudeDegrees>37.96255971305072307586669921875</LatitudeDegrees>
              <LongitudeDegrees>-6.2293722666800022125244140625</LongitudeDegrees>
            </Position>
            <AltitudeMeters>382.20001220703125</AltitudeMeters>
            <DistanceMeters>NAN</DistanceMeters>
          </Trackpoint>
          <Trackpoint>
            <Time>2019-10-10T10:05:06.000Z</Time>
            <Position>
              <LatitudeDegrees>37.9624213278293609619140625</LatitudeDegrees>
              <LongitudeDegrees>-6.2291208095848560333251953125</LongitudeDegrees>
            </Position>
            <AltitudeMeters>381.600006103515625</AltitudeMeters>
            <DistanceMeters>NAN</DistanceMeters>
          </Trackpoint>
          <Trackpoint>
            <Time>2019-10-10T10:05:10.000Z</Time>
            <Position>
              <LatitudeDegrees>37.96223633922636508941650390625</LatitudeDegrees>
              <LongitudeDegrees>-6.22878226451575756072998046875</LongitudeDegrees>
            </Position>
            <AltitudeMeters>381.399993896484375</AltitudeMeters>
            <DistanceMeters>NAN</DistanceMeters>
          </Trackpoint>
          <Trackpoint>
            <Time>2019-10-10T10:05:11.000Z</Time>
            <Position>
              <LatitudeDegrees>37.962190322577953338623046875</LatitudeDegrees>
              <LongitudeDegrees>-6.2286953441798686981201171875</LongitudeDegrees>
            </Position>
            <AltitudeMeters>381</AltitudeMeters>
            <DistanceMeters>NAN</DistanceMeters>
          </Trackpoint>
          <Trackpoint>
            <Time>2019-10-10T10:05:14.000Z</Time>
            <Position>
              <LatitudeDegrees>37.962044142186641693115234375</LatitudeDegrees>
              <LongitudeDegrees>-6.22843340970575809478759765625</LongitudeDegrees>
            </Position>
            <AltitudeMeters>379.600006103515625</AltitudeMeters>
            <DistanceMeters>NAN</DistanceMeters>
          </Trackpoint>
          <Trackpoint>
            <Time>2019-10-10T10:05:15.000Z</Time>
            <Position>
              <LatitudeDegrees>37.96199074946343898773193359375</LatitudeDegrees>
              <LongitudeDegrees>-6.2283473275601863861083984375</LongitudeDegrees>
            </Position>
            <AltitudeMeters>379</AltitudeMeters>
            <DistanceMeters>NAN</DistanceMeters>
          </Trackpoint>
          <Trackpoint>
            <Time>2019-10-10T10:05:17.000Z</Time>
            <Position>
              <LatitudeDegrees>37.96187725849449634552001953125</LatitudeDegrees>
              <LongitudeDegrees>-6.22818119823932647705078125</LongitudeDegrees>
            </Position>
            <AltitudeMeters>378.20001220703125</AltitudeMeters>
            <DistanceMeters>NAN</DistanceMeters>
          </Trackpoint>
          <Trackpoint>
            <Time>2019-10-10T10:05:20.000Z</Time>
            <Position>
              <LatitudeDegrees>37.96169201843440532684326171875</LatitudeDegrees>
              <LongitudeDegrees>-6.22794784605503082275390625</LongitudeDegrees>
            </Position>
            <AltitudeMeters>377.79998779296875</AltitudeMeters>
            <DistanceMeters>NAN</DistanceMeters>
          </Trackpoint>
          <Trackpoint>
            <Time>2019-10-10T10:05:21.000Z</Time>
            <Position>
              <LatitudeDegrees>37.961625047028064727783203125</LatitudeDegrees>
              <LongitudeDegrees>-6.22787802480161190032958984375</LongitudeDegrees>
            </Position>
            <AltitudeMeters>377.399993896484375</AltitudeMeters>
            <DistanceMeters>NAN</DistanceMeters>
          </Trackpoint>
          <Trackpoint>
            <Time>2019-10-10T10:05:22.000Z</Time>
            <Position>
              <LatitudeDegrees>37.96155841089785099029541015625</LatitudeDegrees>
              <LongitudeDegrees>-6.2278098799288272857666015625</LongitudeDegrees>
            </Position>
            <AltitudeMeters>377</AltitudeMeters>
            <DistanceMeters>NAN</DistanceMeters>
          </Trackpoint>
          <Trackpoint>
            <Time>2019-10-10T10:05:24.000Z</Time>
            <Position>
              <LatitudeDegrees>37.9614190198481082916259765625</LatitudeDegrees>
              <LongitudeDegrees>-6.22768322937190532684326171875</LongitudeDegrees>
            </Position>
            <AltitudeMeters>376.399993896484375</AltitudeMeters>
            <DistanceMeters>NAN</DistanceMeters>
          </Trackpoint>
          <Trackpoint>
            <Time>2019-10-10T10:05:27.000Z</Time>
            <Position>
              <LatitudeDegrees>37.96119966544210910797119140625</LatitudeDegrees>
              <LongitudeDegrees>-6.2275285832583904266357421875</LongitudeDegrees>
            </Position>
            <AltitudeMeters>376.20001220703125</AltitudeMeters>
            <DistanceMeters>NAN</DistanceMeters>
          </Trackpoint>
          <Trackpoint>
            <Time>2019-10-10T10:05:29.000Z</Time>
            <Position>
              <LatitudeDegrees>37.96104443259537220001220703125</LatitudeDegrees>
              <LongitudeDegrees>-6.2274373881518840789794921875</LongitudeDegrees>
            </Position>
            <AltitudeMeters>375.79998779296875</AltitudeMeters>
            <DistanceMeters>NAN</DistanceMeters>
          </Trackpoint>
          <Trackpoint>
            <Time>2019-10-10T10:05:31.000Z</Time>
            <Position>
              <LatitudeDegrees>37.960887439548969268798828125</LatitudeDegrees>
              <LongitudeDegrees>-6.22735767625272274017333984375</LongitudeDegrees>
            </Position>
            <AltitudeMeters>375</AltitudeMeters>
            <DistanceMeters>NAN</DistanceMeters>
          </Trackpoint>
          <Trackpoint>
            <Time>2019-10-10T10:05:32.000Z</Time>
            <Position>
              <LatitudeDegrees>37.9608064703643321990966796875</LatitudeDegrees>
              <LongitudeDegrees>-6.227322556078433990478515625</LongitudeDegrees>
            </Position>
            <AltitudeMeters>374.600006103515625</AltitudeMeters>
            <DistanceMeters>NAN</DistanceMeters>
          </Trackpoint>
          <Trackpoint>
            <Time>2019-10-10T10:05:33.000Z</Time>
            <Position>
              <LatitudeDegrees>37.96072684228420257568359375</LatitudeDegrees>
              <LongitudeDegrees>-6.2272895313799381256103515625</LongitudeDegrees>
            </Position>
            <AltitudeMeters>374.20001220703125</AltitudeMeters>
            <DistanceMeters>NAN</DistanceMeters>
          </Trackpoint>
          <Trackpoint>
            <Time>2019-10-10T10:05:39.000Z</Time>
            <Position>
              <LatitudeDegrees>37.96025435440242290496826171875</LatitudeDegrees>
              <LongitudeDegrees>-6.22718048281967639923095703125</LongitudeDegrees>
            </Position>
            <AltitudeMeters>374.20001220703125</AltitudeMeters>
            <DistanceMeters>NAN</DistanceMeters>
          </Trackpoint>
          <Trackpoint>
            <Time>2019-10-10T10:05:43.000Z</Time>
            <Position>
              <LatitudeDegrees>37.959965430200099945068359375</LatitudeDegrees>
              <LongitudeDegrees>-6.22715634293854236602783203125</LongitudeDegrees>
            </Position>
            <AltitudeMeters>374.20001220703125</AltitudeMeters>
            <DistanceMeters>NAN</DistanceMeters>
          </Trackpoint>
          <Trackpoint>
            <Time>2019-10-10T10:05:45.000Z</Time>
            <Position>
              <LatitudeDegrees>37.959835343062877655029296875</LatitudeDegrees>
              <LongitudeDegrees>-6.2271537445485591888427734375</LongitudeDegrees>
            </Position>
            <AltitudeMeters>374.79998779296875</AltitudeMeters>
            <DistanceMeters>NAN</DistanceMeters>
          </Trackpoint>
          <Trackpoint>
            <Time>2019-10-10T10:05:50.000Z</Time>
            <Position>
              <LatitudeDegrees>37.95953418128192424774169921875</LatitudeDegrees>
              <LongitudeDegrees>-6.2271574325859546661376953125</LongitudeDegrees>
            </Position>
            <AltitudeMeters>375.79998779296875</AltitudeMeters>
            <DistanceMeters>NAN</DistanceMeters>
          </Trackpoint>
          <Trackpoint>
            <Time>2019-10-10T10:05:53.000Z</Time>
            <Position>
              <LatitudeDegrees>37.95937157236039638519287109375</LatitudeDegrees>
              <LongitudeDegrees>-6.227156929671764373779296875</LongitudeDegrees>
            </Position>
            <AltitudeMeters>376.600006103515625</AltitudeMeters>
            <DistanceMeters>NAN</DistanceMeters>
          </Trackpoint>
          <Trackpoint>
            <Time>2019-10-10T10:05:55.000Z</Time>
            <Position>
              <LatitudeDegrees>37.9592668823897838592529296875</LatitudeDegrees>
              <LongitudeDegrees>-6.22716086916625499725341796875</LongitudeDegrees>
            </Position>
            <AltitudeMeters>376.79998779296875</AltitudeMeters>
            <DistanceMeters>NAN</DistanceMeters>
          </Trackpoint>
          <Trackpoint>
            <Time>2019-10-10T10:05:56.000Z</Time>
            <Position>
              <LatitudeDegrees>37.95921734534204006195068359375</LatitudeDegrees>
              <LongitudeDegrees>-6.22716019861400127410888671875</LongitudeDegrees>
            </Position>
            <AltitudeMeters>377.399993896484375</AltitudeMeters>
            <DistanceMeters>NAN</DistanceMeters>
          </Trackpoint>
          <Trackpoint>
            <Time>2019-10-10T10:06:01.000Z</Time>
            <Position>
              <LatitudeDegrees>37.958992458879947662353515625</LatitudeDegrees>
              <LongitudeDegrees>-6.227158270776271820068359375</LongitudeDegrees>
            </Position>
            <AltitudeMeters>378.399993896484375</AltitudeMeters>
            <DistanceMeters>NAN</DistanceMeters>
          </Trackpoint>
          <Trackpoint>
            <Time>2019-10-10T10:06:03.000Z</Time>
            <Position>
              <LatitudeDegrees>37.9589074663817882537841796875</LatitudeDegrees>
              <LongitudeDegrees>-6.22715659439563751220703125</LongitudeDegrees>
            </Position>
            <AltitudeMeters>378.399993896484375</AltitudeMeters>
            <DistanceMeters>NAN</DistanceMeters>
          </Trackpoint>
          <Trackpoint>
            <Time>2019-10-10T10:06:06.000Z</Time>
            <Position>
              <LatitudeDegrees>37.9587803967297077178955078125</LatitudeDegrees>
              <LongitudeDegrees>-6.22715567238628864288330078125</LongitudeDegrees>
            </Position>
            <AltitudeMeters>379.600006103515625</AltitudeMeters>
            <DistanceMeters>NAN</DistanceMeters>
          </Trackpoint>
          <Trackpoint>
            <Time>2019-10-10T10:06:08.000Z</Time>
            <Position>
              <LatitudeDegrees>37.958694733679294586181640625</LatitudeDegrees>
              <LongitudeDegrees>-6.2271559238433837890625</LongitudeDegrees>
            </Position>
            <AltitudeMeters>380</AltitudeMeters>
            <DistanceMeters>NAN</DistanceMeters>
          </Trackpoint>
          <Trackpoint>
            <Time>2019-10-10T10:06:15.000Z</Time>
            <Position>
              <LatitudeDegrees>37.958393990993499755859375</LatitudeDegrees>
              <LongitudeDegrees>-6.22716128826141357421875</LongitudeDegrees>
            </Position>
            <AltitudeMeters>380.399993896484375</AltitudeMeters>
            <DistanceMeters>NAN</DistanceMeters>
          </Trackpoint>
          <Trackpoint>
            <Time>2019-10-10T10:06:16.000Z</Time>
            <Position>
              <LatitudeDegrees>37.95834981836378574371337890625</LatitudeDegrees>
              <LongitudeDegrees>-6.22715936042368412017822265625</LongitudeDegrees>
            </Position>
            <AltitudeMeters>380.399993896484375</AltitudeMeters>
            <DistanceMeters>NAN</DistanceMeters>
          </Trackpoint>
          <Trackpoint>
            <Time>2019-10-10T10:06:18.000Z</Time>
            <Position>
              <LatitudeDegrees>37.95826666988432407379150390625</LatitudeDegrees>
              <LongitudeDegrees>-6.22715634293854236602783203125</LongitudeDegrees>
            </Position>
            <AltitudeMeters>381</AltitudeMeters>
            <DistanceMeters>NAN</DistanceMeters>
          </Trackpoint>
          <Trackpoint>
            <Time>2019-10-10T10:06:23.000Z</Time>
            <Position>
              <LatitudeDegrees>37.9580572061240673065185546875</LatitudeDegrees>
              <LongitudeDegrees>-6.22715064324438571929931640625</LongitudeDegrees>
            </Position>
            <AltitudeMeters>381.399993896484375</AltitudeMeters>
            <DistanceMeters>NAN</DistanceMeters>
          </Trackpoint>
          <Trackpoint>
            <Time>2019-10-10T10:06:26.000Z</Time>
            <Position>
              <LatitudeDegrees>37.957933656871318817138671875</LatitudeDegrees>
              <LongitudeDegrees>-6.22714444063603878021240234375</LongitudeDegrees>
            </Position>
            <AltitudeMeters>381.600006103515625</AltitudeMeters>
            <DistanceMeters>NAN</DistanceMeters>
          </Trackpoint>
          <Trackpoint>
            <Time>2019-10-10T10:06:28.000Z</Time>
            <Position>
              <LatitudeDegrees>37.95784992165863513946533203125</LatitudeDegrees>
              <LongitudeDegrees>-6.227144859731197357177734375</LongitudeDegrees>
            </Position>
            <AltitudeMeters>382</AltitudeMeters>
            <DistanceMeters>NAN</DistanceMeters>
          </Trackpoint>
          <Trackpoint>
            <Time>2019-10-10T10:06:34.000Z</Time>
            <Position>
              <LatitudeDegrees>37.95759745873510837554931640625</LatitudeDegrees>
              <LongitudeDegrees>-6.2271410040557384490966796875</LongitudeDegrees>
            </Position>
            <AltitudeMeters>382.600006103515625</AltitudeMeters>
            <DistanceMeters>NAN</DistanceMeters>
          </Trackpoint>
          <Trackpoint>
            <Time>2019-10-10T10:06:41.000Z</Time>
            <Position>
              <LatitudeDegrees>37.95730040408670902252197265625</LatitudeDegrees>
              <LongitudeDegrees>-6.2271416746079921722412109375</LongitudeDegrees>
            </Position>
            <AltitudeMeters>383.20001220703125</AltitudeMeters>
            <DistanceMeters>NAN</DistanceMeters>
          </Trackpoint>
          <Trackpoint>
            <Time>2019-10-10T10:06:43.000Z</Time>
            <Position>
              <LatitudeDegrees>37.9572143219411373138427734375</LatitudeDegrees>
              <LongitudeDegrees>-6.2271383218467235565185546875</LongitudeDegrees>
            </Position>
            <AltitudeMeters>383.20001220703125</AltitudeMeters>
            <DistanceMeters>NAN</DistanceMeters>
          </Trackpoint>
          <Trackpoint>
            <Time>2019-10-10T10:06:53.000Z</Time>
            <Position>
              <LatitudeDegrees>37.95677117072045803070068359375</LatitudeDegrees>
              <LongitudeDegrees>-6.2271296046674251556396484375</LongitudeDegrees>
            </Position>
            <AltitudeMeters>383.79998779296875</AltitudeMeters>
            <DistanceMeters>NAN</DistanceMeters>
          </Trackpoint>
          <Trackpoint>
            <Time>2019-10-10T10:07:02.000Z</Time>
            <Position>
              <LatitudeDegrees>37.95634486712515354156494140625</LatitudeDegrees>
              <LongitudeDegrees>-6.227131448686122894287109375</LongitudeDegrees>
            </Position>
            <AltitudeMeters>383.79998779296875</AltitudeMeters>
            <DistanceMeters>NAN</DistanceMeters>
          </Trackpoint>
          <Trackpoint>
            <Time>2019-10-10T10:07:09.000Z</Time>
            <Position>
              <LatitudeDegrees>37.9560046456754207611083984375</LatitudeDegrees>
              <LongitudeDegrees>-6.22712834738194942474365234375</LongitudeDegrees>
            </Position>
            <AltitudeMeters>383.600006103515625</AltitudeMeters>
            <DistanceMeters>NAN</DistanceMeters>
          </Trackpoint>
          <Trackpoint>
            <Time>2019-10-10T10:07:11.000Z</Time>
            <Position>
              <LatitudeDegrees>37.95590733177959918975830078125</LatitudeDegrees>
              <LongitudeDegrees>-6.22712382115423679351806640625</LongitudeDegrees>
            </Position>
            <AltitudeMeters>383.20001220703125</AltitudeMeters>
            <DistanceMeters>NAN</DistanceMeters>
          </Trackpoint>
          <Trackpoint>
            <Time>2019-10-10T10:07:15.000Z</Time>
            <Position>
              <LatitudeDegrees>37.95571873895823955535888671875</LatitudeDegrees>
              <LongitudeDegrees>-6.2271228991448879241943359375</LongitudeDegrees>
            </Position>
            <AltitudeMeters>383.20001220703125</AltitudeMeters>
            <DistanceMeters>NAN</DistanceMeters>
          </Trackpoint>
          <Trackpoint>
            <Time>2019-10-10T10:07:20.000Z</Time>
            <Position>
              <LatitudeDegrees>37.9554896615445613861083984375</LatitudeDegrees>
              <LongitudeDegrees>-6.22711845673620700836181640625</LongitudeDegrees>
            </Position>
            <AltitudeMeters>383</AltitudeMeters>
            <DistanceMeters>NAN</DistanceMeters>
          </Trackpoint>
          <Trackpoint>
            <Time>2019-10-10T10:07:30.000Z</Time>
            <Position>
              <LatitudeDegrees>37.95503846369683742523193359375</LatitudeDegrees>
              <LongitudeDegrees>-6.22711292468011379241943359375</LongitudeDegrees>
            </Position>
            <AltitudeMeters>384</AltitudeMeters>
            <DistanceMeters>NAN</DistanceMeters>
          </Trackpoint>
          <Trackpoint>
            <Time>2019-10-10T10:07:35.000Z</Time>
            <Position>
              <LatitudeDegrees>37.954824976623058319091796875</LatitudeDegrees>
              <LongitudeDegrees>-6.227114684879779815673828125</LongitudeDegrees>
            </Position>
            <AltitudeMeters>384.399993896484375</AltitudeMeters>
            <DistanceMeters>NAN</DistanceMeters>
          </Trackpoint>
          <Trackpoint>
            <Time>2019-10-10T10:07:38.000Z</Time>
            <Position>
              <LatitudeDegrees>37.954698242247104644775390625</LatitudeDegrees>
              <LongitudeDegrees>-6.227123402059078216552734375</LongitudeDegrees>
            </Position>
            <AltitudeMeters>384.79998779296875</AltitudeMeters>
            <DistanceMeters>NAN</DistanceMeters>
          </Trackpoint>
          <Trackpoint>
            <Time>2019-10-10T10:07:42.000Z</Time>
            <Position>
              <LatitudeDegrees>37.9545284248888492584228515625</LatitudeDegrees>
              <LongitudeDegrees>-6.2271456979215145111083984375</LongitudeDegrees>
            </Position>
            <AltitudeMeters>385.399993896484375</AltitudeMeters>
            <DistanceMeters>NAN</DistanceMeters>
          </Trackpoint>
          <Trackpoint>
            <Time>2019-10-10T10:07:46.000Z</Time>
            <Position>
              <LatitudeDegrees>37.95436841435730457305908203125</LatitudeDegrees>
              <LongitudeDegrees>-6.22716774232685565948486328125</LongitudeDegrees>
            </Position>
            <AltitudeMeters>386</AltitudeMeters>
            <DistanceMeters>NAN</DistanceMeters>
          </Trackpoint>
          <Trackpoint>
            <Time>2019-10-10T10:07:49.000Z</Time>
            <Position>
              <LatitudeDegrees>37.954254336655139923095703125</LatitudeDegrees>
              <LongitudeDegrees>-6.22719557024538516998291015625</LongitudeDegrees>
            </Position>
            <AltitudeMeters>386.600006103515625</AltitudeMeters>
            <DistanceMeters>NAN</DistanceMeters>
          </Trackpoint>
          <Trackpoint>
            <Time>2019-10-10T10:07:53.000Z</Time>
            <Position>
              <LatitudeDegrees>37.95410136692225933074951171875</LatitudeDegrees>
              <LongitudeDegrees>-6.22724301181733608245849609375</LongitudeDegrees>
            </Position>
            <AltitudeMeters>387.20001220703125</AltitudeMeters>
            <DistanceMeters>NAN</DistanceMeters>
          </Trackpoint>
          <Trackpoint>
            <Time>2019-10-10T10:07:56.000Z</Time>
            <Position>
              <LatitudeDegrees>37.95398502610623836517333984375</LatitudeDegrees>
              <LongitudeDegrees>-6.2272881902754306793212890625</LongitudeDegrees>
            </Position>
            <AltitudeMeters>387.79998779296875</AltitudeMeters>
            <DistanceMeters>NAN</DistanceMeters>
          </Trackpoint>
          <Trackpoint>
            <Time>2019-10-10T10:08:00.000Z</Time>
            <Position>
              <LatitudeDegrees>37.9538248479366302490234375</LatitudeDegrees>
              <LongitudeDegrees>-6.2273542396724224090576171875</LongitudeDegrees>
            </Position>
            <AltitudeMeters>388.399993896484375</AltitudeMeters>
            <DistanceMeters>NAN</DistanceMeters>
          </Trackpoint>
          <Trackpoint>
            <Time>2019-10-10T10:08:06.000Z</Time>
            <Position>
              <LatitudeDegrees>37.9535738937556743621826171875</LatitudeDegrees>
              <LongitudeDegrees>-6.22743294574320316314697265625</LongitudeDegrees>
            </Position>
            <AltitudeMeters>389.20001220703125</AltitudeMeters>
            <DistanceMeters>NAN</DistanceMeters>
          </Trackpoint>
          <Trackpoint>
            <Time>2019-10-10T10:08:08.000Z</Time>
            <Position>
              <LatitudeDegrees>37.953487895429134368896484375</LatitudeDegrees>
              <LongitudeDegrees>-6.22746982611715793609619140625</LongitudeDegrees>
            </Position>
            <AltitudeMeters>389.20001220703125</AltitudeMeters>
            <DistanceMeters>NAN</DistanceMeters>
          </Trackpoint>
          <Trackpoint>
            <Time>2019-10-10T10:08:16.000Z</Time>
            <Position>
              <LatitudeDegrees>37.9530927725136280059814453125</LatitudeDegrees>
              <LongitudeDegrees>-6.2276325188577175140380859375</LongitudeDegrees>
            </Position>
            <AltitudeMeters>388</AltitudeMeters>
            <DistanceMeters>NAN</DistanceMeters>
          </Trackpoint>
          <Trackpoint>
            <Time>2019-10-10T10:08:18.000Z</Time>
            <Position>
              <LatitudeDegrees>37.952981628477573394775390625</LatitudeDegrees>
              <LongitudeDegrees>-6.22769412584602832794189453125</LongitudeDegrees>
            </Position>
            <AltitudeMeters>387</AltitudeMeters>
            <DistanceMeters>NAN</DistanceMeters>
          </Trackpoint>
          <Trackpoint>
            <Time>2019-10-10T10:08:21.000Z</Time>
            <Position>
              <LatitudeDegrees>37.95280569233000278472900390625</LatitudeDegrees>
              <LongitudeDegrees>-6.22781331650912761688232421875</LongitudeDegrees>
            </Position>
            <AltitudeMeters>385.79998779296875</AltitudeMeters>
            <DistanceMeters>NAN</DistanceMeters>
          </Trackpoint>
          <Trackpoint>
            <Time>2019-10-10T10:08:22.000Z</Time>
            <Position>
              <LatitudeDegrees>37.9527465999126434326171875</LatitudeDegrees>
              <LongitudeDegrees>-6.2278598360717296600341796875</LongitudeDegrees>
            </Position>
            <AltitudeMeters>385.600006103515625</AltitudeMeters>
            <DistanceMeters>NAN</DistanceMeters>
          </Trackpoint>
          <Trackpoint>
            <Time>2019-10-10T10:08:28.000Z</Time>
            <Position>
              <LatitudeDegrees>37.95242817141115665435791015625</LatitudeDegrees>
              <LongitudeDegrees>-6.228175498545169830322265625</LongitudeDegrees>
            </Position>
            <AltitudeMeters>385.79998779296875</AltitudeMeters>
            <DistanceMeters>NAN</DistanceMeters>
          </Trackpoint>
          <Trackpoint>
            <Time>2019-10-10T10:08:29.000Z</Time>
            <Position>
              <LatitudeDegrees>37.95238341204822063446044921875</LatitudeDegrees>
              <LongitudeDegrees>-6.22822587378323078155517578125</LongitudeDegrees>
            </Position>
            <AltitudeMeters>386</AltitudeMeters>
            <DistanceMeters>NAN</DistanceMeters>
          </Trackpoint>
          <Trackpoint>
            <Time>2019-10-10T10:08:31.000Z</Time>
            <Position>
              <LatitudeDegrees>37.95230336487293243408203125</LatitudeDegrees>
              <LongitudeDegrees>-6.22832058928906917572021484375</LongitudeDegrees>
            </Position>
            <AltitudeMeters>386.79998779296875</AltitudeMeters>
            <DistanceMeters>NAN</DistanceMeters>
          </Trackpoint>
          <Trackpoint>
            <Time>2019-10-10T10:08:33.000Z</Time>
            <Position>
              <LatitudeDegrees>37.952231280505657196044921875</LatitudeDegrees>
              <LongitudeDegrees>-6.22840826399624347686767578125</LongitudeDegrees>
            </Position>
            <AltitudeMeters>388</AltitudeMeters>
            <DistanceMeters>NAN</DistanceMeters>
          </Trackpoint>
          <Trackpoint>
            <Time>2019-10-10T10:08:35.000Z</Time>
            <Position>
              <LatitudeDegrees>37.95216799713671207427978515625</LatitudeDegrees>
              <LongitudeDegrees>-6.22848638333380222320556640625</LongitudeDegrees>
            </Position>
            <AltitudeMeters>388</AltitudeMeters>
            <DistanceMeters>NAN</DistanceMeters>
          </Trackpoint>
          <Trackpoint>
            <Time>2019-10-10T10:08:38.000Z</Time>
            <Position>
              <LatitudeDegrees>37.95208476483821868896484375</LatitudeDegrees>
              <LongitudeDegrees>-6.22859962284564971923828125</LongitudeDegrees>
            </Position>
            <AltitudeMeters>389</AltitudeMeters>
            <DistanceMeters>NAN</DistanceMeters>
          </Trackpoint>
          <Trackpoint>
            <Time>2019-10-10T10:08:42.000Z</Time>
            <Position>
              <LatitudeDegrees>37.95197554863989353179931640625</LatitudeDegrees>
              <LongitudeDegrees>-6.228732056915760040283203125</LongitudeDegrees>
            </Position>
            <AltitudeMeters>389.79998779296875</AltitudeMeters>
            <DistanceMeters>NAN</DistanceMeters>
          </Trackpoint>
          <Trackpoint>
            <Time>2019-10-10T10:08:43.000Z</Time>
            <Position>
              <LatitudeDegrees>37.951951660215854644775390625</LatitudeDegrees>
              <LongitudeDegrees>-6.228757537901401519775390625</LongitudeDegrees>
            </Position>
            <AltitudeMeters>390.20001220703125</AltitudeMeters>
            <DistanceMeters>NAN</DistanceMeters>
          </Trackpoint>
          <Trackpoint>
            <Time>2019-10-10T10:08:48.000Z</Time>
            <Position>
              <LatitudeDegrees>37.95182668603956699371337890625</LatitudeDegrees>
              <LongitudeDegrees>-6.22890950180590152740478515625</LongitudeDegrees>
            </Position>
            <AltitudeMeters>390.79998779296875</AltitudeMeters>
            <DistanceMeters>NAN</DistanceMeters>
          </Trackpoint>
          <Trackpoint>
            <Time>2019-10-10T10:08:52.000Z</Time>
            <Position>
              <LatitudeDegrees>37.9517322219908237457275390625</LatitudeDegrees>
              <LongitudeDegrees>-6.22902483679354190826416015625</LongitudeDegrees>
            </Position>
            <AltitudeMeters>391.600006103515625</AltitudeMeters>
            <DistanceMeters>NAN</DistanceMeters>
          </Trackpoint>
          <Trackpoint>
            <Time>2019-10-10T10:08:57.000Z</Time>
            <Position>
              <LatitudeDegrees>37.95160590671002864837646484375</LatitudeDegrees>
              <LongitudeDegrees>-6.22917604632675647735595703125</LongitudeDegrees>
            </Position>
            <AltitudeMeters>391.79998779296875</AltitudeMeters>
            <DistanceMeters>NAN</DistanceMeters>
          </Trackpoint>
          <Trackpoint>
            <Time>2019-10-10T10:09:00.000Z</Time>
            <Position>
              <LatitudeDegrees>37.95153088867664337158203125</LatitudeDegrees>
              <LongitudeDegrees>-6.22927076183259487152099609375</LongitudeDegrees>
            </Position>
            <AltitudeMeters>392.600006103515625</AltitudeMeters>
            <DistanceMeters>NAN</DistanceMeters>
          </Trackpoint>
          <Trackpoint>
            <Time>2019-10-10T10:09:04.000Z</Time>
            <Position>
              <LatitudeDegrees>37.951421253383159637451171875</LatitudeDegrees>
              <LongitudeDegrees>-6.22939649038016796112060546875</LongitudeDegrees>
            </Position>
            <AltitudeMeters>393</AltitudeMeters>
            <DistanceMeters>NAN</DistanceMeters>
          </Trackpoint>
          <Trackpoint>
            <Time>2019-10-10T10:09:13.000Z</Time>
            <Position>
              <LatitudeDegrees>37.9511800222098827362060546875</LatitudeDegrees>
              <LongitudeDegrees>-6.229698993265628814697265625</LongitudeDegrees>
            </Position>
            <AltitudeMeters>393.600006103515625</AltitudeMeters>
            <DistanceMeters>NAN</DistanceMeters>
          </Trackpoint>
          <Trackpoint>
            <Time>2019-10-10T10:09:14.000Z</Time>
            <Position>
              <LatitudeDegrees>37.95115110464394092559814453125</LatitudeDegrees>
              <LongitudeDegrees>-6.229731850326061248779296875</LongitudeDegrees>
            </Position>
            <AltitudeMeters>393.79998779296875</AltitudeMeters>
            <DistanceMeters>NAN</DistanceMeters>
          </Trackpoint>
          <Trackpoint>
            <Time>2019-10-10T10:09:25.000Z</Time>
            <Position>
              <LatitudeDegrees>37.950823791325092315673828125</LatitudeDegrees>
              <LongitudeDegrees>-6.23011104762554168701171875</LongitudeDegrees>
            </Position>
            <AltitudeMeters>393.79998779296875</AltitudeMeters>
            <DistanceMeters>NAN</DistanceMeters>
          </Trackpoint>
          <Trackpoint>
            <Time>2019-10-10T10:09:33.000Z</Time>
            <Position>
              <LatitudeDegrees>37.950564958155155181884765625</LatitudeDegrees>
              <LongitudeDegrees>-6.230421178042888641357421875</LongitudeDegrees>
            </Position>
            <AltitudeMeters>393.399993896484375</AltitudeMeters>
            <DistanceMeters>NAN</DistanceMeters>
          </Trackpoint>
          <Trackpoint>
            <Time>2019-10-10T10:09:36.000Z</Time>
            <Position>
              <LatitudeDegrees>37.9504648782312870025634765625</LatitudeDegrees>
              <LongitudeDegrees>-6.2305464036762714385986328125</LongitudeDegrees>
            </Position>
            <AltitudeMeters>393.20001220703125</AltitudeMeters>
            <DistanceMeters>NAN</DistanceMeters>
          </Trackpoint>
          <Trackpoint>
            <Time>2019-10-10T10:09:43.000Z</Time>
            <Position>
              <LatitudeDegrees>37.9502271674573421478271484375</LatitudeDegrees>
              <LongitudeDegrees>-6.23083935119211673736572265625</LongitudeDegrees>
            </Position>
            <AltitudeMeters>393</AltitudeMeters>
            <DistanceMeters>NAN</DistanceMeters>
          </Trackpoint>
          <Trackpoint>
            <Time>2019-10-10T10:09:46.000Z</Time>
            <Position>
              <LatitudeDegrees>37.9501208849251270294189453125</LatitudeDegrees>
              <LongitudeDegrees>-6.23096608556807041168212890625</LongitudeDegrees>
            </Position>
            <AltitudeMeters>393.399993896484375</AltitudeMeters>
            <DistanceMeters>NAN</DistanceMeters>
          </Trackpoint>
          <Trackpoint>
            <Time>2019-10-10T10:09:52.000Z</Time>
            <Position>
              <LatitudeDegrees>37.94989448972046375274658203125</LatitudeDegrees>
              <LongitudeDegrees>-6.23122240416705608367919921875</LongitudeDegrees>
            </Position>
            <AltitudeMeters>393.20001220703125</AltitudeMeters>
            <DistanceMeters>NAN</DistanceMeters>
          </Trackpoint>
          <Trackpoint>
            <Time>2019-10-10T10:09:53.000Z</Time>
            <Position>
              <LatitudeDegrees>37.94985224492847919464111328125</LatitudeDegrees>
              <LongitudeDegrees>-6.23126967810094356536865234375</LongitudeDegrees>
            </Position>
            <AltitudeMeters>393</AltitudeMeters>
            <DistanceMeters>NAN</DistanceMeters>
          </Trackpoint>
          <Trackpoint>
            <Time>2019-10-10T10:09:55.000Z</Time>
            <Position>
              <LatitudeDegrees>37.9497607983648777008056640625</LatitudeDegrees>
              <LongitudeDegrees>-6.23135802336037158966064453125</LongitudeDegrees>
            </Position>
            <AltitudeMeters>392.600006103515625</AltitudeMeters>
            <DistanceMeters>NAN</DistanceMeters>
          </Trackpoint>
          <Trackpoint>
            <Time>2019-10-10T10:10:00.000Z</Time>
            <Position>
              <LatitudeDegrees>37.94949911534786224365234375</LatitudeDegrees>
              <LongitudeDegrees>-6.2315904535353183746337890625</LongitudeDegrees>
            </Position>
            <AltitudeMeters>392</AltitudeMeters>
            <DistanceMeters>NAN</DistanceMeters>
          </Trackpoint>
          <Trackpoint>
            <Time>2019-10-10T10:10:02.000Z</Time>
            <Position>
              <LatitudeDegrees>37.9493785835802555084228515625</LatitudeDegrees>
              <LongitudeDegrees>-6.23168072663247585296630859375</LongitudeDegrees>
            </Position>
            <AltitudeMeters>391.20001220703125</AltitudeMeters>
            <DistanceMeters>NAN</DistanceMeters>
          </Trackpoint>
          <Trackpoint>
            <Time>2019-10-10T10:10:05.000Z</Time>
            <Position>
              <LatitudeDegrees>37.9491777531802654266357421875</LatitudeDegrees>
              <LongitudeDegrees>-6.2318130768835544586181640625</LongitudeDegrees>
            </Position>
            <AltitudeMeters>389.79998779296875</AltitudeMeters>
            <DistanceMeters>NAN</DistanceMeters>
          </Trackpoint>
          <Trackpoint>
            <Time>2019-10-10T10:10:06.000Z</Time>
            <Position>
              <LatitudeDegrees>37.949106507003307342529296875</LatitudeDegrees>
              <LongitudeDegrees>-6.23185574077069759368896484375</LongitudeDegrees>
            </Position>
            <AltitudeMeters>389.399993896484375</AltitudeMeters>
            <DistanceMeters>NAN</DistanceMeters>
          </Trackpoint>
          <Trackpoint>
            <Time>2019-10-10T10:10:08.000Z</Time>
            <Position>
              <LatitudeDegrees>37.94896007515490055084228515625</LatitudeDegrees>
              <LongitudeDegrees>-6.2319240532815456390380859375</LongitudeDegrees>
            </Position>
            <AltitudeMeters>388.399993896484375</AltitudeMeters>
            <DistanceMeters>NAN</DistanceMeters>
          </Trackpoint>
          <Trackpoint>
            <Time>2019-10-10T10:10:12.000Z</Time>
            <Position>
              <LatitudeDegrees>37.94865329749882221221923828125</LatitudeDegrees>
              <LongitudeDegrees>-6.23201466165482997894287109375</LongitudeDegrees>
            </Position>
            <AltitudeMeters>388.600006103515625</AltitudeMeters>
            <DistanceMeters>NAN</DistanceMeters>
          </Trackpoint>
          <Trackpoint>
            <Time>2019-10-10T10:10:17.000Z</Time>
            <Position>
              <LatitudeDegrees>37.94826253317296504974365234375</LatitudeDegrees>
              <LongitudeDegrees>-6.232041232287883758544921875</LongitudeDegrees>
            </Position>
            <AltitudeMeters>387.399993896484375</AltitudeMeters>
            <DistanceMeters>NAN</DistanceMeters>
          </Trackpoint>
          <Trackpoint>
            <Time>2019-10-10T10:10:18.000Z</Time>
            <Position>
              <LatitudeDegrees>37.94818474911153316497802734375</LatitudeDegrees>
              <LongitudeDegrees>-6.23203628696501255035400390625</LongitudeDegrees>
            </Position>
            <AltitudeMeters>387.399993896484375</AltitudeMeters>
            <DistanceMeters>NAN</DistanceMeters>
          </Trackpoint>
          <Trackpoint>
            <Time>2019-10-10T10:10:23.000Z</Time>
            <Position>
              <LatitudeDegrees>37.9478101618587970733642578125</LatitudeDegrees>
              <LongitudeDegrees>-6.23196504078805446624755859375</LongitudeDegrees>
            </Position>
            <AltitudeMeters>386.20001220703125</AltitudeMeters>
            <DistanceMeters>NAN</DistanceMeters>
          </Trackpoint>
          <Trackpoint>
            <Time>2019-10-10T10:10:24.000Z</Time>
            <Position>
              <LatitudeDegrees>37.94773447327315807342529296875</LatitudeDegrees>
              <LongitudeDegrees>-6.23193897306919097900390625</LongitudeDegrees>
            </Position>
            <AltitudeMeters>385.600006103515625</AltitudeMeters>
            <DistanceMeters>NAN</DistanceMeters>
          </Trackpoint>
          <Trackpoint>
            <Time>2019-10-10T10:10:29.000Z</Time>
            <Position>
              <LatitudeDegrees>37.947391904890537261962890625</LatitudeDegrees>
              <LongitudeDegrees>-6.2317892722785472869873046875</LongitudeDegrees>
            </Position>
            <AltitudeMeters>385.20001220703125</AltitudeMeters>
            <DistanceMeters>NAN</DistanceMeters>
          </Trackpoint>
          <Trackpoint>
            <Time>2019-10-10T10:10:31.000Z</Time>
            <Position>
              <LatitudeDegrees>37.9472588002681732177734375</LatitudeDegrees>
              <LongitudeDegrees>-6.23171425424516201019287109375</LongitudeDegrees>
            </Position>
            <AltitudeMeters>385.20001220703125</AltitudeMeters>
            <DistanceMeters>NAN</DistanceMeters>
          </Trackpoint>
          <Trackpoint>
            <Time>2019-10-10T10:10:35.000Z</Time>
            <Position>
              <LatitudeDegrees>37.94699485413730144500732421875</LatitudeDegrees>
              <LongitudeDegrees>-6.2315480411052703857421875</LongitudeDegrees>
            </Position>
            <AltitudeMeters>383.600006103515625</AltitudeMeters>
            <DistanceMeters>NAN</DistanceMeters>
          </Trackpoint>
          <Trackpoint>
            <Time>2019-10-10T10:10:41.000Z</Time>
            <Position>
              <LatitudeDegrees>37.946601323783397674560546875</LatitudeDegrees>
              <LongitudeDegrees>-6.2312950752675533294677734375</LongitudeDegrees>
            </Position>
            <AltitudeMeters>383</AltitudeMeters>
            <DistanceMeters>NAN</DistanceMeters>
          </Trackpoint>
          <Trackpoint>
            <Time>2019-10-10T10:10:44.000Z</Time>
            <Position>
              <LatitudeDegrees>37.94640116393566131591796875</LatitudeDegrees>
              <LongitudeDegrees>-6.2311663292348384857177734375</LongitudeDegrees>
            </Position>
            <AltitudeMeters>382.399993896484375</AltitudeMeters>
            <DistanceMeters>NAN</DistanceMeters>
          </Trackpoint>
          <Trackpoint>
            <Time>2019-10-10T10:10:49.000Z</Time>
            <Position>
              <LatitudeDegrees>37.94604166410863399505615234375</LatitudeDegrees>
              <LongitudeDegrees>-6.23100581578910350799560546875</LongitudeDegrees>
            </Position>
            <AltitudeMeters>381.79998779296875</AltitudeMeters>
            <DistanceMeters>NAN</DistanceMeters>
          </Trackpoint>
          <Trackpoint>
            <Time>2019-10-10T10:10:52.000Z</Time>
            <Position>
              <LatitudeDegrees>37.945826835930347442626953125</LatitudeDegrees>
              <LongitudeDegrees>-6.2309380061924457550048828125</LongitudeDegrees>
            </Position>
            <AltitudeMeters>381.79998779296875</AltitudeMeters>
            <DistanceMeters>NAN</DistanceMeters>
          </Trackpoint>
          <Trackpoint>
            <Time>2019-10-10T10:10:54.000Z</Time>
            <Position>
              <LatitudeDegrees>37.9456761293113231658935546875</LatitudeDegrees>
              <LongitudeDegrees>-6.23091059736907482147216796875</LongitudeDegrees>
            </Position>
            <AltitudeMeters>381.20001220703125</AltitudeMeters>
            <DistanceMeters>NAN</DistanceMeters>
          </Trackpoint>
          <Trackpoint>
            <Time>2019-10-10T10:10:57.000Z</Time>
            <Position>
              <LatitudeDegrees>37.94545191340148448944091796875</LatitudeDegrees>
              <LongitudeDegrees>-6.23088947497308254241943359375</LongitudeDegrees>
            </Position>
            <AltitudeMeters>381</AltitudeMeters>
            <DistanceMeters>NAN</DistanceMeters>
          </Trackpoint>
          <Trackpoint>
            <Time>2019-10-10T10:10:58.000Z</Time>
            <Position>
              <LatitudeDegrees>37.945372872054576873779296875</LatitudeDegrees>
              <LongitudeDegrees>-6.230894587934017181396484375</LongitudeDegrees>
            </Position>
            <AltitudeMeters>381</AltitudeMeters>
            <DistanceMeters>NAN</DistanceMeters>
          </Trackpoint>
          <Trackpoint>
            <Time>2019-10-10T10:11:03.000Z</Time>
            <Position>
              <LatitudeDegrees>37.94501840136945247650146484375</LatitudeDegrees>
              <LongitudeDegrees>-6.23091981746256351470947265625</LongitudeDegrees>
            </Position>
            <AltitudeMeters>381.600006103515625</AltitudeMeters>
            <DistanceMeters>NAN</DistanceMeters>
          </Trackpoint>
          <Trackpoint>
            <Time>2019-10-10T10:11:10.000Z</Time>
            <Position>
              <LatitudeDegrees>37.944558151066303253173828125</LatitudeDegrees>
              <LongitudeDegrees>-6.23104940168559551239013671875</LongitudeDegrees>
            </Position>
            <AltitudeMeters>382.20001220703125</AltitudeMeters>
            <DistanceMeters>NAN</DistanceMeters>
          </Trackpoint>
          <Trackpoint>
            <Time>2019-10-10T10:11:11.000Z</Time>
            <Position>
              <LatitudeDegrees>37.944495119154453277587890625</LatitudeDegrees>
              <LongitudeDegrees>-6.2310737930238246917724609375</LongitudeDegrees>
            </Position>
            <AltitudeMeters>382.399993896484375</AltitudeMeters>
            <DistanceMeters>NAN</DistanceMeters>
          </Trackpoint>
          <Trackpoint>
            <Time>2019-10-10T10:11:17.000Z</Time>
            <Position>
              <LatitudeDegrees>37.944151125848293304443359375</LatitudeDegrees>
              <LongitudeDegrees>-6.2312119267880916595458984375</LongitudeDegrees>
            </Position>
            <AltitudeMeters>383.600006103515625</AltitudeMeters>
            <DistanceMeters>NAN</DistanceMeters>
          </Trackpoint>
          <Trackpoint>
            <Time>2019-10-10T10:11:25.000Z</Time>
            <Position>
              <LatitudeDegrees>37.94375709258019924163818359375</LatitudeDegrees>
              <LongitudeDegrees>-6.231384761631488800048828125</LongitudeDegrees>
            </Position>
            <AltitudeMeters>384.79998779296875</AltitudeMeters>
            <DistanceMeters>NAN</DistanceMeters>
          </Trackpoint>
          <Trackpoint>
            <Time>2019-10-10T10:11:28.000Z</Time>
            <Position>
              <LatitudeDegrees>37.943612001836299896240234375</LatitudeDegrees>
              <LongitudeDegrees>-6.23144988901913166046142578125</LongitudeDegrees>
            </Position>
            <AltitudeMeters>385.20001220703125</AltitudeMeters>
            <DistanceMeters>NAN</DistanceMeters>
          </Trackpoint>
          <Trackpoint>
            <Time>2019-10-10T10:11:36.000Z</Time>
            <Position>
              <LatitudeDegrees>37.9432757198810577392578125</LatitudeDegrees>
              <LongitudeDegrees>-6.2315911240875720977783203125</LongitudeDegrees>
            </Position>
            <AltitudeMeters>386</AltitudeMeters>
            <DistanceMeters>NAN</DistanceMeters>
          </Trackpoint>
          <Trackpoint>
            <Time>2019-10-10T10:11:42.000Z</Time>
            <Position>
              <LatitudeDegrees>37.94306441210210323333740234375</LatitudeDegrees>
              <LongitudeDegrees>-6.231684498488903045654296875</LongitudeDegrees>
            </Position>
            <AltitudeMeters>387</AltitudeMeters>
            <DistanceMeters>NAN</DistanceMeters>
          </Trackpoint>
          <Trackpoint>
            <Time>2019-10-10T10:11:44.000Z</Time>
            <Position>
              <LatitudeDegrees>37.943004481494426727294921875</LatitudeDegrees>
              <LongitudeDegrees>-6.23170939274132251739501953125</LongitudeDegrees>
            </Position>
            <AltitudeMeters>387.20001220703125</AltitudeMeters>
            <DistanceMeters>NAN</DistanceMeters>
          </Trackpoint>
          <Trackpoint>
            <Time>2019-10-10T10:11:47.000Z</Time>
            <Position>
              <LatitudeDegrees>37.9429121129214763641357421875</LatitudeDegrees>
              <LongitudeDegrees>-6.2317453511059284210205078125</LongitudeDegrees>
            </Position>
            <AltitudeMeters>388</AltitudeMeters>
            <DistanceMeters>NAN</DistanceMeters>
          </Trackpoint>
          <Trackpoint>
            <Time>2019-10-10T10:11:51.000Z</Time>
            <Position>
              <LatitudeDegrees>37.9427894018590450286865234375</LatitudeDegrees>
              <LongitudeDegrees>-6.2317926250398159027099609375</LongitudeDegrees>
            </Position>
            <AltitudeMeters>388.600006103515625</AltitudeMeters>
            <DistanceMeters>NAN</DistanceMeters>
          </Trackpoint>
          <Trackpoint>
            <Time>2019-10-10T10:11:52.000Z</Time>
            <Position>
              <LatitudeDegrees>37.94276140630245208740234375</LatitudeDegrees>
              <LongitudeDegrees>-6.23180461116135120391845703125</LongitudeDegrees>
            </Position>
            <AltitudeMeters>388.79998779296875</AltitudeMeters>
            <DistanceMeters>NAN</DistanceMeters>
          </Trackpoint>
          <Trackpoint>
            <Time>2019-10-10T10:11:54.000Z</Time>
            <Position>
              <LatitudeDegrees>37.94270231388509273529052734375</LatitudeDegrees>
              <LongitudeDegrees>-6.231836378574371337890625</LongitudeDegrees>
            </Position>
            <AltitudeMeters>389.20001220703125</AltitudeMeters>
            <DistanceMeters>NAN</DistanceMeters>
          </Trackpoint>
          <Trackpoint>
            <Time>2019-10-10T10:11:58.000Z</Time>
            <Position>
              <LatitudeDegrees>37.942590415477752685546875</LatitudeDegrees>
              <LongitudeDegrees>-6.2318992428481578826904296875</LongitudeDegrees>
            </Position>
            <AltitudeMeters>389.79998779296875</AltitudeMeters>
            <DistanceMeters>NAN</DistanceMeters>
          </Trackpoint>
          <Trackpoint>
            <Time>2019-10-10T10:12:00.000Z</Time>
            <Position>
              <LatitudeDegrees>37.94253266416490077972412109375</LatitudeDegrees>
              <LongitudeDegrees>-6.231932602822780609130859375</LongitudeDegrees>
            </Position>
            <AltitudeMeters>390.20001220703125</AltitudeMeters>
            <DistanceMeters>NAN</DistanceMeters>
          </Trackpoint>
          <Trackpoint>
            <Time>2019-10-10T10:12:05.000Z</Time>
            <Position>
              <LatitudeDegrees>37.9423860646784305572509765625</LatitudeDegrees>
              <LongitudeDegrees>-6.23199798166751861572265625</LongitudeDegrees>
            </Position>
            <AltitudeMeters>390.600006103515625</AltitudeMeters>
            <DistanceMeters>NAN</DistanceMeters>
          </Trackpoint>
          <Trackpoint>
            <Time>2019-10-10T10:12:07.000Z</Time>
            <Position>
              <LatitudeDegrees>37.94232948683202266693115234375</LatitudeDegrees>
              <LongitudeDegrees>-6.23203125782310962677001953125</LongitudeDegrees>
            </Position>
            <AltitudeMeters>391.399993896484375</AltitudeMeters>
            <DistanceMeters>NAN</DistanceMeters>
          </Trackpoint>
          <Trackpoint>
            <Time>2019-10-10T10:12:12.000Z</Time>
            <Position>
              <LatitudeDegrees>37.94219219125807285308837890625</LatitudeDegrees>
              <LongitudeDegrees>-6.232119016349315643310546875</LongitudeDegrees>
            </Position>
            <AltitudeMeters>392</AltitudeMeters>
            <DistanceMeters>NAN</DistanceMeters>
          </Trackpoint>
          <Trackpoint>
            <Time>2019-10-10T10:12:16.000Z</Time>
            <Position>
              <LatitudeDegrees>37.94208414852619171142578125</LatitudeDegrees>
              <LongitudeDegrees>-6.23219805769622325897216796875</LongitudeDegrees>
            </Position>
            <AltitudeMeters>392.79998779296875</AltitudeMeters>
            <DistanceMeters>NAN</DistanceMeters>
          </Trackpoint>
          <Trackpoint>
            <Time>2019-10-10T10:12:20.000Z</Time>
            <Position>
              <LatitudeDegrees>37.94198012910783290863037109375</LatitudeDegrees>
              <LongitudeDegrees>-6.2322757579386234283447265625</LongitudeDegrees>
            </Position>
            <AltitudeMeters>393.79998779296875</AltitudeMeters>
            <DistanceMeters>NAN</DistanceMeters>
          </Trackpoint>
          <Trackpoint>
            <Time>2019-10-10T10:12:21.000Z</Time>
            <Position>
              <LatitudeDegrees>37.94195481576025485992431640625</LatitudeDegrees>
              <LongitudeDegrees>-6.23229294084012508392333984375</LongitudeDegrees>
            </Position>
            <AltitudeMeters>393.600006103515625</AltitudeMeters>
            <DistanceMeters>NAN</DistanceMeters>
          </Trackpoint>
          <Trackpoint>
            <Time>2019-10-10T10:12:27.000Z</Time>
            <Position>
              <LatitudeDegrees>37.941801510751247406005859375</LatitudeDegrees>
              <LongitudeDegrees>-6.2324091978371143341064453125</LongitudeDegrees>
            </Position>
            <AltitudeMeters>395.20001220703125</AltitudeMeters>
            <DistanceMeters>NAN</DistanceMeters>
          </Trackpoint>
          <Trackpoint>
            <Time>2019-10-10T10:12:31.000Z</Time>
            <Position>
              <LatitudeDegrees>37.941700257360935211181640625</LatitudeDegrees>
              <LongitudeDegrees>-6.23249561525881290435791015625</LongitudeDegrees>
            </Position>
            <AltitudeMeters>395.399993896484375</AltitudeMeters>
            <DistanceMeters>NAN</DistanceMeters>
          </Trackpoint>
          <Trackpoint>
            <Time>2019-10-10T10:12:36.000Z</Time>
            <Position>
              <LatitudeDegrees>37.94157092459499835968017578125</LatitudeDegrees>
              <LongitudeDegrees>-6.23259879648685455322265625</LongitudeDegrees>
            </Position>
            <AltitudeMeters>396.20001220703125</AltitudeMeters>
            <DistanceMeters>NAN</DistanceMeters>
          </Trackpoint>
          <Trackpoint>
            <Time>2019-10-10T10:12:38.000Z</Time>
            <Position>
              <LatitudeDegrees>37.9415230639278888702392578125</LatitudeDegrees>
              <LongitudeDegrees>-6.23264598660171031951904296875</LongitudeDegrees>
            </Position>
            <AltitudeMeters>397.20001220703125</AltitudeMeters>
            <DistanceMeters>NAN</DistanceMeters>
          </Trackpoint>
          <Trackpoint>
            <Time>2019-10-10T10:12:40.000Z</Time>
            <Position>
              <LatitudeDegrees>37.9414781369268894195556640625</LatitudeDegrees>
              <LongitudeDegrees>-6.23268990777432918548583984375</LongitudeDegrees>
            </Position>
            <AltitudeMeters>397.20001220703125</AltitudeMeters>
            <DistanceMeters>NAN</DistanceMeters>
          </Trackpoint>
          <Trackpoint>
            <Time>2019-10-10T10:12:45.000Z</Time>
            <Position>
              <LatitudeDegrees>37.94135802425444126129150390625</LatitudeDegrees>
              <LongitudeDegrees>-6.232780851423740386962890625</LongitudeDegrees>
            </Position>
            <AltitudeMeters>398.399993896484375</AltitudeMeters>
            <DistanceMeters>NAN</DistanceMeters>
          </Trackpoint>
          <Trackpoint>
            <Time>2019-10-10T10:12:48.000Z</Time>
            <Position>
              <LatitudeDegrees>37.94127973727881908416748046875</LatitudeDegrees>
              <LongitudeDegrees>-6.2328420393168926239013671875</LongitudeDegrees>
            </Position>
            <AltitudeMeters>398.399993896484375</AltitudeMeters>
            <DistanceMeters>NAN</DistanceMeters>
          </Trackpoint>
          <Trackpoint>
            <Time>2019-10-10T10:12:58.000Z</Time>
            <Position>
              <LatitudeDegrees>37.94097061268985271453857421875</LatitudeDegrees>
              <LongitudeDegrees>-6.23302887193858623504638671875</LongitudeDegrees>
            </Position>
            <AltitudeMeters>398.79998779296875</AltitudeMeters>
            <DistanceMeters>NAN</DistanceMeters>
          </Trackpoint>
          <Trackpoint>
            <Time>2019-10-10T10:13:08.000Z</Time>
            <Position>
              <LatitudeDegrees>37.9406067542731761932373046875</LatitudeDegrees>
              <LongitudeDegrees>-6.23318930156528949737548828125</LongitudeDegrees>
            </Position>
            <AltitudeMeters>398.600006103515625</AltitudeMeters>
            <DistanceMeters>NAN</DistanceMeters>
          </Trackpoint>
          <Trackpoint>
            <Time>2019-10-10T10:13:10.000Z</Time>
            <Position>
              <LatitudeDegrees>37.94053274206817150115966796875</LatitudeDegrees>
              <LongitudeDegrees>-6.2332222424447536468505859375</LongitudeDegrees>
            </Position>
            <AltitudeMeters>398.399993896484375</AltitudeMeters>
            <DistanceMeters>NAN</DistanceMeters>
          </Trackpoint>
          <Trackpoint>
            <Time>2019-10-10T10:13:14.000Z</Time>
            <Position>
              <LatitudeDegrees>37.9403842985630035400390625</LatitudeDegrees>
              <LongitudeDegrees>-6.2332852743566036224365234375</LongitudeDegrees>
            </Position>
            <AltitudeMeters>398.399993896484375</AltitudeMeters>
            <DistanceMeters>NAN</DistanceMeters>
          </Trackpoint>
          <Trackpoint>
            <Time>2019-10-10T10:13:18.000Z</Time>
            <Position>
              <LatitudeDegrees>37.9402362741529941558837890625</LatitudeDegrees>
              <LongitudeDegrees>-6.23335249722003936767578125</LongitudeDegrees>
            </Position>
            <AltitudeMeters>398.399993896484375</AltitudeMeters>
            <DistanceMeters>NAN</DistanceMeters>
          </Trackpoint>
          <Trackpoint>
            <Time>2019-10-10T10:13:20.000Z</Time>
            <Position>
              <LatitudeDegrees>37.9401638545095920562744140625</LatitudeDegrees>
              <LongitudeDegrees>-6.2333835102617740631103515625</LongitudeDegrees>
            </Position>
            <AltitudeMeters>398.399993896484375</AltitudeMeters>
            <DistanceMeters>NAN</DistanceMeters>
          </Trackpoint>
          <Trackpoint>
            <Time>2019-10-10T10:13:24.000Z</Time>
            <Position>
              <LatitudeDegrees>37.94001926667988300323486328125</LatitudeDegrees>
              <LongitudeDegrees>-6.23343832790851593017578125</LongitudeDegrees>
            </Position>
            <AltitudeMeters>398.79998779296875</AltitudeMeters>
            <DistanceMeters>NAN</DistanceMeters>
          </Trackpoint>
          <Trackpoint>
            <Time>2019-10-10T10:13:26.000Z</Time>
            <Position>
              <LatitudeDegrees>37.9399522952735424041748046875</LatitudeDegrees>
              <LongitudeDegrees>-6.23346238397061824798583984375</LongitudeDegrees>
            </Position>
            <AltitudeMeters>399.600006103515625</AltitudeMeters>
            <DistanceMeters>NAN</DistanceMeters>
          </Trackpoint>
          <Trackpoint>
            <Time>2019-10-10T10:13:29.000Z</Time>
            <Position>
              <LatitudeDegrees>37.93986864387989044189453125</LatitudeDegrees>
              <LongitudeDegrees>-6.23349842615425586700439453125</LongitudeDegrees>
            </Position>
            <AltitudeMeters>399.79998779296875</AltitudeMeters>
            <DistanceMeters>NAN</DistanceMeters>
          </Trackpoint>
          <Trackpoint>
            <Time>2019-10-10T10:13:34.000Z</Time>
            <Position>
              <LatitudeDegrees>37.939741909503936767578125</LatitudeDegrees>
              <LongitudeDegrees>-6.2335484661161899566650390625</LongitudeDegrees>
            </Position>
            <AltitudeMeters>401</AltitudeMeters>
            <DistanceMeters>NAN</DistanceMeters>
          </Trackpoint>
          <Trackpoint>
            <Time>2019-10-10T10:13:38.000Z</Time>
            <Position>
              <LatitudeDegrees>37.93963889591395854949951171875</LatitudeDegrees>
              <LongitudeDegrees>-6.23359121382236480712890625</LongitudeDegrees>
            </Position>
            <AltitudeMeters>401.600006103515625</AltitudeMeters>
            <DistanceMeters>NAN</DistanceMeters>
          </Trackpoint>
          <Trackpoint>
            <Time>2019-10-10T10:13:39.000Z</Time>
            <Position>
              <LatitudeDegrees>37.93961324729025363922119140625</LatitudeDegrees>
              <LongitudeDegrees>-6.23360060155391693115234375</LongitudeDegrees>
            </Position>
            <AltitudeMeters>402</AltitudeMeters>
            <DistanceMeters>NAN</DistanceMeters>
          </Trackpoint>
          <Trackpoint>
            <Time>2019-10-10T10:13:44.000Z</Time>
            <Position>
              <LatitudeDegrees>37.9394869320094585418701171875</LatitudeDegrees>
              <LongitudeDegrees>-6.2336547486484050750732421875</LongitudeDegrees>
            </Position>
            <AltitudeMeters>403.20001220703125</AltitudeMeters>
            <DistanceMeters>NAN</DistanceMeters>
          </Trackpoint>
          <Trackpoint>
            <Time>2019-10-10T10:13:46.000Z</Time>
            <Position>
              <LatitudeDegrees>37.9394379816949367523193359375</LatitudeDegrees>
              <LongitudeDegrees>-6.23367545194923877716064453125</LongitudeDegrees>
            </Position>
            <AltitudeMeters>403.600006103515625</AltitudeMeters>
            <DistanceMeters>NAN</DistanceMeters>
          </Trackpoint>
          <Trackpoint>
            <Time>2019-10-10T10:13:52.000Z</Time>
            <Position>
              <LatitudeDegrees>37.93928660452365875244140625</LatitudeDegrees>
              <LongitudeDegrees>-6.23373798094689846038818359375</LongitudeDegrees>
            </Position>
            <AltitudeMeters>404.399993896484375</AltitudeMeters>
            <DistanceMeters>NAN</DistanceMeters>
          </Trackpoint>
          <Trackpoint>
            <Time>2019-10-10T10:13:55.000Z</Time>
            <Position>
              <LatitudeDegrees>37.93921284377574920654296875</LatitudeDegrees>
              <LongitudeDegrees>-6.23377167619764804840087890625</LongitudeDegrees>
            </Position>
            <AltitudeMeters>404.600006103515625</AltitudeMeters>
            <DistanceMeters>NAN</DistanceMeters>
          </Trackpoint>
          <Trackpoint>
            <Time>2019-10-10T10:13:59.000Z</Time>
            <Position>
              <LatitudeDegrees>37.93911091983318328857421875</LatitudeDegrees>
              <LongitudeDegrees>-6.23381073586642742156982421875</LongitudeDegrees>
            </Position>
            <AltitudeMeters>405.399993896484375</AltitudeMeters>
            <DistanceMeters>NAN</DistanceMeters>
          </Trackpoint>
          <Trackpoint>
            <Time>2019-10-10T10:14:02.000Z</Time>
            <Position>
              <LatitudeDegrees>37.9390366561710834503173828125</LatitudeDegrees>
              <LongitudeDegrees>-6.23384258709847927093505859375</LongitudeDegrees>
            </Position>
            <AltitudeMeters>406</AltitudeMeters>
            <DistanceMeters>NAN</DistanceMeters>
          </Trackpoint>
          <Trackpoint>
            <Time>2019-10-10T10:14:07.000Z</Time>
            <Position>
              <LatitudeDegrees>37.93891050852835178375244140625</LatitudeDegrees>
              <LongitudeDegrees>-6.23389438726007938385009765625</LongitudeDegrees>
            </Position>
            <AltitudeMeters>406.79998779296875</AltitudeMeters>
            <DistanceMeters>NAN</DistanceMeters>
          </Trackpoint>
          <Trackpoint>
            <Time>2019-10-10T10:14:11.000Z</Time>
            <Position>
              <LatitudeDegrees>37.93881059624254703521728515625</LatitudeDegrees>
              <LongitudeDegrees>-6.23395062983036041259765625</LongitudeDegrees>
            </Position>
            <AltitudeMeters>407.79998779296875</AltitudeMeters>
            <DistanceMeters>NAN</DistanceMeters>
          </Trackpoint>
          <Trackpoint>
            <Time>2019-10-10T10:14:12.000Z</Time>
            <Position>
              <LatitudeDegrees>37.9387845285236835479736328125</LatitudeDegrees>
              <LongitudeDegrees>-6.23396345414221286773681640625</LongitudeDegrees>
            </Position>
            <AltitudeMeters>408</AltitudeMeters>
            <DistanceMeters>NAN</DistanceMeters>
          </Trackpoint>
          <Trackpoint>
            <Time>2019-10-10T10:14:17.000Z</Time>
            <Position>
              <LatitudeDegrees>37.9386534355580806732177734375</LatitudeDegrees>
              <LongitudeDegrees>-6.23401089571416378021240234375</LongitudeDegrees>
            </Position>
            <AltitudeMeters>409.20001220703125</AltitudeMeters>
            <DistanceMeters>NAN</DistanceMeters>
          </Trackpoint>
          <Trackpoint>
            <Time>2019-10-10T10:14:19.000Z</Time>
            <Position>
              <LatitudeDegrees>37.938599623739719390869140625</LatitudeDegrees>
              <LongitudeDegrees>-6.2340305931866168975830078125</LongitudeDegrees>
            </Position>
            <AltitudeMeters>409.399993896484375</AltitudeMeters>
            <DistanceMeters>NAN</DistanceMeters>
          </Trackpoint>
          <Trackpoint>
            <Time>2019-10-10T10:14:25.000Z</Time>
            <Position>
              <LatitudeDegrees>37.93843676336109638214111328125</LatitudeDegrees>
              <LongitudeDegrees>-6.234101839363574981689453125</LongitudeDegrees>
            </Position>
            <AltitudeMeters>410.20001220703125</AltitudeMeters>
            <DistanceMeters>NAN</DistanceMeters>
          </Trackpoint>
          <Trackpoint>
            <Time>2019-10-10T10:14:29.000Z</Time>
            <Position>
              <LatitudeDegrees>37.938332073390483856201171875</LatitudeDegrees>
              <LongitudeDegrees>-6.23415154404938220977783203125</LongitudeDegrees>
            </Position>
            <AltitudeMeters>411</AltitudeMeters>
            <DistanceMeters>NAN</DistanceMeters>
          </Trackpoint>
          <Trackpoint>
            <Time>2019-10-10T10:14:32.000Z</Time>
            <Position>
              <LatitudeDegrees>37.93825470842421054840087890625</LatitudeDegrees>
              <LongitudeDegrees>-6.23418322764337062835693359375</LongitudeDegrees>
            </Position>
            <AltitudeMeters>411.399993896484375</AltitudeMeters>
            <DistanceMeters>NAN</DistanceMeters>
          </Trackpoint>
          <Trackpoint>
            <Time>2019-10-10T10:14:37.000Z</Time>
            <Position>
              <LatitudeDegrees>37.93812914751470088958740234375</LatitudeDegrees>
              <LongitudeDegrees>-6.23424994759261608123779296875</LongitudeDegrees>
            </Position>
            <AltitudeMeters>411.79998779296875</AltitudeMeters>
            <DistanceMeters>NAN</DistanceMeters>
          </Trackpoint>
          <Trackpoint>
            <Time>2019-10-10T10:14:41.000Z</Time>
            <Position>
              <LatitudeDegrees>37.938030660152435302734375</LatitudeDegrees>
              <LongitudeDegrees>-6.23430007137358188629150390625</LongitudeDegrees>
            </Position>
            <AltitudeMeters>412.600006103515625</AltitudeMeters>
            <DistanceMeters>NAN</DistanceMeters>
          </Trackpoint>
          <Trackpoint>
            <Time>2019-10-10T10:14:46.000Z</Time>
            <Position>
              <LatitudeDegrees>37.93790417723357677459716796875</LatitudeDegrees>
              <LongitudeDegrees>-6.23437114991247653961181640625</LongitudeDegrees>
            </Position>
            <AltitudeMeters>413.600006103515625</AltitudeMeters>
            <DistanceMeters>NAN</DistanceMeters>
          </Trackpoint>
          <Trackpoint>
            <Time>2019-10-10T10:14:48.000Z</Time>
            <Position>
              <LatitudeDegrees>37.93785707093775272369384765625</LatitudeDegrees>
              <LongitudeDegrees>-6.23440216295421123504638671875</LongitudeDegrees>
            </Position>
            <AltitudeMeters>413.600006103515625</AltitudeMeters>
            <DistanceMeters>NAN</DistanceMeters>
          </Trackpoint>
          <Trackpoint>
            <Time>2019-10-10T10:14:52.000Z</Time>
            <Position>
              <LatitudeDegrees>37.937766127288341522216796875</LatitudeDegrees>
              <LongitudeDegrees>-6.2344657815992832183837890625</LongitudeDegrees>
            </Position>
            <AltitudeMeters>414.79998779296875</AltitudeMeters>
            <DistanceMeters>NAN</DistanceMeters>
          </Trackpoint>
          <Trackpoint>
            <Time>2019-10-10T10:14:57.000Z</Time>
            <Position>
              <LatitudeDegrees>37.93765573762357234954833984375</LatitudeDegrees>
              <LongitudeDegrees>-6.2345566414296627044677734375</LongitudeDegrees>
            </Position>
            <AltitudeMeters>415.79998779296875</AltitudeMeters>
            <DistanceMeters>NAN</DistanceMeters>
          </Trackpoint>
          <Trackpoint>
            <Time>2019-10-10T10:14:59.000Z</Time>
            <Position>
              <LatitudeDegrees>37.93761265464127063751220703125</LatitudeDegrees>
              <LongitudeDegrees>-6.2345951981842517852783203125</LongitudeDegrees>
            </Position>
            <AltitudeMeters>416</AltitudeMeters>
            <DistanceMeters>NAN</DistanceMeters>
          </Trackpoint>
          <Trackpoint>
            <Time>2019-10-10T10:15:04.000Z</Time>
            <Position>
              <LatitudeDegrees>37.93751006014645099639892578125</LatitudeDegrees>
              <LongitudeDegrees>-6.234694607555866241455078125</LongitudeDegrees>
            </Position>
            <AltitudeMeters>416.79998779296875</AltitudeMeters>
            <DistanceMeters>NAN</DistanceMeters>
          </Trackpoint>
          <Trackpoint>
            <Time>2019-10-10T10:15:07.000Z</Time>
            <Position>
              <LatitudeDegrees>37.9374484531581401824951171875</LatitudeDegrees>
              <LongitudeDegrees>-6.23476258479058742523193359375</LongitudeDegrees>
            </Position>
            <AltitudeMeters>417.20001220703125</AltitudeMeters>
            <DistanceMeters>NAN</DistanceMeters>
          </Trackpoint>
          <Trackpoint>
            <Time>2019-10-10T10:15:11.000Z</Time>
            <Position>
              <LatitudeDegrees>37.93736069463193416595458984375</LatitudeDegrees>
              <LongitudeDegrees>-6.2348593957722187042236328125</LongitudeDegrees>
            </Position>
            <AltitudeMeters>417.399993896484375</AltitudeMeters>
            <DistanceMeters>NAN</DistanceMeters>
          </Trackpoint>
          <Trackpoint>
            <Time>2019-10-10T10:15:15.000Z</Time>
            <Position>
              <LatitudeDegrees>37.93725525029003620147705078125</LatitudeDegrees>
              <LongitudeDegrees>-6.23497649095952510833740234375</LongitudeDegrees>
            </Position>
            <AltitudeMeters>416.79998779296875</AltitudeMeters>
            <DistanceMeters>NAN</DistanceMeters>
          </Trackpoint>
          <Trackpoint>
            <Time>2019-10-10T10:15:21.000Z</Time>
            <Position>
              <LatitudeDegrees>37.93705165386199951171875</LatitudeDegrees>
              <LongitudeDegrees>-6.23520632274448871612548828125</LongitudeDegrees>
            </Position>
            <AltitudeMeters>415.600006103515625</AltitudeMeters>
            <DistanceMeters>NAN</DistanceMeters>
          </Trackpoint>
          <Trackpoint>
            <Time>2019-10-10T10:15:22.000Z</Time>
            <Position>
              <LatitudeDegrees>37.93701267801225185394287109375</LatitudeDegrees>
              <LongitudeDegrees>-6.2352496571838855743408203125</LongitudeDegrees>
            </Position>
            <AltitudeMeters>415.399993896484375</AltitudeMeters>
            <DistanceMeters>NAN</DistanceMeters>
          </Trackpoint>
          <Trackpoint>
            <Time>2019-10-10T10:15:27.000Z</Time>
            <Position>
              <LatitudeDegrees>37.93680916540324687957763671875</LatitudeDegrees>
              <LongitudeDegrees>-6.23548409901559352874755859375</LongitudeDegrees>
            </Position>
            <AltitudeMeters>414.79998779296875</AltitudeMeters>
            <DistanceMeters>NAN</DistanceMeters>
          </Trackpoint>
          <Trackpoint>
            <Time>2019-10-10T10:15:28.000Z</Time>
            <Position>
              <LatitudeDegrees>37.936762981116771697998046875</LatitudeDegrees>
              <LongitudeDegrees>-6.23552835546433925628662109375</LongitudeDegrees>
            </Position>
            <AltitudeMeters>414.399993896484375</AltitudeMeters>
            <DistanceMeters>NAN</DistanceMeters>
          </Trackpoint>
          <Trackpoint>
            <Time>2019-10-10T10:15:29.000Z</Time>
            <Position>
              <LatitudeDegrees>37.936715371906757354736328125</LatitudeDegrees>
              <LongitudeDegrees>-6.23556825332343578338623046875</LongitudeDegrees>
            </Position>
            <AltitudeMeters>414.399993896484375</AltitudeMeters>
            <DistanceMeters>NAN</DistanceMeters>
          </Trackpoint>
          <Trackpoint>
            <Time>2019-10-10T10:15:30.000Z</Time>
            <Position>
              <LatitudeDegrees>37.93666566722095012664794921875</LatitudeDegrees>
              <LongitudeDegrees>-6.2356077320873737335205078125</LongitudeDegrees>
            </Position>
            <AltitudeMeters>413.79998779296875</AltitudeMeters>
            <DistanceMeters>NAN</DistanceMeters>
          </Trackpoint>
          <Trackpoint>
            <Time>2019-10-10T10:15:33.000Z</Time>
            <Position>
              <LatitudeDegrees>37.936510182917118072509765625</LatitudeDegrees>
              <LongitudeDegrees>-6.23572248034179210662841796875</LongitudeDegrees>
            </Position>
            <AltitudeMeters>413.20001220703125</AltitudeMeters>
            <DistanceMeters>NAN</DistanceMeters>
          </Trackpoint>
          <Trackpoint>
            <Time>2019-10-10T10:15:36.000Z</Time>
            <Position>
              <LatitudeDegrees>37.93633039109408855438232421875</LatitudeDegrees>
              <LongitudeDegrees>-6.23581082560122013092041015625</LongitudeDegrees>
            </Position>
            <AltitudeMeters>412</AltitudeMeters>
            <DistanceMeters>NAN</DistanceMeters>
          </Trackpoint>
          <Trackpoint>
            <Time>2019-10-10T10:15:37.000Z</Time>
            <Position>
              <LatitudeDegrees>37.9362666048109531402587890625</LatitudeDegrees>
              <LongitudeDegrees>-6.23583395965397357940673828125</LongitudeDegrees>
            </Position>
            <AltitudeMeters>411.79998779296875</AltitudeMeters>
            <DistanceMeters>NAN</DistanceMeters>
          </Trackpoint>
          <Trackpoint>
            <Time>2019-10-10T10:15:39.000Z</Time>
            <Position>
              <LatitudeDegrees>37.93612838722765445709228515625</LatitudeDegrees>
              <LongitudeDegrees>-6.23587084002792835235595703125</LongitudeDegrees>
            </Position>
            <AltitudeMeters>411.79998779296875</AltitudeMeters>
            <DistanceMeters>NAN</DistanceMeters>
          </Trackpoint>
          <Trackpoint>
            <Time>2019-10-10T10:15:40.000Z</Time>
            <Position>
              <LatitudeDegrees>37.93605856597423553466796875</LatitudeDegrees>
              <LongitudeDegrees>-6.2358876876533031463623046875</LongitudeDegrees>
            </Position>
            <AltitudeMeters>411.20001220703125</AltitudeMeters>
            <DistanceMeters>NAN</DistanceMeters>
          </Trackpoint>
          <Trackpoint>
            <Time>2019-10-10T10:15:41.000Z</Time>
            <Position>
              <LatitudeDegrees>37.93598455376923084259033203125</LatitudeDegrees>
              <LongitudeDegrees>-6.2359031103551387786865234375</LongitudeDegrees>
            </Position>
            <AltitudeMeters>410.79998779296875</AltitudeMeters>
            <DistanceMeters>NAN</DistanceMeters>
          </Trackpoint>
          <Trackpoint>
            <Time>2019-10-10T10:15:43.000Z</Time>
            <Position>
              <LatitudeDegrees>37.93583862483501434326171875</LatitudeDegrees>
              <LongitudeDegrees>-6.23593454249203205108642578125</LongitudeDegrees>
            </Position>
            <AltitudeMeters>410.600006103515625</AltitudeMeters>
            <DistanceMeters>NAN</DistanceMeters>
          </Trackpoint>
          <Trackpoint>
            <Time>2019-10-10T10:15:45.000Z</Time>
            <Position>
              <LatitudeDegrees>37.9356855712831020355224609375</LatitudeDegrees>
              <LongitudeDegrees>-6.23596765100955963134765625</LongitudeDegrees>
            </Position>
            <AltitudeMeters>409.79998779296875</AltitudeMeters>
            <DistanceMeters>NAN</DistanceMeters>
          </Trackpoint>
          <Trackpoint>
            <Time>2019-10-10T10:15:48.000Z</Time>
            <Position>
              <LatitudeDegrees>37.9354559071362018585205078125</LatitudeDegrees>
              <LongitudeDegrees>-6.236015260219573974609375</LongitudeDegrees>
            </Position>
            <AltitudeMeters>408.600006103515625</AltitudeMeters>
            <DistanceMeters>NAN</DistanceMeters>
          </Trackpoint>
          <Trackpoint>
            <Time>2019-10-10T10:15:52.000Z</Time>
            <Position>
              <LatitudeDegrees>37.93516539037227630615234375</LatitudeDegrees>
              <LongitudeDegrees>-6.236075274646282196044921875</LongitudeDegrees>
            </Position>
            <AltitudeMeters>408.79998779296875</AltitudeMeters>
            <DistanceMeters>NAN</DistanceMeters>
          </Trackpoint>
          <Trackpoint>
            <Time>2019-10-10T10:15:55.000Z</Time>
            <Position>
              <LatitudeDegrees>37.93495760299265384674072265625</LatitudeDegrees>
              <LongitudeDegrees>-6.2361190281808376312255859375</LongitudeDegrees>
            </Position>
            <AltitudeMeters>408.600006103515625</AltitudeMeters>
            <DistanceMeters>NAN</DistanceMeters>
          </Trackpoint>
          <Trackpoint>
            <Time>2019-10-10T10:16:04.000Z</Time>
            <Position>
              <LatitudeDegrees>37.93439400382339954376220703125</LatitudeDegrees>
              <LongitudeDegrees>-6.2362414039671421051025390625</LongitudeDegrees>
            </Position>
            <AltitudeMeters>408.20001220703125</AltitudeMeters>
            <DistanceMeters>NAN</DistanceMeters>
          </Trackpoint>
          <Trackpoint>
            <Time>2019-10-10T10:16:12.000Z</Time>
            <Position>
              <LatitudeDegrees>37.93388622812926769256591796875</LatitudeDegrees>
              <LongitudeDegrees>-6.23634022660553455352783203125</LongitudeDegrees>
            </Position>
            <AltitudeMeters>407.399993896484375</AltitudeMeters>
            <DistanceMeters>NAN</DistanceMeters>
          </Trackpoint>
          <Trackpoint>
            <Time>2019-10-10T10:16:15.000Z</Time>
            <Position>
              <LatitudeDegrees>37.9336859844624996185302734375</LatitudeDegrees>
              <LongitudeDegrees>-6.23638733290135860443115234375</LongitudeDegrees>
            </Position>
            <AltitudeMeters>407.399993896484375</AltitudeMeters>
            <DistanceMeters>NAN</DistanceMeters>
          </Trackpoint>
          <Trackpoint>
            <Time>2019-10-10T10:16:19.000Z</Time>
            <Position>
              <LatitudeDegrees>37.93341667391359806060791015625</LatitudeDegrees>
              <LongitudeDegrees>-6.236452795565128326416015625</LongitudeDegrees>
            </Position>
            <AltitudeMeters>407.20001220703125</AltitudeMeters>
            <DistanceMeters>NAN</DistanceMeters>
          </Trackpoint>
          <Trackpoint>
            <Time>2019-10-10T10:16:26.000Z</Time>
            <Position>
              <LatitudeDegrees>37.932952903211116790771484375</LatitudeDegrees>
              <LongitudeDegrees>-6.23657391406595706939697265625</LongitudeDegrees>
            </Position>
            <AltitudeMeters>407.600006103515625</AltitudeMeters>
            <DistanceMeters>NAN</DistanceMeters>
          </Trackpoint>
          <Trackpoint>
            <Time>2019-10-10T10:16:33.000Z</Time>
            <Position>
              <LatitudeDegrees>37.932544536888599395751953125</LatitudeDegrees>
              <LongitudeDegrees>-6.23669729568064212799072265625</LongitudeDegrees>
            </Position>
            <AltitudeMeters>408.600006103515625</AltitudeMeters>
            <DistanceMeters>NAN</DistanceMeters>
          </Trackpoint>
          <Trackpoint>
            <Time>2019-10-10T10:16:39.000Z</Time>
            <Position>
              <LatitudeDegrees>37.932264916598796844482421875</LatitudeDegrees>
              <LongitudeDegrees>-6.23680558986961841583251953125</LongitudeDegrees>
            </Position>
            <AltitudeMeters>409.79998779296875</AltitudeMeters>
            <DistanceMeters>NAN</DistanceMeters>
          </Trackpoint>
          <Trackpoint>
            <Time>2019-10-10T10:16:40.000Z</Time>
            <Position>
              <LatitudeDegrees>37.932224012911319732666015625</LatitudeDegrees>
              <LongitudeDegrees>-6.2368227727711200714111328125</LongitudeDegrees>
            </Position>
            <AltitudeMeters>410</AltitudeMeters>
            <DistanceMeters>NAN</DistanceMeters>
          </Trackpoint>
          <Trackpoint>
            <Time>2019-10-10T10:16:44.000Z</Time>
            <Position>
              <LatitudeDegrees>37.93206634931266307830810546875</LatitudeDegrees>
              <LongitudeDegrees>-6.23688303865492343902587890625</LongitudeDegrees>
            </Position>
            <AltitudeMeters>411</AltitudeMeters>
            <DistanceMeters>NAN</DistanceMeters>
          </Trackpoint>
          <Trackpoint>
            <Time>2019-10-10T10:16:48.000Z</Time>
            <Position>
              <LatitudeDegrees>37.931932993233203887939453125</LatitudeDegrees>
              <LongitudeDegrees>-6.23692561872303485870361328125</LongitudeDegrees>
            </Position>
            <AltitudeMeters>412</AltitudeMeters>
            <DistanceMeters>NAN</DistanceMeters>
          </Trackpoint>
          <Trackpoint>
            <Time>2019-10-10T10:16:49.000Z</Time>
            <Position>
              <LatitudeDegrees>37.93190273456275463104248046875</LatitudeDegrees>
              <LongitudeDegrees>-6.23693735338747501373291015625</LongitudeDegrees>
            </Position>
            <AltitudeMeters>412.20001220703125</AltitudeMeters>
            <DistanceMeters>NAN</DistanceMeters>
          </Trackpoint>
          <Trackpoint>
            <Time>2019-10-10T10:16:55.000Z</Time>
            <Position>
              <LatitudeDegrees>37.93172277510166168212890625</LatitudeDegrees>
              <LongitudeDegrees>-6.236996948719024658203125</LongitudeDegrees>
            </Position>
            <AltitudeMeters>413</AltitudeMeters>
            <DistanceMeters>NAN</DistanceMeters>
          </Trackpoint>
          <Trackpoint>
            <Time>2019-10-10T10:16:57.000Z</Time>
            <Position>
              <LatitudeDegrees>37.9316698014736175537109375</LatitudeDegrees>
              <LongitudeDegrees>-6.23701865784823894500732421875</LongitudeDegrees>
            </Position>
            <AltitudeMeters>413.20001220703125</AltitudeMeters>
            <DistanceMeters>NAN</DistanceMeters>
          </Trackpoint>
          <Trackpoint>
            <Time>2019-10-10T10:17:03.000Z</Time>
            <Position>
              <LatitudeDegrees>37.931503839790821075439453125</LatitudeDegrees>
              <LongitudeDegrees>-6.2370836175978183746337890625</LongitudeDegrees>
            </Position>
            <AltitudeMeters>414.20001220703125</AltitudeMeters>
            <DistanceMeters>NAN</DistanceMeters>
          </Trackpoint>
          <Trackpoint>
            <Time>2019-10-10T10:17:04.000Z</Time>
            <Position>
              <LatitudeDegrees>37.931476347148418426513671875</LatitudeDegrees>
              <LongitudeDegrees>-6.23709023930132389068603515625</LongitudeDegrees>
            </Position>
            <AltitudeMeters>414.399993896484375</AltitudeMeters>
            <DistanceMeters>NAN</DistanceMeters>
          </Trackpoint>
          <Trackpoint>
            <Time>2019-10-10T10:17:11.000Z</Time>
            <Position>
              <LatitudeDegrees>37.93127962388098239898681640625</LatitudeDegrees>
              <LongitudeDegrees>-6.2371587194502353668212890625</LongitudeDegrees>
            </Position>
            <AltitudeMeters>415.399993896484375</AltitudeMeters>
            <DistanceMeters>NAN</DistanceMeters>
          </Trackpoint>
          <Trackpoint>
            <Time>2019-10-10T10:17:19.000Z</Time>
            <Position>
              <LatitudeDegrees>37.93105985037982463836669921875</LatitudeDegrees>
              <LongitudeDegrees>-6.23723574914038181304931640625</LongitudeDegrees>
            </Position>
            <AltitudeMeters>416.20001220703125</AltitudeMeters>
            <DistanceMeters>NAN</DistanceMeters>
          </Trackpoint>
          <Trackpoint>
            <Time>2019-10-10T10:17:21.000Z</Time>
            <Position>
              <LatitudeDegrees>37.9310031048953533172607421875</LatitudeDegrees>
              <LongitudeDegrees>-6.237254105508327484130859375</LongitudeDegrees>
            </Position>
            <AltitudeMeters>416.399993896484375</AltitudeMeters>
            <DistanceMeters>NAN</DistanceMeters>
          </Trackpoint>
          <Trackpoint>
            <Time>2019-10-10T10:17:23.000Z</Time>
            <Position>
              <LatitudeDegrees>37.93094987981021404266357421875</LatitudeDegrees>
              <LongitudeDegrees>-6.2372743897140026092529296875</LongitudeDegrees>
            </Position>
            <AltitudeMeters>416.399993896484375</AltitudeMeters>
            <DistanceMeters>NAN</DistanceMeters>
          </Trackpoint>
          <Trackpoint>
            <Time>2019-10-10T10:17:31.000Z</Time>
            <Position>
              <LatitudeDegrees>37.93073278851807117462158203125</LatitudeDegrees>
              <LongitudeDegrees>-6.23735711909830570220947265625</LongitudeDegrees>
            </Position>
            <AltitudeMeters>417.79998779296875</AltitudeMeters>
            <DistanceMeters>NAN</DistanceMeters>
          </Trackpoint>
          <Trackpoint>
            <Time>2019-10-10T10:17:34.000Z</Time>
            <Position>
              <LatitudeDegrees>37.93065165169537067413330078125</LatitudeDegrees>
              <LongitudeDegrees>-6.237382180988788604736328125</LongitudeDegrees>
            </Position>
            <AltitudeMeters>418.399993896484375</AltitudeMeters>
            <DistanceMeters>NAN</DistanceMeters>
          </Trackpoint>
          <Trackpoint>
            <Time>2019-10-10T10:17:36.000Z</Time>
            <Position>
              <LatitudeDegrees>37.93059716932475566864013671875</LatitudeDegrees>
              <LongitudeDegrees>-6.23740254901349544525146484375</LongitudeDegrees>
            </Position>
            <AltitudeMeters>418.79998779296875</AltitudeMeters>
            <DistanceMeters>NAN</DistanceMeters>
          </Trackpoint>
          <Trackpoint>
            <Time>2019-10-10T10:17:43.000Z</Time>
            <Position>
              <LatitudeDegrees>37.93040757067501544952392578125</LatitudeDegrees>
              <LongitudeDegrees>-6.23747128061950206756591796875</LongitudeDegrees>
            </Position>
            <AltitudeMeters>419.79998779296875</AltitudeMeters>
            <DistanceMeters>NAN</DistanceMeters>
          </Trackpoint>
          <Trackpoint>
            <Time>2019-10-10T10:17:44.000Z</Time>
            <Position>
              <LatitudeDegrees>37.93038074858486652374267578125</LatitudeDegrees>
              <LongitudeDegrees>-6.23748335056006908416748046875</LongitudeDegrees>
            </Position>
            <AltitudeMeters>420.20001220703125</AltitudeMeters>
            <DistanceMeters>NAN</DistanceMeters>
          </Trackpoint>
          <Trackpoint>
            <Time>2019-10-10T10:17:53.000Z</Time>
            <Position>
              <LatitudeDegrees>37.9301374219357967376708984375</LatitudeDegrees>
              <LongitudeDegrees>-6.2375737912952899932861328125</LongitudeDegrees>
            </Position>
            <AltitudeMeters>421.20001220703125</AltitudeMeters>
            <DistanceMeters>NAN</DistanceMeters>
          </Trackpoint>
          <Trackpoint>
            <Time>2019-10-10T10:17:54.000Z</Time>
            <Position>
              <LatitudeDegrees>37.93011068366467952728271484375</LatitudeDegrees>
              <LongitudeDegrees>-6.23758275993168354034423828125</LongitudeDegrees>
            </Position>
            <AltitudeMeters>421.399993896484375</AltitudeMeters>
            <DistanceMeters>NAN</DistanceMeters>
          </Trackpoint>
          <Trackpoint>
            <Time>2019-10-10T10:18:02.000Z</Time>
            <Position>
              <LatitudeDegrees>37.92989325709640979766845703125</LatitudeDegrees>
              <LongitudeDegrees>-6.23766087926924228668212890625</LongitudeDegrees>
            </Position>
            <AltitudeMeters>422.600006103515625</AltitudeMeters>
            <DistanceMeters>NAN</DistanceMeters>
          </Trackpoint>
          <Trackpoint>
            <Time>2019-10-10T10:18:04.000Z</Time>
            <Position>
              <LatitudeDegrees>37.929836176335811614990234375</LatitudeDegrees>
              <LongitudeDegrees>-6.23767579905688762664794921875</LongitudeDegrees>
            </Position>
            <AltitudeMeters>422.600006103515625</AltitudeMeters>
            <DistanceMeters>NAN</DistanceMeters>
          </Trackpoint>
          <Trackpoint>
            <Time>2019-10-10T10:18:10.000Z</Time>
            <Position>
              <LatitudeDegrees>37.9296693764626979827880859375</LatitudeDegrees>
              <LongitudeDegrees>-6.23773229308426380157470703125</LongitudeDegrees>
            </Position>
            <AltitudeMeters>423.600006103515625</AltitudeMeters>
            <DistanceMeters>NAN</DistanceMeters>
          </Trackpoint>
          <Trackpoint>
            <Time>2019-10-10T10:18:15.000Z</Time>
            <Position>
              <LatitudeDegrees>37.92953400872647762298583984375</LatitudeDegrees>
              <LongitudeDegrees>-6.23778426088392734527587890625</LongitudeDegrees>
            </Position>
            <AltitudeMeters>424</AltitudeMeters>
            <DistanceMeters>NAN</DistanceMeters>
          </Trackpoint>
          <Trackpoint>
            <Time>2019-10-10T10:18:19.000Z</Time>
            <Position>
              <LatitudeDegrees>37.92942286469042301177978515625</LatitudeDegrees>
              <LongitudeDegrees>-6.23782684095203876495361328125</LongitudeDegrees>
            </Position>
            <AltitudeMeters>424.600006103515625</AltitudeMeters>
            <DistanceMeters>NAN</DistanceMeters>
          </Trackpoint>
          <Trackpoint>
            <Time>2019-10-10T10:18:26.000Z</Time>
            <Position>
              <LatitudeDegrees>37.92922639288008213043212890625</LatitudeDegrees>
              <LongitudeDegrees>-6.23790311627089977264404296875</LongitudeDegrees>
            </Position>
            <AltitudeMeters>424.79998779296875</AltitudeMeters>
            <DistanceMeters>NAN</DistanceMeters>
          </Trackpoint>
          <Trackpoint>
            <Time>2019-10-10T10:18:36.000Z</Time>
            <Position>
              <LatitudeDegrees>37.928933613002300262451171875</LatitudeDegrees>
              <LongitudeDegrees>-6.23800814151763916015625</LongitudeDegrees>
            </Position>
            <AltitudeMeters>425.79998779296875</AltitudeMeters>
            <DistanceMeters>NAN</DistanceMeters>
          </Trackpoint>
          <Trackpoint>
            <Time>2019-10-10T10:18:45.000Z</Time>
            <Position>
              <LatitudeDegrees>37.92861836962401866912841796875</LatitudeDegrees>
              <LongitudeDegrees>-6.23812138102948665618896484375</LongitudeDegrees>
            </Position>
            <AltitudeMeters>426</AltitudeMeters>
            <DistanceMeters>NAN</DistanceMeters>
          </Trackpoint>
          <Trackpoint>
            <Time>2019-10-10T10:18:46.000Z</Time>
            <Position>
              <LatitudeDegrees>37.928580902516841888427734375</LatitudeDegrees>
              <LongitudeDegrees>-6.2381347082555294036865234375</LongitudeDegrees>
            </Position>
            <AltitudeMeters>426</AltitudeMeters>
            <DistanceMeters>NAN</DistanceMeters>
          </Trackpoint>
          <Trackpoint>
            <Time>2019-10-10T10:18:54.000Z</Time>
            <Position>
              <LatitudeDegrees>37.9282870329916477203369140625</LatitudeDegrees>
              <LongitudeDegrees>-6.23823151923716068267822265625</LongitudeDegrees>
            </Position>
            <AltitudeMeters>426.600006103515625</AltitudeMeters>
            <DistanceMeters>NAN</DistanceMeters>
          </Trackpoint>
          <Trackpoint>
            <Time>2019-10-10T10:18:56.000Z</Time>
            <Position>
              <LatitudeDegrees>37.92821536771953105926513671875</LatitudeDegrees>
              <LongitudeDegrees>-6.23825431801378726959228515625</LongitudeDegrees>
            </Position>
            <AltitudeMeters>426.79998779296875</AltitudeMeters>
            <DistanceMeters>NAN</DistanceMeters>
          </Trackpoint>
          <Trackpoint>
            <Time>2019-10-10T10:19:05.000Z</Time>
            <Position>
              <LatitudeDegrees>37.927894257009029388427734375</LatitudeDegrees>
              <LongitudeDegrees>-6.2383626960217952728271484375</LongitudeDegrees>
            </Position>
            <AltitudeMeters>427</AltitudeMeters>
            <DistanceMeters>NAN</DistanceMeters>
          </Trackpoint>
          <Trackpoint>
            <Time>2019-10-10T10:19:06.000Z</Time>
            <Position>
              <LatitudeDegrees>37.92785762809216976165771484375</LatitudeDegrees>
              <LongitudeDegrees>-6.23837434686720371246337890625</LongitudeDegrees>
            </Position>
            <AltitudeMeters>427.399993896484375</AltitudeMeters>
            <DistanceMeters>NAN</DistanceMeters>
          </Trackpoint>
          <Trackpoint>
            <Time>2019-10-10T10:19:12.000Z</Time>
            <Position>
              <LatitudeDegrees>37.92763374745845794677734375</LatitudeDegrees>
              <LongitudeDegrees>-6.23843017034232616424560546875</LongitudeDegrees>
            </Position>
            <AltitudeMeters>428.20001220703125</AltitudeMeters>
            <DistanceMeters>NAN</DistanceMeters>
          </Trackpoint>
          <Trackpoint>
            <Time>2019-10-10T10:19:15.000Z</Time>
            <Position>
              <LatitudeDegrees>37.9275165684521198272705078125</LatitudeDegrees>
              <LongitudeDegrees>-6.2384461797773838043212890625</LongitudeDegrees>
            </Position>
            <AltitudeMeters>428.20001220703125</AltitudeMeters>
            <DistanceMeters>NAN</DistanceMeters>
          </Trackpoint>
          <Trackpoint>
            <Time>2019-10-10T10:19:25.000Z</Time>
            <Position>
              <LatitudeDegrees>37.92711549438536167144775390625</LatitudeDegrees>
              <LongitudeDegrees>-6.2384689785540103912353515625</LongitudeDegrees>
            </Position>
            <AltitudeMeters>428.79998779296875</AltitudeMeters>
            <DistanceMeters>NAN</DistanceMeters>
          </Trackpoint>
          <Trackpoint>
            <Time>2019-10-10T10:19:29.000Z</Time>
            <Position>
              <LatitudeDegrees>37.926954142749309539794921875</LatitudeDegrees>
              <LongitudeDegrees>-6.23845674097537994384765625</LongitudeDegrees>
            </Position>
            <AltitudeMeters>428.79998779296875</AltitudeMeters>
            <DistanceMeters>NAN</DistanceMeters>
          </Trackpoint>
          <Trackpoint>
            <Time>2019-10-10T10:19:33.000Z</Time>
            <Position>
              <LatitudeDegrees>37.92679077945649623870849609375</LatitudeDegrees>
              <LongitudeDegrees>-6.2384344451129436492919921875</LongitudeDegrees>
            </Position>
            <AltitudeMeters>429</AltitudeMeters>
            <DistanceMeters>NAN</DistanceMeters>
          </Trackpoint>
          <Trackpoint>
            <Time>2019-10-10T10:19:35.000Z</Time>
            <Position>
              <LatitudeDegrees>37.92670897208154201507568359375</LatitudeDegrees>
              <LongitudeDegrees>-6.23843268491327762603759765625</LongitudeDegrees>
            </Position>
            <AltitudeMeters>429</AltitudeMeters>
            <DistanceMeters>NAN</DistanceMeters>
          </Trackpoint>
          <Trackpoint>
            <Time>2019-10-10T10:19:39.000Z</Time>
            <Position>
              <LatitudeDegrees>37.92655885219573974609375</LatitudeDegrees>
              <LongitudeDegrees>-6.2384109757840633392333984375</LongitudeDegrees>
            </Position>
            <AltitudeMeters>429.20001220703125</AltitudeMeters>
            <DistanceMeters>NAN</DistanceMeters>
          </Trackpoint>
          <Trackpoint>
            <Time>2019-10-10T10:19:40.000Z</Time>
            <Position>
              <LatitudeDegrees>37.92652373202145099639892578125</LatitudeDegrees>
              <LongitudeDegrees>-6.23840703628957271575927734375</LongitudeDegrees>
            </Position>
            <AltitudeMeters>429.399993896484375</AltitudeMeters>
            <DistanceMeters>NAN</DistanceMeters>
          </Trackpoint>
          <Trackpoint>
            <Time>2019-10-10T10:19:46.000Z</Time>
            <Position>
              <LatitudeDegrees>37.92630597017705440521240234375</LatitudeDegrees>
              <LongitudeDegrees>-6.23837904073297977447509765625</LongitudeDegrees>
            </Position>
            <AltitudeMeters>429.79998779296875</AltitudeMeters>
            <DistanceMeters>NAN</DistanceMeters>
          </Trackpoint>
          <Trackpoint>
            <Time>2019-10-10T10:19:50.000Z</Time>
            <Position>
              <LatitudeDegrees>37.926166914403438568115234375</LatitudeDegrees>
              <LongitudeDegrees>-6.2383539788424968719482421875</LongitudeDegrees>
            </Position>
            <AltitudeMeters>430.600006103515625</AltitudeMeters>
            <DistanceMeters>NAN</DistanceMeters>
          </Trackpoint>
          <Trackpoint>
            <Time>2019-10-10T10:19:55.000Z</Time>
            <Position>
              <LatitudeDegrees>37.92599868960678577423095703125</LatitudeDegrees>
              <LongitudeDegrees>-6.2383227981626987457275390625</LongitudeDegrees>
            </Position>
            <AltitudeMeters>431.399993896484375</AltitudeMeters>
            <DistanceMeters>NAN</DistanceMeters>
          </Trackpoint>
          <Trackpoint>
            <Time>2019-10-10T10:19:57.000Z</Time>
            <Position>
              <LatitudeDegrees>37.9259313829243183135986328125</LatitudeDegrees>
              <LongitudeDegrees>-6.2383139133453369140625</LongitudeDegrees>
            </Position>
            <AltitudeMeters>432</AltitudeMeters>
            <DistanceMeters>NAN</DistanceMeters>
          </Trackpoint>
          <Trackpoint>
            <Time>2019-10-10T10:20:01.000Z</Time>
            <Position>
              <LatitudeDegrees>37.9257929138839244842529296875</LatitudeDegrees>
              <LongitudeDegrees>-6.2382953055202960968017578125</LongitudeDegrees>
            </Position>
            <AltitudeMeters>432.600006103515625</AltitudeMeters>
            <DistanceMeters>NAN</DistanceMeters>
          </Trackpoint>
          <Trackpoint>
            <Time>2019-10-10T10:20:03.000Z</Time>
            <Position>
              <LatitudeDegrees>37.92572393082082271575927734375</LatitudeDegrees>
              <LongitudeDegrees>-6.2382768653333187103271484375</LongitudeDegrees>
            </Position>
            <AltitudeMeters>432.79998779296875</AltitudeMeters>
            <DistanceMeters>NAN</DistanceMeters>
          </Trackpoint>
          <Trackpoint>
            <Time>2019-10-10T10:20:06.000Z</Time>
            <Position>
              <LatitudeDegrees>37.92562083341181278228759765625</LatitudeDegrees>
              <LongitudeDegrees>-6.238261945545673370361328125</LongitudeDegrees>
            </Position>
            <AltitudeMeters>433</AltitudeMeters>
            <DistanceMeters>NAN</DistanceMeters>
          </Trackpoint>
          <Trackpoint>
            <Time>2019-10-10T10:20:11.000Z</Time>
            <Position>
              <LatitudeDegrees>37.9254559613764286041259765625</LatitudeDegrees>
              <LongitudeDegrees>-6.238243840634822845458984375</LongitudeDegrees>
            </Position>
            <AltitudeMeters>433.79998779296875</AltitudeMeters>
            <DistanceMeters>NAN</DistanceMeters>
          </Trackpoint>
          <Trackpoint>
            <Time>2019-10-10T10:20:13.000Z</Time>
            <Position>
              <LatitudeDegrees>37.92539049871265888214111328125</LatitudeDegrees>
              <LongitudeDegrees>-6.238227747380733489990234375</LongitudeDegrees>
            </Position>
            <AltitudeMeters>434.20001220703125</AltitudeMeters>
            <DistanceMeters>NAN</DistanceMeters>
          </Trackpoint>
          <Trackpoint>
            <Time>2019-10-10T10:20:17.000Z</Time>
            <Position>
              <LatitudeDegrees>37.9252527840435504913330078125</LatitudeDegrees>
              <LongitudeDegrees>-6.23821240849792957305908203125</LongitudeDegrees>
            </Position>
            <AltitudeMeters>434.20001220703125</AltitudeMeters>
            <DistanceMeters>NAN</DistanceMeters>
          </Trackpoint>
          <Trackpoint>
            <Time>2019-10-10T10:20:22.000Z</Time>
            <Position>
              <LatitudeDegrees>37.92509528808295726776123046875</LatitudeDegrees>
              <LongitudeDegrees>-6.23819447122514247894287109375</LongitudeDegrees>
            </Position>
            <AltitudeMeters>435</AltitudeMeters>
            <DistanceMeters>NAN</DistanceMeters>
          </Trackpoint>
          <Trackpoint>
            <Time>2019-10-10T10:20:24.000Z</Time>
            <Position>
              <LatitudeDegrees>37.9250338487327098846435546875</LatitudeDegrees>
              <LongitudeDegrees>-6.23818273656070232391357421875</LongitudeDegrees>
            </Position>
            <AltitudeMeters>435.20001220703125</AltitudeMeters>
            <DistanceMeters>NAN</DistanceMeters>
          </Trackpoint>
          <Trackpoint>
            <Time>2019-10-10T10:20:25.000Z</Time>
            <Position>
              <LatitudeDegrees>37.92500375770032405853271484375</LatitudeDegrees>
              <LongitudeDegrees>-6.2381772883236408233642578125</LongitudeDegrees>
            </Position>
            <AltitudeMeters>435.600006103515625</AltitudeMeters>
            <DistanceMeters>NAN</DistanceMeters>
          </Trackpoint>
          <Trackpoint>
            <Time>2019-10-10T10:20:27.000Z</Time>
            <Position>
              <LatitudeDegrees>37.92494776658713817596435546875</LatitudeDegrees>
              <LongitudeDegrees>-6.23816597275435924530029296875</LongitudeDegrees>
            </Position>
            <AltitudeMeters>436.20001220703125</AltitudeMeters>
            <DistanceMeters>NAN</DistanceMeters>
          </Trackpoint>
          <Trackpoint>
            <Time>2019-10-10T10:20:33.000Z</Time>
            <Position>
              <LatitudeDegrees>37.924782894551753997802734375</LatitudeDegrees>
              <LongitudeDegrees>-6.2381382286548614501953125</LongitudeDegrees>
            </Position>
            <AltitudeMeters>437.399993896484375</AltitudeMeters>
            <DistanceMeters>NAN</DistanceMeters>
          </Trackpoint>
          <Trackpoint>
            <Time>2019-10-10T10:20:34.000Z</Time>
            <Position>
              <LatitudeDegrees>37.92475347407162189483642578125</LatitudeDegrees>
              <LongitudeDegrees>-6.23813294805586338043212890625</LongitudeDegrees>
            </Position>
            <AltitudeMeters>437.600006103515625</AltitudeMeters>
            <DistanceMeters>NAN</DistanceMeters>
          </Trackpoint>
          <Trackpoint>
            <Time>2019-10-10T10:20:43.000Z</Time>
            <Position>
              <LatitudeDegrees>37.92451224289834499359130859375</LatitudeDegrees>
              <LongitudeDegrees>-6.2380968220531940460205078125</LongitudeDegrees>
            </Position>
            <AltitudeMeters>438.20001220703125</AltitudeMeters>
            <DistanceMeters>NAN</DistanceMeters>
          </Trackpoint>
          <Trackpoint>
            <Time>2019-10-10T10:20:44.000Z</Time>
            <Position>
              <LatitudeDegrees>37.9244839958846569061279296875</LatitudeDegrees>
              <LongitudeDegrees>-6.2380917929112911224365234375</LongitudeDegrees>
            </Position>
            <AltitudeMeters>438.399993896484375</AltitudeMeters>
            <DistanceMeters>NAN</DistanceMeters>
          </Trackpoint>
          <Trackpoint>
            <Time>2019-10-10T10:20:49.000Z</Time>
            <Position>
              <LatitudeDegrees>37.92434460483491420745849609375</LatitudeDegrees>
              <LongitudeDegrees>-6.2380733527243137359619140625</LongitudeDegrees>
            </Position>
            <AltitudeMeters>439.399993896484375</AltitudeMeters>
            <DistanceMeters>NAN</DistanceMeters>
          </Trackpoint>
          <Trackpoint>
            <Time>2019-10-10T10:20:52.000Z</Time>
            <Position>
              <LatitudeDegrees>37.9242623783648014068603515625</LatitudeDegrees>
              <LongitudeDegrees>-6.2380596064031124114990234375</LongitudeDegrees>
            </Position>
            <AltitudeMeters>439.79998779296875</AltitudeMeters>
            <DistanceMeters>NAN</DistanceMeters>
          </Trackpoint>
          <Trackpoint>
            <Time>2019-10-10T10:21:00.000Z</Time>
            <Position>
              <LatitudeDegrees>37.92404168285429477691650390625</LatitudeDegrees>
              <LongitudeDegrees>-6.23802280984818935394287109375</LongitudeDegrees>
            </Position>
            <AltitudeMeters>440.79998779296875</AltitudeMeters>
            <DistanceMeters>NAN</DistanceMeters>
          </Trackpoint>
          <Trackpoint>
            <Time>2019-10-10T10:21:03.000Z</Time>
            <Position>
              <LatitudeDegrees>37.9239596240222454071044921875</LatitudeDegrees>
              <LongitudeDegrees>-6.238007135689258575439453125</LongitudeDegrees>
            </Position>
            <AltitudeMeters>441.399993896484375</AltitudeMeters>
            <DistanceMeters>NAN</DistanceMeters>
          </Trackpoint>
          <Trackpoint>
            <Time>2019-10-10T10:21:07.000Z</Time>
            <Position>
              <LatitudeDegrees>37.92385040782392024993896484375</LatitudeDegrees>
              <LongitudeDegrees>-6.23799330554902553558349609375</LongitudeDegrees>
            </Position>
            <AltitudeMeters>442</AltitudeMeters>
            <DistanceMeters>NAN</DistanceMeters>
          </Trackpoint>
          <Trackpoint>
            <Time>2019-10-10T10:21:13.000Z</Time>
            <Position>
              <LatitudeDegrees>37.92368285357952117919921875</LatitudeDegrees>
              <LongitudeDegrees>-6.23798324726521968841552734375</LongitudeDegrees>
            </Position>
            <AltitudeMeters>443</AltitudeMeters>
            <DistanceMeters>NAN</DistanceMeters>
          </Trackpoint>
          <Trackpoint>
            <Time>2019-10-10T10:21:14.000Z</Time>
            <Position>
              <LatitudeDegrees>37.9236545227468013763427734375</LatitudeDegrees>
              <LongitudeDegrees>-6.23798073269426822662353515625</LongitudeDegrees>
            </Position>
            <AltitudeMeters>443.399993896484375</AltitudeMeters>
            <DistanceMeters>NAN</DistanceMeters>
          </Trackpoint>
          <Trackpoint>
            <Time>2019-10-10T10:21:22.000Z</Time>
            <Position>
              <LatitudeDegrees>37.92342695407569408416748046875</LatitudeDegrees>
              <LongitudeDegrees>-6.2379811517894268035888671875</LongitudeDegrees>
            </Position>
            <AltitudeMeters>444.20001220703125</AltitudeMeters>
            <DistanceMeters>NAN</DistanceMeters>
          </Trackpoint>
          <Trackpoint>
            <Time>2019-10-10T10:21:23.000Z</Time>
            <Position>
              <LatitudeDegrees>37.9233993776142597198486328125</LatitudeDegrees>
              <LongitudeDegrees>-6.23798693530261516571044921875</LongitudeDegrees>
            </Position>
            <AltitudeMeters>444.20001220703125</AltitudeMeters>
            <DistanceMeters>NAN</DistanceMeters>
          </Trackpoint>
          <Trackpoint>
            <Time>2019-10-10T10:21:30.000Z</Time>
            <Position>
              <LatitudeDegrees>37.92320382781326770782470703125</LatitudeDegrees>
              <LongitudeDegrees>-6.23802834190428256988525390625</LongitudeDegrees>
            </Position>
            <AltitudeMeters>445.399993896484375</AltitudeMeters>
            <DistanceMeters>NAN</DistanceMeters>
          </Trackpoint>
          <Trackpoint>
            <Time>2019-10-10T10:21:31.000Z</Time>
            <Position>
              <LatitudeDegrees>37.92317591607570648193359375</LatitudeDegrees>
              <LongitudeDegrees>-6.2380354665219783782958984375</LongitudeDegrees>
            </Position>
            <AltitudeMeters>445.399993896484375</AltitudeMeters>
            <DistanceMeters>NAN</DistanceMeters>
          </Trackpoint>
          <Trackpoint>
            <Time>2019-10-10T10:21:41.000Z</Time>
            <Position>
              <LatitudeDegrees>37.92289830744266510009765625</LatitudeDegrees>
              <LongitudeDegrees>-6.238104365766048431396484375</LongitudeDegrees>
            </Position>
            <AltitudeMeters>446.399993896484375</AltitudeMeters>
            <DistanceMeters>NAN</DistanceMeters>
          </Trackpoint>
          <Trackpoint>
            <Time>2019-10-10T10:21:51.000Z</Time>
            <Position>
              <LatitudeDegrees>37.922610975801944732666015625</LatitudeDegrees>
              <LongitudeDegrees>-6.23817251063883304595947265625</LongitudeDegrees>
            </Position>
            <AltitudeMeters>447.600006103515625</AltitudeMeters>
            <DistanceMeters>NAN</DistanceMeters>
          </Trackpoint>
          <Trackpoint>
            <Time>2019-10-10T10:21:59.000Z</Time>
            <Position>
              <LatitudeDegrees>37.92236396111547946929931640625</LatitudeDegrees>
              <LongitudeDegrees>-6.238201595842838287353515625</LongitudeDegrees>
            </Position>
            <AltitudeMeters>448.20001220703125</AltitudeMeters>
            <DistanceMeters>NAN</DistanceMeters>
          </Trackpoint>
          <Trackpoint>
            <Time>2019-10-10T10:22:06.000Z</Time>
            <Position>
              <LatitudeDegrees>37.92211099527776241302490234375</LatitudeDegrees>
              <LongitudeDegrees>-6.2381865084171295166015625</LongitudeDegrees>
            </Position>
            <AltitudeMeters>447.79998779296875</AltitudeMeters>
            <DistanceMeters>NAN</DistanceMeters>
          </Trackpoint>
          <Trackpoint>
            <Time>2019-10-10T10:22:11.000Z</Time>
            <Position>
              <LatitudeDegrees>37.92187529616057872772216796875</LatitudeDegrees>
              <LongitudeDegrees>-6.23812942765653133392333984375</LongitudeDegrees>
            </Position>
            <AltitudeMeters>447</AltitudeMeters>
            <DistanceMeters>NAN</DistanceMeters>
          </Trackpoint>
          <Trackpoint>
            <Time>2019-10-10T10:22:12.000Z</Time>
            <Position>
              <LatitudeDegrees>37.921824418008327484130859375</LatitudeDegrees>
              <LongitudeDegrees>-6.23811098746955394744873046875</LongitudeDegrees>
            </Position>
            <AltitudeMeters>446.79998779296875</AltitudeMeters>
            <DistanceMeters>NAN</DistanceMeters>
          </Trackpoint>
          <Trackpoint>
            <Time>2019-10-10T10:22:13.000Z</Time>
            <Position>
              <LatitudeDegrees>37.92177236638963222503662109375</LatitudeDegrees>
              <LongitudeDegrees>-6.2380886077880859375</LongitudeDegrees>
            </Position>
            <AltitudeMeters>446.20001220703125</AltitudeMeters>
            <DistanceMeters>NAN</DistanceMeters>
          </Trackpoint>
          <Trackpoint>
            <Time>2019-10-10T10:22:15.000Z</Time>
            <Position>
              <LatitudeDegrees>37.9216666705906391143798828125</LatitudeDegrees>
              <LongitudeDegrees>-6.23803965747356414794921875</LongitudeDegrees>
            </Position>
            <AltitudeMeters>445.600006103515625</AltitudeMeters>
            <DistanceMeters>NAN</DistanceMeters>
          </Trackpoint>
          <Trackpoint>
            <Time>2019-10-10T10:22:18.000Z</Time>
            <Position>
              <LatitudeDegrees>37.92150448076426982879638671875</LatitudeDegrees>
              <LongitudeDegrees>-6.23794469051063060760498046875</LongitudeDegrees>
            </Position>
            <AltitudeMeters>445.20001220703125</AltitudeMeters>
            <DistanceMeters>NAN</DistanceMeters>
          </Trackpoint>
          <Trackpoint>
            <Time>2019-10-10T10:22:19.000Z</Time>
            <Position>
              <LatitudeDegrees>37.92144916020333766937255859375</LatitudeDegrees>
              <LongitudeDegrees>-6.23790957033634185791015625</LongitudeDegrees>
            </Position>
            <AltitudeMeters>444.600006103515625</AltitudeMeters>
            <DistanceMeters>NAN</DistanceMeters>
          </Trackpoint>
          <Trackpoint>
            <Time>2019-10-10T10:22:24.000Z</Time>
            <Position>
              <LatitudeDegrees>37.921163924038410186767578125</LatitudeDegrees>
              <LongitudeDegrees>-6.23770329169929027557373046875</LongitudeDegrees>
            </Position>
            <AltitudeMeters>443.399993896484375</AltitudeMeters>
            <DistanceMeters>NAN</DistanceMeters>
          </Trackpoint>
          <Trackpoint>
            <Time>2019-10-10T10:22:28.000Z</Time>
            <Position>
              <LatitudeDegrees>37.92092227376997470855712890625</LatitudeDegrees>
              <LongitudeDegrees>-6.23752810992300510406494140625</LongitudeDegrees>
            </Position>
            <AltitudeMeters>442.20001220703125</AltitudeMeters>
            <DistanceMeters>NAN</DistanceMeters>
          </Trackpoint>
          <Trackpoint>
            <Time>2019-10-10T10:22:30.000Z</Time>
            <Position>
              <LatitudeDegrees>37.92079788632690906524658203125</LatitudeDegrees>
              <LongitudeDegrees>-6.23743825592100620269775390625</LongitudeDegrees>
            </Position>
            <AltitudeMeters>441.600006103515625</AltitudeMeters>
            <DistanceMeters>NAN</DistanceMeters>
          </Trackpoint>
          <Trackpoint>
            <Time>2019-10-10T10:22:32.000Z</Time>
            <Position>
              <LatitudeDegrees>37.92066981084644794464111328125</LatitudeDegrees>
              <LongitudeDegrees>-6.23734991066157817840576171875</LongitudeDegrees>
            </Position>
            <AltitudeMeters>441</AltitudeMeters>
            <DistanceMeters>NAN</DistanceMeters>
          </Trackpoint>
          <Trackpoint>
            <Time>2019-10-10T10:22:35.000Z</Time>
            <Position>
              <LatitudeDegrees>37.920475937426090240478515625</LatitudeDegrees>
              <LongitudeDegrees>-6.237213201820850372314453125</LongitudeDegrees>
            </Position>
            <AltitudeMeters>440.79998779296875</AltitudeMeters>
            <DistanceMeters>NAN</DistanceMeters>
          </Trackpoint>
          <Trackpoint>
            <Time>2019-10-10T10:22:37.000Z</Time>
            <Position>
              <LatitudeDegrees>37.920346520841121673583984375</LatitudeDegrees>
              <LongitudeDegrees>-6.23711538501083850860595703125</LongitudeDegrees>
            </Position>
            <AltitudeMeters>439.79998779296875</AltitudeMeters>
            <DistanceMeters>NAN</DistanceMeters>
          </Trackpoint>
          <Trackpoint>
            <Time>2019-10-10T10:22:40.000Z</Time>
            <Position>
              <LatitudeDegrees>37.92014862410724163055419921875</LatitudeDegrees>
              <LongitudeDegrees>-6.23697624541819095611572265625</LongitudeDegrees>
            </Position>
            <AltitudeMeters>438.399993896484375</AltitudeMeters>
            <DistanceMeters>NAN</DistanceMeters>
          </Trackpoint>
          <Trackpoint>
            <Time>2019-10-10T10:22:41.000Z</Time>
            <Position>
              <LatitudeDegrees>37.92008190415799617767333984375</LatitudeDegrees>
              <LongitudeDegrees>-6.23693182133138179779052734375</LongitudeDegrees>
            </Position>
            <AltitudeMeters>437.600006103515625</AltitudeMeters>
            <DistanceMeters>NAN</DistanceMeters>
          </Trackpoint>
          <Trackpoint>
            <Time>2019-10-10T10:22:43.000Z</Time>
            <Position>
              <LatitudeDegrees>37.91994343511760234832763671875</LatitudeDegrees>
              <LongitudeDegrees>-6.23684967868030071258544921875</LongitudeDegrees>
            </Position>
            <AltitudeMeters>437.79998779296875</AltitudeMeters>
            <DistanceMeters>NAN</DistanceMeters>
          </Trackpoint>
          <Trackpoint>
            <Time>2019-10-10T10:22:45.000Z</Time>
            <Position>
              <LatitudeDegrees>37.91980312205851078033447265625</LatitudeDegrees>
              <LongitudeDegrees>-6.23677139170467853546142578125</LongitudeDegrees>
            </Position>
            <AltitudeMeters>437.600006103515625</AltitudeMeters>
            <DistanceMeters>NAN</DistanceMeters>
          </Trackpoint>
          <Trackpoint>
            <Time>2019-10-10T10:22:46.000Z</Time>
            <Position>
              <LatitudeDegrees>37.9197314567863941192626953125</LatitudeDegrees>
              <LongitudeDegrees>-6.23673669062554836273193359375</LongitudeDegrees>
            </Position>
            <AltitudeMeters>437.20001220703125</AltitudeMeters>
            <DistanceMeters>NAN</DistanceMeters>
          </Trackpoint>
          <Trackpoint>
            <Time>2019-10-10T10:22:49.000Z</Time>
            <Position>
              <LatitudeDegrees>37.91951143182814121246337890625</LatitudeDegrees>
              <LongitudeDegrees>-6.23665052466094493865966796875</LongitudeDegrees>
            </Position>
            <AltitudeMeters>437.600006103515625</AltitudeMeters>
            <DistanceMeters>NAN</DistanceMeters>
          </Trackpoint>
          <Trackpoint>
            <Time>2019-10-10T10:22:52.000Z</Time>
            <Position>
              <LatitudeDegrees>37.91928864084184169769287109375</LatitudeDegrees>
              <LongitudeDegrees>-6.23658296652138233184814453125</LongitudeDegrees>
            </Position>
            <AltitudeMeters>437.79998779296875</AltitudeMeters>
            <DistanceMeters>NAN</DistanceMeters>
          </Trackpoint>
          <Trackpoint>
            <Time>2019-10-10T10:22:57.000Z</Time>
            <Position>
              <LatitudeDegrees>37.91891732253134250640869140625</LatitudeDegrees>
              <LongitudeDegrees>-6.23648623935878276824951171875</LongitudeDegrees>
            </Position>
            <AltitudeMeters>437</AltitudeMeters>
            <DistanceMeters>NAN</DistanceMeters>
          </Trackpoint>
          <Trackpoint>
            <Time>2019-10-10T10:22:59.000Z</Time>
            <Position>
              <LatitudeDegrees>37.91877181269228458404541015625</LatitudeDegrees>
              <LongitudeDegrees>-6.2364455871284008026123046875</LongitudeDegrees>
            </Position>
            <AltitudeMeters>436.79998779296875</AltitudeMeters>
            <DistanceMeters>NAN</DistanceMeters>
          </Trackpoint>
          <Trackpoint>
            <Time>2019-10-10T10:23:02.000Z</Time>
            <Position>
              <LatitudeDegrees>37.9185566492378711700439453125</LatitudeDegrees>
              <LongitudeDegrees>-6.2363840639591217041015625</LongitudeDegrees>
            </Position>
            <AltitudeMeters>436.79998779296875</AltitudeMeters>
            <DistanceMeters>NAN</DistanceMeters>
          </Trackpoint>
          <Trackpoint>
            <Time>2019-10-10T10:23:07.000Z</Time>
            <Position>
              <LatitudeDegrees>37.9182002507150173187255859375</LatitudeDegrees>
              <LongitudeDegrees>-6.2362665496766567230224609375</LongitudeDegrees>
            </Position>
            <AltitudeMeters>436.20001220703125</AltitudeMeters>
            <DistanceMeters>NAN</DistanceMeters>
          </Trackpoint>
          <Trackpoint>
            <Time>2019-10-10T10:23:08.000Z</Time>
            <Position>
              <LatitudeDegrees>37.91812858544290065765380859375</LatitudeDegrees>
              <LongitudeDegrees>-6.236241571605205535888671875</LongitudeDegrees>
            </Position>
            <AltitudeMeters>436</AltitudeMeters>
            <DistanceMeters>NAN</DistanceMeters>
          </Trackpoint>
          <Trackpoint>
            <Time>2019-10-10T10:23:13.000Z</Time>
            <Position>
              <LatitudeDegrees>37.917774282395839691162109375</LatitudeDegrees>
              <LongitudeDegrees>-6.23610402457416057586669921875</LongitudeDegrees>
            </Position>
            <AltitudeMeters>435.20001220703125</AltitudeMeters>
            <DistanceMeters>NAN</DistanceMeters>
          </Trackpoint>
          <Trackpoint>
            <Time>2019-10-10T10:23:18.000Z</Time>
            <Position>
              <LatitudeDegrees>37.91741880588233470916748046875</LatitudeDegrees>
              <LongitudeDegrees>-6.23594778589904308319091796875</LongitudeDegrees>
            </Position>
            <AltitudeMeters>433.79998779296875</AltitudeMeters>
            <DistanceMeters>NAN</DistanceMeters>
          </Trackpoint>
          <Trackpoint>
            <Time>2019-10-10T10:23:19.000Z</Time>
            <Position>
              <LatitudeDegrees>37.91734688915312290191650390625</LatitudeDegrees>
              <LongitudeDegrees>-6.23591375537216663360595703125</LongitudeDegrees>
            </Position>
            <AltitudeMeters>433.20001220703125</AltitudeMeters>
            <DistanceMeters>NAN</DistanceMeters>
          </Trackpoint>
          <Trackpoint>
            <Time>2019-10-10T10:23:21.000Z</Time>
            <Position>
              <LatitudeDegrees>37.91720406152307987213134765625</LatitudeDegrees>
              <LongitudeDegrees>-6.23584317974746227264404296875</LongitudeDegrees>
            </Position>
            <AltitudeMeters>432.399993896484375</AltitudeMeters>
            <DistanceMeters>NAN</DistanceMeters>
          </Trackpoint>
          <Trackpoint>
            <Time>2019-10-10T10:23:24.000Z</Time>
            <Position>
              <LatitudeDegrees>37.9169940948486328125</LatitudeDegrees>
              <LongitudeDegrees>-6.2357344664633274078369140625</LongitudeDegrees>
            </Position>
            <AltitudeMeters>431.20001220703125</AltitudeMeters>
            <DistanceMeters>NAN</DistanceMeters>
          </Trackpoint>
          <Trackpoint>
            <Time>2019-10-10T10:23:29.000Z</Time>
            <Position>
              <LatitudeDegrees>37.91663710959255695343017578125</LatitudeDegrees>
              <LongitudeDegrees>-6.23554947786033153533935546875</LongitudeDegrees>
            </Position>
            <AltitudeMeters>430.20001220703125</AltitudeMeters>
            <DistanceMeters>NAN</DistanceMeters>
          </Trackpoint>
          <Trackpoint>
            <Time>2019-10-10T10:23:30.000Z</Time>
            <Position>
              <LatitudeDegrees>37.916565276682376861572265625</LatitudeDegrees>
              <LongitudeDegrees>-6.23551058582961559295654296875</LongitudeDegrees>
            </Position>
            <AltitudeMeters>429.600006103515625</AltitudeMeters>
            <DistanceMeters>NAN</DistanceMeters>
          </Trackpoint>
          <Trackpoint>
            <Time>2019-10-10T10:23:36.000Z</Time>
            <Position>
              <LatitudeDegrees>37.9161383025348186492919921875</LatitudeDegrees>
              <LongitudeDegrees>-6.23528712429106235504150390625</LongitudeDegrees>
            </Position>
            <AltitudeMeters>428.399993896484375</AltitudeMeters>
            <DistanceMeters>NAN</DistanceMeters>
          </Trackpoint>
          <Trackpoint>
            <Time>2019-10-10T10:23:38.000Z</Time>
            <Position>
              <LatitudeDegrees>37.91599539108574390411376953125</LatitudeDegrees>
              <LongitudeDegrees>-6.2352134473621845245361328125</LongitudeDegrees>
            </Position>
            <AltitudeMeters>428.399993896484375</AltitudeMeters>
            <DistanceMeters>NAN</DistanceMeters>
          </Trackpoint>
          <Trackpoint>
            <Time>2019-10-10T10:23:41.000Z</Time>
            <Position>
              <LatitudeDegrees>37.91578282602131366729736328125</LatitudeDegrees>
              <LongitudeDegrees>-6.2351007945835590362548828125</LongitudeDegrees>
            </Position>
            <AltitudeMeters>427.20001220703125</AltitudeMeters>
            <DistanceMeters>NAN</DistanceMeters>
          </Trackpoint>
          <Trackpoint>
            <Time>2019-10-10T10:23:47.000Z</Time>
            <Position>
              <LatitudeDegrees>37.9153768904507160186767578125</LatitudeDegrees>
              <LongitudeDegrees>-6.2348168157041072845458984375</LongitudeDegrees>
            </Position>
            <AltitudeMeters>426.20001220703125</AltitudeMeters>
            <DistanceMeters>NAN</DistanceMeters>
          </Trackpoint>
          <Trackpoint>
            <Time>2019-10-10T10:23:48.000Z</Time>
            <Position>
              <LatitudeDegrees>37.91531478054821491241455078125</LatitudeDegrees>
              <LongitudeDegrees>-6.23475772328674793243408203125</LongitudeDegrees>
            </Position>
            <AltitudeMeters>425.79998779296875</AltitudeMeters>
            <DistanceMeters>NAN</DistanceMeters>
          </Trackpoint>
          <Trackpoint>
            <Time>2019-10-10T10:23:52.000Z</Time>
            <Position>
              <LatitudeDegrees>37.9150734655559062957763671875</LatitudeDegrees>
              <LongitudeDegrees>-6.23448782600462436676025390625</LongitudeDegrees>
            </Position>
            <AltitudeMeters>424.600006103515625</AltitudeMeters>
            <DistanceMeters>NAN</DistanceMeters>
          </Trackpoint>
          <Trackpoint>
            <Time>2019-10-10T10:23:54.000Z</Time>
            <Position>
              <LatitudeDegrees>37.91495536454021930694580078125</LatitudeDegrees>
              <LongitudeDegrees>-6.23434047214686870574951171875</LongitudeDegrees>
            </Position>
            <AltitudeMeters>424</AltitudeMeters>
            <DistanceMeters>NAN</DistanceMeters>
          </Trackpoint>
          <Trackpoint>
            <Time>2019-10-10T10:23:55.000Z</Time>
            <Position>
              <LatitudeDegrees>37.91489652357995510101318359375</LatitudeDegrees>
              <LongitudeDegrees>-6.2342656217515468597412109375</LongitudeDegrees>
            </Position>
            <AltitudeMeters>423.20001220703125</AltitudeMeters>
            <DistanceMeters>NAN</DistanceMeters>
          </Trackpoint>
          <Trackpoint>
            <Time>2019-10-10T10:23:58.000Z</Time>
            <Position>
              <LatitudeDegrees>37.91471547447144985198974609375</LatitudeDegrees>
              <LongitudeDegrees>-6.23404425568878650665283203125</LongitudeDegrees>
            </Position>
            <AltitudeMeters>421.79998779296875</AltitudeMeters>
            <DistanceMeters>NAN</DistanceMeters>
          </Trackpoint>
          <Trackpoint>
            <Time>2019-10-10T10:24:05.000Z</Time>
            <Position>
              <LatitudeDegrees>37.914289422333240509033203125</LatitudeDegrees>
              <LongitudeDegrees>-6.23351477086544036865234375</LongitudeDegrees>
            </Position>
            <AltitudeMeters>421</AltitudeMeters>
            <DistanceMeters>NAN</DistanceMeters>
          </Trackpoint>
          <Trackpoint>
            <Time>2019-10-10T10:24:07.000Z</Time>
            <Position>
              <LatitudeDegrees>37.91416729800403118133544921875</LatitudeDegrees>
              <LongitudeDegrees>-6.2333612143993377685546875</LongitudeDegrees>
            </Position>
            <AltitudeMeters>420.399993896484375</AltitudeMeters>
            <DistanceMeters>NAN</DistanceMeters>
          </Trackpoint>
          <Trackpoint>
            <Time>2019-10-10T10:24:09.000Z</Time>
            <Position>
              <LatitudeDegrees>37.91404207237064838409423828125</LatitudeDegrees>
              <LongitudeDegrees>-6.23320958577096462249755859375</LongitudeDegrees>
            </Position>
            <AltitudeMeters>419.20001220703125</AltitudeMeters>
            <DistanceMeters>NAN</DistanceMeters>
          </Trackpoint>
          <Trackpoint>
            <Time>2019-10-10T10:24:12.000Z</Time>
            <Position>
              <LatitudeDegrees>37.913858927786350250244140625</LatitudeDegrees>
              <LongitudeDegrees>-6.23298428021371364593505859375</LongitudeDegrees>
            </Position>
            <AltitudeMeters>419</AltitudeMeters>
            <DistanceMeters>NAN</DistanceMeters>
          </Trackpoint>
          <Trackpoint>
            <Time>2019-10-10T10:24:14.000Z</Time>
            <Position>
              <LatitudeDegrees>37.91373965330421924591064453125</LatitudeDegrees>
              <LongitudeDegrees>-6.2328323163092136383056640625</LongitudeDegrees>
            </Position>
            <AltitudeMeters>418.79998779296875</AltitudeMeters>
            <DistanceMeters>NAN</DistanceMeters>
          </Trackpoint>
          <Trackpoint>
            <Time>2019-10-10T10:24:17.000Z</Time>
            <Position>
              <LatitudeDegrees>37.913559861481189727783203125</LatitudeDegrees>
              <LongitudeDegrees>-6.2326086871325969696044921875</LongitudeDegrees>
            </Position>
            <AltitudeMeters>418.20001220703125</AltitudeMeters>
            <DistanceMeters>NAN</DistanceMeters>
          </Trackpoint>
          <Trackpoint>
            <Time>2019-10-10T10:24:19.000Z</Time>
            <Position>
              <LatitudeDegrees>37.913439162075519561767578125</LatitudeDegrees>
              <LongitudeDegrees>-6.23246644623577594757080078125</LongitudeDegrees>
            </Position>
            <AltitudeMeters>416.79998779296875</AltitudeMeters>
            <DistanceMeters>NAN</DistanceMeters>
          </Trackpoint>
          <Trackpoint>
            <Time>2019-10-10T10:24:21.000Z</Time>
            <Position>
              <LatitudeDegrees>37.9133129306137561798095703125</LatitudeDegrees>
              <LongitudeDegrees>-6.2323347665369510650634765625</LongitudeDegrees>
            </Position>
            <AltitudeMeters>416.20001220703125</AltitudeMeters>
            <DistanceMeters>NAN</DistanceMeters>
          </Trackpoint>
          <Trackpoint>
            <Time>2019-10-10T10:24:23.000Z</Time>
            <Position>
              <LatitudeDegrees>37.91318208910524845123291015625</LatitudeDegrees>
              <LongitudeDegrees>-6.232210211455821990966796875</LongitudeDegrees>
            </Position>
            <AltitudeMeters>416.20001220703125</AltitudeMeters>
            <DistanceMeters>NAN</DistanceMeters>
          </Trackpoint>
          <Trackpoint>
            <Time>2019-10-10T10:24:26.000Z</Time>
            <Position>
              <LatitudeDegrees>37.91297413408756256103515625</LatitudeDegrees>
              <LongitudeDegrees>-6.232045590877532958984375</LongitudeDegrees>
            </Position>
            <AltitudeMeters>415.20001220703125</AltitudeMeters>
            <DistanceMeters>NAN</DistanceMeters>
          </Trackpoint>
          <Trackpoint>
            <Time>2019-10-10T10:24:29.000Z</Time>
            <Position>
              <LatitudeDegrees>37.91276282630860805511474609375</LatitudeDegrees>
              <LongitudeDegrees>-6.23190184123814105987548828125</LongitudeDegrees>
            </Position>
            <AltitudeMeters>415.600006103515625</AltitudeMeters>
            <DistanceMeters>NAN</DistanceMeters>
          </Trackpoint>
          <Trackpoint>
            <Time>2019-10-10T10:24:30.000Z</Time>
            <Position>
              <LatitudeDegrees>37.91269040666520595550537109375</LatitudeDegrees>
              <LongitudeDegrees>-6.2318610213696956634521484375</LongitudeDegrees>
            </Position>
            <AltitudeMeters>416</AltitudeMeters>
            <DistanceMeters>NAN</DistanceMeters>
          </Trackpoint>
          <Trackpoint>
            <Time>2019-10-10T10:24:31.000Z</Time>
            <Position>
              <LatitudeDegrees>37.91261714883148670196533203125</LatitudeDegrees>
              <LongitudeDegrees>-6.231821961700916290283203125</LongitudeDegrees>
            </Position>
            <AltitudeMeters>415.600006103515625</AltitudeMeters>
            <DistanceMeters>NAN</DistanceMeters>
          </Trackpoint>
          <Trackpoint>
            <Time>2019-10-10T10:24:32.000Z</Time>
            <Position>
              <LatitudeDegrees>37.9125444777309894561767578125</LatitudeDegrees>
              <LongitudeDegrees>-6.23178340494632720947265625</LongitudeDegrees>
            </Position>
            <AltitudeMeters>415.600006103515625</AltitudeMeters>
            <DistanceMeters>NAN</DistanceMeters>
          </Trackpoint>
          <Trackpoint>
            <Time>2019-10-10T10:24:34.000Z</Time>
            <Position>
              <LatitudeDegrees>37.9123954474925994873046875</LatitudeDegrees>
              <LongitudeDegrees>-6.23171341605484485626220703125</LongitudeDegrees>
            </Position>
            <AltitudeMeters>415.399993896484375</AltitudeMeters>
            <DistanceMeters>NAN</DistanceMeters>
          </Trackpoint>
          <Trackpoint>
            <Time>2019-10-10T10:24:35.000Z</Time>
            <Position>
              <LatitudeDegrees>37.91232277639210224151611328125</LatitudeDegrees>
              <LongitudeDegrees>-6.23167754150927066802978515625</LongitudeDegrees>
            </Position>
            <AltitudeMeters>415.20001220703125</AltitudeMeters>
            <DistanceMeters>NAN</DistanceMeters>
          </Trackpoint>
          <Trackpoint>
            <Time>2019-10-10T10:24:36.000Z</Time>
            <Position>
              <LatitudeDegrees>37.91225002147257328033447265625</LatitudeDegrees>
              <LongitudeDegrees>-6.23164166696369647979736328125</LongitudeDegrees>
            </Position>
            <AltitudeMeters>414.79998779296875</AltitudeMeters>
            <DistanceMeters>NAN</DistanceMeters>
          </Trackpoint>
          <Trackpoint>
            <Time>2019-10-10T10:24:37.000Z</Time>
            <Position>
              <LatitudeDegrees>37.91217844001948833465576171875</LatitudeDegrees>
              <LongitudeDegrees>-6.2316043674945831298828125</LongitudeDegrees>
            </Position>
            <AltitudeMeters>414.79998779296875</AltitudeMeters>
            <DistanceMeters>NAN</DistanceMeters>
          </Trackpoint>
          <Trackpoint>
            <Time>2019-10-10T10:24:41.000Z</Time>
            <Position>
              <LatitudeDegrees>37.9118960537016391754150390625</LatitudeDegrees>
              <LongitudeDegrees>-6.23145994730293750762939453125</LongitudeDegrees>
            </Position>
            <AltitudeMeters>415</AltitudeMeters>
            <DistanceMeters>NAN</DistanceMeters>
          </Trackpoint>
          <Trackpoint>
            <Time>2019-10-10T10:24:44.000Z</Time>
            <Position>
              <LatitudeDegrees>37.9116952233016490936279296875</LatitudeDegrees>
              <LongitudeDegrees>-6.23135291039943695068359375</LongitudeDegrees>
            </Position>
            <AltitudeMeters>415.20001220703125</AltitudeMeters>
            <DistanceMeters>NAN</DistanceMeters>
          </Trackpoint>
          <Trackpoint>
            <Time>2019-10-10T10:24:46.000Z</Time>
            <Position>
              <LatitudeDegrees>37.911567986011505126953125</LatitudeDegrees>
              <LongitudeDegrees>-6.23128862120211124420166015625</LongitudeDegrees>
            </Position>
            <AltitudeMeters>415.20001220703125</AltitudeMeters>
            <DistanceMeters>NAN</DistanceMeters>
          </Trackpoint>
          <Trackpoint>
            <Time>2019-10-10T10:24:49.000Z</Time>
            <Position>
              <LatitudeDegrees>37.9113773815333843231201171875</LatitudeDegrees>
              <LongitudeDegrees>-6.23119289986789226531982421875</LongitudeDegrees>
            </Position>
            <AltitudeMeters>415.20001220703125</AltitudeMeters>
            <DistanceMeters>NAN</DistanceMeters>
          </Trackpoint>
          <Trackpoint>
            <Time>2019-10-10T10:24:51.000Z</Time>
            <Position>
              <LatitudeDegrees>37.9112546704709529876708984375</LatitudeDegrees>
              <LongitudeDegrees>-6.23112819157540798187255859375</LongitudeDegrees>
            </Position>
            <AltitudeMeters>415.20001220703125</AltitudeMeters>
            <DistanceMeters>NAN</DistanceMeters>
          </Trackpoint>
          <Trackpoint>
            <Time>2019-10-10T10:24:55.000Z</Time>
            <Position>
              <LatitudeDegrees>37.91101746261119842529296875</LatitudeDegrees>
              <LongitudeDegrees>-6.23100288212299346923828125</LongitudeDegrees>
            </Position>
            <AltitudeMeters>415.399993896484375</AltitudeMeters>
            <DistanceMeters>NAN</DistanceMeters>
          </Trackpoint>
          <Trackpoint>
            <Time>2019-10-10T10:24:56.000Z</Time>
            <Position>
              <LatitudeDegrees>37.91095979511737823486328125</LatitudeDegrees>
              <LongitudeDegrees>-6.2309715338051319122314453125</LongitudeDegrees>
            </Position>
            <AltitudeMeters>415.399993896484375</AltitudeMeters>
            <DistanceMeters>NAN</DistanceMeters>
          </Trackpoint>
          <Trackpoint>
            <Time>2019-10-10T10:24:57.000Z</Time>
            <Position>
              <LatitudeDegrees>37.9109026305377483367919921875</LatitudeDegrees>
              <LongitudeDegrees>-6.230945549905300140380859375</LongitudeDegrees>
            </Position>
            <AltitudeMeters>415.399993896484375</AltitudeMeters>
            <DistanceMeters>NAN</DistanceMeters>
          </Trackpoint>
          <Trackpoint>
            <Time>2019-10-10T10:25:01.000Z</Time>
            <Position>
              <LatitudeDegrees>37.91069014929234981536865234375</LatitudeDegrees>
              <LongitudeDegrees>-6.2308437936007976531982421875</LongitudeDegrees>
            </Position>
            <AltitudeMeters>416</AltitudeMeters>
            <DistanceMeters>NAN</DistanceMeters>
          </Trackpoint>
          <Trackpoint>
            <Time>2019-10-10T10:25:02.000Z</Time>
            <Position>
              <LatitudeDegrees>37.91063901968300342559814453125</LatitudeDegrees>
              <LongitudeDegrees>-6.23081102035939693450927734375</LongitudeDegrees>
            </Position>
            <AltitudeMeters>416.399993896484375</AltitudeMeters>
            <DistanceMeters>NAN</DistanceMeters>
          </Trackpoint>
          <Trackpoint>
            <Time>2019-10-10T10:25:07.000Z</Time>
            <Position>
              <LatitudeDegrees>37.9104052484035491943359375</LatitudeDegrees>
              <LongitudeDegrees>-6.23062946833670139312744140625</LongitudeDegrees>
            </Position>
            <AltitudeMeters>416</AltitudeMeters>
            <DistanceMeters>NAN</DistanceMeters>
          </Trackpoint>
          <Trackpoint>
            <Time>2019-10-10T10:25:08.000Z</Time>
            <Position>
              <LatitudeDegrees>37.91035361588001251220703125</LatitudeDegrees>
              <LongitudeDegrees>-6.2306094355881214141845703125</LongitudeDegrees>
            </Position>
            <AltitudeMeters>415.79998779296875</AltitudeMeters>
            <DistanceMeters>NAN</DistanceMeters>
          </Trackpoint>
          <Trackpoint>
            <Time>2019-10-10T10:25:12.000Z</Time>
            <Position>
              <LatitudeDegrees>37.91014784015715122222900390625</LatitudeDegrees>
              <LongitudeDegrees>-6.230535842478275299072265625</LongitudeDegrees>
            </Position>
            <AltitudeMeters>416.600006103515625</AltitudeMeters>
            <DistanceMeters>NAN</DistanceMeters>
          </Trackpoint>
          <Trackpoint>
            <Time>2019-10-10T10:25:13.000Z</Time>
            <Position>
              <LatitudeDegrees>37.91009922511875629425048828125</LatitudeDegrees>
              <LongitudeDegrees>-6.23050265014171600341796875</LongitudeDegrees>
            </Position>
            <AltitudeMeters>416.600006103515625</AltitudeMeters>
            <DistanceMeters>NAN</DistanceMeters>
          </Trackpoint>
          <Trackpoint>
            <Time>2019-10-10T10:25:14.000Z</Time>
            <Position>
              <LatitudeDegrees>37.91004809550940990447998046875</LatitudeDegrees>
              <LongitudeDegrees>-6.23047574423253536224365234375</LongitudeDegrees>
            </Position>
            <AltitudeMeters>416.79998779296875</AltitudeMeters>
            <DistanceMeters>NAN</DistanceMeters>
          </Trackpoint>
          <Trackpoint>
            <Time>2019-10-10T10:25:18.000Z</Time>
            <Position>
              <LatitudeDegrees>37.909840308129787445068359375</LatitudeDegrees>
              <LongitudeDegrees>-6.23037767596542835235595703125</LongitudeDegrees>
            </Position>
            <AltitudeMeters>417.20001220703125</AltitudeMeters>
            <DistanceMeters>NAN</DistanceMeters>
          </Trackpoint>
          <Trackpoint>
            <Time>2019-10-10T10:25:26.000Z</Time>
            <Position>
              <LatitudeDegrees>37.90941962040960788726806640625</LatitudeDegrees>
              <LongitudeDegrees>-6.23024457134306430816650390625</LongitudeDegrees>
            </Position>
            <AltitudeMeters>416.79998779296875</AltitudeMeters>
            <DistanceMeters>NAN</DistanceMeters>
          </Trackpoint>
          <Trackpoint>
            <Time>2019-10-10T10:25:30.000Z</Time>
            <Position>
              <LatitudeDegrees>37.909205295145511627197265625</LatitudeDegrees>
              <LongitudeDegrees>-6.23018589802086353302001953125</LongitudeDegrees>
            </Position>
            <AltitudeMeters>417.399993896484375</AltitudeMeters>
            <DistanceMeters>NAN</DistanceMeters>
          </Trackpoint>
          <Trackpoint>
            <Time>2019-10-10T10:25:36.000Z</Time>
            <Position>
              <LatitudeDegrees>37.90888200514018535614013671875</LatitudeDegrees>
              <LongitudeDegrees>-6.23012957163155078887939453125</LongitudeDegrees>
            </Position>
            <AltitudeMeters>417.20001220703125</AltitudeMeters>
            <DistanceMeters>NAN</DistanceMeters>
          </Trackpoint>
          <Trackpoint>
            <Time>2019-10-10T10:25:45.000Z</Time>
            <Position>
              <LatitudeDegrees>37.90841949172317981719970703125</LatitudeDegrees>
              <LongitudeDegrees>-6.23009587638080120086669921875</LongitudeDegrees>
            </Position>
            <AltitudeMeters>418.399993896484375</AltitudeMeters>
            <DistanceMeters>NAN</DistanceMeters>
          </Trackpoint>
          <Trackpoint>
            <Time>2019-10-10T10:25:46.000Z</Time>
            <Position>
              <LatitudeDegrees>37.90837372653186321258544921875</LatitudeDegrees>
              <LongitudeDegrees>-6.230097301304340362548828125</LongitudeDegrees>
            </Position>
            <AltitudeMeters>418.79998779296875</AltitudeMeters>
            <DistanceMeters>NAN</DistanceMeters>
          </Trackpoint>
          <Trackpoint>
            <Time>2019-10-10T10:25:54.000Z</Time>
            <Position>
              <LatitudeDegrees>37.90801162831485271453857421875</LatitudeDegrees>
              <LongitudeDegrees>-6.23012152500450611114501953125</LongitudeDegrees>
            </Position>
            <AltitudeMeters>419.20001220703125</AltitudeMeters>
            <DistanceMeters>NAN</DistanceMeters>
          </Trackpoint>
          <Trackpoint>
            <Time>2019-10-10T10:25:57.000Z</Time>
            <Position>
              <LatitudeDegrees>37.90787014178931713104248046875</LatitudeDegrees>
              <LongitudeDegrees>-6.23012789525091648101806640625</LongitudeDegrees>
            </Position>
            <AltitudeMeters>419.20001220703125</AltitudeMeters>
            <DistanceMeters>NAN</DistanceMeters>
          </Trackpoint>
          <Trackpoint>
            <Time>2019-10-10T10:26:05.000Z</Time>
            <Position>
              <LatitudeDegrees>37.90748490951955318450927734375</LatitudeDegrees>
              <LongitudeDegrees>-6.2300756759941577911376953125</LongitudeDegrees>
            </Position>
            <AltitudeMeters>418.79998779296875</AltitudeMeters>
            <DistanceMeters>NAN</DistanceMeters>
          </Trackpoint>
          <Trackpoint>
            <Time>2019-10-10T10:26:11.000Z</Time>
            <Position>
              <LatitudeDegrees>37.9071865975856781005859375</LatitudeDegrees>
              <LongitudeDegrees>-6.229936368763446807861328125</LongitudeDegrees>
            </Position>
            <AltitudeMeters>418.399993896484375</AltitudeMeters>
            <DistanceMeters>NAN</DistanceMeters>
          </Trackpoint>
          <Trackpoint>
            <Time>2019-10-10T10:26:15.000Z</Time>
            <Position>
              <LatitudeDegrees>37.90699372999370098114013671875</LatitudeDegrees>
              <LongitudeDegrees>-6.22983486391603946685791015625</LongitudeDegrees>
            </Position>
            <AltitudeMeters>418.399993896484375</AltitudeMeters>
            <DistanceMeters>NAN</DistanceMeters>
          </Trackpoint>
          <Trackpoint>
            <Time>2019-10-10T10:26:17.000Z</Time>
            <Position>
              <LatitudeDegrees>37.9068897105753421783447265625</LatitudeDegrees>
              <LongitudeDegrees>-6.22981491498649120330810546875</LongitudeDegrees>
            </Position>
            <AltitudeMeters>418.399993896484375</AltitudeMeters>
            <DistanceMeters>NAN</DistanceMeters>
          </Trackpoint>
          <Trackpoint>
            <Time>2019-10-10T10:26:22.000Z</Time>
            <Position>
              <LatitudeDegrees>37.9066342301666736602783203125</LatitudeDegrees>
              <LongitudeDegrees>-6.22976378537714481353759765625</LongitudeDegrees>
            </Position>
            <AltitudeMeters>419.600006103515625</AltitudeMeters>
            <DistanceMeters>NAN</DistanceMeters>
          </Trackpoint>
          <Trackpoint>
            <Time>2019-10-10T10:26:23.000Z</Time>
            <Position>
              <LatitudeDegrees>37.90658645331859588623046875</LatitudeDegrees>
              <LongitudeDegrees>-6.229738555848598480224609375</LongitudeDegrees>
            </Position>
            <AltitudeMeters>420</AltitudeMeters>
            <DistanceMeters>NAN</DistanceMeters>
          </Trackpoint>
          <Trackpoint>
            <Time>2019-10-10T10:26:24.000Z</Time>
            <Position>
              <LatitudeDegrees>37.906544208526611328125</LatitudeDegrees>
              <LongitudeDegrees>-6.2296968139708042144775390625</LongitudeDegrees>
            </Position>
            <AltitudeMeters>420</AltitudeMeters>
            <DistanceMeters>NAN</DistanceMeters>
          </Trackpoint>
          <Trackpoint>
            <Time>2019-10-10T10:26:27.000Z</Time>
            <Position>
              <LatitudeDegrees>37.90647354908287525177001953125</LatitudeDegrees>
              <LongitudeDegrees>-6.22949657030403614044189453125</LongitudeDegrees>
            </Position>
            <AltitudeMeters>419.399993896484375</AltitudeMeters>
            <DistanceMeters>NAN</DistanceMeters>
          </Trackpoint>
          <Trackpoint>
            <Time>2019-10-10T10:26:29.000Z</Time>
            <Position>
              <LatitudeDegrees>37.9064585454761981964111328125</LatitudeDegrees>
              <LongitudeDegrees>-6.229336895048618316650390625</LongitudeDegrees>
            </Position>
            <AltitudeMeters>418.79998779296875</AltitudeMeters>
            <DistanceMeters>NAN</DistanceMeters>
          </Trackpoint>
          <Trackpoint>
            <Time>2019-10-10T10:26:30.000Z</Time>
            <Position>
              <LatitudeDegrees>37.9064538516104221343994140625</LatitudeDegrees>
              <LongitudeDegrees>-6.2292529083788394927978515625</LongitudeDegrees>
            </Position>
            <AltitudeMeters>418</AltitudeMeters>
            <DistanceMeters>NAN</DistanceMeters>
          </Trackpoint>
          <Trackpoint>
            <Time>2019-10-10T10:26:31.000Z</Time>
            <Position>
              <LatitudeDegrees>37.90644639171659946441650390625</LatitudeDegrees>
              <LongitudeDegrees>-6.22916867025196552276611328125</LongitudeDegrees>
            </Position>
            <AltitudeMeters>417.79998779296875</AltitudeMeters>
            <DistanceMeters>NAN</DistanceMeters>
          </Trackpoint>
          <Trackpoint>
            <Time>2019-10-10T10:26:33.000Z</Time>
            <Position>
              <LatitudeDegrees>37.9064263589680194854736328125</LatitudeDegrees>
              <LongitudeDegrees>-6.228995583951473236083984375</LongitudeDegrees>
            </Position>
            <AltitudeMeters>416.600006103515625</AltitudeMeters>
            <DistanceMeters>NAN</DistanceMeters>
          </Trackpoint>
          <Trackpoint>
            <Time>2019-10-10T10:26:35.000Z</Time>
            <Position>
              <LatitudeDegrees>37.90640364401042461395263671875</LatitudeDegrees>
              <LongitudeDegrees>-6.2288110144436359405517578125</LongitudeDegrees>
            </Position>
            <AltitudeMeters>415.399993896484375</AltitudeMeters>
            <DistanceMeters>NAN</DistanceMeters>
          </Trackpoint>
          <Trackpoint>
            <Time>2019-10-10T10:26:38.000Z</Time>
            <Position>
              <LatitudeDegrees>37.90637263096868991851806640625</LatitudeDegrees>
              <LongitudeDegrees>-6.228516139090061187744140625</LongitudeDegrees>
            </Position>
            <AltitudeMeters>414.600006103515625</AltitudeMeters>
            <DistanceMeters>NAN</DistanceMeters>
          </Trackpoint>
          <Trackpoint>
            <Time>2019-10-10T10:26:39.000Z</Time>
            <Position>
              <LatitudeDegrees>37.9063676856458187103271484375</LatitudeDegrees>
              <LongitudeDegrees>-6.22841262258589267730712890625</LongitudeDegrees>
            </Position>
            <AltitudeMeters>414.20001220703125</AltitudeMeters>
            <DistanceMeters>NAN</DistanceMeters>
          </Trackpoint>
          <Trackpoint>
            <Time>2019-10-10T10:26:40.000Z</Time>
            <Position>
              <LatitudeDegrees>37.90637581609189510345458984375</LatitudeDegrees>
              <LongitudeDegrees>-6.228309608995914459228515625</LongitudeDegrees>
            </Position>
            <AltitudeMeters>413.20001220703125</AltitudeMeters>
            <DistanceMeters>NAN</DistanceMeters>
          </Trackpoint>
          <Trackpoint>
            <Time>2019-10-10T10:26:41.000Z</Time>
            <Position>
              <LatitudeDegrees>37.90639291517436504364013671875</LatitudeDegrees>
              <LongitudeDegrees>-6.228207014501094818115234375</LongitudeDegrees>
            </Position>
            <AltitudeMeters>412.600006103515625</AltitudeMeters>
            <DistanceMeters>NAN</DistanceMeters>
          </Trackpoint>
          <Trackpoint>
            <Time>2019-10-10T10:26:42.000Z</Time>
            <Position>
              <LatitudeDegrees>37.90641202591359615325927734375</LatitudeDegrees>
              <LongitudeDegrees>-6.2281029112637042999267578125</LongitudeDegrees>
            </Position>
            <AltitudeMeters>412.20001220703125</AltitudeMeters>
            <DistanceMeters>NAN</DistanceMeters>
          </Trackpoint>
          <Trackpoint>
            <Time>2019-10-10T10:26:44.000Z</Time>
            <Position>
              <LatitudeDegrees>37.9064625687897205352783203125</LatitudeDegrees>
              <LongitudeDegrees>-6.22789956629276275634765625</LongitudeDegrees>
            </Position>
            <AltitudeMeters>411.399993896484375</AltitudeMeters>
            <DistanceMeters>NAN</DistanceMeters>
          </Trackpoint>
          <Trackpoint>
            <Time>2019-10-10T10:26:48.000Z</Time>
            <Position>
              <LatitudeDegrees>37.90656809695065021514892578125</LatitudeDegrees>
              <LongitudeDegrees>-6.2274913676083087921142578125</LongitudeDegrees>
            </Position>
            <AltitudeMeters>410.399993896484375</AltitudeMeters>
            <DistanceMeters>NAN</DistanceMeters>
          </Trackpoint>
          <Trackpoint>
            <Time>2019-10-10T10:26:50.000Z</Time>
            <Position>
              <LatitudeDegrees>37.90661822073161602020263671875</LatitudeDegrees>
              <LongitudeDegrees>-6.227291040122509002685546875</LongitudeDegrees>
            </Position>
            <AltitudeMeters>409.79998779296875</AltitudeMeters>
            <DistanceMeters>NAN</DistanceMeters>
          </Trackpoint>
          <Trackpoint>
            <Time>2019-10-10T10:26:51.000Z</Time>
            <Position>
              <LatitudeDegrees>37.90664202533662319183349609375</LatitudeDegrees>
              <LongitudeDegrees>-6.2271902896463871002197265625</LongitudeDegrees>
            </Position>
            <AltitudeMeters>409.20001220703125</AltitudeMeters>
            <DistanceMeters>NAN</DistanceMeters>
          </Trackpoint>
          <Trackpoint>
            <Time>2019-10-10T10:26:55.000Z</Time>
            <Position>
              <LatitudeDegrees>37.90674864314496517181396484375</LatitudeDegrees>
              <LongitudeDegrees>-6.2267909757792949676513671875</LongitudeDegrees>
            </Position>
            <AltitudeMeters>408.79998779296875</AltitudeMeters>
            <DistanceMeters>NAN</DistanceMeters>
          </Trackpoint>
          <Trackpoint>
            <Time>2019-10-10T10:26:56.000Z</Time>
            <Position>
              <LatitudeDegrees>37.9067789018154144287109375</LatitudeDegrees>
              <LongitudeDegrees>-6.22669064439833164215087890625</LongitudeDegrees>
            </Position>
            <AltitudeMeters>407.600006103515625</AltitudeMeters>
            <DistanceMeters>NAN</DistanceMeters>
          </Trackpoint>
          <Trackpoint>
            <Time>2019-10-10T10:26:57.000Z</Time>
            <Position>
              <LatitudeDegrees>37.9068092443048954010009765625</LatitudeDegrees>
              <LongitudeDegrees>-6.226590313017368316650390625</LongitudeDegrees>
            </Position>
            <AltitudeMeters>407.79998779296875</AltitudeMeters>
            <DistanceMeters>NAN</DistanceMeters>
          </Trackpoint>
          <Trackpoint>
            <Time>2019-10-10T10:27:00.000Z</Time>
            <Position>
              <LatitudeDegrees>37.90690320543944835662841796875</LatitudeDegrees>
              <LongitudeDegrees>-6.22628889977931976318359375</LongitudeDegrees>
            </Position>
            <AltitudeMeters>406.600006103515625</AltitudeMeters>
            <DistanceMeters>NAN</DistanceMeters>
          </Trackpoint>
          <Trackpoint>
            <Time>2019-10-10T10:27:02.000Z</Time>
            <Position>
              <LatitudeDegrees>37.9069678299129009246826171875</LatitudeDegrees>
              <LongitudeDegrees>-6.2260852195322513580322265625</LongitudeDegrees>
            </Position>
            <AltitudeMeters>405.20001220703125</AltitudeMeters>
            <DistanceMeters>NAN</DistanceMeters>
          </Trackpoint>
          <Trackpoint>
            <Time>2019-10-10T10:27:04.000Z</Time>
            <Position>
              <LatitudeDegrees>37.9070278443396091461181640625</LatitudeDegrees>
              <LongitudeDegrees>-6.2258723191916942596435546875</LongitudeDegrees>
            </Position>
            <AltitudeMeters>405</AltitudeMeters>
            <DistanceMeters>NAN</DistanceMeters>
          </Trackpoint>
          <Trackpoint>
            <Time>2019-10-10T10:27:05.000Z</Time>
            <Position>
              <LatitudeDegrees>37.9070533253252506256103515625</LatitudeDegrees>
              <LongitudeDegrees>-6.22576427645981311798095703125</LongitudeDegrees>
            </Position>
            <AltitudeMeters>404.79998779296875</AltitudeMeters>
            <DistanceMeters>NAN</DistanceMeters>
          </Trackpoint>
          <Trackpoint>
            <Time>2019-10-10T10:27:06.000Z</Time>
            <Position>
              <LatitudeDegrees>37.9070767946541309356689453125</LatitudeDegrees>
              <LongitudeDegrees>-6.2256574071943759918212890625</LongitudeDegrees>
            </Position>
            <AltitudeMeters>404.399993896484375</AltitudeMeters>
            <DistanceMeters>NAN</DistanceMeters>
          </Trackpoint>
          <Trackpoint>
            <Time>2019-10-10T10:27:07.000Z</Time>
            <Position>
              <LatitudeDegrees>37.90710118599236011505126953125</LatitudeDegrees>
              <LongitudeDegrees>-6.2255521304905414581298828125</LongitudeDegrees>
            </Position>
            <AltitudeMeters>404</AltitudeMeters>
            <DistanceMeters>NAN</DistanceMeters>
          </Trackpoint>
          <Trackpoint>
            <Time>2019-10-10T10:27:10.000Z</Time>
            <Position>
              <LatitudeDegrees>37.90716924704611301422119140625</LatitudeDegrees>
              <LongitudeDegrees>-6.22524409554898738861083984375</LongitudeDegrees>
            </Position>
            <AltitudeMeters>404.399993896484375</AltitudeMeters>
            <DistanceMeters>NAN</DistanceMeters>
          </Trackpoint>
          <Trackpoint>
            <Time>2019-10-10T10:27:11.000Z</Time>
            <Position>
              <LatitudeDegrees>37.907190285623073577880859375</LatitudeDegrees>
              <LongitudeDegrees>-6.2251444347202777862548828125</LongitudeDegrees>
            </Position>
            <AltitudeMeters>404.600006103515625</AltitudeMeters>
            <DistanceMeters>NAN</DistanceMeters>
          </Trackpoint>
          <Trackpoint>
            <Time>2019-10-10T10:27:14.000Z</Time>
            <Position>
              <LatitudeDegrees>37.907243259251117706298828125</LatitudeDegrees>
              <LongitudeDegrees>-6.22484595514833927154541015625</LongitudeDegrees>
            </Position>
            <AltitudeMeters>404</AltitudeMeters>
            <DistanceMeters>NAN</DistanceMeters>
          </Trackpoint>
          <Trackpoint>
            <Time>2019-10-10T10:27:15.000Z</Time>
            <Position>
              <LatitudeDegrees>37.907259352505207061767578125</LatitudeDegrees>
              <LongitudeDegrees>-6.22474906034767627716064453125</LongitudeDegrees>
            </Position>
            <AltitudeMeters>403.600006103515625</AltitudeMeters>
            <DistanceMeters>NAN</DistanceMeters>
          </Trackpoint>
          <Trackpoint>
            <Time>2019-10-10T10:27:18.000Z</Time>
            <Position>
              <LatitudeDegrees>37.90729832835495471954345703125</LatitudeDegrees>
              <LongitudeDegrees>-6.224471032619476318359375</LongitudeDegrees>
            </Position>
            <AltitudeMeters>403.399993896484375</AltitudeMeters>
            <DistanceMeters>NAN</DistanceMeters>
          </Trackpoint>
          <Trackpoint>
            <Time>2019-10-10T10:27:19.000Z</Time>
            <Position>
              <LatitudeDegrees>37.9072943888604640960693359375</LatitudeDegrees>
              <LongitudeDegrees>-6.2243796698749065399169921875</LongitudeDegrees>
            </Position>
            <AltitudeMeters>403.399993896484375</AltitudeMeters>
            <DistanceMeters>NAN</DistanceMeters>
          </Trackpoint>
          <Trackpoint>
            <Time>2019-10-10T10:27:20.000Z</Time>
            <Position>
              <LatitudeDegrees>37.907273434102535247802734375</LatitudeDegrees>
              <LongitudeDegrees>-6.22428956441581249237060546875</LongitudeDegrees>
            </Position>
            <AltitudeMeters>403</AltitudeMeters>
            <DistanceMeters>NAN</DistanceMeters>
          </Trackpoint>
          <Trackpoint>
            <Time>2019-10-10T10:27:21.000Z</Time>
            <Position>
              <LatitudeDegrees>37.90724493563175201416015625</LatitudeDegrees>
              <LongitudeDegrees>-6.224203146994113922119140625</LongitudeDegrees>
            </Position>
            <AltitudeMeters>403</AltitudeMeters>
            <DistanceMeters>NAN</DistanceMeters>
          </Trackpoint>
          <Trackpoint>
            <Time>2019-10-10T10:27:27.000Z</Time>
            <Position>
              <LatitudeDegrees>37.90705307386815547943115234375</LatitudeDegrees>
              <LongitudeDegrees>-6.223729737102985382080078125</LongitudeDegrees>
            </Position>
            <AltitudeMeters>403</AltitudeMeters>
            <DistanceMeters>NAN</DistanceMeters>
          </Trackpoint>
          <Trackpoint>
            <Time>2019-10-10T10:27:30.000Z</Time>
            <Position>
              <LatitudeDegrees>37.9069473780691623687744140625</LatitudeDegrees>
              <LongitudeDegrees>-6.223516501486301422119140625</LongitudeDegrees>
            </Position>
            <AltitudeMeters>403.20001220703125</AltitudeMeters>
            <DistanceMeters>NAN</DistanceMeters>
          </Trackpoint>
          <Trackpoint>
            <Time>2019-10-10T10:27:32.000Z</Time>
            <Position>
              <LatitudeDegrees>37.90685727261006832122802734375</LatitudeDegrees>
              <LongitudeDegrees>-6.2233865819871425628662109375</LongitudeDegrees>
            </Position>
            <AltitudeMeters>403</AltitudeMeters>
            <DistanceMeters>NAN</DistanceMeters>
          </Trackpoint>
          <Trackpoint>
            <Time>2019-10-10T10:27:33.000Z</Time>
            <Position>
              <LatitudeDegrees>37.90681368671357631683349609375</LatitudeDegrees>
              <LongitudeDegrees>-6.2233205325901508331298828125</LongitudeDegrees>
            </Position>
            <AltitudeMeters>403</AltitudeMeters>
            <DistanceMeters>NAN</DistanceMeters>
          </Trackpoint>
          <Trackpoint>
            <Time>2019-10-10T10:27:35.000Z</Time>
            <Position>
              <LatitudeDegrees>37.90672919712960720062255859375</LatitudeDegrees>
              <LongitudeDegrees>-6.22318399138748645782470703125</LongitudeDegrees>
            </Position>
            <AltitudeMeters>402.600006103515625</AltitudeMeters>
            <DistanceMeters>NAN</DistanceMeters>
          </Trackpoint>
          <Trackpoint>
            <Time>2019-10-10T10:27:39.000Z</Time>
            <Position>
              <LatitudeDegrees>37.90655502118170261383056640625</LatitudeDegrees>
              <LongitudeDegrees>-6.222929097712039947509765625</LongitudeDegrees>
            </Position>
            <AltitudeMeters>403.20001220703125</AltitudeMeters>
            <DistanceMeters>NAN</DistanceMeters>
          </Trackpoint>
          <Trackpoint>
            <Time>2019-10-10T10:27:40.000Z</Time>
            <Position>
              <LatitudeDegrees>37.90650238282978534698486328125</LatitudeDegrees>
              <LongitudeDegrees>-6.22287570498883724212646484375</LongitudeDegrees>
            </Position>
            <AltitudeMeters>402.79998779296875</AltitudeMeters>
            <DistanceMeters>NAN</DistanceMeters>
          </Trackpoint>
          <Trackpoint>
            <Time>2019-10-10T10:27:43.000Z</Time>
            <Position>
              <LatitudeDegrees>37.9063371755182743072509765625</LatitudeDegrees>
              <LongitudeDegrees>-6.22270873747766017913818359375</LongitudeDegrees>
            </Position>
            <AltitudeMeters>402</AltitudeMeters>
            <DistanceMeters>NAN</DistanceMeters>
          </Trackpoint>
          <Trackpoint>
            <Time>2019-10-10T10:27:45.000Z</Time>
            <Position>
              <LatitudeDegrees>37.90621320717036724090576171875</LatitudeDegrees>
              <LongitudeDegrees>-6.22260379604995250701904296875</LongitudeDegrees>
            </Position>
            <AltitudeMeters>401.399993896484375</AltitudeMeters>
            <DistanceMeters>NAN</DistanceMeters>
          </Trackpoint>
          <Trackpoint>
            <Time>2019-10-10T10:27:47.000Z</Time>
            <Position>
              <LatitudeDegrees>37.906080521643161773681640625</LatitudeDegrees>
              <LongitudeDegrees>-6.22249566949903964996337890625</LongitudeDegrees>
            </Position>
            <AltitudeMeters>400.600006103515625</AltitudeMeters>
            <DistanceMeters>NAN</DistanceMeters>
          </Trackpoint>
          <Trackpoint>
            <Time>2019-10-10T10:27:48.000Z</Time>
            <Position>
              <LatitudeDegrees>37.906010448932647705078125</LatitudeDegrees>
              <LongitudeDegrees>-6.2224384211003780364990234375</LongitudeDegrees>
            </Position>
            <AltitudeMeters>399.600006103515625</AltitudeMeters>
            <DistanceMeters>NAN</DistanceMeters>
          </Trackpoint>
          <Trackpoint>
            <Time>2019-10-10T10:27:51.000Z</Time>
            <Position>
              <LatitudeDegrees>37.90579914115369319915771484375</LatitudeDegrees>
              <LongitudeDegrees>-6.22225661762058734893798828125</LongitudeDegrees>
            </Position>
            <AltitudeMeters>398.399993896484375</AltitudeMeters>
            <DistanceMeters>NAN</DistanceMeters>
          </Trackpoint>
          <Trackpoint>
            <Time>2019-10-10T10:27:53.000Z</Time>
            <Position>
              <LatitudeDegrees>37.9056523740291595458984375</LatitudeDegrees>
              <LongitudeDegrees>-6.2221246026456356048583984375</LongitudeDegrees>
            </Position>
            <AltitudeMeters>397.20001220703125</AltitudeMeters>
            <DistanceMeters>NAN</DistanceMeters>
          </Trackpoint>
          <Trackpoint>
            <Time>2019-10-10T10:27:56.000Z</Time>
            <Position>
              <LatitudeDegrees>37.90541675873100757598876953125</LatitudeDegrees>
              <LongitudeDegrees>-6.221931986510753631591796875</LongitudeDegrees>
            </Position>
            <AltitudeMeters>395.600006103515625</AltitudeMeters>
            <DistanceMeters>NAN</DistanceMeters>
          </Trackpoint>
          <Trackpoint>
            <Time>2019-10-10T10:27:58.000Z</Time>
            <Position>
              <LatitudeDegrees>37.90525381453335285186767578125</LatitudeDegrees>
              <LongitudeDegrees>-6.221805252134799957275390625</LongitudeDegrees>
            </Position>
            <AltitudeMeters>394.20001220703125</AltitudeMeters>
            <DistanceMeters>NAN</DistanceMeters>
          </Trackpoint>
          <Trackpoint>
            <Time>2019-10-10T10:28:01.000Z</Time>
            <Position>
              <LatitudeDegrees>37.90500084869563579559326171875</LatitudeDegrees>
              <LongitudeDegrees>-6.2216223590075969696044921875</LongitudeDegrees>
            </Position>
            <AltitudeMeters>393</AltitudeMeters>
            <DistanceMeters>NAN</DistanceMeters>
          </Trackpoint>
          <Trackpoint>
            <Time>2019-10-10T10:28:02.000Z</Time>
            <Position>
              <LatitudeDegrees>37.90490931831300258636474609375</LatitudeDegrees>
              <LongitudeDegrees>-6.2215791083872318267822265625</LongitudeDegrees>
            </Position>
            <AltitudeMeters>392.20001220703125</AltitudeMeters>
            <DistanceMeters>NAN</DistanceMeters>
          </Trackpoint>
          <Trackpoint>
            <Time>2019-10-10T10:28:03.000Z</Time>
            <Position>
              <LatitudeDegrees>37.90481627918779850006103515625</LatitudeDegrees>
              <LongitudeDegrees>-6.22154667042195796966552734375</LongitudeDegrees>
            </Position>
            <AltitudeMeters>391.20001220703125</AltitudeMeters>
            <DistanceMeters>NAN</DistanceMeters>
          </Trackpoint>
          <Trackpoint>
            <Time>2019-10-10T10:28:05.000Z</Time>
            <Position>
              <LatitudeDegrees>37.9046359844505786895751953125</LatitudeDegrees>
              <LongitudeDegrees>-6.22151498682796955108642578125</LongitudeDegrees>
            </Position>
            <AltitudeMeters>390.20001220703125</AltitudeMeters>
            <DistanceMeters>NAN</DistanceMeters>
          </Trackpoint>
          <Trackpoint>
            <Time>2019-10-10T10:28:06.000Z</Time>
            <Position>
              <LatitudeDegrees>37.9045454598963260650634765625</LatitudeDegrees>
              <LongitudeDegrees>-6.22150576673448085784912109375</LongitudeDegrees>
            </Position>
            <AltitudeMeters>389.79998779296875</AltitudeMeters>
            <DistanceMeters>NAN</DistanceMeters>
          </Trackpoint>
          <Trackpoint>
            <Time>2019-10-10T10:28:07.000Z</Time>
            <Position>
              <LatitudeDegrees>37.90445543825626373291015625</LatitudeDegrees>
              <LongitudeDegrees>-6.2214949540793895721435546875</LongitudeDegrees>
            </Position>
            <AltitudeMeters>389.600006103515625</AltitudeMeters>
            <DistanceMeters>NAN</DistanceMeters>
          </Trackpoint>
          <Trackpoint>
            <Time>2019-10-10T10:28:08.000Z</Time>
            <Position>
              <LatitudeDegrees>37.90436415933072566986083984375</LatitudeDegrees>
              <LongitudeDegrees>-6.2214828841388225555419921875</LongitudeDegrees>
            </Position>
            <AltitudeMeters>388.79998779296875</AltitudeMeters>
            <DistanceMeters>NAN</DistanceMeters>
          </Trackpoint>
          <Trackpoint>
            <Time>2019-10-10T10:28:10.000Z</Time>
            <Position>
              <LatitudeDegrees>37.90418277494609355926513671875</LatitudeDegrees>
              <LongitudeDegrees>-6.22146184556186199188232421875</LongitudeDegrees>
            </Position>
            <AltitudeMeters>388</AltitudeMeters>
            <DistanceMeters>NAN</DistanceMeters>
          </Trackpoint>
          <Trackpoint>
            <Time>2019-10-10T10:28:11.000Z</Time>
            <Position>
              <LatitudeDegrees>37.90409107692539691925048828125</LatitudeDegrees>
              <LongitudeDegrees>-6.22145480476319789886474609375</LongitudeDegrees>
            </Position>
            <AltitudeMeters>387.600006103515625</AltitudeMeters>
            <DistanceMeters>NAN</DistanceMeters>
          </Trackpoint>
          <Trackpoint>
            <Time>2019-10-10T10:28:13.000Z</Time>
            <Position>
              <LatitudeDegrees>37.903907932341098785400390625</LatitudeDegrees>
              <LongitudeDegrees>-6.22143938206136226654052734375</LongitudeDegrees>
            </Position>
            <AltitudeMeters>386.20001220703125</AltitudeMeters>
            <DistanceMeters>NAN</DistanceMeters>
          </Trackpoint>
          <Trackpoint>
            <Time>2019-10-10T10:28:15.000Z</Time>
            <Position>
              <LatitudeDegrees>37.903729565441608428955078125</LatitudeDegrees>
              <LongitudeDegrees>-6.22142873704433441162109375</LongitudeDegrees>
            </Position>
            <AltitudeMeters>385.79998779296875</AltitudeMeters>
            <DistanceMeters>NAN</DistanceMeters>
          </Trackpoint>
          <Trackpoint>
            <Time>2019-10-10T10:28:17.000Z</Time>
            <Position>
              <LatitudeDegrees>37.9035506956279277801513671875</LatitudeDegrees>
              <LongitudeDegrees>-6.2214205227792263031005859375</LongitudeDegrees>
            </Position>
            <AltitudeMeters>385.600006103515625</AltitudeMeters>
            <DistanceMeters>NAN</DistanceMeters>
          </Trackpoint>
          <Trackpoint>
            <Time>2019-10-10T10:28:18.000Z</Time>
            <Position>
              <LatitudeDegrees>37.9034588299691677093505859375</LatitudeDegrees>
              <LongitudeDegrees>-6.22141641564667224884033203125</LongitudeDegrees>
            </Position>
            <AltitudeMeters>385</AltitudeMeters>
            <DistanceMeters>NAN</DistanceMeters>
          </Trackpoint>
          <Trackpoint>
            <Time>2019-10-10T10:28:21.000Z</Time>
            <Position>
              <LatitudeDegrees>37.903176359832286834716796875</LatitudeDegrees>
              <LongitudeDegrees>-6.2214195169508457183837890625</LongitudeDegrees>
            </Position>
            <AltitudeMeters>383.600006103515625</AltitudeMeters>
            <DistanceMeters>NAN</DistanceMeters>
          </Trackpoint>
          <Trackpoint>
            <Time>2019-10-10T10:28:22.000Z</Time>
            <Position>
              <LatitudeDegrees>37.90307854302227497100830078125</LatitudeDegrees>
              <LongitudeDegrees>-6.2214227020740509033203125</LongitudeDegrees>
            </Position>
            <AltitudeMeters>382.79998779296875</AltitudeMeters>
            <DistanceMeters>NAN</DistanceMeters>
          </Trackpoint>
          <Trackpoint>
            <Time>2019-10-10T10:28:23.000Z</Time>
            <Position>
              <LatitudeDegrees>37.90298022329807281494140625</LatitudeDegrees>
              <LongitudeDegrees>-6.22142513282597064971923828125</LongitudeDegrees>
            </Position>
            <AltitudeMeters>381.79998779296875</AltitudeMeters>
            <DistanceMeters>NAN</DistanceMeters>
          </Trackpoint>
          <Trackpoint>
            <Time>2019-10-10T10:28:24.000Z</Time>
            <Position>
              <LatitudeDegrees>37.90288232266902923583984375</LatitudeDegrees>
              <LongitudeDegrees>-6.22143619693815708160400390625</LongitudeDegrees>
            </Position>
            <AltitudeMeters>381.399993896484375</AltitudeMeters>
            <DistanceMeters>NAN</DistanceMeters>
          </Trackpoint>
          <Trackpoint>
            <Time>2019-10-10T10:28:25.000Z</Time>
            <Position>
              <LatitudeDegrees>37.9027832485735416412353515625</LatitudeDegrees>
              <LongitudeDegrees>-6.22146000154316425323486328125</LongitudeDegrees>
            </Position>
            <AltitudeMeters>380.79998779296875</AltitudeMeters>
            <DistanceMeters>NAN</DistanceMeters>
          </Trackpoint>
          <Trackpoint>
            <Time>2019-10-10T10:28:26.000Z</Time>
            <Position>
              <LatitudeDegrees>37.90268258191645145416259765625</LatitudeDegrees>
              <LongitudeDegrees>-6.22147743590176105499267578125</LongitudeDegrees>
            </Position>
            <AltitudeMeters>380.20001220703125</AltitudeMeters>
            <DistanceMeters>NAN</DistanceMeters>
          </Trackpoint>
          <Trackpoint>
            <Time>2019-10-10T10:28:27.000Z</Time>
            <Position>
              <LatitudeDegrees>37.90258183144032955169677734375</LatitudeDegrees>
              <LongitudeDegrees>-6.221471987664699554443359375</LongitudeDegrees>
            </Position>
            <AltitudeMeters>379.600006103515625</AltitudeMeters>
            <DistanceMeters>NAN</DistanceMeters>
          </Trackpoint>
          <Trackpoint>
            <Time>2019-10-10T10:28:28.000Z</Time>
            <Position>
              <LatitudeDegrees>37.90248175151646137237548828125</LatitudeDegrees>
              <LongitudeDegrees>-6.2214446626603603363037109375</LongitudeDegrees>
            </Position>
            <AltitudeMeters>379.399993896484375</AltitudeMeters>
            <DistanceMeters>NAN</DistanceMeters>
          </Trackpoint>
          <Trackpoint>
            <Time>2019-10-10T10:28:30.000Z</Time>
            <Position>
              <LatitudeDegrees>37.90228025056421756744384765625</LatitudeDegrees>
              <LongitudeDegrees>-6.221380122005939483642578125</LongitudeDegrees>
            </Position>
            <AltitudeMeters>378.20001220703125</AltitudeMeters>
            <DistanceMeters>NAN</DistanceMeters>
          </Trackpoint>
          <Trackpoint>
            <Time>2019-10-10T10:28:31.000Z</Time>
            <Position>
              <LatitudeDegrees>37.90217866189777851104736328125</LatitudeDegrees>
              <LongitudeDegrees>-6.22135757468640804290771484375</LongitudeDegrees>
            </Position>
            <AltitudeMeters>377</AltitudeMeters>
            <DistanceMeters>NAN</DistanceMeters>
          </Trackpoint>
          <Trackpoint>
            <Time>2019-10-10T10:28:32.000Z</Time>
            <Position>
              <LatitudeDegrees>37.9020781628787517547607421875</LatitudeDegrees>
              <LongitudeDegrees>-6.2213350273668766021728515625</LongitudeDegrees>
            </Position>
            <AltitudeMeters>376.399993896484375</AltitudeMeters>
            <DistanceMeters>NAN</DistanceMeters>
          </Trackpoint>
          <Trackpoint>
            <Time>2019-10-10T10:28:33.000Z</Time>
            <Position>
              <LatitudeDegrees>37.90197799913585186004638671875</LatitudeDegrees>
              <LongitudeDegrees>-6.22131365351378917694091796875</LongitudeDegrees>
            </Position>
            <AltitudeMeters>375.79998779296875</AltitudeMeters>
            <DistanceMeters>NAN</DistanceMeters>
          </Trackpoint>
          <Trackpoint>
            <Time>2019-10-10T10:28:36.000Z</Time>
            <Position>
              <LatitudeDegrees>37.90168094448745250701904296875</LatitudeDegrees>
              <LongitudeDegrees>-6.22124358080327510833740234375</LongitudeDegrees>
            </Position>
            <AltitudeMeters>375.600006103515625</AltitudeMeters>
            <DistanceMeters>NAN</DistanceMeters>
          </Trackpoint>
          <Trackpoint>
            <Time>2019-10-10T10:28:37.000Z</Time>
            <Position>
              <LatitudeDegrees>37.9015809483826160430908203125</LatitudeDegrees>
              <LongitudeDegrees>-6.22122145257890224456787109375</LongitudeDegrees>
            </Position>
            <AltitudeMeters>374.79998779296875</AltitudeMeters>
            <DistanceMeters>NAN</DistanceMeters>
          </Trackpoint>
          <Trackpoint>
            <Time>2019-10-10T10:28:39.000Z</Time>
            <Position>
              <LatitudeDegrees>37.90138238109648227691650390625</LatitudeDegrees>
              <LongitudeDegrees>-6.22119463048875331878662109375</LongitudeDegrees>
            </Position>
            <AltitudeMeters>374.399993896484375</AltitudeMeters>
            <DistanceMeters>NAN</DistanceMeters>
          </Trackpoint>
          <Trackpoint>
            <Time>2019-10-10T10:28:41.000Z</Time>
            <Position>
              <LatitudeDegrees>37.901188172399997711181640625</LatitudeDegrees>
              <LongitudeDegrees>-6.221179962158203125</LongitudeDegrees>
            </Position>
            <AltitudeMeters>374.20001220703125</AltitudeMeters>
            <DistanceMeters>NAN</DistanceMeters>
          </Trackpoint>
          <Trackpoint>
            <Time>2019-10-10T10:28:45.000Z</Time>
            <Position>
              <LatitudeDegrees>37.9008356295526027679443359375</LatitudeDegrees>
              <LongitudeDegrees>-6.22117417864501476287841796875</LongitudeDegrees>
            </Position>
            <AltitudeMeters>375.20001220703125</AltitudeMeters>
            <DistanceMeters>NAN</DistanceMeters>
          </Trackpoint>
          <Trackpoint>
            <Time>2019-10-10T10:28:47.000Z</Time>
            <Position>
              <LatitudeDegrees>37.90068559348583221435546875</LatitudeDegrees>
              <LongitudeDegrees>-6.2211935408413410186767578125</LongitudeDegrees>
            </Position>
            <AltitudeMeters>376.600006103515625</AltitudeMeters>
            <DistanceMeters>NAN</DistanceMeters>
          </Trackpoint>
          <Trackpoint>
            <Time>2019-10-10T10:28:49.000Z</Time>
            <Position>
              <LatitudeDegrees>37.900555171072483062744140625</LatitudeDegrees>
              <LongitudeDegrees>-6.22123427689075469970703125</LongitudeDegrees>
            </Position>
            <AltitudeMeters>377</AltitudeMeters>
            <DistanceMeters>NAN</DistanceMeters>
          </Trackpoint>
          <Trackpoint>
            <Time>2019-10-10T10:28:51.000Z</Time>
            <Position>
              <LatitudeDegrees>37.9004381597042083740234375</LatitudeDegrees>
              <LongitudeDegrees>-6.221284568309783935546875</LongitudeDegrees>
            </Position>
            <AltitudeMeters>377.79998779296875</AltitudeMeters>
            <DistanceMeters>NAN</DistanceMeters>
          </Trackpoint>
          <Trackpoint>
            <Time>2019-10-10T10:28:54.000Z</Time>
            <Position>
              <LatitudeDegrees>37.90027613751590251922607421875</LatitudeDegrees>
              <LongitudeDegrees>-6.2213745899498462677001953125</LongitudeDegrees>
            </Position>
            <AltitudeMeters>378.79998779296875</AltitudeMeters>
            <DistanceMeters>NAN</DistanceMeters>
          </Trackpoint>
          <Trackpoint>
            <Time>2019-10-10T10:28:55.000Z</Time>
            <Position>
              <LatitudeDegrees>37.90022291243076324462890625</LatitudeDegrees>
              <LongitudeDegrees>-6.221407949924468994140625</LongitudeDegrees>
            </Position>
            <AltitudeMeters>378.79998779296875</AltitudeMeters>
            <DistanceMeters>NAN</DistanceMeters>
          </Trackpoint>
          <Trackpoint>
            <Time>2019-10-10T10:28:58.000Z</Time>
            <Position>
              <LatitudeDegrees>37.9000584594905376434326171875</LatitudeDegrees>
              <LongitudeDegrees>-6.2215227819979190826416015625</LongitudeDegrees>
            </Position>
            <AltitudeMeters>378.20001220703125</AltitudeMeters>
            <DistanceMeters>NAN</DistanceMeters>
          </Trackpoint>
          <Trackpoint>
            <Time>2019-10-10T10:29:00.000Z</Time>
            <Position>
              <LatitudeDegrees>37.89994186721742153167724609375</LatitudeDegrees>
              <LongitudeDegrees>-6.2216062657535076141357421875</LongitudeDegrees>
            </Position>
            <AltitudeMeters>378.20001220703125</AltitudeMeters>
            <DistanceMeters>NAN</DistanceMeters>
          </Trackpoint>
          <Trackpoint>
            <Time>2019-10-10T10:29:02.000Z</Time>
            <Position>
              <LatitudeDegrees>37.89981882087886333465576171875</LatitudeDegrees>
              <LongitudeDegrees>-6.22168899513781070709228515625</LongitudeDegrees>
            </Position>
            <AltitudeMeters>377.399993896484375</AltitudeMeters>
            <DistanceMeters>NAN</DistanceMeters>
          </Trackpoint>
          <Trackpoint>
            <Time>2019-10-10T10:29:03.000Z</Time>
            <Position>
              <LatitudeDegrees>37.8997557051479816436767578125</LatitudeDegrees>
              <LongitudeDegrees>-6.2217269651591777801513671875</LongitudeDegrees>
            </Position>
            <AltitudeMeters>376.79998779296875</AltitudeMeters>
            <DistanceMeters>NAN</DistanceMeters>
          </Trackpoint>
          <Trackpoint>
            <Time>2019-10-10T10:29:07.000Z</Time>
            <Position>
              <LatitudeDegrees>37.89948354475200176239013671875</LatitudeDegrees>
              <LongitudeDegrees>-6.22184758074581623077392578125</LongitudeDegrees>
            </Position>
            <AltitudeMeters>376</AltitudeMeters>
            <DistanceMeters>NAN</DistanceMeters>
          </Trackpoint>
          <Trackpoint>
            <Time>2019-10-10T10:29:08.000Z</Time>
            <Position>
              <LatitudeDegrees>37.8994130529463291168212890625</LatitudeDegrees>
              <LongitudeDegrees>-6.2218706309795379638671875</LongitudeDegrees>
            </Position>
            <AltitudeMeters>375.600006103515625</AltitudeMeters>
            <DistanceMeters>NAN</DistanceMeters>
          </Trackpoint>
          <Trackpoint>
            <Time>2019-10-10T10:29:13.000Z</Time>
            <Position>
              <LatitudeDegrees>37.8990415669977664947509765625</LatitudeDegrees>
              <LongitudeDegrees>-6.2219187431037425994873046875</LongitudeDegrees>
            </Position>
            <AltitudeMeters>374</AltitudeMeters>
            <DistanceMeters>NAN</DistanceMeters>
          </Trackpoint>
          <Trackpoint>
            <Time>2019-10-10T10:29:17.000Z</Time>
            <Position>
              <LatitudeDegrees>37.8987322747707366943359375</LatitudeDegrees>
              <LongitudeDegrees>-6.22189217247068881988525390625</LongitudeDegrees>
            </Position>
            <AltitudeMeters>372.79998779296875</AltitudeMeters>
            <DistanceMeters>NAN</DistanceMeters>
          </Trackpoint>
          <Trackpoint>
            <Time>2019-10-10T10:29:20.000Z</Time>
            <Position>
              <LatitudeDegrees>37.8984984196722507476806640625</LatitudeDegrees>
              <LongitudeDegrees>-6.221858896315097808837890625</LongitudeDegrees>
            </Position>
            <AltitudeMeters>372.79998779296875</AltitudeMeters>
            <DistanceMeters>NAN</DistanceMeters>
          </Trackpoint>
          <Trackpoint>
            <Time>2019-10-10T10:29:26.000Z</Time>
            <Position>
              <LatitudeDegrees>37.89801813662052154541015625</LatitudeDegrees>
              <LongitudeDegrees>-6.22178002260625362396240234375</LongitudeDegrees>
            </Position>
            <AltitudeMeters>371.399993896484375</AltitudeMeters>
            <DistanceMeters>NAN</DistanceMeters>
          </Trackpoint>
          <Trackpoint>
            <Time>2019-10-10T10:29:29.000Z</Time>
            <Position>
              <LatitudeDegrees>37.8977738879621028900146484375</LatitudeDegrees>
              <LongitudeDegrees>-6.22173543088138103485107421875</LongitudeDegrees>
            </Position>
            <AltitudeMeters>371</AltitudeMeters>
            <DistanceMeters>NAN</DistanceMeters>
          </Trackpoint>
          <Trackpoint>
            <Time>2019-10-10T10:29:36.000Z</Time>
            <Position>
              <LatitudeDegrees>37.8972079418599605560302734375</LatitudeDegrees>
              <LongitudeDegrees>-6.22159763239324092864990234375</LongitudeDegrees>
            </Position>
            <AltitudeMeters>370</AltitudeMeters>
            <DistanceMeters>NAN</DistanceMeters>
          </Trackpoint>
          <Trackpoint>
            <Time>2019-10-10T10:29:37.000Z</Time>
            <Position>
              <LatitudeDegrees>37.89713476784527301788330078125</LatitudeDegrees>
              <LongitudeDegrees>-6.22157868929207324981689453125</LongitudeDegrees>
            </Position>
            <AltitudeMeters>370</AltitudeMeters>
            <DistanceMeters>NAN</DistanceMeters>
          </Trackpoint>
          <Trackpoint>
            <Time>2019-10-10T10:29:40.000Z</Time>
            <Position>
              <LatitudeDegrees>37.8969378769397735595703125</LatitudeDegrees>
              <LongitudeDegrees>-6.2215251289308071136474609375</LongitudeDegrees>
            </Position>
            <AltitudeMeters>370.20001220703125</AltitudeMeters>
            <DistanceMeters>NAN</DistanceMeters>
          </Trackpoint>
          <Trackpoint>
            <Time>2019-10-10T10:29:42.000Z</Time>
            <Position>
              <LatitudeDegrees>37.89683519862592220306396484375</LatitudeDegrees>
              <LongitudeDegrees>-6.22149939648807048797607421875</LongitudeDegrees>
            </Position>
            <AltitudeMeters>370.399993896484375</AltitudeMeters>
            <DistanceMeters>NAN</DistanceMeters>
          </Trackpoint>
          <Trackpoint>
            <Time>2019-10-10T10:29:45.000Z</Time>
            <Position>
              <LatitudeDegrees>37.89677602238953113555908203125</LatitudeDegrees>
              <LongitudeDegrees>-6.22148833237588405609130859375</LongitudeDegrees>
            </Position>
            <AltitudeMeters>371.20001220703125</AltitudeMeters>
            <DistanceMeters>NAN</DistanceMeters>
          </Trackpoint>
          <Trackpoint>
            <Time>2019-10-10T10:29:48.000Z</Time>
            <Position>
              <LatitudeDegrees>37.8967821411788463592529296875</LatitudeDegrees>
              <LongitudeDegrees>-6.22148917056620121002197265625</LongitudeDegrees>
            </Position>
            <AltitudeMeters>371.600006103515625</AltitudeMeters>
            <DistanceMeters>NAN</DistanceMeters>
          </Trackpoint>
          <Trackpoint>
            <Time>2019-10-10T10:29:51.000Z</Time>
            <Position>
              <LatitudeDegrees>37.8967821411788463592529296875</LatitudeDegrees>
              <LongitudeDegrees>-6.22148917056620121002197265625</LongitudeDegrees>
            </Position>
            <AltitudeMeters>371.399993896484375</AltitudeMeters>
            <DistanceMeters>NAN</DistanceMeters>
          </Trackpoint>
          <Trackpoint>
            <Time>2019-10-10T10:30:00.000Z</Time>
            <Position>
              <LatitudeDegrees>37.8967821411788463592529296875</LatitudeDegrees>
              <LongitudeDegrees>-6.22148917056620121002197265625</LongitudeDegrees>
            </Position>
            <AltitudeMeters>371.600006103515625</AltitudeMeters>
            <DistanceMeters>NAN</DistanceMeters>
          </Trackpoint>
          <Trackpoint>
            <Time>2019-10-10T10:30:06.000Z</Time>
            <Position>
              <LatitudeDegrees>37.8967821411788463592529296875</LatitudeDegrees>
              <LongitudeDegrees>-6.22148917056620121002197265625</LongitudeDegrees>
            </Position>
            <AltitudeMeters>371.600006103515625</AltitudeMeters>
            <DistanceMeters>NAN</DistanceMeters>
          </Trackpoint>
          <Trackpoint>
            <Time>2019-10-10T10:30:12.000Z</Time>
            <Position>
              <LatitudeDegrees>37.8967821411788463592529296875</LatitudeDegrees>
              <LongitudeDegrees>-6.22148917056620121002197265625</LongitudeDegrees>
            </Position>
            <AltitudeMeters>371.600006103515625</AltitudeMeters>
            <DistanceMeters>NAN</DistanceMeters>
          </Trackpoint>
          <Trackpoint>
            <Time>2019-10-10T10:30:16.000Z</Time>
            <Position>
              <LatitudeDegrees>37.8967821411788463592529296875</LatitudeDegrees>
              <LongitudeDegrees>-6.22148917056620121002197265625</LongitudeDegrees>
            </Position>
            <AltitudeMeters>371.20001220703125</AltitudeMeters>
            <DistanceMeters>NAN</DistanceMeters>
          </Trackpoint>
          <Trackpoint>
            <Time>2019-10-10T10:30:18.000Z</Time>
            <Position>
              <LatitudeDegrees>37.8967821411788463592529296875</LatitudeDegrees>
              <LongitudeDegrees>-6.22148917056620121002197265625</LongitudeDegrees>
            </Position>
            <AltitudeMeters>371.399993896484375</AltitudeMeters>
            <DistanceMeters>NAN</DistanceMeters>
          </Trackpoint>
          <Trackpoint>
            <Time>2019-10-10T10:30:20.000Z</Time>
            <Position>
              <LatitudeDegrees>37.8967821411788463592529296875</LatitudeDegrees>
              <LongitudeDegrees>-6.22148917056620121002197265625</LongitudeDegrees>
            </Position>
            <AltitudeMeters>371.399993896484375</AltitudeMeters>
            <DistanceMeters>NAN</DistanceMeters>
          </Trackpoint>
          <Trackpoint>
            <Time>2019-10-10T10:30:21.000Z</Time>
            <Position>
              <LatitudeDegrees>37.8967821411788463592529296875</LatitudeDegrees>
              <LongitudeDegrees>-6.22148917056620121002197265625</LongitudeDegrees>
            </Position>
            <AltitudeMeters>371.399993896484375</AltitudeMeters>
            <DistanceMeters>NAN</DistanceMeters>
          </Trackpoint>
          <Trackpoint>
            <Time>2019-10-10T10:30:32.000Z</Time>
            <Position>
              <LatitudeDegrees>37.896781973540782928466796875</LatitudeDegrees>
              <LongitudeDegrees>-6.22149520553648471832275390625</LongitudeDegrees>
            </Position>
            <AltitudeMeters>371.20001220703125</AltitudeMeters>
            <DistanceMeters>NAN</DistanceMeters>
          </Trackpoint>
          <Trackpoint>
            <Time>2019-10-10T10:30:36.000Z</Time>
            <Position>
              <LatitudeDegrees>37.896781973540782928466796875</LatitudeDegrees>
              <LongitudeDegrees>-6.22149520553648471832275390625</LongitudeDegrees>
            </Position>
            <AltitudeMeters>371.399993896484375</AltitudeMeters>
            <DistanceMeters>NAN</DistanceMeters>
          </Trackpoint>
          <Trackpoint>
            <Time>2019-10-10T10:30:38.000Z</Time>
            <Position>
              <LatitudeDegrees>37.896781973540782928466796875</LatitudeDegrees>
              <LongitudeDegrees>-6.22149520553648471832275390625</LongitudeDegrees>
            </Position>
            <AltitudeMeters>371.399993896484375</AltitudeMeters>
            <DistanceMeters>NAN</DistanceMeters>
          </Trackpoint>
          <Trackpoint>
            <Time>2019-10-10T10:30:39.000Z</Time>
            <Position>
              <LatitudeDegrees>37.896781973540782928466796875</LatitudeDegrees>
              <LongitudeDegrees>-6.22149520553648471832275390625</LongitudeDegrees>
            </Position>
            <AltitudeMeters>371.399993896484375</AltitudeMeters>
            <DistanceMeters>NAN</DistanceMeters>
          </Trackpoint>
          <Trackpoint>
            <Time>2019-10-10T10:30:40.000Z</Time>
            <Position>
              <LatitudeDegrees>37.896781973540782928466796875</LatitudeDegrees>
              <LongitudeDegrees>-6.22149520553648471832275390625</LongitudeDegrees>
            </Position>
            <AltitudeMeters>371.20001220703125</AltitudeMeters>
            <DistanceMeters>NAN</DistanceMeters>
          </Trackpoint>
          <Trackpoint>
            <Time>2019-10-10T10:30:41.000Z</Time>
            <Position>
              <LatitudeDegrees>37.896781973540782928466796875</LatitudeDegrees>
              <LongitudeDegrees>-6.22149520553648471832275390625</LongitudeDegrees>
            </Position>
            <AltitudeMeters>371.399993896484375</AltitudeMeters>
            <DistanceMeters>NAN</DistanceMeters>
          </Trackpoint>
          <Trackpoint>
            <Time>2019-10-10T10:30:52.000Z</Time>
            <Position>
              <LatitudeDegrees>37.896781973540782928466796875</LatitudeDegrees>
              <LongitudeDegrees>-6.22149520553648471832275390625</LongitudeDegrees>
            </Position>
            <AltitudeMeters>371.20001220703125</AltitudeMeters>
            <DistanceMeters>NAN</DistanceMeters>
          </Trackpoint>
          <Trackpoint>
            <Time>2019-10-10T10:30:55.000Z</Time>
            <Position>
              <LatitudeDegrees>37.896781973540782928466796875</LatitudeDegrees>
              <LongitudeDegrees>-6.22149520553648471832275390625</LongitudeDegrees>
            </Position>
            <AltitudeMeters>371.20001220703125</AltitudeMeters>
            <DistanceMeters>NAN</DistanceMeters>
          </Trackpoint>
          <Trackpoint>
            <Time>2019-10-10T10:31:02.000Z</Time>
            <Position>
              <LatitudeDegrees>37.896781973540782928466796875</LatitudeDegrees>
              <LongitudeDegrees>-6.22149520553648471832275390625</LongitudeDegrees>
            </Position>
            <AltitudeMeters>371</AltitudeMeters>
            <DistanceMeters>NAN</DistanceMeters>
          </Trackpoint>
          <Trackpoint>
            <Time>2019-10-10T10:31:09.000Z</Time>
            <Position>
              <LatitudeDegrees>37.8967828117311000823974609375</LatitudeDegrees>
              <LongitudeDegrees>-6.22149453498423099517822265625</LongitudeDegrees>
            </Position>
            <AltitudeMeters>371</AltitudeMeters>
            <DistanceMeters>NAN</DistanceMeters>
          </Trackpoint>
          <Trackpoint>
            <Time>2019-10-10T10:31:11.000Z</Time>
            <Position>
              <LatitudeDegrees>37.8967828117311000823974609375</LatitudeDegrees>
              <LongitudeDegrees>-6.22149453498423099517822265625</LongitudeDegrees>
            </Position>
            <AltitudeMeters>371.20001220703125</AltitudeMeters>
            <DistanceMeters>NAN</DistanceMeters>
          </Trackpoint>
          <Trackpoint>
            <Time>2019-10-10T10:31:12.000Z</Time>
            <Position>
              <LatitudeDegrees>37.8967828117311000823974609375</LatitudeDegrees>
              <LongitudeDegrees>-6.22149453498423099517822265625</LongitudeDegrees>
            </Position>
            <AltitudeMeters>371.399993896484375</AltitudeMeters>
            <DistanceMeters>NAN</DistanceMeters>
          </Trackpoint>
          <Trackpoint>
            <Time>2019-10-10T10:31:13.000Z</Time>
            <Position>
              <LatitudeDegrees>37.8967828117311000823974609375</LatitudeDegrees>
              <LongitudeDegrees>-6.22149453498423099517822265625</LongitudeDegrees>
            </Position>
            <AltitudeMeters>371.20001220703125</AltitudeMeters>
            <DistanceMeters>NAN</DistanceMeters>
          </Trackpoint>
          <Trackpoint>
            <Time>2019-10-10T10:31:16.000Z</Time>
            <Position>
              <LatitudeDegrees>37.8967828117311000823974609375</LatitudeDegrees>
              <LongitudeDegrees>-6.22149453498423099517822265625</LongitudeDegrees>
            </Position>
            <AltitudeMeters>371.20001220703125</AltitudeMeters>
            <DistanceMeters>NAN</DistanceMeters>
          </Trackpoint>
          <Trackpoint>
            <Time>2019-10-10T10:31:17.000Z</Time>
            <Position>
              <LatitudeDegrees>37.8967828117311000823974609375</LatitudeDegrees>
              <LongitudeDegrees>-6.22149453498423099517822265625</LongitudeDegrees>
            </Position>
            <AltitudeMeters>371.399993896484375</AltitudeMeters>
            <DistanceMeters>NAN</DistanceMeters>
          </Trackpoint>
          <Trackpoint>
            <Time>2019-10-10T10:31:18.000Z</Time>
            <Position>
              <LatitudeDegrees>37.8967828117311000823974609375</LatitudeDegrees>
              <LongitudeDegrees>-6.22149453498423099517822265625</LongitudeDegrees>
            </Position>
            <AltitudeMeters>371.20001220703125</AltitudeMeters>
            <DistanceMeters>NAN</DistanceMeters>
          </Trackpoint>
          <Trackpoint>
            <Time>2019-10-10T10:31:20.000Z</Time>
            <Position>
              <LatitudeDegrees>37.8967828117311000823974609375</LatitudeDegrees>
              <LongitudeDegrees>-6.22149453498423099517822265625</LongitudeDegrees>
            </Position>
            <AltitudeMeters>371.20001220703125</AltitudeMeters>
            <DistanceMeters>NAN</DistanceMeters>
          </Trackpoint>
          <Trackpoint>
            <Time>2019-10-10T10:31:25.000Z</Time>
            <Position>
              <LatitudeDegrees>37.8967828117311000823974609375</LatitudeDegrees>
              <LongitudeDegrees>-6.22149453498423099517822265625</LongitudeDegrees>
            </Position>
            <AltitudeMeters>371.20001220703125</AltitudeMeters>
            <DistanceMeters>NAN</DistanceMeters>
          </Trackpoint>
          <Trackpoint>
            <Time>2019-10-10T10:31:26.000Z</Time>
            <Position>
              <LatitudeDegrees>37.8967828117311000823974609375</LatitudeDegrees>
              <LongitudeDegrees>-6.22149453498423099517822265625</LongitudeDegrees>
            </Position>
            <AltitudeMeters>371.20001220703125</AltitudeMeters>
            <DistanceMeters>NAN</DistanceMeters>
          </Trackpoint>
          <Trackpoint>
            <Time>2019-10-10T10:31:29.000Z</Time>
            <Position>
              <LatitudeDegrees>37.8967828117311000823974609375</LatitudeDegrees>
              <LongitudeDegrees>-6.22149453498423099517822265625</LongitudeDegrees>
            </Position>
            <AltitudeMeters>371.20001220703125</AltitudeMeters>
            <DistanceMeters>NAN</DistanceMeters>
          </Trackpoint>
          <Trackpoint>
            <Time>2019-10-10T10:31:31.000Z</Time>
            <Position>
              <LatitudeDegrees>37.8967828117311000823974609375</LatitudeDegrees>
              <LongitudeDegrees>-6.22149453498423099517822265625</LongitudeDegrees>
            </Position>
            <AltitudeMeters>371.399993896484375</AltitudeMeters>
            <DistanceMeters>NAN</DistanceMeters>
          </Trackpoint>
          <Trackpoint>
            <Time>2019-10-10T10:31:37.000Z</Time>
            <Position>
              <LatitudeDegrees>37.8967828117311000823974609375</LatitudeDegrees>
              <LongitudeDegrees>-6.22149453498423099517822265625</LongitudeDegrees>
            </Position>
            <AltitudeMeters>371.20001220703125</AltitudeMeters>
            <DistanceMeters>NAN</DistanceMeters>
          </Trackpoint>
          <Trackpoint>
            <Time>2019-10-10T10:31:44.000Z</Time>
            <Position>
              <LatitudeDegrees>37.8967828117311000823974609375</LatitudeDegrees>
              <LongitudeDegrees>-6.22149453498423099517822265625</LongitudeDegrees>
            </Position>
            <AltitudeMeters>371.399993896484375</AltitudeMeters>
            <DistanceMeters>NAN</DistanceMeters>
          </Trackpoint>
          <Trackpoint>
            <Time>2019-10-10T10:31:47.000Z</Time>
            <Position>
              <LatitudeDegrees>37.896778620779514312744140625</LatitudeDegrees>
              <LongitudeDegrees>-6.22149570845067501068115234375</LongitudeDegrees>
            </Position>
            <AltitudeMeters>371.399993896484375</AltitudeMeters>
            <DistanceMeters>NAN</DistanceMeters>
          </Trackpoint>
          <Trackpoint>
            <Time>2019-10-10T10:31:49.000Z</Time>
            <Position>
              <LatitudeDegrees>37.896778620779514312744140625</LatitudeDegrees>
              <LongitudeDegrees>-6.22149570845067501068115234375</LongitudeDegrees>
            </Position>
            <AltitudeMeters>371</AltitudeMeters>
            <DistanceMeters>NAN</DistanceMeters>
          </Trackpoint>
          <Trackpoint>
            <Time>2019-10-10T10:31:50.000Z</Time>
            <Position>
              <LatitudeDegrees>37.896778620779514312744140625</LatitudeDegrees>
              <LongitudeDegrees>-6.22149570845067501068115234375</LongitudeDegrees>
            </Position>
            <AltitudeMeters>371</AltitudeMeters>
            <DistanceMeters>NAN</DistanceMeters>
          </Trackpoint>
          <Trackpoint>
            <Time>2019-10-10T10:31:51.000Z</Time>
            <Position>
              <LatitudeDegrees>37.896778620779514312744140625</LatitudeDegrees>
              <LongitudeDegrees>-6.22149570845067501068115234375</LongitudeDegrees>
            </Position>
            <AltitudeMeters>371.20001220703125</AltitudeMeters>
            <DistanceMeters>NAN</DistanceMeters>
          </Trackpoint>
          <Trackpoint>
            <Time>2019-10-10T10:31:54.000Z</Time>
            <Position>
              <LatitudeDegrees>37.896778620779514312744140625</LatitudeDegrees>
              <LongitudeDegrees>-6.22149570845067501068115234375</LongitudeDegrees>
            </Position>
            <AltitudeMeters>371.20001220703125</AltitudeMeters>
            <DistanceMeters>NAN</DistanceMeters>
          </Trackpoint>
          <Trackpoint>
            <Time>2019-10-10T10:31:56.000Z</Time>
            <Position>
              <LatitudeDegrees>37.896778620779514312744140625</LatitudeDegrees>
              <LongitudeDegrees>-6.22149570845067501068115234375</LongitudeDegrees>
            </Position>
            <AltitudeMeters>371.20001220703125</AltitudeMeters>
            <DistanceMeters>NAN</DistanceMeters>
          </Trackpoint>
          <Trackpoint>
            <Time>2019-10-10T10:31:58.000Z</Time>
            <Position>
              <LatitudeDegrees>37.896778620779514312744140625</LatitudeDegrees>
              <LongitudeDegrees>-6.22149570845067501068115234375</LongitudeDegrees>
            </Position>
            <AltitudeMeters>371.20001220703125</AltitudeMeters>
            <DistanceMeters>NAN</DistanceMeters>
          </Trackpoint>
          <Trackpoint>
            <Time>2019-10-10T10:32:03.000Z</Time>
            <Position>
              <LatitudeDegrees>37.896778620779514312744140625</LatitudeDegrees>
              <LongitudeDegrees>-6.22149570845067501068115234375</LongitudeDegrees>
            </Position>
            <AltitudeMeters>371.20001220703125</AltitudeMeters>
            <DistanceMeters>NAN</DistanceMeters>
          </Trackpoint>
          <Trackpoint>
            <Time>2019-10-10T10:32:10.000Z</Time>
            <Position>
              <LatitudeDegrees>37.89677401073276996612548828125</LatitudeDegrees>
              <LongitudeDegrees>-6.2214932776987552642822265625</LongitudeDegrees>
            </Position>
            <AltitudeMeters>371</AltitudeMeters>
            <DistanceMeters>NAN</DistanceMeters>
          </Trackpoint>
          <Trackpoint>
            <Time>2019-10-10T10:32:16.000Z</Time>
            <Position>
              <LatitudeDegrees>37.89662380702793598175048828125</LatitudeDegrees>
              <LongitudeDegrees>-6.2214468419551849365234375</LongitudeDegrees>
            </Position>
            <AltitudeMeters>371</AltitudeMeters>
            <DistanceMeters>NAN</DistanceMeters>
          </Trackpoint>
          <Trackpoint>
            <Time>2019-10-10T10:32:19.000Z</Time>
            <Position>
              <LatitudeDegrees>37.8965189494192600250244140625</LatitudeDegrees>
              <LongitudeDegrees>-6.221421696245670318603515625</LongitudeDegrees>
            </Position>
            <AltitudeMeters>371</AltitudeMeters>
            <DistanceMeters>NAN</DistanceMeters>
          </Trackpoint>
          <Trackpoint>
            <Time>2019-10-10T10:32:21.000Z</Time>
            <Position>
              <LatitudeDegrees>37.896443344652652740478515625</LatitudeDegrees>
              <LongitudeDegrees>-6.22139990329742431640625</LongitudeDegrees>
            </Position>
            <AltitudeMeters>371</AltitudeMeters>
            <DistanceMeters>NAN</DistanceMeters>
          </Trackpoint>
          <Trackpoint>
            <Time>2019-10-10T10:32:22.000Z</Time>
            <Position>
              <LatitudeDegrees>37.896403111517429351806640625</LatitudeDegrees>
              <LongitudeDegrees>-6.221388839185237884521484375</LongitudeDegrees>
            </Position>
            <AltitudeMeters>370.600006103515625</AltitudeMeters>
            <DistanceMeters>NAN</DistanceMeters>
          </Trackpoint>
          <Trackpoint>
            <Time>2019-10-10T10:32:27.000Z</Time>
            <Position>
              <LatitudeDegrees>37.8961814939975738525390625</LatitudeDegrees>
              <LongitudeDegrees>-6.2213682197034358978271484375</LongitudeDegrees>
            </Position>
            <AltitudeMeters>370.20001220703125</AltitudeMeters>
            <DistanceMeters>NAN</DistanceMeters>
          </Trackpoint>
          <Trackpoint>
            <Time>2019-10-10T10:32:29.000Z</Time>
            <Position>
              <LatitudeDegrees>37.896091639995574951171875</LatitudeDegrees>
              <LongitudeDegrees>-6.22135958634316921234130859375</LongitudeDegrees>
            </Position>
            <AltitudeMeters>369.79998779296875</AltitudeMeters>
            <DistanceMeters>NAN</DistanceMeters>
          </Trackpoint>
          <Trackpoint>
            <Time>2019-10-10T10:32:34.000Z</Time>
            <Position>
              <LatitudeDegrees>37.8958649933338165283203125</LatitudeDegrees>
              <LongitudeDegrees>-6.22135204263031482696533203125</LongitudeDegrees>
            </Position>
            <AltitudeMeters>370</AltitudeMeters>
            <DistanceMeters>NAN</DistanceMeters>
          </Trackpoint>
          <Trackpoint>
            <Time>2019-10-10T10:32:37.000Z</Time>
            <Position>
              <LatitudeDegrees>37.895727194845676422119140625</LatitudeDegrees>
              <LongitudeDegrees>-6.22135120443999767303466796875</LongitudeDegrees>
            </Position>
            <AltitudeMeters>370</AltitudeMeters>
            <DistanceMeters>NAN</DistanceMeters>
          </Trackpoint>
          <Trackpoint>
            <Time>2019-10-10T10:32:43.000Z</Time>
            <Position>
              <LatitudeDegrees>37.8954517655074596405029296875</LatitudeDegrees>
              <LongitudeDegrees>-6.22134902514517307281494140625</LongitudeDegrees>
            </Position>
            <AltitudeMeters>369.600006103515625</AltitudeMeters>
            <DistanceMeters>NAN</DistanceMeters>
          </Trackpoint>
          <Trackpoint>
            <Time>2019-10-10T10:32:45.000Z</Time>
            <Position>
              <LatitudeDegrees>37.895359061658382415771484375</LatitudeDegrees>
              <LongitudeDegrees>-6.22134198434650897979736328125</LongitudeDegrees>
            </Position>
            <AltitudeMeters>369.79998779296875</AltitudeMeters>
            <DistanceMeters>NAN</DistanceMeters>
          </Trackpoint>
          <Trackpoint>
            <Time>2019-10-10T10:32:52.000Z</Time>
            <Position>
              <LatitudeDegrees>37.89501330815255641937255859375</LatitudeDegrees>
              <LongitudeDegrees>-6.22133888304233551025390625</LongitudeDegrees>
            </Position>
            <AltitudeMeters>369.20001220703125</AltitudeMeters>
            <DistanceMeters>NAN</DistanceMeters>
          </Trackpoint>
          <Trackpoint>
            <Time>2019-10-10T10:33:01.000Z</Time>
            <Position>
              <LatitudeDegrees>37.89457325823605060577392578125</LatitudeDegrees>
              <LongitudeDegrees>-6.2212890945374965667724609375</LongitudeDegrees>
            </Position>
            <AltitudeMeters>369</AltitudeMeters>
            <DistanceMeters>NAN</DistanceMeters>
          </Trackpoint>
          <Trackpoint>
            <Time>2019-10-10T10:33:04.000Z</Time>
            <Position>
              <LatitudeDegrees>37.89442305453121662139892578125</LatitudeDegrees>
              <LongitudeDegrees>-6.22124576009809970855712890625</LongitudeDegrees>
            </Position>
            <AltitudeMeters>368.79998779296875</AltitudeMeters>
            <DistanceMeters>NAN</DistanceMeters>
          </Trackpoint>
          <Trackpoint>
            <Time>2019-10-10T10:33:09.000Z</Time>
            <Position>
              <LatitudeDegrees>37.89417427964508533477783203125</LatitudeDegrees>
              <LongitudeDegrees>-6.22114752419292926788330078125</LongitudeDegrees>
            </Position>
            <AltitudeMeters>368.20001220703125</AltitudeMeters>
            <DistanceMeters>NAN</DistanceMeters>
          </Trackpoint>
          <Trackpoint>
            <Time>2019-10-10T10:33:11.000Z</Time>
            <Position>
              <LatitudeDegrees>37.8940751217305660247802734375</LatitudeDegrees>
              <LongitudeDegrees>-6.22109807096421718597412109375</LongitudeDegrees>
            </Position>
            <AltitudeMeters>367.79998779296875</AltitudeMeters>
            <DistanceMeters>NAN</DistanceMeters>
          </Trackpoint>
          <Trackpoint>
            <Time>2019-10-10T10:33:16.000Z</Time>
            <Position>
              <LatitudeDegrees>37.8938156180083751678466796875</LatitudeDegrees>
              <LongitudeDegrees>-6.22094535268843173980712890625</LongitudeDegrees>
            </Position>
            <AltitudeMeters>367.20001220703125</AltitudeMeters>
            <DistanceMeters>NAN</DistanceMeters>
          </Trackpoint>
          <Trackpoint>
            <Time>2019-10-10T10:33:17.000Z</Time>
            <Position>
              <LatitudeDegrees>37.89376205764710903167724609375</LatitudeDegrees>
              <LongitudeDegrees>-6.2209135852754116058349609375</LongitudeDegrees>
            </Position>
            <AltitudeMeters>367.20001220703125</AltitudeMeters>
            <DistanceMeters>NAN</DistanceMeters>
          </Trackpoint>
          <Trackpoint>
            <Time>2019-10-10T10:33:19.000Z</Time>
            <Position>
              <LatitudeDegrees>37.89365393109619617462158203125</LatitudeDegrees>
              <LongitudeDegrees>-6.2208461947739124298095703125</LongitudeDegrees>
            </Position>
            <AltitudeMeters>367.399993896484375</AltitudeMeters>
            <DistanceMeters>NAN</DistanceMeters>
          </Trackpoint>
          <Trackpoint>
            <Time>2019-10-10T10:33:25.000Z</Time>
            <Position>
              <LatitudeDegrees>37.89331463165581226348876953125</LatitudeDegrees>
              <LongitudeDegrees>-6.2206433527171611785888671875</LongitudeDegrees>
            </Position>
            <AltitudeMeters>366.399993896484375</AltitudeMeters>
            <DistanceMeters>NAN</DistanceMeters>
          </Trackpoint>
          <Trackpoint>
            <Time>2019-10-10T10:33:26.000Z</Time>
            <Position>
              <LatitudeDegrees>37.89325478486716747283935546875</LatitudeDegrees>
              <LongitudeDegrees>-6.22060923837125301361083984375</LongitudeDegrees>
            </Position>
            <AltitudeMeters>366</AltitudeMeters>
            <DistanceMeters>NAN</DistanceMeters>
          </Trackpoint>
          <Trackpoint>
            <Time>2019-10-10T10:33:28.000Z</Time>
            <Position>
              <LatitudeDegrees>37.8931345045566558837890625</LatitudeDegrees>
              <LongitudeDegrees>-6.22054285369813442230224609375</LongitudeDegrees>
            </Position>
            <AltitudeMeters>365</AltitudeMeters>
            <DistanceMeters>NAN</DistanceMeters>
          </Trackpoint>
          <Trackpoint>
            <Time>2019-10-10T10:33:36.000Z</Time>
            <Position>
              <LatitudeDegrees>37.8926374576985836029052734375</LatitudeDegrees>
              <LongitudeDegrees>-6.2202933244407176971435546875</LongitudeDegrees>
            </Position>
            <AltitudeMeters>364.600006103515625</AltitudeMeters>
            <DistanceMeters>NAN</DistanceMeters>
          </Trackpoint>
          <Trackpoint>
            <Time>2019-10-10T10:33:42.000Z</Time>
            <Position>
              <LatitudeDegrees>37.8922629542648792266845703125</LatitudeDegrees>
              <LongitudeDegrees>-6.2201432883739471435546875</LongitudeDegrees>
            </Position>
            <AltitudeMeters>364</AltitudeMeters>
            <DistanceMeters>NAN</DistanceMeters>
          </Trackpoint>
          <Trackpoint>
            <Time>2019-10-10T10:33:44.000Z</Time>
            <Position>
              <LatitudeDegrees>37.89214032702147960662841796875</LatitudeDegrees>
              <LongitudeDegrees>-6.22009945102035999298095703125</LongitudeDegrees>
            </Position>
            <AltitudeMeters>364.600006103515625</AltitudeMeters>
            <DistanceMeters>NAN</DistanceMeters>
          </Trackpoint>
          <Trackpoint>
            <Time>2019-10-10T10:33:46.000Z</Time>
            <Position>
              <LatitudeDegrees>37.89201644249260425567626953125</LatitudeDegrees>
              <LongitudeDegrees>-6.220059134066104888916015625</LongitudeDegrees>
            </Position>
            <AltitudeMeters>365</AltitudeMeters>
            <DistanceMeters>NAN</DistanceMeters>
          </Trackpoint>
          <Trackpoint>
            <Time>2019-10-10T10:33:50.000Z</Time>
            <Position>
              <LatitudeDegrees>37.8917731158435344696044921875</LatitudeDegrees>
              <LongitudeDegrees>-6.21998059563338756561279296875</LongitudeDegrees>
            </Position>
            <AltitudeMeters>365</AltitudeMeters>
            <DistanceMeters>NAN</DistanceMeters>
          </Trackpoint>
          <Trackpoint>
            <Time>2019-10-10T10:33:53.000Z</Time>
            <Position>
              <LatitudeDegrees>37.8915920667350292205810546875</LatitudeDegrees>
              <LongitudeDegrees>-6.219918318092823028564453125</LongitudeDegrees>
            </Position>
            <AltitudeMeters>365</AltitudeMeters>
            <DistanceMeters>NAN</DistanceMeters>
          </Trackpoint>
          <Trackpoint>
            <Time>2019-10-10T10:34:01.000Z</Time>
            <Position>
              <LatitudeDegrees>37.8911179862916469573974609375</LatitudeDegrees>
              <LongitudeDegrees>-6.21976098977029323577880859375</LongitudeDegrees>
            </Position>
            <AltitudeMeters>365.79998779296875</AltitudeMeters>
            <DistanceMeters>NAN</DistanceMeters>
          </Trackpoint>
          <Trackpoint>
            <Time>2019-10-10T10:34:02.000Z</Time>
            <Position>
              <LatitudeDegrees>37.891059815883636474609375</LatitudeDegrees>
              <LongitudeDegrees>-6.21974187903106212615966796875</LongitudeDegrees>
            </Position>
            <AltitudeMeters>366.399993896484375</AltitudeMeters>
            <DistanceMeters>NAN</DistanceMeters>
          </Trackpoint>
          <Trackpoint>
            <Time>2019-10-10T10:34:08.000Z</Time>
            <Position>
              <LatitudeDegrees>37.8907106257975101470947265625</LatitudeDegrees>
              <LongitudeDegrees>-6.21962503530085086822509765625</LongitudeDegrees>
            </Position>
            <AltitudeMeters>366.79998779296875</AltitudeMeters>
            <DistanceMeters>NAN</DistanceMeters>
          </Trackpoint>
          <Trackpoint>
            <Time>2019-10-10T10:34:12.000Z</Time>
            <Position>
              <LatitudeDegrees>37.8904755972325801849365234375</LatitudeDegrees>
              <LongitudeDegrees>-6.219558231532573699951171875</LongitudeDegrees>
            </Position>
            <AltitudeMeters>366.79998779296875</AltitudeMeters>
            <DistanceMeters>NAN</DistanceMeters>
          </Trackpoint>
          <Trackpoint>
            <Time>2019-10-10T10:34:18.000Z</Time>
            <Position>
              <LatitudeDegrees>37.8901138342916965484619140625</LatitudeDegrees>
              <LongitudeDegrees>-6.2194621749222278594970703125</LongitudeDegrees>
            </Position>
            <AltitudeMeters>366</AltitudeMeters>
            <DistanceMeters>NAN</DistanceMeters>
          </Trackpoint>
          <Trackpoint>
            <Time>2019-10-10T10:34:21.000Z</Time>
            <Position>
              <LatitudeDegrees>37.88991945795714855194091796875</LatitudeDegrees>
              <LongitudeDegrees>-6.2194222770631313323974609375</LongitudeDegrees>
            </Position>
            <AltitudeMeters>365.600006103515625</AltitudeMeters>
            <DistanceMeters>NAN</DistanceMeters>
          </Trackpoint>
          <Trackpoint>
            <Time>2019-10-10T10:34:22.000Z</Time>
            <Position>
              <LatitudeDegrees>37.88985525257885456085205078125</LatitudeDegrees>
              <LongitudeDegrees>-6.21940760873258113861083984375</LongitudeDegrees>
            </Position>
            <AltitudeMeters>365.20001220703125</AltitudeMeters>
            <DistanceMeters>NAN</DistanceMeters>
          </Trackpoint>
          <Trackpoint>
            <Time>2019-10-10T10:34:26.000Z</Time>
            <Position>
              <LatitudeDegrees>37.88959474302828311920166015625</LatitudeDegrees>
              <LongitudeDegrees>-6.2193629331886768341064453125</LongitudeDegrees>
            </Position>
            <AltitudeMeters>364</AltitudeMeters>
            <DistanceMeters>NAN</DistanceMeters>
          </Trackpoint>
          <Trackpoint>
            <Time>2019-10-10T10:34:29.000Z</Time>
            <Position>
              <LatitudeDegrees>37.88940112106502056121826171875</LatitudeDegrees>
              <LongitudeDegrees>-6.2193317525088787078857421875</LongitudeDegrees>
            </Position>
            <AltitudeMeters>363.79998779296875</AltitudeMeters>
            <DistanceMeters>NAN</DistanceMeters>
          </Trackpoint>
          <Trackpoint>
            <Time>2019-10-10T10:34:33.000Z</Time>
            <Position>
              <LatitudeDegrees>37.88913139142096042633056640625</LatitudeDegrees>
              <LongitudeDegrees>-6.21931926347315311431884765625</LongitudeDegrees>
            </Position>
            <AltitudeMeters>363.79998779296875</AltitudeMeters>
            <DistanceMeters>NAN</DistanceMeters>
          </Trackpoint>
          <Trackpoint>
            <Time>2019-10-10T10:34:36.000Z</Time>
            <Position>
              <LatitudeDegrees>37.88892217911779880523681640625</LatitudeDegrees>
              <LongitudeDegrees>-6.2193438224494457244873046875</LongitudeDegrees>
            </Position>
            <AltitudeMeters>362.79998779296875</AltitudeMeters>
            <DistanceMeters>NAN</DistanceMeters>
          </Trackpoint>
          <Trackpoint>
            <Time>2019-10-10T10:34:40.000Z</Time>
            <Position>
              <LatitudeDegrees>37.88864725269377231597900390625</LatitudeDegrees>
              <LongitudeDegrees>-6.2194296531379222869873046875</LongitudeDegrees>
            </Position>
            <AltitudeMeters>361.399993896484375</AltitudeMeters>
            <DistanceMeters>NAN</DistanceMeters>
          </Trackpoint>
          <Trackpoint>
            <Time>2019-10-10T10:34:42.000Z</Time>
            <Position>
              <LatitudeDegrees>37.888518758118152618408203125</LatitudeDegrees>
              <LongitudeDegrees>-6.21949243359267711639404296875</LongitudeDegrees>
            </Position>
            <AltitudeMeters>361.20001220703125</AltitudeMeters>
            <DistanceMeters>NAN</DistanceMeters>
          </Trackpoint>
          <Trackpoint>
            <Time>2019-10-10T10:34:48.000Z</Time>
            <Position>
              <LatitudeDegrees>37.888151295483112335205078125</LatitudeDegrees>
              <LongitudeDegrees>-6.2196640111505985260009765625</LongitudeDegrees>
            </Position>
            <AltitudeMeters>361</AltitudeMeters>
            <DistanceMeters>NAN</DistanceMeters>
          </Trackpoint>
          <Trackpoint>
            <Time>2019-10-10T10:34:50.000Z</Time>
            <Position>
              <LatitudeDegrees>37.8880351223051548004150390625</LatitudeDegrees>
              <LongitudeDegrees>-6.21972226537764072418212890625</LongitudeDegrees>
            </Position>
            <AltitudeMeters>361.20001220703125</AltitudeMeters>
            <DistanceMeters>NAN</DistanceMeters>
          </Trackpoint>
          <Trackpoint>
            <Time>2019-10-10T10:34:52.000Z</Time>
            <Position>
              <LatitudeDegrees>37.8879167698323726654052734375</LatitudeDegrees>
              <LongitudeDegrees>-6.219782195985317230224609375</LongitudeDegrees>
            </Position>
            <AltitudeMeters>361.399993896484375</AltitudeMeters>
            <DistanceMeters>NAN</DistanceMeters>
          </Trackpoint>
          <Trackpoint>
            <Time>2019-10-10T10:34:59.000Z</Time>
            <Position>
              <LatitudeDegrees>37.88751267828047275543212890625</LatitudeDegrees>
              <LongitudeDegrees>-6.21997221373021602630615234375</LongitudeDegrees>
            </Position>
            <AltitudeMeters>360.600006103515625</AltitudeMeters>
            <DistanceMeters>NAN</DistanceMeters>
          </Trackpoint>
          <Trackpoint>
            <Time>2019-10-10T10:35:05.000Z</Time>
            <Position>
              <LatitudeDegrees>37.88716231472790241241455078125</LatitudeDegrees>
              <LongitudeDegrees>-6.22012660838663578033447265625</LongitudeDegrees>
            </Position>
            <AltitudeMeters>362.20001220703125</AltitudeMeters>
            <DistanceMeters>NAN</DistanceMeters>
          </Trackpoint>
          <Trackpoint>
            <Time>2019-10-10T10:35:08.000Z</Time>
            <Position>
              <LatitudeDegrees>37.88697875104844570159912109375</LatitudeDegrees>
              <LongitudeDegrees>-6.22018813155591487884521484375</LongitudeDegrees>
            </Position>
            <AltitudeMeters>362</AltitudeMeters>
            <DistanceMeters>NAN</DistanceMeters>
          </Trackpoint>
          <Trackpoint>
            <Time>2019-10-10T10:35:12.000Z</Time>
            <Position>
              <LatitudeDegrees>37.8867302276194095611572265625</LatitudeDegrees>
              <LongitudeDegrees>-6.2202369980514049530029296875</LongitudeDegrees>
            </Position>
            <AltitudeMeters>361.79998779296875</AltitudeMeters>
            <DistanceMeters>NAN</DistanceMeters>
          </Trackpoint>
          <Trackpoint>
            <Time>2019-10-10T10:35:15.000Z</Time>
            <Position>
              <LatitudeDegrees>37.88653803057968616485595703125</LatitudeDegrees>
              <LongitudeDegrees>-6.2202396802604198455810546875</LongitudeDegrees>
            </Position>
            <AltitudeMeters>361.399993896484375</AltitudeMeters>
            <DistanceMeters>NAN</DistanceMeters>
          </Trackpoint>
          <Trackpoint>
            <Time>2019-10-10T10:35:22.000Z</Time>
            <Position>
              <LatitudeDegrees>37.886079959571361541748046875</LatitudeDegrees>
              <LongitudeDegrees>-6.22014957480132579803466796875</LongitudeDegrees>
            </Position>
            <AltitudeMeters>361</AltitudeMeters>
            <DistanceMeters>NAN</DistanceMeters>
          </Trackpoint>
          <Trackpoint>
            <Time>2019-10-10T10:35:24.000Z</Time>
            <Position>
              <LatitudeDegrees>37.88594643585383892059326171875</LatitudeDegrees>
              <LongitudeDegrees>-6.22011051513254642486572265625</LongitudeDegrees>
            </Position>
            <AltitudeMeters>360.399993896484375</AltitudeMeters>
            <DistanceMeters>NAN</DistanceMeters>
          </Trackpoint>
          <Trackpoint>
            <Time>2019-10-10T10:35:30.000Z</Time>
            <Position>
              <LatitudeDegrees>37.88554192520678043365478515625</LatitudeDegrees>
              <LongitudeDegrees>-6.21997833251953125</LongitudeDegrees>
            </Position>
            <AltitudeMeters>359.20001220703125</AltitudeMeters>
            <DistanceMeters>NAN</DistanceMeters>
          </Trackpoint>
          <Trackpoint>
            <Time>2019-10-10T10:35:31.000Z</Time>
            <Position>
              <LatitudeDegrees>37.885474450886249542236328125</LatitudeDegrees>
              <LongitudeDegrees>-6.21995662339031696319580078125</LongitudeDegrees>
            </Position>
            <AltitudeMeters>359.399993896484375</AltitudeMeters>
            <DistanceMeters>NAN</DistanceMeters>
          </Trackpoint>
          <Trackpoint>
            <Time>2019-10-10T10:35:38.000Z</Time>
            <Position>
              <LatitudeDegrees>37.88503498770296573638916015625</LatitudeDegrees>
              <LongitudeDegrees>-6.21974573470652103424072265625</LongitudeDegrees>
            </Position>
            <AltitudeMeters>359.600006103515625</AltitudeMeters>
            <DistanceMeters>NAN</DistanceMeters>
          </Trackpoint>
          <Trackpoint>
            <Time>2019-10-10T10:35:44.000Z</Time>
            <Position>
              <LatitudeDegrees>37.8847068361937999725341796875</LatitudeDegrees>
              <LongitudeDegrees>-6.21946644969284534454345703125</LongitudeDegrees>
            </Position>
            <AltitudeMeters>359.79998779296875</AltitudeMeters>
            <DistanceMeters>NAN</DistanceMeters>
          </Trackpoint>
          <Trackpoint>
            <Time>2019-10-10T10:35:49.000Z</Time>
            <Position>
              <LatitudeDegrees>37.8844387829303741455078125</LatitudeDegrees>
              <LongitudeDegrees>-6.2192234583199024200439453125</LongitudeDegrees>
            </Position>
            <AltitudeMeters>358.79998779296875</AltitudeMeters>
            <DistanceMeters>NAN</DistanceMeters>
          </Trackpoint>
          <Trackpoint>
            <Time>2019-10-10T10:35:50.000Z</Time>
            <Position>
              <LatitudeDegrees>37.884384803473949432373046875</LatitudeDegrees>
              <LongitudeDegrees>-6.2191842310130596160888671875</LongitudeDegrees>
            </Position>
            <AltitudeMeters>358.79998779296875</AltitudeMeters>
            <DistanceMeters>NAN</DistanceMeters>
          </Trackpoint>
          <Trackpoint>
            <Time>2019-10-10T10:35:51.000Z</Time>
            <Position>
              <LatitudeDegrees>37.88433157838881015777587890625</LatitudeDegrees>
              <LongitudeDegrees>-6.21914776973426342010498046875</LongitudeDegrees>
            </Position>
            <AltitudeMeters>358.79998779296875</AltitudeMeters>
            <DistanceMeters>NAN</DistanceMeters>
          </Trackpoint>
          <Trackpoint>
            <Time>2019-10-10T10:35:53.000Z</Time>
            <Position>
              <LatitudeDegrees>37.88422395475208759307861328125</LatitudeDegrees>
              <LongitudeDegrees>-6.2190722487866878509521484375</LongitudeDegrees>
            </Position>
            <AltitudeMeters>359.20001220703125</AltitudeMeters>
            <DistanceMeters>NAN</DistanceMeters>
          </Trackpoint>
          <Trackpoint>
            <Time>2019-10-10T10:35:56.000Z</Time>
            <Position>
              <LatitudeDegrees>37.88405531086027622222900390625</LatitudeDegrees>
              <LongitudeDegrees>-6.218983568251132965087890625</LongitudeDegrees>
            </Position>
            <AltitudeMeters>359.79998779296875</AltitudeMeters>
            <DistanceMeters>NAN</DistanceMeters>
          </Trackpoint>
          <Trackpoint>
            <Time>2019-10-10T10:36:00.000Z</Time>
            <Position>
              <LatitudeDegrees>37.88383704610168933868408203125</LatitudeDegrees>
              <LongitudeDegrees>-6.2189243920147418975830078125</LongitudeDegrees>
            </Position>
            <AltitudeMeters>359.600006103515625</AltitudeMeters>
            <DistanceMeters>NAN</DistanceMeters>
          </Trackpoint>
          <Trackpoint>
            <Time>2019-10-10T10:36:04.000Z</Time>
            <Position>
              <LatitudeDegrees>37.883625067770481109619140625</LatitudeDegrees>
              <LongitudeDegrees>-6.2189039401710033416748046875</LongitudeDegrees>
            </Position>
            <AltitudeMeters>360.399993896484375</AltitudeMeters>
            <DistanceMeters>NAN</DistanceMeters>
          </Trackpoint>
          <Trackpoint>
            <Time>2019-10-10T10:36:06.000Z</Time>
            <Position>
              <LatitudeDegrees>37.88352423347532749176025390625</LatitudeDegrees>
              <LongitudeDegrees>-6.21890335343778133392333984375</LongitudeDegrees>
            </Position>
            <AltitudeMeters>361.20001220703125</AltitudeMeters>
            <DistanceMeters>NAN</DistanceMeters>
          </Trackpoint>
          <Trackpoint>
            <Time>2019-10-10T10:36:11.000Z</Time>
            <Position>
              <LatitudeDegrees>37.883296497166156768798828125</LatitudeDegrees>
              <LongitudeDegrees>-6.21892489492893218994140625</LongitudeDegrees>
            </Position>
            <AltitudeMeters>361.600006103515625</AltitudeMeters>
            <DistanceMeters>NAN</DistanceMeters>
          </Trackpoint>
          <Trackpoint>
            <Time>2019-10-10T10:36:14.000Z</Time>
            <Position>
              <LatitudeDegrees>37.8831625543534755706787109375</LatitudeDegrees>
              <LongitudeDegrees>-6.21894626878201961517333984375</LongitudeDegrees>
            </Position>
            <AltitudeMeters>362.20001220703125</AltitudeMeters>
            <DistanceMeters>NAN</DistanceMeters>
          </Trackpoint>
          <Trackpoint>
            <Time>2019-10-10T10:36:22.000Z</Time>
            <Position>
              <LatitudeDegrees>37.882816381752490997314453125</LatitudeDegrees>
              <LongitudeDegrees>-6.21900460682809352874755859375</LongitudeDegrees>
            </Position>
            <AltitudeMeters>362.600006103515625</AltitudeMeters>
            <DistanceMeters>NAN</DistanceMeters>
          </Trackpoint>
          <Trackpoint>
            <Time>2019-10-10T10:36:24.000Z</Time>
            <Position>
              <LatitudeDegrees>37.8827323950827121734619140625</LatitudeDegrees>
              <LongitudeDegrees>-6.2190196104347705841064453125</LongitudeDegrees>
            </Position>
            <AltitudeMeters>362.79998779296875</AltitudeMeters>
            <DistanceMeters>NAN</DistanceMeters>
          </Trackpoint>
          <Trackpoint>
            <Time>2019-10-10T10:36:27.000Z</Time>
            <Position>
              <LatitudeDegrees>37.88260675035417079925537109375</LatitudeDegrees>
              <LongitudeDegrees>-6.2190409004688262939453125</LongitudeDegrees>
            </Position>
            <AltitudeMeters>363.600006103515625</AltitudeMeters>
            <DistanceMeters>NAN</DistanceMeters>
          </Trackpoint>
          <Trackpoint>
            <Time>2019-10-10T10:36:34.000Z</Time>
            <Position>
              <LatitudeDegrees>37.88231271319091320037841796875</LatitudeDegrees>
              <LongitudeDegrees>-6.21908582746982574462890625</LongitudeDegrees>
            </Position>
            <AltitudeMeters>364</AltitudeMeters>
            <DistanceMeters>NAN</DistanceMeters>
          </Trackpoint>
          <Trackpoint>
            <Time>2019-10-10T10:36:38.000Z</Time>
            <Position>
              <LatitudeDegrees>37.88214373402297496795654296875</LatitudeDegrees>
              <LongitudeDegrees>-6.21912128292024135589599609375</LongitudeDegrees>
            </Position>
            <AltitudeMeters>364.600006103515625</AltitudeMeters>
            <DistanceMeters>NAN</DistanceMeters>
          </Trackpoint>
          <Trackpoint>
            <Time>2019-10-10T10:36:44.000Z</Time>
            <Position>
              <LatitudeDegrees>37.88188171572983264923095703125</LatitudeDegrees>
              <LongitudeDegrees>-6.21916361153125762939453125</LongitudeDegrees>
            </Position>
            <AltitudeMeters>364.399993896484375</AltitudeMeters>
            <DistanceMeters>NAN</DistanceMeters>
          </Trackpoint>
          <Trackpoint>
            <Time>2019-10-10T10:36:53.000Z</Time>
            <Position>
              <LatitudeDegrees>37.8814754448831081390380859375</LatitudeDegrees>
              <LongitudeDegrees>-6.219228990375995635986328125</LongitudeDegrees>
            </Position>
            <AltitudeMeters>364.399993896484375</AltitudeMeters>
            <DistanceMeters>NAN</DistanceMeters>
          </Trackpoint>
          <Trackpoint>
            <Time>2019-10-10T10:37:03.000Z</Time>
            <Position>
              <LatitudeDegrees>37.88096138276159763336181640625</LatitudeDegrees>
              <LongitudeDegrees>-6.219320185482501983642578125</LongitudeDegrees>
            </Position>
            <AltitudeMeters>364.399993896484375</AltitudeMeters>
            <DistanceMeters>NAN</DistanceMeters>
          </Trackpoint>
          <Trackpoint>
            <Time>2019-10-10T10:37:10.000Z</Time>
            <Position>
              <LatitudeDegrees>37.8806292079389095306396484375</LatitudeDegrees>
              <LongitudeDegrees>-6.21937324292957782745361328125</LongitudeDegrees>
            </Position>
            <AltitudeMeters>365.399993896484375</AltitudeMeters>
            <DistanceMeters>NAN</DistanceMeters>
          </Trackpoint>
          <Trackpoint>
            <Time>2019-10-10T10:37:11.000Z</Time>
            <Position>
              <LatitudeDegrees>37.88058889098465442657470703125</LatitudeDegrees>
              <LongitudeDegrees>-6.2193783558905124664306640625</LongitudeDegrees>
            </Position>
            <AltitudeMeters>365.600006103515625</AltitudeMeters>
            <DistanceMeters>NAN</DistanceMeters>
          </Trackpoint>
          <Trackpoint>
            <Time>2019-10-10T10:37:18.000Z</Time>
            <Position>
              <LatitudeDegrees>37.88035017438232898712158203125</LatitudeDegrees>
              <LongitudeDegrees>-6.21942705474793910980224609375</LongitudeDegrees>
            </Position>
            <AltitudeMeters>366.79998779296875</AltitudeMeters>
            <DistanceMeters>NAN</DistanceMeters>
          </Trackpoint>
          <Trackpoint>
            <Time>2019-10-10T10:37:21.000Z</Time>
            <Position>
              <LatitudeDegrees>37.88025579415261745452880859375</LatitudeDegrees>
              <LongitudeDegrees>-6.21943828649818897247314453125</LongitudeDegrees>
            </Position>
            <AltitudeMeters>367.79998779296875</AltitudeMeters>
            <DistanceMeters>NAN</DistanceMeters>
          </Trackpoint>
          <Trackpoint>
            <Time>2019-10-10T10:37:27.000Z</Time>
            <Position>
              <LatitudeDegrees>37.880077846348285675048828125</LatitudeDegrees>
              <LongitudeDegrees>-6.2194564752280712127685546875</LongitudeDegrees>
            </Position>
            <AltitudeMeters>368.79998779296875</AltitudeMeters>
            <DistanceMeters>NAN</DistanceMeters>
          </Trackpoint>
          <Trackpoint>
            <Time>2019-10-10T10:37:31.000Z</Time>
            <Position>
              <LatitudeDegrees>37.8799620084464550018310546875</LatitudeDegrees>
              <LongitudeDegrees>-6.21946536004543304443359375</LongitudeDegrees>
            </Position>
            <AltitudeMeters>369.79998779296875</AltitudeMeters>
            <DistanceMeters>NAN</DistanceMeters>
          </Trackpoint>
          <Trackpoint>
            <Time>2019-10-10T10:37:32.000Z</Time>
            <Position>
              <LatitudeDegrees>37.87993376143276691436767578125</LatitudeDegrees>
              <LongitudeDegrees>-6.21947198174893856048583984375</LongitudeDegrees>
            </Position>
            <AltitudeMeters>369.79998779296875</AltitudeMeters>
            <DistanceMeters>NAN</DistanceMeters>
          </Trackpoint>
          <Trackpoint>
            <Time>2019-10-10T10:37:35.000Z</Time>
            <Position>
              <LatitudeDegrees>37.8798468410968780517578125</LatitudeDegrees>
              <LongitudeDegrees>-6.21949226595461368560791015625</LongitudeDegrees>
            </Position>
            <AltitudeMeters>370.79998779296875</AltitudeMeters>
            <DistanceMeters>NAN</DistanceMeters>
          </Trackpoint>
          <Trackpoint>
            <Time>2019-10-10T10:37:37.000Z</Time>
            <Position>
              <LatitudeDegrees>37.87978858686983585357666015625</LatitudeDegrees>
              <LongitudeDegrees>-6.2194990552961826324462890625</LongitudeDegrees>
            </Position>
            <AltitudeMeters>371</AltitudeMeters>
            <DistanceMeters>NAN</DistanceMeters>
          </Trackpoint>
          <Trackpoint>
            <Time>2019-10-10T10:37:43.000Z</Time>
            <Position>
              <LatitudeDegrees>37.879611812531948089599609375</LatitudeDegrees>
              <LongitudeDegrees>-6.2195174954831600189208984375</LongitudeDegrees>
            </Position>
            <AltitudeMeters>372.20001220703125</AltitudeMeters>
            <DistanceMeters>NAN</DistanceMeters>
          </Trackpoint>
          <Trackpoint>
            <Time>2019-10-10T10:37:47.000Z</Time>
            <Position>
              <LatitudeDegrees>37.87948516197502613067626953125</LatitudeDegrees>
              <LongitudeDegrees>-6.2195272184908390045166015625</LongitudeDegrees>
            </Position>
            <AltitudeMeters>373.399993896484375</AltitudeMeters>
            <DistanceMeters>NAN</DistanceMeters>
          </Trackpoint>
          <Trackpoint>
            <Time>2019-10-10T10:37:54.000Z</Time>
            <Position>
              <LatitudeDegrees>37.87924175150692462921142578125</LatitudeDegrees>
              <LongitudeDegrees>-6.2195278890430927276611328125</LongitudeDegrees>
            </Position>
            <AltitudeMeters>373.600006103515625</AltitudeMeters>
            <DistanceMeters>NAN</DistanceMeters>
          </Trackpoint>
          <Trackpoint>
            <Time>2019-10-10T10:38:00.000Z</Time>
            <Position>
              <LatitudeDegrees>37.879001609981060028076171875</LatitudeDegrees>
              <LongitudeDegrees>-6.219527721405029296875</LongitudeDegrees>
            </Position>
            <AltitudeMeters>373.600006103515625</AltitudeMeters>
            <DistanceMeters>NAN</DistanceMeters>
          </Trackpoint>
          <Trackpoint>
            <Time>2019-10-10T10:38:05.000Z</Time>
            <Position>
              <LatitudeDegrees>37.8787087462842464447021484375</LatitudeDegrees>
              <LongitudeDegrees>-6.219502575695514678955078125</LongitudeDegrees>
            </Position>
            <AltitudeMeters>372</AltitudeMeters>
            <DistanceMeters>NAN</DistanceMeters>
          </Trackpoint>
          <Trackpoint>
            <Time>2019-10-10T10:38:07.000Z</Time>
            <Position>
              <LatitudeDegrees>37.87856030277907848358154296875</LatitudeDegrees>
              <LongitudeDegrees>-6.21948556043207645416259765625</LongitudeDegrees>
            </Position>
            <AltitudeMeters>370.399993896484375</AltitudeMeters>
            <DistanceMeters>NAN</DistanceMeters>
          </Trackpoint>
          <Trackpoint>
            <Time>2019-10-10T10:38:09.000Z</Time>
            <Position>
              <LatitudeDegrees>37.87840138189494609832763671875</LatitudeDegrees>
              <LongitudeDegrees>-6.2194685451686382293701171875</LongitudeDegrees>
            </Position>
            <AltitudeMeters>368.79998779296875</AltitudeMeters>
            <DistanceMeters>NAN</DistanceMeters>
          </Trackpoint>
          <Trackpoint>
            <Time>2019-10-10T10:38:10.000Z</Time>
            <Position>
              <LatitudeDegrees>37.878318987786769866943359375</LatitudeDegrees>
              <LongitudeDegrees>-6.21945471502840518951416015625</LongitudeDegrees>
            </Position>
            <AltitudeMeters>367.79998779296875</AltitudeMeters>
            <DistanceMeters>NAN</DistanceMeters>
          </Trackpoint>
          <Trackpoint>
            <Time>2019-10-10T10:38:11.000Z</Time>
            <Position>
              <LatitudeDegrees>37.87823424674570560455322265625</LatitudeDegrees>
              <LongitudeDegrees>-6.21943912468850612640380859375</LongitudeDegrees>
            </Position>
            <AltitudeMeters>367.600006103515625</AltitudeMeters>
            <DistanceMeters>NAN</DistanceMeters>
          </Trackpoint>
          <Trackpoint>
            <Time>2019-10-10T10:38:13.000Z</Time>
            <Position>
              <LatitudeDegrees>37.87805889733135700225830078125</LatitudeDegrees>
              <LongitudeDegrees>-6.21940366923809051513671875</LongitudeDegrees>
            </Position>
            <AltitudeMeters>366.399993896484375</AltitudeMeters>
            <DistanceMeters>NAN</DistanceMeters>
          </Trackpoint>
          <Trackpoint>
            <Time>2019-10-10T10:38:14.000Z</Time>
            <Position>
              <LatitudeDegrees>37.87796728312969207763671875</LatitudeDegrees>
              <LongitudeDegrees>-6.21938732452690601348876953125</LongitudeDegrees>
            </Position>
            <AltitudeMeters>365.20001220703125</AltitudeMeters>
            <DistanceMeters>NAN</DistanceMeters>
          </Trackpoint>
          <Trackpoint>
            <Time>2019-10-10T10:38:16.000Z</Time>
            <Position>
              <LatitudeDegrees>37.87778195925056934356689453125</LatitudeDegrees>
              <LongitudeDegrees>-6.21935027651488780975341796875</LongitudeDegrees>
            </Position>
            <AltitudeMeters>363.79998779296875</AltitudeMeters>
            <DistanceMeters>NAN</DistanceMeters>
          </Trackpoint>
          <Trackpoint>
            <Time>2019-10-10T10:38:18.000Z</Time>
            <Position>
              <LatitudeDegrees>37.877592109143733978271484375</LatitudeDegrees>
              <LongitudeDegrees>-6.21931356377899646759033203125</LongitudeDegrees>
            </Position>
            <AltitudeMeters>362</AltitudeMeters>
            <DistanceMeters>NAN</DistanceMeters>
          </Trackpoint>
          <Trackpoint>
            <Time>2019-10-10T10:38:21.000Z</Time>
            <Position>
              <LatitudeDegrees>37.8773123212158679962158203125</LatitudeDegrees>
              <LongitudeDegrees>-6.21926595456898212432861328125</LongitudeDegrees>
            </Position>
            <AltitudeMeters>360.600006103515625</AltitudeMeters>
            <DistanceMeters>NAN</DistanceMeters>
          </Trackpoint>
          <Trackpoint>
            <Time>2019-10-10T10:38:23.000Z</Time>
            <Position>
              <LatitudeDegrees>37.8771352954208850860595703125</LatitudeDegrees>
              <LongitudeDegrees>-6.21923477388918399810791015625</LongitudeDegrees>
            </Position>
            <AltitudeMeters>360</AltitudeMeters>
            <DistanceMeters>NAN</DistanceMeters>
          </Trackpoint>
          <Trackpoint>
            <Time>2019-10-10T10:38:25.000Z</Time>
            <Position>
              <LatitudeDegrees>37.87697578780353069305419921875</LatitudeDegrees>
              <LongitudeDegrees>-6.219210214912891387939453125</LongitudeDegrees>
            </Position>
            <AltitudeMeters>360.600006103515625</AltitudeMeters>
            <DistanceMeters>NAN</DistanceMeters>
          </Trackpoint>
          <Trackpoint>
            <Time>2019-10-10T10:38:28.000Z</Time>
            <Position>
              <LatitudeDegrees>37.87677227519452571868896484375</LatitudeDegrees>
              <LongitudeDegrees>-6.21917274780571460723876953125</LongitudeDegrees>
            </Position>
            <AltitudeMeters>362</AltitudeMeters>
            <DistanceMeters>NAN</DistanceMeters>
          </Trackpoint>
          <Trackpoint>
            <Time>2019-10-10T10:38:30.000Z</Time>
            <Position>
              <LatitudeDegrees>37.876657359302043914794921875</LatitudeDegrees>
              <LongitudeDegrees>-6.21915422379970550537109375</LongitudeDegrees>
            </Position>
            <AltitudeMeters>363.399993896484375</AltitudeMeters>
            <DistanceMeters>NAN</DistanceMeters>
          </Trackpoint>
          <Trackpoint>
            <Time>2019-10-10T10:38:32.000Z</Time>
            <Position>
              <LatitudeDegrees>37.87655686028301715850830078125</LatitudeDegrees>
              <LongitudeDegrees>-6.21913787908852100372314453125</LongitudeDegrees>
            </Position>
            <AltitudeMeters>364.20001220703125</AltitudeMeters>
            <DistanceMeters>NAN</DistanceMeters>
          </Trackpoint>
          <Trackpoint>
            <Time>2019-10-10T10:38:33.000Z</Time>
            <Position>
              <LatitudeDegrees>37.87651008926331996917724609375</LatitudeDegrees>
              <LongitudeDegrees>-6.2191307544708251953125</LongitudeDegrees>
            </Position>
            <AltitudeMeters>364.600006103515625</AltitudeMeters>
            <DistanceMeters>NAN</DistanceMeters>
          </Trackpoint>
          <Trackpoint>
            <Time>2019-10-10T10:38:35.000Z</Time>
            <Position>
              <LatitudeDegrees>37.8764243423938751220703125</LatitudeDegrees>
              <LongitudeDegrees>-6.2191134877502918243408203125</LongitudeDegrees>
            </Position>
            <AltitudeMeters>365.399993896484375</AltitudeMeters>
            <DistanceMeters>NAN</DistanceMeters>
          </Trackpoint>
          <Trackpoint>
            <Time>2019-10-10T10:38:36.000Z</Time>
            <Position>
              <LatitudeDegrees>37.8763849474489688873291015625</LatitudeDegrees>
              <LongitudeDegrees>-6.21910326182842254638671875</LongitudeDegrees>
            </Position>
            <AltitudeMeters>365.600006103515625</AltitudeMeters>
            <DistanceMeters>NAN</DistanceMeters>
          </Trackpoint>
          <Trackpoint>
            <Time>2019-10-10T10:38:39.000Z</Time>
            <Position>
              <LatitudeDegrees>37.87626952864229679107666015625</LatitudeDegrees>
              <LongitudeDegrees>-6.21908121742308139801025390625</LongitudeDegrees>
            </Position>
            <AltitudeMeters>366.600006103515625</AltitudeMeters>
            <DistanceMeters>NAN</DistanceMeters>
          </Trackpoint>
          <Trackpoint>
            <Time>2019-10-10T10:38:42.000Z</Time>
            <Position>
              <LatitudeDegrees>37.87615545094013214111328125</LatitudeDegrees>
              <LongitudeDegrees>-6.21907199732959270477294921875</LongitudeDegrees>
            </Position>
            <AltitudeMeters>366.79998779296875</AltitudeMeters>
            <DistanceMeters>NAN</DistanceMeters>
          </Trackpoint>
          <Trackpoint>
            <Time>2019-10-10T10:38:46.000Z</Time>
            <Position>
              <LatitudeDegrees>37.87601019255816936492919921875</LatitudeDegrees>
              <LongitudeDegrees>-6.21904718689620494842529296875</LongitudeDegrees>
            </Position>
            <AltitudeMeters>367.20001220703125</AltitudeMeters>
            <DistanceMeters>NAN</DistanceMeters>
          </Trackpoint>
          <Trackpoint>
            <Time>2019-10-10T10:38:47.000Z</Time>
            <Position>
              <LatitudeDegrees>37.8759737312793731689453125</LatitudeDegrees>
              <LongitudeDegrees>-6.21904014609754085540771484375</LongitudeDegrees>
            </Position>
            <AltitudeMeters>367.79998779296875</AltitudeMeters>
            <DistanceMeters>NAN</DistanceMeters>
          </Trackpoint>
          <Trackpoint>
            <Time>2019-10-10T10:38:51.000Z</Time>
            <Position>
              <LatitudeDegrees>37.87582847289741039276123046875</LatitudeDegrees>
              <LongitudeDegrees>-6.21901550330221652984619140625</LongitudeDegrees>
            </Position>
            <AltitudeMeters>368.399993896484375</AltitudeMeters>
            <DistanceMeters>NAN</DistanceMeters>
          </Trackpoint>
          <Trackpoint>
            <Time>2019-10-10T10:38:55.000Z</Time>
            <Position>
              <LatitudeDegrees>37.875685058534145355224609375</LatitudeDegrees>
              <LongitudeDegrees>-6.21899639256298542022705078125</LongitudeDegrees>
            </Position>
            <AltitudeMeters>368.79998779296875</AltitudeMeters>
            <DistanceMeters>NAN</DistanceMeters>
          </Trackpoint>
          <Trackpoint>
            <Time>2019-10-10T10:38:57.000Z</Time>
            <Position>
              <LatitudeDegrees>37.8756154887378215789794921875</LatitudeDegrees>
              <LongitudeDegrees>-6.21898750774562358856201171875</LongitudeDegrees>
            </Position>
            <AltitudeMeters>369</AltitudeMeters>
            <DistanceMeters>NAN</DistanceMeters>
          </Trackpoint>
          <Trackpoint>
            <Time>2019-10-10T10:39:02.000Z</Time>
            <Position>
              <LatitudeDegrees>37.87544776685535907745361328125</LatitudeDegrees>
              <LongitudeDegrees>-6.2189545668661594390869140625</LongitudeDegrees>
            </Position>
            <AltitudeMeters>369.600006103515625</AltitudeMeters>
            <DistanceMeters>NAN</DistanceMeters>
          </Trackpoint>
          <Trackpoint>
            <Time>2019-10-10T10:39:03.000Z</Time>
            <Position>
              <LatitudeDegrees>37.8754146583378314971923828125</LatitudeDegrees>
              <LongitudeDegrees>-6.2189492024481296539306640625</LongitudeDegrees>
            </Position>
            <AltitudeMeters>370</AltitudeMeters>
            <DistanceMeters>NAN</DistanceMeters>
          </Trackpoint>
          <Trackpoint>
            <Time>2019-10-10T10:39:08.000Z</Time>
            <Position>
              <LatitudeDegrees>37.8752510435879230499267578125</LatitudeDegrees>
              <LongitudeDegrees>-6.21891659684479236602783203125</LongitudeDegrees>
            </Position>
            <AltitudeMeters>370.79998779296875</AltitudeMeters>
            <DistanceMeters>NAN</DistanceMeters>
          </Trackpoint>
          <Trackpoint>
            <Time>2019-10-10T10:39:10.000Z</Time>
            <Position>
              <LatitudeDegrees>37.87518692202866077423095703125</LatitudeDegrees>
              <LongitudeDegrees>-6.2189042754471302032470703125</LongitudeDegrees>
            </Position>
            <AltitudeMeters>371.399993896484375</AltitudeMeters>
            <DistanceMeters>NAN</DistanceMeters>
          </Trackpoint>
          <Trackpoint>
            <Time>2019-10-10T10:39:11.000Z</Time>
            <Position>
              <LatitudeDegrees>37.87515473552048206329345703125</LatitudeDegrees>
              <LongitudeDegrees>-6.2188960611820220947265625</LongitudeDegrees>
            </Position>
            <AltitudeMeters>371.79998779296875</AltitudeMeters>
            <DistanceMeters>NAN</DistanceMeters>
          </Trackpoint>
          <Trackpoint>
            <Time>2019-10-10T10:39:12.000Z</Time>
            <Position>
              <LatitudeDegrees>37.8751206211745738983154296875</LatitudeDegrees>
              <LongitudeDegrees>-6.21889530681073665618896484375</LongitudeDegrees>
            </Position>
            <AltitudeMeters>372.399993896484375</AltitudeMeters>
            <DistanceMeters>NAN</DistanceMeters>
          </Trackpoint>
          <Trackpoint>
            <Time>2019-10-10T10:39:17.000Z</Time>
            <Position>
              <LatitudeDegrees>37.874952815473079681396484375</LatitudeDegrees>
              <LongitudeDegrees>-6.218865215778350830078125</LongitudeDegrees>
            </Position>
            <AltitudeMeters>372.600006103515625</AltitudeMeters>
            <DistanceMeters>NAN</DistanceMeters>
          </Trackpoint>
          <Trackpoint>
            <Time>2019-10-10T10:39:22.000Z</Time>
            <Position>
              <LatitudeDegrees>37.87478542886674404144287109375</LatitudeDegrees>
              <LongitudeDegrees>-6.21883546002209186553955078125</LongitudeDegrees>
            </Position>
            <AltitudeMeters>373.399993896484375</AltitudeMeters>
            <DistanceMeters>NAN</DistanceMeters>
          </Trackpoint>
          <Trackpoint>
            <Time>2019-10-10T10:39:26.000Z</Time>
            <Position>
              <LatitudeDegrees>37.8746458701789379119873046875</LatitudeDegrees>
              <LongitudeDegrees>-6.21881366707384586334228515625</LongitudeDegrees>
            </Position>
            <AltitudeMeters>374</AltitudeMeters>
            <DistanceMeters>NAN</DistanceMeters>
          </Trackpoint>
          <Trackpoint>
            <Time>2019-10-10T10:39:34.000Z</Time>
            <Position>
              <LatitudeDegrees>37.87436549551784992218017578125</LatitudeDegrees>
              <LongitudeDegrees>-6.218761615455150604248046875</LongitudeDegrees>
            </Position>
            <AltitudeMeters>374.399993896484375</AltitudeMeters>
            <DistanceMeters>NAN</DistanceMeters>
          </Trackpoint>
          <Trackpoint>
            <Time>2019-10-10T10:39:37.000Z</Time>
            <Position>
              <LatitudeDegrees>37.8742606379091739654541015625</LatitudeDegrees>
              <LongitudeDegrees>-6.2187393195927143096923828125</LongitudeDegrees>
            </Position>
            <AltitudeMeters>375.20001220703125</AltitudeMeters>
            <DistanceMeters>NAN</DistanceMeters>
          </Trackpoint>
          <Trackpoint>
            <Time>2019-10-10T10:39:38.000Z</Time>
            <Position>
              <LatitudeDegrees>37.87422426044940948486328125</LatitudeDegrees>
              <LongitudeDegrees>-6.2187336198985576629638671875</LongitudeDegrees>
            </Position>
            <AltitudeMeters>375.399993896484375</AltitudeMeters>
            <DistanceMeters>NAN</DistanceMeters>
          </Trackpoint>
          <Trackpoint>
            <Time>2019-10-10T10:39:46.000Z</Time>
            <Position>
              <LatitudeDegrees>37.87393969483673572540283203125</LatitudeDegrees>
              <LongitudeDegrees>-6.2186819873750209808349609375</LongitudeDegrees>
            </Position>
            <AltitudeMeters>376.600006103515625</AltitudeMeters>
            <DistanceMeters>NAN</DistanceMeters>
          </Trackpoint>
          <Trackpoint>
            <Time>2019-10-10T10:39:57.000Z</Time>
            <Position>
              <LatitudeDegrees>37.87355178035795688629150390625</LatitudeDegrees>
              <LongitudeDegrees>-6.2186105735599994659423828125</LongitudeDegrees>
            </Position>
            <AltitudeMeters>377.399993896484375</AltitudeMeters>
            <DistanceMeters>NAN</DistanceMeters>
          </Trackpoint>
          <Trackpoint>
            <Time>2019-10-10T10:40:00.000Z</Time>
            <Position>
              <LatitudeDegrees>37.8734472580254077911376953125</LatitudeDegrees>
              <LongitudeDegrees>-6.21859406121075153350830078125</LongitudeDegrees>
            </Position>
            <AltitudeMeters>378</AltitudeMeters>
            <DistanceMeters>NAN</DistanceMeters>
          </Trackpoint>
          <Trackpoint>
            <Time>2019-10-10T10:40:07.000Z</Time>
            <Position>
              <LatitudeDegrees>37.8731968067586421966552734375</LatitudeDegrees>
              <LongitudeDegrees>-6.21854293160140514373779296875</LongitudeDegrees>
            </Position>
            <AltitudeMeters>379</AltitudeMeters>
            <DistanceMeters>NAN</DistanceMeters>
          </Trackpoint>
          <Trackpoint>
            <Time>2019-10-10T10:40:08.000Z</Time>
            <Position>
              <LatitudeDegrees>37.8731619380414485931396484375</LatitudeDegrees>
              <LongitudeDegrees>-6.2185341306030750274658203125</LongitudeDegrees>
            </Position>
            <AltitudeMeters>379</AltitudeMeters>
            <DistanceMeters>NAN</DistanceMeters>
          </Trackpoint>
          <Trackpoint>
            <Time>2019-10-10T10:40:17.000Z</Time>
            <Position>
              <LatitudeDegrees>37.872835211455821990966796875</LatitudeDegrees>
              <LongitudeDegrees>-6.21848811395466327667236328125</LongitudeDegrees>
            </Position>
            <AltitudeMeters>380.20001220703125</AltitudeMeters>
            <DistanceMeters>NAN</DistanceMeters>
          </Trackpoint>
          <Trackpoint>
            <Time>2019-10-10T10:40:23.000Z</Time>
            <Position>
              <LatitudeDegrees>37.8726177848875522613525390625</LatitudeDegrees>
              <LongitudeDegrees>-6.2184519879519939422607421875</LongitudeDegrees>
            </Position>
            <AltitudeMeters>381.399993896484375</AltitudeMeters>
            <DistanceMeters>NAN</DistanceMeters>
          </Trackpoint>
          <Trackpoint>
            <Time>2019-10-10T10:40:29.000Z</Time>
            <Position>
              <LatitudeDegrees>37.87240027450025081634521484375</LatitudeDegrees>
              <LongitudeDegrees>-6.2184226512908935546875</LongitudeDegrees>
            </Position>
            <AltitudeMeters>382</AltitudeMeters>
            <DistanceMeters>NAN</DistanceMeters>
          </Trackpoint>
          <Trackpoint>
            <Time>2019-10-10T10:40:36.000Z</Time>
            <Position>
              <LatitudeDegrees>37.872141860425472259521484375</LatitudeDegrees>
              <LongitudeDegrees>-6.21839239262044429779052734375</LongitudeDegrees>
            </Position>
            <AltitudeMeters>382.600006103515625</AltitudeMeters>
            <DistanceMeters>NAN</DistanceMeters>
          </Trackpoint>
          <Trackpoint>
            <Time>2019-10-10T10:40:40.000Z</Time>
            <Position>
              <LatitudeDegrees>37.87197765894234180450439453125</LatitudeDegrees>
              <LongitudeDegrees>-6.2183805741369724273681640625</LongitudeDegrees>
            </Position>
            <AltitudeMeters>382.20001220703125</AltitudeMeters>
            <DistanceMeters>NAN</DistanceMeters>
          </Trackpoint>
          <Trackpoint>
            <Time>2019-10-10T10:40:44.000Z</Time>
            <Position>
              <LatitudeDegrees>37.87178135477006435394287109375</LatitudeDegrees>
              <LongitudeDegrees>-6.2183668278157711029052734375</LongitudeDegrees>
            </Position>
            <AltitudeMeters>381.20001220703125</AltitudeMeters>
            <DistanceMeters>NAN</DistanceMeters>
          </Trackpoint>
          <Trackpoint>
            <Time>2019-10-10T10:40:47.000Z</Time>
            <Position>
              <LatitudeDegrees>37.87161673419177532196044921875</LatitudeDegrees>
              <LongitudeDegrees>-6.21835635043680667877197265625</LongitudeDegrees>
            </Position>
            <AltitudeMeters>380.399993896484375</AltitudeMeters>
            <DistanceMeters>NAN</DistanceMeters>
          </Trackpoint>
          <Trackpoint>
            <Time>2019-10-10T10:40:48.000Z</Time>
            <Position>
              <LatitudeDegrees>37.8715596534311771392822265625</LatitudeDegrees>
              <LongitudeDegrees>-6.21834964491426944732666015625</LongitudeDegrees>
            </Position>
            <AltitudeMeters>380.20001220703125</AltitudeMeters>
            <DistanceMeters>NAN</DistanceMeters>
          </Trackpoint>
          <Trackpoint>
            <Time>2019-10-10T10:40:53.000Z</Time>
            <Position>
              <LatitudeDegrees>37.87124910391867160797119140625</LatitudeDegrees>
              <LongitudeDegrees>-6.2183309532701969146728515625</LongitudeDegrees>
            </Position>
            <AltitudeMeters>380</AltitudeMeters>
            <DistanceMeters>NAN</DistanceMeters>
          </Trackpoint>
          <Trackpoint>
            <Time>2019-10-10T10:40:54.000Z</Time>
            <Position>
              <LatitudeDegrees>37.871182300150394439697265625</LatitudeDegrees>
              <LongitudeDegrees>-6.218326427042484283447265625</LongitudeDegrees>
            </Position>
            <AltitudeMeters>379.600006103515625</AltitudeMeters>
            <DistanceMeters>NAN</DistanceMeters>
          </Trackpoint>
          <Trackpoint>
            <Time>2019-10-10T10:40:57.000Z</Time>
            <Position>
              <LatitudeDegrees>37.8709745965898036956787109375</LatitudeDegrees>
              <LongitudeDegrees>-6.2183141894638538360595703125</LongitudeDegrees>
            </Position>
            <AltitudeMeters>379.20001220703125</AltitudeMeters>
            <DistanceMeters>NAN</DistanceMeters>
          </Trackpoint>
          <Trackpoint>
            <Time>2019-10-10T10:41:01.000Z</Time>
            <Position>
              <LatitudeDegrees>37.8706808947026729583740234375</LatitudeDegrees>
              <LongitudeDegrees>-6.2183051370084285736083984375</LongitudeDegrees>
            </Position>
            <AltitudeMeters>377.79998779296875</AltitudeMeters>
            <DistanceMeters>NAN</DistanceMeters>
          </Trackpoint>
          <Trackpoint>
            <Time>2019-10-10T10:41:02.000Z</Time>
            <Position>
              <LatitudeDegrees>37.87060369737446308135986328125</LatitudeDegrees>
              <LongitudeDegrees>-6.21831309981644153594970703125</LongitudeDegrees>
            </Position>
            <AltitudeMeters>377.600006103515625</AltitudeMeters>
            <DistanceMeters>NAN</DistanceMeters>
          </Trackpoint>
          <Trackpoint>
            <Time>2019-10-10T10:41:05.000Z</Time>
            <Position>
              <LatitudeDegrees>37.87037420086562633514404296875</LatitudeDegrees>
              <LongitudeDegrees>-6.2183587811887264251708984375</LongitudeDegrees>
            </Position>
            <AltitudeMeters>376.399993896484375</AltitudeMeters>
            <DistanceMeters>NAN</DistanceMeters>
          </Trackpoint>
          <Trackpoint>
            <Time>2019-10-10T10:41:07.000Z</Time>
            <Position>
              <LatitudeDegrees>37.87022533826529979705810546875</LatitudeDegrees>
              <LongitudeDegrees>-6.21840647421777248382568359375</LongitudeDegrees>
            </Position>
            <AltitudeMeters>376</AltitudeMeters>
            <DistanceMeters>NAN</DistanceMeters>
          </Trackpoint>
          <Trackpoint>
            <Time>2019-10-10T10:41:08.000Z</Time>
            <Position>
              <LatitudeDegrees>37.87015258334577083587646484375</LatitudeDegrees>
              <LongitudeDegrees>-6.2184328772127628326416015625</LongitudeDegrees>
            </Position>
            <AltitudeMeters>375.79998779296875</AltitudeMeters>
            <DistanceMeters>NAN</DistanceMeters>
          </Trackpoint>
          <Trackpoint>
            <Time>2019-10-10T10:41:12.000Z</Time>
            <Position>
              <LatitudeDegrees>37.8698601387441158294677734375</LatitudeDegrees>
              <LongitudeDegrees>-6.218536980450153350830078125</LongitudeDegrees>
            </Position>
            <AltitudeMeters>375.399993896484375</AltitudeMeters>
            <DistanceMeters>NAN</DistanceMeters>
          </Trackpoint>
          <Trackpoint>
            <Time>2019-10-10T10:41:15.000Z</Time>
            <Position>
              <LatitudeDegrees>37.86964547820389270782470703125</LatitudeDegrees>
              <LongitudeDegrees>-6.2186139263212680816650390625</LongitudeDegrees>
            </Position>
            <AltitudeMeters>374.399993896484375</AltitudeMeters>
            <DistanceMeters>NAN</DistanceMeters>
          </Trackpoint>
          <Trackpoint>
            <Time>2019-10-10T10:41:17.000Z</Time>
            <Position>
              <LatitudeDegrees>37.86950700916349887847900390625</LatitudeDegrees>
              <LongitudeDegrees>-6.21866379864513874053955078125</LongitudeDegrees>
            </Position>
            <AltitudeMeters>374</AltitudeMeters>
            <DistanceMeters>NAN</DistanceMeters>
          </Trackpoint>
          <Trackpoint>
            <Time>2019-10-10T10:41:19.000Z</Time>
            <Position>
              <LatitudeDegrees>37.86937071941792964935302734375</LatitudeDegrees>
              <LongitudeDegrees>-6.21870805509388446807861328125</LongitudeDegrees>
            </Position>
            <AltitudeMeters>374</AltitudeMeters>
            <DistanceMeters>NAN</DistanceMeters>
          </Trackpoint>
          <Trackpoint>
            <Time>2019-10-10T10:41:24.000Z</Time>
            <Position>
              <LatitudeDegrees>37.869036532938480377197265625</LatitudeDegrees>
              <LongitudeDegrees>-6.218783743679523468017578125</LongitudeDegrees>
            </Position>
            <AltitudeMeters>373.399993896484375</AltitudeMeters>
            <DistanceMeters>NAN</DistanceMeters>
          </Trackpoint>
          <Trackpoint>
            <Time>2019-10-10T10:41:29.000Z</Time>
            <Position>
              <LatitudeDegrees>37.8686933778226375579833984375</LatitudeDegrees>
              <LongitudeDegrees>-6.2187874317169189453125</LongitudeDegrees>
            </Position>
            <AltitudeMeters>373</AltitudeMeters>
            <DistanceMeters>NAN</DistanceMeters>
          </Trackpoint>
          <Trackpoint>
            <Time>2019-10-10T10:41:30.000Z</Time>
            <Position>
              <LatitudeDegrees>37.86862313747406005859375</LatitudeDegrees>
              <LongitudeDegrees>-6.2187758646905422210693359375</LongitudeDegrees>
            </Position>
            <AltitudeMeters>372.600006103515625</AltitudeMeters>
            <DistanceMeters>NAN</DistanceMeters>
          </Trackpoint>
          <Trackpoint>
            <Time>2019-10-10T10:41:32.000Z</Time>
            <Position>
              <LatitudeDegrees>37.86848072893917560577392578125</LatitudeDegrees>
              <LongitudeDegrees>-6.21874577365815639495849609375</LongitudeDegrees>
            </Position>
            <AltitudeMeters>372</AltitudeMeters>
            <DistanceMeters>NAN</DistanceMeters>
          </Trackpoint>
          <Trackpoint>
            <Time>2019-10-10T10:41:35.000Z</Time>
            <Position>
              <LatitudeDegrees>37.86826497875154018402099609375</LatitudeDegrees>
              <LongitudeDegrees>-6.2186685763299465179443359375</LongitudeDegrees>
            </Position>
            <AltitudeMeters>371</AltitudeMeters>
            <DistanceMeters>NAN</DistanceMeters>
          </Trackpoint>
          <Trackpoint>
            <Time>2019-10-10T10:41:36.000Z</Time>
            <Position>
              <LatitudeDegrees>37.86819197237491607666015625</LatitudeDegrees>
              <LongitudeDegrees>-6.2186380662024021148681640625</LongitudeDegrees>
            </Position>
            <AltitudeMeters>370.600006103515625</AltitudeMeters>
            <DistanceMeters>NAN</DistanceMeters>
          </Trackpoint>
          <Trackpoint>
            <Time>2019-10-10T10:41:38.000Z</Time>
            <Position>
              <LatitudeDegrees>37.8680452890694141387939453125</LatitudeDegrees>
              <LongitudeDegrees>-6.2185666523873805999755859375</LongitudeDegrees>
            </Position>
            <AltitudeMeters>369.79998779296875</AltitudeMeters>
            <DistanceMeters>NAN</DistanceMeters>
          </Trackpoint>
          <Trackpoint>
            <Time>2019-10-10T10:41:40.000Z</Time>
            <Position>
              <LatitudeDegrees>37.8678954206407070159912109375</LatitudeDegrees>
              <LongitudeDegrees>-6.218501441180706024169921875</LongitudeDegrees>
            </Position>
            <AltitudeMeters>368.600006103515625</AltitudeMeters>
            <DistanceMeters>NAN</DistanceMeters>
          </Trackpoint>
          <Trackpoint>
            <Time>2019-10-10T10:41:43.000Z</Time>
            <Position>
              <LatitudeDegrees>37.86766894161701202392578125</LatitudeDegrees>
              <LongitudeDegrees>-6.21839943341910839080810546875</LongitudeDegrees>
            </Position>
            <AltitudeMeters>367.79998779296875</AltitudeMeters>
            <DistanceMeters>NAN</DistanceMeters>
          </Trackpoint>
          <Trackpoint>
            <Time>2019-10-10T10:41:45.000Z</Time>
            <Position>
              <LatitudeDegrees>37.86751714535057544708251953125</LatitudeDegrees>
              <LongitudeDegrees>-6.2183262594044208526611328125</LongitudeDegrees>
            </Position>
            <AltitudeMeters>367.600006103515625</AltitudeMeters>
            <DistanceMeters>NAN</DistanceMeters>
          </Trackpoint>
          <Trackpoint>
            <Time>2019-10-10T10:41:48.000Z</Time>
            <Position>
              <LatitudeDegrees>37.8672909177839756011962890625</LatitudeDegrees>
              <LongitudeDegrees>-6.21821008622646331787109375</LongitudeDegrees>
            </Position>
            <AltitudeMeters>366.399993896484375</AltitudeMeters>
            <DistanceMeters>NAN</DistanceMeters>
          </Trackpoint>
          <Trackpoint>
            <Time>2019-10-10T10:41:52.000Z</Time>
            <Position>
              <LatitudeDegrees>37.8669802844524383544921875</LatitudeDegrees>
              <LongitudeDegrees>-6.21806113980710506439208984375</LongitudeDegrees>
            </Position>
            <AltitudeMeters>365.79998779296875</AltitudeMeters>
            <DistanceMeters>NAN</DistanceMeters>
          </Trackpoint>
          <Trackpoint>
            <Time>2019-10-10T10:41:53.000Z</Time>
            <Position>
              <LatitudeDegrees>37.86690174601972103118896484375</LatitudeDegrees>
              <LongitudeDegrees>-6.21802635490894317626953125</LongitudeDegrees>
            </Position>
            <AltitudeMeters>365</AltitudeMeters>
            <DistanceMeters>NAN</DistanceMeters>
          </Trackpoint>
          <Trackpoint>
            <Time>2019-10-10T10:41:55.000Z</Time>
            <Position>
              <LatitudeDegrees>37.8667497821152210235595703125</LatitudeDegrees>
              <LongitudeDegrees>-6.21795418672263622283935546875</LongitudeDegrees>
            </Position>
            <AltitudeMeters>363.79998779296875</AltitudeMeters>
            <DistanceMeters>NAN</DistanceMeters>
          </Trackpoint>
          <Trackpoint>
            <Time>2019-10-10T10:41:58.000Z</Time>
            <Position>
              <LatitudeDegrees>37.86652439273893833160400390625</LatitudeDegrees>
              <LongitudeDegrees>-6.2178598903119564056396484375</LongitudeDegrees>
            </Position>
            <AltitudeMeters>364</AltitudeMeters>
            <DistanceMeters>NAN</DistanceMeters>
          </Trackpoint>
          <Trackpoint>
            <Time>2019-10-10T10:41:59.000Z</Time>
            <Position>
              <LatitudeDegrees>37.86644778214395046234130859375</LatitudeDegrees>
              <LongitudeDegrees>-6.217837594449520111083984375</LongitudeDegrees>
            </Position>
            <AltitudeMeters>363.79998779296875</AltitudeMeters>
            <DistanceMeters>NAN</DistanceMeters>
          </Trackpoint>
          <Trackpoint>
            <Time>2019-10-10T10:42:05.000Z</Time>
            <Position>
              <LatitudeDegrees>37.86596833728253841400146484375</LatitudeDegrees>
              <LongitudeDegrees>-6.217754445970058441162109375</LongitudeDegrees>
            </Position>
            <AltitudeMeters>362.79998779296875</AltitudeMeters>
            <DistanceMeters>NAN</DistanceMeters>
          </Trackpoint>
          <Trackpoint>
            <Time>2019-10-10T10:42:06.000Z</Time>
            <Position>
              <LatitudeDegrees>37.86589558236300945281982421875</LatitudeDegrees>
              <LongitudeDegrees>-6.217756457626819610595703125</LongitudeDegrees>
            </Position>
            <AltitudeMeters>360.600006103515625</AltitudeMeters>
            <DistanceMeters>NAN</DistanceMeters>
          </Trackpoint>
          <Trackpoint>
            <Time>2019-10-10T10:42:07.000Z</Time>
            <Position>
              <LatitudeDegrees>37.86581662483513355255126953125</LatitudeDegrees>
              <LongitudeDegrees>-6.21775670908391475677490234375</LongitudeDegrees>
            </Position>
            <AltitudeMeters>362.399993896484375</AltitudeMeters>
            <DistanceMeters>NAN</DistanceMeters>
          </Trackpoint>
          <Trackpoint>
            <Time>2019-10-10T10:42:13.000Z</Time>
            <Position>
              <LatitudeDegrees>37.86533801816403865814208984375</LatitudeDegrees>
              <LongitudeDegrees>-6.21778939850628376007080078125</LongitudeDegrees>
            </Position>
            <AltitudeMeters>361.399993896484375</AltitudeMeters>
            <DistanceMeters>NAN</DistanceMeters>
          </Trackpoint>
          <Trackpoint>
            <Time>2019-10-10T10:42:14.000Z</Time>
            <Position>
              <LatitudeDegrees>37.8652591444551944732666015625</LatitudeDegrees>
              <LongitudeDegrees>-6.21779560111463069915771484375</LongitudeDegrees>
            </Position>
            <AltitudeMeters>361.20001220703125</AltitudeMeters>
            <DistanceMeters>NAN</DistanceMeters>
          </Trackpoint>
          <Trackpoint>
            <Time>2019-10-10T10:42:15.000Z</Time>
            <Position>
              <LatitudeDegrees>37.865180186927318572998046875</LatitudeDegrees>
              <LongitudeDegrees>-6.21780381537973880767822265625</LongitudeDegrees>
            </Position>
            <AltitudeMeters>360.79998779296875</AltitudeMeters>
            <DistanceMeters>NAN</DistanceMeters>
          </Trackpoint>
          <Trackpoint>
            <Time>2019-10-10T10:42:16.000Z</Time>
            <Position>
              <LatitudeDegrees>37.8651018999516963958740234375</LatitudeDegrees>
              <LongitudeDegrees>-6.21780968271195888519287109375</LongitudeDegrees>
            </Position>
            <AltitudeMeters>360.79998779296875</AltitudeMeters>
            <DistanceMeters>NAN</DistanceMeters>
          </Trackpoint>
          <Trackpoint>
            <Time>2019-10-10T10:42:18.000Z</Time>
            <Position>
              <LatitudeDegrees>37.8649476729333400726318359375</LatitudeDegrees>
              <LongitudeDegrees>-6.21781647205352783203125</LongitudeDegrees>
            </Position>
            <AltitudeMeters>360.20001220703125</AltitudeMeters>
            <DistanceMeters>NAN</DistanceMeters>
          </Trackpoint>
          <Trackpoint>
            <Time>2019-10-10T10:42:19.000Z</Time>
            <Position>
              <LatitudeDegrees>37.8648725710809230804443359375</LatitudeDegrees>
              <LongitudeDegrees>-6.21782116591930389404296875</LongitudeDegrees>
            </Position>
            <AltitudeMeters>360.20001220703125</AltitudeMeters>
            <DistanceMeters>NAN</DistanceMeters>
          </Trackpoint>
          <Trackpoint>
            <Time>2019-10-10T10:42:20.000Z</Time>
            <Position>
              <LatitudeDegrees>37.86479805596172809600830078125</LatitudeDegrees>
              <LongitudeDegrees>-6.217824518680572509765625</LongitudeDegrees>
            </Position>
            <AltitudeMeters>360.20001220703125</AltitudeMeters>
            <DistanceMeters>NAN</DistanceMeters>
          </Trackpoint>
          <Trackpoint>
            <Time>2019-10-10T10:42:21.000Z</Time>
            <Position>
              <LatitudeDegrees>37.86472362466156482696533203125</LatitudeDegrees>
              <LongitudeDegrees>-6.2178285419940948486328125</LongitudeDegrees>
            </Position>
            <AltitudeMeters>360.399993896484375</AltitudeMeters>
            <DistanceMeters>NAN</DistanceMeters>
          </Trackpoint>
          <Trackpoint>
            <Time>2019-10-10T10:42:22.000Z</Time>
            <Position>
              <LatitudeDegrees>37.86464852280914783477783203125</LatitudeDegrees>
              <LongitudeDegrees>-6.21782745234668254852294921875</LongitudeDegrees>
            </Position>
            <AltitudeMeters>360.600006103515625</AltitudeMeters>
            <DistanceMeters>NAN</DistanceMeters>
          </Trackpoint>
          <Trackpoint>
            <Time>2019-10-10T10:42:29.000Z</Time>
            <Position>
              <LatitudeDegrees>37.8641188703477382659912109375</LatitudeDegrees>
              <LongitudeDegrees>-6.21779710985720157623291015625</LongitudeDegrees>
            </Position>
            <AltitudeMeters>359.79998779296875</AltitudeMeters>
            <DistanceMeters>NAN</DistanceMeters>
          </Trackpoint>
          <Trackpoint>
            <Time>2019-10-10T10:42:31.000Z</Time>
            <Position>
              <LatitudeDegrees>37.86396472714841365814208984375</LatitudeDegrees>
              <LongitudeDegrees>-6.21777967549860477447509765625</LongitudeDegrees>
            </Position>
            <AltitudeMeters>360</AltitudeMeters>
            <DistanceMeters>NAN</DistanceMeters>
          </Trackpoint>
          <Trackpoint>
            <Time>2019-10-10T10:42:33.000Z</Time>
            <Position>
              <LatitudeDegrees>37.86381066776812076568603515625</LatitudeDegrees>
              <LongitudeDegrees>-6.2177549488842487335205078125</LongitudeDegrees>
            </Position>
            <AltitudeMeters>359.399993896484375</AltitudeMeters>
            <DistanceMeters>NAN</DistanceMeters>
          </Trackpoint>
          <Trackpoint>
            <Time>2019-10-10T10:42:34.000Z</Time>
            <Position>
              <LatitudeDegrees>37.86373120732605457305908203125</LatitudeDegrees>
              <LongitudeDegrees>-6.2177427113056182861328125</LongitudeDegrees>
            </Position>
            <AltitudeMeters>359</AltitudeMeters>
            <DistanceMeters>NAN</DistanceMeters>
          </Trackpoint>
          <Trackpoint>
            <Time>2019-10-10T10:42:40.000Z</Time>
            <Position>
              <LatitudeDegrees>37.8632548637688159942626953125</LatitudeDegrees>
              <LongitudeDegrees>-6.21766299940645694732666015625</LongitudeDegrees>
            </Position>
            <AltitudeMeters>358.399993896484375</AltitudeMeters>
            <DistanceMeters>NAN</DistanceMeters>
          </Trackpoint>
          <Trackpoint>
            <Time>2019-10-10T10:42:43.000Z</Time>
            <Position>
              <LatitudeDegrees>37.8630132973194122314453125</LatitudeDegrees>
              <LongitudeDegrees>-6.21762335300445556640625</LongitudeDegrees>
            </Position>
            <AltitudeMeters>357.600006103515625</AltitudeMeters>
            <DistanceMeters>NAN</DistanceMeters>
          </Trackpoint>
          <Trackpoint>
            <Time>2019-10-10T10:42:48.000Z</Time>
            <Position>
              <LatitudeDegrees>37.8626007400453090667724609375</LatitudeDegrees>
              <LongitudeDegrees>-6.21755688451230525970458984375</LongitudeDegrees>
            </Position>
            <AltitudeMeters>356.79998779296875</AltitudeMeters>
            <DistanceMeters>NAN</DistanceMeters>
          </Trackpoint>
          <Trackpoint>
            <Time>2019-10-10T10:42:49.000Z</Time>
            <Position>
              <LatitudeDegrees>37.86251767538487911224365234375</LatitudeDegrees>
              <LongitudeDegrees>-6.21754079125821590423583984375</LongitudeDegrees>
            </Position>
            <AltitudeMeters>356.600006103515625</AltitudeMeters>
            <DistanceMeters>NAN</DistanceMeters>
          </Trackpoint>
          <Trackpoint>
            <Time>2019-10-10T10:42:52.000Z</Time>
            <Position>
              <LatitudeDegrees>37.8622691519558429718017578125</LatitudeDegrees>
              <LongitudeDegrees>-6.21749460697174072265625</LongitudeDegrees>
            </Position>
            <AltitudeMeters>355.20001220703125</AltitudeMeters>
            <DistanceMeters>NAN</DistanceMeters>
          </Trackpoint>
          <Trackpoint>
            <Time>2019-10-10T10:42:58.000Z</Time>
            <Position>
              <LatitudeDegrees>37.86175626330077648162841796875</LatitudeDegrees>
              <LongitudeDegrees>-6.21739176101982593536376953125</LongitudeDegrees>
            </Position>
            <AltitudeMeters>353.600006103515625</AltitudeMeters>
            <DistanceMeters>NAN</DistanceMeters>
          </Trackpoint>
          <Trackpoint>
            <Time>2019-10-10T10:42:59.000Z</Time>
            <Position>
              <LatitudeDegrees>37.8616690076887607574462890625</LatitudeDegrees>
              <LongitudeDegrees>-6.21737281791865825653076171875</LongitudeDegrees>
            </Position>
            <AltitudeMeters>353.20001220703125</AltitudeMeters>
            <DistanceMeters>NAN</DistanceMeters>
          </Trackpoint>
          <Trackpoint>
            <Time>2019-10-10T10:43:04.000Z</Time>
            <Position>
              <LatitudeDegrees>37.86117858253419399261474609375</LatitudeDegrees>
              <LongitudeDegrees>-6.2172590754926204681396484375</LongitudeDegrees>
            </Position>
            <AltitudeMeters>352.20001220703125</AltitudeMeters>
            <DistanceMeters>NAN</DistanceMeters>
          </Trackpoint>
          <Trackpoint>
            <Time>2019-10-10T10:43:06.000Z</Time>
            <Position>
              <LatitudeDegrees>37.86105721257627010345458984375</LatitudeDegrees>
              <LongitudeDegrees>-6.21722529642283916473388671875</LongitudeDegrees>
            </Position>
            <AltitudeMeters>351.399993896484375</AltitudeMeters>
            <DistanceMeters>NAN</DistanceMeters>
          </Trackpoint>
          <Trackpoint>
            <Time>2019-10-10T10:43:10.000Z</Time>
            <Position>
              <LatitudeDegrees>37.86070718429982662200927734375</LatitudeDegrees>
              <LongitudeDegrees>-6.21714114211499691009521484375</LongitudeDegrees>
            </Position>
            <AltitudeMeters>351</AltitudeMeters>
            <DistanceMeters>NAN</DistanceMeters>
          </Trackpoint>
          <Trackpoint>
            <Time>2019-10-10T10:43:14.000Z</Time>
            <Position>
              <LatitudeDegrees>37.860353887081146240234375</LatitudeDegrees>
              <LongitudeDegrees>-6.21706000529229640960693359375</LongitudeDegrees>
            </Position>
            <AltitudeMeters>349.399993896484375</AltitudeMeters>
            <DistanceMeters>NAN</DistanceMeters>
          </Trackpoint>
          <Trackpoint>
            <Time>2019-10-10T10:43:15.000Z</Time>
            <Position>
              <LatitudeDegrees>37.86026663146913051605224609375</LatitudeDegrees>
              <LongitudeDegrees>-6.21704064309597015380859375</LongitudeDegrees>
            </Position>
            <AltitudeMeters>348.600006103515625</AltitudeMeters>
            <DistanceMeters>NAN</DistanceMeters>
          </Trackpoint>
          <Trackpoint>
            <Time>2019-10-10T10:43:16.000Z</Time>
            <Position>
              <LatitudeDegrees>37.86018029786646366119384765625</LatitudeDegrees>
              <LongitudeDegrees>-6.21702178381383419036865234375</LongitudeDegrees>
            </Position>
            <AltitudeMeters>348.20001220703125</AltitudeMeters>
            <DistanceMeters>NAN</DistanceMeters>
          </Trackpoint>
          <Trackpoint>
            <Time>2019-10-10T10:43:21.000Z</Time>
            <Position>
              <LatitudeDegrees>37.8597991727292537689208984375</LatitudeDegrees>
              <LongitudeDegrees>-6.21698792092502117156982421875</LongitudeDegrees>
            </Position>
            <AltitudeMeters>349.399993896484375</AltitudeMeters>
            <DistanceMeters>NAN</DistanceMeters>
          </Trackpoint>
          <Trackpoint>
            <Time>2019-10-10T10:43:23.000Z</Time>
            <Position>
              <LatitudeDegrees>37.859677635133266448974609375</LatitudeDegrees>
              <LongitudeDegrees>-6.21699093841016292572021484375</LongitudeDegrees>
            </Position>
            <AltitudeMeters>350</AltitudeMeters>
            <DistanceMeters>NAN</DistanceMeters>
          </Trackpoint>
          <Trackpoint>
            <Time>2019-10-10T10:43:24.000Z</Time>
            <Position>
              <LatitudeDegrees>37.85962290130555629730224609375</LatitudeDegrees>
              <LongitudeDegrees>-6.21698834002017974853515625</LongitudeDegrees>
            </Position>
            <AltitudeMeters>350.399993896484375</AltitudeMeters>
            <DistanceMeters>NAN</DistanceMeters>
          </Trackpoint>
          <Trackpoint>
            <Time>2019-10-10T10:43:26.000Z</Time>
            <Position>
              <LatitudeDegrees>37.85952416248619556427001953125</LatitudeDegrees>
              <LongitudeDegrees>-6.21699102222919464111328125</LongitudeDegrees>
            </Position>
            <AltitudeMeters>351.79998779296875</AltitudeMeters>
            <DistanceMeters>NAN</DistanceMeters>
          </Trackpoint>
          <Trackpoint>
            <Time>2019-10-10T10:43:29.000Z</Time>
            <Position>
              <LatitudeDegrees>37.85939256660640239715576171875</LatitudeDegrees>
              <LongitudeDegrees>-6.216996721923351287841796875</LongitudeDegrees>
            </Position>
            <AltitudeMeters>353</AltitudeMeters>
            <DistanceMeters>NAN</DistanceMeters>
          </Trackpoint>
          <Trackpoint>
            <Time>2019-10-10T10:43:31.000Z</Time>
            <Position>
              <LatitudeDegrees>37.85931117832660675048828125</LatitudeDegrees>
              <LongitudeDegrees>-6.21700267307460308074951171875</LongitudeDegrees>
            </Position>
            <AltitudeMeters>353.600006103515625</AltitudeMeters>
            <DistanceMeters>NAN</DistanceMeters>
          </Trackpoint>
          <Trackpoint>
            <Time>2019-10-10T10:43:32.000Z</Time>
            <Position>
              <LatitudeDegrees>37.85927270539104938507080078125</LatitudeDegrees>
              <LongitudeDegrees>-6.217001415789127349853515625</LongitudeDegrees>
            </Position>
            <AltitudeMeters>354</AltitudeMeters>
            <DistanceMeters>NAN</DistanceMeters>
          </Trackpoint>
          <Trackpoint>
            <Time>2019-10-10T10:43:33.000Z</Time>
            <Position>
              <LatitudeDegrees>37.8592345677316188812255859375</LatitudeDegrees>
              <LongitudeDegrees>-6.21700066141784191131591796875</LongitudeDegrees>
            </Position>
            <AltitudeMeters>354</AltitudeMeters>
            <DistanceMeters>NAN</DistanceMeters>
          </Trackpoint>
          <Trackpoint>
            <Time>2019-10-10T10:43:36.000Z</Time>
            <Position>
              <LatitudeDegrees>37.85912166349589824676513671875</LatitudeDegrees>
              <LongitudeDegrees>-6.21699630282819271087646484375</LongitudeDegrees>
            </Position>
            <AltitudeMeters>354.79998779296875</AltitudeMeters>
            <DistanceMeters>NAN</DistanceMeters>
          </Trackpoint>
          <Trackpoint>
            <Time>2019-10-10T10:43:37.000Z</Time>
            <Position>
              <LatitudeDegrees>37.8590830229222774505615234375</LatitudeDegrees>
              <LongitudeDegrees>-6.2169955484569072723388671875</LongitudeDegrees>
            </Position>
            <AltitudeMeters>355.20001220703125</AltitudeMeters>
            <DistanceMeters>NAN</DistanceMeters>
          </Trackpoint>
          <Trackpoint>
            <Time>2019-10-10T10:43:40.000Z</Time>
            <Position>
              <LatitudeDegrees>37.8589738905429840087890625</LatitudeDegrees>
              <LongitudeDegrees>-6.21698255650699138641357421875</LongitudeDegrees>
            </Position>
            <AltitudeMeters>355.399993896484375</AltitudeMeters>
            <DistanceMeters>NAN</DistanceMeters>
          </Trackpoint>
          <Trackpoint>
            <Time>2019-10-10T10:43:41.000Z</Time>
            <Position>
              <LatitudeDegrees>37.85893675871193408966064453125</LatitudeDegrees>
              <LongitudeDegrees>-6.21698071248829364776611328125</LongitudeDegrees>
            </Position>
            <AltitudeMeters>355.79998779296875</AltitudeMeters>
            <DistanceMeters>NAN</DistanceMeters>
          </Trackpoint>
          <Trackpoint>
            <Time>2019-10-10T10:43:44.000Z</Time>
            <Position>
              <LatitudeDegrees>37.8588263690471649169921875</LatitudeDegrees>
              <LongitudeDegrees>-6.2169730849564075469970703125</LongitudeDegrees>
            </Position>
            <AltitudeMeters>356.20001220703125</AltitudeMeters>
            <DistanceMeters>NAN</DistanceMeters>
          </Trackpoint>
          <Trackpoint>
            <Time>2019-10-10T10:43:46.000Z</Time>
            <Position>
              <LatitudeDegrees>37.85874984227120876312255859375</LatitudeDegrees>
              <LongitudeDegrees>-6.21696931309998035430908203125</LongitudeDegrees>
            </Position>
            <AltitudeMeters>356.79998779296875</AltitudeMeters>
            <DistanceMeters>NAN</DistanceMeters>
          </Trackpoint>
          <Trackpoint>
            <Time>2019-10-10T10:43:48.000Z</Time>
            <Position>
              <LatitudeDegrees>37.85867306403815746307373046875</LatitudeDegrees>
              <LongitudeDegrees>-6.2169566564261913299560546875</LongitudeDegrees>
            </Position>
            <AltitudeMeters>357</AltitudeMeters>
            <DistanceMeters>NAN</DistanceMeters>
          </Trackpoint>
          <Trackpoint>
            <Time>2019-10-10T10:43:50.000Z</Time>
            <Position>
              <LatitudeDegrees>37.85859393887221813201904296875</LatitudeDegrees>
              <LongitudeDegrees>-6.2169382162392139434814453125</LongitudeDegrees>
            </Position>
            <AltitudeMeters>357.399993896484375</AltitudeMeters>
            <DistanceMeters>NAN</DistanceMeters>
          </Trackpoint>
          <Trackpoint>
            <Time>2019-10-10T10:43:53.000Z</Time>
            <Position>
              <LatitudeDegrees>37.858476676046848297119140625</LatitudeDegrees>
              <LongitudeDegrees>-6.21691734530031681060791015625</LongitudeDegrees>
            </Position>
            <AltitudeMeters>357.600006103515625</AltitudeMeters>
            <DistanceMeters>NAN</DistanceMeters>
          </Trackpoint>
          <Trackpoint>
            <Time>2019-10-10T10:43:56.000Z</Time>
            <Position>
              <LatitudeDegrees>37.85836896859109401702880859375</LatitudeDegrees>
              <LongitudeDegrees>-6.21689991094172000885009765625</LongitudeDegrees>
            </Position>
            <AltitudeMeters>358.399993896484375</AltitudeMeters>
            <DistanceMeters>NAN</DistanceMeters>
          </Trackpoint>
          <Trackpoint>
            <Time>2019-10-10T10:43:57.000Z</Time>
            <Position>
              <LatitudeDegrees>37.85833393223583698272705078125</LatitudeDegrees>
              <LongitudeDegrees>-6.21689337305724620819091796875</LongitudeDegrees>
            </Position>
            <AltitudeMeters>358.600006103515625</AltitudeMeters>
            <DistanceMeters>NAN</DistanceMeters>
          </Trackpoint>
          <Trackpoint>
            <Time>2019-10-10T10:44:07.000Z</Time>
            <Position>
              <LatitudeDegrees>37.85798608325421810150146484375</LatitudeDegrees>
              <LongitudeDegrees>-6.2168352864682674407958984375</LongitudeDegrees>
            </Position>
            <AltitudeMeters>359.600006103515625</AltitudeMeters>
            <DistanceMeters>NAN</DistanceMeters>
          </Trackpoint>
          <Trackpoint>
            <Time>2019-10-10T10:44:09.000Z</Time>
            <Position>
              <LatitudeDegrees>37.8579169325530529022216796875</LatitudeDegrees>
              <LongitudeDegrees>-6.2168280780315399169921875</LongitudeDegrees>
            </Position>
            <AltitudeMeters>360.20001220703125</AltitudeMeters>
            <DistanceMeters>NAN</DistanceMeters>
          </Trackpoint>
          <Trackpoint>
            <Time>2019-10-10T10:44:12.000Z</Time>
            <Position>
              <LatitudeDegrees>37.85781383514404296875</LatitudeDegrees>
              <LongitudeDegrees>-6.2168114818632602691650390625</LongitudeDegrees>
            </Position>
            <AltitudeMeters>361.20001220703125</AltitudeMeters>
            <DistanceMeters>NAN</DistanceMeters>
          </Trackpoint>
          <Trackpoint>
            <Time>2019-10-10T10:44:18.000Z</Time>
            <Position>
              <LatitudeDegrees>37.8576051257550716400146484375</LatitudeDegrees>
              <LongitudeDegrees>-6.21677049435675144195556640625</LongitudeDegrees>
            </Position>
            <AltitudeMeters>361.399993896484375</AltitudeMeters>
            <DistanceMeters>NAN</DistanceMeters>
          </Trackpoint>
          <Trackpoint>
            <Time>2019-10-10T10:44:23.000Z</Time>
            <Position>
              <LatitudeDegrees>37.857435643672943115234375</LatitudeDegrees>
              <LongitudeDegrees>-6.2167316861450672149658203125</LongitudeDegrees>
            </Position>
            <AltitudeMeters>362.20001220703125</AltitudeMeters>
            <DistanceMeters>NAN</DistanceMeters>
          </Trackpoint>
          <Trackpoint>
            <Time>2019-10-10T10:44:28.000Z</Time>
            <Position>
              <LatitudeDegrees>37.85725870169699192047119140625</LatitudeDegrees>
              <LongitudeDegrees>-6.2166988290846347808837890625</LongitudeDegrees>
            </Position>
            <AltitudeMeters>363</AltitudeMeters>
            <DistanceMeters>NAN</DistanceMeters>
          </Trackpoint>
          <Trackpoint>
            <Time>2019-10-10T10:44:32.000Z</Time>
            <Position>
              <LatitudeDegrees>37.8571186400949954986572265625</LatitudeDegrees>
              <LongitudeDegrees>-6.21666739694774150848388671875</LongitudeDegrees>
            </Position>
            <AltitudeMeters>363.399993896484375</AltitudeMeters>
            <DistanceMeters>NAN</DistanceMeters>
          </Trackpoint>
          <Trackpoint>
            <Time>2019-10-10T10:44:36.000Z</Time>
            <Position>
              <LatitudeDegrees>37.856977991759777069091796875</LatitudeDegrees>
              <LongitudeDegrees>-6.2166257388889789581298828125</LongitudeDegrees>
            </Position>
            <AltitudeMeters>364.600006103515625</AltitudeMeters>
            <DistanceMeters>NAN</DistanceMeters>
          </Trackpoint>
          <Trackpoint>
            <Time>2019-10-10T10:44:44.000Z</Time>
            <Position>
              <LatitudeDegrees>37.85665084607899188995361328125</LatitudeDegrees>
              <LongitudeDegrees>-6.21652808971703052520751953125</LongitudeDegrees>
            </Position>
            <AltitudeMeters>363.600006103515625</AltitudeMeters>
            <DistanceMeters>NAN</DistanceMeters>
          </Trackpoint>
          <Trackpoint>
            <Time>2019-10-10T10:44:45.000Z</Time>
            <Position>
              <LatitudeDegrees>37.85659971646964550018310546875</LatitudeDegrees>
              <LongitudeDegrees>-6.21650797314941883087158203125</LongitudeDegrees>
            </Position>
            <AltitudeMeters>363</AltitudeMeters>
            <DistanceMeters>NAN</DistanceMeters>
          </Trackpoint>
          <Trackpoint>
            <Time>2019-10-10T10:44:48.000Z</Time>
            <Position>
              <LatitudeDegrees>37.8564366884529590606689453125</LatitudeDegrees>
              <LongitudeDegrees>-6.2164426781237125396728515625</LongitudeDegrees>
            </Position>
            <AltitudeMeters>362</AltitudeMeters>
            <DistanceMeters>NAN</DistanceMeters>
          </Trackpoint>
          <Trackpoint>
            <Time>2019-10-10T10:44:50.000Z</Time>
            <Position>
              <LatitudeDegrees>37.856318168342113494873046875</LatitudeDegrees>
              <LongitudeDegrees>-6.21639414690434932708740234375</LongitudeDegrees>
            </Position>
            <AltitudeMeters>361.20001220703125</AltitudeMeters>
            <DistanceMeters>NAN</DistanceMeters>
          </Trackpoint>
          <Trackpoint>
            <Time>2019-10-10T10:44:51.000Z</Time>
            <Position>
              <LatitudeDegrees>37.85625656135380268096923828125</LatitudeDegrees>
              <LongitudeDegrees>-6.2163662351667881011962890625</LongitudeDegrees>
            </Position>
            <AltitudeMeters>360.600006103515625</AltitudeMeters>
            <DistanceMeters>NAN</DistanceMeters>
          </Trackpoint>
          <Trackpoint>
            <Time>2019-10-10T10:44:57.000Z</Time>
            <Position>
              <LatitudeDegrees>37.85585221834480762481689453125</LatitudeDegrees>
              <LongitudeDegrees>-6.21620387770235538482666015625</LongitudeDegrees>
            </Position>
            <AltitudeMeters>359.399993896484375</AltitudeMeters>
            <DistanceMeters>NAN</DistanceMeters>
          </Trackpoint>
          <Trackpoint>
            <Time>2019-10-10T10:45:01.000Z</Time>
            <Position>
              <LatitudeDegrees>37.85554946400225162506103515625</LatitudeDegrees>
              <LongitudeDegrees>-6.21607840061187744140625</LongitudeDegrees>
            </Position>
            <AltitudeMeters>357.79998779296875</AltitudeMeters>
            <DistanceMeters>NAN</DistanceMeters>
          </Trackpoint>
          <Trackpoint>
            <Time>2019-10-10T10:45:03.000Z</Time>
            <Position>
              <LatitudeDegrees>37.85539054311811923980712890625</LatitudeDegrees>
              <LongitudeDegrees>-6.21601469814777374267578125</LongitudeDegrees>
            </Position>
            <AltitudeMeters>356.600006103515625</AltitudeMeters>
            <DistanceMeters>NAN</DistanceMeters>
          </Trackpoint>
          <Trackpoint>
            <Time>2019-10-10T10:45:04.000Z</Time>
            <Position>
              <LatitudeDegrees>37.85531125031411647796630859375</LatitudeDegrees>
              <LongitudeDegrees>-6.215982176363468170166015625</LongitudeDegrees>
            </Position>
            <AltitudeMeters>355.600006103515625</AltitudeMeters>
            <DistanceMeters>NAN</DistanceMeters>
          </Trackpoint>
          <Trackpoint>
            <Time>2019-10-10T10:45:09.000Z</Time>
            <Position>
              <LatitudeDegrees>37.85491227172315120697021484375</LatitudeDegrees>
              <LongitudeDegrees>-6.21581713669002056121826171875</LongitudeDegrees>
            </Position>
            <AltitudeMeters>354.79998779296875</AltitudeMeters>
            <DistanceMeters>NAN</DistanceMeters>
          </Trackpoint>
          <Trackpoint>
            <Time>2019-10-10T10:45:11.000Z</Time>
            <Position>
              <LatitudeDegrees>37.8547489084303379058837890625</LatitudeDegrees>
              <LongitudeDegrees>-6.2157533504068851470947265625</LongitudeDegrees>
            </Position>
            <AltitudeMeters>354.399993896484375</AltitudeMeters>
            <DistanceMeters>NAN</DistanceMeters>
          </Trackpoint>
          <Trackpoint>
            <Time>2019-10-10T10:45:13.000Z</Time>
            <Position>
              <LatitudeDegrees>37.8545831143856048583984375</LatitudeDegrees>
              <LongitudeDegrees>-6.21568570844829082489013671875</LongitudeDegrees>
            </Position>
            <AltitudeMeters>353.399993896484375</AltitudeMeters>
            <DistanceMeters>NAN</DistanceMeters>
          </Trackpoint>
          <Trackpoint>
            <Time>2019-10-10T10:45:16.000Z</Time>
            <Position>
              <LatitudeDegrees>37.854340374469757080078125</LatitudeDegrees>
              <LongitudeDegrees>-6.21559468097984790802001953125</LongitudeDegrees>
            </Position>
            <AltitudeMeters>352.399993896484375</AltitudeMeters>
            <DistanceMeters>NAN</DistanceMeters>
          </Trackpoint>
          <Trackpoint>
            <Time>2019-10-10T10:45:17.000Z</Time>
            <Position>
              <LatitudeDegrees>37.854262925684452056884765625</LatitudeDegrees>
              <LongitudeDegrees>-6.2155674397945404052734375</LongitudeDegrees>
            </Position>
            <AltitudeMeters>352.20001220703125</AltitudeMeters>
            <DistanceMeters>NAN</DistanceMeters>
          </Trackpoint>
          <Trackpoint>
            <Time>2019-10-10T10:45:20.000Z</Time>
            <Position>
              <LatitudeDegrees>37.85404893569648265838623046875</LatitudeDegrees>
              <LongitudeDegrees>-6.2154998816549777984619140625</LongitudeDegrees>
            </Position>
            <AltitudeMeters>353.399993896484375</AltitudeMeters>
            <DistanceMeters>NAN</DistanceMeters>
          </Trackpoint>
          <Trackpoint>
            <Time>2019-10-10T10:45:23.000Z</Time>
            <Position>
              <LatitudeDegrees>37.8538644500076770782470703125</LatitudeDegrees>
              <LongitudeDegrees>-6.21545537374913692474365234375</LongitudeDegrees>
            </Position>
            <AltitudeMeters>354.399993896484375</AltitudeMeters>
            <DistanceMeters>NAN</DistanceMeters>
          </Trackpoint>
          <Trackpoint>
            <Time>2019-10-10T10:45:25.000Z</Time>
            <Position>
              <LatitudeDegrees>37.85375791601836681365966796875</LatitudeDegrees>
              <LongitudeDegrees>-6.21543399989604949951171875</LongitudeDegrees>
            </Position>
            <AltitudeMeters>355.399993896484375</AltitudeMeters>
            <DistanceMeters>NAN</DistanceMeters>
          </Trackpoint>
          <Trackpoint>
            <Time>2019-10-10T10:45:29.000Z</Time>
            <Position>
              <LatitudeDegrees>37.853573597967624664306640625</LatitudeDegrees>
              <LongitudeDegrees>-6.21540843509137630462646484375</LongitudeDegrees>
            </Position>
            <AltitudeMeters>356.600006103515625</AltitudeMeters>
            <DistanceMeters>NAN</DistanceMeters>
          </Trackpoint>
          <Trackpoint>
            <Time>2019-10-10T10:45:31.000Z</Time>
            <Position>
              <LatitudeDegrees>37.853489778935909271240234375</LatitudeDegrees>
              <LongitudeDegrees>-6.21540441177785396575927734375</LongitudeDegrees>
            </Position>
            <AltitudeMeters>357.20001220703125</AltitudeMeters>
            <DistanceMeters>NAN</DistanceMeters>
          </Trackpoint>
          <Trackpoint>
            <Time>2019-10-10T10:45:32.000Z</Time>
            <Position>
              <LatitudeDegrees>37.85344946198165416717529296875</LatitudeDegrees>
              <LongitudeDegrees>-6.2154029868543148040771484375</LongitudeDegrees>
            </Position>
            <AltitudeMeters>357.79998779296875</AltitudeMeters>
            <DistanceMeters>NAN</DistanceMeters>
          </Trackpoint>
          <Trackpoint>
            <Time>2019-10-10T10:45:36.000Z</Time>
            <Position>
              <LatitudeDegrees>37.85329523496329784393310546875</LatitudeDegrees>
              <LongitudeDegrees>-6.21539183892309665679931640625</LongitudeDegrees>
            </Position>
            <AltitudeMeters>358.20001220703125</AltitudeMeters>
            <DistanceMeters>NAN</DistanceMeters>
          </Trackpoint>
          <Trackpoint>
            <Time>2019-10-10T10:45:40.000Z</Time>
            <Position>
              <LatitudeDegrees>37.853141762316226959228515625</LatitudeDegrees>
              <LongitudeDegrees>-6.21537742204964160919189453125</LongitudeDegrees>
            </Position>
            <AltitudeMeters>358.600006103515625</AltitudeMeters>
            <DistanceMeters>NAN</DistanceMeters>
          </Trackpoint>
          <Trackpoint>
            <Time>2019-10-10T10:45:42.000Z</Time>
            <Position>
              <LatitudeDegrees>37.853066660463809967041015625</LatitudeDegrees>
              <LongitudeDegrees>-6.215370632708072662353515625</LongitudeDegrees>
            </Position>
            <AltitudeMeters>358.79998779296875</AltitudeMeters>
            <DistanceMeters>NAN</DistanceMeters>
          </Trackpoint>
          <Trackpoint>
            <Time>2019-10-10T10:45:46.000Z</Time>
            <Position>
              <LatitudeDegrees>37.85291637293994426727294921875</LatitudeDegrees>
              <LongitudeDegrees>-6.21535562910139560699462890625</LongitudeDegrees>
            </Position>
            <AltitudeMeters>359.79998779296875</AltitudeMeters>
            <DistanceMeters>NAN</DistanceMeters>
          </Trackpoint>
          <Trackpoint>
            <Time>2019-10-10T10:45:49.000Z</Time>
            <Position>
              <LatitudeDegrees>37.85280841402709484100341796875</LatitudeDegrees>
              <LongitudeDegrees>-6.2153449840843677520751953125</LongitudeDegrees>
            </Position>
            <AltitudeMeters>359.79998779296875</AltitudeMeters>
            <DistanceMeters>NAN</DistanceMeters>
          </Trackpoint>
          <Trackpoint>
            <Time>2019-10-10T10:45:57.000Z</Time>
            <Position>
              <LatitudeDegrees>37.85251957364380359649658203125</LatitudeDegrees>
              <LongitudeDegrees>-6.215342469513416290283203125</LongitudeDegrees>
            </Position>
            <AltitudeMeters>360.79998779296875</AltitudeMeters>
            <DistanceMeters>NAN</DistanceMeters>
          </Trackpoint>
          <Trackpoint>
            <Time>2019-10-10T10:45:59.000Z</Time>
            <Position>
              <LatitudeDegrees>37.85244874656200408935546875</LatitudeDegrees>
              <LongitudeDegrees>-6.21534372679889202117919921875</LongitudeDegrees>
            </Position>
            <AltitudeMeters>361</AltitudeMeters>
            <DistanceMeters>NAN</DistanceMeters>
          </Trackpoint>
          <Trackpoint>
            <Time>2019-10-10T10:46:03.000Z</Time>
            <Position>
              <LatitudeDegrees>37.85230248235166072845458984375</LatitudeDegrees>
              <LongitudeDegrees>-6.21534540317952632904052734375</LongitudeDegrees>
            </Position>
            <AltitudeMeters>362</AltitudeMeters>
            <DistanceMeters>NAN</DistanceMeters>
          </Trackpoint>
          <Trackpoint>
            <Time>2019-10-10T10:46:06.000Z</Time>
            <Position>
              <LatitudeDegrees>37.8521961160004138946533203125</LatitudeDegrees>
              <LongitudeDegrees>-6.215349845588207244873046875</LongitudeDegrees>
            </Position>
            <AltitudeMeters>361.79998779296875</AltitudeMeters>
            <DistanceMeters>NAN</DistanceMeters>
          </Trackpoint>
          <Trackpoint>
            <Time>2019-10-10T10:46:13.000Z</Time>
            <Position>
              <LatitudeDegrees>37.85194893367588520050048828125</LatitudeDegrees>
              <LongitudeDegrees>-6.21537641622126102447509765625</LongitudeDegrees>
            </Position>
            <AltitudeMeters>362.79998779296875</AltitudeMeters>
            <DistanceMeters>NAN</DistanceMeters>
          </Trackpoint>
          <Trackpoint>
            <Time>2019-10-10T10:46:14.000Z</Time>
            <Position>
              <LatitudeDegrees>37.85191305913031101226806640625</LatitudeDegrees>
              <LongitudeDegrees>-6.21538060717284679412841796875</LongitudeDegrees>
            </Position>
            <AltitudeMeters>363</AltitudeMeters>
            <DistanceMeters>NAN</DistanceMeters>
          </Trackpoint>
          <Trackpoint>
            <Time>2019-10-10T10:46:17.000Z</Time>
            <Position>
              <LatitudeDegrees>37.85180761478841304779052734375</LatitudeDegrees>
              <LongitudeDegrees>-6.2153904139995574951171875</LongitudeDegrees>
            </Position>
            <AltitudeMeters>363.600006103515625</AltitudeMeters>
            <DistanceMeters>NAN</DistanceMeters>
          </Trackpoint>
          <Trackpoint>
            <Time>2019-10-10T10:46:22.000Z</Time>
            <Position>
              <LatitudeDegrees>37.85163813270628452301025390625</LatitudeDegrees>
              <LongitudeDegrees>-6.21540742926299571990966796875</LongitudeDegrees>
            </Position>
            <AltitudeMeters>364.20001220703125</AltitudeMeters>
            <DistanceMeters>NAN</DistanceMeters>
          </Trackpoint>
          <Trackpoint>
            <Time>2019-10-10T10:46:28.000Z</Time>
            <Position>
              <LatitudeDegrees>37.85143445245921611785888671875</LatitudeDegrees>
              <LongitudeDegrees>-6.215428970754146575927734375</LongitudeDegrees>
            </Position>
            <AltitudeMeters>365.20001220703125</AltitudeMeters>
            <DistanceMeters>NAN</DistanceMeters>
          </Trackpoint>
          <Trackpoint>
            <Time>2019-10-10T10:46:29.000Z</Time>
            <Position>
              <LatitudeDegrees>37.85139991901814937591552734375</LatitudeDegrees>
              <LongitudeDegrees>-6.215433664619922637939453125</LongitudeDegrees>
            </Position>
            <AltitudeMeters>365.20001220703125</AltitudeMeters>
            <DistanceMeters>NAN</DistanceMeters>
          </Trackpoint>
          <Trackpoint>
            <Time>2019-10-10T10:46:39.000Z</Time>
            <Position>
              <LatitudeDegrees>37.85105693154036998748779296875</LatitudeDegrees>
              <LongitudeDegrees>-6.21547247283160686492919921875</LongitudeDegrees>
            </Position>
            <AltitudeMeters>366.20001220703125</AltitudeMeters>
            <DistanceMeters>NAN</DistanceMeters>
          </Trackpoint>
          <Trackpoint>
            <Time>2019-10-10T10:46:41.000Z</Time>
            <Position>
              <LatitudeDegrees>37.85099021159112453460693359375</LatitudeDegrees>
              <LongitudeDegrees>-6.2154896557331085205078125</LongitudeDegrees>
            </Position>
            <AltitudeMeters>366.399993896484375</AltitudeMeters>
            <DistanceMeters>NAN</DistanceMeters>
          </Trackpoint>
          <Trackpoint>
            <Time>2019-10-10T10:46:47.000Z</Time>
            <Position>
              <LatitudeDegrees>37.85079625435173511505126953125</LatitudeDegrees>
              <LongitudeDegrees>-6.2155243568122386932373046875</LongitudeDegrees>
            </Position>
            <AltitudeMeters>366.600006103515625</AltitudeMeters>
            <DistanceMeters>NAN</DistanceMeters>
          </Trackpoint>
          <Trackpoint>
            <Time>2019-10-10T10:46:50.000Z</Time>
            <Position>
              <LatitudeDegrees>37.850698269903659820556640625</LatitudeDegrees>
              <LongitudeDegrees>-6.21555578894913196563720703125</LongitudeDegrees>
            </Position>
            <AltitudeMeters>367.79998779296875</AltitudeMeters>
            <DistanceMeters>NAN</DistanceMeters>
          </Trackpoint>
          <Trackpoint>
            <Time>2019-10-10T10:46:54.000Z</Time>
            <Position>
              <LatitudeDegrees>37.8505663387477397918701171875</LatitudeDegrees>
              <LongitudeDegrees>-6.21559518389403820037841796875</LongitudeDegrees>
            </Position>
            <AltitudeMeters>368</AltitudeMeters>
            <DistanceMeters>NAN</DistanceMeters>
          </Trackpoint>
          <Trackpoint>
            <Time>2019-10-10T10:47:01.000Z</Time>
            <Position>
              <LatitudeDegrees>37.850332818925380706787109375</LatitudeDegrees>
              <LongitudeDegrees>-6.215679086744785308837890625</LongitudeDegrees>
            </Position>
            <AltitudeMeters>368.79998779296875</AltitudeMeters>
            <DistanceMeters>NAN</DistanceMeters>
          </Trackpoint>
          <Trackpoint>
            <Time>2019-10-10T10:47:04.000Z</Time>
            <Position>
              <LatitudeDegrees>37.8502324037253856658935546875</LatitudeDegrees>
              <LongitudeDegrees>-6.21571454219520092010498046875</LongitudeDegrees>
            </Position>
            <AltitudeMeters>369.600006103515625</AltitudeMeters>
            <DistanceMeters>NAN</DistanceMeters>
          </Trackpoint>
          <Trackpoint>
            <Time>2019-10-10T10:47:06.000Z</Time>
            <Position>
              <LatitudeDegrees>37.85015487112104892730712890625</LatitudeDegrees>
              <LongitudeDegrees>-6.215747483074665069580078125</LongitudeDegrees>
            </Position>
            <AltitudeMeters>369.79998779296875</AltitudeMeters>
            <DistanceMeters>NAN</DistanceMeters>
          </Trackpoint>
          <Trackpoint>
            <Time>2019-10-10T10:47:13.000Z</Time>
            <Position>
              <LatitudeDegrees>37.8499306552112102508544921875</LatitudeDegrees>
              <LongitudeDegrees>-6.21586189605295658111572265625</LongitudeDegrees>
            </Position>
            <AltitudeMeters>371</AltitudeMeters>
            <DistanceMeters>NAN</DistanceMeters>
          </Trackpoint>
          <Trackpoint>
            <Time>2019-10-10T10:47:15.000Z</Time>
            <Position>
              <LatitudeDegrees>37.84986351616680622100830078125</LatitudeDegrees>
              <LongitudeDegrees>-6.2158955074846744537353515625</LongitudeDegrees>
            </Position>
            <AltitudeMeters>371.399993896484375</AltitudeMeters>
            <DistanceMeters>NAN</DistanceMeters>
          </Trackpoint>
          <Trackpoint>
            <Time>2019-10-10T10:47:20.000Z</Time>
            <Position>
              <LatitudeDegrees>37.84970040433108806610107421875</LatitudeDegrees>
              <LongitudeDegrees>-6.21598997153341770172119140625</LongitudeDegrees>
            </Position>
            <AltitudeMeters>372.20001220703125</AltitudeMeters>
            <DistanceMeters>NAN</DistanceMeters>
          </Trackpoint>
          <Trackpoint>
            <Time>2019-10-10T10:47:25.000Z</Time>
            <Position>
              <LatitudeDegrees>37.84953528083860874176025390625</LatitudeDegrees>
              <LongitudeDegrees>-6.216092146933078765869140625</LongitudeDegrees>
            </Position>
            <AltitudeMeters>372</AltitudeMeters>
            <DistanceMeters>NAN</DistanceMeters>
          </Trackpoint>
          <Trackpoint>
            <Time>2019-10-10T10:47:35.000Z</Time>
            <Position>
              <LatitudeDegrees>37.8491987474262714385986328125</LatitudeDegrees>
              <LongitudeDegrees>-6.21631602756679058074951171875</LongitudeDegrees>
            </Position>
            <AltitudeMeters>372.79998779296875</AltitudeMeters>
            <DistanceMeters>NAN</DistanceMeters>
          </Trackpoint>
          <Trackpoint>
            <Time>2019-10-10T10:47:42.000Z</Time>
            <Position>
              <LatitudeDegrees>37.84894050098955631256103515625</LatitudeDegrees>
              <LongitudeDegrees>-6.21649749577045440673828125</LongitudeDegrees>
            </Position>
            <AltitudeMeters>373</AltitudeMeters>
            <DistanceMeters>NAN</DistanceMeters>
          </Trackpoint>
          <Trackpoint>
            <Time>2019-10-10T10:47:47.000Z</Time>
            <Position>
              <LatitudeDegrees>37.84873598255217075347900390625</LatitudeDegrees>
              <LongitudeDegrees>-6.21664174832403659820556640625</LongitudeDegrees>
            </Position>
            <AltitudeMeters>373.20001220703125</AltitudeMeters>
            <DistanceMeters>NAN</DistanceMeters>
          </Trackpoint>
          <Trackpoint>
            <Time>2019-10-10T10:47:50.000Z</Time>
            <Position>
              <LatitudeDegrees>37.8486133553087711334228515625</LatitudeDegrees>
              <LongitudeDegrees>-6.21672791428864002227783203125</LongitudeDegrees>
            </Position>
            <AltitudeMeters>373</AltitudeMeters>
            <DistanceMeters>NAN</DistanceMeters>
          </Trackpoint>
          <Trackpoint>
            <Time>2019-10-10T10:47:53.000Z</Time>
            <Position>
              <LatitudeDegrees>37.84849089570343494415283203125</LatitudeDegrees>
              <LongitudeDegrees>-6.21681609191000461578369140625</LongitudeDegrees>
            </Position>
            <AltitudeMeters>373.20001220703125</AltitudeMeters>
            <DistanceMeters>NAN</DistanceMeters>
          </Trackpoint>
          <Trackpoint>
            <Time>2019-10-10T10:47:57.000Z</Time>
            <Position>
              <LatitudeDegrees>37.84832946024835109710693359375</LatitudeDegrees>
              <LongitudeDegrees>-6.21693377383053302764892578125</LongitudeDegrees>
            </Position>
            <AltitudeMeters>373</AltitudeMeters>
            <DistanceMeters>NAN</DistanceMeters>
          </Trackpoint>
          <Trackpoint>
            <Time>2019-10-10T10:48:01.000Z</Time>
            <Position>
              <LatitudeDegrees>37.84816668368875980377197265625</LatitudeDegrees>
              <LongitudeDegrees>-6.21705246157944202423095703125</LongitudeDegrees>
            </Position>
            <AltitudeMeters>373.399993896484375</AltitudeMeters>
            <DistanceMeters>NAN</DistanceMeters>
          </Trackpoint>
          <Trackpoint>
            <Time>2019-10-10T10:48:03.000Z</Time>
            <Position>
              <LatitudeDegrees>37.84808772616088390350341796875</LatitudeDegrees>
              <LongitudeDegrees>-6.2171115539968013763427734375</LongitudeDegrees>
            </Position>
            <AltitudeMeters>374.399993896484375</AltitudeMeters>
            <DistanceMeters>NAN</DistanceMeters>
          </Trackpoint>
          <Trackpoint>
            <Time>2019-10-10T10:48:10.000Z</Time>
            <Position>
              <LatitudeDegrees>37.84781632013618946075439453125</LatitudeDegrees>
              <LongitudeDegrees>-6.21730777435004711151123046875</LongitudeDegrees>
            </Position>
            <AltitudeMeters>374.79998779296875</AltitudeMeters>
            <DistanceMeters>NAN</DistanceMeters>
          </Trackpoint>
          <Trackpoint>
            <Time>2019-10-10T10:48:21.000Z</Time>
            <Position>
              <LatitudeDegrees>37.8473745100200176239013671875</LatitudeDegrees>
              <LongitudeDegrees>-6.2176272086799144744873046875</LongitudeDegrees>
            </Position>
            <AltitudeMeters>375.399993896484375</AltitudeMeters>
            <DistanceMeters>NAN</DistanceMeters>
          </Trackpoint>
          <Trackpoint>
            <Time>2019-10-10T10:48:24.000Z</Time>
            <Position>
              <LatitudeDegrees>37.84724928438663482666015625</LatitudeDegrees>
              <LongitudeDegrees>-6.2177204154431819915771484375</LongitudeDegrees>
            </Position>
            <AltitudeMeters>375.600006103515625</AltitudeMeters>
            <DistanceMeters>NAN</DistanceMeters>
          </Trackpoint>
          <Trackpoint>
            <Time>2019-10-10T10:48:28.000Z</Time>
            <Position>
              <LatitudeDegrees>37.847081981599330902099609375</LatitudeDegrees>
              <LongitudeDegrees>-6.2178427912294864654541015625</LongitudeDegrees>
            </Position>
            <AltitudeMeters>375</AltitudeMeters>
            <DistanceMeters>NAN</DistanceMeters>
          </Trackpoint>
          <Trackpoint>
            <Time>2019-10-10T10:48:31.000Z</Time>
            <Position>
              <LatitudeDegrees>37.8469544090330600738525390625</LatitudeDegrees>
              <LongitudeDegrees>-6.21793122030794620513916015625</LongitudeDegrees>
            </Position>
            <AltitudeMeters>375.399993896484375</AltitudeMeters>
            <DistanceMeters>NAN</DistanceMeters>
          </Trackpoint>
          <Trackpoint>
            <Time>2019-10-10T10:48:39.000Z</Time>
            <Position>
              <LatitudeDegrees>37.8466196358203887939453125</LatitudeDegrees>
              <LongitudeDegrees>-6.2181599624454975128173828125</LongitudeDegrees>
            </Position>
            <AltitudeMeters>375.79998779296875</AltitudeMeters>
            <DistanceMeters>NAN</DistanceMeters>
          </Trackpoint>
          <Trackpoint>
            <Time>2019-10-10T10:48:47.000Z</Time>
            <Position>
              <LatitudeDegrees>37.84630590118467807769775390625</LatitudeDegrees>
              <LongitudeDegrees>-6.21838417835533618927001953125</LongitudeDegrees>
            </Position>
            <AltitudeMeters>376.79998779296875</AltitudeMeters>
            <DistanceMeters>NAN</DistanceMeters>
          </Trackpoint>
          <Trackpoint>
            <Time>2019-10-10T10:48:54.000Z</Time>
            <Position>
              <LatitudeDegrees>37.846041619777679443359375</LatitudeDegrees>
              <LongitudeDegrees>-6.21852926909923553466796875</LongitudeDegrees>
            </Position>
            <AltitudeMeters>377.79998779296875</AltitudeMeters>
            <DistanceMeters>NAN</DistanceMeters>
          </Trackpoint>
          <Trackpoint>
            <Time>2019-10-10T10:48:59.000Z</Time>
            <Position>
              <LatitudeDegrees>37.845841459929943084716796875</LatitudeDegrees>
              <LongitudeDegrees>-6.2186246551573276519775390625</LongitudeDegrees>
            </Position>
            <AltitudeMeters>378.79998779296875</AltitudeMeters>
            <DistanceMeters>NAN</DistanceMeters>
          </Trackpoint>
          <Trackpoint>
            <Time>2019-10-10T10:49:01.000Z</Time>
            <Position>
              <LatitudeDegrees>37.84575839526951313018798828125</LatitudeDegrees>
              <LongitudeDegrees>-6.218660362064838409423828125</LongitudeDegrees>
            </Position>
            <AltitudeMeters>379.20001220703125</AltitudeMeters>
            <DistanceMeters>NAN</DistanceMeters>
          </Trackpoint>
          <Trackpoint>
            <Time>2019-10-10T10:49:06.000Z</Time>
            <Position>
              <LatitudeDegrees>37.84553929232060909271240234375</LatitudeDegrees>
              <LongitudeDegrees>-6.218725740909576416015625</LongitudeDegrees>
            </Position>
            <AltitudeMeters>379</AltitudeMeters>
            <DistanceMeters>NAN</DistanceMeters>
          </Trackpoint>
          <Trackpoint>
            <Time>2019-10-10T10:49:08.000Z</Time>
            <Position>
              <LatitudeDegrees>37.84544910304248332977294921875</LatitudeDegrees>
              <LongitudeDegrees>-6.2187460251152515411376953125</LongitudeDegrees>
            </Position>
            <AltitudeMeters>379.20001220703125</AltitudeMeters>
            <DistanceMeters>NAN</DistanceMeters>
          </Trackpoint>
          <Trackpoint>
            <Time>2019-10-10T10:49:18.000Z</Time>
            <Position>
              <LatitudeDegrees>37.84497250802814960479736328125</LatitudeDegrees>
              <LongitudeDegrees>-6.21880662627518177032470703125</LongitudeDegrees>
            </Position>
            <AltitudeMeters>379</AltitudeMeters>
            <DistanceMeters>NAN</DistanceMeters>
          </Trackpoint>
          <Trackpoint>
            <Time>2019-10-10T10:49:27.000Z</Time>
            <Position>
              <LatitudeDegrees>37.84449993632733821868896484375</LatitudeDegrees>
              <LongitudeDegrees>-6.21876907534897327423095703125</LongitudeDegrees>
            </Position>
            <AltitudeMeters>379</AltitudeMeters>
            <DistanceMeters>NAN</DistanceMeters>
          </Trackpoint>
          <Trackpoint>
            <Time>2019-10-10T10:49:30.000Z</Time>
            <Position>
              <LatitudeDegrees>37.8443409316241741180419921875</LatitudeDegrees>
              <LongitudeDegrees>-6.2187322787940502166748046875</LongitudeDegrees>
            </Position>
            <AltitudeMeters>378</AltitudeMeters>
            <DistanceMeters>NAN</DistanceMeters>
          </Trackpoint>
          <Trackpoint>
            <Time>2019-10-10T10:49:34.000Z</Time>
            <Position>
              <LatitudeDegrees>37.8441278636455535888671875</LatitudeDegrees>
              <LongitudeDegrees>-6.21865474618971347808837890625</LongitudeDegrees>
            </Position>
            <AltitudeMeters>378.399993896484375</AltitudeMeters>
            <DistanceMeters>NAN</DistanceMeters>
          </Trackpoint>
          <Trackpoint>
            <Time>2019-10-10T10:49:39.000Z</Time>
            <Position>
              <LatitudeDegrees>37.84384044818580150604248046875</LatitudeDegrees>
              <LongitudeDegrees>-6.2185331247746944427490234375</LongitudeDegrees>
            </Position>
            <AltitudeMeters>377</AltitudeMeters>
            <DistanceMeters>NAN</DistanceMeters>
          </Trackpoint>
          <Trackpoint>
            <Time>2019-10-10T10:49:41.000Z</Time>
            <Position>
              <LatitudeDegrees>37.84372025169432163238525390625</LatitudeDegrees>
              <LongitudeDegrees>-6.21847788803279399871826171875</LongitudeDegrees>
            </Position>
            <AltitudeMeters>377</AltitudeMeters>
            <DistanceMeters>NAN</DistanceMeters>
          </Trackpoint>
          <Trackpoint>
            <Time>2019-10-10T10:49:45.000Z</Time>
            <Position>
              <LatitudeDegrees>37.84347466193139553070068359375</LatitudeDegrees>
              <LongitudeDegrees>-6.21835500933229923248291015625</LongitudeDegrees>
            </Position>
            <AltitudeMeters>376.600006103515625</AltitudeMeters>
            <DistanceMeters>NAN</DistanceMeters>
          </Trackpoint>
          <Trackpoint>
            <Time>2019-10-10T10:49:48.000Z</Time>
            <Position>
              <LatitudeDegrees>37.84328305162489414215087890625</LatitudeDegrees>
              <LongitudeDegrees>-6.2182630598545074462890625</LongitudeDegrees>
            </Position>
            <AltitudeMeters>376</AltitudeMeters>
            <DistanceMeters>NAN</DistanceMeters>
          </Trackpoint>
          <Trackpoint>
            <Time>2019-10-10T10:49:51.000Z</Time>
            <Position>
              <LatitudeDegrees>37.84309194423258304595947265625</LatitudeDegrees>
              <LongitudeDegrees>-6.2181743793189525604248046875</LongitudeDegrees>
            </Position>
            <AltitudeMeters>375.20001220703125</AltitudeMeters>
            <DistanceMeters>NAN</DistanceMeters>
          </Trackpoint>
          <Trackpoint>
            <Time>2019-10-10T10:49:52.000Z</Time>
            <Position>
              <LatitudeDegrees>37.843027822673320770263671875</LatitudeDegrees>
              <LongitudeDegrees>-6.21814462356269359588623046875</LongitudeDegrees>
            </Position>
            <AltitudeMeters>375</AltitudeMeters>
            <DistanceMeters>NAN</DistanceMeters>
          </Trackpoint>
          <Trackpoint>
            <Time>2019-10-10T10:50:01.000Z</Time>
            <Position>
              <LatitudeDegrees>37.84247889183461666107177734375</LatitudeDegrees>
              <LongitudeDegrees>-6.217887215316295623779296875</LongitudeDegrees>
            </Position>
            <AltitudeMeters>374.600006103515625</AltitudeMeters>
            <DistanceMeters>NAN</DistanceMeters>
          </Trackpoint>
          <Trackpoint>
            <Time>2019-10-10T10:50:02.000Z</Time>
            <Position>
              <LatitudeDegrees>37.84242223016917705535888671875</LatitudeDegrees>
              <LongitudeDegrees>-6.21786014176905155181884765625</LongitudeDegrees>
            </Position>
            <AltitudeMeters>374.600006103515625</AltitudeMeters>
            <DistanceMeters>NAN</DistanceMeters>
          </Trackpoint>
          <Trackpoint>
            <Time>2019-10-10T10:50:10.000Z</Time>
            <Position>
              <LatitudeDegrees>37.8419981896877288818359375</LatitudeDegrees>
              <LongitudeDegrees>-6.21767221949994564056396484375</LongitudeDegrees>
            </Position>
            <AltitudeMeters>375.79998779296875</AltitudeMeters>
            <DistanceMeters>NAN</DistanceMeters>
          </Trackpoint>
          <Trackpoint>
            <Time>2019-10-10T10:50:11.000Z</Time>
            <Position>
              <LatitudeDegrees>37.84194932319223880767822265625</LatitudeDegrees>
              <LongitudeDegrees>-6.21765042655169963836669921875</LongitudeDegrees>
            </Position>
            <AltitudeMeters>376</AltitudeMeters>
            <DistanceMeters>NAN</DistanceMeters>
          </Trackpoint>
          <Trackpoint>
            <Time>2019-10-10T10:50:18.000Z</Time>
            <Position>
              <LatitudeDegrees>37.84163617528975009918212890625</LatitudeDegrees>
              <LongitudeDegrees>-6.21749519370496273040771484375</LongitudeDegrees>
            </Position>
            <AltitudeMeters>375.79998779296875</AltitudeMeters>
            <DistanceMeters>NAN</DistanceMeters>
          </Trackpoint>
          <Trackpoint>
            <Time>2019-10-10T10:50:23.000Z</Time>
            <Position>
              <LatitudeDegrees>37.841422855854034423828125</LatitudeDegrees>
              <LongitudeDegrees>-6.21739109046757221221923828125</LongitudeDegrees>
            </Position>
            <AltitudeMeters>377</AltitudeMeters>
            <DistanceMeters>NAN</DistanceMeters>
          </Trackpoint>
          <Trackpoint>
            <Time>2019-10-10T10:50:30.000Z</Time>
            <Position>
              <LatitudeDegrees>37.84112873487174510955810546875</LatitudeDegrees>
              <LongitudeDegrees>-6.21725865639746189117431640625</LongitudeDegrees>
            </Position>
            <AltitudeMeters>377</AltitudeMeters>
            <DistanceMeters>NAN</DistanceMeters>
          </Trackpoint>
          <Trackpoint>
            <Time>2019-10-10T10:50:40.000Z</Time>
            <Position>
              <LatitudeDegrees>37.8406961448490619659423828125</LatitudeDegrees>
              <LongitudeDegrees>-6.2170854024589061737060546875</LongitudeDegrees>
            </Position>
            <AltitudeMeters>378</AltitudeMeters>
            <DistanceMeters>NAN</DistanceMeters>
          </Trackpoint>
          <Trackpoint>
            <Time>2019-10-10T10:50:48.000Z</Time>
            <Position>
              <LatitudeDegrees>37.84031300805509090423583984375</LatitudeDegrees>
              <LongitudeDegrees>-6.217022873461246490478515625</LongitudeDegrees>
            </Position>
            <AltitudeMeters>377.79998779296875</AltitudeMeters>
            <DistanceMeters>NAN</DistanceMeters>
          </Trackpoint>
          <Trackpoint>
            <Time>2019-10-10T10:50:58.000Z</Time>
            <Position>
              <LatitudeDegrees>37.83980925567448139190673828125</LatitudeDegrees>
              <LongitudeDegrees>-6.21707542799413204193115234375</LongitudeDegrees>
            </Position>
            <AltitudeMeters>377.600006103515625</AltitudeMeters>
            <DistanceMeters>NAN</DistanceMeters>
          </Trackpoint>
          <Trackpoint>
            <Time>2019-10-10T10:51:05.000Z</Time>
            <Position>
              <LatitudeDegrees>37.8394742310047149658203125</LatitudeDegrees>
              <LongitudeDegrees>-6.2171923555433750152587890625</LongitudeDegrees>
            </Position>
            <AltitudeMeters>377.20001220703125</AltitudeMeters>
            <DistanceMeters>NAN</DistanceMeters>
          </Trackpoint>
          <Trackpoint>
            <Time>2019-10-10T10:51:08.000Z</Time>
            <Position>
              <LatitudeDegrees>37.83938563428819179534912109375</LatitudeDegrees>
              <LongitudeDegrees>-6.2172352708876132965087890625</LongitudeDegrees>
            </Position>
            <AltitudeMeters>377.79998779296875</AltitudeMeters>
            <DistanceMeters>NAN</DistanceMeters>
          </Trackpoint>
          <Trackpoint>
            <Time>2019-10-10T10:51:15.000Z</Time>
            <Position>
              <LatitudeDegrees>37.83909092657268047332763671875</LatitudeDegrees>
              <LongitudeDegrees>-6.2174384482204914093017578125</LongitudeDegrees>
            </Position>
            <AltitudeMeters>378.20001220703125</AltitudeMeters>
            <DistanceMeters>NAN</DistanceMeters>
          </Trackpoint>
          <Trackpoint>
            <Time>2019-10-10T10:51:16.000Z</Time>
            <Position>
              <LatitudeDegrees>37.839049436151981353759765625</LatitudeDegrees>
              <LongitudeDegrees>-6.21747113764286041259765625</LongitudeDegrees>
            </Position>
            <AltitudeMeters>378.399993896484375</AltitudeMeters>
            <DistanceMeters>NAN</DistanceMeters>
          </Trackpoint>
          <Trackpoint>
            <Time>2019-10-10T10:51:25.000Z</Time>
            <Position>
              <LatitudeDegrees>37.838685996830463409423828125</LatitudeDegrees>
              <LongitudeDegrees>-6.21773726306855678558349609375</LongitudeDegrees>
            </Position>
            <AltitudeMeters>379.399993896484375</AltitudeMeters>
            <DistanceMeters>NAN</DistanceMeters>
          </Trackpoint>
          <Trackpoint>
            <Time>2019-10-10T10:51:30.000Z</Time>
            <Position>
              <LatitudeDegrees>37.838483154773712158203125</LatitudeDegrees>
              <LongitudeDegrees>-6.2178769893944263458251953125</LongitudeDegrees>
            </Position>
            <AltitudeMeters>379.399993896484375</AltitudeMeters>
            <DistanceMeters>NAN</DistanceMeters>
          </Trackpoint>
          <Trackpoint>
            <Time>2019-10-10T10:51:33.000Z</Time>
            <Position>
              <LatitudeDegrees>37.83835700713098049163818359375</LatitudeDegrees>
              <LongitudeDegrees>-6.2179658375680446624755859375</LongitudeDegrees>
            </Position>
            <AltitudeMeters>380</AltitudeMeters>
            <DistanceMeters>NAN</DistanceMeters>
          </Trackpoint>
          <Trackpoint>
            <Time>2019-10-10T10:51:39.000Z</Time>
            <Position>
              <LatitudeDegrees>37.838101275265216827392578125</LatitudeDegrees>
              <LongitudeDegrees>-6.21815484948456287384033203125</LongitudeDegrees>
            </Position>
            <AltitudeMeters>380.20001220703125</AltitudeMeters>
            <DistanceMeters>NAN</DistanceMeters>
          </Trackpoint>
          <Trackpoint>
            <Time>2019-10-10T10:51:40.000Z</Time>
            <Position>
              <LatitudeDegrees>37.8380571864545345306396484375</LatitudeDegrees>
              <LongitudeDegrees>-6.218183934688568115234375</LongitudeDegrees>
            </Position>
            <AltitudeMeters>380.399993896484375</AltitudeMeters>
            <DistanceMeters>NAN</DistanceMeters>
          </Trackpoint>
          <Trackpoint>
            <Time>2019-10-10T10:51:41.000Z</Time>
            <Position>
              <LatitudeDegrees>37.83801385201513767242431640625</LatitudeDegrees>
              <LongitudeDegrees>-6.21821369044482707977294921875</LongitudeDegrees>
            </Position>
            <AltitudeMeters>380.399993896484375</AltitudeMeters>
            <DistanceMeters>NAN</DistanceMeters>
          </Trackpoint>
          <Trackpoint>
            <Time>2019-10-10T10:51:44.000Z</Time>
            <Position>
              <LatitudeDegrees>37.83787555061280727386474609375</LatitudeDegrees>
              <LongitudeDegrees>-6.21831293217837810516357421875</LongitudeDegrees>
            </Position>
            <AltitudeMeters>380.399993896484375</AltitudeMeters>
            <DistanceMeters>NAN</DistanceMeters>
          </Trackpoint>
          <Trackpoint>
            <Time>2019-10-10T10:51:47.000Z</Time>
            <Position>
              <LatitudeDegrees>37.83773859031498432159423828125</LatitudeDegrees>
              <LongitudeDegrees>-6.21841167099773883819580078125</LongitudeDegrees>
            </Position>
            <AltitudeMeters>380.79998779296875</AltitudeMeters>
            <DistanceMeters>NAN</DistanceMeters>
          </Trackpoint>
          <Trackpoint>
            <Time>2019-10-10T10:51:50.000Z</Time>
            <Position>
              <LatitudeDegrees>37.83760137856006622314453125</LatitudeDegrees>
              <LongitudeDegrees>-6.21850856579840183258056640625</LongitudeDegrees>
            </Position>
            <AltitudeMeters>381.600006103515625</AltitudeMeters>
            <DistanceMeters>NAN</DistanceMeters>
          </Trackpoint>
          <Trackpoint>
            <Time>2019-10-10T10:51:58.000Z</Time>
            <Position>
              <LatitudeDegrees>37.8372454829514026641845703125</LatitudeDegrees>
              <LongitudeDegrees>-6.21876555494964122772216796875</LongitudeDegrees>
            </Position>
            <AltitudeMeters>381.79998779296875</AltitudeMeters>
            <DistanceMeters>NAN</DistanceMeters>
          </Trackpoint>
          <Trackpoint>
            <Time>2019-10-10T10:52:00.000Z</Time>
            <Position>
              <LatitudeDegrees>37.8371573053300380706787109375</LatitudeDegrees>
              <LongitudeDegrees>-6.21882590465247631072998046875</LongitudeDegrees>
            </Position>
            <AltitudeMeters>381.79998779296875</AltitudeMeters>
            <DistanceMeters>NAN</DistanceMeters>
          </Trackpoint>
          <Trackpoint>
            <Time>2019-10-10T10:52:09.000Z</Time>
            <Position>
              <LatitudeDegrees>37.83678154461085796356201171875</LatitudeDegrees>
              <LongitudeDegrees>-6.2190819717943668365478515625</LongitudeDegrees>
            </Position>
            <AltitudeMeters>382.600006103515625</AltitudeMeters>
            <DistanceMeters>NAN</DistanceMeters>
          </Trackpoint>
          <Trackpoint>
            <Time>2019-10-10T10:52:16.000Z</Time>
            <Position>
              <LatitudeDegrees>37.8364647924900054931640625</LatitudeDegrees>
              <LongitudeDegrees>-6.21927970089018344879150390625</LongitudeDegrees>
            </Position>
            <AltitudeMeters>382.399993896484375</AltitudeMeters>
            <DistanceMeters>NAN</DistanceMeters>
          </Trackpoint>
          <Trackpoint>
            <Time>2019-10-10T10:52:22.000Z</Time>
            <Position>
              <LatitudeDegrees>37.83617176115512847900390625</LatitudeDegrees>
              <LongitudeDegrees>-6.21940274722874164581298828125</LongitudeDegrees>
            </Position>
            <AltitudeMeters>382.600006103515625</AltitudeMeters>
            <DistanceMeters>NAN</DistanceMeters>
          </Trackpoint>
          <Trackpoint>
            <Time>2019-10-10T10:52:24.000Z</Time>
            <Position>
              <LatitudeDegrees>37.83607377670705318450927734375</LatitudeDegrees>
              <LongitudeDegrees>-6.2194269709289073944091796875</LongitudeDegrees>
            </Position>
            <AltitudeMeters>383</AltitudeMeters>
            <DistanceMeters>NAN</DistanceMeters>
          </Trackpoint>
          <Trackpoint>
            <Time>2019-10-10T10:52:30.000Z</Time>
            <Position>
              <LatitudeDegrees>37.8357816673815250396728515625</LatitudeDegrees>
              <LongitudeDegrees>-6.2194581516087055206298828125</LongitudeDegrees>
            </Position>
            <AltitudeMeters>383.399993896484375</AltitudeMeters>
            <DistanceMeters>NAN</DistanceMeters>
          </Trackpoint>
          <Trackpoint>
            <Time>2019-10-10T10:52:32.000Z</Time>
            <Position>
              <LatitudeDegrees>37.8356887958943843841552734375</LatitudeDegrees>
              <LongitudeDegrees>-6.21944717131555080413818359375</LongitudeDegrees>
            </Position>
            <AltitudeMeters>383.399993896484375</AltitudeMeters>
            <DistanceMeters>NAN</DistanceMeters>
          </Trackpoint>
          <Trackpoint>
            <Time>2019-10-10T10:52:34.000Z</Time>
            <Position>
              <LatitudeDegrees>37.8355944156646728515625</LatitudeDegrees>
              <LongitudeDegrees>-6.219436861574649810791015625</LongitudeDegrees>
            </Position>
            <AltitudeMeters>383.600006103515625</AltitudeMeters>
            <DistanceMeters>NAN</DistanceMeters>
          </Trackpoint>
          <Trackpoint>
            <Time>2019-10-10T10:52:38.000Z</Time>
            <Position>
              <LatitudeDegrees>37.835416384041309356689453125</LatitudeDegrees>
              <LongitudeDegrees>-6.2193957902491092681884765625</LongitudeDegrees>
            </Position>
            <AltitudeMeters>384.79998779296875</AltitudeMeters>
            <DistanceMeters>NAN</DistanceMeters>
          </Trackpoint>
          <Trackpoint>
            <Time>2019-10-10T10:52:41.000Z</Time>
            <Position>
              <LatitudeDegrees>37.8352827765047550201416015625</LatitudeDegrees>
              <LongitudeDegrees>-6.21935647912323474884033203125</LongitudeDegrees>
            </Position>
            <AltitudeMeters>385.20001220703125</AltitudeMeters>
            <DistanceMeters>NAN</DistanceMeters>
          </Trackpoint>
          <Trackpoint>
            <Time>2019-10-10T10:52:43.000Z</Time>
            <Position>
              <LatitudeDegrees>37.83519635908305644989013671875</LatitudeDegrees>
              <LongitudeDegrees>-6.2193159945309162139892578125</LongitudeDegrees>
            </Position>
            <AltitudeMeters>384.79998779296875</AltitudeMeters>
            <DistanceMeters>NAN</DistanceMeters>
          </Trackpoint>
          <Trackpoint>
            <Time>2019-10-10T10:52:48.000Z</Time>
            <Position>
              <LatitudeDegrees>37.83498127944767475128173828125</LatitudeDegrees>
              <LongitudeDegrees>-6.21920359320938587188720703125</LongitudeDegrees>
            </Position>
            <AltitudeMeters>385</AltitudeMeters>
            <DistanceMeters>NAN</DistanceMeters>
          </Trackpoint>
          <Trackpoint>
            <Time>2019-10-10T10:52:55.000Z</Time>
            <Position>
              <LatitudeDegrees>37.8346826322376728057861328125</LatitudeDegrees>
              <LongitudeDegrees>-6.2190310098230838775634765625</LongitudeDegrees>
            </Position>
            <AltitudeMeters>385.79998779296875</AltitudeMeters>
            <DistanceMeters>NAN</DistanceMeters>
          </Trackpoint>
          <Trackpoint>
            <Time>2019-10-10T10:52:57.000Z</Time>
            <Position>
              <LatitudeDegrees>37.83459864556789398193359375</LatitudeDegrees>
              <LongitudeDegrees>-6.2189793772995471954345703125</LongitudeDegrees>
            </Position>
            <AltitudeMeters>386</AltitudeMeters>
            <DistanceMeters>NAN</DistanceMeters>
          </Trackpoint>
          <Trackpoint>
            <Time>2019-10-10T10:53:09.000Z</Time>
            <Position>
              <LatitudeDegrees>37.83410855568945407867431640625</LatitudeDegrees>
              <LongitudeDegrees>-6.2186913751065731048583984375</LongitudeDegrees>
            </Position>
            <AltitudeMeters>386.20001220703125</AltitudeMeters>
            <DistanceMeters>NAN</DistanceMeters>
          </Trackpoint>
          <Trackpoint>
            <Time>2019-10-10T10:53:14.000Z</Time>
            <Position>
              <LatitudeDegrees>37.83391593955457210540771484375</LatitudeDegrees>
              <LongitudeDegrees>-6.2185777164995670318603515625</LongitudeDegrees>
            </Position>
            <AltitudeMeters>386.79998779296875</AltitudeMeters>
            <DistanceMeters>NAN</DistanceMeters>
          </Trackpoint>
          <Trackpoint>
            <Time>2019-10-10T10:53:15.000Z</Time>
            <Position>
              <LatitudeDegrees>37.83387520350515842437744140625</LatitudeDegrees>
              <LongitudeDegrees>-6.2185579352080821990966796875</LongitudeDegrees>
            </Position>
            <AltitudeMeters>387.20001220703125</AltitudeMeters>
            <DistanceMeters>NAN</DistanceMeters>
          </Trackpoint>
          <Trackpoint>
            <Time>2019-10-10T10:53:16.000Z</Time>
            <Position>
              <LatitudeDegrees>37.833837904036045074462890625</LatitudeDegrees>
              <LongitudeDegrees>-6.21853337623178958892822265625</LongitudeDegrees>
            </Position>
            <AltitudeMeters>387.399993896484375</AltitudeMeters>
            <DistanceMeters>NAN</DistanceMeters>
          </Trackpoint>
          <Trackpoint>
            <Time>2019-10-10T10:53:20.000Z</Time>
            <Position>
              <LatitudeDegrees>37.833678312599658966064453125</LatitudeDegrees>
              <LongitudeDegrees>-6.21844251640141010284423828125</LongitudeDegrees>
            </Position>
            <AltitudeMeters>388.20001220703125</AltitudeMeters>
            <DistanceMeters>NAN</DistanceMeters>
          </Trackpoint>
          <Trackpoint>
            <Time>2019-10-10T10:53:24.000Z</Time>
            <Position>
              <LatitudeDegrees>37.83351209945976734161376953125</LatitudeDegrees>
              <LongitudeDegrees>-6.21834285557270050048828125</LongitudeDegrees>
            </Position>
            <AltitudeMeters>388.399993896484375</AltitudeMeters>
            <DistanceMeters>NAN</DistanceMeters>
          </Trackpoint>
          <Trackpoint>
            <Time>2019-10-10T10:53:30.000Z</Time>
            <Position>
              <LatitudeDegrees>37.83325142227113246917724609375</LatitudeDegrees>
              <LongitudeDegrees>-6.21819441206753253936767578125</LongitudeDegrees>
            </Position>
            <AltitudeMeters>388.399993896484375</AltitudeMeters>
            <DistanceMeters>NAN</DistanceMeters>
          </Trackpoint>
          <Trackpoint>
            <Time>2019-10-10T10:53:35.000Z</Time>
            <Position>
              <LatitudeDegrees>37.83302913419902324676513671875</LatitudeDegrees>
              <LongitudeDegrees>-6.21807823888957500457763671875</LongitudeDegrees>
            </Position>
            <AltitudeMeters>388.399993896484375</AltitudeMeters>
            <DistanceMeters>NAN</DistanceMeters>
          </Trackpoint>
          <Trackpoint>
            <Time>2019-10-10T10:53:45.000Z</Time>
            <Position>
              <LatitudeDegrees>37.8325474262237548828125</LatitudeDegrees>
              <LongitudeDegrees>-6.21785544790327548980712890625</LongitudeDegrees>
            </Position>
            <AltitudeMeters>387.79998779296875</AltitudeMeters>
            <DistanceMeters>NAN</DistanceMeters>
          </Trackpoint>
          <Trackpoint>
            <Time>2019-10-10T10:53:51.000Z</Time>
            <Position>
              <LatitudeDegrees>37.83226034604012966156005859375</LatitudeDegrees>
              <LongitudeDegrees>-6.21771530248224735260009765625</LongitudeDegrees>
            </Position>
            <AltitudeMeters>387.600006103515625</AltitudeMeters>
            <DistanceMeters>NAN</DistanceMeters>
          </Trackpoint>
          <Trackpoint>
            <Time>2019-10-10T10:53:53.000Z</Time>
            <Position>
              <LatitudeDegrees>37.8321640379726886749267578125</LatitudeDegrees>
              <LongitudeDegrees>-6.21766484342515468597412109375</LongitudeDegrees>
            </Position>
            <AltitudeMeters>387.600006103515625</AltitudeMeters>
            <DistanceMeters>NAN</DistanceMeters>
          </Trackpoint>
          <Trackpoint>
            <Time>2019-10-10T10:54:01.000Z</Time>
            <Position>
              <LatitudeDegrees>37.831770591437816619873046875</LatitudeDegrees>
              <LongitudeDegrees>-6.2174676172435283660888671875</LongitudeDegrees>
            </Position>
            <AltitudeMeters>387.600006103515625</AltitudeMeters>
            <DistanceMeters>NAN</DistanceMeters>
          </Trackpoint>
          <Trackpoint>
            <Time>2019-10-10T10:54:07.000Z</Time>
            <Position>
              <LatitudeDegrees>37.8314599581062793731689453125</LatitudeDegrees>
              <LongitudeDegrees>-6.2173140607774257659912109375</LongitudeDegrees>
            </Position>
            <AltitudeMeters>387.20001220703125</AltitudeMeters>
            <DistanceMeters>NAN</DistanceMeters>
          </Trackpoint>
          <Trackpoint>
            <Time>2019-10-10T10:54:09.000Z</Time>
            <Position>
              <LatitudeDegrees>37.83135677687823772430419921875</LatitudeDegrees>
              <LongitudeDegrees>-6.2172577343881130218505859375</LongitudeDegrees>
            </Position>
            <AltitudeMeters>385.600006103515625</AltitudeMeters>
            <DistanceMeters>NAN</DistanceMeters>
          </Trackpoint>
          <Trackpoint>
            <Time>2019-10-10T10:54:10.000Z</Time>
            <Position>
              <LatitudeDegrees>37.8313028812408447265625</LatitudeDegrees>
              <LongitudeDegrees>-6.21723267249763011932373046875</LongitudeDegrees>
            </Position>
            <AltitudeMeters>387</AltitudeMeters>
            <DistanceMeters>NAN</DistanceMeters>
          </Trackpoint>
          <Trackpoint>
            <Time>2019-10-10T10:54:18.000Z</Time>
            <Position>
              <LatitudeDegrees>37.8308697044849395751953125</LatitudeDegrees>
              <LongitudeDegrees>-6.2170253880321979522705078125</LongitudeDegrees>
            </Position>
            <AltitudeMeters>387</AltitudeMeters>
            <DistanceMeters>NAN</DistanceMeters>
          </Trackpoint>
          <Trackpoint>
            <Time>2019-10-10T10:54:19.000Z</Time>
            <Position>
              <LatitudeDegrees>37.83081446774303913116455078125</LatitudeDegrees>
              <LongitudeDegrees>-6.21700284071266651153564453125</LongitudeDegrees>
            </Position>
            <AltitudeMeters>386.600006103515625</AltitudeMeters>
            <DistanceMeters>NAN</DistanceMeters>
          </Trackpoint>
          <Trackpoint>
            <Time>2019-10-10T10:54:24.000Z</Time>
            <Position>
              <LatitudeDegrees>37.8305423073470592498779296875</LatitudeDegrees>
              <LongitudeDegrees>-6.21687208302319049835205078125</LongitudeDegrees>
            </Position>
            <AltitudeMeters>386.399993896484375</AltitudeMeters>
            <DistanceMeters>NAN</DistanceMeters>
          </Trackpoint>
          <Trackpoint>
            <Time>2019-10-10T10:54:25.000Z</Time>
            <Position>
              <LatitudeDegrees>37.83048413693904876708984375</LatitudeDegrees>
              <LongitudeDegrees>-6.2168453447520732879638671875</LongitudeDegrees>
            </Position>
            <AltitudeMeters>386</AltitudeMeters>
            <DistanceMeters>NAN</DistanceMeters>
          </Trackpoint>
          <Trackpoint>
            <Time>2019-10-10T10:54:30.000Z</Time>
            <Position>
              <LatitudeDegrees>37.83019236288964748382568359375</LatitudeDegrees>
              <LongitudeDegrees>-6.21670310385525226593017578125</LongitudeDegrees>
            </Position>
            <AltitudeMeters>384.600006103515625</AltitudeMeters>
            <DistanceMeters>NAN</DistanceMeters>
          </Trackpoint>
          <Trackpoint>
            <Time>2019-10-10T10:54:34.000Z</Time>
            <Position>
              <LatitudeDegrees>37.8299481980502605438232421875</LatitudeDegrees>
              <LongitudeDegrees>-6.2165848352015018463134765625</LongitudeDegrees>
            </Position>
            <AltitudeMeters>383.600006103515625</AltitudeMeters>
            <DistanceMeters>NAN</DistanceMeters>
          </Trackpoint>
          <Trackpoint>
            <Time>2019-10-10T10:54:38.000Z</Time>
            <Position>
              <LatitudeDegrees>37.8296967409551143646240234375</LatitudeDegrees>
              <LongitudeDegrees>-6.2164661474525928497314453125</LongitudeDegrees>
            </Position>
            <AltitudeMeters>383</AltitudeMeters>
            <DistanceMeters>NAN</DistanceMeters>
          </Trackpoint>
          <Trackpoint>
            <Time>2019-10-10T10:54:40.000Z</Time>
            <Position>
              <LatitudeDegrees>37.82957294024527072906494140625</LatitudeDegrees>
              <LongitudeDegrees>-6.2164017744362354278564453125</LongitudeDegrees>
            </Position>
            <AltitudeMeters>383</AltitudeMeters>
            <DistanceMeters>NAN</DistanceMeters>
          </Trackpoint>
          <Trackpoint>
            <Time>2019-10-10T10:54:44.000Z</Time>
            <Position>
              <LatitudeDegrees>37.829319722950458526611328125</LatitudeDegrees>
              <LongitudeDegrees>-6.21627847664058208465576171875</LongitudeDegrees>
            </Position>
            <AltitudeMeters>383.399993896484375</AltitudeMeters>
            <DistanceMeters>NAN</DistanceMeters>
          </Trackpoint>
          <Trackpoint>
            <Time>2019-10-10T10:54:52.000Z</Time>
            <Position>
              <LatitudeDegrees>37.82887087203562259674072265625</LatitudeDegrees>
              <LongitudeDegrees>-6.21606121771037578582763671875</LongitudeDegrees>
            </Position>
            <AltitudeMeters>384.600006103515625</AltitudeMeters>
            <DistanceMeters>NAN</DistanceMeters>
          </Trackpoint>
          <Trackpoint>
            <Time>2019-10-10T10:54:57.000Z</Time>
            <Position>
              <LatitudeDegrees>37.82864749431610107421875</LatitudeDegrees>
              <LongitudeDegrees>-6.2159561924636363983154296875</LongitudeDegrees>
            </Position>
            <AltitudeMeters>385.79998779296875</AltitudeMeters>
            <DistanceMeters>NAN</DistanceMeters>
          </Trackpoint>
          <Trackpoint>
            <Time>2019-10-10T10:54:59.000Z</Time>
            <Position>
              <LatitudeDegrees>37.828566022217273712158203125</LatitudeDegrees>
              <LongitudeDegrees>-6.215915791690349578857421875</LongitudeDegrees>
            </Position>
            <AltitudeMeters>386</AltitudeMeters>
            <DistanceMeters>NAN</DistanceMeters>
          </Trackpoint>
          <Trackpoint>
            <Time>2019-10-10T10:55:05.000Z</Time>
            <Position>
              <LatitudeDegrees>37.828348092734813690185546875</LatitudeDegrees>
              <LongitudeDegrees>-6.2158066593110561370849609375</LongitudeDegrees>
            </Position>
            <AltitudeMeters>386.79998779296875</AltitudeMeters>
            <DistanceMeters>NAN</DistanceMeters>
          </Trackpoint>
          <Trackpoint>
            <Time>2019-10-10T10:55:07.000Z</Time>
            <Position>
              <LatitudeDegrees>37.8282773494720458984375</LatitudeDegrees>
              <LongitudeDegrees>-6.2157784961163997650146484375</LongitudeDegrees>
            </Position>
            <AltitudeMeters>386.79998779296875</AltitudeMeters>
            <DistanceMeters>NAN</DistanceMeters>
          </Trackpoint>
          <Trackpoint>
            <Time>2019-10-10T10:55:10.000Z</Time>
            <Position>
              <LatitudeDegrees>37.82817877829074859619140625</LatitudeDegrees>
              <LongitudeDegrees>-6.21572828851640224456787109375</LongitudeDegrees>
            </Position>
            <AltitudeMeters>387.79998779296875</AltitudeMeters>
            <DistanceMeters>NAN</DistanceMeters>
          </Trackpoint>
          <Trackpoint>
            <Time>2019-10-10T10:55:13.000Z</Time>
            <Position>
              <LatitudeDegrees>37.8280817158520221710205078125</LatitudeDegrees>
              <LongitudeDegrees>-6.21568906120955944061279296875</LongitudeDegrees>
            </Position>
            <AltitudeMeters>388.20001220703125</AltitudeMeters>
            <DistanceMeters>NAN</DistanceMeters>
          </Trackpoint>
          <Trackpoint>
            <Time>2019-10-10T10:55:15.000Z</Time>
            <Position>
              <LatitudeDegrees>37.828018851578235626220703125</LatitudeDegrees>
              <LongitudeDegrees>-6.21565603651106357574462890625</LongitudeDegrees>
            </Position>
            <AltitudeMeters>388.600006103515625</AltitudeMeters>
            <DistanceMeters>NAN</DistanceMeters>
          </Trackpoint>
          <Trackpoint>
            <Time>2019-10-10T10:55:16.000Z</Time>
            <Position>
              <LatitudeDegrees>37.82798725180327892303466796875</LatitudeDegrees>
              <LongitudeDegrees>-6.21564245782792568206787109375</LongitudeDegrees>
            </Position>
            <AltitudeMeters>389.20001220703125</AltitudeMeters>
            <DistanceMeters>NAN</DistanceMeters>
          </Trackpoint>
          <Trackpoint>
            <Time>2019-10-10T10:55:20.000Z</Time>
            <Position>
              <LatitudeDegrees>37.82786370255053043365478515625</LatitudeDegrees>
              <LongitudeDegrees>-6.21558110229671001434326171875</LongitudeDegrees>
            </Position>
            <AltitudeMeters>390</AltitudeMeters>
            <DistanceMeters>NAN</DistanceMeters>
          </Trackpoint>
          <Trackpoint>
            <Time>2019-10-10T10:55:22.000Z</Time>
            <Position>
              <LatitudeDegrees>37.8278052806854248046875</LatitudeDegrees>
              <LongitudeDegrees>-6.2155461497604846954345703125</LongitudeDegrees>
            </Position>
            <AltitudeMeters>390.20001220703125</AltitudeMeters>
            <DistanceMeters>NAN</DistanceMeters>
          </Trackpoint>
          <Trackpoint>
            <Time>2019-10-10T10:55:25.000Z</Time>
            <Position>
              <LatitudeDegrees>37.82771215774118900299072265625</LatitudeDegrees>
              <LongitudeDegrees>-6.215498037636280059814453125</LongitudeDegrees>
            </Position>
            <AltitudeMeters>390.600006103515625</AltitudeMeters>
            <DistanceMeters>NAN</DistanceMeters>
          </Trackpoint>
          <Trackpoint>
            <Time>2019-10-10T10:55:26.000Z</Time>
            <Position>
              <LatitudeDegrees>37.82768013887107372283935546875</LatitudeDegrees>
              <LongitudeDegrees>-6.21548655442893505096435546875</LongitudeDegrees>
            </Position>
            <AltitudeMeters>391.20001220703125</AltitudeMeters>
            <DistanceMeters>NAN</DistanceMeters>
          </Trackpoint>
          <Trackpoint>
            <Time>2019-10-10T10:55:30.000Z</Time>
            <Position>
              <LatitudeDegrees>37.827562205493450164794921875</LatitudeDegrees>
              <LongitudeDegrees>-6.21542654000222682952880859375</LongitudeDegrees>
            </Position>
            <AltitudeMeters>391.600006103515625</AltitudeMeters>
            <DistanceMeters>NAN</DistanceMeters>
          </Trackpoint>
          <Trackpoint>
            <Time>2019-10-10T10:55:33.000Z</Time>
            <Position>
              <LatitudeDegrees>37.827472351491451263427734375</LatitudeDegrees>
              <LongitudeDegrees>-6.21538161300122737884521484375</LongitudeDegrees>
            </Position>
            <AltitudeMeters>392.399993896484375</AltitudeMeters>
            <DistanceMeters>NAN</DistanceMeters>
          </Trackpoint>
          <Trackpoint>
            <Time>2019-10-10T10:55:39.000Z</Time>
            <Position>
              <LatitudeDegrees>37.827281914651393890380859375</LatitudeDegrees>
              <LongitudeDegrees>-6.21530265547335147857666015625</LongitudeDegrees>
            </Position>
            <AltitudeMeters>393.20001220703125</AltitudeMeters>
            <DistanceMeters>NAN</DistanceMeters>
          </Trackpoint>
          <Trackpoint>
            <Time>2019-10-10T10:55:41.000Z</Time>
            <Position>
              <LatitudeDegrees>37.82721444033086299896240234375</LatitudeDegrees>
              <LongitudeDegrees>-6.21526728384196758270263671875</LongitudeDegrees>
            </Position>
            <AltitudeMeters>392.79998779296875</AltitudeMeters>
            <DistanceMeters>NAN</DistanceMeters>
          </Trackpoint>
          <Trackpoint>
            <Time>2019-10-10T10:55:47.000Z</Time>
            <Position>
              <LatitudeDegrees>37.82701562158763408660888671875</LatitudeDegrees>
              <LongitudeDegrees>-6.21516804210841655731201171875</LongitudeDegrees>
            </Position>
            <AltitudeMeters>393.600006103515625</AltitudeMeters>
            <DistanceMeters>NAN</DistanceMeters>
          </Trackpoint>
          <Trackpoint>
            <Time>2019-10-10T10:55:51.000Z</Time>
            <Position>
              <LatitudeDegrees>37.826878242194652557373046875</LatitudeDegrees>
              <LongitudeDegrees>-6.2151002325117588043212890625</LongitudeDegrees>
            </Position>
            <AltitudeMeters>393.79998779296875</AltitudeMeters>
            <DistanceMeters>NAN</DistanceMeters>
          </Trackpoint>
          <Trackpoint>
            <Time>2019-10-10T10:56:01.000Z</Time>
            <Position>
              <LatitudeDegrees>37.82651807181537151336669921875</LatitudeDegrees>
              <LongitudeDegrees>-6.21493066661059856414794921875</LongitudeDegrees>
            </Position>
            <AltitudeMeters>393.600006103515625</AltitudeMeters>
            <DistanceMeters>NAN</DistanceMeters>
          </Trackpoint>
          <Trackpoint>
            <Time>2019-10-10T10:56:11.000Z</Time>
            <Position>
              <LatitudeDegrees>37.82614809460937976837158203125</LatitudeDegrees>
              <LongitudeDegrees>-6.21473788283765316009521484375</LongitudeDegrees>
            </Position>
            <AltitudeMeters>394.20001220703125</AltitudeMeters>
            <DistanceMeters>NAN</DistanceMeters>
          </Trackpoint>
          <Trackpoint>
            <Time>2019-10-10T10:56:16.000Z</Time>
            <Position>
              <LatitudeDegrees>37.82595866359770298004150390625</LatitudeDegrees>
              <LongitudeDegrees>-6.21464735828340053558349609375</LongitudeDegrees>
            </Position>
            <AltitudeMeters>394.20001220703125</AltitudeMeters>
            <DistanceMeters>NAN</DistanceMeters>
          </Trackpoint>
          <Trackpoint>
            <Time>2019-10-10T10:56:20.000Z</Time>
            <Position>
              <LatitudeDegrees>37.825801670551300048828125</LatitudeDegrees>
              <LongitudeDegrees>-6.21457393281161785125732421875</LongitudeDegrees>
            </Position>
            <AltitudeMeters>394.600006103515625</AltitudeMeters>
            <DistanceMeters>NAN</DistanceMeters>
          </Trackpoint>
          <Trackpoint>
            <Time>2019-10-10T10:56:22.000Z</Time>
            <Position>
              <LatitudeDegrees>37.82572363503277301788330078125</LatitudeDegrees>
              <LongitudeDegrees>-6.21453101746737957000732421875</LongitudeDegrees>
            </Position>
            <AltitudeMeters>394.20001220703125</AltitudeMeters>
            <DistanceMeters>NAN</DistanceMeters>
          </Trackpoint>
          <Trackpoint>
            <Time>2019-10-10T10:56:26.000Z</Time>
            <Position>
              <LatitudeDegrees>37.82556940801441669464111328125</LatitudeDegrees>
              <LongitudeDegrees>-6.21444870717823505401611328125</LongitudeDegrees>
            </Position>
            <AltitudeMeters>394.600006103515625</AltitudeMeters>
            <DistanceMeters>NAN</DistanceMeters>
          </Trackpoint>
          <Trackpoint>
            <Time>2019-10-10T10:56:27.000Z</Time>
            <Position>
              <LatitudeDegrees>37.825529091060161590576171875</LatitudeDegrees>
              <LongitudeDegrees>-6.21443328447639942169189453125</LongitudeDegrees>
            </Position>
            <AltitudeMeters>394.600006103515625</AltitudeMeters>
            <DistanceMeters>NAN</DistanceMeters>
          </Trackpoint>
          <Trackpoint>
            <Time>2019-10-10T10:56:30.000Z</Time>
            <Position>
              <LatitudeDegrees>37.82541467808187007904052734375</LatitudeDegrees>
              <LongitudeDegrees>-6.21435566805303096771240234375</LongitudeDegrees>
            </Position>
            <AltitudeMeters>394.79998779296875</AltitudeMeters>
            <DistanceMeters>NAN</DistanceMeters>
          </Trackpoint>
          <Trackpoint>
            <Time>2019-10-10T10:56:31.000Z</Time>
            <Position>
              <LatitudeDegrees>37.82537729479372501373291015625</LatitudeDegrees>
              <LongitudeDegrees>-6.21432716958224773406982421875</LongitudeDegrees>
            </Position>
            <AltitudeMeters>395.20001220703125</AltitudeMeters>
            <DistanceMeters>NAN</DistanceMeters>
          </Trackpoint>
          <Trackpoint>
            <Time>2019-10-10T10:56:41.000Z</Time>
            <Position>
              <LatitudeDegrees>37.82502726651728153228759765625</LatitudeDegrees>
              <LongitudeDegrees>-6.21401636861264705657958984375</LongitudeDegrees>
            </Position>
            <AltitudeMeters>395.20001220703125</AltitudeMeters>
            <DistanceMeters>NAN</DistanceMeters>
          </Trackpoint>
          <Trackpoint>
            <Time>2019-10-10T10:56:48.000Z</Time>
            <Position>
              <LatitudeDegrees>37.82482601702213287353515625</LatitudeDegrees>
              <LongitudeDegrees>-6.213728450238704681396484375</LongitudeDegrees>
            </Position>
            <AltitudeMeters>394.79998779296875</AltitudeMeters>
            <DistanceMeters>NAN</DistanceMeters>
          </Trackpoint>
          <Trackpoint>
            <Time>2019-10-10T10:56:49.000Z</Time>
            <Position>
              <LatitudeDegrees>37.82480095513164997100830078125</LatitudeDegrees>
              <LongitudeDegrees>-6.21368260122835636138916015625</LongitudeDegrees>
            </Position>
            <AltitudeMeters>395</AltitudeMeters>
            <DistanceMeters>NAN</DistanceMeters>
          </Trackpoint>
          <Trackpoint>
            <Time>2019-10-10T10:56:54.000Z</Time>
            <Position>
              <LatitudeDegrees>37.82468360848724842071533203125</LatitudeDegrees>
              <LongitudeDegrees>-6.21343064121901988983154296875</LongitudeDegrees>
            </Position>
            <AltitudeMeters>394.600006103515625</AltitudeMeters>
            <DistanceMeters>NAN</DistanceMeters>
          </Trackpoint>
          <Trackpoint>
            <Time>2019-10-10T10:56:57.000Z</Time>
            <Position>
              <LatitudeDegrees>37.8246253542602062225341796875</LatitudeDegrees>
              <LongitudeDegrees>-6.21326945722103118896484375</LongitudeDegrees>
            </Position>
            <AltitudeMeters>395.20001220703125</AltitudeMeters>
            <DistanceMeters>NAN</DistanceMeters>
          </Trackpoint>
          <Trackpoint>
            <Time>2019-10-10T10:57:03.000Z</Time>
            <Position>
              <LatitudeDegrees>37.82454212196171283721923828125</LatitudeDegrees>
              <LongitudeDegrees>-6.21293560601770877838134765625</LongitudeDegrees>
            </Position>
            <AltitudeMeters>394.600006103515625</AltitudeMeters>
            <DistanceMeters>NAN</DistanceMeters>
          </Trackpoint>
          <Trackpoint>
            <Time>2019-10-10T10:57:06.000Z</Time>
            <Position>
              <LatitudeDegrees>37.82451814971864223480224609375</LatitudeDegrees>
              <LongitudeDegrees>-6.21275505982339382171630859375</LongitudeDegrees>
            </Position>
            <AltitudeMeters>394.20001220703125</AltitudeMeters>
            <DistanceMeters>NAN</DistanceMeters>
          </Trackpoint>
          <Trackpoint>
            <Time>2019-10-10T10:57:11.000Z</Time>
            <Position>
              <LatitudeDegrees>37.82449115999042987823486328125</LatitudeDegrees>
              <LongitudeDegrees>-6.21243126690387725830078125</LongitudeDegrees>
            </Position>
            <AltitudeMeters>393.600006103515625</AltitudeMeters>
            <DistanceMeters>NAN</DistanceMeters>
          </Trackpoint>
          <Trackpoint>
            <Time>2019-10-10T10:57:15.000Z</Time>
            <Position>
              <LatitudeDegrees>37.82446391880512237548828125</LatitudeDegrees>
              <LongitudeDegrees>-6.21213756501674652099609375</LongitudeDegrees>
            </Position>
            <AltitudeMeters>392.79998779296875</AltitudeMeters>
            <DistanceMeters>NAN</DistanceMeters>
          </Trackpoint>
          <Trackpoint>
            <Time>2019-10-10T10:57:17.000Z</Time>
            <Position>
              <LatitudeDegrees>37.82443768344819545745849609375</LatitudeDegrees>
              <LongitudeDegrees>-6.21197788976132869720458984375</LongitudeDegrees>
            </Position>
            <AltitudeMeters>391.79998779296875</AltitudeMeters>
            <DistanceMeters>NAN</DistanceMeters>
          </Trackpoint>
          <Trackpoint>
            <Time>2019-10-10T10:57:20.000Z</Time>
            <Position>
              <LatitudeDegrees>37.8243785910308361053466796875</LatitudeDegrees>
              <LongitudeDegrees>-6.21172718703746795654296875</LongitudeDegrees>
            </Position>
            <AltitudeMeters>390.79998779296875</AltitudeMeters>
            <DistanceMeters>NAN</DistanceMeters>
          </Trackpoint>
          <Trackpoint>
            <Time>2019-10-10T10:57:21.000Z</Time>
            <Position>
              <LatitudeDegrees>37.82434950582683086395263671875</LatitudeDegrees>
              <LongitudeDegrees>-6.2116401828825473785400390625</LongitudeDegrees>
            </Position>
            <AltitudeMeters>390.20001220703125</AltitudeMeters>
            <DistanceMeters>NAN</DistanceMeters>
          </Trackpoint>
          <Trackpoint>
            <Time>2019-10-10T10:57:22.000Z</Time>
            <Position>
              <LatitudeDegrees>37.824314720928668975830078125</LatitudeDegrees>
              <LongitudeDegrees>-6.21155141852796077728271484375</LongitudeDegrees>
            </Position>
            <AltitudeMeters>389.600006103515625</AltitudeMeters>
            <DistanceMeters>NAN</DistanceMeters>
          </Trackpoint>
          <Trackpoint>
            <Time>2019-10-10T10:57:25.000Z</Time>
            <Position>
              <LatitudeDegrees>37.8241858072578907012939453125</LatitudeDegrees>
              <LongitudeDegrees>-6.211278252303600311279296875</LongitudeDegrees>
            </Position>
            <AltitudeMeters>388.20001220703125</AltitudeMeters>
            <DistanceMeters>NAN</DistanceMeters>
          </Trackpoint>
          <Trackpoint>
            <Time>2019-10-10T10:57:26.000Z</Time>
            <Position>
              <LatitudeDegrees>37.824132330715656280517578125</LatitudeDegrees>
              <LongitudeDegrees>-6.211188733577728271484375</LongitudeDegrees>
            </Position>
            <AltitudeMeters>387.600006103515625</AltitudeMeters>
            <DistanceMeters>NAN</DistanceMeters>
          </Trackpoint>
          <Trackpoint>
            <Time>2019-10-10T10:57:27.000Z</Time>
            <Position>
              <LatitudeDegrees>37.8240756690502166748046875</LatitudeDegrees>
              <LongitudeDegrees>-6.21109996922314167022705078125</LongitudeDegrees>
            </Position>
            <AltitudeMeters>386.600006103515625</AltitudeMeters>
            <DistanceMeters>NAN</DistanceMeters>
          </Trackpoint>
          <Trackpoint>
            <Time>2019-10-10T10:57:29.000Z</Time>
            <Position>
              <LatitudeDegrees>37.82394826412200927734375</LatitudeDegrees>
              <LongitudeDegrees>-6.21093668974936008453369140625</LongitudeDegrees>
            </Position>
            <AltitudeMeters>385.20001220703125</AltitudeMeters>
            <DistanceMeters>NAN</DistanceMeters>
          </Trackpoint>
          <Trackpoint>
            <Time>2019-10-10T10:57:31.000Z</Time>
            <Position>
              <LatitudeDegrees>37.8238076157867908477783203125</LatitudeDegrees>
              <LongitudeDegrees>-6.210788749158382415771484375</LongitudeDegrees>
            </Position>
            <AltitudeMeters>384.20001220703125</AltitudeMeters>
            <DistanceMeters>NAN</DistanceMeters>
          </Trackpoint>
          <Trackpoint>
            <Time>2019-10-10T10:57:36.000Z</Time>
            <Position>
              <LatitudeDegrees>37.82348650507628917694091796875</LatitudeDegrees>
              <LongitudeDegrees>-6.2104653753340244293212890625</LongitudeDegrees>
            </Position>
            <AltitudeMeters>384.79998779296875</AltitudeMeters>
            <DistanceMeters>NAN</DistanceMeters>
          </Trackpoint>
          <Trackpoint>
            <Time>2019-10-10T10:57:38.000Z</Time>
            <Position>
              <LatitudeDegrees>37.82337754033505916595458984375</LatitudeDegrees>
              <LongitudeDegrees>-6.2103520520031452178955078125</LongitudeDegrees>
            </Position>
            <AltitudeMeters>385.20001220703125</AltitudeMeters>
            <DistanceMeters>NAN</DistanceMeters>
          </Trackpoint>
          <Trackpoint>
            <Time>2019-10-10T10:57:39.000Z</Time>
            <Position>
              <LatitudeDegrees>37.8233246505260467529296875</LatitudeDegrees>
              <LongitudeDegrees>-6.2102995812892913818359375</LongitudeDegrees>
            </Position>
            <AltitudeMeters>385.600006103515625</AltitudeMeters>
            <DistanceMeters>NAN</DistanceMeters>
          </Trackpoint>
          <Trackpoint>
            <Time>2019-10-10T10:57:42.000Z</Time>
            <Position>
              <LatitudeDegrees>37.823173440992832183837890625</LatitudeDegrees>
              <LongitudeDegrees>-6.21015281416475772857666015625</LongitudeDegrees>
            </Position>
            <AltitudeMeters>386.20001220703125</AltitudeMeters>
            <DistanceMeters>NAN</DistanceMeters>
          </Trackpoint>
          <Trackpoint>
            <Time>2019-10-10T10:57:44.000Z</Time>
            <Position>
              <LatitudeDegrees>37.823081575334072113037109375</LatitudeDegrees>
              <LongitudeDegrees>-6.2100549973547458648681640625</LongitudeDegrees>
            </Position>
            <AltitudeMeters>387</AltitudeMeters>
            <DistanceMeters>NAN</DistanceMeters>
          </Trackpoint>
          <Trackpoint>
            <Time>2019-10-10T10:57:46.000Z</Time>
            <Position>
              <LatitudeDegrees>37.822990715503692626953125</LatitudeDegrees>
              <LongitudeDegrees>-6.20996807701885700225830078125</LongitudeDegrees>
            </Position>
            <AltitudeMeters>387.20001220703125</AltitudeMeters>
            <DistanceMeters>NAN</DistanceMeters>
          </Trackpoint>
          <Trackpoint>
            <Time>2019-10-10T10:57:47.000Z</Time>
            <Position>
              <LatitudeDegrees>37.82294503413140773773193359375</LatitudeDegrees>
              <LongitudeDegrees>-6.2099262513220310211181640625</LongitudeDegrees>
            </Position>
            <AltitudeMeters>387.600006103515625</AltitudeMeters>
            <DistanceMeters>NAN</DistanceMeters>
          </Trackpoint>
          <Trackpoint>
            <Time>2019-10-10T10:57:49.000Z</Time>
            <Position>
              <LatitudeDegrees>37.8228550963103771209716796875</LatitudeDegrees>
              <LongitudeDegrees>-6.20984888635575771331787109375</LongitudeDegrees>
            </Position>
            <AltitudeMeters>387.600006103515625</AltitudeMeters>
            <DistanceMeters>NAN</DistanceMeters>
          </Trackpoint>
          <Trackpoint>
            <Time>2019-10-10T10:57:55.000Z</Time>
            <Position>
              <LatitudeDegrees>37.822565920650959014892578125</LatitudeDegrees>
              <LongitudeDegrees>-6.209666915237903594970703125</LongitudeDegrees>
            </Position>
            <AltitudeMeters>388.20001220703125</AltitudeMeters>
            <DistanceMeters>NAN</DistanceMeters>
          </Trackpoint>
          <Trackpoint>
            <Time>2019-10-10T10:57:56.000Z</Time>
            <Position>
              <LatitudeDegrees>37.822514958679676055908203125</LatitudeDegrees>
              <LongitudeDegrees>-6.2096452899277210235595703125</LongitudeDegrees>
            </Position>
            <AltitudeMeters>388</AltitudeMeters>
            <DistanceMeters>NAN</DistanceMeters>
          </Trackpoint>
          <Trackpoint>
            <Time>2019-10-10T10:57:59.000Z</Time>
            <Position>
              <LatitudeDegrees>37.8223746456205844879150390625</LatitudeDegrees>
              <LongitudeDegrees>-6.20959491468966007232666015625</LongitudeDegrees>
            </Position>
            <AltitudeMeters>388.20001220703125</AltitudeMeters>
            <DistanceMeters>NAN</DistanceMeters>
          </Trackpoint>
          <Trackpoint>
            <Time>2019-10-10T10:58:01.000Z</Time>
            <Position>
              <LatitudeDegrees>37.82228437252342700958251953125</LatitudeDegrees>
              <LongitudeDegrees>-6.20957203209400177001953125</LongitudeDegrees>
            </Position>
            <AltitudeMeters>389</AltitudeMeters>
            <DistanceMeters>NAN</DistanceMeters>
          </Trackpoint>
          <Trackpoint>
            <Time>2019-10-10T10:58:03.000Z</Time>
            <Position>
              <LatitudeDegrees>37.822195105254650115966796875</LatitudeDegrees>
              <LongitudeDegrees>-6.20955283753573894500732421875</LongitudeDegrees>
            </Position>
            <AltitudeMeters>389</AltitudeMeters>
            <DistanceMeters>NAN</DistanceMeters>
          </Trackpoint>
          <Trackpoint>
            <Time>2019-10-10T10:58:09.000Z</Time>
            <Position>
              <LatitudeDegrees>37.8219153173267841339111328125</LatitudeDegrees>
              <LongitudeDegrees>-6.209540180861949920654296875</LongitudeDegrees>
            </Position>
            <AltitudeMeters>390</AltitudeMeters>
            <DistanceMeters>NAN</DistanceMeters>
          </Trackpoint>
          <Trackpoint>
            <Time>2019-10-10T10:58:10.000Z</Time>
            <Position>
              <LatitudeDegrees>37.8218851424753665924072265625</LatitudeDegrees>
              <LongitudeDegrees>-6.2095433659851551055908203125</LongitudeDegrees>
            </Position>
            <AltitudeMeters>390</AltitudeMeters>
            <DistanceMeters>NAN</DistanceMeters>
          </Trackpoint>
          <Trackpoint>
            <Time>2019-10-10T10:58:16.000Z</Time>
            <Position>
              <LatitudeDegrees>37.821621783077716827392578125</LatitudeDegrees>
              <LongitudeDegrees>-6.20958519168198108673095703125</LongitudeDegrees>
            </Position>
            <AltitudeMeters>390</AltitudeMeters>
            <DistanceMeters>NAN</DistanceMeters>
          </Trackpoint>
          <Trackpoint>
            <Time>2019-10-10T10:58:20.000Z</Time>
            <Position>
              <LatitudeDegrees>37.821442075073719024658203125</LatitudeDegrees>
              <LongitudeDegrees>-6.20962559245526790618896484375</LongitudeDegrees>
            </Position>
            <AltitudeMeters>390.20001220703125</AltitudeMeters>
            <DistanceMeters>NAN</DistanceMeters>
          </Trackpoint>
          <Trackpoint>
            <Time>2019-10-10T10:58:21.000Z</Time>
            <Position>
              <LatitudeDegrees>37.82139639370143413543701171875</LatitudeDegrees>
              <LongitudeDegrees>-6.20963581837713718414306640625</LongitudeDegrees>
            </Position>
            <AltitudeMeters>390.20001220703125</AltitudeMeters>
            <DistanceMeters>NAN</DistanceMeters>
          </Trackpoint>
          <Trackpoint>
            <Time>2019-10-10T10:58:29.000Z</Time>
            <Position>
              <LatitudeDegrees>37.8210415877401828765869140625</LatitudeDegrees>
              <LongitudeDegrees>-6.20971687138080596923828125</LongitudeDegrees>
            </Position>
            <AltitudeMeters>390.399993896484375</AltitudeMeters>
            <DistanceMeters>NAN</DistanceMeters>
          </Trackpoint>
          <Trackpoint>
            <Time>2019-10-10T10:58:31.000Z</Time>
            <Position>
              <LatitudeDegrees>37.8209513984620571136474609375</LatitudeDegrees>
              <LongitudeDegrees>-6.20973522774875164031982421875</LongitudeDegrees>
            </Position>
            <AltitudeMeters>390.600006103515625</AltitudeMeters>
            <DistanceMeters>NAN</DistanceMeters>
          </Trackpoint>
          <Trackpoint>
            <Time>2019-10-10T10:58:40.000Z</Time>
            <Position>
              <LatitudeDegrees>37.82053674571216106414794921875</LatitudeDegrees>
              <LongitudeDegrees>-6.209828518331050872802734375</LongitudeDegrees>
            </Position>
            <AltitudeMeters>390.600006103515625</AltitudeMeters>
            <DistanceMeters>NAN</DistanceMeters>
          </Trackpoint>
          <Trackpoint>
            <Time>2019-10-10T10:58:48.000Z</Time>
            <Position>
              <LatitudeDegrees>37.820162661373615264892578125</LatitudeDegrees>
              <LongitudeDegrees>-6.20991443283855915069580078125</LongitudeDegrees>
            </Position>
            <AltitudeMeters>391</AltitudeMeters>
            <DistanceMeters>NAN</DistanceMeters>
          </Trackpoint>
          <Trackpoint>
            <Time>2019-10-10T10:58:49.000Z</Time>
            <Position>
              <LatitudeDegrees>37.8201168961822986602783203125</LatitudeDegrees>
              <LongitudeDegrees>-6.20992532931268215179443359375</LongitudeDegrees>
            </Position>
            <AltitudeMeters>391.399993896484375</AltitudeMeters>
            <DistanceMeters>NAN</DistanceMeters>
          </Trackpoint>
          <Trackpoint>
            <Time>2019-10-10T10:58:57.000Z</Time>
            <Position>
              <LatitudeDegrees>37.81975538469851016998291015625</LatitudeDegrees>
              <LongitudeDegrees>-6.209997832775115966796875</LongitudeDegrees>
            </Position>
            <AltitudeMeters>391.79998779296875</AltitudeMeters>
            <DistanceMeters>NAN</DistanceMeters>
          </Trackpoint>
          <Trackpoint>
            <Time>2019-10-10T10:59:00.000Z</Time>
            <Position>
              <LatitudeDegrees>37.81962445937097072601318359375</LatitudeDegrees>
              <LongitudeDegrees>-6.21002825908362865447998046875</LongitudeDegrees>
            </Position>
            <AltitudeMeters>392.600006103515625</AltitudeMeters>
            <DistanceMeters>NAN</DistanceMeters>
          </Trackpoint>
          <Trackpoint>
            <Time>2019-10-10T10:59:03.000Z</Time>
            <Position>
              <LatitudeDegrees>37.81949772499501705169677734375</LatitudeDegrees>
              <LongitudeDegrees>-6.210047118365764617919921875</LongitudeDegrees>
            </Position>
            <AltitudeMeters>392.79998779296875</AltitudeMeters>
            <DistanceMeters>NAN</DistanceMeters>
          </Trackpoint>
          <Trackpoint>
            <Time>2019-10-10T10:59:06.000Z</Time>
            <Position>
              <LatitudeDegrees>37.81937417574226856231689453125</LatitudeDegrees>
              <LongitudeDegrees>-6.21006865985691547393798828125</LongitudeDegrees>
            </Position>
            <AltitudeMeters>393.79998779296875</AltitudeMeters>
            <DistanceMeters>NAN</DistanceMeters>
          </Trackpoint>
          <Trackpoint>
            <Time>2019-10-10T10:59:08.000Z</Time>
            <Position>
              <LatitudeDegrees>37.81929320655763149261474609375</LatitudeDegrees>
              <LongitudeDegrees>-6.2100788019597530364990234375</LongitudeDegrees>
            </Position>
            <AltitudeMeters>394.399993896484375</AltitudeMeters>
            <DistanceMeters>NAN</DistanceMeters>
          </Trackpoint>
          <Trackpoint>
            <Time>2019-10-10T10:59:10.000Z</Time>
            <Position>
              <LatitudeDegrees>37.81921240501105785369873046875</LatitudeDegrees>
              <LongitudeDegrees>-6.2100734375417232513427734375</LongitudeDegrees>
            </Position>
            <AltitudeMeters>394.79998779296875</AltitudeMeters>
            <DistanceMeters>NAN</DistanceMeters>
          </Trackpoint>
          <Trackpoint>
            <Time>2019-10-10T10:59:11.000Z</Time>
            <Position>
              <LatitudeDegrees>37.819173596799373626708984375</LatitudeDegrees>
              <LongitudeDegrees>-6.21007150970399379730224609375</LongitudeDegrees>
            </Position>
            <AltitudeMeters>394.79998779296875</AltitudeMeters>
            <DistanceMeters>NAN</DistanceMeters>
          </Trackpoint>
          <Trackpoint>
            <Time>2019-10-10T10:59:13.000Z</Time>
            <Position>
              <LatitudeDegrees>37.81909572891891002655029296875</LatitudeDegrees>
              <LongitudeDegrees>-6.21006547473371028900146484375</LongitudeDegrees>
            </Position>
            <AltitudeMeters>395</AltitudeMeters>
            <DistanceMeters>NAN</DistanceMeters>
          </Trackpoint>
          <Trackpoint>
            <Time>2019-10-10T10:59:17.000Z</Time>
            <Position>
              <LatitudeDegrees>37.818938903510570526123046875</LatitudeDegrees>
              <LongitudeDegrees>-6.2100506387650966644287109375</LongitudeDegrees>
            </Position>
            <AltitudeMeters>396</AltitudeMeters>
            <DistanceMeters>NAN</DistanceMeters>
          </Trackpoint>
          <Trackpoint>
            <Time>2019-10-10T10:59:19.000Z</Time>
            <Position>
              <LatitudeDegrees>37.81886455602943897247314453125</LatitudeDegrees>
              <LongitudeDegrees>-6.2100342102348804473876953125</LongitudeDegrees>
            </Position>
            <AltitudeMeters>396.399993896484375</AltitudeMeters>
            <DistanceMeters>NAN</DistanceMeters>
          </Trackpoint>
          <Trackpoint>
            <Time>2019-10-10T10:59:24.000Z</Time>
            <Position>
              <LatitudeDegrees>37.81866976059973239898681640625</LatitudeDegrees>
              <LongitudeDegrees>-6.209982745349407196044921875</LongitudeDegrees>
            </Position>
            <AltitudeMeters>397.20001220703125</AltitudeMeters>
            <DistanceMeters>NAN</DistanceMeters>
          </Trackpoint>
          <Trackpoint>
            <Time>2019-10-10T10:59:25.000Z</Time>
            <Position>
              <LatitudeDegrees>37.818633802235126495361328125</LatitudeDegrees>
              <LongitudeDegrees>-6.20996388606727123260498046875</LongitudeDegrees>
            </Position>
            <AltitudeMeters>397.20001220703125</AltitudeMeters>
            <DistanceMeters>NAN</DistanceMeters>
          </Trackpoint>
          <Trackpoint>
            <Time>2019-10-10T10:59:27.000Z</Time>
            <Position>
              <LatitudeDegrees>37.8185535036027431488037109375</LatitudeDegrees>
              <LongitudeDegrees>-6.2099228985607624053955078125</LongitudeDegrees>
            </Position>
            <AltitudeMeters>397.20001220703125</AltitudeMeters>
            <DistanceMeters>NAN</DistanceMeters>
          </Trackpoint>
          <Trackpoint>
            <Time>2019-10-10T10:59:36.000Z</Time>
            <Position>
              <LatitudeDegrees>37.8182021342217922210693359375</LatitudeDegrees>
              <LongitudeDegrees>-6.2096871994435787200927734375</LongitudeDegrees>
            </Position>
            <AltitudeMeters>396.79998779296875</AltitudeMeters>
            <DistanceMeters>NAN</DistanceMeters>
          </Trackpoint>
          <Trackpoint>
            <Time>2019-10-10T10:59:41.000Z</Time>
            <Position>
              <LatitudeDegrees>37.817991413176059722900390625</LatitudeDegrees>
              <LongitudeDegrees>-6.209493912756443023681640625</LongitudeDegrees>
            </Position>
            <AltitudeMeters>396</AltitudeMeters>
            <DistanceMeters>NAN</DistanceMeters>
          </Trackpoint>
          <Trackpoint>
            <Time>2019-10-10T10:59:43.000Z</Time>
            <Position>
              <LatitudeDegrees>37.81789443455636501312255859375</LatitudeDegrees>
              <LongitudeDegrees>-6.20940363965928554534912109375</LongitudeDegrees>
            </Position>
            <AltitudeMeters>395.20001220703125</AltitudeMeters>
            <DistanceMeters>NAN</DistanceMeters>
          </Trackpoint>
          <Trackpoint>
            <Time>2019-10-10T10:59:45.000Z</Time>
            <Position>
              <LatitudeDegrees>37.8177920915186405181884765625</LatitudeDegrees>
              <LongitudeDegrees>-6.20931009761989116668701171875</LongitudeDegrees>
            </Position>
            <AltitudeMeters>394.79998779296875</AltitudeMeters>
            <DistanceMeters>NAN</DistanceMeters>
          </Trackpoint>
          <Trackpoint>
            <Time>2019-10-10T10:59:48.000Z</Time>
            <Position>
              <LatitudeDegrees>37.8176378645002841949462890625</LatitudeDegrees>
              <LongitudeDegrees>-6.20916190557181835174560546875</LongitudeDegrees>
            </Position>
            <AltitudeMeters>393.79998779296875</AltitudeMeters>
            <DistanceMeters>NAN</DistanceMeters>
          </Trackpoint>
          <Trackpoint>
            <Time>2019-10-10T10:59:51.000Z</Time>
            <Position>
              <LatitudeDegrees>37.817487157881259918212890625</LatitudeDegrees>
              <LongitudeDegrees>-6.2090186588466167449951171875</LongitudeDegrees>
            </Position>
            <AltitudeMeters>392.79998779296875</AltitudeMeters>
            <DistanceMeters>NAN</DistanceMeters>
          </Trackpoint>
          <Trackpoint>
            <Time>2019-10-10T10:59:52.000Z</Time>
            <Position>
              <LatitudeDegrees>37.81743795610964298248291015625</LatitudeDegrees>
              <LongitudeDegrees>-6.20897096581757068634033203125</LongitudeDegrees>
            </Position>
            <AltitudeMeters>392.399993896484375</AltitudeMeters>
            <DistanceMeters>NAN</DistanceMeters>
          </Trackpoint>
          <Trackpoint>
            <Time>2019-10-10T10:59:55.000Z</Time>
            <Position>
              <LatitudeDegrees>37.8172935359179973602294921875</LatitudeDegrees>
              <LongitudeDegrees>-6.20883400551974773406982421875</LongitudeDegrees>
            </Position>
            <AltitudeMeters>393.600006103515625</AltitudeMeters>
            <DistanceMeters>NAN</DistanceMeters>
          </Trackpoint>
          <Trackpoint>
            <Time>2019-10-10T10:59:58.000Z</Time>
            <Position>
              <LatitudeDegrees>37.81715364195406436920166015625</LatitudeDegrees>
              <LongitudeDegrees>-6.2086971290409564971923828125</LongitudeDegrees>
            </Position>
            <AltitudeMeters>393.399993896484375</AltitudeMeters>
            <DistanceMeters>NAN</DistanceMeters>
          </Trackpoint>
          <Trackpoint>
            <Time>2019-10-10T11:00:01.000Z</Time>
            <Position>
              <LatitudeDegrees>37.8170199505984783172607421875</LatitudeDegrees>
              <LongitudeDegrees>-6.2085667066276073455810546875</LongitudeDegrees>
            </Position>
            <AltitudeMeters>393.399993896484375</AltitudeMeters>
            <DistanceMeters>NAN</DistanceMeters>
          </Trackpoint>
          <Trackpoint>
            <Time>2019-10-10T11:00:03.000Z</Time>
            <Position>
              <LatitudeDegrees>37.81693219207227230072021484375</LatitudeDegrees>
              <LongitudeDegrees>-6.20848448015749454498291015625</LongitudeDegrees>
            </Position>
            <AltitudeMeters>394.20001220703125</AltitudeMeters>
            <DistanceMeters>NAN</DistanceMeters>
          </Trackpoint>
          <Trackpoint>
            <Time>2019-10-10T11:00:08.000Z</Time>
            <Position>
              <LatitudeDegrees>37.8167225606739521026611328125</LatitudeDegrees>
              <LongitudeDegrees>-6.2082867510616779327392578125</LongitudeDegrees>
            </Position>
            <AltitudeMeters>394.79998779296875</AltitudeMeters>
            <DistanceMeters>NAN</DistanceMeters>
          </Trackpoint>
          <Trackpoint>
            <Time>2019-10-10T11:00:11.000Z</Time>
            <Position>
              <LatitudeDegrees>37.81660580076277256011962890625</LatitudeDegrees>
              <LongitudeDegrees>-6.20818222872912883758544921875</LongitudeDegrees>
            </Position>
            <AltitudeMeters>395.79998779296875</AltitudeMeters>
            <DistanceMeters>NAN</DistanceMeters>
          </Trackpoint>
          <Trackpoint>
            <Time>2019-10-10T11:00:14.000Z</Time>
            <Position>
              <LatitudeDegrees>37.81649800948798656463623046875</LatitudeDegrees>
              <LongitudeDegrees>-6.20807879604399204254150390625</LongitudeDegrees>
            </Position>
            <AltitudeMeters>395.600006103515625</AltitudeMeters>
            <DistanceMeters>NAN</DistanceMeters>
          </Trackpoint>
          <Trackpoint>
            <Time>2019-10-10T11:00:18.000Z</Time>
            <Position>
              <LatitudeDegrees>37.816364653408527374267578125</LatitudeDegrees>
              <LongitudeDegrees>-6.2079541571438312530517578125</LongitudeDegrees>
            </Position>
            <AltitudeMeters>396.600006103515625</AltitudeMeters>
            <DistanceMeters>NAN</DistanceMeters>
          </Trackpoint>
          <Trackpoint>
            <Time>2019-10-10T11:00:24.000Z</Time>
            <Position>
              <LatitudeDegrees>37.81616893596947193145751953125</LatitudeDegrees>
              <LongitudeDegrees>-6.20778576470911502838134765625</LongitudeDegrees>
            </Position>
            <AltitudeMeters>397.600006103515625</AltitudeMeters>
            <DistanceMeters>NAN</DistanceMeters>
          </Trackpoint>
          <Trackpoint>
            <Time>2019-10-10T11:00:25.000Z</Time>
            <Position>
              <LatitudeDegrees>37.81613658182322978973388671875</LatitudeDegrees>
              <LongitudeDegrees>-6.207758523523807525634765625</LongitudeDegrees>
            </Position>
            <AltitudeMeters>397.79998779296875</AltitudeMeters>
            <DistanceMeters>NAN</DistanceMeters>
          </Trackpoint>
          <Trackpoint>
            <Time>2019-10-10T11:00:26.000Z</Time>
            <Position>
              <LatitudeDegrees>37.81610640697181224822998046875</LatitudeDegrees>
              <LongitudeDegrees>-6.2077254988253116607666015625</LongitudeDegrees>
            </Position>
            <AltitudeMeters>398</AltitudeMeters>
            <DistanceMeters>NAN</DistanceMeters>
          </Trackpoint>
          <Trackpoint>
            <Time>2019-10-10T11:00:31.000Z</Time>
            <Position>
              <LatitudeDegrees>37.81595821492373943328857421875</LatitudeDegrees>
              <LongitudeDegrees>-6.207568086683750152587890625</LongitudeDegrees>
            </Position>
            <AltitudeMeters>399</AltitudeMeters>
            <DistanceMeters>NAN</DistanceMeters>
          </Trackpoint>
          <Trackpoint>
            <Time>2019-10-10T11:00:39.000Z</Time>
            <Position>
              <LatitudeDegrees>37.81572016887366771697998046875</LatitudeDegrees>
              <LongitudeDegrees>-6.207329370081424713134765625</LongitudeDegrees>
            </Position>
            <AltitudeMeters>400</AltitudeMeters>
            <DistanceMeters>NAN</DistanceMeters>
          </Trackpoint>
          <Trackpoint>
            <Time>2019-10-10T11:00:42.000Z</Time>
            <Position>
              <LatitudeDegrees>37.81561673618853092193603515625</LatitudeDegrees>
              <LongitudeDegrees>-6.20723540894687175750732421875</LongitudeDegrees>
            </Position>
            <AltitudeMeters>400.20001220703125</AltitudeMeters>
            <DistanceMeters>NAN</DistanceMeters>
          </Trackpoint>
          <Trackpoint>
            <Time>2019-10-10T11:00:45.000Z</Time>
            <Position>
              <LatitudeDegrees>37.8155098669230937957763671875</LatitudeDegrees>
              <LongitudeDegrees>-6.2071399390697479248046875</LongitudeDegrees>
            </Position>
            <AltitudeMeters>399.600006103515625</AltitudeMeters>
            <DistanceMeters>NAN</DistanceMeters>
          </Trackpoint>
          <Trackpoint>
            <Time>2019-10-10T11:00:49.000Z</Time>
            <Position>
              <LatitudeDegrees>37.81534801237285137176513671875</LatitudeDegrees>
              <LongitudeDegrees>-6.206990070641040802001953125</LongitudeDegrees>
            </Position>
            <AltitudeMeters>399</AltitudeMeters>
            <DistanceMeters>NAN</DistanceMeters>
          </Trackpoint>
          <Trackpoint>
            <Time>2019-10-10T11:00:51.000Z</Time>
            <Position>
              <LatitudeDegrees>37.81525312922894954681396484375</LatitudeDegrees>
              <LongitudeDegrees>-6.2069003842771053314208984375</LongitudeDegrees>
            </Position>
            <AltitudeMeters>397.79998779296875</AltitudeMeters>
            <DistanceMeters>NAN</DistanceMeters>
          </Trackpoint>
          <Trackpoint>
            <Time>2019-10-10T11:00:52.000Z</Time>
            <Position>
              <LatitudeDegrees>37.81520065851509571075439453125</LatitudeDegrees>
              <LongitudeDegrees>-6.206850595772266387939453125</LongitudeDegrees>
            </Position>
            <AltitudeMeters>397.399993896484375</AltitudeMeters>
            <DistanceMeters>NAN</DistanceMeters>
          </Trackpoint>
          <Trackpoint>
            <Time>2019-10-10T11:00:54.000Z</Time>
            <Position>
              <LatitudeDegrees>37.815087251365184783935546875</LatitudeDegrees>
              <LongitudeDegrees>-6.206738948822021484375</LongitudeDegrees>
            </Position>
            <AltitudeMeters>396.79998779296875</AltitudeMeters>
            <DistanceMeters>NAN</DistanceMeters>
          </Trackpoint>
          <Trackpoint>
            <Time>2019-10-10T11:00:56.000Z</Time>
            <Position>
              <LatitudeDegrees>37.81496043317019939422607421875</LatitudeDegrees>
              <LongitudeDegrees>-6.2066207639873027801513671875</LongitudeDegrees>
            </Position>
            <AltitudeMeters>395.20001220703125</AltitudeMeters>
            <DistanceMeters>NAN</DistanceMeters>
          </Trackpoint>
          <Trackpoint>
            <Time>2019-10-10T11:00:57.000Z</Time>
            <Position>
              <LatitudeDegrees>37.81489404849708080291748046875</LatitudeDegrees>
              <LongitudeDegrees>-6.206557564437389373779296875</LongitudeDegrees>
            </Position>
            <AltitudeMeters>394.399993896484375</AltitudeMeters>
            <DistanceMeters>NAN</DistanceMeters>
          </Trackpoint>
          <Trackpoint>
            <Time>2019-10-10T11:00:58.000Z</Time>
            <Position>
              <LatitudeDegrees>37.814826406538486480712890625</LatitudeDegrees>
              <LongitudeDegrees>-6.2064900062978267669677734375</LongitudeDegrees>
            </Position>
            <AltitudeMeters>393.79998779296875</AltitudeMeters>
            <DistanceMeters>NAN</DistanceMeters>
          </Trackpoint>
          <Trackpoint>
            <Time>2019-10-10T11:00:59.000Z</Time>
            <Position>
              <LatitudeDegrees>37.81475440599024295806884765625</LatitudeDegrees>
              <LongitudeDegrees>-6.20642437599599361419677734375</LongitudeDegrees>
            </Position>
            <AltitudeMeters>392.399993896484375</AltitudeMeters>
            <DistanceMeters>NAN</DistanceMeters>
          </Trackpoint>
          <Trackpoint>
            <Time>2019-10-10T11:01:02.000Z</Time>
            <Position>
              <LatitudeDegrees>37.81452633440494537353515625</LatitudeDegrees>
              <LongitudeDegrees>-6.2062145769596099853515625</LongitudeDegrees>
            </Position>
            <AltitudeMeters>391.20001220703125</AltitudeMeters>
            <DistanceMeters>NAN</DistanceMeters>
          </Trackpoint>
          <Trackpoint>
            <Time>2019-10-10T11:01:03.000Z</Time>
            <Position>
              <LatitudeDegrees>37.8144500590860843658447265625</LatitudeDegrees>
              <LongitudeDegrees>-6.20614240877330303192138671875</LongitudeDegrees>
            </Position>
            <AltitudeMeters>390.20001220703125</AltitudeMeters>
            <DistanceMeters>NAN</DistanceMeters>
          </Trackpoint>
          <Trackpoint>
            <Time>2019-10-10T11:01:06.000Z</Time>
            <Position>
              <LatitudeDegrees>37.814236991107463836669921875</LatitudeDegrees>
              <LongitudeDegrees>-6.20589145459234714508056640625</LongitudeDegrees>
            </Position>
            <AltitudeMeters>389</AltitudeMeters>
            <DistanceMeters>NAN</DistanceMeters>
          </Trackpoint>
          <Trackpoint>
            <Time>2019-10-10T11:01:08.000Z</Time>
            <Position>
              <LatitudeDegrees>37.81410413794219493865966796875</LatitudeDegrees>
              <LongitudeDegrees>-6.20571040548384189605712890625</LongitudeDegrees>
            </Position>
            <AltitudeMeters>388.600006103515625</AltitudeMeters>
            <DistanceMeters>NAN</DistanceMeters>
          </Trackpoint>
          <Trackpoint>
            <Time>2019-10-10T11:01:09.000Z</Time>
            <Position>
              <LatitudeDegrees>37.81403590925037860870361328125</LatitudeDegrees>
              <LongitudeDegrees>-6.20562138967216014862060546875</LongitudeDegrees>
            </Position>
            <AltitudeMeters>387.79998779296875</AltitudeMeters>
            <DistanceMeters>NAN</DistanceMeters>
          </Trackpoint>
          <Trackpoint>
            <Time>2019-10-10T11:01:11.000Z</Time>
            <Position>
              <LatitudeDegrees>37.81390666030347347259521484375</LatitudeDegrees>
              <LongitudeDegrees>-6.20543346740305423736572265625</LongitudeDegrees>
            </Position>
            <AltitudeMeters>386.79998779296875</AltitudeMeters>
            <DistanceMeters>NAN</DistanceMeters>
          </Trackpoint>
          <Trackpoint>
            <Time>2019-10-10T11:01:13.000Z</Time>
            <Position>
              <LatitudeDegrees>37.813764922320842742919921875</LatitudeDegrees>
              <LongitudeDegrees>-6.20525308884680271148681640625</LongitudeDegrees>
            </Position>
            <AltitudeMeters>385.600006103515625</AltitudeMeters>
            <DistanceMeters>NAN</DistanceMeters>
          </Trackpoint>
          <Trackpoint>
            <Time>2019-10-10T11:01:14.000Z</Time>
            <Position>
              <LatitudeDegrees>37.813685797154903411865234375</LatitudeDegrees>
              <LongitudeDegrees>-6.20516625232994556427001953125</LongitudeDegrees>
            </Position>
            <AltitudeMeters>384.79998779296875</AltitudeMeters>
            <DistanceMeters>NAN</DistanceMeters>
          </Trackpoint>
          <Trackpoint>
            <Time>2019-10-10T11:01:15.000Z</Time>
            <Position>
              <LatitudeDegrees>37.81360424123704433441162109375</LatitudeDegrees>
              <LongitudeDegrees>-6.20507874526083469390869140625</LongitudeDegrees>
            </Position>
            <AltitudeMeters>384.20001220703125</AltitudeMeters>
            <DistanceMeters>NAN</DistanceMeters>
          </Trackpoint>
          <Trackpoint>
            <Time>2019-10-10T11:01:17.000Z</Time>
            <Position>
              <LatitudeDegrees>37.8134217672049999237060546875</LatitudeDegrees>
              <LongitudeDegrees>-6.20492242276668548583984375</LongitudeDegrees>
            </Position>
            <AltitudeMeters>382.79998779296875</AltitudeMeters>
            <DistanceMeters>NAN</DistanceMeters>
          </Trackpoint>
          <Trackpoint>
            <Time>2019-10-10T11:01:18.000Z</Time>
            <Position>
              <LatitudeDegrees>37.81332361511886119842529296875</LatitudeDegrees>
              <LongitudeDegrees>-6.20485478080809116363525390625</LongitudeDegrees>
            </Position>
            <AltitudeMeters>381.600006103515625</AltitudeMeters>
            <DistanceMeters>NAN</DistanceMeters>
          </Trackpoint>
          <Trackpoint>
            <Time>2019-10-10T11:01:19.000Z</Time>
            <Position>
              <LatitudeDegrees>37.81322269700467586517333984375</LatitudeDegrees>
              <LongitudeDegrees>-6.2047876417636871337890625</LongitudeDegrees>
            </Position>
            <AltitudeMeters>380.600006103515625</AltitudeMeters>
            <DistanceMeters>NAN</DistanceMeters>
          </Trackpoint>
          <Trackpoint>
            <Time>2019-10-10T11:01:20.000Z</Time>
            <Position>
              <LatitudeDegrees>37.8131200186908245086669921875</LatitudeDegrees>
              <LongitudeDegrees>-6.204720251262187957763671875</LongitudeDegrees>
            </Position>
            <AltitudeMeters>380</AltitudeMeters>
            <DistanceMeters>NAN</DistanceMeters>
          </Trackpoint>
          <Trackpoint>
            <Time>2019-10-10T11:01:22.000Z</Time>
            <Position>
              <LatitudeDegrees>37.81291105784475803375244140625</LatitudeDegrees>
              <LongitudeDegrees>-6.2045837938785552978515625</LongitudeDegrees>
            </Position>
            <AltitudeMeters>378</AltitudeMeters>
            <DistanceMeters>NAN</DistanceMeters>
          </Trackpoint>
          <Trackpoint>
            <Time>2019-10-10T11:01:23.000Z</Time>
            <Position>
              <LatitudeDegrees>37.8128018416464328765869140625</LatitudeDegrees>
              <LongitudeDegrees>-6.20452000759541988372802734375</LongitudeDegrees>
            </Position>
            <AltitudeMeters>376.79998779296875</AltitudeMeters>
            <DistanceMeters>NAN</DistanceMeters>
          </Trackpoint>
          <Trackpoint>
            <Time>2019-10-10T11:01:24.000Z</Time>
            <Position>
              <LatitudeDegrees>37.8126908652484416961669921875</LatitudeDegrees>
              <LongitudeDegrees>-6.2044532038271427154541015625</LongitudeDegrees>
            </Position>
            <AltitudeMeters>375.600006103515625</AltitudeMeters>
            <DistanceMeters>NAN</DistanceMeters>
          </Trackpoint>
          <Trackpoint>
            <Time>2019-10-10T11:01:25.000Z</Time>
            <Position>
              <LatitudeDegrees>37.81258047558367252349853515625</LatitudeDegrees>
              <LongitudeDegrees>-6.204385645687580108642578125</LongitudeDegrees>
            </Position>
            <AltitudeMeters>374.399993896484375</AltitudeMeters>
            <DistanceMeters>NAN</DistanceMeters>
          </Trackpoint>
          <Trackpoint>
            <Time>2019-10-10T11:01:27.000Z</Time>
            <Position>
              <LatitudeDegrees>37.81236606650054454803466796875</LatitudeDegrees>
              <LongitudeDegrees>-6.20424650609493255615234375</LongitudeDegrees>
            </Position>
            <AltitudeMeters>373.600006103515625</AltitudeMeters>
            <DistanceMeters>NAN</DistanceMeters>
          </Trackpoint>
          <Trackpoint>
            <Time>2019-10-10T11:01:28.000Z</Time>
            <Position>
              <LatitudeDegrees>37.81225852668285369873046875</LatitudeDegrees>
              <LongitudeDegrees>-6.2041760981082916259765625</LongitudeDegrees>
            </Position>
            <AltitudeMeters>373.20001220703125</AltitudeMeters>
            <DistanceMeters>NAN</DistanceMeters>
          </Trackpoint>
          <Trackpoint>
            <Time>2019-10-10T11:01:31.000Z</Time>
            <Position>
              <LatitudeDegrees>37.81193423084914684295654296875</LatitudeDegrees>
              <LongitudeDegrees>-6.20396965183317661285400390625</LongitudeDegrees>
            </Position>
            <AltitudeMeters>371.79998779296875</AltitudeMeters>
            <DistanceMeters>NAN</DistanceMeters>
          </Trackpoint>
          <Trackpoint>
            <Time>2019-10-10T11:01:33.000Z</Time>
            <Position>
              <LatitudeDegrees>37.81172803603112697601318359375</LatitudeDegrees>
              <LongitudeDegrees>-6.203829757869243621826171875</LongitudeDegrees>
            </Position>
            <AltitudeMeters>370.79998779296875</AltitudeMeters>
            <DistanceMeters>NAN</DistanceMeters>
          </Trackpoint>
          <Trackpoint>
            <Time>2019-10-10T11:01:34.000Z</Time>
            <Position>
              <LatitudeDegrees>37.81162627972662448883056640625</LatitudeDegrees>
              <LongitudeDegrees>-6.2037652172148227691650390625</LongitudeDegrees>
            </Position>
            <AltitudeMeters>370.79998779296875</AltitudeMeters>
            <DistanceMeters>NAN</DistanceMeters>
          </Trackpoint>
          <Trackpoint>
            <Time>2019-10-10T11:01:35.000Z</Time>
            <Position>
              <LatitudeDegrees>37.811526618897914886474609375</LatitudeDegrees>
              <LongitudeDegrees>-6.2037041969597339630126953125</LongitudeDegrees>
            </Position>
            <AltitudeMeters>370.399993896484375</AltitudeMeters>
            <DistanceMeters>NAN</DistanceMeters>
          </Trackpoint>
          <Trackpoint>
            <Time>2019-10-10T11:01:38.000Z</Time>
            <Position>
              <LatitudeDegrees>37.81125764362514019012451171875</LatitudeDegrees>
              <LongitudeDegrees>-6.20354033075273036956787109375</LongitudeDegrees>
            </Position>
            <AltitudeMeters>370.399993896484375</AltitudeMeters>
            <DistanceMeters>NAN</DistanceMeters>
          </Trackpoint>
          <Trackpoint>
            <Time>2019-10-10T11:01:39.000Z</Time>
            <Position>
              <LatitudeDegrees>37.811182625591754913330078125</LatitudeDegrees>
              <LongitudeDegrees>-6.20348417200148105621337890625</LongitudeDegrees>
            </Position>
            <AltitudeMeters>371.20001220703125</AltitudeMeters>
            <DistanceMeters>NAN</DistanceMeters>
          </Trackpoint>
          <Trackpoint>
            <Time>2019-10-10T11:01:40.000Z</Time>
            <Position>
              <LatitudeDegrees>37.81111322343349456787109375</LatitudeDegrees>
              <LongitudeDegrees>-6.20343245565891265869140625</LongitudeDegrees>
            </Position>
            <AltitudeMeters>372.399993896484375</AltitudeMeters>
            <DistanceMeters>NAN</DistanceMeters>
          </Trackpoint>
          <Trackpoint>
            <Time>2019-10-10T11:01:41.000Z</Time>
            <Position>
              <LatitudeDegrees>37.81104776076972484588623046875</LatitudeDegrees>
              <LongitudeDegrees>-6.20339079760015010833740234375</LongitudeDegrees>
            </Position>
            <AltitudeMeters>373.20001220703125</AltitudeMeters>
            <DistanceMeters>NAN</DistanceMeters>
          </Trackpoint>
          <Trackpoint>
            <Time>2019-10-10T11:01:42.000Z</Time>
            <Position>
              <LatitudeDegrees>37.8109883330762386322021484375</LatitudeDegrees>
              <LongitudeDegrees>-6.20335659943521022796630859375</LongitudeDegrees>
            </Position>
            <AltitudeMeters>374.20001220703125</AltitudeMeters>
            <DistanceMeters>NAN</DistanceMeters>
          </Trackpoint>
          <Trackpoint>
            <Time>2019-10-10T11:01:43.000Z</Time>
            <Position>
              <LatitudeDegrees>37.81093359924852848052978515625</LatitudeDegrees>
              <LongitudeDegrees>-6.20332022197544574737548828125</LongitudeDegrees>
            </Position>
            <AltitudeMeters>374.79998779296875</AltitudeMeters>
            <DistanceMeters>NAN</DistanceMeters>
          </Trackpoint>
          <Trackpoint>
            <Time>2019-10-10T11:01:44.000Z</Time>
            <Position>
              <LatitudeDegrees>37.8108837269246578216552734375</LatitudeDegrees>
              <LongitudeDegrees>-6.2032928131520748138427734375</LongitudeDegrees>
            </Position>
            <AltitudeMeters>375.600006103515625</AltitudeMeters>
            <DistanceMeters>NAN</DistanceMeters>
          </Trackpoint>
          <Trackpoint>
            <Time>2019-10-10T11:01:45.000Z</Time>
            <Position>
              <LatitudeDegrees>37.810835950076580047607421875</LatitudeDegrees>
              <LongitudeDegrees>-6.2032641470432281494140625</LongitudeDegrees>
            </Position>
            <AltitudeMeters>376.399993896484375</AltitudeMeters>
            <DistanceMeters>NAN</DistanceMeters>
          </Trackpoint>
          <Trackpoint>
            <Time>2019-10-10T11:01:46.000Z</Time>
            <Position>
              <LatitudeDegrees>37.81079093925654888153076171875</LatitudeDegrees>
              <LongitudeDegrees>-6.2032358162105083465576171875</LongitudeDegrees>
            </Position>
            <AltitudeMeters>376.600006103515625</AltitudeMeters>
            <DistanceMeters>NAN</DistanceMeters>
          </Trackpoint>
          <Trackpoint>
            <Time>2019-10-10T11:01:48.000Z</Time>
            <Position>
              <LatitudeDegrees>37.81071097590029239654541015625</LatitudeDegrees>
              <LongitudeDegrees>-6.20318393222987651824951171875</LongitudeDegrees>
            </Position>
            <AltitudeMeters>378</AltitudeMeters>
            <DistanceMeters>NAN</DistanceMeters>
          </Trackpoint>
          <Trackpoint>
            <Time>2019-10-10T11:01:50.000Z</Time>
            <Position>
              <LatitudeDegrees>37.81063687987625598907470703125</LatitudeDegrees>
              <LongitudeDegrees>-6.20313883759081363677978515625</LongitudeDegrees>
            </Position>
            <AltitudeMeters>378.399993896484375</AltitudeMeters>
            <DistanceMeters>NAN</DistanceMeters>
          </Trackpoint>
          <Trackpoint>
            <Time>2019-10-10T11:01:55.000Z</Time>
            <Position>
              <LatitudeDegrees>37.810481227934360504150390625</LatitudeDegrees>
              <LongitudeDegrees>-6.20303859002888202667236328125</LongitudeDegrees>
            </Position>
            <AltitudeMeters>379</AltitudeMeters>
            <DistanceMeters>NAN</DistanceMeters>
          </Trackpoint>
          <Trackpoint>
            <Time>2019-10-10T11:01:56.000Z</Time>
            <Position>
              <LatitudeDegrees>37.81045398674905300140380859375</LatitudeDegrees>
              <LongitudeDegrees>-6.2030182220041751861572265625</LongitudeDegrees>
            </Position>
            <AltitudeMeters>379.20001220703125</AltitudeMeters>
            <DistanceMeters>NAN</DistanceMeters>
          </Trackpoint>
          <Trackpoint>
            <Time>2019-10-10T11:01:58.000Z</Time>
            <Position>
              <LatitudeDegrees>37.8103885240852832794189453125</LatitudeDegrees>
              <LongitudeDegrees>-6.20297404937446117401123046875</LongitudeDegrees>
            </Position>
            <AltitudeMeters>379.79998779296875</AltitudeMeters>
            <DistanceMeters>NAN</DistanceMeters>
          </Trackpoint>
          <Trackpoint>
            <Time>2019-10-10T11:02:00.000Z</Time>
            <Position>
              <LatitudeDegrees>37.810322977602481842041015625</LatitudeDegrees>
              <LongitudeDegrees>-6.20293096639215946197509765625</LongitudeDegrees>
            </Position>
            <AltitudeMeters>379.399993896484375</AltitudeMeters>
            <DistanceMeters>NAN</DistanceMeters>
          </Trackpoint>
          <Trackpoint>
            <Time>2019-10-10T11:02:02.000Z</Time>
            <Position>
              <LatitudeDegrees>37.81025516800582408905029296875</LatitudeDegrees>
              <LongitudeDegrees>-6.20289643295109272003173828125</LongitudeDegrees>
            </Position>
            <AltitudeMeters>380</AltitudeMeters>
            <DistanceMeters>NAN</DistanceMeters>
          </Trackpoint>
          <Trackpoint>
            <Time>2019-10-10T11:02:03.000Z</Time>
            <Position>
              <LatitudeDegrees>37.81022147275507450103759765625</LatitudeDegrees>
              <LongitudeDegrees>-6.2028740532696247100830078125</LongitudeDegrees>
            </Position>
            <AltitudeMeters>380.20001220703125</AltitudeMeters>
            <DistanceMeters>NAN</DistanceMeters>
          </Trackpoint>
          <Trackpoint>
            <Time>2019-10-10T11:02:05.000Z</Time>
            <Position>
              <LatitudeDegrees>37.81015877611935138702392578125</LatitudeDegrees>
              <LongitudeDegrees>-6.20283038355410099029541015625</LongitudeDegrees>
            </Position>
            <AltitudeMeters>381.20001220703125</AltitudeMeters>
            <DistanceMeters>NAN</DistanceMeters>
          </Trackpoint>
          <Trackpoint>
            <Time>2019-10-10T11:02:06.000Z</Time>
            <Position>
              <LatitudeDegrees>37.810127846896648406982421875</LatitudeDegrees>
              <LongitudeDegrees>-6.2028043158352375030517578125</LongitudeDegrees>
            </Position>
            <AltitudeMeters>381.399993896484375</AltitudeMeters>
            <DistanceMeters>NAN</DistanceMeters>
          </Trackpoint>
          <Trackpoint>
            <Time>2019-10-10T11:02:09.000Z</Time>
            <Position>
              <LatitudeDegrees>37.8100334666669368743896484375</LatitudeDegrees>
              <LongitudeDegrees>-6.20273415930569171905517578125</LongitudeDegrees>
            </Position>
            <AltitudeMeters>382.399993896484375</AltitudeMeters>
            <DistanceMeters>NAN</DistanceMeters>
          </Trackpoint>
          <Trackpoint>
            <Time>2019-10-10T11:02:10.000Z</Time>
            <Position>
              <LatitudeDegrees>37.81000153161585330963134765625</LatitudeDegrees>
              <LongitudeDegrees>-6.20271027088165283203125</LongitudeDegrees>
            </Position>
            <AltitudeMeters>382.399993896484375</AltitudeMeters>
            <DistanceMeters>NAN</DistanceMeters>
          </Trackpoint>
          <Trackpoint>
            <Time>2019-10-10T11:02:13.000Z</Time>
            <Position>
              <LatitudeDegrees>37.809898853302001953125</LatitudeDegrees>
              <LongitudeDegrees>-6.20265453122556209564208984375</LongitudeDegrees>
            </Position>
            <AltitudeMeters>382.600006103515625</AltitudeMeters>
            <DistanceMeters>NAN</DistanceMeters>
          </Trackpoint>
          <Trackpoint>
            <Time>2019-10-10T11:02:17.000Z</Time>
            <Position>
              <LatitudeDegrees>37.8097649104893207550048828125</LatitudeDegrees>
              <LongitudeDegrees>-6.20258244685828685760498046875</LongitudeDegrees>
            </Position>
            <AltitudeMeters>382.600006103515625</AltitudeMeters>
            <DistanceMeters>NAN</DistanceMeters>
          </Trackpoint>
          <Trackpoint>
            <Time>2019-10-10T11:02:24.000Z</Time>
            <Position>
              <LatitudeDegrees>37.8094973601400852203369140625</LatitudeDegrees>
              <LongitudeDegrees>-6.20244448073208332061767578125</LongitudeDegrees>
            </Position>
            <AltitudeMeters>383</AltitudeMeters>
            <DistanceMeters>NAN</DistanceMeters>
          </Trackpoint>
          <Trackpoint>
            <Time>2019-10-10T11:02:32.000Z</Time>
            <Position>
              <LatitudeDegrees>37.8091372735798358917236328125</LatitudeDegrees>
              <LongitudeDegrees>-6.20232461951673030853271484375</LongitudeDegrees>
            </Position>
            <AltitudeMeters>382.399993896484375</AltitudeMeters>
            <DistanceMeters>NAN</DistanceMeters>
          </Trackpoint>
          <Trackpoint>
            <Time>2019-10-10T11:02:39.000Z</Time>
            <Position>
              <LatitudeDegrees>37.8087567351758480072021484375</LatitudeDegrees>
              <LongitudeDegrees>-6.20226913131773471832275390625</LongitudeDegrees>
            </Position>
            <AltitudeMeters>382.20001220703125</AltitudeMeters>
            <DistanceMeters>NAN</DistanceMeters>
          </Trackpoint>
          <Trackpoint>
            <Time>2019-10-10T11:02:46.000Z</Time>
            <Position>
              <LatitudeDegrees>37.80837309546768665313720703125</LatitudeDegrees>
              <LongitudeDegrees>-6.20222923345863819122314453125</LongitudeDegrees>
            </Position>
            <AltitudeMeters>381.600006103515625</AltitudeMeters>
            <DistanceMeters>NAN</DistanceMeters>
          </Trackpoint>
          <Trackpoint>
            <Time>2019-10-10T11:02:48.000Z</Time>
            <Position>
              <LatitudeDegrees>37.80826480127871036529541015625</LatitudeDegrees>
              <LongitudeDegrees>-6.2022172473371028900146484375</LongitudeDegrees>
            </Position>
            <AltitudeMeters>382</AltitudeMeters>
            <DistanceMeters>NAN</DistanceMeters>
          </Trackpoint>
          <Trackpoint>
            <Time>2019-10-10T11:02:56.000Z</Time>
            <Position>
              <LatitudeDegrees>37.8078380785882472991943359375</LatitudeDegrees>
              <LongitudeDegrees>-6.2021723203361034393310546875</LongitudeDegrees>
            </Position>
            <AltitudeMeters>382.20001220703125</AltitudeMeters>
            <DistanceMeters>NAN</DistanceMeters>
          </Trackpoint>
          <Trackpoint>
            <Time>2019-10-10T11:03:00.000Z</Time>
            <Position>
              <LatitudeDegrees>37.8076203167438507080078125</LatitudeDegrees>
              <LongitudeDegrees>-6.202149353921413421630859375</LongitudeDegrees>
            </Position>
            <AltitudeMeters>381.399993896484375</AltitudeMeters>
            <DistanceMeters>NAN</DistanceMeters>
          </Trackpoint>
          <Trackpoint>
            <Time>2019-10-10T11:03:03.000Z</Time>
            <Position>
              <LatitudeDegrees>37.80744337476789951324462890625</LatitudeDegrees>
              <LongitudeDegrees>-6.2021322548389434814453125</LongitudeDegrees>
            </Position>
            <AltitudeMeters>381</AltitudeMeters>
            <DistanceMeters>NAN</DistanceMeters>
          </Trackpoint>
          <Trackpoint>
            <Time>2019-10-10T11:03:07.000Z</Time>
            <Position>
              <LatitudeDegrees>37.80718403868377208709716796875</LatitudeDegrees>
              <LongitudeDegrees>-6.2021005712449550628662109375</LongitudeDegrees>
            </Position>
            <AltitudeMeters>380.20001220703125</AltitudeMeters>
            <DistanceMeters>NAN</DistanceMeters>
          </Trackpoint>
          <Trackpoint>
            <Time>2019-10-10T11:03:10.000Z</Time>
            <Position>
              <LatitudeDegrees>37.80696242116391658782958984375</LatitudeDegrees>
              <LongitudeDegrees>-6.20207525789737701416015625</LongitudeDegrees>
            </Position>
            <AltitudeMeters>378.79998779296875</AltitudeMeters>
            <DistanceMeters>NAN</DistanceMeters>
          </Trackpoint>
          <Trackpoint>
            <Time>2019-10-10T11:03:12.000Z</Time>
            <Position>
              <LatitudeDegrees>37.80681188218295574188232421875</LatitudeDegrees>
              <LongitudeDegrees>-6.20206343941390514373779296875</LongitudeDegrees>
            </Position>
            <AltitudeMeters>377.600006103515625</AltitudeMeters>
            <DistanceMeters>NAN</DistanceMeters>
          </Trackpoint>
          <Trackpoint>
            <Time>2019-10-10T11:03:13.000Z</Time>
            <Position>
              <LatitudeDegrees>37.8067346848547458648681640625</LatitudeDegrees>
              <LongitudeDegrees>-6.2020517885684967041015625</LongitudeDegrees>
            </Position>
            <AltitudeMeters>376.79998779296875</AltitudeMeters>
            <DistanceMeters>NAN</DistanceMeters>
          </Trackpoint>
          <Trackpoint>
            <Time>2019-10-10T11:03:14.000Z</Time>
            <Position>
              <LatitudeDegrees>37.80665849335491657257080078125</LatitudeDegrees>
              <LongitudeDegrees>-6.20204030536115169525146484375</LongitudeDegrees>
            </Position>
            <AltitudeMeters>376.20001220703125</AltitudeMeters>
            <DistanceMeters>NAN</DistanceMeters>
          </Trackpoint>
          <Trackpoint>
            <Time>2019-10-10T11:03:19.000Z</Time>
            <Position>
              <LatitudeDegrees>37.8063006699085235595703125</LatitudeDegrees>
              <LongitudeDegrees>-6.20200744830071926116943359375</LongitudeDegrees>
            </Position>
            <AltitudeMeters>376.399993896484375</AltitudeMeters>
            <DistanceMeters>NAN</DistanceMeters>
          </Trackpoint>
          <Trackpoint>
            <Time>2019-10-10T11:03:21.000Z</Time>
            <Position>
              <LatitudeDegrees>37.80617259442806243896484375</LatitudeDegrees>
              <LongitudeDegrees>-6.20198649354279041290283203125</LongitudeDegrees>
            </Position>
            <AltitudeMeters>376.600006103515625</AltitudeMeters>
            <DistanceMeters>NAN</DistanceMeters>
          </Trackpoint>
          <Trackpoint>
            <Time>2019-10-10T11:03:23.000Z</Time>
            <Position>
              <LatitudeDegrees>37.80605189502239227294921875</LatitudeDegrees>
              <LongitudeDegrees>-6.20196889154613018035888671875</LongitudeDegrees>
            </Position>
            <AltitudeMeters>377.399993896484375</AltitudeMeters>
            <DistanceMeters>NAN</DistanceMeters>
          </Trackpoint>
          <Trackpoint>
            <Time>2019-10-10T11:03:29.000Z</Time>
            <Position>
              <LatitudeDegrees>37.8057097457349300384521484375</LatitudeDegrees>
              <LongitudeDegrees>-6.20195128954946994781494140625</LongitudeDegrees>
            </Position>
            <AltitudeMeters>378.20001220703125</AltitudeMeters>
            <DistanceMeters>NAN</DistanceMeters>
          </Trackpoint>
          <Trackpoint>
            <Time>2019-10-10T11:03:30.000Z</Time>
            <Position>
              <LatitudeDegrees>37.8056581132113933563232421875</LatitudeDegrees>
              <LongitudeDegrees>-6.201948188245296478271484375</LongitudeDegrees>
            </Position>
            <AltitudeMeters>378.399993896484375</AltitudeMeters>
            <DistanceMeters>NAN</DistanceMeters>
          </Trackpoint>
          <Trackpoint>
            <Time>2019-10-10T11:03:33.000Z</Time>
            <Position>
              <LatitudeDegrees>37.80551034025847911834716796875</LatitudeDegrees>
              <LongitudeDegrees>-6.20196453295648097991943359375</LongitudeDegrees>
            </Position>
            <AltitudeMeters>378.399993896484375</AltitudeMeters>
            <DistanceMeters>NAN</DistanceMeters>
          </Trackpoint>
          <Trackpoint>
            <Time>2019-10-10T11:03:36.000Z</Time>
            <Position>
              <LatitudeDegrees>37.8053779900074005126953125</LatitudeDegrees>
              <LongitudeDegrees>-6.2020013295114040374755859375</LongitudeDegrees>
            </Position>
            <AltitudeMeters>379.399993896484375</AltitudeMeters>
            <DistanceMeters>NAN</DistanceMeters>
          </Trackpoint>
          <Trackpoint>
            <Time>2019-10-10T11:03:39.000Z</Time>
            <Position>
              <LatitudeDegrees>37.8052520938217639923095703125</LatitudeDegrees>
              <LongitudeDegrees>-6.2020626850426197052001953125</LongitudeDegrees>
            </Position>
            <AltitudeMeters>379.20001220703125</AltitudeMeters>
            <DistanceMeters>NAN</DistanceMeters>
          </Trackpoint>
          <Trackpoint>
            <Time>2019-10-10T11:03:40.000Z</Time>
            <Position>
              <LatitudeDegrees>37.8052103519439697265625</LatitudeDegrees>
              <LongitudeDegrees>-6.20208305306732654571533203125</LongitudeDegrees>
            </Position>
            <AltitudeMeters>379.399993896484375</AltitudeMeters>
            <DistanceMeters>NAN</DistanceMeters>
          </Trackpoint>
          <Trackpoint>
            <Time>2019-10-10T11:03:43.000Z</Time>
            <Position>
              <LatitudeDegrees>37.8050914965569972991943359375</LatitudeDegrees>
              <LongitudeDegrees>-6.20215178467333316802978515625</LongitudeDegrees>
            </Position>
            <AltitudeMeters>380.20001220703125</AltitudeMeters>
            <DistanceMeters>NAN</DistanceMeters>
          </Trackpoint>
          <Trackpoint>
            <Time>2019-10-10T11:03:44.000Z</Time>
            <Position>
              <LatitudeDegrees>37.80505252070724964141845703125</LatitudeDegrees>
              <LongitudeDegrees>-6.20217625983059406280517578125</LongitudeDegrees>
            </Position>
            <AltitudeMeters>380.20001220703125</AltitudeMeters>
            <DistanceMeters>NAN</DistanceMeters>
          </Trackpoint>
          <Trackpoint>
            <Time>2019-10-10T11:03:45.000Z</Time>
            <Position>
              <LatitudeDegrees>37.805012203752994537353515625</LatitudeDegrees>
              <LongitudeDegrees>-6.20219738222658634185791015625</LongitudeDegrees>
            </Position>
            <AltitudeMeters>380.600006103515625</AltitudeMeters>
            <DistanceMeters>NAN</DistanceMeters>
          </Trackpoint>
          <Trackpoint>
            <Time>2019-10-10T11:03:50.000Z</Time>
            <Position>
              <LatitudeDegrees>37.804821096360683441162109375</LatitudeDegrees>
              <LongitudeDegrees>-6.202330403029918670654296875</LongitudeDegrees>
            </Position>
            <AltitudeMeters>381.20001220703125</AltitudeMeters>
            <DistanceMeters>NAN</DistanceMeters>
          </Trackpoint>
          <Trackpoint>
            <Time>2019-10-10T11:03:53.000Z</Time>
            <Position>
              <LatitudeDegrees>37.80471389181911945343017578125</LatitudeDegrees>
              <LongitudeDegrees>-6.20241455733776092529296875</LongitudeDegrees>
            </Position>
            <AltitudeMeters>381.600006103515625</AltitudeMeters>
            <DistanceMeters>NAN</DistanceMeters>
          </Trackpoint>
          <Trackpoint>
            <Time>2019-10-10T11:03:57.000Z</Time>
            <Position>
              <LatitudeDegrees>37.80456997454166412353515625</LatitudeDegrees>
              <LongitudeDegrees>-6.20250516571104526519775390625</LongitudeDegrees>
            </Position>
            <AltitudeMeters>382.399993896484375</AltitudeMeters>
            <DistanceMeters>NAN</DistanceMeters>
          </Trackpoint>
          <Trackpoint>
            <Time>2019-10-10T11:04:00.000Z</Time>
            <Position>
              <LatitudeDegrees>37.80447718687355518341064453125</LatitudeDegrees>
              <LongitudeDegrees>-6.2025796808302402496337890625</LongitudeDegrees>
            </Position>
            <AltitudeMeters>383</AltitudeMeters>
            <DistanceMeters>NAN</DistanceMeters>
          </Trackpoint>
          <Trackpoint>
            <Time>2019-10-10T11:04:01.000Z</Time>
            <Position>
              <LatitudeDegrees>37.8044464252889156341552734375</LatitudeDegrees>
              <LongitudeDegrees>-6.20260256342589855194091796875</LongitudeDegrees>
            </Position>
            <AltitudeMeters>383.399993896484375</AltitudeMeters>
            <DistanceMeters>NAN</DistanceMeters>
          </Trackpoint>
          <Trackpoint>
            <Time>2019-10-10T11:04:07.000Z</Time>
            <Position>
              <LatitudeDegrees>37.80426998622715473175048828125</LatitudeDegrees>
              <LongitudeDegrees>-6.2027211673557758331298828125</LongitudeDegrees>
            </Position>
            <AltitudeMeters>384</AltitudeMeters>
            <DistanceMeters>NAN</DistanceMeters>
          </Trackpoint>
          <Trackpoint>
            <Time>2019-10-10T11:04:09.000Z</Time>
            <Position>
              <LatitudeDegrees>37.8042187727987766265869140625</LatitudeDegrees>
              <LongitudeDegrees>-6.2027652561664581298828125</LongitudeDegrees>
            </Position>
            <AltitudeMeters>384.399993896484375</AltitudeMeters>
            <DistanceMeters>NAN</DistanceMeters>
          </Trackpoint>
          <Trackpoint>
            <Time>2019-10-10T11:04:13.000Z</Time>
            <Position>
              <LatitudeDegrees>37.8041077964007854461669921875</LatitudeDegrees>
              <LongitudeDegrees>-6.2028458900749683380126953125</LongitudeDegrees>
            </Position>
            <AltitudeMeters>385.20001220703125</AltitudeMeters>
            <DistanceMeters>NAN</DistanceMeters>
          </Trackpoint>
          <Trackpoint>
            <Time>2019-10-10T11:04:16.000Z</Time>
            <Position>
              <LatitudeDegrees>37.8040236420929431915283203125</LatitudeDegrees>
              <LongitudeDegrees>-6.20289442129433155059814453125</LongitudeDegrees>
            </Position>
            <AltitudeMeters>386</AltitudeMeters>
            <DistanceMeters>NAN</DistanceMeters>
          </Trackpoint>
          <Trackpoint>
            <Time>2019-10-10T11:04:18.000Z</Time>
            <Position>
              <LatitudeDegrees>37.8039703331887722015380859375</LatitudeDegrees>
              <LongitudeDegrees>-6.20293130166828632354736328125</LongitudeDegrees>
            </Position>
            <AltitudeMeters>386.399993896484375</AltitudeMeters>
            <DistanceMeters>NAN</DistanceMeters>
          </Trackpoint>
          <Trackpoint>
            <Time>2019-10-10T11:04:19.000Z</Time>
            <Position>
              <LatitudeDegrees>37.8039398230612277984619140625</LatitudeDegrees>
              <LongitudeDegrees>-6.20294907130300998687744140625</LongitudeDegrees>
            </Position>
            <AltitudeMeters>386.600006103515625</AltitudeMeters>
            <DistanceMeters>NAN</DistanceMeters>
          </Trackpoint>
          <Trackpoint>
            <Time>2019-10-10T11:04:24.000Z</Time>
            <Position>
              <LatitudeDegrees>37.80380579642951488494873046875</LatitudeDegrees>
              <LongitudeDegrees>-6.203045547008514404296875</LongitudeDegrees>
            </Position>
            <AltitudeMeters>387.399993896484375</AltitudeMeters>
            <DistanceMeters>NAN</DistanceMeters>
          </Trackpoint>
          <Trackpoint>
            <Time>2019-10-10T11:04:29.000Z</Time>
            <Position>
              <LatitudeDegrees>37.80367637984454631805419921875</LatitudeDegrees>
              <LongitudeDegrees>-6.20315342210233211517333984375</LongitudeDegrees>
            </Position>
            <AltitudeMeters>388.20001220703125</AltitudeMeters>
            <DistanceMeters>NAN</DistanceMeters>
          </Trackpoint>
          <Trackpoint>
            <Time>2019-10-10T11:04:34.000Z</Time>
            <Position>
              <LatitudeDegrees>37.80354243703186511993408203125</LatitudeDegrees>
              <LongitudeDegrees>-6.20324679650366306304931640625</LongitudeDegrees>
            </Position>
            <AltitudeMeters>388.600006103515625</AltitudeMeters>
            <DistanceMeters>NAN</DistanceMeters>
          </Trackpoint>
          <Trackpoint>
            <Time>2019-10-10T11:04:38.000Z</Time>
            <Position>
              <LatitudeDegrees>37.80343632213771343231201171875</LatitudeDegrees>
              <LongitudeDegrees>-6.203315444290637969970703125</LongitudeDegrees>
            </Position>
            <AltitudeMeters>389.600006103515625</AltitudeMeters>
            <DistanceMeters>NAN</DistanceMeters>
          </Trackpoint>
          <Trackpoint>
            <Time>2019-10-10T11:04:43.000Z</Time>
            <Position>
              <LatitudeDegrees>37.80330154113471508026123046875</LatitudeDegrees>
              <LongitudeDegrees>-6.20339632965624332427978515625</LongitudeDegrees>
            </Position>
            <AltitudeMeters>390.79998779296875</AltitudeMeters>
            <DistanceMeters>NAN</DistanceMeters>
          </Trackpoint>
          <Trackpoint>
            <Time>2019-10-10T11:04:48.000Z</Time>
            <Position>
              <LatitudeDegrees>37.803170196712017059326171875</LatitudeDegrees>
              <LongitudeDegrees>-6.20347729884088039398193359375</LongitudeDegrees>
            </Position>
            <AltitudeMeters>391.399993896484375</AltitudeMeters>
            <DistanceMeters>NAN</DistanceMeters>
          </Trackpoint>
          <Trackpoint>
            <Time>2019-10-10T11:04:49.000Z</Time>
            <Position>
              <LatitudeDegrees>37.8031442128121852874755859375</LatitudeDegrees>
              <LongitudeDegrees>-6.20349305681884288787841796875</LongitudeDegrees>
            </Position>
            <AltitudeMeters>392</AltitudeMeters>
            <DistanceMeters>NAN</DistanceMeters>
          </Trackpoint>
          <Trackpoint>
            <Time>2019-10-10T11:04:54.000Z</Time>
            <Position>
              <LatitudeDegrees>37.803005240857601165771484375</LatitudeDegrees>
              <LongitudeDegrees>-6.20359296910464763641357421875</LongitudeDegrees>
            </Position>
            <AltitudeMeters>393</AltitudeMeters>
            <DistanceMeters>NAN</DistanceMeters>
          </Trackpoint>
          <Trackpoint>
            <Time>2019-10-10T11:04:57.000Z</Time>
            <Position>
              <LatitudeDegrees>37.80293307267129421234130859375</LatitudeDegrees>
              <LongitudeDegrees>-6.20365600101649761199951171875</LongitudeDegrees>
            </Position>
            <AltitudeMeters>393.20001220703125</AltitudeMeters>
            <DistanceMeters>NAN</DistanceMeters>
          </Trackpoint>
          <Trackpoint>
            <Time>2019-10-10T11:05:00.000Z</Time>
            <Position>
              <LatitudeDegrees>37.80284464359283447265625</LatitudeDegrees>
              <LongitudeDegrees>-6.20371685363352298736572265625</LongitudeDegrees>
            </Position>
            <AltitudeMeters>394</AltitudeMeters>
            <DistanceMeters>NAN</DistanceMeters>
          </Trackpoint>
          <Trackpoint>
            <Time>2019-10-10T11:05:04.000Z</Time>
            <Position>
              <LatitudeDegrees>37.80272805131971836090087890625</LatitudeDegrees>
              <LongitudeDegrees>-6.203812658786773681640625</LongitudeDegrees>
            </Position>
            <AltitudeMeters>394.399993896484375</AltitudeMeters>
            <DistanceMeters>NAN</DistanceMeters>
          </Trackpoint>
          <Trackpoint>
            <Time>2019-10-10T11:05:11.000Z</Time>
            <Position>
              <LatitudeDegrees>37.80252772383391857147216796875</LatitudeDegrees>
              <LongitudeDegrees>-6.20400317944586277008056640625</LongitudeDegrees>
            </Position>
            <AltitudeMeters>395</AltitudeMeters>
            <DistanceMeters>NAN</DistanceMeters>
          </Trackpoint>
          <Trackpoint>
            <Time>2019-10-10T11:05:13.000Z</Time>
            <Position>
              <LatitudeDegrees>37.80247290618717670440673828125</LatitudeDegrees>
              <LongitudeDegrees>-6.20406034402549266815185546875</LongitudeDegrees>
            </Position>
            <AltitudeMeters>395.20001220703125</AltitudeMeters>
            <DistanceMeters>NAN</DistanceMeters>
          </Trackpoint>
          <Trackpoint>
            <Time>2019-10-10T11:05:24.000Z</Time>
            <Position>
              <LatitudeDegrees>37.8021605126559734344482421875</LatitudeDegrees>
              <LongitudeDegrees>-6.20443182997405529022216796875</LongitudeDegrees>
            </Position>
            <AltitudeMeters>395.399993896484375</AltitudeMeters>
            <DistanceMeters>NAN</DistanceMeters>
          </Trackpoint>
          <Trackpoint>
            <Time>2019-10-10T11:05:32.000Z</Time>
            <Position>
              <LatitudeDegrees>37.8019613586366176605224609375</LatitudeDegrees>
              <LongitudeDegrees>-6.20473106391727924346923828125</LongitudeDegrees>
            </Position>
            <AltitudeMeters>395.600006103515625</AltitudeMeters>
            <DistanceMeters>NAN</DistanceMeters>
          </Trackpoint>
          <Trackpoint>
            <Time>2019-10-10T11:05:35.000Z</Time>
            <Position>
              <LatitudeDegrees>37.801896147429943084716796875</LatitudeDegrees>
              <LongitudeDegrees>-6.204851679503917694091796875</LongitudeDegrees>
            </Position>
            <AltitudeMeters>396</AltitudeMeters>
            <DistanceMeters>NAN</DistanceMeters>
          </Trackpoint>
          <Trackpoint>
            <Time>2019-10-10T11:05:36.000Z</Time>
            <Position>
              <LatitudeDegrees>37.8018723428249359130859375</LatitudeDegrees>
              <LongitudeDegrees>-6.2048976123332977294921875</LongitudeDegrees>
            </Position>
            <AltitudeMeters>396.399993896484375</AltitudeMeters>
            <DistanceMeters>NAN</DistanceMeters>
          </Trackpoint>
          <Trackpoint>
            <Time>2019-10-10T11:05:44.000Z</Time>
            <Position>
              <LatitudeDegrees>37.80171878635883331298828125</LatitudeDegrees>
              <LongitudeDegrees>-6.205248646438121795654296875</LongitudeDegrees>
            </Position>
            <AltitudeMeters>396.600006103515625</AltitudeMeters>
            <DistanceMeters>NAN</DistanceMeters>
          </Trackpoint>
          <Trackpoint>
            <Time>2019-10-10T11:05:46.000Z</Time>
            <Position>
              <LatitudeDegrees>37.80168391764163970947265625</LatitudeDegrees>
              <LongitudeDegrees>-6.20533925481140613555908203125</LongitudeDegrees>
            </Position>
            <AltitudeMeters>397</AltitudeMeters>
            <DistanceMeters>NAN</DistanceMeters>
          </Trackpoint>
          <Trackpoint>
            <Time>2019-10-10T11:05:50.000Z</Time>
            <Position>
              <LatitudeDegrees>37.8016187064349651336669921875</LatitudeDegrees>
              <LongitudeDegrees>-6.20552047155797481536865234375</LongitudeDegrees>
            </Position>
            <AltitudeMeters>397.399993896484375</AltitudeMeters>
            <DistanceMeters>NAN</DistanceMeters>
          </Trackpoint>
          <Trackpoint>
            <Time>2019-10-10T11:05:57.000Z</Time>
            <Position>
              <LatitudeDegrees>37.80150177888572216033935546875</LatitudeDegrees>
              <LongitudeDegrees>-6.20584015734493732452392578125</LongitudeDegrees>
            </Position>
            <AltitudeMeters>397.399993896484375</AltitudeMeters>
            <DistanceMeters>NAN</DistanceMeters>
          </Trackpoint>
          <Trackpoint>
            <Time>2019-10-10T11:06:07.000Z</Time>
            <Position>
              <LatitudeDegrees>37.80133229680359363555908203125</LatitudeDegrees>
              <LongitudeDegrees>-6.2062955461442470550537109375</LongitudeDegrees>
            </Position>
            <AltitudeMeters>397.600006103515625</AltitudeMeters>
            <DistanceMeters>NAN</DistanceMeters>
          </Trackpoint>
          <Trackpoint>
            <Time>2019-10-10T11:06:12.000Z</Time>
            <Position>
              <LatitudeDegrees>37.8012364916503429412841796875</LatitudeDegrees>
              <LongitudeDegrees>-6.2065151520073413848876953125</LongitudeDegrees>
            </Position>
            <AltitudeMeters>397.399993896484375</AltitudeMeters>
            <DistanceMeters>NAN</DistanceMeters>
          </Trackpoint>
          <Trackpoint>
            <Time>2019-10-10T11:06:21.000Z</Time>
            <Position>
              <LatitudeDegrees>37.8009898960590362548828125</LatitudeDegrees>
              <LongitudeDegrees>-6.20691790245473384857177734375</LongitudeDegrees>
            </Position>
            <AltitudeMeters>397.20001220703125</AltitudeMeters>
            <DistanceMeters>NAN</DistanceMeters>
          </Trackpoint>
          <Trackpoint>
            <Time>2019-10-10T11:06:26.000Z</Time>
            <Position>
              <LatitudeDegrees>37.8007915802299976348876953125</LatitudeDegrees>
              <LongitudeDegrees>-6.20715578086674213409423828125</LongitudeDegrees>
            </Position>
            <AltitudeMeters>396.20001220703125</AltitudeMeters>
            <DistanceMeters>NAN</DistanceMeters>
          </Trackpoint>
          <Trackpoint>
            <Time>2019-10-10T11:06:28.000Z</Time>
            <Position>
              <LatitudeDegrees>37.80069912783801555633544921875</LatitudeDegrees>
              <LongitudeDegrees>-6.207260973751544952392578125</LongitudeDegrees>
            </Position>
            <AltitudeMeters>395.399993896484375</AltitudeMeters>
            <DistanceMeters>NAN</DistanceMeters>
          </Trackpoint>
          <Trackpoint>
            <Time>2019-10-10T11:06:29.000Z</Time>
            <Position>
              <LatitudeDegrees>37.80065554194152355194091796875</LatitudeDegrees>
              <LongitudeDegrees>-6.20730900205671787261962890625</LongitudeDegrees>
            </Position>
            <AltitudeMeters>395</AltitudeMeters>
            <DistanceMeters>NAN</DistanceMeters>
          </Trackpoint>
          <Trackpoint>
            <Time>2019-10-10T11:06:30.000Z</Time>
            <Position>
              <LatitudeDegrees>37.8005971200764179229736328125</LatitudeDegrees>
              <LongitudeDegrees>-6.2073583714663982391357421875</LongitudeDegrees>
            </Position>
            <AltitudeMeters>395.399993896484375</AltitudeMeters>
            <DistanceMeters>NAN</DistanceMeters>
          </Trackpoint>
          <Trackpoint>
            <Time>2019-10-10T11:06:33.000Z</Time>
            <Position>
              <LatitudeDegrees>37.80042638070881366729736328125</LatitudeDegrees>
              <LongitudeDegrees>-6.2074951641261577606201171875</LongitudeDegrees>
            </Position>
            <AltitudeMeters>394.600006103515625</AltitudeMeters>
            <DistanceMeters>NAN</DistanceMeters>
          </Trackpoint>
          <Trackpoint>
            <Time>2019-10-10T11:06:34.000Z</Time>
            <Position>
              <LatitudeDegrees>37.80036938376724720001220703125</LatitudeDegrees>
              <LongitudeDegrees>-6.2075350619852542877197265625</LongitudeDegrees>
            </Position>
            <AltitudeMeters>394.600006103515625</AltitudeMeters>
            <DistanceMeters>NAN</DistanceMeters>
          </Trackpoint>
          <Trackpoint>
            <Time>2019-10-10T11:06:36.000Z</Time>
            <Position>
              <LatitudeDegrees>37.8002333454787731170654296875</LatitudeDegrees>
              <LongitudeDegrees>-6.2076088227331638336181640625</LongitudeDegrees>
            </Position>
            <AltitudeMeters>393.600006103515625</AltitudeMeters>
            <DistanceMeters>NAN</DistanceMeters>
          </Trackpoint>
          <Trackpoint>
            <Time>2019-10-10T11:06:40.000Z</Time>
            <Position>
              <LatitudeDegrees>37.79996923170983791351318359375</LatitudeDegrees>
              <LongitudeDegrees>-6.207733713090419769287109375</LongitudeDegrees>
            </Position>
            <AltitudeMeters>393</AltitudeMeters>
            <DistanceMeters>NAN</DistanceMeters>
          </Trackpoint>
          <Trackpoint>
            <Time>2019-10-10T11:06:46.000Z</Time>
            <Position>
              <LatitudeDegrees>37.7995978295803070068359375</LatitudeDegrees>
              <LongitudeDegrees>-6.207824237644672393798828125</LongitudeDegrees>
            </Position>
            <AltitudeMeters>394</AltitudeMeters>
            <DistanceMeters>NAN</DistanceMeters>
          </Trackpoint>
          <Trackpoint>
            <Time>2019-10-10T11:06:48.000Z</Time>
            <Position>
              <LatitudeDegrees>37.79948777519166469573974609375</LatitudeDegrees>
              <LongitudeDegrees>-6.2078331224620342254638671875</LongitudeDegrees>
            </Position>
            <AltitudeMeters>394.600006103515625</AltitudeMeters>
            <DistanceMeters>NAN</DistanceMeters>
          </Trackpoint>
          <Trackpoint>
            <Time>2019-10-10T11:06:51.000Z</Time>
            <Position>
              <LatitudeDegrees>37.7993455342948436737060546875</LatitudeDegrees>
              <LongitudeDegrees>-6.2078290991485118865966796875</LongitudeDegrees>
            </Position>
            <AltitudeMeters>396</AltitudeMeters>
            <DistanceMeters>NAN</DistanceMeters>
          </Trackpoint>
          <Trackpoint>
            <Time>2019-10-10T11:06:52.000Z</Time>
            <Position>
              <LatitudeDegrees>37.7993026189506053924560546875</LatitudeDegrees>
              <LongitudeDegrees>-6.20782465673983097076416015625</LongitudeDegrees>
            </Position>
            <AltitudeMeters>396.600006103515625</AltitudeMeters>
            <DistanceMeters>NAN</DistanceMeters>
          </Trackpoint>
          <Trackpoint>
            <Time>2019-10-10T11:06:55.000Z</Time>
            <Position>
              <LatitudeDegrees>37.79918049462139606475830078125</LatitudeDegrees>
              <LongitudeDegrees>-6.20780940167605876922607421875</LongitudeDegrees>
            </Position>
            <AltitudeMeters>396.79998779296875</AltitudeMeters>
            <DistanceMeters>NAN</DistanceMeters>
          </Trackpoint>
          <Trackpoint>
            <Time>2019-10-10T11:06:58.000Z</Time>
            <Position>
              <LatitudeDegrees>37.7990729548037052154541015625</LatitudeDegrees>
              <LongitudeDegrees>-6.20778526179492473602294921875</LongitudeDegrees>
            </Position>
            <AltitudeMeters>397</AltitudeMeters>
            <DistanceMeters>NAN</DistanceMeters>
          </Trackpoint>
          <Trackpoint>
            <Time>2019-10-10T11:06:59.000Z</Time>
            <Position>
              <LatitudeDegrees>37.7990367449820041656494140625</LatitudeDegrees>
              <LongitudeDegrees>-6.207775957882404327392578125</LongitudeDegrees>
            </Position>
            <AltitudeMeters>397.399993896484375</AltitudeMeters>
            <DistanceMeters>NAN</DistanceMeters>
          </Trackpoint>
          <Trackpoint>
            <Time>2019-10-10T11:07:05.000Z</Time>
            <Position>
              <LatitudeDegrees>37.798839770257472991943359375</LatitudeDegrees>
              <LongitudeDegrees>-6.2077010236680507659912109375</LongitudeDegrees>
            </Position>
            <AltitudeMeters>398.399993896484375</AltitudeMeters>
            <DistanceMeters>NAN</DistanceMeters>
          </Trackpoint>
          <Trackpoint>
            <Time>2019-10-10T11:07:07.000Z</Time>
            <Position>
              <LatitudeDegrees>37.7987759001553058624267578125</LatitudeDegrees>
              <LongitudeDegrees>-6.20767193846404552459716796875</LongitudeDegrees>
            </Position>
            <AltitudeMeters>399</AltitudeMeters>
            <DistanceMeters>NAN</DistanceMeters>
          </Trackpoint>
          <Trackpoint>
            <Time>2019-10-10T11:07:11.000Z</Time>
            <Position>
              <LatitudeDegrees>37.79864908196032047271728515625</LatitudeDegrees>
              <LongitudeDegrees>-6.2076148577034473419189453125</LongitudeDegrees>
            </Position>
            <AltitudeMeters>399.600006103515625</AltitudeMeters>
            <DistanceMeters>NAN</DistanceMeters>
          </Trackpoint>
          <Trackpoint>
            <Time>2019-10-10T11:07:14.000Z</Time>
            <Position>
              <LatitudeDegrees>37.798555456101894378662109375</LatitudeDegrees>
              <LongitudeDegrees>-6.20755593292415142059326171875</LongitudeDegrees>
            </Position>
            <AltitudeMeters>400.79998779296875</AltitudeMeters>
            <DistanceMeters>NAN</DistanceMeters>
          </Trackpoint>
          <Trackpoint>
            <Time>2019-10-10T11:07:15.000Z</Time>
            <Position>
              <LatitudeDegrees>37.7985249459743499755859375</LatitudeDegrees>
              <LongitudeDegrees>-6.20753531344234943389892578125</LongitudeDegrees>
            </Position>
            <AltitudeMeters>400.600006103515625</AltitudeMeters>
            <DistanceMeters>NAN</DistanceMeters>
          </Trackpoint>
          <Trackpoint>
            <Time>2019-10-10T11:07:20.000Z</Time>
            <Position>
              <LatitudeDegrees>37.79837273061275482177734375</LatitudeDegrees>
              <LongitudeDegrees>-6.20742266066372394561767578125</LongitudeDegrees>
            </Position>
            <AltitudeMeters>401</AltitudeMeters>
            <DistanceMeters>NAN</DistanceMeters>
          </Trackpoint>
          <Trackpoint>
            <Time>2019-10-10T11:07:23.000Z</Time>
            <Position>
              <LatitudeDegrees>37.79829016886651515960693359375</LatitudeDegrees>
              <LongitudeDegrees>-6.20735292322933673858642578125</LongitudeDegrees>
            </Position>
            <AltitudeMeters>401.79998779296875</AltitudeMeters>
            <DistanceMeters>NAN</DistanceMeters>
          </Trackpoint>
          <Trackpoint>
            <Time>2019-10-10T11:07:24.000Z</Time>
            <Position>
              <LatitudeDegrees>37.79826250858604907989501953125</LatitudeDegrees>
              <LongitudeDegrees>-6.20733062736690044403076171875</LongitudeDegrees>
            </Position>
            <AltitudeMeters>402</AltitudeMeters>
            <DistanceMeters>NAN</DistanceMeters>
          </Trackpoint>
          <Trackpoint>
            <Time>2019-10-10T11:07:31.000Z</Time>
            <Position>
              <LatitudeDegrees>37.79807425104081630706787109375</LatitudeDegrees>
              <LongitudeDegrees>-6.20713164098560810089111328125</LongitudeDegrees>
            </Position>
            <AltitudeMeters>403.20001220703125</AltitudeMeters>
            <DistanceMeters>NAN</DistanceMeters>
          </Trackpoint>
          <Trackpoint>
            <Time>2019-10-10T11:07:37.000Z</Time>
            <Position>
              <LatitudeDegrees>37.7979310043156147003173828125</LatitudeDegrees>
              <LongitudeDegrees>-6.20695008896291255950927734375</LongitudeDegrees>
            </Position>
            <AltitudeMeters>404.20001220703125</AltitudeMeters>
            <DistanceMeters>NAN</DistanceMeters>
          </Trackpoint>
          <Trackpoint>
            <Time>2019-10-10T11:07:40.000Z</Time>
            <Position>
              <LatitudeDegrees>37.79786235652863979339599609375</LatitudeDegrees>
              <LongitudeDegrees>-6.20685269124805927276611328125</LongitudeDegrees>
            </Position>
            <AltitudeMeters>404.600006103515625</AltitudeMeters>
            <DistanceMeters>NAN</DistanceMeters>
          </Trackpoint>
          <Trackpoint>
            <Time>2019-10-10T11:07:46.000Z</Time>
            <Position>
              <LatitudeDegrees>37.79772858135402202606201171875</LatitudeDegrees>
              <LongitudeDegrees>-6.2066556327044963836669921875</LongitudeDegrees>
            </Position>
            <AltitudeMeters>405.600006103515625</AltitudeMeters>
            <DistanceMeters>NAN</DistanceMeters>
          </Trackpoint>
          <Trackpoint>
            <Time>2019-10-10T11:07:49.000Z</Time>
            <Position>
              <LatitudeDegrees>37.79765884391963481903076171875</LatitudeDegrees>
              <LongitudeDegrees>-6.20656066574156284332275390625</LongitudeDegrees>
            </Position>
            <AltitudeMeters>405.79998779296875</AltitudeMeters>
            <DistanceMeters>NAN</DistanceMeters>
          </Trackpoint>
          <Trackpoint>
            <Time>2019-10-10T11:07:51.000Z</Time>
            <Position>
              <LatitudeDegrees>37.79761232435703277587890625</LatitudeDegrees>
              <LongitudeDegrees>-6.20649595744907855987548828125</LongitudeDegrees>
            </Position>
            <AltitudeMeters>406.399993896484375</AltitudeMeters>
            <DistanceMeters>NAN</DistanceMeters>
          </Trackpoint>
          <Trackpoint>
            <Time>2019-10-10T11:07:53.000Z</Time>
            <Position>
              <LatitudeDegrees>37.79756798408925533294677734375</LatitudeDegrees>
              <LongitudeDegrees>-6.20642387308180332183837890625</LongitudeDegrees>
            </Position>
            <AltitudeMeters>406.79998779296875</AltitudeMeters>
            <DistanceMeters>NAN</DistanceMeters>
          </Trackpoint>
          <Trackpoint>
            <Time>2019-10-10T11:08:00.000Z</Time>
            <Position>
              <LatitudeDegrees>37.79740135185420513153076171875</LatitudeDegrees>
              <LongitudeDegrees>-6.20617903769016265869140625</LongitudeDegrees>
            </Position>
            <AltitudeMeters>407.399993896484375</AltitudeMeters>
            <DistanceMeters>NAN</DistanceMeters>
          </Trackpoint>
          <Trackpoint>
            <Time>2019-10-10T11:08:10.000Z</Time>
            <Position>
              <LatitudeDegrees>37.79713078401982784271240234375</LatitudeDegrees>
              <LongitudeDegrees>-6.20577595196664333343505859375</LongitudeDegrees>
            </Position>
            <AltitudeMeters>406.399993896484375</AltitudeMeters>
            <DistanceMeters>NAN</DistanceMeters>
          </Trackpoint>
          <Trackpoint>
            <Time>2019-10-10T11:08:16.000Z</Time>
            <Position>
              <LatitudeDegrees>37.796936072409152984619140625</LatitudeDegrees>
              <LongitudeDegrees>-6.20546280406415462493896484375</LongitudeDegrees>
            </Position>
            <AltitudeMeters>405.399993896484375</AltitudeMeters>
            <DistanceMeters>NAN</DistanceMeters>
          </Trackpoint>
          <Trackpoint>
            <Time>2019-10-10T11:08:17.000Z</Time>
            <Position>
              <LatitudeDegrees>37.79689927585422992706298828125</LatitudeDegrees>
              <LongitudeDegrees>-6.20540748350322246551513671875</LongitudeDegrees>
            </Position>
            <AltitudeMeters>405.20001220703125</AltitudeMeters>
            <DistanceMeters>NAN</DistanceMeters>
          </Trackpoint>
          <Trackpoint>
            <Time>2019-10-10T11:08:19.000Z</Time>
            <Position>
              <LatitudeDegrees>37.79682115651667118072509765625</LatitudeDegrees>
              <LongitudeDegrees>-6.20529198087751865386962890625</LongitudeDegrees>
            </Position>
            <AltitudeMeters>404</AltitudeMeters>
            <DistanceMeters>NAN</DistanceMeters>
          </Trackpoint>
          <Trackpoint>
            <Time>2019-10-10T11:08:23.000Z</Time>
            <Position>
              <LatitudeDegrees>37.79666005633771419525146484375</LatitudeDegrees>
              <LongitudeDegrees>-6.205058209598064422607421875</LongitudeDegrees>
            </Position>
            <AltitudeMeters>402.600006103515625</AltitudeMeters>
            <DistanceMeters>NAN</DistanceMeters>
          </Trackpoint>
          <Trackpoint>
            <Time>2019-10-10T11:08:25.000Z</Time>
            <Position>
              <LatitudeDegrees>37.7965815179049968719482421875</LatitudeDegrees>
              <LongitudeDegrees>-6.20494329370558261871337890625</LongitudeDegrees>
            </Position>
            <AltitudeMeters>402.600006103515625</AltitudeMeters>
            <DistanceMeters>NAN</DistanceMeters>
          </Trackpoint>
          <Trackpoint>
            <Time>2019-10-10T11:08:29.000Z</Time>
            <Position>
              <LatitudeDegrees>37.79644288122653961181640625</LatitudeDegrees>
              <LongitudeDegrees>-6.20472930371761322021484375</LongitudeDegrees>
            </Position>
            <AltitudeMeters>403.20001220703125</AltitudeMeters>
            <DistanceMeters>NAN</DistanceMeters>
          </Trackpoint>
          <Trackpoint>
            <Time>2019-10-10T11:08:32.000Z</Time>
            <Position>
              <LatitudeDegrees>37.7963404543697834014892578125</LatitudeDegrees>
              <LongitudeDegrees>-6.20457700453698635101318359375</LongitudeDegrees>
            </Position>
            <AltitudeMeters>403.600006103515625</AltitudeMeters>
            <DistanceMeters>NAN</DistanceMeters>
          </Trackpoint>
          <Trackpoint>
            <Time>2019-10-10T11:08:33.000Z</Time>
            <Position>
              <LatitudeDegrees>37.79630701057612895965576171875</LatitudeDegrees>
              <LongitudeDegrees>-6.2045262940227985382080078125</LongitudeDegrees>
            </Position>
            <AltitudeMeters>404</AltitudeMeters>
            <DistanceMeters>NAN</DistanceMeters>
          </Trackpoint>
          <Trackpoint>
            <Time>2019-10-10T11:08:36.000Z</Time>
            <Position>
              <LatitudeDegrees>37.79620743356645107269287109375</LatitudeDegrees>
              <LongitudeDegrees>-6.2043744139373302459716796875</LongitudeDegrees>
            </Position>
            <AltitudeMeters>404.600006103515625</AltitudeMeters>
            <DistanceMeters>NAN</DistanceMeters>
          </Trackpoint>
          <Trackpoint>
            <Time>2019-10-10T11:08:42.000Z</Time>
            <Position>
              <LatitudeDegrees>37.796035520732402801513671875</LatitudeDegrees>
              <LongitudeDegrees>-6.2041082046926021575927734375</LongitudeDegrees>
            </Position>
            <AltitudeMeters>405.600006103515625</AltitudeMeters>
            <DistanceMeters>NAN</DistanceMeters>
          </Trackpoint>
          <Trackpoint>
            <Time>2019-10-10T11:08:43.000Z</Time>
            <Position>
              <LatitudeDegrees>37.7960085310041904449462890625</LatitudeDegrees>
              <LongitudeDegrees>-6.2040662951767444610595703125</LongitudeDegrees>
            </Position>
            <AltitudeMeters>405.79998779296875</AltitudeMeters>
            <DistanceMeters>NAN</DistanceMeters>
          </Trackpoint>
          <Trackpoint>
            <Time>2019-10-10T11:08:50.000Z</Time>
            <Position>
              <LatitudeDegrees>37.79580560512840747833251953125</LatitudeDegrees>
              <LongitudeDegrees>-6.2037739343941211700439453125</LongitudeDegrees>
            </Position>
            <AltitudeMeters>406.399993896484375</AltitudeMeters>
            <DistanceMeters>NAN</DistanceMeters>
          </Trackpoint>
          <Trackpoint>
            <Time>2019-10-10T11:08:56.000Z</Time>
            <Position>
              <LatitudeDegrees>37.7956192754209041595458984375</LatitudeDegrees>
              <LongitudeDegrees>-6.20354267768561840057373046875</LongitudeDegrees>
            </Position>
            <AltitudeMeters>407</AltitudeMeters>
            <DistanceMeters>NAN</DistanceMeters>
          </Trackpoint>
          <Trackpoint>
            <Time>2019-10-10T11:08:59.000Z</Time>
            <Position>
              <LatitudeDegrees>37.79552179388701915740966796875</LatitudeDegrees>
              <LongitudeDegrees>-6.2034332938492298126220703125</LongitudeDegrees>
            </Position>
            <AltitudeMeters>407.399993896484375</AltitudeMeters>
            <DistanceMeters>NAN</DistanceMeters>
          </Trackpoint>
          <Trackpoint>
            <Time>2019-10-10T11:09:07.000Z</Time>
            <Position>
              <LatitudeDegrees>37.795234881341457366943359375</LatitudeDegrees>
              <LongitudeDegrees>-6.203140430152416229248046875</LongitudeDegrees>
            </Position>
            <AltitudeMeters>408.20001220703125</AltitudeMeters>
            <DistanceMeters>NAN</DistanceMeters>
          </Trackpoint>
          <Trackpoint>
            <Time>2019-10-10T11:09:09.000Z</Time>
            <Position>
              <LatitudeDegrees>37.79515542089939117431640625</LatitudeDegrees>
              <LongitudeDegrees>-6.20306474156677722930908203125</LongitudeDegrees>
            </Position>
            <AltitudeMeters>407.600006103515625</AltitudeMeters>
            <DistanceMeters>NAN</DistanceMeters>
          </Trackpoint>
          <Trackpoint>
            <Time>2019-10-10T11:09:11.000Z</Time>
            <Position>
              <LatitudeDegrees>37.79507554136216640472412109375</LatitudeDegrees>
              <LongitudeDegrees>-6.20298628695309162139892578125</LongitudeDegrees>
            </Position>
            <AltitudeMeters>407</AltitudeMeters>
            <DistanceMeters>NAN</DistanceMeters>
          </Trackpoint>
          <Trackpoint>
            <Time>2019-10-10T11:09:18.000Z</Time>
            <Position>
              <LatitudeDegrees>37.79480380006134510040283203125</LatitudeDegrees>
              <LongitudeDegrees>-6.20267515070736408233642578125</LongitudeDegrees>
            </Position>
            <AltitudeMeters>406.79998779296875</AltitudeMeters>
            <DistanceMeters>NAN</DistanceMeters>
          </Trackpoint>
          <Trackpoint>
            <Time>2019-10-10T11:09:24.000Z</Time>
            <Position>
              <LatitudeDegrees>37.79461705125868320465087890625</LatitudeDegrees>
              <LongitudeDegrees>-6.20235244743525981903076171875</LongitudeDegrees>
            </Position>
            <AltitudeMeters>406</AltitudeMeters>
            <DistanceMeters>NAN</DistanceMeters>
          </Trackpoint>
          <Trackpoint>
            <Time>2019-10-10T11:09:25.000Z</Time>
            <Position>
              <LatitudeDegrees>37.79459123499691486358642578125</LatitudeDegrees>
              <LongitudeDegrees>-6.2022930197417736053466796875</LongitudeDegrees>
            </Position>
            <AltitudeMeters>406.399993896484375</AltitudeMeters>
            <DistanceMeters>NAN</DistanceMeters>
          </Trackpoint>
          <Trackpoint>
            <Time>2019-10-10T11:09:26.000Z</Time>
            <Position>
              <LatitudeDegrees>37.79456793330609798431396484375</LatitudeDegrees>
              <LongitudeDegrees>-6.20223023928701877593994140625</LongitudeDegrees>
            </Position>
            <AltitudeMeters>406.600006103515625</AltitudeMeters>
            <DistanceMeters>NAN</DistanceMeters>
          </Trackpoint>
          <Trackpoint>
            <Time>2019-10-10T11:09:28.000Z</Time>
            <Position>
              <LatitudeDegrees>37.79453021474182605743408203125</LatitudeDegrees>
              <LongitudeDegrees>-6.202108450233936309814453125</LongitudeDegrees>
            </Position>
            <AltitudeMeters>407.20001220703125</AltitudeMeters>
            <DistanceMeters>NAN</DistanceMeters>
          </Trackpoint>
          <Trackpoint>
            <Time>2019-10-10T11:09:31.000Z</Time>
            <Position>
              <LatitudeDegrees>37.794485874474048614501953125</LatitudeDegrees>
              <LongitudeDegrees>-6.201924718916416168212890625</LongitudeDegrees>
            </Position>
            <AltitudeMeters>407.79998779296875</AltitudeMeters>
            <DistanceMeters>NAN</DistanceMeters>
          </Trackpoint>
          <Trackpoint>
            <Time>2019-10-10T11:09:37.000Z</Time>
            <Position>
              <LatitudeDegrees>37.7944203279912471771240234375</LatitudeDegrees>
              <LongitudeDegrees>-6.20157326571643352508544921875</LongitudeDegrees>
            </Position>
            <AltitudeMeters>408.399993896484375</AltitudeMeters>
            <DistanceMeters>NAN</DistanceMeters>
          </Trackpoint>
          <Trackpoint>
            <Time>2019-10-10T11:09:40.000Z</Time>
            <Position>
              <LatitudeDegrees>37.7943884767591953277587890625</LatitudeDegrees>
              <LongitudeDegrees>-6.201401017606258392333984375</LongitudeDegrees>
            </Position>
            <AltitudeMeters>408.79998779296875</AltitudeMeters>
            <DistanceMeters>NAN</DistanceMeters>
          </Trackpoint>
          <Trackpoint>
            <Time>2019-10-10T11:09:45.000Z</Time>
            <Position>
              <LatitudeDegrees>37.7943432144820690155029296875</LatitudeDegrees>
              <LongitudeDegrees>-6.2011111713945865631103515625</LongitudeDegrees>
            </Position>
            <AltitudeMeters>409.399993896484375</AltitudeMeters>
            <DistanceMeters>NAN</DistanceMeters>
          </Trackpoint>
          <Trackpoint>
            <Time>2019-10-10T11:09:50.000Z</Time>
            <Position>
              <LatitudeDegrees>37.7942979522049427032470703125</LatitudeDegrees>
              <LongitudeDegrees>-6.20082937180995941162109375</LongitudeDegrees>
            </Position>
            <AltitudeMeters>409.79998779296875</AltitudeMeters>
            <DistanceMeters>NAN</DistanceMeters>
          </Trackpoint>
          <Trackpoint>
            <Time>2019-10-10T11:09:59.000Z</Time>
            <Position>
              <LatitudeDegrees>37.7942070923745632171630859375</LatitudeDegrees>
              <LongitudeDegrees>-6.20031782425940036773681640625</LongitudeDegrees>
            </Position>
            <AltitudeMeters>410.600006103515625</AltitudeMeters>
            <DistanceMeters>NAN</DistanceMeters>
          </Trackpoint>
          <Trackpoint>
            <Time>2019-10-10T11:10:01.000Z</Time>
            <Position>
              <LatitudeDegrees>37.79418773017823696136474609375</LatitudeDegrees>
              <LongitudeDegrees>-6.20020383037626743316650390625</LongitudeDegrees>
            </Position>
            <AltitudeMeters>410.79998779296875</AltitudeMeters>
            <DistanceMeters>NAN</DistanceMeters>
          </Trackpoint>
          <Trackpoint>
            <Time>2019-10-10T11:10:09.000Z</Time>
            <Position>
              <LatitudeDegrees>37.7940833754837512969970703125</LatitudeDegrees>
              <LongitudeDegrees>-6.19976243935525417327880859375</LongitudeDegrees>
            </Position>
            <AltitudeMeters>411.20001220703125</AltitudeMeters>
            <DistanceMeters>NAN</DistanceMeters>
          </Trackpoint>
          <Trackpoint>
            <Time>2019-10-10T11:10:10.000Z</Time>
            <Position>
              <LatitudeDegrees>37.794064767658710479736328125</LatitudeDegrees>
              <LongitudeDegrees>-6.19970845989882946014404296875</LongitudeDegrees>
            </Position>
            <AltitudeMeters>411.20001220703125</AltitudeMeters>
            <DistanceMeters>NAN</DistanceMeters>
          </Trackpoint>
          <Trackpoint>
            <Time>2019-10-10T11:10:11.000Z</Time>
            <Position>
              <LatitudeDegrees>37.7940456569194793701171875</LatitudeDegrees>
              <LongitudeDegrees>-6.1996564082801342010498046875</LongitudeDegrees>
            </Position>
            <AltitudeMeters>411.600006103515625</AltitudeMeters>
            <DistanceMeters>NAN</DistanceMeters>
          </Trackpoint>
          <Trackpoint>
            <Time>2019-10-10T11:10:18.000Z</Time>
            <Position>
              <LatitudeDegrees>37.793881706893444061279296875</LatitudeDegrees>
              <LongitudeDegrees>-6.19925416074693202972412109375</LongitudeDegrees>
            </Position>
            <AltitudeMeters>411.399993896484375</AltitudeMeters>
            <DistanceMeters>NAN</DistanceMeters>
          </Trackpoint>
          <Trackpoint>
            <Time>2019-10-10T11:10:23.000Z</Time>
            <Position>
              <LatitudeDegrees>37.79375656507909297943115234375</LatitudeDegrees>
              <LongitudeDegrees>-6.19895928539335727691650390625</LongitudeDegrees>
            </Position>
            <AltitudeMeters>410.600006103515625</AltitudeMeters>
            <DistanceMeters>NAN</DistanceMeters>
          </Trackpoint>
          <Trackpoint>
            <Time>2019-10-10T11:10:26.000Z</Time>
            <Position>
              <LatitudeDegrees>37.79367526061832904815673828125</LatitudeDegrees>
              <LongitudeDegrees>-6.19877739809453487396240234375</LongitudeDegrees>
            </Position>
            <AltitudeMeters>410.399993896484375</AltitudeMeters>
            <DistanceMeters>NAN</DistanceMeters>
          </Trackpoint>
          <Trackpoint>
            <Time>2019-10-10T11:10:33.000Z</Time>
            <Position>
              <LatitudeDegrees>37.79348440468311309814453125</LatitudeDegrees>
              <LongitudeDegrees>-6.1983521841466426849365234375</LongitudeDegrees>
            </Position>
            <AltitudeMeters>410.399993896484375</AltitudeMeters>
            <DistanceMeters>NAN</DistanceMeters>
          </Trackpoint>
          <Trackpoint>
            <Time>2019-10-10T11:10:36.000Z</Time>
            <Position>
              <LatitudeDegrees>37.7934046089649200439453125</LatitudeDegrees>
              <LongitudeDegrees>-6.19817054830491542816162109375</LongitudeDegrees>
            </Position>
            <AltitudeMeters>410.20001220703125</AltitudeMeters>
            <DistanceMeters>NAN</DistanceMeters>
          </Trackpoint>
          <Trackpoint>
            <Time>2019-10-10T11:10:41.000Z</Time>
            <Position>
              <LatitudeDegrees>37.79326337389647960662841796875</LatitudeDegrees>
              <LongitudeDegrees>-6.19785346090793609619140625</LongitudeDegrees>
            </Position>
            <AltitudeMeters>409.79998779296875</AltitudeMeters>
            <DistanceMeters>NAN</DistanceMeters>
          </Trackpoint>
          <Trackpoint>
            <Time>2019-10-10T11:10:43.000Z</Time>
            <Position>
              <LatitudeDegrees>37.79320285655558109283447265625</LatitudeDegrees>
              <LongitudeDegrees>-6.19771876372396945953369140625</LongitudeDegrees>
            </Position>
            <AltitudeMeters>409.600006103515625</AltitudeMeters>
            <DistanceMeters>NAN</DistanceMeters>
          </Trackpoint>
          <Trackpoint>
            <Time>2019-10-10T11:10:45.000Z</Time>
            <Position>
              <LatitudeDegrees>37.7931402437388896942138671875</LatitudeDegrees>
              <LongitudeDegrees>-6.197576858103275299072265625</LongitudeDegrees>
            </Position>
            <AltitudeMeters>409.399993896484375</AltitudeMeters>
            <DistanceMeters>NAN</DistanceMeters>
          </Trackpoint>
          <Trackpoint>
            <Time>2019-10-10T11:10:48.000Z</Time>
            <Position>
              <LatitudeDegrees>37.79304276220500469207763671875</LatitudeDegrees>
              <LongitudeDegrees>-6.19735322892665863037109375</LongitudeDegrees>
            </Position>
            <AltitudeMeters>408.20001220703125</AltitudeMeters>
            <DistanceMeters>NAN</DistanceMeters>
          </Trackpoint>
          <Trackpoint>
            <Time>2019-10-10T11:10:51.000Z</Time>
            <Position>
              <LatitudeDegrees>37.79293589293956756591796875</LatitudeDegrees>
              <LongitudeDegrees>-6.1971170268952846527099609375</LongitudeDegrees>
            </Position>
            <AltitudeMeters>407.20001220703125</AltitudeMeters>
            <DistanceMeters>NAN</DistanceMeters>
          </Trackpoint>
          <Trackpoint>
            <Time>2019-10-10T11:10:53.000Z</Time>
            <Position>
              <LatitudeDegrees>37.79286238364875316619873046875</LatitudeDegrees>
              <LongitudeDegrees>-6.1969560943543910980224609375</LongitudeDegrees>
            </Position>
            <AltitudeMeters>406.20001220703125</AltitudeMeters>
            <DistanceMeters>NAN</DistanceMeters>
          </Trackpoint>
          <Trackpoint>
            <Time>2019-10-10T11:10:56.000Z</Time>
            <Position>
              <LatitudeDegrees>37.7927523292601108551025390625</LatitudeDegrees>
              <LongitudeDegrees>-6.1967007815837860107421875</LongitudeDegrees>
            </Position>
            <AltitudeMeters>405</AltitudeMeters>
            <DistanceMeters>NAN</DistanceMeters>
          </Trackpoint>
          <Trackpoint>
            <Time>2019-10-10T11:10:57.000Z</Time>
            <Position>
              <LatitudeDegrees>37.7927144430577754974365234375</LatitudeDegrees>
              <LongitudeDegrees>-6.1966154538094997406005859375</LongitudeDegrees>
            </Position>
            <AltitudeMeters>404.600006103515625</AltitudeMeters>
            <DistanceMeters>NAN</DistanceMeters>
          </Trackpoint>
          <Trackpoint>
            <Time>2019-10-10T11:10:59.000Z</Time>
            <Position>
              <LatitudeDegrees>37.7926366589963436126708984375</LatitudeDegrees>
              <LongitudeDegrees>-6.19643817655742168426513671875</LongitudeDegrees>
            </Position>
            <AltitudeMeters>403.79998779296875</AltitudeMeters>
            <DistanceMeters>NAN</DistanceMeters>
          </Trackpoint>
          <Trackpoint>
            <Time>2019-10-10T11:11:03.000Z</Time>
            <Position>
              <LatitudeDegrees>37.79247312806546688079833984375</LatitudeDegrees>
              <LongitudeDegrees>-6.1960682831704616546630859375</LongitudeDegrees>
            </Position>
            <AltitudeMeters>402.399993896484375</AltitudeMeters>
            <DistanceMeters>NAN</DistanceMeters>
          </Trackpoint>
          <Trackpoint>
            <Time>2019-10-10T11:11:04.000Z</Time>
            <Position>
              <LatitudeDegrees>37.79243054799735546112060546875</LatitudeDegrees>
              <LongitudeDegrees>-6.19597180746495723724365234375</LongitudeDegrees>
            </Position>
            <AltitudeMeters>402.20001220703125</AltitudeMeters>
            <DistanceMeters>NAN</DistanceMeters>
          </Trackpoint>
          <Trackpoint>
            <Time>2019-10-10T11:11:05.000Z</Time>
            <Position>
              <LatitudeDegrees>37.79238729737699031829833984375</LatitudeDegrees>
              <LongitudeDegrees>-6.19587508030235767364501953125</LongitudeDegrees>
            </Position>
            <AltitudeMeters>401.600006103515625</AltitudeMeters>
            <DistanceMeters>NAN</DistanceMeters>
          </Trackpoint>
          <Trackpoint>
            <Time>2019-10-10T11:11:07.000Z</Time>
            <Position>
              <LatitudeDegrees>37.7923003770411014556884765625</LatitudeDegrees>
              <LongitudeDegrees>-6.19567793793976306915283203125</LongitudeDegrees>
            </Position>
            <AltitudeMeters>401.20001220703125</AltitudeMeters>
            <DistanceMeters>NAN</DistanceMeters>
          </Trackpoint>
          <Trackpoint>
            <Time>2019-10-10T11:11:08.000Z</Time>
            <Position>
              <LatitudeDegrees>37.792255617678165435791015625</LatitudeDegrees>
              <LongitudeDegrees>-6.19557852856814861297607421875</LongitudeDegrees>
            </Position>
            <AltitudeMeters>401</AltitudeMeters>
            <DistanceMeters>NAN</DistanceMeters>
          </Trackpoint>
          <Trackpoint>
            <Time>2019-10-10T11:11:09.000Z</Time>
            <Position>
              <LatitudeDegrees>37.792211361229419708251953125</LatitudeDegrees>
              <LongitudeDegrees>-6.19547895155847072601318359375</LongitudeDegrees>
            </Position>
            <AltitudeMeters>400</AltitudeMeters>
            <DistanceMeters>NAN</DistanceMeters>
          </Trackpoint>
          <Trackpoint>
            <Time>2019-10-10T11:11:13.000Z</Time>
            <Position>
              <LatitudeDegrees>37.79203173704445362091064453125</LatitudeDegrees>
              <LongitudeDegrees>-6.195077039301395416259765625</LongitudeDegrees>
            </Position>
            <AltitudeMeters>399.399993896484375</AltitudeMeters>
            <DistanceMeters>NAN</DistanceMeters>
          </Trackpoint>
          <Trackpoint>
            <Time>2019-10-10T11:11:14.000Z</Time>
            <Position>
              <LatitudeDegrees>37.79198764823377132415771484375</LatitudeDegrees>
              <LongitudeDegrees>-6.19497687555849552154541015625</LongitudeDegrees>
            </Position>
            <AltitudeMeters>399</AltitudeMeters>
            <DistanceMeters>NAN</DistanceMeters>
          </Trackpoint>
          <Trackpoint>
            <Time>2019-10-10T11:11:16.000Z</Time>
            <Position>
              <LatitudeDegrees>37.79189963825047016143798828125</LatitudeDegrees>
              <LongitudeDegrees>-6.19477520696818828582763671875</LongitudeDegrees>
            </Position>
            <AltitudeMeters>398.399993896484375</AltitudeMeters>
            <DistanceMeters>NAN</DistanceMeters>
          </Trackpoint>
          <Trackpoint>
            <Time>2019-10-10T11:11:18.000Z</Time>
            <Position>
              <LatitudeDegrees>37.7918108738958835601806640625</LatitudeDegrees>
              <LongitudeDegrees>-6.19457085616886615753173828125</LongitudeDegrees>
            </Position>
            <AltitudeMeters>397.399993896484375</AltitudeMeters>
            <DistanceMeters>NAN</DistanceMeters>
          </Trackpoint>
          <Trackpoint>
            <Time>2019-10-10T11:11:20.000Z</Time>
            <Position>
              <LatitudeDegrees>37.79172244481742382049560546875</LatitudeDegrees>
              <LongitudeDegrees>-6.1943731270730495452880859375</LongitudeDegrees>
            </Position>
            <AltitudeMeters>396.399993896484375</AltitudeMeters>
            <DistanceMeters>NAN</DistanceMeters>
          </Trackpoint>
          <Trackpoint>
            <Time>2019-10-10T11:11:27.000Z</Time>
            <Position>
              <LatitudeDegrees>37.79143922030925750732421875</LatitudeDegrees>
              <LongitudeDegrees>-6.1937324143946170806884765625</LongitudeDegrees>
            </Position>
            <AltitudeMeters>396.79998779296875</AltitudeMeters>
            <DistanceMeters>NAN</DistanceMeters>
          </Trackpoint>
          <Trackpoint>
            <Time>2019-10-10T11:11:30.000Z</Time>
            <Position>
              <LatitudeDegrees>37.79132531024515628814697265625</LatitudeDegrees>
              <LongitudeDegrees>-6.19347685016691684722900390625</LongitudeDegrees>
            </Position>
            <AltitudeMeters>396.79998779296875</AltitudeMeters>
            <DistanceMeters>NAN</DistanceMeters>
          </Trackpoint>
          <Trackpoint>
            <Time>2019-10-10T11:11:34.000Z</Time>
            <Position>
              <LatitudeDegrees>37.7911845780909061431884765625</LatitudeDegrees>
              <LongitudeDegrees>-6.1931550689041614532470703125</LongitudeDegrees>
            </Position>
            <AltitudeMeters>396.399993896484375</AltitudeMeters>
            <DistanceMeters>NAN</DistanceMeters>
          </Trackpoint>
          <Trackpoint>
            <Time>2019-10-10T11:11:35.000Z</Time>
            <Position>
              <LatitudeDegrees>37.7911542356014251708984375</LatitudeDegrees>
              <LongitudeDegrees>-6.193082146346569061279296875</LongitudeDegrees>
            </Position>
            <AltitudeMeters>396.600006103515625</AltitudeMeters>
            <DistanceMeters>NAN</DistanceMeters>
          </Trackpoint>
          <Trackpoint>
            <Time>2019-10-10T11:11:38.000Z</Time>
            <Position>
              <LatitudeDegrees>37.79106932692229747772216796875</LatitudeDegrees>
              <LongitudeDegrees>-6.19288860820233821868896484375</LongitudeDegrees>
            </Position>
            <AltitudeMeters>397.79998779296875</AltitudeMeters>
            <DistanceMeters>NAN</DistanceMeters>
          </Trackpoint>
          <Trackpoint>
            <Time>2019-10-10T11:11:41.000Z</Time>
            <Position>
              <LatitudeDegrees>37.79099489562213420867919921875</LatitudeDegrees>
              <LongitudeDegrees>-6.1927275918424129486083984375</LongitudeDegrees>
            </Position>
            <AltitudeMeters>399.600006103515625</AltitudeMeters>
            <DistanceMeters>NAN</DistanceMeters>
          </Trackpoint>
          <Trackpoint>
            <Time>2019-10-10T11:11:44.000Z</Time>
            <Position>
              <LatitudeDegrees>37.790929265320301055908203125</LatitudeDegrees>
              <LongitudeDegrees>-6.19258694350719451904296875</LongitudeDegrees>
            </Position>
            <AltitudeMeters>400.399993896484375</AltitudeMeters>
            <DistanceMeters>NAN</DistanceMeters>
          </Trackpoint>
          <Trackpoint>
            <Time>2019-10-10T11:11:46.000Z</Time>
            <Position>
              <LatitudeDegrees>37.79088794253766536712646484375</LatitudeDegrees>
              <LongitudeDegrees>-6.19249532930552959442138671875</LongitudeDegrees>
            </Position>
            <AltitudeMeters>400.600006103515625</AltitudeMeters>
            <DistanceMeters>NAN</DistanceMeters>
          </Trackpoint>
          <Trackpoint>
            <Time>2019-10-10T11:11:48.000Z</Time>
            <Position>
              <LatitudeDegrees>37.7908469550311565399169921875</LatitudeDegrees>
              <LongitudeDegrees>-6.19240455329418182373046875</LongitudeDegrees>
            </Position>
            <AltitudeMeters>401.399993896484375</AltitudeMeters>
            <DistanceMeters>NAN</DistanceMeters>
          </Trackpoint>
          <Trackpoint>
            <Time>2019-10-10T11:11:49.000Z</Time>
            <Position>
              <LatitudeDegrees>37.79082725755870342254638671875</LatitudeDegrees>
              <LongitudeDegrees>-6.19236038066446781158447265625</LongitudeDegrees>
            </Position>
            <AltitudeMeters>401.600006103515625</AltitudeMeters>
            <DistanceMeters>NAN</DistanceMeters>
          </Trackpoint>
          <Trackpoint>
            <Time>2019-10-10T11:11:50.000Z</Time>
            <Position>
              <LatitudeDegrees>37.7908067218959331512451171875</LatitudeDegrees>
              <LongitudeDegrees>-6.19231562130153179168701171875</LongitudeDegrees>
            </Position>
            <AltitudeMeters>401.79998779296875</AltitudeMeters>
            <DistanceMeters>NAN</DistanceMeters>
          </Trackpoint>
          <Trackpoint>
            <Time>2019-10-10T11:11:53.000Z</Time>
            <Position>
              <LatitudeDegrees>37.7907436899840831756591796875</LatitudeDegrees>
              <LongitudeDegrees>-6.19217245839536190032958984375</LongitudeDegrees>
            </Position>
            <AltitudeMeters>402.399993896484375</AltitudeMeters>
            <DistanceMeters>NAN</DistanceMeters>
          </Trackpoint>
          <Trackpoint>
            <Time>2019-10-10T11:11:55.000Z</Time>
            <Position>
              <LatitudeDegrees>37.79070052318274974822998046875</LatitudeDegrees>
              <LongitudeDegrees>-6.192082352936267852783203125</LongitudeDegrees>
            </Position>
            <AltitudeMeters>402.399993896484375</AltitudeMeters>
            <DistanceMeters>NAN</DistanceMeters>
          </Trackpoint>
          <Trackpoint>
            <Time>2019-10-10T11:11:56.000Z</Time>
            <Position>
              <LatitudeDegrees>37.79067873023450374603271484375</LatitudeDegrees>
              <LongitudeDegrees>-6.19203683920204639434814453125</LongitudeDegrees>
            </Position>
            <AltitudeMeters>402.600006103515625</AltitudeMeters>
            <DistanceMeters>NAN</DistanceMeters>
          </Trackpoint>
          <Trackpoint>
            <Time>2019-10-10T11:11:57.000Z</Time>
            <Position>
              <LatitudeDegrees>37.79065827839076519012451171875</LatitudeDegrees>
              <LongitudeDegrees>-6.19199149310588836669921875</LongitudeDegrees>
            </Position>
            <AltitudeMeters>402.79998779296875</AltitudeMeters>
            <DistanceMeters>NAN</DistanceMeters>
          </Trackpoint>
          <Trackpoint>
            <Time>2019-10-10T11:12:00.000Z</Time>
            <Position>
              <LatitudeDegrees>37.79059893451631069183349609375</LatitudeDegrees>
              <LongitudeDegrees>-6.1918491683900356292724609375</LongitudeDegrees>
            </Position>
            <AltitudeMeters>402.79998779296875</AltitudeMeters>
            <DistanceMeters>NAN</DistanceMeters>
          </Trackpoint>
          <Trackpoint>
            <Time>2019-10-10T11:12:04.000Z</Time>
            <Position>
              <LatitudeDegrees>37.7905146963894367218017578125</LatitudeDegrees>
              <LongitudeDegrees>-6.1916537024080753326416015625</LongitudeDegrees>
            </Position>
            <AltitudeMeters>403</AltitudeMeters>
            <DistanceMeters>NAN</DistanceMeters>
          </Trackpoint>
          <Trackpoint>
            <Time>2019-10-10T11:12:07.000Z</Time>
            <Position>
              <LatitudeDegrees>37.790447138249874114990234375</LatitudeDegrees>
              <LongitudeDegrees>-6.1915004812180995941162109375</LongitudeDegrees>
            </Position>
            <AltitudeMeters>403</AltitudeMeters>
            <DistanceMeters>NAN</DistanceMeters>
          </Trackpoint>
          <Trackpoint>
            <Time>2019-10-10T11:12:15.000Z</Time>
            <Position>
              <LatitudeDegrees>37.79024186544120311737060546875</LatitudeDegrees>
              <LongitudeDegrees>-6.19104006327688694000244140625</LongitudeDegrees>
            </Position>
            <AltitudeMeters>401.399993896484375</AltitudeMeters>
            <DistanceMeters>NAN</DistanceMeters>
          </Trackpoint>
          <Trackpoint>
            <Time>2019-10-10T11:12:23.000Z</Time>
            <Position>
              <LatitudeDegrees>37.7900131233036518096923828125</LatitudeDegrees>
              <LongitudeDegrees>-6.19053463451564311981201171875</LongitudeDegrees>
            </Position>
            <AltitudeMeters>400.79998779296875</AltitudeMeters>
            <DistanceMeters>NAN</DistanceMeters>
          </Trackpoint>
          <Trackpoint>
            <Time>2019-10-10T11:12:27.000Z</Time>
            <Position>
              <LatitudeDegrees>37.78988395817577838897705078125</LatitudeDegrees>
              <LongitudeDegrees>-6.19025518186390399932861328125</LongitudeDegrees>
            </Position>
            <AltitudeMeters>400</AltitudeMeters>
            <DistanceMeters>NAN</DistanceMeters>
          </Trackpoint>
          <Trackpoint>
            <Time>2019-10-10T11:12:30.000Z</Time>
            <Position>
              <LatitudeDegrees>37.7897809445858001708984375</LatitudeDegrees>
              <LongitudeDegrees>-6.19003725238144397735595703125</LongitudeDegrees>
            </Position>
            <AltitudeMeters>399</AltitudeMeters>
            <DistanceMeters>NAN</DistanceMeters>
          </Trackpoint>
          <Trackpoint>
            <Time>2019-10-10T11:12:31.000Z</Time>
            <Position>
              <LatitudeDegrees>37.789743728935718536376953125</LatitudeDegrees>
              <LongitudeDegrees>-6.1899629049003124237060546875</LongitudeDegrees>
            </Position>
            <AltitudeMeters>398.79998779296875</AltitudeMeters>
            <DistanceMeters>NAN</DistanceMeters>
          </Trackpoint>
          <Trackpoint>
            <Time>2019-10-10T11:12:36.000Z</Time>
            <Position>
              <LatitudeDegrees>37.78952873311936855316162109375</LatitudeDegrees>
              <LongitudeDegrees>-6.18959669955074787139892578125</LongitudeDegrees>
            </Position>
            <AltitudeMeters>397.79998779296875</AltitudeMeters>
            <DistanceMeters>NAN</DistanceMeters>
          </Trackpoint>
          <Trackpoint>
            <Time>2019-10-10T11:12:38.000Z</Time>
            <Position>
              <LatitudeDegrees>37.78943267650902271270751953125</LatitudeDegrees>
              <LongitudeDegrees>-6.18945051915943622589111328125</LongitudeDegrees>
            </Position>
            <AltitudeMeters>397.20001220703125</AltitudeMeters>
            <DistanceMeters>NAN</DistanceMeters>
          </Trackpoint>
          <Trackpoint>
            <Time>2019-10-10T11:12:40.000Z</Time>
            <Position>
              <LatitudeDegrees>37.78932832181453704833984375</LatitudeDegrees>
              <LongitudeDegrees>-6.189303584396839141845703125</LongitudeDegrees>
            </Position>
            <AltitudeMeters>396.399993896484375</AltitudeMeters>
            <DistanceMeters>NAN</DistanceMeters>
          </Trackpoint>
          <Trackpoint>
            <Time>2019-10-10T11:12:44.000Z</Time>
            <Position>
              <LatitudeDegrees>37.78910703957080841064453125</LatitudeDegrees>
              <LongitudeDegrees>-6.18900359608232975006103515625</LongitudeDegrees>
            </Position>
            <AltitudeMeters>395.399993896484375</AltitudeMeters>
            <DistanceMeters>NAN</DistanceMeters>
          </Trackpoint>
          <Trackpoint>
            <Time>2019-10-10T11:12:45.000Z</Time>
            <Position>
              <LatitudeDegrees>37.789051048457622528076171875</LatitudeDegrees>
              <LongitudeDegrees>-6.1889289133250713348388671875</LongitudeDegrees>
            </Position>
            <AltitudeMeters>395</AltitudeMeters>
            <DistanceMeters>NAN</DistanceMeters>
          </Trackpoint>
          <Trackpoint>
            <Time>2019-10-10T11:12:46.000Z</Time>
            <Position>
              <LatitudeDegrees>37.7889938838779926300048828125</LatitudeDegrees>
              <LongitudeDegrees>-6.1888548173010349273681640625</LongitudeDegrees>
            </Position>
            <AltitudeMeters>394.600006103515625</AltitudeMeters>
            <DistanceMeters>NAN</DistanceMeters>
          </Trackpoint>
          <Trackpoint>
            <Time>2019-10-10T11:12:51.000Z</Time>
            <Position>
              <LatitudeDegrees>37.7887132577598094940185546875</LatitudeDegrees>
              <LongitudeDegrees>-6.18849799968302249908447265625</LongitudeDegrees>
            </Position>
            <AltitudeMeters>394.20001220703125</AltitudeMeters>
            <DistanceMeters>NAN</DistanceMeters>
          </Trackpoint>
          <Trackpoint>
            <Time>2019-10-10T11:12:52.000Z</Time>
            <Position>
              <LatitudeDegrees>37.78865508735179901123046875</LatitudeDegrees>
              <LongitudeDegrees>-6.18842910043895244598388671875</LongitudeDegrees>
            </Position>
            <AltitudeMeters>393.600006103515625</AltitudeMeters>
            <DistanceMeters>NAN</DistanceMeters>
          </Trackpoint>
          <Trackpoint>
            <Time>2019-10-10T11:12:54.000Z</Time>
            <Position>
              <LatitudeDegrees>37.788536734879016876220703125</LatitudeDegrees>
              <LongitudeDegrees>-6.18829314596951007843017578125</LongitudeDegrees>
            </Position>
            <AltitudeMeters>393.600006103515625</AltitudeMeters>
            <DistanceMeters>NAN</DistanceMeters>
          </Trackpoint>
          <Trackpoint>
            <Time>2019-10-10T11:12:57.000Z</Time>
            <Position>
              <LatitudeDegrees>37.78835928998887538909912109375</LatitudeDegrees>
              <LongitudeDegrees>-6.18808577768504619598388671875</LongitudeDegrees>
            </Position>
            <AltitudeMeters>392.399993896484375</AltitudeMeters>
            <DistanceMeters>NAN</DistanceMeters>
          </Trackpoint>
          <Trackpoint>
            <Time>2019-10-10T11:12:59.000Z</Time>
            <Position>
              <LatitudeDegrees>37.78823976404964923858642578125</LatitudeDegrees>
              <LongitudeDegrees>-6.18794663809239864349365234375</LongitudeDegrees>
            </Position>
            <AltitudeMeters>392.79998779296875</AltitudeMeters>
            <DistanceMeters>NAN</DistanceMeters>
          </Trackpoint>
          <Trackpoint>
            <Time>2019-10-10T11:13:01.000Z</Time>
            <Position>
              <LatitudeDegrees>37.78811722062528133392333984375</LatitudeDegrees>
              <LongitudeDegrees>-6.1878070794045925140380859375</LongitudeDegrees>
            </Position>
            <AltitudeMeters>392.20001220703125</AltitudeMeters>
            <DistanceMeters>NAN</DistanceMeters>
          </Trackpoint>
          <Trackpoint>
            <Time>2019-10-10T11:13:02.000Z</Time>
            <Position>
              <LatitudeDegrees>37.788055948913097381591796875</LatitudeDegrees>
              <LongitudeDegrees>-6.18773742578923702239990234375</LongitudeDegrees>
            </Position>
            <AltitudeMeters>392</AltitudeMeters>
            <DistanceMeters>NAN</DistanceMeters>
          </Trackpoint>
          <Trackpoint>
            <Time>2019-10-10T11:13:04.000Z</Time>
            <Position>
              <LatitudeDegrees>37.78793432749807834625244140625</LatitudeDegrees>
              <LongitudeDegrees>-6.1875975318253040313720703125</LongitudeDegrees>
            </Position>
            <AltitudeMeters>391.399993896484375</AltitudeMeters>
            <DistanceMeters>NAN</DistanceMeters>
          </Trackpoint>
          <Trackpoint>
            <Time>2019-10-10T11:13:07.000Z</Time>
            <Position>
              <LatitudeDegrees>37.787754870951175689697265625</LatitudeDegrees>
              <LongitudeDegrees>-6.18739527650177478790283203125</LongitudeDegrees>
            </Position>
            <AltitudeMeters>391.20001220703125</AltitudeMeters>
            <DistanceMeters>NAN</DistanceMeters>
          </Trackpoint>
          <Trackpoint>
            <Time>2019-10-10T11:13:11.000Z</Time>
            <Position>
              <LatitudeDegrees>37.78751514852046966552734375</LatitudeDegrees>
              <LongitudeDegrees>-6.18713342584669589996337890625</LongitudeDegrees>
            </Position>
            <AltitudeMeters>390.79998779296875</AltitudeMeters>
            <DistanceMeters>NAN</DistanceMeters>
          </Trackpoint>
          <Trackpoint>
            <Time>2019-10-10T11:13:12.000Z</Time>
            <Position>
              <LatitudeDegrees>37.78745320625603199005126953125</LatitudeDegrees>
              <LongitudeDegrees>-6.18706838227808475494384765625</LongitudeDegrees>
            </Position>
            <AltitudeMeters>390.399993896484375</AltitudeMeters>
            <DistanceMeters>NAN</DistanceMeters>
          </Trackpoint>
          <Trackpoint>
            <Time>2019-10-10T11:13:13.000Z</Time>
            <Position>
              <LatitudeDegrees>37.78738916851580142974853515625</LatitudeDegrees>
              <LongitudeDegrees>-6.1870019137859344482421875</LongitudeDegrees>
            </Position>
            <AltitudeMeters>390</AltitudeMeters>
            <DistanceMeters>NAN</DistanceMeters>
          </Trackpoint>
          <Trackpoint>
            <Time>2019-10-10T11:13:16.000Z</Time>
            <Position>
              <LatitudeDegrees>37.78719060122966766357421875</LatitudeDegrees>
              <LongitudeDegrees>-6.18679027073085308074951171875</LongitudeDegrees>
            </Position>
            <AltitudeMeters>388.79998779296875</AltitudeMeters>
            <DistanceMeters>NAN</DistanceMeters>
          </Trackpoint>
          <Trackpoint>
            <Time>2019-10-10T11:13:18.000Z</Time>
            <Position>
              <LatitudeDegrees>37.78705179691314697265625</LatitudeDegrees>
              <LongitudeDegrees>-6.1866433359682559967041015625</LongitudeDegrees>
            </Position>
            <AltitudeMeters>387.600006103515625</AltitudeMeters>
            <DistanceMeters>NAN</DistanceMeters>
          </Trackpoint>
          <Trackpoint>
            <Time>2019-10-10T11:13:19.000Z</Time>
            <Position>
              <LatitudeDegrees>37.786979712545871734619140625</LatitudeDegrees>
              <LongitudeDegrees>-6.18656781502068042755126953125</LongitudeDegrees>
            </Position>
            <AltitudeMeters>387.600006103515625</AltitudeMeters>
            <DistanceMeters>NAN</DistanceMeters>
          </Trackpoint>
          <Trackpoint>
            <Time>2019-10-10T11:13:22.000Z</Time>
            <Position>
              <LatitudeDegrees>37.7867575921118259429931640625</LatitudeDegrees>
              <LongitudeDegrees>-6.18633211590349674224853515625</LongitudeDegrees>
            </Position>
            <AltitudeMeters>385.399993896484375</AltitudeMeters>
            <DistanceMeters>NAN</DistanceMeters>
          </Trackpoint>
          <Trackpoint>
            <Time>2019-10-10T11:13:24.000Z</Time>
            <Position>
              <LatitudeDegrees>37.7866040356457233428955078125</LatitudeDegrees>
              <LongitudeDegrees>-6.18616950698196887969970703125</LongitudeDegrees>
            </Position>
            <AltitudeMeters>384.20001220703125</AltitudeMeters>
            <DistanceMeters>NAN</DistanceMeters>
          </Trackpoint>
          <Trackpoint>
            <Time>2019-10-10T11:13:26.000Z</Time>
            <Position>
              <LatitudeDegrees>37.78644561767578125</LatitudeDegrees>
              <LongitudeDegrees>-6.18600538931787014007568359375</LongitudeDegrees>
            </Position>
            <AltitudeMeters>383</AltitudeMeters>
            <DistanceMeters>NAN</DistanceMeters>
          </Trackpoint>
          <Trackpoint>
            <Time>2019-10-10T11:13:28.000Z</Time>
            <Position>
              <LatitudeDegrees>37.786285020411014556884765625</LatitudeDegrees>
              <LongitudeDegrees>-6.1858400143682956695556640625</LongitudeDegrees>
            </Position>
            <AltitudeMeters>382.20001220703125</AltitudeMeters>
            <DistanceMeters>NAN</DistanceMeters>
          </Trackpoint>
          <Trackpoint>
            <Time>2019-10-10T11:13:29.000Z</Time>
            <Position>
              <LatitudeDegrees>37.7862030453979969024658203125</LatitudeDegrees>
              <LongitudeDegrees>-6.1857565306127071380615234375</LongitudeDegrees>
            </Position>
            <AltitudeMeters>381.399993896484375</AltitudeMeters>
            <DistanceMeters>NAN</DistanceMeters>
          </Trackpoint>
          <Trackpoint>
            <Time>2019-10-10T11:13:33.000Z</Time>
            <Position>
              <LatitudeDegrees>37.78587891720235347747802734375</LatitudeDegrees>
              <LongitudeDegrees>-6.185419745743274688720703125</LongitudeDegrees>
            </Position>
            <AltitudeMeters>379.79998779296875</AltitudeMeters>
            <DistanceMeters>NAN</DistanceMeters>
          </Trackpoint>
          <Trackpoint>
            <Time>2019-10-10T11:13:35.000Z</Time>
            <Position>
              <LatitudeDegrees>37.7857199124991893768310546875</LatitudeDegrees>
              <LongitudeDegrees>-6.18525319732725620269775390625</LongitudeDegrees>
            </Position>
            <AltitudeMeters>378.600006103515625</AltitudeMeters>
            <DistanceMeters>NAN</DistanceMeters>
          </Trackpoint>
          <Trackpoint>
            <Time>2019-10-10T11:13:37.000Z</Time>
            <Position>
              <LatitudeDegrees>37.78555973432958126068115234375</LatitudeDegrees>
              <LongitudeDegrees>-6.1850953660905361175537109375</LongitudeDegrees>
            </Position>
            <AltitudeMeters>378</AltitudeMeters>
            <DistanceMeters>NAN</DistanceMeters>
          </Trackpoint>
          <Trackpoint>
            <Time>2019-10-10T11:13:39.000Z</Time>
            <Position>
              <LatitudeDegrees>37.7853997237980365753173828125</LatitudeDegrees>
              <LongitudeDegrees>-6.184951364994049072265625</LongitudeDegrees>
            </Position>
            <AltitudeMeters>378.20001220703125</AltitudeMeters>
            <DistanceMeters>NAN</DistanceMeters>
          </Trackpoint>
          <Trackpoint>
            <Time>2019-10-10T11:13:40.000Z</Time>
            <Position>
              <LatitudeDegrees>37.78531498275697231292724609375</LatitudeDegrees>
              <LongitudeDegrees>-6.18489244021475315093994140625</LongitudeDegrees>
            </Position>
            <AltitudeMeters>377.600006103515625</AltitudeMeters>
            <DistanceMeters>NAN</DistanceMeters>
          </Trackpoint>
          <Trackpoint>
            <Time>2019-10-10T11:13:41.000Z</Time>
            <Position>
              <LatitudeDegrees>37.785229571163654327392578125</LatitudeDegrees>
              <LongitudeDegrees>-6.18483527563512325286865234375</LongitudeDegrees>
            </Position>
            <AltitudeMeters>376.79998779296875</AltitudeMeters>
            <DistanceMeters>NAN</DistanceMeters>
          </Trackpoint>
          <Trackpoint>
            <Time>2019-10-10T11:13:42.000Z</Time>
            <Position>
              <LatitudeDegrees>37.78514466248452663421630859375</LatitudeDegrees>
              <LongitudeDegrees>-6.1847788654267787933349609375</LongitudeDegrees>
            </Position>
            <AltitudeMeters>376.20001220703125</AltitudeMeters>
            <DistanceMeters>NAN</DistanceMeters>
          </Trackpoint>
          <Trackpoint>
            <Time>2019-10-10T11:13:46.000Z</Time>
            <Position>
              <LatitudeDegrees>37.7848143316805362701416015625</LatitudeDegrees>
              <LongitudeDegrees>-6.1845652945339679718017578125</LongitudeDegrees>
            </Position>
            <AltitudeMeters>376.79998779296875</AltitudeMeters>
            <DistanceMeters>NAN</DistanceMeters>
          </Trackpoint>
          <Trackpoint>
            <Time>2019-10-10T11:13:48.000Z</Time>
            <Position>
              <LatitudeDegrees>37.7846574224531650543212890625</LatitudeDegrees>
              <LongitudeDegrees>-6.18446647189557552337646484375</LongitudeDegrees>
            </Position>
            <AltitudeMeters>376</AltitudeMeters>
            <DistanceMeters>NAN</DistanceMeters>
          </Trackpoint>
          <Trackpoint>
            <Time>2019-10-10T11:13:49.000Z</Time>
            <Position>
              <LatitudeDegrees>37.784581482410430908203125</LatitudeDegrees>
              <LongitudeDegrees>-6.18441903032362461090087890625</LongitudeDegrees>
            </Position>
            <AltitudeMeters>376</AltitudeMeters>
            <DistanceMeters>NAN</DistanceMeters>
          </Trackpoint>
          <Trackpoint>
            <Time>2019-10-10T11:13:51.000Z</Time>
            <Position>
              <LatitudeDegrees>37.78443555347621440887451171875</LatitudeDegrees>
              <LongitudeDegrees>-6.18432599119842052459716796875</LongitudeDegrees>
            </Position>
            <AltitudeMeters>376.20001220703125</AltitudeMeters>
            <DistanceMeters>NAN</DistanceMeters>
          </Trackpoint>
          <Trackpoint>
            <Time>2019-10-10T11:13:52.000Z</Time>
            <Position>
              <LatitudeDegrees>37.78436564840376377105712890625</LatitudeDegrees>
              <LongitudeDegrees>-6.18428190238773822784423828125</LongitudeDegrees>
            </Position>
            <AltitudeMeters>376.399993896484375</AltitudeMeters>
            <DistanceMeters>NAN</DistanceMeters>
          </Trackpoint>
          <Trackpoint>
            <Time>2019-10-10T11:13:56.000Z</Time>
            <Position>
              <LatitudeDegrees>37.784104049205780029296875</LatitudeDegrees>
              <LongitudeDegrees>-6.18412096984684467315673828125</LongitudeDegrees>
            </Position>
            <AltitudeMeters>377.20001220703125</AltitudeMeters>
            <DistanceMeters>NAN</DistanceMeters>
          </Trackpoint>
          <Trackpoint>
            <Time>2019-10-10T11:13:57.000Z</Time>
            <Position>
              <LatitudeDegrees>37.7840448729693889617919921875</LatitudeDegrees>
              <LongitudeDegrees>-6.184084005653858184814453125</LongitudeDegrees>
            </Position>
            <AltitudeMeters>377.600006103515625</AltitudeMeters>
            <DistanceMeters>NAN</DistanceMeters>
          </Trackpoint>
          <Trackpoint>
            <Time>2019-10-10T11:13:59.000Z</Time>
            <Position>
              <LatitudeDegrees>37.78393398039042949676513671875</LatitudeDegrees>
              <LongitudeDegrees>-6.18401594460010528564453125</LongitudeDegrees>
            </Position>
            <AltitudeMeters>378.20001220703125</AltitudeMeters>
            <DistanceMeters>NAN</DistanceMeters>
          </Trackpoint>
          <Trackpoint>
            <Time>2019-10-10T11:14:01.000Z</Time>
            <Position>
              <LatitudeDegrees>37.78383272700011730194091796875</LatitudeDegrees>
              <LongitudeDegrees>-6.183954589068889617919921875</LongitudeDegrees>
            </Position>
            <AltitudeMeters>378.399993896484375</AltitudeMeters>
            <DistanceMeters>NAN</DistanceMeters>
          </Trackpoint>
          <Trackpoint>
            <Time>2019-10-10T11:14:02.000Z</Time>
            <Position>
              <LatitudeDegrees>37.7837860397994518280029296875</LatitudeDegrees>
              <LongitudeDegrees>-6.18392449803650379180908203125</LongitudeDegrees>
            </Position>
            <AltitudeMeters>378.600006103515625</AltitudeMeters>
            <DistanceMeters>NAN</DistanceMeters>
          </Trackpoint>
          <Trackpoint>
            <Time>2019-10-10T11:14:04.000Z</Time>
            <Position>
              <LatitudeDegrees>37.783695347607135772705078125</LatitudeDegrees>
              <LongitudeDegrees>-6.18386574089527130126953125</LongitudeDegrees>
            </Position>
            <AltitudeMeters>379.600006103515625</AltitudeMeters>
            <DistanceMeters>NAN</DistanceMeters>
          </Trackpoint>
          <Trackpoint>
            <Time>2019-10-10T11:14:07.000Z</Time>
            <Position>
              <LatitudeDegrees>37.7835721336305141448974609375</LatitudeDegrees>
              <LongitudeDegrees>-6.18379021994769573211669921875</LongitudeDegrees>
            </Position>
            <AltitudeMeters>379.79998779296875</AltitudeMeters>
            <DistanceMeters>NAN</DistanceMeters>
          </Trackpoint>
          <Trackpoint>
            <Time>2019-10-10T11:14:09.000Z</Time>
            <Position>
              <LatitudeDegrees>37.78349585831165313720703125</LatitudeDegrees>
              <LongitudeDegrees>-6.1837398447096347808837890625</LongitudeDegrees>
            </Position>
            <AltitudeMeters>380.20001220703125</AltitudeMeters>
            <DistanceMeters>NAN</DistanceMeters>
          </Trackpoint>
          <Trackpoint>
            <Time>2019-10-10T11:14:10.000Z</Time>
            <Position>
              <LatitudeDegrees>37.78345755301415920257568359375</LatitudeDegrees>
              <LongitudeDegrees>-6.1837173812091350555419921875</LongitudeDegrees>
            </Position>
            <AltitudeMeters>380.79998779296875</AltitudeMeters>
            <DistanceMeters>NAN</DistanceMeters>
          </Trackpoint>
          <Trackpoint>
            <Time>2019-10-10T11:14:13.000Z</Time>
            <Position>
              <LatitudeDegrees>37.783345989882946014404296875</LatitudeDegrees>
              <LongitudeDegrees>-6.18364973925054073333740234375</LongitudeDegrees>
            </Position>
            <AltitudeMeters>381</AltitudeMeters>
            <DistanceMeters>NAN</DistanceMeters>
          </Trackpoint>
          <Trackpoint>
            <Time>2019-10-10T11:14:16.000Z</Time>
            <Position>
              <LatitudeDegrees>37.78323568403720855712890625</LatitudeDegrees>
              <LongitudeDegrees>-6.18357882834970951080322265625</LongitudeDegrees>
            </Position>
            <AltitudeMeters>381.399993896484375</AltitudeMeters>
            <DistanceMeters>NAN</DistanceMeters>
          </Trackpoint>
          <Trackpoint>
            <Time>2019-10-10T11:14:17.000Z</Time>
            <Position>
              <LatitudeDegrees>37.78320006094872951507568359375</LatitudeDegrees>
              <LongitudeDegrees>-6.18355770595371723175048828125</LongitudeDegrees>
            </Position>
            <AltitudeMeters>381.399993896484375</AltitudeMeters>
            <DistanceMeters>NAN</DistanceMeters>
          </Trackpoint>
          <Trackpoint>
            <Time>2019-10-10T11:14:20.000Z</Time>
            <Position>
              <LatitudeDegrees>37.7830943651497364044189453125</LatitudeDegrees>
              <LongitudeDegrees>-6.18349215947091579437255859375</LongitudeDegrees>
            </Position>
            <AltitudeMeters>382</AltitudeMeters>
            <DistanceMeters>NAN</DistanceMeters>
          </Trackpoint>
          <Trackpoint>
            <Time>2019-10-10T11:14:23.000Z</Time>
            <Position>
              <LatitudeDegrees>37.7829904295504093170166015625</LatitudeDegrees>
              <LongitudeDegrees>-6.18342527188360691070556640625</LongitudeDegrees>
            </Position>
            <AltitudeMeters>382.399993896484375</AltitudeMeters>
            <DistanceMeters>NAN</DistanceMeters>
          </Trackpoint>
          <Trackpoint>
            <Time>2019-10-10T11:14:25.000Z</Time>
            <Position>
              <LatitudeDegrees>37.78292111121118068695068359375</LatitudeDegrees>
              <LongitudeDegrees>-6.18338403292000293731689453125</LongitudeDegrees>
            </Position>
            <AltitudeMeters>383.20001220703125</AltitudeMeters>
            <DistanceMeters>NAN</DistanceMeters>
          </Trackpoint>
          <Trackpoint>
            <Time>2019-10-10T11:14:30.000Z</Time>
            <Position>
              <LatitudeDegrees>37.78274877928197383880615234375</LatitudeDegrees>
              <LongitudeDegrees>-6.183269955217838287353515625</LongitudeDegrees>
            </Position>
            <AltitudeMeters>384</AltitudeMeters>
            <DistanceMeters>NAN</DistanceMeters>
          </Trackpoint>
          <Trackpoint>
            <Time>2019-10-10T11:14:31.000Z</Time>
            <Position>
              <LatitudeDegrees>37.78271407820284366607666015625</LatitudeDegrees>
              <LongitudeDegrees>-6.1832500062882900238037109375</LongitudeDegrees>
            </Position>
            <AltitudeMeters>384.20001220703125</AltitudeMeters>
            <DistanceMeters>NAN</DistanceMeters>
          </Trackpoint>
          <Trackpoint>
            <Time>2019-10-10T11:14:32.000Z</Time>
            <Position>
              <LatitudeDegrees>37.78267954476177692413330078125</LatitudeDegrees>
              <LongitudeDegrees>-6.1832288838922977447509765625</LongitudeDegrees>
            </Position>
            <AltitudeMeters>384.399993896484375</AltitudeMeters>
            <DistanceMeters>NAN</DistanceMeters>
          </Trackpoint>
          <Trackpoint>
            <Time>2019-10-10T11:14:38.000Z</Time>
            <Position>
              <LatitudeDegrees>37.782482318580150604248046875</LatitudeDegrees>
              <LongitudeDegrees>-6.18309385143220424652099609375</LongitudeDegrees>
            </Position>
            <AltitudeMeters>385.600006103515625</AltitudeMeters>
            <DistanceMeters>NAN</DistanceMeters>
          </Trackpoint>
          <Trackpoint>
            <Time>2019-10-10T11:14:40.000Z</Time>
            <Position>
              <LatitudeDegrees>37.78241082094609737396240234375</LatitudeDegrees>
              <LongitudeDegrees>-6.18304993025958538055419921875</LongitudeDegrees>
            </Position>
            <AltitudeMeters>385.79998779296875</AltitudeMeters>
            <DistanceMeters>NAN</DistanceMeters>
          </Trackpoint>
          <Trackpoint>
            <Time>2019-10-10T11:14:48.000Z</Time>
            <Position>
              <LatitudeDegrees>37.78212524950504302978515625</LatitudeDegrees>
              <LongitudeDegrees>-6.18285764940083026885986328125</LongitudeDegrees>
            </Position>
            <AltitudeMeters>386.399993896484375</AltitudeMeters>
            <DistanceMeters>NAN</DistanceMeters>
          </Trackpoint>
          <Trackpoint>
            <Time>2019-10-10T11:14:50.000Z</Time>
            <Position>
              <LatitudeDegrees>37.78205408714711666107177734375</LatitudeDegrees>
              <LongitudeDegrees>-6.182804591953754425048828125</LongitudeDegrees>
            </Position>
            <AltitudeMeters>386.79998779296875</AltitudeMeters>
            <DistanceMeters>NAN</DistanceMeters>
          </Trackpoint>
          <Trackpoint>
            <Time>2019-10-10T11:14:58.000Z</Time>
            <Position>
              <LatitudeDegrees>37.78176373802125453948974609375</LatitudeDegrees>
              <LongitudeDegrees>-6.1825932003557682037353515625</LongitudeDegrees>
            </Position>
            <AltitudeMeters>387.20001220703125</AltitudeMeters>
            <DistanceMeters>NAN</DistanceMeters>
          </Trackpoint>
          <Trackpoint>
            <Time>2019-10-10T11:15:10.000Z</Time>
            <Position>
              <LatitudeDegrees>37.78130927123129367828369140625</LatitudeDegrees>
              <LongitudeDegrees>-6.182217188179492950439453125</LongitudeDegrees>
            </Position>
            <AltitudeMeters>386.79998779296875</AltitudeMeters>
            <DistanceMeters>NAN</DistanceMeters>
          </Trackpoint>
          <Trackpoint>
            <Time>2019-10-10T11:15:17.000Z</Time>
            <Position>
              <LatitudeDegrees>37.781004421412944793701171875</LatitudeDegrees>
              <LongitudeDegrees>-6.1819513142108917236328125</LongitudeDegrees>
            </Position>
            <AltitudeMeters>386.399993896484375</AltitudeMeters>
            <DistanceMeters>NAN</DistanceMeters>
          </Trackpoint>
          <Trackpoint>
            <Time>2019-10-10T11:15:22.000Z</Time>
            <Position>
              <LatitudeDegrees>37.780756987631320953369140625</LatitudeDegrees>
              <LongitudeDegrees>-6.1817271821200847625732421875</LongitudeDegrees>
            </Position>
            <AltitudeMeters>385.20001220703125</AltitudeMeters>
            <DistanceMeters>NAN</DistanceMeters>
          </Trackpoint>
          <Trackpoint>
            <Time>2019-10-10T11:15:24.000Z</Time>
            <Position>
              <LatitudeDegrees>37.78065430931746959686279296875</LatitudeDegrees>
              <LongitudeDegrees>-6.18162819184362888336181640625</LongitudeDegrees>
            </Position>
            <AltitudeMeters>384.399993896484375</AltitudeMeters>
            <DistanceMeters>NAN</DistanceMeters>
          </Trackpoint>
          <Trackpoint>
            <Time>2019-10-10T11:15:28.000Z</Time>
            <Position>
              <LatitudeDegrees>37.7804393135011196136474609375</LatitudeDegrees>
              <LongitudeDegrees>-6.1814170517027378082275390625</LongitudeDegrees>
            </Position>
            <AltitudeMeters>384.20001220703125</AltitudeMeters>
            <DistanceMeters>NAN</DistanceMeters>
          </Trackpoint>
          <Trackpoint>
            <Time>2019-10-10T11:15:31.000Z</Time>
            <Position>
              <LatitudeDegrees>37.78027142398059368133544921875</LatitudeDegrees>
              <LongitudeDegrees>-6.1812497489154338836669921875</LongitudeDegrees>
            </Position>
            <AltitudeMeters>383.600006103515625</AltitudeMeters>
            <DistanceMeters>NAN</DistanceMeters>
          </Trackpoint>
          <Trackpoint>
            <Time>2019-10-10T11:15:33.000Z</Time>
            <Position>
              <LatitudeDegrees>37.78015860356390476226806640625</LatitudeDegrees>
              <LongitudeDegrees>-6.18113122880458831787109375</LongitudeDegrees>
            </Position>
            <AltitudeMeters>383.600006103515625</AltitudeMeters>
            <DistanceMeters>NAN</DistanceMeters>
          </Trackpoint>
          <Trackpoint>
            <Time>2019-10-10T11:15:35.000Z</Time>
            <Position>
              <LatitudeDegrees>37.7800430171191692352294921875</LatitudeDegrees>
              <LongitudeDegrees>-6.18100491352379322052001953125</LongitudeDegrees>
            </Position>
            <AltitudeMeters>383</AltitudeMeters>
            <DistanceMeters>NAN</DistanceMeters>
          </Trackpoint>
          <Trackpoint>
            <Time>2019-10-10T11:15:37.000Z</Time>
            <Position>
              <LatitudeDegrees>37.77992642484605312347412109375</LatitudeDegrees>
              <LongitudeDegrees>-6.180876754224300384521484375</LongitudeDegrees>
            </Position>
            <AltitudeMeters>382</AltitudeMeters>
            <DistanceMeters>NAN</DistanceMeters>
          </Trackpoint>
          <Trackpoint>
            <Time>2019-10-10T11:15:41.000Z</Time>
            <Position>
              <LatitudeDegrees>37.7796886302530765533447265625</LatitudeDegrees>
              <LongitudeDegrees>-6.18061364628374576568603515625</LongitudeDegrees>
            </Position>
            <AltitudeMeters>380.600006103515625</AltitudeMeters>
            <DistanceMeters>NAN</DistanceMeters>
          </Trackpoint>
          <Trackpoint>
            <Time>2019-10-10T11:15:42.000Z</Time>
            <Position>
              <LatitudeDegrees>37.7796299569308757781982421875</LatitudeDegrees>
              <LongitudeDegrees>-6.18054558522999286651611328125</LongitudeDegrees>
            </Position>
            <AltitudeMeters>380</AltitudeMeters>
            <DistanceMeters>NAN</DistanceMeters>
          </Trackpoint>
          <Trackpoint>
            <Time>2019-10-10T11:15:45.000Z</Time>
            <Position>
              <LatitudeDegrees>37.77945821173489093780517578125</LatitudeDegrees>
              <LongitudeDegrees>-6.18033369071781635284423828125</LongitudeDegrees>
            </Position>
            <AltitudeMeters>380.20001220703125</AltitudeMeters>
            <DistanceMeters>NAN</DistanceMeters>
          </Trackpoint>
          <Trackpoint>
            <Time>2019-10-10T11:15:46.000Z</Time>
            <Position>
              <LatitudeDegrees>37.77940071187913417816162109375</LatitudeDegrees>
              <LongitudeDegrees>-6.18025959469377994537353515625</LongitudeDegrees>
            </Position>
            <AltitudeMeters>379.600006103515625</AltitudeMeters>
            <DistanceMeters>NAN</DistanceMeters>
          </Trackpoint>
          <Trackpoint>
            <Time>2019-10-10T11:15:49.000Z</Time>
            <Position>
              <LatitudeDegrees>37.77922234497964382171630859375</LatitudeDegrees>
              <LongitudeDegrees>-6.18003554642200469970703125</LongitudeDegrees>
            </Position>
            <AltitudeMeters>378.600006103515625</AltitudeMeters>
            <DistanceMeters>NAN</DistanceMeters>
          </Trackpoint>
          <Trackpoint>
            <Time>2019-10-10T11:15:52.000Z</Time>
            <Position>
              <LatitudeDegrees>37.77904146350920200347900390625</LatitudeDegrees>
              <LongitudeDegrees>-6.17979859001934528350830078125</LongitudeDegrees>
            </Position>
            <AltitudeMeters>376.20001220703125</AltitudeMeters>
            <DistanceMeters>NAN</DistanceMeters>
          </Trackpoint>
          <Trackpoint>
            <Time>2019-10-10T11:15:53.000Z</Time>
            <Position>
              <LatitudeDegrees>37.7789781801402568817138671875</LatitudeDegrees>
              <LongitudeDegrees>-6.179716028273105621337890625</LongitudeDegrees>
            </Position>
            <AltitudeMeters>375</AltitudeMeters>
            <DistanceMeters>NAN</DistanceMeters>
          </Trackpoint>
          <Trackpoint>
            <Time>2019-10-10T11:15:56.000Z</Time>
            <Position>
              <LatitudeDegrees>37.77878749184310436248779296875</LatitudeDegrees>
              <LongitudeDegrees>-6.1794587038457393646240234375</LongitudeDegrees>
            </Position>
            <AltitudeMeters>374.20001220703125</AltitudeMeters>
            <DistanceMeters>NAN</DistanceMeters>
          </Trackpoint>
          <Trackpoint>
            <Time>2019-10-10T11:15:57.000Z</Time>
            <Position>
              <LatitudeDegrees>37.77872026897966861724853515625</LatitudeDegrees>
              <LongitudeDegrees>-6.17936977185308933258056640625</LongitudeDegrees>
            </Position>
            <AltitudeMeters>373.600006103515625</AltitudeMeters>
            <DistanceMeters>NAN</DistanceMeters>
          </Trackpoint>
          <Trackpoint>
            <Time>2019-10-10T11:15:59.000Z</Time>
            <Position>
              <LatitudeDegrees>37.77858205139636993408203125</LatitudeDegrees>
              <LongitudeDegrees>-6.1791894771158695220947265625</LongitudeDegrees>
            </Position>
            <AltitudeMeters>371.79998779296875</AltitudeMeters>
            <DistanceMeters>NAN</DistanceMeters>
          </Trackpoint>
          <Trackpoint>
            <Time>2019-10-10T11:16:00.000Z</Time>
            <Position>
              <LatitudeDegrees>37.778511978685855865478515625</LatitudeDegrees>
              <LongitudeDegrees>-6.17909736000001430511474609375</LongitudeDegrees>
            </Position>
            <AltitudeMeters>370.79998779296875</AltitudeMeters>
            <DistanceMeters>NAN</DistanceMeters>
          </Trackpoint>
          <Trackpoint>
            <Time>2019-10-10T11:16:01.000Z</Time>
            <Position>
              <LatitudeDegrees>37.7784410677850246429443359375</LatitudeDegrees>
              <LongitudeDegrees>-6.1790040694177150726318359375</LongitudeDegrees>
            </Position>
            <AltitudeMeters>369.79998779296875</AltitudeMeters>
            <DistanceMeters>NAN</DistanceMeters>
          </Trackpoint>
          <Trackpoint>
            <Time>2019-10-10T11:16:04.000Z</Time>
            <Position>
              <LatitudeDegrees>37.778226993978023529052734375</LatitudeDegrees>
              <LongitudeDegrees>-6.17872185073792934417724609375</LongitudeDegrees>
            </Position>
            <AltitudeMeters>368</AltitudeMeters>
            <DistanceMeters>NAN</DistanceMeters>
          </Trackpoint>
          <Trackpoint>
            <Time>2019-10-10T11:16:05.000Z</Time>
            <Position>
              <LatitudeDegrees>37.77815692126750946044921875</LatitudeDegrees>
              <LongitudeDegrees>-6.1786285601556301116943359375</LongitudeDegrees>
            </Position>
            <AltitudeMeters>367</AltitudeMeters>
            <DistanceMeters>NAN</DistanceMeters>
          </Trackpoint>
          <Trackpoint>
            <Time>2019-10-10T11:16:06.000Z</Time>
            <Position>
              <LatitudeDegrees>37.77808777056634426116943359375</LatitudeDegrees>
              <LongitudeDegrees>-6.17853677831590175628662109375</LongitudeDegrees>
            </Position>
            <AltitudeMeters>366.20001220703125</AltitudeMeters>
            <DistanceMeters>NAN</DistanceMeters>
          </Trackpoint>
          <Trackpoint>
            <Time>2019-10-10T11:16:07.000Z</Time>
            <Position>
              <LatitudeDegrees>37.77801803313195705413818359375</LatitudeDegrees>
              <LongitudeDegrees>-6.1784458346664905548095703125</LongitudeDegrees>
            </Position>
            <AltitudeMeters>366</AltitudeMeters>
            <DistanceMeters>NAN</DistanceMeters>
          </Trackpoint>
          <Trackpoint>
            <Time>2019-10-10T11:16:11.000Z</Time>
            <Position>
              <LatitudeDegrees>37.77774310670793056488037109375</LatitudeDegrees>
              <LongitudeDegrees>-6.17808314971625804901123046875</LongitudeDegrees>
            </Position>
            <AltitudeMeters>364.79998779296875</AltitudeMeters>
            <DistanceMeters>NAN</DistanceMeters>
          </Trackpoint>
          <Trackpoint>
            <Time>2019-10-10T11:16:13.000Z</Time>
            <Position>
              <LatitudeDegrees>37.77760782279074192047119140625</LatitudeDegrees>
              <LongitudeDegrees>-6.1779067106544971466064453125</LongitudeDegrees>
            </Position>
            <AltitudeMeters>363.20001220703125</AltitudeMeters>
            <DistanceMeters>NAN</DistanceMeters>
          </Trackpoint>
          <Trackpoint>
            <Time>2019-10-10T11:16:14.000Z</Time>
            <Position>
              <LatitudeDegrees>37.77754177339375019073486328125</LatitudeDegrees>
              <LongitudeDegrees>-6.17782146669924259185791015625</LongitudeDegrees>
            </Position>
            <AltitudeMeters>362.79998779296875</AltitudeMeters>
            <DistanceMeters>NAN</DistanceMeters>
          </Trackpoint>
          <Trackpoint>
            <Time>2019-10-10T11:16:15.000Z</Time>
            <Position>
              <LatitudeDegrees>37.7774781547486782073974609375</LatitudeDegrees>
              <LongitudeDegrees>-6.1777397431433200836181640625</LongitudeDegrees>
            </Position>
            <AltitudeMeters>362.79998779296875</AltitudeMeters>
            <DistanceMeters>NAN</DistanceMeters>
          </Trackpoint>
          <Trackpoint>
            <Time>2019-10-10T11:16:16.000Z</Time>
            <Position>
              <LatitudeDegrees>37.7774164639413356781005859375</LatitudeDegrees>
              <LongitudeDegrees>-6.177660785615444183349609375</LongitudeDegrees>
            </Position>
            <AltitudeMeters>363.20001220703125</AltitudeMeters>
            <DistanceMeters>NAN</DistanceMeters>
          </Trackpoint>
          <Trackpoint>
            <Time>2019-10-10T11:16:19.000Z</Time>
            <Position>
              <LatitudeDegrees>37.7772515080869197845458984375</LatitudeDegrees>
              <LongitudeDegrees>-6.17744025774300098419189453125</LongitudeDegrees>
            </Position>
            <AltitudeMeters>364.600006103515625</AltitudeMeters>
            <DistanceMeters>NAN</DistanceMeters>
          </Trackpoint>
          <Trackpoint>
            <Time>2019-10-10T11:16:20.000Z</Time>
            <Position>
              <LatitudeDegrees>37.7772018872201442718505859375</LatitudeDegrees>
              <LongitudeDegrees>-6.17737789638340473175048828125</LongitudeDegrees>
            </Position>
            <AltitudeMeters>364.79998779296875</AltitudeMeters>
            <DistanceMeters>NAN</DistanceMeters>
          </Trackpoint>
          <Trackpoint>
            <Time>2019-10-10T11:16:21.000Z</Time>
            <Position>
              <LatitudeDegrees>37.77715536765754222869873046875</LatitudeDegrees>
              <LongitudeDegrees>-6.177318803966045379638671875</LongitudeDegrees>
            </Position>
            <AltitudeMeters>365.600006103515625</AltitudeMeters>
            <DistanceMeters>NAN</DistanceMeters>
          </Trackpoint>
          <Trackpoint>
            <Time>2019-10-10T11:16:23.000Z</Time>
            <Position>
              <LatitudeDegrees>37.77707205154001712799072265625</LatitudeDegrees>
              <LongitudeDegrees>-6.1772133596241474151611328125</LongitudeDegrees>
            </Position>
            <AltitudeMeters>366.79998779296875</AltitudeMeters>
            <DistanceMeters>NAN</DistanceMeters>
          </Trackpoint>
          <Trackpoint>
            <Time>2019-10-10T11:16:24.000Z</Time>
            <Position>
              <LatitudeDegrees>37.777032069861888885498046875</LatitudeDegrees>
              <LongitudeDegrees>-6.1771654151380062103271484375</LongitudeDegrees>
            </Position>
            <AltitudeMeters>367</AltitudeMeters>
            <DistanceMeters>NAN</DistanceMeters>
          </Trackpoint>
          <Trackpoint>
            <Time>2019-10-10T11:16:25.000Z</Time>
            <Position>
              <LatitudeDegrees>37.77699057944118976593017578125</LatitudeDegrees>
              <LongitudeDegrees>-6.177118308842182159423828125</LongitudeDegrees>
            </Position>
            <AltitudeMeters>367.600006103515625</AltitudeMeters>
            <DistanceMeters>NAN</DistanceMeters>
          </Trackpoint>
          <Trackpoint>
            <Time>2019-10-10T11:16:26.000Z</Time>
            <Position>
              <LatitudeDegrees>37.77694799937307834625244140625</LatitudeDegrees>
              <LongitudeDegrees>-6.17707463912665843963623046875</LongitudeDegrees>
            </Position>
            <AltitudeMeters>367.600006103515625</AltitudeMeters>
            <DistanceMeters>NAN</DistanceMeters>
          </Trackpoint>
          <Trackpoint>
            <Time>2019-10-10T11:16:27.000Z</Time>
            <Position>
              <LatitudeDegrees>37.77690424583852291107177734375</LatitudeDegrees>
              <LongitudeDegrees>-6.1770316399633884429931640625</LongitudeDegrees>
            </Position>
            <AltitudeMeters>367.79998779296875</AltitudeMeters>
            <DistanceMeters>NAN</DistanceMeters>
          </Trackpoint>
          <Trackpoint>
            <Time>2019-10-10T11:16:29.000Z</Time>
            <Position>
              <LatitudeDegrees>37.77681355364620685577392578125</LatitudeDegrees>
              <LongitudeDegrees>-6.1769481562077999114990234375</LongitudeDegrees>
            </Position>
            <AltitudeMeters>367.79998779296875</AltitudeMeters>
            <DistanceMeters>NAN</DistanceMeters>
          </Trackpoint>
          <Trackpoint>
            <Time>2019-10-10T11:16:30.000Z</Time>
            <Position>
              <LatitudeDegrees>37.77676795609295368194580078125</LatitudeDegrees>
              <LongitudeDegrees>-6.17690884508192539215087890625</LongitudeDegrees>
            </Position>
            <AltitudeMeters>367.79998779296875</AltitudeMeters>
            <DistanceMeters>NAN</DistanceMeters>
          </Trackpoint>
          <Trackpoint>
            <Time>2019-10-10T11:16:31.000Z</Time>
            <Position>
              <LatitudeDegrees>37.776722274720668792724609375</LatitudeDegrees>
              <LongitudeDegrees>-6.17687129415571689605712890625</LongitudeDegrees>
            </Position>
            <AltitudeMeters>368.20001220703125</AltitudeMeters>
            <DistanceMeters>NAN</DistanceMeters>
          </Trackpoint>
          <Trackpoint>
            <Time>2019-10-10T11:16:32.000Z</Time>
            <Position>
              <LatitudeDegrees>37.77667793445289134979248046875</LatitudeDegrees>
              <LongitudeDegrees>-6.1768368445336818695068359375</LongitudeDegrees>
            </Position>
            <AltitudeMeters>368.20001220703125</AltitudeMeters>
            <DistanceMeters>NAN</DistanceMeters>
          </Trackpoint>
          <Trackpoint>
            <Time>2019-10-10T11:16:34.000Z</Time>
            <Position>
              <LatitudeDegrees>37.7765898406505584716796875</LatitudeDegrees>
              <LongitudeDegrees>-6.1767724715173244476318359375</LongitudeDegrees>
            </Position>
            <AltitudeMeters>368.399993896484375</AltitudeMeters>
            <DistanceMeters>NAN</DistanceMeters>
          </Trackpoint>
          <Trackpoint>
            <Time>2019-10-10T11:16:36.000Z</Time>
            <Position>
              <LatitudeDegrees>37.77650426141917705535888671875</LatitudeDegrees>
              <LongitudeDegrees>-6.17670902051031589508056640625</LongitudeDegrees>
            </Position>
            <AltitudeMeters>368.399993896484375</AltitudeMeters>
            <DistanceMeters>NAN</DistanceMeters>
          </Trackpoint>
          <Trackpoint>
            <Time>2019-10-10T11:16:38.000Z</Time>
            <Position>
              <LatitudeDegrees>37.77641725726425647735595703125</LatitudeDegrees>
              <LongitudeDegrees>-6.1766544543206691741943359375</LongitudeDegrees>
            </Position>
            <AltitudeMeters>369</AltitudeMeters>
            <DistanceMeters>NAN</DistanceMeters>
          </Trackpoint>
          <Trackpoint>
            <Time>2019-10-10T11:16:40.000Z</Time>
            <Position>
              <LatitudeDegrees>37.776331007480621337890625</LatitudeDegrees>
              <LongitudeDegrees>-6.176600642502307891845703125</LongitudeDegrees>
            </Position>
            <AltitudeMeters>369.600006103515625</AltitudeMeters>
            <DistanceMeters>NAN</DistanceMeters>
          </Trackpoint>
          <Trackpoint>
            <Time>2019-10-10T11:16:42.000Z</Time>
            <Position>
              <LatitudeDegrees>37.77624911628663539886474609375</LatitudeDegrees>
              <LongitudeDegrees>-6.176551692187786102294921875</LongitudeDegrees>
            </Position>
            <AltitudeMeters>370.20001220703125</AltitudeMeters>
            <DistanceMeters>NAN</DistanceMeters>
          </Trackpoint>
          <Trackpoint>
            <Time>2019-10-10T11:16:46.000Z</Time>
            <Position>
              <LatitudeDegrees>37.7760922908782958984375</LatitudeDegrees>
              <LongitudeDegrees>-6.17645622231066226959228515625</LongitudeDegrees>
            </Position>
            <AltitudeMeters>370</AltitudeMeters>
            <DistanceMeters>NAN</DistanceMeters>
          </Trackpoint>
          <Trackpoint>
            <Time>2019-10-10T11:16:49.000Z</Time>
            <Position>
              <LatitudeDegrees>37.7759782969951629638671875</LatitudeDegrees>
              <LongitudeDegrees>-6.17638380266726016998291015625</LongitudeDegrees>
            </Position>
            <AltitudeMeters>370.20001220703125</AltitudeMeters>
            <DistanceMeters>NAN</DistanceMeters>
          </Trackpoint>
          <Trackpoint>
            <Time>2019-10-10T11:16:55.000Z</Time>
            <Position>
              <LatitudeDegrees>37.7757591940462589263916015625</LatitudeDegrees>
              <LongitudeDegrees>-6.1762544699013233184814453125</LongitudeDegrees>
            </Position>
            <AltitudeMeters>371.20001220703125</AltitudeMeters>
            <DistanceMeters>NAN</DistanceMeters>
          </Trackpoint>
          <Trackpoint>
            <Time>2019-10-10T11:16:57.000Z</Time>
            <Position>
              <LatitudeDegrees>37.77569406665861606597900390625</LatitudeDegrees>
              <LongitudeDegrees>-6.1762139014899730682373046875</LongitudeDegrees>
            </Position>
            <AltitudeMeters>371.600006103515625</AltitudeMeters>
            <DistanceMeters>NAN</DistanceMeters>
          </Trackpoint>
          <Trackpoint>
            <Time>2019-10-10T11:17:01.000Z</Time>
            <Position>
              <LatitudeDegrees>37.77556951157748699188232421875</LatitudeDegrees>
              <LongitudeDegrees>-6.1761387996375560760498046875</LongitudeDegrees>
            </Position>
            <AltitudeMeters>372.20001220703125</AltitudeMeters>
            <DistanceMeters>NAN</DistanceMeters>
          </Trackpoint>
          <Trackpoint>
            <Time>2019-10-10T11:17:04.000Z</Time>
            <Position>
              <LatitudeDegrees>37.7754772268235683441162109375</LatitudeDegrees>
              <LongitudeDegrees>-6.1760799586772918701171875</LongitudeDegrees>
            </Position>
            <AltitudeMeters>373.20001220703125</AltitudeMeters>
            <DistanceMeters>NAN</DistanceMeters>
          </Trackpoint>
          <Trackpoint>
            <Time>2019-10-10T11:17:05.000Z</Time>
            <Position>
              <LatitudeDegrees>37.77544696815311908721923828125</LatitudeDegrees>
              <LongitudeDegrees>-6.1760593391954898834228515625</LongitudeDegrees>
            </Position>
            <AltitudeMeters>373.399993896484375</AltitudeMeters>
            <DistanceMeters>NAN</DistanceMeters>
          </Trackpoint>
          <Trackpoint>
            <Time>2019-10-10T11:17:10.000Z</Time>
            <Position>
              <LatitudeDegrees>37.775301039218902587890625</LatitudeDegrees>
              <LongitudeDegrees>-6.17596856318414211273193359375</LongitudeDegrees>
            </Position>
            <AltitudeMeters>374.20001220703125</AltitudeMeters>
            <DistanceMeters>NAN</DistanceMeters>
          </Trackpoint>
          <Trackpoint>
            <Time>2019-10-10T11:17:11.000Z</Time>
            <Position>
              <LatitudeDegrees>37.7752727083861827850341796875</LatitudeDegrees>
              <LongitudeDegrees>-6.17594995535910129547119140625</LongitudeDegrees>
            </Position>
            <AltitudeMeters>374.399993896484375</AltitudeMeters>
            <DistanceMeters>NAN</DistanceMeters>
          </Trackpoint>
          <Trackpoint>
            <Time>2019-10-10T11:17:14.000Z</Time>
            <Position>
              <LatitudeDegrees>37.7751828543841838836669921875</LatitudeDegrees>
              <LongitudeDegrees>-6.17589865811169147491455078125</LongitudeDegrees>
            </Position>
            <AltitudeMeters>374.79998779296875</AltitudeMeters>
            <DistanceMeters>NAN</DistanceMeters>
          </Trackpoint>
          <Trackpoint>
            <Time>2019-10-10T11:17:18.000Z</Time>
            <Position>
              <LatitudeDegrees>37.77506777085363864898681640625</LatitudeDegrees>
              <LongitudeDegrees>-6.17581953294575214385986328125</LongitudeDegrees>
            </Position>
            <AltitudeMeters>375.399993896484375</AltitudeMeters>
            <DistanceMeters>NAN</DistanceMeters>
          </Trackpoint>
          <Trackpoint>
            <Time>2019-10-10T11:17:21.000Z</Time>
            <Position>
              <LatitudeDegrees>37.77497850358486175537109375</LatitudeDegrees>
              <LongitudeDegrees>-6.1757579259574413299560546875</LongitudeDegrees>
            </Position>
            <AltitudeMeters>375.79998779296875</AltitudeMeters>
            <DistanceMeters>NAN</DistanceMeters>
          </Trackpoint>
          <Trackpoint>
            <Time>2019-10-10T11:17:22.000Z</Time>
            <Position>
              <LatitudeDegrees>37.77494824491441249847412109375</LatitudeDegrees>
              <LongitudeDegrees>-6.1757401563227176666259765625</LongitudeDegrees>
            </Position>
            <AltitudeMeters>376.600006103515625</AltitudeMeters>
            <DistanceMeters>NAN</DistanceMeters>
          </Trackpoint>
          <Trackpoint>
            <Time>2019-10-10T11:17:27.000Z</Time>
            <Position>
              <LatitudeDegrees>37.77480156160891056060791015625</LatitudeDegrees>
              <LongitudeDegrees>-6.1756575107574462890625</LongitudeDegrees>
            </Position>
            <AltitudeMeters>377.20001220703125</AltitudeMeters>
            <DistanceMeters>NAN</DistanceMeters>
          </Trackpoint>
          <Trackpoint>
            <Time>2019-10-10T11:17:28.000Z</Time>
            <Position>
              <LatitudeDegrees>37.77477473951876163482666015625</LatitudeDegrees>
              <LongitudeDegrees>-6.1756375618278980255126953125</LongitudeDegrees>
            </Position>
            <AltitudeMeters>377.600006103515625</AltitudeMeters>
            <DistanceMeters>NAN</DistanceMeters>
          </Trackpoint>
          <Trackpoint>
            <Time>2019-10-10T11:17:31.000Z</Time>
            <Position>
              <LatitudeDegrees>37.77469293214380741119384765625</LatitudeDegrees>
              <LongitudeDegrees>-6.17556991986930370330810546875</LongitudeDegrees>
            </Position>
            <AltitudeMeters>378</AltitudeMeters>
            <DistanceMeters>NAN</DistanceMeters>
          </Trackpoint>
          <Trackpoint>
            <Time>2019-10-10T11:17:35.000Z</Time>
            <Position>
              <LatitudeDegrees>37.77457910589873790740966796875</LatitudeDegrees>
              <LongitudeDegrees>-6.1754893697798252105712890625</LongitudeDegrees>
            </Position>
            <AltitudeMeters>378.79998779296875</AltitudeMeters>
            <DistanceMeters>NAN</DistanceMeters>
          </Trackpoint>
          <Trackpoint>
            <Time>2019-10-10T11:17:39.000Z</Time>
            <Position>
              <LatitudeDegrees>37.77446880005300045013427734375</LatitudeDegrees>
              <LongitudeDegrees>-6.17538250051438808441162109375</LongitudeDegrees>
            </Position>
            <AltitudeMeters>379</AltitudeMeters>
            <DistanceMeters>NAN</DistanceMeters>
          </Trackpoint>
          <Trackpoint>
            <Time>2019-10-10T11:17:46.000Z</Time>
            <Position>
              <LatitudeDegrees>37.774280793964862823486328125</LatitudeDegrees>
              <LongitudeDegrees>-6.17514043115079402923583984375</LongitudeDegrees>
            </Position>
            <AltitudeMeters>378.79998779296875</AltitudeMeters>
            <DistanceMeters>NAN</DistanceMeters>
          </Trackpoint>
          <Trackpoint>
            <Time>2019-10-10T11:17:54.000Z</Time>
            <Position>
              <LatitudeDegrees>37.77409999631345272064208984375</LatitudeDegrees>
              <LongitudeDegrees>-6.1747624911367893218994140625</LongitudeDegrees>
            </Position>
            <AltitudeMeters>378.79998779296875</AltitudeMeters>
            <DistanceMeters>NAN</DistanceMeters>
          </Trackpoint>
          <Trackpoint>
            <Time>2019-10-10T11:18:01.000Z</Time>
            <Position>
              <LatitudeDegrees>37.77396437712013721466064453125</LatitudeDegrees>
              <LongitudeDegrees>-6.1743718944489955902099609375</LongitudeDegrees>
            </Position>
            <AltitudeMeters>378.600006103515625</AltitudeMeters>
            <DistanceMeters>NAN</DistanceMeters>
          </Trackpoint>
          <Trackpoint>
            <Time>2019-10-10T11:18:03.000Z</Time>
            <Position>
              <LatitudeDegrees>37.77392732910811901092529296875</LatitudeDegrees>
              <LongitudeDegrees>-6.17425270378589630126953125</LongitudeDegrees>
            </Position>
            <AltitudeMeters>378.399993896484375</AltitudeMeters>
            <DistanceMeters>NAN</DistanceMeters>
          </Trackpoint>
          <Trackpoint>
            <Time>2019-10-10T11:18:09.000Z</Time>
            <Position>
              <LatitudeDegrees>37.7738052047789096832275390625</LatitudeDegrees>
              <LongitudeDegrees>-6.17387476377189159393310546875</LongitudeDegrees>
            </Position>
            <AltitudeMeters>378.20001220703125</AltitudeMeters>
            <DistanceMeters>NAN</DistanceMeters>
          </Trackpoint>
          <Trackpoint>
            <Time>2019-10-10T11:18:11.000Z</Time>
            <Position>
              <LatitudeDegrees>37.7737646363675594329833984375</LatitudeDegrees>
              <LongitudeDegrees>-6.17374031804502010345458984375</LongitudeDegrees>
            </Position>
            <AltitudeMeters>378</AltitudeMeters>
            <DistanceMeters>NAN</DistanceMeters>
          </Trackpoint>
          <Trackpoint>
            <Time>2019-10-10T11:18:13.000Z</Time>
            <Position>
              <LatitudeDegrees>37.77372063137590885162353515625</LatitudeDegrees>
              <LongitudeDegrees>-6.17360536940395832061767578125</LongitudeDegrees>
            </Position>
            <AltitudeMeters>377.600006103515625</AltitudeMeters>
            <DistanceMeters>NAN</DistanceMeters>
          </Trackpoint>
          <Trackpoint>
            <Time>2019-10-10T11:18:18.000Z</Time>
            <Position>
              <LatitudeDegrees>37.77361066080629825592041015625</LatitudeDegrees>
              <LongitudeDegrees>-6.173247210681438446044921875</LongitudeDegrees>
            </Position>
            <AltitudeMeters>376.399993896484375</AltitudeMeters>
            <DistanceMeters>NAN</DistanceMeters>
          </Trackpoint>
          <Trackpoint>
            <Time>2019-10-10T11:18:19.000Z</Time>
            <Position>
              <LatitudeDegrees>37.77358652092516422271728515625</LatitudeDegrees>
              <LongitudeDegrees>-6.17317118681967258453369140625</LongitudeDegrees>
            </Position>
            <AltitudeMeters>376.20001220703125</AltitudeMeters>
            <DistanceMeters>NAN</DistanceMeters>
          </Trackpoint>
          <Trackpoint>
            <Time>2019-10-10T11:18:21.000Z</Time>
            <Position>
              <LatitudeDegrees>37.773534469306468963623046875</LatitudeDegrees>
              <LongitudeDegrees>-6.17300757206976413726806640625</LongitudeDegrees>
            </Position>
            <AltitudeMeters>375.399993896484375</AltitudeMeters>
            <DistanceMeters>NAN</DistanceMeters>
          </Trackpoint>
          <Trackpoint>
            <Time>2019-10-10T11:18:23.000Z</Time>
            <Position>
              <LatitudeDegrees>37.773472778499126434326171875</LatitudeDegrees>
              <LongitudeDegrees>-6.1728346534073352813720703125</LongitudeDegrees>
            </Position>
            <AltitudeMeters>374.20001220703125</AltitudeMeters>
            <DistanceMeters>NAN</DistanceMeters>
          </Trackpoint>
          <Trackpoint>
            <Time>2019-10-10T11:18:24.000Z</Time>
            <Position>
              <LatitudeDegrees>37.773441933095455169677734375</LatitudeDegrees>
              <LongitudeDegrees>-6.172742284834384918212890625</LongitudeDegrees>
            </Position>
            <AltitudeMeters>374.20001220703125</AltitudeMeters>
            <DistanceMeters>NAN</DistanceMeters>
          </Trackpoint>
          <Trackpoint>
            <Time>2019-10-10T11:18:26.000Z</Time>
            <Position>
              <LatitudeDegrees>37.7733656577765941619873046875</LatitudeDegrees>
              <LongitudeDegrees>-6.17254815995693206787109375</LongitudeDegrees>
            </Position>
            <AltitudeMeters>372.79998779296875</AltitudeMeters>
            <DistanceMeters>NAN</DistanceMeters>
          </Trackpoint>
          <Trackpoint>
            <Time>2019-10-10T11:18:27.000Z</Time>
            <Position>
              <LatitudeDegrees>37.77332282625138759613037109375</LatitudeDegrees>
              <LongitudeDegrees>-6.1724467389285564422607421875</LongitudeDegrees>
            </Position>
            <AltitudeMeters>371.600006103515625</AltitudeMeters>
            <DistanceMeters>NAN</DistanceMeters>
          </Trackpoint>
          <Trackpoint>
            <Time>2019-10-10T11:18:29.000Z</Time>
            <Position>
              <LatitudeDegrees>37.77322660200297832489013671875</LatitudeDegrees>
              <LongitudeDegrees>-6.17224196903407573699951171875</LongitudeDegrees>
            </Position>
            <AltitudeMeters>369.79998779296875</AltitudeMeters>
            <DistanceMeters>NAN</DistanceMeters>
          </Trackpoint>
          <Trackpoint>
            <Time>2019-10-10T11:18:30.000Z</Time>
            <Position>
              <LatitudeDegrees>37.77317262254655361175537109375</LatitudeDegrees>
              <LongitudeDegrees>-6.17214155383408069610595703125</LongitudeDegrees>
            </Position>
            <AltitudeMeters>368.600006103515625</AltitudeMeters>
            <DistanceMeters>NAN</DistanceMeters>
          </Trackpoint>
          <Trackpoint>
            <Time>2019-10-10T11:18:31.000Z</Time>
            <Position>
              <LatitudeDegrees>37.7731175534427165985107421875</LatitudeDegrees>
              <LongitudeDegrees>-6.17204214446246623992919921875</LongitudeDegrees>
            </Position>
            <AltitudeMeters>368</AltitudeMeters>
            <DistanceMeters>NAN</DistanceMeters>
          </Trackpoint>
          <Trackpoint>
            <Time>2019-10-10T11:18:32.000Z</Time>
            <Position>
              <LatitudeDegrees>37.7730560302734375</LatitudeDegrees>
              <LongitudeDegrees>-6.171946339309215545654296875</LongitudeDegrees>
            </Position>
            <AltitudeMeters>367.20001220703125</AltitudeMeters>
            <DistanceMeters>NAN</DistanceMeters>
          </Trackpoint>
          <Trackpoint>
            <Time>2019-10-10T11:18:34.000Z</Time>
            <Position>
              <LatitudeDegrees>37.77291990816593170166015625</LatitudeDegrees>
              <LongitudeDegrees>-6.17176788859069347381591796875</LongitudeDegrees>
            </Position>
            <AltitudeMeters>366</AltitudeMeters>
            <DistanceMeters>NAN</DistanceMeters>
          </Trackpoint>
          <Trackpoint>
            <Time>2019-10-10T11:18:36.000Z</Time>
            <Position>
              <LatitudeDegrees>37.772770039737224578857421875</LatitudeDegrees>
              <LongitudeDegrees>-6.17159538902342319488525390625</LongitudeDegrees>
            </Position>
            <AltitudeMeters>365.20001220703125</AltitudeMeters>
            <DistanceMeters>NAN</DistanceMeters>
          </Trackpoint>
          <Trackpoint>
            <Time>2019-10-10T11:18:37.000Z</Time>
            <Position>
              <LatitudeDegrees>37.77269049547612667083740234375</LatitudeDegrees>
              <LongitudeDegrees>-6.1715146712958812713623046875</LongitudeDegrees>
            </Position>
            <AltitudeMeters>364.20001220703125</AltitudeMeters>
            <DistanceMeters>NAN</DistanceMeters>
          </Trackpoint>
          <Trackpoint>
            <Time>2019-10-10T11:18:39.000Z</Time>
            <Position>
              <LatitudeDegrees>37.7725236117839813232421875</LatitudeDegrees>
              <LongitudeDegrees>-6.1713678203523159027099609375</LongitudeDegrees>
            </Position>
            <AltitudeMeters>362</AltitudeMeters>
            <DistanceMeters>NAN</DistanceMeters>
          </Trackpoint>
          <Trackpoint>
            <Time>2019-10-10T11:18:41.000Z</Time>
            <Position>
              <LatitudeDegrees>37.7723457477986812591552734375</LatitudeDegrees>
              <LongitudeDegrees>-6.17124267853796482086181640625</LongitudeDegrees>
            </Position>
            <AltitudeMeters>360.600006103515625</AltitudeMeters>
            <DistanceMeters>NAN</DistanceMeters>
          </Trackpoint>
          <Trackpoint>
            <Time>2019-10-10T11:18:43.000Z</Time>
            <Position>
              <LatitudeDegrees>37.772157490253448486328125</LatitudeDegrees>
              <LongitudeDegrees>-6.17113740183413028717041015625</LongitudeDegrees>
            </Position>
            <AltitudeMeters>360</AltitudeMeters>
            <DistanceMeters>NAN</DistanceMeters>
          </Trackpoint>
          <Trackpoint>
            <Time>2019-10-10T11:18:44.000Z</Time>
            <Position>
              <LatitudeDegrees>37.7720604278147220611572265625</LatitudeDegrees>
              <LongitudeDegrees>-6.17109230719506740570068359375</LongitudeDegrees>
            </Position>
            <AltitudeMeters>359.79998779296875</AltitudeMeters>
            <DistanceMeters>NAN</DistanceMeters>
          </Trackpoint>
          <Trackpoint>
            <Time>2019-10-10T11:18:45.000Z</Time>
            <Position>
              <LatitudeDegrees>37.77196110226213932037353515625</LatitudeDegrees>
              <LongitudeDegrees>-6.1710540018975734710693359375</LongitudeDegrees>
            </Position>
            <AltitudeMeters>359.399993896484375</AltitudeMeters>
            <DistanceMeters>NAN</DistanceMeters>
          </Trackpoint>
          <Trackpoint>
            <Time>2019-10-10T11:18:46.000Z</Time>
            <Position>
              <LatitudeDegrees>37.77185909450054168701171875</LatitudeDegrees>
              <LongitudeDegrees>-6.17102005518972873687744140625</LongitudeDegrees>
            </Position>
            <AltitudeMeters>358.20001220703125</AltitudeMeters>
            <DistanceMeters>NAN</DistanceMeters>
          </Trackpoint>
          <Trackpoint>
            <Time>2019-10-10T11:18:48.000Z</Time>
            <Position>
              <LatitudeDegrees>37.7716473676264286041259765625</LatitudeDegrees>
              <LongitudeDegrees>-6.17097546346485614776611328125</LongitudeDegrees>
            </Position>
            <AltitudeMeters>357.20001220703125</AltitudeMeters>
            <DistanceMeters>NAN</DistanceMeters>
          </Trackpoint>
          <Trackpoint>
            <Time>2019-10-10T11:18:49.000Z</Time>
            <Position>
              <LatitudeDegrees>37.7715397439897060394287109375</LatitudeDegrees>
              <LongitudeDegrees>-6.17095987312495708465576171875</LongitudeDegrees>
            </Position>
            <AltitudeMeters>356.79998779296875</AltitudeMeters>
            <DistanceMeters>NAN</DistanceMeters>
          </Trackpoint>
          <Trackpoint>
            <Time>2019-10-10T11:18:50.000Z</Time>
            <Position>
              <LatitudeDegrees>37.77143119834363460540771484375</LatitudeDegrees>
              <LongitudeDegrees>-6.17095098830759525299072265625</LongitudeDegrees>
            </Position>
            <AltitudeMeters>355.399993896484375</AltitudeMeters>
            <DistanceMeters>NAN</DistanceMeters>
          </Trackpoint>
          <Trackpoint>
            <Time>2019-10-10T11:18:52.000Z</Time>
            <Position>
              <LatitudeDegrees>37.77121427468955516815185546875</LatitudeDegrees>
              <LongitudeDegrees>-6.17095182649791240692138671875</LongitudeDegrees>
            </Position>
            <AltitudeMeters>354.20001220703125</AltitudeMeters>
            <DistanceMeters>NAN</DistanceMeters>
          </Trackpoint>
          <Trackpoint>
            <Time>2019-10-10T11:18:53.000Z</Time>
            <Position>
              <LatitudeDegrees>37.7711058966815471649169921875</LatitudeDegrees>
              <LongitudeDegrees>-6.170961298048496246337890625</LongitudeDegrees>
            </Position>
            <AltitudeMeters>353.79998779296875</AltitudeMeters>
            <DistanceMeters>NAN</DistanceMeters>
          </Trackpoint>
          <Trackpoint>
            <Time>2019-10-10T11:18:54.000Z</Time>
            <Position>
              <LatitudeDegrees>37.77099802158772945404052734375</LatitudeDegrees>
              <LongitudeDegrees>-6.1709785647690296173095703125</LongitudeDegrees>
            </Position>
            <AltitudeMeters>352.79998779296875</AltitudeMeters>
            <DistanceMeters>NAN</DistanceMeters>
          </Trackpoint>
          <Trackpoint>
            <Time>2019-10-10T11:18:56.000Z</Time>
            <Position>
              <LatitudeDegrees>37.7707847021520137786865234375</LatitudeDegrees>
              <LongitudeDegrees>-6.171034388244152069091796875</LongitudeDegrees>
            </Position>
            <AltitudeMeters>351.20001220703125</AltitudeMeters>
            <DistanceMeters>NAN</DistanceMeters>
          </Trackpoint>
          <Trackpoint>
            <Time>2019-10-10T11:18:58.000Z</Time>
            <Position>
              <LatitudeDegrees>37.770576663315296173095703125</LatitudeDegrees>
              <LongitudeDegrees>-6.17111242376267910003662109375</LongitudeDegrees>
            </Position>
            <AltitudeMeters>350.399993896484375</AltitudeMeters>
            <DistanceMeters>NAN</DistanceMeters>
          </Trackpoint>
          <Trackpoint>
            <Time>2019-10-10T11:18:59.000Z</Time>
            <Position>
              <LatitudeDegrees>37.77047398500144481658935546875</LatitudeDegrees>
              <LongitudeDegrees>-6.1711619608104228973388671875</LongitudeDegrees>
            </Position>
            <AltitudeMeters>349.79998779296875</AltitudeMeters>
            <DistanceMeters>NAN</DistanceMeters>
          </Trackpoint>
          <Trackpoint>
            <Time>2019-10-10T11:19:02.000Z</Time>
            <Position>
              <LatitudeDegrees>37.77018229477107524871826171875</LatitudeDegrees>
              <LongitudeDegrees>-6.171337477862834930419921875</LongitudeDegrees>
            </Position>
            <AltitudeMeters>347.79998779296875</AltitudeMeters>
            <DistanceMeters>NAN</DistanceMeters>
          </Trackpoint>
          <Trackpoint>
            <Time>2019-10-10T11:19:03.000Z</Time>
            <Position>
              <LatitudeDegrees>37.7700856514275074005126953125</LatitudeDegrees>
              <LongitudeDegrees>-6.17139925248920917510986328125</LongitudeDegrees>
            </Position>
            <AltitudeMeters>346.79998779296875</AltitudeMeters>
            <DistanceMeters>NAN</DistanceMeters>
          </Trackpoint>
          <Trackpoint>
            <Time>2019-10-10T11:19:04.000Z</Time>
            <Position>
              <LatitudeDegrees>37.76998900808393955230712890625</LatitudeDegrees>
              <LongitudeDegrees>-6.1714583449065685272216796875</LongitudeDegrees>
            </Position>
            <AltitudeMeters>345.600006103515625</AltitudeMeters>
            <DistanceMeters>NAN</DistanceMeters>
          </Trackpoint>
          <Trackpoint>
            <Time>2019-10-10T11:19:07.000Z</Time>
            <Position>
              <LatitudeDegrees>37.76970217935740947723388671875</LatitudeDegrees>
              <LongitudeDegrees>-6.17163444869220256805419921875</LongitudeDegrees>
            </Position>
            <AltitudeMeters>344.399993896484375</AltitudeMeters>
            <DistanceMeters>NAN</DistanceMeters>
          </Trackpoint>
          <Trackpoint>
            <Time>2019-10-10T11:19:09.000Z</Time>
            <Position>
              <LatitudeDegrees>37.76950973086059093475341796875</LatitudeDegrees>
              <LongitudeDegrees>-6.1717409826815128326416015625</LongitudeDegrees>
            </Position>
            <AltitudeMeters>343.399993896484375</AltitudeMeters>
            <DistanceMeters>NAN</DistanceMeters>
          </Trackpoint>
          <Trackpoint>
            <Time>2019-10-10T11:19:10.000Z</Time>
            <Position>
              <LatitudeDegrees>37.76941149495542049407958984375</LatitudeDegrees>
              <LongitudeDegrees>-6.171786747872829437255859375</LongitudeDegrees>
            </Position>
            <AltitudeMeters>343.399993896484375</AltitudeMeters>
            <DistanceMeters>NAN</DistanceMeters>
          </Trackpoint>
          <Trackpoint>
            <Time>2019-10-10T11:19:11.000Z</Time>
            <Position>
              <LatitudeDegrees>37.7693118341267108917236328125</LatitudeDegrees>
              <LongitudeDegrees>-6.171828992664813995361328125</LongitudeDegrees>
            </Position>
            <AltitudeMeters>342.79998779296875</AltitudeMeters>
            <DistanceMeters>NAN</DistanceMeters>
          </Trackpoint>
          <Trackpoint>
            <Time>2019-10-10T11:19:12.000Z</Time>
            <Position>
              <LatitudeDegrees>37.76920932345092296600341796875</LatitudeDegrees>
              <LongitudeDegrees>-6.17186495102941989898681640625</LongitudeDegrees>
            </Position>
            <AltitudeMeters>342.20001220703125</AltitudeMeters>
            <DistanceMeters>NAN</DistanceMeters>
          </Trackpoint>
          <Trackpoint>
            <Time>2019-10-10T11:19:13.000Z</Time>
            <Position>
              <LatitudeDegrees>37.769103460013866424560546875</LatitudeDegrees>
              <LongitudeDegrees>-6.17188833653926849365234375</LongitudeDegrees>
            </Position>
            <AltitudeMeters>341.399993896484375</AltitudeMeters>
            <DistanceMeters>NAN</DistanceMeters>
          </Trackpoint>
          <Trackpoint>
            <Time>2019-10-10T11:19:14.000Z</Time>
            <Position>
              <LatitudeDegrees>37.76899575255811214447021484375</LatitudeDegrees>
              <LongitudeDegrees>-6.17189562879502773284912109375</LongitudeDegrees>
            </Position>
            <AltitudeMeters>340.79998779296875</AltitudeMeters>
            <DistanceMeters>NAN</DistanceMeters>
          </Trackpoint>
          <Trackpoint>
            <Time>2019-10-10T11:19:15.000Z</Time>
            <Position>
              <LatitudeDegrees>37.7688877098262310028076171875</LatitudeDegrees>
              <LongitudeDegrees>-6.1718895100057125091552734375</LongitudeDegrees>
            </Position>
            <AltitudeMeters>340</AltitudeMeters>
            <DistanceMeters>NAN</DistanceMeters>
          </Trackpoint>
          <Trackpoint>
            <Time>2019-10-10T11:19:16.000Z</Time>
            <Position>
              <LatitudeDegrees>37.7687810920178890228271484375</LatitudeDegrees>
              <LongitudeDegrees>-6.1718720756471157073974609375</LongitudeDegrees>
            </Position>
            <AltitudeMeters>339</AltitudeMeters>
            <DistanceMeters>NAN</DistanceMeters>
          </Trackpoint>
          <Trackpoint>
            <Time>2019-10-10T11:19:18.000Z</Time>
            <Position>
              <LatitudeDegrees>37.768569700419902801513671875</LatitudeDegrees>
              <LongitudeDegrees>-6.17179756052792072296142578125</LongitudeDegrees>
            </Position>
            <AltitudeMeters>337.79998779296875</AltitudeMeters>
            <DistanceMeters>NAN</DistanceMeters>
          </Trackpoint>
          <Trackpoint>
            <Time>2019-10-10T11:19:19.000Z</Time>
            <Position>
              <LatitudeDegrees>37.7684699557721614837646484375</LatitudeDegrees>
              <LongitudeDegrees>-6.17173771373927593231201171875</LongitudeDegrees>
            </Position>
            <AltitudeMeters>337.600006103515625</AltitudeMeters>
            <DistanceMeters>NAN</DistanceMeters>
          </Trackpoint>
          <Trackpoint>
            <Time>2019-10-10T11:19:21.000Z</Time>
            <Position>
              <LatitudeDegrees>37.76828245259821414947509765625</LatitudeDegrees>
              <LongitudeDegrees>-6.171578206121921539306640625</LongitudeDegrees>
            </Position>
            <AltitudeMeters>336.20001220703125</AltitudeMeters>
            <DistanceMeters>NAN</DistanceMeters>
          </Trackpoint>
          <Trackpoint>
            <Time>2019-10-10T11:19:22.000Z</Time>
            <Position>
              <LatitudeDegrees>37.76819628663361072540283203125</LatitudeDegrees>
              <LongitudeDegrees>-6.17148156277835369110107421875</LongitudeDegrees>
            </Position>
            <AltitudeMeters>335.600006103515625</AltitudeMeters>
            <DistanceMeters>NAN</DistanceMeters>
          </Trackpoint>
          <Trackpoint>
            <Time>2019-10-10T11:19:23.000Z</Time>
            <Position>
              <LatitudeDegrees>37.768118418753147125244140625</LatitudeDegrees>
              <LongitudeDegrees>-6.1713715083897113800048828125</LongitudeDegrees>
            </Position>
            <AltitudeMeters>335.20001220703125</AltitudeMeters>
            <DistanceMeters>NAN</DistanceMeters>
          </Trackpoint>
          <Trackpoint>
            <Time>2019-10-10T11:19:24.000Z</Time>
            <Position>
              <LatitudeDegrees>37.76804960332810878753662109375</LatitudeDegrees>
              <LongitudeDegrees>-6.17125038988888263702392578125</LongitudeDegrees>
            </Position>
            <AltitudeMeters>334.399993896484375</AltitudeMeters>
            <DistanceMeters>NAN</DistanceMeters>
          </Trackpoint>
          <Trackpoint>
            <Time>2019-10-10T11:19:25.000Z</Time>
            <Position>
              <LatitudeDegrees>37.76798824779689311981201171875</LatitudeDegrees>
              <LongitudeDegrees>-6.17112281732261180877685546875</LongitudeDegrees>
            </Position>
            <AltitudeMeters>333.20001220703125</AltitudeMeters>
            <DistanceMeters>NAN</DistanceMeters>
          </Trackpoint>
          <Trackpoint>
            <Time>2019-10-10T11:19:27.000Z</Time>
            <Position>
              <LatitudeDegrees>37.76788129471242427825927734375</LatitudeDegrees>
              <LongitudeDegrees>-6.17084939964115619659423828125</LongitudeDegrees>
            </Position>
            <AltitudeMeters>331.79998779296875</AltitudeMeters>
            <DistanceMeters>NAN</DistanceMeters>
          </Trackpoint>
          <Trackpoint>
            <Time>2019-10-10T11:19:29.000Z</Time>
            <Position>
              <LatitudeDegrees>37.7677814662456512451171875</LatitudeDegrees>
              <LongitudeDegrees>-6.170561648905277252197265625</LongitudeDegrees>
            </Position>
            <AltitudeMeters>330.20001220703125</AltitudeMeters>
            <DistanceMeters>NAN</DistanceMeters>
          </Trackpoint>
          <Trackpoint>
            <Time>2019-10-10T11:19:30.000Z</Time>
            <Position>
              <LatitudeDegrees>37.76773176155984401702880859375</LatitudeDegrees>
              <LongitudeDegrees>-6.17041848599910736083984375</LongitudeDegrees>
            </Position>
            <AltitudeMeters>329</AltitudeMeters>
            <DistanceMeters>NAN</DistanceMeters>
          </Trackpoint>
          <Trackpoint>
            <Time>2019-10-10T11:19:31.000Z</Time>
            <Position>
              <LatitudeDegrees>37.76767962612211704254150390625</LatitudeDegrees>
              <LongitudeDegrees>-6.1702758260071277618408203125</LongitudeDegrees>
            </Position>
            <AltitudeMeters>327.600006103515625</AltitudeMeters>
            <DistanceMeters>NAN</DistanceMeters>
          </Trackpoint>
          <Trackpoint>
            <Time>2019-10-10T11:19:33.000Z</Time>
            <Position>
              <LatitudeDegrees>37.7675694040954113006591796875</LatitudeDegrees>
              <LongitudeDegrees>-6.1699928529560565948486328125</LongitudeDegrees>
            </Position>
            <AltitudeMeters>325.79998779296875</AltitudeMeters>
            <DistanceMeters>NAN</DistanceMeters>
          </Trackpoint>
          <Trackpoint>
            <Time>2019-10-10T11:19:34.000Z</Time>
            <Position>
              <LatitudeDegrees>37.7675051987171173095703125</LatitudeDegrees>
              <LongitudeDegrees>-6.16985664702951908111572265625</LongitudeDegrees>
            </Position>
            <AltitudeMeters>324.79998779296875</AltitudeMeters>
            <DistanceMeters>NAN</DistanceMeters>
          </Trackpoint>
          <Trackpoint>
            <Time>2019-10-10T11:19:35.000Z</Time>
            <Position>
              <LatitudeDegrees>37.76743344962596893310546875</LatitudeDegrees>
              <LongitudeDegrees>-6.16972655989229679107666015625</LongitudeDegrees>
            </Position>
            <AltitudeMeters>323.600006103515625</AltitudeMeters>
            <DistanceMeters>NAN</DistanceMeters>
          </Trackpoint>
          <Trackpoint>
            <Time>2019-10-10T11:19:36.000Z</Time>
            <Position>
              <LatitudeDegrees>37.7673514746129512786865234375</LatitudeDegrees>
              <LongitudeDegrees>-6.169604770839214324951171875</LongitudeDegrees>
            </Position>
            <AltitudeMeters>322.600006103515625</AltitudeMeters>
            <DistanceMeters>NAN</DistanceMeters>
          </Trackpoint>
          <Trackpoint>
            <Time>2019-10-10T11:19:38.000Z</Time>
            <Position>
              <LatitudeDegrees>37.7671645581722259521484375</LatitudeDegrees>
              <LongitudeDegrees>-6.16939664818346500396728515625</LongitudeDegrees>
            </Position>
            <AltitudeMeters>321</AltitudeMeters>
            <DistanceMeters>NAN</DistanceMeters>
          </Trackpoint>
          <Trackpoint>
            <Time>2019-10-10T11:19:40.000Z</Time>
            <Position>
              <LatitudeDegrees>37.7669575251638889312744140625</LatitudeDegrees>
              <LongitudeDegrees>-6.1692230589687824249267578125</LongitudeDegrees>
            </Position>
            <AltitudeMeters>320.20001220703125</AltitudeMeters>
            <DistanceMeters>NAN</DistanceMeters>
          </Trackpoint>
          <Trackpoint>
            <Time>2019-10-10T11:19:42.000Z</Time>
            <Position>
              <LatitudeDegrees>37.76674822904169559478759765625</LatitudeDegrees>
              <LongitudeDegrees>-6.16905416361987590789794921875</LongitudeDegrees>
            </Position>
            <AltitudeMeters>319.399993896484375</AltitudeMeters>
            <DistanceMeters>NAN</DistanceMeters>
          </Trackpoint>
          <Trackpoint>
            <Time>2019-10-10T11:19:43.000Z</Time>
            <Position>
              <LatitudeDegrees>37.76664311997592449188232421875</LatitudeDegrees>
              <LongitudeDegrees>-6.1689695902168750762939453125</LongitudeDegrees>
            </Position>
            <AltitudeMeters>318.20001220703125</AltitudeMeters>
            <DistanceMeters>NAN</DistanceMeters>
          </Trackpoint>
          <Trackpoint>
            <Time>2019-10-10T11:19:44.000Z</Time>
            <Position>
              <LatitudeDegrees>37.766537927091121673583984375</LatitudeDegrees>
              <LongitudeDegrees>-6.16888468153774738311767578125</LongitudeDegrees>
            </Position>
            <AltitudeMeters>317.600006103515625</AltitudeMeters>
            <DistanceMeters>NAN</DistanceMeters>
          </Trackpoint>
          <Trackpoint>
            <Time>2019-10-10T11:19:45.000Z</Time>
            <Position>
              <LatitudeDegrees>37.7664338238537311553955078125</LatitudeDegrees>
              <LongitudeDegrees>-6.16880002431571483612060546875</LongitudeDegrees>
            </Position>
            <AltitudeMeters>317</AltitudeMeters>
            <DistanceMeters>NAN</DistanceMeters>
          </Trackpoint>
          <Trackpoint>
            <Time>2019-10-10T11:19:47.000Z</Time>
            <Position>
              <LatitudeDegrees>37.76622402481734752655029296875</LatitudeDegrees>
              <LongitudeDegrees>-6.16863138042390346527099609375</LongitudeDegrees>
            </Position>
            <AltitudeMeters>315.600006103515625</AltitudeMeters>
            <DistanceMeters>NAN</DistanceMeters>
          </Trackpoint>
          <Trackpoint>
            <Time>2019-10-10T11:19:49.000Z</Time>
            <Position>
              <LatitudeDegrees>37.76601011864840984344482421875</LatitudeDegrees>
              <LongitudeDegrees>-6.168462149798870086669921875</LongitudeDegrees>
            </Position>
            <AltitudeMeters>313.79998779296875</AltitudeMeters>
            <DistanceMeters>NAN</DistanceMeters>
          </Trackpoint>
          <Trackpoint>
            <Time>2019-10-10T11:19:51.000Z</Time>
            <Position>
              <LatitudeDegrees>37.765798978507518768310546875</LatitudeDegrees>
              <LongitudeDegrees>-6.16829283535480499267578125</LongitudeDegrees>
            </Position>
            <AltitudeMeters>312.20001220703125</AltitudeMeters>
            <DistanceMeters>NAN</DistanceMeters>
          </Trackpoint>
          <Trackpoint>
            <Time>2019-10-10T11:19:52.000Z</Time>
            <Position>
              <LatitudeDegrees>37.76569311507046222686767578125</LatitudeDegrees>
              <LongitudeDegrees>-6.168208681046962738037109375</LongitudeDegrees>
            </Position>
            <AltitudeMeters>311.600006103515625</AltitudeMeters>
            <DistanceMeters>NAN</DistanceMeters>
          </Trackpoint>
          <Trackpoint>
            <Time>2019-10-10T11:19:53.000Z</Time>
            <Position>
              <LatitudeDegrees>37.76558733545243740081787109375</LatitudeDegrees>
              <LongitudeDegrees>-6.1681223474442958831787109375</LongitudeDegrees>
            </Position>
            <AltitudeMeters>311.20001220703125</AltitudeMeters>
            <DistanceMeters>NAN</DistanceMeters>
          </Trackpoint>
          <Trackpoint>
            <Time>2019-10-10T11:19:55.000Z</Time>
            <Position>
              <LatitudeDegrees>37.7653770335018634796142578125</LatitudeDegrees>
              <LongitudeDegrees>-6.1679543741047382354736328125</LongitudeDegrees>
            </Position>
            <AltitudeMeters>308.79998779296875</AltitudeMeters>
            <DistanceMeters>NAN</DistanceMeters>
          </Trackpoint>
          <Trackpoint>
            <Time>2019-10-10T11:19:56.000Z</Time>
            <Position>
              <LatitudeDegrees>37.76527200825512409210205078125</LatitudeDegrees>
              <LongitudeDegrees>-6.16786904633045196533203125</LongitudeDegrees>
            </Position>
            <AltitudeMeters>307.20001220703125</AltitudeMeters>
            <DistanceMeters>NAN</DistanceMeters>
          </Trackpoint>
          <Trackpoint>
            <Time>2019-10-10T11:19:58.000Z</Time>
            <Position>
              <LatitudeDegrees>37.7650617063045501708984375</LatitudeDegrees>
              <LongitudeDegrees>-6.1677019111812114715576171875</LongitudeDegrees>
            </Position>
            <AltitudeMeters>306</AltitudeMeters>
            <DistanceMeters>NAN</DistanceMeters>
          </Trackpoint>
          <Trackpoint>
            <Time>2019-10-10T11:20:00.000Z</Time>
            <Position>
              <LatitudeDegrees>37.7648550085723400115966796875</LatitudeDegrees>
              <LongitudeDegrees>-6.1675357818603515625</LongitudeDegrees>
            </Position>
            <AltitudeMeters>304.20001220703125</AltitudeMeters>
            <DistanceMeters>NAN</DistanceMeters>
          </Trackpoint>
          <Trackpoint>
            <Time>2019-10-10T11:20:01.000Z</Time>
            <Position>
              <LatitudeDegrees>37.76475115679204463958740234375</LatitudeDegrees>
              <LongitudeDegrees>-6.16745640523731708526611328125</LongitudeDegrees>
            </Position>
            <AltitudeMeters>303.600006103515625</AltitudeMeters>
            <DistanceMeters>NAN</DistanceMeters>
          </Trackpoint>
          <Trackpoint>
            <Time>2019-10-10T11:20:02.000Z</Time>
            <Position>
              <LatitudeDegrees>37.76464738883078098297119140625</LatitudeDegrees>
              <LongitudeDegrees>-6.167379878461360931396484375</LongitudeDegrees>
            </Position>
            <AltitudeMeters>302.79998779296875</AltitudeMeters>
            <DistanceMeters>NAN</DistanceMeters>
          </Trackpoint>
          <Trackpoint>
            <Time>2019-10-10T11:20:03.000Z</Time>
            <Position>
              <LatitudeDegrees>37.76454445905983448028564453125</LatitudeDegrees>
              <LongitudeDegrees>-6.16730301640927791595458984375</LongitudeDegrees>
            </Position>
            <AltitudeMeters>302</AltitudeMeters>
            <DistanceMeters>NAN</DistanceMeters>
          </Trackpoint>
          <Trackpoint>
            <Time>2019-10-10T11:20:04.000Z</Time>
            <Position>
              <LatitudeDegrees>37.764441780745983123779296875</LatitudeDegrees>
              <LongitudeDegrees>-6.1672315187752246856689453125</LongitudeDegrees>
            </Position>
            <AltitudeMeters>300.79998779296875</AltitudeMeters>
            <DistanceMeters>NAN</DistanceMeters>
          </Trackpoint>
          <Trackpoint>
            <Time>2019-10-10T11:20:06.000Z</Time>
            <Position>
              <LatitudeDegrees>37.764231227338314056396484375</LatitudeDegrees>
              <LongitudeDegrees>-6.167099587619304656982421875</LongitudeDegrees>
            </Position>
            <AltitudeMeters>300</AltitudeMeters>
            <DistanceMeters>NAN</DistanceMeters>
          </Trackpoint>
          <Trackpoint>
            <Time>2019-10-10T11:20:08.000Z</Time>
            <Position>
              <LatitudeDegrees>37.76400751434266567230224609375</LatitudeDegrees>
              <LongitudeDegrees>-6.16699925623834133148193359375</LongitudeDegrees>
            </Position>
            <AltitudeMeters>299.600006103515625</AltitudeMeters>
            <DistanceMeters>NAN</DistanceMeters>
          </Trackpoint>
          <Trackpoint>
            <Time>2019-10-10T11:20:09.000Z</Time>
            <Position>
              <LatitudeDegrees>37.763891927897930145263671875</LatitudeDegrees>
              <LongitudeDegrees>-6.16696572862565517425537109375</LongitudeDegrees>
            </Position>
            <AltitudeMeters>298.600006103515625</AltitudeMeters>
            <DistanceMeters>NAN</DistanceMeters>
          </Trackpoint>
          <Trackpoint>
            <Time>2019-10-10T11:20:11.000Z</Time>
            <Position>
              <LatitudeDegrees>37.76365798898041248321533203125</LatitudeDegrees>
              <LongitudeDegrees>-6.1669247411191463470458984375</LongitudeDegrees>
            </Position>
            <AltitudeMeters>296.600006103515625</AltitudeMeters>
            <DistanceMeters>NAN</DistanceMeters>
          </Trackpoint>
          <Trackpoint>
            <Time>2019-10-10T11:20:12.000Z</Time>
            <Position>
              <LatitudeDegrees>37.7635407261550426483154296875</LatitudeDegrees>
              <LongitudeDegrees>-6.16691526956856250762939453125</LongitudeDegrees>
            </Position>
            <AltitudeMeters>295.600006103515625</AltitudeMeters>
            <DistanceMeters>NAN</DistanceMeters>
          </Trackpoint>
          <Trackpoint>
            <Time>2019-10-10T11:20:13.000Z</Time>
            <Position>
              <LatitudeDegrees>37.7634227089583873748779296875</LatitudeDegrees>
              <LongitudeDegrees>-6.16691342554986476898193359375</LongitudeDegrees>
            </Position>
            <AltitudeMeters>295</AltitudeMeters>
            <DistanceMeters>NAN</DistanceMeters>
          </Trackpoint>
          <Trackpoint>
            <Time>2019-10-10T11:20:14.000Z</Time>
            <Position>
              <LatitudeDegrees>37.76330578140914440155029296875</LatitudeDegrees>
              <LongitudeDegrees>-6.16692365147173404693603515625</LongitudeDegrees>
            </Position>
            <AltitudeMeters>294.600006103515625</AltitudeMeters>
            <DistanceMeters>NAN</DistanceMeters>
          </Trackpoint>
          <Trackpoint>
            <Time>2019-10-10T11:20:16.000Z</Time>
            <Position>
              <LatitudeDegrees>37.76307008229196071624755859375</LatitudeDegrees>
              <LongitudeDegrees>-6.1669646389782428741455078125</LongitudeDegrees>
            </Position>
            <AltitudeMeters>294</AltitudeMeters>
            <DistanceMeters>NAN</DistanceMeters>
          </Trackpoint>
          <Trackpoint>
            <Time>2019-10-10T11:20:17.000Z</Time>
            <Position>
              <LatitudeDegrees>37.762952484190464019775390625</LatitudeDegrees>
              <LongitudeDegrees>-6.16699070669710636138916015625</LongitudeDegrees>
            </Position>
            <AltitudeMeters>293.399993896484375</AltitudeMeters>
            <DistanceMeters>NAN</DistanceMeters>
          </Trackpoint>
          <Trackpoint>
            <Time>2019-10-10T11:20:18.000Z</Time>
            <Position>
              <LatitudeDegrees>37.762837149202823638916015625</LatitudeDegrees>
              <LongitudeDegrees>-6.16702892817556858062744140625</LongitudeDegrees>
            </Position>
            <AltitudeMeters>292.79998779296875</AltitudeMeters>
            <DistanceMeters>NAN</DistanceMeters>
          </Trackpoint>
          <Trackpoint>
            <Time>2019-10-10T11:20:19.000Z</Time>
            <Position>
              <LatitudeDegrees>37.76272290386259555816650390625</LatitudeDegrees>
              <LongitudeDegrees>-6.167073436081409454345703125</LongitudeDegrees>
            </Position>
            <AltitudeMeters>292</AltitudeMeters>
            <DistanceMeters>NAN</DistanceMeters>
          </Trackpoint>
          <Trackpoint>
            <Time>2019-10-10T11:20:20.000Z</Time>
            <Position>
              <LatitudeDegrees>37.76260790415108203887939453125</LatitudeDegrees>
              <LongitudeDegrees>-6.1671186983585357666015625</LongitudeDegrees>
            </Position>
            <AltitudeMeters>291.399993896484375</AltitudeMeters>
            <DistanceMeters>NAN</DistanceMeters>
          </Trackpoint>
          <Trackpoint>
            <Time>2019-10-10T11:20:21.000Z</Time>
            <Position>
              <LatitudeDegrees>37.76249189861118793487548828125</LatitudeDegrees>
              <LongitudeDegrees>-6.167162619531154632568359375</LongitudeDegrees>
            </Position>
            <AltitudeMeters>291</AltitudeMeters>
            <DistanceMeters>NAN</DistanceMeters>
          </Trackpoint>
          <Trackpoint>
            <Time>2019-10-10T11:20:23.000Z</Time>
            <Position>
              <LatitudeDegrees>37.76226156391203403472900390625</LatitudeDegrees>
              <LongitudeDegrees>-6.16724233143031597137451171875</LongitudeDegrees>
            </Position>
            <AltitudeMeters>289.20001220703125</AltitudeMeters>
            <DistanceMeters>NAN</DistanceMeters>
          </Trackpoint>
          <Trackpoint>
            <Time>2019-10-10T11:20:24.000Z</Time>
            <Position>
              <LatitudeDegrees>37.7621461451053619384765625</LatitudeDegrees>
              <LongitudeDegrees>-6.16727267391979694366455078125</LongitudeDegrees>
            </Position>
            <AltitudeMeters>288</AltitudeMeters>
            <DistanceMeters>NAN</DistanceMeters>
          </Trackpoint>
          <Trackpoint>
            <Time>2019-10-10T11:20:26.000Z</Time>
            <Position>
              <LatitudeDegrees>37.76191606186330318450927734375</LatitudeDegrees>
              <LongitudeDegrees>-6.16731441579759120941162109375</LongitudeDegrees>
            </Position>
            <AltitudeMeters>287.600006103515625</AltitudeMeters>
            <DistanceMeters>NAN</DistanceMeters>
          </Trackpoint>
          <Trackpoint>
            <Time>2019-10-10T11:20:28.000Z</Time>
            <Position>
              <LatitudeDegrees>37.761688493192195892333984375</LatitudeDegrees>
              <LongitudeDegrees>-6.16732665337622165679931640625</LongitudeDegrees>
            </Position>
            <AltitudeMeters>286.20001220703125</AltitudeMeters>
            <DistanceMeters>NAN</DistanceMeters>
          </Trackpoint>
          <Trackpoint>
            <Time>2019-10-10T11:20:29.000Z</Time>
            <Position>
              <LatitudeDegrees>37.76157625950872898101806640625</LatitudeDegrees>
              <LongitudeDegrees>-6.16732187569141387939453125</LongitudeDegrees>
            </Position>
            <AltitudeMeters>285</AltitudeMeters>
            <DistanceMeters>NAN</DistanceMeters>
          </Trackpoint>
          <Trackpoint>
            <Time>2019-10-10T11:20:30.000Z</Time>
            <Position>
              <LatitudeDegrees>37.761463858187198638916015625</LatitudeDegrees>
              <LongitudeDegrees>-6.167307458817958831787109375</LongitudeDegrees>
            </Position>
            <AltitudeMeters>284.399993896484375</AltitudeMeters>
            <DistanceMeters>NAN</DistanceMeters>
          </Trackpoint>
          <Trackpoint>
            <Time>2019-10-10T11:20:31.000Z</Time>
            <Position>
              <LatitudeDegrees>37.7613547258079051971435546875</LatitudeDegrees>
              <LongitudeDegrees>-6.16728759370744228363037109375</LongitudeDegrees>
            </Position>
            <AltitudeMeters>283.399993896484375</AltitudeMeters>
            <DistanceMeters>NAN</DistanceMeters>
          </Trackpoint>
          <Trackpoint>
            <Time>2019-10-10T11:20:35.000Z</Time>
            <Position>
              <LatitudeDegrees>37.76093856431543827056884765625</LatitudeDegrees>
              <LongitudeDegrees>-6.16713588126003742218017578125</LongitudeDegrees>
            </Position>
            <AltitudeMeters>283.399993896484375</AltitudeMeters>
            <DistanceMeters>NAN</DistanceMeters>
          </Trackpoint>
          <Trackpoint>
            <Time>2019-10-10T11:20:37.000Z</Time>
            <Position>
              <LatitudeDegrees>37.76074133813381195068359375</LatitudeDegrees>
              <LongitudeDegrees>-6.1670248210430145263671875</LongitudeDegrees>
            </Position>
            <AltitudeMeters>283.20001220703125</AltitudeMeters>
            <DistanceMeters>NAN</DistanceMeters>
          </Trackpoint>
          <Trackpoint>
            <Time>2019-10-10T11:20:39.000Z</Time>
            <Position>
              <LatitudeDegrees>37.7605557627975940704345703125</LatitudeDegrees>
              <LongitudeDegrees>-6.16689330898225307464599609375</LongitudeDegrees>
            </Position>
            <AltitudeMeters>282.20001220703125</AltitudeMeters>
            <DistanceMeters>NAN</DistanceMeters>
          </Trackpoint>
          <Trackpoint>
            <Time>2019-10-10T11:20:40.000Z</Time>
            <Position>
              <LatitudeDegrees>37.76046775281429290771484375</LatitudeDegrees>
              <LongitudeDegrees>-6.16681921295821666717529296875</LongitudeDegrees>
            </Position>
            <AltitudeMeters>281.600006103515625</AltitudeMeters>
            <DistanceMeters>NAN</DistanceMeters>
          </Trackpoint>
          <Trackpoint>
            <Time>2019-10-10T11:20:41.000Z</Time>
            <Position>
              <LatitudeDegrees>37.7603827603161334991455078125</LatitudeDegrees>
              <LongitudeDegrees>-6.16674042306840419769287109375</LongitudeDegrees>
            </Position>
            <AltitudeMeters>281</AltitudeMeters>
            <DistanceMeters>NAN</DistanceMeters>
          </Trackpoint>
          <Trackpoint>
            <Time>2019-10-10T11:20:45.000Z</Time>
            <Position>
              <LatitudeDegrees>37.76006483472883701324462890625</LatitudeDegrees>
              <LongitudeDegrees>-6.1664040572941303253173828125</LongitudeDegrees>
            </Position>
            <AltitudeMeters>279.79998779296875</AltitudeMeters>
            <DistanceMeters>NAN</DistanceMeters>
          </Trackpoint>
          <Trackpoint>
            <Time>2019-10-10T11:20:46.000Z</Time>
            <Position>
              <LatitudeDegrees>37.75999057106673717498779296875</LatitudeDegrees>
              <LongitudeDegrees>-6.166309677064418792724609375</LongitudeDegrees>
            </Position>
            <AltitudeMeters>279.20001220703125</AltitudeMeters>
            <DistanceMeters>NAN</DistanceMeters>
          </Trackpoint>
          <Trackpoint>
            <Time>2019-10-10T11:20:47.000Z</Time>
            <Position>
              <LatitudeDegrees>37.75991513393819332122802734375</LatitudeDegrees>
              <LongitudeDegrees>-6.1662240140140056610107421875</LongitudeDegrees>
            </Position>
            <AltitudeMeters>278.20001220703125</AltitudeMeters>
            <DistanceMeters>NAN</DistanceMeters>
          </Trackpoint>
          <Trackpoint>
            <Time>2019-10-10T11:20:49.000Z</Time>
            <Position>
              <LatitudeDegrees>37.7597641758620738983154296875</LatitudeDegrees>
              <LongitudeDegrees>-6.16605696268379688262939453125</LongitudeDegrees>
            </Position>
            <AltitudeMeters>277.20001220703125</AltitudeMeters>
            <DistanceMeters>NAN</DistanceMeters>
          </Trackpoint>
          <Trackpoint>
            <Time>2019-10-10T11:20:51.000Z</Time>
            <Position>
              <LatitudeDegrees>37.759612463414669036865234375</LatitudeDegrees>
              <LongitudeDegrees>-6.1658927612006664276123046875</LongitudeDegrees>
            </Position>
            <AltitudeMeters>277.399993896484375</AltitudeMeters>
            <DistanceMeters>NAN</DistanceMeters>
          </Trackpoint>
          <Trackpoint>
            <Time>2019-10-10T11:20:55.000Z</Time>
            <Position>
              <LatitudeDegrees>37.759293280541896820068359375</LatitudeDegrees>
              <LongitudeDegrees>-6.16559009067714214324951171875</LongitudeDegrees>
            </Position>
            <AltitudeMeters>276.399993896484375</AltitudeMeters>
            <DistanceMeters>NAN</DistanceMeters>
          </Trackpoint>
          <Trackpoint>
            <Time>2019-10-10T11:20:56.000Z</Time>
            <Position>
              <LatitudeDegrees>37.759207449853420257568359375</LatitudeDegrees>
              <LongitudeDegrees>-6.16552555002272129058837890625</LongitudeDegrees>
            </Position>
            <AltitudeMeters>275.600006103515625</AltitudeMeters>
            <DistanceMeters>NAN</DistanceMeters>
          </Trackpoint>
          <Trackpoint>
            <Time>2019-10-10T11:20:57.000Z</Time>
            <Position>
              <LatitudeDegrees>37.7591167576611042022705078125</LatitudeDegrees>
              <LongitudeDegrees>-6.1654723249375820159912109375</LongitudeDegrees>
            </Position>
            <AltitudeMeters>275</AltitudeMeters>
            <DistanceMeters>NAN</DistanceMeters>
          </Trackpoint>
          <Trackpoint>
            <Time>2019-10-10T11:20:58.000Z</Time>
            <Position>
              <LatitudeDegrees>37.75902430526912212371826171875</LatitudeDegrees>
              <LongitudeDegrees>-6.16542547009885311126708984375</LongitudeDegrees>
            </Position>
            <AltitudeMeters>274.600006103515625</AltitudeMeters>
            <DistanceMeters>NAN</DistanceMeters>
          </Trackpoint>
          <Trackpoint>
            <Time>2019-10-10T11:21:01.000Z</Time>
            <Position>
              <LatitudeDegrees>37.758740074932575225830078125</LatitudeDegrees>
              <LongitudeDegrees>-6.16532706655561923980712890625</LongitudeDegrees>
            </Position>
            <AltitudeMeters>274.399993896484375</AltitudeMeters>
            <DistanceMeters>NAN</DistanceMeters>
          </Trackpoint>
          <Trackpoint>
            <Time>2019-10-10T11:21:03.000Z</Time>
            <Position>
              <LatitudeDegrees>37.75854418985545635223388671875</LatitudeDegrees>
              <LongitudeDegrees>-6.1652999930083751678466796875</LongitudeDegrees>
            </Position>
            <AltitudeMeters>273</AltitudeMeters>
            <DistanceMeters>NAN</DistanceMeters>
          </Trackpoint>
          <Trackpoint>
            <Time>2019-10-10T11:21:05.000Z</Time>
            <Position>
              <LatitudeDegrees>37.7583489753305912017822265625</LatitudeDegrees>
              <LongitudeDegrees>-6.16530208848416805267333984375</LongitudeDegrees>
            </Position>
            <AltitudeMeters>271.79998779296875</AltitudeMeters>
            <DistanceMeters>NAN</DistanceMeters>
          </Trackpoint>
          <Trackpoint>
            <Time>2019-10-10T11:21:06.000Z</Time>
            <Position>
              <LatitudeDegrees>37.7582520805299282073974609375</LatitudeDegrees>
              <LongitudeDegrees>-6.16530795581638813018798828125</LongitudeDegrees>
            </Position>
            <AltitudeMeters>271.79998779296875</AltitudeMeters>
            <DistanceMeters>NAN</DistanceMeters>
          </Trackpoint>
          <Trackpoint>
            <Time>2019-10-10T11:21:12.000Z</Time>
            <Position>
              <LatitudeDegrees>37.75768764317035675048828125</LatitudeDegrees>
              <LongitudeDegrees>-6.165391691029071807861328125</LongitudeDegrees>
            </Position>
            <AltitudeMeters>271.399993896484375</AltitudeMeters>
            <DistanceMeters>NAN</DistanceMeters>
          </Trackpoint>
          <Trackpoint>
            <Time>2019-10-10T11:21:13.000Z</Time>
            <Position>
              <LatitudeDegrees>37.7575986273586750030517578125</LatitudeDegrees>
              <LongitudeDegrees>-6.16542714647948741912841796875</LongitudeDegrees>
            </Position>
            <AltitudeMeters>271.600006103515625</AltitudeMeters>
            <DistanceMeters>NAN</DistanceMeters>
          </Trackpoint>
          <Trackpoint>
            <Time>2019-10-10T11:21:18.000Z</Time>
            <Position>
              <LatitudeDegrees>37.75720342062413692474365234375</LatitudeDegrees>
              <LongitudeDegrees>-6.16568061523139476776123046875</LongitudeDegrees>
            </Position>
            <AltitudeMeters>271.79998779296875</AltitudeMeters>
            <DistanceMeters>NAN</DistanceMeters>
          </Trackpoint>
          <Trackpoint>
            <Time>2019-10-10T11:21:23.000Z</Time>
            <Position>
              <LatitudeDegrees>37.756873928010463714599609375</LatitudeDegrees>
              <LongitudeDegrees>-6.1660258658230304718017578125</LongitudeDegrees>
            </Position>
            <AltitudeMeters>271.79998779296875</AltitudeMeters>
            <DistanceMeters>NAN</DistanceMeters>
          </Trackpoint>
          <Trackpoint>
            <Time>2019-10-10T11:21:30.000Z</Time>
            <Position>
              <LatitudeDegrees>37.75649682618677616119384765625</LatitudeDegrees>
              <LongitudeDegrees>-6.16657513193786144256591796875</LongitudeDegrees>
            </Position>
            <AltitudeMeters>271.600006103515625</AltitudeMeters>
            <DistanceMeters>NAN</DistanceMeters>
          </Trackpoint>
          <Trackpoint>
            <Time>2019-10-10T11:21:37.000Z</Time>
            <Position>
              <LatitudeDegrees>37.75615098886191844940185546875</LatitudeDegrees>
              <LongitudeDegrees>-6.16708986461162567138671875</LongitudeDegrees>
            </Position>
            <AltitudeMeters>271.79998779296875</AltitudeMeters>
            <DistanceMeters>NAN</DistanceMeters>
          </Trackpoint>
          <Trackpoint>
            <Time>2019-10-10T11:21:42.000Z</Time>
            <Position>
              <LatitudeDegrees>37.75589249096810817718505859375</LatitudeDegrees>
              <LongitudeDegrees>-6.16747073829174041748046875</LongitudeDegrees>
            </Position>
            <AltitudeMeters>270.79998779296875</AltitudeMeters>
            <DistanceMeters>NAN</DistanceMeters>
          </Trackpoint>
          <Trackpoint>
            <Time>2019-10-10T11:21:44.000Z</Time>
            <Position>
              <LatitudeDegrees>37.7557785809040069580078125</LatitudeDegrees>
              <LongitudeDegrees>-6.167644076049327850341796875</LongitudeDegrees>
            </Position>
            <AltitudeMeters>269.79998779296875</AltitudeMeters>
            <DistanceMeters>NAN</DistanceMeters>
          </Trackpoint>
          <Trackpoint>
            <Time>2019-10-10T11:21:45.000Z</Time>
            <Position>
              <LatitudeDegrees>37.7557187341153621673583984375</LatitudeDegrees>
              <LongitudeDegrees>-6.16773300804197788238525390625</LongitudeDegrees>
            </Position>
            <AltitudeMeters>269.79998779296875</AltitudeMeters>
            <DistanceMeters>NAN</DistanceMeters>
          </Trackpoint>
          <Trackpoint>
            <Time>2019-10-10T11:21:47.000Z</Time>
            <Position>
              <LatitudeDegrees>37.7555956877768039703369140625</LatitudeDegrees>
              <LongitudeDegrees>-6.16791841574013233184814453125</LongitudeDegrees>
            </Position>
            <AltitudeMeters>267.600006103515625</AltitudeMeters>
            <DistanceMeters>NAN</DistanceMeters>
          </Trackpoint>
          <Trackpoint>
            <Time>2019-10-10T11:21:48.000Z</Time>
            <Position>
              <LatitudeDegrees>37.7555346675217151641845703125</LatitudeDegrees>
              <LongitudeDegrees>-6.16801195777952671051025390625</LongitudeDegrees>
            </Position>
            <AltitudeMeters>266.20001220703125</AltitudeMeters>
            <DistanceMeters>NAN</DistanceMeters>
          </Trackpoint>
          <Trackpoint>
            <Time>2019-10-10T11:21:51.000Z</Time>
            <Position>
              <LatitudeDegrees>37.7553552947938442230224609375</LatitudeDegrees>
              <LongitudeDegrees>-6.1682809330523014068603515625</LongitudeDegrees>
            </Position>
            <AltitudeMeters>265.79998779296875</AltitudeMeters>
            <DistanceMeters>NAN</DistanceMeters>
          </Trackpoint>
          <Trackpoint>
            <Time>2019-10-10T11:21:58.000Z</Time>
            <Position>
              <LatitudeDegrees>37.754960842430591583251953125</LatitudeDegrees>
              <LongitudeDegrees>-6.1688549257814884185791015625</LongitudeDegrees>
            </Position>
            <AltitudeMeters>266.399993896484375</AltitudeMeters>
            <DistanceMeters>NAN</DistanceMeters>
          </Trackpoint>
          <Trackpoint>
            <Time>2019-10-10T11:21:59.000Z</Time>
            <Position>
              <LatitudeDegrees>37.754905521869659423828125</LatitudeDegrees>
              <LongitudeDegrees>-6.16892742924392223358154296875</LongitudeDegrees>
            </Position>
            <AltitudeMeters>266.399993896484375</AltitudeMeters>
            <DistanceMeters>NAN</DistanceMeters>
          </Trackpoint>
          <Trackpoint>
            <Time>2019-10-10T11:22:05.000Z</Time>
            <Position>
              <LatitudeDegrees>37.75456488132476806640625</LatitudeDegrees>
              <LongitudeDegrees>-6.169282235205173492431640625</LongitudeDegrees>
            </Position>
            <AltitudeMeters>266.399993896484375</AltitudeMeters>
            <DistanceMeters>NAN</DistanceMeters>
          </Trackpoint>
          <Trackpoint>
            <Time>2019-10-10T11:22:07.000Z</Time>
            <Position>
              <LatitudeDegrees>37.75444661267101764678955078125</LatitudeDegrees>
              <LongitudeDegrees>-6.1693752743303775787353515625</LongitudeDegrees>
            </Position>
            <AltitudeMeters>267.399993896484375</AltitudeMeters>
            <DistanceMeters>NAN</DistanceMeters>
          </Trackpoint>
          <Trackpoint>
            <Time>2019-10-10T11:22:10.000Z</Time>
            <Position>
              <LatitudeDegrees>37.75426841340959072113037109375</LatitudeDegrees>
              <LongitudeDegrees>-6.16950251162052154541015625</LongitudeDegrees>
            </Position>
            <AltitudeMeters>268</AltitudeMeters>
            <DistanceMeters>NAN</DistanceMeters>
          </Trackpoint>
          <Trackpoint>
            <Time>2019-10-10T11:22:12.000Z</Time>
            <Position>
              <LatitudeDegrees>37.7541422657668590545654296875</LatitudeDegrees>
              <LongitudeDegrees>-6.169576607644557952880859375</LongitudeDegrees>
            </Position>
            <AltitudeMeters>267.600006103515625</AltitudeMeters>
            <DistanceMeters>NAN</DistanceMeters>
          </Trackpoint>
          <Trackpoint>
            <Time>2019-10-10T11:22:16.000Z</Time>
            <Position>
              <LatitudeDegrees>37.75386591441929340362548828125</LatitudeDegrees>
              <LongitudeDegrees>-6.1697209440171718597412109375</LongitudeDegrees>
            </Position>
            <AltitudeMeters>267.20001220703125</AltitudeMeters>
            <DistanceMeters>NAN</DistanceMeters>
          </Trackpoint>
          <Trackpoint>
            <Time>2019-10-10T11:22:19.000Z</Time>
            <Position>
              <LatitudeDegrees>37.7536470629274845123291015625</LatitudeDegrees>
              <LongitudeDegrees>-6.16983703337609767913818359375</LongitudeDegrees>
            </Position>
            <AltitudeMeters>266.399993896484375</AltitudeMeters>
            <DistanceMeters>NAN</DistanceMeters>
          </Trackpoint>
          <Trackpoint>
            <Time>2019-10-10T11:22:25.000Z</Time>
            <Position>
              <LatitudeDegrees>37.7532185800373554229736328125</LatitudeDegrees>
              <LongitudeDegrees>-6.1700699664652347564697265625</LongitudeDegrees>
            </Position>
            <AltitudeMeters>265.399993896484375</AltitudeMeters>
            <DistanceMeters>NAN</DistanceMeters>
          </Trackpoint>
          <Trackpoint>
            <Time>2019-10-10T11:22:30.000Z</Time>
            <Position>
              <LatitudeDegrees>37.7528755925595760345458984375</LatitudeDegrees>
              <LongitudeDegrees>-6.17026149295270442962646484375</LongitudeDegrees>
            </Position>
            <AltitudeMeters>266.399993896484375</AltitudeMeters>
            <DistanceMeters>NAN</DistanceMeters>
          </Trackpoint>
          <Trackpoint>
            <Time>2019-10-10T11:22:35.000Z</Time>
            <Position>
              <LatitudeDegrees>37.75255196727812290191650390625</LatitudeDegrees>
              <LongitudeDegrees>-6.1704243533313274383544921875</LongitudeDegrees>
            </Position>
            <AltitudeMeters>267.600006103515625</AltitudeMeters>
            <DistanceMeters>NAN</DistanceMeters>
          </Trackpoint>
          <Trackpoint>
            <Time>2019-10-10T11:22:37.000Z</Time>
            <Position>
              <LatitudeDegrees>37.75242338888347148895263671875</LatitudeDegrees>
              <LongitudeDegrees>-6.17047674022614955902099609375</LongitudeDegrees>
            </Position>
            <AltitudeMeters>267.399993896484375</AltitudeMeters>
            <DistanceMeters>NAN</DistanceMeters>
          </Trackpoint>
          <Trackpoint>
            <Time>2019-10-10T11:22:43.000Z</Time>
            <Position>
              <LatitudeDegrees>37.75204301811754703521728515625</LatitudeDegrees>
              <LongitudeDegrees>-6.1705604754388332366943359375</LongitudeDegrees>
            </Position>
            <AltitudeMeters>268.600006103515625</AltitudeMeters>
            <DistanceMeters>NAN</DistanceMeters>
          </Trackpoint>
          <Trackpoint>
            <Time>2019-10-10T11:22:44.000Z</Time>
            <Position>
              <LatitudeDegrees>37.75197914801537990570068359375</LatitudeDegrees>
              <LongitudeDegrees>-6.1705628223717212677001953125</LongitudeDegrees>
            </Position>
            <AltitudeMeters>268.79998779296875</AltitudeMeters>
            <DistanceMeters>NAN</DistanceMeters>
          </Trackpoint>
          <Trackpoint>
            <Time>2019-10-10T11:22:48.000Z</Time>
            <Position>
              <LatitudeDegrees>37.75173540227115154266357421875</LatitudeDegrees>
              <LongitudeDegrees>-6.1705463938415050506591796875</LongitudeDegrees>
            </Position>
            <AltitudeMeters>269.79998779296875</AltitudeMeters>
            <DistanceMeters>NAN</DistanceMeters>
          </Trackpoint>
          <Trackpoint>
            <Time>2019-10-10T11:22:50.000Z</Time>
            <Position>
              <LatitudeDegrees>37.7516183070838451385498046875</LatitudeDegrees>
              <LongitudeDegrees>-6.17051932029426097869873046875</LongitudeDegrees>
            </Position>
            <AltitudeMeters>268.79998779296875</AltitudeMeters>
            <DistanceMeters>NAN</DistanceMeters>
          </Trackpoint>
          <Trackpoint>
            <Time>2019-10-10T11:22:51.000Z</Time>
            <Position>
              <LatitudeDegrees>37.75155887939035892486572265625</LatitudeDegrees>
              <LongitudeDegrees>-6.170504987239837646484375</LongitudeDegrees>
            </Position>
            <AltitudeMeters>267.79998779296875</AltitudeMeters>
            <DistanceMeters>NAN</DistanceMeters>
          </Trackpoint>
          <Trackpoint>
            <Time>2019-10-10T11:22:56.000Z</Time>
            <Position>
              <LatitudeDegrees>37.75125042535364627838134765625</LatitudeDegrees>
              <LongitudeDegrees>-6.1703837849199771881103515625</LongitudeDegrees>
            </Position>
            <AltitudeMeters>266.79998779296875</AltitudeMeters>
            <DistanceMeters>NAN</DistanceMeters>
          </Trackpoint>
          <Trackpoint>
            <Time>2019-10-10T11:22:58.000Z</Time>
            <Position>
              <LatitudeDegrees>37.7511110343039035797119140625</LatitudeDegrees>
              <LongitudeDegrees>-6.17030759342014789581298828125</LongitudeDegrees>
            </Position>
            <AltitudeMeters>266.600006103515625</AltitudeMeters>
            <DistanceMeters>NAN</DistanceMeters>
          </Trackpoint>
          <Trackpoint>
            <Time>2019-10-10T11:23:00.000Z</Time>
            <Position>
              <LatitudeDegrees>37.7509665302932262420654296875</LatitudeDegrees>
              <LongitudeDegrees>-6.17022058926522731781005859375</LongitudeDegrees>
            </Position>
            <AltitudeMeters>265.399993896484375</AltitudeMeters>
            <DistanceMeters>NAN</DistanceMeters>
          </Trackpoint>
          <Trackpoint>
            <Time>2019-10-10T11:23:02.000Z</Time>
            <Position>
              <LatitudeDegrees>37.75081322528421878814697265625</LatitudeDegrees>
              <LongitudeDegrees>-6.17012587375938892364501953125</LongitudeDegrees>
            </Position>
            <AltitudeMeters>264.20001220703125</AltitudeMeters>
            <DistanceMeters>NAN</DistanceMeters>
          </Trackpoint>
          <Trackpoint>
            <Time>2019-10-10T11:23:04.000Z</Time>
            <Position>
              <LatitudeDegrees>37.7506528794765472412109375</LatitudeDegrees>
              <LongitudeDegrees>-6.17003082297742366790771484375</LongitudeDegrees>
            </Position>
            <AltitudeMeters>262.79998779296875</AltitudeMeters>
            <DistanceMeters>NAN</DistanceMeters>
          </Trackpoint>
          <Trackpoint>
            <Time>2019-10-10T11:23:06.000Z</Time>
            <Position>
              <LatitudeDegrees>37.75048666633665561676025390625</LatitudeDegrees>
              <LongitudeDegrees>-6.1699350178241729736328125</LongitudeDegrees>
            </Position>
            <AltitudeMeters>261.79998779296875</AltitudeMeters>
            <DistanceMeters>NAN</DistanceMeters>
          </Trackpoint>
          <Trackpoint>
            <Time>2019-10-10T11:23:08.000Z</Time>
            <Position>
              <LatitudeDegrees>37.75031215511262416839599609375</LatitudeDegrees>
              <LongitudeDegrees>-6.1698490194976329803466796875</LongitudeDegrees>
            </Position>
            <AltitudeMeters>259.79998779296875</AltitudeMeters>
            <DistanceMeters>NAN</DistanceMeters>
          </Trackpoint>
          <Trackpoint>
            <Time>2019-10-10T11:23:09.000Z</Time>
            <Position>
              <LatitudeDegrees>37.750220708549022674560546875</LatitudeDegrees>
              <LongitudeDegrees>-6.16981356404721736907958984375</LongitudeDegrees>
            </Position>
            <AltitudeMeters>259</AltitudeMeters>
            <DistanceMeters>NAN</DistanceMeters>
          </Trackpoint>
          <Trackpoint>
            <Time>2019-10-10T11:23:10.000Z</Time>
            <Position>
              <LatitudeDegrees>37.75012305937707424163818359375</LatitudeDegrees>
              <LongitudeDegrees>-6.16979311220347881317138671875</LongitudeDegrees>
            </Position>
            <AltitudeMeters>258.399993896484375</AltitudeMeters>
            <DistanceMeters>NAN</DistanceMeters>
          </Trackpoint>
          <Trackpoint>
            <Time>2019-10-10T11:23:12.000Z</Time>
            <Position>
              <LatitudeDegrees>37.74992122314870357513427734375</LatitudeDegrees>
              <LongitudeDegrees>-6.16978959180414676666259765625</LongitudeDegrees>
            </Position>
            <AltitudeMeters>257.20001220703125</AltitudeMeters>
            <DistanceMeters>NAN</DistanceMeters>
          </Trackpoint>
          <Trackpoint>
            <Time>2019-10-10T11:23:14.000Z</Time>
            <Position>
              <LatitudeDegrees>37.749712429940700531005859375</LatitudeDegrees>
              <LongitudeDegrees>-6.16984005086123943328857421875</LongitudeDegrees>
            </Position>
            <AltitudeMeters>256</AltitudeMeters>
            <DistanceMeters>NAN</DistanceMeters>
          </Trackpoint>
          <Trackpoint>
            <Time>2019-10-10T11:23:15.000Z</Time>
            <Position>
              <LatitudeDegrees>37.749610505998134613037109375</LatitudeDegrees>
              <LongitudeDegrees>-6.16988983936607837677001953125</LongitudeDegrees>
            </Position>
            <AltitudeMeters>255.399993896484375</AltitudeMeters>
            <DistanceMeters>NAN</DistanceMeters>
          </Trackpoint>
          <Trackpoint>
            <Time>2019-10-10T11:23:16.000Z</Time>
            <Position>
              <LatitudeDegrees>37.74951151572167873382568359375</LatitudeDegrees>
              <LongitudeDegrees>-6.169952452182769775390625</LongitudeDegrees>
            </Position>
            <AltitudeMeters>253.399993896484375</AltitudeMeters>
            <DistanceMeters>NAN</DistanceMeters>
          </Trackpoint>
          <Trackpoint>
            <Time>2019-10-10T11:23:18.000Z</Time>
            <Position>
              <LatitudeDegrees>37.7493293769657611846923828125</LatitudeDegrees>
              <LongitudeDegrees>-6.1701172403991222381591796875</LongitudeDegrees>
            </Position>
            <AltitudeMeters>252.399993896484375</AltitudeMeters>
            <DistanceMeters>NAN</DistanceMeters>
          </Trackpoint>
          <Trackpoint>
            <Time>2019-10-10T11:23:21.000Z</Time>
            <Position>
              <LatitudeDegrees>37.74911019019782543182373046875</LatitudeDegrees>
              <LongitudeDegrees>-6.17043416015803813934326171875</LongitudeDegrees>
            </Position>
            <AltitudeMeters>251.8000030517578125</AltitudeMeters>
            <DistanceMeters>NAN</DistanceMeters>
          </Trackpoint>
          <Trackpoint>
            <Time>2019-10-10T11:23:22.000Z</Time>
            <Position>
              <LatitudeDegrees>37.74905755184590816497802734375</LatitudeDegrees>
              <LongitudeDegrees>-6.170554943382740020751953125</LongitudeDegrees>
            </Position>
            <AltitudeMeters>251.1999969482421875</AltitudeMeters>
            <DistanceMeters>NAN</DistanceMeters>
          </Trackpoint>
          <Trackpoint>
            <Time>2019-10-10T11:23:23.000Z</Time>
            <Position>
              <LatitudeDegrees>37.7490091882646083831787109375</LatitudeDegrees>
              <LongitudeDegrees>-6.17067505605518817901611328125</LongitudeDegrees>
            </Position>
            <AltitudeMeters>251.1999969482421875</AltitudeMeters>
            <DistanceMeters>NAN</DistanceMeters>
          </Trackpoint>
          <Trackpoint>
            <Time>2019-10-10T11:23:25.000Z</Time>
            <Position>
              <LatitudeDegrees>37.74891681969165802001953125</LatitudeDegrees>
              <LongitudeDegrees>-6.17091243155300617218017578125</LongitudeDegrees>
            </Position>
            <AltitudeMeters>251.1999969482421875</AltitudeMeters>
            <DistanceMeters>NAN</DistanceMeters>
          </Trackpoint>
          <Trackpoint>
            <Time>2019-10-10T11:23:28.000Z</Time>
            <Position>
              <LatitudeDegrees>37.74879033677279949188232421875</LatitudeDegrees>
              <LongitudeDegrees>-6.1712524853646755218505859375</LongitudeDegrees>
            </Position>
            <AltitudeMeters>251.1999969482421875</AltitudeMeters>
            <DistanceMeters>NAN</DistanceMeters>
          </Trackpoint>
          <Trackpoint>
            <Time>2019-10-10T11:23:31.000Z</Time>
            <Position>
              <LatitudeDegrees>37.74865974672138690948486328125</LatitudeDegrees>
              <LongitudeDegrees>-6.17158231325447559356689453125</LongitudeDegrees>
            </Position>
            <AltitudeMeters>250.600006103515625</AltitudeMeters>
            <DistanceMeters>NAN</DistanceMeters>
          </Trackpoint>
          <Trackpoint>
            <Time>2019-10-10T11:23:33.000Z</Time>
            <Position>
              <LatitudeDegrees>37.7485632710158824920654296875</LatitudeDegrees>
              <LongitudeDegrees>-6.1717919446527957916259765625</LongitudeDegrees>
            </Position>
            <AltitudeMeters>249.8000030517578125</AltitudeMeters>
            <DistanceMeters>NAN</DistanceMeters>
          </Trackpoint>
          <Trackpoint>
            <Time>2019-10-10T11:23:35.000Z</Time>
            <Position>
              <LatitudeDegrees>37.74845975451171398162841796875</LatitudeDegrees>
              <LongitudeDegrees>-6.1719907633960247039794921875</LongitudeDegrees>
            </Position>
            <AltitudeMeters>248.8000030517578125</AltitudeMeters>
            <DistanceMeters>NAN</DistanceMeters>
          </Trackpoint>
          <Trackpoint>
            <Time>2019-10-10T11:23:38.000Z</Time>
            <Position>
              <LatitudeDegrees>37.748294882476329803466796875</LatitudeDegrees>
              <LongitudeDegrees>-6.172271557152271270751953125</LongitudeDegrees>
            </Position>
            <AltitudeMeters>247.8000030517578125</AltitudeMeters>
            <DistanceMeters>NAN</DistanceMeters>
          </Trackpoint>
          <Trackpoint>
            <Time>2019-10-10T11:23:41.000Z</Time>
            <Position>
              <LatitudeDegrees>37.74811374954879283905029296875</LatitudeDegrees>
              <LongitudeDegrees>-6.1725278757512569427490234375</LongitudeDegrees>
            </Position>
            <AltitudeMeters>247.1999969482421875</AltitudeMeters>
            <DistanceMeters>NAN</DistanceMeters>
          </Trackpoint>
          <Trackpoint>
            <Time>2019-10-10T11:23:43.000Z</Time>
            <Position>
              <LatitudeDegrees>37.747984416782855987548828125</LatitudeDegrees>
              <LongitudeDegrees>-6.17268092930316925048828125</LongitudeDegrees>
            </Position>
            <AltitudeMeters>246.399993896484375</AltitudeMeters>
            <DistanceMeters>NAN</DistanceMeters>
          </Trackpoint>
          <Trackpoint>
            <Time>2019-10-10T11:23:44.000Z</Time>
            <Position>
              <LatitudeDegrees>37.74792046286165714263916015625</LatitudeDegrees>
              <LongitudeDegrees>-6.17275594733655452728271484375</LongitudeDegrees>
            </Position>
            <AltitudeMeters>246.1999969482421875</AltitudeMeters>
            <DistanceMeters>NAN</DistanceMeters>
          </Trackpoint>
          <Trackpoint>
            <Time>2019-10-10T11:23:48.000Z</Time>
            <Position>
              <LatitudeDegrees>37.74765693582594394683837890625</LatitudeDegrees>
              <LongitudeDegrees>-6.17303305305540561676025390625</LongitudeDegrees>
            </Position>
            <AltitudeMeters>245.600006103515625</AltitudeMeters>
            <DistanceMeters>NAN</DistanceMeters>
          </Trackpoint>
          <Trackpoint>
            <Time>2019-10-10T11:23:49.000Z</Time>
            <Position>
              <LatitudeDegrees>37.7475882880389690399169921875</LatitudeDegrees>
              <LongitudeDegrees>-6.173093654215335845947265625</LongitudeDegrees>
            </Position>
            <AltitudeMeters>245.8000030517578125</AltitudeMeters>
            <DistanceMeters>NAN</DistanceMeters>
          </Trackpoint>
          <Trackpoint>
            <Time>2019-10-10T11:23:50.000Z</Time>
            <Position>
              <LatitudeDegrees>37.74751930497586727142333984375</LatitudeDegrees>
              <LongitudeDegrees>-6.1731524951756000518798828125</LongitudeDegrees>
            </Position>
            <AltitudeMeters>245.399993896484375</AltitudeMeters>
            <DistanceMeters>NAN</DistanceMeters>
          </Trackpoint>
          <Trackpoint>
            <Time>2019-10-10T11:23:51.000Z</Time>
            <Position>
              <LatitudeDegrees>37.74745074100792407989501953125</LatitudeDegrees>
              <LongitudeDegrees>-6.17321007885038852691650390625</LongitudeDegrees>
            </Position>
            <AltitudeMeters>245.399993896484375</AltitudeMeters>
            <DistanceMeters>NAN</DistanceMeters>
          </Trackpoint>
          <Trackpoint>
            <Time>2019-10-10T11:23:58.000Z</Time>
            <Position>
              <LatitudeDegrees>37.74695117957890033721923828125</LatitudeDegrees>
              <LongitudeDegrees>-6.17356949485838413238525390625</LongitudeDegrees>
            </Position>
            <AltitudeMeters>244.399993896484375</AltitudeMeters>
            <DistanceMeters>NAN</DistanceMeters>
          </Trackpoint>
          <Trackpoint>
            <Time>2019-10-10T11:23:59.000Z</Time>
            <Position>
              <LatitudeDegrees>37.746873982250690460205078125</LatitudeDegrees>
              <LongitudeDegrees>-6.17360972799360752105712890625</LongitudeDegrees>
            </Position>
            <AltitudeMeters>244</AltitudeMeters>
            <DistanceMeters>NAN</DistanceMeters>
          </Trackpoint>
          <Trackpoint>
            <Time>2019-10-10T11:24:01.000Z</Time>
            <Position>
              <LatitudeDegrees>37.74671816267073154449462890625</LatitudeDegrees>
              <LongitudeDegrees>-6.17368533276021480560302734375</LongitudeDegrees>
            </Position>
            <AltitudeMeters>243.1999969482421875</AltitudeMeters>
            <DistanceMeters>NAN</DistanceMeters>
          </Trackpoint>
          <Trackpoint>
            <Time>2019-10-10T11:24:02.000Z</Time>
            <Position>
              <LatitudeDegrees>37.746638953685760498046875</LatitudeDegrees>
              <LongitudeDegrees>-6.1737222969532012939453125</LongitudeDegrees>
            </Position>
            <AltitudeMeters>242.600006103515625</AltitudeMeters>
            <DistanceMeters>NAN</DistanceMeters>
          </Trackpoint>
          <Trackpoint>
            <Time>2019-10-10T11:24:06.000Z</Time>
            <Position>
              <LatitudeDegrees>37.74631750769913196563720703125</LatitudeDegrees>
              <LongitudeDegrees>-6.1738428287208080291748046875</LongitudeDegrees>
            </Position>
            <AltitudeMeters>241.399993896484375</AltitudeMeters>
            <DistanceMeters>NAN</DistanceMeters>
          </Trackpoint>
          <Trackpoint>
            <Time>2019-10-10T11:24:08.000Z</Time>
            <Position>
              <LatitudeDegrees>37.7461553178727626800537109375</LatitudeDegrees>
              <LongitudeDegrees>-6.173888258635997772216796875</LongitudeDegrees>
            </Position>
            <AltitudeMeters>241</AltitudeMeters>
            <DistanceMeters>NAN</DistanceMeters>
          </Trackpoint>
          <Trackpoint>
            <Time>2019-10-10T11:24:12.000Z</Time>
            <Position>
              <LatitudeDegrees>37.745824567973613739013671875</LatitudeDegrees>
              <LongitudeDegrees>-6.173970736563205718994140625</LongitudeDegrees>
            </Position>
            <AltitudeMeters>239.600006103515625</AltitudeMeters>
            <DistanceMeters>NAN</DistanceMeters>
          </Trackpoint>
          <Trackpoint>
            <Time>2019-10-10T11:24:14.000Z</Time>
            <Position>
              <LatitudeDegrees>37.74566304869949817657470703125</LatitudeDegrees>
              <LongitudeDegrees>-6.17400191724300384521484375</LongitudeDegrees>
            </Position>
            <AltitudeMeters>239.8000030517578125</AltitudeMeters>
            <DistanceMeters>NAN</DistanceMeters>
          </Trackpoint>
          <Trackpoint>
            <Time>2019-10-10T11:24:17.000Z</Time>
            <Position>
              <LatitudeDegrees>37.7454207278788089752197265625</LatitudeDegrees>
              <LongitudeDegrees>-6.1740557290613651275634765625</LongitudeDegrees>
            </Position>
            <AltitudeMeters>240.1999969482421875</AltitudeMeters>
            <DistanceMeters>NAN</DistanceMeters>
          </Trackpoint>
          <Trackpoint>
            <Time>2019-10-10T11:24:20.000Z</Time>
            <Position>
              <LatitudeDegrees>37.7451865375041961669921875</LatitudeDegrees>
              <LongitudeDegrees>-6.17410643957555294036865234375</LongitudeDegrees>
            </Position>
            <AltitudeMeters>238.8000030517578125</AltitudeMeters>
            <DistanceMeters>NAN</DistanceMeters>
          </Trackpoint>
          <Trackpoint>
            <Time>2019-10-10T11:24:22.000Z</Time>
            <Position>
              <LatitudeDegrees>37.7450348250567913055419921875</LatitudeDegrees>
              <LongitudeDegrees>-6.17413544096052646636962890625</LongitudeDegrees>
            </Position>
            <AltitudeMeters>238.600006103515625</AltitudeMeters>
            <DistanceMeters>NAN</DistanceMeters>
          </Trackpoint>
          <Trackpoint>
            <Time>2019-10-10T11:24:23.000Z</Time>
            <Position>
              <LatitudeDegrees>37.7449603937566280364990234375</LatitudeDegrees>
              <LongitudeDegrees>-6.17415136657655239105224609375</LongitudeDegrees>
            </Position>
            <AltitudeMeters>238.600006103515625</AltitudeMeters>
            <DistanceMeters>NAN</DistanceMeters>
          </Trackpoint>
          <Trackpoint>
            <Time>2019-10-10T11:24:24.000Z</Time>
            <Position>
              <LatitudeDegrees>37.7448859624564647674560546875</LatitudeDegrees>
              <LongitudeDegrees>-6.17416880093514919281005859375</LongitudeDegrees>
            </Position>
            <AltitudeMeters>238.8000030517578125</AltitudeMeters>
            <DistanceMeters>NAN</DistanceMeters>
          </Trackpoint>
          <Trackpoint>
            <Time>2019-10-10T11:24:25.000Z</Time>
            <Position>
              <LatitudeDegrees>37.74481362663209438323974609375</LatitudeDegrees>
              <LongitudeDegrees>-6.1741878278553485870361328125</LongitudeDegrees>
            </Position>
            <AltitudeMeters>238.8000030517578125</AltitudeMeters>
            <DistanceMeters>NAN</DistanceMeters>
          </Trackpoint>
          <Trackpoint>
            <Time>2019-10-10T11:24:26.000Z</Time>
            <Position>
              <LatitudeDegrees>37.74474154226481914520263671875</LatitudeDegrees>
              <LongitudeDegrees>-6.17420484311878681182861328125</LongitudeDegrees>
            </Position>
            <AltitudeMeters>239</AltitudeMeters>
            <DistanceMeters>NAN</DistanceMeters>
          </Trackpoint>
          <Trackpoint>
            <Time>2019-10-10T11:24:28.000Z</Time>
            <Position>
              <LatitudeDegrees>37.7445996366441249847412109375</LatitudeDegrees>
              <LongitudeDegrees>-6.17423468269407749176025390625</LongitudeDegrees>
            </Position>
            <AltitudeMeters>239.1999969482421875</AltitudeMeters>
            <DistanceMeters>NAN</DistanceMeters>
          </Trackpoint>
          <Trackpoint>
            <Time>2019-10-10T11:24:29.000Z</Time>
            <Position>
              <LatitudeDegrees>37.7445312403142452239990234375</LatitudeDegrees>
              <LongitudeDegrees>-6.1742471717298030853271484375</LongitudeDegrees>
            </Position>
            <AltitudeMeters>239.600006103515625</AltitudeMeters>
            <DistanceMeters>NAN</DistanceMeters>
          </Trackpoint>
          <Trackpoint>
            <Time>2019-10-10T11:24:30.000Z</Time>
            <Position>
              <LatitudeDegrees>37.74446443654596805572509765625</LatitudeDegrees>
              <LongitudeDegrees>-6.17426133714616298675537109375</LongitudeDegrees>
            </Position>
            <AltitudeMeters>239.8000030517578125</AltitudeMeters>
            <DistanceMeters>NAN</DistanceMeters>
          </Trackpoint>
          <Trackpoint>
            <Time>2019-10-10T11:24:31.000Z</Time>
            <Position>
              <LatitudeDegrees>37.74439805187284946441650390625</LatitudeDegrees>
              <LongitudeDegrees>-6.1742746643722057342529296875</LongitudeDegrees>
            </Position>
            <AltitudeMeters>240.399993896484375</AltitudeMeters>
            <DistanceMeters>NAN</DistanceMeters>
          </Trackpoint>
          <Trackpoint>
            <Time>2019-10-10T11:24:35.000Z</Time>
            <Position>
              <LatitudeDegrees>37.74414022453129291534423828125</LatitudeDegrees>
              <LongitudeDegrees>-6.1743216030299663543701171875</LongitudeDegrees>
            </Position>
            <AltitudeMeters>240.600006103515625</AltitudeMeters>
            <DistanceMeters>NAN</DistanceMeters>
          </Trackpoint>
          <Trackpoint>
            <Time>2019-10-10T11:24:40.000Z</Time>
            <Position>
              <LatitudeDegrees>37.7438293397426605224609375</LatitudeDegrees>
              <LongitudeDegrees>-6.17436208762228488922119140625</LongitudeDegrees>
            </Position>
            <AltitudeMeters>241.1999969482421875</AltitudeMeters>
            <DistanceMeters>NAN</DistanceMeters>
          </Trackpoint>
          <Trackpoint>
            <Time>2019-10-10T11:24:42.000Z</Time>
            <Position>
              <LatitudeDegrees>37.74371408857405185699462890625</LatitudeDegrees>
              <LongitudeDegrees>-6.17436644621193408966064453125</LongitudeDegrees>
            </Position>
            <AltitudeMeters>241.8000030517578125</AltitudeMeters>
            <DistanceMeters>NAN</DistanceMeters>
          </Trackpoint>
          <Trackpoint>
            <Time>2019-10-10T11:24:44.000Z</Time>
            <Position>
              <LatitudeDegrees>37.7436072193086147308349609375</LatitudeDegrees>
              <LongitudeDegrees>-6.17437876760959625244140625</LongitudeDegrees>
            </Position>
            <AltitudeMeters>242.600006103515625</AltitudeMeters>
            <DistanceMeters>NAN</DistanceMeters>
          </Trackpoint>
          <Trackpoint>
            <Time>2019-10-10T11:24:45.000Z</Time>
            <Position>
              <LatitudeDegrees>37.74355634115636348724365234375</LatitudeDegrees>
              <LongitudeDegrees>-6.1743802763521671295166015625</LongitudeDegrees>
            </Position>
            <AltitudeMeters>242.600006103515625</AltitudeMeters>
            <DistanceMeters>NAN</DistanceMeters>
          </Trackpoint>
          <Trackpoint>
            <Time>2019-10-10T11:24:46.000Z</Time>
            <Position>
              <LatitudeDegrees>37.74350806139409542083740234375</LatitudeDegrees>
              <LongitudeDegrees>-6.1743769235908985137939453125</LongitudeDegrees>
            </Position>
            <AltitudeMeters>243.1999969482421875</AltitudeMeters>
            <DistanceMeters>NAN</DistanceMeters>
          </Trackpoint>
          <Trackpoint>
            <Time>2019-10-10T11:24:53.000Z</Time>
            <Position>
              <LatitudeDegrees>37.7432102523744106292724609375</LatitudeDegrees>
              <LongitudeDegrees>-6.1743507720530033111572265625</LongitudeDegrees>
            </Position>
            <AltitudeMeters>244.399993896484375</AltitudeMeters>
            <DistanceMeters>NAN</DistanceMeters>
          </Trackpoint>
          <Trackpoint>
            <Time>2019-10-10T11:24:55.000Z</Time>
            <Position>
              <LatitudeDegrees>37.74313288740813732147216796875</LatitudeDegrees>
              <LongitudeDegrees>-6.17433761246502399444580078125</LongitudeDegrees>
            </Position>
            <AltitudeMeters>245</AltitudeMeters>
            <DistanceMeters>NAN</DistanceMeters>
          </Trackpoint>
          <Trackpoint>
            <Time>2019-10-10T11:24:57.000Z</Time>
            <Position>
              <LatitudeDegrees>37.74305728264153003692626953125</LatitudeDegrees>
              <LongitudeDegrees>-6.17431716062128543853759765625</LongitudeDegrees>
            </Position>
            <AltitudeMeters>245.1999969482421875</AltitudeMeters>
            <DistanceMeters>NAN</DistanceMeters>
          </Trackpoint>
          <Trackpoint>
            <Time>2019-10-10T11:24:58.000Z</Time>
            <Position>
              <LatitudeDegrees>37.7430194802582263946533203125</LatitudeDegrees>
              <LongitudeDegrees>-6.17430777288973331451416015625</LongitudeDegrees>
            </Position>
            <AltitudeMeters>245.600006103515625</AltitudeMeters>
            <DistanceMeters>NAN</DistanceMeters>
          </Trackpoint>
          <Trackpoint>
            <Time>2019-10-10T11:25:01.000Z</Time>
            <Position>
              <LatitudeDegrees>37.74290464818477630615234375</LatitudeDegrees>
              <LongitudeDegrees>-6.17428447119891643524169921875</LongitudeDegrees>
            </Position>
            <AltitudeMeters>245</AltitudeMeters>
            <DistanceMeters>NAN</DistanceMeters>
          </Trackpoint>
          <Trackpoint>
            <Time>2019-10-10T11:25:04.000Z</Time>
            <Position>
              <LatitudeDegrees>37.7427898161113262176513671875</LatitudeDegrees>
              <LongitudeDegrees>-6.17424557916820049285888671875</LongitudeDegrees>
            </Position>
            <AltitudeMeters>245.399993896484375</AltitudeMeters>
            <DistanceMeters>NAN</DistanceMeters>
          </Trackpoint>
          <Trackpoint>
            <Time>2019-10-10T11:25:08.000Z</Time>
            <Position>
              <LatitudeDegrees>37.74263483472168445587158203125</LatitudeDegrees>
              <LongitudeDegrees>-6.17420366965234279632568359375</LongitudeDegrees>
            </Position>
            <AltitudeMeters>245.8000030517578125</AltitudeMeters>
            <DistanceMeters>NAN</DistanceMeters>
          </Trackpoint>
          <Trackpoint>
            <Time>2019-10-10T11:25:09.000Z</Time>
            <Position>
              <LatitudeDegrees>37.742596529424190521240234375</LatitudeDegrees>
              <LongitudeDegrees>-6.17418925277888774871826171875</LongitudeDegrees>
            </Position>
            <AltitudeMeters>246</AltitudeMeters>
            <DistanceMeters>NAN</DistanceMeters>
          </Trackpoint>
          <Trackpoint>
            <Time>2019-10-10T11:25:12.000Z</Time>
            <Position>
              <LatitudeDegrees>37.7424843795597553253173828125</LatitudeDegrees>
              <LongitudeDegrees>-6.17414130829274654388427734375</LongitudeDegrees>
            </Position>
            <AltitudeMeters>246.8000030517578125</AltitudeMeters>
            <DistanceMeters>NAN</DistanceMeters>
          </Trackpoint>
          <Trackpoint>
            <Time>2019-10-10T11:25:18.000Z</Time>
            <Position>
              <LatitudeDegrees>37.742272317409515380859375</LatitudeDegrees>
              <LongitudeDegrees>-6.17404491640627384185791015625</LongitudeDegrees>
            </Position>
            <AltitudeMeters>247.600006103515625</AltitudeMeters>
            <DistanceMeters>NAN</DistanceMeters>
          </Trackpoint>
          <Trackpoint>
            <Time>2019-10-10T11:25:19.000Z</Time>
            <Position>
              <LatitudeDegrees>37.74223770014941692352294921875</LatitudeDegrees>
              <LongitudeDegrees>-6.174029409885406494140625</LongitudeDegrees>
            </Position>
            <AltitudeMeters>247.600006103515625</AltitudeMeters>
            <DistanceMeters>NAN</DistanceMeters>
          </Trackpoint>
          <Trackpoint>
            <Time>2019-10-10T11:25:21.000Z</Time>
            <Position>
              <LatitudeDegrees>37.7421688847243785858154296875</LatitudeDegrees>
              <LongitudeDegrees>-6.17400149814784526824951171875</LongitudeDegrees>
            </Position>
            <AltitudeMeters>247.8000030517578125</AltitudeMeters>
            <DistanceMeters>NAN</DistanceMeters>
          </Trackpoint>
          <Trackpoint>
            <Time>2019-10-10T11:25:26.000Z</Time>
            <Position>
              <LatitudeDegrees>37.7419911883771419525146484375</LatitudeDegrees>
              <LongitudeDegrees>-6.17393997497856616973876953125</LongitudeDegrees>
            </Position>
            <AltitudeMeters>248.8000030517578125</AltitudeMeters>
            <DistanceMeters>NAN</DistanceMeters>
          </Trackpoint>
          <Trackpoint>
            <Time>2019-10-10T11:25:29.000Z</Time>
            <Position>
              <LatitudeDegrees>37.741887755692005157470703125</LatitudeDegrees>
              <LongitudeDegrees>-6.17389890365302562713623046875</LongitudeDegrees>
            </Position>
            <AltitudeMeters>249.1999969482421875</AltitudeMeters>
            <DistanceMeters>NAN</DistanceMeters>
          </Trackpoint>
          <Trackpoint>
            <Time>2019-10-10T11:25:31.000Z</Time>
            <Position>
              <LatitudeDegrees>37.741816341876983642578125</LatitudeDegrees>
              <LongitudeDegrees>-6.17386554367840290069580078125</LongitudeDegrees>
            </Position>
            <AltitudeMeters>250</AltitudeMeters>
            <DistanceMeters>NAN</DistanceMeters>
          </Trackpoint>
          <Trackpoint>
            <Time>2019-10-10T11:25:36.000Z</Time>
            <Position>
              <LatitudeDegrees>37.74162665940821170806884765625</LatitudeDegrees>
              <LongitudeDegrees>-6.17378457449376583099365234375</LongitudeDegrees>
            </Position>
            <AltitudeMeters>250.1999969482421875</AltitudeMeters>
            <DistanceMeters>NAN</DistanceMeters>
          </Trackpoint>
          <Trackpoint>
            <Time>2019-10-10T11:25:45.000Z</Time>
            <Position>
              <LatitudeDegrees>37.74125701747834682464599609375</LatitudeDegrees>
              <LongitudeDegrees>-6.1736503802239894866943359375</LongitudeDegrees>
            </Position>
            <AltitudeMeters>250.1999969482421875</AltitudeMeters>
            <DistanceMeters>NAN</DistanceMeters>
          </Trackpoint>
          <Trackpoint>
            <Time>2019-10-10T11:25:54.000Z</Time>
            <Position>
              <LatitudeDegrees>37.7409055642783641815185546875</LatitudeDegrees>
              <LongitudeDegrees>-6.173527501523494720458984375</LongitudeDegrees>
            </Position>
            <AltitudeMeters>251</AltitudeMeters>
            <DistanceMeters>NAN</DistanceMeters>
          </Trackpoint>
          <Trackpoint>
            <Time>2019-10-10T11:25:59.000Z</Time>
            <Position>
              <LatitudeDegrees>37.74074153043329715728759765625</LatitudeDegrees>
              <LongitudeDegrees>-6.17346807383000850677490234375</LongitudeDegrees>
            </Position>
            <AltitudeMeters>252.1999969482421875</AltitudeMeters>
            <DistanceMeters>NAN</DistanceMeters>
          </Trackpoint>
          <Trackpoint>
            <Time>2019-10-10T11:26:01.000Z</Time>
            <Position>
              <LatitudeDegrees>37.74067883379757404327392578125</LatitudeDegrees>
              <LongitudeDegrees>-6.17344577796757221221923828125</LongitudeDegrees>
            </Position>
            <AltitudeMeters>252.1999969482421875</AltitudeMeters>
            <DistanceMeters>NAN</DistanceMeters>
          </Trackpoint>
          <Trackpoint>
            <Time>2019-10-10T11:26:04.000Z</Time>
            <Position>
              <LatitudeDegrees>37.74058495648205280303955078125</LatitudeDegrees>
              <LongitudeDegrees>-6.1734213866293430328369140625</LongitudeDegrees>
            </Position>
            <AltitudeMeters>253.1999969482421875</AltitudeMeters>
            <DistanceMeters>NAN</DistanceMeters>
          </Trackpoint>
          <Trackpoint>
            <Time>2019-10-10T11:26:08.000Z</Time>
            <Position>
              <LatitudeDegrees>37.74046023376286029815673828125</LatitudeDegrees>
              <LongitudeDegrees>-6.1733892001211643218994140625</LongitudeDegrees>
            </Position>
            <AltitudeMeters>253.600006103515625</AltitudeMeters>
            <DistanceMeters>NAN</DistanceMeters>
          </Trackpoint>
          <Trackpoint>
            <Time>2019-10-10T11:26:12.000Z</Time>
            <Position>
              <LatitudeDegrees>37.740335427224636077880859375</LatitudeDegrees>
              <LongitudeDegrees>-6.17336665280163288116455078125</LongitudeDegrees>
            </Position>
            <AltitudeMeters>254.399993896484375</AltitudeMeters>
            <DistanceMeters>NAN</DistanceMeters>
          </Trackpoint>
          <Trackpoint>
            <Time>2019-10-10T11:26:17.000Z</Time>
            <Position>
              <LatitudeDegrees>37.74017147719860076904296875</LatitudeDegrees>
              <LongitudeDegrees>-6.1733533255755901336669921875</LongitudeDegrees>
            </Position>
            <AltitudeMeters>255</AltitudeMeters>
            <DistanceMeters>NAN</DistanceMeters>
          </Trackpoint>
          <Trackpoint>
            <Time>2019-10-10T11:26:19.000Z</Time>
            <Position>
              <LatitudeDegrees>37.7401025779545307159423828125</LatitudeDegrees>
              <LongitudeDegrees>-6.17335089482367038726806640625</LongitudeDegrees>
            </Position>
            <AltitudeMeters>255.399993896484375</AltitudeMeters>
            <DistanceMeters>NAN</DistanceMeters>
          </Trackpoint>
          <Trackpoint>
            <Time>2019-10-10T11:26:24.000Z</Time>
            <Position>
              <LatitudeDegrees>37.739935778081417083740234375</LatitudeDegrees>
              <LongitudeDegrees>-6.1733610369265079498291015625</LongitudeDegrees>
            </Position>
            <AltitudeMeters>256.600006103515625</AltitudeMeters>
            <DistanceMeters>NAN</DistanceMeters>
          </Trackpoint>
          <Trackpoint>
            <Time>2019-10-10T11:26:28.000Z</Time>
            <Position>
              <LatitudeDegrees>37.739793621003627777099609375</LatitudeDegrees>
              <LongitudeDegrees>-6.1733771301805973052978515625</LongitudeDegrees>
            </Position>
            <AltitudeMeters>256.600006103515625</AltitudeMeters>
            <DistanceMeters>NAN</DistanceMeters>
          </Trackpoint>
          <Trackpoint>
            <Time>2019-10-10T11:26:35.000Z</Time>
            <Position>
              <LatitudeDegrees>37.739555574953556060791015625</LatitudeDegrees>
              <LongitudeDegrees>-6.17343823425471782684326171875</LongitudeDegrees>
            </Position>
            <AltitudeMeters>257.600006103515625</AltitudeMeters>
            <DistanceMeters>NAN</DistanceMeters>
          </Trackpoint>
          <Trackpoint>
            <Time>2019-10-10T11:26:41.000Z</Time>
            <Position>
              <LatitudeDegrees>37.73935382254421710968017578125</LatitudeDegrees>
              <LongitudeDegrees>-6.1735095642507076263427734375</LongitudeDegrees>
            </Position>
            <AltitudeMeters>258.600006103515625</AltitudeMeters>
            <DistanceMeters>NAN</DistanceMeters>
          </Trackpoint>
          <Trackpoint>
            <Time>2019-10-10T11:26:45.000Z</Time>
            <Position>
              <LatitudeDegrees>37.7392288483679294586181640625</LatitudeDegrees>
              <LongitudeDegrees>-6.17356865666806697845458984375</LongitudeDegrees>
            </Position>
            <AltitudeMeters>258.79998779296875</AltitudeMeters>
            <DistanceMeters>NAN</DistanceMeters>
          </Trackpoint>
          <Trackpoint>
            <Time>2019-10-10T11:26:51.000Z</Time>
            <Position>
              <LatitudeDegrees>37.73904025554656982421875</LatitudeDegrees>
              <LongitudeDegrees>-6.1736523918807506561279296875</LongitudeDegrees>
            </Position>
            <AltitudeMeters>259.20001220703125</AltitudeMeters>
            <DistanceMeters>NAN</DistanceMeters>
          </Trackpoint>
          <Trackpoint>
            <Time>2019-10-10T11:26:54.000Z</Time>
            <Position>
              <LatitudeDegrees>37.7389529161155223846435546875</LatitudeDegrees>
              <LongitudeDegrees>-6.17371626198291778564453125</LongitudeDegrees>
            </Position>
            <AltitudeMeters>259.79998779296875</AltitudeMeters>
            <DistanceMeters>NAN</DistanceMeters>
          </Trackpoint>
          <Trackpoint>
            <Time>2019-10-10T11:26:57.000Z</Time>
            <Position>
              <LatitudeDegrees>37.7388647384941577911376953125</LatitudeDegrees>
              <LongitudeDegrees>-6.17377954535186290740966796875</LongitudeDegrees>
            </Position>
            <AltitudeMeters>260.20001220703125</AltitudeMeters>
            <DistanceMeters>NAN</DistanceMeters>
          </Trackpoint>
          <Trackpoint>
            <Time>2019-10-10T11:27:01.000Z</Time>
            <Position>
              <LatitudeDegrees>37.738750241696834564208984375</LatitudeDegrees>
              <LongitudeDegrees>-6.1738773621618747711181640625</LongitudeDegrees>
            </Position>
            <AltitudeMeters>261</AltitudeMeters>
            <DistanceMeters>NAN</DistanceMeters>
          </Trackpoint>
          <Trackpoint>
            <Time>2019-10-10T11:27:06.000Z</Time>
            <Position>
              <LatitudeDegrees>37.7386253513395786285400390625</LatitudeDegrees>
              <LongitudeDegrees>-6.17402379401028156280517578125</LongitudeDegrees>
            </Position>
            <AltitudeMeters>261.600006103515625</AltitudeMeters>
            <DistanceMeters>NAN</DistanceMeters>
          </Trackpoint>
          <Trackpoint>
            <Time>2019-10-10T11:27:08.000Z</Time>
            <Position>
              <LatitudeDegrees>37.7385787479579448699951171875</LatitudeDegrees>
              <LongitudeDegrees>-6.17407743819057941436767578125</LongitudeDegrees>
            </Position>
            <AltitudeMeters>262</AltitudeMeters>
            <DistanceMeters>NAN</DistanceMeters>
          </Trackpoint>
          <Trackpoint>
            <Time>2019-10-10T11:27:11.000Z</Time>
            <Position>
              <LatitudeDegrees>37.73850825615227222442626953125</LatitudeDegrees>
              <LongitudeDegrees>-6.17416846565902233123779296875</LongitudeDegrees>
            </Position>
            <AltitudeMeters>263.399993896484375</AltitudeMeters>
            <DistanceMeters>NAN</DistanceMeters>
          </Trackpoint>
          <Trackpoint>
            <Time>2019-10-10T11:27:13.000Z</Time>
            <Position>
              <LatitudeDegrees>37.73846634663641452789306640625</LatitudeDegrees>
              <LongitudeDegrees>-6.17422579787671566009521484375</LongitudeDegrees>
            </Position>
            <AltitudeMeters>263.399993896484375</AltitudeMeters>
            <DistanceMeters>NAN</DistanceMeters>
          </Trackpoint>
          <Trackpoint>
            <Time>2019-10-10T11:27:18.000Z</Time>
            <Position>
              <LatitudeDegrees>37.7383671887218952178955078125</LatitudeDegrees>
              <LongitudeDegrees>-6.1743806116282939910888671875</LongitudeDegrees>
            </Position>
            <AltitudeMeters>264.600006103515625</AltitudeMeters>
            <DistanceMeters>NAN</DistanceMeters>
          </Trackpoint>
          <Trackpoint>
            <Time>2019-10-10T11:27:23.000Z</Time>
            <Position>
              <LatitudeDegrees>37.7382595650851726531982421875</LatitudeDegrees>
              <LongitudeDegrees>-6.1745304800570011138916015625</LongitudeDegrees>
            </Position>
            <AltitudeMeters>265.20001220703125</AltitudeMeters>
            <DistanceMeters>NAN</DistanceMeters>
          </Trackpoint>
          <Trackpoint>
            <Time>2019-10-10T11:27:25.000Z</Time>
            <Position>
              <LatitudeDegrees>37.73822025395929813385009765625</LatitudeDegrees>
              <LongitudeDegrees>-6.1745951883494853973388671875</LongitudeDegrees>
            </Position>
            <AltitudeMeters>265.79998779296875</AltitudeMeters>
            <DistanceMeters>NAN</DistanceMeters>
          </Trackpoint>
          <Trackpoint>
            <Time>2019-10-10T11:27:32.000Z</Time>
            <Position>
              <LatitudeDegrees>37.73808513768017292022705078125</LatitudeDegrees>
              <LongitudeDegrees>-6.174834407866001129150390625</LongitudeDegrees>
            </Position>
            <AltitudeMeters>266.79998779296875</AltitudeMeters>
            <DistanceMeters>NAN</DistanceMeters>
          </Trackpoint>
          <Trackpoint>
            <Time>2019-10-10T11:27:36.000Z</Time>
            <Position>
              <LatitudeDegrees>37.73800500668585300445556640625</LatitudeDegrees>
              <LongitudeDegrees>-6.17497648112475872039794921875</LongitudeDegrees>
            </Position>
            <AltitudeMeters>268.20001220703125</AltitudeMeters>
            <DistanceMeters>NAN</DistanceMeters>
          </Trackpoint>
          <Trackpoint>
            <Time>2019-10-10T11:27:44.000Z</Time>
            <Position>
              <LatitudeDegrees>37.73783518932759761810302734375</LatitudeDegrees>
              <LongitudeDegrees>-6.1752576939761638641357421875</LongitudeDegrees>
            </Position>
            <AltitudeMeters>268.600006103515625</AltitudeMeters>
            <DistanceMeters>NAN</DistanceMeters>
          </Trackpoint>
          <Trackpoint>
            <Time>2019-10-10T11:27:45.000Z</Time>
            <Position>
              <LatitudeDegrees>37.73781473748385906219482421875</LatitudeDegrees>
              <LongitudeDegrees>-6.17529566399753093719482421875</LongitudeDegrees>
            </Position>
            <AltitudeMeters>268.79998779296875</AltitudeMeters>
            <DistanceMeters>NAN</DistanceMeters>
          </Trackpoint>
          <Trackpoint>
            <Time>2019-10-10T11:27:50.000Z</Time>
            <Position>
              <LatitudeDegrees>37.73769856430590152740478515625</LatitudeDegrees>
              <LongitudeDegrees>-6.17545994929969310760498046875</LongitudeDegrees>
            </Position>
            <AltitudeMeters>269.20001220703125</AltitudeMeters>
            <DistanceMeters>NAN</DistanceMeters>
          </Trackpoint>
          <Trackpoint>
            <Time>2019-10-10T11:27:51.000Z</Time>
            <Position>
              <LatitudeDegrees>37.7376736700534820556640625</LatitudeDegrees>
              <LongitudeDegrees>-6.1754913814365863800048828125</LongitudeDegrees>
            </Position>
            <AltitudeMeters>269.600006103515625</AltitudeMeters>
            <DistanceMeters>NAN</DistanceMeters>
          </Trackpoint>
          <Trackpoint>
            <Time>2019-10-10T11:28:00.000Z</Time>
            <Position>
              <LatitudeDegrees>37.73742665536701679229736328125</LatitudeDegrees>
              <LongitudeDegrees>-6.17574979551136493682861328125</LongitudeDegrees>
            </Position>
            <AltitudeMeters>270.399993896484375</AltitudeMeters>
            <DistanceMeters>NAN</DistanceMeters>
          </Trackpoint>
          <Trackpoint>
            <Time>2019-10-10T11:28:07.000Z</Time>
            <Position>
              <LatitudeDegrees>37.73723135702311992645263671875</LatitudeDegrees>
              <LongitudeDegrees>-6.175946854054927825927734375</LongitudeDegrees>
            </Position>
            <AltitudeMeters>271.399993896484375</AltitudeMeters>
            <DistanceMeters>NAN</DistanceMeters>
          </Trackpoint>
          <Trackpoint>
            <Time>2019-10-10T11:28:08.000Z</Time>
            <Position>
              <LatitudeDegrees>37.73720386438071727752685546875</LatitudeDegrees>
              <LongitudeDegrees>-6.1759753525257110595703125</LongitudeDegrees>
            </Position>
            <AltitudeMeters>271.399993896484375</AltitudeMeters>
            <DistanceMeters>NAN</DistanceMeters>
          </Trackpoint>
          <Trackpoint>
            <Time>2019-10-10T11:28:18.000Z</Time>
            <Position>
              <LatitudeDegrees>37.73691636510193347930908203125</LatitudeDegrees>
              <LongitudeDegrees>-6.176266372203826904296875</LongitudeDegrees>
            </Position>
            <AltitudeMeters>272</AltitudeMeters>
            <DistanceMeters>NAN</DistanceMeters>
          </Trackpoint>
          <Trackpoint>
            <Time>2019-10-10T11:28:24.000Z</Time>
            <Position>
              <LatitudeDegrees>37.73668703623116016387939453125</LatitudeDegrees>
              <LongitudeDegrees>-6.17650366388261318206787109375</LongitudeDegrees>
            </Position>
            <AltitudeMeters>269.79998779296875</AltitudeMeters>
            <DistanceMeters>NAN</DistanceMeters>
          </Trackpoint>
          <Trackpoint>
            <Time>2019-10-10T11:28:29.000Z</Time>
            <Position>
              <LatitudeDegrees>37.7364400215446949005126953125</LatitudeDegrees>
              <LongitudeDegrees>-6.17675277404487133026123046875</LongitudeDegrees>
            </Position>
            <AltitudeMeters>268.600006103515625</AltitudeMeters>
            <DistanceMeters>NAN</DistanceMeters>
          </Trackpoint>
          <Trackpoint>
            <Time>2019-10-10T11:28:30.000Z</Time>
            <Position>
              <LatitudeDegrees>37.7363843657076358795166015625</LatitudeDegrees>
              <LongitudeDegrees>-6.17680708877742290496826171875</LongitudeDegrees>
            </Position>
            <AltitudeMeters>268</AltitudeMeters>
            <DistanceMeters>NAN</DistanceMeters>
          </Trackpoint>
          <Trackpoint>
            <Time>2019-10-10T11:28:31.000Z</Time>
            <Position>
              <LatitudeDegrees>37.73632594384253025054931640625</LatitudeDegrees>
              <LongitudeDegrees>-6.17685872130095958709716796875</LongitudeDegrees>
            </Position>
            <AltitudeMeters>267</AltitudeMeters>
            <DistanceMeters>NAN</DistanceMeters>
          </Trackpoint>
          <Trackpoint>
            <Time>2019-10-10T11:28:34.000Z</Time>
            <Position>
              <LatitudeDegrees>37.73613215424120426177978515625</LatitudeDegrees>
              <LongitudeDegrees>-6.17700322531163692474365234375</LongitudeDegrees>
            </Position>
            <AltitudeMeters>266.399993896484375</AltitudeMeters>
            <DistanceMeters>NAN</DistanceMeters>
          </Trackpoint>
          <Trackpoint>
            <Time>2019-10-10T11:28:35.000Z</Time>
            <Position>
              <LatitudeDegrees>37.7360601536929607391357421875</LatitudeDegrees>
              <LongitudeDegrees>-6.177043877542018890380859375</LongitudeDegrees>
            </Position>
            <AltitudeMeters>265.600006103515625</AltitudeMeters>
            <DistanceMeters>NAN</DistanceMeters>
          </Trackpoint>
          <Trackpoint>
            <Time>2019-10-10T11:28:36.000Z</Time>
            <Position>
              <LatitudeDegrees>37.735986225306987762451171875</LatitudeDegrees>
              <LongitudeDegrees>-6.17708235047757625579833984375</LongitudeDegrees>
            </Position>
            <AltitudeMeters>264.79998779296875</AltitudeMeters>
            <DistanceMeters>NAN</DistanceMeters>
          </Trackpoint>
          <Trackpoint>
            <Time>2019-10-10T11:28:37.000Z</Time>
            <Position>
              <LatitudeDegrees>37.7359109558165073394775390625</LatitudeDegrees>
              <LongitudeDegrees>-6.17711889557540416717529296875</LongitudeDegrees>
            </Position>
            <AltitudeMeters>264.399993896484375</AltitudeMeters>
            <DistanceMeters>NAN</DistanceMeters>
          </Trackpoint>
          <Trackpoint>
            <Time>2019-10-10T11:28:39.000Z</Time>
            <Position>
              <LatitudeDegrees>37.7357567287981510162353515625</LatitudeDegrees>
              <LongitudeDegrees>-6.17717689834535121917724609375</LongitudeDegrees>
            </Position>
            <AltitudeMeters>263</AltitudeMeters>
            <DistanceMeters>NAN</DistanceMeters>
          </Trackpoint>
          <Trackpoint>
            <Time>2019-10-10T11:28:41.000Z</Time>
            <Position>
              <LatitudeDegrees>37.7355974726378917694091796875</LatitudeDegrees>
              <LongitudeDegrees>-6.17722383700311183929443359375</LongitudeDegrees>
            </Position>
            <AltitudeMeters>262.399993896484375</AltitudeMeters>
            <DistanceMeters>NAN</DistanceMeters>
          </Trackpoint>
          <Trackpoint>
            <Time>2019-10-10T11:28:42.000Z</Time>
            <Position>
              <LatitudeDegrees>37.7355173416435718536376953125</LatitudeDegrees>
              <LongitudeDegrees>-6.17724202573299407958984375</LongitudeDegrees>
            </Position>
            <AltitudeMeters>262.399993896484375</AltitudeMeters>
            <DistanceMeters>NAN</DistanceMeters>
          </Trackpoint>
          <Trackpoint>
            <Time>2019-10-10T11:28:44.000Z</Time>
            <Position>
              <LatitudeDegrees>37.7353567443788051605224609375</LatitudeDegrees>
              <LongitudeDegrees>-6.17726482450962066650390625</LongitudeDegrees>
            </Position>
            <AltitudeMeters>261.600006103515625</AltitudeMeters>
            <DistanceMeters>NAN</DistanceMeters>
          </Trackpoint>
          <Trackpoint>
            <Time>2019-10-10T11:28:47.000Z</Time>
            <Position>
              <LatitudeDegrees>37.73511392064392566680908203125</LatitudeDegrees>
              <LongitudeDegrees>-6.17729759775102138519287109375</LongitudeDegrees>
            </Position>
            <AltitudeMeters>260.79998779296875</AltitudeMeters>
            <DistanceMeters>NAN</DistanceMeters>
          </Trackpoint>
          <Trackpoint>
            <Time>2019-10-10T11:28:48.000Z</Time>
            <Position>
              <LatitudeDegrees>37.73503446020185947418212890625</LatitudeDegrees>
              <LongitudeDegrees>-6.17730782367289066314697265625</LongitudeDegrees>
            </Position>
            <AltitudeMeters>260.600006103515625</AltitudeMeters>
            <DistanceMeters>NAN</DistanceMeters>
          </Trackpoint>
          <Trackpoint>
            <Time>2019-10-10T11:28:49.000Z</Time>
            <Position>
              <LatitudeDegrees>37.734953574836254119873046875</LatitudeDegrees>
              <LongitudeDegrees>-6.1773179657757282257080078125</LongitudeDegrees>
            </Position>
            <AltitudeMeters>260.399993896484375</AltitudeMeters>
            <DistanceMeters>NAN</DistanceMeters>
          </Trackpoint>
          <Trackpoint>
            <Time>2019-10-10T11:28:51.000Z</Time>
            <Position>
              <LatitudeDegrees>37.7347929775714874267578125</LatitudeDegrees>
              <LongitudeDegrees>-6.1773431114852428436279296875</LongitudeDegrees>
            </Position>
            <AltitudeMeters>259.79998779296875</AltitudeMeters>
            <DistanceMeters>NAN</DistanceMeters>
          </Trackpoint>
          <Trackpoint>
            <Time>2019-10-10T11:28:52.000Z</Time>
            <Position>
              <LatitudeDegrees>37.7347136847674846649169921875</LatitudeDegrees>
              <LongitudeDegrees>-6.1773548461496829986572265625</LongitudeDegrees>
            </Position>
            <AltitudeMeters>259.399993896484375</AltitudeMeters>
            <DistanceMeters>NAN</DistanceMeters>
          </Trackpoint>
          <Trackpoint>
            <Time>2019-10-10T11:28:57.000Z</Time>
            <Position>
              <LatitudeDegrees>37.73432082496583461761474609375</LatitudeDegrees>
              <LongitudeDegrees>-6.17740337736904621124267578125</LongitudeDegrees>
            </Position>
            <AltitudeMeters>258.600006103515625</AltitudeMeters>
            <DistanceMeters>NAN</DistanceMeters>
          </Trackpoint>
          <Trackpoint>
            <Time>2019-10-10T11:28:58.000Z</Time>
            <Position>
              <LatitudeDegrees>37.7342429570853710174560546875</LatitudeDegrees>
              <LongitudeDegrees>-6.1774138547480106353759765625</LongitudeDegrees>
            </Position>
            <AltitudeMeters>258.20001220703125</AltitudeMeters>
            <DistanceMeters>NAN</DistanceMeters>
          </Trackpoint>
          <Trackpoint>
            <Time>2019-10-10T11:29:01.000Z</Time>
            <Position>
              <LatitudeDegrees>37.73400784470140933990478515625</LatitudeDegrees>
              <LongitudeDegrees>-6.17744545452296733856201171875</LongitudeDegrees>
            </Position>
            <AltitudeMeters>257.20001220703125</AltitudeMeters>
            <DistanceMeters>NAN</DistanceMeters>
          </Trackpoint>
          <Trackpoint>
            <Time>2019-10-10T11:29:02.000Z</Time>
            <Position>
              <LatitudeDegrees>37.73392863571643829345703125</LatitudeDegrees>
              <LongitudeDegrees>-6.17745459079742431640625</LongitudeDegrees>
            </Position>
            <AltitudeMeters>257.20001220703125</AltitudeMeters>
            <DistanceMeters>NAN</DistanceMeters>
          </Trackpoint>
          <Trackpoint>
            <Time>2019-10-10T11:29:03.000Z</Time>
            <Position>
              <LatitudeDegrees>37.73383450694382190704345703125</LatitudeDegrees>
              <LongitudeDegrees>-6.17746691219508647918701171875</LongitudeDegrees>
            </Position>
            <AltitudeMeters>257</AltitudeMeters>
            <DistanceMeters>NAN</DistanceMeters>
          </Trackpoint>
          <Trackpoint>
            <Time>2019-10-10T11:29:06.000Z</Time>
            <Position>
              <LatitudeDegrees>37.73360635153949260711669921875</LatitudeDegrees>
              <LongitudeDegrees>-6.17749373428523540496826171875</LongitudeDegrees>
            </Position>
            <AltitudeMeters>256.399993896484375</AltitudeMeters>
            <DistanceMeters>NAN</DistanceMeters>
          </Trackpoint>
          <Trackpoint>
            <Time>2019-10-10T11:29:09.000Z</Time>
            <Position>
              <LatitudeDegrees>37.73335439153015613555908203125</LatitudeDegrees>
              <LongitudeDegrees>-6.17752097547054290771484375</LongitudeDegrees>
            </Position>
            <AltitudeMeters>256</AltitudeMeters>
            <DistanceMeters>NAN</DistanceMeters>
          </Trackpoint>
          <Trackpoint>
            <Time>2019-10-10T11:29:10.000Z</Time>
            <Position>
              <LatitudeDegrees>37.73326805792748928070068359375</LatitudeDegrees>
              <LongitudeDegrees>-6.17753078229725360870361328125</LongitudeDegrees>
            </Position>
            <AltitudeMeters>256</AltitudeMeters>
            <DistanceMeters>NAN</DistanceMeters>
          </Trackpoint>
          <Trackpoint>
            <Time>2019-10-10T11:29:12.000Z</Time>
            <Position>
              <LatitudeDegrees>37.73309254087507724761962890625</LatitudeDegrees>
              <LongitudeDegrees>-6.17755374871194362640380859375</LongitudeDegrees>
            </Position>
            <AltitudeMeters>255.399993896484375</AltitudeMeters>
            <DistanceMeters>NAN</DistanceMeters>
          </Trackpoint>
          <Trackpoint>
            <Time>2019-10-10T11:29:13.000Z</Time>
            <Position>
              <LatitudeDegrees>37.73300386033952236175537109375</LatitudeDegrees>
              <LongitudeDegrees>-6.1775653995573520660400390625</LongitudeDegrees>
            </Position>
            <AltitudeMeters>254.8000030517578125</AltitudeMeters>
            <DistanceMeters>NAN</DistanceMeters>
          </Trackpoint>
          <Trackpoint>
            <Time>2019-10-10T11:29:14.000Z</Time>
            <Position>
              <LatitudeDegrees>37.73291467688977718353271484375</LatitudeDegrees>
              <LongitudeDegrees>-6.17757956497371196746826171875</LongitudeDegrees>
            </Position>
            <AltitudeMeters>254.1999969482421875</AltitudeMeters>
            <DistanceMeters>NAN</DistanceMeters>
          </Trackpoint>
          <Trackpoint>
            <Time>2019-10-10T11:29:15.000Z</Time>
            <Position>
              <LatitudeDegrees>37.73275726474821567535400390625</LatitudeDegrees>
              <LongitudeDegrees>-6.17759867571294307708740234375</LongitudeDegrees>
            </Position>
            <AltitudeMeters>253.1999969482421875</AltitudeMeters>
            <DistanceMeters>NAN</DistanceMeters>
          </Trackpoint>
          <Trackpoint>
            <Time>2019-10-10T11:29:17.000Z</Time>
            <Position>
              <LatitudeDegrees>37.7326379902660846710205078125</LatitudeDegrees>
              <LongitudeDegrees>-6.1776130087673664093017578125</LongitudeDegrees>
            </Position>
            <AltitudeMeters>252.8000030517578125</AltitudeMeters>
            <DistanceMeters>NAN</DistanceMeters>
          </Trackpoint>
          <Trackpoint>
            <Time>2019-10-10T11:29:19.000Z</Time>
            <Position>
              <LatitudeDegrees>37.7324485592544078826904296875</LatitudeDegrees>
              <LongitudeDegrees>-6.17763698101043701171875</LongitudeDegrees>
            </Position>
            <AltitudeMeters>252</AltitudeMeters>
            <DistanceMeters>NAN</DistanceMeters>
          </Trackpoint>
          <Trackpoint>
            <Time>2019-10-10T11:29:21.000Z</Time>
            <Position>
              <LatitudeDegrees>37.73225954733788967132568359375</LatitudeDegrees>
              <LongitudeDegrees>-6.1776629649102687835693359375</LongitudeDegrees>
            </Position>
            <AltitudeMeters>250.8000030517578125</AltitudeMeters>
            <DistanceMeters>NAN</DistanceMeters>
          </Trackpoint>
          <Trackpoint>
            <Time>2019-10-10T11:29:22.000Z</Time>
            <Position>
              <LatitudeDegrees>37.73216801695525646209716796875</LatitudeDegrees>
              <LongitudeDegrees>-6.17767495103180408477783203125</LongitudeDegrees>
            </Position>
            <AltitudeMeters>250.399993896484375</AltitudeMeters>
            <DistanceMeters>NAN</DistanceMeters>
          </Trackpoint>
          <Trackpoint>
            <Time>2019-10-10T11:29:27.000Z</Time>
            <Position>
              <LatitudeDegrees>37.7317567169666290283203125</LatitudeDegrees>
              <LongitudeDegrees>-6.1777367256581783294677734375</LongitudeDegrees>
            </Position>
            <AltitudeMeters>252.1999969482421875</AltitudeMeters>
            <DistanceMeters>NAN</DistanceMeters>
          </Trackpoint>
          <Trackpoint>
            <Time>2019-10-10T11:29:28.000Z</Time>
            <Position>
              <LatitudeDegrees>37.73168723098933696746826171875</LatitudeDegrees>
              <LongitudeDegrees>-6.1777456104755401611328125</LongitudeDegrees>
            </Position>
            <AltitudeMeters>252.8000030517578125</AltitudeMeters>
            <DistanceMeters>NAN</DistanceMeters>
          </Trackpoint>
          <Trackpoint>
            <Time>2019-10-10T11:29:29.000Z</Time>
            <Position>
              <LatitudeDegrees>37.73162319324910640716552734375</LatitudeDegrees>
              <LongitudeDegrees>-6.1777528189122676849365234375</LongitudeDegrees>
            </Position>
            <AltitudeMeters>253.1999969482421875</AltitudeMeters>
            <DistanceMeters>NAN</DistanceMeters>
          </Trackpoint>
          <Trackpoint>
            <Time>2019-10-10T11:29:31.000Z</Time>
            <Position>
              <LatitudeDegrees>37.73150567896664142608642578125</LatitudeDegrees>
              <LongitudeDegrees>-6.17777201347053050994873046875</LongitudeDegrees>
            </Position>
            <AltitudeMeters>254.1999969482421875</AltitudeMeters>
            <DistanceMeters>NAN</DistanceMeters>
          </Trackpoint>
          <Trackpoint>
            <Time>2019-10-10T11:29:32.000Z</Time>
            <Position>
              <LatitudeDegrees>37.73145186714828014373779296875</LatitudeDegrees>
              <LongitudeDegrees>-6.17777846753597259521484375</LongitudeDegrees>
            </Position>
            <AltitudeMeters>254.600006103515625</AltitudeMeters>
            <DistanceMeters>NAN</DistanceMeters>
          </Trackpoint>
          <Trackpoint>
            <Time>2019-10-10T11:29:33.000Z</Time>
            <Position>
              <LatitudeDegrees>37.73140132427215576171875</LatitudeDegrees>
              <LongitudeDegrees>-6.17778290994465351104736328125</LongitudeDegrees>
            </Position>
            <AltitudeMeters>255.1999969482421875</AltitudeMeters>
            <DistanceMeters>NAN</DistanceMeters>
          </Trackpoint>
          <Trackpoint>
            <Time>2019-10-10T11:29:34.000Z</Time>
            <Position>
              <LatitudeDegrees>37.731354050338268280029296875</LatitudeDegrees>
              <LongitudeDegrees>-6.1777900345623493194580078125</LongitudeDegrees>
            </Position>
            <AltitudeMeters>255.8000030517578125</AltitudeMeters>
            <DistanceMeters>NAN</DistanceMeters>
          </Trackpoint>
          <Trackpoint>
            <Time>2019-10-10T11:29:37.000Z</Time>
            <Position>
              <LatitudeDegrees>37.7312264777719974517822265625</LatitudeDegrees>
              <LongitudeDegrees>-6.177816689014434814453125</LongitudeDegrees>
            </Position>
            <AltitudeMeters>256.600006103515625</AltitudeMeters>
            <DistanceMeters>NAN</DistanceMeters>
          </Trackpoint>
          <Trackpoint>
            <Time>2019-10-10T11:29:38.000Z</Time>
            <Position>
              <LatitudeDegrees>37.73118733428418636322021484375</LatitudeDegrees>
              <LongitudeDegrees>-6.17782431654632091522216796875</LongitudeDegrees>
            </Position>
            <AltitudeMeters>256.600006103515625</AltitudeMeters>
            <DistanceMeters>NAN</DistanceMeters>
          </Trackpoint>
          <Trackpoint>
            <Time>2019-10-10T11:29:39.000Z</Time>
            <Position>
              <LatitudeDegrees>37.731148861348628997802734375</LatitudeDegrees>
              <LongitudeDegrees>-6.1778316088020801544189453125</LongitudeDegrees>
            </Position>
            <AltitudeMeters>257</AltitudeMeters>
            <DistanceMeters>NAN</DistanceMeters>
          </Trackpoint>
          <Trackpoint>
            <Time>2019-10-10T11:29:41.000Z</Time>
            <Position>
              <LatitudeDegrees>37.7310722507536411285400390625</LatitudeDegrees>
              <LongitudeDegrees>-6.17784040980041027069091796875</LongitudeDegrees>
            </Position>
            <AltitudeMeters>257.79998779296875</AltitudeMeters>
            <DistanceMeters>NAN</DistanceMeters>
          </Trackpoint>
          <Trackpoint>
            <Time>2019-10-10T11:29:43.000Z</Time>
            <Position>
              <LatitudeDegrees>37.7309968136250972747802734375</LatitudeDegrees>
              <LongitudeDegrees>-6.177843511104583740234375</LongitudeDegrees>
            </Position>
            <AltitudeMeters>258.20001220703125</AltitudeMeters>
            <DistanceMeters>NAN</DistanceMeters>
          </Trackpoint>
          <Trackpoint>
            <Time>2019-10-10T11:29:45.000Z</Time>
            <Position>
              <LatitudeDegrees>37.73092078976333141326904296875</LatitudeDegrees>
              <LongitudeDegrees>-6.17784627713263034820556640625</LongitudeDegrees>
            </Position>
            <AltitudeMeters>259</AltitudeMeters>
            <DistanceMeters>NAN</DistanceMeters>
          </Trackpoint>
          <Trackpoint>
            <Time>2019-10-10T11:29:46.000Z</Time>
            <Position>
              <LatitudeDegrees>37.73088298738002777099609375</LatitudeDegrees>
              <LongitudeDegrees>-6.17784711532294750213623046875</LongitudeDegrees>
            </Position>
            <AltitudeMeters>259</AltitudeMeters>
            <DistanceMeters>NAN</DistanceMeters>
          </Trackpoint>
          <Trackpoint>
            <Time>2019-10-10T11:29:49.000Z</Time>
            <Position>
              <LatitudeDegrees>37.7307658083736896514892578125</LatitudeDegrees>
              <LongitudeDegrees>-6.17785164155066013336181640625</LongitudeDegrees>
            </Position>
            <AltitudeMeters>259.399993896484375</AltitudeMeters>
            <DistanceMeters>NAN</DistanceMeters>
          </Trackpoint>
          <Trackpoint>
            <Time>2019-10-10T11:29:51.000Z</Time>
            <Position>
              <LatitudeDegrees>37.73068626411259174346923828125</LatitudeDegrees>
              <LongitudeDegrees>-6.1778520606458187103271484375</LongitudeDegrees>
            </Position>
            <AltitudeMeters>259.20001220703125</AltitudeMeters>
            <DistanceMeters>NAN</DistanceMeters>
          </Trackpoint>
          <Trackpoint>
            <Time>2019-10-10T11:29:54.000Z</Time>
            <Position>
              <LatitudeDegrees>37.7305576018989086151123046875</LatitudeDegrees>
              <LongitudeDegrees>-6.17784108035266399383544921875</LongitudeDegrees>
            </Position>
            <AltitudeMeters>259.20001220703125</AltitudeMeters>
            <DistanceMeters>NAN</DistanceMeters>
          </Trackpoint>
          <Trackpoint>
            <Time>2019-10-10T11:29:58.000Z</Time>
            <Position>
              <LatitudeDegrees>37.730379737913608551025390625</LatitudeDegrees>
              <LongitudeDegrees>-6.17781979031860828399658203125</LongitudeDegrees>
            </Position>
            <AltitudeMeters>260</AltitudeMeters>
            <DistanceMeters>NAN</DistanceMeters>
          </Trackpoint>
          <Trackpoint>
            <Time>2019-10-10T11:30:07.000Z</Time>
            <Position>
              <LatitudeDegrees>37.7299849502742290496826171875</LatitudeDegrees>
              <LongitudeDegrees>-6.177747957408428192138671875</LongitudeDegrees>
            </Position>
            <AltitudeMeters>259.600006103515625</AltitudeMeters>
            <DistanceMeters>NAN</DistanceMeters>
          </Trackpoint>
          <Trackpoint>
            <Time>2019-10-10T11:30:14.000Z</Time>
            <Position>
              <LatitudeDegrees>37.729679010808467864990234375</LatitudeDegrees>
              <LongitudeDegrees>-6.17768635042011737823486328125</LongitudeDegrees>
            </Position>
            <AltitudeMeters>260.600006103515625</AltitudeMeters>
            <DistanceMeters>NAN</DistanceMeters>
          </Trackpoint>
          <Trackpoint>
            <Time>2019-10-10T11:30:17.000Z</Time>
            <Position>
              <LatitudeDegrees>37.72954733110964298248291015625</LatitudeDegrees>
              <LongitudeDegrees>-6.17765567265450954437255859375</LongitudeDegrees>
            </Position>
            <AltitudeMeters>260.79998779296875</AltitudeMeters>
            <DistanceMeters>NAN</DistanceMeters>
          </Trackpoint>
          <Trackpoint>
            <Time>2019-10-10T11:30:26.000Z</Time>
            <Position>
              <LatitudeDegrees>37.72915556095540523529052734375</LatitudeDegrees>
              <LongitudeDegrees>-6.1775694228708744049072265625</LongitudeDegrees>
            </Position>
            <AltitudeMeters>260.20001220703125</AltitudeMeters>
            <DistanceMeters>NAN</DistanceMeters>
          </Trackpoint>
          <Trackpoint>
            <Time>2019-10-10T11:30:32.000Z</Time>
            <Position>
              <LatitudeDegrees>37.728880383074283599853515625</LatitudeDegrees>
              <LongitudeDegrees>-6.17748283781111240386962890625</LongitudeDegrees>
            </Position>
            <AltitudeMeters>259.399993896484375</AltitudeMeters>
            <DistanceMeters>NAN</DistanceMeters>
          </Trackpoint>
          <Trackpoint>
            <Time>2019-10-10T11:30:34.000Z</Time>
            <Position>
              <LatitudeDegrees>37.7287692390382289886474609375</LatitudeDegrees>
              <LongitudeDegrees>-6.1774316243827342987060546875</LongitudeDegrees>
            </Position>
            <AltitudeMeters>258.600006103515625</AltitudeMeters>
            <DistanceMeters>NAN</DistanceMeters>
          </Trackpoint>
          <Trackpoint>
            <Time>2019-10-10T11:30:35.000Z</Time>
            <Position>
              <LatitudeDegrees>37.72870905697345733642578125</LatitudeDegrees>
              <LongitudeDegrees>-6.17740086279809474945068359375</LongitudeDegrees>
            </Position>
            <AltitudeMeters>258.399993896484375</AltitudeMeters>
            <DistanceMeters>NAN</DistanceMeters>
          </Trackpoint>
          <Trackpoint>
            <Time>2019-10-10T11:30:37.000Z</Time>
            <Position>
              <LatitudeDegrees>37.7285798080265522003173828125</LatitudeDegrees>
              <LongitudeDegrees>-6.17732626385986804962158203125</LongitudeDegrees>
            </Position>
            <AltitudeMeters>256.79998779296875</AltitudeMeters>
            <DistanceMeters>NAN</DistanceMeters>
          </Trackpoint>
          <Trackpoint>
            <Time>2019-10-10T11:30:39.000Z</Time>
            <Position>
              <LatitudeDegrees>37.7284361422061920166015625</LatitudeDegrees>
              <LongitudeDegrees>-6.1772448755800724029541015625</LongitudeDegrees>
            </Position>
            <AltitudeMeters>255.399993896484375</AltitudeMeters>
            <DistanceMeters>NAN</DistanceMeters>
          </Trackpoint>
          <Trackpoint>
            <Time>2019-10-10T11:30:41.000Z</Time>
            <Position>
              <LatitudeDegrees>37.72828618995845317840576171875</LatitudeDegrees>
              <LongitudeDegrees>-6.17715007625520229339599609375</LongitudeDegrees>
            </Position>
            <AltitudeMeters>253.600006103515625</AltitudeMeters>
            <DistanceMeters>NAN</DistanceMeters>
          </Trackpoint>
          <Trackpoint>
            <Time>2019-10-10T11:30:43.000Z</Time>
            <Position>
              <LatitudeDegrees>37.72813296876847743988037109375</LatitudeDegrees>
              <LongitudeDegrees>-6.1770420335233211517333984375</LongitudeDegrees>
            </Position>
            <AltitudeMeters>252</AltitudeMeters>
            <DistanceMeters>NAN</DistanceMeters>
          </Trackpoint>
          <Trackpoint>
            <Time>2019-10-10T11:30:44.000Z</Time>
            <Position>
              <LatitudeDegrees>37.7280557714402675628662109375</LatitudeDegrees>
              <LongitudeDegrees>-6.17697690613567829132080078125</LongitudeDegrees>
            </Position>
            <AltitudeMeters>251.399993896484375</AltitudeMeters>
            <DistanceMeters>NAN</DistanceMeters>
          </Trackpoint>
          <Trackpoint>
            <Time>2019-10-10T11:30:45.000Z</Time>
            <Position>
              <LatitudeDegrees>37.72797622717916965484619140625</LatitudeDegrees>
              <LongitudeDegrees>-6.1769059114158153533935546875</LongitudeDegrees>
            </Position>
            <AltitudeMeters>250.8000030517578125</AltitudeMeters>
            <DistanceMeters>NAN</DistanceMeters>
          </Trackpoint>
          <Trackpoint>
            <Time>2019-10-10T11:30:47.000Z</Time>
            <Position>
              <LatitudeDegrees>37.72780473344027996063232421875</LatitudeDegrees>
              <LongitudeDegrees>-6.17676467634737491607666015625</LongitudeDegrees>
            </Position>
            <AltitudeMeters>248.8000030517578125</AltitudeMeters>
            <DistanceMeters>NAN</DistanceMeters>
          </Trackpoint>
          <Trackpoint>
            <Time>2019-10-10T11:30:48.000Z</Time>
            <Position>
              <LatitudeDegrees>37.72771437652409076690673828125</LatitudeDegrees>
              <LongitudeDegrees>-6.17669141851365566253662109375</LongitudeDegrees>
            </Position>
            <AltitudeMeters>247.600006103515625</AltitudeMeters>
            <DistanceMeters>NAN</DistanceMeters>
          </Trackpoint>
          <Trackpoint>
            <Time>2019-10-10T11:30:49.000Z</Time>
            <Position>
              <LatitudeDegrees>37.72761848755180835723876953125</LatitudeDegrees>
              <LongitudeDegrees>-6.17662989534437656402587890625</LongitudeDegrees>
            </Position>
            <AltitudeMeters>246.8000030517578125</AltitudeMeters>
            <DistanceMeters>NAN</DistanceMeters>
          </Trackpoint>
          <Trackpoint>
            <Time>2019-10-10T11:30:50.000Z</Time>
            <Position>
              <LatitudeDegrees>37.727514803409576416015625</LatitudeDegrees>
              <LongitudeDegrees>-6.17658781819045543670654296875</LongitudeDegrees>
            </Position>
            <AltitudeMeters>246</AltitudeMeters>
            <DistanceMeters>NAN</DistanceMeters>
          </Trackpoint>
          <Trackpoint>
            <Time>2019-10-10T11:30:52.000Z</Time>
            <Position>
              <LatitudeDegrees>37.72729955613613128662109375</LatitudeDegrees>
              <LongitudeDegrees>-6.17656686343252658843994140625</LongitudeDegrees>
            </Position>
            <AltitudeMeters>245.1999969482421875</AltitudeMeters>
            <DistanceMeters>NAN</DistanceMeters>
          </Trackpoint>
          <Trackpoint>
            <Time>2019-10-10T11:30:54.000Z</Time>
            <Position>
              <LatitudeDegrees>37.727089338004589080810546875</LatitudeDegrees>
              <LongitudeDegrees>-6.17658614180982112884521484375</LongitudeDegrees>
            </Position>
            <AltitudeMeters>244.600006103515625</AltitudeMeters>
            <DistanceMeters>NAN</DistanceMeters>
          </Trackpoint>
          <Trackpoint>
            <Time>2019-10-10T11:30:56.000Z</Time>
            <Position>
              <LatitudeDegrees>37.72689010016620159149169921875</LatitudeDegrees>
              <LongitudeDegrees>-6.1766217648983001708984375</LongitudeDegrees>
            </Position>
            <AltitudeMeters>244.600006103515625</AltitudeMeters>
            <DistanceMeters>NAN</DistanceMeters>
          </Trackpoint>
          <Trackpoint>
            <Time>2019-10-10T11:30:59.000Z</Time>
            <Position>
              <LatitudeDegrees>37.72662271745502948760986328125</LatitudeDegrees>
              <LongitudeDegrees>-6.17668144404888153076171875</LongitudeDegrees>
            </Position>
            <AltitudeMeters>244.600006103515625</AltitudeMeters>
            <DistanceMeters>NAN</DistanceMeters>
          </Trackpoint>
          <Trackpoint>
            <Time>2019-10-10T11:31:01.000Z</Time>
            <Position>
              <LatitudeDegrees>37.726460359990596771240234375</LatitudeDegrees>
              <LongitudeDegrees>-6.17671404965221881866455078125</LongitudeDegrees>
            </Position>
            <AltitudeMeters>245.1999969482421875</AltitudeMeters>
            <DistanceMeters>NAN</DistanceMeters>
          </Trackpoint>
          <Trackpoint>
            <Time>2019-10-10T11:31:02.000Z</Time>
            <Position>
              <LatitudeDegrees>37.7263840846717357635498046875</LatitudeDegrees>
              <LongitudeDegrees>-6.1767308972775936126708984375</LongitudeDegrees>
            </Position>
            <AltitudeMeters>245.8000030517578125</AltitudeMeters>
            <DistanceMeters>NAN</DistanceMeters>
          </Trackpoint>
          <Trackpoint>
            <Time>2019-10-10T11:31:05.000Z</Time>
            <Position>
              <LatitudeDegrees>37.7261691726744174957275390625</LatitudeDegrees>
              <LongitudeDegrees>-6.17678144015371799468994140625</LongitudeDegrees>
            </Position>
            <AltitudeMeters>246.399993896484375</AltitudeMeters>
            <DistanceMeters>NAN</DistanceMeters>
          </Trackpoint>
          <Trackpoint>
            <Time>2019-10-10T11:31:06.000Z</Time>
            <Position>
              <LatitudeDegrees>37.72610127925872802734375</LatitudeDegrees>
              <LongitudeDegrees>-6.17679300718009471893310546875</LongitudeDegrees>
            </Position>
            <AltitudeMeters>247</AltitudeMeters>
            <DistanceMeters>NAN</DistanceMeters>
          </Trackpoint>
          <Trackpoint>
            <Time>2019-10-10T11:31:07.000Z</Time>
            <Position>
              <LatitudeDegrees>37.72603489458560943603515625</LatitudeDegrees>
              <LongitudeDegrees>-6.17680373601615428924560546875</LongitudeDegrees>
            </Position>
            <AltitudeMeters>247</AltitudeMeters>
            <DistanceMeters>NAN</DistanceMeters>
          </Trackpoint>
          <Trackpoint>
            <Time>2019-10-10T11:31:12.000Z</Time>
            <Position>
              <LatitudeDegrees>37.72574513219296932220458984375</LatitudeDegrees>
              <LongitudeDegrees>-6.1768458969891071319580078125</LongitudeDegrees>
            </Position>
            <AltitudeMeters>248</AltitudeMeters>
            <DistanceMeters>NAN</DistanceMeters>
          </Trackpoint>
          <Trackpoint>
            <Time>2019-10-10T11:31:13.000Z</Time>
            <Position>
              <LatitudeDegrees>37.7256957627832889556884765625</LatitudeDegrees>
              <LongitudeDegrees>-6.17685268633067607879638671875</LongitudeDegrees>
            </Position>
            <AltitudeMeters>248.399993896484375</AltitudeMeters>
            <DistanceMeters>NAN</DistanceMeters>
          </Trackpoint>
          <Trackpoint>
            <Time>2019-10-10T11:31:15.000Z</Time>
            <Position>
              <LatitudeDegrees>37.7255995385348796844482421875</LatitudeDegrees>
              <LongitudeDegrees>-6.1768676899373531341552734375</LongitudeDegrees>
            </Position>
            <AltitudeMeters>249</AltitudeMeters>
            <DistanceMeters>NAN</DistanceMeters>
          </Trackpoint>
          <Trackpoint>
            <Time>2019-10-10T11:31:21.000Z</Time>
            <Position>
              <LatitudeDegrees>37.7253408730030059814453125</LatitudeDegrees>
              <LongitudeDegrees>-6.17690716870129108428955078125</LongitudeDegrees>
            </Position>
            <AltitudeMeters>249.600006103515625</AltitudeMeters>
            <DistanceMeters>NAN</DistanceMeters>
          </Trackpoint>
          <Trackpoint>
            <Time>2019-10-10T11:31:23.000Z</Time>
            <Position>
              <LatitudeDegrees>37.72525730542838573455810546875</LatitudeDegrees>
              <LongitudeDegrees>-6.176915466785430908203125</LongitudeDegrees>
            </Position>
            <AltitudeMeters>250.1999969482421875</AltitudeMeters>
            <DistanceMeters>NAN</DistanceMeters>
          </Trackpoint>
          <Trackpoint>
            <Time>2019-10-10T11:31:25.000Z</Time>
            <Position>
              <LatitudeDegrees>37.72517398931086063385009765625</LatitudeDegrees>
              <LongitudeDegrees>-6.17692443542182445526123046875</LongitudeDegrees>
            </Position>
            <AltitudeMeters>250</AltitudeMeters>
            <DistanceMeters>NAN</DistanceMeters>
          </Trackpoint>
          <Trackpoint>
            <Time>2019-10-10T11:31:26.000Z</Time>
            <Position>
              <LatitudeDegrees>37.72513543255627155303955078125</LatitudeDegrees>
              <LongitudeDegrees>-6.176925189793109893798828125</LongitudeDegrees>
            </Position>
            <AltitudeMeters>250.1999969482421875</AltitudeMeters>
            <DistanceMeters>NAN</DistanceMeters>
          </Trackpoint>
          <Trackpoint>
            <Time>2019-10-10T11:31:28.000Z</Time>
            <Position>
              <LatitudeDegrees>37.725058235228061676025390625</LatitudeDegrees>
              <LongitudeDegrees>-6.17692745290696620941162109375</LongitudeDegrees>
            </Position>
            <AltitudeMeters>250.600006103515625</AltitudeMeters>
            <DistanceMeters>NAN</DistanceMeters>
          </Trackpoint>
          <Trackpoint>
            <Time>2019-10-10T11:31:29.000Z</Time>
            <Position>
              <LatitudeDegrees>37.72502277977764606475830078125</LatitudeDegrees>
              <LongitudeDegrees>-6.17693080566823482513427734375</LongitudeDegrees>
            </Position>
            <AltitudeMeters>251</AltitudeMeters>
            <DistanceMeters>NAN</DistanceMeters>
          </Trackpoint>
          <Trackpoint>
            <Time>2019-10-10T11:31:30.000Z</Time>
            <Position>
              <LatitudeDegrees>37.72498958744108676910400390625</LatitudeDegrees>
              <LongitudeDegrees>-6.176933236420154571533203125</LongitudeDegrees>
            </Position>
            <AltitudeMeters>251.600006103515625</AltitudeMeters>
            <DistanceMeters>NAN</DistanceMeters>
          </Trackpoint>
          <Trackpoint>
            <Time>2019-10-10T11:31:35.000Z</Time>
            <Position>
              <LatitudeDegrees>37.72484357468783855438232421875</LatitudeDegrees>
              <LongitudeDegrees>-6.1769409477710723876953125</LongitudeDegrees>
            </Position>
            <AltitudeMeters>252.8000030517578125</AltitudeMeters>
            <DistanceMeters>NAN</DistanceMeters>
          </Trackpoint>
          <Trackpoint>
            <Time>2019-10-10T11:31:36.000Z</Time>
            <Position>
              <LatitudeDegrees>37.7248166687786579132080078125</LatitudeDegrees>
              <LongitudeDegrees>-6.17693868465721607208251953125</LongitudeDegrees>
            </Position>
            <AltitudeMeters>252.8000030517578125</AltitudeMeters>
            <DistanceMeters>NAN</DistanceMeters>
          </Trackpoint>
          <Trackpoint>
            <Time>2019-10-10T11:31:41.000Z</Time>
            <Position>
              <LatitudeDegrees>37.724685408174991607666015625</LatitudeDegrees>
              <LongitudeDegrees>-6.17693449370563030242919921875</LongitudeDegrees>
            </Position>
            <AltitudeMeters>254</AltitudeMeters>
            <DistanceMeters>NAN</DistanceMeters>
          </Trackpoint>
          <Trackpoint>
            <Time>2019-10-10T11:31:43.000Z</Time>
            <Position>
              <LatitudeDegrees>37.72463687695562839508056640625</LatitudeDegrees>
              <LongitudeDegrees>-6.1769407801330089569091796875</LongitudeDegrees>
            </Position>
            <AltitudeMeters>254</AltitudeMeters>
            <DistanceMeters>NAN</DistanceMeters>
          </Trackpoint>
          <Trackpoint>
            <Time>2019-10-10T11:31:48.000Z</Time>
            <Position>
              <LatitudeDegrees>37.724531181156635284423828125</LatitudeDegrees>
              <LongitudeDegrees>-6.1769585497677326202392578125</LongitudeDegrees>
            </Position>
            <AltitudeMeters>255</AltitudeMeters>
            <DistanceMeters>NAN</DistanceMeters>
          </Trackpoint>
          <Trackpoint>
            <Time>2019-10-10T11:31:49.000Z</Time>
            <Position>
              <LatitudeDegrees>37.72451031021773815155029296875</LatitudeDegrees>
              <LongitudeDegrees>-6.17696114815771579742431640625</LongitudeDegrees>
            </Position>
            <AltitudeMeters>255</AltitudeMeters>
            <DistanceMeters>NAN</DistanceMeters>
          </Trackpoint>
          <Trackpoint>
            <Time>2019-10-10T11:31:52.000Z</Time>
            <Position>
              <LatitudeDegrees>37.7244448475539684295654296875</LatitudeDegrees>
              <LongitudeDegrees>-6.17696416564285755157470703125</LongitudeDegrees>
            </Position>
            <AltitudeMeters>256.20001220703125</AltitudeMeters>
            <DistanceMeters>NAN</DistanceMeters>
          </Trackpoint>
          <Trackpoint>
            <Time>2019-10-10T11:31:54.000Z</Time>
            <Position>
              <LatitudeDegrees>37.72439883090555667877197265625</LatitudeDegrees>
              <LongitudeDegrees>-6.1769650876522064208984375</LongitudeDegrees>
            </Position>
            <AltitudeMeters>256.20001220703125</AltitudeMeters>
            <DistanceMeters>NAN</DistanceMeters>
          </Trackpoint>
          <Trackpoint>
            <Time>2019-10-10T11:31:57.000Z</Time>
            <Position>
              <LatitudeDegrees>37.724333703517913818359375</LatitudeDegrees>
              <LongitudeDegrees>-6.176967434585094451904296875</LongitudeDegrees>
            </Position>
            <AltitudeMeters>256.600006103515625</AltitudeMeters>
            <DistanceMeters>NAN</DistanceMeters>
          </Trackpoint>
          <Trackpoint>
            <Time>2019-10-10T11:31:58.000Z</Time>
            <Position>
              <LatitudeDegrees>37.72431157529354095458984375</LatitudeDegrees>
              <LongitudeDegrees>-6.17696869187057018280029296875</LongitudeDegrees>
            </Position>
            <AltitudeMeters>257.20001220703125</AltitudeMeters>
            <DistanceMeters>NAN</DistanceMeters>
          </Trackpoint>
          <Trackpoint>
            <Time>2019-10-10T11:32:02.000Z</Time>
            <Position>
              <LatitudeDegrees>37.7242215536534786224365234375</LatitudeDegrees>
              <LongitudeDegrees>-6.17698185145854949951171875</LongitudeDegrees>
            </Position>
            <AltitudeMeters>258</AltitudeMeters>
            <DistanceMeters>NAN</DistanceMeters>
          </Trackpoint>
          <Trackpoint>
            <Time>2019-10-10T11:32:03.000Z</Time>
            <Position>
              <LatitudeDegrees>37.72419833578169345855712890625</LatitudeDegrees>
              <LongitudeDegrees>-6.17698260582983493804931640625</LongitudeDegrees>
            </Position>
            <AltitudeMeters>258.20001220703125</AltitudeMeters>
            <DistanceMeters>NAN</DistanceMeters>
          </Trackpoint>
          <Trackpoint>
            <Time>2019-10-10T11:32:06.000Z</Time>
            <Position>
              <LatitudeDegrees>37.72413061000406742095947265625</LatitudeDegrees>
              <LongitudeDegrees>-6.17698679678142070770263671875</LongitudeDegrees>
            </Position>
            <AltitudeMeters>258.600006103515625</AltitudeMeters>
            <DistanceMeters>NAN</DistanceMeters>
          </Trackpoint>
          <Trackpoint>
            <Time>2019-10-10T11:32:12.000Z</Time>
            <Position>
              <LatitudeDegrees>37.72400018759071826934814453125</LatitudeDegrees>
              <LongitudeDegrees>-6.17703557945787906646728515625</LongitudeDegrees>
            </Position>
            <AltitudeMeters>259.600006103515625</AltitudeMeters>
            <DistanceMeters>NAN</DistanceMeters>
          </Trackpoint>
          <Trackpoint>
            <Time>2019-10-10T11:32:13.000Z</Time>
            <Position>
              <LatitudeDegrees>37.72397923283278942108154296875</LatitudeDegrees>
              <LongitudeDegrees>-6.17704982869327068328857421875</LongitudeDegrees>
            </Position>
            <AltitudeMeters>259.399993896484375</AltitudeMeters>
            <DistanceMeters>NAN</DistanceMeters>
          </Trackpoint>
          <Trackpoint>
            <Time>2019-10-10T11:32:18.000Z</Time>
            <Position>
              <LatitudeDegrees>37.7238604612648487091064453125</LatitudeDegrees>
              <LongitudeDegrees>-6.17711503989994525909423828125</LongitudeDegrees>
            </Position>
            <AltitudeMeters>260.20001220703125</AltitudeMeters>
            <DistanceMeters>NAN</DistanceMeters>
          </Trackpoint>
          <Trackpoint>
            <Time>2019-10-10T11:32:20.000Z</Time>
            <Position>
              <LatitudeDegrees>37.723813354969024658203125</LatitudeDegrees>
              <LongitudeDegrees>-6.177147813141345977783203125</LongitudeDegrees>
            </Position>
            <AltitudeMeters>260.79998779296875</AltitudeMeters>
            <DistanceMeters>NAN</DistanceMeters>
          </Trackpoint>
          <Trackpoint>
            <Time>2019-10-10T11:32:24.000Z</Time>
            <Position>
              <LatitudeDegrees>37.72372107021510601043701171875</LatitudeDegrees>
              <LongitudeDegrees>-6.1772198975086212158203125</LongitudeDegrees>
            </Position>
            <AltitudeMeters>261.600006103515625</AltitudeMeters>
            <DistanceMeters>NAN</DistanceMeters>
          </Trackpoint>
          <Trackpoint>
            <Time>2019-10-10T11:32:25.000Z</Time>
            <Position>
              <LatitudeDegrees>37.7236971817910671234130859375</LatitudeDegrees>
              <LongitudeDegrees>-6.17723758332431316375732421875</LongitudeDegrees>
            </Position>
            <AltitudeMeters>261.79998779296875</AltitudeMeters>
            <DistanceMeters>NAN</DistanceMeters>
          </Trackpoint>
          <Trackpoint>
            <Time>2019-10-10T11:32:33.000Z</Time>
            <Position>
              <LatitudeDegrees>37.72349886596202850341796875</LatitudeDegrees>
              <LongitudeDegrees>-6.17738577537238597869873046875</LongitudeDegrees>
            </Position>
            <AltitudeMeters>261.79998779296875</AltitudeMeters>
            <DistanceMeters>NAN</DistanceMeters>
          </Trackpoint>
          <Trackpoint>
            <Time>2019-10-10T11:32:42.000Z</Time>
            <Position>
              <LatitudeDegrees>37.72322528064250946044921875</LatitudeDegrees>
              <LongitudeDegrees>-6.17749281227588653564453125</LongitudeDegrees>
            </Position>
            <AltitudeMeters>262</AltitudeMeters>
            <DistanceMeters>NAN</DistanceMeters>
          </Trackpoint>
          <Trackpoint>
            <Time>2019-10-10T11:32:48.000Z</Time>
            <Position>
              <LatitudeDegrees>37.722949683666229248046875</LatitudeDegrees>
              <LongitudeDegrees>-6.17748736403882503509521484375</LongitudeDegrees>
            </Position>
            <AltitudeMeters>260.79998779296875</AltitudeMeters>
            <DistanceMeters>NAN</DistanceMeters>
          </Trackpoint>
          <Trackpoint>
            <Time>2019-10-10T11:32:56.000Z</Time>
            <Position>
              <LatitudeDegrees>37.72253972478210926055908203125</LatitudeDegrees>
              <LongitudeDegrees>-6.17740723304450511932373046875</LongitudeDegrees>
            </Position>
            <AltitudeMeters>259.79998779296875</AltitudeMeters>
            <DistanceMeters>NAN</DistanceMeters>
          </Trackpoint>
          <Trackpoint>
            <Time>2019-10-10T11:32:59.000Z</Time>
            <Position>
              <LatitudeDegrees>37.72238465957343578338623046875</LatitudeDegrees>
              <LongitudeDegrees>-6.17734260857105255126953125</LongitudeDegrees>
            </Position>
            <AltitudeMeters>259.79998779296875</AltitudeMeters>
            <DistanceMeters>NAN</DistanceMeters>
          </Trackpoint>
          <Trackpoint>
            <Time>2019-10-10T11:33:01.000Z</Time>
            <Position>
              <LatitudeDegrees>37.72229782305657863616943359375</LatitudeDegrees>
              <LongitudeDegrees>-6.17726742289960384368896484375</LongitudeDegrees>
            </Position>
            <AltitudeMeters>259.600006103515625</AltitudeMeters>
            <DistanceMeters>NAN</DistanceMeters>
          </Trackpoint>
          <Trackpoint>
            <Time>2019-10-10T11:33:02.000Z</Time>
            <Position>
              <LatitudeDegrees>37.72226513363420963287353515625</LatitudeDegrees>
              <LongitudeDegrees>-6.17723439820110797882080078125</LongitudeDegrees>
            </Position>
            <AltitudeMeters>259.79998779296875</AltitudeMeters>
            <DistanceMeters>NAN</DistanceMeters>
          </Trackpoint>
          <Trackpoint>
            <Time>2019-10-10T11:33:04.000Z</Time>
            <Position>
              <LatitudeDegrees>37.72223110310733318328857421875</LatitudeDegrees>
              <LongitudeDegrees>-6.17715778760612010955810546875</LongitudeDegrees>
            </Position>
            <AltitudeMeters>259.600006103515625</AltitudeMeters>
            <DistanceMeters>NAN</DistanceMeters>
          </Trackpoint>
          <Trackpoint>
            <Time>2019-10-10T11:33:09.000Z</Time>
            <Position>
              <LatitudeDegrees>37.7221730165183544158935546875</LatitudeDegrees>
              <LongitudeDegrees>-6.1769793368875980377197265625</LongitudeDegrees>
            </Position>
            <AltitudeMeters>260.399993896484375</AltitudeMeters>
            <DistanceMeters>NAN</DistanceMeters>
          </Trackpoint>
          <Trackpoint>
            <Time>2019-10-10T11:33:11.000Z</Time>
            <Position>
              <LatitudeDegrees>37.722160778939723968505859375</LatitudeDegrees>
              <LongitudeDegrees>-6.176921837031841278076171875</LongitudeDegrees>
            </Position>
            <AltitudeMeters>260.600006103515625</AltitudeMeters>
            <DistanceMeters>NAN</DistanceMeters>
          </Trackpoint>
          <Trackpoint>
            <Time>2019-10-10T11:33:12.000Z</Time>
            <Position>
              <LatitudeDegrees>37.72215734235942363739013671875</LatitudeDegrees>
              <LongitudeDegrees>-6.1768901534378528594970703125</LongitudeDegrees>
            </Position>
            <AltitudeMeters>260.79998779296875</AltitudeMeters>
            <DistanceMeters>NAN</DistanceMeters>
          </Trackpoint>
          <Trackpoint>
            <Time>2019-10-10T11:33:14.000Z</Time>
            <Position>
              <LatitudeDegrees>37.72216119803488254547119140625</LatitudeDegrees>
              <LongitudeDegrees>-6.17682888172566890716552734375</LongitudeDegrees>
            </Position>
            <AltitudeMeters>261</AltitudeMeters>
            <DistanceMeters>NAN</DistanceMeters>
          </Trackpoint>
          <Trackpoint>
            <Time>2019-10-10T11:50:03.000Z</Time>
            <Position>
              <LatitudeDegrees>37.69115653820335865020751953125</LatitudeDegrees>
              <LongitudeDegrees>-6.1812651716172695159912109375</LongitudeDegrees>
            </Position>
            <AltitudeMeters>182.399993896484375</AltitudeMeters>
            <DistanceMeters>NAN</DistanceMeters>
          </Trackpoint>
          <Trackpoint>
            <Time>2019-10-10T11:50:04.000Z</Time>
            <Position>
              <LatitudeDegrees>37.69110624678432941436767578125</LatitudeDegrees>
              <LongitudeDegrees>-6.18127799592912197113037109375</LongitudeDegrees>
            </Position>
            <AltitudeMeters>183.600006103515625</AltitudeMeters>
            <DistanceMeters>NAN</DistanceMeters>
          </Trackpoint>
          <Trackpoint>
            <Time>2019-10-10T11:50:06.000Z</Time>
            <Position>
              <LatitudeDegrees>37.69100247882306575775146484375</LatitudeDegrees>
              <LongitudeDegrees>-6.18131973780691623687744140625</LongitudeDegrees>
            </Position>
            <AltitudeMeters>186.8000030517578125</AltitudeMeters>
            <DistanceMeters>NAN</DistanceMeters>
          </Trackpoint>
          <Trackpoint>
            <Time>2019-10-10T11:50:07.000Z</Time>
            <Position>
              <LatitudeDegrees>37.69095025956630706787109375</LatitudeDegrees>
              <LongitudeDegrees>-6.181342788040637969970703125</LongitudeDegrees>
            </Position>
            <AltitudeMeters>185.399993896484375</AltitudeMeters>
            <DistanceMeters>NAN</DistanceMeters>
          </Trackpoint>
          <Trackpoint>
            <Time>2019-10-10T11:50:09.000Z</Time>
            <Position>
              <LatitudeDegrees>37.69084431231021881103515625</LatitudeDegrees>
              <LongitudeDegrees>-6.1813845299184322357177734375</LongitudeDegrees>
            </Position>
            <AltitudeMeters>185.600006103515625</AltitudeMeters>
            <DistanceMeters>NAN</DistanceMeters>
          </Trackpoint>
          <Trackpoint>
            <Time>2019-10-10T11:50:15.000Z</Time>
            <Position>
              <LatitudeDegrees>37.690498642623424530029296875</LatitudeDegrees>
              <LongitudeDegrees>-6.1815089173614978790283203125</LongitudeDegrees>
            </Position>
            <AltitudeMeters>184.1999969482421875</AltitudeMeters>
            <DistanceMeters>NAN</DistanceMeters>
          </Trackpoint>
          <Trackpoint>
            <Time>2019-10-10T11:50:17.000Z</Time>
            <Position>
              <LatitudeDegrees>37.6903590001165866851806640625</LatitudeDegrees>
              <LongitudeDegrees>-6.18155040778219699859619140625</LongitudeDegrees>
            </Position>
            <AltitudeMeters>183.399993896484375</AltitudeMeters>
            <DistanceMeters>NAN</DistanceMeters>
          </Trackpoint>
          <Trackpoint>
            <Time>2019-10-10T11:50:18.000Z</Time>
            <Position>
              <LatitudeDegrees>37.69028347916901111602783203125</LatitudeDegrees>
              <LongitudeDegrees>-6.1815712787210941314697265625</LongitudeDegrees>
            </Position>
            <AltitudeMeters>182.600006103515625</AltitudeMeters>
            <DistanceMeters>NAN</DistanceMeters>
          </Trackpoint>
          <Trackpoint>
            <Time>2019-10-10T11:50:21.000Z</Time>
            <Position>
              <LatitudeDegrees>37.6900317706167697906494140625</LatitudeDegrees>
              <LongitudeDegrees>-6.1816299520432949066162109375</LongitudeDegrees>
            </Position>
            <AltitudeMeters>181.1999969482421875</AltitudeMeters>
            <DistanceMeters>NAN</DistanceMeters>
          </Trackpoint>
          <Trackpoint>
            <Time>2019-10-10T11:50:22.000Z</Time>
            <Position>
              <LatitudeDegrees>37.6899392344057559967041015625</LatitudeDegrees>
              <LongitudeDegrees>-6.1816520802676677703857421875</LongitudeDegrees>
            </Position>
            <AltitudeMeters>180</AltitudeMeters>
            <DistanceMeters>NAN</DistanceMeters>
          </Trackpoint>
          <Trackpoint>
            <Time>2019-10-10T11:50:23.000Z</Time>
            <Position>
              <LatitudeDegrees>37.6898423396050930023193359375</LatitudeDegrees>
              <LongitudeDegrees>-6.1816732026636600494384765625</LongitudeDegrees>
            </Position>
            <AltitudeMeters>178.600006103515625</AltitudeMeters>
            <DistanceMeters>NAN</DistanceMeters>
          </Trackpoint>
          <Trackpoint>
            <Time>2019-10-10T11:50:24.000Z</Time>
            <Position>
              <LatitudeDegrees>37.68974049948155879974365234375</LatitudeDegrees>
              <LongitudeDegrees>-6.18169449269771575927734375</LongitudeDegrees>
            </Position>
            <AltitudeMeters>177</AltitudeMeters>
            <DistanceMeters>NAN</DistanceMeters>
          </Trackpoint>
          <Trackpoint>
            <Time>2019-10-10T11:50:25.000Z</Time>
            <Position>
              <LatitudeDegrees>37.6896358095109462738037109375</LatitudeDegrees>
              <LongitudeDegrees>-6.18171653710305690765380859375</LongitudeDegrees>
            </Position>
            <AltitudeMeters>174.8000030517578125</AltitudeMeters>
            <DistanceMeters>NAN</DistanceMeters>
          </Trackpoint>
          <Trackpoint>
            <Time>2019-10-10T11:50:26.000Z</Time>
            <Position>
              <LatitudeDegrees>37.68952860496938228607177734375</LatitudeDegrees>
              <LongitudeDegrees>-6.18174076080322265625</LongitudeDegrees>
            </Position>
            <AltitudeMeters>173.600006103515625</AltitudeMeters>
            <DistanceMeters>NAN</DistanceMeters>
          </Trackpoint>
          <Trackpoint>
            <Time>2019-10-10T11:50:27.000Z</Time>
            <Position>
              <LatitudeDegrees>37.6894188858568668365478515625</LatitudeDegrees>
              <LongitudeDegrees>-6.181764565408229827880859375</LongitudeDegrees>
            </Position>
            <AltitudeMeters>172.399993896484375</AltitudeMeters>
            <DistanceMeters>NAN</DistanceMeters>
          </Trackpoint>
          <Trackpoint>
            <Time>2019-10-10T11:50:28.000Z</Time>
            <Position>
              <LatitudeDegrees>37.68930413760244846343994140625</LatitudeDegrees>
              <LongitudeDegrees>-6.1817871965467929840087890625</LongitudeDegrees>
            </Position>
            <AltitudeMeters>171.399993896484375</AltitudeMeters>
            <DistanceMeters>NAN</DistanceMeters>
          </Trackpoint>
          <Trackpoint>
            <Time>2019-10-10T11:50:30.000Z</Time>
            <Position>
              <LatitudeDegrees>37.6890693604946136474609375</LatitudeDegrees>
              <LongitudeDegrees>-6.1818331293761730194091796875</LongitudeDegrees>
            </Position>
            <AltitudeMeters>169.1999969482421875</AltitudeMeters>
            <DistanceMeters>NAN</DistanceMeters>
          </Trackpoint>
          <Trackpoint>
            <Time>2019-10-10T11:50:31.000Z</Time>
            <Position>
              <LatitudeDegrees>37.688949666917324066162109375</LatitudeDegrees>
              <LongitudeDegrees>-6.18185617960989475250244140625</LongitudeDegrees>
            </Position>
            <AltitudeMeters>168</AltitudeMeters>
            <DistanceMeters>NAN</DistanceMeters>
          </Trackpoint>
          <Trackpoint>
            <Time>2019-10-10T11:50:32.000Z</Time>
            <Position>
              <LatitudeDegrees>37.68882888369262218475341796875</LatitudeDegrees>
              <LongitudeDegrees>-6.181877553462982177734375</LongitudeDegrees>
            </Position>
            <AltitudeMeters>167</AltitudeMeters>
            <DistanceMeters>NAN</DistanceMeters>
          </Trackpoint>
          <Trackpoint>
            <Time>2019-10-10T11:50:33.000Z</Time>
            <Position>
              <LatitudeDegrees>37.68870902247726917266845703125</LatitudeDegrees>
              <LongitudeDegrees>-6.1819030344486236572265625</LongitudeDegrees>
            </Position>
            <AltitudeMeters>166</AltitudeMeters>
            <DistanceMeters>NAN</DistanceMeters>
          </Trackpoint>
          <Trackpoint>
            <Time>2019-10-10T11:50:34.000Z</Time>
            <Position>
              <LatitudeDegrees>37.6885890774428844451904296875</LatitudeDegrees>
              <LongitudeDegrees>-6.1819283477962017059326171875</LongitudeDegrees>
            </Position>
            <AltitudeMeters>165</AltitudeMeters>
            <DistanceMeters>NAN</DistanceMeters>
          </Trackpoint>
          <Trackpoint>
            <Time>2019-10-10T11:50:36.000Z</Time>
            <Position>
              <LatitudeDegrees>37.68834558315575122833251953125</LatitudeDegrees>
              <LongitudeDegrees>-6.181977130472660064697265625</LongitudeDegrees>
            </Position>
            <AltitudeMeters>163.8000030517578125</AltitudeMeters>
            <DistanceMeters>NAN</DistanceMeters>
          </Trackpoint>
          <Trackpoint>
            <Time>2019-10-10T11:50:38.000Z</Time>
            <Position>
              <LatitudeDegrees>37.68810569308698177337646484375</LatitudeDegrees>
              <LongitudeDegrees>-6.18202817626297473907470703125</LongitudeDegrees>
            </Position>
            <AltitudeMeters>162.399993896484375</AltitudeMeters>
            <DistanceMeters>NAN</DistanceMeters>
          </Trackpoint>
          <Trackpoint>
            <Time>2019-10-10T11:50:41.000Z</Time>
            <Position>
              <LatitudeDegrees>37.68775432370603084564208984375</LatitudeDegrees>
              <LongitudeDegrees>-6.18210260756313800811767578125</LongitudeDegrees>
            </Position>
            <AltitudeMeters>161.8000030517578125</AltitudeMeters>
            <DistanceMeters>NAN</DistanceMeters>
          </Trackpoint>
          <Trackpoint>
            <Time>2019-10-10T11:50:42.000Z</Time>
            <Position>
              <LatitudeDegrees>37.68763714469969272613525390625</LatitudeDegrees>
              <LongitudeDegrees>-6.18212339468300342559814453125</LongitudeDegrees>
            </Position>
            <AltitudeMeters>161.600006103515625</AltitudeMeters>
            <DistanceMeters>NAN</DistanceMeters>
          </Trackpoint>
          <Trackpoint>
            <Time>2019-10-10T11:50:43.000Z</Time>
            <Position>
              <LatitudeDegrees>37.68752231262624263763427734375</LatitudeDegrees>
              <LongitudeDegrees>-6.18214300833642482757568359375</LongitudeDegrees>
            </Position>
            <AltitudeMeters>160.600006103515625</AltitudeMeters>
            <DistanceMeters>NAN</DistanceMeters>
          </Trackpoint>
          <Trackpoint>
            <Time>2019-10-10T11:50:44.000Z</Time>
            <Position>
              <LatitudeDegrees>37.68740865401923656463623046875</LatitudeDegrees>
              <LongitudeDegrees>-6.182157509028911590576171875</LongitudeDegrees>
            </Position>
            <AltitudeMeters>159.1999969482421875</AltitudeMeters>
            <DistanceMeters>NAN</DistanceMeters>
          </Trackpoint>
          <Trackpoint>
            <Time>2019-10-10T11:50:46.000Z</Time>
            <Position>
              <LatitudeDegrees>37.6871849410235881805419921875</LatitudeDegrees>
              <LongitudeDegrees>-6.18216195143759250640869140625</LongitudeDegrees>
            </Position>
            <AltitudeMeters>158.8000030517578125</AltitudeMeters>
            <DistanceMeters>NAN</DistanceMeters>
          </Trackpoint>
          <Trackpoint>
            <Time>2019-10-10T11:50:47.000Z</Time>
            <Position>
              <LatitudeDegrees>37.68707580864429473876953125</LatitudeDegrees>
              <LongitudeDegrees>-6.18214837275445461273193359375</LongitudeDegrees>
            </Position>
            <AltitudeMeters>159</AltitudeMeters>
            <DistanceMeters>NAN</DistanceMeters>
          </Trackpoint>
          <Trackpoint>
            <Time>2019-10-10T11:50:49.000Z</Time>
            <Position>
              <LatitudeDegrees>37.6868637464940547943115234375</LatitudeDegrees>
              <LongitudeDegrees>-6.18209816515445709228515625</LongitudeDegrees>
            </Position>
            <AltitudeMeters>158</AltitudeMeters>
            <DistanceMeters>NAN</DistanceMeters>
          </Trackpoint>
          <Trackpoint>
            <Time>2019-10-10T11:50:50.000Z</Time>
            <Position>
              <LatitudeDegrees>37.68676157109439373016357421875</LatitudeDegrees>
              <LongitudeDegrees>-6.18206254206597805023193359375</LongitudeDegrees>
            </Position>
            <AltitudeMeters>157.1999969482421875</AltitudeMeters>
            <DistanceMeters>NAN</DistanceMeters>
          </Trackpoint>
          <Trackpoint>
            <Time>2019-10-10T11:50:51.000Z</Time>
            <Position>
              <LatitudeDegrees>37.686661072075366973876953125</LatitudeDegrees>
              <LongitudeDegrees>-6.18202507495880126953125</LongitudeDegrees>
            </Position>
            <AltitudeMeters>157</AltitudeMeters>
            <DistanceMeters>NAN</DistanceMeters>
          </Trackpoint>
          <Trackpoint>
            <Time>2019-10-10T11:50:52.000Z</Time>
            <Position>
              <LatitudeDegrees>37.68656208179891109466552734375</LatitudeDegrees>
              <LongitudeDegrees>-6.18198526091873645782470703125</LongitudeDegrees>
            </Position>
            <AltitudeMeters>156.8000030517578125</AltitudeMeters>
            <DistanceMeters>NAN</DistanceMeters>
          </Trackpoint>
          <Trackpoint>
            <Time>2019-10-10T11:50:53.000Z</Time>
            <Position>
              <LatitudeDegrees>37.6864634267985820770263671875</LatitudeDegrees>
              <LongitudeDegrees>-6.181943602859973907470703125</LongitudeDegrees>
            </Position>
            <AltitudeMeters>157</AltitudeMeters>
            <DistanceMeters>NAN</DistanceMeters>
          </Trackpoint>
          <Trackpoint>
            <Time>2019-10-10T11:50:57.000Z</Time>
            <Position>
              <LatitudeDegrees>37.68612789921462535858154296875</LatitudeDegrees>
              <LongitudeDegrees>-6.1818059720098972320556640625</LongitudeDegrees>
            </Position>
            <AltitudeMeters>156</AltitudeMeters>
            <DistanceMeters>NAN</DistanceMeters>
          </Trackpoint>
          <Trackpoint>
            <Time>2019-10-10T11:50:58.000Z</Time>
            <Position>
              <LatitudeDegrees>37.686073668301105499267578125</LatitudeDegrees>
              <LongitudeDegrees>-6.181786358356475830078125</LongitudeDegrees>
            </Position>
            <AltitudeMeters>155.600006103515625</AltitudeMeters>
            <DistanceMeters>NAN</DistanceMeters>
          </Trackpoint>
          <Trackpoint>
            <Time>2019-10-10T11:50:59.000Z</Time>
            <Position>
              <LatitudeDegrees>37.685978449881076812744140625</LatitudeDegrees>
              <LongitudeDegrees>-6.18175341747701168060302734375</LongitudeDegrees>
            </Position>
            <AltitudeMeters>154.8000030517578125</AltitudeMeters>
            <DistanceMeters>NAN</DistanceMeters>
          </Trackpoint>
          <Trackpoint>
            <Time>2019-10-10T11:51:00.000Z</Time>
            <Position>
              <LatitudeDegrees>37.68588448874652385711669921875</LatitudeDegrees>
              <LongitudeDegrees>-6.18172374553978443145751953125</LongitudeDegrees>
            </Position>
            <AltitudeMeters>154.600006103515625</AltitudeMeters>
            <DistanceMeters>NAN</DistanceMeters>
          </Trackpoint>
          <Trackpoint>
            <Time>2019-10-10T11:51:03.000Z</Time>
            <Position>
              <LatitudeDegrees>37.6856138370931148529052734375</LatitudeDegrees>
              <LongitudeDegrees>-6.18164646439254283905029296875</LongitudeDegrees>
            </Position>
            <AltitudeMeters>154.399993896484375</AltitudeMeters>
            <DistanceMeters>NAN</DistanceMeters>
          </Trackpoint>
          <Trackpoint>
            <Time>2019-10-10T11:51:05.000Z</Time>
            <Position>
              <LatitudeDegrees>37.68544158898293972015380859375</LatitudeDegrees>
              <LongitudeDegrees>-6.18160388432443141937255859375</LongitudeDegrees>
            </Position>
            <AltitudeMeters>154</AltitudeMeters>
            <DistanceMeters>NAN</DistanceMeters>
          </Trackpoint>
          <Trackpoint>
            <Time>2019-10-10T11:51:06.000Z</Time>
            <Position>
              <LatitudeDegrees>37.68535651266574859619140625</LatitudeDegrees>
              <LongitudeDegrees>-6.1815840192139148712158203125</LongitudeDegrees>
            </Position>
            <AltitudeMeters>154.1999969482421875</AltitudeMeters>
            <DistanceMeters>NAN</DistanceMeters>
          </Trackpoint>
          <Trackpoint>
            <Time>2019-10-10T11:51:10.000Z</Time>
            <Position>
              <LatitudeDegrees>37.68502450548112392425537109375</LatitudeDegrees>
              <LongitudeDegrees>-6.1815132759511470794677734375</LongitudeDegrees>
            </Position>
            <AltitudeMeters>154.1999969482421875</AltitudeMeters>
            <DistanceMeters>NAN</DistanceMeters>
          </Trackpoint>
          <Trackpoint>
            <Time>2019-10-10T11:51:12.000Z</Time>
            <Position>
              <LatitudeDegrees>37.68486206419765949249267578125</LatitudeDegrees>
              <LongitudeDegrees>-6.18148393929004669189453125</LongitudeDegrees>
            </Position>
            <AltitudeMeters>153.8000030517578125</AltitudeMeters>
            <DistanceMeters>NAN</DistanceMeters>
          </Trackpoint>
          <Trackpoint>
            <Time>2019-10-10T11:51:13.000Z</Time>
            <Position>
              <LatitudeDegrees>37.68478251993656158447265625</LatitudeDegrees>
              <LongitudeDegrees>-6.18147010914981365203857421875</LongitudeDegrees>
            </Position>
            <AltitudeMeters>153.600006103515625</AltitudeMeters>
            <DistanceMeters>NAN</DistanceMeters>
          </Trackpoint>
          <Trackpoint>
            <Time>2019-10-10T11:51:15.000Z</Time>
            <Position>
              <LatitudeDegrees>37.68462561070919036865234375</LatitudeDegrees>
              <LongitudeDegrees>-6.1814391799271106719970703125</LongitudeDegrees>
            </Position>
            <AltitudeMeters>153.8000030517578125</AltitudeMeters>
            <DistanceMeters>NAN</DistanceMeters>
          </Trackpoint>
          <Trackpoint>
            <Time>2019-10-10T11:51:20.000Z</Time>
            <Position>
              <LatitudeDegrees>37.684239707887172698974609375</LatitudeDegrees>
              <LongitudeDegrees>-6.1813701130449771881103515625</LongitudeDegrees>
            </Position>
            <AltitudeMeters>153.8000030517578125</AltitudeMeters>
            <DistanceMeters>NAN</DistanceMeters>
          </Trackpoint>
          <Trackpoint>
            <Time>2019-10-10T11:51:23.000Z</Time>
            <Position>
              <LatitudeDegrees>37.68400861881673336029052734375</LatitudeDegrees>
              <LongitudeDegrees>-6.181328706443309783935546875</LongitudeDegrees>
            </Position>
            <AltitudeMeters>153.399993896484375</AltitudeMeters>
            <DistanceMeters>NAN</DistanceMeters>
          </Trackpoint>
          <Trackpoint>
            <Time>2019-10-10T11:51:25.000Z</Time>
            <Position>
              <LatitudeDegrees>37.68385506235063076019287109375</LatitudeDegrees>
              <LongitudeDegrees>-6.18130230344831943511962890625</LongitudeDegrees>
            </Position>
            <AltitudeMeters>153</AltitudeMeters>
            <DistanceMeters>NAN</DistanceMeters>
          </Trackpoint>
          <Trackpoint>
            <Time>2019-10-10T11:51:29.000Z</Time>
            <Position>
              <LatitudeDegrees>37.68355247564613819122314453125</LatitudeDegrees>
              <LongitudeDegrees>-6.18122401647269725799560546875</LongitudeDegrees>
            </Position>
            <AltitudeMeters>152.1999969482421875</AltitudeMeters>
            <DistanceMeters>NAN</DistanceMeters>
          </Trackpoint>
          <Trackpoint>
            <Time>2019-10-10T11:51:31.000Z</Time>
            <Position>
              <LatitudeDegrees>37.68340864218771457672119140625</LatitudeDegrees>
              <LongitudeDegrees>-6.181167773902416229248046875</LongitudeDegrees>
            </Position>
            <AltitudeMeters>151.8000030517578125</AltitudeMeters>
            <DistanceMeters>NAN</DistanceMeters>
          </Trackpoint>
          <Trackpoint>
            <Time>2019-10-10T11:51:35.000Z</Time>
            <Position>
              <LatitudeDegrees>37.68312365747988224029541015625</LatitudeDegrees>
              <LongitudeDegrees>-6.18100692518055438995361328125</LongitudeDegrees>
            </Position>
            <AltitudeMeters>150.8000030517578125</AltitudeMeters>
            <DistanceMeters>NAN</DistanceMeters>
          </Trackpoint>
          <Trackpoint>
            <Time>2019-10-10T11:51:37.000Z</Time>
            <Position>
              <LatitudeDegrees>37.68298602662980556488037109375</LatitudeDegrees>
              <LongitudeDegrees>-6.18090030737221240997314453125</LongitudeDegrees>
            </Position>
            <AltitudeMeters>150</AltitudeMeters>
            <DistanceMeters>NAN</DistanceMeters>
          </Trackpoint>
          <Trackpoint>
            <Time>2019-10-10T11:51:38.000Z</Time>
            <Position>
              <LatitudeDegrees>37.6829168759286403656005859375</LatitudeDegrees>
              <LongitudeDegrees>-6.1808383651077747344970703125</LongitudeDegrees>
            </Position>
            <AltitudeMeters>149.600006103515625</AltitudeMeters>
            <DistanceMeters>NAN</DistanceMeters>
          </Trackpoint>
          <Trackpoint>
            <Time>2019-10-10T11:51:41.000Z</Time>
            <Position>
              <LatitudeDegrees>37.68271009437739849090576171875</LatitudeDegrees>
              <LongitudeDegrees>-6.18064482696354389190673828125</LongitudeDegrees>
            </Position>
            <AltitudeMeters>148</AltitudeMeters>
            <DistanceMeters>NAN</DistanceMeters>
          </Trackpoint>
          <Trackpoint>
            <Time>2019-10-10T11:51:43.000Z</Time>
            <Position>
              <LatitudeDegrees>37.682571373879909515380859375</LatitudeDegrees>
              <LongitudeDegrees>-6.180499903857707977294921875</LongitudeDegrees>
            </Position>
            <AltitudeMeters>146.1999969482421875</AltitudeMeters>
            <DistanceMeters>NAN</DistanceMeters>
          </Trackpoint>
          <Trackpoint>
            <Time>2019-10-10T11:51:44.000Z</Time>
            <Position>
              <LatitudeDegrees>37.6825001277029514312744140625</LatitudeDegrees>
              <LongitudeDegrees>-6.18042647838592529296875</LongitudeDegrees>
            </Position>
            <AltitudeMeters>145</AltitudeMeters>
            <DistanceMeters>NAN</DistanceMeters>
          </Trackpoint>
          <Trackpoint>
            <Time>2019-10-10T11:51:46.000Z</Time>
            <Position>
              <LatitudeDegrees>37.68236040137708187103271484375</LatitudeDegrees>
              <LongitudeDegrees>-6.18027082644402980804443359375</LongitudeDegrees>
            </Position>
            <AltitudeMeters>143.8000030517578125</AltitudeMeters>
            <DistanceMeters>NAN</DistanceMeters>
          </Trackpoint>
          <Trackpoint>
            <Time>2019-10-10T11:51:48.000Z</Time>
            <Position>
              <LatitudeDegrees>37.68222830258309841156005859375</LatitudeDegrees>
              <LongitudeDegrees>-6.18009799160063266754150390625</LongitudeDegrees>
            </Position>
            <AltitudeMeters>142.8000030517578125</AltitudeMeters>
            <DistanceMeters>NAN</DistanceMeters>
          </Trackpoint>
          <Trackpoint>
            <Time>2019-10-10T11:51:49.000Z</Time>
            <Position>
              <LatitudeDegrees>37.68215655349195003509521484375</LatitudeDegrees>
              <LongitudeDegrees>-6.1800182797014713287353515625</LongitudeDegrees>
            </Position>
            <AltitudeMeters>142.399993896484375</AltitudeMeters>
            <DistanceMeters>NAN</DistanceMeters>
          </Trackpoint>
          <Trackpoint>
            <Time>2019-10-10T11:51:53.000Z</Time>
            <Position>
              <LatitudeDegrees>37.6818139851093292236328125</LatitudeDegrees>
              <LongitudeDegrees>-6.17980831302702426910400390625</LongitudeDegrees>
            </Position>
            <AltitudeMeters>140.8000030517578125</AltitudeMeters>
            <DistanceMeters>NAN</DistanceMeters>
          </Trackpoint>
          <Trackpoint>
            <Time>2019-10-10T11:51:55.000Z</Time>
            <Position>
              <LatitudeDegrees>37.68162195570766925811767578125</LatitudeDegrees>
              <LongitudeDegrees>-6.1798013560473918914794921875</LongitudeDegrees>
            </Position>
            <AltitudeMeters>139.399993896484375</AltitudeMeters>
            <DistanceMeters>NAN</DistanceMeters>
          </Trackpoint>
          <Trackpoint>
            <Time>2019-10-10T11:51:56.000Z</Time>
            <Position>
              <LatitudeDegrees>37.6815269887447357177734375</LatitudeDegrees>
              <LongitudeDegrees>-6.17982323281466960906982421875</LongitudeDegrees>
            </Position>
            <AltitudeMeters>139.1999969482421875</AltitudeMeters>
            <DistanceMeters>NAN</DistanceMeters>
          </Trackpoint>
          <Trackpoint>
            <Time>2019-10-10T11:51:57.000Z</Time>
            <Position>
              <LatitudeDegrees>37.68139279447495937347412109375</LatitudeDegrees>
              <LongitudeDegrees>-6.17988760583102703094482421875</LongitudeDegrees>
            </Position>
            <AltitudeMeters>139.1999969482421875</AltitudeMeters>
            <DistanceMeters>NAN</DistanceMeters>
          </Trackpoint>
          <Trackpoint>
            <Time>2019-10-10T11:51:58.000Z</Time>
            <Position>
              <LatitudeDegrees>37.68135021440684795379638671875</LatitudeDegrees>
              <LongitudeDegrees>-6.17993772961199283599853515625</LongitudeDegrees>
            </Position>
            <AltitudeMeters>138.8000030517578125</AltitudeMeters>
            <DistanceMeters>NAN</DistanceMeters>
          </Trackpoint>
          <Trackpoint>
            <Time>2019-10-10T11:51:59.000Z</Time>
            <Position>
              <LatitudeDegrees>37.681277878582477569580078125</LatitudeDegrees>
              <LongitudeDegrees>-6.18002708069980144500732421875</LongitudeDegrees>
            </Position>
            <AltitudeMeters>138.600006103515625</AltitudeMeters>
            <DistanceMeters>NAN</DistanceMeters>
          </Trackpoint>
          <Trackpoint>
            <Time>2019-10-10T11:52:00.000Z</Time>
            <Position>
              <LatitudeDegrees>37.68121291883289813995361328125</LatitudeDegrees>
              <LongitudeDegrees>-6.18013344705104827880859375</LongitudeDegrees>
            </Position>
            <AltitudeMeters>138.1999969482421875</AltitudeMeters>
            <DistanceMeters>NAN</DistanceMeters>
          </Trackpoint>
          <Trackpoint>
            <Time>2019-10-10T11:52:02.000Z</Time>
            <Position>
              <LatitudeDegrees>37.68109045922756195068359375</LatitudeDegrees>
              <LongitudeDegrees>-6.18036855943500995635986328125</LongitudeDegrees>
            </Position>
            <AltitudeMeters>136</AltitudeMeters>
            <DistanceMeters>NAN</DistanceMeters>
          </Trackpoint>
          <Trackpoint>
            <Time>2019-10-10T11:52:03.000Z</Time>
            <Position>
              <LatitudeDegrees>37.68102868460118770599365234375</LatitudeDegrees>
              <LongitudeDegrees>-6.1804890073835849761962890625</LongitudeDegrees>
            </Position>
            <AltitudeMeters>134.8000030517578125</AltitudeMeters>
            <DistanceMeters>NAN</DistanceMeters>
          </Trackpoint>
          <Trackpoint>
            <Time>2019-10-10T11:52:04.000Z</Time>
            <Position>
              <LatitudeDegrees>37.68096917308866977691650390625</LatitudeDegrees>
              <LongitudeDegrees>-6.18061062879860401153564453125</LongitudeDegrees>
            </Position>
            <AltitudeMeters>133.8000030517578125</AltitudeMeters>
            <DistanceMeters>NAN</DistanceMeters>
          </Trackpoint>
          <Trackpoint>
            <Time>2019-10-10T11:52:05.000Z</Time>
            <Position>
              <LatitudeDegrees>37.68090982921421527862548828125</LatitudeDegrees>
              <LongitudeDegrees>-6.18073116056621074676513671875</LongitudeDegrees>
            </Position>
            <AltitudeMeters>133.600006103515625</AltitudeMeters>
            <DistanceMeters>NAN</DistanceMeters>
          </Trackpoint>
          <Trackpoint>
            <Time>2019-10-10T11:52:09.000Z</Time>
            <Position>
              <LatitudeDegrees>37.68066801130771636962890625</LatitudeDegrees>
              <LongitudeDegrees>-6.18119291961193084716796875</LongitudeDegrees>
            </Position>
            <AltitudeMeters>134.600006103515625</AltitudeMeters>
            <DistanceMeters>NAN</DistanceMeters>
          </Trackpoint>
          <Trackpoint>
            <Time>2019-10-10T11:52:10.000Z</Time>
            <Position>
              <LatitudeDegrees>37.68059517256915569305419921875</LatitudeDegrees>
              <LongitudeDegrees>-6.1812968552112579345703125</LongitudeDegrees>
            </Position>
            <AltitudeMeters>134.1999969482421875</AltitudeMeters>
            <DistanceMeters>NAN</DistanceMeters>
          </Trackpoint>
          <Trackpoint>
            <Time>2019-10-10T11:52:12.000Z</Time>
            <Position>
              <LatitudeDegrees>37.6804435439407825469970703125</LatitudeDegrees>
              <LongitudeDegrees>-6.18150673806667327880859375</LongitudeDegrees>
            </Position>
            <AltitudeMeters>132</AltitudeMeters>
            <DistanceMeters>NAN</DistanceMeters>
          </Trackpoint>
          <Trackpoint>
            <Time>2019-10-10T11:52:13.000Z</Time>
            <Position>
              <LatitudeDegrees>37.68037858419120311737060546875</LatitudeDegrees>
              <LongitudeDegrees>-6.18162903003394603729248046875</LongitudeDegrees>
            </Position>
            <AltitudeMeters>130.8000030517578125</AltitudeMeters>
            <DistanceMeters>NAN</DistanceMeters>
          </Trackpoint>
          <Trackpoint>
            <Time>2019-10-10T11:52:14.000Z</Time>
            <Position>
              <LatitudeDegrees>37.6803253591060638427734375</LatitudeDegrees>
              <LongitudeDegrees>-6.18176129646599292755126953125</LongitudeDegrees>
            </Position>
            <AltitudeMeters>129.600006103515625</AltitudeMeters>
            <DistanceMeters>NAN</DistanceMeters>
          </Trackpoint>
          <Trackpoint>
            <Time>2019-10-10T11:52:15.000Z</Time>
            <Position>
              <LatitudeDegrees>37.680286802351474761962890625</LatitudeDegrees>
              <LongitudeDegrees>-6.18190160952508449554443359375</LongitudeDegrees>
            </Position>
            <AltitudeMeters>127.59999847412109375</AltitudeMeters>
            <DistanceMeters>NAN</DistanceMeters>
          </Trackpoint>
          <Trackpoint>
            <Time>2019-10-10T11:52:16.000Z</Time>
            <Position>
              <LatitudeDegrees>37.680265344679355621337890625</LatitudeDegrees>
              <LongitudeDegrees>-6.18205047212541103363037109375</LongitudeDegrees>
            </Position>
            <AltitudeMeters>127</AltitudeMeters>
            <DistanceMeters>NAN</DistanceMeters>
          </Trackpoint>
          <Trackpoint>
            <Time>2019-10-10T11:52:17.000Z</Time>
            <Position>
              <LatitudeDegrees>37.6802490837872028350830078125</LatitudeDegrees>
              <LongitudeDegrees>-6.1822022683918476104736328125</LongitudeDegrees>
            </Position>
            <AltitudeMeters>126.40000152587890625</AltitudeMeters>
            <DistanceMeters>NAN</DistanceMeters>
          </Trackpoint>
          <Trackpoint>
            <Time>2019-10-10T11:52:18.000Z</Time>
            <Position>
              <LatitudeDegrees>37.680216729640960693359375</LatitudeDegrees>
              <LongitudeDegrees>-6.1823518015444278717041015625</LongitudeDegrees>
            </Position>
            <AltitudeMeters>125.1999969482421875</AltitudeMeters>
            <DistanceMeters>NAN</DistanceMeters>
          </Trackpoint>
          <Trackpoint>
            <Time>2019-10-10T11:52:19.000Z</Time>
            <Position>
              <LatitudeDegrees>37.68016082234680652618408203125</LatitudeDegrees>
              <LongitudeDegrees>-6.18248867802321910858154296875</LongitudeDegrees>
            </Position>
            <AltitudeMeters>124</AltitudeMeters>
            <DistanceMeters>NAN</DistanceMeters>
          </Trackpoint>
          <Trackpoint>
            <Time>2019-10-10T11:52:20.000Z</Time>
            <Position>
              <LatitudeDegrees>37.68008270300924777984619140625</LatitudeDegrees>
              <LongitudeDegrees>-6.18260904215276241302490234375</LongitudeDegrees>
            </Position>
            <AltitudeMeters>123</AltitudeMeters>
            <DistanceMeters>NAN</DistanceMeters>
          </Trackpoint>
          <Trackpoint>
            <Time>2019-10-10T11:52:21.000Z</Time>
            <Position>
              <LatitudeDegrees>37.6799882389605045318603515625</LatitudeDegrees>
              <LongitudeDegrees>-6.18271431885659694671630859375</LongitudeDegrees>
            </Position>
            <AltitudeMeters>122.8000030517578125</AltitudeMeters>
            <DistanceMeters>NAN</DistanceMeters>
          </Trackpoint>
          <Trackpoint>
            <Time>2019-10-10T11:52:23.000Z</Time>
            <Position>
              <LatitudeDegrees>37.67977885901927947998046875</LatitudeDegrees>
              <LongitudeDegrees>-6.18290123529732227325439453125</LongitudeDegrees>
            </Position>
            <AltitudeMeters>121.59999847412109375</AltitudeMeters>
            <DistanceMeters>NAN</DistanceMeters>
          </Trackpoint>
          <Trackpoint>
            <Time>2019-10-10T11:52:24.000Z</Time>
            <Position>
              <LatitudeDegrees>37.67966813407838344573974609375</LatitudeDegrees>
              <LongitudeDegrees>-6.18299326859414577484130859375</LongitudeDegrees>
            </Position>
            <AltitudeMeters>120.8000030517578125</AltitudeMeters>
            <DistanceMeters>NAN</DistanceMeters>
          </Trackpoint>
          <Trackpoint>
            <Time>2019-10-10T11:52:25.000Z</Time>
            <Position>
              <LatitudeDegrees>37.67955623567104339599609375</LatitudeDegrees>
              <LongitudeDegrees>-6.1830857209861278533935546875</LongitudeDegrees>
            </Position>
            <AltitudeMeters>119.8000030517578125</AltitudeMeters>
            <DistanceMeters>NAN</DistanceMeters>
          </Trackpoint>
          <Trackpoint>
            <Time>2019-10-10T11:52:26.000Z</Time>
            <Position>
              <LatitudeDegrees>37.67944148741662502288818359375</LatitudeDegrees>
              <LongitudeDegrees>-6.18317582644522190093994140625</LongitudeDegrees>
            </Position>
            <AltitudeMeters>118.40000152587890625</AltitudeMeters>
            <DistanceMeters>NAN</DistanceMeters>
          </Trackpoint>
          <Trackpoint>
            <Time>2019-10-10T11:52:27.000Z</Time>
            <Position>
              <LatitudeDegrees>37.67932481132447719573974609375</LatitudeDegrees>
              <LongitudeDegrees>-6.18326132185757160186767578125</LongitudeDegrees>
            </Position>
            <AltitudeMeters>116.8000030517578125</AltitudeMeters>
            <DistanceMeters>NAN</DistanceMeters>
          </Trackpoint>
          <Trackpoint>
            <Time>2019-10-10T11:52:28.000Z</Time>
            <Position>
              <LatitudeDegrees>37.67920662648975849151611328125</LatitudeDegrees>
              <LongitudeDegrees>-6.183343715965747833251953125</LongitudeDegrees>
            </Position>
            <AltitudeMeters>115.1999969482421875</AltitudeMeters>
            <DistanceMeters>NAN</DistanceMeters>
          </Trackpoint>
          <Trackpoint>
            <Time>2019-10-10T11:52:29.000Z</Time>
            <Position>
              <LatitudeDegrees>37.679087854921817779541015625</LatitudeDegrees>
              <LongitudeDegrees>-6.18342191912233829498291015625</LongitudeDegrees>
            </Position>
            <AltitudeMeters>113.8000030517578125</AltitudeMeters>
            <DistanceMeters>NAN</DistanceMeters>
          </Trackpoint>
          <Trackpoint>
            <Time>2019-10-10T11:52:31.000Z</Time>
            <Position>
              <LatitudeDegrees>37.6788496412336826324462890625</LatitudeDegrees>
              <LongitudeDegrees>-6.18357530795037746429443359375</LongitudeDegrees>
            </Position>
            <AltitudeMeters>112.40000152587890625</AltitudeMeters>
            <DistanceMeters>NAN</DistanceMeters>
          </Trackpoint>
          <Trackpoint>
            <Time>2019-10-10T11:52:33.000Z</Time>
            <Position>
              <LatitudeDegrees>37.67860916443169116973876953125</LatitudeDegrees>
              <LongitudeDegrees>-6.1837291158735752105712890625</LongitudeDegrees>
            </Position>
            <AltitudeMeters>109.8000030517578125</AltitudeMeters>
            <DistanceMeters>NAN</DistanceMeters>
          </Trackpoint>
          <Trackpoint>
            <Time>2019-10-10T11:52:34.000Z</Time>
            <Position>
              <LatitudeDegrees>37.67848812974989414215087890625</LatitudeDegrees>
              <LongitudeDegrees>-6.1838032118976116180419921875</LongitudeDegrees>
            </Position>
            <AltitudeMeters>107.8000030517578125</AltitudeMeters>
            <DistanceMeters>NAN</DistanceMeters>
          </Trackpoint>
          <Trackpoint>
            <Time>2019-10-10T11:52:35.000Z</Time>
            <Position>
              <LatitudeDegrees>37.67836868762969970703125</LatitudeDegrees>
              <LongitudeDegrees>-6.18387655355036258697509765625</LongitudeDegrees>
            </Position>
            <AltitudeMeters>106.8000030517578125</AltitudeMeters>
            <DistanceMeters>NAN</DistanceMeters>
          </Trackpoint>
          <Trackpoint>
            <Time>2019-10-10T11:52:36.000Z</Time>
            <Position>
              <LatitudeDegrees>37.6782518438994884490966796875</LatitudeDegrees>
              <LongitudeDegrees>-6.1839577741920948028564453125</LongitudeDegrees>
            </Position>
            <AltitudeMeters>105.8000030517578125</AltitudeMeters>
            <DistanceMeters>NAN</DistanceMeters>
          </Trackpoint>
          <Trackpoint>
            <Time>2019-10-10T11:52:37.000Z</Time>
            <Position>
              <LatitudeDegrees>37.67814346589148044586181640625</LatitudeDegrees>
              <LongitudeDegrees>-6.18405257351696491241455078125</LongitudeDegrees>
            </Position>
            <AltitudeMeters>104.8000030517578125</AltitudeMeters>
            <DistanceMeters>NAN</DistanceMeters>
          </Trackpoint>
          <Trackpoint>
            <Time>2019-10-10T11:52:38.000Z</Time>
            <Position>
              <LatitudeDegrees>37.6780406199395656585693359375</LatitudeDegrees>
              <LongitudeDegrees>-6.18416078388690948486328125</LongitudeDegrees>
            </Position>
            <AltitudeMeters>104.1999969482421875</AltitudeMeters>
            <DistanceMeters>NAN</DistanceMeters>
          </Trackpoint>
          <Trackpoint>
            <Time>2019-10-10T11:52:39.000Z</Time>
            <Position>
              <LatitudeDegrees>37.67794154584407806396484375</LatitudeDegrees>
              <LongitudeDegrees>-6.18427268229424953460693359375</LongitudeDegrees>
            </Position>
            <AltitudeMeters>103.59999847412109375</AltitudeMeters>
            <DistanceMeters>NAN</DistanceMeters>
          </Trackpoint>
          <Trackpoint>
            <Time>2019-10-10T11:52:42.000Z</Time>
            <Position>
              <LatitudeDegrees>37.67763912677764892578125</LatitudeDegrees>
              <LongitudeDegrees>-6.18456940166652202606201171875</LongitudeDegrees>
            </Position>
            <AltitudeMeters>103.59999847412109375</AltitudeMeters>
            <DistanceMeters>NAN</DistanceMeters>
          </Trackpoint>
          <Trackpoint>
            <Time>2019-10-10T11:52:43.000Z</Time>
            <Position>
              <LatitudeDegrees>37.677520103752613067626953125</LatitudeDegrees>
              <LongitudeDegrees>-6.1846281588077545166015625</LongitudeDegrees>
            </Position>
            <AltitudeMeters>102.40000152587890625</AltitudeMeters>
            <DistanceMeters>NAN</DistanceMeters>
          </Trackpoint>
          <Trackpoint>
            <Time>2019-10-10T11:52:44.000Z</Time>
            <Position>
              <LatitudeDegrees>37.67739127390086650848388671875</LatitudeDegrees>
              <LongitudeDegrees>-6.18465959094464778900146484375</LongitudeDegrees>
            </Position>
            <AltitudeMeters>101</AltitudeMeters>
            <DistanceMeters>NAN</DistanceMeters>
          </Trackpoint>
          <Trackpoint>
            <Time>2019-10-10T11:52:45.000Z</Time>
            <Position>
              <LatitudeDegrees>37.67725682817399501800537109375</LatitudeDegrees>
              <LongitudeDegrees>-6.1846538074314594268798828125</LongitudeDegrees>
            </Position>
            <AltitudeMeters>98.40000152587890625</AltitudeMeters>
            <DistanceMeters>NAN</DistanceMeters>
          </Trackpoint>
          <Trackpoint>
            <Time>2019-10-10T11:52:46.000Z</Time>
            <Position>
              <LatitudeDegrees>37.67712623812258243560791015625</LatitudeDegrees>
              <LongitudeDegrees>-6.18460468947887420654296875</LongitudeDegrees>
            </Position>
            <AltitudeMeters>96.59999847412109375</AltitudeMeters>
            <DistanceMeters>NAN</DistanceMeters>
          </Trackpoint>
          <Trackpoint>
            <Time>2019-10-10T11:52:47.000Z</Time>
            <Position>
              <LatitudeDegrees>37.67700604163110256195068359375</LatitudeDegrees>
              <LongitudeDegrees>-6.1845235526561737060546875</LongitudeDegrees>
            </Position>
            <AltitudeMeters>95.8000030517578125</AltitudeMeters>
            <DistanceMeters>NAN</DistanceMeters>
          </Trackpoint>
          <Trackpoint>
            <Time>2019-10-10T11:52:48.000Z</Time>
            <Position>
              <LatitudeDegrees>37.67689053900539875030517578125</LatitudeDegrees>
              <LongitudeDegrees>-6.1844288371503353118896484375</LongitudeDegrees>
            </Position>
            <AltitudeMeters>95</AltitudeMeters>
            <DistanceMeters>NAN</DistanceMeters>
          </Trackpoint>
          <Trackpoint>
            <Time>2019-10-10T11:52:50.000Z</Time>
            <Position>
              <LatitudeDegrees>37.676636986434459686279296875</LatitudeDegrees>
              <LongitudeDegrees>-6.18429061956703662872314453125</LongitudeDegrees>
            </Position>
            <AltitudeMeters>92.40000152587890625</AltitudeMeters>
            <DistanceMeters>NAN</DistanceMeters>
          </Trackpoint>
          <Trackpoint>
            <Time>2019-10-10T11:52:51.000Z</Time>
            <Position>
              <LatitudeDegrees>37.6765040494501590728759765625</LatitudeDegrees>
              <LongitudeDegrees>-6.1842365562915802001953125</LongitudeDegrees>
            </Position>
            <AltitudeMeters>91.1999969482421875</AltitudeMeters>
            <DistanceMeters>NAN</DistanceMeters>
          </Trackpoint>
          <Trackpoint>
            <Time>2019-10-10T11:52:52.000Z</Time>
            <Position>
              <LatitudeDegrees>37.676377482712268829345703125</LatitudeDegrees>
              <LongitudeDegrees>-6.18416790850460529327392578125</LongitudeDegrees>
            </Position>
            <AltitudeMeters>90.59999847412109375</AltitudeMeters>
            <DistanceMeters>NAN</DistanceMeters>
          </Trackpoint>
          <Trackpoint>
            <Time>2019-10-10T11:52:53.000Z</Time>
            <Position>
              <LatitudeDegrees>37.6762582920491695404052734375</LatitudeDegrees>
              <LongitudeDegrees>-6.1840783059597015380859375</LongitudeDegrees>
            </Position>
            <AltitudeMeters>89.8000030517578125</AltitudeMeters>
            <DistanceMeters>NAN</DistanceMeters>
          </Trackpoint>
          <Trackpoint>
            <Time>2019-10-10T11:52:54.000Z</Time>
            <Position>
              <LatitudeDegrees>37.6761510036885738372802734375</LatitudeDegrees>
              <LongitudeDegrees>-6.18396590463817119598388671875</LongitudeDegrees>
            </Position>
            <AltitudeMeters>89.1999969482421875</AltitudeMeters>
            <DistanceMeters>NAN</DistanceMeters>
          </Trackpoint>
          <Trackpoint>
            <Time>2019-10-10T11:52:55.000Z</Time>
            <Position>
              <LatitudeDegrees>37.676048912107944488525390625</LatitudeDegrees>
              <LongitudeDegrees>-6.183843277394771575927734375</LongitudeDegrees>
            </Position>
            <AltitudeMeters>88.1999969482421875</AltitudeMeters>
            <DistanceMeters>NAN</DistanceMeters>
          </Trackpoint>
          <Trackpoint>
            <Time>2019-10-10T11:52:56.000Z</Time>
            <Position>
              <LatitudeDegrees>37.67594757489860057830810546875</LatitudeDegrees>
              <LongitudeDegrees>-6.183719895780086517333984375</LongitudeDegrees>
            </Position>
            <AltitudeMeters>87.40000152587890625</AltitudeMeters>
            <DistanceMeters>NAN</DistanceMeters>
          </Trackpoint>
          <Trackpoint>
            <Time>2019-10-10T11:52:57.000Z</Time>
            <Position>
              <LatitudeDegrees>37.675819583237171173095703125</LatitudeDegrees>
              <LongitudeDegrees>-6.18358804844319820404052734375</LongitudeDegrees>
            </Position>
            <AltitudeMeters>85.8000030517578125</AltitudeMeters>
            <DistanceMeters>NAN</DistanceMeters>
          </Trackpoint>
          <Trackpoint>
            <Time>2019-10-10T11:52:58.000Z</Time>
            <Position>
              <LatitudeDegrees>37.675690166652202606201171875</LatitudeDegrees>
              <LongitudeDegrees>-6.1834920756518840789794921875</LongitudeDegrees>
            </Position>
            <AltitudeMeters>85.1999969482421875</AltitudeMeters>
            <DistanceMeters>NAN</DistanceMeters>
          </Trackpoint>
          <Trackpoint>
            <Time>2019-10-10T11:52:59.000Z</Time>
            <Position>
              <LatitudeDegrees>37.6755890808999538421630859375</LatitudeDegrees>
              <LongitudeDegrees>-6.1834287084639072418212890625</LongitudeDegrees>
            </Position>
            <AltitudeMeters>84.40000152587890625</AltitudeMeters>
            <DistanceMeters>NAN</DistanceMeters>
          </Trackpoint>
          <Trackpoint>
            <Time>2019-10-10T11:53:00.000Z</Time>
            <Position>
              <LatitudeDegrees>37.67546226270496845245361328125</LatitudeDegrees>
              <LongitudeDegrees>-6.1833489127457141876220703125</LongitudeDegrees>
            </Position>
            <AltitudeMeters>82.59999847412109375</AltitudeMeters>
            <DistanceMeters>NAN</DistanceMeters>
          </Trackpoint>
          <Trackpoint>
            <Time>2019-10-10T11:53:01.000Z</Time>
            <Position>
              <LatitudeDegrees>37.67533921636641025543212890625</LatitudeDegrees>
              <LongitudeDegrees>-6.1832590587437152862548828125</LongitudeDegrees>
            </Position>
            <AltitudeMeters>81.40000152587890625</AltitudeMeters>
            <DistanceMeters>NAN</DistanceMeters>
          </Trackpoint>
          <Trackpoint>
            <Time>2019-10-10T11:53:02.000Z</Time>
            <Position>
              <LatitudeDegrees>37.67522086389362812042236328125</LatitudeDegrees>
              <LongitudeDegrees>-6.18315897881984710693359375</LongitudeDegrees>
            </Position>
            <AltitudeMeters>80.1999969482421875</AltitudeMeters>
            <DistanceMeters>NAN</DistanceMeters>
          </Trackpoint>
          <Trackpoint>
            <Time>2019-10-10T11:53:03.000Z</Time>
            <Position>
              <LatitudeDegrees>37.67510854639112949371337890625</LatitudeDegrees>
              <LongitudeDegrees>-6.18304900825023651123046875</LongitudeDegrees>
            </Position>
            <AltitudeMeters>79.1999969482421875</AltitudeMeters>
            <DistanceMeters>NAN</DistanceMeters>
          </Trackpoint>
          <Trackpoint>
            <Time>2019-10-10T11:53:05.000Z</Time>
            <Position>
              <LatitudeDegrees>37.6748913712799549102783203125</LatitudeDegrees>
              <LongitudeDegrees>-6.1828128062188625335693359375</LongitudeDegrees>
            </Position>
            <AltitudeMeters>77.8000030517578125</AltitudeMeters>
            <DistanceMeters>NAN</DistanceMeters>
          </Trackpoint>
          <Trackpoint>
            <Time>2019-10-10T11:53:06.000Z</Time>
            <Position>
              <LatitudeDegrees>37.67478299327194690704345703125</LatitudeDegrees>
              <LongitudeDegrees>-6.18269386701285839080810546875</LongitudeDegrees>
            </Position>
            <AltitudeMeters>76.8000030517578125</AltitudeMeters>
            <DistanceMeters>NAN</DistanceMeters>
          </Trackpoint>
          <Trackpoint>
            <Time>2019-10-10T11:53:07.000Z</Time>
            <Position>
              <LatitudeDegrees>37.67467285506427288055419921875</LatitudeDegrees>
              <LongitudeDegrees>-6.18257534690201282501220703125</LongitudeDegrees>
            </Position>
            <AltitudeMeters>75.1999969482421875</AltitudeMeters>
            <DistanceMeters>NAN</DistanceMeters>
          </Trackpoint>
          <Trackpoint>
            <Time>2019-10-10T11:53:08.000Z</Time>
            <Position>
              <LatitudeDegrees>37.6745617948472499847412109375</LatitudeDegrees>
              <LongitudeDegrees>-6.18245850317180156707763671875</LongitudeDegrees>
            </Position>
            <AltitudeMeters>73.8000030517578125</AltitudeMeters>
            <DistanceMeters>NAN</DistanceMeters>
          </Trackpoint>
          <Trackpoint>
            <Time>2019-10-10T11:53:09.000Z</Time>
            <Position>
              <LatitudeDegrees>37.6744511537253856658935546875</LatitudeDegrees>
              <LongitudeDegrees>-6.182344257831573486328125</LongitudeDegrees>
            </Position>
            <AltitudeMeters>71.8000030517578125</AltitudeMeters>
            <DistanceMeters>NAN</DistanceMeters>
          </Trackpoint>
          <Trackpoint>
            <Time>2019-10-10T11:53:10.000Z</Time>
            <Position>
              <LatitudeDegrees>37.67433774657547473907470703125</LatitudeDegrees>
              <LongitudeDegrees>-6.18223361670970916748046875</LongitudeDegrees>
            </Position>
            <AltitudeMeters>70.40000152587890625</AltitudeMeters>
            <DistanceMeters>NAN</DistanceMeters>
          </Trackpoint>
          <Trackpoint>
            <Time>2019-10-10T11:53:12.000Z</Time>
            <Position>
              <LatitudeDegrees>37.674098275601863861083984375</LatitudeDegrees>
              <LongitudeDegrees>-6.18203521706163883209228515625</LongitudeDegrees>
            </Position>
            <AltitudeMeters>69.59999847412109375</AltitudeMeters>
            <DistanceMeters>NAN</DistanceMeters>
          </Trackpoint>
          <Trackpoint>
            <Time>2019-10-10T11:53:13.000Z</Time>
            <Position>
              <LatitudeDegrees>37.6739787496626377105712890625</LatitudeDegrees>
              <LongitudeDegrees>-6.1819350533187389373779296875</LongitudeDegrees>
            </Position>
            <AltitudeMeters>68.40000152587890625</AltitudeMeters>
            <DistanceMeters>NAN</DistanceMeters>
          </Trackpoint>
          <Trackpoint>
            <Time>2019-10-10T11:53:14.000Z</Time>
            <Position>
              <LatitudeDegrees>37.67386316321790218353271484375</LatitudeDegrees>
              <LongitudeDegrees>-6.18182952515780925750732421875</LongitudeDegrees>
            </Position>
            <AltitudeMeters>66.8000030517578125</AltitudeMeters>
            <DistanceMeters>NAN</DistanceMeters>
          </Trackpoint>
          <Trackpoint>
            <Time>2019-10-10T11:53:15.000Z</Time>
            <Position>
              <LatitudeDegrees>37.67375118099153041839599609375</LatitudeDegrees>
              <LongitudeDegrees>-6.18171787820756435394287109375</LongitudeDegrees>
            </Position>
            <AltitudeMeters>65.40000152587890625</AltitudeMeters>
            <DistanceMeters>NAN</DistanceMeters>
          </Trackpoint>
          <Trackpoint>
            <Time>2019-10-10T11:53:17.000Z</Time>
            <Position>
              <LatitudeDegrees>37.673543058335781097412109375</LatitudeDegrees>
              <LongitudeDegrees>-6.1814696900546550750732421875</LongitudeDegrees>
            </Position>
            <AltitudeMeters>64.40000152587890625</AltitudeMeters>
            <DistanceMeters>NAN</DistanceMeters>
          </Trackpoint>
          <Trackpoint>
            <Time>2019-10-10T11:53:19.000Z</Time>
            <Position>
              <LatitudeDegrees>37.67334482632577419281005859375</LatitudeDegrees>
              <LongitudeDegrees>-6.18120054714381694793701171875</LongitudeDegrees>
            </Position>
            <AltitudeMeters>62.59999847412109375</AltitudeMeters>
            <DistanceMeters>NAN</DistanceMeters>
          </Trackpoint>
          <Trackpoint>
            <Time>2019-10-10T11:53:20.000Z</Time>
            <Position>
              <LatitudeDegrees>37.6732456684112548828125</LatitudeDegrees>
              <LongitudeDegrees>-6.181064508855342864990234375</LongitudeDegrees>
            </Position>
            <AltitudeMeters>60.799999237060546875</AltitudeMeters>
            <DistanceMeters>NAN</DistanceMeters>
          </Trackpoint>
          <Trackpoint>
            <Time>2019-10-10T11:53:22.000Z</Time>
            <Position>
              <LatitudeDegrees>37.67304525710642337799072265625</LatitudeDegrees>
              <LongitudeDegrees>-6.18079452775418758392333984375</LongitudeDegrees>
            </Position>
            <AltitudeMeters>58.40000152587890625</AltitudeMeters>
            <DistanceMeters>NAN</DistanceMeters>
          </Trackpoint>
          <Trackpoint>
            <Time>2019-10-10T11:53:23.000Z</Time>
            <Position>
              <LatitudeDegrees>37.67294593155384063720703125</LatitudeDegrees>
              <LongitudeDegrees>-6.18065941147506237030029296875</LongitudeDegrees>
            </Position>
            <AltitudeMeters>57.200000762939453125</AltitudeMeters>
            <DistanceMeters>NAN</DistanceMeters>
          </Trackpoint>
          <Trackpoint>
            <Time>2019-10-10T11:53:24.000Z</Time>
            <Position>
              <LatitudeDegrees>37.67284811474382877349853515625</LatitudeDegrees>
              <LongitudeDegrees>-6.1805242113769054412841796875</LongitudeDegrees>
            </Position>
            <AltitudeMeters>55.799999237060546875</AltitudeMeters>
            <DistanceMeters>NAN</DistanceMeters>
          </Trackpoint>
          <Trackpoint>
            <Time>2019-10-10T11:53:25.000Z</Time>
            <Position>
              <LatitudeDegrees>37.67275138758122920989990234375</LatitudeDegrees>
              <LongitudeDegrees>-6.18039035238325595855712890625</LongitudeDegrees>
            </Position>
            <AltitudeMeters>54.799999237060546875</AltitudeMeters>
            <DistanceMeters>NAN</DistanceMeters>
          </Trackpoint>
          <Trackpoint>
            <Time>2019-10-10T11:53:27.000Z</Time>
            <Position>
              <LatitudeDegrees>37.67256732098758220672607421875</LatitudeDegrees>
              <LongitudeDegrees>-6.18012062273919582366943359375</LongitudeDegrees>
            </Position>
            <AltitudeMeters>53.40000152587890625</AltitudeMeters>
            <DistanceMeters>NAN</DistanceMeters>
          </Trackpoint>
          <Trackpoint>
            <Time>2019-10-10T11:53:29.000Z</Time>
            <Position>
              <LatitudeDegrees>37.672388367354869842529296875</LatitudeDegrees>
              <LongitudeDegrees>-6.179848127067089080810546875</LongitudeDegrees>
            </Position>
            <AltitudeMeters>51</AltitudeMeters>
            <DistanceMeters>NAN</DistanceMeters>
          </Trackpoint>
          <Trackpoint>
            <Time>2019-10-10T11:53:30.000Z</Time>
            <Position>
              <LatitudeDegrees>37.67230220139026641845703125</LatitudeDegrees>
              <LongitudeDegrees>-6.17971007712185382843017578125</LongitudeDegrees>
            </Position>
            <AltitudeMeters>50</AltitudeMeters>
            <DistanceMeters>NAN</DistanceMeters>
          </Trackpoint>
          <Trackpoint>
            <Time>2019-10-10T11:53:31.000Z</Time>
            <Position>
              <LatitudeDegrees>37.67221796326339244842529296875</LatitudeDegrees>
              <LongitudeDegrees>-6.1795696802437305450439453125</LongitudeDegrees>
            </Position>
            <AltitudeMeters>49.40000152587890625</AltitudeMeters>
            <DistanceMeters>NAN</DistanceMeters>
          </Trackpoint>
          <Trackpoint>
            <Time>2019-10-10T11:53:32.000Z</Time>
            <Position>
              <LatitudeDegrees>37.67213313840329647064208984375</LatitudeDegrees>
              <LongitudeDegrees>-6.17943112738430500030517578125</LongitudeDegrees>
            </Position>
            <AltitudeMeters>48.40000152587890625</AltitudeMeters>
            <DistanceMeters>NAN</DistanceMeters>
          </Trackpoint>
          <Trackpoint>
            <Time>2019-10-10T11:53:34.000Z</Time>
            <Position>
              <LatitudeDegrees>37.67194555141031742095947265625</LatitudeDegrees>
              <LongitudeDegrees>-6.179176233708858489990234375</LongitudeDegrees>
            </Position>
            <AltitudeMeters>46.799999237060546875</AltitudeMeters>
            <DistanceMeters>NAN</DistanceMeters>
          </Trackpoint>
          <Trackpoint>
            <Time>2019-10-10T11:53:36.000Z</Time>
            <Position>
              <LatitudeDegrees>37.671743296086788177490234375</LatitudeDegrees>
              <LongitudeDegrees>-6.1789423786103725433349609375</LongitudeDegrees>
            </Position>
            <AltitudeMeters>45</AltitudeMeters>
            <DistanceMeters>NAN</DistanceMeters>
          </Trackpoint>
          <Trackpoint>
            <Time>2019-10-10T11:53:37.000Z</Time>
            <Position>
              <LatitudeDegrees>37.671638689935207366943359375</LatitudeDegrees>
              <LongitudeDegrees>-6.1788287200033664703369140625</LongitudeDegrees>
            </Position>
            <AltitudeMeters>43.40000152587890625</AltitudeMeters>
            <DistanceMeters>NAN</DistanceMeters>
          </Trackpoint>
          <Trackpoint>
            <Time>2019-10-10T11:53:39.000Z</Time>
            <Position>
              <LatitudeDegrees>37.67143878154456615447998046875</LatitudeDegrees>
              <LongitudeDegrees>-6.1786178313195705413818359375</LongitudeDegrees>
            </Position>
            <AltitudeMeters>42.200000762939453125</AltitudeMeters>
            <DistanceMeters>NAN</DistanceMeters>
          </Trackpoint>
          <Trackpoint>
            <Time>2019-10-10T11:53:40.000Z</Time>
            <Position>
              <LatitudeDegrees>37.6713444851338863372802734375</LatitudeDegrees>
              <LongitudeDegrees>-6.178521774709224700927734375</LongitudeDegrees>
            </Position>
            <AltitudeMeters>42.59999847412109375</AltitudeMeters>
            <DistanceMeters>NAN</DistanceMeters>
          </Trackpoint>
          <Trackpoint>
            <Time>2019-10-10T11:53:42.000Z</Time>
            <Position>
              <LatitudeDegrees>37.6711629331111907958984375</LatitudeDegrees>
              <LongitudeDegrees>-6.17833829484879970550537109375</LongitudeDegrees>
            </Position>
            <AltitudeMeters>43</AltitudeMeters>
            <DistanceMeters>NAN</DistanceMeters>
          </Trackpoint>
          <Trackpoint>
            <Time>2019-10-10T11:53:44.000Z</Time>
            <Position>
              <LatitudeDegrees>37.6709991507232189178466796875</LatitudeDegrees>
              <LongitudeDegrees>-6.17816998623311519622802734375</LongitudeDegrees>
            </Position>
            <AltitudeMeters>44.200000762939453125</AltitudeMeters>
            <DistanceMeters>NAN</DistanceMeters>
          </Trackpoint>
          <Trackpoint>
            <Time>2019-10-10T11:53:46.000Z</Time>
            <Position>
              <LatitudeDegrees>37.670848779380321502685546875</LatitudeDegrees>
              <LongitudeDegrees>-6.17801492102444171905517578125</LongitudeDegrees>
            </Position>
            <AltitudeMeters>46</AltitudeMeters>
            <DistanceMeters>NAN</DistanceMeters>
          </Trackpoint>
          <Trackpoint>
            <Time>2019-10-10T11:53:47.000Z</Time>
            <Position>
              <LatitudeDegrees>37.67078834585845470428466796875</LatitudeDegrees>
              <LongitudeDegrees>-6.1779395677149295806884765625</LongitudeDegrees>
            </Position>
            <AltitudeMeters>46</AltitudeMeters>
            <DistanceMeters>NAN</DistanceMeters>
          </Trackpoint>
          <Trackpoint>
            <Time>2019-10-10T11:53:48.000Z</Time>
            <Position>
              <LatitudeDegrees>37.67073939554393291473388671875</LatitudeDegrees>
              <LongitudeDegrees>-6.177864968776702880859375</LongitudeDegrees>
            </Position>
            <AltitudeMeters>46.799999237060546875</AltitudeMeters>
            <DistanceMeters>NAN</DistanceMeters>
          </Trackpoint>
          <Trackpoint>
            <Time>2019-10-10T11:53:49.000Z</Time>
            <Position>
              <LatitudeDegrees>37.67070150934159755706787109375</LatitudeDegrees>
              <LongitudeDegrees>-6.17779062129557132720947265625</LongitudeDegrees>
            </Position>
            <AltitudeMeters>47.799999237060546875</AltitudeMeters>
            <DistanceMeters>NAN</DistanceMeters>
          </Trackpoint>
          <Trackpoint>
            <Time>2019-10-10T11:53:50.000Z</Time>
            <Position>
              <LatitudeDegrees>37.670671753585338592529296875</LatitudeDegrees>
              <LongitudeDegrees>-6.17772373370826244354248046875</LongitudeDegrees>
            </Position>
            <AltitudeMeters>48.59999847412109375</AltitudeMeters>
            <DistanceMeters>NAN</DistanceMeters>
          </Trackpoint>
          <Trackpoint>
            <Time>2019-10-10T11:53:51.000Z</Time>
            <Position>
              <LatitudeDegrees>37.67064786516129970550537109375</LatitudeDegrees>
              <LongitudeDegrees>-6.17766120471060276031494140625</LongitudeDegrees>
            </Position>
            <AltitudeMeters>49.799999237060546875</AltitudeMeters>
            <DistanceMeters>NAN</DistanceMeters>
          </Trackpoint>
          <Trackpoint>
            <Time>2019-10-10T11:53:52.000Z</Time>
            <Position>
              <LatitudeDegrees>37.67062858678400516510009765625</LatitudeDegrees>
              <LongitudeDegrees>-6.17760420776903629302978515625</LongitudeDegrees>
            </Position>
            <AltitudeMeters>50.40000152587890625</AltitudeMeters>
            <DistanceMeters>NAN</DistanceMeters>
          </Trackpoint>
          <Trackpoint>
            <Time>2019-10-10T11:53:53.000Z</Time>
            <Position>
              <LatitudeDegrees>37.67061601392924785614013671875</LatitudeDegrees>
              <LongitudeDegrees>-6.17754905484616756439208984375</LongitudeDegrees>
            </Position>
            <AltitudeMeters>51.200000762939453125</AltitudeMeters>
            <DistanceMeters>NAN</DistanceMeters>
          </Trackpoint>
          <Trackpoint>
            <Time>2019-10-10T11:53:54.000Z</Time>
            <Position>
              <LatitudeDegrees>37.670603692531585693359375</LatitudeDegrees>
              <LongitudeDegrees>-6.17750060744583606719970703125</LongitudeDegrees>
            </Position>
            <AltitudeMeters>51.59999847412109375</AltitudeMeters>
            <DistanceMeters>NAN</DistanceMeters>
          </Trackpoint>
          <Trackpoint>
            <Time>2019-10-10T11:53:55.000Z</Time>
            <Position>
              <LatitudeDegrees>37.67059405334293842315673828125</LatitudeDegrees>
              <LongitudeDegrees>-6.17746037431061267852783203125</LongitudeDegrees>
            </Position>
            <AltitudeMeters>52.200000762939453125</AltitudeMeters>
            <DistanceMeters>NAN</DistanceMeters>
          </Trackpoint>
          <Trackpoint>
            <Time>2019-10-10T11:53:56.000Z</Time>
            <Position>
              <LatitudeDegrees>37.6705897785723209381103515625</LatitudeDegrees>
              <LongitudeDegrees>-6.177417375147342681884765625</LongitudeDegrees>
            </Position>
            <AltitudeMeters>52.59999847412109375</AltitudeMeters>
            <DistanceMeters>NAN</DistanceMeters>
          </Trackpoint>
          <Trackpoint>
            <Time>2019-10-10T11:53:58.000Z</Time>
            <Position>
              <LatitudeDegrees>37.67057955265045166015625</LatitudeDegrees>
              <LongitudeDegrees>-6.177323162555694580078125</LongitudeDegrees>
            </Position>
            <AltitudeMeters>53.40000152587890625</AltitudeMeters>
            <DistanceMeters>NAN</DistanceMeters>
          </Trackpoint>
          <Trackpoint>
            <Time>2019-10-10T11:54:00.000Z</Time>
            <Position>
              <LatitudeDegrees>37.67057511024177074432373046875</LatitudeDegrees>
              <LongitudeDegrees>-6.1772522516548633575439453125</LongitudeDegrees>
            </Position>
            <AltitudeMeters>53.799999237060546875</AltitudeMeters>
            <DistanceMeters>NAN</DistanceMeters>
          </Trackpoint>
          <Trackpoint>
            <Time>2019-10-10T11:54:02.000Z</Time>
            <Position>
              <LatitudeDegrees>37.670571841299533843994140625</LatitudeDegrees>
              <LongitudeDegrees>-6.17716952227056026458740234375</LongitudeDegrees>
            </Position>
            <AltitudeMeters>54.200000762939453125</AltitudeMeters>
            <DistanceMeters>NAN</DistanceMeters>
          </Trackpoint>
          <Trackpoint>
            <Time>2019-10-10T11:54:03.000Z</Time>
            <Position>
              <LatitudeDegrees>37.67057108692824840545654296875</LatitudeDegrees>
              <LongitudeDegrees>-6.1771328933537006378173828125</LongitudeDegrees>
            </Position>
            <AltitudeMeters>54.59999847412109375</AltitudeMeters>
            <DistanceMeters>NAN</DistanceMeters>
          </Trackpoint>
          <Trackpoint>
            <Time>2019-10-10T11:54:04.000Z</Time>
            <Position>
              <LatitudeDegrees>37.67056907527148723602294921875</LatitudeDegrees>
              <LongitudeDegrees>-6.1770933307707309722900390625</LongitudeDegrees>
            </Position>
            <AltitudeMeters>54.799999237060546875</AltitudeMeters>
            <DistanceMeters>NAN</DistanceMeters>
          </Trackpoint>
          <Trackpoint>
            <Time>2019-10-10T11:54:06.000Z</Time>
            <Position>
              <LatitudeDegrees>37.67057544551789760589599609375</LatitudeDegrees>
              <LongitudeDegrees>-6.17701135575771331787109375</LongitudeDegrees>
            </Position>
            <AltitudeMeters>54.799999237060546875</AltitudeMeters>
            <DistanceMeters>NAN</DistanceMeters>
          </Trackpoint>
          <Trackpoint>
            <Time>2019-10-10T11:54:07.000Z</Time>
            <Position>
              <LatitudeDegrees>37.6705808937549591064453125</LatitudeDegrees>
              <LongitudeDegrees>-6.1769702844321727752685546875</LongitudeDegrees>
            </Position>
            <AltitudeMeters>55.200000762939453125</AltitudeMeters>
            <DistanceMeters>NAN</DistanceMeters>
          </Trackpoint>
          <Trackpoint>
            <Time>2019-10-10T11:54:09.000Z</Time>
            <Position>
              <LatitudeDegrees>37.6705974899232387542724609375</LatitudeDegrees>
              <LongitudeDegrees>-6.17688889615237712860107421875</LongitudeDegrees>
            </Position>
            <AltitudeMeters>55.59999847412109375</AltitudeMeters>
            <DistanceMeters>NAN</DistanceMeters>
          </Trackpoint>
          <Trackpoint>
            <Time>2019-10-10T11:54:10.000Z</Time>
            <Position>
              <LatitudeDegrees>37.67060729674994945526123046875</LatitudeDegrees>
              <LongitudeDegrees>-6.17684665136039257049560546875</LongitudeDegrees>
            </Position>
            <AltitudeMeters>56</AltitudeMeters>
            <DistanceMeters>NAN</DistanceMeters>
          </Trackpoint>
          <Trackpoint>
            <Time>2019-10-10T11:54:12.000Z</Time>
            <Position>
              <LatitudeDegrees>37.670626826584339141845703125</LatitudeDegrees>
              <LongitudeDegrees>-6.1767585575580596923828125</LongitudeDegrees>
            </Position>
            <AltitudeMeters>56.200000762939453125</AltitudeMeters>
            <DistanceMeters>NAN</DistanceMeters>
          </Trackpoint>
          <Trackpoint>
            <Time>2019-10-10T11:54:13.000Z</Time>
            <Position>
              <LatitudeDegrees>37.67063763923943042755126953125</LatitudeDegrees>
              <LongitudeDegrees>-6.17671363055706024169921875</LongitudeDegrees>
            </Position>
            <AltitudeMeters>56</AltitudeMeters>
            <DistanceMeters>NAN</DistanceMeters>
          </Trackpoint>
          <Trackpoint>
            <Time>2019-10-10T11:54:15.000Z</Time>
            <Position>
              <LatitudeDegrees>37.67066630534827709197998046875</LatitudeDegrees>
              <LongitudeDegrees>-6.17662453092634677886962890625</LongitudeDegrees>
            </Position>
            <AltitudeMeters>56</AltitudeMeters>
            <DistanceMeters>NAN</DistanceMeters>
          </Trackpoint>
          <Trackpoint>
            <Time>2019-10-10T11:54:18.000Z</Time>
            <Position>
              <LatitudeDegrees>37.6707141660153865814208984375</LatitudeDegrees>
              <LongitudeDegrees>-6.17650081403553485870361328125</LongitudeDegrees>
            </Position>
            <AltitudeMeters>56.40000152587890625</AltitudeMeters>
            <DistanceMeters>NAN</DistanceMeters>
          </Trackpoint>
          <Trackpoint>
            <Time>2019-10-10T11:54:21.000Z</Time>
            <Position>
              <LatitudeDegrees>37.670765630900859832763671875</LatitudeDegrees>
              <LongitudeDegrees>-6.1763832159340381622314453125</LongitudeDegrees>
            </Position>
            <AltitudeMeters>56</AltitudeMeters>
            <DistanceMeters>NAN</DistanceMeters>
          </Trackpoint>
          <Trackpoint>
            <Time>2019-10-10T11:54:28.000Z</Time>
            <Position>
              <LatitudeDegrees>37.6709156669676303863525390625</LatitudeDegrees>
              <LongitudeDegrees>-6.1760539747774600982666015625</LongitudeDegrees>
            </Position>
            <AltitudeMeters>55.200000762939453125</AltitudeMeters>
            <DistanceMeters>NAN</DistanceMeters>
          </Trackpoint>
          <Trackpoint>
            <Time>2019-10-10T11:54:30.000Z</Time>
            <Position>
              <LatitudeDegrees>37.6709629409015178680419921875</LatitudeDegrees>
              <LongitudeDegrees>-6.17592967115342617034912109375</LongitudeDegrees>
            </Position>
            <AltitudeMeters>54.59999847412109375</AltitudeMeters>
            <DistanceMeters>NAN</DistanceMeters>
          </Trackpoint>
          <Trackpoint>
            <Time>2019-10-10T11:54:32.000Z</Time>
            <Position>
              <LatitudeDegrees>37.67100510187447071075439453125</LatitudeDegrees>
              <LongitudeDegrees>-6.17578935809433460235595703125</LongitudeDegrees>
            </Position>
            <AltitudeMeters>53</AltitudeMeters>
            <DistanceMeters>NAN</DistanceMeters>
          </Trackpoint>
          <Trackpoint>
            <Time>2019-10-10T11:54:34.000Z</Time>
            <Position>
              <LatitudeDegrees>37.6710350252687931060791015625</LatitudeDegrees>
              <LongitudeDegrees>-6.1756278388202190399169921875</LongitudeDegrees>
            </Position>
            <AltitudeMeters>52.200000762939453125</AltitudeMeters>
            <DistanceMeters>NAN</DistanceMeters>
          </Trackpoint>
          <Trackpoint>
            <Time>2019-10-10T11:54:35.000Z</Time>
            <Position>
              <LatitudeDegrees>37.67104935832321643829345703125</LatitudeDegrees>
              <LongitudeDegrees>-6.17554150521755218505859375</LongitudeDegrees>
            </Position>
            <AltitudeMeters>51.59999847412109375</AltitudeMeters>
            <DistanceMeters>NAN</DistanceMeters>
          </Trackpoint>
          <Trackpoint>
            <Time>2019-10-10T11:54:37.000Z</Time>
            <Position>
              <LatitudeDegrees>37.67106276936829090118408203125</LatitudeDegrees>
              <LongitudeDegrees>-6.175354421138763427734375</LongitudeDegrees>
            </Position>
            <AltitudeMeters>50.40000152587890625</AltitudeMeters>
            <DistanceMeters>NAN</DistanceMeters>
          </Trackpoint>
          <Trackpoint>
            <Time>2019-10-10T11:54:39.000Z</Time>
            <Position>
              <LatitudeDegrees>37.67106226645410060882568359375</LatitudeDegrees>
              <LongitudeDegrees>-6.1751492321491241455078125</LongitudeDegrees>
            </Position>
            <AltitudeMeters>49</AltitudeMeters>
            <DistanceMeters>NAN</DistanceMeters>
          </Trackpoint>
          <Trackpoint>
            <Time>2019-10-10T11:54:42.000Z</Time>
            <Position>
              <LatitudeDegrees>37.671054303646087646484375</LatitudeDegrees>
              <LongitudeDegrees>-6.17482535541057586669921875</LongitudeDegrees>
            </Position>
            <AltitudeMeters>47.40000152587890625</AltitudeMeters>
            <DistanceMeters>NAN</DistanceMeters>
          </Trackpoint>
          <Trackpoint>
            <Time>2019-10-10T11:54:46.000Z</Time>
            <Position>
              <LatitudeDegrees>37.67103611491620540618896484375</LatitudeDegrees>
              <LongitudeDegrees>-6.1743977107107639312744140625</LongitudeDegrees>
            </Position>
            <AltitudeMeters>46.59999847412109375</AltitudeMeters>
            <DistanceMeters>NAN</DistanceMeters>
          </Trackpoint>
          <Trackpoint>
            <Time>2019-10-10T11:54:50.000Z</Time>
            <Position>
              <LatitudeDegrees>37.6710098795592784881591796875</LatitudeDegrees>
              <LongitudeDegrees>-6.17401440627872943878173828125</LongitudeDegrees>
            </Position>
            <AltitudeMeters>46.799999237060546875</AltitudeMeters>
            <DistanceMeters>NAN</DistanceMeters>
          </Trackpoint>
          <Trackpoint>
            <Time>2019-10-10T11:54:52.000Z</Time>
            <Position>
              <LatitudeDegrees>37.67098724842071533203125</LatitudeDegrees>
              <LongitudeDegrees>-6.17383562028408050537109375</LongitudeDegrees>
            </Position>
            <AltitudeMeters>47.59999847412109375</AltitudeMeters>
            <DistanceMeters>NAN</DistanceMeters>
          </Trackpoint>
          <Trackpoint>
            <Time>2019-10-10T11:54:56.000Z</Time>
            <Position>
              <LatitudeDegrees>37.67091893590986728668212890625</LatitudeDegrees>
              <LongitudeDegrees>-6.17351048626005649566650390625</LongitudeDegrees>
            </Position>
            <AltitudeMeters>48.59999847412109375</AltitudeMeters>
            <DistanceMeters>NAN</DistanceMeters>
          </Trackpoint>
          <Trackpoint>
            <Time>2019-10-10T11:54:58.000Z</Time>
            <Position>
              <LatitudeDegrees>37.67085305415093898773193359375</LatitudeDegrees>
              <LongitudeDegrees>-6.17332591675221920013427734375</LongitudeDegrees>
            </Position>
            <AltitudeMeters>48.799999237060546875</AltitudeMeters>
            <DistanceMeters>NAN</DistanceMeters>
          </Trackpoint>
          <Trackpoint>
            <Time>2019-10-10T11:55:07.000Z</Time>
            <Position>
              <LatitudeDegrees>37.670636214315891265869140625</LatitudeDegrees>
              <LongitudeDegrees>-6.17276499979197978973388671875</LongitudeDegrees>
            </Position>
            <AltitudeMeters>49.40000152587890625</AltitudeMeters>
            <DistanceMeters>NAN</DistanceMeters>
          </Trackpoint>
          <Trackpoint>
            <Time>2019-10-10T11:55:11.000Z</Time>
            <Position>
              <LatitudeDegrees>37.6705513894557952880859375</LatitudeDegrees>
              <LongitudeDegrees>-6.17254287935793399810791015625</LongitudeDegrees>
            </Position>
            <AltitudeMeters>49.799999237060546875</AltitudeMeters>
            <DistanceMeters>NAN</DistanceMeters>
          </Trackpoint>
          <Trackpoint>
            <Time>2019-10-10T11:55:14.000Z</Time>
            <Position>
              <LatitudeDegrees>37.67049933783710002899169921875</LatitudeDegrees>
              <LongitudeDegrees>-6.17239099927246570587158203125</LongitudeDegrees>
            </Position>
            <AltitudeMeters>50.799999237060546875</AltitudeMeters>
            <DistanceMeters>NAN</DistanceMeters>
          </Trackpoint>
          <Trackpoint>
            <Time>2019-10-10T11:55:15.000Z</Time>
            <Position>
              <LatitudeDegrees>37.67048374749720096588134765625</LatitudeDegrees>
              <LongitudeDegrees>-6.172342635691165924072265625</LongitudeDegrees>
            </Position>
            <AltitudeMeters>51</AltitudeMeters>
            <DistanceMeters>NAN</DistanceMeters>
          </Trackpoint>
          <Trackpoint>
            <Time>2019-10-10T11:55:23.000Z</Time>
            <Position>
              <LatitudeDegrees>37.6703540794551372528076171875</LatitudeDegrees>
              <LongitudeDegrees>-6.171957068145275115966796875</LongitudeDegrees>
            </Position>
            <AltitudeMeters>52</AltitudeMeters>
            <DistanceMeters>NAN</DistanceMeters>
          </Trackpoint>
          <Trackpoint>
            <Time>2019-10-10T11:55:24.000Z</Time>
            <Position>
              <LatitudeDegrees>37.670340836048126220703125</LatitudeDegrees>
              <LongitudeDegrees>-6.1719126440584659576416015625</LongitudeDegrees>
            </Position>
            <AltitudeMeters>52.200000762939453125</AltitudeMeters>
            <DistanceMeters>NAN</DistanceMeters>
          </Trackpoint>
          <Trackpoint>
            <Time>2019-10-10T11:55:29.000Z</Time>
            <Position>
              <LatitudeDegrees>37.67027570866048336029052734375</LatitudeDegrees>
              <LongitudeDegrees>-6.17168876342475414276123046875</LongitudeDegrees>
            </Position>
            <AltitudeMeters>53.200000762939453125</AltitudeMeters>
            <DistanceMeters>NAN</DistanceMeters>
          </Trackpoint>
          <Trackpoint>
            <Time>2019-10-10T11:55:31.000Z</Time>
            <Position>
              <LatitudeDegrees>37.670243270695209503173828125</LatitudeDegrees>
              <LongitudeDegrees>-6.17160444147884845733642578125</LongitudeDegrees>
            </Position>
            <AltitudeMeters>53.40000152587890625</AltitudeMeters>
            <DistanceMeters>NAN</DistanceMeters>
          </Trackpoint>
          <Trackpoint>
            <Time>2019-10-10T11:55:37.000Z</Time>
            <Position>
              <LatitudeDegrees>37.67014293931424617767333984375</LatitudeDegrees>
              <LongitudeDegrees>-6.17136773653328418731689453125</LongitudeDegrees>
            </Position>
            <AltitudeMeters>54.40000152587890625</AltitudeMeters>
            <DistanceMeters>NAN</DistanceMeters>
          </Trackpoint>
          <Trackpoint>
            <Time>2019-10-10T11:55:43.000Z</Time>
            <Position>
              <LatitudeDegrees>37.67007060348987579345703125</LatitudeDegrees>
              <LongitudeDegrees>-6.1711797304451465606689453125</LongitudeDegrees>
            </Position>
            <AltitudeMeters>55.799999237060546875</AltitudeMeters>
            <DistanceMeters>NAN</DistanceMeters>
          </Trackpoint>
          <Trackpoint>
            <Time>2019-10-10T11:55:48.000Z</Time>
            <Position>
              <LatitudeDegrees>37.67000413499772548675537109375</LatitudeDegrees>
              <LongitudeDegrees>-6.1709618009626865386962890625</LongitudeDegrees>
            </Position>
            <AltitudeMeters>56.200000762939453125</AltitudeMeters>
            <DistanceMeters>NAN</DistanceMeters>
          </Trackpoint>
          <Trackpoint>
            <Time>2019-10-10T11:55:52.000Z</Time>
            <Position>
              <LatitudeDegrees>37.6699584536254405975341796875</LatitudeDegrees>
              <LongitudeDegrees>-6.170756779611110687255859375</LongitudeDegrees>
            </Position>
            <AltitudeMeters>56.799999237060546875</AltitudeMeters>
            <DistanceMeters>NAN</DistanceMeters>
          </Trackpoint>
          <Trackpoint>
            <Time>2019-10-10T11:55:56.000Z</Time>
            <Position>
              <LatitudeDegrees>37.66992685385048389434814453125</LatitudeDegrees>
              <LongitudeDegrees>-6.17056525312364101409912109375</LongitudeDegrees>
            </Position>
            <AltitudeMeters>57.59999847412109375</AltitudeMeters>
            <DistanceMeters>NAN</DistanceMeters>
          </Trackpoint>
          <Trackpoint>
            <Time>2019-10-10T11:55:58.000Z</Time>
            <Position>
              <LatitudeDegrees>37.66991931013762950897216796875</LatitudeDegrees>
              <LongitudeDegrees>-6.170444972813129425048828125</LongitudeDegrees>
            </Position>
            <AltitudeMeters>58.200000762939453125</AltitudeMeters>
            <DistanceMeters>NAN</DistanceMeters>
          </Trackpoint>
          <Trackpoint>
            <Time>2019-10-10T11:56:03.000Z</Time>
            <Position>
              <LatitudeDegrees>37.669920735061168670654296875</LatitudeDegrees>
              <LongitudeDegrees>-6.170248501002788543701171875</LongitudeDegrees>
            </Position>
            <AltitudeMeters>59.40000152587890625</AltitudeMeters>
            <DistanceMeters>NAN</DistanceMeters>
          </Trackpoint>
          <Trackpoint>
            <Time>2019-10-10T11:56:08.000Z</Time>
            <Position>
              <LatitudeDegrees>37.66992534510791301727294921875</LatitudeDegrees>
              <LongitudeDegrees>-6.17006435059010982513427734375</LongitudeDegrees>
            </Position>
            <AltitudeMeters>60.40000152587890625</AltitudeMeters>
            <DistanceMeters>NAN</DistanceMeters>
          </Trackpoint>
          <Trackpoint>
            <Time>2019-10-10T11:56:09.000Z</Time>
            <Position>
              <LatitudeDegrees>37.66992534510791301727294921875</LatitudeDegrees>
              <LongitudeDegrees>-6.17002629674971103668212890625</LongitudeDegrees>
            </Position>
            <AltitudeMeters>60.59999847412109375</AltitudeMeters>
            <DistanceMeters>NAN</DistanceMeters>
          </Trackpoint>
          <Trackpoint>
            <Time>2019-10-10T11:56:13.000Z</Time>
            <Position>
              <LatitudeDegrees>37.66992718912661075592041015625</LatitudeDegrees>
              <LongitudeDegrees>-6.16989000700414180755615234375</LongitudeDegrees>
            </Position>
            <AltitudeMeters>61.40000152587890625</AltitudeMeters>
            <DistanceMeters>NAN</DistanceMeters>
          </Trackpoint>
          <Trackpoint>
            <Time>2019-10-10T11:56:18.000Z</Time>
            <Position>
              <LatitudeDegrees>37.66992869786918163299560546875</LatitudeDegrees>
              <LongitudeDegrees>-6.16970904171466827392578125</LongitudeDegrees>
            </Position>
            <AltitudeMeters>62.200000762939453125</AltitudeMeters>
            <DistanceMeters>NAN</DistanceMeters>
          </Trackpoint>
          <Trackpoint>
            <Time>2019-10-10T11:56:22.000Z</Time>
            <Position>
              <LatitudeDegrees>37.6699158735573291778564453125</LatitudeDegrees>
              <LongitudeDegrees>-6.16956830956041812896728515625</LongitudeDegrees>
            </Position>
            <AltitudeMeters>63</AltitudeMeters>
            <DistanceMeters>NAN</DistanceMeters>
          </Trackpoint>
          <Trackpoint>
            <Time>2019-10-10T11:56:26.000Z</Time>
            <Position>
              <LatitudeDegrees>37.66990271396934986114501953125</LatitudeDegrees>
              <LongitudeDegrees>-6.1694240570068359375</LongitudeDegrees>
            </Position>
            <AltitudeMeters>63.200000762939453125</AltitudeMeters>
            <DistanceMeters>NAN</DistanceMeters>
          </Trackpoint>
          <Trackpoint>
            <Time>2019-10-10T11:56:36.000Z</Time>
            <Position>
              <LatitudeDegrees>37.6698484830558300018310546875</LatitudeDegrees>
              <LongitudeDegrees>-6.169056929647922515869140625</LongitudeDegrees>
            </Position>
            <AltitudeMeters>63.59999847412109375</AltitudeMeters>
            <DistanceMeters>NAN</DistanceMeters>
          </Trackpoint>
          <Trackpoint>
            <Time>2019-10-10T11:56:45.000Z</Time>
            <Position>
              <LatitudeDegrees>37.6697623170912265777587890625</LatitudeDegrees>
              <LongitudeDegrees>-6.16865627467632293701171875</LongitudeDegrees>
            </Position>
            <AltitudeMeters>63.799999237060546875</AltitudeMeters>
            <DistanceMeters>NAN</DistanceMeters>
          </Trackpoint>
          <Trackpoint>
            <Time>2019-10-10T11:56:46.000Z</Time>
            <Position>
              <LatitudeDegrees>37.66974949277937412261962890625</LatitudeDegrees>
              <LongitudeDegrees>-6.16861444897949695587158203125</LongitudeDegrees>
            </Position>
            <AltitudeMeters>64</AltitudeMeters>
            <DistanceMeters>NAN</DistanceMeters>
          </Trackpoint>
          <Trackpoint>
            <Time>2019-10-10T11:56:54.000Z</Time>
            <Position>
              <LatitudeDegrees>37.6696493290364742279052734375</LatitudeDegrees>
              <LongitudeDegrees>-6.16829124279320240020751953125</LongitudeDegrees>
            </Position>
            <AltitudeMeters>65</AltitudeMeters>
            <DistanceMeters>NAN</DistanceMeters>
          </Trackpoint>
          <Trackpoint>
            <Time>2019-10-10T11:56:55.000Z</Time>
            <Position>
              <LatitudeDegrees>37.6696359179913997650146484375</LatitudeDegrees>
              <LongitudeDegrees>-6.16825184784829616546630859375</LongitudeDegrees>
            </Position>
            <AltitudeMeters>65</AltitudeMeters>
            <DistanceMeters>NAN</DistanceMeters>
          </Trackpoint>
          <Trackpoint>
            <Time>2019-10-10T11:57:03.000Z</Time>
            <Position>
              <LatitudeDegrees>37.6695118658244609832763671875</LatitudeDegrees>
              <LongitudeDegrees>-6.1679493449628353118896484375</LongitudeDegrees>
            </Position>
            <AltitudeMeters>65.8000030517578125</AltitudeMeters>
            <DistanceMeters>NAN</DistanceMeters>
          </Trackpoint>
          <Trackpoint>
            <Time>2019-10-10T11:57:05.000Z</Time>
            <Position>
              <LatitudeDegrees>37.66947708092629909515380859375</LatitudeDegrees>
              <LongitudeDegrees>-6.16788103245198726654052734375</LongitudeDegrees>
            </Position>
            <AltitudeMeters>66</AltitudeMeters>
            <DistanceMeters>NAN</DistanceMeters>
          </Trackpoint>
          <Trackpoint>
            <Time>2019-10-10T11:57:06.000Z</Time>
            <Position>
              <LatitudeDegrees>37.66945864073932170867919921875</LatitudeDegrees>
              <LongitudeDegrees>-6.16784758865833282470703125</LongitudeDegrees>
            </Position>
            <AltitudeMeters>66</AltitudeMeters>
            <DistanceMeters>NAN</DistanceMeters>
          </Trackpoint>
          <Trackpoint>
            <Time>2019-10-10T11:57:13.000Z</Time>
            <Position>
              <LatitudeDegrees>37.6693160645663738250732421875</LatitudeDegrees>
              <LongitudeDegrees>-6.167623288929462432861328125</LongitudeDegrees>
            </Position>
            <AltitudeMeters>67</AltitudeMeters>
            <DistanceMeters>NAN</DistanceMeters>
          </Trackpoint>
          <Trackpoint>
            <Time>2019-10-10T11:57:16.000Z</Time>
            <Position>
              <LatitudeDegrees>37.6692469976842403411865234375</LatitudeDegrees>
              <LongitudeDegrees>-6.167539469897747039794921875</LongitudeDegrees>
            </Position>
            <AltitudeMeters>67.1999969482421875</AltitudeMeters>
            <DistanceMeters>NAN</DistanceMeters>
          </Trackpoint>
          <Trackpoint>
            <Time>2019-10-10T11:57:19.000Z</Time>
            <Position>
              <LatitudeDegrees>37.6691834628582000732421875</LatitudeDegrees>
              <LongitudeDegrees>-6.16745196282863616943359375</LongitudeDegrees>
            </Position>
            <AltitudeMeters>68.40000152587890625</AltitudeMeters>
            <DistanceMeters>NAN</DistanceMeters>
          </Trackpoint>
          <Trackpoint>
            <Time>2019-10-10T11:57:26.000Z</Time>
            <Position>
              <LatitudeDegrees>37.6690273918211460113525390625</LatitudeDegrees>
              <LongitudeDegrees>-6.167261190712451934814453125</LongitudeDegrees>
            </Position>
            <AltitudeMeters>69.59999847412109375</AltitudeMeters>
            <DistanceMeters>NAN</DistanceMeters>
          </Trackpoint>
          <Trackpoint>
            <Time>2019-10-10T11:57:30.000Z</Time>
            <Position>
              <LatitudeDegrees>37.66894181258976459503173828125</LatitudeDegrees>
              <LongitudeDegrees>-6.1671621166169643402099609375</LongitudeDegrees>
            </Position>
            <AltitudeMeters>70.8000030517578125</AltitudeMeters>
            <DistanceMeters>NAN</DistanceMeters>
          </Trackpoint>
          <Trackpoint>
            <Time>2019-10-10T11:57:36.000Z</Time>
            <Position>
              <LatitudeDegrees>37.6688208617269992828369140625</LatitudeDegrees>
              <LongitudeDegrees>-6.16703127510845661163330078125</LongitudeDegrees>
            </Position>
            <AltitudeMeters>71.40000152587890625</AltitudeMeters>
            <DistanceMeters>NAN</DistanceMeters>
          </Trackpoint>
          <Trackpoint>
            <Time>2019-10-10T11:57:41.000Z</Time>
            <Position>
              <LatitudeDegrees>37.6687142439186573028564453125</LatitudeDegrees>
              <LongitudeDegrees>-6.1669389903545379638671875</LongitudeDegrees>
            </Position>
            <AltitudeMeters>72.40000152587890625</AltitudeMeters>
            <DistanceMeters>NAN</DistanceMeters>
          </Trackpoint>
          <Trackpoint>
            <Time>2019-10-10T11:57:47.000Z</Time>
            <Position>
              <LatitudeDegrees>37.6685794629156589508056640625</LatitudeDegrees>
              <LongitudeDegrees>-6.16683103144168853759765625</LongitudeDegrees>
            </Position>
            <AltitudeMeters>73.40000152587890625</AltitudeMeters>
            <DistanceMeters>NAN</DistanceMeters>
          </Trackpoint>
          <Trackpoint>
            <Time>2019-10-10T11:57:55.000Z</Time>
            <Position>
              <LatitudeDegrees>37.6684007607400417327880859375</LatitudeDegrees>
              <LongitudeDegrees>-6.166703291237354278564453125</LongitudeDegrees>
            </Position>
            <AltitudeMeters>74.59999847412109375</AltitudeMeters>
            <DistanceMeters>NAN</DistanceMeters>
          </Trackpoint>
          <Trackpoint>
            <Time>2019-10-10T11:57:56.000Z</Time>
            <Position>
              <LatitudeDegrees>37.66837871633470058441162109375</LatitudeDegrees>
              <LongitudeDegrees>-6.166686527431011199951171875</LongitudeDegrees>
            </Position>
            <AltitudeMeters>74.8000030517578125</AltitudeMeters>
            <DistanceMeters>NAN</DistanceMeters>
          </Trackpoint>
          <Trackpoint>
            <Time>2019-10-10T11:58:02.000Z</Time>
            <Position>
              <LatitudeDegrees>37.66824527643620967864990234375</LatitudeDegrees>
              <LongitudeDegrees>-6.16660497151315212249755859375</LongitudeDegrees>
            </Position>
            <AltitudeMeters>76</AltitudeMeters>
            <DistanceMeters>NAN</DistanceMeters>
          </Trackpoint>
          <Trackpoint>
            <Time>2019-10-10T11:58:03.000Z</Time>
            <Position>
              <LatitudeDegrees>37.66822231002151966094970703125</LatitudeDegrees>
              <LongitudeDegrees>-6.16659239865839481353759765625</LongitudeDegrees>
            </Position>
            <AltitudeMeters>76.1999969482421875</AltitudeMeters>
            <DistanceMeters>NAN</DistanceMeters>
          </Trackpoint>
          <Trackpoint>
            <Time>2019-10-10T11:58:07.000Z</Time>
            <Position>
              <LatitudeDegrees>37.66813161782920360565185546875</LatitudeDegrees>
              <LongitudeDegrees>-6.1665492318570613861083984375</LongitudeDegrees>
            </Position>
            <AltitudeMeters>76.59999847412109375</AltitudeMeters>
            <DistanceMeters>NAN</DistanceMeters>
          </Trackpoint>
          <Trackpoint>
            <Time>2019-10-10T11:58:09.000Z</Time>
            <Position>
              <LatitudeDegrees>37.66808182932436466217041015625</LatitudeDegrees>
              <LongitudeDegrees>-6.16652953438460826873779296875</LongitudeDegrees>
            </Position>
            <AltitudeMeters>77</AltitudeMeters>
            <DistanceMeters>NAN</DistanceMeters>
          </Trackpoint>
          <Trackpoint>
            <Time>2019-10-10T11:58:16.000Z</Time>
            <Position>
              <LatitudeDegrees>37.6679189689457416534423828125</LatitudeDegrees>
              <LongitudeDegrees>-6.1664573661983013153076171875</LongitudeDegrees>
            </Position>
            <AltitudeMeters>78.1999969482421875</AltitudeMeters>
            <DistanceMeters>NAN</DistanceMeters>
          </Trackpoint>
          <Trackpoint>
            <Time>2019-10-10T11:58:17.000Z</Time>
            <Position>
              <LatitudeDegrees>37.6678944937884807586669921875</LatitudeDegrees>
              <LongitudeDegrees>-6.1664469726383686065673828125</LongitudeDegrees>
            </Position>
            <AltitudeMeters>78.1999969482421875</AltitudeMeters>
            <DistanceMeters>NAN</DistanceMeters>
          </Trackpoint>
          <Trackpoint>
            <Time>2019-10-10T11:58:25.000Z</Time>
            <Position>
              <LatitudeDegrees>37.66769894398748874664306640625</LatitudeDegrees>
              <LongitudeDegrees>-6.16637581028044223785400390625</LongitudeDegrees>
            </Position>
            <AltitudeMeters>79.40000152587890625</AltitudeMeters>
            <DistanceMeters>NAN</DistanceMeters>
          </Trackpoint>
          <Trackpoint>
            <Time>2019-10-10T11:58:27.000Z</Time>
            <Position>
              <LatitudeDegrees>37.66764848493039608001708984375</LatitudeDegrees>
              <LongitudeDegrees>-6.166355609893798828125</LongitudeDegrees>
            </Position>
            <AltitudeMeters>79.8000030517578125</AltitudeMeters>
            <DistanceMeters>NAN</DistanceMeters>
          </Trackpoint>
          <Trackpoint>
            <Time>2019-10-10T11:58:30.000Z</Time>
            <Position>
              <LatitudeDegrees>37.667573802173137664794921875</LatitudeDegrees>
              <LongitudeDegrees>-6.166328452527523040771484375</LongitudeDegrees>
            </Position>
            <AltitudeMeters>80.40000152587890625</AltitudeMeters>
            <DistanceMeters>NAN</DistanceMeters>
          </Trackpoint>
          <Trackpoint>
            <Time>2019-10-10T11:58:37.000Z</Time>
            <Position>
              <LatitudeDegrees>37.66740742139518260955810546875</LatitudeDegrees>
              <LongitudeDegrees>-6.1662712879478931427001953125</LongitudeDegrees>
            </Position>
            <AltitudeMeters>81.40000152587890625</AltitudeMeters>
            <DistanceMeters>NAN</DistanceMeters>
          </Trackpoint>
          <Trackpoint>
            <Time>2019-10-10T11:58:38.000Z</Time>
            <Position>
              <LatitudeDegrees>37.667384035885334014892578125</LatitudeDegrees>
              <LongitudeDegrees>-6.166263408958911895751953125</LongitudeDegrees>
            </Position>
            <AltitudeMeters>81.59999847412109375</AltitudeMeters>
            <DistanceMeters>NAN</DistanceMeters>
          </Trackpoint>
          <Trackpoint>
            <Time>2019-10-10T11:58:43.000Z</Time>
            <Position>
              <LatitudeDegrees>37.66726434230804443359375</LatitudeDegrees>
              <LongitudeDegrees>-6.16621772758662700653076171875</LongitudeDegrees>
            </Position>
            <AltitudeMeters>82.59999847412109375</AltitudeMeters>
            <DistanceMeters>NAN</DistanceMeters>
          </Trackpoint>
          <Trackpoint>
            <Time>2019-10-10T11:58:47.000Z</Time>
            <Position>
              <LatitudeDegrees>37.66716451384127140045166015625</LatitudeDegrees>
              <LongitudeDegrees>-6.1661733873188495635986328125</LongitudeDegrees>
            </Position>
            <AltitudeMeters>83.59999847412109375</AltitudeMeters>
            <DistanceMeters>NAN</DistanceMeters>
          </Trackpoint>
          <Trackpoint>
            <Time>2019-10-10T11:58:48.000Z</Time>
            <Position>
              <LatitudeDegrees>37.66713987104594707489013671875</LatitudeDegrees>
              <LongitudeDegrees>-6.16616358049213886260986328125</LongitudeDegrees>
            </Position>
            <AltitudeMeters>83.8000030517578125</AltitudeMeters>
            <DistanceMeters>NAN</DistanceMeters>
          </Trackpoint>
          <Trackpoint>
            <Time>2019-10-10T11:58:56.000Z</Time>
            <Position>
              <LatitudeDegrees>37.66694507561624050140380859375</LatitudeDegrees>
              <LongitudeDegrees>-6.1661009676754474639892578125</LongitudeDegrees>
            </Position>
            <AltitudeMeters>84.59999847412109375</AltitudeMeters>
            <DistanceMeters>NAN</DistanceMeters>
          </Trackpoint>
          <Trackpoint>
            <Time>2019-10-10T11:58:57.000Z</Time>
            <Position>
              <LatitudeDegrees>37.6669221930205821990966796875</LatitudeDegrees>
              <LongitudeDegrees>-6.16609233431518077850341796875</LongitudeDegrees>
            </Position>
            <AltitudeMeters>84.8000030517578125</AltitudeMeters>
            <DistanceMeters>NAN</DistanceMeters>
          </Trackpoint>
          <Trackpoint>
            <Time>2019-10-10T11:59:02.000Z</Time>
            <Position>
              <LatitudeDegrees>37.666789926588535308837890625</LatitudeDegrees>
              <LongitudeDegrees>-6.1660377681255340576171875</LongitudeDegrees>
            </Position>
            <AltitudeMeters>86.40000152587890625</AltitudeMeters>
            <DistanceMeters>NAN</DistanceMeters>
          </Trackpoint>
          <Trackpoint>
            <Time>2019-10-10T11:59:06.000Z</Time>
            <Position>
              <LatitudeDegrees>37.66670485027134418487548828125</LatitudeDegrees>
              <LongitudeDegrees>-6.165993511676788330078125</LongitudeDegrees>
            </Position>
            <AltitudeMeters>86.40000152587890625</AltitudeMeters>
            <DistanceMeters>NAN</DistanceMeters>
          </Trackpoint>
          <Trackpoint>
            <Time>2019-10-10T11:59:15.000Z</Time>
            <Position>
              <LatitudeDegrees>37.66649429686367511749267578125</LatitudeDegrees>
              <LongitudeDegrees>-6.16587725467979907989501953125</LongitudeDegrees>
            </Position>
            <AltitudeMeters>87.40000152587890625</AltitudeMeters>
            <DistanceMeters>NAN</DistanceMeters>
          </Trackpoint>
          <Trackpoint>
            <Time>2019-10-10T11:59:17.000Z</Time>
            <Position>
              <LatitudeDegrees>37.66644853167235851287841796875</LatitudeDegrees>
              <LongitudeDegrees>-6.1658491753041744232177734375</LongitudeDegrees>
            </Position>
            <AltitudeMeters>88</AltitudeMeters>
            <DistanceMeters>NAN</DistanceMeters>
          </Trackpoint>
          <Trackpoint>
            <Time>2019-10-10T11:59:22.000Z</Time>
            <Position>
              <LatitudeDegrees>37.666332609951496124267578125</LatitudeDegrees>
              <LongitudeDegrees>-6.165784299373626708984375</LongitudeDegrees>
            </Position>
            <AltitudeMeters>88.59999847412109375</AltitudeMeters>
            <DistanceMeters>NAN</DistanceMeters>
          </Trackpoint>
          <Trackpoint>
            <Time>2019-10-10T11:59:27.000Z</Time>
            <Position>
              <LatitudeDegrees>37.6662196218967437744140625</LatitudeDegrees>
              <LongitudeDegrees>-6.16571799851953983306884765625</LongitudeDegrees>
            </Position>
            <AltitudeMeters>89</AltitudeMeters>
            <DistanceMeters>NAN</DistanceMeters>
          </Trackpoint>
          <Trackpoint>
            <Time>2019-10-10T11:59:33.000Z</Time>
            <Position>
              <LatitudeDegrees>37.66608660109341144561767578125</LatitudeDegrees>
              <LongitudeDegrees>-6.16563132964074611663818359375</LongitudeDegrees>
            </Position>
            <AltitudeMeters>89.59999847412109375</AltitudeMeters>
            <DistanceMeters>NAN</DistanceMeters>
          </Trackpoint>
          <Trackpoint>
            <Time>2019-10-10T11:59:36.000Z</Time>
            <Position>
              <LatitudeDegrees>37.66602306626737117767333984375</LatitudeDegrees>
              <LongitudeDegrees>-6.16558455862104892730712890625</LongitudeDegrees>
            </Position>
            <AltitudeMeters>90.40000152587890625</AltitudeMeters>
            <DistanceMeters>NAN</DistanceMeters>
          </Trackpoint>
          <Trackpoint>
            <Time>2019-10-10T11:59:37.000Z</Time>
            <Position>
              <LatitudeDegrees>37.66600077040493488311767578125</LatitudeDegrees>
              <LongitudeDegrees>-6.16556779481470584869384765625</LongitudeDegrees>
            </Position>
            <AltitudeMeters>90.59999847412109375</AltitudeMeters>
            <DistanceMeters>NAN</DistanceMeters>
          </Trackpoint>
          <Trackpoint>
            <Time>2019-10-10T11:59:43.000Z</Time>
            <Position>
              <LatitudeDegrees>37.6658754609525203704833984375</LatitudeDegrees>
              <LongitudeDegrees>-6.16547039709985256195068359375</LongitudeDegrees>
            </Position>
            <AltitudeMeters>91.8000030517578125</AltitudeMeters>
            <DistanceMeters>NAN</DistanceMeters>
          </Trackpoint>
          <Trackpoint>
            <Time>2019-10-10T11:59:47.000Z</Time>
            <Position>
              <LatitudeDegrees>37.66579558141529560089111328125</LatitudeDegrees>
              <LongitudeDegrees>-6.16540250368416309356689453125</LongitudeDegrees>
            </Position>
            <AltitudeMeters>92.1999969482421875</AltitudeMeters>
            <DistanceMeters>NAN</DistanceMeters>
          </Trackpoint>
          <Trackpoint>
            <Time>2019-10-10T11:59:50.000Z</Time>
            <Position>
              <LatitudeDegrees>37.6657356508076190948486328125</LatitudeDegrees>
              <LongitudeDegrees>-6.16534642875194549560546875</LongitudeDegrees>
            </Position>
            <AltitudeMeters>92.8000030517578125</AltitudeMeters>
            <DistanceMeters>NAN</DistanceMeters>
          </Trackpoint>
          <Trackpoint>
            <Time>2019-10-10T11:59:57.000Z</Time>
            <Position>
              <LatitudeDegrees>37.66559072770178318023681640625</LatitudeDegrees>
              <LongitudeDegrees>-6.1652185209095478057861328125</LongitudeDegrees>
            </Position>
            <AltitudeMeters>94</AltitudeMeters>
            <DistanceMeters>NAN</DistanceMeters>
          </Trackpoint>
          <Trackpoint>
            <Time>2019-10-10T12:00:03.000Z</Time>
            <Position>
              <LatitudeDegrees>37.66547371633350849151611328125</LatitudeDegrees>
              <LongitudeDegrees>-6.16509773768484592437744140625</LongitudeDegrees>
            </Position>
            <AltitudeMeters>95.1999969482421875</AltitudeMeters>
            <DistanceMeters>NAN</DistanceMeters>
          </Trackpoint>
          <Trackpoint>
            <Time>2019-10-10T12:00:07.000Z</Time>
            <Position>
              <LatitudeDegrees>37.66538872383534908294677734375</LatitudeDegrees>
              <LongitudeDegrees>-6.16502456367015838623046875</LongitudeDegrees>
            </Position>
            <AltitudeMeters>95.59999847412109375</AltitudeMeters>
            <DistanceMeters>NAN</DistanceMeters>
          </Trackpoint>
          <Trackpoint>
            <Time>2019-10-10T12:00:12.000Z</Time>
            <Position>
              <LatitudeDegrees>37.66528227366507053375244140625</LatitudeDegrees>
              <LongitudeDegrees>-6.1649238131940364837646484375</LongitudeDegrees>
            </Position>
            <AltitudeMeters>96.1999969482421875</AltitudeMeters>
            <DistanceMeters>NAN</DistanceMeters>
          </Trackpoint>
          <Trackpoint>
            <Time>2019-10-10T12:00:15.000Z</Time>
            <Position>
              <LatitudeDegrees>37.66522611491382122039794921875</LatitudeDegrees>
              <LongitudeDegrees>-6.16486572660505771636962890625</LongitudeDegrees>
            </Position>
            <AltitudeMeters>96.8000030517578125</AltitudeMeters>
            <DistanceMeters>NAN</DistanceMeters>
          </Trackpoint>
          <Trackpoint>
            <Time>2019-10-10T12:00:19.000Z</Time>
            <Position>
              <LatitudeDegrees>37.66514740884304046630859375</LatitudeDegrees>
              <LongitudeDegrees>-6.16479431279003620147705078125</LongitudeDegrees>
            </Position>
            <AltitudeMeters>97.40000152587890625</AltitudeMeters>
            <DistanceMeters>NAN</DistanceMeters>
          </Trackpoint>
          <Trackpoint>
            <Time>2019-10-10T12:00:26.000Z</Time>
            <Position>
              <LatitudeDegrees>37.66500583849847316741943359375</LatitudeDegrees>
              <LongitudeDegrees>-6.16464545018970966339111328125</LongitudeDegrees>
            </Position>
            <AltitudeMeters>98.40000152587890625</AltitudeMeters>
            <DistanceMeters>NAN</DistanceMeters>
          </Trackpoint>
          <Trackpoint>
            <Time>2019-10-10T12:00:27.000Z</Time>
            <Position>
              <LatitudeDegrees>37.6649873144924640655517578125</LatitudeDegrees>
              <LongitudeDegrees>-6.16462667472660541534423828125</LongitudeDegrees>
            </Position>
            <AltitudeMeters>98.59999847412109375</AltitudeMeters>
            <DistanceMeters>NAN</DistanceMeters>
          </Trackpoint>
          <Trackpoint>
            <Time>2019-10-10T12:00:29.000Z</Time>
            <Position>
              <LatitudeDegrees>37.664948590099811553955078125</LatitudeDegrees>
              <LongitudeDegrees>-6.16458627395331859588623046875</LongitudeDegrees>
            </Position>
            <AltitudeMeters>98.8000030517578125</AltitudeMeters>
            <DistanceMeters>NAN</DistanceMeters>
          </Trackpoint>
          <Trackpoint>
            <Time>2019-10-10T12:00:33.000Z</Time>
            <Position>
              <LatitudeDegrees>37.66487256623804569244384765625</LatitudeDegrees>
              <LongitudeDegrees>-6.16450689733028411865234375</LongitudeDegrees>
            </Position>
            <AltitudeMeters>100</AltitudeMeters>
            <DistanceMeters>NAN</DistanceMeters>
          </Trackpoint>
          <Trackpoint>
            <Time>2019-10-10T12:00:37.000Z</Time>
            <Position>
              <LatitudeDegrees>37.6647928543388843536376953125</LatitudeDegrees>
              <LongitudeDegrees>-6.16443045437335968017578125</LongitudeDegrees>
            </Position>
            <AltitudeMeters>100.40000152587890625</AltitudeMeters>
            <DistanceMeters>NAN</DistanceMeters>
          </Trackpoint>
          <Trackpoint>
            <Time>2019-10-10T12:00:41.000Z</Time>
            <Position>
              <LatitudeDegrees>37.66470911912620067596435546875</LatitudeDegrees>
              <LongitudeDegrees>-6.16435158066451549530029296875</LongitudeDegrees>
            </Position>
            <AltitudeMeters>101</AltitudeMeters>
            <DistanceMeters>NAN</DistanceMeters>
          </Trackpoint>
          <Trackpoint>
            <Time>2019-10-10T12:00:48.000Z</Time>
            <Position>
              <LatitudeDegrees>37.664570398628711700439453125</LatitudeDegrees>
              <LongitudeDegrees>-6.16420648992061614990234375</LongitudeDegrees>
            </Position>
            <AltitudeMeters>102.40000152587890625</AltitudeMeters>
            <DistanceMeters>NAN</DistanceMeters>
          </Trackpoint>
          <Trackpoint>
            <Time>2019-10-10T12:00:54.000Z</Time>
            <Position>
              <LatitudeDegrees>37.66444810666143894195556640625</LatitudeDegrees>
              <LongitudeDegrees>-6.164078414440155029296875</LongitudeDegrees>
            </Position>
            <AltitudeMeters>103.40000152587890625</AltitudeMeters>
            <DistanceMeters>NAN</DistanceMeters>
          </Trackpoint>
          <Trackpoint>
            <Time>2019-10-10T12:00:58.000Z</Time>
            <Position>
              <LatitudeDegrees>37.6643687300384044647216796875</LatitudeDegrees>
              <LongitudeDegrees>-6.16399191319942474365234375</LongitudeDegrees>
            </Position>
            <AltitudeMeters>103.8000030517578125</AltitudeMeters>
            <DistanceMeters>NAN</DistanceMeters>
          </Trackpoint>
          <Trackpoint>
            <Time>2019-10-10T12:01:01.000Z</Time>
            <Position>
              <LatitudeDegrees>37.66430863179266452789306640625</LatitudeDegrees>
              <LongitudeDegrees>-6.16393131203949451446533203125</LongitudeDegrees>
            </Position>
            <AltitudeMeters>104.8000030517578125</AltitudeMeters>
            <DistanceMeters>NAN</DistanceMeters>
          </Trackpoint>
          <Trackpoint>
            <Time>2019-10-10T12:01:08.000Z</Time>
            <Position>
              <LatitudeDegrees>37.664162032306194305419921875</LatitudeDegrees>
              <LongitudeDegrees>-6.16378881968557834625244140625</LongitudeDegrees>
            </Position>
            <AltitudeMeters>105.8000030517578125</AltitudeMeters>
            <DistanceMeters>NAN</DistanceMeters>
          </Trackpoint>
          <Trackpoint>
            <Time>2019-10-10T12:01:09.000Z</Time>
            <Position>
              <LatitudeDegrees>37.6641409099102020263671875</LatitudeDegrees>
              <LongitudeDegrees>-6.16377037949860095977783203125</LongitudeDegrees>
            </Position>
            <AltitudeMeters>106</AltitudeMeters>
            <DistanceMeters>NAN</DistanceMeters>
          </Trackpoint>
          <Trackpoint>
            <Time>2019-10-10T12:01:16.000Z</Time>
            <Position>
              <LatitudeDegrees>37.664003781974315643310546875</LatitudeDegrees>
              <LongitudeDegrees>-6.1636125482618808746337890625</LongitudeDegrees>
            </Position>
            <AltitudeMeters>107.1999969482421875</AltitudeMeters>
            <DistanceMeters>NAN</DistanceMeters>
          </Trackpoint>
          <Trackpoint>
            <Time>2019-10-10T12:01:24.000Z</Time>
            <Position>
              <LatitudeDegrees>37.66384729184210300445556640625</LatitudeDegrees>
              <LongitudeDegrees>-6.1634521186351776123046875</LongitudeDegrees>
            </Position>
            <AltitudeMeters>108.1999969482421875</AltitudeMeters>
            <DistanceMeters>NAN</DistanceMeters>
          </Trackpoint>
          <Trackpoint>
            <Time>2019-10-10T12:01:25.000Z</Time>
            <Position>
              <LatitudeDegrees>37.6638269238173961639404296875</LatitudeDegrees>
              <LongitudeDegrees>-6.163436360657215118408203125</LongitudeDegrees>
            </Position>
            <AltitudeMeters>108.59999847412109375</AltitudeMeters>
            <DistanceMeters>NAN</DistanceMeters>
          </Trackpoint>
          <Trackpoint>
            <Time>2019-10-10T12:01:28.000Z</Time>
            <Position>
              <LatitudeDegrees>37.66376950778067111968994140625</LatitudeDegrees>
              <LongitudeDegrees>-6.16337098181247711181640625</LongitudeDegrees>
            </Position>
            <AltitudeMeters>109.40000152587890625</AltitudeMeters>
            <DistanceMeters>NAN</DistanceMeters>
          </Trackpoint>
          <Trackpoint>
            <Time>2019-10-10T12:01:34.000Z</Time>
            <Position>
              <LatitudeDegrees>37.6636532507836818695068359375</LatitudeDegrees>
              <LongitudeDegrees>-6.163244582712650299072265625</LongitudeDegrees>
            </Position>
            <AltitudeMeters>110</AltitudeMeters>
            <DistanceMeters>NAN</DistanceMeters>
          </Trackpoint>
          <Trackpoint>
            <Time>2019-10-10T12:01:37.000Z</Time>
            <Position>
              <LatitudeDegrees>37.66359667293727397918701171875</LatitudeDegrees>
              <LongitudeDegrees>-6.1631837300956249237060546875</LongitudeDegrees>
            </Position>
            <AltitudeMeters>110.40000152587890625</AltitudeMeters>
            <DistanceMeters>NAN</DistanceMeters>
          </Trackpoint>
          <Trackpoint>
            <Time>2019-10-10T12:01:42.000Z</Time>
            <Position>
              <LatitudeDegrees>37.66350053250789642333984375</LatitudeDegrees>
              <LongitudeDegrees>-6.16308172233402729034423828125</LongitudeDegrees>
            </Position>
            <AltitudeMeters>111.59999847412109375</AltitudeMeters>
            <DistanceMeters>NAN</DistanceMeters>
          </Trackpoint>
          <Trackpoint>
            <Time>2019-10-10T12:01:48.000Z</Time>
            <Position>
              <LatitudeDegrees>37.663383185863494873046875</LatitudeDegrees>
              <LongitudeDegrees>-6.1629614420235157012939453125</LongitudeDegrees>
            </Position>
            <AltitudeMeters>112.8000030517578125</AltitudeMeters>
            <DistanceMeters>NAN</DistanceMeters>
          </Trackpoint>
          <Trackpoint>
            <Time>2019-10-10T12:01:53.000Z</Time>
            <Position>
              <LatitudeDegrees>37.663277573883533477783203125</LatitudeDegrees>
              <LongitudeDegrees>-6.16285691969096660614013671875</LongitudeDegrees>
            </Position>
            <AltitudeMeters>113</AltitudeMeters>
            <DistanceMeters>NAN</DistanceMeters>
          </Trackpoint>
          <Trackpoint>
            <Time>2019-10-10T12:01:57.000Z</Time>
            <Position>
              <LatitudeDegrees>37.66319300048053264617919921875</LatitudeDegrees>
              <LongitudeDegrees>-6.162776537239551544189453125</LongitudeDegrees>
            </Position>
            <AltitudeMeters>114</AltitudeMeters>
            <DistanceMeters>NAN</DistanceMeters>
          </Trackpoint>
          <Trackpoint>
            <Time>2019-10-10T12:02:04.000Z</Time>
            <Position>
              <LatitudeDegrees>37.66304799355566501617431640625</LatitudeDegrees>
              <LongitudeDegrees>-6.16262474097311496734619140625</LongitudeDegrees>
            </Position>
            <AltitudeMeters>114.40000152587890625</AltitudeMeters>
            <DistanceMeters>NAN</DistanceMeters>
          </Trackpoint>
          <Trackpoint>
            <Time>2019-10-10T12:02:06.000Z</Time>
            <Position>
              <LatitudeDegrees>37.66300373710691928863525390625</LatitudeDegrees>
              <LongitudeDegrees>-6.16258182562887668609619140625</LongitudeDegrees>
            </Position>
            <AltitudeMeters>115.1999969482421875</AltitudeMeters>
            <DistanceMeters>NAN</DistanceMeters>
          </Trackpoint>
          <Trackpoint>
            <Time>2019-10-10T12:02:12.000Z</Time>
            <Position>
              <LatitudeDegrees>37.66287901438772678375244140625</LatitudeDegrees>
              <LongitudeDegrees>-6.1624504812061786651611328125</LongitudeDegrees>
            </Position>
            <AltitudeMeters>116</AltitudeMeters>
            <DistanceMeters>NAN</DistanceMeters>
          </Trackpoint>
          <Trackpoint>
            <Time>2019-10-10T12:02:13.000Z</Time>
            <Position>
              <LatitudeDegrees>37.66285638324916362762451171875</LatitudeDegrees>
              <LongitudeDegrees>-6.16243011318147182464599609375</LongitudeDegrees>
            </Position>
            <AltitudeMeters>116.1999969482421875</AltitudeMeters>
            <DistanceMeters>NAN</DistanceMeters>
          </Trackpoint>
          <Trackpoint>
            <Time>2019-10-10T12:02:19.000Z</Time>
            <Position>
              <LatitudeDegrees>37.66273316927254199981689453125</LatitudeDegrees>
              <LongitudeDegrees>-6.16229600273072719573974609375</LongitudeDegrees>
            </Position>
            <AltitudeMeters>116.59999847412109375</AltitudeMeters>
            <DistanceMeters>NAN</DistanceMeters>
          </Trackpoint>
          <Trackpoint>
            <Time>2019-10-10T12:02:22.000Z</Time>
            <Position>
              <LatitudeDegrees>37.66267499886453151702880859375</LatitudeDegrees>
              <LongitudeDegrees>-6.16223129443824291229248046875</LongitudeDegrees>
            </Position>
            <AltitudeMeters>117.40000152587890625</AltitudeMeters>
            <DistanceMeters>NAN</DistanceMeters>
          </Trackpoint>
          <Trackpoint>
            <Time>2019-10-10T12:02:29.000Z</Time>
            <Position>
              <LatitudeDegrees>37.66254323534667491912841796875</LatitudeDegrees>
              <LongitudeDegrees>-6.162093579769134521484375</LongitudeDegrees>
            </Position>
            <AltitudeMeters>118.59999847412109375</AltitudeMeters>
            <DistanceMeters>NAN</DistanceMeters>
          </Trackpoint>
          <Trackpoint>
            <Time>2019-10-10T12:02:36.000Z</Time>
            <Position>
              <LatitudeDegrees>37.66240946017205715179443359375</LatitudeDegrees>
              <LongitudeDegrees>-6.16195301525294780731201171875</LongitudeDegrees>
            </Position>
            <AltitudeMeters>119.8000030517578125</AltitudeMeters>
            <DistanceMeters>NAN</DistanceMeters>
          </Trackpoint>
          <Trackpoint>
            <Time>2019-10-10T12:02:39.000Z</Time>
            <Position>
              <LatitudeDegrees>37.6623564027249813079833984375</LatitudeDegrees>
              <LongitudeDegrees>-6.16189635358750820159912109375</LongitudeDegrees>
            </Position>
            <AltitudeMeters>120.40000152587890625</AltitudeMeters>
            <DistanceMeters>NAN</DistanceMeters>
          </Trackpoint>
          <Trackpoint>
            <Time>2019-10-10T12:02:41.000Z</Time>
            <Position>
              <LatitudeDegrees>37.662323378026485443115234375</LatitudeDegrees>
              <LongitudeDegrees>-6.16186031140387058258056640625</LongitudeDegrees>
            </Position>
            <AltitudeMeters>120.8000030517578125</AltitudeMeters>
            <DistanceMeters>NAN</DistanceMeters>
          </Trackpoint>
          <Trackpoint>
            <Time>2019-10-10T12:02:48.000Z</Time>
            <Position>
              <LatitudeDegrees>37.6621981523931026458740234375</LatitudeDegrees>
              <LongitudeDegrees>-6.16173324175179004669189453125</LongitudeDegrees>
            </Position>
            <AltitudeMeters>121.8000030517578125</AltitudeMeters>
            <DistanceMeters>NAN</DistanceMeters>
          </Trackpoint>
          <Trackpoint>
            <Time>2019-10-10T12:02:51.000Z</Time>
            <Position>
              <LatitudeDegrees>37.66214760951697826385498046875</LatitudeDegrees>
              <LongitudeDegrees>-6.1616743169724941253662109375</LongitudeDegrees>
            </Position>
            <AltitudeMeters>122</AltitudeMeters>
            <DistanceMeters>NAN</DistanceMeters>
          </Trackpoint>
          <Trackpoint>
            <Time>2019-10-10T12:02:57.000Z</Time>
            <Position>
              <LatitudeDegrees>37.66204434446990489959716796875</LatitudeDegrees>
              <LongitudeDegrees>-6.16156107746064662933349609375</LongitudeDegrees>
            </Position>
            <AltitudeMeters>123.1999969482421875</AltitudeMeters>
            <DistanceMeters>NAN</DistanceMeters>
          </Trackpoint>
          <Trackpoint>
            <Time>2019-10-10T12:02:58.000Z</Time>
            <Position>
              <LatitudeDegrees>37.66202774830162525177001953125</LatitudeDegrees>
              <LongitudeDegrees>-6.16154045797884464263916015625</LongitudeDegrees>
            </Position>
            <AltitudeMeters>123.40000152587890625</AltitudeMeters>
            <DistanceMeters>NAN</DistanceMeters>
          </Trackpoint>
          <Trackpoint>
            <Time>2019-10-10T12:03:04.000Z</Time>
            <Position>
              <LatitudeDegrees>37.6619332842528820037841796875</LatitudeDegrees>
              <LongitudeDegrees>-6.16141431033611297607421875</LongitudeDegrees>
            </Position>
            <AltitudeMeters>124.40000152587890625</AltitudeMeters>
            <DistanceMeters>NAN</DistanceMeters>
          </Trackpoint>
          <Trackpoint>
            <Time>2019-10-10T12:03:07.000Z</Time>
            <Position>
              <LatitudeDegrees>37.6618839986622333526611328125</LatitudeDegrees>
              <LongitudeDegrees>-6.16135437972843647003173828125</LongitudeDegrees>
            </Position>
            <AltitudeMeters>124.59999847412109375</AltitudeMeters>
            <DistanceMeters>NAN</DistanceMeters>
          </Trackpoint>
          <Trackpoint>
            <Time>2019-10-10T12:03:12.000Z</Time>
            <Position>
              <LatitudeDegrees>37.66180193983018398284912109375</LatitudeDegrees>
              <LongitudeDegrees>-6.161251366138458251953125</LongitudeDegrees>
            </Position>
            <AltitudeMeters>125.59999847412109375</AltitudeMeters>
            <DistanceMeters>NAN</DistanceMeters>
          </Trackpoint>
          <Trackpoint>
            <Time>2019-10-10T12:03:16.000Z</Time>
            <Position>
              <LatitudeDegrees>37.6617441885173320770263671875</LatitudeDegrees>
              <LongitudeDegrees>-6.16116461344063282012939453125</LongitudeDegrees>
            </Position>
            <AltitudeMeters>126.1999969482421875</AltitudeMeters>
            <DistanceMeters>NAN</DistanceMeters>
          </Trackpoint>
          <Trackpoint>
            <Time>2019-10-10T12:03:20.000Z</Time>
            <Position>
              <LatitudeDegrees>37.6616828329861164093017578125</LatitudeDegrees>
              <LongitudeDegrees>-6.16106721572577953338623046875</LongitudeDegrees>
            </Position>
            <AltitudeMeters>126.59999847412109375</AltitudeMeters>
            <DistanceMeters>NAN</DistanceMeters>
          </Trackpoint>
          <Trackpoint>
            <Time>2019-10-10T12:03:24.000Z</Time>
            <Position>
              <LatitudeDegrees>37.6616255007684230804443359375</LatitudeDegrees>
              <LongitudeDegrees>-6.16096713580191135406494140625</LongitudeDegrees>
            </Position>
            <AltitudeMeters>127</AltitudeMeters>
            <DistanceMeters>NAN</DistanceMeters>
          </Trackpoint>
          <Trackpoint>
            <Time>2019-10-10T12:03:27.000Z</Time>
            <Position>
              <LatitudeDegrees>37.66158250160515308380126953125</LatitudeDegrees>
              <LongitudeDegrees>-6.16089941002428531646728515625</LongitudeDegrees>
            </Position>
            <AltitudeMeters>127.8000030517578125</AltitudeMeters>
            <DistanceMeters>NAN</DistanceMeters>
          </Trackpoint>
          <Trackpoint>
            <Time>2019-10-10T12:03:34.000Z</Time>
            <Position>
              <LatitudeDegrees>37.66149415634572505950927734375</LatitudeDegrees>
              <LongitudeDegrees>-6.16072841919958591461181640625</LongitudeDegrees>
            </Position>
            <AltitudeMeters>128.8000030517578125</AltitudeMeters>
            <DistanceMeters>NAN</DistanceMeters>
          </Trackpoint>
          <Trackpoint>
            <Time>2019-10-10T12:03:35.000Z</Time>
            <Position>
              <LatitudeDegrees>37.661481164395809173583984375</LatitudeDegrees>
              <LongitudeDegrees>-6.16070260293781757354736328125</LongitudeDegrees>
            </Position>
            <AltitudeMeters>129.1999969482421875</AltitudeMeters>
            <DistanceMeters>NAN</DistanceMeters>
          </Trackpoint>
          <Trackpoint>
            <Time>2019-10-10T12:03:42.000Z</Time>
            <Position>
              <LatitudeDegrees>37.66139944083988666534423828125</LatitudeDegrees>
              <LongitudeDegrees>-6.16051836870610713958740234375</LongitudeDegrees>
            </Position>
            <AltitudeMeters>130</AltitudeMeters>
            <DistanceMeters>NAN</DistanceMeters>
          </Trackpoint>
          <Trackpoint>
            <Time>2019-10-10T12:03:44.000Z</Time>
            <Position>
              <LatitudeDegrees>37.6613743789494037628173828125</LatitudeDegrees>
              <LongitudeDegrees>-6.160464473068714141845703125</LongitudeDegrees>
            </Position>
            <AltitudeMeters>130.399993896484375</AltitudeMeters>
            <DistanceMeters>NAN</DistanceMeters>
          </Trackpoint>
          <Trackpoint>
            <Time>2019-10-10T12:03:52.000Z</Time>
            <Position>
              <LatitudeDegrees>37.6612939126789569854736328125</LatitudeDegrees>
              <LongitudeDegrees>-6.160251908004283905029296875</LongitudeDegrees>
            </Position>
            <AltitudeMeters>131</AltitudeMeters>
            <DistanceMeters>NAN</DistanceMeters>
          </Trackpoint>
          <Trackpoint>
            <Time>2019-10-10T12:03:53.000Z</Time>
            <Position>
              <LatitudeDegrees>37.66128502786159515380859375</LatitudeDegrees>
              <LongitudeDegrees>-6.160226427018642425537109375</LongitudeDegrees>
            </Position>
            <AltitudeMeters>131</AltitudeMeters>
            <DistanceMeters>NAN</DistanceMeters>
          </Trackpoint>
          <Trackpoint>
            <Time>2019-10-10T12:03:58.000Z</Time>
            <Position>
              <LatitudeDegrees>37.66124756075441837310791015625</LatitudeDegrees>
              <LongitudeDegrees>-6.16008670069277286529541015625</LongitudeDegrees>
            </Position>
            <AltitudeMeters>132</AltitudeMeters>
            <DistanceMeters>NAN</DistanceMeters>
          </Trackpoint>
          <Trackpoint>
            <Time>2019-10-10T12:04:03.000Z</Time>
            <Position>
              <LatitudeDegrees>37.66120699234306812286376953125</LatitudeDegrees>
              <LongitudeDegrees>-6.15995091386139392852783203125</LongitudeDegrees>
            </Position>
            <AltitudeMeters>132.399993896484375</AltitudeMeters>
            <DistanceMeters>NAN</DistanceMeters>
          </Trackpoint>
          <Trackpoint>
            <Time>2019-10-10T12:04:08.000Z</Time>
            <Position>
              <LatitudeDegrees>37.66116692684590816497802734375</LatitudeDegrees>
              <LongitudeDegrees>-6.1598071642220020294189453125</LongitudeDegrees>
            </Position>
            <AltitudeMeters>133.1999969482421875</AltitudeMeters>
            <DistanceMeters>NAN</DistanceMeters>
          </Trackpoint>
          <Trackpoint>
            <Time>2019-10-10T12:04:11.000Z</Time>
            <Position>
              <LatitudeDegrees>37.66114823520183563232421875</LatitudeDegrees>
              <LongitudeDegrees>-6.15972108207643032073974609375</LongitudeDegrees>
            </Position>
            <AltitudeMeters>133.600006103515625</AltitudeMeters>
            <DistanceMeters>NAN</DistanceMeters>
          </Trackpoint>
          <Trackpoint>
            <Time>2019-10-10T12:04:16.000Z</Time>
            <Position>
              <LatitudeDegrees>37.66111747361719608306884765625</LatitudeDegrees>
              <LongitudeDegrees>-6.15958278067409992218017578125</LongitudeDegrees>
            </Position>
            <AltitudeMeters>134.600006103515625</AltitudeMeters>
            <DistanceMeters>NAN</DistanceMeters>
          </Trackpoint>
          <Trackpoint>
            <Time>2019-10-10T12:04:19.000Z</Time>
            <Position>
              <LatitudeDegrees>37.6611024700105190277099609375</LatitudeDegrees>
              <LongitudeDegrees>-6.15949577651917934417724609375</LongitudeDegrees>
            </Position>
            <AltitudeMeters>135</AltitudeMeters>
            <DistanceMeters>NAN</DistanceMeters>
          </Trackpoint>
          <Trackpoint>
            <Time>2019-10-10T12:04:21.000Z</Time>
            <Position>
              <LatitudeDegrees>37.661093585193157196044921875</LatitudeDegrees>
              <LongitudeDegrees>-6.1594363488256931304931640625</LongitudeDegrees>
            </Position>
            <AltitudeMeters>135.600006103515625</AltitudeMeters>
            <DistanceMeters>NAN</DistanceMeters>
          </Trackpoint>
          <Trackpoint>
            <Time>2019-10-10T12:04:29.000Z</Time>
            <Position>
              <LatitudeDegrees>37.66105712391436100006103515625</LatitudeDegrees>
              <LongitudeDegrees>-6.15919989533722400665283203125</LongitudeDegrees>
            </Position>
            <AltitudeMeters>136.399993896484375</AltitudeMeters>
            <DistanceMeters>NAN</DistanceMeters>
          </Trackpoint>
          <Trackpoint>
            <Time>2019-10-10T12:04:34.000Z</Time>
            <Position>
              <LatitudeDegrees>37.6610327325761318206787109375</LatitudeDegrees>
              <LongitudeDegrees>-6.1590558104217052459716796875</LongitudeDegrees>
            </Position>
            <AltitudeMeters>136.8000030517578125</AltitudeMeters>
            <DistanceMeters>NAN</DistanceMeters>
          </Trackpoint>
          <Trackpoint>
            <Time>2019-10-10T12:04:39.000Z</Time>
            <Position>
              <LatitudeDegrees>37.66101320274174213409423828125</LatitudeDegrees>
              <LongitudeDegrees>-6.1589084565639495849609375</LongitudeDegrees>
            </Position>
            <AltitudeMeters>137.8000030517578125</AltitudeMeters>
            <DistanceMeters>NAN</DistanceMeters>
          </Trackpoint>
          <Trackpoint>
            <Time>2019-10-10T12:04:40.000Z</Time>
            <Position>
              <LatitudeDegrees>37.66100943088531494140625</LatitudeDegrees>
              <LongitudeDegrees>-6.15887685678899288177490234375</LongitudeDegrees>
            </Position>
            <AltitudeMeters>137.8000030517578125</AltitudeMeters>
            <DistanceMeters>NAN</DistanceMeters>
          </Trackpoint>
          <Trackpoint>
            <Time>2019-10-10T12:04:48.000Z</Time>
            <Position>
              <LatitudeDegrees>37.66098336316645145416259765625</LatitudeDegrees>
              <LongitudeDegrees>-6.15863428451120853424072265625</LongitudeDegrees>
            </Position>
            <AltitudeMeters>139</AltitudeMeters>
            <DistanceMeters>NAN</DistanceMeters>
          </Trackpoint>
          <Trackpoint>
            <Time>2019-10-10T12:04:57.000Z</Time>
            <Position>
              <LatitudeDegrees>37.66096140258014202117919921875</LatitudeDegrees>
              <LongitudeDegrees>-6.15836489014327526092529296875</LongitudeDegrees>
            </Position>
            <AltitudeMeters>140.1999969482421875</AltitudeMeters>
            <DistanceMeters>NAN</DistanceMeters>
          </Trackpoint>
          <Trackpoint>
            <Time>2019-10-10T12:04:58.000Z</Time>
            <Position>
              <LatitudeDegrees>37.66095201484858989715576171875</LatitudeDegrees>
              <LongitudeDegrees>-6.158336140215396881103515625</LongitudeDegrees>
            </Position>
            <AltitudeMeters>140.1999969482421875</AltitudeMeters>
            <DistanceMeters>NAN</DistanceMeters>
          </Trackpoint>
          <Trackpoint>
            <Time>2019-10-10T12:05:03.000Z</Time>
            <Position>
              <LatitudeDegrees>37.66092519275844097137451171875</LatitudeDegrees>
              <LongitudeDegrees>-6.1581847630441188812255859375</LongitudeDegrees>
            </Position>
            <AltitudeMeters>141.399993896484375</AltitudeMeters>
            <DistanceMeters>NAN</DistanceMeters>
          </Trackpoint>
          <Trackpoint>
            <Time>2019-10-10T12:05:10.000Z</Time>
            <Position>
              <LatitudeDegrees>37.6608939282596111297607421875</LatitudeDegrees>
              <LongitudeDegrees>-6.157986111938953399658203125</LongitudeDegrees>
            </Position>
            <AltitudeMeters>142</AltitudeMeters>
            <DistanceMeters>NAN</DistanceMeters>
          </Trackpoint>
          <Trackpoint>
            <Time>2019-10-10T12:05:13.000Z</Time>
            <Position>
              <LatitudeDegrees>37.660883031785488128662109375</LatitudeDegrees>
              <LongitudeDegrees>-6.1578987725079059600830078125</LongitudeDegrees>
            </Position>
            <AltitudeMeters>142.399993896484375</AltitudeMeters>
            <DistanceMeters>NAN</DistanceMeters>
          </Trackpoint>
          <Trackpoint>
            <Time>2019-10-10T12:05:19.000Z</Time>
            <Position>
              <LatitudeDegrees>37.66085763461887836456298828125</LatitudeDegrees>
              <LongitudeDegrees>-6.15773172117769718170166015625</LongitudeDegrees>
            </Position>
            <AltitudeMeters>143.399993896484375</AltitudeMeters>
            <DistanceMeters>NAN</DistanceMeters>
          </Trackpoint>
          <Trackpoint>
            <Time>2019-10-10T12:05:21.000Z</Time>
            <Position>
              <LatitudeDegrees>37.66084724105894565582275390625</LatitudeDegrees>
              <LongitudeDegrees>-6.1576754786074161529541015625</LongitudeDegrees>
            </Position>
            <AltitudeMeters>143.600006103515625</AltitudeMeters>
            <DistanceMeters>NAN</DistanceMeters>
          </Trackpoint>
          <Trackpoint>
            <Time>2019-10-10T12:05:27.000Z</Time>
            <Position>
              <LatitudeDegrees>37.660822011530399322509765625</LatitudeDegrees>
              <LongitudeDegrees>-6.157507002353668212890625</LongitudeDegrees>
            </Position>
            <AltitudeMeters>144.399993896484375</AltitudeMeters>
            <DistanceMeters>NAN</DistanceMeters>
          </Trackpoint>
          <Trackpoint>
            <Time>2019-10-10T12:05:30.000Z</Time>
            <Position>
              <LatitudeDegrees>37.66080893576145172119140625</LatitudeDegrees>
              <LongitudeDegrees>-6.15742645226418972015380859375</LongitudeDegrees>
            </Position>
            <AltitudeMeters>144.8000030517578125</AltitudeMeters>
            <DistanceMeters>NAN</DistanceMeters>
          </Trackpoint>
          <Trackpoint>
            <Time>2019-10-10T12:05:37.000Z</Time>
            <Position>
              <LatitudeDegrees>37.6607745699584484100341796875</LatitudeDegrees>
              <LongitudeDegrees>-6.1572252027690410614013671875</LongitudeDegrees>
            </Position>
            <AltitudeMeters>145.399993896484375</AltitudeMeters>
            <DistanceMeters>NAN</DistanceMeters>
          </Trackpoint>
          <Trackpoint>
            <Time>2019-10-10T12:05:39.000Z</Time>
            <Position>
              <LatitudeDegrees>37.66076141037046909332275390625</LatitudeDegrees>
              <LongitudeDegrees>-6.1571677029132843017578125</LongitudeDegrees>
            </Position>
            <AltitudeMeters>145.600006103515625</AltitudeMeters>
            <DistanceMeters>NAN</DistanceMeters>
          </Trackpoint>
          <Trackpoint>
            <Time>2019-10-10T12:05:44.000Z</Time>
            <Position>
              <LatitudeDegrees>37.66074188053607940673828125</LatitudeDegrees>
              <LongitudeDegrees>-6.15703032352030277252197265625</LongitudeDegrees>
            </Position>
            <AltitudeMeters>146.399993896484375</AltitudeMeters>
            <DistanceMeters>NAN</DistanceMeters>
          </Trackpoint>
          <Trackpoint>
            <Time>2019-10-10T12:05:50.000Z</Time>
            <Position>
              <LatitudeDegrees>37.660713382065296173095703125</LatitudeDegrees>
              <LongitudeDegrees>-6.15685514174401760101318359375</LongitudeDegrees>
            </Position>
            <AltitudeMeters>147.1999969482421875</AltitudeMeters>
            <DistanceMeters>NAN</DistanceMeters>
          </Trackpoint>
          <Trackpoint>
            <Time>2019-10-10T12:05:53.000Z</Time>
            <Position>
              <LatitudeDegrees>37.66070424579083919525146484375</LatitudeDegrees>
              <LongitudeDegrees>-6.15676545538008213043212890625</LongitudeDegrees>
            </Position>
            <AltitudeMeters>147.8000030517578125</AltitudeMeters>
            <DistanceMeters>NAN</DistanceMeters>
          </Trackpoint>
          <Trackpoint>
            <Time>2019-10-10T12:05:57.000Z</Time>
            <Position>
              <LatitudeDegrees>37.660673148930072784423828125</LatitudeDegrees>
              <LongitudeDegrees>-6.1566535569727420806884765625</LongitudeDegrees>
            </Position>
            <AltitudeMeters>148.399993896484375</AltitudeMeters>
            <DistanceMeters>NAN</DistanceMeters>
          </Trackpoint>
          <Trackpoint>
            <Time>2019-10-10T12:06:00.000Z</Time>
            <Position>
              <LatitudeDegrees>37.6606486737728118896484375</LatitudeDegrees>
              <LongitudeDegrees>-6.15656764246523380279541015625</LongitudeDegrees>
            </Position>
            <AltitudeMeters>148.8000030517578125</AltitudeMeters>
            <DistanceMeters>NAN</DistanceMeters>
          </Trackpoint>
          <Trackpoint>
            <Time>2019-10-10T12:06:05.000Z</Time>
            <Position>
              <LatitudeDegrees>37.66061271540820598602294921875</LatitudeDegrees>
              <LongitudeDegrees>-6.15642732940614223480224609375</LongitudeDegrees>
            </Position>
            <AltitudeMeters>150</AltitudeMeters>
            <DistanceMeters>NAN</DistanceMeters>
          </Trackpoint>
          <Trackpoint>
            <Time>2019-10-10T12:06:06.000Z</Time>
            <Position>
              <LatitudeDegrees>37.66060232184827327728271484375</LatitudeDegrees>
              <LongitudeDegrees>-6.1564020998775959014892578125</LongitudeDegrees>
            </Position>
            <AltitudeMeters>150</AltitudeMeters>
            <DistanceMeters>NAN</DistanceMeters>
          </Trackpoint>
          <Trackpoint>
            <Time>2019-10-10T12:06:13.000Z</Time>
            <Position>
              <LatitudeDegrees>37.66053124330937862396240234375</LatitudeDegrees>
              <LongitudeDegrees>-6.156208477914333343505859375</LongitudeDegrees>
            </Position>
            <AltitudeMeters>151</AltitudeMeters>
            <DistanceMeters>NAN</DistanceMeters>
          </Trackpoint>
          <Trackpoint>
            <Time>2019-10-10T12:06:14.000Z</Time>
            <Position>
              <LatitudeDegrees>37.66051699407398700714111328125</LatitudeDegrees>
              <LongitudeDegrees>-6.156185679137706756591796875</LongitudeDegrees>
            </Position>
            <AltitudeMeters>151.399993896484375</AltitudeMeters>
            <DistanceMeters>NAN</DistanceMeters>
          </Trackpoint>
          <Trackpoint>
            <Time>2019-10-10T12:06:17.000Z</Time>
            <Position>
              <LatitudeDegrees>37.66047634184360504150390625</LatitudeDegrees>
              <LongitudeDegrees>-6.15610965527594089508056640625</LongitudeDegrees>
            </Position>
            <AltitudeMeters>152</AltitudeMeters>
            <DistanceMeters>NAN</DistanceMeters>
          </Trackpoint>
          <Trackpoint>
            <Time>2019-10-10T12:06:23.000Z</Time>
            <Position>
              <LatitudeDegrees>37.66039378009736537933349609375</LatitudeDegrees>
              <LongitudeDegrees>-6.15596674382686614990234375</LongitudeDegrees>
            </Position>
            <AltitudeMeters>153</AltitudeMeters>
            <DistanceMeters>NAN</DistanceMeters>
          </Trackpoint>
          <Trackpoint>
            <Time>2019-10-10T12:06:24.000Z</Time>
            <Position>
              <LatitudeDegrees>37.6603799499571323394775390625</LatitudeDegrees>
              <LongitudeDegrees>-6.1559427715837955474853515625</LongitudeDegrees>
            </Position>
            <AltitudeMeters>153.1999969482421875</AltitudeMeters>
            <DistanceMeters>NAN</DistanceMeters>
          </Trackpoint>
          <Trackpoint>
            <Time>2019-10-10T12:06:31.000Z</Time>
            <Position>
              <LatitudeDegrees>37.66027157194912433624267578125</LatitudeDegrees>
              <LongitudeDegrees>-6.1557801626622676849365234375</LongitudeDegrees>
            </Position>
            <AltitudeMeters>154</AltitudeMeters>
            <DistanceMeters>NAN</DistanceMeters>
          </Trackpoint>
          <Trackpoint>
            <Time>2019-10-10T12:06:33.000Z</Time>
            <Position>
              <LatitudeDegrees>37.66023896634578704833984375</LatitudeDegrees>
              <LongitudeDegrees>-6.1557300388813018798828125</LongitudeDegrees>
            </Position>
            <AltitudeMeters>154.1999969482421875</AltitudeMeters>
            <DistanceMeters>NAN</DistanceMeters>
          </Trackpoint>
          <Trackpoint>
            <Time>2019-10-10T12:06:40.000Z</Time>
            <Position>
              <LatitudeDegrees>37.6601056940853595733642578125</LatitudeDegrees>
              <LongitudeDegrees>-6.1555924080312252044677734375</LongitudeDegrees>
            </Position>
            <AltitudeMeters>155.399993896484375</AltitudeMeters>
            <DistanceMeters>NAN</DistanceMeters>
          </Trackpoint>
          <Trackpoint>
            <Time>2019-10-10T12:06:41.000Z</Time>
            <Position>
              <LatitudeDegrees>37.6600855775177478790283203125</LatitudeDegrees>
              <LongitudeDegrees>-6.1555746383965015411376953125</LongitudeDegrees>
            </Position>
            <AltitudeMeters>155.600006103515625</AltitudeMeters>
            <DistanceMeters>NAN</DistanceMeters>
          </Trackpoint>
          <Trackpoint>
            <Time>2019-10-10T12:06:47.000Z</Time>
            <Position>
              <LatitudeDegrees>37.659971415996551513671875</LatitudeDegrees>
              <LongitudeDegrees>-6.15547464229166507720947265625</LongitudeDegrees>
            </Position>
            <AltitudeMeters>156.399993896484375</AltitudeMeters>
            <DistanceMeters>NAN</DistanceMeters>
          </Trackpoint>
          <Trackpoint>
            <Time>2019-10-10T12:06:48.000Z</Time>
            <Position>
              <LatitudeDegrees>37.65995222143828868865966796875</LatitudeDegrees>
              <LongitudeDegrees>-6.1554609797894954681396484375</LongitudeDegrees>
            </Position>
            <AltitudeMeters>156.8000030517578125</AltitudeMeters>
            <DistanceMeters>NAN</DistanceMeters>
          </Trackpoint>
          <Trackpoint>
            <Time>2019-10-10T12:06:52.000Z</Time>
            <Position>
              <LatitudeDegrees>37.6598699949681758880615234375</LatitudeDegrees>
              <LongitudeDegrees>-6.15540616214275360107421875</LongitudeDegrees>
            </Position>
            <AltitudeMeters>157.399993896484375</AltitudeMeters>
            <DistanceMeters>NAN</DistanceMeters>
          </Trackpoint>
          <Trackpoint>
            <Time>2019-10-10T12:06:55.000Z</Time>
            <Position>
              <LatitudeDegrees>37.65981241129338741302490234375</LatitudeDegrees>
              <LongitudeDegrees>-6.15535712800920009613037109375</LongitudeDegrees>
            </Position>
            <AltitudeMeters>157.8000030517578125</AltitudeMeters>
            <DistanceMeters>NAN</DistanceMeters>
          </Trackpoint>
          <Trackpoint>
            <Time>2019-10-10T12:06:57.000Z</Time>
            <Position>
              <LatitudeDegrees>37.65976966358721256256103515625</LatitudeDegrees>
              <LongitudeDegrees>-6.15532435476779937744140625</LongitudeDegrees>
            </Position>
            <AltitudeMeters>158.8000030517578125</AltitudeMeters>
            <DistanceMeters>NAN</DistanceMeters>
          </Trackpoint>
          <Trackpoint>
            <Time>2019-10-10T12:07:03.000Z</Time>
            <Position>
              <LatitudeDegrees>37.65961744822561740875244140625</LatitudeDegrees>
              <LongitudeDegrees>-6.155260317027568817138671875</LongitudeDegrees>
            </Position>
            <AltitudeMeters>159.1999969482421875</AltitudeMeters>
            <DistanceMeters>NAN</DistanceMeters>
          </Trackpoint>
          <Trackpoint>
            <Time>2019-10-10T12:07:06.000Z</Time>
            <Position>
              <LatitudeDegrees>37.65954829752445220947265625</LatitudeDegrees>
              <LongitudeDegrees>-6.15523089654743671417236328125</LongitudeDegrees>
            </Position>
            <AltitudeMeters>159.8000030517578125</AltitudeMeters>
            <DistanceMeters>NAN</DistanceMeters>
          </Trackpoint>
          <Trackpoint>
            <Time>2019-10-10T12:07:13.000Z</Time>
            <Position>
              <LatitudeDegrees>37.6593848504126071929931640625</LatitudeDegrees>
              <LongitudeDegrees>-6.1551780067384243011474609375</LongitudeDegrees>
            </Position>
            <AltitudeMeters>161</AltitudeMeters>
            <DistanceMeters>NAN</DistanceMeters>
          </Trackpoint>
          <Trackpoint>
            <Time>2019-10-10T12:07:14.000Z</Time>
            <Position>
              <LatitudeDegrees>37.65936096198856830596923828125</LatitudeDegrees>
              <LongitudeDegrees>-6.15517322905361652374267578125</LongitudeDegrees>
            </Position>
            <AltitudeMeters>161.1999969482421875</AltitudeMeters>
            <DistanceMeters>NAN</DistanceMeters>
          </Trackpoint>
          <Trackpoint>
            <Time>2019-10-10T12:07:17.000Z</Time>
            <Position>
              <LatitudeDegrees>37.6592916436493396759033203125</LatitudeDegrees>
              <LongitudeDegrees>-6.15516384132206439971923828125</LongitudeDegrees>
            </Position>
            <AltitudeMeters>162.1999969482421875</AltitudeMeters>
            <DistanceMeters>NAN</DistanceMeters>
          </Trackpoint>
          <Trackpoint>
            <Time>2019-10-10T12:07:23.000Z</Time>
            <Position>
              <LatitudeDegrees>37.65915543772280216217041015625</LatitudeDegrees>
              <LongitudeDegrees>-6.15514255128800868988037109375</LongitudeDegrees>
            </Position>
            <AltitudeMeters>162.1999969482421875</AltitudeMeters>
            <DistanceMeters>NAN</DistanceMeters>
          </Trackpoint>
          <Trackpoint>
            <Time>2019-10-10T12:07:29.000Z</Time>
            <Position>
              <LatitudeDegrees>37.65901663340628147125244140625</LatitudeDegrees>
              <LongitudeDegrees>-6.155141629278659820556640625</LongitudeDegrees>
            </Position>
            <AltitudeMeters>163.1999969482421875</AltitudeMeters>
            <DistanceMeters>NAN</DistanceMeters>
          </Trackpoint>
          <Trackpoint>
            <Time>2019-10-10T12:07:31.000Z</Time>
            <Position>
              <LatitudeDegrees>37.6589724607765674591064453125</LatitudeDegrees>
              <LongitudeDegrees>-6.1551444791257381439208984375</LongitudeDegrees>
            </Position>
            <AltitudeMeters>163.8000030517578125</AltitudeMeters>
            <DistanceMeters>NAN</DistanceMeters>
          </Trackpoint>
          <Trackpoint>
            <Time>2019-10-10T12:07:36.000Z</Time>
            <Position>
              <LatitudeDegrees>37.6588608138263225555419921875</LatitudeDegrees>
              <LongitudeDegrees>-6.15515260957181453704833984375</LongitudeDegrees>
            </Position>
            <AltitudeMeters>164.399993896484375</AltitudeMeters>
            <DistanceMeters>NAN</DistanceMeters>
          </Trackpoint>
          <Trackpoint>
            <Time>2019-10-10T12:07:41.000Z</Time>
            <Position>
              <LatitudeDegrees>37.65875008888542652130126953125</LatitudeDegrees>
              <LongitudeDegrees>-6.15518043749034404754638671875</LongitudeDegrees>
            </Position>
            <AltitudeMeters>165</AltitudeMeters>
            <DistanceMeters>NAN</DistanceMeters>
          </Trackpoint>
          <Trackpoint>
            <Time>2019-10-10T12:07:44.000Z</Time>
            <Position>
              <LatitudeDegrees>37.6586787588894367218017578125</LatitudeDegrees>
              <LongitudeDegrees>-6.15520357154309749603271484375</LongitudeDegrees>
            </Position>
            <AltitudeMeters>165.600006103515625</AltitudeMeters>
            <DistanceMeters>NAN</DistanceMeters>
          </Trackpoint>
          <Trackpoint>
            <Time>2019-10-10T12:07:49.000Z</Time>
            <Position>
              <LatitudeDegrees>37.65856585465371608734130859375</LatitudeDegrees>
              <LongitudeDegrees>-6.15524983964860439300537109375</LongitudeDegrees>
            </Position>
            <AltitudeMeters>166</AltitudeMeters>
            <DistanceMeters>NAN</DistanceMeters>
          </Trackpoint>
          <Trackpoint>
            <Time>2019-10-10T12:07:51.000Z</Time>
            <Position>
              <LatitudeDegrees>37.6585208438336849212646484375</LatitudeDegrees>
              <LongitudeDegrees>-6.15527532063424587249755859375</LongitudeDegrees>
            </Position>
            <AltitudeMeters>166.600006103515625</AltitudeMeters>
            <DistanceMeters>NAN</DistanceMeters>
          </Trackpoint>
          <Trackpoint>
            <Time>2019-10-10T12:07:56.000Z</Time>
            <Position>
              <LatitudeDegrees>37.65841028653085231781005859375</LatitudeDegrees>
              <LongitudeDegrees>-6.15533374249935150146484375</LongitudeDegrees>
            </Position>
            <AltitudeMeters>167.1999969482421875</AltitudeMeters>
            <DistanceMeters>NAN</DistanceMeters>
          </Trackpoint>
          <Trackpoint>
            <Time>2019-10-10T12:08:02.000Z</Time>
            <Position>
              <LatitudeDegrees>37.65827919356524944305419921875</LatitudeDegrees>
              <LongitudeDegrees>-6.155410520732402801513671875</LongitudeDegrees>
            </Position>
            <AltitudeMeters>167.8000030517578125</AltitudeMeters>
            <DistanceMeters>NAN</DistanceMeters>
          </Trackpoint>
          <Trackpoint>
            <Time>2019-10-10T12:08:04.000Z</Time>
            <Position>
              <LatitudeDegrees>37.65823745168745517730712890625</LatitudeDegrees>
              <LongitudeDegrees>-6.15544027648866176605224609375</LongitudeDegrees>
            </Position>
            <AltitudeMeters>169.1999969482421875</AltitudeMeters>
            <DistanceMeters>NAN</DistanceMeters>
          </Trackpoint>
          <Trackpoint>
            <Time>2019-10-10T12:08:05.000Z</Time>
            <Position>
              <LatitudeDegrees>37.65821968205273151397705078125</LatitudeDegrees>
              <LongitudeDegrees>-6.155455112457275390625</LongitudeDegrees>
            </Position>
            <AltitudeMeters>168.399993896484375</AltitudeMeters>
            <DistanceMeters>NAN</DistanceMeters>
          </Trackpoint>
          <Trackpoint>
            <Time>2019-10-10T12:08:12.000Z</Time>
            <Position>
              <LatitudeDegrees>37.6580849848687648773193359375</LatitudeDegrees>
              <LongitudeDegrees>-6.15556650795042514801025390625</LongitudeDegrees>
            </Position>
            <AltitudeMeters>170</AltitudeMeters>
            <DistanceMeters>NAN</DistanceMeters>
          </Trackpoint>
          <Trackpoint>
            <Time>2019-10-10T12:08:14.000Z</Time>
            <Position>
              <LatitudeDegrees>37.658047266304492950439453125</LatitudeDegrees>
              <LongitudeDegrees>-6.1555914022028446197509765625</LongitudeDegrees>
            </Position>
            <AltitudeMeters>170.1999969482421875</AltitudeMeters>
            <DistanceMeters>NAN</DistanceMeters>
          </Trackpoint>
          <Trackpoint>
            <Time>2019-10-10T12:08:20.000Z</Time>
            <Position>
              <LatitudeDegrees>37.65794576145708560943603515625</LatitudeDegrees>
              <LongitudeDegrees>-6.1557139456272125244140625</LongitudeDegrees>
            </Position>
            <AltitudeMeters>171.1999969482421875</AltitudeMeters>
            <DistanceMeters>NAN</DistanceMeters>
          </Trackpoint>
          <Trackpoint>
            <Time>2019-10-10T12:08:27.000Z</Time>
            <Position>
              <LatitudeDegrees>37.65782363712787628173828125</LatitudeDegrees>
              <LongitudeDegrees>-6.15584378130733966827392578125</LongitudeDegrees>
            </Position>
            <AltitudeMeters>172.399993896484375</AltitudeMeters>
            <DistanceMeters>NAN</DistanceMeters>
          </Trackpoint>
          <Trackpoint>
            <Time>2019-10-10T12:08:29.000Z</Time>
            <Position>
              <LatitudeDegrees>37.65779371373355388641357421875</LatitudeDegrees>
              <LongitudeDegrees>-6.1558830924332141876220703125</LongitudeDegrees>
            </Position>
            <AltitudeMeters>172.8000030517578125</AltitudeMeters>
            <DistanceMeters>NAN</DistanceMeters>
          </Trackpoint>
          <Trackpoint>
            <Time>2019-10-10T12:08:32.000Z</Time>
            <Position>
              <LatitudeDegrees>37.65774141065776348114013671875</LatitudeDegrees>
              <LongitudeDegrees>-6.15593648515641689300537109375</LongitudeDegrees>
            </Position>
            <AltitudeMeters>173.399993896484375</AltitudeMeters>
            <DistanceMeters>NAN</DistanceMeters>
          </Trackpoint>
          <Trackpoint>
            <Time>2019-10-10T12:08:38.000Z</Time>
            <Position>
              <LatitudeDegrees>37.65764183364808559417724609375</LatitudeDegrees>
              <LongitudeDegrees>-6.1560492217540740966796875</LongitudeDegrees>
            </Position>
            <AltitudeMeters>174.600006103515625</AltitudeMeters>
            <DistanceMeters>NAN</DistanceMeters>
          </Trackpoint>
          <Trackpoint>
            <Time>2019-10-10T12:08:47.000Z</Time>
            <Position>
              <LatitudeDegrees>37.65748031437397003173828125</LatitudeDegrees>
              <LongitudeDegrees>-6.15621090866625308990478515625</LongitudeDegrees>
            </Position>
            <AltitudeMeters>175.600006103515625</AltitudeMeters>
            <DistanceMeters>NAN</DistanceMeters>
          </Trackpoint>
          <Trackpoint>
            <Time>2019-10-10T12:08:48.000Z</Time>
            <Position>
              <LatitudeDegrees>37.6574622094631195068359375</LatitudeDegrees>
              <LongitudeDegrees>-6.1562280915677547454833984375</LongitudeDegrees>
            </Position>
            <AltitudeMeters>176</AltitudeMeters>
            <DistanceMeters>NAN</DistanceMeters>
          </Trackpoint>
          <Trackpoint>
            <Time>2019-10-10T12:08:55.000Z</Time>
            <Position>
              <LatitudeDegrees>37.65733555890619754791259765625</LatitudeDegrees>
              <LongitudeDegrees>-6.15635340102016925811767578125</LongitudeDegrees>
            </Position>
            <AltitudeMeters>176.8000030517578125</AltitudeMeters>
            <DistanceMeters>NAN</DistanceMeters>
          </Trackpoint>
          <Trackpoint>
            <Time>2019-10-10T12:08:57.000Z</Time>
            <Position>
              <LatitudeDegrees>37.6572980917990207672119140625</LatitudeDegrees>
              <LongitudeDegrees>-6.15638785064220428466796875</LongitudeDegrees>
            </Position>
            <AltitudeMeters>177</AltitudeMeters>
            <DistanceMeters>NAN</DistanceMeters>
          </Trackpoint>
          <Trackpoint>
            <Time>2019-10-10T12:09:00.000Z</Time>
            <Position>
              <LatitudeDegrees>37.65723916701972484588623046875</LatitudeDegrees>
              <LongitudeDegrees>-6.15643344819545745849609375</LongitudeDegrees>
            </Position>
            <AltitudeMeters>177.8000030517578125</AltitudeMeters>
            <DistanceMeters>NAN</DistanceMeters>
          </Trackpoint>
          <Trackpoint>
            <Time>2019-10-10T12:09:07.000Z</Time>
            <Position>
              <LatitudeDegrees>37.6570972613990306854248046875</LatitudeDegrees>
              <LongitudeDegrees>-6.15653260610997676849365234375</LongitudeDegrees>
            </Position>
            <AltitudeMeters>178.399993896484375</AltitudeMeters>
            <DistanceMeters>NAN</DistanceMeters>
          </Trackpoint>
          <Trackpoint>
            <Time>2019-10-10T12:09:09.000Z</Time>
            <Position>
              <LatitudeDegrees>37.65705786645412445068359375</LatitudeDegrees>
              <LongitudeDegrees>-6.15655708126723766326904296875</LongitudeDegrees>
            </Position>
            <AltitudeMeters>179</AltitudeMeters>
            <DistanceMeters>NAN</DistanceMeters>
          </Trackpoint>
          <Trackpoint>
            <Time>2019-10-10T12:09:16.000Z</Time>
            <Position>
              <LatitudeDegrees>37.65690439380705356597900390625</LatitudeDegrees>
              <LongitudeDegrees>-6.15662698633968830108642578125</LongitudeDegrees>
            </Position>
            <AltitudeMeters>179.600006103515625</AltitudeMeters>
            <DistanceMeters>NAN</DistanceMeters>
          </Trackpoint>
          <Trackpoint>
            <Time>2019-10-10T12:09:19.000Z</Time>
            <Position>
              <LatitudeDegrees>37.65683499164879322052001953125</LatitudeDegrees>
              <LongitudeDegrees>-6.15665137767791748046875</LongitudeDegrees>
            </Position>
            <AltitudeMeters>180</AltitudeMeters>
            <DistanceMeters>NAN</DistanceMeters>
          </Trackpoint>
          <Trackpoint>
            <Time>2019-10-10T12:09:23.000Z</Time>
            <Position>
              <LatitudeDegrees>37.65673558227717876434326171875</LatitudeDegrees>
              <LongitudeDegrees>-6.15667283535003662109375</LongitudeDegrees>
            </Position>
            <AltitudeMeters>180.8000030517578125</AltitudeMeters>
            <DistanceMeters>NAN</DistanceMeters>
          </Trackpoint>
          <Trackpoint>
            <Time>2019-10-10T12:09:27.000Z</Time>
            <Position>
              <LatitudeDegrees>37.65664271079003810882568359375</LatitudeDegrees>
              <LongitudeDegrees>-6.15669689141213893890380859375</LongitudeDegrees>
            </Position>
            <AltitudeMeters>181.1999969482421875</AltitudeMeters>
            <DistanceMeters>NAN</DistanceMeters>
          </Trackpoint>
          <Trackpoint>
            <Time>2019-10-10T12:09:32.000Z</Time>
            <Position>
              <LatitudeDegrees>37.6565261185169219970703125</LatitudeDegrees>
              <LongitudeDegrees>-6.15672086365520954132080078125</LongitudeDegrees>
            </Position>
            <AltitudeMeters>182</AltitudeMeters>
            <DistanceMeters>NAN</DistanceMeters>
          </Trackpoint>
          <Trackpoint>
            <Time>2019-10-10T12:09:35.000Z</Time>
            <Position>
              <LatitudeDegrees>37.6564590632915496826171875</LatitudeDegrees>
              <LongitudeDegrees>-6.15672647953033447265625</LongitudeDegrees>
            </Position>
            <AltitudeMeters>182.399993896484375</AltitudeMeters>
            <DistanceMeters>NAN</DistanceMeters>
          </Trackpoint>
          <Trackpoint>
            <Time>2019-10-10T12:09:40.000Z</Time>
            <Position>
              <LatitudeDegrees>37.6563415490090847015380859375</LatitudeDegrees>
              <LongitudeDegrees>-6.15672287531197071075439453125</LongitudeDegrees>
            </Position>
            <AltitudeMeters>183.399993896484375</AltitudeMeters>
            <DistanceMeters>NAN</DistanceMeters>
          </Trackpoint>
          <Trackpoint>
            <Time>2019-10-10T12:09:43.000Z</Time>
            <Position>
              <LatitudeDegrees>37.656274996697902679443359375</LatitudeDegrees>
              <LongitudeDegrees>-6.15672421641647815704345703125</LongitudeDegrees>
            </Position>
            <AltitudeMeters>183.600006103515625</AltitudeMeters>
            <DistanceMeters>NAN</DistanceMeters>
          </Trackpoint>
          <Trackpoint>
            <Time>2019-10-10T12:09:46.000Z</Time>
            <Position>
              <LatitudeDegrees>37.65620584599673748016357421875</LatitudeDegrees>
              <LongitudeDegrees>-6.15672622807323932647705078125</LongitudeDegrees>
            </Position>
            <AltitudeMeters>184.8000030517578125</AltitudeMeters>
            <DistanceMeters>NAN</DistanceMeters>
          </Trackpoint>
          <Trackpoint>
            <Time>2019-10-10T12:09:51.000Z</Time>
            <Position>
              <LatitudeDegrees>37.6560921035706996917724609375</LatitudeDegrees>
              <LongitudeDegrees>-6.15669873543083667755126953125</LongitudeDegrees>
            </Position>
            <AltitudeMeters>185.399993896484375</AltitudeMeters>
            <DistanceMeters>NAN</DistanceMeters>
          </Trackpoint>
          <Trackpoint>
            <Time>2019-10-10T12:09:57.000Z</Time>
            <Position>
              <LatitudeDegrees>37.655953131616115570068359375</LatitudeDegrees>
              <LongitudeDegrees>-6.15666202269494533538818359375</LongitudeDegrees>
            </Position>
            <AltitudeMeters>186</AltitudeMeters>
            <DistanceMeters>NAN</DistanceMeters>
          </Trackpoint>
          <Trackpoint>
            <Time>2019-10-10T12:09:59.000Z</Time>
            <Position>
              <LatitudeDegrees>37.65590812079608440399169921875</LatitudeDegrees>
              <LongitudeDegrees>-6.15665607154369354248046875</LongitudeDegrees>
            </Position>
            <AltitudeMeters>186.1999969482421875</AltitudeMeters>
            <DistanceMeters>NAN</DistanceMeters>
          </Trackpoint>
          <Trackpoint>
            <Time>2019-10-10T12:10:07.000Z</Time>
            <Position>
              <LatitudeDegrees>37.65576126985251903533935546875</LatitudeDegrees>
              <LongitudeDegrees>-6.15658608265221118927001953125</LongitudeDegrees>
            </Position>
            <AltitudeMeters>187</AltitudeMeters>
            <DistanceMeters>NAN</DistanceMeters>
          </Trackpoint>
          <Trackpoint>
            <Time>2019-10-10T12:10:09.000Z</Time>
            <Position>
              <LatitudeDegrees>37.65571919269859790802001953125</LatitudeDegrees>
              <LongitudeDegrees>-6.15656512789428234100341796875</LongitudeDegrees>
            </Position>
            <AltitudeMeters>187</AltitudeMeters>
            <DistanceMeters>NAN</DistanceMeters>
          </Trackpoint>
          <Trackpoint>
            <Time>2019-10-10T12:10:15.000Z</Time>
            <Position>
              <LatitudeDegrees>37.65559446997940540313720703125</LatitudeDegrees>
              <LongitudeDegrees>-6.15648365579545497894287109375</LongitudeDegrees>
            </Position>
            <AltitudeMeters>187.8000030517578125</AltitudeMeters>
            <DistanceMeters>NAN</DistanceMeters>
          </Trackpoint>
          <Trackpoint>
            <Time>2019-10-10T12:10:17.000Z</Time>
            <Position>
              <LatitudeDegrees>37.6555502973496913909912109375</LatitudeDegrees>
              <LongitudeDegrees>-6.15646152757108211517333984375</LongitudeDegrees>
            </Position>
            <AltitudeMeters>188.1999969482421875</AltitudeMeters>
            <DistanceMeters>NAN</DistanceMeters>
          </Trackpoint>
          <Trackpoint>
            <Time>2019-10-10T12:10:26.000Z</Time>
            <Position>
              <LatitudeDegrees>37.6553544960916042327880859375</LatitudeDegrees>
              <LongitudeDegrees>-6.1563528142869472503662109375</LongitudeDegrees>
            </Position>
            <AltitudeMeters>189.600006103515625</AltitudeMeters>
            <DistanceMeters>NAN</DistanceMeters>
          </Trackpoint>
          <Trackpoint>
            <Time>2019-10-10T12:10:36.000Z</Time>
            <Position>
              <LatitudeDegrees>37.65514704398810863494873046875</LatitudeDegrees>
              <LongitudeDegrees>-6.1562083102762699127197265625</LongitudeDegrees>
            </Position>
            <AltitudeMeters>190.399993896484375</AltitudeMeters>
            <DistanceMeters>NAN</DistanceMeters>
          </Trackpoint>
          <Trackpoint>
            <Time>2019-10-10T12:10:37.000Z</Time>
            <Position>
              <LatitudeDegrees>37.65512709505856037139892578125</LatitudeDegrees>
              <LongitudeDegrees>-6.15619246847927570343017578125</LongitudeDegrees>
            </Position>
            <AltitudeMeters>190.8000030517578125</AltitudeMeters>
            <DistanceMeters>NAN</DistanceMeters>
          </Trackpoint>
          <Trackpoint>
            <Time>2019-10-10T12:10:42.000Z</Time>
            <Position>
              <LatitudeDegrees>37.65502282418310642242431640625</LatitudeDegrees>
              <LongitudeDegrees>-6.1561187915503978729248046875</LongitudeDegrees>
            </Position>
            <AltitudeMeters>191.8000030517578125</AltitudeMeters>
            <DistanceMeters>NAN</DistanceMeters>
          </Trackpoint>
          <Trackpoint>
            <Time>2019-10-10T12:10:45.000Z</Time>
            <Position>
              <LatitudeDegrees>37.65496012754738330841064453125</LatitudeDegrees>
              <LongitudeDegrees>-6.156073696911334991455078125</LongitudeDegrees>
            </Position>
            <AltitudeMeters>191.8000030517578125</AltitudeMeters>
            <DistanceMeters>NAN</DistanceMeters>
          </Trackpoint>
          <Trackpoint>
            <Time>2019-10-10T12:10:51.000Z</Time>
            <Position>
              <LatitudeDegrees>37.654829956591129302978515625</LatitudeDegrees>
              <LongitudeDegrees>-6.15597772412002086639404296875</LongitudeDegrees>
            </Position>
            <AltitudeMeters>193.1999969482421875</AltitudeMeters>
            <DistanceMeters>NAN</DistanceMeters>
          </Trackpoint>
          <Trackpoint>
            <Time>2019-10-10T12:10:53.000Z</Time>
            <Position>
              <LatitudeDegrees>37.6547853648662567138671875</LatitudeDegrees>
              <LongitudeDegrees>-6.15595073439180850982666015625</LongitudeDegrees>
            </Position>
            <AltitudeMeters>193.399993896484375</AltitudeMeters>
            <DistanceMeters>NAN</DistanceMeters>
          </Trackpoint>
          <Trackpoint>
            <Time>2019-10-10T12:10:58.000Z</Time>
            <Position>
              <LatitudeDegrees>37.6546698622405529022216796875</LatitudeDegrees>
              <LongitudeDegrees>-6.1558773927390575408935546875</LongitudeDegrees>
            </Position>
            <AltitudeMeters>194.1999969482421875</AltitudeMeters>
            <DistanceMeters>NAN</DistanceMeters>
          </Trackpoint>
          <Trackpoint>
            <Time>2019-10-10T12:11:02.000Z</Time>
            <Position>
              <LatitudeDegrees>37.65458394773304462432861328125</LatitudeDegrees>
              <LongitudeDegrees>-6.1558105051517486572265625</LongitudeDegrees>
            </Position>
            <AltitudeMeters>195</AltitudeMeters>
            <DistanceMeters>NAN</DistanceMeters>
          </Trackpoint>
          <Trackpoint>
            <Time>2019-10-10T12:11:11.000Z</Time>
            <Position>
              <LatitudeDegrees>37.65437523834407329559326171875</LatitudeDegrees>
              <LongitudeDegrees>-6.15568854846060276031494140625</LongitudeDegrees>
            </Position>
            <AltitudeMeters>196.399993896484375</AltitudeMeters>
            <DistanceMeters>NAN</DistanceMeters>
          </Trackpoint>
          <Trackpoint>
            <Time>2019-10-10T12:11:12.000Z</Time>
            <Position>
              <LatitudeDegrees>37.65435361303389072418212890625</LatitudeDegrees>
              <LongitudeDegrees>-6.15567580796778202056884765625</LongitudeDegrees>
            </Position>
            <AltitudeMeters>196.600006103515625</AltitudeMeters>
            <DistanceMeters>NAN</DistanceMeters>
          </Trackpoint>
          <Trackpoint>
            <Time>2019-10-10T12:11:19.000Z</Time>
            <Position>
              <LatitudeDegrees>37.65420424751937389373779296875</LatitudeDegrees>
              <LongitudeDegrees>-6.15558545105159282684326171875</LongitudeDegrees>
            </Position>
            <AltitudeMeters>197.600006103515625</AltitudeMeters>
            <DistanceMeters>NAN</DistanceMeters>
          </Trackpoint>
          <Trackpoint>
            <Time>2019-10-10T12:11:24.000Z</Time>
            <Position>
              <LatitudeDegrees>37.6541014015674591064453125</LatitudeDegrees>
              <LongitudeDegrees>-6.155522502958774566650390625</LongitudeDegrees>
            </Position>
            <AltitudeMeters>198.399993896484375</AltitudeMeters>
            <DistanceMeters>NAN</DistanceMeters>
          </Trackpoint>
          <Trackpoint>
            <Time>2019-10-10T12:11:25.000Z</Time>
            <Position>
              <LatitudeDegrees>37.65407902188599109649658203125</LatitudeDegrees>
              <LongitudeDegrees>-6.15551303140819072723388671875</LongitudeDegrees>
            </Position>
            <AltitudeMeters>198.600006103515625</AltitudeMeters>
            <DistanceMeters>NAN</DistanceMeters>
          </Trackpoint>
          <Trackpoint>
            <Time>2019-10-10T12:11:33.000Z</Time>
            <Position>
              <LatitudeDegrees>37.65389688313007354736328125</LatitudeDegrees>
              <LongitudeDegrees>-6.1554376780986785888671875</LongitudeDegrees>
            </Position>
            <AltitudeMeters>199.600006103515625</AltitudeMeters>
            <DistanceMeters>NAN</DistanceMeters>
          </Trackpoint>
          <Trackpoint>
            <Time>2019-10-10T12:11:34.000Z</Time>
            <Position>
              <LatitudeDegrees>37.65387416817247867584228515625</LatitudeDegrees>
              <LongitudeDegrees>-6.15542736835777759552001953125</LongitudeDegrees>
            </Position>
            <AltitudeMeters>199.8000030517578125</AltitudeMeters>
            <DistanceMeters>NAN</DistanceMeters>
          </Trackpoint>
          <Trackpoint>
            <Time>2019-10-10T12:11:41.000Z</Time>
            <Position>
              <LatitudeDegrees>37.653720863163471221923828125</LatitudeDegrees>
              <LongitudeDegrees>-6.15536182187497615814208984375</LongitudeDegrees>
            </Position>
            <AltitudeMeters>200.600006103515625</AltitudeMeters>
            <DistanceMeters>NAN</DistanceMeters>
          </Trackpoint>
          <Trackpoint>
            <Time>2019-10-10T12:11:45.000Z</Time>
            <Position>
              <LatitudeDegrees>37.65363260172307491302490234375</LatitudeDegrees>
              <LongitudeDegrees>-6.15532896481454372406005859375</LongitudeDegrees>
            </Position>
            <AltitudeMeters>201.399993896484375</AltitudeMeters>
            <DistanceMeters>NAN</DistanceMeters>
          </Trackpoint>
          <Trackpoint>
            <Time>2019-10-10T12:11:47.000Z</Time>
            <Position>
              <LatitudeDegrees>37.6535889320075511932373046875</LatitudeDegrees>
              <LongitudeDegrees>-6.155310608446598052978515625</LongitudeDegrees>
            </Position>
            <AltitudeMeters>201.8000030517578125</AltitudeMeters>
            <DistanceMeters>NAN</DistanceMeters>
          </Trackpoint>
          <Trackpoint>
            <Time>2019-10-10T12:11:53.000Z</Time>
            <Position>
              <LatitudeDegrees>37.65344920568168163299560546875</LatitudeDegrees>
              <LongitudeDegrees>-6.1552685312926769256591796875</LongitudeDegrees>
            </Position>
            <AltitudeMeters>202.8000030517578125</AltitudeMeters>
            <DistanceMeters>NAN</DistanceMeters>
          </Trackpoint>
          <Trackpoint>
            <Time>2019-10-10T12:11:54.000Z</Time>
            <Position>
              <LatitudeDegrees>37.6534281671047210693359375</LatitudeDegrees>
              <LongitudeDegrees>-6.15525939501821994781494140625</LongitudeDegrees>
            </Position>
            <AltitudeMeters>202.8000030517578125</AltitudeMeters>
            <DistanceMeters>NAN</DistanceMeters>
          </Trackpoint>
          <Trackpoint>
            <Time>2019-10-10T12:12:02.000Z</Time>
            <Position>
              <LatitudeDegrees>37.65325172804296016693115234375</LatitudeDegrees>
              <LongitudeDegrees>-6.1552051641047000885009765625</LongitudeDegrees>
            </Position>
            <AltitudeMeters>204</AltitudeMeters>
            <DistanceMeters>NAN</DistanceMeters>
          </Trackpoint>
          <Trackpoint>
            <Time>2019-10-10T12:12:09.000Z</Time>
            <Position>
              <LatitudeDegrees>37.6530903764069080352783203125</LatitudeDegrees>
              <LongitudeDegrees>-6.15515763871371746063232421875</LongitudeDegrees>
            </Position>
            <AltitudeMeters>205</AltitudeMeters>
            <DistanceMeters>NAN</DistanceMeters>
          </Trackpoint>
          <Trackpoint>
            <Time>2019-10-10T12:12:10.000Z</Time>
            <Position>
              <LatitudeDegrees>37.65306715853512287139892578125</LatitudeDegrees>
              <LongitudeDegrees>-6.1551515199244022369384765625</LongitudeDegrees>
            </Position>
            <AltitudeMeters>205.1999969482421875</AltitudeMeters>
            <DistanceMeters>NAN</DistanceMeters>
          </Trackpoint>
          <Trackpoint>
            <Time>2019-10-10T12:12:16.000Z</Time>
            <Position>
              <LatitudeDegrees>37.65292919240891933441162109375</LatitudeDegrees>
              <LongitudeDegrees>-6.15512494929134845733642578125</LongitudeDegrees>
            </Position>
            <AltitudeMeters>206.1999969482421875</AltitudeMeters>
            <DistanceMeters>NAN</DistanceMeters>
          </Trackpoint>
          <Trackpoint>
            <Time>2019-10-10T12:12:23.000Z</Time>
            <Position>
              <LatitudeDegrees>37.65276968479156494140625</LatitudeDegrees>
              <LongitudeDegrees>-6.1550901643931865692138671875</LongitudeDegrees>
            </Position>
            <AltitudeMeters>207</AltitudeMeters>
            <DistanceMeters>NAN</DistanceMeters>
          </Trackpoint>
          <Trackpoint>
            <Time>2019-10-10T12:12:28.000Z</Time>
            <Position>
              <LatitudeDegrees>37.652654014527797698974609375</LatitudeDegrees>
              <LongitudeDegrees>-6.15507356822490692138671875</LongitudeDegrees>
            </Position>
            <AltitudeMeters>207.600006103515625</AltitudeMeters>
            <DistanceMeters>NAN</DistanceMeters>
          </Trackpoint>
          <Trackpoint>
            <Time>2019-10-10T12:12:33.000Z</Time>
            <Position>
              <LatitudeDegrees>37.65253708697855472564697265625</LatitudeDegrees>
              <LongitudeDegrees>-6.15505487658083438873291015625</LongitudeDegrees>
            </Position>
            <AltitudeMeters>208.1999969482421875</AltitudeMeters>
            <DistanceMeters>NAN</DistanceMeters>
          </Trackpoint>
          <Trackpoint>
            <Time>2019-10-10T12:12:35.000Z</Time>
            <Position>
              <LatitudeDegrees>37.65248914249241352081298828125</LatitudeDegrees>
              <LongitudeDegrees>-6.15504917688667774200439453125</LongitudeDegrees>
            </Position>
            <AltitudeMeters>208.600006103515625</AltitudeMeters>
            <DistanceMeters>NAN</DistanceMeters>
          </Trackpoint>
          <Trackpoint>
            <Time>2019-10-10T12:12:39.000Z</Time>
            <Position>
              <LatitudeDegrees>37.65239258296787738800048828125</LatitudeDegrees>
              <LongitudeDegrees>-6.15504205226898193359375</LongitudeDegrees>
            </Position>
            <AltitudeMeters>209.600006103515625</AltitudeMeters>
            <DistanceMeters>NAN</DistanceMeters>
          </Trackpoint>
          <Trackpoint>
            <Time>2019-10-10T12:12:41.000Z</Time>
            <Position>
              <LatitudeDegrees>37.65234564431011676788330078125</LatitudeDegrees>
              <LongitudeDegrees>-6.15504213608801364898681640625</LongitudeDegrees>
            </Position>
            <AltitudeMeters>210</AltitudeMeters>
            <DistanceMeters>NAN</DistanceMeters>
          </Trackpoint>
          <Trackpoint>
            <Time>2019-10-10T12:12:47.000Z</Time>
            <Position>
              <LatitudeDegrees>37.652202732861042022705078125</LatitudeDegrees>
              <LongitudeDegrees>-6.15502654574811458587646484375</LongitudeDegrees>
            </Position>
            <AltitudeMeters>210.8000030517578125</AltitudeMeters>
            <DistanceMeters>NAN</DistanceMeters>
          </Trackpoint>
          <Trackpoint>
            <Time>2019-10-10T12:12:50.000Z</Time>
            <Position>
              <LatitudeDegrees>37.65213064849376678466796875</LatitudeDegrees>
              <LongitudeDegrees>-6.155018918216228485107421875</LongitudeDegrees>
            </Position>
            <AltitudeMeters>211</AltitudeMeters>
            <DistanceMeters>NAN</DistanceMeters>
          </Trackpoint>
          <Trackpoint>
            <Time>2019-10-10T12:12:56.000Z</Time>
            <Position>
              <LatitudeDegrees>37.65198505483567714691162109375</LatitudeDegrees>
              <LongitudeDegrees>-6.1549956165254116058349609375</LongitudeDegrees>
            </Position>
            <AltitudeMeters>211.8000030517578125</AltitudeMeters>
            <DistanceMeters>NAN</DistanceMeters>
          </Trackpoint>
          <Trackpoint>
            <Time>2019-10-10T12:12:59.000Z</Time>
            <Position>
              <LatitudeDegrees>37.65191280283033847808837890625</LatitudeDegrees>
              <LongitudeDegrees>-6.1549949459731578826904296875</LongitudeDegrees>
            </Position>
            <AltitudeMeters>212.399993896484375</AltitudeMeters>
            <DistanceMeters>NAN</DistanceMeters>
          </Trackpoint>
          <Trackpoint>
            <Time>2019-10-10T12:13:02.000Z</Time>
            <Position>
              <LatitudeDegrees>37.6518387906253337860107421875</LatitudeDegrees>
              <LongitudeDegrees>-6.1549848876893520355224609375</LongitudeDegrees>
            </Position>
            <AltitudeMeters>213</AltitudeMeters>
            <DistanceMeters>NAN</DistanceMeters>
          </Trackpoint>
          <Trackpoint>
            <Time>2019-10-10T12:13:09.000Z</Time>
            <Position>
              <LatitudeDegrees>37.6516721583902835845947265625</LatitudeDegrees>
              <LongitudeDegrees>-6.1549714766442775726318359375</LongitudeDegrees>
            </Position>
            <AltitudeMeters>213.8000030517578125</AltitudeMeters>
            <DistanceMeters>NAN</DistanceMeters>
          </Trackpoint>
          <Trackpoint>
            <Time>2019-10-10T12:13:10.000Z</Time>
            <Position>
              <LatitudeDegrees>37.65164894051849842071533203125</LatitudeDegrees>
              <LongitudeDegrees>-6.15496627986431121826171875</LongitudeDegrees>
            </Position>
            <AltitudeMeters>214</AltitudeMeters>
            <DistanceMeters>NAN</DistanceMeters>
          </Trackpoint>
          <Trackpoint>
            <Time>2019-10-10T12:13:16.000Z</Time>
            <Position>
              <LatitudeDegrees>37.6515090465545654296875</LatitudeDegrees>
              <LongitudeDegrees>-6.1549406312406063079833984375</LongitudeDegrees>
            </Position>
            <AltitudeMeters>215</AltitudeMeters>
            <DistanceMeters>NAN</DistanceMeters>
          </Trackpoint>
          <Trackpoint>
            <Time>2019-10-10T12:13:21.000Z</Time>
            <Position>
              <LatitudeDegrees>37.6513905264437198638916015625</LatitudeDegrees>
              <LongitudeDegrees>-6.15494255907833576202392578125</LongitudeDegrees>
            </Position>
            <AltitudeMeters>216</AltitudeMeters>
            <DistanceMeters>NAN</DistanceMeters>
          </Trackpoint>
          <Trackpoint>
            <Time>2019-10-10T12:13:28.000Z</Time>
            <Position>
              <LatitudeDegrees>37.65122473239898681640625</LatitudeDegrees>
              <LongitudeDegrees>-6.15492931567132472991943359375</LongitudeDegrees>
            </Position>
            <AltitudeMeters>217</AltitudeMeters>
            <DistanceMeters>NAN</DistanceMeters>
          </Trackpoint>
          <Trackpoint>
            <Time>2019-10-10T12:13:29.000Z</Time>
            <Position>
              <LatitudeDegrees>37.6512014307081699371337890625</LatitudeDegrees>
              <LongitudeDegrees>-6.15492604672908782958984375</LongitudeDegrees>
            </Position>
            <AltitudeMeters>217.1999969482421875</AltitudeMeters>
            <DistanceMeters>NAN</DistanceMeters>
          </Trackpoint>
          <Trackpoint>
            <Time>2019-10-10T12:13:34.000Z</Time>
            <Position>
              <LatitudeDegrees>37.65108433552086353302001953125</LatitudeDegrees>
              <LongitudeDegrees>-6.154898889362812042236328125</LongitudeDegrees>
            </Position>
            <AltitudeMeters>218.1999969482421875</AltitudeMeters>
            <DistanceMeters>NAN</DistanceMeters>
          </Trackpoint>
          <Trackpoint>
            <Time>2019-10-10T12:13:36.000Z</Time>
            <Position>
              <LatitudeDegrees>37.65103622339665889739990234375</LatitudeDegrees>
              <LongitudeDegrees>-6.15489478223025798797607421875</LongitudeDegrees>
            </Position>
            <AltitudeMeters>218.1999969482421875</AltitudeMeters>
            <DistanceMeters>NAN</DistanceMeters>
          </Trackpoint>
          <Trackpoint>
            <Time>2019-10-10T12:13:43.000Z</Time>
            <Position>
              <LatitudeDegrees>37.6508651487529277801513671875</LatitudeDegrees>
              <LongitudeDegrees>-6.15487600676715373992919921875</LongitudeDegrees>
            </Position>
            <AltitudeMeters>219.1999969482421875</AltitudeMeters>
            <DistanceMeters>NAN</DistanceMeters>
          </Trackpoint>
          <Trackpoint>
            <Time>2019-10-10T12:13:44.000Z</Time>
            <Position>
              <LatitudeDegrees>37.65084176324307918548583984375</LatitudeDegrees>
              <LongitudeDegrees>-6.15487248636782169342041015625</LongitudeDegrees>
            </Position>
            <AltitudeMeters>219.600006103515625</AltitudeMeters>
            <DistanceMeters>NAN</DistanceMeters>
          </Trackpoint>
          <Trackpoint>
            <Time>2019-10-10T12:13:46.000Z</Time>
            <Position>
              <LatitudeDegrees>37.6507950760424137115478515625</LatitudeDegrees>
              <LongitudeDegrees>-6.15486569702625274658203125</LongitudeDegrees>
            </Position>
            <AltitudeMeters>220.399993896484375</AltitudeMeters>
            <DistanceMeters>NAN</DistanceMeters>
          </Trackpoint>
          <Trackpoint>
            <Time>2019-10-10T12:13:47.000Z</Time>
            <Position>
              <LatitudeDegrees>37.650770433247089385986328125</LatitudeDegrees>
              <LongitudeDegrees>-6.15486527793109416961669921875</LongitudeDegrees>
            </Position>
            <AltitudeMeters>220</AltitudeMeters>
            <DistanceMeters>NAN</DistanceMeters>
          </Trackpoint>
          <Trackpoint>
            <Time>2019-10-10T12:13:54.000Z</Time>
            <Position>
              <LatitudeDegrees>37.65059583820402622222900390625</LatitudeDegrees>
              <LongitudeDegrees>-6.1548829637467861175537109375</LongitudeDegrees>
            </Position>
            <AltitudeMeters>221</AltitudeMeters>
            <DistanceMeters>NAN</DistanceMeters>
          </Trackpoint>
          <Trackpoint>
            <Time>2019-10-10T12:13:56.000Z</Time>
            <Position>
              <LatitudeDegrees>37.6505469717085361480712890625</LatitudeDegrees>
              <LongitudeDegrees>-6.1548851430416107177734375</LongitudeDegrees>
            </Position>
            <AltitudeMeters>221.399993896484375</AltitudeMeters>
            <DistanceMeters>NAN</DistanceMeters>
          </Trackpoint>
          <Trackpoint>
            <Time>2019-10-10T12:14:03.000Z</Time>
            <Position>
              <LatitudeDegrees>37.6503716222941875457763671875</LatitudeDegrees>
              <LongitudeDegrees>-6.1549148149788379669189453125</LongitudeDegrees>
            </Position>
            <AltitudeMeters>222.1999969482421875</AltitudeMeters>
            <DistanceMeters>NAN</DistanceMeters>
          </Trackpoint>
          <Trackpoint>
            <Time>2019-10-10T12:14:05.000Z</Time>
            <Position>
              <LatitudeDegrees>37.65032476745545864105224609375</LatitudeDegrees>
              <LongitudeDegrees>-6.15492210723459720611572265625</LongitudeDegrees>
            </Position>
            <AltitudeMeters>222.600006103515625</AltitudeMeters>
            <DistanceMeters>NAN</DistanceMeters>
          </Trackpoint>
          <Trackpoint>
            <Time>2019-10-10T12:14:11.000Z</Time>
            <Position>
              <LatitudeDegrees>37.65018143691122531890869140625</LatitudeDegrees>
              <LongitudeDegrees>-6.154944486916065216064453125</LongitudeDegrees>
            </Position>
            <AltitudeMeters>223.600006103515625</AltitudeMeters>
            <DistanceMeters>NAN</DistanceMeters>
          </Trackpoint>
          <Trackpoint>
            <Time>2019-10-10T12:14:13.000Z</Time>
            <Position>
              <LatitudeDegrees>37.65013114549219608306884765625</LatitudeDegrees>
              <LongitudeDegrees>-6.1549506895244121551513671875</LongitudeDegrees>
            </Position>
            <AltitudeMeters>224</AltitudeMeters>
            <DistanceMeters>NAN</DistanceMeters>
          </Trackpoint>
          <Trackpoint>
            <Time>2019-10-10T12:14:16.000Z</Time>
            <Position>
              <LatitudeDegrees>37.6500619947910308837890625</LatitudeDegrees>
              <LongitudeDegrees>-6.15497876890003681182861328125</LongitudeDegrees>
            </Position>
            <AltitudeMeters>224.600006103515625</AltitudeMeters>
            <DistanceMeters>NAN</DistanceMeters>
          </Trackpoint>
          <Trackpoint>
            <Time>2019-10-10T12:14:21.000Z</Time>
            <Position>
              <LatitudeDegrees>37.64994992874562740325927734375</LatitudeDegrees>
              <LongitudeDegrees>-6.15502838976681232452392578125</LongitudeDegrees>
            </Position>
            <AltitudeMeters>225.1999969482421875</AltitudeMeters>
            <DistanceMeters>NAN</DistanceMeters>
          </Trackpoint>
          <Trackpoint>
            <Time>2019-10-10T12:14:24.000Z</Time>
            <Position>
              <LatitudeDegrees>37.64988320879638195037841796875</LatitudeDegrees>
              <LongitudeDegrees>-6.155066192150115966796875</LongitudeDegrees>
            </Position>
            <AltitudeMeters>225.8000030517578125</AltitudeMeters>
            <DistanceMeters>NAN</DistanceMeters>
          </Trackpoint>
          <Trackpoint>
            <Time>2019-10-10T12:14:29.000Z</Time>
            <Position>
              <LatitudeDegrees>37.64976904727518558502197265625</LatitudeDegrees>
              <LongitudeDegrees>-6.15512008778750896453857421875</LongitudeDegrees>
            </Position>
            <AltitudeMeters>226.8000030517578125</AltitudeMeters>
            <DistanceMeters>NAN</DistanceMeters>
          </Trackpoint>
          <Trackpoint>
            <Time>2019-10-10T12:14:35.000Z</Time>
            <Position>
              <LatitudeDegrees>37.64963644556701183319091796875</LatitudeDegrees>
              <LongitudeDegrees>-6.15519158542156219482421875</LongitudeDegrees>
            </Position>
            <AltitudeMeters>227.8000030517578125</AltitudeMeters>
            <DistanceMeters>NAN</DistanceMeters>
          </Trackpoint>
          <Trackpoint>
            <Time>2019-10-10T12:14:36.000Z</Time>
            <Position>
              <LatitudeDegrees>37.6496142335236072540283203125</LatitudeDegrees>
              <LongitudeDegrees>-6.1552048288285732269287109375</LongitudeDegrees>
            </Position>
            <AltitudeMeters>228</AltitudeMeters>
            <DistanceMeters>NAN</DistanceMeters>
          </Trackpoint>
          <Trackpoint>
            <Time>2019-10-10T12:14:42.000Z</Time>
            <Position>
              <LatitudeDegrees>37.6494918577373027801513671875</LatitudeDegrees>
              <LongitudeDegrees>-6.15528588183224201202392578125</LongitudeDegrees>
            </Position>
            <AltitudeMeters>229</AltitudeMeters>
            <DistanceMeters>NAN</DistanceMeters>
          </Trackpoint>
          <Trackpoint>
            <Time>2019-10-10T12:14:45.000Z</Time>
            <Position>
              <LatitudeDegrees>37.64942857436835765838623046875</LatitudeDegrees>
              <LongitudeDegrees>-6.15532628260552883148193359375</LongitudeDegrees>
            </Position>
            <AltitudeMeters>229.399993896484375</AltitudeMeters>
            <DistanceMeters>NAN</DistanceMeters>
          </Trackpoint>
          <Trackpoint>
            <Time>2019-10-10T12:14:49.000Z</Time>
            <Position>
              <LatitudeDegrees>37.6493379659950733184814453125</LatitudeDegrees>
              <LongitudeDegrees>-6.15537171252071857452392578125</LongitudeDegrees>
            </Position>
            <AltitudeMeters>230</AltitudeMeters>
            <DistanceMeters>NAN</DistanceMeters>
          </Trackpoint>
          <Trackpoint>
            <Time>2019-10-10T12:14:53.000Z</Time>
            <Position>
              <LatitudeDegrees>37.6492521353065967559814453125</LatitudeDegrees>
              <LongitudeDegrees>-6.15541898645460605621337890625</LongitudeDegrees>
            </Position>
            <AltitudeMeters>230.399993896484375</AltitudeMeters>
            <DistanceMeters>NAN</DistanceMeters>
          </Trackpoint>
          <Trackpoint>
            <Time>2019-10-10T12:14:57.000Z</Time>
            <Position>
              <LatitudeDegrees>37.64916119165718555450439453125</LatitudeDegrees>
              <LongitudeDegrees>-6.155461482703685760498046875</LongitudeDegrees>
            </Position>
            <AltitudeMeters>231.399993896484375</AltitudeMeters>
            <DistanceMeters>NAN</DistanceMeters>
          </Trackpoint>
          <Trackpoint>
            <Time>2019-10-10T12:14:58.000Z</Time>
            <Position>
              <LatitudeDegrees>37.6491354592144489288330078125</LatitudeDegrees>
              <LongitudeDegrees>-6.1554703675210475921630859375</LongitudeDegrees>
            </Position>
            <AltitudeMeters>231.399993896484375</AltitudeMeters>
            <DistanceMeters>NAN</DistanceMeters>
          </Trackpoint>
          <Trackpoint>
            <Time>2019-10-10T12:15:03.000Z</Time>
            <Position>
              <LatitudeDegrees>37.64902272261679172515869140625</LatitudeDegrees>
              <LongitudeDegrees>-6.15553281269967555999755859375</LongitudeDegrees>
            </Position>
            <AltitudeMeters>232.8000030517578125</AltitudeMeters>
            <DistanceMeters>NAN</DistanceMeters>
          </Trackpoint>
          <Trackpoint>
            <Time>2019-10-10T12:15:05.000Z</Time>
            <Position>
              <LatitudeDegrees>37.648982070386409759521484375</LatitudeDegrees>
              <LongitudeDegrees>-6.155562065541744232177734375</LongitudeDegrees>
            </Position>
            <AltitudeMeters>233</AltitudeMeters>
            <DistanceMeters>NAN</DistanceMeters>
          </Trackpoint>
          <Trackpoint>
            <Time>2019-10-10T12:15:11.000Z</Time>
            <Position>
              <LatitudeDegrees>37.64884485863149166107177734375</LatitudeDegrees>
              <LongitudeDegrees>-6.15562249906361103057861328125</LongitudeDegrees>
            </Position>
            <AltitudeMeters>234</AltitudeMeters>
            <DistanceMeters>NAN</DistanceMeters>
          </Trackpoint>
          <Trackpoint>
            <Time>2019-10-10T12:15:12.000Z</Time>
            <Position>
              <LatitudeDegrees>37.6488201320171356201171875</LatitudeDegrees>
              <LongitudeDegrees>-6.15563205443322658538818359375</LongitudeDegrees>
            </Position>
            <AltitudeMeters>233.8000030517578125</AltitudeMeters>
            <DistanceMeters>NAN</DistanceMeters>
          </Trackpoint>
          <Trackpoint>
            <Time>2019-10-10T12:15:19.000Z</Time>
            <Position>
              <LatitudeDegrees>37.64865391887724399566650390625</LatitudeDegrees>
              <LongitudeDegrees>-6.15568779408931732177734375</LongitudeDegrees>
            </Position>
            <AltitudeMeters>234.8000030517578125</AltitudeMeters>
            <DistanceMeters>NAN</DistanceMeters>
          </Trackpoint>
          <Trackpoint>
            <Time>2019-10-10T12:15:20.000Z</Time>
            <Position>
              <LatitudeDegrees>37.648628689348697662353515625</LatitudeDegrees>
              <LongitudeDegrees>-6.15569558925926685333251953125</LongitudeDegrees>
            </Position>
            <AltitudeMeters>235.1999969482421875</AltitudeMeters>
            <DistanceMeters>NAN</DistanceMeters>
          </Trackpoint>
          <Trackpoint>
            <Time>2019-10-10T12:15:26.000Z</Time>
            <Position>
              <LatitudeDegrees>37.6484843529760837554931640625</LatitudeDegrees>
              <LongitudeDegrees>-6.155735068023204803466796875</LongitudeDegrees>
            </Position>
            <AltitudeMeters>235.8000030517578125</AltitudeMeters>
            <DistanceMeters>NAN</DistanceMeters>
          </Trackpoint>
          <Trackpoint>
            <Time>2019-10-10T12:15:30.000Z</Time>
            <Position>
              <LatitudeDegrees>37.64838854782283306121826171875</LatitudeDegrees>
              <LongitudeDegrees>-6.155758537352085113525390625</LongitudeDegrees>
            </Position>
            <AltitudeMeters>236.8000030517578125</AltitudeMeters>
            <DistanceMeters>NAN</DistanceMeters>
          </Trackpoint>
          <Trackpoint>
            <Time>2019-10-10T12:15:34.000Z</Time>
            <Position>
              <LatitudeDegrees>37.6482912339270114898681640625</LatitudeDegrees>
              <LongitudeDegrees>-6.15576960146427154541015625</LongitudeDegrees>
            </Position>
            <AltitudeMeters>237</AltitudeMeters>
            <DistanceMeters>NAN</DistanceMeters>
          </Trackpoint>
          <Trackpoint>
            <Time>2019-10-10T12:15:37.000Z</Time>
            <Position>
              <LatitudeDegrees>37.6482191495597362518310546875</LatitudeDegrees>
              <LongitudeDegrees>-6.15577437914907932281494140625</LongitudeDegrees>
            </Position>
            <AltitudeMeters>237.8000030517578125</AltitudeMeters>
            <DistanceMeters>NAN</DistanceMeters>
          </Trackpoint>
          <Trackpoint>
            <Time>2019-10-10T12:15:43.000Z</Time>
            <Position>
              <LatitudeDegrees>37.6480816863477230072021484375</LatitudeDegrees>
              <LongitudeDegrees>-6.15575845353305339813232421875</LongitudeDegrees>
            </Position>
            <AltitudeMeters>238.1999969482421875</AltitudeMeters>
            <DistanceMeters>NAN</DistanceMeters>
          </Trackpoint>
          <Trackpoint>
            <Time>2019-10-10T12:15:47.000Z</Time>
            <Position>
              <LatitudeDegrees>37.64797397889196872711181640625</LatitudeDegrees>
              <LongitudeDegrees>-6.15575191564857959747314453125</LongitudeDegrees>
            </Position>
            <AltitudeMeters>238.8000030517578125</AltitudeMeters>
            <DistanceMeters>NAN</DistanceMeters>
          </Trackpoint>
          <Trackpoint>
            <Time>2019-10-10T12:15:52.000Z</Time>
            <Position>
              <LatitudeDegrees>37.647851519286632537841796875</LatitudeDegrees>
              <LongitudeDegrees>-6.15572802722454071044921875</LongitudeDegrees>
            </Position>
            <AltitudeMeters>239.600006103515625</AltitudeMeters>
            <DistanceMeters>NAN</DistanceMeters>
          </Trackpoint>
          <Trackpoint>
            <Time>2019-10-10T12:15:53.000Z</Time>
            <Position>
              <LatitudeDegrees>37.64782679267227649688720703125</LatitudeDegrees>
              <LongitudeDegrees>-6.155726015567779541015625</LongitudeDegrees>
            </Position>
            <AltitudeMeters>239.8000030517578125</AltitudeMeters>
            <DistanceMeters>NAN</DistanceMeters>
          </Trackpoint>
          <Trackpoint>
            <Time>2019-10-10T12:15:58.000Z</Time>
            <Position>
              <LatitudeDegrees>37.64770944602787494659423828125</LatitudeDegrees>
              <LongitudeDegrees>-6.15570464171469211578369140625</LongitudeDegrees>
            </Position>
            <AltitudeMeters>240.8000030517578125</AltitudeMeters>
            <DistanceMeters>NAN</DistanceMeters>
          </Trackpoint>
          <Trackpoint>
            <Time>2019-10-10T12:15:59.000Z</Time>
            <Position>
              <LatitudeDegrees>37.64768346212804317474365234375</LatitudeDegrees>
              <LongitudeDegrees>-6.1557013727724552154541015625</LongitudeDegrees>
            </Position>
            <AltitudeMeters>241</AltitudeMeters>
            <DistanceMeters>NAN</DistanceMeters>
          </Trackpoint>
          <Trackpoint>
            <Time>2019-10-10T12:16:05.000Z</Time>
            <Position>
              <LatitudeDegrees>37.64754499308764934539794921875</LatitudeDegrees>
              <LongitudeDegrees>-6.15566440857946872711181640625</LongitudeDegrees>
            </Position>
            <AltitudeMeters>241.8000030517578125</AltitudeMeters>
            <DistanceMeters>NAN</DistanceMeters>
          </Trackpoint>
          <Trackpoint>
            <Time>2019-10-10T12:16:07.000Z</Time>
            <Position>
              <LatitudeDegrees>37.64749579131603240966796875</LatitudeDegrees>
              <LongitudeDegrees>-6.1556534282863140106201171875</LongitudeDegrees>
            </Position>
            <AltitudeMeters>242</AltitudeMeters>
            <DistanceMeters>NAN</DistanceMeters>
          </Trackpoint>
          <Trackpoint>
            <Time>2019-10-10T12:16:14.000Z</Time>
            <Position>
              <LatitudeDegrees>37.64733980409801006317138671875</LatitudeDegrees>
              <LongitudeDegrees>-6.1555719561874866485595703125</LongitudeDegrees>
            </Position>
            <AltitudeMeters>243.1999969482421875</AltitudeMeters>
            <DistanceMeters>NAN</DistanceMeters>
          </Trackpoint>
          <Trackpoint>
            <Time>2019-10-10T12:16:15.000Z</Time>
            <Position>
              <LatitudeDegrees>37.64731750823557376861572265625</LatitudeDegrees>
              <LongitudeDegrees>-6.1555592156946659088134765625</LongitudeDegrees>
            </Position>
            <AltitudeMeters>243.399993896484375</AltitudeMeters>
            <DistanceMeters>NAN</DistanceMeters>
          </Trackpoint>
          <Trackpoint>
            <Time>2019-10-10T12:16:22.000Z</Time>
            <Position>
              <LatitudeDegrees>37.64715372584760189056396484375</LatitudeDegrees>
              <LongitudeDegrees>-6.1554924957454204559326171875</LongitudeDegrees>
            </Position>
            <AltitudeMeters>244.1999969482421875</AltitudeMeters>
            <DistanceMeters>NAN</DistanceMeters>
          </Trackpoint>
          <Trackpoint>
            <Time>2019-10-10T12:16:24.000Z</Time>
            <Position>
              <LatitudeDegrees>37.64710963703691959381103515625</LatitudeDegrees>
              <LongitudeDegrees>-6.15546911023557186126708984375</LongitudeDegrees>
            </Position>
            <AltitudeMeters>244.600006103515625</AltitudeMeters>
            <DistanceMeters>NAN</DistanceMeters>
          </Trackpoint>
          <Trackpoint>
            <Time>2019-10-10T12:16:28.000Z</Time>
            <Position>
              <LatitudeDegrees>37.64702045358717441558837890625</LatitudeDegrees>
              <LongitudeDegrees>-6.15542032755911350250244140625</LongitudeDegrees>
            </Position>
            <AltitudeMeters>245.1999969482421875</AltitudeMeters>
            <DistanceMeters>NAN</DistanceMeters>
          </Trackpoint>
          <Trackpoint>
            <Time>2019-10-10T12:16:33.000Z</Time>
            <Position>
              <LatitudeDegrees>37.64691249467432498931884765625</LatitudeDegrees>
              <LongitudeDegrees>-6.15534304641187191009521484375</LongitudeDegrees>
            </Position>
            <AltitudeMeters>245.8000030517578125</AltitudeMeters>
            <DistanceMeters>NAN</DistanceMeters>
          </Trackpoint>
          <Trackpoint>
            <Time>2019-10-10T12:16:35.000Z</Time>
            <Position>
              <LatitudeDegrees>37.64686957933008670806884765625</LatitudeDegrees>
              <LongitudeDegrees>-6.1553087644279003143310546875</LongitudeDegrees>
            </Position>
            <AltitudeMeters>246.1999969482421875</AltitudeMeters>
            <DistanceMeters>NAN</DistanceMeters>
          </Trackpoint>
          <Trackpoint>
            <Time>2019-10-10T12:16:44.000Z</Time>
            <Position>
              <LatitudeDegrees>37.64666774310171604156494140625</LatitudeDegrees>
              <LongitudeDegrees>-6.155173480510711669921875</LongitudeDegrees>
            </Position>
            <AltitudeMeters>246.8000030517578125</AltitudeMeters>
            <DistanceMeters>NAN</DistanceMeters>
          </Trackpoint>
          <Trackpoint>
            <Time>2019-10-10T12:16:46.000Z</Time>
            <Position>
              <LatitudeDegrees>37.64662206172943115234375</LatitudeDegrees>
              <LongitudeDegrees>-6.15514657460153102874755859375</LongitudeDegrees>
            </Position>
            <AltitudeMeters>247.399993896484375</AltitudeMeters>
            <DistanceMeters>NAN</DistanceMeters>
          </Trackpoint>
          <Trackpoint>
            <Time>2019-10-10T12:16:53.000Z</Time>
            <Position>
              <LatitudeDegrees>37.646458111703395843505859375</LatitudeDegrees>
              <LongitudeDegrees>-6.15504465065896511077880859375</LongitudeDegrees>
            </Position>
            <AltitudeMeters>248.399993896484375</AltitudeMeters>
            <DistanceMeters>NAN</DistanceMeters>
          </Trackpoint>
          <Trackpoint>
            <Time>2019-10-10T12:16:54.000Z</Time>
            <Position>
              <LatitudeDegrees>37.646434307098388671875</LatitudeDegrees>
              <LongitudeDegrees>-6.1550301499664783477783203125</LongitudeDegrees>
            </Position>
            <AltitudeMeters>248.1999969482421875</AltitudeMeters>
            <DistanceMeters>NAN</DistanceMeters>
          </Trackpoint>
          <Trackpoint>
            <Time>2019-10-10T12:17:04.000Z</Time>
            <Position>
              <LatitudeDegrees>37.64620305038988590240478515625</LatitudeDegrees>
              <LongitudeDegrees>-6.15486972033977508544921875</LongitudeDegrees>
            </Position>
            <AltitudeMeters>248.8000030517578125</AltitudeMeters>
            <DistanceMeters>NAN</DistanceMeters>
          </Trackpoint>
          <Trackpoint>
            <Time>2019-10-10T12:17:08.000Z</Time>
            <Position>
              <LatitudeDegrees>37.64610867016017436981201171875</LatitudeDegrees>
              <LongitudeDegrees>-6.15480727516114711761474609375</LongitudeDegrees>
            </Position>
            <AltitudeMeters>249.399993896484375</AltitudeMeters>
            <DistanceMeters>NAN</DistanceMeters>
          </Trackpoint>
          <Trackpoint>
            <Time>2019-10-10T12:17:13.000Z</Time>
            <Position>
              <LatitudeDegrees>37.64599216170608997344970703125</LatitudeDegrees>
              <LongitudeDegrees>-6.15473133511841297149658203125</LongitudeDegrees>
            </Position>
            <AltitudeMeters>250</AltitudeMeters>
            <DistanceMeters>NAN</DistanceMeters>
          </Trackpoint>
          <Trackpoint>
            <Time>2019-10-10T12:17:19.000Z</Time>
            <Position>
              <LatitudeDegrees>37.645849920809268951416015625</LatitudeDegrees>
              <LongitudeDegrees>-6.15463527850806713104248046875</LongitudeDegrees>
            </Position>
            <AltitudeMeters>250.600006103515625</AltitudeMeters>
            <DistanceMeters>NAN</DistanceMeters>
          </Trackpoint>
          <Trackpoint>
            <Time>2019-10-10T12:17:22.000Z</Time>
            <Position>
              <LatitudeDegrees>37.64577792026102542877197265625</LatitudeDegrees>
              <LongitudeDegrees>-6.15458549000322818756103515625</LongitudeDegrees>
            </Position>
            <AltitudeMeters>250.600006103515625</AltitudeMeters>
            <DistanceMeters>NAN</DistanceMeters>
          </Trackpoint>
          <Trackpoint>
            <Time>2019-10-10T12:17:28.000Z</Time>
            <Position>
              <LatitudeDegrees>37.6456309854984283447265625</LatitudeDegrees>
              <LongitudeDegrees>-6.15448205731809139251708984375</LongitudeDegrees>
            </Position>
            <AltitudeMeters>251</AltitudeMeters>
            <DistanceMeters>NAN</DistanceMeters>
          </Trackpoint>
          <Trackpoint>
            <Time>2019-10-10T12:17:33.000Z</Time>
            <Position>
              <LatitudeDegrees>37.64550282619893550872802734375</LatitudeDegrees>
              <LongitudeDegrees>-6.1543924547731876373291015625</LongitudeDegrees>
            </Position>
            <AltitudeMeters>250.8000030517578125</AltitudeMeters>
            <DistanceMeters>NAN</DistanceMeters>
          </Trackpoint>
          <Trackpoint>
            <Time>2019-10-10T12:17:40.000Z</Time>
            <Position>
              <LatitudeDegrees>37.64531842432916164398193359375</LatitudeDegrees>
              <LongitudeDegrees>-6.15426580421626567840576171875</LongitudeDegrees>
            </Position>
            <AltitudeMeters>251</AltitudeMeters>
            <DistanceMeters>NAN</DistanceMeters>
          </Trackpoint>
          <Trackpoint>
            <Time>2019-10-10T12:17:45.000Z</Time>
            <Position>
              <LatitudeDegrees>37.645176351070404052734375</LatitudeDegrees>
              <LongitudeDegrees>-6.1541617847979068756103515625</LongitudeDegrees>
            </Position>
            <AltitudeMeters>251.399993896484375</AltitudeMeters>
            <DistanceMeters>NAN</DistanceMeters>
          </Trackpoint>
          <Trackpoint>
            <Time>2019-10-10T12:17:49.000Z</Time>
            <Position>
              <LatitudeDegrees>37.64505489729344844818115234375</LatitudeDegrees>
              <LongitudeDegrees>-6.15407771430909633636474609375</LongitudeDegrees>
            </Position>
            <AltitudeMeters>251.1999969482421875</AltitudeMeters>
            <DistanceMeters>NAN</DistanceMeters>
          </Trackpoint>
          <Trackpoint>
            <Time>2019-10-10T12:17:55.000Z</Time>
            <Position>
              <LatitudeDegrees>37.64483696781098842620849609375</LatitudeDegrees>
              <LongitudeDegrees>-6.1539371497929096221923828125</LongitudeDegrees>
            </Position>
            <AltitudeMeters>250.600006103515625</AltitudeMeters>
            <DistanceMeters>NAN</DistanceMeters>
          </Trackpoint>
          <Trackpoint>
            <Time>2019-10-10T12:18:02.000Z</Time>
            <Position>
              <LatitudeDegrees>37.64454544521868228912353515625</LatitudeDegrees>
              <LongitudeDegrees>-6.15373514592647552490234375</LongitudeDegrees>
            </Position>
            <AltitudeMeters>251.1999969482421875</AltitudeMeters>
            <DistanceMeters>NAN</DistanceMeters>
          </Trackpoint>
          <Trackpoint>
            <Time>2019-10-10T12:18:08.000Z</Time>
            <Position>
              <LatitudeDegrees>37.64428208582103252410888671875</LatitudeDegrees>
              <LongitudeDegrees>-6.15353775210678577423095703125</LongitudeDegrees>
            </Position>
            <AltitudeMeters>250.1999969482421875</AltitudeMeters>
            <DistanceMeters>NAN</DistanceMeters>
          </Trackpoint>
          <Trackpoint>
            <Time>2019-10-10T12:18:11.000Z</Time>
            <Position>
              <LatitudeDegrees>37.64413825236260890960693359375</LatitudeDegrees>
              <LongitudeDegrees>-6.15344035439193248748779296875</LongitudeDegrees>
            </Position>
            <AltitudeMeters>249.399993896484375</AltitudeMeters>
            <DistanceMeters>NAN</DistanceMeters>
          </Trackpoint>
          <Trackpoint>
            <Time>2019-10-10T12:18:15.000Z</Time>
            <Position>
              <LatitudeDegrees>37.64393121935427188873291015625</LatitudeDegrees>
              <LongitudeDegrees>-6.153293587267398834228515625</LongitudeDegrees>
            </Position>
            <AltitudeMeters>248.600006103515625</AltitudeMeters>
            <DistanceMeters>NAN</DistanceMeters>
          </Trackpoint>
          <Trackpoint>
            <Time>2019-10-10T12:18:16.000Z</Time>
            <Position>
              <LatitudeDegrees>37.64387573115527629852294921875</LatitudeDegrees>
              <LongitudeDegrees>-6.15325528196990489959716796875</LongitudeDegrees>
            </Position>
            <AltitudeMeters>248.1999969482421875</AltitudeMeters>
            <DistanceMeters>NAN</DistanceMeters>
          </Trackpoint>
          <Trackpoint>
            <Time>2019-10-10T12:18:21.000Z</Time>
            <Position>
              <LatitudeDegrees>37.6435873098671436309814453125</LatitudeDegrees>
              <LongitudeDegrees>-6.15305813960731029510498046875</LongitudeDegrees>
            </Position>
            <AltitudeMeters>247.600006103515625</AltitudeMeters>
            <DistanceMeters>NAN</DistanceMeters>
          </Trackpoint>
          <Trackpoint>
            <Time>2019-10-10T12:18:22.000Z</Time>
            <Position>
              <LatitudeDegrees>37.643526457250118255615234375</LatitudeDegrees>
              <LongitudeDegrees>-6.15301430225372314453125</LongitudeDegrees>
            </Position>
            <AltitudeMeters>246.8000030517578125</AltitudeMeters>
            <DistanceMeters>NAN</DistanceMeters>
          </Trackpoint>
          <Trackpoint>
            <Time>2019-10-10T12:18:23.000Z</Time>
            <Position>
              <LatitudeDegrees>37.64346451498568058013916015625</LatitudeDegrees>
              <LongitudeDegrees>-6.1529702134430408477783203125</LongitudeDegrees>
            </Position>
            <AltitudeMeters>246.8000030517578125</AltitudeMeters>
            <DistanceMeters>NAN</DistanceMeters>
          </Trackpoint>
          <Trackpoint>
            <Time>2019-10-10T12:18:26.000Z</Time>
            <Position>
              <LatitudeDegrees>37.64327089302241802215576171875</LatitudeDegrees>
              <LongitudeDegrees>-6.15283383987843990325927734375</LongitudeDegrees>
            </Position>
            <AltitudeMeters>245.399993896484375</AltitudeMeters>
            <DistanceMeters>NAN</DistanceMeters>
          </Trackpoint>
          <Trackpoint>
            <Time>2019-10-10T12:18:30.000Z</Time>
            <Position>
              <LatitudeDegrees>37.643008120357990264892578125</LatitudeDegrees>
              <LongitudeDegrees>-6.1526557244360446929931640625</LongitudeDegrees>
            </Position>
            <AltitudeMeters>244.1999969482421875</AltitudeMeters>
            <DistanceMeters>NAN</DistanceMeters>
          </Trackpoint>
          <Trackpoint>
            <Time>2019-10-10T12:18:33.000Z</Time>
            <Position>
              <LatitudeDegrees>37.64281265437602996826171875</LatitudeDegrees>
              <LongitudeDegrees>-6.15252010524272918701171875</LongitudeDegrees>
            </Position>
            <AltitudeMeters>243.1999969482421875</AltitudeMeters>
            <DistanceMeters>NAN</DistanceMeters>
          </Trackpoint>
          <Trackpoint>
            <Time>2019-10-10T12:18:38.000Z</Time>
            <Position>
              <LatitudeDegrees>37.64248274266719818115234375</LatitudeDegrees>
              <LongitudeDegrees>-6.15229588933289051055908203125</LongitudeDegrees>
            </Position>
            <AltitudeMeters>243.600006103515625</AltitudeMeters>
            <DistanceMeters>NAN</DistanceMeters>
          </Trackpoint>
          <Trackpoint>
            <Time>2019-10-10T12:18:45.000Z</Time>
            <Position>
              <LatitudeDegrees>37.6420100033283233642578125</LatitudeDegrees>
              <LongitudeDegrees>-6.15197469480335712432861328125</LongitudeDegrees>
            </Position>
            <AltitudeMeters>242.399993896484375</AltitudeMeters>
            <DistanceMeters>NAN</DistanceMeters>
          </Trackpoint>
          <Trackpoint>
            <Time>2019-10-10T12:18:46.000Z</Time>
            <Position>
              <LatitudeDegrees>37.6419407688081264495849609375</LatitudeDegrees>
              <LongitudeDegrees>-6.1519311927258968353271484375</LongitudeDegrees>
            </Position>
            <AltitudeMeters>242.1999969482421875</AltitudeMeters>
            <DistanceMeters>NAN</DistanceMeters>
          </Trackpoint>
          <Trackpoint>
            <Time>2019-10-10T12:18:48.000Z</Time>
            <Position>
              <LatitudeDegrees>37.64180690981447696685791015625</LatitudeDegrees>
              <LongitudeDegrees>-6.15183882415294647216796875</LongitudeDegrees>
            </Position>
            <AltitudeMeters>241.8000030517578125</AltitudeMeters>
            <DistanceMeters>NAN</DistanceMeters>
          </Trackpoint>
          <Trackpoint>
            <Time>2019-10-10T12:18:50.000Z</Time>
            <Position>
              <LatitudeDegrees>37.641672380268573760986328125</LatitudeDegrees>
              <LongitudeDegrees>-6.15174938924610614776611328125</LongitudeDegrees>
            </Position>
            <AltitudeMeters>241.600006103515625</AltitudeMeters>
            <DistanceMeters>NAN</DistanceMeters>
          </Trackpoint>
          <Trackpoint>
            <Time>2019-10-10T12:18:52.000Z</Time>
            <Position>
              <LatitudeDegrees>37.64153902418911457061767578125</LatitudeDegrees>
              <LongitudeDegrees>-6.15166104398667812347412109375</LongitudeDegrees>
            </Position>
            <AltitudeMeters>240.8000030517578125</AltitudeMeters>
            <DistanceMeters>NAN</DistanceMeters>
          </Trackpoint>
          <Trackpoint>
            <Time>2019-10-10T12:18:55.000Z</Time>
            <Position>
              <LatitudeDegrees>37.64134540222585201263427734375</LatitudeDegrees>
              <LongitudeDegrees>-6.151530705392360687255859375</LongitudeDegrees>
            </Position>
            <AltitudeMeters>239.8000030517578125</AltitudeMeters>
            <DistanceMeters>NAN</DistanceMeters>
          </Trackpoint>
          <Trackpoint>
            <Time>2019-10-10T12:18:59.000Z</Time>
            <Position>
              <LatitudeDegrees>37.64109511859714984893798828125</LatitudeDegrees>
              <LongitudeDegrees>-6.15135711617767810821533203125</LongitudeDegrees>
            </Position>
            <AltitudeMeters>239.8000030517578125</AltitudeMeters>
            <DistanceMeters>NAN</DistanceMeters>
          </Trackpoint>
          <Trackpoint>
            <Time>2019-10-10T12:19:07.000Z</Time>
            <Position>
              <LatitudeDegrees>37.64061701484024524688720703125</LatitudeDegrees>
              <LongitudeDegrees>-6.1510108597576618194580078125</LongitudeDegrees>
            </Position>
            <AltitudeMeters>239.600006103515625</AltitudeMeters>
            <DistanceMeters>NAN</DistanceMeters>
          </Trackpoint>
          <Trackpoint>
            <Time>2019-10-10T12:19:10.000Z</Time>
            <Position>
              <LatitudeDegrees>37.6404368877410888671875</LatitudeDegrees>
              <LongitudeDegrees>-6.1508787609636783599853515625</LongitudeDegrees>
            </Position>
            <AltitudeMeters>239.1999969482421875</AltitudeMeters>
            <DistanceMeters>NAN</DistanceMeters>
          </Trackpoint>
          <Trackpoint>
            <Time>2019-10-10T12:19:11.000Z</Time>
            <Position>
              <LatitudeDegrees>37.64037628658115863800048828125</LatitudeDegrees>
              <LongitudeDegrees>-6.15083257667720317840576171875</LongitudeDegrees>
            </Position>
            <AltitudeMeters>238.8000030517578125</AltitudeMeters>
            <DistanceMeters>NAN</DistanceMeters>
          </Trackpoint>
          <Trackpoint>
            <Time>2019-10-10T12:19:15.000Z</Time>
            <Position>
              <LatitudeDegrees>37.64013924635946750640869140625</LatitudeDegrees>
              <LongitudeDegrees>-6.1506445705890655517578125</LongitudeDegrees>
            </Position>
            <AltitudeMeters>238.600006103515625</AltitudeMeters>
            <DistanceMeters>NAN</DistanceMeters>
          </Trackpoint>
          <Trackpoint>
            <Time>2019-10-10T12:19:18.000Z</Time>
            <Position>
              <LatitudeDegrees>37.63996339403092861175537109375</LatitudeDegrees>
              <LongitudeDegrees>-6.15050199441611766815185546875</LongitudeDegrees>
            </Position>
            <AltitudeMeters>238.600006103515625</AltitudeMeters>
            <DistanceMeters>NAN</DistanceMeters>
          </Trackpoint>
          <Trackpoint>
            <Time>2019-10-10T12:19:24.000Z</Time>
            <Position>
              <LatitudeDegrees>37.63960313983261585235595703125</LatitudeDegrees>
              <LongitudeDegrees>-6.1502102203667163848876953125</LongitudeDegrees>
            </Position>
            <AltitudeMeters>237.600006103515625</AltitudeMeters>
            <DistanceMeters>NAN</DistanceMeters>
          </Trackpoint>
          <Trackpoint>
            <Time>2019-10-10T12:19:31.000Z</Time>
            <Position>
              <LatitudeDegrees>37.6391790993511676788330078125</LatitudeDegrees>
              <LongitudeDegrees>-6.14987410604953765869140625</LongitudeDegrees>
            </Position>
            <AltitudeMeters>237.600006103515625</AltitudeMeters>
            <DistanceMeters>NAN</DistanceMeters>
          </Trackpoint>
          <Trackpoint>
            <Time>2019-10-10T12:19:32.000Z</Time>
            <Position>
              <LatitudeDegrees>37.63911866582930088043212890625</LatitudeDegrees>
              <LongitudeDegrees>-6.149826161563396453857421875</LongitudeDegrees>
            </Position>
            <AltitudeMeters>237.399993896484375</AltitudeMeters>
            <DistanceMeters>NAN</DistanceMeters>
          </Trackpoint>
          <Trackpoint>
            <Time>2019-10-10T12:19:36.000Z</Time>
            <Position>
              <LatitudeDegrees>37.63887626118957996368408203125</LatitudeDegrees>
              <LongitudeDegrees>-6.14962876774370670318603515625</LongitudeDegrees>
            </Position>
            <AltitudeMeters>236.399993896484375</AltitudeMeters>
            <DistanceMeters>NAN</DistanceMeters>
          </Trackpoint>
          <Trackpoint>
            <Time>2019-10-10T12:19:41.000Z</Time>
            <Position>
              <LatitudeDegrees>37.63857149519026279449462890625</LatitudeDegrees>
              <LongitudeDegrees>-6.1493785679340362548828125</LongitudeDegrees>
            </Position>
            <AltitudeMeters>235.600006103515625</AltitudeMeters>
            <DistanceMeters>NAN</DistanceMeters>
          </Trackpoint>
          <Trackpoint>
            <Time>2019-10-10T12:19:47.000Z</Time>
            <Position>
              <LatitudeDegrees>37.63820168562233448028564453125</LatitudeDegrees>
              <LongitudeDegrees>-6.149081178009510040283203125</LongitudeDegrees>
            </Position>
            <AltitudeMeters>234.8000030517578125</AltitudeMeters>
            <DistanceMeters>NAN</DistanceMeters>
          </Trackpoint>
          <Trackpoint>
            <Time>2019-10-10T12:19:50.000Z</Time>
            <Position>
              <LatitudeDegrees>37.63801284134387969970703125</LatitudeDegrees>
              <LongitudeDegrees>-6.1489348299801349639892578125</LongitudeDegrees>
            </Position>
            <AltitudeMeters>235.399993896484375</AltitudeMeters>
            <DistanceMeters>NAN</DistanceMeters>
          </Trackpoint>
          <Trackpoint>
            <Time>2019-10-10T12:19:58.000Z</Time>
            <Position>
              <LatitudeDegrees>37.63751101680099964141845703125</LatitudeDegrees>
              <LongitudeDegrees>-6.14854381419718265533447265625</LongitudeDegrees>
            </Position>
            <AltitudeMeters>234.399993896484375</AltitudeMeters>
            <DistanceMeters>NAN</DistanceMeters>
          </Trackpoint>
          <Trackpoint>
            <Time>2019-10-10T12:20:01.000Z</Time>
            <Position>
              <LatitudeDegrees>37.6373250223696231842041015625</LatitudeDegrees>
              <LongitudeDegrees>-6.14840601570904254913330078125</LongitudeDegrees>
            </Position>
            <AltitudeMeters>234.399993896484375</AltitudeMeters>
            <DistanceMeters>NAN</DistanceMeters>
          </Trackpoint>
          <Trackpoint>
            <Time>2019-10-10T12:20:09.000Z</Time>
            <Position>
              <LatitudeDegrees>37.6368298195302486419677734375</LatitudeDegrees>
              <LongitudeDegrees>-6.1480554006993770599365234375</LongitudeDegrees>
            </Position>
            <AltitudeMeters>234.1999969482421875</AltitudeMeters>
            <DistanceMeters>NAN</DistanceMeters>
          </Trackpoint>
          <Trackpoint>
            <Time>2019-10-10T12:20:12.000Z</Time>
            <Position>
              <LatitudeDegrees>37.6366437412798404693603515625</LatitudeDegrees>
              <LongitudeDegrees>-6.1479269899427890777587890625</LongitudeDegrees>
            </Position>
            <AltitudeMeters>234</AltitudeMeters>
            <DistanceMeters>NAN</DistanceMeters>
          </Trackpoint>
          <Trackpoint>
            <Time>2019-10-10T12:20:13.000Z</Time>
            <Position>
              <LatitudeDegrees>37.63658029027283191680908203125</LatitudeDegrees>
              <LongitudeDegrees>-6.14788466133177280426025390625</LongitudeDegrees>
            </Position>
            <AltitudeMeters>233.8000030517578125</AltitudeMeters>
            <DistanceMeters>NAN</DistanceMeters>
          </Trackpoint>
          <Trackpoint>
            <Time>2019-10-10T12:20:21.000Z</Time>
            <Position>
              <LatitudeDegrees>37.63608433306217193603515625</LatitudeDegrees>
              <LongitudeDegrees>-6.1475479602813720703125</LongitudeDegrees>
            </Position>
            <AltitudeMeters>233</AltitudeMeters>
            <DistanceMeters>NAN</DistanceMeters>
          </Trackpoint>
          <Trackpoint>
            <Time>2019-10-10T12:20:23.000Z</Time>
            <Position>
              <LatitudeDegrees>37.6359627954661846160888671875</LatitudeDegrees>
              <LongitudeDegrees>-6.14746623672544956207275390625</LongitudeDegrees>
            </Position>
            <AltitudeMeters>232.8000030517578125</AltitudeMeters>
            <DistanceMeters>NAN</DistanceMeters>
          </Trackpoint>
          <Trackpoint>
            <Time>2019-10-10T12:20:24.000Z</Time>
            <Position>
              <LatitudeDegrees>37.635902948677539825439453125</LatitudeDegrees>
              <LongitudeDegrees>-6.14742457866668701171875</LongitudeDegrees>
            </Position>
            <AltitudeMeters>232.399993896484375</AltitudeMeters>
            <DistanceMeters>NAN</DistanceMeters>
          </Trackpoint>
          <Trackpoint>
            <Time>2019-10-10T12:20:32.000Z</Time>
            <Position>
              <LatitudeDegrees>37.635461725294589996337890625</LatitudeDegrees>
              <LongitudeDegrees>-6.14707077853381633758544921875</LongitudeDegrees>
            </Position>
            <AltitudeMeters>232.1999969482421875</AltitudeMeters>
            <DistanceMeters>NAN</DistanceMeters>
          </Trackpoint>
          <Trackpoint>
            <Time>2019-10-10T12:20:33.000Z</Time>
            <Position>
              <LatitudeDegrees>37.63541487045586109161376953125</LatitudeDegrees>
              <LongitudeDegrees>-6.1470237560570240020751953125</LongitudeDegrees>
            </Position>
            <AltitudeMeters>232.399993896484375</AltitudeMeters>
            <DistanceMeters>NAN</DistanceMeters>
          </Trackpoint>
          <Trackpoint>
            <Time>2019-10-10T12:20:40.000Z</Time>
            <Position>
              <LatitudeDegrees>37.63512385077774524688720703125</LatitudeDegrees>
              <LongitudeDegrees>-6.14665101282298564910888671875</LongitudeDegrees>
            </Position>
            <AltitudeMeters>232.600006103515625</AltitudeMeters>
            <DistanceMeters>NAN</DistanceMeters>
          </Trackpoint>
          <Trackpoint>
            <Time>2019-10-10T12:20:47.000Z</Time>
            <Position>
              <LatitudeDegrees>37.634919919073581695556640625</LatitudeDegrees>
              <LongitudeDegrees>-6.14625086076557636260986328125</LongitudeDegrees>
            </Position>
            <AltitudeMeters>233.600006103515625</AltitudeMeters>
            <DistanceMeters>NAN</DistanceMeters>
          </Trackpoint>
          <Trackpoint>
            <Time>2019-10-10T12:20:53.000Z</Time>
            <Position>
              <LatitudeDegrees>37.6348107866942882537841796875</LatitudeDegrees>
              <LongitudeDegrees>-6.1459411494433879852294921875</LongitudeDegrees>
            </Position>
            <AltitudeMeters>234</AltitudeMeters>
            <DistanceMeters>NAN</DistanceMeters>
          </Trackpoint>
          <Trackpoint>
            <Time>2019-10-10T12:20:58.000Z</Time>
            <Position>
              <LatitudeDegrees>37.63470442034304141998291015625</LatitudeDegrees>
              <LongitudeDegrees>-6.1456920392811298370361328125</LongitudeDegrees>
            </Position>
            <AltitudeMeters>235</AltitudeMeters>
            <DistanceMeters>NAN</DistanceMeters>
          </Trackpoint>
          <Trackpoint>
            <Time>2019-10-10T12:21:01.000Z</Time>
            <Position>
              <LatitudeDegrees>37.6346418075263500213623046875</LatitudeDegrees>
              <LongitudeDegrees>-6.145537979900836944580078125</LongitudeDegrees>
            </Position>
            <AltitudeMeters>235.1999969482421875</AltitudeMeters>
            <DistanceMeters>NAN</DistanceMeters>
          </Trackpoint>
          <Trackpoint>
            <Time>2019-10-10T12:21:03.000Z</Time>
            <Position>
              <LatitudeDegrees>37.63459729962050914764404296875</LatitudeDegrees>
              <LongitudeDegrees>-6.1454382352530956268310546875</LongitudeDegrees>
            </Position>
            <AltitudeMeters>236</AltitudeMeters>
            <DistanceMeters>NAN</DistanceMeters>
          </Trackpoint>
          <Trackpoint>
            <Time>2019-10-10T12:21:06.000Z</Time>
            <Position>
              <LatitudeDegrees>37.6345402188599109649658203125</LatitudeDegrees>
              <LongitudeDegrees>-6.1452830024063587188720703125</LongitudeDegrees>
            </Position>
            <AltitudeMeters>236.1999969482421875</AltitudeMeters>
            <DistanceMeters>NAN</DistanceMeters>
          </Trackpoint>
          <Trackpoint>
            <Time>2019-10-10T12:21:09.000Z</Time>
            <Position>
              <LatitudeDegrees>37.63446989469230175018310546875</LatitudeDegrees>
              <LongitudeDegrees>-6.14513321779668331146240234375</LongitudeDegrees>
            </Position>
            <AltitudeMeters>235.600006103515625</AltitudeMeters>
            <DistanceMeters>NAN</DistanceMeters>
          </Trackpoint>
          <Trackpoint>
            <Time>2019-10-10T12:21:10.000Z</Time>
            <Position>
              <LatitudeDegrees>37.63445195741951465606689453125</LatitudeDegrees>
              <LongitudeDegrees>-6.14507873542606830596923828125</LongitudeDegrees>
            </Position>
            <AltitudeMeters>235.8000030517578125</AltitudeMeters>
            <DistanceMeters>NAN</DistanceMeters>
          </Trackpoint>
          <Trackpoint>
            <Time>2019-10-10T12:21:15.000Z</Time>
            <Position>
              <LatitudeDegrees>37.6343340240418910980224609375</LatitudeDegrees>
              <LongitudeDegrees>-6.14481034688651561737060546875</LongitudeDegrees>
            </Position>
            <AltitudeMeters>236.1999969482421875</AltitudeMeters>
            <DistanceMeters>NAN</DistanceMeters>
          </Trackpoint>
          <Trackpoint>
            <Time>2019-10-10T12:21:16.000Z</Time>
            <Position>
              <LatitudeDegrees>37.63431013561785221099853515625</LatitudeDegrees>
              <LongitudeDegrees>-6.14475502632558345794677734375</LongitudeDegrees>
            </Position>
            <AltitudeMeters>236.399993896484375</AltitudeMeters>
            <DistanceMeters>NAN</DistanceMeters>
          </Trackpoint>
          <Trackpoint>
            <Time>2019-10-10T12:21:25.000Z</Time>
            <Position>
              <LatitudeDegrees>37.63405658304691314697265625</LatitudeDegrees>
              <LongitudeDegrees>-6.14426317624747753143310546875</LongitudeDegrees>
            </Position>
            <AltitudeMeters>236.1999969482421875</AltitudeMeters>
            <DistanceMeters>NAN</DistanceMeters>
          </Trackpoint>
          <Trackpoint>
            <Time>2019-10-10T12:21:33.000Z</Time>
            <Position>
              <LatitudeDegrees>37.63378023169934749603271484375</LatitudeDegrees>
              <LongitudeDegrees>-6.1438543908298015594482421875</LongitudeDegrees>
            </Position>
            <AltitudeMeters>236.399993896484375</AltitudeMeters>
            <DistanceMeters>NAN</DistanceMeters>
          </Trackpoint>
          <Trackpoint>
            <Time>2019-10-10T12:21:35.000Z</Time>
            <Position>
              <LatitudeDegrees>37.633700855076313018798828125</LatitudeDegrees>
              <LongitudeDegrees>-6.14375255070626735687255859375</LongitudeDegrees>
            </Position>
            <AltitudeMeters>235.600006103515625</AltitudeMeters>
            <DistanceMeters>NAN</DistanceMeters>
          </Trackpoint>
          <Trackpoint>
            <Time>2019-10-10T12:21:40.000Z</Time>
            <Position>
              <LatitudeDegrees>37.63349357061088085174560546875</LatitudeDegrees>
              <LongitudeDegrees>-6.14350310526788234710693359375</LongitudeDegrees>
            </Position>
            <AltitudeMeters>235.399993896484375</AltitudeMeters>
            <DistanceMeters>NAN</DistanceMeters>
          </Trackpoint>
          <Trackpoint>
            <Time>2019-10-10T12:21:42.000Z</Time>
            <Position>
              <LatitudeDegrees>37.6334026269614696502685546875</LatitudeDegrees>
              <LongitudeDegrees>-6.1434026062488555908203125</LongitudeDegrees>
            </Position>
            <AltitudeMeters>234.8000030517578125</AltitudeMeters>
            <DistanceMeters>NAN</DistanceMeters>
          </Trackpoint>
          <Trackpoint>
            <Time>2019-10-10T12:21:47.000Z</Time>
            <Position>
              <LatitudeDegrees>37.633142955601215362548828125</LatitudeDegrees>
              <LongitudeDegrees>-6.1431647278368473052978515625</LongitudeDegrees>
            </Position>
            <AltitudeMeters>233.8000030517578125</AltitudeMeters>
            <DistanceMeters>NAN</DistanceMeters>
          </Trackpoint>
          <Trackpoint>
            <Time>2019-10-10T12:21:49.000Z</Time>
            <Position>
              <LatitudeDegrees>37.63303021900355815887451171875</LatitudeDegrees>
              <LongitudeDegrees>-6.1430738680064678192138671875</LongitudeDegrees>
            </Position>
            <AltitudeMeters>233.8000030517578125</AltitudeMeters>
            <DistanceMeters>NAN</DistanceMeters>
          </Trackpoint>
          <Trackpoint>
            <Time>2019-10-10T12:21:52.000Z</Time>
            <Position>
              <LatitudeDegrees>37.6328556239604949951171875</LatitudeDegrees>
              <LongitudeDegrees>-6.14294537343084812164306640625</LongitudeDegrees>
            </Position>
            <AltitudeMeters>232.399993896484375</AltitudeMeters>
            <DistanceMeters>NAN</DistanceMeters>
          </Trackpoint>
          <Trackpoint>
            <Time>2019-10-10T12:21:56.000Z</Time>
            <Position>
              <LatitudeDegrees>37.6326083578169345855712890625</LatitudeDegrees>
              <LongitudeDegrees>-6.1427845247089862823486328125</LongitudeDegrees>
            </Position>
            <AltitudeMeters>232.399993896484375</AltitudeMeters>
            <DistanceMeters>NAN</DistanceMeters>
          </Trackpoint>
          <Trackpoint>
            <Time>2019-10-10T12:21:57.000Z</Time>
            <Position>
              <LatitudeDegrees>37.63254540972411632537841796875</LatitudeDegrees>
              <LongitudeDegrees>-6.1427429504692554473876953125</LongitudeDegrees>
            </Position>
            <AltitudeMeters>231.8000030517578125</AltitudeMeters>
            <DistanceMeters>NAN</DistanceMeters>
          </Trackpoint>
          <Trackpoint>
            <Time>2019-10-10T12:22:01.000Z</Time>
            <Position>
              <LatitudeDegrees>37.63228473253548145294189453125</LatitudeDegrees>
              <LongitudeDegrees>-6.1425766535103321075439453125</LongitudeDegrees>
            </Position>
            <AltitudeMeters>231.1999969482421875</AltitudeMeters>
            <DistanceMeters>NAN</DistanceMeters>
          </Trackpoint>
          <Trackpoint>
            <Time>2019-10-10T12:22:04.000Z</Time>
            <Position>
              <LatitudeDegrees>37.632083483040332794189453125</LatitudeDegrees>
              <LongitudeDegrees>-6.142447404563426971435546875</LongitudeDegrees>
            </Position>
            <AltitudeMeters>230.600006103515625</AltitudeMeters>
            <DistanceMeters>NAN</DistanceMeters>
          </Trackpoint>
          <Trackpoint>
            <Time>2019-10-10T12:22:06.000Z</Time>
            <Position>
              <LatitudeDegrees>37.63193151913583278656005859375</LatitudeDegrees>
              <LongitudeDegrees>-6.14235092885792255401611328125</LongitudeDegrees>
            </Position>
            <AltitudeMeters>229.399993896484375</AltitudeMeters>
            <DistanceMeters>NAN</DistanceMeters>
          </Trackpoint>
          <Trackpoint>
            <Time>2019-10-10T12:22:12.000Z</Time>
            <Position>
              <LatitudeDegrees>37.631528936326503753662109375</LatitudeDegrees>
              <LongitudeDegrees>-6.14215864799916744232177734375</LongitudeDegrees>
            </Position>
            <AltitudeMeters>228</AltitudeMeters>
            <DistanceMeters>NAN</DistanceMeters>
          </Trackpoint>
          <Trackpoint>
            <Time>2019-10-10T12:22:13.000Z</Time>
            <Position>
              <LatitudeDegrees>37.63145492412149906158447265625</LatitudeDegrees>
              <LongitudeDegrees>-6.14213920198380947113037109375</LongitudeDegrees>
            </Position>
            <AltitudeMeters>227.1999969482421875</AltitudeMeters>
            <DistanceMeters>NAN</DistanceMeters>
          </Trackpoint>
          <Trackpoint>
            <Time>2019-10-10T12:22:15.000Z</Time>
            <Position>
              <LatitudeDegrees>37.631309330463409423828125</LatitudeDegrees>
              <LongitudeDegrees>-6.14210366271436214447021484375</LongitudeDegrees>
            </Position>
            <AltitudeMeters>227.399993896484375</AltitudeMeters>
            <DistanceMeters>NAN</DistanceMeters>
          </Trackpoint>
          <Trackpoint>
            <Time>2019-10-10T12:22:18.000Z</Time>
            <Position>
              <LatitudeDegrees>37.6310853660106658935546875</LatitudeDegrees>
              <LongitudeDegrees>-6.14210785366594791412353515625</LongitudeDegrees>
            </Position>
            <AltitudeMeters>226.8000030517578125</AltitudeMeters>
            <DistanceMeters>NAN</DistanceMeters>
          </Trackpoint>
          <Trackpoint>
            <Time>2019-10-10T12:22:20.000Z</Time>
            <Position>
              <LatitudeDegrees>37.63096877373754978179931640625</LatitudeDegrees>
              <LongitudeDegrees>-6.142207346856594085693359375</LongitudeDegrees>
            </Position>
            <AltitudeMeters>228</AltitudeMeters>
            <DistanceMeters>NAN</DistanceMeters>
          </Trackpoint>
          <Trackpoint>
            <Time>2019-10-10T12:22:21.000Z</Time>
            <Position>
              <LatitudeDegrees>37.6309185661375522613525390625</LatitudeDegrees>
              <LongitudeDegrees>-6.1422681994736194610595703125</LongitudeDegrees>
            </Position>
            <AltitudeMeters>228.399993896484375</AltitudeMeters>
            <DistanceMeters>NAN</DistanceMeters>
          </Trackpoint>
          <Trackpoint>
            <Time>2019-10-10T12:22:22.000Z</Time>
            <Position>
              <LatitudeDegrees>37.63086852617561817169189453125</LatitudeDegrees>
              <LongitudeDegrees>-6.14232561551034450531005859375</LongitudeDegrees>
            </Position>
            <AltitudeMeters>228.600006103515625</AltitudeMeters>
            <DistanceMeters>NAN</DistanceMeters>
          </Trackpoint>
          <Trackpoint>
            <Time>2019-10-10T12:22:23.000Z</Time>
            <Position>
              <LatitudeDegrees>37.63081253506243228912353515625</LatitudeDegrees>
              <LongitudeDegrees>-6.14237129688262939453125</LongitudeDegrees>
            </Position>
            <AltitudeMeters>228.600006103515625</AltitudeMeters>
            <DistanceMeters>NAN</DistanceMeters>
          </Trackpoint>
          <Trackpoint>
            <Time>2019-10-10T12:22:25.000Z</Time>
            <Position>
              <LatitudeDegrees>37.63068244792520999908447265625</LatitudeDegrees>
              <LongitudeDegrees>-6.142400801181793212890625</LongitudeDegrees>
            </Position>
            <AltitudeMeters>229</AltitudeMeters>
            <DistanceMeters>NAN</DistanceMeters>
          </Trackpoint>
          <Trackpoint>
            <Time>2019-10-10T12:22:28.000Z</Time>
            <Position>
              <LatitudeDegrees>37.63051112182438373565673828125</LatitudeDegrees>
              <LongitudeDegrees>-6.1422863043844699859619140625</LongitudeDegrees>
            </Position>
            <AltitudeMeters>227.600006103515625</AltitudeMeters>
            <DistanceMeters>NAN</DistanceMeters>
          </Trackpoint>
          <Trackpoint>
            <Time>2019-10-10T12:22:31.000Z</Time>
            <Position>
              <LatitudeDegrees>37.630447335541248321533203125</LatitudeDegrees>
              <LongitudeDegrees>-6.14205546677112579345703125</LongitudeDegrees>
            </Position>
            <AltitudeMeters>227.399993896484375</AltitudeMeters>
            <DistanceMeters>NAN</DistanceMeters>
          </Trackpoint>
          <Trackpoint>
            <Time>2019-10-10T12:22:36.000Z</Time>
            <Position>
              <LatitudeDegrees>37.63036930002272129058837890625</LatitudeDegrees>
              <LongitudeDegrees>-6.1416787840425968170166015625</LongitudeDegrees>
            </Position>
            <AltitudeMeters>227.399993896484375</AltitudeMeters>
            <DistanceMeters>NAN</DistanceMeters>
          </Trackpoint>
          <Trackpoint>
            <Time>2019-10-10T12:22:39.000Z</Time>
            <Position>
              <LatitudeDegrees>37.630247175693511962890625</LatitudeDegrees>
              <LongitudeDegrees>-6.14150385372340679168701171875</LongitudeDegrees>
            </Position>
            <AltitudeMeters>227.8000030517578125</AltitudeMeters>
            <DistanceMeters>NAN</DistanceMeters>
          </Trackpoint>
          <Trackpoint>
            <Time>2019-10-10T12:22:40.000Z</Time>
            <Position>
              <LatitudeDegrees>37.63021004386246204376220703125</LatitudeDegrees>
              <LongitudeDegrees>-6.1414477787911891937255859375</LongitudeDegrees>
            </Position>
            <AltitudeMeters>227.8000030517578125</AltitudeMeters>
            <DistanceMeters>NAN</DistanceMeters>
          </Trackpoint>
          <Trackpoint>
            <Time>2019-10-10T12:22:45.000Z</Time>
            <Position>
              <LatitudeDegrees>37.63004056178033351898193359375</LatitudeDegrees>
              <LongitudeDegrees>-6.14118777215480804443359375</LongitudeDegrees>
            </Position>
            <AltitudeMeters>228.8000030517578125</AltitudeMeters>
            <DistanceMeters>NAN</DistanceMeters>
          </Trackpoint>
          <Trackpoint>
            <Time>2019-10-10T12:22:47.000Z</Time>
            <Position>
              <LatitudeDegrees>37.6299784518778324127197265625</LatitudeDegrees>
              <LongitudeDegrees>-6.14109632559120655059814453125</LongitudeDegrees>
            </Position>
            <AltitudeMeters>229.399993896484375</AltitudeMeters>
            <DistanceMeters>NAN</DistanceMeters>
          </Trackpoint>
          <Trackpoint>
            <Time>2019-10-10T12:22:51.000Z</Time>
            <Position>
              <LatitudeDegrees>37.62986202724277973175048828125</LatitudeDegrees>
              <LongitudeDegrees>-6.14093053154647350311279296875</LongitudeDegrees>
            </Position>
            <AltitudeMeters>230</AltitudeMeters>
            <DistanceMeters>NAN</DistanceMeters>
          </Trackpoint>
          <Trackpoint>
            <Time>2019-10-10T12:22:53.000Z</Time>
            <Position>
              <LatitudeDegrees>37.6298031024634838104248046875</LatitudeDegrees>
              <LongitudeDegrees>-6.1408493109047412872314453125</LongitudeDegrees>
            </Position>
            <AltitudeMeters>230.1999969482421875</AltitudeMeters>
            <DistanceMeters>NAN</DistanceMeters>
          </Trackpoint>
          <Trackpoint>
            <Time>2019-10-10T12:22:59.000Z</Time>
            <Position>
              <LatitudeDegrees>37.62964057736098766326904296875</LatitudeDegrees>
              <LongitudeDegrees>-6.14059860818088054656982421875</LongitudeDegrees>
            </Position>
            <AltitudeMeters>230.8000030517578125</AltitudeMeters>
            <DistanceMeters>NAN</DistanceMeters>
          </Trackpoint>
          <Trackpoint>
            <Time>2019-10-10T12:23:01.000Z</Time>
            <Position>
              <LatitudeDegrees>37.629587352275848388671875</LatitudeDegrees>
              <LongitudeDegrees>-6.1405126936733722686767578125</LongitudeDegrees>
            </Position>
            <AltitudeMeters>231.1999969482421875</AltitudeMeters>
            <DistanceMeters>NAN</DistanceMeters>
          </Trackpoint>
          <Trackpoint>
            <Time>2019-10-10T12:23:05.000Z</Time>
            <Position>
              <LatitudeDegrees>37.62947830371558666229248046875</LatitudeDegrees>
              <LongitudeDegrees>-6.1403403617441654205322265625</LongitudeDegrees>
            </Position>
            <AltitudeMeters>231.1999969482421875</AltitudeMeters>
            <DistanceMeters>NAN</DistanceMeters>
          </Trackpoint>
          <Trackpoint>
            <Time>2019-10-10T12:23:09.000Z</Time>
            <Position>
              <LatitudeDegrees>37.62936808168888092041015625</LatitudeDegrees>
              <LongitudeDegrees>-6.140161491930484771728515625</LongitudeDegrees>
            </Position>
            <AltitudeMeters>231.600006103515625</AltitudeMeters>
            <DistanceMeters>NAN</DistanceMeters>
          </Trackpoint>
          <Trackpoint>
            <Time>2019-10-10T12:23:10.000Z</Time>
            <Position>
              <LatitudeDegrees>37.6293392479419708251953125</LatitudeDegrees>
              <LongitudeDegrees>-6.14011220633983612060546875</LongitudeDegrees>
            </Position>
            <AltitudeMeters>231.600006103515625</AltitudeMeters>
            <DistanceMeters>NAN</DistanceMeters>
          </Trackpoint>
          <Trackpoint>
            <Time>2019-10-10T12:23:15.000Z</Time>
            <Position>
              <LatitudeDegrees>37.6292051374912261962890625</LatitudeDegrees>
              <LongitudeDegrees>-6.13986234180629253387451171875</LongitudeDegrees>
            </Position>
            <AltitudeMeters>231.399993896484375</AltitudeMeters>
            <DistanceMeters>NAN</DistanceMeters>
          </Trackpoint>
          <Trackpoint>
            <Time>2019-10-10T12:23:19.000Z</Time>
            <Position>
              <LatitudeDegrees>37.62910665012896060943603515625</LatitudeDegrees>
              <LongitudeDegrees>-6.13965698517858982086181640625</LongitudeDegrees>
            </Position>
            <AltitudeMeters>230.8000030517578125</AltitudeMeters>
            <DistanceMeters>NAN</DistanceMeters>
          </Trackpoint>
          <Trackpoint>
            <Time>2019-10-10T12:23:28.000Z</Time>
            <Position>
              <LatitudeDegrees>37.62891101650893688201904296875</LatitudeDegrees>
              <LongitudeDegrees>-6.13917636685073375701904296875</LongitudeDegrees>
            </Position>
            <AltitudeMeters>230.8000030517578125</AltitudeMeters>
            <DistanceMeters>NAN</DistanceMeters>
          </Trackpoint>
          <Trackpoint>
            <Time>2019-10-10T12:23:36.000Z</Time>
            <Position>
              <LatitudeDegrees>37.62874622829258441925048828125</LatitudeDegrees>
              <LongitudeDegrees>-6.13872726447880268096923828125</LongitudeDegrees>
            </Position>
            <AltitudeMeters>230.600006103515625</AltitudeMeters>
            <DistanceMeters>NAN</DistanceMeters>
          </Trackpoint>
          <Trackpoint>
            <Time>2019-10-10T12:23:37.000Z</Time>
            <Position>
              <LatitudeDegrees>37.6287268660962581634521484375</LatitudeDegrees>
              <LongitudeDegrees>-6.13866917788982391357421875</LongitudeDegrees>
            </Position>
            <AltitudeMeters>230.600006103515625</AltitudeMeters>
            <DistanceMeters>NAN</DistanceMeters>
          </Trackpoint>
          <Trackpoint>
            <Time>2019-10-10T12:23:40.000Z</Time>
            <Position>
              <LatitudeDegrees>37.62865939177572727203369140625</LatitudeDegrees>
              <LongitudeDegrees>-6.1384996958076953887939453125</LongitudeDegrees>
            </Position>
            <AltitudeMeters>230</AltitudeMeters>
            <DistanceMeters>NAN</DistanceMeters>
          </Trackpoint>
          <Trackpoint>
            <Time>2019-10-10T12:23:44.000Z</Time>
            <Position>
              <LatitudeDegrees>37.62857808731496334075927734375</LatitudeDegrees>
              <LongitudeDegrees>-6.13827631808817386627197265625</LongitudeDegrees>
            </Position>
            <AltitudeMeters>230.600006103515625</AltitudeMeters>
            <DistanceMeters>NAN</DistanceMeters>
          </Trackpoint>
          <Trackpoint>
            <Time>2019-10-10T12:23:45.000Z</Time>
            <Position>
              <LatitudeDegrees>37.6285548694431781768798828125</LatitudeDegrees>
              <LongitudeDegrees>-6.13821923732757568359375</LongitudeDegrees>
            </Position>
            <AltitudeMeters>230.600006103515625</AltitudeMeters>
            <DistanceMeters>NAN</DistanceMeters>
          </Trackpoint>
          <Trackpoint>
            <Time>2019-10-10T12:23:51.000Z</Time>
            <Position>
              <LatitudeDegrees>37.62843190692365169525146484375</LatitudeDegrees>
              <LongitudeDegrees>-6.13787817768752574920654296875</LongitudeDegrees>
            </Position>
            <AltitudeMeters>230.1999969482421875</AltitudeMeters>
            <DistanceMeters>NAN</DistanceMeters>
          </Trackpoint>
          <Trackpoint>
            <Time>2019-10-10T12:23:55.000Z</Time>
            <Position>
              <LatitudeDegrees>37.628347165882587432861328125</LatitudeDegrees>
              <LongitudeDegrees>-6.13765169866383075714111328125</LongitudeDegrees>
            </Position>
            <AltitudeMeters>229.600006103515625</AltitudeMeters>
            <DistanceMeters>NAN</DistanceMeters>
          </Trackpoint>
          <Trackpoint>
            <Time>2019-10-10T12:23:58.000Z</Time>
            <Position>
              <LatitudeDegrees>37.62828840874135494232177734375</LatitudeDegrees>
              <LongitudeDegrees>-6.1374829709529876708984375</LongitudeDegrees>
            </Position>
            <AltitudeMeters>229</AltitudeMeters>
            <DistanceMeters>NAN</DistanceMeters>
          </Trackpoint>
          <Trackpoint>
            <Time>2019-10-10T12:24:02.000Z</Time>
            <Position>
              <LatitudeDegrees>37.6282060146331787109375</LatitudeDegrees>
              <LongitudeDegrees>-6.1372549831867218017578125</LongitudeDegrees>
            </Position>
            <AltitudeMeters>229.399993896484375</AltitudeMeters>
            <DistanceMeters>NAN</DistanceMeters>
          </Trackpoint>
          <Trackpoint>
            <Time>2019-10-10T12:24:06.000Z</Time>
            <Position>
              <LatitudeDegrees>37.628118507564067840576171875</LatitudeDegrees>
              <LongitudeDegrees>-6.13702003844082355499267578125</LongitudeDegrees>
            </Position>
            <AltitudeMeters>230</AltitudeMeters>
            <DistanceMeters>NAN</DistanceMeters>
          </Trackpoint>
          <Trackpoint>
            <Time>2019-10-10T12:24:13.000Z</Time>
            <Position>
              <LatitudeDegrees>37.6279686391353607177734375</LatitudeDegrees>
              <LongitudeDegrees>-6.13661938346922397613525390625</LongitudeDegrees>
            </Position>
            <AltitudeMeters>229.399993896484375</AltitudeMeters>
            <DistanceMeters>NAN</DistanceMeters>
          </Trackpoint>
          <Trackpoint>
            <Time>2019-10-10T12:24:21.000Z</Time>
            <Position>
              <LatitudeDegrees>37.62780142016708850860595703125</LatitudeDegrees>
              <LongitudeDegrees>-6.13616391085088253021240234375</LongitudeDegrees>
            </Position>
            <AltitudeMeters>229.8000030517578125</AltitudeMeters>
            <DistanceMeters>NAN</DistanceMeters>
          </Trackpoint>
          <Trackpoint>
            <Time>2019-10-10T12:24:32.000Z</Time>
            <Position>
              <LatitudeDegrees>37.6275681518018245697021484375</LatitudeDegrees>
              <LongitudeDegrees>-6.13554197363555431365966796875</LongitudeDegrees>
            </Position>
            <AltitudeMeters>230.8000030517578125</AltitudeMeters>
            <DistanceMeters>NAN</DistanceMeters>
          </Trackpoint>
          <Trackpoint>
            <Time>2019-10-10T12:24:41.000Z</Time>
            <Position>
              <LatitudeDegrees>37.6273783855140209197998046875</LatitudeDegrees>
              <LongitudeDegrees>-6.13504056818783283233642578125</LongitudeDegrees>
            </Position>
            <AltitudeMeters>230.399993896484375</AltitudeMeters>
            <DistanceMeters>NAN</DistanceMeters>
          </Trackpoint>
          <Trackpoint>
            <Time>2019-10-10T12:24:48.000Z</Time>
            <Position>
              <LatitudeDegrees>37.62720613740384578704833984375</LatitudeDegrees>
              <LongitudeDegrees>-6.13458241336047649383544921875</LongitudeDegrees>
            </Position>
            <AltitudeMeters>228.8000030517578125</AltitudeMeters>
            <DistanceMeters>NAN</DistanceMeters>
          </Trackpoint>
          <Trackpoint>
            <Time>2019-10-10T12:24:51.000Z</Time>
            <Position>
              <LatitudeDegrees>37.62712776660919189453125</LatitudeDegrees>
              <LongitudeDegrees>-6.134353838860988616943359375</LongitudeDegrees>
            </Position>
            <AltitudeMeters>227.8000030517578125</AltitudeMeters>
            <DistanceMeters>NAN</DistanceMeters>
          </Trackpoint>
          <Trackpoint>
            <Time>2019-10-10T12:24:53.000Z</Time>
            <Position>
              <LatitudeDegrees>37.6270712725818157196044921875</LatitudeDegrees>
              <LongitudeDegrees>-6.1341930739581584930419921875</LongitudeDegrees>
            </Position>
            <AltitudeMeters>226.399993896484375</AltitudeMeters>
            <DistanceMeters>NAN</DistanceMeters>
          </Trackpoint>
          <Trackpoint>
            <Time>2019-10-10T12:24:55.000Z</Time>
            <Position>
              <LatitudeDegrees>37.62700580991804599761962890625</LatitudeDegrees>
              <LongitudeDegrees>-6.134029962122440338134765625</LongitudeDegrees>
            </Position>
            <AltitudeMeters>225.8000030517578125</AltitudeMeters>
            <DistanceMeters>NAN</DistanceMeters>
          </Trackpoint>
          <Trackpoint>
            <Time>2019-10-10T12:24:56.000Z</Time>
            <Position>
              <LatitudeDegrees>37.626974545419216156005859375</LatitudeDegrees>
              <LongitudeDegrees>-6.13394505344331264495849609375</LongitudeDegrees>
            </Position>
            <AltitudeMeters>225</AltitudeMeters>
            <DistanceMeters>NAN</DistanceMeters>
          </Trackpoint>
          <Trackpoint>
            <Time>2019-10-10T12:24:59.000Z</Time>
            <Position>
              <LatitudeDegrees>37.62686382047832012176513671875</LatitudeDegrees>
              <LongitudeDegrees>-6.13369493745267391204833984375</LongitudeDegrees>
            </Position>
            <AltitudeMeters>224</AltitudeMeters>
            <DistanceMeters>NAN</DistanceMeters>
          </Trackpoint>
          <Trackpoint>
            <Time>2019-10-10T12:25:01.000Z</Time>
            <Position>
              <LatitudeDegrees>37.6267779059708118438720703125</LatitudeDegrees>
              <LongitudeDegrees>-6.1335240304470062255859375</LongitudeDegrees>
            </Position>
            <AltitudeMeters>223</AltitudeMeters>
            <DistanceMeters>NAN</DistanceMeters>
          </Trackpoint>
          <Trackpoint>
            <Time>2019-10-10T12:25:02.000Z</Time>
            <Position>
              <LatitudeDegrees>37.6267326436936855316162109375</LatitudeDegrees>
              <LongitudeDegrees>-6.133435852825641632080078125</LongitudeDegrees>
            </Position>
            <AltitudeMeters>222.1999969482421875</AltitudeMeters>
            <DistanceMeters>NAN</DistanceMeters>
          </Trackpoint>
          <Trackpoint>
            <Time>2019-10-10T12:25:05.000Z</Time>
            <Position>
              <LatitudeDegrees>37.62657782994210720062255859375</LatitudeDegrees>
              <LongitudeDegrees>-6.13316972739994525909423828125</LongitudeDegrees>
            </Position>
            <AltitudeMeters>221.1999969482421875</AltitudeMeters>
            <DistanceMeters>NAN</DistanceMeters>
          </Trackpoint>
          <Trackpoint>
            <Time>2019-10-10T12:25:07.000Z</Time>
            <Position>
              <LatitudeDegrees>37.62646132148802280426025390625</LatitudeDegrees>
              <LongitudeDegrees>-6.132989265024662017822265625</LongitudeDegrees>
            </Position>
            <AltitudeMeters>219.399993896484375</AltitudeMeters>
            <DistanceMeters>NAN</DistanceMeters>
          </Trackpoint>
          <Trackpoint>
            <Time>2019-10-10T12:25:09.000Z</Time>
            <Position>
              <LatitudeDegrees>37.6263360120356082916259765625</LatitudeDegrees>
              <LongitudeDegrees>-6.1328130774199962615966796875</LongitudeDegrees>
            </Position>
            <AltitudeMeters>218</AltitudeMeters>
            <DistanceMeters>NAN</DistanceMeters>
          </Trackpoint>
          <Trackpoint>
            <Time>2019-10-10T12:25:11.000Z</Time>
            <Position>
              <LatitudeDegrees>37.6262062601745128631591796875</LatitudeDegrees>
              <LongitudeDegrees>-6.132631860673427581787109375</LongitudeDegrees>
            </Position>
            <AltitudeMeters>217.1999969482421875</AltitudeMeters>
            <DistanceMeters>NAN</DistanceMeters>
          </Trackpoint>
          <Trackpoint>
            <Time>2019-10-10T12:25:12.000Z</Time>
            <Position>
              <LatitudeDegrees>37.626133002340793609619140625</LatitudeDegrees>
              <LongitudeDegrees>-6.132546700537204742431640625</LongitudeDegrees>
            </Position>
            <AltitudeMeters>216.600006103515625</AltitudeMeters>
            <DistanceMeters>NAN</DistanceMeters>
          </Trackpoint>
          <Trackpoint>
            <Time>2019-10-10T12:25:13.000Z</Time>
            <Position>
              <LatitudeDegrees>37.62605689465999603271484375</LatitudeDegrees>
              <LongitudeDegrees>-6.13246296532452106475830078125</LongitudeDegrees>
            </Position>
            <AltitudeMeters>215.399993896484375</AltitudeMeters>
            <DistanceMeters>NAN</DistanceMeters>
          </Trackpoint>
          <Trackpoint>
            <Time>2019-10-10T12:25:15.000Z</Time>
            <Position>
              <LatitudeDegrees>37.62589135207235813140869140625</LatitudeDegrees>
              <LongitudeDegrees>-6.1323021166026592254638671875</LongitudeDegrees>
            </Position>
            <AltitudeMeters>214</AltitudeMeters>
            <DistanceMeters>NAN</DistanceMeters>
          </Trackpoint>
          <Trackpoint>
            <Time>2019-10-10T12:25:17.000Z</Time>
            <Position>
              <LatitudeDegrees>37.6257214508950710296630859375</LatitudeDegrees>
              <LongitudeDegrees>-6.13213825039565563201904296875</LongitudeDegrees>
            </Position>
            <AltitudeMeters>212.1999969482421875</AltitudeMeters>
            <DistanceMeters>NAN</DistanceMeters>
          </Trackpoint>
          <Trackpoint>
            <Time>2019-10-10T12:25:19.000Z</Time>
            <Position>
              <LatitudeDegrees>37.62554719112813472747802734375</LatitudeDegrees>
              <LongitudeDegrees>-6.13196206279098987579345703125</LongitudeDegrees>
            </Position>
            <AltitudeMeters>210.8000030517578125</AltitudeMeters>
            <DistanceMeters>NAN</DistanceMeters>
          </Trackpoint>
          <Trackpoint>
            <Time>2019-10-10T12:25:21.000Z</Time>
            <Position>
              <LatitudeDegrees>37.6253801397979259490966796875</LatitudeDegrees>
              <LongitudeDegrees>-6.1317978613078594207763671875</LongitudeDegrees>
            </Position>
            <AltitudeMeters>209.1999969482421875</AltitudeMeters>
            <DistanceMeters>NAN</DistanceMeters>
          </Trackpoint>
          <Trackpoint>
            <Time>2019-10-10T12:25:22.000Z</Time>
            <Position>
              <LatitudeDegrees>37.62529456056654453277587890625</LatitudeDegrees>
              <LongitudeDegrees>-6.13171261735260486602783203125</LongitudeDegrees>
            </Position>
            <AltitudeMeters>207.600006103515625</AltitudeMeters>
            <DistanceMeters>NAN</DistanceMeters>
          </Trackpoint>
          <Trackpoint>
            <Time>2019-10-10T12:25:24.000Z</Time>
            <Position>
              <LatitudeDegrees>37.62512591667473316192626953125</LatitudeDegrees>
              <LongitudeDegrees>-6.13153827376663684844970703125</LongitudeDegrees>
            </Position>
            <AltitudeMeters>206.600006103515625</AltitudeMeters>
            <DistanceMeters>NAN</DistanceMeters>
          </Trackpoint>
          <Trackpoint>
            <Time>2019-10-10T12:25:28.000Z</Time>
            <Position>
              <LatitudeDegrees>37.62480522505939006805419921875</LatitudeDegrees>
              <LongitudeDegrees>-6.1311824619770050048828125</LongitudeDegrees>
            </Position>
            <AltitudeMeters>205.399993896484375</AltitudeMeters>
            <DistanceMeters>NAN</DistanceMeters>
          </Trackpoint>
          <Trackpoint>
            <Time>2019-10-10T12:25:30.000Z</Time>
            <Position>
              <LatitudeDegrees>37.62466021813452243804931640625</LatitudeDegrees>
              <LongitudeDegrees>-6.13100652582943439483642578125</LongitudeDegrees>
            </Position>
            <AltitudeMeters>205.399993896484375</AltitudeMeters>
            <DistanceMeters>NAN</DistanceMeters>
          </Trackpoint>
          <Trackpoint>
            <Time>2019-10-10T12:25:35.000Z</Time>
            <Position>
              <LatitudeDegrees>37.624351345002651214599609375</LatitudeDegrees>
              <LongitudeDegrees>-6.13057251088321208953857421875</LongitudeDegrees>
            </Position>
            <AltitudeMeters>205.600006103515625</AltitudeMeters>
            <DistanceMeters>NAN</DistanceMeters>
          </Trackpoint>
          <Trackpoint>
            <Time>2019-10-10T12:25:39.000Z</Time>
            <Position>
              <LatitudeDegrees>37.624126374721527099609375</LatitudeDegrees>
              <LongitudeDegrees>-6.13022969104349613189697265625</LongitudeDegrees>
            </Position>
            <AltitudeMeters>204.399993896484375</AltitudeMeters>
            <DistanceMeters>NAN</DistanceMeters>
          </Trackpoint>
          <Trackpoint>
            <Time>2019-10-10T12:25:40.000Z</Time>
            <Position>
              <LatitudeDegrees>37.62407633475959300994873046875</LatitudeDegrees>
              <LongitudeDegrees>-6.13014101050794124603271484375</LongitudeDegrees>
            </Position>
            <AltitudeMeters>204.399993896484375</AltitudeMeters>
            <DistanceMeters>NAN</DistanceMeters>
          </Trackpoint>
          <Trackpoint>
            <Time>2019-10-10T12:25:42.000Z</Time>
            <Position>
              <LatitudeDegrees>37.6239766739308834075927734375</LatitudeDegrees>
              <LongitudeDegrees>-6.12996716983616352081298828125</LongitudeDegrees>
            </Position>
            <AltitudeMeters>204.1999969482421875</AltitudeMeters>
            <DistanceMeters>NAN</DistanceMeters>
          </Trackpoint>
          <Trackpoint>
            <Time>2019-10-10T12:25:43.000Z</Time>
            <Position>
              <LatitudeDegrees>37.62392378412187099456787109375</LatitudeDegrees>
              <LongitudeDegrees>-6.12987195141613483428955078125</LongitudeDegrees>
            </Position>
            <AltitudeMeters>204.1999969482421875</AltitudeMeters>
            <DistanceMeters>NAN</DistanceMeters>
          </Trackpoint>
          <Trackpoint>
            <Time>2019-10-10T12:25:45.000Z</Time>
            <Position>
              <LatitudeDegrees>37.62383309192955493927001953125</LatitudeDegrees>
              <LongitudeDegrees>-6.12970464862883090972900390625</LongitudeDegrees>
            </Position>
            <AltitudeMeters>203.1999969482421875</AltitudeMeters>
            <DistanceMeters>NAN</DistanceMeters>
          </Trackpoint>
          <Trackpoint>
            <Time>2019-10-10T12:25:47.000Z</Time>
            <Position>
              <LatitudeDegrees>37.6237429864704608917236328125</LatitudeDegrees>
              <LongitudeDegrees>-6.1295347474515438079833984375</LongitudeDegrees>
            </Position>
            <AltitudeMeters>202.1999969482421875</AltitudeMeters>
            <DistanceMeters>NAN</DistanceMeters>
          </Trackpoint>
          <Trackpoint>
            <Time>2019-10-10T12:25:49.000Z</Time>
            <Position>
              <LatitudeDegrees>37.62365371920168399810791015625</LatitudeDegrees>
              <LongitudeDegrees>-6.12936149351298809051513671875</LongitudeDegrees>
            </Position>
            <AltitudeMeters>202.1999969482421875</AltitudeMeters>
            <DistanceMeters>NAN</DistanceMeters>
          </Trackpoint>
          <Trackpoint>
            <Time>2019-10-10T12:25:51.000Z</Time>
            <Position>
              <LatitudeDegrees>37.6235642842948436737060546875</LatitudeDegrees>
              <LongitudeDegrees>-6.12918849103152751922607421875</LongitudeDegrees>
            </Position>
            <AltitudeMeters>201.600006103515625</AltitudeMeters>
            <DistanceMeters>NAN</DistanceMeters>
          </Trackpoint>
          <Trackpoint>
            <Time>2019-10-10T12:25:52.000Z</Time>
            <Position>
              <LatitudeDegrees>37.62352078221738338470458984375</LatitudeDegrees>
              <LongitudeDegrees>-6.1290995590388774871826171875</LongitudeDegrees>
            </Position>
            <AltitudeMeters>200.600006103515625</AltitudeMeters>
            <DistanceMeters>NAN</DistanceMeters>
          </Trackpoint>
          <Trackpoint>
            <Time>2019-10-10T12:25:55.000Z</Time>
            <Position>
              <LatitudeDegrees>37.62338750995695590972900390625</LatitudeDegrees>
              <LongitudeDegrees>-6.1288368701934814453125</LongitudeDegrees>
            </Position>
            <AltitudeMeters>199.1999969482421875</AltitudeMeters>
            <DistanceMeters>NAN</DistanceMeters>
          </Trackpoint>
          <Trackpoint>
            <Time>2019-10-10T12:25:58.000Z</Time>
            <Position>
              <LatitudeDegrees>37.62324996292591094970703125</LatitudeDegrees>
              <LongitudeDegrees>-6.12856261432170867919921875</LongitudeDegrees>
            </Position>
            <AltitudeMeters>198</AltitudeMeters>
            <DistanceMeters>NAN</DistanceMeters>
          </Trackpoint>
          <Trackpoint>
            <Time>2019-10-10T12:26:00.000Z</Time>
            <Position>
              <LatitudeDegrees>37.623150050640106201171875</LatitudeDegrees>
              <LongitudeDegrees>-6.12837712280452251434326171875</LongitudeDegrees>
            </Position>
            <AltitudeMeters>197</AltitudeMeters>
            <DistanceMeters>NAN</DistanceMeters>
          </Trackpoint>
          <Trackpoint>
            <Time>2019-10-10T12:26:02.000Z</Time>
            <Position>
              <LatitudeDegrees>37.62304653413593769073486328125</LatitudeDegrees>
              <LongitudeDegrees>-6.12817629240453243255615234375</LongitudeDegrees>
            </Position>
            <AltitudeMeters>195</AltitudeMeters>
            <DistanceMeters>NAN</DistanceMeters>
          </Trackpoint>
          <Trackpoint>
            <Time>2019-10-10T12:26:04.000Z</Time>
            <Position>
              <LatitudeDegrees>37.62294410727918148040771484375</LatitudeDegrees>
              <LongitudeDegrees>-6.12798803485929965972900390625</LongitudeDegrees>
            </Position>
            <AltitudeMeters>193.8000030517578125</AltitudeMeters>
            <DistanceMeters>NAN</DistanceMeters>
          </Trackpoint>
          <Trackpoint>
            <Time>2019-10-10T12:26:05.000Z</Time>
            <Position>
              <LatitudeDegrees>37.622884847223758697509765625</LatitudeDegrees>
              <LongitudeDegrees>-6.1278821714222431182861328125</LongitudeDegrees>
            </Position>
            <AltitudeMeters>193.8000030517578125</AltitudeMeters>
            <DistanceMeters>NAN</DistanceMeters>
          </Trackpoint>
          <Trackpoint>
            <Time>2019-10-10T12:26:06.000Z</Time>
            <Position>
              <LatitudeDegrees>37.62278954498469829559326171875</LatitudeDegrees>
              <LongitudeDegrees>-6.127723418176174163818359375</LongitudeDegrees>
            </Position>
            <AltitudeMeters>192.8000030517578125</AltitudeMeters>
            <DistanceMeters>NAN</DistanceMeters>
          </Trackpoint>
          <Trackpoint>
            <Time>2019-10-10T12:26:08.000Z</Time>
            <Position>
              <LatitudeDegrees>37.62270279228687286376953125</LatitudeDegrees>
              <LongitudeDegrees>-6.12758235074579715728759765625</LongitudeDegrees>
            </Position>
            <AltitudeMeters>191.600006103515625</AltitudeMeters>
            <DistanceMeters>NAN</DistanceMeters>
          </Trackpoint>
          <Trackpoint>
            <Time>2019-10-10T12:26:10.000Z</Time>
            <Position>
              <LatitudeDegrees>37.62256541289389133453369140625</LatitudeDegrees>
              <LongitudeDegrees>-6.1273817718029022216796875</LongitudeDegrees>
            </Position>
            <AltitudeMeters>190</AltitudeMeters>
            <DistanceMeters>NAN</DistanceMeters>
          </Trackpoint>
          <Trackpoint>
            <Time>2019-10-10T12:26:11.000Z</Time>
            <Position>
              <LatitudeDegrees>37.62249835766851902008056640625</LatitudeDegrees>
              <LongitudeDegrees>-6.1272897385060787200927734375</LongitudeDegrees>
            </Position>
            <AltitudeMeters>189.399993896484375</AltitudeMeters>
            <DistanceMeters>NAN</DistanceMeters>
          </Trackpoint>
          <Trackpoint>
            <Time>2019-10-10T12:26:12.000Z</Time>
            <Position>
              <LatitudeDegrees>37.62241847813129425048828125</LatitudeDegrees>
              <LongitudeDegrees>-6.12718529999256134033203125</LongitudeDegrees>
            </Position>
            <AltitudeMeters>187.8000030517578125</AltitudeMeters>
            <DistanceMeters>NAN</DistanceMeters>
          </Trackpoint>
          <Trackpoint>
            <Time>2019-10-10T12:26:13.000Z</Time>
            <Position>
              <LatitudeDegrees>37.62234798632562160491943359375</LatitudeDegrees>
              <LongitudeDegrees>-6.12709603272378444671630859375</LongitudeDegrees>
            </Position>
            <AltitudeMeters>186.8000030517578125</AltitudeMeters>
            <DistanceMeters>NAN</DistanceMeters>
          </Trackpoint>
          <Trackpoint>
            <Time>2019-10-10T12:26:15.000Z</Time>
            <Position>
              <LatitudeDegrees>37.6221732236444950103759765625</LatitudeDegrees>
              <LongitudeDegrees>-6.12690391950309276580810546875</LongitudeDegrees>
            </Position>
            <AltitudeMeters>186.600006103515625</AltitudeMeters>
            <DistanceMeters>NAN</DistanceMeters>
          </Trackpoint>
          <Trackpoint>
            <Time>2019-10-10T12:26:16.000Z</Time>
            <Position>
              <LatitudeDegrees>37.62209150008857250213623046875</LatitudeDegrees>
              <LongitudeDegrees>-6.12681775353848934173583984375</LongitudeDegrees>
            </Position>
            <AltitudeMeters>186.600006103515625</AltitudeMeters>
            <DistanceMeters>NAN</DistanceMeters>
          </Trackpoint>
          <Trackpoint>
            <Time>2019-10-10T12:26:17.000Z</Time>
            <Position>
              <LatitudeDegrees>37.62199175544083118438720703125</LatitudeDegrees>
              <LongitudeDegrees>-6.12672706134617328643798828125</LongitudeDegrees>
            </Position>
            <AltitudeMeters>185</AltitudeMeters>
            <DistanceMeters>NAN</DistanceMeters>
          </Trackpoint>
          <Trackpoint>
            <Time>2019-10-10T12:26:18.000Z</Time>
            <Position>
              <LatitudeDegrees>37.6219043321907520294189453125</LatitudeDegrees>
              <LongitudeDegrees>-6.12664542160928249359130859375</LongitudeDegrees>
            </Position>
            <AltitudeMeters>183.399993896484375</AltitudeMeters>
            <DistanceMeters>NAN</DistanceMeters>
          </Trackpoint>
          <Trackpoint>
            <Time>2019-10-10T12:26:19.000Z</Time>
            <Position>
              <LatitudeDegrees>37.62180467136204242706298828125</LatitudeDegrees>
              <LongitudeDegrees>-6.12655699253082275390625</LongitudeDegrees>
            </Position>
            <AltitudeMeters>182.1999969482421875</AltitudeMeters>
            <DistanceMeters>NAN</DistanceMeters>
          </Trackpoint>
          <Trackpoint>
            <Time>2019-10-10T12:26:22.000Z</Time>
            <Position>
              <LatitudeDegrees>37.62151415459811687469482421875</LatitudeDegrees>
              <LongitudeDegrees>-6.12631701864302158355712890625</LongitudeDegrees>
            </Position>
            <AltitudeMeters>180.1999969482421875</AltitudeMeters>
            <DistanceMeters>NAN</DistanceMeters>
          </Trackpoint>
          <Trackpoint>
            <Time>2019-10-10T12:26:23.000Z</Time>
            <Position>
              <LatitudeDegrees>37.6214208640158176422119140625</LatitudeDegrees>
              <LongitudeDegrees>-6.12624459899961948394775390625</LongitudeDegrees>
            </Position>
            <AltitudeMeters>180.1999969482421875</AltitudeMeters>
            <DistanceMeters>NAN</DistanceMeters>
          </Trackpoint>
          <Trackpoint>
            <Time>2019-10-10T12:26:24.000Z</Time>
            <Position>
              <LatitudeDegrees>37.621314413845539093017578125</LatitudeDegrees>
              <LongitudeDegrees>-6.12616480328142642974853515625</LongitudeDegrees>
            </Position>
            <AltitudeMeters>180.1999969482421875</AltitudeMeters>
            <DistanceMeters>NAN</DistanceMeters>
          </Trackpoint>
          <Trackpoint>
            <Time>2019-10-10T12:26:26.000Z</Time>
            <Position>
              <LatitudeDegrees>37.62112238444387912750244140625</LatitudeDegrees>
              <LongitudeDegrees>-6.126016862690448760986328125</LongitudeDegrees>
            </Position>
            <AltitudeMeters>179</AltitudeMeters>
            <DistanceMeters>NAN</DistanceMeters>
          </Trackpoint>
          <Trackpoint>
            <Time>2019-10-10T12:26:27.000Z</Time>
            <Position>
              <LatitudeDegrees>37.62101878412067890167236328125</LatitudeDegrees>
              <LongitudeDegrees>-6.12594134174287319183349609375</LongitudeDegrees>
            </Position>
            <AltitudeMeters>177.8000030517578125</AltitudeMeters>
            <DistanceMeters>NAN</DistanceMeters>
          </Trackpoint>
          <Trackpoint>
            <Time>2019-10-10T12:26:29.000Z</Time>
            <Position>
              <LatitudeDegrees>37.62082885019481182098388671875</LatitudeDegrees>
              <LongitudeDegrees>-6.1258031241595745086669921875</LongitudeDegrees>
            </Position>
            <AltitudeMeters>177.600006103515625</AltitudeMeters>
            <DistanceMeters>NAN</DistanceMeters>
          </Trackpoint>
          <Trackpoint>
            <Time>2019-10-10T12:26:31.000Z</Time>
            <Position>
              <LatitudeDegrees>37.62065668590366840362548828125</LatitudeDegrees>
              <LongitudeDegrees>-6.12567278556525707244873046875</LongitudeDegrees>
            </Position>
            <AltitudeMeters>177.1999969482421875</AltitudeMeters>
            <DistanceMeters>NAN</DistanceMeters>
          </Trackpoint>
          <Trackpoint>
            <Time>2019-10-10T12:26:34.000Z</Time>
            <Position>
              <LatitudeDegrees>37.6204177178442478179931640625</LatitudeDegrees>
              <LongitudeDegrees>-6.1254961788654327392578125</LongitudeDegrees>
            </Position>
            <AltitudeMeters>178.8000030517578125</AltitudeMeters>
            <DistanceMeters>NAN</DistanceMeters>
          </Trackpoint>
          <Trackpoint>
            <Time>2019-10-10T12:26:35.000Z</Time>
            <Position>
              <LatitudeDegrees>37.62034689076244831085205078125</LatitudeDegrees>
              <LongitudeDegrees>-6.12544261850416660308837890625</LongitudeDegrees>
            </Position>
            <AltitudeMeters>179</AltitudeMeters>
            <DistanceMeters>NAN</DistanceMeters>
          </Trackpoint>
          <Trackpoint>
            <Time>2019-10-10T12:26:38.000Z</Time>
            <Position>
              <LatitudeDegrees>37.6201387681066989898681640625</LatitudeDegrees>
              <LongitudeDegrees>-6.12528252415359020233154296875</LongitudeDegrees>
            </Position>
            <AltitudeMeters>179</AltitudeMeters>
            <DistanceMeters>NAN</DistanceMeters>
          </Trackpoint>
          <Trackpoint>
            <Time>2019-10-10T12:26:40.000Z</Time>
            <Position>
              <LatitudeDegrees>37.62000021524727344512939453125</LatitudeDegrees>
              <LongitudeDegrees>-6.12517406232655048370361328125</LongitudeDegrees>
            </Position>
            <AltitudeMeters>178.600006103515625</AltitudeMeters>
            <DistanceMeters>NAN</DistanceMeters>
          </Trackpoint>
          <Trackpoint>
            <Time>2019-10-10T12:26:42.000Z</Time>
            <Position>
              <LatitudeDegrees>37.61985202319920063018798828125</LatitudeDegrees>
              <LongitudeDegrees>-6.1250562965869903564453125</LongitudeDegrees>
            </Position>
            <AltitudeMeters>177.399993896484375</AltitudeMeters>
            <DistanceMeters>NAN</DistanceMeters>
          </Trackpoint>
          <Trackpoint>
            <Time>2019-10-10T12:26:44.000Z</Time>
            <Position>
              <LatitudeDegrees>37.6197020709514617919921875</LatitudeDegrees>
              <LongitudeDegrees>-6.1249381117522716522216796875</LongitudeDegrees>
            </Position>
            <AltitudeMeters>176.600006103515625</AltitudeMeters>
            <DistanceMeters>NAN</DistanceMeters>
          </Trackpoint>
          <Trackpoint>
            <Time>2019-10-10T12:26:45.000Z</Time>
            <Position>
              <LatitudeDegrees>37.61962973512709140777587890625</LatitudeDegrees>
              <LongitudeDegrees>-6.12488086335361003875732421875</LongitudeDegrees>
            </Position>
            <AltitudeMeters>175.8000030517578125</AltitudeMeters>
            <DistanceMeters>NAN</DistanceMeters>
          </Trackpoint>
          <Trackpoint>
            <Time>2019-10-10T12:26:46.000Z</Time>
            <Position>
              <LatitudeDegrees>37.6195436529815196990966796875</LatitudeDegrees>
              <LongitudeDegrees>-6.12481431104242801666259765625</LongitudeDegrees>
            </Position>
            <AltitudeMeters>175.8000030517578125</AltitudeMeters>
            <DistanceMeters>NAN</DistanceMeters>
          </Trackpoint>
          <Trackpoint>
            <Time>2019-10-10T12:26:47.000Z</Time>
            <Position>
              <LatitudeDegrees>37.6194675453007221221923828125</LatitudeDegrees>
              <LongitudeDegrees>-6.12475597299635410308837890625</LongitudeDegrees>
            </Position>
            <AltitudeMeters>175.1999969482421875</AltitudeMeters>
            <DistanceMeters>NAN</DistanceMeters>
          </Trackpoint>
          <Trackpoint>
            <Time>2019-10-10T12:26:48.000Z</Time>
            <Position>
              <LatitudeDegrees>37.6193786971271038055419921875</LatitudeDegrees>
              <LongitudeDegrees>-6.12469411455094814300537109375</LongitudeDegrees>
            </Position>
            <AltitudeMeters>173.8000030517578125</AltitudeMeters>
            <DistanceMeters>NAN</DistanceMeters>
          </Trackpoint>
          <Trackpoint>
            <Time>2019-10-10T12:26:50.000Z</Time>
            <Position>
              <LatitudeDegrees>37.61921726167201995849609375</LatitudeDegrees>
              <LongitudeDegrees>-6.1245723254978656768798828125</LongitudeDegrees>
            </Position>
            <AltitudeMeters>172.600006103515625</AltitudeMeters>
            <DistanceMeters>NAN</DistanceMeters>
          </Trackpoint>
          <Trackpoint>
            <Time>2019-10-10T12:26:52.000Z</Time>
            <Position>
              <LatitudeDegrees>37.61904618702828884124755859375</LatitudeDegrees>
              <LongitudeDegrees>-6.124435029923915863037109375</LongitudeDegrees>
            </Position>
            <AltitudeMeters>172.1999969482421875</AltitudeMeters>
            <DistanceMeters>NAN</DistanceMeters>
          </Trackpoint>
          <Trackpoint>
            <Time>2019-10-10T12:26:55.000Z</Time>
            <Position>
              <LatitudeDegrees>37.61880143545567989349365234375</LatitudeDegrees>
              <LongitudeDegrees>-6.1242449283599853515625</LongitudeDegrees>
            </Position>
            <AltitudeMeters>171.1999969482421875</AltitudeMeters>
            <DistanceMeters>NAN</DistanceMeters>
          </Trackpoint>
          <Trackpoint>
            <Time>2019-10-10T12:26:59.000Z</Time>
            <Position>
              <LatitudeDegrees>37.618498764932155609130859375</LatitudeDegrees>
              <LongitudeDegrees>-6.1240150965750217437744140625</LongitudeDegrees>
            </Position>
            <AltitudeMeters>173</AltitudeMeters>
            <DistanceMeters>NAN</DistanceMeters>
          </Trackpoint>
          <Trackpoint>
            <Time>2019-10-10T12:27:01.000Z</Time>
            <Position>
              <LatitudeDegrees>37.6183663308620452880859375</LatitudeDegrees>
              <LongitudeDegrees>-6.12391526810824871063232421875</LongitudeDegrees>
            </Position>
            <AltitudeMeters>174.600006103515625</AltitudeMeters>
            <DistanceMeters>NAN</DistanceMeters>
          </Trackpoint>
          <Trackpoint>
            <Time>2019-10-10T12:27:04.000Z</Time>
            <Position>
              <LatitudeDegrees>37.61819609440863132476806640625</LatitudeDegrees>
              <LongitudeDegrees>-6.123785264790058135986328125</LongitudeDegrees>
            </Position>
            <AltitudeMeters>175.399993896484375</AltitudeMeters>
            <DistanceMeters>NAN</DistanceMeters>
          </Trackpoint>
          <Trackpoint>
            <Time>2019-10-10T12:27:05.000Z</Time>
            <Position>
              <LatitudeDegrees>37.6181468926370143890380859375</LatitudeDegrees>
              <LongitudeDegrees>-6.1237451992928981781005859375</LongitudeDegrees>
            </Position>
            <AltitudeMeters>176</AltitudeMeters>
            <DistanceMeters>NAN</DistanceMeters>
          </Trackpoint>
          <Trackpoint>
            <Time>2019-10-10T12:27:09.000Z</Time>
            <Position>
              <LatitudeDegrees>37.617984451353549957275390625</LatitudeDegrees>
              <LongitudeDegrees>-6.12360044382512569427490234375</LongitudeDegrees>
            </Position>
            <AltitudeMeters>177</AltitudeMeters>
            <DistanceMeters>NAN</DistanceMeters>
          </Trackpoint>
          <Trackpoint>
            <Time>2019-10-10T12:27:10.000Z</Time>
            <Position>
              <LatitudeDegrees>37.6179477386176586151123046875</LatitudeDegrees>
              <LongitudeDegrees>-6.12356674857437610626220703125</LongitudeDegrees>
            </Position>
            <AltitudeMeters>177.399993896484375</AltitudeMeters>
            <DistanceMeters>NAN</DistanceMeters>
          </Trackpoint>
          <Trackpoint>
            <Time>2019-10-10T12:27:13.000Z</Time>
            <Position>
              <LatitudeDegrees>37.61784137226641178131103515625</LatitudeDegrees>
              <LongitudeDegrees>-6.12347069196403026580810546875</LongitudeDegrees>
            </Position>
            <AltitudeMeters>178</AltitudeMeters>
            <DistanceMeters>NAN</DistanceMeters>
          </Trackpoint>
          <Trackpoint>
            <Time>2019-10-10T12:27:15.000Z</Time>
            <Position>
              <LatitudeDegrees>37.61777180247008800506591796875</LatitudeDegrees>
              <LongitudeDegrees>-6.12340665422379970550537109375</LongitudeDegrees>
            </Position>
            <AltitudeMeters>177.8000030517578125</AltitudeMeters>
            <DistanceMeters>NAN</DistanceMeters>
          </Trackpoint>
          <Trackpoint>
            <Time>2019-10-10T12:27:17.000Z</Time>
            <Position>
              <LatitudeDegrees>37.61769988574087619781494140625</LatitudeDegrees>
              <LongitudeDegrees>-6.12333926372230052947998046875</LongitudeDegrees>
            </Position>
            <AltitudeMeters>178.1999969482421875</AltitudeMeters>
            <DistanceMeters>NAN</DistanceMeters>
          </Trackpoint>
          <Trackpoint>
            <Time>2019-10-10T12:27:20.000Z</Time>
            <Position>
              <LatitudeDegrees>37.6175920106470584869384765625</LatitudeDegrees>
              <LongitudeDegrees>-6.1232298798859119415283203125</LongitudeDegrees>
            </Position>
            <AltitudeMeters>178.1999969482421875</AltitudeMeters>
            <DistanceMeters>NAN</DistanceMeters>
          </Trackpoint>
          <Trackpoint>
            <Time>2019-10-10T12:27:23.000Z</Time>
            <Position>
              <LatitudeDegrees>37.6174850575625896453857421875</LatitudeDegrees>
              <LongitudeDegrees>-6.12311781384050846099853515625</LongitudeDegrees>
            </Position>
            <AltitudeMeters>177</AltitudeMeters>
            <DistanceMeters>NAN</DistanceMeters>
          </Trackpoint>
          <Trackpoint>
            <Time>2019-10-10T12:27:26.000Z</Time>
            <Position>
              <LatitudeDegrees>37.6173673756420612335205078125</LatitudeDegrees>
              <LongitudeDegrees>-6.122988648712635040283203125</LongitudeDegrees>
            </Position>
            <AltitudeMeters>177</AltitudeMeters>
            <DistanceMeters>NAN</DistanceMeters>
          </Trackpoint>
          <Trackpoint>
            <Time>2019-10-10T12:27:29.000Z</Time>
            <Position>
              <LatitudeDegrees>37.6172411441802978515625</LatitudeDegrees>
              <LongitudeDegrees>-6.122845821082592010498046875</LongitudeDegrees>
            </Position>
            <AltitudeMeters>175.600006103515625</AltitudeMeters>
            <DistanceMeters>NAN</DistanceMeters>
          </Trackpoint>
          <Trackpoint>
            <Time>2019-10-10T12:27:33.000Z</Time>
            <Position>
              <LatitudeDegrees>37.617060430347919464111328125</LatitudeDegrees>
              <LongitudeDegrees>-6.12263669259846210479736328125</LongitudeDegrees>
            </Position>
            <AltitudeMeters>174.1999969482421875</AltitudeMeters>
            <DistanceMeters>NAN</DistanceMeters>
          </Trackpoint>
          <Trackpoint>
            <Time>2019-10-10T12:27:37.000Z</Time>
            <Position>
              <LatitudeDegrees>37.616869322955608367919921875</LatitudeDegrees>
              <LongitudeDegrees>-6.12239764072000980377197265625</LongitudeDegrees>
            </Position>
            <AltitudeMeters>174</AltitudeMeters>
            <DistanceMeters>NAN</DistanceMeters>
          </Trackpoint>
          <Trackpoint>
            <Time>2019-10-10T12:27:38.000Z</Time>
            <Position>
              <LatitudeDegrees>37.616823054850101470947265625</LatitudeDegrees>
              <LongitudeDegrees>-6.122337877750396728515625</LongitudeDegrees>
            </Position>
            <AltitudeMeters>173.1999969482421875</AltitudeMeters>
            <DistanceMeters>NAN</DistanceMeters>
          </Trackpoint>
          <Trackpoint>
            <Time>2019-10-10T12:27:39.000Z</Time>
            <Position>
              <LatitudeDegrees>37.61677335016429424285888671875</LatitudeDegrees>
              <LongitudeDegrees>-6.12227593548595905303955078125</LongitudeDegrees>
            </Position>
            <AltitudeMeters>172.1999969482421875</AltitudeMeters>
            <DistanceMeters>NAN</DistanceMeters>
          </Trackpoint>
          <Trackpoint>
            <Time>2019-10-10T12:27:45.000Z</Time>
            <Position>
              <LatitudeDegrees>37.61648467741906642913818359375</LatitudeDegrees>
              <LongitudeDegrees>-6.1219209618866443634033203125</LongitudeDegrees>
            </Position>
            <AltitudeMeters>171.600006103515625</AltitudeMeters>
            <DistanceMeters>NAN</DistanceMeters>
          </Trackpoint>
          <Trackpoint>
            <Time>2019-10-10T12:27:46.000Z</Time>
            <Position>
              <LatitudeDegrees>37.61643824167549610137939453125</LatitudeDegrees>
              <LongitudeDegrees>-6.12186337821185588836669921875</LongitudeDegrees>
            </Position>
            <AltitudeMeters>171.8000030517578125</AltitudeMeters>
            <DistanceMeters>NAN</DistanceMeters>
          </Trackpoint>
          <Trackpoint>
            <Time>2019-10-10T12:27:55.000Z</Time>
            <Position>
              <LatitudeDegrees>37.6160437054932117462158203125</LatitudeDegrees>
              <LongitudeDegrees>-6.12137756310403347015380859375</LongitudeDegrees>
            </Position>
            <AltitudeMeters>171.600006103515625</AltitudeMeters>
            <DistanceMeters>NAN</DistanceMeters>
          </Trackpoint>
          <Trackpoint>
            <Time>2019-10-10T12:28:04.000Z</Time>
            <Position>
              <LatitudeDegrees>37.6156916655600070953369140625</LatitudeDegrees>
              <LongitudeDegrees>-6.1209364235401153564453125</LongitudeDegrees>
            </Position>
            <AltitudeMeters>173.399993896484375</AltitudeMeters>
            <DistanceMeters>NAN</DistanceMeters>
          </Trackpoint>
          <Trackpoint>
            <Time>2019-10-10T12:28:12.000Z</Time>
            <Position>
              <LatitudeDegrees>37.615392096340656280517578125</LatitudeDegrees>
              <LongitudeDegrees>-6.120563931763172149658203125</LongitudeDegrees>
            </Position>
            <AltitudeMeters>173.399993896484375</AltitudeMeters>
            <DistanceMeters>NAN</DistanceMeters>
          </Trackpoint>
          <Trackpoint>
            <Time>2019-10-10T12:28:15.000Z</Time>
            <Position>
              <LatitudeDegrees>37.61528271250426769256591796875</LatitudeDegrees>
              <LongitudeDegrees>-6.12042210996150970458984375</LongitudeDegrees>
            </Position>
            <AltitudeMeters>174.600006103515625</AltitudeMeters>
            <DistanceMeters>NAN</DistanceMeters>
          </Trackpoint>
          <Trackpoint>
            <Time>2019-10-10T12:28:19.000Z</Time>
            <Position>
              <LatitudeDegrees>37.615135274827480316162109375</LatitudeDegrees>
              <LongitudeDegrees>-6.120236702263355255126953125</LongitudeDegrees>
            </Position>
            <AltitudeMeters>175.399993896484375</AltitudeMeters>
            <DistanceMeters>NAN</DistanceMeters>
          </Trackpoint>
          <Trackpoint>
            <Time>2019-10-10T12:28:26.000Z</Time>
            <Position>
              <LatitudeDegrees>37.61488147079944610595703125</LatitudeDegrees>
              <LongitudeDegrees>-6.1199351213872432708740234375</LongitudeDegrees>
            </Position>
            <AltitudeMeters>175</AltitudeMeters>
            <DistanceMeters>NAN</DistanceMeters>
          </Trackpoint>
          <Trackpoint>
            <Time>2019-10-10T12:28:28.000Z</Time>
            <Position>
              <LatitudeDegrees>37.6148139126598834991455078125</LatitudeDegrees>
              <LongitudeDegrees>-6.11985121853649616241455078125</LongitudeDegrees>
            </Position>
            <AltitudeMeters>175.8000030517578125</AltitudeMeters>
            <DistanceMeters>NAN</DistanceMeters>
          </Trackpoint>
          <Trackpoint>
            <Time>2019-10-10T12:28:33.000Z</Time>
            <Position>
              <LatitudeDegrees>37.61465356685221195220947265625</LatitudeDegrees>
              <LongitudeDegrees>-6.11964988522231578826904296875</LongitudeDegrees>
            </Position>
            <AltitudeMeters>176.1999969482421875</AltitudeMeters>
            <DistanceMeters>NAN</DistanceMeters>
          </Trackpoint>
          <Trackpoint>
            <Time>2019-10-10T12:28:42.000Z</Time>
            <Position>
              <LatitudeDegrees>37.614362128078937530517578125</LatitudeDegrees>
              <LongitudeDegrees>-6.11928611062467098236083984375</LongitudeDegrees>
            </Position>
            <AltitudeMeters>176.1999969482421875</AltitudeMeters>
            <DistanceMeters>NAN</DistanceMeters>
          </Trackpoint>
          <Trackpoint>
            <Time>2019-10-10T12:28:44.000Z</Time>
            <Position>
              <LatitudeDegrees>37.61429666541516780853271484375</LatitudeDegrees>
              <LongitudeDegrees>-6.119205057621002197265625</LongitudeDegrees>
            </Position>
            <AltitudeMeters>177</AltitudeMeters>
            <DistanceMeters>NAN</DistanceMeters>
          </Trackpoint>
          <Trackpoint>
            <Time>2019-10-10T12:28:55.000Z</Time>
            <Position>
              <LatitudeDegrees>37.6139472238719463348388671875</LatitudeDegrees>
              <LongitudeDegrees>-6.1187509261071681976318359375</LongitudeDegrees>
            </Position>
            <AltitudeMeters>178</AltitudeMeters>
            <DistanceMeters>NAN</DistanceMeters>
          </Trackpoint>
          <Trackpoint>
            <Time>2019-10-10T12:29:05.000Z</Time>
            <Position>
              <LatitudeDegrees>37.61362929828464984893798828125</LatitudeDegrees>
              <LongitudeDegrees>-6.11831347458064556121826171875</LongitudeDegrees>
            </Position>
            <AltitudeMeters>177.600006103515625</AltitudeMeters>
            <DistanceMeters>NAN</DistanceMeters>
          </Trackpoint>
          <Trackpoint>
            <Time>2019-10-10T12:29:11.000Z</Time>
            <Position>
              <LatitudeDegrees>37.61340097524225711822509765625</LatitudeDegrees>
              <LongitudeDegrees>-6.11798532307147979736328125</LongitudeDegrees>
            </Position>
            <AltitudeMeters>176.8000030517578125</AltitudeMeters>
            <DistanceMeters>NAN</DistanceMeters>
          </Trackpoint>
          <Trackpoint>
            <Time>2019-10-10T12:29:13.000Z</Time>
            <Position>
              <LatitudeDegrees>37.613319419324398040771484375</LatitudeDegrees>
              <LongitudeDegrees>-6.1178624443709850311279296875</LongitudeDegrees>
            </Position>
            <AltitudeMeters>175.600006103515625</AltitudeMeters>
            <DistanceMeters>NAN</DistanceMeters>
          </Trackpoint>
          <Trackpoint>
            <Time>2019-10-10T12:29:18.000Z</Time>
            <Position>
              <LatitudeDegrees>37.61310928501188755035400390625</LatitudeDegrees>
              <LongitudeDegrees>-6.11752222292125225067138671875</LongitudeDegrees>
            </Position>
            <AltitudeMeters>174.1999969482421875</AltitudeMeters>
            <DistanceMeters>NAN</DistanceMeters>
          </Trackpoint>
          <Trackpoint>
            <Time>2019-10-10T12:29:19.000Z</Time>
            <Position>
              <LatitudeDegrees>37.61306561529636383056640625</LatitudeDegrees>
              <LongitudeDegrees>-6.1174524016678333282470703125</LongitudeDegrees>
            </Position>
            <AltitudeMeters>173</AltitudeMeters>
            <DistanceMeters>NAN</DistanceMeters>
          </Trackpoint>
          <Trackpoint>
            <Time>2019-10-10T12:29:20.000Z</Time>
            <Position>
              <LatitudeDegrees>37.61301926337182521820068359375</LatitudeDegrees>
              <LongitudeDegrees>-6.11738056875765323638916015625</LongitudeDegrees>
            </Position>
            <AltitudeMeters>172.600006103515625</AltitudeMeters>
            <DistanceMeters>NAN</DistanceMeters>
          </Trackpoint>
          <Trackpoint>
            <Time>2019-10-10T12:29:25.000Z</Time>
            <Position>
              <LatitudeDegrees>37.6127807982265949249267578125</LatitudeDegrees>
              <LongitudeDegrees>-6.11700086854398250579833984375</LongitudeDegrees>
            </Position>
            <AltitudeMeters>171.600006103515625</AltitudeMeters>
            <DistanceMeters>NAN</DistanceMeters>
          </Trackpoint>
          <Trackpoint>
            <Time>2019-10-10T12:29:27.000Z</Time>
            <Position>
              <LatitudeDegrees>37.6126788742840290069580078125</LatitudeDegrees>
              <LongitudeDegrees>-6.116843707859516143798828125</LongitudeDegrees>
            </Position>
            <AltitudeMeters>170.399993896484375</AltitudeMeters>
            <DistanceMeters>NAN</DistanceMeters>
          </Trackpoint>
          <Trackpoint>
            <Time>2019-10-10T12:29:29.000Z</Time>
            <Position>
              <LatitudeDegrees>37.61257384903728961944580078125</LatitudeDegrees>
              <LongitudeDegrees>-6.11668218858540058135986328125</LongitudeDegrees>
            </Position>
            <AltitudeMeters>169.600006103515625</AltitudeMeters>
            <DistanceMeters>NAN</DistanceMeters>
          </Trackpoint>
          <Trackpoint>
            <Time>2019-10-10T12:29:30.000Z</Time>
            <Position>
              <LatitudeDegrees>37.6125223003327846527099609375</LatitudeDegrees>
              <LongitudeDegrees>-6.1166041530668735504150390625</LongitudeDegrees>
            </Position>
            <AltitudeMeters>169.1999969482421875</AltitudeMeters>
            <DistanceMeters>NAN</DistanceMeters>
          </Trackpoint>
          <Trackpoint>
            <Time>2019-10-10T12:29:32.000Z</Time>
            <Position>
              <LatitudeDegrees>37.61241928674280643463134765625</LatitudeDegrees>
              <LongitudeDegrees>-6.11644380725920200347900390625</LongitudeDegrees>
            </Position>
            <AltitudeMeters>168</AltitudeMeters>
            <DistanceMeters>NAN</DistanceMeters>
          </Trackpoint>
          <Trackpoint>
            <Time>2019-10-10T12:29:36.000Z</Time>
            <Position>
              <LatitudeDegrees>37.61221661232411861419677734375</LatitudeDegrees>
              <LongitudeDegrees>-6.1161334253847599029541015625</LongitudeDegrees>
            </Position>
            <AltitudeMeters>167.1999969482421875</AltitudeMeters>
            <DistanceMeters>NAN</DistanceMeters>
          </Trackpoint>
          <Trackpoint>
            <Time>2019-10-10T12:29:40.000Z</Time>
            <Position>
              <LatitudeDegrees>37.61202265508472919464111328125</LatitudeDegrees>
              <LongitudeDegrees>-6.11583678983151912689208984375</LongitudeDegrees>
            </Position>
            <AltitudeMeters>167.600006103515625</AltitudeMeters>
            <DistanceMeters>NAN</DistanceMeters>
          </Trackpoint>
          <Trackpoint>
            <Time>2019-10-10T12:29:42.000Z</Time>
            <Position>
              <LatitudeDegrees>37.6119342260062694549560546875</LatitudeDegrees>
              <LongitudeDegrees>-6.11569999717175960540771484375</LongitudeDegrees>
            </Position>
            <AltitudeMeters>166.600006103515625</AltitudeMeters>
            <DistanceMeters>NAN</DistanceMeters>
          </Trackpoint>
          <Trackpoint>
            <Time>2019-10-10T12:29:44.000Z</Time>
            <Position>
              <LatitudeDegrees>37.61184562928974628448486328125</LatitudeDegrees>
              <LongitudeDegrees>-6.115566305816173553466796875</LongitudeDegrees>
            </Position>
            <AltitudeMeters>167.399993896484375</AltitudeMeters>
            <DistanceMeters>NAN</DistanceMeters>
          </Trackpoint>
          <Trackpoint>
            <Time>2019-10-10T12:29:45.000Z</Time>
            <Position>
              <LatitudeDegrees>37.6118034683167934417724609375</LatitudeDegrees>
              <LongitudeDegrees>-6.11550218425691127777099609375</LongitudeDegrees>
            </Position>
            <AltitudeMeters>168.1999969482421875</AltitudeMeters>
            <DistanceMeters>NAN</DistanceMeters>
          </Trackpoint>
          <Trackpoint>
            <Time>2019-10-10T12:29:52.000Z</Time>
            <Position>
              <LatitudeDegrees>37.6115094311535358428955078125</LatitudeDegrees>
              <LongitudeDegrees>-6.1150561831891536712646484375</LongitudeDegrees>
            </Position>
            <AltitudeMeters>168.399993896484375</AltitudeMeters>
            <DistanceMeters>NAN</DistanceMeters>
          </Trackpoint>
          <Trackpoint>
            <Time>2019-10-10T12:29:56.000Z</Time>
            <Position>
              <LatitudeDegrees>37.61136417277157306671142578125</LatitudeDegrees>
              <LongitudeDegrees>-6.11484169028699398040771484375</LongitudeDegrees>
            </Position>
            <AltitudeMeters>169.399993896484375</AltitudeMeters>
            <DistanceMeters>NAN</DistanceMeters>
          </Trackpoint>
          <Trackpoint>
            <Time>2019-10-10T12:29:58.000Z</Time>
            <Position>
              <LatitudeDegrees>37.61129938066005706787109375</LatitudeDegrees>
              <LongitudeDegrees>-6.11474865116178989410400390625</LongitudeDegrees>
            </Position>
            <AltitudeMeters>169.600006103515625</AltitudeMeters>
            <DistanceMeters>NAN</DistanceMeters>
          </Trackpoint>
          <Trackpoint>
            <Time>2019-10-10T12:30:03.000Z</Time>
            <Position>
              <LatitudeDegrees>37.6111597381532192230224609375</LatitudeDegrees>
              <LongitudeDegrees>-6.1145442165434360504150390625</LongitudeDegrees>
            </Position>
            <AltitudeMeters>170.600006103515625</AltitudeMeters>
            <DistanceMeters>NAN</DistanceMeters>
          </Trackpoint>
          <Trackpoint>
            <Time>2019-10-10T12:30:04.000Z</Time>
            <Position>
              <LatitudeDegrees>37.61113685555756092071533203125</LatitudeDegrees>
              <LongitudeDegrees>-6.114510186016559600830078125</LongitudeDegrees>
            </Position>
            <AltitudeMeters>170.8000030517578125</AltitudeMeters>
            <DistanceMeters>NAN</DistanceMeters>
          </Trackpoint>
          <Trackpoint>
            <Time>2019-10-10T12:30:07.000Z</Time>
            <Position>
              <LatitudeDegrees>37.611063681542873382568359375</LatitudeDegrees>
              <LongitudeDegrees>-6.1143956892192363739013671875</LongitudeDegrees>
            </Position>
            <AltitudeMeters>172</AltitudeMeters>
            <DistanceMeters>NAN</DistanceMeters>
          </Trackpoint>
          <Trackpoint>
            <Time>2019-10-10T12:30:10.000Z</Time>
            <Position>
              <LatitudeDegrees>37.61099117808043956756591796875</LatitudeDegrees>
              <LongitudeDegrees>-6.11428345553576946258544921875</LongitudeDegrees>
            </Position>
            <AltitudeMeters>173.1999969482421875</AltitudeMeters>
            <DistanceMeters>NAN</DistanceMeters>
          </Trackpoint>
          <Trackpoint>
            <Time>2019-10-10T12:30:12.000Z</Time>
            <Position>
              <LatitudeDegrees>37.61094541288912296295166015625</LatitudeDegrees>
              <LongitudeDegrees>-6.11420818604528903961181640625</LongitudeDegrees>
            </Position>
            <AltitudeMeters>173.399993896484375</AltitudeMeters>
            <DistanceMeters>NAN</DistanceMeters>
          </Trackpoint>
          <Trackpoint>
            <Time>2019-10-10T12:30:16.000Z</Time>
            <Position>
              <LatitudeDegrees>37.61084985919296741485595703125</LatitudeDegrees>
              <LongitudeDegrees>-6.11406351439654827117919921875</LongitudeDegrees>
            </Position>
            <AltitudeMeters>173.399993896484375</AltitudeMeters>
            <DistanceMeters>NAN</DistanceMeters>
          </Trackpoint>
          <Trackpoint>
            <Time>2019-10-10T12:30:19.000Z</Time>
            <Position>
              <LatitudeDegrees>37.61078305542469024658203125</LatitudeDegrees>
              <LongitudeDegrees>-6.1139571480453014373779296875</LongitudeDegrees>
            </Position>
            <AltitudeMeters>174.1999969482421875</AltitudeMeters>
            <DistanceMeters>NAN</DistanceMeters>
          </Trackpoint>
          <Trackpoint>
            <Time>2019-10-10T12:30:21.000Z</Time>
            <Position>
              <LatitudeDegrees>37.6107399724423885345458984375</LatitudeDegrees>
              <LongitudeDegrees>-6.11388313584029674530029296875</LongitudeDegrees>
            </Position>
            <AltitudeMeters>174.600006103515625</AltitudeMeters>
            <DistanceMeters>NAN</DistanceMeters>
          </Trackpoint>
          <Trackpoint>
            <Time>2019-10-10T12:30:24.000Z</Time>
            <Position>
              <LatitudeDegrees>37.610666714608669281005859375</LatitudeDegrees>
              <LongitudeDegrees>-6.11377735622227191925048828125</LongitudeDegrees>
            </Position>
            <AltitudeMeters>175.1999969482421875</AltitudeMeters>
            <DistanceMeters>NAN</DistanceMeters>
          </Trackpoint>
          <Trackpoint>
            <Time>2019-10-10T12:30:25.000Z</Time>
            <Position>
              <LatitudeDegrees>37.61064265854656696319580078125</LatitudeDegrees>
              <LongitudeDegrees>-6.1137395538389682769775390625</LongitudeDegrees>
            </Position>
            <AltitudeMeters>175.1999969482421875</AltitudeMeters>
            <DistanceMeters>NAN</DistanceMeters>
          </Trackpoint>
          <Trackpoint>
            <Time>2019-10-10T12:30:29.000Z</Time>
            <Position>
              <LatitudeDegrees>37.61055096052587032318115234375</LatitudeDegrees>
              <LongitudeDegrees>-6.11360083334147930145263671875</LongitudeDegrees>
            </Position>
            <AltitudeMeters>176</AltitudeMeters>
            <DistanceMeters>NAN</DistanceMeters>
          </Trackpoint>
          <Trackpoint>
            <Time>2019-10-10T12:30:32.000Z</Time>
            <Position>
              <LatitudeDegrees>37.6104871742427349090576171875</LatitudeDegrees>
              <LongitudeDegrees>-6.11349262297153472900390625</LongitudeDegrees>
            </Position>
            <AltitudeMeters>176.600006103515625</AltitudeMeters>
            <DistanceMeters>NAN</DistanceMeters>
          </Trackpoint>
          <Trackpoint>
            <Time>2019-10-10T12:30:36.000Z</Time>
            <Position>
              <LatitudeDegrees>37.61038483120501041412353515625</LatitudeDegrees>
              <LongitudeDegrees>-6.11334417946636676788330078125</LongitudeDegrees>
            </Position>
            <AltitudeMeters>177</AltitudeMeters>
            <DistanceMeters>NAN</DistanceMeters>
          </Trackpoint>
          <Trackpoint>
            <Time>2019-10-10T12:30:43.000Z</Time>
            <Position>
              <LatitudeDegrees>37.61017687618732452392578125</LatitudeDegrees>
              <LongitudeDegrees>-6.1130468733608722686767578125</LongitudeDegrees>
            </Position>
            <AltitudeMeters>175.8000030517578125</AltitudeMeters>
            <DistanceMeters>NAN</DistanceMeters>
          </Trackpoint>
          <Trackpoint>
            <Time>2019-10-10T12:30:50.000Z</Time>
            <Position>
              <LatitudeDegrees>37.609933130443096160888671875</LatitudeDegrees>
              <LongitudeDegrees>-6.11274504102766513824462890625</LongitudeDegrees>
            </Position>
            <AltitudeMeters>175.399993896484375</AltitudeMeters>
            <DistanceMeters>NAN</DistanceMeters>
          </Trackpoint>
          <Trackpoint>
            <Time>2019-10-10T12:30:53.000Z</Time>
            <Position>
              <LatitudeDegrees>37.609824836254119873046875</LatitudeDegrees>
              <LongitudeDegrees>-6.11263138242065906524658203125</LongitudeDegrees>
            </Position>
            <AltitudeMeters>175.399993896484375</AltitudeMeters>
            <DistanceMeters>NAN</DistanceMeters>
          </Trackpoint>
          <Trackpoint>
            <Time>2019-10-10T12:31:02.000Z</Time>
            <Position>
              <LatitudeDegrees>37.6094729639589786529541015625</LatitudeDegrees>
              <LongitudeDegrees>-6.1123528517782688140869140625</LongitudeDegrees>
            </Position>
            <AltitudeMeters>176</AltitudeMeters>
            <DistanceMeters>NAN</DistanceMeters>
          </Trackpoint>
          <Trackpoint>
            <Time>2019-10-10T12:31:05.000Z</Time>
            <Position>
              <LatitudeDegrees>37.60935234837234020233154296875</LatitudeDegrees>
              <LongitudeDegrees>-6.11227515153586864471435546875</LongitudeDegrees>
            </Position>
            <AltitudeMeters>176.600006103515625</AltitudeMeters>
            <DistanceMeters>NAN</DistanceMeters>
          </Trackpoint>
          <Trackpoint>
            <Time>2019-10-10T12:31:10.000Z</Time>
            <Position>
              <LatitudeDegrees>37.609135843813419342041015625</LatitudeDegrees>
              <LongitudeDegrees>-6.1121714673936367034912109375</LongitudeDegrees>
            </Position>
            <AltitudeMeters>176.8000030517578125</AltitudeMeters>
            <DistanceMeters>NAN</DistanceMeters>
          </Trackpoint>
          <Trackpoint>
            <Time>2019-10-10T12:31:17.000Z</Time>
            <Position>
              <LatitudeDegrees>37.608823366463184356689453125</LatitudeDegrees>
              <LongitudeDegrees>-6.11208018846809864044189453125</LongitudeDegrees>
            </Position>
            <AltitudeMeters>177.8000030517578125</AltitudeMeters>
            <DistanceMeters>NAN</DistanceMeters>
          </Trackpoint>
          <Trackpoint>
            <Time>2019-10-10T12:31:18.000Z</Time>
            <Position>
              <LatitudeDegrees>37.6087772659957408905029296875</LatitudeDegrees>
              <LongitudeDegrees>-6.11207214184105396270751953125</LongitudeDegrees>
            </Position>
            <AltitudeMeters>177.399993896484375</AltitudeMeters>
            <DistanceMeters>NAN</DistanceMeters>
          </Trackpoint>
          <Trackpoint>
            <Time>2019-10-10T12:31:24.000Z</Time>
            <Position>
              <LatitudeDegrees>37.6084688119590282440185546875</LatitudeDegrees>
              <LongitudeDegrees>-6.112043894827365875244140625</LongitudeDegrees>
            </Position>
            <AltitudeMeters>176.399993896484375</AltitudeMeters>
            <DistanceMeters>NAN</DistanceMeters>
          </Trackpoint>
          <Trackpoint>
            <Time>2019-10-10T12:31:25.000Z</Time>
            <Position>
              <LatitudeDegrees>37.60840955190360546112060546875</LatitudeDegrees>
              <LongitudeDegrees>-6.11204431392252445220947265625</LongitudeDegrees>
            </Position>
            <AltitudeMeters>176</AltitudeMeters>
            <DistanceMeters>NAN</DistanceMeters>
          </Trackpoint>
          <Trackpoint>
            <Time>2019-10-10T12:31:26.000Z</Time>
            <Position>
              <LatitudeDegrees>37.60834735818207263946533203125</LatitudeDegrees>
              <LongitudeDegrees>-6.11204682849347591400146484375</LongitudeDegrees>
            </Position>
            <AltitudeMeters>175.1999969482421875</AltitudeMeters>
            <DistanceMeters>NAN</DistanceMeters>
          </Trackpoint>
          <Trackpoint>
            <Time>2019-10-10T12:31:28.000Z</Time>
            <Position>
              <LatitudeDegrees>37.608211822807788848876953125</LatitudeDegrees>
              <LongitudeDegrees>-6.112050600349903106689453125</LongitudeDegrees>
            </Position>
            <AltitudeMeters>173.600006103515625</AltitudeMeters>
            <DistanceMeters>NAN</DistanceMeters>
          </Trackpoint>
          <Trackpoint>
            <Time>2019-10-10T12:31:30.000Z</Time>
            <Position>
              <LatitudeDegrees>37.608068324625492095947265625</LatitudeDegrees>
              <LongitudeDegrees>-6.11205764114856719970703125</LongitudeDegrees>
            </Position>
            <AltitudeMeters>172.399993896484375</AltitudeMeters>
            <DistanceMeters>NAN</DistanceMeters>
          </Trackpoint>
          <Trackpoint>
            <Time>2019-10-10T12:31:32.000Z</Time>
            <Position>
              <LatitudeDegrees>37.60791854001581668853759765625</LatitudeDegrees>
              <LongitudeDegrees>-6.1120645143091678619384765625</LongitudeDegrees>
            </Position>
            <AltitudeMeters>171</AltitudeMeters>
            <DistanceMeters>NAN</DistanceMeters>
          </Trackpoint>
          <Trackpoint>
            <Time>2019-10-10T12:31:34.000Z</Time>
            <Position>
              <LatitudeDegrees>37.607765235006809234619140625</LatitudeDegrees>
              <LongitudeDegrees>-6.11207105219364166259765625</LongitudeDegrees>
            </Position>
            <AltitudeMeters>170</AltitudeMeters>
            <DistanceMeters>NAN</DistanceMeters>
          </Trackpoint>
          <Trackpoint>
            <Time>2019-10-10T12:31:37.000Z</Time>
            <Position>
              <LatitudeDegrees>37.60752794332802295684814453125</LatitudeDegrees>
              <LongitudeDegrees>-6.11208974383771419525146484375</LongitudeDegrees>
            </Position>
            <AltitudeMeters>168.600006103515625</AltitudeMeters>
            <DistanceMeters>NAN</DistanceMeters>
          </Trackpoint>
          <Trackpoint>
            <Time>2019-10-10T12:31:39.000Z</Time>
            <Position>
              <LatitudeDegrees>37.60736365802586078643798828125</LatitudeDegrees>
              <LongitudeDegrees>-6.112102903425693511962890625</LongitudeDegrees>
            </Position>
            <AltitudeMeters>167.399993896484375</AltitudeMeters>
            <DistanceMeters>NAN</DistanceMeters>
          </Trackpoint>
          <Trackpoint>
            <Time>2019-10-10T12:31:42.000Z</Time>
            <Position>
              <LatitudeDegrees>37.60710574686527252197265625</LatitudeDegrees>
              <LongitudeDegrees>-6.11212578602135181427001953125</LongitudeDegrees>
            </Position>
            <AltitudeMeters>165.8000030517578125</AltitudeMeters>
            <DistanceMeters>NAN</DistanceMeters>
          </Trackpoint>
          <Trackpoint>
            <Time>2019-10-10T12:31:44.000Z</Time>
            <Position>
              <LatitudeDegrees>37.60692846961319446563720703125</LatitudeDegrees>
              <LongitudeDegrees>-6.11214171163737773895263671875</LongitudeDegrees>
            </Position>
            <AltitudeMeters>164.8000030517578125</AltitudeMeters>
            <DistanceMeters>NAN</DistanceMeters>
          </Trackpoint>
          <Trackpoint>
            <Time>2019-10-10T12:31:45.000Z</Time>
            <Position>
              <LatitudeDegrees>37.60683861561119556427001953125</LatitudeDegrees>
              <LongitudeDegrees>-6.1121503449976444244384765625</LongitudeDegrees>
            </Position>
            <AltitudeMeters>164.8000030517578125</AltitudeMeters>
            <DistanceMeters>NAN</DistanceMeters>
          </Trackpoint>
          <Trackpoint>
            <Time>2019-10-10T12:31:51.000Z</Time>
            <Position>
              <LatitudeDegrees>37.606314830482006072998046875</LatitudeDegrees>
              <LongitudeDegrees>-6.112192757427692413330078125</LongitudeDegrees>
            </Position>
            <AltitudeMeters>164.600006103515625</AltitudeMeters>
            <DistanceMeters>NAN</DistanceMeters>
          </Trackpoint>
          <Trackpoint>
            <Time>2019-10-10T12:31:53.000Z</Time>
            <Position>
              <LatitudeDegrees>37.606159262359142303466796875</LatitudeDegrees>
              <LongitudeDegrees>-6.11220776103436946868896484375</LongitudeDegrees>
            </Position>
            <AltitudeMeters>164.8000030517578125</AltitudeMeters>
            <DistanceMeters>NAN</DistanceMeters>
          </Trackpoint>
          <Trackpoint>
            <Time>2019-10-10T12:31:55.000Z</Time>
            <Position>
              <LatitudeDegrees>37.60602557100355625152587890625</LatitudeDegrees>
              <LongitudeDegrees>-6.11222117207944393157958984375</LongitudeDegrees>
            </Position>
            <AltitudeMeters>165.1999969482421875</AltitudeMeters>
            <DistanceMeters>NAN</DistanceMeters>
          </Trackpoint>
          <Trackpoint>
            <Time>2019-10-10T12:31:57.000Z</Time>
            <Position>
              <LatitudeDegrees>37.60590420104563236236572265625</LatitudeDegrees>
              <LongitudeDegrees>-6.11223332583904266357421875</LongitudeDegrees>
            </Position>
            <AltitudeMeters>166</AltitudeMeters>
            <DistanceMeters>NAN</DistanceMeters>
          </Trackpoint>
          <Trackpoint>
            <Time>2019-10-10T12:31:58.000Z</Time>
            <Position>
              <LatitudeDegrees>37.60584670118987560272216796875</LatitudeDegrees>
              <LongitudeDegrees>-6.11223659478127956390380859375</LongitudeDegrees>
            </Position>
            <AltitudeMeters>167</AltitudeMeters>
            <DistanceMeters>NAN</DistanceMeters>
          </Trackpoint>
          <Trackpoint>
            <Time>2019-10-10T12:32:01.000Z</Time>
            <Position>
              <LatitudeDegrees>37.60568610392510890960693359375</LatitudeDegrees>
              <LongitudeDegrees>-6.11224983818829059600830078125</LongitudeDegrees>
            </Position>
            <AltitudeMeters>167.1999969482421875</AltitudeMeters>
            <DistanceMeters>NAN</DistanceMeters>
          </Trackpoint>
          <Trackpoint>
            <Time>2019-10-10T12:32:05.000Z</Time>
            <Position>
              <LatitudeDegrees>37.60547840036451816558837890625</LatitudeDegrees>
              <LongitudeDegrees>-6.1122556217014789581298828125</LongitudeDegrees>
            </Position>
            <AltitudeMeters>168.1999969482421875</AltitudeMeters>
            <DistanceMeters>NAN</DistanceMeters>
          </Trackpoint>
          <Trackpoint>
            <Time>2019-10-10T12:32:09.000Z</Time>
            <Position>
              <LatitudeDegrees>37.60526172816753387451171875</LatitudeDegrees>
              <LongitudeDegrees>-6.11225956119596958160400390625</LongitudeDegrees>
            </Position>
            <AltitudeMeters>168</AltitudeMeters>
            <DistanceMeters>NAN</DistanceMeters>
          </Trackpoint>
          <Trackpoint>
            <Time>2019-10-10T12:32:12.000Z</Time>
            <Position>
              <LatitudeDegrees>37.60508545674383640289306640625</LatitudeDegrees>
              <LongitudeDegrees>-6.11226391978561878204345703125</LongitudeDegrees>
            </Position>
            <AltitudeMeters>167.399993896484375</AltitudeMeters>
            <DistanceMeters>NAN</DistanceMeters>
          </Trackpoint>
          <Trackpoint>
            <Time>2019-10-10T12:32:13.000Z</Time>
            <Position>
              <LatitudeDegrees>37.6050235144793987274169921875</LatitudeDegrees>
              <LongitudeDegrees>-6.11226341687142848968505859375</LongitudeDegrees>
            </Position>
            <AltitudeMeters>167</AltitudeMeters>
            <DistanceMeters>NAN</DistanceMeters>
          </Trackpoint>
          <Trackpoint>
            <Time>2019-10-10T12:32:16.000Z</Time>
            <Position>
              <LatitudeDegrees>37.6048257015645503997802734375</LatitudeDegrees>
              <LongitudeDegrees>-6.112265177071094512939453125</LongitudeDegrees>
            </Position>
            <AltitudeMeters>165.600006103515625</AltitudeMeters>
            <DistanceMeters>NAN</DistanceMeters>
          </Trackpoint>
          <Trackpoint>
            <Time>2019-10-10T12:32:19.000Z</Time>
            <Position>
              <LatitudeDegrees>37.6046067662537097930908203125</LatitudeDegrees>
              <LongitudeDegrees>-6.11226492561399936676025390625</LongitudeDegrees>
            </Position>
            <AltitudeMeters>164</AltitudeMeters>
            <DistanceMeters>NAN</DistanceMeters>
          </Trackpoint>
          <Trackpoint>
            <Time>2019-10-10T12:32:21.000Z</Time>
            <Position>
              <LatitudeDegrees>37.6044511981308460235595703125</LatitudeDegrees>
              <LongitudeDegrees>-6.11226626671850681304931640625</LongitudeDegrees>
            </Position>
            <AltitudeMeters>162.399993896484375</AltitudeMeters>
            <DistanceMeters>NAN</DistanceMeters>
          </Trackpoint>
          <Trackpoint>
            <Time>2019-10-10T12:32:23.000Z</Time>
            <Position>
              <LatitudeDegrees>37.6042892597615718841552734375</LatitudeDegrees>
              <LongitudeDegrees>-6.11226609908044338226318359375</LongitudeDegrees>
            </Position>
            <AltitudeMeters>161.399993896484375</AltitudeMeters>
            <DistanceMeters>NAN</DistanceMeters>
          </Trackpoint>
          <Trackpoint>
            <Time>2019-10-10T12:32:25.000Z</Time>
            <Position>
              <LatitudeDegrees>37.6041222922503948211669921875</LatitudeDegrees>
              <LongitudeDegrees>-6.112261824309825897216796875</LongitudeDegrees>
            </Position>
            <AltitudeMeters>160.600006103515625</AltitudeMeters>
            <DistanceMeters>NAN</DistanceMeters>
          </Trackpoint>
          <Trackpoint>
            <Time>2019-10-10T12:32:26.000Z</Time>
            <Position>
              <LatitudeDegrees>37.6040352880954742431640625</LatitudeDegrees>
              <LongitudeDegrees>-6.11225671134889125823974609375</LongitudeDegrees>
            </Position>
            <AltitudeMeters>160</AltitudeMeters>
            <DistanceMeters>NAN</DistanceMeters>
          </Trackpoint>
          <Trackpoint>
            <Time>2019-10-10T12:32:28.000Z</Time>
            <Position>
              <LatitudeDegrees>37.603859938681125640869140625</LatitudeDegrees>
              <LongitudeDegrees>-6.112247742712497711181640625</LongitudeDegrees>
            </Position>
            <AltitudeMeters>159</AltitudeMeters>
            <DistanceMeters>NAN</DistanceMeters>
          </Trackpoint>
          <Trackpoint>
            <Time>2019-10-10T12:32:30.000Z</Time>
            <Position>
              <LatitudeDegrees>37.60367897339165210723876953125</LatitudeDegrees>
              <LongitudeDegrees>-6.112230978906154632568359375</LongitudeDegrees>
            </Position>
            <AltitudeMeters>157.600006103515625</AltitudeMeters>
            <DistanceMeters>NAN</DistanceMeters>
          </Trackpoint>
          <Trackpoint>
            <Time>2019-10-10T12:32:32.000Z</Time>
            <Position>
              <LatitudeDegrees>37.60349809192121028900146484375</LatitudeDegrees>
              <LongitudeDegrees>-6.11220759339630603790283203125</LongitudeDegrees>
            </Position>
            <AltitudeMeters>156</AltitudeMeters>
            <DistanceMeters>NAN</DistanceMeters>
          </Trackpoint>
          <Trackpoint>
            <Time>2019-10-10T12:32:34.000Z</Time>
            <Position>
              <LatitudeDegrees>37.60332089848816394805908203125</LatitudeDegrees>
              <LongitudeDegrees>-6.11218311823904514312744140625</LongitudeDegrees>
            </Position>
            <AltitudeMeters>155.8000030517578125</AltitudeMeters>
            <DistanceMeters>NAN</DistanceMeters>
          </Trackpoint>
          <Trackpoint>
            <Time>2019-10-10T12:32:40.000Z</Time>
            <Position>
              <LatitudeDegrees>37.60281899012625217437744140625</LatitudeDegrees>
              <LongitudeDegrees>-6.1120826192200183868408203125</LongitudeDegrees>
            </Position>
            <AltitudeMeters>155.600006103515625</AltitudeMeters>
            <DistanceMeters>NAN</DistanceMeters>
          </Trackpoint>
          <Trackpoint>
            <Time>2019-10-10T12:32:42.000Z</Time>
            <Position>
              <LatitudeDegrees>37.60266040451824665069580078125</LatitudeDegrees>
              <LongitudeDegrees>-6.11204582266509532928466796875</LongitudeDegrees>
            </Position>
            <AltitudeMeters>154.399993896484375</AltitudeMeters>
            <DistanceMeters>NAN</DistanceMeters>
          </Trackpoint>
          <Trackpoint>
            <Time>2019-10-10T12:32:45.000Z</Time>
            <Position>
              <LatitudeDegrees>37.60242638178169727325439453125</LatitudeDegrees>
              <LongitudeDegrees>-6.11198849044740200042724609375</LongitudeDegrees>
            </Position>
            <AltitudeMeters>156</AltitudeMeters>
            <DistanceMeters>NAN</DistanceMeters>
          </Trackpoint>
          <Trackpoint>
            <Time>2019-10-10T12:32:46.000Z</Time>
            <Position>
              <LatitudeDegrees>37.60234884917736053466796875</LatitudeDegrees>
              <LongitudeDegrees>-6.1119682900607585906982421875</LongitudeDegrees>
            </Position>
            <AltitudeMeters>155</AltitudeMeters>
            <DistanceMeters>NAN</DistanceMeters>
          </Trackpoint>
          <Trackpoint>
            <Time>2019-10-10T12:32:47.000Z</Time>
            <Position>
              <LatitudeDegrees>37.6022719033062458038330078125</LatitudeDegrees>
              <LongitudeDegrees>-6.1119496822357177734375</LongitudeDegrees>
            </Position>
            <AltitudeMeters>154.1999969482421875</AltitudeMeters>
            <DistanceMeters>NAN</DistanceMeters>
          </Trackpoint>
          <Trackpoint>
            <Time>2019-10-10T12:32:48.000Z</Time>
            <Position>
              <LatitudeDegrees>37.60219587944447994232177734375</LatitudeDegrees>
              <LongitudeDegrees>-6.11193149350583553314208984375</LongitudeDegrees>
            </Position>
            <AltitudeMeters>153.399993896484375</AltitudeMeters>
            <DistanceMeters>NAN</DistanceMeters>
          </Trackpoint>
          <Trackpoint>
            <Time>2019-10-10T12:32:49.000Z</Time>
            <Position>
              <LatitudeDegrees>37.6021196879446506500244140625</LatitudeDegrees>
              <LongitudeDegrees>-6.1119119636714458465576171875</LongitudeDegrees>
            </Position>
            <AltitudeMeters>153.8000030517578125</AltitudeMeters>
            <DistanceMeters>NAN</DistanceMeters>
          </Trackpoint>
          <Trackpoint>
            <Time>2019-10-10T12:32:54.000Z</Time>
            <Position>
              <LatitudeDegrees>37.6017487049102783203125</LatitudeDegrees>
              <LongitudeDegrees>-6.1118195950984954833984375</LongitudeDegrees>
            </Position>
            <AltitudeMeters>153.8000030517578125</AltitudeMeters>
            <DistanceMeters>NAN</DistanceMeters>
          </Trackpoint>
          <Trackpoint>
            <Time>2019-10-10T12:32:57.000Z</Time>
            <Position>
              <LatitudeDegrees>37.601524405181407928466796875</LatitudeDegrees>
              <LongitudeDegrees>-6.111769974231719970703125</LongitudeDegrees>
            </Position>
            <AltitudeMeters>153.600006103515625</AltitudeMeters>
            <DistanceMeters>NAN</DistanceMeters>
          </Trackpoint>
          <Trackpoint>
            <Time>2019-10-10T12:32:58.000Z</Time>
            <Position>
              <LatitudeDegrees>37.60144921950995922088623046875</LatitudeDegrees>
              <LongitudeDegrees>-6.1117523722350597381591796875</LongitudeDegrees>
            </Position>
            <AltitudeMeters>153.600006103515625</AltitudeMeters>
            <DistanceMeters>NAN</DistanceMeters>
          </Trackpoint>
          <Trackpoint>
            <Time>2019-10-10T12:33:03.000Z</Time>
            <Position>
              <LatitudeDegrees>37.60106968693435192108154296875</LatitudeDegrees>
              <LongitudeDegrees>-6.11166830174624919891357421875</LongitudeDegrees>
            </Position>
            <AltitudeMeters>152</AltitudeMeters>
            <DistanceMeters>NAN</DistanceMeters>
          </Trackpoint>
          <Trackpoint>
            <Time>2019-10-10T12:33:04.000Z</Time>
            <Position>
              <LatitudeDegrees>37.60098896920680999755859375</LatitudeDegrees>
              <LongitudeDegrees>-6.11165321432054042816162109375</LongitudeDegrees>
            </Position>
            <AltitudeMeters>150.8000030517578125</AltitudeMeters>
            <DistanceMeters>NAN</DistanceMeters>
          </Trackpoint>
          <Trackpoint>
            <Time>2019-10-10T12:33:07.000Z</Time>
            <Position>
              <LatitudeDegrees>37.600737847387790679931640625</LatitudeDegrees>
              <LongitudeDegrees>-6.1116152442991733551025390625</LongitudeDegrees>
            </Position>
            <AltitudeMeters>149.600006103515625</AltitudeMeters>
            <DistanceMeters>NAN</DistanceMeters>
          </Trackpoint>
          <Trackpoint>
            <Time>2019-10-10T12:33:10.000Z</Time>
            <Position>
              <LatitudeDegrees>37.60046618990600109100341796875</LatitudeDegrees>
              <LongitudeDegrees>-6.11159026622772216796875</LongitudeDegrees>
            </Position>
            <AltitudeMeters>148</AltitudeMeters>
            <DistanceMeters>NAN</DistanceMeters>
          </Trackpoint>
          <Trackpoint>
            <Time>2019-10-10T12:33:11.000Z</Time>
            <Position>
              <LatitudeDegrees>37.60037214495241641998291015625</LatitudeDegrees>
              <LongitudeDegrees>-6.11158615909516811370849609375</LongitudeDegrees>
            </Position>
            <AltitudeMeters>146.600006103515625</AltitudeMeters>
            <DistanceMeters>NAN</DistanceMeters>
          </Trackpoint>
          <Trackpoint>
            <Time>2019-10-10T12:33:12.000Z</Time>
            <Position>
              <LatitudeDegrees>37.6002773456275463104248046875</LatitudeDegrees>
              <LongitudeDegrees>-6.1115833930671215057373046875</LongitudeDegrees>
            </Position>
            <AltitudeMeters>145.600006103515625</AltitudeMeters>
            <DistanceMeters>NAN</DistanceMeters>
          </Trackpoint>
          <Trackpoint>
            <Time>2019-10-10T12:33:14.000Z</Time>
            <Position>
              <LatitudeDegrees>37.60008280165493488311767578125</LatitudeDegrees>
              <LongitudeDegrees>-6.1115833930671215057373046875</LongitudeDegrees>
            </Position>
            <AltitudeMeters>144.8000030517578125</AltitudeMeters>
            <DistanceMeters>NAN</DistanceMeters>
          </Trackpoint>
          <Trackpoint>
            <Time>2019-10-10T12:33:15.000Z</Time>
            <Position>
              <LatitudeDegrees>37.599984817206859588623046875</LatitudeDegrees>
              <LongitudeDegrees>-6.11158565618097782135009765625</LongitudeDegrees>
            </Position>
            <AltitudeMeters>144.1999969482421875</AltitudeMeters>
            <DistanceMeters>NAN</DistanceMeters>
          </Trackpoint>
          <Trackpoint>
            <Time>2019-10-10T12:33:18.000Z</Time>
            <Position>
              <LatitudeDegrees>37.59968030266463756561279296875</LatitudeDegrees>
              <LongitudeDegrees>-6.11160560511052608489990234375</LongitudeDegrees>
            </Position>
            <AltitudeMeters>143</AltitudeMeters>
            <DistanceMeters>NAN</DistanceMeters>
          </Trackpoint>
          <Trackpoint>
            <Time>2019-10-10T12:33:20.000Z</Time>
            <Position>
              <LatitudeDegrees>37.5994700007140636444091796875</LatitudeDegrees>
              <LongitudeDegrees>-6.11162588931620121002197265625</LongitudeDegrees>
            </Position>
            <AltitudeMeters>141.600006103515625</AltitudeMeters>
            <DistanceMeters>NAN</DistanceMeters>
          </Trackpoint>
          <Trackpoint>
            <Time>2019-10-10T12:33:21.000Z</Time>
            <Position>
              <LatitudeDegrees>37.59936296381056308746337890625</LatitudeDegrees>
              <LongitudeDegrees>-6.11164030618965625762939453125</LongitudeDegrees>
            </Position>
            <AltitudeMeters>140.399993896484375</AltitudeMeters>
            <DistanceMeters>NAN</DistanceMeters>
          </Trackpoint>
          <Trackpoint>
            <Time>2019-10-10T12:33:22.000Z</Time>
            <Position>
              <LatitudeDegrees>37.59925466962158679962158203125</LatitudeDegrees>
              <LongitudeDegrees>-6.11165287904441356658935546875</LongitudeDegrees>
            </Position>
            <AltitudeMeters>139.1999969482421875</AltitudeMeters>
            <DistanceMeters>NAN</DistanceMeters>
          </Trackpoint>
          <Trackpoint>
            <Time>2019-10-10T12:33:24.000Z</Time>
            <Position>
              <LatitudeDegrees>37.59903674013912677764892578125</LatitudeDegrees>
              <LongitudeDegrees>-6.1116812936961650848388671875</LongitudeDegrees>
            </Position>
            <AltitudeMeters>137.399993896484375</AltitudeMeters>
            <DistanceMeters>NAN</DistanceMeters>
          </Trackpoint>
          <Trackpoint>
            <Time>2019-10-10T12:33:25.000Z</Time>
            <Position>
              <LatitudeDegrees>37.59892676956951618194580078125</LatitudeDegrees>
              <LongitudeDegrees>-6.111697889864444732666015625</LongitudeDegrees>
            </Position>
            <AltitudeMeters>136.8000030517578125</AltitudeMeters>
            <DistanceMeters>NAN</DistanceMeters>
          </Trackpoint>
          <Trackpoint>
            <Time>2019-10-10T12:33:26.000Z</Time>
            <Position>
              <LatitudeDegrees>37.5988158769905567169189453125</LatitudeDegrees>
              <LongitudeDegrees>-6.11171431839466094970703125</LongitudeDegrees>
            </Position>
            <AltitudeMeters>135.399993896484375</AltitudeMeters>
            <DistanceMeters>NAN</DistanceMeters>
          </Trackpoint>
          <Trackpoint>
            <Time>2019-10-10T12:33:27.000Z</Time>
            <Position>
              <LatitudeDegrees>37.59870599023997783660888671875</LatitudeDegrees>
              <LongitudeDegrees>-6.11173150129616260528564453125</LongitudeDegrees>
            </Position>
            <AltitudeMeters>134.8000030517578125</AltitudeMeters>
            <DistanceMeters>NAN</DistanceMeters>
          </Trackpoint>
          <Trackpoint>
            <Time>2019-10-10T12:33:28.000Z</Time>
            <Position>
              <LatitudeDegrees>37.59859635494649410247802734375</LatitudeDegrees>
              <LongitudeDegrees>-6.11174876801669597625732421875</LongitudeDegrees>
            </Position>
            <AltitudeMeters>133</AltitudeMeters>
            <DistanceMeters>NAN</DistanceMeters>
          </Trackpoint>
          <Trackpoint>
            <Time>2019-10-10T12:33:30.000Z</Time>
            <Position>
              <LatitudeDegrees>37.59837909601628780364990234375</LatitudeDegrees>
              <LongitudeDegrees>-6.1117802001535892486572265625</LongitudeDegrees>
            </Position>
            <AltitudeMeters>131.399993896484375</AltitudeMeters>
            <DistanceMeters>NAN</DistanceMeters>
          </Trackpoint>
          <Trackpoint>
            <Time>2019-10-10T12:33:32.000Z</Time>
            <Position>
              <LatitudeDegrees>37.5981667824089527130126953125</LatitudeDegrees>
              <LongitudeDegrees>-6.11181615851819515228271484375</LongitudeDegrees>
            </Position>
            <AltitudeMeters>130.1999969482421875</AltitudeMeters>
            <DistanceMeters>NAN</DistanceMeters>
          </Trackpoint>
          <Trackpoint>
            <Time>2019-10-10T12:33:35.000Z</Time>
            <Position>
              <LatitudeDegrees>37.59785422123968601226806640625</LatitudeDegrees>
              <LongitudeDegrees>-6.111886315047740936279296875</LongitudeDegrees>
            </Position>
            <AltitudeMeters>128.399993896484375</AltitudeMeters>
            <DistanceMeters>NAN</DistanceMeters>
          </Trackpoint>
          <Trackpoint>
            <Time>2019-10-10T12:33:36.000Z</Time>
            <Position>
              <LatitudeDegrees>37.59775112383067607879638671875</LatitudeDegrees>
              <LongitudeDegrees>-6.1119216866791248321533203125</LongitudeDegrees>
            </Position>
            <AltitudeMeters>128.600006103515625</AltitudeMeters>
            <DistanceMeters>NAN</DistanceMeters>
          </Trackpoint>
          <Trackpoint>
            <Time>2019-10-10T12:33:37.000Z</Time>
            <Position>
              <LatitudeDegrees>37.59764685295522212982177734375</LatitudeDegrees>
              <LongitudeDegrees>-6.111950017511844635009765625</LongitudeDegrees>
            </Position>
            <AltitudeMeters>128</AltitudeMeters>
            <DistanceMeters>NAN</DistanceMeters>
          </Trackpoint>
          <Trackpoint>
            <Time>2019-10-10T12:33:38.000Z</Time>
            <Position>
              <LatitudeDegrees>37.597541324794292449951171875</LatitudeDegrees>
              <LongitudeDegrees>-6.11197239719331264495849609375</LongitudeDegrees>
            </Position>
            <AltitudeMeters>127.8000030517578125</AltitudeMeters>
            <DistanceMeters>NAN</DistanceMeters>
          </Trackpoint>
          <Trackpoint>
            <Time>2019-10-10T12:33:39.000Z</Time>
            <Position>
              <LatitudeDegrees>37.5974355451762676239013671875</LatitudeDegrees>
              <LongitudeDegrees>-6.11199284903705120086669921875</LongitudeDegrees>
            </Position>
            <AltitudeMeters>126.1999969482421875</AltitudeMeters>
            <DistanceMeters>NAN</DistanceMeters>
          </Trackpoint>
          <Trackpoint>
            <Time>2019-10-10T12:33:41.000Z</Time>
            <Position>
              <LatitudeDegrees>37.597221471369266510009765625</LatitudeDegrees>
              <LongitudeDegrees>-6.11203207634389400482177734375</LongitudeDegrees>
            </Position>
            <AltitudeMeters>125</AltitudeMeters>
            <DistanceMeters>NAN</DistanceMeters>
          </Trackpoint>
          <Trackpoint>
            <Time>2019-10-10T12:33:42.000Z</Time>
            <Position>
              <LatitudeDegrees>37.59711451828479766845703125</LatitudeDegrees>
              <LongitudeDegrees>-6.11204900778830051422119140625</LongitudeDegrees>
            </Position>
            <AltitudeMeters>124.40000152587890625</AltitudeMeters>
            <DistanceMeters>NAN</DistanceMeters>
          </Trackpoint>
          <Trackpoint>
            <Time>2019-10-10T12:33:44.000Z</Time>
            <Position>
              <LatitudeDegrees>37.5968991033732891082763671875</LatitudeDegrees>
              <LongitudeDegrees>-6.11208672635257244110107421875</LongitudeDegrees>
            </Position>
            <AltitudeMeters>123.40000152587890625</AltitudeMeters>
            <DistanceMeters>NAN</DistanceMeters>
          </Trackpoint>
          <Trackpoint>
            <Time>2019-10-10T12:33:46.000Z</Time>
            <Position>
              <LatitudeDegrees>37.59668142534792423248291015625</LatitudeDegrees>
              <LongitudeDegrees>-6.1121251992881298065185546875</LongitudeDegrees>
            </Position>
            <AltitudeMeters>122.1999969482421875</AltitudeMeters>
            <DistanceMeters>NAN</DistanceMeters>
          </Trackpoint>
          <Trackpoint>
            <Time>2019-10-10T12:33:48.000Z</Time>
            <Position>
              <LatitudeDegrees>37.5964622385799884796142578125</LatitudeDegrees>
              <LongitudeDegrees>-6.11216266639530658721923828125</LongitudeDegrees>
            </Position>
            <AltitudeMeters>121.59999847412109375</AltitudeMeters>
            <DistanceMeters>NAN</DistanceMeters>
          </Trackpoint>
          <Trackpoint>
            <Time>2019-10-10T12:33:49.000Z</Time>
            <Position>
              <LatitudeDegrees>37.59635469876229763031005859375</LatitudeDegrees>
              <LongitudeDegrees>-6.11218362115323543548583984375</LongitudeDegrees>
            </Position>
            <AltitudeMeters>121.1999969482421875</AltitudeMeters>
            <DistanceMeters>NAN</DistanceMeters>
          </Trackpoint>
          <Trackpoint>
            <Time>2019-10-10T12:33:50.000Z</Time>
            <Position>
              <LatitudeDegrees>37.59624673984944820404052734375</LatitudeDegrees>
              <LongitudeDegrees>-6.1122056655585765838623046875</LongitudeDegrees>
            </Position>
            <AltitudeMeters>120.8000030517578125</AltitudeMeters>
            <DistanceMeters>NAN</DistanceMeters>
          </Trackpoint>
          <Trackpoint>
            <Time>2019-10-10T12:33:52.000Z</Time>
            <Position>
              <LatitudeDegrees>37.59602964855730533599853515625</LatitudeDegrees>
              <LongitudeDegrees>-6.11224547959864139556884765625</LongitudeDegrees>
            </Position>
            <AltitudeMeters>120</AltitudeMeters>
            <DistanceMeters>NAN</DistanceMeters>
          </Trackpoint>
          <Trackpoint>
            <Time>2019-10-10T12:33:53.000Z</Time>
            <Position>
              <LatitudeDegrees>37.59592202492058277130126953125</LatitudeDegrees>
              <LongitudeDegrees>-6.1122643388807773590087890625</LongitudeDegrees>
            </Position>
            <AltitudeMeters>120</AltitudeMeters>
            <DistanceMeters>NAN</DistanceMeters>
          </Trackpoint>
          <Trackpoint>
            <Time>2019-10-10T12:33:54.000Z</Time>
            <Position>
              <LatitudeDegrees>37.59581507183611392974853515625</LatitudeDegrees>
              <LongitudeDegrees>-6.1122834496200084686279296875</LongitudeDegrees>
            </Position>
            <AltitudeMeters>119.59999847412109375</AltitudeMeters>
            <DistanceMeters>NAN</DistanceMeters>
          </Trackpoint>
          <Trackpoint>
            <Time>2019-10-10T12:33:57.000Z</Time>
            <Position>
              <LatitudeDegrees>37.595504187047481536865234375</LatitudeDegrees>
              <LongitudeDegrees>-6.112336255609989166259765625</LongitudeDegrees>
            </Position>
            <AltitudeMeters>119</AltitudeMeters>
            <DistanceMeters>NAN</DistanceMeters>
          </Trackpoint>
          <Trackpoint>
            <Time>2019-10-10T12:33:58.000Z</Time>
            <Position>
              <LatitudeDegrees>37.59540502913296222686767578125</LatitudeDegrees>
              <LongitudeDegrees>-6.11235276795923709869384765625</LongitudeDegrees>
            </Position>
            <AltitudeMeters>118.1999969482421875</AltitudeMeters>
            <DistanceMeters>NAN</DistanceMeters>
          </Trackpoint>
          <Trackpoint>
            <Time>2019-10-10T12:33:59.000Z</Time>
            <Position>
              <LatitudeDegrees>37.59530561976134777069091796875</LatitudeDegrees>
              <LongitudeDegrees>-6.11237070523202419281005859375</LongitudeDegrees>
            </Position>
            <AltitudeMeters>118</AltitudeMeters>
            <DistanceMeters>NAN</DistanceMeters>
          </Trackpoint>
          <Trackpoint>
            <Time>2019-10-10T12:34:00.000Z</Time>
            <Position>
              <LatitudeDegrees>37.5952079705893993377685546875</LatitudeDegrees>
              <LongitudeDegrees>-6.11238864250481128692626953125</LongitudeDegrees>
            </Position>
            <AltitudeMeters>117.59999847412109375</AltitudeMeters>
            <DistanceMeters>NAN</DistanceMeters>
          </Trackpoint>
          <Trackpoint>
            <Time>2019-10-10T12:34:01.000Z</Time>
            <Position>
              <LatitudeDegrees>37.59511216543614864349365234375</LatitudeDegrees>
              <LongitudeDegrees>-6.11240892671048641204833984375</LongitudeDegrees>
            </Position>
            <AltitudeMeters>117.40000152587890625</AltitudeMeters>
            <DistanceMeters>NAN</DistanceMeters>
          </Trackpoint>
          <Trackpoint>
            <Time>2019-10-10T12:34:03.000Z</Time>
            <Position>
              <LatitudeDegrees>37.59492223151028156280517578125</LatitudeDegrees>
              <LongitudeDegrees>-6.11244882456958293914794921875</LongitudeDegrees>
            </Position>
            <AltitudeMeters>116.59999847412109375</AltitudeMeters>
            <DistanceMeters>NAN</DistanceMeters>
          </Trackpoint>
          <Trackpoint>
            <Time>2019-10-10T12:34:04.000Z</Time>
            <Position>
              <LatitudeDegrees>37.594826258718967437744140625</LatitudeDegrees>
              <LongitudeDegrees>-6.11246810294687747955322265625</LongitudeDegrees>
            </Position>
            <AltitudeMeters>116.59999847412109375</AltitudeMeters>
            <DistanceMeters>NAN</DistanceMeters>
          </Trackpoint>
          <Trackpoint>
            <Time>2019-10-10T12:34:05.000Z</Time>
            <Position>
              <LatitudeDegrees>37.5947305373847484588623046875</LatitudeDegrees>
              <LongitudeDegrees>-6.11248889006674289703369140625</LongitudeDegrees>
            </Position>
            <AltitudeMeters>116.59999847412109375</AltitudeMeters>
            <DistanceMeters>NAN</DistanceMeters>
          </Trackpoint>
          <Trackpoint>
            <Time>2019-10-10T12:34:06.000Z</Time>
            <Position>
              <LatitudeDegrees>37.59463481605052947998046875</LatitudeDegrees>
              <LongitudeDegrees>-6.112509258091449737548828125</LongitudeDegrees>
            </Position>
            <AltitudeMeters>116.1999969482421875</AltitudeMeters>
            <DistanceMeters>NAN</DistanceMeters>
          </Trackpoint>
          <Trackpoint>
            <Time>2019-10-10T12:34:07.000Z</Time>
            <Position>
              <LatitudeDegrees>37.59453800506889820098876953125</LatitudeDegrees>
              <LongitudeDegrees>-6.1125295422971248626708984375</LongitudeDegrees>
            </Position>
            <AltitudeMeters>115.40000152587890625</AltitudeMeters>
            <DistanceMeters>NAN</DistanceMeters>
          </Trackpoint>
          <Trackpoint>
            <Time>2019-10-10T12:34:09.000Z</Time>
            <Position>
              <LatitudeDegrees>37.59434522129595279693603515625</LatitudeDegrees>
              <LongitudeDegrees>-6.1125805042684078216552734375</LongitudeDegrees>
            </Position>
            <AltitudeMeters>113.59999847412109375</AltitudeMeters>
            <DistanceMeters>NAN</DistanceMeters>
          </Trackpoint>
          <Trackpoint>
            <Time>2019-10-10T12:34:10.000Z</Time>
            <Position>
              <LatitudeDegrees>37.5942480750381946563720703125</LatitudeDegrees>
              <LongitudeDegrees>-6.11260615289211273193359375</LongitudeDegrees>
            </Position>
            <AltitudeMeters>112.8000030517578125</AltitudeMeters>
            <DistanceMeters>NAN</DistanceMeters>
          </Trackpoint>
          <Trackpoint>
            <Time>2019-10-10T12:34:11.000Z</Time>
            <Position>
              <LatitudeDegrees>37.59415067732334136962890625</LatitudeDegrees>
              <LongitudeDegrees>-6.11263255588710308074951171875</LongitudeDegrees>
            </Position>
            <AltitudeMeters>111.8000030517578125</AltitudeMeters>
            <DistanceMeters>NAN</DistanceMeters>
          </Trackpoint>
          <Trackpoint>
            <Time>2019-10-10T12:34:14.000Z</Time>
            <Position>
              <LatitudeDegrees>37.5938621722161769866943359375</LatitudeDegrees>
              <LongitudeDegrees>-6.1127240024507045745849609375</LongitudeDegrees>
            </Position>
            <AltitudeMeters>110.59999847412109375</AltitudeMeters>
            <DistanceMeters>NAN</DistanceMeters>
          </Trackpoint>
          <Trackpoint>
            <Time>2019-10-10T12:34:16.000Z</Time>
            <Position>
              <LatitudeDegrees>37.59366561658680438995361328125</LatitudeDegrees>
              <LongitudeDegrees>-6.11278611235320568084716796875</LongitudeDegrees>
            </Position>
            <AltitudeMeters>109.8000030517578125</AltitudeMeters>
            <DistanceMeters>NAN</DistanceMeters>
          </Trackpoint>
          <Trackpoint>
            <Time>2019-10-10T12:34:17.000Z</Time>
            <Position>
              <LatitudeDegrees>37.5935671292245388031005859375</LatitudeDegrees>
              <LongitudeDegrees>-6.11281930468976497650146484375</LongitudeDegrees>
            </Position>
            <AltitudeMeters>109.40000152587890625</AltitudeMeters>
            <DistanceMeters>NAN</DistanceMeters>
          </Trackpoint>
          <Trackpoint>
            <Time>2019-10-10T12:34:19.000Z</Time>
            <Position>
              <LatitudeDegrees>37.5933709926903247833251953125</LatitudeDegrees>
              <LongitudeDegrees>-6.11288937740027904510498046875</LongitudeDegrees>
            </Position>
            <AltitudeMeters>108.1999969482421875</AltitudeMeters>
            <DistanceMeters>NAN</DistanceMeters>
          </Trackpoint>
          <Trackpoint>
            <Time>2019-10-10T12:34:24.000Z</Time>
            <Position>
              <LatitudeDegrees>37.59286967106163501739501953125</LatitudeDegrees>
              <LongitudeDegrees>-6.11306355334818363189697265625</LongitudeDegrees>
            </Position>
            <AltitudeMeters>106.8000030517578125</AltitudeMeters>
            <DistanceMeters>NAN</DistanceMeters>
          </Trackpoint>
          <Trackpoint>
            <Time>2019-10-10T12:34:26.000Z</Time>
            <Position>
              <LatitudeDegrees>37.5926726125180721282958984375</LatitudeDegrees>
              <LongitudeDegrees>-6.11313412897288799285888671875</LongitudeDegrees>
            </Position>
            <AltitudeMeters>105.8000030517578125</AltitudeMeters>
            <DistanceMeters>NAN</DistanceMeters>
          </Trackpoint>
          <Trackpoint>
            <Time>2019-10-10T12:34:28.000Z</Time>
            <Position>
              <LatitudeDegrees>37.59247890673577785491943359375</LatitudeDegrees>
              <LongitudeDegrees>-6.11320001073181629180908203125</LongitudeDegrees>
            </Position>
            <AltitudeMeters>104.40000152587890625</AltitudeMeters>
            <DistanceMeters>NAN</DistanceMeters>
          </Trackpoint>
          <Trackpoint>
            <Time>2019-10-10T12:34:32.000Z</Time>
            <Position>
              <LatitudeDegrees>37.59211412630975246429443359375</LatitudeDegrees>
              <LongitudeDegrees>-6.1133135855197906494140625</LongitudeDegrees>
            </Position>
            <AltitudeMeters>104.8000030517578125</AltitudeMeters>
            <DistanceMeters>NAN</DistanceMeters>
          </Trackpoint>
          <Trackpoint>
            <Time>2019-10-10T12:34:33.000Z</Time>
            <Position>
              <LatitudeDegrees>37.592025697231292724609375</LatitudeDegrees>
              <LongitudeDegrees>-6.11333764158189296722412109375</LongitudeDegrees>
            </Position>
            <AltitudeMeters>104.8000030517578125</AltitudeMeters>
            <DistanceMeters>NAN</DistanceMeters>
          </Trackpoint>
          <Trackpoint>
            <Time>2019-10-10T12:34:37.000Z</Time>
            <Position>
              <LatitudeDegrees>37.5916818715631961822509765625</LatitudeDegrees>
              <LongitudeDegrees>-6.1134069599211215972900390625</LongitudeDegrees>
            </Position>
            <AltitudeMeters>104.1999969482421875</AltitudeMeters>
            <DistanceMeters>NAN</DistanceMeters>
          </Trackpoint>
          <Trackpoint>
            <Time>2019-10-10T12:34:40.000Z</Time>
            <Position>
              <LatitudeDegrees>37.59143385104835033416748046875</LatitudeDegrees>
              <LongitudeDegrees>-6.113432943820953369140625</LongitudeDegrees>
            </Position>
            <AltitudeMeters>104</AltitudeMeters>
            <DistanceMeters>NAN</DistanceMeters>
          </Trackpoint>
          <Trackpoint>
            <Time>2019-10-10T12:34:45.000Z</Time>
            <Position>
              <LatitudeDegrees>37.5910227186977863311767578125</LatitudeDegrees>
              <LongitudeDegrees>-6.1134270764887332916259765625</LongitudeDegrees>
            </Position>
            <AltitudeMeters>103.40000152587890625</AltitudeMeters>
            <DistanceMeters>NAN</DistanceMeters>
          </Trackpoint>
          <Trackpoint>
            <Time>2019-10-10T12:34:46.000Z</Time>
            <Position>
              <LatitudeDegrees>37.5909415818750858306884765625</LatitudeDegrees>
              <LongitudeDegrees>-6.11342129297554492950439453125</LongitudeDegrees>
            </Position>
            <AltitudeMeters>103.40000152587890625</AltitudeMeters>
            <DistanceMeters>NAN</DistanceMeters>
          </Trackpoint>
          <Trackpoint>
            <Time>2019-10-10T12:34:48.000Z</Time>
            <Position>
              <LatitudeDegrees>37.59077779948711395263671875</LatitudeDegrees>
              <LongitudeDegrees>-6.113405115902423858642578125</LongitudeDegrees>
            </Position>
            <AltitudeMeters>103.40000152587890625</AltitudeMeters>
            <DistanceMeters>NAN</DistanceMeters>
          </Trackpoint>
          <Trackpoint>
            <Time>2019-10-10T12:34:51.000Z</Time>
            <Position>
              <LatitudeDegrees>37.59053329937160015106201171875</LatitudeDegrees>
              <LongitudeDegrees>-6.11336521804332733154296875</LongitudeDegrees>
            </Position>
            <AltitudeMeters>101.8000030517578125</AltitudeMeters>
            <DistanceMeters>NAN</DistanceMeters>
          </Trackpoint>
          <Trackpoint>
            <Time>2019-10-10T12:34:54.000Z</Time>
            <Position>
              <LatitudeDegrees>37.59028963744640350341796875</LatitudeDegrees>
              <LongitudeDegrees>-6.1133013479411602020263671875</LongitudeDegrees>
            </Position>
            <AltitudeMeters>100.8000030517578125</AltitudeMeters>
            <DistanceMeters>NAN</DistanceMeters>
          </Trackpoint>
          <Trackpoint>
            <Time>2019-10-10T12:34:55.000Z</Time>
            <Position>
              <LatitudeDegrees>37.59020724333822727203369140625</LatitudeDegrees>
              <LongitudeDegrees>-6.11327896825969219207763671875</LongitudeDegrees>
            </Position>
            <AltitudeMeters>100.40000152587890625</AltitudeMeters>
            <DistanceMeters>NAN</DistanceMeters>
          </Trackpoint>
          <Trackpoint>
            <Time>2019-10-10T12:35:01.000Z</Time>
            <Position>
              <LatitudeDegrees>37.5897122919559478759765625</LatitudeDegrees>
              <LongitudeDegrees>-6.11307579092681407928466796875</LongitudeDegrees>
            </Position>
            <AltitudeMeters>99.59999847412109375</AltitudeMeters>
            <DistanceMeters>NAN</DistanceMeters>
          </Trackpoint>
          <Trackpoint>
            <Time>2019-10-10T12:35:02.000Z</Time>
            <Position>
              <LatitudeDegrees>37.5896293111145496368408203125</LatitudeDegrees>
              <LongitudeDegrees>-6.1130374856293201446533203125</LongitudeDegrees>
            </Position>
            <AltitudeMeters>99.1999969482421875</AltitudeMeters>
            <DistanceMeters>NAN</DistanceMeters>
          </Trackpoint>
          <Trackpoint>
            <Time>2019-10-10T12:35:08.000Z</Time>
            <Position>
              <LatitudeDegrees>37.5891827233135700225830078125</LatitudeDegrees>
              <LongitudeDegrees>-6.112807653844356536865234375</LongitudeDegrees>
            </Position>
            <AltitudeMeters>100.1999969482421875</AltitudeMeters>
            <DistanceMeters>NAN</DistanceMeters>
          </Trackpoint>
          <Trackpoint>
            <Time>2019-10-10T12:35:12.000Z</Time>
            <Position>
              <LatitudeDegrees>37.5889530591666698455810546875</LatitudeDegrees>
              <LongitudeDegrees>-6.112698353826999664306640625</LongitudeDegrees>
            </Position>
            <AltitudeMeters>101.40000152587890625</AltitudeMeters>
            <DistanceMeters>NAN</DistanceMeters>
          </Trackpoint>
          <Trackpoint>
            <Time>2019-10-10T12:35:13.000Z</Time>
            <Position>
              <LatitudeDegrees>37.58890503086149692535400390625</LatitudeDegrees>
              <LongitudeDegrees>-6.11267396248877048492431640625</LongitudeDegrees>
            </Position>
            <AltitudeMeters>101.8000030517578125</AltitudeMeters>
            <DistanceMeters>NAN</DistanceMeters>
          </Trackpoint>
          <Trackpoint>
            <Time>2019-10-10T12:35:14.000Z</Time>
            <Position>
              <LatitudeDegrees>37.588859684765338897705078125</LatitudeDegrees>
              <LongitudeDegrees>-6.11265040934085845947265625</LongitudeDegrees>
            </Position>
            <AltitudeMeters>102.59999847412109375</AltitudeMeters>
            <DistanceMeters>NAN</DistanceMeters>
          </Trackpoint>
          <Trackpoint>
            <Time>2019-10-10T12:35:16.000Z</Time>
            <Position>
              <LatitudeDegrees>37.5887736864387989044189453125</LatitudeDegrees>
              <LongitudeDegrees>-6.1126036383211612701416015625</LongitudeDegrees>
            </Position>
            <AltitudeMeters>103.8000030517578125</AltitudeMeters>
            <DistanceMeters>NAN</DistanceMeters>
          </Trackpoint>
          <Trackpoint>
            <Time>2019-10-10T12:35:19.000Z</Time>
            <Position>
              <LatitudeDegrees>37.58865558542311191558837890625</LatitudeDegrees>
              <LongitudeDegrees>-6.11254370771348476409912109375</LongitudeDegrees>
            </Position>
            <AltitudeMeters>104.1999969482421875</AltitudeMeters>
            <DistanceMeters>NAN</DistanceMeters>
          </Trackpoint>
          <Trackpoint>
            <Time>2019-10-10T12:35:26.000Z</Time>
            <Position>
              <LatitudeDegrees>37.58840412832796573638916015625</LatitudeDegrees>
              <LongitudeDegrees>-6.112417392432689666748046875</LongitudeDegrees>
            </Position>
            <AltitudeMeters>105.1999969482421875</AltitudeMeters>
            <DistanceMeters>NAN</DistanceMeters>
          </Trackpoint>
          <Trackpoint>
            <Time>2019-10-10T12:35:31.000Z</Time>
            <Position>
              <LatitudeDegrees>37.5882291980087757110595703125</LatitudeDegrees>
              <LongitudeDegrees>-6.11232879571616649627685546875</LongitudeDegrees>
            </Position>
            <AltitudeMeters>106.40000152587890625</AltitudeMeters>
            <DistanceMeters>NAN</DistanceMeters>
          </Trackpoint>
          <Trackpoint>
            <Time>2019-10-10T12:35:35.000Z</Time>
            <Position>
              <LatitudeDegrees>37.58808729238808155059814453125</LatitudeDegrees>
              <LongitudeDegrees>-6.11226014792919158935546875</LongitudeDegrees>
            </Position>
            <AltitudeMeters>106.59999847412109375</AltitudeMeters>
            <DistanceMeters>NAN</DistanceMeters>
          </Trackpoint>
          <Trackpoint>
            <Time>2019-10-10T12:35:42.000Z</Time>
            <Position>
              <LatitudeDegrees>37.5878349132835865020751953125</LatitudeDegrees>
              <LongitudeDegrees>-6.11213944852352142333984375</LongitudeDegrees>
            </Position>
            <AltitudeMeters>107</AltitudeMeters>
            <DistanceMeters>NAN</DistanceMeters>
          </Trackpoint>
          <Trackpoint>
            <Time>2019-10-10T12:35:50.000Z</Time>
            <Position>
              <LatitudeDegrees>37.58753123693168163299560546875</LatitudeDegrees>
              <LongitudeDegrees>-6.1120068468153476715087890625</LongitudeDegrees>
            </Position>
            <AltitudeMeters>107</AltitudeMeters>
            <DistanceMeters>NAN</DistanceMeters>
          </Trackpoint>
          <Trackpoint>
            <Time>2019-10-10T12:35:51.000Z</Time>
            <Position>
              <LatitudeDegrees>37.5874914228916168212890625</LatitudeDegrees>
              <LongitudeDegrees>-6.1119897477328777313232421875</LongitudeDegrees>
            </Position>
            <AltitudeMeters>107</AltitudeMeters>
            <DistanceMeters>NAN</DistanceMeters>
          </Trackpoint>
          <Trackpoint>
            <Time>2019-10-10T12:36:01.000Z</Time>
            <Position>
              <LatitudeDegrees>37.587084062397480010986328125</LatitudeDegrees>
              <LongitudeDegrees>-6.11184096895158290863037109375</LongitudeDegrees>
            </Position>
            <AltitudeMeters>106.59999847412109375</AltitudeMeters>
            <DistanceMeters>NAN</DistanceMeters>
          </Trackpoint>
          <Trackpoint>
            <Time>2019-10-10T12:36:07.000Z</Time>
            <Position>
              <LatitudeDegrees>37.58680385537445545196533203125</LatitudeDegrees>
              <LongitudeDegrees>-6.1117523722350597381591796875</LongitudeDegrees>
            </Position>
            <AltitudeMeters>105.8000030517578125</AltitudeMeters>
            <DistanceMeters>NAN</DistanceMeters>
          </Trackpoint>
          <Trackpoint>
            <Time>2019-10-10T12:36:09.000Z</Time>
            <Position>
              <LatitudeDegrees>37.58670059032738208770751953125</LatitudeDegrees>
              <LongitudeDegrees>-6.111724711954593658447265625</LongitudeDegrees>
            </Position>
            <AltitudeMeters>105.8000030517578125</AltitudeMeters>
            <DistanceMeters>NAN</DistanceMeters>
          </Trackpoint>
          <Trackpoint>
            <Time>2019-10-10T12:36:12.000Z</Time>
            <Position>
              <LatitudeDegrees>37.58653596974909305572509765625</LatitudeDegrees>
              <LongitudeDegrees>-6.11168540082871913909912109375</LongitudeDegrees>
            </Position>
            <AltitudeMeters>105</AltitudeMeters>
            <DistanceMeters>NAN</DistanceMeters>
          </Trackpoint>
          <Trackpoint>
            <Time>2019-10-10T12:36:16.000Z</Time>
            <Position>
              <LatitudeDegrees>37.58630244992673397064208984375</LatitudeDegrees>
              <LongitudeDegrees>-6.1116417311131954193115234375</LongitudeDegrees>
            </Position>
            <AltitudeMeters>104.1999969482421875</AltitudeMeters>
            <DistanceMeters>NAN</DistanceMeters>
          </Trackpoint>
          <Trackpoint>
            <Time>2019-10-10T12:36:18.000Z</Time>
            <Position>
              <LatitudeDegrees>37.5861823372542858123779296875</LatitudeDegrees>
              <LongitudeDegrees>-6.1116212792694568634033203125</LongitudeDegrees>
            </Position>
            <AltitudeMeters>103.8000030517578125</AltitudeMeters>
            <DistanceMeters>NAN</DistanceMeters>
          </Trackpoint>
          <Trackpoint>
            <Time>2019-10-10T12:36:25.000Z</Time>
            <Position>
              <LatitudeDegrees>37.5857545249164104461669921875</LatitudeDegrees>
              <LongitudeDegrees>-6.111552380025386810302734375</LongitudeDegrees>
            </Position>
            <AltitudeMeters>102.1999969482421875</AltitudeMeters>
            <DistanceMeters>NAN</DistanceMeters>
          </Trackpoint>
          <Trackpoint>
            <Time>2019-10-10T12:36:28.000Z</Time>
            <Position>
              <LatitudeDegrees>37.5855684466660022735595703125</LatitudeDegrees>
              <LongitudeDegrees>-6.11153234727680683135986328125</LongitudeDegrees>
            </Position>
            <AltitudeMeters>101.1999969482421875</AltitudeMeters>
            <DistanceMeters>NAN</DistanceMeters>
          </Trackpoint>
          <Trackpoint>
            <Time>2019-10-10T12:36:31.000Z</Time>
            <Position>
              <LatitudeDegrees>37.5853885710239410400390625</LatitudeDegrees>
              <LongitudeDegrees>-6.11150334589183330535888671875</LongitudeDegrees>
            </Position>
            <AltitudeMeters>102</AltitudeMeters>
            <DistanceMeters>NAN</DistanceMeters>
          </Trackpoint>
          <Trackpoint>
            <Time>2019-10-10T12:36:32.000Z</Time>
            <Position>
              <LatitudeDegrees>37.5853295624256134033203125</LatitudeDegrees>
              <LongitudeDegrees>-6.11149295233190059661865234375</LongitudeDegrees>
            </Position>
            <AltitudeMeters>102</AltitudeMeters>
            <DistanceMeters>NAN</DistanceMeters>
          </Trackpoint>
          <Trackpoint>
            <Time>2019-10-10T12:36:34.000Z</Time>
            <Position>
              <LatitudeDegrees>37.58521431125700473785400390625</LatitudeDegrees>
              <LongitudeDegrees>-6.11147426068782806396484375</LongitudeDegrees>
            </Position>
            <AltitudeMeters>102</AltitudeMeters>
            <DistanceMeters>NAN</DistanceMeters>
          </Trackpoint>
          <Trackpoint>
            <Time>2019-10-10T12:36:37.000Z</Time>
            <Position>
              <LatitudeDegrees>37.58504457771778106689453125</LatitudeDegrees>
              <LongitudeDegrees>-6.11144366674125194549560546875</LongitudeDegrees>
            </Position>
            <AltitudeMeters>101.1999969482421875</AltitudeMeters>
            <DistanceMeters>NAN</DistanceMeters>
          </Trackpoint>
          <Trackpoint>
            <Time>2019-10-10T12:36:42.000Z</Time>
            <Position>
              <LatitudeDegrees>37.5847725011408329010009765625</LatitudeDegrees>
              <LongitudeDegrees>-6.111406199634075164794921875</LongitudeDegrees>
            </Position>
            <AltitudeMeters>101.1999969482421875</AltitudeMeters>
            <DistanceMeters>NAN</DistanceMeters>
          </Trackpoint>
          <Trackpoint>
            <Time>2019-10-10T12:36:51.000Z</Time>
            <Position>
              <LatitudeDegrees>37.58430722169578075408935546875</LatitudeDegrees>
              <LongitudeDegrees>-6.1113367974758148193359375</LongitudeDegrees>
            </Position>
            <AltitudeMeters>101.59999847412109375</AltitudeMeters>
            <DistanceMeters>NAN</DistanceMeters>
          </Trackpoint>
          <Trackpoint>
            <Time>2019-10-10T12:36:53.000Z</Time>
            <Position>
              <LatitudeDegrees>37.58421175181865692138671875</LatitudeDegrees>
              <LongitudeDegrees>-6.1113188602030277252197265625</LongitudeDegrees>
            </Position>
            <AltitudeMeters>102.8000030517578125</AltitudeMeters>
            <DistanceMeters>NAN</DistanceMeters>
          </Trackpoint>
          <Trackpoint>
            <Time>2019-10-10T12:36:57.000Z</Time>
            <Position>
              <LatitudeDegrees>37.5840392522513866424560546875</LatitudeDegrees>
              <LongitudeDegrees>-6.11129329539835453033447265625</LongitudeDegrees>
            </Position>
            <AltitudeMeters>103.1999969482421875</AltitudeMeters>
            <DistanceMeters>NAN</DistanceMeters>
          </Trackpoint>
          <Trackpoint>
            <Time>2019-10-10T12:36:58.000Z</Time>
            <Position>
              <LatitudeDegrees>37.5839993543922901153564453125</LatitudeDegrees>
              <LongitudeDegrees>-6.11128776334226131439208984375</LongitudeDegrees>
            </Position>
            <AltitudeMeters>103.59999847412109375</AltitudeMeters>
            <DistanceMeters>NAN</DistanceMeters>
          </Trackpoint>
          <Trackpoint>
            <Time>2019-10-10T12:37:00.000Z</Time>
            <Position>
              <LatitudeDegrees>37.5839232467114925384521484375</LatitudeDegrees>
              <LongitudeDegrees>-6.1112766154110431671142578125</LongitudeDegrees>
            </Position>
            <AltitudeMeters>104.40000152587890625</AltitudeMeters>
            <DistanceMeters>NAN</DistanceMeters>
          </Trackpoint>
          <Trackpoint>
            <Time>2019-10-10T12:37:06.000Z</Time>
            <Position>
              <LatitudeDegrees>37.58371210657060146331787109375</LatitudeDegrees>
              <LongitudeDegrees>-6.1112377233803272247314453125</LongitudeDegrees>
            </Position>
            <AltitudeMeters>105.40000152587890625</AltitudeMeters>
            <DistanceMeters>NAN</DistanceMeters>
          </Trackpoint>
          <Trackpoint>
            <Time>2019-10-10T12:37:07.000Z</Time>
            <Position>
              <LatitudeDegrees>37.583678998053073883056640625</LatitudeDegrees>
              <LongitudeDegrees>-6.1112333647906780242919921875</LongitudeDegrees>
            </Position>
            <AltitudeMeters>105.59999847412109375</AltitudeMeters>
            <DistanceMeters>NAN</DistanceMeters>
          </Trackpoint>
          <Trackpoint>
            <Time>2019-10-10T12:37:11.000Z</Time>
            <Position>
              <LatitudeDegrees>37.5835463963449001312255859375</LatitudeDegrees>
              <LongitudeDegrees>-6.1112176068127155303955078125</LongitudeDegrees>
            </Position>
            <AltitudeMeters>106.59999847412109375</AltitudeMeters>
            <DistanceMeters>NAN</DistanceMeters>
          </Trackpoint>
          <Trackpoint>
            <Time>2019-10-10T12:37:16.000Z</Time>
            <Position>
              <LatitudeDegrees>37.58338831365108489990234375</LatitudeDegrees>
              <LongitudeDegrees>-6.11119489185512065887451171875</LongitudeDegrees>
            </Position>
            <AltitudeMeters>107.1999969482421875</AltitudeMeters>
            <DistanceMeters>NAN</DistanceMeters>
          </Trackpoint>
          <Trackpoint>
            <Time>2019-10-10T12:37:18.000Z</Time>
            <Position>
              <LatitudeDegrees>37.583328299224376678466796875</LatitudeDegrees>
              <LongitudeDegrees>-6.1111839115619659423828125</LongitudeDegrees>
            </Position>
            <AltitudeMeters>107.40000152587890625</AltitudeMeters>
            <DistanceMeters>NAN</DistanceMeters>
          </Trackpoint>
          <Trackpoint>
            <Time>2019-10-10T12:37:19.000Z</Time>
            <Position>
              <LatitudeDegrees>37.58329837583005428314208984375</LatitudeDegrees>
              <LongitudeDegrees>-6.11117921769618988037109375</LongitudeDegrees>
            </Position>
            <AltitudeMeters>107.59999847412109375</AltitudeMeters>
            <DistanceMeters>NAN</DistanceMeters>
          </Trackpoint>
          <Trackpoint>
            <Time>2019-10-10T12:37:22.000Z</Time>
            <Position>
              <LatitudeDegrees>37.58320701308548450469970703125</LatitudeDegrees>
              <LongitudeDegrees>-6.11116991378366947174072265625</LongitudeDegrees>
            </Position>
            <AltitudeMeters>108.1999969482421875</AltitudeMeters>
            <DistanceMeters>NAN</DistanceMeters>
          </Trackpoint>
          <Trackpoint>
            <Time>2019-10-10T12:37:23.000Z</Time>
            <Position>
              <LatitudeDegrees>37.583177089691162109375</LatitudeDegrees>
              <LongitudeDegrees>-6.1111632920801639556884765625</LongitudeDegrees>
            </Position>
            <AltitudeMeters>108.8000030517578125</AltitudeMeters>
            <DistanceMeters>NAN</DistanceMeters>
          </Trackpoint>
          <Trackpoint>
            <Time>2019-10-10T12:37:26.000Z</Time>
            <Position>
              <LatitudeDegrees>37.58308782242238521575927734375</LatitudeDegrees>
              <LongitudeDegrees>-6.11114728264510631561279296875</LongitudeDegrees>
            </Position>
            <AltitudeMeters>109</AltitudeMeters>
            <DistanceMeters>NAN</DistanceMeters>
          </Trackpoint>
          <Trackpoint>
            <Time>2019-10-10T12:37:27.000Z</Time>
            <Position>
              <LatitudeDegrees>37.58305865339934825897216796875</LatitudeDegrees>
              <LongitudeDegrees>-6.11114300787448883056640625</LongitudeDegrees>
            </Position>
            <AltitudeMeters>109.1999969482421875</AltitudeMeters>
            <DistanceMeters>NAN</DistanceMeters>
          </Trackpoint>
          <Trackpoint>
            <Time>2019-10-10T12:37:29.000Z</Time>
            <Position>
              <LatitudeDegrees>37.5829998962581157684326171875</LatitudeDegrees>
              <LongitudeDegrees>-6.1111294291913509368896484375</LongitudeDegrees>
            </Position>
            <AltitudeMeters>109.8000030517578125</AltitudeMeters>
            <DistanceMeters>NAN</DistanceMeters>
          </Trackpoint>
          <Trackpoint>
            <Time>2019-10-10T12:37:34.000Z</Time>
            <Position>
              <LatitudeDegrees>37.58284374140202999114990234375</LatitudeDegrees>
              <LongitudeDegrees>-6.11108710058033466339111328125</LongitudeDegrees>
            </Position>
            <AltitudeMeters>110.59999847412109375</AltitudeMeters>
            <DistanceMeters>NAN</DistanceMeters>
          </Trackpoint>
          <Trackpoint>
            <Time>2019-10-10T12:37:35.000Z</Time>
            <Position>
              <LatitudeDegrees>37.582812644541263580322265625</LatitudeDegrees>
              <LongitudeDegrees>-6.11107771284878253936767578125</LongitudeDegrees>
            </Position>
            <AltitudeMeters>110.59999847412109375</AltitudeMeters>
            <DistanceMeters>NAN</DistanceMeters>
          </Trackpoint>
          <Trackpoint>
            <Time>2019-10-10T12:37:38.000Z</Time>
            <Position>
              <LatitudeDegrees>37.58272404782474040985107421875</LatitudeDegrees>
              <LongitudeDegrees>-6.11105005256831645965576171875</LongitudeDegrees>
            </Position>
            <AltitudeMeters>111</AltitudeMeters>
            <DistanceMeters>NAN</DistanceMeters>
          </Trackpoint>
          <Trackpoint>
            <Time>2019-10-10T12:37:42.000Z</Time>
            <Position>
              <LatitudeDegrees>37.58260586299002170562744140625</LatitudeDegrees>
              <LongitudeDegrees>-6.11100730486214160919189453125</LongitudeDegrees>
            </Position>
            <AltitudeMeters>112</AltitudeMeters>
            <DistanceMeters>NAN</DistanceMeters>
          </Trackpoint>
          <Trackpoint>
            <Time>2019-10-10T12:37:46.000Z</Time>
            <Position>
              <LatitudeDegrees>37.58248331956565380096435546875</LatitudeDegrees>
              <LongitudeDegrees>-6.110958941280841827392578125</LongitudeDegrees>
            </Position>
            <AltitudeMeters>112</AltitudeMeters>
            <DistanceMeters>NAN</DistanceMeters>
          </Trackpoint>
          <Trackpoint>
            <Time>2019-10-10T12:37:49.000Z</Time>
            <Position>
              <LatitudeDegrees>37.5823937170207500457763671875</LatitudeDegrees>
              <LongitudeDegrees>-6.11091828905045986175537109375</LongitudeDegrees>
            </Position>
            <AltitudeMeters>113.1999969482421875</AltitudeMeters>
            <DistanceMeters>NAN</DistanceMeters>
          </Trackpoint>
          <Trackpoint>
            <Time>2019-10-10T12:37:55.000Z</Time>
            <Position>
              <LatitudeDegrees>37.58221216499805450439453125</LatitudeDegrees>
              <LongitudeDegrees>-6.110831536352634429931640625</LongitudeDegrees>
            </Position>
            <AltitudeMeters>113.8000030517578125</AltitudeMeters>
            <DistanceMeters>NAN</DistanceMeters>
          </Trackpoint>
          <Trackpoint>
            <Time>2019-10-10T12:37:56.000Z</Time>
            <Position>
              <LatitudeDegrees>37.58218207396566867828369140625</LatitudeDegrees>
              <LongitudeDegrees>-6.1108146049082279205322265625</LongitudeDegrees>
            </Position>
            <AltitudeMeters>114.1999969482421875</AltitudeMeters>
            <DistanceMeters>NAN</DistanceMeters>
          </Trackpoint>
          <Trackpoint>
            <Time>2019-10-10T12:38:04.000Z</Time>
            <Position>
              <LatitudeDegrees>37.58192642591893672943115234375</LatitudeDegrees>
              <LongitudeDegrees>-6.11067521385848522186279296875</LongitudeDegrees>
            </Position>
            <AltitudeMeters>114.1999969482421875</AltitudeMeters>
            <DistanceMeters>NAN</DistanceMeters>
          </Trackpoint>
          <Trackpoint>
            <Time>2019-10-10T12:38:10.000Z</Time>
            <Position>
              <LatitudeDegrees>37.58173649199306964874267578125</LatitudeDegrees>
              <LongitudeDegrees>-6.11055535264313220977783203125</LongitudeDegrees>
            </Position>
            <AltitudeMeters>115.1999969482421875</AltitudeMeters>
            <DistanceMeters>NAN</DistanceMeters>
          </Trackpoint>
          <Trackpoint>
            <Time>2019-10-10T12:38:12.000Z</Time>
            <Position>
              <LatitudeDegrees>37.58167463354766368865966796875</LatitudeDegrees>
              <LongitudeDegrees>-6.110511682927608489990234375</LongitudeDegrees>
            </Position>
            <AltitudeMeters>115</AltitudeMeters>
            <DistanceMeters>NAN</DistanceMeters>
          </Trackpoint>
          <Trackpoint>
            <Time>2019-10-10T12:38:20.000Z</Time>
            <Position>
              <LatitudeDegrees>37.58140607737004756927490234375</LatitudeDegrees>
              <LongitudeDegrees>-6.11030406318604946136474609375</LongitudeDegrees>
            </Position>
            <AltitudeMeters>114.8000030517578125</AltitudeMeters>
            <DistanceMeters>NAN</DistanceMeters>
          </Trackpoint>
          <Trackpoint>
            <Time>2019-10-10T12:38:24.000Z</Time>
            <Position>
              <LatitudeDegrees>37.58126559667289257049560546875</LatitudeDegrees>
              <LongitudeDegrees>-6.11018051393330097198486328125</LongitudeDegrees>
            </Position>
            <AltitudeMeters>114.1999969482421875</AltitudeMeters>
            <DistanceMeters>NAN</DistanceMeters>
          </Trackpoint>
          <Trackpoint>
            <Time>2019-10-10T12:38:28.000Z</Time>
            <Position>
              <LatitudeDegrees>37.58111287839710712432861328125</LatitudeDegrees>
              <LongitudeDegrees>-6.11003550700843334197998046875</LongitudeDegrees>
            </Position>
            <AltitudeMeters>113.59999847412109375</AltitudeMeters>
            <DistanceMeters>NAN</DistanceMeters>
          </Trackpoint>
          <Trackpoint>
            <Time>2019-10-10T12:38:29.000Z</Time>
            <Position>
              <LatitudeDegrees>37.58107247762382030487060546875</LatitudeDegrees>
              <LongitudeDegrees>-6.109998039901256561279296875</LongitudeDegrees>
            </Position>
            <AltitudeMeters>113.59999847412109375</AltitudeMeters>
            <DistanceMeters>NAN</DistanceMeters>
          </Trackpoint>
          <Trackpoint>
            <Time>2019-10-10T12:38:32.000Z</Time>
            <Position>
              <LatitudeDegrees>37.580945491790771484375</LatitudeDegrees>
              <LongitudeDegrees>-6.1098741553723812103271484375</LongitudeDegrees>
            </Position>
            <AltitudeMeters>113</AltitudeMeters>
            <DistanceMeters>NAN</DistanceMeters>
          </Trackpoint>
          <Trackpoint>
            <Time>2019-10-10T12:38:36.000Z</Time>
            <Position>
              <LatitudeDegrees>37.5807786919176578521728515625</LatitudeDegrees>
              <LongitudeDegrees>-6.10969805158674716949462890625</LongitudeDegrees>
            </Position>
            <AltitudeMeters>112</AltitudeMeters>
            <DistanceMeters>NAN</DistanceMeters>
          </Trackpoint>
          <Trackpoint>
            <Time>2019-10-10T12:38:37.000Z</Time>
            <Position>
              <LatitudeDegrees>37.5807371176779270172119140625</LatitudeDegrees>
              <LongitudeDegrees>-6.10965304076671600341796875</LongitudeDegrees>
            </Position>
            <AltitudeMeters>112.1999969482421875</AltitudeMeters>
            <DistanceMeters>NAN</DistanceMeters>
          </Trackpoint>
          <Trackpoint>
            <Time>2019-10-10T12:38:43.000Z</Time>
            <Position>
              <LatitudeDegrees>37.58046914823353290557861328125</LatitudeDegrees>
              <LongitudeDegrees>-6.10936202108860015869140625</LongitudeDegrees>
            </Position>
            <AltitudeMeters>110.8000030517578125</AltitudeMeters>
            <DistanceMeters>NAN</DistanceMeters>
          </Trackpoint>
          <Trackpoint>
            <Time>2019-10-10T12:38:44.000Z</Time>
            <Position>
              <LatitudeDegrees>37.58041952736675739288330078125</LatitudeDegrees>
              <LongitudeDegrees>-6.10931105911731719970703125</LongitudeDegrees>
            </Position>
            <AltitudeMeters>110.59999847412109375</AltitudeMeters>
            <DistanceMeters>NAN</DistanceMeters>
          </Trackpoint>
          <Trackpoint>
            <Time>2019-10-10T12:38:46.000Z</Time>
            <Position>
              <LatitudeDegrees>37.58031693287193775177001953125</LatitudeDegrees>
              <LongitudeDegrees>-6.10920284874737262725830078125</LongitudeDegrees>
            </Position>
            <AltitudeMeters>109.8000030517578125</AltitudeMeters>
            <DistanceMeters>NAN</DistanceMeters>
          </Trackpoint>
          <Trackpoint>
            <Time>2019-10-10T12:38:49.000Z</Time>
            <Position>
              <LatitudeDegrees>37.58014996536076068878173828125</LatitudeDegrees>
              <LongitudeDegrees>-6.10902967862784862518310546875</LongitudeDegrees>
            </Position>
            <AltitudeMeters>108.59999847412109375</AltitudeMeters>
            <DistanceMeters>NAN</DistanceMeters>
          </Trackpoint>
          <Trackpoint>
            <Time>2019-10-10T12:38:51.000Z</Time>
            <Position>
              <LatitudeDegrees>37.58003764785826206207275390625</LatitudeDegrees>
              <LongitudeDegrees>-6.1089092306792736053466796875</LongitudeDegrees>
            </Position>
            <AltitudeMeters>107.1999969482421875</AltitudeMeters>
            <DistanceMeters>NAN</DistanceMeters>
          </Trackpoint>
          <Trackpoint>
            <Time>2019-10-10T12:38:55.000Z</Time>
            <Position>
              <LatitudeDegrees>37.57981024682521820068359375</LatitudeDegrees>
              <LongitudeDegrees>-6.108673028647899627685546875</LongitudeDegrees>
            </Position>
            <AltitudeMeters>106.8000030517578125</AltitudeMeters>
            <DistanceMeters>NAN</DistanceMeters>
          </Trackpoint>
          <Trackpoint>
            <Time>2019-10-10T12:38:57.000Z</Time>
            <Position>
              <LatitudeDegrees>37.57969600148499011993408203125</LatitudeDegrees>
              <LongitudeDegrees>-6.1085575260221958160400390625</LongitudeDegrees>
            </Position>
            <AltitudeMeters>107</AltitudeMeters>
            <DistanceMeters>NAN</DistanceMeters>
          </Trackpoint>
          <Trackpoint>
            <Time>2019-10-10T12:38:59.000Z</Time>
            <Position>
              <LatitudeDegrees>37.5795815885066986083984375</LatitudeDegrees>
              <LongitudeDegrees>-6.108441017568111419677734375</LongitudeDegrees>
            </Position>
            <AltitudeMeters>106.8000030517578125</AltitudeMeters>
            <DistanceMeters>NAN</DistanceMeters>
          </Trackpoint>
          <Trackpoint>
            <Time>2019-10-10T12:39:00.000Z</Time>
            <Position>
              <LatitudeDegrees>37.5795252621173858642578125</LatitudeDegrees>
              <LongitudeDegrees>-6.10838041640818119049072265625</LongitudeDegrees>
            </Position>
            <AltitudeMeters>106</AltitudeMeters>
            <DistanceMeters>NAN</DistanceMeters>
          </Trackpoint>
          <Trackpoint>
            <Time>2019-10-10T12:39:01.000Z</Time>
            <Position>
              <LatitudeDegrees>37.57946834899485111236572265625</LatitudeDegrees>
              <LongitudeDegrees>-6.10832157544791698455810546875</LongitudeDegrees>
            </Position>
            <AltitudeMeters>105.59999847412109375</AltitudeMeters>
            <DistanceMeters>NAN</DistanceMeters>
          </Trackpoint>
          <Trackpoint>
            <Time>2019-10-10T12:39:03.000Z</Time>
            <Position>
              <LatitudeDegrees>37.57935284636914730072021484375</LatitudeDegrees>
              <LongitudeDegrees>-6.1082039773464202880859375</LongitudeDegrees>
            </Position>
            <AltitudeMeters>105.40000152587890625</AltitudeMeters>
            <DistanceMeters>NAN</DistanceMeters>
          </Trackpoint>
          <Trackpoint>
            <Time>2019-10-10T12:39:05.000Z</Time>
            <Position>
              <LatitudeDegrees>37.5792409479618072509765625</LatitudeDegrees>
              <LongitudeDegrees>-6.1080794222652912139892578125</LongitudeDegrees>
            </Position>
            <AltitudeMeters>105.59999847412109375</AltitudeMeters>
            <DistanceMeters>NAN</DistanceMeters>
          </Trackpoint>
          <Trackpoint>
            <Time>2019-10-10T12:39:07.000Z</Time>
            <Position>
              <LatitudeDegrees>37.57912972010672092437744140625</LatitudeDegrees>
              <LongitudeDegrees>-6.1079567112028598785400390625</LongitudeDegrees>
            </Position>
            <AltitudeMeters>105.8000030517578125</AltitudeMeters>
            <DistanceMeters>NAN</DistanceMeters>
          </Trackpoint>
          <Trackpoint>
            <Time>2019-10-10T12:39:10.000Z</Time>
            <Position>
              <LatitudeDegrees>37.57895654998719692230224609375</LatitudeDegrees>
              <LongitudeDegrees>-6.107784546911716461181640625</LongitudeDegrees>
            </Position>
            <AltitudeMeters>104.59999847412109375</AltitudeMeters>
            <DistanceMeters>NAN</DistanceMeters>
          </Trackpoint>
          <Trackpoint>
            <Time>2019-10-10T12:39:11.000Z</Time>
            <Position>
              <LatitudeDegrees>37.57889854721724987030029296875</LatitudeDegrees>
              <LongitudeDegrees>-6.1077267117798328399658203125</LongitudeDegrees>
            </Position>
            <AltitudeMeters>104.40000152587890625</AltitudeMeters>
            <DistanceMeters>NAN</DistanceMeters>
          </Trackpoint>
          <Trackpoint>
            <Time>2019-10-10T12:39:12.000Z</Time>
            <Position>
              <LatitudeDegrees>37.5788421370089054107666015625</LatitudeDegrees>
              <LongitudeDegrees>-6.107667870819568634033203125</LongitudeDegrees>
            </Position>
            <AltitudeMeters>104.1999969482421875</AltitudeMeters>
            <DistanceMeters>NAN</DistanceMeters>
          </Trackpoint>
          <Trackpoint>
            <Time>2019-10-10T12:39:13.000Z</Time>
            <Position>
              <LatitudeDegrees>37.5787868164479732513427734375</LatitudeDegrees>
              <LongitudeDegrees>-6.10760827548801898956298828125</LongitudeDegrees>
            </Position>
            <AltitudeMeters>104.1999969482421875</AltitudeMeters>
            <DistanceMeters>NAN</DistanceMeters>
          </Trackpoint>
          <Trackpoint>
            <Time>2019-10-10T12:39:15.000Z</Time>
            <Position>
              <LatitudeDegrees>37.5786775164306163787841796875</LatitudeDegrees>
              <LongitudeDegrees>-6.1074883304536342620849609375</LongitudeDegrees>
            </Position>
            <AltitudeMeters>104</AltitudeMeters>
            <DistanceMeters>NAN</DistanceMeters>
          </Trackpoint>
          <Trackpoint>
            <Time>2019-10-10T12:39:17.000Z</Time>
            <Position>
              <LatitudeDegrees>37.5785688869655132293701171875</LatitudeDegrees>
              <LongitudeDegrees>-6.10737173818051815032958984375</LongitudeDegrees>
            </Position>
            <AltitudeMeters>103.59999847412109375</AltitudeMeters>
            <DistanceMeters>NAN</DistanceMeters>
          </Trackpoint>
          <Trackpoint>
            <Time>2019-10-10T12:39:19.000Z</Time>
            <Position>
              <LatitudeDegrees>37.57846109569072723388671875</LatitudeDegrees>
              <LongitudeDegrees>-6.10725858248770236968994140625</LongitudeDegrees>
            </Position>
            <AltitudeMeters>103.40000152587890625</AltitudeMeters>
            <DistanceMeters>NAN</DistanceMeters>
          </Trackpoint>
          <Trackpoint>
            <Time>2019-10-10T12:39:22.000Z</Time>
            <Position>
              <LatitudeDegrees>37.5782968103885650634765625</LatitudeDegrees>
              <LongitudeDegrees>-6.10708943568170070648193359375</LongitudeDegrees>
            </Position>
            <AltitudeMeters>103.59999847412109375</AltitudeMeters>
            <DistanceMeters>NAN</DistanceMeters>
          </Trackpoint>
          <Trackpoint>
            <Time>2019-10-10T12:39:25.000Z</Time>
            <Position>
              <LatitudeDegrees>37.57813009433448314666748046875</LatitudeDegrees>
              <LongitudeDegrees>-6.1069140024483203887939453125</LongitudeDegrees>
            </Position>
            <AltitudeMeters>103</AltitudeMeters>
            <DistanceMeters>NAN</DistanceMeters>
          </Trackpoint>
          <Trackpoint>
            <Time>2019-10-10T12:39:26.000Z</Time>
            <Position>
              <LatitudeDegrees>37.57807443849742412567138671875</LatitudeDegrees>
              <LongitudeDegrees>-6.10685415565967559814453125</LongitudeDegrees>
            </Position>
            <AltitudeMeters>102.59999847412109375</AltitudeMeters>
            <DistanceMeters>NAN</DistanceMeters>
          </Trackpoint>
          <Trackpoint>
            <Time>2019-10-10T12:39:30.000Z</Time>
            <Position>
              <LatitudeDegrees>37.5778470374643802642822265625</LatitudeDegrees>
              <LongitudeDegrees>-6.106615103781223297119140625</LongitudeDegrees>
            </Position>
            <AltitudeMeters>102</AltitudeMeters>
            <DistanceMeters>NAN</DistanceMeters>
          </Trackpoint>
          <Trackpoint>
            <Time>2019-10-10T12:39:31.000Z</Time>
            <Position>
              <LatitudeDegrees>37.577790208160877227783203125</LatitudeDegrees>
              <LongitudeDegrees>-6.1065572686493396759033203125</LongitudeDegrees>
            </Position>
            <AltitudeMeters>101.40000152587890625</AltitudeMeters>
            <DistanceMeters>NAN</DistanceMeters>
          </Trackpoint>
          <Trackpoint>
            <Time>2019-10-10T12:39:37.000Z</Time>
            <Position>
              <LatitudeDegrees>37.577455937862396240234375</LatitudeDegrees>
              <LongitudeDegrees>-6.106218136847019195556640625</LongitudeDegrees>
            </Position>
            <AltitudeMeters>100.8000030517578125</AltitudeMeters>
            <DistanceMeters>NAN</DistanceMeters>
          </Trackpoint>
          <Trackpoint>
            <Time>2019-10-10T12:39:39.000Z</Time>
            <Position>
              <LatitudeDegrees>37.57734739221632480621337890625</LatitudeDegrees>
              <LongitudeDegrees>-6.1061053164303302764892578125</LongitudeDegrees>
            </Position>
            <AltitudeMeters>100.1999969482421875</AltitudeMeters>
            <DistanceMeters>NAN</DistanceMeters>
          </Trackpoint>
          <Trackpoint>
            <Time>2019-10-10T12:39:42.000Z</Time>
            <Position>
              <LatitudeDegrees>37.57718578912317752838134765625</LatitudeDegrees>
              <LongitudeDegrees>-6.10593960620462894439697265625</LongitudeDegrees>
            </Position>
            <AltitudeMeters>99.1999969482421875</AltitudeMeters>
            <DistanceMeters>NAN</DistanceMeters>
          </Trackpoint>
          <Trackpoint>
            <Time>2019-10-10T12:39:44.000Z</Time>
            <Position>
              <LatitudeDegrees>37.5770782493054866790771484375</LatitudeDegrees>
              <LongitudeDegrees>-6.10583332367241382598876953125</LongitudeDegrees>
            </Position>
            <AltitudeMeters>99</AltitudeMeters>
            <DistanceMeters>NAN</DistanceMeters>
          </Trackpoint>
          <Trackpoint>
            <Time>2019-10-10T12:39:47.000Z</Time>
            <Position>
              <LatitudeDegrees>37.57692762650549411773681640625</LatitudeDegrees>
              <LongitudeDegrees>-6.105662249028682708740234375</LongitudeDegrees>
            </Position>
            <AltitudeMeters>98.8000030517578125</AltitudeMeters>
            <DistanceMeters>NAN</DistanceMeters>
          </Trackpoint>
          <Trackpoint>
            <Time>2019-10-10T12:39:48.000Z</Time>
            <Position>
              <LatitudeDegrees>37.5768725574016571044921875</LatitudeDegrees>
              <LongitudeDegrees>-6.10561095178127288818359375</LongitudeDegrees>
            </Position>
            <AltitudeMeters>98.8000030517578125</AltitudeMeters>
            <DistanceMeters>NAN</DistanceMeters>
          </Trackpoint>
          <Trackpoint>
            <Time>2019-10-10T12:39:52.000Z</Time>
            <Position>
              <LatitudeDegrees>37.57665538229048252105712890625</LatitudeDegrees>
              <LongitudeDegrees>-6.10541188158094882965087890625</LongitudeDegrees>
            </Position>
            <AltitudeMeters>98.8000030517578125</AltitudeMeters>
            <DistanceMeters>NAN</DistanceMeters>
          </Trackpoint>
          <Trackpoint>
            <Time>2019-10-10T12:39:55.000Z</Time>
            <Position>
              <LatitudeDegrees>37.576490342617034912109375</LatitudeDegrees>
              <LongitudeDegrees>-6.1052677966654300689697265625</LongitudeDegrees>
            </Position>
            <AltitudeMeters>98.59999847412109375</AltitudeMeters>
            <DistanceMeters>NAN</DistanceMeters>
          </Trackpoint>
          <Trackpoint>
            <Time>2019-10-10T12:39:58.000Z</Time>
            <Position>
              <LatitudeDegrees>37.5763195194303989410400390625</LatitudeDegrees>
              <LongitudeDegrees>-6.10513594932854175567626953125</LongitudeDegrees>
            </Position>
            <AltitudeMeters>98.59999847412109375</AltitudeMeters>
            <DistanceMeters>NAN</DistanceMeters>
          </Trackpoint>
          <Trackpoint>
            <Time>2019-10-10T12:40:00.000Z</Time>
            <Position>
              <LatitudeDegrees>37.57620309479534626007080078125</LatitudeDegrees>
              <LongitudeDegrees>-6.1050559021532535552978515625</LongitudeDegrees>
            </Position>
            <AltitudeMeters>98</AltitudeMeters>
            <DistanceMeters>NAN</DistanceMeters>
          </Trackpoint>
          <Trackpoint>
            <Time>2019-10-10T12:40:01.000Z</Time>
            <Position>
              <LatitudeDegrees>37.5761434994637966156005859375</LatitudeDegrees>
              <LongitudeDegrees>-6.1050126515328884124755859375</LongitudeDegrees>
            </Position>
            <AltitudeMeters>97.8000030517578125</AltitudeMeters>
            <DistanceMeters>NAN</DistanceMeters>
          </Trackpoint>
          <Trackpoint>
            <Time>2019-10-10T12:40:09.000Z</Time>
            <Position>
              <LatitudeDegrees>37.57563144899904727935791015625</LatitudeDegrees>
              <LongitudeDegrees>-6.10471316613256931304931640625</LongitudeDegrees>
            </Position>
            <AltitudeMeters>96.8000030517578125</AltitudeMeters>
            <DistanceMeters>NAN</DistanceMeters>
          </Trackpoint>
          <Trackpoint>
            <Time>2019-10-10T12:40:11.000Z</Time>
            <Position>
              <LatitudeDegrees>37.57548962719738483428955078125</LatitudeDegrees>
              <LongitudeDegrees>-6.1046572588384151458740234375</LongitudeDegrees>
            </Position>
            <AltitudeMeters>96.8000030517578125</AltitudeMeters>
            <DistanceMeters>NAN</DistanceMeters>
          </Trackpoint>
          <Trackpoint>
            <Time>2019-10-10T12:40:15.000Z</Time>
            <Position>
              <LatitudeDegrees>37.57520020008087158203125</LatitudeDegrees>
              <LongitudeDegrees>-6.10454745590686798095703125</LongitudeDegrees>
            </Position>
            <AltitudeMeters>95.40000152587890625</AltitudeMeters>
            <DistanceMeters>NAN</DistanceMeters>
          </Trackpoint>
          <Trackpoint>
            <Time>2019-10-10T12:40:17.000Z</Time>
            <Position>
              <LatitudeDegrees>37.5750521756708621978759765625</LatitudeDegrees>
              <LongitudeDegrees>-6.10449356026947498321533203125</LongitudeDegrees>
            </Position>
            <AltitudeMeters>95.40000152587890625</AltitudeMeters>
            <DistanceMeters>NAN</DistanceMeters>
          </Trackpoint>
          <Trackpoint>
            <Time>2019-10-10T12:40:21.000Z</Time>
            <Position>
              <LatitudeDegrees>37.57475168444216251373291015625</LatitudeDegrees>
              <LongitudeDegrees>-6.104410327970981597900390625</LongitudeDegrees>
            </Position>
            <AltitudeMeters>94.40000152587890625</AltitudeMeters>
            <DistanceMeters>NAN</DistanceMeters>
          </Trackpoint>
          <Trackpoint>
            <Time>2019-10-10T12:40:22.000Z</Time>
            <Position>
              <LatitudeDegrees>37.57467457093298435211181640625</LatitudeDegrees>
              <LongitudeDegrees>-6.1044037900865077972412109375</LongitudeDegrees>
            </Position>
            <AltitudeMeters>94.1999969482421875</AltitudeMeters>
            <DistanceMeters>NAN</DistanceMeters>
          </Trackpoint>
          <Trackpoint>
            <Time>2019-10-10T12:40:23.000Z</Time>
            <Position>
              <LatitudeDegrees>37.57459779269993305206298828125</LatitudeDegrees>
              <LongitudeDegrees>-6.104416362941265106201171875</LongitudeDegrees>
            </Position>
            <AltitudeMeters>93.8000030517578125</AltitudeMeters>
            <DistanceMeters>NAN</DistanceMeters>
          </Trackpoint>
          <Trackpoint>
            <Time>2019-10-10T12:40:25.000Z</Time>
            <Position>
              <LatitudeDegrees>37.57446167059242725372314453125</LatitudeDegrees>
              <LongitudeDegrees>-6.10451317392289638519287109375</LongitudeDegrees>
            </Position>
            <AltitudeMeters>93</AltitudeMeters>
            <DistanceMeters>NAN</DistanceMeters>
          </Trackpoint>
          <Trackpoint>
            <Time>2019-10-10T12:40:26.000Z</Time>
            <Position>
              <LatitudeDegrees>37.5744067691266536712646484375</LatitudeDegrees>
              <LongitudeDegrees>-6.10458408482372760772705078125</LongitudeDegrees>
            </Position>
            <AltitudeMeters>93.40000152587890625</AltitudeMeters>
            <DistanceMeters>NAN</DistanceMeters>
          </Trackpoint>
          <Trackpoint>
            <Time>2019-10-10T12:40:29.000Z</Time>
            <Position>
              <LatitudeDegrees>37.574183307588100433349609375</LatitudeDegrees>
              <LongitudeDegrees>-6.1046907864511013031005859375</LongitudeDegrees>
            </Position>
            <AltitudeMeters>93</AltitudeMeters>
            <DistanceMeters>NAN</DistanceMeters>
          </Trackpoint>
          <Trackpoint>
            <Time>2019-10-10T12:40:31.000Z</Time>
            <Position>
              <LatitudeDegrees>37.57408264093101024627685546875</LatitudeDegrees>
              <LongitudeDegrees>-6.10461828298866748809814453125</LongitudeDegrees>
            </Position>
            <AltitudeMeters>92.59999847412109375</AltitudeMeters>
            <DistanceMeters>NAN</DistanceMeters>
          </Trackpoint>
          <Trackpoint>
            <Time>2019-10-10T12:40:33.000Z</Time>
            <Position>
              <LatitudeDegrees>37.5740178488194942474365234375</LatitudeDegrees>
              <LongitudeDegrees>-6.104461960494518280029296875</LongitudeDegrees>
            </Position>
            <AltitudeMeters>92.1999969482421875</AltitudeMeters>
            <DistanceMeters>NAN</DistanceMeters>
          </Trackpoint>
          <Trackpoint>
            <Time>2019-10-10T12:40:34.000Z</Time>
            <Position>
              <LatitudeDegrees>37.574000917375087738037109375</LatitudeDegrees>
              <LongitudeDegrees>-6.10437721945345401763916015625</LongitudeDegrees>
            </Position>
            <AltitudeMeters>92</AltitudeMeters>
            <DistanceMeters>NAN</DistanceMeters>
          </Trackpoint>
          <Trackpoint>
            <Time>2019-10-10T12:40:36.000Z</Time>
            <Position>
              <LatitudeDegrees>37.57391751743853092193603515625</LatitudeDegrees>
              <LongitudeDegrees>-6.10423204489052295684814453125</LongitudeDegrees>
            </Position>
            <AltitudeMeters>91.8000030517578125</AltitudeMeters>
            <DistanceMeters>NAN</DistanceMeters>
          </Trackpoint>
          <Trackpoint>
            <Time>2019-10-10T12:40:38.000Z</Time>
            <Position>
              <LatitudeDegrees>37.5737734325230121612548828125</LatitudeDegrees>
              <LongitudeDegrees>-6.1041677556931972503662109375</LongitudeDegrees>
            </Position>
            <AltitudeMeters>91</AltitudeMeters>
            <DistanceMeters>NAN</DistanceMeters>
          </Trackpoint>
          <Trackpoint>
            <Time>2019-10-10T12:40:39.000Z</Time>
            <Position>
              <LatitudeDegrees>37.573695480823516845703125</LatitudeDegrees>
              <LongitudeDegrees>-6.104148812592029571533203125</LongitudeDegrees>
            </Position>
            <AltitudeMeters>90.40000152587890625</AltitudeMeters>
            <DistanceMeters>NAN</DistanceMeters>
          </Trackpoint>
          <Trackpoint>
            <Time>2019-10-10T12:40:40.000Z</Time>
            <Position>
              <LatitudeDegrees>37.57361643947660923004150390625</LatitudeDegrees>
              <LongitudeDegrees>-6.10412928275763988494873046875</LongitudeDegrees>
            </Position>
            <AltitudeMeters>90.8000030517578125</AltitudeMeters>
            <DistanceMeters>NAN</DistanceMeters>
          </Trackpoint>
          <Trackpoint>
            <Time>2019-10-10T12:40:45.000Z</Time>
            <Position>
              <LatitudeDegrees>37.573213018476963043212890625</LatitudeDegrees>
              <LongitudeDegrees>-6.10402987338602542877197265625</LongitudeDegrees>
            </Position>
            <AltitudeMeters>89.40000152587890625</AltitudeMeters>
            <DistanceMeters>NAN</DistanceMeters>
          </Trackpoint>
          <Trackpoint>
            <Time>2019-10-10T12:40:48.000Z</Time>
            <Position>
              <LatitudeDegrees>37.5729670934379100799560546875</LatitudeDegrees>
              <LongitudeDegrees>-6.1039679311215877532958984375</LongitudeDegrees>
            </Position>
            <AltitudeMeters>88.1999969482421875</AltitudeMeters>
            <DistanceMeters>NAN</DistanceMeters>
          </Trackpoint>
          <Trackpoint>
            <Time>2019-10-10T12:40:49.000Z</Time>
            <Position>
              <LatitudeDegrees>37.5728842802345752716064453125</LatitudeDegrees>
              <LongitudeDegrees>-6.10394756309688091278076171875</LongitudeDegrees>
            </Position>
            <AltitudeMeters>88</AltitudeMeters>
            <DistanceMeters>NAN</DistanceMeters>
          </Trackpoint>
          <Trackpoint>
            <Time>2019-10-10T12:40:52.000Z</Time>
            <Position>
              <LatitudeDegrees>37.572638690471649169921875</LatitudeDegrees>
              <LongitudeDegrees>-6.10388570465147495269775390625</LongitudeDegrees>
            </Position>
            <AltitudeMeters>87.40000152587890625</AltitudeMeters>
            <DistanceMeters>NAN</DistanceMeters>
          </Trackpoint>
          <Trackpoint>
            <Time>2019-10-10T12:40:55.000Z</Time>
            <Position>
              <LatitudeDegrees>37.57240064442157745361328125</LatitudeDegrees>
              <LongitudeDegrees>-6.103824935853481292724609375</LongitudeDegrees>
            </Position>
            <AltitudeMeters>87.1999969482421875</AltitudeMeters>
            <DistanceMeters>NAN</DistanceMeters>
          </Trackpoint>
          <Trackpoint>
            <Time>2019-10-10T12:40:58.000Z</Time>
            <Position>
              <LatitudeDegrees>37.57216955535113811492919921875</LatitudeDegrees>
              <LongitudeDegrees>-6.1037671007215976715087890625</LongitudeDegrees>
            </Position>
            <AltitudeMeters>87</AltitudeMeters>
            <DistanceMeters>NAN</DistanceMeters>
          </Trackpoint>
          <Trackpoint>
            <Time>2019-10-10T12:41:03.000Z</Time>
            <Position>
              <LatitudeDegrees>37.57178801111876964569091796875</LatitudeDegrees>
              <LongitudeDegrees>-6.10366727225482463836669921875</LongitudeDegrees>
            </Position>
            <AltitudeMeters>87.1999969482421875</AltitudeMeters>
            <DistanceMeters>NAN</DistanceMeters>
          </Trackpoint>
          <Trackpoint>
            <Time>2019-10-10T12:41:08.000Z</Time>
            <Position>
              <LatitudeDegrees>37.571410574018955230712890625</LatitudeDegrees>
              <LongitudeDegrees>-6.1035699583590030670166015625</LongitudeDegrees>
            </Position>
            <AltitudeMeters>86.59999847412109375</AltitudeMeters>
            <DistanceMeters>NAN</DistanceMeters>
          </Trackpoint>
          <Trackpoint>
            <Time>2019-10-10T12:41:14.000Z</Time>
            <Position>
              <LatitudeDegrees>37.57095367647707462310791015625</LatitudeDegrees>
              <LongitudeDegrees>-6.1034425534307956695556640625</LongitudeDegrees>
            </Position>
            <AltitudeMeters>85.8000030517578125</AltitudeMeters>
            <DistanceMeters>NAN</DistanceMeters>
          </Trackpoint>
          <Trackpoint>
            <Time>2019-10-10T12:41:20.000Z</Time>
            <Position>
              <LatitudeDegrees>37.57048613391816616058349609375</LatitudeDegrees>
              <LongitudeDegrees>-6.1033057607710361480712890625</LongitudeDegrees>
            </Position>
            <AltitudeMeters>84.59999847412109375</AltitudeMeters>
            <DistanceMeters>NAN</DistanceMeters>
          </Trackpoint>
          <Trackpoint>
            <Time>2019-10-10T12:41:23.000Z</Time>
            <Position>
              <LatitudeDegrees>37.57024548947811126708984375</LatitudeDegrees>
              <LongitudeDegrees>-6.10322705470025539398193359375</LongitudeDegrees>
            </Position>
            <AltitudeMeters>83.40000152587890625</AltitudeMeters>
            <DistanceMeters>NAN</DistanceMeters>
          </Trackpoint>
          <Trackpoint>
            <Time>2019-10-10T12:41:25.000Z</Time>
            <Position>
              <LatitudeDegrees>37.5700838863849639892578125</LatitudeDegrees>
              <LongitudeDegrees>-6.10319335944950580596923828125</LongitudeDegrees>
            </Position>
            <AltitudeMeters>82.8000030517578125</AltitudeMeters>
            <DistanceMeters>NAN</DistanceMeters>
          </Trackpoint>
          <Trackpoint>
            <Time>2019-10-10T12:41:26.000Z</Time>
            <Position>
              <LatitudeDegrees>37.57000501267611980438232421875</LatitudeDegrees>
              <LongitudeDegrees>-6.10321247018873691558837890625</LongitudeDegrees>
            </Position>
            <AltitudeMeters>82.1999969482421875</AltitudeMeters>
            <DistanceMeters>NAN</DistanceMeters>
          </Trackpoint>
          <Trackpoint>
            <Time>2019-10-10T12:41:29.000Z</Time>
            <Position>
              <LatitudeDegrees>37.56976998411118984222412109375</LatitudeDegrees>
              <LongitudeDegrees>-6.10326879657804965972900390625</LongitudeDegrees>
            </Position>
            <AltitudeMeters>82.1999969482421875</AltitudeMeters>
            <DistanceMeters>NAN</DistanceMeters>
          </Trackpoint>
          <Trackpoint>
            <Time>2019-10-10T12:41:31.000Z</Time>
            <Position>
              <LatitudeDegrees>37.56962321698665618896484375</LatitudeDegrees>
              <LongitudeDegrees>-6.103187911212444305419921875</LongitudeDegrees>
            </Position>
            <AltitudeMeters>81</AltitudeMeters>
            <DistanceMeters>NAN</DistanceMeters>
          </Trackpoint>
          <Trackpoint>
            <Time>2019-10-10T12:41:32.000Z</Time>
            <Position>
              <LatitudeDegrees>37.56956228055059909820556640625</LatitudeDegrees>
              <LongitudeDegrees>-6.1031220294535160064697265625</LongitudeDegrees>
            </Position>
            <AltitudeMeters>80.59999847412109375</AltitudeMeters>
            <DistanceMeters>NAN</DistanceMeters>
          </Trackpoint>
          <Trackpoint>
            <Time>2019-10-10T12:41:33.000Z</Time>
            <Position>
              <LatitudeDegrees>37.56950276903808116912841796875</LatitudeDegrees>
              <LongitudeDegrees>-6.10305472277104854583740234375</LongitudeDegrees>
            </Position>
            <AltitudeMeters>80.59999847412109375</AltitudeMeters>
            <DistanceMeters>NAN</DistanceMeters>
          </Trackpoint>
          <Trackpoint>
            <Time>2019-10-10T12:41:34.000Z</Time>
            <Position>
              <LatitudeDegrees>37.56943839602172374725341796875</LatitudeDegrees>
              <LongitudeDegrees>-6.10299554653465747833251953125</LongitudeDegrees>
            </Position>
            <AltitudeMeters>80.59999847412109375</AltitudeMeters>
            <DistanceMeters>NAN</DistanceMeters>
          </Trackpoint>
          <Trackpoint>
            <Time>2019-10-10T12:41:36.000Z</Time>
            <Position>
              <LatitudeDegrees>37.56929858587682247161865234375</LatitudeDegrees>
              <LongitudeDegrees>-6.10291910357773303985595703125</LongitudeDegrees>
            </Position>
            <AltitudeMeters>80</AltitudeMeters>
            <DistanceMeters>NAN</DistanceMeters>
          </Trackpoint>
          <Trackpoint>
            <Time>2019-10-10T12:41:37.000Z</Time>
            <Position>
              <LatitudeDegrees>37.56922164000570774078369140625</LatitudeDegrees>
              <LongitudeDegrees>-6.102896891534328460693359375</LongitudeDegrees>
            </Position>
            <AltitudeMeters>79.8000030517578125</AltitudeMeters>
            <DistanceMeters>NAN</DistanceMeters>
          </Trackpoint>
          <Trackpoint>
            <Time>2019-10-10T12:41:39.000Z</Time>
            <Position>
              <LatitudeDegrees>37.56906489841639995574951171875</LatitudeDegrees>
              <LongitudeDegrees>-6.10284626483917236328125</LongitudeDegrees>
            </Position>
            <AltitudeMeters>79.40000152587890625</AltitudeMeters>
            <DistanceMeters>NAN</DistanceMeters>
          </Trackpoint>
          <Trackpoint>
            <Time>2019-10-10T12:41:41.000Z</Time>
            <Position>
              <LatitudeDegrees>37.5688998587429523468017578125</LatitudeDegrees>
              <LongitudeDegrees>-6.10279605723917484283447265625</LongitudeDegrees>
            </Position>
            <AltitudeMeters>78</AltitudeMeters>
            <DistanceMeters>NAN</DistanceMeters>
          </Trackpoint>
          <Trackpoint>
            <Time>2019-10-10T12:41:42.000Z</Time>
            <Position>
              <LatitudeDegrees>37.5688152015209197998046875</LatitudeDegrees>
              <LongitudeDegrees>-6.10277116298675537109375</LongitudeDegrees>
            </Position>
            <AltitudeMeters>77.40000152587890625</AltitudeMeters>
            <DistanceMeters>NAN</DistanceMeters>
          </Trackpoint>
          <Trackpoint>
            <Time>2019-10-10T12:41:43.000Z</Time>
            <Position>
              <LatitudeDegrees>37.5687298737466335296630859375</LatitudeDegrees>
              <LongitudeDegrees>-6.10274501144886016845703125</LongitudeDegrees>
            </Position>
            <AltitudeMeters>77</AltitudeMeters>
            <DistanceMeters>NAN</DistanceMeters>
          </Trackpoint>
          <Trackpoint>
            <Time>2019-10-10T12:41:47.000Z</Time>
            <Position>
              <LatitudeDegrees>37.56837389431893825531005859375</LatitudeDegrees>
              <LongitudeDegrees>-6.10263478942215442657470703125</LongitudeDegrees>
            </Position>
            <AltitudeMeters>75.59999847412109375</AltitudeMeters>
            <DistanceMeters>NAN</DistanceMeters>
          </Trackpoint>
          <Trackpoint>
            <Time>2019-10-10T12:41:49.000Z</Time>
            <Position>
              <LatitudeDegrees>37.5681904144585132598876953125</LatitudeDegrees>
              <LongitudeDegrees>-6.102580390870571136474609375</LongitudeDegrees>
            </Position>
            <AltitudeMeters>74</AltitudeMeters>
            <DistanceMeters>NAN</DistanceMeters>
          </Trackpoint>
          <Trackpoint>
            <Time>2019-10-10T12:41:50.000Z</Time>
            <Position>
              <LatitudeDegrees>37.568097375333309173583984375</LatitudeDegrees>
              <LongitudeDegrees>-6.1025497131049633026123046875</LongitudeDegrees>
            </Position>
            <AltitudeMeters>73.40000152587890625</AltitudeMeters>
            <DistanceMeters>NAN</DistanceMeters>
          </Trackpoint>
          <Trackpoint>
            <Time>2019-10-10T12:41:51.000Z</Time>
            <Position>
              <LatitudeDegrees>37.5680033303797245025634765625</LatitudeDegrees>
              <LongitudeDegrees>-6.1025195382535457611083984375</LongitudeDegrees>
            </Position>
            <AltitudeMeters>72.59999847412109375</AltitudeMeters>
            <DistanceMeters>NAN</DistanceMeters>
          </Trackpoint>
          <Trackpoint>
            <Time>2019-10-10T12:41:55.000Z</Time>
            <Position>
              <LatitudeDegrees>37.56762002594769001007080078125</LatitudeDegrees>
              <LongitudeDegrees>-6.10240529291331768035888671875</LongitudeDegrees>
            </Position>
            <AltitudeMeters>72</AltitudeMeters>
            <DistanceMeters>NAN</DistanceMeters>
          </Trackpoint>
          <Trackpoint>
            <Time>2019-10-10T12:41:56.000Z</Time>
            <Position>
              <LatitudeDegrees>37.56752195768058300018310546875</LatitudeDegrees>
              <LongitudeDegrees>-6.10237679444253444671630859375</LongitudeDegrees>
            </Position>
            <AltitudeMeters>71.1999969482421875</AltitudeMeters>
            <DistanceMeters>NAN</DistanceMeters>
          </Trackpoint>
          <Trackpoint>
            <Time>2019-10-10T12:41:57.000Z</Time>
            <Position>
              <LatitudeDegrees>37.5674229674041271209716796875</LatitudeDegrees>
              <LongitudeDegrees>-6.10234896652400493621826171875</LongitudeDegrees>
            </Position>
            <AltitudeMeters>69.59999847412109375</AltitudeMeters>
            <DistanceMeters>NAN</DistanceMeters>
          </Trackpoint>
          <Trackpoint>
            <Time>2019-10-10T12:41:58.000Z</Time>
            <Position>
              <LatitudeDegrees>37.56732347421348094940185546875</LatitudeDegrees>
              <LongitudeDegrees>-6.10231996513903141021728515625</LongitudeDegrees>
            </Position>
            <AltitudeMeters>69</AltitudeMeters>
            <DistanceMeters>NAN</DistanceMeters>
          </Trackpoint>
          <Trackpoint>
            <Time>2019-10-10T12:41:59.000Z</Time>
            <Position>
              <LatitudeDegrees>37.56722490303218364715576171875</LatitudeDegrees>
              <LongitudeDegrees>-6.10228878445923328399658203125</LongitudeDegrees>
            </Position>
            <AltitudeMeters>68.59999847412109375</AltitudeMeters>
            <DistanceMeters>NAN</DistanceMeters>
          </Trackpoint>
          <Trackpoint>
            <Time>2019-10-10T12:42:01.000Z</Time>
            <Position>
              <LatitudeDegrees>37.5670256651937961578369140625</LatitudeDegrees>
              <LongitudeDegrees>-6.10222407616674900054931640625</LongitudeDegrees>
            </Position>
            <AltitudeMeters>67.59999847412109375</AltitudeMeters>
            <DistanceMeters>NAN</DistanceMeters>
          </Trackpoint>
          <Trackpoint>
            <Time>2019-10-10T12:42:02.000Z</Time>
            <Position>
              <LatitudeDegrees>37.5669250823557376861572265625</LatitudeDegrees>
              <LongitudeDegrees>-6.10219239257276058197021484375</LongitudeDegrees>
            </Position>
            <AltitudeMeters>67.1999969482421875</AltitudeMeters>
            <DistanceMeters>NAN</DistanceMeters>
          </Trackpoint>
          <Trackpoint>
            <Time>2019-10-10T12:42:04.000Z</Time>
            <Position>
              <LatitudeDegrees>37.5667229108512401580810546875</LatitudeDegrees>
              <LongitudeDegrees>-6.1021302826702594757080078125</LongitudeDegrees>
            </Position>
            <AltitudeMeters>66</AltitudeMeters>
            <DistanceMeters>NAN</DistanceMeters>
          </Trackpoint>
          <Trackpoint>
            <Time>2019-10-10T12:42:06.000Z</Time>
            <Position>
              <LatitudeDegrees>37.56652534939348697662353515625</LatitudeDegrees>
              <LongitudeDegrees>-6.1020756326615810394287109375</LongitudeDegrees>
            </Position>
            <AltitudeMeters>65</AltitudeMeters>
            <DistanceMeters>NAN</DistanceMeters>
          </Trackpoint>
          <Trackpoint>
            <Time>2019-10-10T12:42:10.000Z</Time>
            <Position>
              <LatitudeDegrees>37.56614682264626026153564453125</LatitudeDegrees>
              <LongitudeDegrees>-6.1019678413867950439453125</LongitudeDegrees>
            </Position>
            <AltitudeMeters>64</AltitudeMeters>
            <DistanceMeters>NAN</DistanceMeters>
          </Trackpoint>
          <Trackpoint>
            <Time>2019-10-10T12:42:11.000Z</Time>
            <Position>
              <LatitudeDegrees>37.5660550408065319061279296875</LatitudeDegrees>
              <LongitudeDegrees>-6.1019435338675975799560546875</LongitudeDegrees>
            </Position>
            <AltitudeMeters>64.1999969482421875</AltitudeMeters>
            <DistanceMeters>NAN</DistanceMeters>
          </Trackpoint>
          <Trackpoint>
            <Time>2019-10-10T12:42:17.000Z</Time>
            <Position>
              <LatitudeDegrees>37.565520443022251129150390625</LatitudeDegrees>
              <LongitudeDegrees>-6.101838089525699615478515625</LongitudeDegrees>
            </Position>
            <AltitudeMeters>64</AltitudeMeters>
            <DistanceMeters>NAN</DistanceMeters>
          </Trackpoint>
          <Trackpoint>
            <Time>2019-10-10T12:42:18.000Z</Time>
            <Position>
              <LatitudeDegrees>37.5654324330389499664306640625</LatitudeDegrees>
              <LongitudeDegrees>-6.1018268577754497528076171875</LongitudeDegrees>
            </Position>
            <AltitudeMeters>64.1999969482421875</AltitudeMeters>
            <DistanceMeters>NAN</DistanceMeters>
          </Trackpoint>
          <Trackpoint>
            <Time>2019-10-10T12:42:22.000Z</Time>
            <Position>
              <LatitudeDegrees>37.56509430706501007080078125</LatitudeDegrees>
              <LongitudeDegrees>-6.1018067412078380584716796875</LongitudeDegrees>
            </Position>
            <AltitudeMeters>63.40000152587890625</AltitudeMeters>
            <DistanceMeters>NAN</DistanceMeters>
          </Trackpoint>
          <Trackpoint>
            <Time>2019-10-10T12:42:24.000Z</Time>
            <Position>
              <LatitudeDegrees>37.56492993794381618499755859375</LatitudeDegrees>
              <LongitudeDegrees>-6.1018097586929798126220703125</LongitudeDegrees>
            </Position>
            <AltitudeMeters>64</AltitudeMeters>
            <DistanceMeters>NAN</DistanceMeters>
          </Trackpoint>
          <Trackpoint>
            <Time>2019-10-10T12:42:27.000Z</Time>
            <Position>
              <LatitudeDegrees>37.56469474174082279205322265625</LatitudeDegrees>
              <LongitudeDegrees>-6.10182526521384716033935546875</LongitudeDegrees>
            </Position>
            <AltitudeMeters>63</AltitudeMeters>
            <DistanceMeters>NAN</DistanceMeters>
          </Trackpoint>
          <Trackpoint>
            <Time>2019-10-10T12:42:28.000Z</Time>
            <Position>
              <LatitudeDegrees>37.56461896933615207672119140625</LatitudeDegrees>
              <LongitudeDegrees>-6.10183079726994037628173828125</LongitudeDegrees>
            </Position>
            <AltitudeMeters>63.40000152587890625</AltitudeMeters>
            <DistanceMeters>NAN</DistanceMeters>
          </Trackpoint>
          <Trackpoint>
            <Time>2019-10-10T12:42:33.000Z</Time>
            <Position>
              <LatitudeDegrees>37.56424966268241405487060546875</LatitudeDegrees>
              <LongitudeDegrees>-6.10186650417745113372802734375</LongitudeDegrees>
            </Position>
            <AltitudeMeters>63.40000152587890625</AltitudeMeters>
            <DistanceMeters>NAN</DistanceMeters>
          </Trackpoint>
          <Trackpoint>
            <Time>2019-10-10T12:42:35.000Z</Time>
            <Position>
              <LatitudeDegrees>37.56410968489944934844970703125</LatitudeDegrees>
              <LongitudeDegrees>-6.10188494436442852020263671875</LongitudeDegrees>
            </Position>
            <AltitudeMeters>63.799999237060546875</AltitudeMeters>
            <DistanceMeters>NAN</DistanceMeters>
          </Trackpoint>
          <Trackpoint>
            <Time>2019-10-10T12:42:37.000Z</Time>
            <Position>
              <LatitudeDegrees>37.5639719702303409576416015625</LatitudeDegrees>
              <LongitudeDegrees>-6.10190019942820072174072265625</LongitudeDegrees>
            </Position>
            <AltitudeMeters>63.799999237060546875</AltitudeMeters>
            <DistanceMeters>NAN</DistanceMeters>
          </Trackpoint>
          <Trackpoint>
            <Time>2019-10-10T12:42:40.000Z</Time>
            <Position>
              <LatitudeDegrees>37.563771307468414306640625</LatitudeDegrees>
              <LongitudeDegrees>-6.1019224114716053009033203125</LongitudeDegrees>
            </Position>
            <AltitudeMeters>63.59999847412109375</AltitudeMeters>
            <DistanceMeters>NAN</DistanceMeters>
          </Trackpoint>
          <Trackpoint>
            <Time>2019-10-10T12:42:42.000Z</Time>
            <Position>
              <LatitudeDegrees>37.563639543950557708740234375</LatitudeDegrees>
              <LongitudeDegrees>-6.1019356548786163330078125</LongitudeDegrees>
            </Position>
            <AltitudeMeters>63.59999847412109375</AltitudeMeters>
            <DistanceMeters>NAN</DistanceMeters>
          </Trackpoint>
          <Trackpoint>
            <Time>2019-10-10T12:42:45.000Z</Time>
            <Position>
              <LatitudeDegrees>37.56344215013086795806884765625</LatitudeDegrees>
              <LongitudeDegrees>-6.1019566096365451812744140625</LongitudeDegrees>
            </Position>
            <AltitudeMeters>64</AltitudeMeters>
            <DistanceMeters>NAN</DistanceMeters>
          </Trackpoint>
          <Trackpoint>
            <Time>2019-10-10T12:42:47.000Z</Time>
            <Position>
              <LatitudeDegrees>37.5633118115365505218505859375</LatitudeDegrees>
              <LongitudeDegrees>-6.10197253525257110595703125</LongitudeDegrees>
            </Position>
            <AltitudeMeters>63.59999847412109375</AltitudeMeters>
            <DistanceMeters>NAN</DistanceMeters>
          </Trackpoint>
          <Trackpoint>
            <Time>2019-10-10T12:42:51.000Z</Time>
            <Position>
              <LatitudeDegrees>37.56305725313723087310791015625</LatitudeDegrees>
              <LongitudeDegrees>-6.1020000278949737548828125</LongitudeDegrees>
            </Position>
            <AltitudeMeters>64.1999969482421875</AltitudeMeters>
            <DistanceMeters>NAN</DistanceMeters>
          </Trackpoint>
          <Trackpoint>
            <Time>2019-10-10T12:42:53.000Z</Time>
            <Position>
              <LatitudeDegrees>37.5629346258938312530517578125</LatitudeDegrees>
              <LongitudeDegrees>-6.10201553441584110260009765625</LongitudeDegrees>
            </Position>
            <AltitudeMeters>64.40000152587890625</AltitudeMeters>
            <DistanceMeters>NAN</DistanceMeters>
          </Trackpoint>
          <Trackpoint>
            <Time>2019-10-10T12:42:57.000Z</Time>
            <Position>
              <LatitudeDegrees>37.56268761120736598968505859375</LatitudeDegrees>
              <LongitudeDegrees>-6.10205258242785930633544921875</LongitudeDegrees>
            </Position>
            <AltitudeMeters>64</AltitudeMeters>
            <DistanceMeters>NAN</DistanceMeters>
          </Trackpoint>
          <Trackpoint>
            <Time>2019-10-10T12:43:02.000Z</Time>
            <Position>
              <LatitudeDegrees>37.5623716972768306732177734375</LatitudeDegrees>
              <LongitudeDegrees>-6.1021084897220134735107421875</LongitudeDegrees>
            </Position>
            <AltitudeMeters>63.799999237060546875</AltitudeMeters>
            <DistanceMeters>NAN</DistanceMeters>
          </Trackpoint>
          <Trackpoint>
            <Time>2019-10-10T12:43:11.000Z</Time>
            <Position>
              <LatitudeDegrees>37.56179460324347019195556640625</LatitudeDegrees>
              <LongitudeDegrees>-6.10223161987960338592529296875</LongitudeDegrees>
            </Position>
            <AltitudeMeters>63.40000152587890625</AltitudeMeters>
            <DistanceMeters>NAN</DistanceMeters>
          </Trackpoint>
          <Trackpoint>
            <Time>2019-10-10T12:43:13.000Z</Time>
            <Position>
              <LatitudeDegrees>37.5616662763059139251708984375</LatitudeDegrees>
              <LongitudeDegrees>-6.1022593639791011810302734375</LongitudeDegrees>
            </Position>
            <AltitudeMeters>62.799999237060546875</AltitudeMeters>
            <DistanceMeters>NAN</DistanceMeters>
          </Trackpoint>
          <Trackpoint>
            <Time>2019-10-10T12:43:21.000Z</Time>
            <Position>
              <LatitudeDegrees>37.5611432455480098724365234375</LatitudeDegrees>
              <LongitudeDegrees>-6.10237562097609043121337890625</LongitudeDegrees>
            </Position>
            <AltitudeMeters>62.40000152587890625</AltitudeMeters>
            <DistanceMeters>NAN</DistanceMeters>
          </Trackpoint>
          <Trackpoint>
            <Time>2019-10-10T12:43:22.000Z</Time>
            <Position>
              <LatitudeDegrees>37.5610755197703838348388671875</LatitudeDegrees>
              <LongitudeDegrees>-6.102391965687274932861328125</LongitudeDegrees>
            </Position>
            <AltitudeMeters>62.40000152587890625</AltitudeMeters>
            <DistanceMeters>NAN</DistanceMeters>
          </Trackpoint>
          <Trackpoint>
            <Time>2019-10-10T12:43:25.000Z</Time>
            <Position>
              <LatitudeDegrees>37.56086907349526882171630859375</LatitudeDegrees>
              <LongitudeDegrees>-6.10243982635438442230224609375</LongitudeDegrees>
            </Position>
            <AltitudeMeters>61.799999237060546875</AltitudeMeters>
            <DistanceMeters>NAN</DistanceMeters>
          </Trackpoint>
          <Trackpoint>
            <Time>2019-10-10T12:43:29.000Z</Time>
            <Position>
              <LatitudeDegrees>37.56058442406356334686279296875</LatitudeDegrees>
              <LongitudeDegrees>-6.1025034449994564056396484375</LongitudeDegrees>
            </Position>
            <AltitudeMeters>60.59999847412109375</AltitudeMeters>
            <DistanceMeters>NAN</DistanceMeters>
          </Trackpoint>
          <Trackpoint>
            <Time>2019-10-10T12:43:32.000Z</Time>
            <Position>
              <LatitudeDegrees>37.560369931161403656005859375</LatitudeDegrees>
              <LongitudeDegrees>-6.10255298204720020294189453125</LongitudeDegrees>
            </Position>
            <AltitudeMeters>60.40000152587890625</AltitudeMeters>
            <DistanceMeters>NAN</DistanceMeters>
          </Trackpoint>
          <Trackpoint>
            <Time>2019-10-10T12:43:37.000Z</Time>
            <Position>
              <LatitudeDegrees>37.56001361645758152008056640625</LatitudeDegrees>
              <LongitudeDegrees>-6.10263344831764698028564453125</LongitudeDegrees>
            </Position>
            <AltitudeMeters>59.40000152587890625</AltitudeMeters>
            <DistanceMeters>NAN</DistanceMeters>
          </Trackpoint>
          <Trackpoint>
            <Time>2019-10-10T12:43:42.000Z</Time>
            <Position>
              <LatitudeDegrees>37.55964447744190692901611328125</LatitudeDegrees>
              <LongitudeDegrees>-6.10271148383617401123046875</LongitudeDegrees>
            </Position>
            <AltitudeMeters>58.40000152587890625</AltitudeMeters>
            <DistanceMeters>NAN</DistanceMeters>
          </Trackpoint>
          <Trackpoint>
            <Time>2019-10-10T12:43:44.000Z</Time>
            <Position>
              <LatitudeDegrees>37.559495531022548675537109375</LatitudeDegrees>
              <LongitudeDegrees>-6.10274174250662326812744140625</LongitudeDegrees>
            </Position>
            <AltitudeMeters>58</AltitudeMeters>
            <DistanceMeters>NAN</DistanceMeters>
          </Trackpoint>
          <Trackpoint>
            <Time>2019-10-10T12:43:50.000Z</Time>
            <Position>
              <LatitudeDegrees>37.5590358674526214599609375</LatitudeDegrees>
              <LongitudeDegrees>-6.1028236337006092071533203125</LongitudeDegrees>
            </Position>
            <AltitudeMeters>56.799999237060546875</AltitudeMeters>
            <DistanceMeters>NAN</DistanceMeters>
          </Trackpoint>
          <Trackpoint>
            <Time>2019-10-10T12:43:53.000Z</Time>
            <Position>
              <LatitudeDegrees>37.55879941396415233612060546875</LatitudeDegrees>
              <LongitudeDegrees>-6.10285506583750247955322265625</LongitudeDegrees>
            </Position>
            <AltitudeMeters>56</AltitudeMeters>
            <DistanceMeters>NAN</DistanceMeters>
          </Trackpoint>
          <Trackpoint>
            <Time>2019-10-10T12:43:57.000Z</Time>
            <Position>
              <LatitudeDegrees>37.55847939290106296539306640625</LatitudeDegrees>
              <LongitudeDegrees>-6.102891527116298675537109375</LongitudeDegrees>
            </Position>
            <AltitudeMeters>55.799999237060546875</AltitudeMeters>
            <DistanceMeters>NAN</DistanceMeters>
          </Trackpoint>
          <Trackpoint>
            <Time>2019-10-10T12:44:01.000Z</Time>
            <Position>
              <LatitudeDegrees>37.5581502355635166168212890625</LatitudeDegrees>
              <LongitudeDegrees>-6.1029253900051116943359375</LongitudeDegrees>
            </Position>
            <AltitudeMeters>54.59999847412109375</AltitudeMeters>
            <DistanceMeters>NAN</DistanceMeters>
          </Trackpoint>
          <Trackpoint>
            <Time>2019-10-10T12:44:02.000Z</Time>
            <Position>
              <LatitudeDegrees>37.5580697692930698394775390625</LatitudeDegrees>
              <LongitudeDegrees>-6.102933771908283233642578125</LongitudeDegrees>
            </Position>
            <AltitudeMeters>54.200000762939453125</AltitudeMeters>
            <DistanceMeters>NAN</DistanceMeters>
          </Trackpoint>
          <Trackpoint>
            <Time>2019-10-10T12:44:08.000Z</Time>
            <Position>
              <LatitudeDegrees>37.55757473409175872802734375</LatitudeDegrees>
              <LongitudeDegrees>-6.10295355319976806640625</LongitudeDegrees>
            </Position>
            <AltitudeMeters>53.40000152587890625</AltitudeMeters>
            <DistanceMeters>NAN</DistanceMeters>
          </Trackpoint>
          <Trackpoint>
            <Time>2019-10-10T12:44:09.000Z</Time>
            <Position>
              <LatitudeDegrees>37.55749250762164592742919921875</LatitudeDegrees>
              <LongitudeDegrees>-6.1029527150094509124755859375</LongitudeDegrees>
            </Position>
            <AltitudeMeters>52.59999847412109375</AltitudeMeters>
            <DistanceMeters>NAN</DistanceMeters>
          </Trackpoint>
          <Trackpoint>
            <Time>2019-10-10T12:44:11.000Z</Time>
            <Position>
              <LatitudeDegrees>37.55732956342399120330810546875</LatitudeDegrees>
              <LongitudeDegrees>-6.1029493622481822967529296875</LongitudeDegrees>
            </Position>
            <AltitudeMeters>52.200000762939453125</AltitudeMeters>
            <DistanceMeters>NAN</DistanceMeters>
          </Trackpoint>
          <Trackpoint>
            <Time>2019-10-10T12:44:13.000Z</Time>
            <Position>
              <LatitudeDegrees>37.55716293118894100189208984375</LatitudeDegrees>
              <LongitudeDegrees>-6.1029386334121227264404296875</LongitudeDegrees>
            </Position>
            <AltitudeMeters>52.200000762939453125</AltitudeMeters>
            <DistanceMeters>NAN</DistanceMeters>
          </Trackpoint>
          <Trackpoint>
            <Time>2019-10-10T12:44:15.000Z</Time>
            <Position>
              <LatitudeDegrees>37.55699177272617816925048828125</LatitudeDegrees>
              <LongitudeDegrees>-6.1029218696057796478271484375</LongitudeDegrees>
            </Position>
            <AltitudeMeters>51.59999847412109375</AltitudeMeters>
            <DistanceMeters>NAN</DistanceMeters>
          </Trackpoint>
          <Trackpoint>
            <Time>2019-10-10T12:44:16.000Z</Time>
            <Position>
              <LatitudeDegrees>37.5569050200283527374267578125</LatitudeDegrees>
              <LongitudeDegrees>-6.102908961474895477294921875</LongitudeDegrees>
            </Position>
            <AltitudeMeters>51.200000762939453125</AltitudeMeters>
            <DistanceMeters>NAN</DistanceMeters>
          </Trackpoint>
          <Trackpoint>
            <Time>2019-10-10T12:44:17.000Z</Time>
            <Position>
              <LatitudeDegrees>37.5568165071308612823486328125</LatitudeDegrees>
              <LongitudeDegrees>-6.10289563424885272979736328125</LongitudeDegrees>
            </Position>
            <AltitudeMeters>50.59999847412109375</AltitudeMeters>
            <DistanceMeters>NAN</DistanceMeters>
          </Trackpoint>
          <Trackpoint>
            <Time>2019-10-10T12:44:18.000Z</Time>
            <Position>
              <LatitudeDegrees>37.5567266531288623809814453125</LatitudeDegrees>
              <LongitudeDegrees>-6.10288222320377826690673828125</LongitudeDegrees>
            </Position>
            <AltitudeMeters>50</AltitudeMeters>
            <DistanceMeters>NAN</DistanceMeters>
          </Trackpoint>
          <Trackpoint>
            <Time>2019-10-10T12:44:20.000Z</Time>
            <Position>
              <LatitudeDegrees>37.55654484964907169342041015625</LatitudeDegrees>
              <LongitudeDegrees>-6.1028501205146312713623046875</LongitudeDegrees>
            </Position>
            <AltitudeMeters>48.799999237060546875</AltitudeMeters>
            <DistanceMeters>NAN</DistanceMeters>
          </Trackpoint>
          <Trackpoint>
            <Time>2019-10-10T12:44:22.000Z</Time>
            <Position>
              <LatitudeDegrees>37.55636128596961498260498046875</LatitudeDegrees>
              <LongitudeDegrees>-6.10281416215002536773681640625</LongitudeDegrees>
            </Position>
            <AltitudeMeters>47.200000762939453125</AltitudeMeters>
            <DistanceMeters>NAN</DistanceMeters>
          </Trackpoint>
          <Trackpoint>
            <Time>2019-10-10T12:44:23.000Z</Time>
            <Position>
              <LatitudeDegrees>37.55627009086310863494873046875</LatitudeDegrees>
              <LongitudeDegrees>-6.10279622487723827362060546875</LongitudeDegrees>
            </Position>
            <AltitudeMeters>46.799999237060546875</AltitudeMeters>
            <DistanceMeters>NAN</DistanceMeters>
          </Trackpoint>
          <Trackpoint>
            <Time>2019-10-10T12:44:24.000Z</Time>
            <Position>
              <LatitudeDegrees>37.5561774708330631256103515625</LatitudeDegrees>
              <LongitudeDegrees>-6.10277811996638774871826171875</LongitudeDegrees>
            </Position>
            <AltitudeMeters>46.59999847412109375</AltitudeMeters>
            <DistanceMeters>NAN</DistanceMeters>
          </Trackpoint>
          <Trackpoint>
            <Time>2019-10-10T12:44:25.000Z</Time>
            <Position>
              <LatitudeDegrees>37.556085102260112762451171875</LatitudeDegrees>
              <LongitudeDegrees>-6.10276018269360065460205078125</LongitudeDegrees>
            </Position>
            <AltitudeMeters>46.40000152587890625</AltitudeMeters>
            <DistanceMeters>NAN</DistanceMeters>
          </Trackpoint>
          <Trackpoint>
            <Time>2019-10-10T12:44:26.000Z</Time>
            <Position>
              <LatitudeDegrees>37.55599197931587696075439453125</LatitudeDegrees>
              <LongitudeDegrees>-6.1027424968779087066650390625</LongitudeDegrees>
            </Position>
            <AltitudeMeters>46</AltitudeMeters>
            <DistanceMeters>NAN</DistanceMeters>
          </Trackpoint>
          <Trackpoint>
            <Time>2019-10-10T12:44:28.000Z</Time>
            <Position>
              <LatitudeDegrees>37.55580824799835681915283203125</LatitudeDegrees>
              <LongitudeDegrees>-6.1027062870562076568603515625</LongitudeDegrees>
            </Position>
            <AltitudeMeters>45</AltitudeMeters>
            <DistanceMeters>NAN</DistanceMeters>
          </Trackpoint>
          <Trackpoint>
            <Time>2019-10-10T12:44:30.000Z</Time>
            <Position>
              <LatitudeDegrees>37.55562820471823215484619140625</LatitudeDegrees>
              <LongitudeDegrees>-6.1026704125106334686279296875</LongitudeDegrees>
            </Position>
            <AltitudeMeters>44.40000152587890625</AltitudeMeters>
            <DistanceMeters>NAN</DistanceMeters>
          </Trackpoint>
          <Trackpoint>
            <Time>2019-10-10T12:44:33.000Z</Time>
            <Position>
              <LatitudeDegrees>37.55536098964512348175048828125</LatitudeDegrees>
              <LongitudeDegrees>-6.1026164330542087554931640625</LongitudeDegrees>
            </Position>
            <AltitudeMeters>43.59999847412109375</AltitudeMeters>
            <DistanceMeters>NAN</DistanceMeters>
          </Trackpoint>
          <Trackpoint>
            <Time>2019-10-10T12:44:38.000Z</Time>
            <Position>
              <LatitudeDegrees>37.5549252144992351531982421875</LatitudeDegrees>
              <LongitudeDegrees>-6.1025309376418590545654296875</LongitudeDegrees>
            </Position>
            <AltitudeMeters>43.200000762939453125</AltitudeMeters>
            <DistanceMeters>NAN</DistanceMeters>
          </Trackpoint>
          <Trackpoint>
            <Time>2019-10-10T12:44:42.000Z</Time>
            <Position>
              <LatitudeDegrees>37.55458482541143894195556640625</LatitudeDegrees>
              <LongitudeDegrees>-6.102451644837856292724609375</LongitudeDegrees>
            </Position>
            <AltitudeMeters>42.200000762939453125</AltitudeMeters>
            <DistanceMeters>NAN</DistanceMeters>
          </Trackpoint>
          <Trackpoint>
            <Time>2019-10-10T12:44:43.000Z</Time>
            <Position>
              <LatitudeDegrees>37.5545027665793895721435546875</LatitudeDegrees>
              <LongitudeDegrees>-6.1024347133934497833251953125</LongitudeDegrees>
            </Position>
            <AltitudeMeters>42</AltitudeMeters>
            <DistanceMeters>NAN</DistanceMeters>
          </Trackpoint>
          <Trackpoint>
            <Time>2019-10-10T12:44:48.000Z</Time>
            <Position>
              <LatitudeDegrees>37.5541064701974391937255859375</LatitudeDegrees>
              <LongitudeDegrees>-6.10233061015605926513671875</LongitudeDegrees>
            </Position>
            <AltitudeMeters>41.59999847412109375</AltitudeMeters>
            <DistanceMeters>NAN</DistanceMeters>
          </Trackpoint>
          <Trackpoint>
            <Time>2019-10-10T12:44:51.000Z</Time>
            <Position>
              <LatitudeDegrees>37.55388577468693256378173828125</LatitudeDegrees>
              <LongitudeDegrees>-6.10226028598845005035400390625</LongitudeDegrees>
            </Position>
            <AltitudeMeters>41</AltitudeMeters>
            <DistanceMeters>NAN</DistanceMeters>
          </Trackpoint>
          <Trackpoint>
            <Time>2019-10-10T12:44:57.000Z</Time>
            <Position>
              <LatitudeDegrees>37.55346550606191158294677734375</LatitudeDegrees>
              <LongitudeDegrees>-6.10209063626825809478759765625</LongitudeDegrees>
            </Position>
            <AltitudeMeters>41</AltitudeMeters>
            <DistanceMeters>NAN</DistanceMeters>
          </Trackpoint>
          <Trackpoint>
            <Time>2019-10-10T12:44:59.000Z</Time>
            <Position>
              <LatitudeDegrees>37.5533266179263591766357421875</LatitudeDegrees>
              <LongitudeDegrees>-6.10202525742352008819580078125</LongitudeDegrees>
            </Position>
            <AltitudeMeters>40.799999237060546875</AltitudeMeters>
            <DistanceMeters>NAN</DistanceMeters>
          </Trackpoint>
          <Trackpoint>
            <Time>2019-10-10T12:45:03.000Z</Time>
            <Position>
              <LatitudeDegrees>37.55304473452270030975341796875</LatitudeDegrees>
              <LongitudeDegrees>-6.101878322660923004150390625</LongitudeDegrees>
            </Position>
            <AltitudeMeters>40</AltitudeMeters>
            <DistanceMeters>NAN</DistanceMeters>
          </Trackpoint>
          <Trackpoint>
            <Time>2019-10-10T12:45:08.000Z</Time>
            <Position>
              <LatitudeDegrees>37.55268665961921215057373046875</LatitudeDegrees>
              <LongitudeDegrees>-6.10167237929999828338623046875</LongitudeDegrees>
            </Position>
            <AltitudeMeters>38.799999237060546875</AltitudeMeters>
            <DistanceMeters>NAN</DistanceMeters>
          </Trackpoint>
          <Trackpoint>
            <Time>2019-10-10T12:45:10.000Z</Time>
            <Position>
              <LatitudeDegrees>37.55253712646663188934326171875</LatitudeDegrees>
              <LongitudeDegrees>-6.10158654861152172088623046875</LongitudeDegrees>
            </Position>
            <AltitudeMeters>37.799999237060546875</AltitudeMeters>
            <DistanceMeters>NAN</DistanceMeters>
          </Trackpoint>
          <Trackpoint>
            <Time>2019-10-10T12:45:13.000Z</Time>
            <Position>
              <LatitudeDegrees>37.5523070432245731353759765625</LatitudeDegrees>
              <LongitudeDegrees>-6.1014479957520961761474609375</LongitudeDegrees>
            </Position>
            <AltitudeMeters>36.799999237060546875</AltitudeMeters>
            <DistanceMeters>NAN</DistanceMeters>
          </Trackpoint>
          <Trackpoint>
            <Time>2019-10-10T12:45:15.000Z</Time>
            <Position>
              <LatitudeDegrees>37.55215122364461421966552734375</LatitudeDegrees>
              <LongitudeDegrees>-6.101352274417877197265625</LongitudeDegrees>
            </Position>
            <AltitudeMeters>35.59999847412109375</AltitudeMeters>
            <DistanceMeters>NAN</DistanceMeters>
          </Trackpoint>
          <Trackpoint>
            <Time>2019-10-10T12:45:16.000Z</Time>
            <Position>
              <LatitudeDegrees>37.55207260139286518096923828125</LatitudeDegrees>
              <LongitudeDegrees>-6.10130256973206996917724609375</LongitudeDegrees>
            </Position>
            <AltitudeMeters>35.200000762939453125</AltitudeMeters>
            <DistanceMeters>NAN</DistanceMeters>
          </Trackpoint>
          <Trackpoint>
            <Time>2019-10-10T12:45:19.000Z</Time>
            <Position>
              <LatitudeDegrees>37.55183304660022258758544921875</LatitudeDegrees>
              <LongitudeDegrees>-6.10115823335945606231689453125</LongitudeDegrees>
            </Position>
            <AltitudeMeters>34.200000762939453125</AltitudeMeters>
            <DistanceMeters>NAN</DistanceMeters>
          </Trackpoint>
          <Trackpoint>
            <Time>2019-10-10T12:45:23.000Z</Time>
            <Position>
              <LatitudeDegrees>37.55151185207068920135498046875</LatitudeDegrees>
              <LongitudeDegrees>-6.10096695832908153533935546875</LongitudeDegrees>
            </Position>
            <AltitudeMeters>32.59999847412109375</AltitudeMeters>
            <DistanceMeters>NAN</DistanceMeters>
          </Trackpoint>
          <Trackpoint>
            <Time>2019-10-10T12:45:27.000Z</Time>
            <Position>
              <LatitudeDegrees>37.55119484849274158477783203125</LatitudeDegrees>
              <LongitudeDegrees>-6.1007720790803432464599609375</LongitudeDegrees>
            </Position>
            <AltitudeMeters>31.6000003814697265625</AltitudeMeters>
            <DistanceMeters>NAN</DistanceMeters>
          </Trackpoint>
          <Trackpoint>
            <Time>2019-10-10T12:45:34.000Z</Time>
            <Position>
              <LatitudeDegrees>37.550642229616641998291015625</LatitudeDegrees>
              <LongitudeDegrees>-6.100440323352813720703125</LongitudeDegrees>
            </Position>
            <AltitudeMeters>30.3999996185302734375</AltitudeMeters>
            <DistanceMeters>NAN</DistanceMeters>
          </Trackpoint>
          <Trackpoint>
            <Time>2019-10-10T12:45:36.000Z</Time>
            <Position>
              <LatitudeDegrees>37.550484649837017059326171875</LatitudeDegrees>
              <LongitudeDegrees>-6.10035658814013004302978515625</LongitudeDegrees>
            </Position>
            <AltitudeMeters>30.200000762939453125</AltitudeMeters>
            <DistanceMeters>NAN</DistanceMeters>
          </Trackpoint>
          <Trackpoint>
            <Time>2019-10-10T12:45:43.000Z</Time>
            <Position>
              <LatitudeDegrees>37.5499430112540721893310546875</LatitudeDegrees>
              <LongitudeDegrees>-6.10011485405266284942626953125</LongitudeDegrees>
            </Position>
            <AltitudeMeters>29.3999996185302734375</AltitudeMeters>
            <DistanceMeters>NAN</DistanceMeters>
          </Trackpoint>
          <Trackpoint>
            <Time>2019-10-10T12:45:44.000Z</Time>
            <Position>
              <LatitudeDegrees>37.5498662330210208892822265625</LatitudeDegrees>
              <LongitudeDegrees>-6.1000891216099262237548828125</LongitudeDegrees>
            </Position>
            <AltitudeMeters>29.200000762939453125</AltitudeMeters>
            <DistanceMeters>NAN</DistanceMeters>
          </Trackpoint>
          <Trackpoint>
            <Time>2019-10-10T12:45:51.000Z</Time>
            <Position>
              <LatitudeDegrees>37.54933859221637248992919921875</LatitudeDegrees>
              <LongitudeDegrees>-6.0999637283384799957275390625</LongitudeDegrees>
            </Position>
            <AltitudeMeters>29</AltitudeMeters>
            <DistanceMeters>NAN</DistanceMeters>
          </Trackpoint>
          <Trackpoint>
            <Time>2019-10-10T12:45:56.000Z</Time>
            <Position>
              <LatitudeDegrees>37.548972554504871368408203125</LatitudeDegrees>
              <LongitudeDegrees>-6.09994067810475826263427734375</LongitudeDegrees>
            </Position>
            <AltitudeMeters>29.799999237060546875</AltitudeMeters>
            <DistanceMeters>NAN</DistanceMeters>
          </Trackpoint>
          <Trackpoint>
            <Time>2019-10-10T12:45:58.000Z</Time>
            <Position>
              <LatitudeDegrees>37.54882629029452800750732421875</LatitudeDegrees>
              <LongitudeDegrees>-6.099936403334140777587890625</LongitudeDegrees>
            </Position>
            <AltitudeMeters>29.3999996185302734375</AltitudeMeters>
            <DistanceMeters>NAN</DistanceMeters>
          </Trackpoint>
          <Trackpoint>
            <Time>2019-10-10T12:46:03.000Z</Time>
            <Position>
              <LatitudeDegrees>37.54845882765948772430419921875</LatitudeDegrees>
              <LongitudeDegrees>-6.099955178797245025634765625</LongitudeDegrees>
            </Position>
            <AltitudeMeters>29.200000762939453125</AltitudeMeters>
            <DistanceMeters>NAN</DistanceMeters>
          </Trackpoint>
          <Trackpoint>
            <Time>2019-10-10T12:46:06.000Z</Time>
            <Position>
              <LatitudeDegrees>37.5482324324548244476318359375</LatitudeDegrees>
              <LongitudeDegrees>-6.099978983402252197265625</LongitudeDegrees>
            </Position>
            <AltitudeMeters>29</AltitudeMeters>
            <DistanceMeters>NAN</DistanceMeters>
          </Trackpoint>
          <Trackpoint>
            <Time>2019-10-10T12:46:10.000Z</Time>
            <Position>
              <LatitudeDegrees>37.5479209609329700469970703125</LatitudeDegrees>
              <LongitudeDegrees>-6.10000974498689174652099609375</LongitudeDegrees>
            </Position>
            <AltitudeMeters>28.3999996185302734375</AltitudeMeters>
            <DistanceMeters>NAN</DistanceMeters>
          </Trackpoint>
          <Trackpoint>
            <Time>2019-10-10T12:46:12.000Z</Time>
            <Position>
              <LatitudeDegrees>37.547756172716617584228515625</LatitudeDegrees>
              <LongitudeDegrees>-6.10002768225967884063720703125</LongitudeDegrees>
            </Position>
            <AltitudeMeters>27.6000003814697265625</AltitudeMeters>
            <DistanceMeters>NAN</DistanceMeters>
          </Trackpoint>
          <Trackpoint>
            <Time>2019-10-10T12:46:14.000Z</Time>
            <Position>
              <LatitudeDegrees>37.5475880317389965057373046875</LatitudeDegrees>
              <LongitudeDegrees>-6.10004612244665622711181640625</LongitudeDegrees>
            </Position>
            <AltitudeMeters>26.200000762939453125</AltitudeMeters>
            <DistanceMeters>NAN</DistanceMeters>
          </Trackpoint>
          <Trackpoint>
            <Time>2019-10-10T12:46:16.000Z</Time>
            <Position>
              <LatitudeDegrees>37.54741528071463108062744140625</LatitudeDegrees>
              <LongitudeDegrees>-6.10005701892077922821044921875</LongitudeDegrees>
            </Position>
            <AltitudeMeters>25.200000762939453125</AltitudeMeters>
            <DistanceMeters>NAN</DistanceMeters>
          </Trackpoint>
          <Trackpoint>
            <Time>2019-10-10T12:46:21.000Z</Time>
            <Position>
              <LatitudeDegrees>37.54696869291365146636962890625</LatitudeDegrees>
              <LongitudeDegrees>-6.10009490512311458587646484375</LongitudeDegrees>
            </Position>
            <AltitudeMeters>23.6000003814697265625</AltitudeMeters>
            <DistanceMeters>NAN</DistanceMeters>
          </Trackpoint>
          <Trackpoint>
            <Time>2019-10-10T12:46:25.000Z</Time>
            <Position>
              <LatitudeDegrees>37.546604834496974945068359375</LatitudeDegrees>
              <LongitudeDegrees>-6.10009674914181232452392578125</LongitudeDegrees>
            </Position>
            <AltitudeMeters>22.3999996185302734375</AltitudeMeters>
            <DistanceMeters>NAN</DistanceMeters>
          </Trackpoint>
          <Trackpoint>
            <Time>2019-10-10T12:46:29.000Z</Time>
            <Position>
              <LatitudeDegrees>37.54624432884156703948974609375</LatitudeDegrees>
              <LongitudeDegrees>-6.1000696755945682525634765625</LongitudeDegrees>
            </Position>
            <AltitudeMeters>21.799999237060546875</AltitudeMeters>
            <DistanceMeters>NAN</DistanceMeters>
          </Trackpoint>
          <Trackpoint>
            <Time>2019-10-10T12:46:30.000Z</Time>
            <Position>
              <LatitudeDegrees>37.54615397192537784576416015625</LatitudeDegrees>
              <LongitudeDegrees>-6.1000619642436504364013671875</LongitudeDegrees>
            </Position>
            <AltitudeMeters>21.3999996185302734375</AltitudeMeters>
            <DistanceMeters>NAN</DistanceMeters>
          </Trackpoint>
          <Trackpoint>
            <Time>2019-10-10T12:46:32.000Z</Time>
            <Position>
              <LatitudeDegrees>37.54597342573106288909912109375</LatitudeDegrees>
              <LongitudeDegrees>-6.10004059039056301116943359375</LongitudeDegrees>
            </Position>
            <AltitudeMeters>20.200000762939453125</AltitudeMeters>
            <DistanceMeters>NAN</DistanceMeters>
          </Trackpoint>
          <Trackpoint>
            <Time>2019-10-10T12:46:34.000Z</Time>
            <Position>
              <LatitudeDegrees>37.54579723812639713287353515625</LatitudeDegrees>
              <LongitudeDegrees>-6.10000756569206714630126953125</LongitudeDegrees>
            </Position>
            <AltitudeMeters>19.200000762939453125</AltitudeMeters>
            <DistanceMeters>NAN</DistanceMeters>
          </Trackpoint>
          <Trackpoint>
            <Time>2019-10-10T12:46:36.000Z</Time>
            <Position>
              <LatitudeDegrees>37.5456243194639682769775390625</LatitudeDegrees>
              <LongitudeDegrees>-6.099967248737812042236328125</LongitudeDegrees>
            </Position>
            <AltitudeMeters>19</AltitudeMeters>
            <DistanceMeters>NAN</DistanceMeters>
          </Trackpoint>
          <Trackpoint>
            <Time>2019-10-10T12:46:37.000Z</Time>
            <Position>
              <LatitudeDegrees>37.54553832113742828369140625</LatitudeDegrees>
              <LongitudeDegrees>-6.09994604252278804779052734375</LongitudeDegrees>
            </Position>
            <AltitudeMeters>19</AltitudeMeters>
            <DistanceMeters>NAN</DistanceMeters>
          </Trackpoint>
          <Trackpoint>
            <Time>2019-10-10T12:46:43.000Z</Time>
            <Position>
              <LatitudeDegrees>37.54502912051975727081298828125</LatitudeDegrees>
              <LongitudeDegrees>-6.09979164786636829376220703125</LongitudeDegrees>
            </Position>
            <AltitudeMeters>17.6000003814697265625</AltitudeMeters>
            <DistanceMeters>NAN</DistanceMeters>
          </Trackpoint>
          <Trackpoint>
            <Time>2019-10-10T12:46:45.000Z</Time>
            <Position>
              <LatitudeDegrees>37.54486366175115108489990234375</LatitudeDegrees>
              <LongitudeDegrees>-6.099734567105770111083984375</LongitudeDegrees>
            </Position>
            <AltitudeMeters>16.3999996185302734375</AltitudeMeters>
            <DistanceMeters>NAN</DistanceMeters>
          </Trackpoint>
          <Trackpoint>
            <Time>2019-10-10T12:46:46.000Z</Time>
            <Position>
              <LatitudeDegrees>37.5447831116616725921630859375</LatitudeDegrees>
              <LongitudeDegrees>-6.09970732592046260833740234375</LongitudeDegrees>
            </Position>
            <AltitudeMeters>15.6000003814697265625</AltitudeMeters>
            <DistanceMeters>NAN</DistanceMeters>
          </Trackpoint>
          <Trackpoint>
            <Time>2019-10-10T12:46:50.000Z</Time>
            <Position>
              <LatitudeDegrees>37.544475160539150238037109375</LatitudeDegrees>
              <LongitudeDegrees>-6.0995905660092830657958984375</LongitudeDegrees>
            </Position>
            <AltitudeMeters>15.3999996185302734375</AltitudeMeters>
            <DistanceMeters>NAN</DistanceMeters>
          </Trackpoint>
          <Trackpoint>
            <Time>2019-10-10T12:46:54.000Z</Time>
            <Position>
              <LatitudeDegrees>37.544189505279064178466796875</LatitudeDegrees>
              <LongitudeDegrees>-6.09948151744902133941650390625</LongitudeDegrees>
            </Position>
            <AltitudeMeters>15</AltitudeMeters>
            <DistanceMeters>NAN</DistanceMeters>
          </Trackpoint>
          <Trackpoint>
            <Time>2019-10-10T12:47:00.000Z</Time>
            <Position>
              <LatitudeDegrees>37.54378574900329113006591796875</LatitudeDegrees>
              <LongitudeDegrees>-6.09934128820896148681640625</LongitudeDegrees>
            </Position>
            <AltitudeMeters>16</AltitudeMeters>
            <DistanceMeters>NAN</DistanceMeters>
          </Trackpoint>
          <Trackpoint>
            <Time>2019-10-10T12:47:02.000Z</Time>
            <Position>
              <LatitudeDegrees>37.54365767352283000946044921875</LatitudeDegrees>
              <LongitudeDegrees>-6.09929309226572513580322265625</LongitudeDegrees>
            </Position>
            <AltitudeMeters>16.3999996185302734375</AltitudeMeters>
            <DistanceMeters>NAN</DistanceMeters>
          </Trackpoint>
          <Trackpoint>
            <Time>2019-10-10T12:47:03.000Z</Time>
            <Position>
              <LatitudeDegrees>37.54359430633485317230224609375</LatitudeDegrees>
              <LongitudeDegrees>-6.0992683656513690948486328125</LongitudeDegrees>
            </Position>
            <AltitudeMeters>16.6000003814697265625</AltitudeMeters>
            <DistanceMeters>NAN</DistanceMeters>
          </Trackpoint>
          <Trackpoint>
            <Time>2019-10-10T12:47:11.000Z</Time>
            <Position>
              <LatitudeDegrees>37.5431047193706035614013671875</LatitudeDegrees>
              <LongitudeDegrees>-6.099079437553882598876953125</LongitudeDegrees>
            </Position>
            <AltitudeMeters>17</AltitudeMeters>
            <DistanceMeters>NAN</DistanceMeters>
          </Trackpoint>
          <Trackpoint>
            <Time>2019-10-10T12:47:13.000Z</Time>
            <Position>
              <LatitudeDegrees>37.54299114458262920379638671875</LatitudeDegrees>
              <LongitudeDegrees>-6.0990308225154876708984375</LongitudeDegrees>
            </Position>
            <AltitudeMeters>17.6000003814697265625</AltitudeMeters>
            <DistanceMeters>NAN</DistanceMeters>
          </Trackpoint>
          <Trackpoint>
            <Time>2019-10-10T12:47:20.000Z</Time>
            <Position>
              <LatitudeDegrees>37.54259753040969371795654296875</LatitudeDegrees>
              <LongitudeDegrees>-6.0988797806203365325927734375</LongitudeDegrees>
            </Position>
            <AltitudeMeters>18</AltitudeMeters>
            <DistanceMeters>NAN</DistanceMeters>
          </Trackpoint>
          <Trackpoint>
            <Time>2019-10-10T12:47:24.000Z</Time>
            <Position>
              <LatitudeDegrees>37.54237038083374500274658203125</LatitudeDegrees>
              <LongitudeDegrees>-6.09879302792251110076904296875</LongitudeDegrees>
            </Position>
            <AltitudeMeters>18</AltitudeMeters>
            <DistanceMeters>NAN</DistanceMeters>
          </Trackpoint>
          <Trackpoint>
            <Time>2019-10-10T12:47:33.000Z</Time>
            <Position>
              <LatitudeDegrees>37.54186528734862804412841796875</LatitudeDegrees>
              <LongitudeDegrees>-6.09859253279864788055419921875</LongitudeDegrees>
            </Position>
            <AltitudeMeters>18.200000762939453125</AltitudeMeters>
            <DistanceMeters>NAN</DistanceMeters>
          </Trackpoint>
          <Trackpoint>
            <Time>2019-10-10T12:47:36.000Z</Time>
            <Position>
              <LatitudeDegrees>37.5416995771229267120361328125</LatitudeDegrees>
              <LongitudeDegrees>-6.0985253937542438507080078125</LongitudeDegrees>
            </Position>
            <AltitudeMeters>18.200000762939453125</AltitudeMeters>
            <DistanceMeters>NAN</DistanceMeters>
          </Trackpoint>
          <Trackpoint>
            <Time>2019-10-10T12:47:38.000Z</Time>
            <Position>
              <LatitudeDegrees>37.541590444743633270263671875</LatitudeDegrees>
              <LongitudeDegrees>-6.09847870655357837677001953125</LongitudeDegrees>
            </Position>
            <AltitudeMeters>18.6000003814697265625</AltitudeMeters>
            <DistanceMeters>NAN</DistanceMeters>
          </Trackpoint>
          <Trackpoint>
            <Time>2019-10-10T12:47:44.000Z</Time>
            <Position>
              <LatitudeDegrees>37.54126782529056072235107421875</LatitudeDegrees>
              <LongitudeDegrees>-6.0983295924961566925048828125</LongitudeDegrees>
            </Position>
            <AltitudeMeters>18.200000762939453125</AltitudeMeters>
            <DistanceMeters>NAN</DistanceMeters>
          </Trackpoint>
          <Trackpoint>
            <Time>2019-10-10T12:47:46.000Z</Time>
            <Position>
              <LatitudeDegrees>37.541161291301250457763671875</LatitudeDegrees>
              <LongitudeDegrees>-6.09827117063105106353759765625</LongitudeDegrees>
            </Position>
            <AltitudeMeters>17</AltitudeMeters>
            <DistanceMeters>NAN</DistanceMeters>
          </Trackpoint>
          <Trackpoint>
            <Time>2019-10-10T12:47:52.000Z</Time>
            <Position>
              <LatitudeDegrees>37.540815286338329315185546875</LatitudeDegrees>
              <LongitudeDegrees>-6.0980778001248836517333984375</LongitudeDegrees>
            </Position>
            <AltitudeMeters>16.6000003814697265625</AltitudeMeters>
            <DistanceMeters>NAN</DistanceMeters>
          </Trackpoint>
          <Trackpoint>
            <Time>2019-10-10T12:47:56.000Z</Time>
            <Position>
              <LatitudeDegrees>37.5405656732618808746337890625</LatitudeDegrees>
              <LongitudeDegrees>-6.09791460447013378143310546875</LongitudeDegrees>
            </Position>
            <AltitudeMeters>15.80000019073486328125</AltitudeMeters>
            <DistanceMeters>NAN</DistanceMeters>
          </Trackpoint>
          <Trackpoint>
            <Time>2019-10-10T12:47:59.000Z</Time>
            <Position>
              <LatitudeDegrees>37.54037297330796718597412109375</LatitudeDegrees>
              <LongitudeDegrees>-6.0977787338197231292724609375</LongitudeDegrees>
            </Position>
            <AltitudeMeters>15</AltitudeMeters>
            <DistanceMeters>NAN</DistanceMeters>
          </Trackpoint>
          <Trackpoint>
            <Time>2019-10-10T12:48:00.000Z</Time>
            <Position>
              <LatitudeDegrees>37.5403078459203243255615234375</LatitudeDegrees>
              <LongitudeDegrees>-6.0977326333522796630859375</LongitudeDegrees>
            </Position>
            <AltitudeMeters>14.6000003814697265625</AltitudeMeters>
            <DistanceMeters>NAN</DistanceMeters>
          </Trackpoint>
          <Trackpoint>
            <Time>2019-10-10T12:48:08.000Z</Time>
            <Position>
              <LatitudeDegrees>37.5397948734462261199951171875</LatitudeDegrees>
              <LongitudeDegrees>-6.09737279824912548065185546875</LongitudeDegrees>
            </Position>
            <AltitudeMeters>13.80000019073486328125</AltitudeMeters>
            <DistanceMeters>NAN</DistanceMeters>
          </Trackpoint>
          <Trackpoint>
            <Time>2019-10-10T12:48:13.000Z</Time>
            <Position>
              <LatitudeDegrees>37.5395068712532520294189453125</LatitudeDegrees>
              <LongitudeDegrees>-6.09716601669788360595703125</LongitudeDegrees>
            </Position>
            <AltitudeMeters>14.3999996185302734375</AltitudeMeters>
            <DistanceMeters>NAN</DistanceMeters>
          </Trackpoint>
          <Trackpoint>
            <Time>2019-10-10T12:48:14.000Z</Time>
            <Position>
              <LatitudeDegrees>37.53945549018681049346923828125</LatitudeDegrees>
              <LongitudeDegrees>-6.0971269570291042327880859375</LongitudeDegrees>
            </Position>
            <AltitudeMeters>14.6000003814697265625</AltitudeMeters>
            <DistanceMeters>NAN</DistanceMeters>
          </Trackpoint>
          <Trackpoint>
            <Time>2019-10-10T12:48:20.000Z</Time>
            <Position>
              <LatitudeDegrees>37.53919933922588825225830078125</LatitudeDegrees>
              <LongitudeDegrees>-6.09694196842610836029052734375</LongitudeDegrees>
            </Position>
            <AltitudeMeters>15.6000003814697265625</AltitudeMeters>
            <DistanceMeters>NAN</DistanceMeters>
          </Trackpoint>
          <Trackpoint>
            <Time>2019-10-10T12:48:25.000Z</Time>
            <Position>
              <LatitudeDegrees>37.53902432508766651153564453125</LatitudeDegrees>
              <LongitudeDegrees>-6.09681464731693267822265625</LongitudeDegrees>
            </Position>
            <AltitudeMeters>16.799999237060546875</AltitudeMeters>
            <DistanceMeters>NAN</DistanceMeters>
          </Trackpoint>
          <Trackpoint>
            <Time>2019-10-10T12:48:28.000Z</Time>
            <Position>
              <LatitudeDegrees>37.538920976221561431884765625</LatitudeDegrees>
              <LongitudeDegrees>-6.096744239330291748046875</LongitudeDegrees>
            </Position>
            <AltitudeMeters>18</AltitudeMeters>
            <DistanceMeters>NAN</DistanceMeters>
          </Trackpoint>
          <Trackpoint>
            <Time>2019-10-10T12:48:36.000Z</Time>
            <Position>
              <LatitudeDegrees>37.538655437529087066650390625</LatitudeDegrees>
              <LongitudeDegrees>-6.0965430736541748046875</LongitudeDegrees>
            </Position>
            <AltitudeMeters>18.3999996185302734375</AltitudeMeters>
            <DistanceMeters>NAN</DistanceMeters>
          </Trackpoint>
          <Trackpoint>
            <Time>2019-10-10T12:48:40.000Z</Time>
            <Position>
              <LatitudeDegrees>37.53850883804261684417724609375</LatitudeDegrees>
              <LongitudeDegrees>-6.0964319296181201934814453125</LongitudeDegrees>
            </Position>
            <AltitudeMeters>19</AltitudeMeters>
            <DistanceMeters>NAN</DistanceMeters>
          </Trackpoint>
          <Trackpoint>
            <Time>2019-10-10T12:48:42.000Z</Time>
            <Position>
              <LatitudeDegrees>37.5384373404085636138916015625</LatitudeDegrees>
              <LongitudeDegrees>-6.096367724239826202392578125</LongitudeDegrees>
            </Position>
            <AltitudeMeters>18.799999237060546875</AltitudeMeters>
            <DistanceMeters>NAN</DistanceMeters>
          </Trackpoint>
          <Trackpoint>
            <Time>2019-10-10T12:48:51.000Z</Time>
            <Position>
              <LatitudeDegrees>37.538111619651317596435546875</LatitudeDegrees>
              <LongitudeDegrees>-6.0960589349269866943359375</LongitudeDegrees>
            </Position>
            <AltitudeMeters>18.3999996185302734375</AltitudeMeters>
            <DistanceMeters>NAN</DistanceMeters>
          </Trackpoint>
          <Trackpoint>
            <Time>2019-10-10T12:48:56.000Z</Time>
            <Position>
              <LatitudeDegrees>37.53794096410274505615234375</LatitudeDegrees>
              <LongitudeDegrees>-6.0958706773817539215087890625</LongitudeDegrees>
            </Position>
            <AltitudeMeters>19.200000762939453125</AltitudeMeters>
            <DistanceMeters>NAN</DistanceMeters>
          </Trackpoint>
          <Trackpoint>
            <Time>2019-10-10T12:49:03.000Z</Time>
            <Position>
              <LatitudeDegrees>37.53771591000258922576904296875</LatitudeDegrees>
              <LongitudeDegrees>-6.0955947451293468475341796875</LongitudeDegrees>
            </Position>
            <AltitudeMeters>19.799999237060546875</AltitudeMeters>
            <DistanceMeters>NAN</DistanceMeters>
          </Trackpoint>
          <Trackpoint>
            <Time>2019-10-10T12:49:04.000Z</Time>
            <Position>
              <LatitudeDegrees>37.53768573515117168426513671875</LatitudeDegrees>
              <LongitudeDegrees>-6.0955548472702503204345703125</LongitudeDegrees>
            </Position>
            <AltitudeMeters>20.3999996185302734375</AltitudeMeters>
            <DistanceMeters>NAN</DistanceMeters>
          </Trackpoint>
          <Trackpoint>
            <Time>2019-10-10T12:49:11.000Z</Time>
            <Position>
              <LatitudeDegrees>37.53749169409275054931640625</LatitudeDegrees>
              <LongitudeDegrees>-6.09527011401951313018798828125</LongitudeDegrees>
            </Position>
            <AltitudeMeters>21.200000762939453125</AltitudeMeters>
            <DistanceMeters>NAN</DistanceMeters>
          </Trackpoint>
          <Trackpoint>
            <Time>2019-10-10T12:49:13.000Z</Time>
            <Position>
              <LatitudeDegrees>37.537440396845340728759765625</LatitudeDegrees>
              <LongitudeDegrees>-6.0951860435307025909423828125</LongitudeDegrees>
            </Position>
            <AltitudeMeters>21.3999996185302734375</AltitudeMeters>
            <DistanceMeters>NAN</DistanceMeters>
          </Trackpoint>
          <Trackpoint>
            <Time>2019-10-10T12:49:18.000Z</Time>
            <Position>
              <LatitudeDegrees>37.53731944598257541656494140625</LatitudeDegrees>
              <LongitudeDegrees>-6.09497741796076297760009765625</LongitudeDegrees>
            </Position>
            <AltitudeMeters>22.200000762939453125</AltitudeMeters>
            <DistanceMeters>NAN</DistanceMeters>
          </Trackpoint>
          <Trackpoint>
            <Time>2019-10-10T12:49:19.000Z</Time>
            <Position>
              <LatitudeDegrees>37.537295557558536529541015625</LatitudeDegrees>
              <LongitudeDegrees>-6.09493483789265155792236328125</LongitudeDegrees>
            </Position>
            <AltitudeMeters>22.6000003814697265625</AltitudeMeters>
            <DistanceMeters>NAN</DistanceMeters>
          </Trackpoint>
          <Trackpoint>
            <Time>2019-10-10T12:49:20.000Z</Time>
            <Position>
              <LatitudeDegrees>37.53727233968675136566162109375</LatitudeDegrees>
              <LongitudeDegrees>-6.094894520938396453857421875</LongitudeDegrees>
            </Position>
            <AltitudeMeters>22.799999237060546875</AltitudeMeters>
            <DistanceMeters>NAN</DistanceMeters>
          </Trackpoint>
          <Trackpoint>
            <Time>2019-10-10T12:49:26.000Z</Time>
            <Position>
              <LatitudeDegrees>37.537128925323486328125</LatitudeDegrees>
              <LongitudeDegrees>-6.09463174827396869659423828125</LongitudeDegrees>
            </Position>
            <AltitudeMeters>23</AltitudeMeters>
            <DistanceMeters>NAN</DistanceMeters>
          </Trackpoint>
          <Trackpoint>
            <Time>2019-10-10T12:49:27.000Z</Time>
            <Position>
              <LatitudeDegrees>37.53710503689944744110107421875</LatitudeDegrees>
              <LongitudeDegrees>-6.094583384692668914794921875</LongitudeDegrees>
            </Position>
            <AltitudeMeters>23</AltitudeMeters>
            <DistanceMeters>NAN</DistanceMeters>
          </Trackpoint>
          <Trackpoint>
            <Time>2019-10-10T12:49:36.000Z</Time>
            <Position>
              <LatitudeDegrees>37.5369057990610599517822265625</LatitudeDegrees>
              <LongitudeDegrees>-6.09409731812775135040283203125</LongitudeDegrees>
            </Position>
            <AltitudeMeters>21.799999237060546875</AltitudeMeters>
            <DistanceMeters>NAN</DistanceMeters>
          </Trackpoint>
          <Trackpoint>
            <Time>2019-10-10T12:49:41.000Z</Time>
            <Position>
              <LatitudeDegrees>37.5368005223572254180908203125</LatitudeDegrees>
              <LongitudeDegrees>-6.0937869362533092498779296875</LongitudeDegrees>
            </Position>
            <AltitudeMeters>21.6000003814697265625</AltitudeMeters>
            <DistanceMeters>NAN</DistanceMeters>
          </Trackpoint>
          <Trackpoint>
            <Time>2019-10-10T12:49:43.000Z</Time>
            <Position>
              <LatitudeDegrees>37.5367629714310169219970703125</LatitudeDegrees>
              <LongitudeDegrees>-6.09365458600223064422607421875</LongitudeDegrees>
            </Position>
            <AltitudeMeters>21.200000762939453125</AltitudeMeters>
            <DistanceMeters>NAN</DistanceMeters>
          </Trackpoint>
          <Trackpoint>
            <Time>2019-10-10T12:49:46.000Z</Time>
            <Position>
              <LatitudeDegrees>37.5367046333849430084228515625</LatitudeDegrees>
              <LongitudeDegrees>-6.09344445168972015380859375</LongitudeDegrees>
            </Position>
            <AltitudeMeters>20.200000762939453125</AltitudeMeters>
            <DistanceMeters>NAN</DistanceMeters>
          </Trackpoint>
          <Trackpoint>
            <Time>2019-10-10T12:49:49.000Z</Time>
            <Position>
              <LatitudeDegrees>37.53665224649012088775634765625</LatitudeDegrees>
              <LongitudeDegrees>-6.09322794713079929351806640625</LongitudeDegrees>
            </Position>
            <AltitudeMeters>18.799999237060546875</AltitudeMeters>
            <DistanceMeters>NAN</DistanceMeters>
          </Trackpoint>
          <Trackpoint>
            <Time>2019-10-10T12:49:50.000Z</Time>
            <Position>
              <LatitudeDegrees>37.536633722484111785888671875</LatitudeDegrees>
              <LongitudeDegrees>-6.09315452165901660919189453125</LongitudeDegrees>
            </Position>
            <AltitudeMeters>18.200000762939453125</AltitudeMeters>
            <DistanceMeters>NAN</DistanceMeters>
          </Trackpoint>
          <Trackpoint>
            <Time>2019-10-10T12:49:52.000Z</Time>
            <Position>
              <LatitudeDegrees>37.53659910522401332855224609375</LatitudeDegrees>
              <LongitudeDegrees>-6.09300264157354831695556640625</LongitudeDegrees>
            </Position>
            <AltitudeMeters>17.6000003814697265625</AltitudeMeters>
            <DistanceMeters>NAN</DistanceMeters>
          </Trackpoint>
          <Trackpoint>
            <Time>2019-10-10T12:49:58.000Z</Time>
            <Position>
              <LatitudeDegrees>37.53648854792118072509765625</LatitudeDegrees>
              <LongitudeDegrees>-6.09252453781664371490478515625</LongitudeDegrees>
            </Position>
            <AltitudeMeters>16.3999996185302734375</AltitudeMeters>
            <DistanceMeters>NAN</DistanceMeters>
          </Trackpoint>
          <Trackpoint>
            <Time>2019-10-10T12:50:01.000Z</Time>
            <Position>
              <LatitudeDegrees>37.5364340655505657196044921875</LatitudeDegrees>
              <LongitudeDegrees>-6.09227408654987812042236328125</LongitudeDegrees>
            </Position>
            <AltitudeMeters>16.799999237060546875</AltitudeMeters>
            <DistanceMeters>NAN</DistanceMeters>
          </Trackpoint>
          <Trackpoint>
            <Time>2019-10-10T12:50:04.000Z</Time>
            <Position>
              <LatitudeDegrees>37.536370195448398590087890625</LatitudeDegrees>
              <LongitudeDegrees>-6.09202288091182708740234375</LongitudeDegrees>
            </Position>
            <AltitudeMeters>15.19999980926513671875</AltitudeMeters>
            <DistanceMeters>NAN</DistanceMeters>
          </Trackpoint>
          <Trackpoint>
            <Time>2019-10-10T12:50:06.000Z</Time>
            <Position>
              <LatitudeDegrees>37.53633054904639720916748046875</LatitudeDegrees>
              <LongitudeDegrees>-6.0918577574193477630615234375</LongitudeDegrees>
            </Position>
            <AltitudeMeters>14.3999996185302734375</AltitudeMeters>
            <DistanceMeters>NAN</DistanceMeters>
          </Trackpoint>
          <Trackpoint>
            <Time>2019-10-10T12:50:09.000Z</Time>
            <Position>
              <LatitudeDegrees>37.53626734949648380279541015625</LatitudeDegrees>
              <LongitudeDegrees>-6.0916183702647686004638671875</LongitudeDegrees>
            </Position>
            <AltitudeMeters>14.6000003814697265625</AltitudeMeters>
            <DistanceMeters>NAN</DistanceMeters>
          </Trackpoint>
          <Trackpoint>
            <Time>2019-10-10T12:50:11.000Z</Time>
            <Position>
              <LatitudeDegrees>37.53622728399932384490966796875</LatitudeDegrees>
              <LongitudeDegrees>-6.09145986847579479217529296875</LongitudeDegrees>
            </Position>
            <AltitudeMeters>14</AltitudeMeters>
            <DistanceMeters>NAN</DistanceMeters>
          </Trackpoint>
          <Trackpoint>
            <Time>2019-10-10T12:50:14.000Z</Time>
            <Position>
              <LatitudeDegrees>37.536171711981296539306640625</LatitudeDegrees>
              <LongitudeDegrees>-6.0912331379950046539306640625</LongitudeDegrees>
            </Position>
            <AltitudeMeters>13.3999996185302734375</AltitudeMeters>
            <DistanceMeters>NAN</DistanceMeters>
          </Trackpoint>
          <Trackpoint>
            <Time>2019-10-10T12:50:19.000Z</Time>
            <Position>
              <LatitudeDegrees>37.5360860489308834075927734375</LatitudeDegrees>
              <LongitudeDegrees>-6.09084933064877986907958984375</LongitudeDegrees>
            </Position>
            <AltitudeMeters>12.80000019073486328125</AltitudeMeters>
            <DistanceMeters>NAN</DistanceMeters>
          </Trackpoint>
          <Trackpoint>
            <Time>2019-10-10T12:50:20.000Z</Time>
            <Position>
              <LatitudeDegrees>37.53606769256293773651123046875</LatitudeDegrees>
              <LongitudeDegrees>-6.09077272005379199981689453125</LongitudeDegrees>
            </Position>
            <AltitudeMeters>13.19999980926513671875</AltitudeMeters>
            <DistanceMeters>NAN</DistanceMeters>
          </Trackpoint>
          <Trackpoint>
            <Time>2019-10-10T12:50:29.000Z</Time>
            <Position>
              <LatitudeDegrees>37.53589804284274578094482421875</LatitudeDegrees>
              <LongitudeDegrees>-6.09006964601576328277587890625</LongitudeDegrees>
            </Position>
            <AltitudeMeters>12.6000003814697265625</AltitudeMeters>
            <DistanceMeters>NAN</DistanceMeters>
          </Trackpoint>
          <Trackpoint>
            <Time>2019-10-10T12:50:32.000Z</Time>
            <Position>
              <LatitudeDegrees>37.53584741614758968353271484375</LatitudeDegrees>
              <LongitudeDegrees>-6.0898457653820514678955078125</LongitudeDegrees>
            </Position>
            <AltitudeMeters>13</AltitudeMeters>
            <DistanceMeters>NAN</DistanceMeters>
          </Trackpoint>
          <Trackpoint>
            <Time>2019-10-10T12:50:38.000Z</Time>
            <Position>
              <LatitudeDegrees>37.53575068898499011993408203125</LatitudeDegrees>
              <LongitudeDegrees>-6.08946807682514190673828125</LongitudeDegrees>
            </Position>
            <AltitudeMeters>13.80000019073486328125</AltitudeMeters>
            <DistanceMeters>NAN</DistanceMeters>
          </Trackpoint>
          <Trackpoint>
            <Time>2019-10-10T12:50:41.000Z</Time>
            <Position>
              <LatitudeDegrees>37.5357024930417537689208984375</LatitudeDegrees>
              <LongitudeDegrees>-6.0892982594668865203857421875</LongitudeDegrees>
            </Position>
            <AltitudeMeters>14</AltitudeMeters>
            <DistanceMeters>NAN</DistanceMeters>
          </Trackpoint>
          <Trackpoint>
            <Time>2019-10-10T12:50:45.000Z</Time>
            <Position>
              <LatitudeDegrees>37.5356416404247283935546875</LatitudeDegrees>
              <LongitudeDegrees>-6.089099608361721038818359375</LongitudeDegrees>
            </Position>
            <AltitudeMeters>15.6000003814697265625</AltitudeMeters>
            <DistanceMeters>NAN</DistanceMeters>
          </Trackpoint>
          <Trackpoint>
            <Time>2019-10-10T12:50:46.000Z</Time>
            <Position>
              <LatitudeDegrees>37.5356267206370830535888671875</LatitudeDegrees>
              <LongitudeDegrees>-6.08905292116105556488037109375</LongitudeDegrees>
            </Position>
            <AltitudeMeters>16</AltitudeMeters>
            <DistanceMeters>NAN</DistanceMeters>
          </Trackpoint>
          <Trackpoint>
            <Time>2019-10-10T12:50:49.000Z</Time>
            <Position>
              <LatitudeDegrees>37.53558137454092502593994140625</LatitudeDegrees>
              <LongitudeDegrees>-6.08891512267291545867919921875</LongitudeDegrees>
            </Position>
            <AltitudeMeters>16.200000762939453125</AltitudeMeters>
            <DistanceMeters>NAN</DistanceMeters>
          </Trackpoint>
          <Trackpoint>
            <Time>2019-10-10T12:50:50.000Z</Time>
            <Position>
              <LatitudeDegrees>37.53556578420102596282958984375</LatitudeDegrees>
              <LongitudeDegrees>-6.0888701118528842926025390625</LongitudeDegrees>
            </Position>
            <AltitudeMeters>16.799999237060546875</AltitudeMeters>
            <DistanceMeters>NAN</DistanceMeters>
          </Trackpoint>
          <Trackpoint>
            <Time>2019-10-10T12:50:54.000Z</Time>
            <Position>
              <LatitudeDegrees>37.5354875810444355010986328125</LatitudeDegrees>
              <LongitudeDegrees>-6.08869819901883602142333984375</LongitudeDegrees>
            </Position>
            <AltitudeMeters>17.200000762939453125</AltitudeMeters>
            <DistanceMeters>NAN</DistanceMeters>
          </Trackpoint>
          <Trackpoint>
            <Time>2019-10-10T12:50:55.000Z</Time>
            <Position>
              <LatitudeDegrees>37.5354672968387603759765625</LatitudeDegrees>
              <LongitudeDegrees>-6.0886555351316928863525390625</LongitudeDegrees>
            </Position>
            <AltitudeMeters>17.200000762939453125</AltitudeMeters>
            <DistanceMeters>NAN</DistanceMeters>
          </Trackpoint>
          <Trackpoint>
            <Time>2019-10-10T12:51:00.000Z</Time>
            <Position>
              <LatitudeDegrees>37.5353564880788326263427734375</LatitudeDegrees>
              <LongitudeDegrees>-6.08844892121851444244384765625</LongitudeDegrees>
            </Position>
            <AltitudeMeters>17.6000003814697265625</AltitudeMeters>
            <DistanceMeters>NAN</DistanceMeters>
          </Trackpoint>
          <Trackpoint>
            <Time>2019-10-10T12:51:02.000Z</Time>
            <Position>
              <LatitudeDegrees>37.5353082083165645599365234375</LatitudeDegrees>
              <LongitudeDegrees>-6.08836711384356021881103515625</LongitudeDegrees>
            </Position>
            <AltitudeMeters>17.799999237060546875</AltitudeMeters>
            <DistanceMeters>NAN</DistanceMeters>
          </Trackpoint>
          <Trackpoint>
            <Time>2019-10-10T12:51:05.000Z</Time>
            <Position>
              <LatitudeDegrees>37.53522799350321292877197265625</LatitudeDegrees>
              <LongitudeDegrees>-6.0882434807717800140380859375</LongitudeDegrees>
            </Position>
            <AltitudeMeters>17.6000003814697265625</AltitudeMeters>
            <DistanceMeters>NAN</DistanceMeters>
          </Trackpoint>
          <Trackpoint>
            <Time>2019-10-10T12:51:13.000Z</Time>
            <Position>
              <LatitudeDegrees>37.534988187253475189208984375</LatitudeDegrees>
              <LongitudeDegrees>-6.08791281469166278839111328125</LongitudeDegrees>
            </Position>
            <AltitudeMeters>16.799999237060546875</AltitudeMeters>
            <DistanceMeters>NAN</DistanceMeters>
          </Trackpoint>
          <Trackpoint>
            <Time>2019-10-10T12:51:21.000Z</Time>
            <Position>
              <LatitudeDegrees>37.5346934795379638671875</LatitudeDegrees>
              <LongitudeDegrees>-6.08756328932940959930419921875</LongitudeDegrees>
            </Position>
            <AltitudeMeters>15.6000003814697265625</AltitudeMeters>
            <DistanceMeters>NAN</DistanceMeters>
          </Trackpoint>
          <Trackpoint>
            <Time>2019-10-10T12:51:22.000Z</Time>
            <Position>
              <LatitudeDegrees>37.53465433605015277862548828125</LatitudeDegrees>
              <LongitudeDegrees>-6.08751618303358554840087890625</LongitudeDegrees>
            </Position>
            <AltitudeMeters>15.6000003814697265625</AltitudeMeters>
            <DistanceMeters>NAN</DistanceMeters>
          </Trackpoint>
          <Trackpoint>
            <Time>2019-10-10T12:51:30.000Z</Time>
            <Position>
              <LatitudeDegrees>37.53429978154599666595458984375</LatitudeDegrees>
              <LongitudeDegrees>-6.08716246671974658966064453125</LongitudeDegrees>
            </Position>
            <AltitudeMeters>14.3999996185302734375</AltitudeMeters>
            <DistanceMeters>NAN</DistanceMeters>
          </Trackpoint>
          <Trackpoint>
            <Time>2019-10-10T12:51:31.000Z</Time>
            <Position>
              <LatitudeDegrees>37.53424932248890399932861328125</LatitudeDegrees>
              <LongitudeDegrees>-6.08712592162191867828369140625</LongitudeDegrees>
            </Position>
            <AltitudeMeters>14.6000003814697265625</AltitudeMeters>
            <DistanceMeters>NAN</DistanceMeters>
          </Trackpoint>
          <Trackpoint>
            <Time>2019-10-10T12:51:37.000Z</Time>
            <Position>
              <LatitudeDegrees>37.5339386053383350372314453125</LatitudeDegrees>
              <LongitudeDegrees>-6.0869206488132476806640625</LongitudeDegrees>
            </Position>
            <AltitudeMeters>13.80000019073486328125</AltitudeMeters>
            <DistanceMeters>NAN</DistanceMeters>
          </Trackpoint>
          <Trackpoint>
            <Time>2019-10-10T12:51:40.000Z</Time>
            <Position>
              <LatitudeDegrees>37.53377742134034633636474609375</LatitudeDegrees>
              <LongitudeDegrees>-6.08684781007468700408935546875</LongitudeDegrees>
            </Position>
            <AltitudeMeters>13.6000003814697265625</AltitudeMeters>
            <DistanceMeters>NAN</DistanceMeters>
          </Trackpoint>
          <Trackpoint>
            <Time>2019-10-10T12:51:44.000Z</Time>
            <Position>
              <LatitudeDegrees>37.5335537083446979522705078125</LatitudeDegrees>
              <LongitudeDegrees>-6.08677723444998264312744140625</LongitudeDegrees>
            </Position>
            <AltitudeMeters>13.19999980926513671875</AltitudeMeters>
            <DistanceMeters>NAN</DistanceMeters>
          </Trackpoint>
          <Trackpoint>
            <Time>2019-10-10T12:51:45.000Z</Time>
            <Position>
              <LatitudeDegrees>37.5334980525076389312744140625</LatitudeDegrees>
              <LongitudeDegrees>-6.086764074862003326416015625</LongitudeDegrees>
            </Position>
            <AltitudeMeters>13.19999980926513671875</AltitudeMeters>
            <DistanceMeters>NAN</DistanceMeters>
          </Trackpoint>
          <Trackpoint>
            <Time>2019-10-10T12:51:47.000Z</Time>
            <Position>
              <LatitudeDegrees>37.53338632173836231231689453125</LatitudeDegrees>
              <LongitudeDegrees>-6.086740605533123016357421875</LongitudeDegrees>
            </Position>
            <AltitudeMeters>13</AltitudeMeters>
            <DistanceMeters>NAN</DistanceMeters>
          </Trackpoint>
          <Trackpoint>
            <Time>2019-10-10T12:51:48.000Z</Time>
            <Position>
              <LatitudeDegrees>37.5333294086158275604248046875</LatitudeDegrees>
              <LongitudeDegrees>-6.08673146925866603851318359375</LongitudeDegrees>
            </Position>
            <AltitudeMeters>12.80000019073486328125</AltitudeMeters>
            <DistanceMeters>NAN</DistanceMeters>
          </Trackpoint>
          <Trackpoint>
            <Time>2019-10-10T12:51:54.000Z</Time>
            <Position>
              <LatitudeDegrees>37.53298684023320674896240234375</LatitudeDegrees>
              <LongitudeDegrees>-6.086704730987548828125</LongitudeDegrees>
            </Position>
            <AltitudeMeters>13</AltitudeMeters>
            <DistanceMeters>NAN</DistanceMeters>
          </Trackpoint>
          <Trackpoint>
            <Time>2019-10-10T12:51:58.000Z</Time>
            <Position>
              <LatitudeDegrees>37.532753907144069671630859375</LatitudeDegrees>
              <LongitudeDegrees>-6.0866998694837093353271484375</LongitudeDegrees>
            </Position>
            <AltitudeMeters>12.6000003814697265625</AltitudeMeters>
            <DistanceMeters>NAN</DistanceMeters>
          </Trackpoint>
          <Trackpoint>
            <Time>2019-10-10T12:52:00.000Z</Time>
            <Position>
              <LatitudeDegrees>37.53263429738581180572509765625</LatitudeDegrees>
              <LongitudeDegrees>-6.08669894747436046600341796875</LongitudeDegrees>
            </Position>
            <AltitudeMeters>12.19999980926513671875</AltitudeMeters>
            <DistanceMeters>NAN</DistanceMeters>
          </Trackpoint>
          <Trackpoint>
            <Time>2019-10-10T12:52:05.000Z</Time>
            <Position>
              <LatitudeDegrees>37.53232819028198719024658203125</LatitudeDegrees>
              <LongitudeDegrees>-6.08669861219823360443115234375</LongitudeDegrees>
            </Position>
            <AltitudeMeters>11</AltitudeMeters>
            <DistanceMeters>NAN</DistanceMeters>
          </Trackpoint>
          <Trackpoint>
            <Time>2019-10-10T12:52:07.000Z</Time>
            <Position>
              <LatitudeDegrees>37.53220179118216037750244140625</LatitudeDegrees>
              <LongitudeDegrees>-6.08670112676918506622314453125</LongitudeDegrees>
            </Position>
            <AltitudeMeters>10.6000003814697265625</AltitudeMeters>
            <DistanceMeters>NAN</DistanceMeters>
          </Trackpoint>
          <Trackpoint>
            <Time>2019-10-10T12:52:12.000Z</Time>
            <Position>
              <LatitudeDegrees>37.531880848109722137451171875</LatitudeDegrees>
              <LongitudeDegrees>-6.08671185560524463653564453125</LongitudeDegrees>
            </Position>
            <AltitudeMeters>10.3999996185302734375</AltitudeMeters>
            <DistanceMeters>NAN</DistanceMeters>
          </Trackpoint>
          <Trackpoint>
            <Time>2019-10-10T12:52:14.000Z</Time>
            <Position>
              <LatitudeDegrees>37.53175101242959499359130859375</LatitudeDegrees>
              <LongitudeDegrees>-6.08672191388905048370361328125</LongitudeDegrees>
            </Position>
            <AltitudeMeters>9.80000019073486328125</AltitudeMeters>
            <DistanceMeters>NAN</DistanceMeters>
          </Trackpoint>
          <Trackpoint>
            <Time>2019-10-10T12:52:22.000Z</Time>
            <Position>
              <LatitudeDegrees>37.53122999332845211029052734375</LatitudeDegrees>
              <LongitudeDegrees>-6.08675502240657806396484375</LongitudeDegrees>
            </Position>
            <AltitudeMeters>8.80000019073486328125</AltitudeMeters>
            <DistanceMeters>NAN</DistanceMeters>
          </Trackpoint>
          <Trackpoint>
            <Time>2019-10-10T12:52:23.000Z</Time>
            <Position>
              <LatitudeDegrees>37.531163692474365234375</LatitudeDegrees>
              <LongitudeDegrees>-6.086757369339466094970703125</LongitudeDegrees>
            </Position>
            <AltitudeMeters>9</AltitudeMeters>
            <DistanceMeters>NAN</DistanceMeters>
          </Trackpoint>
          <Trackpoint>
            <Time>2019-10-10T12:52:31.000Z</Time>
            <Position>
              <LatitudeDegrees>37.5306401588022708892822265625</LatitudeDegrees>
              <LongitudeDegrees>-6.0867830179631710052490234375</LongitudeDegrees>
            </Position>
            <AltitudeMeters>7.80000019073486328125</AltitudeMeters>
            <DistanceMeters>NAN</DistanceMeters>
          </Trackpoint>
          <Trackpoint>
            <Time>2019-10-10T12:52:33.000Z</Time>
            <Position>
              <LatitudeDegrees>37.53050713799893856048583984375</LatitudeDegrees>
              <LongitudeDegrees>-6.08678410761058330535888671875</LongitudeDegrees>
            </Position>
            <AltitudeMeters>7.19999980926513671875</AltitudeMeters>
            <DistanceMeters>NAN</DistanceMeters>
          </Trackpoint>
          <Trackpoint>
            <Time>2019-10-10T12:52:42.000Z</Time>
            <Position>
              <LatitudeDegrees>37.52991956658661365509033203125</LatitudeDegrees>
              <LongitudeDegrees>-6.0867838561534881591796875</LongitudeDegrees>
            </Position>
            <AltitudeMeters>7.400000095367431640625</AltitudeMeters>
            <DistanceMeters>NAN</DistanceMeters>
          </Trackpoint>
          <Trackpoint>
            <Time>2019-10-10T12:52:44.000Z</Time>
            <Position>
              <LatitudeDegrees>37.52978730015456676483154296875</LatitudeDegrees>
              <LongitudeDegrees>-6.08677974902093410491943359375</LongitudeDegrees>
            </Position>
            <AltitudeMeters>7.19999980926513671875</AltitudeMeters>
            <DistanceMeters>NAN</DistanceMeters>
          </Trackpoint>
          <Trackpoint>
            <Time>2019-10-10T12:52:47.000Z</Time>
            <Position>
              <LatitudeDegrees>37.52959116362035274505615234375</LatitudeDegrees>
              <LongitudeDegrees>-6.0867773182690143585205078125</LongitudeDegrees>
            </Position>
            <AltitudeMeters>7</AltitudeMeters>
            <DistanceMeters>NAN</DistanceMeters>
          </Trackpoint>
          <Trackpoint>
            <Time>2019-10-10T12:52:49.000Z</Time>
            <Position>
              <LatitudeDegrees>37.529462836682796478271484375</LatitudeDegrees>
              <LongitudeDegrees>-6.08677513897418975830078125</LongitudeDegrees>
            </Position>
            <AltitudeMeters>7.19999980926513671875</AltitudeMeters>
            <DistanceMeters>NAN</DistanceMeters>
          </Trackpoint>
          <Trackpoint>
            <Time>2019-10-10T12:52:50.000Z</Time>
            <Position>
              <LatitudeDegrees>37.52939871512353420257568359375</LatitudeDegrees>
              <LongitudeDegrees>-6.08677505515515804290771484375</LongitudeDegrees>
            </Position>
            <AltitudeMeters>6.599999904632568359375</AltitudeMeters>
            <DistanceMeters>NAN</DistanceMeters>
          </Trackpoint>
          <Trackpoint>
            <Time>2019-10-10T12:52:56.000Z</Time>
            <Position>
              <LatitudeDegrees>37.5290139019489288330078125</LatitudeDegrees>
              <LongitudeDegrees>-6.086749993264675140380859375</LongitudeDegrees>
            </Position>
            <AltitudeMeters>6.80000019073486328125</AltitudeMeters>
            <DistanceMeters>NAN</DistanceMeters>
          </Trackpoint>
          <Trackpoint>
            <Time>2019-10-10T12:53:02.000Z</Time>
            <Position>
              <LatitudeDegrees>37.5286285020411014556884765625</LatitudeDegrees>
              <LongitudeDegrees>-6.08669509179890155792236328125</LongitudeDegrees>
            </Position>
            <AltitudeMeters>6.400000095367431640625</AltitudeMeters>
            <DistanceMeters>NAN</DistanceMeters>
          </Trackpoint>
          <Trackpoint>
            <Time>2019-10-10T12:53:04.000Z</Time>
            <Position>
              <LatitudeDegrees>37.5285016000270843505859375</LatitudeDegrees>
              <LongitudeDegrees>-6.08666894026100635528564453125</LongitudeDegrees>
            </Position>
            <AltitudeMeters>6.19999980926513671875</AltitudeMeters>
            <DistanceMeters>NAN</DistanceMeters>
          </Trackpoint>
          <Trackpoint>
            <Time>2019-10-10T12:53:08.000Z</Time>
            <Position>
              <LatitudeDegrees>37.52825559116899967193603515625</LatitudeDegrees>
              <LongitudeDegrees>-6.08659702353179454803466796875</LongitudeDegrees>
            </Position>
            <AltitudeMeters>6</AltitudeMeters>
            <DistanceMeters>NAN</DistanceMeters>
          </Trackpoint>
          <Trackpoint>
            <Time>2019-10-10T12:53:11.000Z</Time>
            <Position>
              <LatitudeDegrees>37.52807621844112873077392578125</LatitudeDegrees>
              <LongitudeDegrees>-6.08652862720191478729248046875</LongitudeDegrees>
            </Position>
            <AltitudeMeters>6</AltitudeMeters>
            <DistanceMeters>NAN</DistanceMeters>
          </Trackpoint>
          <Trackpoint>
            <Time>2019-10-10T12:53:12.000Z</Time>
            <Position>
              <LatitudeDegrees>37.5280166231095790863037109375</LatitudeDegrees>
              <LongitudeDegrees>-6.08650364913046360015869140625</LongitudeDegrees>
            </Position>
            <AltitudeMeters>5.599999904632568359375</AltitudeMeters>
            <DistanceMeters>NAN</DistanceMeters>
          </Trackpoint>
          <Trackpoint>
            <Time>2019-10-10T12:53:15.000Z</Time>
            <Position>
              <LatitudeDegrees>37.52783951349556446075439453125</LatitudeDegrees>
              <LongitudeDegrees>-6.08642242848873138427734375</LongitudeDegrees>
            </Position>
            <AltitudeMeters>6.80000019073486328125</AltitudeMeters>
            <DistanceMeters>NAN</DistanceMeters>
          </Trackpoint>
          <Trackpoint>
            <Time>2019-10-10T12:53:21.000Z</Time>
            <Position>
              <LatitudeDegrees>37.5274992920458316802978515625</LatitudeDegrees>
              <LongitudeDegrees>-6.0862261243164539337158203125</LongitudeDegrees>
            </Position>
            <AltitudeMeters>6.599999904632568359375</AltitudeMeters>
            <DistanceMeters>NAN</DistanceMeters>
          </Trackpoint>
          <Trackpoint>
            <Time>2019-10-10T12:53:24.000Z</Time>
            <Position>
              <LatitudeDegrees>37.52733425237238407135009765625</LatitudeDegrees>
              <LongitudeDegrees>-6.08611556701362133026123046875</LongitudeDegrees>
            </Position>
            <AltitudeMeters>5.599999904632568359375</AltitudeMeters>
            <DistanceMeters>NAN</DistanceMeters>
          </Trackpoint>
          <Trackpoint>
            <Time>2019-10-10T12:53:30.000Z</Time>
            <Position>
              <LatitudeDegrees>37.527014650404453277587890625</LatitudeDegrees>
              <LongitudeDegrees>-6.0858692228794097900390625</LongitudeDegrees>
            </Position>
            <AltitudeMeters>5.400000095367431640625</AltitudeMeters>
            <DistanceMeters>NAN</DistanceMeters>
          </Trackpoint>
          <Trackpoint>
            <Time>2019-10-10T12:53:38.000Z</Time>
            <Position>
              <LatitudeDegrees>37.5266269035637378692626953125</LatitudeDegrees>
              <LongitudeDegrees>-6.0854883491992950439453125</LongitudeDegrees>
            </Position>
            <AltitudeMeters>5.19999980926513671875</AltitudeMeters>
            <DistanceMeters>NAN</DistanceMeters>
          </Trackpoint>
          <Trackpoint>
            <Time>2019-10-10T12:53:39.000Z</Time>
            <Position>
              <LatitudeDegrees>37.5265816412866115570068359375</LatitudeDegrees>
              <LongitudeDegrees>-6.08543537557125091552734375</LongitudeDegrees>
            </Position>
            <AltitudeMeters>5.19999980926513671875</AltitudeMeters>
            <DistanceMeters>NAN</DistanceMeters>
          </Trackpoint>
          <Trackpoint>
            <Time>2019-10-10T12:53:42.000Z</Time>
            <Position>
              <LatitudeDegrees>37.52644778229296207427978515625</LatitudeDegrees>
              <LongitudeDegrees>-6.08527804724872112274169921875</LongitudeDegrees>
            </Position>
            <AltitudeMeters>4.400000095367431640625</AltitudeMeters>
            <DistanceMeters>NAN</DistanceMeters>
          </Trackpoint>
          <Trackpoint>
            <Time>2019-10-10T12:53:48.000Z</Time>
            <Position>
              <LatitudeDegrees>37.52620093524456024169921875</LatitudeDegrees>
              <LongitudeDegrees>-6.0849396698176860809326171875</LongitudeDegrees>
            </Position>
            <AltitudeMeters>5</AltitudeMeters>
            <DistanceMeters>NAN</DistanceMeters>
          </Trackpoint>
          <Trackpoint>
            <Time>2019-10-10T12:53:56.000Z</Time>
            <Position>
              <LatitudeDegrees>37.5258996896445751190185546875</LatitudeDegrees>
              <LongitudeDegrees>-6.08443801291286945343017578125</LongitudeDegrees>
            </Position>
            <AltitudeMeters>4.400000095367431640625</AltitudeMeters>
            <DistanceMeters>NAN</DistanceMeters>
          </Trackpoint>
          <Trackpoint>
            <Time>2019-10-10T12:54:02.000Z</Time>
            <Position>
              <LatitudeDegrees>37.52568938769400119781494140625</LatitudeDegrees>
              <LongitudeDegrees>-6.08401506207883358001708984375</LongitudeDegrees>
            </Position>
            <AltitudeMeters>3</AltitudeMeters>
            <DistanceMeters>NAN</DistanceMeters>
          </Trackpoint>
          <Trackpoint>
            <Time>2019-10-10T12:54:06.000Z</Time>
            <Position>
              <LatitudeDegrees>37.52555058337748050689697265625</LatitudeDegrees>
              <LongitudeDegrees>-6.08371549285948276519775390625</LongitudeDegrees>
            </Position>
            <AltitudeMeters>3.2000000476837158203125</AltitudeMeters>
            <DistanceMeters>NAN</DistanceMeters>
          </Trackpoint>
          <Trackpoint>
            <Time>2019-10-10T12:54:14.000Z</Time>
            <Position>
              <LatitudeDegrees>37.52526484429836273193359375</LatitudeDegrees>
              <LongitudeDegrees>-6.08310319483280181884765625</LongitudeDegrees>
            </Position>
            <AltitudeMeters>1.7999999523162841796875</AltitudeMeters>
            <DistanceMeters>NAN</DistanceMeters>
          </Trackpoint>
          <Trackpoint>
            <Time>2019-10-10T12:54:16.000Z</Time>
            <Position>
              <LatitudeDegrees>37.5251917541027069091796875</LatitudeDegrees>
              <LongitudeDegrees>-6.08295190148055553436279296875</LongitudeDegrees>
            </Position>
            <AltitudeMeters>1.60000002384185791015625</AltitudeMeters>
            <DistanceMeters>NAN</DistanceMeters>
          </Trackpoint>
          <Trackpoint>
            <Time>2019-10-10T12:54:23.000Z</Time>
            <Position>
              <LatitudeDegrees>37.5249283947050571441650390625</LatitudeDegrees>
              <LongitudeDegrees>-6.0824224166572093963623046875</LongitudeDegrees>
            </Position>
            <AltitudeMeters>1.39999997615814208984375</AltitudeMeters>
            <DistanceMeters>NAN</DistanceMeters>
          </Trackpoint>
          <Trackpoint>
            <Time>2019-10-10T12:54:27.000Z</Time>
            <Position>
              <LatitudeDegrees>37.524772323668003082275390625</LatitudeDegrees>
              <LongitudeDegrees>-6.08213751576840877532958984375</LongitudeDegrees>
            </Position>
            <AltitudeMeters>1.60000002384185791015625</AltitudeMeters>
            <DistanceMeters>NAN</DistanceMeters>
          </Trackpoint>
          <Trackpoint>
            <Time>2019-10-10T12:54:35.000Z</Time>
            <Position>
              <LatitudeDegrees>37.524432353675365447998046875</LatitudeDegrees>
              <LongitudeDegrees>-6.081640720367431640625</LongitudeDegrees>
            </Position>
            <AltitudeMeters>1.2000000476837158203125</AltitudeMeters>
            <DistanceMeters>NAN</DistanceMeters>
          </Trackpoint>
          <Trackpoint>
            <Time>2019-10-10T12:54:44.000Z</Time>
            <Position>
              <LatitudeDegrees>37.524030692875385284423828125</LatitudeDegrees>
              <LongitudeDegrees>-6.081166304647922515869140625</LongitudeDegrees>
            </Position>
            <AltitudeMeters>1.60000002384185791015625</AltitudeMeters>
            <DistanceMeters>NAN</DistanceMeters>
          </Trackpoint>
          <Trackpoint>
            <Time>2019-10-10T12:54:53.000Z</Time>
            <Position>
              <LatitudeDegrees>37.5235879607498645782470703125</LatitudeDegrees>
              <LongitudeDegrees>-6.080766655504703521728515625</LongitudeDegrees>
            </Position>
            <AltitudeMeters>2.2000000476837158203125</AltitudeMeters>
            <DistanceMeters>NAN</DistanceMeters>
          </Trackpoint>
          <Trackpoint>
            <Time>2019-10-10T12:54:55.000Z</Time>
            <Position>
              <LatitudeDegrees>37.523488886654376983642578125</LatitudeDegrees>
              <LongitudeDegrees>-6.0806826688349246978759765625</LongitudeDegrees>
            </Position>
            <AltitudeMeters>2</AltitudeMeters>
            <DistanceMeters>NAN</DistanceMeters>
          </Trackpoint>
          <Trackpoint>
            <Time>2019-10-10T12:55:02.000Z</Time>
            <Position>
              <LatitudeDegrees>37.52313106320798397064208984375</LatitudeDegrees>
              <LongitudeDegrees>-6.0804426111280918121337890625</LongitudeDegrees>
            </Position>
            <AltitudeMeters>1.2000000476837158203125</AltitudeMeters>
            <DistanceMeters>NAN</DistanceMeters>
          </Trackpoint>
          <Trackpoint>
            <Time>2019-10-10T12:55:08.000Z</Time>
            <Position>
              <LatitudeDegrees>37.52281330525875091552734375</LatitudeDegrees>
              <LongitudeDegrees>-6.0802836902439594268798828125</LongitudeDegrees>
            </Position>
            <AltitudeMeters>1.7999999523162841796875</AltitudeMeters>
            <DistanceMeters>NAN</DistanceMeters>
          </Trackpoint>
          <Trackpoint>
            <Time>2019-10-10T12:55:10.000Z</Time>
            <Position>
              <LatitudeDegrees>37.5226991437375545501708984375</LatitudeDegrees>
              <LongitudeDegrees>-6.08024085871875286102294921875</LongitudeDegrees>
            </Position>
            <AltitudeMeters>1.7999999523162841796875</AltitudeMeters>
            <DistanceMeters>NAN</DistanceMeters>
          </Trackpoint>
          <Trackpoint>
            <Time>2019-10-10T12:55:13.000Z</Time>
            <Position>
              <LatitudeDegrees>37.52253309823572635650634765625</LatitudeDegrees>
              <LongitudeDegrees>-6.08017749153077602386474609375</LongitudeDegrees>
            </Position>
            <AltitudeMeters>1.2000000476837158203125</AltitudeMeters>
            <DistanceMeters>NAN</DistanceMeters>
          </Trackpoint>
          <Trackpoint>
            <Time>2019-10-10T12:55:19.000Z</Time>
            <Position>
              <LatitudeDegrees>37.522197067737579345703125</LatitudeDegrees>
              <LongitudeDegrees>-6.08004874549806118011474609375</LongitudeDegrees>
            </Position>
            <AltitudeMeters>3.2000000476837158203125</AltitudeMeters>
            <DistanceMeters>NAN</DistanceMeters>
          </Trackpoint>
          <Trackpoint>
            <Time>2019-10-10T12:55:21.000Z</Time>
            <Position>
              <LatitudeDegrees>37.52208382822573184967041015625</LatitudeDegrees>
              <LongitudeDegrees>-6.0800040699541568756103515625</LongitudeDegrees>
            </Position>
            <AltitudeMeters>1.7999999523162841796875</AltitudeMeters>
            <DistanceMeters>NAN</DistanceMeters>
          </Trackpoint>
          <Trackpoint>
            <Time>2019-10-10T12:55:31.000Z</Time>
            <Position>
              <LatitudeDegrees>37.521518804132938385009765625</LatitudeDegrees>
              <LongitudeDegrees>-6.07981237582862377166748046875</LongitudeDegrees>
            </Position>
            <AltitudeMeters>1.7999999523162841796875</AltitudeMeters>
            <DistanceMeters>NAN</DistanceMeters>
          </Trackpoint>
          <Trackpoint>
            <Time>2019-10-10T12:55:32.000Z</Time>
            <Position>
              <LatitudeDegrees>37.52146272920072078704833984375</LatitudeDegrees>
              <LongitudeDegrees>-6.07979066669940948486328125</LongitudeDegrees>
            </Position>
            <AltitudeMeters>2</AltitudeMeters>
            <DistanceMeters>NAN</DistanceMeters>
          </Trackpoint>
          <Trackpoint>
            <Time>2019-10-10T12:55:41.000Z</Time>
            <Position>
              <LatitudeDegrees>37.52094774506986141204833984375</LatitudeDegrees>
              <LongitudeDegrees>-6.07963887043297290802001953125</LongitudeDegrees>
            </Position>
            <AltitudeMeters>0.800000011920928955078125</AltitudeMeters>
            <DistanceMeters>NAN</DistanceMeters>
          </Trackpoint>
          <Trackpoint>
            <Time>2019-10-10T12:55:50.000Z</Time>
            <Position>
              <LatitudeDegrees>37.5204306654632091522216796875</LatitudeDegrees>
              <LongitudeDegrees>-6.07948984019458293914794921875</LongitudeDegrees>
            </Position>
            <AltitudeMeters>1.2000000476837158203125</AltitudeMeters>
            <DistanceMeters>NAN</DistanceMeters>
          </Trackpoint>
          <Trackpoint>
            <Time>2019-10-10T12:55:57.000Z</Time>
            <Position>
              <LatitudeDegrees>37.5200152583420276641845703125</LatitudeDegrees>
              <LongitudeDegrees>-6.07935539446771144866943359375</LongitudeDegrees>
            </Position>
            <AltitudeMeters>0.800000011920928955078125</AltitudeMeters>
            <DistanceMeters>NAN</DistanceMeters>
          </Trackpoint>
          <Trackpoint>
            <Time>2019-10-10T12:56:01.000Z</Time>
            <Position>
              <LatitudeDegrees>37.519774027168750762939453125</LatitudeDegrees>
              <LongitudeDegrees>-6.07926989905536174774169921875</LongitudeDegrees>
            </Position>
            <AltitudeMeters>0.4000000059604644775390625</AltitudeMeters>
            <DistanceMeters>NAN</DistanceMeters>
          </Trackpoint>
          <Trackpoint>
            <Time>2019-10-10T12:56:04.000Z</Time>
            <Position>
              <LatitudeDegrees>37.519589960575103759765625</LatitudeDegrees>
              <LongitudeDegrees>-6.07920569367706775665283203125</LongitudeDegrees>
            </Position>
            <AltitudeMeters>-0.4000000059604644775390625</AltitudeMeters>
            <DistanceMeters>NAN</DistanceMeters>
          </Trackpoint>
          <Trackpoint>
            <Time>2019-10-10T12:56:07.000Z</Time>
            <Position>
              <LatitudeDegrees>37.51940430141985416412353515625</LatitudeDegrees>
              <LongitudeDegrees>-6.07914400286972522735595703125</LongitudeDegrees>
            </Position>
            <AltitudeMeters>-1.60000002384185791015625</AltitudeMeters>
            <DistanceMeters>NAN</DistanceMeters>
          </Trackpoint>
          <Trackpoint>
            <Time>2019-10-10T12:56:11.000Z</Time>
            <Position>
              <LatitudeDegrees>37.51915904693305492401123046875</LatitudeDegrees>
              <LongitudeDegrees>-6.07905666343867778778076171875</LongitudeDegrees>
            </Position>
            <AltitudeMeters>-1.2000000476837158203125</AltitudeMeters>
            <DistanceMeters>NAN</DistanceMeters>
          </Trackpoint>
          <Trackpoint>
            <Time>2019-10-10T12:56:19.000Z</Time>
            <Position>
              <LatitudeDegrees>37.51867205835878849029541015625</LatitudeDegrees>
              <LongitudeDegrees>-6.078889109194278717041015625</LongitudeDegrees>
            </Position>
            <AltitudeMeters>-1.7999999523162841796875</AltitudeMeters>
            <DistanceMeters>NAN</DistanceMeters>
          </Trackpoint>
          <Trackpoint>
            <Time>2019-10-10T12:56:20.000Z</Time>
            <Position>
              <LatitudeDegrees>37.51861019991338253021240234375</LatitudeDegrees>
              <LongitudeDegrees>-6.07886890880763530731201171875</LongitudeDegrees>
            </Position>
            <AltitudeMeters>-2.400000095367431640625</AltitudeMeters>
            <DistanceMeters>NAN</DistanceMeters>
          </Trackpoint>
          <Trackpoint>
            <Time>2019-10-10T12:56:21.000Z</Time>
            <Position>
              <LatitudeDegrees>37.5185479223728179931640625</LatitudeDegrees>
              <LongitudeDegrees>-6.07884979806840419769287109375</LongitudeDegrees>
            </Position>
            <AltitudeMeters>-2.599999904632568359375</AltitudeMeters>
            <DistanceMeters>NAN</DistanceMeters>
          </Trackpoint>
          <Trackpoint>
            <Time>2019-10-10T12:56:30.000Z</Time>
            <Position>
              <LatitudeDegrees>37.5179881788790225982666015625</LatitudeDegrees>
              <LongitudeDegrees>-6.0786703415215015411376953125</LongitudeDegrees>
            </Position>
            <AltitudeMeters>-2.599999904632568359375</AltitudeMeters>
            <DistanceMeters>NAN</DistanceMeters>
          </Trackpoint>
          <Trackpoint>
            <Time>2019-10-10T12:56:31.000Z</Time>
            <Position>
              <LatitudeDegrees>37.51792472787201404571533203125</LatitudeDegrees>
              <LongitudeDegrees>-6.0786498896777629852294921875</LongitudeDegrees>
            </Position>
            <AltitudeMeters>-2.599999904632568359375</AltitudeMeters>
            <DistanceMeters>NAN</DistanceMeters>
          </Trackpoint>
          <Trackpoint>
            <Time>2019-10-10T12:56:37.000Z</Time>
            <Position>
              <LatitudeDegrees>37.51754435710608959197998046875</LatitudeDegrees>
              <LongitudeDegrees>-6.07853363268077373504638671875</LongitudeDegrees>
            </Position>
            <AltitudeMeters>-4.19999980926513671875</AltitudeMeters>
            <DistanceMeters>NAN</DistanceMeters>
          </Trackpoint>
          <Trackpoint>
            <Time>2019-10-10T12:56:41.000Z</Time>
            <Position>
              <LatitudeDegrees>37.51728795468807220458984375</LatitudeDegrees>
              <LongitudeDegrees>-6.0784554295241832733154296875</LongitudeDegrees>
            </Position>
            <AltitudeMeters>-3.7999999523162841796875</AltitudeMeters>
            <DistanceMeters>NAN</DistanceMeters>
          </Trackpoint>
          <Trackpoint>
            <Time>2019-10-10T12:56:48.000Z</Time>
            <Position>
              <LatitudeDegrees>37.5168502517044544219970703125</LatitudeDegrees>
              <LongitudeDegrees>-6.07831989414989948272705078125</LongitudeDegrees>
            </Position>
            <AltitudeMeters>-5</AltitudeMeters>
            <DistanceMeters>NAN</DistanceMeters>
          </Trackpoint>
          <Trackpoint>
            <Time>2019-10-10T12:56:49.000Z</Time>
            <Position>
              <LatitudeDegrees>37.51678830944001674652099609375</LatitudeDegrees>
              <LongitudeDegrees>-6.07830145396292209625244140625</LongitudeDegrees>
            </Position>
            <AltitudeMeters>-5.19999980926513671875</AltitudeMeters>
            <DistanceMeters>NAN</DistanceMeters>
          </Trackpoint>
          <Trackpoint>
            <Time>2019-10-10T12:56:54.000Z</Time>
            <Position>
              <LatitudeDegrees>37.51647524535655975341796875</LatitudeDegrees>
              <LongitudeDegrees>-6.07820388861000537872314453125</LongitudeDegrees>
            </Position>
            <AltitudeMeters>-5.19999980926513671875</AltitudeMeters>
            <DistanceMeters>NAN</DistanceMeters>
          </Trackpoint>
          <Trackpoint>
            <Time>2019-10-10T12:56:56.000Z</Time>
            <Position>
              <LatitudeDegrees>37.51634742133319377899169921875</LatitudeDegrees>
              <LongitudeDegrees>-6.078167259693145751953125</LongitudeDegrees>
            </Position>
            <AltitudeMeters>-6.19999980926513671875</AltitudeMeters>
            <DistanceMeters>NAN</DistanceMeters>
          </Trackpoint>
          <Trackpoint>
            <Time>2019-10-10T12:56:59.000Z</Time>
            <Position>
              <LatitudeDegrees>37.51616134308278560638427734375</LatitudeDegrees>
              <LongitudeDegrees>-6.0781069099903106689453125</LongitudeDegrees>
            </Position>
            <AltitudeMeters>-7.400000095367431640625</AltitudeMeters>
            <DistanceMeters>NAN</DistanceMeters>
          </Trackpoint>
          <Trackpoint>
            <Time>2019-10-10T12:57:03.000Z</Time>
            <Position>
              <LatitudeDegrees>37.51592145301401615142822265625</LatitudeDegrees>
              <LongitudeDegrees>-6.078028790652751922607421875</LongitudeDegrees>
            </Position>
            <AltitudeMeters>-6.599999904632568359375</AltitudeMeters>
            <DistanceMeters>NAN</DistanceMeters>
          </Trackpoint>
          <Trackpoint>
            <Time>2019-10-10T12:57:08.000Z</Time>
            <Position>
              <LatitudeDegrees>37.5156174413859844207763671875</LatitudeDegrees>
              <LongitudeDegrees>-6.07793097384274005889892578125</LongitudeDegrees>
            </Position>
            <AltitudeMeters>-8.19999980926513671875</AltitudeMeters>
            <DistanceMeters>NAN</DistanceMeters>
          </Trackpoint>
          <Trackpoint>
            <Time>2019-10-10T12:57:10.000Z</Time>
            <Position>
              <LatitudeDegrees>37.51549783162772655487060546875</LatitudeDegrees>
              <LongitudeDegrees>-6.07789392583072185516357421875</LongitudeDegrees>
            </Position>
            <AltitudeMeters>-8.80000019073486328125</AltitudeMeters>
            <DistanceMeters>NAN</DistanceMeters>
          </Trackpoint>
          <Trackpoint>
            <Time>2019-10-10T12:57:12.000Z</Time>
            <Position>
              <LatitudeDegrees>37.51538098789751529693603515625</LatitudeDegrees>
              <LongitudeDegrees>-6.07785721309483051300048828125</LongitudeDegrees>
            </Position>
            <AltitudeMeters>-9</AltitudeMeters>
            <DistanceMeters>NAN</DistanceMeters>
          </Trackpoint>
          <Trackpoint>
            <Time>2019-10-10T12:57:19.000Z</Time>
            <Position>
              <LatitudeDegrees>37.51497195102274417877197265625</LatitudeDegrees>
              <LongitudeDegrees>-6.077724359929561614990234375</LongitudeDegrees>
            </Position>
            <AltitudeMeters>-8.6000003814697265625</AltitudeMeters>
            <DistanceMeters>NAN</DistanceMeters>
          </Trackpoint>
          <Trackpoint>
            <Time>2019-10-10T12:57:23.000Z</Time>
            <Position>
              <LatitudeDegrees>37.514735162258148193359375</LatitudeDegrees>
              <LongitudeDegrees>-6.07764531858265399932861328125</LongitudeDegrees>
            </Position>
            <AltitudeMeters>-9</AltitudeMeters>
            <DistanceMeters>NAN</DistanceMeters>
          </Trackpoint>
          <Trackpoint>
            <Time>2019-10-10T12:57:32.000Z</Time>
            <Position>
              <LatitudeDegrees>37.51417768187820911407470703125</LatitudeDegrees>
              <LongitudeDegrees>-6.0774667002260684967041015625</LongitudeDegrees>
            </Position>
            <AltitudeMeters>-9.19999980926513671875</AltitudeMeters>
            <DistanceMeters>NAN</DistanceMeters>
          </Trackpoint>
          <Trackpoint>
            <Time>2019-10-10T12:57:35.000Z</Time>
            <Position>
              <LatitudeDegrees>37.51399177126586437225341796875</LatitudeDegrees>
              <LongitudeDegrees>-6.0774068534374237060546875</LongitudeDegrees>
            </Position>
            <AltitudeMeters>-9.80000019073486328125</AltitudeMeters>
            <DistanceMeters>NAN</DistanceMeters>
          </Trackpoint>
          <Trackpoint>
            <Time>2019-10-10T12:57:44.000Z</Time>
            <Position>
              <LatitudeDegrees>37.5134337879717350006103515625</LatitudeDegrees>
              <LongitudeDegrees>-6.07722957618534564971923828125</LongitudeDegrees>
            </Position>
            <AltitudeMeters>-9.80000019073486328125</AltitudeMeters>
            <DistanceMeters>NAN</DistanceMeters>
          </Trackpoint>
          <Trackpoint>
            <Time>2019-10-10T12:57:46.000Z</Time>
            <Position>
              <LatitudeDegrees>37.51331049017608165740966796875</LatitudeDegrees>
              <LongitudeDegrees>-6.07719185762107372283935546875</LongitudeDegrees>
            </Position>
            <AltitudeMeters>-10</AltitudeMeters>
            <DistanceMeters>NAN</DistanceMeters>
          </Trackpoint>
          <Trackpoint>
            <Time>2019-10-10T12:57:47.000Z</Time>
            <Position>
              <LatitudeDegrees>37.51324829645454883575439453125</LatitudeDegrees>
              <LongitudeDegrees>-6.07717274688184261322021484375</LongitudeDegrees>
            </Position>
            <AltitudeMeters>-9.80000019073486328125</AltitudeMeters>
            <DistanceMeters>NAN</DistanceMeters>
          </Trackpoint>
          <Trackpoint>
            <Time>2019-10-10T12:57:56.000Z</Time>
            <Position>
              <LatitudeDegrees>37.512692995369434356689453125</LatitudeDegrees>
              <LongitudeDegrees>-6.07699253596365451812744140625</LongitudeDegrees>
            </Position>
            <AltitudeMeters>-10.19999980926513671875</AltitudeMeters>
            <DistanceMeters>NAN</DistanceMeters>
          </Trackpoint>
          <Trackpoint>
            <Time>2019-10-10T12:58:00.000Z</Time>
            <Position>
              <LatitudeDegrees>37.51243609003722667694091796875</LatitudeDegrees>
              <LongitudeDegrees>-6.07690804637968540191650390625</LongitudeDegrees>
            </Position>
            <AltitudeMeters>-11</AltitudeMeters>
            <DistanceMeters>NAN</DistanceMeters>
          </Trackpoint>
          <Trackpoint>
            <Time>2019-10-10T12:58:04.000Z</Time>
            <Position>
              <LatitudeDegrees>37.51218195073306560516357421875</LatitudeDegrees>
              <LongitudeDegrees>-6.0768286697566509246826171875</LongitudeDegrees>
            </Position>
            <AltitudeMeters>-11.19999980926513671875</AltitudeMeters>
            <DistanceMeters>NAN</DistanceMeters>
          </Trackpoint>
          <Trackpoint>
            <Time>2019-10-10T12:58:11.000Z</Time>
            <Position>
              <LatitudeDegrees>37.51174709759652614593505859375</LatitudeDegrees>
              <LongitudeDegrees>-6.07669112272560596466064453125</LongitudeDegrees>
            </Position>
            <AltitudeMeters>-11.80000019073486328125</AltitudeMeters>
            <DistanceMeters>NAN</DistanceMeters>
          </Trackpoint>
          <Trackpoint>
            <Time>2019-10-10T12:58:17.000Z</Time>
            <Position>
              <LatitudeDegrees>37.51139807514846324920654296875</LatitudeDegrees>
              <LongitudeDegrees>-6.07657277025282382965087890625</LongitudeDegrees>
            </Position>
            <AltitudeMeters>-12.19999980926513671875</AltitudeMeters>
            <DistanceMeters>NAN</DistanceMeters>
          </Trackpoint>
          <Trackpoint>
            <Time>2019-10-10T12:58:19.000Z</Time>
            <Position>
              <LatitudeDegrees>37.51128525473177433013916015625</LatitudeDegrees>
              <LongitudeDegrees>-6.07652910053730010986328125</LongitudeDegrees>
            </Position>
            <AltitudeMeters>-12.3999996185302734375</AltitudeMeters>
            <DistanceMeters>NAN</DistanceMeters>
          </Trackpoint>
          <Trackpoint>
            <Time>2019-10-10T12:58:26.000Z</Time>
            <Position>
              <LatitudeDegrees>37.51088283956050872802734375</LatitudeDegrees>
              <LongitudeDegrees>-6.076385267078876495361328125</LongitudeDegrees>
            </Position>
            <AltitudeMeters>-11.80000019073486328125</AltitudeMeters>
            <DistanceMeters>NAN</DistanceMeters>
          </Trackpoint>
          <Trackpoint>
            <Time>2019-10-10T12:58:32.000Z</Time>
            <Position>
              <LatitudeDegrees>37.51053683459758758544921875</LatitudeDegrees>
              <LongitudeDegrees>-6.07625392265617847442626953125</LongitudeDegrees>
            </Position>
            <AltitudeMeters>-11</AltitudeMeters>
            <DistanceMeters>NAN</DistanceMeters>
          </Trackpoint>
          <Trackpoint>
            <Time>2019-10-10T12:58:35.000Z</Time>
            <Position>
              <LatitudeDegrees>37.510363496840000152587890625</LatitudeDegrees>
              <LongitudeDegrees>-6.0761933214962482452392578125</LongitudeDegrees>
            </Position>
            <AltitudeMeters>-11.3999996185302734375</AltitudeMeters>
            <DistanceMeters>NAN</DistanceMeters>
          </Trackpoint>
          <Trackpoint>
            <Time>2019-10-10T12:58:44.000Z</Time>
            <Position>
              <LatitudeDegrees>37.50984306447207927703857421875</LatitudeDegrees>
              <LongitudeDegrees>-6.07600447721779346466064453125</LongitudeDegrees>
            </Position>
            <AltitudeMeters>-11.3999996185302734375</AltitudeMeters>
            <DistanceMeters>NAN</DistanceMeters>
          </Trackpoint>
          <Trackpoint>
            <Time>2019-10-10T12:58:52.000Z</Time>
            <Position>
              <LatitudeDegrees>37.5093675591051578521728515625</LatitudeDegrees>
              <LongitudeDegrees>-6.07582761906087398529052734375</LongitudeDegrees>
            </Position>
            <AltitudeMeters>-11.6000003814697265625</AltitudeMeters>
            <DistanceMeters>NAN</DistanceMeters>
          </Trackpoint>
          <Trackpoint>
            <Time>2019-10-10T12:58:55.000Z</Time>
            <Position>
              <LatitudeDegrees>37.5091787986457347869873046875</LatitudeDegrees>
              <LongitudeDegrees>-6.075764000415802001953125</LongitudeDegrees>
            </Position>
            <AltitudeMeters>-12</AltitudeMeters>
            <DistanceMeters>NAN</DistanceMeters>
          </Trackpoint>
          <Trackpoint>
            <Time>2019-10-10T12:59:00.000Z</Time>
            <Position>
              <LatitudeDegrees>37.50887118279933929443359375</LatitudeDegrees>
              <LongitudeDegrees>-6.0756548680365085601806640625</LongitudeDegrees>
            </Position>
            <AltitudeMeters>-12.19999980926513671875</AltitudeMeters>
            <DistanceMeters>NAN</DistanceMeters>
          </Trackpoint>
          <Trackpoint>
            <Time>2019-10-10T12:59:05.000Z</Time>
            <Position>
              <LatitudeDegrees>37.50854973681271076202392578125</LatitudeDegrees>
              <LongitudeDegrees>-6.075546741485595703125</LongitudeDegrees>
            </Position>
            <AltitudeMeters>-13.3999996185302734375</AltitudeMeters>
            <DistanceMeters>NAN</DistanceMeters>
          </Trackpoint>
          <Trackpoint>
            <Time>2019-10-10T12:59:08.000Z</Time>
            <Position>
              <LatitudeDegrees>37.5083442963659763336181640625</LatitudeDegrees>
              <LongitudeDegrees>-6.07547692023217678070068359375</LongitudeDegrees>
            </Position>
            <AltitudeMeters>-14.3999996185302734375</AltitudeMeters>
            <DistanceMeters>NAN</DistanceMeters>
          </Trackpoint>
          <Trackpoint>
            <Time>2019-10-10T12:59:12.000Z</Time>
            <Position>
              <LatitudeDegrees>37.50805637799203395843505859375</LatitudeDegrees>
              <LongitudeDegrees>-6.07538723386824131011962890625</LongitudeDegrees>
            </Position>
            <AltitudeMeters>-15.80000019073486328125</AltitudeMeters>
            <DistanceMeters>NAN</DistanceMeters>
          </Trackpoint>
          <Trackpoint>
            <Time>2019-10-10T12:59:15.000Z</Time>
            <Position>
              <LatitudeDegrees>37.50783543102443218231201171875</LatitudeDegrees>
              <LongitudeDegrees>-6.0753222741186618804931640625</LongitudeDegrees>
            </Position>
            <AltitudeMeters>-16.6000003814697265625</AltitudeMeters>
            <DistanceMeters>NAN</DistanceMeters>
          </Trackpoint>
          <Trackpoint>
            <Time>2019-10-10T12:59:17.000Z</Time>
            <Position>
              <LatitudeDegrees>37.50768891535699367523193359375</LatitudeDegrees>
              <LongitudeDegrees>-6.0752672888338565826416015625</LongitudeDegrees>
            </Position>
            <AltitudeMeters>-17</AltitudeMeters>
            <DistanceMeters>NAN</DistanceMeters>
          </Trackpoint>
          <Trackpoint>
            <Time>2019-10-10T12:59:19.000Z</Time>
            <Position>
              <LatitudeDegrees>37.5075423158705234527587890625</LatitudeDegrees>
              <LongitudeDegrees>-6.0752176679670810699462890625</LongitudeDegrees>
            </Position>
            <AltitudeMeters>-17.3999996185302734375</AltitudeMeters>
            <DistanceMeters>NAN</DistanceMeters>
          </Trackpoint>
          <Trackpoint>
            <Time>2019-10-10T12:59:21.000Z</Time>
            <Position>
              <LatitudeDegrees>37.50740326009690761566162109375</LatitudeDegrees>
              <LongitudeDegrees>-6.07516377232968807220458984375</LongitudeDegrees>
            </Position>
            <AltitudeMeters>-18</AltitudeMeters>
            <DistanceMeters>NAN</DistanceMeters>
          </Trackpoint>
          <Trackpoint>
            <Time>2019-10-10T12:59:22.000Z</Time>
            <Position>
              <LatitudeDegrees>37.507342994213104248046875</LatitudeDegrees>
              <LongitudeDegrees>-6.0751341842114925384521484375</LongitudeDegrees>
            </Position>
            <AltitudeMeters>-18.6000003814697265625</AltitudeMeters>
            <DistanceMeters>NAN</DistanceMeters>
          </Trackpoint>
          <Trackpoint>
            <Time>2019-10-10T12:59:23.000Z</Time>
            <Position>
              <LatitudeDegrees>37.5072965584695339202880859375</LatitudeDegrees>
              <LongitudeDegrees>-6.07510040514171123504638671875</LongitudeDegrees>
            </Position>
            <AltitudeMeters>-18</AltitudeMeters>
            <DistanceMeters>NAN</DistanceMeters>
          </Trackpoint>
          <Trackpoint>
            <Time>2019-10-10T12:59:25.000Z</Time>
            <Position>
              <LatitudeDegrees>37.507257163524627685546875</LatitudeDegrees>
              <LongitudeDegrees>-6.0750116407871246337890625</LongitudeDegrees>
            </Position>
            <AltitudeMeters>-17.3999996185302734375</AltitudeMeters>
            <DistanceMeters>NAN</DistanceMeters>
          </Trackpoint>
          <Trackpoint>
            <Time>2019-10-10T13:06:00.000Z</Time>
            <Position>
              <LatitudeDegrees>37.5054397992789745330810546875</LatitudeDegrees>
              <LongitudeDegrees>-6.07463839463889598846435546875</LongitudeDegrees>
            </Position>
            <AltitudeMeters>-19.3999996185302734375</AltitudeMeters>
            <DistanceMeters>NAN</DistanceMeters>
          </Trackpoint>
          <Trackpoint>
            <Time>2019-10-10T13:06:01.000Z</Time>
            <Position>
              <LatitudeDegrees>37.5053905136883258819580078125</LatitudeDegrees>
              <LongitudeDegrees>-6.07462062500417232513427734375</LongitudeDegrees>
            </Position>
            <AltitudeMeters>-19</AltitudeMeters>
            <DistanceMeters>NAN</DistanceMeters>
          </Trackpoint>
          <Trackpoint>
            <Time>2019-10-10T13:06:11.000Z</Time>
            <Position>
              <LatitudeDegrees>37.5048772059381008148193359375</LatitudeDegrees>
              <LongitudeDegrees>-6.0744780488312244415283203125</LongitudeDegrees>
            </Position>
            <AltitudeMeters>-19.799999237060546875</AltitudeMeters>
            <DistanceMeters>NAN</DistanceMeters>
          </Trackpoint>
          <Trackpoint>
            <Time>2019-10-10T13:06:18.000Z</Time>
            <Position>
              <LatitudeDegrees>37.50450295396149158477783203125</LatitudeDegrees>
              <LongitudeDegrees>-6.07441007159650325775146484375</LongitudeDegrees>
            </Position>
            <AltitudeMeters>-19.799999237060546875</AltitudeMeters>
            <DistanceMeters>NAN</DistanceMeters>
          </Trackpoint>
          <Trackpoint>
            <Time>2019-10-10T13:06:21.000Z</Time>
            <Position>
              <LatitudeDegrees>37.50432576052844524383544921875</LatitudeDegrees>
              <LongitudeDegrees>-6.0743918828666210174560546875</LongitudeDegrees>
            </Position>
            <AltitudeMeters>-20.200000762939453125</AltitudeMeters>
            <DistanceMeters>NAN</DistanceMeters>
          </Trackpoint>
          <Trackpoint>
            <Time>2019-10-10T13:06:23.000Z</Time>
            <Position>
              <LatitudeDegrees>37.5042002834379673004150390625</LatitudeDegrees>
              <LongitudeDegrees>-6.07438023202121257781982421875</LongitudeDegrees>
            </Position>
            <AltitudeMeters>-20.6000003814697265625</AltitudeMeters>
            <DistanceMeters>NAN</DistanceMeters>
          </Trackpoint>
          <Trackpoint>
            <Time>2019-10-10T13:06:26.000Z</Time>
            <Position>
              <LatitudeDegrees>37.5040023028850555419921875</LatitudeDegrees>
              <LongitudeDegrees>-6.07436698861420154571533203125</LongitudeDegrees>
            </Position>
            <AltitudeMeters>-21.799999237060546875</AltitudeMeters>
            <DistanceMeters>NAN</DistanceMeters>
          </Trackpoint>
          <Trackpoint>
            <Time>2019-10-10T13:06:29.000Z</Time>
            <Position>
              <LatitudeDegrees>37.5037989579141139984130859375</LatitudeDegrees>
              <LongitudeDegrees>-6.074344776570796966552734375</LongitudeDegrees>
            </Position>
            <AltitudeMeters>-22.3999996185302734375</AltitudeMeters>
            <DistanceMeters>NAN</DistanceMeters>
          </Trackpoint>
          <Trackpoint>
            <Time>2019-10-10T13:06:34.000Z</Time>
            <Position>
              <LatitudeDegrees>37.50344180501997470855712890625</LatitudeDegrees>
              <LongitudeDegrees>-6.07432004995644092559814453125</LongitudeDegrees>
            </Position>
            <AltitudeMeters>-23.200000762939453125</AltitudeMeters>
            <DistanceMeters>NAN</DistanceMeters>
          </Trackpoint>
          <Trackpoint>
            <Time>2019-10-10T13:06:37.000Z</Time>
            <Position>
              <LatitudeDegrees>37.5032244622707366943359375</LatitudeDegrees>
              <LongitudeDegrees>-6.07430395670235157012939453125</LongitudeDegrees>
            </Position>
            <AltitudeMeters>-24.200000762939453125</AltitudeMeters>
            <DistanceMeters>NAN</DistanceMeters>
          </Trackpoint>
          <Trackpoint>
            <Time>2019-10-10T13:06:38.000Z</Time>
            <Position>
              <LatitudeDegrees>37.5031535513699054718017578125</LatitudeDegrees>
              <LongitudeDegrees>-6.07429884374141693115234375</LongitudeDegrees>
            </Position>
            <AltitudeMeters>-24.6000003814697265625</AltitudeMeters>
            <DistanceMeters>NAN</DistanceMeters>
          </Trackpoint>
          <Trackpoint>
            <Time>2019-10-10T13:06:46.000Z</Time>
            <Position>
              <LatitudeDegrees>37.50259288586676120758056640625</LatitudeDegrees>
              <LongitudeDegrees>-6.0742554254829883575439453125</LongitudeDegrees>
            </Position>
            <AltitudeMeters>-24.6000003814697265625</AltitudeMeters>
            <DistanceMeters>NAN</DistanceMeters>
          </Trackpoint>
          <Trackpoint>
            <Time>2019-10-10T13:06:47.000Z</Time>
            <Position>
              <LatitudeDegrees>37.50252465717494487762451171875</LatitudeDegrees>
              <LongitudeDegrees>-6.0742517374455928802490234375</LongitudeDegrees>
            </Position>
            <AltitudeMeters>-24.6000003814697265625</AltitudeMeters>
            <DistanceMeters>NAN</DistanceMeters>
          </Trackpoint>
          <Trackpoint>
            <Time>2019-10-10T13:06:53.000Z</Time>
            <Position>
              <LatitudeDegrees>37.5021507404744625091552734375</LatitudeDegrees>
              <LongitudeDegrees>-6.0742188803851604461669921875</LongitudeDegrees>
            </Position>
            <AltitudeMeters>-24</AltitudeMeters>
            <DistanceMeters>NAN</DistanceMeters>
          </Trackpoint>
          <Trackpoint>
            <Time>2019-10-10T13:06:55.000Z</Time>
            <Position>
              <LatitudeDegrees>37.5020293705165386199951171875</LatitudeDegrees>
              <LongitudeDegrees>-6.0742051340639591217041015625</LongitudeDegrees>
            </Position>
            <AltitudeMeters>-23.799999237060546875</AltitudeMeters>
            <DistanceMeters>NAN</DistanceMeters>
          </Trackpoint>
          <Trackpoint>
            <Time>2019-10-10T13:07:03.000Z</Time>
            <Position>
              <LatitudeDegrees>37.50148781575262546539306640625</LatitudeDegrees>
              <LongitudeDegrees>-6.07413346879184246063232421875</LongitudeDegrees>
            </Position>
            <AltitudeMeters>-25.799999237060546875</AltitudeMeters>
            <DistanceMeters>NAN</DistanceMeters>
          </Trackpoint>
          <Trackpoint>
            <Time>2019-10-10T13:07:08.000Z</Time>
            <Position>
              <LatitudeDegrees>37.5011150725185871124267578125</LatitudeDegrees>
              <LongitudeDegrees>-6.07408099807798862457275390625</LongitudeDegrees>
            </Position>
            <AltitudeMeters>-27.6000003814697265625</AltitudeMeters>
            <DistanceMeters>NAN</DistanceMeters>
          </Trackpoint>
          <Trackpoint>
            <Time>2019-10-10T13:07:10.000Z</Time>
            <Position>
              <LatitudeDegrees>37.5009628571569919586181640625</LatitudeDegrees>
              <LongitudeDegrees>-6.07406004332005977630615234375</LongitudeDegrees>
            </Position>
            <AltitudeMeters>-28.6000003814697265625</AltitudeMeters>
            <DistanceMeters>NAN</DistanceMeters>
          </Trackpoint>
          <Trackpoint>
            <Time>2019-10-10T13:07:12.000Z</Time>
            <Position>
              <LatitudeDegrees>37.500814832746982574462890625</LatitudeDegrees>
              <LongitudeDegrees>-6.07403841800987720489501953125</LongitudeDegrees>
            </Position>
            <AltitudeMeters>-28.6000003814697265625</AltitudeMeters>
            <DistanceMeters>NAN</DistanceMeters>
          </Trackpoint>
          <Trackpoint>
            <Time>2019-10-10T13:07:20.000Z</Time>
            <Position>
              <LatitudeDegrees>37.5002286024391651153564453125</LatitudeDegrees>
              <LongitudeDegrees>-6.07395795173943042755126953125</LongitudeDegrees>
            </Position>
            <AltitudeMeters>-28.6000003814697265625</AltitudeMeters>
            <DistanceMeters>NAN</DistanceMeters>
          </Trackpoint>
          <Trackpoint>
            <Time>2019-10-10T13:07:23.000Z</Time>
            <Position>
              <LatitudeDegrees>37.50001410953700542449951171875</LatitudeDegrees>
              <LongitudeDegrees>-6.0739266872406005859375</LongitudeDegrees>
            </Position>
            <AltitudeMeters>-29</AltitudeMeters>
            <DistanceMeters>NAN</DistanceMeters>
          </Trackpoint>
          <Trackpoint>
            <Time>2019-10-10T13:07:24.000Z</Time>
            <Position>
              <LatitudeDegrees>37.49994202516973018646240234375</LatitudeDegrees>
              <LongitudeDegrees>-6.073912940919399261474609375</LongitudeDegrees>
            </Position>
            <AltitudeMeters>-29</AltitudeMeters>
            <DistanceMeters>NAN</DistanceMeters>
          </Trackpoint>
          <Trackpoint>
            <Time>2019-10-10T13:07:27.000Z</Time>
            <Position>
              <LatitudeDegrees>37.4997173063457012176513671875</LatitudeDegrees>
              <LongitudeDegrees>-6.0738805867731571197509765625</LongitudeDegrees>
            </Position>
            <AltitudeMeters>-30</AltitudeMeters>
            <DistanceMeters>NAN</DistanceMeters>
          </Trackpoint>
          <Trackpoint>
            <Time>2019-10-10T13:07:30.000Z</Time>
            <Position>
              <LatitudeDegrees>37.49948336742818355560302734375</LatitudeDegrees>
              <LongitudeDegrees>-6.0738475620746612548828125</LongitudeDegrees>
            </Position>
            <AltitudeMeters>-31.200000762939453125</AltitudeMeters>
            <DistanceMeters>NAN</DistanceMeters>
          </Trackpoint>
          <Trackpoint>
            <Time>2019-10-10T13:07:31.000Z</Time>
            <Position>
              <LatitudeDegrees>37.49940407462418079376220703125</LatitudeDegrees>
              <LongitudeDegrees>-6.07383959926664829254150390625</LongitudeDegrees>
            </Position>
            <AltitudeMeters>-32</AltitudeMeters>
            <DistanceMeters>NAN</DistanceMeters>
          </Trackpoint>
          <Trackpoint>
            <Time>2019-10-10T13:07:32.000Z</Time>
            <Position>
              <LatitudeDegrees>37.4993218481540679931640625</LatitudeDegrees>
              <LongitudeDegrees>-6.073827780783176422119140625</LongitudeDegrees>
            </Position>
            <AltitudeMeters>-32.40000152587890625</AltitudeMeters>
            <DistanceMeters>NAN</DistanceMeters>
          </Trackpoint>
          <Trackpoint>
            <Time>2019-10-10T13:07:34.000Z</Time>
            <Position>
              <LatitudeDegrees>37.49915261752903461456298828125</LatitudeDegrees>
              <LongitudeDegrees>-6.07380489818751811981201171875</LongitudeDegrees>
            </Position>
            <AltitudeMeters>-33.799999237060546875</AltitudeMeters>
            <DistanceMeters>NAN</DistanceMeters>
          </Trackpoint>
          <Trackpoint>
            <Time>2019-10-10T13:07:39.000Z</Time>
            <Position>
              <LatitudeDegrees>37.4987188540399074554443359375</LatitudeDegrees>
              <LongitudeDegrees>-6.0737456381320953369140625</LongitudeDegrees>
            </Position>
            <AltitudeMeters>-37</AltitudeMeters>
            <DistanceMeters>NAN</DistanceMeters>
          </Trackpoint>
          <Trackpoint>
            <Time>2019-10-10T13:07:41.000Z</Time>
            <Position>
              <LatitudeDegrees>37.49854727648198604583740234375</LatitudeDegrees>
              <LongitudeDegrees>-6.07372325845062732696533203125</LongitudeDegrees>
            </Position>
            <AltitudeMeters>-37.59999847412109375</AltitudeMeters>
            <DistanceMeters>NAN</DistanceMeters>
          </Trackpoint>
          <Trackpoint>
            <Time>2019-10-10T13:07:45.000Z</Time>
            <Position>
              <LatitudeDegrees>37.49822339974343776702880859375</LatitudeDegrees>
              <LongitudeDegrees>-6.07367657124996185302734375</LongitudeDegrees>
            </Position>
            <AltitudeMeters>-37.799999237060546875</AltitudeMeters>
            <DistanceMeters>NAN</DistanceMeters>
          </Trackpoint>
          <Trackpoint>
            <Time>2019-10-10T13:07:48.000Z</Time>
            <Position>
              <LatitudeDegrees>37.49800312332808971405029296875</LatitudeDegrees>
              <LongitudeDegrees>-6.07364631257951259613037109375</LongitudeDegrees>
            </Position>
            <AltitudeMeters>-36.799999237060546875</AltitudeMeters>
            <DistanceMeters>NAN</DistanceMeters>
          </Trackpoint>
          <Trackpoint>
            <Time>2019-10-10T13:07:55.000Z</Time>
            <Position>
              <LatitudeDegrees>37.4975306354463100433349609375</LatitudeDegrees>
              <LongitudeDegrees>-6.0735748149454593658447265625</LongitudeDegrees>
            </Position>
            <AltitudeMeters>-36.799999237060546875</AltitudeMeters>
            <DistanceMeters>NAN</DistanceMeters>
          </Trackpoint>
          <Trackpoint>
            <Time>2019-10-10T13:08:03.000Z</Time>
            <Position>
              <LatitudeDegrees>37.49699209816753864288330078125</LatitudeDegrees>
              <LongitudeDegrees>-6.07344967313110828399658203125</LongitudeDegrees>
            </Position>
            <AltitudeMeters>-38</AltitudeMeters>
            <DistanceMeters>NAN</DistanceMeters>
          </Trackpoint>
          <Trackpoint>
            <Time>2019-10-10T13:08:04.000Z</Time>
            <Position>
              <LatitudeDegrees>37.496925294399261474609375</LatitudeDegrees>
              <LongitudeDegrees>-6.07342972420156002044677734375</LongitudeDegrees>
            </Position>
            <AltitudeMeters>-38</AltitudeMeters>
            <DistanceMeters>NAN</DistanceMeters>
          </Trackpoint>
          <Trackpoint>
            <Time>2019-10-10T13:08:08.000Z</Time>
            <Position>
              <LatitudeDegrees>37.496657408773899078369140625</LatitudeDegrees>
              <LongitudeDegrees>-6.07333601452410221099853515625</LongitudeDegrees>
            </Position>
            <AltitudeMeters>-39</AltitudeMeters>
            <DistanceMeters>NAN</DistanceMeters>
          </Trackpoint>
          <Trackpoint>
            <Time>2019-10-10T13:08:10.000Z</Time>
            <Position>
              <LatitudeDegrees>37.49651961028575897216796875</LatitudeDegrees>
              <LongitudeDegrees>-6.07328136451542377471923828125</LongitudeDegrees>
            </Position>
            <AltitudeMeters>-39.200000762939453125</AltitudeMeters>
            <DistanceMeters>NAN</DistanceMeters>
          </Trackpoint>
          <Trackpoint>
            <Time>2019-10-10T13:08:13.000Z</Time>
            <Position>
              <LatitudeDegrees>37.496310733258724212646484375</LatitudeDegrees>
              <LongitudeDegrees>-6.07319871895015239715576171875</LongitudeDegrees>
            </Position>
            <AltitudeMeters>-40</AltitudeMeters>
            <DistanceMeters>NAN</DistanceMeters>
          </Trackpoint>
          <Trackpoint>
            <Time>2019-10-10T13:08:15.000Z</Time>
            <Position>
              <LatitudeDegrees>37.49617226421833038330078125</LatitudeDegrees>
              <LongitudeDegrees>-6.0731386207044124603271484375</LongitudeDegrees>
            </Position>
            <AltitudeMeters>-40.59999847412109375</AltitudeMeters>
            <DistanceMeters>NAN</DistanceMeters>
          </Trackpoint>
          <Trackpoint>
            <Time>2019-10-10T13:08:19.000Z</Time>
            <Position>
              <LatitudeDegrees>37.49589742161333560943603515625</LatitudeDegrees>
              <LongitudeDegrees>-6.07301297597587108612060546875</LongitudeDegrees>
            </Position>
            <AltitudeMeters>-41</AltitudeMeters>
            <DistanceMeters>NAN</DistanceMeters>
          </Trackpoint>
          <Trackpoint>
            <Time>2019-10-10T13:08:21.000Z</Time>
            <Position>
              <LatitudeDegrees>37.4957617186009883880615234375</LatitudeDegrees>
              <LongitudeDegrees>-6.072949357330799102783203125</LongitudeDegrees>
            </Position>
            <AltitudeMeters>-41.799999237060546875</AltitudeMeters>
            <DistanceMeters>NAN</DistanceMeters>
          </Trackpoint>
          <Trackpoint>
            <Time>2019-10-10T13:08:24.000Z</Time>
            <Position>
              <LatitudeDegrees>37.49556340277194976806640625</LatitudeDegrees>
              <LongitudeDegrees>-6.07285581529140472412109375</LongitudeDegrees>
            </Position>
            <AltitudeMeters>-41.40000152587890625</AltitudeMeters>
            <DistanceMeters>NAN</DistanceMeters>
          </Trackpoint>
          <Trackpoint>
            <Time>2019-10-10T13:08:27.000Z</Time>
            <Position>
              <LatitudeDegrees>37.4953701160848140716552734375</LatitudeDegrees>
              <LongitudeDegrees>-6.0727661289274692535400390625</LongitudeDegrees>
            </Position>
            <AltitudeMeters>-42.40000152587890625</AltitudeMeters>
            <DistanceMeters>NAN</DistanceMeters>
          </Trackpoint>
          <Trackpoint>
            <Time>2019-10-10T13:08:30.000Z</Time>
            <Position>
              <LatitudeDegrees>37.49518278054893016815185546875</LatitudeDegrees>
              <LongitudeDegrees>-6.0726772807538509368896484375</LongitudeDegrees>
            </Position>
            <AltitudeMeters>-41.799999237060546875</AltitudeMeters>
            <DistanceMeters>NAN</DistanceMeters>
          </Trackpoint>
          <Trackpoint>
            <Time>2019-10-10T13:08:34.000Z</Time>
            <Position>
              <LatitudeDegrees>37.49493987299501895904541015625</LatitudeDegrees>
              <LongitudeDegrees>-6.0725533962249755859375</LongitudeDegrees>
            </Position>
            <AltitudeMeters>-42</AltitudeMeters>
            <DistanceMeters>NAN</DistanceMeters>
          </Trackpoint>
          <Trackpoint>
            <Time>2019-10-10T13:08:37.000Z</Time>
            <Position>
              <LatitudeDegrees>37.49476133845746517181396484375</LatitudeDegrees>
              <LongitudeDegrees>-6.07245624996721744537353515625</LongitudeDegrees>
            </Position>
            <AltitudeMeters>-41.799999237060546875</AltitudeMeters>
            <DistanceMeters>NAN</DistanceMeters>
          </Trackpoint>
          <Trackpoint>
            <Time>2019-10-10T13:08:40.000Z</Time>
            <Position>
              <LatitudeDegrees>37.4945859052240848541259765625</LatitudeDegrees>
              <LongitudeDegrees>-6.07235281728208065032958984375</LongitudeDegrees>
            </Position>
            <AltitudeMeters>-41.59999847412109375</AltitudeMeters>
            <DistanceMeters>NAN</DistanceMeters>
          </Trackpoint>
          <Trackpoint>
            <Time>2019-10-10T13:08:44.000Z</Time>
            <Position>
              <LatitudeDegrees>37.49435716308653354644775390625</LatitudeDegrees>
              <LongitudeDegrees>-6.07218886725604534149169921875</LongitudeDegrees>
            </Position>
            <AltitudeMeters>-41.40000152587890625</AltitudeMeters>
            <DistanceMeters>NAN</DistanceMeters>
          </Trackpoint>
          <Trackpoint>
            <Time>2019-10-10T13:08:50.000Z</Time>
            <Position>
              <LatitudeDegrees>37.4940082244575023651123046875</LatitudeDegrees>
              <LongitudeDegrees>-6.07190153561532497406005859375</LongitudeDegrees>
            </Position>
            <AltitudeMeters>-42.59999847412109375</AltitudeMeters>
            <DistanceMeters>NAN</DistanceMeters>
          </Trackpoint>
          <Trackpoint>
            <Time>2019-10-10T13:08:51.000Z</Time>
            <Position>
              <LatitudeDegrees>37.4939493834972381591796875</LatitudeDegrees>
              <LongitudeDegrees>-6.07185275293886661529541015625</LongitudeDegrees>
            </Position>
            <AltitudeMeters>-43.40000152587890625</AltitudeMeters>
            <DistanceMeters>NAN</DistanceMeters>
          </Trackpoint>
          <Trackpoint>
            <Time>2019-10-10T13:08:53.000Z</Time>
            <Position>
              <LatitudeDegrees>37.4938285164535045623779296875</LatitudeDegrees>
              <LongitudeDegrees>-6.0717582888901233673095703125</LongitudeDegrees>
            </Position>
            <AltitudeMeters>-43</AltitudeMeters>
            <DistanceMeters>NAN</DistanceMeters>
          </Trackpoint>
          <Trackpoint>
            <Time>2019-10-10T13:08:59.000Z</Time>
            <Position>
              <LatitudeDegrees>37.4934764765202999114990234375</LatitudeDegrees>
              <LongitudeDegrees>-6.07145360670983791351318359375</LongitudeDegrees>
            </Position>
            <AltitudeMeters>-44.59999847412109375</AltitudeMeters>
            <DistanceMeters>NAN</DistanceMeters>
          </Trackpoint>
          <Trackpoint>
            <Time>2019-10-10T13:09:02.000Z</Time>
            <Position>
              <LatitudeDegrees>37.49330640770494937896728515625</LatitudeDegrees>
              <LongitudeDegrees>-6.07131228782236576080322265625</LongitudeDegrees>
            </Position>
            <AltitudeMeters>-44</AltitudeMeters>
            <DistanceMeters>NAN</DistanceMeters>
          </Trackpoint>
          <Trackpoint>
            <Time>2019-10-10T13:09:11.000Z</Time>
            <Position>
              <LatitudeDegrees>37.49279460869729518890380859375</LatitudeDegrees>
              <LongitudeDegrees>-6.0709405504167079925537109375</LongitudeDegrees>
            </Position>
            <AltitudeMeters>-43.799999237060546875</AltitudeMeters>
            <DistanceMeters>NAN</DistanceMeters>
          </Trackpoint>
          <Trackpoint>
            <Time>2019-10-10T13:09:13.000Z</Time>
            <Position>
              <LatitudeDegrees>37.492674328386783599853515625</LatitudeDegrees>
              <LongitudeDegrees>-6.070873327553272247314453125</LongitudeDegrees>
            </Position>
            <AltitudeMeters>-43.59999847412109375</AltitudeMeters>
            <DistanceMeters>NAN</DistanceMeters>
          </Trackpoint>
          <Trackpoint>
            <Time>2019-10-10T13:09:19.000Z</Time>
            <Position>
              <LatitudeDegrees>37.49229504726827144622802734375</LatitudeDegrees>
              <LongitudeDegrees>-6.07070610858500003814697265625</LongitudeDegrees>
            </Position>
            <AltitudeMeters>-43.799999237060546875</AltitudeMeters>
            <DistanceMeters>NAN</DistanceMeters>
          </Trackpoint>
          <Trackpoint>
            <Time>2019-10-10T13:09:25.000Z</Time>
            <Position>
              <LatitudeDegrees>37.49190864153206348419189453125</LatitudeDegrees>
              <LongitudeDegrees>-6.07059529982507228851318359375</LongitudeDegrees>
            </Position>
            <AltitudeMeters>-42.40000152587890625</AltitudeMeters>
            <DistanceMeters>NAN</DistanceMeters>
          </Trackpoint>
          <Trackpoint>
            <Time>2019-10-10T13:09:27.000Z</Time>
            <Position>
              <LatitudeDegrees>37.49177956022322177886962890625</LatitudeDegrees>
              <LongitudeDegrees>-6.0705690644681453704833984375</LongitudeDegrees>
            </Position>
            <AltitudeMeters>-42.200000762939453125</AltitudeMeters>
            <DistanceMeters>NAN</DistanceMeters>
          </Trackpoint>
          <Trackpoint>
            <Time>2019-10-10T13:09:36.000Z</Time>
            <Position>
              <LatitudeDegrees>37.491220571100711822509765625</LatitudeDegrees>
              <LongitudeDegrees>-6.07044157572090625762939453125</LongitudeDegrees>
            </Position>
            <AltitudeMeters>-42</AltitudeMeters>
            <DistanceMeters>NAN</DistanceMeters>
          </Trackpoint>
          <Trackpoint>
            <Time>2019-10-10T13:09:42.000Z</Time>
            <Position>
              <LatitudeDegrees>37.490866184234619140625</LatitudeDegrees>
              <LongitudeDegrees>-6.0703739337623119354248046875</LongitudeDegrees>
            </Position>
            <AltitudeMeters>-42.40000152587890625</AltitudeMeters>
            <DistanceMeters>NAN</DistanceMeters>
          </Trackpoint>
          <Trackpoint>
            <Time>2019-10-10T13:09:50.000Z</Time>
            <Position>
              <LatitudeDegrees>37.4904361926019191741943359375</LatitudeDegrees>
              <LongitudeDegrees>-6.07028181664645671844482421875</LongitudeDegrees>
            </Position>
            <AltitudeMeters>-41.59999847412109375</AltitudeMeters>
            <DistanceMeters>NAN</DistanceMeters>
          </Trackpoint>
          <Trackpoint>
            <Time>2019-10-10T13:09:52.000Z</Time>
            <Position>
              <LatitudeDegrees>37.49033703468739986419677734375</LatitudeDegrees>
              <LongitudeDegrees>-6.07026287354528903961181640625</LongitudeDegrees>
            </Position>
            <AltitudeMeters>-41.200000762939453125</AltitudeMeters>
            <DistanceMeters>NAN</DistanceMeters>
          </Trackpoint>
          <Trackpoint>
            <Time>2019-10-10T13:09:59.000Z</Time>
            <Position>
              <LatitudeDegrees>37.4899929575622081756591796875</LatitudeDegrees>
              <LongitudeDegrees>-6.07018877752125263214111328125</LongitudeDegrees>
            </Position>
            <AltitudeMeters>-41</AltitudeMeters>
            <DistanceMeters>NAN</DistanceMeters>
          </Trackpoint>
          <Trackpoint>
            <Time>2019-10-10T13:10:04.000Z</Time>
            <Position>
              <LatitudeDegrees>37.48974611051380634307861328125</LatitudeDegrees>
              <LongitudeDegrees>-6.0701372288167476654052734375</LongitudeDegrees>
            </Position>
            <AltitudeMeters>-40.200000762939453125</AltitudeMeters>
            <DistanceMeters>NAN</DistanceMeters>
          </Trackpoint>
          <Trackpoint>
            <Time>2019-10-10T13:10:09.000Z</Time>
            <Position>
              <LatitudeDegrees>37.4895037896931171417236328125</LatitudeDegrees>
              <LongitudeDegrees>-6.0700829140841960906982421875</LongitudeDegrees>
            </Position>
            <AltitudeMeters>-39.59999847412109375</AltitudeMeters>
            <DistanceMeters>NAN</DistanceMeters>
          </Trackpoint>
          <Trackpoint>
            <Time>2019-10-10T13:10:13.000Z</Time>
            <Position>
              <LatitudeDegrees>37.4893123470246791839599609375</LatitudeDegrees>
              <LongitudeDegrees>-6.0700356401503086090087890625</LongitudeDegrees>
            </Position>
            <AltitudeMeters>-39</AltitudeMeters>
            <DistanceMeters>NAN</DistanceMeters>
          </Trackpoint>
          <Trackpoint>
            <Time>2019-10-10T13:10:18.000Z</Time>
            <Position>
              <LatitudeDegrees>37.4890800006687641143798828125</LatitudeDegrees>
              <LongitudeDegrees>-6.06998224742710590362548828125</LongitudeDegrees>
            </Position>
            <AltitudeMeters>-38.59999847412109375</AltitudeMeters>
            <DistanceMeters>NAN</DistanceMeters>
          </Trackpoint>
          <Trackpoint>
            <Time>2019-10-10T13:10:22.000Z</Time>
            <Position>
              <LatitudeDegrees>37.48891848139464855194091796875</LatitudeDegrees>
              <LongitudeDegrees>-6.069949977099895477294921875</LongitudeDegrees>
            </Position>
            <AltitudeMeters>-37.799999237060546875</AltitudeMeters>
            <DistanceMeters>NAN</DistanceMeters>
          </Trackpoint>
          <Trackpoint>
            <Time>2019-10-10T13:10:26.000Z</Time>
            <Position>
              <LatitudeDegrees>37.488769032061100006103515625</LatitudeDegrees>
              <LongitudeDegrees>-6.06990764848887920379638671875</LongitudeDegrees>
            </Position>
            <AltitudeMeters>-37</AltitudeMeters>
            <DistanceMeters>NAN</DistanceMeters>
          </Trackpoint>
          <Trackpoint>
            <Time>2019-10-10T13:10:28.000Z</Time>
            <Position>
              <LatitudeDegrees>37.4886997975409030914306640625</LatitudeDegrees>
              <LongitudeDegrees>-6.0698817484080791473388671875</LongitudeDegrees>
            </Position>
            <AltitudeMeters>-36.40000152587890625</AltitudeMeters>
            <DistanceMeters>NAN</DistanceMeters>
          </Trackpoint>
          <Trackpoint>
            <Time>2019-10-10T13:10:35.000Z</Time>
            <Position>
              <LatitudeDegrees>37.4884520284831523895263671875</LatitudeDegrees>
              <LongitudeDegrees>-6.06980103068053722381591796875</LongitudeDegrees>
            </Position>
            <AltitudeMeters>-35.40000152587890625</AltitudeMeters>
            <DistanceMeters>NAN</DistanceMeters>
          </Trackpoint>
          <Trackpoint>
            <Time>2019-10-10T13:10:40.000Z</Time>
            <Position>
              <LatitudeDegrees>37.4882867373526096343994140625</LatitudeDegrees>
              <LongitudeDegrees>-6.0697312094271183013916015625</LongitudeDegrees>
            </Position>
            <AltitudeMeters>-34.200000762939453125</AltitudeMeters>
            <DistanceMeters>NAN</DistanceMeters>
          </Trackpoint>
          <Trackpoint>
            <Time>2019-10-10T13:10:44.000Z</Time>
            <Position>
              <LatitudeDegrees>37.4881579913198947906494140625</LatitudeDegrees>
              <LongitudeDegrees>-6.0696651600301265716552734375</LongitudeDegrees>
            </Position>
            <AltitudeMeters>-33.200000762939453125</AltitudeMeters>
            <DistanceMeters>NAN</DistanceMeters>
          </Trackpoint>
          <Trackpoint>
            <Time>2019-10-10T13:10:45.000Z</Time>
            <Position>
              <LatitudeDegrees>37.48812496662139892578125</LatitudeDegrees>
              <LongitudeDegrees>-6.06964931823313236236572265625</LongitudeDegrees>
            </Position>
            <AltitudeMeters>-32.799999237060546875</AltitudeMeters>
            <DistanceMeters>NAN</DistanceMeters>
          </Trackpoint>
          <Trackpoint>
            <Time>2019-10-10T13:10:51.000Z</Time>
            <Position>
              <LatitudeDegrees>37.4879331886768341064453125</LatitudeDegrees>
              <LongitudeDegrees>-6.0695504955947399139404296875</LongitudeDegrees>
            </Position>
            <AltitudeMeters>-31.799999237060546875</AltitudeMeters>
            <DistanceMeters>NAN</DistanceMeters>
          </Trackpoint>
          <Trackpoint>
            <Time>2019-10-10T13:10:52.000Z</Time>
            <Position>
              <LatitudeDegrees>37.48790142126381397247314453125</LatitudeDegrees>
              <LongitudeDegrees>-6.0695330612361431121826171875</LongitudeDegrees>
            </Position>
            <AltitudeMeters>-31.6000003814697265625</AltitudeMeters>
            <DistanceMeters>NAN</DistanceMeters>
          </Trackpoint>
          <Trackpoint>
            <Time>2019-10-10T13:10:53.000Z</Time>
            <Position>
              <LatitudeDegrees>37.48787040822207927703857421875</LatitudeDegrees>
              <LongitudeDegrees>-6.06951780617237091064453125</LongitudeDegrees>
            </Position>
            <AltitudeMeters>-31.3999996185302734375</AltitudeMeters>
            <DistanceMeters>NAN</DistanceMeters>
          </Trackpoint>
          <Trackpoint>
            <Time>2019-10-10T13:10:57.000Z</Time>
            <Position>
              <LatitudeDegrees>37.48774685896933078765869140625</LatitudeDegrees>
              <LongitudeDegrees>-6.06944940984249114990234375</LongitudeDegrees>
            </Position>
            <AltitudeMeters>-30.200000762939453125</AltitudeMeters>
            <DistanceMeters>NAN</DistanceMeters>
          </Trackpoint>
          <Trackpoint>
            <Time>2019-10-10T13:11:01.000Z</Time>
            <Position>
              <LatitudeDegrees>37.48762532137334346771240234375</LatitudeDegrees>
              <LongitudeDegrees>-6.06937305070459842681884765625</LongitudeDegrees>
            </Position>
            <AltitudeMeters>-30</AltitudeMeters>
            <DistanceMeters>NAN</DistanceMeters>
          </Trackpoint>
          <Trackpoint>
            <Time>2019-10-10T13:11:07.000Z</Time>
            <Position>
              <LatitudeDegrees>37.4874562583863735198974609375</LatitudeDegrees>
              <LongitudeDegrees>-6.069245226681232452392578125</LongitudeDegrees>
            </Position>
            <AltitudeMeters>-29.200000762939453125</AltitudeMeters>
            <DistanceMeters>NAN</DistanceMeters>
          </Trackpoint>
          <Trackpoint>
            <Time>2019-10-10T13:11:09.000Z</Time>
            <Position>
              <LatitudeDegrees>37.4873940646648406982421875</LatitudeDegrees>
              <LongitudeDegrees>-6.06920021586120128631591796875</LongitudeDegrees>
            </Position>
            <AltitudeMeters>-29</AltitudeMeters>
            <DistanceMeters>NAN</DistanceMeters>
          </Trackpoint>
          <Trackpoint>
            <Time>2019-10-10T13:11:13.000Z</Time>
            <Position>
              <LatitudeDegrees>37.48727076686918735504150390625</LatitudeDegrees>
              <LongitudeDegrees>-6.0690918378531932830810546875</LongitudeDegrees>
            </Position>
            <AltitudeMeters>-28.200000762939453125</AltitudeMeters>
            <DistanceMeters>NAN</DistanceMeters>
          </Trackpoint>
          <Trackpoint>
            <Time>2019-10-10T13:11:17.000Z</Time>
            <Position>
              <LatitudeDegrees>37.48714621178805828094482421875</LatitudeDegrees>
              <LongitudeDegrees>-6.06897021643817424774169921875</LongitudeDegrees>
            </Position>
            <AltitudeMeters>-28</AltitudeMeters>
            <DistanceMeters>NAN</DistanceMeters>
          </Trackpoint>
          <Trackpoint>
            <Time>2019-10-10T13:11:28.000Z</Time>
            <Position>
              <LatitudeDegrees>37.48679459095001220703125</LatitudeDegrees>
              <LongitudeDegrees>-6.06861767359077930450439453125</LongitudeDegrees>
            </Position>
            <AltitudeMeters>-27.6000003814697265625</AltitudeMeters>
            <DistanceMeters>NAN</DistanceMeters>
          </Trackpoint>
          <Trackpoint>
            <Time>2019-10-10T13:11:38.000Z</Time>
            <Position>
              <LatitudeDegrees>37.4864219315350055694580078125</LatitudeDegrees>
              <LongitudeDegrees>-6.06823973357677459716796875</LongitudeDegrees>
            </Position>
            <AltitudeMeters>-28.6000003814697265625</AltitudeMeters>
            <DistanceMeters>NAN</DistanceMeters>
          </Trackpoint>
          <Trackpoint>
            <Time>2019-10-10T13:11:44.000Z</Time>
            <Position>
              <LatitudeDegrees>37.4861563928425312042236328125</LatitudeDegrees>
              <LongitudeDegrees>-6.06796841137111186981201171875</LongitudeDegrees>
            </Position>
            <AltitudeMeters>-29.200000762939453125</AltitudeMeters>
            <DistanceMeters>NAN</DistanceMeters>
          </Trackpoint>
          <Trackpoint>
            <Time>2019-10-10T13:11:46.000Z</Time>
            <Position>
              <LatitudeDegrees>37.4860591627657413482666015625</LatitudeDegrees>
              <LongitudeDegrees>-6.0678704269230365753173828125</LongitudeDegrees>
            </Position>
            <AltitudeMeters>-30.3999996185302734375</AltitudeMeters>
            <DistanceMeters>NAN</DistanceMeters>
          </Trackpoint>
          <Trackpoint>
            <Time>2019-10-10T13:11:50.000Z</Time>
            <Position>
              <LatitudeDegrees>37.4858633615076541900634765625</LatitudeDegrees>
              <LongitudeDegrees>-6.0676732845604419708251953125</LongitudeDegrees>
            </Position>
            <AltitudeMeters>-31.3999996185302734375</AltitudeMeters>
            <DistanceMeters>NAN</DistanceMeters>
          </Trackpoint>
          <Trackpoint>
            <Time>2019-10-10T13:11:53.000Z</Time>
            <Position>
              <LatitudeDegrees>37.4857144989073276519775390625</LatitudeDegrees>
              <LongitudeDegrees>-6.06751947663724422454833984375</LongitudeDegrees>
            </Position>
            <AltitudeMeters>-32.40000152587890625</AltitudeMeters>
            <DistanceMeters>NAN</DistanceMeters>
          </Trackpoint>
          <Trackpoint>
            <Time>2019-10-10T13:11:54.000Z</Time>
            <Position>
              <LatitudeDegrees>37.48566077090799808502197265625</LatitudeDegrees>
              <LongitudeDegrees>-6.06747035868465900421142578125</LongitudeDegrees>
            </Position>
            <AltitudeMeters>-32.59999847412109375</AltitudeMeters>
            <DistanceMeters>NAN</DistanceMeters>
          </Trackpoint>
          <Trackpoint>
            <Time>2019-10-10T13:11:59.000Z</Time>
            <Position>
              <LatitudeDegrees>37.48540461994707584381103515625</LatitudeDegrees>
              <LongitudeDegrees>-6.0672064125537872314453125</LongitudeDegrees>
            </Position>
            <AltitudeMeters>-32.799999237060546875</AltitudeMeters>
            <DistanceMeters>NAN</DistanceMeters>
          </Trackpoint>
          <Trackpoint>
            <Time>2019-10-10T13:12:01.000Z</Time>
            <Position>
              <LatitudeDegrees>37.48529850505292415618896484375</LatitudeDegrees>
              <LongitudeDegrees>-6.067100130021572113037109375</LongitudeDegrees>
            </Position>
            <AltitudeMeters>-33.799999237060546875</AltitudeMeters>
            <DistanceMeters>NAN</DistanceMeters>
          </Trackpoint>
          <Trackpoint>
            <Time>2019-10-10T13:12:03.000Z</Time>
            <Position>
              <LatitudeDegrees>37.485188953578472137451171875</LatitudeDegrees>
              <LongitudeDegrees>-6.0669876448810100555419921875</LongitudeDegrees>
            </Position>
            <AltitudeMeters>-34</AltitudeMeters>
            <DistanceMeters>NAN</DistanceMeters>
          </Trackpoint>
          <Trackpoint>
            <Time>2019-10-10T13:12:05.000Z</Time>
            <Position>
              <LatitudeDegrees>37.48508024029433727264404296875</LatitudeDegrees>
              <LongitudeDegrees>-6.0668780095875263214111328125</LongitudeDegrees>
            </Position>
            <AltitudeMeters>-34.200000762939453125</AltitudeMeters>
            <DistanceMeters>NAN</DistanceMeters>
          </Trackpoint>
          <Trackpoint>
            <Time>2019-10-10T13:12:07.000Z</Time>
            <Position>
              <LatitudeDegrees>37.4849718622863292694091796875</LatitudeDegrees>
              <LongitudeDegrees>-6.0667723976075649261474609375</LongitudeDegrees>
            </Position>
            <AltitudeMeters>-34.59999847412109375</AltitudeMeters>
            <DistanceMeters>NAN</DistanceMeters>
          </Trackpoint>
          <Trackpoint>
            <Time>2019-10-10T13:12:09.000Z</Time>
            <Position>
              <LatitudeDegrees>37.48486675322055816650390625</LatitudeDegrees>
              <LongitudeDegrees>-6.0666677914559841156005859375</LongitudeDegrees>
            </Position>
            <AltitudeMeters>-35</AltitudeMeters>
            <DistanceMeters>NAN</DistanceMeters>
          </Trackpoint>
          <Trackpoint>
            <Time>2019-10-10T13:12:13.000Z</Time>
            <Position>
              <LatitudeDegrees>37.484670616686344146728515625</LatitudeDegrees>
              <LongitudeDegrees>-6.0664569027721881866455078125</LongitudeDegrees>
            </Position>
            <AltitudeMeters>-34.40000152587890625</AltitudeMeters>
            <DistanceMeters>NAN</DistanceMeters>
          </Trackpoint>
          <Trackpoint>
            <Time>2019-10-10T13:12:16.000Z</Time>
            <Position>
              <LatitudeDegrees>37.484519742429256439208984375</LatitudeDegrees>
              <LongitudeDegrees>-6.06631013564765453338623046875</LongitudeDegrees>
            </Position>
            <AltitudeMeters>-34</AltitudeMeters>
            <DistanceMeters>NAN</DistanceMeters>
          </Trackpoint>
          <Trackpoint>
            <Time>2019-10-10T13:12:22.000Z</Time>
            <Position>
              <LatitudeDegrees>37.48422344215214252471923828125</LatitudeDegrees>
              <LongitudeDegrees>-6.06600922532379627227783203125</LongitudeDegrees>
            </Position>
            <AltitudeMeters>-34.59999847412109375</AltitudeMeters>
            <DistanceMeters>NAN</DistanceMeters>
          </Trackpoint>
          <Trackpoint>
            <Time>2019-10-10T13:12:26.000Z</Time>
            <Position>
              <LatitudeDegrees>37.48401506803929805755615234375</LatitudeDegrees>
              <LongitudeDegrees>-6.065799929201602935791015625</LongitudeDegrees>
            </Position>
            <AltitudeMeters>-35.200000762939453125</AltitudeMeters>
            <DistanceMeters>NAN</DistanceMeters>
          </Trackpoint>
          <Trackpoint>
            <Time>2019-10-10T13:12:31.000Z</Time>
            <Position>
              <LatitudeDegrees>37.4837514571845531463623046875</LatitudeDegrees>
              <LongitudeDegrees>-6.0655312053859233856201171875</LongitudeDegrees>
            </Position>
            <AltitudeMeters>-35.40000152587890625</AltitudeMeters>
            <DistanceMeters>NAN</DistanceMeters>
          </Trackpoint>
          <Trackpoint>
            <Time>2019-10-10T13:12:37.000Z</Time>
            <Position>
              <LatitudeDegrees>37.483430095016956329345703125</LatitudeDegrees>
              <LongitudeDegrees>-6.06520523317158222198486328125</LongitudeDegrees>
            </Position>
            <AltitudeMeters>-36.200000762939453125</AltitudeMeters>
            <DistanceMeters>NAN</DistanceMeters>
          </Trackpoint>
          <Trackpoint>
            <Time>2019-10-10T13:12:39.000Z</Time>
            <Position>
              <LatitudeDegrees>37.483322136104106903076171875</LatitudeDegrees>
              <LongitudeDegrees>-6.0650953464210033416748046875</LongitudeDegrees>
            </Position>
            <AltitudeMeters>-37.200000762939453125</AltitudeMeters>
            <DistanceMeters>NAN</DistanceMeters>
          </Trackpoint>
          <Trackpoint>
            <Time>2019-10-10T13:12:41.000Z</Time>
            <Position>
              <LatitudeDegrees>37.48321308754384517669677734375</LatitudeDegrees>
              <LongitudeDegrees>-6.06498487293720245361328125</LongitudeDegrees>
            </Position>
            <AltitudeMeters>-37.40000152587890625</AltitudeMeters>
            <DistanceMeters>NAN</DistanceMeters>
          </Trackpoint>
          <Trackpoint>
            <Time>2019-10-10T13:12:44.000Z</Time>
            <Position>
              <LatitudeDegrees>37.48305181972682476043701171875</LatitudeDegrees>
              <LongitudeDegrees>-6.0648224316537380218505859375</LongitudeDegrees>
            </Position>
            <AltitudeMeters>-37.40000152587890625</AltitudeMeters>
            <DistanceMeters>NAN</DistanceMeters>
          </Trackpoint>
          <Trackpoint>
            <Time>2019-10-10T13:12:52.000Z</Time>
            <Position>
              <LatitudeDegrees>37.48262585140764713287353515625</LatitudeDegrees>
              <LongitudeDegrees>-6.0644211061298847198486328125</LongitudeDegrees>
            </Position>
            <AltitudeMeters>-37.799999237060546875</AltitudeMeters>
            <DistanceMeters>NAN</DistanceMeters>
          </Trackpoint>
          <Trackpoint>
            <Time>2019-10-10T13:12:59.000Z</Time>
            <Position>
              <LatitudeDegrees>37.48223056085407733917236328125</LatitudeDegrees>
              <LongitudeDegrees>-6.064077280461788177490234375</LongitudeDegrees>
            </Position>
            <AltitudeMeters>-38.200000762939453125</AltitudeMeters>
            <DistanceMeters>NAN</DistanceMeters>
          </Trackpoint>
          <Trackpoint>
            <Time>2019-10-10T13:13:02.000Z</Time>
            <Position>
              <LatitudeDegrees>37.482058815658092498779296875</LatitudeDegrees>
              <LongitudeDegrees>-6.06393688358366489410400390625</LongitudeDegrees>
            </Position>
            <AltitudeMeters>-38.799999237060546875</AltitudeMeters>
            <DistanceMeters>NAN</DistanceMeters>
          </Trackpoint>
          <Trackpoint>
            <Time>2019-10-10T13:13:11.000Z</Time>
            <Position>
              <LatitudeDegrees>37.4815678037703037261962890625</LatitudeDegrees>
              <LongitudeDegrees>-6.063552238047122955322265625</LongitudeDegrees>
            </Position>
            <AltitudeMeters>-37.200000762939453125</AltitudeMeters>
            <DistanceMeters>NAN</DistanceMeters>
          </Trackpoint>
          <Trackpoint>
            <Time>2019-10-10T13:13:12.000Z</Time>
            <Position>
              <LatitudeDegrees>37.48151709325611591339111328125</LatitudeDegrees>
              <LongitudeDegrees>-6.063513346016407012939453125</LongitudeDegrees>
            </Position>
            <AltitudeMeters>-36.799999237060546875</AltitudeMeters>
            <DistanceMeters>NAN</DistanceMeters>
          </Trackpoint>
          <Trackpoint>
            <Time>2019-10-10T13:13:17.000Z</Time>
            <Position>
              <LatitudeDegrees>37.48129631392657756805419921875</LatitudeDegrees>
              <LongitudeDegrees>-6.0633413493633270263671875</LongitudeDegrees>
            </Position>
            <AltitudeMeters>-35.799999237060546875</AltitudeMeters>
            <DistanceMeters>NAN</DistanceMeters>
          </Trackpoint>
          <Trackpoint>
            <Time>2019-10-10T13:13:19.000Z</Time>
            <Position>
              <LatitudeDegrees>37.48121618293225765228271484375</LatitudeDegrees>
              <LongitudeDegrees>-6.06328024528920650482177734375</LongitudeDegrees>
            </Position>
            <AltitudeMeters>-35.40000152587890625</AltitudeMeters>
            <DistanceMeters>NAN</DistanceMeters>
          </Trackpoint>
          <Trackpoint>
            <Time>2019-10-10T13:13:21.000Z</Time>
            <Position>
              <LatitudeDegrees>37.481141500174999237060546875</LatitudeDegrees>
              <LongitudeDegrees>-6.0632178001105785369873046875</LongitudeDegrees>
            </Position>
            <AltitudeMeters>-34.59999847412109375</AltitudeMeters>
            <DistanceMeters>NAN</DistanceMeters>
          </Trackpoint>
          <Trackpoint>
            <Time>2019-10-10T13:13:26.000Z</Time>
            <Position>
              <LatitudeDegrees>37.48096548020839691162109375</LatitudeDegrees>
              <LongitudeDegrees>-6.06307807378470897674560546875</LongitudeDegrees>
            </Position>
            <AltitudeMeters>-34.59999847412109375</AltitudeMeters>
            <DistanceMeters>NAN</DistanceMeters>
          </Trackpoint>
          <Trackpoint>
            <Time>2019-10-10T13:13:31.000Z</Time>
            <Position>
              <LatitudeDegrees>37.48079474084079265594482421875</LatitudeDegrees>
              <LongitudeDegrees>-6.0629509203135967254638671875</LongitudeDegrees>
            </Position>
            <AltitudeMeters>-33.799999237060546875</AltitudeMeters>
            <DistanceMeters>NAN</DistanceMeters>
          </Trackpoint>
          <Trackpoint>
            <Time>2019-10-10T13:13:33.000Z</Time>
            <Position>
              <LatitudeDegrees>37.48073271475732326507568359375</LatitudeDegrees>
              <LongitudeDegrees>-6.0628907382488250732421875</LongitudeDegrees>
            </Position>
            <AltitudeMeters>-33.59999847412109375</AltitudeMeters>
            <DistanceMeters>NAN</DistanceMeters>
          </Trackpoint>
          <Trackpoint>
            <Time>2019-10-10T13:13:37.000Z</Time>
            <Position>
              <LatitudeDegrees>37.48060145415365695953369140625</LatitudeDegrees>
              <LongitudeDegrees>-6.0627960227429866790771484375</LongitudeDegrees>
            </Position>
            <AltitudeMeters>-32.799999237060546875</AltitudeMeters>
            <DistanceMeters>NAN</DistanceMeters>
          </Trackpoint>
          <Trackpoint>
            <Time>2019-10-10T13:13:39.000Z</Time>
            <Position>
              <LatitudeDegrees>37.48053641058504581451416015625</LatitudeDegrees>
              <LongitudeDegrees>-6.06274229474365711212158203125</LongitudeDegrees>
            </Position>
            <AltitudeMeters>-32.40000152587890625</AltitudeMeters>
            <DistanceMeters>NAN</DistanceMeters>
          </Trackpoint>
          <Trackpoint>
            <Time>2019-10-10T13:13:40.000Z</Time>
            <Position>
              <LatitudeDegrees>37.48050673864781856536865234375</LatitudeDegrees>
              <LongitudeDegrees>-6.062713377177715301513671875</LongitudeDegrees>
            </Position>
            <AltitudeMeters>-32.200000762939453125</AltitudeMeters>
            <DistanceMeters>NAN</DistanceMeters>
          </Trackpoint>
          <Trackpoint>
            <Time>2019-10-10T13:13:43.000Z</Time>
            <Position>
              <LatitudeDegrees>37.48040883801877498626708984375</LatitudeDegrees>
              <LongitudeDegrees>-6.06263383291661739349365234375</LongitudeDegrees>
            </Position>
            <AltitudeMeters>-31.200000762939453125</AltitudeMeters>
            <DistanceMeters>NAN</DistanceMeters>
          </Trackpoint>
          <Trackpoint>
            <Time>2019-10-10T13:13:45.000Z</Time>
            <Position>
              <LatitudeDegrees>37.480339519679546356201171875</LatitudeDegrees>
              <LongitudeDegrees>-6.06258253566920757293701171875</LongitudeDegrees>
            </Position>
            <AltitudeMeters>-32.200000762939453125</AltitudeMeters>
            <DistanceMeters>NAN</DistanceMeters>
          </Trackpoint>
          <Trackpoint>
            <Time>2019-10-10T13:13:49.000Z</Time>
            <Position>
              <LatitudeDegrees>37.4802008830010890960693359375</LatitudeDegrees>
              <LongitudeDegrees>-6.062478683888912200927734375</LongitudeDegrees>
            </Position>
            <AltitudeMeters>-31.6000003814697265625</AltitudeMeters>
            <DistanceMeters>NAN</DistanceMeters>
          </Trackpoint>
          <Trackpoint>
            <Time>2019-10-10T13:13:55.000Z</Time>
            <Position>
              <LatitudeDegrees>37.479995191097259521484375</LatitudeDegrees>
              <LongitudeDegrees>-6.06231297366321086883544921875</LongitudeDegrees>
            </Position>
            <AltitudeMeters>-31.6000003814697265625</AltitudeMeters>
            <DistanceMeters>NAN</DistanceMeters>
          </Trackpoint>
          <Trackpoint>
            <Time>2019-10-10T13:13:57.000Z</Time>
            <Position>
              <LatitudeDegrees>37.47992000542581081390380859375</LatitudeDegrees>
              <LongitudeDegrees>-6.06225681491196155548095703125</LongitudeDegrees>
            </Position>
            <AltitudeMeters>-31.3999996185302734375</AltitudeMeters>
            <DistanceMeters>NAN</DistanceMeters>
          </Trackpoint>
          <Trackpoint>
            <Time>2019-10-10T13:13:58.000Z</Time>
            <Position>
              <LatitudeDegrees>37.4798800237476825714111328125</LatitudeDegrees>
              <LongitudeDegrees>-6.06222831644117832183837890625</LongitudeDegrees>
            </Position>
            <AltitudeMeters>-31.799999237060546875</AltitudeMeters>
            <DistanceMeters>NAN</DistanceMeters>
          </Trackpoint>
          <Trackpoint>
            <Time>2019-10-10T13:14:03.000Z</Time>
            <Position>
              <LatitudeDegrees>37.47967961244285106658935546875</LatitudeDegrees>
              <LongitudeDegrees>-6.06207626871764659881591796875</LongitudeDegrees>
            </Position>
            <AltitudeMeters>-33.40000152587890625</AltitudeMeters>
            <DistanceMeters>NAN</DistanceMeters>
          </Trackpoint>
          <Trackpoint>
            <Time>2019-10-10T13:14:06.000Z</Time>
            <Position>
              <LatitudeDegrees>37.47954902239143848419189453125</LatitudeDegrees>
              <LongitudeDegrees>-6.0619702376425266265869140625</LongitudeDegrees>
            </Position>
            <AltitudeMeters>-33.200000762939453125</AltitudeMeters>
            <DistanceMeters>NAN</DistanceMeters>
          </Trackpoint>
          <Trackpoint>
            <Time>2019-10-10T13:14:12.000Z</Time>
            <Position>
              <LatitudeDegrees>37.47926470823585987091064453125</LatitudeDegrees>
              <LongitudeDegrees>-6.06175557710230350494384765625</LongitudeDegrees>
            </Position>
            <AltitudeMeters>-34.40000152587890625</AltitudeMeters>
            <DistanceMeters>NAN</DistanceMeters>
          </Trackpoint>
          <Trackpoint>
            <Time>2019-10-10T13:14:16.000Z</Time>
            <Position>
              <LatitudeDegrees>37.47907175682485103607177734375</LatitudeDegrees>
              <LongitudeDegrees>-6.06161040253937244415283203125</LongitudeDegrees>
            </Position>
            <AltitudeMeters>-34.59999847412109375</AltitudeMeters>
            <DistanceMeters>NAN</DistanceMeters>
          </Trackpoint>
          <Trackpoint>
            <Time>2019-10-10T13:14:20.000Z</Time>
            <Position>
              <LatitudeDegrees>37.478880397975444793701171875</LatitudeDegrees>
              <LongitudeDegrees>-6.0614579357206821441650390625</LongitudeDegrees>
            </Position>
            <AltitudeMeters>-34.59999847412109375</AltitudeMeters>
            <DistanceMeters>NAN</DistanceMeters>
          </Trackpoint>
          <Trackpoint>
            <Time>2019-10-10T13:14:22.000Z</Time>
            <Position>
              <LatitudeDegrees>37.4787823297083377838134765625</LatitudeDegrees>
              <LongitudeDegrees>-6.0613851808011531829833984375</LongitudeDegrees>
            </Position>
            <AltitudeMeters>-35.59999847412109375</AltitudeMeters>
            <DistanceMeters>NAN</DistanceMeters>
          </Trackpoint>
          <Trackpoint>
            <Time>2019-10-10T13:14:26.000Z</Time>
            <Position>
              <LatitudeDegrees>37.47859197668731212615966796875</LatitudeDegrees>
              <LongitudeDegrees>-6.061244867742061614990234375</LongitudeDegrees>
            </Position>
            <AltitudeMeters>-35.200000762939453125</AltitudeMeters>
            <DistanceMeters>NAN</DistanceMeters>
          </Trackpoint>
          <Trackpoint>
            <Time>2019-10-10T13:14:30.000Z</Time>
            <Position>
              <LatitudeDegrees>37.4784158729016780853271484375</LatitudeDegrees>
              <LongitudeDegrees>-6.06111335568130016326904296875</LongitudeDegrees>
            </Position>
            <AltitudeMeters>-34.40000152587890625</AltitudeMeters>
            <DistanceMeters>NAN</DistanceMeters>
          </Trackpoint>
          <Trackpoint>
            <Time>2019-10-10T13:14:33.000Z</Time>
            <Position>
              <LatitudeDegrees>37.47830330394208431243896484375</LatitudeDegrees>
              <LongitudeDegrees>-6.061020232737064361572265625</LongitudeDegrees>
            </Position>
            <AltitudeMeters>-34.200000762939453125</AltitudeMeters>
            <DistanceMeters>NAN</DistanceMeters>
          </Trackpoint>
          <Trackpoint>
            <Time>2019-10-10T13:14:36.000Z</Time>
            <Position>
              <LatitudeDegrees>37.47819081880152225494384765625</LatitudeDegrees>
              <LongitudeDegrees>-6.060937754809856414794921875</LongitudeDegrees>
            </Position>
            <AltitudeMeters>-33.40000152587890625</AltitudeMeters>
            <DistanceMeters>NAN</DistanceMeters>
          </Trackpoint>
          <Trackpoint>
            <Time>2019-10-10T13:14:39.000Z</Time>
            <Position>
              <LatitudeDegrees>37.47808503918349742889404296875</LatitudeDegrees>
              <LongitudeDegrees>-6.06085452251136302947998046875</LongitudeDegrees>
            </Position>
            <AltitudeMeters>-32.200000762939453125</AltitudeMeters>
            <DistanceMeters>NAN</DistanceMeters>
          </Trackpoint>
          <Trackpoint>
            <Time>2019-10-10T13:14:42.000Z</Time>
            <Position>
              <LatitudeDegrees>37.477977164089679718017578125</LatitudeDegrees>
              <LongitudeDegrees>-6.0607744753360748291015625</LongitudeDegrees>
            </Position>
            <AltitudeMeters>-31.3999996185302734375</AltitudeMeters>
            <DistanceMeters>NAN</DistanceMeters>
          </Trackpoint>
          <Trackpoint>
            <Time>2019-10-10T13:14:44.000Z</Time>
            <Position>
              <LatitudeDegrees>37.47790700756013393402099609375</LatitudeDegrees>
              <LongitudeDegrees>-6.0607243515551090240478515625</LongitudeDegrees>
            </Position>
            <AltitudeMeters>-31.200000762939453125</AltitudeMeters>
            <DistanceMeters>NAN</DistanceMeters>
          </Trackpoint>
          <Trackpoint>
            <Time>2019-10-10T13:14:49.000Z</Time>
            <Position>
              <LatitudeDegrees>37.4777396209537982940673828125</LatitudeDegrees>
              <LongitudeDegrees>-6.06059677898883819580078125</LongitudeDegrees>
            </Position>
            <AltitudeMeters>-30.799999237060546875</AltitudeMeters>
            <DistanceMeters>NAN</DistanceMeters>
          </Trackpoint>
          <Trackpoint>
            <Time>2019-10-10T13:14:50.000Z</Time>
            <Position>
              <LatitudeDegrees>37.47770659625530242919921875</LatitudeDegrees>
              <LongitudeDegrees>-6.0605754889547824859619140625</LongitudeDegrees>
            </Position>
            <AltitudeMeters>-30.3999996185302734375</AltitudeMeters>
            <DistanceMeters>NAN</DistanceMeters>
          </Trackpoint>
          <Trackpoint>
            <Time>2019-10-10T13:14:52.000Z</Time>
            <Position>
              <LatitudeDegrees>37.47764289379119873046875</LatitudeDegrees>
              <LongitudeDegrees>-6.06052972376346588134765625</LongitudeDegrees>
            </Position>
            <AltitudeMeters>-30</AltitudeMeters>
            <DistanceMeters>NAN</DistanceMeters>
          </Trackpoint>
          <Trackpoint>
            <Time>2019-10-10T13:14:55.000Z</Time>
            <Position>
              <LatitudeDegrees>37.47754457406699657440185546875</LatitudeDegrees>
              <LongitudeDegrees>-6.06046174652874469757080078125</LongitudeDegrees>
            </Position>
            <AltitudeMeters>-29.6000003814697265625</AltitudeMeters>
            <DistanceMeters>NAN</DistanceMeters>
          </Trackpoint>
          <Trackpoint>
            <Time>2019-10-10T13:14:57.000Z</Time>
            <Position>
              <LatitudeDegrees>37.47747483663260936737060546875</LatitudeDegrees>
              <LongitudeDegrees>-6.06041732244193553924560546875</LongitudeDegrees>
            </Position>
            <AltitudeMeters>-29</AltitudeMeters>
            <DistanceMeters>NAN</DistanceMeters>
          </Trackpoint>
          <Trackpoint>
            <Time>2019-10-10T13:14:59.000Z</Time>
            <Position>
              <LatitudeDegrees>37.4773989804089069366455078125</LatitudeDegrees>
              <LongitudeDegrees>-6.06036351062357425689697265625</LongitudeDegrees>
            </Position>
            <AltitudeMeters>-29.200000762939453125</AltitudeMeters>
            <DistanceMeters>NAN</DistanceMeters>
          </Trackpoint>
          <Trackpoint>
            <Time>2019-10-10T13:15:08.000Z</Time>
            <Position>
              <LatitudeDegrees>37.47705347836017608642578125</LatitudeDegrees>
              <LongitudeDegrees>-6.060126721858978271484375</LongitudeDegrees>
            </Position>
            <AltitudeMeters>-28.799999237060546875</AltitudeMeters>
            <DistanceMeters>NAN</DistanceMeters>
          </Trackpoint>
          <Trackpoint>
            <Time>2019-10-10T13:15:13.000Z</Time>
            <Position>
              <LatitudeDegrees>37.4768588505685329437255859375</LatitudeDegrees>
              <LongitudeDegrees>-6.0599890910089015960693359375</LongitudeDegrees>
            </Position>
            <AltitudeMeters>-30.200000762939453125</AltitudeMeters>
            <DistanceMeters>NAN</DistanceMeters>
          </Trackpoint>
          <Trackpoint>
            <Time>2019-10-10T13:15:17.000Z</Time>
            <Position>
              <LatitudeDegrees>37.476690709590911865234375</LatitudeDegrees>
              <LongitudeDegrees>-6.059876270592212677001953125</LongitudeDegrees>
            </Position>
            <AltitudeMeters>-29.6000003814697265625</AltitudeMeters>
            <DistanceMeters>NAN</DistanceMeters>
          </Trackpoint>
          <Trackpoint>
            <Time>2019-10-10T13:15:25.000Z</Time>
            <Position>
              <LatitudeDegrees>37.47631452977657318115234375</LatitudeDegrees>
              <LongitudeDegrees>-6.05961601249873638153076171875</LongitudeDegrees>
            </Position>
            <AltitudeMeters>-30.200000762939453125</AltitudeMeters>
            <DistanceMeters>NAN</DistanceMeters>
          </Trackpoint>
          <Trackpoint>
            <Time>2019-10-10T13:15:30.000Z</Time>
            <Position>
              <LatitudeDegrees>37.476063407957553863525390625</LatitudeDegrees>
              <LongitudeDegrees>-6.05944083072245121002197265625</LongitudeDegrees>
            </Position>
            <AltitudeMeters>-31.200000762939453125</AltitudeMeters>
            <DistanceMeters>NAN</DistanceMeters>
          </Trackpoint>
          <Trackpoint>
            <Time>2019-10-10T13:15:33.000Z</Time>
            <Position>
              <LatitudeDegrees>37.47591295279562473297119140625</LatitudeDegrees>
              <LongitudeDegrees>-6.0593346320092678070068359375</LongitudeDegrees>
            </Position>
            <AltitudeMeters>-31.799999237060546875</AltitudeMeters>
            <DistanceMeters>NAN</DistanceMeters>
          </Trackpoint>
          <Trackpoint>
            <Time>2019-10-10T13:15:38.000Z</Time>
            <Position>
              <LatitudeDegrees>37.4756513535976409912109375</LatitudeDegrees>
              <LongitudeDegrees>-6.05915131978690624237060546875</LongitudeDegrees>
            </Position>
            <AltitudeMeters>-31.6000003814697265625</AltitudeMeters>
            <DistanceMeters>NAN</DistanceMeters>
          </Trackpoint>
          <Trackpoint>
            <Time>2019-10-10T13:15:43.000Z</Time>
            <Position>
              <LatitudeDegrees>37.47537952847778797149658203125</LatitudeDegrees>
              <LongitudeDegrees>-6.05896792374551296234130859375</LongitudeDegrees>
            </Position>
            <AltitudeMeters>-32.40000152587890625</AltitudeMeters>
            <DistanceMeters>NAN</DistanceMeters>
          </Trackpoint>
          <Trackpoint>
            <Time>2019-10-10T13:15:49.000Z</Time>
            <Position>
              <LatitudeDegrees>37.475047521293163299560546875</LatitudeDegrees>
              <LongitudeDegrees>-6.05874513275921344757080078125</LongitudeDegrees>
            </Position>
            <AltitudeMeters>-32.40000152587890625</AltitudeMeters>
            <DistanceMeters>NAN</DistanceMeters>
          </Trackpoint>
          <Trackpoint>
            <Time>2019-10-10T13:15:54.000Z</Time>
            <Position>
              <LatitudeDegrees>37.4747620336711406707763671875</LatitudeDegrees>
              <LongitudeDegrees>-6.0585665144026279449462890625</LongitudeDegrees>
            </Position>
            <AltitudeMeters>-33.59999847412109375</AltitudeMeters>
            <DistanceMeters>NAN</DistanceMeters>
          </Trackpoint>
          <Trackpoint>
            <Time>2019-10-10T13:15:55.000Z</Time>
            <Position>
              <LatitudeDegrees>37.4747053720057010650634765625</LatitudeDegrees>
              <LongitudeDegrees>-6.058531142771244049072265625</LongitudeDegrees>
            </Position>
            <AltitudeMeters>-33.59999847412109375</AltitudeMeters>
            <DistanceMeters>NAN</DistanceMeters>
          </Trackpoint>
          <Trackpoint>
            <Time>2019-10-10T13:16:00.000Z</Time>
            <Position>
              <LatitudeDegrees>37.47441560961306095123291015625</LatitudeDegrees>
              <LongitudeDegrees>-6.05835922993719577789306640625</LongitudeDegrees>
            </Position>
            <AltitudeMeters>-34</AltitudeMeters>
            <DistanceMeters>NAN</DistanceMeters>
          </Trackpoint>
          <Trackpoint>
            <Time>2019-10-10T13:16:05.000Z</Time>
            <Position>
              <LatitudeDegrees>37.4741224944591522216796875</LatitudeDegrees>
              <LongitudeDegrees>-6.058190502226352691650390625</LongitudeDegrees>
            </Position>
            <AltitudeMeters>-34.200000762939453125</AltitudeMeters>
            <DistanceMeters>NAN</DistanceMeters>
          </Trackpoint>
          <Trackpoint>
            <Time>2019-10-10T13:16:10.000Z</Time>
            <Position>
              <LatitudeDegrees>37.47381948865950107574462890625</LatitudeDegrees>
              <LongitudeDegrees>-6.0580297373235225677490234375</LongitudeDegrees>
            </Position>
            <AltitudeMeters>-34.40000152587890625</AltitudeMeters>
            <DistanceMeters>NAN</DistanceMeters>
          </Trackpoint>
          <Trackpoint>
            <Time>2019-10-10T13:16:15.000Z</Time>
            <Position>
              <LatitudeDegrees>37.473511956632137298583984375</LatitudeDegrees>
              <LongitudeDegrees>-6.0578802041709423065185546875</LongitudeDegrees>
            </Position>
            <AltitudeMeters>-34.40000152587890625</AltitudeMeters>
            <DistanceMeters>NAN</DistanceMeters>
          </Trackpoint>
          <Trackpoint>
            <Time>2019-10-10T13:16:19.000Z</Time>
            <Position>
              <LatitudeDegrees>37.4732633493840694427490234375</LatitudeDegrees>
              <LongitudeDegrees>-6.0577645339071750640869140625</LongitudeDegrees>
            </Position>
            <AltitudeMeters>-34.799999237060546875</AltitudeMeters>
            <DistanceMeters>NAN</DistanceMeters>
          </Trackpoint>
          <Trackpoint>
            <Time>2019-10-10T13:16:23.000Z</Time>
            <Position>
              <LatitudeDegrees>37.47300325892865657806396484375</LatitudeDegrees>
              <LongitudeDegrees>-6.05765230022370815277099609375</LongitudeDegrees>
            </Position>
            <AltitudeMeters>-35.799999237060546875</AltitudeMeters>
            <DistanceMeters>NAN</DistanceMeters>
          </Trackpoint>
          <Trackpoint>
            <Time>2019-10-10T13:16:31.000Z</Time>
            <Position>
              <LatitudeDegrees>37.47248232364654541015625</LatitudeDegrees>
              <LongitudeDegrees>-6.05744828470051288604736328125</LongitudeDegrees>
            </Position>
            <AltitudeMeters>-37</AltitudeMeters>
            <DistanceMeters>NAN</DistanceMeters>
          </Trackpoint>
          <Trackpoint>
            <Time>2019-10-10T13:16:32.000Z</Time>
            <Position>
              <LatitudeDegrees>37.4724166095256805419921875</LatitudeDegrees>
              <LongitudeDegrees>-6.05742481537163257598876953125</LongitudeDegrees>
            </Position>
            <AltitudeMeters>-37</AltitudeMeters>
            <DistanceMeters>NAN</DistanceMeters>
          </Trackpoint>
          <Trackpoint>
            <Time>2019-10-10T13:16:33.000Z</Time>
            <Position>
              <LatitudeDegrees>37.47235148213803768157958984375</LatitudeDegrees>
              <LongitudeDegrees>-6.05740168131887912750244140625</LongitudeDegrees>
            </Position>
            <AltitudeMeters>-37</AltitudeMeters>
            <DistanceMeters>NAN</DistanceMeters>
          </Trackpoint>
          <Trackpoint>
            <Time>2019-10-10T13:16:41.000Z</Time>
            <Position>
              <LatitudeDegrees>37.47183666564524173736572265625</LatitudeDegrees>
              <LongitudeDegrees>-6.057231612503528594970703125</LongitudeDegrees>
            </Position>
            <AltitudeMeters>-37.799999237060546875</AltitudeMeters>
            <DistanceMeters>NAN</DistanceMeters>
          </Trackpoint>
          <Trackpoint>
            <Time>2019-10-10T13:16:42.000Z</Time>
            <Position>
              <LatitudeDegrees>37.47177111916244029998779296875</LatitudeDegrees>
              <LongitudeDegrees>-6.05720805935561656951904296875</LongitudeDegrees>
            </Position>
            <AltitudeMeters>-37.799999237060546875</AltitudeMeters>
            <DistanceMeters>NAN</DistanceMeters>
          </Trackpoint>
          <Trackpoint>
            <Time>2019-10-10T13:16:43.000Z</Time>
            <Position>
              <LatitudeDegrees>37.4717043153941631317138671875</LatitudeDegrees>
              <LongitudeDegrees>-6.0571878589689731597900390625</LongitudeDegrees>
            </Position>
            <AltitudeMeters>-38.200000762939453125</AltitudeMeters>
            <DistanceMeters>NAN</DistanceMeters>
          </Trackpoint>
          <Trackpoint>
            <Time>2019-10-10T13:16:47.000Z</Time>
            <Position>
              <LatitudeDegrees>37.47143156826496124267578125</LatitudeDegrees>
              <LongitudeDegrees>-6.057102866470813751220703125</LongitudeDegrees>
            </Position>
            <AltitudeMeters>-39.799999237060546875</AltitudeMeters>
            <DistanceMeters>NAN</DistanceMeters>
          </Trackpoint>
          <Trackpoint>
            <Time>2019-10-10T13:16:50.000Z</Time>
            <Position>
              <LatitudeDegrees>37.4712248705327510833740234375</LatitudeDegrees>
              <LongitudeDegrees>-6.05704142712056636810302734375</LongitudeDegrees>
            </Position>
            <AltitudeMeters>-41</AltitudeMeters>
            <DistanceMeters>NAN</DistanceMeters>
          </Trackpoint>
          <Trackpoint>
            <Time>2019-10-10T13:16:52.000Z</Time>
            <Position>
              <LatitudeDegrees>37.4710862338542938232421875</LatitudeDegrees>
              <LongitudeDegrees>-6.05699951760470867156982421875</LongitudeDegrees>
            </Position>
            <AltitudeMeters>-41.40000152587890625</AltitudeMeters>
            <DistanceMeters>NAN</DistanceMeters>
          </Trackpoint>
          <Trackpoint>
            <Time>2019-10-10T13:16:55.000Z</Time>
            <Position>
              <LatitudeDegrees>37.47088096104562282562255859375</LatitudeDegrees>
              <LongitudeDegrees>-6.05693916790187358856201171875</LongitudeDegrees>
            </Position>
            <AltitudeMeters>-42</AltitudeMeters>
            <DistanceMeters>NAN</DistanceMeters>
          </Trackpoint>
          <Trackpoint>
            <Time>2019-10-10T13:17:01.000Z</Time>
            <Position>
              <LatitudeDegrees>37.47045968659222126007080078125</LatitudeDegrees>
              <LongitudeDegrees>-6.05682165361940860748291015625</LongitudeDegrees>
            </Position>
            <AltitudeMeters>-43.40000152587890625</AltitudeMeters>
            <DistanceMeters>NAN</DistanceMeters>
          </Trackpoint>
          <Trackpoint>
            <Time>2019-10-10T13:17:04.000Z</Time>
            <Position>
              <LatitudeDegrees>37.47024427168071269989013671875</LatitudeDegrees>
              <LongitudeDegrees>-6.05677194893360137939453125</LongitudeDegrees>
            </Position>
            <AltitudeMeters>-44.40000152587890625</AltitudeMeters>
            <DistanceMeters>NAN</DistanceMeters>
          </Trackpoint>
          <Trackpoint>
            <Time>2019-10-10T13:17:12.000Z</Time>
            <Position>
              <LatitudeDegrees>37.46968704275786876678466796875</LatitudeDegrees>
              <LongitudeDegrees>-6.05661763809621334075927734375</LongitudeDegrees>
            </Position>
            <AltitudeMeters>-44.59999847412109375</AltitudeMeters>
            <DistanceMeters>NAN</DistanceMeters>
          </Trackpoint>
          <Trackpoint>
            <Time>2019-10-10T13:17:14.000Z</Time>
            <Position>
              <LatitudeDegrees>37.4695501662790775299072265625</LatitudeDegrees>
              <LongitudeDegrees>-6.0565803386270999908447265625</LongitudeDegrees>
            </Position>
            <AltitudeMeters>-44.200000762939453125</AltitudeMeters>
            <DistanceMeters>NAN</DistanceMeters>
          </Trackpoint>
          <Trackpoint>
            <Time>2019-10-10T13:17:19.000Z</Time>
            <Position>
              <LatitudeDegrees>37.46922117657959461212158203125</LatitudeDegrees>
              <LongitudeDegrees>-6.05648587457835674285888671875</LongitudeDegrees>
            </Position>
            <AltitudeMeters>-44.200000762939453125</AltitudeMeters>
            <DistanceMeters>NAN</DistanceMeters>
          </Trackpoint>
          <Trackpoint>
            <Time>2019-10-10T13:17:22.000Z</Time>
            <Position>
              <LatitudeDegrees>37.4690204299986362457275390625</LatitudeDegrees>
              <LongitudeDegrees>-6.05642284266650676727294921875</LongitudeDegrees>
            </Position>
            <AltitudeMeters>-44.40000152587890625</AltitudeMeters>
            <DistanceMeters>NAN</DistanceMeters>
          </Trackpoint>
          <Trackpoint>
            <Time>2019-10-10T13:17:28.000Z</Time>
            <Position>
              <LatitudeDegrees>37.46861566789448261260986328125</LatitudeDegrees>
              <LongitudeDegrees>-6.0563034005463123321533203125</LongitudeDegrees>
            </Position>
            <AltitudeMeters>-44.799999237060546875</AltitudeMeters>
            <DistanceMeters>NAN</DistanceMeters>
          </Trackpoint>
          <Trackpoint>
            <Time>2019-10-10T13:17:31.000Z</Time>
            <Position>
              <LatitudeDegrees>37.46842003427445888519287109375</LatitudeDegrees>
              <LongitudeDegrees>-6.05624313466250896453857421875</LongitudeDegrees>
            </Position>
            <AltitudeMeters>-45.59999847412109375</AltitudeMeters>
            <DistanceMeters>NAN</DistanceMeters>
          </Trackpoint>
          <Trackpoint>
            <Time>2019-10-10T13:17:37.000Z</Time>
            <Position>
              <LatitudeDegrees>37.46805642731487751007080078125</LatitudeDegrees>
              <LongitudeDegrees>-6.05613785795867443084716796875</LongitudeDegrees>
            </Position>
            <AltitudeMeters>-44</AltitudeMeters>
            <DistanceMeters>NAN</DistanceMeters>
          </Trackpoint>
          <Trackpoint>
            <Time>2019-10-10T13:17:39.000Z</Time>
            <Position>
              <LatitudeDegrees>37.467947043478488922119140625</LatitudeDegrees>
              <LongitudeDegrees>-6.05610064230859279632568359375</LongitudeDegrees>
            </Position>
            <AltitudeMeters>-43.59999847412109375</AltitudeMeters>
            <DistanceMeters>NAN</DistanceMeters>
          </Trackpoint>
          <Trackpoint>
            <Time>2019-10-10T13:17:45.000Z</Time>
            <Position>
              <LatitudeDegrees>37.46764923445880413055419921875</LatitudeDegrees>
              <LongitudeDegrees>-6.055997796356678009033203125</LongitudeDegrees>
            </Position>
            <AltitudeMeters>-42.799999237060546875</AltitudeMeters>
            <DistanceMeters>NAN</DistanceMeters>
          </Trackpoint>
          <Trackpoint>
            <Time>2019-10-10T13:17:48.000Z</Time>
            <Position>
              <LatitudeDegrees>37.4675133638083934783935546875</LatitudeDegrees>
              <LongitudeDegrees>-6.05595530010759830474853515625</LongitudeDegrees>
            </Position>
            <AltitudeMeters>-42.40000152587890625</AltitudeMeters>
            <DistanceMeters>NAN</DistanceMeters>
          </Trackpoint>
          <Trackpoint>
            <Time>2019-10-10T13:17:50.000Z</Time>
            <Position>
              <LatitudeDegrees>37.4674278683960437774658203125</LatitudeDegrees>
              <LongitudeDegrees>-6.05592696927487850189208984375</LongitudeDegrees>
            </Position>
            <AltitudeMeters>-41.799999237060546875</AltitudeMeters>
            <DistanceMeters>NAN</DistanceMeters>
          </Trackpoint>
          <Trackpoint>
            <Time>2019-10-10T13:17:58.000Z</Time>
            <Position>
              <LatitudeDegrees>37.46712000109255313873291015625</LatitudeDegrees>
              <LongitudeDegrees>-6.05581230483949184417724609375</LongitudeDegrees>
            </Position>
            <AltitudeMeters>-40.59999847412109375</AltitudeMeters>
            <DistanceMeters>NAN</DistanceMeters>
          </Trackpoint>
          <Trackpoint>
            <Time>2019-10-10T13:18:04.000Z</Time>
            <Position>
              <LatitudeDegrees>37.46691665612161159515380859375</LatitudeDegrees>
              <LongitudeDegrees>-6.05572764761745929718017578125</LongitudeDegrees>
            </Position>
            <AltitudeMeters>-39.59999847412109375</AltitudeMeters>
            <DistanceMeters>NAN</DistanceMeters>
          </Trackpoint>
          <Trackpoint>
            <Time>2019-10-10T13:18:07.000Z</Time>
            <Position>
              <LatitudeDegrees>37.46681674383580684661865234375</LatitudeDegrees>
              <LongitudeDegrees>-6.05569059960544109344482421875</LongitudeDegrees>
            </Position>
            <AltitudeMeters>-39.200000762939453125</AltitudeMeters>
            <DistanceMeters>NAN</DistanceMeters>
          </Trackpoint>
          <Trackpoint>
            <Time>2019-10-10T13:18:12.000Z</Time>
            <Position>
              <LatitudeDegrees>37.4666563980281352996826171875</LatitudeDegrees>
              <LongitudeDegrees>-6.0556219518184661865234375</LongitudeDegrees>
            </Position>
            <AltitudeMeters>-38.200000762939453125</AltitudeMeters>
            <DistanceMeters>NAN</DistanceMeters>
          </Trackpoint>
          <Trackpoint>
            <Time>2019-10-10T13:18:15.000Z</Time>
            <Position>
              <LatitudeDegrees>37.466562353074550628662109375</LatitudeDegrees>
              <LongitudeDegrees>-6.05558481998741626739501953125</LongitudeDegrees>
            </Position>
            <AltitudeMeters>-37.200000762939453125</AltitudeMeters>
            <DistanceMeters>NAN</DistanceMeters>
          </Trackpoint>
          <Trackpoint>
            <Time>2019-10-10T13:18:18.000Z</Time>
            <Position>
              <LatitudeDegrees>37.46647040359675884246826171875</LatitudeDegrees>
              <LongitudeDegrees>-6.0555423237383365631103515625</LongitudeDegrees>
            </Position>
            <AltitudeMeters>-37</AltitudeMeters>
            <DistanceMeters>NAN</DistanceMeters>
          </Trackpoint>
          <Trackpoint>
            <Time>2019-10-10T13:18:22.000Z</Time>
            <Position>
              <LatitudeDegrees>37.46634568087756633758544921875</LatitudeDegrees>
              <LongitudeDegrees>-6.05549261905252933502197265625</LongitudeDegrees>
            </Position>
            <AltitudeMeters>-35.799999237060546875</AltitudeMeters>
            <DistanceMeters>NAN</DistanceMeters>
          </Trackpoint>
          <Trackpoint>
            <Time>2019-10-10T13:18:25.000Z</Time>
            <Position>
              <LatitudeDegrees>37.4662533961236476898193359375</LatitudeDegrees>
              <LongitudeDegrees>-6.05545741505920886993408203125</LongitudeDegrees>
            </Position>
            <AltitudeMeters>-35.40000152587890625</AltitudeMeters>
            <DistanceMeters>NAN</DistanceMeters>
          </Trackpoint>
          <Trackpoint>
            <Time>2019-10-10T13:18:28.000Z</Time>
            <Position>
              <LatitudeDegrees>37.46616748161613941192626953125</LatitudeDegrees>
              <LongitudeDegrees>-6.05541617609560489654541015625</LongitudeDegrees>
            </Position>
            <AltitudeMeters>-34.59999847412109375</AltitudeMeters>
            <DistanceMeters>NAN</DistanceMeters>
          </Trackpoint>
          <Trackpoint>
            <Time>2019-10-10T13:18:34.000Z</Time>
            <Position>
              <LatitudeDegrees>37.4659861810505390167236328125</LatitudeDegrees>
              <LongitudeDegrees>-6.05533872731029987335205078125</LongitudeDegrees>
            </Position>
            <AltitudeMeters>-34</AltitudeMeters>
            <DistanceMeters>NAN</DistanceMeters>
          </Trackpoint>
          <Trackpoint>
            <Time>2019-10-10T13:18:35.000Z</Time>
            <Position>
              <LatitudeDegrees>37.465958856046199798583984375</LatitudeDegrees>
              <LongitudeDegrees>-6.05532984249293804168701171875</LongitudeDegrees>
            </Position>
            <AltitudeMeters>-33.59999847412109375</AltitudeMeters>
            <DistanceMeters>NAN</DistanceMeters>
          </Trackpoint>
          <Trackpoint>
            <Time>2019-10-10T13:18:39.000Z</Time>
            <Position>
              <LatitudeDegrees>37.4658383242785930633544921875</LatitudeDegrees>
              <LongitudeDegrees>-6.05529078282415866851806640625</LongitudeDegrees>
            </Position>
            <AltitudeMeters>-32.59999847412109375</AltitudeMeters>
            <DistanceMeters>NAN</DistanceMeters>
          </Trackpoint>
          <Trackpoint>
            <Time>2019-10-10T13:18:44.000Z</Time>
            <Position>
              <LatitudeDegrees>37.4656815826892852783203125</LatitudeDegrees>
              <LongitudeDegrees>-6.0552214644849300384521484375</LongitudeDegrees>
            </Position>
            <AltitudeMeters>-31.200000762939453125</AltitudeMeters>
            <DistanceMeters>NAN</DistanceMeters>
          </Trackpoint>
          <Trackpoint>
            <Time>2019-10-10T13:18:53.000Z</Time>
            <Position>
              <LatitudeDegrees>37.4653974361717700958251953125</LatitudeDegrees>
              <LongitudeDegrees>-6.05509246699512004852294921875</LongitudeDegrees>
            </Position>
            <AltitudeMeters>-30</AltitudeMeters>
            <DistanceMeters>NAN</DistanceMeters>
          </Trackpoint>
          <Trackpoint>
            <Time>2019-10-10T13:18:56.000Z</Time>
            <Position>
              <LatitudeDegrees>37.4652978591620922088623046875</LatitudeDegrees>
              <LongitudeDegrees>-6.05505743063986301422119140625</LongitudeDegrees>
            </Position>
            <AltitudeMeters>-30</AltitudeMeters>
            <DistanceMeters>NAN</DistanceMeters>
          </Trackpoint>
          <Trackpoint>
            <Time>2019-10-10T13:19:02.000Z</Time>
            <Position>
              <LatitudeDegrees>37.46509996242821216583251953125</LatitudeDegrees>
              <LongitudeDegrees>-6.05496724136173725128173828125</LongitudeDegrees>
            </Position>
            <AltitudeMeters>-28.799999237060546875</AltitudeMeters>
            <DistanceMeters>NAN</DistanceMeters>
          </Trackpoint>
          <Trackpoint>
            <Time>2019-10-10T13:19:06.000Z</Time>
            <Position>
              <LatitudeDegrees>37.46496149338781833648681640625</LatitudeDegrees>
              <LongitudeDegrees>-6.05490957386791706085205078125</LongitudeDegrees>
            </Position>
            <AltitudeMeters>-28.6000003814697265625</AltitudeMeters>
            <DistanceMeters>NAN</DistanceMeters>
          </Trackpoint>
          <Trackpoint>
            <Time>2019-10-10T13:19:12.000Z</Time>
            <Position>
              <LatitudeDegrees>37.46475378982722759246826171875</LatitudeDegrees>
              <LongitudeDegrees>-6.05482625775039196014404296875</LongitudeDegrees>
            </Position>
            <AltitudeMeters>-27.6000003814697265625</AltitudeMeters>
            <DistanceMeters>NAN</DistanceMeters>
          </Trackpoint>
          <Trackpoint>
            <Time>2019-10-10T13:19:17.000Z</Time>
            <Position>
              <LatitudeDegrees>37.46457877568900585174560546875</LatitudeDegrees>
              <LongitudeDegrees>-6.05475283227860927581787109375</LongitudeDegrees>
            </Position>
            <AltitudeMeters>-27</AltitudeMeters>
            <DistanceMeters>NAN</DistanceMeters>
          </Trackpoint>
          <Trackpoint>
            <Time>2019-10-10T13:19:28.000Z</Time>
            <Position>
              <LatitudeDegrees>37.4641924537718296051025390625</LatitudeDegrees>
              <LongitudeDegrees>-6.05460179038345813751220703125</LongitudeDegrees>
            </Position>
            <AltitudeMeters>-27.6000003814697265625</AltitudeMeters>
            <DistanceMeters>NAN</DistanceMeters>
          </Trackpoint>
          <Trackpoint>
            <Time>2019-10-10T13:19:34.000Z</Time>
            <Position>
              <LatitudeDegrees>37.463974691927433013916015625</LatitudeDegrees>
              <LongitudeDegrees>-6.054505817592144012451171875</LongitudeDegrees>
            </Position>
            <AltitudeMeters>-26.6000003814697265625</AltitudeMeters>
            <DistanceMeters>NAN</DistanceMeters>
          </Trackpoint>
          <Trackpoint>
            <Time>2019-10-10T13:19:36.000Z</Time>
            <Position>
              <LatitudeDegrees>37.4638940580189228057861328125</LatitudeDegrees>
              <LongitudeDegrees>-6.05446734465658664703369140625</LongitudeDegrees>
            </Position>
            <AltitudeMeters>-27.200000762939453125</AltitudeMeters>
            <DistanceMeters>NAN</DistanceMeters>
          </Trackpoint>
          <Trackpoint>
            <Time>2019-10-10T13:19:40.000Z</Time>
            <Position>
              <LatitudeDegrees>37.46372021734714508056640625</LatitudeDegrees>
              <LongitudeDegrees>-6.05439551174640655517578125</LongitudeDegrees>
            </Position>
            <AltitudeMeters>-33.59999847412109375</AltitudeMeters>
            <DistanceMeters>NAN</DistanceMeters>
          </Trackpoint>
          <Trackpoint>
            <Time>2019-10-10T13:19:41.000Z</Time>
            <Position>
              <LatitudeDegrees>37.46367671526968479156494140625</LatitudeDegrees>
              <LongitudeDegrees>-6.05437346734106540679931640625</LongitudeDegrees>
            </Position>
            <AltitudeMeters>-27.799999237060546875</AltitudeMeters>
            <DistanceMeters>NAN</DistanceMeters>
          </Trackpoint>
          <Trackpoint>
            <Time>2019-10-10T13:19:43.000Z</Time>
            <Position>
              <LatitudeDegrees>37.46358719654381275177001953125</LatitudeDegrees>
              <LongitudeDegrees>-6.0543360002338886260986328125</LongitudeDegrees>
            </Position>
            <AltitudeMeters>-28</AltitudeMeters>
            <DistanceMeters>NAN</DistanceMeters>
          </Trackpoint>
          <Trackpoint>
            <Time>2019-10-10T13:19:48.000Z</Time>
            <Position>
              <LatitudeDegrees>37.46334713883697986602783203125</LatitudeDegrees>
              <LongitudeDegrees>-6.054235585033893585205078125</LongitudeDegrees>
            </Position>
            <AltitudeMeters>-29</AltitudeMeters>
            <DistanceMeters>NAN</DistanceMeters>
          </Trackpoint>
          <Trackpoint>
            <Time>2019-10-10T13:19:51.000Z</Time>
            <Position>
              <LatitudeDegrees>37.463188804686069488525390625</LatitudeDegrees>
              <LongitudeDegrees>-6.05417154729366302490234375</LongitudeDegrees>
            </Position>
            <AltitudeMeters>-29.3999996185302734375</AltitudeMeters>
            <DistanceMeters>NAN</DistanceMeters>
          </Trackpoint>
          <Trackpoint>
            <Time>2019-10-10T13:19:56.000Z</Time>
            <Position>
              <LatitudeDegrees>37.462913207709789276123046875</LatitudeDegrees>
              <LongitudeDegrees>-6.054049842059612274169921875</LongitudeDegrees>
            </Position>
            <AltitudeMeters>-30.200000762939453125</AltitudeMeters>
            <DistanceMeters>NAN</DistanceMeters>
          </Trackpoint>
          <Trackpoint>
            <Time>2019-10-10T13:20:00.000Z</Time>
            <Position>
              <LatitudeDegrees>37.462681196630001068115234375</LatitudeDegrees>
              <LongitudeDegrees>-6.05394800193607807159423828125</LongitudeDegrees>
            </Position>
            <AltitudeMeters>-30.6000003814697265625</AltitudeMeters>
            <DistanceMeters>NAN</DistanceMeters>
          </Trackpoint>
          <Trackpoint>
            <Time>2019-10-10T13:20:02.000Z</Time>
            <Position>
              <LatitudeDegrees>37.46256141923367977142333984375</LatitudeDegrees>
              <LongitudeDegrees>-6.0538897477090358734130859375</LongitudeDegrees>
            </Position>
            <AltitudeMeters>-30.799999237060546875</AltitudeMeters>
            <DistanceMeters>NAN</DistanceMeters>
          </Trackpoint>
          <Trackpoint>
            <Time>2019-10-10T13:20:05.000Z</Time>
            <Position>
              <LatitudeDegrees>37.46237911283969879150390625</LatitudeDegrees>
              <LongitudeDegrees>-6.05380886234343051910400390625</LongitudeDegrees>
            </Position>
            <AltitudeMeters>-31</AltitudeMeters>
            <DistanceMeters>NAN</DistanceMeters>
          </Trackpoint>
          <Trackpoint>
            <Time>2019-10-10T13:20:06.000Z</Time>
            <Position>
              <LatitudeDegrees>37.4623169191181659698486328125</LatitudeDegrees>
              <LongitudeDegrees>-6.05378421954810619354248046875</LongitudeDegrees>
            </Position>
            <AltitudeMeters>-31.200000762939453125</AltitudeMeters>
            <DistanceMeters>NAN</DistanceMeters>
          </Trackpoint>
          <Trackpoint>
            <Time>2019-10-10T13:20:11.000Z</Time>
            <Position>
              <LatitudeDegrees>37.46200972236692905426025390625</LatitudeDegrees>
              <LongitudeDegrees>-6.053656898438930511474609375</LongitudeDegrees>
            </Position>
            <AltitudeMeters>-32</AltitudeMeters>
            <DistanceMeters>NAN</DistanceMeters>
          </Trackpoint>
          <Trackpoint>
            <Time>2019-10-10T13:20:12.000Z</Time>
            <Position>
              <LatitudeDegrees>37.46194786392152309417724609375</LatitudeDegrees>
              <LongitudeDegrees>-6.05363384820520877838134765625</LongitudeDegrees>
            </Position>
            <AltitudeMeters>-32.40000152587890625</AltitudeMeters>
            <DistanceMeters>NAN</DistanceMeters>
          </Trackpoint>
          <Trackpoint>
            <Time>2019-10-10T13:20:16.000Z</Time>
            <Position>
              <LatitudeDegrees>37.46169514954090118408203125</LatitudeDegrees>
              <LongitudeDegrees>-6.05353108607232570648193359375</LongitudeDegrees>
            </Position>
            <AltitudeMeters>-32.799999237060546875</AltitudeMeters>
            <DistanceMeters>NAN</DistanceMeters>
          </Trackpoint>
          <Trackpoint>
            <Time>2019-10-10T13:20:20.000Z</Time>
            <Position>
              <LatitudeDegrees>37.46144511736929416656494140625</LatitudeDegrees>
              <LongitudeDegrees>-6.053432263433933258056640625</LongitudeDegrees>
            </Position>
            <AltitudeMeters>-32.59999847412109375</AltitudeMeters>
            <DistanceMeters>NAN</DistanceMeters>
          </Trackpoint>
          <Trackpoint>
            <Time>2019-10-10T13:20:22.000Z</Time>
            <Position>
              <LatitudeDegrees>37.46132341213524341583251953125</LatitudeDegrees>
              <LongitudeDegrees>-6.0533823072910308837890625</LongitudeDegrees>
            </Position>
            <AltitudeMeters>-32.200000762939453125</AltitudeMeters>
            <DistanceMeters>NAN</DistanceMeters>
          </Trackpoint>
          <Trackpoint>
            <Time>2019-10-10T13:20:29.000Z</Time>
            <Position>
              <LatitudeDegrees>37.46086827479302883148193359375</LatitudeDegrees>
              <LongitudeDegrees>-6.0531930439174175262451171875</LongitudeDegrees>
            </Position>
            <AltitudeMeters>-33</AltitudeMeters>
            <DistanceMeters>NAN</DistanceMeters>
          </Trackpoint>
          <Trackpoint>
            <Time>2019-10-10T13:20:30.000Z</Time>
            <Position>
              <LatitudeDegrees>37.460804320871829986572265625</LatitudeDegrees>
              <LongitudeDegrees>-6.05316496454179286956787109375</LongitudeDegrees>
            </Position>
            <AltitudeMeters>-33.40000152587890625</AltitudeMeters>
            <DistanceMeters>NAN</DistanceMeters>
          </Trackpoint>
          <Trackpoint>
            <Time>2019-10-10T13:20:35.000Z</Time>
            <Position>
              <LatitudeDegrees>37.46050349436700344085693359375</LatitudeDegrees>
              <LongitudeDegrees>-6.05300889350473880767822265625</LongitudeDegrees>
            </Position>
            <AltitudeMeters>-34.40000152587890625</AltitudeMeters>
            <DistanceMeters>NAN</DistanceMeters>
          </Trackpoint>
          <Trackpoint>
            <Time>2019-10-10T13:20:40.000Z</Time>
            <Position>
              <LatitudeDegrees>37.46022052131593227386474609375</LatitudeDegrees>
              <LongitudeDegrees>-6.05281057767570018768310546875</LongitudeDegrees>
            </Position>
            <AltitudeMeters>-32.799999237060546875</AltitudeMeters>
            <DistanceMeters>NAN</DistanceMeters>
          </Trackpoint>
          <Trackpoint>
            <Time>2019-10-10T13:20:42.000Z</Time>
            <Position>
              <LatitudeDegrees>37.4601133167743682861328125</LatitudeDegrees>
              <LongitudeDegrees>-6.05272089131176471710205078125</LongitudeDegrees>
            </Position>
            <AltitudeMeters>-33.799999237060546875</AltitudeMeters>
            <DistanceMeters>NAN</DistanceMeters>
          </Trackpoint>
          <Trackpoint>
            <Time>2019-10-10T13:20:43.000Z</Time>
            <Position>
              <LatitudeDegrees>37.46006662957370281219482421875</LatitudeDegrees>
              <LongitudeDegrees>-6.05268015526235103607177734375</LongitudeDegrees>
            </Position>
            <AltitudeMeters>-34</AltitudeMeters>
            <DistanceMeters>NAN</DistanceMeters>
          </Trackpoint>
          <Trackpoint>
            <Time>2019-10-10T13:20:50.000Z</Time>
            <Position>
              <LatitudeDegrees>37.4597430042922496795654296875</LatitudeDegrees>
              <LongitudeDegrees>-6.05232761241495609283447265625</LongitudeDegrees>
            </Position>
            <AltitudeMeters>-33.59999847412109375</AltitudeMeters>
            <DistanceMeters>NAN</DistanceMeters>
          </Trackpoint>
          <Trackpoint>
            <Time>2019-10-10T13:20:57.000Z</Time>
            <Position>
              <LatitudeDegrees>37.4594566784799098968505859375</LatitudeDegrees>
              <LongitudeDegrees>-6.0519126243889331817626953125</LongitudeDegrees>
            </Position>
            <AltitudeMeters>-33.799999237060546875</AltitudeMeters>
            <DistanceMeters>NAN</DistanceMeters>
          </Trackpoint>
          <Trackpoint>
            <Time>2019-10-10T13:21:03.000Z</Time>
            <Position>
              <LatitudeDegrees>37.459231205284595489501953125</LatitudeDegrees>
              <LongitudeDegrees>-6.051543317735195159912109375</LongitudeDegrees>
            </Position>
            <AltitudeMeters>-33.799999237060546875</AltitudeMeters>
            <DistanceMeters>NAN</DistanceMeters>
          </Trackpoint>
          <Trackpoint>
            <Time>2019-10-10T13:21:09.000Z</Time>
            <Position>
              <LatitudeDegrees>37.4590020440518856048583984375</LatitudeDegrees>
              <LongitudeDegrees>-6.05115900747478008270263671875</LongitudeDegrees>
            </Position>
            <AltitudeMeters>-34</AltitudeMeters>
            <DistanceMeters>NAN</DistanceMeters>
          </Trackpoint>
          <Trackpoint>
            <Time>2019-10-10T13:21:18.000Z</Time>
            <Position>
              <LatitudeDegrees>37.45866014622151851654052734375</LatitudeDegrees>
              <LongitudeDegrees>-6.0505896247923374176025390625</LongitudeDegrees>
            </Position>
            <AltitudeMeters>-33.59999847412109375</AltitudeMeters>
            <DistanceMeters>NAN</DistanceMeters>
          </Trackpoint>
          <Trackpoint>
            <Time>2019-10-10T13:21:21.000Z</Time>
            <Position>
              <LatitudeDegrees>37.458544559776782989501953125</LatitudeDegrees>
              <LongitudeDegrees>-6.050398349761962890625</LongitudeDegrees>
            </Position>
            <AltitudeMeters>-35</AltitudeMeters>
            <DistanceMeters>NAN</DistanceMeters>
          </Trackpoint>
          <Trackpoint>
            <Time>2019-10-10T13:21:30.000Z</Time>
            <Position>
              <LatitudeDegrees>37.458191849291324615478515625</LatitudeDegrees>
              <LongitudeDegrees>-6.0498215071856975555419921875</LongitudeDegrees>
            </Position>
            <AltitudeMeters>-35.200000762939453125</AltitudeMeters>
            <DistanceMeters>NAN</DistanceMeters>
          </Trackpoint>
          <Trackpoint>
            <Time>2019-10-10T13:21:32.000Z</Time>
            <Position>
              <LatitudeDegrees>37.45811280794441699981689453125</LatitudeDegrees>
              <LongitudeDegrees>-6.0496853850781917572021484375</LongitudeDegrees>
            </Position>
            <AltitudeMeters>-34.59999847412109375</AltitudeMeters>
            <DistanceMeters>NAN</DistanceMeters>
          </Trackpoint>
          <Trackpoint>
            <Time>2019-10-10T13:21:39.000Z</Time>
            <Position>
              <LatitudeDegrees>37.457830421626567840576171875</LatitudeDegrees>
              <LongitudeDegrees>-6.04922111146152019500732421875</LongitudeDegrees>
            </Position>
            <AltitudeMeters>-35.59999847412109375</AltitudeMeters>
            <DistanceMeters>NAN</DistanceMeters>
          </Trackpoint>
          <Trackpoint>
            <Time>2019-10-10T13:21:40.000Z</Time>
            <Position>
              <LatitudeDegrees>37.45778943412005901336669921875</LatitudeDegrees>
              <LongitudeDegrees>-6.0491556487977504730224609375</LongitudeDegrees>
            </Position>
            <AltitudeMeters>-36</AltitudeMeters>
            <DistanceMeters>NAN</DistanceMeters>
          </Trackpoint>
          <Trackpoint>
            <Time>2019-10-10T13:21:43.000Z</Time>
            <Position>
              <LatitudeDegrees>37.45765976607799530029296875</LatitudeDegrees>
              <LongitudeDegrees>-6.0489585064351558685302734375</LongitudeDegrees>
            </Position>
            <AltitudeMeters>-36.59999847412109375</AltitudeMeters>
            <DistanceMeters>NAN</DistanceMeters>
          </Trackpoint>
          <Trackpoint>
            <Time>2019-10-10T13:21:49.000Z</Time>
            <Position>
              <LatitudeDegrees>37.45736162178218364715576171875</LatitudeDegrees>
              <LongitudeDegrees>-6.04856732301414012908935546875</LongitudeDegrees>
            </Position>
            <AltitudeMeters>-37.200000762939453125</AltitudeMeters>
            <DistanceMeters>NAN</DistanceMeters>
          </Trackpoint>
          <Trackpoint>
            <Time>2019-10-10T13:21:50.000Z</Time>
            <Position>
              <LatitudeDegrees>37.45730864815413951873779296875</LatitudeDegrees>
              <LongitudeDegrees>-6.04850471019744873046875</LongitudeDegrees>
            </Position>
            <AltitudeMeters>-37.59999847412109375</AltitudeMeters>
            <DistanceMeters>NAN</DistanceMeters>
          </Trackpoint>
          <Trackpoint>
            <Time>2019-10-10T13:21:52.000Z</Time>
            <Position>
              <LatitudeDegrees>37.45720018632709980010986328125</LatitudeDegrees>
              <LongitudeDegrees>-6.04838577099144458770751953125</LongitudeDegrees>
            </Position>
            <AltitudeMeters>-38.59999847412109375</AltitudeMeters>
            <DistanceMeters>NAN</DistanceMeters>
          </Trackpoint>
          <Trackpoint>
            <Time>2019-10-10T13:21:54.000Z</Time>
            <Position>
              <LatitudeDegrees>37.45708669535815715789794921875</LatitudeDegrees>
              <LongitudeDegrees>-6.04826205410063266754150390625</LongitudeDegrees>
            </Position>
            <AltitudeMeters>-39.799999237060546875</AltitudeMeters>
            <DistanceMeters>NAN</DistanceMeters>
          </Trackpoint>
          <Trackpoint>
            <Time>2019-10-10T13:21:56.000Z</Time>
            <Position>
              <LatitudeDegrees>37.45696968398988246917724609375</LatitudeDegrees>
              <LongitudeDegrees>-6.04813984595239162445068359375</LongitudeDegrees>
            </Position>
            <AltitudeMeters>-39.59999847412109375</AltitudeMeters>
            <DistanceMeters>NAN</DistanceMeters>
          </Trackpoint>
          <Trackpoint>
            <Time>2019-10-10T13:22:03.000Z</Time>
            <Position>
              <LatitudeDegrees>37.45656718499958515167236328125</LatitudeDegrees>
              <LongitudeDegrees>-6.04773919098079204559326171875</LongitudeDegrees>
            </Position>
            <AltitudeMeters>-40.40000152587890625</AltitudeMeters>
            <DistanceMeters>NAN</DistanceMeters>
          </Trackpoint>
          <Trackpoint>
            <Time>2019-10-10T13:22:05.000Z</Time>
            <Position>
              <LatitudeDegrees>37.45645369403064250946044921875</LatitudeDegrees>
              <LongitudeDegrees>-6.04762854985892772674560546875</LongitudeDegrees>
            </Position>
            <AltitudeMeters>-40.799999237060546875</AltitudeMeters>
            <DistanceMeters>NAN</DistanceMeters>
          </Trackpoint>
          <Trackpoint>
            <Time>2019-10-10T13:22:10.000Z</Time>
            <Position>
              <LatitudeDegrees>37.45616317726671695709228515625</LatitudeDegrees>
              <LongitudeDegrees>-6.04734792374074459075927734375</LongitudeDegrees>
            </Position>
            <AltitudeMeters>-42</AltitudeMeters>
            <DistanceMeters>NAN</DistanceMeters>
          </Trackpoint>
          <Trackpoint>
            <Time>2019-10-10T13:22:12.000Z</Time>
            <Position>
              <LatitudeDegrees>37.45604448951780796051025390625</LatitudeDegrees>
              <LongitudeDegrees>-6.04723275639116764068603515625</LongitudeDegrees>
            </Position>
            <AltitudeMeters>-43</AltitudeMeters>
            <DistanceMeters>NAN</DistanceMeters>
          </Trackpoint>
          <Trackpoint>
            <Time>2019-10-10T13:22:13.000Z</Time>
            <Position>
              <LatitudeDegrees>37.4559827148914337158203125</LatitudeDegrees>
              <LongitudeDegrees>-6.04717475362122058868408203125</LongitudeDegrees>
            </Position>
            <AltitudeMeters>-43.40000152587890625</AltitudeMeters>
            <DistanceMeters>NAN</DistanceMeters>
          </Trackpoint>
          <Trackpoint>
            <Time>2019-10-10T13:22:18.000Z</Time>
            <Position>
              <LatitudeDegrees>37.45569395832717418670654296875</LatitudeDegrees>
              <LongitudeDegrees>-6.04688264429569244384765625</LongitudeDegrees>
            </Position>
            <AltitudeMeters>-44.200000762939453125</AltitudeMeters>
            <DistanceMeters>NAN</DistanceMeters>
          </Trackpoint>
          <Trackpoint>
            <Time>2019-10-10T13:22:20.000Z</Time>
            <Position>
              <LatitudeDegrees>37.45557837188243865966796875</LatitudeDegrees>
              <LongitudeDegrees>-6.04676588438451290130615234375</LongitudeDegrees>
            </Position>
            <AltitudeMeters>-44.799999237060546875</AltitudeMeters>
            <DistanceMeters>NAN</DistanceMeters>
          </Trackpoint>
          <Trackpoint>
            <Time>2019-10-10T13:22:22.000Z</Time>
            <Position>
              <LatitudeDegrees>37.4554595164954662322998046875</LatitudeDegrees>
              <LongitudeDegrees>-6.04664719663560390472412109375</LongitudeDegrees>
            </Position>
            <AltitudeMeters>-45</AltitudeMeters>
            <DistanceMeters>NAN</DistanceMeters>
          </Trackpoint>
          <Trackpoint>
            <Time>2019-10-10T13:22:24.000Z</Time>
            <Position>
              <LatitudeDegrees>37.45532901026308536529541015625</LatitudeDegrees>
              <LongitudeDegrees>-6.04655046947300434112548828125</LongitudeDegrees>
            </Position>
            <AltitudeMeters>-45.40000152587890625</AltitudeMeters>
            <DistanceMeters>NAN</DistanceMeters>
          </Trackpoint>
          <Trackpoint>
            <Time>2019-10-10T13:22:25.000Z</Time>
            <Position>
              <LatitudeDegrees>37.455254495143890380859375</LatitudeDegrees>
              <LongitudeDegrees>-6.04651358909904956817626953125</LongitudeDegrees>
            </Position>
            <AltitudeMeters>-45.799999237060546875</AltitudeMeters>
            <DistanceMeters>NAN</DistanceMeters>
          </Trackpoint>
          <Trackpoint>
            <Time>2019-10-10T13:22:27.000Z</Time>
            <Position>
              <LatitudeDegrees>37.45510655455291271209716796875</LatitudeDegrees>
              <LongitudeDegrees>-6.0464608669281005859375</LongitudeDegrees>
            </Position>
            <AltitudeMeters>-46.200000762939453125</AltitudeMeters>
            <DistanceMeters>NAN</DistanceMeters>
          </Trackpoint>
          <Trackpoint>
            <Time>2019-10-10T13:22:29.000Z</Time>
            <Position>
              <LatitudeDegrees>37.454957105219364166259765625</LatitudeDegrees>
              <LongitudeDegrees>-6.04639314115047454833984375</LongitudeDegrees>
            </Position>
            <AltitudeMeters>-47</AltitudeMeters>
            <DistanceMeters>NAN</DistanceMeters>
          </Trackpoint>
          <Trackpoint>
            <Time>2019-10-10T13:22:30.000Z</Time>
            <Position>
              <LatitudeDegrees>37.45489164255559444427490234375</LatitudeDegrees>
              <LongitudeDegrees>-6.0463388264179229736328125</LongitudeDegrees>
            </Position>
            <AltitudeMeters>-47</AltitudeMeters>
            <DistanceMeters>NAN</DistanceMeters>
          </Trackpoint>
          <Trackpoint>
            <Time>2019-10-10T13:22:31.000Z</Time>
            <Position>
              <LatitudeDegrees>37.4548382498323917388916015625</LatitudeDegrees>
              <LongitudeDegrees>-6.0462648980319499969482421875</LongitudeDegrees>
            </Position>
            <AltitudeMeters>-46.799999237060546875</AltitudeMeters>
            <DistanceMeters>NAN</DistanceMeters>
          </Trackpoint>
          <Trackpoint>
            <Time>2019-10-10T13:22:32.000Z</Time>
            <Position>
              <LatitudeDegrees>37.45480296202003955841064453125</LatitudeDegrees>
              <LongitudeDegrees>-6.0461757145822048187255859375</LongitudeDegrees>
            </Position>
            <AltitudeMeters>-47.200000762939453125</AltitudeMeters>
            <DistanceMeters>NAN</DistanceMeters>
          </Trackpoint>
          <Trackpoint>
            <Time>2019-10-10T13:22:33.000Z</Time>
            <Position>
              <LatitudeDegrees>37.4547752179205417633056640625</LatitudeDegrees>
              <LongitudeDegrees>-6.046079657971858978271484375</LongitudeDegrees>
            </Position>
            <AltitudeMeters>-47</AltitudeMeters>
            <DistanceMeters>NAN</DistanceMeters>
          </Trackpoint>
          <Trackpoint>
            <Time>2019-10-10T13:22:35.000Z</Time>
            <Position>
              <LatitudeDegrees>37.45471394620835781097412109375</LatitudeDegrees>
              <LongitudeDegrees>-6.04590456001460552215576171875</LongitudeDegrees>
            </Position>
            <AltitudeMeters>-47.200000762939453125</AltitudeMeters>
            <DistanceMeters>NAN</DistanceMeters>
          </Trackpoint>
          <Trackpoint>
            <Time>2019-10-10T13:22:37.000Z</Time>
            <Position>
              <LatitudeDegrees>37.4546121060848236083984375</LatitudeDegrees>
              <LongitudeDegrees>-6.04575586505234241485595703125</LongitudeDegrees>
            </Position>
            <AltitudeMeters>-47.200000762939453125</AltitudeMeters>
            <DistanceMeters>NAN</DistanceMeters>
          </Trackpoint>
          <Trackpoint>
            <Time>2019-10-10T13:22:39.000Z</Time>
            <Position>
              <LatitudeDegrees>37.4544852040708065032958984375</LatitudeDegrees>
              <LongitudeDegrees>-6.04561337269842624664306640625</LongitudeDegrees>
            </Position>
            <AltitudeMeters>-47.59999847412109375</AltitudeMeters>
            <DistanceMeters>NAN</DistanceMeters>
          </Trackpoint>
          <Trackpoint>
            <Time>2019-10-10T13:22:40.000Z</Time>
            <Position>
              <LatitudeDegrees>37.45443767867982387542724609375</LatitudeDegrees>
              <LongitudeDegrees>-6.04556567966938018798828125</LongitudeDegrees>
            </Position>
            <AltitudeMeters>-49.40000152587890625</AltitudeMeters>
            <DistanceMeters>NAN</DistanceMeters>
          </Trackpoint>
          <Trackpoint>
            <Time>2019-10-10T13:22:41.000Z</Time>
            <Position>
              <LatitudeDegrees>37.45437883771955966949462890625</LatitudeDegrees>
              <LongitudeDegrees>-6.04550742544233798980712890625</LongitudeDegrees>
            </Position>
            <AltitudeMeters>-47.799999237060546875</AltitudeMeters>
            <DistanceMeters>NAN</DistanceMeters>
          </Trackpoint>
          <Trackpoint>
            <Time>2019-10-10T13:22:45.000Z</Time>
            <Position>
              <LatitudeDegrees>37.45414364151656627655029296875</LatitudeDegrees>
              <LongitudeDegrees>-6.04526636190712451934814453125</LongitudeDegrees>
            </Position>
            <AltitudeMeters>-48.59999847412109375</AltitudeMeters>
            <DistanceMeters>NAN</DistanceMeters>
          </Trackpoint>
          <Trackpoint>
            <Time>2019-10-10T13:22:47.000Z</Time>
            <Position>
              <LatitudeDegrees>37.45403300039470195770263671875</LatitudeDegrees>
              <LongitudeDegrees>-6.045150272548198699951171875</LongitudeDegrees>
            </Position>
            <AltitudeMeters>-48.59999847412109375</AltitudeMeters>
            <DistanceMeters>NAN</DistanceMeters>
          </Trackpoint>
          <Trackpoint>
            <Time>2019-10-10T13:22:48.000Z</Time>
            <Position>
              <LatitudeDegrees>37.4539792723953723907470703125</LatitudeDegrees>
              <LongitudeDegrees>-6.04509226977825164794921875</LongitudeDegrees>
            </Position>
            <AltitudeMeters>-49</AltitudeMeters>
            <DistanceMeters>NAN</DistanceMeters>
          </Trackpoint>
          <Trackpoint>
            <Time>2019-10-10T13:22:51.000Z</Time>
            <Position>
              <LatitudeDegrees>37.45381691493093967437744140625</LatitudeDegrees>
              <LongitudeDegrees>-6.0449174232780933380126953125</LongitudeDegrees>
            </Position>
            <AltitudeMeters>-48.799999237060546875</AltitudeMeters>
            <DistanceMeters>NAN</DistanceMeters>
          </Trackpoint>
          <Trackpoint>
            <Time>2019-10-10T13:22:54.000Z</Time>
            <Position>
              <LatitudeDegrees>37.45365925133228302001953125</LatitudeDegrees>
              <LongitudeDegrees>-6.0447531379759311676025390625</LongitudeDegrees>
            </Position>
            <AltitudeMeters>-48.799999237060546875</AltitudeMeters>
            <DistanceMeters>NAN</DistanceMeters>
          </Trackpoint>
          <Trackpoint>
            <Time>2019-10-10T13:22:59.000Z</Time>
            <Position>
              <LatitudeDegrees>37.4533943831920623779296875</LatitudeDegrees>
              <LongitudeDegrees>-6.04448139667510986328125</LongitudeDegrees>
            </Position>
            <AltitudeMeters>-48.40000152587890625</AltitudeMeters>
            <DistanceMeters>NAN</DistanceMeters>
          </Trackpoint>
          <Trackpoint>
            <Time>2019-10-10T13:23:04.000Z</Time>
            <Position>
              <LatitudeDegrees>37.4531424231827259063720703125</LatitudeDegrees>
              <LongitudeDegrees>-6.04422097094357013702392578125</LongitudeDegrees>
            </Position>
            <AltitudeMeters>-48.40000152587890625</AltitudeMeters>
            <DistanceMeters>NAN</DistanceMeters>
          </Trackpoint>
          <Trackpoint>
            <Time>2019-10-10T13:23:09.000Z</Time>
            <Position>
              <LatitudeDegrees>37.45289557613432407379150390625</LatitudeDegrees>
              <LongitudeDegrees>-6.04397135786712169647216796875</LongitudeDegrees>
            </Position>
            <AltitudeMeters>-48.200000762939453125</AltitudeMeters>
            <DistanceMeters>NAN</DistanceMeters>
          </Trackpoint>
          <Trackpoint>
            <Time>2019-10-10T13:23:11.000Z</Time>
            <Position>
              <LatitudeDegrees>37.45279700495302677154541015625</LatitudeDegrees>
              <LongitudeDegrees>-6.0438747145235538482666015625</LongitudeDegrees>
            </Position>
            <AltitudeMeters>-48</AltitudeMeters>
            <DistanceMeters>NAN</DistanceMeters>
          </Trackpoint>
          <Trackpoint>
            <Time>2019-10-10T13:23:14.000Z</Time>
            <Position>
              <LatitudeDegrees>37.45264546014368534088134765625</LatitudeDegrees>
              <LongitudeDegrees>-6.04372459463775157928466796875</LongitudeDegrees>
            </Position>
            <AltitudeMeters>-48</AltitudeMeters>
            <DistanceMeters>NAN</DistanceMeters>
          </Trackpoint>
          <Trackpoint>
            <Time>2019-10-10T13:23:21.000Z</Time>
            <Position>
              <LatitudeDegrees>37.4522985331714153289794921875</LatitudeDegrees>
              <LongitudeDegrees>-6.0433858819305896759033203125</LongitudeDegrees>
            </Position>
            <AltitudeMeters>-49.200000762939453125</AltitudeMeters>
            <DistanceMeters>NAN</DistanceMeters>
          </Trackpoint>
          <Trackpoint>
            <Time>2019-10-10T13:23:22.000Z</Time>
            <Position>
              <LatitudeDegrees>37.45224866084754467010498046875</LatitudeDegrees>
              <LongitudeDegrees>-6.04334087111055850982666015625</LongitudeDegrees>
            </Position>
            <AltitudeMeters>-49.40000152587890625</AltitudeMeters>
            <DistanceMeters>NAN</DistanceMeters>
          </Trackpoint>
          <Trackpoint>
            <Time>2019-10-10T13:23:26.000Z</Time>
            <Position>
              <LatitudeDegrees>37.45204967446625232696533203125</LatitudeDegrees>
              <LongitudeDegrees>-6.0431577265262603759765625</LongitudeDegrees>
            </Position>
            <AltitudeMeters>-48.200000762939453125</AltitudeMeters>
            <DistanceMeters>NAN</DistanceMeters>
          </Trackpoint>
          <Trackpoint>
            <Time>2019-10-10T13:23:32.000Z</Time>
            <Position>
              <LatitudeDegrees>37.45174842886626720428466796875</LatitudeDegrees>
              <LongitudeDegrees>-6.04289822280406951904296875</LongitudeDegrees>
            </Position>
            <AltitudeMeters>-48.200000762939453125</AltitudeMeters>
            <DistanceMeters>NAN</DistanceMeters>
          </Trackpoint>
          <Trackpoint>
            <Time>2019-10-10T13:23:41.000Z</Time>
            <Position>
              <LatitudeDegrees>37.45128390379250049591064453125</LatitudeDegrees>
              <LongitudeDegrees>-6.0425329394638538360595703125</LongitudeDegrees>
            </Position>
            <AltitudeMeters>-48.59999847412109375</AltitudeMeters>
            <DistanceMeters>NAN</DistanceMeters>
          </Trackpoint>
          <Trackpoint>
            <Time>2019-10-10T13:23:43.000Z</Time>
            <Position>
              <LatitudeDegrees>37.45118214748799800872802734375</LatitudeDegrees>
              <LongitudeDegrees>-6.04245624504983425140380859375</LongitudeDegrees>
            </Position>
            <AltitudeMeters>-48.799999237060546875</AltitudeMeters>
            <DistanceMeters>NAN</DistanceMeters>
          </Trackpoint>
          <Trackpoint>
            <Time>2019-10-10T13:23:52.000Z</Time>
            <Position>
              <LatitudeDegrees>37.4507126770913600921630859375</LatitudeDegrees>
              <LongitudeDegrees>-6.04211744852364063262939453125</LongitudeDegrees>
            </Position>
            <AltitudeMeters>-48.200000762939453125</AltitudeMeters>
            <DistanceMeters>NAN</DistanceMeters>
          </Trackpoint>
          <Trackpoint>
            <Time>2019-10-10T13:23:54.000Z</Time>
            <Position>
              <LatitudeDegrees>37.4506087414920330047607421875</LatitudeDegrees>
              <LongitudeDegrees>-6.04204486124217510223388671875</LongitudeDegrees>
            </Position>
            <AltitudeMeters>-48.40000152587890625</AltitudeMeters>
            <DistanceMeters>NAN</DistanceMeters>
          </Trackpoint>
          <Trackpoint>
            <Time>2019-10-10T13:24:03.000Z</Time>
            <Position>
              <LatitudeDegrees>37.4501175619661808013916015625</LatitudeDegrees>
              <LongitudeDegrees>-6.0417390055954456329345703125</LongitudeDegrees>
            </Position>
            <AltitudeMeters>-48.200000762939453125</AltitudeMeters>
            <DistanceMeters>NAN</DistanceMeters>
          </Trackpoint>
          <Trackpoint>
            <Time>2019-10-10T13:24:05.000Z</Time>
            <Position>
              <LatitudeDegrees>37.4500069208443164825439453125</LatitudeDegrees>
              <LongitudeDegrees>-6.04167186655104160308837890625</LongitudeDegrees>
            </Position>
            <AltitudeMeters>-47.59999847412109375</AltitudeMeters>
            <DistanceMeters>NAN</DistanceMeters>
          </Trackpoint>
          <Trackpoint>
            <Time>2019-10-10T13:24:14.000Z</Time>
            <Position>
              <LatitudeDegrees>37.44950224645435810089111328125</LatitudeDegrees>
              <LongitudeDegrees>-6.0413993708789348602294921875</LongitudeDegrees>
            </Position>
            <AltitudeMeters>-47.799999237060546875</AltitudeMeters>
            <DistanceMeters>NAN</DistanceMeters>
          </Trackpoint>
          <Trackpoint>
            <Time>2019-10-10T13:24:23.000Z</Time>
            <Position>
              <LatitudeDegrees>37.44898893870413303375244140625</LatitudeDegrees>
              <LongitudeDegrees>-6.04114782996475696563720703125</LongitudeDegrees>
            </Position>
            <AltitudeMeters>-47.40000152587890625</AltitudeMeters>
            <DistanceMeters>NAN</DistanceMeters>
          </Trackpoint>
          <Trackpoint>
            <Time>2019-10-10T13:24:26.000Z</Time>
            <Position>
              <LatitudeDegrees>37.448817528784275054931640625</LatitudeDegrees>
              <LongitudeDegrees>-6.041071303188800811767578125</LongitudeDegrees>
            </Position>
            <AltitudeMeters>-48.200000762939453125</AltitudeMeters>
            <DistanceMeters>NAN</DistanceMeters>
          </Trackpoint>
          <Trackpoint>
            <Time>2019-10-10T13:24:35.000Z</Time>
            <Position>
              <LatitudeDegrees>37.44830061681568622589111328125</LatitudeDegrees>
              <LongitudeDegrees>-6.04083719663321971893310546875</LongitudeDegrees>
            </Position>
            <AltitudeMeters>-47.40000152587890625</AltitudeMeters>
            <DistanceMeters>NAN</DistanceMeters>
          </Trackpoint>
          <Trackpoint>
            <Time>2019-10-10T13:24:37.000Z</Time>
            <Position>
              <LatitudeDegrees>37.448184527456760406494140625</LatitudeDegrees>
              <LongitudeDegrees>-6.04078573174774646759033203125</LongitudeDegrees>
            </Position>
            <AltitudeMeters>-47.200000762939453125</AltitudeMeters>
            <DistanceMeters>NAN</DistanceMeters>
          </Trackpoint>
          <Trackpoint>
            <Time>2019-10-10T13:24:40.000Z</Time>
            <Position>
              <LatitudeDegrees>37.44800775311887264251708984375</LatitudeDegrees>
              <LongitudeDegrees>-6.04070291854441165924072265625</LongitudeDegrees>
            </Position>
            <AltitudeMeters>-47.200000762939453125</AltitudeMeters>
            <DistanceMeters>NAN</DistanceMeters>
          </Trackpoint>
          <Trackpoint>
            <Time>2019-10-10T13:24:47.000Z</Time>
            <Position>
              <LatitudeDegrees>37.44758781976997852325439453125</LatitudeDegrees>
              <LongitudeDegrees>-6.040516756474971771240234375</LongitudeDegrees>
            </Position>
            <AltitudeMeters>-47.200000762939453125</AltitudeMeters>
            <DistanceMeters>NAN</DistanceMeters>
          </Trackpoint>
          <Trackpoint>
            <Time>2019-10-10T13:24:56.000Z</Time>
            <Position>
              <LatitudeDegrees>37.44705020450055599212646484375</LatitudeDegrees>
              <LongitudeDegrees>-6.0402694903314113616943359375</LongitudeDegrees>
            </Position>
            <AltitudeMeters>-47.40000152587890625</AltitudeMeters>
            <DistanceMeters>NAN</DistanceMeters>
          </Trackpoint>
          <Trackpoint>
            <Time>2019-10-10T13:24:57.000Z</Time>
            <Position>
              <LatitudeDegrees>37.44699153117835521697998046875</LatitudeDegrees>
              <LongitudeDegrees>-6.04024149477481842041015625</LongitudeDegrees>
            </Position>
            <AltitudeMeters>-47.40000152587890625</AltitudeMeters>
            <DistanceMeters>NAN</DistanceMeters>
          </Trackpoint>
          <Trackpoint>
            <Time>2019-10-10T13:25:06.000Z</Time>
            <Position>
              <LatitudeDegrees>37.44645307771861553192138671875</LatitudeDegrees>
              <LongitudeDegrees>-6.03999682702124118804931640625</LongitudeDegrees>
            </Position>
            <AltitudeMeters>-47.59999847412109375</AltitudeMeters>
            <DistanceMeters>NAN</DistanceMeters>
          </Trackpoint>
          <Trackpoint>
            <Time>2019-10-10T13:25:15.000Z</Time>
            <Position>
              <LatitudeDegrees>37.44591160677373409271240234375</LatitudeDegrees>
              <LongitudeDegrees>-6.03975257836282253265380859375</LongitudeDegrees>
            </Position>
            <AltitudeMeters>-47.799999237060546875</AltitudeMeters>
            <DistanceMeters>NAN</DistanceMeters>
          </Trackpoint>
          <Trackpoint>
            <Time>2019-10-10T13:25:17.000Z</Time>
            <Position>
              <LatitudeDegrees>37.445790655910968780517578125</LatitudeDegrees>
              <LongitudeDegrees>-6.03970010764896869659423828125</LongitudeDegrees>
            </Position>
            <AltitudeMeters>-47.799999237060546875</AltitudeMeters>
            <DistanceMeters>NAN</DistanceMeters>
          </Trackpoint>
          <Trackpoint>
            <Time>2019-10-10T13:25:26.000Z</Time>
            <Position>
              <LatitudeDegrees>37.44525731541216373443603515625</LatitudeDegrees>
              <LongitudeDegrees>-6.03945066221058368682861328125</LongitudeDegrees>
            </Position>
            <AltitudeMeters>-47.59999847412109375</AltitudeMeters>
            <DistanceMeters>NAN</DistanceMeters>
          </Trackpoint>
          <Trackpoint>
            <Time>2019-10-10T13:25:28.000Z</Time>
            <Position>
              <LatitudeDegrees>37.44513778947293758392333984375</LatitudeDegrees>
              <LongitudeDegrees>-6.039395593106746673583984375</LongitudeDegrees>
            </Position>
            <AltitudeMeters>-47.799999237060546875</AltitudeMeters>
            <DistanceMeters>NAN</DistanceMeters>
          </Trackpoint>
          <Trackpoint>
            <Time>2019-10-10T13:25:37.000Z</Time>
            <Position>
              <LatitudeDegrees>37.4446049518883228302001953125</LatitudeDegrees>
              <LongitudeDegrees>-6.03915276937186717987060546875</LongitudeDegrees>
            </Position>
            <AltitudeMeters>-47.799999237060546875</AltitudeMeters>
            <DistanceMeters>NAN</DistanceMeters>
          </Trackpoint>
          <Trackpoint>
            <Time>2019-10-10T13:25:39.000Z</Time>
            <Position>
              <LatitudeDegrees>37.4444865994155406951904296875</LatitudeDegrees>
              <LongitudeDegrees>-6.03909694589674472808837890625</LongitudeDegrees>
            </Position>
            <AltitudeMeters>-47.799999237060546875</AltitudeMeters>
            <DistanceMeters>NAN</DistanceMeters>
          </Trackpoint>
          <Trackpoint>
            <Time>2019-10-10T13:25:48.000Z</Time>
            <Position>
              <LatitudeDegrees>37.443947307765483856201171875</LatitudeDegrees>
              <LongitudeDegrees>-6.03885286487638950347900390625</LongitudeDegrees>
            </Position>
            <AltitudeMeters>-47.59999847412109375</AltitudeMeters>
            <DistanceMeters>NAN</DistanceMeters>
          </Trackpoint>
          <Trackpoint>
            <Time>2019-10-10T13:25:50.000Z</Time>
            <Position>
              <LatitudeDegrees>37.4438287876546382904052734375</LatitudeDegrees>
              <LongitudeDegrees>-6.03880056180059909820556640625</LongitudeDegrees>
            </Position>
            <AltitudeMeters>-47.59999847412109375</AltitudeMeters>
            <DistanceMeters>NAN</DistanceMeters>
          </Trackpoint>
          <Trackpoint>
            <Time>2019-10-10T13:25:59.000Z</Time>
            <Position>
              <LatitudeDegrees>37.44329745881259441375732421875</LatitudeDegrees>
              <LongitudeDegrees>-6.03856167756021022796630859375</LongitudeDegrees>
            </Position>
            <AltitudeMeters>-47.799999237060546875</AltitudeMeters>
            <DistanceMeters>NAN</DistanceMeters>
          </Trackpoint>
          <Trackpoint>
            <Time>2019-10-10T13:26:04.000Z</Time>
            <Position>
              <LatitudeDegrees>37.442997805774211883544921875</LatitudeDegrees>
              <LongitudeDegrees>-6.0384325124323368072509765625</LongitudeDegrees>
            </Position>
            <AltitudeMeters>-47.59999847412109375</AltitudeMeters>
            <DistanceMeters>NAN</DistanceMeters>
          </Trackpoint>
          <Trackpoint>
            <Time>2019-10-10T13:26:08.000Z</Time>
            <Position>
              <LatitudeDegrees>37.4427528865635395050048828125</LatitudeDegrees>
              <LongitudeDegrees>-6.03835129179060459136962890625</LongitudeDegrees>
            </Position>
            <AltitudeMeters>-47.40000152587890625</AltitudeMeters>
            <DistanceMeters>NAN</DistanceMeters>
          </Trackpoint>
          <Trackpoint>
            <Time>2019-10-10T13:26:10.000Z</Time>
            <Position>
              <LatitudeDegrees>37.442624978721141815185546875</LatitudeDegrees>
              <LongitudeDegrees>-6.038368642330169677734375</LongitudeDegrees>
            </Position>
            <AltitudeMeters>-48</AltitudeMeters>
            <DistanceMeters>NAN</DistanceMeters>
          </Trackpoint>
          <Trackpoint>
            <Time>2019-10-10T13:26:14.000Z</Time>
            <Position>
              <LatitudeDegrees>37.442368157207965850830078125</LatitudeDegrees>
              <LongitudeDegrees>-6.03838146664202213287353515625</LongitudeDegrees>
            </Position>
            <AltitudeMeters>-48</AltitudeMeters>
            <DistanceMeters>NAN</DistanceMeters>
          </Trackpoint>
          <Trackpoint>
            <Time>2019-10-10T13:26:17.000Z</Time>
            <Position>
              <LatitudeDegrees>37.442217953503131866455078125</LatitudeDegrees>
              <LongitudeDegrees>-6.038223803043365478515625</LongitudeDegrees>
            </Position>
            <AltitudeMeters>-47.59999847412109375</AltitudeMeters>
            <DistanceMeters>NAN</DistanceMeters>
          </Trackpoint>
          <Trackpoint>
            <Time>2019-10-10T13:26:21.000Z</Time>
            <Position>
              <LatitudeDegrees>37.44203128851950168609619140625</LatitudeDegrees>
              <LongitudeDegrees>-6.0379990004003047943115234375</LongitudeDegrees>
            </Position>
            <AltitudeMeters>-47.799999237060546875</AltitudeMeters>
            <DistanceMeters>NAN</DistanceMeters>
          </Trackpoint>
          <Trackpoint>
            <Time>2019-10-10T13:26:22.000Z</Time>
            <Position>
              <LatitudeDegrees>37.4419743753969669342041015625</LatitudeDegrees>
              <LongitudeDegrees>-6.03795834816992282867431640625</LongitudeDegrees>
            </Position>
            <AltitudeMeters>-48</AltitudeMeters>
            <DistanceMeters>NAN</DistanceMeters>
          </Trackpoint>
          <Trackpoint>
            <Time>2019-10-10T13:26:23.000Z</Time>
            <Position>
              <LatitudeDegrees>37.441914193332195281982421875</LatitudeDegrees>
              <LongitudeDegrees>-6.03792632929980754852294921875</LongitudeDegrees>
            </Position>
            <AltitudeMeters>-48.200000762939453125</AltitudeMeters>
            <DistanceMeters>NAN</DistanceMeters>
          </Trackpoint>
          <Trackpoint>
            <Time>2019-10-10T13:26:28.000Z</Time>
            <Position>
              <LatitudeDegrees>37.4416166357696056365966796875</LatitudeDegrees>
              <LongitudeDegrees>-6.0377850942313671112060546875</LongitudeDegrees>
            </Position>
            <AltitudeMeters>-47.59999847412109375</AltitudeMeters>
            <DistanceMeters>NAN</DistanceMeters>
          </Trackpoint>
          <Trackpoint>
            <Time>2019-10-10T13:26:37.000Z</Time>
            <Position>
              <LatitudeDegrees>37.441087402403354644775390625</LatitudeDegrees>
              <LongitudeDegrees>-6.037542521953582763671875</LongitudeDegrees>
            </Position>
            <AltitudeMeters>-47.799999237060546875</AltitudeMeters>
            <DistanceMeters>NAN</DistanceMeters>
          </Trackpoint>
          <Trackpoint>
            <Time>2019-10-10T13:26:39.000Z</Time>
            <Position>
              <LatitudeDegrees>37.44097047485411167144775390625</LatitudeDegrees>
              <LongitudeDegrees>-6.0374877043068408966064453125</LongitudeDegrees>
            </Position>
            <AltitudeMeters>-47.799999237060546875</AltitudeMeters>
            <DistanceMeters>NAN</DistanceMeters>
          </Trackpoint>
          <Trackpoint>
            <Time>2019-10-10T13:26:48.000Z</Time>
            <Position>
              <LatitudeDegrees>37.44045850820839405059814453125</LatitudeDegrees>
              <LongitudeDegrees>-6.03725778870284557342529296875</LongitudeDegrees>
            </Position>
            <AltitudeMeters>-47.40000152587890625</AltitudeMeters>
            <DistanceMeters>NAN</DistanceMeters>
          </Trackpoint>
          <Trackpoint>
            <Time>2019-10-10T13:26:49.000Z</Time>
            <Position>
              <LatitudeDegrees>37.44040377438068389892578125</LatitudeDegrees>
              <LongitudeDegrees>-6.03723348118364810943603515625</LongitudeDegrees>
            </Position>
            <AltitudeMeters>-47.200000762939453125</AltitudeMeters>
            <DistanceMeters>NAN</DistanceMeters>
          </Trackpoint>
          <Trackpoint>
            <Time>2019-10-10T13:26:57.000Z</Time>
            <Position>
              <LatitudeDegrees>37.4399395845830440521240234375</LatitudeDegrees>
              <LongitudeDegrees>-6.03701747953891754150390625</LongitudeDegrees>
            </Position>
            <AltitudeMeters>-46.799999237060546875</AltitudeMeters>
            <DistanceMeters>NAN</DistanceMeters>
          </Trackpoint>
          <Trackpoint>
            <Time>2019-10-10T13:27:04.000Z</Time>
            <Position>
              <LatitudeDegrees>37.43951604701578617095947265625</LatitudeDegrees>
              <LongitudeDegrees>-6.03683232329785823822021484375</LongitudeDegrees>
            </Position>
            <AltitudeMeters>-47.59999847412109375</AltitudeMeters>
            <DistanceMeters>NAN</DistanceMeters>
          </Trackpoint>
          <Trackpoint>
            <Time>2019-10-10T13:27:13.000Z</Time>
            <Position>
              <LatitudeDegrees>37.43899100460112094879150390625</LatitudeDegrees>
              <LongitudeDegrees>-6.03662730194628238677978515625</LongitudeDegrees>
            </Position>
            <AltitudeMeters>-47.40000152587890625</AltitudeMeters>
            <DistanceMeters>NAN</DistanceMeters>
          </Trackpoint>
          <Trackpoint>
            <Time>2019-10-10T13:27:14.000Z</Time>
            <Position>
              <LatitudeDegrees>37.43893400765955448150634765625</LatitudeDegrees>
              <LongitudeDegrees>-6.03660517372190952301025390625</LongitudeDegrees>
            </Position>
            <AltitudeMeters>-47.40000152587890625</AltitudeMeters>
            <DistanceMeters>NAN</DistanceMeters>
          </Trackpoint>
          <Trackpoint>
            <Time>2019-10-10T13:27:23.000Z</Time>
            <Position>
              <LatitudeDegrees>37.43841634131968021392822265625</LatitudeDegrees>
              <LongitudeDegrees>-6.0364305786788463592529296875</LongitudeDegrees>
            </Position>
            <AltitudeMeters>-47.59999847412109375</AltitudeMeters>
            <DistanceMeters>NAN</DistanceMeters>
          </Trackpoint>
          <Trackpoint>
            <Time>2019-10-10T13:27:25.000Z</Time>
            <Position>
              <LatitudeDegrees>37.43830025196075439453125</LatitudeDegrees>
              <LongitudeDegrees>-6.0363972187042236328125</LongitudeDegrees>
            </Position>
            <AltitudeMeters>-47.40000152587890625</AltitudeMeters>
            <DistanceMeters>NAN</DistanceMeters>
          </Trackpoint>
          <Trackpoint>
            <Time>2019-10-10T13:27:34.000Z</Time>
            <Position>
              <LatitudeDegrees>37.4377663247287273406982421875</LatitudeDegrees>
              <LongitudeDegrees>-6.03625036776065826416015625</LongitudeDegrees>
            </Position>
            <AltitudeMeters>-47.200000762939453125</AltitudeMeters>
            <DistanceMeters>NAN</DistanceMeters>
          </Trackpoint>
          <Trackpoint>
            <Time>2019-10-10T13:27:41.000Z</Time>
            <Position>
              <LatitudeDegrees>37.4373388476669788360595703125</LatitudeDegrees>
              <LongitudeDegrees>-6.036170236766338348388671875</LongitudeDegrees>
            </Position>
            <AltitudeMeters>-47</AltitudeMeters>
            <DistanceMeters>NAN</DistanceMeters>
          </Trackpoint>
          <Trackpoint>
            <Time>2019-10-10T13:27:43.000Z</Time>
            <Position>
              <LatitudeDegrees>37.4372111074626445770263671875</LatitudeDegrees>
              <LongitudeDegrees>-6.0361653752624988555908203125</LongitudeDegrees>
            </Position>
            <AltitudeMeters>-47</AltitudeMeters>
            <DistanceMeters>NAN</DistanceMeters>
          </Trackpoint>
          <Trackpoint>
            <Time>2019-10-10T13:27:48.000Z</Time>
            <Position>
              <LatitudeDegrees>37.43689301423728466033935546875</LatitudeDegrees>
              <LongitudeDegrees>-6.0360795445740222930908203125</LongitudeDegrees>
            </Position>
            <AltitudeMeters>-47.200000762939453125</AltitudeMeters>
            <DistanceMeters>NAN</DistanceMeters>
          </Trackpoint>
          <Trackpoint>
            <Time>2019-10-10T13:27:56.000Z</Time>
            <Position>
              <LatitudeDegrees>37.436370067298412322998046875</LatitudeDegrees>
              <LongitudeDegrees>-6.036002933979034423828125</LongitudeDegrees>
            </Position>
            <AltitudeMeters>-47</AltitudeMeters>
            <DistanceMeters>NAN</DistanceMeters>
          </Trackpoint>
          <Trackpoint>
            <Time>2019-10-10T13:27:58.000Z</Time>
            <Position>
              <LatitudeDegrees>37.43623830378055572509765625</LatitudeDegrees>
              <LongitudeDegrees>-6.03598960675299167633056640625</LongitudeDegrees>
            </Position>
            <AltitudeMeters>-47.40000152587890625</AltitudeMeters>
            <DistanceMeters>NAN</DistanceMeters>
          </Trackpoint>
          <Trackpoint>
            <Time>2019-10-10T13:28:07.000Z</Time>
            <Position>
              <LatitudeDegrees>37.4356560967862606048583984375</LatitudeDegrees>
              <LongitudeDegrees>-6.0359551571309566497802734375</LongitudeDegrees>
            </Position>
            <AltitudeMeters>-47.59999847412109375</AltitudeMeters>
            <DistanceMeters>NAN</DistanceMeters>
          </Trackpoint>
          <Trackpoint>
            <Time>2019-10-10T13:28:08.000Z</Time>
            <Position>
              <LatitudeDegrees>37.43559331633150577545166015625</LatitudeDegrees>
              <LongitudeDegrees>-6.0359521396458148956298828125</LongitudeDegrees>
            </Position>
            <AltitudeMeters>-47.40000152587890625</AltitudeMeters>
            <DistanceMeters>NAN</DistanceMeters>
          </Trackpoint>
          <Trackpoint>
            <Time>2019-10-10T13:28:17.000Z</Time>
            <Position>
              <LatitudeDegrees>37.4350308068096637725830078125</LatitudeDegrees>
              <LongitudeDegrees>-6.03591618128120899200439453125</LongitudeDegrees>
            </Position>
            <AltitudeMeters>-47.200000762939453125</AltitudeMeters>
            <DistanceMeters>NAN</DistanceMeters>
          </Trackpoint>
          <Trackpoint>
            <Time>2019-10-10T13:28:18.000Z</Time>
            <Position>
              <LatitudeDegrees>37.43496836163103580474853515625</LatitudeDegrees>
              <LongitudeDegrees>-6.03591064922511577606201171875</LongitudeDegrees>
            </Position>
            <AltitudeMeters>-47</AltitudeMeters>
            <DistanceMeters>NAN</DistanceMeters>
          </Trackpoint>
          <Trackpoint>
            <Time>2019-10-10T13:28:27.000Z</Time>
            <Position>
              <LatitudeDegrees>37.4343998171389102935791015625</LatitudeDegrees>
              <LongitudeDegrees>-6.0358401574194431304931640625</LongitudeDegrees>
            </Position>
            <AltitudeMeters>-48</AltitudeMeters>
            <DistanceMeters>NAN</DistanceMeters>
          </Trackpoint>
          <Trackpoint>
            <Time>2019-10-10T13:28:28.000Z</Time>
            <Position>
              <LatitudeDegrees>37.43433653376996517181396484375</LatitudeDegrees>
              <LongitudeDegrees>-6.035829596221446990966796875</LongitudeDegrees>
            </Position>
            <AltitudeMeters>-48.200000762939453125</AltitudeMeters>
            <DistanceMeters>NAN</DistanceMeters>
          </Trackpoint>
          <Trackpoint>
            <Time>2019-10-10T13:28:37.000Z</Time>
            <Position>
              <LatitudeDegrees>37.43378810584545135498046875</LatitudeDegrees>
              <LongitudeDegrees>-6.03573999367654323577880859375</LongitudeDegrees>
            </Position>
            <AltitudeMeters>-47.799999237060546875</AltitudeMeters>
            <DistanceMeters>NAN</DistanceMeters>
          </Trackpoint>
          <Trackpoint>
            <Time>2019-10-10T13:28:39.000Z</Time>
            <Position>
              <LatitudeDegrees>37.43366480804979801177978515625</LatitudeDegrees>
              <LongitudeDegrees>-6.035720296204090118408203125</LongitudeDegrees>
            </Position>
            <AltitudeMeters>-47.59999847412109375</AltitudeMeters>
            <DistanceMeters>NAN</DistanceMeters>
          </Trackpoint>
          <Trackpoint>
            <Time>2019-10-10T13:28:48.000Z</Time>
            <Position>
              <LatitudeDegrees>37.43310992605984210968017578125</LatitudeDegrees>
              <LongitudeDegrees>-6.03563756681978702545166015625</LongitudeDegrees>
            </Position>
            <AltitudeMeters>-48.59999847412109375</AltitudeMeters>
            <DistanceMeters>NAN</DistanceMeters>
          </Trackpoint>
          <Trackpoint>
            <Time>2019-10-10T13:28:50.000Z</Time>
            <Position>
              <LatitudeDegrees>37.432986460626125335693359375</LatitudeDegrees>
              <LongitudeDegrees>-6.03562164120376110076904296875</LongitudeDegrees>
            </Position>
            <AltitudeMeters>-48.799999237060546875</AltitudeMeters>
            <DistanceMeters>NAN</DistanceMeters>
          </Trackpoint>
          <Trackpoint>
            <Time>2019-10-10T13:28:59.000Z</Time>
            <Position>
              <LatitudeDegrees>37.4324324168264865875244140625</LatitudeDegrees>
              <LongitudeDegrees>-6.03557202033698558807373046875</LongitudeDegrees>
            </Position>
            <AltitudeMeters>-48.200000762939453125</AltitudeMeters>
            <DistanceMeters>NAN</DistanceMeters>
          </Trackpoint>
          <Trackpoint>
            <Time>2019-10-10T13:29:00.000Z</Time>
            <Position>
              <LatitudeDegrees>37.4323720671236515045166015625</LatitudeDegrees>
              <LongitudeDegrees>-6.03556833229959011077880859375</LongitudeDegrees>
            </Position>
            <AltitudeMeters>-48.40000152587890625</AltitudeMeters>
            <DistanceMeters>NAN</DistanceMeters>
          </Trackpoint>
          <Trackpoint>
            <Time>2019-10-10T13:29:07.000Z</Time>
            <Position>
              <LatitudeDegrees>37.43195557035505771636962890625</LatitudeDegrees>
              <LongitudeDegrees>-6.0355602018535137176513671875</LongitudeDegrees>
            </Position>
            <AltitudeMeters>-46.799999237060546875</AltitudeMeters>
            <DistanceMeters>NAN</DistanceMeters>
          </Trackpoint>
          <Trackpoint>
            <Time>2019-10-10T13:29:09.000Z</Time>
            <Position>
              <LatitudeDegrees>37.43184124119579792022705078125</LatitudeDegrees>
              <LongitudeDegrees>-6.035551317036151885986328125</LongitudeDegrees>
            </Position>
            <AltitudeMeters>-46.40000152587890625</AltitudeMeters>
            <DistanceMeters>NAN</DistanceMeters>
          </Trackpoint>
          <Trackpoint>
            <Time>2019-10-10T13:29:16.000Z</Time>
            <Position>
              <LatitudeDegrees>37.43144829757511615753173828125</LatitudeDegrees>
              <LongitudeDegrees>-6.03554427623748779296875</LongitudeDegrees>
            </Position>
            <AltitudeMeters>-46.200000762939453125</AltitudeMeters>
            <DistanceMeters>NAN</DistanceMeters>
          </Trackpoint>
          <Trackpoint>
            <Time>2019-10-10T13:29:17.000Z</Time>
            <Position>
              <LatitudeDegrees>37.43139297701418399810791015625</LatitudeDegrees>
              <LongitudeDegrees>-6.0355437733232975006103515625</LongitudeDegrees>
            </Position>
            <AltitudeMeters>-46</AltitudeMeters>
            <DistanceMeters>NAN</DistanceMeters>
          </Trackpoint>
          <Trackpoint>
            <Time>2019-10-10T13:29:19.000Z</Time>
            <Position>
              <LatitudeDegrees>37.4312837608158588409423828125</LatitudeDegrees>
              <LongitudeDegrees>-6.035549640655517578125</LongitudeDegrees>
            </Position>
            <AltitudeMeters>-45.59999847412109375</AltitudeMeters>
            <DistanceMeters>NAN</DistanceMeters>
          </Trackpoint>
          <Trackpoint>
            <Time>2019-10-10T13:29:22.000Z</Time>
            <Position>
              <LatitudeDegrees>37.43112274445593357086181640625</LatitudeDegrees>
              <LongitudeDegrees>-6.03554821573197841644287109375</LongitudeDegrees>
            </Position>
            <AltitudeMeters>-45</AltitudeMeters>
            <DistanceMeters>NAN</DistanceMeters>
          </Trackpoint>
          <Trackpoint>
            <Time>2019-10-10T13:29:27.000Z</Time>
            <Position>
              <LatitudeDegrees>37.43084547109901905059814453125</LatitudeDegrees>
              <LongitudeDegrees>-6.03554368950426578521728515625</LongitudeDegrees>
            </Position>
            <AltitudeMeters>-44.40000152587890625</AltitudeMeters>
            <DistanceMeters>NAN</DistanceMeters>
          </Trackpoint>
          <Trackpoint>
            <Time>2019-10-10T13:29:29.000Z</Time>
            <Position>
              <LatitudeDegrees>37.43073130957782268524169921875</LatitudeDegrees>
              <LongitudeDegrees>-6.03554352186620235443115234375</LongitudeDegrees>
            </Position>
            <AltitudeMeters>-44.59999847412109375</AltitudeMeters>
            <DistanceMeters>NAN</DistanceMeters>
          </Trackpoint>
          <Trackpoint>
            <Time>2019-10-10T13:29:38.000Z</Time>
            <Position>
              <LatitudeDegrees>37.43021599017083644866943359375</LatitudeDegrees>
              <LongitudeDegrees>-6.0355350561439990997314453125</LongitudeDegrees>
            </Position>
            <AltitudeMeters>-44.799999237060546875</AltitudeMeters>
            <DistanceMeters>NAN</DistanceMeters>
          </Trackpoint>
          <Trackpoint>
            <Time>2019-10-10T13:29:47.000Z</Time>
            <Position>
              <LatitudeDegrees>37.42966949008405208587646484375</LatitudeDegrees>
              <LongitudeDegrees>-6.03553178720176219940185546875</LongitudeDegrees>
            </Position>
            <AltitudeMeters>-45.40000152587890625</AltitudeMeters>
            <DistanceMeters>NAN</DistanceMeters>
          </Trackpoint>
          <Trackpoint>
            <Time>2019-10-10T13:29:54.000Z</Time>
            <Position>
              <LatitudeDegrees>37.4292224831879138946533203125</LatitudeDegrees>
              <LongitudeDegrees>-6.0355206392705440521240234375</LongitudeDegrees>
            </Position>
            <AltitudeMeters>-45.799999237060546875</AltitudeMeters>
            <DistanceMeters>NAN</DistanceMeters>
          </Trackpoint>
          <Trackpoint>
            <Time>2019-10-10T13:29:55.000Z</Time>
            <Position>
              <LatitudeDegrees>37.4291557632386684417724609375</LatitudeDegrees>
              <LongitudeDegrees>-6.0355186276137828826904296875</LongitudeDegrees>
            </Position>
            <AltitudeMeters>-45.40000152587890625</AltitudeMeters>
            <DistanceMeters>NAN</DistanceMeters>
          </Trackpoint>
          <Trackpoint>
            <Time>2019-10-10T13:30:01.000Z</Time>
            <Position>
              <LatitudeDegrees>37.42875837720930576324462890625</LatitudeDegrees>
              <LongitudeDegrees>-6.03551016189157962799072265625</LongitudeDegrees>
            </Position>
            <AltitudeMeters>-46.799999237060546875</AltitudeMeters>
            <DistanceMeters>NAN</DistanceMeters>
          </Trackpoint>
          <Trackpoint>
            <Time>2019-10-10T13:30:04.000Z</Time>
            <Position>
              <LatitudeDegrees>37.428560815751552581787109375</LatitudeDegrees>
              <LongitudeDegrees>-6.03552575223147869110107421875</LongitudeDegrees>
            </Position>
            <AltitudeMeters>-47</AltitudeMeters>
            <DistanceMeters>NAN</DistanceMeters>
          </Trackpoint>
          <Trackpoint>
            <Time>2019-10-10T13:30:08.000Z</Time>
            <Position>
              <LatitudeDegrees>37.42830189876258373260498046875</LatitudeDegrees>
              <LongitudeDegrees>-6.035534553229808807373046875</LongitudeDegrees>
            </Position>
            <AltitudeMeters>-47</AltitudeMeters>
            <DistanceMeters>NAN</DistanceMeters>
          </Trackpoint>
          <Trackpoint>
            <Time>2019-10-10T13:30:10.000Z</Time>
            <Position>
              <LatitudeDegrees>37.42817801423370838165283203125</LatitudeDegrees>
              <LongitudeDegrees>-6.03553421795368194580078125</LongitudeDegrees>
            </Position>
            <AltitudeMeters>-47.40000152587890625</AltitudeMeters>
            <DistanceMeters>NAN</DistanceMeters>
          </Trackpoint>
          <Trackpoint>
            <Time>2019-10-10T13:30:19.000Z</Time>
            <Position>
              <LatitudeDegrees>37.42761944420635700225830078125</LatitudeDegrees>
              <LongitudeDegrees>-6.03553798981010913848876953125</LongitudeDegrees>
            </Position>
            <AltitudeMeters>-46</AltitudeMeters>
            <DistanceMeters>NAN</DistanceMeters>
          </Trackpoint>
          <Trackpoint>
            <Time>2019-10-10T13:30:28.000Z</Time>
            <Position>
              <LatitudeDegrees>37.42705970071256160736083984375</LatitudeDegrees>
              <LongitudeDegrees>-6.035537235438823699951171875</LongitudeDegrees>
            </Position>
            <AltitudeMeters>-46.40000152587890625</AltitudeMeters>
            <DistanceMeters>NAN</DistanceMeters>
          </Trackpoint>
          <Trackpoint>
            <Time>2019-10-10T13:30:29.000Z</Time>
            <Position>
              <LatitudeDegrees>37.4269962497055530548095703125</LatitudeDegrees>
              <LongitudeDegrees>-6.0355353914201259613037109375</LongitudeDegrees>
            </Position>
            <AltitudeMeters>-46.200000762939453125</AltitudeMeters>
            <DistanceMeters>NAN</DistanceMeters>
          </Trackpoint>
          <Trackpoint>
            <Time>2019-10-10T13:30:33.000Z</Time>
            <Position>
              <LatitudeDegrees>37.42673867382109165191650390625</LatitudeDegrees>
              <LongitudeDegrees>-6.035524494946002960205078125</LongitudeDegrees>
            </Position>
            <AltitudeMeters>-45.799999237060546875</AltitudeMeters>
            <DistanceMeters>NAN</DistanceMeters>
          </Trackpoint>
          <Trackpoint>
            <Time>2019-10-10T13:30:39.000Z</Time>
            <Position>
              <LatitudeDegrees>37.426356375217437744140625</LatitudeDegrees>
              <LongitudeDegrees>-6.03550831787288188934326171875</LongitudeDegrees>
            </Position>
            <AltitudeMeters>-45.799999237060546875</AltitudeMeters>
            <DistanceMeters>NAN</DistanceMeters>
          </Trackpoint>
          <Trackpoint>
            <Time>2019-10-10T13:30:48.000Z</Time>
            <Position>
              <LatitudeDegrees>37.425782047212123870849609375</LatitudeDegrees>
              <LongitudeDegrees>-6.0354948230087757110595703125</LongitudeDegrees>
            </Position>
            <AltitudeMeters>-44.799999237060546875</AltitudeMeters>
            <DistanceMeters>NAN</DistanceMeters>
          </Trackpoint>
          <Trackpoint>
            <Time>2019-10-10T13:30:57.000Z</Time>
            <Position>
              <LatitudeDegrees>37.42520143277943134307861328125</LatitudeDegrees>
              <LongitudeDegrees>-6.03549524210393428802490234375</LongitudeDegrees>
            </Position>
            <AltitudeMeters>-45.200000762939453125</AltitudeMeters>
            <DistanceMeters>NAN</DistanceMeters>
          </Trackpoint>
          <Trackpoint>
            <Time>2019-10-10T13:31:00.000Z</Time>
            <Position>
              <LatitudeDegrees>37.42500814609229564666748046875</LatitudeDegrees>
              <LongitudeDegrees>-6.0354931466281414031982421875</LongitudeDegrees>
            </Position>
            <AltitudeMeters>-44.59999847412109375</AltitudeMeters>
            <DistanceMeters>NAN</DistanceMeters>
          </Trackpoint>
          <Trackpoint>
            <Time>2019-10-10T13:31:09.000Z</Time>
            <Position>
              <LatitudeDegrees>37.42442510090768337249755859375</LatitudeDegrees>
              <LongitudeDegrees>-6.03549540974199771881103515625</LongitudeDegrees>
            </Position>
            <AltitudeMeters>-44.799999237060546875</AltitudeMeters>
            <DistanceMeters>NAN</DistanceMeters>
          </Trackpoint>
          <Trackpoint>
            <Time>2019-10-10T13:31:13.000Z</Time>
            <Position>
              <LatitudeDegrees>37.4241668544709682464599609375</LatitudeDegrees>
              <LongitudeDegrees>-6.0354907996952533721923828125</LongitudeDegrees>
            </Position>
            <AltitudeMeters>-44.799999237060546875</AltitudeMeters>
            <DistanceMeters>NAN</DistanceMeters>
          </Trackpoint>
          <Trackpoint>
            <Time>2019-10-10T13:31:22.000Z</Time>
            <Position>
              <LatitudeDegrees>37.4235848151147365570068359375</LatitudeDegrees>
              <LongitudeDegrees>-6.03549289517104625701904296875</LongitudeDegrees>
            </Position>
            <AltitudeMeters>-44.40000152587890625</AltitudeMeters>
            <DistanceMeters>NAN</DistanceMeters>
          </Trackpoint>
          <Trackpoint>
            <Time>2019-10-10T13:31:24.000Z</Time>
            <Position>
              <LatitudeDegrees>37.4234555661678314208984375</LatitudeDegrees>
              <LongitudeDegrees>-6.035493649542331695556640625</LongitudeDegrees>
            </Position>
            <AltitudeMeters>-44.59999847412109375</AltitudeMeters>
            <DistanceMeters>NAN</DistanceMeters>
          </Trackpoint>
          <Trackpoint>
            <Time>2019-10-10T13:31:32.000Z</Time>
            <Position>
              <LatitudeDegrees>37.42292574606835842132568359375</LatitudeDegrees>
              <LongitudeDegrees>-6.0354834236204624176025390625</LongitudeDegrees>
            </Position>
            <AltitudeMeters>-44.59999847412109375</AltitudeMeters>
            <DistanceMeters>NAN</DistanceMeters>
          </Trackpoint>
          <Trackpoint>
            <Time>2019-10-10T13:31:40.000Z</Time>
            <Position>
              <LatitudeDegrees>37.42239684797823429107666015625</LatitudeDegrees>
              <LongitudeDegrees>-6.03548702783882617950439453125</LongitudeDegrees>
            </Position>
            <AltitudeMeters>-44.59999847412109375</AltitudeMeters>
            <DistanceMeters>NAN</DistanceMeters>
          </Trackpoint>
          <Trackpoint>
            <Time>2019-10-10T13:31:48.000Z</Time>
            <Position>
              <LatitudeDegrees>37.421877086162567138671875</LatitudeDegrees>
              <LongitudeDegrees>-6.035487949848175048828125</LongitudeDegrees>
            </Position>
            <AltitudeMeters>-44.40000152587890625</AltitudeMeters>
            <DistanceMeters>NAN</DistanceMeters>
          </Trackpoint>
          <Trackpoint>
            <Time>2019-10-10T13:31:49.000Z</Time>
            <Position>
              <LatitudeDegrees>37.421811707317829132080078125</LatitudeDegrees>
              <LongitudeDegrees>-6.03548736311495304107666015625</LongitudeDegrees>
            </Position>
            <AltitudeMeters>-44.40000152587890625</AltitudeMeters>
            <DistanceMeters>NAN</DistanceMeters>
          </Trackpoint>
          <Trackpoint>
            <Time>2019-10-10T13:31:50.000Z</Time>
            <Position>
              <LatitudeDegrees>37.42174792103469371795654296875</LatitudeDegrees>
              <LongitudeDegrees>-6.03549323044717311859130859375</LongitudeDegrees>
            </Position>
            <AltitudeMeters>-44.40000152587890625</AltitudeMeters>
            <DistanceMeters>NAN</DistanceMeters>
          </Trackpoint>
          <Trackpoint>
            <Time>2019-10-10T13:31:54.000Z</Time>
            <Position>
              <LatitudeDegrees>37.4214960448443889617919921875</LatitudeDegrees>
              <LongitudeDegrees>-6.03550136089324951171875</LongitudeDegrees>
            </Position>
            <AltitudeMeters>-44.59999847412109375</AltitudeMeters>
            <DistanceMeters>NAN</DistanceMeters>
          </Trackpoint>
          <Trackpoint>
            <Time>2019-10-10T13:32:03.000Z</Time>
            <Position>
              <LatitudeDegrees>37.42092397995293140411376953125</LatitudeDegrees>
              <LongitudeDegrees>-6.03549675084650516510009765625</LongitudeDegrees>
            </Position>
            <AltitudeMeters>-44.40000152587890625</AltitudeMeters>
            <DistanceMeters>NAN</DistanceMeters>
          </Trackpoint>
          <Trackpoint>
            <Time>2019-10-10T13:32:12.000Z</Time>
            <Position>
              <LatitudeDegrees>37.42035568691790103912353515625</LatitudeDegrees>
              <LongitudeDegrees>-6.03547663427889347076416015625</LongitudeDegrees>
            </Position>
            <AltitudeMeters>-44.200000762939453125</AltitudeMeters>
            <DistanceMeters>NAN</DistanceMeters>
          </Trackpoint>
          <Trackpoint>
            <Time>2019-10-10T13:32:13.000Z</Time>
            <Position>
              <LatitudeDegrees>37.420291900634765625</LatitudeDegrees>
              <LongitudeDegrees>-6.0354747064411640167236328125</LongitudeDegrees>
            </Position>
            <AltitudeMeters>-44.40000152587890625</AltitudeMeters>
            <DistanceMeters>NAN</DistanceMeters>
          </Trackpoint>
          <Trackpoint>
            <Time>2019-10-10T13:32:19.000Z</Time>
            <Position>
              <LatitudeDegrees>37.41991999559104442596435546875</LatitudeDegrees>
              <LongitudeDegrees>-6.03546121157705783843994140625</LongitudeDegrees>
            </Position>
            <AltitudeMeters>-44.40000152587890625</AltitudeMeters>
            <DistanceMeters>NAN</DistanceMeters>
          </Trackpoint>
          <Trackpoint>
            <Time>2019-10-10T13:32:28.000Z</Time>
            <Position>
              <LatitudeDegrees>37.41935036145150661468505859375</LatitudeDegrees>
              <LongitudeDegrees>-6.03545266203582286834716796875</LongitudeDegrees>
            </Position>
            <AltitudeMeters>-44.200000762939453125</AltitudeMeters>
            <DistanceMeters>NAN</DistanceMeters>
          </Trackpoint>
          <Trackpoint>
            <Time>2019-10-10T13:32:29.000Z</Time>
            <Position>
              <LatitudeDegrees>37.419287748634815216064453125</LatitudeDegrees>
              <LongitudeDegrees>-6.03545215912163257598876953125</LongitudeDegrees>
            </Position>
            <AltitudeMeters>-43.59999847412109375</AltitudeMeters>
            <DistanceMeters>NAN</DistanceMeters>
          </Trackpoint>
          <Trackpoint>
            <Time>2019-10-10T13:32:30.000Z</Time>
            <Position>
              <LatitudeDegrees>37.419226057827472686767578125</LatitudeDegrees>
              <LongitudeDegrees>-6.03545215912163257598876953125</LongitudeDegrees>
            </Position>
            <AltitudeMeters>-43.59999847412109375</AltitudeMeters>
            <DistanceMeters>NAN</DistanceMeters>
          </Trackpoint>
          <Trackpoint>
            <Time>2019-10-10T13:32:33.000Z</Time>
            <Position>
              <LatitudeDegrees>37.41904132068157196044921875</LatitudeDegrees>
              <LongitudeDegrees>-6.035454086959362030029296875</LongitudeDegrees>
            </Position>
            <AltitudeMeters>-44.799999237060546875</AltitudeMeters>
            <DistanceMeters>NAN</DistanceMeters>
          </Trackpoint>
          <Trackpoint>
            <Time>2019-10-10T13:32:37.000Z</Time>
            <Position>
              <LatitudeDegrees>37.418796904385089874267578125</LatitudeDegrees>
              <LongitudeDegrees>-6.03545282967388629913330078125</LongitudeDegrees>
            </Position>
            <AltitudeMeters>-44.59999847412109375</AltitudeMeters>
            <DistanceMeters>NAN</DistanceMeters>
          </Trackpoint>
          <Trackpoint>
            <Time>2019-10-10T13:32:41.000Z</Time>
            <Position>
              <LatitudeDegrees>37.41855357773602008819580078125</LatitudeDegrees>
              <LongitudeDegrees>-6.035450063645839691162109375</LongitudeDegrees>
            </Position>
            <AltitudeMeters>-43.59999847412109375</AltitudeMeters>
            <DistanceMeters>NAN</DistanceMeters>
          </Trackpoint>
          <Trackpoint>
            <Time>2019-10-10T13:32:48.000Z</Time>
            <Position>
              <LatitudeDegrees>37.4181218259036540985107421875</LatitudeDegrees>
              <LongitudeDegrees>-6.03544570505619049072265625</LongitudeDegrees>
            </Position>
            <AltitudeMeters>-44.200000762939453125</AltitudeMeters>
            <DistanceMeters>NAN</DistanceMeters>
          </Trackpoint>
          <Trackpoint>
            <Time>2019-10-10T13:32:56.000Z</Time>
            <Position>
              <LatitudeDegrees>37.4176249466836452484130859375</LatitudeDegrees>
              <LongitudeDegrees>-6.0354277677834033966064453125</LongitudeDegrees>
            </Position>
            <AltitudeMeters>-44.59999847412109375</AltitudeMeters>
            <DistanceMeters>NAN</DistanceMeters>
          </Trackpoint>
          <Trackpoint>
            <Time>2019-10-10T13:33:05.000Z</Time>
            <Position>
              <LatitudeDegrees>37.41706260479986667633056640625</LatitudeDegrees>
              <LongitudeDegrees>-6.035401783883571624755859375</LongitudeDegrees>
            </Position>
            <AltitudeMeters>-44.200000762939453125</AltitudeMeters>
            <DistanceMeters>NAN</DistanceMeters>
          </Trackpoint>
          <Trackpoint>
            <Time>2019-10-10T13:33:09.000Z</Time>
            <Position>
              <LatitudeDegrees>37.416811399161815643310546875</LatitudeDegrees>
              <LongitudeDegrees>-6.03537973947823047637939453125</LongitudeDegrees>
            </Position>
            <AltitudeMeters>-43.59999847412109375</AltitudeMeters>
            <DistanceMeters>NAN</DistanceMeters>
          </Trackpoint>
          <Trackpoint>
            <Time>2019-10-10T13:33:12.000Z</Time>
            <Position>
              <LatitudeDegrees>37.41662657819688320159912109375</LatitudeDegrees>
              <LongitudeDegrees>-6.03536196984350681304931640625</LongitudeDegrees>
            </Position>
            <AltitudeMeters>-44.799999237060546875</AltitudeMeters>
            <DistanceMeters>NAN</DistanceMeters>
          </Trackpoint>
          <Trackpoint>
            <Time>2019-10-10T13:33:15.000Z</Time>
            <Position>
              <LatitudeDegrees>37.416444607079029083251953125</LatitudeDegrees>
              <LongitudeDegrees>-6.03534637950360774993896484375</LongitudeDegrees>
            </Position>
            <AltitudeMeters>-44.799999237060546875</AltitudeMeters>
            <DistanceMeters>NAN</DistanceMeters>
          </Trackpoint>
          <Trackpoint>
            <Time>2019-10-10T13:33:22.000Z</Time>
            <Position>
              <LatitudeDegrees>37.41601084358990192413330078125</LatitudeDegrees>
              <LongitudeDegrees>-6.03530648164451122283935546875</LongitudeDegrees>
            </Position>
            <AltitudeMeters>-43.200000762939453125</AltitudeMeters>
            <DistanceMeters>NAN</DistanceMeters>
          </Trackpoint>
          <Trackpoint>
            <Time>2019-10-10T13:33:23.000Z</Time>
            <Position>
              <LatitudeDegrees>37.41594697348773479461669921875</LatitudeDegrees>
              <LongitudeDegrees>-6.03530044667422771453857421875</LongitudeDegrees>
            </Position>
            <AltitudeMeters>-42.799999237060546875</AltitudeMeters>
            <DistanceMeters>NAN</DistanceMeters>
          </Trackpoint>
          <Trackpoint>
            <Time>2019-10-10T13:33:32.000Z</Time>
            <Position>
              <LatitudeDegrees>37.41537985391914844512939453125</LatitudeDegrees>
              <LongitudeDegrees>-6.0352385044097900390625</LongitudeDegrees>
            </Position>
            <AltitudeMeters>-42.40000152587890625</AltitudeMeters>
            <DistanceMeters>NAN</DistanceMeters>
          </Trackpoint>
          <Trackpoint>
            <Time>2019-10-10T13:33:38.000Z</Time>
            <Position>
              <LatitudeDegrees>37.415001578629016876220703125</LatitudeDegrees>
              <LongitudeDegrees>-6.03518846444785594940185546875</LongitudeDegrees>
            </Position>
            <AltitudeMeters>-42.40000152587890625</AltitudeMeters>
            <DistanceMeters>NAN</DistanceMeters>
          </Trackpoint>
          <Trackpoint>
            <Time>2019-10-10T13:33:47.000Z</Time>
            <Position>
              <LatitudeDegrees>37.41443119011819362640380859375</LatitudeDegrees>
              <LongitudeDegrees>-6.0351065732538700103759765625</LongitudeDegrees>
            </Position>
            <AltitudeMeters>-43.40000152587890625</AltitudeMeters>
            <DistanceMeters>NAN</DistanceMeters>
          </Trackpoint>
          <Trackpoint>
            <Time>2019-10-10T13:33:55.000Z</Time>
            <Position>
              <LatitudeDegrees>37.41392123512923717498779296875</LatitudeDegrees>
              <LongitudeDegrees>-6.0350512526929378509521484375</LongitudeDegrees>
            </Position>
            <AltitudeMeters>-43</AltitudeMeters>
            <DistanceMeters>NAN</DistanceMeters>
          </Trackpoint>
          <Trackpoint>
            <Time>2019-10-10T13:34:04.000Z</Time>
            <Position>
              <LatitudeDegrees>37.41334858350455760955810546875</LatitudeDegrees>
              <LongitudeDegrees>-6.03495896793901920318603515625</LongitudeDegrees>
            </Position>
            <AltitudeMeters>-43.40000152587890625</AltitudeMeters>
            <DistanceMeters>NAN</DistanceMeters>
          </Trackpoint>
          <Trackpoint>
            <Time>2019-10-10T13:34:06.000Z</Time>
            <Position>
              <LatitudeDegrees>37.41322034038603305816650390625</LatitudeDegrees>
              <LongitudeDegrees>-6.0349392704665660858154296875</LongitudeDegrees>
            </Position>
            <AltitudeMeters>-43.200000762939453125</AltitudeMeters>
            <DistanceMeters>NAN</DistanceMeters>
          </Trackpoint>
          <Trackpoint>
            <Time>2019-10-10T13:34:14.000Z</Time>
            <Position>
              <LatitudeDegrees>37.41269714199006557464599609375</LatitudeDegrees>
              <LongitudeDegrees>-6.03486232459545135498046875</LongitudeDegrees>
            </Position>
            <AltitudeMeters>-43.40000152587890625</AltitudeMeters>
            <DistanceMeters>NAN</DistanceMeters>
          </Trackpoint>
          <Trackpoint>
            <Time>2019-10-10T13:34:18.000Z</Time>
            <Position>
              <LatitudeDegrees>37.41240679286420345306396484375</LatitudeDegrees>
              <LongitudeDegrees>-6.0348303057253360748291015625</LongitudeDegrees>
            </Position>
            <AltitudeMeters>-44.59999847412109375</AltitudeMeters>
            <DistanceMeters>NAN</DistanceMeters>
          </Trackpoint>
          <Trackpoint>
            <Time>2019-10-10T13:34:22.000Z</Time>
            <Position>
              <LatitudeDegrees>37.41209976375102996826171875</LatitudeDegrees>
              <LongitudeDegrees>-6.0348128713667392730712890625</LongitudeDegrees>
            </Position>
            <AltitudeMeters>-45.40000152587890625</AltitudeMeters>
            <DistanceMeters>NAN</DistanceMeters>
          </Trackpoint>
          <Trackpoint>
            <Time>2019-10-10T13:34:23.000Z</Time>
            <Position>
              <LatitudeDegrees>37.41201837547123432159423828125</LatitudeDegrees>
              <LongitudeDegrees>-6.03480842895805835723876953125</LongitudeDegrees>
            </Position>
            <AltitudeMeters>-46</AltitudeMeters>
            <DistanceMeters>NAN</DistanceMeters>
          </Trackpoint>
          <Trackpoint>
            <Time>2019-10-10T13:34:29.000Z</Time>
            <Position>
              <LatitudeDegrees>37.41153675131499767303466796875</LatitudeDegrees>
              <LongitudeDegrees>-6.03474698960781097412109375</LongitudeDegrees>
            </Position>
            <AltitudeMeters>-46.59999847412109375</AltitudeMeters>
            <DistanceMeters>NAN</DistanceMeters>
          </Trackpoint>
          <Trackpoint>
            <Time>2019-10-10T13:34:31.000Z</Time>
            <Position>
              <LatitudeDegrees>37.41137313656508922576904296875</LatitudeDegrees>
              <LongitudeDegrees>-6.03473131544888019561767578125</LongitudeDegrees>
            </Position>
            <AltitudeMeters>-47</AltitudeMeters>
            <DistanceMeters>NAN</DistanceMeters>
          </Trackpoint>
          <Trackpoint>
            <Time>2019-10-10T13:34:33.000Z</Time>
            <Position>
              <LatitudeDegrees>37.41121455095708370208740234375</LatitudeDegrees>
              <LongitudeDegrees>-6.03472460992634296417236328125</LongitudeDegrees>
            </Position>
            <AltitudeMeters>-46.59999847412109375</AltitudeMeters>
            <DistanceMeters>NAN</DistanceMeters>
          </Trackpoint>
          <Trackpoint>
            <Time>2019-10-10T13:34:36.000Z</Time>
            <Position>
              <LatitudeDegrees>37.41101103834807872772216796875</LatitudeDegrees>
              <LongitudeDegrees>-6.03475931100547313690185546875</LongitudeDegrees>
            </Position>
            <AltitudeMeters>-46</AltitudeMeters>
            <DistanceMeters>NAN</DistanceMeters>
          </Trackpoint>
          <Trackpoint>
            <Time>2019-10-10T13:34:37.000Z</Time>
            <Position>
              <LatitudeDegrees>37.4109529517590999603271484375</LatitudeDegrees>
              <LongitudeDegrees>-6.03478051722049713134765625</LongitudeDegrees>
            </Position>
            <AltitudeMeters>-45.40000152587890625</AltitudeMeters>
            <DistanceMeters>NAN</DistanceMeters>
          </Trackpoint>
          <Trackpoint>
            <Time>2019-10-10T13:34:39.000Z</Time>
            <Position>
              <LatitudeDegrees>37.41084909997880458831787109375</LatitudeDegrees>
              <LongitudeDegrees>-6.03482745587825775146484375</LongitudeDegrees>
            </Position>
            <AltitudeMeters>-44.59999847412109375</AltitudeMeters>
            <DistanceMeters>NAN</DistanceMeters>
          </Trackpoint>
          <Trackpoint>
            <Time>2019-10-10T13:34:42.000Z</Time>
            <Position>
              <LatitudeDegrees>37.41071532480418682098388671875</LatitudeDegrees>
              <LongitudeDegrees>-6.03490565903484821319580078125</LongitudeDegrees>
            </Position>
            <AltitudeMeters>-43.59999847412109375</AltitudeMeters>
            <DistanceMeters>NAN</DistanceMeters>
          </Trackpoint>
          <Trackpoint>
            <Time>2019-10-10T13:34:46.000Z</Time>
            <Position>
              <LatitudeDegrees>37.41056780330836772918701171875</LatitudeDegrees>
              <LongitudeDegrees>-6.03504999540746212005615234375</LongitudeDegrees>
            </Position>
            <AltitudeMeters>-42.40000152587890625</AltitudeMeters>
            <DistanceMeters>NAN</DistanceMeters>
          </Trackpoint>
          <Trackpoint>
            <Time>2019-10-10T13:34:49.000Z</Time>
            <Position>
              <LatitudeDegrees>37.41047057323157787322998046875</LatitudeDegrees>
              <LongitudeDegrees>-6.0351820103824138641357421875</LongitudeDegrees>
            </Position>
            <AltitudeMeters>-42.59999847412109375</AltitudeMeters>
            <DistanceMeters>NAN</DistanceMeters>
          </Trackpoint>
          <Trackpoint>
            <Time>2019-10-10T13:34:51.000Z</Time>
            <Position>
              <LatitudeDegrees>37.41042681969702243804931640625</LatitudeDegrees>
              <LongitudeDegrees>-6.03526867926120758056640625</LongitudeDegrees>
            </Position>
            <AltitudeMeters>-42.59999847412109375</AltitudeMeters>
            <DistanceMeters>NAN</DistanceMeters>
          </Trackpoint>
          <Trackpoint>
            <Time>2019-10-10T13:34:53.000Z</Time>
            <Position>
              <LatitudeDegrees>37.4104039371013641357421875</LatitudeDegrees>
              <LongitudeDegrees>-6.03537051938474178314208984375</LongitudeDegrees>
            </Position>
            <AltitudeMeters>-42</AltitudeMeters>
            <DistanceMeters>NAN</DistanceMeters>
          </Trackpoint>
          <Trackpoint>
            <Time>2019-10-10T13:34:55.000Z</Time>
            <Position>
              <LatitudeDegrees>37.41037485189735889434814453125</LatitudeDegrees>
              <LongitudeDegrees>-6.03549138642847537994384765625</LongitudeDegrees>
            </Position>
            <AltitudeMeters>-42.200000762939453125</AltitudeMeters>
            <DistanceMeters>NAN</DistanceMeters>
          </Trackpoint>
          <Trackpoint>
            <Time>2019-10-10T13:34:58.000Z</Time>
            <Position>
              <LatitudeDegrees>37.41029597818851470947265625</LatitudeDegrees>
              <LongitudeDegrees>-6.0356815718114376068115234375</LongitudeDegrees>
            </Position>
            <AltitudeMeters>-42.59999847412109375</AltitudeMeters>
            <DistanceMeters>NAN</DistanceMeters>
          </Trackpoint>
          <Trackpoint>
            <Time>2019-10-10T13:34:59.000Z</Time>
            <Position>
              <LatitudeDegrees>37.41026421077549457550048828125</LatitudeDegrees>
              <LongitudeDegrees>-6.03574343025684356689453125</LongitudeDegrees>
            </Position>
            <AltitudeMeters>-42.59999847412109375</AltitudeMeters>
            <DistanceMeters>NAN</DistanceMeters>
          </Trackpoint>
          <Trackpoint>
            <Time>2019-10-10T13:35:02.000Z</Time>
            <Position>
              <LatitudeDegrees>37.4101539887487888336181640625</LatitudeDegrees>
              <LongitudeDegrees>-6.03591986931860446929931640625</LongitudeDegrees>
            </Position>
            <AltitudeMeters>-43</AltitudeMeters>
            <DistanceMeters>NAN</DistanceMeters>
          </Trackpoint>
          <Trackpoint>
            <Time>2019-10-10T13:35:04.000Z</Time>
            <Position>
              <LatitudeDegrees>37.41005055606365203857421875</LatitudeDegrees>
              <LongitudeDegrees>-6.035994552075862884521484375</LongitudeDegrees>
            </Position>
            <AltitudeMeters>-42.40000152587890625</AltitudeMeters>
            <DistanceMeters>NAN</DistanceMeters>
          </Trackpoint>
          <Trackpoint>
            <Time>2019-10-10T13:35:08.000Z</Time>
            <Position>
              <LatitudeDegrees>37.4098153598606586456298828125</LatitudeDegrees>
              <LongitudeDegrees>-6.03601626120507717132568359375</LongitudeDegrees>
            </Position>
            <AltitudeMeters>-43</AltitudeMeters>
            <DistanceMeters>NAN</DistanceMeters>
          </Trackpoint>
          <Trackpoint>
            <Time>2019-10-10T13:35:12.000Z</Time>
            <Position>
              <LatitudeDegrees>37.4096111766993999481201171875</LatitudeDegrees>
              <LongitudeDegrees>-6.0358834080398082733154296875</LongitudeDegrees>
            </Position>
            <AltitudeMeters>-42.200000762939453125</AltitudeMeters>
            <DistanceMeters>NAN</DistanceMeters>
          </Trackpoint>
          <Trackpoint>
            <Time>2019-10-10T13:35:13.000Z</Time>
            <Position>
              <LatitudeDegrees>37.40957119502127170562744140625</LatitudeDegrees>
              <LongitudeDegrees>-6.0358391515910625457763671875</LongitudeDegrees>
            </Position>
            <AltitudeMeters>-42.200000762939453125</AltitudeMeters>
            <DistanceMeters>NAN</DistanceMeters>
          </Trackpoint>
          <Trackpoint>
            <Time>2019-10-10T13:35:14.000Z</Time>
            <Position>
              <LatitudeDegrees>37.4095310457050800323486328125</LatitudeDegrees>
              <LongitudeDegrees>-6.035800091922283172607421875</LongitudeDegrees>
            </Position>
            <AltitudeMeters>-42</AltitudeMeters>
            <DistanceMeters>NAN</DistanceMeters>
          </Trackpoint>
          <Trackpoint>
            <Time>2019-10-10T13:35:16.000Z</Time>
            <Position>
              <LatitudeDegrees>37.4094435386359691619873046875</LatitudeDegrees>
              <LongitudeDegrees>-6.03577268309891223907470703125</LongitudeDegrees>
            </Position>
            <AltitudeMeters>-41.799999237060546875</AltitudeMeters>
            <DistanceMeters>NAN</DistanceMeters>
          </Trackpoint>
          <Trackpoint>
            <Time>2019-10-10T13:35:19.000Z</Time>
            <Position>
              <LatitudeDegrees>37.40935443900525569915771484375</LatitudeDegrees>
              <LongitudeDegrees>-6.0358243994414806365966796875</LongitudeDegrees>
            </Position>
            <AltitudeMeters>-41.59999847412109375</AltitudeMeters>
            <DistanceMeters>NAN</DistanceMeters>
          </Trackpoint>
          <Trackpoint>
            <Time>2019-10-10T13:35:20.000Z</Time>
            <Position>
              <LatitudeDegrees>37.40932040847837924957275390625</LatitudeDegrees>
              <LongitudeDegrees>-6.035851724445819854736328125</LongitudeDegrees>
            </Position>
            <AltitudeMeters>-41.40000152587890625</AltitudeMeters>
            <DistanceMeters>NAN</DistanceMeters>
          </Trackpoint>
          <Trackpoint>
            <Time>2019-10-10T13:35:22.000Z</Time>
            <Position>
              <LatitudeDegrees>37.40924052894115447998046875</LatitudeDegrees>
              <LongitudeDegrees>-6.035834290087223052978515625</LongitudeDegrees>
            </Position>
            <AltitudeMeters>-41.200000762939453125</AltitudeMeters>
            <DistanceMeters>NAN</DistanceMeters>
          </Trackpoint>
          <Trackpoint>
            <Time>2019-10-10T13:35:25.000Z</Time>
            <Position>
              <LatitudeDegrees>37.409201972186565399169921875</LatitudeDegrees>
              <LongitudeDegrees>-6.035669334232807159423828125</LongitudeDegrees>
            </Position>
            <AltitudeMeters>-41.40000152587890625</AltitudeMeters>
            <DistanceMeters>NAN</DistanceMeters>
          </Trackpoint>
          <Trackpoint>
            <Time>2019-10-10T13:35:26.000Z</Time>
            <Position>
              <LatitudeDegrees>37.409208007156848907470703125</LatitudeDegrees>
              <LongitudeDegrees>-6.03561225347220897674560546875</LongitudeDegrees>
            </Position>
            <AltitudeMeters>-41.40000152587890625</AltitudeMeters>
            <DistanceMeters>NAN</DistanceMeters>
          </Trackpoint>
          <Trackpoint>
            <Time>2019-10-10T13:35:27.000Z</Time>
            <Position>
              <LatitudeDegrees>37.40920968353748321533203125</LatitudeDegrees>
              <LongitudeDegrees>-6.03554855100810527801513671875</LongitudeDegrees>
            </Position>
            <AltitudeMeters>-41.59999847412109375</AltitudeMeters>
            <DistanceMeters>NAN</DistanceMeters>
          </Trackpoint>
          <Trackpoint>
            <Time>2019-10-10T13:35:30.000Z</Time>
            <Position>
              <LatitudeDegrees>37.4092068336904048919677734375</LatitudeDegrees>
              <LongitudeDegrees>-6.03534244000911712646484375</LongitudeDegrees>
            </Position>
            <AltitudeMeters>-42.59999847412109375</AltitudeMeters>
            <DistanceMeters>NAN</DistanceMeters>
          </Trackpoint>
          <Trackpoint>
            <Time>2019-10-10T13:35:31.000Z</Time>
            <Position>
              <LatitudeDegrees>37.4092024751007556915283203125</LatitudeDegrees>
              <LongitudeDegrees>-6.03527111001312732696533203125</LongitudeDegrees>
            </Position>
            <AltitudeMeters>-42.799999237060546875</AltitudeMeters>
            <DistanceMeters>NAN</DistanceMeters>
          </Trackpoint>
          <Trackpoint>
            <Time>2019-10-10T13:35:32.000Z</Time>
            <Position>
              <LatitudeDegrees>37.40919216535985469818115234375</LatitudeDegrees>
              <LongitudeDegrees>-6.03520095348358154296875</LongitudeDegrees>
            </Position>
            <AltitudeMeters>-43</AltitudeMeters>
            <DistanceMeters>NAN</DistanceMeters>
          </Trackpoint>
          <Trackpoint>
            <Time>2019-10-10T13:35:35.000Z</Time>
            <Position>
              <LatitudeDegrees>37.4091344140470027923583984375</LatitudeDegrees>
              <LongitudeDegrees>-6.03499777615070343017578125</LongitudeDegrees>
            </Position>
            <AltitudeMeters>-43.799999237060546875</AltitudeMeters>
            <DistanceMeters>NAN</DistanceMeters>
          </Trackpoint>
          <Trackpoint>
            <Time>2019-10-10T13:35:39.000Z</Time>
            <Position>
              <LatitudeDegrees>37.40900826640427112579345703125</LatitudeDegrees>
              <LongitudeDegrees>-6.03471119888126850128173828125</LongitudeDegrees>
            </Position>
            <AltitudeMeters>-45.200000762939453125</AltitudeMeters>
            <DistanceMeters>NAN</DistanceMeters>
          </Trackpoint>
          <Trackpoint>
            <Time>2019-10-10T13:35:40.000Z</Time>
            <Position>
              <LatitudeDegrees>37.4089721404016017913818359375</LatitudeDegrees>
              <LongitudeDegrees>-6.0346334986388683319091796875</LongitudeDegrees>
            </Position>
            <AltitudeMeters>-45.40000152587890625</AltitudeMeters>
            <DistanceMeters>NAN</DistanceMeters>
          </Trackpoint>
          <Trackpoint>
            <Time>2019-10-10T13:35:45.000Z</Time>
            <Position>
              <LatitudeDegrees>37.40877592004835605621337890625</LatitudeDegrees>
              <LongitudeDegrees>-6.0342258028686046600341796875</LongitudeDegrees>
            </Position>
            <AltitudeMeters>-46.40000152587890625</AltitudeMeters>
            <DistanceMeters>NAN</DistanceMeters>
          </Trackpoint>
          <Trackpoint>
            <Time>2019-10-10T13:35:47.000Z</Time>
            <Position>
              <LatitudeDegrees>37.408693693578243255615234375</LatitudeDegrees>
              <LongitudeDegrees>-6.03406227193772792816162109375</LongitudeDegrees>
            </Position>
            <AltitudeMeters>-46.799999237060546875</AltitudeMeters>
            <DistanceMeters>NAN</DistanceMeters>
          </Trackpoint>
          <Trackpoint>
            <Time>2019-10-10T13:35:50.000Z</Time>
            <Position>
              <LatitudeDegrees>37.408554889261722564697265625</LatitudeDegrees>
              <LongitudeDegrees>-6.03384149260818958282470703125</LongitudeDegrees>
            </Position>
            <AltitudeMeters>-47.40000152587890625</AltitudeMeters>
            <DistanceMeters>NAN</DistanceMeters>
          </Trackpoint>
          <Trackpoint>
            <Time>2019-10-10T13:35:51.000Z</Time>
            <Position>
              <LatitudeDegrees>37.40850283764302730560302734375</LatitudeDegrees>
              <LongitudeDegrees>-6.03377728722989559173583984375</LongitudeDegrees>
            </Position>
            <AltitudeMeters>-47.40000152587890625</AltitudeMeters>
            <DistanceMeters>NAN</DistanceMeters>
          </Trackpoint>
          <Trackpoint>
            <Time>2019-10-10T13:35:53.000Z</Time>
            <Position>
              <LatitudeDegrees>37.40839756093919277191162109375</LatitudeDegrees>
              <LongitudeDegrees>-6.0336519777774810791015625</LongitudeDegrees>
            </Position>
            <AltitudeMeters>-47</AltitudeMeters>
            <DistanceMeters>NAN</DistanceMeters>
          </Trackpoint>
          <Trackpoint>
            <Time>2019-10-10T13:35:56.000Z</Time>
            <Position>
              <LatitudeDegrees>37.40824199281632900238037109375</LatitudeDegrees>
              <LongitudeDegrees>-6.03349129669368267059326171875</LongitudeDegrees>
            </Position>
            <AltitudeMeters>-47.200000762939453125</AltitudeMeters>
            <DistanceMeters>NAN</DistanceMeters>
          </Trackpoint>
          <Trackpoint>
            <Time>2019-10-10T13:35:57.000Z</Time>
            <Position>
              <LatitudeDegrees>37.40818851627409458160400390625</LatitudeDegrees>
              <LongitudeDegrees>-6.03345257230103015899658203125</LongitudeDegrees>
            </Position>
            <AltitudeMeters>-47.200000762939453125</AltitudeMeters>
            <DistanceMeters>NAN</DistanceMeters>
          </Trackpoint>
          <Trackpoint>
            <Time>2019-10-10T13:35:58.000Z</Time>
            <Position>
              <LatitudeDegrees>37.408136464655399322509765625</LatitudeDegrees>
              <LongitudeDegrees>-6.03341133333742618560791015625</LongitudeDegrees>
            </Position>
            <AltitudeMeters>-47.200000762939453125</AltitudeMeters>
            <DistanceMeters>NAN</DistanceMeters>
          </Trackpoint>
          <Trackpoint>
            <Time>2019-10-10T13:36:06.000Z</Time>
            <Position>
              <LatitudeDegrees>37.40771695040166378021240234375</LatitudeDegrees>
              <LongitudeDegrees>-6.033074297010898590087890625</LongitudeDegrees>
            </Position>
            <AltitudeMeters>-47.40000152587890625</AltitudeMeters>
            <DistanceMeters>NAN</DistanceMeters>
          </Trackpoint>
          <Trackpoint>
            <Time>2019-10-10T13:36:14.000Z</Time>
            <Position>
              <LatitudeDegrees>37.407298944890499114990234375</LatitudeDegrees>
              <LongitudeDegrees>-6.032725274562835693359375</LongitudeDegrees>
            </Position>
            <AltitudeMeters>-47.799999237060546875</AltitudeMeters>
            <DistanceMeters>NAN</DistanceMeters>
          </Trackpoint>
          <Trackpoint>
            <Time>2019-10-10T13:36:19.000Z</Time>
            <Position>
              <LatitudeDegrees>37.40703281946480274200439453125</LatitudeDegrees>
              <LongitudeDegrees>-6.03252251632511615753173828125</LongitudeDegrees>
            </Position>
            <AltitudeMeters>-47.799999237060546875</AltitudeMeters>
            <DistanceMeters>NAN</DistanceMeters>
          </Trackpoint>
          <Trackpoint>
            <Time>2019-10-10T13:36:23.000Z</Time>
            <Position>
              <LatitudeDegrees>37.40682008676230907440185546875</LatitudeDegrees>
              <LongitudeDegrees>-6.03235471062362194061279296875</LongitudeDegrees>
            </Position>
            <AltitudeMeters>-47.40000152587890625</AltitudeMeters>
            <DistanceMeters>NAN</DistanceMeters>
          </Trackpoint>
          <Trackpoint>
            <Time>2019-10-10T13:36:28.000Z</Time>
            <Position>
              <LatitudeDegrees>37.40655186586081981658935546875</LatitudeDegrees>
              <LongitudeDegrees>-6.03216678835451602935791015625</LongitudeDegrees>
            </Position>
            <AltitudeMeters>-47.59999847412109375</AltitudeMeters>
            <DistanceMeters>NAN</DistanceMeters>
          </Trackpoint>
          <Trackpoint>
            <Time>2019-10-10T13:36:36.000Z</Time>
            <Position>
              <LatitudeDegrees>37.4061150848865509033203125</LatitudeDegrees>
              <LongitudeDegrees>-6.031870655715465545654296875</LongitudeDegrees>
            </Position>
            <AltitudeMeters>-47.799999237060546875</AltitudeMeters>
            <DistanceMeters>NAN</DistanceMeters>
          </Trackpoint>
          <Trackpoint>
            <Time>2019-10-10T13:36:44.000Z</Time>
            <Position>
              <LatitudeDegrees>37.4056803993880748748779296875</LatitudeDegrees>
              <LongitudeDegrees>-6.03157100267708301544189453125</LongitudeDegrees>
            </Position>
            <AltitudeMeters>-48</AltitudeMeters>
            <DistanceMeters>NAN</DistanceMeters>
          </Trackpoint>
          <Trackpoint>
            <Time>2019-10-10T13:36:47.000Z</Time>
            <Position>
              <LatitudeDegrees>37.4055328778922557830810546875</LatitudeDegrees>
              <LongitudeDegrees>-6.031466983258724212646484375</LongitudeDegrees>
            </Position>
            <AltitudeMeters>-47.799999237060546875</AltitudeMeters>
            <DistanceMeters>NAN</DistanceMeters>
          </Trackpoint>
          <Trackpoint>
            <Time>2019-10-10T13:36:49.000Z</Time>
            <Position>
              <LatitudeDegrees>37.40543321706354618072509765625</LatitudeDegrees>
              <LongitudeDegrees>-6.0313900373876094818115234375</LongitudeDegrees>
            </Position>
            <AltitudeMeters>-47.59999847412109375</AltitudeMeters>
            <DistanceMeters>NAN</DistanceMeters>
          </Trackpoint>
          <Trackpoint>
            <Time>2019-10-10T13:36:55.000Z</Time>
            <Position>
              <LatitudeDegrees>37.405112944543361663818359375</LatitudeDegrees>
              <LongitudeDegrees>-6.031148135662078857421875</LongitudeDegrees>
            </Position>
            <AltitudeMeters>-48.200000762939453125</AltitudeMeters>
            <DistanceMeters>NAN</DistanceMeters>
          </Trackpoint>
          <Trackpoint>
            <Time>2019-10-10T13:37:03.000Z</Time>
            <Position>
              <LatitudeDegrees>37.40467934869229793548583984375</LatitudeDegrees>
              <LongitudeDegrees>-6.03084915317595005035400390625</LongitudeDegrees>
            </Position>
            <AltitudeMeters>-48</AltitudeMeters>
            <DistanceMeters>NAN</DistanceMeters>
          </Trackpoint>
          <Trackpoint>
            <Time>2019-10-10T13:37:12.000Z</Time>
            <Position>
              <LatitudeDegrees>37.40419889800250530242919921875</LatitudeDegrees>
              <LongitudeDegrees>-6.03047691285610198974609375</LongitudeDegrees>
            </Position>
            <AltitudeMeters>-48.200000762939453125</AltitudeMeters>
            <DistanceMeters>NAN</DistanceMeters>
          </Trackpoint>
          <Trackpoint>
            <Time>2019-10-10T13:37:20.000Z</Time>
            <Position>
              <LatitudeDegrees>37.4037703312933444976806640625</LatitudeDegrees>
              <LongitudeDegrees>-6.03015831671655178070068359375</LongitudeDegrees>
            </Position>
            <AltitudeMeters>-48.40000152587890625</AltitudeMeters>
            <DistanceMeters>NAN</DistanceMeters>
          </Trackpoint>
          <Trackpoint>
            <Time>2019-10-10T13:37:21.000Z</Time>
            <Position>
              <LatitudeDegrees>37.4037173576653003692626953125</LatitudeDegrees>
              <LongitudeDegrees>-6.0301168262958526611328125</LongitudeDegrees>
            </Position>
            <AltitudeMeters>-48.59999847412109375</AltitudeMeters>
            <DistanceMeters>NAN</DistanceMeters>
          </Trackpoint>
          <Trackpoint>
            <Time>2019-10-10T13:37:27.000Z</Time>
            <Position>
              <LatitudeDegrees>37.40340580232441425323486328125</LatitudeDegrees>
              <LongitudeDegrees>-6.02987400256097316741943359375</LongitudeDegrees>
            </Position>
            <AltitudeMeters>-48.200000762939453125</AltitudeMeters>
            <DistanceMeters>NAN</DistanceMeters>
          </Trackpoint>
          <Trackpoint>
            <Time>2019-10-10T13:37:33.000Z</Time>
            <Position>
              <LatitudeDegrees>37.40307237021625041961669921875</LatitudeDegrees>
              <LongitudeDegrees>-6.02966143749654293060302734375</LongitudeDegrees>
            </Position>
            <AltitudeMeters>-48.200000762939453125</AltitudeMeters>
            <DistanceMeters>NAN</DistanceMeters>
          </Trackpoint>
          <Trackpoint>
            <Time>2019-10-10T13:37:36.000Z</Time>
            <Position>
              <LatitudeDegrees>37.40291764028370380401611328125</LatitudeDegrees>
              <LongitudeDegrees>-6.02953948080539703369140625</LongitudeDegrees>
            </Position>
            <AltitudeMeters>-48.200000762939453125</AltitudeMeters>
            <DistanceMeters>NAN</DistanceMeters>
          </Trackpoint>
          <Trackpoint>
            <Time>2019-10-10T13:37:40.000Z</Time>
            <Position>
              <LatitudeDegrees>37.40273793227970600128173828125</LatitudeDegrees>
              <LongitudeDegrees>-6.02936245501041412353515625</LongitudeDegrees>
            </Position>
            <AltitudeMeters>-48.40000152587890625</AltitudeMeters>
            <DistanceMeters>NAN</DistanceMeters>
          </Trackpoint>
          <Trackpoint>
            <Time>2019-10-10T13:37:42.000Z</Time>
            <Position>
              <LatitudeDegrees>37.40268965251743793487548828125</LatitudeDegrees>
              <LongitudeDegrees>-6.02925156243145465850830078125</LongitudeDegrees>
            </Position>
            <AltitudeMeters>-48.40000152587890625</AltitudeMeters>
            <DistanceMeters>NAN</DistanceMeters>
          </Trackpoint>
          <Trackpoint>
            <Time>2019-10-10T13:37:45.000Z</Time>
            <Position>
              <LatitudeDegrees>37.40255587734282016754150390625</LatitudeDegrees>
              <LongitudeDegrees>-6.029121391475200653076171875</LongitudeDegrees>
            </Position>
            <AltitudeMeters>-48.200000762939453125</AltitudeMeters>
            <DistanceMeters>NAN</DistanceMeters>
          </Trackpoint>
          <Trackpoint>
            <Time>2019-10-10T13:37:53.000Z</Time>
            <Position>
              <LatitudeDegrees>37.40214868448674678802490234375</LatitudeDegrees>
              <LongitudeDegrees>-6.02882341481745243072509765625</LongitudeDegrees>
            </Position>
            <AltitudeMeters>-48.59999847412109375</AltitudeMeters>
            <DistanceMeters>NAN</DistanceMeters>
          </Trackpoint>
          <Trackpoint>
            <Time>2019-10-10T13:38:02.000Z</Time>
            <Position>
              <LatitudeDegrees>37.4016906134784221649169921875</LatitudeDegrees>
              <LongitudeDegrees>-6.02847891859710216522216796875</LongitudeDegrees>
            </Position>
            <AltitudeMeters>-48.59999847412109375</AltitudeMeters>
            <DistanceMeters>NAN</DistanceMeters>
          </Trackpoint>
          <Trackpoint>
            <Time>2019-10-10T13:38:10.000Z</Time>
            <Position>
              <LatitudeDegrees>37.4012792296707630157470703125</LatitudeDegrees>
              <LongitudeDegrees>-6.02819435298442840576171875</LongitudeDegrees>
            </Position>
            <AltitudeMeters>-48.59999847412109375</AltitudeMeters>
            <DistanceMeters>NAN</DistanceMeters>
          </Trackpoint>
          <Trackpoint>
            <Time>2019-10-10T13:38:19.000Z</Time>
            <Position>
              <LatitudeDegrees>37.4008111841976642608642578125</LatitudeDegrees>
              <LongitudeDegrees>-6.0278807021677494049072265625</LongitudeDegrees>
            </Position>
            <AltitudeMeters>-48.799999237060546875</AltitudeMeters>
            <DistanceMeters>NAN</DistanceMeters>
          </Trackpoint>
          <Trackpoint>
            <Time>2019-10-10T13:38:21.000Z</Time>
            <Position>
              <LatitudeDegrees>37.40070112980902194976806640625</LatitudeDegrees>
              <LongitudeDegrees>-6.02782445959746837615966796875</LongitudeDegrees>
            </Position>
            <AltitudeMeters>-48.40000152587890625</AltitudeMeters>
            <DistanceMeters>NAN</DistanceMeters>
          </Trackpoint>
          <Trackpoint>
            <Time>2019-10-10T13:38:23.000Z</Time>
            <Position>
              <LatitudeDegrees>37.4005912430584430694580078125</LatitudeDegrees>
              <LongitudeDegrees>-6.0277754254639148712158203125</LongitudeDegrees>
            </Position>
            <AltitudeMeters>-48.799999237060546875</AltitudeMeters>
            <DistanceMeters>NAN</DistanceMeters>
          </Trackpoint>
          <Trackpoint>
            <Time>2019-10-10T13:38:24.000Z</Time>
            <Position>
              <LatitudeDegrees>37.40054438821971416473388671875</LatitudeDegrees>
              <LongitudeDegrees>-6.02773695252835750579833984375</LongitudeDegrees>
            </Position>
            <AltitudeMeters>-48.59999847412109375</AltitudeMeters>
            <DistanceMeters>NAN</DistanceMeters>
          </Trackpoint>
          <Trackpoint>
            <Time>2019-10-10T13:38:27.000Z</Time>
            <Position>
              <LatitudeDegrees>37.40044112317264080047607421875</LatitudeDegrees>
              <LongitudeDegrees>-6.02759311906993389129638671875</LongitudeDegrees>
            </Position>
            <AltitudeMeters>-48.40000152587890625</AltitudeMeters>
            <DistanceMeters>NAN</DistanceMeters>
          </Trackpoint>
          <Trackpoint>
            <Time>2019-10-10T13:38:31.000Z</Time>
            <Position>
              <LatitudeDegrees>37.40028169937431812286376953125</LatitudeDegrees>
              <LongitudeDegrees>-6.027528159320354461669921875</LongitudeDegrees>
            </Position>
            <AltitudeMeters>-48.59999847412109375</AltitudeMeters>
            <DistanceMeters>NAN</DistanceMeters>
          </Trackpoint>
          <Trackpoint>
            <Time>2019-10-10T13:38:32.000Z</Time>
            <Position>
              <LatitudeDegrees>37.40023576654493808746337890625</LatitudeDegrees>
              <LongitudeDegrees>-6.02750678546726703643798828125</LongitudeDegrees>
            </Position>
            <AltitudeMeters>-48.59999847412109375</AltitudeMeters>
            <DistanceMeters>NAN</DistanceMeters>
          </Trackpoint>
          <Trackpoint>
            <Time>2019-10-10T13:38:35.000Z</Time>
            <Position>
              <LatitudeDegrees>37.4000863172113895416259765625</LatitudeDegrees>
              <LongitudeDegrees>-6.02742455899715423583984375</LongitudeDegrees>
            </Position>
            <AltitudeMeters>-48.799999237060546875</AltitudeMeters>
            <DistanceMeters>NAN</DistanceMeters>
          </Trackpoint>
          <Trackpoint>
            <Time>2019-10-10T13:38:40.000Z</Time>
            <Position>
              <LatitudeDegrees>37.39980409853160381317138671875</LatitudeDegrees>
              <LongitudeDegrees>-6.027305535972118377685546875</LongitudeDegrees>
            </Position>
            <AltitudeMeters>-48.59999847412109375</AltitudeMeters>
            <DistanceMeters>NAN</DistanceMeters>
          </Trackpoint>
          <Trackpoint>
            <Time>2019-10-10T13:38:44.000Z</Time>
            <Position>
              <LatitudeDegrees>37.39956705830991268157958984375</LatitudeDegrees>
              <LongitudeDegrees>-6.02722381241619586944580078125</LongitudeDegrees>
            </Position>
            <AltitudeMeters>-49.200000762939453125</AltitudeMeters>
            <DistanceMeters>NAN</DistanceMeters>
          </Trackpoint>
          <Trackpoint>
            <Time>2019-10-10T13:38:54.000Z</Time>
            <Position>
              <LatitudeDegrees>37.39901125431060791015625</LatitudeDegrees>
              <LongitudeDegrees>-6.026979647576808929443359375</LongitudeDegrees>
            </Position>
            <AltitudeMeters>-48.799999237060546875</AltitudeMeters>
            <DistanceMeters>NAN</DistanceMeters>
          </Trackpoint>
          <Trackpoint>
            <Time>2019-10-10T13:38:55.000Z</Time>
            <Position>
              <LatitudeDegrees>37.39895467646420001983642578125</LatitudeDegrees>
              <LongitudeDegrees>-6.026950813829898834228515625</LongitudeDegrees>
            </Position>
            <AltitudeMeters>-49</AltitudeMeters>
            <DistanceMeters>NAN</DistanceMeters>
          </Trackpoint>
          <Trackpoint>
            <Time>2019-10-10T13:39:04.000Z</Time>
            <Position>
              <LatitudeDegrees>37.3984548635780811309814453125</LatitudeDegrees>
              <LongitudeDegrees>-6.026734225451946258544921875</LongitudeDegrees>
            </Position>
            <AltitudeMeters>-48.59999847412109375</AltitudeMeters>
            <DistanceMeters>NAN</DistanceMeters>
          </Trackpoint>
          <Trackpoint>
            <Time>2019-10-10T13:39:13.000Z</Time>
            <Position>
              <LatitudeDegrees>37.3979397118091583251953125</LatitudeDegrees>
              <LongitudeDegrees>-6.02651436813175678253173828125</LongitudeDegrees>
            </Position>
            <AltitudeMeters>-48.799999237060546875</AltitudeMeters>
            <DistanceMeters>NAN</DistanceMeters>
          </Trackpoint>
          <Trackpoint>
            <Time>2019-10-10T13:39:18.000Z</Time>
            <Position>
              <LatitudeDegrees>37.39765095524489879608154296875</LatitudeDegrees>
              <LongitudeDegrees>-6.02641529403626918792724609375</LongitudeDegrees>
            </Position>
            <AltitudeMeters>-49.200000762939453125</AltitudeMeters>
            <DistanceMeters>NAN</DistanceMeters>
          </Trackpoint>
          <Trackpoint>
            <Time>2019-10-10T13:39:19.000Z</Time>
            <Position>
              <LatitudeDegrees>37.39759161137044429779052734375</LatitudeDegrees>
              <LongitudeDegrees>-6.026408337056636810302734375</LongitudeDegrees>
            </Position>
            <AltitudeMeters>-49.200000762939453125</AltitudeMeters>
            <DistanceMeters>NAN</DistanceMeters>
          </Trackpoint>
          <Trackpoint>
            <Time>2019-10-10T13:39:22.000Z</Time>
            <Position>
              <LatitudeDegrees>37.39740955643355846405029296875</LatitudeDegrees>
              <LongitudeDegrees>-6.026342622935771942138671875</LongitudeDegrees>
            </Position>
            <AltitudeMeters>-49.200000762939453125</AltitudeMeters>
            <DistanceMeters>NAN</DistanceMeters>
          </Trackpoint>
          <Trackpoint>
            <Time>2019-10-10T13:39:23.000Z</Time>
            <Position>
              <LatitudeDegrees>37.3973491229116916656494140625</LatitudeDegrees>
              <LongitudeDegrees>-6.0263176448643207550048828125</LongitudeDegrees>
            </Position>
            <AltitudeMeters>-49.200000762939453125</AltitudeMeters>
            <DistanceMeters>NAN</DistanceMeters>
          </Trackpoint>
          <Trackpoint>
            <Time>2019-10-10T13:39:32.000Z</Time>
            <Position>
              <LatitudeDegrees>37.3968267627060413360595703125</LatitudeDegrees>
              <LongitudeDegrees>-6.0261399485170841217041015625</LongitudeDegrees>
            </Position>
            <AltitudeMeters>-49.40000152587890625</AltitudeMeters>
            <DistanceMeters>NAN</DistanceMeters>
          </Trackpoint>
          <Trackpoint>
            <Time>2019-10-10T13:39:37.000Z</Time>
            <Position>
              <LatitudeDegrees>37.39653498865664005279541015625</LatitudeDegrees>
              <LongitudeDegrees>-6.02606870234012603759765625</LongitudeDegrees>
            </Position>
            <AltitudeMeters>-49.799999237060546875</AltitudeMeters>
            <DistanceMeters>NAN</DistanceMeters>
          </Trackpoint>
          <Trackpoint>
            <Time>2019-10-10T13:39:41.000Z</Time>
            <Position>
              <LatitudeDegrees>37.39629979245364665985107421875</LatitudeDegrees>
              <LongitudeDegrees>-6.0260128788650035858154296875</LongitudeDegrees>
            </Position>
            <AltitudeMeters>-49.799999237060546875</AltitudeMeters>
            <DistanceMeters>NAN</DistanceMeters>
          </Trackpoint>
          <Trackpoint>
            <Time>2019-10-10T13:39:50.000Z</Time>
            <Position>
              <LatitudeDegrees>37.39575496874749660491943359375</LatitudeDegrees>
              <LongitudeDegrees>-6.02592126466333866119384765625</LongitudeDegrees>
            </Position>
            <AltitudeMeters>-49.799999237060546875</AltitudeMeters>
            <DistanceMeters>NAN</DistanceMeters>
          </Trackpoint>
          <Trackpoint>
            <Time>2019-10-10T13:39:59.000Z</Time>
            <Position>
              <LatitudeDegrees>37.3952127434313297271728515625</LatitudeDegrees>
              <LongitudeDegrees>-6.0258413851261138916015625</LongitudeDegrees>
            </Position>
            <AltitudeMeters>-50.200000762939453125</AltitudeMeters>
            <DistanceMeters>NAN</DistanceMeters>
          </Trackpoint>
          <Trackpoint>
            <Time>2019-10-10T13:40:04.000Z</Time>
            <Position>
              <LatitudeDegrees>37.39492549560964107513427734375</LatitudeDegrees>
              <LongitudeDegrees>-6.0258026607334613800048828125</LongitudeDegrees>
            </Position>
            <AltitudeMeters>-50.200000762939453125</AltitudeMeters>
            <DistanceMeters>NAN</DistanceMeters>
          </Trackpoint>
          <Trackpoint>
            <Time>2019-10-10T13:40:06.000Z</Time>
            <Position>
              <LatitudeDegrees>37.39482189528644084930419921875</LatitudeDegrees>
              <LongitudeDegrees>-6.02580861188471317291259765625</LongitudeDegrees>
            </Position>
            <AltitudeMeters>-50.200000762939453125</AltitudeMeters>
            <DistanceMeters>NAN</DistanceMeters>
          </Trackpoint>
          <Trackpoint>
            <Time>2019-10-10T13:40:07.000Z</Time>
            <Position>
              <LatitudeDegrees>37.39477495662868022918701171875</LatitudeDegrees>
              <LongitudeDegrees>-6.025803498923778533935546875</LongitudeDegrees>
            </Position>
            <AltitudeMeters>-50.200000762939453125</AltitudeMeters>
            <DistanceMeters>NAN</DistanceMeters>
          </Trackpoint>
          <Trackpoint>
            <Time>2019-10-10T13:40:09.000Z</Time>
            <Position>
              <LatitudeDegrees>37.3947021178901195526123046875</LatitudeDegrees>
              <LongitudeDegrees>-6.02572269737720489501953125</LongitudeDegrees>
            </Position>
            <AltitudeMeters>-49.799999237060546875</AltitudeMeters>
            <DistanceMeters>NAN</DistanceMeters>
          </Trackpoint>
          <Trackpoint>
            <Time>2019-10-10T13:40:12.000Z</Time>
            <Position>
              <LatitudeDegrees>37.3946427740156650543212890625</LatitudeDegrees>
              <LongitudeDegrees>-6.02554340846836566925048828125</LongitudeDegrees>
            </Position>
            <AltitudeMeters>-49.799999237060546875</AltitudeMeters>
            <DistanceMeters>NAN</DistanceMeters>
          </Trackpoint>
          <Trackpoint>
            <Time>2019-10-10T13:40:14.000Z</Time>
            <Position>
              <LatitudeDegrees>37.3946099169552326202392578125</LatitudeDegrees>
              <LongitudeDegrees>-6.02542187087237834930419921875</LongitudeDegrees>
            </Position>
            <AltitudeMeters>-49.799999237060546875</AltitudeMeters>
            <DistanceMeters>NAN</DistanceMeters>
          </Trackpoint>
          <Trackpoint>
            <Time>2019-10-10T13:40:18.000Z</Time>
            <Position>
              <LatitudeDegrees>37.39455585367977619171142578125</LatitudeDegrees>
              <LongitudeDegrees>-6.02517879568040370941162109375</LongitudeDegrees>
            </Position>
            <AltitudeMeters>-49.200000762939453125</AltitudeMeters>
            <DistanceMeters>NAN</DistanceMeters>
          </Trackpoint>
          <Trackpoint>
            <Time>2019-10-10T13:40:20.000Z</Time>
            <Position>
              <LatitudeDegrees>37.39454043097794055938720703125</LatitudeDegrees>
              <LongitudeDegrees>-6.0250663943588733673095703125</LongitudeDegrees>
            </Position>
            <AltitudeMeters>-48.200000762939453125</AltitudeMeters>
            <DistanceMeters>NAN</DistanceMeters>
          </Trackpoint>
          <Trackpoint>
            <Time>2019-10-10T13:40:21.000Z</Time>
            <Position>
              <LatitudeDegrees>37.39453121088445186614990234375</LatitudeDegrees>
              <LongitudeDegrees>-6.02501593530178070068359375</LongitudeDegrees>
            </Position>
            <AltitudeMeters>-48</AltitudeMeters>
            <DistanceMeters>NAN</DistanceMeters>
          </Trackpoint>
          <Trackpoint>
            <Time>2019-10-10T13:40:24.000Z</Time>
            <Position>
              <LatitudeDegrees>37.39450673572719097137451171875</LatitudeDegrees>
              <LongitudeDegrees>-6.02484821341931819915771484375</LongitudeDegrees>
            </Position>
            <AltitudeMeters>-47.200000762939453125</AltitudeMeters>
            <DistanceMeters>NAN</DistanceMeters>
          </Trackpoint>
          <Trackpoint>
            <Time>2019-10-10T13:40:26.000Z</Time>
            <Position>
              <LatitudeDegrees>37.394471280276775360107421875</LatitudeDegrees>
              <LongitudeDegrees>-6.02471209131181240081787109375</LongitudeDegrees>
            </Position>
            <AltitudeMeters>-47.200000762939453125</AltitudeMeters>
            <DistanceMeters>NAN</DistanceMeters>
          </Trackpoint>
          <Trackpoint>
            <Time>2019-10-10T13:40:29.000Z</Time>
            <Position>
              <LatitudeDegrees>37.394388131797313690185546875</LatitudeDegrees>
              <LongitudeDegrees>-6.02449852041900157928466796875</LongitudeDegrees>
            </Position>
            <AltitudeMeters>-48.799999237060546875</AltitudeMeters>
            <DistanceMeters>NAN</DistanceMeters>
          </Trackpoint>
          <Trackpoint>
            <Time>2019-10-10T13:40:31.000Z</Time>
            <Position>
              <LatitudeDegrees>37.39432878792285919189453125</LatitudeDegrees>
              <LongitudeDegrees>-6.024337001144886016845703125</LongitudeDegrees>
            </Position>
            <AltitudeMeters>-49.200000762939453125</AltitudeMeters>
            <DistanceMeters>NAN</DistanceMeters>
          </Trackpoint>
          <Trackpoint>
            <Time>2019-10-10T13:40:34.000Z</Time>
            <Position>
              <LatitudeDegrees>37.39423566497862339019775390625</LatitudeDegrees>
              <LongitudeDegrees>-6.02408965118229389190673828125</LongitudeDegrees>
            </Position>
            <AltitudeMeters>-50</AltitudeMeters>
            <DistanceMeters>NAN</DistanceMeters>
          </Trackpoint>
          <Trackpoint>
            <Time>2019-10-10T13:40:40.000Z</Time>
            <Position>
              <LatitudeDegrees>37.394065596163272857666015625</LatitudeDegrees>
              <LongitudeDegrees>-6.0236169956624507904052734375</LongitudeDegrees>
            </Position>
            <AltitudeMeters>-50</AltitudeMeters>
            <DistanceMeters>NAN</DistanceMeters>
          </Trackpoint>
          <Trackpoint>
            <Time>2019-10-10T13:40:48.000Z</Time>
            <Position>
              <LatitudeDegrees>37.3938474990427494049072265625</LatitudeDegrees>
              <LongitudeDegrees>-6.02301140315830707550048828125</LongitudeDegrees>
            </Position>
            <AltitudeMeters>-50</AltitudeMeters>
            <DistanceMeters>NAN</DistanceMeters>
          </Trackpoint>
          <Trackpoint>
            <Time>2019-10-10T13:40:50.000Z</Time>
            <Position>
              <LatitudeDegrees>37.3937941901385784149169921875</LatitudeDegrees>
              <LongitudeDegrees>-6.0228622891008853912353515625</LongitudeDegrees>
            </Position>
            <AltitudeMeters>-50.40000152587890625</AltitudeMeters>
            <DistanceMeters>NAN</DistanceMeters>
          </Trackpoint>
          <Trackpoint>
            <Time>2019-10-10T13:40:59.000Z</Time>
            <Position>
              <LatitudeDegrees>37.3935551382601261138916015625</LatitudeDegrees>
              <LongitudeDegrees>-6.02219483815133571624755859375</LongitudeDegrees>
            </Position>
            <AltitudeMeters>-50.200000762939453125</AltitudeMeters>
            <DistanceMeters>NAN</DistanceMeters>
          </Trackpoint>
          <Trackpoint>
            <Time>2019-10-10T13:41:02.000Z</Time>
            <Position>
              <LatitudeDegrees>37.39348112605512142181396484375</LatitudeDegrees>
              <LongitudeDegrees>-6.02197690866887569427490234375</LongitudeDegrees>
            </Position>
            <AltitudeMeters>-50</AltitudeMeters>
            <DistanceMeters>NAN</DistanceMeters>
          </Trackpoint>
          <Trackpoint>
            <Time>2019-10-10T13:41:10.000Z</Time>
            <Position>
              <LatitudeDegrees>37.3933167569339275360107421875</LatitudeDegrees>
              <LongitudeDegrees>-6.021374501287937164306640625</LongitudeDegrees>
            </Position>
            <AltitudeMeters>-50</AltitudeMeters>
            <DistanceMeters>NAN</DistanceMeters>
          </Trackpoint>
          <Trackpoint>
            <Time>2019-10-10T13:41:18.000Z</Time>
            <Position>
              <LatitudeDegrees>37.3931846581399440765380859375</LatitudeDegrees>
              <LongitudeDegrees>-6.02074845694005489349365234375</LongitudeDegrees>
            </Position>
            <AltitudeMeters>-50.200000762939453125</AltitudeMeters>
            <DistanceMeters>NAN</DistanceMeters>
          </Trackpoint>
          <Trackpoint>
            <Time>2019-10-10T13:41:26.000Z</Time>
            <Position>
              <LatitudeDegrees>37.39305247552692890167236328125</LatitudeDegrees>
              <LongitudeDegrees>-6.0201542638242244720458984375</LongitudeDegrees>
            </Position>
            <AltitudeMeters>-48.799999237060546875</AltitudeMeters>
            <DistanceMeters>NAN</DistanceMeters>
          </Trackpoint>
          <Trackpoint>
            <Time>2019-10-10T13:41:29.000Z</Time>
            <Position>
              <LatitudeDegrees>37.3930071294307708740234375</LatitudeDegrees>
              <LongitudeDegrees>-6.01994513534009456634521484375</LongitudeDegrees>
            </Position>
            <AltitudeMeters>-48.799999237060546875</AltitudeMeters>
            <DistanceMeters>NAN</DistanceMeters>
          </Trackpoint>
          <Trackpoint>
            <Time>2019-10-10T13:41:34.000Z</Time>
            <Position>
              <LatitudeDegrees>37.392931692302227020263671875</LatitudeDegrees>
              <LongitudeDegrees>-6.019622348248958587646484375</LongitudeDegrees>
            </Position>
            <AltitudeMeters>-47.799999237060546875</AltitudeMeters>
            <DistanceMeters>NAN</DistanceMeters>
          </Trackpoint>
          <Trackpoint>
            <Time>2019-10-10T13:41:36.000Z</Time>
            <Position>
              <LatitudeDegrees>37.3929040320217609405517578125</LatitudeDegrees>
              <LongitudeDegrees>-6.01949502713978290557861328125</LongitudeDegrees>
            </Position>
            <AltitudeMeters>-47</AltitudeMeters>
            <DistanceMeters>NAN</DistanceMeters>
          </Trackpoint>
          <Trackpoint>
            <Time>2019-10-10T13:41:40.000Z</Time>
            <Position>
              <LatitudeDegrees>37.39284896291792392730712890625</LatitudeDegrees>
              <LongitudeDegrees>-6.0192413069307804107666015625</LongitudeDegrees>
            </Position>
            <AltitudeMeters>-47.200000762939453125</AltitudeMeters>
            <DistanceMeters>NAN</DistanceMeters>
          </Trackpoint>
          <Trackpoint>
            <Time>2019-10-10T13:41:42.000Z</Time>
            <Position>
              <LatitudeDegrees>37.39281962625682353973388671875</LatitudeDegrees>
              <LongitudeDegrees>-6.01911482401192188262939453125</LongitudeDegrees>
            </Position>
            <AltitudeMeters>-46.59999847412109375</AltitudeMeters>
            <DistanceMeters>NAN</DistanceMeters>
          </Trackpoint>
          <Trackpoint>
            <Time>2019-10-10T13:41:43.000Z</Time>
            <Position>
              <LatitudeDegrees>37.39280470646917819976806640625</LatitudeDegrees>
              <LongitudeDegrees>-6.01905162446200847625732421875</LongitudeDegrees>
            </Position>
            <AltitudeMeters>-46</AltitudeMeters>
            <DistanceMeters>NAN</DistanceMeters>
          </Trackpoint>
          <Trackpoint>
            <Time>2019-10-10T13:41:47.000Z</Time>
            <Position>
              <LatitudeDegrees>37.3927509784698486328125</LatitudeDegrees>
              <LongitudeDegrees>-6.0188044421374797821044921875</LongitudeDegrees>
            </Position>
            <AltitudeMeters>-46.200000762939453125</AltitudeMeters>
            <DistanceMeters>NAN</DistanceMeters>
          </Trackpoint>
          <Trackpoint>
            <Time>2019-10-10T13:41:49.000Z</Time>
            <Position>
              <LatitudeDegrees>37.39272155798971652984619140625</LatitudeDegrees>
              <LongitudeDegrees>-6.0186773724853992462158203125</LongitudeDegrees>
            </Position>
            <AltitudeMeters>-45</AltitudeMeters>
            <DistanceMeters>NAN</DistanceMeters>
          </Trackpoint>
          <Trackpoint>
            <Time>2019-10-10T13:41:52.000Z</Time>
            <Position>
              <LatitudeDegrees>37.39267528988420963287353515625</LatitudeDegrees>
              <LongitudeDegrees>-6.01849338971078395843505859375</LongitudeDegrees>
            </Position>
            <AltitudeMeters>-44.59999847412109375</AltitudeMeters>
            <DistanceMeters>NAN</DistanceMeters>
          </Trackpoint>
          <Trackpoint>
            <Time>2019-10-10T13:41:59.000Z</Time>
            <Position>
              <LatitudeDegrees>37.39257822744548320770263671875</LatitudeDegrees>
              <LongitudeDegrees>-6.018044538795948028564453125</LongitudeDegrees>
            </Position>
            <AltitudeMeters>-44.200000762939453125</AltitudeMeters>
            <DistanceMeters>NAN</DistanceMeters>
          </Trackpoint>
          <Trackpoint>
            <Time>2019-10-10T13:42:01.000Z</Time>
            <Position>
              <LatitudeDegrees>37.39255509339272975921630859375</LatitudeDegrees>
              <LongitudeDegrees>-6.01791369728744029998779296875</LongitudeDegrees>
            </Position>
            <AltitudeMeters>-44.200000762939453125</AltitudeMeters>
            <DistanceMeters>NAN</DistanceMeters>
          </Trackpoint>
          <Trackpoint>
            <Time>2019-10-10T13:42:08.000Z</Time>
            <Position>
              <LatitudeDegrees>37.39246691577136516571044921875</LatitudeDegrees>
              <LongitudeDegrees>-6.0175260342657566070556640625</LongitudeDegrees>
            </Position>
            <AltitudeMeters>-44.200000762939453125</AltitudeMeters>
            <DistanceMeters>NAN</DistanceMeters>
          </Trackpoint>
          <Trackpoint>
            <Time>2019-10-10T13:42:10.000Z</Time>
            <Position>
              <LatitudeDegrees>37.392443530261516571044921875</LatitudeDegrees>
              <LongitudeDegrees>-6.01741681806743144989013671875</LongitudeDegrees>
            </Position>
            <AltitudeMeters>-44</AltitudeMeters>
            <DistanceMeters>NAN</DistanceMeters>
          </Trackpoint>
          <Trackpoint>
            <Time>2019-10-10T13:42:15.000Z</Time>
            <Position>
              <LatitudeDegrees>37.39238125272095203399658203125</LatitudeDegrees>
              <LongitudeDegrees>-6.01713686250150203704833984375</LongitudeDegrees>
            </Position>
            <AltitudeMeters>-44.200000762939453125</AltitudeMeters>
            <DistanceMeters>NAN</DistanceMeters>
          </Trackpoint>
          <Trackpoint>
            <Time>2019-10-10T13:42:22.000Z</Time>
            <Position>
              <LatitudeDegrees>37.39228762686252593994140625</LatitudeDegrees>
              <LongitudeDegrees>-6.016745008528232574462890625</LongitudeDegrees>
            </Position>
            <AltitudeMeters>-44.200000762939453125</AltitudeMeters>
            <DistanceMeters>NAN</DistanceMeters>
          </Trackpoint>
          <Trackpoint>
            <Time>2019-10-10T13:42:25.000Z</Time>
            <Position>
              <LatitudeDegrees>37.39225007593631744384765625</LatitudeDegrees>
              <LongitudeDegrees>-6.01657493971288204193115234375</LongitudeDegrees>
            </Position>
            <AltitudeMeters>-44.200000762939453125</AltitudeMeters>
            <DistanceMeters>NAN</DistanceMeters>
          </Trackpoint>
          <Trackpoint>
            <Time>2019-10-10T13:42:33.000Z</Time>
            <Position>
              <LatitudeDegrees>37.3921479843556880950927734375</LatitudeDegrees>
              <LongitudeDegrees>-6.0161088220775127410888671875</LongitudeDegrees>
            </Position>
            <AltitudeMeters>-44.200000762939453125</AltitudeMeters>
            <DistanceMeters>NAN</DistanceMeters>
          </Trackpoint>
          <Trackpoint>
            <Time>2019-10-10T13:42:35.000Z</Time>
            <Position>
              <LatitudeDegrees>37.39212292246520519256591796875</LatitudeDegrees>
              <LongitudeDegrees>-6.0159911401569843292236328125</LongitudeDegrees>
            </Position>
            <AltitudeMeters>-44.40000152587890625</AltitudeMeters>
            <DistanceMeters>NAN</DistanceMeters>
          </Trackpoint>
          <Trackpoint>
            <Time>2019-10-10T13:42:42.000Z</Time>
            <Position>
              <LatitudeDegrees>37.3920336551964282989501953125</LatitudeDegrees>
              <LongitudeDegrees>-6.01560163311660289764404296875</LongitudeDegrees>
            </Position>
            <AltitudeMeters>-44.59999847412109375</AltitudeMeters>
            <DistanceMeters>NAN</DistanceMeters>
          </Trackpoint>
          <Trackpoint>
            <Time>2019-10-10T13:42:48.000Z</Time>
            <Position>
              <LatitudeDegrees>37.39195897243916988372802734375</LatitudeDegrees>
              <LongitudeDegrees>-6.01522126235067844390869140625</LongitudeDegrees>
            </Position>
            <AltitudeMeters>-44.799999237060546875</AltitudeMeters>
            <DistanceMeters>NAN</DistanceMeters>
          </Trackpoint>
          <Trackpoint>
            <Time>2019-10-10T13:42:49.000Z</Time>
            <Position>
              <LatitudeDegrees>37.39195008762180805206298828125</LatitudeDegrees>
              <LongitudeDegrees>-6.015145070850849151611328125</LongitudeDegrees>
            </Position>
            <AltitudeMeters>-45</AltitudeMeters>
            <DistanceMeters>NAN</DistanceMeters>
          </Trackpoint>
          <Trackpoint>
            <Time>2019-10-10T13:42:50.000Z</Time>
            <Position>
              <LatitudeDegrees>37.39194690249860286712646484375</LatitudeDegrees>
              <LongitudeDegrees>-6.0150634311139583587646484375</LongitudeDegrees>
            </Position>
            <AltitudeMeters>-45.40000152587890625</AltitudeMeters>
            <DistanceMeters>NAN</DistanceMeters>
          </Trackpoint>
          <Trackpoint>
            <Time>2019-10-10T13:42:53.000Z</Time>
            <Position>
              <LatitudeDegrees>37.39197221584618091583251953125</LatitudeDegrees>
              <LongitudeDegrees>-6.01482446305453777313232421875</LongitudeDegrees>
            </Position>
            <AltitudeMeters>-47</AltitudeMeters>
            <DistanceMeters>NAN</DistanceMeters>
          </Trackpoint>
          <Trackpoint>
            <Time>2019-10-10T13:42:57.000Z</Time>
            <Position>
              <LatitudeDegrees>37.39210615865886211395263671875</LatitudeDegrees>
              <LongitudeDegrees>-6.01450947113335132598876953125</LongitudeDegrees>
            </Position>
            <AltitudeMeters>-48</AltitudeMeters>
            <DistanceMeters>NAN</DistanceMeters>
          </Trackpoint>
          <Trackpoint>
            <Time>2019-10-10T13:42:58.000Z</Time>
            <Position>
              <LatitudeDegrees>37.39215594716370105743408203125</LatitudeDegrees>
              <LongitudeDegrees>-6.0144364647567272186279296875</LongitudeDegrees>
            </Position>
            <AltitudeMeters>-48.799999237060546875</AltitudeMeters>
            <DistanceMeters>NAN</DistanceMeters>
          </Trackpoint>
          <Trackpoint>
            <Time>2019-10-10T13:42:59.000Z</Time>
            <Position>
              <LatitudeDegrees>37.3922093398869037628173828125</LatitudeDegrees>
              <LongitudeDegrees>-6.0143722593784332275390625</LongitudeDegrees>
            </Position>
            <AltitudeMeters>-49</AltitudeMeters>
            <DistanceMeters>NAN</DistanceMeters>
          </Trackpoint>
          <Trackpoint>
            <Time>2019-10-10T13:43:00.000Z</Time>
            <Position>
              <LatitudeDegrees>37.39226491190493106842041015625</LatitudeDegrees>
              <LongitudeDegrees>-6.01432104595005512237548828125</LongitudeDegrees>
            </Position>
            <AltitudeMeters>-49.200000762939453125</AltitudeMeters>
            <DistanceMeters>NAN</DistanceMeters>
          </Trackpoint>
          <Trackpoint>
            <Time>2019-10-10T13:43:01.000Z</Time>
            <Position>
              <LatitudeDegrees>37.39232744090259075164794921875</LatitudeDegrees>
              <LongitudeDegrees>-6.0142815671861171722412109375</LongitudeDegrees>
            </Position>
            <AltitudeMeters>-49.200000762939453125</AltitudeMeters>
            <DistanceMeters>NAN</DistanceMeters>
          </Trackpoint>
          <Trackpoint>
            <Time>2019-10-10T13:43:02.000Z</Time>
            <Position>
              <LatitudeDegrees>37.39239147864282131195068359375</LatitudeDegrees>
              <LongitudeDegrees>-6.01424493826925754547119140625</LongitudeDegrees>
            </Position>
            <AltitudeMeters>-49.40000152587890625</AltitudeMeters>
            <DistanceMeters>NAN</DistanceMeters>
          </Trackpoint>
          <Trackpoint>
            <Time>2019-10-10T13:43:03.000Z</Time>
            <Position>
              <LatitudeDegrees>37.39245124161243438720703125</LatitudeDegrees>
              <LongitudeDegrees>-6.01421333849430084228515625</LongitudeDegrees>
            </Position>
            <AltitudeMeters>-49.59999847412109375</AltitudeMeters>
            <DistanceMeters>NAN</DistanceMeters>
          </Trackpoint>
          <Trackpoint>
            <Time>2019-10-10T13:43:04.000Z</Time>
            <Position>
              <LatitudeDegrees>37.39250010810792446136474609375</LatitudeDegrees>
              <LongitudeDegrees>-6.01418115198612213134765625</LongitudeDegrees>
            </Position>
            <AltitudeMeters>-49.59999847412109375</AltitudeMeters>
            <DistanceMeters>NAN</DistanceMeters>
          </Trackpoint>
          <Trackpoint>
            <Time>2019-10-10T13:43:05.000Z</Time>
            <Position>
              <LatitudeDegrees>37.3925248347222805023193359375</LatitudeDegrees>
              <LongitudeDegrees>-6.01416371762752532958984375</LongitudeDegrees>
            </Position>
            <AltitudeMeters>-49.200000762939453125</AltitudeMeters>
            <DistanceMeters>NAN</DistanceMeters>
          </Trackpoint>
          <Trackpoint>
            <Time>2019-10-10T13:43:07.000Z</Time>
            <Position>
              <LatitudeDegrees>37.3925550095736980438232421875</LatitudeDegrees>
              <LongitudeDegrees>-6.014153994619846343994140625</LongitudeDegrees>
            </Position>
            <AltitudeMeters>-49</AltitudeMeters>
            <DistanceMeters>NAN</DistanceMeters>
          </Trackpoint>
          <Trackpoint>
            <Time>2019-10-10T13:43:08.000Z</Time>
            <Position>
              <LatitudeDegrees>37.39257588051259517669677734375</LatitudeDegrees>
              <LongitudeDegrees>-6.0141464509069919586181640625</LongitudeDegrees>
            </Position>
            <AltitudeMeters>-49.200000762939453125</AltitudeMeters>
            <DistanceMeters>NAN</DistanceMeters>
          </Trackpoint>
          <Trackpoint>
            <Time>2019-10-10T13:43:10.000Z</Time>
            <Position>
              <LatitudeDegrees>37.39262801595032215118408203125</LatitudeDegrees>
              <LongitudeDegrees>-6.01411568932235240936279296875</LongitudeDegrees>
            </Position>
            <AltitudeMeters>-49.200000762939453125</AltitudeMeters>
            <DistanceMeters>NAN</DistanceMeters>
          </Trackpoint>
          <Trackpoint>
            <Time>2019-10-10T13:43:13.000Z</Time>
            <Position>
              <LatitudeDegrees>37.3926991783082485198974609375</LatitudeDegrees>
              <LongitudeDegrees>-6.014075540006160736083984375</LongitudeDegrees>
            </Position>
            <AltitudeMeters>-49.40000152587890625</AltitudeMeters>
            <DistanceMeters>NAN</DistanceMeters>
          </Trackpoint>
          <Trackpoint>
            <Time>2019-10-10T13:43:14.000Z</Time>
            <Position>
              <LatitudeDegrees>37.39271342754364013671875</LatitudeDegrees>
              <LongitudeDegrees>-6.0140747018158435821533203125</LongitudeDegrees>
            </Position>
            <AltitudeMeters>-49.200000762939453125</AltitudeMeters>
            <DistanceMeters>NAN</DistanceMeters>
          </Trackpoint>
          <Trackpoint>
            <Time>2019-10-10T13:43:18.000Z</Time>
            <Position>
              <LatitudeDegrees>37.3927662335336208343505859375</LatitudeDegrees>
              <LongitudeDegrees>-6.01399616338312625885009765625</LongitudeDegrees>
            </Position>
            <AltitudeMeters>-49.200000762939453125</AltitudeMeters>
            <DistanceMeters>NAN</DistanceMeters>
          </Trackpoint>
          <Trackpoint>
            <Time>2019-10-10T13:43:19.000Z</Time>
            <Position>
              <LatitudeDegrees>37.39277637563645839691162109375</LatitudeDegrees>
              <LongitudeDegrees>-6.01394914090633392333984375</LongitudeDegrees>
            </Position>
            <AltitudeMeters>-49</AltitudeMeters>
            <DistanceMeters>NAN</DistanceMeters>
          </Trackpoint>
          <Trackpoint>
            <Time>2019-10-10T13:43:20.000Z</Time>
            <Position>
              <LatitudeDegrees>37.39278157241642475128173828125</LatitudeDegrees>
              <LongitudeDegrees>-6.01389558054506778717041015625</LongitudeDegrees>
            </Position>
            <AltitudeMeters>-49.200000762939453125</AltitudeMeters>
            <DistanceMeters>NAN</DistanceMeters>
          </Trackpoint>
          <Trackpoint>
            <Time>2019-10-10T13:43:22.000Z</Time>
            <Position>
              <LatitudeDegrees>37.39276614971458911895751953125</LatitudeDegrees>
              <LongitudeDegrees>-6.013768427073955535888671875</LongitudeDegrees>
            </Position>
            <AltitudeMeters>-49.40000152587890625</AltitudeMeters>
            <DistanceMeters>NAN</DistanceMeters>
          </Trackpoint>
          <Trackpoint>
            <Time>2019-10-10T13:43:26.000Z</Time>
            <Position>
              <LatitudeDegrees>37.39272558130323886871337890625</LatitudeDegrees>
              <LongitudeDegrees>-6.0134790837764739990234375</LongitudeDegrees>
            </Position>
            <AltitudeMeters>-50.40000152587890625</AltitudeMeters>
            <DistanceMeters>NAN</DistanceMeters>
          </Trackpoint>
          <Trackpoint>
            <Time>2019-10-10T13:43:28.000Z</Time>
            <Position>
              <LatitudeDegrees>37.3926998488605022430419921875</LatitudeDegrees>
              <LongitudeDegrees>-6.0133226774632930755615234375</LongitudeDegrees>
            </Position>
            <AltitudeMeters>-50.59999847412109375</AltitudeMeters>
            <DistanceMeters>NAN</DistanceMeters>
          </Trackpoint>
          <Trackpoint>
            <Time>2019-10-10T13:43:33.000Z</Time>
            <Position>
              <LatitudeDegrees>37.3926217295229434967041015625</LatitudeDegrees>
              <LongitudeDegrees>-6.0129344277083873748779296875</LongitudeDegrees>
            </Position>
            <AltitudeMeters>-49</AltitudeMeters>
            <DistanceMeters>NAN</DistanceMeters>
          </Trackpoint>
          <Trackpoint>
            <Time>2019-10-10T13:43:34.000Z</Time>
            <Position>
              <LatitudeDegrees>37.39261175505816936492919921875</LatitudeDegrees>
              <LongitudeDegrees>-6.0128755867481231689453125</LongitudeDegrees>
            </Position>
            <AltitudeMeters>-48.59999847412109375</AltitudeMeters>
            <DistanceMeters>NAN</DistanceMeters>
          </Trackpoint>
          <Trackpoint>
            <Time>2019-10-10T13:43:35.000Z</Time>
            <Position>
              <LatitudeDegrees>37.392603456974029541015625</LatitudeDegrees>
              <LongitudeDegrees>-6.0128211043775081634521484375</LongitudeDegrees>
            </Position>
            <AltitudeMeters>-48</AltitudeMeters>
            <DistanceMeters>NAN</DistanceMeters>
          </Trackpoint>
          <Trackpoint>
            <Time>2019-10-10T13:43:37.000Z</Time>
            <Position>
              <LatitudeDegrees>37.392581999301910400390625</LatitudeDegrees>
              <LongitudeDegrees>-6.01270384155213832855224609375</LongitudeDegrees>
            </Position>
            <AltitudeMeters>-46.59999847412109375</AltitudeMeters>
            <DistanceMeters>NAN</DistanceMeters>
          </Trackpoint>
          <Trackpoint>
            <Time>2019-10-10T13:43:39.000Z</Time>
            <Position>
              <LatitudeDegrees>37.39257772453129291534423828125</LatitudeDegrees>
              <LongitudeDegrees>-6.0125944577157497406005859375</LongitudeDegrees>
            </Position>
            <AltitudeMeters>-45.59999847412109375</AltitudeMeters>
            <DistanceMeters>NAN</DistanceMeters>
          </Trackpoint>
          <Trackpoint>
            <Time>2019-10-10T13:43:41.000Z</Time>
            <Position>
              <LatitudeDegrees>37.39257437177002429962158203125</LatitudeDegrees>
              <LongitudeDegrees>-6.012496389448642730712890625</LongitudeDegrees>
            </Position>
            <AltitudeMeters>-45</AltitudeMeters>
            <DistanceMeters>NAN</DistanceMeters>
          </Trackpoint>
          <Trackpoint>
            <Time>2019-10-10T13:43:43.000Z</Time>
            <Position>
              <LatitudeDegrees>37.3925499804317951202392578125</LatitudeDegrees>
              <LongitudeDegrees>-6.01239739917218685150146484375</LongitudeDegrees>
            </Position>
            <AltitudeMeters>-44.59999847412109375</AltitudeMeters>
            <DistanceMeters>NAN</DistanceMeters>
          </Trackpoint>
          <Trackpoint>
            <Time>2019-10-10T13:43:45.000Z</Time>
            <Position>
              <LatitudeDegrees>37.39249507896602153778076171875</LatitudeDegrees>
              <LongitudeDegrees>-6.0123118199408054351806640625</LongitudeDegrees>
            </Position>
            <AltitudeMeters>-44.799999237060546875</AltitudeMeters>
            <DistanceMeters>NAN</DistanceMeters>
          </Trackpoint>
          <Trackpoint>
            <Time>2019-10-10T13:43:47.000Z</Time>
            <Position>
              <LatitudeDegrees>37.39247244782745838165283203125</LatitudeDegrees>
              <LongitudeDegrees>-6.0121978260576725006103515625</LongitudeDegrees>
            </Position>
            <AltitudeMeters>-44.59999847412109375</AltitudeMeters>
            <DistanceMeters>NAN</DistanceMeters>
          </Trackpoint>
          <Trackpoint>
            <Time>2019-10-10T13:43:48.000Z</Time>
            <Position>
              <LatitudeDegrees>37.39246607758104801177978515625</LatitudeDegrees>
              <LongitudeDegrees>-6.01213705725967884063720703125</LongitudeDegrees>
            </Position>
            <AltitudeMeters>-44.200000762939453125</AltitudeMeters>
            <DistanceMeters>NAN</DistanceMeters>
          </Trackpoint>
          <Trackpoint>
            <Time>2019-10-10T13:43:51.000Z</Time>
            <Position>
              <LatitudeDegrees>37.39243221469223499298095703125</LatitudeDegrees>
              <LongitudeDegrees>-6.01193840615451335906982421875</LongitudeDegrees>
            </Position>
            <AltitudeMeters>-45</AltitudeMeters>
            <DistanceMeters>NAN</DistanceMeters>
          </Trackpoint>
          <Trackpoint>
            <Time>2019-10-10T13:43:55.000Z</Time>
            <Position>
              <LatitudeDegrees>37.3923890478909015655517578125</LatitudeDegrees>
              <LongitudeDegrees>-6.01164202205836772918701171875</LongitudeDegrees>
            </Position>
            <AltitudeMeters>-45.200000762939453125</AltitudeMeters>
            <DistanceMeters>NAN</DistanceMeters>
          </Trackpoint>
          <Trackpoint>
            <Time>2019-10-10T13:43:56.000Z</Time>
            <Position>
              <LatitudeDegrees>37.39238016307353973388671875</LatitudeDegrees>
              <LongitudeDegrees>-6.0115665011107921600341796875</LongitudeDegrees>
            </Position>
            <AltitudeMeters>-45.59999847412109375</AltitudeMeters>
            <DistanceMeters>NAN</DistanceMeters>
          </Trackpoint>
          <Trackpoint>
            <Time>2019-10-10T13:44:01.000Z</Time>
            <Position>
              <LatitudeDegrees>37.3923126049339771270751953125</LatitudeDegrees>
              <LongitudeDegrees>-6.0111839510500431060791015625</LongitudeDegrees>
            </Position>
            <AltitudeMeters>-46.59999847412109375</AltitudeMeters>
            <DistanceMeters>NAN</DistanceMeters>
          </Trackpoint>
          <Trackpoint>
            <Time>2019-10-10T13:44:02.000Z</Time>
            <Position>
              <LatitudeDegrees>37.3922981880605220794677734375</LatitudeDegrees>
              <LongitudeDegrees>-6.01111161522567272186279296875</LongitudeDegrees>
            </Position>
            <AltitudeMeters>-47</AltitudeMeters>
            <DistanceMeters>NAN</DistanceMeters>
          </Trackpoint>
          <Trackpoint>
            <Time>2019-10-10T13:44:04.000Z</Time>
            <Position>
              <LatitudeDegrees>37.39226323552429676055908203125</LatitudeDegrees>
              <LongitudeDegrees>-6.0110065899789333343505859375</LongitudeDegrees>
            </Position>
            <AltitudeMeters>-46.799999237060546875</AltitudeMeters>
            <DistanceMeters>NAN</DistanceMeters>
          </Trackpoint>
          <Trackpoint>
            <Time>2019-10-10T13:44:05.000Z</Time>
            <Position>
              <LatitudeDegrees>37.39223138429224491119384765625</LatitudeDegrees>
              <LongitudeDegrees>-6.01098672486841678619384765625</LongitudeDegrees>
            </Position>
            <AltitudeMeters>-46.799999237060546875</AltitudeMeters>
            <DistanceMeters>NAN</DistanceMeters>
          </Trackpoint>
          <Trackpoint>
            <Time>2019-10-10T13:44:09.000Z</Time>
            <Position>
              <LatitudeDegrees>37.392094843089580535888671875</LatitudeDegrees>
              <LongitudeDegrees>-6.010994017124176025390625</LongitudeDegrees>
            </Position>
            <AltitudeMeters>-46.59999847412109375</AltitudeMeters>
            <DistanceMeters>NAN</DistanceMeters>
          </Trackpoint>
          <Trackpoint>
            <Time>2019-10-10T13:44:10.000Z</Time>
            <Position>
              <LatitudeDegrees>37.39205787889659404754638671875</LatitudeDegrees>
              <LongitudeDegrees>-6.01100147701799869537353515625</LongitudeDegrees>
            </Position>
            <AltitudeMeters>-46.799999237060546875</AltitudeMeters>
            <DistanceMeters>NAN</DistanceMeters>
          </Trackpoint>
          <Trackpoint>
            <Time>2019-10-10T13:44:14.000Z</Time>
            <Position>
              <LatitudeDegrees>37.39188722334802150726318359375</LatitudeDegrees>
              <LongitudeDegrees>-6.01104699075222015380859375</LongitudeDegrees>
            </Position>
            <AltitudeMeters>-46.40000152587890625</AltitudeMeters>
            <DistanceMeters>NAN</DistanceMeters>
          </Trackpoint>
          <Trackpoint>
            <Time>2019-10-10T13:44:18.000Z</Time>
            <Position>
              <LatitudeDegrees>37.3916859738528728485107421875</LatitudeDegrees>
              <LongitudeDegrees>-6.01110373623669147491455078125</LongitudeDegrees>
            </Position>
            <AltitudeMeters>-46.200000762939453125</AltitudeMeters>
            <DistanceMeters>NAN</DistanceMeters>
          </Trackpoint>
          <Trackpoint>
            <Time>2019-10-10T13:44:20.000Z</Time>
            <Position>
              <LatitudeDegrees>37.391594611108303070068359375</LatitudeDegrees>
              <LongitudeDegrees>-6.01113290525972843170166015625</LongitudeDegrees>
            </Position>
            <AltitudeMeters>-46.799999237060546875</AltitudeMeters>
            <DistanceMeters>NAN</DistanceMeters>
          </Trackpoint>
          <Trackpoint>
            <Time>2019-10-10T13:44:22.000Z</Time>
            <Position>
              <LatitudeDegrees>37.39150433801114559173583984375</LatitudeDegrees>
              <LongitudeDegrees>-6.01115855388343334197998046875</LongitudeDegrees>
            </Position>
            <AltitudeMeters>-46.40000152587890625</AltitudeMeters>
            <DistanceMeters>NAN</DistanceMeters>
          </Trackpoint>
          <Trackpoint>
            <Time>2019-10-10T13:44:23.000Z</Time>
            <Position>
              <LatitudeDegrees>37.39145287312567234039306640625</LatitudeDegrees>
              <LongitudeDegrees>-6.01117850281298160552978515625</LongitudeDegrees>
            </Position>
            <AltitudeMeters>-46.59999847412109375</AltitudeMeters>
            <DistanceMeters>NAN</DistanceMeters>
          </Trackpoint>
          <Trackpoint>
            <Time>2019-10-10T13:44:26.000Z</Time>
            <Position>
              <LatitudeDegrees>37.3913119733333587646484375</LatitudeDegrees>
              <LongitudeDegrees>-6.01126559078693389892578125</LongitudeDegrees>
            </Position>
            <AltitudeMeters>-46.40000152587890625</AltitudeMeters>
            <DistanceMeters>NAN</DistanceMeters>
          </Trackpoint>
          <Trackpoint>
            <Time>2019-10-10T13:44:29.000Z</Time>
            <Position>
              <LatitudeDegrees>37.3911947943270206451416015625</LatitudeDegrees>
              <LongitudeDegrees>-6.01124287582933902740478515625</LongitudeDegrees>
            </Position>
            <AltitudeMeters>-46.59999847412109375</AltitudeMeters>
            <DistanceMeters>NAN</DistanceMeters>
          </Trackpoint>
          <Trackpoint>
            <Time>2019-10-10T13:44:31.000Z</Time>
            <Position>
              <LatitudeDegrees>37.3911398090422153472900390625</LatitudeDegrees>
              <LongitudeDegrees>-6.01117313839495182037353515625</LongitudeDegrees>
            </Position>
            <AltitudeMeters>-46.40000152587890625</AltitudeMeters>
            <DistanceMeters>NAN</DistanceMeters>
          </Trackpoint>
          <Trackpoint>
            <Time>2019-10-10T13:44:32.000Z</Time>
            <Position>
              <LatitudeDegrees>37.39110468886792659759521484375</LatitudeDegrees>
              <LongitudeDegrees>-6.01114765740931034088134765625</LongitudeDegrees>
            </Position>
            <AltitudeMeters>-46.40000152587890625</AltitudeMeters>
            <DistanceMeters>NAN</DistanceMeters>
          </Trackpoint>
          <Trackpoint>
            <Time>2019-10-10T13:44:34.000Z</Time>
            <Position>
              <LatitudeDegrees>37.39102506078779697418212890625</LatitudeDegrees>
              <LongitudeDegrees>-6.0110940970480442047119140625</LongitudeDegrees>
            </Position>
            <AltitudeMeters>-46</AltitudeMeters>
            <DistanceMeters>NAN</DistanceMeters>
          </Trackpoint>
          <Trackpoint>
            <Time>2019-10-10T13:44:41.000Z</Time>
            <Position>
              <LatitudeDegrees>37.3907076381146907806396484375</LatitudeDegrees>
              <LongitudeDegrees>-6.0108966194093227386474609375</LongitudeDegrees>
            </Position>
            <AltitudeMeters>-46.40000152587890625</AltitudeMeters>
            <DistanceMeters>NAN</DistanceMeters>
          </Trackpoint>
          <Trackpoint>
            <Time>2019-10-10T13:44:49.000Z</Time>
            <Position>
              <LatitudeDegrees>37.390254177153110504150390625</LatitudeDegrees>
              <LongitudeDegrees>-6.01068916730582714080810546875</LongitudeDegrees>
            </Position>
            <AltitudeMeters>-46.40000152587890625</AltitudeMeters>
            <DistanceMeters>NAN</DistanceMeters>
          </Trackpoint>
          <Trackpoint>
            <Time>2019-10-10T13:44:50.000Z</Time>
            <Position>
              <LatitudeDegrees>37.3902007006108760833740234375</LatitudeDegrees>
              <LongitudeDegrees>-6.01068296469748020172119140625</LongitudeDegrees>
            </Position>
            <AltitudeMeters>-46.59999847412109375</AltitudeMeters>
            <DistanceMeters>NAN</DistanceMeters>
          </Trackpoint>
          <Trackpoint>
            <Time>2019-10-10T13:44:53.000Z</Time>
            <Position>
              <LatitudeDegrees>37.39009684883058071136474609375</LatitudeDegrees>
              <LongitudeDegrees>-6.0107712261378765106201171875</LongitudeDegrees>
            </Position>
            <AltitudeMeters>-46.59999847412109375</AltitudeMeters>
            <DistanceMeters>NAN</DistanceMeters>
          </Trackpoint>
          <Trackpoint>
            <Time>2019-10-10T13:44:56.000Z</Time>
            <Position>
              <LatitudeDegrees>37.38999894820153713226318359375</LatitudeDegrees>
              <LongitudeDegrees>-6.0107826255261898040771484375</LongitudeDegrees>
            </Position>
            <AltitudeMeters>-46.200000762939453125</AltitudeMeters>
            <DistanceMeters>NAN</DistanceMeters>
          </Trackpoint>
          <Trackpoint>
            <Time>2019-10-10T13:44:57.000Z</Time>
            <Position>
              <LatitudeDegrees>37.3899579606950283050537109375</LatitudeDegrees>
              <LongitudeDegrees>-6.01077139377593994140625</LongitudeDegrees>
            </Position>
            <AltitudeMeters>-46.40000152587890625</AltitudeMeters>
            <DistanceMeters>NAN</DistanceMeters>
          </Trackpoint>
          <Trackpoint>
            <Time>2019-10-10T13:44:58.000Z</Time>
            <Position>
              <LatitudeDegrees>37.38991596736013889312744140625</LatitudeDegrees>
              <LongitudeDegrees>-6.010771058499813079833984375</LongitudeDegrees>
            </Position>
            <AltitudeMeters>-46.40000152587890625</AltitudeMeters>
            <DistanceMeters>NAN</DistanceMeters>
          </Trackpoint>
          <Trackpoint>
            <Time>2019-10-10T13:45:00.000Z</Time>
            <Position>
              <LatitudeDegrees>37.3898392729461193084716796875</LatitudeDegrees>
              <LongitudeDegrees>-6.0107501037418842315673828125</LongitudeDegrees>
            </Position>
            <AltitudeMeters>-46.40000152587890625</AltitudeMeters>
            <DistanceMeters>NAN</DistanceMeters>
          </Trackpoint>
          <Trackpoint>
            <Time>2019-10-10T13:45:02.000Z</Time>
            <Position>
              <LatitudeDegrees>37.38983399234712123870849609375</LatitudeDegrees>
              <LongitudeDegrees>-6.01067014038562774658203125</LongitudeDegrees>
            </Position>
            <AltitudeMeters>-46</AltitudeMeters>
            <DistanceMeters>NAN</DistanceMeters>
          </Trackpoint>
          <Trackpoint>
            <Time>2019-10-10T13:45:06.000Z</Time>
            <Position>
              <LatitudeDegrees>37.3898134566843509674072265625</LatitudeDegrees>
              <LongitudeDegrees>-6.010506860911846160888671875</LongitudeDegrees>
            </Position>
            <AltitudeMeters>-46.799999237060546875</AltitudeMeters>
            <DistanceMeters>NAN</DistanceMeters>
          </Trackpoint>
          <Trackpoint>
            <Time>2019-10-10T13:45:07.000Z</Time>
            <Position>
              <LatitudeDegrees>37.38979392684996128082275390625</LatitudeDegrees>
              <LongitudeDegrees>-6.01048314012587070465087890625</LongitudeDegrees>
            </Position>
            <AltitudeMeters>-46.799999237060546875</AltitudeMeters>
            <DistanceMeters>NAN</DistanceMeters>
          </Trackpoint>
          <Trackpoint>
            <Time>2019-10-10T13:45:11.000Z</Time>
            <Position>
              <LatitudeDegrees>37.3896374367177486419677734375</LatitudeDegrees>
              <LongitudeDegrees>-6.01046361029148101806640625</LongitudeDegrees>
            </Position>
            <AltitudeMeters>-47.799999237060546875</AltitudeMeters>
            <DistanceMeters>NAN</DistanceMeters>
          </Trackpoint>
          <Trackpoint>
            <Time>2019-10-10T13:45:14.000Z</Time>
            <Position>
              <LatitudeDegrees>37.38950860686600208282470703125</LatitudeDegrees>
              <LongitudeDegrees>-6.010502167046070098876953125</LongitudeDegrees>
            </Position>
            <AltitudeMeters>-48</AltitudeMeters>
            <DistanceMeters>NAN</DistanceMeters>
          </Trackpoint>
          <Trackpoint>
            <Time>2019-10-10T13:45:15.000Z</Time>
            <Position>
              <LatitudeDegrees>37.38946954719722270965576171875</LatitudeDegrees>
              <LongitudeDegrees>-6.0105127282440662384033203125</LongitudeDegrees>
            </Position>
            <AltitudeMeters>-48.200000762939453125</AltitudeMeters>
            <DistanceMeters>NAN</DistanceMeters>
          </Trackpoint>
          <Trackpoint>
            <Time>2019-10-10T13:45:16.000Z</Time>
            <Position>
              <LatitudeDegrees>37.389434762299060821533203125</LatitudeDegrees>
              <LongitudeDegrees>-6.0105160810053348541259765625</LongitudeDegrees>
            </Position>
            <AltitudeMeters>-48.59999847412109375</AltitudeMeters>
            <DistanceMeters>NAN</DistanceMeters>
          </Trackpoint>
          <Trackpoint>
            <Time>2019-10-10T13:45:20.000Z</Time>
            <Position>
              <LatitudeDegrees>37.38927156664431095123291015625</LatitudeDegrees>
              <LongitudeDegrees>-6.010543070733547210693359375</LongitudeDegrees>
            </Position>
            <AltitudeMeters>-48.59999847412109375</AltitudeMeters>
            <DistanceMeters>NAN</DistanceMeters>
          </Trackpoint>
          <Trackpoint>
            <Time>2019-10-10T13:45:21.000Z</Time>
            <Position>
              <LatitudeDegrees>37.389231584966182708740234375</LatitudeDegrees>
              <LongitudeDegrees>-6.0105499438941478729248046875</LongitudeDegrees>
            </Position>
            <AltitudeMeters>-48.59999847412109375</AltitudeMeters>
            <DistanceMeters>NAN</DistanceMeters>
          </Trackpoint>
          <Trackpoint>
            <Time>2019-10-10T13:45:25.000Z</Time>
            <Position>
              <LatitudeDegrees>37.38908750005066394805908203125</LatitudeDegrees>
              <LongitudeDegrees>-6.0105935297906398773193359375</LongitudeDegrees>
            </Position>
            <AltitudeMeters>-48.40000152587890625</AltitudeMeters>
            <DistanceMeters>NAN</DistanceMeters>
          </Trackpoint>
          <Trackpoint>
            <Time>2019-10-10T13:45:26.000Z</Time>
            <Position>
              <LatitudeDegrees>37.38904575817286968231201171875</LatitudeDegrees>
              <LongitudeDegrees>-6.01060568355023860931396484375</LongitudeDegrees>
            </Position>
            <AltitudeMeters>-48.40000152587890625</AltitudeMeters>
            <DistanceMeters>NAN</DistanceMeters>
          </Trackpoint>
          <Trackpoint>
            <Time>2019-10-10T13:45:27.000Z</Time>
            <Position>
              <LatitudeDegrees>37.389004938304424285888671875</LatitudeDegrees>
              <LongitudeDegrees>-6.0106186755001544952392578125</LongitudeDegrees>
            </Position>
            <AltitudeMeters>-48.200000762939453125</AltitudeMeters>
            <DistanceMeters>NAN</DistanceMeters>
          </Trackpoint>
          <Trackpoint>
            <Time>2019-10-10T13:45:32.000Z</Time>
            <Position>
              <LatitudeDegrees>37.38882078789174556732177734375</LatitudeDegrees>
              <LongitudeDegrees>-6.010665781795978546142578125</LongitudeDegrees>
            </Position>
            <AltitudeMeters>-48</AltitudeMeters>
            <DistanceMeters>NAN</DistanceMeters>
          </Trackpoint>
          <Trackpoint>
            <Time>2019-10-10T13:45:38.000Z</Time>
            <Position>
              <LatitudeDegrees>37.38865323364734649658203125</LatitudeDegrees>
              <LongitudeDegrees>-6.01068648509681224822998046875</LongitudeDegrees>
            </Position>
            <AltitudeMeters>-48.200000762939453125</AltitudeMeters>
            <DistanceMeters>NAN</DistanceMeters>
          </Trackpoint>
          <Trackpoint>
            <Time>2019-10-10T13:45:41.000Z</Time>
            <Position>
              <LatitudeDegrees>37.38865465857088565826416015625</LatitudeDegrees>
              <LongitudeDegrees>-6.01068816147744655609130859375</LongitudeDegrees>
            </Position>
            <AltitudeMeters>-48</AltitudeMeters>
            <DistanceMeters>NAN</DistanceMeters>
          </Trackpoint>
          <Trackpoint>
            <Time>2019-10-10T13:45:42.000Z</Time>
            <Position>
              <LatitudeDegrees>37.38865985535085201263427734375</LatitudeDegrees>
              <LongitudeDegrees>-6.0106766782701015472412109375</LongitudeDegrees>
            </Position>
            <AltitudeMeters>-48</AltitudeMeters>
            <DistanceMeters>NAN</DistanceMeters>
          </Trackpoint>
          <Trackpoint>
            <Time>2019-10-10T13:45:45.000Z</Time>
            <Position>
              <LatitudeDegrees>37.38873110152781009674072265625</LatitudeDegrees>
              <LongitudeDegrees>-6.01064197719097137451171875</LongitudeDegrees>
            </Position>
            <AltitudeMeters>-48</AltitudeMeters>
            <DistanceMeters>NAN</DistanceMeters>
          </Trackpoint>
          <Trackpoint>
            <Time>2019-10-10T13:45:51.000Z</Time>
            <Position>
              <LatitudeDegrees>37.3889269866049289703369140625</LatitudeDegrees>
              <LongitudeDegrees>-6.01058741100132465362548828125</LongitudeDegrees>
            </Position>
            <AltitudeMeters>-48.40000152587890625</AltitudeMeters>
            <DistanceMeters>NAN</DistanceMeters>
          </Trackpoint>
          <Trackpoint>
            <Time>2019-10-10T13:45:58.000Z</Time>
            <Position>
              <LatitudeDegrees>37.3891553096473217010498046875</LatitudeDegrees>
              <LongitudeDegrees>-6.0104865767061710357666015625</LongitudeDegrees>
            </Position>
            <AltitudeMeters>-48.200000762939453125</AltitudeMeters>
            <DistanceMeters>NAN</DistanceMeters>
          </Trackpoint>
          <Trackpoint>
            <Time>2019-10-10T13:46:03.000Z</Time>
            <Position>
              <LatitudeDegrees>37.38926854915916919708251953125</LatitudeDegrees>
              <LongitudeDegrees>-6.0104186832904815673828125</LongitudeDegrees>
            </Position>
            <AltitudeMeters>-48.40000152587890625</AltitudeMeters>
            <DistanceMeters>NAN</DistanceMeters>
          </Trackpoint>
          <Trackpoint>
            <Time>2019-10-10T13:46:05.000Z</Time>
            <Position>
              <LatitudeDegrees>37.38930098712444305419921875</LatitudeDegrees>
              <LongitudeDegrees>-6.01037585176527500152587890625</LongitudeDegrees>
            </Position>
            <AltitudeMeters>-48.40000152587890625</AltitudeMeters>
            <DistanceMeters>NAN</DistanceMeters>
          </Trackpoint>
          <Trackpoint>
            <Time>2019-10-10T13:46:07.000Z</Time>
            <Position>
              <LatitudeDegrees>37.38932101987302303314208984375</LatitudeDegrees>
              <LongitudeDegrees>-6.01030804216861724853515625</LongitudeDegrees>
            </Position>
            <AltitudeMeters>-48.40000152587890625</AltitudeMeters>
            <DistanceMeters>NAN</DistanceMeters>
          </Trackpoint>
          <Trackpoint>
            <Time>2019-10-10T13:46:10.000Z</Time>
            <Position>
              <LatitudeDegrees>37.3893727362155914306640625</LatitudeDegrees>
              <LongitudeDegrees>-6.01026244461536407470703125</LongitudeDegrees>
            </Position>
            <AltitudeMeters>-48.40000152587890625</AltitudeMeters>
            <DistanceMeters>NAN</DistanceMeters>
          </Trackpoint>
          <Trackpoint>
            <Time>2019-10-10T13:46:12.000Z</Time>
            <Position>
              <LatitudeDegrees>37.3893920145928859710693359375</LatitudeDegrees>
              <LongitudeDegrees>-6.010265462100505828857421875</LongitudeDegrees>
            </Position>
            <AltitudeMeters>-48.40000152587890625</AltitudeMeters>
            <DistanceMeters>NAN</DistanceMeters>
          </Trackpoint>
          <Trackpoint>
            <Time>2019-10-10T13:46:15.000Z</Time>
            <Position>
              <LatitudeDegrees>37.389394529163837432861328125</LatitudeDegrees>
              <LongitudeDegrees>-6.0102631151676177978515625</LongitudeDegrees>
            </Position>
            <AltitudeMeters>-48.200000762939453125</AltitudeMeters>
            <DistanceMeters>NAN</DistanceMeters>
          </Trackpoint>
          <Trackpoint>
            <Time>2019-10-10T13:46:25.000Z</Time>
            <Position>
              <LatitudeDegrees>37.38939494825899600982666015625</LatitudeDegrees>
              <LongitudeDegrees>-6.010263450443744659423828125</LongitudeDegrees>
            </Position>
            <AltitudeMeters>-48.200000762939453125</AltitudeMeters>
            <DistanceMeters>NAN</DistanceMeters>
          </Trackpoint>
          <Trackpoint>
            <Time>2019-10-10T13:46:35.000Z</Time>
            <Position>
              <LatitudeDegrees>37.38939494825899600982666015625</LatitudeDegrees>
              <LongitudeDegrees>-6.010263450443744659423828125</LongitudeDegrees>
            </Position>
            <AltitudeMeters>-48.40000152587890625</AltitudeMeters>
            <DistanceMeters>NAN</DistanceMeters>
          </Trackpoint>
          <Trackpoint>
            <Time>2019-10-10T13:46:38.000Z</Time>
            <Position>
              <LatitudeDegrees>37.38939494825899600982666015625</LatitudeDegrees>
              <LongitudeDegrees>-6.010263450443744659423828125</LongitudeDegrees>
            </Position>
            <AltitudeMeters>-48.200000762939453125</AltitudeMeters>
            <DistanceMeters>NAN</DistanceMeters>
          </Trackpoint>
          <Trackpoint>
            <Time>2019-10-10T13:46:46.000Z</Time>
            <Position>
              <LatitudeDegrees>37.38939494825899600982666015625</LatitudeDegrees>
              <LongitudeDegrees>-6.010263450443744659423828125</LongitudeDegrees>
            </Position>
            <AltitudeMeters>-48.200000762939453125</AltitudeMeters>
            <DistanceMeters>NAN</DistanceMeters>
          </Trackpoint>
          <Trackpoint>
            <Time>2019-10-10T13:46:51.000Z</Time>
            <Position>
              <LatitudeDegrees>37.38939494825899600982666015625</LatitudeDegrees>
              <LongitudeDegrees>-6.010263450443744659423828125</LongitudeDegrees>
            </Position>
            <AltitudeMeters>-48.200000762939453125</AltitudeMeters>
            <DistanceMeters>NAN</DistanceMeters>
          </Trackpoint>
          <Trackpoint>
            <Time>2019-10-10T13:46:53.000Z</Time>
            <Position>
              <LatitudeDegrees>37.38939494825899600982666015625</LatitudeDegrees>
              <LongitudeDegrees>-6.010263450443744659423828125</LongitudeDegrees>
            </Position>
            <AltitudeMeters>-48.200000762939453125</AltitudeMeters>
            <DistanceMeters>NAN</DistanceMeters>
          </Trackpoint>
          <Trackpoint>
            <Time>2019-10-10T13:46:54.000Z</Time>
            <Position>
              <LatitudeDegrees>37.389401234686374664306640625</LatitudeDegrees>
              <LongitudeDegrees>-6.01026336662471294403076171875</LongitudeDegrees>
            </Position>
            <AltitudeMeters>-48.200000762939453125</AltitudeMeters>
            <DistanceMeters>NAN</DistanceMeters>
          </Trackpoint>
          <Trackpoint>
            <Time>2019-10-10T13:46:56.000Z</Time>
            <Position>
              <LatitudeDegrees>37.38941858522593975067138671875</LatitudeDegrees>
              <LongitudeDegrees>-6.01026738993823528289794921875</LongitudeDegrees>
            </Position>
            <AltitudeMeters>-48.200000762939453125</AltitudeMeters>
            <DistanceMeters>NAN</DistanceMeters>
          </Trackpoint>
          <Trackpoint>
            <Time>2019-10-10T13:46:57.000Z</Time>
            <Position>
              <LatitudeDegrees>37.3894399590790271759033203125</LatitudeDegrees>
              <LongitudeDegrees>-6.010267473757266998291015625</LongitudeDegrees>
            </Position>
            <AltitudeMeters>-47.799999237060546875</AltitudeMeters>
            <DistanceMeters>NAN</DistanceMeters>
          </Trackpoint>
          <Trackpoint>
            <Time>2019-10-10T13:47:00.000Z</Time>
            <Position>
              <LatitudeDegrees>37.38953157328069210052490234375</LatitudeDegrees>
              <LongitudeDegrees>-6.01025314070284366607666015625</LongitudeDegrees>
            </Position>
            <AltitudeMeters>-48.40000152587890625</AltitudeMeters>
            <DistanceMeters>NAN</DistanceMeters>
          </Trackpoint>
          <Trackpoint>
            <Time>2019-10-10T13:47:01.000Z</Time>
            <Position>
              <LatitudeDegrees>37.38957365043461322784423828125</LatitudeDegrees>
              <LongitudeDegrees>-6.01025045849382877349853515625</LongitudeDegrees>
            </Position>
            <AltitudeMeters>-48.200000762939453125</AltitudeMeters>
            <DistanceMeters>NAN</DistanceMeters>
          </Trackpoint>
          <Trackpoint>
            <Time>2019-10-10T13:47:03.000Z</Time>
            <Position>
              <LatitudeDegrees>37.38966534845530986785888671875</LatitudeDegrees>
              <LongitudeDegrees>-6.010231263935565948486328125</LongitudeDegrees>
            </Position>
            <AltitudeMeters>-47.799999237060546875</AltitudeMeters>
            <DistanceMeters>NAN</DistanceMeters>
          </Trackpoint>
          <Trackpoint>
            <Time>2019-10-10T13:47:04.000Z</Time>
            <Position>
              <LatitudeDegrees>37.38970742560923099517822265625</LatitudeDegrees>
              <LongitudeDegrees>-6.01020452566444873809814453125</LongitudeDegrees>
            </Position>
            <AltitudeMeters>-47.799999237060546875</AltitudeMeters>
            <DistanceMeters>NAN</DistanceMeters>
          </Trackpoint>
          <Trackpoint>
            <Time>2019-10-10T13:47:06.000Z</Time>
            <Position>
              <LatitudeDegrees>37.38976375199854373931884765625</LatitudeDegrees>
              <LongitudeDegrees>-6.0101026855409145355224609375</LongitudeDegrees>
            </Position>
            <AltitudeMeters>-47.59999847412109375</AltitudeMeters>
            <DistanceMeters>NAN</DistanceMeters>
          </Trackpoint>
          <Trackpoint>
            <Time>2019-10-10T13:47:08.000Z</Time>
            <Position>
              <LatitudeDegrees>37.38978889770805835723876953125</LatitudeDegrees>
              <LongitudeDegrees>-6.00999464280903339385986328125</LongitudeDegrees>
            </Position>
            <AltitudeMeters>-47.40000152587890625</AltitudeMeters>
            <DistanceMeters>NAN</DistanceMeters>
          </Trackpoint>
          <Trackpoint>
            <Time>2019-10-10T13:47:11.000Z</Time>
            <Position>
              <LatitudeDegrees>37.38981328904628753662109375</LatitudeDegrees>
              <LongitudeDegrees>-6.00981711409986019134521484375</LongitudeDegrees>
            </Position>
            <AltitudeMeters>-47.40000152587890625</AltitudeMeters>
            <DistanceMeters>NAN</DistanceMeters>
          </Trackpoint>
          <Trackpoint>
            <Time>2019-10-10T13:47:15.000Z</Time>
            <Position>
              <LatitudeDegrees>37.38984220661222934722900390625</LatitudeDegrees>
              <LongitudeDegrees>-6.00958342663943767547607421875</LongitudeDegrees>
            </Position>
            <AltitudeMeters>-47.40000152587890625</AltitudeMeters>
            <DistanceMeters>NAN</DistanceMeters>
          </Trackpoint>
          <Trackpoint>
            <Time>2019-10-10T13:47:21.000Z</Time>
            <Position>
              <LatitudeDegrees>37.38988109864294528961181640625</LatitudeDegrees>
              <LongitudeDegrees>-6.0092266090214252471923828125</LongitudeDegrees>
            </Position>
            <AltitudeMeters>-47</AltitudeMeters>
            <DistanceMeters>NAN</DistanceMeters>
          </Trackpoint>
          <Trackpoint>
            <Time>2019-10-10T13:47:24.000Z</Time>
            <Position>
              <LatitudeDegrees>37.3899064958095550537109375</LatitudeDegrees>
              <LongitudeDegrees>-6.009062826633453369140625</LongitudeDegrees>
            </Position>
            <AltitudeMeters>-46.59999847412109375</AltitudeMeters>
            <DistanceMeters>NAN</DistanceMeters>
          </Trackpoint>
          <Trackpoint>
            <Time>2019-10-10T13:47:25.000Z</Time>
            <Position>
              <LatitudeDegrees>37.38991546444594860076904296875</LatitudeDegrees>
              <LongitudeDegrees>-6.00900775752961635589599609375</LongitudeDegrees>
            </Position>
            <AltitudeMeters>-46.59999847412109375</AltitudeMeters>
            <DistanceMeters>NAN</DistanceMeters>
          </Trackpoint>
          <Trackpoint>
            <Time>2019-10-10T13:47:28.000Z</Time>
            <Position>
              <LatitudeDegrees>37.3899378441274166107177734375</LatitudeDegrees>
              <LongitudeDegrees>-6.00884648971259593963623046875</LongitudeDegrees>
            </Position>
            <AltitudeMeters>-46.59999847412109375</AltitudeMeters>
            <DistanceMeters>NAN</DistanceMeters>
          </Trackpoint>
          <Trackpoint>
            <Time>2019-10-10T13:47:34.000Z</Time>
            <Position>
              <LatitudeDegrees>37.38995050080120563507080078125</LatitudeDegrees>
              <LongitudeDegrees>-6.00857474841177463531494140625</LongitudeDegrees>
            </Position>
            <AltitudeMeters>-47</AltitudeMeters>
            <DistanceMeters>NAN</DistanceMeters>
          </Trackpoint>
          <Trackpoint>
            <Time>2019-10-10T13:47:38.000Z</Time>
            <Position>
              <LatitudeDegrees>37.3899354971945285797119140625</LatitudeDegrees>
              <LongitudeDegrees>-6.008410044014453887939453125</LongitudeDegrees>
            </Position>
            <AltitudeMeters>-46.59999847412109375</AltitudeMeters>
            <DistanceMeters>NAN</DistanceMeters>
          </Trackpoint>
          <Trackpoint>
            <Time>2019-10-10T13:47:39.000Z</Time>
            <Position>
              <LatitudeDegrees>37.38991160877048969268798828125</LatitudeDegrees>
              <LongitudeDegrees>-6.00838364101946353912353515625</LongitudeDegrees>
            </Position>
            <AltitudeMeters>-46.59999847412109375</AltitudeMeters>
            <DistanceMeters>NAN</DistanceMeters>
          </Trackpoint>
          <Trackpoint>
            <Time>2019-10-10T13:47:42.000Z</Time>
            <Position>
              <LatitudeDegrees>37.389896102249622344970703125</LatitudeDegrees>
              <LongitudeDegrees>-6.00825170986354351043701171875</LongitudeDegrees>
            </Position>
            <AltitudeMeters>-46.40000152587890625</AltitudeMeters>
            <DistanceMeters>NAN</DistanceMeters>
          </Trackpoint>
          <Trackpoint>
            <Time>2019-10-10T13:47:47.000Z</Time>
            <Position>
              <LatitudeDegrees>37.3898520134389400482177734375</LatitudeDegrees>
              <LongitudeDegrees>-6.00803914479911327362060546875</LongitudeDegrees>
            </Position>
            <AltitudeMeters>-46.200000762939453125</AltitudeMeters>
            <DistanceMeters>NAN</DistanceMeters>
          </Trackpoint>
          <Trackpoint>
            <Time>2019-10-10T13:47:51.000Z</Time>
            <Position>
              <LatitudeDegrees>37.389843799173831939697265625</LatitudeDegrees>
              <LongitudeDegrees>-6.0078754462301731109619140625</LongitudeDegrees>
            </Position>
            <AltitudeMeters>-46.200000762939453125</AltitudeMeters>
            <DistanceMeters>NAN</DistanceMeters>
          </Trackpoint>
          <Trackpoint>
            <Time>2019-10-10T13:47:53.000Z</Time>
            <Position>
              <LatitudeDegrees>37.38987657241523265838623046875</LatitudeDegrees>
              <LongitudeDegrees>-6.00780822336673736572265625</LongitudeDegrees>
            </Position>
            <AltitudeMeters>-46</AltitudeMeters>
            <DistanceMeters>NAN</DistanceMeters>
          </Trackpoint>
          <Trackpoint>
            <Time>2019-10-10T13:47:55.000Z</Time>
            <Position>
              <LatitudeDegrees>37.38993474282324314117431640625</LatitudeDegrees>
              <LongitudeDegrees>-6.0077698342502117156982421875</LongitudeDegrees>
            </Position>
            <AltitudeMeters>-46.200000762939453125</AltitudeMeters>
            <DistanceMeters>NAN</DistanceMeters>
          </Trackpoint>
          <Trackpoint>
            <Time>2019-10-10T13:48:01.000Z</Time>
            <Position>
              <LatitudeDegrees>37.39012719132006168365478515625</LatitudeDegrees>
              <LongitudeDegrees>-6.0077339597046375274658203125</LongitudeDegrees>
            </Position>
            <AltitudeMeters>-46.40000152587890625</AltitudeMeters>
            <DistanceMeters>NAN</DistanceMeters>
          </Trackpoint>
          <Trackpoint>
            <Time>2019-10-10T13:48:03.000Z</Time>
            <Position>
              <LatitudeDegrees>37.3901443742215633392333984375</LatitudeDegrees>
              <LongitudeDegrees>-6.00766950286924839019775390625</LongitudeDegrees>
            </Position>
            <AltitudeMeters>-45.59999847412109375</AltitudeMeters>
            <DistanceMeters>NAN</DistanceMeters>
          </Trackpoint>
          <Trackpoint>
            <Time>2019-10-10T13:48:04.000Z</Time>
            <Position>
              <LatitudeDegrees>37.39014982245862483978271484375</LatitudeDegrees>
              <LongitudeDegrees>-6.007626838982105255126953125</LongitudeDegrees>
            </Position>
            <AltitudeMeters>-45.59999847412109375</AltitudeMeters>
            <DistanceMeters>NAN</DistanceMeters>
          </Trackpoint>
          <Trackpoint>
            <Time>2019-10-10T13:48:12.000Z</Time>
            <Position>
              <LatitudeDegrees>37.3901909776031970977783203125</LatitudeDegrees>
              <LongitudeDegrees>-6.0072563588619232177734375</LongitudeDegrees>
            </Position>
            <AltitudeMeters>-45</AltitudeMeters>
            <DistanceMeters>NAN</DistanceMeters>
          </Trackpoint>
          <Trackpoint>
            <Time>2019-10-10T13:48:14.000Z</Time>
            <Position>
              <LatitudeDegrees>37.39019977860152721405029296875</LatitudeDegrees>
              <LongitudeDegrees>-6.00717128254473209381103515625</LongitudeDegrees>
            </Position>
            <AltitudeMeters>-44.59999847412109375</AltitudeMeters>
            <DistanceMeters>NAN</DistanceMeters>
          </Trackpoint>
          <Trackpoint>
            <Time>2019-10-10T13:48:18.000Z</Time>
            <Position>
              <LatitudeDegrees>37.39019944332540035247802734375</LatitudeDegrees>
              <LongitudeDegrees>-6.007008254528045654296875</LongitudeDegrees>
            </Position>
            <AltitudeMeters>-44</AltitudeMeters>
            <DistanceMeters>NAN</DistanceMeters>
          </Trackpoint>
          <Trackpoint>
            <Time>2019-10-10T13:48:22.000Z</Time>
            <Position>
              <LatitudeDegrees>37.39021117798984050750732421875</LatitudeDegrees>
              <LongitudeDegrees>-6.00684120319783687591552734375</LongitudeDegrees>
            </Position>
            <AltitudeMeters>-43.40000152587890625</AltitudeMeters>
            <DistanceMeters>NAN</DistanceMeters>
          </Trackpoint>
          <Trackpoint>
            <Time>2019-10-10T13:48:26.000Z</Time>
            <Position>
              <LatitudeDegrees>37.3902302049100399017333984375</LatitudeDegrees>
              <LongitudeDegrees>-6.00666551850736141204833984375</LongitudeDegrees>
            </Position>
            <AltitudeMeters>-43.200000762939453125</AltitudeMeters>
            <DistanceMeters>NAN</DistanceMeters>
          </Trackpoint>
          <Trackpoint>
            <Time>2019-10-10T13:48:27.000Z</Time>
            <Position>
              <LatitudeDegrees>37.39023431204259395599365234375</LatitudeDegrees>
              <LongitudeDegrees>-6.0066268779337406158447265625</LongitudeDegrees>
            </Position>
            <AltitudeMeters>-43</AltitudeMeters>
            <DistanceMeters>NAN</DistanceMeters>
          </Trackpoint>
          <Trackpoint>
            <Time>2019-10-10T13:48:31.000Z</Time>
            <Position>
              <LatitudeDegrees>37.390248142182826995849609375</LatitudeDegrees>
              <LongitudeDegrees>-6.006517745554447174072265625</LongitudeDegrees>
            </Position>
            <AltitudeMeters>-42.59999847412109375</AltitudeMeters>
            <DistanceMeters>NAN</DistanceMeters>
          </Trackpoint>
          <Trackpoint>
            <Time>2019-10-10T13:48:32.000Z</Time>
            <Position>
              <LatitudeDegrees>37.39024990238249301910400390625</LatitudeDegrees>
              <LongitudeDegrees>-6.00650710053741931915283203125</LongitudeDegrees>
            </Position>
            <AltitudeMeters>-42.59999847412109375</AltitudeMeters>
            <DistanceMeters>NAN</DistanceMeters>
          </Trackpoint>
          <Trackpoint>
            <Time>2019-10-10T13:48:38.000Z</Time>
            <Position>
              <LatitudeDegrees>37.390248142182826995849609375</LatitudeDegrees>
              <LongitudeDegrees>-6.00650089792907238006591796875</LongitudeDegrees>
            </Position>
            <AltitudeMeters>-42.799999237060546875</AltitudeMeters>
            <DistanceMeters>NAN</DistanceMeters>
          </Trackpoint>
          <Trackpoint>
            <Time>2019-10-10T13:48:53.000Z</Time>
            <Position>
              <LatitudeDegrees>37.390248142182826995849609375</LatitudeDegrees>
              <LongitudeDegrees>-6.00650089792907238006591796875</LongitudeDegrees>
            </Position>
            <AltitudeMeters>-42.799999237060546875</AltitudeMeters>
            <DistanceMeters>NAN</DistanceMeters>
          </Trackpoint>
          <Trackpoint>
            <Time>2019-10-10T13:48:55.000Z</Time>
            <Position>
              <LatitudeDegrees>37.390248142182826995849609375</LatitudeDegrees>
              <LongitudeDegrees>-6.00650089792907238006591796875</LongitudeDegrees>
            </Position>
            <AltitudeMeters>-43</AltitudeMeters>
            <DistanceMeters>NAN</DistanceMeters>
          </Trackpoint>
          <Trackpoint>
            <Time>2019-10-10T13:49:11.000Z</Time>
            <Position>
              <LatitudeDegrees>37.39024378359317779541015625</LatitudeDegrees>
              <LongitudeDegrees>-6.006498299539089202880859375</LongitudeDegrees>
            </Position>
            <AltitudeMeters>-42.799999237060546875</AltitudeMeters>
            <DistanceMeters>NAN</DistanceMeters>
          </Trackpoint>
          <Trackpoint>
            <Time>2019-10-10T13:49:19.000Z</Time>
            <Position>
              <LatitudeDegrees>37.39024780690670013427734375</LatitudeDegrees>
              <LongitudeDegrees>-6.00650374777615070343017578125</LongitudeDegrees>
            </Position>
            <AltitudeMeters>-42.799999237060546875</AltitudeMeters>
            <DistanceMeters>NAN</DistanceMeters>
          </Trackpoint>
          <Trackpoint>
            <Time>2019-10-10T13:49:23.000Z</Time>
            <Position>
              <LatitudeDegrees>37.39024780690670013427734375</LatitudeDegrees>
              <LongitudeDegrees>-6.00650374777615070343017578125</LongitudeDegrees>
            </Position>
            <AltitudeMeters>-42.799999237060546875</AltitudeMeters>
            <DistanceMeters>NAN</DistanceMeters>
          </Trackpoint>
          <Trackpoint>
            <Time>2019-10-10T13:49:30.000Z</Time>
            <Position>
              <LatitudeDegrees>37.39024780690670013427734375</LatitudeDegrees>
              <LongitudeDegrees>-6.00650374777615070343017578125</LongitudeDegrees>
            </Position>
            <AltitudeMeters>-42.59999847412109375</AltitudeMeters>
            <DistanceMeters>NAN</DistanceMeters>
          </Trackpoint>
          <Trackpoint>
            <Time>2019-10-10T13:49:38.000Z</Time>
            <Position>
              <LatitudeDegrees>37.39024780690670013427734375</LatitudeDegrees>
              <LongitudeDegrees>-6.00650374777615070343017578125</LongitudeDegrees>
            </Position>
            <AltitudeMeters>-42.799999237060546875</AltitudeMeters>
            <DistanceMeters>NAN</DistanceMeters>
          </Trackpoint>
          <Trackpoint>
            <Time>2019-10-10T13:49:57.000Z</Time>
            <Position>
              <LatitudeDegrees>37.39025451242923736572265625</LatitudeDegrees>
              <LongitudeDegrees>-6.00650307722389698028564453125</LongitudeDegrees>
            </Position>
            <AltitudeMeters>-42.799999237060546875</AltitudeMeters>
            <DistanceMeters>NAN</DistanceMeters>
          </Trackpoint>
          <Trackpoint>
            <Time>2019-10-10T13:50:02.000Z</Time>
            <Position>
              <LatitudeDegrees>37.39025451242923736572265625</LatitudeDegrees>
              <LongitudeDegrees>-6.00650307722389698028564453125</LongitudeDegrees>
            </Position>
            <AltitudeMeters>-42.59999847412109375</AltitudeMeters>
            <DistanceMeters>NAN</DistanceMeters>
          </Trackpoint>
          <Trackpoint>
            <Time>2019-10-10T13:50:08.000Z</Time>
            <Position>
              <LatitudeDegrees>37.39025560207664966583251953125</LatitudeDegrees>
              <LongitudeDegrees>-6.00649503059685230255126953125</LongitudeDegrees>
            </Position>
            <AltitudeMeters>-42.40000152587890625</AltitudeMeters>
            <DistanceMeters>NAN</DistanceMeters>
          </Trackpoint>
          <Trackpoint>
            <Time>2019-10-10T13:50:10.000Z</Time>
            <Position>
              <LatitudeDegrees>37.39025861956179141998291015625</LatitudeDegrees>
              <LongitudeDegrees>-6.0064247064292430877685546875</LongitudeDegrees>
            </Position>
            <AltitudeMeters>-42.59999847412109375</AltitudeMeters>
            <DistanceMeters>NAN</DistanceMeters>
          </Trackpoint>
          <Trackpoint>
            <Time>2019-10-10T13:50:16.000Z</Time>
            <Position>
              <LatitudeDegrees>37.39028225652873516082763671875</LatitudeDegrees>
              <LongitudeDegrees>-6.0062237083911895751953125</LongitudeDegrees>
            </Position>
            <AltitudeMeters>-42.40000152587890625</AltitudeMeters>
            <DistanceMeters>NAN</DistanceMeters>
          </Trackpoint>
          <Trackpoint>
            <Time>2019-10-10T13:50:20.000Z</Time>
            <Position>
              <LatitudeDegrees>37.39030279219150543212890625</LatitudeDegrees>
              <LongitudeDegrees>-6.00607216358184814453125</LongitudeDegrees>
            </Position>
            <AltitudeMeters>-42.59999847412109375</AltitudeMeters>
            <DistanceMeters>NAN</DistanceMeters>
          </Trackpoint>
          <Trackpoint>
            <Time>2019-10-10T13:50:22.000Z</Time>
            <Position>
              <LatitudeDegrees>37.390311174094676971435546875</LatitudeDegrees>
              <LongitudeDegrees>-6.0059876739978790283203125</LongitudeDegrees>
            </Position>
            <AltitudeMeters>-43</AltitudeMeters>
            <DistanceMeters>NAN</DistanceMeters>
          </Trackpoint>
          <Trackpoint>
            <Time>2019-10-10T13:50:28.000Z</Time>
            <Position>
              <LatitudeDegrees>37.39034495316445827484130859375</LatitudeDegrees>
              <LongitudeDegrees>-6.00571610033512115478515625</LongitudeDegrees>
            </Position>
            <AltitudeMeters>-43.40000152587890625</AltitudeMeters>
            <DistanceMeters>NAN</DistanceMeters>
          </Trackpoint>
          <Trackpoint>
            <Time>2019-10-10T13:50:29.000Z</Time>
            <Position>
              <LatitudeDegrees>37.39034897647798061370849609375</LatitudeDegrees>
              <LongitudeDegrees>-6.00568148307502269744873046875</LongitudeDegrees>
            </Position>
            <AltitudeMeters>-43.40000152587890625</AltitudeMeters>
            <DistanceMeters>NAN</DistanceMeters>
          </Trackpoint>
          <Trackpoint>
            <Time>2019-10-10T13:50:31.000Z</Time>
            <Position>
              <LatitudeDegrees>37.39035551436245441436767578125</LatitudeDegrees>
              <LongitudeDegrees>-6.00562146864831447601318359375</LongitudeDegrees>
            </Position>
            <AltitudeMeters>-43.59999847412109375</AltitudeMeters>
            <DistanceMeters>NAN</DistanceMeters>
          </Trackpoint>
          <Trackpoint>
            <Time>2019-10-10T13:50:34.000Z</Time>
            <Position>
              <LatitudeDegrees>37.39036942832171916961669921875</LatitudeDegrees>
              <LongitudeDegrees>-6.0055451095104217529296875</LongitudeDegrees>
            </Position>
            <AltitudeMeters>-44.59999847412109375</AltitudeMeters>
            <DistanceMeters>NAN</DistanceMeters>
          </Trackpoint>
          <Trackpoint>
            <Time>2019-10-10T13:50:35.000Z</Time>
            <Position>
              <LatitudeDegrees>37.3903807438910007476806640625</LatitudeDegrees>
              <LongitudeDegrees>-6.0055110789835453033447265625</LongitudeDegrees>
            </Position>
            <AltitudeMeters>-44.799999237060546875</AltitudeMeters>
            <DistanceMeters>NAN</DistanceMeters>
          </Trackpoint>
          <Trackpoint>
            <Time>2019-10-10T13:50:39.000Z</Time>
            <Position>
              <LatitudeDegrees>37.3903978429734706878662109375</LatitudeDegrees>
              <LongitudeDegrees>-6.0053048841655254364013671875</LongitudeDegrees>
            </Position>
            <AltitudeMeters>-44.59999847412109375</AltitudeMeters>
            <DistanceMeters>NAN</DistanceMeters>
          </Trackpoint>
          <Trackpoint>
            <Time>2019-10-10T13:50:41.000Z</Time>
            <Position>
              <LatitudeDegrees>37.3904052190482616424560546875</LatitudeDegrees>
              <LongitudeDegrees>-6.005186699330806732177734375</LongitudeDegrees>
            </Position>
            <AltitudeMeters>-45.40000152587890625</AltitudeMeters>
            <DistanceMeters>NAN</DistanceMeters>
          </Trackpoint>
          <Trackpoint>
            <Time>2019-10-10T13:50:43.000Z</Time>
            <Position>
              <LatitudeDegrees>37.39042223431169986724853515625</LatitudeDegrees>
              <LongitudeDegrees>-6.00506524555385112762451171875</LongitudeDegrees>
            </Position>
            <AltitudeMeters>-45.40000152587890625</AltitudeMeters>
            <DistanceMeters>NAN</DistanceMeters>
          </Trackpoint>
          <Trackpoint>
            <Time>2019-10-10T13:50:45.000Z</Time>
            <Position>
              <LatitudeDegrees>37.390435896813869476318359375</LatitudeDegrees>
              <LongitudeDegrees>-6.004948318004608154296875</LongitudeDegrees>
            </Position>
            <AltitudeMeters>-45.40000152587890625</AltitudeMeters>
            <DistanceMeters>NAN</DistanceMeters>
          </Trackpoint>
          <Trackpoint>
            <Time>2019-10-10T13:50:47.000Z</Time>
            <Position>
              <LatitudeDegrees>37.390449978411197662353515625</LatitudeDegrees>
              <LongitudeDegrees>-6.0048328153789043426513671875</LongitudeDegrees>
            </Position>
            <AltitudeMeters>-45.40000152587890625</AltitudeMeters>
            <DistanceMeters>NAN</DistanceMeters>
          </Trackpoint>
          <Trackpoint>
            <Time>2019-10-10T13:50:50.000Z</Time>
            <Position>
              <LatitudeDegrees>37.39046850241720676422119140625</LatitudeDegrees>
              <LongitudeDegrees>-6.0046665184199810028076171875</LongitudeDegrees>
            </Position>
            <AltitudeMeters>-45</AltitudeMeters>
            <DistanceMeters>NAN</DistanceMeters>
          </Trackpoint>
          <Trackpoint>
            <Time>2019-10-10T13:50:52.000Z</Time>
            <Position>
              <LatitudeDegrees>37.39047872833907604217529296875</LatitudeDegrees>
              <LongitudeDegrees>-6.00455512292683124542236328125</LongitudeDegrees>
            </Position>
            <AltitudeMeters>-45.59999847412109375</AltitudeMeters>
            <DistanceMeters>NAN</DistanceMeters>
          </Trackpoint>
          <Trackpoint>
            <Time>2019-10-10T13:50:57.000Z</Time>
            <Position>
              <LatitudeDegrees>37.39050571806728839874267578125</LatitudeDegrees>
              <LongitudeDegrees>-6.00427701137959957122802734375</LongitudeDegrees>
            </Position>
            <AltitudeMeters>-45.59999847412109375</AltitudeMeters>
            <DistanceMeters>NAN</DistanceMeters>
          </Trackpoint>
          <Trackpoint>
            <Time>2019-10-10T13:50:59.000Z</Time>
            <Position>
              <LatitudeDegrees>37.39051795564591884613037109375</LatitudeDegrees>
              <LongitudeDegrees>-6.00417508743703365325927734375</LongitudeDegrees>
            </Position>
            <AltitudeMeters>-46</AltitudeMeters>
            <DistanceMeters>NAN</DistanceMeters>
          </Trackpoint>
          <Trackpoint>
            <Time>2019-10-10T13:51:01.000Z</Time>
            <Position>
              <LatitudeDegrees>37.3905182071030139923095703125</LatitudeDegrees>
              <LongitudeDegrees>-6.00409126840531826019287109375</LongitudeDegrees>
            </Position>
            <AltitudeMeters>-46</AltitudeMeters>
            <DistanceMeters>NAN</DistanceMeters>
          </Trackpoint>
          <Trackpoint>
            <Time>2019-10-10T13:51:03.000Z</Time>
            <Position>
              <LatitudeDegrees>37.39051125012338161468505859375</LatitudeDegrees>
              <LongitudeDegrees>-6.00402354262769222259521484375</LongitudeDegrees>
            </Position>
            <AltitudeMeters>-45.40000152587890625</AltitudeMeters>
            <DistanceMeters>NAN</DistanceMeters>
          </Trackpoint>
          <Trackpoint>
            <Time>2019-10-10T13:51:04.000Z</Time>
            <Position>
              <LatitudeDegrees>37.390505634248256683349609375</LatitudeDegrees>
              <LongitudeDegrees>-6.0039902664721012115478515625</LongitudeDegrees>
            </Position>
            <AltitudeMeters>-45.59999847412109375</AltitudeMeters>
            <DistanceMeters>NAN</DistanceMeters>
          </Trackpoint>
          <Trackpoint>
            <Time>2019-10-10T13:51:07.000Z</Time>
            <Position>
              <LatitudeDegrees>37.39046146161854267120361328125</LatitudeDegrees>
              <LongitudeDegrees>-6.00389714352786540985107421875</LongitudeDegrees>
            </Position>
            <AltitudeMeters>-46.200000762939453125</AltitudeMeters>
            <DistanceMeters>NAN</DistanceMeters>
          </Trackpoint>
          <Trackpoint>
            <Time>2019-10-10T13:51:08.000Z</Time>
            <Position>
              <LatitudeDegrees>37.3904521577060222625732421875</LatitudeDegrees>
              <LongitudeDegrees>-6.00386814214289188385009765625</LongitudeDegrees>
            </Position>
            <AltitudeMeters>-46.200000762939453125</AltitudeMeters>
            <DistanceMeters>NAN</DistanceMeters>
          </Trackpoint>
          <Trackpoint>
            <Time>2019-10-10T13:51:11.000Z</Time>
            <Position>
              <LatitudeDegrees>37.39048182964324951171875</LatitudeDegrees>
              <LongitudeDegrees>-6.0037746839225292205810546875</LongitudeDegrees>
            </Position>
            <AltitudeMeters>-46.40000152587890625</AltitudeMeters>
            <DistanceMeters>NAN</DistanceMeters>
          </Trackpoint>
          <Trackpoint>
            <Time>2019-10-10T13:51:16.000Z</Time>
            <Position>
              <LatitudeDegrees>37.3905138485133647918701171875</LatitudeDegrees>
              <LongitudeDegrees>-6.0036114044487476348876953125</LongitudeDegrees>
            </Position>
            <AltitudeMeters>-46</AltitudeMeters>
            <DistanceMeters>NAN</DistanceMeters>
          </Trackpoint>
          <Trackpoint>
            <Time>2019-10-10T13:51:19.000Z</Time>
            <Position>
              <LatitudeDegrees>37.39052231423556804656982421875</LatitudeDegrees>
              <LongitudeDegrees>-6.0035148449242115020751953125</LongitudeDegrees>
            </Position>
            <AltitudeMeters>-46.200000762939453125</AltitudeMeters>
            <DistanceMeters>NAN</DistanceMeters>
          </Trackpoint>
          <Trackpoint>
            <Time>2019-10-10T13:51:22.000Z</Time>
            <Position>
              <LatitudeDegrees>37.3905275948345661163330078125</LatitudeDegrees>
              <LongitudeDegrees>-6.00341334007680416107177734375</LongitudeDegrees>
            </Position>
            <AltitudeMeters>-45.799999237060546875</AltitudeMeters>
            <DistanceMeters>NAN</DistanceMeters>
          </Trackpoint>
          <Trackpoint>
            <Time>2019-10-10T13:51:29.000Z</Time>
            <Position>
              <LatitudeDegrees>37.3905155248939990997314453125</LatitudeDegrees>
              <LongitudeDegrees>-6.003231368958950042724609375</LongitudeDegrees>
            </Position>
            <AltitudeMeters>-46</AltitudeMeters>
            <DistanceMeters>NAN</DistanceMeters>
          </Trackpoint>
          <Trackpoint>
            <Time>2019-10-10T13:51:31.000Z</Time>
            <Position>
              <LatitudeDegrees>37.39049850963056087493896484375</LatitudeDegrees>
              <LongitudeDegrees>-6.00318987853825092315673828125</LongitudeDegrees>
            </Position>
            <AltitudeMeters>-45.799999237060546875</AltitudeMeters>
            <DistanceMeters>NAN</DistanceMeters>
          </Trackpoint>
          <Trackpoint>
            <Time>2019-10-10T13:51:35.000Z</Time>
            <Position>
              <LatitudeDegrees>37.3904739506542682647705078125</LatitudeDegrees>
              <LongitudeDegrees>-6.0031765513122081756591796875</LongitudeDegrees>
            </Position>
            <AltitudeMeters>-45.799999237060546875</AltitudeMeters>
            <DistanceMeters>NAN</DistanceMeters>
          </Trackpoint>
          <Trackpoint>
            <Time>2019-10-10T13:51:43.000Z</Time>
            <Position>
              <LatitudeDegrees>37.39047839306294918060302734375</LatitudeDegrees>
              <LongitudeDegrees>-6.00316003896296024322509765625</LongitudeDegrees>
            </Position>
            <AltitudeMeters>-45.59999847412109375</AltitudeMeters>
            <DistanceMeters>NAN</DistanceMeters>
          </Trackpoint>
          <Trackpoint>
            <Time>2019-10-10T13:51:54.000Z</Time>
            <Position>
              <LatitudeDegrees>37.3904732801020145416259765625</LatitudeDegrees>
              <LongitudeDegrees>-6.00315417163074016571044921875</LongitudeDegrees>
            </Position>
            <AltitudeMeters>-45.799999237060546875</AltitudeMeters>
            <DistanceMeters>NAN</DistanceMeters>
          </Trackpoint>
          <Trackpoint>
            <Time>2019-10-10T13:51:56.000Z</Time>
            <Position>
              <LatitudeDegrees>37.39046045579016208648681640625</LatitudeDegrees>
              <LongitudeDegrees>-6.00312567315995693206787109375</LongitudeDegrees>
            </Position>
            <AltitudeMeters>-45.799999237060546875</AltitudeMeters>
            <DistanceMeters>NAN</DistanceMeters>
          </Trackpoint>
          <Trackpoint>
            <Time>2019-10-10T13:51:58.000Z</Time>
            <Position>
              <LatitudeDegrees>37.39046481437981128692626953125</LatitudeDegrees>
              <LongitudeDegrees>-6.00310002453625202178955078125</LongitudeDegrees>
            </Position>
            <AltitudeMeters>-45.799999237060546875</AltitudeMeters>
            <DistanceMeters>NAN</DistanceMeters>
          </Trackpoint>
          <Trackpoint>
            <Time>2019-10-10T13:52:00.000Z</Time>
            <Position>
              <LatitudeDegrees>37.390448637306690216064453125</LatitudeDegrees>
              <LongitudeDegrees>-6.00307881832122802734375</LongitudeDegrees>
            </Position>
            <AltitudeMeters>-45.799999237060546875</AltitudeMeters>
            <DistanceMeters>NAN</DistanceMeters>
          </Trackpoint>
          <Trackpoint>
            <Time>2019-10-10T13:52:02.000Z</Time>
            <Position>
              <LatitudeDegrees>37.39041301421821117401123046875</LatitudeDegrees>
              <LongitudeDegrees>-6.00304990075528621673583984375</LongitudeDegrees>
            </Position>
            <AltitudeMeters>-46</AltitudeMeters>
            <DistanceMeters>NAN</DistanceMeters>
          </Trackpoint>
          <Trackpoint>
            <Time>2019-10-10T13:52:05.000Z</Time>
            <Position>
              <LatitudeDegrees>37.3903354816138744354248046875</LatitudeDegrees>
              <LongitudeDegrees>-6.0030069015920162200927734375</LongitudeDegrees>
            </Position>
            <AltitudeMeters>-45.59999847412109375</AltitudeMeters>
            <DistanceMeters>NAN</DistanceMeters>
          </Trackpoint>
          <Trackpoint>
            <Time>2019-10-10T13:52:07.000Z</Time>
            <Position>
              <LatitudeDegrees>37.39029935561120510101318359375</LatitudeDegrees>
              <LongitudeDegrees>-6.00295149721205234527587890625</LongitudeDegrees>
            </Position>
            <AltitudeMeters>-45.40000152587890625</AltitudeMeters>
            <DistanceMeters>NAN</DistanceMeters>
          </Trackpoint>
          <Trackpoint>
            <Time>2019-10-10T13:52:10.000Z</Time>
            <Position>
              <LatitudeDegrees>37.390242777764797210693359375</LatitudeDegrees>
              <LongitudeDegrees>-6.00284856744110584259033203125</LongitudeDegrees>
            </Position>
            <AltitudeMeters>-45.799999237060546875</AltitudeMeters>
            <DistanceMeters>NAN</DistanceMeters>
          </Trackpoint>
          <Trackpoint>
            <Time>2019-10-10T13:52:12.000Z</Time>
            <Position>
              <LatitudeDegrees>37.39017463289201259613037109375</LatitudeDegrees>
              <LongitudeDegrees>-6.0028023831546306610107421875</LongitudeDegrees>
            </Position>
            <AltitudeMeters>-45.799999237060546875</AltitudeMeters>
            <DistanceMeters>NAN</DistanceMeters>
          </Trackpoint>
          <Trackpoint>
            <Time>2019-10-10T13:52:14.000Z</Time>
            <Position>
              <LatitudeDegrees>37.3900994472205638885498046875</LatitudeDegrees>
              <LongitudeDegrees>-6.00277195684611797332763671875</LongitudeDegrees>
            </Position>
            <AltitudeMeters>-45.799999237060546875</AltitudeMeters>
            <DistanceMeters>NAN</DistanceMeters>
          </Trackpoint>
          <Trackpoint>
            <Time>2019-10-10T13:52:15.000Z</Time>
            <Position>
              <LatitudeDegrees>37.390057705342769622802734375</LatitudeDegrees>
              <LongitudeDegrees>-6.00276826880872249603271484375</LongitudeDegrees>
            </Position>
            <AltitudeMeters>-46</AltitudeMeters>
            <DistanceMeters>NAN</DistanceMeters>
          </Trackpoint>
          <Trackpoint>
            <Time>2019-10-10T13:52:18.000Z</Time>
            <Position>
              <LatitudeDegrees>37.38993356935679912567138671875</LatitudeDegrees>
              <LongitudeDegrees>-6.00272686220705509185791015625</LongitudeDegrees>
            </Position>
            <AltitudeMeters>-46</AltitudeMeters>
            <DistanceMeters>NAN</DistanceMeters>
          </Trackpoint>
          <Trackpoint>
            <Time>2019-10-10T13:52:22.000Z</Time>
            <Position>
              <LatitudeDegrees>37.38976911641657352447509765625</LatitudeDegrees>
              <LongitudeDegrees>-6.0026934184134006500244140625</LongitudeDegrees>
            </Position>
            <AltitudeMeters>-46</AltitudeMeters>
            <DistanceMeters>NAN</DistanceMeters>
          </Trackpoint>
          <Trackpoint>
            <Time>2019-10-10T13:52:23.000Z</Time>
            <Position>
              <LatitudeDegrees>37.3897241055965423583984375</LatitudeDegrees>
              <LongitudeDegrees>-6.0026858747005462646484375</LongitudeDegrees>
            </Position>
            <AltitudeMeters>-46</AltitudeMeters>
            <DistanceMeters>NAN</DistanceMeters>
          </Trackpoint>
          <Trackpoint>
            <Time>2019-10-10T13:52:29.000Z</Time>
            <Position>
              <LatitudeDegrees>37.3894993029534816741943359375</LatitudeDegrees>
              <LongitudeDegrees>-6.00262041203677654266357421875</LongitudeDegrees>
            </Position>
            <AltitudeMeters>-46</AltitudeMeters>
            <DistanceMeters>NAN</DistanceMeters>
          </Trackpoint>
          <Trackpoint>
            <Time>2019-10-10T13:52:30.000Z</Time>
            <Position>
              <LatitudeDegrees>37.38946602679789066314697265625</LatitudeDegrees>
              <LongitudeDegrees>-6.0026027262210845947265625</LongitudeDegrees>
            </Position>
            <AltitudeMeters>-46</AltitudeMeters>
            <DistanceMeters>NAN</DistanceMeters>
          </Trackpoint>
          <Trackpoint>
            <Time>2019-10-10T13:52:36.000Z</Time>
            <Position>
              <LatitudeDegrees>37.38925513811409473419189453125</LatitudeDegrees>
              <LongitudeDegrees>-6.002470292150974273681640625</LongitudeDegrees>
            </Position>
            <AltitudeMeters>-45.799999237060546875</AltitudeMeters>
            <DistanceMeters>NAN</DistanceMeters>
          </Trackpoint>
          <Trackpoint>
            <Time>2019-10-10T13:52:37.000Z</Time>
            <Position>
              <LatitudeDegrees>37.38922026939690113067626953125</LatitudeDegrees>
              <LongitudeDegrees>-6.0024525225162506103515625</LongitudeDegrees>
            </Position>
            <AltitudeMeters>-46</AltitudeMeters>
            <DistanceMeters>NAN</DistanceMeters>
          </Trackpoint>
          <Trackpoint>
            <Time>2019-10-10T13:52:38.000Z</Time>
            <Position>
              <LatitudeDegrees>37.389185316860675811767578125</LatitudeDegrees>
              <LongitudeDegrees>-6.0024402849376201629638671875</LongitudeDegrees>
            </Position>
            <AltitudeMeters>-46</AltitudeMeters>
            <DistanceMeters>NAN</DistanceMeters>
          </Trackpoint>
          <Trackpoint>
            <Time>2019-10-10T13:52:42.000Z</Time>
            <Position>
              <LatitudeDegrees>37.3890372924506664276123046875</LatitudeDegrees>
              <LongitudeDegrees>-6.0023534484207630157470703125</LongitudeDegrees>
            </Position>
            <AltitudeMeters>-45.799999237060546875</AltitudeMeters>
            <DistanceMeters>NAN</DistanceMeters>
          </Trackpoint>
          <Trackpoint>
            <Time>2019-10-10T13:52:44.000Z</Time>
            <Position>
              <LatitudeDegrees>37.38896830938756465911865234375</LatitudeDegrees>
              <LongitudeDegrees>-6.00232033990323543548583984375</LongitudeDegrees>
            </Position>
            <AltitudeMeters>-46.200000762939453125</AltitudeMeters>
            <DistanceMeters>NAN</DistanceMeters>
          </Trackpoint>
          <Trackpoint>
            <Time>2019-10-10T13:52:46.000Z</Time>
            <Position>
              <LatitudeDegrees>37.38888750784099102020263671875</LatitudeDegrees>
              <LongitudeDegrees>-6.00229854695498943328857421875</LongitudeDegrees>
            </Position>
            <AltitudeMeters>-46</AltitudeMeters>
            <DistanceMeters>NAN</DistanceMeters>
          </Trackpoint>
          <Trackpoint>
            <Time>2019-10-10T13:52:49.000Z</Time>
            <Position>
              <LatitudeDegrees>37.38876915536820888519287109375</LatitudeDegrees>
              <LongitudeDegrees>-6.00225412286818027496337890625</LongitudeDegrees>
            </Position>
            <AltitudeMeters>-45.799999237060546875</AltitudeMeters>
            <DistanceMeters>NAN</DistanceMeters>
          </Trackpoint>
          <Trackpoint>
            <Time>2019-10-10T13:52:51.000Z</Time>
            <Position>
              <LatitudeDegrees>37.388688437640666961669921875</LatitudeDegrees>
              <LongitudeDegrees>-6.0022133029997348785400390625</LongitudeDegrees>
            </Position>
            <AltitudeMeters>-45.59999847412109375</AltitudeMeters>
            <DistanceMeters>NAN</DistanceMeters>
          </Trackpoint>
          <Trackpoint>
            <Time>2019-10-10T13:52:53.000Z</Time>
            <Position>
              <LatitudeDegrees>37.38861341960728168487548828125</LatitudeDegrees>
              <LongitudeDegrees>-6.00217022001743316650390625</LongitudeDegrees>
            </Position>
            <AltitudeMeters>-46</AltitudeMeters>
            <DistanceMeters>NAN</DistanceMeters>
          </Trackpoint>
          <Trackpoint>
            <Time>2019-10-10T13:52:56.000Z</Time>
            <Position>
              <LatitudeDegrees>37.3885025270283222198486328125</LatitudeDegrees>
              <LongitudeDegrees>-6.00208430550992488861083984375</LongitudeDegrees>
            </Position>
            <AltitudeMeters>-46</AltitudeMeters>
            <DistanceMeters>NAN</DistanceMeters>
          </Trackpoint>
          <Trackpoint>
            <Time>2019-10-10T13:52:57.000Z</Time>
            <Position>
              <LatitudeDegrees>37.38845902495086193084716796875</LatitudeDegrees>
              <LongitudeDegrees>-6.0020540468394756317138671875</LongitudeDegrees>
            </Position>
            <AltitudeMeters>-46.200000762939453125</AltitudeMeters>
            <DistanceMeters>NAN</DistanceMeters>
          </Trackpoint>
          <Trackpoint>
            <Time>2019-10-10T13:52:59.000Z</Time>
            <Position>
              <LatitudeDegrees>37.3883657343685626983642578125</LatitudeDegrees>
              <LongitudeDegrees>-6.002002246677875518798828125</LongitudeDegrees>
            </Position>
            <AltitudeMeters>-46</AltitudeMeters>
            <DistanceMeters>NAN</DistanceMeters>
          </Trackpoint>
          <Trackpoint>
            <Time>2019-10-10T13:53:02.000Z</Time>
            <Position>
              <LatitudeDegrees>37.38825970329344272613525390625</LatitudeDegrees>
              <LongitudeDegrees>-6.00194835104048252105712890625</LongitudeDegrees>
            </Position>
            <AltitudeMeters>-46</AltitudeMeters>
            <DistanceMeters>NAN</DistanceMeters>
          </Trackpoint>
          <Trackpoint>
            <Time>2019-10-10T13:53:04.000Z</Time>
            <Position>
              <LatitudeDegrees>37.388169765472412109375</LatitudeDegrees>
              <LongitudeDegrees>-6.001923121511936187744140625</LongitudeDegrees>
            </Position>
            <AltitudeMeters>-46</AltitudeMeters>
            <DistanceMeters>NAN</DistanceMeters>
          </Trackpoint>
          <Trackpoint>
            <Time>2019-10-10T13:53:07.000Z</Time>
            <Position>
              <LatitudeDegrees>37.38803205080330371856689453125</LatitudeDegrees>
              <LongitudeDegrees>-6.00190141238272190093994140625</LongitudeDegrees>
            </Position>
            <AltitudeMeters>-45.799999237060546875</AltitudeMeters>
            <DistanceMeters>NAN</DistanceMeters>
          </Trackpoint>
          <Trackpoint>
            <Time>2019-10-10T13:53:09.000Z</Time>
            <Position>
              <LatitudeDegrees>37.38794001750648021697998046875</LatitudeDegrees>
              <LongitudeDegrees>-6.0018797032535076141357421875</LongitudeDegrees>
            </Position>
            <AltitudeMeters>-45.40000152587890625</AltitudeMeters>
            <DistanceMeters>NAN</DistanceMeters>
          </Trackpoint>
          <Trackpoint>
            <Time>2019-10-10T13:53:11.000Z</Time>
            <Position>
              <LatitudeDegrees>37.38786491565406322479248046875</LatitudeDegrees>
              <LongitudeDegrees>-6.00184961222112178802490234375</LongitudeDegrees>
            </Position>
            <AltitudeMeters>-45.59999847412109375</AltitudeMeters>
            <DistanceMeters>NAN</DistanceMeters>
          </Trackpoint>
          <Trackpoint>
            <Time>2019-10-10T13:53:13.000Z</Time>
            <Position>
              <LatitudeDegrees>37.387793250381946563720703125</LatitudeDegrees>
              <LongitudeDegrees>-6.0018143244087696075439453125</LongitudeDegrees>
            </Position>
            <AltitudeMeters>-45.59999847412109375</AltitudeMeters>
            <DistanceMeters>NAN</DistanceMeters>
          </Trackpoint>
          <Trackpoint>
            <Time>2019-10-10T13:53:14.000Z</Time>
            <Position>
              <LatitudeDegrees>37.3877615667879581451416015625</LatitudeDegrees>
              <LongitudeDegrees>-6.00179278291761875152587890625</LongitudeDegrees>
            </Position>
            <AltitudeMeters>-45.40000152587890625</AltitudeMeters>
            <DistanceMeters>NAN</DistanceMeters>
          </Trackpoint>
          <Trackpoint>
            <Time>2019-10-10T13:53:17.000Z</Time>
            <Position>
              <LatitudeDegrees>37.3876569606363773345947265625</LatitudeDegrees>
              <LongitudeDegrees>-6.0017221234738826751708984375</LongitudeDegrees>
            </Position>
            <AltitudeMeters>-45.40000152587890625</AltitudeMeters>
            <DistanceMeters>NAN</DistanceMeters>
          </Trackpoint>
          <Trackpoint>
            <Time>2019-10-10T13:53:18.000Z</Time>
            <Position>
              <LatitudeDegrees>37.3876311443746089935302734375</LatitudeDegrees>
              <LongitudeDegrees>-6.00170552730560302734375</LongitudeDegrees>
            </Position>
            <AltitudeMeters>-45.200000762939453125</AltitudeMeters>
            <DistanceMeters>NAN</DistanceMeters>
          </Trackpoint>
          <Trackpoint>
            <Time>2019-10-10T13:53:21.000Z</Time>
            <Position>
              <LatitudeDegrees>37.3875852115452289581298828125</LatitudeDegrees>
              <LongitudeDegrees>-6.00170217454433441162109375</LongitudeDegrees>
            </Position>
            <AltitudeMeters>-45.200000762939453125</AltitudeMeters>
            <DistanceMeters>NAN</DistanceMeters>
          </Trackpoint>
          <Trackpoint>
            <Time>2019-10-10T13:53:22.000Z</Time>
            <Position>
              <LatitudeDegrees>37.3875835351645946502685546875</LatitudeDegrees>
              <LongitudeDegrees>-6.0017015039920806884765625</LongitudeDegrees>
            </Position>
            <AltitudeMeters>-45.40000152587890625</AltitudeMeters>
            <DistanceMeters>NAN</DistanceMeters>
          </Trackpoint>
          <Trackpoint>
            <Time>2019-10-10T13:53:26.000Z</Time>
            <Position>
              <LatitudeDegrees>37.387578003108501434326171875</LatitudeDegrees>
              <LongitudeDegrees>-6.001708544790744781494140625</LongitudeDegrees>
            </Position>
            <AltitudeMeters>-45.200000762939453125</AltitudeMeters>
            <DistanceMeters>NAN</DistanceMeters>
          </Trackpoint>
          <Trackpoint>
            <Time>2019-10-10T13:53:32.000Z</Time>
            <Position>
              <LatitudeDegrees>37.387578003108501434326171875</LatitudeDegrees>
              <LongitudeDegrees>-6.001708544790744781494140625</LongitudeDegrees>
            </Position>
            <AltitudeMeters>-45.200000762939453125</AltitudeMeters>
            <DistanceMeters>NAN</DistanceMeters>
          </Trackpoint>
          <Trackpoint>
            <Time>2019-10-10T13:53:33.000Z</Time>
            <Position>
              <LatitudeDegrees>37.387578003108501434326171875</LatitudeDegrees>
              <LongitudeDegrees>-6.001708544790744781494140625</LongitudeDegrees>
            </Position>
            <AltitudeMeters>-45.200000762939453125</AltitudeMeters>
            <DistanceMeters>NAN</DistanceMeters>
          </Trackpoint>
          <Trackpoint>
            <Time>2019-10-10T13:53:34.000Z</Time>
            <Position>
              <LatitudeDegrees>37.387578003108501434326171875</LatitudeDegrees>
              <LongitudeDegrees>-6.001708544790744781494140625</LongitudeDegrees>
            </Position>
            <AltitudeMeters>-45.200000762939453125</AltitudeMeters>
            <DistanceMeters>NAN</DistanceMeters>
          </Trackpoint>
          <Trackpoint>
            <Time>2019-10-10T13:53:50.000Z</Time>
            <Position>
              <LatitudeDegrees>37.387578003108501434326171875</LatitudeDegrees>
              <LongitudeDegrees>-6.001708544790744781494140625</LongitudeDegrees>
            </Position>
            <AltitudeMeters>-45</AltitudeMeters>
            <DistanceMeters>NAN</DistanceMeters>
          </Trackpoint>
          <Trackpoint>
            <Time>2019-10-10T13:53:53.000Z</Time>
            <Position>
              <LatitudeDegrees>37.387578003108501434326171875</LatitudeDegrees>
              <LongitudeDegrees>-6.001708544790744781494140625</LongitudeDegrees>
            </Position>
            <AltitudeMeters>-45.200000762939453125</AltitudeMeters>
            <DistanceMeters>NAN</DistanceMeters>
          </Trackpoint>
          <Trackpoint>
            <Time>2019-10-10T13:54:00.000Z</Time>
            <Position>
              <LatitudeDegrees>37.387578003108501434326171875</LatitudeDegrees>
              <LongitudeDegrees>-6.001708544790744781494140625</LongitudeDegrees>
            </Position>
            <AltitudeMeters>-45.200000762939453125</AltitudeMeters>
            <DistanceMeters>NAN</DistanceMeters>
          </Trackpoint>
          <Trackpoint>
            <Time>2019-10-10T13:54:09.000Z</Time>
            <Position>
              <LatitudeDegrees>37.3875667713582515716552734375</LatitudeDegrees>
              <LongitudeDegrees>-6.0017095506191253662109375</LongitudeDegrees>
            </Position>
            <AltitudeMeters>-45</AltitudeMeters>
            <DistanceMeters>NAN</DistanceMeters>
          </Trackpoint>
          <Trackpoint>
            <Time>2019-10-10T13:54:12.000Z</Time>
            <Position>
              <LatitudeDegrees>37.38747549243271350860595703125</LatitudeDegrees>
              <LongitudeDegrees>-6.00164291448891162872314453125</LongitudeDegrees>
            </Position>
            <AltitudeMeters>-45</AltitudeMeters>
            <DistanceMeters>NAN</DistanceMeters>
          </Trackpoint>
          <Trackpoint>
            <Time>2019-10-10T13:54:13.000Z</Time>
            <Position>
              <LatitudeDegrees>37.38745219074189662933349609375</LatitudeDegrees>
              <LongitudeDegrees>-6.0016076266765594482421875</LongitudeDegrees>
            </Position>
            <AltitudeMeters>-45</AltitudeMeters>
            <DistanceMeters>NAN</DistanceMeters>
          </Trackpoint>
          <Trackpoint>
            <Time>2019-10-10T13:54:18.000Z</Time>
            <Position>
              <LatitudeDegrees>37.38727013580501079559326171875</LatitudeDegrees>
              <LongitudeDegrees>-6.00143730640411376953125</LongitudeDegrees>
            </Position>
            <AltitudeMeters>-45</AltitudeMeters>
            <DistanceMeters>NAN</DistanceMeters>
          </Trackpoint>
          <Trackpoint>
            <Time>2019-10-10T13:54:24.000Z</Time>
            <Position>
              <LatitudeDegrees>37.38706142641603946685791015625</LatitudeDegrees>
              <LongitudeDegrees>-6.001149304211139678955078125</LongitudeDegrees>
            </Position>
            <AltitudeMeters>-45.40000152587890625</AltitudeMeters>
            <DistanceMeters>NAN</DistanceMeters>
          </Trackpoint>
          <Trackpoint>
            <Time>2019-10-10T13:54:26.000Z</Time>
            <Position>
              <LatitudeDegrees>37.3869934491813182830810546875</LatitudeDegrees>
              <LongitudeDegrees>-6.0010358132421970367431640625</LongitudeDegrees>
            </Position>
            <AltitudeMeters>-45.59999847412109375</AltitudeMeters>
            <DistanceMeters>NAN</DistanceMeters>
          </Trackpoint>
          <Trackpoint>
            <Time>2019-10-10T13:54:29.000Z</Time>
            <Position>
              <LatitudeDegrees>37.3868720792233943939208984375</LatitudeDegrees>
              <LongitudeDegrees>-6.00087337195873260498046875</LongitudeDegrees>
            </Position>
            <AltitudeMeters>-46.200000762939453125</AltitudeMeters>
            <DistanceMeters>NAN</DistanceMeters>
          </Trackpoint>
          <Trackpoint>
            <Time>2019-10-10T13:54:30.000Z</Time>
            <Position>
              <LatitudeDegrees>37.3868288286030292510986328125</LatitudeDegrees>
              <LongitudeDegrees>-6.0008203983306884765625</LongitudeDegrees>
            </Position>
            <AltitudeMeters>-47</AltitudeMeters>
            <DistanceMeters>NAN</DistanceMeters>
          </Trackpoint>
          <Trackpoint>
            <Time>2019-10-10T13:54:37.000Z</Time>
            <Position>
              <LatitudeDegrees>37.3865294270217418670654296875</LatitudeDegrees>
              <LongitudeDegrees>-6.00046760402619838714599609375</LongitudeDegrees>
            </Position>
            <AltitudeMeters>-46.799999237060546875</AltitudeMeters>
            <DistanceMeters>NAN</DistanceMeters>
          </Trackpoint>
          <Trackpoint>
            <Time>2019-10-10T13:54:44.000Z</Time>
            <Position>
              <LatitudeDegrees>37.3862484656274318695068359375</LatitudeDegrees>
              <LongitudeDegrees>-6.00015630014240741729736328125</LongitudeDegrees>
            </Position>
            <AltitudeMeters>-46.59999847412109375</AltitudeMeters>
            <DistanceMeters>NAN</DistanceMeters>
          </Trackpoint>
          <Trackpoint>
            <Time>2019-10-10T13:54:46.000Z</Time>
            <Position>
              <LatitudeDegrees>37.38617177121341228485107421875</LatitudeDegrees>
              <LongitudeDegrees>-6.0000749118626117706298828125</LongitudeDegrees>
            </Position>
            <AltitudeMeters>-46.40000152587890625</AltitudeMeters>
            <DistanceMeters>NAN</DistanceMeters>
          </Trackpoint>
          <Trackpoint>
            <Time>2019-10-10T13:54:47.000Z</Time>
            <Position>
              <LatitudeDegrees>37.38613673485815525054931640625</LatitudeDegrees>
              <LongitudeDegrees>-6.00002923049032688140869140625</LongitudeDegrees>
            </Position>
            <AltitudeMeters>-46.200000762939453125</AltitudeMeters>
            <DistanceMeters>NAN</DistanceMeters>
          </Trackpoint>
          <Trackpoint>
            <Time>2019-10-10T13:54:50.000Z</Time>
            <Position>
              <LatitudeDegrees>37.38602994941174983978271484375</LatitudeDegrees>
              <LongitudeDegrees>-5.99990316666662693023681640625</LongitudeDegrees>
            </Position>
            <AltitudeMeters>-46.40000152587890625</AltitudeMeters>
            <DistanceMeters>NAN</DistanceMeters>
          </Trackpoint>
          <Trackpoint>
            <Time>2019-10-10T13:54:52.000Z</Time>
            <Position>
              <LatitudeDegrees>37.3859582841396331787109375</LatitudeDegrees>
              <LongitudeDegrees>-5.999816916882991790771484375</LongitudeDegrees>
            </Position>
            <AltitudeMeters>-46.200000762939453125</AltitudeMeters>
            <DistanceMeters>NAN</DistanceMeters>
          </Trackpoint>
          <Trackpoint>
            <Time>2019-10-10T13:54:54.000Z</Time>
            <Position>
              <LatitudeDegrees>37.38588695414364337921142578125</LatitudeDegrees>
              <LongitudeDegrees>-5.9997312538325786590576171875</LongitudeDegrees>
            </Position>
            <AltitudeMeters>-46.59999847412109375</AltitudeMeters>
            <DistanceMeters>NAN</DistanceMeters>
          </Trackpoint>
          <Trackpoint>
            <Time>2019-10-10T13:54:55.000Z</Time>
            <Position>
              <LatitudeDegrees>37.3858478106558322906494140625</LatitudeDegrees>
              <LongitudeDegrees>-5.99969462491571903228759765625</LongitudeDegrees>
            </Position>
            <AltitudeMeters>-46.40000152587890625</AltitudeMeters>
            <DistanceMeters>NAN</DistanceMeters>
          </Trackpoint>
          <Trackpoint>
            <Time>2019-10-10T13:55:02.000Z</Time>
            <Position>
              <LatitudeDegrees>37.38558269105851650238037109375</LatitudeDegrees>
              <LongitudeDegrees>-5.99941249005496501922607421875</LongitudeDegrees>
            </Position>
            <AltitudeMeters>-46.200000762939453125</AltitudeMeters>
            <DistanceMeters>NAN</DistanceMeters>
          </Trackpoint>
          <Trackpoint>
            <Time>2019-10-10T13:55:03.000Z</Time>
            <Position>
              <LatitudeDegrees>37.3855484090745449066162109375</LatitudeDegrees>
              <LongitudeDegrees>-5.99937108345329761505126953125</LongitudeDegrees>
            </Position>
            <AltitudeMeters>-46.40000152587890625</AltitudeMeters>
            <DistanceMeters>NAN</DistanceMeters>
          </Trackpoint>
          <Trackpoint>
            <Time>2019-10-10T13:55:08.000Z</Time>
            <Position>
              <LatitudeDegrees>37.38536358810961246490478515625</LatitudeDegrees>
              <LongitudeDegrees>-5.9991641342639923095703125</LongitudeDegrees>
            </Position>
            <AltitudeMeters>-46.799999237060546875</AltitudeMeters>
            <DistanceMeters>NAN</DistanceMeters>
          </Trackpoint>
          <Trackpoint>
            <Time>2019-10-10T13:55:11.000Z</Time>
            <Position>
              <LatitudeDegrees>37.38525085151195526123046875</LatitudeDegrees>
              <LongitudeDegrees>-5.99903932772576808929443359375</LongitudeDegrees>
            </Position>
            <AltitudeMeters>-46.40000152587890625</AltitudeMeters>
            <DistanceMeters>NAN</DistanceMeters>
          </Trackpoint>
          <Trackpoint>
            <Time>2019-10-10T13:55:20.000Z</Time>
            <Position>
              <LatitudeDegrees>37.3849211074411869049072265625</LatitudeDegrees>
              <LongitudeDegrees>-5.99867387674748897552490234375</LongitudeDegrees>
            </Position>
            <AltitudeMeters>-46.59999847412109375</AltitudeMeters>
            <DistanceMeters>NAN</DistanceMeters>
          </Trackpoint>
          <Trackpoint>
            <Time>2019-10-10T13:55:26.000Z</Time>
            <Position>
              <LatitudeDegrees>37.3847353644669055938720703125</LatitudeDegrees>
              <LongitudeDegrees>-5.99841202609241008758544921875</LongitudeDegrees>
            </Position>
            <AltitudeMeters>-46.200000762939453125</AltitudeMeters>
            <DistanceMeters>NAN</DistanceMeters>
          </Trackpoint>
          <Trackpoint>
            <Time>2019-10-10T13:55:30.000Z</Time>
            <Position>
              <LatitudeDegrees>37.3846096359193325042724609375</LatitudeDegrees>
              <LongitudeDegrees>-5.99827389232814311981201171875</LongitudeDegrees>
            </Position>
            <AltitudeMeters>-46.59999847412109375</AltitudeMeters>
            <DistanceMeters>NAN</DistanceMeters>
          </Trackpoint>
          <Trackpoint>
            <Time>2019-10-10T13:55:33.000Z</Time>
            <Position>
              <LatitudeDegrees>37.38451366312801837921142578125</LatitudeDegrees>
              <LongitudeDegrees>-5.99816492758691310882568359375</LongitudeDegrees>
            </Position>
            <AltitudeMeters>-46.40000152587890625</AltitudeMeters>
            <DistanceMeters>NAN</DistanceMeters>
          </Trackpoint>
          <Trackpoint>
            <Time>2019-10-10T13:55:34.000Z</Time>
            <Position>
              <LatitudeDegrees>37.38448566757142543792724609375</LatitudeDegrees>
              <LongitudeDegrees>-5.998120419681072235107421875</LongitudeDegrees>
            </Position>
            <AltitudeMeters>-46.59999847412109375</AltitudeMeters>
            <DistanceMeters>NAN</DistanceMeters>
          </Trackpoint>
          <Trackpoint>
            <Time>2019-10-10T13:55:36.000Z</Time>
            <Position>
              <LatitudeDegrees>37.38442498259246349334716796875</LatitudeDegrees>
              <LongitudeDegrees>-5.9980454854667186737060546875</LongitudeDegrees>
            </Position>
            <AltitudeMeters>-46.59999847412109375</AltitudeMeters>
            <DistanceMeters>NAN</DistanceMeters>
          </Trackpoint>
          <Trackpoint>
            <Time>2019-10-10T13:55:37.000Z</Time>
            <Position>
              <LatitudeDegrees>37.3843930475413799285888671875</LatitudeDegrees>
              <LongitudeDegrees>-5.9980132989585399627685546875</LongitudeDegrees>
            </Position>
            <AltitudeMeters>-46.40000152587890625</AltitudeMeters>
            <DistanceMeters>NAN</DistanceMeters>
          </Trackpoint>
          <Trackpoint>
            <Time>2019-10-10T13:55:43.000Z</Time>
            <Position>
              <LatitudeDegrees>37.38421241752803325653076171875</LatitudeDegrees>
              <LongitudeDegrees>-5.9978493489325046539306640625</LongitudeDegrees>
            </Position>
            <AltitudeMeters>-46.40000152587890625</AltitudeMeters>
            <DistanceMeters>NAN</DistanceMeters>
          </Trackpoint>
          <Trackpoint>
            <Time>2019-10-10T13:55:44.000Z</Time>
            <Position>
              <LatitudeDegrees>37.3841907083988189697265625</LatitudeDegrees>
              <LongitudeDegrees>-5.997824035584926605224609375</LongitudeDegrees>
            </Position>
            <AltitudeMeters>-46.40000152587890625</AltitudeMeters>
            <DistanceMeters>NAN</DistanceMeters>
          </Trackpoint>
          <Trackpoint>
            <Time>2019-10-10T13:55:45.000Z</Time>
            <Position>
              <LatitudeDegrees>37.38416765816509723663330078125</LatitudeDegrees>
              <LongitudeDegrees>-5.9978042542934417724609375</LongitudeDegrees>
            </Position>
            <AltitudeMeters>-46.799999237060546875</AltitudeMeters>
            <DistanceMeters>NAN</DistanceMeters>
          </Trackpoint>
          <Trackpoint>
            <Time>2019-10-10T13:55:48.000Z</Time>
            <Position>
              <LatitudeDegrees>37.38411401398479938507080078125</LatitudeDegrees>
              <LongitudeDegrees>-5.9978000633418560028076171875</LongitudeDegrees>
            </Position>
            <AltitudeMeters>-46.59999847412109375</AltitudeMeters>
            <DistanceMeters>NAN</DistanceMeters>
          </Trackpoint>
          <Trackpoint>
            <Time>2019-10-10T13:55:49.000Z</Time>
            <Position>
              <LatitudeDegrees>37.3841063864529132843017578125</LatitudeDegrees>
              <LongitudeDegrees>-5.99780299700796604156494140625</LongitudeDegrees>
            </Position>
            <AltitudeMeters>-46.40000152587890625</AltitudeMeters>
            <DistanceMeters>NAN</DistanceMeters>
          </Trackpoint>
          <Trackpoint>
            <Time>2019-10-10T13:55:50.000Z</Time>
            <Position>
              <LatitudeDegrees>37.38409892655909061431884765625</LatitudeDegrees>
              <LongitudeDegrees>-5.997803248465061187744140625</LongitudeDegrees>
            </Position>
            <AltitudeMeters>-46.40000152587890625</AltitudeMeters>
            <DistanceMeters>NAN</DistanceMeters>
          </Trackpoint>
          <Trackpoint>
            <Time>2019-10-10T13:55:52.000Z</Time>
            <Position>
              <LatitudeDegrees>37.384103871881961822509765625</LatitudeDegrees>
              <LongitudeDegrees>-5.997798554599285125732421875</LongitudeDegrees>
            </Position>
            <AltitudeMeters>-46.40000152587890625</AltitudeMeters>
            <DistanceMeters>NAN</DistanceMeters>
          </Trackpoint>
          <Trackpoint>
            <Time>2019-10-10T13:55:53.000Z</Time>
            <Position>
              <LatitudeDegrees>37.38410395570099353790283203125</LatitudeDegrees>
              <LongitudeDegrees>-5.99780316464602947235107421875</LongitudeDegrees>
            </Position>
            <AltitudeMeters>-46.59999847412109375</AltitudeMeters>
            <DistanceMeters>NAN</DistanceMeters>
          </Trackpoint>
          <Trackpoint>
            <Time>2019-10-10T13:55:57.000Z</Time>
            <Position>
              <LatitudeDegrees>37.38410311751067638397216796875</LatitudeDegrees>
              <LongitudeDegrees>-5.99780450575053691864013671875</LongitudeDegrees>
            </Position>
            <AltitudeMeters>-46.40000152587890625</AltitudeMeters>
            <DistanceMeters>NAN</DistanceMeters>
          </Trackpoint>
          <Trackpoint>
            <Time>2019-10-10T13:56:04.000Z</Time>
            <Position>
              <LatitudeDegrees>37.38410311751067638397216796875</LatitudeDegrees>
              <LongitudeDegrees>-5.99780450575053691864013671875</LongitudeDegrees>
            </Position>
            <AltitudeMeters>-46.40000152587890625</AltitudeMeters>
            <DistanceMeters>NAN</DistanceMeters>
          </Trackpoint>
          <Trackpoint>
            <Time>2019-10-10T13:56:10.000Z</Time>
            <Position>
              <LatitudeDegrees>37.38410311751067638397216796875</LatitudeDegrees>
              <LongitudeDegrees>-5.99780450575053691864013671875</LongitudeDegrees>
            </Position>
            <AltitudeMeters>-46.59999847412109375</AltitudeMeters>
            <DistanceMeters>NAN</DistanceMeters>
          </Trackpoint>
          <Trackpoint>
            <Time>2019-10-10T13:56:11.000Z</Time>
            <Position>
              <LatitudeDegrees>37.38410311751067638397216796875</LatitudeDegrees>
              <LongitudeDegrees>-5.99780450575053691864013671875</LongitudeDegrees>
            </Position>
            <AltitudeMeters>-46.40000152587890625</AltitudeMeters>
            <DistanceMeters>NAN</DistanceMeters>
          </Trackpoint>
          <Trackpoint>
            <Time>2019-10-10T13:56:15.000Z</Time>
            <Position>
              <LatitudeDegrees>37.38410311751067638397216796875</LatitudeDegrees>
              <LongitudeDegrees>-5.99780450575053691864013671875</LongitudeDegrees>
            </Position>
            <AltitudeMeters>-46.59999847412109375</AltitudeMeters>
            <DistanceMeters>NAN</DistanceMeters>
          </Trackpoint>
          <Trackpoint>
            <Time>2019-10-10T13:56:18.000Z</Time>
            <Position>
              <LatitudeDegrees>37.38410311751067638397216796875</LatitudeDegrees>
              <LongitudeDegrees>-5.99780450575053691864013671875</LongitudeDegrees>
            </Position>
            <AltitudeMeters>-46.59999847412109375</AltitudeMeters>
            <DistanceMeters>NAN</DistanceMeters>
          </Trackpoint>
          <Trackpoint>
            <Time>2019-10-10T13:56:26.000Z</Time>
            <Position>
              <LatitudeDegrees>37.38410311751067638397216796875</LatitudeDegrees>
              <LongitudeDegrees>-5.99780450575053691864013671875</LongitudeDegrees>
            </Position>
            <AltitudeMeters>-46.59999847412109375</AltitudeMeters>
            <DistanceMeters>NAN</DistanceMeters>
          </Trackpoint>
          <Trackpoint>
            <Time>2019-10-10T13:56:28.000Z</Time>
            <Position>
              <LatitudeDegrees>37.38410311751067638397216796875</LatitudeDegrees>
              <LongitudeDegrees>-5.99780450575053691864013671875</LongitudeDegrees>
            </Position>
            <AltitudeMeters>-46.40000152587890625</AltitudeMeters>
            <DistanceMeters>NAN</DistanceMeters>
          </Trackpoint>
          <Trackpoint>
            <Time>2019-10-10T13:56:31.000Z</Time>
            <Position>
              <LatitudeDegrees>37.38410160876810550689697265625</LatitudeDegrees>
              <LongitudeDegrees>-5.99780358374118804931640625</LongitudeDegrees>
            </Position>
            <AltitudeMeters>-46.59999847412109375</AltitudeMeters>
            <DistanceMeters>NAN</DistanceMeters>
          </Trackpoint>
          <Trackpoint>
            <Time>2019-10-10T13:56:35.000Z</Time>
            <Position>
              <LatitudeDegrees>37.38410160876810550689697265625</LatitudeDegrees>
              <LongitudeDegrees>-5.99780358374118804931640625</LongitudeDegrees>
            </Position>
            <AltitudeMeters>-46.59999847412109375</AltitudeMeters>
            <DistanceMeters>NAN</DistanceMeters>
          </Trackpoint>
          <Trackpoint>
            <Time>2019-10-10T13:56:44.000Z</Time>
            <Position>
              <LatitudeDegrees>37.38410160876810550689697265625</LatitudeDegrees>
              <LongitudeDegrees>-5.99780358374118804931640625</LongitudeDegrees>
            </Position>
            <AltitudeMeters>-46.40000152587890625</AltitudeMeters>
            <DistanceMeters>NAN</DistanceMeters>
          </Trackpoint>
          <Trackpoint>
            <Time>2019-10-10T13:56:45.000Z</Time>
            <Position>
              <LatitudeDegrees>37.38410160876810550689697265625</LatitudeDegrees>
              <LongitudeDegrees>-5.99780358374118804931640625</LongitudeDegrees>
            </Position>
            <AltitudeMeters>-46.200000762939453125</AltitudeMeters>
            <DistanceMeters>NAN</DistanceMeters>
          </Trackpoint>
          <Trackpoint>
            <Time>2019-10-10T13:56:49.000Z</Time>
            <Position>
              <LatitudeDegrees>37.38410160876810550689697265625</LatitudeDegrees>
              <LongitudeDegrees>-5.99780358374118804931640625</LongitudeDegrees>
            </Position>
            <AltitudeMeters>-46.200000762939453125</AltitudeMeters>
            <DistanceMeters>NAN</DistanceMeters>
          </Trackpoint>
          <Trackpoint>
            <Time>2019-10-10T13:56:51.000Z</Time>
            <Position>
              <LatitudeDegrees>37.38410160876810550689697265625</LatitudeDegrees>
              <LongitudeDegrees>-5.99780358374118804931640625</LongitudeDegrees>
            </Position>
            <AltitudeMeters>-46.200000762939453125</AltitudeMeters>
            <DistanceMeters>NAN</DistanceMeters>
          </Trackpoint>
          <Trackpoint>
            <Time>2019-10-10T13:56:55.000Z</Time>
            <Position>
              <LatitudeDegrees>37.3841026984155178070068359375</LatitudeDegrees>
              <LongitudeDegrees>-5.99780417047441005706787109375</LongitudeDegrees>
            </Position>
            <AltitudeMeters>-46.40000152587890625</AltitudeMeters>
            <DistanceMeters>NAN</DistanceMeters>
          </Trackpoint>
          <Trackpoint>
            <Time>2019-10-10T13:56:59.000Z</Time>
            <Position>
              <LatitudeDegrees>37.38410160876810550689697265625</LatitudeDegrees>
              <LongitudeDegrees>-5.99780358374118804931640625</LongitudeDegrees>
            </Position>
            <AltitudeMeters>-46.40000152587890625</AltitudeMeters>
            <DistanceMeters>NAN</DistanceMeters>
          </Trackpoint>
          <Trackpoint>
            <Time>2019-10-10T13:57:03.000Z</Time>
            <Position>
              <LatitudeDegrees>37.38410160876810550689697265625</LatitudeDegrees>
              <LongitudeDegrees>-5.99780358374118804931640625</LongitudeDegrees>
            </Position>
            <AltitudeMeters>-46.59999847412109375</AltitudeMeters>
            <DistanceMeters>NAN</DistanceMeters>
          </Trackpoint>
          <Trackpoint>
            <Time>2019-10-10T13:57:08.000Z</Time>
            <Position>
              <LatitudeDegrees>37.38411082886159420013427734375</LatitudeDegrees>
              <LongitudeDegrees>-5.997800566256046295166015625</LongitudeDegrees>
            </Position>
            <AltitudeMeters>-46.59999847412109375</AltitudeMeters>
            <DistanceMeters>NAN</DistanceMeters>
          </Trackpoint>
          <Trackpoint>
            <Time>2019-10-10T13:57:10.000Z</Time>
            <Position>
              <LatitudeDegrees>37.38414385356009006500244140625</LatitudeDegrees>
              <LongitudeDegrees>-5.99775689654052257537841796875</LongitudeDegrees>
            </Position>
            <AltitudeMeters>-46.59999847412109375</AltitudeMeters>
            <DistanceMeters>NAN</DistanceMeters>
          </Trackpoint>
          <Trackpoint>
            <Time>2019-10-10T13:57:12.000Z</Time>
            <Position>
              <LatitudeDegrees>37.38418509252369403839111328125</LatitudeDegrees>
              <LongitudeDegrees>-5.99769855849444866180419921875</LongitudeDegrees>
            </Position>
            <AltitudeMeters>-46.59999847412109375</AltitudeMeters>
            <DistanceMeters>NAN</DistanceMeters>
          </Trackpoint>
          <Trackpoint>
            <Time>2019-10-10T13:57:14.000Z</Time>
            <Position>
              <LatitudeDegrees>37.38419280387461185455322265625</LatitudeDegrees>
              <LongitudeDegrees>-5.9976538829505443572998046875</LongitudeDegrees>
            </Position>
            <AltitudeMeters>-46.799999237060546875</AltitudeMeters>
            <DistanceMeters>NAN</DistanceMeters>
          </Trackpoint>
          <Trackpoint>
            <Time>2019-10-10T13:57:16.000Z</Time>
            <Position>
              <LatitudeDegrees>37.38415206782519817352294921875</LatitudeDegrees>
              <LongitudeDegrees>-5.997606776654720306396484375</LongitudeDegrees>
            </Position>
            <AltitudeMeters>-46.59999847412109375</AltitudeMeters>
            <DistanceMeters>NAN</DistanceMeters>
          </Trackpoint>
          <Trackpoint>
            <Time>2019-10-10T13:57:20.000Z</Time>
            <Position>
              <LatitudeDegrees>37.38406204618513584136962890625</LatitudeDegrees>
              <LongitudeDegrees>-5.99746235646307468414306640625</LongitudeDegrees>
            </Position>
            <AltitudeMeters>-46.59999847412109375</AltitudeMeters>
            <DistanceMeters>NAN</DistanceMeters>
          </Trackpoint>
          <Trackpoint>
            <Time>2019-10-10T13:57:24.000Z</Time>
            <Position>
              <LatitudeDegrees>37.383948303759098052978515625</LatitudeDegrees>
              <LongitudeDegrees>-5.9973685629665851593017578125</LongitudeDegrees>
            </Position>
            <AltitudeMeters>-46.59999847412109375</AltitudeMeters>
            <DistanceMeters>NAN</DistanceMeters>
          </Trackpoint>
          <Trackpoint>
            <Time>2019-10-10T13:57:26.000Z</Time>
            <Position>
              <LatitudeDegrees>37.38389457575976848602294921875</LatitudeDegrees>
              <LongitudeDegrees>-5.99730879999697208404541015625</LongitudeDegrees>
            </Position>
            <AltitudeMeters>-46.59999847412109375</AltitudeMeters>
            <DistanceMeters>NAN</DistanceMeters>
          </Trackpoint>
          <Trackpoint>
            <Time>2019-10-10T13:57:32.000Z</Time>
            <Position>
              <LatitudeDegrees>37.383748479187488555908203125</LatitudeDegrees>
              <LongitudeDegrees>-5.99710511974990367889404296875</LongitudeDegrees>
            </Position>
            <AltitudeMeters>-46.40000152587890625</AltitudeMeters>
            <DistanceMeters>NAN</DistanceMeters>
          </Trackpoint>
          <Trackpoint>
            <Time>2019-10-10T13:57:40.000Z</Time>
            <Position>
              <LatitudeDegrees>37.38354186527431011199951171875</LatitudeDegrees>
              <LongitudeDegrees>-5.99690529517829418182373046875</LongitudeDegrees>
            </Position>
            <AltitudeMeters>-46.40000152587890625</AltitudeMeters>
            <DistanceMeters>NAN</DistanceMeters>
          </Trackpoint>
          <Trackpoint>
            <Time>2019-10-10T13:57:43.000Z</Time>
            <Position>
              <LatitudeDegrees>37.38346424885094165802001953125</LatitudeDegrees>
              <LongitudeDegrees>-5.99682030268013477325439453125</LongitudeDegrees>
            </Position>
            <AltitudeMeters>-46.40000152587890625</AltitudeMeters>
            <DistanceMeters>NAN</DistanceMeters>
          </Trackpoint>
          <Trackpoint>
            <Time>2019-10-10T13:57:47.000Z</Time>
            <Position>
              <LatitudeDegrees>37.38336802460253238677978515625</LatitudeDegrees>
              <LongitudeDegrees>-5.99670060910284519195556640625</LongitudeDegrees>
            </Position>
            <AltitudeMeters>-46.40000152587890625</AltitudeMeters>
            <DistanceMeters>NAN</DistanceMeters>
          </Trackpoint>
          <Trackpoint>
            <Time>2019-10-10T13:57:52.000Z</Time>
            <Position>
              <LatitudeDegrees>37.3832289688289165496826171875</LatitudeDegrees>
              <LongitudeDegrees>-5.99657571874558925628662109375</LongitudeDegrees>
            </Position>
            <AltitudeMeters>-46.799999237060546875</AltitudeMeters>
            <DistanceMeters>NAN</DistanceMeters>
          </Trackpoint>
          <Trackpoint>
            <Time>2019-10-10T13:57:56.000Z</Time>
            <Position>
              <LatitudeDegrees>37.38316501490771770477294921875</LatitudeDegrees>
              <LongitudeDegrees>-5.99652123637497425079345703125</LongitudeDegrees>
            </Position>
            <AltitudeMeters>-46.59999847412109375</AltitudeMeters>
            <DistanceMeters>NAN</DistanceMeters>
          </Trackpoint>
          <Trackpoint>
            <Time>2019-10-10T13:58:01.000Z</Time>
            <Position>
              <LatitudeDegrees>37.38316283561289310455322265625</LatitudeDegrees>
              <LongitudeDegrees>-5.9965248405933380126953125</LongitudeDegrees>
            </Position>
            <AltitudeMeters>-46.40000152587890625</AltitudeMeters>
            <DistanceMeters>NAN</DistanceMeters>
          </Trackpoint>
          <Trackpoint>
            <Time>2019-10-10T13:58:07.000Z</Time>
            <Position>
              <LatitudeDegrees>37.38316283561289310455322265625</LatitudeDegrees>
              <LongitudeDegrees>-5.9965248405933380126953125</LongitudeDegrees>
            </Position>
            <AltitudeMeters>-46.40000152587890625</AltitudeMeters>
            <DistanceMeters>NAN</DistanceMeters>
          </Trackpoint>
          <Trackpoint>
            <Time>2019-10-10T13:58:12.000Z</Time>
            <Position>
              <LatitudeDegrees>37.383120842278003692626953125</LatitudeDegrees>
              <LongitudeDegrees>-5.99648636765778064727783203125</LongitudeDegrees>
            </Position>
            <AltitudeMeters>-46.200000762939453125</AltitudeMeters>
            <DistanceMeters>NAN</DistanceMeters>
          </Trackpoint>
          <Trackpoint>
            <Time>2019-10-10T13:58:17.000Z</Time>
            <Position>
              <LatitudeDegrees>37.383007518947124481201171875</LatitudeDegrees>
              <LongitudeDegrees>-5.9963359124958515167236328125</LongitudeDegrees>
            </Position>
            <AltitudeMeters>-46.200000762939453125</AltitudeMeters>
            <DistanceMeters>NAN</DistanceMeters>
          </Trackpoint>
          <Trackpoint>
            <Time>2019-10-10T13:58:24.000Z</Time>
            <Position>
              <LatitudeDegrees>37.38281079567968845367431640625</LatitudeDegrees>
              <LongitudeDegrees>-5.9961712919175624847412109375</LongitudeDegrees>
            </Position>
            <AltitudeMeters>-46.200000762939453125</AltitudeMeters>
            <DistanceMeters>NAN</DistanceMeters>
          </Trackpoint>
          <Trackpoint>
            <Time>2019-10-10T13:58:32.000Z</Time>
            <Position>
              <LatitudeDegrees>37.38262505270540714263916015625</LatitudeDegrees>
              <LongitudeDegrees>-5.99600524641573429107666015625</LongitudeDegrees>
            </Position>
            <AltitudeMeters>-46.200000762939453125</AltitudeMeters>
            <DistanceMeters>NAN</DistanceMeters>
          </Trackpoint>
          <Trackpoint>
            <Time>2019-10-10T13:58:36.000Z</Time>
            <Position>
              <LatitudeDegrees>37.3825399763882160186767578125</LatitudeDegrees>
              <LongitudeDegrees>-5.99594472907483577728271484375</LongitudeDegrees>
            </Position>
            <AltitudeMeters>-45.799999237060546875</AltitudeMeters>
            <DistanceMeters>NAN</DistanceMeters>
          </Trackpoint>
          <Trackpoint>
            <Time>2019-10-10T13:58:38.000Z</Time>
            <Position>
              <LatitudeDegrees>37.3824953846633434295654296875</LatitudeDegrees>
              <LongitudeDegrees>-5.9959060885012149810791015625</LongitudeDegrees>
            </Position>
            <AltitudeMeters>-45.799999237060546875</AltitudeMeters>
            <DistanceMeters>NAN</DistanceMeters>
          </Trackpoint>
          <Trackpoint>
            <Time>2019-10-10T13:58:42.000Z</Time>
            <Position>
              <LatitudeDegrees>37.382430173456668853759765625</LatitudeDegrees>
              <LongitudeDegrees>-5.99583308212459087371826171875</LongitudeDegrees>
            </Position>
            <AltitudeMeters>-46</AltitudeMeters>
            <DistanceMeters>NAN</DistanceMeters>
          </Trackpoint>
          <Trackpoint>
            <Time>2019-10-10T13:58:43.000Z</Time>
            <Position>
              <LatitudeDegrees>37.38241835497319698333740234375</LatitudeDegrees>
              <LongitudeDegrees>-5.99584045819938182830810546875</LongitudeDegrees>
            </Position>
            <AltitudeMeters>-46.200000762939453125</AltitudeMeters>
            <DistanceMeters>NAN</DistanceMeters>
          </Trackpoint>
          <Trackpoint>
            <Time>2019-10-10T13:58:47.000Z</Time>
            <Position>
              <LatitudeDegrees>37.38234777934849262237548828125</LatitudeDegrees>
              <LongitudeDegrees>-5.99578362889587879180908203125</LongitudeDegrees>
            </Position>
            <AltitudeMeters>-46</AltitudeMeters>
            <DistanceMeters>NAN</DistanceMeters>
          </Trackpoint>
          <Trackpoint>
            <Time>2019-10-10T13:58:53.000Z</Time>
            <Position>
              <LatitudeDegrees>37.38219640217721462249755859375</LatitudeDegrees>
              <LongitudeDegrees>-5.9957148134708404541015625</LongitudeDegrees>
            </Position>
            <AltitudeMeters>-46.40000152587890625</AltitudeMeters>
            <DistanceMeters>NAN</DistanceMeters>
          </Trackpoint>
          <Trackpoint>
            <Time>2019-10-10T13:58:59.000Z</Time>
            <Position>
              <LatitudeDegrees>37.382041253149509429931640625</LatitudeDegrees>
              <LongitudeDegrees>-5.99560023285448551177978515625</LongitudeDegrees>
            </Position>
            <AltitudeMeters>-46.59999847412109375</AltitudeMeters>
            <DistanceMeters>NAN</DistanceMeters>
          </Trackpoint>
          <Trackpoint>
            <Time>2019-10-10T13:59:00.000Z</Time>
            <Position>
              <LatitudeDegrees>37.3820145986974239349365234375</LatitudeDegrees>
              <LongitudeDegrees>-5.995577685534954071044921875</LongitudeDegrees>
            </Position>
            <AltitudeMeters>-46.40000152587890625</AltitudeMeters>
            <DistanceMeters>NAN</DistanceMeters>
          </Trackpoint>
          <Trackpoint>
            <Time>2019-10-10T13:59:05.000Z</Time>
            <Position>
              <LatitudeDegrees>37.38189297728240489959716796875</LatitudeDegrees>
              <LongitudeDegrees>-5.995467044413089752197265625</LongitudeDegrees>
            </Position>
            <AltitudeMeters>-46.200000762939453125</AltitudeMeters>
            <DistanceMeters>NAN</DistanceMeters>
          </Trackpoint>
          <Trackpoint>
            <Time>2019-10-10T13:59:06.000Z</Time>
            <Position>
              <LatitudeDegrees>37.38186749629676342010498046875</LatitudeDegrees>
              <LongitudeDegrees>-5.995446257293224334716796875</LongitudeDegrees>
            </Position>
            <AltitudeMeters>-46.40000152587890625</AltitudeMeters>
            <DistanceMeters>NAN</DistanceMeters>
          </Trackpoint>
          <Trackpoint>
            <Time>2019-10-10T13:59:15.000Z</Time>
            <Position>
              <LatitudeDegrees>37.3816444538533687591552734375</LatitudeDegrees>
              <LongitudeDegrees>-5.995283983647823333740234375</LongitudeDegrees>
            </Position>
            <AltitudeMeters>-45.799999237060546875</AltitudeMeters>
            <DistanceMeters>NAN</DistanceMeters>
          </Trackpoint>
          <Trackpoint>
            <Time>2019-10-10T13:59:20.000Z</Time>
            <Position>
              <LatitudeDegrees>37.38158502615988254547119140625</LatitudeDegrees>
              <LongitudeDegrees>-5.99522237665951251983642578125</LongitudeDegrees>
            </Position>
            <AltitudeMeters>-45.59999847412109375</AltitudeMeters>
            <DistanceMeters>NAN</DistanceMeters>
          </Trackpoint>
          <Trackpoint>
            <Time>2019-10-10T13:59:21.000Z</Time>
            <Position>
              <LatitudeDegrees>37.38158016465604305267333984375</LatitudeDegrees>
              <LongitudeDegrees>-5.99520259536802768707275390625</LongitudeDegrees>
            </Position>
            <AltitudeMeters>-45.59999847412109375</AltitudeMeters>
            <DistanceMeters>NAN</DistanceMeters>
          </Trackpoint>
          <Trackpoint>
            <Time>2019-10-10T13:59:25.000Z</Time>
            <Position>
              <LatitudeDegrees>37.38155342638492584228515625</LatitudeDegrees>
              <LongitudeDegrees>-5.995121039450168609619140625</LongitudeDegrees>
            </Position>
            <AltitudeMeters>-45.59999847412109375</AltitudeMeters>
            <DistanceMeters>NAN</DistanceMeters>
          </Trackpoint>
          <Trackpoint>
            <Time>2019-10-10T13:59:30.000Z</Time>
            <Position>
              <LatitudeDegrees>37.38160246051847934722900390625</LatitudeDegrees>
              <LongitudeDegrees>-5.995016433298587799072265625</LongitudeDegrees>
            </Position>
            <AltitudeMeters>-45.799999237060546875</AltitudeMeters>
            <DistanceMeters>NAN</DistanceMeters>
          </Trackpoint>
          <Trackpoint>
            <Time>2019-10-10T13:59:31.000Z</Time>
            <Position>
              <LatitudeDegrees>37.3816142790019512176513671875</LatitudeDegrees>
              <LongitudeDegrees>-5.9949840791523456573486328125</LongitudeDegrees>
            </Position>
            <AltitudeMeters>-45.59999847412109375</AltitudeMeters>
            <DistanceMeters>NAN</DistanceMeters>
          </Trackpoint>
          <Trackpoint>
            <Time>2019-10-10T13:59:36.000Z</Time>
            <Position>
              <LatitudeDegrees>37.38170170225203037261962890625</LatitudeDegrees>
              <LongitudeDegrees>-5.9948288463056087493896484375</LongitudeDegrees>
            </Position>
            <AltitudeMeters>-45.799999237060546875</AltitudeMeters>
            <DistanceMeters>NAN</DistanceMeters>
          </Trackpoint>
          <Trackpoint>
            <Time>2019-10-10T13:59:42.000Z</Time>
            <Position>
              <LatitudeDegrees>37.38182810135185718536376953125</LatitudeDegrees>
              <LongitudeDegrees>-5.99465735256671905517578125</LongitudeDegrees>
            </Position>
            <AltitudeMeters>-46</AltitudeMeters>
            <DistanceMeters>NAN</DistanceMeters>
          </Trackpoint>
          <Trackpoint>
            <Time>2019-10-10T13:59:44.000Z</Time>
            <Position>
              <LatitudeDegrees>37.38185944966971874237060546875</LatitudeDegrees>
              <LongitudeDegrees>-5.994596667587757110595703125</LongitudeDegrees>
            </Position>
            <AltitudeMeters>-45.799999237060546875</AltitudeMeters>
            <DistanceMeters>NAN</DistanceMeters>
          </Trackpoint>
          <Trackpoint>
            <Time>2019-10-10T13:59:45.000Z</Time>
            <Position>
              <LatitudeDegrees>37.38187587819993495941162109375</LatitudeDegrees>
              <LongitudeDegrees>-5.99456624127924442291259765625</LongitudeDegrees>
            </Position>
            <AltitudeMeters>-46</AltitudeMeters>
            <DistanceMeters>NAN</DistanceMeters>
          </Trackpoint>
          <Trackpoint>
            <Time>2019-10-10T13:59:48.000Z</Time>
            <Position>
              <LatitudeDegrees>37.3819398321211338043212890625</LatitudeDegrees>
              <LongitudeDegrees>-5.99448124878108501434326171875</LongitudeDegrees>
            </Position>
            <AltitudeMeters>-46.40000152587890625</AltitudeMeters>
            <DistanceMeters>NAN</DistanceMeters>
          </Trackpoint>
          <Trackpoint>
            <Time>2019-10-10T13:59:50.000Z</Time>
            <Position>
              <LatitudeDegrees>37.38197989761829376220703125</LatitudeDegrees>
              <LongitudeDegrees>-5.99441955797374248504638671875</LongitudeDegrees>
            </Position>
            <AltitudeMeters>-46.59999847412109375</AltitudeMeters>
            <DistanceMeters>NAN</DistanceMeters>
          </Trackpoint>
          <Trackpoint>
            <Time>2019-10-10T13:59:52.000Z</Time>
            <Position>
              <LatitudeDegrees>37.3820129223167896270751953125</LatitudeDegrees>
              <LongitudeDegrees>-5.99435032345354557037353515625</LongitudeDegrees>
            </Position>
            <AltitudeMeters>-47</AltitudeMeters>
            <DistanceMeters>NAN</DistanceMeters>
          </Trackpoint>
          <Trackpoint>
            <Time>2019-10-10T13:59:54.000Z</Time>
            <Position>
              <LatitudeDegrees>37.3820427618920803070068359375</LatitudeDegrees>
              <LongitudeDegrees>-5.99427756853401660919189453125</LongitudeDegrees>
            </Position>
            <AltitudeMeters>-46.59999847412109375</AltitudeMeters>
            <DistanceMeters>NAN</DistanceMeters>
          </Trackpoint>
          <Trackpoint>
            <Time>2019-10-10T13:59:58.000Z</Time>
            <Position>
              <LatitudeDegrees>37.382075451314449310302734375</LatitudeDegrees>
              <LongitudeDegrees>-5.9941237606108188629150390625</LongitudeDegrees>
            </Position>
            <AltitudeMeters>-46.59999847412109375</AltitudeMeters>
            <DistanceMeters>NAN</DistanceMeters>
          </Trackpoint>
          <Trackpoint>
            <Time>2019-10-10T14:00:00.000Z</Time>
            <Position>
              <LatitudeDegrees>37.38205793313682079315185546875</LatitudeDegrees>
              <LongitudeDegrees>-5.9940580464899539947509765625</LongitudeDegrees>
            </Position>
            <AltitudeMeters>-46.40000152587890625</AltitudeMeters>
            <DistanceMeters>NAN</DistanceMeters>
          </Trackpoint>
          <Trackpoint>
            <Time>2019-10-10T14:00:02.000Z</Time>
            <Position>
              <LatitudeDegrees>37.38202960230410099029541015625</LatitudeDegrees>
              <LongitudeDegrees>-5.994001887738704681396484375</LongitudeDegrees>
            </Position>
            <AltitudeMeters>-46.200000762939453125</AltitudeMeters>
            <DistanceMeters>NAN</DistanceMeters>
          </Trackpoint>
          <Trackpoint>
            <Time>2019-10-10T14:00:05.000Z</Time>
            <Position>
              <LatitudeDegrees>37.38201552070677280426025390625</LatitudeDegrees>
              <LongitudeDegrees>-5.9939038194715976715087890625</LongitudeDegrees>
            </Position>
            <AltitudeMeters>-46.40000152587890625</AltitudeMeters>
            <DistanceMeters>NAN</DistanceMeters>
          </Trackpoint>
          <Trackpoint>
            <Time>2019-10-10T14:00:07.000Z</Time>
            <Position>
              <LatitudeDegrees>37.3820316977798938751220703125</LatitudeDegrees>
              <LongitudeDegrees>-5.9938431344926357269287109375</LongitudeDegrees>
            </Position>
            <AltitudeMeters>-46.59999847412109375</AltitudeMeters>
            <DistanceMeters>NAN</DistanceMeters>
          </Trackpoint>
          <Trackpoint>
            <Time>2019-10-10T14:00:10.000Z</Time>
            <Position>
              <LatitudeDegrees>37.38205105997622013092041015625</LatitudeDegrees>
              <LongitudeDegrees>-5.993775911629199981689453125</LongitudeDegrees>
            </Position>
            <AltitudeMeters>-46.59999847412109375</AltitudeMeters>
            <DistanceMeters>NAN</DistanceMeters>
          </Trackpoint>
          <Trackpoint>
            <Time>2019-10-10T14:00:12.000Z</Time>
            <Position>
              <LatitudeDegrees>37.3820503056049346923828125</LatitudeDegrees>
              <LongitudeDegrees>-5.99375269375741481781005859375</LongitudeDegrees>
            </Position>
            <AltitudeMeters>-46.59999847412109375</AltitudeMeters>
            <DistanceMeters>NAN</DistanceMeters>
          </Trackpoint>
          <Trackpoint>
            <Time>2019-10-10T14:00:13.000Z</Time>
            <Position>
              <LatitudeDegrees>37.38204653374850749969482421875</LatitudeDegrees>
              <LongitudeDegrees>-5.99374112673103809356689453125</LongitudeDegrees>
            </Position>
            <AltitudeMeters>-46.59999847412109375</AltitudeMeters>
            <DistanceMeters>NAN</DistanceMeters>
          </Trackpoint>
          <Trackpoint>
            <Time>2019-10-10T14:00:17.000Z</Time>
            <Position>
              <LatitudeDegrees>37.38204921595752239227294921875</LatitudeDegrees>
              <LongitudeDegrees>-5.99370206706225872039794921875</LongitudeDegrees>
            </Position>
            <AltitudeMeters>-46.59999847412109375</AltitudeMeters>
            <DistanceMeters>NAN</DistanceMeters>
          </Trackpoint>
          <Trackpoint>
            <Time>2019-10-10T14:00:19.000Z</Time>
            <Position>
              <LatitudeDegrees>37.38205625675618648529052734375</LatitudeDegrees>
              <LongitudeDegrees>-5.99368915893137454986572265625</LongitudeDegrees>
            </Position>
            <AltitudeMeters>-46.59999847412109375</AltitudeMeters>
            <DistanceMeters>NAN</DistanceMeters>
          </Trackpoint>
          <Trackpoint>
            <Time>2019-10-10T14:00:21.000Z</Time>
            <Position>
              <LatitudeDegrees>37.3820565082132816314697265625</LatitudeDegrees>
              <LongitudeDegrees>-5.99367021583020687103271484375</LongitudeDegrees>
            </Position>
            <AltitudeMeters>-46.59999847412109375</AltitudeMeters>
            <DistanceMeters>NAN</DistanceMeters>
          </Trackpoint>
          <Trackpoint>
            <Time>2019-10-10T14:00:25.000Z</Time>
            <Position>
              <LatitudeDegrees>37.38205910660326480865478515625</LatitudeDegrees>
              <LongitudeDegrees>-5.9936721436679363250732421875</LongitudeDegrees>
            </Position>
            <AltitudeMeters>-46.59999847412109375</AltitudeMeters>
            <DistanceMeters>NAN</DistanceMeters>
          </Trackpoint>
          <Trackpoint>
            <Time>2019-10-10T14:00:26.000Z</Time>
            <Position>
              <LatitudeDegrees>37.38204904831945896148681640625</LatitudeDegrees>
              <LongitudeDegrees>-5.99364817142486572265625</LongitudeDegrees>
            </Position>
            <AltitudeMeters>-46.59999847412109375</AltitudeMeters>
            <DistanceMeters>NAN</DistanceMeters>
          </Trackpoint>
          <Trackpoint>
            <Time>2019-10-10T14:00:28.000Z</Time>
            <Position>
              <LatitudeDegrees>37.382049299776554107666015625</LatitudeDegrees>
              <LongitudeDegrees>-5.9936493448913097381591796875</LongitudeDegrees>
            </Position>
            <AltitudeMeters>-46.59999847412109375</AltitudeMeters>
            <DistanceMeters>NAN</DistanceMeters>
          </Trackpoint>
          <Trackpoint>
            <Time>2019-10-10T14:00:30.000Z</Time>
            <Position>
              <LatitudeDegrees>37.38204955123364925384521484375</LatitudeDegrees>
              <LongitudeDegrees>-5.993655882775783538818359375</LongitudeDegrees>
            </Position>
            <AltitudeMeters>-46.59999847412109375</AltitudeMeters>
            <DistanceMeters>NAN</DistanceMeters>
          </Trackpoint>
          <Trackpoint>
            <Time>2019-10-10T14:00:36.000Z</Time>
            <Position>
              <LatitudeDegrees>37.38204904831945896148681640625</LatitudeDegrees>
              <LongitudeDegrees>-5.99364817142486572265625</LongitudeDegrees>
            </Position>
            <AltitudeMeters>-46.59999847412109375</AltitudeMeters>
            <DistanceMeters>NAN</DistanceMeters>
          </Trackpoint>
          <Trackpoint>
            <Time>2019-10-10T14:00:38.000Z</Time>
            <Position>
              <LatitudeDegrees>37.38204904831945896148681640625</LatitudeDegrees>
              <LongitudeDegrees>-5.99364817142486572265625</LongitudeDegrees>
            </Position>
            <AltitudeMeters>-46.59999847412109375</AltitudeMeters>
            <DistanceMeters>NAN</DistanceMeters>
          </Trackpoint>
          <Trackpoint>
            <Time>2019-10-10T14:00:43.000Z</Time>
            <Position>
              <LatitudeDegrees>37.38204904831945896148681640625</LatitudeDegrees>
              <LongitudeDegrees>-5.99364817142486572265625</LongitudeDegrees>
            </Position>
            <AltitudeMeters>-46.799999237060546875</AltitudeMeters>
            <DistanceMeters>NAN</DistanceMeters>
          </Trackpoint>
          <Trackpoint>
            <Time>2019-10-10T14:00:50.000Z</Time>
            <Position>
              <LatitudeDegrees>37.38204904831945896148681640625</LatitudeDegrees>
              <LongitudeDegrees>-5.99364817142486572265625</LongitudeDegrees>
            </Position>
            <AltitudeMeters>-46.59999847412109375</AltitudeMeters>
            <DistanceMeters>NAN</DistanceMeters>
          </Trackpoint>
          <Trackpoint>
            <Time>2019-10-10T14:00:53.000Z</Time>
            <Position>
              <LatitudeDegrees>37.38204904831945896148681640625</LatitudeDegrees>
              <LongitudeDegrees>-5.99364817142486572265625</LongitudeDegrees>
            </Position>
            <AltitudeMeters>-46.799999237060546875</AltitudeMeters>
            <DistanceMeters>NAN</DistanceMeters>
          </Trackpoint>
          <Trackpoint>
            <Time>2019-10-10T14:00:54.000Z</Time>
            <Position>
              <LatitudeDegrees>37.38204904831945896148681640625</LatitudeDegrees>
              <LongitudeDegrees>-5.99364817142486572265625</LongitudeDegrees>
            </Position>
            <AltitudeMeters>-46.59999847412109375</AltitudeMeters>
            <DistanceMeters>NAN</DistanceMeters>
          </Trackpoint>
          <Trackpoint>
            <Time>2019-10-10T14:00:56.000Z</Time>
            <Position>
              <LatitudeDegrees>37.38204904831945896148681640625</LatitudeDegrees>
              <LongitudeDegrees>-5.99364817142486572265625</LongitudeDegrees>
            </Position>
            <AltitudeMeters>-46.59999847412109375</AltitudeMeters>
            <DistanceMeters>NAN</DistanceMeters>
          </Trackpoint>
          <Trackpoint>
            <Time>2019-10-10T14:00:59.000Z</Time>
            <Position>
              <LatitudeDegrees>37.38204619847238063812255859375</LatitudeDegrees>
              <LongitudeDegrees>-5.9936496801674365997314453125</LongitudeDegrees>
            </Position>
            <AltitudeMeters>-46.799999237060546875</AltitudeMeters>
            <DistanceMeters>NAN</DistanceMeters>
          </Trackpoint>
          <Trackpoint>
            <Time>2019-10-10T14:01:01.000Z</Time>
            <Position>
              <LatitudeDegrees>37.38204452209174633026123046875</LatitudeDegrees>
              <LongitudeDegrees>-5.9936459921300411224365234375</LongitudeDegrees>
            </Position>
            <AltitudeMeters>-46.59999847412109375</AltitudeMeters>
            <DistanceMeters>NAN</DistanceMeters>
          </Trackpoint>
          <Trackpoint>
            <Time>2019-10-10T14:01:03.000Z</Time>
            <Position>
              <LatitudeDegrees>37.3820444382727146148681640625</LatitudeDegrees>
              <LongitudeDegrees>-5.99365177564322948455810546875</LongitudeDegrees>
            </Position>
            <AltitudeMeters>-46.59999847412109375</AltitudeMeters>
            <DistanceMeters>NAN</DistanceMeters>
          </Trackpoint>
          <Trackpoint>
            <Time>2019-10-10T14:01:08.000Z</Time>
            <Position>
              <LatitudeDegrees>37.38203865475952625274658203125</LatitudeDegrees>
              <LongitudeDegrees>-5.99365127272903919219970703125</LongitudeDegrees>
            </Position>
            <AltitudeMeters>-46.59999847412109375</AltitudeMeters>
            <DistanceMeters>NAN</DistanceMeters>
          </Trackpoint>
          <Trackpoint>
            <Time>2019-10-10T14:01:18.000Z</Time>
            <Position>
              <LatitudeDegrees>37.382043264806270599365234375</LatitudeDegrees>
              <LongitudeDegrees>-5.99364456720650196075439453125</LongitudeDegrees>
            </Position>
            <AltitudeMeters>-46.40000152587890625</AltitudeMeters>
            <DistanceMeters>NAN</DistanceMeters>
          </Trackpoint>
          <Trackpoint>
            <Time>2019-10-10T14:01:20.000Z</Time>
            <Position>
              <LatitudeDegrees>37.382043264806270599365234375</LatitudeDegrees>
              <LongitudeDegrees>-5.99364456720650196075439453125</LongitudeDegrees>
            </Position>
            <AltitudeMeters>-46.40000152587890625</AltitudeMeters>
            <DistanceMeters>NAN</DistanceMeters>
          </Trackpoint>
          <Trackpoint>
            <Time>2019-10-10T14:01:29.000Z</Time>
            <Position>
              <LatitudeDegrees>37.382043264806270599365234375</LatitudeDegrees>
              <LongitudeDegrees>-5.99364456720650196075439453125</LongitudeDegrees>
            </Position>
            <AltitudeMeters>-46.40000152587890625</AltitudeMeters>
            <DistanceMeters>NAN</DistanceMeters>
          </Trackpoint>
          <Trackpoint>
            <Time>2019-10-10T14:01:33.000Z</Time>
            <Position>
              <LatitudeDegrees>37.382043264806270599365234375</LatitudeDegrees>
              <LongitudeDegrees>-5.99364456720650196075439453125</LongitudeDegrees>
            </Position>
            <AltitudeMeters>-46.40000152587890625</AltitudeMeters>
            <DistanceMeters>NAN</DistanceMeters>
          </Trackpoint>
          <Trackpoint>
            <Time>2019-10-10T14:01:41.000Z</Time>
            <Position>
              <LatitudeDegrees>37.382043264806270599365234375</LatitudeDegrees>
              <LongitudeDegrees>-5.99364456720650196075439453125</LongitudeDegrees>
            </Position>
            <AltitudeMeters>-46.40000152587890625</AltitudeMeters>
            <DistanceMeters>NAN</DistanceMeters>
          </Trackpoint>
          <Trackpoint>
            <Time>2019-10-10T14:01:46.000Z</Time>
            <Position>
              <LatitudeDegrees>37.3820347152650356292724609375</LatitudeDegrees>
              <LongitudeDegrees>-5.99364439956843852996826171875</LongitudeDegrees>
            </Position>
            <AltitudeMeters>-46.40000152587890625</AltitudeMeters>
            <DistanceMeters>NAN</DistanceMeters>
          </Trackpoint>
          <Trackpoint>
            <Time>2019-10-10T14:02:00.000Z</Time>
            <Position>
              <LatitudeDegrees>37.3820347152650356292724609375</LatitudeDegrees>
              <LongitudeDegrees>-5.99364439956843852996826171875</LongitudeDegrees>
            </Position>
            <AltitudeMeters>-46.40000152587890625</AltitudeMeters>
            <DistanceMeters>NAN</DistanceMeters>
          </Trackpoint>
          <Trackpoint>
            <Time>2019-10-10T14:02:07.000Z</Time>
            <Position>
              <LatitudeDegrees>37.3820347152650356292724609375</LatitudeDegrees>
              <LongitudeDegrees>-5.99364439956843852996826171875</LongitudeDegrees>
            </Position>
            <AltitudeMeters>-46.40000152587890625</AltitudeMeters>
            <DistanceMeters>NAN</DistanceMeters>
          </Trackpoint>
          <Trackpoint>
            <Time>2019-10-10T14:02:08.000Z</Time>
            <Position>
              <LatitudeDegrees>37.3820347152650356292724609375</LatitudeDegrees>
              <LongitudeDegrees>-5.99364439956843852996826171875</LongitudeDegrees>
            </Position>
            <AltitudeMeters>-46.200000762939453125</AltitudeMeters>
            <DistanceMeters>NAN</DistanceMeters>
          </Trackpoint>
          <Trackpoint>
            <Time>2019-10-10T14:02:10.000Z</Time>
            <Position>
              <LatitudeDegrees>37.382039241492748260498046875</LatitudeDegrees>
              <LongitudeDegrees>-5.99364875815808773040771484375</LongitudeDegrees>
            </Position>
            <AltitudeMeters>-46.59999847412109375</AltitudeMeters>
            <DistanceMeters>NAN</DistanceMeters>
          </Trackpoint>
          <Trackpoint>
            <Time>2019-10-10T14:02:12.000Z</Time>
            <Position>
              <LatitudeDegrees>37.3820400796830654144287109375</LatitudeDegrees>
              <LongitudeDegrees>-5.99364389665424823760986328125</LongitudeDegrees>
            </Position>
            <AltitudeMeters>-46.59999847412109375</AltitudeMeters>
            <DistanceMeters>NAN</DistanceMeters>
          </Trackpoint>
          <Trackpoint>
            <Time>2019-10-10T14:02:15.000Z</Time>
            <Position>
              <LatitudeDegrees>37.38206095062196254730224609375</LatitudeDegrees>
              <LongitudeDegrees>-5.9936205111443996429443359375</LongitudeDegrees>
            </Position>
            <AltitudeMeters>-46.799999237060546875</AltitudeMeters>
            <DistanceMeters>NAN</DistanceMeters>
          </Trackpoint>
          <Trackpoint>
            <Time>2019-10-10T14:02:18.000Z</Time>
            <Position>
              <LatitudeDegrees>37.38209447823464870452880859375</LatitudeDegrees>
              <LongitudeDegrees>-5.9935843013226985931396484375</LongitudeDegrees>
            </Position>
            <AltitudeMeters>-46.59999847412109375</AltitudeMeters>
            <DistanceMeters>NAN</DistanceMeters>
          </Trackpoint>
          <Trackpoint>
            <Time>2019-10-10T14:02:19.000Z</Time>
            <Position>
              <LatitudeDegrees>37.3821031115949153900146484375</LatitudeDegrees>
              <LongitudeDegrees>-5.99358052946627140045166015625</LongitudeDegrees>
            </Position>
            <AltitudeMeters>-46.40000152587890625</AltitudeMeters>
            <DistanceMeters>NAN</DistanceMeters>
          </Trackpoint>
          <Trackpoint>
            <Time>2019-10-10T14:02:20.000Z</Time>
            <Position>
              <LatitudeDegrees>37.3821098171174526214599609375</LatitudeDegrees>
              <LongitudeDegrees>-5.99357248283922672271728515625</LongitudeDegrees>
            </Position>
            <AltitudeMeters>-46.40000152587890625</AltitudeMeters>
            <DistanceMeters>NAN</DistanceMeters>
          </Trackpoint>
          <Trackpoint>
            <Time>2019-10-10T14:02:21.000Z</Time>
            <Position>
              <LatitudeDegrees>37.382118366658687591552734375</LatitudeDegrees>
              <LongitudeDegrees>-5.99356996826827526092529296875</LongitudeDegrees>
            </Position>
            <AltitudeMeters>-46.40000152587890625</AltitudeMeters>
            <DistanceMeters>NAN</DistanceMeters>
          </Trackpoint>
          <Trackpoint>
            <Time>2019-10-10T14:02:22.000Z</Time>
            <Position>
              <LatitudeDegrees>37.38212733529508113861083984375</LatitudeDegrees>
              <LongitudeDegrees>-5.99356024526059627532958984375</LongitudeDegrees>
            </Position>
            <AltitudeMeters>-46.59999847412109375</AltitudeMeters>
            <DistanceMeters>NAN</DistanceMeters>
          </Trackpoint>
          <Trackpoint>
            <Time>2019-10-10T14:02:23.000Z</Time>
            <Position>
              <LatitudeDegrees>37.38213814795017242431640625</LatitudeDegrees>
              <LongitudeDegrees>-5.99355035461485385894775390625</LongitudeDegrees>
            </Position>
            <AltitudeMeters>-46.59999847412109375</AltitudeMeters>
            <DistanceMeters>NAN</DistanceMeters>
          </Trackpoint>
          <Trackpoint>
            <Time>2019-10-10T14:02:24.000Z</Time>
            <Position>
              <LatitudeDegrees>37.3821507208049297332763671875</LatitudeDegrees>
              <LongitudeDegrees>-5.99353711120784282684326171875</LongitudeDegrees>
            </Position>
            <AltitudeMeters>-46.59999847412109375</AltitudeMeters>
            <DistanceMeters>NAN</DistanceMeters>
          </Trackpoint>
          <Trackpoint>
            <Time>2019-10-10T14:02:28.000Z</Time>
            <Position>
              <LatitudeDegrees>37.38219204358756542205810546875</LatitudeDegrees>
              <LongitudeDegrees>-5.99350341595709323883056640625</LongitudeDegrees>
            </Position>
            <AltitudeMeters>-46.59999847412109375</AltitudeMeters>
            <DistanceMeters>NAN</DistanceMeters>
          </Trackpoint>
          <Trackpoint>
            <Time>2019-10-10T14:02:30.000Z</Time>
            <Position>
              <LatitudeDegrees>37.382201850414276123046875</LatitudeDegrees>
              <LongitudeDegrees>-5.99351062439382076263427734375</LongitudeDegrees>
            </Position>
            <AltitudeMeters>-46.59999847412109375</AltitudeMeters>
            <DistanceMeters>NAN</DistanceMeters>
          </Trackpoint>
          <Trackpoint>
            <Time>2019-10-10T14:02:34.000Z</Time>
            <Position>
              <LatitudeDegrees>37.38221534527838230133056640625</LatitudeDegrees>
              <LongitudeDegrees>-5.99352688528597354888916015625</LongitudeDegrees>
            </Position>
            <AltitudeMeters>-46.59999847412109375</AltitudeMeters>
            <DistanceMeters>NAN</DistanceMeters>
          </Trackpoint>
          <Trackpoint>
            <Time>2019-10-10T14:02:37.000Z</Time>
            <Position>
              <LatitudeDegrees>37.3822489567101001739501953125</LatitudeDegrees>
              <LongitudeDegrees>-5.99354314617812633514404296875</LongitudeDegrees>
            </Position>
            <AltitudeMeters>-46.799999237060546875</AltitudeMeters>
            <DistanceMeters>NAN</DistanceMeters>
          </Trackpoint>
          <Trackpoint>
            <Time>2019-10-10T14:02:38.000Z</Time>
            <Position>
              <LatitudeDegrees>37.38225759007036685943603515625</LatitudeDegrees>
              <LongitudeDegrees>-5.9935454092919826507568359375</LongitudeDegrees>
            </Position>
            <AltitudeMeters>-46.799999237060546875</AltitudeMeters>
            <DistanceMeters>NAN</DistanceMeters>
          </Trackpoint>
          <Trackpoint>
            <Time>2019-10-10T14:02:39.000Z</Time>
            <Position>
              <LatitudeDegrees>37.3822714202105998992919921875</LatitudeDegrees>
              <LongitudeDegrees>-5.9935449063777923583984375</LongitudeDegrees>
            </Position>
            <AltitudeMeters>-47</AltitudeMeters>
            <DistanceMeters>NAN</DistanceMeters>
          </Trackpoint>
          <Trackpoint>
            <Time>2019-10-10T14:02:43.000Z</Time>
            <Position>
              <LatitudeDegrees>37.3823451809585094451904296875</LatitudeDegrees>
              <LongitudeDegrees>-5.993546582758426666259765625</LongitudeDegrees>
            </Position>
            <AltitudeMeters>-47.200000762939453125</AltitudeMeters>
            <DistanceMeters>NAN</DistanceMeters>
          </Trackpoint>
          <Trackpoint>
            <Time>2019-10-10T14:02:45.000Z</Time>
            <Position>
              <LatitudeDegrees>37.382385246455669403076171875</LatitudeDegrees>
              <LongitudeDegrees>-5.99356560967862606048583984375</LongitudeDegrees>
            </Position>
            <AltitudeMeters>-47.200000762939453125</AltitudeMeters>
            <DistanceMeters>NAN</DistanceMeters>
          </Trackpoint>
          <Trackpoint>
            <Time>2019-10-10T14:02:47.000Z</Time>
            <Position>
              <LatitudeDegrees>37.382415421307086944580078125</LatitudeDegrees>
              <LongitudeDegrees>-5.99358203820884227752685546875</LongitudeDegrees>
            </Position>
            <AltitudeMeters>-47.200000762939453125</AltitudeMeters>
            <DistanceMeters>NAN</DistanceMeters>
          </Trackpoint>
          <Trackpoint>
            <Time>2019-10-10T14:02:48.000Z</Time>
            <Position>
              <LatitudeDegrees>37.38243729807436466217041015625</LatitudeDegrees>
              <LongitudeDegrees>-5.99357801489531993865966796875</LongitudeDegrees>
            </Position>
            <AltitudeMeters>-47</AltitudeMeters>
            <DistanceMeters>NAN</DistanceMeters>
          </Trackpoint>
          <Trackpoint>
            <Time>2019-10-10T14:02:49.000Z</Time>
            <Position>
              <LatitudeDegrees>37.38246311433613300323486328125</LatitudeDegrees>
              <LongitudeDegrees>-5.993571393191814422607421875</LongitudeDegrees>
            </Position>
            <AltitudeMeters>-47.200000762939453125</AltitudeMeters>
            <DistanceMeters>NAN</DistanceMeters>
          </Trackpoint>
          <Trackpoint>
            <Time>2019-10-10T14:02:53.000Z</Time>
            <Position>
              <LatitudeDegrees>37.382555566728115081787109375</LatitudeDegrees>
              <LongitudeDegrees>-5.9935507737100124359130859375</LongitudeDegrees>
            </Position>
            <AltitudeMeters>-47.200000762939453125</AltitudeMeters>
            <DistanceMeters>NAN</DistanceMeters>
          </Trackpoint>
          <Trackpoint>
            <Time>2019-10-10T14:02:56.000Z</Time>
            <Position>
              <LatitudeDegrees>37.3826231248676776885986328125</LatitudeDegrees>
              <LongitudeDegrees>-5.993525795638561248779296875</LongitudeDegrees>
            </Position>
            <AltitudeMeters>-47.40000152587890625</AltitudeMeters>
            <DistanceMeters>NAN</DistanceMeters>
          </Trackpoint>
          <Trackpoint>
            <Time>2019-10-10T14:03:03.000Z</Time>
            <Position>
              <LatitudeDegrees>37.3828138969838619232177734375</LatitudeDegrees>
              <LongitudeDegrees>-5.99352520890533924102783203125</LongitudeDegrees>
            </Position>
            <AltitudeMeters>-47.59999847412109375</AltitudeMeters>
            <DistanceMeters>NAN</DistanceMeters>
          </Trackpoint>
          <Trackpoint>
            <Time>2019-10-10T14:03:05.000Z</Time>
            <Position>
              <LatitudeDegrees>37.3828698880970478057861328125</LatitudeDegrees>
              <LongitudeDegrees>-5.99353694356977939605712890625</LongitudeDegrees>
            </Position>
            <AltitudeMeters>-47.59999847412109375</AltitudeMeters>
            <DistanceMeters>NAN</DistanceMeters>
          </Trackpoint>
          <Trackpoint>
            <Time>2019-10-10T14:03:08.000Z</Time>
            <Position>
              <LatitudeDegrees>37.3829510249197483062744140625</LatitudeDegrees>
              <LongitudeDegrees>-5.99351883865892887115478515625</LongitudeDegrees>
            </Position>
            <AltitudeMeters>-47.59999847412109375</AltitudeMeters>
            <DistanceMeters>NAN</DistanceMeters>
          </Trackpoint>
          <Trackpoint>
            <Time>2019-10-10T14:03:13.000Z</Time>
            <Position>
              <LatitudeDegrees>37.3830804415047168731689453125</LatitudeDegrees>
              <LongitudeDegrees>-5.993538536131381988525390625</LongitudeDegrees>
            </Position>
            <AltitudeMeters>-47.59999847412109375</AltitudeMeters>
            <DistanceMeters>NAN</DistanceMeters>
          </Trackpoint>
          <Trackpoint>
            <Time>2019-10-10T14:03:15.000Z</Time>
            <Position>
              <LatitudeDegrees>37.38312914036214351654052734375</LatitudeDegrees>
              <LongitudeDegrees>-5.9935430623590946197509765625</LongitudeDegrees>
            </Position>
            <AltitudeMeters>-47.40000152587890625</AltitudeMeters>
            <DistanceMeters>NAN</DistanceMeters>
          </Trackpoint>
          <Trackpoint>
            <Time>2019-10-10T14:03:20.000Z</Time>
            <Position>
              <LatitudeDegrees>37.383255623281002044677734375</LatitudeDegrees>
              <LongitudeDegrees>-5.99355488084256649017333984375</LongitudeDegrees>
            </Position>
            <AltitudeMeters>-47.59999847412109375</AltitudeMeters>
            <DistanceMeters>NAN</DistanceMeters>
          </Trackpoint>
          <Trackpoint>
            <Time>2019-10-10T14:03:22.000Z</Time>
            <Position>
              <LatitudeDegrees>37.383305244147777557373046875</LatitudeDegrees>
              <LongitudeDegrees>-5.99356125108897686004638671875</LongitudeDegrees>
            </Position>
            <AltitudeMeters>-47.59999847412109375</AltitudeMeters>
            <DistanceMeters>NAN</DistanceMeters>
          </Trackpoint>
          <Trackpoint>
            <Time>2019-10-10T14:03:24.000Z</Time>
            <Position>
              <LatitudeDegrees>37.3833543621003627777099609375</LatitudeDegrees>
              <LongitudeDegrees>-5.99357700906693935394287109375</LongitudeDegrees>
            </Position>
            <AltitudeMeters>-47.40000152587890625</AltitudeMeters>
            <DistanceMeters>NAN</DistanceMeters>
          </Trackpoint>
          <Trackpoint>
            <Time>2019-10-10T14:03:29.000Z</Time>
            <Position>
              <LatitudeDegrees>37.38347497768700122833251953125</LatitudeDegrees>
              <LongitudeDegrees>-5.99361531436443328857421875</LongitudeDegrees>
            </Position>
            <AltitudeMeters>-47.40000152587890625</AltitudeMeters>
            <DistanceMeters>NAN</DistanceMeters>
          </Trackpoint>
          <Trackpoint>
            <Time>2019-10-10T14:03:30.000Z</Time>
            <Position>
              <LatitudeDegrees>37.3834998719394207000732421875</LatitudeDegrees>
              <LongitudeDegrees>-5.9936200082302093505859375</LongitudeDegrees>
            </Position>
            <AltitudeMeters>-47.40000152587890625</AltitudeMeters>
            <DistanceMeters>NAN</DistanceMeters>
          </Trackpoint>
          <Trackpoint>
            <Time>2019-10-10T14:03:32.000Z</Time>
            <Position>
              <LatitudeDegrees>37.3835523426532745361328125</LatitudeDegrees>
              <LongitudeDegrees>-5.99362579174339771270751953125</LongitudeDegrees>
            </Position>
            <AltitudeMeters>-47.40000152587890625</AltitudeMeters>
            <DistanceMeters>NAN</DistanceMeters>
          </Trackpoint>
          <Trackpoint>
            <Time>2019-10-10T14:03:39.000Z</Time>
            <Position>
              <LatitudeDegrees>37.38375124521553516387939453125</LatitudeDegrees>
              <LongitudeDegrees>-5.9936386160552501678466796875</LongitudeDegrees>
            </Position>
            <AltitudeMeters>-47.40000152587890625</AltitudeMeters>
            <DistanceMeters>NAN</DistanceMeters>
          </Trackpoint>
          <Trackpoint>
            <Time>2019-10-10T14:03:41.000Z</Time>
            <Position>
              <LatitudeDegrees>37.38380555994808673858642578125</LatitudeDegrees>
              <LongitudeDegrees>-5.99365152418613433837890625</LongitudeDegrees>
            </Position>
            <AltitudeMeters>-47.200000762939453125</AltitudeMeters>
            <DistanceMeters>NAN</DistanceMeters>
          </Trackpoint>
          <Trackpoint>
            <Time>2019-10-10T14:03:45.000Z</Time>
            <Position>
              <LatitudeDegrees>37.3839068971574306488037109375</LatitudeDegrees>
              <LongitudeDegrees>-5.99369108676910400390625</LongitudeDegrees>
            </Position>
            <AltitudeMeters>-47.200000762939453125</AltitudeMeters>
            <DistanceMeters>NAN</DistanceMeters>
          </Trackpoint>
          <Trackpoint>
            <Time>2019-10-10T14:03:47.000Z</Time>
            <Position>
              <LatitudeDegrees>37.38394855521619319915771484375</LatitudeDegrees>
              <LongitudeDegrees>-5.9937036596238613128662109375</LongitudeDegrees>
            </Position>
            <AltitudeMeters>-47.40000152587890625</AltitudeMeters>
            <DistanceMeters>NAN</DistanceMeters>
          </Trackpoint>
          <Trackpoint>
            <Time>2019-10-10T14:03:50.000Z</Time>
            <Position>
              <LatitudeDegrees>37.38401946611702442169189453125</LatitudeDegrees>
              <LongitudeDegrees>-5.9937194176018238067626953125</LongitudeDegrees>
            </Position>
            <AltitudeMeters>-46.799999237060546875</AltitudeMeters>
            <DistanceMeters>NAN</DistanceMeters>
          </Trackpoint>
          <Trackpoint>
            <Time>2019-10-10T14:03:52.000Z</Time>
            <Position>
              <LatitudeDegrees>37.3840619623661041259765625</LatitudeDegrees>
              <LongitudeDegrees>-5.99371547810733318328857421875</LongitudeDegrees>
            </Position>
            <AltitudeMeters>-47</AltitudeMeters>
            <DistanceMeters>NAN</DistanceMeters>
          </Trackpoint>
          <Trackpoint>
            <Time>2019-10-10T14:03:53.000Z</Time>
            <Position>
              <LatitudeDegrees>37.384087108075618743896484375</LatitudeDegrees>
              <LongitudeDegrees>-5.993720255792140960693359375</LongitudeDegrees>
            </Position>
            <AltitudeMeters>-47</AltitudeMeters>
            <DistanceMeters>NAN</DistanceMeters>
          </Trackpoint>
          <Trackpoint>
            <Time>2019-10-10T14:03:58.000Z</Time>
            <Position>
              <LatitudeDegrees>37.38419816829264163970947265625</LatitudeDegrees>
              <LongitudeDegrees>-5.9937653504312038421630859375</LongitudeDegrees>
            </Position>
            <AltitudeMeters>-47</AltitudeMeters>
            <DistanceMeters>NAN</DistanceMeters>
          </Trackpoint>
          <Trackpoint>
            <Time>2019-10-10T14:04:00.000Z</Time>
            <Position>
              <LatitudeDegrees>37.38424502313137054443359375</LatitudeDegrees>
              <LongitudeDegrees>-5.99377213977277278900146484375</LongitudeDegrees>
            </Position>
            <AltitudeMeters>-47.200000762939453125</AltitudeMeters>
            <DistanceMeters>NAN</DistanceMeters>
          </Trackpoint>
          <Trackpoint>
            <Time>2019-10-10T14:04:07.000Z</Time>
            <Position>
              <LatitudeDegrees>37.3844026029109954833984375</LatitudeDegrees>
              <LongitudeDegrees>-5.99377113394439220428466796875</LongitudeDegrees>
            </Position>
            <AltitudeMeters>-47</AltitudeMeters>
            <DistanceMeters>NAN</DistanceMeters>
          </Trackpoint>
          <Trackpoint>
            <Time>2019-10-10T14:04:12.000Z</Time>
            <Position>
              <LatitudeDegrees>37.38452523015439510345458984375</LatitudeDegrees>
              <LongitudeDegrees>-5.99377381615340709686279296875</LongitudeDegrees>
            </Position>
            <AltitudeMeters>-46.799999237060546875</AltitudeMeters>
            <DistanceMeters>NAN</DistanceMeters>
          </Trackpoint>
          <Trackpoint>
            <Time>2019-10-10T14:04:14.000Z</Time>
            <Position>
              <LatitudeDegrees>37.38456688821315765380859375</LatitudeDegrees>
              <LongitudeDegrees>-5.993782617151737213134765625</LongitudeDegrees>
            </Position>
            <AltitudeMeters>-46.59999847412109375</AltitudeMeters>
            <DistanceMeters>NAN</DistanceMeters>
          </Trackpoint>
          <Trackpoint>
            <Time>2019-10-10T14:04:16.000Z</Time>
            <Position>
              <LatitudeDegrees>37.38461810164153575897216796875</LatitudeDegrees>
              <LongitudeDegrees>-5.99379368126392364501953125</LongitudeDegrees>
            </Position>
            <AltitudeMeters>-46.799999237060546875</AltitudeMeters>
            <DistanceMeters>NAN</DistanceMeters>
          </Trackpoint>
          <Trackpoint>
            <Time>2019-10-10T14:04:21.000Z</Time>
            <Position>
              <LatitudeDegrees>37.38472287543118000030517578125</LatitudeDegrees>
              <LongitudeDegrees>-5.99383165128529071807861328125</LongitudeDegrees>
            </Position>
            <AltitudeMeters>-46.59999847412109375</AltitudeMeters>
            <DistanceMeters>NAN</DistanceMeters>
          </Trackpoint>
          <Trackpoint>
            <Time>2019-10-10T14:04:23.000Z</Time>
            <Position>
              <LatitudeDegrees>37.38473720848560333251953125</LatitudeDegrees>
              <LongitudeDegrees>-5.99384053610265254974365234375</LongitudeDegrees>
            </Position>
            <AltitudeMeters>-46.59999847412109375</AltitudeMeters>
            <DistanceMeters>NAN</DistanceMeters>
          </Trackpoint>
          <Trackpoint>
            <Time>2019-10-10T14:04:26.000Z</Time>
            <Position>
              <LatitudeDegrees>37.384787499904632568359375</LatitudeDegrees>
              <LongitudeDegrees>-5.9938417933881282806396484375</LongitudeDegrees>
            </Position>
            <AltitudeMeters>-46.40000152587890625</AltitudeMeters>
            <DistanceMeters>NAN</DistanceMeters>
          </Trackpoint>
          <Trackpoint>
            <Time>2019-10-10T14:04:30.000Z</Time>
            <Position>
              <LatitudeDegrees>37.38488095812499523162841796875</LatitudeDegrees>
              <LongitudeDegrees>-5.99384254775941371917724609375</LongitudeDegrees>
            </Position>
            <AltitudeMeters>-46.40000152587890625</AltitudeMeters>
            <DistanceMeters>NAN</DistanceMeters>
          </Trackpoint>
          <Trackpoint>
            <Time>2019-10-10T14:04:32.000Z</Time>
            <Position>
              <LatitudeDegrees>37.38492789678275585174560546875</LatitudeDegrees>
              <LongitudeDegrees>-5.99384338594973087310791015625</LongitudeDegrees>
            </Position>
            <AltitudeMeters>-46.200000762939453125</AltitudeMeters>
            <DistanceMeters>NAN</DistanceMeters>
          </Trackpoint>
          <Trackpoint>
            <Time>2019-10-10T14:04:38.000Z</Time>
            <Position>
              <LatitudeDegrees>37.3850639350712299346923828125</LatitudeDegrees>
              <LongitudeDegrees>-5.993862412869930267333984375</LongitudeDegrees>
            </Position>
            <AltitudeMeters>-46.40000152587890625</AltitudeMeters>
            <DistanceMeters>NAN</DistanceMeters>
          </Trackpoint>
          <Trackpoint>
            <Time>2019-10-10T14:04:42.000Z</Time>
            <Position>
              <LatitudeDegrees>37.38517574965953826904296875</LatitudeDegrees>
              <LongitudeDegrees>-5.99387347698211669921875</LongitudeDegrees>
            </Position>
            <AltitudeMeters>-46.200000762939453125</AltitudeMeters>
            <DistanceMeters>NAN</DistanceMeters>
          </Trackpoint>
          <Trackpoint>
            <Time>2019-10-10T14:04:43.000Z</Time>
            <Position>
              <LatitudeDegrees>37.38520014099776744842529296875</LatitudeDegrees>
              <LongitudeDegrees>-5.9938783384859561920166015625</LongitudeDegrees>
            </Position>
            <AltitudeMeters>-46</AltitudeMeters>
            <DistanceMeters>NAN</DistanceMeters>
          </Trackpoint>
          <Trackpoint>
            <Time>2019-10-10T14:04:44.000Z</Time>
            <Position>
              <LatitudeDegrees>37.3852205090224742889404296875</LatitudeDegrees>
              <LongitudeDegrees>-5.99387708120048046112060546875</LongitudeDegrees>
            </Position>
            <AltitudeMeters>-46</AltitudeMeters>
            <DistanceMeters>NAN</DistanceMeters>
          </Trackpoint>
          <Trackpoint>
            <Time>2019-10-10T14:04:48.000Z</Time>
            <Position>
              <LatitudeDegrees>37.3852825351059436798095703125</LatitudeDegrees>
              <LongitudeDegrees>-5.99390423856675624847412109375</LongitudeDegrees>
            </Position>
            <AltitudeMeters>-46.200000762939453125</AltitudeMeters>
            <DistanceMeters>NAN</DistanceMeters>
          </Trackpoint>
          <Trackpoint>
            <Time>2019-10-10T14:04:49.000Z</Time>
            <Position>
              <LatitudeDegrees>37.3852966167032718658447265625</LatitudeDegrees>
              <LongitudeDegrees>-5.99391530267894268035888671875</LongitudeDegrees>
            </Position>
            <AltitudeMeters>-46</AltitudeMeters>
            <DistanceMeters>NAN</DistanceMeters>
          </Trackpoint>
          <Trackpoint>
            <Time>2019-10-10T14:04:54.000Z</Time>
            <Position>
              <LatitudeDegrees>37.385436594486236572265625</LatitudeDegrees>
              <LongitudeDegrees>-5.9939631633460521697998046875</LongitudeDegrees>
            </Position>
            <AltitudeMeters>-46.40000152587890625</AltitudeMeters>
            <DistanceMeters>NAN</DistanceMeters>
          </Trackpoint>
          <Trackpoint>
            <Time>2019-10-10T14:04:55.000Z</Time>
            <Position>
              <LatitudeDegrees>37.3854649253189563751220703125</LatitudeDegrees>
              <LongitudeDegrees>-5.993964336812496185302734375</LongitudeDegrees>
            </Position>
            <AltitudeMeters>-46.200000762939453125</AltitudeMeters>
            <DistanceMeters>NAN</DistanceMeters>
          </Trackpoint>
          <Trackpoint>
            <Time>2019-10-10T14:04:57.000Z</Time>
            <Position>
              <LatitudeDegrees>37.38552150316536426544189453125</LatitudeDegrees>
              <LongitudeDegrees>-5.99397146143019199371337890625</LongitudeDegrees>
            </Position>
            <AltitudeMeters>-46</AltitudeMeters>
            <DistanceMeters>NAN</DistanceMeters>
          </Trackpoint>
          <Trackpoint>
            <Time>2019-10-10T14:05:00.000Z</Time>
            <Position>
              <LatitudeDegrees>37.3856000415980815887451171875</LatitudeDegrees>
              <LongitudeDegrees>-5.99399174563586711883544921875</LongitudeDegrees>
            </Position>
            <AltitudeMeters>-46</AltitudeMeters>
            <DistanceMeters>NAN</DistanceMeters>
          </Trackpoint>
          <Trackpoint>
            <Time>2019-10-10T14:05:04.000Z</Time>
            <Position>
              <LatitudeDegrees>37.38569634966552257537841796875</LatitudeDegrees>
              <LongitudeDegrees>-5.9940050728619098663330078125</LongitudeDegrees>
            </Position>
            <AltitudeMeters>-46.200000762939453125</AltitudeMeters>
            <DistanceMeters>NAN</DistanceMeters>
          </Trackpoint>
          <Trackpoint>
            <Time>2019-10-10T14:05:08.000Z</Time>
            <Position>
              <LatitudeDegrees>37.385790981352329254150390625</LatitudeDegrees>
              <LongitudeDegrees>-5.99401655606925487518310546875</LongitudeDegrees>
            </Position>
            <AltitudeMeters>-46.40000152587890625</AltitudeMeters>
            <DistanceMeters>NAN</DistanceMeters>
          </Trackpoint>
          <Trackpoint>
            <Time>2019-10-10T14:05:09.000Z</Time>
            <Position>
              <LatitudeDegrees>37.38581671379506587982177734375</LatitudeDegrees>
              <LongitudeDegrees>-5.99401890300214290618896484375</LongitudeDegrees>
            </Position>
            <AltitudeMeters>-46.40000152587890625</AltitudeMeters>
            <DistanceMeters>NAN</DistanceMeters>
          </Trackpoint>
          <Trackpoint>
            <Time>2019-10-10T14:05:13.000Z</Time>
            <Position>
              <LatitudeDegrees>37.38593925721943378448486328125</LatitudeDegrees>
              <LongitudeDegrees>-5.99400951527059078216552734375</LongitudeDegrees>
            </Position>
            <AltitudeMeters>-46.40000152587890625</AltitudeMeters>
            <DistanceMeters>NAN</DistanceMeters>
          </Trackpoint>
          <Trackpoint>
            <Time>2019-10-10T14:05:15.000Z</Time>
            <Position>
              <LatitudeDegrees>37.3859976790845394134521484375</LatitudeDegrees>
              <LongitudeDegrees>-5.99400700069963932037353515625</LongitudeDegrees>
            </Position>
            <AltitudeMeters>-46.59999847412109375</AltitudeMeters>
            <DistanceMeters>NAN</DistanceMeters>
          </Trackpoint>
          <Trackpoint>
            <Time>2019-10-10T14:05:19.000Z</Time>
            <Position>
              <LatitudeDegrees>37.3861307837069034576416015625</LatitudeDegrees>
              <LongitudeDegrees>-5.9940121136605739593505859375</LongitudeDegrees>
            </Position>
            <AltitudeMeters>-46.59999847412109375</AltitudeMeters>
            <DistanceMeters>NAN</DistanceMeters>
          </Trackpoint>
          <Trackpoint>
            <Time>2019-10-10T14:05:22.000Z</Time>
            <Position>
              <LatitudeDegrees>37.3862283490598201751708984375</LatitudeDegrees>
              <LongitudeDegrees>-5.99402728490531444549560546875</LongitudeDegrees>
            </Position>
            <AltitudeMeters>-46.40000152587890625</AltitudeMeters>
            <DistanceMeters>NAN</DistanceMeters>
          </Trackpoint>
          <Trackpoint>
            <Time>2019-10-10T14:05:24.000Z</Time>
            <Position>
              <LatitudeDegrees>37.3862856812775135040283203125</LatitudeDegrees>
              <LongitudeDegrees>-5.99404036067426204681396484375</LongitudeDegrees>
            </Position>
            <AltitudeMeters>-46.59999847412109375</AltitudeMeters>
            <DistanceMeters>NAN</DistanceMeters>
          </Trackpoint>
          <Trackpoint>
            <Time>2019-10-10T14:05:27.000Z</Time>
            <Position>
              <LatitudeDegrees>37.386364638805389404296875</LatitudeDegrees>
              <LongitudeDegrees>-5.99404991604387760162353515625</LongitudeDegrees>
            </Position>
            <AltitudeMeters>-46.40000152587890625</AltitudeMeters>
            <DistanceMeters>NAN</DistanceMeters>
          </Trackpoint>
          <Trackpoint>
            <Time>2019-10-10T14:05:28.000Z</Time>
            <Position>
              <LatitudeDegrees>37.3863901197910308837890625</LatitudeDegrees>
              <LongitudeDegrees>-5.9940510056912899017333984375</LongitudeDegrees>
            </Position>
            <AltitudeMeters>-46.59999847412109375</AltitudeMeters>
            <DistanceMeters>NAN</DistanceMeters>
          </Trackpoint>
          <Trackpoint>
            <Time>2019-10-10T14:05:30.000Z</Time>
            <Position>
              <LatitudeDegrees>37.38644468598067760467529296875</LatitudeDegrees>
              <LongitudeDegrees>-5.9940580464899539947509765625</LongitudeDegrees>
            </Position>
            <AltitudeMeters>-46.59999847412109375</AltitudeMeters>
            <DistanceMeters>NAN</DistanceMeters>
          </Trackpoint>
          <Trackpoint>
            <Time>2019-10-10T14:05:31.000Z</Time>
            <Position>
              <LatitudeDegrees>37.3864720948040485382080078125</LatitudeDegrees>
              <LongitudeDegrees>-5.99405921995639801025390625</LongitudeDegrees>
            </Position>
            <AltitudeMeters>-46.799999237060546875</AltitudeMeters>
            <DistanceMeters>NAN</DistanceMeters>
          </Trackpoint>
          <Trackpoint>
            <Time>2019-10-10T14:05:35.000Z</Time>
            <Position>
              <LatitudeDegrees>37.38653973676264286041259765625</LatitudeDegrees>
              <LongitudeDegrees>-5.994048155844211578369140625</LongitudeDegrees>
            </Position>
            <AltitudeMeters>-46.59999847412109375</AltitudeMeters>
            <DistanceMeters>NAN</DistanceMeters>
          </Trackpoint>
          <Trackpoint>
            <Time>2019-10-10T14:05:36.000Z</Time>
            <Position>
              <LatitudeDegrees>37.3865564167499542236328125</LatitudeDegrees>
              <LongitudeDegrees>-5.99405243061482906341552734375</LongitudeDegrees>
            </Position>
            <AltitudeMeters>-46.40000152587890625</AltitudeMeters>
            <DistanceMeters>NAN</DistanceMeters>
          </Trackpoint>
          <Trackpoint>
            <Time>2019-10-10T14:05:37.000Z</Time>
            <Position>
              <LatitudeDegrees>37.38657309673726558685302734375</LatitudeDegrees>
              <LongitudeDegrees>-5.99405444227159023284912109375</LongitudeDegrees>
            </Position>
            <AltitudeMeters>-46.59999847412109375</AltitudeMeters>
            <DistanceMeters>NAN</DistanceMeters>
          </Trackpoint>
          <Trackpoint>
            <Time>2019-10-10T14:05:38.000Z</Time>
            <Position>
              <LatitudeDegrees>37.3865948058664798736572265625</LatitudeDegrees>
              <LongitudeDegrees>-5.99405360408127307891845703125</LongitudeDegrees>
            </Position>
            <AltitudeMeters>-46.59999847412109375</AltitudeMeters>
            <DistanceMeters>NAN</DistanceMeters>
          </Trackpoint>
          <Trackpoint>
            <Time>2019-10-10T14:05:39.000Z</Time>
            <Position>
              <LatitudeDegrees>37.38661475479602813720703125</LatitudeDegrees>
              <LongitudeDegrees>-5.99406030960381031036376953125</LongitudeDegrees>
            </Position>
            <AltitudeMeters>-47</AltitudeMeters>
            <DistanceMeters>NAN</DistanceMeters>
          </Trackpoint>
          <Trackpoint>
            <Time>2019-10-10T14:05:40.000Z</Time>
            <Position>
              <LatitudeDegrees>37.386629171669483184814453125</LatitudeDegrees>
              <LongitudeDegrees>-5.99406860768795013427734375</LongitudeDegrees>
            </Position>
            <AltitudeMeters>-46.799999237060546875</AltitudeMeters>
            <DistanceMeters>NAN</DistanceMeters>
          </Trackpoint>
          <Trackpoint>
            <Time>2019-10-10T14:05:42.000Z</Time>
            <Position>
              <LatitudeDegrees>37.38666127435863018035888671875</LatitudeDegrees>
              <LongitudeDegrees>-5.99409903399646282196044921875</LongitudeDegrees>
            </Position>
            <AltitudeMeters>-47</AltitudeMeters>
            <DistanceMeters>NAN</DistanceMeters>
          </Trackpoint>
          <Trackpoint>
            <Time>2019-10-10T14:05:43.000Z</Time>
            <Position>
              <LatitudeDegrees>37.386684827506542205810546875</LatitudeDegrees>
              <LongitudeDegrees>-5.99411026574671268463134765625</LongitudeDegrees>
            </Position>
            <AltitudeMeters>-47</AltitudeMeters>
            <DistanceMeters>NAN</DistanceMeters>
          </Trackpoint>
          <Trackpoint>
            <Time>2019-10-10T14:05:45.000Z</Time>
            <Position>
              <LatitudeDegrees>37.3867533914744853973388671875</LatitudeDegrees>
              <LongitudeDegrees>-5.99411345086991786956787109375</LongitudeDegrees>
            </Position>
            <AltitudeMeters>-46.59999847412109375</AltitudeMeters>
            <DistanceMeters>NAN</DistanceMeters>
          </Trackpoint>
          <Trackpoint>
            <Time>2019-10-10T14:05:47.000Z</Time>
            <Position>
              <LatitudeDegrees>37.38681281916797161102294921875</LatitudeDegrees>
              <LongitudeDegrees>-5.9941217489540576934814453125</LongitudeDegrees>
            </Position>
            <AltitudeMeters>-46.799999237060546875</AltitudeMeters>
            <DistanceMeters>NAN</DistanceMeters>
          </Trackpoint>
          <Trackpoint>
            <Time>2019-10-10T14:05:48.000Z</Time>
            <Position>
              <LatitudeDegrees>37.38683712668716907501220703125</LatitudeDegrees>
              <LongitudeDegrees>-5.99412367679178714752197265625</LongitudeDegrees>
            </Position>
            <AltitudeMeters>-47</AltitudeMeters>
            <DistanceMeters>NAN</DistanceMeters>
          </Trackpoint>
          <Trackpoint>
            <Time>2019-10-10T14:05:50.000Z</Time>
            <Position>
              <LatitudeDegrees>37.386881299316883087158203125</LatitudeDegrees>
              <LongitudeDegrees>-5.9941361658275127410888671875</LongitudeDegrees>
            </Position>
            <AltitudeMeters>-46.799999237060546875</AltitudeMeters>
            <DistanceMeters>NAN</DistanceMeters>
          </Trackpoint>
          <Trackpoint>
            <Time>2019-10-10T14:05:52.000Z</Time>
            <Position>
              <LatitudeDegrees>37.38693502731621265411376953125</LatitudeDegrees>
              <LongitudeDegrees>-5.9941532649099826812744140625</LongitudeDegrees>
            </Position>
            <AltitudeMeters>-46.59999847412109375</AltitudeMeters>
            <DistanceMeters>NAN</DistanceMeters>
          </Trackpoint>
          <Trackpoint>
            <Time>2019-10-10T14:05:54.000Z</Time>
            <Position>
              <LatitudeDegrees>37.3869978077709674835205078125</LatitudeDegrees>
              <LongitudeDegrees>-5.99416022188961505889892578125</LongitudeDegrees>
            </Position>
            <AltitudeMeters>-46.59999847412109375</AltitudeMeters>
            <DistanceMeters>NAN</DistanceMeters>
          </Trackpoint>
          <Trackpoint>
            <Time>2019-10-10T14:05:57.000Z</Time>
            <Position>
              <LatitudeDegrees>37.38709897734224796295166015625</LatitudeDegrees>
              <LongitudeDegrees>-5.99416944198310375213623046875</LongitudeDegrees>
            </Position>
            <AltitudeMeters>-47</AltitudeMeters>
            <DistanceMeters>NAN</DistanceMeters>
          </Trackpoint>
          <Trackpoint>
            <Time>2019-10-10T14:05:58.000Z</Time>
            <Position>
              <LatitudeDegrees>37.387126721441745758056640625</LatitudeDegrees>
              <LongitudeDegrees>-5.99417715333402156829833984375</LongitudeDegrees>
            </Position>
            <AltitudeMeters>-47</AltitudeMeters>
            <DistanceMeters>NAN</DistanceMeters>
          </Trackpoint>
          <Trackpoint>
            <Time>2019-10-10T14:05:59.000Z</Time>
            <Position>
              <LatitudeDegrees>37.38715463317930698394775390625</LatitudeDegrees>
              <LongitudeDegrees>-5.9941851161420345306396484375</LongitudeDegrees>
            </Position>
            <AltitudeMeters>-47</AltitudeMeters>
            <DistanceMeters>NAN</DistanceMeters>
          </Trackpoint>
          <Trackpoint>
            <Time>2019-10-10T14:06:00.000Z</Time>
            <Position>
              <LatitudeDegrees>37.3871812038123607635498046875</LatitudeDegrees>
              <LongitudeDegrees>-5.99419291131198406219482421875</LongitudeDegrees>
            </Position>
            <AltitudeMeters>-47</AltitudeMeters>
            <DistanceMeters>NAN</DistanceMeters>
          </Trackpoint>
          <Trackpoint>
            <Time>2019-10-10T14:06:01.000Z</Time>
            <Position>
              <LatitudeDegrees>37.3872117139399051666259765625</LatitudeDegrees>
              <LongitudeDegrees>-5.99420003592967987060546875</LongitudeDegrees>
            </Position>
            <AltitudeMeters>-47</AltitudeMeters>
            <DistanceMeters>NAN</DistanceMeters>
          </Trackpoint>
          <Trackpoint>
            <Time>2019-10-10T14:06:03.000Z</Time>
            <Position>
              <LatitudeDegrees>37.38727633841335773468017578125</LatitudeDegrees>
              <LongitudeDegrees>-5.9942020475864410400390625</LongitudeDegrees>
            </Position>
            <AltitudeMeters>-47</AltitudeMeters>
            <DistanceMeters>NAN</DistanceMeters>
          </Trackpoint>
          <Trackpoint>
            <Time>2019-10-10T14:06:04.000Z</Time>
            <Position>
              <LatitudeDegrees>37.387314476072788238525390625</LatitudeDegrees>
              <LongitudeDegrees>-5.99419777281582355499267578125</LongitudeDegrees>
            </Position>
            <AltitudeMeters>-47</AltitudeMeters>
            <DistanceMeters>NAN</DistanceMeters>
          </Trackpoint>
          <Trackpoint>
            <Time>2019-10-10T14:06:05.000Z</Time>
            <Position>
              <LatitudeDegrees>37.387352026998996734619140625</LatitudeDegrees>
              <LongitudeDegrees>-5.99419592879712581634521484375</LongitudeDegrees>
            </Position>
            <AltitudeMeters>-46.799999237060546875</AltitudeMeters>
            <DistanceMeters>NAN</DistanceMeters>
          </Trackpoint>
          <Trackpoint>
            <Time>2019-10-10T14:06:07.000Z</Time>
            <Position>
              <LatitudeDegrees>37.38742805086076259613037109375</LatitudeDegrees>
              <LongitudeDegrees>-5.994180254638195037841796875</LongitudeDegrees>
            </Position>
            <AltitudeMeters>-46.59999847412109375</AltitudeMeters>
            <DistanceMeters>NAN</DistanceMeters>
          </Trackpoint>
          <Trackpoint>
            <Time>2019-10-10T14:06:09.000Z</Time>
            <Position>
              <LatitudeDegrees>37.38749451935291290283203125</LatitudeDegrees>
              <LongitudeDegrees>-5.99416307173669338226318359375</LongitudeDegrees>
            </Position>
            <AltitudeMeters>-47</AltitudeMeters>
            <DistanceMeters>NAN</DistanceMeters>
          </Trackpoint>
          <Trackpoint>
            <Time>2019-10-10T14:06:10.000Z</Time>
            <Position>
              <LatitudeDegrees>37.387523688375949859619140625</LatitudeDegrees>
              <LongitudeDegrees>-5.99416592158377170562744140625</LongitudeDegrees>
            </Position>
            <AltitudeMeters>-47</AltitudeMeters>
            <DistanceMeters>NAN</DistanceMeters>
          </Trackpoint>
          <Trackpoint>
            <Time>2019-10-10T14:06:12.000Z</Time>
            <Position>
              <LatitudeDegrees>37.3875808529555797576904296875</LatitudeDegrees>
              <LongitudeDegrees>-5.99416709505021572113037109375</LongitudeDegrees>
            </Position>
            <AltitudeMeters>-46.799999237060546875</AltitudeMeters>
            <DistanceMeters>NAN</DistanceMeters>
          </Trackpoint>
          <Trackpoint>
            <Time>2019-10-10T14:06:15.000Z</Time>
            <Position>
              <LatitudeDegrees>37.38766081631183624267578125</LatitudeDegrees>
              <LongitudeDegrees>-5.99417187273502349853515625</LongitudeDegrees>
            </Position>
            <AltitudeMeters>-46.799999237060546875</AltitudeMeters>
            <DistanceMeters>NAN</DistanceMeters>
          </Trackpoint>
          <Trackpoint>
            <Time>2019-10-10T14:06:17.000Z</Time>
            <Position>
              <LatitudeDegrees>37.38771873526275157928466796875</LatitudeDegrees>
              <LongitudeDegrees>-5.9941807575523853302001953125</LongitudeDegrees>
            </Position>
            <AltitudeMeters>-46.799999237060546875</AltitudeMeters>
            <DistanceMeters>NAN</DistanceMeters>
          </Trackpoint>
          <Trackpoint>
            <Time>2019-10-10T14:06:20.000Z</Time>
            <Position>
              <LatitudeDegrees>37.38778981380164623260498046875</LatitudeDegrees>
              <LongitudeDegrees>-5.99421973340213298797607421875</LongitudeDegrees>
            </Position>
            <AltitudeMeters>-47.200000762939453125</AltitudeMeters>
            <DistanceMeters>NAN</DistanceMeters>
          </Trackpoint>
          <Trackpoint>
            <Time>2019-10-10T14:06:23.000Z</Time>
            <Position>
              <LatitudeDegrees>37.38787765614688396453857421875</LatitudeDegrees>
              <LongitudeDegrees>-5.99427790381014347076416015625</LongitudeDegrees>
            </Position>
            <AltitudeMeters>-47</AltitudeMeters>
            <DistanceMeters>NAN</DistanceMeters>
          </Trackpoint>
          <Trackpoint>
            <Time>2019-10-10T14:06:25.000Z</Time>
            <Position>
              <LatitudeDegrees>37.3879228346049785614013671875</LatitudeDegrees>
              <LongitudeDegrees>-5.9943172149360179901123046875</LongitudeDegrees>
            </Position>
            <AltitudeMeters>-46.799999237060546875</AltitudeMeters>
            <DistanceMeters>NAN</DistanceMeters>
          </Trackpoint>
          <Trackpoint>
            <Time>2019-10-10T14:06:27.000Z</Time>
            <Position>
              <LatitudeDegrees>37.3879654146730899810791015625</LatitudeDegrees>
              <LongitudeDegrees>-5.99434277974069118499755859375</LongitudeDegrees>
            </Position>
            <AltitudeMeters>-47</AltitudeMeters>
            <DistanceMeters>NAN</DistanceMeters>
          </Trackpoint>
          <Trackpoint>
            <Time>2019-10-10T14:06:28.000Z</Time>
            <Position>
              <LatitudeDegrees>37.38799014128744602203369140625</LatitudeDegrees>
              <LongitudeDegrees>-5.9943467192351818084716796875</LongitudeDegrees>
            </Position>
            <AltitudeMeters>-47</AltitudeMeters>
            <DistanceMeters>NAN</DistanceMeters>
          </Trackpoint>
          <Trackpoint>
            <Time>2019-10-10T14:06:30.000Z</Time>
            <Position>
              <LatitudeDegrees>37.38803791813552379608154296875</LatitudeDegrees>
              <LongitudeDegrees>-5.9943353198468685150146484375</LongitudeDegrees>
            </Position>
            <AltitudeMeters>-47.200000762939453125</AltitudeMeters>
            <DistanceMeters>NAN</DistanceMeters>
          </Trackpoint>
          <Trackpoint>
            <Time>2019-10-10T14:06:36.000Z</Time>
            <Position>
              <LatitudeDegrees>37.3881444521248340606689453125</LatitudeDegrees>
              <LongitudeDegrees>-5.99421210587024688720703125</LongitudeDegrees>
            </Position>
            <AltitudeMeters>-47</AltitudeMeters>
            <DistanceMeters>NAN</DistanceMeters>
          </Trackpoint>
          <Trackpoint>
            <Time>2019-10-10T14:06:37.000Z</Time>
            <Position>
              <LatitudeDegrees>37.38816532306373119354248046875</LatitudeDegrees>
              <LongitudeDegrees>-5.994193665683269500732421875</LongitudeDegrees>
            </Position>
            <AltitudeMeters>-46.799999237060546875</AltitudeMeters>
            <DistanceMeters>NAN</DistanceMeters>
          </Trackpoint>
          <Trackpoint>
            <Time>2019-10-10T14:06:39.000Z</Time>
            <Position>
              <LatitudeDegrees>37.38819968886673450469970703125</LatitudeDegrees>
              <LongitudeDegrees>-5.99415183998644351959228515625</LongitudeDegrees>
            </Position>
            <AltitudeMeters>-47</AltitudeMeters>
            <DistanceMeters>NAN</DistanceMeters>
          </Trackpoint>
          <Trackpoint>
            <Time>2019-10-10T14:06:40.000Z</Time>
            <Position>
              <LatitudeDegrees>37.388218380510807037353515625</LatitudeDegrees>
              <LongitudeDegrees>-5.9941391833126544952392578125</LongitudeDegrees>
            </Position>
            <AltitudeMeters>-46.799999237060546875</AltitudeMeters>
            <DistanceMeters>NAN</DistanceMeters>
          </Trackpoint>
          <Trackpoint>
            <Time>2019-10-10T14:06:42.000Z</Time>
            <Position>
              <LatitudeDegrees>37.38827177323400974273681640625</LatitudeDegrees>
              <LongitudeDegrees>-5.99411680363118648529052734375</LongitudeDegrees>
            </Position>
            <AltitudeMeters>-46.799999237060546875</AltitudeMeters>
            <DistanceMeters>NAN</DistanceMeters>
          </Trackpoint>
        </Track>
      </Lap>
    </Activity>
  </Activities>
</TrainingCenterDatabase>
